<?xml version="1.0" encoding="UTF-8" standalone="no" ?>
<gpx xmlns="http://www.topografix.com/GPX/1/1" xmlns:xsi="http://www.w3.org/2001/XMLSchema-instance" xsi:schemaLocation="http://www.topografix.com/GPX/1/1 http://www.topografix.com/GPX/1/1/gpx.xsd" version="1.1" creator="VisuGPX - https://www.visugpx.com">
  <metadata>
    <name>2022 - Sud-Ouest</name>
  </metadata>
  <trk>
    <name><![CDATA[Jour 1 - Sortie de Limoges]]></name>
    <trkseg>
      <trkpt lat="45.82833" lon="1.26514">
        <ele>261.2073974</ele>
        <time>2022-07-31T18:34:57Z</time>
      </trkpt>
      <trkpt lat="45.82835" lon="1.2652">
        <ele>263.717041</ele>
        <time>2022-07-31T18:34:59Z</time>
      </trkpt>
      <trkpt lat="45.82837" lon="1.26525">
        <ele>261.7304687</ele>
        <time>2022-07-31T18:35:01Z</time>
      </trkpt>
      <trkpt lat="45.8284" lon="1.2653">
        <ele>260.5</ele>
        <time>2022-07-31T18:35:03Z</time>
      </trkpt>
      <trkpt lat="45.82842" lon="1.26535">
        <ele>257.9906005</ele>
        <time>2022-07-31T18:35:05Z</time>
      </trkpt>
      <trkpt lat="45.82843" lon="1.26541">
        <ele>257.2345357</ele>
        <time>2022-07-31T18:35:07Z</time>
      </trkpt>
      <trkpt lat="45.82845" lon="1.26546">
        <ele>256.7107435</ele>
        <time>2022-07-31T18:35:09Z</time>
      </trkpt>
      <trkpt lat="45.82847" lon="1.26551">
        <ele>257.5402912</ele>
        <time>2022-07-31T18:35:11Z</time>
      </trkpt>
      <trkpt lat="45.82849" lon="1.26555">
        <ele>257.9913524</ele>
        <time>2022-07-31T18:35:13Z</time>
      </trkpt>
      <trkpt lat="45.82851" lon="1.26559">
        <ele>258.0393375</ele>
        <time>2022-07-31T18:35:15Z</time>
      </trkpt>
      <trkpt lat="45.82854" lon="1.26559">
        <ele>257.8365863</ele>
        <time>2022-07-31T18:35:17Z</time>
      </trkpt>
      <trkpt lat="45.82857" lon="1.2656">
        <ele>258.3876308</ele>
        <time>2022-07-31T18:35:19Z</time>
      </trkpt>
      <trkpt lat="45.8286" lon="1.26561">
        <ele>258.3015826</ele>
        <time>2022-07-31T18:35:21Z</time>
      </trkpt>
      <trkpt lat="45.82863" lon="1.26562">
        <ele>258.5690577</ele>
        <time>2022-07-31T18:35:23Z</time>
      </trkpt>
      <trkpt lat="45.82865" lon="1.26566">
        <ele>258.7378924</ele>
        <time>2022-07-31T18:35:25Z</time>
      </trkpt>
      <trkpt lat="45.82867" lon="1.26571">
        <ele>260.8031739</ele>
        <time>2022-07-31T18:35:27Z</time>
      </trkpt>
      <trkpt lat="45.82868" lon="1.26574">
        <ele>260.3504345</ele>
        <time>2022-07-31T18:35:29Z</time>
      </trkpt>
      <trkpt lat="45.82869" lon="1.26575">
        <ele>260.2862463</ele>
        <time>2022-07-31T18:35:31Z</time>
      </trkpt>
      <trkpt lat="45.82871" lon="1.2658">
        <ele>260.7429586</ele>
        <time>2022-07-31T18:35:33Z</time>
      </trkpt>
      <trkpt lat="45.82872" lon="1.26582">
        <ele>260.211253</ele>
        <time>2022-07-31T18:35:35Z</time>
      </trkpt>
      <trkpt lat="45.82873" lon="1.26586">
        <ele>260.4066683</ele>
        <time>2022-07-31T18:35:37Z</time>
      </trkpt>
      <trkpt lat="45.82874" lon="1.2659">
        <ele>260.543333</ele>
        <time>2022-07-31T18:35:39Z</time>
      </trkpt>
      <trkpt lat="45.82876" lon="1.26593">
        <ele>260.0832335</ele>
        <time>2022-07-31T18:35:41Z</time>
      </trkpt>
      <trkpt lat="45.82877" lon="1.26594">
        <ele>259.711282</ele>
        <time>2022-07-31T18:35:43Z</time>
      </trkpt>
      <trkpt lat="45.8288" lon="1.26595">
        <ele>260.0309698</ele>
        <time>2022-07-31T18:35:45Z</time>
      </trkpt>
      <trkpt lat="45.82882" lon="1.26599">
        <ele>260.4621336</ele>
        <time>2022-07-31T18:35:47Z</time>
      </trkpt>
      <trkpt lat="45.82884" lon="1.26602">
        <ele>259.7771478</ele>
        <time>2022-07-31T18:35:49Z</time>
      </trkpt>
      <trkpt lat="45.82887" lon="1.26605">
        <ele>259.8100512</ele>
        <time>2022-07-31T18:35:51Z</time>
      </trkpt>
      <trkpt lat="45.82889" lon="1.26607">
        <ele>260.7075205</ele>
        <time>2022-07-31T18:35:53Z</time>
      </trkpt>
      <trkpt lat="45.82891" lon="1.26609">
        <ele>260.1115806</ele>
        <time>2022-07-31T18:35:55Z</time>
      </trkpt>
      <trkpt lat="45.82895" lon="1.2661">
        <ele>262.4467442</ele>
        <time>2022-07-31T18:35:57Z</time>
      </trkpt>
      <trkpt lat="45.82898" lon="1.26611">
        <ele>262.5716019</ele>
        <time>2022-07-31T18:35:59Z</time>
      </trkpt>
      <trkpt lat="45.82902" lon="1.26613">
        <ele>262.8978169</ele>
        <time>2022-07-31T18:36:01Z</time>
      </trkpt>
      <trkpt lat="45.82905" lon="1.26615">
        <ele>262.8344116</ele>
        <time>2022-07-31T18:36:03Z</time>
      </trkpt>
      <trkpt lat="45.82908" lon="1.26617">
        <ele>262.6201722</ele>
        <time>2022-07-31T18:36:05Z</time>
      </trkpt>
      <trkpt lat="45.8291" lon="1.26619">
        <ele>262.5977811</ele>
        <time>2022-07-31T18:36:07Z</time>
      </trkpt>
      <trkpt lat="45.82913" lon="1.26619">
        <ele>262.8919273</ele>
        <time>2022-07-31T18:36:09Z</time>
      </trkpt>
      <trkpt lat="45.82917" lon="1.26616">
        <ele>262.2718589</ele>
        <time>2022-07-31T18:36:11Z</time>
      </trkpt>
      <trkpt lat="45.82919" lon="1.26615">
        <ele>262.2973445</ele>
        <time>2022-07-31T18:36:13Z</time>
      </trkpt>
      <trkpt lat="45.82921" lon="1.26614">
        <ele>262.5153448</ele>
        <time>2022-07-31T18:36:15Z</time>
      </trkpt>
      <trkpt lat="45.82922" lon="1.26612">
        <ele>263.1133182</ele>
        <time>2022-07-31T18:36:17Z</time>
      </trkpt>
      <trkpt lat="45.82921" lon="1.26613">
        <ele>263.5550537</ele>
        <time>2022-07-31T18:36:19Z</time>
      </trkpt>
      <trkpt lat="45.82921" lon="1.26613">
        <ele>263.5243381</ele>
        <time>2022-07-31T18:36:21Z</time>
      </trkpt>
      <trkpt lat="45.82921" lon="1.26613">
        <ele>263.3789208</ele>
        <time>2022-07-31T18:36:23Z</time>
      </trkpt>
      <trkpt lat="45.82921" lon="1.26612">
        <ele>263.1030504</ele>
        <time>2022-07-31T18:36:25Z</time>
      </trkpt>
      <trkpt lat="45.82921" lon="1.26612">
        <ele>263.1322143</ele>
        <time>2022-07-31T18:36:27Z</time>
      </trkpt>
      <trkpt lat="45.82922" lon="1.26612">
        <ele>262.9772856</ele>
        <time>2022-07-31T18:36:29Z</time>
      </trkpt>
      <trkpt lat="45.82922" lon="1.26612">
        <ele>262.9772856</ele>
        <time>2022-07-31T18:36:33Z</time>
      </trkpt>
      <trkpt lat="45.82921" lon="1.26611">
        <ele>263.3684892</ele>
        <time>2022-07-31T18:36:35Z</time>
      </trkpt>
      <trkpt lat="45.8292" lon="1.26611">
        <ele>263.5838974</ele>
        <time>2022-07-31T18:36:37Z</time>
      </trkpt>
      <trkpt lat="45.8292" lon="1.26612">
        <ele>264.5064763</ele>
        <time>2022-07-31T18:36:39Z</time>
      </trkpt>
      <trkpt lat="45.8292" lon="1.26613">
        <ele>264.2460038</ele>
        <time>2022-07-31T18:36:41Z</time>
      </trkpt>
      <trkpt lat="45.8292" lon="1.26614">
        <ele>263.481834</ele>
        <time>2022-07-31T18:36:43Z</time>
      </trkpt>
      <trkpt lat="45.8292" lon="1.26613">
        <ele>263.7523779</ele>
        <time>2022-07-31T18:36:45Z</time>
      </trkpt>
      <trkpt lat="45.8292" lon="1.26614">
        <ele>264.3799775</ele>
        <time>2022-07-31T18:36:47Z</time>
      </trkpt>
      <trkpt lat="45.8292" lon="1.26614">
        <ele>264.928512</ele>
        <time>2022-07-31T18:36:49Z</time>
      </trkpt>
      <trkpt lat="45.8292" lon="1.26614">
        <ele>264.8645544</ele>
        <time>2022-07-31T18:36:51Z</time>
      </trkpt>
      <trkpt lat="45.8292" lon="1.26613">
        <ele>264.2202685</ele>
        <time>2022-07-31T18:36:53Z</time>
      </trkpt>
      <trkpt lat="45.8292" lon="1.26613">
        <ele>264.3776995</ele>
        <time>2022-07-31T18:36:55Z</time>
      </trkpt>
      <trkpt lat="45.8292" lon="1.26613">
        <ele>263.9688469</ele>
        <time>2022-07-31T18:36:57Z</time>
      </trkpt>
      <trkpt lat="45.8292" lon="1.26613">
        <ele>265.2836943</ele>
        <time>2022-07-31T18:36:59Z</time>
      </trkpt>
      <trkpt lat="45.82919" lon="1.26614">
        <ele>267.1305784</ele>
        <time>2022-07-31T18:37:01Z</time>
      </trkpt>
      <trkpt lat="45.82919" lon="1.26613">
        <ele>267.5702297</ele>
        <time>2022-07-31T18:37:03Z</time>
      </trkpt>
      <trkpt lat="45.82919" lon="1.26613">
        <ele>268.0583518</ele>
        <time>2022-07-31T18:37:05Z</time>
      </trkpt>
      <trkpt lat="45.82919" lon="1.26614">
        <ele>268.41304</ele>
        <time>2022-07-31T18:37:07Z</time>
      </trkpt>
      <trkpt lat="45.82919" lon="1.26614">
        <ele>268.7654359</ele>
        <time>2022-07-31T18:37:09Z</time>
      </trkpt>
      <trkpt lat="45.82919" lon="1.26614">
        <ele>269.0645554</ele>
        <time>2022-07-31T18:37:11Z</time>
      </trkpt>
      <trkpt lat="45.82918" lon="1.26614">
        <ele>269.7311506</ele>
        <time>2022-07-31T18:37:13Z</time>
      </trkpt>
      <trkpt lat="45.82918" lon="1.26615">
        <ele>270.6978831</ele>
        <time>2022-07-31T18:37:15Z</time>
      </trkpt>
      <trkpt lat="45.82918" lon="1.26615">
        <ele>271.7386847</ele>
        <time>2022-07-31T18:37:17Z</time>
      </trkpt>
      <trkpt lat="45.82917" lon="1.26615">
        <ele>272.1274281</ele>
        <time>2022-07-31T18:37:19Z</time>
      </trkpt>
      <trkpt lat="45.82917" lon="1.26616">
        <ele>272.4892222</ele>
        <time>2022-07-31T18:37:21Z</time>
      </trkpt>
      <trkpt lat="45.82916" lon="1.26616">
        <ele>273.9858178</ele>
        <time>2022-07-31T18:37:23Z</time>
      </trkpt>
      <trkpt lat="45.82915" lon="1.26616">
        <ele>273.8710358</ele>
        <time>2022-07-31T18:37:25Z</time>
      </trkpt>
      <trkpt lat="45.82915" lon="1.26615">
        <ele>273.7908692</ele>
        <time>2022-07-31T18:37:27Z</time>
      </trkpt>
      <trkpt lat="45.82914" lon="1.26615">
        <ele>273.9122362</ele>
        <time>2022-07-31T18:37:29Z</time>
      </trkpt>
      <trkpt lat="45.82914" lon="1.26614">
        <ele>273.7201478</ele>
        <time>2022-07-31T18:37:31Z</time>
      </trkpt>
      <trkpt lat="45.82913" lon="1.26613">
        <ele>273.9651661</ele>
        <time>2022-07-31T18:37:33Z</time>
      </trkpt>
      <trkpt lat="45.82912" lon="1.26612">
        <ele>274.8287338</ele>
        <time>2022-07-31T18:37:35Z</time>
      </trkpt>
      <trkpt lat="45.82912" lon="1.26613">
        <ele>275.2375671</ele>
        <time>2022-07-31T18:37:37Z</time>
      </trkpt>
      <trkpt lat="45.82912" lon="1.26614">
        <ele>275.3973818</ele>
        <time>2022-07-31T18:37:39Z</time>
      </trkpt>
      <trkpt lat="45.82911" lon="1.26614">
        <ele>276.5014418</ele>
        <time>2022-07-31T18:37:41Z</time>
      </trkpt>
      <trkpt lat="45.82911" lon="1.26615">
        <ele>277.4646064</ele>
        <time>2022-07-31T18:37:43Z</time>
      </trkpt>
      <trkpt lat="45.8291" lon="1.26616">
        <ele>278.947799</ele>
        <time>2022-07-31T18:37:45Z</time>
      </trkpt>
      <trkpt lat="45.8291" lon="1.26617">
        <ele>279.5179562</ele>
        <time>2022-07-31T18:37:47Z</time>
      </trkpt>
      <trkpt lat="45.82909" lon="1.26619">
        <ele>282.358321</ele>
        <time>2022-07-31T18:37:49Z</time>
      </trkpt>
      <trkpt lat="45.82908" lon="1.2662">
        <ele>283.3927344</ele>
        <time>2022-07-31T18:37:51Z</time>
      </trkpt>
      <trkpt lat="45.82908" lon="1.26621">
        <ele>284.1257932</ele>
        <time>2022-07-31T18:37:53Z</time>
      </trkpt>
      <trkpt lat="45.82908" lon="1.26621">
        <ele>284.7770393</ele>
        <time>2022-07-31T18:37:55Z</time>
      </trkpt>
      <trkpt lat="45.82908" lon="1.26621">
        <ele>285.6519968</ele>
        <time>2022-07-31T18:37:57Z</time>
      </trkpt>
      <trkpt lat="45.82908" lon="1.26622">
        <ele>286.1469931</ele>
        <time>2022-07-31T18:37:59Z</time>
      </trkpt>
      <trkpt lat="45.82908" lon="1.26623">
        <ele>288.4637165</ele>
        <time>2022-07-31T18:38:03Z</time>
      </trkpt>
      <trkpt lat="45.82908" lon="1.26623">
        <ele>288.6453908</ele>
        <time>2022-07-31T18:38:05Z</time>
      </trkpt>
      <trkpt lat="45.82908" lon="1.26623">
        <ele>288.6327779</ele>
        <time>2022-07-31T18:38:07Z</time>
      </trkpt>
      <trkpt lat="45.82908" lon="1.26623">
        <ele>288.6360001</ele>
        <time>2022-07-31T18:38:09Z</time>
      </trkpt>
      <trkpt lat="45.82908" lon="1.26623">
        <ele>287.6679642</ele>
        <time>2022-07-31T18:38:11Z</time>
      </trkpt>
      <trkpt lat="45.82909" lon="1.26622">
        <ele>286.5409444</ele>
        <time>2022-07-31T18:38:13Z</time>
      </trkpt>
      <trkpt lat="45.82909" lon="1.26621">
        <ele>285.2723589</ele>
        <time>2022-07-31T18:38:15Z</time>
      </trkpt>
      <trkpt lat="45.82909" lon="1.26619">
        <ele>285.1087478</ele>
        <time>2022-07-31T18:38:17Z</time>
      </trkpt>
      <trkpt lat="45.82909" lon="1.26615">
        <ele>284.2954972</ele>
        <time>2022-07-31T18:38:19Z</time>
      </trkpt>
      <trkpt lat="45.82911" lon="1.26611">
        <ele>283.0728133</ele>
        <time>2022-07-31T18:38:21Z</time>
      </trkpt>
      <trkpt lat="45.82913" lon="1.26608">
        <ele>282.203176</ele>
        <time>2022-07-31T18:38:23Z</time>
      </trkpt>
      <trkpt lat="45.82916" lon="1.26608">
        <ele>280.8735741</ele>
        <time>2022-07-31T18:38:25Z</time>
      </trkpt>
      <trkpt lat="45.82919" lon="1.26612">
        <ele>280.5685655</ele>
        <time>2022-07-31T18:38:27Z</time>
      </trkpt>
      <trkpt lat="45.82922" lon="1.26617">
        <ele>279.4899687</ele>
        <time>2022-07-31T18:38:29Z</time>
      </trkpt>
      <trkpt lat="45.82926" lon="1.26622">
        <ele>277.9602095</ele>
        <time>2022-07-31T18:38:31Z</time>
      </trkpt>
      <trkpt lat="45.82931" lon="1.26628">
        <ele>275.5165625</ele>
        <time>2022-07-31T18:38:33Z</time>
      </trkpt>
      <trkpt lat="45.82932" lon="1.2663">
        <ele>275.1481822</ele>
        <time>2022-07-31T18:38:35Z</time>
      </trkpt>
      <trkpt lat="45.82935" lon="1.26631">
        <ele>274.8353639</ele>
        <time>2022-07-31T18:38:37Z</time>
      </trkpt>
      <trkpt lat="45.82935" lon="1.26631">
        <ele>274.7681695</ele>
        <time>2022-07-31T18:38:39Z</time>
      </trkpt>
      <trkpt lat="45.82935" lon="1.26631">
        <ele>274.7681695</ele>
        <time>2022-07-31T18:38:43Z</time>
      </trkpt>
      <trkpt lat="45.82936" lon="1.26628">
        <ele>274.258571</ele>
        <time>2022-07-31T18:38:45Z</time>
      </trkpt>
      <trkpt lat="45.82936" lon="1.26628">
        <ele>273.8111746</ele>
        <time>2022-07-31T18:38:47Z</time>
      </trkpt>
      <trkpt lat="45.82937" lon="1.26627">
        <ele>273.7951393</ele>
        <time>2022-07-31T18:38:49Z</time>
      </trkpt>
      <trkpt lat="45.82937" lon="1.26627">
        <ele>273.3141632</ele>
        <time>2022-07-31T18:38:51Z</time>
      </trkpt>
      <trkpt lat="45.82939" lon="1.26628">
        <ele>272.8460865</ele>
        <time>2022-07-31T18:38:53Z</time>
      </trkpt>
      <trkpt lat="45.82939" lon="1.26627">
        <ele>272.7084734</ele>
        <time>2022-07-31T18:38:55Z</time>
      </trkpt>
      <trkpt lat="45.82941" lon="1.2663">
        <ele>272.3742995</ele>
        <time>2022-07-31T18:38:57Z</time>
      </trkpt>
      <trkpt lat="45.82942" lon="1.26634">
        <ele>271.1151543</ele>
        <time>2022-07-31T18:38:59Z</time>
      </trkpt>
      <trkpt lat="45.82943" lon="1.26639">
        <ele>269.8161206</ele>
        <time>2022-07-31T18:39:01Z</time>
      </trkpt>
      <trkpt lat="45.82942" lon="1.26645">
        <ele>268.8062638</ele>
        <time>2022-07-31T18:39:03Z</time>
      </trkpt>
      <trkpt lat="45.8294" lon="1.26648">
        <ele>268.6567805</ele>
        <time>2022-07-31T18:39:05Z</time>
      </trkpt>
      <trkpt lat="45.82938" lon="1.2665">
        <ele>268.6438885</ele>
        <time>2022-07-31T18:39:07Z</time>
      </trkpt>
      <trkpt lat="45.82939" lon="1.26648">
        <ele>268.2870069</ele>
        <time>2022-07-31T18:39:09Z</time>
      </trkpt>
      <trkpt lat="45.82939" lon="1.26648">
        <ele>267.6898326</ele>
        <time>2022-07-31T18:39:11Z</time>
      </trkpt>
      <trkpt lat="45.8294" lon="1.26648">
        <ele>267.6847619</ele>
        <time>2022-07-31T18:39:13Z</time>
      </trkpt>
      <trkpt lat="45.8294" lon="1.26649">
        <ele>267.3073614</ele>
        <time>2022-07-31T18:39:15Z</time>
      </trkpt>
      <trkpt lat="45.82939" lon="1.26651">
        <ele>267.1645985</ele>
        <time>2022-07-31T18:39:17Z</time>
      </trkpt>
      <trkpt lat="45.82938" lon="1.26657">
        <ele>266.6130531</ele>
        <time>2022-07-31T18:39:19Z</time>
      </trkpt>
      <trkpt lat="45.82935" lon="1.26663">
        <ele>266.3238787</ele>
        <time>2022-07-31T18:39:21Z</time>
      </trkpt>
      <trkpt lat="45.82928" lon="1.2667">
        <ele>264.596318</ele>
        <time>2022-07-31T18:39:23Z</time>
      </trkpt>
      <trkpt lat="45.82923" lon="1.26678">
        <ele>263.5968027</ele>
        <time>2022-07-31T18:39:25Z</time>
      </trkpt>
      <trkpt lat="45.82924" lon="1.26688">
        <ele>262.3196023</ele>
        <time>2022-07-31T18:39:27Z</time>
      </trkpt>
      <trkpt lat="45.82927" lon="1.26698">
        <ele>260.7163191</ele>
        <time>2022-07-31T18:39:29Z</time>
      </trkpt>
      <trkpt lat="45.8293" lon="1.26708">
        <ele>258.7633495</ele>
        <time>2022-07-31T18:39:31Z</time>
      </trkpt>
      <trkpt lat="45.82935" lon="1.2672">
        <ele>257.9703346</ele>
        <time>2022-07-31T18:39:33Z</time>
      </trkpt>
      <trkpt lat="45.82937" lon="1.26729">
        <ele>257.5970007</ele>
        <time>2022-07-31T18:39:35Z</time>
      </trkpt>
      <trkpt lat="45.82942" lon="1.26741">
        <ele>256.9379329</ele>
        <time>2022-07-31T18:39:37Z</time>
      </trkpt>
      <trkpt lat="45.82946" lon="1.26751">
        <ele>255.3073989</ele>
        <time>2022-07-31T18:39:39Z</time>
      </trkpt>
      <trkpt lat="45.8295" lon="1.26764">
        <ele>253.9634305</ele>
        <time>2022-07-31T18:39:41Z</time>
      </trkpt>
      <trkpt lat="45.82954" lon="1.26775">
        <ele>253.1690254</ele>
        <time>2022-07-31T18:39:43Z</time>
      </trkpt>
      <trkpt lat="45.82961" lon="1.26787">
        <ele>252.6936348</ele>
        <time>2022-07-31T18:39:45Z</time>
      </trkpt>
      <trkpt lat="45.82969" lon="1.26795">
        <ele>252.5228598</ele>
        <time>2022-07-31T18:39:47Z</time>
      </trkpt>
      <trkpt lat="45.82979" lon="1.26801">
        <ele>251.3453948</ele>
        <time>2022-07-31T18:39:49Z</time>
      </trkpt>
      <trkpt lat="45.82988" lon="1.26808">
        <ele>250.5409006</ele>
        <time>2022-07-31T18:39:51Z</time>
      </trkpt>
      <trkpt lat="45.82996" lon="1.26814">
        <ele>249.5874655</ele>
        <time>2022-07-31T18:39:53Z</time>
      </trkpt>
      <trkpt lat="45.83006" lon="1.26822">
        <ele>249.7862313</ele>
        <time>2022-07-31T18:39:55Z</time>
      </trkpt>
      <trkpt lat="45.83013" lon="1.26829">
        <ele>249.5157478</ele>
        <time>2022-07-31T18:39:57Z</time>
      </trkpt>
      <trkpt lat="45.83017" lon="1.26833">
        <ele>249.601332</ele>
        <time>2022-07-31T18:39:59Z</time>
      </trkpt>
      <trkpt lat="45.83022" lon="1.26834">
        <ele>249.5677415</ele>
        <time>2022-07-31T18:40:01Z</time>
      </trkpt>
      <trkpt lat="45.83023" lon="1.26834">
        <ele>249.3975756</ele>
        <time>2022-07-31T18:40:03Z</time>
      </trkpt>
      <trkpt lat="45.83025" lon="1.26836">
        <ele>250.3473167</ele>
        <time>2022-07-31T18:40:05Z</time>
      </trkpt>
      <trkpt lat="45.83025" lon="1.26836">
        <ele>250.4210767</ele>
        <time>2022-07-31T18:40:07Z</time>
      </trkpt>
      <trkpt lat="45.83025" lon="1.26836">
        <ele>251.5739026</ele>
        <time>2022-07-31T18:40:09Z</time>
      </trkpt>
      <trkpt lat="45.83026" lon="1.26836">
        <ele>251.6678315</ele>
        <time>2022-07-31T18:40:11Z</time>
      </trkpt>
      <trkpt lat="45.83026" lon="1.26837">
        <ele>251.2999397</ele>
        <time>2022-07-31T18:40:13Z</time>
      </trkpt>
      <trkpt lat="45.83027" lon="1.26837">
        <ele>251.3456015</ele>
        <time>2022-07-31T18:40:15Z</time>
      </trkpt>
      <trkpt lat="45.83028" lon="1.26837">
        <ele>251.3337554</ele>
        <time>2022-07-31T18:40:17Z</time>
      </trkpt>
      <trkpt lat="45.83029" lon="1.26837">
        <ele>252.537187</ele>
        <time>2022-07-31T18:40:19Z</time>
      </trkpt>
      <trkpt lat="45.83029" lon="1.26838">
        <ele>253.1507432</ele>
        <time>2022-07-31T18:40:21Z</time>
      </trkpt>
      <trkpt lat="45.83029" lon="1.26838">
        <ele>253.7549182</ele>
        <time>2022-07-31T18:40:23Z</time>
      </trkpt>
      <trkpt lat="45.83029" lon="1.26838">
        <ele>253.7136697</ele>
        <time>2022-07-31T18:40:25Z</time>
      </trkpt>
      <trkpt lat="45.83028" lon="1.26838">
        <ele>252.9856698</ele>
        <time>2022-07-31T18:40:27Z</time>
      </trkpt>
      <trkpt lat="45.83028" lon="1.26837">
        <ele>251.9052457</ele>
        <time>2022-07-31T18:40:29Z</time>
      </trkpt>
      <trkpt lat="45.83029" lon="1.26837">
        <ele>251.2875744</ele>
        <time>2022-07-31T18:40:31Z</time>
      </trkpt>
      <trkpt lat="45.83031" lon="1.26838">
        <ele>251.0122389</ele>
        <time>2022-07-31T18:40:33Z</time>
      </trkpt>
      <trkpt lat="45.83034" lon="1.2684">
        <ele>250.4225559</ele>
        <time>2022-07-31T18:40:35Z</time>
      </trkpt>
      <trkpt lat="45.83038" lon="1.26845">
        <ele>249.4970491</ele>
        <time>2022-07-31T18:40:37Z</time>
      </trkpt>
      <trkpt lat="45.83043" lon="1.26851">
        <ele>249.0095063</ele>
        <time>2022-07-31T18:40:39Z</time>
      </trkpt>
      <trkpt lat="45.83049" lon="1.26858">
        <ele>247.7745274</ele>
        <time>2022-07-31T18:40:41Z</time>
      </trkpt>
      <trkpt lat="45.83057" lon="1.26869">
        <ele>246.4058024</ele>
        <time>2022-07-31T18:40:43Z</time>
      </trkpt>
      <trkpt lat="45.83065" lon="1.26881">
        <ele>244.9988271</ele>
        <time>2022-07-31T18:40:45Z</time>
      </trkpt>
      <trkpt lat="45.83072" lon="1.26895">
        <ele>244.7346108</ele>
        <time>2022-07-31T18:40:47Z</time>
      </trkpt>
      <trkpt lat="45.83077" lon="1.26911">
        <ele>244.0685858</ele>
        <time>2022-07-31T18:40:49Z</time>
      </trkpt>
      <trkpt lat="45.83079" lon="1.26926">
        <ele>243.5346207</ele>
        <time>2022-07-31T18:40:51Z</time>
      </trkpt>
      <trkpt lat="45.83079" lon="1.2694">
        <ele>241.9912325</ele>
        <time>2022-07-31T18:40:53Z</time>
      </trkpt>
      <trkpt lat="45.8308" lon="1.26955">
        <ele>241.1852402</ele>
        <time>2022-07-31T18:40:55Z</time>
      </trkpt>
      <trkpt lat="45.83079" lon="1.26967">
        <ele>240.2107273</ele>
        <time>2022-07-31T18:40:57Z</time>
      </trkpt>
      <trkpt lat="45.83079" lon="1.2698">
        <ele>239.3048764</ele>
        <time>2022-07-31T18:40:59Z</time>
      </trkpt>
      <trkpt lat="45.83082" lon="1.26992">
        <ele>238.2417466</ele>
        <time>2022-07-31T18:41:01Z</time>
      </trkpt>
      <trkpt lat="45.83092" lon="1.26997">
        <ele>239.3456072</ele>
        <time>2022-07-31T18:41:03Z</time>
      </trkpt>
      <trkpt lat="45.83099" lon="1.27002">
        <ele>238.889007</ele>
        <time>2022-07-31T18:41:05Z</time>
      </trkpt>
      <trkpt lat="45.83105" lon="1.27009">
        <ele>238.6319448</ele>
        <time>2022-07-31T18:41:07Z</time>
      </trkpt>
      <trkpt lat="45.83112" lon="1.27014">
        <ele>239.1521902</ele>
        <time>2022-07-31T18:41:09Z</time>
      </trkpt>
      <trkpt lat="45.83118" lon="1.2702">
        <ele>238.7873751</ele>
        <time>2022-07-31T18:41:11Z</time>
      </trkpt>
      <trkpt lat="45.83125" lon="1.27026">
        <ele>238.4355687</ele>
        <time>2022-07-31T18:41:13Z</time>
      </trkpt>
      <trkpt lat="45.83132" lon="1.27033">
        <ele>237.6257318</ele>
        <time>2022-07-31T18:41:15Z</time>
      </trkpt>
      <trkpt lat="45.8314" lon="1.2704">
        <ele>237.3061741</ele>
        <time>2022-07-31T18:41:17Z</time>
      </trkpt>
      <trkpt lat="45.83148" lon="1.27047">
        <ele>237.4533206</ele>
        <time>2022-07-31T18:41:19Z</time>
      </trkpt>
      <trkpt lat="45.83156" lon="1.27053">
        <ele>237.152213</ele>
        <time>2022-07-31T18:41:21Z</time>
      </trkpt>
      <trkpt lat="45.83165" lon="1.27061">
        <ele>236.8419416</ele>
        <time>2022-07-31T18:41:23Z</time>
      </trkpt>
      <trkpt lat="45.83174" lon="1.27069">
        <ele>237.0432776</ele>
        <time>2022-07-31T18:41:25Z</time>
      </trkpt>
      <trkpt lat="45.83182" lon="1.27077">
        <ele>237.4609788</ele>
        <time>2022-07-31T18:41:27Z</time>
      </trkpt>
      <trkpt lat="45.8319" lon="1.27083">
        <ele>237.2310413</ele>
        <time>2022-07-31T18:41:29Z</time>
      </trkpt>
      <trkpt lat="45.83198" lon="1.27088">
        <ele>238.1047694</ele>
        <time>2022-07-31T18:41:31Z</time>
      </trkpt>
      <trkpt lat="45.83205" lon="1.27092">
        <ele>239.5691029</ele>
        <time>2022-07-31T18:41:33Z</time>
      </trkpt>
      <trkpt lat="45.83211" lon="1.27095">
        <ele>240.1739454</ele>
        <time>2022-07-31T18:41:35Z</time>
      </trkpt>
      <trkpt lat="45.83217" lon="1.27099">
        <ele>240.6415625</ele>
        <time>2022-07-31T18:41:37Z</time>
      </trkpt>
      <trkpt lat="45.83223" lon="1.27102">
        <ele>240.8124491</ele>
        <time>2022-07-31T18:41:39Z</time>
      </trkpt>
      <trkpt lat="45.83228" lon="1.27105">
        <ele>240.7602076</ele>
        <time>2022-07-31T18:41:41Z</time>
      </trkpt>
      <trkpt lat="45.83233" lon="1.27108">
        <ele>240.4819335</ele>
        <time>2022-07-31T18:41:43Z</time>
      </trkpt>
      <trkpt lat="45.83237" lon="1.27111">
        <ele>240.7045052</ele>
        <time>2022-07-31T18:41:45Z</time>
      </trkpt>
      <trkpt lat="45.83242" lon="1.27115">
        <ele>240.4487817</ele>
        <time>2022-07-31T18:41:47Z</time>
      </trkpt>
      <trkpt lat="45.83248" lon="1.27119">
        <ele>240.0915734</ele>
        <time>2022-07-31T18:41:49Z</time>
      </trkpt>
      <trkpt lat="45.83254" lon="1.27126">
        <ele>239.3981499</ele>
        <time>2022-07-31T18:41:51Z</time>
      </trkpt>
      <trkpt lat="45.8326" lon="1.27134">
        <ele>238.5101369</ele>
        <time>2022-07-31T18:41:53Z</time>
      </trkpt>
      <trkpt lat="45.83266" lon="1.27145">
        <ele>237.931903</ele>
        <time>2022-07-31T18:41:55Z</time>
      </trkpt>
      <trkpt lat="45.83274" lon="1.27156">
        <ele>236.6086855</ele>
        <time>2022-07-31T18:41:57Z</time>
      </trkpt>
      <trkpt lat="45.83281" lon="1.27169">
        <ele>234.684767</ele>
        <time>2022-07-31T18:41:59Z</time>
      </trkpt>
      <trkpt lat="45.83291" lon="1.27181">
        <ele>234.0632685</ele>
        <time>2022-07-31T18:42:01Z</time>
      </trkpt>
      <trkpt lat="45.83301" lon="1.27192">
        <ele>233.0321567</ele>
        <time>2022-07-31T18:42:03Z</time>
      </trkpt>
      <trkpt lat="45.83314" lon="1.27204">
        <ele>233.3402501</ele>
        <time>2022-07-31T18:42:05Z</time>
      </trkpt>
      <trkpt lat="45.83324" lon="1.27215">
        <ele>233.8650603</ele>
        <time>2022-07-31T18:42:07Z</time>
      </trkpt>
      <trkpt lat="45.83335" lon="1.27227">
        <ele>235.4385334</ele>
        <time>2022-07-31T18:42:09Z</time>
      </trkpt>
      <trkpt lat="45.83345" lon="1.27238">
        <ele>235.5246312</ele>
        <time>2022-07-31T18:42:11Z</time>
      </trkpt>
      <trkpt lat="45.83356" lon="1.27248">
        <ele>235.5251563</ele>
        <time>2022-07-31T18:42:13Z</time>
      </trkpt>
      <trkpt lat="45.83363" lon="1.27257">
        <ele>235.6722981</ele>
        <time>2022-07-31T18:42:15Z</time>
      </trkpt>
      <trkpt lat="45.83371" lon="1.27265">
        <ele>235.775208</ele>
        <time>2022-07-31T18:42:17Z</time>
      </trkpt>
      <trkpt lat="45.8338" lon="1.27274">
        <ele>235.3510119</ele>
        <time>2022-07-31T18:42:19Z</time>
      </trkpt>
      <trkpt lat="45.83387" lon="1.27283">
        <ele>234.7667674</ele>
        <time>2022-07-31T18:42:21Z</time>
      </trkpt>
      <trkpt lat="45.83392" lon="1.27295">
        <ele>234.5194737</ele>
        <time>2022-07-31T18:42:23Z</time>
      </trkpt>
      <trkpt lat="45.83396" lon="1.27309">
        <ele>235.1283485</ele>
        <time>2022-07-31T18:42:25Z</time>
      </trkpt>
      <trkpt lat="45.83395" lon="1.2732">
        <ele>234.9716822</ele>
        <time>2022-07-31T18:42:27Z</time>
      </trkpt>
      <trkpt lat="45.83392" lon="1.27329">
        <ele>234.6422632</ele>
        <time>2022-07-31T18:42:29Z</time>
      </trkpt>
      <trkpt lat="45.83391" lon="1.27335">
        <ele>234.6113667</ele>
        <time>2022-07-31T18:42:31Z</time>
      </trkpt>
      <trkpt lat="45.83391" lon="1.27341">
        <ele>235.4586687</ele>
        <time>2022-07-31T18:42:33Z</time>
      </trkpt>
      <trkpt lat="45.83391" lon="1.27346">
        <ele>235.3740697</ele>
        <time>2022-07-31T18:42:35Z</time>
      </trkpt>
      <trkpt lat="45.8339" lon="1.27347">
        <ele>235.0780876</ele>
        <time>2022-07-31T18:42:37Z</time>
      </trkpt>
      <trkpt lat="45.8339" lon="1.27347">
        <ele>234.9906996</ele>
        <time>2022-07-31T18:42:39Z</time>
      </trkpt>
      <trkpt lat="45.8339" lon="1.27347">
        <ele>234.842396</ele>
        <time>2022-07-31T18:42:41Z</time>
      </trkpt>
      <trkpt lat="45.8339" lon="1.27348">
        <ele>234.2472307</ele>
        <time>2022-07-31T18:42:43Z</time>
      </trkpt>
      <trkpt lat="45.83389" lon="1.27347">
        <ele>233.6134208</ele>
        <time>2022-07-31T18:42:45Z</time>
      </trkpt>
      <trkpt lat="45.83389" lon="1.27347">
        <ele>232.995456</ele>
        <time>2022-07-31T18:42:47Z</time>
      </trkpt>
      <trkpt lat="45.8339" lon="1.27348">
        <ele>232.8244113</ele>
        <time>2022-07-31T18:42:49Z</time>
      </trkpt>
      <trkpt lat="45.8339" lon="1.27352">
        <ele>232.2331614</ele>
        <time>2022-07-31T18:42:51Z</time>
      </trkpt>
      <trkpt lat="45.8339" lon="1.27358">
        <ele>232.5042542</ele>
        <time>2022-07-31T18:42:53Z</time>
      </trkpt>
      <trkpt lat="45.83391" lon="1.27361">
        <ele>232.5183175</ele>
        <time>2022-07-31T18:42:55Z</time>
      </trkpt>
      <trkpt lat="45.83391" lon="1.27361">
        <ele>232.697576</ele>
        <time>2022-07-31T18:42:57Z</time>
      </trkpt>
      <trkpt lat="45.83391" lon="1.2736">
        <ele>232.2426604</ele>
        <time>2022-07-31T18:42:59Z</time>
      </trkpt>
      <trkpt lat="45.83391" lon="1.2736">
        <ele>231.7931744</ele>
        <time>2022-07-31T18:43:01Z</time>
      </trkpt>
      <trkpt lat="45.83391" lon="1.27359">
        <ele>231.4906913</ele>
        <time>2022-07-31T18:43:03Z</time>
      </trkpt>
      <trkpt lat="45.83391" lon="1.27359">
        <ele>231.8210331</ele>
        <time>2022-07-31T18:43:05Z</time>
      </trkpt>
      <trkpt lat="45.8339" lon="1.27358">
        <ele>231.1650352</ele>
        <time>2022-07-31T18:43:07Z</time>
      </trkpt>
      <trkpt lat="45.8339" lon="1.27358">
        <ele>231.0257248</ele>
        <time>2022-07-31T18:43:09Z</time>
      </trkpt>
      <trkpt lat="45.83391" lon="1.27358">
        <ele>231.6871838</ele>
        <time>2022-07-31T18:43:11Z</time>
      </trkpt>
      <trkpt lat="45.83391" lon="1.27358">
        <ele>231.3031851</ele>
        <time>2022-07-31T18:43:13Z</time>
      </trkpt>
      <trkpt lat="45.83391" lon="1.27357">
        <ele>231.4496295</ele>
        <time>2022-07-31T18:43:15Z</time>
      </trkpt>
      <trkpt lat="45.83391" lon="1.27357">
        <ele>231.9371517</ele>
        <time>2022-07-31T18:43:17Z</time>
      </trkpt>
      <trkpt lat="45.8339" lon="1.27357">
        <ele>232.1024892</ele>
        <time>2022-07-31T18:43:19Z</time>
      </trkpt>
      <trkpt lat="45.8339" lon="1.27357">
        <ele>232.1237046</ele>
        <time>2022-07-31T18:43:21Z</time>
      </trkpt>
      <trkpt lat="45.8339" lon="1.27358">
        <ele>232.0070297</ele>
        <time>2022-07-31T18:43:23Z</time>
      </trkpt>
      <trkpt lat="45.83391" lon="1.27358">
        <ele>231.6226782</ele>
        <time>2022-07-31T18:43:25Z</time>
      </trkpt>
      <trkpt lat="45.83394" lon="1.27364">
        <ele>229.4395213</ele>
        <time>2022-07-31T18:43:27Z</time>
      </trkpt>
      <trkpt lat="45.83399" lon="1.27367">
        <ele>231.1481161</ele>
        <time>2022-07-31T18:43:29Z</time>
      </trkpt>
      <trkpt lat="45.83402" lon="1.27369">
        <ele>231.2717762</ele>
        <time>2022-07-31T18:43:31Z</time>
      </trkpt>
      <trkpt lat="45.83406" lon="1.27372">
        <ele>231.7227425</ele>
        <time>2022-07-31T18:43:33Z</time>
      </trkpt>
      <trkpt lat="45.83413" lon="1.27375">
        <ele>231.6186528</ele>
        <time>2022-07-31T18:43:35Z</time>
      </trkpt>
      <trkpt lat="45.8342" lon="1.27375">
        <ele>231.9546056</ele>
        <time>2022-07-31T18:43:37Z</time>
      </trkpt>
      <trkpt lat="45.83428" lon="1.27377">
        <ele>231.9849371</ele>
        <time>2022-07-31T18:43:39Z</time>
      </trkpt>
      <trkpt lat="45.83436" lon="1.27384">
        <ele>231.9593825</ele>
        <time>2022-07-31T18:43:41Z</time>
      </trkpt>
      <trkpt lat="45.83444" lon="1.27392">
        <ele>231.2833546</ele>
        <time>2022-07-31T18:43:43Z</time>
      </trkpt>
      <trkpt lat="45.83452" lon="1.27399">
        <ele>231.0500192</ele>
        <time>2022-07-31T18:43:45Z</time>
      </trkpt>
      <trkpt lat="45.8346" lon="1.27408">
        <ele>231.0965123</ele>
        <time>2022-07-31T18:43:47Z</time>
      </trkpt>
      <trkpt lat="45.83468" lon="1.27415">
        <ele>230.8569562</ele>
        <time>2022-07-31T18:43:49Z</time>
      </trkpt>
      <trkpt lat="45.83475" lon="1.27423">
        <ele>231.1606189</ele>
        <time>2022-07-31T18:43:51Z</time>
      </trkpt>
      <trkpt lat="45.83483" lon="1.2743">
        <ele>231.0740102</ele>
        <time>2022-07-31T18:43:53Z</time>
      </trkpt>
      <trkpt lat="45.83491" lon="1.27438">
        <ele>231.8586617</ele>
        <time>2022-07-31T18:43:55Z</time>
      </trkpt>
      <trkpt lat="45.83499" lon="1.27445">
        <ele>231.2048765</ele>
        <time>2022-07-31T18:43:57Z</time>
      </trkpt>
      <trkpt lat="45.83506" lon="1.27452">
        <ele>231.526367</ele>
        <time>2022-07-31T18:43:59Z</time>
      </trkpt>
      <trkpt lat="45.83514" lon="1.27459">
        <ele>231.7488142</ele>
        <time>2022-07-31T18:44:01Z</time>
      </trkpt>
      <trkpt lat="45.83522" lon="1.27465">
        <ele>232.0627537</ele>
        <time>2022-07-31T18:44:03Z</time>
      </trkpt>
      <trkpt lat="45.8353" lon="1.27473">
        <ele>232.3182837</ele>
        <time>2022-07-31T18:44:05Z</time>
      </trkpt>
      <trkpt lat="45.83537" lon="1.2748">
        <ele>232.7575173</ele>
        <time>2022-07-31T18:44:07Z</time>
      </trkpt>
      <trkpt lat="45.83544" lon="1.27487">
        <ele>232.6769631</ele>
        <time>2022-07-31T18:44:09Z</time>
      </trkpt>
      <trkpt lat="45.83552" lon="1.27495">
        <ele>232.8105579</ele>
        <time>2022-07-31T18:44:11Z</time>
      </trkpt>
      <trkpt lat="45.83559" lon="1.27504">
        <ele>232.9900606</ele>
        <time>2022-07-31T18:44:13Z</time>
      </trkpt>
      <trkpt lat="45.83566" lon="1.27512">
        <ele>233.4341929</ele>
        <time>2022-07-31T18:44:15Z</time>
      </trkpt>
      <trkpt lat="45.83572" lon="1.27521">
        <ele>233.1941379</ele>
        <time>2022-07-31T18:44:17Z</time>
      </trkpt>
      <trkpt lat="45.83578" lon="1.27531">
        <ele>233.2167132</ele>
        <time>2022-07-31T18:44:19Z</time>
      </trkpt>
      <trkpt lat="45.83584" lon="1.27541">
        <ele>233.2487659</ele>
        <time>2022-07-31T18:44:21Z</time>
      </trkpt>
      <trkpt lat="45.8359" lon="1.27551">
        <ele>233.2930625</ele>
        <time>2022-07-31T18:44:23Z</time>
      </trkpt>
      <trkpt lat="45.83597" lon="1.2756">
        <ele>233.590105</ele>
        <time>2022-07-31T18:44:25Z</time>
      </trkpt>
      <trkpt lat="45.83603" lon="1.27568">
        <ele>233.9276333</ele>
        <time>2022-07-31T18:44:27Z</time>
      </trkpt>
      <trkpt lat="45.8361" lon="1.27578">
        <ele>233.9337737</ele>
        <time>2022-07-31T18:44:29Z</time>
      </trkpt>
      <trkpt lat="45.83616" lon="1.27586">
        <ele>233.7256849</ele>
        <time>2022-07-31T18:44:31Z</time>
      </trkpt>
      <trkpt lat="45.83622" lon="1.27596">
        <ele>234.7551454</ele>
        <time>2022-07-31T18:44:33Z</time>
      </trkpt>
      <trkpt lat="45.83628" lon="1.27605">
        <ele>234.0392726</ele>
        <time>2022-07-31T18:44:35Z</time>
      </trkpt>
      <trkpt lat="45.83635" lon="1.27614">
        <ele>234.0579114</ele>
        <time>2022-07-31T18:44:37Z</time>
      </trkpt>
      <trkpt lat="45.83641" lon="1.27623">
        <ele>234.2274446</ele>
        <time>2022-07-31T18:44:39Z</time>
      </trkpt>
      <trkpt lat="45.83647" lon="1.27632">
        <ele>234.0219053</ele>
        <time>2022-07-31T18:44:41Z</time>
      </trkpt>
      <trkpt lat="45.83653" lon="1.27642">
        <ele>234.6586245</ele>
        <time>2022-07-31T18:44:43Z</time>
      </trkpt>
      <trkpt lat="45.83659" lon="1.27652">
        <ele>235.4721414</ele>
        <time>2022-07-31T18:44:45Z</time>
      </trkpt>
      <trkpt lat="45.83665" lon="1.27662">
        <ele>235.6677534</ele>
        <time>2022-07-31T18:44:47Z</time>
      </trkpt>
      <trkpt lat="45.83671" lon="1.27672">
        <ele>235.3295109</ele>
        <time>2022-07-31T18:44:49Z</time>
      </trkpt>
      <trkpt lat="45.83676" lon="1.27682">
        <ele>235.4875368</ele>
        <time>2022-07-31T18:44:51Z</time>
      </trkpt>
      <trkpt lat="45.83681" lon="1.27694">
        <ele>235.2750248</ele>
        <time>2022-07-31T18:44:53Z</time>
      </trkpt>
      <trkpt lat="45.83685" lon="1.27706">
        <ele>235.1946783</ele>
        <time>2022-07-31T18:44:55Z</time>
      </trkpt>
      <trkpt lat="45.8369" lon="1.27717">
        <ele>234.9847467</ele>
        <time>2022-07-31T18:44:57Z</time>
      </trkpt>
      <trkpt lat="45.83694" lon="1.2773">
        <ele>234.4741315</ele>
        <time>2022-07-31T18:44:59Z</time>
      </trkpt>
      <trkpt lat="45.83696" lon="1.27744">
        <ele>234.5489307</ele>
        <time>2022-07-31T18:45:01Z</time>
      </trkpt>
      <trkpt lat="45.83699" lon="1.27757">
        <ele>234.0673225</ele>
        <time>2022-07-31T18:45:03Z</time>
      </trkpt>
      <trkpt lat="45.83702" lon="1.27771">
        <ele>233.841651</ele>
        <time>2022-07-31T18:45:05Z</time>
      </trkpt>
      <trkpt lat="45.83705" lon="1.27785">
        <ele>233.8683087</ele>
        <time>2022-07-31T18:45:07Z</time>
      </trkpt>
      <trkpt lat="45.83708" lon="1.27798">
        <ele>233.9073668</ele>
        <time>2022-07-31T18:45:09Z</time>
      </trkpt>
      <trkpt lat="45.83711" lon="1.27811">
        <ele>233.867037</ele>
        <time>2022-07-31T18:45:11Z</time>
      </trkpt>
      <trkpt lat="45.83714" lon="1.27824">
        <ele>233.5966451</ele>
        <time>2022-07-31T18:45:13Z</time>
      </trkpt>
      <trkpt lat="45.83716" lon="1.27837">
        <ele>233.5589554</ele>
        <time>2022-07-31T18:45:15Z</time>
      </trkpt>
      <trkpt lat="45.83719" lon="1.27849">
        <ele>233.3380845</ele>
        <time>2022-07-31T18:45:17Z</time>
      </trkpt>
      <trkpt lat="45.83722" lon="1.2786">
        <ele>233.3358529</ele>
        <time>2022-07-31T18:45:19Z</time>
      </trkpt>
      <trkpt lat="45.83726" lon="1.2787">
        <ele>232.7256041</ele>
        <time>2022-07-31T18:45:21Z</time>
      </trkpt>
      <trkpt lat="45.83731" lon="1.27878">
        <ele>233.2841556</ele>
        <time>2022-07-31T18:45:23Z</time>
      </trkpt>
      <trkpt lat="45.83732" lon="1.27888">
        <ele>233.0418792</ele>
        <time>2022-07-31T18:45:25Z</time>
      </trkpt>
      <trkpt lat="45.83734" lon="1.279">
        <ele>233.3211666</ele>
        <time>2022-07-31T18:45:27Z</time>
      </trkpt>
      <trkpt lat="45.83736" lon="1.27912">
        <ele>233.508002</ele>
        <time>2022-07-31T18:45:29Z</time>
      </trkpt>
      <trkpt lat="45.8374" lon="1.27925">
        <ele>232.617907</ele>
        <time>2022-07-31T18:45:31Z</time>
      </trkpt>
      <trkpt lat="45.83744" lon="1.27937">
        <ele>233.0232662</ele>
        <time>2022-07-31T18:45:33Z</time>
      </trkpt>
      <trkpt lat="45.83749" lon="1.27949">
        <ele>233.8098871</ele>
        <time>2022-07-31T18:45:35Z</time>
      </trkpt>
      <trkpt lat="45.83754" lon="1.2796">
        <ele>233.8215811</ele>
        <time>2022-07-31T18:45:37Z</time>
      </trkpt>
      <trkpt lat="45.83759" lon="1.27973">
        <ele>233.8670788</ele>
        <time>2022-07-31T18:45:39Z</time>
      </trkpt>
      <trkpt lat="45.83764" lon="1.27984">
        <ele>234.4110545</ele>
        <time>2022-07-31T18:45:41Z</time>
      </trkpt>
      <trkpt lat="45.83769" lon="1.27995">
        <ele>235.0135004</ele>
        <time>2022-07-31T18:45:43Z</time>
      </trkpt>
      <trkpt lat="45.83774" lon="1.28005">
        <ele>235.6336659</ele>
        <time>2022-07-31T18:45:45Z</time>
      </trkpt>
      <trkpt lat="45.83782" lon="1.28013">
        <ele>235.4280922</ele>
        <time>2022-07-31T18:45:47Z</time>
      </trkpt>
      <trkpt lat="45.83789" lon="1.28021">
        <ele>235.5963282</ele>
        <time>2022-07-31T18:45:49Z</time>
      </trkpt>
      <trkpt lat="45.83796" lon="1.28028">
        <ele>235.1966044</ele>
        <time>2022-07-31T18:45:51Z</time>
      </trkpt>
      <trkpt lat="45.83802" lon="1.28035">
        <ele>236.0130134</ele>
        <time>2022-07-31T18:45:53Z</time>
      </trkpt>
      <trkpt lat="45.83809" lon="1.28042">
        <ele>237.5118032</ele>
        <time>2022-07-31T18:45:55Z</time>
      </trkpt>
      <trkpt lat="45.83815" lon="1.28048">
        <ele>237.8716548</ele>
        <time>2022-07-31T18:45:57Z</time>
      </trkpt>
      <trkpt lat="45.83821" lon="1.28055">
        <ele>237.9932186</ele>
        <time>2022-07-31T18:45:59Z</time>
      </trkpt>
      <trkpt lat="45.83828" lon="1.28061">
        <ele>236.9564696</ele>
        <time>2022-07-31T18:46:01Z</time>
      </trkpt>
      <trkpt lat="45.83835" lon="1.28067">
        <ele>235.8708697</ele>
        <time>2022-07-31T18:46:03Z</time>
      </trkpt>
      <trkpt lat="45.83841" lon="1.28073">
        <ele>235.3724757</ele>
        <time>2022-07-31T18:46:05Z</time>
      </trkpt>
      <trkpt lat="45.83847" lon="1.2808">
        <ele>234.7041242</ele>
        <time>2022-07-31T18:46:07Z</time>
      </trkpt>
      <trkpt lat="45.83853" lon="1.28086">
        <ele>234.6565593</ele>
        <time>2022-07-31T18:46:09Z</time>
      </trkpt>
      <trkpt lat="45.83859" lon="1.28094">
        <ele>234.2925993</ele>
        <time>2022-07-31T18:46:11Z</time>
      </trkpt>
      <trkpt lat="45.83865" lon="1.28103">
        <ele>234.0243061</ele>
        <time>2022-07-31T18:46:13Z</time>
      </trkpt>
      <trkpt lat="45.83871" lon="1.28112">
        <ele>233.7683982</ele>
        <time>2022-07-31T18:46:15Z</time>
      </trkpt>
      <trkpt lat="45.83878" lon="1.28121">
        <ele>233.7765541</ele>
        <time>2022-07-31T18:46:17Z</time>
      </trkpt>
      <trkpt lat="45.83884" lon="1.2813">
        <ele>233.7711214</ele>
        <time>2022-07-31T18:46:19Z</time>
      </trkpt>
      <trkpt lat="45.8389" lon="1.2814">
        <ele>233.9392648</ele>
        <time>2022-07-31T18:46:21Z</time>
      </trkpt>
      <trkpt lat="45.83896" lon="1.28151">
        <ele>234.0469272</ele>
        <time>2022-07-31T18:46:23Z</time>
      </trkpt>
      <trkpt lat="45.839" lon="1.28162">
        <ele>233.8955881</ele>
        <time>2022-07-31T18:46:25Z</time>
      </trkpt>
      <trkpt lat="45.83905" lon="1.28173">
        <ele>233.9578234</ele>
        <time>2022-07-31T18:46:27Z</time>
      </trkpt>
      <trkpt lat="45.83911" lon="1.28184">
        <ele>234.0815395</ele>
        <time>2022-07-31T18:46:29Z</time>
      </trkpt>
      <trkpt lat="45.83915" lon="1.28194">
        <ele>233.4950355</ele>
        <time>2022-07-31T18:46:31Z</time>
      </trkpt>
      <trkpt lat="45.83919" lon="1.28204">
        <ele>232.5537864</ele>
        <time>2022-07-31T18:46:33Z</time>
      </trkpt>
      <trkpt lat="45.83924" lon="1.28215">
        <ele>232.1147995</ele>
        <time>2022-07-31T18:46:35Z</time>
      </trkpt>
      <trkpt lat="45.83928" lon="1.28227">
        <ele>231.5976043</ele>
        <time>2022-07-31T18:46:37Z</time>
      </trkpt>
      <trkpt lat="45.83931" lon="1.28238">
        <ele>231.3735904</ele>
        <time>2022-07-31T18:46:39Z</time>
      </trkpt>
      <trkpt lat="45.83934" lon="1.2825">
        <ele>231.6052176</ele>
        <time>2022-07-31T18:46:41Z</time>
      </trkpt>
      <trkpt lat="45.83936" lon="1.2826">
        <ele>231.0962548</ele>
        <time>2022-07-31T18:46:43Z</time>
      </trkpt>
      <trkpt lat="45.83939" lon="1.28268">
        <ele>231.6493803</ele>
        <time>2022-07-31T18:46:45Z</time>
      </trkpt>
      <trkpt lat="45.83943" lon="1.28274">
        <ele>231.6984646</ele>
        <time>2022-07-31T18:46:47Z</time>
      </trkpt>
      <trkpt lat="45.83949" lon="1.28272">
        <ele>231.8253987</ele>
        <time>2022-07-31T18:46:49Z</time>
      </trkpt>
      <trkpt lat="45.83956" lon="1.28267">
        <ele>232.2734103</ele>
        <time>2022-07-31T18:46:51Z</time>
      </trkpt>
      <trkpt lat="45.83963" lon="1.28262">
        <ele>232.5661544</ele>
        <time>2022-07-31T18:46:53Z</time>
      </trkpt>
      <trkpt lat="45.83969" lon="1.28257">
        <ele>232.8916954</ele>
        <time>2022-07-31T18:46:55Z</time>
      </trkpt>
      <trkpt lat="45.83975" lon="1.28253">
        <ele>232.6816687</ele>
        <time>2022-07-31T18:46:57Z</time>
      </trkpt>
      <trkpt lat="45.83981" lon="1.28249">
        <ele>233.3550063</ele>
        <time>2022-07-31T18:46:59Z</time>
      </trkpt>
      <trkpt lat="45.83986" lon="1.28244">
        <ele>233.5356602</ele>
        <time>2022-07-31T18:47:01Z</time>
      </trkpt>
      <trkpt lat="45.83992" lon="1.2824">
        <ele>233.8167681</ele>
        <time>2022-07-31T18:47:03Z</time>
      </trkpt>
      <trkpt lat="45.83998" lon="1.28236">
        <ele>234.2002347</ele>
        <time>2022-07-31T18:47:05Z</time>
      </trkpt>
      <trkpt lat="45.84003" lon="1.28232">
        <ele>234.6948178</ele>
        <time>2022-07-31T18:47:07Z</time>
      </trkpt>
      <trkpt lat="45.84009" lon="1.28227">
        <ele>234.9515392</ele>
        <time>2022-07-31T18:47:09Z</time>
      </trkpt>
      <trkpt lat="45.84015" lon="1.28223">
        <ele>235.6799506</ele>
        <time>2022-07-31T18:47:11Z</time>
      </trkpt>
      <trkpt lat="45.8402" lon="1.28219">
        <ele>235.5385912</ele>
        <time>2022-07-31T18:47:13Z</time>
      </trkpt>
      <trkpt lat="45.84025" lon="1.28214">
        <ele>235.9112428</ele>
        <time>2022-07-31T18:47:15Z</time>
      </trkpt>
      <trkpt lat="45.8403" lon="1.2821">
        <ele>235.9698783</ele>
        <time>2022-07-31T18:47:17Z</time>
      </trkpt>
      <trkpt lat="45.84036" lon="1.28206">
        <ele>236.4067909</ele>
        <time>2022-07-31T18:47:19Z</time>
      </trkpt>
      <trkpt lat="45.84041" lon="1.28202">
        <ele>236.6365783</ele>
        <time>2022-07-31T18:47:21Z</time>
      </trkpt>
      <trkpt lat="45.84046" lon="1.28198">
        <ele>236.5613304</ele>
        <time>2022-07-31T18:47:23Z</time>
      </trkpt>
      <trkpt lat="45.84051" lon="1.28194">
        <ele>236.7548147</ele>
        <time>2022-07-31T18:47:25Z</time>
      </trkpt>
      <trkpt lat="45.84056" lon="1.2819">
        <ele>236.701536</ele>
        <time>2022-07-31T18:47:27Z</time>
      </trkpt>
      <trkpt lat="45.84061" lon="1.28185">
        <ele>236.7493227</ele>
        <time>2022-07-31T18:47:29Z</time>
      </trkpt>
      <trkpt lat="45.84066" lon="1.28181">
        <ele>237.1599511</ele>
        <time>2022-07-31T18:47:31Z</time>
      </trkpt>
      <trkpt lat="45.84071" lon="1.28176">
        <ele>237.3017592</ele>
        <time>2022-07-31T18:47:33Z</time>
      </trkpt>
      <trkpt lat="45.84075" lon="1.28171">
        <ele>237.4567641</ele>
        <time>2022-07-31T18:47:35Z</time>
      </trkpt>
      <trkpt lat="45.8408" lon="1.28165">
        <ele>237.703936</ele>
        <time>2022-07-31T18:47:37Z</time>
      </trkpt>
      <trkpt lat="45.84084" lon="1.2816">
        <ele>238.2437855</ele>
        <time>2022-07-31T18:47:39Z</time>
      </trkpt>
      <trkpt lat="45.84089" lon="1.28155">
        <ele>238.6756597</ele>
        <time>2022-07-31T18:47:41Z</time>
      </trkpt>
      <trkpt lat="45.84094" lon="1.2815">
        <ele>238.6790601</ele>
        <time>2022-07-31T18:47:43Z</time>
      </trkpt>
      <trkpt lat="45.84099" lon="1.28146">
        <ele>239.6172149</ele>
        <time>2022-07-31T18:47:45Z</time>
      </trkpt>
      <trkpt lat="45.84102" lon="1.2814">
        <ele>241.4689365</ele>
        <time>2022-07-31T18:47:47Z</time>
      </trkpt>
      <trkpt lat="45.84106" lon="1.28133">
        <ele>241.9355745</ele>
        <time>2022-07-31T18:47:49Z</time>
      </trkpt>
      <trkpt lat="45.8411" lon="1.28127">
        <ele>242.7238378</ele>
        <time>2022-07-31T18:47:51Z</time>
      </trkpt>
      <trkpt lat="45.84113" lon="1.28121">
        <ele>243.9100637</ele>
        <time>2022-07-31T18:47:53Z</time>
      </trkpt>
      <trkpt lat="45.84117" lon="1.28116">
        <ele>244.601308</ele>
        <time>2022-07-31T18:47:55Z</time>
      </trkpt>
      <trkpt lat="45.84121" lon="1.28111">
        <ele>245.1454129</ele>
        <time>2022-07-31T18:47:57Z</time>
      </trkpt>
      <trkpt lat="45.84126" lon="1.28106">
        <ele>245.0086269</ele>
        <time>2022-07-31T18:47:59Z</time>
      </trkpt>
      <trkpt lat="45.84129" lon="1.28101">
        <ele>245.3648021</ele>
        <time>2022-07-31T18:48:01Z</time>
      </trkpt>
      <trkpt lat="45.84134" lon="1.28097">
        <ele>245.3008494</ele>
        <time>2022-07-31T18:48:03Z</time>
      </trkpt>
      <trkpt lat="45.84138" lon="1.28092">
        <ele>245.3574638</ele>
        <time>2022-07-31T18:48:05Z</time>
      </trkpt>
      <trkpt lat="45.84143" lon="1.28088">
        <ele>245.1998082</ele>
        <time>2022-07-31T18:48:07Z</time>
      </trkpt>
      <trkpt lat="45.84147" lon="1.28083">
        <ele>245.7342552</ele>
        <time>2022-07-31T18:48:09Z</time>
      </trkpt>
      <trkpt lat="45.84151" lon="1.28078">
        <ele>246.1146925</ele>
        <time>2022-07-31T18:48:11Z</time>
      </trkpt>
      <trkpt lat="45.84155" lon="1.28074">
        <ele>246.1890381</ele>
        <time>2022-07-31T18:48:13Z</time>
      </trkpt>
      <trkpt lat="45.84159" lon="1.28069">
        <ele>246.4755803</ele>
        <time>2022-07-31T18:48:15Z</time>
      </trkpt>
      <trkpt lat="45.84163" lon="1.28064">
        <ele>246.1689752</ele>
        <time>2022-07-31T18:48:17Z</time>
      </trkpt>
      <trkpt lat="45.84167" lon="1.2806">
        <ele>246.5083281</ele>
        <time>2022-07-31T18:48:19Z</time>
      </trkpt>
      <trkpt lat="45.84171" lon="1.28055">
        <ele>246.5357016</ele>
        <time>2022-07-31T18:48:21Z</time>
      </trkpt>
      <trkpt lat="45.84175" lon="1.28051">
        <ele>247.1076853</ele>
        <time>2022-07-31T18:48:23Z</time>
      </trkpt>
      <trkpt lat="45.84179" lon="1.28046">
        <ele>247.8141259</ele>
        <time>2022-07-31T18:48:25Z</time>
      </trkpt>
      <trkpt lat="45.84183" lon="1.28041">
        <ele>248.6639295</ele>
        <time>2022-07-31T18:48:27Z</time>
      </trkpt>
      <trkpt lat="45.84187" lon="1.28036">
        <ele>249.4656032</ele>
        <time>2022-07-31T18:48:29Z</time>
      </trkpt>
      <trkpt lat="45.84191" lon="1.28031">
        <ele>249.9451384</ele>
        <time>2022-07-31T18:48:31Z</time>
      </trkpt>
      <trkpt lat="45.84195" lon="1.28026">
        <ele>250.5282897</ele>
        <time>2022-07-31T18:48:33Z</time>
      </trkpt>
      <trkpt lat="45.842" lon="1.28022">
        <ele>251.2130027</ele>
        <time>2022-07-31T18:48:35Z</time>
      </trkpt>
      <trkpt lat="45.84203" lon="1.28017">
        <ele>251.7503348</ele>
        <time>2022-07-31T18:48:37Z</time>
      </trkpt>
      <trkpt lat="45.84207" lon="1.28013">
        <ele>251.8887194</ele>
        <time>2022-07-31T18:48:39Z</time>
      </trkpt>
      <trkpt lat="45.8421" lon="1.28008">
        <ele>252.3256539</ele>
        <time>2022-07-31T18:48:41Z</time>
      </trkpt>
      <trkpt lat="45.84214" lon="1.28003">
        <ele>252.7073607</ele>
        <time>2022-07-31T18:48:43Z</time>
      </trkpt>
      <trkpt lat="45.84218" lon="1.27999">
        <ele>252.9662941</ele>
        <time>2022-07-31T18:48:45Z</time>
      </trkpt>
      <trkpt lat="45.84221" lon="1.27995">
        <ele>252.9910383</ele>
        <time>2022-07-31T18:48:47Z</time>
      </trkpt>
      <trkpt lat="45.84225" lon="1.27991">
        <ele>252.8499315</ele>
        <time>2022-07-31T18:48:49Z</time>
      </trkpt>
      <trkpt lat="45.84229" lon="1.27986">
        <ele>253.1962879</ele>
        <time>2022-07-31T18:48:51Z</time>
      </trkpt>
      <trkpt lat="45.84232" lon="1.27982">
        <ele>253.1252738</ele>
        <time>2022-07-31T18:48:53Z</time>
      </trkpt>
      <trkpt lat="45.84235" lon="1.27977">
        <ele>253.2840554</ele>
        <time>2022-07-31T18:48:55Z</time>
      </trkpt>
      <trkpt lat="45.84239" lon="1.27973">
        <ele>253.5330481</ele>
        <time>2022-07-31T18:48:57Z</time>
      </trkpt>
      <trkpt lat="45.84242" lon="1.27969">
        <ele>253.9533</ele>
        <time>2022-07-31T18:48:59Z</time>
      </trkpt>
      <trkpt lat="45.84246" lon="1.27966">
        <ele>254.5176971</ele>
        <time>2022-07-31T18:49:01Z</time>
      </trkpt>
      <trkpt lat="45.8425" lon="1.27963">
        <ele>255.161471</ele>
        <time>2022-07-31T18:49:03Z</time>
      </trkpt>
      <trkpt lat="45.84254" lon="1.2796">
        <ele>255.3683626</ele>
        <time>2022-07-31T18:49:05Z</time>
      </trkpt>
      <trkpt lat="45.84258" lon="1.27956">
        <ele>255.6455882</ele>
        <time>2022-07-31T18:49:07Z</time>
      </trkpt>
      <trkpt lat="45.84262" lon="1.27953">
        <ele>256.0605839</ele>
        <time>2022-07-31T18:49:09Z</time>
      </trkpt>
      <trkpt lat="45.84265" lon="1.27951">
        <ele>256.362441</ele>
        <time>2022-07-31T18:49:11Z</time>
      </trkpt>
      <trkpt lat="45.84269" lon="1.27949">
        <ele>256.6020633</ele>
        <time>2022-07-31T18:49:13Z</time>
      </trkpt>
      <trkpt lat="45.84273" lon="1.27946">
        <ele>257.0284047</ele>
        <time>2022-07-31T18:49:15Z</time>
      </trkpt>
      <trkpt lat="45.84277" lon="1.27944">
        <ele>257.8243131</ele>
        <time>2022-07-31T18:49:17Z</time>
      </trkpt>
      <trkpt lat="45.84281" lon="1.27941">
        <ele>258.4806393</ele>
        <time>2022-07-31T18:49:19Z</time>
      </trkpt>
      <trkpt lat="45.84285" lon="1.27939">
        <ele>259.2205843</ele>
        <time>2022-07-31T18:49:21Z</time>
      </trkpt>
      <trkpt lat="45.84289" lon="1.27936">
        <ele>259.670366</ele>
        <time>2022-07-31T18:49:23Z</time>
      </trkpt>
      <trkpt lat="45.84293" lon="1.27933">
        <ele>260.3123064</ele>
        <time>2022-07-31T18:49:25Z</time>
      </trkpt>
      <trkpt lat="45.84296" lon="1.2793">
        <ele>260.2908</ele>
        <time>2022-07-31T18:49:27Z</time>
      </trkpt>
      <trkpt lat="45.84301" lon="1.27928">
        <ele>260.8776753</ele>
        <time>2022-07-31T18:49:29Z</time>
      </trkpt>
      <trkpt lat="45.84305" lon="1.27926">
        <ele>261.5410381</ele>
        <time>2022-07-31T18:49:31Z</time>
      </trkpt>
      <trkpt lat="45.84309" lon="1.27923">
        <ele>261.8433026</ele>
        <time>2022-07-31T18:49:33Z</time>
      </trkpt>
      <trkpt lat="45.84313" lon="1.27921">
        <ele>262.3046015</ele>
        <time>2022-07-31T18:49:35Z</time>
      </trkpt>
      <trkpt lat="45.84316" lon="1.27918">
        <ele>262.2874853</ele>
        <time>2022-07-31T18:49:37Z</time>
      </trkpt>
      <trkpt lat="45.84318" lon="1.27917">
        <ele>262.4371685</ele>
        <time>2022-07-31T18:49:39Z</time>
      </trkpt>
      <trkpt lat="45.8432" lon="1.27915">
        <ele>262.9190848</ele>
        <time>2022-07-31T18:49:41Z</time>
      </trkpt>
      <trkpt lat="45.84321" lon="1.27914">
        <ele>263.8074112</ele>
        <time>2022-07-31T18:49:43Z</time>
      </trkpt>
      <trkpt lat="45.84321" lon="1.27913">
        <ele>263.8034423</ele>
        <time>2022-07-31T18:49:45Z</time>
      </trkpt>
      <trkpt lat="45.84321" lon="1.27912">
        <ele>264.0869014</ele>
        <time>2022-07-31T18:49:47Z</time>
      </trkpt>
      <trkpt lat="45.8432" lon="1.27912">
        <ele>264.4314601</ele>
        <time>2022-07-31T18:49:49Z</time>
      </trkpt>
      <trkpt lat="45.84319" lon="1.27912">
        <ele>265.7921887</ele>
        <time>2022-07-31T18:49:51Z</time>
      </trkpt>
      <trkpt lat="45.84319" lon="1.27911">
        <ele>265.9122633</ele>
        <time>2022-07-31T18:49:53Z</time>
      </trkpt>
      <trkpt lat="45.84318" lon="1.27911">
        <ele>266.4127095</ele>
        <time>2022-07-31T18:49:55Z</time>
      </trkpt>
      <trkpt lat="45.84318" lon="1.27911">
        <ele>266.8770476</ele>
        <time>2022-07-31T18:49:57Z</time>
      </trkpt>
      <trkpt lat="45.84318" lon="1.27911">
        <ele>266.5631998</ele>
        <time>2022-07-31T18:49:59Z</time>
      </trkpt>
      <trkpt lat="45.84318" lon="1.27911">
        <ele>266.7850486</ele>
        <time>2022-07-31T18:50:01Z</time>
      </trkpt>
      <trkpt lat="45.84318" lon="1.27911">
        <ele>266.8890204</ele>
        <time>2022-07-31T18:50:03Z</time>
      </trkpt>
      <trkpt lat="45.84318" lon="1.27911">
        <ele>267.2908938</ele>
        <time>2022-07-31T18:50:05Z</time>
      </trkpt>
      <trkpt lat="45.84321" lon="1.27909">
        <ele>267.1670288</ele>
        <time>2022-07-31T18:50:07Z</time>
      </trkpt>
      <trkpt lat="45.84326" lon="1.27906">
        <ele>266.1755703</ele>
        <time>2022-07-31T18:50:09Z</time>
      </trkpt>
      <trkpt lat="45.84331" lon="1.27903">
        <ele>265.0016334</ele>
        <time>2022-07-31T18:50:11Z</time>
      </trkpt>
      <trkpt lat="45.84336" lon="1.27899">
        <ele>264.7428668</ele>
        <time>2022-07-31T18:50:13Z</time>
      </trkpt>
      <trkpt lat="45.84341" lon="1.27897">
        <ele>264.7579603</ele>
        <time>2022-07-31T18:50:15Z</time>
      </trkpt>
      <trkpt lat="45.84345" lon="1.27895">
        <ele>264.7421742</ele>
        <time>2022-07-31T18:50:17Z</time>
      </trkpt>
      <trkpt lat="45.8435" lon="1.27894">
        <ele>264.6929977</ele>
        <time>2022-07-31T18:50:19Z</time>
      </trkpt>
      <trkpt lat="45.84353" lon="1.27893">
        <ele>264.6244716</ele>
        <time>2022-07-31T18:50:21Z</time>
      </trkpt>
      <trkpt lat="45.84361" lon="1.27888">
        <ele>264.1347191</ele>
        <time>2022-07-31T18:50:23Z</time>
      </trkpt>
      <trkpt lat="45.84365" lon="1.27886">
        <ele>264.0926219</ele>
        <time>2022-07-31T18:50:25Z</time>
      </trkpt>
      <trkpt lat="45.84369" lon="1.27885">
        <ele>264.5325683</ele>
        <time>2022-07-31T18:50:27Z</time>
      </trkpt>
      <trkpt lat="45.84374" lon="1.27884">
        <ele>264.3862389</ele>
        <time>2022-07-31T18:50:29Z</time>
      </trkpt>
      <trkpt lat="45.84388" lon="1.27879">
        <ele>264.2390936</ele>
        <time>2022-07-31T18:50:31Z</time>
      </trkpt>
      <trkpt lat="45.84401" lon="1.27877">
        <ele>264.2292392</ele>
        <time>2022-07-31T18:50:33Z</time>
      </trkpt>
      <trkpt lat="45.84408" lon="1.27887">
        <ele>265.4984009</ele>
        <time>2022-07-31T18:50:35Z</time>
      </trkpt>
      <trkpt lat="45.8441" lon="1.27896">
        <ele>264.5167077</ele>
        <time>2022-07-31T18:50:37Z</time>
      </trkpt>
      <trkpt lat="45.84413" lon="1.27904">
        <ele>264.0962056</ele>
        <time>2022-07-31T18:50:39Z</time>
      </trkpt>
      <trkpt lat="45.84416" lon="1.27912">
        <ele>263.852595</ele>
        <time>2022-07-31T18:50:41Z</time>
      </trkpt>
      <trkpt lat="45.84419" lon="1.27921">
        <ele>263.0677807</ele>
        <time>2022-07-31T18:50:43Z</time>
      </trkpt>
      <trkpt lat="45.84422" lon="1.2793">
        <ele>262.9288424</ele>
        <time>2022-07-31T18:50:45Z</time>
      </trkpt>
      <trkpt lat="45.84423" lon="1.27939">
        <ele>262.8511295</ele>
        <time>2022-07-31T18:50:47Z</time>
      </trkpt>
      <trkpt lat="45.84425" lon="1.27947">
        <ele>263.617905</ele>
        <time>2022-07-31T18:50:49Z</time>
      </trkpt>
      <trkpt lat="45.84427" lon="1.27956">
        <ele>263.3236513</ele>
        <time>2022-07-31T18:50:51Z</time>
      </trkpt>
      <trkpt lat="45.84427" lon="1.27966">
        <ele>263.4471399</ele>
        <time>2022-07-31T18:50:53Z</time>
      </trkpt>
      <trkpt lat="45.84431" lon="1.27974">
        <ele>264.6145067</ele>
        <time>2022-07-31T18:50:55Z</time>
      </trkpt>
      <trkpt lat="45.84433" lon="1.27982">
        <ele>264.5385495</ele>
        <time>2022-07-31T18:50:57Z</time>
      </trkpt>
      <trkpt lat="45.84436" lon="1.27989">
        <ele>265.5480255</ele>
        <time>2022-07-31T18:50:59Z</time>
      </trkpt>
      <trkpt lat="45.84437" lon="1.27996">
        <ele>265.9277176</ele>
        <time>2022-07-31T18:51:01Z</time>
      </trkpt>
      <trkpt lat="45.8444" lon="1.28002">
        <ele>266.7717174</ele>
        <time>2022-07-31T18:51:03Z</time>
      </trkpt>
      <trkpt lat="45.84443" lon="1.28009">
        <ele>267.0048559</ele>
        <time>2022-07-31T18:51:05Z</time>
      </trkpt>
      <trkpt lat="45.84446" lon="1.28015">
        <ele>267.5637483</ele>
        <time>2022-07-31T18:51:07Z</time>
      </trkpt>
      <trkpt lat="45.84449" lon="1.28021">
        <ele>268.3365994</ele>
        <time>2022-07-31T18:51:09Z</time>
      </trkpt>
      <trkpt lat="45.84452" lon="1.28027">
        <ele>269.1085518</ele>
        <time>2022-07-31T18:51:11Z</time>
      </trkpt>
      <trkpt lat="45.84455" lon="1.28032">
        <ele>269.6807619</ele>
        <time>2022-07-31T18:51:13Z</time>
      </trkpt>
      <trkpt lat="45.84459" lon="1.28038">
        <ele>270.8686349</ele>
        <time>2022-07-31T18:51:15Z</time>
      </trkpt>
      <trkpt lat="45.84463" lon="1.28043">
        <ele>271.6512448</ele>
        <time>2022-07-31T18:51:17Z</time>
      </trkpt>
      <trkpt lat="45.84467" lon="1.28049">
        <ele>272.0216415</ele>
        <time>2022-07-31T18:51:19Z</time>
      </trkpt>
      <trkpt lat="45.8447" lon="1.28055">
        <ele>272.500252</ele>
        <time>2022-07-31T18:51:21Z</time>
      </trkpt>
      <trkpt lat="45.84473" lon="1.28061">
        <ele>273.1714057</ele>
        <time>2022-07-31T18:51:23Z</time>
      </trkpt>
      <trkpt lat="45.84476" lon="1.28067">
        <ele>273.2574082</ele>
        <time>2022-07-31T18:51:25Z</time>
      </trkpt>
      <trkpt lat="45.84479" lon="1.28073">
        <ele>273.6461979</ele>
        <time>2022-07-31T18:51:27Z</time>
      </trkpt>
      <trkpt lat="45.84482" lon="1.28079">
        <ele>273.583361</ele>
        <time>2022-07-31T18:51:29Z</time>
      </trkpt>
      <trkpt lat="45.84485" lon="1.28085">
        <ele>273.5998562</ele>
        <time>2022-07-31T18:51:31Z</time>
      </trkpt>
      <trkpt lat="45.84488" lon="1.2809">
        <ele>273.9366099</ele>
        <time>2022-07-31T18:51:33Z</time>
      </trkpt>
      <trkpt lat="45.84491" lon="1.28096">
        <ele>273.3638487</ele>
        <time>2022-07-31T18:51:35Z</time>
      </trkpt>
      <trkpt lat="45.84494" lon="1.28102">
        <ele>273.1695103</ele>
        <time>2022-07-31T18:51:37Z</time>
      </trkpt>
      <trkpt lat="45.84498" lon="1.28108">
        <ele>272.7058196</ele>
        <time>2022-07-31T18:51:39Z</time>
      </trkpt>
      <trkpt lat="45.84501" lon="1.28114">
        <ele>272.6698262</ele>
        <time>2022-07-31T18:51:41Z</time>
      </trkpt>
      <trkpt lat="45.84504" lon="1.2812">
        <ele>272.7162851</ele>
        <time>2022-07-31T18:51:43Z</time>
      </trkpt>
      <trkpt lat="45.84507" lon="1.28126">
        <ele>272.9037219</ele>
        <time>2022-07-31T18:51:45Z</time>
      </trkpt>
      <trkpt lat="45.84511" lon="1.28132">
        <ele>273.1592478</ele>
        <time>2022-07-31T18:51:47Z</time>
      </trkpt>
      <trkpt lat="45.84514" lon="1.28138">
        <ele>272.9112667</ele>
        <time>2022-07-31T18:51:49Z</time>
      </trkpt>
      <trkpt lat="45.84518" lon="1.28142">
        <ele>272.5797167</ele>
        <time>2022-07-31T18:51:51Z</time>
      </trkpt>
      <trkpt lat="45.84522" lon="1.28145">
        <ele>272.802785</ele>
        <time>2022-07-31T18:51:53Z</time>
      </trkpt>
      <trkpt lat="45.84527" lon="1.28147">
        <ele>273.2451397</ele>
        <time>2022-07-31T18:51:55Z</time>
      </trkpt>
      <trkpt lat="45.84531" lon="1.28149">
        <ele>274.3686575</ele>
        <time>2022-07-31T18:51:57Z</time>
      </trkpt>
      <trkpt lat="45.84535" lon="1.2815">
        <ele>274.670089</ele>
        <time>2022-07-31T18:51:59Z</time>
      </trkpt>
      <trkpt lat="45.84539" lon="1.2815">
        <ele>275.1213638</ele>
        <time>2022-07-31T18:52:01Z</time>
      </trkpt>
      <trkpt lat="45.84543" lon="1.28151">
        <ele>276.9138462</ele>
        <time>2022-07-31T18:52:03Z</time>
      </trkpt>
      <trkpt lat="45.84547" lon="1.28151">
        <ele>277.7957659</ele>
        <time>2022-07-31T18:52:05Z</time>
      </trkpt>
      <trkpt lat="45.8455" lon="1.28152">
        <ele>278.4292077</ele>
        <time>2022-07-31T18:52:07Z</time>
      </trkpt>
      <trkpt lat="45.84555" lon="1.28154">
        <ele>278.7082496</ele>
        <time>2022-07-31T18:52:09Z</time>
      </trkpt>
      <trkpt lat="45.84558" lon="1.28155">
        <ele>279.3748723</ele>
        <time>2022-07-31T18:52:11Z</time>
      </trkpt>
      <trkpt lat="45.84562" lon="1.28155">
        <ele>280.4171578</ele>
        <time>2022-07-31T18:52:13Z</time>
      </trkpt>
      <trkpt lat="45.84566" lon="1.28156">
        <ele>281.0989395</ele>
        <time>2022-07-31T18:52:15Z</time>
      </trkpt>
      <trkpt lat="45.8457" lon="1.28157">
        <ele>281.5891275</ele>
        <time>2022-07-31T18:52:17Z</time>
      </trkpt>
      <trkpt lat="45.84575" lon="1.28158">
        <ele>281.312924</ele>
        <time>2022-07-31T18:52:19Z</time>
      </trkpt>
      <trkpt lat="45.84579" lon="1.2816">
        <ele>280.7714239</ele>
        <time>2022-07-31T18:52:21Z</time>
      </trkpt>
      <trkpt lat="45.84583" lon="1.28161">
        <ele>280.35508</ele>
        <time>2022-07-31T18:52:23Z</time>
      </trkpt>
      <trkpt lat="45.84588" lon="1.28163">
        <ele>280.0855727</ele>
        <time>2022-07-31T18:52:25Z</time>
      </trkpt>
      <trkpt lat="45.84592" lon="1.28164">
        <ele>279.9052177</ele>
        <time>2022-07-31T18:52:27Z</time>
      </trkpt>
      <trkpt lat="45.84596" lon="1.28164">
        <ele>279.8384568</ele>
        <time>2022-07-31T18:52:29Z</time>
      </trkpt>
      <trkpt lat="45.846" lon="1.28166">
        <ele>279.7503678</ele>
        <time>2022-07-31T18:52:31Z</time>
      </trkpt>
      <trkpt lat="45.84604" lon="1.28166">
        <ele>279.6693677</ele>
        <time>2022-07-31T18:52:33Z</time>
      </trkpt>
      <trkpt lat="45.84608" lon="1.28167">
        <ele>280.1399087</ele>
        <time>2022-07-31T18:52:35Z</time>
      </trkpt>
      <trkpt lat="45.84612" lon="1.2817">
        <ele>279.761117</ele>
        <time>2022-07-31T18:52:37Z</time>
      </trkpt>
      <trkpt lat="45.84616" lon="1.28173">
        <ele>279.9756919</ele>
        <time>2022-07-31T18:52:39Z</time>
      </trkpt>
      <trkpt lat="45.8462" lon="1.28178">
        <ele>279.9124128</ele>
        <time>2022-07-31T18:52:41Z</time>
      </trkpt>
      <trkpt lat="45.84622" lon="1.28183">
        <ele>280.2045258</ele>
        <time>2022-07-31T18:52:43Z</time>
      </trkpt>
      <trkpt lat="45.84624" lon="1.28188">
        <ele>280.1788425</ele>
        <time>2022-07-31T18:52:45Z</time>
      </trkpt>
      <trkpt lat="45.84627" lon="1.28194">
        <ele>279.5030815</ele>
        <time>2022-07-31T18:52:47Z</time>
      </trkpt>
      <trkpt lat="45.8463" lon="1.282">
        <ele>279.4252877</ele>
        <time>2022-07-31T18:52:49Z</time>
      </trkpt>
      <trkpt lat="45.84633" lon="1.28205">
        <ele>279.5095851</ele>
        <time>2022-07-31T18:52:51Z</time>
      </trkpt>
      <trkpt lat="45.84636" lon="1.28211">
        <ele>279.7051385</ele>
        <time>2022-07-31T18:52:53Z</time>
      </trkpt>
      <trkpt lat="45.84638" lon="1.28216">
        <ele>280.3066184</ele>
        <time>2022-07-31T18:52:55Z</time>
      </trkpt>
      <trkpt lat="45.84641" lon="1.28221">
        <ele>281.0399816</ele>
        <time>2022-07-31T18:52:57Z</time>
      </trkpt>
      <trkpt lat="45.84644" lon="1.28227">
        <ele>280.8819429</ele>
        <time>2022-07-31T18:52:59Z</time>
      </trkpt>
      <trkpt lat="45.84646" lon="1.28234">
        <ele>281.181011</ele>
        <time>2022-07-31T18:53:01Z</time>
      </trkpt>
      <trkpt lat="45.84649" lon="1.2824">
        <ele>282.2324287</ele>
        <time>2022-07-31T18:53:03Z</time>
      </trkpt>
      <trkpt lat="45.8465" lon="1.28247">
        <ele>282.5081431</ele>
        <time>2022-07-31T18:53:05Z</time>
      </trkpt>
      <trkpt lat="45.84654" lon="1.28253">
        <ele>282.9350772</ele>
        <time>2022-07-31T18:53:07Z</time>
      </trkpt>
      <trkpt lat="45.84656" lon="1.28258">
        <ele>283.3429752</ele>
        <time>2022-07-31T18:53:09Z</time>
      </trkpt>
      <trkpt lat="45.84659" lon="1.28264">
        <ele>283.5607552</ele>
        <time>2022-07-31T18:53:11Z</time>
      </trkpt>
      <trkpt lat="45.84661" lon="1.2827">
        <ele>283.1406089</ele>
        <time>2022-07-31T18:53:13Z</time>
      </trkpt>
      <trkpt lat="45.84664" lon="1.28277">
        <ele>283.089704</ele>
        <time>2022-07-31T18:53:15Z</time>
      </trkpt>
      <trkpt lat="45.84667" lon="1.28283">
        <ele>283.4338165</ele>
        <time>2022-07-31T18:53:17Z</time>
      </trkpt>
      <trkpt lat="45.84669" lon="1.28288">
        <ele>283.4178927</ele>
        <time>2022-07-31T18:53:19Z</time>
      </trkpt>
      <trkpt lat="45.84671" lon="1.28294">
        <ele>283.7042623</ele>
        <time>2022-07-31T18:53:21Z</time>
      </trkpt>
      <trkpt lat="45.84674" lon="1.28299">
        <ele>284.0383472</ele>
        <time>2022-07-31T18:53:23Z</time>
      </trkpt>
      <trkpt lat="45.84676" lon="1.28304">
        <ele>284.1740949</ele>
        <time>2022-07-31T18:53:25Z</time>
      </trkpt>
      <trkpt lat="45.84678" lon="1.28309">
        <ele>284.1207891</ele>
        <time>2022-07-31T18:53:27Z</time>
      </trkpt>
      <trkpt lat="45.8468" lon="1.28314">
        <ele>284.7353218</ele>
        <time>2022-07-31T18:53:29Z</time>
      </trkpt>
      <trkpt lat="45.84682" lon="1.2832">
        <ele>284.9206127</ele>
        <time>2022-07-31T18:53:31Z</time>
      </trkpt>
      <trkpt lat="45.84686" lon="1.28325">
        <ele>284.7963834</ele>
        <time>2022-07-31T18:53:33Z</time>
      </trkpt>
      <trkpt lat="45.84688" lon="1.28331">
        <ele>285.0750891</ele>
        <time>2022-07-31T18:53:35Z</time>
      </trkpt>
      <trkpt lat="45.84691" lon="1.28338">
        <ele>284.6223925</ele>
        <time>2022-07-31T18:53:37Z</time>
      </trkpt>
      <trkpt lat="45.84694" lon="1.28344">
        <ele>284.3055791</ele>
        <time>2022-07-31T18:53:39Z</time>
      </trkpt>
      <trkpt lat="45.84695" lon="1.2835">
        <ele>283.640569</ele>
        <time>2022-07-31T18:53:41Z</time>
      </trkpt>
      <trkpt lat="45.84698" lon="1.28357">
        <ele>283.4962795</ele>
        <time>2022-07-31T18:53:43Z</time>
      </trkpt>
      <trkpt lat="45.84701" lon="1.28364">
        <ele>283.0342272</ele>
        <time>2022-07-31T18:53:45Z</time>
      </trkpt>
      <trkpt lat="45.84704" lon="1.28372">
        <ele>282.6167148</ele>
        <time>2022-07-31T18:53:47Z</time>
      </trkpt>
      <trkpt lat="45.84706" lon="1.2838">
        <ele>282.5186363</ele>
        <time>2022-07-31T18:53:49Z</time>
      </trkpt>
      <trkpt lat="45.84709" lon="1.28387">
        <ele>282.3917165</ele>
        <time>2022-07-31T18:53:51Z</time>
      </trkpt>
      <trkpt lat="45.84713" lon="1.28394">
        <ele>282.1802104</ele>
        <time>2022-07-31T18:53:53Z</time>
      </trkpt>
      <trkpt lat="45.84716" lon="1.284">
        <ele>281.8122145</ele>
        <time>2022-07-31T18:53:55Z</time>
      </trkpt>
      <trkpt lat="45.84723" lon="1.28402">
        <ele>281.6158057</ele>
        <time>2022-07-31T18:53:57Z</time>
      </trkpt>
      <trkpt lat="45.84728" lon="1.28398">
        <ele>281.385209</ele>
        <time>2022-07-31T18:53:59Z</time>
      </trkpt>
      <trkpt lat="45.84732" lon="1.28395">
        <ele>282.2062159</ele>
        <time>2022-07-31T18:54:01Z</time>
      </trkpt>
      <trkpt lat="45.84735" lon="1.28391">
        <ele>282.6781564</ele>
        <time>2022-07-31T18:54:03Z</time>
      </trkpt>
      <trkpt lat="45.84737" lon="1.28388">
        <ele>282.9605884</ele>
        <time>2022-07-31T18:54:05Z</time>
      </trkpt>
      <trkpt lat="45.8474" lon="1.28386">
        <ele>283.3595955</ele>
        <time>2022-07-31T18:54:07Z</time>
      </trkpt>
      <trkpt lat="45.84743" lon="1.28383">
        <ele>284.9420845</ele>
        <time>2022-07-31T18:54:09Z</time>
      </trkpt>
      <trkpt lat="45.84746" lon="1.28379">
        <ele>284.9401433</ele>
        <time>2022-07-31T18:54:11Z</time>
      </trkpt>
      <trkpt lat="45.84749" lon="1.28375">
        <ele>285.0698943</ele>
        <time>2022-07-31T18:54:13Z</time>
      </trkpt>
      <trkpt lat="45.84752" lon="1.28372">
        <ele>284.9217728</ele>
        <time>2022-07-31T18:54:15Z</time>
      </trkpt>
      <trkpt lat="45.84755" lon="1.28369">
        <ele>285.1700375</ele>
        <time>2022-07-31T18:54:17Z</time>
      </trkpt>
      <trkpt lat="45.84758" lon="1.28367">
        <ele>285.4717167</ele>
        <time>2022-07-31T18:54:19Z</time>
      </trkpt>
      <trkpt lat="45.84761" lon="1.28363">
        <ele>286.523946</ele>
        <time>2022-07-31T18:54:21Z</time>
      </trkpt>
      <trkpt lat="45.84764" lon="1.28361">
        <ele>287.2690807</ele>
        <time>2022-07-31T18:54:23Z</time>
      </trkpt>
      <trkpt lat="45.84767" lon="1.28358">
        <ele>287.789278</ele>
        <time>2022-07-31T18:54:25Z</time>
      </trkpt>
      <trkpt lat="45.8477" lon="1.28355">
        <ele>288.0872007</ele>
        <time>2022-07-31T18:54:27Z</time>
      </trkpt>
      <trkpt lat="45.84773" lon="1.28352">
        <ele>288.1497013</ele>
        <time>2022-07-31T18:54:29Z</time>
      </trkpt>
      <trkpt lat="45.84776" lon="1.28349">
        <ele>288.0814241</ele>
        <time>2022-07-31T18:54:31Z</time>
      </trkpt>
      <trkpt lat="45.84779" lon="1.28347">
        <ele>288.3397861</ele>
        <time>2022-07-31T18:54:33Z</time>
      </trkpt>
      <trkpt lat="45.84783" lon="1.28345">
        <ele>288.4516964</ele>
        <time>2022-07-31T18:54:35Z</time>
      </trkpt>
      <trkpt lat="45.84786" lon="1.28342">
        <ele>288.4200562</ele>
        <time>2022-07-31T18:54:37Z</time>
      </trkpt>
      <trkpt lat="45.84789" lon="1.28339">
        <ele>288.5224806</ele>
        <time>2022-07-31T18:54:39Z</time>
      </trkpt>
      <trkpt lat="45.84792" lon="1.28336">
        <ele>289.1186995</ele>
        <time>2022-07-31T18:54:41Z</time>
      </trkpt>
      <trkpt lat="45.84795" lon="1.28333">
        <ele>288.9165696</ele>
        <time>2022-07-31T18:54:43Z</time>
      </trkpt>
      <trkpt lat="45.84798" lon="1.28329">
        <ele>289.9826872</ele>
        <time>2022-07-31T18:54:45Z</time>
      </trkpt>
      <trkpt lat="45.84802" lon="1.28326">
        <ele>290.4343654</ele>
        <time>2022-07-31T18:54:47Z</time>
      </trkpt>
      <trkpt lat="45.84805" lon="1.28322">
        <ele>291.7621377</ele>
        <time>2022-07-31T18:54:49Z</time>
      </trkpt>
      <trkpt lat="45.84808" lon="1.28319">
        <ele>292.1543507</ele>
        <time>2022-07-31T18:54:51Z</time>
      </trkpt>
      <trkpt lat="45.84812" lon="1.28316">
        <ele>292.6168802</ele>
        <time>2022-07-31T18:54:53Z</time>
      </trkpt>
      <trkpt lat="45.84815" lon="1.28313">
        <ele>292.8764976</ele>
        <time>2022-07-31T18:54:55Z</time>
      </trkpt>
      <trkpt lat="45.84818" lon="1.28309">
        <ele>293.2109696</ele>
        <time>2022-07-31T18:54:57Z</time>
      </trkpt>
      <trkpt lat="45.84821" lon="1.28306">
        <ele>293.6206078</ele>
        <time>2022-07-31T18:54:59Z</time>
      </trkpt>
      <trkpt lat="45.84825" lon="1.28303">
        <ele>294.2905946</ele>
        <time>2022-07-31T18:55:01Z</time>
      </trkpt>
      <trkpt lat="45.84828" lon="1.283">
        <ele>294.5552157</ele>
        <time>2022-07-31T18:55:03Z</time>
      </trkpt>
      <trkpt lat="45.84831" lon="1.28297">
        <ele>294.7245661</ele>
        <time>2022-07-31T18:55:05Z</time>
      </trkpt>
      <trkpt lat="45.84834" lon="1.28294">
        <ele>294.4962432</ele>
        <time>2022-07-31T18:55:07Z</time>
      </trkpt>
      <trkpt lat="45.84838" lon="1.28291">
        <ele>294.6491529</ele>
        <time>2022-07-31T18:55:09Z</time>
      </trkpt>
      <trkpt lat="45.84841" lon="1.28289">
        <ele>294.7639354</ele>
        <time>2022-07-31T18:55:11Z</time>
      </trkpt>
      <trkpt lat="45.84845" lon="1.28285">
        <ele>295.0501654</ele>
        <time>2022-07-31T18:55:13Z</time>
      </trkpt>
      <trkpt lat="45.84848" lon="1.28282">
        <ele>295.3724676</ele>
        <time>2022-07-31T18:55:15Z</time>
      </trkpt>
      <trkpt lat="45.84851" lon="1.28279">
        <ele>295.5242608</ele>
        <time>2022-07-31T18:55:17Z</time>
      </trkpt>
      <trkpt lat="45.84854" lon="1.28277">
        <ele>295.9918883</ele>
        <time>2022-07-31T18:55:19Z</time>
      </trkpt>
      <trkpt lat="45.84857" lon="1.28273">
        <ele>296.7073869</ele>
        <time>2022-07-31T18:55:21Z</time>
      </trkpt>
      <trkpt lat="45.84861" lon="1.28271">
        <ele>296.1283548</ele>
        <time>2022-07-31T18:55:23Z</time>
      </trkpt>
      <trkpt lat="45.84864" lon="1.28267">
        <ele>295.9732717</ele>
        <time>2022-07-31T18:55:25Z</time>
      </trkpt>
      <trkpt lat="45.84866" lon="1.28265">
        <ele>295.6919986</ele>
        <time>2022-07-31T18:55:27Z</time>
      </trkpt>
      <trkpt lat="45.84869" lon="1.28262">
        <ele>295.5970155</ele>
        <time>2022-07-31T18:55:29Z</time>
      </trkpt>
      <trkpt lat="45.84871" lon="1.28259">
        <ele>295.9853717</ele>
        <time>2022-07-31T18:55:31Z</time>
      </trkpt>
      <trkpt lat="45.84874" lon="1.28256">
        <ele>296.7092712</ele>
        <time>2022-07-31T18:55:33Z</time>
      </trkpt>
      <trkpt lat="45.84878" lon="1.28254">
        <ele>296.7530218</ele>
        <time>2022-07-31T18:55:35Z</time>
      </trkpt>
      <trkpt lat="45.84881" lon="1.28253">
        <ele>297.3120656</ele>
        <time>2022-07-31T18:55:37Z</time>
      </trkpt>
      <trkpt lat="45.84884" lon="1.28251">
        <ele>297.6549594</ele>
        <time>2022-07-31T18:55:39Z</time>
      </trkpt>
      <trkpt lat="45.84887" lon="1.28249">
        <ele>297.7040051</ele>
        <time>2022-07-31T18:55:41Z</time>
      </trkpt>
      <trkpt lat="45.84889" lon="1.28246">
        <ele>298.044349</ele>
        <time>2022-07-31T18:55:43Z</time>
      </trkpt>
      <trkpt lat="45.84891" lon="1.28245">
        <ele>298.0914498</ele>
        <time>2022-07-31T18:55:45Z</time>
      </trkpt>
      <trkpt lat="45.84892" lon="1.28246">
        <ele>298.0438979</ele>
        <time>2022-07-31T18:55:47Z</time>
      </trkpt>
      <trkpt lat="45.84892" lon="1.28245">
        <ele>298.4561915</ele>
        <time>2022-07-31T18:55:49Z</time>
      </trkpt>
      <trkpt lat="45.84892" lon="1.28245">
        <ele>298.9000022</ele>
        <time>2022-07-31T18:55:51Z</time>
      </trkpt>
      <trkpt lat="45.84892" lon="1.28245">
        <ele>298.7458402</ele>
        <time>2022-07-31T18:55:53Z</time>
      </trkpt>
      <trkpt lat="45.84893" lon="1.28245">
        <ele>299.0738983</ele>
        <time>2022-07-31T18:55:55Z</time>
      </trkpt>
      <trkpt lat="45.84892" lon="1.28244">
        <ele>299.337768</ele>
        <time>2022-07-31T18:55:57Z</time>
      </trkpt>
      <trkpt lat="45.84892" lon="1.28245">
        <ele>299.6018171</ele>
        <time>2022-07-31T18:55:59Z</time>
      </trkpt>
      <trkpt lat="45.84892" lon="1.28245">
        <ele>299.7276585</ele>
        <time>2022-07-31T18:56:01Z</time>
      </trkpt>
      <trkpt lat="45.84892" lon="1.28245">
        <ele>299.9332272</ele>
        <time>2022-07-31T18:56:03Z</time>
      </trkpt>
      <trkpt lat="45.84892" lon="1.28245">
        <ele>299.9222599</ele>
        <time>2022-07-31T18:56:05Z</time>
      </trkpt>
      <trkpt lat="45.84892" lon="1.28245">
        <ele>299.7698371</ele>
        <time>2022-07-31T18:56:07Z</time>
      </trkpt>
      <trkpt lat="45.84892" lon="1.28244">
        <ele>300.0602853</ele>
        <time>2022-07-31T18:56:09Z</time>
      </trkpt>
      <trkpt lat="45.84892" lon="1.28244">
        <ele>300.2754921</ele>
        <time>2022-07-31T18:56:11Z</time>
      </trkpt>
      <trkpt lat="45.84893" lon="1.28244">
        <ele>300.1707987</ele>
        <time>2022-07-31T18:56:13Z</time>
      </trkpt>
      <trkpt lat="45.84893" lon="1.28244">
        <ele>300.0554008</ele>
        <time>2022-07-31T18:56:15Z</time>
      </trkpt>
      <trkpt lat="45.84894" lon="1.28244">
        <ele>299.9988932</ele>
        <time>2022-07-31T18:56:17Z</time>
      </trkpt>
      <trkpt lat="45.84894" lon="1.28244">
        <ele>300.3891798</ele>
        <time>2022-07-31T18:56:19Z</time>
      </trkpt>
      <trkpt lat="45.84894" lon="1.28244">
        <ele>300.1682471</ele>
        <time>2022-07-31T18:56:21Z</time>
      </trkpt>
      <trkpt lat="45.84895" lon="1.28244">
        <ele>299.8914126</ele>
        <time>2022-07-31T18:56:25Z</time>
      </trkpt>
      <trkpt lat="45.84895" lon="1.28244">
        <ele>299.9527641</ele>
        <time>2022-07-31T18:56:27Z</time>
      </trkpt>
      <trkpt lat="45.84895" lon="1.28243">
        <ele>300.0800186</ele>
        <time>2022-07-31T18:56:31Z</time>
      </trkpt>
      <trkpt lat="45.84895" lon="1.28244">
        <ele>300.038112</ele>
        <time>2022-07-31T18:56:33Z</time>
      </trkpt>
      <trkpt lat="45.84895" lon="1.28244">
        <ele>299.8500137</ele>
        <time>2022-07-31T18:56:35Z</time>
      </trkpt>
      <trkpt lat="45.84895" lon="1.28243">
        <ele>299.3454817</ele>
        <time>2022-07-31T18:56:37Z</time>
      </trkpt>
      <trkpt lat="45.84895" lon="1.28243">
        <ele>298.8329769</ele>
        <time>2022-07-31T18:56:39Z</time>
      </trkpt>
      <trkpt lat="45.84895" lon="1.28243">
        <ele>298.5460127</ele>
        <time>2022-07-31T18:56:41Z</time>
      </trkpt>
      <trkpt lat="45.84896" lon="1.28242">
        <ele>298.2490161</ele>
        <time>2022-07-31T18:56:43Z</time>
      </trkpt>
      <trkpt lat="45.84898" lon="1.28243">
        <ele>298.4441205</ele>
        <time>2022-07-31T18:56:45Z</time>
      </trkpt>
      <trkpt lat="45.84901" lon="1.28246">
        <ele>298.8277058</ele>
        <time>2022-07-31T18:56:47Z</time>
      </trkpt>
      <trkpt lat="45.84905" lon="1.2825">
        <ele>299.2878057</ele>
        <time>2022-07-31T18:56:49Z</time>
      </trkpt>
      <trkpt lat="45.84908" lon="1.28254">
        <ele>299.9647246</ele>
        <time>2022-07-31T18:56:51Z</time>
      </trkpt>
      <trkpt lat="45.84912" lon="1.28257">
        <ele>300.551105</ele>
        <time>2022-07-31T18:56:53Z</time>
      </trkpt>
      <trkpt lat="45.84917" lon="1.28261">
        <ele>301.3248464</ele>
        <time>2022-07-31T18:56:55Z</time>
      </trkpt>
      <trkpt lat="45.84921" lon="1.28264">
        <ele>301.7031718</ele>
        <time>2022-07-31T18:56:57Z</time>
      </trkpt>
      <trkpt lat="45.84925" lon="1.28268">
        <ele>302.5147556</ele>
        <time>2022-07-31T18:56:59Z</time>
      </trkpt>
      <trkpt lat="45.84928" lon="1.28271">
        <ele>302.8861369</ele>
        <time>2022-07-31T18:57:01Z</time>
      </trkpt>
      <trkpt lat="45.84932" lon="1.28275">
        <ele>303.5174852</ele>
        <time>2022-07-31T18:57:03Z</time>
      </trkpt>
      <trkpt lat="45.84935" lon="1.28279">
        <ele>303.5330232</ele>
        <time>2022-07-31T18:57:05Z</time>
      </trkpt>
      <trkpt lat="45.84939" lon="1.28282">
        <ele>304.0988247</ele>
        <time>2022-07-31T18:57:07Z</time>
      </trkpt>
      <trkpt lat="45.84942" lon="1.28285">
        <ele>304.5337648</ele>
        <time>2022-07-31T18:57:09Z</time>
      </trkpt>
      <trkpt lat="45.84946" lon="1.28289">
        <ele>304.9522043</ele>
        <time>2022-07-31T18:57:11Z</time>
      </trkpt>
      <trkpt lat="45.84949" lon="1.28292">
        <ele>304.705864</ele>
        <time>2022-07-31T18:57:13Z</time>
      </trkpt>
      <trkpt lat="45.84953" lon="1.28296">
        <ele>305.0371399</ele>
        <time>2022-07-31T18:57:15Z</time>
      </trkpt>
      <trkpt lat="45.84956" lon="1.28301">
        <ele>305.5350078</ele>
        <time>2022-07-31T18:57:17Z</time>
      </trkpt>
      <trkpt lat="45.8496" lon="1.28304">
        <ele>305.6351402</ele>
        <time>2022-07-31T18:57:19Z</time>
      </trkpt>
      <trkpt lat="45.84964" lon="1.28307">
        <ele>305.6363606</ele>
        <time>2022-07-31T18:57:21Z</time>
      </trkpt>
      <trkpt lat="45.84969" lon="1.28311">
        <ele>305.9749575</ele>
        <time>2022-07-31T18:57:23Z</time>
      </trkpt>
      <trkpt lat="45.84972" lon="1.28314">
        <ele>306.6310973</ele>
        <time>2022-07-31T18:57:25Z</time>
      </trkpt>
      <trkpt lat="45.84976" lon="1.28319">
        <ele>306.6648701</ele>
        <time>2022-07-31T18:57:27Z</time>
      </trkpt>
      <trkpt lat="45.8498" lon="1.28323">
        <ele>306.9930507</ele>
        <time>2022-07-31T18:57:29Z</time>
      </trkpt>
      <trkpt lat="45.84985" lon="1.28326">
        <ele>306.8728454</ele>
        <time>2022-07-31T18:57:31Z</time>
      </trkpt>
      <trkpt lat="45.84989" lon="1.2833">
        <ele>307.3690232</ele>
        <time>2022-07-31T18:57:33Z</time>
      </trkpt>
      <trkpt lat="45.84993" lon="1.28334">
        <ele>307.4052413</ele>
        <time>2022-07-31T18:57:35Z</time>
      </trkpt>
      <trkpt lat="45.84997" lon="1.28338">
        <ele>307.7925712</ele>
        <time>2022-07-31T18:57:37Z</time>
      </trkpt>
      <trkpt lat="45.85001" lon="1.28341">
        <ele>308.0454295</ele>
        <time>2022-07-31T18:57:39Z</time>
      </trkpt>
      <trkpt lat="45.85004" lon="1.28345">
        <ele>308.2170831</ele>
        <time>2022-07-31T18:57:41Z</time>
      </trkpt>
      <trkpt lat="45.85009" lon="1.28348">
        <ele>308.3186469</ele>
        <time>2022-07-31T18:57:43Z</time>
      </trkpt>
      <trkpt lat="45.85013" lon="1.28352">
        <ele>308.254691</ele>
        <time>2022-07-31T18:57:45Z</time>
      </trkpt>
      <trkpt lat="45.85017" lon="1.28356">
        <ele>308.517675</ele>
        <time>2022-07-31T18:57:47Z</time>
      </trkpt>
      <trkpt lat="45.85021" lon="1.2836">
        <ele>308.6249704</ele>
        <time>2022-07-31T18:57:49Z</time>
      </trkpt>
      <trkpt lat="45.85026" lon="1.28363">
        <ele>308.4086946</ele>
        <time>2022-07-31T18:57:51Z</time>
      </trkpt>
      <trkpt lat="45.8503" lon="1.28368">
        <ele>308.3502943</ele>
        <time>2022-07-31T18:57:53Z</time>
      </trkpt>
      <trkpt lat="45.85035" lon="1.28372">
        <ele>308.15421</ele>
        <time>2022-07-31T18:57:55Z</time>
      </trkpt>
      <trkpt lat="45.8504" lon="1.28377">
        <ele>308.2380144</ele>
        <time>2022-07-31T18:57:57Z</time>
      </trkpt>
      <trkpt lat="45.85044" lon="1.28381">
        <ele>308.1077602</ele>
        <time>2022-07-31T18:57:59Z</time>
      </trkpt>
      <trkpt lat="45.85049" lon="1.28386">
        <ele>307.9456342</ele>
        <time>2022-07-31T18:58:01Z</time>
      </trkpt>
      <trkpt lat="45.85054" lon="1.2839">
        <ele>307.8780105</ele>
        <time>2022-07-31T18:58:03Z</time>
      </trkpt>
      <trkpt lat="45.85058" lon="1.28396">
        <ele>308.2730175</ele>
        <time>2022-07-31T18:58:05Z</time>
      </trkpt>
      <trkpt lat="45.85063" lon="1.28402">
        <ele>308.7114845</ele>
        <time>2022-07-31T18:58:07Z</time>
      </trkpt>
      <trkpt lat="45.85068" lon="1.28406">
        <ele>308.627703</ele>
        <time>2022-07-31T18:58:09Z</time>
      </trkpt>
      <trkpt lat="45.85073" lon="1.28411">
        <ele>308.5507345</ele>
        <time>2022-07-31T18:58:11Z</time>
      </trkpt>
      <trkpt lat="45.85079" lon="1.28415">
        <ele>308.5327389</ele>
        <time>2022-07-31T18:58:13Z</time>
      </trkpt>
      <trkpt lat="45.85084" lon="1.2842">
        <ele>308.1920937</ele>
        <time>2022-07-31T18:58:15Z</time>
      </trkpt>
      <trkpt lat="45.8509" lon="1.28425">
        <ele>308.2910747</ele>
        <time>2022-07-31T18:58:17Z</time>
      </trkpt>
      <trkpt lat="45.85095" lon="1.2843">
        <ele>308.3033613</ele>
        <time>2022-07-31T18:58:19Z</time>
      </trkpt>
      <trkpt lat="45.85101" lon="1.28435">
        <ele>308.0150633</ele>
        <time>2022-07-31T18:58:21Z</time>
      </trkpt>
      <trkpt lat="45.85106" lon="1.28441">
        <ele>307.8893196</ele>
        <time>2022-07-31T18:58:23Z</time>
      </trkpt>
      <trkpt lat="45.85111" lon="1.28446">
        <ele>307.8194513</ele>
        <time>2022-07-31T18:58:25Z</time>
      </trkpt>
      <trkpt lat="45.85117" lon="1.28451">
        <ele>307.8467695</ele>
        <time>2022-07-31T18:58:27Z</time>
      </trkpt>
      <trkpt lat="45.85122" lon="1.28456">
        <ele>308.027338</ele>
        <time>2022-07-31T18:58:29Z</time>
      </trkpt>
      <trkpt lat="45.85127" lon="1.28461">
        <ele>308.4865434</ele>
        <time>2022-07-31T18:58:31Z</time>
      </trkpt>
      <trkpt lat="45.85131" lon="1.28466">
        <ele>309.1159508</ele>
        <time>2022-07-31T18:58:33Z</time>
      </trkpt>
      <trkpt lat="45.85135" lon="1.28471">
        <ele>308.4066215</ele>
        <time>2022-07-31T18:58:35Z</time>
      </trkpt>
      <trkpt lat="45.85138" lon="1.28476">
        <ele>307.9739116</ele>
        <time>2022-07-31T18:58:37Z</time>
      </trkpt>
      <trkpt lat="45.85141" lon="1.28481">
        <ele>307.2797065</ele>
        <time>2022-07-31T18:58:39Z</time>
      </trkpt>
      <trkpt lat="45.85145" lon="1.28485">
        <ele>307.4288907</ele>
        <time>2022-07-31T18:58:41Z</time>
      </trkpt>
      <trkpt lat="45.8515" lon="1.28491">
        <ele>307.042403</ele>
        <time>2022-07-31T18:58:43Z</time>
      </trkpt>
      <trkpt lat="45.85155" lon="1.28496">
        <ele>307.0737081</ele>
        <time>2022-07-31T18:58:45Z</time>
      </trkpt>
      <trkpt lat="45.85159" lon="1.28501">
        <ele>307.0447317</ele>
        <time>2022-07-31T18:58:47Z</time>
      </trkpt>
      <trkpt lat="45.85163" lon="1.28504">
        <ele>307.1096818</ele>
        <time>2022-07-31T18:58:49Z</time>
      </trkpt>
      <trkpt lat="45.85166" lon="1.28503">
        <ele>306.7143347</ele>
        <time>2022-07-31T18:58:51Z</time>
      </trkpt>
      <trkpt lat="45.8517" lon="1.28508">
        <ele>306.0350847</ele>
        <time>2022-07-31T18:58:53Z</time>
      </trkpt>
      <trkpt lat="45.85175" lon="1.28515">
        <ele>306.7173393</ele>
        <time>2022-07-31T18:58:55Z</time>
      </trkpt>
      <trkpt lat="45.85181" lon="1.28522">
        <ele>306.4350911</ele>
        <time>2022-07-31T18:58:57Z</time>
      </trkpt>
      <trkpt lat="45.85188" lon="1.28529">
        <ele>305.9564533</ele>
        <time>2022-07-31T18:58:59Z</time>
      </trkpt>
      <trkpt lat="45.85195" lon="1.28537">
        <ele>305.7419147</ele>
        <time>2022-07-31T18:59:01Z</time>
      </trkpt>
      <trkpt lat="45.85203" lon="1.28545">
        <ele>305.2785304</ele>
        <time>2022-07-31T18:59:03Z</time>
      </trkpt>
      <trkpt lat="45.8521" lon="1.28553">
        <ele>305.4757998</ele>
        <time>2022-07-31T18:59:05Z</time>
      </trkpt>
      <trkpt lat="45.85218" lon="1.28561">
        <ele>305.0313134</ele>
        <time>2022-07-31T18:59:07Z</time>
      </trkpt>
      <trkpt lat="45.85225" lon="1.28568">
        <ele>304.682355</ele>
        <time>2022-07-31T18:59:09Z</time>
      </trkpt>
      <trkpt lat="45.85233" lon="1.28575">
        <ele>305.1653454</ele>
        <time>2022-07-31T18:59:11Z</time>
      </trkpt>
      <trkpt lat="45.85239" lon="1.28582">
        <ele>305.5328014</ele>
        <time>2022-07-31T18:59:13Z</time>
      </trkpt>
      <trkpt lat="45.85245" lon="1.28589">
        <ele>305.3736708</ele>
        <time>2022-07-31T18:59:15Z</time>
      </trkpt>
      <trkpt lat="45.85251" lon="1.28595">
        <ele>305.6973244</ele>
        <time>2022-07-31T18:59:17Z</time>
      </trkpt>
      <trkpt lat="45.85257" lon="1.28602">
        <ele>306.2600261</ele>
        <time>2022-07-31T18:59:19Z</time>
      </trkpt>
      <trkpt lat="45.85262" lon="1.2861">
        <ele>306.413216</ele>
        <time>2022-07-31T18:59:21Z</time>
      </trkpt>
      <trkpt lat="45.85268" lon="1.28617">
        <ele>306.1466534</ele>
        <time>2022-07-31T18:59:23Z</time>
      </trkpt>
      <trkpt lat="45.85274" lon="1.28624">
        <ele>306.1609652</ele>
        <time>2022-07-31T18:59:25Z</time>
      </trkpt>
      <trkpt lat="45.8528" lon="1.28631">
        <ele>306.3721449</ele>
        <time>2022-07-31T18:59:27Z</time>
      </trkpt>
      <trkpt lat="45.85286" lon="1.28636">
        <ele>306.5616407</ele>
        <time>2022-07-31T18:59:29Z</time>
      </trkpt>
      <trkpt lat="45.85292" lon="1.28643">
        <ele>306.7757456</ele>
        <time>2022-07-31T18:59:31Z</time>
      </trkpt>
      <trkpt lat="45.85298" lon="1.28649">
        <ele>306.7952543</ele>
        <time>2022-07-31T18:59:33Z</time>
      </trkpt>
      <trkpt lat="45.85303" lon="1.28656">
        <ele>307.1766555</ele>
        <time>2022-07-31T18:59:35Z</time>
      </trkpt>
      <trkpt lat="45.85309" lon="1.28662">
        <ele>307.3325702</ele>
        <time>2022-07-31T18:59:37Z</time>
      </trkpt>
      <trkpt lat="45.85315" lon="1.28667">
        <ele>307.5180795</ele>
        <time>2022-07-31T18:59:39Z</time>
      </trkpt>
      <trkpt lat="45.85321" lon="1.28674">
        <ele>307.8686787</ele>
        <time>2022-07-31T18:59:41Z</time>
      </trkpt>
      <trkpt lat="45.85327" lon="1.2868">
        <ele>308.1511588</ele>
        <time>2022-07-31T18:59:43Z</time>
      </trkpt>
      <trkpt lat="45.85333" lon="1.28685">
        <ele>308.2120855</ele>
        <time>2022-07-31T18:59:45Z</time>
      </trkpt>
      <trkpt lat="45.85339" lon="1.28692">
        <ele>308.0814492</ele>
        <time>2022-07-31T18:59:47Z</time>
      </trkpt>
      <trkpt lat="45.85344" lon="1.287">
        <ele>307.8849226</ele>
        <time>2022-07-31T18:59:49Z</time>
      </trkpt>
      <trkpt lat="45.8535" lon="1.28707">
        <ele>307.5217462</ele>
        <time>2022-07-31T18:59:51Z</time>
      </trkpt>
      <trkpt lat="45.85356" lon="1.28713">
        <ele>307.5059806</ele>
        <time>2022-07-31T18:59:53Z</time>
      </trkpt>
      <trkpt lat="45.85363" lon="1.28718">
        <ele>307.2403961</ele>
        <time>2022-07-31T18:59:55Z</time>
      </trkpt>
      <trkpt lat="45.85368" lon="1.28723">
        <ele>307.2176042</ele>
        <time>2022-07-31T18:59:57Z</time>
      </trkpt>
      <trkpt lat="45.85373" lon="1.2873">
        <ele>307.6036966</ele>
        <time>2022-07-31T18:59:59Z</time>
      </trkpt>
      <trkpt lat="45.85378" lon="1.28735">
        <ele>307.717142</ele>
        <time>2022-07-31T19:00:01Z</time>
      </trkpt>
      <trkpt lat="45.85383" lon="1.28741">
        <ele>307.9693645</ele>
        <time>2022-07-31T19:00:03Z</time>
      </trkpt>
      <trkpt lat="45.85388" lon="1.28747">
        <ele>308.358274</ele>
        <time>2022-07-31T19:00:05Z</time>
      </trkpt>
      <trkpt lat="45.85393" lon="1.28753">
        <ele>308.6002031</ele>
        <time>2022-07-31T19:00:07Z</time>
      </trkpt>
      <trkpt lat="45.85398" lon="1.28759">
        <ele>308.5536069</ele>
        <time>2022-07-31T19:00:09Z</time>
      </trkpt>
      <trkpt lat="45.85403" lon="1.28763">
        <ele>309.0039689</ele>
        <time>2022-07-31T19:00:11Z</time>
      </trkpt>
      <trkpt lat="45.85408" lon="1.28769">
        <ele>309.1794676</ele>
        <time>2022-07-31T19:00:13Z</time>
      </trkpt>
      <trkpt lat="45.85413" lon="1.28774">
        <ele>309.5952125</ele>
        <time>2022-07-31T19:00:15Z</time>
      </trkpt>
      <trkpt lat="45.85418" lon="1.2878">
        <ele>309.6882553</ele>
        <time>2022-07-31T19:00:17Z</time>
      </trkpt>
      <trkpt lat="45.85423" lon="1.28785">
        <ele>309.9483311</ele>
        <time>2022-07-31T19:00:19Z</time>
      </trkpt>
      <trkpt lat="45.85428" lon="1.2879">
        <ele>309.8834628</ele>
        <time>2022-07-31T19:00:21Z</time>
      </trkpt>
      <trkpt lat="45.85433" lon="1.28794">
        <ele>310.1660852</ele>
        <time>2022-07-31T19:00:23Z</time>
      </trkpt>
      <trkpt lat="45.85439" lon="1.28797">
        <ele>310.722538</ele>
        <time>2022-07-31T19:00:25Z</time>
      </trkpt>
      <trkpt lat="45.85445" lon="1.288">
        <ele>311.5076775</ele>
        <time>2022-07-31T19:00:27Z</time>
      </trkpt>
      <trkpt lat="45.85449" lon="1.28803">
        <ele>311.8813689</ele>
        <time>2022-07-31T19:00:29Z</time>
      </trkpt>
      <trkpt lat="45.85454" lon="1.28806">
        <ele>312.7433375</ele>
        <time>2022-07-31T19:00:31Z</time>
      </trkpt>
      <trkpt lat="45.85459" lon="1.28809">
        <ele>312.7016042</ele>
        <time>2022-07-31T19:00:33Z</time>
      </trkpt>
      <trkpt lat="45.85465" lon="1.28812">
        <ele>312.7414552</ele>
        <time>2022-07-31T19:00:35Z</time>
      </trkpt>
      <trkpt lat="45.8547" lon="1.28814">
        <ele>313.2928108</ele>
        <time>2022-07-31T19:00:37Z</time>
      </trkpt>
      <trkpt lat="45.85475" lon="1.28817">
        <ele>313.9739878</ele>
        <time>2022-07-31T19:00:39Z</time>
      </trkpt>
      <trkpt lat="45.8548" lon="1.28819">
        <ele>314.1839083</ele>
        <time>2022-07-31T19:00:41Z</time>
      </trkpt>
      <trkpt lat="45.85485" lon="1.28822">
        <ele>314.2700355</ele>
        <time>2022-07-31T19:00:43Z</time>
      </trkpt>
      <trkpt lat="45.85489" lon="1.28826">
        <ele>314.2665436</ele>
        <time>2022-07-31T19:00:45Z</time>
      </trkpt>
      <trkpt lat="45.85494" lon="1.28829">
        <ele>314.15612</ele>
        <time>2022-07-31T19:00:47Z</time>
      </trkpt>
      <trkpt lat="45.85499" lon="1.28832">
        <ele>314.0993693</ele>
        <time>2022-07-31T19:00:49Z</time>
      </trkpt>
      <trkpt lat="45.85503" lon="1.28837">
        <ele>313.4532721</ele>
        <time>2022-07-31T19:00:51Z</time>
      </trkpt>
      <trkpt lat="45.85506" lon="1.28845">
        <ele>313.7395016</ele>
        <time>2022-07-31T19:00:53Z</time>
      </trkpt>
      <trkpt lat="45.85508" lon="1.28854">
        <ele>313.8579312</ele>
        <time>2022-07-31T19:00:55Z</time>
      </trkpt>
      <trkpt lat="45.85512" lon="1.28862">
        <ele>314.044311</ele>
        <time>2022-07-31T19:00:57Z</time>
      </trkpt>
      <trkpt lat="45.85518" lon="1.28869">
        <ele>314.0377632</ele>
        <time>2022-07-31T19:00:59Z</time>
      </trkpt>
      <trkpt lat="45.85525" lon="1.28874">
        <ele>314.1990483</ele>
        <time>2022-07-31T19:01:01Z</time>
      </trkpt>
      <trkpt lat="45.85532" lon="1.28876">
        <ele>314.420114</ele>
        <time>2022-07-31T19:01:03Z</time>
      </trkpt>
      <trkpt lat="45.8554" lon="1.28874">
        <ele>314.0355109</ele>
        <time>2022-07-31T19:01:05Z</time>
      </trkpt>
      <trkpt lat="45.85547" lon="1.28868">
        <ele>314.395797</ele>
        <time>2022-07-31T19:01:07Z</time>
      </trkpt>
      <trkpt lat="45.85552" lon="1.28861">
        <ele>314.630276</ele>
        <time>2022-07-31T19:01:09Z</time>
      </trkpt>
      <trkpt lat="45.85556" lon="1.28852">
        <ele>314.7061496</ele>
        <time>2022-07-31T19:01:11Z</time>
      </trkpt>
      <trkpt lat="45.85558" lon="1.28842">
        <ele>314.8117149</ele>
        <time>2022-07-31T19:01:13Z</time>
      </trkpt>
      <trkpt lat="45.85558" lon="1.28832">
        <ele>314.5841727</ele>
        <time>2022-07-31T19:01:15Z</time>
      </trkpt>
      <trkpt lat="45.85559" lon="1.28821">
        <ele>314.4541905</ele>
        <time>2022-07-31T19:01:17Z</time>
      </trkpt>
      <trkpt lat="45.85562" lon="1.28811">
        <ele>314.585154</ele>
        <time>2022-07-31T19:01:19Z</time>
      </trkpt>
      <trkpt lat="45.85567" lon="1.28803">
        <ele>315.2667118</ele>
        <time>2022-07-31T19:01:21Z</time>
      </trkpt>
      <trkpt lat="45.85574" lon="1.28797">
        <ele>315.5871258</ele>
        <time>2022-07-31T19:01:23Z</time>
      </trkpt>
      <trkpt lat="45.85579" lon="1.28791">
        <ele>316.0944784</ele>
        <time>2022-07-31T19:01:25Z</time>
      </trkpt>
      <trkpt lat="45.85584" lon="1.28785">
        <ele>316.0846011</ele>
        <time>2022-07-31T19:01:27Z</time>
      </trkpt>
      <trkpt lat="45.8559" lon="1.2878">
        <ele>316.9526224</ele>
        <time>2022-07-31T19:01:29Z</time>
      </trkpt>
      <trkpt lat="45.85595" lon="1.28775">
        <ele>317.5567617</ele>
        <time>2022-07-31T19:01:31Z</time>
      </trkpt>
      <trkpt lat="45.856" lon="1.2877">
        <ele>317.9715117</ele>
        <time>2022-07-31T19:01:33Z</time>
      </trkpt>
      <trkpt lat="45.85605" lon="1.28765">
        <ele>318.4366882</ele>
        <time>2022-07-31T19:01:35Z</time>
      </trkpt>
      <trkpt lat="45.8561" lon="1.2876">
        <ele>318.9940785</ele>
        <time>2022-07-31T19:01:37Z</time>
      </trkpt>
      <trkpt lat="45.85615" lon="1.28755">
        <ele>319.7022994</ele>
        <time>2022-07-31T19:01:39Z</time>
      </trkpt>
      <trkpt lat="45.85619" lon="1.2875">
        <ele>319.9447512</ele>
        <time>2022-07-31T19:01:41Z</time>
      </trkpt>
      <trkpt lat="45.85624" lon="1.28745">
        <ele>320.5144161</ele>
        <time>2022-07-31T19:01:43Z</time>
      </trkpt>
      <trkpt lat="45.85628" lon="1.2874">
        <ele>321.0423863</ele>
        <time>2022-07-31T19:01:45Z</time>
      </trkpt>
      <trkpt lat="45.85633" lon="1.28736">
        <ele>321.4147149</ele>
        <time>2022-07-31T19:01:47Z</time>
      </trkpt>
      <trkpt lat="45.85638" lon="1.28732">
        <ele>321.8479465</ele>
        <time>2022-07-31T19:01:49Z</time>
      </trkpt>
      <trkpt lat="45.85642" lon="1.28727">
        <ele>322.1273277</ele>
        <time>2022-07-31T19:01:51Z</time>
      </trkpt>
      <trkpt lat="45.85647" lon="1.28723">
        <ele>322.7268895</ele>
        <time>2022-07-31T19:01:53Z</time>
      </trkpt>
      <trkpt lat="45.8565" lon="1.28717">
        <ele>323.5997714</ele>
        <time>2022-07-31T19:01:55Z</time>
      </trkpt>
      <trkpt lat="45.85655" lon="1.28713">
        <ele>324.249062</ele>
        <time>2022-07-31T19:01:57Z</time>
      </trkpt>
      <trkpt lat="45.85659" lon="1.28709">
        <ele>324.9688461</ele>
        <time>2022-07-31T19:01:59Z</time>
      </trkpt>
      <trkpt lat="45.85663" lon="1.28705">
        <ele>325.6751443</ele>
        <time>2022-07-31T19:02:01Z</time>
      </trkpt>
      <trkpt lat="45.85666" lon="1.287">
        <ele>325.9885017</ele>
        <time>2022-07-31T19:02:03Z</time>
      </trkpt>
      <trkpt lat="45.8567" lon="1.28696">
        <ele>326.0908617</ele>
        <time>2022-07-31T19:02:05Z</time>
      </trkpt>
      <trkpt lat="45.85674" lon="1.28692">
        <ele>326.6141315</ele>
        <time>2022-07-31T19:02:07Z</time>
      </trkpt>
      <trkpt lat="45.85678" lon="1.28688">
        <ele>327.0844851</ele>
        <time>2022-07-31T19:02:09Z</time>
      </trkpt>
      <trkpt lat="45.85682" lon="1.28684">
        <ele>327.3377994</ele>
        <time>2022-07-31T19:02:11Z</time>
      </trkpt>
      <trkpt lat="45.85686" lon="1.28681">
        <ele>327.5638183</ele>
        <time>2022-07-31T19:02:13Z</time>
      </trkpt>
      <trkpt lat="45.85689" lon="1.28676">
        <ele>328.016047</ele>
        <time>2022-07-31T19:02:15Z</time>
      </trkpt>
      <trkpt lat="45.85693" lon="1.28673">
        <ele>327.8777139</ele>
        <time>2022-07-31T19:02:17Z</time>
      </trkpt>
      <trkpt lat="45.85697" lon="1.28669">
        <ele>327.6791494</ele>
        <time>2022-07-31T19:02:19Z</time>
      </trkpt>
      <trkpt lat="45.857" lon="1.28665">
        <ele>327.6269133</ele>
        <time>2022-07-31T19:02:21Z</time>
      </trkpt>
      <trkpt lat="45.85702" lon="1.28661">
        <ele>327.8139023</ele>
        <time>2022-07-31T19:02:23Z</time>
      </trkpt>
      <trkpt lat="45.85705" lon="1.28657">
        <ele>328.0689843</ele>
        <time>2022-07-31T19:02:25Z</time>
      </trkpt>
      <trkpt lat="45.85708" lon="1.28653">
        <ele>328.221104</ele>
        <time>2022-07-31T19:02:27Z</time>
      </trkpt>
      <trkpt lat="45.85711" lon="1.28649">
        <ele>328.4788421</ele>
        <time>2022-07-31T19:02:29Z</time>
      </trkpt>
      <trkpt lat="45.85713" lon="1.28645">
        <ele>328.9019231</ele>
        <time>2022-07-31T19:02:31Z</time>
      </trkpt>
      <trkpt lat="45.85716" lon="1.28641">
        <ele>329.0435022</ele>
        <time>2022-07-31T19:02:33Z</time>
      </trkpt>
      <trkpt lat="45.8572" lon="1.28637">
        <ele>329.3370254</ele>
        <time>2022-07-31T19:02:35Z</time>
      </trkpt>
      <trkpt lat="45.85722" lon="1.28633">
        <ele>329.6384322</ele>
        <time>2022-07-31T19:02:37Z</time>
      </trkpt>
      <trkpt lat="45.85725" lon="1.28628">
        <ele>330.3780365</ele>
        <time>2022-07-31T19:02:39Z</time>
      </trkpt>
      <trkpt lat="45.85728" lon="1.28624">
        <ele>330.7918425</ele>
        <time>2022-07-31T19:02:41Z</time>
      </trkpt>
      <trkpt lat="45.85732" lon="1.28621">
        <ele>331.1455695</ele>
        <time>2022-07-31T19:02:43Z</time>
      </trkpt>
      <trkpt lat="45.85735" lon="1.28617">
        <ele>331.5753997</ele>
        <time>2022-07-31T19:02:45Z</time>
      </trkpt>
      <trkpt lat="45.85738" lon="1.28614">
        <ele>331.7236386</ele>
        <time>2022-07-31T19:02:47Z</time>
      </trkpt>
      <trkpt lat="45.85741" lon="1.28611">
        <ele>332.0453598</ele>
        <time>2022-07-31T19:02:49Z</time>
      </trkpt>
      <trkpt lat="45.85744" lon="1.28607">
        <ele>332.5062174</ele>
        <time>2022-07-31T19:02:51Z</time>
      </trkpt>
      <trkpt lat="45.85748" lon="1.28604">
        <ele>332.8924629</ele>
        <time>2022-07-31T19:02:53Z</time>
      </trkpt>
      <trkpt lat="45.85751" lon="1.286">
        <ele>333.0723655</ele>
        <time>2022-07-31T19:02:55Z</time>
      </trkpt>
      <trkpt lat="45.85754" lon="1.28597">
        <ele>333.3800951</ele>
        <time>2022-07-31T19:02:57Z</time>
      </trkpt>
      <trkpt lat="45.85758" lon="1.28593">
        <ele>333.1613503</ele>
        <time>2022-07-31T19:02:59Z</time>
      </trkpt>
      <trkpt lat="45.85761" lon="1.28589">
        <ele>333.1932522</ele>
        <time>2022-07-31T19:03:01Z</time>
      </trkpt>
      <trkpt lat="45.85765" lon="1.28585">
        <ele>333.0775491</ele>
        <time>2022-07-31T19:03:03Z</time>
      </trkpt>
      <trkpt lat="45.85768" lon="1.28582">
        <ele>333.4775964</ele>
        <time>2022-07-31T19:03:05Z</time>
      </trkpt>
      <trkpt lat="45.85772" lon="1.2858">
        <ele>333.4406367</ele>
        <time>2022-07-31T19:03:07Z</time>
      </trkpt>
      <trkpt lat="45.85775" lon="1.28577">
        <ele>333.3111363</ele>
        <time>2022-07-31T19:03:09Z</time>
      </trkpt>
      <trkpt lat="45.85778" lon="1.28574">
        <ele>333.6391488</ele>
        <time>2022-07-31T19:03:11Z</time>
      </trkpt>
      <trkpt lat="45.8578" lon="1.28571">
        <ele>333.8140156</ele>
        <time>2022-07-31T19:03:13Z</time>
      </trkpt>
      <trkpt lat="45.85782" lon="1.28571">
        <ele>333.6041532</ele>
        <time>2022-07-31T19:03:15Z</time>
      </trkpt>
      <trkpt lat="45.85782" lon="1.28571">
        <ele>333.3711552</ele>
        <time>2022-07-31T19:03:17Z</time>
      </trkpt>
      <trkpt lat="45.85782" lon="1.28571">
        <ele>333.3138677</ele>
        <time>2022-07-31T19:03:19Z</time>
      </trkpt>
      <trkpt lat="45.85782" lon="1.28571">
        <ele>333.3888271</ele>
        <time>2022-07-31T19:03:21Z</time>
      </trkpt>
      <trkpt lat="45.85782" lon="1.28571">
        <ele>332.8742171</ele>
        <time>2022-07-31T19:03:23Z</time>
      </trkpt>
      <trkpt lat="45.85782" lon="1.28571">
        <ele>332.3203528</ele>
        <time>2022-07-31T19:03:25Z</time>
      </trkpt>
      <trkpt lat="45.85783" lon="1.28572">
        <ele>332.1428066</ele>
        <time>2022-07-31T19:03:27Z</time>
      </trkpt>
      <trkpt lat="45.85783" lon="1.28572">
        <ele>331.345006</ele>
        <time>2022-07-31T19:03:29Z</time>
      </trkpt>
      <trkpt lat="45.85783" lon="1.28572">
        <ele>330.9568072</ele>
        <time>2022-07-31T19:03:31Z</time>
      </trkpt>
      <trkpt lat="45.85783" lon="1.28572">
        <ele>330.6454235</ele>
        <time>2022-07-31T19:03:33Z</time>
      </trkpt>
      <trkpt lat="45.85783" lon="1.28571">
        <ele>330.6506684</ele>
        <time>2022-07-31T19:03:35Z</time>
      </trkpt>
      <trkpt lat="45.85783" lon="1.28571">
        <ele>330.7578886</ele>
        <time>2022-07-31T19:03:37Z</time>
      </trkpt>
      <trkpt lat="45.85783" lon="1.28571">
        <ele>330.7453878</ele>
        <time>2022-07-31T19:03:39Z</time>
      </trkpt>
      <trkpt lat="45.85783" lon="1.28571">
        <ele>330.7357039</ele>
        <time>2022-07-31T19:03:41Z</time>
      </trkpt>
      <trkpt lat="45.85783" lon="1.28571">
        <ele>330.7820855</ele>
        <time>2022-07-31T19:03:43Z</time>
      </trkpt>
      <trkpt lat="45.85783" lon="1.28571">
        <ele>331.0008005</ele>
        <time>2022-07-31T19:03:45Z</time>
      </trkpt>
      <trkpt lat="45.85783" lon="1.28571">
        <ele>331.1681979</ele>
        <time>2022-07-31T19:03:47Z</time>
      </trkpt>
      <trkpt lat="45.85783" lon="1.28571">
        <ele>331.037953</ele>
        <time>2022-07-31T19:03:49Z</time>
      </trkpt>
      <trkpt lat="45.85783" lon="1.28571">
        <ele>330.9899815</ele>
        <time>2022-07-31T19:03:51Z</time>
      </trkpt>
      <trkpt lat="45.85784" lon="1.28571">
        <ele>330.8322436</ele>
        <time>2022-07-31T19:03:53Z</time>
      </trkpt>
      <trkpt lat="45.85784" lon="1.28571">
        <ele>330.3130923</ele>
        <time>2022-07-31T19:03:55Z</time>
      </trkpt>
      <trkpt lat="45.85784" lon="1.28571">
        <ele>330.7517316</ele>
        <time>2022-07-31T19:03:57Z</time>
      </trkpt>
      <trkpt lat="45.85783" lon="1.28571">
        <ele>330.9681451</ele>
        <time>2022-07-31T19:03:59Z</time>
      </trkpt>
      <trkpt lat="45.85783" lon="1.28571">
        <ele>330.9528171</ele>
        <time>2022-07-31T19:04:01Z</time>
      </trkpt>
      <trkpt lat="45.85783" lon="1.28571">
        <ele>331.081516</ele>
        <time>2022-07-31T19:04:03Z</time>
      </trkpt>
      <trkpt lat="45.85783" lon="1.28571">
        <ele>331.6694399</ele>
        <time>2022-07-31T19:04:05Z</time>
      </trkpt>
      <trkpt lat="45.85783" lon="1.28571">
        <ele>332.3562189</ele>
        <time>2022-07-31T19:04:07Z</time>
      </trkpt>
      <trkpt lat="45.85783" lon="1.28571">
        <ele>332.256666</ele>
        <time>2022-07-31T19:04:09Z</time>
      </trkpt>
      <trkpt lat="45.85783" lon="1.28571">
        <ele>331.837055</ele>
        <time>2022-07-31T19:04:11Z</time>
      </trkpt>
      <trkpt lat="45.85783" lon="1.28571">
        <ele>331.5817774</ele>
        <time>2022-07-31T19:04:13Z</time>
      </trkpt>
      <trkpt lat="45.85783" lon="1.2857">
        <ele>331.0702129</ele>
        <time>2022-07-31T19:04:15Z</time>
      </trkpt>
      <trkpt lat="45.85783" lon="1.2857">
        <ele>331.1705056</ele>
        <time>2022-07-31T19:04:17Z</time>
      </trkpt>
      <trkpt lat="45.85784" lon="1.2857">
        <ele>331.3448579</ele>
        <time>2022-07-31T19:04:19Z</time>
      </trkpt>
      <trkpt lat="45.85783" lon="1.2857">
        <ele>331.5721851</ele>
        <time>2022-07-31T19:04:21Z</time>
      </trkpt>
      <trkpt lat="45.85783" lon="1.2857">
        <ele>331.9122368</ele>
        <time>2022-07-31T19:04:23Z</time>
      </trkpt>
      <trkpt lat="45.85783" lon="1.2857">
        <ele>332.2270006</ele>
        <time>2022-07-31T19:04:25Z</time>
      </trkpt>
      <trkpt lat="45.85783" lon="1.2857">
        <ele>332.8302141</ele>
        <time>2022-07-31T19:04:27Z</time>
      </trkpt>
      <trkpt lat="45.85783" lon="1.2857">
        <ele>333.1906138</ele>
        <time>2022-07-31T19:04:29Z</time>
      </trkpt>
      <trkpt lat="45.85783" lon="1.2857">
        <ele>333.3310492</ele>
        <time>2022-07-31T19:04:31Z</time>
      </trkpt>
      <trkpt lat="45.85783" lon="1.2857">
        <ele>333.5871492</ele>
        <time>2022-07-31T19:04:33Z</time>
      </trkpt>
      <trkpt lat="45.85783" lon="1.2857">
        <ele>334.4271557</ele>
        <time>2022-07-31T19:04:35Z</time>
      </trkpt>
      <trkpt lat="45.85785" lon="1.28569">
        <ele>334.6162615</ele>
        <time>2022-07-31T19:04:37Z</time>
      </trkpt>
      <trkpt lat="45.8579" lon="1.28573">
        <ele>334.531986</ele>
        <time>2022-07-31T19:04:39Z</time>
      </trkpt>
      <trkpt lat="45.85794" lon="1.28578">
        <ele>334.6206774</ele>
        <time>2022-07-31T19:04:41Z</time>
      </trkpt>
      <trkpt lat="45.85799" lon="1.28583">
        <ele>334.685351</ele>
        <time>2022-07-31T19:04:43Z</time>
      </trkpt>
      <trkpt lat="45.85804" lon="1.28587">
        <ele>334.525686</ele>
        <time>2022-07-31T19:04:45Z</time>
      </trkpt>
      <trkpt lat="45.85809" lon="1.28591">
        <ele>334.2408841</ele>
        <time>2022-07-31T19:04:47Z</time>
      </trkpt>
      <trkpt lat="45.85815" lon="1.28595">
        <ele>333.8363694</ele>
        <time>2022-07-31T19:04:49Z</time>
      </trkpt>
      <trkpt lat="45.8582" lon="1.28602">
        <ele>333.5492103</ele>
        <time>2022-07-31T19:04:51Z</time>
      </trkpt>
      <trkpt lat="45.85827" lon="1.28606">
        <ele>333.8408245</ele>
        <time>2022-07-31T19:04:53Z</time>
      </trkpt>
      <trkpt lat="45.85833" lon="1.28611">
        <ele>333.8733942</ele>
        <time>2022-07-31T19:04:55Z</time>
      </trkpt>
      <trkpt lat="45.85839" lon="1.28615">
        <ele>333.9899157</ele>
        <time>2022-07-31T19:04:57Z</time>
      </trkpt>
      <trkpt lat="45.85845" lon="1.2862">
        <ele>334.1770549</ele>
        <time>2022-07-31T19:04:59Z</time>
      </trkpt>
      <trkpt lat="45.85851" lon="1.28625">
        <ele>334.0459312</ele>
        <time>2022-07-31T19:05:01Z</time>
      </trkpt>
      <trkpt lat="45.85857" lon="1.2863">
        <ele>333.9687363</ele>
        <time>2022-07-31T19:05:03Z</time>
      </trkpt>
      <trkpt lat="45.85863" lon="1.28634">
        <ele>334.1828454</ele>
        <time>2022-07-31T19:05:05Z</time>
      </trkpt>
      <trkpt lat="45.85869" lon="1.28639">
        <ele>333.963702</ele>
        <time>2022-07-31T19:05:07Z</time>
      </trkpt>
      <trkpt lat="45.85876" lon="1.28644">
        <ele>334.4117351</ele>
        <time>2022-07-31T19:05:09Z</time>
      </trkpt>
      <trkpt lat="45.85882" lon="1.28649">
        <ele>334.1811935</ele>
        <time>2022-07-31T19:05:11Z</time>
      </trkpt>
      <trkpt lat="45.85889" lon="1.28653">
        <ele>334.5908227</ele>
        <time>2022-07-31T19:05:13Z</time>
      </trkpt>
      <trkpt lat="45.85896" lon="1.28658">
        <ele>334.6985588</ele>
        <time>2022-07-31T19:05:15Z</time>
      </trkpt>
      <trkpt lat="45.85903" lon="1.28663">
        <ele>334.4179893</ele>
        <time>2022-07-31T19:05:17Z</time>
      </trkpt>
      <trkpt lat="45.85909" lon="1.28667">
        <ele>334.2678018</ele>
        <time>2022-07-31T19:05:19Z</time>
      </trkpt>
      <trkpt lat="45.85916" lon="1.28671">
        <ele>334.2541463</ele>
        <time>2022-07-31T19:05:21Z</time>
      </trkpt>
      <trkpt lat="45.85923" lon="1.28675">
        <ele>334.1440395</ele>
        <time>2022-07-31T19:05:23Z</time>
      </trkpt>
      <trkpt lat="45.85929" lon="1.28679">
        <ele>334.3748261</ele>
        <time>2022-07-31T19:05:25Z</time>
      </trkpt>
      <trkpt lat="45.85935" lon="1.28682">
        <ele>334.5110823</ele>
        <time>2022-07-31T19:05:27Z</time>
      </trkpt>
      <trkpt lat="45.85941" lon="1.28687">
        <ele>334.552172</ele>
        <time>2022-07-31T19:05:29Z</time>
      </trkpt>
      <trkpt lat="45.85947" lon="1.28691">
        <ele>334.9931265</ele>
        <time>2022-07-31T19:05:31Z</time>
      </trkpt>
      <trkpt lat="45.85953" lon="1.28695">
        <ele>334.9398006</ele>
        <time>2022-07-31T19:05:33Z</time>
      </trkpt>
      <trkpt lat="45.85958" lon="1.28701">
        <ele>335.1993757</ele>
        <time>2022-07-31T19:05:35Z</time>
      </trkpt>
      <trkpt lat="45.85963" lon="1.28706">
        <ele>335.7031672</ele>
        <time>2022-07-31T19:05:37Z</time>
      </trkpt>
      <trkpt lat="45.85968" lon="1.28711">
        <ele>334.9838339</ele>
        <time>2022-07-31T19:05:39Z</time>
      </trkpt>
      <trkpt lat="45.85973" lon="1.28713">
        <ele>335.2891579</ele>
        <time>2022-07-31T19:05:41Z</time>
      </trkpt>
      <trkpt lat="45.85977" lon="1.28718">
        <ele>334.8959862</ele>
        <time>2022-07-31T19:05:43Z</time>
      </trkpt>
      <trkpt lat="45.85979" lon="1.28726">
        <ele>334.6688755</ele>
        <time>2022-07-31T19:05:45Z</time>
      </trkpt>
      <trkpt lat="45.85981" lon="1.28734">
        <ele>334.2438804</ele>
        <time>2022-07-31T19:05:47Z</time>
      </trkpt>
      <trkpt lat="45.85981" lon="1.28741">
        <ele>334.5015474</ele>
        <time>2022-07-31T19:05:49Z</time>
      </trkpt>
      <trkpt lat="45.85982" lon="1.28748">
        <ele>334.8149976</ele>
        <time>2022-07-31T19:05:51Z</time>
      </trkpt>
      <trkpt lat="45.85984" lon="1.28754">
        <ele>335.0503456</ele>
        <time>2022-07-31T19:05:53Z</time>
      </trkpt>
      <trkpt lat="45.85988" lon="1.28758">
        <ele>334.1901298</ele>
        <time>2022-07-31T19:05:55Z</time>
      </trkpt>
      <trkpt lat="45.85992" lon="1.28762">
        <ele>333.9840423</ele>
        <time>2022-07-31T19:05:57Z</time>
      </trkpt>
      <trkpt lat="45.85998" lon="1.28768">
        <ele>334.3849555</ele>
        <time>2022-07-31T19:05:59Z</time>
      </trkpt>
      <trkpt lat="45.86004" lon="1.28771">
        <ele>334.8294274</ele>
        <time>2022-07-31T19:06:01Z</time>
      </trkpt>
      <trkpt lat="45.8601" lon="1.28773">
        <ele>335.407502</ele>
        <time>2022-07-31T19:06:03Z</time>
      </trkpt>
      <trkpt lat="45.86017" lon="1.28772">
        <ele>335.8292224</ele>
        <time>2022-07-31T19:06:05Z</time>
      </trkpt>
      <trkpt lat="45.86024" lon="1.28769">
        <ele>336.0946099</ele>
        <time>2022-07-31T19:06:07Z</time>
      </trkpt>
      <trkpt lat="45.8603" lon="1.28764">
        <ele>336.7489228</ele>
        <time>2022-07-31T19:06:09Z</time>
      </trkpt>
      <trkpt lat="45.86035" lon="1.28761">
        <ele>337.477698</ele>
        <time>2022-07-31T19:06:11Z</time>
      </trkpt>
      <trkpt lat="45.8604" lon="1.28758">
        <ele>338.183304</ele>
        <time>2022-07-31T19:06:13Z</time>
      </trkpt>
      <trkpt lat="45.86047" lon="1.28758">
        <ele>338.5582003</ele>
        <time>2022-07-31T19:06:15Z</time>
      </trkpt>
      <trkpt lat="45.86053" lon="1.28762">
        <ele>338.7485786</ele>
        <time>2022-07-31T19:06:17Z</time>
      </trkpt>
      <trkpt lat="45.86058" lon="1.28764">
        <ele>338.9830048</ele>
        <time>2022-07-31T19:06:19Z</time>
      </trkpt>
      <trkpt lat="45.86063" lon="1.28768">
        <ele>339.5449286</ele>
        <time>2022-07-31T19:06:21Z</time>
      </trkpt>
      <trkpt lat="45.86069" lon="1.28771">
        <ele>339.8183226</ele>
        <time>2022-07-31T19:06:23Z</time>
      </trkpt>
      <trkpt lat="45.86074" lon="1.28774">
        <ele>340.4447878</ele>
        <time>2022-07-31T19:06:25Z</time>
      </trkpt>
      <trkpt lat="45.8608" lon="1.28777">
        <ele>340.6416964</ele>
        <time>2022-07-31T19:06:27Z</time>
      </trkpt>
      <trkpt lat="45.86085" lon="1.28779">
        <ele>340.9836137</ele>
        <time>2022-07-31T19:06:29Z</time>
      </trkpt>
      <trkpt lat="45.8609" lon="1.28782">
        <ele>341.027434</ele>
        <time>2022-07-31T19:06:31Z</time>
      </trkpt>
      <trkpt lat="45.86095" lon="1.28783">
        <ele>341.3690544</ele>
        <time>2022-07-31T19:06:33Z</time>
      </trkpt>
      <trkpt lat="45.86101" lon="1.28786">
        <ele>341.7214873</ele>
        <time>2022-07-31T19:06:35Z</time>
      </trkpt>
      <trkpt lat="45.86106" lon="1.28788">
        <ele>342.1429093</ele>
        <time>2022-07-31T19:06:37Z</time>
      </trkpt>
      <trkpt lat="45.86111" lon="1.28791">
        <ele>341.9143099</ele>
        <time>2022-07-31T19:06:39Z</time>
      </trkpt>
      <trkpt lat="45.86115" lon="1.28793">
        <ele>342.5767633</ele>
        <time>2022-07-31T19:06:41Z</time>
      </trkpt>
      <trkpt lat="45.8612" lon="1.28797">
        <ele>342.8194752</ele>
        <time>2022-07-31T19:06:43Z</time>
      </trkpt>
      <trkpt lat="45.86124" lon="1.288">
        <ele>343.321007</ele>
        <time>2022-07-31T19:06:45Z</time>
      </trkpt>
      <trkpt lat="45.86129" lon="1.28803">
        <ele>343.0244356</ele>
        <time>2022-07-31T19:06:47Z</time>
      </trkpt>
      <trkpt lat="45.86134" lon="1.28807">
        <ele>343.2290641</ele>
        <time>2022-07-31T19:06:49Z</time>
      </trkpt>
      <trkpt lat="45.86138" lon="1.2881">
        <ele>343.1843522</ele>
        <time>2022-07-31T19:06:51Z</time>
      </trkpt>
      <trkpt lat="45.86143" lon="1.28813">
        <ele>343.1491365</ele>
        <time>2022-07-31T19:06:53Z</time>
      </trkpt>
      <trkpt lat="45.86148" lon="1.28816">
        <ele>343.6408337</ele>
        <time>2022-07-31T19:06:55Z</time>
      </trkpt>
      <trkpt lat="45.86153" lon="1.28821">
        <ele>343.9457152</ele>
        <time>2022-07-31T19:06:57Z</time>
      </trkpt>
      <trkpt lat="45.86158" lon="1.28824">
        <ele>344.1776326</ele>
        <time>2022-07-31T19:06:59Z</time>
      </trkpt>
      <trkpt lat="45.86164" lon="1.28829">
        <ele>344.2292235</ele>
        <time>2022-07-31T19:07:01Z</time>
      </trkpt>
      <trkpt lat="45.86169" lon="1.28832">
        <ele>344.4681047</ele>
        <time>2022-07-31T19:07:03Z</time>
      </trkpt>
      <trkpt lat="45.86174" lon="1.28835">
        <ele>344.4330135</ele>
        <time>2022-07-31T19:07:05Z</time>
      </trkpt>
      <trkpt lat="45.86179" lon="1.2884">
        <ele>344.9983552</ele>
        <time>2022-07-31T19:07:07Z</time>
      </trkpt>
      <trkpt lat="45.86184" lon="1.28843">
        <ele>344.8121711</ele>
        <time>2022-07-31T19:07:09Z</time>
      </trkpt>
      <trkpt lat="45.8619" lon="1.28847">
        <ele>344.7814612</ele>
        <time>2022-07-31T19:07:11Z</time>
      </trkpt>
      <trkpt lat="45.86195" lon="1.28851">
        <ele>344.7941737</ele>
        <time>2022-07-31T19:07:13Z</time>
      </trkpt>
      <trkpt lat="45.862" lon="1.28856">
        <ele>345.1566823</ele>
        <time>2022-07-31T19:07:15Z</time>
      </trkpt>
      <trkpt lat="45.86206" lon="1.2886">
        <ele>345.6187795</ele>
        <time>2022-07-31T19:07:17Z</time>
      </trkpt>
      <trkpt lat="45.86211" lon="1.28864">
        <ele>346.5790845</ele>
        <time>2022-07-31T19:07:19Z</time>
      </trkpt>
      <trkpt lat="45.86217" lon="1.28868">
        <ele>347.2050644</ele>
        <time>2022-07-31T19:07:21Z</time>
      </trkpt>
      <trkpt lat="45.86222" lon="1.28872">
        <ele>347.2467004</ele>
        <time>2022-07-31T19:07:23Z</time>
      </trkpt>
      <trkpt lat="45.86228" lon="1.28877">
        <ele>347.5402919</ele>
        <time>2022-07-31T19:07:25Z</time>
      </trkpt>
      <trkpt lat="45.86233" lon="1.28881">
        <ele>347.7912225</ele>
        <time>2022-07-31T19:07:27Z</time>
      </trkpt>
      <trkpt lat="45.86239" lon="1.28886">
        <ele>347.8918387</ele>
        <time>2022-07-31T19:07:29Z</time>
      </trkpt>
      <trkpt lat="45.86244" lon="1.2889">
        <ele>348.3319853</ele>
        <time>2022-07-31T19:07:31Z</time>
      </trkpt>
      <trkpt lat="45.8625" lon="1.28894">
        <ele>349.0787961</ele>
        <time>2022-07-31T19:07:33Z</time>
      </trkpt>
      <trkpt lat="45.86256" lon="1.28898">
        <ele>349.4134484</ele>
        <time>2022-07-31T19:07:35Z</time>
      </trkpt>
      <trkpt lat="45.86261" lon="1.28903">
        <ele>349.6824588</ele>
        <time>2022-07-31T19:07:37Z</time>
      </trkpt>
      <trkpt lat="45.86267" lon="1.28907">
        <ele>349.9684501</ele>
        <time>2022-07-31T19:07:39Z</time>
      </trkpt>
      <trkpt lat="45.86273" lon="1.28913">
        <ele>350.3305302</ele>
        <time>2022-07-31T19:07:41Z</time>
      </trkpt>
      <trkpt lat="45.86279" lon="1.28919">
        <ele>350.4764134</ele>
        <time>2022-07-31T19:07:43Z</time>
      </trkpt>
      <trkpt lat="45.86285" lon="1.28925">
        <ele>351.5232437</ele>
        <time>2022-07-31T19:07:45Z</time>
      </trkpt>
      <trkpt lat="45.8629" lon="1.28931">
        <ele>351.1720662</ele>
        <time>2022-07-31T19:07:47Z</time>
      </trkpt>
      <trkpt lat="45.86296" lon="1.28939">
        <ele>351.9760379</ele>
        <time>2022-07-31T19:07:49Z</time>
      </trkpt>
      <trkpt lat="45.863" lon="1.28948">
        <ele>351.9022979</ele>
        <time>2022-07-31T19:07:51Z</time>
      </trkpt>
      <trkpt lat="45.86306" lon="1.28955">
        <ele>351.8550349</ele>
        <time>2022-07-31T19:07:53Z</time>
      </trkpt>
      <trkpt lat="45.86312" lon="1.28961">
        <ele>352.0980634</ele>
        <time>2022-07-31T19:07:55Z</time>
      </trkpt>
      <trkpt lat="45.86317" lon="1.28967">
        <ele>352.4112383</ele>
        <time>2022-07-31T19:07:57Z</time>
      </trkpt>
      <trkpt lat="45.86322" lon="1.28972">
        <ele>352.2036983</ele>
        <time>2022-07-31T19:07:59Z</time>
      </trkpt>
      <trkpt lat="45.86328" lon="1.28978">
        <ele>352.3509495</ele>
        <time>2022-07-31T19:08:01Z</time>
      </trkpt>
      <trkpt lat="45.86333" lon="1.28983">
        <ele>352.2389164</ele>
        <time>2022-07-31T19:08:03Z</time>
      </trkpt>
      <trkpt lat="45.86338" lon="1.28989">
        <ele>352.1776358</ele>
        <time>2022-07-31T19:08:05Z</time>
      </trkpt>
      <trkpt lat="45.86344" lon="1.28993">
        <ele>352.4942596</ele>
        <time>2022-07-31T19:08:07Z</time>
      </trkpt>
      <trkpt lat="45.86349" lon="1.28999">
        <ele>352.561157</ele>
        <time>2022-07-31T19:08:09Z</time>
      </trkpt>
      <trkpt lat="45.86355" lon="1.29004">
        <ele>352.6393894</ele>
        <time>2022-07-31T19:08:11Z</time>
      </trkpt>
      <trkpt lat="45.8636" lon="1.29009">
        <ele>353.056563</ele>
        <time>2022-07-31T19:08:13Z</time>
      </trkpt>
      <trkpt lat="45.86365" lon="1.29012">
        <ele>352.7563133</ele>
        <time>2022-07-31T19:08:15Z</time>
      </trkpt>
      <trkpt lat="45.86369" lon="1.29017">
        <ele>353.4846114</ele>
        <time>2022-07-31T19:08:17Z</time>
      </trkpt>
      <trkpt lat="45.86374" lon="1.29021">
        <ele>353.4729722</ele>
        <time>2022-07-31T19:08:19Z</time>
      </trkpt>
      <trkpt lat="45.86379" lon="1.29025">
        <ele>353.060888</ele>
        <time>2022-07-31T19:08:21Z</time>
      </trkpt>
      <trkpt lat="45.86385" lon="1.29029">
        <ele>352.963993</ele>
        <time>2022-07-31T19:08:23Z</time>
      </trkpt>
      <trkpt lat="45.8639" lon="1.29034">
        <ele>353.1532406</ele>
        <time>2022-07-31T19:08:25Z</time>
      </trkpt>
      <trkpt lat="45.86396" lon="1.29039">
        <ele>353.0894666</ele>
        <time>2022-07-31T19:08:27Z</time>
      </trkpt>
      <trkpt lat="45.864" lon="1.29045">
        <ele>353.8994776</ele>
        <time>2022-07-31T19:08:29Z</time>
      </trkpt>
      <trkpt lat="45.86405" lon="1.2905">
        <ele>353.6231263</ele>
        <time>2022-07-31T19:08:31Z</time>
      </trkpt>
      <trkpt lat="45.86409" lon="1.29055">
        <ele>354.0545154</ele>
        <time>2022-07-31T19:08:33Z</time>
      </trkpt>
      <trkpt lat="45.86415" lon="1.29058">
        <ele>354.2524011</ele>
        <time>2022-07-31T19:08:35Z</time>
      </trkpt>
      <trkpt lat="45.86419" lon="1.29064">
        <ele>354.0122587</ele>
        <time>2022-07-31T19:08:37Z</time>
      </trkpt>
      <trkpt lat="45.86424" lon="1.2907">
        <ele>353.9257424</ele>
        <time>2022-07-31T19:08:39Z</time>
      </trkpt>
      <trkpt lat="45.86429" lon="1.29075">
        <ele>353.836497</ele>
        <time>2022-07-31T19:08:41Z</time>
      </trkpt>
      <trkpt lat="45.86434" lon="1.29079">
        <ele>353.9896079</ele>
        <time>2022-07-31T19:08:43Z</time>
      </trkpt>
      <trkpt lat="45.86439" lon="1.29083">
        <ele>354.1986759</ele>
        <time>2022-07-31T19:08:45Z</time>
      </trkpt>
      <trkpt lat="45.86444" lon="1.29088">
        <ele>354.6028841</ele>
        <time>2022-07-31T19:08:47Z</time>
      </trkpt>
      <trkpt lat="45.8645" lon="1.29093">
        <ele>354.7788037</ele>
        <time>2022-07-31T19:08:49Z</time>
      </trkpt>
      <trkpt lat="45.86455" lon="1.29098">
        <ele>354.8886621</ele>
        <time>2022-07-31T19:08:51Z</time>
      </trkpt>
      <trkpt lat="45.8646" lon="1.29104">
        <ele>354.8139718</ele>
        <time>2022-07-31T19:08:53Z</time>
      </trkpt>
      <trkpt lat="45.86465" lon="1.29108">
        <ele>354.9062496</ele>
        <time>2022-07-31T19:08:55Z</time>
      </trkpt>
      <trkpt lat="45.8647" lon="1.29112">
        <ele>354.6576614</ele>
        <time>2022-07-31T19:08:57Z</time>
      </trkpt>
      <trkpt lat="45.86474" lon="1.29117">
        <ele>354.9992862</ele>
        <time>2022-07-31T19:08:59Z</time>
      </trkpt>
      <trkpt lat="45.86479" lon="1.29122">
        <ele>355.3188389</ele>
        <time>2022-07-31T19:09:01Z</time>
      </trkpt>
      <trkpt lat="45.86483" lon="1.29128">
        <ele>355.4323665</ele>
        <time>2022-07-31T19:09:03Z</time>
      </trkpt>
      <trkpt lat="45.86488" lon="1.29134">
        <ele>355.6568873</ele>
        <time>2022-07-31T19:09:05Z</time>
      </trkpt>
      <trkpt lat="45.86492" lon="1.29138">
        <ele>355.6557535</ele>
        <time>2022-07-31T19:09:07Z</time>
      </trkpt>
      <trkpt lat="45.86497" lon="1.29143">
        <ele>355.7159166</ele>
        <time>2022-07-31T19:09:09Z</time>
      </trkpt>
      <trkpt lat="45.86502" lon="1.29148">
        <ele>355.6265299</ele>
        <time>2022-07-31T19:09:11Z</time>
      </trkpt>
      <trkpt lat="45.86507" lon="1.29151">
        <ele>355.4094071</ele>
        <time>2022-07-31T19:09:13Z</time>
      </trkpt>
      <trkpt lat="45.86512" lon="1.29154">
        <ele>354.730846</ele>
        <time>2022-07-31T19:09:15Z</time>
      </trkpt>
      <trkpt lat="45.86516" lon="1.29158">
        <ele>354.8358476</ele>
        <time>2022-07-31T19:09:17Z</time>
      </trkpt>
      <trkpt lat="45.8652" lon="1.29161">
        <ele>355.5034344</ele>
        <time>2022-07-31T19:09:19Z</time>
      </trkpt>
      <trkpt lat="45.86523" lon="1.29165">
        <ele>355.7454926</ele>
        <time>2022-07-31T19:09:21Z</time>
      </trkpt>
      <trkpt lat="45.86527" lon="1.2917">
        <ele>355.3145187</ele>
        <time>2022-07-31T19:09:23Z</time>
      </trkpt>
      <trkpt lat="45.86531" lon="1.29174">
        <ele>355.329998</ele>
        <time>2022-07-31T19:09:25Z</time>
      </trkpt>
      <trkpt lat="45.86535" lon="1.29178">
        <ele>355.4817674</ele>
        <time>2022-07-31T19:09:27Z</time>
      </trkpt>
      <trkpt lat="45.86539" lon="1.29183">
        <ele>355.0699629</ele>
        <time>2022-07-31T19:09:29Z</time>
      </trkpt>
      <trkpt lat="45.86545" lon="1.29186">
        <ele>355.5577118</ele>
        <time>2022-07-31T19:09:31Z</time>
      </trkpt>
      <trkpt lat="45.8655" lon="1.2919">
        <ele>355.374986</ele>
        <time>2022-07-31T19:09:33Z</time>
      </trkpt>
      <trkpt lat="45.86555" lon="1.29195">
        <ele>355.2734145</ele>
        <time>2022-07-31T19:09:35Z</time>
      </trkpt>
      <trkpt lat="45.8656" lon="1.292">
        <ele>355.4213073</ele>
        <time>2022-07-31T19:09:37Z</time>
      </trkpt>
      <trkpt lat="45.86564" lon="1.29206">
        <ele>354.7675915</ele>
        <time>2022-07-31T19:09:39Z</time>
      </trkpt>
      <trkpt lat="45.8657" lon="1.29212">
        <ele>354.820488</ele>
        <time>2022-07-31T19:09:41Z</time>
      </trkpt>
      <trkpt lat="45.86575" lon="1.29218">
        <ele>354.9494006</ele>
        <time>2022-07-31T19:09:43Z</time>
      </trkpt>
      <trkpt lat="45.86579" lon="1.29225">
        <ele>354.6580553</ele>
        <time>2022-07-31T19:09:45Z</time>
      </trkpt>
      <trkpt lat="45.86584" lon="1.29232">
        <ele>355.1616465</ele>
        <time>2022-07-31T19:09:47Z</time>
      </trkpt>
      <trkpt lat="45.86589" lon="1.29238">
        <ele>354.9983817</ele>
        <time>2022-07-31T19:09:49Z</time>
      </trkpt>
      <trkpt lat="45.86594" lon="1.29245">
        <ele>355.3703897</ele>
        <time>2022-07-31T19:09:51Z</time>
      </trkpt>
      <trkpt lat="45.86599" lon="1.29252">
        <ele>355.6629189</ele>
        <time>2022-07-31T19:09:53Z</time>
      </trkpt>
      <trkpt lat="45.86604" lon="1.29258">
        <ele>355.2176452</ele>
        <time>2022-07-31T19:09:55Z</time>
      </trkpt>
      <trkpt lat="45.86609" lon="1.29265">
        <ele>355.6885298</ele>
        <time>2022-07-31T19:09:57Z</time>
      </trkpt>
      <trkpt lat="45.86613" lon="1.29272">
        <ele>356.0138306</ele>
        <time>2022-07-31T19:09:59Z</time>
      </trkpt>
      <trkpt lat="45.86618" lon="1.29278">
        <ele>356.3886271</ele>
        <time>2022-07-31T19:10:01Z</time>
      </trkpt>
      <trkpt lat="45.86623" lon="1.29284">
        <ele>356.4547244</ele>
        <time>2022-07-31T19:10:03Z</time>
      </trkpt>
      <trkpt lat="45.86627" lon="1.2929">
        <ele>356.8012622</ele>
        <time>2022-07-31T19:10:05Z</time>
      </trkpt>
      <trkpt lat="45.86631" lon="1.29297">
        <ele>357.2608932</ele>
        <time>2022-07-31T19:10:07Z</time>
      </trkpt>
      <trkpt lat="45.86636" lon="1.29303">
        <ele>357.4939743</ele>
        <time>2022-07-31T19:10:09Z</time>
      </trkpt>
      <trkpt lat="45.8664" lon="1.29309">
        <ele>357.9968623</ele>
        <time>2022-07-31T19:10:11Z</time>
      </trkpt>
      <trkpt lat="45.86644" lon="1.29315">
        <ele>358.4745322</ele>
        <time>2022-07-31T19:10:13Z</time>
      </trkpt>
      <trkpt lat="45.86648" lon="1.29321">
        <ele>359.2117904</ele>
        <time>2022-07-31T19:10:15Z</time>
      </trkpt>
      <trkpt lat="45.86652" lon="1.29327">
        <ele>359.2482462</ele>
        <time>2022-07-31T19:10:17Z</time>
      </trkpt>
      <trkpt lat="45.86656" lon="1.29332">
        <ele>360.1515365</ele>
        <time>2022-07-31T19:10:19Z</time>
      </trkpt>
      <trkpt lat="45.8666" lon="1.29339">
        <ele>360.8285958</ele>
        <time>2022-07-31T19:10:21Z</time>
      </trkpt>
      <trkpt lat="45.86664" lon="1.29345">
        <ele>360.8375739</ele>
        <time>2022-07-31T19:10:23Z</time>
      </trkpt>
      <trkpt lat="45.86669" lon="1.2935">
        <ele>361.239889</ele>
        <time>2022-07-31T19:10:25Z</time>
      </trkpt>
      <trkpt lat="45.86673" lon="1.29356">
        <ele>362.0641765</ele>
        <time>2022-07-31T19:10:27Z</time>
      </trkpt>
      <trkpt lat="45.86677" lon="1.29362">
        <ele>362.7911291</ele>
        <time>2022-07-31T19:10:29Z</time>
      </trkpt>
      <trkpt lat="45.86681" lon="1.29367">
        <ele>363.2612033</ele>
        <time>2022-07-31T19:10:31Z</time>
      </trkpt>
      <trkpt lat="45.86684" lon="1.29373">
        <ele>363.22052</ele>
        <time>2022-07-31T19:10:33Z</time>
      </trkpt>
      <trkpt lat="45.86688" lon="1.29378">
        <ele>364.1552364</ele>
        <time>2022-07-31T19:10:35Z</time>
      </trkpt>
      <trkpt lat="45.86692" lon="1.29384">
        <ele>363.9061873</ele>
        <time>2022-07-31T19:10:37Z</time>
      </trkpt>
      <trkpt lat="45.86695" lon="1.29389">
        <ele>364.5959037</ele>
        <time>2022-07-31T19:10:39Z</time>
      </trkpt>
      <trkpt lat="45.86699" lon="1.29394">
        <ele>364.5983667</ele>
        <time>2022-07-31T19:10:41Z</time>
      </trkpt>
      <trkpt lat="45.86703" lon="1.294">
        <ele>364.4431783</ele>
        <time>2022-07-31T19:10:43Z</time>
      </trkpt>
      <trkpt lat="45.86706" lon="1.29405">
        <ele>364.879792</ele>
        <time>2022-07-31T19:10:45Z</time>
      </trkpt>
      <trkpt lat="45.8671" lon="1.2941">
        <ele>365.088207</ele>
        <time>2022-07-31T19:10:47Z</time>
      </trkpt>
      <trkpt lat="45.86713" lon="1.29415">
        <ele>365.4283399</ele>
        <time>2022-07-31T19:10:49Z</time>
      </trkpt>
      <trkpt lat="45.86717" lon="1.2942">
        <ele>365.2943227</ele>
        <time>2022-07-31T19:10:51Z</time>
      </trkpt>
      <trkpt lat="45.86721" lon="1.29425">
        <ele>365.4012267</ele>
        <time>2022-07-31T19:10:53Z</time>
      </trkpt>
      <trkpt lat="45.86724" lon="1.2943">
        <ele>365.571446</ele>
        <time>2022-07-31T19:10:55Z</time>
      </trkpt>
      <trkpt lat="45.86728" lon="1.29435">
        <ele>365.7326112</ele>
        <time>2022-07-31T19:10:57Z</time>
      </trkpt>
      <trkpt lat="45.86731" lon="1.2944">
        <ele>366.1331102</ele>
        <time>2022-07-31T19:10:59Z</time>
      </trkpt>
      <trkpt lat="45.86735" lon="1.29445">
        <ele>366.2579341</ele>
        <time>2022-07-31T19:11:01Z</time>
      </trkpt>
      <trkpt lat="45.86738" lon="1.2945">
        <ele>366.7637382</ele>
        <time>2022-07-31T19:11:03Z</time>
      </trkpt>
      <trkpt lat="45.86741" lon="1.29455">
        <ele>366.6331006</ele>
        <time>2022-07-31T19:11:05Z</time>
      </trkpt>
      <trkpt lat="45.86745" lon="1.29459">
        <ele>366.9904161</ele>
        <time>2022-07-31T19:11:07Z</time>
      </trkpt>
      <trkpt lat="45.86748" lon="1.29464">
        <ele>366.2864028</ele>
        <time>2022-07-31T19:11:09Z</time>
      </trkpt>
      <trkpt lat="45.86751" lon="1.29469">
        <ele>366.8271393</ele>
        <time>2022-07-31T19:11:11Z</time>
      </trkpt>
      <trkpt lat="45.86755" lon="1.29474">
        <ele>367.2445408</ele>
        <time>2022-07-31T19:11:13Z</time>
      </trkpt>
      <trkpt lat="45.86758" lon="1.29479">
        <ele>368.5477909</ele>
        <time>2022-07-31T19:11:15Z</time>
      </trkpt>
      <trkpt lat="45.86762" lon="1.29484">
        <ele>368.0119228</ele>
        <time>2022-07-31T19:11:17Z</time>
      </trkpt>
      <trkpt lat="45.86765" lon="1.29489">
        <ele>368.5601844</ele>
        <time>2022-07-31T19:11:19Z</time>
      </trkpt>
      <trkpt lat="45.86768" lon="1.29494">
        <ele>368.6581587</ele>
        <time>2022-07-31T19:11:21Z</time>
      </trkpt>
      <trkpt lat="45.86771" lon="1.295">
        <ele>369.2261364</ele>
        <time>2022-07-31T19:11:23Z</time>
      </trkpt>
      <trkpt lat="45.86776" lon="1.29505">
        <ele>369.0842857</ele>
        <time>2022-07-31T19:11:25Z</time>
      </trkpt>
      <trkpt lat="45.8678" lon="1.29511">
        <ele>369.8470881</ele>
        <time>2022-07-31T19:11:27Z</time>
      </trkpt>
      <trkpt lat="45.86784" lon="1.29516">
        <ele>370.2746237</ele>
        <time>2022-07-31T19:11:29Z</time>
      </trkpt>
      <trkpt lat="45.86788" lon="1.29522">
        <ele>371.0049216</ele>
        <time>2022-07-31T19:11:31Z</time>
      </trkpt>
      <trkpt lat="45.86792" lon="1.29529">
        <ele>370.6095989</ele>
        <time>2022-07-31T19:11:33Z</time>
      </trkpt>
      <trkpt lat="45.86796" lon="1.29535">
        <ele>370.8703705</ele>
        <time>2022-07-31T19:11:35Z</time>
      </trkpt>
      <trkpt lat="45.868" lon="1.29541">
        <ele>370.9057745</ele>
        <time>2022-07-31T19:11:37Z</time>
      </trkpt>
      <trkpt lat="45.86804" lon="1.29548">
        <ele>370.3816245</ele>
        <time>2022-07-31T19:11:39Z</time>
      </trkpt>
      <trkpt lat="45.86809" lon="1.29555">
        <ele>369.8220574</ele>
        <time>2022-07-31T19:11:41Z</time>
      </trkpt>
      <trkpt lat="45.86814" lon="1.29563">
        <ele>369.360596</ele>
        <time>2022-07-31T19:11:43Z</time>
      </trkpt>
      <trkpt lat="45.86819" lon="1.2957">
        <ele>369.2224184</ele>
        <time>2022-07-31T19:11:45Z</time>
      </trkpt>
      <trkpt lat="45.86824" lon="1.29577">
        <ele>369.3989238</ele>
        <time>2022-07-31T19:11:47Z</time>
      </trkpt>
      <trkpt lat="45.86829" lon="1.29585">
        <ele>369.1908654</ele>
        <time>2022-07-31T19:11:49Z</time>
      </trkpt>
      <trkpt lat="45.86834" lon="1.29592">
        <ele>369.3758556</ele>
        <time>2022-07-31T19:11:51Z</time>
      </trkpt>
      <trkpt lat="45.8684" lon="1.296">
        <ele>369.4467953</ele>
        <time>2022-07-31T19:11:53Z</time>
      </trkpt>
      <trkpt lat="45.86845" lon="1.29607">
        <ele>369.5383694</ele>
        <time>2022-07-31T19:11:55Z</time>
      </trkpt>
      <trkpt lat="45.86851" lon="1.29616">
        <ele>368.7100745</ele>
        <time>2022-07-31T19:11:57Z</time>
      </trkpt>
      <trkpt lat="45.86857" lon="1.29624">
        <ele>369.2110773</ele>
        <time>2022-07-31T19:11:59Z</time>
      </trkpt>
      <trkpt lat="45.86862" lon="1.29633">
        <ele>368.3774544</ele>
        <time>2022-07-31T19:12:01Z</time>
      </trkpt>
      <trkpt lat="45.86869" lon="1.29641">
        <ele>368.3749662</ele>
        <time>2022-07-31T19:12:03Z</time>
      </trkpt>
      <trkpt lat="45.86876" lon="1.2965">
        <ele>368.2885653</ele>
        <time>2022-07-31T19:12:05Z</time>
      </trkpt>
      <trkpt lat="45.86882" lon="1.29659">
        <ele>367.8267567</ele>
        <time>2022-07-31T19:12:07Z</time>
      </trkpt>
      <trkpt lat="45.86888" lon="1.29668">
        <ele>367.9903344</ele>
        <time>2022-07-31T19:12:09Z</time>
      </trkpt>
      <trkpt lat="45.86895" lon="1.29677">
        <ele>368.1025828</ele>
        <time>2022-07-31T19:12:11Z</time>
      </trkpt>
      <trkpt lat="45.86901" lon="1.29686">
        <ele>368.0101736</ele>
        <time>2022-07-31T19:12:13Z</time>
      </trkpt>
      <trkpt lat="45.86908" lon="1.29694">
        <ele>367.8074429</ele>
        <time>2022-07-31T19:12:15Z</time>
      </trkpt>
      <trkpt lat="45.86914" lon="1.29704">
        <ele>367.7360951</ele>
        <time>2022-07-31T19:12:17Z</time>
      </trkpt>
      <trkpt lat="45.86921" lon="1.29713">
        <ele>367.5282094</ele>
        <time>2022-07-31T19:12:19Z</time>
      </trkpt>
      <trkpt lat="45.86928" lon="1.29723">
        <ele>367.6611811</ele>
        <time>2022-07-31T19:12:21Z</time>
      </trkpt>
      <trkpt lat="45.86934" lon="1.29732">
        <ele>367.4876766</ele>
        <time>2022-07-31T19:12:23Z</time>
      </trkpt>
      <trkpt lat="45.8694" lon="1.2974">
        <ele>367.5795249</ele>
        <time>2022-07-31T19:12:25Z</time>
      </trkpt>
      <trkpt lat="45.86947" lon="1.29748">
        <ele>367.7367742</ele>
        <time>2022-07-31T19:12:27Z</time>
      </trkpt>
      <trkpt lat="45.86953" lon="1.29757">
        <ele>367.7961689</ele>
        <time>2022-07-31T19:12:29Z</time>
      </trkpt>
      <trkpt lat="45.86958" lon="1.29765">
        <ele>367.9565901</ele>
        <time>2022-07-31T19:12:31Z</time>
      </trkpt>
      <trkpt lat="45.86965" lon="1.29773">
        <ele>367.9976342</ele>
        <time>2022-07-31T19:12:33Z</time>
      </trkpt>
      <trkpt lat="45.86971" lon="1.29781">
        <ele>367.9586095</ele>
        <time>2022-07-31T19:12:35Z</time>
      </trkpt>
      <trkpt lat="45.86977" lon="1.29789">
        <ele>368.3576535</ele>
        <time>2022-07-31T19:12:37Z</time>
      </trkpt>
      <trkpt lat="45.86983" lon="1.29796">
        <ele>368.2942741</ele>
        <time>2022-07-31T19:12:39Z</time>
      </trkpt>
      <trkpt lat="45.86989" lon="1.29804">
        <ele>368.1017429</ele>
        <time>2022-07-31T19:12:41Z</time>
      </trkpt>
      <trkpt lat="45.86995" lon="1.29812">
        <ele>368.0000683</ele>
        <time>2022-07-31T19:12:43Z</time>
      </trkpt>
      <trkpt lat="45.87001" lon="1.2982">
        <ele>368.7384411</ele>
        <time>2022-07-31T19:12:45Z</time>
      </trkpt>
      <trkpt lat="45.87006" lon="1.29827">
        <ele>369.4174029</ele>
        <time>2022-07-31T19:12:47Z</time>
      </trkpt>
      <trkpt lat="45.87012" lon="1.29834">
        <ele>369.7253219</ele>
        <time>2022-07-31T19:12:49Z</time>
      </trkpt>
      <trkpt lat="45.87018" lon="1.29841">
        <ele>369.8808578</ele>
        <time>2022-07-31T19:12:51Z</time>
      </trkpt>
      <trkpt lat="45.87024" lon="1.29849">
        <ele>370.0501263</ele>
        <time>2022-07-31T19:12:53Z</time>
      </trkpt>
      <trkpt lat="45.8703" lon="1.29855">
        <ele>369.8887051</ele>
        <time>2022-07-31T19:12:55Z</time>
      </trkpt>
      <trkpt lat="45.87036" lon="1.29862">
        <ele>370.1291013</ele>
        <time>2022-07-31T19:12:57Z</time>
      </trkpt>
      <trkpt lat="45.87042" lon="1.29868">
        <ele>370.3512282</ele>
        <time>2022-07-31T19:12:59Z</time>
      </trkpt>
      <trkpt lat="45.87048" lon="1.29878">
        <ele>370.0974872</ele>
        <time>2022-07-31T19:13:01Z</time>
      </trkpt>
      <trkpt lat="45.87053" lon="1.29886">
        <ele>370.1971882</ele>
        <time>2022-07-31T19:13:03Z</time>
      </trkpt>
      <trkpt lat="45.87058" lon="1.29894">
        <ele>370.3064011</ele>
        <time>2022-07-31T19:13:05Z</time>
      </trkpt>
      <trkpt lat="45.87064" lon="1.29899">
        <ele>370.2833618</ele>
        <time>2022-07-31T19:13:07Z</time>
      </trkpt>
      <trkpt lat="45.87068" lon="1.29903">
        <ele>369.5432624</ele>
        <time>2022-07-31T19:13:09Z</time>
      </trkpt>
      <trkpt lat="45.87073" lon="1.29905">
        <ele>369.4404687</ele>
        <time>2022-07-31T19:13:11Z</time>
      </trkpt>
      <trkpt lat="45.87077" lon="1.2991">
        <ele>369.6228385</ele>
        <time>2022-07-31T19:13:13Z</time>
      </trkpt>
      <trkpt lat="45.87082" lon="1.29916">
        <ele>370.0104792</ele>
        <time>2022-07-31T19:13:15Z</time>
      </trkpt>
      <trkpt lat="45.87087" lon="1.29922">
        <ele>370.0592649</ele>
        <time>2022-07-31T19:13:17Z</time>
      </trkpt>
      <trkpt lat="45.87092" lon="1.29928">
        <ele>370.0044802</ele>
        <time>2022-07-31T19:13:19Z</time>
      </trkpt>
      <trkpt lat="45.87098" lon="1.29935">
        <ele>369.9589107</ele>
        <time>2022-07-31T19:13:21Z</time>
      </trkpt>
      <trkpt lat="45.87104" lon="1.29942">
        <ele>369.9564404</ele>
        <time>2022-07-31T19:13:23Z</time>
      </trkpt>
      <trkpt lat="45.8711" lon="1.29948">
        <ele>369.7756828</ele>
        <time>2022-07-31T19:13:25Z</time>
      </trkpt>
      <trkpt lat="45.87114" lon="1.29955">
        <ele>369.7485699</ele>
        <time>2022-07-31T19:13:27Z</time>
      </trkpt>
      <trkpt lat="45.87121" lon="1.29963">
        <ele>370.1167699</ele>
        <time>2022-07-31T19:13:29Z</time>
      </trkpt>
      <trkpt lat="45.87126" lon="1.2997">
        <ele>370.4166377</ele>
        <time>2022-07-31T19:13:31Z</time>
      </trkpt>
      <trkpt lat="45.8713" lon="1.29979">
        <ele>370.7332025</ele>
        <time>2022-07-31T19:13:33Z</time>
      </trkpt>
      <trkpt lat="45.87134" lon="1.29988">
        <ele>371.2944744</ele>
        <time>2022-07-31T19:13:35Z</time>
      </trkpt>
      <trkpt lat="45.87136" lon="1.29995">
        <ele>371.7344924</ele>
        <time>2022-07-31T19:13:37Z</time>
      </trkpt>
      <trkpt lat="45.87139" lon="1.29989">
        <ele>371.9898629</ele>
        <time>2022-07-31T19:13:39Z</time>
      </trkpt>
      <trkpt lat="45.87142" lon="1.29983">
        <ele>372.2209904</ele>
        <time>2022-07-31T19:13:41Z</time>
      </trkpt>
      <trkpt lat="45.87146" lon="1.29978">
        <ele>371.7812769</ele>
        <time>2022-07-31T19:13:43Z</time>
      </trkpt>
      <trkpt lat="45.87149" lon="1.29972">
        <ele>371.6464171</ele>
        <time>2022-07-31T19:13:45Z</time>
      </trkpt>
      <trkpt lat="45.87153" lon="1.29972">
        <ele>372.2854423</ele>
        <time>2022-07-31T19:13:47Z</time>
      </trkpt>
      <trkpt lat="45.87159" lon="1.29975">
        <ele>372.960994</ele>
        <time>2022-07-31T19:13:49Z</time>
      </trkpt>
      <trkpt lat="45.87166" lon="1.29975">
        <ele>370.9236073</ele>
        <time>2022-07-31T19:13:51Z</time>
      </trkpt>
      <trkpt lat="45.87171" lon="1.29978">
        <ele>371.7128054</ele>
        <time>2022-07-31T19:13:53Z</time>
      </trkpt>
      <trkpt lat="45.87176" lon="1.2998">
        <ele>371.5273261</ele>
        <time>2022-07-31T19:13:55Z</time>
      </trkpt>
      <trkpt lat="45.87181" lon="1.29982">
        <ele>371.9834296</ele>
        <time>2022-07-31T19:13:57Z</time>
      </trkpt>
      <trkpt lat="45.87185" lon="1.2998">
        <ele>371.0126093</ele>
        <time>2022-07-31T19:13:59Z</time>
      </trkpt>
      <trkpt lat="45.87188" lon="1.29986">
        <ele>370.6186861</ele>
        <time>2022-07-31T19:14:01Z</time>
      </trkpt>
      <trkpt lat="45.87188" lon="1.29994">
        <ele>370.315873</ele>
        <time>2022-07-31T19:14:03Z</time>
      </trkpt>
      <trkpt lat="45.87189" lon="1.3">
        <ele>370.8632215</ele>
        <time>2022-07-31T19:14:05Z</time>
      </trkpt>
      <trkpt lat="45.87193" lon="1.30003">
        <ele>370.7554983</ele>
        <time>2022-07-31T19:14:07Z</time>
      </trkpt>
      <trkpt lat="45.87198" lon="1.30003">
        <ele>370.2444608</ele>
        <time>2022-07-31T19:14:09Z</time>
      </trkpt>
      <trkpt lat="45.87204" lon="1.30001">
        <ele>370.2921725</ele>
        <time>2022-07-31T19:14:11Z</time>
      </trkpt>
      <trkpt lat="45.87211" lon="1.29999">
        <ele>370.649299</ele>
        <time>2022-07-31T19:14:13Z</time>
      </trkpt>
      <trkpt lat="45.87218" lon="1.29999">
        <ele>370.7049006</ele>
        <time>2022-07-31T19:14:15Z</time>
      </trkpt>
      <trkpt lat="45.87224" lon="1.29998">
        <ele>370.412645</ele>
        <time>2022-07-31T19:14:17Z</time>
      </trkpt>
      <trkpt lat="45.87231" lon="1.29997">
        <ele>370.2523254</ele>
        <time>2022-07-31T19:14:19Z</time>
      </trkpt>
      <trkpt lat="45.87239" lon="1.29996">
        <ele>369.9729396</ele>
        <time>2022-07-31T19:14:21Z</time>
      </trkpt>
      <trkpt lat="45.87246" lon="1.29996">
        <ele>369.5066519</ele>
        <time>2022-07-31T19:14:23Z</time>
      </trkpt>
      <trkpt lat="45.87252" lon="1.29997">
        <ele>369.6703899</ele>
        <time>2022-07-31T19:14:25Z</time>
      </trkpt>
      <trkpt lat="45.87259" lon="1.29997">
        <ele>369.6613083</ele>
        <time>2022-07-31T19:14:27Z</time>
      </trkpt>
      <trkpt lat="45.87264" lon="1.29997">
        <ele>369.6930834</ele>
        <time>2022-07-31T19:14:29Z</time>
      </trkpt>
      <trkpt lat="45.8727" lon="1.29998">
        <ele>369.4031517</ele>
        <time>2022-07-31T19:14:31Z</time>
      </trkpt>
      <trkpt lat="45.87277" lon="1.29998">
        <ele>369.5199167</ele>
        <time>2022-07-31T19:14:33Z</time>
      </trkpt>
      <trkpt lat="45.87285" lon="1.29999">
        <ele>369.4321951</ele>
        <time>2022-07-31T19:14:35Z</time>
      </trkpt>
      <trkpt lat="45.87294" lon="1.30001">
        <ele>368.8987495</ele>
        <time>2022-07-31T19:14:37Z</time>
      </trkpt>
      <trkpt lat="45.87303" lon="1.30003">
        <ele>369.102545</ele>
        <time>2022-07-31T19:14:39Z</time>
      </trkpt>
      <trkpt lat="45.87313" lon="1.30005">
        <ele>368.7724585</ele>
        <time>2022-07-31T19:14:41Z</time>
      </trkpt>
      <trkpt lat="45.87323" lon="1.30009">
        <ele>368.3279846</ele>
        <time>2022-07-31T19:14:43Z</time>
      </trkpt>
      <trkpt lat="45.87334" lon="1.30013">
        <ele>367.9903487</ele>
        <time>2022-07-31T19:14:45Z</time>
      </trkpt>
      <trkpt lat="45.87345" lon="1.30019">
        <ele>367.1313118</ele>
        <time>2022-07-31T19:14:47Z</time>
      </trkpt>
      <trkpt lat="45.87356" lon="1.30027">
        <ele>366.4010417</ele>
        <time>2022-07-31T19:14:49Z</time>
      </trkpt>
      <trkpt lat="45.87369" lon="1.30034">
        <ele>365.385771</ele>
        <time>2022-07-31T19:14:51Z</time>
      </trkpt>
      <trkpt lat="45.87382" lon="1.30043">
        <ele>364.1380823</ele>
        <time>2022-07-31T19:14:53Z</time>
      </trkpt>
      <trkpt lat="45.87396" lon="1.3005">
        <ele>363.502136</ele>
        <time>2022-07-31T19:14:55Z</time>
      </trkpt>
      <trkpt lat="45.87411" lon="1.30057">
        <ele>361.0107664</ele>
        <time>2022-07-31T19:14:57Z</time>
      </trkpt>
      <trkpt lat="45.87427" lon="1.30065">
        <ele>360.5859621</ele>
        <time>2022-07-31T19:14:59Z</time>
      </trkpt>
      <trkpt lat="45.87443" lon="1.30072">
        <ele>359.2931187</ele>
        <time>2022-07-31T19:15:01Z</time>
      </trkpt>
      <trkpt lat="45.87459" lon="1.30079">
        <ele>358.2640969</ele>
        <time>2022-07-31T19:15:03Z</time>
      </trkpt>
      <trkpt lat="45.87476" lon="1.30087">
        <ele>358.0703942</ele>
        <time>2022-07-31T19:15:05Z</time>
      </trkpt>
      <trkpt lat="45.87494" lon="1.30095">
        <ele>357.6418447</ele>
        <time>2022-07-31T19:15:07Z</time>
      </trkpt>
      <trkpt lat="45.87512" lon="1.30103">
        <ele>356.8349842</ele>
        <time>2022-07-31T19:15:09Z</time>
      </trkpt>
      <trkpt lat="45.8753" lon="1.3011">
        <ele>356.3668315</ele>
        <time>2022-07-31T19:15:11Z</time>
      </trkpt>
      <trkpt lat="45.87548" lon="1.30118">
        <ele>355.6127142</ele>
        <time>2022-07-31T19:15:13Z</time>
      </trkpt>
      <trkpt lat="45.87566" lon="1.30126">
        <ele>355.1604073</ele>
        <time>2022-07-31T19:15:15Z</time>
      </trkpt>
      <trkpt lat="45.87583" lon="1.30134">
        <ele>354.6680954</ele>
        <time>2022-07-31T19:15:17Z</time>
      </trkpt>
      <trkpt lat="45.876" lon="1.30141">
        <ele>354.1386553</ele>
        <time>2022-07-31T19:15:19Z</time>
      </trkpt>
      <trkpt lat="45.87618" lon="1.3015">
        <ele>353.866887</ele>
        <time>2022-07-31T19:15:21Z</time>
      </trkpt>
      <trkpt lat="45.87635" lon="1.30157">
        <ele>352.5298914</ele>
        <time>2022-07-31T19:15:23Z</time>
      </trkpt>
      <trkpt lat="45.87652" lon="1.30164">
        <ele>352.58088</ele>
        <time>2022-07-31T19:15:25Z</time>
      </trkpt>
      <trkpt lat="45.87668" lon="1.30171">
        <ele>352.2050728</ele>
        <time>2022-07-31T19:15:27Z</time>
      </trkpt>
      <trkpt lat="45.87685" lon="1.30175">
        <ele>351.6067446</ele>
        <time>2022-07-31T19:15:29Z</time>
      </trkpt>
      <trkpt lat="45.87701" lon="1.30176">
        <ele>351.4981867</ele>
        <time>2022-07-31T19:15:31Z</time>
      </trkpt>
      <trkpt lat="45.87717" lon="1.30176">
        <ele>351.0083439</ele>
        <time>2022-07-31T19:15:33Z</time>
      </trkpt>
      <trkpt lat="45.87731" lon="1.30173">
        <ele>350.7785415</ele>
        <time>2022-07-31T19:15:35Z</time>
      </trkpt>
      <trkpt lat="45.87745" lon="1.30168">
        <ele>351.015314</ele>
        <time>2022-07-31T19:15:37Z</time>
      </trkpt>
      <trkpt lat="45.87758" lon="1.30161">
        <ele>351.2046031</ele>
        <time>2022-07-31T19:15:39Z</time>
      </trkpt>
      <trkpt lat="45.87769" lon="1.30152">
        <ele>350.8195371</ele>
        <time>2022-07-31T19:15:41Z</time>
      </trkpt>
      <trkpt lat="45.87781" lon="1.30145">
        <ele>351.0177992</ele>
        <time>2022-07-31T19:15:43Z</time>
      </trkpt>
      <trkpt lat="45.8779" lon="1.30137">
        <ele>350.852516</ele>
        <time>2022-07-31T19:15:45Z</time>
      </trkpt>
      <trkpt lat="45.87799" lon="1.30127">
        <ele>351.0621923</ele>
        <time>2022-07-31T19:15:47Z</time>
      </trkpt>
      <trkpt lat="45.87807" lon="1.30118">
        <ele>351.2809641</ele>
        <time>2022-07-31T19:15:49Z</time>
      </trkpt>
      <trkpt lat="45.87814" lon="1.30107">
        <ele>352.0728702</ele>
        <time>2022-07-31T19:15:51Z</time>
      </trkpt>
      <trkpt lat="45.8782" lon="1.30099">
        <ele>352.0153836</ele>
        <time>2022-07-31T19:15:53Z</time>
      </trkpt>
      <trkpt lat="45.87826" lon="1.30089">
        <ele>351.923015</ele>
        <time>2022-07-31T19:15:55Z</time>
      </trkpt>
      <trkpt lat="45.8783" lon="1.30081">
        <ele>352.4657664</ele>
        <time>2022-07-31T19:15:57Z</time>
      </trkpt>
      <trkpt lat="45.87833" lon="1.30071">
        <ele>352.214807</ele>
        <time>2022-07-31T19:15:59Z</time>
      </trkpt>
      <trkpt lat="45.87836" lon="1.30062">
        <ele>351.7400486</ele>
        <time>2022-07-31T19:16:01Z</time>
      </trkpt>
      <trkpt lat="45.87838" lon="1.30053">
        <ele>351.5951321</ele>
        <time>2022-07-31T19:16:03Z</time>
      </trkpt>
      <trkpt lat="45.87841" lon="1.30046">
        <ele>351.8158861</ele>
        <time>2022-07-31T19:16:05Z</time>
      </trkpt>
      <trkpt lat="45.87846" lon="1.30041">
        <ele>351.6417799</ele>
        <time>2022-07-31T19:16:07Z</time>
      </trkpt>
      <trkpt lat="45.87852" lon="1.30037">
        <ele>351.465725</ele>
        <time>2022-07-31T19:16:09Z</time>
      </trkpt>
      <trkpt lat="45.87858" lon="1.3003">
        <ele>351.5603192</ele>
        <time>2022-07-31T19:16:11Z</time>
      </trkpt>
      <trkpt lat="45.87861" lon="1.30019">
        <ele>351.6490851</ele>
        <time>2022-07-31T19:16:13Z</time>
      </trkpt>
      <trkpt lat="45.8786" lon="1.30008">
        <ele>351.4170075</ele>
        <time>2022-07-31T19:16:15Z</time>
      </trkpt>
      <trkpt lat="45.8786" lon="1.29998">
        <ele>351.8950359</ele>
        <time>2022-07-31T19:16:17Z</time>
      </trkpt>
      <trkpt lat="45.87859" lon="1.29988">
        <ele>352.5273014</ele>
        <time>2022-07-31T19:16:19Z</time>
      </trkpt>
      <trkpt lat="45.87861" lon="1.29978">
        <ele>352.7135045</ele>
        <time>2022-07-31T19:16:21Z</time>
      </trkpt>
      <trkpt lat="45.87864" lon="1.29968">
        <ele>353.5790333</ele>
        <time>2022-07-31T19:16:23Z</time>
      </trkpt>
      <trkpt lat="45.87869" lon="1.29959">
        <ele>353.7858661</ele>
        <time>2022-07-31T19:16:25Z</time>
      </trkpt>
      <trkpt lat="45.87873" lon="1.2995">
        <ele>353.5284937</ele>
        <time>2022-07-31T19:16:27Z</time>
      </trkpt>
      <trkpt lat="45.87878" lon="1.2994">
        <ele>354.0241262</ele>
        <time>2022-07-31T19:16:29Z</time>
      </trkpt>
      <trkpt lat="45.87882" lon="1.29931">
        <ele>354.0821626</ele>
        <time>2022-07-31T19:16:31Z</time>
      </trkpt>
      <trkpt lat="45.87886" lon="1.29921">
        <ele>353.682587</ele>
        <time>2022-07-31T19:16:33Z</time>
      </trkpt>
      <trkpt lat="45.87891" lon="1.29912">
        <ele>353.2775094</ele>
        <time>2022-07-31T19:16:35Z</time>
      </trkpt>
      <trkpt lat="45.87895" lon="1.29903">
        <ele>352.8887302</ele>
        <time>2022-07-31T19:16:37Z</time>
      </trkpt>
      <trkpt lat="45.87899" lon="1.29893">
        <ele>352.8148796</ele>
        <time>2022-07-31T19:16:39Z</time>
      </trkpt>
      <trkpt lat="45.87904" lon="1.29883">
        <ele>353.1606241</ele>
        <time>2022-07-31T19:16:41Z</time>
      </trkpt>
      <trkpt lat="45.87909" lon="1.29874">
        <ele>353.2872439</ele>
        <time>2022-07-31T19:16:43Z</time>
      </trkpt>
      <trkpt lat="45.87914" lon="1.29865">
        <ele>353.312282</ele>
        <time>2022-07-31T19:16:45Z</time>
      </trkpt>
      <trkpt lat="45.87919" lon="1.29857">
        <ele>353.463368</ele>
        <time>2022-07-31T19:16:47Z</time>
      </trkpt>
      <trkpt lat="45.87925" lon="1.29849">
        <ele>353.5761677</ele>
        <time>2022-07-31T19:16:49Z</time>
      </trkpt>
      <trkpt lat="45.8793" lon="1.29841">
        <ele>353.5314266</ele>
        <time>2022-07-31T19:16:51Z</time>
      </trkpt>
      <trkpt lat="45.87935" lon="1.29833">
        <ele>354.4030641</ele>
        <time>2022-07-31T19:16:53Z</time>
      </trkpt>
      <trkpt lat="45.8794" lon="1.29826">
        <ele>354.5961704</ele>
        <time>2022-07-31T19:16:55Z</time>
      </trkpt>
      <trkpt lat="45.87945" lon="1.29818">
        <ele>355.1522246</ele>
        <time>2022-07-31T19:16:57Z</time>
      </trkpt>
      <trkpt lat="45.87951" lon="1.29811">
        <ele>355.0878863</ele>
        <time>2022-07-31T19:16:59Z</time>
      </trkpt>
      <trkpt lat="45.87957" lon="1.29802">
        <ele>355.10005</ele>
        <time>2022-07-31T19:17:01Z</time>
      </trkpt>
      <trkpt lat="45.87962" lon="1.29795">
        <ele>356.116126</ele>
        <time>2022-07-31T19:17:03Z</time>
      </trkpt>
      <trkpt lat="45.87968" lon="1.29786">
        <ele>356.550894</ele>
        <time>2022-07-31T19:17:05Z</time>
      </trkpt>
      <trkpt lat="45.87974" lon="1.29779">
        <ele>356.720984</ele>
        <time>2022-07-31T19:17:07Z</time>
      </trkpt>
      <trkpt lat="45.87979" lon="1.29771">
        <ele>356.8127428</ele>
        <time>2022-07-31T19:17:09Z</time>
      </trkpt>
      <trkpt lat="45.87984" lon="1.29763">
        <ele>356.4458079</ele>
        <time>2022-07-31T19:17:11Z</time>
      </trkpt>
      <trkpt lat="45.87989" lon="1.29755">
        <ele>356.2925492</ele>
        <time>2022-07-31T19:17:13Z</time>
      </trkpt>
      <trkpt lat="45.87995" lon="1.29745">
        <ele>356.7983382</ele>
        <time>2022-07-31T19:17:15Z</time>
      </trkpt>
      <trkpt lat="45.88001" lon="1.29736">
        <ele>356.3270563</ele>
        <time>2022-07-31T19:17:17Z</time>
      </trkpt>
      <trkpt lat="45.88007" lon="1.29727">
        <ele>355.8667319</ele>
        <time>2022-07-31T19:17:19Z</time>
      </trkpt>
      <trkpt lat="45.88012" lon="1.29718">
        <ele>355.7411003</ele>
        <time>2022-07-31T19:17:21Z</time>
      </trkpt>
      <trkpt lat="45.88018" lon="1.29708">
        <ele>355.6400834</ele>
        <time>2022-07-31T19:17:23Z</time>
      </trkpt>
      <trkpt lat="45.88023" lon="1.29698">
        <ele>355.60989</ele>
        <time>2022-07-31T19:17:25Z</time>
      </trkpt>
      <trkpt lat="45.88029" lon="1.29688">
        <ele>355.4759721</ele>
        <time>2022-07-31T19:17:27Z</time>
      </trkpt>
      <trkpt lat="45.88034" lon="1.29677">
        <ele>355.3794817</ele>
        <time>2022-07-31T19:17:29Z</time>
      </trkpt>
      <trkpt lat="45.88039" lon="1.29666">
        <ele>355.2498617</ele>
        <time>2022-07-31T19:17:31Z</time>
      </trkpt>
      <trkpt lat="45.88044" lon="1.29656">
        <ele>355.054125</ele>
        <time>2022-07-31T19:17:33Z</time>
      </trkpt>
      <trkpt lat="45.88049" lon="1.29644">
        <ele>354.7202957</ele>
        <time>2022-07-31T19:17:35Z</time>
      </trkpt>
      <trkpt lat="45.88054" lon="1.29633">
        <ele>354.50648</ele>
        <time>2022-07-31T19:17:37Z</time>
      </trkpt>
      <trkpt lat="45.88059" lon="1.29621">
        <ele>354.1251334</ele>
        <time>2022-07-31T19:17:39Z</time>
      </trkpt>
      <trkpt lat="45.88063" lon="1.2961">
        <ele>353.7815333</ele>
        <time>2022-07-31T19:17:41Z</time>
      </trkpt>
      <trkpt lat="45.88067" lon="1.29597">
        <ele>353.7499965</ele>
        <time>2022-07-31T19:17:43Z</time>
      </trkpt>
      <trkpt lat="45.88072" lon="1.29585">
        <ele>353.9415322</ele>
        <time>2022-07-31T19:17:45Z</time>
      </trkpt>
      <trkpt lat="45.88076" lon="1.29573">
        <ele>353.5988398</ele>
        <time>2022-07-31T19:17:47Z</time>
      </trkpt>
      <trkpt lat="45.8808" lon="1.29562">
        <ele>353.6582927</ele>
        <time>2022-07-31T19:17:49Z</time>
      </trkpt>
      <trkpt lat="45.88085" lon="1.2955">
        <ele>353.1473265</ele>
        <time>2022-07-31T19:17:51Z</time>
      </trkpt>
      <trkpt lat="45.88089" lon="1.29538">
        <ele>353.4088632</ele>
        <time>2022-07-31T19:17:53Z</time>
      </trkpt>
      <trkpt lat="45.88094" lon="1.29526">
        <ele>353.7662837</ele>
        <time>2022-07-31T19:17:55Z</time>
      </trkpt>
      <trkpt lat="45.88097" lon="1.29516">
        <ele>353.9971757</ele>
        <time>2022-07-31T19:17:57Z</time>
      </trkpt>
      <trkpt lat="45.88101" lon="1.29507">
        <ele>353.8179972</ele>
        <time>2022-07-31T19:17:59Z</time>
      </trkpt>
      <trkpt lat="45.88105" lon="1.29499">
        <ele>353.8896172</ele>
        <time>2022-07-31T19:18:01Z</time>
      </trkpt>
      <trkpt lat="45.88113" lon="1.29495">
        <ele>354.0664479</ele>
        <time>2022-07-31T19:18:03Z</time>
      </trkpt>
      <trkpt lat="45.88121" lon="1.29494">
        <ele>353.5364609</ele>
        <time>2022-07-31T19:18:05Z</time>
      </trkpt>
      <trkpt lat="45.88129" lon="1.2949">
        <ele>353.2397361</ele>
        <time>2022-07-31T19:18:07Z</time>
      </trkpt>
      <trkpt lat="45.88136" lon="1.29482">
        <ele>352.851367</ele>
        <time>2022-07-31T19:18:09Z</time>
      </trkpt>
      <trkpt lat="45.8814" lon="1.29471">
        <ele>352.5883655</ele>
        <time>2022-07-31T19:18:11Z</time>
      </trkpt>
      <trkpt lat="45.88142" lon="1.29459">
        <ele>352.3863079</ele>
        <time>2022-07-31T19:18:13Z</time>
      </trkpt>
      <trkpt lat="45.88142" lon="1.29447">
        <ele>352.1089472</ele>
        <time>2022-07-31T19:18:15Z</time>
      </trkpt>
      <trkpt lat="45.88142" lon="1.29435">
        <ele>352.087468</ele>
        <time>2022-07-31T19:18:17Z</time>
      </trkpt>
      <trkpt lat="45.88144" lon="1.29422">
        <ele>352.1478591</ele>
        <time>2022-07-31T19:18:19Z</time>
      </trkpt>
      <trkpt lat="45.88149" lon="1.29409">
        <ele>351.7135916</ele>
        <time>2022-07-31T19:18:21Z</time>
      </trkpt>
      <trkpt lat="45.88155" lon="1.29397">
        <ele>351.6114891</ele>
        <time>2022-07-31T19:18:23Z</time>
      </trkpt>
      <trkpt lat="45.88161" lon="1.29383">
        <ele>351.1790847</ele>
        <time>2022-07-31T19:18:25Z</time>
      </trkpt>
      <trkpt lat="45.88167" lon="1.2937">
        <ele>350.79716</ele>
        <time>2022-07-31T19:18:27Z</time>
      </trkpt>
      <trkpt lat="45.88173" lon="1.29355">
        <ele>350.5049956</ele>
        <time>2022-07-31T19:18:29Z</time>
      </trkpt>
      <trkpt lat="45.88179" lon="1.29341">
        <ele>350.3289362</ele>
        <time>2022-07-31T19:18:31Z</time>
      </trkpt>
      <trkpt lat="45.88186" lon="1.29328">
        <ele>349.9629359</ele>
        <time>2022-07-31T19:18:33Z</time>
      </trkpt>
      <trkpt lat="45.88193" lon="1.29314">
        <ele>349.7622774</ele>
        <time>2022-07-31T19:18:35Z</time>
      </trkpt>
      <trkpt lat="45.882" lon="1.293">
        <ele>349.5509816</ele>
        <time>2022-07-31T19:18:37Z</time>
      </trkpt>
      <trkpt lat="45.88208" lon="1.29285">
        <ele>349.6277409</ele>
        <time>2022-07-31T19:18:39Z</time>
      </trkpt>
      <trkpt lat="45.88215" lon="1.2927">
        <ele>349.3834948</ele>
        <time>2022-07-31T19:18:41Z</time>
      </trkpt>
      <trkpt lat="45.88223" lon="1.29254">
        <ele>348.9952075</ele>
        <time>2022-07-31T19:18:43Z</time>
      </trkpt>
      <trkpt lat="45.88231" lon="1.2924">
        <ele>348.3630392</ele>
        <time>2022-07-31T19:18:45Z</time>
      </trkpt>
      <trkpt lat="45.88239" lon="1.29226">
        <ele>347.9016727</ele>
        <time>2022-07-31T19:18:47Z</time>
      </trkpt>
      <trkpt lat="45.88245" lon="1.29211">
        <ele>347.53329</ele>
        <time>2022-07-31T19:18:49Z</time>
      </trkpt>
      <trkpt lat="45.88251" lon="1.29195">
        <ele>347.1006197</ele>
        <time>2022-07-31T19:18:51Z</time>
      </trkpt>
      <trkpt lat="45.88257" lon="1.29178">
        <ele>346.1794825</ele>
        <time>2022-07-31T19:18:53Z</time>
      </trkpt>
      <trkpt lat="45.88263" lon="1.2916">
        <ele>345.4105765</ele>
        <time>2022-07-31T19:18:55Z</time>
      </trkpt>
      <trkpt lat="45.88269" lon="1.29142">
        <ele>344.9752944</ele>
        <time>2022-07-31T19:18:57Z</time>
      </trkpt>
      <trkpt lat="45.88274" lon="1.29124">
        <ele>344.0726152</ele>
        <time>2022-07-31T19:18:59Z</time>
      </trkpt>
      <trkpt lat="45.88278" lon="1.29104">
        <ele>343.3258263</ele>
        <time>2022-07-31T19:19:01Z</time>
      </trkpt>
      <trkpt lat="45.88281" lon="1.29086">
        <ele>342.4399634</ele>
        <time>2022-07-31T19:19:03Z</time>
      </trkpt>
      <trkpt lat="45.88283" lon="1.29066">
        <ele>341.5778305</ele>
        <time>2022-07-31T19:19:05Z</time>
      </trkpt>
      <trkpt lat="45.88286" lon="1.29048">
        <ele>341.0167227</ele>
        <time>2022-07-31T19:19:07Z</time>
      </trkpt>
      <trkpt lat="45.88287" lon="1.29031">
        <ele>340.3070758</ele>
        <time>2022-07-31T19:19:09Z</time>
      </trkpt>
      <trkpt lat="45.88287" lon="1.29013">
        <ele>340.1709882</ele>
        <time>2022-07-31T19:19:11Z</time>
      </trkpt>
      <trkpt lat="45.88287" lon="1.28996">
        <ele>339.7506381</ele>
        <time>2022-07-31T19:19:13Z</time>
      </trkpt>
      <trkpt lat="45.88287" lon="1.28978">
        <ele>339.371794</ele>
        <time>2022-07-31T19:19:15Z</time>
      </trkpt>
      <trkpt lat="45.88288" lon="1.28959">
        <ele>338.6589259</ele>
        <time>2022-07-31T19:19:17Z</time>
      </trkpt>
      <trkpt lat="45.88289" lon="1.28944">
        <ele>338.3747833</ele>
        <time>2022-07-31T19:19:19Z</time>
      </trkpt>
      <trkpt lat="45.88293" lon="1.28931">
        <ele>338.1730525</ele>
        <time>2022-07-31T19:19:21Z</time>
      </trkpt>
      <trkpt lat="45.88302" lon="1.28925">
        <ele>337.9562069</ele>
        <time>2022-07-31T19:19:23Z</time>
      </trkpt>
      <trkpt lat="45.88311" lon="1.28928">
        <ele>338.4406083</ele>
        <time>2022-07-31T19:19:25Z</time>
      </trkpt>
      <trkpt lat="45.88318" lon="1.28937">
        <ele>338.8044273</ele>
        <time>2022-07-31T19:19:27Z</time>
      </trkpt>
      <trkpt lat="45.88324" lon="1.28945">
        <ele>339.3851999</ele>
        <time>2022-07-31T19:19:29Z</time>
      </trkpt>
      <trkpt lat="45.88332" lon="1.2895">
        <ele>339.6966399</ele>
        <time>2022-07-31T19:19:31Z</time>
      </trkpt>
      <trkpt lat="45.88338" lon="1.28955">
        <ele>339.7305258</ele>
        <time>2022-07-31T19:19:33Z</time>
      </trkpt>
      <trkpt lat="45.88345" lon="1.28961">
        <ele>339.6006767</ele>
        <time>2022-07-31T19:19:35Z</time>
      </trkpt>
      <trkpt lat="45.88352" lon="1.28965">
        <ele>339.9886846</ele>
        <time>2022-07-31T19:19:37Z</time>
      </trkpt>
      <trkpt lat="45.88359" lon="1.28967">
        <ele>340.3405718</ele>
        <time>2022-07-31T19:19:39Z</time>
      </trkpt>
      <trkpt lat="45.88367" lon="1.28969">
        <ele>340.3380308</ele>
        <time>2022-07-31T19:19:41Z</time>
      </trkpt>
      <trkpt lat="45.88374" lon="1.28971">
        <ele>340.145416</ele>
        <time>2022-07-31T19:19:43Z</time>
      </trkpt>
      <trkpt lat="45.88381" lon="1.28973">
        <ele>340.3709649</ele>
        <time>2022-07-31T19:19:45Z</time>
      </trkpt>
      <trkpt lat="45.88388" lon="1.28976">
        <ele>340.9064406</ele>
        <time>2022-07-31T19:19:47Z</time>
      </trkpt>
      <trkpt lat="45.88395" lon="1.28977">
        <ele>341.5777303</ele>
        <time>2022-07-31T19:19:49Z</time>
      </trkpt>
      <trkpt lat="45.88402" lon="1.28979">
        <ele>341.0304297</ele>
        <time>2022-07-31T19:19:51Z</time>
      </trkpt>
      <trkpt lat="45.88409" lon="1.2898">
        <ele>341.379025</ele>
        <time>2022-07-31T19:19:53Z</time>
      </trkpt>
      <trkpt lat="45.88417" lon="1.28983">
        <ele>341.4801946</ele>
        <time>2022-07-31T19:19:55Z</time>
      </trkpt>
      <trkpt lat="45.88423" lon="1.28985">
        <ele>341.3114088</ele>
        <time>2022-07-31T19:19:57Z</time>
      </trkpt>
      <trkpt lat="45.88431" lon="1.28986">
        <ele>341.7047132</ele>
        <time>2022-07-31T19:19:59Z</time>
      </trkpt>
      <trkpt lat="45.88437" lon="1.28988">
        <ele>342.1008899</ele>
        <time>2022-07-31T19:20:01Z</time>
      </trkpt>
      <trkpt lat="45.88444" lon="1.28989">
        <ele>342.2925364</ele>
        <time>2022-07-31T19:20:03Z</time>
      </trkpt>
      <trkpt lat="45.88451" lon="1.28991">
        <ele>342.1472587</ele>
        <time>2022-07-31T19:20:05Z</time>
      </trkpt>
      <trkpt lat="45.88458" lon="1.28992">
        <ele>342.3542706</ele>
        <time>2022-07-31T19:20:07Z</time>
      </trkpt>
      <trkpt lat="45.88465" lon="1.28993">
        <ele>342.5620393</ele>
        <time>2022-07-31T19:20:09Z</time>
      </trkpt>
      <trkpt lat="45.88473" lon="1.28996">
        <ele>342.6891701</ele>
        <time>2022-07-31T19:20:11Z</time>
      </trkpt>
      <trkpt lat="45.88481" lon="1.28998">
        <ele>342.7638992</ele>
        <time>2022-07-31T19:20:13Z</time>
      </trkpt>
      <trkpt lat="45.88488" lon="1.29">
        <ele>343.1394171</ele>
        <time>2022-07-31T19:20:15Z</time>
      </trkpt>
      <trkpt lat="45.88496" lon="1.29001">
        <ele>343.6979694</ele>
        <time>2022-07-31T19:20:17Z</time>
      </trkpt>
      <trkpt lat="45.88503" lon="1.29003">
        <ele>343.6072175</ele>
        <time>2022-07-31T19:20:19Z</time>
      </trkpt>
      <trkpt lat="45.8851" lon="1.29005">
        <ele>343.807057</ele>
        <time>2022-07-31T19:20:21Z</time>
      </trkpt>
      <trkpt lat="45.88517" lon="1.29007">
        <ele>344.2731765</ele>
        <time>2022-07-31T19:20:23Z</time>
      </trkpt>
      <trkpt lat="45.88524" lon="1.29009">
        <ele>344.4782901</ele>
        <time>2022-07-31T19:20:25Z</time>
      </trkpt>
      <trkpt lat="45.88532" lon="1.2901">
        <ele>344.7368455</ele>
        <time>2022-07-31T19:20:27Z</time>
      </trkpt>
      <trkpt lat="45.88539" lon="1.29012">
        <ele>345.2442607</ele>
        <time>2022-07-31T19:20:29Z</time>
      </trkpt>
      <trkpt lat="45.88547" lon="1.29014">
        <ele>345.9826388</ele>
        <time>2022-07-31T19:20:31Z</time>
      </trkpt>
      <trkpt lat="45.88554" lon="1.29016">
        <ele>345.983761</ele>
        <time>2022-07-31T19:20:33Z</time>
      </trkpt>
      <trkpt lat="45.88562" lon="1.29018">
        <ele>346.4425039</ele>
        <time>2022-07-31T19:20:35Z</time>
      </trkpt>
      <trkpt lat="45.88569" lon="1.2902">
        <ele>346.5107223</ele>
        <time>2022-07-31T19:20:37Z</time>
      </trkpt>
      <trkpt lat="45.88576" lon="1.29022">
        <ele>346.555259</ele>
        <time>2022-07-31T19:20:39Z</time>
      </trkpt>
      <trkpt lat="45.88583" lon="1.29023">
        <ele>346.6848453</ele>
        <time>2022-07-31T19:20:41Z</time>
      </trkpt>
      <trkpt lat="45.8859" lon="1.29024">
        <ele>346.8084888</ele>
        <time>2022-07-31T19:20:43Z</time>
      </trkpt>
      <trkpt lat="45.88597" lon="1.29026">
        <ele>346.6310819</ele>
        <time>2022-07-31T19:20:45Z</time>
      </trkpt>
      <trkpt lat="45.88603" lon="1.29027">
        <ele>346.6301394</ele>
        <time>2022-07-31T19:20:47Z</time>
      </trkpt>
      <trkpt lat="45.8861" lon="1.29028">
        <ele>346.6515288</ele>
        <time>2022-07-31T19:20:49Z</time>
      </trkpt>
      <trkpt lat="45.88617" lon="1.29029">
        <ele>346.1461667</ele>
        <time>2022-07-31T19:20:51Z</time>
      </trkpt>
      <trkpt lat="45.88623" lon="1.29031">
        <ele>345.630621</ele>
        <time>2022-07-31T19:20:53Z</time>
      </trkpt>
      <trkpt lat="45.8863" lon="1.29033">
        <ele>344.7663525</ele>
        <time>2022-07-31T19:20:55Z</time>
      </trkpt>
      <trkpt lat="45.88636" lon="1.29035">
        <ele>344.3163977</ele>
        <time>2022-07-31T19:20:57Z</time>
      </trkpt>
      <trkpt lat="45.88642" lon="1.29036">
        <ele>343.6984215</ele>
        <time>2022-07-31T19:20:59Z</time>
      </trkpt>
      <trkpt lat="45.88647" lon="1.29038">
        <ele>343.0903319</ele>
        <time>2022-07-31T19:21:01Z</time>
      </trkpt>
      <trkpt lat="45.88653" lon="1.29039">
        <ele>342.5758426</ele>
        <time>2022-07-31T19:21:03Z</time>
      </trkpt>
      <trkpt lat="45.8866" lon="1.29041">
        <ele>342.6765725</ele>
        <time>2022-07-31T19:21:05Z</time>
      </trkpt>
      <trkpt lat="45.88665" lon="1.29043">
        <ele>342.4965497</ele>
        <time>2022-07-31T19:21:07Z</time>
      </trkpt>
      <trkpt lat="45.8867" lon="1.29042">
        <ele>342.5941054</ele>
        <time>2022-07-31T19:21:09Z</time>
      </trkpt>
      <trkpt lat="45.88673" lon="1.29037">
        <ele>342.8129577</ele>
        <time>2022-07-31T19:21:11Z</time>
      </trkpt>
      <trkpt lat="45.88675" lon="1.29033">
        <ele>342.4541966</ele>
        <time>2022-07-31T19:21:13Z</time>
      </trkpt>
      <trkpt lat="45.88676" lon="1.29028">
        <ele>342.0189082</ele>
        <time>2022-07-31T19:21:15Z</time>
      </trkpt>
      <trkpt lat="45.88676" lon="1.29021">
        <ele>341.5688309</ele>
        <time>2022-07-31T19:21:17Z</time>
      </trkpt>
      <trkpt lat="45.88676" lon="1.29014">
        <ele>341.2354458</ele>
        <time>2022-07-31T19:21:19Z</time>
      </trkpt>
      <trkpt lat="45.88677" lon="1.29008">
        <ele>340.7502229</ele>
        <time>2022-07-31T19:21:21Z</time>
      </trkpt>
      <trkpt lat="45.88678" lon="1.29002">
        <ele>340.1979068</ele>
        <time>2022-07-31T19:21:23Z</time>
      </trkpt>
      <trkpt lat="45.88679" lon="1.28998">
        <ele>340.0420782</ele>
        <time>2022-07-31T19:21:25Z</time>
      </trkpt>
      <trkpt lat="45.88682" lon="1.28994">
        <ele>338.9435226</ele>
        <time>2022-07-31T19:21:27Z</time>
      </trkpt>
      <trkpt lat="45.88686" lon="1.28993">
        <ele>339.4416459</ele>
        <time>2022-07-31T19:21:29Z</time>
      </trkpt>
      <trkpt lat="45.88687" lon="1.28993">
        <ele>339.6042176</ele>
        <time>2022-07-31T19:21:31Z</time>
      </trkpt>
      <trkpt lat="45.8869" lon="1.28994">
        <ele>339.4520705</ele>
        <time>2022-07-31T19:21:33Z</time>
      </trkpt>
      <trkpt lat="45.88691" lon="1.28995">
        <ele>339.5575407</ele>
        <time>2022-07-31T19:21:35Z</time>
      </trkpt>
      <trkpt lat="45.88692" lon="1.28994">
        <ele>339.6290842</ele>
        <time>2022-07-31T19:21:37Z</time>
      </trkpt>
      <trkpt lat="45.88692" lon="1.28994">
        <ele>339.741314</ele>
        <time>2022-07-31T19:21:39Z</time>
      </trkpt>
      <trkpt lat="45.88692" lon="1.28994">
        <ele>339.7776525</ele>
        <time>2022-07-31T19:21:41Z</time>
      </trkpt>
      <trkpt lat="45.88692" lon="1.28993">
        <ele>339.9001612</ele>
        <time>2022-07-31T19:21:43Z</time>
      </trkpt>
      <trkpt lat="45.88691" lon="1.28992">
        <ele>339.9116043</ele>
        <time>2022-07-31T19:21:45Z</time>
      </trkpt>
      <trkpt lat="45.8869" lon="1.28993">
        <ele>339.7280229</ele>
        <time>2022-07-31T19:21:47Z</time>
      </trkpt>
      <trkpt lat="45.88689" lon="1.28993">
        <ele>339.354413</ele>
        <time>2022-07-31T19:21:49Z</time>
      </trkpt>
      <trkpt lat="45.88687" lon="1.28994">
        <ele>338.815246</ele>
        <time>2022-07-31T19:21:51Z</time>
      </trkpt>
      <trkpt lat="45.88684" lon="1.28994">
        <ele>338.655143</ele>
        <time>2022-07-31T19:21:53Z</time>
      </trkpt>
      <trkpt lat="45.88683" lon="1.28994">
        <ele>338.3302538</ele>
        <time>2022-07-31T19:21:55Z</time>
      </trkpt>
      <trkpt lat="45.88682" lon="1.28995">
        <ele>338.1883434</ele>
        <time>2022-07-31T19:21:57Z</time>
      </trkpt>
      <trkpt lat="45.88682" lon="1.28996">
        <ele>337.6302692</ele>
        <time>2022-07-31T19:21:59Z</time>
      </trkpt>
      <trkpt lat="45.88682" lon="1.28996">
        <ele>337.7661131</ele>
        <time>2022-07-31T19:22:01Z</time>
      </trkpt>
      <trkpt lat="45.88682" lon="1.28996">
        <ele>338.325388</ele>
        <time>2022-07-31T19:22:03Z</time>
      </trkpt>
      <trkpt lat="45.88682" lon="1.28997">
        <ele>338.0239258</ele>
        <time>2022-07-31T19:22:05Z</time>
      </trkpt>
      <trkpt lat="45.88681" lon="1.28996">
        <ele>338.6704415</ele>
        <time>2022-07-31T19:22:07Z</time>
      </trkpt>
      <trkpt lat="45.88681" lon="1.28996">
        <ele>338.6548453</ele>
        <time>2022-07-31T19:22:09Z</time>
      </trkpt>
      <trkpt lat="45.88681" lon="1.28996">
        <ele>338.8943351</ele>
        <time>2022-07-31T19:22:11Z</time>
      </trkpt>
      <trkpt lat="45.88681" lon="1.28995">
        <ele>338.9102776</ele>
        <time>2022-07-31T19:22:13Z</time>
      </trkpt>
      <trkpt lat="45.88681" lon="1.28995">
        <ele>338.5480045</ele>
        <time>2022-07-31T19:22:15Z</time>
      </trkpt>
      <trkpt lat="45.8868" lon="1.28994">
        <ele>337.7011641</ele>
        <time>2022-07-31T19:22:17Z</time>
      </trkpt>
      <trkpt lat="45.8868" lon="1.28994">
        <ele>337.9544108</ele>
        <time>2022-07-31T19:22:19Z</time>
      </trkpt>
      <trkpt lat="45.8868" lon="1.28994">
        <ele>337.4940038</ele>
        <time>2022-07-31T19:22:21Z</time>
      </trkpt>
      <trkpt lat="45.8868" lon="1.28994">
        <ele>336.8713549</ele>
        <time>2022-07-31T19:22:23Z</time>
      </trkpt>
      <trkpt lat="45.8868" lon="1.28994">
        <ele>336.8007474</ele>
        <time>2022-07-31T19:22:25Z</time>
      </trkpt>
      <trkpt lat="45.8868" lon="1.28994">
        <ele>336.7455121</ele>
        <time>2022-07-31T19:22:27Z</time>
      </trkpt>
      <trkpt lat="45.88679" lon="1.28994">
        <ele>337.2029056</ele>
        <time>2022-07-31T19:22:29Z</time>
      </trkpt>
      <trkpt lat="45.88679" lon="1.28995">
        <ele>337.7663037</ele>
        <time>2022-07-31T19:22:31Z</time>
      </trkpt>
      <trkpt lat="45.88679" lon="1.28996">
        <ele>337.3430394</ele>
        <time>2022-07-31T19:22:33Z</time>
      </trkpt>
      <trkpt lat="45.8868" lon="1.28995">
        <ele>337.590386</ele>
        <time>2022-07-31T19:22:35Z</time>
      </trkpt>
      <trkpt lat="45.8868" lon="1.28994">
        <ele>337.42467</ele>
        <time>2022-07-31T19:22:37Z</time>
      </trkpt>
      <trkpt lat="45.88681" lon="1.28994">
        <ele>336.5723767</ele>
        <time>2022-07-31T19:22:39Z</time>
      </trkpt>
      <trkpt lat="45.88681" lon="1.28994">
        <ele>336.4907738</ele>
        <time>2022-07-31T19:22:41Z</time>
      </trkpt>
      <trkpt lat="45.88681" lon="1.28993">
        <ele>336.2171475</ele>
        <time>2022-07-31T19:22:43Z</time>
      </trkpt>
      <trkpt lat="45.88682" lon="1.28993">
        <ele>336.1019348</ele>
        <time>2022-07-31T19:22:45Z</time>
      </trkpt>
      <trkpt lat="45.88681" lon="1.28994">
        <ele>336.1959794</ele>
        <time>2022-07-31T19:22:47Z</time>
      </trkpt>
      <trkpt lat="45.88681" lon="1.28996">
        <ele>336.5254649</ele>
        <time>2022-07-31T19:22:49Z</time>
      </trkpt>
      <trkpt lat="45.88683" lon="1.28995">
        <ele>335.6204021</ele>
        <time>2022-07-31T19:22:51Z</time>
      </trkpt>
      <trkpt lat="45.88685" lon="1.28994">
        <ele>335.807199</ele>
        <time>2022-07-31T19:22:53Z</time>
      </trkpt>
      <trkpt lat="45.88686" lon="1.28996">
        <ele>336.255888</ele>
        <time>2022-07-31T19:22:55Z</time>
      </trkpt>
      <trkpt lat="45.88687" lon="1.28999">
        <ele>336.5262309</ele>
        <time>2022-07-31T19:22:57Z</time>
      </trkpt>
      <trkpt lat="45.88686" lon="1.29002">
        <ele>335.8924171</ele>
        <time>2022-07-31T19:22:59Z</time>
      </trkpt>
      <trkpt lat="45.88686" lon="1.29002">
        <ele>335.6152437</ele>
        <time>2022-07-31T19:23:01Z</time>
      </trkpt>
      <trkpt lat="45.88685" lon="1.29001">
        <ele>335.086623</ele>
        <time>2022-07-31T19:23:03Z</time>
      </trkpt>
      <trkpt lat="45.88685" lon="1.29001">
        <ele>335.2390309</ele>
        <time>2022-07-31T19:23:05Z</time>
      </trkpt>
      <trkpt lat="45.88685" lon="1.29001">
        <ele>335.0214239</ele>
        <time>2022-07-31T19:23:07Z</time>
      </trkpt>
      <trkpt lat="45.88685" lon="1.29001">
        <ele>335.0214239</ele>
        <time>2022-07-31T19:23:11Z</time>
      </trkpt>
      <trkpt lat="45.88684" lon="1.28999">
        <ele>337.4502654</ele>
        <time>2022-07-31T19:23:13Z</time>
      </trkpt>
      <trkpt lat="45.88684" lon="1.28998">
        <ele>338.4988776</ele>
        <time>2022-07-31T19:23:15Z</time>
      </trkpt>
      <trkpt lat="45.88684" lon="1.28999">
        <ele>338.8602072</ele>
        <time>2022-07-31T19:23:17Z</time>
      </trkpt>
      <trkpt lat="45.88683" lon="1.28999">
        <ele>338.8872003</ele>
        <time>2022-07-31T19:23:19Z</time>
      </trkpt>
      <trkpt lat="45.88683" lon="1.28999">
        <ele>338.6866973</ele>
        <time>2022-07-31T19:23:21Z</time>
      </trkpt>
      <trkpt lat="45.88683" lon="1.28999">
        <ele>339.5270955</ele>
        <time>2022-07-31T19:23:23Z</time>
      </trkpt>
      <trkpt lat="45.88683" lon="1.28997">
        <ele>339.0297073</ele>
        <time>2022-07-31T19:23:25Z</time>
      </trkpt>
      <trkpt lat="45.88684" lon="1.28994">
        <ele>338.0439035</ele>
        <time>2022-07-31T19:23:27Z</time>
      </trkpt>
      <trkpt lat="45.88683" lon="1.28992">
        <ele>338.2978502</ele>
        <time>2022-07-31T19:23:29Z</time>
      </trkpt>
      <trkpt lat="45.88683" lon="1.28993">
        <ele>337.4213025</ele>
        <time>2022-07-31T19:23:31Z</time>
      </trkpt>
      <trkpt lat="45.88682" lon="1.28995">
        <ele>337.3456816</ele>
        <time>2022-07-31T19:23:33Z</time>
      </trkpt>
      <trkpt lat="45.88682" lon="1.28996">
        <ele>337.3313301</ele>
        <time>2022-07-31T19:23:35Z</time>
      </trkpt>
      <trkpt lat="45.88682" lon="1.28997">
        <ele>337.1890032</ele>
        <time>2022-07-31T19:23:37Z</time>
      </trkpt>
      <trkpt lat="45.8868" lon="1.28998">
        <ele>336.4686176</ele>
        <time>2022-07-31T19:23:39Z</time>
      </trkpt>
      <trkpt lat="45.8868" lon="1.28999">
        <ele>336.015659</ele>
        <time>2022-07-31T19:23:41Z</time>
      </trkpt>
      <trkpt lat="45.8868" lon="1.28999">
        <ele>335.6816311</ele>
        <time>2022-07-31T19:23:43Z</time>
      </trkpt>
      <trkpt lat="45.88681" lon="1.28998">
        <ele>336.7351308</ele>
        <time>2022-07-31T19:23:45Z</time>
      </trkpt>
      <trkpt lat="45.88682" lon="1.28999">
        <ele>337.1225404</ele>
        <time>2022-07-31T19:23:47Z</time>
      </trkpt>
      <trkpt lat="45.88682" lon="1.28999">
        <ele>337.875194</ele>
        <time>2022-07-31T19:23:49Z</time>
      </trkpt>
      <trkpt lat="45.88682" lon="1.28998">
        <ele>337.1208797</ele>
        <time>2022-07-31T19:23:51Z</time>
      </trkpt>
      <trkpt lat="45.88682" lon="1.28997">
        <ele>336.9762582</ele>
        <time>2022-07-31T19:23:53Z</time>
      </trkpt>
      <trkpt lat="45.88682" lon="1.28997">
        <ele>336.9357325</ele>
        <time>2022-07-31T19:23:55Z</time>
      </trkpt>
      <trkpt lat="45.88682" lon="1.28996">
        <ele>337.3116691</ele>
        <time>2022-07-31T19:23:57Z</time>
      </trkpt>
      <trkpt lat="45.88681" lon="1.28996">
        <ele>336.5132342</ele>
        <time>2022-07-31T19:23:59Z</time>
      </trkpt>
      <trkpt lat="45.88682" lon="1.28996">
        <ele>335.9505187</ele>
        <time>2022-07-31T19:24:01Z</time>
      </trkpt>
      <trkpt lat="45.88682" lon="1.28997">
        <ele>335.4799136</ele>
        <time>2022-07-31T19:24:03Z</time>
      </trkpt>
      <trkpt lat="45.88682" lon="1.28997">
        <ele>336.0832759</ele>
        <time>2022-07-31T19:24:05Z</time>
      </trkpt>
      <trkpt lat="45.88681" lon="1.28997">
        <ele>336.3363025</ele>
        <time>2022-07-31T19:24:07Z</time>
      </trkpt>
      <trkpt lat="45.8868" lon="1.28996">
        <ele>336.6169462</ele>
        <time>2022-07-31T19:24:09Z</time>
      </trkpt>
      <trkpt lat="45.88679" lon="1.28993">
        <ele>336.3891844</ele>
        <time>2022-07-31T19:24:11Z</time>
      </trkpt>
      <trkpt lat="45.8868" lon="1.2899">
        <ele>336.8346802</ele>
        <time>2022-07-31T19:24:13Z</time>
      </trkpt>
      <trkpt lat="45.8868" lon="1.28987">
        <ele>336.808708</ele>
        <time>2022-07-31T19:24:15Z</time>
      </trkpt>
      <trkpt lat="45.8868" lon="1.28984">
        <ele>336.8529004</ele>
        <time>2022-07-31T19:24:17Z</time>
      </trkpt>
      <trkpt lat="45.88681" lon="1.2898">
        <ele>336.4125513</ele>
        <time>2022-07-31T19:24:19Z</time>
      </trkpt>
      <trkpt lat="45.88682" lon="1.28978">
        <ele>336.3337521</ele>
        <time>2022-07-31T19:24:21Z</time>
      </trkpt>
      <trkpt lat="45.88682" lon="1.28974">
        <ele>336.302932</ele>
        <time>2022-07-31T19:24:23Z</time>
      </trkpt>
      <trkpt lat="45.88683" lon="1.28971">
        <ele>336.0214273</ele>
        <time>2022-07-31T19:24:25Z</time>
      </trkpt>
      <trkpt lat="45.88683" lon="1.28968">
        <ele>336.001765</ele>
        <time>2022-07-31T19:24:27Z</time>
      </trkpt>
      <trkpt lat="45.88684" lon="1.28965">
        <ele>336.3028397</ele>
        <time>2022-07-31T19:24:29Z</time>
      </trkpt>
      <trkpt lat="45.88685" lon="1.28963">
        <ele>336.8535502</ele>
        <time>2022-07-31T19:24:31Z</time>
      </trkpt>
      <trkpt lat="45.88686" lon="1.28962">
        <ele>337.7190556</ele>
        <time>2022-07-31T19:24:33Z</time>
      </trkpt>
      <trkpt lat="45.88686" lon="1.28962">
        <ele>338.2790864</ele>
        <time>2022-07-31T19:24:35Z</time>
      </trkpt>
      <trkpt lat="45.88688" lon="1.28961">
        <ele>338.4096097</ele>
        <time>2022-07-31T19:24:37Z</time>
      </trkpt>
      <trkpt lat="45.88687" lon="1.28959">
        <ele>337.8993152</ele>
        <time>2022-07-31T19:24:39Z</time>
      </trkpt>
      <trkpt lat="45.88688" lon="1.28958">
        <ele>337.6068751</ele>
        <time>2022-07-31T19:24:41Z</time>
      </trkpt>
      <trkpt lat="45.88688" lon="1.28958">
        <ele>337.4936117</ele>
        <time>2022-07-31T19:24:43Z</time>
      </trkpt>
      <trkpt lat="45.88688" lon="1.28958">
        <ele>336.825923</ele>
        <time>2022-07-31T19:24:45Z</time>
      </trkpt>
      <trkpt lat="45.88688" lon="1.28958">
        <ele>337.0218949</ele>
        <time>2022-07-31T19:24:47Z</time>
      </trkpt>
      <trkpt lat="45.88688" lon="1.28959">
        <ele>335.5350013</ele>
        <time>2022-07-31T19:24:51Z</time>
      </trkpt>
      <trkpt lat="45.88689" lon="1.28959">
        <ele>335.229541</ele>
        <time>2022-07-31T19:24:53Z</time>
      </trkpt>
      <trkpt lat="45.88689" lon="1.28959">
        <ele>335.5164642</ele>
        <time>2022-07-31T19:24:55Z</time>
      </trkpt>
      <trkpt lat="45.88691" lon="1.28959">
        <ele>335.2587006</ele>
        <time>2022-07-31T19:24:57Z</time>
      </trkpt>
      <trkpt lat="45.88691" lon="1.28961">
        <ele>335.2174215</ele>
        <time>2022-07-31T19:24:59Z</time>
      </trkpt>
      <trkpt lat="45.88691" lon="1.28968">
        <ele>337.8118511</ele>
        <time>2022-07-31T19:25:03Z</time>
      </trkpt>
      <trkpt lat="45.88692" lon="1.28968">
        <ele>338.3093264</ele>
        <time>2022-07-31T19:25:05Z</time>
      </trkpt>
      <trkpt lat="45.88692" lon="1.2897">
        <ele>339.6152908</ele>
        <time>2022-07-31T19:25:07Z</time>
      </trkpt>
      <trkpt lat="45.88692" lon="1.2897">
        <ele>339.6405764</ele>
        <time>2022-07-31T19:25:09Z</time>
      </trkpt>
      <trkpt lat="45.88692" lon="1.2897">
        <ele>339.6405764</ele>
        <time>2022-07-31T19:25:13Z</time>
      </trkpt>
      <trkpt lat="45.88692" lon="1.2897">
        <ele>339.6405764</ele>
        <time>2022-07-31T19:25:17Z</time>
      </trkpt>
      <trkpt lat="45.88692" lon="1.2897">
        <ele>339.6405764</ele>
        <time>2022-07-31T19:25:21Z</time>
      </trkpt>
      <trkpt lat="45.88692" lon="1.2897">
        <ele>339.6405764</ele>
        <time>2022-07-31T19:25:25Z</time>
      </trkpt>
      <trkpt lat="45.88692" lon="1.2897">
        <ele>339.6405764</ele>
        <time>2022-07-31T19:25:29Z</time>
      </trkpt>
      <trkpt lat="45.88692" lon="1.2897">
        <ele>339.6405764</ele>
        <time>2022-07-31T19:25:33Z</time>
      </trkpt>
      <trkpt lat="45.88692" lon="1.2897">
        <ele>339.6405764</ele>
        <time>2022-07-31T19:25:37Z</time>
      </trkpt>
      <trkpt lat="45.88692" lon="1.2897">
        <ele>339.6405764</ele>
        <time>2022-07-31T19:25:41Z</time>
      </trkpt>
      <trkpt lat="45.88692" lon="1.2897">
        <ele>339.6405764</ele>
        <time>2022-07-31T19:25:45Z</time>
      </trkpt>
      <trkpt lat="45.88692" lon="1.2897">
        <ele>339.6405764</ele>
        <time>2022-07-31T19:25:49Z</time>
      </trkpt>
      <trkpt lat="45.88692" lon="1.2897">
        <ele>339.6405764</ele>
        <time>2022-07-31T19:25:53Z</time>
      </trkpt>
      <trkpt lat="45.88692" lon="1.2897">
        <ele>339.6405764</ele>
        <time>2022-07-31T19:25:57Z</time>
      </trkpt>
      <trkpt lat="45.88692" lon="1.2897">
        <ele>339.6405764</ele>
        <time>2022-07-31T19:26:01Z</time>
      </trkpt>
      <trkpt lat="45.88692" lon="1.2897">
        <ele>339.6405764</ele>
        <time>2022-07-31T19:26:05Z</time>
      </trkpt>
      <trkpt lat="45.88692" lon="1.2897">
        <ele>339.6405764</ele>
        <time>2022-07-31T19:26:09Z</time>
      </trkpt>
      <trkpt lat="45.88692" lon="1.2897">
        <ele>339.6405764</ele>
        <time>2022-07-31T19:26:13Z</time>
      </trkpt>
      <trkpt lat="45.88692" lon="1.2897">
        <ele>339.6405764</ele>
        <time>2022-07-31T19:26:17Z</time>
      </trkpt>
      <trkpt lat="45.88691" lon="1.28981">
        <ele>343.6553887</ele>
        <time>2022-07-31T19:26:19Z</time>
      </trkpt>
      <trkpt lat="45.88691" lon="1.28981">
        <ele>343.6528551</ele>
        <time>2022-07-31T19:26:21Z</time>
      </trkpt>
      <trkpt lat="45.88691" lon="1.28981">
        <ele>343.6528551</ele>
        <time>2022-07-31T19:26:25Z</time>
      </trkpt>
      <trkpt lat="45.88691" lon="1.28973">
        <ele>341.3234291</ele>
        <time>2022-07-31T19:26:29Z</time>
      </trkpt>
      <trkpt lat="45.88691" lon="1.28973">
        <ele>340.7027881</ele>
        <time>2022-07-31T19:26:31Z</time>
      </trkpt>
      <trkpt lat="45.88691" lon="1.28973">
        <ele>340.8506269</ele>
        <time>2022-07-31T19:26:33Z</time>
      </trkpt>
      <trkpt lat="45.88691" lon="1.28974">
        <ele>341.4367879</ele>
        <time>2022-07-31T19:26:35Z</time>
      </trkpt>
      <trkpt lat="45.88691" lon="1.28973">
        <ele>342.2744333</ele>
        <time>2022-07-31T19:26:37Z</time>
      </trkpt>
      <trkpt lat="45.8869" lon="1.2897">
        <ele>341.8749392</ele>
        <time>2022-07-31T19:26:39Z</time>
      </trkpt>
      <trkpt lat="45.8869" lon="1.28968">
        <ele>340.6809987</ele>
        <time>2022-07-31T19:26:41Z</time>
      </trkpt>
      <trkpt lat="45.88688" lon="1.28964">
        <ele>335.3074505</ele>
        <time>2022-07-31T19:26:45Z</time>
      </trkpt>
      <trkpt lat="45.88688" lon="1.28964">
        <ele>335.2700491</ele>
        <time>2022-07-31T19:26:47Z</time>
      </trkpt>
      <trkpt lat="45.88688" lon="1.28964">
        <ele>335.2700491</ele>
        <time>2022-07-31T19:26:51Z</time>
      </trkpt>
      <trkpt lat="45.88688" lon="1.28964">
        <ele>335.2700491</ele>
        <time>2022-07-31T19:26:55Z</time>
      </trkpt>
      <trkpt lat="45.88688" lon="1.28964">
        <ele>335.2700491</ele>
        <time>2022-07-31T19:26:59Z</time>
      </trkpt>
      <trkpt lat="45.88688" lon="1.28964">
        <ele>335.2700491</ele>
        <time>2022-07-31T19:27:03Z</time>
      </trkpt>
      <trkpt lat="45.88688" lon="1.28964">
        <ele>335.2700491</ele>
        <time>2022-07-31T19:27:07Z</time>
      </trkpt>
      <trkpt lat="45.88688" lon="1.28964">
        <ele>335.2700491</ele>
        <time>2022-07-31T19:27:11Z</time>
      </trkpt>
      <trkpt lat="45.88688" lon="1.28964">
        <ele>335.2700491</ele>
        <time>2022-07-31T19:27:15Z</time>
      </trkpt>
      <trkpt lat="45.88688" lon="1.28964">
        <ele>335.2700491</ele>
        <time>2022-07-31T19:27:19Z</time>
      </trkpt>
      <trkpt lat="45.88688" lon="1.28964">
        <ele>335.2700491</ele>
        <time>2022-07-31T19:27:23Z</time>
      </trkpt>
      <trkpt lat="45.88688" lon="1.28964">
        <ele>335.2700491</ele>
        <time>2022-07-31T19:27:27Z</time>
      </trkpt>
      <trkpt lat="45.8869" lon="1.28969">
        <ele>337.1492032</ele>
        <time>2022-07-31T19:27:29Z</time>
      </trkpt>
      <trkpt lat="45.8869" lon="1.2897">
        <ele>337.5513848</ele>
        <time>2022-07-31T19:27:31Z</time>
      </trkpt>
      <trkpt lat="45.8869" lon="1.2897">
        <ele>337.5513848</ele>
        <time>2022-07-31T19:27:35Z</time>
      </trkpt>
      <trkpt lat="45.8869" lon="1.2897">
        <ele>337.5513848</ele>
        <time>2022-07-31T19:27:39Z</time>
      </trkpt>
      <trkpt lat="45.8869" lon="1.2897">
        <ele>337.5513848</ele>
        <time>2022-07-31T19:27:43Z</time>
      </trkpt>
      <trkpt lat="45.8869" lon="1.2897">
        <ele>337.5513848</ele>
        <time>2022-07-31T19:27:47Z</time>
      </trkpt>
      <trkpt lat="45.8869" lon="1.2897">
        <ele>337.5513848</ele>
        <time>2022-07-31T19:27:51Z</time>
      </trkpt>
      <trkpt lat="45.8869" lon="1.28969">
        <ele>339.1690194</ele>
        <time>2022-07-31T19:27:55Z</time>
      </trkpt>
      <trkpt lat="45.8869" lon="1.28972">
        <ele>339.616503</ele>
        <time>2022-07-31T19:27:57Z</time>
      </trkpt>
      <trkpt lat="45.88689" lon="1.28972">
        <ele>338.9683442</ele>
        <time>2022-07-31T19:27:59Z</time>
      </trkpt>
      <trkpt lat="45.88688" lon="1.2897">
        <ele>338.8012053</ele>
        <time>2022-07-31T19:28:01Z</time>
      </trkpt>
      <trkpt lat="45.88689" lon="1.28969">
        <ele>338.7550689</ele>
        <time>2022-07-31T19:28:03Z</time>
      </trkpt>
      <trkpt lat="45.88688" lon="1.28968">
        <ele>339.2002991</ele>
        <time>2022-07-31T19:28:05Z</time>
      </trkpt>
      <trkpt lat="45.88688" lon="1.28968">
        <ele>338.6572504</ele>
        <time>2022-07-31T19:28:07Z</time>
      </trkpt>
      <trkpt lat="45.88688" lon="1.28968">
        <ele>338.4615158</ele>
        <time>2022-07-31T19:28:09Z</time>
      </trkpt>
      <trkpt lat="45.88688" lon="1.28968">
        <ele>337.7107975</ele>
        <time>2022-07-31T19:28:11Z</time>
      </trkpt>
      <trkpt lat="45.88688" lon="1.28968">
        <ele>336.9251918</ele>
        <time>2022-07-31T19:28:13Z</time>
      </trkpt>
      <trkpt lat="45.88688" lon="1.28971">
        <ele>337.2029448</ele>
        <time>2022-07-31T19:28:15Z</time>
      </trkpt>
      <trkpt lat="45.88688" lon="1.28972">
        <ele>337.7602242</ele>
        <time>2022-07-31T19:28:17Z</time>
      </trkpt>
      <trkpt lat="45.88688" lon="1.28975">
        <ele>338.6407931</ele>
        <time>2022-07-31T19:28:19Z</time>
      </trkpt>
      <trkpt lat="45.88687" lon="1.28973">
        <ele>338.510602</ele>
        <time>2022-07-31T19:28:21Z</time>
      </trkpt>
      <trkpt lat="45.88687" lon="1.28972">
        <ele>338.6669261</ele>
        <time>2022-07-31T19:28:23Z</time>
      </trkpt>
      <trkpt lat="45.88687" lon="1.28972">
        <ele>338.2516493</ele>
        <time>2022-07-31T19:28:25Z</time>
      </trkpt>
      <trkpt lat="45.88686" lon="1.28972">
        <ele>337.8622791</ele>
        <time>2022-07-31T19:28:27Z</time>
      </trkpt>
      <trkpt lat="45.88686" lon="1.28972">
        <ele>337.8755254</ele>
        <time>2022-07-31T19:28:29Z</time>
      </trkpt>
      <trkpt lat="45.88686" lon="1.28972">
        <ele>337.9659413</ele>
        <time>2022-07-31T19:28:31Z</time>
      </trkpt>
      <trkpt lat="45.88686" lon="1.28971">
        <ele>337.7698181</ele>
        <time>2022-07-31T19:28:33Z</time>
      </trkpt>
      <trkpt lat="45.88686" lon="1.28971">
        <ele>337.7698181</ele>
        <time>2022-07-31T19:28:37Z</time>
      </trkpt>
      <trkpt lat="45.88688" lon="1.28972">
        <ele>336.7859099</ele>
        <time>2022-07-31T19:28:41Z</time>
      </trkpt>
      <trkpt lat="45.88688" lon="1.28974">
        <ele>337.6797986</ele>
        <time>2022-07-31T19:28:43Z</time>
      </trkpt>
      <trkpt lat="45.88688" lon="1.28972">
        <ele>337.4367387</ele>
        <time>2022-07-31T19:28:45Z</time>
      </trkpt>
      <trkpt lat="45.88688" lon="1.28971">
        <ele>337.9728752</ele>
        <time>2022-07-31T19:28:47Z</time>
      </trkpt>
      <trkpt lat="45.88688" lon="1.2897">
        <ele>337.7382684</ele>
        <time>2022-07-31T19:28:49Z</time>
      </trkpt>
      <trkpt lat="45.88687" lon="1.28973">
        <ele>337.680764</ele>
        <time>2022-07-31T19:28:51Z</time>
      </trkpt>
      <trkpt lat="45.88688" lon="1.28969">
        <ele>338.2275939</ele>
        <time>2022-07-31T19:28:53Z</time>
      </trkpt>
      <trkpt lat="45.88688" lon="1.28968">
        <ele>338.1456753</ele>
        <time>2022-07-31T19:28:55Z</time>
      </trkpt>
      <trkpt lat="45.88688" lon="1.28968">
        <ele>338.0761649</ele>
        <time>2022-07-31T19:28:57Z</time>
      </trkpt>
      <trkpt lat="45.88688" lon="1.28968">
        <ele>337.5919227</ele>
        <time>2022-07-31T19:28:59Z</time>
      </trkpt>
      <trkpt lat="45.88688" lon="1.28966">
        <ele>338.1223561</ele>
        <time>2022-07-31T19:29:01Z</time>
      </trkpt>
      <trkpt lat="45.88688" lon="1.28966">
        <ele>337.8927667</ele>
        <time>2022-07-31T19:29:03Z</time>
      </trkpt>
      <trkpt lat="45.88688" lon="1.28967">
        <ele>337.7919543</ele>
        <time>2022-07-31T19:29:05Z</time>
      </trkpt>
      <trkpt lat="45.88688" lon="1.28966">
        <ele>337.9310397</ele>
        <time>2022-07-31T19:29:07Z</time>
      </trkpt>
      <trkpt lat="45.88688" lon="1.28966">
        <ele>337.8728941</ele>
        <time>2022-07-31T19:29:09Z</time>
      </trkpt>
      <trkpt lat="45.88688" lon="1.28968">
        <ele>337.9160324</ele>
        <time>2022-07-31T19:29:11Z</time>
      </trkpt>
      <trkpt lat="45.88689" lon="1.28966">
        <ele>338.1595762</ele>
        <time>2022-07-31T19:29:13Z</time>
      </trkpt>
      <trkpt lat="45.88689" lon="1.28966">
        <ele>338.0085938</ele>
        <time>2022-07-31T19:29:15Z</time>
      </trkpt>
      <trkpt lat="45.88689" lon="1.28968">
        <ele>337.8366126</ele>
        <time>2022-07-31T19:29:17Z</time>
      </trkpt>
      <trkpt lat="45.88688" lon="1.2897">
        <ele>337.369114</ele>
        <time>2022-07-31T19:29:19Z</time>
      </trkpt>
      <trkpt lat="45.88689" lon="1.28968">
        <ele>337.6194209</ele>
        <time>2022-07-31T19:29:21Z</time>
      </trkpt>
      <trkpt lat="45.88688" lon="1.28968">
        <ele>336.4999729</ele>
        <time>2022-07-31T19:29:23Z</time>
      </trkpt>
      <trkpt lat="45.88688" lon="1.28968">
        <ele>336.6675387</ele>
        <time>2022-07-31T19:29:25Z</time>
      </trkpt>
      <trkpt lat="45.88688" lon="1.28967">
        <ele>336.5761473</ele>
        <time>2022-07-31T19:29:27Z</time>
      </trkpt>
      <trkpt lat="45.88688" lon="1.28967">
        <ele>337.0695768</ele>
        <time>2022-07-31T19:29:29Z</time>
      </trkpt>
      <trkpt lat="45.88688" lon="1.28968">
        <ele>337.1018684</ele>
        <time>2022-07-31T19:29:31Z</time>
      </trkpt>
      <trkpt lat="45.88688" lon="1.28968">
        <ele>336.5735016</ele>
        <time>2022-07-31T19:29:33Z</time>
      </trkpt>
      <trkpt lat="45.88688" lon="1.28968">
        <ele>335.9336324</ele>
        <time>2022-07-31T19:29:35Z</time>
      </trkpt>
      <trkpt lat="45.88688" lon="1.28967">
        <ele>336.1914575</ele>
        <time>2022-07-31T19:29:37Z</time>
      </trkpt>
      <trkpt lat="45.88687" lon="1.28967">
        <ele>336.0739029</ele>
        <time>2022-07-31T19:29:39Z</time>
      </trkpt>
      <trkpt lat="45.88687" lon="1.28967">
        <ele>335.41099</ele>
        <time>2022-07-31T19:29:41Z</time>
      </trkpt>
      <trkpt lat="45.88688" lon="1.28967">
        <ele>335.0501479</ele>
        <time>2022-07-31T19:29:43Z</time>
      </trkpt>
      <trkpt lat="45.88688" lon="1.28966">
        <ele>335.2042113</ele>
        <time>2022-07-31T19:29:45Z</time>
      </trkpt>
      <trkpt lat="45.88688" lon="1.28966">
        <ele>335.3936865</ele>
        <time>2022-07-31T19:29:47Z</time>
      </trkpt>
      <trkpt lat="45.88689" lon="1.28964">
        <ele>335.3015412</ele>
        <time>2022-07-31T19:29:49Z</time>
      </trkpt>
      <trkpt lat="45.88689" lon="1.28965">
        <ele>335.1475251</ele>
        <time>2022-07-31T19:29:51Z</time>
      </trkpt>
      <trkpt lat="45.88689" lon="1.28965">
        <ele>335.1475251</ele>
        <time>2022-07-31T19:29:55Z</time>
      </trkpt>
      <trkpt lat="45.88689" lon="1.28976">
        <ele>336.0920339</ele>
        <time>2022-07-31T19:29:57Z</time>
      </trkpt>
      <trkpt lat="45.88689" lon="1.28976">
        <ele>336.2294535</ele>
        <time>2022-07-31T19:30:01Z</time>
      </trkpt>
      <trkpt lat="45.88689" lon="1.28976">
        <ele>336.2294535</ele>
        <time>2022-07-31T19:30:05Z</time>
      </trkpt>
      <trkpt lat="45.88689" lon="1.28974">
        <ele>336.3323676</ele>
        <time>2022-07-31T19:30:07Z</time>
      </trkpt>
      <trkpt lat="45.88688" lon="1.28974">
        <ele>336.435578</ele>
        <time>2022-07-31T19:30:09Z</time>
      </trkpt>
      <trkpt lat="45.88688" lon="1.28973">
        <ele>337.1074054</ele>
        <time>2022-07-31T19:30:11Z</time>
      </trkpt>
      <trkpt lat="45.88688" lon="1.28973">
        <ele>336.964496</ele>
        <time>2022-07-31T19:30:13Z</time>
      </trkpt>
      <trkpt lat="45.88688" lon="1.28972">
        <ele>336.8882523</ele>
        <time>2022-07-31T19:30:15Z</time>
      </trkpt>
      <trkpt lat="45.88689" lon="1.28971">
        <ele>336.8914854</ele>
        <time>2022-07-31T19:30:17Z</time>
      </trkpt>
      <trkpt lat="45.88688" lon="1.28972">
        <ele>337.2467474</ele>
        <time>2022-07-31T19:30:21Z</time>
      </trkpt>
      <trkpt lat="45.88689" lon="1.28971">
        <ele>337.2543126</ele>
        <time>2022-07-31T19:30:23Z</time>
      </trkpt>
      <trkpt lat="45.88689" lon="1.28969">
        <ele>337.9803577</ele>
        <time>2022-07-31T19:30:25Z</time>
      </trkpt>
      <trkpt lat="45.88689" lon="1.28968">
        <ele>338.0616793</ele>
        <time>2022-07-31T19:30:27Z</time>
      </trkpt>
      <trkpt lat="45.88689" lon="1.28969">
        <ele>338.1703167</ele>
        <time>2022-07-31T19:30:29Z</time>
      </trkpt>
      <trkpt lat="45.88688" lon="1.28967">
        <ele>337.7379462</ele>
        <time>2022-07-31T19:30:31Z</time>
      </trkpt>
      <trkpt lat="45.88688" lon="1.28967">
        <ele>337.5868319</ele>
        <time>2022-07-31T19:30:33Z</time>
      </trkpt>
      <trkpt lat="45.88688" lon="1.28966">
        <ele>337.0087557</ele>
        <time>2022-07-31T19:30:35Z</time>
      </trkpt>
      <trkpt lat="45.88688" lon="1.28959">
        <ele>336.2830981</ele>
        <time>2022-07-31T19:30:37Z</time>
      </trkpt>
      <trkpt lat="45.88688" lon="1.28959">
        <ele>336.8011683</ele>
        <time>2022-07-31T19:30:39Z</time>
      </trkpt>
      <trkpt lat="45.88687" lon="1.28959">
        <ele>337.38866</ele>
        <time>2022-07-31T19:30:41Z</time>
      </trkpt>
      <trkpt lat="45.88686" lon="1.28957">
        <ele>337.7657959</ele>
        <time>2022-07-31T19:30:43Z</time>
      </trkpt>
      <trkpt lat="45.88683" lon="1.28956">
        <ele>337.774228</ele>
        <time>2022-07-31T19:30:45Z</time>
      </trkpt>
      <trkpt lat="45.88682" lon="1.28957">
        <ele>338.3852693</ele>
        <time>2022-07-31T19:30:47Z</time>
      </trkpt>
      <trkpt lat="45.88681" lon="1.28952">
        <ele>338.9612672</ele>
        <time>2022-07-31T19:30:49Z</time>
      </trkpt>
      <trkpt lat="45.8868" lon="1.28953">
        <ele>338.762133</ele>
        <time>2022-07-31T19:30:51Z</time>
      </trkpt>
      <trkpt lat="45.8868" lon="1.28954">
        <ele>339.239947</ele>
        <time>2022-07-31T19:30:53Z</time>
      </trkpt>
      <trkpt lat="45.88681" lon="1.28953">
        <ele>339.1846448</ele>
        <time>2022-07-31T19:30:57Z</time>
      </trkpt>
      <trkpt lat="45.88681" lon="1.28951">
        <ele>339.043058</ele>
        <time>2022-07-31T19:30:59Z</time>
      </trkpt>
      <trkpt lat="45.88681" lon="1.28952">
        <ele>339.038128</ele>
        <time>2022-07-31T19:31:01Z</time>
      </trkpt>
      <trkpt lat="45.8868" lon="1.28951">
        <ele>339.2629787</ele>
        <time>2022-07-31T19:31:03Z</time>
      </trkpt>
      <trkpt lat="45.8868" lon="1.28952">
        <ele>338.9905096</ele>
        <time>2022-07-31T19:31:05Z</time>
      </trkpt>
      <trkpt lat="45.8868" lon="1.28952">
        <ele>339.1987353</ele>
        <time>2022-07-31T19:31:07Z</time>
      </trkpt>
      <trkpt lat="45.88677" lon="1.28954">
        <ele>341.1381679</ele>
        <time>2022-07-31T19:31:09Z</time>
      </trkpt>
      <trkpt lat="45.8868" lon="1.2894">
        <ele>337.0845222</ele>
        <time>2022-07-31T19:31:11Z</time>
      </trkpt>
      <trkpt lat="45.88674" lon="1.28959">
        <ele>341.1093698</ele>
        <time>2022-07-31T19:31:13Z</time>
      </trkpt>
      <trkpt lat="45.88671" lon="1.28969">
        <ele>340.909611</ele>
        <time>2022-07-31T19:31:15Z</time>
      </trkpt>
      <trkpt lat="45.88677" lon="1.28968">
        <ele>340.7707288</ele>
        <time>2022-07-31T19:31:17Z</time>
      </trkpt>
      <trkpt lat="45.88673" lon="1.28966">
        <ele>340.9027438</ele>
        <time>2022-07-31T19:31:19Z</time>
      </trkpt>
      <trkpt lat="45.88677" lon="1.28969">
        <ele>340.8192507</ele>
        <time>2022-07-31T19:31:21Z</time>
      </trkpt>
      <trkpt lat="45.88677" lon="1.28969">
        <ele>340.8183608</ele>
        <time>2022-07-31T19:31:23Z</time>
      </trkpt>
      <trkpt lat="45.88677" lon="1.28969">
        <ele>340.8503285</ele>
        <time>2022-07-31T19:31:25Z</time>
      </trkpt>
      <trkpt lat="45.88677" lon="1.28969">
        <ele>340.7357704</ele>
        <time>2022-07-31T19:31:27Z</time>
      </trkpt>
      <trkpt lat="45.88677" lon="1.28968">
        <ele>340.7717519</ele>
        <time>2022-07-31T19:31:29Z</time>
      </trkpt>
      <trkpt lat="45.88678" lon="1.28969">
        <ele>340.8716022</ele>
        <time>2022-07-31T19:31:31Z</time>
      </trkpt>
      <trkpt lat="45.88677" lon="1.28969">
        <ele>340.7824413</ele>
        <time>2022-07-31T19:31:33Z</time>
      </trkpt>
      <trkpt lat="45.88677" lon="1.28968">
        <ele>340.2801475</ele>
        <time>2022-07-31T19:31:35Z</time>
      </trkpt>
      <trkpt lat="45.88702" lon="1.28955">
        <ele>332.5510597</ele>
        <time>2022-07-31T19:31:37Z</time>
      </trkpt>
      <trkpt lat="45.88704" lon="1.28956">
        <ele>331.5670624</ele>
        <time>2022-07-31T19:31:39Z</time>
      </trkpt>
      <trkpt lat="45.88704" lon="1.28956">
        <ele>331.5670624</ele>
        <time>2022-07-31T19:31:43Z</time>
      </trkpt>
      <trkpt lat="45.8873" lon="1.28969">
        <ele>332.0073776</ele>
        <time>2022-07-31T19:31:47Z</time>
      </trkpt>
      <trkpt lat="45.88736" lon="1.28971">
        <ele>332.1811146</ele>
        <time>2022-07-31T19:31:49Z</time>
      </trkpt>
      <trkpt lat="45.88736" lon="1.28965">
        <ele>331.9696772</ele>
        <time>2022-07-31T19:31:51Z</time>
      </trkpt>
      <trkpt lat="45.8872" lon="1.28946">
        <ele>331.4581146</ele>
        <time>2022-07-31T19:31:53Z</time>
      </trkpt>
      <trkpt lat="45.88718" lon="1.28943">
        <ele>332.5802918</ele>
        <time>2022-07-31T19:31:55Z</time>
      </trkpt>
      <trkpt lat="45.88721" lon="1.28944">
        <ele>333.8569221</ele>
        <time>2022-07-31T19:31:57Z</time>
      </trkpt>
      <trkpt lat="45.88725" lon="1.28946">
        <ele>334.6546745</ele>
        <time>2022-07-31T19:31:59Z</time>
      </trkpt>
      <trkpt lat="45.88729" lon="1.28947">
        <ele>335.281395</ele>
        <time>2022-07-31T19:32:01Z</time>
      </trkpt>
      <trkpt lat="45.88679" lon="1.28967">
        <ele>340.3865318</ele>
        <time>2022-07-31T19:32:03Z</time>
      </trkpt>
      <trkpt lat="45.88685" lon="1.28959">
        <ele>339.9395596</ele>
        <time>2022-07-31T19:32:05Z</time>
      </trkpt>
      <trkpt lat="45.8868" lon="1.28962">
        <ele>340.2862427</ele>
        <time>2022-07-31T19:32:07Z</time>
      </trkpt>
      <trkpt lat="45.88683" lon="1.28961">
        <ele>340.0750475</ele>
        <time>2022-07-31T19:32:09Z</time>
      </trkpt>
      <trkpt lat="45.88682" lon="1.28954">
        <ele>340.4706513</ele>
        <time>2022-07-31T19:32:11Z</time>
      </trkpt>
      <trkpt lat="45.88682" lon="1.28955">
        <ele>339.9415903</ele>
        <time>2022-07-31T19:32:13Z</time>
      </trkpt>
      <trkpt lat="45.88682" lon="1.28955">
        <ele>340.450515</ele>
        <time>2022-07-31T19:32:15Z</time>
      </trkpt>
      <trkpt lat="45.88698" lon="1.28939">
        <ele>333.8178139</ele>
        <time>2022-07-31T19:32:17Z</time>
      </trkpt>
      <trkpt lat="45.88681" lon="1.28956">
        <ele>340.3153522</ele>
        <time>2022-07-31T19:32:19Z</time>
      </trkpt>
      <trkpt lat="45.88681" lon="1.28956">
        <ele>340.3961081</ele>
        <time>2022-07-31T19:32:21Z</time>
      </trkpt>
      <trkpt lat="45.88704" lon="1.28953">
        <ele>331.8531952</ele>
        <time>2022-07-31T19:32:23Z</time>
      </trkpt>
      <trkpt lat="45.88681" lon="1.28955">
        <ele>340.1329376</ele>
        <time>2022-07-31T19:32:25Z</time>
      </trkpt>
      <trkpt lat="45.88681" lon="1.28956">
        <ele>340.3379925</ele>
        <time>2022-07-31T19:32:27Z</time>
      </trkpt>
      <trkpt lat="45.88681" lon="1.28956">
        <ele>340.210758</ele>
        <time>2022-07-31T19:32:31Z</time>
      </trkpt>
      <trkpt lat="45.88681" lon="1.28956">
        <ele>339.9999765</ele>
        <time>2022-07-31T19:32:33Z</time>
      </trkpt>
      <trkpt lat="45.88679" lon="1.28956">
        <ele>340.128414</ele>
        <time>2022-07-31T19:32:35Z</time>
      </trkpt>
      <trkpt lat="45.8868" lon="1.28955">
        <ele>339.7033486</ele>
        <time>2022-07-31T19:32:37Z</time>
      </trkpt>
      <trkpt lat="45.88674" lon="1.28947">
        <ele>338.6796622</ele>
        <time>2022-07-31T19:32:39Z</time>
      </trkpt>
      <trkpt lat="45.88676" lon="1.28939">
        <ele>338.548596</ele>
        <time>2022-07-31T19:32:41Z</time>
      </trkpt>
      <trkpt lat="45.88676" lon="1.2894">
        <ele>337.9397033</ele>
        <time>2022-07-31T19:32:43Z</time>
      </trkpt>
      <trkpt lat="45.88676" lon="1.2894">
        <ele>337.4476837</ele>
        <time>2022-07-31T19:32:45Z</time>
      </trkpt>
      <trkpt lat="45.88682" lon="1.28943">
        <ele>337.2512138</ele>
        <time>2022-07-31T19:32:47Z</time>
      </trkpt>
      <trkpt lat="45.88691" lon="1.28941">
        <ele>336.4055976</ele>
        <time>2022-07-31T19:32:49Z</time>
      </trkpt>
      <trkpt lat="45.88688" lon="1.28958">
        <ele>333.8910153</ele>
        <time>2022-07-31T19:32:51Z</time>
      </trkpt>
      <trkpt lat="45.88688" lon="1.28955">
        <ele>335.5542271</ele>
        <time>2022-07-31T19:32:53Z</time>
      </trkpt>
      <trkpt lat="45.88688" lon="1.28961">
        <ele>335.0535228</ele>
        <time>2022-07-31T19:32:55Z</time>
      </trkpt>
      <trkpt lat="45.88688" lon="1.2896">
        <ele>334.94937</ele>
        <time>2022-07-31T19:32:57Z</time>
      </trkpt>
      <trkpt lat="45.88687" lon="1.28959">
        <ele>334.2520588</ele>
        <time>2022-07-31T19:32:59Z</time>
      </trkpt>
      <trkpt lat="45.88687" lon="1.2896">
        <ele>334.0833364</ele>
        <time>2022-07-31T19:33:01Z</time>
      </trkpt>
      <trkpt lat="45.88688" lon="1.28961">
        <ele>334.5353731</ele>
        <time>2022-07-31T19:33:03Z</time>
      </trkpt>
      <trkpt lat="45.88689" lon="1.28959">
        <ele>334.076724</ele>
        <time>2022-07-31T19:33:05Z</time>
      </trkpt>
      <trkpt lat="45.88689" lon="1.28959">
        <ele>333.9934444</ele>
        <time>2022-07-31T19:33:07Z</time>
      </trkpt>
      <trkpt lat="45.88689" lon="1.28959">
        <ele>333.6306002</ele>
        <time>2022-07-31T19:33:09Z</time>
      </trkpt>
      <trkpt lat="45.88689" lon="1.28959">
        <ele>333.6306002</ele>
        <time>2022-07-31T19:33:13Z</time>
      </trkpt>
      <trkpt lat="45.88689" lon="1.28959">
        <ele>333.6306002</ele>
        <time>2022-07-31T19:33:17Z</time>
      </trkpt>
      <trkpt lat="45.88689" lon="1.28959">
        <ele>333.6306002</ele>
        <time>2022-07-31T19:33:21Z</time>
      </trkpt>
      <trkpt lat="45.88689" lon="1.28959">
        <ele>333.6306002</ele>
        <time>2022-07-31T19:33:25Z</time>
      </trkpt>
      <trkpt lat="45.8869" lon="1.28959">
        <ele>333.3141841</ele>
        <time>2022-07-31T19:33:27Z</time>
      </trkpt>
      <trkpt lat="45.8869" lon="1.2896">
        <ele>333.5736658</ele>
        <time>2022-07-31T19:33:29Z</time>
      </trkpt>
      <trkpt lat="45.88689" lon="1.28958">
        <ele>333.7052741</ele>
        <time>2022-07-31T19:33:31Z</time>
      </trkpt>
      <trkpt lat="45.88689" lon="1.28958">
        <ele>333.6902959</ele>
        <time>2022-07-31T19:33:33Z</time>
      </trkpt>
      <trkpt lat="45.88691" lon="1.2896">
        <ele>334.0850549</ele>
        <time>2022-07-31T19:33:35Z</time>
      </trkpt>
      <trkpt lat="45.88691" lon="1.28962">
        <ele>334.2700477</ele>
        <time>2022-07-31T19:33:37Z</time>
      </trkpt>
      <trkpt lat="45.8869" lon="1.28967">
        <ele>333.6386213</ele>
        <time>2022-07-31T19:33:39Z</time>
      </trkpt>
      <trkpt lat="45.88688" lon="1.28979">
        <ele>337.8688929</ele>
        <time>2022-07-31T19:33:41Z</time>
      </trkpt>
      <trkpt lat="45.88686" lon="1.28981">
        <ele>339.5672759</ele>
        <time>2022-07-31T19:33:43Z</time>
      </trkpt>
      <trkpt lat="45.88686" lon="1.28985">
        <ele>341.1903418</ele>
        <time>2022-07-31T19:33:45Z</time>
      </trkpt>
      <trkpt lat="45.88686" lon="1.28985">
        <ele>341.1903418</ele>
        <time>2022-07-31T19:33:49Z</time>
      </trkpt>
    </trkseg>
      <trkpt lat="45.88678" lon="1.29017">
        <ele>333.6</ele>
        <time>2022-08-01T06:12:08Z</time>
      </trkpt>
      <trkpt lat="45.88678" lon="1.29016">
        <ele>333.5</ele>
        <time>2022-08-01T06:12:09Z</time>
      </trkpt>
      <trkpt lat="45.88679" lon="1.29015">
        <ele>333.3</ele>
        <time>2022-08-01T06:12:11Z</time>
      </trkpt>
      <trkpt lat="45.88679" lon="1.29014">
        <ele>333.2</ele>
        <time>2022-08-01T06:12:13Z</time>
      </trkpt>
      <trkpt lat="45.88676" lon="1.29017">
        <ele>333.7</ele>
        <time>2022-08-01T06:12:15Z</time>
      </trkpt>
      <trkpt lat="45.88677" lon="1.29022">
        <ele>334</ele>
        <time>2022-08-01T06:12:17Z</time>
      </trkpt>
      <trkpt lat="45.88677" lon="1.29025">
        <ele>334.2</ele>
        <time>2022-08-01T06:12:19Z</time>
      </trkpt>
      <trkpt lat="45.88675" lon="1.29029">
        <ele>334.6</ele>
        <time>2022-08-01T06:12:21Z</time>
      </trkpt>
      <trkpt lat="45.88674" lon="1.29032">
        <ele>334.9</ele>
        <time>2022-08-01T06:12:23Z</time>
      </trkpt>
      <trkpt lat="45.88673" lon="1.29035">
        <ele>335.1</ele>
        <time>2022-08-01T06:12:25Z</time>
      </trkpt>
      <trkpt lat="45.88672" lon="1.29038">
        <ele>335.4</ele>
        <time>2022-08-01T06:12:27Z</time>
      </trkpt>
      <trkpt lat="45.88672" lon="1.29037">
        <ele>335.4</ele>
        <time>2022-08-01T06:12:29Z</time>
      </trkpt>
      <trkpt lat="45.88672" lon="1.29038">
        <ele>335.4</ele>
        <time>2022-08-01T06:12:31Z</time>
      </trkpt>
      <trkpt lat="45.88672" lon="1.2904">
        <ele>335.6</ele>
        <time>2022-08-01T06:12:33Z</time>
      </trkpt>
      <trkpt lat="45.88672" lon="1.2904">
        <ele>335.6</ele>
        <time>2022-08-01T06:12:35Z</time>
      </trkpt>
      <trkpt lat="45.88671" lon="1.29041">
        <ele>335.7</ele>
        <time>2022-08-01T06:12:37Z</time>
      </trkpt>
      <trkpt lat="45.88671" lon="1.29041">
        <ele>335.7</ele>
        <time>2022-08-01T06:12:39Z</time>
      </trkpt>
      <trkpt lat="45.88669" lon="1.29043">
        <ele>336</ele>
        <time>2022-08-01T06:12:41Z</time>
      </trkpt>
      <trkpt lat="45.88665" lon="1.29041">
        <ele>336</ele>
        <time>2022-08-01T06:12:43Z</time>
      </trkpt>
      <trkpt lat="45.8866" lon="1.29039">
        <ele>336</ele>
        <time>2022-08-01T06:12:45Z</time>
      </trkpt>
      <trkpt lat="45.88655" lon="1.29036">
        <ele>335.9</ele>
        <time>2022-08-01T06:12:47Z</time>
      </trkpt>
      <trkpt lat="45.88651" lon="1.29034">
        <ele>335.9</ele>
        <time>2022-08-01T06:12:49Z</time>
      </trkpt>
      <trkpt lat="45.88647" lon="1.29032">
        <ele>335.8</ele>
        <time>2022-08-01T06:12:51Z</time>
      </trkpt>
      <trkpt lat="45.88644" lon="1.29028">
        <ele>335.7</ele>
        <time>2022-08-01T06:12:53Z</time>
      </trkpt>
      <trkpt lat="45.88642" lon="1.29028">
        <ele>335.7</ele>
        <time>2022-08-01T06:12:55Z</time>
      </trkpt>
      <trkpt lat="45.88642" lon="1.29026">
        <ele>335.6</ele>
        <time>2022-08-01T06:12:57Z</time>
      </trkpt>
      <trkpt lat="45.88642" lon="1.29026">
        <ele>335.6</ele>
        <time>2022-08-01T06:12:59Z</time>
      </trkpt>
      <trkpt lat="45.88642" lon="1.29026">
        <ele>335.6</ele>
        <time>2022-08-01T06:13:03Z</time>
      </trkpt>
      <trkpt lat="45.88642" lon="1.29027">
        <ele>335.6</ele>
        <time>2022-08-01T06:13:05Z</time>
      </trkpt>
      <trkpt lat="45.88626" lon="1.29026">
        <ele>336</ele>
        <time>2022-08-01T06:13:21Z</time>
      </trkpt>
      <trkpt lat="45.88621" lon="1.29025">
        <ele>336.1</ele>
        <time>2022-08-01T06:13:23Z</time>
      </trkpt>
      <trkpt lat="45.88616" lon="1.29024">
        <ele>336.2</ele>
        <time>2022-08-01T06:13:25Z</time>
      </trkpt>
      <trkpt lat="45.88611" lon="1.29023">
        <ele>336.3</ele>
        <time>2022-08-01T06:13:27Z</time>
      </trkpt>
      <trkpt lat="45.88606" lon="1.29022">
        <ele>336.4</ele>
        <time>2022-08-01T06:13:29Z</time>
      </trkpt>
      <trkpt lat="45.88601" lon="1.2902">
        <ele>336.4</ele>
        <time>2022-08-01T06:13:31Z</time>
      </trkpt>
      <trkpt lat="45.88594" lon="1.29018">
        <ele>336.5</ele>
        <time>2022-08-01T06:13:33Z</time>
      </trkpt>
      <trkpt lat="45.88588" lon="1.29017">
        <ele>336.7</ele>
        <time>2022-08-01T06:13:35Z</time>
      </trkpt>
      <trkpt lat="45.88582" lon="1.29016">
        <ele>336.8</ele>
        <time>2022-08-01T06:13:37Z</time>
      </trkpt>
      <trkpt lat="45.88575" lon="1.29014">
        <ele>336.7</ele>
        <time>2022-08-01T06:13:39Z</time>
      </trkpt>
      <trkpt lat="45.88568" lon="1.29012">
        <ele>336.6</ele>
        <time>2022-08-01T06:13:41Z</time>
      </trkpt>
      <trkpt lat="45.88561" lon="1.2901">
        <ele>336.5</ele>
        <time>2022-08-01T06:13:43Z</time>
      </trkpt>
      <trkpt lat="45.88553" lon="1.29009">
        <ele>336.4</ele>
        <time>2022-08-01T06:13:45Z</time>
      </trkpt>
      <trkpt lat="45.88545" lon="1.29007">
        <ele>336.3</ele>
        <time>2022-08-01T06:13:47Z</time>
      </trkpt>
      <trkpt lat="45.88537" lon="1.29005">
        <ele>336.2</ele>
        <time>2022-08-01T06:13:49Z</time>
      </trkpt>
      <trkpt lat="45.88529" lon="1.29002">
        <ele>336.1</ele>
        <time>2022-08-01T06:13:51Z</time>
      </trkpt>
      <trkpt lat="45.88521" lon="1.29">
        <ele>336</ele>
        <time>2022-08-01T06:13:53Z</time>
      </trkpt>
      <trkpt lat="45.88512" lon="1.28998">
        <ele>336</ele>
        <time>2022-08-01T06:13:55Z</time>
      </trkpt>
      <trkpt lat="45.88503" lon="1.28996">
        <ele>336</ele>
        <time>2022-08-01T06:13:57Z</time>
      </trkpt>
      <trkpt lat="45.88494" lon="1.28994">
        <ele>336</ele>
        <time>2022-08-01T06:13:59Z</time>
      </trkpt>
      <trkpt lat="45.88485" lon="1.28993">
        <ele>336</ele>
        <time>2022-08-01T06:14:01Z</time>
      </trkpt>
      <trkpt lat="45.88476" lon="1.2899">
        <ele>335.9</ele>
        <time>2022-08-01T06:14:03Z</time>
      </trkpt>
      <trkpt lat="45.88468" lon="1.28987">
        <ele>335.8</ele>
        <time>2022-08-01T06:14:05Z</time>
      </trkpt>
      <trkpt lat="45.88459" lon="1.28985">
        <ele>335.7</ele>
        <time>2022-08-01T06:14:07Z</time>
      </trkpt>
      <trkpt lat="45.8845" lon="1.28983">
        <ele>335.6</ele>
        <time>2022-08-01T06:14:09Z</time>
      </trkpt>
      <trkpt lat="45.88441" lon="1.28981">
        <ele>335.5</ele>
        <time>2022-08-01T06:14:11Z</time>
      </trkpt>
      <trkpt lat="45.88432" lon="1.28978">
        <ele>335.4</ele>
        <time>2022-08-01T06:14:13Z</time>
      </trkpt>
      <trkpt lat="45.88422" lon="1.28976">
        <ele>335.2</ele>
        <time>2022-08-01T06:14:15Z</time>
      </trkpt>
      <trkpt lat="45.88413" lon="1.28973">
        <ele>335.1</ele>
        <time>2022-08-01T06:14:17Z</time>
      </trkpt>
      <trkpt lat="45.88403" lon="1.28971">
        <ele>335</ele>
        <time>2022-08-01T06:14:19Z</time>
      </trkpt>
      <trkpt lat="45.88393" lon="1.28968">
        <ele>335</ele>
        <time>2022-08-01T06:14:21Z</time>
      </trkpt>
      <trkpt lat="45.88383" lon="1.28966">
        <ele>334.9</ele>
        <time>2022-08-01T06:14:23Z</time>
      </trkpt>
      <trkpt lat="45.88373" lon="1.28963">
        <ele>334.9</ele>
        <time>2022-08-01T06:14:25Z</time>
      </trkpt>
      <trkpt lat="45.88362" lon="1.2896">
        <ele>334.9</ele>
        <time>2022-08-01T06:14:27Z</time>
      </trkpt>
      <trkpt lat="45.88352" lon="1.28956">
        <ele>334.8</ele>
        <time>2022-08-01T06:14:29Z</time>
      </trkpt>
      <trkpt lat="45.88342" lon="1.28952">
        <ele>334.8</ele>
        <time>2022-08-01T06:14:31Z</time>
      </trkpt>
      <trkpt lat="45.88332" lon="1.28944">
        <ele>334.8</ele>
        <time>2022-08-01T06:14:33Z</time>
      </trkpt>
      <trkpt lat="45.88322" lon="1.28935">
        <ele>335</ele>
        <time>2022-08-01T06:14:35Z</time>
      </trkpt>
      <trkpt lat="45.88315" lon="1.28925">
        <ele>335.1</ele>
        <time>2022-08-01T06:14:37Z</time>
      </trkpt>
      <trkpt lat="45.88308" lon="1.28916">
        <ele>335.2</ele>
        <time>2022-08-01T06:14:39Z</time>
      </trkpt>
      <trkpt lat="45.88301" lon="1.28906">
        <ele>335.5</ele>
        <time>2022-08-01T06:14:41Z</time>
      </trkpt>
      <trkpt lat="45.88294" lon="1.28897">
        <ele>335.6</ele>
        <time>2022-08-01T06:14:43Z</time>
      </trkpt>
      <trkpt lat="45.8829" lon="1.28888">
        <ele>335.7</ele>
        <time>2022-08-01T06:14:45Z</time>
      </trkpt>
      <trkpt lat="45.88287" lon="1.28877">
        <ele>335.7</ele>
        <time>2022-08-01T06:14:47Z</time>
      </trkpt>
      <trkpt lat="45.88285" lon="1.28863">
        <ele>335.6</ele>
        <time>2022-08-01T06:14:49Z</time>
      </trkpt>
      <trkpt lat="45.88284" lon="1.28848">
        <ele>335.4</ele>
        <time>2022-08-01T06:14:51Z</time>
      </trkpt>
      <trkpt lat="45.88284" lon="1.28832">
        <ele>335.2</ele>
        <time>2022-08-01T06:14:53Z</time>
      </trkpt>
      <trkpt lat="45.88283" lon="1.28815">
        <ele>334.8</ele>
        <time>2022-08-01T06:14:55Z</time>
      </trkpt>
      <trkpt lat="45.88283" lon="1.28797">
        <ele>334.3</ele>
        <time>2022-08-01T06:14:57Z</time>
      </trkpt>
      <trkpt lat="45.88282" lon="1.28778">
        <ele>333.9</ele>
        <time>2022-08-01T06:14:59Z</time>
      </trkpt>
      <trkpt lat="45.88282" lon="1.28762">
        <ele>333.5</ele>
        <time>2022-08-01T06:15:01Z</time>
      </trkpt>
      <trkpt lat="45.88281" lon="1.28745">
        <ele>333</ele>
        <time>2022-08-01T06:15:03Z</time>
      </trkpt>
      <trkpt lat="45.8828" lon="1.28729">
        <ele>332</ele>
        <time>2022-08-01T06:15:05Z</time>
      </trkpt>
      <trkpt lat="45.88279" lon="1.28713">
        <ele>331.1</ele>
        <time>2022-08-01T06:15:07Z</time>
      </trkpt>
      <trkpt lat="45.88277" lon="1.28698">
        <ele>330.2</ele>
        <time>2022-08-01T06:15:09Z</time>
      </trkpt>
      <trkpt lat="45.88276" lon="1.28683">
        <ele>329.4</ele>
        <time>2022-08-01T06:15:11Z</time>
      </trkpt>
      <trkpt lat="45.88276" lon="1.28671">
        <ele>328.6</ele>
        <time>2022-08-01T06:15:13Z</time>
      </trkpt>
      <trkpt lat="45.88277" lon="1.28662">
        <ele>328.2</ele>
        <time>2022-08-01T06:15:15Z</time>
      </trkpt>
      <trkpt lat="45.88281" lon="1.28652">
        <ele>327.8</ele>
        <time>2022-08-01T06:15:17Z</time>
      </trkpt>
      <trkpt lat="45.8828" lon="1.28639">
        <ele>327.4</ele>
        <time>2022-08-01T06:15:19Z</time>
      </trkpt>
      <trkpt lat="45.88275" lon="1.28627">
        <ele>327.1</ele>
        <time>2022-08-01T06:15:21Z</time>
      </trkpt>
      <trkpt lat="45.88266" lon="1.28623">
        <ele>327.1</ele>
        <time>2022-08-01T06:15:23Z</time>
      </trkpt>
      <trkpt lat="45.88258" lon="1.28628">
        <ele>327.5</ele>
        <time>2022-08-01T06:15:25Z</time>
      </trkpt>
      <trkpt lat="45.88252" lon="1.28638">
        <ele>327.9</ele>
        <time>2022-08-01T06:15:27Z</time>
      </trkpt>
      <trkpt lat="45.88252" lon="1.2865">
        <ele>328.3</ele>
        <time>2022-08-01T06:15:29Z</time>
      </trkpt>
      <trkpt lat="45.88252" lon="1.28661">
        <ele>328.7</ele>
        <time>2022-08-01T06:15:31Z</time>
      </trkpt>
      <trkpt lat="45.88252" lon="1.28672">
        <ele>329.3</ele>
        <time>2022-08-01T06:15:33Z</time>
      </trkpt>
      <trkpt lat="45.88251" lon="1.28683">
        <ele>329.9</ele>
        <time>2022-08-01T06:15:35Z</time>
      </trkpt>
      <trkpt lat="45.8825" lon="1.28693">
        <ele>330.6</ele>
        <time>2022-08-01T06:15:37Z</time>
      </trkpt>
      <trkpt lat="45.88247" lon="1.28703">
        <ele>331.3</ele>
        <time>2022-08-01T06:15:39Z</time>
      </trkpt>
      <trkpt lat="45.88245" lon="1.28712">
        <ele>331.9</ele>
        <time>2022-08-01T06:15:41Z</time>
      </trkpt>
      <trkpt lat="45.88243" lon="1.28722">
        <ele>332.5</ele>
        <time>2022-08-01T06:15:43Z</time>
      </trkpt>
      <trkpt lat="45.88242" lon="1.28731">
        <ele>333.1</ele>
        <time>2022-08-01T06:15:45Z</time>
      </trkpt>
      <trkpt lat="45.8824" lon="1.28741">
        <ele>333.7</ele>
        <time>2022-08-01T06:15:47Z</time>
      </trkpt>
      <trkpt lat="45.88239" lon="1.2875">
        <ele>334.2</ele>
        <time>2022-08-01T06:15:49Z</time>
      </trkpt>
      <trkpt lat="45.88238" lon="1.28758">
        <ele>334.5</ele>
        <time>2022-08-01T06:15:51Z</time>
      </trkpt>
      <trkpt lat="45.88238" lon="1.28769">
        <ele>334.8</ele>
        <time>2022-08-01T06:15:53Z</time>
      </trkpt>
      <trkpt lat="45.88237" lon="1.2878">
        <ele>335.1</ele>
        <time>2022-08-01T06:15:55Z</time>
      </trkpt>
      <trkpt lat="45.88236" lon="1.28791">
        <ele>335.5</ele>
        <time>2022-08-01T06:15:57Z</time>
      </trkpt>
      <trkpt lat="45.88234" lon="1.28801">
        <ele>335.8</ele>
        <time>2022-08-01T06:15:59Z</time>
      </trkpt>
      <trkpt lat="45.88233" lon="1.28811">
        <ele>336.2</ele>
        <time>2022-08-01T06:16:01Z</time>
      </trkpt>
      <trkpt lat="45.88231" lon="1.28821">
        <ele>336.5</ele>
        <time>2022-08-01T06:16:03Z</time>
      </trkpt>
      <trkpt lat="45.8823" lon="1.28829">
        <ele>336.9</ele>
        <time>2022-08-01T06:16:05Z</time>
      </trkpt>
      <trkpt lat="45.88228" lon="1.28839">
        <ele>337.2</ele>
        <time>2022-08-01T06:16:07Z</time>
      </trkpt>
      <trkpt lat="45.88227" lon="1.28848">
        <ele>337.4</ele>
        <time>2022-08-01T06:16:09Z</time>
      </trkpt>
      <trkpt lat="45.88226" lon="1.28857">
        <ele>337.7</ele>
        <time>2022-08-01T06:16:11Z</time>
      </trkpt>
      <trkpt lat="45.88225" lon="1.28866">
        <ele>337.9</ele>
        <time>2022-08-01T06:16:13Z</time>
      </trkpt>
      <trkpt lat="45.88223" lon="1.28875">
        <ele>338.1</ele>
        <time>2022-08-01T06:16:15Z</time>
      </trkpt>
      <trkpt lat="45.88221" lon="1.28884">
        <ele>338.4</ele>
        <time>2022-08-01T06:16:17Z</time>
      </trkpt>
      <trkpt lat="45.8822" lon="1.28894">
        <ele>338.6</ele>
        <time>2022-08-01T06:16:19Z</time>
      </trkpt>
      <trkpt lat="45.88219" lon="1.28903">
        <ele>338.8</ele>
        <time>2022-08-01T06:16:21Z</time>
      </trkpt>
      <trkpt lat="45.88218" lon="1.28912">
        <ele>339.1</ele>
        <time>2022-08-01T06:16:23Z</time>
      </trkpt>
      <trkpt lat="45.88217" lon="1.28921">
        <ele>339.3</ele>
        <time>2022-08-01T06:16:25Z</time>
      </trkpt>
      <trkpt lat="45.88217" lon="1.2893">
        <ele>339.8</ele>
        <time>2022-08-01T06:16:27Z</time>
      </trkpt>
      <trkpt lat="45.88216" lon="1.28939">
        <ele>340.2</ele>
        <time>2022-08-01T06:16:29Z</time>
      </trkpt>
      <trkpt lat="45.88215" lon="1.28949">
        <ele>340.6</ele>
        <time>2022-08-01T06:16:31Z</time>
      </trkpt>
      <trkpt lat="45.88214" lon="1.28958">
        <ele>341</ele>
        <time>2022-08-01T06:16:33Z</time>
      </trkpt>
      <trkpt lat="45.88213" lon="1.28966">
        <ele>341.4</ele>
        <time>2022-08-01T06:16:35Z</time>
      </trkpt>
      <trkpt lat="45.88212" lon="1.28975">
        <ele>341.8</ele>
        <time>2022-08-01T06:16:37Z</time>
      </trkpt>
      <trkpt lat="45.88211" lon="1.28984">
        <ele>342.2</ele>
        <time>2022-08-01T06:16:39Z</time>
      </trkpt>
      <trkpt lat="45.8821" lon="1.28992">
        <ele>342.6</ele>
        <time>2022-08-01T06:16:41Z</time>
      </trkpt>
      <trkpt lat="45.8821" lon="1.29002">
        <ele>342.9</ele>
        <time>2022-08-01T06:16:43Z</time>
      </trkpt>
      <trkpt lat="45.88209" lon="1.29011">
        <ele>343</ele>
        <time>2022-08-01T06:16:45Z</time>
      </trkpt>
      <trkpt lat="45.88206" lon="1.2902">
        <ele>343.1</ele>
        <time>2022-08-01T06:16:47Z</time>
      </trkpt>
      <trkpt lat="45.88204" lon="1.29028">
        <ele>343.1</ele>
        <time>2022-08-01T06:16:49Z</time>
      </trkpt>
      <trkpt lat="45.88203" lon="1.29034">
        <ele>343.1</ele>
        <time>2022-08-01T06:16:51Z</time>
      </trkpt>
      <trkpt lat="45.88203" lon="1.29047">
        <ele>343.1</ele>
        <time>2022-08-01T06:16:53Z</time>
      </trkpt>
      <trkpt lat="45.88202" lon="1.29056">
        <ele>343.1</ele>
        <time>2022-08-01T06:16:55Z</time>
      </trkpt>
      <trkpt lat="45.88201" lon="1.29065">
        <ele>343.1</ele>
        <time>2022-08-01T06:16:57Z</time>
      </trkpt>
      <trkpt lat="45.882" lon="1.29073">
        <ele>343.1</ele>
        <time>2022-08-01T06:16:59Z</time>
      </trkpt>
      <trkpt lat="45.88198" lon="1.29082">
        <ele>343</ele>
        <time>2022-08-01T06:17:01Z</time>
      </trkpt>
      <trkpt lat="45.88197" lon="1.29091">
        <ele>343.1</ele>
        <time>2022-08-01T06:17:03Z</time>
      </trkpt>
      <trkpt lat="45.88196" lon="1.291">
        <ele>343.3</ele>
        <time>2022-08-01T06:17:05Z</time>
      </trkpt>
      <trkpt lat="45.88194" lon="1.29109">
        <ele>343.4</ele>
        <time>2022-08-01T06:17:07Z</time>
      </trkpt>
      <trkpt lat="45.88193" lon="1.29117">
        <ele>343.6</ele>
        <time>2022-08-01T06:17:09Z</time>
      </trkpt>
      <trkpt lat="45.88191" lon="1.29126">
        <ele>343.7</ele>
        <time>2022-08-01T06:17:11Z</time>
      </trkpt>
      <trkpt lat="45.8819" lon="1.29135">
        <ele>343.9</ele>
        <time>2022-08-01T06:17:13Z</time>
      </trkpt>
      <trkpt lat="45.88187" lon="1.29143">
        <ele>344.1</ele>
        <time>2022-08-01T06:17:15Z</time>
      </trkpt>
      <trkpt lat="45.88186" lon="1.29152">
        <ele>344.3</ele>
        <time>2022-08-01T06:17:17Z</time>
      </trkpt>
      <trkpt lat="45.88184" lon="1.29161">
        <ele>344.5</ele>
        <time>2022-08-01T06:17:19Z</time>
      </trkpt>
      <trkpt lat="45.88182" lon="1.2917">
        <ele>344.6</ele>
        <time>2022-08-01T06:17:21Z</time>
      </trkpt>
      <trkpt lat="45.8818" lon="1.29178">
        <ele>344.7</ele>
        <time>2022-08-01T06:17:23Z</time>
      </trkpt>
      <trkpt lat="45.88178" lon="1.29186">
        <ele>344.7</ele>
        <time>2022-08-01T06:17:25Z</time>
      </trkpt>
      <trkpt lat="45.88176" lon="1.29195">
        <ele>344.8</ele>
        <time>2022-08-01T06:17:27Z</time>
      </trkpt>
      <trkpt lat="45.88174" lon="1.29203">
        <ele>344.8</ele>
        <time>2022-08-01T06:17:29Z</time>
      </trkpt>
      <trkpt lat="45.88172" lon="1.29212">
        <ele>344.9</ele>
        <time>2022-08-01T06:17:31Z</time>
      </trkpt>
      <trkpt lat="45.8817" lon="1.29221">
        <ele>344.9</ele>
        <time>2022-08-01T06:17:33Z</time>
      </trkpt>
      <trkpt lat="45.88167" lon="1.29229">
        <ele>345</ele>
        <time>2022-08-01T06:17:35Z</time>
      </trkpt>
      <trkpt lat="45.88165" lon="1.29238">
        <ele>345.2</ele>
        <time>2022-08-01T06:17:37Z</time>
      </trkpt>
      <trkpt lat="45.88162" lon="1.29246">
        <ele>345.5</ele>
        <time>2022-08-01T06:17:39Z</time>
      </trkpt>
      <trkpt lat="45.8816" lon="1.29255">
        <ele>345.9</ele>
        <time>2022-08-01T06:17:41Z</time>
      </trkpt>
      <trkpt lat="45.88157" lon="1.29264">
        <ele>346.3</ele>
        <time>2022-08-01T06:17:43Z</time>
      </trkpt>
      <trkpt lat="45.88154" lon="1.29272">
        <ele>346.8</ele>
        <time>2022-08-01T06:17:45Z</time>
      </trkpt>
      <trkpt lat="45.88151" lon="1.29281">
        <ele>347.2</ele>
        <time>2022-08-01T06:17:47Z</time>
      </trkpt>
      <trkpt lat="45.88148" lon="1.29289">
        <ele>347.7</ele>
        <time>2022-08-01T06:17:49Z</time>
      </trkpt>
      <trkpt lat="45.88145" lon="1.29298">
        <ele>348.1</ele>
        <time>2022-08-01T06:17:51Z</time>
      </trkpt>
      <trkpt lat="45.88143" lon="1.29306">
        <ele>348.5</ele>
        <time>2022-08-01T06:17:53Z</time>
      </trkpt>
      <trkpt lat="45.8814" lon="1.29315">
        <ele>348.9</ele>
        <time>2022-08-01T06:17:55Z</time>
      </trkpt>
      <trkpt lat="45.88138" lon="1.29323">
        <ele>349.3</ele>
        <time>2022-08-01T06:17:57Z</time>
      </trkpt>
      <trkpt lat="45.88135" lon="1.29331">
        <ele>349.6</ele>
        <time>2022-08-01T06:17:59Z</time>
      </trkpt>
      <trkpt lat="45.88132" lon="1.29339">
        <ele>349.9</ele>
        <time>2022-08-01T06:18:01Z</time>
      </trkpt>
      <trkpt lat="45.8813" lon="1.29347">
        <ele>350.1</ele>
        <time>2022-08-01T06:18:03Z</time>
      </trkpt>
      <trkpt lat="45.88127" lon="1.29356">
        <ele>350.3</ele>
        <time>2022-08-01T06:18:05Z</time>
      </trkpt>
      <trkpt lat="45.88125" lon="1.29365">
        <ele>350.5</ele>
        <time>2022-08-01T06:18:07Z</time>
      </trkpt>
      <trkpt lat="45.88123" lon="1.29373">
        <ele>350.6</ele>
        <time>2022-08-01T06:18:09Z</time>
      </trkpt>
      <trkpt lat="45.88121" lon="1.29381">
        <ele>350.7</ele>
        <time>2022-08-01T06:18:11Z</time>
      </trkpt>
      <trkpt lat="45.8812" lon="1.2939">
        <ele>350.8</ele>
        <time>2022-08-01T06:18:13Z</time>
      </trkpt>
      <trkpt lat="45.88119" lon="1.29398">
        <ele>350.8</ele>
        <time>2022-08-01T06:18:15Z</time>
      </trkpt>
      <trkpt lat="45.88118" lon="1.29407">
        <ele>350.8</ele>
        <time>2022-08-01T06:18:17Z</time>
      </trkpt>
      <trkpt lat="45.88116" lon="1.29415">
        <ele>350.8</ele>
        <time>2022-08-01T06:18:19Z</time>
      </trkpt>
      <trkpt lat="45.88111" lon="1.29422">
        <ele>351</ele>
        <time>2022-08-01T06:18:21Z</time>
      </trkpt>
      <trkpt lat="45.88104" lon="1.29425">
        <ele>351.2</ele>
        <time>2022-08-01T06:18:23Z</time>
      </trkpt>
      <trkpt lat="45.88098" lon="1.2943">
        <ele>351.4</ele>
        <time>2022-08-01T06:18:25Z</time>
      </trkpt>
      <trkpt lat="45.88094" lon="1.29438">
        <ele>351.5</ele>
        <time>2022-08-01T06:18:27Z</time>
      </trkpt>
      <trkpt lat="45.88091" lon="1.29448">
        <ele>351.5</ele>
        <time>2022-08-01T06:18:29Z</time>
      </trkpt>
      <trkpt lat="45.8809" lon="1.29457">
        <ele>351.4</ele>
        <time>2022-08-01T06:18:31Z</time>
      </trkpt>
      <trkpt lat="45.8809" lon="1.29467">
        <ele>351.3</ele>
        <time>2022-08-01T06:18:33Z</time>
      </trkpt>
      <trkpt lat="45.88089" lon="1.29477">
        <ele>351.3</ele>
        <time>2022-08-01T06:18:35Z</time>
      </trkpt>
      <trkpt lat="45.88085" lon="1.29486">
        <ele>351.2</ele>
        <time>2022-08-01T06:18:37Z</time>
      </trkpt>
      <trkpt lat="45.88079" lon="1.29492">
        <ele>351.2</ele>
        <time>2022-08-01T06:18:39Z</time>
      </trkpt>
      <trkpt lat="45.88074" lon="1.29499">
        <ele>351.4</ele>
        <time>2022-08-01T06:18:41Z</time>
      </trkpt>
      <trkpt lat="45.8807" lon="1.29497">
        <ele>351.5</ele>
        <time>2022-08-01T06:18:43Z</time>
      </trkpt>
      <trkpt lat="45.8807" lon="1.29496">
        <ele>351.5</ele>
        <time>2022-08-01T06:18:45Z</time>
      </trkpt>
      <trkpt lat="45.88069" lon="1.29494">
        <ele>351.6</ele>
        <time>2022-08-01T06:18:47Z</time>
      </trkpt>
      <trkpt lat="45.88071" lon="1.29489">
        <ele>351.5</ele>
        <time>2022-08-01T06:18:49Z</time>
      </trkpt>
      <trkpt lat="45.88073" lon="1.29484">
        <ele>351.5</ele>
        <time>2022-08-01T06:18:51Z</time>
      </trkpt>
      <trkpt lat="45.88076" lon="1.29479">
        <ele>351.5</ele>
        <time>2022-08-01T06:18:53Z</time>
      </trkpt>
      <trkpt lat="45.88077" lon="1.29474">
        <ele>351.5</ele>
        <time>2022-08-01T06:18:55Z</time>
      </trkpt>
      <trkpt lat="45.88079" lon="1.2947">
        <ele>351.5</ele>
        <time>2022-08-01T06:18:57Z</time>
      </trkpt>
      <trkpt lat="45.8808" lon="1.29465">
        <ele>351.5</ele>
        <time>2022-08-01T06:18:59Z</time>
      </trkpt>
      <trkpt lat="45.88082" lon="1.29461">
        <ele>351.5</ele>
        <time>2022-08-01T06:19:01Z</time>
      </trkpt>
      <trkpt lat="45.88084" lon="1.29455">
        <ele>351.5</ele>
        <time>2022-08-01T06:19:03Z</time>
      </trkpt>
      <trkpt lat="45.88087" lon="1.29453">
        <ele>351.5</ele>
        <time>2022-08-01T06:19:05Z</time>
      </trkpt>
      <trkpt lat="45.88087" lon="1.29457">
        <ele>351.5</ele>
        <time>2022-08-01T06:19:07Z</time>
      </trkpt>
      <trkpt lat="45.88088" lon="1.29458">
        <ele>351.5</ele>
        <time>2022-08-01T06:19:09Z</time>
      </trkpt>
      <trkpt lat="45.88088" lon="1.2946">
        <ele>351.4</ele>
        <time>2022-08-01T06:19:11Z</time>
      </trkpt>
      <trkpt lat="45.88088" lon="1.2946">
        <ele>351.4</ele>
        <time>2022-08-01T06:19:13Z</time>
      </trkpt>
      <trkpt lat="45.88086" lon="1.29477">
        <ele>351.3</ele>
        <time>2022-08-01T06:19:37Z</time>
      </trkpt>
      <trkpt lat="45.88086" lon="1.29482">
        <ele>351.2</ele>
        <time>2022-08-01T06:19:39Z</time>
      </trkpt>
      <trkpt lat="45.88083" lon="1.29488">
        <ele>351.1</ele>
        <time>2022-08-01T06:19:41Z</time>
      </trkpt>
      <trkpt lat="45.88078" lon="1.29494">
        <ele>351.3</ele>
        <time>2022-08-01T06:19:43Z</time>
      </trkpt>
      <trkpt lat="45.88072" lon="1.29498">
        <ele>351.4</ele>
        <time>2022-08-01T06:19:45Z</time>
      </trkpt>
      <trkpt lat="45.88067" lon="1.29504">
        <ele>351.8</ele>
        <time>2022-08-01T06:19:47Z</time>
      </trkpt>
      <trkpt lat="45.88062" lon="1.29512">
        <ele>352.2</ele>
        <time>2022-08-01T06:19:49Z</time>
      </trkpt>
      <trkpt lat="45.88057" lon="1.2952">
        <ele>352.6</ele>
        <time>2022-08-01T06:19:51Z</time>
      </trkpt>
      <trkpt lat="45.88054" lon="1.29528">
        <ele>352.9</ele>
        <time>2022-08-01T06:19:53Z</time>
      </trkpt>
      <trkpt lat="45.8805" lon="1.29537">
        <ele>353.3</ele>
        <time>2022-08-01T06:19:55Z</time>
      </trkpt>
      <trkpt lat="45.88047" lon="1.29546">
        <ele>353.6</ele>
        <time>2022-08-01T06:19:57Z</time>
      </trkpt>
      <trkpt lat="45.88043" lon="1.29555">
        <ele>353.8</ele>
        <time>2022-08-01T06:19:59Z</time>
      </trkpt>
      <trkpt lat="45.8804" lon="1.29564">
        <ele>354</ele>
        <time>2022-08-01T06:20:01Z</time>
      </trkpt>
      <trkpt lat="45.88036" lon="1.29573">
        <ele>354.2</ele>
        <time>2022-08-01T06:20:03Z</time>
      </trkpt>
      <trkpt lat="45.88032" lon="1.29582">
        <ele>354.4</ele>
        <time>2022-08-01T06:20:05Z</time>
      </trkpt>
      <trkpt lat="45.88029" lon="1.29591">
        <ele>354.2</ele>
        <time>2022-08-01T06:20:07Z</time>
      </trkpt>
      <trkpt lat="45.88025" lon="1.29601">
        <ele>354.1</ele>
        <time>2022-08-01T06:20:09Z</time>
      </trkpt>
      <trkpt lat="45.88021" lon="1.2961">
        <ele>353.9</ele>
        <time>2022-08-01T06:20:11Z</time>
      </trkpt>
      <trkpt lat="45.88017" lon="1.2962">
        <ele>353.8</ele>
        <time>2022-08-01T06:20:13Z</time>
      </trkpt>
      <trkpt lat="45.88013" lon="1.29629">
        <ele>353.6</ele>
        <time>2022-08-01T06:20:15Z</time>
      </trkpt>
      <trkpt lat="45.88009" lon="1.29639">
        <ele>353.4</ele>
        <time>2022-08-01T06:20:17Z</time>
      </trkpt>
      <trkpt lat="45.88004" lon="1.2965">
        <ele>353.3</ele>
        <time>2022-08-01T06:20:19Z</time>
      </trkpt>
      <trkpt lat="45.88" lon="1.2966">
        <ele>353.1</ele>
        <time>2022-08-01T06:20:21Z</time>
      </trkpt>
      <trkpt lat="45.87995" lon="1.2967">
        <ele>353.2</ele>
        <time>2022-08-01T06:20:23Z</time>
      </trkpt>
      <trkpt lat="45.8799" lon="1.2968">
        <ele>353.4</ele>
        <time>2022-08-01T06:20:25Z</time>
      </trkpt>
      <trkpt lat="45.87985" lon="1.29691">
        <ele>353.5</ele>
        <time>2022-08-01T06:20:27Z</time>
      </trkpt>
      <trkpt lat="45.87979" lon="1.29701">
        <ele>353.6</ele>
        <time>2022-08-01T06:20:29Z</time>
      </trkpt>
      <trkpt lat="45.87974" lon="1.29711">
        <ele>353.6</ele>
        <time>2022-08-01T06:20:31Z</time>
      </trkpt>
      <trkpt lat="45.87969" lon="1.29721">
        <ele>353.5</ele>
        <time>2022-08-01T06:20:33Z</time>
      </trkpt>
      <trkpt lat="45.87964" lon="1.2973">
        <ele>353.4</ele>
        <time>2022-08-01T06:20:35Z</time>
      </trkpt>
      <trkpt lat="45.87958" lon="1.2974">
        <ele>353.2</ele>
        <time>2022-08-01T06:20:37Z</time>
      </trkpt>
      <trkpt lat="45.87952" lon="1.29749">
        <ele>353</ele>
        <time>2022-08-01T06:20:39Z</time>
      </trkpt>
      <trkpt lat="45.87946" lon="1.29758">
        <ele>353</ele>
        <time>2022-08-01T06:20:41Z</time>
      </trkpt>
      <trkpt lat="45.87939" lon="1.29768">
        <ele>352.9</ele>
        <time>2022-08-01T06:20:43Z</time>
      </trkpt>
      <trkpt lat="45.87933" lon="1.29777">
        <ele>352.8</ele>
        <time>2022-08-01T06:20:45Z</time>
      </trkpt>
      <trkpt lat="45.87927" lon="1.29786">
        <ele>352.7</ele>
        <time>2022-08-01T06:20:47Z</time>
      </trkpt>
      <trkpt lat="45.8792" lon="1.29795">
        <ele>352.5</ele>
        <time>2022-08-01T06:20:49Z</time>
      </trkpt>
      <trkpt lat="45.87914" lon="1.29805">
        <ele>352.4</ele>
        <time>2022-08-01T06:20:51Z</time>
      </trkpt>
      <trkpt lat="45.87907" lon="1.29815">
        <ele>352.5</ele>
        <time>2022-08-01T06:20:53Z</time>
      </trkpt>
      <trkpt lat="45.87901" lon="1.29825">
        <ele>352.6</ele>
        <time>2022-08-01T06:20:55Z</time>
      </trkpt>
      <trkpt lat="45.87895" lon="1.29835">
        <ele>352.7</ele>
        <time>2022-08-01T06:20:57Z</time>
      </trkpt>
      <trkpt lat="45.87889" lon="1.29846">
        <ele>352.7</ele>
        <time>2022-08-01T06:20:59Z</time>
      </trkpt>
      <trkpt lat="45.87884" lon="1.29857">
        <ele>352.6</ele>
        <time>2022-08-01T06:21:01Z</time>
      </trkpt>
      <trkpt lat="45.87878" lon="1.29869">
        <ele>352.5</ele>
        <time>2022-08-01T06:21:03Z</time>
      </trkpt>
      <trkpt lat="45.87872" lon="1.29881">
        <ele>352.5</ele>
        <time>2022-08-01T06:21:05Z</time>
      </trkpt>
      <trkpt lat="45.87867" lon="1.29893">
        <ele>352.3</ele>
        <time>2022-08-01T06:21:07Z</time>
      </trkpt>
      <trkpt lat="45.87862" lon="1.29905">
        <ele>352.2</ele>
        <time>2022-08-01T06:21:09Z</time>
      </trkpt>
      <trkpt lat="45.87857" lon="1.29919">
        <ele>352.1</ele>
        <time>2022-08-01T06:21:11Z</time>
      </trkpt>
      <trkpt lat="45.87852" lon="1.29932">
        <ele>352</ele>
        <time>2022-08-01T06:21:13Z</time>
      </trkpt>
      <trkpt lat="45.87847" lon="1.29945">
        <ele>351.8</ele>
        <time>2022-08-01T06:21:15Z</time>
      </trkpt>
      <trkpt lat="45.87842" lon="1.29959">
        <ele>351.7</ele>
        <time>2022-08-01T06:21:17Z</time>
      </trkpt>
      <trkpt lat="45.8784" lon="1.29972">
        <ele>351.4</ele>
        <time>2022-08-01T06:21:19Z</time>
      </trkpt>
      <trkpt lat="45.87835" lon="1.29985">
        <ele>351.3</ele>
        <time>2022-08-01T06:21:21Z</time>
      </trkpt>
      <trkpt lat="45.87828" lon="1.29994">
        <ele>351.3</ele>
        <time>2022-08-01T06:21:23Z</time>
      </trkpt>
      <trkpt lat="45.87823" lon="1.30006">
        <ele>351.2</ele>
        <time>2022-08-01T06:21:25Z</time>
      </trkpt>
      <trkpt lat="45.87817" lon="1.30018">
        <ele>351.1</ele>
        <time>2022-08-01T06:21:27Z</time>
      </trkpt>
      <trkpt lat="45.87812" lon="1.30029">
        <ele>351.1</ele>
        <time>2022-08-01T06:21:29Z</time>
      </trkpt>
      <trkpt lat="45.87805" lon="1.30039">
        <ele>351.1</ele>
        <time>2022-08-01T06:21:31Z</time>
      </trkpt>
      <trkpt lat="45.87799" lon="1.30049">
        <ele>351.1</ele>
        <time>2022-08-01T06:21:33Z</time>
      </trkpt>
      <trkpt lat="45.87791" lon="1.30058">
        <ele>351.1</ele>
        <time>2022-08-01T06:21:35Z</time>
      </trkpt>
      <trkpt lat="45.87783" lon="1.30065">
        <ele>351.2</ele>
        <time>2022-08-01T06:21:37Z</time>
      </trkpt>
      <trkpt lat="45.87775" lon="1.30072">
        <ele>351.4</ele>
        <time>2022-08-01T06:21:39Z</time>
      </trkpt>
      <trkpt lat="45.87767" lon="1.30078">
        <ele>351.5</ele>
        <time>2022-08-01T06:21:41Z</time>
      </trkpt>
      <trkpt lat="45.87758" lon="1.30083">
        <ele>351.7</ele>
        <time>2022-08-01T06:21:43Z</time>
      </trkpt>
      <trkpt lat="45.87749" lon="1.30087">
        <ele>351.8</ele>
        <time>2022-08-01T06:21:45Z</time>
      </trkpt>
      <trkpt lat="45.8774" lon="1.30091">
        <ele>351.7</ele>
        <time>2022-08-01T06:21:47Z</time>
      </trkpt>
      <trkpt lat="45.87731" lon="1.30092">
        <ele>351.6</ele>
        <time>2022-08-01T06:21:49Z</time>
      </trkpt>
      <trkpt lat="45.87722" lon="1.30093">
        <ele>351.6</ele>
        <time>2022-08-01T06:21:51Z</time>
      </trkpt>
      <trkpt lat="45.87713" lon="1.30093">
        <ele>351.6</ele>
        <time>2022-08-01T06:21:53Z</time>
      </trkpt>
      <trkpt lat="45.87703" lon="1.30093">
        <ele>351.7</ele>
        <time>2022-08-01T06:21:55Z</time>
      </trkpt>
      <trkpt lat="45.87694" lon="1.30091">
        <ele>351.7</ele>
        <time>2022-08-01T06:21:57Z</time>
      </trkpt>
      <trkpt lat="45.87684" lon="1.30091">
        <ele>351.8</ele>
        <time>2022-08-01T06:21:59Z</time>
      </trkpt>
      <trkpt lat="45.87675" lon="1.3009">
        <ele>351.8</ele>
        <time>2022-08-01T06:22:01Z</time>
      </trkpt>
      <trkpt lat="45.87666" lon="1.30088">
        <ele>351.9</ele>
        <time>2022-08-01T06:22:03Z</time>
      </trkpt>
      <trkpt lat="45.87657" lon="1.30087">
        <ele>352.3</ele>
        <time>2022-08-01T06:22:05Z</time>
      </trkpt>
      <trkpt lat="45.87647" lon="1.30087">
        <ele>352.6</ele>
        <time>2022-08-01T06:22:07Z</time>
      </trkpt>
      <trkpt lat="45.87639" lon="1.30085">
        <ele>352.9</ele>
        <time>2022-08-01T06:22:09Z</time>
      </trkpt>
      <trkpt lat="45.8763" lon="1.30084">
        <ele>353.3</ele>
        <time>2022-08-01T06:22:11Z</time>
      </trkpt>
      <trkpt lat="45.87621" lon="1.30083">
        <ele>353.7</ele>
        <time>2022-08-01T06:22:13Z</time>
      </trkpt>
      <trkpt lat="45.87612" lon="1.30081">
        <ele>354</ele>
        <time>2022-08-01T06:22:15Z</time>
      </trkpt>
      <trkpt lat="45.87604" lon="1.30081">
        <ele>354.3</ele>
        <time>2022-08-01T06:22:17Z</time>
      </trkpt>
      <trkpt lat="45.87595" lon="1.3008">
        <ele>354.6</ele>
        <time>2022-08-01T06:22:19Z</time>
      </trkpt>
      <trkpt lat="45.87587" lon="1.30079">
        <ele>355</ele>
        <time>2022-08-01T06:22:21Z</time>
      </trkpt>
      <trkpt lat="45.8758" lon="1.30079">
        <ele>355.2</ele>
        <time>2022-08-01T06:22:23Z</time>
      </trkpt>
      <trkpt lat="45.87576" lon="1.30084">
        <ele>355.2</ele>
        <time>2022-08-01T06:22:25Z</time>
      </trkpt>
      <trkpt lat="45.87577" lon="1.3009">
        <ele>354.9</ele>
        <time>2022-08-01T06:22:27Z</time>
      </trkpt>
      <trkpt lat="45.87577" lon="1.30097">
        <ele>354.5</ele>
        <time>2022-08-01T06:22:29Z</time>
      </trkpt>
      <trkpt lat="45.87577" lon="1.30107">
        <ele>354.1</ele>
        <time>2022-08-01T06:22:31Z</time>
      </trkpt>
      <trkpt lat="45.87577" lon="1.30116">
        <ele>353.7</ele>
        <time>2022-08-01T06:22:33Z</time>
      </trkpt>
      <trkpt lat="45.87578" lon="1.30125">
        <ele>353.2</ele>
        <time>2022-08-01T06:22:35Z</time>
      </trkpt>
      <trkpt lat="45.87579" lon="1.30131">
        <ele>352.9</ele>
        <time>2022-08-01T06:22:37Z</time>
      </trkpt>
      <trkpt lat="45.87587" lon="1.30136">
        <ele>352.4</ele>
        <time>2022-08-01T06:22:39Z</time>
      </trkpt>
      <trkpt lat="45.87595" lon="1.30139">
        <ele>352.1</ele>
        <time>2022-08-01T06:22:41Z</time>
      </trkpt>
      <trkpt lat="45.87603" lon="1.30143">
        <ele>351.8</ele>
        <time>2022-08-01T06:22:43Z</time>
      </trkpt>
      <trkpt lat="45.87612" lon="1.30148">
        <ele>351.4</ele>
        <time>2022-08-01T06:22:45Z</time>
      </trkpt>
      <trkpt lat="45.87622" lon="1.30151">
        <ele>351.1</ele>
        <time>2022-08-01T06:22:47Z</time>
      </trkpt>
      <trkpt lat="45.87631" lon="1.30157">
        <ele>350.8</ele>
        <time>2022-08-01T06:22:49Z</time>
      </trkpt>
      <trkpt lat="45.87641" lon="1.30161">
        <ele>350.5</ele>
        <time>2022-08-01T06:22:51Z</time>
      </trkpt>
      <trkpt lat="45.87651" lon="1.30165">
        <ele>350.2</ele>
        <time>2022-08-01T06:22:53Z</time>
      </trkpt>
      <trkpt lat="45.87661" lon="1.30168">
        <ele>350</ele>
        <time>2022-08-01T06:22:55Z</time>
      </trkpt>
      <trkpt lat="45.87672" lon="1.30171">
        <ele>349.8</ele>
        <time>2022-08-01T06:22:57Z</time>
      </trkpt>
      <trkpt lat="45.87682" lon="1.30173">
        <ele>349.4</ele>
        <time>2022-08-01T06:22:59Z</time>
      </trkpt>
      <trkpt lat="45.87693" lon="1.30174">
        <ele>349.1</ele>
        <time>2022-08-01T06:23:01Z</time>
      </trkpt>
      <trkpt lat="45.87703" lon="1.30175">
        <ele>348.9</ele>
        <time>2022-08-01T06:23:03Z</time>
      </trkpt>
      <trkpt lat="45.87713" lon="1.30174">
        <ele>348.6</ele>
        <time>2022-08-01T06:23:05Z</time>
      </trkpt>
      <trkpt lat="45.87723" lon="1.30172">
        <ele>348.4</ele>
        <time>2022-08-01T06:23:07Z</time>
      </trkpt>
      <trkpt lat="45.87731" lon="1.30172">
        <ele>348.2</ele>
        <time>2022-08-01T06:23:09Z</time>
      </trkpt>
      <trkpt lat="45.87738" lon="1.30178">
        <ele>347.8</ele>
        <time>2022-08-01T06:23:11Z</time>
      </trkpt>
      <trkpt lat="45.8774" lon="1.30188">
        <ele>347.3</ele>
        <time>2022-08-01T06:23:13Z</time>
      </trkpt>
      <trkpt lat="45.87741" lon="1.30199">
        <ele>346.8</ele>
        <time>2022-08-01T06:23:15Z</time>
      </trkpt>
      <trkpt lat="45.87744" lon="1.30208">
        <ele>346.2</ele>
        <time>2022-08-01T06:23:17Z</time>
      </trkpt>
      <trkpt lat="45.87745" lon="1.30219">
        <ele>345.7</ele>
        <time>2022-08-01T06:23:19Z</time>
      </trkpt>
      <trkpt lat="45.87741" lon="1.30231">
        <ele>345.3</ele>
        <time>2022-08-01T06:23:21Z</time>
      </trkpt>
      <trkpt lat="45.87739" lon="1.30241">
        <ele>344.9</ele>
        <time>2022-08-01T06:23:23Z</time>
      </trkpt>
      <trkpt lat="45.8774" lon="1.3025">
        <ele>344.5</ele>
        <time>2022-08-01T06:23:25Z</time>
      </trkpt>
      <trkpt lat="45.87742" lon="1.30256">
        <ele>344.6</ele>
        <time>2022-08-01T06:23:27Z</time>
      </trkpt>
      <trkpt lat="45.87742" lon="1.30261">
        <ele>344.8</ele>
        <time>2022-08-01T06:23:29Z</time>
      </trkpt>
      <trkpt lat="45.87743" lon="1.30261">
        <ele>344.7</ele>
        <time>2022-08-01T06:23:31Z</time>
      </trkpt>
      <trkpt lat="45.87743" lon="1.30262">
        <ele>344.7</ele>
        <time>2022-08-01T06:23:33Z</time>
      </trkpt>
      <trkpt lat="45.87743" lon="1.30262">
        <ele>344.8</ele>
        <time>2022-08-01T06:23:35Z</time>
      </trkpt>
      <trkpt lat="45.87743" lon="1.30262">
        <ele>344.8</ele>
        <time>2022-08-01T06:23:37Z</time>
      </trkpt>
      <trkpt lat="45.87754" lon="1.30267">
        <ele>344.6</ele>
        <time>2022-08-01T06:24:03Z</time>
      </trkpt>
      <trkpt lat="45.87761" lon="1.30265">
        <ele>344.5</ele>
        <time>2022-08-01T06:24:05Z</time>
      </trkpt>
      <trkpt lat="45.87768" lon="1.30261">
        <ele>344.3</ele>
        <time>2022-08-01T06:24:07Z</time>
      </trkpt>
      <trkpt lat="45.87775" lon="1.30259">
        <ele>344.2</ele>
        <time>2022-08-01T06:24:09Z</time>
      </trkpt>
      <trkpt lat="45.87783" lon="1.30264">
        <ele>344.3</ele>
        <time>2022-08-01T06:24:11Z</time>
      </trkpt>
      <trkpt lat="45.8779" lon="1.3027">
        <ele>344.4</ele>
        <time>2022-08-01T06:24:13Z</time>
      </trkpt>
      <trkpt lat="45.87797" lon="1.30276">
        <ele>344.4</ele>
        <time>2022-08-01T06:24:15Z</time>
      </trkpt>
      <trkpt lat="45.87805" lon="1.30283">
        <ele>344.4</ele>
        <time>2022-08-01T06:24:17Z</time>
      </trkpt>
      <trkpt lat="45.87812" lon="1.30289">
        <ele>344.4</ele>
        <time>2022-08-01T06:24:19Z</time>
      </trkpt>
      <trkpt lat="45.87819" lon="1.30294">
        <ele>344.3</ele>
        <time>2022-08-01T06:24:21Z</time>
      </trkpt>
      <trkpt lat="45.87827" lon="1.30299">
        <ele>344.1</ele>
        <time>2022-08-01T06:24:23Z</time>
      </trkpt>
      <trkpt lat="45.87832" lon="1.30306">
        <ele>344</ele>
        <time>2022-08-01T06:24:25Z</time>
      </trkpt>
      <trkpt lat="45.87838" lon="1.30309">
        <ele>343.9</ele>
        <time>2022-08-01T06:24:27Z</time>
      </trkpt>
      <trkpt lat="45.87844" lon="1.30313">
        <ele>343.8</ele>
        <time>2022-08-01T06:24:29Z</time>
      </trkpt>
      <trkpt lat="45.87853" lon="1.30318">
        <ele>343.6</ele>
        <time>2022-08-01T06:24:31Z</time>
      </trkpt>
      <trkpt lat="45.87859" lon="1.30322">
        <ele>343.4</ele>
        <time>2022-08-01T06:24:33Z</time>
      </trkpt>
      <trkpt lat="45.87868" lon="1.30323">
        <ele>343.2</ele>
        <time>2022-08-01T06:24:35Z</time>
      </trkpt>
      <trkpt lat="45.87877" lon="1.30325">
        <ele>343</ele>
        <time>2022-08-01T06:24:37Z</time>
      </trkpt>
      <trkpt lat="45.87885" lon="1.30325">
        <ele>342.8</ele>
        <time>2022-08-01T06:24:39Z</time>
      </trkpt>
      <trkpt lat="45.87894" lon="1.30322">
        <ele>342.6</ele>
        <time>2022-08-01T06:24:41Z</time>
      </trkpt>
      <trkpt lat="45.87902" lon="1.3032">
        <ele>342.5</ele>
        <time>2022-08-01T06:24:43Z</time>
      </trkpt>
      <trkpt lat="45.87911" lon="1.30318">
        <ele>342.3</ele>
        <time>2022-08-01T06:24:45Z</time>
      </trkpt>
      <trkpt lat="45.87916" lon="1.30318">
        <ele>342.2</ele>
        <time>2022-08-01T06:24:47Z</time>
      </trkpt>
      <trkpt lat="45.87918" lon="1.30319">
        <ele>342.1</ele>
        <time>2022-08-01T06:24:49Z</time>
      </trkpt>
      <trkpt lat="45.87918" lon="1.3032">
        <ele>342.1</ele>
        <time>2022-08-01T06:24:51Z</time>
      </trkpt>
      <trkpt lat="45.87918" lon="1.3032">
        <ele>342.1</ele>
        <time>2022-08-01T06:24:53Z</time>
      </trkpt>
      <trkpt lat="45.87918" lon="1.30319">
        <ele>342.1</ele>
        <time>2022-08-01T06:24:55Z</time>
      </trkpt>
      <trkpt lat="45.87922" lon="1.30319">
        <ele>342</ele>
        <time>2022-08-01T06:24:57Z</time>
      </trkpt>
      <trkpt lat="45.87925" lon="1.30325">
        <ele>341.8</ele>
        <time>2022-08-01T06:24:59Z</time>
      </trkpt>
      <trkpt lat="45.87928" lon="1.30333">
        <ele>341.6</ele>
        <time>2022-08-01T06:25:01Z</time>
      </trkpt>
      <trkpt lat="45.87932" lon="1.3034">
        <ele>341.6</ele>
        <time>2022-08-01T06:25:03Z</time>
      </trkpt>
      <trkpt lat="45.87935" lon="1.30346">
        <ele>341.5</ele>
        <time>2022-08-01T06:25:05Z</time>
      </trkpt>
      <trkpt lat="45.87934" lon="1.30352">
        <ele>341.6</ele>
        <time>2022-08-01T06:25:07Z</time>
      </trkpt>
      <trkpt lat="45.87931" lon="1.30358">
        <ele>341.8</ele>
        <time>2022-08-01T06:25:09Z</time>
      </trkpt>
      <trkpt lat="45.87926" lon="1.30363">
        <ele>342.1</ele>
        <time>2022-08-01T06:25:11Z</time>
      </trkpt>
      <trkpt lat="45.87921" lon="1.30367">
        <ele>342.3</ele>
        <time>2022-08-01T06:25:13Z</time>
      </trkpt>
      <trkpt lat="45.87917" lon="1.30372">
        <ele>342.5</ele>
        <time>2022-08-01T06:25:15Z</time>
      </trkpt>
      <trkpt lat="45.87912" lon="1.30376">
        <ele>342.7</ele>
        <time>2022-08-01T06:25:17Z</time>
      </trkpt>
      <trkpt lat="45.87907" lon="1.30381">
        <ele>342.9</ele>
        <time>2022-08-01T06:25:19Z</time>
      </trkpt>
      <trkpt lat="45.87903" lon="1.30387">
        <ele>343.1</ele>
        <time>2022-08-01T06:25:21Z</time>
      </trkpt>
      <trkpt lat="45.87897" lon="1.30392">
        <ele>343.3</ele>
        <time>2022-08-01T06:25:23Z</time>
      </trkpt>
      <trkpt lat="45.87892" lon="1.30397">
        <ele>343.6</ele>
        <time>2022-08-01T06:25:25Z</time>
      </trkpt>
      <trkpt lat="45.87888" lon="1.30401">
        <ele>343.8</ele>
        <time>2022-08-01T06:25:27Z</time>
      </trkpt>
      <trkpt lat="45.87883" lon="1.30406">
        <ele>344</ele>
        <time>2022-08-01T06:25:29Z</time>
      </trkpt>
      <trkpt lat="45.87879" lon="1.30411">
        <ele>344.3</ele>
        <time>2022-08-01T06:25:31Z</time>
      </trkpt>
      <trkpt lat="45.87873" lon="1.30415">
        <ele>344.5</ele>
        <time>2022-08-01T06:25:33Z</time>
      </trkpt>
      <trkpt lat="45.87869" lon="1.3042">
        <ele>344.7</ele>
        <time>2022-08-01T06:25:35Z</time>
      </trkpt>
      <trkpt lat="45.87864" lon="1.30425">
        <ele>344.9</ele>
        <time>2022-08-01T06:25:37Z</time>
      </trkpt>
      <trkpt lat="45.87859" lon="1.3043">
        <ele>345.1</ele>
        <time>2022-08-01T06:25:39Z</time>
      </trkpt>
      <trkpt lat="45.87854" lon="1.30435">
        <ele>345.3</ele>
        <time>2022-08-01T06:25:41Z</time>
      </trkpt>
      <trkpt lat="45.87849" lon="1.3044">
        <ele>345.5</ele>
        <time>2022-08-01T06:25:43Z</time>
      </trkpt>
      <trkpt lat="45.87844" lon="1.30445">
        <ele>345.7</ele>
        <time>2022-08-01T06:25:45Z</time>
      </trkpt>
      <trkpt lat="45.87839" lon="1.30449">
        <ele>345.8</ele>
        <time>2022-08-01T06:25:47Z</time>
      </trkpt>
      <trkpt lat="45.87834" lon="1.30454">
        <ele>346</ele>
        <time>2022-08-01T06:25:49Z</time>
      </trkpt>
      <trkpt lat="45.8783" lon="1.3046">
        <ele>346.1</ele>
        <time>2022-08-01T06:25:51Z</time>
      </trkpt>
      <trkpt lat="45.87825" lon="1.30464">
        <ele>346.1</ele>
        <time>2022-08-01T06:25:53Z</time>
      </trkpt>
      <trkpt lat="45.8782" lon="1.30469">
        <ele>346.2</ele>
        <time>2022-08-01T06:25:55Z</time>
      </trkpt>
      <trkpt lat="45.87815" lon="1.30473">
        <ele>346.2</ele>
        <time>2022-08-01T06:25:57Z</time>
      </trkpt>
      <trkpt lat="45.87811" lon="1.30478">
        <ele>346.2</ele>
        <time>2022-08-01T06:25:59Z</time>
      </trkpt>
      <trkpt lat="45.87808" lon="1.30481">
        <ele>346.2</ele>
        <time>2022-08-01T06:26:01Z</time>
      </trkpt>
      <trkpt lat="45.87805" lon="1.30483">
        <ele>346.2</ele>
        <time>2022-08-01T06:26:03Z</time>
      </trkpt>
      <trkpt lat="45.87804" lon="1.30487">
        <ele>346.2</ele>
        <time>2022-08-01T06:26:05Z</time>
      </trkpt>
      <trkpt lat="45.87807" lon="1.30492">
        <ele>346.1</ele>
        <time>2022-08-01T06:26:07Z</time>
      </trkpt>
      <trkpt lat="45.87813" lon="1.30491">
        <ele>346.1</ele>
        <time>2022-08-01T06:26:09Z</time>
      </trkpt>
      <trkpt lat="45.87817" lon="1.30493">
        <ele>346</ele>
        <time>2022-08-01T06:26:11Z</time>
      </trkpt>
      <trkpt lat="45.87822" lon="1.30494">
        <ele>346</ele>
        <time>2022-08-01T06:26:13Z</time>
      </trkpt>
      <trkpt lat="45.87827" lon="1.30496">
        <ele>346</ele>
        <time>2022-08-01T06:26:15Z</time>
      </trkpt>
      <trkpt lat="45.87832" lon="1.305">
        <ele>346</ele>
        <time>2022-08-01T06:26:17Z</time>
      </trkpt>
      <trkpt lat="45.87837" lon="1.30505">
        <ele>345.7</ele>
        <time>2022-08-01T06:26:19Z</time>
      </trkpt>
      <trkpt lat="45.87843" lon="1.3051">
        <ele>345.4</ele>
        <time>2022-08-01T06:26:21Z</time>
      </trkpt>
      <trkpt lat="45.87849" lon="1.30515">
        <ele>345.1</ele>
        <time>2022-08-01T06:26:23Z</time>
      </trkpt>
      <trkpt lat="45.87856" lon="1.30521">
        <ele>344.8</ele>
        <time>2022-08-01T06:26:25Z</time>
      </trkpt>
      <trkpt lat="45.87862" lon="1.30527">
        <ele>344.6</ele>
        <time>2022-08-01T06:26:27Z</time>
      </trkpt>
      <trkpt lat="45.87869" lon="1.30533">
        <ele>344.3</ele>
        <time>2022-08-01T06:26:29Z</time>
      </trkpt>
      <trkpt lat="45.87877" lon="1.30539">
        <ele>344</ele>
        <time>2022-08-01T06:26:31Z</time>
      </trkpt>
      <trkpt lat="45.87883" lon="1.30544">
        <ele>343.8</ele>
        <time>2022-08-01T06:26:33Z</time>
      </trkpt>
      <trkpt lat="45.87889" lon="1.30549">
        <ele>343.7</ele>
        <time>2022-08-01T06:26:35Z</time>
      </trkpt>
      <trkpt lat="45.87895" lon="1.30554">
        <ele>343.5</ele>
        <time>2022-08-01T06:26:37Z</time>
      </trkpt>
      <trkpt lat="45.87901" lon="1.30559">
        <ele>343.4</ele>
        <time>2022-08-01T06:26:39Z</time>
      </trkpt>
      <trkpt lat="45.87904" lon="1.30561">
        <ele>343.3</ele>
        <time>2022-08-01T06:26:41Z</time>
      </trkpt>
      <trkpt lat="45.87904" lon="1.30561">
        <ele>343.3</ele>
        <time>2022-08-01T06:26:43Z</time>
      </trkpt>
      <trkpt lat="45.87904" lon="1.30561">
        <ele>343.3</ele>
        <time>2022-08-01T06:26:45Z</time>
      </trkpt>
      <trkpt lat="45.87904" lon="1.30561">
        <ele>343.3</ele>
        <time>2022-08-01T06:26:47Z</time>
      </trkpt>
      <trkpt lat="45.87904" lon="1.30561">
        <ele>343.3</ele>
        <time>2022-08-01T06:26:49Z</time>
      </trkpt>
      <trkpt lat="45.87904" lon="1.30561">
        <ele>343.3</ele>
        <time>2022-08-01T06:26:51Z</time>
      </trkpt>
      <trkpt lat="45.8789" lon="1.30548">
        <ele>343.7</ele>
        <time>2022-08-01T06:27:15Z</time>
      </trkpt>
      <trkpt lat="45.87884" lon="1.30544">
        <ele>343.8</ele>
        <time>2022-08-01T06:27:17Z</time>
      </trkpt>
      <trkpt lat="45.87878" lon="1.30539">
        <ele>344</ele>
        <time>2022-08-01T06:27:19Z</time>
      </trkpt>
      <trkpt lat="45.87872" lon="1.30534">
        <ele>344.2</ele>
        <time>2022-08-01T06:27:21Z</time>
      </trkpt>
      <trkpt lat="45.87866" lon="1.30529">
        <ele>344.4</ele>
        <time>2022-08-01T06:27:23Z</time>
      </trkpt>
      <trkpt lat="45.8786" lon="1.30524">
        <ele>344.7</ele>
        <time>2022-08-01T06:27:25Z</time>
      </trkpt>
      <trkpt lat="45.87854" lon="1.30518">
        <ele>345</ele>
        <time>2022-08-01T06:27:27Z</time>
      </trkpt>
      <trkpt lat="45.87848" lon="1.30513">
        <ele>345.2</ele>
        <time>2022-08-01T06:27:29Z</time>
      </trkpt>
      <trkpt lat="45.87843" lon="1.30508">
        <ele>345.5</ele>
        <time>2022-08-01T06:27:31Z</time>
      </trkpt>
      <trkpt lat="45.87837" lon="1.30502">
        <ele>345.8</ele>
        <time>2022-08-01T06:27:33Z</time>
      </trkpt>
      <trkpt lat="45.87831" lon="1.30498">
        <ele>346</ele>
        <time>2022-08-01T06:27:35Z</time>
      </trkpt>
      <trkpt lat="45.87826" lon="1.30494">
        <ele>346</ele>
        <time>2022-08-01T06:27:37Z</time>
      </trkpt>
      <trkpt lat="45.87821" lon="1.30489">
        <ele>346.1</ele>
        <time>2022-08-01T06:27:39Z</time>
      </trkpt>
      <trkpt lat="45.87816" lon="1.30485">
        <ele>346.1</ele>
        <time>2022-08-01T06:27:41Z</time>
      </trkpt>
      <trkpt lat="45.87812" lon="1.30481">
        <ele>346.2</ele>
        <time>2022-08-01T06:27:43Z</time>
      </trkpt>
      <trkpt lat="45.87807" lon="1.30477">
        <ele>346.3</ele>
        <time>2022-08-01T06:27:45Z</time>
      </trkpt>
      <trkpt lat="45.87803" lon="1.30472">
        <ele>346.4</ele>
        <time>2022-08-01T06:27:47Z</time>
      </trkpt>
      <trkpt lat="45.87799" lon="1.30469">
        <ele>346.5</ele>
        <time>2022-08-01T06:27:49Z</time>
      </trkpt>
      <trkpt lat="45.87794" lon="1.30466">
        <ele>346.6</ele>
        <time>2022-08-01T06:27:51Z</time>
      </trkpt>
      <trkpt lat="45.8779" lon="1.30463">
        <ele>346.7</ele>
        <time>2022-08-01T06:27:53Z</time>
      </trkpt>
      <trkpt lat="45.87785" lon="1.30459">
        <ele>346.8</ele>
        <time>2022-08-01T06:27:55Z</time>
      </trkpt>
      <trkpt lat="45.87781" lon="1.30456">
        <ele>347</ele>
        <time>2022-08-01T06:27:57Z</time>
      </trkpt>
      <trkpt lat="45.87776" lon="1.30451">
        <ele>347.2</ele>
        <time>2022-08-01T06:27:59Z</time>
      </trkpt>
      <trkpt lat="45.87771" lon="1.30448">
        <ele>347.4</ele>
        <time>2022-08-01T06:28:01Z</time>
      </trkpt>
      <trkpt lat="45.87766" lon="1.30444">
        <ele>347.6</ele>
        <time>2022-08-01T06:28:03Z</time>
      </trkpt>
      <trkpt lat="45.87762" lon="1.30438">
        <ele>347.9</ele>
        <time>2022-08-01T06:28:05Z</time>
      </trkpt>
      <trkpt lat="45.87756" lon="1.30435">
        <ele>348.2</ele>
        <time>2022-08-01T06:28:07Z</time>
      </trkpt>
      <trkpt lat="45.87751" lon="1.30431">
        <ele>348.4</ele>
        <time>2022-08-01T06:28:09Z</time>
      </trkpt>
      <trkpt lat="45.87746" lon="1.30428">
        <ele>348.5</ele>
        <time>2022-08-01T06:28:11Z</time>
      </trkpt>
      <trkpt lat="45.87741" lon="1.30425">
        <ele>348.5</ele>
        <time>2022-08-01T06:28:13Z</time>
      </trkpt>
      <trkpt lat="45.87736" lon="1.30423">
        <ele>348.5</ele>
        <time>2022-08-01T06:28:15Z</time>
      </trkpt>
      <trkpt lat="45.87731" lon="1.30419">
        <ele>348.5</ele>
        <time>2022-08-01T06:28:17Z</time>
      </trkpt>
      <trkpt lat="45.87725" lon="1.30415">
        <ele>348.4</ele>
        <time>2022-08-01T06:28:19Z</time>
      </trkpt>
      <trkpt lat="45.8772" lon="1.30412">
        <ele>348.2</ele>
        <time>2022-08-01T06:28:21Z</time>
      </trkpt>
      <trkpt lat="45.87714" lon="1.30408">
        <ele>348.1</ele>
        <time>2022-08-01T06:28:23Z</time>
      </trkpt>
      <trkpt lat="45.8771" lon="1.30404">
        <ele>348</ele>
        <time>2022-08-01T06:28:25Z</time>
      </trkpt>
      <trkpt lat="45.87706" lon="1.30405">
        <ele>348</ele>
        <time>2022-08-01T06:28:27Z</time>
      </trkpt>
      <trkpt lat="45.87702" lon="1.30411">
        <ele>347.9</ele>
        <time>2022-08-01T06:28:29Z</time>
      </trkpt>
      <trkpt lat="45.87697" lon="1.30409">
        <ele>347.8</ele>
        <time>2022-08-01T06:28:31Z</time>
      </trkpt>
      <trkpt lat="45.87693" lon="1.30404">
        <ele>347.7</ele>
        <time>2022-08-01T06:28:33Z</time>
      </trkpt>
      <trkpt lat="45.8769" lon="1.30401">
        <ele>347.7</ele>
        <time>2022-08-01T06:28:35Z</time>
      </trkpt>
      <trkpt lat="45.87687" lon="1.30402">
        <ele>347.7</ele>
        <time>2022-08-01T06:28:37Z</time>
      </trkpt>
      <trkpt lat="45.87686" lon="1.30405">
        <ele>347.6</ele>
        <time>2022-08-01T06:28:39Z</time>
      </trkpt>
      <trkpt lat="45.87686" lon="1.30405">
        <ele>347.6</ele>
        <time>2022-08-01T06:28:41Z</time>
      </trkpt>
      <trkpt lat="45.87686" lon="1.30405">
        <ele>347.6</ele>
        <time>2022-08-01T06:28:43Z</time>
      </trkpt>
      <trkpt lat="45.87684" lon="1.30411">
        <ele>347.5</ele>
        <time>2022-08-01T06:28:45Z</time>
      </trkpt>
      <trkpt lat="45.87682" lon="1.30419">
        <ele>347.3</ele>
        <time>2022-08-01T06:28:47Z</time>
      </trkpt>
      <trkpt lat="45.8768" lon="1.30427">
        <ele>347.2</ele>
        <time>2022-08-01T06:28:49Z</time>
      </trkpt>
      <trkpt lat="45.87675" lon="1.30429">
        <ele>347</ele>
        <time>2022-08-01T06:28:51Z</time>
      </trkpt>
      <trkpt lat="45.8767" lon="1.3043">
        <ele>346.9</ele>
        <time>2022-08-01T06:28:53Z</time>
      </trkpt>
      <trkpt lat="45.87664" lon="1.30433">
        <ele>346.8</ele>
        <time>2022-08-01T06:28:55Z</time>
      </trkpt>
      <trkpt lat="45.87657" lon="1.30435">
        <ele>346.6</ele>
        <time>2022-08-01T06:28:57Z</time>
      </trkpt>
      <trkpt lat="45.87649" lon="1.30436">
        <ele>346.5</ele>
        <time>2022-08-01T06:28:59Z</time>
      </trkpt>
      <trkpt lat="45.87644" lon="1.30437">
        <ele>346.3</ele>
        <time>2022-08-01T06:29:01Z</time>
      </trkpt>
      <trkpt lat="45.87638" lon="1.30442">
        <ele>346.1</ele>
        <time>2022-08-01T06:29:03Z</time>
      </trkpt>
      <trkpt lat="45.87632" lon="1.30448">
        <ele>345.9</ele>
        <time>2022-08-01T06:29:05Z</time>
      </trkpt>
      <trkpt lat="45.87626" lon="1.30456">
        <ele>345.6</ele>
        <time>2022-08-01T06:29:07Z</time>
      </trkpt>
      <trkpt lat="45.8762" lon="1.30464">
        <ele>345.2</ele>
        <time>2022-08-01T06:29:09Z</time>
      </trkpt>
      <trkpt lat="45.87615" lon="1.30474">
        <ele>344.8</ele>
        <time>2022-08-01T06:29:11Z</time>
      </trkpt>
      <trkpt lat="45.87611" lon="1.30485">
        <ele>344.4</ele>
        <time>2022-08-01T06:29:13Z</time>
      </trkpt>
      <trkpt lat="45.87604" lon="1.30494">
        <ele>343.9</ele>
        <time>2022-08-01T06:29:15Z</time>
      </trkpt>
      <trkpt lat="45.87596" lon="1.30503">
        <ele>343.4</ele>
        <time>2022-08-01T06:29:17Z</time>
      </trkpt>
      <trkpt lat="45.87589" lon="1.30512">
        <ele>343</ele>
        <time>2022-08-01T06:29:19Z</time>
      </trkpt>
      <trkpt lat="45.87581" lon="1.30521">
        <ele>342.9</ele>
        <time>2022-08-01T06:29:21Z</time>
      </trkpt>
      <trkpt lat="45.87573" lon="1.3053">
        <ele>343.3</ele>
        <time>2022-08-01T06:29:23Z</time>
      </trkpt>
      <trkpt lat="45.87566" lon="1.30538">
        <ele>343.7</ele>
        <time>2022-08-01T06:29:25Z</time>
      </trkpt>
      <trkpt lat="45.87559" lon="1.30545">
        <ele>344.1</ele>
        <time>2022-08-01T06:29:27Z</time>
      </trkpt>
      <trkpt lat="45.87553" lon="1.30551">
        <ele>344.4</ele>
        <time>2022-08-01T06:29:29Z</time>
      </trkpt>
      <trkpt lat="45.87546" lon="1.30557">
        <ele>344.8</ele>
        <time>2022-08-01T06:29:31Z</time>
      </trkpt>
      <trkpt lat="45.8754" lon="1.30563">
        <ele>345.3</ele>
        <time>2022-08-01T06:29:33Z</time>
      </trkpt>
      <trkpt lat="45.87533" lon="1.30565">
        <ele>345.7</ele>
        <time>2022-08-01T06:29:35Z</time>
      </trkpt>
      <trkpt lat="45.87526" lon="1.30569">
        <ele>346.2</ele>
        <time>2022-08-01T06:29:37Z</time>
      </trkpt>
      <trkpt lat="45.8752" lon="1.30575">
        <ele>346.6</ele>
        <time>2022-08-01T06:29:39Z</time>
      </trkpt>
      <trkpt lat="45.87515" lon="1.3058">
        <ele>346.9</ele>
        <time>2022-08-01T06:29:41Z</time>
      </trkpt>
      <trkpt lat="45.8751" lon="1.30585">
        <ele>347.3</ele>
        <time>2022-08-01T06:29:43Z</time>
      </trkpt>
      <trkpt lat="45.87505" lon="1.3059">
        <ele>347.8</ele>
        <time>2022-08-01T06:29:45Z</time>
      </trkpt>
      <trkpt lat="45.875" lon="1.30596">
        <ele>348.3</ele>
        <time>2022-08-01T06:29:47Z</time>
      </trkpt>
      <trkpt lat="45.87497" lon="1.30603">
        <ele>348.6</ele>
        <time>2022-08-01T06:29:49Z</time>
      </trkpt>
      <trkpt lat="45.87496" lon="1.30611">
        <ele>348.8</ele>
        <time>2022-08-01T06:29:51Z</time>
      </trkpt>
      <trkpt lat="45.87494" lon="1.30619">
        <ele>349.1</ele>
        <time>2022-08-01T06:29:53Z</time>
      </trkpt>
      <trkpt lat="45.87492" lon="1.30626">
        <ele>349.3</ele>
        <time>2022-08-01T06:29:55Z</time>
      </trkpt>
      <trkpt lat="45.87491" lon="1.30632">
        <ele>349.5</ele>
        <time>2022-08-01T06:29:57Z</time>
      </trkpt>
      <trkpt lat="45.87488" lon="1.30634">
        <ele>349.6</ele>
        <time>2022-08-01T06:29:59Z</time>
      </trkpt>
      <trkpt lat="45.87485" lon="1.30634">
        <ele>349.7</ele>
        <time>2022-08-01T06:30:01Z</time>
      </trkpt>
      <trkpt lat="45.87482" lon="1.30636">
        <ele>349.9</ele>
        <time>2022-08-01T06:30:03Z</time>
      </trkpt>
      <trkpt lat="45.87482" lon="1.30644">
        <ele>350</ele>
        <time>2022-08-01T06:30:05Z</time>
      </trkpt>
      <trkpt lat="45.87485" lon="1.30653">
        <ele>350.1</ele>
        <time>2022-08-01T06:30:07Z</time>
      </trkpt>
      <trkpt lat="45.87486" lon="1.30664">
        <ele>350.3</ele>
        <time>2022-08-01T06:30:09Z</time>
      </trkpt>
      <trkpt lat="45.87487" lon="1.30676">
        <ele>350.1</ele>
        <time>2022-08-01T06:30:11Z</time>
      </trkpt>
      <trkpt lat="45.87488" lon="1.3069">
        <ele>349.8</ele>
        <time>2022-08-01T06:30:13Z</time>
      </trkpt>
      <trkpt lat="45.87488" lon="1.30704">
        <ele>349.5</ele>
        <time>2022-08-01T06:30:15Z</time>
      </trkpt>
      <trkpt lat="45.87487" lon="1.30719">
        <ele>349.1</ele>
        <time>2022-08-01T06:30:17Z</time>
      </trkpt>
      <trkpt lat="45.87487" lon="1.30734">
        <ele>348.8</ele>
        <time>2022-08-01T06:30:19Z</time>
      </trkpt>
      <trkpt lat="45.87487" lon="1.30748">
        <ele>348.5</ele>
        <time>2022-08-01T06:30:21Z</time>
      </trkpt>
      <trkpt lat="45.87485" lon="1.30762">
        <ele>348.2</ele>
        <time>2022-08-01T06:30:23Z</time>
      </trkpt>
      <trkpt lat="45.87483" lon="1.30777">
        <ele>348</ele>
        <time>2022-08-01T06:30:25Z</time>
      </trkpt>
      <trkpt lat="45.8748" lon="1.30791">
        <ele>347.7</ele>
        <time>2022-08-01T06:30:27Z</time>
      </trkpt>
      <trkpt lat="45.87477" lon="1.30805">
        <ele>347.5</ele>
        <time>2022-08-01T06:30:29Z</time>
      </trkpt>
      <trkpt lat="45.87474" lon="1.30819">
        <ele>347.3</ele>
        <time>2022-08-01T06:30:31Z</time>
      </trkpt>
      <trkpt lat="45.87469" lon="1.30832">
        <ele>347.2</ele>
        <time>2022-08-01T06:30:33Z</time>
      </trkpt>
      <trkpt lat="45.87463" lon="1.30845">
        <ele>347</ele>
        <time>2022-08-01T06:30:35Z</time>
      </trkpt>
      <trkpt lat="45.87457" lon="1.30858">
        <ele>346.8</ele>
        <time>2022-08-01T06:30:37Z</time>
      </trkpt>
      <trkpt lat="45.87451" lon="1.3087">
        <ele>346.7</ele>
        <time>2022-08-01T06:30:39Z</time>
      </trkpt>
      <trkpt lat="45.87445" lon="1.30884">
        <ele>346.6</ele>
        <time>2022-08-01T06:30:41Z</time>
      </trkpt>
      <trkpt lat="45.87439" lon="1.30895">
        <ele>346.5</ele>
        <time>2022-08-01T06:30:43Z</time>
      </trkpt>
      <trkpt lat="45.87433" lon="1.30908">
        <ele>346.4</ele>
        <time>2022-08-01T06:30:45Z</time>
      </trkpt>
      <trkpt lat="45.87428" lon="1.3092">
        <ele>346.3</ele>
        <time>2022-08-01T06:30:47Z</time>
      </trkpt>
      <trkpt lat="45.87422" lon="1.30931">
        <ele>346</ele>
        <time>2022-08-01T06:30:49Z</time>
      </trkpt>
      <trkpt lat="45.87416" lon="1.30943">
        <ele>345.7</ele>
        <time>2022-08-01T06:30:51Z</time>
      </trkpt>
      <trkpt lat="45.87411" lon="1.30955">
        <ele>345</ele>
        <time>2022-08-01T06:30:53Z</time>
      </trkpt>
      <trkpt lat="45.87405" lon="1.30968">
        <ele>344.3</ele>
        <time>2022-08-01T06:30:55Z</time>
      </trkpt>
      <trkpt lat="45.87398" lon="1.3098">
        <ele>343.5</ele>
        <time>2022-08-01T06:30:57Z</time>
      </trkpt>
      <trkpt lat="45.87392" lon="1.30994">
        <ele>342.7</ele>
        <time>2022-08-01T06:30:59Z</time>
      </trkpt>
      <trkpt lat="45.87385" lon="1.31007">
        <ele>342</ele>
        <time>2022-08-01T06:31:01Z</time>
      </trkpt>
      <trkpt lat="45.87379" lon="1.31021">
        <ele>341.3</ele>
        <time>2022-08-01T06:31:03Z</time>
      </trkpt>
      <trkpt lat="45.87372" lon="1.31035">
        <ele>340.7</ele>
        <time>2022-08-01T06:31:05Z</time>
      </trkpt>
      <trkpt lat="45.87365" lon="1.3105">
        <ele>340</ele>
        <time>2022-08-01T06:31:07Z</time>
      </trkpt>
      <trkpt lat="45.87358" lon="1.31064">
        <ele>339.3</ele>
        <time>2022-08-01T06:31:09Z</time>
      </trkpt>
      <trkpt lat="45.87349" lon="1.31078">
        <ele>338.6</ele>
        <time>2022-08-01T06:31:11Z</time>
      </trkpt>
      <trkpt lat="45.8734" lon="1.31091">
        <ele>338</ele>
        <time>2022-08-01T06:31:13Z</time>
      </trkpt>
      <trkpt lat="45.8733" lon="1.31103">
        <ele>337.4</ele>
        <time>2022-08-01T06:31:15Z</time>
      </trkpt>
      <trkpt lat="45.87319" lon="1.31115">
        <ele>336.9</ele>
        <time>2022-08-01T06:31:17Z</time>
      </trkpt>
      <trkpt lat="45.87308" lon="1.31125">
        <ele>336.4</ele>
        <time>2022-08-01T06:31:19Z</time>
      </trkpt>
      <trkpt lat="45.87295" lon="1.31134">
        <ele>336</ele>
        <time>2022-08-01T06:31:21Z</time>
      </trkpt>
      <trkpt lat="45.87281" lon="1.31142">
        <ele>335.6</ele>
        <time>2022-08-01T06:31:23Z</time>
      </trkpt>
      <trkpt lat="45.87267" lon="1.31151">
        <ele>335.3</ele>
        <time>2022-08-01T06:31:25Z</time>
      </trkpt>
      <trkpt lat="45.87253" lon="1.31161">
        <ele>335</ele>
        <time>2022-08-01T06:31:27Z</time>
      </trkpt>
      <trkpt lat="45.87238" lon="1.3117">
        <ele>334.5</ele>
        <time>2022-08-01T06:31:29Z</time>
      </trkpt>
      <trkpt lat="45.87224" lon="1.3118">
        <ele>333.7</ele>
        <time>2022-08-01T06:31:31Z</time>
      </trkpt>
      <trkpt lat="45.8721" lon="1.31189">
        <ele>333</ele>
        <time>2022-08-01T06:31:33Z</time>
      </trkpt>
      <trkpt lat="45.87197" lon="1.31198">
        <ele>332.5</ele>
        <time>2022-08-01T06:31:35Z</time>
      </trkpt>
      <trkpt lat="45.87185" lon="1.31207">
        <ele>332</ele>
        <time>2022-08-01T06:31:37Z</time>
      </trkpt>
      <trkpt lat="45.87173" lon="1.31216">
        <ele>331.5</ele>
        <time>2022-08-01T06:31:39Z</time>
      </trkpt>
      <trkpt lat="45.87161" lon="1.31226">
        <ele>331.5</ele>
        <time>2022-08-01T06:31:41Z</time>
      </trkpt>
      <trkpt lat="45.87152" lon="1.31235">
        <ele>331.7</ele>
        <time>2022-08-01T06:31:43Z</time>
      </trkpt>
      <trkpt lat="45.87142" lon="1.31242">
        <ele>331.9</ele>
        <time>2022-08-01T06:31:45Z</time>
      </trkpt>
      <trkpt lat="45.87134" lon="1.31249">
        <ele>332.2</ele>
        <time>2022-08-01T06:31:47Z</time>
      </trkpt>
      <trkpt lat="45.87127" lon="1.31255">
        <ele>332.2</ele>
        <time>2022-08-01T06:31:49Z</time>
      </trkpt>
      <trkpt lat="45.87121" lon="1.3126">
        <ele>332.2</ele>
        <time>2022-08-01T06:31:51Z</time>
      </trkpt>
      <trkpt lat="45.87117" lon="1.31259">
        <ele>332.4</ele>
        <time>2022-08-01T06:31:53Z</time>
      </trkpt>
      <trkpt lat="45.87117" lon="1.3126">
        <ele>332.4</ele>
        <time>2022-08-01T06:31:55Z</time>
      </trkpt>
      <trkpt lat="45.87117" lon="1.3126">
        <ele>332.4</ele>
        <time>2022-08-01T06:31:57Z</time>
      </trkpt>
      <trkpt lat="45.87117" lon="1.3126">
        <ele>332.4</ele>
        <time>2022-08-01T06:31:59Z</time>
      </trkpt>
      <trkpt lat="45.87117" lon="1.3126">
        <ele>332.4</ele>
        <time>2022-08-01T06:32:01Z</time>
      </trkpt>
      <trkpt lat="45.87117" lon="1.3126">
        <ele>332.4</ele>
        <time>2022-08-01T06:32:03Z</time>
      </trkpt>
      <trkpt lat="45.87084" lon="1.31289">
        <ele>332.1</ele>
        <time>2022-08-01T06:41:41Z</time>
      </trkpt>
      <trkpt lat="45.87078" lon="1.31294">
        <ele>331.8</ele>
        <time>2022-08-01T06:41:43Z</time>
      </trkpt>
      <trkpt lat="45.87071" lon="1.31301">
        <ele>331.4</ele>
        <time>2022-08-01T06:41:45Z</time>
      </trkpt>
      <trkpt lat="45.87064" lon="1.31308">
        <ele>331.1</ele>
        <time>2022-08-01T06:41:47Z</time>
      </trkpt>
      <trkpt lat="45.87056" lon="1.31315">
        <ele>330.7</ele>
        <time>2022-08-01T06:41:49Z</time>
      </trkpt>
      <trkpt lat="45.87048" lon="1.31322">
        <ele>330.4</ele>
        <time>2022-08-01T06:41:51Z</time>
      </trkpt>
      <trkpt lat="45.87039" lon="1.3133">
        <ele>330.1</ele>
        <time>2022-08-01T06:41:53Z</time>
      </trkpt>
      <trkpt lat="45.8703" lon="1.31339">
        <ele>329.7</ele>
        <time>2022-08-01T06:41:55Z</time>
      </trkpt>
      <trkpt lat="45.87019" lon="1.31348">
        <ele>329.1</ele>
        <time>2022-08-01T06:41:57Z</time>
      </trkpt>
      <trkpt lat="45.87009" lon="1.31357">
        <ele>328.4</ele>
        <time>2022-08-01T06:41:59Z</time>
      </trkpt>
      <trkpt lat="45.86998" lon="1.31367">
        <ele>327.5</ele>
        <time>2022-08-01T06:42:01Z</time>
      </trkpt>
      <trkpt lat="45.86986" lon="1.31377">
        <ele>326.7</ele>
        <time>2022-08-01T06:42:03Z</time>
      </trkpt>
      <trkpt lat="45.86972" lon="1.31385">
        <ele>326</ele>
        <time>2022-08-01T06:42:05Z</time>
      </trkpt>
      <trkpt lat="45.86958" lon="1.31392">
        <ele>325.5</ele>
        <time>2022-08-01T06:42:07Z</time>
      </trkpt>
      <trkpt lat="45.86943" lon="1.314">
        <ele>324.9</ele>
        <time>2022-08-01T06:42:09Z</time>
      </trkpt>
      <trkpt lat="45.86931" lon="1.31406">
        <ele>324.5</ele>
        <time>2022-08-01T06:42:11Z</time>
      </trkpt>
      <trkpt lat="45.86918" lon="1.31413">
        <ele>324.2</ele>
        <time>2022-08-01T06:42:13Z</time>
      </trkpt>
      <trkpt lat="45.86907" lon="1.31421">
        <ele>323.9</ele>
        <time>2022-08-01T06:42:15Z</time>
      </trkpt>
      <trkpt lat="45.86897" lon="1.31431">
        <ele>323.3</ele>
        <time>2022-08-01T06:42:17Z</time>
      </trkpt>
      <trkpt lat="45.86889" lon="1.31443">
        <ele>322.6</ele>
        <time>2022-08-01T06:42:19Z</time>
      </trkpt>
      <trkpt lat="45.86882" lon="1.31455">
        <ele>321.8</ele>
        <time>2022-08-01T06:42:21Z</time>
      </trkpt>
      <trkpt lat="45.86877" lon="1.31467">
        <ele>320.9</ele>
        <time>2022-08-01T06:42:23Z</time>
      </trkpt>
      <trkpt lat="45.86872" lon="1.31481">
        <ele>319.8</ele>
        <time>2022-08-01T06:42:25Z</time>
      </trkpt>
      <trkpt lat="45.86868" lon="1.31496">
        <ele>318.7</ele>
        <time>2022-08-01T06:42:27Z</time>
      </trkpt>
      <trkpt lat="45.86863" lon="1.31511">
        <ele>317.7</ele>
        <time>2022-08-01T06:42:29Z</time>
      </trkpt>
      <trkpt lat="45.86857" lon="1.31525">
        <ele>316.8</ele>
        <time>2022-08-01T06:42:31Z</time>
      </trkpt>
      <trkpt lat="45.86851" lon="1.31539">
        <ele>315.7</ele>
        <time>2022-08-01T06:42:33Z</time>
      </trkpt>
      <trkpt lat="45.86846" lon="1.31555">
        <ele>314.5</ele>
        <time>2022-08-01T06:42:35Z</time>
      </trkpt>
      <trkpt lat="45.86841" lon="1.31572">
        <ele>313.1</ele>
        <time>2022-08-01T06:42:37Z</time>
      </trkpt>
      <trkpt lat="45.86835" lon="1.31586">
        <ele>311.9</ele>
        <time>2022-08-01T06:42:39Z</time>
      </trkpt>
      <trkpt lat="45.86829" lon="1.31601">
        <ele>310.8</ele>
        <time>2022-08-01T06:42:41Z</time>
      </trkpt>
      <trkpt lat="45.86823" lon="1.31616">
        <ele>309.7</ele>
        <time>2022-08-01T06:42:43Z</time>
      </trkpt>
      <trkpt lat="45.86818" lon="1.31629">
        <ele>308.7</ele>
        <time>2022-08-01T06:42:45Z</time>
      </trkpt>
      <trkpt lat="45.86813" lon="1.31643">
        <ele>307.7</ele>
        <time>2022-08-01T06:42:47Z</time>
      </trkpt>
      <trkpt lat="45.86808" lon="1.31657">
        <ele>306.7</ele>
        <time>2022-08-01T06:42:49Z</time>
      </trkpt>
      <trkpt lat="45.86803" lon="1.31672">
        <ele>305.8</ele>
        <time>2022-08-01T06:42:51Z</time>
      </trkpt>
      <trkpt lat="45.86797" lon="1.31685">
        <ele>305.4</ele>
        <time>2022-08-01T06:42:53Z</time>
      </trkpt>
      <trkpt lat="45.86793" lon="1.31699">
        <ele>305</ele>
        <time>2022-08-01T06:42:55Z</time>
      </trkpt>
      <trkpt lat="45.86789" lon="1.31709">
        <ele>304.6</ele>
        <time>2022-08-01T06:42:57Z</time>
      </trkpt>
      <trkpt lat="45.86786" lon="1.31718">
        <ele>304.2</ele>
        <time>2022-08-01T06:42:59Z</time>
      </trkpt>
      <trkpt lat="45.86781" lon="1.31722">
        <ele>303.9</ele>
        <time>2022-08-01T06:43:01Z</time>
      </trkpt>
      <trkpt lat="45.8678" lon="1.31725">
        <ele>303.7</ele>
        <time>2022-08-01T06:43:03Z</time>
      </trkpt>
      <trkpt lat="45.86777" lon="1.31731">
        <ele>303.4</ele>
        <time>2022-08-01T06:43:05Z</time>
      </trkpt>
      <trkpt lat="45.86776" lon="1.31737">
        <ele>303.2</ele>
        <time>2022-08-01T06:43:07Z</time>
      </trkpt>
      <trkpt lat="45.86776" lon="1.31743">
        <ele>303</ele>
        <time>2022-08-01T06:43:09Z</time>
      </trkpt>
      <trkpt lat="45.86775" lon="1.31751">
        <ele>302.8</ele>
        <time>2022-08-01T06:43:11Z</time>
      </trkpt>
      <trkpt lat="45.86772" lon="1.31762">
        <ele>302.3</ele>
        <time>2022-08-01T06:43:13Z</time>
      </trkpt>
      <trkpt lat="45.86767" lon="1.31775">
        <ele>301.7</ele>
        <time>2022-08-01T06:43:15Z</time>
      </trkpt>
      <trkpt lat="45.86761" lon="1.3179">
        <ele>300.9</ele>
        <time>2022-08-01T06:43:17Z</time>
      </trkpt>
      <trkpt lat="45.86756" lon="1.31803">
        <ele>300.2</ele>
        <time>2022-08-01T06:43:19Z</time>
      </trkpt>
      <trkpt lat="45.8675" lon="1.31817">
        <ele>299.4</ele>
        <time>2022-08-01T06:43:21Z</time>
      </trkpt>
      <trkpt lat="45.86744" lon="1.31831">
        <ele>299.1</ele>
        <time>2022-08-01T06:43:23Z</time>
      </trkpt>
      <trkpt lat="45.86737" lon="1.31844">
        <ele>298</ele>
        <time>2022-08-01T06:43:25Z</time>
      </trkpt>
      <trkpt lat="45.8673" lon="1.31859">
        <ele>296.6</ele>
        <time>2022-08-01T06:43:27Z</time>
      </trkpt>
      <trkpt lat="45.86723" lon="1.31873">
        <ele>295.3</ele>
        <time>2022-08-01T06:43:29Z</time>
      </trkpt>
      <trkpt lat="45.86715" lon="1.3189">
        <ele>293.9</ele>
        <time>2022-08-01T06:43:31Z</time>
      </trkpt>
      <trkpt lat="45.86707" lon="1.31906">
        <ele>292.4</ele>
        <time>2022-08-01T06:43:33Z</time>
      </trkpt>
      <trkpt lat="45.86698" lon="1.31923">
        <ele>291</ele>
        <time>2022-08-01T06:43:35Z</time>
      </trkpt>
      <trkpt lat="45.86689" lon="1.31939">
        <ele>289.5</ele>
        <time>2022-08-01T06:43:37Z</time>
      </trkpt>
      <trkpt lat="45.8668" lon="1.31957">
        <ele>288.1</ele>
        <time>2022-08-01T06:43:39Z</time>
      </trkpt>
      <trkpt lat="45.86671" lon="1.31976">
        <ele>286.8</ele>
        <time>2022-08-01T06:43:41Z</time>
      </trkpt>
      <trkpt lat="45.86661" lon="1.31995">
        <ele>286.1</ele>
        <time>2022-08-01T06:43:43Z</time>
      </trkpt>
      <trkpt lat="45.86656" lon="1.32014">
        <ele>284.9</ele>
        <time>2022-08-01T06:43:45Z</time>
      </trkpt>
      <trkpt lat="45.86653" lon="1.32038">
        <ele>282.8</ele>
        <time>2022-08-01T06:43:47Z</time>
      </trkpt>
      <trkpt lat="45.86648" lon="1.32064">
        <ele>280.6</ele>
        <time>2022-08-01T06:43:49Z</time>
      </trkpt>
      <trkpt lat="45.86644" lon="1.32087">
        <ele>278.4</ele>
        <time>2022-08-01T06:43:51Z</time>
      </trkpt>
      <trkpt lat="45.8664" lon="1.3211">
        <ele>275</ele>
        <time>2022-08-01T06:43:53Z</time>
      </trkpt>
      <trkpt lat="45.86637" lon="1.32128">
        <ele>272.3</ele>
        <time>2022-08-01T06:43:55Z</time>
      </trkpt>
      <trkpt lat="45.86634" lon="1.32145">
        <ele>269.6</ele>
        <time>2022-08-01T06:43:57Z</time>
      </trkpt>
      <trkpt lat="45.86628" lon="1.32162">
        <ele>267.1</ele>
        <time>2022-08-01T06:43:59Z</time>
      </trkpt>
      <trkpt lat="45.86619" lon="1.32175">
        <ele>266.4</ele>
        <time>2022-08-01T06:44:01Z</time>
      </trkpt>
      <trkpt lat="45.86606" lon="1.32182">
        <ele>266.7</ele>
        <time>2022-08-01T06:44:03Z</time>
      </trkpt>
      <trkpt lat="45.86593" lon="1.32189">
        <ele>267</ele>
        <time>2022-08-01T06:44:05Z</time>
      </trkpt>
      <trkpt lat="45.86579" lon="1.32195">
        <ele>266.9</ele>
        <time>2022-08-01T06:44:07Z</time>
      </trkpt>
      <trkpt lat="45.86566" lon="1.32201">
        <ele>266.3</ele>
        <time>2022-08-01T06:44:09Z</time>
      </trkpt>
      <trkpt lat="45.86554" lon="1.32206">
        <ele>265.6</ele>
        <time>2022-08-01T06:44:11Z</time>
      </trkpt>
      <trkpt lat="45.86543" lon="1.32211">
        <ele>264.9</ele>
        <time>2022-08-01T06:44:13Z</time>
      </trkpt>
      <trkpt lat="45.8653" lon="1.32218">
        <ele>264</ele>
        <time>2022-08-01T06:44:15Z</time>
      </trkpt>
      <trkpt lat="45.86517" lon="1.32224">
        <ele>263</ele>
        <time>2022-08-01T06:44:17Z</time>
      </trkpt>
      <trkpt lat="45.86506" lon="1.32229">
        <ele>262.1</ele>
        <time>2022-08-01T06:44:19Z</time>
      </trkpt>
      <trkpt lat="45.86497" lon="1.32236">
        <ele>261.2</ele>
        <time>2022-08-01T06:44:21Z</time>
      </trkpt>
      <trkpt lat="45.86492" lon="1.32244">
        <ele>260.4</ele>
        <time>2022-08-01T06:44:23Z</time>
      </trkpt>
      <trkpt lat="45.86489" lon="1.32253">
        <ele>259.6</ele>
        <time>2022-08-01T06:44:25Z</time>
      </trkpt>
      <trkpt lat="45.86488" lon="1.32262">
        <ele>259.1</ele>
        <time>2022-08-01T06:44:27Z</time>
      </trkpt>
      <trkpt lat="45.86488" lon="1.32269">
        <ele>258.6</ele>
        <time>2022-08-01T06:44:29Z</time>
      </trkpt>
      <trkpt lat="45.86487" lon="1.32277">
        <ele>258.2</ele>
        <time>2022-08-01T06:44:31Z</time>
      </trkpt>
      <trkpt lat="45.86486" lon="1.32284">
        <ele>257.8</ele>
        <time>2022-08-01T06:44:33Z</time>
      </trkpt>
      <trkpt lat="45.86485" lon="1.32292">
        <ele>257.3</ele>
        <time>2022-08-01T06:44:35Z</time>
      </trkpt>
      <trkpt lat="45.86484" lon="1.32301">
        <ele>256.7</ele>
        <time>2022-08-01T06:44:37Z</time>
      </trkpt>
      <trkpt lat="45.86482" lon="1.32313">
        <ele>256</ele>
        <time>2022-08-01T06:44:39Z</time>
      </trkpt>
      <trkpt lat="45.86481" lon="1.32325">
        <ele>255.2</ele>
        <time>2022-08-01T06:44:41Z</time>
      </trkpt>
      <trkpt lat="45.8648" lon="1.32335">
        <ele>254.6</ele>
        <time>2022-08-01T06:44:43Z</time>
      </trkpt>
      <trkpt lat="45.86479" lon="1.32343">
        <ele>254.2</ele>
        <time>2022-08-01T06:44:45Z</time>
      </trkpt>
      <trkpt lat="45.86478" lon="1.32351">
        <ele>253.8</ele>
        <time>2022-08-01T06:44:47Z</time>
      </trkpt>
      <trkpt lat="45.86476" lon="1.32358">
        <ele>253.5</ele>
        <time>2022-08-01T06:44:49Z</time>
      </trkpt>
      <trkpt lat="45.86475" lon="1.32363">
        <ele>253.2</ele>
        <time>2022-08-01T06:44:51Z</time>
      </trkpt>
      <trkpt lat="45.86475" lon="1.32365">
        <ele>253.1</ele>
        <time>2022-08-01T06:44:53Z</time>
      </trkpt>
      <trkpt lat="45.86473" lon="1.32367">
        <ele>253.1</ele>
        <time>2022-08-01T06:44:55Z</time>
      </trkpt>
      <trkpt lat="45.86471" lon="1.32368">
        <ele>253.1</ele>
        <time>2022-08-01T06:44:57Z</time>
      </trkpt>
      <trkpt lat="45.86467" lon="1.32368">
        <ele>253.3</ele>
        <time>2022-08-01T06:44:59Z</time>
      </trkpt>
      <trkpt lat="45.86463" lon="1.32367">
        <ele>253.5</ele>
        <time>2022-08-01T06:45:01Z</time>
      </trkpt>
      <trkpt lat="45.86419" lon="1.32366">
        <ele>255.3</ele>
        <time>2022-08-01T06:49:59Z</time>
      </trkpt>
      <trkpt lat="45.86426" lon="1.32366">
        <ele>255</ele>
        <time>2022-08-01T06:50:01Z</time>
      </trkpt>
      <trkpt lat="45.86432" lon="1.32368">
        <ele>254.7</ele>
        <time>2022-08-01T06:50:03Z</time>
      </trkpt>
      <trkpt lat="45.86441" lon="1.3237">
        <ele>254.2</ele>
        <time>2022-08-01T06:50:05Z</time>
      </trkpt>
      <trkpt lat="45.86449" lon="1.32373">
        <ele>253.8</ele>
        <time>2022-08-01T06:50:07Z</time>
      </trkpt>
      <trkpt lat="45.86456" lon="1.32373">
        <ele>253.4</ele>
        <time>2022-08-01T06:50:09Z</time>
      </trkpt>
      <trkpt lat="45.86462" lon="1.32374">
        <ele>253.1</ele>
        <time>2022-08-01T06:50:11Z</time>
      </trkpt>
      <trkpt lat="45.8647" lon="1.32377">
        <ele>252.6</ele>
        <time>2022-08-01T06:50:13Z</time>
      </trkpt>
      <trkpt lat="45.86477" lon="1.32379">
        <ele>252.2</ele>
        <time>2022-08-01T06:50:15Z</time>
      </trkpt>
      <trkpt lat="45.86484" lon="1.32381">
        <ele>251.8</ele>
        <time>2022-08-01T06:50:17Z</time>
      </trkpt>
      <trkpt lat="45.86491" lon="1.32384">
        <ele>251.4</ele>
        <time>2022-08-01T06:50:19Z</time>
      </trkpt>
      <trkpt lat="45.86497" lon="1.32385">
        <ele>251</ele>
        <time>2022-08-01T06:50:21Z</time>
      </trkpt>
      <trkpt lat="45.86502" lon="1.32387">
        <ele>250.8</ele>
        <time>2022-08-01T06:50:23Z</time>
      </trkpt>
      <trkpt lat="45.86507" lon="1.32389">
        <ele>250.8</ele>
        <time>2022-08-01T06:50:25Z</time>
      </trkpt>
      <trkpt lat="45.86512" lon="1.3239">
        <ele>250.8</ele>
        <time>2022-08-01T06:50:27Z</time>
      </trkpt>
      <trkpt lat="45.86514" lon="1.32395">
        <ele>250.5</ele>
        <time>2022-08-01T06:50:29Z</time>
      </trkpt>
      <trkpt lat="45.86516" lon="1.32403">
        <ele>250</ele>
        <time>2022-08-01T06:50:31Z</time>
      </trkpt>
      <trkpt lat="45.86512" lon="1.32413">
        <ele>249.4</ele>
        <time>2022-08-01T06:50:33Z</time>
      </trkpt>
      <trkpt lat="45.86506" lon="1.32424">
        <ele>248.5</ele>
        <time>2022-08-01T06:50:35Z</time>
      </trkpt>
      <trkpt lat="45.86501" lon="1.32434">
        <ele>247.3</ele>
        <time>2022-08-01T06:50:37Z</time>
      </trkpt>
      <trkpt lat="45.86495" lon="1.32446">
        <ele>246.4</ele>
        <time>2022-08-01T06:50:39Z</time>
      </trkpt>
      <trkpt lat="45.86486" lon="1.32455">
        <ele>245.7</ele>
        <time>2022-08-01T06:50:41Z</time>
      </trkpt>
      <trkpt lat="45.86476" lon="1.32461">
        <ele>245.5</ele>
        <time>2022-08-01T06:50:43Z</time>
      </trkpt>
      <trkpt lat="45.86465" lon="1.32466">
        <ele>245.2</ele>
        <time>2022-08-01T06:50:45Z</time>
      </trkpt>
      <trkpt lat="45.86453" lon="1.32471">
        <ele>244.9</ele>
        <time>2022-08-01T06:50:47Z</time>
      </trkpt>
      <trkpt lat="45.86441" lon="1.32477">
        <ele>244.5</ele>
        <time>2022-08-01T06:50:49Z</time>
      </trkpt>
      <trkpt lat="45.86427" lon="1.32483">
        <ele>244.1</ele>
        <time>2022-08-01T06:50:51Z</time>
      </trkpt>
      <trkpt lat="45.86412" lon="1.32488">
        <ele>243.6</ele>
        <time>2022-08-01T06:50:53Z</time>
      </trkpt>
      <trkpt lat="45.86396" lon="1.32494">
        <ele>243</ele>
        <time>2022-08-01T06:50:55Z</time>
      </trkpt>
      <trkpt lat="45.86381" lon="1.32501">
        <ele>242.3</ele>
        <time>2022-08-01T06:50:57Z</time>
      </trkpt>
      <trkpt lat="45.86365" lon="1.32509">
        <ele>241.8</ele>
        <time>2022-08-01T06:50:59Z</time>
      </trkpt>
      <trkpt lat="45.86349" lon="1.32516">
        <ele>241.4</ele>
        <time>2022-08-01T06:51:01Z</time>
      </trkpt>
      <trkpt lat="45.86335" lon="1.32522">
        <ele>241.1</ele>
        <time>2022-08-01T06:51:03Z</time>
      </trkpt>
      <trkpt lat="45.86321" lon="1.32528">
        <ele>240.5</ele>
        <time>2022-08-01T06:51:05Z</time>
      </trkpt>
      <trkpt lat="45.86306" lon="1.32531">
        <ele>240.1</ele>
        <time>2022-08-01T06:51:07Z</time>
      </trkpt>
      <trkpt lat="45.86293" lon="1.32531">
        <ele>240</ele>
        <time>2022-08-01T06:51:09Z</time>
      </trkpt>
      <trkpt lat="45.86279" lon="1.32529">
        <ele>240</ele>
        <time>2022-08-01T06:51:11Z</time>
      </trkpt>
      <trkpt lat="45.86265" lon="1.32526">
        <ele>240</ele>
        <time>2022-08-01T06:51:13Z</time>
      </trkpt>
      <trkpt lat="45.86252" lon="1.32525">
        <ele>239.8</ele>
        <time>2022-08-01T06:51:15Z</time>
      </trkpt>
      <trkpt lat="45.86238" lon="1.32525">
        <ele>239.4</ele>
        <time>2022-08-01T06:51:17Z</time>
      </trkpt>
      <trkpt lat="45.86225" lon="1.3253">
        <ele>238.6</ele>
        <time>2022-08-01T06:51:19Z</time>
      </trkpt>
      <trkpt lat="45.86212" lon="1.32539">
        <ele>237.4</ele>
        <time>2022-08-01T06:51:21Z</time>
      </trkpt>
      <trkpt lat="45.86199" lon="1.32549">
        <ele>235.9</ele>
        <time>2022-08-01T06:51:23Z</time>
      </trkpt>
      <trkpt lat="45.86185" lon="1.32559">
        <ele>234.1</ele>
        <time>2022-08-01T06:51:25Z</time>
      </trkpt>
      <trkpt lat="45.86173" lon="1.32565">
        <ele>232.7</ele>
        <time>2022-08-01T06:51:27Z</time>
      </trkpt>
      <trkpt lat="45.86164" lon="1.32565">
        <ele>232.1</ele>
        <time>2022-08-01T06:51:29Z</time>
      </trkpt>
      <trkpt lat="45.86157" lon="1.32562">
        <ele>232.1</ele>
        <time>2022-08-01T06:51:31Z</time>
      </trkpt>
      <trkpt lat="45.86151" lon="1.32559">
        <ele>232.2</ele>
        <time>2022-08-01T06:51:33Z</time>
      </trkpt>
      <trkpt lat="45.86148" lon="1.32555">
        <ele>232.5</ele>
        <time>2022-08-01T06:51:35Z</time>
      </trkpt>
      <trkpt lat="45.86147" lon="1.32555">
        <ele>232.5</ele>
        <time>2022-08-01T06:51:37Z</time>
      </trkpt>
      <trkpt lat="45.86147" lon="1.32555">
        <ele>232.5</ele>
        <time>2022-08-01T06:51:39Z</time>
      </trkpt>
      <trkpt lat="45.86147" lon="1.32554">
        <ele>232.5</ele>
        <time>2022-08-01T06:51:41Z</time>
      </trkpt>
      <trkpt lat="45.86147" lon="1.32554">
        <ele>232.5</ele>
        <time>2022-08-01T06:51:43Z</time>
      </trkpt>
      <trkpt lat="45.86147" lon="1.32554">
        <ele>232.6</ele>
        <time>2022-08-01T06:51:45Z</time>
      </trkpt>
      <trkpt lat="45.86168" lon="1.32657">
        <ele>226.7</ele>
        <time>2022-08-01T06:52:31Z</time>
      </trkpt>
      <trkpt lat="45.86167" lon="1.32665">
        <ele>226.2</ele>
        <time>2022-08-01T06:52:33Z</time>
      </trkpt>
      <trkpt lat="45.86166" lon="1.32674">
        <ele>226.1</ele>
        <time>2022-08-01T06:52:35Z</time>
      </trkpt>
      <trkpt lat="45.86163" lon="1.32681">
        <ele>226.2</ele>
        <time>2022-08-01T06:52:37Z</time>
      </trkpt>
      <trkpt lat="45.86159" lon="1.32687">
        <ele>226.3</ele>
        <time>2022-08-01T06:52:39Z</time>
      </trkpt>
      <trkpt lat="45.86154" lon="1.32691">
        <ele>226.3</ele>
        <time>2022-08-01T06:52:41Z</time>
      </trkpt>
      <trkpt lat="45.8615" lon="1.32692">
        <ele>226.4</ele>
        <time>2022-08-01T06:52:43Z</time>
      </trkpt>
      <trkpt lat="45.86146" lon="1.32693">
        <ele>226.4</ele>
        <time>2022-08-01T06:52:45Z</time>
      </trkpt>
      <trkpt lat="45.86143" lon="1.32692">
        <ele>226.4</ele>
        <time>2022-08-01T06:52:47Z</time>
      </trkpt>
      <trkpt lat="45.86143" lon="1.32691">
        <ele>226.4</ele>
        <time>2022-08-01T06:52:49Z</time>
      </trkpt>
      <trkpt lat="45.86142" lon="1.32691">
        <ele>226.4</ele>
        <time>2022-08-01T06:52:51Z</time>
      </trkpt>
      <trkpt lat="45.8614" lon="1.32693">
        <ele>226.4</ele>
        <time>2022-08-01T06:52:53Z</time>
      </trkpt>
      <trkpt lat="45.86139" lon="1.32694">
        <ele>226.4</ele>
        <time>2022-08-01T06:52:55Z</time>
      </trkpt>
      <trkpt lat="45.86139" lon="1.32693">
        <ele>226.4</ele>
        <time>2022-08-01T06:52:57Z</time>
      </trkpt>
      <trkpt lat="45.86139" lon="1.32693">
        <ele>226.4</ele>
        <time>2022-08-01T06:52:59Z</time>
      </trkpt>
      <trkpt lat="45.86138" lon="1.32693">
        <ele>226.4</ele>
        <time>2022-08-01T06:53:01Z</time>
      </trkpt>
      <trkpt lat="45.86138" lon="1.32694">
        <ele>226.4</ele>
        <time>2022-08-01T06:53:03Z</time>
      </trkpt>
      <trkpt lat="45.86152" lon="1.32686">
        <ele>226.3</ele>
        <time>2022-08-01T06:53:23Z</time>
      </trkpt>
      <trkpt lat="45.86156" lon="1.32684">
        <ele>226.2</ele>
        <time>2022-08-01T06:53:25Z</time>
      </trkpt>
      <trkpt lat="45.8616" lon="1.32679">
        <ele>226.2</ele>
        <time>2022-08-01T06:53:27Z</time>
      </trkpt>
      <trkpt lat="45.86164" lon="1.32672">
        <ele>226.1</ele>
        <time>2022-08-01T06:53:29Z</time>
      </trkpt>
      <trkpt lat="45.86165" lon="1.32664">
        <ele>226.1</ele>
        <time>2022-08-01T06:53:31Z</time>
      </trkpt>
      <trkpt lat="45.86167" lon="1.32655">
        <ele>226.6</ele>
        <time>2022-08-01T06:53:33Z</time>
      </trkpt>
      <trkpt lat="45.86168" lon="1.32648">
        <ele>227.1</ele>
        <time>2022-08-01T06:53:35Z</time>
      </trkpt>
      <trkpt lat="45.86169" lon="1.32642">
        <ele>227.5</ele>
        <time>2022-08-01T06:53:37Z</time>
      </trkpt>
      <trkpt lat="45.86171" lon="1.32636">
        <ele>228</ele>
        <time>2022-08-01T06:53:39Z</time>
      </trkpt>
      <trkpt lat="45.86173" lon="1.32632">
        <ele>228.5</ele>
        <time>2022-08-01T06:53:41Z</time>
      </trkpt>
      <trkpt lat="45.86175" lon="1.32629">
        <ele>228.9</ele>
        <time>2022-08-01T06:53:43Z</time>
      </trkpt>
      <trkpt lat="45.86177" lon="1.32627">
        <ele>229.2</ele>
        <time>2022-08-01T06:53:45Z</time>
      </trkpt>
      <trkpt lat="45.8618" lon="1.32625">
        <ele>229.6</ele>
        <time>2022-08-01T06:53:47Z</time>
      </trkpt>
      <trkpt lat="45.86182" lon="1.32622">
        <ele>230</ele>
        <time>2022-08-01T06:53:49Z</time>
      </trkpt>
      <trkpt lat="45.86185" lon="1.32621">
        <ele>230.4</ele>
        <time>2022-08-01T06:53:51Z</time>
      </trkpt>
      <trkpt lat="45.86186" lon="1.32617">
        <ele>230.6</ele>
        <time>2022-08-01T06:53:53Z</time>
      </trkpt>
      <trkpt lat="45.86186" lon="1.32612">
        <ele>230.7</ele>
        <time>2022-08-01T06:53:55Z</time>
      </trkpt>
      <trkpt lat="45.86185" lon="1.3261">
        <ele>230.7</ele>
        <time>2022-08-01T06:53:57Z</time>
      </trkpt>
      <trkpt lat="45.86183" lon="1.32605">
        <ele>230.6</ele>
        <time>2022-08-01T06:53:59Z</time>
      </trkpt>
      <trkpt lat="45.86183" lon="1.32603">
        <ele>230.7</ele>
        <time>2022-08-01T06:54:01Z</time>
      </trkpt>
      <trkpt lat="45.86187" lon="1.326">
        <ele>231.2</ele>
        <time>2022-08-01T06:54:03Z</time>
      </trkpt>
      <trkpt lat="45.86192" lon="1.32601">
        <ele>231.7</ele>
        <time>2022-08-01T06:54:05Z</time>
      </trkpt>
      <trkpt lat="45.86196" lon="1.32602">
        <ele>232.1</ele>
        <time>2022-08-01T06:54:07Z</time>
      </trkpt>
      <trkpt lat="45.862" lon="1.32601">
        <ele>232.5</ele>
        <time>2022-08-01T06:54:09Z</time>
      </trkpt>
      <trkpt lat="45.86204" lon="1.326">
        <ele>232.8</ele>
        <time>2022-08-01T06:54:11Z</time>
      </trkpt>
      <trkpt lat="45.86207" lon="1.326">
        <ele>233.2</ele>
        <time>2022-08-01T06:54:13Z</time>
      </trkpt>
      <trkpt lat="45.86212" lon="1.32599">
        <ele>233.6</ele>
        <time>2022-08-01T06:54:15Z</time>
      </trkpt>
      <trkpt lat="45.86217" lon="1.32599">
        <ele>234.1</ele>
        <time>2022-08-01T06:54:17Z</time>
      </trkpt>
      <trkpt lat="45.86221" lon="1.32598">
        <ele>234.6</ele>
        <time>2022-08-01T06:54:19Z</time>
      </trkpt>
      <trkpt lat="45.86226" lon="1.32595">
        <ele>235</ele>
        <time>2022-08-01T06:54:21Z</time>
      </trkpt>
      <trkpt lat="45.8623" lon="1.32593">
        <ele>235.4</ele>
        <time>2022-08-01T06:54:23Z</time>
      </trkpt>
      <trkpt lat="45.86235" lon="1.32592">
        <ele>235.8</ele>
        <time>2022-08-01T06:54:25Z</time>
      </trkpt>
      <trkpt lat="45.8624" lon="1.32596">
        <ele>236.3</ele>
        <time>2022-08-01T06:54:27Z</time>
      </trkpt>
      <trkpt lat="45.86243" lon="1.32593">
        <ele>236.6</ele>
        <time>2022-08-01T06:54:29Z</time>
      </trkpt>
      <trkpt lat="45.86242" lon="1.32588">
        <ele>236.4</ele>
        <time>2022-08-01T06:54:31Z</time>
      </trkpt>
      <trkpt lat="45.86242" lon="1.32588">
        <ele>236.4</ele>
        <time>2022-08-01T06:54:33Z</time>
      </trkpt>
      <trkpt lat="45.86242" lon="1.32588">
        <ele>236.4</ele>
        <time>2022-08-01T06:54:35Z</time>
      </trkpt>
      <trkpt lat="45.86242" lon="1.32588">
        <ele>236.4</ele>
        <time>2022-08-01T06:54:37Z</time>
      </trkpt>
      <trkpt lat="45.86242" lon="1.32588">
        <ele>236.4</ele>
        <time>2022-08-01T06:54:39Z</time>
      </trkpt>
      <trkpt lat="45.86239" lon="1.32594">
        <ele>236.2</ele>
        <time>2022-08-01T07:14:23Z</time>
      </trkpt>
      <trkpt lat="45.8624" lon="1.32599">
        <ele>236.4</ele>
        <time>2022-08-01T07:14:25Z</time>
      </trkpt>
      <trkpt lat="45.86239" lon="1.32603">
        <ele>236.4</ele>
        <time>2022-08-01T07:14:27Z</time>
      </trkpt>
      <trkpt lat="45.8624" lon="1.32609">
        <ele>236.5</ele>
        <time>2022-08-01T07:14:29Z</time>
      </trkpt>
      <trkpt lat="45.8624" lon="1.32614">
        <ele>236.7</ele>
        <time>2022-08-01T07:14:31Z</time>
      </trkpt>
      <trkpt lat="45.86243" lon="1.32618">
        <ele>237</ele>
        <time>2022-08-01T07:14:33Z</time>
      </trkpt>
      <trkpt lat="45.86246" lon="1.32619">
        <ele>237.4</ele>
        <time>2022-08-01T07:14:35Z</time>
      </trkpt>
      <trkpt lat="45.86248" lon="1.3262">
        <ele>237.7</ele>
        <time>2022-08-01T07:14:37Z</time>
      </trkpt>
      <trkpt lat="45.86251" lon="1.32623">
        <ele>238</ele>
        <time>2022-08-01T07:14:39Z</time>
      </trkpt>
      <trkpt lat="45.86253" lon="1.32626">
        <ele>238.1</ele>
        <time>2022-08-01T07:14:41Z</time>
      </trkpt>
      <trkpt lat="45.86256" lon="1.32628">
        <ele>238.2</ele>
        <time>2022-08-01T07:14:43Z</time>
      </trkpt>
      <trkpt lat="45.86258" lon="1.32632">
        <ele>238.3</ele>
        <time>2022-08-01T07:14:45Z</time>
      </trkpt>
      <trkpt lat="45.86261" lon="1.32632">
        <ele>238.4</ele>
        <time>2022-08-01T07:14:47Z</time>
      </trkpt>
      <trkpt lat="45.86263" lon="1.32634">
        <ele>238.5</ele>
        <time>2022-08-01T07:14:49Z</time>
      </trkpt>
      <trkpt lat="45.86266" lon="1.32636">
        <ele>238.7</ele>
        <time>2022-08-01T07:14:51Z</time>
      </trkpt>
      <trkpt lat="45.86269" lon="1.3264">
        <ele>238.9</ele>
        <time>2022-08-01T07:14:53Z</time>
      </trkpt>
      <trkpt lat="45.86272" lon="1.32641">
        <ele>239</ele>
        <time>2022-08-01T07:14:55Z</time>
      </trkpt>
      <trkpt lat="45.86275" lon="1.32644">
        <ele>239.3</ele>
        <time>2022-08-01T07:14:57Z</time>
      </trkpt>
      <trkpt lat="45.86277" lon="1.32647">
        <ele>239.5</ele>
        <time>2022-08-01T07:14:59Z</time>
      </trkpt>
      <trkpt lat="45.8628" lon="1.3265">
        <ele>239.7</ele>
        <time>2022-08-01T07:15:01Z</time>
      </trkpt>
      <trkpt lat="45.86283" lon="1.32653">
        <ele>239.9</ele>
        <time>2022-08-01T07:15:03Z</time>
      </trkpt>
      <trkpt lat="45.86286" lon="1.32655">
        <ele>240.1</ele>
        <time>2022-08-01T07:15:05Z</time>
      </trkpt>
      <trkpt lat="45.86288" lon="1.32657">
        <ele>240.3</ele>
        <time>2022-08-01T07:15:07Z</time>
      </trkpt>
      <trkpt lat="45.86292" lon="1.32658">
        <ele>240.5</ele>
        <time>2022-08-01T07:15:09Z</time>
      </trkpt>
      <trkpt lat="45.86294" lon="1.32661">
        <ele>240.8</ele>
        <time>2022-08-01T07:15:11Z</time>
      </trkpt>
      <trkpt lat="45.86296" lon="1.32664">
        <ele>241</ele>
        <time>2022-08-01T07:15:13Z</time>
      </trkpt>
      <trkpt lat="45.86298" lon="1.32665">
        <ele>241.2</ele>
        <time>2022-08-01T07:15:15Z</time>
      </trkpt>
      <trkpt lat="45.86301" lon="1.32666">
        <ele>241.4</ele>
        <time>2022-08-01T07:15:17Z</time>
      </trkpt>
      <trkpt lat="45.86304" lon="1.32668">
        <ele>241.6</ele>
        <time>2022-08-01T07:15:19Z</time>
      </trkpt>
      <trkpt lat="45.86306" lon="1.3267">
        <ele>241.9</ele>
        <time>2022-08-01T07:15:21Z</time>
      </trkpt>
      <trkpt lat="45.86308" lon="1.32672">
        <ele>242</ele>
        <time>2022-08-01T07:15:23Z</time>
      </trkpt>
      <trkpt lat="45.86311" lon="1.32675">
        <ele>242.3</ele>
        <time>2022-08-01T07:15:25Z</time>
      </trkpt>
      <trkpt lat="45.86314" lon="1.32677">
        <ele>242.6</ele>
        <time>2022-08-01T07:15:27Z</time>
      </trkpt>
      <trkpt lat="45.86317" lon="1.3268">
        <ele>242.9</ele>
        <time>2022-08-01T07:15:29Z</time>
      </trkpt>
      <trkpt lat="45.86319" lon="1.32682">
        <ele>243.2</ele>
        <time>2022-08-01T07:15:31Z</time>
      </trkpt>
      <trkpt lat="45.86323" lon="1.32685">
        <ele>243.6</ele>
        <time>2022-08-01T07:15:33Z</time>
      </trkpt>
      <trkpt lat="45.86325" lon="1.32688">
        <ele>243.9</ele>
        <time>2022-08-01T07:15:35Z</time>
      </trkpt>
      <trkpt lat="45.86327" lon="1.32691">
        <ele>244.3</ele>
        <time>2022-08-01T07:15:37Z</time>
      </trkpt>
      <trkpt lat="45.8633" lon="1.32694">
        <ele>244.7</ele>
        <time>2022-08-01T07:15:39Z</time>
      </trkpt>
      <trkpt lat="45.86331" lon="1.32697">
        <ele>245</ele>
        <time>2022-08-01T07:15:41Z</time>
      </trkpt>
      <trkpt lat="45.86334" lon="1.32699">
        <ele>245.3</ele>
        <time>2022-08-01T07:15:43Z</time>
      </trkpt>
      <trkpt lat="45.86337" lon="1.32701">
        <ele>245.4</ele>
        <time>2022-08-01T07:15:45Z</time>
      </trkpt>
      <trkpt lat="45.86339" lon="1.32705">
        <ele>245.6</ele>
        <time>2022-08-01T07:15:47Z</time>
      </trkpt>
      <trkpt lat="45.86342" lon="1.32707">
        <ele>245.7</ele>
        <time>2022-08-01T07:15:49Z</time>
      </trkpt>
      <trkpt lat="45.86343" lon="1.3271">
        <ele>245.9</ele>
        <time>2022-08-01T07:15:51Z</time>
      </trkpt>
      <trkpt lat="45.86345" lon="1.32713">
        <ele>246.1</ele>
        <time>2022-08-01T07:15:53Z</time>
      </trkpt>
      <trkpt lat="45.86347" lon="1.32714">
        <ele>246.1</ele>
        <time>2022-08-01T07:15:55Z</time>
      </trkpt>
      <trkpt lat="45.86349" lon="1.32715">
        <ele>246.1</ele>
        <time>2022-08-01T07:15:57Z</time>
      </trkpt>
      <trkpt lat="45.86351" lon="1.32717">
        <ele>246.3</ele>
        <time>2022-08-01T07:15:59Z</time>
      </trkpt>
      <trkpt lat="45.86353" lon="1.3272">
        <ele>246.5</ele>
        <time>2022-08-01T07:16:01Z</time>
      </trkpt>
      <trkpt lat="45.86355" lon="1.32724">
        <ele>246.8</ele>
        <time>2022-08-01T07:16:03Z</time>
      </trkpt>
      <trkpt lat="45.86357" lon="1.32727">
        <ele>247</ele>
        <time>2022-08-01T07:16:05Z</time>
      </trkpt>
      <trkpt lat="45.86359" lon="1.32728">
        <ele>247.1</ele>
        <time>2022-08-01T07:16:07Z</time>
      </trkpt>
      <trkpt lat="45.86361" lon="1.32732">
        <ele>247.4</ele>
        <time>2022-08-01T07:16:09Z</time>
      </trkpt>
      <trkpt lat="45.86362" lon="1.32735">
        <ele>247.7</ele>
        <time>2022-08-01T07:16:11Z</time>
      </trkpt>
      <trkpt lat="45.86362" lon="1.32739">
        <ele>248.1</ele>
        <time>2022-08-01T07:16:13Z</time>
      </trkpt>
      <trkpt lat="45.86363" lon="1.32743">
        <ele>248.4</ele>
        <time>2022-08-01T07:16:15Z</time>
      </trkpt>
      <trkpt lat="45.86364" lon="1.32746">
        <ele>248.6</ele>
        <time>2022-08-01T07:16:17Z</time>
      </trkpt>
      <trkpt lat="45.86366" lon="1.32747">
        <ele>248.7</ele>
        <time>2022-08-01T07:16:19Z</time>
      </trkpt>
      <trkpt lat="45.86368" lon="1.32749">
        <ele>248.9</ele>
        <time>2022-08-01T07:16:21Z</time>
      </trkpt>
      <trkpt lat="45.86372" lon="1.32751">
        <ele>248.9</ele>
        <time>2022-08-01T07:16:23Z</time>
      </trkpt>
      <trkpt lat="45.86375" lon="1.32751">
        <ele>248.8</ele>
        <time>2022-08-01T07:16:25Z</time>
      </trkpt>
      <trkpt lat="45.86378" lon="1.32752">
        <ele>248.7</ele>
        <time>2022-08-01T07:16:27Z</time>
      </trkpt>
      <trkpt lat="45.86381" lon="1.32756">
        <ele>248.3</ele>
        <time>2022-08-01T07:16:29Z</time>
      </trkpt>
      <trkpt lat="45.86385" lon="1.32758">
        <ele>248.2</ele>
        <time>2022-08-01T07:16:31Z</time>
      </trkpt>
      <trkpt lat="45.86389" lon="1.32758">
        <ele>248.2</ele>
        <time>2022-08-01T07:16:33Z</time>
      </trkpt>
      <trkpt lat="45.86392" lon="1.3276">
        <ele>248.1</ele>
        <time>2022-08-01T07:16:35Z</time>
      </trkpt>
      <trkpt lat="45.86396" lon="1.3276">
        <ele>248.1</ele>
        <time>2022-08-01T07:16:37Z</time>
      </trkpt>
      <trkpt lat="45.86399" lon="1.32762">
        <ele>248</ele>
        <time>2022-08-01T07:16:39Z</time>
      </trkpt>
      <trkpt lat="45.86402" lon="1.32764">
        <ele>247.9</ele>
        <time>2022-08-01T07:16:41Z</time>
      </trkpt>
      <trkpt lat="45.86405" lon="1.32765">
        <ele>247.8</ele>
        <time>2022-08-01T07:16:43Z</time>
      </trkpt>
      <trkpt lat="45.86407" lon="1.32766">
        <ele>247.8</ele>
        <time>2022-08-01T07:16:45Z</time>
      </trkpt>
      <trkpt lat="45.86409" lon="1.32767">
        <ele>247.8</ele>
        <time>2022-08-01T07:16:47Z</time>
      </trkpt>
      <trkpt lat="45.86411" lon="1.32769">
        <ele>247.7</ele>
        <time>2022-08-01T07:16:49Z</time>
      </trkpt>
      <trkpt lat="45.86414" lon="1.32771">
        <ele>247.7</ele>
        <time>2022-08-01T07:16:51Z</time>
      </trkpt>
      <trkpt lat="45.86418" lon="1.32772">
        <ele>247.6</ele>
        <time>2022-08-01T07:16:53Z</time>
      </trkpt>
      <trkpt lat="45.86421" lon="1.32773">
        <ele>247.5</ele>
        <time>2022-08-01T07:16:55Z</time>
      </trkpt>
      <trkpt lat="45.86424" lon="1.32774">
        <ele>247.4</ele>
        <time>2022-08-01T07:16:57Z</time>
      </trkpt>
      <trkpt lat="45.86428" lon="1.32775">
        <ele>247.3</ele>
        <time>2022-08-01T07:16:59Z</time>
      </trkpt>
      <trkpt lat="45.86431" lon="1.32776">
        <ele>247.2</ele>
        <time>2022-08-01T07:17:01Z</time>
      </trkpt>
      <trkpt lat="45.86434" lon="1.32777">
        <ele>247.2</ele>
        <time>2022-08-01T07:17:03Z</time>
      </trkpt>
      <trkpt lat="45.86438" lon="1.32779">
        <ele>247.1</ele>
        <time>2022-08-01T07:17:05Z</time>
      </trkpt>
      <trkpt lat="45.86441" lon="1.32779">
        <ele>247</ele>
        <time>2022-08-01T07:17:07Z</time>
      </trkpt>
      <trkpt lat="45.86443" lon="1.3278">
        <ele>246.9</ele>
        <time>2022-08-01T07:17:09Z</time>
      </trkpt>
      <trkpt lat="45.86447" lon="1.32783">
        <ele>246.9</ele>
        <time>2022-08-01T07:17:11Z</time>
      </trkpt>
      <trkpt lat="45.8645" lon="1.32784">
        <ele>246.8</ele>
        <time>2022-08-01T07:17:13Z</time>
      </trkpt>
      <trkpt lat="45.86455" lon="1.32785">
        <ele>246.8</ele>
        <time>2022-08-01T07:17:15Z</time>
      </trkpt>
      <trkpt lat="45.86456" lon="1.32787">
        <ele>246.8</ele>
        <time>2022-08-01T07:17:17Z</time>
      </trkpt>
      <trkpt lat="45.86462" lon="1.32789">
        <ele>246.8</ele>
        <time>2022-08-01T07:17:19Z</time>
      </trkpt>
      <trkpt lat="45.86465" lon="1.3279">
        <ele>246.8</ele>
        <time>2022-08-01T07:17:21Z</time>
      </trkpt>
      <trkpt lat="45.8647" lon="1.32791">
        <ele>246.8</ele>
        <time>2022-08-01T07:17:23Z</time>
      </trkpt>
      <trkpt lat="45.86474" lon="1.32794">
        <ele>246.9</ele>
        <time>2022-08-01T07:17:25Z</time>
      </trkpt>
      <trkpt lat="45.86478" lon="1.32794">
        <ele>246.9</ele>
        <time>2022-08-01T07:17:27Z</time>
      </trkpt>
      <trkpt lat="45.86482" lon="1.32798">
        <ele>247</ele>
        <time>2022-08-01T07:17:29Z</time>
      </trkpt>
      <trkpt lat="45.86487" lon="1.32799">
        <ele>247.2</ele>
        <time>2022-08-01T07:17:31Z</time>
      </trkpt>
      <trkpt lat="45.86493" lon="1.328">
        <ele>247.3</ele>
        <time>2022-08-01T07:17:33Z</time>
      </trkpt>
      <trkpt lat="45.86498" lon="1.32802">
        <ele>247.5</ele>
        <time>2022-08-01T07:17:35Z</time>
      </trkpt>
      <trkpt lat="45.86504" lon="1.32803">
        <ele>247.6</ele>
        <time>2022-08-01T07:17:37Z</time>
      </trkpt>
      <trkpt lat="45.8651" lon="1.32805">
        <ele>247.8</ele>
        <time>2022-08-01T07:17:39Z</time>
      </trkpt>
      <trkpt lat="45.86517" lon="1.32807">
        <ele>248.1</ele>
        <time>2022-08-01T07:17:41Z</time>
      </trkpt>
      <trkpt lat="45.86523" lon="1.32808">
        <ele>248.3</ele>
        <time>2022-08-01T07:17:43Z</time>
      </trkpt>
      <trkpt lat="45.86528" lon="1.3281">
        <ele>248.5</ele>
        <time>2022-08-01T07:17:45Z</time>
      </trkpt>
      <trkpt lat="45.86534" lon="1.32812">
        <ele>248.8</ele>
        <time>2022-08-01T07:17:47Z</time>
      </trkpt>
      <trkpt lat="45.8654" lon="1.32813">
        <ele>249</ele>
        <time>2022-08-01T07:17:49Z</time>
      </trkpt>
      <trkpt lat="45.86545" lon="1.32815">
        <ele>249.3</ele>
        <time>2022-08-01T07:17:51Z</time>
      </trkpt>
      <trkpt lat="45.86552" lon="1.32816">
        <ele>249.5</ele>
        <time>2022-08-01T07:17:53Z</time>
      </trkpt>
      <trkpt lat="45.86558" lon="1.32818">
        <ele>249.8</ele>
        <time>2022-08-01T07:17:55Z</time>
      </trkpt>
      <trkpt lat="45.86564" lon="1.32819">
        <ele>250.1</ele>
        <time>2022-08-01T07:17:57Z</time>
      </trkpt>
      <trkpt lat="45.8657" lon="1.32821">
        <ele>250.4</ele>
        <time>2022-08-01T07:17:59Z</time>
      </trkpt>
      <trkpt lat="45.86576" lon="1.32823">
        <ele>250.8</ele>
        <time>2022-08-01T07:18:01Z</time>
      </trkpt>
      <trkpt lat="45.86581" lon="1.32824">
        <ele>251.1</ele>
        <time>2022-08-01T07:18:03Z</time>
      </trkpt>
      <trkpt lat="45.86585" lon="1.32826">
        <ele>251.4</ele>
        <time>2022-08-01T07:18:05Z</time>
      </trkpt>
      <trkpt lat="45.8659" lon="1.32828">
        <ele>251.7</ele>
        <time>2022-08-01T07:18:07Z</time>
      </trkpt>
      <trkpt lat="45.86595" lon="1.32829">
        <ele>252</ele>
        <time>2022-08-01T07:18:09Z</time>
      </trkpt>
      <trkpt lat="45.86601" lon="1.3283">
        <ele>252.3</ele>
        <time>2022-08-01T07:18:11Z</time>
      </trkpt>
      <trkpt lat="45.86606" lon="1.32832">
        <ele>252.7</ele>
        <time>2022-08-01T07:18:13Z</time>
      </trkpt>
      <trkpt lat="45.8661" lon="1.32834">
        <ele>253</ele>
        <time>2022-08-01T07:18:15Z</time>
      </trkpt>
      <trkpt lat="45.86614" lon="1.32836">
        <ele>253</ele>
        <time>2022-08-01T07:18:17Z</time>
      </trkpt>
      <trkpt lat="45.86618" lon="1.32837">
        <ele>253.2</ele>
        <time>2022-08-01T07:18:19Z</time>
      </trkpt>
      <trkpt lat="45.86622" lon="1.32838">
        <ele>253.3</ele>
        <time>2022-08-01T07:18:21Z</time>
      </trkpt>
      <trkpt lat="45.86625" lon="1.3284">
        <ele>253.4</ele>
        <time>2022-08-01T07:18:23Z</time>
      </trkpt>
      <trkpt lat="45.86629" lon="1.32841">
        <ele>253.5</ele>
        <time>2022-08-01T07:18:25Z</time>
      </trkpt>
      <trkpt lat="45.86634" lon="1.32841">
        <ele>253.6</ele>
        <time>2022-08-01T07:18:27Z</time>
      </trkpt>
      <trkpt lat="45.86638" lon="1.32843">
        <ele>253.8</ele>
        <time>2022-08-01T07:18:29Z</time>
      </trkpt>
      <trkpt lat="45.86643" lon="1.32845">
        <ele>253.9</ele>
        <time>2022-08-01T07:18:31Z</time>
      </trkpt>
      <trkpt lat="45.86646" lon="1.32846">
        <ele>254</ele>
        <time>2022-08-01T07:18:33Z</time>
      </trkpt>
      <trkpt lat="45.86651" lon="1.32847">
        <ele>254.1</ele>
        <time>2022-08-01T07:18:35Z</time>
      </trkpt>
      <trkpt lat="45.86655" lon="1.32849">
        <ele>254.2</ele>
        <time>2022-08-01T07:18:37Z</time>
      </trkpt>
      <trkpt lat="45.8666" lon="1.32849">
        <ele>254.4</ele>
        <time>2022-08-01T07:18:39Z</time>
      </trkpt>
      <trkpt lat="45.86663" lon="1.32851">
        <ele>254.5</ele>
        <time>2022-08-01T07:18:41Z</time>
      </trkpt>
      <trkpt lat="45.86668" lon="1.32852">
        <ele>254.6</ele>
        <time>2022-08-01T07:18:43Z</time>
      </trkpt>
      <trkpt lat="45.86672" lon="1.32853">
        <ele>254.7</ele>
        <time>2022-08-01T07:18:45Z</time>
      </trkpt>
      <trkpt lat="45.86676" lon="1.32855">
        <ele>254.9</ele>
        <time>2022-08-01T07:18:47Z</time>
      </trkpt>
      <trkpt lat="45.86681" lon="1.32856">
        <ele>255</ele>
        <time>2022-08-01T07:18:49Z</time>
      </trkpt>
      <trkpt lat="45.86684" lon="1.32857">
        <ele>255.1</ele>
        <time>2022-08-01T07:18:51Z</time>
      </trkpt>
      <trkpt lat="45.86689" lon="1.32858">
        <ele>255.3</ele>
        <time>2022-08-01T07:18:53Z</time>
      </trkpt>
      <trkpt lat="45.86694" lon="1.32859">
        <ele>255.5</ele>
        <time>2022-08-01T07:18:55Z</time>
      </trkpt>
      <trkpt lat="45.86699" lon="1.32861">
        <ele>255.6</ele>
        <time>2022-08-01T07:18:57Z</time>
      </trkpt>
      <trkpt lat="45.86703" lon="1.32862">
        <ele>255.8</ele>
        <time>2022-08-01T07:18:59Z</time>
      </trkpt>
      <trkpt lat="45.86707" lon="1.32864">
        <ele>255.9</ele>
        <time>2022-08-01T07:19:01Z</time>
      </trkpt>
      <trkpt lat="45.86711" lon="1.32866">
        <ele>256</ele>
        <time>2022-08-01T07:19:03Z</time>
      </trkpt>
      <trkpt lat="45.86715" lon="1.32866">
        <ele>256.2</ele>
        <time>2022-08-01T07:19:05Z</time>
      </trkpt>
      <trkpt lat="45.86718" lon="1.32867">
        <ele>256.3</ele>
        <time>2022-08-01T07:19:07Z</time>
      </trkpt>
      <trkpt lat="45.86723" lon="1.3287">
        <ele>256.4</ele>
        <time>2022-08-01T07:19:09Z</time>
      </trkpt>
      <trkpt lat="45.86727" lon="1.32871">
        <ele>256.6</ele>
        <time>2022-08-01T07:19:11Z</time>
      </trkpt>
      <trkpt lat="45.86731" lon="1.32872">
        <ele>256.7</ele>
        <time>2022-08-01T07:19:13Z</time>
      </trkpt>
      <trkpt lat="45.86734" lon="1.32874">
        <ele>256.9</ele>
        <time>2022-08-01T07:19:15Z</time>
      </trkpt>
      <trkpt lat="45.86738" lon="1.32875">
        <ele>257</ele>
        <time>2022-08-01T07:19:17Z</time>
      </trkpt>
      <trkpt lat="45.86743" lon="1.32876">
        <ele>257.2</ele>
        <time>2022-08-01T07:19:19Z</time>
      </trkpt>
      <trkpt lat="45.86747" lon="1.32877">
        <ele>257.3</ele>
        <time>2022-08-01T07:19:21Z</time>
      </trkpt>
      <trkpt lat="45.8675" lon="1.32879">
        <ele>257.4</ele>
        <time>2022-08-01T07:19:23Z</time>
      </trkpt>
      <trkpt lat="45.86754" lon="1.32881">
        <ele>257.5</ele>
        <time>2022-08-01T07:19:25Z</time>
      </trkpt>
      <trkpt lat="45.86759" lon="1.32883">
        <ele>257.6</ele>
        <time>2022-08-01T07:19:27Z</time>
      </trkpt>
      <trkpt lat="45.86763" lon="1.32884">
        <ele>257.7</ele>
        <time>2022-08-01T07:19:29Z</time>
      </trkpt>
      <trkpt lat="45.86766" lon="1.32886">
        <ele>257.7</ele>
        <time>2022-08-01T07:19:31Z</time>
      </trkpt>
      <trkpt lat="45.86769" lon="1.32887">
        <ele>257.8</ele>
        <time>2022-08-01T07:19:33Z</time>
      </trkpt>
      <trkpt lat="45.86773" lon="1.32887">
        <ele>257.9</ele>
        <time>2022-08-01T07:19:35Z</time>
      </trkpt>
      <trkpt lat="45.86779" lon="1.32888">
        <ele>258</ele>
        <time>2022-08-01T07:19:37Z</time>
      </trkpt>
      <trkpt lat="45.86784" lon="1.3289">
        <ele>258.2</ele>
        <time>2022-08-01T07:19:39Z</time>
      </trkpt>
      <trkpt lat="45.86791" lon="1.32891">
        <ele>258.3</ele>
        <time>2022-08-01T07:19:41Z</time>
      </trkpt>
      <trkpt lat="45.86797" lon="1.32892">
        <ele>258.5</ele>
        <time>2022-08-01T07:19:43Z</time>
      </trkpt>
      <trkpt lat="45.86803" lon="1.32893">
        <ele>258.7</ele>
        <time>2022-08-01T07:19:45Z</time>
      </trkpt>
      <trkpt lat="45.8681" lon="1.32897">
        <ele>258.9</ele>
        <time>2022-08-01T07:19:47Z</time>
      </trkpt>
      <trkpt lat="45.86817" lon="1.329">
        <ele>259.1</ele>
        <time>2022-08-01T07:19:49Z</time>
      </trkpt>
      <trkpt lat="45.86821" lon="1.329">
        <ele>259.3</ele>
        <time>2022-08-01T07:19:51Z</time>
      </trkpt>
      <trkpt lat="45.86825" lon="1.32905">
        <ele>259.5</ele>
        <time>2022-08-01T07:19:53Z</time>
      </trkpt>
      <trkpt lat="45.86829" lon="1.32911">
        <ele>259.7</ele>
        <time>2022-08-01T07:19:55Z</time>
      </trkpt>
      <trkpt lat="45.86833" lon="1.32916">
        <ele>260</ele>
        <time>2022-08-01T07:19:57Z</time>
      </trkpt>
      <trkpt lat="45.86836" lon="1.32922">
        <ele>259.8</ele>
        <time>2022-08-01T07:19:59Z</time>
      </trkpt>
      <trkpt lat="45.8684" lon="1.32927">
        <ele>259.6</ele>
        <time>2022-08-01T07:20:01Z</time>
      </trkpt>
      <trkpt lat="45.86844" lon="1.32932">
        <ele>259.4</ele>
        <time>2022-08-01T07:20:03Z</time>
      </trkpt>
      <trkpt lat="45.86848" lon="1.32938">
        <ele>259.2</ele>
        <time>2022-08-01T07:20:05Z</time>
      </trkpt>
      <trkpt lat="45.86852" lon="1.32943">
        <ele>258.9</ele>
        <time>2022-08-01T07:20:07Z</time>
      </trkpt>
      <trkpt lat="45.86857" lon="1.32948">
        <ele>258.7</ele>
        <time>2022-08-01T07:20:09Z</time>
      </trkpt>
      <trkpt lat="45.86862" lon="1.32954">
        <ele>258.5</ele>
        <time>2022-08-01T07:20:11Z</time>
      </trkpt>
      <trkpt lat="45.86867" lon="1.32961">
        <ele>258.2</ele>
        <time>2022-08-01T07:20:13Z</time>
      </trkpt>
      <trkpt lat="45.86873" lon="1.32967">
        <ele>258</ele>
        <time>2022-08-01T07:20:15Z</time>
      </trkpt>
      <trkpt lat="45.8688" lon="1.32974">
        <ele>257.7</ele>
        <time>2022-08-01T07:20:17Z</time>
      </trkpt>
      <trkpt lat="45.86889" lon="1.32983">
        <ele>257.4</ele>
        <time>2022-08-01T07:20:19Z</time>
      </trkpt>
      <trkpt lat="45.86899" lon="1.32992">
        <ele>257</ele>
        <time>2022-08-01T07:20:21Z</time>
      </trkpt>
      <trkpt lat="45.8691" lon="1.33002">
        <ele>256.5</ele>
        <time>2022-08-01T07:20:23Z</time>
      </trkpt>
      <trkpt lat="45.86922" lon="1.33012">
        <ele>255.7</ele>
        <time>2022-08-01T07:20:25Z</time>
      </trkpt>
      <trkpt lat="45.86934" lon="1.33024">
        <ele>255.2</ele>
        <time>2022-08-01T07:20:27Z</time>
      </trkpt>
      <trkpt lat="45.86946" lon="1.33038">
        <ele>254.6</ele>
        <time>2022-08-01T07:20:29Z</time>
      </trkpt>
      <trkpt lat="45.86957" lon="1.33054">
        <ele>253.9</ele>
        <time>2022-08-01T07:20:31Z</time>
      </trkpt>
      <trkpt lat="45.86966" lon="1.33071">
        <ele>252.9</ele>
        <time>2022-08-01T07:20:33Z</time>
      </trkpt>
      <trkpt lat="45.86974" lon="1.33088">
        <ele>252</ele>
        <time>2022-08-01T07:20:35Z</time>
      </trkpt>
      <trkpt lat="45.8698" lon="1.33105">
        <ele>251</ele>
        <time>2022-08-01T07:20:37Z</time>
      </trkpt>
      <trkpt lat="45.86987" lon="1.3312">
        <ele>250</ele>
        <time>2022-08-01T07:20:39Z</time>
      </trkpt>
      <trkpt lat="45.86994" lon="1.33136">
        <ele>249</ele>
        <time>2022-08-01T07:20:41Z</time>
      </trkpt>
      <trkpt lat="45.87" lon="1.33152">
        <ele>247.8</ele>
        <time>2022-08-01T07:20:43Z</time>
      </trkpt>
      <trkpt lat="45.87007" lon="1.33166">
        <ele>247.4</ele>
        <time>2022-08-01T07:20:45Z</time>
      </trkpt>
      <trkpt lat="45.87015" lon="1.33181">
        <ele>247.4</ele>
        <time>2022-08-01T07:20:47Z</time>
      </trkpt>
      <trkpt lat="45.87024" lon="1.33194">
        <ele>247.6</ele>
        <time>2022-08-01T07:20:49Z</time>
      </trkpt>
      <trkpt lat="45.87033" lon="1.33208">
        <ele>247.8</ele>
        <time>2022-08-01T07:20:51Z</time>
      </trkpt>
      <trkpt lat="45.87042" lon="1.33221">
        <ele>247.8</ele>
        <time>2022-08-01T07:20:53Z</time>
      </trkpt>
      <trkpt lat="45.87052" lon="1.33234">
        <ele>247.7</ele>
        <time>2022-08-01T07:20:55Z</time>
      </trkpt>
      <trkpt lat="45.87061" lon="1.33247">
        <ele>247.4</ele>
        <time>2022-08-01T07:20:57Z</time>
      </trkpt>
      <trkpt lat="45.8707" lon="1.33261">
        <ele>247.5</ele>
        <time>2022-08-01T07:20:59Z</time>
      </trkpt>
      <trkpt lat="45.87077" lon="1.33276">
        <ele>247.4</ele>
        <time>2022-08-01T07:21:01Z</time>
      </trkpt>
      <trkpt lat="45.87083" lon="1.33291">
        <ele>247.1</ele>
        <time>2022-08-01T07:21:03Z</time>
      </trkpt>
      <trkpt lat="45.87087" lon="1.33307">
        <ele>246.6</ele>
        <time>2022-08-01T07:21:05Z</time>
      </trkpt>
      <trkpt lat="45.8709" lon="1.33322">
        <ele>245.9</ele>
        <time>2022-08-01T07:21:07Z</time>
      </trkpt>
      <trkpt lat="45.87092" lon="1.33336">
        <ele>245.4</ele>
        <time>2022-08-01T07:21:09Z</time>
      </trkpt>
      <trkpt lat="45.87094" lon="1.33349">
        <ele>245.8</ele>
        <time>2022-08-01T07:21:11Z</time>
      </trkpt>
      <trkpt lat="45.87096" lon="1.33362">
        <ele>246.1</ele>
        <time>2022-08-01T07:21:13Z</time>
      </trkpt>
      <trkpt lat="45.87099" lon="1.33375">
        <ele>246.4</ele>
        <time>2022-08-01T07:21:15Z</time>
      </trkpt>
      <trkpt lat="45.87101" lon="1.33388">
        <ele>246.7</ele>
        <time>2022-08-01T07:21:17Z</time>
      </trkpt>
      <trkpt lat="45.87103" lon="1.33399">
        <ele>247</ele>
        <time>2022-08-01T07:21:19Z</time>
      </trkpt>
      <trkpt lat="45.87105" lon="1.33411">
        <ele>247.2</ele>
        <time>2022-08-01T07:21:21Z</time>
      </trkpt>
      <trkpt lat="45.87108" lon="1.33422">
        <ele>247.4</ele>
        <time>2022-08-01T07:21:23Z</time>
      </trkpt>
      <trkpt lat="45.8711" lon="1.33433">
        <ele>247.6</ele>
        <time>2022-08-01T07:21:25Z</time>
      </trkpt>
      <trkpt lat="45.87113" lon="1.33443">
        <ele>247.8</ele>
        <time>2022-08-01T07:21:27Z</time>
      </trkpt>
      <trkpt lat="45.87115" lon="1.33453">
        <ele>247.9</ele>
        <time>2022-08-01T07:21:29Z</time>
      </trkpt>
      <trkpt lat="45.87118" lon="1.33463">
        <ele>248.1</ele>
        <time>2022-08-01T07:21:31Z</time>
      </trkpt>
      <trkpt lat="45.87121" lon="1.33474">
        <ele>248.1</ele>
        <time>2022-08-01T07:21:33Z</time>
      </trkpt>
      <trkpt lat="45.87125" lon="1.33485">
        <ele>248.4</ele>
        <time>2022-08-01T07:21:35Z</time>
      </trkpt>
      <trkpt lat="45.8713" lon="1.33498">
        <ele>248.5</ele>
        <time>2022-08-01T07:21:37Z</time>
      </trkpt>
      <trkpt lat="45.87134" lon="1.33513">
        <ele>247.4</ele>
        <time>2022-08-01T07:21:39Z</time>
      </trkpt>
      <trkpt lat="45.87139" lon="1.33528">
        <ele>246.1</ele>
        <time>2022-08-01T07:21:41Z</time>
      </trkpt>
      <trkpt lat="45.87145" lon="1.33545">
        <ele>244.7</ele>
        <time>2022-08-01T07:21:43Z</time>
      </trkpt>
      <trkpt lat="45.87151" lon="1.33563">
        <ele>243.1</ele>
        <time>2022-08-01T07:21:45Z</time>
      </trkpt>
      <trkpt lat="45.87157" lon="1.33581">
        <ele>241.4</ele>
        <time>2022-08-01T07:21:47Z</time>
      </trkpt>
      <trkpt lat="45.87163" lon="1.336">
        <ele>240.9</ele>
        <time>2022-08-01T07:21:49Z</time>
      </trkpt>
      <trkpt lat="45.8717" lon="1.3362">
        <ele>240.4</ele>
        <time>2022-08-01T07:21:51Z</time>
      </trkpt>
      <trkpt lat="45.87176" lon="1.3364">
        <ele>239.8</ele>
        <time>2022-08-01T07:21:53Z</time>
      </trkpt>
      <trkpt lat="45.87183" lon="1.33661">
        <ele>239.2</ele>
        <time>2022-08-01T07:21:55Z</time>
      </trkpt>
      <trkpt lat="45.87189" lon="1.33683">
        <ele>239.7</ele>
        <time>2022-08-01T07:21:57Z</time>
      </trkpt>
      <trkpt lat="45.87196" lon="1.33704">
        <ele>240.5</ele>
        <time>2022-08-01T07:21:59Z</time>
      </trkpt>
      <trkpt lat="45.87203" lon="1.33724">
        <ele>241.2</ele>
        <time>2022-08-01T07:22:01Z</time>
      </trkpt>
      <trkpt lat="45.8721" lon="1.33744">
        <ele>242</ele>
        <time>2022-08-01T07:22:03Z</time>
      </trkpt>
      <trkpt lat="45.87217" lon="1.33762">
        <ele>241.7</ele>
        <time>2022-08-01T07:22:05Z</time>
      </trkpt>
      <trkpt lat="45.87226" lon="1.3378">
        <ele>241</ele>
        <time>2022-08-01T07:22:07Z</time>
      </trkpt>
      <trkpt lat="45.87235" lon="1.33796">
        <ele>240.3</ele>
        <time>2022-08-01T07:22:09Z</time>
      </trkpt>
      <trkpt lat="45.87245" lon="1.33814">
        <ele>239.3</ele>
        <time>2022-08-01T07:22:11Z</time>
      </trkpt>
      <trkpt lat="45.87255" lon="1.33832">
        <ele>238.9</ele>
        <time>2022-08-01T07:22:13Z</time>
      </trkpt>
      <trkpt lat="45.87265" lon="1.33851">
        <ele>239.7</ele>
        <time>2022-08-01T07:22:15Z</time>
      </trkpt>
      <trkpt lat="45.87273" lon="1.33872">
        <ele>240</ele>
        <time>2022-08-01T07:22:17Z</time>
      </trkpt>
      <trkpt lat="45.87279" lon="1.33892">
        <ele>239.9</ele>
        <time>2022-08-01T07:22:19Z</time>
      </trkpt>
      <trkpt lat="45.87284" lon="1.33912">
        <ele>239.5</ele>
        <time>2022-08-01T07:22:21Z</time>
      </trkpt>
      <trkpt lat="45.87288" lon="1.33933">
        <ele>239.9</ele>
        <time>2022-08-01T07:22:23Z</time>
      </trkpt>
      <trkpt lat="45.87293" lon="1.33953">
        <ele>240.5</ele>
        <time>2022-08-01T07:22:25Z</time>
      </trkpt>
      <trkpt lat="45.87298" lon="1.33973">
        <ele>241</ele>
        <time>2022-08-01T07:22:27Z</time>
      </trkpt>
      <trkpt lat="45.87302" lon="1.33993">
        <ele>241.2</ele>
        <time>2022-08-01T07:22:29Z</time>
      </trkpt>
      <trkpt lat="45.87307" lon="1.34013">
        <ele>240.9</ele>
        <time>2022-08-01T07:22:31Z</time>
      </trkpt>
      <trkpt lat="45.87312" lon="1.34031">
        <ele>240.4</ele>
        <time>2022-08-01T07:22:33Z</time>
      </trkpt>
      <trkpt lat="45.87316" lon="1.3405">
        <ele>240</ele>
        <time>2022-08-01T07:22:35Z</time>
      </trkpt>
      <trkpt lat="45.87321" lon="1.34067">
        <ele>239.7</ele>
        <time>2022-08-01T07:22:37Z</time>
      </trkpt>
      <trkpt lat="45.87324" lon="1.34081">
        <ele>239.5</ele>
        <time>2022-08-01T07:22:39Z</time>
      </trkpt>
      <trkpt lat="45.87328" lon="1.34095">
        <ele>239.9</ele>
        <time>2022-08-01T07:22:41Z</time>
      </trkpt>
      <trkpt lat="45.8733" lon="1.34108">
        <ele>240.4</ele>
        <time>2022-08-01T07:22:43Z</time>
      </trkpt>
      <trkpt lat="45.87334" lon="1.3412">
        <ele>241</ele>
        <time>2022-08-01T07:22:45Z</time>
      </trkpt>
      <trkpt lat="45.87337" lon="1.3413">
        <ele>241.7</ele>
        <time>2022-08-01T07:22:47Z</time>
      </trkpt>
      <trkpt lat="45.87339" lon="1.34141">
        <ele>242.4</ele>
        <time>2022-08-01T07:22:49Z</time>
      </trkpt>
      <trkpt lat="45.87342" lon="1.34151">
        <ele>243.1</ele>
        <time>2022-08-01T07:22:51Z</time>
      </trkpt>
      <trkpt lat="45.87344" lon="1.34161">
        <ele>243.7</ele>
        <time>2022-08-01T07:22:53Z</time>
      </trkpt>
      <trkpt lat="45.87345" lon="1.34171">
        <ele>244.1</ele>
        <time>2022-08-01T07:22:55Z</time>
      </trkpt>
      <trkpt lat="45.87347" lon="1.3418">
        <ele>244.1</ele>
        <time>2022-08-01T07:22:57Z</time>
      </trkpt>
      <trkpt lat="45.87348" lon="1.34189">
        <ele>244.2</ele>
        <time>2022-08-01T07:22:59Z</time>
      </trkpt>
      <trkpt lat="45.8735" lon="1.34199">
        <ele>244.2</ele>
        <time>2022-08-01T07:23:01Z</time>
      </trkpt>
      <trkpt lat="45.87351" lon="1.34208">
        <ele>244.2</ele>
        <time>2022-08-01T07:23:03Z</time>
      </trkpt>
      <trkpt lat="45.87352" lon="1.34217">
        <ele>244.1</ele>
        <time>2022-08-01T07:23:05Z</time>
      </trkpt>
      <trkpt lat="45.87352" lon="1.34225">
        <ele>244</ele>
        <time>2022-08-01T07:23:07Z</time>
      </trkpt>
      <trkpt lat="45.87353" lon="1.34233">
        <ele>244</ele>
        <time>2022-08-01T07:23:09Z</time>
      </trkpt>
      <trkpt lat="45.87355" lon="1.34241">
        <ele>244.1</ele>
        <time>2022-08-01T07:23:11Z</time>
      </trkpt>
      <trkpt lat="45.87356" lon="1.34248">
        <ele>244.1</ele>
        <time>2022-08-01T07:23:13Z</time>
      </trkpt>
      <trkpt lat="45.87357" lon="1.34256">
        <ele>244.2</ele>
        <time>2022-08-01T07:23:15Z</time>
      </trkpt>
      <trkpt lat="45.87359" lon="1.34263">
        <ele>244.3</ele>
        <time>2022-08-01T07:23:17Z</time>
      </trkpt>
      <trkpt lat="45.8736" lon="1.3427">
        <ele>244.3</ele>
        <time>2022-08-01T07:23:19Z</time>
      </trkpt>
      <trkpt lat="45.87361" lon="1.34277">
        <ele>244.5</ele>
        <time>2022-08-01T07:23:21Z</time>
      </trkpt>
      <trkpt lat="45.87363" lon="1.34284">
        <ele>244.6</ele>
        <time>2022-08-01T07:23:23Z</time>
      </trkpt>
      <trkpt lat="45.87364" lon="1.34291">
        <ele>244.8</ele>
        <time>2022-08-01T07:23:25Z</time>
      </trkpt>
      <trkpt lat="45.87366" lon="1.34297">
        <ele>245</ele>
        <time>2022-08-01T07:23:27Z</time>
      </trkpt>
      <trkpt lat="45.87368" lon="1.34304">
        <ele>245.2</ele>
        <time>2022-08-01T07:23:29Z</time>
      </trkpt>
      <trkpt lat="45.8737" lon="1.34311">
        <ele>245.5</ele>
        <time>2022-08-01T07:23:31Z</time>
      </trkpt>
      <trkpt lat="45.87372" lon="1.34318">
        <ele>245.8</ele>
        <time>2022-08-01T07:23:33Z</time>
      </trkpt>
      <trkpt lat="45.87375" lon="1.34324">
        <ele>246.2</ele>
        <time>2022-08-01T07:23:35Z</time>
      </trkpt>
      <trkpt lat="45.87377" lon="1.3433">
        <ele>246.5</ele>
        <time>2022-08-01T07:23:37Z</time>
      </trkpt>
      <trkpt lat="45.8738" lon="1.34336">
        <ele>247</ele>
        <time>2022-08-01T07:23:39Z</time>
      </trkpt>
      <trkpt lat="45.87383" lon="1.34342">
        <ele>247.4</ele>
        <time>2022-08-01T07:23:41Z</time>
      </trkpt>
      <trkpt lat="45.87386" lon="1.34347">
        <ele>247.9</ele>
        <time>2022-08-01T07:23:43Z</time>
      </trkpt>
      <trkpt lat="45.87388" lon="1.34353">
        <ele>248.4</ele>
        <time>2022-08-01T07:23:45Z</time>
      </trkpt>
      <trkpt lat="45.87391" lon="1.34358">
        <ele>248.9</ele>
        <time>2022-08-01T07:23:47Z</time>
      </trkpt>
      <trkpt lat="45.87394" lon="1.34364">
        <ele>249.5</ele>
        <time>2022-08-01T07:23:49Z</time>
      </trkpt>
      <trkpt lat="45.87397" lon="1.34369">
        <ele>250</ele>
        <time>2022-08-01T07:23:51Z</time>
      </trkpt>
      <trkpt lat="45.874" lon="1.34374">
        <ele>250.6</ele>
        <time>2022-08-01T07:23:53Z</time>
      </trkpt>
      <trkpt lat="45.87402" lon="1.34379">
        <ele>251.1</ele>
        <time>2022-08-01T07:23:55Z</time>
      </trkpt>
      <trkpt lat="45.87406" lon="1.34384">
        <ele>251.7</ele>
        <time>2022-08-01T07:23:57Z</time>
      </trkpt>
      <trkpt lat="45.87409" lon="1.3439">
        <ele>252.3</ele>
        <time>2022-08-01T07:23:59Z</time>
      </trkpt>
      <trkpt lat="45.87411" lon="1.34395">
        <ele>252.9</ele>
        <time>2022-08-01T07:24:01Z</time>
      </trkpt>
      <trkpt lat="45.87413" lon="1.34401">
        <ele>253.3</ele>
        <time>2022-08-01T07:24:03Z</time>
      </trkpt>
      <trkpt lat="45.87416" lon="1.34406">
        <ele>253.9</ele>
        <time>2022-08-01T07:24:05Z</time>
      </trkpt>
      <trkpt lat="45.8742" lon="1.34411">
        <ele>254.4</ele>
        <time>2022-08-01T07:24:07Z</time>
      </trkpt>
      <trkpt lat="45.87423" lon="1.34417">
        <ele>254.6</ele>
        <time>2022-08-01T07:24:09Z</time>
      </trkpt>
      <trkpt lat="45.87426" lon="1.34423">
        <ele>254.5</ele>
        <time>2022-08-01T07:24:11Z</time>
      </trkpt>
      <trkpt lat="45.8743" lon="1.3443">
        <ele>254.5</ele>
        <time>2022-08-01T07:24:13Z</time>
      </trkpt>
      <trkpt lat="45.87434" lon="1.34437">
        <ele>254.4</ele>
        <time>2022-08-01T07:24:15Z</time>
      </trkpt>
      <trkpt lat="45.87437" lon="1.34444">
        <ele>254.4</ele>
        <time>2022-08-01T07:24:17Z</time>
      </trkpt>
      <trkpt lat="45.87441" lon="1.34451">
        <ele>254.4</ele>
        <time>2022-08-01T07:24:19Z</time>
      </trkpt>
      <trkpt lat="45.87445" lon="1.34458">
        <ele>254.4</ele>
        <time>2022-08-01T07:24:21Z</time>
      </trkpt>
      <trkpt lat="45.87448" lon="1.34465">
        <ele>254.5</ele>
        <time>2022-08-01T07:24:23Z</time>
      </trkpt>
      <trkpt lat="45.87452" lon="1.34471">
        <ele>254.7</ele>
        <time>2022-08-01T07:24:25Z</time>
      </trkpt>
      <trkpt lat="45.87456" lon="1.34479">
        <ele>254.8</ele>
        <time>2022-08-01T07:24:27Z</time>
      </trkpt>
      <trkpt lat="45.8746" lon="1.34486">
        <ele>255</ele>
        <time>2022-08-01T07:24:29Z</time>
      </trkpt>
      <trkpt lat="45.87463" lon="1.34493">
        <ele>255.2</ele>
        <time>2022-08-01T07:24:31Z</time>
      </trkpt>
      <trkpt lat="45.87467" lon="1.34499">
        <ele>255.5</ele>
        <time>2022-08-01T07:24:33Z</time>
      </trkpt>
      <trkpt lat="45.87471" lon="1.34506">
        <ele>255.9</ele>
        <time>2022-08-01T07:24:35Z</time>
      </trkpt>
      <trkpt lat="45.87474" lon="1.34513">
        <ele>256.2</ele>
        <time>2022-08-01T07:24:37Z</time>
      </trkpt>
      <trkpt lat="45.87477" lon="1.3452">
        <ele>256.6</ele>
        <time>2022-08-01T07:24:39Z</time>
      </trkpt>
      <trkpt lat="45.87481" lon="1.34526">
        <ele>257.1</ele>
        <time>2022-08-01T07:24:41Z</time>
      </trkpt>
      <trkpt lat="45.87485" lon="1.34533">
        <ele>257.6</ele>
        <time>2022-08-01T07:24:43Z</time>
      </trkpt>
      <trkpt lat="45.87489" lon="1.3454">
        <ele>258.1</ele>
        <time>2022-08-01T07:24:45Z</time>
      </trkpt>
      <trkpt lat="45.87492" lon="1.34546">
        <ele>258.5</ele>
        <time>2022-08-01T07:24:47Z</time>
      </trkpt>
      <trkpt lat="45.87495" lon="1.34553">
        <ele>258.9</ele>
        <time>2022-08-01T07:24:49Z</time>
      </trkpt>
      <trkpt lat="45.87499" lon="1.3456">
        <ele>259.4</ele>
        <time>2022-08-01T07:24:51Z</time>
      </trkpt>
      <trkpt lat="45.87502" lon="1.34566">
        <ele>259.6</ele>
        <time>2022-08-01T07:24:53Z</time>
      </trkpt>
      <trkpt lat="45.87506" lon="1.34572">
        <ele>259.6</ele>
        <time>2022-08-01T07:24:55Z</time>
      </trkpt>
      <trkpt lat="45.87509" lon="1.34579">
        <ele>259.7</ele>
        <time>2022-08-01T07:24:57Z</time>
      </trkpt>
      <trkpt lat="45.87513" lon="1.34586">
        <ele>259.6</ele>
        <time>2022-08-01T07:24:59Z</time>
      </trkpt>
      <trkpt lat="45.87516" lon="1.34592">
        <ele>259.4</ele>
        <time>2022-08-01T07:25:01Z</time>
      </trkpt>
      <trkpt lat="45.8752" lon="1.34599">
        <ele>259.3</ele>
        <time>2022-08-01T07:25:03Z</time>
      </trkpt>
      <trkpt lat="45.87523" lon="1.34605">
        <ele>259.1</ele>
        <time>2022-08-01T07:25:05Z</time>
      </trkpt>
      <trkpt lat="45.87526" lon="1.34611">
        <ele>259</ele>
        <time>2022-08-01T07:25:07Z</time>
      </trkpt>
      <trkpt lat="45.8753" lon="1.34617">
        <ele>258.9</ele>
        <time>2022-08-01T07:25:09Z</time>
      </trkpt>
      <trkpt lat="45.87533" lon="1.34624">
        <ele>258.7</ele>
        <time>2022-08-01T07:25:11Z</time>
      </trkpt>
      <trkpt lat="45.87537" lon="1.34631">
        <ele>258.6</ele>
        <time>2022-08-01T07:25:13Z</time>
      </trkpt>
      <trkpt lat="45.87541" lon="1.34639">
        <ele>258.4</ele>
        <time>2022-08-01T07:25:15Z</time>
      </trkpt>
      <trkpt lat="45.87544" lon="1.34647">
        <ele>258.2</ele>
        <time>2022-08-01T07:25:17Z</time>
      </trkpt>
      <trkpt lat="45.87547" lon="1.34656">
        <ele>258</ele>
        <time>2022-08-01T07:25:19Z</time>
      </trkpt>
      <trkpt lat="45.8755" lon="1.34665">
        <ele>257.7</ele>
        <time>2022-08-01T07:25:21Z</time>
      </trkpt>
      <trkpt lat="45.87551" lon="1.34675">
        <ele>257.9</ele>
        <time>2022-08-01T07:25:23Z</time>
      </trkpt>
      <trkpt lat="45.87553" lon="1.34685">
        <ele>258.3</ele>
        <time>2022-08-01T07:25:25Z</time>
      </trkpt>
      <trkpt lat="45.87554" lon="1.34694">
        <ele>258.6</ele>
        <time>2022-08-01T07:25:27Z</time>
      </trkpt>
      <trkpt lat="45.87554" lon="1.34703">
        <ele>258.9</ele>
        <time>2022-08-01T07:25:29Z</time>
      </trkpt>
      <trkpt lat="45.87554" lon="1.34712">
        <ele>259.2</ele>
        <time>2022-08-01T07:25:31Z</time>
      </trkpt>
      <trkpt lat="45.87554" lon="1.34721">
        <ele>259.4</ele>
        <time>2022-08-01T07:25:33Z</time>
      </trkpt>
      <trkpt lat="45.87553" lon="1.34731">
        <ele>259.6</ele>
        <time>2022-08-01T07:25:35Z</time>
      </trkpt>
      <trkpt lat="45.87554" lon="1.3474">
        <ele>259.9</ele>
        <time>2022-08-01T07:25:37Z</time>
      </trkpt>
      <trkpt lat="45.87553" lon="1.34748">
        <ele>260</ele>
        <time>2022-08-01T07:25:39Z</time>
      </trkpt>
      <trkpt lat="45.87553" lon="1.34756">
        <ele>260.4</ele>
        <time>2022-08-01T07:25:41Z</time>
      </trkpt>
      <trkpt lat="45.87553" lon="1.34765">
        <ele>260.8</ele>
        <time>2022-08-01T07:25:43Z</time>
      </trkpt>
      <trkpt lat="45.87554" lon="1.34773">
        <ele>261.3</ele>
        <time>2022-08-01T07:25:45Z</time>
      </trkpt>
      <trkpt lat="45.87554" lon="1.34781">
        <ele>261.6</ele>
        <time>2022-08-01T07:25:47Z</time>
      </trkpt>
      <trkpt lat="45.87554" lon="1.34789">
        <ele>262</ele>
        <time>2022-08-01T07:25:49Z</time>
      </trkpt>
      <trkpt lat="45.87554" lon="1.34797">
        <ele>262.4</ele>
        <time>2022-08-01T07:25:51Z</time>
      </trkpt>
      <trkpt lat="45.87554" lon="1.34804">
        <ele>262.7</ele>
        <time>2022-08-01T07:25:53Z</time>
      </trkpt>
      <trkpt lat="45.87554" lon="1.34812">
        <ele>263.1</ele>
        <time>2022-08-01T07:25:55Z</time>
      </trkpt>
      <trkpt lat="45.87554" lon="1.3482">
        <ele>263.4</ele>
        <time>2022-08-01T07:25:57Z</time>
      </trkpt>
      <trkpt lat="45.87554" lon="1.34827">
        <ele>263.8</ele>
        <time>2022-08-01T07:25:59Z</time>
      </trkpt>
      <trkpt lat="45.87554" lon="1.34835">
        <ele>264.2</ele>
        <time>2022-08-01T07:26:01Z</time>
      </trkpt>
      <trkpt lat="45.87553" lon="1.34842">
        <ele>264.3</ele>
        <time>2022-08-01T07:26:03Z</time>
      </trkpt>
      <trkpt lat="45.87554" lon="1.3485">
        <ele>264.5</ele>
        <time>2022-08-01T07:26:05Z</time>
      </trkpt>
      <trkpt lat="45.87554" lon="1.34857">
        <ele>264.7</ele>
        <time>2022-08-01T07:26:07Z</time>
      </trkpt>
      <trkpt lat="45.87554" lon="1.34865">
        <ele>264.8</ele>
        <time>2022-08-01T07:26:09Z</time>
      </trkpt>
      <trkpt lat="45.87554" lon="1.34871">
        <ele>265</ele>
        <time>2022-08-01T07:26:11Z</time>
      </trkpt>
      <trkpt lat="45.87554" lon="1.34878">
        <ele>265.2</ele>
        <time>2022-08-01T07:26:13Z</time>
      </trkpt>
      <trkpt lat="45.87554" lon="1.34885">
        <ele>265.3</ele>
        <time>2022-08-01T07:26:15Z</time>
      </trkpt>
      <trkpt lat="45.87554" lon="1.34892">
        <ele>265.4</ele>
        <time>2022-08-01T07:26:17Z</time>
      </trkpt>
      <trkpt lat="45.87554" lon="1.34898">
        <ele>265.7</ele>
        <time>2022-08-01T07:26:19Z</time>
      </trkpt>
      <trkpt lat="45.87554" lon="1.34905">
        <ele>265.8</ele>
        <time>2022-08-01T07:26:21Z</time>
      </trkpt>
      <trkpt lat="45.87554" lon="1.34912">
        <ele>265.9</ele>
        <time>2022-08-01T07:26:23Z</time>
      </trkpt>
      <trkpt lat="45.87553" lon="1.34919">
        <ele>266</ele>
        <time>2022-08-01T07:26:25Z</time>
      </trkpt>
      <trkpt lat="45.87554" lon="1.34926">
        <ele>266.1</ele>
        <time>2022-08-01T07:26:27Z</time>
      </trkpt>
      <trkpt lat="45.87554" lon="1.34933">
        <ele>266.3</ele>
        <time>2022-08-01T07:26:29Z</time>
      </trkpt>
      <trkpt lat="45.87554" lon="1.3494">
        <ele>266.4</ele>
        <time>2022-08-01T07:26:31Z</time>
      </trkpt>
      <trkpt lat="45.87554" lon="1.34946">
        <ele>266.5</ele>
        <time>2022-08-01T07:26:33Z</time>
      </trkpt>
      <trkpt lat="45.87554" lon="1.34953">
        <ele>266.7</ele>
        <time>2022-08-01T07:26:35Z</time>
      </trkpt>
      <trkpt lat="45.87554" lon="1.34958">
        <ele>266.8</ele>
        <time>2022-08-01T07:26:37Z</time>
      </trkpt>
      <trkpt lat="45.87554" lon="1.34965">
        <ele>266.8</ele>
        <time>2022-08-01T07:26:39Z</time>
      </trkpt>
      <trkpt lat="45.87554" lon="1.34972">
        <ele>266.9</ele>
        <time>2022-08-01T07:26:41Z</time>
      </trkpt>
      <trkpt lat="45.87553" lon="1.34979">
        <ele>267</ele>
        <time>2022-08-01T07:26:43Z</time>
      </trkpt>
      <trkpt lat="45.87553" lon="1.34986">
        <ele>267.1</ele>
        <time>2022-08-01T07:26:45Z</time>
      </trkpt>
      <trkpt lat="45.87553" lon="1.34993">
        <ele>267.2</ele>
        <time>2022-08-01T07:26:47Z</time>
      </trkpt>
      <trkpt lat="45.87554" lon="1.35">
        <ele>267.4</ele>
        <time>2022-08-01T07:26:49Z</time>
      </trkpt>
      <trkpt lat="45.87554" lon="1.35007">
        <ele>267.7</ele>
        <time>2022-08-01T07:26:51Z</time>
      </trkpt>
      <trkpt lat="45.87554" lon="1.35013">
        <ele>267.9</ele>
        <time>2022-08-01T07:26:53Z</time>
      </trkpt>
      <trkpt lat="45.87554" lon="1.3502">
        <ele>268.3</ele>
        <time>2022-08-01T07:26:55Z</time>
      </trkpt>
      <trkpt lat="45.87555" lon="1.35027">
        <ele>268.7</ele>
        <time>2022-08-01T07:26:57Z</time>
      </trkpt>
      <trkpt lat="45.87556" lon="1.35034">
        <ele>269.2</ele>
        <time>2022-08-01T07:26:59Z</time>
      </trkpt>
      <trkpt lat="45.87556" lon="1.3504">
        <ele>269.5</ele>
        <time>2022-08-01T07:27:01Z</time>
      </trkpt>
      <trkpt lat="45.87557" lon="1.35047">
        <ele>269.9</ele>
        <time>2022-08-01T07:27:03Z</time>
      </trkpt>
      <trkpt lat="45.87558" lon="1.35054">
        <ele>270.3</ele>
        <time>2022-08-01T07:27:05Z</time>
      </trkpt>
      <trkpt lat="45.87558" lon="1.3506">
        <ele>270.7</ele>
        <time>2022-08-01T07:27:07Z</time>
      </trkpt>
      <trkpt lat="45.87559" lon="1.35067">
        <ele>271.1</ele>
        <time>2022-08-01T07:27:09Z</time>
      </trkpt>
      <trkpt lat="45.8756" lon="1.35074">
        <ele>271.5</ele>
        <time>2022-08-01T07:27:11Z</time>
      </trkpt>
      <trkpt lat="45.87561" lon="1.3508">
        <ele>271.9</ele>
        <time>2022-08-01T07:27:13Z</time>
      </trkpt>
      <trkpt lat="45.87562" lon="1.35087">
        <ele>272.1</ele>
        <time>2022-08-01T07:27:15Z</time>
      </trkpt>
      <trkpt lat="45.87563" lon="1.35093">
        <ele>272.1</ele>
        <time>2022-08-01T07:27:17Z</time>
      </trkpt>
      <trkpt lat="45.87564" lon="1.351">
        <ele>272</ele>
        <time>2022-08-01T07:27:19Z</time>
      </trkpt>
      <trkpt lat="45.87565" lon="1.35107">
        <ele>272.1</ele>
        <time>2022-08-01T07:27:21Z</time>
      </trkpt>
      <trkpt lat="45.87566" lon="1.35113">
        <ele>272.1</ele>
        <time>2022-08-01T07:27:23Z</time>
      </trkpt>
      <trkpt lat="45.87567" lon="1.35119">
        <ele>272.1</ele>
        <time>2022-08-01T07:27:25Z</time>
      </trkpt>
      <trkpt lat="45.87567" lon="1.35125">
        <ele>272.1</ele>
        <time>2022-08-01T07:27:27Z</time>
      </trkpt>
      <trkpt lat="45.87564" lon="1.3513">
        <ele>271.6</ele>
        <time>2022-08-01T07:27:29Z</time>
      </trkpt>
      <trkpt lat="45.87562" lon="1.35134">
        <ele>271.1</ele>
        <time>2022-08-01T07:27:31Z</time>
      </trkpt>
      <trkpt lat="45.87563" lon="1.35138">
        <ele>271.1</ele>
        <time>2022-08-01T07:27:33Z</time>
      </trkpt>
      <trkpt lat="45.87564" lon="1.35139">
        <ele>271.4</ele>
        <time>2022-08-01T07:27:35Z</time>
      </trkpt>
      <trkpt lat="45.87565" lon="1.35138">
        <ele>271.4</ele>
        <time>2022-08-01T07:27:37Z</time>
      </trkpt>
      <trkpt lat="45.87565" lon="1.35138">
        <ele>271.4</ele>
        <time>2022-08-01T07:27:39Z</time>
      </trkpt>
      <trkpt lat="45.87565" lon="1.35138">
        <ele>271.4</ele>
        <time>2022-08-01T07:27:41Z</time>
      </trkpt>
      <trkpt lat="45.87565" lon="1.35138">
        <ele>271.4</ele>
        <time>2022-08-01T07:27:43Z</time>
      </trkpt>
      <trkpt lat="45.8757" lon="1.35151">
        <ele>272</ele>
        <time>2022-08-01T07:29:49Z</time>
      </trkpt>
      <trkpt lat="45.87571" lon="1.35158">
        <ele>272.1</ele>
        <time>2022-08-01T07:29:51Z</time>
      </trkpt>
      <trkpt lat="45.87573" lon="1.35165">
        <ele>272.3</ele>
        <time>2022-08-01T07:29:53Z</time>
      </trkpt>
      <trkpt lat="45.87575" lon="1.35172">
        <ele>272.4</ele>
        <time>2022-08-01T07:29:55Z</time>
      </trkpt>
      <trkpt lat="45.87577" lon="1.35179">
        <ele>272.4</ele>
        <time>2022-08-01T07:29:57Z</time>
      </trkpt>
      <trkpt lat="45.87579" lon="1.35186">
        <ele>272.3</ele>
        <time>2022-08-01T07:29:59Z</time>
      </trkpt>
      <trkpt lat="45.87581" lon="1.35194">
        <ele>272.3</ele>
        <time>2022-08-01T07:30:01Z</time>
      </trkpt>
      <trkpt lat="45.87583" lon="1.35202">
        <ele>272.3</ele>
        <time>2022-08-01T07:30:03Z</time>
      </trkpt>
      <trkpt lat="45.87586" lon="1.35209">
        <ele>272.2</ele>
        <time>2022-08-01T07:30:05Z</time>
      </trkpt>
      <trkpt lat="45.87589" lon="1.35217">
        <ele>272.2</ele>
        <time>2022-08-01T07:30:07Z</time>
      </trkpt>
      <trkpt lat="45.87591" lon="1.35225">
        <ele>272</ele>
        <time>2022-08-01T07:30:09Z</time>
      </trkpt>
      <trkpt lat="45.87594" lon="1.35233">
        <ele>271.9</ele>
        <time>2022-08-01T07:30:11Z</time>
      </trkpt>
      <trkpt lat="45.87598" lon="1.35241">
        <ele>272</ele>
        <time>2022-08-01T07:30:13Z</time>
      </trkpt>
      <trkpt lat="45.87601" lon="1.3525">
        <ele>271.9</ele>
        <time>2022-08-01T07:30:15Z</time>
      </trkpt>
      <trkpt lat="45.87605" lon="1.35258">
        <ele>272.2</ele>
        <time>2022-08-01T07:30:17Z</time>
      </trkpt>
      <trkpt lat="45.87608" lon="1.35267">
        <ele>272.4</ele>
        <time>2022-08-01T07:30:19Z</time>
      </trkpt>
      <trkpt lat="45.87612" lon="1.35276">
        <ele>272.7</ele>
        <time>2022-08-01T07:30:21Z</time>
      </trkpt>
      <trkpt lat="45.87616" lon="1.35284">
        <ele>273</ele>
        <time>2022-08-01T07:30:23Z</time>
      </trkpt>
      <trkpt lat="45.87621" lon="1.35293">
        <ele>273.3</ele>
        <time>2022-08-01T07:30:25Z</time>
      </trkpt>
      <trkpt lat="45.87625" lon="1.35302">
        <ele>273.6</ele>
        <time>2022-08-01T07:30:27Z</time>
      </trkpt>
      <trkpt lat="45.8763" lon="1.35311">
        <ele>273.9</ele>
        <time>2022-08-01T07:30:29Z</time>
      </trkpt>
      <trkpt lat="45.87635" lon="1.35321">
        <ele>274.2</ele>
        <time>2022-08-01T07:30:31Z</time>
      </trkpt>
      <trkpt lat="45.87641" lon="1.3533">
        <ele>274.7</ele>
        <time>2022-08-01T07:30:33Z</time>
      </trkpt>
      <trkpt lat="45.87647" lon="1.35339">
        <ele>274.9</ele>
        <time>2022-08-01T07:30:35Z</time>
      </trkpt>
      <trkpt lat="45.87653" lon="1.35348">
        <ele>275.2</ele>
        <time>2022-08-01T07:30:37Z</time>
      </trkpt>
      <trkpt lat="45.8766" lon="1.35357">
        <ele>275.4</ele>
        <time>2022-08-01T07:30:39Z</time>
      </trkpt>
      <trkpt lat="45.87667" lon="1.35367">
        <ele>275.8</ele>
        <time>2022-08-01T07:30:41Z</time>
      </trkpt>
      <trkpt lat="45.87674" lon="1.35376">
        <ele>276.1</ele>
        <time>2022-08-01T07:30:43Z</time>
      </trkpt>
      <trkpt lat="45.87681" lon="1.35385">
        <ele>276.4</ele>
        <time>2022-08-01T07:30:45Z</time>
      </trkpt>
      <trkpt lat="45.87688" lon="1.35394">
        <ele>276.6</ele>
        <time>2022-08-01T07:30:47Z</time>
      </trkpt>
      <trkpt lat="45.87695" lon="1.35404">
        <ele>276.7</ele>
        <time>2022-08-01T07:30:49Z</time>
      </trkpt>
      <trkpt lat="45.87703" lon="1.35413">
        <ele>276.8</ele>
        <time>2022-08-01T07:30:51Z</time>
      </trkpt>
      <trkpt lat="45.8771" lon="1.35423">
        <ele>276.6</ele>
        <time>2022-08-01T07:30:53Z</time>
      </trkpt>
      <trkpt lat="45.87718" lon="1.35432">
        <ele>276.3</ele>
        <time>2022-08-01T07:30:55Z</time>
      </trkpt>
      <trkpt lat="45.87725" lon="1.35442">
        <ele>276.1</ele>
        <time>2022-08-01T07:30:57Z</time>
      </trkpt>
      <trkpt lat="45.87733" lon="1.35452">
        <ele>275.8</ele>
        <time>2022-08-01T07:30:59Z</time>
      </trkpt>
      <trkpt lat="45.87741" lon="1.35462">
        <ele>275.5</ele>
        <time>2022-08-01T07:31:01Z</time>
      </trkpt>
      <trkpt lat="45.87748" lon="1.35472">
        <ele>275.3</ele>
        <time>2022-08-01T07:31:03Z</time>
      </trkpt>
      <trkpt lat="45.87756" lon="1.35482">
        <ele>275</ele>
        <time>2022-08-01T07:31:05Z</time>
      </trkpt>
      <trkpt lat="45.87763" lon="1.35492">
        <ele>275</ele>
        <time>2022-08-01T07:31:07Z</time>
      </trkpt>
      <trkpt lat="45.87771" lon="1.35503">
        <ele>274.8</ele>
        <time>2022-08-01T07:31:09Z</time>
      </trkpt>
      <trkpt lat="45.87778" lon="1.35514">
        <ele>274.8</ele>
        <time>2022-08-01T07:31:11Z</time>
      </trkpt>
      <trkpt lat="45.87785" lon="1.35525">
        <ele>274.7</ele>
        <time>2022-08-01T07:31:13Z</time>
      </trkpt>
      <trkpt lat="45.87792" lon="1.35537">
        <ele>274.5</ele>
        <time>2022-08-01T07:31:15Z</time>
      </trkpt>
      <trkpt lat="45.87798" lon="1.3555">
        <ele>274.4</ele>
        <time>2022-08-01T07:31:17Z</time>
      </trkpt>
      <trkpt lat="45.87804" lon="1.35563">
        <ele>274.2</ele>
        <time>2022-08-01T07:31:19Z</time>
      </trkpt>
      <trkpt lat="45.87809" lon="1.35576">
        <ele>273.9</ele>
        <time>2022-08-01T07:31:21Z</time>
      </trkpt>
      <trkpt lat="45.87814" lon="1.3559">
        <ele>273.7</ele>
        <time>2022-08-01T07:31:23Z</time>
      </trkpt>
      <trkpt lat="45.87819" lon="1.35603">
        <ele>273.6</ele>
        <time>2022-08-01T07:31:25Z</time>
      </trkpt>
      <trkpt lat="45.87823" lon="1.35617">
        <ele>273.5</ele>
        <time>2022-08-01T07:31:27Z</time>
      </trkpt>
      <trkpt lat="45.87826" lon="1.35632">
        <ele>273.4</ele>
        <time>2022-08-01T07:31:29Z</time>
      </trkpt>
      <trkpt lat="45.87829" lon="1.35647">
        <ele>273.2</ele>
        <time>2022-08-01T07:31:31Z</time>
      </trkpt>
      <trkpt lat="45.87831" lon="1.35662">
        <ele>272.9</ele>
        <time>2022-08-01T07:31:33Z</time>
      </trkpt>
      <trkpt lat="45.87833" lon="1.35678">
        <ele>273.2</ele>
        <time>2022-08-01T07:31:35Z</time>
      </trkpt>
      <trkpt lat="45.87834" lon="1.35694">
        <ele>273.8</ele>
        <time>2022-08-01T07:31:37Z</time>
      </trkpt>
      <trkpt lat="45.87836" lon="1.3571">
        <ele>274.4</ele>
        <time>2022-08-01T07:31:39Z</time>
      </trkpt>
      <trkpt lat="45.87837" lon="1.35724">
        <ele>275</ele>
        <time>2022-08-01T07:31:41Z</time>
      </trkpt>
      <trkpt lat="45.87837" lon="1.35738">
        <ele>275.3</ele>
        <time>2022-08-01T07:31:43Z</time>
      </trkpt>
      <trkpt lat="45.87837" lon="1.35753">
        <ele>275.6</ele>
        <time>2022-08-01T07:31:45Z</time>
      </trkpt>
      <trkpt lat="45.87838" lon="1.35768">
        <ele>276.1</ele>
        <time>2022-08-01T07:31:47Z</time>
      </trkpt>
      <trkpt lat="45.87839" lon="1.35783">
        <ele>276.5</ele>
        <time>2022-08-01T07:31:49Z</time>
      </trkpt>
      <trkpt lat="45.8784" lon="1.35799">
        <ele>277</ele>
        <time>2022-08-01T07:31:51Z</time>
      </trkpt>
      <trkpt lat="45.87842" lon="1.35815">
        <ele>277.5</ele>
        <time>2022-08-01T07:31:53Z</time>
      </trkpt>
      <trkpt lat="45.87844" lon="1.3583">
        <ele>278</ele>
        <time>2022-08-01T07:31:55Z</time>
      </trkpt>
      <trkpt lat="45.87846" lon="1.35846">
        <ele>277.6</ele>
        <time>2022-08-01T07:31:57Z</time>
      </trkpt>
      <trkpt lat="45.87849" lon="1.35862">
        <ele>277</ele>
        <time>2022-08-01T07:31:59Z</time>
      </trkpt>
      <trkpt lat="45.87852" lon="1.35879">
        <ele>276.3</ele>
        <time>2022-08-01T07:32:01Z</time>
      </trkpt>
      <trkpt lat="45.87855" lon="1.35897">
        <ele>275.6</ele>
        <time>2022-08-01T07:32:03Z</time>
      </trkpt>
      <trkpt lat="45.87858" lon="1.35915">
        <ele>274.9</ele>
        <time>2022-08-01T07:32:05Z</time>
      </trkpt>
      <trkpt lat="45.87861" lon="1.35934">
        <ele>274.1</ele>
        <time>2022-08-01T07:32:07Z</time>
      </trkpt>
      <trkpt lat="45.87865" lon="1.35953">
        <ele>273.3</ele>
        <time>2022-08-01T07:32:09Z</time>
      </trkpt>
      <trkpt lat="45.87869" lon="1.35974">
        <ele>272.4</ele>
        <time>2022-08-01T07:32:11Z</time>
      </trkpt>
      <trkpt lat="45.87874" lon="1.35995">
        <ele>271.7</ele>
        <time>2022-08-01T07:32:13Z</time>
      </trkpt>
      <trkpt lat="45.87878" lon="1.36017">
        <ele>271.1</ele>
        <time>2022-08-01T07:32:15Z</time>
      </trkpt>
      <trkpt lat="45.87882" lon="1.3604">
        <ele>270.5</ele>
        <time>2022-08-01T07:32:17Z</time>
      </trkpt>
      <trkpt lat="45.87886" lon="1.36062">
        <ele>270.2</ele>
        <time>2022-08-01T07:32:19Z</time>
      </trkpt>
      <trkpt lat="45.87891" lon="1.36082">
        <ele>269.9</ele>
        <time>2022-08-01T07:32:21Z</time>
      </trkpt>
      <trkpt lat="45.87894" lon="1.36102">
        <ele>270.3</ele>
        <time>2022-08-01T07:32:23Z</time>
      </trkpt>
      <trkpt lat="45.87898" lon="1.3612">
        <ele>270.8</ele>
        <time>2022-08-01T07:32:25Z</time>
      </trkpt>
      <trkpt lat="45.87901" lon="1.36138">
        <ele>271.2</ele>
        <time>2022-08-01T07:32:27Z</time>
      </trkpt>
      <trkpt lat="45.87904" lon="1.36155">
        <ele>271.6</ele>
        <time>2022-08-01T07:32:29Z</time>
      </trkpt>
      <trkpt lat="45.87907" lon="1.36171">
        <ele>272</ele>
        <time>2022-08-01T07:32:31Z</time>
      </trkpt>
      <trkpt lat="45.87909" lon="1.36187">
        <ele>272.5</ele>
        <time>2022-08-01T07:32:33Z</time>
      </trkpt>
      <trkpt lat="45.87912" lon="1.36201">
        <ele>273</ele>
        <time>2022-08-01T07:32:35Z</time>
      </trkpt>
      <trkpt lat="45.87915" lon="1.36215">
        <ele>273.4</ele>
        <time>2022-08-01T07:32:37Z</time>
      </trkpt>
      <trkpt lat="45.87917" lon="1.36229">
        <ele>273.8</ele>
        <time>2022-08-01T07:32:39Z</time>
      </trkpt>
      <trkpt lat="45.8792" lon="1.36243">
        <ele>274</ele>
        <time>2022-08-01T07:32:41Z</time>
      </trkpt>
      <trkpt lat="45.87922" lon="1.36256">
        <ele>274.1</ele>
        <time>2022-08-01T07:32:43Z</time>
      </trkpt>
      <trkpt lat="45.87924" lon="1.36269">
        <ele>273.8</ele>
        <time>2022-08-01T07:32:45Z</time>
      </trkpt>
      <trkpt lat="45.87925" lon="1.36281">
        <ele>273.6</ele>
        <time>2022-08-01T07:32:47Z</time>
      </trkpt>
      <trkpt lat="45.87926" lon="1.36294">
        <ele>273.3</ele>
        <time>2022-08-01T07:32:49Z</time>
      </trkpt>
      <trkpt lat="45.87926" lon="1.36307">
        <ele>273</ele>
        <time>2022-08-01T07:32:51Z</time>
      </trkpt>
      <trkpt lat="45.87925" lon="1.3632">
        <ele>272.7</ele>
        <time>2022-08-01T07:32:53Z</time>
      </trkpt>
      <trkpt lat="45.87924" lon="1.36333">
        <ele>272.4</ele>
        <time>2022-08-01T07:32:55Z</time>
      </trkpt>
      <trkpt lat="45.87924" lon="1.36346">
        <ele>272.3</ele>
        <time>2022-08-01T07:32:57Z</time>
      </trkpt>
      <trkpt lat="45.87924" lon="1.36359">
        <ele>272.3</ele>
        <time>2022-08-01T07:32:59Z</time>
      </trkpt>
      <trkpt lat="45.87923" lon="1.36372">
        <ele>272.3</ele>
        <time>2022-08-01T07:33:01Z</time>
      </trkpt>
      <trkpt lat="45.87922" lon="1.36386">
        <ele>272.2</ele>
        <time>2022-08-01T07:33:03Z</time>
      </trkpt>
      <trkpt lat="45.87921" lon="1.36399">
        <ele>272.2</ele>
        <time>2022-08-01T07:33:05Z</time>
      </trkpt>
      <trkpt lat="45.8792" lon="1.36412">
        <ele>272.1</ele>
        <time>2022-08-01T07:33:07Z</time>
      </trkpt>
      <trkpt lat="45.87919" lon="1.36424">
        <ele>272.3</ele>
        <time>2022-08-01T07:33:09Z</time>
      </trkpt>
      <trkpt lat="45.87918" lon="1.36437">
        <ele>272.5</ele>
        <time>2022-08-01T07:33:11Z</time>
      </trkpt>
      <trkpt lat="45.87917" lon="1.36451">
        <ele>272.8</ele>
        <time>2022-08-01T07:33:13Z</time>
      </trkpt>
      <trkpt lat="45.87916" lon="1.36464">
        <ele>273.1</ele>
        <time>2022-08-01T07:33:15Z</time>
      </trkpt>
      <trkpt lat="45.87915" lon="1.36477">
        <ele>273.3</ele>
        <time>2022-08-01T07:33:17Z</time>
      </trkpt>
      <trkpt lat="45.87914" lon="1.36491">
        <ele>273.6</ele>
        <time>2022-08-01T07:33:19Z</time>
      </trkpt>
      <trkpt lat="45.87913" lon="1.36504">
        <ele>274</ele>
        <time>2022-08-01T07:33:21Z</time>
      </trkpt>
      <trkpt lat="45.87912" lon="1.36518">
        <ele>274.5</ele>
        <time>2022-08-01T07:33:23Z</time>
      </trkpt>
      <trkpt lat="45.87911" lon="1.36531">
        <ele>275.1</ele>
        <time>2022-08-01T07:33:25Z</time>
      </trkpt>
      <trkpt lat="45.8791" lon="1.36545">
        <ele>275.7</ele>
        <time>2022-08-01T07:33:27Z</time>
      </trkpt>
      <trkpt lat="45.8791" lon="1.36558">
        <ele>276.2</ele>
        <time>2022-08-01T07:33:29Z</time>
      </trkpt>
      <trkpt lat="45.87909" lon="1.36572">
        <ele>276.8</ele>
        <time>2022-08-01T07:33:31Z</time>
      </trkpt>
      <trkpt lat="45.87908" lon="1.36585">
        <ele>277.3</ele>
        <time>2022-08-01T07:33:33Z</time>
      </trkpt>
      <trkpt lat="45.87908" lon="1.36598">
        <ele>277.3</ele>
        <time>2022-08-01T07:33:35Z</time>
      </trkpt>
      <trkpt lat="45.87907" lon="1.36611">
        <ele>277.3</ele>
        <time>2022-08-01T07:33:37Z</time>
      </trkpt>
      <trkpt lat="45.87906" lon="1.36623">
        <ele>277.2</ele>
        <time>2022-08-01T07:33:39Z</time>
      </trkpt>
      <trkpt lat="45.87905" lon="1.36635">
        <ele>277.2</ele>
        <time>2022-08-01T07:33:41Z</time>
      </trkpt>
      <trkpt lat="45.87904" lon="1.36647">
        <ele>277.2</ele>
        <time>2022-08-01T07:33:43Z</time>
      </trkpt>
      <trkpt lat="45.87903" lon="1.36659">
        <ele>277.2</ele>
        <time>2022-08-01T07:33:45Z</time>
      </trkpt>
      <trkpt lat="45.87902" lon="1.36671">
        <ele>277</ele>
        <time>2022-08-01T07:33:47Z</time>
      </trkpt>
      <trkpt lat="45.87902" lon="1.36685">
        <ele>276.4</ele>
        <time>2022-08-01T07:33:49Z</time>
      </trkpt>
      <trkpt lat="45.87901" lon="1.36699">
        <ele>275.8</ele>
        <time>2022-08-01T07:33:51Z</time>
      </trkpt>
      <trkpt lat="45.879" lon="1.36715">
        <ele>275.1</ele>
        <time>2022-08-01T07:33:53Z</time>
      </trkpt>
      <trkpt lat="45.87899" lon="1.36732">
        <ele>274.5</ele>
        <time>2022-08-01T07:33:55Z</time>
      </trkpt>
      <trkpt lat="45.87897" lon="1.36751">
        <ele>273.7</ele>
        <time>2022-08-01T07:33:57Z</time>
      </trkpt>
      <trkpt lat="45.87896" lon="1.36771">
        <ele>273</ele>
        <time>2022-08-01T07:33:59Z</time>
      </trkpt>
      <trkpt lat="45.87894" lon="1.36792">
        <ele>272.2</ele>
        <time>2022-08-01T07:34:01Z</time>
      </trkpt>
      <trkpt lat="45.87893" lon="1.36814">
        <ele>271.4</ele>
        <time>2022-08-01T07:34:03Z</time>
      </trkpt>
      <trkpt lat="45.87892" lon="1.36837">
        <ele>270.5</ele>
        <time>2022-08-01T07:34:05Z</time>
      </trkpt>
      <trkpt lat="45.87891" lon="1.36861">
        <ele>269.2</ele>
        <time>2022-08-01T07:34:07Z</time>
      </trkpt>
      <trkpt lat="45.87889" lon="1.36885">
        <ele>268</ele>
        <time>2022-08-01T07:34:09Z</time>
      </trkpt>
      <trkpt lat="45.87887" lon="1.3691">
        <ele>266.7</ele>
        <time>2022-08-01T07:34:11Z</time>
      </trkpt>
      <trkpt lat="45.87886" lon="1.36936">
        <ele>265.3</ele>
        <time>2022-08-01T07:34:13Z</time>
      </trkpt>
      <trkpt lat="45.87884" lon="1.36963">
        <ele>263.9</ele>
        <time>2022-08-01T07:34:15Z</time>
      </trkpt>
      <trkpt lat="45.87883" lon="1.36992">
        <ele>262.4</ele>
        <time>2022-08-01T07:34:17Z</time>
      </trkpt>
      <trkpt lat="45.87881" lon="1.3702">
        <ele>262</ele>
        <time>2022-08-01T07:34:19Z</time>
      </trkpt>
      <trkpt lat="45.8788" lon="1.37048">
        <ele>262.2</ele>
        <time>2022-08-01T07:34:21Z</time>
      </trkpt>
      <trkpt lat="45.8788" lon="1.37075">
        <ele>262.5</ele>
        <time>2022-08-01T07:34:23Z</time>
      </trkpt>
      <trkpt lat="45.87881" lon="1.37101">
        <ele>263</ele>
        <time>2022-08-01T07:34:25Z</time>
      </trkpt>
      <trkpt lat="45.87884" lon="1.37125">
        <ele>263.6</ele>
        <time>2022-08-01T07:34:27Z</time>
      </trkpt>
      <trkpt lat="45.87888" lon="1.37148">
        <ele>264.2</ele>
        <time>2022-08-01T07:34:29Z</time>
      </trkpt>
      <trkpt lat="45.87893" lon="1.37168">
        <ele>264.7</ele>
        <time>2022-08-01T07:34:31Z</time>
      </trkpt>
      <trkpt lat="45.87898" lon="1.37186">
        <ele>264.8</ele>
        <time>2022-08-01T07:34:33Z</time>
      </trkpt>
      <trkpt lat="45.87904" lon="1.37203">
        <ele>264.9</ele>
        <time>2022-08-01T07:34:35Z</time>
      </trkpt>
      <trkpt lat="45.8791" lon="1.37218">
        <ele>265</ele>
        <time>2022-08-01T07:34:37Z</time>
      </trkpt>
      <trkpt lat="45.87916" lon="1.37232">
        <ele>265</ele>
        <time>2022-08-01T07:34:39Z</time>
      </trkpt>
      <trkpt lat="45.8792" lon="1.37246">
        <ele>265</ele>
        <time>2022-08-01T07:34:41Z</time>
      </trkpt>
      <trkpt lat="45.87924" lon="1.37258">
        <ele>265.3</ele>
        <time>2022-08-01T07:34:43Z</time>
      </trkpt>
      <trkpt lat="45.87928" lon="1.3727">
        <ele>265.6</ele>
        <time>2022-08-01T07:34:45Z</time>
      </trkpt>
      <trkpt lat="45.87932" lon="1.37281">
        <ele>266</ele>
        <time>2022-08-01T07:34:47Z</time>
      </trkpt>
      <trkpt lat="45.87936" lon="1.37291">
        <ele>266.3</ele>
        <time>2022-08-01T07:34:49Z</time>
      </trkpt>
      <trkpt lat="45.87939" lon="1.37301">
        <ele>266.7</ele>
        <time>2022-08-01T07:34:51Z</time>
      </trkpt>
      <trkpt lat="45.87943" lon="1.3731">
        <ele>267</ele>
        <time>2022-08-01T07:34:53Z</time>
      </trkpt>
      <trkpt lat="45.87946" lon="1.3732">
        <ele>267.3</ele>
        <time>2022-08-01T07:34:55Z</time>
      </trkpt>
      <trkpt lat="45.87949" lon="1.3733">
        <ele>267.7</ele>
        <time>2022-08-01T07:34:57Z</time>
      </trkpt>
      <trkpt lat="45.87952" lon="1.37339">
        <ele>268</ele>
        <time>2022-08-01T07:34:59Z</time>
      </trkpt>
      <trkpt lat="45.87956" lon="1.37348">
        <ele>268.2</ele>
        <time>2022-08-01T07:35:01Z</time>
      </trkpt>
      <trkpt lat="45.87959" lon="1.37357">
        <ele>268.4</ele>
        <time>2022-08-01T07:35:03Z</time>
      </trkpt>
      <trkpt lat="45.87962" lon="1.37366">
        <ele>268.7</ele>
        <time>2022-08-01T07:35:05Z</time>
      </trkpt>
      <trkpt lat="45.87965" lon="1.37375">
        <ele>268.9</ele>
        <time>2022-08-01T07:35:07Z</time>
      </trkpt>
      <trkpt lat="45.87968" lon="1.37384">
        <ele>269.1</ele>
        <time>2022-08-01T07:35:09Z</time>
      </trkpt>
      <trkpt lat="45.87971" lon="1.37393">
        <ele>269.3</ele>
        <time>2022-08-01T07:35:11Z</time>
      </trkpt>
      <trkpt lat="45.87975" lon="1.37402">
        <ele>269.5</ele>
        <time>2022-08-01T07:35:13Z</time>
      </trkpt>
      <trkpt lat="45.87977" lon="1.3741">
        <ele>269.6</ele>
        <time>2022-08-01T07:35:15Z</time>
      </trkpt>
      <trkpt lat="45.8798" lon="1.37418">
        <ele>269.8</ele>
        <time>2022-08-01T07:35:17Z</time>
      </trkpt>
      <trkpt lat="45.87983" lon="1.37426">
        <ele>270</ele>
        <time>2022-08-01T07:35:19Z</time>
      </trkpt>
      <trkpt lat="45.87987" lon="1.37435">
        <ele>270.2</ele>
        <time>2022-08-01T07:35:21Z</time>
      </trkpt>
      <trkpt lat="45.8799" lon="1.37443">
        <ele>270.5</ele>
        <time>2022-08-01T07:35:23Z</time>
      </trkpt>
      <trkpt lat="45.87992" lon="1.37451">
        <ele>270.7</ele>
        <time>2022-08-01T07:35:25Z</time>
      </trkpt>
      <trkpt lat="45.87995" lon="1.37459">
        <ele>270.9</ele>
        <time>2022-08-01T07:35:27Z</time>
      </trkpt>
      <trkpt lat="45.87998" lon="1.37466">
        <ele>271.2</ele>
        <time>2022-08-01T07:35:29Z</time>
      </trkpt>
      <trkpt lat="45.88001" lon="1.37474">
        <ele>271.4</ele>
        <time>2022-08-01T07:35:31Z</time>
      </trkpt>
      <trkpt lat="45.88004" lon="1.37482">
        <ele>271.7</ele>
        <time>2022-08-01T07:35:33Z</time>
      </trkpt>
      <trkpt lat="45.88007" lon="1.3749">
        <ele>271.9</ele>
        <time>2022-08-01T07:35:35Z</time>
      </trkpt>
      <trkpt lat="45.8801" lon="1.37498">
        <ele>272.2</ele>
        <time>2022-08-01T07:35:37Z</time>
      </trkpt>
      <trkpt lat="45.88012" lon="1.37506">
        <ele>272.4</ele>
        <time>2022-08-01T07:35:39Z</time>
      </trkpt>
      <trkpt lat="45.88015" lon="1.37513">
        <ele>272.5</ele>
        <time>2022-08-01T07:35:41Z</time>
      </trkpt>
      <trkpt lat="45.88017" lon="1.37521">
        <ele>272.7</ele>
        <time>2022-08-01T07:35:43Z</time>
      </trkpt>
      <trkpt lat="45.88021" lon="1.37528">
        <ele>272.8</ele>
        <time>2022-08-01T07:35:45Z</time>
      </trkpt>
      <trkpt lat="45.88023" lon="1.37535">
        <ele>273</ele>
        <time>2022-08-01T07:35:47Z</time>
      </trkpt>
      <trkpt lat="45.88026" lon="1.37543">
        <ele>273.1</ele>
        <time>2022-08-01T07:35:49Z</time>
      </trkpt>
      <trkpt lat="45.88029" lon="1.37551">
        <ele>273.3</ele>
        <time>2022-08-01T07:35:51Z</time>
      </trkpt>
      <trkpt lat="45.88032" lon="1.37558">
        <ele>273.5</ele>
        <time>2022-08-01T07:35:53Z</time>
      </trkpt>
      <trkpt lat="45.88034" lon="1.37566">
        <ele>273.6</ele>
        <time>2022-08-01T07:35:55Z</time>
      </trkpt>
      <trkpt lat="45.88037" lon="1.37573">
        <ele>273.8</ele>
        <time>2022-08-01T07:35:57Z</time>
      </trkpt>
      <trkpt lat="45.88041" lon="1.3758">
        <ele>273.9</ele>
        <time>2022-08-01T07:35:59Z</time>
      </trkpt>
      <trkpt lat="45.88044" lon="1.37587">
        <ele>274</ele>
        <time>2022-08-01T07:36:01Z</time>
      </trkpt>
      <trkpt lat="45.88047" lon="1.37595">
        <ele>274</ele>
        <time>2022-08-01T07:36:03Z</time>
      </trkpt>
      <trkpt lat="45.88049" lon="1.37603">
        <ele>273.9</ele>
        <time>2022-08-01T07:36:05Z</time>
      </trkpt>
      <trkpt lat="45.88052" lon="1.37611">
        <ele>273.9</ele>
        <time>2022-08-01T07:36:07Z</time>
      </trkpt>
      <trkpt lat="45.88055" lon="1.3762">
        <ele>273.9</ele>
        <time>2022-08-01T07:36:09Z</time>
      </trkpt>
      <trkpt lat="45.88058" lon="1.37629">
        <ele>273.9</ele>
        <time>2022-08-01T07:36:11Z</time>
      </trkpt>
      <trkpt lat="45.88062" lon="1.37639">
        <ele>273.8</ele>
        <time>2022-08-01T07:36:13Z</time>
      </trkpt>
      <trkpt lat="45.88066" lon="1.37649">
        <ele>273.8</ele>
        <time>2022-08-01T07:36:15Z</time>
      </trkpt>
      <trkpt lat="45.8807" lon="1.37659">
        <ele>273.8</ele>
        <time>2022-08-01T07:36:17Z</time>
      </trkpt>
      <trkpt lat="45.88074" lon="1.37671">
        <ele>273.7</ele>
        <time>2022-08-01T07:36:19Z</time>
      </trkpt>
      <trkpt lat="45.88077" lon="1.37682">
        <ele>273.5</ele>
        <time>2022-08-01T07:36:21Z</time>
      </trkpt>
      <trkpt lat="45.88081" lon="1.37694">
        <ele>273.3</ele>
        <time>2022-08-01T07:36:23Z</time>
      </trkpt>
      <trkpt lat="45.88084" lon="1.37707">
        <ele>273.1</ele>
        <time>2022-08-01T07:36:25Z</time>
      </trkpt>
      <trkpt lat="45.88088" lon="1.3772">
        <ele>272.8</ele>
        <time>2022-08-01T07:36:27Z</time>
      </trkpt>
      <trkpt lat="45.88091" lon="1.37734">
        <ele>272.6</ele>
        <time>2022-08-01T07:36:29Z</time>
      </trkpt>
      <trkpt lat="45.88094" lon="1.37749">
        <ele>272.3</ele>
        <time>2022-08-01T07:36:31Z</time>
      </trkpt>
      <trkpt lat="45.88097" lon="1.37763">
        <ele>272.3</ele>
        <time>2022-08-01T07:36:33Z</time>
      </trkpt>
      <trkpt lat="45.881" lon="1.37779">
        <ele>272.2</ele>
        <time>2022-08-01T07:36:35Z</time>
      </trkpt>
      <trkpt lat="45.88103" lon="1.37796">
        <ele>272.1</ele>
        <time>2022-08-01T07:36:37Z</time>
      </trkpt>
      <trkpt lat="45.88106" lon="1.37813">
        <ele>271.9</ele>
        <time>2022-08-01T07:36:39Z</time>
      </trkpt>
      <trkpt lat="45.88109" lon="1.37832">
        <ele>271.7</ele>
        <time>2022-08-01T07:36:41Z</time>
      </trkpt>
      <trkpt lat="45.88111" lon="1.3785">
        <ele>271.1</ele>
        <time>2022-08-01T07:36:43Z</time>
      </trkpt>
      <trkpt lat="45.88114" lon="1.37869">
        <ele>270.5</ele>
        <time>2022-08-01T07:36:45Z</time>
      </trkpt>
      <trkpt lat="45.88116" lon="1.37888">
        <ele>269.9</ele>
        <time>2022-08-01T07:36:47Z</time>
      </trkpt>
      <trkpt lat="45.88119" lon="1.37907">
        <ele>269.3</ele>
        <time>2022-08-01T07:36:49Z</time>
      </trkpt>
      <trkpt lat="45.88121" lon="1.37927">
        <ele>269</ele>
        <time>2022-08-01T07:36:51Z</time>
      </trkpt>
      <trkpt lat="45.88125" lon="1.37947">
        <ele>269</ele>
        <time>2022-08-01T07:36:53Z</time>
      </trkpt>
      <trkpt lat="45.88128" lon="1.37968">
        <ele>269</ele>
        <time>2022-08-01T07:36:55Z</time>
      </trkpt>
      <trkpt lat="45.88131" lon="1.37991">
        <ele>269.1</ele>
        <time>2022-08-01T07:36:57Z</time>
      </trkpt>
      <trkpt lat="45.88134" lon="1.38013">
        <ele>269.2</ele>
        <time>2022-08-01T07:36:59Z</time>
      </trkpt>
      <trkpt lat="45.88137" lon="1.38035">
        <ele>269.3</ele>
        <time>2022-08-01T07:37:01Z</time>
      </trkpt>
      <trkpt lat="45.8814" lon="1.38057">
        <ele>269.3</ele>
        <time>2022-08-01T07:37:03Z</time>
      </trkpt>
      <trkpt lat="45.88142" lon="1.38078">
        <ele>269.4</ele>
        <time>2022-08-01T07:37:05Z</time>
      </trkpt>
      <trkpt lat="45.88144" lon="1.38099">
        <ele>269.4</ele>
        <time>2022-08-01T07:37:07Z</time>
      </trkpt>
      <trkpt lat="45.88147" lon="1.3812">
        <ele>269.4</ele>
        <time>2022-08-01T07:37:09Z</time>
      </trkpt>
      <trkpt lat="45.88149" lon="1.38139">
        <ele>269.4</ele>
        <time>2022-08-01T07:37:11Z</time>
      </trkpt>
      <trkpt lat="45.88152" lon="1.38158">
        <ele>269.5</ele>
        <time>2022-08-01T07:37:13Z</time>
      </trkpt>
      <trkpt lat="45.88155" lon="1.38175">
        <ele>269.7</ele>
        <time>2022-08-01T07:37:15Z</time>
      </trkpt>
      <trkpt lat="45.88157" lon="1.38191">
        <ele>269.9</ele>
        <time>2022-08-01T07:37:17Z</time>
      </trkpt>
      <trkpt lat="45.88158" lon="1.38207">
        <ele>270.1</ele>
        <time>2022-08-01T07:37:19Z</time>
      </trkpt>
      <trkpt lat="45.88159" lon="1.38221">
        <ele>270.3</ele>
        <time>2022-08-01T07:37:21Z</time>
      </trkpt>
      <trkpt lat="45.88162" lon="1.38235">
        <ele>270.6</ele>
        <time>2022-08-01T07:37:23Z</time>
      </trkpt>
      <trkpt lat="45.88163" lon="1.38248">
        <ele>270.8</ele>
        <time>2022-08-01T07:37:25Z</time>
      </trkpt>
      <trkpt lat="45.88165" lon="1.38261">
        <ele>270.8</ele>
        <time>2022-08-01T07:37:27Z</time>
      </trkpt>
      <trkpt lat="45.88166" lon="1.38273">
        <ele>270.7</ele>
        <time>2022-08-01T07:37:29Z</time>
      </trkpt>
      <trkpt lat="45.88168" lon="1.38285">
        <ele>270.6</ele>
        <time>2022-08-01T07:37:31Z</time>
      </trkpt>
      <trkpt lat="45.88169" lon="1.38296">
        <ele>270.6</ele>
        <time>2022-08-01T07:37:33Z</time>
      </trkpt>
      <trkpt lat="45.88171" lon="1.38306">
        <ele>270.6</ele>
        <time>2022-08-01T07:37:35Z</time>
      </trkpt>
      <trkpt lat="45.88173" lon="1.38318">
        <ele>270.7</ele>
        <time>2022-08-01T07:37:37Z</time>
      </trkpt>
      <trkpt lat="45.88174" lon="1.38328">
        <ele>270.7</ele>
        <time>2022-08-01T07:37:39Z</time>
      </trkpt>
      <trkpt lat="45.88175" lon="1.38338">
        <ele>270.7</ele>
        <time>2022-08-01T07:37:41Z</time>
      </trkpt>
      <trkpt lat="45.88178" lon="1.38348">
        <ele>270.7</ele>
        <time>2022-08-01T07:37:43Z</time>
      </trkpt>
      <trkpt lat="45.88181" lon="1.38358">
        <ele>270.9</ele>
        <time>2022-08-01T07:37:45Z</time>
      </trkpt>
      <trkpt lat="45.88184" lon="1.38368">
        <ele>271.1</ele>
        <time>2022-08-01T07:37:47Z</time>
      </trkpt>
      <trkpt lat="45.88188" lon="1.3838">
        <ele>271.3</ele>
        <time>2022-08-01T07:37:49Z</time>
      </trkpt>
      <trkpt lat="45.88192" lon="1.38391">
        <ele>271.5</ele>
        <time>2022-08-01T07:37:51Z</time>
      </trkpt>
      <trkpt lat="45.88197" lon="1.38403">
        <ele>271.7</ele>
        <time>2022-08-01T07:37:53Z</time>
      </trkpt>
      <trkpt lat="45.88202" lon="1.38417">
        <ele>272</ele>
        <time>2022-08-01T07:37:55Z</time>
      </trkpt>
      <trkpt lat="45.88207" lon="1.3843">
        <ele>271.9</ele>
        <time>2022-08-01T07:37:57Z</time>
      </trkpt>
      <trkpt lat="45.88213" lon="1.38443">
        <ele>271.9</ele>
        <time>2022-08-01T07:37:59Z</time>
      </trkpt>
      <trkpt lat="45.88219" lon="1.38457">
        <ele>271.8</ele>
        <time>2022-08-01T07:38:01Z</time>
      </trkpt>
      <trkpt lat="45.88224" lon="1.38471">
        <ele>271.6</ele>
        <time>2022-08-01T07:38:03Z</time>
      </trkpt>
      <trkpt lat="45.8823" lon="1.38485">
        <ele>271.4</ele>
        <time>2022-08-01T07:38:05Z</time>
      </trkpt>
      <trkpt lat="45.88235" lon="1.38498">
        <ele>271.2</ele>
        <time>2022-08-01T07:38:07Z</time>
      </trkpt>
      <trkpt lat="45.88241" lon="1.38513">
        <ele>270.9</ele>
        <time>2022-08-01T07:38:09Z</time>
      </trkpt>
      <trkpt lat="45.88246" lon="1.38526">
        <ele>270.5</ele>
        <time>2022-08-01T07:38:11Z</time>
      </trkpt>
      <trkpt lat="45.88251" lon="1.38539">
        <ele>270.2</ele>
        <time>2022-08-01T07:38:13Z</time>
      </trkpt>
      <trkpt lat="45.88256" lon="1.38551">
        <ele>269.8</ele>
        <time>2022-08-01T07:38:15Z</time>
      </trkpt>
      <trkpt lat="45.88261" lon="1.38564">
        <ele>269.4</ele>
        <time>2022-08-01T07:38:17Z</time>
      </trkpt>
      <trkpt lat="45.88266" lon="1.38577">
        <ele>268.9</ele>
        <time>2022-08-01T07:38:19Z</time>
      </trkpt>
      <trkpt lat="45.88272" lon="1.38591">
        <ele>268.3</ele>
        <time>2022-08-01T07:38:21Z</time>
      </trkpt>
      <trkpt lat="45.88277" lon="1.38604">
        <ele>267.6</ele>
        <time>2022-08-01T07:38:23Z</time>
      </trkpt>
      <trkpt lat="45.88283" lon="1.38619">
        <ele>266.9</ele>
        <time>2022-08-01T07:38:25Z</time>
      </trkpt>
      <trkpt lat="45.8829" lon="1.38636">
        <ele>266.2</ele>
        <time>2022-08-01T07:38:27Z</time>
      </trkpt>
      <trkpt lat="45.88297" lon="1.38652">
        <ele>265.7</ele>
        <time>2022-08-01T07:38:29Z</time>
      </trkpt>
      <trkpt lat="45.88304" lon="1.38669">
        <ele>265.3</ele>
        <time>2022-08-01T07:38:31Z</time>
      </trkpt>
      <trkpt lat="45.88311" lon="1.38688">
        <ele>264.6</ele>
        <time>2022-08-01T07:38:33Z</time>
      </trkpt>
      <trkpt lat="45.88318" lon="1.38705">
        <ele>263.7</ele>
        <time>2022-08-01T07:38:35Z</time>
      </trkpt>
      <trkpt lat="45.88325" lon="1.38725">
        <ele>262.6</ele>
        <time>2022-08-01T07:38:37Z</time>
      </trkpt>
      <trkpt lat="45.88331" lon="1.38743">
        <ele>261.4</ele>
        <time>2022-08-01T07:38:39Z</time>
      </trkpt>
      <trkpt lat="45.88337" lon="1.38762">
        <ele>260.4</ele>
        <time>2022-08-01T07:38:41Z</time>
      </trkpt>
      <trkpt lat="45.88345" lon="1.38779">
        <ele>259.7</ele>
        <time>2022-08-01T07:38:43Z</time>
      </trkpt>
      <trkpt lat="45.88352" lon="1.38797">
        <ele>259</ele>
        <time>2022-08-01T07:38:45Z</time>
      </trkpt>
      <trkpt lat="45.8836" lon="1.38815">
        <ele>258.4</ele>
        <time>2022-08-01T07:38:47Z</time>
      </trkpt>
      <trkpt lat="45.88367" lon="1.38834">
        <ele>257.8</ele>
        <time>2022-08-01T07:38:49Z</time>
      </trkpt>
      <trkpt lat="45.88376" lon="1.38854">
        <ele>257.2</ele>
        <time>2022-08-01T07:38:51Z</time>
      </trkpt>
      <trkpt lat="45.88384" lon="1.38873">
        <ele>256.5</ele>
        <time>2022-08-01T07:38:53Z</time>
      </trkpt>
      <trkpt lat="45.88392" lon="1.38892">
        <ele>255.9</ele>
        <time>2022-08-01T07:38:55Z</time>
      </trkpt>
      <trkpt lat="45.884" lon="1.3891">
        <ele>255.3</ele>
        <time>2022-08-01T07:38:57Z</time>
      </trkpt>
      <trkpt lat="45.88409" lon="1.38926">
        <ele>254.4</ele>
        <time>2022-08-01T07:38:59Z</time>
      </trkpt>
      <trkpt lat="45.8842" lon="1.38943">
        <ele>253.2</ele>
        <time>2022-08-01T07:39:01Z</time>
      </trkpt>
      <trkpt lat="45.88431" lon="1.38958">
        <ele>251.8</ele>
        <time>2022-08-01T07:39:03Z</time>
      </trkpt>
      <trkpt lat="45.88442" lon="1.38974">
        <ele>250.4</ele>
        <time>2022-08-01T07:39:05Z</time>
      </trkpt>
      <trkpt lat="45.88454" lon="1.38989">
        <ele>249</ele>
        <time>2022-08-01T07:39:07Z</time>
      </trkpt>
      <trkpt lat="45.88464" lon="1.39004">
        <ele>247.8</ele>
        <time>2022-08-01T07:39:09Z</time>
      </trkpt>
      <trkpt lat="45.88477" lon="1.39018">
        <ele>247.1</ele>
        <time>2022-08-01T07:39:11Z</time>
      </trkpt>
      <trkpt lat="45.88489" lon="1.39031">
        <ele>246.5</ele>
        <time>2022-08-01T07:39:13Z</time>
      </trkpt>
      <trkpt lat="45.88503" lon="1.39042">
        <ele>246.2</ele>
        <time>2022-08-01T07:39:15Z</time>
      </trkpt>
      <trkpt lat="45.88516" lon="1.39051">
        <ele>246.7</ele>
        <time>2022-08-01T07:39:17Z</time>
      </trkpt>
      <trkpt lat="45.8853" lon="1.3906">
        <ele>247.2</ele>
        <time>2022-08-01T07:39:19Z</time>
      </trkpt>
      <trkpt lat="45.88542" lon="1.3907">
        <ele>247.6</ele>
        <time>2022-08-01T07:39:21Z</time>
      </trkpt>
      <trkpt lat="45.88555" lon="1.3908">
        <ele>247.9</ele>
        <time>2022-08-01T07:39:23Z</time>
      </trkpt>
      <trkpt lat="45.88568" lon="1.39089">
        <ele>248.2</ele>
        <time>2022-08-01T07:39:25Z</time>
      </trkpt>
      <trkpt lat="45.8858" lon="1.39097">
        <ele>248.3</ele>
        <time>2022-08-01T07:39:27Z</time>
      </trkpt>
      <trkpt lat="45.88592" lon="1.39106">
        <ele>248.5</ele>
        <time>2022-08-01T07:39:29Z</time>
      </trkpt>
      <trkpt lat="45.88603" lon="1.39116">
        <ele>248.6</ele>
        <time>2022-08-01T07:39:31Z</time>
      </trkpt>
      <trkpt lat="45.88613" lon="1.39127">
        <ele>248.5</ele>
        <time>2022-08-01T07:39:33Z</time>
      </trkpt>
      <trkpt lat="45.88622" lon="1.39141">
        <ele>247.8</ele>
        <time>2022-08-01T07:39:35Z</time>
      </trkpt>
      <trkpt lat="45.88631" lon="1.39155">
        <ele>246.9</ele>
        <time>2022-08-01T07:39:37Z</time>
      </trkpt>
      <trkpt lat="45.88637" lon="1.3917">
        <ele>245.9</ele>
        <time>2022-08-01T07:39:39Z</time>
      </trkpt>
      <trkpt lat="45.88643" lon="1.39186">
        <ele>245.2</ele>
        <time>2022-08-01T07:39:41Z</time>
      </trkpt>
      <trkpt lat="45.88649" lon="1.39202">
        <ele>244.5</ele>
        <time>2022-08-01T07:39:43Z</time>
      </trkpt>
      <trkpt lat="45.88655" lon="1.39217">
        <ele>243.8</ele>
        <time>2022-08-01T07:39:45Z</time>
      </trkpt>
      <trkpt lat="45.88661" lon="1.39232">
        <ele>243.1</ele>
        <time>2022-08-01T07:39:47Z</time>
      </trkpt>
      <trkpt lat="45.88667" lon="1.39247">
        <ele>242.3</ele>
        <time>2022-08-01T07:39:49Z</time>
      </trkpt>
      <trkpt lat="45.88674" lon="1.39263">
        <ele>242.6</ele>
        <time>2022-08-01T07:39:51Z</time>
      </trkpt>
      <trkpt lat="45.8868" lon="1.39279">
        <ele>242.8</ele>
        <time>2022-08-01T07:39:53Z</time>
      </trkpt>
      <trkpt lat="45.88687" lon="1.39295">
        <ele>243.2</ele>
        <time>2022-08-01T07:39:55Z</time>
      </trkpt>
      <trkpt lat="45.88694" lon="1.39313">
        <ele>243.4</ele>
        <time>2022-08-01T07:39:57Z</time>
      </trkpt>
      <trkpt lat="45.88702" lon="1.3933">
        <ele>243.7</ele>
        <time>2022-08-01T07:39:59Z</time>
      </trkpt>
      <trkpt lat="45.88708" lon="1.39347">
        <ele>243.6</ele>
        <time>2022-08-01T07:40:01Z</time>
      </trkpt>
      <trkpt lat="45.88712" lon="1.39361">
        <ele>243.2</ele>
        <time>2022-08-01T07:40:03Z</time>
      </trkpt>
      <trkpt lat="45.88714" lon="1.39375">
        <ele>242.6</ele>
        <time>2022-08-01T07:40:05Z</time>
      </trkpt>
      <trkpt lat="45.88715" lon="1.3939">
        <ele>241.6</ele>
        <time>2022-08-01T07:40:07Z</time>
      </trkpt>
      <trkpt lat="45.88713" lon="1.39405">
        <ele>240.6</ele>
        <time>2022-08-01T07:40:09Z</time>
      </trkpt>
      <trkpt lat="45.88711" lon="1.39418">
        <ele>239.6</ele>
        <time>2022-08-01T07:40:11Z</time>
      </trkpt>
      <trkpt lat="45.88708" lon="1.39429">
        <ele>239.1</ele>
        <time>2022-08-01T07:40:13Z</time>
      </trkpt>
      <trkpt lat="45.88705" lon="1.39439">
        <ele>238.7</ele>
        <time>2022-08-01T07:40:15Z</time>
      </trkpt>
      <trkpt lat="45.88702" lon="1.39448">
        <ele>238.3</ele>
        <time>2022-08-01T07:40:17Z</time>
      </trkpt>
      <trkpt lat="45.887" lon="1.39457">
        <ele>238</ele>
        <time>2022-08-01T07:40:19Z</time>
      </trkpt>
      <trkpt lat="45.88697" lon="1.39465">
        <ele>237.8</ele>
        <time>2022-08-01T07:40:21Z</time>
      </trkpt>
      <trkpt lat="45.88694" lon="1.39473">
        <ele>237.5</ele>
        <time>2022-08-01T07:40:23Z</time>
      </trkpt>
      <trkpt lat="45.88692" lon="1.39481">
        <ele>237.4</ele>
        <time>2022-08-01T07:40:25Z</time>
      </trkpt>
      <trkpt lat="45.8869" lon="1.39488">
        <ele>237.2</ele>
        <time>2022-08-01T07:40:27Z</time>
      </trkpt>
      <trkpt lat="45.88688" lon="1.39495">
        <ele>237.1</ele>
        <time>2022-08-01T07:40:29Z</time>
      </trkpt>
      <trkpt lat="45.88685" lon="1.39504">
        <ele>237</ele>
        <time>2022-08-01T07:40:31Z</time>
      </trkpt>
      <trkpt lat="45.88682" lon="1.39513">
        <ele>237.1</ele>
        <time>2022-08-01T07:40:33Z</time>
      </trkpt>
      <trkpt lat="45.88679" lon="1.39523">
        <ele>237.2</ele>
        <time>2022-08-01T07:40:35Z</time>
      </trkpt>
      <trkpt lat="45.88676" lon="1.39532">
        <ele>237.3</ele>
        <time>2022-08-01T07:40:37Z</time>
      </trkpt>
      <trkpt lat="45.88673" lon="1.39542">
        <ele>237.5</ele>
        <time>2022-08-01T07:40:39Z</time>
      </trkpt>
      <trkpt lat="45.88671" lon="1.39549">
        <ele>237.6</ele>
        <time>2022-08-01T07:40:41Z</time>
      </trkpt>
      <trkpt lat="45.8867" lon="1.39556">
        <ele>237.6</ele>
        <time>2022-08-01T07:40:43Z</time>
      </trkpt>
      <trkpt lat="45.88667" lon="1.39559">
        <ele>237.7</ele>
        <time>2022-08-01T07:40:45Z</time>
      </trkpt>
      <trkpt lat="45.88667" lon="1.3956">
        <ele>237.7</ele>
        <time>2022-08-01T07:40:47Z</time>
      </trkpt>
      <trkpt lat="45.88667" lon="1.39561">
        <ele>237.7</ele>
        <time>2022-08-01T07:40:49Z</time>
      </trkpt>
      <trkpt lat="45.88667" lon="1.39561">
        <ele>237.7</ele>
        <time>2022-08-01T07:40:51Z</time>
      </trkpt>
      <trkpt lat="45.88666" lon="1.39561">
        <ele>237.7</ele>
        <time>2022-08-01T07:40:53Z</time>
      </trkpt>
      <trkpt lat="45.88666" lon="1.39561">
        <ele>237.7</ele>
        <time>2022-08-01T07:40:55Z</time>
      </trkpt>
      <trkpt lat="45.8867" lon="1.39586">
        <ele>238</ele>
        <time>2022-08-01T07:53:33Z</time>
      </trkpt>
      <trkpt lat="45.88671" lon="1.39591">
        <ele>238.1</ele>
        <time>2022-08-01T07:53:35Z</time>
      </trkpt>
      <trkpt lat="45.88671" lon="1.39596">
        <ele>238.3</ele>
        <time>2022-08-01T07:53:37Z</time>
      </trkpt>
      <trkpt lat="45.88671" lon="1.39603">
        <ele>238.5</ele>
        <time>2022-08-01T07:53:39Z</time>
      </trkpt>
      <trkpt lat="45.88671" lon="1.39606">
        <ele>238.5</ele>
        <time>2022-08-01T07:53:41Z</time>
      </trkpt>
      <trkpt lat="45.88671" lon="1.39608">
        <ele>238.6</ele>
        <time>2022-08-01T07:53:43Z</time>
      </trkpt>
      <trkpt lat="45.88671" lon="1.3961">
        <ele>238.7</ele>
        <time>2022-08-01T07:53:45Z</time>
      </trkpt>
      <trkpt lat="45.88671" lon="1.39617">
        <ele>238.8</ele>
        <time>2022-08-01T07:53:47Z</time>
      </trkpt>
      <trkpt lat="45.8867" lon="1.39624">
        <ele>239</ele>
        <time>2022-08-01T07:53:49Z</time>
      </trkpt>
      <trkpt lat="45.88669" lon="1.39631">
        <ele>239.2</ele>
        <time>2022-08-01T07:53:51Z</time>
      </trkpt>
      <trkpt lat="45.88669" lon="1.39639">
        <ele>239.4</ele>
        <time>2022-08-01T07:53:53Z</time>
      </trkpt>
      <trkpt lat="45.88668" lon="1.39646">
        <ele>239.6</ele>
        <time>2022-08-01T07:53:55Z</time>
      </trkpt>
      <trkpt lat="45.88668" lon="1.39655">
        <ele>239.7</ele>
        <time>2022-08-01T07:53:57Z</time>
      </trkpt>
      <trkpt lat="45.88668" lon="1.39662">
        <ele>239.9</ele>
        <time>2022-08-01T07:53:59Z</time>
      </trkpt>
      <trkpt lat="45.88667" lon="1.3967">
        <ele>240.1</ele>
        <time>2022-08-01T07:54:01Z</time>
      </trkpt>
      <trkpt lat="45.88666" lon="1.39678">
        <ele>240.4</ele>
        <time>2022-08-01T07:54:03Z</time>
      </trkpt>
      <trkpt lat="45.88666" lon="1.39687">
        <ele>240.7</ele>
        <time>2022-08-01T07:54:05Z</time>
      </trkpt>
      <trkpt lat="45.88665" lon="1.39695">
        <ele>241</ele>
        <time>2022-08-01T07:54:07Z</time>
      </trkpt>
      <trkpt lat="45.88665" lon="1.39703">
        <ele>241.3</ele>
        <time>2022-08-01T07:54:09Z</time>
      </trkpt>
      <trkpt lat="45.88664" lon="1.39711">
        <ele>241.5</ele>
        <time>2022-08-01T07:54:11Z</time>
      </trkpt>
      <trkpt lat="45.88664" lon="1.39718">
        <ele>241.8</ele>
        <time>2022-08-01T07:54:13Z</time>
      </trkpt>
      <trkpt lat="45.88664" lon="1.39726">
        <ele>242.1</ele>
        <time>2022-08-01T07:54:15Z</time>
      </trkpt>
      <trkpt lat="45.88663" lon="1.39733">
        <ele>242.3</ele>
        <time>2022-08-01T07:54:17Z</time>
      </trkpt>
      <trkpt lat="45.88662" lon="1.39739">
        <ele>242.6</ele>
        <time>2022-08-01T07:54:19Z</time>
      </trkpt>
      <trkpt lat="45.88662" lon="1.39745">
        <ele>242.8</ele>
        <time>2022-08-01T07:54:21Z</time>
      </trkpt>
      <trkpt lat="45.88661" lon="1.39752">
        <ele>243</ele>
        <time>2022-08-01T07:54:23Z</time>
      </trkpt>
      <trkpt lat="45.8866" lon="1.39759">
        <ele>243.4</ele>
        <time>2022-08-01T07:54:25Z</time>
      </trkpt>
      <trkpt lat="45.8866" lon="1.39766">
        <ele>243.8</ele>
        <time>2022-08-01T07:54:27Z</time>
      </trkpt>
      <trkpt lat="45.8866" lon="1.39772">
        <ele>244.2</ele>
        <time>2022-08-01T07:54:29Z</time>
      </trkpt>
      <trkpt lat="45.8866" lon="1.39779">
        <ele>244.5</ele>
        <time>2022-08-01T07:54:31Z</time>
      </trkpt>
      <trkpt lat="45.8866" lon="1.39786">
        <ele>244.9</ele>
        <time>2022-08-01T07:54:33Z</time>
      </trkpt>
      <trkpt lat="45.8866" lon="1.39793">
        <ele>245.3</ele>
        <time>2022-08-01T07:54:35Z</time>
      </trkpt>
      <trkpt lat="45.8866" lon="1.398">
        <ele>245.7</ele>
        <time>2022-08-01T07:54:37Z</time>
      </trkpt>
      <trkpt lat="45.8866" lon="1.39806">
        <ele>246.1</ele>
        <time>2022-08-01T07:54:39Z</time>
      </trkpt>
      <trkpt lat="45.8866" lon="1.39813">
        <ele>246.4</ele>
        <time>2022-08-01T07:54:41Z</time>
      </trkpt>
      <trkpt lat="45.88659" lon="1.3982">
        <ele>246.8</ele>
        <time>2022-08-01T07:54:43Z</time>
      </trkpt>
      <trkpt lat="45.88659" lon="1.39827">
        <ele>247.2</ele>
        <time>2022-08-01T07:54:45Z</time>
      </trkpt>
      <trkpt lat="45.88657" lon="1.39834">
        <ele>247.4</ele>
        <time>2022-08-01T07:54:47Z</time>
      </trkpt>
      <trkpt lat="45.88657" lon="1.3984">
        <ele>247.5</ele>
        <time>2022-08-01T07:54:49Z</time>
      </trkpt>
      <trkpt lat="45.88657" lon="1.39847">
        <ele>247.6</ele>
        <time>2022-08-01T07:54:51Z</time>
      </trkpt>
      <trkpt lat="45.88657" lon="1.39854">
        <ele>247.6</ele>
        <time>2022-08-01T07:54:53Z</time>
      </trkpt>
      <trkpt lat="45.88657" lon="1.3986">
        <ele>247.7</ele>
        <time>2022-08-01T07:54:55Z</time>
      </trkpt>
      <trkpt lat="45.88657" lon="1.39867">
        <ele>247.8</ele>
        <time>2022-08-01T07:54:57Z</time>
      </trkpt>
      <trkpt lat="45.88657" lon="1.39874">
        <ele>247.8</ele>
        <time>2022-08-01T07:54:59Z</time>
      </trkpt>
      <trkpt lat="45.88656" lon="1.39881">
        <ele>247.9</ele>
        <time>2022-08-01T07:55:01Z</time>
      </trkpt>
      <trkpt lat="45.88655" lon="1.39888">
        <ele>247.9</ele>
        <time>2022-08-01T07:55:03Z</time>
      </trkpt>
      <trkpt lat="45.88654" lon="1.39894">
        <ele>247.8</ele>
        <time>2022-08-01T07:55:05Z</time>
      </trkpt>
      <trkpt lat="45.88653" lon="1.39901">
        <ele>247.9</ele>
        <time>2022-08-01T07:55:07Z</time>
      </trkpt>
      <trkpt lat="45.88652" lon="1.39905">
        <ele>247.8</ele>
        <time>2022-08-01T07:55:09Z</time>
      </trkpt>
      <trkpt lat="45.88652" lon="1.39908">
        <ele>247.9</ele>
        <time>2022-08-01T07:55:11Z</time>
      </trkpt>
      <trkpt lat="45.88653" lon="1.39908">
        <ele>247.9</ele>
        <time>2022-08-01T07:55:13Z</time>
      </trkpt>
      <trkpt lat="45.88653" lon="1.39908">
        <ele>248</ele>
        <time>2022-08-01T07:55:15Z</time>
      </trkpt>
      <trkpt lat="45.88655" lon="1.39908">
        <ele>248</ele>
        <time>2022-08-01T07:55:17Z</time>
      </trkpt>
      <trkpt lat="45.88656" lon="1.39909">
        <ele>248.1</ele>
        <time>2022-08-01T07:55:19Z</time>
      </trkpt>
      <trkpt lat="45.88659" lon="1.39925">
        <ele>248.6</ele>
        <time>2022-08-01T07:55:39Z</time>
      </trkpt>
      <trkpt lat="45.88657" lon="1.39933">
        <ele>248.5</ele>
        <time>2022-08-01T07:55:41Z</time>
      </trkpt>
      <trkpt lat="45.88655" lon="1.39942">
        <ele>248.3</ele>
        <time>2022-08-01T07:55:43Z</time>
      </trkpt>
      <trkpt lat="45.88653" lon="1.39952">
        <ele>248.2</ele>
        <time>2022-08-01T07:55:45Z</time>
      </trkpt>
      <trkpt lat="45.88652" lon="1.39965">
        <ele>248.2</ele>
        <time>2022-08-01T07:55:47Z</time>
      </trkpt>
      <trkpt lat="45.8865" lon="1.39981">
        <ele>248.1</ele>
        <time>2022-08-01T07:55:49Z</time>
      </trkpt>
      <trkpt lat="45.88648" lon="1.39996">
        <ele>248</ele>
        <time>2022-08-01T07:55:51Z</time>
      </trkpt>
      <trkpt lat="45.88646" lon="1.40014">
        <ele>247.5</ele>
        <time>2022-08-01T07:55:53Z</time>
      </trkpt>
      <trkpt lat="45.88645" lon="1.40032">
        <ele>247</ele>
        <time>2022-08-01T07:55:55Z</time>
      </trkpt>
      <trkpt lat="45.88644" lon="1.40048">
        <ele>246.5</ele>
        <time>2022-08-01T07:55:57Z</time>
      </trkpt>
      <trkpt lat="45.88641" lon="1.40066">
        <ele>245.9</ele>
        <time>2022-08-01T07:55:59Z</time>
      </trkpt>
      <trkpt lat="45.88639" lon="1.40083">
        <ele>245.4</ele>
        <time>2022-08-01T07:56:01Z</time>
      </trkpt>
      <trkpt lat="45.88638" lon="1.401">
        <ele>245.6</ele>
        <time>2022-08-01T07:56:03Z</time>
      </trkpt>
      <trkpt lat="45.88637" lon="1.40116">
        <ele>245.7</ele>
        <time>2022-08-01T07:56:05Z</time>
      </trkpt>
      <trkpt lat="45.88634" lon="1.40133">
        <ele>245.8</ele>
        <time>2022-08-01T07:56:07Z</time>
      </trkpt>
      <trkpt lat="45.88633" lon="1.40149">
        <ele>245.9</ele>
        <time>2022-08-01T07:56:09Z</time>
      </trkpt>
      <trkpt lat="45.88631" lon="1.40165">
        <ele>245.8</ele>
        <time>2022-08-01T07:56:11Z</time>
      </trkpt>
      <trkpt lat="45.88628" lon="1.4018">
        <ele>245.1</ele>
        <time>2022-08-01T07:56:13Z</time>
      </trkpt>
      <trkpt lat="45.88626" lon="1.40197">
        <ele>244.4</ele>
        <time>2022-08-01T07:56:15Z</time>
      </trkpt>
      <trkpt lat="45.88624" lon="1.40213">
        <ele>243.8</ele>
        <time>2022-08-01T07:56:17Z</time>
      </trkpt>
      <trkpt lat="45.88623" lon="1.40229">
        <ele>243.3</ele>
        <time>2022-08-01T07:56:19Z</time>
      </trkpt>
      <trkpt lat="45.88622" lon="1.40242">
        <ele>242.9</ele>
        <time>2022-08-01T07:56:21Z</time>
      </trkpt>
      <trkpt lat="45.88621" lon="1.40253">
        <ele>242.7</ele>
        <time>2022-08-01T07:56:23Z</time>
      </trkpt>
      <trkpt lat="45.88621" lon="1.40262">
        <ele>242.7</ele>
        <time>2022-08-01T07:56:25Z</time>
      </trkpt>
      <trkpt lat="45.88621" lon="1.40271">
        <ele>242.9</ele>
        <time>2022-08-01T07:56:27Z</time>
      </trkpt>
      <trkpt lat="45.88621" lon="1.40279">
        <ele>242.9</ele>
        <time>2022-08-01T07:56:29Z</time>
      </trkpt>
      <trkpt lat="45.8862" lon="1.40289">
        <ele>243</ele>
        <time>2022-08-01T07:56:31Z</time>
      </trkpt>
      <trkpt lat="45.8862" lon="1.40299">
        <ele>243.1</ele>
        <time>2022-08-01T07:56:33Z</time>
      </trkpt>
      <trkpt lat="45.8862" lon="1.40309">
        <ele>243.2</ele>
        <time>2022-08-01T07:56:35Z</time>
      </trkpt>
      <trkpt lat="45.88619" lon="1.40317">
        <ele>243.2</ele>
        <time>2022-08-01T07:56:37Z</time>
      </trkpt>
      <trkpt lat="45.88619" lon="1.40325">
        <ele>243.3</ele>
        <time>2022-08-01T07:56:39Z</time>
      </trkpt>
      <trkpt lat="45.88618" lon="1.40333">
        <ele>243.3</ele>
        <time>2022-08-01T07:56:41Z</time>
      </trkpt>
      <trkpt lat="45.88617" lon="1.40341">
        <ele>243.6</ele>
        <time>2022-08-01T07:56:43Z</time>
      </trkpt>
      <trkpt lat="45.88618" lon="1.40347">
        <ele>244</ele>
        <time>2022-08-01T07:56:45Z</time>
      </trkpt>
      <trkpt lat="45.8862" lon="1.40354">
        <ele>244.4</ele>
        <time>2022-08-01T07:56:47Z</time>
      </trkpt>
      <trkpt lat="45.88622" lon="1.40359">
        <ele>244.9</ele>
        <time>2022-08-01T07:56:49Z</time>
      </trkpt>
      <trkpt lat="45.88624" lon="1.40364">
        <ele>245.3</ele>
        <time>2022-08-01T07:56:51Z</time>
      </trkpt>
      <trkpt lat="45.88623" lon="1.4037">
        <ele>245.5</ele>
        <time>2022-08-01T07:56:53Z</time>
      </trkpt>
      <trkpt lat="45.88622" lon="1.40375">
        <ele>245.6</ele>
        <time>2022-08-01T07:56:55Z</time>
      </trkpt>
      <trkpt lat="45.88621" lon="1.40381">
        <ele>245.7</ele>
        <time>2022-08-01T07:56:57Z</time>
      </trkpt>
      <trkpt lat="45.88619" lon="1.40387">
        <ele>245.9</ele>
        <time>2022-08-01T07:56:59Z</time>
      </trkpt>
      <trkpt lat="45.88618" lon="1.40393">
        <ele>246</ele>
        <time>2022-08-01T07:57:01Z</time>
      </trkpt>
      <trkpt lat="45.88618" lon="1.40399">
        <ele>246.2</ele>
        <time>2022-08-01T07:57:03Z</time>
      </trkpt>
      <trkpt lat="45.88616" lon="1.40405">
        <ele>246.2</ele>
        <time>2022-08-01T07:57:05Z</time>
      </trkpt>
      <trkpt lat="45.88615" lon="1.40409">
        <ele>246.2</ele>
        <time>2022-08-01T07:57:07Z</time>
      </trkpt>
      <trkpt lat="45.88614" lon="1.40414">
        <ele>246.2</ele>
        <time>2022-08-01T07:57:09Z</time>
      </trkpt>
      <trkpt lat="45.88612" lon="1.4042">
        <ele>246.3</ele>
        <time>2022-08-01T07:57:11Z</time>
      </trkpt>
      <trkpt lat="45.88609" lon="1.40427">
        <ele>246.4</ele>
        <time>2022-08-01T07:57:13Z</time>
      </trkpt>
      <trkpt lat="45.88605" lon="1.40433">
        <ele>246.2</ele>
        <time>2022-08-01T07:57:15Z</time>
      </trkpt>
      <trkpt lat="45.88601" lon="1.4044">
        <ele>245.9</ele>
        <time>2022-08-01T07:57:17Z</time>
      </trkpt>
      <trkpt lat="45.88597" lon="1.40448">
        <ele>245.7</ele>
        <time>2022-08-01T07:57:19Z</time>
      </trkpt>
      <trkpt lat="45.88593" lon="1.40457">
        <ele>245.7</ele>
        <time>2022-08-01T07:57:21Z</time>
      </trkpt>
      <trkpt lat="45.8859" lon="1.40468">
        <ele>245.6</ele>
        <time>2022-08-01T07:57:23Z</time>
      </trkpt>
      <trkpt lat="45.88585" lon="1.40478">
        <ele>245.3</ele>
        <time>2022-08-01T07:57:25Z</time>
      </trkpt>
      <trkpt lat="45.88581" lon="1.40487">
        <ele>245.2</ele>
        <time>2022-08-01T07:57:27Z</time>
      </trkpt>
      <trkpt lat="45.88577" lon="1.40497">
        <ele>245.3</ele>
        <time>2022-08-01T07:57:29Z</time>
      </trkpt>
      <trkpt lat="45.88575" lon="1.40507">
        <ele>245.8</ele>
        <time>2022-08-01T07:57:31Z</time>
      </trkpt>
      <trkpt lat="45.88572" lon="1.40516">
        <ele>246.3</ele>
        <time>2022-08-01T07:57:33Z</time>
      </trkpt>
      <trkpt lat="45.8857" lon="1.40529">
        <ele>246.9</ele>
        <time>2022-08-01T07:57:35Z</time>
      </trkpt>
      <trkpt lat="45.88568" lon="1.40541">
        <ele>247.6</ele>
        <time>2022-08-01T07:57:37Z</time>
      </trkpt>
      <trkpt lat="45.88566" lon="1.40554">
        <ele>248.2</ele>
        <time>2022-08-01T07:57:39Z</time>
      </trkpt>
      <trkpt lat="45.88562" lon="1.40566">
        <ele>248.3</ele>
        <time>2022-08-01T07:57:41Z</time>
      </trkpt>
      <trkpt lat="45.88555" lon="1.40575">
        <ele>247.8</ele>
        <time>2022-08-01T07:57:43Z</time>
      </trkpt>
      <trkpt lat="45.8855" lon="1.40586">
        <ele>247.6</ele>
        <time>2022-08-01T07:57:45Z</time>
      </trkpt>
      <trkpt lat="45.88546" lon="1.40598">
        <ele>247.8</ele>
        <time>2022-08-01T07:57:47Z</time>
      </trkpt>
      <trkpt lat="45.88542" lon="1.40606">
        <ele>247.6</ele>
        <time>2022-08-01T07:57:49Z</time>
      </trkpt>
      <trkpt lat="45.8854" lon="1.40616">
        <ele>247.8</ele>
        <time>2022-08-01T07:57:51Z</time>
      </trkpt>
      <trkpt lat="45.8854" lon="1.40627">
        <ele>248.5</ele>
        <time>2022-08-01T07:57:53Z</time>
      </trkpt>
      <trkpt lat="45.88539" lon="1.40637">
        <ele>248.8</ele>
        <time>2022-08-01T07:57:55Z</time>
      </trkpt>
      <trkpt lat="45.88539" lon="1.40646">
        <ele>249.4</ele>
        <time>2022-08-01T07:57:57Z</time>
      </trkpt>
      <trkpt lat="45.88538" lon="1.40655">
        <ele>249.7</ele>
        <time>2022-08-01T07:57:59Z</time>
      </trkpt>
      <trkpt lat="45.88537" lon="1.40664">
        <ele>250</ele>
        <time>2022-08-01T07:58:01Z</time>
      </trkpt>
      <trkpt lat="45.88536" lon="1.40673">
        <ele>250.1</ele>
        <time>2022-08-01T07:58:03Z</time>
      </trkpt>
      <trkpt lat="45.88536" lon="1.40681">
        <ele>250.1</ele>
        <time>2022-08-01T07:58:05Z</time>
      </trkpt>
      <trkpt lat="45.88536" lon="1.40687">
        <ele>250.2</ele>
        <time>2022-08-01T07:58:07Z</time>
      </trkpt>
      <trkpt lat="45.88536" lon="1.40693">
        <ele>250.3</ele>
        <time>2022-08-01T07:58:09Z</time>
      </trkpt>
      <trkpt lat="45.88536" lon="1.40701">
        <ele>250.3</ele>
        <time>2022-08-01T07:58:11Z</time>
      </trkpt>
      <trkpt lat="45.88536" lon="1.40708">
        <ele>250.4</ele>
        <time>2022-08-01T07:58:13Z</time>
      </trkpt>
      <trkpt lat="45.88536" lon="1.40715">
        <ele>250.5</ele>
        <time>2022-08-01T07:58:15Z</time>
      </trkpt>
      <trkpt lat="45.88536" lon="1.40724">
        <ele>250.6</ele>
        <time>2022-08-01T07:58:17Z</time>
      </trkpt>
      <trkpt lat="45.88535" lon="1.40735">
        <ele>250.4</ele>
        <time>2022-08-01T07:58:19Z</time>
      </trkpt>
      <trkpt lat="45.88535" lon="1.40746">
        <ele>250.5</ele>
        <time>2022-08-01T07:58:21Z</time>
      </trkpt>
      <trkpt lat="45.88534" lon="1.40758">
        <ele>250.5</ele>
        <time>2022-08-01T07:58:23Z</time>
      </trkpt>
      <trkpt lat="45.88532" lon="1.40771">
        <ele>250.4</ele>
        <time>2022-08-01T07:58:25Z</time>
      </trkpt>
      <trkpt lat="45.8853" lon="1.40784">
        <ele>250</ele>
        <time>2022-08-01T07:58:27Z</time>
      </trkpt>
      <trkpt lat="45.88529" lon="1.40796">
        <ele>250</ele>
        <time>2022-08-01T07:58:29Z</time>
      </trkpt>
      <trkpt lat="45.88528" lon="1.40808">
        <ele>250</ele>
        <time>2022-08-01T07:58:31Z</time>
      </trkpt>
      <trkpt lat="45.8853" lon="1.4082">
        <ele>250.7</ele>
        <time>2022-08-01T07:58:33Z</time>
      </trkpt>
      <trkpt lat="45.8853" lon="1.40831">
        <ele>251</ele>
        <time>2022-08-01T07:58:35Z</time>
      </trkpt>
      <trkpt lat="45.8853" lon="1.40841">
        <ele>251.2</ele>
        <time>2022-08-01T07:58:37Z</time>
      </trkpt>
      <trkpt lat="45.88529" lon="1.40852">
        <ele>251.1</ele>
        <time>2022-08-01T07:58:39Z</time>
      </trkpt>
      <trkpt lat="45.8853" lon="1.40861">
        <ele>251.4</ele>
        <time>2022-08-01T07:58:41Z</time>
      </trkpt>
      <trkpt lat="45.8853" lon="1.40872">
        <ele>251.6</ele>
        <time>2022-08-01T07:58:43Z</time>
      </trkpt>
      <trkpt lat="45.8853" lon="1.40882">
        <ele>251.8</ele>
        <time>2022-08-01T07:58:45Z</time>
      </trkpt>
      <trkpt lat="45.8853" lon="1.40893">
        <ele>252.2</ele>
        <time>2022-08-01T07:58:47Z</time>
      </trkpt>
      <trkpt lat="45.88531" lon="1.40903">
        <ele>252.6</ele>
        <time>2022-08-01T07:58:49Z</time>
      </trkpt>
      <trkpt lat="45.88532" lon="1.40913">
        <ele>252.9</ele>
        <time>2022-08-01T07:58:51Z</time>
      </trkpt>
      <trkpt lat="45.88532" lon="1.40923">
        <ele>253.1</ele>
        <time>2022-08-01T07:58:53Z</time>
      </trkpt>
      <trkpt lat="45.88532" lon="1.40933">
        <ele>253.5</ele>
        <time>2022-08-01T07:58:55Z</time>
      </trkpt>
      <trkpt lat="45.88534" lon="1.40943">
        <ele>254</ele>
        <time>2022-08-01T07:58:57Z</time>
      </trkpt>
      <trkpt lat="45.88535" lon="1.40953">
        <ele>254.5</ele>
        <time>2022-08-01T07:58:59Z</time>
      </trkpt>
      <trkpt lat="45.88536" lon="1.40962">
        <ele>254.9</ele>
        <time>2022-08-01T07:59:01Z</time>
      </trkpt>
      <trkpt lat="45.88536" lon="1.40972">
        <ele>255.2</ele>
        <time>2022-08-01T07:59:03Z</time>
      </trkpt>
      <trkpt lat="45.88536" lon="1.40979">
        <ele>255.4</ele>
        <time>2022-08-01T07:59:05Z</time>
      </trkpt>
      <trkpt lat="45.88536" lon="1.40986">
        <ele>255.3</ele>
        <time>2022-08-01T07:59:07Z</time>
      </trkpt>
      <trkpt lat="45.88536" lon="1.40994">
        <ele>255.6</ele>
        <time>2022-08-01T07:59:09Z</time>
      </trkpt>
      <trkpt lat="45.88537" lon="1.41">
        <ele>255.8</ele>
        <time>2022-08-01T07:59:11Z</time>
      </trkpt>
      <trkpt lat="45.88537" lon="1.41007">
        <ele>255.8</ele>
        <time>2022-08-01T07:59:13Z</time>
      </trkpt>
      <trkpt lat="45.88537" lon="1.41014">
        <ele>256</ele>
        <time>2022-08-01T07:59:15Z</time>
      </trkpt>
      <trkpt lat="45.88538" lon="1.41023">
        <ele>256.1</ele>
        <time>2022-08-01T07:59:17Z</time>
      </trkpt>
      <trkpt lat="45.88538" lon="1.41031">
        <ele>256.1</ele>
        <time>2022-08-01T07:59:19Z</time>
      </trkpt>
      <trkpt lat="45.88538" lon="1.4104">
        <ele>256.1</ele>
        <time>2022-08-01T07:59:21Z</time>
      </trkpt>
      <trkpt lat="45.88538" lon="1.41048">
        <ele>256.1</ele>
        <time>2022-08-01T07:59:23Z</time>
      </trkpt>
      <trkpt lat="45.88537" lon="1.41057">
        <ele>256</ele>
        <time>2022-08-01T07:59:25Z</time>
      </trkpt>
      <trkpt lat="45.88538" lon="1.41066">
        <ele>256.1</ele>
        <time>2022-08-01T07:59:27Z</time>
      </trkpt>
      <trkpt lat="45.88537" lon="1.41075">
        <ele>256</ele>
        <time>2022-08-01T07:59:29Z</time>
      </trkpt>
      <trkpt lat="45.88537" lon="1.41084">
        <ele>255.9</ele>
        <time>2022-08-01T07:59:31Z</time>
      </trkpt>
      <trkpt lat="45.88538" lon="1.41095">
        <ele>256</ele>
        <time>2022-08-01T07:59:33Z</time>
      </trkpt>
      <trkpt lat="45.88538" lon="1.41105">
        <ele>256.1</ele>
        <time>2022-08-01T07:59:35Z</time>
      </trkpt>
      <trkpt lat="45.88538" lon="1.41116">
        <ele>256</ele>
        <time>2022-08-01T07:59:37Z</time>
      </trkpt>
      <trkpt lat="45.88539" lon="1.41125">
        <ele>256.3</ele>
        <time>2022-08-01T07:59:39Z</time>
      </trkpt>
      <trkpt lat="45.88539" lon="1.41133">
        <ele>256.1</ele>
        <time>2022-08-01T07:59:41Z</time>
      </trkpt>
      <trkpt lat="45.88539" lon="1.41142">
        <ele>256</ele>
        <time>2022-08-01T07:59:43Z</time>
      </trkpt>
      <trkpt lat="45.88539" lon="1.4115">
        <ele>256</ele>
        <time>2022-08-01T07:59:45Z</time>
      </trkpt>
      <trkpt lat="45.88539" lon="1.41156">
        <ele>255.7</ele>
        <time>2022-08-01T07:59:47Z</time>
      </trkpt>
      <trkpt lat="45.88539" lon="1.41163">
        <ele>255.7</ele>
        <time>2022-08-01T07:59:49Z</time>
      </trkpt>
      <trkpt lat="45.88539" lon="1.41168">
        <ele>255.8</ele>
        <time>2022-08-01T07:59:51Z</time>
      </trkpt>
      <trkpt lat="45.8854" lon="1.41174">
        <ele>255.9</ele>
        <time>2022-08-01T07:59:53Z</time>
      </trkpt>
      <trkpt lat="45.8854" lon="1.4118">
        <ele>256.1</ele>
        <time>2022-08-01T07:59:55Z</time>
      </trkpt>
      <trkpt lat="45.88541" lon="1.41187">
        <ele>256.2</ele>
        <time>2022-08-01T07:59:57Z</time>
      </trkpt>
      <trkpt lat="45.88541" lon="1.41193">
        <ele>256.3</ele>
        <time>2022-08-01T07:59:59Z</time>
      </trkpt>
      <trkpt lat="45.8854" lon="1.41204">
        <ele>256</ele>
        <time>2022-08-01T08:00:01Z</time>
      </trkpt>
      <trkpt lat="45.88539" lon="1.41218">
        <ele>255.6</ele>
        <time>2022-08-01T08:00:03Z</time>
      </trkpt>
      <trkpt lat="45.88538" lon="1.4123">
        <ele>255.3</ele>
        <time>2022-08-01T08:00:05Z</time>
      </trkpt>
      <trkpt lat="45.88538" lon="1.41245">
        <ele>255.4</ele>
        <time>2022-08-01T08:00:07Z</time>
      </trkpt>
      <trkpt lat="45.88536" lon="1.41261">
        <ele>254.8</ele>
        <time>2022-08-01T08:00:09Z</time>
      </trkpt>
      <trkpt lat="45.88536" lon="1.41278">
        <ele>254.3</ele>
        <time>2022-08-01T08:00:11Z</time>
      </trkpt>
      <trkpt lat="45.88536" lon="1.41295">
        <ele>254.2</ele>
        <time>2022-08-01T08:00:13Z</time>
      </trkpt>
      <trkpt lat="45.88535" lon="1.41311">
        <ele>253.8</ele>
        <time>2022-08-01T08:00:15Z</time>
      </trkpt>
      <trkpt lat="45.88535" lon="1.41328">
        <ele>253.6</ele>
        <time>2022-08-01T08:00:17Z</time>
      </trkpt>
      <trkpt lat="45.88536" lon="1.41345">
        <ele>253.9</ele>
        <time>2022-08-01T08:00:19Z</time>
      </trkpt>
      <trkpt lat="45.88537" lon="1.41362">
        <ele>254.3</ele>
        <time>2022-08-01T08:00:21Z</time>
      </trkpt>
      <trkpt lat="45.88537" lon="1.4138">
        <ele>254.8</ele>
        <time>2022-08-01T08:00:23Z</time>
      </trkpt>
      <trkpt lat="45.88539" lon="1.41397">
        <ele>255.5</ele>
        <time>2022-08-01T08:00:25Z</time>
      </trkpt>
      <trkpt lat="45.88539" lon="1.41412">
        <ele>255.6</ele>
        <time>2022-08-01T08:00:27Z</time>
      </trkpt>
      <trkpt lat="45.88539" lon="1.41428">
        <ele>256.1</ele>
        <time>2022-08-01T08:00:29Z</time>
      </trkpt>
      <trkpt lat="45.88539" lon="1.41442">
        <ele>256.4</ele>
        <time>2022-08-01T08:00:31Z</time>
      </trkpt>
      <trkpt lat="45.88539" lon="1.41455">
        <ele>256.7</ele>
        <time>2022-08-01T08:00:33Z</time>
      </trkpt>
      <trkpt lat="45.88537" lon="1.41467">
        <ele>256.4</ele>
        <time>2022-08-01T08:00:35Z</time>
      </trkpt>
      <trkpt lat="45.88534" lon="1.41478">
        <ele>255.9</ele>
        <time>2022-08-01T08:00:37Z</time>
      </trkpt>
      <trkpt lat="45.88531" lon="1.41488">
        <ele>255.3</ele>
        <time>2022-08-01T08:00:39Z</time>
      </trkpt>
      <trkpt lat="45.88527" lon="1.41497">
        <ele>254.3</ele>
        <time>2022-08-01T08:00:41Z</time>
      </trkpt>
      <trkpt lat="45.88525" lon="1.41505">
        <ele>253.9</ele>
        <time>2022-08-01T08:00:43Z</time>
      </trkpt>
      <trkpt lat="45.88522" lon="1.41516">
        <ele>253.3</ele>
        <time>2022-08-01T08:00:45Z</time>
      </trkpt>
      <trkpt lat="45.88519" lon="1.41527">
        <ele>252.9</ele>
        <time>2022-08-01T08:00:47Z</time>
      </trkpt>
      <trkpt lat="45.88515" lon="1.41537">
        <ele>251.8</ele>
        <time>2022-08-01T08:00:49Z</time>
      </trkpt>
      <trkpt lat="45.88511" lon="1.41548">
        <ele>251.2</ele>
        <time>2022-08-01T08:00:51Z</time>
      </trkpt>
      <trkpt lat="45.88508" lon="1.41559">
        <ele>250.7</ele>
        <time>2022-08-01T08:00:53Z</time>
      </trkpt>
      <trkpt lat="45.88506" lon="1.41569">
        <ele>250.4</ele>
        <time>2022-08-01T08:00:55Z</time>
      </trkpt>
      <trkpt lat="45.88504" lon="1.4158">
        <ele>249.9</ele>
        <time>2022-08-01T08:00:57Z</time>
      </trkpt>
      <trkpt lat="45.88502" lon="1.41592">
        <ele>250.3</ele>
        <time>2022-08-01T08:00:59Z</time>
      </trkpt>
      <trkpt lat="45.885" lon="1.41602">
        <ele>250.6</ele>
        <time>2022-08-01T08:01:01Z</time>
      </trkpt>
      <trkpt lat="45.88497" lon="1.41611">
        <ele>251.2</ele>
        <time>2022-08-01T08:01:03Z</time>
      </trkpt>
      <trkpt lat="45.88494" lon="1.41621">
        <ele>251.9</ele>
        <time>2022-08-01T08:01:05Z</time>
      </trkpt>
      <trkpt lat="45.88491" lon="1.4163">
        <ele>252.4</ele>
        <time>2022-08-01T08:01:07Z</time>
      </trkpt>
      <trkpt lat="45.88488" lon="1.41639">
        <ele>252.8</ele>
        <time>2022-08-01T08:01:09Z</time>
      </trkpt>
      <trkpt lat="45.88485" lon="1.41646">
        <ele>253</ele>
        <time>2022-08-01T08:01:11Z</time>
      </trkpt>
      <trkpt lat="45.88482" lon="1.41654">
        <ele>253.1</ele>
        <time>2022-08-01T08:01:13Z</time>
      </trkpt>
      <trkpt lat="45.88479" lon="1.41662">
        <ele>253.2</ele>
        <time>2022-08-01T08:01:15Z</time>
      </trkpt>
      <trkpt lat="45.88476" lon="1.41669">
        <ele>253.3</ele>
        <time>2022-08-01T08:01:17Z</time>
      </trkpt>
      <trkpt lat="45.88471" lon="1.41677">
        <ele>253.2</ele>
        <time>2022-08-01T08:01:19Z</time>
      </trkpt>
      <trkpt lat="45.88468" lon="1.41681">
        <ele>253.1</ele>
        <time>2022-08-01T08:01:21Z</time>
      </trkpt>
      <trkpt lat="45.88463" lon="1.41691">
        <ele>253</ele>
        <time>2022-08-01T08:01:23Z</time>
      </trkpt>
      <trkpt lat="45.88458" lon="1.41699">
        <ele>252.7</ele>
        <time>2022-08-01T08:01:25Z</time>
      </trkpt>
      <trkpt lat="45.88453" lon="1.41707">
        <ele>252.3</ele>
        <time>2022-08-01T08:01:27Z</time>
      </trkpt>
      <trkpt lat="45.88448" lon="1.41714">
        <ele>251.8</ele>
        <time>2022-08-01T08:01:29Z</time>
      </trkpt>
      <trkpt lat="45.88443" lon="1.41721">
        <ele>251.2</ele>
        <time>2022-08-01T08:01:31Z</time>
      </trkpt>
      <trkpt lat="45.88438" lon="1.41728">
        <ele>250.6</ele>
        <time>2022-08-01T08:01:33Z</time>
      </trkpt>
      <trkpt lat="45.88434" lon="1.41735">
        <ele>250.1</ele>
        <time>2022-08-01T08:01:35Z</time>
      </trkpt>
      <trkpt lat="45.88428" lon="1.41742">
        <ele>249.2</ele>
        <time>2022-08-01T08:01:37Z</time>
      </trkpt>
      <trkpt lat="45.88423" lon="1.41748">
        <ele>248.3</ele>
        <time>2022-08-01T08:01:39Z</time>
      </trkpt>
      <trkpt lat="45.88418" lon="1.41752">
        <ele>247.5</ele>
        <time>2022-08-01T08:01:41Z</time>
      </trkpt>
      <trkpt lat="45.88413" lon="1.41757">
        <ele>248.2</ele>
        <time>2022-08-01T08:01:43Z</time>
      </trkpt>
      <trkpt lat="45.88407" lon="1.41764">
        <ele>248.9</ele>
        <time>2022-08-01T08:01:45Z</time>
      </trkpt>
      <trkpt lat="45.88402" lon="1.41769">
        <ele>249.5</ele>
        <time>2022-08-01T08:01:47Z</time>
      </trkpt>
      <trkpt lat="45.88396" lon="1.41775">
        <ele>249.9</ele>
        <time>2022-08-01T08:01:49Z</time>
      </trkpt>
      <trkpt lat="45.88391" lon="1.41781">
        <ele>250.3</ele>
        <time>2022-08-01T08:01:51Z</time>
      </trkpt>
      <trkpt lat="45.88385" lon="1.41788">
        <ele>250.6</ele>
        <time>2022-08-01T08:01:53Z</time>
      </trkpt>
      <trkpt lat="45.88379" lon="1.41793">
        <ele>250.5</ele>
        <time>2022-08-01T08:01:55Z</time>
      </trkpt>
      <trkpt lat="45.88375" lon="1.41801">
        <ele>250.8</ele>
        <time>2022-08-01T08:01:57Z</time>
      </trkpt>
      <trkpt lat="45.88369" lon="1.41808">
        <ele>250.6</ele>
        <time>2022-08-01T08:01:59Z</time>
      </trkpt>
      <trkpt lat="45.88363" lon="1.41812">
        <ele>250.1</ele>
        <time>2022-08-01T08:02:01Z</time>
      </trkpt>
      <trkpt lat="45.88357" lon="1.4182">
        <ele>249.6</ele>
        <time>2022-08-01T08:02:03Z</time>
      </trkpt>
      <trkpt lat="45.88351" lon="1.41827">
        <ele>248.9</ele>
        <time>2022-08-01T08:02:05Z</time>
      </trkpt>
      <trkpt lat="45.88344" lon="1.41833">
        <ele>248</ele>
        <time>2022-08-01T08:02:07Z</time>
      </trkpt>
      <trkpt lat="45.88338" lon="1.4184">
        <ele>247.5</ele>
        <time>2022-08-01T08:02:09Z</time>
      </trkpt>
      <trkpt lat="45.88331" lon="1.41847">
        <ele>247.4</ele>
        <time>2022-08-01T08:02:11Z</time>
      </trkpt>
      <trkpt lat="45.88326" lon="1.41855">
        <ele>248</ele>
        <time>2022-08-01T08:02:13Z</time>
      </trkpt>
      <trkpt lat="45.88321" lon="1.41861">
        <ele>248.5</ele>
        <time>2022-08-01T08:02:15Z</time>
      </trkpt>
      <trkpt lat="45.88315" lon="1.41867">
        <ele>248.9</ele>
        <time>2022-08-01T08:02:17Z</time>
      </trkpt>
      <trkpt lat="45.8831" lon="1.41874">
        <ele>249.1</ele>
        <time>2022-08-01T08:02:19Z</time>
      </trkpt>
      <trkpt lat="45.88304" lon="1.4188">
        <ele>249.2</ele>
        <time>2022-08-01T08:02:21Z</time>
      </trkpt>
      <trkpt lat="45.88298" lon="1.41885">
        <ele>249.1</ele>
        <time>2022-08-01T08:02:23Z</time>
      </trkpt>
      <trkpt lat="45.88293" lon="1.4189">
        <ele>248.9</ele>
        <time>2022-08-01T08:02:25Z</time>
      </trkpt>
      <trkpt lat="45.88288" lon="1.41896">
        <ele>248.7</ele>
        <time>2022-08-01T08:02:27Z</time>
      </trkpt>
      <trkpt lat="45.88283" lon="1.419">
        <ele>248.4</ele>
        <time>2022-08-01T08:02:29Z</time>
      </trkpt>
      <trkpt lat="45.88279" lon="1.41906">
        <ele>248.1</ele>
        <time>2022-08-01T08:02:31Z</time>
      </trkpt>
      <trkpt lat="45.88275" lon="1.41911">
        <ele>247.8</ele>
        <time>2022-08-01T08:02:33Z</time>
      </trkpt>
      <trkpt lat="45.8827" lon="1.41917">
        <ele>247.3</ele>
        <time>2022-08-01T08:02:35Z</time>
      </trkpt>
      <trkpt lat="45.88265" lon="1.41924">
        <ele>247.3</ele>
        <time>2022-08-01T08:02:37Z</time>
      </trkpt>
      <trkpt lat="45.8826" lon="1.4193">
        <ele>247.3</ele>
        <time>2022-08-01T08:02:39Z</time>
      </trkpt>
      <trkpt lat="45.88254" lon="1.41936">
        <ele>247.3</ele>
        <time>2022-08-01T08:02:41Z</time>
      </trkpt>
      <trkpt lat="45.88248" lon="1.41942">
        <ele>247.4</ele>
        <time>2022-08-01T08:02:43Z</time>
      </trkpt>
      <trkpt lat="45.88242" lon="1.41948">
        <ele>248</ele>
        <time>2022-08-01T08:02:45Z</time>
      </trkpt>
      <trkpt lat="45.88236" lon="1.41955">
        <ele>248.4</ele>
        <time>2022-08-01T08:02:47Z</time>
      </trkpt>
      <trkpt lat="45.8823" lon="1.41961">
        <ele>248.7</ele>
        <time>2022-08-01T08:02:49Z</time>
      </trkpt>
      <trkpt lat="45.88225" lon="1.41967">
        <ele>248.9</ele>
        <time>2022-08-01T08:02:51Z</time>
      </trkpt>
      <trkpt lat="45.88219" lon="1.41973">
        <ele>249</ele>
        <time>2022-08-01T08:02:53Z</time>
      </trkpt>
      <trkpt lat="45.88214" lon="1.4198">
        <ele>249.1</ele>
        <time>2022-08-01T08:02:55Z</time>
      </trkpt>
      <trkpt lat="45.88209" lon="1.41985">
        <ele>249</ele>
        <time>2022-08-01T08:02:57Z</time>
      </trkpt>
      <trkpt lat="45.88203" lon="1.41991">
        <ele>248.8</ele>
        <time>2022-08-01T08:02:59Z</time>
      </trkpt>
      <trkpt lat="45.88197" lon="1.41997">
        <ele>248.5</ele>
        <time>2022-08-01T08:03:01Z</time>
      </trkpt>
      <trkpt lat="45.88192" lon="1.42003">
        <ele>248.6</ele>
        <time>2022-08-01T08:03:03Z</time>
      </trkpt>
      <trkpt lat="45.88186" lon="1.42009">
        <ele>249</ele>
        <time>2022-08-01T08:03:05Z</time>
      </trkpt>
      <trkpt lat="45.8818" lon="1.42014">
        <ele>249.4</ele>
        <time>2022-08-01T08:03:07Z</time>
      </trkpt>
      <trkpt lat="45.88175" lon="1.42019">
        <ele>249.7</ele>
        <time>2022-08-01T08:03:09Z</time>
      </trkpt>
      <trkpt lat="45.8817" lon="1.42023">
        <ele>250</ele>
        <time>2022-08-01T08:03:11Z</time>
      </trkpt>
      <trkpt lat="45.88165" lon="1.42029">
        <ele>250.5</ele>
        <time>2022-08-01T08:03:13Z</time>
      </trkpt>
      <trkpt lat="45.8816" lon="1.42034">
        <ele>251.2</ele>
        <time>2022-08-01T08:03:15Z</time>
      </trkpt>
      <trkpt lat="45.88154" lon="1.42039">
        <ele>251.8</ele>
        <time>2022-08-01T08:03:17Z</time>
      </trkpt>
      <trkpt lat="45.88149" lon="1.42045">
        <ele>252.2</ele>
        <time>2022-08-01T08:03:19Z</time>
      </trkpt>
      <trkpt lat="45.88143" lon="1.42051">
        <ele>252.4</ele>
        <time>2022-08-01T08:03:21Z</time>
      </trkpt>
      <trkpt lat="45.88138" lon="1.42056">
        <ele>252.4</ele>
        <time>2022-08-01T08:03:23Z</time>
      </trkpt>
      <trkpt lat="45.88133" lon="1.42061">
        <ele>252.3</ele>
        <time>2022-08-01T08:03:25Z</time>
      </trkpt>
      <trkpt lat="45.88131" lon="1.42066">
        <ele>252.2</ele>
        <time>2022-08-01T08:03:27Z</time>
      </trkpt>
      <trkpt lat="45.88132" lon="1.42067">
        <ele>252.4</ele>
        <time>2022-08-01T08:03:29Z</time>
      </trkpt>
      <trkpt lat="45.88132" lon="1.42068">
        <ele>252.5</ele>
        <time>2022-08-01T08:03:31Z</time>
      </trkpt>
      <trkpt lat="45.88132" lon="1.42068">
        <ele>252.5</ele>
        <time>2022-08-01T08:03:33Z</time>
      </trkpt>
      <trkpt lat="45.88133" lon="1.42069">
        <ele>252.6</ele>
        <time>2022-08-01T08:03:35Z</time>
      </trkpt>
      <trkpt lat="45.88133" lon="1.42069">
        <ele>252.7</ele>
        <time>2022-08-01T08:03:37Z</time>
      </trkpt>
      <trkpt lat="45.88192" lon="1.42027">
        <ele>252.7</ele>
        <time>2022-08-01T08:04:21Z</time>
      </trkpt>
      <trkpt lat="45.88197" lon="1.42024">
        <ele>252.7</ele>
        <time>2022-08-01T08:04:23Z</time>
      </trkpt>
      <trkpt lat="45.88201" lon="1.42021">
        <ele>252.6</ele>
        <time>2022-08-01T08:04:25Z</time>
      </trkpt>
      <trkpt lat="45.88205" lon="1.42019">
        <ele>252.6</ele>
        <time>2022-08-01T08:04:27Z</time>
      </trkpt>
      <trkpt lat="45.88209" lon="1.42018">
        <ele>252.8</ele>
        <time>2022-08-01T08:04:29Z</time>
      </trkpt>
      <trkpt lat="45.88213" lon="1.42015">
        <ele>252.6</ele>
        <time>2022-08-01T08:04:31Z</time>
      </trkpt>
      <trkpt lat="45.88216" lon="1.42012">
        <ele>252.3</ele>
        <time>2022-08-01T08:04:33Z</time>
      </trkpt>
      <trkpt lat="45.88219" lon="1.42011">
        <ele>252.4</ele>
        <time>2022-08-01T08:04:35Z</time>
      </trkpt>
      <trkpt lat="45.88221" lon="1.42009">
        <ele>252.2</ele>
        <time>2022-08-01T08:04:37Z</time>
      </trkpt>
      <trkpt lat="45.88225" lon="1.42007">
        <ele>252.2</ele>
        <time>2022-08-01T08:04:39Z</time>
      </trkpt>
      <trkpt lat="45.88229" lon="1.42005">
        <ele>252.2</ele>
        <time>2022-08-01T08:04:41Z</time>
      </trkpt>
      <trkpt lat="45.88232" lon="1.42003">
        <ele>252</ele>
        <time>2022-08-01T08:04:43Z</time>
      </trkpt>
      <trkpt lat="45.88235" lon="1.42001">
        <ele>251.9</ele>
        <time>2022-08-01T08:04:45Z</time>
      </trkpt>
      <trkpt lat="45.88239" lon="1.41999">
        <ele>252</ele>
        <time>2022-08-01T08:04:47Z</time>
      </trkpt>
      <trkpt lat="45.88241" lon="1.41997">
        <ele>252</ele>
        <time>2022-08-01T08:04:49Z</time>
      </trkpt>
      <trkpt lat="45.88245" lon="1.41995">
        <ele>252.1</ele>
        <time>2022-08-01T08:04:51Z</time>
      </trkpt>
      <trkpt lat="45.88249" lon="1.41996">
        <ele>252.5</ele>
        <time>2022-08-01T08:04:53Z</time>
      </trkpt>
      <trkpt lat="45.88252" lon="1.41996">
        <ele>252.8</ele>
        <time>2022-08-01T08:04:55Z</time>
      </trkpt>
      <trkpt lat="45.88256" lon="1.41994">
        <ele>253</ele>
        <time>2022-08-01T08:04:57Z</time>
      </trkpt>
      <trkpt lat="45.88259" lon="1.41993">
        <ele>253.3</ele>
        <time>2022-08-01T08:04:59Z</time>
      </trkpt>
      <trkpt lat="45.88262" lon="1.41993">
        <ele>253.6</ele>
        <time>2022-08-01T08:05:01Z</time>
      </trkpt>
      <trkpt lat="45.88266" lon="1.41993">
        <ele>254</ele>
        <time>2022-08-01T08:05:03Z</time>
      </trkpt>
      <trkpt lat="45.88269" lon="1.41993">
        <ele>254.3</ele>
        <time>2022-08-01T08:05:05Z</time>
      </trkpt>
      <trkpt lat="45.88272" lon="1.41993">
        <ele>254.7</ele>
        <time>2022-08-01T08:05:07Z</time>
      </trkpt>
      <trkpt lat="45.88275" lon="1.41992">
        <ele>255</ele>
        <time>2022-08-01T08:05:09Z</time>
      </trkpt>
      <trkpt lat="45.88279" lon="1.41993">
        <ele>255.4</ele>
        <time>2022-08-01T08:05:11Z</time>
      </trkpt>
      <trkpt lat="45.88282" lon="1.41995">
        <ele>255.9</ele>
        <time>2022-08-01T08:05:13Z</time>
      </trkpt>
      <trkpt lat="45.88285" lon="1.41996">
        <ele>256.4</ele>
        <time>2022-08-01T08:05:15Z</time>
      </trkpt>
      <trkpt lat="45.88288" lon="1.41997">
        <ele>256.8</ele>
        <time>2022-08-01T08:05:17Z</time>
      </trkpt>
      <trkpt lat="45.88291" lon="1.41999">
        <ele>257.3</ele>
        <time>2022-08-01T08:05:19Z</time>
      </trkpt>
      <trkpt lat="45.88294" lon="1.42001">
        <ele>257.9</ele>
        <time>2022-08-01T08:05:21Z</time>
      </trkpt>
      <trkpt lat="45.88296" lon="1.42003">
        <ele>258.6</ele>
        <time>2022-08-01T08:05:23Z</time>
      </trkpt>
      <trkpt lat="45.88298" lon="1.42005">
        <ele>259.3</ele>
        <time>2022-08-01T08:05:25Z</time>
      </trkpt>
      <trkpt lat="45.883" lon="1.42007">
        <ele>259.7</ele>
        <time>2022-08-01T08:05:27Z</time>
      </trkpt>
      <trkpt lat="45.88302" lon="1.42008">
        <ele>260.3</ele>
        <time>2022-08-01T08:05:29Z</time>
      </trkpt>
      <trkpt lat="45.88304" lon="1.42009">
        <ele>260.7</ele>
        <time>2022-08-01T08:05:31Z</time>
      </trkpt>
      <trkpt lat="45.88306" lon="1.42012">
        <ele>261.5</ele>
        <time>2022-08-01T08:05:33Z</time>
      </trkpt>
      <trkpt lat="45.88308" lon="1.42014">
        <ele>262.2</ele>
        <time>2022-08-01T08:05:35Z</time>
      </trkpt>
      <trkpt lat="45.88311" lon="1.42017">
        <ele>263</ele>
        <time>2022-08-01T08:05:37Z</time>
      </trkpt>
      <trkpt lat="45.88313" lon="1.42019">
        <ele>263.7</ele>
        <time>2022-08-01T08:05:39Z</time>
      </trkpt>
      <trkpt lat="45.88315" lon="1.42021">
        <ele>264.3</ele>
        <time>2022-08-01T08:05:41Z</time>
      </trkpt>
      <trkpt lat="45.88317" lon="1.42023">
        <ele>265</ele>
        <time>2022-08-01T08:05:43Z</time>
      </trkpt>
      <trkpt lat="45.88318" lon="1.42026">
        <ele>265.6</ele>
        <time>2022-08-01T08:05:45Z</time>
      </trkpt>
      <trkpt lat="45.88321" lon="1.42028">
        <ele>266.4</ele>
        <time>2022-08-01T08:05:47Z</time>
      </trkpt>
      <trkpt lat="45.88322" lon="1.4203">
        <ele>267</ele>
        <time>2022-08-01T08:05:49Z</time>
      </trkpt>
      <trkpt lat="45.88324" lon="1.42033">
        <ele>267.7</ele>
        <time>2022-08-01T08:05:51Z</time>
      </trkpt>
      <trkpt lat="45.88327" lon="1.42036">
        <ele>268.6</ele>
        <time>2022-08-01T08:05:53Z</time>
      </trkpt>
      <trkpt lat="45.88329" lon="1.42038">
        <ele>269.3</ele>
        <time>2022-08-01T08:05:55Z</time>
      </trkpt>
      <trkpt lat="45.8833" lon="1.42041">
        <ele>270.1</ele>
        <time>2022-08-01T08:05:57Z</time>
      </trkpt>
      <trkpt lat="45.88333" lon="1.42044">
        <ele>270.8</ele>
        <time>2022-08-01T08:05:59Z</time>
      </trkpt>
      <trkpt lat="45.88335" lon="1.42046">
        <ele>271.4</ele>
        <time>2022-08-01T08:06:01Z</time>
      </trkpt>
      <trkpt lat="45.88337" lon="1.42047">
        <ele>271.9</ele>
        <time>2022-08-01T08:06:03Z</time>
      </trkpt>
      <trkpt lat="45.8834" lon="1.42048">
        <ele>272.3</ele>
        <time>2022-08-01T08:06:05Z</time>
      </trkpt>
      <trkpt lat="45.88341" lon="1.4205">
        <ele>272.8</ele>
        <time>2022-08-01T08:06:07Z</time>
      </trkpt>
      <trkpt lat="45.88344" lon="1.42052">
        <ele>273.3</ele>
        <time>2022-08-01T08:06:09Z</time>
      </trkpt>
      <trkpt lat="45.88346" lon="1.42053">
        <ele>273.7</ele>
        <time>2022-08-01T08:06:11Z</time>
      </trkpt>
      <trkpt lat="45.88348" lon="1.42054">
        <ele>274</ele>
        <time>2022-08-01T08:06:13Z</time>
      </trkpt>
      <trkpt lat="45.8835" lon="1.42055">
        <ele>274.2</ele>
        <time>2022-08-01T08:06:15Z</time>
      </trkpt>
      <trkpt lat="45.88352" lon="1.42056">
        <ele>274.6</ele>
        <time>2022-08-01T08:06:17Z</time>
      </trkpt>
      <trkpt lat="45.88354" lon="1.42058">
        <ele>275.1</ele>
        <time>2022-08-01T08:06:19Z</time>
      </trkpt>
      <trkpt lat="45.88357" lon="1.4206">
        <ele>275.6</ele>
        <time>2022-08-01T08:06:21Z</time>
      </trkpt>
      <trkpt lat="45.88358" lon="1.42061">
        <ele>275.9</ele>
        <time>2022-08-01T08:06:23Z</time>
      </trkpt>
      <trkpt lat="45.88361" lon="1.42062">
        <ele>276.2</ele>
        <time>2022-08-01T08:06:25Z</time>
      </trkpt>
      <trkpt lat="45.88363" lon="1.42063">
        <ele>276.6</ele>
        <time>2022-08-01T08:06:27Z</time>
      </trkpt>
      <trkpt lat="45.88366" lon="1.42065">
        <ele>277</ele>
        <time>2022-08-01T08:06:29Z</time>
      </trkpt>
      <trkpt lat="45.88368" lon="1.42066">
        <ele>277.3</ele>
        <time>2022-08-01T08:06:31Z</time>
      </trkpt>
      <trkpt lat="45.88371" lon="1.42067">
        <ele>277.5</ele>
        <time>2022-08-01T08:06:33Z</time>
      </trkpt>
      <trkpt lat="45.88373" lon="1.42069">
        <ele>278.1</ele>
        <time>2022-08-01T08:06:35Z</time>
      </trkpt>
      <trkpt lat="45.88376" lon="1.42071">
        <ele>278.5</ele>
        <time>2022-08-01T08:06:37Z</time>
      </trkpt>
      <trkpt lat="45.88378" lon="1.42072">
        <ele>278.9</ele>
        <time>2022-08-01T08:06:39Z</time>
      </trkpt>
      <trkpt lat="45.88381" lon="1.42073">
        <ele>279.1</ele>
        <time>2022-08-01T08:06:41Z</time>
      </trkpt>
      <trkpt lat="45.88384" lon="1.42074">
        <ele>279.4</ele>
        <time>2022-08-01T08:06:43Z</time>
      </trkpt>
      <trkpt lat="45.88386" lon="1.42076">
        <ele>279.7</ele>
        <time>2022-08-01T08:06:45Z</time>
      </trkpt>
      <trkpt lat="45.88388" lon="1.42077">
        <ele>280</ele>
        <time>2022-08-01T08:06:47Z</time>
      </trkpt>
      <trkpt lat="45.8839" lon="1.42078">
        <ele>280.3</ele>
        <time>2022-08-01T08:06:49Z</time>
      </trkpt>
      <trkpt lat="45.88393" lon="1.4208">
        <ele>280.6</ele>
        <time>2022-08-01T08:06:51Z</time>
      </trkpt>
      <trkpt lat="45.88395" lon="1.42081">
        <ele>280.9</ele>
        <time>2022-08-01T08:06:53Z</time>
      </trkpt>
      <trkpt lat="45.88397" lon="1.42082">
        <ele>281.2</ele>
        <time>2022-08-01T08:06:55Z</time>
      </trkpt>
      <trkpt lat="45.884" lon="1.42084">
        <ele>281.5</ele>
        <time>2022-08-01T08:06:57Z</time>
      </trkpt>
      <trkpt lat="45.88402" lon="1.42086">
        <ele>281.9</ele>
        <time>2022-08-01T08:06:59Z</time>
      </trkpt>
      <trkpt lat="45.88405" lon="1.42087">
        <ele>282.2</ele>
        <time>2022-08-01T08:07:01Z</time>
      </trkpt>
      <trkpt lat="45.88407" lon="1.42087">
        <ele>282.4</ele>
        <time>2022-08-01T08:07:03Z</time>
      </trkpt>
      <trkpt lat="45.88409" lon="1.42091">
        <ele>283.1</ele>
        <time>2022-08-01T08:07:05Z</time>
      </trkpt>
      <trkpt lat="45.88411" lon="1.42092">
        <ele>283.5</ele>
        <time>2022-08-01T08:07:07Z</time>
      </trkpt>
      <trkpt lat="45.88413" lon="1.42094">
        <ele>283.9</ele>
        <time>2022-08-01T08:07:09Z</time>
      </trkpt>
      <trkpt lat="45.88416" lon="1.42095">
        <ele>284.2</ele>
        <time>2022-08-01T08:07:11Z</time>
      </trkpt>
      <trkpt lat="45.88418" lon="1.42096">
        <ele>284.7</ele>
        <time>2022-08-01T08:07:13Z</time>
      </trkpt>
      <trkpt lat="45.8842" lon="1.42098">
        <ele>285.2</ele>
        <time>2022-08-01T08:07:15Z</time>
      </trkpt>
      <trkpt lat="45.88423" lon="1.42099">
        <ele>285.6</ele>
        <time>2022-08-01T08:07:17Z</time>
      </trkpt>
      <trkpt lat="45.88425" lon="1.421">
        <ele>286.1</ele>
        <time>2022-08-01T08:07:19Z</time>
      </trkpt>
      <trkpt lat="45.88427" lon="1.42102">
        <ele>286.7</ele>
        <time>2022-08-01T08:07:21Z</time>
      </trkpt>
      <trkpt lat="45.88429" lon="1.42104">
        <ele>287.2</ele>
        <time>2022-08-01T08:07:23Z</time>
      </trkpt>
      <trkpt lat="45.88431" lon="1.42105">
        <ele>287.7</ele>
        <time>2022-08-01T08:07:25Z</time>
      </trkpt>
      <trkpt lat="45.88434" lon="1.42107">
        <ele>288.3</ele>
        <time>2022-08-01T08:07:27Z</time>
      </trkpt>
      <trkpt lat="45.88436" lon="1.42107">
        <ele>288.6</ele>
        <time>2022-08-01T08:07:29Z</time>
      </trkpt>
      <trkpt lat="45.88439" lon="1.42108">
        <ele>289</ele>
        <time>2022-08-01T08:07:31Z</time>
      </trkpt>
      <trkpt lat="45.88442" lon="1.42109">
        <ele>289.4</ele>
        <time>2022-08-01T08:07:33Z</time>
      </trkpt>
      <trkpt lat="45.88444" lon="1.42109">
        <ele>289.6</ele>
        <time>2022-08-01T08:07:35Z</time>
      </trkpt>
      <trkpt lat="45.88446" lon="1.42109">
        <ele>290</ele>
        <time>2022-08-01T08:07:37Z</time>
      </trkpt>
      <trkpt lat="45.88449" lon="1.4211">
        <ele>290.4</ele>
        <time>2022-08-01T08:07:39Z</time>
      </trkpt>
      <trkpt lat="45.88451" lon="1.4211">
        <ele>290.7</ele>
        <time>2022-08-01T08:07:41Z</time>
      </trkpt>
      <trkpt lat="45.88454" lon="1.4211">
        <ele>290.9</ele>
        <time>2022-08-01T08:07:43Z</time>
      </trkpt>
      <trkpt lat="45.88457" lon="1.42112">
        <ele>291.5</ele>
        <time>2022-08-01T08:07:45Z</time>
      </trkpt>
      <trkpt lat="45.8846" lon="1.42112">
        <ele>291.8</ele>
        <time>2022-08-01T08:07:47Z</time>
      </trkpt>
      <trkpt lat="45.88461" lon="1.42112">
        <ele>292</ele>
        <time>2022-08-01T08:07:49Z</time>
      </trkpt>
      <trkpt lat="45.88464" lon="1.42113">
        <ele>292.4</ele>
        <time>2022-08-01T08:07:51Z</time>
      </trkpt>
      <trkpt lat="45.88466" lon="1.42113">
        <ele>292.7</ele>
        <time>2022-08-01T08:07:53Z</time>
      </trkpt>
      <trkpt lat="45.88468" lon="1.42114">
        <ele>293</ele>
        <time>2022-08-01T08:07:55Z</time>
      </trkpt>
      <trkpt lat="45.88471" lon="1.42115">
        <ele>293.4</ele>
        <time>2022-08-01T08:07:57Z</time>
      </trkpt>
      <trkpt lat="45.88474" lon="1.42115">
        <ele>293.7</ele>
        <time>2022-08-01T08:07:59Z</time>
      </trkpt>
      <trkpt lat="45.88477" lon="1.42116">
        <ele>294.1</ele>
        <time>2022-08-01T08:08:01Z</time>
      </trkpt>
      <trkpt lat="45.8848" lon="1.42117">
        <ele>294.6</ele>
        <time>2022-08-01T08:08:03Z</time>
      </trkpt>
      <trkpt lat="45.88482" lon="1.42118">
        <ele>294.8</ele>
        <time>2022-08-01T08:08:05Z</time>
      </trkpt>
      <trkpt lat="45.88485" lon="1.42118">
        <ele>295.1</ele>
        <time>2022-08-01T08:08:07Z</time>
      </trkpt>
      <trkpt lat="45.88487" lon="1.42118">
        <ele>295.3</ele>
        <time>2022-08-01T08:08:09Z</time>
      </trkpt>
      <trkpt lat="45.88489" lon="1.42119">
        <ele>295.6</ele>
        <time>2022-08-01T08:08:11Z</time>
      </trkpt>
      <trkpt lat="45.8849" lon="1.42119">
        <ele>295.8</ele>
        <time>2022-08-01T08:08:13Z</time>
      </trkpt>
      <trkpt lat="45.88493" lon="1.42119">
        <ele>296</ele>
        <time>2022-08-01T08:08:15Z</time>
      </trkpt>
      <trkpt lat="45.88496" lon="1.42118">
        <ele>296.2</ele>
        <time>2022-08-01T08:08:17Z</time>
      </trkpt>
      <trkpt lat="45.88498" lon="1.4212">
        <ele>296.7</ele>
        <time>2022-08-01T08:08:19Z</time>
      </trkpt>
      <trkpt lat="45.88501" lon="1.4212">
        <ele>297</ele>
        <time>2022-08-01T08:08:21Z</time>
      </trkpt>
      <trkpt lat="45.88505" lon="1.4212">
        <ele>297.4</ele>
        <time>2022-08-01T08:08:23Z</time>
      </trkpt>
      <trkpt lat="45.88508" lon="1.42121">
        <ele>297.9</ele>
        <time>2022-08-01T08:08:25Z</time>
      </trkpt>
      <trkpt lat="45.88511" lon="1.42119">
        <ele>298</ele>
        <time>2022-08-01T08:08:27Z</time>
      </trkpt>
      <trkpt lat="45.88513" lon="1.4212">
        <ele>298.3</ele>
        <time>2022-08-01T08:08:29Z</time>
      </trkpt>
      <trkpt lat="45.88514" lon="1.42119">
        <ele>298.5</ele>
        <time>2022-08-01T08:08:31Z</time>
      </trkpt>
      <trkpt lat="45.88515" lon="1.42119">
        <ele>298.5</ele>
        <time>2022-08-01T08:08:33Z</time>
      </trkpt>
      <trkpt lat="45.88515" lon="1.42119">
        <ele>298.5</ele>
        <time>2022-08-01T08:08:35Z</time>
      </trkpt>
      <trkpt lat="45.88516" lon="1.42119">
        <ele>298.7</ele>
        <time>2022-08-01T08:08:37Z</time>
      </trkpt>
      <trkpt lat="45.88517" lon="1.42122">
        <ele>299</ele>
        <time>2022-08-01T08:08:39Z</time>
      </trkpt>
      <trkpt lat="45.88517" lon="1.42122">
        <ele>299</ele>
        <time>2022-08-01T08:08:41Z</time>
      </trkpt>
      <trkpt lat="45.88516" lon="1.42122">
        <ele>299</ele>
        <time>2022-08-01T08:08:43Z</time>
      </trkpt>
      <trkpt lat="45.88519" lon="1.42125">
        <ele>299.6</ele>
        <time>2022-08-01T08:08:45Z</time>
      </trkpt>
      <trkpt lat="45.8852" lon="1.4213">
        <ele>300.3</ele>
        <time>2022-08-01T08:08:47Z</time>
      </trkpt>
      <trkpt lat="45.88522" lon="1.42133">
        <ele>300.9</ele>
        <time>2022-08-01T08:08:49Z</time>
      </trkpt>
      <trkpt lat="45.88524" lon="1.42134">
        <ele>301.2</ele>
        <time>2022-08-01T08:08:51Z</time>
      </trkpt>
      <trkpt lat="45.88524" lon="1.4213">
        <ele>300.9</ele>
        <time>2022-08-01T08:08:53Z</time>
      </trkpt>
      <trkpt lat="45.88523" lon="1.42129">
        <ele>300.6</ele>
        <time>2022-08-01T08:08:55Z</time>
      </trkpt>
      <trkpt lat="45.88523" lon="1.42128">
        <ele>300.5</ele>
        <time>2022-08-01T08:08:57Z</time>
      </trkpt>
      <trkpt lat="45.88522" lon="1.42127">
        <ele>300.4</ele>
        <time>2022-08-01T08:08:59Z</time>
      </trkpt>
      <trkpt lat="45.88511" lon="1.42131">
        <ele>299.6</ele>
        <time>2022-08-01T08:16:23Z</time>
      </trkpt>
      <trkpt lat="45.88508" lon="1.42135">
        <ele>299.6</ele>
        <time>2022-08-01T08:16:25Z</time>
      </trkpt>
      <trkpt lat="45.88505" lon="1.42139">
        <ele>299.9</ele>
        <time>2022-08-01T08:16:27Z</time>
      </trkpt>
      <trkpt lat="45.88502" lon="1.42142">
        <ele>299.9</ele>
        <time>2022-08-01T08:16:29Z</time>
      </trkpt>
      <trkpt lat="45.88498" lon="1.42146">
        <ele>300.1</ele>
        <time>2022-08-01T08:16:31Z</time>
      </trkpt>
      <trkpt lat="45.88494" lon="1.4215">
        <ele>300.3</ele>
        <time>2022-08-01T08:16:33Z</time>
      </trkpt>
      <trkpt lat="45.8849" lon="1.42153">
        <ele>300.5</ele>
        <time>2022-08-01T08:16:35Z</time>
      </trkpt>
      <trkpt lat="45.88486" lon="1.42157">
        <ele>300.7</ele>
        <time>2022-08-01T08:16:37Z</time>
      </trkpt>
      <trkpt lat="45.88482" lon="1.42161">
        <ele>301.1</ele>
        <time>2022-08-01T08:16:39Z</time>
      </trkpt>
      <trkpt lat="45.88477" lon="1.42165">
        <ele>301.4</ele>
        <time>2022-08-01T08:16:41Z</time>
      </trkpt>
      <trkpt lat="45.88472" lon="1.42169">
        <ele>301.7</ele>
        <time>2022-08-01T08:16:43Z</time>
      </trkpt>
      <trkpt lat="45.88469" lon="1.42174">
        <ele>302</ele>
        <time>2022-08-01T08:16:45Z</time>
      </trkpt>
      <trkpt lat="45.88464" lon="1.42177">
        <ele>302.1</ele>
        <time>2022-08-01T08:16:47Z</time>
      </trkpt>
      <trkpt lat="45.88461" lon="1.42182">
        <ele>302.5</ele>
        <time>2022-08-01T08:16:49Z</time>
      </trkpt>
      <trkpt lat="45.88457" lon="1.42185">
        <ele>302.6</ele>
        <time>2022-08-01T08:16:51Z</time>
      </trkpt>
      <trkpt lat="45.88454" lon="1.42187">
        <ele>302.7</ele>
        <time>2022-08-01T08:16:53Z</time>
      </trkpt>
      <trkpt lat="45.8845" lon="1.4219">
        <ele>302.8</ele>
        <time>2022-08-01T08:16:55Z</time>
      </trkpt>
      <trkpt lat="45.88447" lon="1.42194">
        <ele>303.1</ele>
        <time>2022-08-01T08:16:57Z</time>
      </trkpt>
      <trkpt lat="45.88444" lon="1.42198">
        <ele>303.3</ele>
        <time>2022-08-01T08:16:59Z</time>
      </trkpt>
      <trkpt lat="45.8844" lon="1.42202">
        <ele>303.6</ele>
        <time>2022-08-01T08:17:01Z</time>
      </trkpt>
      <trkpt lat="45.88437" lon="1.42205">
        <ele>303.8</ele>
        <time>2022-08-01T08:17:03Z</time>
      </trkpt>
      <trkpt lat="45.88433" lon="1.4221">
        <ele>304.2</ele>
        <time>2022-08-01T08:17:05Z</time>
      </trkpt>
      <trkpt lat="45.8843" lon="1.42215">
        <ele>304.6</ele>
        <time>2022-08-01T08:17:07Z</time>
      </trkpt>
      <trkpt lat="45.88426" lon="1.4222">
        <ele>304.9</ele>
        <time>2022-08-01T08:17:09Z</time>
      </trkpt>
      <trkpt lat="45.88423" lon="1.42225">
        <ele>305.4</ele>
        <time>2022-08-01T08:17:11Z</time>
      </trkpt>
      <trkpt lat="45.88419" lon="1.42231">
        <ele>305.8</ele>
        <time>2022-08-01T08:17:13Z</time>
      </trkpt>
      <trkpt lat="45.88415" lon="1.42236">
        <ele>306.2</ele>
        <time>2022-08-01T08:17:15Z</time>
      </trkpt>
      <trkpt lat="45.88412" lon="1.42241">
        <ele>306.6</ele>
        <time>2022-08-01T08:17:17Z</time>
      </trkpt>
      <trkpt lat="45.8841" lon="1.42247">
        <ele>307</ele>
        <time>2022-08-01T08:17:19Z</time>
      </trkpt>
      <trkpt lat="45.88407" lon="1.42252">
        <ele>307.2</ele>
        <time>2022-08-01T08:17:21Z</time>
      </trkpt>
      <trkpt lat="45.88404" lon="1.42258">
        <ele>306.9</ele>
        <time>2022-08-01T08:17:23Z</time>
      </trkpt>
      <trkpt lat="45.88401" lon="1.42264">
        <ele>306.6</ele>
        <time>2022-08-01T08:17:25Z</time>
      </trkpt>
      <trkpt lat="45.88397" lon="1.4227">
        <ele>306.3</ele>
        <time>2022-08-01T08:17:27Z</time>
      </trkpt>
      <trkpt lat="45.88393" lon="1.42277">
        <ele>305.9</ele>
        <time>2022-08-01T08:17:29Z</time>
      </trkpt>
      <trkpt lat="45.88389" lon="1.42284">
        <ele>305.6</ele>
        <time>2022-08-01T08:17:31Z</time>
      </trkpt>
      <trkpt lat="45.88385" lon="1.42292">
        <ele>305.1</ele>
        <time>2022-08-01T08:17:33Z</time>
      </trkpt>
      <trkpt lat="45.8838" lon="1.42299">
        <ele>304.7</ele>
        <time>2022-08-01T08:17:35Z</time>
      </trkpt>
      <trkpt lat="45.88375" lon="1.42308">
        <ele>304.2</ele>
        <time>2022-08-01T08:17:37Z</time>
      </trkpt>
      <trkpt lat="45.88369" lon="1.42317">
        <ele>303.6</ele>
        <time>2022-08-01T08:17:39Z</time>
      </trkpt>
      <trkpt lat="45.88363" lon="1.42326">
        <ele>302.9</ele>
        <time>2022-08-01T08:17:41Z</time>
      </trkpt>
      <trkpt lat="45.88355" lon="1.42334">
        <ele>302.1</ele>
        <time>2022-08-01T08:17:43Z</time>
      </trkpt>
      <trkpt lat="45.88346" lon="1.42341">
        <ele>301.4</ele>
        <time>2022-08-01T08:17:45Z</time>
      </trkpt>
      <trkpt lat="45.88337" lon="1.42348">
        <ele>300.7</ele>
        <time>2022-08-01T08:17:47Z</time>
      </trkpt>
      <trkpt lat="45.88328" lon="1.42355">
        <ele>300.4</ele>
        <time>2022-08-01T08:17:49Z</time>
      </trkpt>
      <trkpt lat="45.88318" lon="1.4236">
        <ele>300.4</ele>
        <time>2022-08-01T08:17:51Z</time>
      </trkpt>
      <trkpt lat="45.88309" lon="1.42365">
        <ele>300.4</ele>
        <time>2022-08-01T08:17:53Z</time>
      </trkpt>
      <trkpt lat="45.883" lon="1.42369">
        <ele>300.4</ele>
        <time>2022-08-01T08:17:55Z</time>
      </trkpt>
      <trkpt lat="45.88292" lon="1.42374">
        <ele>300.5</ele>
        <time>2022-08-01T08:17:57Z</time>
      </trkpt>
      <trkpt lat="45.88283" lon="1.42379">
        <ele>300.6</ele>
        <time>2022-08-01T08:17:59Z</time>
      </trkpt>
      <trkpt lat="45.88275" lon="1.42383">
        <ele>300.7</ele>
        <time>2022-08-01T08:18:01Z</time>
      </trkpt>
      <trkpt lat="45.88268" lon="1.42388">
        <ele>300.8</ele>
        <time>2022-08-01T08:18:03Z</time>
      </trkpt>
      <trkpt lat="45.8826" lon="1.42392">
        <ele>300.9</ele>
        <time>2022-08-01T08:18:05Z</time>
      </trkpt>
      <trkpt lat="45.88253" lon="1.42396">
        <ele>301</ele>
        <time>2022-08-01T08:18:07Z</time>
      </trkpt>
      <trkpt lat="45.88247" lon="1.424">
        <ele>301.2</ele>
        <time>2022-08-01T08:18:09Z</time>
      </trkpt>
      <trkpt lat="45.88239" lon="1.42404">
        <ele>301.2</ele>
        <time>2022-08-01T08:18:11Z</time>
      </trkpt>
      <trkpt lat="45.88232" lon="1.42407">
        <ele>301.2</ele>
        <time>2022-08-01T08:18:13Z</time>
      </trkpt>
      <trkpt lat="45.88225" lon="1.42411">
        <ele>301.2</ele>
        <time>2022-08-01T08:18:15Z</time>
      </trkpt>
      <trkpt lat="45.88218" lon="1.42416">
        <ele>301.2</ele>
        <time>2022-08-01T08:18:17Z</time>
      </trkpt>
      <trkpt lat="45.88211" lon="1.4242">
        <ele>301</ele>
        <time>2022-08-01T08:18:19Z</time>
      </trkpt>
      <trkpt lat="45.88203" lon="1.42425">
        <ele>300.7</ele>
        <time>2022-08-01T08:18:21Z</time>
      </trkpt>
      <trkpt lat="45.88196" lon="1.4243">
        <ele>300.3</ele>
        <time>2022-08-01T08:18:23Z</time>
      </trkpt>
      <trkpt lat="45.88188" lon="1.42436">
        <ele>299.9</ele>
        <time>2022-08-01T08:18:25Z</time>
      </trkpt>
      <trkpt lat="45.8818" lon="1.42444">
        <ele>299.3</ele>
        <time>2022-08-01T08:18:27Z</time>
      </trkpt>
      <trkpt lat="45.88172" lon="1.42452">
        <ele>298.6</ele>
        <time>2022-08-01T08:18:29Z</time>
      </trkpt>
      <trkpt lat="45.88164" lon="1.42462">
        <ele>297.6</ele>
        <time>2022-08-01T08:18:31Z</time>
      </trkpt>
      <trkpt lat="45.88156" lon="1.42472">
        <ele>296.3</ele>
        <time>2022-08-01T08:18:33Z</time>
      </trkpt>
      <trkpt lat="45.88148" lon="1.42484">
        <ele>295</ele>
        <time>2022-08-01T08:18:35Z</time>
      </trkpt>
      <trkpt lat="45.8814" lon="1.42497">
        <ele>293.8</ele>
        <time>2022-08-01T08:18:37Z</time>
      </trkpt>
      <trkpt lat="45.88133" lon="1.42511">
        <ele>293.3</ele>
        <time>2022-08-01T08:18:39Z</time>
      </trkpt>
      <trkpt lat="45.88127" lon="1.42524">
        <ele>292.9</ele>
        <time>2022-08-01T08:18:41Z</time>
      </trkpt>
      <trkpt lat="45.88121" lon="1.42539">
        <ele>292.3</ele>
        <time>2022-08-01T08:18:43Z</time>
      </trkpt>
      <trkpt lat="45.88114" lon="1.42554">
        <ele>291.8</ele>
        <time>2022-08-01T08:18:45Z</time>
      </trkpt>
      <trkpt lat="45.88107" lon="1.42569">
        <ele>291.2</ele>
        <time>2022-08-01T08:18:47Z</time>
      </trkpt>
      <trkpt lat="45.88101" lon="1.42585">
        <ele>290.8</ele>
        <time>2022-08-01T08:18:49Z</time>
      </trkpt>
      <trkpt lat="45.88094" lon="1.42601">
        <ele>291</ele>
        <time>2022-08-01T08:18:51Z</time>
      </trkpt>
      <trkpt lat="45.88088" lon="1.42617">
        <ele>291.3</ele>
        <time>2022-08-01T08:18:53Z</time>
      </trkpt>
      <trkpt lat="45.88081" lon="1.42636">
        <ele>292.2</ele>
        <time>2022-08-01T08:18:55Z</time>
      </trkpt>
      <trkpt lat="45.88074" lon="1.42654">
        <ele>293.3</ele>
        <time>2022-08-01T08:18:57Z</time>
      </trkpt>
      <trkpt lat="45.88065" lon="1.42674">
        <ele>294</ele>
        <time>2022-08-01T08:18:59Z</time>
      </trkpt>
      <trkpt lat="45.88057" lon="1.42694">
        <ele>294.1</ele>
        <time>2022-08-01T08:19:01Z</time>
      </trkpt>
      <trkpt lat="45.8805" lon="1.42713">
        <ele>294.1</ele>
        <time>2022-08-01T08:19:03Z</time>
      </trkpt>
      <trkpt lat="45.88041" lon="1.42732">
        <ele>294</ele>
        <time>2022-08-01T08:19:05Z</time>
      </trkpt>
      <trkpt lat="45.88029" lon="1.42747">
        <ele>293.7</ele>
        <time>2022-08-01T08:19:07Z</time>
      </trkpt>
      <trkpt lat="45.88017" lon="1.4276">
        <ele>293.4</ele>
        <time>2022-08-01T08:19:09Z</time>
      </trkpt>
      <trkpt lat="45.88004" lon="1.42771">
        <ele>293.1</ele>
        <time>2022-08-01T08:19:11Z</time>
      </trkpt>
      <trkpt lat="45.8799" lon="1.42782">
        <ele>292.5</ele>
        <time>2022-08-01T08:19:13Z</time>
      </trkpt>
      <trkpt lat="45.87977" lon="1.42792">
        <ele>292.1</ele>
        <time>2022-08-01T08:19:15Z</time>
      </trkpt>
      <trkpt lat="45.87965" lon="1.42801">
        <ele>291.9</ele>
        <time>2022-08-01T08:19:17Z</time>
      </trkpt>
      <trkpt lat="45.87953" lon="1.42808">
        <ele>291.8</ele>
        <time>2022-08-01T08:19:19Z</time>
      </trkpt>
      <trkpt lat="45.87942" lon="1.42813">
        <ele>291.8</ele>
        <time>2022-08-01T08:19:21Z</time>
      </trkpt>
      <trkpt lat="45.87932" lon="1.42817">
        <ele>291.9</ele>
        <time>2022-08-01T08:19:23Z</time>
      </trkpt>
      <trkpt lat="45.87924" lon="1.42819">
        <ele>291.9</ele>
        <time>2022-08-01T08:19:25Z</time>
      </trkpt>
      <trkpt lat="45.87916" lon="1.42821">
        <ele>292</ele>
        <time>2022-08-01T08:19:27Z</time>
      </trkpt>
      <trkpt lat="45.87908" lon="1.42824">
        <ele>292.4</ele>
        <time>2022-08-01T08:19:29Z</time>
      </trkpt>
      <trkpt lat="45.87902" lon="1.42824">
        <ele>292.6</ele>
        <time>2022-08-01T08:19:31Z</time>
      </trkpt>
      <trkpt lat="45.87897" lon="1.42827">
        <ele>292.9</ele>
        <time>2022-08-01T08:19:33Z</time>
      </trkpt>
      <trkpt lat="45.87892" lon="1.42829">
        <ele>293.3</ele>
        <time>2022-08-01T08:19:35Z</time>
      </trkpt>
      <trkpt lat="45.87887" lon="1.42831">
        <ele>293.5</ele>
        <time>2022-08-01T08:19:37Z</time>
      </trkpt>
      <trkpt lat="45.87882" lon="1.42834">
        <ele>293.9</ele>
        <time>2022-08-01T08:19:39Z</time>
      </trkpt>
      <trkpt lat="45.87877" lon="1.42834">
        <ele>294</ele>
        <time>2022-08-01T08:19:41Z</time>
      </trkpt>
      <trkpt lat="45.87872" lon="1.42835">
        <ele>294.3</ele>
        <time>2022-08-01T08:19:43Z</time>
      </trkpt>
      <trkpt lat="45.87868" lon="1.42837">
        <ele>294.6</ele>
        <time>2022-08-01T08:19:45Z</time>
      </trkpt>
      <trkpt lat="45.87863" lon="1.4284">
        <ele>295</ele>
        <time>2022-08-01T08:19:47Z</time>
      </trkpt>
      <trkpt lat="45.87858" lon="1.42841">
        <ele>295.3</ele>
        <time>2022-08-01T08:19:49Z</time>
      </trkpt>
      <trkpt lat="45.87854" lon="1.42844">
        <ele>295.6</ele>
        <time>2022-08-01T08:19:51Z</time>
      </trkpt>
      <trkpt lat="45.87849" lon="1.42845">
        <ele>295.9</ele>
        <time>2022-08-01T08:19:53Z</time>
      </trkpt>
      <trkpt lat="45.87846" lon="1.42848">
        <ele>296.3</ele>
        <time>2022-08-01T08:19:55Z</time>
      </trkpt>
      <trkpt lat="45.87841" lon="1.4285">
        <ele>296.7</ele>
        <time>2022-08-01T08:19:57Z</time>
      </trkpt>
      <trkpt lat="45.87838" lon="1.42853">
        <ele>297</ele>
        <time>2022-08-01T08:19:59Z</time>
      </trkpt>
      <trkpt lat="45.87834" lon="1.42855">
        <ele>297.3</ele>
        <time>2022-08-01T08:20:01Z</time>
      </trkpt>
      <trkpt lat="45.8783" lon="1.42858">
        <ele>297.5</ele>
        <time>2022-08-01T08:20:03Z</time>
      </trkpt>
      <trkpt lat="45.87827" lon="1.42862">
        <ele>297.8</ele>
        <time>2022-08-01T08:20:05Z</time>
      </trkpt>
      <trkpt lat="45.87824" lon="1.42865">
        <ele>298</ele>
        <time>2022-08-01T08:20:07Z</time>
      </trkpt>
      <trkpt lat="45.87822" lon="1.42869">
        <ele>298.4</ele>
        <time>2022-08-01T08:20:09Z</time>
      </trkpt>
      <trkpt lat="45.87819" lon="1.42874">
        <ele>298.8</ele>
        <time>2022-08-01T08:20:11Z</time>
      </trkpt>
      <trkpt lat="45.87815" lon="1.42878">
        <ele>299.1</ele>
        <time>2022-08-01T08:20:13Z</time>
      </trkpt>
      <trkpt lat="45.87812" lon="1.42881">
        <ele>299.3</ele>
        <time>2022-08-01T08:20:15Z</time>
      </trkpt>
      <trkpt lat="45.87808" lon="1.42885">
        <ele>299.5</ele>
        <time>2022-08-01T08:20:17Z</time>
      </trkpt>
      <trkpt lat="45.87806" lon="1.42889">
        <ele>299.8</ele>
        <time>2022-08-01T08:20:19Z</time>
      </trkpt>
      <trkpt lat="45.87802" lon="1.42893">
        <ele>300.1</ele>
        <time>2022-08-01T08:20:21Z</time>
      </trkpt>
      <trkpt lat="45.878" lon="1.42897">
        <ele>300.3</ele>
        <time>2022-08-01T08:20:23Z</time>
      </trkpt>
      <trkpt lat="45.87797" lon="1.42899">
        <ele>300.4</ele>
        <time>2022-08-01T08:20:25Z</time>
      </trkpt>
      <trkpt lat="45.87793" lon="1.42902">
        <ele>300.6</ele>
        <time>2022-08-01T08:20:27Z</time>
      </trkpt>
      <trkpt lat="45.8779" lon="1.42906">
        <ele>300.8</ele>
        <time>2022-08-01T08:20:29Z</time>
      </trkpt>
      <trkpt lat="45.87788" lon="1.42909">
        <ele>301</ele>
        <time>2022-08-01T08:20:31Z</time>
      </trkpt>
      <trkpt lat="45.87784" lon="1.42913">
        <ele>301.2</ele>
        <time>2022-08-01T08:20:33Z</time>
      </trkpt>
      <trkpt lat="45.87781" lon="1.42917">
        <ele>301.5</ele>
        <time>2022-08-01T08:20:35Z</time>
      </trkpt>
      <trkpt lat="45.87778" lon="1.42921">
        <ele>301.8</ele>
        <time>2022-08-01T08:20:37Z</time>
      </trkpt>
      <trkpt lat="45.87774" lon="1.42925">
        <ele>302</ele>
        <time>2022-08-01T08:20:39Z</time>
      </trkpt>
      <trkpt lat="45.87772" lon="1.42928">
        <ele>302.2</ele>
        <time>2022-08-01T08:20:41Z</time>
      </trkpt>
      <trkpt lat="45.87769" lon="1.42932">
        <ele>302.4</ele>
        <time>2022-08-01T08:20:43Z</time>
      </trkpt>
      <trkpt lat="45.87765" lon="1.42935">
        <ele>302.6</ele>
        <time>2022-08-01T08:20:45Z</time>
      </trkpt>
      <trkpt lat="45.87762" lon="1.42939">
        <ele>302.8</ele>
        <time>2022-08-01T08:20:47Z</time>
      </trkpt>
      <trkpt lat="45.8776" lon="1.42942">
        <ele>303</ele>
        <time>2022-08-01T08:20:49Z</time>
      </trkpt>
      <trkpt lat="45.87757" lon="1.42946">
        <ele>303.2</ele>
        <time>2022-08-01T08:20:51Z</time>
      </trkpt>
      <trkpt lat="45.87754" lon="1.42948">
        <ele>303.2</ele>
        <time>2022-08-01T08:20:53Z</time>
      </trkpt>
      <trkpt lat="45.87751" lon="1.42951">
        <ele>303.4</ele>
        <time>2022-08-01T08:20:55Z</time>
      </trkpt>
      <trkpt lat="45.87749" lon="1.42954">
        <ele>303.5</ele>
        <time>2022-08-01T08:20:57Z</time>
      </trkpt>
      <trkpt lat="45.87746" lon="1.42957">
        <ele>303.7</ele>
        <time>2022-08-01T08:20:59Z</time>
      </trkpt>
      <trkpt lat="45.87744" lon="1.42961">
        <ele>303.8</ele>
        <time>2022-08-01T08:21:01Z</time>
      </trkpt>
      <trkpt lat="45.87741" lon="1.42964">
        <ele>303.9</ele>
        <time>2022-08-01T08:21:03Z</time>
      </trkpt>
      <trkpt lat="45.87738" lon="1.42967">
        <ele>304</ele>
        <time>2022-08-01T08:21:05Z</time>
      </trkpt>
      <trkpt lat="45.87735" lon="1.42971">
        <ele>304.1</ele>
        <time>2022-08-01T08:21:07Z</time>
      </trkpt>
      <trkpt lat="45.87732" lon="1.42975">
        <ele>304.3</ele>
        <time>2022-08-01T08:21:09Z</time>
      </trkpt>
      <trkpt lat="45.87729" lon="1.42979">
        <ele>304.5</ele>
        <time>2022-08-01T08:21:11Z</time>
      </trkpt>
      <trkpt lat="45.87727" lon="1.42984">
        <ele>304.7</ele>
        <time>2022-08-01T08:21:13Z</time>
      </trkpt>
      <trkpt lat="45.87724" lon="1.42987">
        <ele>304.8</ele>
        <time>2022-08-01T08:21:15Z</time>
      </trkpt>
      <trkpt lat="45.87722" lon="1.42992">
        <ele>305</ele>
        <time>2022-08-01T08:21:17Z</time>
      </trkpt>
      <trkpt lat="45.8772" lon="1.42997">
        <ele>305.2</ele>
        <time>2022-08-01T08:21:19Z</time>
      </trkpt>
      <trkpt lat="45.87718" lon="1.43001">
        <ele>305.4</ele>
        <time>2022-08-01T08:21:21Z</time>
      </trkpt>
      <trkpt lat="45.87715" lon="1.43005">
        <ele>305.5</ele>
        <time>2022-08-01T08:21:23Z</time>
      </trkpt>
      <trkpt lat="45.87713" lon="1.43009">
        <ele>305.6</ele>
        <time>2022-08-01T08:21:25Z</time>
      </trkpt>
      <trkpt lat="45.8771" lon="1.43014">
        <ele>305.8</ele>
        <time>2022-08-01T08:21:27Z</time>
      </trkpt>
      <trkpt lat="45.87709" lon="1.43019">
        <ele>306</ele>
        <time>2022-08-01T08:21:29Z</time>
      </trkpt>
      <trkpt lat="45.87707" lon="1.43024">
        <ele>306.2</ele>
        <time>2022-08-01T08:21:31Z</time>
      </trkpt>
      <trkpt lat="45.87705" lon="1.43028">
        <ele>306.4</ele>
        <time>2022-08-01T08:21:33Z</time>
      </trkpt>
      <trkpt lat="45.87703" lon="1.43032">
        <ele>306.5</ele>
        <time>2022-08-01T08:21:35Z</time>
      </trkpt>
      <trkpt lat="45.87701" lon="1.43037">
        <ele>306.7</ele>
        <time>2022-08-01T08:21:37Z</time>
      </trkpt>
      <trkpt lat="45.87699" lon="1.43043">
        <ele>307</ele>
        <time>2022-08-01T08:21:39Z</time>
      </trkpt>
      <trkpt lat="45.87697" lon="1.43048">
        <ele>307.1</ele>
        <time>2022-08-01T08:21:41Z</time>
      </trkpt>
      <trkpt lat="45.87695" lon="1.43052">
        <ele>307.3</ele>
        <time>2022-08-01T08:21:43Z</time>
      </trkpt>
      <trkpt lat="45.87692" lon="1.43058">
        <ele>307.6</ele>
        <time>2022-08-01T08:21:45Z</time>
      </trkpt>
      <trkpt lat="45.8769" lon="1.43063">
        <ele>307.7</ele>
        <time>2022-08-01T08:21:47Z</time>
      </trkpt>
      <trkpt lat="45.87688" lon="1.4307">
        <ele>308</ele>
        <time>2022-08-01T08:21:49Z</time>
      </trkpt>
      <trkpt lat="45.87685" lon="1.43075">
        <ele>308.2</ele>
        <time>2022-08-01T08:21:51Z</time>
      </trkpt>
      <trkpt lat="45.87683" lon="1.4308">
        <ele>308.4</ele>
        <time>2022-08-01T08:21:53Z</time>
      </trkpt>
      <trkpt lat="45.87681" lon="1.43086">
        <ele>308.5</ele>
        <time>2022-08-01T08:21:55Z</time>
      </trkpt>
      <trkpt lat="45.87679" lon="1.43092">
        <ele>308.5</ele>
        <time>2022-08-01T08:21:57Z</time>
      </trkpt>
      <trkpt lat="45.87676" lon="1.43098">
        <ele>308.5</ele>
        <time>2022-08-01T08:21:59Z</time>
      </trkpt>
      <trkpt lat="45.87674" lon="1.43104">
        <ele>308.6</ele>
        <time>2022-08-01T08:22:01Z</time>
      </trkpt>
      <trkpt lat="45.87671" lon="1.4311">
        <ele>308.7</ele>
        <time>2022-08-01T08:22:03Z</time>
      </trkpt>
      <trkpt lat="45.87668" lon="1.43117">
        <ele>308.7</ele>
        <time>2022-08-01T08:22:05Z</time>
      </trkpt>
      <trkpt lat="45.87666" lon="1.43123">
        <ele>308.8</ele>
        <time>2022-08-01T08:22:07Z</time>
      </trkpt>
      <trkpt lat="45.87663" lon="1.4313">
        <ele>309</ele>
        <time>2022-08-01T08:22:09Z</time>
      </trkpt>
      <trkpt lat="45.87661" lon="1.43136">
        <ele>309.1</ele>
        <time>2022-08-01T08:22:11Z</time>
      </trkpt>
      <trkpt lat="45.87658" lon="1.43142">
        <ele>309.2</ele>
        <time>2022-08-01T08:22:13Z</time>
      </trkpt>
      <trkpt lat="45.87655" lon="1.43148">
        <ele>309.3</ele>
        <time>2022-08-01T08:22:15Z</time>
      </trkpt>
      <trkpt lat="45.87652" lon="1.43155">
        <ele>309.4</ele>
        <time>2022-08-01T08:22:17Z</time>
      </trkpt>
      <trkpt lat="45.87649" lon="1.43161">
        <ele>309.5</ele>
        <time>2022-08-01T08:22:19Z</time>
      </trkpt>
      <trkpt lat="45.87647" lon="1.43167">
        <ele>309.6</ele>
        <time>2022-08-01T08:22:21Z</time>
      </trkpt>
      <trkpt lat="45.87644" lon="1.43173">
        <ele>309.5</ele>
        <time>2022-08-01T08:22:23Z</time>
      </trkpt>
      <trkpt lat="45.87641" lon="1.43179">
        <ele>309.5</ele>
        <time>2022-08-01T08:22:25Z</time>
      </trkpt>
      <trkpt lat="45.87639" lon="1.43185">
        <ele>309.5</ele>
        <time>2022-08-01T08:22:27Z</time>
      </trkpt>
      <trkpt lat="45.87636" lon="1.43191">
        <ele>309.4</ele>
        <time>2022-08-01T08:22:29Z</time>
      </trkpt>
      <trkpt lat="45.87634" lon="1.43197">
        <ele>309.5</ele>
        <time>2022-08-01T08:22:31Z</time>
      </trkpt>
      <trkpt lat="45.87632" lon="1.43204">
        <ele>309.5</ele>
        <time>2022-08-01T08:22:33Z</time>
      </trkpt>
      <trkpt lat="45.8763" lon="1.4321">
        <ele>309.5</ele>
        <time>2022-08-01T08:22:35Z</time>
      </trkpt>
      <trkpt lat="45.87628" lon="1.43216">
        <ele>309.6</ele>
        <time>2022-08-01T08:22:37Z</time>
      </trkpt>
      <trkpt lat="45.87625" lon="1.43222">
        <ele>309.7</ele>
        <time>2022-08-01T08:22:39Z</time>
      </trkpt>
      <trkpt lat="45.87623" lon="1.43228">
        <ele>309.8</ele>
        <time>2022-08-01T08:22:41Z</time>
      </trkpt>
      <trkpt lat="45.87621" lon="1.43235">
        <ele>309.9</ele>
        <time>2022-08-01T08:22:43Z</time>
      </trkpt>
      <trkpt lat="45.8762" lon="1.43241">
        <ele>310.1</ele>
        <time>2022-08-01T08:22:45Z</time>
      </trkpt>
      <trkpt lat="45.87619" lon="1.43248">
        <ele>310.2</ele>
        <time>2022-08-01T08:22:47Z</time>
      </trkpt>
      <trkpt lat="45.87619" lon="1.43255">
        <ele>310.3</ele>
        <time>2022-08-01T08:22:49Z</time>
      </trkpt>
      <trkpt lat="45.87619" lon="1.43262">
        <ele>310.4</ele>
        <time>2022-08-01T08:22:51Z</time>
      </trkpt>
      <trkpt lat="45.8762" lon="1.43269">
        <ele>310.4</ele>
        <time>2022-08-01T08:22:53Z</time>
      </trkpt>
      <trkpt lat="45.87621" lon="1.43276">
        <ele>310.5</ele>
        <time>2022-08-01T08:22:55Z</time>
      </trkpt>
      <trkpt lat="45.87623" lon="1.43282">
        <ele>310.6</ele>
        <time>2022-08-01T08:22:57Z</time>
      </trkpt>
      <trkpt lat="45.87625" lon="1.43288">
        <ele>310.7</ele>
        <time>2022-08-01T08:22:59Z</time>
      </trkpt>
      <trkpt lat="45.87628" lon="1.43294">
        <ele>310.9</ele>
        <time>2022-08-01T08:23:01Z</time>
      </trkpt>
      <trkpt lat="45.87631" lon="1.433">
        <ele>311</ele>
        <time>2022-08-01T08:23:03Z</time>
      </trkpt>
      <trkpt lat="45.87633" lon="1.43306">
        <ele>311.2</ele>
        <time>2022-08-01T08:23:05Z</time>
      </trkpt>
      <trkpt lat="45.87636" lon="1.43312">
        <ele>311.4</ele>
        <time>2022-08-01T08:23:07Z</time>
      </trkpt>
      <trkpt lat="45.87639" lon="1.43317">
        <ele>311.5</ele>
        <time>2022-08-01T08:23:09Z</time>
      </trkpt>
      <trkpt lat="45.87642" lon="1.43323">
        <ele>311.7</ele>
        <time>2022-08-01T08:23:11Z</time>
      </trkpt>
      <trkpt lat="45.87645" lon="1.43328">
        <ele>311.9</ele>
        <time>2022-08-01T08:23:13Z</time>
      </trkpt>
      <trkpt lat="45.87648" lon="1.43334">
        <ele>312.1</ele>
        <time>2022-08-01T08:23:15Z</time>
      </trkpt>
      <trkpt lat="45.87651" lon="1.43339">
        <ele>312.3</ele>
        <time>2022-08-01T08:23:17Z</time>
      </trkpt>
      <trkpt lat="45.87654" lon="1.43345">
        <ele>312.5</ele>
        <time>2022-08-01T08:23:19Z</time>
      </trkpt>
      <trkpt lat="45.87657" lon="1.4335">
        <ele>312.7</ele>
        <time>2022-08-01T08:23:21Z</time>
      </trkpt>
      <trkpt lat="45.87661" lon="1.43355">
        <ele>313</ele>
        <time>2022-08-01T08:23:23Z</time>
      </trkpt>
      <trkpt lat="45.87663" lon="1.4336">
        <ele>313.2</ele>
        <time>2022-08-01T08:23:25Z</time>
      </trkpt>
      <trkpt lat="45.87666" lon="1.43366">
        <ele>313.3</ele>
        <time>2022-08-01T08:23:27Z</time>
      </trkpt>
      <trkpt lat="45.87669" lon="1.43372">
        <ele>313.6</ele>
        <time>2022-08-01T08:23:29Z</time>
      </trkpt>
      <trkpt lat="45.87672" lon="1.43377">
        <ele>313.8</ele>
        <time>2022-08-01T08:23:31Z</time>
      </trkpt>
      <trkpt lat="45.87673" lon="1.43384">
        <ele>314.1</ele>
        <time>2022-08-01T08:23:33Z</time>
      </trkpt>
      <trkpt lat="45.87676" lon="1.4339">
        <ele>314.3</ele>
        <time>2022-08-01T08:23:35Z</time>
      </trkpt>
      <trkpt lat="45.87677" lon="1.43397">
        <ele>314.5</ele>
        <time>2022-08-01T08:23:37Z</time>
      </trkpt>
      <trkpt lat="45.87678" lon="1.43403">
        <ele>314.7</ele>
        <time>2022-08-01T08:23:39Z</time>
      </trkpt>
      <trkpt lat="45.87679" lon="1.4341">
        <ele>314.8</ele>
        <time>2022-08-01T08:23:41Z</time>
      </trkpt>
      <trkpt lat="45.87679" lon="1.43416">
        <ele>314.9</ele>
        <time>2022-08-01T08:23:43Z</time>
      </trkpt>
      <trkpt lat="45.87679" lon="1.43423">
        <ele>315.2</ele>
        <time>2022-08-01T08:23:45Z</time>
      </trkpt>
      <trkpt lat="45.87679" lon="1.43429">
        <ele>315.6</ele>
        <time>2022-08-01T08:23:47Z</time>
      </trkpt>
      <trkpt lat="45.87678" lon="1.43435">
        <ele>315.9</ele>
        <time>2022-08-01T08:23:49Z</time>
      </trkpt>
      <trkpt lat="45.87678" lon="1.43441">
        <ele>316.1</ele>
        <time>2022-08-01T08:23:51Z</time>
      </trkpt>
      <trkpt lat="45.87677" lon="1.43447">
        <ele>316.4</ele>
        <time>2022-08-01T08:23:53Z</time>
      </trkpt>
      <trkpt lat="45.87676" lon="1.43453">
        <ele>316.7</ele>
        <time>2022-08-01T08:23:55Z</time>
      </trkpt>
      <trkpt lat="45.87675" lon="1.43459">
        <ele>317</ele>
        <time>2022-08-01T08:23:57Z</time>
      </trkpt>
      <trkpt lat="45.87674" lon="1.43465">
        <ele>317.3</ele>
        <time>2022-08-01T08:23:59Z</time>
      </trkpt>
      <trkpt lat="45.87672" lon="1.43471">
        <ele>317.5</ele>
        <time>2022-08-01T08:24:01Z</time>
      </trkpt>
      <trkpt lat="45.87672" lon="1.43476">
        <ele>317.8</ele>
        <time>2022-08-01T08:24:03Z</time>
      </trkpt>
      <trkpt lat="45.87671" lon="1.43482">
        <ele>318.1</ele>
        <time>2022-08-01T08:24:05Z</time>
      </trkpt>
      <trkpt lat="45.8767" lon="1.43488">
        <ele>318.4</ele>
        <time>2022-08-01T08:24:07Z</time>
      </trkpt>
      <trkpt lat="45.87669" lon="1.43494">
        <ele>318.7</ele>
        <time>2022-08-01T08:24:09Z</time>
      </trkpt>
      <trkpt lat="45.87668" lon="1.435">
        <ele>319</ele>
        <time>2022-08-01T08:24:11Z</time>
      </trkpt>
      <trkpt lat="45.87667" lon="1.43506">
        <ele>319.4</ele>
        <time>2022-08-01T08:24:13Z</time>
      </trkpt>
      <trkpt lat="45.87666" lon="1.43511">
        <ele>319.8</ele>
        <time>2022-08-01T08:24:15Z</time>
      </trkpt>
      <trkpt lat="45.87665" lon="1.43517">
        <ele>320.2</ele>
        <time>2022-08-01T08:24:17Z</time>
      </trkpt>
      <trkpt lat="45.87664" lon="1.43523">
        <ele>320.5</ele>
        <time>2022-08-01T08:24:19Z</time>
      </trkpt>
      <trkpt lat="45.87663" lon="1.43529">
        <ele>320.9</ele>
        <time>2022-08-01T08:24:21Z</time>
      </trkpt>
      <trkpt lat="45.87662" lon="1.43535">
        <ele>321.3</ele>
        <time>2022-08-01T08:24:23Z</time>
      </trkpt>
      <trkpt lat="45.87661" lon="1.43541">
        <ele>321.6</ele>
        <time>2022-08-01T08:24:25Z</time>
      </trkpt>
      <trkpt lat="45.87659" lon="1.43547">
        <ele>322</ele>
        <time>2022-08-01T08:24:27Z</time>
      </trkpt>
      <trkpt lat="45.87658" lon="1.43553">
        <ele>322.4</ele>
        <time>2022-08-01T08:24:29Z</time>
      </trkpt>
      <trkpt lat="45.87657" lon="1.43559">
        <ele>322.8</ele>
        <time>2022-08-01T08:24:31Z</time>
      </trkpt>
      <trkpt lat="45.87656" lon="1.43565">
        <ele>323.2</ele>
        <time>2022-08-01T08:24:33Z</time>
      </trkpt>
      <trkpt lat="45.87654" lon="1.4357">
        <ele>323.5</ele>
        <time>2022-08-01T08:24:35Z</time>
      </trkpt>
      <trkpt lat="45.87652" lon="1.43576">
        <ele>323.8</ele>
        <time>2022-08-01T08:24:37Z</time>
      </trkpt>
      <trkpt lat="45.8765" lon="1.43582">
        <ele>324.1</ele>
        <time>2022-08-01T08:24:39Z</time>
      </trkpt>
      <trkpt lat="45.87648" lon="1.43587">
        <ele>324.3</ele>
        <time>2022-08-01T08:24:41Z</time>
      </trkpt>
      <trkpt lat="45.87645" lon="1.43592">
        <ele>324.4</ele>
        <time>2022-08-01T08:24:43Z</time>
      </trkpt>
      <trkpt lat="45.87642" lon="1.43597">
        <ele>324.6</ele>
        <time>2022-08-01T08:24:45Z</time>
      </trkpt>
      <trkpt lat="45.87639" lon="1.43602">
        <ele>324.7</ele>
        <time>2022-08-01T08:24:47Z</time>
      </trkpt>
      <trkpt lat="45.87636" lon="1.43606">
        <ele>324.8</ele>
        <time>2022-08-01T08:24:49Z</time>
      </trkpt>
      <trkpt lat="45.87633" lon="1.43611">
        <ele>324.9</ele>
        <time>2022-08-01T08:24:51Z</time>
      </trkpt>
      <trkpt lat="45.87629" lon="1.43615">
        <ele>324.9</ele>
        <time>2022-08-01T08:24:53Z</time>
      </trkpt>
      <trkpt lat="45.87625" lon="1.43619">
        <ele>325</ele>
        <time>2022-08-01T08:24:55Z</time>
      </trkpt>
      <trkpt lat="45.87622" lon="1.43624">
        <ele>325</ele>
        <time>2022-08-01T08:24:57Z</time>
      </trkpt>
      <trkpt lat="45.87618" lon="1.43628">
        <ele>325</ele>
        <time>2022-08-01T08:24:59Z</time>
      </trkpt>
      <trkpt lat="45.87615" lon="1.43632">
        <ele>325.1</ele>
        <time>2022-08-01T08:25:01Z</time>
      </trkpt>
      <trkpt lat="45.87611" lon="1.43636">
        <ele>325.1</ele>
        <time>2022-08-01T08:25:03Z</time>
      </trkpt>
      <trkpt lat="45.87608" lon="1.4364">
        <ele>325.1</ele>
        <time>2022-08-01T08:25:05Z</time>
      </trkpt>
      <trkpt lat="45.87605" lon="1.43644">
        <ele>325.1</ele>
        <time>2022-08-01T08:25:07Z</time>
      </trkpt>
      <trkpt lat="45.87602" lon="1.43648">
        <ele>325.1</ele>
        <time>2022-08-01T08:25:09Z</time>
      </trkpt>
      <trkpt lat="45.87598" lon="1.43653">
        <ele>325.2</ele>
        <time>2022-08-01T08:25:11Z</time>
      </trkpt>
      <trkpt lat="45.87595" lon="1.43658">
        <ele>325.3</ele>
        <time>2022-08-01T08:25:13Z</time>
      </trkpt>
      <trkpt lat="45.87593" lon="1.43663">
        <ele>325.4</ele>
        <time>2022-08-01T08:25:15Z</time>
      </trkpt>
      <trkpt lat="45.87591" lon="1.43668">
        <ele>325.5</ele>
        <time>2022-08-01T08:25:17Z</time>
      </trkpt>
      <trkpt lat="45.8759" lon="1.43675">
        <ele>325.6</ele>
        <time>2022-08-01T08:25:19Z</time>
      </trkpt>
      <trkpt lat="45.87589" lon="1.43681">
        <ele>325.7</ele>
        <time>2022-08-01T08:25:21Z</time>
      </trkpt>
      <trkpt lat="45.87588" lon="1.43688">
        <ele>325.8</ele>
        <time>2022-08-01T08:25:23Z</time>
      </trkpt>
      <trkpt lat="45.87588" lon="1.43693">
        <ele>325.9</ele>
        <time>2022-08-01T08:25:25Z</time>
      </trkpt>
      <trkpt lat="45.87589" lon="1.43699">
        <ele>326.1</ele>
        <time>2022-08-01T08:25:27Z</time>
      </trkpt>
      <trkpt lat="45.8759" lon="1.43704">
        <ele>326.3</ele>
        <time>2022-08-01T08:25:29Z</time>
      </trkpt>
      <trkpt lat="45.87591" lon="1.43709">
        <ele>326.6</ele>
        <time>2022-08-01T08:25:31Z</time>
      </trkpt>
      <trkpt lat="45.87594" lon="1.43715">
        <ele>326.9</ele>
        <time>2022-08-01T08:25:33Z</time>
      </trkpt>
      <trkpt lat="45.87596" lon="1.4372">
        <ele>327.1</ele>
        <time>2022-08-01T08:25:35Z</time>
      </trkpt>
      <trkpt lat="45.87599" lon="1.43724">
        <ele>327.4</ele>
        <time>2022-08-01T08:25:37Z</time>
      </trkpt>
      <trkpt lat="45.87601" lon="1.43729">
        <ele>327.7</ele>
        <time>2022-08-01T08:25:39Z</time>
      </trkpt>
      <trkpt lat="45.87603" lon="1.43733">
        <ele>328</ele>
        <time>2022-08-01T08:25:41Z</time>
      </trkpt>
      <trkpt lat="45.87605" lon="1.43738">
        <ele>328.3</ele>
        <time>2022-08-01T08:25:43Z</time>
      </trkpt>
      <trkpt lat="45.87608" lon="1.43742">
        <ele>328.6</ele>
        <time>2022-08-01T08:25:45Z</time>
      </trkpt>
      <trkpt lat="45.87611" lon="1.43747">
        <ele>328.9</ele>
        <time>2022-08-01T08:25:47Z</time>
      </trkpt>
      <trkpt lat="45.87614" lon="1.43752">
        <ele>329.2</ele>
        <time>2022-08-01T08:25:49Z</time>
      </trkpt>
      <trkpt lat="45.87616" lon="1.43757">
        <ele>329.2</ele>
        <time>2022-08-01T08:25:51Z</time>
      </trkpt>
      <trkpt lat="45.87618" lon="1.43762">
        <ele>329.4</ele>
        <time>2022-08-01T08:25:53Z</time>
      </trkpt>
      <trkpt lat="45.87621" lon="1.43767">
        <ele>329.5</ele>
        <time>2022-08-01T08:25:55Z</time>
      </trkpt>
      <trkpt lat="45.87624" lon="1.43771">
        <ele>329.6</ele>
        <time>2022-08-01T08:25:57Z</time>
      </trkpt>
      <trkpt lat="45.87626" lon="1.43776">
        <ele>329.8</ele>
        <time>2022-08-01T08:25:59Z</time>
      </trkpt>
      <trkpt lat="45.87629" lon="1.43781">
        <ele>330</ele>
        <time>2022-08-01T08:26:01Z</time>
      </trkpt>
      <trkpt lat="45.87632" lon="1.43786">
        <ele>330.1</ele>
        <time>2022-08-01T08:26:03Z</time>
      </trkpt>
      <trkpt lat="45.87634" lon="1.43791">
        <ele>330.3</ele>
        <time>2022-08-01T08:26:05Z</time>
      </trkpt>
      <trkpt lat="45.87637" lon="1.43795">
        <ele>330.5</ele>
        <time>2022-08-01T08:26:07Z</time>
      </trkpt>
      <trkpt lat="45.8764" lon="1.43801">
        <ele>330.7</ele>
        <time>2022-08-01T08:26:09Z</time>
      </trkpt>
      <trkpt lat="45.87642" lon="1.43805">
        <ele>330.9</ele>
        <time>2022-08-01T08:26:11Z</time>
      </trkpt>
      <trkpt lat="45.87645" lon="1.4381">
        <ele>331.1</ele>
        <time>2022-08-01T08:26:13Z</time>
      </trkpt>
      <trkpt lat="45.87648" lon="1.43815">
        <ele>331.3</ele>
        <time>2022-08-01T08:26:15Z</time>
      </trkpt>
      <trkpt lat="45.8765" lon="1.43819">
        <ele>331.5</ele>
        <time>2022-08-01T08:26:17Z</time>
      </trkpt>
      <trkpt lat="45.87653" lon="1.43824">
        <ele>331.7</ele>
        <time>2022-08-01T08:26:19Z</time>
      </trkpt>
      <trkpt lat="45.87655" lon="1.43829">
        <ele>331.9</ele>
        <time>2022-08-01T08:26:21Z</time>
      </trkpt>
      <trkpt lat="45.87658" lon="1.43834">
        <ele>332.1</ele>
        <time>2022-08-01T08:26:23Z</time>
      </trkpt>
      <trkpt lat="45.87661" lon="1.43838">
        <ele>332.2</ele>
        <time>2022-08-01T08:26:25Z</time>
      </trkpt>
      <trkpt lat="45.87663" lon="1.43843">
        <ele>332.3</ele>
        <time>2022-08-01T08:26:27Z</time>
      </trkpt>
      <trkpt lat="45.87666" lon="1.43847">
        <ele>332.3</ele>
        <time>2022-08-01T08:26:29Z</time>
      </trkpt>
      <trkpt lat="45.87669" lon="1.43852">
        <ele>332.4</ele>
        <time>2022-08-01T08:26:31Z</time>
      </trkpt>
      <trkpt lat="45.87672" lon="1.43857">
        <ele>332.6</ele>
        <time>2022-08-01T08:26:33Z</time>
      </trkpt>
      <trkpt lat="45.87675" lon="1.43861">
        <ele>332.8</ele>
        <time>2022-08-01T08:26:35Z</time>
      </trkpt>
      <trkpt lat="45.87678" lon="1.43866">
        <ele>332.9</ele>
        <time>2022-08-01T08:26:37Z</time>
      </trkpt>
      <trkpt lat="45.87681" lon="1.4387">
        <ele>333.2</ele>
        <time>2022-08-01T08:26:39Z</time>
      </trkpt>
      <trkpt lat="45.87685" lon="1.43873">
        <ele>333.5</ele>
        <time>2022-08-01T08:26:41Z</time>
      </trkpt>
      <trkpt lat="45.87688" lon="1.43878">
        <ele>333.7</ele>
        <time>2022-08-01T08:26:43Z</time>
      </trkpt>
      <trkpt lat="45.87691" lon="1.43882">
        <ele>334</ele>
        <time>2022-08-01T08:26:45Z</time>
      </trkpt>
      <trkpt lat="45.87695" lon="1.43886">
        <ele>334.3</ele>
        <time>2022-08-01T08:26:47Z</time>
      </trkpt>
      <trkpt lat="45.87699" lon="1.4389">
        <ele>334.7</ele>
        <time>2022-08-01T08:26:49Z</time>
      </trkpt>
      <trkpt lat="45.87702" lon="1.43894">
        <ele>335</ele>
        <time>2022-08-01T08:26:51Z</time>
      </trkpt>
      <trkpt lat="45.87706" lon="1.43897">
        <ele>335.4</ele>
        <time>2022-08-01T08:26:53Z</time>
      </trkpt>
      <trkpt lat="45.87709" lon="1.43901">
        <ele>335.7</ele>
        <time>2022-08-01T08:26:55Z</time>
      </trkpt>
      <trkpt lat="45.87713" lon="1.43905">
        <ele>336</ele>
        <time>2022-08-01T08:26:57Z</time>
      </trkpt>
      <trkpt lat="45.87716" lon="1.43909">
        <ele>336.3</ele>
        <time>2022-08-01T08:26:59Z</time>
      </trkpt>
      <trkpt lat="45.87718" lon="1.43914">
        <ele>336.5</ele>
        <time>2022-08-01T08:27:01Z</time>
      </trkpt>
      <trkpt lat="45.87721" lon="1.43919">
        <ele>337</ele>
        <time>2022-08-01T08:27:03Z</time>
      </trkpt>
      <trkpt lat="45.87724" lon="1.43925">
        <ele>337.8</ele>
        <time>2022-08-01T08:27:05Z</time>
      </trkpt>
      <trkpt lat="45.87726" lon="1.4393">
        <ele>338.4</ele>
        <time>2022-08-01T08:27:07Z</time>
      </trkpt>
      <trkpt lat="45.87728" lon="1.43935">
        <ele>339</ele>
        <time>2022-08-01T08:27:09Z</time>
      </trkpt>
      <trkpt lat="45.8773" lon="1.43942">
        <ele>339.6</ele>
        <time>2022-08-01T08:27:11Z</time>
      </trkpt>
      <trkpt lat="45.87731" lon="1.43948">
        <ele>340.2</ele>
        <time>2022-08-01T08:27:13Z</time>
      </trkpt>
      <trkpt lat="45.87732" lon="1.43954">
        <ele>340.7</ele>
        <time>2022-08-01T08:27:15Z</time>
      </trkpt>
      <trkpt lat="45.87733" lon="1.4396">
        <ele>341.1</ele>
        <time>2022-08-01T08:27:17Z</time>
      </trkpt>
      <trkpt lat="45.87732" lon="1.43967">
        <ele>341.5</ele>
        <time>2022-08-01T08:27:19Z</time>
      </trkpt>
      <trkpt lat="45.87732" lon="1.43973">
        <ele>341.8</ele>
        <time>2022-08-01T08:27:21Z</time>
      </trkpt>
      <trkpt lat="45.8773" lon="1.43979">
        <ele>342</ele>
        <time>2022-08-01T08:27:23Z</time>
      </trkpt>
      <trkpt lat="45.87728" lon="1.43985">
        <ele>342.3</ele>
        <time>2022-08-01T08:27:25Z</time>
      </trkpt>
      <trkpt lat="45.87727" lon="1.43991">
        <ele>342.4</ele>
        <time>2022-08-01T08:27:27Z</time>
      </trkpt>
      <trkpt lat="45.87724" lon="1.43995">
        <ele>342.5</ele>
        <time>2022-08-01T08:27:29Z</time>
      </trkpt>
      <trkpt lat="45.87721" lon="1.44">
        <ele>342.5</ele>
        <time>2022-08-01T08:27:31Z</time>
      </trkpt>
      <trkpt lat="45.87717" lon="1.44004">
        <ele>342.5</ele>
        <time>2022-08-01T08:27:33Z</time>
      </trkpt>
      <trkpt lat="45.87714" lon="1.44009">
        <ele>342.6</ele>
        <time>2022-08-01T08:27:35Z</time>
      </trkpt>
      <trkpt lat="45.87711" lon="1.44013">
        <ele>342.7</ele>
        <time>2022-08-01T08:27:37Z</time>
      </trkpt>
      <trkpt lat="45.87707" lon="1.44017">
        <ele>342.6</ele>
        <time>2022-08-01T08:27:39Z</time>
      </trkpt>
      <trkpt lat="45.87704" lon="1.44021">
        <ele>342.7</ele>
        <time>2022-08-01T08:27:41Z</time>
      </trkpt>
      <trkpt lat="45.87701" lon="1.44025">
        <ele>342.8</ele>
        <time>2022-08-01T08:27:43Z</time>
      </trkpt>
      <trkpt lat="45.87697" lon="1.44029">
        <ele>342.8</ele>
        <time>2022-08-01T08:27:45Z</time>
      </trkpt>
      <trkpt lat="45.87693" lon="1.44033">
        <ele>342.9</ele>
        <time>2022-08-01T08:27:47Z</time>
      </trkpt>
      <trkpt lat="45.8769" lon="1.44038">
        <ele>343.1</ele>
        <time>2022-08-01T08:27:49Z</time>
      </trkpt>
      <trkpt lat="45.87687" lon="1.44042">
        <ele>343.2</ele>
        <time>2022-08-01T08:27:51Z</time>
      </trkpt>
      <trkpt lat="45.87683" lon="1.44046">
        <ele>343.4</ele>
        <time>2022-08-01T08:27:53Z</time>
      </trkpt>
      <trkpt lat="45.8768" lon="1.4405">
        <ele>343.6</ele>
        <time>2022-08-01T08:27:55Z</time>
      </trkpt>
      <trkpt lat="45.87677" lon="1.44055">
        <ele>343.8</ele>
        <time>2022-08-01T08:27:57Z</time>
      </trkpt>
      <trkpt lat="45.87674" lon="1.44059">
        <ele>344</ele>
        <time>2022-08-01T08:27:59Z</time>
      </trkpt>
      <trkpt lat="45.87671" lon="1.44063">
        <ele>344.2</ele>
        <time>2022-08-01T08:28:01Z</time>
      </trkpt>
      <trkpt lat="45.87667" lon="1.44068">
        <ele>344.5</ele>
        <time>2022-08-01T08:28:03Z</time>
      </trkpt>
      <trkpt lat="45.87665" lon="1.44073">
        <ele>344.8</ele>
        <time>2022-08-01T08:28:05Z</time>
      </trkpt>
      <trkpt lat="45.87662" lon="1.44078">
        <ele>345.1</ele>
        <time>2022-08-01T08:28:07Z</time>
      </trkpt>
      <trkpt lat="45.87659" lon="1.44084">
        <ele>345.5</ele>
        <time>2022-08-01T08:28:09Z</time>
      </trkpt>
      <trkpt lat="45.87658" lon="1.44089">
        <ele>345.4</ele>
        <time>2022-08-01T08:28:11Z</time>
      </trkpt>
      <trkpt lat="45.87656" lon="1.44095">
        <ele>345.4</ele>
        <time>2022-08-01T08:28:13Z</time>
      </trkpt>
      <trkpt lat="45.87655" lon="1.44102">
        <ele>345.5</ele>
        <time>2022-08-01T08:28:15Z</time>
      </trkpt>
      <trkpt lat="45.87655" lon="1.44108">
        <ele>345.6</ele>
        <time>2022-08-01T08:28:17Z</time>
      </trkpt>
      <trkpt lat="45.87654" lon="1.44114">
        <ele>345.6</ele>
        <time>2022-08-01T08:28:19Z</time>
      </trkpt>
      <trkpt lat="45.87655" lon="1.44121">
        <ele>345.8</ele>
        <time>2022-08-01T08:28:21Z</time>
      </trkpt>
      <trkpt lat="45.87655" lon="1.44128">
        <ele>345.9</ele>
        <time>2022-08-01T08:28:23Z</time>
      </trkpt>
      <trkpt lat="45.87656" lon="1.44134">
        <ele>346.1</ele>
        <time>2022-08-01T08:28:25Z</time>
      </trkpt>
      <trkpt lat="45.87657" lon="1.44141">
        <ele>346.2</ele>
        <time>2022-08-01T08:28:27Z</time>
      </trkpt>
      <trkpt lat="45.87658" lon="1.44147">
        <ele>346.4</ele>
        <time>2022-08-01T08:28:29Z</time>
      </trkpt>
      <trkpt lat="45.8766" lon="1.44154">
        <ele>346.6</ele>
        <time>2022-08-01T08:28:31Z</time>
      </trkpt>
      <trkpt lat="45.87661" lon="1.44161">
        <ele>346.7</ele>
        <time>2022-08-01T08:28:33Z</time>
      </trkpt>
      <trkpt lat="45.87662" lon="1.44168">
        <ele>346.8</ele>
        <time>2022-08-01T08:28:35Z</time>
      </trkpt>
      <trkpt lat="45.87663" lon="1.44175">
        <ele>346.9</ele>
        <time>2022-08-01T08:28:37Z</time>
      </trkpt>
      <trkpt lat="45.87664" lon="1.44182">
        <ele>346.9</ele>
        <time>2022-08-01T08:28:39Z</time>
      </trkpt>
      <trkpt lat="45.87665" lon="1.44189">
        <ele>346.9</ele>
        <time>2022-08-01T08:28:41Z</time>
      </trkpt>
      <trkpt lat="45.87666" lon="1.44196">
        <ele>347</ele>
        <time>2022-08-01T08:28:43Z</time>
      </trkpt>
      <trkpt lat="45.87666" lon="1.44203">
        <ele>347</ele>
        <time>2022-08-01T08:28:45Z</time>
      </trkpt>
      <trkpt lat="45.87666" lon="1.44209">
        <ele>347</ele>
        <time>2022-08-01T08:28:47Z</time>
      </trkpt>
      <trkpt lat="45.87667" lon="1.44214">
        <ele>347</ele>
        <time>2022-08-01T08:28:49Z</time>
      </trkpt>
      <trkpt lat="45.87666" lon="1.44221">
        <ele>347</ele>
        <time>2022-08-01T08:28:51Z</time>
      </trkpt>
      <trkpt lat="45.87666" lon="1.44228">
        <ele>347</ele>
        <time>2022-08-01T08:28:53Z</time>
      </trkpt>
      <trkpt lat="45.87666" lon="1.44234">
        <ele>347</ele>
        <time>2022-08-01T08:28:55Z</time>
      </trkpt>
      <trkpt lat="45.87666" lon="1.44241">
        <ele>347</ele>
        <time>2022-08-01T08:28:57Z</time>
      </trkpt>
      <trkpt lat="45.87666" lon="1.44247">
        <ele>347</ele>
        <time>2022-08-01T08:28:59Z</time>
      </trkpt>
      <trkpt lat="45.87665" lon="1.44254">
        <ele>347</ele>
        <time>2022-08-01T08:29:01Z</time>
      </trkpt>
      <trkpt lat="45.87664" lon="1.44261">
        <ele>346.9</ele>
        <time>2022-08-01T08:29:03Z</time>
      </trkpt>
      <trkpt lat="45.87662" lon="1.44268">
        <ele>346.9</ele>
        <time>2022-08-01T08:29:05Z</time>
      </trkpt>
      <trkpt lat="45.87662" lon="1.44276">
        <ele>346.9</ele>
        <time>2022-08-01T08:29:07Z</time>
      </trkpt>
      <trkpt lat="45.87661" lon="1.44285">
        <ele>346.9</ele>
        <time>2022-08-01T08:29:09Z</time>
      </trkpt>
      <trkpt lat="45.8766" lon="1.44293">
        <ele>346.9</ele>
        <time>2022-08-01T08:29:11Z</time>
      </trkpt>
      <trkpt lat="45.87659" lon="1.443">
        <ele>346.9</ele>
        <time>2022-08-01T08:29:13Z</time>
      </trkpt>
      <trkpt lat="45.87657" lon="1.44309">
        <ele>346.9</ele>
        <time>2022-08-01T08:29:15Z</time>
      </trkpt>
      <trkpt lat="45.87656" lon="1.44316">
        <ele>346.8</ele>
        <time>2022-08-01T08:29:17Z</time>
      </trkpt>
      <trkpt lat="45.87654" lon="1.44324">
        <ele>346.8</ele>
        <time>2022-08-01T08:29:19Z</time>
      </trkpt>
      <trkpt lat="45.87652" lon="1.44333">
        <ele>346.8</ele>
        <time>2022-08-01T08:29:21Z</time>
      </trkpt>
      <trkpt lat="45.8765" lon="1.4434">
        <ele>347</ele>
        <time>2022-08-01T08:29:23Z</time>
      </trkpt>
      <trkpt lat="45.87648" lon="1.44347">
        <ele>347.2</ele>
        <time>2022-08-01T08:29:25Z</time>
      </trkpt>
      <trkpt lat="45.87646" lon="1.44354">
        <ele>347.4</ele>
        <time>2022-08-01T08:29:27Z</time>
      </trkpt>
      <trkpt lat="45.87644" lon="1.4436">
        <ele>347.6</ele>
        <time>2022-08-01T08:29:29Z</time>
      </trkpt>
      <trkpt lat="45.87642" lon="1.44367">
        <ele>347.8</ele>
        <time>2022-08-01T08:29:31Z</time>
      </trkpt>
      <trkpt lat="45.8764" lon="1.44373">
        <ele>348</ele>
        <time>2022-08-01T08:29:33Z</time>
      </trkpt>
      <trkpt lat="45.87638" lon="1.4438">
        <ele>348.2</ele>
        <time>2022-08-01T08:29:35Z</time>
      </trkpt>
      <trkpt lat="45.87635" lon="1.44387">
        <ele>348.4</ele>
        <time>2022-08-01T08:29:37Z</time>
      </trkpt>
      <trkpt lat="45.87632" lon="1.44394">
        <ele>348.6</ele>
        <time>2022-08-01T08:29:39Z</time>
      </trkpt>
      <trkpt lat="45.8763" lon="1.444">
        <ele>348.9</ele>
        <time>2022-08-01T08:29:41Z</time>
      </trkpt>
      <trkpt lat="45.87627" lon="1.44407">
        <ele>349.1</ele>
        <time>2022-08-01T08:29:43Z</time>
      </trkpt>
      <trkpt lat="45.87624" lon="1.44413">
        <ele>349.4</ele>
        <time>2022-08-01T08:29:45Z</time>
      </trkpt>
      <trkpt lat="45.87621" lon="1.44419">
        <ele>349.6</ele>
        <time>2022-08-01T08:29:47Z</time>
      </trkpt>
      <trkpt lat="45.87619" lon="1.44426">
        <ele>349.7</ele>
        <time>2022-08-01T08:29:49Z</time>
      </trkpt>
      <trkpt lat="45.87616" lon="1.44431">
        <ele>349.7</ele>
        <time>2022-08-01T08:29:51Z</time>
      </trkpt>
      <trkpt lat="45.87613" lon="1.44437">
        <ele>349.8</ele>
        <time>2022-08-01T08:29:53Z</time>
      </trkpt>
      <trkpt lat="45.8761" lon="1.44442">
        <ele>349.9</ele>
        <time>2022-08-01T08:29:55Z</time>
      </trkpt>
      <trkpt lat="45.87606" lon="1.44447">
        <ele>349.9</ele>
        <time>2022-08-01T08:29:57Z</time>
      </trkpt>
      <trkpt lat="45.87603" lon="1.44453">
        <ele>350</ele>
        <time>2022-08-01T08:29:59Z</time>
      </trkpt>
      <trkpt lat="45.876" lon="1.44459">
        <ele>350</ele>
        <time>2022-08-01T08:30:01Z</time>
      </trkpt>
      <trkpt lat="45.87597" lon="1.44464">
        <ele>350</ele>
        <time>2022-08-01T08:30:03Z</time>
      </trkpt>
      <trkpt lat="45.87593" lon="1.4447">
        <ele>350</ele>
        <time>2022-08-01T08:30:05Z</time>
      </trkpt>
      <trkpt lat="45.87589" lon="1.44476">
        <ele>350</ele>
        <time>2022-08-01T08:30:07Z</time>
      </trkpt>
      <trkpt lat="45.87585" lon="1.44483">
        <ele>350</ele>
        <time>2022-08-01T08:30:09Z</time>
      </trkpt>
      <trkpt lat="45.8758" lon="1.4449">
        <ele>349.9</ele>
        <time>2022-08-01T08:30:11Z</time>
      </trkpt>
      <trkpt lat="45.87575" lon="1.44498">
        <ele>349.6</ele>
        <time>2022-08-01T08:30:13Z</time>
      </trkpt>
      <trkpt lat="45.87569" lon="1.44507">
        <ele>349.2</ele>
        <time>2022-08-01T08:30:15Z</time>
      </trkpt>
      <trkpt lat="45.87563" lon="1.44516">
        <ele>348.6</ele>
        <time>2022-08-01T08:30:17Z</time>
      </trkpt>
      <trkpt lat="45.87555" lon="1.44528">
        <ele>348</ele>
        <time>2022-08-01T08:30:19Z</time>
      </trkpt>
      <trkpt lat="45.87547" lon="1.4454">
        <ele>347.3</ele>
        <time>2022-08-01T08:30:21Z</time>
      </trkpt>
      <trkpt lat="45.87539" lon="1.44553">
        <ele>346.6</ele>
        <time>2022-08-01T08:30:23Z</time>
      </trkpt>
      <trkpt lat="45.87531" lon="1.44565">
        <ele>345.9</ele>
        <time>2022-08-01T08:30:25Z</time>
      </trkpt>
      <trkpt lat="45.87522" lon="1.4458">
        <ele>345.1</ele>
        <time>2022-08-01T08:30:27Z</time>
      </trkpt>
      <trkpt lat="45.87512" lon="1.44594">
        <ele>344.3</ele>
        <time>2022-08-01T08:30:29Z</time>
      </trkpt>
      <trkpt lat="45.87503" lon="1.44609">
        <ele>343.5</ele>
        <time>2022-08-01T08:30:31Z</time>
      </trkpt>
      <trkpt lat="45.87492" lon="1.44624">
        <ele>342.5</ele>
        <time>2022-08-01T08:30:33Z</time>
      </trkpt>
      <trkpt lat="45.87483" lon="1.4464">
        <ele>341.4</ele>
        <time>2022-08-01T08:30:35Z</time>
      </trkpt>
      <trkpt lat="45.87473" lon="1.44655">
        <ele>340.3</ele>
        <time>2022-08-01T08:30:37Z</time>
      </trkpt>
      <trkpt lat="45.87462" lon="1.44671">
        <ele>339.3</ele>
        <time>2022-08-01T08:30:39Z</time>
      </trkpt>
      <trkpt lat="45.87451" lon="1.44688">
        <ele>338.7</ele>
        <time>2022-08-01T08:30:41Z</time>
      </trkpt>
      <trkpt lat="45.87441" lon="1.44704">
        <ele>338.3</ele>
        <time>2022-08-01T08:30:43Z</time>
      </trkpt>
      <trkpt lat="45.8743" lon="1.44721">
        <ele>337.9</ele>
        <time>2022-08-01T08:30:45Z</time>
      </trkpt>
      <trkpt lat="45.87419" lon="1.44737">
        <ele>337.8</ele>
        <time>2022-08-01T08:30:47Z</time>
      </trkpt>
      <trkpt lat="45.87409" lon="1.44755">
        <ele>337.2</ele>
        <time>2022-08-01T08:30:49Z</time>
      </trkpt>
      <trkpt lat="45.87401" lon="1.44776">
        <ele>335.8</ele>
        <time>2022-08-01T08:30:51Z</time>
      </trkpt>
      <trkpt lat="45.87396" lon="1.44799">
        <ele>334.6</ele>
        <time>2022-08-01T08:30:53Z</time>
      </trkpt>
      <trkpt lat="45.87393" lon="1.44824">
        <ele>333.6</ele>
        <time>2022-08-01T08:30:55Z</time>
      </trkpt>
      <trkpt lat="45.87391" lon="1.4485">
        <ele>332.7</ele>
        <time>2022-08-01T08:30:57Z</time>
      </trkpt>
      <trkpt lat="45.87388" lon="1.44877">
        <ele>331.7</ele>
        <time>2022-08-01T08:30:59Z</time>
      </trkpt>
      <trkpt lat="45.87386" lon="1.44903">
        <ele>330.8</ele>
        <time>2022-08-01T08:31:01Z</time>
      </trkpt>
      <trkpt lat="45.87384" lon="1.44929">
        <ele>330.2</ele>
        <time>2022-08-01T08:31:03Z</time>
      </trkpt>
      <trkpt lat="45.8738" lon="1.44955">
        <ele>329.9</ele>
        <time>2022-08-01T08:31:05Z</time>
      </trkpt>
      <trkpt lat="45.87375" lon="1.4498">
        <ele>329.5</ele>
        <time>2022-08-01T08:31:07Z</time>
      </trkpt>
      <trkpt lat="45.87366" lon="1.45003">
        <ele>328.9</ele>
        <time>2022-08-01T08:31:09Z</time>
      </trkpt>
      <trkpt lat="45.87353" lon="1.45023">
        <ele>328.2</ele>
        <time>2022-08-01T08:31:11Z</time>
      </trkpt>
      <trkpt lat="45.87338" lon="1.45039">
        <ele>327.3</ele>
        <time>2022-08-01T08:31:13Z</time>
      </trkpt>
      <trkpt lat="45.8732" lon="1.45049">
        <ele>326.4</ele>
        <time>2022-08-01T08:31:15Z</time>
      </trkpt>
      <trkpt lat="45.873" lon="1.45054">
        <ele>325.5</ele>
        <time>2022-08-01T08:31:17Z</time>
      </trkpt>
      <trkpt lat="45.87279" lon="1.45054">
        <ele>324.6</ele>
        <time>2022-08-01T08:31:19Z</time>
      </trkpt>
      <trkpt lat="45.87259" lon="1.45046">
        <ele>323.5</ele>
        <time>2022-08-01T08:31:21Z</time>
      </trkpt>
      <trkpt lat="45.87239" lon="1.45036">
        <ele>322.4</ele>
        <time>2022-08-01T08:31:23Z</time>
      </trkpt>
      <trkpt lat="45.87218" lon="1.45025">
        <ele>321.3</ele>
        <time>2022-08-01T08:31:25Z</time>
      </trkpt>
      <trkpt lat="45.87197" lon="1.45014">
        <ele>320.3</ele>
        <time>2022-08-01T08:31:27Z</time>
      </trkpt>
      <trkpt lat="45.87176" lon="1.45003">
        <ele>319.4</ele>
        <time>2022-08-01T08:31:29Z</time>
      </trkpt>
      <trkpt lat="45.87154" lon="1.44992">
        <ele>318.6</ele>
        <time>2022-08-01T08:31:31Z</time>
      </trkpt>
      <trkpt lat="45.87133" lon="1.44982">
        <ele>318</ele>
        <time>2022-08-01T08:31:33Z</time>
      </trkpt>
      <trkpt lat="45.87114" lon="1.44971">
        <ele>317.2</ele>
        <time>2022-08-01T08:31:35Z</time>
      </trkpt>
      <trkpt lat="45.87096" lon="1.44962">
        <ele>316.4</ele>
        <time>2022-08-01T08:31:37Z</time>
      </trkpt>
      <trkpt lat="45.87079" lon="1.44953">
        <ele>315.1</ele>
        <time>2022-08-01T08:31:39Z</time>
      </trkpt>
      <trkpt lat="45.87063" lon="1.44947">
        <ele>312.7</ele>
        <time>2022-08-01T08:31:41Z</time>
      </trkpt>
      <trkpt lat="45.87047" lon="1.44949">
        <ele>310.8</ele>
        <time>2022-08-01T08:31:43Z</time>
      </trkpt>
      <trkpt lat="45.87032" lon="1.44956">
        <ele>309.1</ele>
        <time>2022-08-01T08:31:45Z</time>
      </trkpt>
      <trkpt lat="45.87019" lon="1.44969">
        <ele>307.7</ele>
        <time>2022-08-01T08:31:47Z</time>
      </trkpt>
      <trkpt lat="45.8701" lon="1.44984">
        <ele>306.5</ele>
        <time>2022-08-01T08:31:49Z</time>
      </trkpt>
      <trkpt lat="45.87003" lon="1.45004">
        <ele>305.3</ele>
        <time>2022-08-01T08:31:51Z</time>
      </trkpt>
      <trkpt lat="45.87" lon="1.45025">
        <ele>304.2</ele>
        <time>2022-08-01T08:31:53Z</time>
      </trkpt>
      <trkpt lat="45.86999" lon="1.45045">
        <ele>303.3</ele>
        <time>2022-08-01T08:31:55Z</time>
      </trkpt>
      <trkpt lat="45.86997" lon="1.45065">
        <ele>302.3</ele>
        <time>2022-08-01T08:31:57Z</time>
      </trkpt>
      <trkpt lat="45.86997" lon="1.45081">
        <ele>301.7</ele>
        <time>2022-08-01T08:31:59Z</time>
      </trkpt>
      <trkpt lat="45.86997" lon="1.45093">
        <ele>301.3</ele>
        <time>2022-08-01T08:32:01Z</time>
      </trkpt>
      <trkpt lat="45.86997" lon="1.45104">
        <ele>300.9</ele>
        <time>2022-08-01T08:32:03Z</time>
      </trkpt>
      <trkpt lat="45.86997" lon="1.45116">
        <ele>300.5</ele>
        <time>2022-08-01T08:32:05Z</time>
      </trkpt>
      <trkpt lat="45.86997" lon="1.45129">
        <ele>300</ele>
        <time>2022-08-01T08:32:07Z</time>
      </trkpt>
      <trkpt lat="45.86996" lon="1.4514">
        <ele>299.6</ele>
        <time>2022-08-01T08:32:09Z</time>
      </trkpt>
      <trkpt lat="45.86996" lon="1.45154">
        <ele>299.1</ele>
        <time>2022-08-01T08:32:11Z</time>
      </trkpt>
      <trkpt lat="45.86996" lon="1.45168">
        <ele>298.7</ele>
        <time>2022-08-01T08:32:13Z</time>
      </trkpt>
      <trkpt lat="45.86997" lon="1.45179">
        <ele>298.8</ele>
        <time>2022-08-01T08:32:15Z</time>
      </trkpt>
      <trkpt lat="45.86999" lon="1.4519">
        <ele>298.9</ele>
        <time>2022-08-01T08:32:17Z</time>
      </trkpt>
      <trkpt lat="45.86999" lon="1.452">
        <ele>299</ele>
        <time>2022-08-01T08:32:19Z</time>
      </trkpt>
      <trkpt lat="45.87" lon="1.45209">
        <ele>299</ele>
        <time>2022-08-01T08:32:21Z</time>
      </trkpt>
      <trkpt lat="45.86999" lon="1.45219">
        <ele>299</ele>
        <time>2022-08-01T08:32:23Z</time>
      </trkpt>
      <trkpt lat="45.86998" lon="1.4523">
        <ele>298.9</ele>
        <time>2022-08-01T08:32:25Z</time>
      </trkpt>
      <trkpt lat="45.86997" lon="1.4524">
        <ele>298.9</ele>
        <time>2022-08-01T08:32:27Z</time>
      </trkpt>
      <trkpt lat="45.86995" lon="1.4525">
        <ele>298.9</ele>
        <time>2022-08-01T08:32:29Z</time>
      </trkpt>
      <trkpt lat="45.86992" lon="1.4526">
        <ele>298.9</ele>
        <time>2022-08-01T08:32:31Z</time>
      </trkpt>
      <trkpt lat="45.8699" lon="1.45268">
        <ele>298.9</ele>
        <time>2022-08-01T08:32:33Z</time>
      </trkpt>
      <trkpt lat="45.86988" lon="1.45271">
        <ele>298.9</ele>
        <time>2022-08-01T08:32:35Z</time>
      </trkpt>
      <trkpt lat="45.86988" lon="1.45272">
        <ele>298.9</ele>
        <time>2022-08-01T08:32:37Z</time>
      </trkpt>
      <trkpt lat="45.86988" lon="1.45272">
        <ele>298.9</ele>
        <time>2022-08-01T08:32:39Z</time>
      </trkpt>
      <trkpt lat="45.86988" lon="1.45272">
        <ele>298.9</ele>
        <time>2022-08-01T08:32:41Z</time>
      </trkpt>
      <trkpt lat="45.86988" lon="1.45272">
        <ele>298.9</ele>
        <time>2022-08-01T08:32:43Z</time>
      </trkpt>
      <trkpt lat="45.86989" lon="1.45273">
        <ele>299</ele>
        <time>2022-08-01T08:32:47Z</time>
      </trkpt>
      <trkpt lat="45.86989" lon="1.45274">
        <ele>299</ele>
        <time>2022-08-01T08:32:49Z</time>
      </trkpt>
      <trkpt lat="45.8699" lon="1.45274">
        <ele>299</ele>
        <time>2022-08-01T08:32:51Z</time>
      </trkpt>
      <trkpt lat="45.8699" lon="1.45274">
        <ele>299</ele>
        <time>2022-08-01T08:32:53Z</time>
      </trkpt>
      <trkpt lat="45.8699" lon="1.45274">
        <ele>299</ele>
        <time>2022-08-01T08:32:55Z</time>
      </trkpt>
      <trkpt lat="45.8699" lon="1.45274">
        <ele>299</ele>
        <time>2022-08-01T08:32:57Z</time>
      </trkpt>
      <trkpt lat="45.86991" lon="1.45274">
        <ele>299</ele>
        <time>2022-08-01T08:32:59Z</time>
      </trkpt>
      <trkpt lat="45.86991" lon="1.45274">
        <ele>299</ele>
        <time>2022-08-01T08:33:01Z</time>
      </trkpt>
      <trkpt lat="45.86991" lon="1.45274">
        <ele>299</ele>
        <time>2022-08-01T08:33:03Z</time>
      </trkpt>
      <trkpt lat="45.86991" lon="1.45274">
        <ele>299</ele>
        <time>2022-08-01T08:33:05Z</time>
      </trkpt>
      <trkpt lat="45.86992" lon="1.45275">
        <ele>299</ele>
        <time>2022-08-01T08:33:07Z</time>
      </trkpt>
      <trkpt lat="45.86993" lon="1.45277">
        <ele>299</ele>
        <time>2022-08-01T08:33:09Z</time>
      </trkpt>
      <trkpt lat="45.86996" lon="1.45277">
        <ele>299</ele>
        <time>2022-08-01T08:33:11Z</time>
      </trkpt>
      <trkpt lat="45.86997" lon="1.45274">
        <ele>299</ele>
        <time>2022-08-01T08:33:13Z</time>
      </trkpt>
      <trkpt lat="45.86997" lon="1.4527">
        <ele>299</ele>
        <time>2022-08-01T08:33:15Z</time>
      </trkpt>
      <trkpt lat="45.86998" lon="1.45266">
        <ele>299</ele>
        <time>2022-08-01T08:33:17Z</time>
      </trkpt>
      <trkpt lat="45.86998" lon="1.45261">
        <ele>299</ele>
        <time>2022-08-01T08:33:19Z</time>
      </trkpt>
      <trkpt lat="45.86999" lon="1.45255">
        <ele>299</ele>
        <time>2022-08-01T08:33:21Z</time>
      </trkpt>
      <trkpt lat="45.87" lon="1.45249">
        <ele>299</ele>
        <time>2022-08-01T08:33:23Z</time>
      </trkpt>
      <trkpt lat="45.87001" lon="1.45243">
        <ele>299.2</ele>
        <time>2022-08-01T08:33:25Z</time>
      </trkpt>
      <trkpt lat="45.87002" lon="1.45237">
        <ele>299.2</ele>
        <time>2022-08-01T08:33:27Z</time>
      </trkpt>
      <trkpt lat="45.87003" lon="1.45231">
        <ele>299.3</ele>
        <time>2022-08-01T08:33:29Z</time>
      </trkpt>
      <trkpt lat="45.87003" lon="1.45225">
        <ele>299.3</ele>
        <time>2022-08-01T08:33:31Z</time>
      </trkpt>
      <trkpt lat="45.87003" lon="1.4522">
        <ele>299.4</ele>
        <time>2022-08-01T08:33:33Z</time>
      </trkpt>
      <trkpt lat="45.87003" lon="1.45215">
        <ele>299.4</ele>
        <time>2022-08-01T08:33:35Z</time>
      </trkpt>
      <trkpt lat="45.87003" lon="1.4521">
        <ele>299.4</ele>
        <time>2022-08-01T08:33:37Z</time>
      </trkpt>
      <trkpt lat="45.87003" lon="1.45204">
        <ele>299.4</ele>
        <time>2022-08-01T08:33:39Z</time>
      </trkpt>
      <trkpt lat="45.87003" lon="1.45198">
        <ele>299.3</ele>
        <time>2022-08-01T08:33:41Z</time>
      </trkpt>
      <trkpt lat="45.87002" lon="1.45193">
        <ele>299.3</ele>
        <time>2022-08-01T08:33:43Z</time>
      </trkpt>
      <trkpt lat="45.87002" lon="1.45187">
        <ele>299.2</ele>
        <time>2022-08-01T08:33:45Z</time>
      </trkpt>
      <trkpt lat="45.87001" lon="1.45181">
        <ele>299.1</ele>
        <time>2022-08-01T08:33:47Z</time>
      </trkpt>
      <trkpt lat="45.87" lon="1.45175">
        <ele>299</ele>
        <time>2022-08-01T08:33:49Z</time>
      </trkpt>
      <trkpt lat="45.87" lon="1.4517">
        <ele>299</ele>
        <time>2022-08-01T08:33:51Z</time>
      </trkpt>
      <trkpt lat="45.86999" lon="1.45165">
        <ele>299</ele>
        <time>2022-08-01T08:33:53Z</time>
      </trkpt>
      <trkpt lat="45.86999" lon="1.45159">
        <ele>299.2</ele>
        <time>2022-08-01T08:33:55Z</time>
      </trkpt>
      <trkpt lat="45.86999" lon="1.45154">
        <ele>299.4</ele>
        <time>2022-08-01T08:33:57Z</time>
      </trkpt>
      <trkpt lat="45.86999" lon="1.45148">
        <ele>299.6</ele>
        <time>2022-08-01T08:33:59Z</time>
      </trkpt>
      <trkpt lat="45.86998" lon="1.45143">
        <ele>299.7</ele>
        <time>2022-08-01T08:34:01Z</time>
      </trkpt>
      <trkpt lat="45.86997" lon="1.45139">
        <ele>299.7</ele>
        <time>2022-08-01T08:34:03Z</time>
      </trkpt>
      <trkpt lat="45.86995" lon="1.45135">
        <ele>299.7</ele>
        <time>2022-08-01T08:34:05Z</time>
      </trkpt>
      <trkpt lat="45.86993" lon="1.45131">
        <ele>299.6</ele>
        <time>2022-08-01T08:34:07Z</time>
      </trkpt>
      <trkpt lat="45.86992" lon="1.45128">
        <ele>299.6</ele>
        <time>2022-08-01T08:34:09Z</time>
      </trkpt>
      <trkpt lat="45.86966" lon="1.45035">
        <ele>299.2</ele>
        <time>2022-08-01T08:34:33Z</time>
      </trkpt>
      <trkpt lat="45.86964" lon="1.45023">
        <ele>299.2</ele>
        <time>2022-08-01T08:34:35Z</time>
      </trkpt>
      <trkpt lat="45.86963" lon="1.4501">
        <ele>299.3</ele>
        <time>2022-08-01T08:34:37Z</time>
      </trkpt>
      <trkpt lat="45.86963" lon="1.44998">
        <ele>299.8</ele>
        <time>2022-08-01T08:34:39Z</time>
      </trkpt>
      <trkpt lat="45.86966" lon="1.44986">
        <ele>300.5</ele>
        <time>2022-08-01T08:34:41Z</time>
      </trkpt>
      <trkpt lat="45.86969" lon="1.44974">
        <ele>301.3</ele>
        <time>2022-08-01T08:34:43Z</time>
      </trkpt>
      <trkpt lat="45.86973" lon="1.44964">
        <ele>301.9</ele>
        <time>2022-08-01T08:34:45Z</time>
      </trkpt>
      <trkpt lat="45.86973" lon="1.44952">
        <ele>302.3</ele>
        <time>2022-08-01T08:34:47Z</time>
      </trkpt>
      <trkpt lat="45.86972" lon="1.44938">
        <ele>302.4</ele>
        <time>2022-08-01T08:34:49Z</time>
      </trkpt>
      <trkpt lat="45.86967" lon="1.44926">
        <ele>302.4</ele>
        <time>2022-08-01T08:34:51Z</time>
      </trkpt>
      <trkpt lat="45.86959" lon="1.44918">
        <ele>302</ele>
        <time>2022-08-01T08:34:53Z</time>
      </trkpt>
      <trkpt lat="45.86951" lon="1.44912">
        <ele>301.6</ele>
        <time>2022-08-01T08:34:55Z</time>
      </trkpt>
      <trkpt lat="45.86942" lon="1.44912">
        <ele>301</ele>
        <time>2022-08-01T08:34:57Z</time>
      </trkpt>
      <trkpt lat="45.86934" lon="1.44912">
        <ele>300.4</ele>
        <time>2022-08-01T08:34:59Z</time>
      </trkpt>
      <trkpt lat="45.86925" lon="1.44915">
        <ele>299.7</ele>
        <time>2022-08-01T08:35:01Z</time>
      </trkpt>
      <trkpt lat="45.86916" lon="1.44918">
        <ele>298.9</ele>
        <time>2022-08-01T08:35:03Z</time>
      </trkpt>
      <trkpt lat="45.86907" lon="1.4492">
        <ele>297.9</ele>
        <time>2022-08-01T08:35:05Z</time>
      </trkpt>
      <trkpt lat="45.86898" lon="1.44921">
        <ele>296.9</ele>
        <time>2022-08-01T08:35:07Z</time>
      </trkpt>
      <trkpt lat="45.86887" lon="1.44919">
        <ele>296</ele>
        <time>2022-08-01T08:35:09Z</time>
      </trkpt>
      <trkpt lat="45.86877" lon="1.44913">
        <ele>295.4</ele>
        <time>2022-08-01T08:35:11Z</time>
      </trkpt>
      <trkpt lat="45.86871" lon="1.44902">
        <ele>295.1</ele>
        <time>2022-08-01T08:35:13Z</time>
      </trkpt>
      <trkpt lat="45.86866" lon="1.44889">
        <ele>295.1</ele>
        <time>2022-08-01T08:35:15Z</time>
      </trkpt>
      <trkpt lat="45.86862" lon="1.44876">
        <ele>295.2</ele>
        <time>2022-08-01T08:35:17Z</time>
      </trkpt>
      <trkpt lat="45.86858" lon="1.44863">
        <ele>295.3</ele>
        <time>2022-08-01T08:35:19Z</time>
      </trkpt>
      <trkpt lat="45.86854" lon="1.44851">
        <ele>295.4</ele>
        <time>2022-08-01T08:35:21Z</time>
      </trkpt>
      <trkpt lat="45.8685" lon="1.44839">
        <ele>295.4</ele>
        <time>2022-08-01T08:35:23Z</time>
      </trkpt>
      <trkpt lat="45.86846" lon="1.44828">
        <ele>295.5</ele>
        <time>2022-08-01T08:35:25Z</time>
      </trkpt>
      <trkpt lat="45.86842" lon="1.44816">
        <ele>295.6</ele>
        <time>2022-08-01T08:35:27Z</time>
      </trkpt>
      <trkpt lat="45.86836" lon="1.44804">
        <ele>295.6</ele>
        <time>2022-08-01T08:35:29Z</time>
      </trkpt>
      <trkpt lat="45.86827" lon="1.44796">
        <ele>295.3</ele>
        <time>2022-08-01T08:35:31Z</time>
      </trkpt>
      <trkpt lat="45.86818" lon="1.44788">
        <ele>294.7</ele>
        <time>2022-08-01T08:35:33Z</time>
      </trkpt>
      <trkpt lat="45.86809" lon="1.44778">
        <ele>294.2</ele>
        <time>2022-08-01T08:35:35Z</time>
      </trkpt>
      <trkpt lat="45.86799" lon="1.44768">
        <ele>293.4</ele>
        <time>2022-08-01T08:35:37Z</time>
      </trkpt>
      <trkpt lat="45.8679" lon="1.44758">
        <ele>292.7</ele>
        <time>2022-08-01T08:35:39Z</time>
      </trkpt>
      <trkpt lat="45.86784" lon="1.44748">
        <ele>292.3</ele>
        <time>2022-08-01T08:35:41Z</time>
      </trkpt>
      <trkpt lat="45.86778" lon="1.44742">
        <ele>292.4</ele>
        <time>2022-08-01T08:35:43Z</time>
      </trkpt>
      <trkpt lat="45.86772" lon="1.44735">
        <ele>292.5</ele>
        <time>2022-08-01T08:35:45Z</time>
      </trkpt>
      <trkpt lat="45.86768" lon="1.4473">
        <ele>292.7</ele>
        <time>2022-08-01T08:35:47Z</time>
      </trkpt>
      <trkpt lat="45.86767" lon="1.44729">
        <ele>292.7</ele>
        <time>2022-08-01T08:35:49Z</time>
      </trkpt>
      <trkpt lat="45.86765" lon="1.44731">
        <ele>292.2</ele>
        <time>2022-08-01T08:35:51Z</time>
      </trkpt>
      <trkpt lat="45.86766" lon="1.44735">
        <ele>291.8</ele>
        <time>2022-08-01T08:35:53Z</time>
      </trkpt>
      <trkpt lat="45.86769" lon="1.44738">
        <ele>291.8</ele>
        <time>2022-08-01T08:35:55Z</time>
      </trkpt>
      <trkpt lat="45.86772" lon="1.44742">
        <ele>291.6</ele>
        <time>2022-08-01T08:35:57Z</time>
      </trkpt>
      <trkpt lat="45.86794" lon="1.44775">
        <ele>292.8</ele>
        <time>2022-08-01T08:36:09Z</time>
      </trkpt>
      <trkpt lat="45.86798" lon="1.44782">
        <ele>293</ele>
        <time>2022-08-01T08:36:11Z</time>
      </trkpt>
      <trkpt lat="45.86804" lon="1.44786">
        <ele>293.5</ele>
        <time>2022-08-01T08:36:13Z</time>
      </trkpt>
      <trkpt lat="45.86811" lon="1.44794">
        <ele>293.9</ele>
        <time>2022-08-01T08:36:15Z</time>
      </trkpt>
      <trkpt lat="45.86817" lon="1.44803">
        <ele>294.1</ele>
        <time>2022-08-01T08:36:17Z</time>
      </trkpt>
      <trkpt lat="45.86822" lon="1.44813">
        <ele>294.1</ele>
        <time>2022-08-01T08:36:19Z</time>
      </trkpt>
      <trkpt lat="45.86824" lon="1.44823">
        <ele>293.9</ele>
        <time>2022-08-01T08:36:21Z</time>
      </trkpt>
      <trkpt lat="45.86823" lon="1.44833">
        <ele>293.4</ele>
        <time>2022-08-01T08:36:23Z</time>
      </trkpt>
      <trkpt lat="45.86818" lon="1.44841">
        <ele>293</ele>
        <time>2022-08-01T08:36:25Z</time>
      </trkpt>
      <trkpt lat="45.86814" lon="1.44846">
        <ele>292.8</ele>
        <time>2022-08-01T08:36:27Z</time>
      </trkpt>
      <trkpt lat="45.8681" lon="1.44846">
        <ele>292.7</ele>
        <time>2022-08-01T08:36:29Z</time>
      </trkpt>
      <trkpt lat="45.86807" lon="1.44846">
        <ele>292.6</ele>
        <time>2022-08-01T08:36:31Z</time>
      </trkpt>
      <trkpt lat="45.86805" lon="1.44846">
        <ele>292.5</ele>
        <time>2022-08-01T08:36:33Z</time>
      </trkpt>
      <trkpt lat="45.86805" lon="1.44847">
        <ele>292.5</ele>
        <time>2022-08-01T08:36:35Z</time>
      </trkpt>
      <trkpt lat="45.86804" lon="1.44848">
        <ele>292.5</ele>
        <time>2022-08-01T08:36:37Z</time>
      </trkpt>
      <trkpt lat="45.86785" lon="1.44855">
        <ele>292.3</ele>
        <time>2022-08-01T08:37:43Z</time>
      </trkpt>
      <trkpt lat="45.8678" lon="1.44853">
        <ele>292</ele>
        <time>2022-08-01T08:37:45Z</time>
      </trkpt>
      <trkpt lat="45.86776" lon="1.4485">
        <ele>291.8</ele>
        <time>2022-08-01T08:37:47Z</time>
      </trkpt>
      <trkpt lat="45.86772" lon="1.44847">
        <ele>291.4</ele>
        <time>2022-08-01T08:37:49Z</time>
      </trkpt>
      <trkpt lat="45.86769" lon="1.44844">
        <ele>291.1</ele>
        <time>2022-08-01T08:37:51Z</time>
      </trkpt>
      <trkpt lat="45.86765" lon="1.44842">
        <ele>290.7</ele>
        <time>2022-08-01T08:37:53Z</time>
      </trkpt>
      <trkpt lat="45.86761" lon="1.44841">
        <ele>290.4</ele>
        <time>2022-08-01T08:37:55Z</time>
      </trkpt>
      <trkpt lat="45.86758" lon="1.44839">
        <ele>290.1</ele>
        <time>2022-08-01T08:37:57Z</time>
      </trkpt>
      <trkpt lat="45.86755" lon="1.44837">
        <ele>289.7</ele>
        <time>2022-08-01T08:37:59Z</time>
      </trkpt>
      <trkpt lat="45.8675" lon="1.44836">
        <ele>289.3</ele>
        <time>2022-08-01T08:38:01Z</time>
      </trkpt>
      <trkpt lat="45.86746" lon="1.44835">
        <ele>289.4</ele>
        <time>2022-08-01T08:38:03Z</time>
      </trkpt>
      <trkpt lat="45.86742" lon="1.44836">
        <ele>289.6</ele>
        <time>2022-08-01T08:38:05Z</time>
      </trkpt>
      <trkpt lat="45.86739" lon="1.44835">
        <ele>289.6</ele>
        <time>2022-08-01T08:38:07Z</time>
      </trkpt>
      <trkpt lat="45.86735" lon="1.44835">
        <ele>289.7</ele>
        <time>2022-08-01T08:38:09Z</time>
      </trkpt>
      <trkpt lat="45.86731" lon="1.44834">
        <ele>289.8</ele>
        <time>2022-08-01T08:38:11Z</time>
      </trkpt>
      <trkpt lat="45.86727" lon="1.44834">
        <ele>289.9</ele>
        <time>2022-08-01T08:38:13Z</time>
      </trkpt>
      <trkpt lat="45.86723" lon="1.44833">
        <ele>290</ele>
        <time>2022-08-01T08:38:15Z</time>
      </trkpt>
      <trkpt lat="45.86719" lon="1.44834">
        <ele>290.1</ele>
        <time>2022-08-01T08:38:17Z</time>
      </trkpt>
      <trkpt lat="45.86715" lon="1.44834">
        <ele>290.3</ele>
        <time>2022-08-01T08:38:19Z</time>
      </trkpt>
      <trkpt lat="45.86712" lon="1.44835">
        <ele>290.6</ele>
        <time>2022-08-01T08:38:21Z</time>
      </trkpt>
      <trkpt lat="45.86709" lon="1.44836">
        <ele>290.8</ele>
        <time>2022-08-01T08:38:23Z</time>
      </trkpt>
      <trkpt lat="45.86706" lon="1.44836">
        <ele>291</ele>
        <time>2022-08-01T08:38:25Z</time>
      </trkpt>
      <trkpt lat="45.86703" lon="1.44836">
        <ele>291.1</ele>
        <time>2022-08-01T08:38:27Z</time>
      </trkpt>
      <trkpt lat="45.867" lon="1.44836">
        <ele>291.2</ele>
        <time>2022-08-01T08:38:29Z</time>
      </trkpt>
      <trkpt lat="45.86697" lon="1.44837">
        <ele>291.5</ele>
        <time>2022-08-01T08:38:31Z</time>
      </trkpt>
      <trkpt lat="45.86694" lon="1.44839">
        <ele>291.9</ele>
        <time>2022-08-01T08:38:33Z</time>
      </trkpt>
      <trkpt lat="45.86691" lon="1.4484">
        <ele>292.2</ele>
        <time>2022-08-01T08:38:35Z</time>
      </trkpt>
      <trkpt lat="45.86686" lon="1.44841">
        <ele>292.6</ele>
        <time>2022-08-01T08:38:37Z</time>
      </trkpt>
      <trkpt lat="45.86682" lon="1.44843">
        <ele>293</ele>
        <time>2022-08-01T08:38:39Z</time>
      </trkpt>
      <trkpt lat="45.86678" lon="1.44844">
        <ele>293.3</ele>
        <time>2022-08-01T08:38:41Z</time>
      </trkpt>
      <trkpt lat="45.86675" lon="1.44845">
        <ele>293.7</ele>
        <time>2022-08-01T08:38:43Z</time>
      </trkpt>
      <trkpt lat="45.86672" lon="1.44846">
        <ele>294</ele>
        <time>2022-08-01T08:38:45Z</time>
      </trkpt>
      <trkpt lat="45.86669" lon="1.44847">
        <ele>294.3</ele>
        <time>2022-08-01T08:38:47Z</time>
      </trkpt>
      <trkpt lat="45.86665" lon="1.44848">
        <ele>294.5</ele>
        <time>2022-08-01T08:38:49Z</time>
      </trkpt>
      <trkpt lat="45.86661" lon="1.4485">
        <ele>294.8</ele>
        <time>2022-08-01T08:38:51Z</time>
      </trkpt>
      <trkpt lat="45.86657" lon="1.44851">
        <ele>295.1</ele>
        <time>2022-08-01T08:38:53Z</time>
      </trkpt>
      <trkpt lat="45.86653" lon="1.44852">
        <ele>295.3</ele>
        <time>2022-08-01T08:38:55Z</time>
      </trkpt>
      <trkpt lat="45.8665" lon="1.44854">
        <ele>295.6</ele>
        <time>2022-08-01T08:38:57Z</time>
      </trkpt>
      <trkpt lat="45.86647" lon="1.44855">
        <ele>295.8</ele>
        <time>2022-08-01T08:38:59Z</time>
      </trkpt>
      <trkpt lat="45.86644" lon="1.44856">
        <ele>296.1</ele>
        <time>2022-08-01T08:39:01Z</time>
      </trkpt>
      <trkpt lat="45.8664" lon="1.44857">
        <ele>296.3</ele>
        <time>2022-08-01T08:39:03Z</time>
      </trkpt>
      <trkpt lat="45.86636" lon="1.44858">
        <ele>296.5</ele>
        <time>2022-08-01T08:39:05Z</time>
      </trkpt>
      <trkpt lat="45.86633" lon="1.44859">
        <ele>296.7</ele>
        <time>2022-08-01T08:39:07Z</time>
      </trkpt>
      <trkpt lat="45.86629" lon="1.4486">
        <ele>297</ele>
        <time>2022-08-01T08:39:09Z</time>
      </trkpt>
      <trkpt lat="45.86626" lon="1.44862">
        <ele>297.3</ele>
        <time>2022-08-01T08:39:11Z</time>
      </trkpt>
      <trkpt lat="45.86623" lon="1.44862">
        <ele>297.4</ele>
        <time>2022-08-01T08:39:13Z</time>
      </trkpt>
      <trkpt lat="45.86621" lon="1.44863">
        <ele>297.6</ele>
        <time>2022-08-01T08:39:15Z</time>
      </trkpt>
      <trkpt lat="45.86618" lon="1.44864">
        <ele>297.8</ele>
        <time>2022-08-01T08:39:17Z</time>
      </trkpt>
      <trkpt lat="45.86615" lon="1.44866">
        <ele>298.2</ele>
        <time>2022-08-01T08:39:19Z</time>
      </trkpt>
      <trkpt lat="45.86611" lon="1.44867">
        <ele>298.4</ele>
        <time>2022-08-01T08:39:21Z</time>
      </trkpt>
      <trkpt lat="45.86608" lon="1.44868">
        <ele>298.7</ele>
        <time>2022-08-01T08:39:23Z</time>
      </trkpt>
      <trkpt lat="45.86604" lon="1.44869">
        <ele>298.9</ele>
        <time>2022-08-01T08:39:25Z</time>
      </trkpt>
      <trkpt lat="45.86603" lon="1.44869">
        <ele>299</ele>
        <time>2022-08-01T08:39:27Z</time>
      </trkpt>
      <trkpt lat="45.86599" lon="1.4487">
        <ele>299.2</ele>
        <time>2022-08-01T08:39:29Z</time>
      </trkpt>
      <trkpt lat="45.86596" lon="1.4487">
        <ele>299.3</ele>
        <time>2022-08-01T08:39:31Z</time>
      </trkpt>
      <trkpt lat="45.86592" lon="1.44871">
        <ele>299.6</ele>
        <time>2022-08-01T08:39:33Z</time>
      </trkpt>
      <trkpt lat="45.86589" lon="1.44873">
        <ele>299.9</ele>
        <time>2022-08-01T08:39:35Z</time>
      </trkpt>
      <trkpt lat="45.86586" lon="1.44873">
        <ele>300.1</ele>
        <time>2022-08-01T08:39:37Z</time>
      </trkpt>
      <trkpt lat="45.86582" lon="1.44875">
        <ele>300.5</ele>
        <time>2022-08-01T08:39:39Z</time>
      </trkpt>
      <trkpt lat="45.86579" lon="1.44874">
        <ele>300.6</ele>
        <time>2022-08-01T08:39:41Z</time>
      </trkpt>
      <trkpt lat="45.86576" lon="1.44875">
        <ele>301</ele>
        <time>2022-08-01T08:39:43Z</time>
      </trkpt>
      <trkpt lat="45.86573" lon="1.44877">
        <ele>301.4</ele>
        <time>2022-08-01T08:39:45Z</time>
      </trkpt>
      <trkpt lat="45.8657" lon="1.44878">
        <ele>301.8</ele>
        <time>2022-08-01T08:39:47Z</time>
      </trkpt>
      <trkpt lat="45.86567" lon="1.44879">
        <ele>302.2</ele>
        <time>2022-08-01T08:39:49Z</time>
      </trkpt>
      <trkpt lat="45.86564" lon="1.4488">
        <ele>302.5</ele>
        <time>2022-08-01T08:39:51Z</time>
      </trkpt>
      <trkpt lat="45.86561" lon="1.4488">
        <ele>302.7</ele>
        <time>2022-08-01T08:39:53Z</time>
      </trkpt>
      <trkpt lat="45.86558" lon="1.44882">
        <ele>303</ele>
        <time>2022-08-01T08:39:55Z</time>
      </trkpt>
      <trkpt lat="45.86555" lon="1.44882">
        <ele>303.3</ele>
        <time>2022-08-01T08:39:57Z</time>
      </trkpt>
      <trkpt lat="45.86552" lon="1.44883">
        <ele>303.5</ele>
        <time>2022-08-01T08:39:59Z</time>
      </trkpt>
      <trkpt lat="45.8655" lon="1.44884">
        <ele>303.8</ele>
        <time>2022-08-01T08:40:01Z</time>
      </trkpt>
      <trkpt lat="45.86547" lon="1.44885">
        <ele>304.1</ele>
        <time>2022-08-01T08:40:03Z</time>
      </trkpt>
      <trkpt lat="45.86544" lon="1.44886">
        <ele>304.4</ele>
        <time>2022-08-01T08:40:05Z</time>
      </trkpt>
      <trkpt lat="45.86541" lon="1.44887">
        <ele>304.7</ele>
        <time>2022-08-01T08:40:07Z</time>
      </trkpt>
      <trkpt lat="45.86538" lon="1.44888">
        <ele>305</ele>
        <time>2022-08-01T08:40:09Z</time>
      </trkpt>
      <trkpt lat="45.86535" lon="1.44889">
        <ele>305.3</ele>
        <time>2022-08-01T08:40:11Z</time>
      </trkpt>
      <trkpt lat="45.86532" lon="1.44891">
        <ele>305.7</ele>
        <time>2022-08-01T08:40:13Z</time>
      </trkpt>
      <trkpt lat="45.86529" lon="1.44892">
        <ele>306</ele>
        <time>2022-08-01T08:40:15Z</time>
      </trkpt>
      <trkpt lat="45.86526" lon="1.44893">
        <ele>306.3</ele>
        <time>2022-08-01T08:40:17Z</time>
      </trkpt>
      <trkpt lat="45.86524" lon="1.44895">
        <ele>306.5</ele>
        <time>2022-08-01T08:40:19Z</time>
      </trkpt>
      <trkpt lat="45.86521" lon="1.44895">
        <ele>306.7</ele>
        <time>2022-08-01T08:40:21Z</time>
      </trkpt>
      <trkpt lat="45.86519" lon="1.44896">
        <ele>307</ele>
        <time>2022-08-01T08:40:23Z</time>
      </trkpt>
      <trkpt lat="45.86516" lon="1.44898">
        <ele>307.3</ele>
        <time>2022-08-01T08:40:25Z</time>
      </trkpt>
      <trkpt lat="45.86513" lon="1.449">
        <ele>307.6</ele>
        <time>2022-08-01T08:40:27Z</time>
      </trkpt>
      <trkpt lat="45.86511" lon="1.44902">
        <ele>307.9</ele>
        <time>2022-08-01T08:40:29Z</time>
      </trkpt>
      <trkpt lat="45.86507" lon="1.44906">
        <ele>308.5</ele>
        <time>2022-08-01T08:40:31Z</time>
      </trkpt>
      <trkpt lat="45.86504" lon="1.44908">
        <ele>308.9</ele>
        <time>2022-08-01T08:40:33Z</time>
      </trkpt>
      <trkpt lat="45.865" lon="1.4491">
        <ele>309.2</ele>
        <time>2022-08-01T08:40:35Z</time>
      </trkpt>
      <trkpt lat="45.86496" lon="1.44911">
        <ele>309.5</ele>
        <time>2022-08-01T08:40:37Z</time>
      </trkpt>
      <trkpt lat="45.86493" lon="1.44913">
        <ele>309.9</ele>
        <time>2022-08-01T08:40:39Z</time>
      </trkpt>
      <trkpt lat="45.86489" lon="1.44914">
        <ele>310.2</ele>
        <time>2022-08-01T08:40:41Z</time>
      </trkpt>
      <trkpt lat="45.86486" lon="1.44915">
        <ele>310.5</ele>
        <time>2022-08-01T08:40:43Z</time>
      </trkpt>
      <trkpt lat="45.86482" lon="1.44916">
        <ele>310.8</ele>
        <time>2022-08-01T08:40:45Z</time>
      </trkpt>
      <trkpt lat="45.86479" lon="1.44916">
        <ele>311</ele>
        <time>2022-08-01T08:40:47Z</time>
      </trkpt>
      <trkpt lat="45.86475" lon="1.44916">
        <ele>311.1</ele>
        <time>2022-08-01T08:40:49Z</time>
      </trkpt>
      <trkpt lat="45.86471" lon="1.44916">
        <ele>311.3</ele>
        <time>2022-08-01T08:40:51Z</time>
      </trkpt>
      <trkpt lat="45.86468" lon="1.44916">
        <ele>311.5</ele>
        <time>2022-08-01T08:40:53Z</time>
      </trkpt>
      <trkpt lat="45.86464" lon="1.44914">
        <ele>311.5</ele>
        <time>2022-08-01T08:40:55Z</time>
      </trkpt>
      <trkpt lat="45.86461" lon="1.44912">
        <ele>311.5</ele>
        <time>2022-08-01T08:40:57Z</time>
      </trkpt>
      <trkpt lat="45.86457" lon="1.44911">
        <ele>311.7</ele>
        <time>2022-08-01T08:40:59Z</time>
      </trkpt>
      <trkpt lat="45.86453" lon="1.4491">
        <ele>311.7</ele>
        <time>2022-08-01T08:41:01Z</time>
      </trkpt>
      <trkpt lat="45.8645" lon="1.44908">
        <ele>311.8</ele>
        <time>2022-08-01T08:41:03Z</time>
      </trkpt>
      <trkpt lat="45.86447" lon="1.44907">
        <ele>311.9</ele>
        <time>2022-08-01T08:41:05Z</time>
      </trkpt>
      <trkpt lat="45.86443" lon="1.44906">
        <ele>312</ele>
        <time>2022-08-01T08:41:07Z</time>
      </trkpt>
      <trkpt lat="45.8644" lon="1.44906">
        <ele>312.2</ele>
        <time>2022-08-01T08:41:09Z</time>
      </trkpt>
      <trkpt lat="45.86437" lon="1.44905">
        <ele>312.4</ele>
        <time>2022-08-01T08:41:11Z</time>
      </trkpt>
      <trkpt lat="45.86434" lon="1.44905">
        <ele>312.6</ele>
        <time>2022-08-01T08:41:13Z</time>
      </trkpt>
      <trkpt lat="45.86431" lon="1.44906">
        <ele>312.8</ele>
        <time>2022-08-01T08:41:15Z</time>
      </trkpt>
      <trkpt lat="45.86427" lon="1.44906">
        <ele>313</ele>
        <time>2022-08-01T08:41:17Z</time>
      </trkpt>
      <trkpt lat="45.86424" lon="1.44907">
        <ele>313.2</ele>
        <time>2022-08-01T08:41:19Z</time>
      </trkpt>
      <trkpt lat="45.86422" lon="1.44908">
        <ele>313.4</ele>
        <time>2022-08-01T08:41:21Z</time>
      </trkpt>
      <trkpt lat="45.86419" lon="1.44909">
        <ele>313.6</ele>
        <time>2022-08-01T08:41:23Z</time>
      </trkpt>
      <trkpt lat="45.86417" lon="1.44912">
        <ele>313.8</ele>
        <time>2022-08-01T08:41:25Z</time>
      </trkpt>
      <trkpt lat="45.86415" lon="1.44915">
        <ele>314</ele>
        <time>2022-08-01T08:41:27Z</time>
      </trkpt>
      <trkpt lat="45.86412" lon="1.44917">
        <ele>314.1</ele>
        <time>2022-08-01T08:41:29Z</time>
      </trkpt>
      <trkpt lat="45.8641" lon="1.4492">
        <ele>314.2</ele>
        <time>2022-08-01T08:41:31Z</time>
      </trkpt>
      <trkpt lat="45.86407" lon="1.44925">
        <ele>314.2</ele>
        <time>2022-08-01T08:41:33Z</time>
      </trkpt>
      <trkpt lat="45.86404" lon="1.44929">
        <ele>314.3</ele>
        <time>2022-08-01T08:41:35Z</time>
      </trkpt>
      <trkpt lat="45.86401" lon="1.44933">
        <ele>314.4</ele>
        <time>2022-08-01T08:41:37Z</time>
      </trkpt>
      <trkpt lat="45.86399" lon="1.44938">
        <ele>314.4</ele>
        <time>2022-08-01T08:41:39Z</time>
      </trkpt>
      <trkpt lat="45.86397" lon="1.44943">
        <ele>314.5</ele>
        <time>2022-08-01T08:41:41Z</time>
      </trkpt>
      <trkpt lat="45.86395" lon="1.44947">
        <ele>314.5</ele>
        <time>2022-08-01T08:41:43Z</time>
      </trkpt>
      <trkpt lat="45.86392" lon="1.44951">
        <ele>314.6</ele>
        <time>2022-08-01T08:41:45Z</time>
      </trkpt>
      <trkpt lat="45.86389" lon="1.44955">
        <ele>314.7</ele>
        <time>2022-08-01T08:41:47Z</time>
      </trkpt>
      <trkpt lat="45.86386" lon="1.4496">
        <ele>314.7</ele>
        <time>2022-08-01T08:41:49Z</time>
      </trkpt>
      <trkpt lat="45.86382" lon="1.44964">
        <ele>314.8</ele>
        <time>2022-08-01T08:41:51Z</time>
      </trkpt>
      <trkpt lat="45.8638" lon="1.44969">
        <ele>314.9</ele>
        <time>2022-08-01T08:41:53Z</time>
      </trkpt>
      <trkpt lat="45.86377" lon="1.44974">
        <ele>315</ele>
        <time>2022-08-01T08:41:55Z</time>
      </trkpt>
      <trkpt lat="45.86373" lon="1.4498">
        <ele>315</ele>
        <time>2022-08-01T08:41:57Z</time>
      </trkpt>
      <trkpt lat="45.8637" lon="1.44984">
        <ele>315.1</ele>
        <time>2022-08-01T08:41:59Z</time>
      </trkpt>
      <trkpt lat="45.86366" lon="1.44991">
        <ele>315.2</ele>
        <time>2022-08-01T08:42:01Z</time>
      </trkpt>
      <trkpt lat="45.86362" lon="1.44997">
        <ele>315.3</ele>
        <time>2022-08-01T08:42:03Z</time>
      </trkpt>
      <trkpt lat="45.86358" lon="1.45003">
        <ele>315.4</ele>
        <time>2022-08-01T08:42:05Z</time>
      </trkpt>
      <trkpt lat="45.86354" lon="1.45011">
        <ele>315.3</ele>
        <time>2022-08-01T08:42:07Z</time>
      </trkpt>
      <trkpt lat="45.86349" lon="1.45018">
        <ele>315.2</ele>
        <time>2022-08-01T08:42:09Z</time>
      </trkpt>
      <trkpt lat="45.86343" lon="1.45027">
        <ele>315</ele>
        <time>2022-08-01T08:42:11Z</time>
      </trkpt>
      <trkpt lat="45.86337" lon="1.45037">
        <ele>314.7</ele>
        <time>2022-08-01T08:42:13Z</time>
      </trkpt>
      <trkpt lat="45.86329" lon="1.45049">
        <ele>313.5</ele>
        <time>2022-08-01T08:42:15Z</time>
      </trkpt>
      <trkpt lat="45.8632" lon="1.45064">
        <ele>311.8</ele>
        <time>2022-08-01T08:42:17Z</time>
      </trkpt>
      <trkpt lat="45.8631" lon="1.4508">
        <ele>310.3</ele>
        <time>2022-08-01T08:42:19Z</time>
      </trkpt>
      <trkpt lat="45.86301" lon="1.45097">
        <ele>309.5</ele>
        <time>2022-08-01T08:42:21Z</time>
      </trkpt>
      <trkpt lat="45.86292" lon="1.45113">
        <ele>308.9</ele>
        <time>2022-08-01T08:42:23Z</time>
      </trkpt>
      <trkpt lat="45.86281" lon="1.4513">
        <ele>308.2</ele>
        <time>2022-08-01T08:42:25Z</time>
      </trkpt>
      <trkpt lat="45.8627" lon="1.45148">
        <ele>307.6</ele>
        <time>2022-08-01T08:42:27Z</time>
      </trkpt>
      <trkpt lat="45.8626" lon="1.45164">
        <ele>307</ele>
        <time>2022-08-01T08:42:29Z</time>
      </trkpt>
      <trkpt lat="45.86247" lon="1.45179">
        <ele>305.5</ele>
        <time>2022-08-01T08:42:31Z</time>
      </trkpt>
      <trkpt lat="45.86233" lon="1.45191">
        <ele>304.2</ele>
        <time>2022-08-01T08:42:33Z</time>
      </trkpt>
      <trkpt lat="45.86218" lon="1.452">
        <ele>303</ele>
        <time>2022-08-01T08:42:35Z</time>
      </trkpt>
      <trkpt lat="45.86201" lon="1.45207">
        <ele>302</ele>
        <time>2022-08-01T08:42:37Z</time>
      </trkpt>
      <trkpt lat="45.86184" lon="1.45213">
        <ele>301.2</ele>
        <time>2022-08-01T08:42:39Z</time>
      </trkpt>
      <trkpt lat="45.86166" lon="1.45219">
        <ele>300.5</ele>
        <time>2022-08-01T08:42:41Z</time>
      </trkpt>
      <trkpt lat="45.86149" lon="1.45227">
        <ele>299.2</ele>
        <time>2022-08-01T08:42:43Z</time>
      </trkpt>
      <trkpt lat="45.8613" lon="1.45233">
        <ele>298.2</ele>
        <time>2022-08-01T08:42:45Z</time>
      </trkpt>
      <trkpt lat="45.86113" lon="1.45241">
        <ele>297.7</ele>
        <time>2022-08-01T08:42:47Z</time>
      </trkpt>
      <trkpt lat="45.86094" lon="1.45249">
        <ele>297.6</ele>
        <time>2022-08-01T08:42:49Z</time>
      </trkpt>
      <trkpt lat="45.86079" lon="1.45263">
        <ele>296.8</ele>
        <time>2022-08-01T08:42:51Z</time>
      </trkpt>
      <trkpt lat="45.86066" lon="1.4528">
        <ele>295.8</ele>
        <time>2022-08-01T08:42:53Z</time>
      </trkpt>
      <trkpt lat="45.86053" lon="1.45297">
        <ele>295</ele>
        <time>2022-08-01T08:42:55Z</time>
      </trkpt>
      <trkpt lat="45.86039" lon="1.45315">
        <ele>294.5</ele>
        <time>2022-08-01T08:42:57Z</time>
      </trkpt>
      <trkpt lat="45.86026" lon="1.45332">
        <ele>294.5</ele>
        <time>2022-08-01T08:42:59Z</time>
      </trkpt>
      <trkpt lat="45.86011" lon="1.45348">
        <ele>292.8</ele>
        <time>2022-08-01T08:43:01Z</time>
      </trkpt>
      <trkpt lat="45.85998" lon="1.45366">
        <ele>291.5</ele>
        <time>2022-08-01T08:43:03Z</time>
      </trkpt>
      <trkpt lat="45.85985" lon="1.45382">
        <ele>290.8</ele>
        <time>2022-08-01T08:43:05Z</time>
      </trkpt>
      <trkpt lat="45.85973" lon="1.45399">
        <ele>290.5</ele>
        <time>2022-08-01T08:43:07Z</time>
      </trkpt>
      <trkpt lat="45.85961" lon="1.45415">
        <ele>290.5</ele>
        <time>2022-08-01T08:43:09Z</time>
      </trkpt>
      <trkpt lat="45.85948" lon="1.45432">
        <ele>290</ele>
        <time>2022-08-01T08:43:11Z</time>
      </trkpt>
      <trkpt lat="45.85934" lon="1.45452">
        <ele>289.4</ele>
        <time>2022-08-01T08:43:13Z</time>
      </trkpt>
      <trkpt lat="45.85919" lon="1.45472">
        <ele>288.7</ele>
        <time>2022-08-01T08:43:15Z</time>
      </trkpt>
      <trkpt lat="45.85903" lon="1.45493">
        <ele>287.3</ele>
        <time>2022-08-01T08:43:17Z</time>
      </trkpt>
      <trkpt lat="45.85888" lon="1.45513">
        <ele>286.9</ele>
        <time>2022-08-01T08:43:19Z</time>
      </trkpt>
      <trkpt lat="45.85874" lon="1.4553">
        <ele>286.9</ele>
        <time>2022-08-01T08:43:21Z</time>
      </trkpt>
      <trkpt lat="45.85861" lon="1.45547">
        <ele>286.9</ele>
        <time>2022-08-01T08:43:23Z</time>
      </trkpt>
      <trkpt lat="45.85851" lon="1.45559">
        <ele>286.9</ele>
        <time>2022-08-01T08:43:25Z</time>
      </trkpt>
      <trkpt lat="45.85842" lon="1.4557">
        <ele>286.9</ele>
        <time>2022-08-01T08:43:27Z</time>
      </trkpt>
      <trkpt lat="45.85835" lon="1.4558">
        <ele>287</ele>
        <time>2022-08-01T08:43:29Z</time>
      </trkpt>
      <trkpt lat="45.85829" lon="1.45591">
        <ele>286.9</ele>
        <time>2022-08-01T08:43:31Z</time>
      </trkpt>
      <trkpt lat="45.85824" lon="1.45601">
        <ele>286.9</ele>
        <time>2022-08-01T08:43:33Z</time>
      </trkpt>
      <trkpt lat="45.8582" lon="1.45612">
        <ele>286.9</ele>
        <time>2022-08-01T08:43:35Z</time>
      </trkpt>
      <trkpt lat="45.85816" lon="1.45622">
        <ele>287</ele>
        <time>2022-08-01T08:43:37Z</time>
      </trkpt>
      <trkpt lat="45.85813" lon="1.45633">
        <ele>287.1</ele>
        <time>2022-08-01T08:43:39Z</time>
      </trkpt>
      <trkpt lat="45.85809" lon="1.45643">
        <ele>287.2</ele>
        <time>2022-08-01T08:43:41Z</time>
      </trkpt>
      <trkpt lat="45.85806" lon="1.45655">
        <ele>287.4</ele>
        <time>2022-08-01T08:43:43Z</time>
      </trkpt>
      <trkpt lat="45.85803" lon="1.45665">
        <ele>287.5</ele>
        <time>2022-08-01T08:43:45Z</time>
      </trkpt>
      <trkpt lat="45.85799" lon="1.45677">
        <ele>287.3</ele>
        <time>2022-08-01T08:43:47Z</time>
      </trkpt>
      <trkpt lat="45.85795" lon="1.45689">
        <ele>287</ele>
        <time>2022-08-01T08:43:49Z</time>
      </trkpt>
      <trkpt lat="45.85791" lon="1.45703">
        <ele>286.8</ele>
        <time>2022-08-01T08:43:51Z</time>
      </trkpt>
      <trkpt lat="45.85787" lon="1.45716">
        <ele>286.6</ele>
        <time>2022-08-01T08:43:53Z</time>
      </trkpt>
      <trkpt lat="45.85784" lon="1.4573">
        <ele>286.5</ele>
        <time>2022-08-01T08:43:55Z</time>
      </trkpt>
      <trkpt lat="45.85779" lon="1.45744">
        <ele>286.4</ele>
        <time>2022-08-01T08:43:57Z</time>
      </trkpt>
      <trkpt lat="45.85775" lon="1.45758">
        <ele>285.7</ele>
        <time>2022-08-01T08:43:59Z</time>
      </trkpt>
      <trkpt lat="45.8577" lon="1.45771">
        <ele>284.8</ele>
        <time>2022-08-01T08:44:01Z</time>
      </trkpt>
      <trkpt lat="45.85764" lon="1.45784">
        <ele>283.8</ele>
        <time>2022-08-01T08:44:03Z</time>
      </trkpt>
      <trkpt lat="45.85757" lon="1.45796">
        <ele>282.8</ele>
        <time>2022-08-01T08:44:05Z</time>
      </trkpt>
      <trkpt lat="45.85748" lon="1.45806">
        <ele>282</ele>
        <time>2022-08-01T08:44:07Z</time>
      </trkpt>
      <trkpt lat="45.85736" lon="1.45815">
        <ele>281.5</ele>
        <time>2022-08-01T08:44:09Z</time>
      </trkpt>
      <trkpt lat="45.85723" lon="1.45829">
        <ele>280.9</ele>
        <time>2022-08-01T08:44:11Z</time>
      </trkpt>
      <trkpt lat="45.85709" lon="1.45845">
        <ele>279.9</ele>
        <time>2022-08-01T08:44:13Z</time>
      </trkpt>
      <trkpt lat="45.85694" lon="1.45862">
        <ele>278.7</ele>
        <time>2022-08-01T08:44:15Z</time>
      </trkpt>
      <trkpt lat="45.85679" lon="1.45878">
        <ele>277.4</ele>
        <time>2022-08-01T08:44:17Z</time>
      </trkpt>
      <trkpt lat="45.85665" lon="1.45894">
        <ele>276.2</ele>
        <time>2022-08-01T08:44:19Z</time>
      </trkpt>
      <trkpt lat="45.85652" lon="1.4591">
        <ele>274.4</ele>
        <time>2022-08-01T08:44:21Z</time>
      </trkpt>
      <trkpt lat="45.85638" lon="1.45919">
        <ele>273.3</ele>
        <time>2022-08-01T08:44:23Z</time>
      </trkpt>
      <trkpt lat="45.85624" lon="1.45928">
        <ele>271.8</ele>
        <time>2022-08-01T08:44:25Z</time>
      </trkpt>
      <trkpt lat="45.85608" lon="1.45934">
        <ele>270.6</ele>
        <time>2022-08-01T08:44:27Z</time>
      </trkpt>
      <trkpt lat="45.85593" lon="1.45938">
        <ele>269.6</ele>
        <time>2022-08-01T08:44:29Z</time>
      </trkpt>
      <trkpt lat="45.8558" lon="1.45942">
        <ele>268.4</ele>
        <time>2022-08-01T08:44:31Z</time>
      </trkpt>
      <trkpt lat="45.85568" lon="1.45945">
        <ele>266.2</ele>
        <time>2022-08-01T08:44:33Z</time>
      </trkpt>
      <trkpt lat="45.85553" lon="1.45947">
        <ele>263.9</ele>
        <time>2022-08-01T08:44:35Z</time>
      </trkpt>
      <trkpt lat="45.8554" lon="1.45943">
        <ele>262.5</ele>
        <time>2022-08-01T08:44:37Z</time>
      </trkpt>
      <trkpt lat="45.85529" lon="1.45934">
        <ele>261.5</ele>
        <time>2022-08-01T08:44:39Z</time>
      </trkpt>
      <trkpt lat="45.85519" lon="1.45927">
        <ele>260.2</ele>
        <time>2022-08-01T08:44:41Z</time>
      </trkpt>
      <trkpt lat="45.85511" lon="1.45922">
        <ele>259</ele>
        <time>2022-08-01T08:44:43Z</time>
      </trkpt>
      <trkpt lat="45.85503" lon="1.4592">
        <ele>257.5</ele>
        <time>2022-08-01T08:44:45Z</time>
      </trkpt>
      <trkpt lat="45.85494" lon="1.45921">
        <ele>256.5</ele>
        <time>2022-08-01T08:44:47Z</time>
      </trkpt>
      <trkpt lat="45.85489" lon="1.45922">
        <ele>256.1</ele>
        <time>2022-08-01T08:44:49Z</time>
      </trkpt>
      <trkpt lat="45.85482" lon="1.45923">
        <ele>255.5</ele>
        <time>2022-08-01T08:44:51Z</time>
      </trkpt>
      <trkpt lat="45.85476" lon="1.45922">
        <ele>255</ele>
        <time>2022-08-01T08:44:53Z</time>
      </trkpt>
      <trkpt lat="45.8547" lon="1.45924">
        <ele>254.6</ele>
        <time>2022-08-01T08:44:55Z</time>
      </trkpt>
      <trkpt lat="45.85466" lon="1.45924">
        <ele>254.3</ele>
        <time>2022-08-01T08:44:57Z</time>
      </trkpt>
      <trkpt lat="45.85462" lon="1.45927">
        <ele>254</ele>
        <time>2022-08-01T08:44:59Z</time>
      </trkpt>
      <trkpt lat="45.85458" lon="1.45931">
        <ele>253.7</ele>
        <time>2022-08-01T08:45:01Z</time>
      </trkpt>
      <trkpt lat="45.85454" lon="1.45935">
        <ele>253.5</ele>
        <time>2022-08-01T08:45:03Z</time>
      </trkpt>
      <trkpt lat="45.85451" lon="1.45941">
        <ele>253.4</ele>
        <time>2022-08-01T08:45:05Z</time>
      </trkpt>
      <trkpt lat="45.85448" lon="1.45948">
        <ele>253.3</ele>
        <time>2022-08-01T08:45:07Z</time>
      </trkpt>
      <trkpt lat="45.85446" lon="1.45955">
        <ele>253.4</ele>
        <time>2022-08-01T08:45:09Z</time>
      </trkpt>
      <trkpt lat="45.85444" lon="1.45961">
        <ele>253.3</ele>
        <time>2022-08-01T08:45:11Z</time>
      </trkpt>
      <trkpt lat="45.8544" lon="1.45967">
        <ele>253.3</ele>
        <time>2022-08-01T08:45:13Z</time>
      </trkpt>
      <trkpt lat="45.85437" lon="1.45974">
        <ele>253.3</ele>
        <time>2022-08-01T08:45:15Z</time>
      </trkpt>
      <trkpt lat="45.85433" lon="1.4598">
        <ele>253.2</ele>
        <time>2022-08-01T08:45:17Z</time>
      </trkpt>
      <trkpt lat="45.85429" lon="1.45986">
        <ele>253.2</ele>
        <time>2022-08-01T08:45:19Z</time>
      </trkpt>
      <trkpt lat="45.85426" lon="1.45992">
        <ele>253.2</ele>
        <time>2022-08-01T08:45:21Z</time>
      </trkpt>
      <trkpt lat="45.85423" lon="1.45996">
        <ele>253.2</ele>
        <time>2022-08-01T08:45:23Z</time>
      </trkpt>
      <trkpt lat="45.8542" lon="1.46">
        <ele>253.2</ele>
        <time>2022-08-01T08:45:25Z</time>
      </trkpt>
      <trkpt lat="45.85416" lon="1.46005">
        <ele>253.8</ele>
        <time>2022-08-01T08:45:27Z</time>
      </trkpt>
      <trkpt lat="45.85413" lon="1.4601">
        <ele>254.5</ele>
        <time>2022-08-01T08:45:29Z</time>
      </trkpt>
      <trkpt lat="45.85411" lon="1.46014">
        <ele>255.1</ele>
        <time>2022-08-01T08:45:31Z</time>
      </trkpt>
      <trkpt lat="45.85408" lon="1.46017">
        <ele>255.5</ele>
        <time>2022-08-01T08:45:33Z</time>
      </trkpt>
      <trkpt lat="45.85405" lon="1.4602">
        <ele>255.9</ele>
        <time>2022-08-01T08:45:35Z</time>
      </trkpt>
      <trkpt lat="45.85402" lon="1.46024">
        <ele>256.4</ele>
        <time>2022-08-01T08:45:37Z</time>
      </trkpt>
      <trkpt lat="45.854" lon="1.46029">
        <ele>257</ele>
        <time>2022-08-01T08:45:39Z</time>
      </trkpt>
      <trkpt lat="45.85398" lon="1.46032">
        <ele>257.4</ele>
        <time>2022-08-01T08:45:41Z</time>
      </trkpt>
      <trkpt lat="45.85395" lon="1.46036">
        <ele>257.9</ele>
        <time>2022-08-01T08:45:43Z</time>
      </trkpt>
      <trkpt lat="45.85393" lon="1.46039">
        <ele>258.2</ele>
        <time>2022-08-01T08:45:45Z</time>
      </trkpt>
      <trkpt lat="45.8539" lon="1.46042">
        <ele>258.5</ele>
        <time>2022-08-01T08:45:47Z</time>
      </trkpt>
      <trkpt lat="45.85388" lon="1.46046">
        <ele>258.8</ele>
        <time>2022-08-01T08:45:49Z</time>
      </trkpt>
      <trkpt lat="45.85385" lon="1.4605">
        <ele>259.2</ele>
        <time>2022-08-01T08:45:51Z</time>
      </trkpt>
      <trkpt lat="45.85382" lon="1.46053">
        <ele>259.4</ele>
        <time>2022-08-01T08:45:53Z</time>
      </trkpt>
      <trkpt lat="45.8538" lon="1.46056">
        <ele>259.6</ele>
        <time>2022-08-01T08:45:55Z</time>
      </trkpt>
      <trkpt lat="45.85378" lon="1.46058">
        <ele>259.9</ele>
        <time>2022-08-01T08:45:57Z</time>
      </trkpt>
      <trkpt lat="45.85375" lon="1.4606">
        <ele>259.9</ele>
        <time>2022-08-01T08:45:59Z</time>
      </trkpt>
      <trkpt lat="45.85373" lon="1.46063">
        <ele>260.1</ele>
        <time>2022-08-01T08:46:01Z</time>
      </trkpt>
      <trkpt lat="45.85372" lon="1.46067">
        <ele>260.4</ele>
        <time>2022-08-01T08:46:03Z</time>
      </trkpt>
      <trkpt lat="45.85369" lon="1.46069">
        <ele>260.5</ele>
        <time>2022-08-01T08:46:05Z</time>
      </trkpt>
      <trkpt lat="45.85367" lon="1.46073">
        <ele>260.7</ele>
        <time>2022-08-01T08:46:07Z</time>
      </trkpt>
      <trkpt lat="45.85364" lon="1.46076">
        <ele>260.8</ele>
        <time>2022-08-01T08:46:09Z</time>
      </trkpt>
      <trkpt lat="45.85362" lon="1.46079">
        <ele>261</ele>
        <time>2022-08-01T08:46:11Z</time>
      </trkpt>
      <trkpt lat="45.8536" lon="1.46082">
        <ele>261.1</ele>
        <time>2022-08-01T08:46:13Z</time>
      </trkpt>
      <trkpt lat="45.85357" lon="1.46085">
        <ele>261.2</ele>
        <time>2022-08-01T08:46:15Z</time>
      </trkpt>
      <trkpt lat="45.85354" lon="1.46088">
        <ele>261.3</ele>
        <time>2022-08-01T08:46:17Z</time>
      </trkpt>
      <trkpt lat="45.85351" lon="1.46091">
        <ele>261.5</ele>
        <time>2022-08-01T08:46:19Z</time>
      </trkpt>
      <trkpt lat="45.85348" lon="1.46094">
        <ele>261.5</ele>
        <time>2022-08-01T08:46:21Z</time>
      </trkpt>
      <trkpt lat="45.85346" lon="1.46097">
        <ele>261.8</ele>
        <time>2022-08-01T08:46:23Z</time>
      </trkpt>
      <trkpt lat="45.85344" lon="1.46101">
        <ele>262</ele>
        <time>2022-08-01T08:46:25Z</time>
      </trkpt>
      <trkpt lat="45.85341" lon="1.46104">
        <ele>262.1</ele>
        <time>2022-08-01T08:46:27Z</time>
      </trkpt>
      <trkpt lat="45.85338" lon="1.46107">
        <ele>262.2</ele>
        <time>2022-08-01T08:46:29Z</time>
      </trkpt>
      <trkpt lat="45.85335" lon="1.4611">
        <ele>262.4</ele>
        <time>2022-08-01T08:46:31Z</time>
      </trkpt>
      <trkpt lat="45.85333" lon="1.46114">
        <ele>262.7</ele>
        <time>2022-08-01T08:46:33Z</time>
      </trkpt>
      <trkpt lat="45.85331" lon="1.46118">
        <ele>262.9</ele>
        <time>2022-08-01T08:46:35Z</time>
      </trkpt>
      <trkpt lat="45.85329" lon="1.46121">
        <ele>263.2</ele>
        <time>2022-08-01T08:46:37Z</time>
      </trkpt>
      <trkpt lat="45.85326" lon="1.46126">
        <ele>263.5</ele>
        <time>2022-08-01T08:46:39Z</time>
      </trkpt>
      <trkpt lat="45.85323" lon="1.4613">
        <ele>263.7</ele>
        <time>2022-08-01T08:46:41Z</time>
      </trkpt>
      <trkpt lat="45.8532" lon="1.46134">
        <ele>263.9</ele>
        <time>2022-08-01T08:46:43Z</time>
      </trkpt>
      <trkpt lat="45.85317" lon="1.46138">
        <ele>264.2</ele>
        <time>2022-08-01T08:46:45Z</time>
      </trkpt>
      <trkpt lat="45.85315" lon="1.46143">
        <ele>264.5</ele>
        <time>2022-08-01T08:46:47Z</time>
      </trkpt>
      <trkpt lat="45.85311" lon="1.46146">
        <ele>264.7</ele>
        <time>2022-08-01T08:46:49Z</time>
      </trkpt>
      <trkpt lat="45.85309" lon="1.4615">
        <ele>264.8</ele>
        <time>2022-08-01T08:46:51Z</time>
      </trkpt>
      <trkpt lat="45.85306" lon="1.46154">
        <ele>265</ele>
        <time>2022-08-01T08:46:53Z</time>
      </trkpt>
      <trkpt lat="45.85304" lon="1.46158">
        <ele>265.3</ele>
        <time>2022-08-01T08:46:55Z</time>
      </trkpt>
      <trkpt lat="45.85301" lon="1.46162">
        <ele>265.4</ele>
        <time>2022-08-01T08:46:57Z</time>
      </trkpt>
      <trkpt lat="45.85298" lon="1.46165">
        <ele>265.4</ele>
        <time>2022-08-01T08:46:59Z</time>
      </trkpt>
      <trkpt lat="45.85296" lon="1.4617">
        <ele>265.7</ele>
        <time>2022-08-01T08:47:01Z</time>
      </trkpt>
      <trkpt lat="45.85294" lon="1.46174">
        <ele>266</ele>
        <time>2022-08-01T08:47:03Z</time>
      </trkpt>
      <trkpt lat="45.85291" lon="1.46179">
        <ele>266.1</ele>
        <time>2022-08-01T08:47:05Z</time>
      </trkpt>
      <trkpt lat="45.85289" lon="1.46182">
        <ele>266.3</ele>
        <time>2022-08-01T08:47:07Z</time>
      </trkpt>
      <trkpt lat="45.85287" lon="1.46187">
        <ele>266.4</ele>
        <time>2022-08-01T08:47:09Z</time>
      </trkpt>
      <trkpt lat="45.85285" lon="1.46191">
        <ele>266.7</ele>
        <time>2022-08-01T08:47:11Z</time>
      </trkpt>
      <trkpt lat="45.85282" lon="1.46193">
        <ele>266.7</ele>
        <time>2022-08-01T08:47:13Z</time>
      </trkpt>
      <trkpt lat="45.8528" lon="1.46197">
        <ele>266.9</ele>
        <time>2022-08-01T08:47:15Z</time>
      </trkpt>
      <trkpt lat="45.85278" lon="1.46201">
        <ele>267.1</ele>
        <time>2022-08-01T08:47:17Z</time>
      </trkpt>
      <trkpt lat="45.85275" lon="1.46205">
        <ele>267.3</ele>
        <time>2022-08-01T08:47:19Z</time>
      </trkpt>
      <trkpt lat="45.85273" lon="1.46208">
        <ele>267.4</ele>
        <time>2022-08-01T08:47:21Z</time>
      </trkpt>
      <trkpt lat="45.85271" lon="1.46212">
        <ele>267.6</ele>
        <time>2022-08-01T08:47:23Z</time>
      </trkpt>
      <trkpt lat="45.85269" lon="1.46215">
        <ele>267.7</ele>
        <time>2022-08-01T08:47:25Z</time>
      </trkpt>
      <trkpt lat="45.85268" lon="1.46219">
        <ele>268.1</ele>
        <time>2022-08-01T08:47:27Z</time>
      </trkpt>
      <trkpt lat="45.85267" lon="1.46223">
        <ele>268.4</ele>
        <time>2022-08-01T08:47:29Z</time>
      </trkpt>
      <trkpt lat="45.85265" lon="1.46227">
        <ele>268.7</ele>
        <time>2022-08-01T08:47:31Z</time>
      </trkpt>
      <trkpt lat="45.85262" lon="1.46231">
        <ele>268.8</ele>
        <time>2022-08-01T08:47:33Z</time>
      </trkpt>
      <trkpt lat="45.8526" lon="1.46234">
        <ele>269.1</ele>
        <time>2022-08-01T08:47:35Z</time>
      </trkpt>
      <trkpt lat="45.85258" lon="1.46237">
        <ele>269.2</ele>
        <time>2022-08-01T08:47:37Z</time>
      </trkpt>
      <trkpt lat="45.85255" lon="1.46241">
        <ele>269.4</ele>
        <time>2022-08-01T08:47:39Z</time>
      </trkpt>
      <trkpt lat="45.85253" lon="1.46244">
        <ele>269.5</ele>
        <time>2022-08-01T08:47:41Z</time>
      </trkpt>
      <trkpt lat="45.85251" lon="1.46247">
        <ele>269.7</ele>
        <time>2022-08-01T08:47:43Z</time>
      </trkpt>
      <trkpt lat="45.85249" lon="1.46251">
        <ele>270</ele>
        <time>2022-08-01T08:47:45Z</time>
      </trkpt>
      <trkpt lat="45.85248" lon="1.46255">
        <ele>270.3</ele>
        <time>2022-08-01T08:47:47Z</time>
      </trkpt>
      <trkpt lat="45.85246" lon="1.46259">
        <ele>270.6</ele>
        <time>2022-08-01T08:47:49Z</time>
      </trkpt>
      <trkpt lat="45.85244" lon="1.46262">
        <ele>270.8</ele>
        <time>2022-08-01T08:47:51Z</time>
      </trkpt>
      <trkpt lat="45.85242" lon="1.46266">
        <ele>271.1</ele>
        <time>2022-08-01T08:47:53Z</time>
      </trkpt>
      <trkpt lat="45.85241" lon="1.4627">
        <ele>271.3</ele>
        <time>2022-08-01T08:47:55Z</time>
      </trkpt>
      <trkpt lat="45.85239" lon="1.46274">
        <ele>271.7</ele>
        <time>2022-08-01T08:47:57Z</time>
      </trkpt>
      <trkpt lat="45.85238" lon="1.46278">
        <ele>272</ele>
        <time>2022-08-01T08:47:59Z</time>
      </trkpt>
      <trkpt lat="45.85237" lon="1.46282">
        <ele>272.2</ele>
        <time>2022-08-01T08:48:01Z</time>
      </trkpt>
      <trkpt lat="45.85235" lon="1.46286">
        <ele>272.5</ele>
        <time>2022-08-01T08:48:03Z</time>
      </trkpt>
      <trkpt lat="45.85234" lon="1.4629">
        <ele>272.8</ele>
        <time>2022-08-01T08:48:05Z</time>
      </trkpt>
      <trkpt lat="45.85233" lon="1.46293">
        <ele>273.1</ele>
        <time>2022-08-01T08:48:07Z</time>
      </trkpt>
      <trkpt lat="45.85232" lon="1.46298">
        <ele>273.5</ele>
        <time>2022-08-01T08:48:09Z</time>
      </trkpt>
      <trkpt lat="45.8523" lon="1.46301">
        <ele>273.8</ele>
        <time>2022-08-01T08:48:11Z</time>
      </trkpt>
      <trkpt lat="45.85229" lon="1.46306">
        <ele>274.1</ele>
        <time>2022-08-01T08:48:13Z</time>
      </trkpt>
      <trkpt lat="45.85228" lon="1.4631">
        <ele>274.5</ele>
        <time>2022-08-01T08:48:15Z</time>
      </trkpt>
      <trkpt lat="45.85227" lon="1.46315">
        <ele>274.9</ele>
        <time>2022-08-01T08:48:17Z</time>
      </trkpt>
      <trkpt lat="45.85226" lon="1.46319">
        <ele>275.2</ele>
        <time>2022-08-01T08:48:19Z</time>
      </trkpt>
      <trkpt lat="45.85225" lon="1.46324">
        <ele>275.6</ele>
        <time>2022-08-01T08:48:21Z</time>
      </trkpt>
      <trkpt lat="45.85225" lon="1.46328">
        <ele>276.1</ele>
        <time>2022-08-01T08:48:23Z</time>
      </trkpt>
      <trkpt lat="45.85224" lon="1.46332">
        <ele>276.4</ele>
        <time>2022-08-01T08:48:25Z</time>
      </trkpt>
      <trkpt lat="45.85223" lon="1.46337">
        <ele>276.7</ele>
        <time>2022-08-01T08:48:27Z</time>
      </trkpt>
      <trkpt lat="45.85223" lon="1.46341">
        <ele>276.9</ele>
        <time>2022-08-01T08:48:29Z</time>
      </trkpt>
      <trkpt lat="45.85222" lon="1.46345">
        <ele>277.1</ele>
        <time>2022-08-01T08:48:31Z</time>
      </trkpt>
      <trkpt lat="45.85221" lon="1.46349">
        <ele>277.3</ele>
        <time>2022-08-01T08:48:33Z</time>
      </trkpt>
      <trkpt lat="45.8522" lon="1.46352">
        <ele>277.4</ele>
        <time>2022-08-01T08:48:35Z</time>
      </trkpt>
      <trkpt lat="45.8522" lon="1.46357">
        <ele>277.7</ele>
        <time>2022-08-01T08:48:37Z</time>
      </trkpt>
      <trkpt lat="45.85219" lon="1.46361">
        <ele>277.9</ele>
        <time>2022-08-01T08:48:39Z</time>
      </trkpt>
      <trkpt lat="45.85218" lon="1.46365">
        <ele>278.2</ele>
        <time>2022-08-01T08:48:41Z</time>
      </trkpt>
      <trkpt lat="45.85217" lon="1.46369">
        <ele>278.4</ele>
        <time>2022-08-01T08:48:43Z</time>
      </trkpt>
      <trkpt lat="45.85217" lon="1.46374">
        <ele>278.6</ele>
        <time>2022-08-01T08:48:45Z</time>
      </trkpt>
      <trkpt lat="45.85216" lon="1.46378">
        <ele>278.9</ele>
        <time>2022-08-01T08:48:47Z</time>
      </trkpt>
      <trkpt lat="45.85215" lon="1.46383">
        <ele>279.1</ele>
        <time>2022-08-01T08:48:49Z</time>
      </trkpt>
      <trkpt lat="45.85214" lon="1.46387">
        <ele>279.4</ele>
        <time>2022-08-01T08:48:51Z</time>
      </trkpt>
      <trkpt lat="45.85214" lon="1.46392">
        <ele>279.7</ele>
        <time>2022-08-01T08:48:53Z</time>
      </trkpt>
      <trkpt lat="45.85213" lon="1.46396">
        <ele>279.9</ele>
        <time>2022-08-01T08:48:55Z</time>
      </trkpt>
      <trkpt lat="45.85212" lon="1.46401">
        <ele>280.2</ele>
        <time>2022-08-01T08:48:57Z</time>
      </trkpt>
      <trkpt lat="45.85212" lon="1.46405">
        <ele>280.4</ele>
        <time>2022-08-01T08:48:59Z</time>
      </trkpt>
      <trkpt lat="45.85211" lon="1.4641">
        <ele>280.7</ele>
        <time>2022-08-01T08:49:01Z</time>
      </trkpt>
      <trkpt lat="45.85211" lon="1.46414">
        <ele>280.9</ele>
        <time>2022-08-01T08:49:03Z</time>
      </trkpt>
      <trkpt lat="45.8521" lon="1.46419">
        <ele>281.3</ele>
        <time>2022-08-01T08:49:05Z</time>
      </trkpt>
      <trkpt lat="45.85209" lon="1.46423">
        <ele>281.6</ele>
        <time>2022-08-01T08:49:07Z</time>
      </trkpt>
      <trkpt lat="45.85209" lon="1.46427">
        <ele>281.8</ele>
        <time>2022-08-01T08:49:09Z</time>
      </trkpt>
      <trkpt lat="45.85208" lon="1.46431">
        <ele>282.1</ele>
        <time>2022-08-01T08:49:11Z</time>
      </trkpt>
      <trkpt lat="45.85208" lon="1.46437">
        <ele>282.6</ele>
        <time>2022-08-01T08:49:13Z</time>
      </trkpt>
      <trkpt lat="45.85208" lon="1.46442">
        <ele>282.9</ele>
        <time>2022-08-01T08:49:15Z</time>
      </trkpt>
      <trkpt lat="45.85208" lon="1.46446">
        <ele>283.2</ele>
        <time>2022-08-01T08:49:17Z</time>
      </trkpt>
      <trkpt lat="45.85208" lon="1.4645">
        <ele>283.6</ele>
        <time>2022-08-01T08:49:19Z</time>
      </trkpt>
      <trkpt lat="45.85208" lon="1.46454">
        <ele>283.9</ele>
        <time>2022-08-01T08:49:21Z</time>
      </trkpt>
      <trkpt lat="45.85208" lon="1.46459">
        <ele>284.3</ele>
        <time>2022-08-01T08:49:23Z</time>
      </trkpt>
      <trkpt lat="45.85208" lon="1.46463">
        <ele>284.6</ele>
        <time>2022-08-01T08:49:25Z</time>
      </trkpt>
      <trkpt lat="45.85209" lon="1.46468">
        <ele>285</ele>
        <time>2022-08-01T08:49:27Z</time>
      </trkpt>
      <trkpt lat="45.85209" lon="1.46472">
        <ele>285.4</ele>
        <time>2022-08-01T08:49:29Z</time>
      </trkpt>
      <trkpt lat="45.85209" lon="1.46477">
        <ele>285.8</ele>
        <time>2022-08-01T08:49:31Z</time>
      </trkpt>
      <trkpt lat="45.8521" lon="1.46482">
        <ele>286.2</ele>
        <time>2022-08-01T08:49:33Z</time>
      </trkpt>
      <trkpt lat="45.85212" lon="1.46486">
        <ele>286.6</ele>
        <time>2022-08-01T08:49:35Z</time>
      </trkpt>
      <trkpt lat="45.85213" lon="1.46491">
        <ele>287</ele>
        <time>2022-08-01T08:49:37Z</time>
      </trkpt>
      <trkpt lat="45.85214" lon="1.46495">
        <ele>287.5</ele>
        <time>2022-08-01T08:49:39Z</time>
      </trkpt>
      <trkpt lat="45.85215" lon="1.46499">
        <ele>287.9</ele>
        <time>2022-08-01T08:49:41Z</time>
      </trkpt>
      <trkpt lat="45.85216" lon="1.46504">
        <ele>288.1</ele>
        <time>2022-08-01T08:49:43Z</time>
      </trkpt>
      <trkpt lat="45.85218" lon="1.46508">
        <ele>288.4</ele>
        <time>2022-08-01T08:49:45Z</time>
      </trkpt>
      <trkpt lat="45.85219" lon="1.46513">
        <ele>288.7</ele>
        <time>2022-08-01T08:49:47Z</time>
      </trkpt>
      <trkpt lat="45.85221" lon="1.46518">
        <ele>289</ele>
        <time>2022-08-01T08:49:49Z</time>
      </trkpt>
      <trkpt lat="45.85222" lon="1.46523">
        <ele>289.3</ele>
        <time>2022-08-01T08:49:51Z</time>
      </trkpt>
      <trkpt lat="45.85223" lon="1.46527">
        <ele>289.6</ele>
        <time>2022-08-01T08:49:53Z</time>
      </trkpt>
      <trkpt lat="45.85225" lon="1.46532">
        <ele>289.9</ele>
        <time>2022-08-01T08:49:55Z</time>
      </trkpt>
      <trkpt lat="45.85226" lon="1.46536">
        <ele>290.1</ele>
        <time>2022-08-01T08:49:57Z</time>
      </trkpt>
      <trkpt lat="45.85227" lon="1.46542">
        <ele>290.4</ele>
        <time>2022-08-01T08:49:59Z</time>
      </trkpt>
      <trkpt lat="45.85228" lon="1.46547">
        <ele>290.7</ele>
        <time>2022-08-01T08:50:01Z</time>
      </trkpt>
      <trkpt lat="45.85228" lon="1.46552">
        <ele>290.9</ele>
        <time>2022-08-01T08:50:03Z</time>
      </trkpt>
      <trkpt lat="45.85229" lon="1.46558">
        <ele>291.2</ele>
        <time>2022-08-01T08:50:05Z</time>
      </trkpt>
      <trkpt lat="45.85229" lon="1.46564">
        <ele>291.4</ele>
        <time>2022-08-01T08:50:07Z</time>
      </trkpt>
      <trkpt lat="45.85228" lon="1.4657">
        <ele>291.6</ele>
        <time>2022-08-01T08:50:09Z</time>
      </trkpt>
      <trkpt lat="45.85228" lon="1.46576">
        <ele>291.9</ele>
        <time>2022-08-01T08:50:11Z</time>
      </trkpt>
      <trkpt lat="45.85228" lon="1.46582">
        <ele>292.2</ele>
        <time>2022-08-01T08:50:13Z</time>
      </trkpt>
      <trkpt lat="45.85228" lon="1.46588">
        <ele>292.2</ele>
        <time>2022-08-01T08:50:15Z</time>
      </trkpt>
      <trkpt lat="45.85228" lon="1.46594">
        <ele>292.3</ele>
        <time>2022-08-01T08:50:17Z</time>
      </trkpt>
      <trkpt lat="45.85227" lon="1.466">
        <ele>292.3</ele>
        <time>2022-08-01T08:50:19Z</time>
      </trkpt>
      <trkpt lat="45.85227" lon="1.46607">
        <ele>292.4</ele>
        <time>2022-08-01T08:50:21Z</time>
      </trkpt>
      <trkpt lat="45.85227" lon="1.46613">
        <ele>292.4</ele>
        <time>2022-08-01T08:50:23Z</time>
      </trkpt>
      <trkpt lat="45.85226" lon="1.4662">
        <ele>292.5</ele>
        <time>2022-08-01T08:50:25Z</time>
      </trkpt>
      <trkpt lat="45.85226" lon="1.46627">
        <ele>292.5</ele>
        <time>2022-08-01T08:50:27Z</time>
      </trkpt>
      <trkpt lat="45.85226" lon="1.46633">
        <ele>292.6</ele>
        <time>2022-08-01T08:50:29Z</time>
      </trkpt>
      <trkpt lat="45.85226" lon="1.4664">
        <ele>292.6</ele>
        <time>2022-08-01T08:50:31Z</time>
      </trkpt>
      <trkpt lat="45.85225" lon="1.46648">
        <ele>292.6</ele>
        <time>2022-08-01T08:50:33Z</time>
      </trkpt>
      <trkpt lat="45.85224" lon="1.46655">
        <ele>292.6</ele>
        <time>2022-08-01T08:50:35Z</time>
      </trkpt>
      <trkpt lat="45.85223" lon="1.46662">
        <ele>292.7</ele>
        <time>2022-08-01T08:50:37Z</time>
      </trkpt>
      <trkpt lat="45.85222" lon="1.4667">
        <ele>292.7</ele>
        <time>2022-08-01T08:50:39Z</time>
      </trkpt>
      <trkpt lat="45.85221" lon="1.46678">
        <ele>292.7</ele>
        <time>2022-08-01T08:50:41Z</time>
      </trkpt>
      <trkpt lat="45.8522" lon="1.46686">
        <ele>292.6</ele>
        <time>2022-08-01T08:50:43Z</time>
      </trkpt>
      <trkpt lat="45.85219" lon="1.46695">
        <ele>292.6</ele>
        <time>2022-08-01T08:50:45Z</time>
      </trkpt>
      <trkpt lat="45.85217" lon="1.46703">
        <ele>292.6</ele>
        <time>2022-08-01T08:50:47Z</time>
      </trkpt>
      <trkpt lat="45.85216" lon="1.46712">
        <ele>292.6</ele>
        <time>2022-08-01T08:50:49Z</time>
      </trkpt>
      <trkpt lat="45.85214" lon="1.4672">
        <ele>292.6</ele>
        <time>2022-08-01T08:50:51Z</time>
      </trkpt>
      <trkpt lat="45.85212" lon="1.46729">
        <ele>292.5</ele>
        <time>2022-08-01T08:50:53Z</time>
      </trkpt>
      <trkpt lat="45.85211" lon="1.46737">
        <ele>292.5</ele>
        <time>2022-08-01T08:50:55Z</time>
      </trkpt>
      <trkpt lat="45.85209" lon="1.46745">
        <ele>292.5</ele>
        <time>2022-08-01T08:50:57Z</time>
      </trkpt>
      <trkpt lat="45.85208" lon="1.46753">
        <ele>292.5</ele>
        <time>2022-08-01T08:50:59Z</time>
      </trkpt>
      <trkpt lat="45.85206" lon="1.46761">
        <ele>292.4</ele>
        <time>2022-08-01T08:51:01Z</time>
      </trkpt>
      <trkpt lat="45.85204" lon="1.46769">
        <ele>292.3</ele>
        <time>2022-08-01T08:51:03Z</time>
      </trkpt>
      <trkpt lat="45.85202" lon="1.46777">
        <ele>292.3</ele>
        <time>2022-08-01T08:51:05Z</time>
      </trkpt>
      <trkpt lat="45.85201" lon="1.46785">
        <ele>292.2</ele>
        <time>2022-08-01T08:51:07Z</time>
      </trkpt>
      <trkpt lat="45.85199" lon="1.46793">
        <ele>292.2</ele>
        <time>2022-08-01T08:51:09Z</time>
      </trkpt>
      <trkpt lat="45.85197" lon="1.46801">
        <ele>292.1</ele>
        <time>2022-08-01T08:51:11Z</time>
      </trkpt>
      <trkpt lat="45.85195" lon="1.4681">
        <ele>292</ele>
        <time>2022-08-01T08:51:13Z</time>
      </trkpt>
      <trkpt lat="45.85194" lon="1.46817">
        <ele>292</ele>
        <time>2022-08-01T08:51:15Z</time>
      </trkpt>
      <trkpt lat="45.85192" lon="1.46825">
        <ele>291.9</ele>
        <time>2022-08-01T08:51:17Z</time>
      </trkpt>
      <trkpt lat="45.85189" lon="1.46833">
        <ele>291.8</ele>
        <time>2022-08-01T08:51:19Z</time>
      </trkpt>
      <trkpt lat="45.85187" lon="1.46841">
        <ele>291.9</ele>
        <time>2022-08-01T08:51:21Z</time>
      </trkpt>
      <trkpt lat="45.85185" lon="1.46849">
        <ele>292</ele>
        <time>2022-08-01T08:51:23Z</time>
      </trkpt>
      <trkpt lat="45.85182" lon="1.46857">
        <ele>292.1</ele>
        <time>2022-08-01T08:51:25Z</time>
      </trkpt>
      <trkpt lat="45.8518" lon="1.46866">
        <ele>292.2</ele>
        <time>2022-08-01T08:51:27Z</time>
      </trkpt>
      <trkpt lat="45.85177" lon="1.46875">
        <ele>292.3</ele>
        <time>2022-08-01T08:51:29Z</time>
      </trkpt>
      <trkpt lat="45.85174" lon="1.46884">
        <ele>292.4</ele>
        <time>2022-08-01T08:51:31Z</time>
      </trkpt>
      <trkpt lat="45.85171" lon="1.46892">
        <ele>292.5</ele>
        <time>2022-08-01T08:51:33Z</time>
      </trkpt>
      <trkpt lat="45.85168" lon="1.469">
        <ele>292.6</ele>
        <time>2022-08-01T08:51:35Z</time>
      </trkpt>
      <trkpt lat="45.85164" lon="1.46908">
        <ele>292.8</ele>
        <time>2022-08-01T08:51:37Z</time>
      </trkpt>
      <trkpt lat="45.85161" lon="1.46916">
        <ele>293</ele>
        <time>2022-08-01T08:51:39Z</time>
      </trkpt>
      <trkpt lat="45.85157" lon="1.46924">
        <ele>293.1</ele>
        <time>2022-08-01T08:51:41Z</time>
      </trkpt>
      <trkpt lat="45.85153" lon="1.46932">
        <ele>293.3</ele>
        <time>2022-08-01T08:51:43Z</time>
      </trkpt>
      <trkpt lat="45.85149" lon="1.4694">
        <ele>293.5</ele>
        <time>2022-08-01T08:51:45Z</time>
      </trkpt>
      <trkpt lat="45.85145" lon="1.46947">
        <ele>293.7</ele>
        <time>2022-08-01T08:51:47Z</time>
      </trkpt>
      <trkpt lat="45.85142" lon="1.46955">
        <ele>294</ele>
        <time>2022-08-01T08:51:49Z</time>
      </trkpt>
      <trkpt lat="45.85137" lon="1.46961">
        <ele>294.3</ele>
        <time>2022-08-01T08:51:51Z</time>
      </trkpt>
      <trkpt lat="45.85133" lon="1.46968">
        <ele>294.6</ele>
        <time>2022-08-01T08:51:53Z</time>
      </trkpt>
      <trkpt lat="45.8513" lon="1.46974">
        <ele>294.9</ele>
        <time>2022-08-01T08:51:55Z</time>
      </trkpt>
      <trkpt lat="45.85126" lon="1.4698">
        <ele>295.2</ele>
        <time>2022-08-01T08:51:57Z</time>
      </trkpt>
      <trkpt lat="45.85123" lon="1.46986">
        <ele>295.6</ele>
        <time>2022-08-01T08:51:59Z</time>
      </trkpt>
      <trkpt lat="45.8512" lon="1.46992">
        <ele>295.9</ele>
        <time>2022-08-01T08:52:01Z</time>
      </trkpt>
      <trkpt lat="45.85116" lon="1.46998">
        <ele>296.3</ele>
        <time>2022-08-01T08:52:03Z</time>
      </trkpt>
      <trkpt lat="45.85113" lon="1.47003">
        <ele>296.6</ele>
        <time>2022-08-01T08:52:05Z</time>
      </trkpt>
      <trkpt lat="45.85109" lon="1.47009">
        <ele>296.9</ele>
        <time>2022-08-01T08:52:07Z</time>
      </trkpt>
      <trkpt lat="45.85106" lon="1.47014">
        <ele>297.1</ele>
        <time>2022-08-01T08:52:09Z</time>
      </trkpt>
      <trkpt lat="45.85103" lon="1.4702">
        <ele>297.4</ele>
        <time>2022-08-01T08:52:11Z</time>
      </trkpt>
      <trkpt lat="45.851" lon="1.47025">
        <ele>297.6</ele>
        <time>2022-08-01T08:52:13Z</time>
      </trkpt>
      <trkpt lat="45.85097" lon="1.47031">
        <ele>297.8</ele>
        <time>2022-08-01T08:52:15Z</time>
      </trkpt>
      <trkpt lat="45.85094" lon="1.47037">
        <ele>298</ele>
        <time>2022-08-01T08:52:17Z</time>
      </trkpt>
      <trkpt lat="45.85091" lon="1.47043">
        <ele>298.2</ele>
        <time>2022-08-01T08:52:19Z</time>
      </trkpt>
      <trkpt lat="45.8509" lon="1.47049">
        <ele>298.3</ele>
        <time>2022-08-01T08:52:21Z</time>
      </trkpt>
      <trkpt lat="45.85087" lon="1.47055">
        <ele>298.5</ele>
        <time>2022-08-01T08:52:23Z</time>
      </trkpt>
      <trkpt lat="45.85086" lon="1.47059">
        <ele>298.6</ele>
        <time>2022-08-01T08:52:25Z</time>
      </trkpt>
      <trkpt lat="45.85086" lon="1.47058">
        <ele>298.6</ele>
        <time>2022-08-01T08:52:27Z</time>
      </trkpt>
      <trkpt lat="45.85086" lon="1.47059">
        <ele>298.6</ele>
        <time>2022-08-01T08:52:29Z</time>
      </trkpt>
      <trkpt lat="45.85087" lon="1.47059">
        <ele>298.5</ele>
        <time>2022-08-01T08:52:31Z</time>
      </trkpt>
      <trkpt lat="45.85088" lon="1.47059">
        <ele>298.5</ele>
        <time>2022-08-01T08:52:33Z</time>
      </trkpt>
      <trkpt lat="45.85077" lon="1.47058">
        <ele>299.1</ele>
        <time>2022-08-01T09:04:19Z</time>
      </trkpt>
      <trkpt lat="45.85074" lon="1.47063">
        <ele>299.3</ele>
        <time>2022-08-01T09:04:21Z</time>
      </trkpt>
      <trkpt lat="45.85071" lon="1.47068">
        <ele>299.5</ele>
        <time>2022-08-01T09:04:23Z</time>
      </trkpt>
      <trkpt lat="45.85068" lon="1.47073">
        <ele>299.7</ele>
        <time>2022-08-01T09:04:25Z</time>
      </trkpt>
      <trkpt lat="45.85066" lon="1.47078">
        <ele>300</ele>
        <time>2022-08-01T09:04:27Z</time>
      </trkpt>
      <trkpt lat="45.85063" lon="1.47083">
        <ele>300.2</ele>
        <time>2022-08-01T09:04:29Z</time>
      </trkpt>
      <trkpt lat="45.8506" lon="1.47088">
        <ele>300.5</ele>
        <time>2022-08-01T09:04:31Z</time>
      </trkpt>
      <trkpt lat="45.85057" lon="1.47092">
        <ele>300.8</ele>
        <time>2022-08-01T09:04:33Z</time>
      </trkpt>
      <trkpt lat="45.85054" lon="1.47097">
        <ele>301.1</ele>
        <time>2022-08-01T09:04:35Z</time>
      </trkpt>
      <trkpt lat="45.85052" lon="1.47102">
        <ele>301.4</ele>
        <time>2022-08-01T09:04:37Z</time>
      </trkpt>
      <trkpt lat="45.85049" lon="1.47107">
        <ele>301.8</ele>
        <time>2022-08-01T09:04:39Z</time>
      </trkpt>
      <trkpt lat="45.85046" lon="1.47112">
        <ele>302.1</ele>
        <time>2022-08-01T09:04:41Z</time>
      </trkpt>
      <trkpt lat="45.85043" lon="1.47117">
        <ele>302.4</ele>
        <time>2022-08-01T09:04:43Z</time>
      </trkpt>
      <trkpt lat="45.85041" lon="1.47122">
        <ele>302.7</ele>
        <time>2022-08-01T09:04:45Z</time>
      </trkpt>
      <trkpt lat="45.85038" lon="1.47126">
        <ele>303</ele>
        <time>2022-08-01T09:04:47Z</time>
      </trkpt>
      <trkpt lat="45.85035" lon="1.47131">
        <ele>303.4</ele>
        <time>2022-08-01T09:04:49Z</time>
      </trkpt>
      <trkpt lat="45.85033" lon="1.47136">
        <ele>303.7</ele>
        <time>2022-08-01T09:04:51Z</time>
      </trkpt>
      <trkpt lat="45.8503" lon="1.47141">
        <ele>304</ele>
        <time>2022-08-01T09:04:53Z</time>
      </trkpt>
      <trkpt lat="45.85028" lon="1.47146">
        <ele>304.3</ele>
        <time>2022-08-01T09:04:55Z</time>
      </trkpt>
      <trkpt lat="45.85025" lon="1.4715">
        <ele>304.7</ele>
        <time>2022-08-01T09:04:57Z</time>
      </trkpt>
      <trkpt lat="45.85022" lon="1.47154">
        <ele>305</ele>
        <time>2022-08-01T09:04:59Z</time>
      </trkpt>
      <trkpt lat="45.85019" lon="1.47159">
        <ele>305.3</ele>
        <time>2022-08-01T09:05:01Z</time>
      </trkpt>
      <trkpt lat="45.85017" lon="1.47163">
        <ele>305.7</ele>
        <time>2022-08-01T09:05:03Z</time>
      </trkpt>
      <trkpt lat="45.85014" lon="1.47167">
        <ele>306</ele>
        <time>2022-08-01T09:05:05Z</time>
      </trkpt>
      <trkpt lat="45.85012" lon="1.47172">
        <ele>306.4</ele>
        <time>2022-08-01T09:05:07Z</time>
      </trkpt>
      <trkpt lat="45.85009" lon="1.47177">
        <ele>306.7</ele>
        <time>2022-08-01T09:05:09Z</time>
      </trkpt>
      <trkpt lat="45.85007" lon="1.47181">
        <ele>307.1</ele>
        <time>2022-08-01T09:05:11Z</time>
      </trkpt>
      <trkpt lat="45.85004" lon="1.47186">
        <ele>307.4</ele>
        <time>2022-08-01T09:05:13Z</time>
      </trkpt>
      <trkpt lat="45.85001" lon="1.47191">
        <ele>307.8</ele>
        <time>2022-08-01T09:05:15Z</time>
      </trkpt>
      <trkpt lat="45.84999" lon="1.47196">
        <ele>308.1</ele>
        <time>2022-08-01T09:05:17Z</time>
      </trkpt>
      <trkpt lat="45.84997" lon="1.472">
        <ele>308.3</ele>
        <time>2022-08-01T09:05:19Z</time>
      </trkpt>
      <trkpt lat="45.84994" lon="1.47204">
        <ele>308.6</ele>
        <time>2022-08-01T09:05:21Z</time>
      </trkpt>
      <trkpt lat="45.84992" lon="1.47209">
        <ele>308.8</ele>
        <time>2022-08-01T09:05:23Z</time>
      </trkpt>
      <trkpt lat="45.8499" lon="1.47214">
        <ele>309</ele>
        <time>2022-08-01T09:05:25Z</time>
      </trkpt>
      <trkpt lat="45.84988" lon="1.47219">
        <ele>309.2</ele>
        <time>2022-08-01T09:05:27Z</time>
      </trkpt>
      <trkpt lat="45.84985" lon="1.47223">
        <ele>309.4</ele>
        <time>2022-08-01T09:05:29Z</time>
      </trkpt>
      <trkpt lat="45.84984" lon="1.47228">
        <ele>309.6</ele>
        <time>2022-08-01T09:05:31Z</time>
      </trkpt>
      <trkpt lat="45.84982" lon="1.47233">
        <ele>309.8</ele>
        <time>2022-08-01T09:05:33Z</time>
      </trkpt>
      <trkpt lat="45.84979" lon="1.47238">
        <ele>310</ele>
        <time>2022-08-01T09:05:35Z</time>
      </trkpt>
      <trkpt lat="45.84977" lon="1.47243">
        <ele>310.1</ele>
        <time>2022-08-01T09:05:37Z</time>
      </trkpt>
      <trkpt lat="45.84975" lon="1.47248">
        <ele>310.3</ele>
        <time>2022-08-01T09:05:39Z</time>
      </trkpt>
      <trkpt lat="45.84972" lon="1.47253">
        <ele>310.4</ele>
        <time>2022-08-01T09:05:41Z</time>
      </trkpt>
      <trkpt lat="45.8497" lon="1.47258">
        <ele>310.5</ele>
        <time>2022-08-01T09:05:43Z</time>
      </trkpt>
      <trkpt lat="45.84969" lon="1.47264">
        <ele>310.6</ele>
        <time>2022-08-01T09:05:45Z</time>
      </trkpt>
      <trkpt lat="45.84966" lon="1.47269">
        <ele>310.7</ele>
        <time>2022-08-01T09:05:47Z</time>
      </trkpt>
      <trkpt lat="45.84964" lon="1.47274">
        <ele>310.8</ele>
        <time>2022-08-01T09:05:49Z</time>
      </trkpt>
      <trkpt lat="45.84962" lon="1.47279">
        <ele>311</ele>
        <time>2022-08-01T09:05:51Z</time>
      </trkpt>
      <trkpt lat="45.8496" lon="1.47284">
        <ele>311.1</ele>
        <time>2022-08-01T09:05:53Z</time>
      </trkpt>
      <trkpt lat="45.84958" lon="1.47289">
        <ele>311.2</ele>
        <time>2022-08-01T09:05:55Z</time>
      </trkpt>
      <trkpt lat="45.84956" lon="1.47294">
        <ele>311.3</ele>
        <time>2022-08-01T09:05:57Z</time>
      </trkpt>
      <trkpt lat="45.84954" lon="1.473">
        <ele>311.5</ele>
        <time>2022-08-01T09:05:59Z</time>
      </trkpt>
      <trkpt lat="45.84952" lon="1.47305">
        <ele>311.6</ele>
        <time>2022-08-01T09:06:01Z</time>
      </trkpt>
      <trkpt lat="45.8495" lon="1.4731">
        <ele>311.8</ele>
        <time>2022-08-01T09:06:03Z</time>
      </trkpt>
      <trkpt lat="45.84949" lon="1.47315">
        <ele>311.9</ele>
        <time>2022-08-01T09:06:05Z</time>
      </trkpt>
      <trkpt lat="45.84947" lon="1.4732">
        <ele>312</ele>
        <time>2022-08-01T09:06:07Z</time>
      </trkpt>
      <trkpt lat="45.84945" lon="1.47325">
        <ele>312.2</ele>
        <time>2022-08-01T09:06:09Z</time>
      </trkpt>
      <trkpt lat="45.84943" lon="1.4733">
        <ele>312.3</ele>
        <time>2022-08-01T09:06:11Z</time>
      </trkpt>
      <trkpt lat="45.84941" lon="1.47335">
        <ele>312.5</ele>
        <time>2022-08-01T09:06:13Z</time>
      </trkpt>
      <trkpt lat="45.84939" lon="1.4734">
        <ele>312.7</ele>
        <time>2022-08-01T09:06:15Z</time>
      </trkpt>
      <trkpt lat="45.84937" lon="1.47346">
        <ele>313</ele>
        <time>2022-08-01T09:06:17Z</time>
      </trkpt>
      <trkpt lat="45.84935" lon="1.47351">
        <ele>313.2</ele>
        <time>2022-08-01T09:06:19Z</time>
      </trkpt>
      <trkpt lat="45.84933" lon="1.47356">
        <ele>313.4</ele>
        <time>2022-08-01T09:06:21Z</time>
      </trkpt>
      <trkpt lat="45.84931" lon="1.47362">
        <ele>313.7</ele>
        <time>2022-08-01T09:06:23Z</time>
      </trkpt>
      <trkpt lat="45.8493" lon="1.47367">
        <ele>313.9</ele>
        <time>2022-08-01T09:06:25Z</time>
      </trkpt>
      <trkpt lat="45.84927" lon="1.47372">
        <ele>314.1</ele>
        <time>2022-08-01T09:06:27Z</time>
      </trkpt>
      <trkpt lat="45.84926" lon="1.47378">
        <ele>314.4</ele>
        <time>2022-08-01T09:06:29Z</time>
      </trkpt>
      <trkpt lat="45.84923" lon="1.47383">
        <ele>314.6</ele>
        <time>2022-08-01T09:06:31Z</time>
      </trkpt>
      <trkpt lat="45.84922" lon="1.47389">
        <ele>314.9</ele>
        <time>2022-08-01T09:06:33Z</time>
      </trkpt>
      <trkpt lat="45.8492" lon="1.47394">
        <ele>315.1</ele>
        <time>2022-08-01T09:06:35Z</time>
      </trkpt>
      <trkpt lat="45.84918" lon="1.47399">
        <ele>315.3</ele>
        <time>2022-08-01T09:06:37Z</time>
      </trkpt>
      <trkpt lat="45.84916" lon="1.47404">
        <ele>315.6</ele>
        <time>2022-08-01T09:06:39Z</time>
      </trkpt>
      <trkpt lat="45.84914" lon="1.47409">
        <ele>315.8</ele>
        <time>2022-08-01T09:06:41Z</time>
      </trkpt>
      <trkpt lat="45.84912" lon="1.47415">
        <ele>316.1</ele>
        <time>2022-08-01T09:06:43Z</time>
      </trkpt>
      <trkpt lat="45.8491" lon="1.4742">
        <ele>316.5</ele>
        <time>2022-08-01T09:06:45Z</time>
      </trkpt>
      <trkpt lat="45.84909" lon="1.47425">
        <ele>317</ele>
        <time>2022-08-01T09:06:47Z</time>
      </trkpt>
      <trkpt lat="45.84907" lon="1.4743">
        <ele>317.5</ele>
        <time>2022-08-01T09:06:49Z</time>
      </trkpt>
      <trkpt lat="45.84905" lon="1.47435">
        <ele>317.9</ele>
        <time>2022-08-01T09:06:51Z</time>
      </trkpt>
      <trkpt lat="45.84903" lon="1.47439">
        <ele>318.4</ele>
        <time>2022-08-01T09:06:53Z</time>
      </trkpt>
      <trkpt lat="45.84901" lon="1.47445">
        <ele>318.9</ele>
        <time>2022-08-01T09:06:55Z</time>
      </trkpt>
      <trkpt lat="45.84899" lon="1.47449">
        <ele>319.4</ele>
        <time>2022-08-01T09:06:57Z</time>
      </trkpt>
      <trkpt lat="45.84897" lon="1.47454">
        <ele>319.9</ele>
        <time>2022-08-01T09:06:59Z</time>
      </trkpt>
      <trkpt lat="45.84894" lon="1.47459">
        <ele>320.4</ele>
        <time>2022-08-01T09:07:01Z</time>
      </trkpt>
      <trkpt lat="45.84892" lon="1.47463">
        <ele>320.8</ele>
        <time>2022-08-01T09:07:03Z</time>
      </trkpt>
      <trkpt lat="45.84889" lon="1.47468">
        <ele>321.3</ele>
        <time>2022-08-01T09:07:05Z</time>
      </trkpt>
      <trkpt lat="45.84886" lon="1.47472">
        <ele>321.7</ele>
        <time>2022-08-01T09:07:07Z</time>
      </trkpt>
      <trkpt lat="45.84884" lon="1.47476">
        <ele>322.2</ele>
        <time>2022-08-01T09:07:09Z</time>
      </trkpt>
      <trkpt lat="45.8488" lon="1.4748">
        <ele>322.6</ele>
        <time>2022-08-01T09:07:11Z</time>
      </trkpt>
      <trkpt lat="45.84877" lon="1.47483">
        <ele>323</ele>
        <time>2022-08-01T09:07:13Z</time>
      </trkpt>
      <trkpt lat="45.84874" lon="1.47487">
        <ele>323.5</ele>
        <time>2022-08-01T09:07:15Z</time>
      </trkpt>
      <trkpt lat="45.8487" lon="1.47491">
        <ele>323.9</ele>
        <time>2022-08-01T09:07:17Z</time>
      </trkpt>
      <trkpt lat="45.84867" lon="1.47494">
        <ele>324.3</ele>
        <time>2022-08-01T09:07:19Z</time>
      </trkpt>
      <trkpt lat="45.84863" lon="1.47497">
        <ele>324.6</ele>
        <time>2022-08-01T09:07:21Z</time>
      </trkpt>
      <trkpt lat="45.8486" lon="1.47501">
        <ele>325.1</ele>
        <time>2022-08-01T09:07:23Z</time>
      </trkpt>
      <trkpt lat="45.84856" lon="1.47503">
        <ele>325.5</ele>
        <time>2022-08-01T09:07:25Z</time>
      </trkpt>
      <trkpt lat="45.84853" lon="1.47505">
        <ele>325.8</ele>
        <time>2022-08-01T09:07:27Z</time>
      </trkpt>
      <trkpt lat="45.8485" lon="1.47507">
        <ele>326.1</ele>
        <time>2022-08-01T09:07:29Z</time>
      </trkpt>
      <trkpt lat="45.84846" lon="1.47509">
        <ele>326.4</ele>
        <time>2022-08-01T09:07:31Z</time>
      </trkpt>
      <trkpt lat="45.84843" lon="1.4751">
        <ele>326.7</ele>
        <time>2022-08-01T09:07:33Z</time>
      </trkpt>
      <trkpt lat="45.84839" lon="1.47512">
        <ele>327</ele>
        <time>2022-08-01T09:07:35Z</time>
      </trkpt>
      <trkpt lat="45.84836" lon="1.47513">
        <ele>327.2</ele>
        <time>2022-08-01T09:07:37Z</time>
      </trkpt>
      <trkpt lat="45.84832" lon="1.47515">
        <ele>327.4</ele>
        <time>2022-08-01T09:07:39Z</time>
      </trkpt>
      <trkpt lat="45.84829" lon="1.47516">
        <ele>327.6</ele>
        <time>2022-08-01T09:07:41Z</time>
      </trkpt>
      <trkpt lat="45.84825" lon="1.47517">
        <ele>327.8</ele>
        <time>2022-08-01T09:07:43Z</time>
      </trkpt>
      <trkpt lat="45.84822" lon="1.47519">
        <ele>328</ele>
        <time>2022-08-01T09:07:45Z</time>
      </trkpt>
      <trkpt lat="45.84818" lon="1.4752">
        <ele>328.2</ele>
        <time>2022-08-01T09:07:47Z</time>
      </trkpt>
      <trkpt lat="45.84815" lon="1.47521">
        <ele>328.3</ele>
        <time>2022-08-01T09:07:49Z</time>
      </trkpt>
      <trkpt lat="45.84811" lon="1.47522">
        <ele>328.5</ele>
        <time>2022-08-01T09:07:51Z</time>
      </trkpt>
      <trkpt lat="45.84808" lon="1.47524">
        <ele>328.7</ele>
        <time>2022-08-01T09:07:53Z</time>
      </trkpt>
      <trkpt lat="45.84804" lon="1.47525">
        <ele>328.9</ele>
        <time>2022-08-01T09:07:55Z</time>
      </trkpt>
      <trkpt lat="45.84801" lon="1.47526">
        <ele>329</ele>
        <time>2022-08-01T09:07:57Z</time>
      </trkpt>
      <trkpt lat="45.84797" lon="1.47527">
        <ele>329.2</ele>
        <time>2022-08-01T09:07:59Z</time>
      </trkpt>
      <trkpt lat="45.84794" lon="1.47529">
        <ele>329.4</ele>
        <time>2022-08-01T09:08:01Z</time>
      </trkpt>
      <trkpt lat="45.8479" lon="1.47529">
        <ele>329.5</ele>
        <time>2022-08-01T09:08:03Z</time>
      </trkpt>
      <trkpt lat="45.84787" lon="1.4753">
        <ele>329.6</ele>
        <time>2022-08-01T09:08:05Z</time>
      </trkpt>
      <trkpt lat="45.84784" lon="1.47531">
        <ele>329.8</ele>
        <time>2022-08-01T09:08:07Z</time>
      </trkpt>
      <trkpt lat="45.8478" lon="1.47533">
        <ele>329.9</ele>
        <time>2022-08-01T09:08:09Z</time>
      </trkpt>
      <trkpt lat="45.84777" lon="1.47534">
        <ele>330.1</ele>
        <time>2022-08-01T09:08:11Z</time>
      </trkpt>
      <trkpt lat="45.84773" lon="1.47536">
        <ele>330.2</ele>
        <time>2022-08-01T09:08:13Z</time>
      </trkpt>
      <trkpt lat="45.84769" lon="1.47536">
        <ele>330.3</ele>
        <time>2022-08-01T09:08:15Z</time>
      </trkpt>
      <trkpt lat="45.84765" lon="1.47537">
        <ele>330.5</ele>
        <time>2022-08-01T09:08:17Z</time>
      </trkpt>
      <trkpt lat="45.84762" lon="1.4754">
        <ele>330.7</ele>
        <time>2022-08-01T09:08:19Z</time>
      </trkpt>
      <trkpt lat="45.84758" lon="1.47541">
        <ele>330.9</ele>
        <time>2022-08-01T09:08:21Z</time>
      </trkpt>
      <trkpt lat="45.84754" lon="1.47543">
        <ele>331.1</ele>
        <time>2022-08-01T09:08:23Z</time>
      </trkpt>
      <trkpt lat="45.84751" lon="1.47545">
        <ele>331.2</ele>
        <time>2022-08-01T09:08:25Z</time>
      </trkpt>
      <trkpt lat="45.84747" lon="1.47547">
        <ele>331.5</ele>
        <time>2022-08-01T09:08:27Z</time>
      </trkpt>
      <trkpt lat="45.84744" lon="1.4755">
        <ele>331.8</ele>
        <time>2022-08-01T09:08:29Z</time>
      </trkpt>
      <trkpt lat="45.8474" lon="1.47552">
        <ele>332.1</ele>
        <time>2022-08-01T09:08:31Z</time>
      </trkpt>
      <trkpt lat="45.84737" lon="1.47555">
        <ele>332.5</ele>
        <time>2022-08-01T09:08:33Z</time>
      </trkpt>
      <trkpt lat="45.84733" lon="1.47559">
        <ele>332.9</ele>
        <time>2022-08-01T09:08:35Z</time>
      </trkpt>
      <trkpt lat="45.8473" lon="1.47561">
        <ele>333.2</ele>
        <time>2022-08-01T09:08:37Z</time>
      </trkpt>
      <trkpt lat="45.84727" lon="1.47564">
        <ele>333.5</ele>
        <time>2022-08-01T09:08:39Z</time>
      </trkpt>
      <trkpt lat="45.84725" lon="1.47568">
        <ele>333.8</ele>
        <time>2022-08-01T09:08:41Z</time>
      </trkpt>
      <trkpt lat="45.84722" lon="1.47572">
        <ele>334.2</ele>
        <time>2022-08-01T09:08:43Z</time>
      </trkpt>
      <trkpt lat="45.8472" lon="1.47576">
        <ele>334.6</ele>
        <time>2022-08-01T09:08:45Z</time>
      </trkpt>
      <trkpt lat="45.84718" lon="1.47581">
        <ele>335</ele>
        <time>2022-08-01T09:08:47Z</time>
      </trkpt>
      <trkpt lat="45.84717" lon="1.47585">
        <ele>335.2</ele>
        <time>2022-08-01T09:08:49Z</time>
      </trkpt>
      <trkpt lat="45.84716" lon="1.4759">
        <ele>335.3</ele>
        <time>2022-08-01T09:08:51Z</time>
      </trkpt>
      <trkpt lat="45.84715" lon="1.47595">
        <ele>335.4</ele>
        <time>2022-08-01T09:08:53Z</time>
      </trkpt>
      <trkpt lat="45.84714" lon="1.47601">
        <ele>335.5</ele>
        <time>2022-08-01T09:08:55Z</time>
      </trkpt>
      <trkpt lat="45.84713" lon="1.47607">
        <ele>335.5</ele>
        <time>2022-08-01T09:08:57Z</time>
      </trkpt>
      <trkpt lat="45.84711" lon="1.47613">
        <ele>335.6</ele>
        <time>2022-08-01T09:08:59Z</time>
      </trkpt>
      <trkpt lat="45.8471" lon="1.4762">
        <ele>335.7</ele>
        <time>2022-08-01T09:09:01Z</time>
      </trkpt>
      <trkpt lat="45.84709" lon="1.47626">
        <ele>335.7</ele>
        <time>2022-08-01T09:09:03Z</time>
      </trkpt>
      <trkpt lat="45.84708" lon="1.47633">
        <ele>335.8</ele>
        <time>2022-08-01T09:09:05Z</time>
      </trkpt>
      <trkpt lat="45.84707" lon="1.4764">
        <ele>335.9</ele>
        <time>2022-08-01T09:09:07Z</time>
      </trkpt>
      <trkpt lat="45.84705" lon="1.47647">
        <ele>335.9</ele>
        <time>2022-08-01T09:09:09Z</time>
      </trkpt>
      <trkpt lat="45.84704" lon="1.47655">
        <ele>335.9</ele>
        <time>2022-08-01T09:09:11Z</time>
      </trkpt>
      <trkpt lat="45.84703" lon="1.47662">
        <ele>336</ele>
        <time>2022-08-01T09:09:13Z</time>
      </trkpt>
      <trkpt lat="45.84701" lon="1.47669">
        <ele>336</ele>
        <time>2022-08-01T09:09:15Z</time>
      </trkpt>
      <trkpt lat="45.847" lon="1.47676">
        <ele>336.1</ele>
        <time>2022-08-01T09:09:17Z</time>
      </trkpt>
      <trkpt lat="45.84699" lon="1.47683">
        <ele>336.2</ele>
        <time>2022-08-01T09:09:19Z</time>
      </trkpt>
      <trkpt lat="45.84697" lon="1.47691">
        <ele>336.4</ele>
        <time>2022-08-01T09:09:21Z</time>
      </trkpt>
      <trkpt lat="45.84696" lon="1.47698">
        <ele>336.5</ele>
        <time>2022-08-01T09:09:23Z</time>
      </trkpt>
      <trkpt lat="45.84695" lon="1.47705">
        <ele>336.6</ele>
        <time>2022-08-01T09:09:25Z</time>
      </trkpt>
      <trkpt lat="45.84693" lon="1.47712">
        <ele>336.7</ele>
        <time>2022-08-01T09:09:27Z</time>
      </trkpt>
      <trkpt lat="45.84692" lon="1.47718">
        <ele>336.9</ele>
        <time>2022-08-01T09:09:29Z</time>
      </trkpt>
      <trkpt lat="45.8469" lon="1.47725">
        <ele>337</ele>
        <time>2022-08-01T09:09:31Z</time>
      </trkpt>
      <trkpt lat="45.84688" lon="1.47731">
        <ele>337.2</ele>
        <time>2022-08-01T09:09:33Z</time>
      </trkpt>
      <trkpt lat="45.84686" lon="1.47738">
        <ele>337.3</ele>
        <time>2022-08-01T09:09:35Z</time>
      </trkpt>
      <trkpt lat="45.84684" lon="1.47745">
        <ele>337.5</ele>
        <time>2022-08-01T09:09:37Z</time>
      </trkpt>
      <trkpt lat="45.84682" lon="1.47751">
        <ele>337.7</ele>
        <time>2022-08-01T09:09:39Z</time>
      </trkpt>
      <trkpt lat="45.84679" lon="1.47758">
        <ele>338.1</ele>
        <time>2022-08-01T09:09:41Z</time>
      </trkpt>
      <trkpt lat="45.84676" lon="1.47764">
        <ele>338.4</ele>
        <time>2022-08-01T09:09:43Z</time>
      </trkpt>
      <trkpt lat="45.84674" lon="1.4777">
        <ele>338.8</ele>
        <time>2022-08-01T09:09:45Z</time>
      </trkpt>
      <trkpt lat="45.84671" lon="1.47775">
        <ele>339.1</ele>
        <time>2022-08-01T09:09:47Z</time>
      </trkpt>
      <trkpt lat="45.84668" lon="1.4778">
        <ele>339.4</ele>
        <time>2022-08-01T09:09:49Z</time>
      </trkpt>
      <trkpt lat="45.84665" lon="1.47785">
        <ele>339.7</ele>
        <time>2022-08-01T09:09:51Z</time>
      </trkpt>
      <trkpt lat="45.84661" lon="1.4779">
        <ele>340</ele>
        <time>2022-08-01T09:09:53Z</time>
      </trkpt>
      <trkpt lat="45.84658" lon="1.47795">
        <ele>340.3</ele>
        <time>2022-08-01T09:09:55Z</time>
      </trkpt>
      <trkpt lat="45.84655" lon="1.47799">
        <ele>340.5</ele>
        <time>2022-08-01T09:09:57Z</time>
      </trkpt>
      <trkpt lat="45.84652" lon="1.47804">
        <ele>340.8</ele>
        <time>2022-08-01T09:09:59Z</time>
      </trkpt>
      <trkpt lat="45.84648" lon="1.47808">
        <ele>341.1</ele>
        <time>2022-08-01T09:10:01Z</time>
      </trkpt>
      <trkpt lat="45.84645" lon="1.47812">
        <ele>341.4</ele>
        <time>2022-08-01T09:10:03Z</time>
      </trkpt>
      <trkpt lat="45.84642" lon="1.47817">
        <ele>341.7</ele>
        <time>2022-08-01T09:10:05Z</time>
      </trkpt>
      <trkpt lat="45.84639" lon="1.47822">
        <ele>342</ele>
        <time>2022-08-01T09:10:07Z</time>
      </trkpt>
      <trkpt lat="45.84637" lon="1.47826">
        <ele>342.3</ele>
        <time>2022-08-01T09:10:09Z</time>
      </trkpt>
      <trkpt lat="45.84634" lon="1.4783">
        <ele>342.6</ele>
        <time>2022-08-01T09:10:11Z</time>
      </trkpt>
      <trkpt lat="45.84631" lon="1.47834">
        <ele>342.9</ele>
        <time>2022-08-01T09:10:13Z</time>
      </trkpt>
      <trkpt lat="45.84628" lon="1.47838">
        <ele>343.2</ele>
        <time>2022-08-01T09:10:15Z</time>
      </trkpt>
      <trkpt lat="45.84625" lon="1.47842">
        <ele>343.5</ele>
        <time>2022-08-01T09:10:17Z</time>
      </trkpt>
      <trkpt lat="45.84622" lon="1.47846">
        <ele>343.8</ele>
        <time>2022-08-01T09:10:19Z</time>
      </trkpt>
      <trkpt lat="45.8462" lon="1.4785">
        <ele>344.1</ele>
        <time>2022-08-01T09:10:21Z</time>
      </trkpt>
      <trkpt lat="45.84618" lon="1.47854">
        <ele>344.4</ele>
        <time>2022-08-01T09:10:23Z</time>
      </trkpt>
      <trkpt lat="45.84615" lon="1.47857">
        <ele>344.7</ele>
        <time>2022-08-01T09:10:25Z</time>
      </trkpt>
      <trkpt lat="45.84612" lon="1.47861">
        <ele>345</ele>
        <time>2022-08-01T09:10:27Z</time>
      </trkpt>
      <trkpt lat="45.8461" lon="1.47865">
        <ele>345.3</ele>
        <time>2022-08-01T09:10:29Z</time>
      </trkpt>
      <trkpt lat="45.84607" lon="1.47869">
        <ele>345.6</ele>
        <time>2022-08-01T09:10:31Z</time>
      </trkpt>
      <trkpt lat="45.84605" lon="1.47873">
        <ele>345.8</ele>
        <time>2022-08-01T09:10:33Z</time>
      </trkpt>
      <trkpt lat="45.84603" lon="1.47876">
        <ele>346.1</ele>
        <time>2022-08-01T09:10:35Z</time>
      </trkpt>
      <trkpt lat="45.846" lon="1.4788">
        <ele>346.4</ele>
        <time>2022-08-01T09:10:37Z</time>
      </trkpt>
      <trkpt lat="45.84597" lon="1.47884">
        <ele>346.7</ele>
        <time>2022-08-01T09:10:39Z</time>
      </trkpt>
      <trkpt lat="45.84593" lon="1.47888">
        <ele>347</ele>
        <time>2022-08-01T09:10:41Z</time>
      </trkpt>
      <trkpt lat="45.8459" lon="1.47892">
        <ele>347.4</ele>
        <time>2022-08-01T09:10:43Z</time>
      </trkpt>
      <trkpt lat="45.84588" lon="1.47896">
        <ele>347.7</ele>
        <time>2022-08-01T09:10:45Z</time>
      </trkpt>
      <trkpt lat="45.84585" lon="1.479">
        <ele>348</ele>
        <time>2022-08-01T09:10:47Z</time>
      </trkpt>
      <trkpt lat="45.84582" lon="1.47904">
        <ele>348.3</ele>
        <time>2022-08-01T09:10:49Z</time>
      </trkpt>
      <trkpt lat="45.84579" lon="1.47908">
        <ele>348.6</ele>
        <time>2022-08-01T09:10:51Z</time>
      </trkpt>
      <trkpt lat="45.84576" lon="1.47912">
        <ele>348.9</ele>
        <time>2022-08-01T09:10:53Z</time>
      </trkpt>
      <trkpt lat="45.84573" lon="1.47916">
        <ele>349.2</ele>
        <time>2022-08-01T09:10:55Z</time>
      </trkpt>
      <trkpt lat="45.84572" lon="1.4792">
        <ele>349.2</ele>
        <time>2022-08-01T09:10:57Z</time>
      </trkpt>
      <trkpt lat="45.84569" lon="1.47923">
        <ele>349.2</ele>
        <time>2022-08-01T09:10:59Z</time>
      </trkpt>
      <trkpt lat="45.84567" lon="1.47925">
        <ele>349.2</ele>
        <time>2022-08-01T09:11:01Z</time>
      </trkpt>
      <trkpt lat="45.84565" lon="1.47929">
        <ele>349.2</ele>
        <time>2022-08-01T09:11:03Z</time>
      </trkpt>
      <trkpt lat="45.84563" lon="1.47932">
        <ele>349.2</ele>
        <time>2022-08-01T09:11:05Z</time>
      </trkpt>
      <trkpt lat="45.84561" lon="1.47936">
        <ele>349.2</ele>
        <time>2022-08-01T09:11:07Z</time>
      </trkpt>
      <trkpt lat="45.84558" lon="1.47939">
        <ele>349.2</ele>
        <time>2022-08-01T09:11:09Z</time>
      </trkpt>
      <trkpt lat="45.84555" lon="1.47943">
        <ele>349.3</ele>
        <time>2022-08-01T09:11:11Z</time>
      </trkpt>
      <trkpt lat="45.84552" lon="1.47948">
        <ele>349.3</ele>
        <time>2022-08-01T09:11:13Z</time>
      </trkpt>
      <trkpt lat="45.84548" lon="1.47951">
        <ele>349.4</ele>
        <time>2022-08-01T09:11:15Z</time>
      </trkpt>
      <trkpt lat="45.84546" lon="1.47955">
        <ele>349.4</ele>
        <time>2022-08-01T09:11:17Z</time>
      </trkpt>
      <trkpt lat="45.84542" lon="1.47959">
        <ele>349.5</ele>
        <time>2022-08-01T09:11:19Z</time>
      </trkpt>
      <trkpt lat="45.8454" lon="1.47964">
        <ele>349.5</ele>
        <time>2022-08-01T09:11:21Z</time>
      </trkpt>
      <trkpt lat="45.84537" lon="1.47968">
        <ele>349.6</ele>
        <time>2022-08-01T09:11:23Z</time>
      </trkpt>
      <trkpt lat="45.84533" lon="1.47973">
        <ele>349.7</ele>
        <time>2022-08-01T09:11:25Z</time>
      </trkpt>
      <trkpt lat="45.84529" lon="1.4798">
        <ele>349.8</ele>
        <time>2022-08-01T09:11:27Z</time>
      </trkpt>
      <trkpt lat="45.84523" lon="1.47988">
        <ele>350</ele>
        <time>2022-08-01T09:11:29Z</time>
      </trkpt>
      <trkpt lat="45.84516" lon="1.47996">
        <ele>350.2</ele>
        <time>2022-08-01T09:11:31Z</time>
      </trkpt>
      <trkpt lat="45.84509" lon="1.48005">
        <ele>350.3</ele>
        <time>2022-08-01T09:11:33Z</time>
      </trkpt>
      <trkpt lat="45.84501" lon="1.48015">
        <ele>350.1</ele>
        <time>2022-08-01T09:11:35Z</time>
      </trkpt>
      <trkpt lat="45.84492" lon="1.48025">
        <ele>349.7</ele>
        <time>2022-08-01T09:11:37Z</time>
      </trkpt>
      <trkpt lat="45.84484" lon="1.48035">
        <ele>349.3</ele>
        <time>2022-08-01T09:11:39Z</time>
      </trkpt>
      <trkpt lat="45.84475" lon="1.48045">
        <ele>348.9</ele>
        <time>2022-08-01T09:11:41Z</time>
      </trkpt>
      <trkpt lat="45.84467" lon="1.48055">
        <ele>348.5</ele>
        <time>2022-08-01T09:11:43Z</time>
      </trkpt>
      <trkpt lat="45.84458" lon="1.48065">
        <ele>348.1</ele>
        <time>2022-08-01T09:11:45Z</time>
      </trkpt>
      <trkpt lat="45.8445" lon="1.48075">
        <ele>347.7</ele>
        <time>2022-08-01T09:11:47Z</time>
      </trkpt>
      <trkpt lat="45.84442" lon="1.48083">
        <ele>347.4</ele>
        <time>2022-08-01T09:11:49Z</time>
      </trkpt>
      <trkpt lat="45.84434" lon="1.48093">
        <ele>347</ele>
        <time>2022-08-01T09:11:51Z</time>
      </trkpt>
      <trkpt lat="45.84427" lon="1.48102">
        <ele>346.7</ele>
        <time>2022-08-01T09:11:53Z</time>
      </trkpt>
      <trkpt lat="45.8442" lon="1.48112">
        <ele>346.2</ele>
        <time>2022-08-01T09:11:55Z</time>
      </trkpt>
      <trkpt lat="45.84414" lon="1.4812">
        <ele>345.9</ele>
        <time>2022-08-01T09:11:57Z</time>
      </trkpt>
      <trkpt lat="45.84409" lon="1.48123">
        <ele>345.8</ele>
        <time>2022-08-01T09:11:59Z</time>
      </trkpt>
      <trkpt lat="45.84406" lon="1.48128">
        <ele>345.6</ele>
        <time>2022-08-01T09:12:01Z</time>
      </trkpt>
      <trkpt lat="45.84402" lon="1.48135">
        <ele>345.4</ele>
        <time>2022-08-01T09:12:03Z</time>
      </trkpt>
      <trkpt lat="45.84401" lon="1.48134">
        <ele>345.4</ele>
        <time>2022-08-01T09:12:05Z</time>
      </trkpt>
      <trkpt lat="45.84401" lon="1.48134">
        <ele>345.4</ele>
        <time>2022-08-01T09:12:07Z</time>
      </trkpt>
      <trkpt lat="45.84401" lon="1.48133">
        <ele>345.4</ele>
        <time>2022-08-01T09:12:09Z</time>
      </trkpt>
      <trkpt lat="45.84401" lon="1.48133">
        <ele>345.4</ele>
        <time>2022-08-01T09:12:11Z</time>
      </trkpt>
      <trkpt lat="45.84401" lon="1.48133">
        <ele>345.4</ele>
        <time>2022-08-01T09:12:13Z</time>
      </trkpt>
      <trkpt lat="45.8439" lon="1.48156">
        <ele>344.3</ele>
        <time>2022-08-01T09:13:49Z</time>
      </trkpt>
      <trkpt lat="45.84385" lon="1.48166">
        <ele>343.8</ele>
        <time>2022-08-01T09:13:51Z</time>
      </trkpt>
      <trkpt lat="45.84378" lon="1.48176">
        <ele>343.4</ele>
        <time>2022-08-01T09:13:53Z</time>
      </trkpt>
      <trkpt lat="45.84371" lon="1.48184">
        <ele>343.2</ele>
        <time>2022-08-01T09:13:55Z</time>
      </trkpt>
      <trkpt lat="45.84364" lon="1.48195">
        <ele>342.8</ele>
        <time>2022-08-01T09:13:57Z</time>
      </trkpt>
      <trkpt lat="45.8436" lon="1.48208">
        <ele>342.2</ele>
        <time>2022-08-01T09:13:59Z</time>
      </trkpt>
      <trkpt lat="45.84356" lon="1.48216">
        <ele>341.9</ele>
        <time>2022-08-01T09:14:01Z</time>
      </trkpt>
      <trkpt lat="45.84351" lon="1.48225">
        <ele>341.6</ele>
        <time>2022-08-01T09:14:03Z</time>
      </trkpt>
      <trkpt lat="45.84347" lon="1.48235">
        <ele>341.3</ele>
        <time>2022-08-01T09:14:05Z</time>
      </trkpt>
      <trkpt lat="45.84343" lon="1.48246">
        <ele>340.8</ele>
        <time>2022-08-01T09:14:07Z</time>
      </trkpt>
      <trkpt lat="45.84339" lon="1.48258">
        <ele>340.3</ele>
        <time>2022-08-01T09:14:09Z</time>
      </trkpt>
      <trkpt lat="45.84333" lon="1.48269">
        <ele>339.9</ele>
        <time>2022-08-01T09:14:11Z</time>
      </trkpt>
      <trkpt lat="45.84328" lon="1.48281">
        <ele>339.1</ele>
        <time>2022-08-01T09:14:13Z</time>
      </trkpt>
      <trkpt lat="45.84323" lon="1.48294">
        <ele>338.3</ele>
        <time>2022-08-01T09:14:15Z</time>
      </trkpt>
      <trkpt lat="45.84317" lon="1.48307">
        <ele>337.5</ele>
        <time>2022-08-01T09:14:17Z</time>
      </trkpt>
      <trkpt lat="45.84312" lon="1.48321">
        <ele>336.7</ele>
        <time>2022-08-01T09:14:19Z</time>
      </trkpt>
      <trkpt lat="45.84307" lon="1.48335">
        <ele>336</ele>
        <time>2022-08-01T09:14:21Z</time>
      </trkpt>
      <trkpt lat="45.84301" lon="1.48349">
        <ele>335.6</ele>
        <time>2022-08-01T09:14:23Z</time>
      </trkpt>
      <trkpt lat="45.84296" lon="1.48363">
        <ele>335.2</ele>
        <time>2022-08-01T09:14:25Z</time>
      </trkpt>
      <trkpt lat="45.84291" lon="1.48378">
        <ele>334.9</ele>
        <time>2022-08-01T09:14:27Z</time>
      </trkpt>
      <trkpt lat="45.84285" lon="1.48393">
        <ele>334.7</ele>
        <time>2022-08-01T09:14:29Z</time>
      </trkpt>
      <trkpt lat="45.8428" lon="1.48408">
        <ele>334.5</ele>
        <time>2022-08-01T09:14:31Z</time>
      </trkpt>
      <trkpt lat="45.84276" lon="1.48424">
        <ele>334.4</ele>
        <time>2022-08-01T09:14:33Z</time>
      </trkpt>
      <trkpt lat="45.84271" lon="1.48439">
        <ele>334.7</ele>
        <time>2022-08-01T09:14:35Z</time>
      </trkpt>
      <trkpt lat="45.84267" lon="1.48454">
        <ele>334.9</ele>
        <time>2022-08-01T09:14:37Z</time>
      </trkpt>
      <trkpt lat="45.84263" lon="1.48468">
        <ele>335.2</ele>
        <time>2022-08-01T09:14:39Z</time>
      </trkpt>
      <trkpt lat="45.84259" lon="1.48482">
        <ele>335.5</ele>
        <time>2022-08-01T09:14:41Z</time>
      </trkpt>
      <trkpt lat="45.84256" lon="1.48497">
        <ele>335.7</ele>
        <time>2022-08-01T09:14:43Z</time>
      </trkpt>
      <trkpt lat="45.84253" lon="1.48511">
        <ele>335.8</ele>
        <time>2022-08-01T09:14:45Z</time>
      </trkpt>
      <trkpt lat="45.84251" lon="1.48524">
        <ele>335.7</ele>
        <time>2022-08-01T09:14:47Z</time>
      </trkpt>
      <trkpt lat="45.84249" lon="1.48538">
        <ele>335.5</ele>
        <time>2022-08-01T09:14:49Z</time>
      </trkpt>
      <trkpt lat="45.84246" lon="1.48551">
        <ele>335.3</ele>
        <time>2022-08-01T09:14:51Z</time>
      </trkpt>
      <trkpt lat="45.84244" lon="1.48564">
        <ele>335.2</ele>
        <time>2022-08-01T09:14:53Z</time>
      </trkpt>
      <trkpt lat="45.8424" lon="1.48577">
        <ele>335</ele>
        <time>2022-08-01T09:14:55Z</time>
      </trkpt>
      <trkpt lat="45.84237" lon="1.4859">
        <ele>334.9</ele>
        <time>2022-08-01T09:14:57Z</time>
      </trkpt>
      <trkpt lat="45.84234" lon="1.48603">
        <ele>334.7</ele>
        <time>2022-08-01T09:14:59Z</time>
      </trkpt>
      <trkpt lat="45.84232" lon="1.48616">
        <ele>334.5</ele>
        <time>2022-08-01T09:15:01Z</time>
      </trkpt>
      <trkpt lat="45.84229" lon="1.48629">
        <ele>334.3</ele>
        <time>2022-08-01T09:15:03Z</time>
      </trkpt>
      <trkpt lat="45.84226" lon="1.48643">
        <ele>334.1</ele>
        <time>2022-08-01T09:15:05Z</time>
      </trkpt>
      <trkpt lat="45.84224" lon="1.48657">
        <ele>333.8</ele>
        <time>2022-08-01T09:15:07Z</time>
      </trkpt>
      <trkpt lat="45.84221" lon="1.48671">
        <ele>333.6</ele>
        <time>2022-08-01T09:15:09Z</time>
      </trkpt>
      <trkpt lat="45.84218" lon="1.48684">
        <ele>333.5</ele>
        <time>2022-08-01T09:15:11Z</time>
      </trkpt>
      <trkpt lat="45.84216" lon="1.48698">
        <ele>333.4</ele>
        <time>2022-08-01T09:15:13Z</time>
      </trkpt>
      <trkpt lat="45.84213" lon="1.48712">
        <ele>333.3</ele>
        <time>2022-08-01T09:15:15Z</time>
      </trkpt>
      <trkpt lat="45.84211" lon="1.48725">
        <ele>333.2</ele>
        <time>2022-08-01T09:15:17Z</time>
      </trkpt>
      <trkpt lat="45.84209" lon="1.48737">
        <ele>333.1</ele>
        <time>2022-08-01T09:15:19Z</time>
      </trkpt>
      <trkpt lat="45.84206" lon="1.4875">
        <ele>333</ele>
        <time>2022-08-01T09:15:21Z</time>
      </trkpt>
      <trkpt lat="45.84203" lon="1.48762">
        <ele>332.9</ele>
        <time>2022-08-01T09:15:23Z</time>
      </trkpt>
      <trkpt lat="45.84202" lon="1.48775">
        <ele>333</ele>
        <time>2022-08-01T09:15:25Z</time>
      </trkpt>
      <trkpt lat="45.84199" lon="1.4879">
        <ele>333.1</ele>
        <time>2022-08-01T09:15:27Z</time>
      </trkpt>
      <trkpt lat="45.84197" lon="1.48803">
        <ele>333.1</ele>
        <time>2022-08-01T09:15:29Z</time>
      </trkpt>
      <trkpt lat="45.84195" lon="1.48816">
        <ele>333.2</ele>
        <time>2022-08-01T09:15:31Z</time>
      </trkpt>
      <trkpt lat="45.84191" lon="1.48829">
        <ele>333.3</ele>
        <time>2022-08-01T09:15:33Z</time>
      </trkpt>
      <trkpt lat="45.84186" lon="1.48841">
        <ele>333.3</ele>
        <time>2022-08-01T09:15:35Z</time>
      </trkpt>
      <trkpt lat="45.8418" lon="1.48853">
        <ele>333.5</ele>
        <time>2022-08-01T09:15:37Z</time>
      </trkpt>
      <trkpt lat="45.84174" lon="1.48863">
        <ele>333.7</ele>
        <time>2022-08-01T09:15:39Z</time>
      </trkpt>
      <trkpt lat="45.84167" lon="1.48871">
        <ele>333.9</ele>
        <time>2022-08-01T09:15:41Z</time>
      </trkpt>
      <trkpt lat="45.84158" lon="1.48877">
        <ele>334.3</ele>
        <time>2022-08-01T09:15:43Z</time>
      </trkpt>
      <trkpt lat="45.8415" lon="1.48877">
        <ele>334.6</ele>
        <time>2022-08-01T09:15:45Z</time>
      </trkpt>
      <trkpt lat="45.84142" lon="1.48881">
        <ele>335</ele>
        <time>2022-08-01T09:15:47Z</time>
      </trkpt>
      <trkpt lat="45.84133" lon="1.48883">
        <ele>335.4</ele>
        <time>2022-08-01T09:15:49Z</time>
      </trkpt>
      <trkpt lat="45.84126" lon="1.48884">
        <ele>335.7</ele>
        <time>2022-08-01T09:15:51Z</time>
      </trkpt>
      <trkpt lat="45.84119" lon="1.48886">
        <ele>336.1</ele>
        <time>2022-08-01T09:15:53Z</time>
      </trkpt>
      <trkpt lat="45.84111" lon="1.48887">
        <ele>336.4</ele>
        <time>2022-08-01T09:15:55Z</time>
      </trkpt>
      <trkpt lat="45.84105" lon="1.48889">
        <ele>336.8</ele>
        <time>2022-08-01T09:15:57Z</time>
      </trkpt>
      <trkpt lat="45.84099" lon="1.48891">
        <ele>337.2</ele>
        <time>2022-08-01T09:15:59Z</time>
      </trkpt>
      <trkpt lat="45.84092" lon="1.48891">
        <ele>337.5</ele>
        <time>2022-08-01T09:16:01Z</time>
      </trkpt>
      <trkpt lat="45.84086" lon="1.48893">
        <ele>337.8</ele>
        <time>2022-08-01T09:16:03Z</time>
      </trkpt>
      <trkpt lat="45.84081" lon="1.48894">
        <ele>338.1</ele>
        <time>2022-08-01T09:16:05Z</time>
      </trkpt>
      <trkpt lat="45.84075" lon="1.48896">
        <ele>338.4</ele>
        <time>2022-08-01T09:16:07Z</time>
      </trkpt>
      <trkpt lat="45.8407" lon="1.48897">
        <ele>338.6</ele>
        <time>2022-08-01T09:16:09Z</time>
      </trkpt>
      <trkpt lat="45.84064" lon="1.48898">
        <ele>338.9</ele>
        <time>2022-08-01T09:16:11Z</time>
      </trkpt>
      <trkpt lat="45.84059" lon="1.48898">
        <ele>339</ele>
        <time>2022-08-01T09:16:13Z</time>
      </trkpt>
      <trkpt lat="45.84053" lon="1.48898">
        <ele>339.1</ele>
        <time>2022-08-01T09:16:15Z</time>
      </trkpt>
      <trkpt lat="45.84047" lon="1.489">
        <ele>339.5</ele>
        <time>2022-08-01T09:16:17Z</time>
      </trkpt>
      <trkpt lat="45.84041" lon="1.48901">
        <ele>339.7</ele>
        <time>2022-08-01T09:16:19Z</time>
      </trkpt>
      <trkpt lat="45.84035" lon="1.48903">
        <ele>340.1</ele>
        <time>2022-08-01T09:16:21Z</time>
      </trkpt>
      <trkpt lat="45.8403" lon="1.48904">
        <ele>340.3</ele>
        <time>2022-08-01T09:16:23Z</time>
      </trkpt>
      <trkpt lat="45.84024" lon="1.48904">
        <ele>340.6</ele>
        <time>2022-08-01T09:16:25Z</time>
      </trkpt>
      <trkpt lat="45.84018" lon="1.48905">
        <ele>340.9</ele>
        <time>2022-08-01T09:16:27Z</time>
      </trkpt>
      <trkpt lat="45.84013" lon="1.48907">
        <ele>341.2</ele>
        <time>2022-08-01T09:16:29Z</time>
      </trkpt>
      <trkpt lat="45.84008" lon="1.48907">
        <ele>341.4</ele>
        <time>2022-08-01T09:16:31Z</time>
      </trkpt>
      <trkpt lat="45.84003" lon="1.48909">
        <ele>341.8</ele>
        <time>2022-08-01T09:16:33Z</time>
      </trkpt>
      <trkpt lat="45.83998" lon="1.4891">
        <ele>342.1</ele>
        <time>2022-08-01T09:16:35Z</time>
      </trkpt>
      <trkpt lat="45.83993" lon="1.4891">
        <ele>342.5</ele>
        <time>2022-08-01T09:16:37Z</time>
      </trkpt>
      <trkpt lat="45.83988" lon="1.48909">
        <ele>342.7</ele>
        <time>2022-08-01T09:16:39Z</time>
      </trkpt>
      <trkpt lat="45.83983" lon="1.48909">
        <ele>343</ele>
        <time>2022-08-01T09:16:41Z</time>
      </trkpt>
      <trkpt lat="45.83979" lon="1.48908">
        <ele>343.1</ele>
        <time>2022-08-01T09:16:43Z</time>
      </trkpt>
      <trkpt lat="45.83973" lon="1.48909">
        <ele>343.5</ele>
        <time>2022-08-01T09:16:45Z</time>
      </trkpt>
      <trkpt lat="45.83969" lon="1.48908">
        <ele>343.7</ele>
        <time>2022-08-01T09:16:47Z</time>
      </trkpt>
      <trkpt lat="45.83965" lon="1.48908">
        <ele>343.9</ele>
        <time>2022-08-01T09:16:49Z</time>
      </trkpt>
      <trkpt lat="45.83961" lon="1.48908">
        <ele>344.1</ele>
        <time>2022-08-01T09:16:51Z</time>
      </trkpt>
      <trkpt lat="45.83957" lon="1.48908">
        <ele>344.3</ele>
        <time>2022-08-01T09:16:53Z</time>
      </trkpt>
      <trkpt lat="45.83953" lon="1.48907">
        <ele>344.5</ele>
        <time>2022-08-01T09:16:55Z</time>
      </trkpt>
      <trkpt lat="45.8395" lon="1.48906">
        <ele>344.6</ele>
        <time>2022-08-01T09:16:57Z</time>
      </trkpt>
      <trkpt lat="45.83947" lon="1.48905">
        <ele>344.6</ele>
        <time>2022-08-01T09:16:59Z</time>
      </trkpt>
      <trkpt lat="45.83944" lon="1.48904">
        <ele>344.6</ele>
        <time>2022-08-01T09:17:01Z</time>
      </trkpt>
      <trkpt lat="45.8394" lon="1.48903">
        <ele>344.7</ele>
        <time>2022-08-01T09:17:03Z</time>
      </trkpt>
      <trkpt lat="45.83938" lon="1.48902">
        <ele>344.7</ele>
        <time>2022-08-01T09:17:05Z</time>
      </trkpt>
      <trkpt lat="45.83934" lon="1.48902">
        <ele>344.9</ele>
        <time>2022-08-01T09:17:07Z</time>
      </trkpt>
      <trkpt lat="45.83932" lon="1.48904">
        <ele>345.3</ele>
        <time>2022-08-01T09:17:09Z</time>
      </trkpt>
      <trkpt lat="45.83929" lon="1.48906">
        <ele>345.8</ele>
        <time>2022-08-01T09:17:11Z</time>
      </trkpt>
      <trkpt lat="45.83927" lon="1.48908">
        <ele>346.3</ele>
        <time>2022-08-01T09:17:13Z</time>
      </trkpt>
      <trkpt lat="45.83925" lon="1.48911">
        <ele>346.8</ele>
        <time>2022-08-01T09:17:15Z</time>
      </trkpt>
      <trkpt lat="45.83922" lon="1.48913">
        <ele>347.2</ele>
        <time>2022-08-01T09:17:17Z</time>
      </trkpt>
      <trkpt lat="45.83919" lon="1.48915">
        <ele>347.7</ele>
        <time>2022-08-01T09:17:19Z</time>
      </trkpt>
      <trkpt lat="45.83917" lon="1.48918">
        <ele>348.1</ele>
        <time>2022-08-01T09:17:21Z</time>
      </trkpt>
      <trkpt lat="45.83914" lon="1.4892">
        <ele>348.5</ele>
        <time>2022-08-01T09:17:23Z</time>
      </trkpt>
      <trkpt lat="45.83911" lon="1.48921">
        <ele>348.8</ele>
        <time>2022-08-01T09:17:25Z</time>
      </trkpt>
      <trkpt lat="45.83909" lon="1.48922">
        <ele>349</ele>
        <time>2022-08-01T09:17:27Z</time>
      </trkpt>
      <trkpt lat="45.83907" lon="1.48923">
        <ele>349.3</ele>
        <time>2022-08-01T09:17:29Z</time>
      </trkpt>
      <trkpt lat="45.83905" lon="1.48926">
        <ele>349.7</ele>
        <time>2022-08-01T09:17:31Z</time>
      </trkpt>
      <trkpt lat="45.83903" lon="1.48928">
        <ele>350.1</ele>
        <time>2022-08-01T09:17:33Z</time>
      </trkpt>
      <trkpt lat="45.83901" lon="1.48929">
        <ele>350.2</ele>
        <time>2022-08-01T09:17:35Z</time>
      </trkpt>
      <trkpt lat="45.839" lon="1.48932">
        <ele>350.6</ele>
        <time>2022-08-01T09:17:37Z</time>
      </trkpt>
      <trkpt lat="45.83899" lon="1.48934">
        <ele>350.8</ele>
        <time>2022-08-01T09:17:39Z</time>
      </trkpt>
      <trkpt lat="45.83897" lon="1.48936">
        <ele>351.1</ele>
        <time>2022-08-01T09:17:41Z</time>
      </trkpt>
      <trkpt lat="45.83898" lon="1.48938">
        <ele>351.3</ele>
        <time>2022-08-01T09:17:43Z</time>
      </trkpt>
      <trkpt lat="45.83898" lon="1.48938">
        <ele>351.3</ele>
        <time>2022-08-01T09:17:45Z</time>
      </trkpt>
      <trkpt lat="45.83898" lon="1.48937">
        <ele>351.1</ele>
        <time>2022-08-01T09:17:47Z</time>
      </trkpt>
      <trkpt lat="45.83899" lon="1.48935">
        <ele>350.9</ele>
        <time>2022-08-01T09:17:49Z</time>
      </trkpt>
      <trkpt lat="45.83899" lon="1.48934">
        <ele>350.9</ele>
        <time>2022-08-01T09:17:51Z</time>
      </trkpt>
      <trkpt lat="45.83886" lon="1.48937">
        <ele>351.9</ele>
        <time>2022-08-01T09:18:09Z</time>
      </trkpt>
      <trkpt lat="45.83883" lon="1.48938">
        <ele>352.2</ele>
        <time>2022-08-01T09:18:11Z</time>
      </trkpt>
      <trkpt lat="45.83881" lon="1.48942">
        <ele>352.6</ele>
        <time>2022-08-01T09:18:13Z</time>
      </trkpt>
      <trkpt lat="45.83878" lon="1.48942">
        <ele>352.8</ele>
        <time>2022-08-01T09:18:15Z</time>
      </trkpt>
      <trkpt lat="45.83875" lon="1.48944">
        <ele>353.1</ele>
        <time>2022-08-01T09:18:17Z</time>
      </trkpt>
      <trkpt lat="45.83873" lon="1.48944">
        <ele>353.2</ele>
        <time>2022-08-01T09:18:19Z</time>
      </trkpt>
      <trkpt lat="45.8387" lon="1.48945">
        <ele>353.5</ele>
        <time>2022-08-01T09:18:21Z</time>
      </trkpt>
      <trkpt lat="45.83867" lon="1.48948">
        <ele>353.9</ele>
        <time>2022-08-01T09:18:23Z</time>
      </trkpt>
      <trkpt lat="45.83864" lon="1.4895">
        <ele>354.2</ele>
        <time>2022-08-01T09:18:25Z</time>
      </trkpt>
      <trkpt lat="45.83861" lon="1.48953">
        <ele>354.6</ele>
        <time>2022-08-01T09:18:27Z</time>
      </trkpt>
      <trkpt lat="45.83859" lon="1.48954">
        <ele>354.9</ele>
        <time>2022-08-01T09:18:29Z</time>
      </trkpt>
      <trkpt lat="45.83856" lon="1.48956">
        <ele>355.1</ele>
        <time>2022-08-01T09:18:31Z</time>
      </trkpt>
      <trkpt lat="45.83853" lon="1.4896">
        <ele>355.5</ele>
        <time>2022-08-01T09:18:33Z</time>
      </trkpt>
      <trkpt lat="45.8385" lon="1.48962">
        <ele>355.8</ele>
        <time>2022-08-01T09:18:35Z</time>
      </trkpt>
      <trkpt lat="45.83848" lon="1.48966">
        <ele>356.2</ele>
        <time>2022-08-01T09:18:37Z</time>
      </trkpt>
      <trkpt lat="45.83845" lon="1.4897">
        <ele>356.6</ele>
        <time>2022-08-01T09:18:39Z</time>
      </trkpt>
      <trkpt lat="45.83843" lon="1.48973">
        <ele>356.9</ele>
        <time>2022-08-01T09:18:41Z</time>
      </trkpt>
      <trkpt lat="45.83842" lon="1.48975">
        <ele>357.1</ele>
        <time>2022-08-01T09:18:43Z</time>
      </trkpt>
      <trkpt lat="45.83842" lon="1.48975">
        <ele>357.1</ele>
        <time>2022-08-01T09:18:45Z</time>
      </trkpt>
      <trkpt lat="45.83838" lon="1.4898">
        <ele>357.6</ele>
        <time>2022-08-01T09:18:47Z</time>
      </trkpt>
      <trkpt lat="45.83833" lon="1.48983">
        <ele>358</ele>
        <time>2022-08-01T09:18:49Z</time>
      </trkpt>
      <trkpt lat="45.83829" lon="1.48987">
        <ele>358.1</ele>
        <time>2022-08-01T09:18:51Z</time>
      </trkpt>
      <trkpt lat="45.83827" lon="1.48992">
        <ele>358.3</ele>
        <time>2022-08-01T09:18:53Z</time>
      </trkpt>
      <trkpt lat="45.83825" lon="1.48996">
        <ele>358.5</ele>
        <time>2022-08-01T09:18:55Z</time>
      </trkpt>
      <trkpt lat="45.83823" lon="1.49">
        <ele>358.6</ele>
        <time>2022-08-01T09:18:57Z</time>
      </trkpt>
      <trkpt lat="45.83822" lon="1.49005">
        <ele>358.6</ele>
        <time>2022-08-01T09:18:59Z</time>
      </trkpt>
      <trkpt lat="45.8382" lon="1.49009">
        <ele>358.5</ele>
        <time>2022-08-01T09:19:01Z</time>
      </trkpt>
      <trkpt lat="45.83819" lon="1.49014">
        <ele>358.4</ele>
        <time>2022-08-01T09:19:03Z</time>
      </trkpt>
      <trkpt lat="45.83817" lon="1.49018">
        <ele>358.3</ele>
        <time>2022-08-01T09:19:05Z</time>
      </trkpt>
      <trkpt lat="45.83817" lon="1.49022">
        <ele>358.2</ele>
        <time>2022-08-01T09:19:07Z</time>
      </trkpt>
      <trkpt lat="45.83816" lon="1.49025">
        <ele>358.2</ele>
        <time>2022-08-01T09:19:09Z</time>
      </trkpt>
      <trkpt lat="45.83815" lon="1.49027">
        <ele>358.2</ele>
        <time>2022-08-01T09:19:11Z</time>
      </trkpt>
      <trkpt lat="45.83814" lon="1.49027">
        <ele>358.1</ele>
        <time>2022-08-01T09:19:13Z</time>
      </trkpt>
      <trkpt lat="45.83814" lon="1.49027">
        <ele>358.1</ele>
        <time>2022-08-01T09:19:15Z</time>
      </trkpt>
      <trkpt lat="45.83153" lon="1.49817">
        <ele>355.8</ele>
        <time>2022-08-01T10:37:03Z</time>
      </trkpt>
      <trkpt lat="45.83153" lon="1.49818">
        <ele>355.8</ele>
        <time>2022-08-01T10:37:05Z</time>
      </trkpt>
      <trkpt lat="45.83159" lon="1.49849">
        <ele>356.2</ele>
        <time>2022-08-01T11:08:14Z</time>
      </trkpt>
      <trkpt lat="45.83161" lon="1.49855">
        <ele>356.3</ele>
        <time>2022-08-01T11:08:16Z</time>
      </trkpt>
      <trkpt lat="45.83165" lon="1.49859">
        <ele>356.3</ele>
        <time>2022-08-01T11:08:18Z</time>
      </trkpt>
      <trkpt lat="45.83168" lon="1.49864">
        <ele>356.3</ele>
        <time>2022-08-01T11:08:20Z</time>
      </trkpt>
      <trkpt lat="45.83171" lon="1.49869">
        <ele>356.4</ele>
        <time>2022-08-01T11:08:22Z</time>
      </trkpt>
      <trkpt lat="45.83173" lon="1.49876">
        <ele>356.4</ele>
        <time>2022-08-01T11:08:24Z</time>
      </trkpt>
      <trkpt lat="45.83174" lon="1.49881">
        <ele>356.5</ele>
        <time>2022-08-01T11:08:26Z</time>
      </trkpt>
      <trkpt lat="45.83177" lon="1.49883">
        <ele>356.5</ele>
        <time>2022-08-01T11:08:28Z</time>
      </trkpt>
      <trkpt lat="45.83178" lon="1.49886">
        <ele>356.5</ele>
        <time>2022-08-01T11:08:30Z</time>
      </trkpt>
      <trkpt lat="45.83179" lon="1.49889">
        <ele>356.5</ele>
        <time>2022-08-01T11:08:32Z</time>
      </trkpt>
      <trkpt lat="45.83178" lon="1.49892">
        <ele>356.5</ele>
        <time>2022-08-01T11:08:34Z</time>
      </trkpt>
      <trkpt lat="45.83176" lon="1.49901">
        <ele>356.6</ele>
        <time>2022-08-01T11:08:36Z</time>
      </trkpt>
      <trkpt lat="45.83169" lon="1.49902">
        <ele>356.8</ele>
        <time>2022-08-01T11:08:38Z</time>
      </trkpt>
      <trkpt lat="45.83165" lon="1.49912">
        <ele>356.9</ele>
        <time>2022-08-01T11:08:40Z</time>
      </trkpt>
      <trkpt lat="45.8316" lon="1.49916">
        <ele>357</ele>
        <time>2022-08-01T11:08:42Z</time>
      </trkpt>
      <trkpt lat="45.83155" lon="1.49923">
        <ele>356.9</ele>
        <time>2022-08-01T11:08:44Z</time>
      </trkpt>
      <trkpt lat="45.8315" lon="1.49928">
        <ele>356.8</ele>
        <time>2022-08-01T11:08:46Z</time>
      </trkpt>
      <trkpt lat="45.83145" lon="1.49936">
        <ele>356.7</ele>
        <time>2022-08-01T11:08:48Z</time>
      </trkpt>
      <trkpt lat="45.83141" lon="1.4994">
        <ele>356.6</ele>
        <time>2022-08-01T11:08:50Z</time>
      </trkpt>
      <trkpt lat="45.83135" lon="1.49946">
        <ele>356.6</ele>
        <time>2022-08-01T11:08:52Z</time>
      </trkpt>
      <trkpt lat="45.8313" lon="1.49954">
        <ele>356.5</ele>
        <time>2022-08-01T11:08:54Z</time>
      </trkpt>
      <trkpt lat="45.83125" lon="1.49961">
        <ele>356.5</ele>
        <time>2022-08-01T11:08:56Z</time>
      </trkpt>
      <trkpt lat="45.8312" lon="1.49969">
        <ele>356.5</ele>
        <time>2022-08-01T11:08:58Z</time>
      </trkpt>
      <trkpt lat="45.83115" lon="1.49977">
        <ele>356.5</ele>
        <time>2022-08-01T11:09:00Z</time>
      </trkpt>
      <trkpt lat="45.8311" lon="1.49985">
        <ele>356.5</ele>
        <time>2022-08-01T11:09:02Z</time>
      </trkpt>
      <trkpt lat="45.83106" lon="1.49994">
        <ele>356.5</ele>
        <time>2022-08-01T11:09:04Z</time>
      </trkpt>
      <trkpt lat="45.83101" lon="1.50003">
        <ele>356.5</ele>
        <time>2022-08-01T11:09:06Z</time>
      </trkpt>
      <trkpt lat="45.83098" lon="1.50013">
        <ele>356.5</ele>
        <time>2022-08-01T11:09:08Z</time>
      </trkpt>
      <trkpt lat="45.83095" lon="1.50024">
        <ele>356.4</ele>
        <time>2022-08-01T11:09:10Z</time>
      </trkpt>
      <trkpt lat="45.83091" lon="1.50033">
        <ele>356.4</ele>
        <time>2022-08-01T11:09:12Z</time>
      </trkpt>
      <trkpt lat="45.83087" lon="1.50045">
        <ele>356.3</ele>
        <time>2022-08-01T11:09:14Z</time>
      </trkpt>
      <trkpt lat="45.83084" lon="1.50056">
        <ele>356.3</ele>
        <time>2022-08-01T11:09:16Z</time>
      </trkpt>
      <trkpt lat="45.8308" lon="1.50069">
        <ele>356.2</ele>
        <time>2022-08-01T11:09:18Z</time>
      </trkpt>
      <trkpt lat="45.83076" lon="1.50082">
        <ele>356</ele>
        <time>2022-08-01T11:09:20Z</time>
      </trkpt>
      <trkpt lat="45.83072" lon="1.50096">
        <ele>355.8</ele>
        <time>2022-08-01T11:09:22Z</time>
      </trkpt>
      <trkpt lat="45.83065" lon="1.50118">
        <ele>355.4</ele>
        <time>2022-08-01T11:09:25Z</time>
      </trkpt>
      <trkpt lat="45.83061" lon="1.50133">
        <ele>355.1</ele>
        <time>2022-08-01T11:09:27Z</time>
      </trkpt>
      <trkpt lat="45.83058" lon="1.5014">
        <ele>354.9</ele>
        <time>2022-08-01T11:09:28Z</time>
      </trkpt>
      <trkpt lat="45.83052" lon="1.50155">
        <ele>354.5</ele>
        <time>2022-08-01T11:09:30Z</time>
      </trkpt>
      <trkpt lat="45.83046" lon="1.5017">
        <ele>354</ele>
        <time>2022-08-01T11:09:32Z</time>
      </trkpt>
      <trkpt lat="45.83041" lon="1.50185">
        <ele>353.4</ele>
        <time>2022-08-01T11:09:34Z</time>
      </trkpt>
      <trkpt lat="45.83035" lon="1.50199">
        <ele>353</ele>
        <time>2022-08-01T11:09:36Z</time>
      </trkpt>
      <trkpt lat="45.8303" lon="1.50214">
        <ele>352.5</ele>
        <time>2022-08-01T11:09:38Z</time>
      </trkpt>
      <trkpt lat="45.83025" lon="1.50229">
        <ele>352.2</ele>
        <time>2022-08-01T11:09:40Z</time>
      </trkpt>
      <trkpt lat="45.83019" lon="1.50243">
        <ele>351.9</ele>
        <time>2022-08-01T11:09:42Z</time>
      </trkpt>
      <trkpt lat="45.83014" lon="1.50257">
        <ele>351.9</ele>
        <time>2022-08-01T11:09:44Z</time>
      </trkpt>
      <trkpt lat="45.83009" lon="1.50271">
        <ele>352.1</ele>
        <time>2022-08-01T11:09:46Z</time>
      </trkpt>
      <trkpt lat="45.83003" lon="1.50286">
        <ele>352.4</ele>
        <time>2022-08-01T11:09:48Z</time>
      </trkpt>
      <trkpt lat="45.82998" lon="1.503">
        <ele>352.6</ele>
        <time>2022-08-01T11:09:50Z</time>
      </trkpt>
      <trkpt lat="45.82993" lon="1.50314">
        <ele>352.8</ele>
        <time>2022-08-01T11:09:52Z</time>
      </trkpt>
      <trkpt lat="45.82987" lon="1.50327">
        <ele>353.1</ele>
        <time>2022-08-01T11:09:54Z</time>
      </trkpt>
      <trkpt lat="45.82983" lon="1.5034">
        <ele>353.1</ele>
        <time>2022-08-01T11:09:56Z</time>
      </trkpt>
      <trkpt lat="45.82978" lon="1.50353">
        <ele>353</ele>
        <time>2022-08-01T11:09:58Z</time>
      </trkpt>
      <trkpt lat="45.82973" lon="1.50366">
        <ele>352.9</ele>
        <time>2022-08-01T11:10:00Z</time>
      </trkpt>
      <trkpt lat="45.82969" lon="1.50378">
        <ele>352.9</ele>
        <time>2022-08-01T11:10:02Z</time>
      </trkpt>
      <trkpt lat="45.82964" lon="1.5039">
        <ele>353</ele>
        <time>2022-08-01T11:10:04Z</time>
      </trkpt>
      <trkpt lat="45.82959" lon="1.50401">
        <ele>353.1</ele>
        <time>2022-08-01T11:10:06Z</time>
      </trkpt>
      <trkpt lat="45.82955" lon="1.50412">
        <ele>353.2</ele>
        <time>2022-08-01T11:10:08Z</time>
      </trkpt>
      <trkpt lat="45.82951" lon="1.50423">
        <ele>353.3</ele>
        <time>2022-08-01T11:10:10Z</time>
      </trkpt>
      <trkpt lat="45.82947" lon="1.50433">
        <ele>353.5</ele>
        <time>2022-08-01T11:10:12Z</time>
      </trkpt>
      <trkpt lat="45.82944" lon="1.50442">
        <ele>353.6</ele>
        <time>2022-08-01T11:10:14Z</time>
      </trkpt>
      <trkpt lat="45.8294" lon="1.50452">
        <ele>353.7</ele>
        <time>2022-08-01T11:10:16Z</time>
      </trkpt>
      <trkpt lat="45.82937" lon="1.50462">
        <ele>353.9</ele>
        <time>2022-08-01T11:10:18Z</time>
      </trkpt>
      <trkpt lat="45.82933" lon="1.50471">
        <ele>354.1</ele>
        <time>2022-08-01T11:10:20Z</time>
      </trkpt>
      <trkpt lat="45.82929" lon="1.5048">
        <ele>354.3</ele>
        <time>2022-08-01T11:10:22Z</time>
      </trkpt>
      <trkpt lat="45.82926" lon="1.5049">
        <ele>354.5</ele>
        <time>2022-08-01T11:10:24Z</time>
      </trkpt>
      <trkpt lat="45.82923" lon="1.50498">
        <ele>354.6</ele>
        <time>2022-08-01T11:10:26Z</time>
      </trkpt>
      <trkpt lat="45.82921" lon="1.50505">
        <ele>354.8</ele>
        <time>2022-08-01T11:10:28Z</time>
      </trkpt>
      <trkpt lat="45.82917" lon="1.50511">
        <ele>355</ele>
        <time>2022-08-01T11:10:30Z</time>
      </trkpt>
      <trkpt lat="45.82914" lon="1.50515">
        <ele>355</ele>
        <time>2022-08-01T11:10:32Z</time>
      </trkpt>
      <trkpt lat="45.82914" lon="1.50519">
        <ele>355</ele>
        <time>2022-08-01T11:10:34Z</time>
      </trkpt>
      <trkpt lat="45.82916" lon="1.5052">
        <ele>355</ele>
        <time>2022-08-01T11:10:36Z</time>
      </trkpt>
      <trkpt lat="45.8292" lon="1.50516">
        <ele>354.8</ele>
        <time>2022-08-01T11:10:38Z</time>
      </trkpt>
      <trkpt lat="45.82922" lon="1.50509">
        <ele>354.6</ele>
        <time>2022-08-01T11:10:40Z</time>
      </trkpt>
      <trkpt lat="45.82926" lon="1.50502">
        <ele>354.4</ele>
        <time>2022-08-01T11:10:42Z</time>
      </trkpt>
      <trkpt lat="45.82929" lon="1.50494">
        <ele>354.3</ele>
        <time>2022-08-01T11:10:44Z</time>
      </trkpt>
      <trkpt lat="45.82932" lon="1.50484">
        <ele>354.1</ele>
        <time>2022-08-01T11:10:46Z</time>
      </trkpt>
      <trkpt lat="45.82936" lon="1.50474">
        <ele>353.9</ele>
        <time>2022-08-01T11:10:48Z</time>
      </trkpt>
      <trkpt lat="45.8294" lon="1.50464">
        <ele>353.7</ele>
        <time>2022-08-01T11:10:50Z</time>
      </trkpt>
      <trkpt lat="45.82943" lon="1.50452">
        <ele>353.6</ele>
        <time>2022-08-01T11:10:52Z</time>
      </trkpt>
      <trkpt lat="45.82948" lon="1.5044">
        <ele>353.4</ele>
        <time>2022-08-01T11:10:54Z</time>
      </trkpt>
      <trkpt lat="45.82953" lon="1.50428">
        <ele>353.2</ele>
        <time>2022-08-01T11:10:56Z</time>
      </trkpt>
      <trkpt lat="45.82957" lon="1.50415">
        <ele>353.1</ele>
        <time>2022-08-01T11:10:58Z</time>
      </trkpt>
      <trkpt lat="45.82962" lon="1.50402">
        <ele>352.9</ele>
        <time>2022-08-01T11:11:00Z</time>
      </trkpt>
      <trkpt lat="45.82968" lon="1.50387">
        <ele>352.9</ele>
        <time>2022-08-01T11:11:02Z</time>
      </trkpt>
      <trkpt lat="45.82973" lon="1.50373">
        <ele>352.8</ele>
        <time>2022-08-01T11:11:04Z</time>
      </trkpt>
      <trkpt lat="45.82978" lon="1.50358">
        <ele>352.9</ele>
        <time>2022-08-01T11:11:06Z</time>
      </trkpt>
      <trkpt lat="45.82984" lon="1.50343">
        <ele>353</ele>
        <time>2022-08-01T11:11:08Z</time>
      </trkpt>
      <trkpt lat="45.82989" lon="1.50328">
        <ele>353.1</ele>
        <time>2022-08-01T11:11:10Z</time>
      </trkpt>
      <trkpt lat="45.82995" lon="1.50313">
        <ele>352.8</ele>
        <time>2022-08-01T11:11:12Z</time>
      </trkpt>
      <trkpt lat="45.83001" lon="1.50297">
        <ele>352.6</ele>
        <time>2022-08-01T11:11:14Z</time>
      </trkpt>
      <trkpt lat="45.83006" lon="1.50282">
        <ele>352.3</ele>
        <time>2022-08-01T11:11:16Z</time>
      </trkpt>
      <trkpt lat="45.83012" lon="1.50267">
        <ele>352</ele>
        <time>2022-08-01T11:11:18Z</time>
      </trkpt>
      <trkpt lat="45.83017" lon="1.50253">
        <ele>351.8</ele>
        <time>2022-08-01T11:11:20Z</time>
      </trkpt>
      <trkpt lat="45.83022" lon="1.5024">
        <ele>352</ele>
        <time>2022-08-01T11:11:22Z</time>
      </trkpt>
      <trkpt lat="45.83027" lon="1.50227">
        <ele>352.2</ele>
        <time>2022-08-01T11:11:24Z</time>
      </trkpt>
      <trkpt lat="45.83031" lon="1.50214">
        <ele>352.5</ele>
        <time>2022-08-01T11:11:26Z</time>
      </trkpt>
      <trkpt lat="45.83036" lon="1.50202">
        <ele>352.9</ele>
        <time>2022-08-01T11:11:28Z</time>
      </trkpt>
      <trkpt lat="45.8304" lon="1.5019">
        <ele>353.3</ele>
        <time>2022-08-01T11:11:30Z</time>
      </trkpt>
      <trkpt lat="45.83044" lon="1.50178">
        <ele>353.7</ele>
        <time>2022-08-01T11:11:32Z</time>
      </trkpt>
      <trkpt lat="45.8305" lon="1.50162">
        <ele>354.3</ele>
        <time>2022-08-01T11:11:35Z</time>
      </trkpt>
      <trkpt lat="45.83054" lon="1.50152">
        <ele>354.6</ele>
        <time>2022-08-01T11:11:37Z</time>
      </trkpt>
      <trkpt lat="45.83057" lon="1.50143">
        <ele>354.8</ele>
        <time>2022-08-01T11:11:39Z</time>
      </trkpt>
      <trkpt lat="45.8306" lon="1.50135">
        <ele>355</ele>
        <time>2022-08-01T11:11:41Z</time>
      </trkpt>
      <trkpt lat="45.83062" lon="1.50127">
        <ele>355.2</ele>
        <time>2022-08-01T11:11:43Z</time>
      </trkpt>
      <trkpt lat="45.83065" lon="1.5012">
        <ele>355.4</ele>
        <time>2022-08-01T11:11:45Z</time>
      </trkpt>
      <trkpt lat="45.83067" lon="1.50113">
        <ele>355.5</ele>
        <time>2022-08-01T11:11:47Z</time>
      </trkpt>
      <trkpt lat="45.83065" lon="1.50107">
        <ele>355.6</ele>
        <time>2022-08-01T11:11:49Z</time>
      </trkpt>
      <trkpt lat="45.83061" lon="1.5011">
        <ele>355.5</ele>
        <time>2022-08-01T11:11:51Z</time>
      </trkpt>
      <trkpt lat="45.8306" lon="1.50116">
        <ele>355.4</ele>
        <time>2022-08-01T11:11:53Z</time>
      </trkpt>
      <trkpt lat="45.8306" lon="1.50122">
        <ele>355.3</ele>
        <time>2022-08-01T11:11:55Z</time>
      </trkpt>
      <trkpt lat="45.83059" lon="1.50124">
        <ele>355.2</ele>
        <time>2022-08-01T11:11:57Z</time>
      </trkpt>
      <trkpt lat="45.83059" lon="1.50125">
        <ele>355.2</ele>
        <time>2022-08-01T11:11:59Z</time>
      </trkpt>
      <trkpt lat="45.8306" lon="1.50125">
        <ele>355.2</ele>
        <time>2022-08-01T11:12:01Z</time>
      </trkpt>
      <trkpt lat="45.8306" lon="1.50125">
        <ele>355.2</ele>
        <time>2022-08-01T11:12:03Z</time>
      </trkpt>
      <trkpt lat="45.8306" lon="1.50125">
        <ele>355.2</ele>
        <time>2022-08-01T11:12:05Z</time>
      </trkpt>
      <trkpt lat="45.83046" lon="1.50125">
        <ele>355.1</ele>
        <time>2022-08-01T11:12:17Z</time>
      </trkpt>
      <trkpt lat="45.83044" lon="1.50122">
        <ele>355.1</ele>
        <time>2022-08-01T11:12:19Z</time>
      </trkpt>
      <trkpt lat="45.83041" lon="1.5012">
        <ele>355.1</ele>
        <time>2022-08-01T11:12:21Z</time>
      </trkpt>
      <trkpt lat="45.83037" lon="1.50117">
        <ele>355.1</ele>
        <time>2022-08-01T11:12:23Z</time>
      </trkpt>
      <trkpt lat="45.83033" lon="1.50113">
        <ele>355.2</ele>
        <time>2022-08-01T11:12:25Z</time>
      </trkpt>
      <trkpt lat="45.83028" lon="1.5011">
        <ele>355.3</ele>
        <time>2022-08-01T11:12:27Z</time>
      </trkpt>
      <trkpt lat="45.83022" lon="1.50107">
        <ele>355.3</ele>
        <time>2022-08-01T11:12:29Z</time>
      </trkpt>
      <trkpt lat="45.83017" lon="1.50101">
        <ele>355.4</ele>
        <time>2022-08-01T11:12:31Z</time>
      </trkpt>
      <trkpt lat="45.83011" lon="1.50096">
        <ele>355.6</ele>
        <time>2022-08-01T11:12:33Z</time>
      </trkpt>
      <trkpt lat="45.83004" lon="1.50092">
        <ele>355.7</ele>
        <time>2022-08-01T11:12:35Z</time>
      </trkpt>
      <trkpt lat="45.82998" lon="1.50085">
        <ele>355.8</ele>
        <time>2022-08-01T11:12:37Z</time>
      </trkpt>
      <trkpt lat="45.82992" lon="1.50079">
        <ele>355.5</ele>
        <time>2022-08-01T11:12:39Z</time>
      </trkpt>
      <trkpt lat="45.82985" lon="1.50074">
        <ele>355.1</ele>
        <time>2022-08-01T11:12:41Z</time>
      </trkpt>
      <trkpt lat="45.82979" lon="1.50071">
        <ele>354.7</ele>
        <time>2022-08-01T11:12:43Z</time>
      </trkpt>
      <trkpt lat="45.82972" lon="1.5007">
        <ele>354.3</ele>
        <time>2022-08-01T11:12:45Z</time>
      </trkpt>
      <trkpt lat="45.82966" lon="1.50069">
        <ele>353.9</ele>
        <time>2022-08-01T11:12:47Z</time>
      </trkpt>
      <trkpt lat="45.8296" lon="1.50067">
        <ele>353.5</ele>
        <time>2022-08-01T11:12:49Z</time>
      </trkpt>
      <trkpt lat="45.82955" lon="1.50068">
        <ele>353.2</ele>
        <time>2022-08-01T11:12:51Z</time>
      </trkpt>
      <trkpt lat="45.82949" lon="1.50067">
        <ele>352.8</ele>
        <time>2022-08-01T11:12:53Z</time>
      </trkpt>
      <trkpt lat="45.82945" lon="1.50066">
        <ele>352.6</ele>
        <time>2022-08-01T11:12:55Z</time>
      </trkpt>
      <trkpt lat="45.8294" lon="1.50066">
        <ele>352.3</ele>
        <time>2022-08-01T11:12:57Z</time>
      </trkpt>
      <trkpt lat="45.82935" lon="1.50066">
        <ele>351.9</ele>
        <time>2022-08-01T11:12:59Z</time>
      </trkpt>
      <trkpt lat="45.82931" lon="1.50066">
        <ele>351.7</ele>
        <time>2022-08-01T11:13:01Z</time>
      </trkpt>
      <trkpt lat="45.82926" lon="1.50066">
        <ele>351.4</ele>
        <time>2022-08-01T11:13:03Z</time>
      </trkpt>
      <trkpt lat="45.82922" lon="1.50066">
        <ele>351.1</ele>
        <time>2022-08-01T11:13:05Z</time>
      </trkpt>
      <trkpt lat="45.82916" lon="1.50066">
        <ele>350.7</ele>
        <time>2022-08-01T11:13:07Z</time>
      </trkpt>
      <trkpt lat="45.8291" lon="1.50067">
        <ele>350.3</ele>
        <time>2022-08-01T11:13:09Z</time>
      </trkpt>
      <trkpt lat="45.82904" lon="1.50067">
        <ele>349.8</ele>
        <time>2022-08-01T11:13:11Z</time>
      </trkpt>
      <trkpt lat="45.82898" lon="1.50067">
        <ele>349.3</ele>
        <time>2022-08-01T11:13:13Z</time>
      </trkpt>
      <trkpt lat="45.82893" lon="1.50067">
        <ele>348.8</ele>
        <time>2022-08-01T11:13:15Z</time>
      </trkpt>
      <trkpt lat="45.82886" lon="1.50067">
        <ele>348.3</ele>
        <time>2022-08-01T11:13:17Z</time>
      </trkpt>
      <trkpt lat="45.82881" lon="1.50066">
        <ele>347.9</ele>
        <time>2022-08-01T11:13:19Z</time>
      </trkpt>
      <trkpt lat="45.82876" lon="1.50067">
        <ele>347.5</ele>
        <time>2022-08-01T11:13:21Z</time>
      </trkpt>
      <trkpt lat="45.82868" lon="1.50066">
        <ele>346.9</ele>
        <time>2022-08-01T11:13:23Z</time>
      </trkpt>
      <trkpt lat="45.82862" lon="1.50067">
        <ele>346.4</ele>
        <time>2022-08-01T11:13:25Z</time>
      </trkpt>
      <trkpt lat="45.82855" lon="1.50067">
        <ele>345.8</ele>
        <time>2022-08-01T11:13:27Z</time>
      </trkpt>
      <trkpt lat="45.82849" lon="1.50066">
        <ele>345.2</ele>
        <time>2022-08-01T11:13:29Z</time>
      </trkpt>
      <trkpt lat="45.82842" lon="1.50067">
        <ele>344.7</ele>
        <time>2022-08-01T11:13:31Z</time>
      </trkpt>
      <trkpt lat="45.82836" lon="1.50066">
        <ele>344.2</ele>
        <time>2022-08-01T11:13:33Z</time>
      </trkpt>
      <trkpt lat="45.82829" lon="1.50066">
        <ele>343.8</ele>
        <time>2022-08-01T11:13:35Z</time>
      </trkpt>
      <trkpt lat="45.82822" lon="1.50066">
        <ele>343.4</ele>
        <time>2022-08-01T11:13:37Z</time>
      </trkpt>
      <trkpt lat="45.82815" lon="1.50065">
        <ele>343</ele>
        <time>2022-08-01T11:13:39Z</time>
      </trkpt>
      <trkpt lat="45.8281" lon="1.50066">
        <ele>342.7</ele>
        <time>2022-08-01T11:13:41Z</time>
      </trkpt>
      <trkpt lat="45.82804" lon="1.50066">
        <ele>342.5</ele>
        <time>2022-08-01T11:13:43Z</time>
      </trkpt>
      <trkpt lat="45.82801" lon="1.50067">
        <ele>342.3</ele>
        <time>2022-08-01T11:13:44Z</time>
      </trkpt>
      <trkpt lat="45.82794" lon="1.50066">
        <ele>341.9</ele>
        <time>2022-08-01T11:13:46Z</time>
      </trkpt>
      <trkpt lat="45.82786" lon="1.50065">
        <ele>341.5</ele>
        <time>2022-08-01T11:13:48Z</time>
      </trkpt>
      <trkpt lat="45.82777" lon="1.50064">
        <ele>341</ele>
        <time>2022-08-01T11:13:50Z</time>
      </trkpt>
      <trkpt lat="45.82771" lon="1.50062">
        <ele>340.6</ele>
        <time>2022-08-01T11:13:52Z</time>
      </trkpt>
      <trkpt lat="45.82764" lon="1.5006">
        <ele>340.2</ele>
        <time>2022-08-01T11:13:54Z</time>
      </trkpt>
      <trkpt lat="45.82757" lon="1.50058">
        <ele>339.8</ele>
        <time>2022-08-01T11:13:56Z</time>
      </trkpt>
      <trkpt lat="45.8275" lon="1.50057">
        <ele>339.4</ele>
        <time>2022-08-01T11:13:58Z</time>
      </trkpt>
      <trkpt lat="45.82743" lon="1.50054">
        <ele>338.8</ele>
        <time>2022-08-01T11:14:00Z</time>
      </trkpt>
      <trkpt lat="45.82738" lon="1.50052">
        <ele>338.3</ele>
        <time>2022-08-01T11:14:02Z</time>
      </trkpt>
      <trkpt lat="45.82731" lon="1.5005">
        <ele>337.8</ele>
        <time>2022-08-01T11:14:04Z</time>
      </trkpt>
      <trkpt lat="45.82724" lon="1.50048">
        <ele>337.2</ele>
        <time>2022-08-01T11:14:06Z</time>
      </trkpt>
      <trkpt lat="45.82717" lon="1.50044">
        <ele>336.6</ele>
        <time>2022-08-01T11:14:08Z</time>
      </trkpt>
      <trkpt lat="45.8271" lon="1.50041">
        <ele>336.1</ele>
        <time>2022-08-01T11:14:10Z</time>
      </trkpt>
      <trkpt lat="45.82705" lon="1.50037">
        <ele>335.7</ele>
        <time>2022-08-01T11:14:12Z</time>
      </trkpt>
      <trkpt lat="45.82698" lon="1.50036">
        <ele>335.2</ele>
        <time>2022-08-01T11:14:14Z</time>
      </trkpt>
      <trkpt lat="45.82692" lon="1.50034">
        <ele>334.8</ele>
        <time>2022-08-01T11:14:16Z</time>
      </trkpt>
      <trkpt lat="45.82685" lon="1.50031">
        <ele>334.3</ele>
        <time>2022-08-01T11:14:18Z</time>
      </trkpt>
      <trkpt lat="45.82682" lon="1.5002">
        <ele>334</ele>
        <time>2022-08-01T11:14:20Z</time>
      </trkpt>
      <trkpt lat="45.82684" lon="1.50011">
        <ele>334.1</ele>
        <time>2022-08-01T11:14:22Z</time>
      </trkpt>
      <trkpt lat="45.82686" lon="1.50002">
        <ele>334.2</ele>
        <time>2022-08-01T11:14:24Z</time>
      </trkpt>
      <trkpt lat="45.82687" lon="1.49995">
        <ele>334.3</ele>
        <time>2022-08-01T11:14:26Z</time>
      </trkpt>
      <trkpt lat="45.82688" lon="1.49987">
        <ele>334.3</ele>
        <time>2022-08-01T11:14:28Z</time>
      </trkpt>
      <trkpt lat="45.8269" lon="1.49981">
        <ele>334.5</ele>
        <time>2022-08-01T11:14:30Z</time>
      </trkpt>
      <trkpt lat="45.82691" lon="1.49976">
        <ele>334.6</ele>
        <time>2022-08-01T11:14:32Z</time>
      </trkpt>
      <trkpt lat="45.82692" lon="1.49971">
        <ele>334.7</ele>
        <time>2022-08-01T11:14:34Z</time>
      </trkpt>
      <trkpt lat="45.82693" lon="1.49965">
        <ele>334.9</ele>
        <time>2022-08-01T11:14:36Z</time>
      </trkpt>
      <trkpt lat="45.82694" lon="1.49959">
        <ele>335</ele>
        <time>2022-08-01T11:14:38Z</time>
      </trkpt>
      <trkpt lat="45.82696" lon="1.49954">
        <ele>335.1</ele>
        <time>2022-08-01T11:14:40Z</time>
      </trkpt>
      <trkpt lat="45.82697" lon="1.49947">
        <ele>335.3</ele>
        <time>2022-08-01T11:14:42Z</time>
      </trkpt>
      <trkpt lat="45.82697" lon="1.4994">
        <ele>335.3</ele>
        <time>2022-08-01T11:14:44Z</time>
      </trkpt>
      <trkpt lat="45.82699" lon="1.49933">
        <ele>335.6</ele>
        <time>2022-08-01T11:14:46Z</time>
      </trkpt>
      <trkpt lat="45.82701" lon="1.49925">
        <ele>335.8</ele>
        <time>2022-08-01T11:14:48Z</time>
      </trkpt>
      <trkpt lat="45.82701" lon="1.49918">
        <ele>335.9</ele>
        <time>2022-08-01T11:14:50Z</time>
      </trkpt>
      <trkpt lat="45.82703" lon="1.49912">
        <ele>336.1</ele>
        <time>2022-08-01T11:14:52Z</time>
      </trkpt>
      <trkpt lat="45.82703" lon="1.49907">
        <ele>336.3</ele>
        <time>2022-08-01T11:14:54Z</time>
      </trkpt>
      <trkpt lat="45.82704" lon="1.499">
        <ele>336.5</ele>
        <time>2022-08-01T11:14:56Z</time>
      </trkpt>
      <trkpt lat="45.82706" lon="1.49892">
        <ele>336.7</ele>
        <time>2022-08-01T11:14:58Z</time>
      </trkpt>
      <trkpt lat="45.82707" lon="1.49885">
        <ele>337</ele>
        <time>2022-08-01T11:15:00Z</time>
      </trkpt>
      <trkpt lat="45.82709" lon="1.49878">
        <ele>337.3</ele>
        <time>2022-08-01T11:15:02Z</time>
      </trkpt>
      <trkpt lat="45.8271" lon="1.49871">
        <ele>337.5</ele>
        <time>2022-08-01T11:15:04Z</time>
      </trkpt>
      <trkpt lat="45.82712" lon="1.49863">
        <ele>337.7</ele>
        <time>2022-08-01T11:15:06Z</time>
      </trkpt>
      <trkpt lat="45.82713" lon="1.49856">
        <ele>337.9</ele>
        <time>2022-08-01T11:15:08Z</time>
      </trkpt>
      <trkpt lat="45.82714" lon="1.49848">
        <ele>338.2</ele>
        <time>2022-08-01T11:15:10Z</time>
      </trkpt>
      <trkpt lat="45.82715" lon="1.4984">
        <ele>338.4</ele>
        <time>2022-08-01T11:15:12Z</time>
      </trkpt>
      <trkpt lat="45.82717" lon="1.49832">
        <ele>338.6</ele>
        <time>2022-08-01T11:15:14Z</time>
      </trkpt>
      <trkpt lat="45.82718" lon="1.49825">
        <ele>338.7</ele>
        <time>2022-08-01T11:15:16Z</time>
      </trkpt>
      <trkpt lat="45.82719" lon="1.49819">
        <ele>338.7</ele>
        <time>2022-08-01T11:15:18Z</time>
      </trkpt>
      <trkpt lat="45.82719" lon="1.49819">
        <ele>338.7</ele>
        <time>2022-08-01T11:15:20Z</time>
      </trkpt>
      <trkpt lat="45.82719" lon="1.49819">
        <ele>338.7</ele>
        <time>2022-08-01T11:15:22Z</time>
      </trkpt>
      <trkpt lat="45.82719" lon="1.49818">
        <ele>338.7</ele>
        <time>2022-08-01T11:15:24Z</time>
      </trkpt>
      <trkpt lat="45.82719" lon="1.49819">
        <ele>338.7</ele>
        <time>2022-08-01T11:15:26Z</time>
      </trkpt>
      <trkpt lat="45.82719" lon="1.49819">
        <ele>338.7</ele>
        <time>2022-08-01T11:15:28Z</time>
      </trkpt>
      <trkpt lat="45.82723" lon="1.49805">
        <ele>339</ele>
        <time>2022-08-01T11:16:08Z</time>
      </trkpt>
      <trkpt lat="45.82725" lon="1.49796">
        <ele>339</ele>
        <time>2022-08-01T11:16:10Z</time>
      </trkpt>
      <trkpt lat="45.82727" lon="1.49787">
        <ele>339.1</ele>
        <time>2022-08-01T11:16:12Z</time>
      </trkpt>
      <trkpt lat="45.82728" lon="1.49778">
        <ele>339.1</ele>
        <time>2022-08-01T11:16:14Z</time>
      </trkpt>
      <trkpt lat="45.82729" lon="1.49767">
        <ele>339.1</ele>
        <time>2022-08-01T11:16:16Z</time>
      </trkpt>
      <trkpt lat="45.82731" lon="1.49757">
        <ele>339.1</ele>
        <time>2022-08-01T11:16:18Z</time>
      </trkpt>
      <trkpt lat="45.82732" lon="1.49746">
        <ele>339.1</ele>
        <time>2022-08-01T11:16:20Z</time>
      </trkpt>
      <trkpt lat="45.82733" lon="1.49735">
        <ele>338.9</ele>
        <time>2022-08-01T11:16:22Z</time>
      </trkpt>
      <trkpt lat="45.82734" lon="1.49724">
        <ele>338.7</ele>
        <time>2022-08-01T11:16:24Z</time>
      </trkpt>
      <trkpt lat="45.82734" lon="1.49713">
        <ele>338.5</ele>
        <time>2022-08-01T11:16:26Z</time>
      </trkpt>
      <trkpt lat="45.82733" lon="1.49703">
        <ele>338.3</ele>
        <time>2022-08-01T11:16:28Z</time>
      </trkpt>
      <trkpt lat="45.82732" lon="1.49691">
        <ele>338</ele>
        <time>2022-08-01T11:16:30Z</time>
      </trkpt>
      <trkpt lat="45.82731" lon="1.49678">
        <ele>337.7</ele>
        <time>2022-08-01T11:16:32Z</time>
      </trkpt>
      <trkpt lat="45.82729" lon="1.49664">
        <ele>337.4</ele>
        <time>2022-08-01T11:16:34Z</time>
      </trkpt>
      <trkpt lat="45.82728" lon="1.4965">
        <ele>336.9</ele>
        <time>2022-08-01T11:16:36Z</time>
      </trkpt>
      <trkpt lat="45.82726" lon="1.49637">
        <ele>336.4</ele>
        <time>2022-08-01T11:16:38Z</time>
      </trkpt>
      <trkpt lat="45.82725" lon="1.49624">
        <ele>335.9</ele>
        <time>2022-08-01T11:16:40Z</time>
      </trkpt>
      <trkpt lat="45.82723" lon="1.49612">
        <ele>335.4</ele>
        <time>2022-08-01T11:16:42Z</time>
      </trkpt>
      <trkpt lat="45.82723" lon="1.49602">
        <ele>335</ele>
        <time>2022-08-01T11:16:44Z</time>
      </trkpt>
      <trkpt lat="45.82722" lon="1.49592">
        <ele>334.6</ele>
        <time>2022-08-01T11:16:46Z</time>
      </trkpt>
      <trkpt lat="45.82721" lon="1.49583">
        <ele>334.3</ele>
        <time>2022-08-01T11:16:48Z</time>
      </trkpt>
      <trkpt lat="45.82719" lon="1.49579">
        <ele>333.9</ele>
        <time>2022-08-01T11:16:50Z</time>
      </trkpt>
      <trkpt lat="45.82719" lon="1.49579">
        <ele>333.9</ele>
        <time>2022-08-01T11:16:52Z</time>
      </trkpt>
      <trkpt lat="45.82719" lon="1.49579">
        <ele>333.9</ele>
        <time>2022-08-01T11:16:54Z</time>
      </trkpt>
      <trkpt lat="45.82718" lon="1.49579">
        <ele>333.9</ele>
        <time>2022-08-01T11:16:56Z</time>
      </trkpt>
      <trkpt lat="45.82718" lon="1.49579">
        <ele>333.9</ele>
        <time>2022-08-01T11:16:58Z</time>
      </trkpt>
      <trkpt lat="45.82718" lon="1.49578">
        <ele>333.8</ele>
        <time>2022-08-01T11:17:00Z</time>
      </trkpt>
      <trkpt lat="45.827" lon="1.49593">
        <ele>333.4</ele>
        <time>2022-08-01T11:17:10Z</time>
      </trkpt>
      <trkpt lat="45.82695" lon="1.49599">
        <ele>333.5</ele>
        <time>2022-08-01T11:17:12Z</time>
      </trkpt>
      <trkpt lat="45.82688" lon="1.49607">
        <ele>333.5</ele>
        <time>2022-08-01T11:17:14Z</time>
      </trkpt>
      <trkpt lat="45.82682" lon="1.49615">
        <ele>333.6</ele>
        <time>2022-08-01T11:17:16Z</time>
      </trkpt>
      <trkpt lat="45.82676" lon="1.49623">
        <ele>333.8</ele>
        <time>2022-08-01T11:17:18Z</time>
      </trkpt>
      <trkpt lat="45.8267" lon="1.49631">
        <ele>334</ele>
        <time>2022-08-01T11:17:20Z</time>
      </trkpt>
      <trkpt lat="45.82663" lon="1.49639">
        <ele>334.2</ele>
        <time>2022-08-01T11:17:22Z</time>
      </trkpt>
      <trkpt lat="45.82657" lon="1.49647">
        <ele>334.2</ele>
        <time>2022-08-01T11:17:24Z</time>
      </trkpt>
      <trkpt lat="45.8265" lon="1.49655">
        <ele>334.3</ele>
        <time>2022-08-01T11:17:26Z</time>
      </trkpt>
      <trkpt lat="45.82642" lon="1.49662">
        <ele>334.3</ele>
        <time>2022-08-01T11:17:28Z</time>
      </trkpt>
      <trkpt lat="45.82635" lon="1.4967">
        <ele>334.1</ele>
        <time>2022-08-01T11:17:30Z</time>
      </trkpt>
      <trkpt lat="45.82627" lon="1.49677">
        <ele>333.7</ele>
        <time>2022-08-01T11:17:32Z</time>
      </trkpt>
      <trkpt lat="45.82618" lon="1.49685">
        <ele>333.2</ele>
        <time>2022-08-01T11:17:34Z</time>
      </trkpt>
      <trkpt lat="45.8261" lon="1.49693">
        <ele>332.8</ele>
        <time>2022-08-01T11:17:36Z</time>
      </trkpt>
      <trkpt lat="45.826" lon="1.49702">
        <ele>332.3</ele>
        <time>2022-08-01T11:17:38Z</time>
      </trkpt>
      <trkpt lat="45.8259" lon="1.49712">
        <ele>331.9</ele>
        <time>2022-08-01T11:17:40Z</time>
      </trkpt>
      <trkpt lat="45.82579" lon="1.49722">
        <ele>331.3</ele>
        <time>2022-08-01T11:17:42Z</time>
      </trkpt>
      <trkpt lat="45.82568" lon="1.49733">
        <ele>330.6</ele>
        <time>2022-08-01T11:17:44Z</time>
      </trkpt>
      <trkpt lat="45.82557" lon="1.49742">
        <ele>329.8</ele>
        <time>2022-08-01T11:17:46Z</time>
      </trkpt>
      <trkpt lat="45.82547" lon="1.49752">
        <ele>328.9</ele>
        <time>2022-08-01T11:17:48Z</time>
      </trkpt>
      <trkpt lat="45.82538" lon="1.49761">
        <ele>327.9</ele>
        <time>2022-08-01T11:17:50Z</time>
      </trkpt>
      <trkpt lat="45.82526" lon="1.49772">
        <ele>326.5</ele>
        <time>2022-08-01T11:17:52Z</time>
      </trkpt>
      <trkpt lat="45.82514" lon="1.49784">
        <ele>325.1</ele>
        <time>2022-08-01T11:17:54Z</time>
      </trkpt>
      <trkpt lat="45.82504" lon="1.49798">
        <ele>323.6</ele>
        <time>2022-08-01T11:17:56Z</time>
      </trkpt>
      <trkpt lat="45.82496" lon="1.49819">
        <ele>322.2</ele>
        <time>2022-08-01T11:17:58Z</time>
      </trkpt>
      <trkpt lat="45.82489" lon="1.49843">
        <ele>320.5</ele>
        <time>2022-08-01T11:18:00Z</time>
      </trkpt>
      <trkpt lat="45.82482" lon="1.49866">
        <ele>318.9</ele>
        <time>2022-08-01T11:18:02Z</time>
      </trkpt>
      <trkpt lat="45.82475" lon="1.4989">
        <ele>317.3</ele>
        <time>2022-08-01T11:18:04Z</time>
      </trkpt>
      <trkpt lat="45.82467" lon="1.49914">
        <ele>315.7</ele>
        <time>2022-08-01T11:18:06Z</time>
      </trkpt>
      <trkpt lat="45.82454" lon="1.49937">
        <ele>314.7</ele>
        <time>2022-08-01T11:18:08Z</time>
      </trkpt>
      <trkpt lat="45.82439" lon="1.49957">
        <ele>313.8</ele>
        <time>2022-08-01T11:18:10Z</time>
      </trkpt>
      <trkpt lat="45.82422" lon="1.49973">
        <ele>312.9</ele>
        <time>2022-08-01T11:18:12Z</time>
      </trkpt>
      <trkpt lat="45.82405" lon="1.49988">
        <ele>313.1</ele>
        <time>2022-08-01T11:18:14Z</time>
      </trkpt>
      <trkpt lat="45.82389" lon="1.50003">
        <ele>313.8</ele>
        <time>2022-08-01T11:18:16Z</time>
      </trkpt>
      <trkpt lat="45.82375" lon="1.50015">
        <ele>314.7</ele>
        <time>2022-08-01T11:18:18Z</time>
      </trkpt>
      <trkpt lat="45.82361" lon="1.50028">
        <ele>315.6</ele>
        <time>2022-08-01T11:18:20Z</time>
      </trkpt>
      <trkpt lat="45.82349" lon="1.50039">
        <ele>316.2</ele>
        <time>2022-08-01T11:18:22Z</time>
      </trkpt>
      <trkpt lat="45.82338" lon="1.50049">
        <ele>316.7</ele>
        <time>2022-08-01T11:18:24Z</time>
      </trkpt>
      <trkpt lat="45.82329" lon="1.50058">
        <ele>317.3</ele>
        <time>2022-08-01T11:18:26Z</time>
      </trkpt>
      <trkpt lat="45.8232" lon="1.50065">
        <ele>318</ele>
        <time>2022-08-01T11:18:28Z</time>
      </trkpt>
      <trkpt lat="45.82313" lon="1.50072">
        <ele>318.6</ele>
        <time>2022-08-01T11:18:30Z</time>
      </trkpt>
      <trkpt lat="45.82306" lon="1.50079">
        <ele>319.1</ele>
        <time>2022-08-01T11:18:32Z</time>
      </trkpt>
      <trkpt lat="45.823" lon="1.50084">
        <ele>319.7</ele>
        <time>2022-08-01T11:18:34Z</time>
      </trkpt>
      <trkpt lat="45.82294" lon="1.5009">
        <ele>320.3</ele>
        <time>2022-08-01T11:18:36Z</time>
      </trkpt>
      <trkpt lat="45.82288" lon="1.50096">
        <ele>320.9</ele>
        <time>2022-08-01T11:18:38Z</time>
      </trkpt>
      <trkpt lat="45.82282" lon="1.50102">
        <ele>321.6</ele>
        <time>2022-08-01T11:18:40Z</time>
      </trkpt>
      <trkpt lat="45.82277" lon="1.50107">
        <ele>322.1</ele>
        <time>2022-08-01T11:18:42Z</time>
      </trkpt>
      <trkpt lat="45.82273" lon="1.50111">
        <ele>322.6</ele>
        <time>2022-08-01T11:18:44Z</time>
      </trkpt>
      <trkpt lat="45.82266" lon="1.50116">
        <ele>323.2</ele>
        <time>2022-08-01T11:18:47Z</time>
      </trkpt>
      <trkpt lat="45.82262" lon="1.50121">
        <ele>323.7</ele>
        <time>2022-08-01T11:18:49Z</time>
      </trkpt>
      <trkpt lat="45.82258" lon="1.50125">
        <ele>324.1</ele>
        <time>2022-08-01T11:18:51Z</time>
      </trkpt>
      <trkpt lat="45.82254" lon="1.50129">
        <ele>324.5</ele>
        <time>2022-08-01T11:18:53Z</time>
      </trkpt>
      <trkpt lat="45.82249" lon="1.50132">
        <ele>324.9</ele>
        <time>2022-08-01T11:18:55Z</time>
      </trkpt>
      <trkpt lat="45.82245" lon="1.50136">
        <ele>325.2</ele>
        <time>2022-08-01T11:18:57Z</time>
      </trkpt>
      <trkpt lat="45.82241" lon="1.5014">
        <ele>325.4</ele>
        <time>2022-08-01T11:18:59Z</time>
      </trkpt>
      <trkpt lat="45.82236" lon="1.50144">
        <ele>325.6</ele>
        <time>2022-08-01T11:19:01Z</time>
      </trkpt>
      <trkpt lat="45.82232" lon="1.50148">
        <ele>325.8</ele>
        <time>2022-08-01T11:19:03Z</time>
      </trkpt>
      <trkpt lat="45.82229" lon="1.50151">
        <ele>326</ele>
        <time>2022-08-01T11:19:05Z</time>
      </trkpt>
      <trkpt lat="45.82225" lon="1.50155">
        <ele>326.1</ele>
        <time>2022-08-01T11:19:07Z</time>
      </trkpt>
      <trkpt lat="45.82222" lon="1.50158">
        <ele>326.3</ele>
        <time>2022-08-01T11:19:09Z</time>
      </trkpt>
      <trkpt lat="45.82219" lon="1.50161">
        <ele>326.4</ele>
        <time>2022-08-01T11:19:11Z</time>
      </trkpt>
      <trkpt lat="45.82215" lon="1.50164">
        <ele>326.5</ele>
        <time>2022-08-01T11:19:13Z</time>
      </trkpt>
      <trkpt lat="45.82212" lon="1.50167">
        <ele>326.6</ele>
        <time>2022-08-01T11:19:15Z</time>
      </trkpt>
      <trkpt lat="45.82208" lon="1.50171">
        <ele>326.7</ele>
        <time>2022-08-01T11:19:17Z</time>
      </trkpt>
      <trkpt lat="45.82204" lon="1.50174">
        <ele>326.8</ele>
        <time>2022-08-01T11:19:19Z</time>
      </trkpt>
      <trkpt lat="45.822" lon="1.50178">
        <ele>326.9</ele>
        <time>2022-08-01T11:19:21Z</time>
      </trkpt>
      <trkpt lat="45.82197" lon="1.50182">
        <ele>327</ele>
        <time>2022-08-01T11:19:23Z</time>
      </trkpt>
      <trkpt lat="45.82192" lon="1.50185">
        <ele>327</ele>
        <time>2022-08-01T11:19:25Z</time>
      </trkpt>
      <trkpt lat="45.82188" lon="1.5019">
        <ele>327.2</ele>
        <time>2022-08-01T11:19:27Z</time>
      </trkpt>
      <trkpt lat="45.82183" lon="1.50194">
        <ele>327.3</ele>
        <time>2022-08-01T11:19:29Z</time>
      </trkpt>
      <trkpt lat="45.82178" lon="1.50199">
        <ele>327.3</ele>
        <time>2022-08-01T11:19:31Z</time>
      </trkpt>
      <trkpt lat="45.82172" lon="1.50205">
        <ele>327.5</ele>
        <time>2022-08-01T11:19:33Z</time>
      </trkpt>
      <trkpt lat="45.82166" lon="1.5021">
        <ele>327.5</ele>
        <time>2022-08-01T11:19:35Z</time>
      </trkpt>
      <trkpt lat="45.82161" lon="1.50217">
        <ele>327.6</ele>
        <time>2022-08-01T11:19:37Z</time>
      </trkpt>
      <trkpt lat="45.82157" lon="1.50219">
        <ele>327.5</ele>
        <time>2022-08-01T11:19:38Z</time>
      </trkpt>
      <trkpt lat="45.8215" lon="1.50223">
        <ele>327.4</ele>
        <time>2022-08-01T11:19:40Z</time>
      </trkpt>
      <trkpt lat="45.82143" lon="1.50229">
        <ele>327.3</ele>
        <time>2022-08-01T11:19:42Z</time>
      </trkpt>
      <trkpt lat="45.82136" lon="1.50235">
        <ele>327.3</ele>
        <time>2022-08-01T11:19:44Z</time>
      </trkpt>
      <trkpt lat="45.82127" lon="1.50239">
        <ele>327.1</ele>
        <time>2022-08-01T11:19:46Z</time>
      </trkpt>
      <trkpt lat="45.82119" lon="1.50242">
        <ele>327</ele>
        <time>2022-08-01T11:19:48Z</time>
      </trkpt>
      <trkpt lat="45.82112" lon="1.50244">
        <ele>326.8</ele>
        <time>2022-08-01T11:19:50Z</time>
      </trkpt>
      <trkpt lat="45.82104" lon="1.50245">
        <ele>326.6</ele>
        <time>2022-08-01T11:19:52Z</time>
      </trkpt>
      <trkpt lat="45.82097" lon="1.50246">
        <ele>326.3</ele>
        <time>2022-08-01T11:19:54Z</time>
      </trkpt>
      <trkpt lat="45.82087" lon="1.50248">
        <ele>326</ele>
        <time>2022-08-01T11:19:57Z</time>
      </trkpt>
      <trkpt lat="45.8208" lon="1.50249">
        <ele>326.1</ele>
        <time>2022-08-01T11:19:59Z</time>
      </trkpt>
      <trkpt lat="45.82074" lon="1.5025">
        <ele>326.5</ele>
        <time>2022-08-01T11:20:01Z</time>
      </trkpt>
      <trkpt lat="45.82067" lon="1.50251">
        <ele>326.8</ele>
        <time>2022-08-01T11:20:03Z</time>
      </trkpt>
      <trkpt lat="45.82061" lon="1.50252">
        <ele>327.2</ele>
        <time>2022-08-01T11:20:05Z</time>
      </trkpt>
      <trkpt lat="45.82055" lon="1.50254">
        <ele>327.6</ele>
        <time>2022-08-01T11:20:07Z</time>
      </trkpt>
      <trkpt lat="45.82049" lon="1.50255">
        <ele>328</ele>
        <time>2022-08-01T11:20:09Z</time>
      </trkpt>
      <trkpt lat="45.82044" lon="1.50256">
        <ele>328.3</ele>
        <time>2022-08-01T11:20:11Z</time>
      </trkpt>
      <trkpt lat="45.82038" lon="1.50257">
        <ele>328.6</ele>
        <time>2022-08-01T11:20:13Z</time>
      </trkpt>
      <trkpt lat="45.82033" lon="1.50258">
        <ele>328.9</ele>
        <time>2022-08-01T11:20:15Z</time>
      </trkpt>
      <trkpt lat="45.82028" lon="1.5026">
        <ele>329.3</ele>
        <time>2022-08-01T11:20:17Z</time>
      </trkpt>
      <trkpt lat="45.82023" lon="1.50262">
        <ele>329.6</ele>
        <time>2022-08-01T11:20:19Z</time>
      </trkpt>
      <trkpt lat="45.82018" lon="1.50263">
        <ele>329.9</ele>
        <time>2022-08-01T11:20:21Z</time>
      </trkpt>
      <trkpt lat="45.82012" lon="1.50265">
        <ele>330.2</ele>
        <time>2022-08-01T11:20:23Z</time>
      </trkpt>
      <trkpt lat="45.82007" lon="1.50266">
        <ele>330.5</ele>
        <time>2022-08-01T11:20:25Z</time>
      </trkpt>
      <trkpt lat="45.82002" lon="1.50268">
        <ele>330.8</ele>
        <time>2022-08-01T11:20:27Z</time>
      </trkpt>
      <trkpt lat="45.81997" lon="1.50271">
        <ele>330.8</ele>
        <time>2022-08-01T11:20:29Z</time>
      </trkpt>
      <trkpt lat="45.81992" lon="1.50274">
        <ele>330.6</ele>
        <time>2022-08-01T11:20:31Z</time>
      </trkpt>
      <trkpt lat="45.81986" lon="1.50278">
        <ele>330.5</ele>
        <time>2022-08-01T11:20:33Z</time>
      </trkpt>
      <trkpt lat="45.81981" lon="1.50282">
        <ele>330.4</ele>
        <time>2022-08-01T11:20:35Z</time>
      </trkpt>
      <trkpt lat="45.81976" lon="1.50288">
        <ele>330.4</ele>
        <time>2022-08-01T11:20:37Z</time>
      </trkpt>
      <trkpt lat="45.81971" lon="1.50294">
        <ele>330.4</ele>
        <time>2022-08-01T11:20:39Z</time>
      </trkpt>
      <trkpt lat="45.81967" lon="1.50299">
        <ele>330.4</ele>
        <time>2022-08-01T11:20:41Z</time>
      </trkpt>
      <trkpt lat="45.81962" lon="1.50306">
        <ele>330.4</ele>
        <time>2022-08-01T11:20:43Z</time>
      </trkpt>
      <trkpt lat="45.81957" lon="1.50314">
        <ele>330.5</ele>
        <time>2022-08-01T11:20:45Z</time>
      </trkpt>
      <trkpt lat="45.81951" lon="1.50323">
        <ele>330.6</ele>
        <time>2022-08-01T11:20:47Z</time>
      </trkpt>
      <trkpt lat="45.81945" lon="1.50333">
        <ele>330.7</ele>
        <time>2022-08-01T11:20:49Z</time>
      </trkpt>
      <trkpt lat="45.81938" lon="1.50344">
        <ele>330.3</ele>
        <time>2022-08-01T11:20:51Z</time>
      </trkpt>
      <trkpt lat="45.81931" lon="1.50355">
        <ele>329.8</ele>
        <time>2022-08-01T11:20:53Z</time>
      </trkpt>
      <trkpt lat="45.81923" lon="1.50366">
        <ele>329.4</ele>
        <time>2022-08-01T11:20:55Z</time>
      </trkpt>
      <trkpt lat="45.81913" lon="1.50378">
        <ele>328.8</ele>
        <time>2022-08-01T11:20:57Z</time>
      </trkpt>
      <trkpt lat="45.81902" lon="1.50389">
        <ele>328.3</ele>
        <time>2022-08-01T11:20:59Z</time>
      </trkpt>
      <trkpt lat="45.81889" lon="1.50397">
        <ele>327.7</ele>
        <time>2022-08-01T11:21:01Z</time>
      </trkpt>
      <trkpt lat="45.81874" lon="1.50406">
        <ele>327.3</ele>
        <time>2022-08-01T11:21:03Z</time>
      </trkpt>
      <trkpt lat="45.81857" lon="1.50416">
        <ele>326.8</ele>
        <time>2022-08-01T11:21:05Z</time>
      </trkpt>
      <trkpt lat="45.8184" lon="1.50425">
        <ele>326</ele>
        <time>2022-08-01T11:21:07Z</time>
      </trkpt>
      <trkpt lat="45.81822" lon="1.5043">
        <ele>323.9</ele>
        <time>2022-08-01T11:21:09Z</time>
      </trkpt>
      <trkpt lat="45.81802" lon="1.50429">
        <ele>321.3</ele>
        <time>2022-08-01T11:21:11Z</time>
      </trkpt>
      <trkpt lat="45.81782" lon="1.50429">
        <ele>318.5</ele>
        <time>2022-08-01T11:21:13Z</time>
      </trkpt>
      <trkpt lat="45.81762" lon="1.50426">
        <ele>315.9</ele>
        <time>2022-08-01T11:21:15Z</time>
      </trkpt>
      <trkpt lat="45.81741" lon="1.50422">
        <ele>313.6</ele>
        <time>2022-08-01T11:21:17Z</time>
      </trkpt>
      <trkpt lat="45.81721" lon="1.50416">
        <ele>311.9</ele>
        <time>2022-08-01T11:21:19Z</time>
      </trkpt>
      <trkpt lat="45.81702" lon="1.50414">
        <ele>310</ele>
        <time>2022-08-01T11:21:21Z</time>
      </trkpt>
      <trkpt lat="45.81683" lon="1.50421">
        <ele>307.5</ele>
        <time>2022-08-01T11:21:23Z</time>
      </trkpt>
      <trkpt lat="45.81667" lon="1.50436">
        <ele>304.9</ele>
        <time>2022-08-01T11:21:25Z</time>
      </trkpt>
      <trkpt lat="45.81651" lon="1.50453">
        <ele>302.9</ele>
        <time>2022-08-01T11:21:27Z</time>
      </trkpt>
      <trkpt lat="45.81635" lon="1.50461">
        <ele>301.4</ele>
        <time>2022-08-01T11:21:29Z</time>
      </trkpt>
      <trkpt lat="45.81618" lon="1.50459">
        <ele>300.5</ele>
        <time>2022-08-01T11:21:31Z</time>
      </trkpt>
      <trkpt lat="45.81602" lon="1.50449">
        <ele>300.3</ele>
        <time>2022-08-01T11:21:33Z</time>
      </trkpt>
      <trkpt lat="45.81584" lon="1.50441">
        <ele>300</ele>
        <time>2022-08-01T11:21:35Z</time>
      </trkpt>
      <trkpt lat="45.81565" lon="1.50434">
        <ele>298.6</ele>
        <time>2022-08-01T11:21:37Z</time>
      </trkpt>
      <trkpt lat="45.81545" lon="1.50423">
        <ele>296.8</ele>
        <time>2022-08-01T11:21:39Z</time>
      </trkpt>
      <trkpt lat="45.81527" lon="1.50408">
        <ele>295.3</ele>
        <time>2022-08-01T11:21:41Z</time>
      </trkpt>
      <trkpt lat="45.8151" lon="1.50396">
        <ele>294.1</ele>
        <time>2022-08-01T11:21:43Z</time>
      </trkpt>
      <trkpt lat="45.81495" lon="1.50385">
        <ele>292.6</ele>
        <time>2022-08-01T11:21:45Z</time>
      </trkpt>
      <trkpt lat="45.81479" lon="1.50378">
        <ele>289.7</ele>
        <time>2022-08-01T11:21:47Z</time>
      </trkpt>
      <trkpt lat="45.81465" lon="1.50375">
        <ele>287</ele>
        <time>2022-08-01T11:21:49Z</time>
      </trkpt>
      <trkpt lat="45.81453" lon="1.50372">
        <ele>284.4</ele>
        <time>2022-08-01T11:21:51Z</time>
      </trkpt>
      <trkpt lat="45.81441" lon="1.50375">
        <ele>281.7</ele>
        <time>2022-08-01T11:21:53Z</time>
      </trkpt>
      <trkpt lat="45.81431" lon="1.50378">
        <ele>279.6</ele>
        <time>2022-08-01T11:21:55Z</time>
      </trkpt>
      <trkpt lat="45.81422" lon="1.50378">
        <ele>277.6</ele>
        <time>2022-08-01T11:21:57Z</time>
      </trkpt>
      <trkpt lat="45.81416" lon="1.5038">
        <ele>276.3</ele>
        <time>2022-08-01T11:21:59Z</time>
      </trkpt>
      <trkpt lat="45.81413" lon="1.5038">
        <ele>275.9</ele>
        <time>2022-08-01T11:22:01Z</time>
      </trkpt>
      <trkpt lat="45.81407" lon="1.50382">
        <ele>275.1</ele>
        <time>2022-08-01T11:22:03Z</time>
      </trkpt>
      <trkpt lat="45.81402" lon="1.50389">
        <ele>274.3</ele>
        <time>2022-08-01T11:22:05Z</time>
      </trkpt>
      <trkpt lat="45.81403" lon="1.50397">
        <ele>274.2</ele>
        <time>2022-08-01T11:22:07Z</time>
      </trkpt>
      <trkpt lat="45.81404" lon="1.50404">
        <ele>274.2</ele>
        <time>2022-08-01T11:22:09Z</time>
      </trkpt>
      <trkpt lat="45.81404" lon="1.50413">
        <ele>273.8</ele>
        <time>2022-08-01T11:22:11Z</time>
      </trkpt>
      <trkpt lat="45.81401" lon="1.50421">
        <ele>273.7</ele>
        <time>2022-08-01T11:22:13Z</time>
      </trkpt>
      <trkpt lat="45.81397" lon="1.50425">
        <ele>273.4</ele>
        <time>2022-08-01T11:22:15Z</time>
      </trkpt>
      <trkpt lat="45.81392" lon="1.50428">
        <ele>273</ele>
        <time>2022-08-01T11:22:17Z</time>
      </trkpt>
      <trkpt lat="45.81385" lon="1.50431">
        <ele>272.4</ele>
        <time>2022-08-01T11:22:19Z</time>
      </trkpt>
      <trkpt lat="45.81378" lon="1.50435">
        <ele>271.6</ele>
        <time>2022-08-01T11:22:21Z</time>
      </trkpt>
      <trkpt lat="45.8137" lon="1.5044">
        <ele>270.9</ele>
        <time>2022-08-01T11:22:23Z</time>
      </trkpt>
      <trkpt lat="45.81362" lon="1.50447">
        <ele>270.1</ele>
        <time>2022-08-01T11:22:25Z</time>
      </trkpt>
      <trkpt lat="45.81354" lon="1.50454">
        <ele>269</ele>
        <time>2022-08-01T11:22:27Z</time>
      </trkpt>
      <trkpt lat="45.81344" lon="1.50461">
        <ele>267.8</ele>
        <time>2022-08-01T11:22:29Z</time>
      </trkpt>
      <trkpt lat="45.81335" lon="1.50469">
        <ele>266.6</ele>
        <time>2022-08-01T11:22:31Z</time>
      </trkpt>
      <trkpt lat="45.81331" lon="1.50474">
        <ele>266.4</ele>
        <time>2022-08-01T11:22:33Z</time>
      </trkpt>
      <trkpt lat="45.81327" lon="1.50476">
        <ele>266.6</ele>
        <time>2022-08-01T11:22:35Z</time>
      </trkpt>
      <trkpt lat="45.81323" lon="1.50481">
        <ele>266.7</ele>
        <time>2022-08-01T11:22:37Z</time>
      </trkpt>
      <trkpt lat="45.81318" lon="1.50486">
        <ele>266.8</ele>
        <time>2022-08-01T11:22:39Z</time>
      </trkpt>
      <trkpt lat="45.81314" lon="1.50491">
        <ele>266.9</ele>
        <time>2022-08-01T11:22:41Z</time>
      </trkpt>
      <trkpt lat="45.8131" lon="1.50496">
        <ele>266.9</ele>
        <time>2022-08-01T11:22:43Z</time>
      </trkpt>
      <trkpt lat="45.81307" lon="1.50499">
        <ele>267</ele>
        <time>2022-08-01T11:22:45Z</time>
      </trkpt>
      <trkpt lat="45.81303" lon="1.50503">
        <ele>267</ele>
        <time>2022-08-01T11:22:47Z</time>
      </trkpt>
      <trkpt lat="45.81298" lon="1.50508">
        <ele>267</ele>
        <time>2022-08-01T11:22:49Z</time>
      </trkpt>
      <trkpt lat="45.81294" lon="1.50512">
        <ele>267.1</ele>
        <time>2022-08-01T11:22:51Z</time>
      </trkpt>
      <trkpt lat="45.81288" lon="1.50515">
        <ele>267.2</ele>
        <time>2022-08-01T11:22:53Z</time>
      </trkpt>
      <trkpt lat="45.81284" lon="1.50519">
        <ele>267.1</ele>
        <time>2022-08-01T11:22:55Z</time>
      </trkpt>
      <trkpt lat="45.81283" lon="1.50524">
        <ele>267</ele>
        <time>2022-08-01T11:22:57Z</time>
      </trkpt>
      <trkpt lat="45.81283" lon="1.50529">
        <ele>266.8</ele>
        <time>2022-08-01T11:22:59Z</time>
      </trkpt>
      <trkpt lat="45.81283" lon="1.50534">
        <ele>266.7</ele>
        <time>2022-08-01T11:23:01Z</time>
      </trkpt>
      <trkpt lat="45.81284" lon="1.50536">
        <ele>266.6</ele>
        <time>2022-08-01T11:23:03Z</time>
      </trkpt>
      <trkpt lat="45.81283" lon="1.50535">
        <ele>266.6</ele>
        <time>2022-08-01T11:23:05Z</time>
      </trkpt>
      <trkpt lat="45.81283" lon="1.50535">
        <ele>266.6</ele>
        <time>2022-08-01T11:23:07Z</time>
      </trkpt>
      <trkpt lat="45.81284" lon="1.50535">
        <ele>266.6</ele>
        <time>2022-08-01T11:23:09Z</time>
      </trkpt>
      <trkpt lat="45.81283" lon="1.50536">
        <ele>266.6</ele>
        <time>2022-08-01T11:23:11Z</time>
      </trkpt>
      <trkpt lat="45.81297" lon="1.50537">
        <ele>266.3</ele>
        <time>2022-08-01T14:14:29Z</time>
      </trkpt>
      <trkpt lat="45.81287" lon="1.50512">
        <ele>267.3</ele>
        <time>2022-08-01T14:18:45Z</time>
      </trkpt>
      <trkpt lat="45.81291" lon="1.50509">
        <ele>267.2</ele>
        <time>2022-08-01T14:18:47Z</time>
      </trkpt>
      <trkpt lat="45.81295" lon="1.50507">
        <ele>267.2</ele>
        <time>2022-08-01T14:18:49Z</time>
      </trkpt>
      <trkpt lat="45.81298" lon="1.50505">
        <ele>267.1</ele>
        <time>2022-08-01T14:18:51Z</time>
      </trkpt>
      <trkpt lat="45.81301" lon="1.50503">
        <ele>267.1</ele>
        <time>2022-08-01T14:18:53Z</time>
      </trkpt>
      <trkpt lat="45.81303" lon="1.50499">
        <ele>267.1</ele>
        <time>2022-08-01T14:18:55Z</time>
      </trkpt>
      <trkpt lat="45.81304" lon="1.50496">
        <ele>267.1</ele>
        <time>2022-08-01T14:18:57Z</time>
      </trkpt>
      <trkpt lat="45.81307" lon="1.50496">
        <ele>267</ele>
        <time>2022-08-01T14:18:59Z</time>
      </trkpt>
      <trkpt lat="45.81309" lon="1.50494">
        <ele>267</ele>
        <time>2022-08-01T14:19:01Z</time>
      </trkpt>
      <trkpt lat="45.8131" lon="1.50492">
        <ele>267</ele>
        <time>2022-08-01T14:19:03Z</time>
      </trkpt>
      <trkpt lat="45.81312" lon="1.5049">
        <ele>267</ele>
        <time>2022-08-01T14:19:05Z</time>
      </trkpt>
      <trkpt lat="45.81314" lon="1.50488">
        <ele>266.9</ele>
        <time>2022-08-01T14:19:07Z</time>
      </trkpt>
      <trkpt lat="45.81317" lon="1.50485">
        <ele>266.9</ele>
        <time>2022-08-01T14:19:09Z</time>
      </trkpt>
      <trkpt lat="45.81319" lon="1.50483">
        <ele>266.8</ele>
        <time>2022-08-01T14:19:11Z</time>
      </trkpt>
      <trkpt lat="45.81321" lon="1.50481">
        <ele>266.8</ele>
        <time>2022-08-01T14:19:13Z</time>
      </trkpt>
      <trkpt lat="45.81323" lon="1.50478">
        <ele>266.7</ele>
        <time>2022-08-01T14:19:15Z</time>
      </trkpt>
      <trkpt lat="45.81326" lon="1.50476">
        <ele>266.6</ele>
        <time>2022-08-01T14:19:17Z</time>
      </trkpt>
      <trkpt lat="45.81329" lon="1.50473">
        <ele>266.5</ele>
        <time>2022-08-01T14:19:19Z</time>
      </trkpt>
      <trkpt lat="45.81333" lon="1.5047">
        <ele>266.4</ele>
        <time>2022-08-01T14:19:21Z</time>
      </trkpt>
      <trkpt lat="45.81335" lon="1.50467">
        <ele>266.7</ele>
        <time>2022-08-01T14:19:23Z</time>
      </trkpt>
      <trkpt lat="45.81339" lon="1.50465">
        <ele>267.2</ele>
        <time>2022-08-01T14:19:25Z</time>
      </trkpt>
      <trkpt lat="45.81342" lon="1.50462">
        <ele>267.6</ele>
        <time>2022-08-01T14:19:27Z</time>
      </trkpt>
      <trkpt lat="45.81346" lon="1.50459">
        <ele>268</ele>
        <time>2022-08-01T14:19:29Z</time>
      </trkpt>
      <trkpt lat="45.81349" lon="1.50457">
        <ele>268.5</ele>
        <time>2022-08-01T14:19:31Z</time>
      </trkpt>
      <trkpt lat="45.81352" lon="1.50454">
        <ele>268.9</ele>
        <time>2022-08-01T14:19:33Z</time>
      </trkpt>
      <trkpt lat="45.81356" lon="1.50452">
        <ele>269.3</ele>
        <time>2022-08-01T14:19:35Z</time>
      </trkpt>
      <trkpt lat="45.81359" lon="1.50449">
        <ele>269.6</ele>
        <time>2022-08-01T14:19:37Z</time>
      </trkpt>
      <trkpt lat="45.81361" lon="1.50446">
        <ele>269.9</ele>
        <time>2022-08-01T14:19:39Z</time>
      </trkpt>
      <trkpt lat="45.81364" lon="1.50444">
        <ele>270.2</ele>
        <time>2022-08-01T14:19:41Z</time>
      </trkpt>
      <trkpt lat="45.81366" lon="1.50442">
        <ele>270.5</ele>
        <time>2022-08-01T14:19:43Z</time>
      </trkpt>
      <trkpt lat="45.81369" lon="1.5044">
        <ele>270.8</ele>
        <time>2022-08-01T14:19:45Z</time>
      </trkpt>
      <trkpt lat="45.81372" lon="1.50439">
        <ele>271</ele>
        <time>2022-08-01T14:19:47Z</time>
      </trkpt>
      <trkpt lat="45.81375" lon="1.50437">
        <ele>271.3</ele>
        <time>2022-08-01T14:19:49Z</time>
      </trkpt>
      <trkpt lat="45.81378" lon="1.50435">
        <ele>271.6</ele>
        <time>2022-08-01T14:19:51Z</time>
      </trkpt>
      <trkpt lat="45.81381" lon="1.50433">
        <ele>271.9</ele>
        <time>2022-08-01T14:19:53Z</time>
      </trkpt>
      <trkpt lat="45.81384" lon="1.50431">
        <ele>272.2</ele>
        <time>2022-08-01T14:19:55Z</time>
      </trkpt>
      <trkpt lat="45.81386" lon="1.50429">
        <ele>272.4</ele>
        <time>2022-08-01T14:19:57Z</time>
      </trkpt>
      <trkpt lat="45.81388" lon="1.5043">
        <ele>272.6</ele>
        <time>2022-08-01T14:19:59Z</time>
      </trkpt>
      <trkpt lat="45.81388" lon="1.5043">
        <ele>272.6</ele>
        <time>2022-08-01T14:20:01Z</time>
      </trkpt>
      <trkpt lat="45.81389" lon="1.5043">
        <ele>272.7</ele>
        <time>2022-08-01T14:20:03Z</time>
      </trkpt>
      <trkpt lat="45.81391" lon="1.50428">
        <ele>272.9</ele>
        <time>2022-08-01T14:20:05Z</time>
      </trkpt>
      <trkpt lat="45.81393" lon="1.50426">
        <ele>273</ele>
        <time>2022-08-01T14:20:07Z</time>
      </trkpt>
      <trkpt lat="45.81394" lon="1.50424">
        <ele>273.1</ele>
        <time>2022-08-01T14:20:09Z</time>
      </trkpt>
      <trkpt lat="45.81397" lon="1.50422">
        <ele>273.3</ele>
        <time>2022-08-01T14:20:11Z</time>
      </trkpt>
      <trkpt lat="45.81399" lon="1.50423">
        <ele>273.5</ele>
        <time>2022-08-01T14:20:13Z</time>
      </trkpt>
      <trkpt lat="45.81399" lon="1.50423">
        <ele>273.5</ele>
        <time>2022-08-01T14:20:15Z</time>
      </trkpt>
      <trkpt lat="45.81399" lon="1.50424">
        <ele>273.6</ele>
        <time>2022-08-01T14:20:17Z</time>
      </trkpt>
      <trkpt lat="45.81399" lon="1.50424">
        <ele>273.6</ele>
        <time>2022-08-01T14:20:19Z</time>
      </trkpt>
      <trkpt lat="45.81405" lon="1.50439">
        <ele>274.8</ele>
        <time>2022-08-01T14:20:31Z</time>
      </trkpt>
      <trkpt lat="45.81405" lon="1.50449">
        <ele>275.2</ele>
        <time>2022-08-01T14:20:33Z</time>
      </trkpt>
      <trkpt lat="45.81405" lon="1.50461">
        <ele>275.7</ele>
        <time>2022-08-01T14:20:35Z</time>
      </trkpt>
      <trkpt lat="45.81406" lon="1.50475">
        <ele>276.3</ele>
        <time>2022-08-01T14:20:37Z</time>
      </trkpt>
      <trkpt lat="45.81406" lon="1.50493">
        <ele>277</ele>
        <time>2022-08-01T14:20:39Z</time>
      </trkpt>
      <trkpt lat="45.81405" lon="1.50511">
        <ele>277.6</ele>
        <time>2022-08-01T14:20:41Z</time>
      </trkpt>
      <trkpt lat="45.81404" lon="1.50532">
        <ele>278.2</ele>
        <time>2022-08-01T14:20:43Z</time>
      </trkpt>
      <trkpt lat="45.81402" lon="1.50553">
        <ele>278.6</ele>
        <time>2022-08-01T14:20:45Z</time>
      </trkpt>
      <trkpt lat="45.814" lon="1.50574">
        <ele>279</ele>
        <time>2022-08-01T14:20:47Z</time>
      </trkpt>
      <trkpt lat="45.81396" lon="1.50596">
        <ele>279.1</ele>
        <time>2022-08-01T14:20:49Z</time>
      </trkpt>
      <trkpt lat="45.81393" lon="1.50616">
        <ele>279.1</ele>
        <time>2022-08-01T14:20:51Z</time>
      </trkpt>
      <trkpt lat="45.8139" lon="1.50636">
        <ele>279</ele>
        <time>2022-08-01T14:20:53Z</time>
      </trkpt>
      <trkpt lat="45.81387" lon="1.50655">
        <ele>278.8</ele>
        <time>2022-08-01T14:20:55Z</time>
      </trkpt>
      <trkpt lat="45.81383" lon="1.50673">
        <ele>278.5</ele>
        <time>2022-08-01T14:20:57Z</time>
      </trkpt>
      <trkpt lat="45.8138" lon="1.5069">
        <ele>278.6</ele>
        <time>2022-08-01T14:20:59Z</time>
      </trkpt>
      <trkpt lat="45.81377" lon="1.50706">
        <ele>278.5</ele>
        <time>2022-08-01T14:21:01Z</time>
      </trkpt>
      <trkpt lat="45.81374" lon="1.50722">
        <ele>278.4</ele>
        <time>2022-08-01T14:21:03Z</time>
      </trkpt>
      <trkpt lat="45.81372" lon="1.50737">
        <ele>278.6</ele>
        <time>2022-08-01T14:21:05Z</time>
      </trkpt>
      <trkpt lat="45.8137" lon="1.5075">
        <ele>278.5</ele>
        <time>2022-08-01T14:21:07Z</time>
      </trkpt>
      <trkpt lat="45.81367" lon="1.50762">
        <ele>278.6</ele>
        <time>2022-08-01T14:21:09Z</time>
      </trkpt>
      <trkpt lat="45.81365" lon="1.50776">
        <ele>279</ele>
        <time>2022-08-01T14:21:11Z</time>
      </trkpt>
      <trkpt lat="45.81363" lon="1.50788">
        <ele>279.3</ele>
        <time>2022-08-01T14:21:13Z</time>
      </trkpt>
      <trkpt lat="45.81361" lon="1.508">
        <ele>279.7</ele>
        <time>2022-08-01T14:21:15Z</time>
      </trkpt>
      <trkpt lat="45.81359" lon="1.50812">
        <ele>279.7</ele>
        <time>2022-08-01T14:21:17Z</time>
      </trkpt>
      <trkpt lat="45.81357" lon="1.50824">
        <ele>280</ele>
        <time>2022-08-01T14:21:19Z</time>
      </trkpt>
      <trkpt lat="45.81355" lon="1.50836">
        <ele>280.3</ele>
        <time>2022-08-01T14:21:21Z</time>
      </trkpt>
      <trkpt lat="45.81354" lon="1.50846">
        <ele>280.9</ele>
        <time>2022-08-01T14:21:23Z</time>
      </trkpt>
      <trkpt lat="45.81352" lon="1.50856">
        <ele>281.3</ele>
        <time>2022-08-01T14:21:25Z</time>
      </trkpt>
      <trkpt lat="45.8135" lon="1.50865">
        <ele>281.5</ele>
        <time>2022-08-01T14:21:27Z</time>
      </trkpt>
      <trkpt lat="45.81348" lon="1.50873">
        <ele>281.7</ele>
        <time>2022-08-01T14:21:29Z</time>
      </trkpt>
      <trkpt lat="45.81346" lon="1.50881">
        <ele>281.9</ele>
        <time>2022-08-01T14:21:31Z</time>
      </trkpt>
      <trkpt lat="45.81345" lon="1.50888">
        <ele>282.2</ele>
        <time>2022-08-01T14:21:33Z</time>
      </trkpt>
      <trkpt lat="45.81343" lon="1.50895">
        <ele>282</ele>
        <time>2022-08-01T14:21:35Z</time>
      </trkpt>
      <trkpt lat="45.81341" lon="1.50902">
        <ele>282</ele>
        <time>2022-08-01T14:21:37Z</time>
      </trkpt>
      <trkpt lat="45.81338" lon="1.50909">
        <ele>281.8</ele>
        <time>2022-08-01T14:21:39Z</time>
      </trkpt>
      <trkpt lat="45.81335" lon="1.50917">
        <ele>281.6</ele>
        <time>2022-08-01T14:21:41Z</time>
      </trkpt>
      <trkpt lat="45.81333" lon="1.50924">
        <ele>281.9</ele>
        <time>2022-08-01T14:21:43Z</time>
      </trkpt>
      <trkpt lat="45.8133" lon="1.50931">
        <ele>282.4</ele>
        <time>2022-08-01T14:21:45Z</time>
      </trkpt>
      <trkpt lat="45.81328" lon="1.50937">
        <ele>282.8</ele>
        <time>2022-08-01T14:21:47Z</time>
      </trkpt>
      <trkpt lat="45.81325" lon="1.50943">
        <ele>283</ele>
        <time>2022-08-01T14:21:49Z</time>
      </trkpt>
      <trkpt lat="45.8132" lon="1.50951">
        <ele>283.2</ele>
        <time>2022-08-01T14:21:51Z</time>
      </trkpt>
      <trkpt lat="45.81316" lon="1.50958">
        <ele>283.2</ele>
        <time>2022-08-01T14:21:53Z</time>
      </trkpt>
      <trkpt lat="45.81311" lon="1.50965">
        <ele>283</ele>
        <time>2022-08-01T14:21:55Z</time>
      </trkpt>
      <trkpt lat="45.81306" lon="1.50972">
        <ele>282.9</ele>
        <time>2022-08-01T14:21:57Z</time>
      </trkpt>
      <trkpt lat="45.81301" lon="1.50979">
        <ele>282.6</ele>
        <time>2022-08-01T14:21:59Z</time>
      </trkpt>
      <trkpt lat="45.81297" lon="1.50987">
        <ele>282.5</ele>
        <time>2022-08-01T14:22:01Z</time>
      </trkpt>
      <trkpt lat="45.81293" lon="1.50995">
        <ele>282.2</ele>
        <time>2022-08-01T14:22:03Z</time>
      </trkpt>
      <trkpt lat="45.81288" lon="1.51002">
        <ele>281.9</ele>
        <time>2022-08-01T14:22:05Z</time>
      </trkpt>
      <trkpt lat="45.81284" lon="1.51009">
        <ele>281.7</ele>
        <time>2022-08-01T14:22:07Z</time>
      </trkpt>
      <trkpt lat="45.81281" lon="1.51015">
        <ele>281.4</ele>
        <time>2022-08-01T14:22:09Z</time>
      </trkpt>
      <trkpt lat="45.81276" lon="1.51023">
        <ele>281.1</ele>
        <time>2022-08-01T14:22:11Z</time>
      </trkpt>
      <trkpt lat="45.81272" lon="1.5103">
        <ele>280.8</ele>
        <time>2022-08-01T14:22:13Z</time>
      </trkpt>
      <trkpt lat="45.81268" lon="1.51039">
        <ele>280.9</ele>
        <time>2022-08-01T14:22:15Z</time>
      </trkpt>
      <trkpt lat="45.81264" lon="1.51045">
        <ele>280.6</ele>
        <time>2022-08-01T14:22:17Z</time>
      </trkpt>
      <trkpt lat="45.8126" lon="1.51053">
        <ele>280.4</ele>
        <time>2022-08-01T14:22:19Z</time>
      </trkpt>
      <trkpt lat="45.81255" lon="1.5106">
        <ele>280</ele>
        <time>2022-08-01T14:22:21Z</time>
      </trkpt>
      <trkpt lat="45.81251" lon="1.51069">
        <ele>279.7</ele>
        <time>2022-08-01T14:22:23Z</time>
      </trkpt>
      <trkpt lat="45.81246" lon="1.51077">
        <ele>280</ele>
        <time>2022-08-01T14:22:25Z</time>
      </trkpt>
      <trkpt lat="45.81241" lon="1.51085">
        <ele>280.2</ele>
        <time>2022-08-01T14:22:27Z</time>
      </trkpt>
      <trkpt lat="45.81237" lon="1.51092">
        <ele>280.2</ele>
        <time>2022-08-01T14:22:29Z</time>
      </trkpt>
      <trkpt lat="45.81233" lon="1.51099">
        <ele>280.2</ele>
        <time>2022-08-01T14:22:31Z</time>
      </trkpt>
      <trkpt lat="45.81228" lon="1.51107">
        <ele>280.1</ele>
        <time>2022-08-01T14:22:33Z</time>
      </trkpt>
      <trkpt lat="45.81223" lon="1.51115">
        <ele>280</ele>
        <time>2022-08-01T14:22:35Z</time>
      </trkpt>
      <trkpt lat="45.81219" lon="1.51124">
        <ele>280</ele>
        <time>2022-08-01T14:22:37Z</time>
      </trkpt>
      <trkpt lat="45.81214" lon="1.51131">
        <ele>279.6</ele>
        <time>2022-08-01T14:22:39Z</time>
      </trkpt>
      <trkpt lat="45.81209" lon="1.51139">
        <ele>279.3</ele>
        <time>2022-08-01T14:22:41Z</time>
      </trkpt>
      <trkpt lat="45.81204" lon="1.51148">
        <ele>279</ele>
        <time>2022-08-01T14:22:43Z</time>
      </trkpt>
      <trkpt lat="45.812" lon="1.51157">
        <ele>278.6</ele>
        <time>2022-08-01T14:22:45Z</time>
      </trkpt>
      <trkpt lat="45.81196" lon="1.51167">
        <ele>278.3</ele>
        <time>2022-08-01T14:22:47Z</time>
      </trkpt>
      <trkpt lat="45.81192" lon="1.51177">
        <ele>278.3</ele>
        <time>2022-08-01T14:22:49Z</time>
      </trkpt>
      <trkpt lat="45.81188" lon="1.51187">
        <ele>278.3</ele>
        <time>2022-08-01T14:22:51Z</time>
      </trkpt>
      <trkpt lat="45.81183" lon="1.51199">
        <ele>278.3</ele>
        <time>2022-08-01T14:22:53Z</time>
      </trkpt>
      <trkpt lat="45.81179" lon="1.51213">
        <ele>278.4</ele>
        <time>2022-08-01T14:22:55Z</time>
      </trkpt>
      <trkpt lat="45.81175" lon="1.5123">
        <ele>278.6</ele>
        <time>2022-08-01T14:22:57Z</time>
      </trkpt>
      <trkpt lat="45.81171" lon="1.51246">
        <ele>278.7</ele>
        <time>2022-08-01T14:22:59Z</time>
      </trkpt>
      <trkpt lat="45.81167" lon="1.51263">
        <ele>280</ele>
        <time>2022-08-01T14:23:01Z</time>
      </trkpt>
      <trkpt lat="45.81161" lon="1.5128">
        <ele>282</ele>
        <time>2022-08-01T14:23:03Z</time>
      </trkpt>
      <trkpt lat="45.81155" lon="1.51297">
        <ele>283.3</ele>
        <time>2022-08-01T14:23:05Z</time>
      </trkpt>
      <trkpt lat="45.81148" lon="1.51312">
        <ele>283.9</ele>
        <time>2022-08-01T14:23:07Z</time>
      </trkpt>
      <trkpt lat="45.8114" lon="1.51326">
        <ele>283.9</ele>
        <time>2022-08-01T14:23:09Z</time>
      </trkpt>
      <trkpt lat="45.81133" lon="1.51341">
        <ele>283.9</ele>
        <time>2022-08-01T14:23:11Z</time>
      </trkpt>
      <trkpt lat="45.81125" lon="1.51355">
        <ele>283.8</ele>
        <time>2022-08-01T14:23:13Z</time>
      </trkpt>
      <trkpt lat="45.81118" lon="1.51368">
        <ele>283.5</ele>
        <time>2022-08-01T14:23:15Z</time>
      </trkpt>
      <trkpt lat="45.81111" lon="1.51381">
        <ele>282.9</ele>
        <time>2022-08-01T14:23:17Z</time>
      </trkpt>
      <trkpt lat="45.81103" lon="1.51394">
        <ele>282</ele>
        <time>2022-08-01T14:23:19Z</time>
      </trkpt>
      <trkpt lat="45.81095" lon="1.51406">
        <ele>280.8</ele>
        <time>2022-08-01T14:23:21Z</time>
      </trkpt>
      <trkpt lat="45.81088" lon="1.51417">
        <ele>279.6</ele>
        <time>2022-08-01T14:23:23Z</time>
      </trkpt>
      <trkpt lat="45.8108" lon="1.51427">
        <ele>279.7</ele>
        <time>2022-08-01T14:23:25Z</time>
      </trkpt>
      <trkpt lat="45.81073" lon="1.51437">
        <ele>280.7</ele>
        <time>2022-08-01T14:23:27Z</time>
      </trkpt>
      <trkpt lat="45.81065" lon="1.51447">
        <ele>281.2</ele>
        <time>2022-08-01T14:23:29Z</time>
      </trkpt>
      <trkpt lat="45.81058" lon="1.51455">
        <ele>281.4</ele>
        <time>2022-08-01T14:23:31Z</time>
      </trkpt>
      <trkpt lat="45.8105" lon="1.51465">
        <ele>281.6</ele>
        <time>2022-08-01T14:23:33Z</time>
      </trkpt>
      <trkpt lat="45.81042" lon="1.51474">
        <ele>281.3</ele>
        <time>2022-08-01T14:23:35Z</time>
      </trkpt>
      <trkpt lat="45.81035" lon="1.51484">
        <ele>280.9</ele>
        <time>2022-08-01T14:23:37Z</time>
      </trkpt>
      <trkpt lat="45.81027" lon="1.51493">
        <ele>280.2</ele>
        <time>2022-08-01T14:23:39Z</time>
      </trkpt>
      <trkpt lat="45.81019" lon="1.51503">
        <ele>279.3</ele>
        <time>2022-08-01T14:23:41Z</time>
      </trkpt>
      <trkpt lat="45.81011" lon="1.51513">
        <ele>279.4</ele>
        <time>2022-08-01T14:23:43Z</time>
      </trkpt>
      <trkpt lat="45.81002" lon="1.51523">
        <ele>279.4</ele>
        <time>2022-08-01T14:23:45Z</time>
      </trkpt>
      <trkpt lat="45.80992" lon="1.51533">
        <ele>280.3</ele>
        <time>2022-08-01T14:23:47Z</time>
      </trkpt>
      <trkpt lat="45.80982" lon="1.51544">
        <ele>281.1</ele>
        <time>2022-08-01T14:23:49Z</time>
      </trkpt>
      <trkpt lat="45.80973" lon="1.51555">
        <ele>281.4</ele>
        <time>2022-08-01T14:23:51Z</time>
      </trkpt>
      <trkpt lat="45.80963" lon="1.51566">
        <ele>281</ele>
        <time>2022-08-01T14:23:53Z</time>
      </trkpt>
      <trkpt lat="45.80953" lon="1.51576">
        <ele>280.1</ele>
        <time>2022-08-01T14:23:55Z</time>
      </trkpt>
      <trkpt lat="45.80944" lon="1.51586">
        <ele>279.1</ele>
        <time>2022-08-01T14:23:57Z</time>
      </trkpt>
      <trkpt lat="45.80933" lon="1.51594">
        <ele>278.6</ele>
        <time>2022-08-01T14:23:59Z</time>
      </trkpt>
      <trkpt lat="45.80924" lon="1.51603">
        <ele>278.2</ele>
        <time>2022-08-01T14:24:01Z</time>
      </trkpt>
      <trkpt lat="45.80913" lon="1.5161">
        <ele>278.1</ele>
        <time>2022-08-01T14:24:03Z</time>
      </trkpt>
      <trkpt lat="45.80903" lon="1.51617">
        <ele>278.4</ele>
        <time>2022-08-01T14:24:05Z</time>
      </trkpt>
      <trkpt lat="45.80894" lon="1.51623">
        <ele>278.4</ele>
        <time>2022-08-01T14:24:07Z</time>
      </trkpt>
      <trkpt lat="45.80884" lon="1.51628">
        <ele>278.2</ele>
        <time>2022-08-01T14:24:09Z</time>
      </trkpt>
      <trkpt lat="45.80875" lon="1.51635">
        <ele>277.9</ele>
        <time>2022-08-01T14:24:11Z</time>
      </trkpt>
      <trkpt lat="45.80866" lon="1.51641">
        <ele>277.4</ele>
        <time>2022-08-01T14:24:13Z</time>
      </trkpt>
      <trkpt lat="45.80857" lon="1.51647">
        <ele>276.6</ele>
        <time>2022-08-01T14:24:15Z</time>
      </trkpt>
      <trkpt lat="45.80848" lon="1.51653">
        <ele>275.7</ele>
        <time>2022-08-01T14:24:17Z</time>
      </trkpt>
      <trkpt lat="45.80839" lon="1.51659">
        <ele>274.5</ele>
        <time>2022-08-01T14:24:19Z</time>
      </trkpt>
      <trkpt lat="45.80831" lon="1.51664">
        <ele>273.7</ele>
        <time>2022-08-01T14:24:21Z</time>
      </trkpt>
      <trkpt lat="45.80823" lon="1.5167">
        <ele>274.1</ele>
        <time>2022-08-01T14:24:23Z</time>
      </trkpt>
      <trkpt lat="45.80814" lon="1.51676">
        <ele>274.7</ele>
        <time>2022-08-01T14:24:25Z</time>
      </trkpt>
      <trkpt lat="45.80806" lon="1.51681">
        <ele>275.2</ele>
        <time>2022-08-01T14:24:27Z</time>
      </trkpt>
      <trkpt lat="45.80799" lon="1.51686">
        <ele>275.6</ele>
        <time>2022-08-01T14:24:29Z</time>
      </trkpt>
      <trkpt lat="45.80791" lon="1.51692">
        <ele>276</ele>
        <time>2022-08-01T14:24:31Z</time>
      </trkpt>
      <trkpt lat="45.80783" lon="1.51697">
        <ele>276.4</ele>
        <time>2022-08-01T14:24:33Z</time>
      </trkpt>
      <trkpt lat="45.80775" lon="1.51702">
        <ele>276.7</ele>
        <time>2022-08-01T14:24:35Z</time>
      </trkpt>
      <trkpt lat="45.80766" lon="1.51707">
        <ele>276.9</ele>
        <time>2022-08-01T14:24:37Z</time>
      </trkpt>
      <trkpt lat="45.80759" lon="1.51712">
        <ele>277.1</ele>
        <time>2022-08-01T14:24:39Z</time>
      </trkpt>
      <trkpt lat="45.8075" lon="1.51716">
        <ele>277.2</ele>
        <time>2022-08-01T14:24:41Z</time>
      </trkpt>
      <trkpt lat="45.80741" lon="1.51721">
        <ele>277.5</ele>
        <time>2022-08-01T14:24:43Z</time>
      </trkpt>
      <trkpt lat="45.80734" lon="1.51726">
        <ele>277.7</ele>
        <time>2022-08-01T14:24:45Z</time>
      </trkpt>
      <trkpt lat="45.80725" lon="1.51733">
        <ele>277.8</ele>
        <time>2022-08-01T14:24:47Z</time>
      </trkpt>
      <trkpt lat="45.80717" lon="1.51738">
        <ele>277.5</ele>
        <time>2022-08-01T14:24:49Z</time>
      </trkpt>
      <trkpt lat="45.80708" lon="1.51744">
        <ele>276.8</ele>
        <time>2022-08-01T14:24:51Z</time>
      </trkpt>
      <trkpt lat="45.80699" lon="1.5175">
        <ele>275.9</ele>
        <time>2022-08-01T14:24:53Z</time>
      </trkpt>
      <trkpt lat="45.80691" lon="1.51757">
        <ele>276</ele>
        <time>2022-08-01T14:24:55Z</time>
      </trkpt>
      <trkpt lat="45.80683" lon="1.51764">
        <ele>276.2</ele>
        <time>2022-08-01T14:24:57Z</time>
      </trkpt>
      <trkpt lat="45.80674" lon="1.51772">
        <ele>276.4</ele>
        <time>2022-08-01T14:24:59Z</time>
      </trkpt>
      <trkpt lat="45.80665" lon="1.51781">
        <ele>276.7</ele>
        <time>2022-08-01T14:25:01Z</time>
      </trkpt>
      <trkpt lat="45.80657" lon="1.51789">
        <ele>277.5</ele>
        <time>2022-08-01T14:25:03Z</time>
      </trkpt>
      <trkpt lat="45.80649" lon="1.51797">
        <ele>277.9</ele>
        <time>2022-08-01T14:25:05Z</time>
      </trkpt>
      <trkpt lat="45.80641" lon="1.51805">
        <ele>278.1</ele>
        <time>2022-08-01T14:25:07Z</time>
      </trkpt>
      <trkpt lat="45.80633" lon="1.51812">
        <ele>277.9</ele>
        <time>2022-08-01T14:25:09Z</time>
      </trkpt>
      <trkpt lat="45.80625" lon="1.5182">
        <ele>277.6</ele>
        <time>2022-08-01T14:25:11Z</time>
      </trkpt>
      <trkpt lat="45.80618" lon="1.51829">
        <ele>277.2</ele>
        <time>2022-08-01T14:25:13Z</time>
      </trkpt>
      <trkpt lat="45.80611" lon="1.51837">
        <ele>277</ele>
        <time>2022-08-01T14:25:15Z</time>
      </trkpt>
      <trkpt lat="45.80604" lon="1.51846">
        <ele>277.3</ele>
        <time>2022-08-01T14:25:17Z</time>
      </trkpt>
      <trkpt lat="45.80598" lon="1.51855">
        <ele>277.6</ele>
        <time>2022-08-01T14:25:19Z</time>
      </trkpt>
      <trkpt lat="45.80591" lon="1.51863">
        <ele>277.7</ele>
        <time>2022-08-01T14:25:21Z</time>
      </trkpt>
      <trkpt lat="45.80585" lon="1.51872">
        <ele>277.9</ele>
        <time>2022-08-01T14:25:23Z</time>
      </trkpt>
      <trkpt lat="45.80579" lon="1.5188">
        <ele>278.5</ele>
        <time>2022-08-01T14:25:25Z</time>
      </trkpt>
      <trkpt lat="45.80573" lon="1.51889">
        <ele>279.2</ele>
        <time>2022-08-01T14:25:27Z</time>
      </trkpt>
      <trkpt lat="45.80566" lon="1.51897">
        <ele>279.5</ele>
        <time>2022-08-01T14:25:29Z</time>
      </trkpt>
      <trkpt lat="45.8056" lon="1.51906">
        <ele>279.6</ele>
        <time>2022-08-01T14:25:31Z</time>
      </trkpt>
      <trkpt lat="45.80554" lon="1.51914">
        <ele>279.3</ele>
        <time>2022-08-01T14:25:33Z</time>
      </trkpt>
      <trkpt lat="45.80547" lon="1.51922">
        <ele>279.1</ele>
        <time>2022-08-01T14:25:35Z</time>
      </trkpt>
      <trkpt lat="45.80541" lon="1.51931">
        <ele>279.1</ele>
        <time>2022-08-01T14:25:37Z</time>
      </trkpt>
      <trkpt lat="45.80535" lon="1.51941">
        <ele>279.1</ele>
        <time>2022-08-01T14:25:39Z</time>
      </trkpt>
      <trkpt lat="45.80529" lon="1.51952">
        <ele>279.1</ele>
        <time>2022-08-01T14:25:41Z</time>
      </trkpt>
      <trkpt lat="45.80523" lon="1.51961">
        <ele>278.9</ele>
        <time>2022-08-01T14:25:43Z</time>
      </trkpt>
      <trkpt lat="45.80517" lon="1.5197">
        <ele>278.5</ele>
        <time>2022-08-01T14:25:45Z</time>
      </trkpt>
      <trkpt lat="45.80511" lon="1.51981">
        <ele>278.2</ele>
        <time>2022-08-01T14:25:47Z</time>
      </trkpt>
      <trkpt lat="45.80506" lon="1.51992">
        <ele>277.8</ele>
        <time>2022-08-01T14:25:49Z</time>
      </trkpt>
      <trkpt lat="45.80501" lon="1.52002">
        <ele>277.5</ele>
        <time>2022-08-01T14:25:51Z</time>
      </trkpt>
      <trkpt lat="45.80496" lon="1.52013">
        <ele>278.6</ele>
        <time>2022-08-01T14:25:53Z</time>
      </trkpt>
      <trkpt lat="45.8049" lon="1.52023">
        <ele>279.6</ele>
        <time>2022-08-01T14:25:55Z</time>
      </trkpt>
      <trkpt lat="45.80484" lon="1.52034">
        <ele>280.3</ele>
        <time>2022-08-01T14:25:57Z</time>
      </trkpt>
      <trkpt lat="45.80479" lon="1.52045">
        <ele>280.8</ele>
        <time>2022-08-01T14:25:59Z</time>
      </trkpt>
      <trkpt lat="45.80473" lon="1.52055">
        <ele>281.1</ele>
        <time>2022-08-01T14:26:01Z</time>
      </trkpt>
      <trkpt lat="45.80468" lon="1.52066">
        <ele>281.1</ele>
        <time>2022-08-01T14:26:03Z</time>
      </trkpt>
      <trkpt lat="45.80463" lon="1.52076">
        <ele>280.9</ele>
        <time>2022-08-01T14:26:05Z</time>
      </trkpt>
      <trkpt lat="45.80458" lon="1.52087">
        <ele>280.5</ele>
        <time>2022-08-01T14:26:07Z</time>
      </trkpt>
      <trkpt lat="45.80453" lon="1.52097">
        <ele>280</ele>
        <time>2022-08-01T14:26:09Z</time>
      </trkpt>
      <trkpt lat="45.80448" lon="1.52107">
        <ele>279.4</ele>
        <time>2022-08-01T14:26:11Z</time>
      </trkpt>
      <trkpt lat="45.80444" lon="1.52118">
        <ele>278.8</ele>
        <time>2022-08-01T14:26:13Z</time>
      </trkpt>
      <trkpt lat="45.80439" lon="1.52129">
        <ele>278.2</ele>
        <time>2022-08-01T14:26:15Z</time>
      </trkpt>
      <trkpt lat="45.80435" lon="1.52139">
        <ele>277.5</ele>
        <time>2022-08-01T14:26:17Z</time>
      </trkpt>
      <trkpt lat="45.8043" lon="1.52151">
        <ele>276.8</ele>
        <time>2022-08-01T14:26:19Z</time>
      </trkpt>
      <trkpt lat="45.80425" lon="1.52164">
        <ele>275.8</ele>
        <time>2022-08-01T14:26:21Z</time>
      </trkpt>
      <trkpt lat="45.8042" lon="1.52178">
        <ele>275.6</ele>
        <time>2022-08-01T14:26:23Z</time>
      </trkpt>
      <trkpt lat="45.80415" lon="1.52193">
        <ele>276.1</ele>
        <time>2022-08-01T14:26:25Z</time>
      </trkpt>
      <trkpt lat="45.80409" lon="1.52209">
        <ele>277.6</ele>
        <time>2022-08-01T14:26:27Z</time>
      </trkpt>
      <trkpt lat="45.80404" lon="1.52225">
        <ele>278.7</ele>
        <time>2022-08-01T14:26:29Z</time>
      </trkpt>
      <trkpt lat="45.80399" lon="1.52241">
        <ele>279.5</ele>
        <time>2022-08-01T14:26:31Z</time>
      </trkpt>
      <trkpt lat="45.80395" lon="1.52257">
        <ele>279.8</ele>
        <time>2022-08-01T14:26:33Z</time>
      </trkpt>
      <trkpt lat="45.80392" lon="1.52273">
        <ele>279.8</ele>
        <time>2022-08-01T14:26:35Z</time>
      </trkpt>
      <trkpt lat="45.80389" lon="1.52289">
        <ele>279.7</ele>
        <time>2022-08-01T14:26:37Z</time>
      </trkpt>
      <trkpt lat="45.80385" lon="1.52305">
        <ele>279.3</ele>
        <time>2022-08-01T14:26:39Z</time>
      </trkpt>
      <trkpt lat="45.80382" lon="1.5232">
        <ele>279</ele>
        <time>2022-08-01T14:26:41Z</time>
      </trkpt>
      <trkpt lat="45.8038" lon="1.52335">
        <ele>278.7</ele>
        <time>2022-08-01T14:26:43Z</time>
      </trkpt>
      <trkpt lat="45.80378" lon="1.52351">
        <ele>278.5</ele>
        <time>2022-08-01T14:26:45Z</time>
      </trkpt>
      <trkpt lat="45.80376" lon="1.52364">
        <ele>278.3</ele>
        <time>2022-08-01T14:26:47Z</time>
      </trkpt>
      <trkpt lat="45.80374" lon="1.52378">
        <ele>278.2</ele>
        <time>2022-08-01T14:26:49Z</time>
      </trkpt>
      <trkpt lat="45.80372" lon="1.52391">
        <ele>277.9</ele>
        <time>2022-08-01T14:26:51Z</time>
      </trkpt>
      <trkpt lat="45.8037" lon="1.52404">
        <ele>277.7</ele>
        <time>2022-08-01T14:26:53Z</time>
      </trkpt>
      <trkpt lat="45.80369" lon="1.52417">
        <ele>277.5</ele>
        <time>2022-08-01T14:26:55Z</time>
      </trkpt>
      <trkpt lat="45.80366" lon="1.5243">
        <ele>277.1</ele>
        <time>2022-08-01T14:26:57Z</time>
      </trkpt>
      <trkpt lat="45.80364" lon="1.52442">
        <ele>276.7</ele>
        <time>2022-08-01T14:26:59Z</time>
      </trkpt>
      <trkpt lat="45.80362" lon="1.52454">
        <ele>276.3</ele>
        <time>2022-08-01T14:27:01Z</time>
      </trkpt>
      <trkpt lat="45.80362" lon="1.52465">
        <ele>276.2</ele>
        <time>2022-08-01T14:27:03Z</time>
      </trkpt>
      <trkpt lat="45.80362" lon="1.52475">
        <ele>276.2</ele>
        <time>2022-08-01T14:27:05Z</time>
      </trkpt>
      <trkpt lat="45.80363" lon="1.52484">
        <ele>276.3</ele>
        <time>2022-08-01T14:27:07Z</time>
      </trkpt>
      <trkpt lat="45.80366" lon="1.52492">
        <ele>276.6</ele>
        <time>2022-08-01T14:27:09Z</time>
      </trkpt>
      <trkpt lat="45.80371" lon="1.52499">
        <ele>277.1</ele>
        <time>2022-08-01T14:27:11Z</time>
      </trkpt>
      <trkpt lat="45.80376" lon="1.52504">
        <ele>277.4</ele>
        <time>2022-08-01T14:27:13Z</time>
      </trkpt>
      <trkpt lat="45.80382" lon="1.5251">
        <ele>277.7</ele>
        <time>2022-08-01T14:27:15Z</time>
      </trkpt>
      <trkpt lat="45.80388" lon="1.52517">
        <ele>278</ele>
        <time>2022-08-01T14:27:17Z</time>
      </trkpt>
      <trkpt lat="45.80394" lon="1.52524">
        <ele>278.1</ele>
        <time>2022-08-01T14:27:19Z</time>
      </trkpt>
      <trkpt lat="45.804" lon="1.52529">
        <ele>278.3</ele>
        <time>2022-08-01T14:27:21Z</time>
      </trkpt>
      <trkpt lat="45.80405" lon="1.52536">
        <ele>278.4</ele>
        <time>2022-08-01T14:27:23Z</time>
      </trkpt>
      <trkpt lat="45.8041" lon="1.52543">
        <ele>278.3</ele>
        <time>2022-08-01T14:27:25Z</time>
      </trkpt>
      <trkpt lat="45.80414" lon="1.52551">
        <ele>278.1</ele>
        <time>2022-08-01T14:27:27Z</time>
      </trkpt>
      <trkpt lat="45.80415" lon="1.5256">
        <ele>277.5</ele>
        <time>2022-08-01T14:27:29Z</time>
      </trkpt>
      <trkpt lat="45.80417" lon="1.52569">
        <ele>277.1</ele>
        <time>2022-08-01T14:27:31Z</time>
      </trkpt>
      <trkpt lat="45.80419" lon="1.52579">
        <ele>276.6</ele>
        <time>2022-08-01T14:27:33Z</time>
      </trkpt>
      <trkpt lat="45.80419" lon="1.52589">
        <ele>276.1</ele>
        <time>2022-08-01T14:27:35Z</time>
      </trkpt>
      <trkpt lat="45.80419" lon="1.52599">
        <ele>275.9</ele>
        <time>2022-08-01T14:27:37Z</time>
      </trkpt>
      <trkpt lat="45.80416" lon="1.5261">
        <ele>275.4</ele>
        <time>2022-08-01T14:27:39Z</time>
      </trkpt>
      <trkpt lat="45.80414" lon="1.5262">
        <ele>275</ele>
        <time>2022-08-01T14:27:41Z</time>
      </trkpt>
      <trkpt lat="45.8041" lon="1.52628">
        <ele>274.6</ele>
        <time>2022-08-01T14:27:43Z</time>
      </trkpt>
      <trkpt lat="45.80407" lon="1.52629">
        <ele>274.5</ele>
        <time>2022-08-01T14:27:45Z</time>
      </trkpt>
      <trkpt lat="45.80401" lon="1.52642">
        <ele>274</ele>
        <time>2022-08-01T14:27:47Z</time>
      </trkpt>
      <trkpt lat="45.80401" lon="1.52648">
        <ele>273.9</ele>
        <time>2022-08-01T14:27:49Z</time>
      </trkpt>
      <trkpt lat="45.80398" lon="1.52657">
        <ele>273.7</ele>
        <time>2022-08-01T14:27:51Z</time>
      </trkpt>
      <trkpt lat="45.80396" lon="1.52665">
        <ele>273.5</ele>
        <time>2022-08-01T14:27:53Z</time>
      </trkpt>
      <trkpt lat="45.80393" lon="1.52672">
        <ele>274</ele>
        <time>2022-08-01T14:27:55Z</time>
      </trkpt>
      <trkpt lat="45.8039" lon="1.52678">
        <ele>274.6</ele>
        <time>2022-08-01T14:27:57Z</time>
      </trkpt>
      <trkpt lat="45.80388" lon="1.52683">
        <ele>275.1</ele>
        <time>2022-08-01T14:27:59Z</time>
      </trkpt>
      <trkpt lat="45.80386" lon="1.52689">
        <ele>275.8</ele>
        <time>2022-08-01T14:28:01Z</time>
      </trkpt>
      <trkpt lat="45.80383" lon="1.52694">
        <ele>276.4</ele>
        <time>2022-08-01T14:28:03Z</time>
      </trkpt>
      <trkpt lat="45.8038" lon="1.52698">
        <ele>276.8</ele>
        <time>2022-08-01T14:28:05Z</time>
      </trkpt>
      <trkpt lat="45.80378" lon="1.52704">
        <ele>277.4</ele>
        <time>2022-08-01T14:28:07Z</time>
      </trkpt>
      <trkpt lat="45.80375" lon="1.5271">
        <ele>278.1</ele>
        <time>2022-08-01T14:28:09Z</time>
      </trkpt>
      <trkpt lat="45.80376" lon="1.52716">
        <ele>278.9</ele>
        <time>2022-08-01T14:28:11Z</time>
      </trkpt>
      <trkpt lat="45.80379" lon="1.52722">
        <ele>279.6</ele>
        <time>2022-08-01T14:28:13Z</time>
      </trkpt>
      <trkpt lat="45.80381" lon="1.52724">
        <ele>279.9</ele>
        <time>2022-08-01T14:28:15Z</time>
      </trkpt>
      <trkpt lat="45.80381" lon="1.52728">
        <ele>280.3</ele>
        <time>2022-08-01T14:28:17Z</time>
      </trkpt>
      <trkpt lat="45.80377" lon="1.52732">
        <ele>280.8</ele>
        <time>2022-08-01T14:28:19Z</time>
      </trkpt>
      <trkpt lat="45.80374" lon="1.52728">
        <ele>280.4</ele>
        <time>2022-08-01T14:28:21Z</time>
      </trkpt>
      <trkpt lat="45.80373" lon="1.52727">
        <ele>280.2</ele>
        <time>2022-08-01T14:28:23Z</time>
      </trkpt>
      <trkpt lat="45.80372" lon="1.52726">
        <ele>280.2</ele>
        <time>2022-08-01T14:28:25Z</time>
      </trkpt>
      <trkpt lat="45.80372" lon="1.52727">
        <ele>280.3</ele>
        <time>2022-08-01T14:28:27Z</time>
      </trkpt>
      <trkpt lat="45.80372" lon="1.52727">
        <ele>280.3</ele>
        <time>2022-08-01T14:28:29Z</time>
      </trkpt>
      <trkpt lat="45.80374" lon="1.52705">
        <ele>277.6</ele>
        <time>2022-08-01T14:38:35Z</time>
      </trkpt>
      <trkpt lat="45.80377" lon="1.52698">
        <ele>276.8</ele>
        <time>2022-08-01T14:38:37Z</time>
      </trkpt>
      <trkpt lat="45.8038" lon="1.52691">
        <ele>275.9</ele>
        <time>2022-08-01T14:38:39Z</time>
      </trkpt>
      <trkpt lat="45.80384" lon="1.52683">
        <ele>275.1</ele>
        <time>2022-08-01T14:38:41Z</time>
      </trkpt>
      <trkpt lat="45.80387" lon="1.52676">
        <ele>274.3</ele>
        <time>2022-08-01T14:38:43Z</time>
      </trkpt>
      <trkpt lat="45.8039" lon="1.52668">
        <ele>273.5</ele>
        <time>2022-08-01T14:38:45Z</time>
      </trkpt>
      <trkpt lat="45.80393" lon="1.52662">
        <ele>273.5</ele>
        <time>2022-08-01T14:38:47Z</time>
      </trkpt>
      <trkpt lat="45.80396" lon="1.52656">
        <ele>273.7</ele>
        <time>2022-08-01T14:38:49Z</time>
      </trkpt>
      <trkpt lat="45.80399" lon="1.5265">
        <ele>273.9</ele>
        <time>2022-08-01T14:38:51Z</time>
      </trkpt>
      <trkpt lat="45.80402" lon="1.52641">
        <ele>274.1</ele>
        <time>2022-08-01T14:38:53Z</time>
      </trkpt>
      <trkpt lat="45.80406" lon="1.52633">
        <ele>274.4</ele>
        <time>2022-08-01T14:38:55Z</time>
      </trkpt>
      <trkpt lat="45.80411" lon="1.52624">
        <ele>274.8</ele>
        <time>2022-08-01T14:38:57Z</time>
      </trkpt>
      <trkpt lat="45.80413" lon="1.52613">
        <ele>275.1</ele>
        <time>2022-08-01T14:38:59Z</time>
      </trkpt>
      <trkpt lat="45.80415" lon="1.52603">
        <ele>275.5</ele>
        <time>2022-08-01T14:39:01Z</time>
      </trkpt>
      <trkpt lat="45.80417" lon="1.52592">
        <ele>275.8</ele>
        <time>2022-08-01T14:39:03Z</time>
      </trkpt>
      <trkpt lat="45.80417" lon="1.52581">
        <ele>276.2</ele>
        <time>2022-08-01T14:39:05Z</time>
      </trkpt>
      <trkpt lat="45.8042" lon="1.5257">
        <ele>277.3</ele>
        <time>2022-08-01T14:39:07Z</time>
      </trkpt>
      <trkpt lat="45.80427" lon="1.52566">
        <ele>278.5</ele>
        <time>2022-08-01T14:39:09Z</time>
      </trkpt>
      <trkpt lat="45.80434" lon="1.5257">
        <ele>279</ele>
        <time>2022-08-01T14:39:11Z</time>
      </trkpt>
      <trkpt lat="45.80439" lon="1.52576">
        <ele>279.3</ele>
        <time>2022-08-01T14:39:13Z</time>
      </trkpt>
      <trkpt lat="45.80444" lon="1.52581">
        <ele>279.5</ele>
        <time>2022-08-01T14:39:15Z</time>
      </trkpt>
      <trkpt lat="45.80449" lon="1.52586">
        <ele>279.8</ele>
        <time>2022-08-01T14:39:17Z</time>
      </trkpt>
      <trkpt lat="45.80453" lon="1.5259">
        <ele>280.3</ele>
        <time>2022-08-01T14:39:19Z</time>
      </trkpt>
      <trkpt lat="45.80456" lon="1.52594">
        <ele>280.6</ele>
        <time>2022-08-01T14:39:21Z</time>
      </trkpt>
      <trkpt lat="45.80461" lon="1.52597">
        <ele>281.3</ele>
        <time>2022-08-01T14:39:23Z</time>
      </trkpt>
      <trkpt lat="45.80466" lon="1.526">
        <ele>281.8</ele>
        <time>2022-08-01T14:39:25Z</time>
      </trkpt>
      <trkpt lat="45.80468" lon="1.52603">
        <ele>282.1</ele>
        <time>2022-08-01T14:39:27Z</time>
      </trkpt>
      <trkpt lat="45.80472" lon="1.52607">
        <ele>282.7</ele>
        <time>2022-08-01T14:39:29Z</time>
      </trkpt>
      <trkpt lat="45.80476" lon="1.52611">
        <ele>283.2</ele>
        <time>2022-08-01T14:39:31Z</time>
      </trkpt>
      <trkpt lat="45.80479" lon="1.52614">
        <ele>283.6</ele>
        <time>2022-08-01T14:39:33Z</time>
      </trkpt>
      <trkpt lat="45.80482" lon="1.52617">
        <ele>283.9</ele>
        <time>2022-08-01T14:39:35Z</time>
      </trkpt>
      <trkpt lat="45.80485" lon="1.52621">
        <ele>284.4</ele>
        <time>2022-08-01T14:39:37Z</time>
      </trkpt>
      <trkpt lat="45.80488" lon="1.52624">
        <ele>284.9</ele>
        <time>2022-08-01T14:39:39Z</time>
      </trkpt>
      <trkpt lat="45.80491" lon="1.52628">
        <ele>285.3</ele>
        <time>2022-08-01T14:39:41Z</time>
      </trkpt>
      <trkpt lat="45.80494" lon="1.52632">
        <ele>285.8</ele>
        <time>2022-08-01T14:39:43Z</time>
      </trkpt>
      <trkpt lat="45.80496" lon="1.52637">
        <ele>286.1</ele>
        <time>2022-08-01T14:39:45Z</time>
      </trkpt>
      <trkpt lat="45.80496" lon="1.52643">
        <ele>286.1</ele>
        <time>2022-08-01T14:39:47Z</time>
      </trkpt>
      <trkpt lat="45.80496" lon="1.52648">
        <ele>286.1</ele>
        <time>2022-08-01T14:39:49Z</time>
      </trkpt>
      <trkpt lat="45.80495" lon="1.52654">
        <ele>286.1</ele>
        <time>2022-08-01T14:39:51Z</time>
      </trkpt>
      <trkpt lat="45.80495" lon="1.5266">
        <ele>286.1</ele>
        <time>2022-08-01T14:39:53Z</time>
      </trkpt>
      <trkpt lat="45.80494" lon="1.52666">
        <ele>286</ele>
        <time>2022-08-01T14:39:55Z</time>
      </trkpt>
      <trkpt lat="45.80493" lon="1.52671">
        <ele>286.1</ele>
        <time>2022-08-01T14:39:57Z</time>
      </trkpt>
      <trkpt lat="45.80493" lon="1.52676">
        <ele>286.2</ele>
        <time>2022-08-01T14:39:59Z</time>
      </trkpt>
      <trkpt lat="45.80493" lon="1.52679">
        <ele>286.2</ele>
        <time>2022-08-01T14:40:01Z</time>
      </trkpt>
      <trkpt lat="45.80492" lon="1.52685">
        <ele>286.4</ele>
        <time>2022-08-01T14:40:03Z</time>
      </trkpt>
      <trkpt lat="45.80492" lon="1.5269">
        <ele>286.5</ele>
        <time>2022-08-01T14:40:05Z</time>
      </trkpt>
      <trkpt lat="45.80491" lon="1.52695">
        <ele>286.5</ele>
        <time>2022-08-01T14:40:07Z</time>
      </trkpt>
      <trkpt lat="45.80499" lon="1.52744">
        <ele>288.7</ele>
        <time>2022-08-01T14:40:27Z</time>
      </trkpt>
      <trkpt lat="45.80502" lon="1.52748">
        <ele>289.6</ele>
        <time>2022-08-01T14:40:29Z</time>
      </trkpt>
      <trkpt lat="45.80506" lon="1.52752">
        <ele>291</ele>
        <time>2022-08-01T14:40:31Z</time>
      </trkpt>
      <trkpt lat="45.80509" lon="1.52759">
        <ele>292.2</ele>
        <time>2022-08-01T14:40:33Z</time>
      </trkpt>
      <trkpt lat="45.80514" lon="1.52766">
        <ele>293.8</ele>
        <time>2022-08-01T14:40:35Z</time>
      </trkpt>
      <trkpt lat="45.80522" lon="1.52776">
        <ele>296.1</ele>
        <time>2022-08-01T14:40:37Z</time>
      </trkpt>
      <trkpt lat="45.80528" lon="1.52788">
        <ele>297.6</ele>
        <time>2022-08-01T14:40:39Z</time>
      </trkpt>
      <trkpt lat="45.80534" lon="1.528">
        <ele>299</ele>
        <time>2022-08-01T14:40:41Z</time>
      </trkpt>
      <trkpt lat="45.80538" lon="1.52814">
        <ele>299.6</ele>
        <time>2022-08-01T14:40:43Z</time>
      </trkpt>
      <trkpt lat="45.80538" lon="1.52831">
        <ele>298.6</ele>
        <time>2022-08-01T14:40:45Z</time>
      </trkpt>
      <trkpt lat="45.80531" lon="1.52846">
        <ele>295.8</ele>
        <time>2022-08-01T14:40:47Z</time>
      </trkpt>
      <trkpt lat="45.80524" lon="1.5286">
        <ele>293.5</ele>
        <time>2022-08-01T14:40:49Z</time>
      </trkpt>
      <trkpt lat="45.80517" lon="1.52871">
        <ele>291.9</ele>
        <time>2022-08-01T14:40:51Z</time>
      </trkpt>
      <trkpt lat="45.80512" lon="1.52887">
        <ele>290.9</ele>
        <time>2022-08-01T14:40:53Z</time>
      </trkpt>
      <trkpt lat="45.80513" lon="1.52903">
        <ele>290.5</ele>
        <time>2022-08-01T14:40:55Z</time>
      </trkpt>
      <trkpt lat="45.80518" lon="1.52916">
        <ele>290.2</ele>
        <time>2022-08-01T14:40:57Z</time>
      </trkpt>
      <trkpt lat="45.80527" lon="1.52927">
        <ele>290.8</ele>
        <time>2022-08-01T14:40:59Z</time>
      </trkpt>
      <trkpt lat="45.80538" lon="1.52933">
        <ele>291</ele>
        <time>2022-08-01T14:41:01Z</time>
      </trkpt>
      <trkpt lat="45.8055" lon="1.52936">
        <ele>291.1</ele>
        <time>2022-08-01T14:41:03Z</time>
      </trkpt>
      <trkpt lat="45.80561" lon="1.52936">
        <ele>291</ele>
        <time>2022-08-01T14:41:05Z</time>
      </trkpt>
      <trkpt lat="45.80571" lon="1.52934">
        <ele>291</ele>
        <time>2022-08-01T14:41:07Z</time>
      </trkpt>
      <trkpt lat="45.8058" lon="1.52931">
        <ele>291</ele>
        <time>2022-08-01T14:41:09Z</time>
      </trkpt>
      <trkpt lat="45.80589" lon="1.52926">
        <ele>291.2</ele>
        <time>2022-08-01T14:41:11Z</time>
      </trkpt>
      <trkpt lat="45.80598" lon="1.52921">
        <ele>291.4</ele>
        <time>2022-08-01T14:41:13Z</time>
      </trkpt>
      <trkpt lat="45.80606" lon="1.52913">
        <ele>292.4</ele>
        <time>2022-08-01T14:41:15Z</time>
      </trkpt>
      <trkpt lat="45.80614" lon="1.52909">
        <ele>293.7</ele>
        <time>2022-08-01T14:41:17Z</time>
      </trkpt>
      <trkpt lat="45.80622" lon="1.52903">
        <ele>295.4</ele>
        <time>2022-08-01T14:41:19Z</time>
      </trkpt>
      <trkpt lat="45.80628" lon="1.52898">
        <ele>296.6</ele>
        <time>2022-08-01T14:41:21Z</time>
      </trkpt>
      <trkpt lat="45.80635" lon="1.5289">
        <ele>298.8</ele>
        <time>2022-08-01T14:41:23Z</time>
      </trkpt>
      <trkpt lat="45.80642" lon="1.52883">
        <ele>300.8</ele>
        <time>2022-08-01T14:41:25Z</time>
      </trkpt>
      <trkpt lat="45.80647" lon="1.5288">
        <ele>301.8</ele>
        <time>2022-08-01T14:41:27Z</time>
      </trkpt>
      <trkpt lat="45.80653" lon="1.52874">
        <ele>303.7</ele>
        <time>2022-08-01T14:41:29Z</time>
      </trkpt>
      <trkpt lat="45.80658" lon="1.5287">
        <ele>305</ele>
        <time>2022-08-01T14:41:31Z</time>
      </trkpt>
      <trkpt lat="45.80664" lon="1.52866">
        <ele>306.3</ele>
        <time>2022-08-01T14:41:33Z</time>
      </trkpt>
      <trkpt lat="45.80668" lon="1.52862">
        <ele>307.3</ele>
        <time>2022-08-01T14:41:35Z</time>
      </trkpt>
      <trkpt lat="45.80672" lon="1.52857">
        <ele>308.1</ele>
        <time>2022-08-01T14:41:37Z</time>
      </trkpt>
      <trkpt lat="45.80676" lon="1.52853">
        <ele>308.7</ele>
        <time>2022-08-01T14:41:39Z</time>
      </trkpt>
      <trkpt lat="45.80681" lon="1.52851">
        <ele>308.8</ele>
        <time>2022-08-01T14:41:41Z</time>
      </trkpt>
      <trkpt lat="45.80684" lon="1.52846">
        <ele>309.5</ele>
        <time>2022-08-01T14:41:43Z</time>
      </trkpt>
      <trkpt lat="45.80687" lon="1.52845">
        <ele>309.4</ele>
        <time>2022-08-01T14:41:45Z</time>
      </trkpt>
      <trkpt lat="45.80691" lon="1.52841">
        <ele>309.8</ele>
        <time>2022-08-01T14:41:47Z</time>
      </trkpt>
      <trkpt lat="45.80695" lon="1.52838">
        <ele>310.2</ele>
        <time>2022-08-01T14:41:49Z</time>
      </trkpt>
      <trkpt lat="45.80697" lon="1.52835">
        <ele>310.5</ele>
        <time>2022-08-01T14:41:51Z</time>
      </trkpt>
      <trkpt lat="45.80699" lon="1.52834">
        <ele>310.5</ele>
        <time>2022-08-01T14:41:53Z</time>
      </trkpt>
      <trkpt lat="45.80704" lon="1.52831">
        <ele>310.5</ele>
        <time>2022-08-01T14:41:55Z</time>
      </trkpt>
      <trkpt lat="45.80707" lon="1.5283">
        <ele>310.6</ele>
        <time>2022-08-01T14:41:57Z</time>
      </trkpt>
      <trkpt lat="45.8071" lon="1.52828">
        <ele>310.5</ele>
        <time>2022-08-01T14:41:59Z</time>
      </trkpt>
      <trkpt lat="45.80714" lon="1.52826">
        <ele>310.5</ele>
        <time>2022-08-01T14:42:01Z</time>
      </trkpt>
      <trkpt lat="45.80717" lon="1.52826">
        <ele>310.1</ele>
        <time>2022-08-01T14:42:03Z</time>
      </trkpt>
      <trkpt lat="45.80722" lon="1.52825">
        <ele>309.9</ele>
        <time>2022-08-01T14:42:05Z</time>
      </trkpt>
      <trkpt lat="45.80725" lon="1.52823">
        <ele>309.9</ele>
        <time>2022-08-01T14:42:07Z</time>
      </trkpt>
      <trkpt lat="45.80729" lon="1.52823">
        <ele>309.6</ele>
        <time>2022-08-01T14:42:09Z</time>
      </trkpt>
      <trkpt lat="45.80733" lon="1.52822">
        <ele>309.3</ele>
        <time>2022-08-01T14:42:11Z</time>
      </trkpt>
      <trkpt lat="45.80737" lon="1.52822">
        <ele>308.8</ele>
        <time>2022-08-01T14:42:13Z</time>
      </trkpt>
      <trkpt lat="45.8074" lon="1.52822">
        <ele>308.4</ele>
        <time>2022-08-01T14:42:15Z</time>
      </trkpt>
      <trkpt lat="45.80744" lon="1.52822">
        <ele>308</ele>
        <time>2022-08-01T14:42:17Z</time>
      </trkpt>
      <trkpt lat="45.80748" lon="1.52823">
        <ele>307.4</ele>
        <time>2022-08-01T14:42:19Z</time>
      </trkpt>
      <trkpt lat="45.80753" lon="1.52822">
        <ele>307.9</ele>
        <time>2022-08-01T14:42:21Z</time>
      </trkpt>
      <trkpt lat="45.80757" lon="1.52822">
        <ele>308.8</ele>
        <time>2022-08-01T14:42:23Z</time>
      </trkpt>
      <trkpt lat="45.80761" lon="1.52821">
        <ele>309.6</ele>
        <time>2022-08-01T14:42:25Z</time>
      </trkpt>
      <trkpt lat="45.80764" lon="1.52821">
        <ele>310.5</ele>
        <time>2022-08-01T14:42:27Z</time>
      </trkpt>
      <trkpt lat="45.80768" lon="1.5282">
        <ele>311.2</ele>
        <time>2022-08-01T14:42:29Z</time>
      </trkpt>
      <trkpt lat="45.80771" lon="1.52822">
        <ele>311.5</ele>
        <time>2022-08-01T14:42:31Z</time>
      </trkpt>
      <trkpt lat="45.80775" lon="1.52824">
        <ele>311.8</ele>
        <time>2022-08-01T14:42:33Z</time>
      </trkpt>
      <trkpt lat="45.80779" lon="1.52826">
        <ele>311.9</ele>
        <time>2022-08-01T14:42:35Z</time>
      </trkpt>
      <trkpt lat="45.80782" lon="1.52829">
        <ele>312</ele>
        <time>2022-08-01T14:42:37Z</time>
      </trkpt>
      <trkpt lat="45.80785" lon="1.52832">
        <ele>311.8</ele>
        <time>2022-08-01T14:42:39Z</time>
      </trkpt>
      <trkpt lat="45.80788" lon="1.52833">
        <ele>312.2</ele>
        <time>2022-08-01T14:42:41Z</time>
      </trkpt>
      <trkpt lat="45.8079" lon="1.52838">
        <ele>311.8</ele>
        <time>2022-08-01T14:42:43Z</time>
      </trkpt>
      <trkpt lat="45.80793" lon="1.52842">
        <ele>311.5</ele>
        <time>2022-08-01T14:42:45Z</time>
      </trkpt>
      <trkpt lat="45.80795" lon="1.52844">
        <ele>311.7</ele>
        <time>2022-08-01T14:42:47Z</time>
      </trkpt>
      <trkpt lat="45.80798" lon="1.52845">
        <ele>312</ele>
        <time>2022-08-01T14:42:49Z</time>
      </trkpt>
      <trkpt lat="45.80801" lon="1.52847">
        <ele>312.2</ele>
        <time>2022-08-01T14:42:51Z</time>
      </trkpt>
      <trkpt lat="45.80803" lon="1.5285">
        <ele>312.1</ele>
        <time>2022-08-01T14:42:53Z</time>
      </trkpt>
      <trkpt lat="45.80806" lon="1.52853">
        <ele>312</ele>
        <time>2022-08-01T14:42:55Z</time>
      </trkpt>
      <trkpt lat="45.80809" lon="1.52861">
        <ele>311.2</ele>
        <time>2022-08-01T14:42:59Z</time>
      </trkpt>
      <trkpt lat="45.80811" lon="1.52866">
        <ele>310.7</ele>
        <time>2022-08-01T14:43:01Z</time>
      </trkpt>
      <trkpt lat="45.80813" lon="1.5287">
        <ele>310.2</ele>
        <time>2022-08-01T14:43:03Z</time>
      </trkpt>
      <trkpt lat="45.80815" lon="1.52874">
        <ele>309.8</ele>
        <time>2022-08-01T14:43:05Z</time>
      </trkpt>
      <trkpt lat="45.80816" lon="1.52878">
        <ele>309.4</ele>
        <time>2022-08-01T14:43:07Z</time>
      </trkpt>
      <trkpt lat="45.80818" lon="1.52882">
        <ele>308.9</ele>
        <time>2022-08-01T14:43:09Z</time>
      </trkpt>
      <trkpt lat="45.8082" lon="1.52886">
        <ele>308.5</ele>
        <time>2022-08-01T14:43:11Z</time>
      </trkpt>
      <trkpt lat="45.80823" lon="1.5289">
        <ele>308.3</ele>
        <time>2022-08-01T14:43:13Z</time>
      </trkpt>
      <trkpt lat="45.80824" lon="1.52894">
        <ele>307.5</ele>
        <time>2022-08-01T14:43:15Z</time>
      </trkpt>
      <trkpt lat="45.80825" lon="1.52899">
        <ele>306.9</ele>
        <time>2022-08-01T14:43:17Z</time>
      </trkpt>
      <trkpt lat="45.80826" lon="1.52904">
        <ele>306.2</ele>
        <time>2022-08-01T14:43:19Z</time>
      </trkpt>
      <trkpt lat="45.80827" lon="1.52907">
        <ele>305.7</ele>
        <time>2022-08-01T14:43:21Z</time>
      </trkpt>
      <trkpt lat="45.80829" lon="1.52912">
        <ele>305.1</ele>
        <time>2022-08-01T14:43:23Z</time>
      </trkpt>
      <trkpt lat="45.80832" lon="1.52916">
        <ele>304.7</ele>
        <time>2022-08-01T14:43:25Z</time>
      </trkpt>
      <trkpt lat="45.80831" lon="1.52921">
        <ele>304.6</ele>
        <time>2022-08-01T14:43:27Z</time>
      </trkpt>
      <trkpt lat="45.80833" lon="1.52926">
        <ele>304.9</ele>
        <time>2022-08-01T14:43:29Z</time>
      </trkpt>
      <trkpt lat="45.80832" lon="1.52931">
        <ele>304.7</ele>
        <time>2022-08-01T14:43:31Z</time>
      </trkpt>
      <trkpt lat="45.80832" lon="1.52937">
        <ele>304.8</ele>
        <time>2022-08-01T14:43:33Z</time>
      </trkpt>
      <trkpt lat="45.80833" lon="1.52941">
        <ele>304.9</ele>
        <time>2022-08-01T14:43:35Z</time>
      </trkpt>
      <trkpt lat="45.80834" lon="1.52946">
        <ele>305.3</ele>
        <time>2022-08-01T14:43:37Z</time>
      </trkpt>
      <trkpt lat="45.80834" lon="1.52951">
        <ele>305.2</ele>
        <time>2022-08-01T14:43:39Z</time>
      </trkpt>
      <trkpt lat="45.80834" lon="1.52955">
        <ele>305.1</ele>
        <time>2022-08-01T14:43:41Z</time>
      </trkpt>
      <trkpt lat="45.80833" lon="1.52959">
        <ele>305</ele>
        <time>2022-08-01T14:43:43Z</time>
      </trkpt>
      <trkpt lat="45.80832" lon="1.52964">
        <ele>304.7</ele>
        <time>2022-08-01T14:43:45Z</time>
      </trkpt>
      <trkpt lat="45.80832" lon="1.52966">
        <ele>304.7</ele>
        <time>2022-08-01T14:43:47Z</time>
      </trkpt>
      <trkpt lat="45.80832" lon="1.52971">
        <ele>304.7</ele>
        <time>2022-08-01T14:43:49Z</time>
      </trkpt>
      <trkpt lat="45.80832" lon="1.52975">
        <ele>304.8</ele>
        <time>2022-08-01T14:43:51Z</time>
      </trkpt>
      <trkpt lat="45.8083" lon="1.52982">
        <ele>304.5</ele>
        <time>2022-08-01T14:43:53Z</time>
      </trkpt>
      <trkpt lat="45.8083" lon="1.52986">
        <ele>304.4</ele>
        <time>2022-08-01T14:43:55Z</time>
      </trkpt>
      <trkpt lat="45.80829" lon="1.52989">
        <ele>304.3</ele>
        <time>2022-08-01T14:43:57Z</time>
      </trkpt>
      <trkpt lat="45.80828" lon="1.52993">
        <ele>304.1</ele>
        <time>2022-08-01T14:43:59Z</time>
      </trkpt>
      <trkpt lat="45.80828" lon="1.52998">
        <ele>304.1</ele>
        <time>2022-08-01T14:44:01Z</time>
      </trkpt>
      <trkpt lat="45.80828" lon="1.53002">
        <ele>304.3</ele>
        <time>2022-08-01T14:44:03Z</time>
      </trkpt>
      <trkpt lat="45.80826" lon="1.53011">
        <ele>304.5</ele>
        <time>2022-08-01T14:44:07Z</time>
      </trkpt>
      <trkpt lat="45.80826" lon="1.53016">
        <ele>304.8</ele>
        <time>2022-08-01T14:44:09Z</time>
      </trkpt>
      <trkpt lat="45.80825" lon="1.53021">
        <ele>304.8</ele>
        <time>2022-08-01T14:44:11Z</time>
      </trkpt>
      <trkpt lat="45.80824" lon="1.53026">
        <ele>305</ele>
        <time>2022-08-01T14:44:13Z</time>
      </trkpt>
      <trkpt lat="45.80823" lon="1.53031">
        <ele>305.1</ele>
        <time>2022-08-01T14:44:15Z</time>
      </trkpt>
      <trkpt lat="45.80822" lon="1.53036">
        <ele>305.2</ele>
        <time>2022-08-01T14:44:17Z</time>
      </trkpt>
      <trkpt lat="45.8082" lon="1.5304">
        <ele>305.1</ele>
        <time>2022-08-01T14:44:19Z</time>
      </trkpt>
      <trkpt lat="45.80819" lon="1.53046">
        <ele>305.2</ele>
        <time>2022-08-01T14:44:21Z</time>
      </trkpt>
      <trkpt lat="45.80818" lon="1.53051">
        <ele>305.3</ele>
        <time>2022-08-01T14:44:23Z</time>
      </trkpt>
      <trkpt lat="45.80818" lon="1.53056">
        <ele>305.4</ele>
        <time>2022-08-01T14:44:25Z</time>
      </trkpt>
      <trkpt lat="45.80817" lon="1.5306">
        <ele>305.5</ele>
        <time>2022-08-01T14:44:27Z</time>
      </trkpt>
      <trkpt lat="45.80818" lon="1.53066">
        <ele>305.9</ele>
        <time>2022-08-01T14:44:29Z</time>
      </trkpt>
      <trkpt lat="45.80818" lon="1.5307">
        <ele>306.2</ele>
        <time>2022-08-01T14:44:31Z</time>
      </trkpt>
      <trkpt lat="45.8082" lon="1.53075">
        <ele>306.9</ele>
        <time>2022-08-01T14:44:33Z</time>
      </trkpt>
      <trkpt lat="45.8082" lon="1.53079">
        <ele>307.3</ele>
        <time>2022-08-01T14:44:35Z</time>
      </trkpt>
      <trkpt lat="45.80821" lon="1.53085">
        <ele>307.7</ele>
        <time>2022-08-01T14:44:37Z</time>
      </trkpt>
      <trkpt lat="45.80821" lon="1.5309">
        <ele>307.9</ele>
        <time>2022-08-01T14:44:39Z</time>
      </trkpt>
      <trkpt lat="45.80821" lon="1.53096">
        <ele>307.8</ele>
        <time>2022-08-01T14:44:41Z</time>
      </trkpt>
      <trkpt lat="45.80822" lon="1.531">
        <ele>308.1</ele>
        <time>2022-08-01T14:44:43Z</time>
      </trkpt>
      <trkpt lat="45.80822" lon="1.53104">
        <ele>308.1</ele>
        <time>2022-08-01T14:44:45Z</time>
      </trkpt>
      <trkpt lat="45.80822" lon="1.5311">
        <ele>308.3</ele>
        <time>2022-08-01T14:44:47Z</time>
      </trkpt>
      <trkpt lat="45.80822" lon="1.53115">
        <ele>308.3</ele>
        <time>2022-08-01T14:44:49Z</time>
      </trkpt>
      <trkpt lat="45.80822" lon="1.5312">
        <ele>308.3</ele>
        <time>2022-08-01T14:44:51Z</time>
      </trkpt>
      <trkpt lat="45.80821" lon="1.53125">
        <ele>308.2</ele>
        <time>2022-08-01T14:44:53Z</time>
      </trkpt>
      <trkpt lat="45.80821" lon="1.53129">
        <ele>308.1</ele>
        <time>2022-08-01T14:44:55Z</time>
      </trkpt>
      <trkpt lat="45.80821" lon="1.53134">
        <ele>308.4</ele>
        <time>2022-08-01T14:44:57Z</time>
      </trkpt>
      <trkpt lat="45.80822" lon="1.53138">
        <ele>308.5</ele>
        <time>2022-08-01T14:44:59Z</time>
      </trkpt>
      <trkpt lat="45.80822" lon="1.53143">
        <ele>308.6</ele>
        <time>2022-08-01T14:45:01Z</time>
      </trkpt>
      <trkpt lat="45.80822" lon="1.53148">
        <ele>308.6</ele>
        <time>2022-08-01T14:45:03Z</time>
      </trkpt>
      <trkpt lat="45.80823" lon="1.53152">
        <ele>308.9</ele>
        <time>2022-08-01T14:45:05Z</time>
      </trkpt>
      <trkpt lat="45.80822" lon="1.53157">
        <ele>308.9</ele>
        <time>2022-08-01T14:45:07Z</time>
      </trkpt>
      <trkpt lat="45.80832" lon="1.53205">
        <ele>310.8</ele>
        <time>2022-08-01T14:45:27Z</time>
      </trkpt>
      <trkpt lat="45.80833" lon="1.5321">
        <ele>310.9</ele>
        <time>2022-08-01T14:45:29Z</time>
      </trkpt>
      <trkpt lat="45.80833" lon="1.53214">
        <ele>310.8</ele>
        <time>2022-08-01T14:45:31Z</time>
      </trkpt>
      <trkpt lat="45.80835" lon="1.53217">
        <ele>311.4</ele>
        <time>2022-08-01T14:45:33Z</time>
      </trkpt>
      <trkpt lat="45.80836" lon="1.53221">
        <ele>311.7</ele>
        <time>2022-08-01T14:45:35Z</time>
      </trkpt>
      <trkpt lat="45.80837" lon="1.53227">
        <ele>311.8</ele>
        <time>2022-08-01T14:45:37Z</time>
      </trkpt>
      <trkpt lat="45.8084" lon="1.53233">
        <ele>312.4</ele>
        <time>2022-08-01T14:45:39Z</time>
      </trkpt>
      <trkpt lat="45.80842" lon="1.53237">
        <ele>313</ele>
        <time>2022-08-01T14:45:41Z</time>
      </trkpt>
      <trkpt lat="45.80843" lon="1.53242">
        <ele>313.4</ele>
        <time>2022-08-01T14:45:43Z</time>
      </trkpt>
      <trkpt lat="45.80845" lon="1.53247">
        <ele>313.9</ele>
        <time>2022-08-01T14:45:45Z</time>
      </trkpt>
      <trkpt lat="45.80848" lon="1.53252">
        <ele>314.6</ele>
        <time>2022-08-01T14:45:47Z</time>
      </trkpt>
      <trkpt lat="45.80851" lon="1.53258">
        <ele>315.1</ele>
        <time>2022-08-01T14:45:49Z</time>
      </trkpt>
      <trkpt lat="45.80856" lon="1.53264">
        <ele>316</ele>
        <time>2022-08-01T14:45:51Z</time>
      </trkpt>
      <trkpt lat="45.8086" lon="1.53271">
        <ele>316.8</ele>
        <time>2022-08-01T14:45:53Z</time>
      </trkpt>
      <trkpt lat="45.80863" lon="1.53278">
        <ele>317.4</ele>
        <time>2022-08-01T14:45:55Z</time>
      </trkpt>
      <trkpt lat="45.80866" lon="1.53287">
        <ele>317.9</ele>
        <time>2022-08-01T14:45:57Z</time>
      </trkpt>
      <trkpt lat="45.80869" lon="1.53295">
        <ele>318.3</ele>
        <time>2022-08-01T14:45:59Z</time>
      </trkpt>
      <trkpt lat="45.80873" lon="1.53304">
        <ele>319.3</ele>
        <time>2022-08-01T14:46:01Z</time>
      </trkpt>
      <trkpt lat="45.80876" lon="1.53315">
        <ele>319.7</ele>
        <time>2022-08-01T14:46:03Z</time>
      </trkpt>
      <trkpt lat="45.80879" lon="1.53327">
        <ele>319.8</ele>
        <time>2022-08-01T14:46:05Z</time>
      </trkpt>
      <trkpt lat="45.8088" lon="1.53337">
        <ele>319.6</ele>
        <time>2022-08-01T14:46:07Z</time>
      </trkpt>
      <trkpt lat="45.8088" lon="1.53353">
        <ele>318.3</ele>
        <time>2022-08-01T14:46:09Z</time>
      </trkpt>
      <trkpt lat="45.80881" lon="1.5337">
        <ele>317.2</ele>
        <time>2022-08-01T14:46:11Z</time>
      </trkpt>
      <trkpt lat="45.80882" lon="1.53386">
        <ele>316.3</ele>
        <time>2022-08-01T14:46:13Z</time>
      </trkpt>
      <trkpt lat="45.80883" lon="1.53403">
        <ele>315.2</ele>
        <time>2022-08-01T14:46:15Z</time>
      </trkpt>
      <trkpt lat="45.80883" lon="1.53422">
        <ele>313.7</ele>
        <time>2022-08-01T14:46:17Z</time>
      </trkpt>
      <trkpt lat="45.80884" lon="1.5344">
        <ele>313.3</ele>
        <time>2022-08-01T14:46:19Z</time>
      </trkpt>
      <trkpt lat="45.80884" lon="1.53455">
        <ele>312.7</ele>
        <time>2022-08-01T14:46:21Z</time>
      </trkpt>
      <trkpt lat="45.80885" lon="1.53472">
        <ele>312.3</ele>
        <time>2022-08-01T14:46:23Z</time>
      </trkpt>
      <trkpt lat="45.80887" lon="1.53488">
        <ele>312</ele>
        <time>2022-08-01T14:46:25Z</time>
      </trkpt>
      <trkpt lat="45.80889" lon="1.53503">
        <ele>311.8</ele>
        <time>2022-08-01T14:46:27Z</time>
      </trkpt>
      <trkpt lat="45.80891" lon="1.53518">
        <ele>311.4</ele>
        <time>2022-08-01T14:46:29Z</time>
      </trkpt>
      <trkpt lat="45.80895" lon="1.53531">
        <ele>311.4</ele>
        <time>2022-08-01T14:46:31Z</time>
      </trkpt>
      <trkpt lat="45.80899" lon="1.53542">
        <ele>311.4</ele>
        <time>2022-08-01T14:46:33Z</time>
      </trkpt>
      <trkpt lat="45.80903" lon="1.53554">
        <ele>311.4</ele>
        <time>2022-08-01T14:46:35Z</time>
      </trkpt>
      <trkpt lat="45.80905" lon="1.53566">
        <ele>311.1</ele>
        <time>2022-08-01T14:46:37Z</time>
      </trkpt>
      <trkpt lat="45.80907" lon="1.5358">
        <ele>310.3</ele>
        <time>2022-08-01T14:46:39Z</time>
      </trkpt>
      <trkpt lat="45.80904" lon="1.53594">
        <ele>310.2</ele>
        <time>2022-08-01T14:46:41Z</time>
      </trkpt>
      <trkpt lat="45.80896" lon="1.53603">
        <ele>309.1</ele>
        <time>2022-08-01T14:46:43Z</time>
      </trkpt>
      <trkpt lat="45.80888" lon="1.53608">
        <ele>307.9</ele>
        <time>2022-08-01T14:46:45Z</time>
      </trkpt>
      <trkpt lat="45.80879" lon="1.53614">
        <ele>306.3</ele>
        <time>2022-08-01T14:46:47Z</time>
      </trkpt>
      <trkpt lat="45.80872" lon="1.5362">
        <ele>305.1</ele>
        <time>2022-08-01T14:46:49Z</time>
      </trkpt>
      <trkpt lat="45.80866" lon="1.53628">
        <ele>304.2</ele>
        <time>2022-08-01T14:46:51Z</time>
      </trkpt>
      <trkpt lat="45.80862" lon="1.53636">
        <ele>303.6</ele>
        <time>2022-08-01T14:46:53Z</time>
      </trkpt>
      <trkpt lat="45.80858" lon="1.53645">
        <ele>303.1</ele>
        <time>2022-08-01T14:46:55Z</time>
      </trkpt>
      <trkpt lat="45.80856" lon="1.53654">
        <ele>303.1</ele>
        <time>2022-08-01T14:46:57Z</time>
      </trkpt>
      <trkpt lat="45.80854" lon="1.53664">
        <ele>303.2</ele>
        <time>2022-08-01T14:46:59Z</time>
      </trkpt>
      <trkpt lat="45.80853" lon="1.53674">
        <ele>303.3</ele>
        <time>2022-08-01T14:47:01Z</time>
      </trkpt>
      <trkpt lat="45.80853" lon="1.53683">
        <ele>303.7</ele>
        <time>2022-08-01T14:47:03Z</time>
      </trkpt>
      <trkpt lat="45.80852" lon="1.53693">
        <ele>304</ele>
        <time>2022-08-01T14:47:05Z</time>
      </trkpt>
      <trkpt lat="45.80851" lon="1.53704">
        <ele>304.2</ele>
        <time>2022-08-01T14:47:07Z</time>
      </trkpt>
      <trkpt lat="45.8085" lon="1.53715">
        <ele>304.4</ele>
        <time>2022-08-01T14:47:09Z</time>
      </trkpt>
      <trkpt lat="45.80849" lon="1.53724">
        <ele>304.6</ele>
        <time>2022-08-01T14:47:11Z</time>
      </trkpt>
      <trkpt lat="45.8085" lon="1.53732">
        <ele>305.2</ele>
        <time>2022-08-01T14:47:13Z</time>
      </trkpt>
      <trkpt lat="45.8085" lon="1.53742">
        <ele>305.5</ele>
        <time>2022-08-01T14:47:15Z</time>
      </trkpt>
      <trkpt lat="45.8085" lon="1.5375">
        <ele>306</ele>
        <time>2022-08-01T14:47:17Z</time>
      </trkpt>
      <trkpt lat="45.8085" lon="1.53759">
        <ele>306.3</ele>
        <time>2022-08-01T14:47:19Z</time>
      </trkpt>
      <trkpt lat="45.80849" lon="1.5377">
        <ele>306.1</ele>
        <time>2022-08-01T14:47:21Z</time>
      </trkpt>
      <trkpt lat="45.80848" lon="1.53779">
        <ele>306</ele>
        <time>2022-08-01T14:47:23Z</time>
      </trkpt>
      <trkpt lat="45.80848" lon="1.53788">
        <ele>306.4</ele>
        <time>2022-08-01T14:47:25Z</time>
      </trkpt>
      <trkpt lat="45.80848" lon="1.53795">
        <ele>306.3</ele>
        <time>2022-08-01T14:47:27Z</time>
      </trkpt>
      <trkpt lat="45.80846" lon="1.53804">
        <ele>306</ele>
        <time>2022-08-01T14:47:29Z</time>
      </trkpt>
      <trkpt lat="45.80846" lon="1.53812">
        <ele>306.1</ele>
        <time>2022-08-01T14:47:31Z</time>
      </trkpt>
      <trkpt lat="45.80846" lon="1.53821">
        <ele>306.5</ele>
        <time>2022-08-01T14:47:33Z</time>
      </trkpt>
      <trkpt lat="45.80846" lon="1.5383">
        <ele>306.8</ele>
        <time>2022-08-01T14:47:35Z</time>
      </trkpt>
      <trkpt lat="45.80846" lon="1.53839">
        <ele>306.7</ele>
        <time>2022-08-01T14:47:37Z</time>
      </trkpt>
      <trkpt lat="45.80844" lon="1.53849">
        <ele>306</ele>
        <time>2022-08-01T14:47:39Z</time>
      </trkpt>
      <trkpt lat="45.80843" lon="1.53858">
        <ele>305.7</ele>
        <time>2022-08-01T14:47:41Z</time>
      </trkpt>
      <trkpt lat="45.80842" lon="1.53868">
        <ele>305.3</ele>
        <time>2022-08-01T14:47:43Z</time>
      </trkpt>
      <trkpt lat="45.80842" lon="1.53877">
        <ele>304.9</ele>
        <time>2022-08-01T14:47:45Z</time>
      </trkpt>
      <trkpt lat="45.8084" lon="1.53887">
        <ele>304.4</ele>
        <time>2022-08-01T14:47:47Z</time>
      </trkpt>
      <trkpt lat="45.80839" lon="1.53898">
        <ele>304.2</ele>
        <time>2022-08-01T14:47:49Z</time>
      </trkpt>
      <trkpt lat="45.80841" lon="1.5391">
        <ele>304.6</ele>
        <time>2022-08-01T14:47:51Z</time>
      </trkpt>
      <trkpt lat="45.80842" lon="1.5392">
        <ele>304.9</ele>
        <time>2022-08-01T14:47:53Z</time>
      </trkpt>
      <trkpt lat="45.80845" lon="1.53929">
        <ele>305.7</ele>
        <time>2022-08-01T14:47:55Z</time>
      </trkpt>
      <trkpt lat="45.80851" lon="1.5394">
        <ele>307.6</ele>
        <time>2022-08-01T14:47:57Z</time>
      </trkpt>
      <trkpt lat="45.80856" lon="1.53951">
        <ele>308.7</ele>
        <time>2022-08-01T14:47:59Z</time>
      </trkpt>
      <trkpt lat="45.80862" lon="1.53964">
        <ele>309.9</ele>
        <time>2022-08-01T14:48:01Z</time>
      </trkpt>
      <trkpt lat="45.80868" lon="1.53979">
        <ele>310.5</ele>
        <time>2022-08-01T14:48:03Z</time>
      </trkpt>
      <trkpt lat="45.80869" lon="1.53997">
        <ele>309.9</ele>
        <time>2022-08-01T14:48:05Z</time>
      </trkpt>
      <trkpt lat="45.80865" lon="1.54014">
        <ele>309.5</ele>
        <time>2022-08-01T14:48:07Z</time>
      </trkpt>
      <trkpt lat="45.80856" lon="1.54024">
        <ele>308.2</ele>
        <time>2022-08-01T14:48:09Z</time>
      </trkpt>
      <trkpt lat="45.80846" lon="1.54029">
        <ele>306.5</ele>
        <time>2022-08-01T14:48:11Z</time>
      </trkpt>
      <trkpt lat="45.80841" lon="1.54033">
        <ele>305.8</ele>
        <time>2022-08-01T14:48:13Z</time>
      </trkpt>
      <trkpt lat="45.80837" lon="1.54037">
        <ele>305.3</ele>
        <time>2022-08-01T14:48:15Z</time>
      </trkpt>
      <trkpt lat="45.80832" lon="1.54041">
        <ele>304.8</ele>
        <time>2022-08-01T14:48:17Z</time>
      </trkpt>
      <trkpt lat="45.80829" lon="1.54047">
        <ele>304.7</ele>
        <time>2022-08-01T14:48:19Z</time>
      </trkpt>
      <trkpt lat="45.80826" lon="1.54053">
        <ele>304.6</ele>
        <time>2022-08-01T14:48:21Z</time>
      </trkpt>
      <trkpt lat="45.80823" lon="1.5406">
        <ele>304.5</ele>
        <time>2022-08-01T14:48:23Z</time>
      </trkpt>
      <trkpt lat="45.80821" lon="1.54068">
        <ele>304.7</ele>
        <time>2022-08-01T14:48:25Z</time>
      </trkpt>
      <trkpt lat="45.8082" lon="1.54075">
        <ele>304.9</ele>
        <time>2022-08-01T14:48:27Z</time>
      </trkpt>
      <trkpt lat="45.80818" lon="1.54083">
        <ele>305.1</ele>
        <time>2022-08-01T14:48:29Z</time>
      </trkpt>
      <trkpt lat="45.80817" lon="1.54092">
        <ele>304.7</ele>
        <time>2022-08-01T14:48:31Z</time>
      </trkpt>
      <trkpt lat="45.80817" lon="1.541">
        <ele>304.5</ele>
        <time>2022-08-01T14:48:33Z</time>
      </trkpt>
      <trkpt lat="45.80819" lon="1.54108">
        <ele>304.6</ele>
        <time>2022-08-01T14:48:35Z</time>
      </trkpt>
      <trkpt lat="45.8082" lon="1.54116">
        <ele>304.6</ele>
        <time>2022-08-01T14:48:37Z</time>
      </trkpt>
      <trkpt lat="45.8082" lon="1.54124">
        <ele>304.4</ele>
        <time>2022-08-01T14:48:39Z</time>
      </trkpt>
      <trkpt lat="45.80821" lon="1.5413">
        <ele>304.3</ele>
        <time>2022-08-01T14:48:41Z</time>
      </trkpt>
      <trkpt lat="45.80822" lon="1.54137">
        <ele>304.2</ele>
        <time>2022-08-01T14:48:43Z</time>
      </trkpt>
      <trkpt lat="45.80824" lon="1.54143">
        <ele>304.2</ele>
        <time>2022-08-01T14:48:45Z</time>
      </trkpt>
      <trkpt lat="45.80826" lon="1.5415">
        <ele>304.1</ele>
        <time>2022-08-01T14:48:47Z</time>
      </trkpt>
      <trkpt lat="45.80829" lon="1.54155">
        <ele>304.3</ele>
        <time>2022-08-01T14:48:49Z</time>
      </trkpt>
      <trkpt lat="45.80832" lon="1.54159">
        <ele>304.3</ele>
        <time>2022-08-01T14:48:51Z</time>
      </trkpt>
      <trkpt lat="45.80836" lon="1.5416">
        <ele>304.9</ele>
        <time>2022-08-01T14:48:53Z</time>
      </trkpt>
      <trkpt lat="45.8084" lon="1.54162">
        <ele>305.5</ele>
        <time>2022-08-01T14:48:55Z</time>
      </trkpt>
      <trkpt lat="45.80844" lon="1.54163">
        <ele>306.3</ele>
        <time>2022-08-01T14:48:57Z</time>
      </trkpt>
      <trkpt lat="45.80847" lon="1.54163">
        <ele>307</ele>
        <time>2022-08-01T14:48:59Z</time>
      </trkpt>
      <trkpt lat="45.80851" lon="1.54163">
        <ele>307.8</ele>
        <time>2022-08-01T14:49:01Z</time>
      </trkpt>
      <trkpt lat="45.80855" lon="1.54163">
        <ele>308.5</ele>
        <time>2022-08-01T14:49:03Z</time>
      </trkpt>
      <trkpt lat="45.80859" lon="1.54163">
        <ele>309.3</ele>
        <time>2022-08-01T14:49:05Z</time>
      </trkpt>
      <trkpt lat="45.80862" lon="1.54164">
        <ele>309.9</ele>
        <time>2022-08-01T14:49:07Z</time>
      </trkpt>
      <trkpt lat="45.80865" lon="1.54164">
        <ele>310.6</ele>
        <time>2022-08-01T14:49:09Z</time>
      </trkpt>
      <trkpt lat="45.80869" lon="1.54163">
        <ele>311.4</ele>
        <time>2022-08-01T14:49:11Z</time>
      </trkpt>
      <trkpt lat="45.80873" lon="1.54163">
        <ele>312.1</ele>
        <time>2022-08-01T14:49:13Z</time>
      </trkpt>
      <trkpt lat="45.80876" lon="1.54163">
        <ele>312.8</ele>
        <time>2022-08-01T14:49:15Z</time>
      </trkpt>
      <trkpt lat="45.8088" lon="1.54163">
        <ele>313.6</ele>
        <time>2022-08-01T14:49:17Z</time>
      </trkpt>
      <trkpt lat="45.80883" lon="1.54162">
        <ele>314.3</ele>
        <time>2022-08-01T14:49:19Z</time>
      </trkpt>
      <trkpt lat="45.80887" lon="1.54161">
        <ele>315</ele>
        <time>2022-08-01T14:49:21Z</time>
      </trkpt>
      <trkpt lat="45.80892" lon="1.54161">
        <ele>315.9</ele>
        <time>2022-08-01T14:49:23Z</time>
      </trkpt>
      <trkpt lat="45.80896" lon="1.54161">
        <ele>316.8</ele>
        <time>2022-08-01T14:49:25Z</time>
      </trkpt>
      <trkpt lat="45.809" lon="1.54161">
        <ele>317.5</ele>
        <time>2022-08-01T14:49:27Z</time>
      </trkpt>
      <trkpt lat="45.80903" lon="1.54163">
        <ele>318.3</ele>
        <time>2022-08-01T14:49:29Z</time>
      </trkpt>
      <trkpt lat="45.80908" lon="1.54164">
        <ele>319.1</ele>
        <time>2022-08-01T14:49:31Z</time>
      </trkpt>
      <trkpt lat="45.80912" lon="1.54166">
        <ele>320</ele>
        <time>2022-08-01T14:49:33Z</time>
      </trkpt>
      <trkpt lat="45.80916" lon="1.5417">
        <ele>320</ele>
        <time>2022-08-01T14:49:35Z</time>
      </trkpt>
      <trkpt lat="45.8092" lon="1.54175">
        <ele>320</ele>
        <time>2022-08-01T14:49:37Z</time>
      </trkpt>
      <trkpt lat="45.80925" lon="1.5418">
        <ele>319.7</ele>
        <time>2022-08-01T14:49:39Z</time>
      </trkpt>
      <trkpt lat="45.80929" lon="1.54188">
        <ele>319</ele>
        <time>2022-08-01T14:49:41Z</time>
      </trkpt>
      <trkpt lat="45.80934" lon="1.54197">
        <ele>318.5</ele>
        <time>2022-08-01T14:49:43Z</time>
      </trkpt>
      <trkpt lat="45.80938" lon="1.54208">
        <ele>317.3</ele>
        <time>2022-08-01T14:49:45Z</time>
      </trkpt>
      <trkpt lat="45.80944" lon="1.54222">
        <ele>316.3</ele>
        <time>2022-08-01T14:49:47Z</time>
      </trkpt>
      <trkpt lat="45.80949" lon="1.54236">
        <ele>315.3</ele>
        <time>2022-08-01T14:49:49Z</time>
      </trkpt>
      <trkpt lat="45.80951" lon="1.5425">
        <ele>313.4</ele>
        <time>2022-08-01T14:49:51Z</time>
      </trkpt>
      <trkpt lat="45.80953" lon="1.54265">
        <ele>313.2</ele>
        <time>2022-08-01T14:49:53Z</time>
      </trkpt>
      <trkpt lat="45.80953" lon="1.54282">
        <ele>312.3</ele>
        <time>2022-08-01T14:49:55Z</time>
      </trkpt>
      <trkpt lat="45.80954" lon="1.543">
        <ele>311.7</ele>
        <time>2022-08-01T14:49:57Z</time>
      </trkpt>
      <trkpt lat="45.80954" lon="1.54319">
        <ele>310.8</ele>
        <time>2022-08-01T14:49:59Z</time>
      </trkpt>
      <trkpt lat="45.80954" lon="1.54337">
        <ele>309.8</ele>
        <time>2022-08-01T14:50:01Z</time>
      </trkpt>
      <trkpt lat="45.80954" lon="1.54353">
        <ele>309.1</ele>
        <time>2022-08-01T14:50:03Z</time>
      </trkpt>
      <trkpt lat="45.80955" lon="1.54369">
        <ele>308.6</ele>
        <time>2022-08-01T14:50:05Z</time>
      </trkpt>
      <trkpt lat="45.80959" lon="1.54384">
        <ele>308.3</ele>
        <time>2022-08-01T14:50:07Z</time>
      </trkpt>
      <trkpt lat="45.80962" lon="1.544">
        <ele>307.8</ele>
        <time>2022-08-01T14:50:09Z</time>
      </trkpt>
      <trkpt lat="45.8097" lon="1.54413">
        <ele>307.8</ele>
        <time>2022-08-01T14:50:11Z</time>
      </trkpt>
      <trkpt lat="45.80979" lon="1.54427">
        <ele>307.7</ele>
        <time>2022-08-01T14:50:13Z</time>
      </trkpt>
      <trkpt lat="45.80991" lon="1.54439">
        <ele>307.7</ele>
        <time>2022-08-01T14:50:15Z</time>
      </trkpt>
      <trkpt lat="45.81001" lon="1.5445">
        <ele>307.4</ele>
        <time>2022-08-01T14:50:17Z</time>
      </trkpt>
      <trkpt lat="45.81008" lon="1.54462">
        <ele>307.4</ele>
        <time>2022-08-01T14:50:19Z</time>
      </trkpt>
      <trkpt lat="45.81012" lon="1.54477">
        <ele>306.7</ele>
        <time>2022-08-01T14:50:21Z</time>
      </trkpt>
      <trkpt lat="45.81011" lon="1.54494">
        <ele>305</ele>
        <time>2022-08-01T14:50:23Z</time>
      </trkpt>
      <trkpt lat="45.81009" lon="1.54509">
        <ele>305.2</ele>
        <time>2022-08-01T14:50:25Z</time>
      </trkpt>
      <trkpt lat="45.81005" lon="1.54518">
        <ele>305.9</ele>
        <time>2022-08-01T14:50:27Z</time>
      </trkpt>
      <trkpt lat="45.80998" lon="1.54524">
        <ele>306.2</ele>
        <time>2022-08-01T14:50:29Z</time>
      </trkpt>
      <trkpt lat="45.80992" lon="1.54526">
        <ele>306.7</ele>
        <time>2022-08-01T14:50:31Z</time>
      </trkpt>
      <trkpt lat="45.80986" lon="1.54527">
        <ele>307.1</ele>
        <time>2022-08-01T14:50:33Z</time>
      </trkpt>
      <trkpt lat="45.8098" lon="1.54525">
        <ele>307</ele>
        <time>2022-08-01T14:50:35Z</time>
      </trkpt>
      <trkpt lat="45.80975" lon="1.54523">
        <ele>307.1</ele>
        <time>2022-08-01T14:50:37Z</time>
      </trkpt>
      <trkpt lat="45.8097" lon="1.54521">
        <ele>307</ele>
        <time>2022-08-01T14:50:39Z</time>
      </trkpt>
      <trkpt lat="45.80965" lon="1.54519">
        <ele>307</ele>
        <time>2022-08-01T14:50:41Z</time>
      </trkpt>
      <trkpt lat="45.8096" lon="1.54517">
        <ele>306.9</ele>
        <time>2022-08-01T14:50:43Z</time>
      </trkpt>
      <trkpt lat="45.80956" lon="1.54513">
        <ele>306.7</ele>
        <time>2022-08-01T14:50:45Z</time>
      </trkpt>
      <trkpt lat="45.80951" lon="1.54511">
        <ele>306.6</ele>
        <time>2022-08-01T14:50:47Z</time>
      </trkpt>
      <trkpt lat="45.80947" lon="1.54509">
        <ele>306.6</ele>
        <time>2022-08-01T14:50:49Z</time>
      </trkpt>
      <trkpt lat="45.80942" lon="1.54506">
        <ele>306.4</ele>
        <time>2022-08-01T14:50:51Z</time>
      </trkpt>
      <trkpt lat="45.80938" lon="1.54503">
        <ele>306.3</ele>
        <time>2022-08-01T14:50:53Z</time>
      </trkpt>
      <trkpt lat="45.80934" lon="1.54501">
        <ele>306.3</ele>
        <time>2022-08-01T14:50:55Z</time>
      </trkpt>
      <trkpt lat="45.80929" lon="1.54499">
        <ele>306.4</ele>
        <time>2022-08-01T14:50:57Z</time>
      </trkpt>
      <trkpt lat="45.80923" lon="1.54496">
        <ele>306.5</ele>
        <time>2022-08-01T14:50:59Z</time>
      </trkpt>
      <trkpt lat="45.80918" lon="1.54493">
        <ele>306.6</ele>
        <time>2022-08-01T14:51:01Z</time>
      </trkpt>
      <trkpt lat="45.80912" lon="1.54488">
        <ele>307.6</ele>
        <time>2022-08-01T14:51:03Z</time>
      </trkpt>
      <trkpt lat="45.80907" lon="1.54484">
        <ele>308.9</ele>
        <time>2022-08-01T14:51:05Z</time>
      </trkpt>
      <trkpt lat="45.80903" lon="1.54478">
        <ele>309.4</ele>
        <time>2022-08-01T14:51:07Z</time>
      </trkpt>
      <trkpt lat="45.80899" lon="1.5447">
        <ele>310.2</ele>
        <time>2022-08-01T14:51:09Z</time>
      </trkpt>
      <trkpt lat="45.80895" lon="1.54462">
        <ele>310.8</ele>
        <time>2022-08-01T14:51:11Z</time>
      </trkpt>
      <trkpt lat="45.80891" lon="1.54457">
        <ele>311.5</ele>
        <time>2022-08-01T14:51:13Z</time>
      </trkpt>
      <trkpt lat="45.80888" lon="1.54449">
        <ele>312</ele>
        <time>2022-08-01T14:51:15Z</time>
      </trkpt>
      <trkpt lat="45.80885" lon="1.5444">
        <ele>312.3</ele>
        <time>2022-08-01T14:51:17Z</time>
      </trkpt>
      <trkpt lat="45.80882" lon="1.54427">
        <ele>312.2</ele>
        <time>2022-08-01T14:51:19Z</time>
      </trkpt>
      <trkpt lat="45.8088" lon="1.54415">
        <ele>312.1</ele>
        <time>2022-08-01T14:51:21Z</time>
      </trkpt>
      <trkpt lat="45.80878" lon="1.54404">
        <ele>311.7</ele>
        <time>2022-08-01T14:51:23Z</time>
      </trkpt>
      <trkpt lat="45.80876" lon="1.54393">
        <ele>311.3</ele>
        <time>2022-08-01T14:51:25Z</time>
      </trkpt>
      <trkpt lat="45.80875" lon="1.54382">
        <ele>310.6</ele>
        <time>2022-08-01T14:51:27Z</time>
      </trkpt>
      <trkpt lat="45.80875" lon="1.5437">
        <ele>309.5</ele>
        <time>2022-08-01T14:51:29Z</time>
      </trkpt>
      <trkpt lat="45.80876" lon="1.54358">
        <ele>308.4</ele>
        <time>2022-08-01T14:51:31Z</time>
      </trkpt>
      <trkpt lat="45.80876" lon="1.54347">
        <ele>307.5</ele>
        <time>2022-08-01T14:51:33Z</time>
      </trkpt>
      <trkpt lat="45.80875" lon="1.54338">
        <ele>306.8</ele>
        <time>2022-08-01T14:51:35Z</time>
      </trkpt>
      <trkpt lat="45.80875" lon="1.54329">
        <ele>306.1</ele>
        <time>2022-08-01T14:51:37Z</time>
      </trkpt>
      <trkpt lat="45.80873" lon="1.54319">
        <ele>305.6</ele>
        <time>2022-08-01T14:51:39Z</time>
      </trkpt>
      <trkpt lat="45.80869" lon="1.54311">
        <ele>305.2</ele>
        <time>2022-08-01T14:51:41Z</time>
      </trkpt>
      <trkpt lat="45.80864" lon="1.54305">
        <ele>304.9</ele>
        <time>2022-08-01T14:51:43Z</time>
      </trkpt>
      <trkpt lat="45.80857" lon="1.543">
        <ele>304.7</ele>
        <time>2022-08-01T14:51:45Z</time>
      </trkpt>
      <trkpt lat="45.80849" lon="1.54301">
        <ele>305</ele>
        <time>2022-08-01T14:51:47Z</time>
      </trkpt>
      <trkpt lat="45.80841" lon="1.54301">
        <ele>305.3</ele>
        <time>2022-08-01T14:51:49Z</time>
      </trkpt>
      <trkpt lat="45.80833" lon="1.54304">
        <ele>306.2</ele>
        <time>2022-08-01T14:51:51Z</time>
      </trkpt>
      <trkpt lat="45.80826" lon="1.54306">
        <ele>307.3</ele>
        <time>2022-08-01T14:51:53Z</time>
      </trkpt>
      <trkpt lat="45.80821" lon="1.54308">
        <ele>308.1</ele>
        <time>2022-08-01T14:51:55Z</time>
      </trkpt>
      <trkpt lat="45.80814" lon="1.5431">
        <ele>309.2</ele>
        <time>2022-08-01T14:51:57Z</time>
      </trkpt>
      <trkpt lat="45.80805" lon="1.54311">
        <ele>310.2</ele>
        <time>2022-08-01T14:51:59Z</time>
      </trkpt>
      <trkpt lat="45.80799" lon="1.54311">
        <ele>311</ele>
        <time>2022-08-01T14:52:01Z</time>
      </trkpt>
      <trkpt lat="45.80791" lon="1.5431">
        <ele>311.8</ele>
        <time>2022-08-01T14:52:03Z</time>
      </trkpt>
      <trkpt lat="45.80784" lon="1.54308">
        <ele>312.1</ele>
        <time>2022-08-01T14:52:05Z</time>
      </trkpt>
      <trkpt lat="45.80777" lon="1.54304">
        <ele>312.4</ele>
        <time>2022-08-01T14:52:07Z</time>
      </trkpt>
      <trkpt lat="45.8077" lon="1.543">
        <ele>312.6</ele>
        <time>2022-08-01T14:52:09Z</time>
      </trkpt>
      <trkpt lat="45.80762" lon="1.54296">
        <ele>313</ele>
        <time>2022-08-01T14:52:11Z</time>
      </trkpt>
      <trkpt lat="45.80756" lon="1.54291">
        <ele>313.2</ele>
        <time>2022-08-01T14:52:13Z</time>
      </trkpt>
      <trkpt lat="45.8075" lon="1.54285">
        <ele>313.3</ele>
        <time>2022-08-01T14:52:15Z</time>
      </trkpt>
      <trkpt lat="45.80743" lon="1.54277">
        <ele>313</ele>
        <time>2022-08-01T14:52:17Z</time>
      </trkpt>
      <trkpt lat="45.80739" lon="1.54266">
        <ele>312.3</ele>
        <time>2022-08-01T14:52:19Z</time>
      </trkpt>
      <trkpt lat="45.80737" lon="1.54252">
        <ele>310.9</ele>
        <time>2022-08-01T14:52:21Z</time>
      </trkpt>
      <trkpt lat="45.80738" lon="1.54239">
        <ele>309.2</ele>
        <time>2022-08-01T14:52:23Z</time>
      </trkpt>
      <trkpt lat="45.80739" lon="1.54225">
        <ele>307.3</ele>
        <time>2022-08-01T14:52:25Z</time>
      </trkpt>
      <trkpt lat="45.80739" lon="1.54215">
        <ele>305.9</ele>
        <time>2022-08-01T14:52:27Z</time>
      </trkpt>
      <trkpt lat="45.80738" lon="1.54203">
        <ele>304.5</ele>
        <time>2022-08-01T14:52:29Z</time>
      </trkpt>
      <trkpt lat="45.80734" lon="1.54192">
        <ele>303.3</ele>
        <time>2022-08-01T14:52:31Z</time>
      </trkpt>
      <trkpt lat="45.80731" lon="1.54181">
        <ele>302.1</ele>
        <time>2022-08-01T14:52:33Z</time>
      </trkpt>
      <trkpt lat="45.80726" lon="1.54172">
        <ele>301.2</ele>
        <time>2022-08-01T14:52:35Z</time>
      </trkpt>
      <trkpt lat="45.8072" lon="1.54162">
        <ele>300.3</ele>
        <time>2022-08-01T14:52:37Z</time>
      </trkpt>
      <trkpt lat="45.80714" lon="1.54154">
        <ele>299.7</ele>
        <time>2022-08-01T14:52:39Z</time>
      </trkpt>
      <trkpt lat="45.80706" lon="1.54148">
        <ele>299.5</ele>
        <time>2022-08-01T14:52:41Z</time>
      </trkpt>
      <trkpt lat="45.80696" lon="1.54142">
        <ele>299.2</ele>
        <time>2022-08-01T14:52:43Z</time>
      </trkpt>
      <trkpt lat="45.80686" lon="1.5414">
        <ele>299.4</ele>
        <time>2022-08-01T14:52:45Z</time>
      </trkpt>
      <trkpt lat="45.80674" lon="1.54139">
        <ele>299.8</ele>
        <time>2022-08-01T14:52:47Z</time>
      </trkpt>
      <trkpt lat="45.80661" lon="1.5414">
        <ele>300.5</ele>
        <time>2022-08-01T14:52:49Z</time>
      </trkpt>
      <trkpt lat="45.80648" lon="1.5414">
        <ele>301.4</ele>
        <time>2022-08-01T14:52:51Z</time>
      </trkpt>
      <trkpt lat="45.80633" lon="1.5414">
        <ele>302.3</ele>
        <time>2022-08-01T14:52:53Z</time>
      </trkpt>
      <trkpt lat="45.80619" lon="1.54139">
        <ele>303.1</ele>
        <time>2022-08-01T14:52:55Z</time>
      </trkpt>
      <trkpt lat="45.80605" lon="1.5414">
        <ele>304.1</ele>
        <time>2022-08-01T14:52:57Z</time>
      </trkpt>
      <trkpt lat="45.8059" lon="1.5414">
        <ele>305.1</ele>
        <time>2022-08-01T14:52:59Z</time>
      </trkpt>
      <trkpt lat="45.80577" lon="1.54138">
        <ele>305.4</ele>
        <time>2022-08-01T14:53:01Z</time>
      </trkpt>
      <trkpt lat="45.80563" lon="1.54137">
        <ele>305.3</ele>
        <time>2022-08-01T14:53:03Z</time>
      </trkpt>
      <trkpt lat="45.8055" lon="1.54138">
        <ele>305.6</ele>
        <time>2022-08-01T14:53:05Z</time>
      </trkpt>
      <trkpt lat="45.80538" lon="1.54138">
        <ele>305.9</ele>
        <time>2022-08-01T14:53:07Z</time>
      </trkpt>
      <trkpt lat="45.80526" lon="1.54139">
        <ele>306.3</ele>
        <time>2022-08-01T14:53:09Z</time>
      </trkpt>
      <trkpt lat="45.80515" lon="1.54141">
        <ele>306.9</ele>
        <time>2022-08-01T14:53:11Z</time>
      </trkpt>
      <trkpt lat="45.80504" lon="1.54143">
        <ele>307.4</ele>
        <time>2022-08-01T14:53:13Z</time>
      </trkpt>
      <trkpt lat="45.80493" lon="1.54146">
        <ele>307.6</ele>
        <time>2022-08-01T14:53:15Z</time>
      </trkpt>
      <trkpt lat="45.80483" lon="1.54145">
        <ele>306.9</ele>
        <time>2022-08-01T14:53:17Z</time>
      </trkpt>
      <trkpt lat="45.80473" lon="1.54147">
        <ele>306.5</ele>
        <time>2022-08-01T14:53:19Z</time>
      </trkpt>
      <trkpt lat="45.80463" lon="1.54148">
        <ele>306.2</ele>
        <time>2022-08-01T14:53:21Z</time>
      </trkpt>
      <trkpt lat="45.80455" lon="1.54147">
        <ele>305.5</ele>
        <time>2022-08-01T14:53:23Z</time>
      </trkpt>
      <trkpt lat="45.80448" lon="1.54149">
        <ele>305.3</ele>
        <time>2022-08-01T14:53:25Z</time>
      </trkpt>
      <trkpt lat="45.80442" lon="1.5415">
        <ele>305.2</ele>
        <time>2022-08-01T14:53:27Z</time>
      </trkpt>
      <trkpt lat="45.80435" lon="1.5415">
        <ele>304.8</ele>
        <time>2022-08-01T14:53:29Z</time>
      </trkpt>
      <trkpt lat="45.8043" lon="1.54149">
        <ele>304.3</ele>
        <time>2022-08-01T14:53:31Z</time>
      </trkpt>
      <trkpt lat="45.80423" lon="1.54151">
        <ele>304.1</ele>
        <time>2022-08-01T14:53:33Z</time>
      </trkpt>
      <trkpt lat="45.80419" lon="1.54152">
        <ele>304</ele>
        <time>2022-08-01T14:53:35Z</time>
      </trkpt>
      <trkpt lat="45.80413" lon="1.54154">
        <ele>304.1</ele>
        <time>2022-08-01T14:53:37Z</time>
      </trkpt>
      <trkpt lat="45.80409" lon="1.54155">
        <ele>304</ele>
        <time>2022-08-01T14:53:39Z</time>
      </trkpt>
      <trkpt lat="45.80403" lon="1.54155">
        <ele>303.9</ele>
        <time>2022-08-01T14:53:41Z</time>
      </trkpt>
      <trkpt lat="45.80397" lon="1.54156">
        <ele>303.9</ele>
        <time>2022-08-01T14:53:43Z</time>
      </trkpt>
      <trkpt lat="45.80392" lon="1.54159">
        <ele>304.1</ele>
        <time>2022-08-01T14:53:45Z</time>
      </trkpt>
      <trkpt lat="45.80386" lon="1.54162">
        <ele>304.3</ele>
        <time>2022-08-01T14:53:47Z</time>
      </trkpt>
      <trkpt lat="45.80381" lon="1.54163">
        <ele>304.3</ele>
        <time>2022-08-01T14:53:49Z</time>
      </trkpt>
      <trkpt lat="45.80377" lon="1.54166">
        <ele>304.5</ele>
        <time>2022-08-01T14:53:51Z</time>
      </trkpt>
      <trkpt lat="45.80373" lon="1.54168">
        <ele>304.6</ele>
        <time>2022-08-01T14:53:53Z</time>
      </trkpt>
      <trkpt lat="45.80369" lon="1.5417">
        <ele>304.9</ele>
        <time>2022-08-01T14:53:55Z</time>
      </trkpt>
      <trkpt lat="45.80366" lon="1.54171">
        <ele>305.1</ele>
        <time>2022-08-01T14:53:57Z</time>
      </trkpt>
      <trkpt lat="45.80363" lon="1.54173">
        <ele>305.3</ele>
        <time>2022-08-01T14:53:59Z</time>
      </trkpt>
      <trkpt lat="45.8036" lon="1.54174">
        <ele>305.4</ele>
        <time>2022-08-01T14:54:01Z</time>
      </trkpt>
      <trkpt lat="45.80357" lon="1.54177">
        <ele>305.8</ele>
        <time>2022-08-01T14:54:03Z</time>
      </trkpt>
      <trkpt lat="45.80354" lon="1.54178">
        <ele>306</ele>
        <time>2022-08-01T14:54:05Z</time>
      </trkpt>
      <trkpt lat="45.8035" lon="1.54182">
        <ele>306.5</ele>
        <time>2022-08-01T14:54:07Z</time>
      </trkpt>
      <trkpt lat="45.80348" lon="1.54184">
        <ele>307</ele>
        <time>2022-08-01T14:54:09Z</time>
      </trkpt>
      <trkpt lat="45.80345" lon="1.54188">
        <ele>307.6</ele>
        <time>2022-08-01T14:54:11Z</time>
      </trkpt>
      <trkpt lat="45.80305" lon="1.54225">
        <ele>312.5</ele>
        <time>2022-08-01T14:54:33Z</time>
      </trkpt>
      <trkpt lat="45.80301" lon="1.54227">
        <ele>312.7</ele>
        <time>2022-08-01T14:54:35Z</time>
      </trkpt>
      <trkpt lat="45.80297" lon="1.54231">
        <ele>313.1</ele>
        <time>2022-08-01T14:54:37Z</time>
      </trkpt>
      <trkpt lat="45.80294" lon="1.54234">
        <ele>313.5</ele>
        <time>2022-08-01T14:54:39Z</time>
      </trkpt>
      <trkpt lat="45.80291" lon="1.54238">
        <ele>313.9</ele>
        <time>2022-08-01T14:54:41Z</time>
      </trkpt>
      <trkpt lat="45.80288" lon="1.54242">
        <ele>314.4</ele>
        <time>2022-08-01T14:54:43Z</time>
      </trkpt>
      <trkpt lat="45.80285" lon="1.54246">
        <ele>314.8</ele>
        <time>2022-08-01T14:54:45Z</time>
      </trkpt>
      <trkpt lat="45.80282" lon="1.54249">
        <ele>315.2</ele>
        <time>2022-08-01T14:54:47Z</time>
      </trkpt>
      <trkpt lat="45.80279" lon="1.54253">
        <ele>315.3</ele>
        <time>2022-08-01T14:54:49Z</time>
      </trkpt>
      <trkpt lat="45.80279" lon="1.54256">
        <ele>315.5</ele>
        <time>2022-08-01T14:54:51Z</time>
      </trkpt>
      <trkpt lat="45.80277" lon="1.54261">
        <ele>315.8</ele>
        <time>2022-08-01T14:54:53Z</time>
      </trkpt>
      <trkpt lat="45.80276" lon="1.54266">
        <ele>316.1</ele>
        <time>2022-08-01T14:54:55Z</time>
      </trkpt>
      <trkpt lat="45.80274" lon="1.54271">
        <ele>316.3</ele>
        <time>2022-08-01T14:54:57Z</time>
      </trkpt>
      <trkpt lat="45.80271" lon="1.54277">
        <ele>316.5</ele>
        <time>2022-08-01T14:54:59Z</time>
      </trkpt>
      <trkpt lat="45.8027" lon="1.54281">
        <ele>316.7</ele>
        <time>2022-08-01T14:55:01Z</time>
      </trkpt>
      <trkpt lat="45.80268" lon="1.54285">
        <ele>316.9</ele>
        <time>2022-08-01T14:55:03Z</time>
      </trkpt>
      <trkpt lat="45.80267" lon="1.54289">
        <ele>317.1</ele>
        <time>2022-08-01T14:55:05Z</time>
      </trkpt>
      <trkpt lat="45.80266" lon="1.54294">
        <ele>317.4</ele>
        <time>2022-08-01T14:55:07Z</time>
      </trkpt>
      <trkpt lat="45.80264" lon="1.54299">
        <ele>317.6</ele>
        <time>2022-08-01T14:55:09Z</time>
      </trkpt>
      <trkpt lat="45.80262" lon="1.54303">
        <ele>317.8</ele>
        <time>2022-08-01T14:55:11Z</time>
      </trkpt>
      <trkpt lat="45.80262" lon="1.54308">
        <ele>318.2</ele>
        <time>2022-08-01T14:55:13Z</time>
      </trkpt>
      <trkpt lat="45.80262" lon="1.54315">
        <ele>318.6</ele>
        <time>2022-08-01T14:55:15Z</time>
      </trkpt>
      <trkpt lat="45.80263" lon="1.5432">
        <ele>319.1</ele>
        <time>2022-08-01T14:55:17Z</time>
      </trkpt>
      <trkpt lat="45.80264" lon="1.54326">
        <ele>319.6</ele>
        <time>2022-08-01T14:55:19Z</time>
      </trkpt>
      <trkpt lat="45.80265" lon="1.54331">
        <ele>320</ele>
        <time>2022-08-01T14:55:21Z</time>
      </trkpt>
      <trkpt lat="45.80264" lon="1.54335">
        <ele>320.2</ele>
        <time>2022-08-01T14:55:23Z</time>
      </trkpt>
      <trkpt lat="45.80266" lon="1.54341">
        <ele>320.5</ele>
        <time>2022-08-01T14:55:25Z</time>
      </trkpt>
      <trkpt lat="45.80267" lon="1.54346">
        <ele>320.8</ele>
        <time>2022-08-01T14:55:27Z</time>
      </trkpt>
      <trkpt lat="45.80269" lon="1.54351">
        <ele>321</ele>
        <time>2022-08-01T14:55:29Z</time>
      </trkpt>
      <trkpt lat="45.8027" lon="1.54358">
        <ele>321.3</ele>
        <time>2022-08-01T14:55:31Z</time>
      </trkpt>
      <trkpt lat="45.80271" lon="1.54363">
        <ele>321.5</ele>
        <time>2022-08-01T14:55:33Z</time>
      </trkpt>
      <trkpt lat="45.80272" lon="1.54367">
        <ele>321.8</ele>
        <time>2022-08-01T14:55:35Z</time>
      </trkpt>
      <trkpt lat="45.80274" lon="1.5437">
        <ele>322</ele>
        <time>2022-08-01T14:55:37Z</time>
      </trkpt>
      <trkpt lat="45.80276" lon="1.54375">
        <ele>322.3</ele>
        <time>2022-08-01T14:55:39Z</time>
      </trkpt>
      <trkpt lat="45.80278" lon="1.54379">
        <ele>322.6</ele>
        <time>2022-08-01T14:55:41Z</time>
      </trkpt>
      <trkpt lat="45.8028" lon="1.54383">
        <ele>322.9</ele>
        <time>2022-08-01T14:55:43Z</time>
      </trkpt>
      <trkpt lat="45.80282" lon="1.54388">
        <ele>323.2</ele>
        <time>2022-08-01T14:55:45Z</time>
      </trkpt>
      <trkpt lat="45.80282" lon="1.54391">
        <ele>323.4</ele>
        <time>2022-08-01T14:55:47Z</time>
      </trkpt>
      <trkpt lat="45.80284" lon="1.54396">
        <ele>323.7</ele>
        <time>2022-08-01T14:55:49Z</time>
      </trkpt>
      <trkpt lat="45.80286" lon="1.54401">
        <ele>324</ele>
        <time>2022-08-01T14:55:51Z</time>
      </trkpt>
      <trkpt lat="45.80288" lon="1.54405">
        <ele>324.3</ele>
        <time>2022-08-01T14:55:53Z</time>
      </trkpt>
      <trkpt lat="45.8029" lon="1.54409">
        <ele>324.6</ele>
        <time>2022-08-01T14:55:55Z</time>
      </trkpt>
      <trkpt lat="45.80291" lon="1.54415">
        <ele>324.9</ele>
        <time>2022-08-01T14:55:57Z</time>
      </trkpt>
      <trkpt lat="45.80293" lon="1.54419">
        <ele>325.2</ele>
        <time>2022-08-01T14:55:59Z</time>
      </trkpt>
      <trkpt lat="45.80295" lon="1.54422">
        <ele>325.3</ele>
        <time>2022-08-01T14:56:01Z</time>
      </trkpt>
      <trkpt lat="45.80298" lon="1.54428">
        <ele>325.5</ele>
        <time>2022-08-01T14:56:03Z</time>
      </trkpt>
      <trkpt lat="45.80299" lon="1.54432">
        <ele>325.7</ele>
        <time>2022-08-01T14:56:05Z</time>
      </trkpt>
      <trkpt lat="45.80301" lon="1.54437">
        <ele>325.8</ele>
        <time>2022-08-01T14:56:07Z</time>
      </trkpt>
      <trkpt lat="45.80302" lon="1.5444">
        <ele>326</ele>
        <time>2022-08-01T14:56:09Z</time>
      </trkpt>
      <trkpt lat="45.80305" lon="1.54445">
        <ele>326.3</ele>
        <time>2022-08-01T14:56:11Z</time>
      </trkpt>
      <trkpt lat="45.80307" lon="1.54449">
        <ele>326.5</ele>
        <time>2022-08-01T14:56:13Z</time>
      </trkpt>
      <trkpt lat="45.80308" lon="1.54454">
        <ele>326.6</ele>
        <time>2022-08-01T14:56:15Z</time>
      </trkpt>
      <trkpt lat="45.8031" lon="1.54458">
        <ele>326.8</ele>
        <time>2022-08-01T14:56:17Z</time>
      </trkpt>
      <trkpt lat="45.80312" lon="1.54462">
        <ele>327.1</ele>
        <time>2022-08-01T14:56:19Z</time>
      </trkpt>
      <trkpt lat="45.80314" lon="1.54466">
        <ele>327.4</ele>
        <time>2022-08-01T14:56:21Z</time>
      </trkpt>
      <trkpt lat="45.80316" lon="1.5447">
        <ele>327.6</ele>
        <time>2022-08-01T14:56:23Z</time>
      </trkpt>
      <trkpt lat="45.80318" lon="1.54474">
        <ele>327.8</ele>
        <time>2022-08-01T14:56:25Z</time>
      </trkpt>
      <trkpt lat="45.8032" lon="1.54478">
        <ele>328.1</ele>
        <time>2022-08-01T14:56:27Z</time>
      </trkpt>
      <trkpt lat="45.80323" lon="1.54482">
        <ele>328.4</ele>
        <time>2022-08-01T14:56:29Z</time>
      </trkpt>
      <trkpt lat="45.80325" lon="1.54486">
        <ele>328.7</ele>
        <time>2022-08-01T14:56:31Z</time>
      </trkpt>
      <trkpt lat="45.80327" lon="1.5449">
        <ele>329.1</ele>
        <time>2022-08-01T14:56:33Z</time>
      </trkpt>
      <trkpt lat="45.8033" lon="1.54493">
        <ele>329.5</ele>
        <time>2022-08-01T14:56:35Z</time>
      </trkpt>
      <trkpt lat="45.80333" lon="1.54497">
        <ele>329.9</ele>
        <time>2022-08-01T14:56:37Z</time>
      </trkpt>
      <trkpt lat="45.80336" lon="1.545">
        <ele>329.9</ele>
        <time>2022-08-01T14:56:39Z</time>
      </trkpt>
      <trkpt lat="45.80338" lon="1.54504">
        <ele>329.5</ele>
        <time>2022-08-01T14:56:41Z</time>
      </trkpt>
      <trkpt lat="45.80341" lon="1.54507">
        <ele>329</ele>
        <time>2022-08-01T14:56:43Z</time>
      </trkpt>
      <trkpt lat="45.80344" lon="1.54511">
        <ele>328.6</ele>
        <time>2022-08-01T14:56:45Z</time>
      </trkpt>
      <trkpt lat="45.80347" lon="1.54515">
        <ele>328.1</ele>
        <time>2022-08-01T14:56:47Z</time>
      </trkpt>
      <trkpt lat="45.8035" lon="1.54518">
        <ele>327.7</ele>
        <time>2022-08-01T14:56:49Z</time>
      </trkpt>
      <trkpt lat="45.80353" lon="1.54522">
        <ele>327.3</ele>
        <time>2022-08-01T14:56:51Z</time>
      </trkpt>
      <trkpt lat="45.80357" lon="1.54526">
        <ele>326.8</ele>
        <time>2022-08-01T14:56:53Z</time>
      </trkpt>
      <trkpt lat="45.8036" lon="1.54529">
        <ele>326.5</ele>
        <time>2022-08-01T14:56:55Z</time>
      </trkpt>
      <trkpt lat="45.80363" lon="1.54532">
        <ele>326.2</ele>
        <time>2022-08-01T14:56:57Z</time>
      </trkpt>
      <trkpt lat="45.80366" lon="1.54535">
        <ele>325.9</ele>
        <time>2022-08-01T14:56:59Z</time>
      </trkpt>
      <trkpt lat="45.80369" lon="1.54537">
        <ele>325.7</ele>
        <time>2022-08-01T14:57:01Z</time>
      </trkpt>
      <trkpt lat="45.80372" lon="1.54539">
        <ele>325.5</ele>
        <time>2022-08-01T14:57:03Z</time>
      </trkpt>
      <trkpt lat="45.80376" lon="1.5454">
        <ele>325.4</ele>
        <time>2022-08-01T14:57:05Z</time>
      </trkpt>
      <trkpt lat="45.8038" lon="1.54542">
        <ele>325.3</ele>
        <time>2022-08-01T14:57:07Z</time>
      </trkpt>
      <trkpt lat="45.80384" lon="1.54543">
        <ele>325.2</ele>
        <time>2022-08-01T14:57:09Z</time>
      </trkpt>
      <trkpt lat="45.80387" lon="1.54544">
        <ele>325.1</ele>
        <time>2022-08-01T14:57:11Z</time>
      </trkpt>
      <trkpt lat="45.80391" lon="1.54545">
        <ele>325.1</ele>
        <time>2022-08-01T14:57:13Z</time>
      </trkpt>
      <trkpt lat="45.80395" lon="1.54545">
        <ele>325</ele>
        <time>2022-08-01T14:57:15Z</time>
      </trkpt>
      <trkpt lat="45.80399" lon="1.54545">
        <ele>325.1</ele>
        <time>2022-08-01T14:57:17Z</time>
      </trkpt>
      <trkpt lat="45.80403" lon="1.54545">
        <ele>325.1</ele>
        <time>2022-08-01T14:57:19Z</time>
      </trkpt>
      <trkpt lat="45.80407" lon="1.54545">
        <ele>325.2</ele>
        <time>2022-08-01T14:57:21Z</time>
      </trkpt>
      <trkpt lat="45.80411" lon="1.54545">
        <ele>325.2</ele>
        <time>2022-08-01T14:57:23Z</time>
      </trkpt>
      <trkpt lat="45.80415" lon="1.54545">
        <ele>325.2</ele>
        <time>2022-08-01T14:57:25Z</time>
      </trkpt>
      <trkpt lat="45.80419" lon="1.54543">
        <ele>325.4</ele>
        <time>2022-08-01T14:57:27Z</time>
      </trkpt>
      <trkpt lat="45.80423" lon="1.54543">
        <ele>325.5</ele>
        <time>2022-08-01T14:57:29Z</time>
      </trkpt>
      <trkpt lat="45.80427" lon="1.54543">
        <ele>325.5</ele>
        <time>2022-08-01T14:57:31Z</time>
      </trkpt>
      <trkpt lat="45.80431" lon="1.54542">
        <ele>325.6</ele>
        <time>2022-08-01T14:57:33Z</time>
      </trkpt>
      <trkpt lat="45.80435" lon="1.54542">
        <ele>325.7</ele>
        <time>2022-08-01T14:57:35Z</time>
      </trkpt>
      <trkpt lat="45.80439" lon="1.54542">
        <ele>325.8</ele>
        <time>2022-08-01T14:57:37Z</time>
      </trkpt>
      <trkpt lat="45.80443" lon="1.5454">
        <ele>325.9</ele>
        <time>2022-08-01T14:57:39Z</time>
      </trkpt>
      <trkpt lat="45.80447" lon="1.5454">
        <ele>326</ele>
        <time>2022-08-01T14:57:41Z</time>
      </trkpt>
      <trkpt lat="45.80451" lon="1.54539">
        <ele>326.1</ele>
        <time>2022-08-01T14:57:43Z</time>
      </trkpt>
      <trkpt lat="45.80456" lon="1.54538">
        <ele>326.2</ele>
        <time>2022-08-01T14:57:45Z</time>
      </trkpt>
      <trkpt lat="45.8046" lon="1.54537">
        <ele>326.3</ele>
        <time>2022-08-01T14:57:47Z</time>
      </trkpt>
      <trkpt lat="45.80464" lon="1.54536">
        <ele>326.4</ele>
        <time>2022-08-01T14:57:49Z</time>
      </trkpt>
      <trkpt lat="45.80468" lon="1.54535">
        <ele>326.5</ele>
        <time>2022-08-01T14:57:51Z</time>
      </trkpt>
      <trkpt lat="45.80472" lon="1.54534">
        <ele>326.6</ele>
        <time>2022-08-01T14:57:53Z</time>
      </trkpt>
      <trkpt lat="45.80477" lon="1.54533">
        <ele>326.6</ele>
        <time>2022-08-01T14:57:55Z</time>
      </trkpt>
      <trkpt lat="45.80481" lon="1.54532">
        <ele>326.7</ele>
        <time>2022-08-01T14:57:57Z</time>
      </trkpt>
      <trkpt lat="45.80485" lon="1.54531">
        <ele>326.8</ele>
        <time>2022-08-01T14:57:59Z</time>
      </trkpt>
      <trkpt lat="45.8049" lon="1.5453">
        <ele>326.9</ele>
        <time>2022-08-01T14:58:01Z</time>
      </trkpt>
      <trkpt lat="45.80495" lon="1.54529">
        <ele>326.9</ele>
        <time>2022-08-01T14:58:03Z</time>
      </trkpt>
      <trkpt lat="45.80499" lon="1.54528">
        <ele>327</ele>
        <time>2022-08-01T14:58:05Z</time>
      </trkpt>
      <trkpt lat="45.80504" lon="1.54527">
        <ele>327.1</ele>
        <time>2022-08-01T14:58:07Z</time>
      </trkpt>
      <trkpt lat="45.80509" lon="1.54526">
        <ele>327.3</ele>
        <time>2022-08-01T14:58:09Z</time>
      </trkpt>
      <trkpt lat="45.80514" lon="1.54526">
        <ele>327.4</ele>
        <time>2022-08-01T14:58:11Z</time>
      </trkpt>
      <trkpt lat="45.80519" lon="1.54525">
        <ele>327.5</ele>
        <time>2022-08-01T14:58:13Z</time>
      </trkpt>
      <trkpt lat="45.80525" lon="1.54526">
        <ele>327.6</ele>
        <time>2022-08-01T14:58:15Z</time>
      </trkpt>
      <trkpt lat="45.80531" lon="1.54527">
        <ele>327.8</ele>
        <time>2022-08-01T14:58:17Z</time>
      </trkpt>
      <trkpt lat="45.80536" lon="1.54528">
        <ele>327.9</ele>
        <time>2022-08-01T14:58:19Z</time>
      </trkpt>
      <trkpt lat="45.80541" lon="1.54529">
        <ele>328</ele>
        <time>2022-08-01T14:58:21Z</time>
      </trkpt>
      <trkpt lat="45.80546" lon="1.54532">
        <ele>328</ele>
        <time>2022-08-01T14:58:23Z</time>
      </trkpt>
      <trkpt lat="45.80551" lon="1.54536">
        <ele>328.1</ele>
        <time>2022-08-01T14:58:25Z</time>
      </trkpt>
      <trkpt lat="45.80556" lon="1.54539">
        <ele>328.2</ele>
        <time>2022-08-01T14:58:27Z</time>
      </trkpt>
      <trkpt lat="45.8056" lon="1.54544">
        <ele>328.3</ele>
        <time>2022-08-01T14:58:29Z</time>
      </trkpt>
      <trkpt lat="45.80565" lon="1.5455">
        <ele>328.4</ele>
        <time>2022-08-01T14:58:31Z</time>
      </trkpt>
      <trkpt lat="45.80569" lon="1.54555">
        <ele>328.5</ele>
        <time>2022-08-01T14:58:33Z</time>
      </trkpt>
      <trkpt lat="45.80573" lon="1.5456">
        <ele>328.6</ele>
        <time>2022-08-01T14:58:35Z</time>
      </trkpt>
      <trkpt lat="45.80577" lon="1.54566">
        <ele>328.7</ele>
        <time>2022-08-01T14:58:37Z</time>
      </trkpt>
      <trkpt lat="45.8058" lon="1.54571">
        <ele>328.9</ele>
        <time>2022-08-01T14:58:39Z</time>
      </trkpt>
      <trkpt lat="45.80584" lon="1.54576">
        <ele>329</ele>
        <time>2022-08-01T14:58:41Z</time>
      </trkpt>
      <trkpt lat="45.80587" lon="1.54581">
        <ele>329.1</ele>
        <time>2022-08-01T14:58:43Z</time>
      </trkpt>
      <trkpt lat="45.8059" lon="1.54587">
        <ele>329.3</ele>
        <time>2022-08-01T14:58:45Z</time>
      </trkpt>
      <trkpt lat="45.80594" lon="1.54593">
        <ele>329.6</ele>
        <time>2022-08-01T14:58:47Z</time>
      </trkpt>
      <trkpt lat="45.80597" lon="1.54598">
        <ele>329.9</ele>
        <time>2022-08-01T14:58:49Z</time>
      </trkpt>
      <trkpt lat="45.806" lon="1.54604">
        <ele>330.3</ele>
        <time>2022-08-01T14:58:51Z</time>
      </trkpt>
      <trkpt lat="45.80603" lon="1.54609">
        <ele>330.6</ele>
        <time>2022-08-01T14:58:53Z</time>
      </trkpt>
      <trkpt lat="45.80606" lon="1.54615">
        <ele>330.9</ele>
        <time>2022-08-01T14:58:55Z</time>
      </trkpt>
      <trkpt lat="45.80609" lon="1.5462">
        <ele>331.2</ele>
        <time>2022-08-01T14:58:57Z</time>
      </trkpt>
      <trkpt lat="45.80612" lon="1.54626">
        <ele>331.6</ele>
        <time>2022-08-01T14:58:59Z</time>
      </trkpt>
      <trkpt lat="45.80615" lon="1.54632">
        <ele>332</ele>
        <time>2022-08-01T14:59:01Z</time>
      </trkpt>
      <trkpt lat="45.80618" lon="1.54637">
        <ele>332.3</ele>
        <time>2022-08-01T14:59:03Z</time>
      </trkpt>
      <trkpt lat="45.8062" lon="1.54643">
        <ele>332.7</ele>
        <time>2022-08-01T14:59:05Z</time>
      </trkpt>
      <trkpt lat="45.80622" lon="1.54648">
        <ele>333.1</ele>
        <time>2022-08-01T14:59:07Z</time>
      </trkpt>
      <trkpt lat="45.80625" lon="1.54654">
        <ele>333.4</ele>
        <time>2022-08-01T14:59:09Z</time>
      </trkpt>
      <trkpt lat="45.80627" lon="1.54658">
        <ele>333.8</ele>
        <time>2022-08-01T14:59:11Z</time>
      </trkpt>
      <trkpt lat="45.80629" lon="1.54663">
        <ele>334.1</ele>
        <time>2022-08-01T14:59:13Z</time>
      </trkpt>
      <trkpt lat="45.80631" lon="1.54668">
        <ele>334.4</ele>
        <time>2022-08-01T14:59:15Z</time>
      </trkpt>
      <trkpt lat="45.80633" lon="1.54672">
        <ele>334.7</ele>
        <time>2022-08-01T14:59:17Z</time>
      </trkpt>
      <trkpt lat="45.80636" lon="1.54677">
        <ele>335</ele>
        <time>2022-08-01T14:59:19Z</time>
      </trkpt>
      <trkpt lat="45.80637" lon="1.54682">
        <ele>335.2</ele>
        <time>2022-08-01T14:59:21Z</time>
      </trkpt>
      <trkpt lat="45.80639" lon="1.54686">
        <ele>335.4</ele>
        <time>2022-08-01T14:59:23Z</time>
      </trkpt>
      <trkpt lat="45.80641" lon="1.54691">
        <ele>335.7</ele>
        <time>2022-08-01T14:59:25Z</time>
      </trkpt>
      <trkpt lat="45.80643" lon="1.54696">
        <ele>335.9</ele>
        <time>2022-08-01T14:59:27Z</time>
      </trkpt>
      <trkpt lat="45.80645" lon="1.54701">
        <ele>336.2</ele>
        <time>2022-08-01T14:59:29Z</time>
      </trkpt>
      <trkpt lat="45.80647" lon="1.54706">
        <ele>336.4</ele>
        <time>2022-08-01T14:59:31Z</time>
      </trkpt>
      <trkpt lat="45.80649" lon="1.54711">
        <ele>336.7</ele>
        <time>2022-08-01T14:59:33Z</time>
      </trkpt>
      <trkpt lat="45.80651" lon="1.54715">
        <ele>336.9</ele>
        <time>2022-08-01T14:59:35Z</time>
      </trkpt>
      <trkpt lat="45.80654" lon="1.5472">
        <ele>337.2</ele>
        <time>2022-08-01T14:59:37Z</time>
      </trkpt>
      <trkpt lat="45.80656" lon="1.54725">
        <ele>337.5</ele>
        <time>2022-08-01T14:59:39Z</time>
      </trkpt>
      <trkpt lat="45.80658" lon="1.5473">
        <ele>337.8</ele>
        <time>2022-08-01T14:59:41Z</time>
      </trkpt>
      <trkpt lat="45.8066" lon="1.54734">
        <ele>338.1</ele>
        <time>2022-08-01T14:59:43Z</time>
      </trkpt>
      <trkpt lat="45.80662" lon="1.54739">
        <ele>338.4</ele>
        <time>2022-08-01T14:59:45Z</time>
      </trkpt>
      <trkpt lat="45.80664" lon="1.54743">
        <ele>338.6</ele>
        <time>2022-08-01T14:59:47Z</time>
      </trkpt>
      <trkpt lat="45.80667" lon="1.54748">
        <ele>339</ele>
        <time>2022-08-01T14:59:49Z</time>
      </trkpt>
      <trkpt lat="45.80669" lon="1.54753">
        <ele>339.1</ele>
        <time>2022-08-01T14:59:51Z</time>
      </trkpt>
      <trkpt lat="45.80671" lon="1.54758">
        <ele>339.3</ele>
        <time>2022-08-01T14:59:53Z</time>
      </trkpt>
      <trkpt lat="45.80674" lon="1.54762">
        <ele>339.4</ele>
        <time>2022-08-01T14:59:55Z</time>
      </trkpt>
      <trkpt lat="45.80676" lon="1.54767">
        <ele>339.6</ele>
        <time>2022-08-01T14:59:57Z</time>
      </trkpt>
      <trkpt lat="45.80679" lon="1.54771">
        <ele>339.7</ele>
        <time>2022-08-01T14:59:59Z</time>
      </trkpt>
      <trkpt lat="45.80681" lon="1.54775">
        <ele>339.9</ele>
        <time>2022-08-01T15:00:01Z</time>
      </trkpt>
      <trkpt lat="45.80683" lon="1.54779">
        <ele>340</ele>
        <time>2022-08-01T15:00:03Z</time>
      </trkpt>
      <trkpt lat="45.80685" lon="1.54784">
        <ele>340.2</ele>
        <time>2022-08-01T15:00:05Z</time>
      </trkpt>
      <trkpt lat="45.80688" lon="1.54788">
        <ele>340.4</ele>
        <time>2022-08-01T15:00:07Z</time>
      </trkpt>
      <trkpt lat="45.8069" lon="1.54793">
        <ele>340.5</ele>
        <time>2022-08-01T15:00:09Z</time>
      </trkpt>
      <trkpt lat="45.80693" lon="1.54798">
        <ele>340.7</ele>
        <time>2022-08-01T15:00:11Z</time>
      </trkpt>
      <trkpt lat="45.80695" lon="1.54802">
        <ele>340.9</ele>
        <time>2022-08-01T15:00:13Z</time>
      </trkpt>
      <trkpt lat="45.80698" lon="1.54806">
        <ele>341.1</ele>
        <time>2022-08-01T15:00:15Z</time>
      </trkpt>
      <trkpt lat="45.807" lon="1.54811">
        <ele>341.3</ele>
        <time>2022-08-01T15:00:17Z</time>
      </trkpt>
      <trkpt lat="45.80703" lon="1.54815">
        <ele>341.5</ele>
        <time>2022-08-01T15:00:19Z</time>
      </trkpt>
      <trkpt lat="45.80705" lon="1.54819">
        <ele>341.7</ele>
        <time>2022-08-01T15:00:21Z</time>
      </trkpt>
      <trkpt lat="45.80708" lon="1.54824">
        <ele>341.9</ele>
        <time>2022-08-01T15:00:23Z</time>
      </trkpt>
      <trkpt lat="45.8071" lon="1.54828">
        <ele>342.1</ele>
        <time>2022-08-01T15:00:25Z</time>
      </trkpt>
      <trkpt lat="45.80712" lon="1.54833">
        <ele>342.3</ele>
        <time>2022-08-01T15:00:27Z</time>
      </trkpt>
      <trkpt lat="45.80715" lon="1.54837">
        <ele>342.5</ele>
        <time>2022-08-01T15:00:29Z</time>
      </trkpt>
      <trkpt lat="45.80717" lon="1.54842">
        <ele>342.8</ele>
        <time>2022-08-01T15:00:31Z</time>
      </trkpt>
      <trkpt lat="45.8072" lon="1.54846">
        <ele>343.1</ele>
        <time>2022-08-01T15:00:33Z</time>
      </trkpt>
      <trkpt lat="45.80722" lon="1.5485">
        <ele>343.3</ele>
        <time>2022-08-01T15:00:35Z</time>
      </trkpt>
      <trkpt lat="45.80725" lon="1.54855">
        <ele>343.5</ele>
        <time>2022-08-01T15:00:37Z</time>
      </trkpt>
      <trkpt lat="45.80727" lon="1.54859">
        <ele>343.7</ele>
        <time>2022-08-01T15:00:39Z</time>
      </trkpt>
      <trkpt lat="45.8073" lon="1.54864">
        <ele>343.9</ele>
        <time>2022-08-01T15:00:41Z</time>
      </trkpt>
      <trkpt lat="45.80732" lon="1.54868">
        <ele>344.1</ele>
        <time>2022-08-01T15:00:43Z</time>
      </trkpt>
      <trkpt lat="45.80735" lon="1.54872">
        <ele>344.3</ele>
        <time>2022-08-01T15:00:45Z</time>
      </trkpt>
      <trkpt lat="45.80738" lon="1.54876">
        <ele>344.4</ele>
        <time>2022-08-01T15:00:47Z</time>
      </trkpt>
      <trkpt lat="45.8074" lon="1.5488">
        <ele>344.6</ele>
        <time>2022-08-01T15:00:49Z</time>
      </trkpt>
      <trkpt lat="45.80743" lon="1.54884">
        <ele>344.7</ele>
        <time>2022-08-01T15:00:51Z</time>
      </trkpt>
      <trkpt lat="45.80745" lon="1.54889">
        <ele>344.8</ele>
        <time>2022-08-01T15:00:53Z</time>
      </trkpt>
      <trkpt lat="45.80748" lon="1.54893">
        <ele>344.9</ele>
        <time>2022-08-01T15:00:55Z</time>
      </trkpt>
      <trkpt lat="45.8075" lon="1.54898">
        <ele>345</ele>
        <time>2022-08-01T15:00:57Z</time>
      </trkpt>
      <trkpt lat="45.80752" lon="1.54902">
        <ele>345.1</ele>
        <time>2022-08-01T15:00:59Z</time>
      </trkpt>
      <trkpt lat="45.80755" lon="1.54906">
        <ele>345.2</ele>
        <time>2022-08-01T15:01:01Z</time>
      </trkpt>
      <trkpt lat="45.80757" lon="1.54911">
        <ele>345.3</ele>
        <time>2022-08-01T15:01:03Z</time>
      </trkpt>
      <trkpt lat="45.80759" lon="1.54915">
        <ele>345.5</ele>
        <time>2022-08-01T15:01:05Z</time>
      </trkpt>
      <trkpt lat="45.80762" lon="1.54919">
        <ele>345.7</ele>
        <time>2022-08-01T15:01:07Z</time>
      </trkpt>
      <trkpt lat="45.80765" lon="1.54924">
        <ele>346</ele>
        <time>2022-08-01T15:01:09Z</time>
      </trkpt>
      <trkpt lat="45.80767" lon="1.54928">
        <ele>346.3</ele>
        <time>2022-08-01T15:01:11Z</time>
      </trkpt>
      <trkpt lat="45.8077" lon="1.54933">
        <ele>346.6</ele>
        <time>2022-08-01T15:01:13Z</time>
      </trkpt>
      <trkpt lat="45.80772" lon="1.54936">
        <ele>346.9</ele>
        <time>2022-08-01T15:01:15Z</time>
      </trkpt>
      <trkpt lat="45.80775" lon="1.54941">
        <ele>347.2</ele>
        <time>2022-08-01T15:01:17Z</time>
      </trkpt>
      <trkpt lat="45.80777" lon="1.54945">
        <ele>347.4</ele>
        <time>2022-08-01T15:01:19Z</time>
      </trkpt>
      <trkpt lat="45.8078" lon="1.54949">
        <ele>347.7</ele>
        <time>2022-08-01T15:01:21Z</time>
      </trkpt>
      <trkpt lat="45.80782" lon="1.54954">
        <ele>348</ele>
        <time>2022-08-01T15:01:23Z</time>
      </trkpt>
      <trkpt lat="45.80785" lon="1.54959">
        <ele>348.3</ele>
        <time>2022-08-01T15:01:25Z</time>
      </trkpt>
      <trkpt lat="45.80788" lon="1.54963">
        <ele>348.5</ele>
        <time>2022-08-01T15:01:27Z</time>
      </trkpt>
      <trkpt lat="45.8079" lon="1.54968">
        <ele>348.8</ele>
        <time>2022-08-01T15:01:29Z</time>
      </trkpt>
      <trkpt lat="45.80793" lon="1.54973">
        <ele>349.1</ele>
        <time>2022-08-01T15:01:31Z</time>
      </trkpt>
      <trkpt lat="45.80796" lon="1.54977">
        <ele>349.3</ele>
        <time>2022-08-01T15:01:33Z</time>
      </trkpt>
      <trkpt lat="45.80798" lon="1.54982">
        <ele>349.5</ele>
        <time>2022-08-01T15:01:35Z</time>
      </trkpt>
      <trkpt lat="45.80801" lon="1.54986">
        <ele>349.7</ele>
        <time>2022-08-01T15:01:37Z</time>
      </trkpt>
      <trkpt lat="45.80803" lon="1.54991">
        <ele>350</ele>
        <time>2022-08-01T15:01:39Z</time>
      </trkpt>
      <trkpt lat="45.80806" lon="1.54995">
        <ele>350.2</ele>
        <time>2022-08-01T15:01:41Z</time>
      </trkpt>
      <trkpt lat="45.80808" lon="1.54999">
        <ele>350.4</ele>
        <time>2022-08-01T15:01:43Z</time>
      </trkpt>
      <trkpt lat="45.80811" lon="1.55004">
        <ele>350.8</ele>
        <time>2022-08-01T15:01:45Z</time>
      </trkpt>
      <trkpt lat="45.80814" lon="1.55008">
        <ele>351.1</ele>
        <time>2022-08-01T15:01:47Z</time>
      </trkpt>
      <trkpt lat="45.80816" lon="1.55013">
        <ele>351.5</ele>
        <time>2022-08-01T15:01:49Z</time>
      </trkpt>
      <trkpt lat="45.80819" lon="1.55017">
        <ele>351.9</ele>
        <time>2022-08-01T15:01:51Z</time>
      </trkpt>
      <trkpt lat="45.80821" lon="1.55022">
        <ele>352.3</ele>
        <time>2022-08-01T15:01:53Z</time>
      </trkpt>
      <trkpt lat="45.80824" lon="1.55026">
        <ele>352.7</ele>
        <time>2022-08-01T15:01:55Z</time>
      </trkpt>
      <trkpt lat="45.80827" lon="1.5503">
        <ele>353</ele>
        <time>2022-08-01T15:01:57Z</time>
      </trkpt>
      <trkpt lat="45.80829" lon="1.55035">
        <ele>353.4</ele>
        <time>2022-08-01T15:01:59Z</time>
      </trkpt>
      <trkpt lat="45.80832" lon="1.55039">
        <ele>353.8</ele>
        <time>2022-08-01T15:02:01Z</time>
      </trkpt>
      <trkpt lat="45.80834" lon="1.55043">
        <ele>354.1</ele>
        <time>2022-08-01T15:02:03Z</time>
      </trkpt>
      <trkpt lat="45.80836" lon="1.55047">
        <ele>354.5</ele>
        <time>2022-08-01T15:02:05Z</time>
      </trkpt>
      <trkpt lat="45.80838" lon="1.55051">
        <ele>354.8</ele>
        <time>2022-08-01T15:02:07Z</time>
      </trkpt>
      <trkpt lat="45.80841" lon="1.55055">
        <ele>355.1</ele>
        <time>2022-08-01T15:02:09Z</time>
      </trkpt>
      <trkpt lat="45.80844" lon="1.55059">
        <ele>355.4</ele>
        <time>2022-08-01T15:02:11Z</time>
      </trkpt>
      <trkpt lat="45.80846" lon="1.55063">
        <ele>355.7</ele>
        <time>2022-08-01T15:02:13Z</time>
      </trkpt>
      <trkpt lat="45.80848" lon="1.55067">
        <ele>356</ele>
        <time>2022-08-01T15:02:15Z</time>
      </trkpt>
      <trkpt lat="45.8085" lon="1.55071">
        <ele>356.3</ele>
        <time>2022-08-01T15:02:17Z</time>
      </trkpt>
      <trkpt lat="45.80852" lon="1.55075">
        <ele>356.5</ele>
        <time>2022-08-01T15:02:19Z</time>
      </trkpt>
      <trkpt lat="45.80855" lon="1.55079">
        <ele>356.7</ele>
        <time>2022-08-01T15:02:21Z</time>
      </trkpt>
      <trkpt lat="45.80857" lon="1.55082">
        <ele>357</ele>
        <time>2022-08-01T15:02:23Z</time>
      </trkpt>
      <trkpt lat="45.80859" lon="1.55086">
        <ele>357.2</ele>
        <time>2022-08-01T15:02:25Z</time>
      </trkpt>
      <trkpt lat="45.80862" lon="1.5509">
        <ele>357.4</ele>
        <time>2022-08-01T15:02:27Z</time>
      </trkpt>
      <trkpt lat="45.80864" lon="1.55094">
        <ele>357.6</ele>
        <time>2022-08-01T15:02:29Z</time>
      </trkpt>
      <trkpt lat="45.80866" lon="1.55098">
        <ele>357.8</ele>
        <time>2022-08-01T15:02:31Z</time>
      </trkpt>
      <trkpt lat="45.80867" lon="1.55102">
        <ele>358</ele>
        <time>2022-08-01T15:02:33Z</time>
      </trkpt>
      <trkpt lat="45.80865" lon="1.55105">
        <ele>358.2</ele>
        <time>2022-08-01T15:02:35Z</time>
      </trkpt>
      <trkpt lat="45.80863" lon="1.55106">
        <ele>358.3</ele>
        <time>2022-08-01T15:02:37Z</time>
      </trkpt>
      <trkpt lat="45.80863" lon="1.55107">
        <ele>358.3</ele>
        <time>2022-08-01T15:02:39Z</time>
      </trkpt>
      <trkpt lat="45.80863" lon="1.55107">
        <ele>358.3</ele>
        <time>2022-08-01T15:02:41Z</time>
      </trkpt>
      <trkpt lat="45.80863" lon="1.55107">
        <ele>358.3</ele>
        <time>2022-08-01T15:02:43Z</time>
      </trkpt>
      <trkpt lat="45.80863" lon="1.55105">
        <ele>358.2</ele>
        <time>2022-08-01T15:03:41Z</time>
      </trkpt>
      <trkpt lat="45.80863" lon="1.55103">
        <ele>358.1</ele>
        <time>2022-08-01T15:03:45Z</time>
      </trkpt>
      <trkpt lat="45.80862" lon="1.55105">
        <ele>358.2</ele>
        <time>2022-08-01T15:03:47Z</time>
      </trkpt>
      <trkpt lat="45.80858" lon="1.55109">
        <ele>358.5</ele>
        <time>2022-08-01T15:03:49Z</time>
      </trkpt>
      <trkpt lat="45.80852" lon="1.55113">
        <ele>358.8</ele>
        <time>2022-08-01T15:03:51Z</time>
      </trkpt>
      <trkpt lat="45.80854" lon="1.55113">
        <ele>358.8</ele>
        <time>2022-08-01T15:03:53Z</time>
      </trkpt>
      <trkpt lat="45.80852" lon="1.55114">
        <ele>358.9</ele>
        <time>2022-08-01T15:03:55Z</time>
      </trkpt>
      <trkpt lat="45.80854" lon="1.55113">
        <ele>358.8</ele>
        <time>2022-08-01T15:03:57Z</time>
      </trkpt>
      <trkpt lat="45.80856" lon="1.55112">
        <ele>358.7</ele>
        <time>2022-08-01T15:03:59Z</time>
      </trkpt>
      <trkpt lat="45.80857" lon="1.55111">
        <ele>358.6</ele>
        <time>2022-08-01T15:04:01Z</time>
      </trkpt>
      <trkpt lat="45.80857" lon="1.55111">
        <ele>358.6</ele>
        <time>2022-08-01T15:04:03Z</time>
      </trkpt>
      <trkpt lat="45.80857" lon="1.55112">
        <ele>358.7</ele>
        <time>2022-08-01T15:04:05Z</time>
      </trkpt>
      <trkpt lat="45.80857" lon="1.55112">
        <ele>358.7</ele>
        <time>2022-08-01T15:04:07Z</time>
      </trkpt>
      <trkpt lat="45.80874" lon="1.55098">
        <ele>357.7</ele>
        <time>2022-08-01T15:08:25Z</time>
      </trkpt>
      <trkpt lat="45.80875" lon="1.55105">
        <ele>358</ele>
        <time>2022-08-01T15:08:27Z</time>
      </trkpt>
      <trkpt lat="45.80877" lon="1.55111">
        <ele>358.3</ele>
        <time>2022-08-01T15:08:29Z</time>
      </trkpt>
      <trkpt lat="45.8088" lon="1.55117">
        <ele>358.5</ele>
        <time>2022-08-01T15:08:31Z</time>
      </trkpt>
      <trkpt lat="45.80883" lon="1.55123">
        <ele>358.7</ele>
        <time>2022-08-01T15:08:33Z</time>
      </trkpt>
      <trkpt lat="45.80885" lon="1.5513">
        <ele>359</ele>
        <time>2022-08-01T15:08:35Z</time>
      </trkpt>
      <trkpt lat="45.80888" lon="1.55137">
        <ele>359.2</ele>
        <time>2022-08-01T15:08:37Z</time>
      </trkpt>
      <trkpt lat="45.8089" lon="1.55143">
        <ele>359.3</ele>
        <time>2022-08-01T15:08:39Z</time>
      </trkpt>
      <trkpt lat="45.80892" lon="1.5515">
        <ele>359.5</ele>
        <time>2022-08-01T15:08:41Z</time>
      </trkpt>
      <trkpt lat="45.80895" lon="1.55156">
        <ele>359.7</ele>
        <time>2022-08-01T15:08:43Z</time>
      </trkpt>
      <trkpt lat="45.80896" lon="1.55164">
        <ele>359.9</ele>
        <time>2022-08-01T15:08:45Z</time>
      </trkpt>
      <trkpt lat="45.80898" lon="1.55171">
        <ele>359.9</ele>
        <time>2022-08-01T15:08:47Z</time>
      </trkpt>
      <trkpt lat="45.809" lon="1.55178">
        <ele>359.9</ele>
        <time>2022-08-01T15:08:49Z</time>
      </trkpt>
      <trkpt lat="45.80901" lon="1.55185">
        <ele>359.9</ele>
        <time>2022-08-01T15:08:51Z</time>
      </trkpt>
      <trkpt lat="45.80903" lon="1.55191">
        <ele>359.9</ele>
        <time>2022-08-01T15:08:53Z</time>
      </trkpt>
      <trkpt lat="45.80904" lon="1.55198">
        <ele>359.9</ele>
        <time>2022-08-01T15:08:55Z</time>
      </trkpt>
      <trkpt lat="45.80906" lon="1.55205">
        <ele>359.9</ele>
        <time>2022-08-01T15:08:57Z</time>
      </trkpt>
      <trkpt lat="45.80906" lon="1.55212">
        <ele>359.9</ele>
        <time>2022-08-01T15:08:59Z</time>
      </trkpt>
      <trkpt lat="45.80907" lon="1.5522">
        <ele>360</ele>
        <time>2022-08-01T15:09:01Z</time>
      </trkpt>
      <trkpt lat="45.80907" lon="1.55225">
        <ele>360</ele>
        <time>2022-08-01T15:09:03Z</time>
      </trkpt>
      <trkpt lat="45.80908" lon="1.55231">
        <ele>360</ele>
        <time>2022-08-01T15:09:05Z</time>
      </trkpt>
      <trkpt lat="45.80908" lon="1.55239">
        <ele>360.1</ele>
        <time>2022-08-01T15:09:07Z</time>
      </trkpt>
      <trkpt lat="45.80909" lon="1.55244">
        <ele>360.1</ele>
        <time>2022-08-01T15:09:09Z</time>
      </trkpt>
      <trkpt lat="45.80909" lon="1.55246">
        <ele>360.1</ele>
        <time>2022-08-01T15:09:11Z</time>
      </trkpt>
      <trkpt lat="45.80909" lon="1.55245">
        <ele>360.1</ele>
        <time>2022-08-01T15:09:13Z</time>
      </trkpt>
      <trkpt lat="45.80909" lon="1.55245">
        <ele>360.1</ele>
        <time>2022-08-01T15:09:15Z</time>
      </trkpt>
      <trkpt lat="45.80909" lon="1.55245">
        <ele>360.1</ele>
        <time>2022-08-01T15:09:17Z</time>
      </trkpt>
      <trkpt lat="45.80909" lon="1.55245">
        <ele>360.1</ele>
        <time>2022-08-01T15:09:19Z</time>
      </trkpt>
      <trkpt lat="45.80909" lon="1.55266">
        <ele>360.2</ele>
        <time>2022-08-01T15:10:07Z</time>
      </trkpt>
      <trkpt lat="45.80909" lon="1.55273">
        <ele>360.2</ele>
        <time>2022-08-01T15:10:09Z</time>
      </trkpt>
      <trkpt lat="45.80909" lon="1.55281">
        <ele>360.2</ele>
        <time>2022-08-01T15:10:11Z</time>
      </trkpt>
      <trkpt lat="45.80908" lon="1.55289">
        <ele>360.2</ele>
        <time>2022-08-01T15:10:13Z</time>
      </trkpt>
      <trkpt lat="45.80907" lon="1.55297">
        <ele>360.2</ele>
        <time>2022-08-01T15:10:15Z</time>
      </trkpt>
      <trkpt lat="45.80907" lon="1.55305">
        <ele>360.2</ele>
        <time>2022-08-01T15:10:17Z</time>
      </trkpt>
      <trkpt lat="45.80905" lon="1.55314">
        <ele>360.2</ele>
        <time>2022-08-01T15:10:19Z</time>
      </trkpt>
      <trkpt lat="45.80904" lon="1.55322">
        <ele>360.2</ele>
        <time>2022-08-01T15:10:21Z</time>
      </trkpt>
      <trkpt lat="45.80902" lon="1.55331">
        <ele>360.2</ele>
        <time>2022-08-01T15:10:23Z</time>
      </trkpt>
      <trkpt lat="45.809" lon="1.5534">
        <ele>360</ele>
        <time>2022-08-01T15:10:25Z</time>
      </trkpt>
      <trkpt lat="45.80898" lon="1.55349">
        <ele>359.7</ele>
        <time>2022-08-01T15:10:27Z</time>
      </trkpt>
      <trkpt lat="45.80895" lon="1.5536">
        <ele>359.5</ele>
        <time>2022-08-01T15:10:29Z</time>
      </trkpt>
      <trkpt lat="45.80893" lon="1.5537">
        <ele>359.2</ele>
        <time>2022-08-01T15:10:31Z</time>
      </trkpt>
      <trkpt lat="45.80889" lon="1.5538">
        <ele>359</ele>
        <time>2022-08-01T15:10:33Z</time>
      </trkpt>
      <trkpt lat="45.80886" lon="1.55391">
        <ele>358.8</ele>
        <time>2022-08-01T15:10:35Z</time>
      </trkpt>
      <trkpt lat="45.80882" lon="1.55403">
        <ele>358.6</ele>
        <time>2022-08-01T15:10:37Z</time>
      </trkpt>
      <trkpt lat="45.80879" lon="1.55416">
        <ele>358.4</ele>
        <time>2022-08-01T15:10:39Z</time>
      </trkpt>
      <trkpt lat="45.80874" lon="1.55429">
        <ele>358.1</ele>
        <time>2022-08-01T15:10:41Z</time>
      </trkpt>
      <trkpt lat="45.8087" lon="1.55444">
        <ele>357.8</ele>
        <time>2022-08-01T15:10:43Z</time>
      </trkpt>
      <trkpt lat="45.80865" lon="1.5546">
        <ele>357.4</ele>
        <time>2022-08-01T15:10:45Z</time>
      </trkpt>
      <trkpt lat="45.8086" lon="1.55476">
        <ele>356.9</ele>
        <time>2022-08-01T15:10:47Z</time>
      </trkpt>
      <trkpt lat="45.80855" lon="1.55494">
        <ele>356.2</ele>
        <time>2022-08-01T15:10:49Z</time>
      </trkpt>
      <trkpt lat="45.80849" lon="1.55512">
        <ele>356.1</ele>
        <time>2022-08-01T15:10:51Z</time>
      </trkpt>
      <trkpt lat="45.80843" lon="1.55531">
        <ele>356.3</ele>
        <time>2022-08-01T15:10:53Z</time>
      </trkpt>
      <trkpt lat="45.80835" lon="1.5555">
        <ele>356.6</ele>
        <time>2022-08-01T15:10:55Z</time>
      </trkpt>
      <trkpt lat="45.80825" lon="1.55566">
        <ele>356.7</ele>
        <time>2022-08-01T15:10:57Z</time>
      </trkpt>
      <trkpt lat="45.80814" lon="1.55581">
        <ele>356.8</ele>
        <time>2022-08-01T15:10:59Z</time>
      </trkpt>
      <trkpt lat="45.80802" lon="1.55594">
        <ele>356.8</ele>
        <time>2022-08-01T15:11:01Z</time>
      </trkpt>
      <trkpt lat="45.80789" lon="1.55605">
        <ele>357</ele>
        <time>2022-08-01T15:11:03Z</time>
      </trkpt>
      <trkpt lat="45.80778" lon="1.55615">
        <ele>357.2</ele>
        <time>2022-08-01T15:11:05Z</time>
      </trkpt>
      <trkpt lat="45.80766" lon="1.55625">
        <ele>357.5</ele>
        <time>2022-08-01T15:11:07Z</time>
      </trkpt>
      <trkpt lat="45.80756" lon="1.55634">
        <ele>357.8</ele>
        <time>2022-08-01T15:11:09Z</time>
      </trkpt>
      <trkpt lat="45.80747" lon="1.55642">
        <ele>358.2</ele>
        <time>2022-08-01T15:11:11Z</time>
      </trkpt>
      <trkpt lat="45.80739" lon="1.55649">
        <ele>358.5</ele>
        <time>2022-08-01T15:11:13Z</time>
      </trkpt>
      <trkpt lat="45.8073" lon="1.55656">
        <ele>358.9</ele>
        <time>2022-08-01T15:11:15Z</time>
      </trkpt>
      <trkpt lat="45.80723" lon="1.55662">
        <ele>359.2</ele>
        <time>2022-08-01T15:11:17Z</time>
      </trkpt>
      <trkpt lat="45.80717" lon="1.55668">
        <ele>359.4</ele>
        <time>2022-08-01T15:11:19Z</time>
      </trkpt>
      <trkpt lat="45.80711" lon="1.55674">
        <ele>359.6</ele>
        <time>2022-08-01T15:11:21Z</time>
      </trkpt>
      <trkpt lat="45.80705" lon="1.55679">
        <ele>359.8</ele>
        <time>2022-08-01T15:11:23Z</time>
      </trkpt>
      <trkpt lat="45.80699" lon="1.55684">
        <ele>360</ele>
        <time>2022-08-01T15:11:25Z</time>
      </trkpt>
      <trkpt lat="45.80694" lon="1.55689">
        <ele>360.1</ele>
        <time>2022-08-01T15:11:27Z</time>
      </trkpt>
      <trkpt lat="45.80688" lon="1.55693">
        <ele>360.3</ele>
        <time>2022-08-01T15:11:29Z</time>
      </trkpt>
      <trkpt lat="45.80684" lon="1.55698">
        <ele>360.5</ele>
        <time>2022-08-01T15:11:31Z</time>
      </trkpt>
      <trkpt lat="45.80678" lon="1.55702">
        <ele>360.7</ele>
        <time>2022-08-01T15:11:33Z</time>
      </trkpt>
      <trkpt lat="45.80673" lon="1.55706">
        <ele>360.8</ele>
        <time>2022-08-01T15:11:35Z</time>
      </trkpt>
      <trkpt lat="45.80669" lon="1.55711">
        <ele>361</ele>
        <time>2022-08-01T15:11:37Z</time>
      </trkpt>
      <trkpt lat="45.80664" lon="1.55715">
        <ele>361.2</ele>
        <time>2022-08-01T15:11:39Z</time>
      </trkpt>
      <trkpt lat="45.8066" lon="1.55719">
        <ele>361.2</ele>
        <time>2022-08-01T15:11:41Z</time>
      </trkpt>
      <trkpt lat="45.80656" lon="1.55722">
        <ele>361.3</ele>
        <time>2022-08-01T15:11:43Z</time>
      </trkpt>
      <trkpt lat="45.80652" lon="1.55726">
        <ele>361.4</ele>
        <time>2022-08-01T15:11:45Z</time>
      </trkpt>
      <trkpt lat="45.80648" lon="1.55731">
        <ele>361.5</ele>
        <time>2022-08-01T15:11:47Z</time>
      </trkpt>
      <trkpt lat="45.80644" lon="1.55735">
        <ele>361.6</ele>
        <time>2022-08-01T15:11:49Z</time>
      </trkpt>
      <trkpt lat="45.8064" lon="1.5574">
        <ele>361.8</ele>
        <time>2022-08-01T15:11:51Z</time>
      </trkpt>
      <trkpt lat="45.80636" lon="1.55744">
        <ele>361.9</ele>
        <time>2022-08-01T15:11:53Z</time>
      </trkpt>
      <trkpt lat="45.80633" lon="1.55749">
        <ele>362</ele>
        <time>2022-08-01T15:11:55Z</time>
      </trkpt>
      <trkpt lat="45.80629" lon="1.55754">
        <ele>362</ele>
        <time>2022-08-01T15:11:57Z</time>
      </trkpt>
      <trkpt lat="45.80625" lon="1.55759">
        <ele>362.1</ele>
        <time>2022-08-01T15:11:59Z</time>
      </trkpt>
      <trkpt lat="45.80622" lon="1.55764">
        <ele>362.2</ele>
        <time>2022-08-01T15:12:01Z</time>
      </trkpt>
      <trkpt lat="45.80618" lon="1.5577">
        <ele>362.3</ele>
        <time>2022-08-01T15:12:03Z</time>
      </trkpt>
      <trkpt lat="45.80614" lon="1.55775">
        <ele>362.4</ele>
        <time>2022-08-01T15:12:05Z</time>
      </trkpt>
      <trkpt lat="45.8061" lon="1.55781">
        <ele>362.5</ele>
        <time>2022-08-01T15:12:07Z</time>
      </trkpt>
      <trkpt lat="45.80606" lon="1.55788">
        <ele>362.7</ele>
        <time>2022-08-01T15:12:09Z</time>
      </trkpt>
      <trkpt lat="45.80602" lon="1.55793">
        <ele>362.8</ele>
        <time>2022-08-01T15:12:11Z</time>
      </trkpt>
      <trkpt lat="45.80598" lon="1.558">
        <ele>363</ele>
        <time>2022-08-01T15:12:13Z</time>
      </trkpt>
      <trkpt lat="45.80594" lon="1.55806">
        <ele>363.2</ele>
        <time>2022-08-01T15:12:15Z</time>
      </trkpt>
      <trkpt lat="45.80589" lon="1.55813">
        <ele>363.4</ele>
        <time>2022-08-01T15:12:17Z</time>
      </trkpt>
      <trkpt lat="45.80585" lon="1.5582">
        <ele>363.6</ele>
        <time>2022-08-01T15:12:19Z</time>
      </trkpt>
      <trkpt lat="45.8058" lon="1.55827">
        <ele>363.8</ele>
        <time>2022-08-01T15:12:21Z</time>
      </trkpt>
      <trkpt lat="45.80575" lon="1.55834">
        <ele>363.9</ele>
        <time>2022-08-01T15:12:23Z</time>
      </trkpt>
      <trkpt lat="45.8057" lon="1.5584">
        <ele>364</ele>
        <time>2022-08-01T15:12:25Z</time>
      </trkpt>
      <trkpt lat="45.80565" lon="1.55847">
        <ele>364.2</ele>
        <time>2022-08-01T15:12:27Z</time>
      </trkpt>
      <trkpt lat="45.8056" lon="1.55854">
        <ele>364.3</ele>
        <time>2022-08-01T15:12:29Z</time>
      </trkpt>
      <trkpt lat="45.80555" lon="1.55862">
        <ele>364.5</ele>
        <time>2022-08-01T15:12:31Z</time>
      </trkpt>
      <trkpt lat="45.8055" lon="1.55869">
        <ele>364.6</ele>
        <time>2022-08-01T15:12:33Z</time>
      </trkpt>
      <trkpt lat="45.80546" lon="1.55876">
        <ele>364.8</ele>
        <time>2022-08-01T15:12:35Z</time>
      </trkpt>
      <trkpt lat="45.80541" lon="1.55882">
        <ele>365</ele>
        <time>2022-08-01T15:12:37Z</time>
      </trkpt>
      <trkpt lat="45.80536" lon="1.55889">
        <ele>365.1</ele>
        <time>2022-08-01T15:12:39Z</time>
      </trkpt>
      <trkpt lat="45.80531" lon="1.55896">
        <ele>365.4</ele>
        <time>2022-08-01T15:12:41Z</time>
      </trkpt>
      <trkpt lat="45.80527" lon="1.55903">
        <ele>365.5</ele>
        <time>2022-08-01T15:12:43Z</time>
      </trkpt>
      <trkpt lat="45.80522" lon="1.55909">
        <ele>365.8</ele>
        <time>2022-08-01T15:12:45Z</time>
      </trkpt>
      <trkpt lat="45.80517" lon="1.55916">
        <ele>366</ele>
        <time>2022-08-01T15:12:47Z</time>
      </trkpt>
      <trkpt lat="45.80513" lon="1.55923">
        <ele>366.2</ele>
        <time>2022-08-01T15:12:49Z</time>
      </trkpt>
      <trkpt lat="45.80508" lon="1.55929">
        <ele>366.5</ele>
        <time>2022-08-01T15:12:51Z</time>
      </trkpt>
      <trkpt lat="45.80503" lon="1.55935">
        <ele>366.7</ele>
        <time>2022-08-01T15:12:53Z</time>
      </trkpt>
      <trkpt lat="45.80499" lon="1.55941">
        <ele>367</ele>
        <time>2022-08-01T15:12:55Z</time>
      </trkpt>
      <trkpt lat="45.80494" lon="1.55947">
        <ele>367.5</ele>
        <time>2022-08-01T15:12:57Z</time>
      </trkpt>
      <trkpt lat="45.80491" lon="1.55953">
        <ele>367.9</ele>
        <time>2022-08-01T15:12:59Z</time>
      </trkpt>
      <trkpt lat="45.80489" lon="1.55957">
        <ele>368.2</ele>
        <time>2022-08-01T15:13:01Z</time>
      </trkpt>
      <trkpt lat="45.80486" lon="1.55963">
        <ele>368.6</ele>
        <time>2022-08-01T15:13:03Z</time>
      </trkpt>
      <trkpt lat="45.80483" lon="1.55967">
        <ele>368.9</ele>
        <time>2022-08-01T15:13:05Z</time>
      </trkpt>
      <trkpt lat="45.80481" lon="1.55972">
        <ele>369.2</ele>
        <time>2022-08-01T15:13:07Z</time>
      </trkpt>
      <trkpt lat="45.80479" lon="1.55977">
        <ele>369.5</ele>
        <time>2022-08-01T15:13:09Z</time>
      </trkpt>
      <trkpt lat="45.80477" lon="1.55982">
        <ele>369.8</ele>
        <time>2022-08-01T15:13:11Z</time>
      </trkpt>
      <trkpt lat="45.80475" lon="1.55987">
        <ele>370.1</ele>
        <time>2022-08-01T15:13:13Z</time>
      </trkpt>
      <trkpt lat="45.80473" lon="1.55992">
        <ele>370.3</ele>
        <time>2022-08-01T15:13:15Z</time>
      </trkpt>
      <trkpt lat="45.80472" lon="1.55997">
        <ele>370.6</ele>
        <time>2022-08-01T15:13:17Z</time>
      </trkpt>
      <trkpt lat="45.80471" lon="1.56002">
        <ele>370.8</ele>
        <time>2022-08-01T15:13:19Z</time>
      </trkpt>
      <trkpt lat="45.8047" lon="1.56007">
        <ele>371.2</ele>
        <time>2022-08-01T15:13:21Z</time>
      </trkpt>
      <trkpt lat="45.8047" lon="1.56012">
        <ele>371.5</ele>
        <time>2022-08-01T15:13:23Z</time>
      </trkpt>
      <trkpt lat="45.8047" lon="1.56017">
        <ele>371.8</ele>
        <time>2022-08-01T15:13:25Z</time>
      </trkpt>
      <trkpt lat="45.80469" lon="1.56022">
        <ele>372.1</ele>
        <time>2022-08-01T15:13:27Z</time>
      </trkpt>
      <trkpt lat="45.80469" lon="1.56027">
        <ele>372.3</ele>
        <time>2022-08-01T15:13:29Z</time>
      </trkpt>
      <trkpt lat="45.80469" lon="1.56032">
        <ele>372.6</ele>
        <time>2022-08-01T15:13:31Z</time>
      </trkpt>
      <trkpt lat="45.80469" lon="1.56038">
        <ele>372.9</ele>
        <time>2022-08-01T15:13:33Z</time>
      </trkpt>
      <trkpt lat="45.8047" lon="1.56043">
        <ele>373.2</ele>
        <time>2022-08-01T15:13:35Z</time>
      </trkpt>
      <trkpt lat="45.80471" lon="1.56048">
        <ele>373.4</ele>
        <time>2022-08-01T15:13:37Z</time>
      </trkpt>
      <trkpt lat="45.80472" lon="1.56053">
        <ele>373.6</ele>
        <time>2022-08-01T15:13:39Z</time>
      </trkpt>
      <trkpt lat="45.80473" lon="1.56057">
        <ele>373.8</ele>
        <time>2022-08-01T15:13:41Z</time>
      </trkpt>
      <trkpt lat="45.80474" lon="1.56062">
        <ele>374.1</ele>
        <time>2022-08-01T15:13:43Z</time>
      </trkpt>
      <trkpt lat="45.80475" lon="1.56067">
        <ele>374.3</ele>
        <time>2022-08-01T15:13:45Z</time>
      </trkpt>
      <trkpt lat="45.80475" lon="1.56072">
        <ele>374.5</ele>
        <time>2022-08-01T15:13:47Z</time>
      </trkpt>
      <trkpt lat="45.80476" lon="1.56077">
        <ele>374.8</ele>
        <time>2022-08-01T15:13:49Z</time>
      </trkpt>
      <trkpt lat="45.80477" lon="1.56082">
        <ele>375</ele>
        <time>2022-08-01T15:13:51Z</time>
      </trkpt>
      <trkpt lat="45.80478" lon="1.56087">
        <ele>375.3</ele>
        <time>2022-08-01T15:13:53Z</time>
      </trkpt>
      <trkpt lat="45.80479" lon="1.56092">
        <ele>375.5</ele>
        <time>2022-08-01T15:13:55Z</time>
      </trkpt>
      <trkpt lat="45.80479" lon="1.56096">
        <ele>375.8</ele>
        <time>2022-08-01T15:13:57Z</time>
      </trkpt>
      <trkpt lat="45.8048" lon="1.56101">
        <ele>376.1</ele>
        <time>2022-08-01T15:13:59Z</time>
      </trkpt>
      <trkpt lat="45.8048" lon="1.56106">
        <ele>376.4</ele>
        <time>2022-08-01T15:14:01Z</time>
      </trkpt>
      <trkpt lat="45.8048" lon="1.56111">
        <ele>376.7</ele>
        <time>2022-08-01T15:14:03Z</time>
      </trkpt>
      <trkpt lat="45.8048" lon="1.56116">
        <ele>377</ele>
        <time>2022-08-01T15:14:05Z</time>
      </trkpt>
      <trkpt lat="45.80481" lon="1.5612">
        <ele>377.3</ele>
        <time>2022-08-01T15:14:07Z</time>
      </trkpt>
      <trkpt lat="45.80481" lon="1.56125">
        <ele>377.6</ele>
        <time>2022-08-01T15:14:09Z</time>
      </trkpt>
      <trkpt lat="45.8048" lon="1.5613">
        <ele>377.9</ele>
        <time>2022-08-01T15:14:11Z</time>
      </trkpt>
      <trkpt lat="45.80481" lon="1.56136">
        <ele>378.2</ele>
        <time>2022-08-01T15:14:13Z</time>
      </trkpt>
      <trkpt lat="45.80481" lon="1.56141">
        <ele>378.5</ele>
        <time>2022-08-01T15:14:15Z</time>
      </trkpt>
      <trkpt lat="45.80481" lon="1.56145">
        <ele>378.8</ele>
        <time>2022-08-01T15:14:17Z</time>
      </trkpt>
      <trkpt lat="45.80481" lon="1.5615">
        <ele>379.1</ele>
        <time>2022-08-01T15:14:19Z</time>
      </trkpt>
      <trkpt lat="45.80481" lon="1.56155">
        <ele>379.5</ele>
        <time>2022-08-01T15:14:21Z</time>
      </trkpt>
      <trkpt lat="45.80481" lon="1.5616">
        <ele>379.7</ele>
        <time>2022-08-01T15:14:23Z</time>
      </trkpt>
      <trkpt lat="45.80481" lon="1.56165">
        <ele>380</ele>
        <time>2022-08-01T15:14:25Z</time>
      </trkpt>
      <trkpt lat="45.8048" lon="1.5617">
        <ele>380.2</ele>
        <time>2022-08-01T15:14:27Z</time>
      </trkpt>
      <trkpt lat="45.80481" lon="1.56174">
        <ele>380.1</ele>
        <time>2022-08-01T15:14:29Z</time>
      </trkpt>
      <trkpt lat="45.8048" lon="1.56179">
        <ele>380.1</ele>
        <time>2022-08-01T15:14:31Z</time>
      </trkpt>
      <trkpt lat="45.8048" lon="1.56184">
        <ele>380.1</ele>
        <time>2022-08-01T15:14:33Z</time>
      </trkpt>
      <trkpt lat="45.80479" lon="1.56189">
        <ele>380</ele>
        <time>2022-08-01T15:14:35Z</time>
      </trkpt>
      <trkpt lat="45.80479" lon="1.56194">
        <ele>380.1</ele>
        <time>2022-08-01T15:14:37Z</time>
      </trkpt>
      <trkpt lat="45.80478" lon="1.56198">
        <ele>380.1</ele>
        <time>2022-08-01T15:14:39Z</time>
      </trkpt>
      <trkpt lat="45.80478" lon="1.56204">
        <ele>380.1</ele>
        <time>2022-08-01T15:14:41Z</time>
      </trkpt>
      <trkpt lat="45.80476" lon="1.56209">
        <ele>380.2</ele>
        <time>2022-08-01T15:14:43Z</time>
      </trkpt>
      <trkpt lat="45.80474" lon="1.56215">
        <ele>380.3</ele>
        <time>2022-08-01T15:14:45Z</time>
      </trkpt>
      <trkpt lat="45.80473" lon="1.56221">
        <ele>380.4</ele>
        <time>2022-08-01T15:14:47Z</time>
      </trkpt>
      <trkpt lat="45.80471" lon="1.56227">
        <ele>380.5</ele>
        <time>2022-08-01T15:14:49Z</time>
      </trkpt>
      <trkpt lat="45.80469" lon="1.56233">
        <ele>380.8</ele>
        <time>2022-08-01T15:14:51Z</time>
      </trkpt>
      <trkpt lat="45.80467" lon="1.5624">
        <ele>381</ele>
        <time>2022-08-01T15:14:53Z</time>
      </trkpt>
      <trkpt lat="45.80465" lon="1.56246">
        <ele>381.2</ele>
        <time>2022-08-01T15:14:55Z</time>
      </trkpt>
      <trkpt lat="45.80463" lon="1.56254">
        <ele>381.4</ele>
        <time>2022-08-01T15:14:57Z</time>
      </trkpt>
      <trkpt lat="45.80461" lon="1.56262">
        <ele>381.4</ele>
        <time>2022-08-01T15:14:59Z</time>
      </trkpt>
      <trkpt lat="45.80458" lon="1.56269">
        <ele>381.6</ele>
        <time>2022-08-01T15:15:01Z</time>
      </trkpt>
      <trkpt lat="45.80455" lon="1.56277">
        <ele>381.7</ele>
        <time>2022-08-01T15:15:03Z</time>
      </trkpt>
      <trkpt lat="45.80453" lon="1.56286">
        <ele>381.8</ele>
        <time>2022-08-01T15:15:05Z</time>
      </trkpt>
      <trkpt lat="45.8045" lon="1.56295">
        <ele>381.9</ele>
        <time>2022-08-01T15:15:07Z</time>
      </trkpt>
      <trkpt lat="45.80447" lon="1.56305">
        <ele>382</ele>
        <time>2022-08-01T15:15:09Z</time>
      </trkpt>
      <trkpt lat="45.80444" lon="1.56315">
        <ele>382.1</ele>
        <time>2022-08-01T15:15:11Z</time>
      </trkpt>
      <trkpt lat="45.80441" lon="1.56324">
        <ele>382.3</ele>
        <time>2022-08-01T15:15:13Z</time>
      </trkpt>
      <trkpt lat="45.80439" lon="1.56334">
        <ele>382.3</ele>
        <time>2022-08-01T15:15:15Z</time>
      </trkpt>
      <trkpt lat="45.80437" lon="1.56346">
        <ele>382.4</ele>
        <time>2022-08-01T15:15:17Z</time>
      </trkpt>
      <trkpt lat="45.80437" lon="1.56358">
        <ele>382.3</ele>
        <time>2022-08-01T15:15:19Z</time>
      </trkpt>
      <trkpt lat="45.80437" lon="1.56369">
        <ele>382.2</ele>
        <time>2022-08-01T15:15:21Z</time>
      </trkpt>
      <trkpt lat="45.80438" lon="1.5638">
        <ele>381.9</ele>
        <time>2022-08-01T15:15:23Z</time>
      </trkpt>
      <trkpt lat="45.80441" lon="1.56391">
        <ele>381.3</ele>
        <time>2022-08-01T15:15:25Z</time>
      </trkpt>
      <trkpt lat="45.8045" lon="1.56402">
        <ele>380.1</ele>
        <time>2022-08-01T15:15:27Z</time>
      </trkpt>
      <trkpt lat="45.80458" lon="1.56412">
        <ele>379.1</ele>
        <time>2022-08-01T15:15:29Z</time>
      </trkpt>
      <trkpt lat="45.80466" lon="1.56421">
        <ele>378.2</ele>
        <time>2022-08-01T15:15:31Z</time>
      </trkpt>
      <trkpt lat="45.80476" lon="1.5643">
        <ele>377.5</ele>
        <time>2022-08-01T15:15:33Z</time>
      </trkpt>
      <trkpt lat="45.80485" lon="1.5644">
        <ele>377</ele>
        <time>2022-08-01T15:15:35Z</time>
      </trkpt>
      <trkpt lat="45.80494" lon="1.5645">
        <ele>376.6</ele>
        <time>2022-08-01T15:15:37Z</time>
      </trkpt>
      <trkpt lat="45.80504" lon="1.5646">
        <ele>376.2</ele>
        <time>2022-08-01T15:15:39Z</time>
      </trkpt>
      <trkpt lat="45.80514" lon="1.56471">
        <ele>375.9</ele>
        <time>2022-08-01T15:15:41Z</time>
      </trkpt>
      <trkpt lat="45.80525" lon="1.56481">
        <ele>375.2</ele>
        <time>2022-08-01T15:15:43Z</time>
      </trkpt>
      <trkpt lat="45.80536" lon="1.56493">
        <ele>374.5</ele>
        <time>2022-08-01T15:15:45Z</time>
      </trkpt>
      <trkpt lat="45.80546" lon="1.56504">
        <ele>373.6</ele>
        <time>2022-08-01T15:15:47Z</time>
      </trkpt>
      <trkpt lat="45.80557" lon="1.56516">
        <ele>372.9</ele>
        <time>2022-08-01T15:15:49Z</time>
      </trkpt>
      <trkpt lat="45.80568" lon="1.56527">
        <ele>371.9</ele>
        <time>2022-08-01T15:15:51Z</time>
      </trkpt>
      <trkpt lat="45.8058" lon="1.56538">
        <ele>370.9</ele>
        <time>2022-08-01T15:15:53Z</time>
      </trkpt>
      <trkpt lat="45.80591" lon="1.5655">
        <ele>370.4</ele>
        <time>2022-08-01T15:15:55Z</time>
      </trkpt>
      <trkpt lat="45.80601" lon="1.5656">
        <ele>370.2</ele>
        <time>2022-08-01T15:15:57Z</time>
      </trkpt>
      <trkpt lat="45.80612" lon="1.56571">
        <ele>369.9</ele>
        <time>2022-08-01T15:15:59Z</time>
      </trkpt>
      <trkpt lat="45.80623" lon="1.56582">
        <ele>369.6</ele>
        <time>2022-08-01T15:16:01Z</time>
      </trkpt>
      <trkpt lat="45.80633" lon="1.56592">
        <ele>369.5</ele>
        <time>2022-08-01T15:16:03Z</time>
      </trkpt>
      <trkpt lat="45.80643" lon="1.56601">
        <ele>369.6</ele>
        <time>2022-08-01T15:16:05Z</time>
      </trkpt>
      <trkpt lat="45.80652" lon="1.56611">
        <ele>369.7</ele>
        <time>2022-08-01T15:16:07Z</time>
      </trkpt>
      <trkpt lat="45.80662" lon="1.5662">
        <ele>369.9</ele>
        <time>2022-08-01T15:16:09Z</time>
      </trkpt>
      <trkpt lat="45.8067" lon="1.56629">
        <ele>370.1</ele>
        <time>2022-08-01T15:16:11Z</time>
      </trkpt>
      <trkpt lat="45.80679" lon="1.56637">
        <ele>370.2</ele>
        <time>2022-08-01T15:16:13Z</time>
      </trkpt>
      <trkpt lat="45.80688" lon="1.56646">
        <ele>370.3</ele>
        <time>2022-08-01T15:16:15Z</time>
      </trkpt>
      <trkpt lat="45.80696" lon="1.56654">
        <ele>370.4</ele>
        <time>2022-08-01T15:16:17Z</time>
      </trkpt>
      <trkpt lat="45.80705" lon="1.56662">
        <ele>370.4</ele>
        <time>2022-08-01T15:16:19Z</time>
      </trkpt>
      <trkpt lat="45.80714" lon="1.5667">
        <ele>370.3</ele>
        <time>2022-08-01T15:16:21Z</time>
      </trkpt>
      <trkpt lat="45.80723" lon="1.56677">
        <ele>370.2</ele>
        <time>2022-08-01T15:16:23Z</time>
      </trkpt>
      <trkpt lat="45.80731" lon="1.56684">
        <ele>370.1</ele>
        <time>2022-08-01T15:16:25Z</time>
      </trkpt>
      <trkpt lat="45.8074" lon="1.5669">
        <ele>370</ele>
        <time>2022-08-01T15:16:27Z</time>
      </trkpt>
      <trkpt lat="45.80748" lon="1.56697">
        <ele>369.9</ele>
        <time>2022-08-01T15:16:29Z</time>
      </trkpt>
      <trkpt lat="45.80757" lon="1.56703">
        <ele>369.5</ele>
        <time>2022-08-01T15:16:31Z</time>
      </trkpt>
      <trkpt lat="45.80765" lon="1.5671">
        <ele>369.3</ele>
        <time>2022-08-01T15:16:33Z</time>
      </trkpt>
      <trkpt lat="45.80774" lon="1.56717">
        <ele>368.9</ele>
        <time>2022-08-01T15:16:35Z</time>
      </trkpt>
      <trkpt lat="45.80783" lon="1.56724">
        <ele>368.6</ele>
        <time>2022-08-01T15:16:37Z</time>
      </trkpt>
      <trkpt lat="45.80792" lon="1.5673">
        <ele>368.4</ele>
        <time>2022-08-01T15:16:39Z</time>
      </trkpt>
      <trkpt lat="45.80801" lon="1.56737">
        <ele>368.3</ele>
        <time>2022-08-01T15:16:41Z</time>
      </trkpt>
      <trkpt lat="45.8081" lon="1.56744">
        <ele>368.1</ele>
        <time>2022-08-01T15:16:43Z</time>
      </trkpt>
      <trkpt lat="45.80819" lon="1.5675">
        <ele>368</ele>
        <time>2022-08-01T15:16:45Z</time>
      </trkpt>
      <trkpt lat="45.80828" lon="1.56757">
        <ele>368.2</ele>
        <time>2022-08-01T15:16:47Z</time>
      </trkpt>
      <trkpt lat="45.80837" lon="1.56764">
        <ele>368.4</ele>
        <time>2022-08-01T15:16:49Z</time>
      </trkpt>
      <trkpt lat="45.80846" lon="1.5677">
        <ele>368.5</ele>
        <time>2022-08-01T15:16:51Z</time>
      </trkpt>
      <trkpt lat="45.80854" lon="1.56776">
        <ele>368.7</ele>
        <time>2022-08-01T15:16:53Z</time>
      </trkpt>
      <trkpt lat="45.80863" lon="1.56783">
        <ele>369</ele>
        <time>2022-08-01T15:16:55Z</time>
      </trkpt>
      <trkpt lat="45.80873" lon="1.5679">
        <ele>369.2</ele>
        <time>2022-08-01T15:16:57Z</time>
      </trkpt>
      <trkpt lat="45.80883" lon="1.56797">
        <ele>369.4</ele>
        <time>2022-08-01T15:16:59Z</time>
      </trkpt>
      <trkpt lat="45.80894" lon="1.56802">
        <ele>369.3</ele>
        <time>2022-08-01T15:17:01Z</time>
      </trkpt>
      <trkpt lat="45.80906" lon="1.56805">
        <ele>368.9</ele>
        <time>2022-08-01T15:17:03Z</time>
      </trkpt>
      <trkpt lat="45.80919" lon="1.56805">
        <ele>368.2</ele>
        <time>2022-08-01T15:17:05Z</time>
      </trkpt>
      <trkpt lat="45.80932" lon="1.56803">
        <ele>367.3</ele>
        <time>2022-08-01T15:17:07Z</time>
      </trkpt>
      <trkpt lat="45.80945" lon="1.56801">
        <ele>366.3</ele>
        <time>2022-08-01T15:17:09Z</time>
      </trkpt>
      <trkpt lat="45.80958" lon="1.56798">
        <ele>365.3</ele>
        <time>2022-08-01T15:17:11Z</time>
      </trkpt>
      <trkpt lat="45.80971" lon="1.56795">
        <ele>364.3</ele>
        <time>2022-08-01T15:17:13Z</time>
      </trkpt>
      <trkpt lat="45.80983" lon="1.56792">
        <ele>363.3</ele>
        <time>2022-08-01T15:17:15Z</time>
      </trkpt>
      <trkpt lat="45.80995" lon="1.56789">
        <ele>362.3</ele>
        <time>2022-08-01T15:17:17Z</time>
      </trkpt>
      <trkpt lat="45.81007" lon="1.56786">
        <ele>361.8</ele>
        <time>2022-08-01T15:17:19Z</time>
      </trkpt>
      <trkpt lat="45.81019" lon="1.56784">
        <ele>361.7</ele>
        <time>2022-08-01T15:17:21Z</time>
      </trkpt>
      <trkpt lat="45.81031" lon="1.56781">
        <ele>361.4</ele>
        <time>2022-08-01T15:17:23Z</time>
      </trkpt>
      <trkpt lat="45.81042" lon="1.56778">
        <ele>361.2</ele>
        <time>2022-08-01T15:17:25Z</time>
      </trkpt>
      <trkpt lat="45.81053" lon="1.56776">
        <ele>361</ele>
        <time>2022-08-01T15:17:27Z</time>
      </trkpt>
      <trkpt lat="45.81065" lon="1.56773">
        <ele>360.8</ele>
        <time>2022-08-01T15:17:29Z</time>
      </trkpt>
      <trkpt lat="45.81077" lon="1.56771">
        <ele>360.6</ele>
        <time>2022-08-01T15:17:31Z</time>
      </trkpt>
      <trkpt lat="45.81088" lon="1.56767">
        <ele>360.5</ele>
        <time>2022-08-01T15:17:33Z</time>
      </trkpt>
      <trkpt lat="45.81101" lon="1.56764">
        <ele>360.6</ele>
        <time>2022-08-01T15:17:35Z</time>
      </trkpt>
      <trkpt lat="45.81113" lon="1.56759">
        <ele>360.6</ele>
        <time>2022-08-01T15:17:37Z</time>
      </trkpt>
      <trkpt lat="45.81125" lon="1.56754">
        <ele>360.5</ele>
        <time>2022-08-01T15:17:39Z</time>
      </trkpt>
      <trkpt lat="45.81137" lon="1.56749">
        <ele>360.5</ele>
        <time>2022-08-01T15:17:41Z</time>
      </trkpt>
      <trkpt lat="45.81149" lon="1.56743">
        <ele>360.6</ele>
        <time>2022-08-01T15:17:43Z</time>
      </trkpt>
      <trkpt lat="45.81161" lon="1.56737">
        <ele>360.7</ele>
        <time>2022-08-01T15:17:45Z</time>
      </trkpt>
      <trkpt lat="45.81173" lon="1.56731">
        <ele>360.2</ele>
        <time>2022-08-01T15:17:47Z</time>
      </trkpt>
      <trkpt lat="45.81186" lon="1.56728">
        <ele>359.5</ele>
        <time>2022-08-01T15:17:49Z</time>
      </trkpt>
      <trkpt lat="45.81199" lon="1.56726">
        <ele>359</ele>
        <time>2022-08-01T15:17:51Z</time>
      </trkpt>
      <trkpt lat="45.81211" lon="1.56728">
        <ele>358.8</ele>
        <time>2022-08-01T15:17:53Z</time>
      </trkpt>
      <trkpt lat="45.81221" lon="1.56732">
        <ele>358.9</ele>
        <time>2022-08-01T15:17:55Z</time>
      </trkpt>
      <trkpt lat="45.81229" lon="1.56738">
        <ele>359.3</ele>
        <time>2022-08-01T15:17:57Z</time>
      </trkpt>
      <trkpt lat="45.81237" lon="1.56744">
        <ele>359.6</ele>
        <time>2022-08-01T15:17:59Z</time>
      </trkpt>
      <trkpt lat="45.81244" lon="1.56751">
        <ele>360.2</ele>
        <time>2022-08-01T15:18:01Z</time>
      </trkpt>
      <trkpt lat="45.81247" lon="1.56758">
        <ele>360.2</ele>
        <time>2022-08-01T15:18:03Z</time>
      </trkpt>
      <trkpt lat="45.81249" lon="1.56764">
        <ele>360.2</ele>
        <time>2022-08-01T15:18:05Z</time>
      </trkpt>
      <trkpt lat="45.81247" lon="1.5677">
        <ele>360.4</ele>
        <time>2022-08-01T15:18:07Z</time>
      </trkpt>
      <trkpt lat="45.81248" lon="1.56773">
        <ele>360.4</ele>
        <time>2022-08-01T15:18:09Z</time>
      </trkpt>
      <trkpt lat="45.81248" lon="1.56774">
        <ele>360.4</ele>
        <time>2022-08-01T15:18:11Z</time>
      </trkpt>
      <trkpt lat="45.81249" lon="1.56774">
        <ele>360.4</ele>
        <time>2022-08-01T15:18:13Z</time>
      </trkpt>
      <trkpt lat="45.81249" lon="1.56774">
        <ele>360.3</ele>
        <time>2022-08-01T15:18:15Z</time>
      </trkpt>
      <trkpt lat="45.81249" lon="1.56774">
        <ele>360.3</ele>
        <time>2022-08-01T15:18:17Z</time>
      </trkpt>
      <trkpt lat="45.81246" lon="1.56796">
        <ele>360.9</ele>
        <time>2022-08-01T15:19:53Z</time>
      </trkpt>
      <trkpt lat="45.81243" lon="1.56802">
        <ele>361.2</ele>
        <time>2022-08-01T15:19:55Z</time>
      </trkpt>
      <trkpt lat="45.8124" lon="1.56808">
        <ele>361.7</ele>
        <time>2022-08-01T15:19:57Z</time>
      </trkpt>
      <trkpt lat="45.81238" lon="1.56816">
        <ele>362</ele>
        <time>2022-08-01T15:19:59Z</time>
      </trkpt>
      <trkpt lat="45.81236" lon="1.56823">
        <ele>362.6</ele>
        <time>2022-08-01T15:20:01Z</time>
      </trkpt>
      <trkpt lat="45.81233" lon="1.5683">
        <ele>363.1</ele>
        <time>2022-08-01T15:20:03Z</time>
      </trkpt>
      <trkpt lat="45.81232" lon="1.56837">
        <ele>363.5</ele>
        <time>2022-08-01T15:20:05Z</time>
      </trkpt>
      <trkpt lat="45.81231" lon="1.56844">
        <ele>363.7</ele>
        <time>2022-08-01T15:20:07Z</time>
      </trkpt>
      <trkpt lat="45.8123" lon="1.56849">
        <ele>363.9</ele>
        <time>2022-08-01T15:20:09Z</time>
      </trkpt>
      <trkpt lat="45.8123" lon="1.56855">
        <ele>364.1</ele>
        <time>2022-08-01T15:20:11Z</time>
      </trkpt>
      <trkpt lat="45.81229" lon="1.5686">
        <ele>364.2</ele>
        <time>2022-08-01T15:20:13Z</time>
      </trkpt>
      <trkpt lat="45.81228" lon="1.56864">
        <ele>364.5</ele>
        <time>2022-08-01T15:20:15Z</time>
      </trkpt>
      <trkpt lat="45.81228" lon="1.56868">
        <ele>364.6</ele>
        <time>2022-08-01T15:20:17Z</time>
      </trkpt>
      <trkpt lat="45.81227" lon="1.56873">
        <ele>364.7</ele>
        <time>2022-08-01T15:20:19Z</time>
      </trkpt>
      <trkpt lat="45.81227" lon="1.5688">
        <ele>364.9</ele>
        <time>2022-08-01T15:20:21Z</time>
      </trkpt>
      <trkpt lat="45.81228" lon="1.56886">
        <ele>364.9</ele>
        <time>2022-08-01T15:20:23Z</time>
      </trkpt>
      <trkpt lat="45.8123" lon="1.56892">
        <ele>364.7</ele>
        <time>2022-08-01T15:20:25Z</time>
      </trkpt>
      <trkpt lat="45.81228" lon="1.569">
        <ele>365.2</ele>
        <time>2022-08-01T15:20:27Z</time>
      </trkpt>
      <trkpt lat="45.81228" lon="1.56908">
        <ele>365.2</ele>
        <time>2022-08-01T15:20:29Z</time>
      </trkpt>
      <trkpt lat="45.81229" lon="1.56916">
        <ele>365.3</ele>
        <time>2022-08-01T15:20:31Z</time>
      </trkpt>
      <trkpt lat="45.81229" lon="1.56924">
        <ele>365.3</ele>
        <time>2022-08-01T15:20:33Z</time>
      </trkpt>
      <trkpt lat="45.81228" lon="1.56929">
        <ele>365.4</ele>
        <time>2022-08-01T15:20:35Z</time>
      </trkpt>
      <trkpt lat="45.81225" lon="1.56934">
        <ele>365.8</ele>
        <time>2022-08-01T15:20:37Z</time>
      </trkpt>
      <trkpt lat="45.81224" lon="1.56941">
        <ele>365.8</ele>
        <time>2022-08-01T15:20:39Z</time>
      </trkpt>
      <trkpt lat="45.81222" lon="1.56946">
        <ele>366.1</ele>
        <time>2022-08-01T15:20:41Z</time>
      </trkpt>
      <trkpt lat="45.81221" lon="1.56952">
        <ele>366.2</ele>
        <time>2022-08-01T15:20:43Z</time>
      </trkpt>
      <trkpt lat="45.8122" lon="1.56959">
        <ele>366.2</ele>
        <time>2022-08-01T15:20:45Z</time>
      </trkpt>
      <trkpt lat="45.81218" lon="1.56964">
        <ele>366.5</ele>
        <time>2022-08-01T15:20:47Z</time>
      </trkpt>
      <trkpt lat="45.81215" lon="1.56968">
        <ele>366.8</ele>
        <time>2022-08-01T15:20:49Z</time>
      </trkpt>
      <trkpt lat="45.81213" lon="1.56972">
        <ele>366.9</ele>
        <time>2022-08-01T15:20:51Z</time>
      </trkpt>
      <trkpt lat="45.8121" lon="1.56976">
        <ele>367.2</ele>
        <time>2022-08-01T15:20:53Z</time>
      </trkpt>
      <trkpt lat="45.81209" lon="1.56981">
        <ele>367.2</ele>
        <time>2022-08-01T15:20:55Z</time>
      </trkpt>
      <trkpt lat="45.81207" lon="1.56985">
        <ele>367.4</ele>
        <time>2022-08-01T15:20:57Z</time>
      </trkpt>
      <trkpt lat="45.81204" lon="1.56988">
        <ele>367.7</ele>
        <time>2022-08-01T15:20:59Z</time>
      </trkpt>
      <trkpt lat="45.81201" lon="1.56992">
        <ele>367.8</ele>
        <time>2022-08-01T15:21:01Z</time>
      </trkpt>
      <trkpt lat="45.81198" lon="1.56995">
        <ele>368.1</ele>
        <time>2022-08-01T15:21:03Z</time>
      </trkpt>
      <trkpt lat="45.81195" lon="1.56998">
        <ele>368.3</ele>
        <time>2022-08-01T15:21:05Z</time>
      </trkpt>
      <trkpt lat="45.81192" lon="1.57001">
        <ele>368.6</ele>
        <time>2022-08-01T15:21:07Z</time>
      </trkpt>
      <trkpt lat="45.81188" lon="1.57004">
        <ele>368.9</ele>
        <time>2022-08-01T15:21:09Z</time>
      </trkpt>
      <trkpt lat="45.81185" lon="1.57007">
        <ele>369.1</ele>
        <time>2022-08-01T15:21:11Z</time>
      </trkpt>
      <trkpt lat="45.81181" lon="1.57009">
        <ele>369.4</ele>
        <time>2022-08-01T15:21:13Z</time>
      </trkpt>
      <trkpt lat="45.81177" lon="1.57011">
        <ele>369.7</ele>
        <time>2022-08-01T15:21:15Z</time>
      </trkpt>
      <trkpt lat="45.81173" lon="1.57013">
        <ele>369.9</ele>
        <time>2022-08-01T15:21:17Z</time>
      </trkpt>
      <trkpt lat="45.8117" lon="1.57016">
        <ele>370.2</ele>
        <time>2022-08-01T15:21:19Z</time>
      </trkpt>
      <trkpt lat="45.81167" lon="1.57018">
        <ele>370.4</ele>
        <time>2022-08-01T15:21:21Z</time>
      </trkpt>
      <trkpt lat="45.81163" lon="1.5702">
        <ele>370.5</ele>
        <time>2022-08-01T15:21:23Z</time>
      </trkpt>
      <trkpt lat="45.81159" lon="1.57021">
        <ele>370.6</ele>
        <time>2022-08-01T15:21:25Z</time>
      </trkpt>
      <trkpt lat="45.81155" lon="1.57023">
        <ele>370.7</ele>
        <time>2022-08-01T15:21:27Z</time>
      </trkpt>
      <trkpt lat="45.81151" lon="1.57024">
        <ele>370.9</ele>
        <time>2022-08-01T15:21:29Z</time>
      </trkpt>
      <trkpt lat="45.81147" lon="1.57028">
        <ele>370.9</ele>
        <time>2022-08-01T15:21:31Z</time>
      </trkpt>
      <trkpt lat="45.81145" lon="1.5703">
        <ele>371</ele>
        <time>2022-08-01T15:21:33Z</time>
      </trkpt>
      <trkpt lat="45.81141" lon="1.57032">
        <ele>371</ele>
        <time>2022-08-01T15:21:35Z</time>
      </trkpt>
      <trkpt lat="45.81138" lon="1.57035">
        <ele>371.1</ele>
        <time>2022-08-01T15:21:37Z</time>
      </trkpt>
      <trkpt lat="45.81136" lon="1.57036">
        <ele>371.2</ele>
        <time>2022-08-01T15:21:39Z</time>
      </trkpt>
      <trkpt lat="45.81132" lon="1.57038">
        <ele>371.3</ele>
        <time>2022-08-01T15:21:41Z</time>
      </trkpt>
      <trkpt lat="45.81128" lon="1.57039">
        <ele>371.5</ele>
        <time>2022-08-01T15:21:43Z</time>
      </trkpt>
      <trkpt lat="45.81123" lon="1.57041">
        <ele>371.6</ele>
        <time>2022-08-01T15:21:45Z</time>
      </trkpt>
      <trkpt lat="45.8112" lon="1.57044">
        <ele>371.7</ele>
        <time>2022-08-01T15:21:47Z</time>
      </trkpt>
      <trkpt lat="45.81116" lon="1.57046">
        <ele>371.8</ele>
        <time>2022-08-01T15:21:49Z</time>
      </trkpt>
      <trkpt lat="45.81112" lon="1.57046">
        <ele>372</ele>
        <time>2022-08-01T15:21:51Z</time>
      </trkpt>
      <trkpt lat="45.81107" lon="1.57049">
        <ele>372.1</ele>
        <time>2022-08-01T15:21:53Z</time>
      </trkpt>
      <trkpt lat="45.81102" lon="1.57051">
        <ele>372.3</ele>
        <time>2022-08-01T15:21:55Z</time>
      </trkpt>
      <trkpt lat="45.81097" lon="1.57055">
        <ele>372.4</ele>
        <time>2022-08-01T15:21:57Z</time>
      </trkpt>
      <trkpt lat="45.81092" lon="1.57057">
        <ele>372.5</ele>
        <time>2022-08-01T15:21:59Z</time>
      </trkpt>
      <trkpt lat="45.81089" lon="1.57058">
        <ele>372.6</ele>
        <time>2022-08-01T15:22:01Z</time>
      </trkpt>
      <trkpt lat="45.81086" lon="1.57059">
        <ele>372.8</ele>
        <time>2022-08-01T15:22:03Z</time>
      </trkpt>
      <trkpt lat="45.81082" lon="1.57061">
        <ele>372.9</ele>
        <time>2022-08-01T15:22:05Z</time>
      </trkpt>
      <trkpt lat="45.81079" lon="1.57061">
        <ele>372.9</ele>
        <time>2022-08-01T15:22:07Z</time>
      </trkpt>
      <trkpt lat="45.81076" lon="1.57062">
        <ele>373</ele>
        <time>2022-08-01T15:22:09Z</time>
      </trkpt>
      <trkpt lat="45.81073" lon="1.57065">
        <ele>373</ele>
        <time>2022-08-01T15:22:11Z</time>
      </trkpt>
      <trkpt lat="45.81069" lon="1.57066">
        <ele>373.1</ele>
        <time>2022-08-01T15:22:13Z</time>
      </trkpt>
      <trkpt lat="45.81066" lon="1.57068">
        <ele>373.1</ele>
        <time>2022-08-01T15:22:15Z</time>
      </trkpt>
      <trkpt lat="45.81063" lon="1.5707">
        <ele>373.2</ele>
        <time>2022-08-01T15:22:17Z</time>
      </trkpt>
      <trkpt lat="45.81059" lon="1.57073">
        <ele>373.2</ele>
        <time>2022-08-01T15:22:19Z</time>
      </trkpt>
      <trkpt lat="45.81055" lon="1.57074">
        <ele>373.3</ele>
        <time>2022-08-01T15:22:21Z</time>
      </trkpt>
      <trkpt lat="45.81052" lon="1.57075">
        <ele>373.4</ele>
        <time>2022-08-01T15:22:23Z</time>
      </trkpt>
      <trkpt lat="45.81049" lon="1.57076">
        <ele>373.5</ele>
        <time>2022-08-01T15:22:25Z</time>
      </trkpt>
      <trkpt lat="45.81045" lon="1.57076">
        <ele>373.6</ele>
        <time>2022-08-01T15:22:27Z</time>
      </trkpt>
      <trkpt lat="45.8104" lon="1.57077">
        <ele>373.8</ele>
        <time>2022-08-01T15:22:29Z</time>
      </trkpt>
      <trkpt lat="45.81036" lon="1.57077">
        <ele>373.9</ele>
        <time>2022-08-01T15:22:31Z</time>
      </trkpt>
      <trkpt lat="45.81031" lon="1.57077">
        <ele>374</ele>
        <time>2022-08-01T15:22:33Z</time>
      </trkpt>
      <trkpt lat="45.81027" lon="1.57077">
        <ele>374.2</ele>
        <time>2022-08-01T15:22:35Z</time>
      </trkpt>
      <trkpt lat="45.81023" lon="1.57077">
        <ele>374.4</ele>
        <time>2022-08-01T15:22:37Z</time>
      </trkpt>
      <trkpt lat="45.81018" lon="1.57076">
        <ele>374.6</ele>
        <time>2022-08-01T15:22:39Z</time>
      </trkpt>
      <trkpt lat="45.81013" lon="1.57075">
        <ele>374.7</ele>
        <time>2022-08-01T15:22:41Z</time>
      </trkpt>
      <trkpt lat="45.81008" lon="1.57075">
        <ele>374.9</ele>
        <time>2022-08-01T15:22:43Z</time>
      </trkpt>
      <trkpt lat="45.81003" lon="1.57074">
        <ele>375.1</ele>
        <time>2022-08-01T15:22:45Z</time>
      </trkpt>
      <trkpt lat="45.80999" lon="1.57074">
        <ele>375.3</ele>
        <time>2022-08-01T15:22:47Z</time>
      </trkpt>
      <trkpt lat="45.80994" lon="1.57073">
        <ele>375.5</ele>
        <time>2022-08-01T15:22:49Z</time>
      </trkpt>
      <trkpt lat="45.80989" lon="1.57073">
        <ele>375.7</ele>
        <time>2022-08-01T15:22:51Z</time>
      </trkpt>
      <trkpt lat="45.80984" lon="1.57073">
        <ele>376</ele>
        <time>2022-08-01T15:22:53Z</time>
      </trkpt>
      <trkpt lat="45.80979" lon="1.57073">
        <ele>376.2</ele>
        <time>2022-08-01T15:22:55Z</time>
      </trkpt>
      <trkpt lat="45.80974" lon="1.57073">
        <ele>376.4</ele>
        <time>2022-08-01T15:22:57Z</time>
      </trkpt>
      <trkpt lat="45.80969" lon="1.57074">
        <ele>376.6</ele>
        <time>2022-08-01T15:22:59Z</time>
      </trkpt>
      <trkpt lat="45.80965" lon="1.57075">
        <ele>376.8</ele>
        <time>2022-08-01T15:23:01Z</time>
      </trkpt>
      <trkpt lat="45.8096" lon="1.57076">
        <ele>377</ele>
        <time>2022-08-01T15:23:03Z</time>
      </trkpt>
      <trkpt lat="45.80955" lon="1.57078">
        <ele>377.2</ele>
        <time>2022-08-01T15:23:05Z</time>
      </trkpt>
      <trkpt lat="45.8095" lon="1.5708">
        <ele>377.4</ele>
        <time>2022-08-01T15:23:07Z</time>
      </trkpt>
      <trkpt lat="45.80945" lon="1.57082">
        <ele>377.6</ele>
        <time>2022-08-01T15:23:09Z</time>
      </trkpt>
      <trkpt lat="45.80941" lon="1.57084">
        <ele>377.8</ele>
        <time>2022-08-01T15:23:11Z</time>
      </trkpt>
      <trkpt lat="45.80936" lon="1.57088">
        <ele>378</ele>
        <time>2022-08-01T15:23:13Z</time>
      </trkpt>
      <trkpt lat="45.80931" lon="1.5709">
        <ele>378.1</ele>
        <time>2022-08-01T15:23:15Z</time>
      </trkpt>
      <trkpt lat="45.80927" lon="1.57093">
        <ele>378.3</ele>
        <time>2022-08-01T15:23:17Z</time>
      </trkpt>
      <trkpt lat="45.80922" lon="1.57096">
        <ele>378.4</ele>
        <time>2022-08-01T15:23:19Z</time>
      </trkpt>
      <trkpt lat="45.80917" lon="1.57098">
        <ele>378.6</ele>
        <time>2022-08-01T15:23:21Z</time>
      </trkpt>
      <trkpt lat="45.80913" lon="1.57101">
        <ele>378.8</ele>
        <time>2022-08-01T15:23:23Z</time>
      </trkpt>
      <trkpt lat="45.80909" lon="1.57103">
        <ele>379</ele>
        <time>2022-08-01T15:23:25Z</time>
      </trkpt>
      <trkpt lat="45.80904" lon="1.57106">
        <ele>379.1</ele>
        <time>2022-08-01T15:23:27Z</time>
      </trkpt>
      <trkpt lat="45.809" lon="1.57109">
        <ele>379.3</ele>
        <time>2022-08-01T15:23:29Z</time>
      </trkpt>
      <trkpt lat="45.80896" lon="1.57111">
        <ele>379.5</ele>
        <time>2022-08-01T15:23:31Z</time>
      </trkpt>
      <trkpt lat="45.80892" lon="1.57114">
        <ele>379.7</ele>
        <time>2022-08-01T15:23:33Z</time>
      </trkpt>
      <trkpt lat="45.80888" lon="1.57117">
        <ele>379.9</ele>
        <time>2022-08-01T15:23:35Z</time>
      </trkpt>
      <trkpt lat="45.80883" lon="1.57119">
        <ele>380.1</ele>
        <time>2022-08-01T15:23:37Z</time>
      </trkpt>
      <trkpt lat="45.80879" lon="1.57123">
        <ele>380.3</ele>
        <time>2022-08-01T15:23:39Z</time>
      </trkpt>
      <trkpt lat="45.80874" lon="1.57125">
        <ele>380.5</ele>
        <time>2022-08-01T15:23:41Z</time>
      </trkpt>
      <trkpt lat="45.8087" lon="1.57128">
        <ele>380.8</ele>
        <time>2022-08-01T15:23:43Z</time>
      </trkpt>
      <trkpt lat="45.80865" lon="1.57131">
        <ele>381</ele>
        <time>2022-08-01T15:23:45Z</time>
      </trkpt>
      <trkpt lat="45.80861" lon="1.57133">
        <ele>381.3</ele>
        <time>2022-08-01T15:23:47Z</time>
      </trkpt>
      <trkpt lat="45.80856" lon="1.57136">
        <ele>381.6</ele>
        <time>2022-08-01T15:23:49Z</time>
      </trkpt>
      <trkpt lat="45.80852" lon="1.57139">
        <ele>381.8</ele>
        <time>2022-08-01T15:23:51Z</time>
      </trkpt>
      <trkpt lat="45.80847" lon="1.57142">
        <ele>382.1</ele>
        <time>2022-08-01T15:23:53Z</time>
      </trkpt>
      <trkpt lat="45.80842" lon="1.57145">
        <ele>382.4</ele>
        <time>2022-08-01T15:23:55Z</time>
      </trkpt>
      <trkpt lat="45.80837" lon="1.57149">
        <ele>382.7</ele>
        <time>2022-08-01T15:23:57Z</time>
      </trkpt>
      <trkpt lat="45.80832" lon="1.57152">
        <ele>383</ele>
        <time>2022-08-01T15:23:59Z</time>
      </trkpt>
      <trkpt lat="45.80826" lon="1.57155">
        <ele>382.8</ele>
        <time>2022-08-01T15:24:01Z</time>
      </trkpt>
      <trkpt lat="45.8082" lon="1.57159">
        <ele>382.7</ele>
        <time>2022-08-01T15:24:03Z</time>
      </trkpt>
      <trkpt lat="45.80813" lon="1.57163">
        <ele>382.5</ele>
        <time>2022-08-01T15:24:05Z</time>
      </trkpt>
      <trkpt lat="45.80806" lon="1.57168">
        <ele>382.3</ele>
        <time>2022-08-01T15:24:07Z</time>
      </trkpt>
      <trkpt lat="45.80799" lon="1.57172">
        <ele>382.2</ele>
        <time>2022-08-01T15:24:09Z</time>
      </trkpt>
      <trkpt lat="45.80791" lon="1.57177">
        <ele>382.1</ele>
        <time>2022-08-01T15:24:11Z</time>
      </trkpt>
      <trkpt lat="45.80784" lon="1.57182">
        <ele>382</ele>
        <time>2022-08-01T15:24:13Z</time>
      </trkpt>
      <trkpt lat="45.80776" lon="1.57187">
        <ele>381.9</ele>
        <time>2022-08-01T15:24:15Z</time>
      </trkpt>
      <trkpt lat="45.80769" lon="1.57191">
        <ele>381.8</ele>
        <time>2022-08-01T15:24:17Z</time>
      </trkpt>
      <trkpt lat="45.80761" lon="1.57196">
        <ele>381.8</ele>
        <time>2022-08-01T15:24:19Z</time>
      </trkpt>
      <trkpt lat="45.80754" lon="1.57201">
        <ele>381.9</ele>
        <time>2022-08-01T15:24:21Z</time>
      </trkpt>
      <trkpt lat="45.80746" lon="1.57206">
        <ele>381.9</ele>
        <time>2022-08-01T15:24:23Z</time>
      </trkpt>
      <trkpt lat="45.80738" lon="1.57211">
        <ele>381.8</ele>
        <time>2022-08-01T15:24:25Z</time>
      </trkpt>
      <trkpt lat="45.8073" lon="1.57216">
        <ele>381.8</ele>
        <time>2022-08-01T15:24:27Z</time>
      </trkpt>
      <trkpt lat="45.80722" lon="1.57221">
        <ele>381.7</ele>
        <time>2022-08-01T15:24:29Z</time>
      </trkpt>
      <trkpt lat="45.80713" lon="1.57226">
        <ele>381.7</ele>
        <time>2022-08-01T15:24:31Z</time>
      </trkpt>
      <trkpt lat="45.80704" lon="1.57232">
        <ele>381.6</ele>
        <time>2022-08-01T15:24:33Z</time>
      </trkpt>
      <trkpt lat="45.80696" lon="1.57237">
        <ele>381.5</ele>
        <time>2022-08-01T15:24:35Z</time>
      </trkpt>
      <trkpt lat="45.80687" lon="1.57242">
        <ele>381.4</ele>
        <time>2022-08-01T15:24:37Z</time>
      </trkpt>
      <trkpt lat="45.80678" lon="1.57248">
        <ele>381.2</ele>
        <time>2022-08-01T15:24:39Z</time>
      </trkpt>
      <trkpt lat="45.8067" lon="1.57253">
        <ele>381</ele>
        <time>2022-08-01T15:24:41Z</time>
      </trkpt>
      <trkpt lat="45.80661" lon="1.57258">
        <ele>380.9</ele>
        <time>2022-08-01T15:24:43Z</time>
      </trkpt>
      <trkpt lat="45.80652" lon="1.57264">
        <ele>380.8</ele>
        <time>2022-08-01T15:24:45Z</time>
      </trkpt>
      <trkpt lat="45.80644" lon="1.57269">
        <ele>380.8</ele>
        <time>2022-08-01T15:24:47Z</time>
      </trkpt>
      <trkpt lat="45.80635" lon="1.57274">
        <ele>380.7</ele>
        <time>2022-08-01T15:24:49Z</time>
      </trkpt>
      <trkpt lat="45.80626" lon="1.5728">
        <ele>380.6</ele>
        <time>2022-08-01T15:24:51Z</time>
      </trkpt>
      <trkpt lat="45.80616" lon="1.57286">
        <ele>380.5</ele>
        <time>2022-08-01T15:24:53Z</time>
      </trkpt>
      <trkpt lat="45.80607" lon="1.57292">
        <ele>380.4</ele>
        <time>2022-08-01T15:24:55Z</time>
      </trkpt>
      <trkpt lat="45.80598" lon="1.57297">
        <ele>380.2</ele>
        <time>2022-08-01T15:24:57Z</time>
      </trkpt>
      <trkpt lat="45.8059" lon="1.57304">
        <ele>380</ele>
        <time>2022-08-01T15:24:59Z</time>
      </trkpt>
      <trkpt lat="45.80581" lon="1.57312">
        <ele>379.7</ele>
        <time>2022-08-01T15:25:01Z</time>
      </trkpt>
      <trkpt lat="45.80572" lon="1.57321">
        <ele>379.3</ele>
        <time>2022-08-01T15:25:03Z</time>
      </trkpt>
      <trkpt lat="45.80564" lon="1.57332">
        <ele>378.8</ele>
        <time>2022-08-01T15:25:05Z</time>
      </trkpt>
      <trkpt lat="45.80555" lon="1.57345">
        <ele>378.4</ele>
        <time>2022-08-01T15:25:07Z</time>
      </trkpt>
      <trkpt lat="45.80548" lon="1.57359">
        <ele>378.1</ele>
        <time>2022-08-01T15:25:09Z</time>
      </trkpt>
      <trkpt lat="45.8054" lon="1.57376">
        <ele>377.7</ele>
        <time>2022-08-01T15:25:11Z</time>
      </trkpt>
      <trkpt lat="45.80532" lon="1.57394">
        <ele>377.4</ele>
        <time>2022-08-01T15:25:13Z</time>
      </trkpt>
      <trkpt lat="45.80525" lon="1.57413">
        <ele>377.1</ele>
        <time>2022-08-01T15:25:15Z</time>
      </trkpt>
      <trkpt lat="45.80518" lon="1.57433">
        <ele>376.6</ele>
        <time>2022-08-01T15:25:17Z</time>
      </trkpt>
      <trkpt lat="45.8051" lon="1.57453">
        <ele>376.1</ele>
        <time>2022-08-01T15:25:19Z</time>
      </trkpt>
      <trkpt lat="45.80503" lon="1.57474">
        <ele>375.6</ele>
        <time>2022-08-01T15:25:21Z</time>
      </trkpt>
      <trkpt lat="45.80495" lon="1.57493">
        <ele>375</ele>
        <time>2022-08-01T15:25:23Z</time>
      </trkpt>
      <trkpt lat="45.80487" lon="1.57513">
        <ele>374.2</ele>
        <time>2022-08-01T15:25:25Z</time>
      </trkpt>
      <trkpt lat="45.8048" lon="1.57531">
        <ele>373.6</ele>
        <time>2022-08-01T15:25:27Z</time>
      </trkpt>
      <trkpt lat="45.80472" lon="1.57549">
        <ele>373.2</ele>
        <time>2022-08-01T15:25:29Z</time>
      </trkpt>
      <trkpt lat="45.80464" lon="1.57565">
        <ele>373.1</ele>
        <time>2022-08-01T15:25:31Z</time>
      </trkpt>
      <trkpt lat="45.80453" lon="1.57579">
        <ele>373.3</ele>
        <time>2022-08-01T15:25:33Z</time>
      </trkpt>
      <trkpt lat="45.80442" lon="1.57591">
        <ele>373.6</ele>
        <time>2022-08-01T15:25:35Z</time>
      </trkpt>
      <trkpt lat="45.80431" lon="1.57602">
        <ele>373.8</ele>
        <time>2022-08-01T15:25:37Z</time>
      </trkpt>
      <trkpt lat="45.80421" lon="1.57613">
        <ele>373.8</ele>
        <time>2022-08-01T15:25:39Z</time>
      </trkpt>
      <trkpt lat="45.8041" lon="1.57623">
        <ele>373.6</ele>
        <time>2022-08-01T15:25:41Z</time>
      </trkpt>
      <trkpt lat="45.804" lon="1.57634">
        <ele>373.4</ele>
        <time>2022-08-01T15:25:43Z</time>
      </trkpt>
      <trkpt lat="45.8039" lon="1.57644">
        <ele>373.2</ele>
        <time>2022-08-01T15:25:45Z</time>
      </trkpt>
      <trkpt lat="45.80379" lon="1.57654">
        <ele>373.1</ele>
        <time>2022-08-01T15:25:47Z</time>
      </trkpt>
      <trkpt lat="45.80369" lon="1.57664">
        <ele>373.2</ele>
        <time>2022-08-01T15:25:49Z</time>
      </trkpt>
      <trkpt lat="45.80359" lon="1.57674">
        <ele>373</ele>
        <time>2022-08-01T15:25:51Z</time>
      </trkpt>
      <trkpt lat="45.80348" lon="1.57685">
        <ele>372.6</ele>
        <time>2022-08-01T15:25:53Z</time>
      </trkpt>
      <trkpt lat="45.80336" lon="1.57697">
        <ele>372.2</ele>
        <time>2022-08-01T15:25:55Z</time>
      </trkpt>
      <trkpt lat="45.80324" lon="1.57709">
        <ele>371.4</ele>
        <time>2022-08-01T15:25:57Z</time>
      </trkpt>
      <trkpt lat="45.80311" lon="1.57722">
        <ele>370.9</ele>
        <time>2022-08-01T15:25:59Z</time>
      </trkpt>
      <trkpt lat="45.80298" lon="1.57734">
        <ele>370.7</ele>
        <time>2022-08-01T15:26:01Z</time>
      </trkpt>
      <trkpt lat="45.80285" lon="1.57747">
        <ele>370.8</ele>
        <time>2022-08-01T15:26:03Z</time>
      </trkpt>
      <trkpt lat="45.80271" lon="1.5776">
        <ele>370.5</ele>
        <time>2022-08-01T15:26:05Z</time>
      </trkpt>
      <trkpt lat="45.80257" lon="1.57774">
        <ele>369.8</ele>
        <time>2022-08-01T15:26:07Z</time>
      </trkpt>
      <trkpt lat="45.80242" lon="1.5779">
        <ele>368.4</ele>
        <time>2022-08-01T15:26:09Z</time>
      </trkpt>
      <trkpt lat="45.80228" lon="1.57804">
        <ele>367.1</ele>
        <time>2022-08-01T15:26:11Z</time>
      </trkpt>
      <trkpt lat="45.80213" lon="1.57818">
        <ele>366.2</ele>
        <time>2022-08-01T15:26:13Z</time>
      </trkpt>
      <trkpt lat="45.80198" lon="1.57833">
        <ele>365.6</ele>
        <time>2022-08-01T15:26:15Z</time>
      </trkpt>
      <trkpt lat="45.80182" lon="1.57849">
        <ele>365.1</ele>
        <time>2022-08-01T15:26:17Z</time>
      </trkpt>
      <trkpt lat="45.80167" lon="1.57865">
        <ele>364.5</ele>
        <time>2022-08-01T15:26:19Z</time>
      </trkpt>
      <trkpt lat="45.80151" lon="1.57879">
        <ele>364</ele>
        <time>2022-08-01T15:26:21Z</time>
      </trkpt>
      <trkpt lat="45.80137" lon="1.57894">
        <ele>363.8</ele>
        <time>2022-08-01T15:26:23Z</time>
      </trkpt>
      <trkpt lat="45.80123" lon="1.57908">
        <ele>363.8</ele>
        <time>2022-08-01T15:26:25Z</time>
      </trkpt>
      <trkpt lat="45.80108" lon="1.57922">
        <ele>364</ele>
        <time>2022-08-01T15:26:27Z</time>
      </trkpt>
      <trkpt lat="45.80094" lon="1.57935">
        <ele>364</ele>
        <time>2022-08-01T15:26:29Z</time>
      </trkpt>
      <trkpt lat="45.80081" lon="1.5795">
        <ele>363.4</ele>
        <time>2022-08-01T15:26:31Z</time>
      </trkpt>
      <trkpt lat="45.80067" lon="1.57967">
        <ele>362.3</ele>
        <time>2022-08-01T15:26:33Z</time>
      </trkpt>
      <trkpt lat="45.80054" lon="1.57985">
        <ele>361.5</ele>
        <time>2022-08-01T15:26:35Z</time>
      </trkpt>
      <trkpt lat="45.80042" lon="1.58005">
        <ele>360.9</ele>
        <time>2022-08-01T15:26:37Z</time>
      </trkpt>
      <trkpt lat="45.80031" lon="1.58028">
        <ele>360.4</ele>
        <time>2022-08-01T15:26:39Z</time>
      </trkpt>
      <trkpt lat="45.80021" lon="1.58051">
        <ele>359.5</ele>
        <time>2022-08-01T15:26:41Z</time>
      </trkpt>
      <trkpt lat="45.80012" lon="1.58075">
        <ele>358.2</ele>
        <time>2022-08-01T15:26:43Z</time>
      </trkpt>
      <trkpt lat="45.80002" lon="1.58099">
        <ele>356.4</ele>
        <time>2022-08-01T15:26:45Z</time>
      </trkpt>
      <trkpt lat="45.79994" lon="1.5812">
        <ele>355.3</ele>
        <time>2022-08-01T15:26:47Z</time>
      </trkpt>
      <trkpt lat="45.79985" lon="1.58143">
        <ele>354.4</ele>
        <time>2022-08-01T15:26:49Z</time>
      </trkpt>
      <trkpt lat="45.79974" lon="1.58164">
        <ele>353.7</ele>
        <time>2022-08-01T15:26:51Z</time>
      </trkpt>
      <trkpt lat="45.79965" lon="1.58188">
        <ele>352.4</ele>
        <time>2022-08-01T15:26:53Z</time>
      </trkpt>
      <trkpt lat="45.79955" lon="1.58209">
        <ele>351</ele>
        <time>2022-08-01T15:26:55Z</time>
      </trkpt>
      <trkpt lat="45.79945" lon="1.58228">
        <ele>349.7</ele>
        <time>2022-08-01T15:26:57Z</time>
      </trkpt>
      <trkpt lat="45.79932" lon="1.58246">
        <ele>348.4</ele>
        <time>2022-08-01T15:26:59Z</time>
      </trkpt>
      <trkpt lat="45.79919" lon="1.5826">
        <ele>347.4</ele>
        <time>2022-08-01T15:27:01Z</time>
      </trkpt>
      <trkpt lat="45.79905" lon="1.58273">
        <ele>346.4</ele>
        <time>2022-08-01T15:27:03Z</time>
      </trkpt>
      <trkpt lat="45.79887" lon="1.58285">
        <ele>345.2</ele>
        <time>2022-08-01T15:27:05Z</time>
      </trkpt>
      <trkpt lat="45.79869" lon="1.58295">
        <ele>344.1</ele>
        <time>2022-08-01T15:27:07Z</time>
      </trkpt>
      <trkpt lat="45.79851" lon="1.58304">
        <ele>343</ele>
        <time>2022-08-01T15:27:09Z</time>
      </trkpt>
      <trkpt lat="45.79832" lon="1.5831">
        <ele>341.9</ele>
        <time>2022-08-01T15:27:11Z</time>
      </trkpt>
      <trkpt lat="45.79812" lon="1.58316">
        <ele>340.9</ele>
        <time>2022-08-01T15:27:13Z</time>
      </trkpt>
      <trkpt lat="45.79791" lon="1.58321">
        <ele>340</ele>
        <time>2022-08-01T15:27:15Z</time>
      </trkpt>
      <trkpt lat="45.7977" lon="1.58326">
        <ele>339</ele>
        <time>2022-08-01T15:27:17Z</time>
      </trkpt>
      <trkpt lat="45.79749" lon="1.58332">
        <ele>338.1</ele>
        <time>2022-08-01T15:27:19Z</time>
      </trkpt>
      <trkpt lat="45.79729" lon="1.58337">
        <ele>338.1</ele>
        <time>2022-08-01T15:27:21Z</time>
      </trkpt>
      <trkpt lat="45.7971" lon="1.58343">
        <ele>338.2</ele>
        <time>2022-08-01T15:27:23Z</time>
      </trkpt>
      <trkpt lat="45.7969" lon="1.58349">
        <ele>338.4</ele>
        <time>2022-08-01T15:27:25Z</time>
      </trkpt>
      <trkpt lat="45.79671" lon="1.58354">
        <ele>338.5</ele>
        <time>2022-08-01T15:27:27Z</time>
      </trkpt>
      <trkpt lat="45.79653" lon="1.58359">
        <ele>338.9</ele>
        <time>2022-08-01T15:27:29Z</time>
      </trkpt>
      <trkpt lat="45.79634" lon="1.58363">
        <ele>339.4</ele>
        <time>2022-08-01T15:27:31Z</time>
      </trkpt>
      <trkpt lat="45.79618" lon="1.58365">
        <ele>339.8</ele>
        <time>2022-08-01T15:27:33Z</time>
      </trkpt>
      <trkpt lat="45.79604" lon="1.58367">
        <ele>340.2</ele>
        <time>2022-08-01T15:27:35Z</time>
      </trkpt>
      <trkpt lat="45.7959" lon="1.58368">
        <ele>340.5</ele>
        <time>2022-08-01T15:27:37Z</time>
      </trkpt>
      <trkpt lat="45.79576" lon="1.5837">
        <ele>340.4</ele>
        <time>2022-08-01T15:27:39Z</time>
      </trkpt>
      <trkpt lat="45.79564" lon="1.58373">
        <ele>340.2</ele>
        <time>2022-08-01T15:27:41Z</time>
      </trkpt>
      <trkpt lat="45.7955" lon="1.58375">
        <ele>339.8</ele>
        <time>2022-08-01T15:27:43Z</time>
      </trkpt>
      <trkpt lat="45.79537" lon="1.58378">
        <ele>339.6</ele>
        <time>2022-08-01T15:27:45Z</time>
      </trkpt>
      <trkpt lat="45.79523" lon="1.5838">
        <ele>339.3</ele>
        <time>2022-08-01T15:27:47Z</time>
      </trkpt>
      <trkpt lat="45.7951" lon="1.58381">
        <ele>339</ele>
        <time>2022-08-01T15:27:49Z</time>
      </trkpt>
      <trkpt lat="45.79497" lon="1.58384">
        <ele>338.9</ele>
        <time>2022-08-01T15:27:51Z</time>
      </trkpt>
      <trkpt lat="45.79484" lon="1.58387">
        <ele>338.6</ele>
        <time>2022-08-01T15:27:53Z</time>
      </trkpt>
      <trkpt lat="45.79469" lon="1.58388">
        <ele>338</ele>
        <time>2022-08-01T15:27:55Z</time>
      </trkpt>
      <trkpt lat="45.79455" lon="1.58389">
        <ele>337.4</ele>
        <time>2022-08-01T15:27:57Z</time>
      </trkpt>
      <trkpt lat="45.79441" lon="1.58391">
        <ele>336.8</ele>
        <time>2022-08-01T15:27:59Z</time>
      </trkpt>
      <trkpt lat="45.79427" lon="1.58393">
        <ele>336.2</ele>
        <time>2022-08-01T15:28:01Z</time>
      </trkpt>
      <trkpt lat="45.79415" lon="1.58392">
        <ele>335.4</ele>
        <time>2022-08-01T15:28:03Z</time>
      </trkpt>
      <trkpt lat="45.79401" lon="1.58392">
        <ele>334.1</ele>
        <time>2022-08-01T15:28:05Z</time>
      </trkpt>
      <trkpt lat="45.79388" lon="1.58394">
        <ele>332.9</ele>
        <time>2022-08-01T15:28:07Z</time>
      </trkpt>
      <trkpt lat="45.79376" lon="1.58394">
        <ele>331.7</ele>
        <time>2022-08-01T15:28:09Z</time>
      </trkpt>
      <trkpt lat="45.79363" lon="1.58397">
        <ele>330.6</ele>
        <time>2022-08-01T15:28:11Z</time>
      </trkpt>
      <trkpt lat="45.79349" lon="1.584">
        <ele>329.4</ele>
        <time>2022-08-01T15:28:13Z</time>
      </trkpt>
      <trkpt lat="45.79335" lon="1.58404">
        <ele>328.3</ele>
        <time>2022-08-01T15:28:15Z</time>
      </trkpt>
      <trkpt lat="45.79321" lon="1.58408">
        <ele>327.7</ele>
        <time>2022-08-01T15:28:17Z</time>
      </trkpt>
      <trkpt lat="45.79307" lon="1.58415">
        <ele>327.4</ele>
        <time>2022-08-01T15:28:19Z</time>
      </trkpt>
      <trkpt lat="45.79295" lon="1.58422">
        <ele>327.2</ele>
        <time>2022-08-01T15:28:21Z</time>
      </trkpt>
      <trkpt lat="45.79281" lon="1.58433">
        <ele>327.2</ele>
        <time>2022-08-01T15:28:23Z</time>
      </trkpt>
      <trkpt lat="45.79269" lon="1.58442">
        <ele>327.1</ele>
        <time>2022-08-01T15:28:25Z</time>
      </trkpt>
      <trkpt lat="45.79257" lon="1.58453">
        <ele>327.1</ele>
        <time>2022-08-01T15:28:27Z</time>
      </trkpt>
      <trkpt lat="45.79244" lon="1.58464">
        <ele>327</ele>
        <time>2022-08-01T15:28:29Z</time>
      </trkpt>
      <trkpt lat="45.79232" lon="1.58474">
        <ele>326.9</ele>
        <time>2022-08-01T15:28:31Z</time>
      </trkpt>
      <trkpt lat="45.7922" lon="1.58486">
        <ele>326.9</ele>
        <time>2022-08-01T15:28:33Z</time>
      </trkpt>
      <trkpt lat="45.79208" lon="1.58496">
        <ele>326.7</ele>
        <time>2022-08-01T15:28:35Z</time>
      </trkpt>
      <trkpt lat="45.79196" lon="1.58507">
        <ele>326.5</ele>
        <time>2022-08-01T15:28:37Z</time>
      </trkpt>
      <trkpt lat="45.79184" lon="1.58518">
        <ele>326.3</ele>
        <time>2022-08-01T15:28:39Z</time>
      </trkpt>
      <trkpt lat="45.79172" lon="1.58531">
        <ele>326.2</ele>
        <time>2022-08-01T15:28:41Z</time>
      </trkpt>
      <trkpt lat="45.7916" lon="1.58542">
        <ele>326.1</ele>
        <time>2022-08-01T15:28:43Z</time>
      </trkpt>
      <trkpt lat="45.79148" lon="1.58554">
        <ele>325.9</ele>
        <time>2022-08-01T15:28:45Z</time>
      </trkpt>
      <trkpt lat="45.79137" lon="1.58564">
        <ele>325.9</ele>
        <time>2022-08-01T15:28:47Z</time>
      </trkpt>
      <trkpt lat="45.79125" lon="1.58574">
        <ele>325.9</ele>
        <time>2022-08-01T15:28:49Z</time>
      </trkpt>
      <trkpt lat="45.79115" lon="1.58591">
        <ele>325.7</ele>
        <time>2022-08-01T15:28:51Z</time>
      </trkpt>
      <trkpt lat="45.79105" lon="1.58607">
        <ele>324.6</ele>
        <time>2022-08-01T15:28:53Z</time>
      </trkpt>
      <trkpt lat="45.79097" lon="1.58623">
        <ele>323.6</ele>
        <time>2022-08-01T15:28:55Z</time>
      </trkpt>
      <trkpt lat="45.79091" lon="1.5864">
        <ele>322.6</ele>
        <time>2022-08-01T15:28:57Z</time>
      </trkpt>
      <trkpt lat="45.79087" lon="1.58658">
        <ele>321.6</ele>
        <time>2022-08-01T15:28:59Z</time>
      </trkpt>
      <trkpt lat="45.79085" lon="1.58679">
        <ele>320.5</ele>
        <time>2022-08-01T15:29:01Z</time>
      </trkpt>
      <trkpt lat="45.79085" lon="1.58702">
        <ele>319.5</ele>
        <time>2022-08-01T15:29:03Z</time>
      </trkpt>
      <trkpt lat="45.79087" lon="1.58725">
        <ele>318.6</ele>
        <time>2022-08-01T15:29:05Z</time>
      </trkpt>
      <trkpt lat="45.79092" lon="1.58746">
        <ele>318</ele>
        <time>2022-08-01T15:29:07Z</time>
      </trkpt>
      <trkpt lat="45.79098" lon="1.58768">
        <ele>317</ele>
        <time>2022-08-01T15:29:09Z</time>
      </trkpt>
      <trkpt lat="45.79105" lon="1.5879">
        <ele>316.1</ele>
        <time>2022-08-01T15:29:11Z</time>
      </trkpt>
      <trkpt lat="45.79112" lon="1.58811">
        <ele>315.3</ele>
        <time>2022-08-01T15:29:13Z</time>
      </trkpt>
      <trkpt lat="45.79119" lon="1.58833">
        <ele>314.7</ele>
        <time>2022-08-01T15:29:15Z</time>
      </trkpt>
      <trkpt lat="45.79127" lon="1.58855">
        <ele>313.9</ele>
        <time>2022-08-01T15:29:17Z</time>
      </trkpt>
      <trkpt lat="45.79135" lon="1.58878">
        <ele>313.3</ele>
        <time>2022-08-01T15:29:19Z</time>
      </trkpt>
      <trkpt lat="45.79143" lon="1.589">
        <ele>312.6</ele>
        <time>2022-08-01T15:29:21Z</time>
      </trkpt>
      <trkpt lat="45.79149" lon="1.58922">
        <ele>312.1</ele>
        <time>2022-08-01T15:29:23Z</time>
      </trkpt>
      <trkpt lat="45.79157" lon="1.58942">
        <ele>312.7</ele>
        <time>2022-08-01T15:29:25Z</time>
      </trkpt>
      <trkpt lat="45.79165" lon="1.58964">
        <ele>313</ele>
        <time>2022-08-01T15:29:27Z</time>
      </trkpt>
      <trkpt lat="45.79172" lon="1.58984">
        <ele>313.4</ele>
        <time>2022-08-01T15:29:29Z</time>
      </trkpt>
      <trkpt lat="45.79181" lon="1.59002">
        <ele>313.8</ele>
        <time>2022-08-01T15:29:31Z</time>
      </trkpt>
      <trkpt lat="45.79192" lon="1.59021">
        <ele>313.5</ele>
        <time>2022-08-01T15:29:33Z</time>
      </trkpt>
      <trkpt lat="45.79203" lon="1.59039">
        <ele>313</ele>
        <time>2022-08-01T15:29:35Z</time>
      </trkpt>
      <trkpt lat="45.79215" lon="1.59054">
        <ele>312.6</ele>
        <time>2022-08-01T15:29:37Z</time>
      </trkpt>
      <trkpt lat="45.79227" lon="1.59069">
        <ele>312.1</ele>
        <time>2022-08-01T15:29:39Z</time>
      </trkpt>
      <trkpt lat="45.79239" lon="1.59083">
        <ele>311.2</ele>
        <time>2022-08-01T15:29:41Z</time>
      </trkpt>
      <trkpt lat="45.79252" lon="1.59098">
        <ele>311.2</ele>
        <time>2022-08-01T15:29:43Z</time>
      </trkpt>
      <trkpt lat="45.79266" lon="1.59114">
        <ele>311</ele>
        <time>2022-08-01T15:29:45Z</time>
      </trkpt>
      <trkpt lat="45.79279" lon="1.59127">
        <ele>310.7</ele>
        <time>2022-08-01T15:29:47Z</time>
      </trkpt>
      <trkpt lat="45.79292" lon="1.59134">
        <ele>310.8</ele>
        <time>2022-08-01T15:29:49Z</time>
      </trkpt>
      <trkpt lat="45.79306" lon="1.59137">
        <ele>311.3</ele>
        <time>2022-08-01T15:29:51Z</time>
      </trkpt>
      <trkpt lat="45.79317" lon="1.5914">
        <ele>311.6</ele>
        <time>2022-08-01T15:29:53Z</time>
      </trkpt>
      <trkpt lat="45.79326" lon="1.59142">
        <ele>311.9</ele>
        <time>2022-08-01T15:29:55Z</time>
      </trkpt>
      <trkpt lat="45.79333" lon="1.59145">
        <ele>311.8</ele>
        <time>2022-08-01T15:29:57Z</time>
      </trkpt>
      <trkpt lat="45.79339" lon="1.5915">
        <ele>311.8</ele>
        <time>2022-08-01T15:29:59Z</time>
      </trkpt>
      <trkpt lat="45.7934" lon="1.59151">
        <ele>311.9</ele>
        <time>2022-08-01T15:30:01Z</time>
      </trkpt>
      <trkpt lat="45.79341" lon="1.5915">
        <ele>311.9</ele>
        <time>2022-08-01T15:30:03Z</time>
      </trkpt>
      <trkpt lat="45.7934" lon="1.59151">
        <ele>311.8</ele>
        <time>2022-08-01T15:30:05Z</time>
      </trkpt>
      <trkpt lat="45.7934" lon="1.59151">
        <ele>311.8</ele>
        <time>2022-08-01T15:30:07Z</time>
      </trkpt>
      <trkpt lat="45.79339" lon="1.59151">
        <ele>311.8</ele>
        <time>2022-08-01T15:30:09Z</time>
      </trkpt>
      <trkpt lat="45.79354" lon="1.59176">
        <ele>311</ele>
        <time>2022-08-01T15:32:25Z</time>
      </trkpt>
      <trkpt lat="45.79356" lon="1.59183">
        <ele>310.8</ele>
        <time>2022-08-01T15:32:27Z</time>
      </trkpt>
      <trkpt lat="45.79359" lon="1.5919">
        <ele>310.7</ele>
        <time>2022-08-01T15:32:29Z</time>
      </trkpt>
      <trkpt lat="45.79362" lon="1.59197">
        <ele>310.6</ele>
        <time>2022-08-01T15:32:31Z</time>
      </trkpt>
      <trkpt lat="45.79365" lon="1.59205">
        <ele>310.3</ele>
        <time>2022-08-01T15:32:33Z</time>
      </trkpt>
      <trkpt lat="45.79368" lon="1.59212">
        <ele>310</ele>
        <time>2022-08-01T15:32:35Z</time>
      </trkpt>
      <trkpt lat="45.79371" lon="1.59219">
        <ele>309.7</ele>
        <time>2022-08-01T15:32:37Z</time>
      </trkpt>
      <trkpt lat="45.79374" lon="1.59226">
        <ele>309.3</ele>
        <time>2022-08-01T15:32:39Z</time>
      </trkpt>
      <trkpt lat="45.79376" lon="1.59232">
        <ele>308.9</ele>
        <time>2022-08-01T15:32:41Z</time>
      </trkpt>
      <trkpt lat="45.79378" lon="1.59239">
        <ele>308.5</ele>
        <time>2022-08-01T15:32:43Z</time>
      </trkpt>
      <trkpt lat="45.79381" lon="1.59245">
        <ele>308</ele>
        <time>2022-08-01T15:32:45Z</time>
      </trkpt>
      <trkpt lat="45.79383" lon="1.5925">
        <ele>307.7</ele>
        <time>2022-08-01T15:32:47Z</time>
      </trkpt>
      <trkpt lat="45.79385" lon="1.59256">
        <ele>308.7</ele>
        <time>2022-08-01T15:32:49Z</time>
      </trkpt>
      <trkpt lat="45.79387" lon="1.59261">
        <ele>309.6</ele>
        <time>2022-08-01T15:32:51Z</time>
      </trkpt>
      <trkpt lat="45.79389" lon="1.59266">
        <ele>310.5</ele>
        <time>2022-08-01T15:32:53Z</time>
      </trkpt>
      <trkpt lat="45.79389" lon="1.5927">
        <ele>311.3</ele>
        <time>2022-08-01T15:32:55Z</time>
      </trkpt>
      <trkpt lat="45.7939" lon="1.59271">
        <ele>311.5</ele>
        <time>2022-08-01T15:32:57Z</time>
      </trkpt>
      <trkpt lat="45.7939" lon="1.59272">
        <ele>311.6</ele>
        <time>2022-08-01T15:32:59Z</time>
      </trkpt>
      <trkpt lat="45.7939" lon="1.59272">
        <ele>311.6</ele>
        <time>2022-08-01T15:33:01Z</time>
      </trkpt>
      <trkpt lat="45.7939" lon="1.59272">
        <ele>311.6</ele>
        <time>2022-08-01T15:33:03Z</time>
      </trkpt>
      <trkpt lat="45.79422" lon="1.59276">
        <ele>312.7</ele>
        <time>2022-08-01T15:35:53Z</time>
      </trkpt>
      <trkpt lat="45.79426" lon="1.59277">
        <ele>312.9</ele>
        <time>2022-08-01T15:35:55Z</time>
      </trkpt>
      <trkpt lat="45.7943" lon="1.59278">
        <ele>312.9</ele>
        <time>2022-08-01T15:35:57Z</time>
      </trkpt>
      <trkpt lat="45.79434" lon="1.59277">
        <ele>312.8</ele>
        <time>2022-08-01T15:35:59Z</time>
      </trkpt>
      <trkpt lat="45.79438" lon="1.59276">
        <ele>312.7</ele>
        <time>2022-08-01T15:36:01Z</time>
      </trkpt>
      <trkpt lat="45.79442" lon="1.59275">
        <ele>312.3</ele>
        <time>2022-08-01T15:36:03Z</time>
      </trkpt>
      <trkpt lat="45.79447" lon="1.59274">
        <ele>312.2</ele>
        <time>2022-08-01T15:36:05Z</time>
      </trkpt>
      <trkpt lat="45.79452" lon="1.59273">
        <ele>312</ele>
        <time>2022-08-01T15:36:07Z</time>
      </trkpt>
      <trkpt lat="45.79456" lon="1.59272">
        <ele>311.8</ele>
        <time>2022-08-01T15:36:09Z</time>
      </trkpt>
      <trkpt lat="45.79459" lon="1.59271">
        <ele>311.7</ele>
        <time>2022-08-01T15:36:11Z</time>
      </trkpt>
      <trkpt lat="45.79462" lon="1.59271">
        <ele>311.7</ele>
        <time>2022-08-01T15:36:13Z</time>
      </trkpt>
      <trkpt lat="45.79466" lon="1.59271">
        <ele>311.7</ele>
        <time>2022-08-01T15:36:15Z</time>
      </trkpt>
      <trkpt lat="45.79469" lon="1.59275">
        <ele>312.3</ele>
        <time>2022-08-01T15:36:17Z</time>
      </trkpt>
      <trkpt lat="45.79473" lon="1.59276">
        <ele>312.4</ele>
        <time>2022-08-01T15:36:19Z</time>
      </trkpt>
      <trkpt lat="45.79477" lon="1.59277">
        <ele>312.6</ele>
        <time>2022-08-01T15:36:21Z</time>
      </trkpt>
      <trkpt lat="45.79481" lon="1.59278">
        <ele>312.9</ele>
        <time>2022-08-01T15:36:23Z</time>
      </trkpt>
      <trkpt lat="45.79485" lon="1.59279">
        <ele>313</ele>
        <time>2022-08-01T15:36:25Z</time>
      </trkpt>
      <trkpt lat="45.79489" lon="1.59281">
        <ele>313.2</ele>
        <time>2022-08-01T15:36:27Z</time>
      </trkpt>
      <trkpt lat="45.79492" lon="1.59282">
        <ele>313.5</ele>
        <time>2022-08-01T15:36:29Z</time>
      </trkpt>
      <trkpt lat="45.79496" lon="1.59284">
        <ele>313.7</ele>
        <time>2022-08-01T15:36:31Z</time>
      </trkpt>
      <trkpt lat="45.795" lon="1.59285">
        <ele>313.9</ele>
        <time>2022-08-01T15:36:33Z</time>
      </trkpt>
      <trkpt lat="45.79504" lon="1.59286">
        <ele>314.1</ele>
        <time>2022-08-01T15:36:35Z</time>
      </trkpt>
      <trkpt lat="45.79508" lon="1.59289">
        <ele>314.5</ele>
        <time>2022-08-01T15:36:37Z</time>
      </trkpt>
      <trkpt lat="45.79512" lon="1.59291">
        <ele>314.8</ele>
        <time>2022-08-01T15:36:39Z</time>
      </trkpt>
      <trkpt lat="45.79516" lon="1.59292">
        <ele>315</ele>
        <time>2022-08-01T15:36:41Z</time>
      </trkpt>
      <trkpt lat="45.79519" lon="1.59295">
        <ele>315.4</ele>
        <time>2022-08-01T15:36:43Z</time>
      </trkpt>
      <trkpt lat="45.79523" lon="1.59297">
        <ele>315.6</ele>
        <time>2022-08-01T15:36:45Z</time>
      </trkpt>
      <trkpt lat="45.79526" lon="1.593">
        <ele>315.9</ele>
        <time>2022-08-01T15:36:47Z</time>
      </trkpt>
      <trkpt lat="45.7953" lon="1.59302">
        <ele>316.1</ele>
        <time>2022-08-01T15:36:49Z</time>
      </trkpt>
      <trkpt lat="45.79534" lon="1.59304">
        <ele>316.2</ele>
        <time>2022-08-01T15:36:51Z</time>
      </trkpt>
      <trkpt lat="45.79538" lon="1.59305">
        <ele>316.3</ele>
        <time>2022-08-01T15:36:53Z</time>
      </trkpt>
      <trkpt lat="45.79541" lon="1.59307">
        <ele>316.4</ele>
        <time>2022-08-01T15:36:55Z</time>
      </trkpt>
      <trkpt lat="45.79545" lon="1.5931">
        <ele>316.5</ele>
        <time>2022-08-01T15:36:57Z</time>
      </trkpt>
      <trkpt lat="45.79549" lon="1.59313">
        <ele>316.6</ele>
        <time>2022-08-01T15:36:59Z</time>
      </trkpt>
      <trkpt lat="45.79552" lon="1.59316">
        <ele>316.7</ele>
        <time>2022-08-01T15:37:01Z</time>
      </trkpt>
      <trkpt lat="45.79556" lon="1.59318">
        <ele>316.8</ele>
        <time>2022-08-01T15:37:03Z</time>
      </trkpt>
      <trkpt lat="45.79559" lon="1.59321">
        <ele>316.9</ele>
        <time>2022-08-01T15:37:05Z</time>
      </trkpt>
      <trkpt lat="45.79561" lon="1.59324">
        <ele>316.9</ele>
        <time>2022-08-01T15:37:07Z</time>
      </trkpt>
      <trkpt lat="45.79565" lon="1.59327">
        <ele>316.9</ele>
        <time>2022-08-01T15:37:09Z</time>
      </trkpt>
      <trkpt lat="45.79568" lon="1.5933">
        <ele>316.9</ele>
        <time>2022-08-01T15:37:11Z</time>
      </trkpt>
      <trkpt lat="45.79571" lon="1.59334">
        <ele>317</ele>
        <time>2022-08-01T15:37:13Z</time>
      </trkpt>
      <trkpt lat="45.79575" lon="1.59338">
        <ele>317.6</ele>
        <time>2022-08-01T15:37:15Z</time>
      </trkpt>
      <trkpt lat="45.79578" lon="1.59341">
        <ele>318.2</ele>
        <time>2022-08-01T15:37:17Z</time>
      </trkpt>
      <trkpt lat="45.79581" lon="1.59345">
        <ele>318.8</ele>
        <time>2022-08-01T15:37:19Z</time>
      </trkpt>
      <trkpt lat="45.79584" lon="1.59349">
        <ele>319.6</ele>
        <time>2022-08-01T15:37:21Z</time>
      </trkpt>
      <trkpt lat="45.79587" lon="1.59354">
        <ele>320.5</ele>
        <time>2022-08-01T15:37:23Z</time>
      </trkpt>
      <trkpt lat="45.79589" lon="1.5936">
        <ele>321.5</ele>
        <time>2022-08-01T15:37:25Z</time>
      </trkpt>
      <trkpt lat="45.79592" lon="1.59364">
        <ele>322.1</ele>
        <time>2022-08-01T15:37:27Z</time>
      </trkpt>
      <trkpt lat="45.79594" lon="1.59369">
        <ele>322.8</ele>
        <time>2022-08-01T15:37:29Z</time>
      </trkpt>
      <trkpt lat="45.79597" lon="1.59373">
        <ele>323.5</ele>
        <time>2022-08-01T15:37:31Z</time>
      </trkpt>
      <trkpt lat="45.796" lon="1.59377">
        <ele>323.9</ele>
        <time>2022-08-01T15:37:33Z</time>
      </trkpt>
      <trkpt lat="45.79603" lon="1.59382">
        <ele>324.3</ele>
        <time>2022-08-01T15:37:35Z</time>
      </trkpt>
      <trkpt lat="45.79605" lon="1.59386">
        <ele>324.8</ele>
        <time>2022-08-01T15:37:37Z</time>
      </trkpt>
      <trkpt lat="45.79608" lon="1.5939">
        <ele>325.1</ele>
        <time>2022-08-01T15:37:39Z</time>
      </trkpt>
      <trkpt lat="45.7961" lon="1.59394">
        <ele>325.4</ele>
        <time>2022-08-01T15:37:41Z</time>
      </trkpt>
      <trkpt lat="45.79614" lon="1.59399">
        <ele>325.5</ele>
        <time>2022-08-01T15:37:43Z</time>
      </trkpt>
      <trkpt lat="45.79616" lon="1.59403">
        <ele>325.8</ele>
        <time>2022-08-01T15:37:45Z</time>
      </trkpt>
      <trkpt lat="45.79619" lon="1.59407">
        <ele>325.8</ele>
        <time>2022-08-01T15:37:47Z</time>
      </trkpt>
      <trkpt lat="45.79621" lon="1.59411">
        <ele>325.9</ele>
        <time>2022-08-01T15:37:49Z</time>
      </trkpt>
      <trkpt lat="45.79623" lon="1.59414">
        <ele>326</ele>
        <time>2022-08-01T15:37:51Z</time>
      </trkpt>
      <trkpt lat="45.79625" lon="1.59418">
        <ele>326.1</ele>
        <time>2022-08-01T15:37:53Z</time>
      </trkpt>
      <trkpt lat="45.79627" lon="1.59423">
        <ele>326.3</ele>
        <time>2022-08-01T15:37:55Z</time>
      </trkpt>
      <trkpt lat="45.7963" lon="1.59427">
        <ele>326.4</ele>
        <time>2022-08-01T15:37:57Z</time>
      </trkpt>
      <trkpt lat="45.79633" lon="1.59431">
        <ele>326.3</ele>
        <time>2022-08-01T15:37:59Z</time>
      </trkpt>
      <trkpt lat="45.79636" lon="1.59435">
        <ele>326.3</ele>
        <time>2022-08-01T15:38:01Z</time>
      </trkpt>
      <trkpt lat="45.79638" lon="1.59439">
        <ele>326.4</ele>
        <time>2022-08-01T15:38:03Z</time>
      </trkpt>
      <trkpt lat="45.79642" lon="1.59443">
        <ele>326.2</ele>
        <time>2022-08-01T15:38:05Z</time>
      </trkpt>
      <trkpt lat="45.79645" lon="1.59447">
        <ele>326.2</ele>
        <time>2022-08-01T15:38:07Z</time>
      </trkpt>
      <trkpt lat="45.79648" lon="1.59451">
        <ele>326.2</ele>
        <time>2022-08-01T15:38:09Z</time>
      </trkpt>
      <trkpt lat="45.7965" lon="1.59455">
        <ele>326.2</ele>
        <time>2022-08-01T15:38:11Z</time>
      </trkpt>
      <trkpt lat="45.79653" lon="1.59459">
        <ele>326.3</ele>
        <time>2022-08-01T15:38:13Z</time>
      </trkpt>
      <trkpt lat="45.79656" lon="1.59463">
        <ele>326.3</ele>
        <time>2022-08-01T15:38:15Z</time>
      </trkpt>
      <trkpt lat="45.79659" lon="1.59467">
        <ele>326.4</ele>
        <time>2022-08-01T15:38:17Z</time>
      </trkpt>
      <trkpt lat="45.79662" lon="1.59471">
        <ele>326.4</ele>
        <time>2022-08-01T15:38:19Z</time>
      </trkpt>
      <trkpt lat="45.79665" lon="1.59474">
        <ele>326.2</ele>
        <time>2022-08-01T15:38:21Z</time>
      </trkpt>
      <trkpt lat="45.79668" lon="1.59478">
        <ele>326.4</ele>
        <time>2022-08-01T15:38:23Z</time>
      </trkpt>
      <trkpt lat="45.79671" lon="1.59483">
        <ele>326.6</ele>
        <time>2022-08-01T15:38:25Z</time>
      </trkpt>
      <trkpt lat="45.79673" lon="1.59487">
        <ele>326.8</ele>
        <time>2022-08-01T15:38:27Z</time>
      </trkpt>
      <trkpt lat="45.79675" lon="1.59491">
        <ele>326.9</ele>
        <time>2022-08-01T15:38:29Z</time>
      </trkpt>
      <trkpt lat="45.79677" lon="1.59495">
        <ele>327.1</ele>
        <time>2022-08-01T15:38:31Z</time>
      </trkpt>
      <trkpt lat="45.7968" lon="1.59499">
        <ele>327.1</ele>
        <time>2022-08-01T15:38:33Z</time>
      </trkpt>
      <trkpt lat="45.79683" lon="1.59503">
        <ele>326.9</ele>
        <time>2022-08-01T15:38:35Z</time>
      </trkpt>
      <trkpt lat="45.79685" lon="1.59508">
        <ele>326.8</ele>
        <time>2022-08-01T15:38:37Z</time>
      </trkpt>
      <trkpt lat="45.79687" lon="1.59512">
        <ele>326.8</ele>
        <time>2022-08-01T15:38:39Z</time>
      </trkpt>
      <trkpt lat="45.7969" lon="1.59517">
        <ele>326.8</ele>
        <time>2022-08-01T15:38:41Z</time>
      </trkpt>
      <trkpt lat="45.79692" lon="1.59521">
        <ele>326.8</ele>
        <time>2022-08-01T15:38:43Z</time>
      </trkpt>
      <trkpt lat="45.79693" lon="1.59526">
        <ele>326.9</ele>
        <time>2022-08-01T15:38:45Z</time>
      </trkpt>
      <trkpt lat="45.79695" lon="1.59531">
        <ele>327</ele>
        <time>2022-08-01T15:38:47Z</time>
      </trkpt>
      <trkpt lat="45.79696" lon="1.59537">
        <ele>327.2</ele>
        <time>2022-08-01T15:38:49Z</time>
      </trkpt>
      <trkpt lat="45.79697" lon="1.59541">
        <ele>327.4</ele>
        <time>2022-08-01T15:38:51Z</time>
      </trkpt>
      <trkpt lat="45.79698" lon="1.59547">
        <ele>327.8</ele>
        <time>2022-08-01T15:38:53Z</time>
      </trkpt>
      <trkpt lat="45.797" lon="1.59552">
        <ele>327.8</ele>
        <time>2022-08-01T15:38:55Z</time>
      </trkpt>
      <trkpt lat="45.79702" lon="1.59558">
        <ele>327.8</ele>
        <time>2022-08-01T15:38:57Z</time>
      </trkpt>
      <trkpt lat="45.79703" lon="1.59563">
        <ele>328</ele>
        <time>2022-08-01T15:38:59Z</time>
      </trkpt>
      <trkpt lat="45.79704" lon="1.59569">
        <ele>328.5</ele>
        <time>2022-08-01T15:39:01Z</time>
      </trkpt>
      <trkpt lat="45.79704" lon="1.59575">
        <ele>329</ele>
        <time>2022-08-01T15:39:03Z</time>
      </trkpt>
      <trkpt lat="45.79705" lon="1.59581">
        <ele>329.3</ele>
        <time>2022-08-01T15:39:05Z</time>
      </trkpt>
      <trkpt lat="45.79705" lon="1.59587">
        <ele>329.1</ele>
        <time>2022-08-01T15:39:07Z</time>
      </trkpt>
      <trkpt lat="45.79704" lon="1.59592">
        <ele>328.8</ele>
        <time>2022-08-01T15:39:09Z</time>
      </trkpt>
      <trkpt lat="45.79704" lon="1.59598">
        <ele>328.4</ele>
        <time>2022-08-01T15:39:11Z</time>
      </trkpt>
      <trkpt lat="45.79703" lon="1.59603">
        <ele>328.2</ele>
        <time>2022-08-01T15:39:13Z</time>
      </trkpt>
      <trkpt lat="45.79702" lon="1.59609">
        <ele>328.1</ele>
        <time>2022-08-01T15:39:15Z</time>
      </trkpt>
      <trkpt lat="45.797" lon="1.59613">
        <ele>328.1</ele>
        <time>2022-08-01T15:39:17Z</time>
      </trkpt>
      <trkpt lat="45.79698" lon="1.59618">
        <ele>328.1</ele>
        <time>2022-08-01T15:39:19Z</time>
      </trkpt>
      <trkpt lat="45.79695" lon="1.59622">
        <ele>328.3</ele>
        <time>2022-08-01T15:39:21Z</time>
      </trkpt>
      <trkpt lat="45.79693" lon="1.59625">
        <ele>328.5</ele>
        <time>2022-08-01T15:39:23Z</time>
      </trkpt>
      <trkpt lat="45.7969" lon="1.59628">
        <ele>328.8</ele>
        <time>2022-08-01T15:39:25Z</time>
      </trkpt>
      <trkpt lat="45.79687" lon="1.59631">
        <ele>329.4</ele>
        <time>2022-08-01T15:39:27Z</time>
      </trkpt>
      <trkpt lat="45.79683" lon="1.59634">
        <ele>329.8</ele>
        <time>2022-08-01T15:39:29Z</time>
      </trkpt>
      <trkpt lat="45.7968" lon="1.59636">
        <ele>330.1</ele>
        <time>2022-08-01T15:39:31Z</time>
      </trkpt>
      <trkpt lat="45.79677" lon="1.59639">
        <ele>330.5</ele>
        <time>2022-08-01T15:39:33Z</time>
      </trkpt>
      <trkpt lat="45.79674" lon="1.59642">
        <ele>330.9</ele>
        <time>2022-08-01T15:39:35Z</time>
      </trkpt>
      <trkpt lat="45.7967" lon="1.59644">
        <ele>331.4</ele>
        <time>2022-08-01T15:39:37Z</time>
      </trkpt>
      <trkpt lat="45.79666" lon="1.59648">
        <ele>331.7</ele>
        <time>2022-08-01T15:39:39Z</time>
      </trkpt>
      <trkpt lat="45.79663" lon="1.59651">
        <ele>331.9</ele>
        <time>2022-08-01T15:39:41Z</time>
      </trkpt>
      <trkpt lat="45.79659" lon="1.59653">
        <ele>332.3</ele>
        <time>2022-08-01T15:39:43Z</time>
      </trkpt>
      <trkpt lat="45.79656" lon="1.59656">
        <ele>332.6</ele>
        <time>2022-08-01T15:39:45Z</time>
      </trkpt>
      <trkpt lat="45.79652" lon="1.59658">
        <ele>333.2</ele>
        <time>2022-08-01T15:39:47Z</time>
      </trkpt>
      <trkpt lat="45.79647" lon="1.59662">
        <ele>333.7</ele>
        <time>2022-08-01T15:39:49Z</time>
      </trkpt>
      <trkpt lat="45.79643" lon="1.59667">
        <ele>334.2</ele>
        <time>2022-08-01T15:39:51Z</time>
      </trkpt>
      <trkpt lat="45.79639" lon="1.59671">
        <ele>334.4</ele>
        <time>2022-08-01T15:39:53Z</time>
      </trkpt>
      <trkpt lat="45.79635" lon="1.59674">
        <ele>334.7</ele>
        <time>2022-08-01T15:39:55Z</time>
      </trkpt>
      <trkpt lat="45.79631" lon="1.59678">
        <ele>335</ele>
        <time>2022-08-01T15:39:57Z</time>
      </trkpt>
      <trkpt lat="45.79627" lon="1.59682">
        <ele>335.3</ele>
        <time>2022-08-01T15:39:59Z</time>
      </trkpt>
      <trkpt lat="45.79623" lon="1.59686">
        <ele>335.7</ele>
        <time>2022-08-01T15:40:01Z</time>
      </trkpt>
      <trkpt lat="45.79619" lon="1.59688">
        <ele>336.3</ele>
        <time>2022-08-01T15:40:03Z</time>
      </trkpt>
      <trkpt lat="45.79616" lon="1.59693">
        <ele>336.4</ele>
        <time>2022-08-01T15:40:05Z</time>
      </trkpt>
      <trkpt lat="45.79612" lon="1.59696">
        <ele>336.8</ele>
        <time>2022-08-01T15:40:07Z</time>
      </trkpt>
      <trkpt lat="45.79609" lon="1.59701">
        <ele>337</ele>
        <time>2022-08-01T15:40:09Z</time>
      </trkpt>
      <trkpt lat="45.79606" lon="1.59705">
        <ele>337.2</ele>
        <time>2022-08-01T15:40:11Z</time>
      </trkpt>
      <trkpt lat="45.79602" lon="1.5971">
        <ele>337.7</ele>
        <time>2022-08-01T15:40:13Z</time>
      </trkpt>
      <trkpt lat="45.79599" lon="1.59713">
        <ele>338</ele>
        <time>2022-08-01T15:40:15Z</time>
      </trkpt>
      <trkpt lat="45.79595" lon="1.59718">
        <ele>338.3</ele>
        <time>2022-08-01T15:40:17Z</time>
      </trkpt>
      <trkpt lat="45.79592" lon="1.59723">
        <ele>338.6</ele>
        <time>2022-08-01T15:40:19Z</time>
      </trkpt>
      <trkpt lat="45.79591" lon="1.59727">
        <ele>338.5</ele>
        <time>2022-08-01T15:40:21Z</time>
      </trkpt>
      <trkpt lat="45.79586" lon="1.59734">
        <ele>339.1</ele>
        <time>2022-08-01T15:40:23Z</time>
      </trkpt>
      <trkpt lat="45.79581" lon="1.59739">
        <ele>339.4</ele>
        <time>2022-08-01T15:40:25Z</time>
      </trkpt>
      <trkpt lat="45.79576" lon="1.59744">
        <ele>339.1</ele>
        <time>2022-08-01T15:40:27Z</time>
      </trkpt>
      <trkpt lat="45.79573" lon="1.5975">
        <ele>338.9</ele>
        <time>2022-08-01T15:40:29Z</time>
      </trkpt>
      <trkpt lat="45.79571" lon="1.59756">
        <ele>338.3</ele>
        <time>2022-08-01T15:40:31Z</time>
      </trkpt>
      <trkpt lat="45.79567" lon="1.59764">
        <ele>337.8</ele>
        <time>2022-08-01T15:40:33Z</time>
      </trkpt>
      <trkpt lat="45.7956" lon="1.5977">
        <ele>337.8</ele>
        <time>2022-08-01T15:40:35Z</time>
      </trkpt>
      <trkpt lat="45.79556" lon="1.5978">
        <ele>337.4</ele>
        <time>2022-08-01T15:40:37Z</time>
      </trkpt>
      <trkpt lat="45.7955" lon="1.59787">
        <ele>337.3</ele>
        <time>2022-08-01T15:40:39Z</time>
      </trkpt>
      <trkpt lat="45.79546" lon="1.59795">
        <ele>337.2</ele>
        <time>2022-08-01T15:40:41Z</time>
      </trkpt>
      <trkpt lat="45.79542" lon="1.59801">
        <ele>337.2</ele>
        <time>2022-08-01T15:40:43Z</time>
      </trkpt>
      <trkpt lat="45.79536" lon="1.59807">
        <ele>337.6</ele>
        <time>2022-08-01T15:40:45Z</time>
      </trkpt>
      <trkpt lat="45.79531" lon="1.59815">
        <ele>337.7</ele>
        <time>2022-08-01T15:40:47Z</time>
      </trkpt>
      <trkpt lat="45.79527" lon="1.59822">
        <ele>337.9</ele>
        <time>2022-08-01T15:40:49Z</time>
      </trkpt>
      <trkpt lat="45.79523" lon="1.59828">
        <ele>338.2</ele>
        <time>2022-08-01T15:40:51Z</time>
      </trkpt>
      <trkpt lat="45.79521" lon="1.59833">
        <ele>338.3</ele>
        <time>2022-08-01T15:40:53Z</time>
      </trkpt>
      <trkpt lat="45.79516" lon="1.5984">
        <ele>338.9</ele>
        <time>2022-08-01T15:40:55Z</time>
      </trkpt>
      <trkpt lat="45.79511" lon="1.59846">
        <ele>339.5</ele>
        <time>2022-08-01T15:40:57Z</time>
      </trkpt>
      <trkpt lat="45.79508" lon="1.59852">
        <ele>339.9</ele>
        <time>2022-08-01T15:40:59Z</time>
      </trkpt>
      <trkpt lat="45.79503" lon="1.59859">
        <ele>340.5</ele>
        <time>2022-08-01T15:41:01Z</time>
      </trkpt>
      <trkpt lat="45.79499" lon="1.59865">
        <ele>340.9</ele>
        <time>2022-08-01T15:41:03Z</time>
      </trkpt>
      <trkpt lat="45.79495" lon="1.59871">
        <ele>340.7</ele>
        <time>2022-08-01T15:41:05Z</time>
      </trkpt>
      <trkpt lat="45.79492" lon="1.59876">
        <ele>340.5</ele>
        <time>2022-08-01T15:41:07Z</time>
      </trkpt>
      <trkpt lat="45.79488" lon="1.59883">
        <ele>340.3</ele>
        <time>2022-08-01T15:41:09Z</time>
      </trkpt>
      <trkpt lat="45.79486" lon="1.59889">
        <ele>340.1</ele>
        <time>2022-08-01T15:41:11Z</time>
      </trkpt>
      <trkpt lat="45.79482" lon="1.59897">
        <ele>339.8</ele>
        <time>2022-08-01T15:41:13Z</time>
      </trkpt>
      <trkpt lat="45.79478" lon="1.59903">
        <ele>339.6</ele>
        <time>2022-08-01T15:41:15Z</time>
      </trkpt>
      <trkpt lat="45.79474" lon="1.59907">
        <ele>339.4</ele>
        <time>2022-08-01T15:41:17Z</time>
      </trkpt>
      <trkpt lat="45.7947" lon="1.59914">
        <ele>339.1</ele>
        <time>2022-08-01T15:41:19Z</time>
      </trkpt>
      <trkpt lat="45.79466" lon="1.5992">
        <ele>338.8</ele>
        <time>2022-08-01T15:41:21Z</time>
      </trkpt>
      <trkpt lat="45.79461" lon="1.59926">
        <ele>338.6</ele>
        <time>2022-08-01T15:41:23Z</time>
      </trkpt>
      <trkpt lat="45.79457" lon="1.59932">
        <ele>338.4</ele>
        <time>2022-08-01T15:41:25Z</time>
      </trkpt>
      <trkpt lat="45.79453" lon="1.59938">
        <ele>338.1</ele>
        <time>2022-08-01T15:41:27Z</time>
      </trkpt>
      <trkpt lat="45.79449" lon="1.59944">
        <ele>337.9</ele>
        <time>2022-08-01T15:41:29Z</time>
      </trkpt>
      <trkpt lat="45.79444" lon="1.59951">
        <ele>337.6</ele>
        <time>2022-08-01T15:41:31Z</time>
      </trkpt>
      <trkpt lat="45.7944" lon="1.59958">
        <ele>337.4</ele>
        <time>2022-08-01T15:41:33Z</time>
      </trkpt>
      <trkpt lat="45.79435" lon="1.59963">
        <ele>337.2</ele>
        <time>2022-08-01T15:41:35Z</time>
      </trkpt>
      <trkpt lat="45.79431" lon="1.59969">
        <ele>337</ele>
        <time>2022-08-01T15:41:37Z</time>
      </trkpt>
      <trkpt lat="45.79426" lon="1.59977">
        <ele>336.8</ele>
        <time>2022-08-01T15:41:39Z</time>
      </trkpt>
      <trkpt lat="45.79422" lon="1.59984">
        <ele>336.5</ele>
        <time>2022-08-01T15:41:41Z</time>
      </trkpt>
      <trkpt lat="45.79417" lon="1.5999">
        <ele>336.3</ele>
        <time>2022-08-01T15:41:43Z</time>
      </trkpt>
      <trkpt lat="45.79412" lon="1.59998">
        <ele>336</ele>
        <time>2022-08-01T15:41:45Z</time>
      </trkpt>
      <trkpt lat="45.79407" lon="1.60005">
        <ele>335.8</ele>
        <time>2022-08-01T15:41:47Z</time>
      </trkpt>
      <trkpt lat="45.79402" lon="1.60012">
        <ele>335.8</ele>
        <time>2022-08-01T15:41:49Z</time>
      </trkpt>
      <trkpt lat="45.79397" lon="1.6002">
        <ele>335.8</ele>
        <time>2022-08-01T15:41:51Z</time>
      </trkpt>
      <trkpt lat="45.79392" lon="1.60028">
        <ele>335.9</ele>
        <time>2022-08-01T15:41:53Z</time>
      </trkpt>
      <trkpt lat="45.79387" lon="1.60035">
        <ele>336</ele>
        <time>2022-08-01T15:41:55Z</time>
      </trkpt>
      <trkpt lat="45.79382" lon="1.60043">
        <ele>336.2</ele>
        <time>2022-08-01T15:41:57Z</time>
      </trkpt>
      <trkpt lat="45.79377" lon="1.60052">
        <ele>336.5</ele>
        <time>2022-08-01T15:41:59Z</time>
      </trkpt>
      <trkpt lat="45.79371" lon="1.6006">
        <ele>336.9</ele>
        <time>2022-08-01T15:42:01Z</time>
      </trkpt>
      <trkpt lat="45.79366" lon="1.60069">
        <ele>337.3</ele>
        <time>2022-08-01T15:42:03Z</time>
      </trkpt>
      <trkpt lat="45.79361" lon="1.60079">
        <ele>337.8</ele>
        <time>2022-08-01T15:42:05Z</time>
      </trkpt>
      <trkpt lat="45.79354" lon="1.60087">
        <ele>338.2</ele>
        <time>2022-08-01T15:42:07Z</time>
      </trkpt>
      <trkpt lat="45.79348" lon="1.60096">
        <ele>338.3</ele>
        <time>2022-08-01T15:42:09Z</time>
      </trkpt>
      <trkpt lat="45.79341" lon="1.60106">
        <ele>338.4</ele>
        <time>2022-08-01T15:42:11Z</time>
      </trkpt>
      <trkpt lat="45.79335" lon="1.60116">
        <ele>338.5</ele>
        <time>2022-08-01T15:42:13Z</time>
      </trkpt>
      <trkpt lat="45.79328" lon="1.60125">
        <ele>338.5</ele>
        <time>2022-08-01T15:42:15Z</time>
      </trkpt>
      <trkpt lat="45.79322" lon="1.60134">
        <ele>338.5</ele>
        <time>2022-08-01T15:42:17Z</time>
      </trkpt>
      <trkpt lat="45.79315" lon="1.60142">
        <ele>338.7</ele>
        <time>2022-08-01T15:42:19Z</time>
      </trkpt>
      <trkpt lat="45.79308" lon="1.6015">
        <ele>338.9</ele>
        <time>2022-08-01T15:42:21Z</time>
      </trkpt>
      <trkpt lat="45.793" lon="1.60157">
        <ele>339.3</ele>
        <time>2022-08-01T15:42:23Z</time>
      </trkpt>
      <trkpt lat="45.79293" lon="1.60162">
        <ele>339.8</ele>
        <time>2022-08-01T15:42:25Z</time>
      </trkpt>
      <trkpt lat="45.79286" lon="1.60166">
        <ele>340.3</ele>
        <time>2022-08-01T15:42:27Z</time>
      </trkpt>
      <trkpt lat="45.79279" lon="1.60168">
        <ele>340.7</ele>
        <time>2022-08-01T15:42:29Z</time>
      </trkpt>
      <trkpt lat="45.79272" lon="1.6017">
        <ele>341.1</ele>
        <time>2022-08-01T15:42:31Z</time>
      </trkpt>
      <trkpt lat="45.79266" lon="1.60171">
        <ele>341.4</ele>
        <time>2022-08-01T15:42:33Z</time>
      </trkpt>
      <trkpt lat="45.7926" lon="1.60171">
        <ele>341.8</ele>
        <time>2022-08-01T15:42:35Z</time>
      </trkpt>
      <trkpt lat="45.79254" lon="1.60171">
        <ele>342.1</ele>
        <time>2022-08-01T15:42:37Z</time>
      </trkpt>
      <trkpt lat="45.79249" lon="1.60171">
        <ele>342.3</ele>
        <time>2022-08-01T15:42:39Z</time>
      </trkpt>
      <trkpt lat="45.79244" lon="1.60171">
        <ele>342.3</ele>
        <time>2022-08-01T15:42:41Z</time>
      </trkpt>
      <trkpt lat="45.7924" lon="1.60171">
        <ele>342.4</ele>
        <time>2022-08-01T15:42:43Z</time>
      </trkpt>
      <trkpt lat="45.79235" lon="1.60169">
        <ele>342.3</ele>
        <time>2022-08-01T15:42:45Z</time>
      </trkpt>
      <trkpt lat="45.79231" lon="1.60169">
        <ele>342.4</ele>
        <time>2022-08-01T15:42:47Z</time>
      </trkpt>
      <trkpt lat="45.79226" lon="1.60169">
        <ele>342.4</ele>
        <time>2022-08-01T15:42:49Z</time>
      </trkpt>
      <trkpt lat="45.79222" lon="1.60169">
        <ele>342.5</ele>
        <time>2022-08-01T15:42:51Z</time>
      </trkpt>
      <trkpt lat="45.79218" lon="1.60168">
        <ele>342.5</ele>
        <time>2022-08-01T15:42:53Z</time>
      </trkpt>
      <trkpt lat="45.79214" lon="1.60168">
        <ele>342.5</ele>
        <time>2022-08-01T15:42:55Z</time>
      </trkpt>
      <trkpt lat="45.79209" lon="1.60167">
        <ele>342.5</ele>
        <time>2022-08-01T15:42:57Z</time>
      </trkpt>
      <trkpt lat="45.79205" lon="1.60166">
        <ele>342.5</ele>
        <time>2022-08-01T15:42:59Z</time>
      </trkpt>
      <trkpt lat="45.792" lon="1.60166">
        <ele>342.5</ele>
        <time>2022-08-01T15:43:01Z</time>
      </trkpt>
      <trkpt lat="45.79196" lon="1.60166">
        <ele>342.6</ele>
        <time>2022-08-01T15:43:03Z</time>
      </trkpt>
      <trkpt lat="45.79193" lon="1.60166">
        <ele>342.6</ele>
        <time>2022-08-01T15:43:05Z</time>
      </trkpt>
      <trkpt lat="45.79189" lon="1.60166">
        <ele>342.7</ele>
        <time>2022-08-01T15:43:07Z</time>
      </trkpt>
      <trkpt lat="45.79186" lon="1.60167">
        <ele>342.8</ele>
        <time>2022-08-01T15:43:09Z</time>
      </trkpt>
      <trkpt lat="45.79182" lon="1.60166">
        <ele>342.8</ele>
        <time>2022-08-01T15:43:11Z</time>
      </trkpt>
      <trkpt lat="45.79179" lon="1.60167">
        <ele>342.9</ele>
        <time>2022-08-01T15:43:13Z</time>
      </trkpt>
      <trkpt lat="45.79175" lon="1.60167">
        <ele>342.9</ele>
        <time>2022-08-01T15:43:15Z</time>
      </trkpt>
      <trkpt lat="45.79172" lon="1.60168">
        <ele>343.1</ele>
        <time>2022-08-01T15:43:17Z</time>
      </trkpt>
      <trkpt lat="45.79168" lon="1.60169">
        <ele>343.2</ele>
        <time>2022-08-01T15:43:19Z</time>
      </trkpt>
      <trkpt lat="45.79165" lon="1.60171">
        <ele>343.1</ele>
        <time>2022-08-01T15:43:21Z</time>
      </trkpt>
      <trkpt lat="45.79161" lon="1.60173">
        <ele>342.9</ele>
        <time>2022-08-01T15:43:23Z</time>
      </trkpt>
      <trkpt lat="45.79158" lon="1.60175">
        <ele>342.6</ele>
        <time>2022-08-01T15:43:25Z</time>
      </trkpt>
      <trkpt lat="45.79155" lon="1.60178">
        <ele>342.5</ele>
        <time>2022-08-01T15:43:27Z</time>
      </trkpt>
      <trkpt lat="45.79151" lon="1.60182">
        <ele>342.4</ele>
        <time>2022-08-01T15:43:29Z</time>
      </trkpt>
      <trkpt lat="45.79149" lon="1.60186">
        <ele>342.4</ele>
        <time>2022-08-01T15:43:31Z</time>
      </trkpt>
      <trkpt lat="45.79146" lon="1.6019">
        <ele>342.3</ele>
        <time>2022-08-01T15:43:33Z</time>
      </trkpt>
      <trkpt lat="45.79144" lon="1.60194">
        <ele>342.3</ele>
        <time>2022-08-01T15:43:35Z</time>
      </trkpt>
      <trkpt lat="45.79142" lon="1.602">
        <ele>342.5</ele>
        <time>2022-08-01T15:43:37Z</time>
      </trkpt>
      <trkpt lat="45.79141" lon="1.60204">
        <ele>342.6</ele>
        <time>2022-08-01T15:43:39Z</time>
      </trkpt>
      <trkpt lat="45.79139" lon="1.60209">
        <ele>342.8</ele>
        <time>2022-08-01T15:43:41Z</time>
      </trkpt>
      <trkpt lat="45.79138" lon="1.60213">
        <ele>342.9</ele>
        <time>2022-08-01T15:43:43Z</time>
      </trkpt>
      <trkpt lat="45.79137" lon="1.60218">
        <ele>343.1</ele>
        <time>2022-08-01T15:43:45Z</time>
      </trkpt>
      <trkpt lat="45.79136" lon="1.60224">
        <ele>343.3</ele>
        <time>2022-08-01T15:43:47Z</time>
      </trkpt>
      <trkpt lat="45.79135" lon="1.60229">
        <ele>343.5</ele>
        <time>2022-08-01T15:43:49Z</time>
      </trkpt>
      <trkpt lat="45.79134" lon="1.60235">
        <ele>343.8</ele>
        <time>2022-08-01T15:43:51Z</time>
      </trkpt>
      <trkpt lat="45.79134" lon="1.6024">
        <ele>344</ele>
        <time>2022-08-01T15:43:53Z</time>
      </trkpt>
      <trkpt lat="45.79133" lon="1.60246">
        <ele>344.3</ele>
        <time>2022-08-01T15:43:55Z</time>
      </trkpt>
      <trkpt lat="45.79132" lon="1.60251">
        <ele>344.6</ele>
        <time>2022-08-01T15:43:57Z</time>
      </trkpt>
      <trkpt lat="45.79131" lon="1.60257">
        <ele>345.1</ele>
        <time>2022-08-01T15:43:59Z</time>
      </trkpt>
      <trkpt lat="45.7913" lon="1.60262">
        <ele>345.7</ele>
        <time>2022-08-01T15:44:01Z</time>
      </trkpt>
      <trkpt lat="45.79128" lon="1.60268">
        <ele>346.2</ele>
        <time>2022-08-01T15:44:03Z</time>
      </trkpt>
      <trkpt lat="45.79127" lon="1.60273">
        <ele>346.8</ele>
        <time>2022-08-01T15:44:05Z</time>
      </trkpt>
      <trkpt lat="45.79125" lon="1.60279">
        <ele>347.3</ele>
        <time>2022-08-01T15:44:07Z</time>
      </trkpt>
      <trkpt lat="45.79124" lon="1.60284">
        <ele>347.8</ele>
        <time>2022-08-01T15:44:09Z</time>
      </trkpt>
      <trkpt lat="45.79122" lon="1.60289">
        <ele>348.4</ele>
        <time>2022-08-01T15:44:11Z</time>
      </trkpt>
      <trkpt lat="45.7912" lon="1.60294">
        <ele>348.9</ele>
        <time>2022-08-01T15:44:13Z</time>
      </trkpt>
      <trkpt lat="45.79118" lon="1.60299">
        <ele>349.4</ele>
        <time>2022-08-01T15:44:15Z</time>
      </trkpt>
      <trkpt lat="45.79116" lon="1.60304">
        <ele>349.8</ele>
        <time>2022-08-01T15:44:17Z</time>
      </trkpt>
      <trkpt lat="45.79114" lon="1.60309">
        <ele>350.3</ele>
        <time>2022-08-01T15:44:19Z</time>
      </trkpt>
      <trkpt lat="45.79111" lon="1.60313">
        <ele>350.8</ele>
        <time>2022-08-01T15:44:21Z</time>
      </trkpt>
      <trkpt lat="45.79108" lon="1.60317">
        <ele>351.1</ele>
        <time>2022-08-01T15:44:23Z</time>
      </trkpt>
      <trkpt lat="45.79105" lon="1.60321">
        <ele>351.5</ele>
        <time>2022-08-01T15:44:25Z</time>
      </trkpt>
      <trkpt lat="45.79103" lon="1.60325">
        <ele>351.9</ele>
        <time>2022-08-01T15:44:27Z</time>
      </trkpt>
      <trkpt lat="45.791" lon="1.60328">
        <ele>352.1</ele>
        <time>2022-08-01T15:44:29Z</time>
      </trkpt>
      <trkpt lat="45.79097" lon="1.60331">
        <ele>352.5</ele>
        <time>2022-08-01T15:44:31Z</time>
      </trkpt>
      <trkpt lat="45.79095" lon="1.60335">
        <ele>352.9</ele>
        <time>2022-08-01T15:44:33Z</time>
      </trkpt>
      <trkpt lat="45.79091" lon="1.60338">
        <ele>353.1</ele>
        <time>2022-08-01T15:44:35Z</time>
      </trkpt>
      <trkpt lat="45.79089" lon="1.60339">
        <ele>353.3</ele>
        <time>2022-08-01T15:44:37Z</time>
      </trkpt>
      <trkpt lat="45.79087" lon="1.60342">
        <ele>353.6</ele>
        <time>2022-08-01T15:44:39Z</time>
      </trkpt>
      <trkpt lat="45.79084" lon="1.60344">
        <ele>353.8</ele>
        <time>2022-08-01T15:44:41Z</time>
      </trkpt>
      <trkpt lat="45.7908" lon="1.60347">
        <ele>353.8</ele>
        <time>2022-08-01T15:44:43Z</time>
      </trkpt>
      <trkpt lat="45.79077" lon="1.60349">
        <ele>353.7</ele>
        <time>2022-08-01T15:44:45Z</time>
      </trkpt>
      <trkpt lat="45.79075" lon="1.60352">
        <ele>353.9</ele>
        <time>2022-08-01T15:44:47Z</time>
      </trkpt>
      <trkpt lat="45.79072" lon="1.60354">
        <ele>353.9</ele>
        <time>2022-08-01T15:44:49Z</time>
      </trkpt>
      <trkpt lat="45.79069" lon="1.60358">
        <ele>354.2</ele>
        <time>2022-08-01T15:44:51Z</time>
      </trkpt>
      <trkpt lat="45.79066" lon="1.60361">
        <ele>354.3</ele>
        <time>2022-08-01T15:44:53Z</time>
      </trkpt>
      <trkpt lat="45.79064" lon="1.60363">
        <ele>354.3</ele>
        <time>2022-08-01T15:44:55Z</time>
      </trkpt>
      <trkpt lat="45.79061" lon="1.60367">
        <ele>354.7</ele>
        <time>2022-08-01T15:44:57Z</time>
      </trkpt>
      <trkpt lat="45.79057" lon="1.6037">
        <ele>354.6</ele>
        <time>2022-08-01T15:44:59Z</time>
      </trkpt>
      <trkpt lat="45.79053" lon="1.60373">
        <ele>354.7</ele>
        <time>2022-08-01T15:45:01Z</time>
      </trkpt>
      <trkpt lat="45.79049" lon="1.60377">
        <ele>354.9</ele>
        <time>2022-08-01T15:45:03Z</time>
      </trkpt>
      <trkpt lat="45.79046" lon="1.6038">
        <ele>355.1</ele>
        <time>2022-08-01T15:45:05Z</time>
      </trkpt>
      <trkpt lat="45.79042" lon="1.60384">
        <ele>355.3</ele>
        <time>2022-08-01T15:45:07Z</time>
      </trkpt>
      <trkpt lat="45.79039" lon="1.60388">
        <ele>355.5</ele>
        <time>2022-08-01T15:45:09Z</time>
      </trkpt>
      <trkpt lat="45.79035" lon="1.60391">
        <ele>355.6</ele>
        <time>2022-08-01T15:45:11Z</time>
      </trkpt>
      <trkpt lat="45.79032" lon="1.60395">
        <ele>355.8</ele>
        <time>2022-08-01T15:45:13Z</time>
      </trkpt>
      <trkpt lat="45.79029" lon="1.60399">
        <ele>356.2</ele>
        <time>2022-08-01T15:45:15Z</time>
      </trkpt>
      <trkpt lat="45.79026" lon="1.60404">
        <ele>356.7</ele>
        <time>2022-08-01T15:45:17Z</time>
      </trkpt>
      <trkpt lat="45.79023" lon="1.60408">
        <ele>357.1</ele>
        <time>2022-08-01T15:45:19Z</time>
      </trkpt>
      <trkpt lat="45.79021" lon="1.60412">
        <ele>357.5</ele>
        <time>2022-08-01T15:45:21Z</time>
      </trkpt>
      <trkpt lat="45.79019" lon="1.60418">
        <ele>358.1</ele>
        <time>2022-08-01T15:45:23Z</time>
      </trkpt>
      <trkpt lat="45.79016" lon="1.60422">
        <ele>358.1</ele>
        <time>2022-08-01T15:45:25Z</time>
      </trkpt>
      <trkpt lat="45.79015" lon="1.60426">
        <ele>358.2</ele>
        <time>2022-08-01T15:45:27Z</time>
      </trkpt>
      <trkpt lat="45.79013" lon="1.6043">
        <ele>358.4</ele>
        <time>2022-08-01T15:45:29Z</time>
      </trkpt>
      <trkpt lat="45.79012" lon="1.60435">
        <ele>358.6</ele>
        <time>2022-08-01T15:45:31Z</time>
      </trkpt>
      <trkpt lat="45.7901" lon="1.6044">
        <ele>358.8</ele>
        <time>2022-08-01T15:45:33Z</time>
      </trkpt>
      <trkpt lat="45.79008" lon="1.60444">
        <ele>358.9</ele>
        <time>2022-08-01T15:45:35Z</time>
      </trkpt>
      <trkpt lat="45.79007" lon="1.60449">
        <ele>359.1</ele>
        <time>2022-08-01T15:45:37Z</time>
      </trkpt>
      <trkpt lat="45.79007" lon="1.60454">
        <ele>359.5</ele>
        <time>2022-08-01T15:45:39Z</time>
      </trkpt>
      <trkpt lat="45.79006" lon="1.60459">
        <ele>359.7</ele>
        <time>2022-08-01T15:45:41Z</time>
      </trkpt>
      <trkpt lat="45.79006" lon="1.60464">
        <ele>360.1</ele>
        <time>2022-08-01T15:45:43Z</time>
      </trkpt>
      <trkpt lat="45.79006" lon="1.60468">
        <ele>360.4</ele>
        <time>2022-08-01T15:45:45Z</time>
      </trkpt>
      <trkpt lat="45.79006" lon="1.60473">
        <ele>360.8</ele>
        <time>2022-08-01T15:45:47Z</time>
      </trkpt>
      <trkpt lat="45.79006" lon="1.60478">
        <ele>361.1</ele>
        <time>2022-08-01T15:45:49Z</time>
      </trkpt>
      <trkpt lat="45.79006" lon="1.60483">
        <ele>361.5</ele>
        <time>2022-08-01T15:45:51Z</time>
      </trkpt>
      <trkpt lat="45.79005" lon="1.60488">
        <ele>361.7</ele>
        <time>2022-08-01T15:45:53Z</time>
      </trkpt>
      <trkpt lat="45.79006" lon="1.60492">
        <ele>362.1</ele>
        <time>2022-08-01T15:45:55Z</time>
      </trkpt>
      <trkpt lat="45.79006" lon="1.60497">
        <ele>362.5</ele>
        <time>2022-08-01T15:45:57Z</time>
      </trkpt>
      <trkpt lat="45.79007" lon="1.60502">
        <ele>362.9</ele>
        <time>2022-08-01T15:45:59Z</time>
      </trkpt>
      <trkpt lat="45.79008" lon="1.60507">
        <ele>362.9</ele>
        <time>2022-08-01T15:46:01Z</time>
      </trkpt>
      <trkpt lat="45.79008" lon="1.60511">
        <ele>362.8</ele>
        <time>2022-08-01T15:46:03Z</time>
      </trkpt>
      <trkpt lat="45.79008" lon="1.60517">
        <ele>362.8</ele>
        <time>2022-08-01T15:46:05Z</time>
      </trkpt>
      <trkpt lat="45.79008" lon="1.60522">
        <ele>362.7</ele>
        <time>2022-08-01T15:46:07Z</time>
      </trkpt>
      <trkpt lat="45.79008" lon="1.60527">
        <ele>362.7</ele>
        <time>2022-08-01T15:46:09Z</time>
      </trkpt>
      <trkpt lat="45.79008" lon="1.60532">
        <ele>362.6</ele>
        <time>2022-08-01T15:46:11Z</time>
      </trkpt>
      <trkpt lat="45.7901" lon="1.60536">
        <ele>362.8</ele>
        <time>2022-08-01T15:46:13Z</time>
      </trkpt>
      <trkpt lat="45.79011" lon="1.60542">
        <ele>362.9</ele>
        <time>2022-08-01T15:46:15Z</time>
      </trkpt>
      <trkpt lat="45.79012" lon="1.60546">
        <ele>363</ele>
        <time>2022-08-01T15:46:17Z</time>
      </trkpt>
      <trkpt lat="45.79014" lon="1.60551">
        <ele>363.1</ele>
        <time>2022-08-01T15:46:19Z</time>
      </trkpt>
      <trkpt lat="45.79015" lon="1.60556">
        <ele>363.2</ele>
        <time>2022-08-01T15:46:21Z</time>
      </trkpt>
      <trkpt lat="45.79017" lon="1.6056">
        <ele>363.4</ele>
        <time>2022-08-01T15:46:23Z</time>
      </trkpt>
      <trkpt lat="45.79018" lon="1.60565">
        <ele>363.6</ele>
        <time>2022-08-01T15:46:25Z</time>
      </trkpt>
      <trkpt lat="45.79019" lon="1.6057">
        <ele>363.7</ele>
        <time>2022-08-01T15:46:27Z</time>
      </trkpt>
      <trkpt lat="45.79021" lon="1.60575">
        <ele>363.8</ele>
        <time>2022-08-01T15:46:29Z</time>
      </trkpt>
      <trkpt lat="45.79023" lon="1.6058">
        <ele>364</ele>
        <time>2022-08-01T15:46:31Z</time>
      </trkpt>
      <trkpt lat="45.79024" lon="1.60585">
        <ele>364.3</ele>
        <time>2022-08-01T15:46:33Z</time>
      </trkpt>
      <trkpt lat="45.79027" lon="1.6059">
        <ele>364.7</ele>
        <time>2022-08-01T15:46:35Z</time>
      </trkpt>
      <trkpt lat="45.79028" lon="1.60595">
        <ele>365</ele>
        <time>2022-08-01T15:46:37Z</time>
      </trkpt>
      <trkpt lat="45.7903" lon="1.606">
        <ele>365.4</ele>
        <time>2022-08-01T15:46:39Z</time>
      </trkpt>
      <trkpt lat="45.79032" lon="1.60605">
        <ele>365.8</ele>
        <time>2022-08-01T15:46:41Z</time>
      </trkpt>
      <trkpt lat="45.79034" lon="1.60611">
        <ele>366.1</ele>
        <time>2022-08-01T15:46:43Z</time>
      </trkpt>
      <trkpt lat="45.79036" lon="1.60616">
        <ele>366.4</ele>
        <time>2022-08-01T15:46:45Z</time>
      </trkpt>
      <trkpt lat="45.79038" lon="1.60622">
        <ele>366.7</ele>
        <time>2022-08-01T15:46:47Z</time>
      </trkpt>
      <trkpt lat="45.79039" lon="1.60627">
        <ele>367</ele>
        <time>2022-08-01T15:46:49Z</time>
      </trkpt>
      <trkpt lat="45.79041" lon="1.60633">
        <ele>367.3</ele>
        <time>2022-08-01T15:46:51Z</time>
      </trkpt>
      <trkpt lat="45.79043" lon="1.60638">
        <ele>367.6</ele>
        <time>2022-08-01T15:46:53Z</time>
      </trkpt>
      <trkpt lat="45.79045" lon="1.60643">
        <ele>367.9</ele>
        <time>2022-08-01T15:46:55Z</time>
      </trkpt>
      <trkpt lat="45.79046" lon="1.60649">
        <ele>368.2</ele>
        <time>2022-08-01T15:46:57Z</time>
      </trkpt>
      <trkpt lat="45.79048" lon="1.60654">
        <ele>368.4</ele>
        <time>2022-08-01T15:46:59Z</time>
      </trkpt>
      <trkpt lat="45.7905" lon="1.60659">
        <ele>368.7</ele>
        <time>2022-08-01T15:47:01Z</time>
      </trkpt>
      <trkpt lat="45.79052" lon="1.60664">
        <ele>369</ele>
        <time>2022-08-01T15:47:03Z</time>
      </trkpt>
      <trkpt lat="45.79054" lon="1.6067">
        <ele>369.1</ele>
        <time>2022-08-01T15:47:05Z</time>
      </trkpt>
      <trkpt lat="45.79055" lon="1.60675">
        <ele>369.1</ele>
        <time>2022-08-01T15:47:07Z</time>
      </trkpt>
      <trkpt lat="45.79057" lon="1.6068">
        <ele>369.3</ele>
        <time>2022-08-01T15:47:09Z</time>
      </trkpt>
      <trkpt lat="45.79059" lon="1.60685">
        <ele>369.4</ele>
        <time>2022-08-01T15:47:11Z</time>
      </trkpt>
      <trkpt lat="45.79061" lon="1.6069">
        <ele>369.5</ele>
        <time>2022-08-01T15:47:13Z</time>
      </trkpt>
      <trkpt lat="45.79064" lon="1.60695">
        <ele>369.7</ele>
        <time>2022-08-01T15:47:15Z</time>
      </trkpt>
      <trkpt lat="45.79067" lon="1.607">
        <ele>369.8</ele>
        <time>2022-08-01T15:47:17Z</time>
      </trkpt>
      <trkpt lat="45.79069" lon="1.60705">
        <ele>369.9</ele>
        <time>2022-08-01T15:47:19Z</time>
      </trkpt>
      <trkpt lat="45.79072" lon="1.60711">
        <ele>370</ele>
        <time>2022-08-01T15:47:21Z</time>
      </trkpt>
      <trkpt lat="45.79076" lon="1.60715">
        <ele>370.2</ele>
        <time>2022-08-01T15:47:23Z</time>
      </trkpt>
      <trkpt lat="45.79078" lon="1.60719">
        <ele>370.3</ele>
        <time>2022-08-01T15:47:25Z</time>
      </trkpt>
      <trkpt lat="45.79081" lon="1.60723">
        <ele>370.4</ele>
        <time>2022-08-01T15:47:27Z</time>
      </trkpt>
      <trkpt lat="45.79085" lon="1.60727">
        <ele>370.6</ele>
        <time>2022-08-01T15:47:29Z</time>
      </trkpt>
      <trkpt lat="45.79088" lon="1.60732">
        <ele>370.4</ele>
        <time>2022-08-01T15:47:31Z</time>
      </trkpt>
      <trkpt lat="45.79092" lon="1.60737">
        <ele>370.3</ele>
        <time>2022-08-01T15:47:33Z</time>
      </trkpt>
      <trkpt lat="45.79097" lon="1.60742">
        <ele>370.2</ele>
        <time>2022-08-01T15:47:35Z</time>
      </trkpt>
      <trkpt lat="45.79101" lon="1.60748">
        <ele>370.1</ele>
        <time>2022-08-01T15:47:37Z</time>
      </trkpt>
      <trkpt lat="45.79106" lon="1.60753">
        <ele>369.8</ele>
        <time>2022-08-01T15:47:39Z</time>
      </trkpt>
      <trkpt lat="45.79111" lon="1.60759">
        <ele>369.5</ele>
        <time>2022-08-01T15:47:41Z</time>
      </trkpt>
      <trkpt lat="45.79116" lon="1.60766">
        <ele>369.1</ele>
        <time>2022-08-01T15:47:43Z</time>
      </trkpt>
      <trkpt lat="45.79122" lon="1.60772">
        <ele>368.8</ele>
        <time>2022-08-01T15:47:45Z</time>
      </trkpt>
      <trkpt lat="45.79127" lon="1.6078">
        <ele>368.4</ele>
        <time>2022-08-01T15:47:47Z</time>
      </trkpt>
      <trkpt lat="45.79133" lon="1.60787">
        <ele>368</ele>
        <time>2022-08-01T15:47:49Z</time>
      </trkpt>
      <trkpt lat="45.7914" lon="1.60795">
        <ele>367.7</ele>
        <time>2022-08-01T15:47:51Z</time>
      </trkpt>
      <trkpt lat="45.79146" lon="1.60804">
        <ele>367.3</ele>
        <time>2022-08-01T15:47:53Z</time>
      </trkpt>
      <trkpt lat="45.79153" lon="1.60813">
        <ele>366.9</ele>
        <time>2022-08-01T15:47:55Z</time>
      </trkpt>
      <trkpt lat="45.79161" lon="1.60823">
        <ele>366.5</ele>
        <time>2022-08-01T15:47:57Z</time>
      </trkpt>
      <trkpt lat="45.79168" lon="1.60832">
        <ele>366.1</ele>
        <time>2022-08-01T15:47:59Z</time>
      </trkpt>
      <trkpt lat="45.79177" lon="1.60842">
        <ele>366</ele>
        <time>2022-08-01T15:48:01Z</time>
      </trkpt>
      <trkpt lat="45.79185" lon="1.60853">
        <ele>365.8</ele>
        <time>2022-08-01T15:48:03Z</time>
      </trkpt>
      <trkpt lat="45.79193" lon="1.60863">
        <ele>365.8</ele>
        <time>2022-08-01T15:48:05Z</time>
      </trkpt>
      <trkpt lat="45.79202" lon="1.60874">
        <ele>365.7</ele>
        <time>2022-08-01T15:48:07Z</time>
      </trkpt>
      <trkpt lat="45.7921" lon="1.60887">
        <ele>365.6</ele>
        <time>2022-08-01T15:48:09Z</time>
      </trkpt>
      <trkpt lat="45.79216" lon="1.609">
        <ele>365.5</ele>
        <time>2022-08-01T15:48:11Z</time>
      </trkpt>
      <trkpt lat="45.79221" lon="1.60914">
        <ele>365.4</ele>
        <time>2022-08-01T15:48:13Z</time>
      </trkpt>
      <trkpt lat="45.79225" lon="1.60927">
        <ele>365.4</ele>
        <time>2022-08-01T15:48:15Z</time>
      </trkpt>
      <trkpt lat="45.79229" lon="1.60941">
        <ele>365.5</ele>
        <time>2022-08-01T15:48:17Z</time>
      </trkpt>
      <trkpt lat="45.79232" lon="1.60954">
        <ele>365.6</ele>
        <time>2022-08-01T15:48:19Z</time>
      </trkpt>
      <trkpt lat="45.79235" lon="1.60967">
        <ele>365.6</ele>
        <time>2022-08-01T15:48:21Z</time>
      </trkpt>
      <trkpt lat="45.79238" lon="1.60981">
        <ele>365.6</ele>
        <time>2022-08-01T15:48:23Z</time>
      </trkpt>
      <trkpt lat="45.79242" lon="1.60995">
        <ele>365.7</ele>
        <time>2022-08-01T15:48:25Z</time>
      </trkpt>
      <trkpt lat="45.79245" lon="1.6101">
        <ele>365.8</ele>
        <time>2022-08-01T15:48:27Z</time>
      </trkpt>
      <trkpt lat="45.79249" lon="1.61024">
        <ele>366</ele>
        <time>2022-08-01T15:48:29Z</time>
      </trkpt>
      <trkpt lat="45.79253" lon="1.61038">
        <ele>366.1</ele>
        <time>2022-08-01T15:48:31Z</time>
      </trkpt>
      <trkpt lat="45.79256" lon="1.61051">
        <ele>366.2</ele>
        <time>2022-08-01T15:48:33Z</time>
      </trkpt>
      <trkpt lat="45.79259" lon="1.61064">
        <ele>366.3</ele>
        <time>2022-08-01T15:48:35Z</time>
      </trkpt>
      <trkpt lat="45.79262" lon="1.61076">
        <ele>366.4</ele>
        <time>2022-08-01T15:48:37Z</time>
      </trkpt>
      <trkpt lat="45.79264" lon="1.61088">
        <ele>366.7</ele>
        <time>2022-08-01T15:48:39Z</time>
      </trkpt>
      <trkpt lat="45.79267" lon="1.61098">
        <ele>367.3</ele>
        <time>2022-08-01T15:48:41Z</time>
      </trkpt>
      <trkpt lat="45.79269" lon="1.61108">
        <ele>367.8</ele>
        <time>2022-08-01T15:48:43Z</time>
      </trkpt>
      <trkpt lat="45.79272" lon="1.61118">
        <ele>368.2</ele>
        <time>2022-08-01T15:48:45Z</time>
      </trkpt>
      <trkpt lat="45.79274" lon="1.61126">
        <ele>368.6</ele>
        <time>2022-08-01T15:48:47Z</time>
      </trkpt>
      <trkpt lat="45.79276" lon="1.61135">
        <ele>369</ele>
        <time>2022-08-01T15:48:49Z</time>
      </trkpt>
      <trkpt lat="45.79278" lon="1.61143">
        <ele>369.4</ele>
        <time>2022-08-01T15:48:51Z</time>
      </trkpt>
      <trkpt lat="45.7928" lon="1.6115">
        <ele>369.7</ele>
        <time>2022-08-01T15:48:53Z</time>
      </trkpt>
      <trkpt lat="45.79281" lon="1.61157">
        <ele>370</ele>
        <time>2022-08-01T15:48:55Z</time>
      </trkpt>
      <trkpt lat="45.79283" lon="1.61164">
        <ele>370.3</ele>
        <time>2022-08-01T15:48:57Z</time>
      </trkpt>
      <trkpt lat="45.79285" lon="1.6117">
        <ele>370.5</ele>
        <time>2022-08-01T15:48:59Z</time>
      </trkpt>
      <trkpt lat="45.79286" lon="1.61176">
        <ele>370.8</ele>
        <time>2022-08-01T15:49:01Z</time>
      </trkpt>
      <trkpt lat="45.79288" lon="1.61181">
        <ele>371</ele>
        <time>2022-08-01T15:49:03Z</time>
      </trkpt>
      <trkpt lat="45.79289" lon="1.61187">
        <ele>371.3</ele>
        <time>2022-08-01T15:49:05Z</time>
      </trkpt>
      <trkpt lat="45.79291" lon="1.61193">
        <ele>371.6</ele>
        <time>2022-08-01T15:49:07Z</time>
      </trkpt>
      <trkpt lat="45.79292" lon="1.61198">
        <ele>371.8</ele>
        <time>2022-08-01T15:49:09Z</time>
      </trkpt>
      <trkpt lat="45.79294" lon="1.61205">
        <ele>372.2</ele>
        <time>2022-08-01T15:49:11Z</time>
      </trkpt>
      <trkpt lat="45.79294" lon="1.6121">
        <ele>372.4</ele>
        <time>2022-08-01T15:49:13Z</time>
      </trkpt>
      <trkpt lat="45.79296" lon="1.61216">
        <ele>372.7</ele>
        <time>2022-08-01T15:49:15Z</time>
      </trkpt>
      <trkpt lat="45.79297" lon="1.61221">
        <ele>373</ele>
        <time>2022-08-01T15:49:17Z</time>
      </trkpt>
      <trkpt lat="45.79298" lon="1.61227">
        <ele>373.3</ele>
        <time>2022-08-01T15:49:19Z</time>
      </trkpt>
      <trkpt lat="45.793" lon="1.61232">
        <ele>373.6</ele>
        <time>2022-08-01T15:49:21Z</time>
      </trkpt>
      <trkpt lat="45.79302" lon="1.61237">
        <ele>373.9</ele>
        <time>2022-08-01T15:49:23Z</time>
      </trkpt>
      <trkpt lat="45.79303" lon="1.61243">
        <ele>374.2</ele>
        <time>2022-08-01T15:49:25Z</time>
      </trkpt>
      <trkpt lat="45.79305" lon="1.61248">
        <ele>374.5</ele>
        <time>2022-08-01T15:49:27Z</time>
      </trkpt>
      <trkpt lat="45.79305" lon="1.61254">
        <ele>374.7</ele>
        <time>2022-08-01T15:49:29Z</time>
      </trkpt>
      <trkpt lat="45.79307" lon="1.61259">
        <ele>374.8</ele>
        <time>2022-08-01T15:49:31Z</time>
      </trkpt>
      <trkpt lat="45.79309" lon="1.61264">
        <ele>375</ele>
        <time>2022-08-01T15:49:33Z</time>
      </trkpt>
      <trkpt lat="45.7931" lon="1.6127">
        <ele>375.1</ele>
        <time>2022-08-01T15:49:35Z</time>
      </trkpt>
      <trkpt lat="45.79312" lon="1.61276">
        <ele>375.3</ele>
        <time>2022-08-01T15:49:37Z</time>
      </trkpt>
      <trkpt lat="45.79313" lon="1.61282">
        <ele>375.4</ele>
        <time>2022-08-01T15:49:39Z</time>
      </trkpt>
      <trkpt lat="45.79314" lon="1.61289">
        <ele>375.5</ele>
        <time>2022-08-01T15:49:41Z</time>
      </trkpt>
      <trkpt lat="45.79316" lon="1.61295">
        <ele>375.7</ele>
        <time>2022-08-01T15:49:43Z</time>
      </trkpt>
      <trkpt lat="45.79318" lon="1.61303">
        <ele>375.9</ele>
        <time>2022-08-01T15:49:45Z</time>
      </trkpt>
      <trkpt lat="45.7932" lon="1.6131">
        <ele>376.1</ele>
        <time>2022-08-01T15:49:47Z</time>
      </trkpt>
      <trkpt lat="45.79322" lon="1.61318">
        <ele>376.3</ele>
        <time>2022-08-01T15:49:49Z</time>
      </trkpt>
      <trkpt lat="45.79324" lon="1.61326">
        <ele>376.4</ele>
        <time>2022-08-01T15:49:51Z</time>
      </trkpt>
      <trkpt lat="45.79325" lon="1.61334">
        <ele>376.6</ele>
        <time>2022-08-01T15:49:53Z</time>
      </trkpt>
      <trkpt lat="45.79328" lon="1.61342">
        <ele>376.6</ele>
        <time>2022-08-01T15:49:55Z</time>
      </trkpt>
      <trkpt lat="45.7933" lon="1.6135">
        <ele>376.4</ele>
        <time>2022-08-01T15:49:57Z</time>
      </trkpt>
      <trkpt lat="45.79332" lon="1.61359">
        <ele>376.3</ele>
        <time>2022-08-01T15:49:59Z</time>
      </trkpt>
      <trkpt lat="45.79334" lon="1.61368">
        <ele>376.2</ele>
        <time>2022-08-01T15:50:01Z</time>
      </trkpt>
      <trkpt lat="45.79336" lon="1.61377">
        <ele>376</ele>
        <time>2022-08-01T15:50:03Z</time>
      </trkpt>
      <trkpt lat="45.79338" lon="1.61388">
        <ele>375.8</ele>
        <time>2022-08-01T15:50:05Z</time>
      </trkpt>
      <trkpt lat="45.79341" lon="1.61398">
        <ele>375.6</ele>
        <time>2022-08-01T15:50:07Z</time>
      </trkpt>
      <trkpt lat="45.79343" lon="1.61409">
        <ele>375.3</ele>
        <time>2022-08-01T15:50:09Z</time>
      </trkpt>
      <trkpt lat="45.79346" lon="1.61419">
        <ele>375.2</ele>
        <time>2022-08-01T15:50:11Z</time>
      </trkpt>
      <trkpt lat="45.79348" lon="1.61429">
        <ele>375.3</ele>
        <time>2022-08-01T15:50:13Z</time>
      </trkpt>
      <trkpt lat="45.79351" lon="1.61439">
        <ele>375.5</ele>
        <time>2022-08-01T15:50:15Z</time>
      </trkpt>
      <trkpt lat="45.79353" lon="1.61449">
        <ele>375.6</ele>
        <time>2022-08-01T15:50:17Z</time>
      </trkpt>
      <trkpt lat="45.79355" lon="1.61457">
        <ele>375.8</ele>
        <time>2022-08-01T15:50:19Z</time>
      </trkpt>
      <trkpt lat="45.79358" lon="1.61465">
        <ele>375.9</ele>
        <time>2022-08-01T15:50:21Z</time>
      </trkpt>
      <trkpt lat="45.79359" lon="1.61473">
        <ele>376</ele>
        <time>2022-08-01T15:50:23Z</time>
      </trkpt>
      <trkpt lat="45.79361" lon="1.6148">
        <ele>376.1</ele>
        <time>2022-08-01T15:50:25Z</time>
      </trkpt>
      <trkpt lat="45.79363" lon="1.61486">
        <ele>376.2</ele>
        <time>2022-08-01T15:50:27Z</time>
      </trkpt>
      <trkpt lat="45.79365" lon="1.61493">
        <ele>376.3</ele>
        <time>2022-08-01T15:50:29Z</time>
      </trkpt>
      <trkpt lat="45.79367" lon="1.615">
        <ele>376.4</ele>
        <time>2022-08-01T15:50:31Z</time>
      </trkpt>
      <trkpt lat="45.79368" lon="1.61507">
        <ele>376.6</ele>
        <time>2022-08-01T15:50:33Z</time>
      </trkpt>
      <trkpt lat="45.7937" lon="1.61513">
        <ele>376.8</ele>
        <time>2022-08-01T15:50:35Z</time>
      </trkpt>
      <trkpt lat="45.79371" lon="1.6152">
        <ele>377</ele>
        <time>2022-08-01T15:50:37Z</time>
      </trkpt>
      <trkpt lat="45.79373" lon="1.61526">
        <ele>377.2</ele>
        <time>2022-08-01T15:50:39Z</time>
      </trkpt>
      <trkpt lat="45.79375" lon="1.61532">
        <ele>377.5</ele>
        <time>2022-08-01T15:50:41Z</time>
      </trkpt>
      <trkpt lat="45.79376" lon="1.61538">
        <ele>377.7</ele>
        <time>2022-08-01T15:50:43Z</time>
      </trkpt>
      <trkpt lat="45.79378" lon="1.61544">
        <ele>377.9</ele>
        <time>2022-08-01T15:50:45Z</time>
      </trkpt>
      <trkpt lat="45.79379" lon="1.6155">
        <ele>378.1</ele>
        <time>2022-08-01T15:50:47Z</time>
      </trkpt>
      <trkpt lat="45.79381" lon="1.61556">
        <ele>378.3</ele>
        <time>2022-08-01T15:50:49Z</time>
      </trkpt>
      <trkpt lat="45.79383" lon="1.61562">
        <ele>378.5</ele>
        <time>2022-08-01T15:50:51Z</time>
      </trkpt>
      <trkpt lat="45.79384" lon="1.61567">
        <ele>378.7</ele>
        <time>2022-08-01T15:50:53Z</time>
      </trkpt>
      <trkpt lat="45.79385" lon="1.61573">
        <ele>378.9</ele>
        <time>2022-08-01T15:50:55Z</time>
      </trkpt>
      <trkpt lat="45.79387" lon="1.6158">
        <ele>379.2</ele>
        <time>2022-08-01T15:50:57Z</time>
      </trkpt>
      <trkpt lat="45.79388" lon="1.61585">
        <ele>379.3</ele>
        <time>2022-08-01T15:50:59Z</time>
      </trkpt>
      <trkpt lat="45.7939" lon="1.61591">
        <ele>379.3</ele>
        <time>2022-08-01T15:51:01Z</time>
      </trkpt>
      <trkpt lat="45.79392" lon="1.61597">
        <ele>379.3</ele>
        <time>2022-08-01T15:51:03Z</time>
      </trkpt>
      <trkpt lat="45.79393" lon="1.61603">
        <ele>379.3</ele>
        <time>2022-08-01T15:51:05Z</time>
      </trkpt>
      <trkpt lat="45.79395" lon="1.61609">
        <ele>379.3</ele>
        <time>2022-08-01T15:51:07Z</time>
      </trkpt>
      <trkpt lat="45.79397" lon="1.61616">
        <ele>379.3</ele>
        <time>2022-08-01T15:51:09Z</time>
      </trkpt>
      <trkpt lat="45.79398" lon="1.61622">
        <ele>379.4</ele>
        <time>2022-08-01T15:51:11Z</time>
      </trkpt>
      <trkpt lat="45.794" lon="1.61629">
        <ele>379.4</ele>
        <time>2022-08-01T15:51:13Z</time>
      </trkpt>
      <trkpt lat="45.79402" lon="1.61635">
        <ele>379.4</ele>
        <time>2022-08-01T15:51:15Z</time>
      </trkpt>
      <trkpt lat="45.79403" lon="1.61642">
        <ele>379.5</ele>
        <time>2022-08-01T15:51:17Z</time>
      </trkpt>
      <trkpt lat="45.79405" lon="1.61649">
        <ele>379.5</ele>
        <time>2022-08-01T15:51:19Z</time>
      </trkpt>
      <trkpt lat="45.79407" lon="1.61657">
        <ele>379.6</ele>
        <time>2022-08-01T15:51:21Z</time>
      </trkpt>
      <trkpt lat="45.79409" lon="1.61664">
        <ele>379.6</ele>
        <time>2022-08-01T15:51:23Z</time>
      </trkpt>
      <trkpt lat="45.79411" lon="1.61672">
        <ele>379.7</ele>
        <time>2022-08-01T15:51:25Z</time>
      </trkpt>
      <trkpt lat="45.79413" lon="1.6168">
        <ele>379.8</ele>
        <time>2022-08-01T15:51:27Z</time>
      </trkpt>
      <trkpt lat="45.79415" lon="1.61688">
        <ele>379.9</ele>
        <time>2022-08-01T15:51:29Z</time>
      </trkpt>
      <trkpt lat="45.79417" lon="1.61697">
        <ele>380</ele>
        <time>2022-08-01T15:51:31Z</time>
      </trkpt>
      <trkpt lat="45.79419" lon="1.61706">
        <ele>380.1</ele>
        <time>2022-08-01T15:51:33Z</time>
      </trkpt>
      <trkpt lat="45.79422" lon="1.61716">
        <ele>380.2</ele>
        <time>2022-08-01T15:51:35Z</time>
      </trkpt>
      <trkpt lat="45.79425" lon="1.61726">
        <ele>380.2</ele>
        <time>2022-08-01T15:51:37Z</time>
      </trkpt>
      <trkpt lat="45.79427" lon="1.61737">
        <ele>380.3</ele>
        <time>2022-08-01T15:51:39Z</time>
      </trkpt>
      <trkpt lat="45.7943" lon="1.61748">
        <ele>380.3</ele>
        <time>2022-08-01T15:51:41Z</time>
      </trkpt>
      <trkpt lat="45.79433" lon="1.6176">
        <ele>380.1</ele>
        <time>2022-08-01T15:51:43Z</time>
      </trkpt>
      <trkpt lat="45.79437" lon="1.61772">
        <ele>379.9</ele>
        <time>2022-08-01T15:51:45Z</time>
      </trkpt>
      <trkpt lat="45.7944" lon="1.61785">
        <ele>379.6</ele>
        <time>2022-08-01T15:51:47Z</time>
      </trkpt>
      <trkpt lat="45.79444" lon="1.61798">
        <ele>379.3</ele>
        <time>2022-08-01T15:51:49Z</time>
      </trkpt>
      <trkpt lat="45.79446" lon="1.61811">
        <ele>379</ele>
        <time>2022-08-01T15:51:51Z</time>
      </trkpt>
      <trkpt lat="45.79449" lon="1.61824">
        <ele>378.7</ele>
        <time>2022-08-01T15:51:53Z</time>
      </trkpt>
      <trkpt lat="45.79453" lon="1.61837">
        <ele>378.5</ele>
        <time>2022-08-01T15:51:55Z</time>
      </trkpt>
      <trkpt lat="45.79456" lon="1.61849">
        <ele>378.8</ele>
        <time>2022-08-01T15:51:57Z</time>
      </trkpt>
      <trkpt lat="45.79459" lon="1.61861">
        <ele>379</ele>
        <time>2022-08-01T15:51:59Z</time>
      </trkpt>
      <trkpt lat="45.79462" lon="1.61873">
        <ele>379.2</ele>
        <time>2022-08-01T15:52:01Z</time>
      </trkpt>
      <trkpt lat="45.79465" lon="1.61885">
        <ele>379.5</ele>
        <time>2022-08-01T15:52:03Z</time>
      </trkpt>
      <trkpt lat="45.79468" lon="1.61896">
        <ele>379.7</ele>
        <time>2022-08-01T15:52:05Z</time>
      </trkpt>
      <trkpt lat="45.7947" lon="1.61907">
        <ele>379.8</ele>
        <time>2022-08-01T15:52:07Z</time>
      </trkpt>
      <trkpt lat="45.79473" lon="1.61917">
        <ele>380</ele>
        <time>2022-08-01T15:52:09Z</time>
      </trkpt>
      <trkpt lat="45.79475" lon="1.61928">
        <ele>380.2</ele>
        <time>2022-08-01T15:52:11Z</time>
      </trkpt>
      <trkpt lat="45.79478" lon="1.61938">
        <ele>380.3</ele>
        <time>2022-08-01T15:52:13Z</time>
      </trkpt>
      <trkpt lat="45.7948" lon="1.61947">
        <ele>380.5</ele>
        <time>2022-08-01T15:52:15Z</time>
      </trkpt>
      <trkpt lat="45.79483" lon="1.61957">
        <ele>380.6</ele>
        <time>2022-08-01T15:52:17Z</time>
      </trkpt>
      <trkpt lat="45.79485" lon="1.61967">
        <ele>380.7</ele>
        <time>2022-08-01T15:52:19Z</time>
      </trkpt>
      <trkpt lat="45.79488" lon="1.61976">
        <ele>380.8</ele>
        <time>2022-08-01T15:52:21Z</time>
      </trkpt>
      <trkpt lat="45.7949" lon="1.61985">
        <ele>380.9</ele>
        <time>2022-08-01T15:52:23Z</time>
      </trkpt>
      <trkpt lat="45.79492" lon="1.61994">
        <ele>381</ele>
        <time>2022-08-01T15:52:25Z</time>
      </trkpt>
      <trkpt lat="45.79494" lon="1.62003">
        <ele>381.2</ele>
        <time>2022-08-01T15:52:27Z</time>
      </trkpt>
      <trkpt lat="45.79496" lon="1.62012">
        <ele>381.5</ele>
        <time>2022-08-01T15:52:29Z</time>
      </trkpt>
      <trkpt lat="45.79498" lon="1.6202">
        <ele>381.7</ele>
        <time>2022-08-01T15:52:31Z</time>
      </trkpt>
      <trkpt lat="45.79501" lon="1.62028">
        <ele>382</ele>
        <time>2022-08-01T15:52:33Z</time>
      </trkpt>
      <trkpt lat="45.79503" lon="1.62037">
        <ele>382.3</ele>
        <time>2022-08-01T15:52:35Z</time>
      </trkpt>
      <trkpt lat="45.79505" lon="1.62044">
        <ele>382.5</ele>
        <time>2022-08-01T15:52:37Z</time>
      </trkpt>
      <trkpt lat="45.79507" lon="1.62052">
        <ele>382.8</ele>
        <time>2022-08-01T15:52:39Z</time>
      </trkpt>
      <trkpt lat="45.79509" lon="1.62059">
        <ele>383</ele>
        <time>2022-08-01T15:52:41Z</time>
      </trkpt>
      <trkpt lat="45.79511" lon="1.62067">
        <ele>383.3</ele>
        <time>2022-08-01T15:52:43Z</time>
      </trkpt>
      <trkpt lat="45.79512" lon="1.62075">
        <ele>383.5</ele>
        <time>2022-08-01T15:52:45Z</time>
      </trkpt>
      <trkpt lat="45.79514" lon="1.62083">
        <ele>383.8</ele>
        <time>2022-08-01T15:52:47Z</time>
      </trkpt>
      <trkpt lat="45.79517" lon="1.62091">
        <ele>383.9</ele>
        <time>2022-08-01T15:52:49Z</time>
      </trkpt>
      <trkpt lat="45.79519" lon="1.62099">
        <ele>383.9</ele>
        <time>2022-08-01T15:52:51Z</time>
      </trkpt>
      <trkpt lat="45.7952" lon="1.62106">
        <ele>384</ele>
        <time>2022-08-01T15:52:53Z</time>
      </trkpt>
      <trkpt lat="45.79522" lon="1.62114">
        <ele>384</ele>
        <time>2022-08-01T15:52:55Z</time>
      </trkpt>
      <trkpt lat="45.79524" lon="1.62121">
        <ele>384</ele>
        <time>2022-08-01T15:52:57Z</time>
      </trkpt>
      <trkpt lat="45.79526" lon="1.62129">
        <ele>384.1</ele>
        <time>2022-08-01T15:52:59Z</time>
      </trkpt>
      <trkpt lat="45.79528" lon="1.62136">
        <ele>384.1</ele>
        <time>2022-08-01T15:53:01Z</time>
      </trkpt>
      <trkpt lat="45.7953" lon="1.62143">
        <ele>384.1</ele>
        <time>2022-08-01T15:53:03Z</time>
      </trkpt>
      <trkpt lat="45.79532" lon="1.62149">
        <ele>384.1</ele>
        <time>2022-08-01T15:53:05Z</time>
      </trkpt>
      <trkpt lat="45.79533" lon="1.62156">
        <ele>384.1</ele>
        <time>2022-08-01T15:53:07Z</time>
      </trkpt>
      <trkpt lat="45.79535" lon="1.62163">
        <ele>384.1</ele>
        <time>2022-08-01T15:53:09Z</time>
      </trkpt>
      <trkpt lat="45.79537" lon="1.6217">
        <ele>384.1</ele>
        <time>2022-08-01T15:53:11Z</time>
      </trkpt>
      <trkpt lat="45.79539" lon="1.62176">
        <ele>384</ele>
        <time>2022-08-01T15:53:13Z</time>
      </trkpt>
      <trkpt lat="45.79541" lon="1.62183">
        <ele>383.8</ele>
        <time>2022-08-01T15:53:15Z</time>
      </trkpt>
      <trkpt lat="45.79542" lon="1.6219">
        <ele>383.7</ele>
        <time>2022-08-01T15:53:17Z</time>
      </trkpt>
      <trkpt lat="45.79544" lon="1.62197">
        <ele>383.6</ele>
        <time>2022-08-01T15:53:19Z</time>
      </trkpt>
      <trkpt lat="45.79545" lon="1.62204">
        <ele>383.5</ele>
        <time>2022-08-01T15:53:21Z</time>
      </trkpt>
      <trkpt lat="45.79546" lon="1.6221">
        <ele>383.4</ele>
        <time>2022-08-01T15:53:23Z</time>
      </trkpt>
      <trkpt lat="45.79548" lon="1.62214">
        <ele>383.3</ele>
        <time>2022-08-01T15:53:25Z</time>
      </trkpt>
      <trkpt lat="45.79548" lon="1.62218">
        <ele>383.2</ele>
        <time>2022-08-01T15:53:27Z</time>
      </trkpt>
      <trkpt lat="45.79551" lon="1.62218">
        <ele>383.2</ele>
        <time>2022-08-01T15:53:29Z</time>
      </trkpt>
      <trkpt lat="45.79553" lon="1.62214">
        <ele>383.2</ele>
        <time>2022-08-01T15:53:31Z</time>
      </trkpt>
      <trkpt lat="45.79552" lon="1.62209">
        <ele>383.2</ele>
        <time>2022-08-01T15:53:33Z</time>
      </trkpt>
      <trkpt lat="45.7955" lon="1.62205">
        <ele>383.3</ele>
        <time>2022-08-01T15:53:35Z</time>
      </trkpt>
      <trkpt lat="45.7955" lon="1.62206">
        <ele>383.3</ele>
        <time>2022-08-01T15:53:37Z</time>
      </trkpt>
      <trkpt lat="45.7955" lon="1.62206">
        <ele>383.3</ele>
        <time>2022-08-01T15:53:39Z</time>
      </trkpt>
      <trkpt lat="45.79549" lon="1.62205">
        <ele>383.4</ele>
        <time>2022-08-01T15:53:41Z</time>
      </trkpt>
      <trkpt lat="45.79547" lon="1.62203">
        <ele>383.4</ele>
        <time>2022-08-01T15:53:43Z</time>
      </trkpt>
      <trkpt lat="45.79543" lon="1.62205">
        <ele>383.5</ele>
        <time>2022-08-01T15:53:45Z</time>
      </trkpt>
      <trkpt lat="45.79544" lon="1.62212">
        <ele>383.4</ele>
        <time>2022-08-01T15:53:47Z</time>
      </trkpt>
      <trkpt lat="45.79546" lon="1.62217">
        <ele>383.3</ele>
        <time>2022-08-01T15:53:49Z</time>
      </trkpt>
      <trkpt lat="45.79548" lon="1.62223">
        <ele>383.2</ele>
        <time>2022-08-01T15:53:51Z</time>
      </trkpt>
      <trkpt lat="45.79549" lon="1.62231">
        <ele>383.1</ele>
        <time>2022-08-01T15:53:53Z</time>
      </trkpt>
      <trkpt lat="45.79551" lon="1.6224">
        <ele>382.9</ele>
        <time>2022-08-01T15:53:55Z</time>
      </trkpt>
      <trkpt lat="45.79552" lon="1.6225">
        <ele>382.7</ele>
        <time>2022-08-01T15:53:57Z</time>
      </trkpt>
      <trkpt lat="45.79554" lon="1.62261">
        <ele>382.4</ele>
        <time>2022-08-01T15:53:59Z</time>
      </trkpt>
      <trkpt lat="45.79556" lon="1.62273">
        <ele>382.1</ele>
        <time>2022-08-01T15:54:01Z</time>
      </trkpt>
      <trkpt lat="45.79557" lon="1.62288">
        <ele>381.7</ele>
        <time>2022-08-01T15:54:03Z</time>
      </trkpt>
      <trkpt lat="45.79558" lon="1.62303">
        <ele>381.3</ele>
        <time>2022-08-01T15:54:05Z</time>
      </trkpt>
      <trkpt lat="45.7956" lon="1.62321">
        <ele>380.9</ele>
        <time>2022-08-01T15:54:07Z</time>
      </trkpt>
      <trkpt lat="45.7956" lon="1.6234">
        <ele>380.3</ele>
        <time>2022-08-01T15:54:09Z</time>
      </trkpt>
      <trkpt lat="45.79561" lon="1.62361">
        <ele>379.6</ele>
        <time>2022-08-01T15:54:11Z</time>
      </trkpt>
      <trkpt lat="45.79562" lon="1.62385">
        <ele>378.8</ele>
        <time>2022-08-01T15:54:13Z</time>
      </trkpt>
      <trkpt lat="45.79563" lon="1.6241">
        <ele>378</ele>
        <time>2022-08-01T15:54:15Z</time>
      </trkpt>
      <trkpt lat="45.79564" lon="1.62437">
        <ele>377.6</ele>
        <time>2022-08-01T15:54:17Z</time>
      </trkpt>
      <trkpt lat="45.79564" lon="1.62466">
        <ele>377.4</ele>
        <time>2022-08-01T15:54:19Z</time>
      </trkpt>
      <trkpt lat="45.79566" lon="1.62494">
        <ele>377.3</ele>
        <time>2022-08-01T15:54:21Z</time>
      </trkpt>
      <trkpt lat="45.79566" lon="1.62519">
        <ele>378.1</ele>
        <time>2022-08-01T15:54:23Z</time>
      </trkpt>
      <trkpt lat="45.79567" lon="1.62542">
        <ele>379.1</ele>
        <time>2022-08-01T15:54:25Z</time>
      </trkpt>
      <trkpt lat="45.79568" lon="1.62561">
        <ele>380</ele>
        <time>2022-08-01T15:54:27Z</time>
      </trkpt>
      <trkpt lat="45.79568" lon="1.62578">
        <ele>380.7</ele>
        <time>2022-08-01T15:54:29Z</time>
      </trkpt>
      <trkpt lat="45.79569" lon="1.62591">
        <ele>381.3</ele>
        <time>2022-08-01T15:54:31Z</time>
      </trkpt>
      <trkpt lat="45.79572" lon="1.62603">
        <ele>381.7</ele>
        <time>2022-08-01T15:54:33Z</time>
      </trkpt>
      <trkpt lat="45.79572" lon="1.62613">
        <ele>382</ele>
        <time>2022-08-01T15:54:35Z</time>
      </trkpt>
      <trkpt lat="45.79572" lon="1.62622">
        <ele>382.3</ele>
        <time>2022-08-01T15:54:37Z</time>
      </trkpt>
      <trkpt lat="45.79573" lon="1.6263">
        <ele>382.6</ele>
        <time>2022-08-01T15:54:39Z</time>
      </trkpt>
      <trkpt lat="45.79574" lon="1.62635">
        <ele>382.8</ele>
        <time>2022-08-01T15:54:41Z</time>
      </trkpt>
      <trkpt lat="45.79575" lon="1.6264">
        <ele>383</ele>
        <time>2022-08-01T15:54:43Z</time>
      </trkpt>
      <trkpt lat="45.79575" lon="1.62646">
        <ele>383.2</ele>
        <time>2022-08-01T15:54:45Z</time>
      </trkpt>
      <trkpt lat="45.79574" lon="1.62653">
        <ele>383.4</ele>
        <time>2022-08-01T15:54:47Z</time>
      </trkpt>
      <trkpt lat="45.79572" lon="1.62658">
        <ele>383.5</ele>
        <time>2022-08-01T15:54:49Z</time>
      </trkpt>
      <trkpt lat="45.79568" lon="1.62662">
        <ele>383.7</ele>
        <time>2022-08-01T15:54:51Z</time>
      </trkpt>
      <trkpt lat="45.79564" lon="1.62666">
        <ele>383.7</ele>
        <time>2022-08-01T15:54:53Z</time>
      </trkpt>
      <trkpt lat="45.79562" lon="1.62668">
        <ele>383.8</ele>
        <time>2022-08-01T15:54:55Z</time>
      </trkpt>
      <trkpt lat="45.79561" lon="1.62673">
        <ele>383.9</ele>
        <time>2022-08-01T15:54:57Z</time>
      </trkpt>
      <trkpt lat="45.7956" lon="1.62679">
        <ele>384</ele>
        <time>2022-08-01T15:54:59Z</time>
      </trkpt>
      <trkpt lat="45.79559" lon="1.62684">
        <ele>384.1</ele>
        <time>2022-08-01T15:55:01Z</time>
      </trkpt>
      <trkpt lat="45.79558" lon="1.62688">
        <ele>384.2</ele>
        <time>2022-08-01T15:55:03Z</time>
      </trkpt>
      <trkpt lat="45.79558" lon="1.62694">
        <ele>384.3</ele>
        <time>2022-08-01T15:55:05Z</time>
      </trkpt>
      <trkpt lat="45.79557" lon="1.62697">
        <ele>384.4</ele>
        <time>2022-08-01T15:55:07Z</time>
      </trkpt>
      <trkpt lat="45.79555" lon="1.62701">
        <ele>384.5</ele>
        <time>2022-08-01T15:55:09Z</time>
      </trkpt>
      <trkpt lat="45.79556" lon="1.62705">
        <ele>384.6</ele>
        <time>2022-08-01T15:55:11Z</time>
      </trkpt>
      <trkpt lat="45.79556" lon="1.6271">
        <ele>384.7</ele>
        <time>2022-08-01T15:55:13Z</time>
      </trkpt>
      <trkpt lat="45.79554" lon="1.62714">
        <ele>384.8</ele>
        <time>2022-08-01T15:55:15Z</time>
      </trkpt>
      <trkpt lat="45.79552" lon="1.62718">
        <ele>384.9</ele>
        <time>2022-08-01T15:55:17Z</time>
      </trkpt>
      <trkpt lat="45.79552" lon="1.62723">
        <ele>385</ele>
        <time>2022-08-01T15:55:19Z</time>
      </trkpt>
      <trkpt lat="45.7955" lon="1.62727">
        <ele>385.1</ele>
        <time>2022-08-01T15:55:21Z</time>
      </trkpt>
      <trkpt lat="45.79549" lon="1.62732">
        <ele>385.2</ele>
        <time>2022-08-01T15:55:23Z</time>
      </trkpt>
      <trkpt lat="45.79549" lon="1.62736">
        <ele>385.2</ele>
        <time>2022-08-01T15:55:25Z</time>
      </trkpt>
      <trkpt lat="45.79548" lon="1.62741">
        <ele>385.3</ele>
        <time>2022-08-01T15:55:27Z</time>
      </trkpt>
      <trkpt lat="45.79547" lon="1.62745">
        <ele>385.5</ele>
        <time>2022-08-01T15:55:29Z</time>
      </trkpt>
      <trkpt lat="45.79546" lon="1.6275">
        <ele>385.5</ele>
        <time>2022-08-01T15:55:31Z</time>
      </trkpt>
      <trkpt lat="45.79545" lon="1.62754">
        <ele>385.6</ele>
        <time>2022-08-01T15:55:33Z</time>
      </trkpt>
      <trkpt lat="45.79545" lon="1.62759">
        <ele>385.6</ele>
        <time>2022-08-01T15:55:35Z</time>
      </trkpt>
      <trkpt lat="45.79544" lon="1.62763">
        <ele>385.7</ele>
        <time>2022-08-01T15:55:37Z</time>
      </trkpt>
      <trkpt lat="45.79544" lon="1.62766">
        <ele>385.7</ele>
        <time>2022-08-01T15:55:39Z</time>
      </trkpt>
      <trkpt lat="45.79546" lon="1.62769">
        <ele>385.8</ele>
        <time>2022-08-01T15:55:41Z</time>
      </trkpt>
      <trkpt lat="45.79546" lon="1.6277">
        <ele>385.8</ele>
        <time>2022-08-01T15:55:43Z</time>
      </trkpt>
      <trkpt lat="45.79547" lon="1.62769">
        <ele>385.8</ele>
        <time>2022-08-01T15:55:45Z</time>
      </trkpt>
      <trkpt lat="45.79547" lon="1.6277">
        <ele>385.8</ele>
        <time>2022-08-01T15:55:47Z</time>
      </trkpt>
      <trkpt lat="45.79547" lon="1.62769">
        <ele>385.8</ele>
        <time>2022-08-01T15:55:49Z</time>
      </trkpt>
      <trkpt lat="45.79558" lon="1.62772">
        <ele>386</ele>
        <time>2022-08-01T16:39:24Z</time>
      </trkpt>
      <trkpt lat="45.7955" lon="1.62764">
        <ele>385.8</ele>
        <time>2022-08-01T16:39:25Z</time>
      </trkpt>
      <trkpt lat="45.79565" lon="1.62774">
        <ele>386.1</ele>
        <time>2022-08-01T16:40:56Z</time>
      </trkpt>
      <trkpt lat="45.79569" lon="1.6278">
        <ele>386.2</ele>
        <time>2022-08-01T16:40:58Z</time>
      </trkpt>
      <trkpt lat="45.79573" lon="1.62785">
        <ele>386.3</ele>
        <time>2022-08-01T16:41:00Z</time>
      </trkpt>
      <trkpt lat="45.79576" lon="1.62789">
        <ele>386.4</ele>
        <time>2022-08-01T16:41:02Z</time>
      </trkpt>
      <trkpt lat="45.79578" lon="1.62791">
        <ele>386.4</ele>
        <time>2022-08-01T16:41:04Z</time>
      </trkpt>
      <trkpt lat="45.7958" lon="1.62795">
        <ele>386.5</ele>
        <time>2022-08-01T16:41:06Z</time>
      </trkpt>
      <trkpt lat="45.7958" lon="1.628">
        <ele>386.6</ele>
        <time>2022-08-01T16:41:08Z</time>
      </trkpt>
      <trkpt lat="45.7958" lon="1.62806">
        <ele>386.6</ele>
        <time>2022-08-01T16:41:10Z</time>
      </trkpt>
      <trkpt lat="45.79582" lon="1.62811">
        <ele>386.7</ele>
        <time>2022-08-01T16:41:12Z</time>
      </trkpt>
      <trkpt lat="45.79585" lon="1.62814">
        <ele>386.8</ele>
        <time>2022-08-01T16:41:14Z</time>
      </trkpt>
      <trkpt lat="45.79589" lon="1.62814">
        <ele>386.8</ele>
        <time>2022-08-01T16:41:16Z</time>
      </trkpt>
      <trkpt lat="45.79594" lon="1.62814">
        <ele>386.8</ele>
        <time>2022-08-01T16:41:18Z</time>
      </trkpt>
      <trkpt lat="45.796" lon="1.62815">
        <ele>386.9</ele>
        <time>2022-08-01T16:41:20Z</time>
      </trkpt>
      <trkpt lat="45.79607" lon="1.62814">
        <ele>386.9</ele>
        <time>2022-08-01T16:41:22Z</time>
      </trkpt>
      <trkpt lat="45.79613" lon="1.62814">
        <ele>387</ele>
        <time>2022-08-01T16:41:24Z</time>
      </trkpt>
      <trkpt lat="45.79619" lon="1.62814">
        <ele>387</ele>
        <time>2022-08-01T16:41:26Z</time>
      </trkpt>
      <trkpt lat="45.79626" lon="1.62812">
        <ele>387</ele>
        <time>2022-08-01T16:41:28Z</time>
      </trkpt>
      <trkpt lat="45.79633" lon="1.62813">
        <ele>387.1</ele>
        <time>2022-08-01T16:41:30Z</time>
      </trkpt>
      <trkpt lat="45.79641" lon="1.62813">
        <ele>387.1</ele>
        <time>2022-08-01T16:41:32Z</time>
      </trkpt>
      <trkpt lat="45.7965" lon="1.62816">
        <ele>387.3</ele>
        <time>2022-08-01T16:41:34Z</time>
      </trkpt>
      <trkpt lat="45.79657" lon="1.62818">
        <ele>387.4</ele>
        <time>2022-08-01T16:41:36Z</time>
      </trkpt>
      <trkpt lat="45.79666" lon="1.62817">
        <ele>387.4</ele>
        <time>2022-08-01T16:41:38Z</time>
      </trkpt>
      <trkpt lat="45.79675" lon="1.62818">
        <ele>387.3</ele>
        <time>2022-08-01T16:41:40Z</time>
      </trkpt>
      <trkpt lat="45.79684" lon="1.6282">
        <ele>387.3</ele>
        <time>2022-08-01T16:41:42Z</time>
      </trkpt>
      <trkpt lat="45.79693" lon="1.6282">
        <ele>387.2</ele>
        <time>2022-08-01T16:41:44Z</time>
      </trkpt>
      <trkpt lat="45.797" lon="1.62821">
        <ele>387.1</ele>
        <time>2022-08-01T16:41:46Z</time>
      </trkpt>
      <trkpt lat="45.79708" lon="1.62821">
        <ele>387</ele>
        <time>2022-08-01T16:41:48Z</time>
      </trkpt>
      <trkpt lat="45.79716" lon="1.62821">
        <ele>386.9</ele>
        <time>2022-08-01T16:41:50Z</time>
      </trkpt>
      <trkpt lat="45.79725" lon="1.62822">
        <ele>386.8</ele>
        <time>2022-08-01T16:41:52Z</time>
      </trkpt>
      <trkpt lat="45.79734" lon="1.62823">
        <ele>386.7</ele>
        <time>2022-08-01T16:41:54Z</time>
      </trkpt>
      <trkpt lat="45.79742" lon="1.62824">
        <ele>386.6</ele>
        <time>2022-08-01T16:41:56Z</time>
      </trkpt>
      <trkpt lat="45.79751" lon="1.62825">
        <ele>386.5</ele>
        <time>2022-08-01T16:41:58Z</time>
      </trkpt>
      <trkpt lat="45.79759" lon="1.62825">
        <ele>386.2</ele>
        <time>2022-08-01T16:42:00Z</time>
      </trkpt>
      <trkpt lat="45.79767" lon="1.62825">
        <ele>385.8</ele>
        <time>2022-08-01T16:42:02Z</time>
      </trkpt>
      <trkpt lat="45.79776" lon="1.62824">
        <ele>385.4</ele>
        <time>2022-08-01T16:42:04Z</time>
      </trkpt>
      <trkpt lat="45.79786" lon="1.62826">
        <ele>385</ele>
        <time>2022-08-01T16:42:06Z</time>
      </trkpt>
      <trkpt lat="45.79795" lon="1.62826">
        <ele>384.6</ele>
        <time>2022-08-01T16:42:08Z</time>
      </trkpt>
      <trkpt lat="45.79804" lon="1.62828">
        <ele>384.3</ele>
        <time>2022-08-01T16:42:10Z</time>
      </trkpt>
      <trkpt lat="45.79815" lon="1.62831">
        <ele>383.8</ele>
        <time>2022-08-01T16:42:12Z</time>
      </trkpt>
      <trkpt lat="45.79826" lon="1.62834">
        <ele>383.4</ele>
        <time>2022-08-01T16:42:14Z</time>
      </trkpt>
      <trkpt lat="45.79837" lon="1.62837">
        <ele>383</ele>
        <time>2022-08-01T16:42:16Z</time>
      </trkpt>
      <trkpt lat="45.79848" lon="1.62841">
        <ele>382.6</ele>
        <time>2022-08-01T16:42:18Z</time>
      </trkpt>
      <trkpt lat="45.79859" lon="1.62845">
        <ele>382.3</ele>
        <time>2022-08-01T16:42:20Z</time>
      </trkpt>
      <trkpt lat="45.79869" lon="1.62849">
        <ele>382</ele>
        <time>2022-08-01T16:42:22Z</time>
      </trkpt>
      <trkpt lat="45.79879" lon="1.62855">
        <ele>381.9</ele>
        <time>2022-08-01T16:42:24Z</time>
      </trkpt>
      <trkpt lat="45.79891" lon="1.62859">
        <ele>381.6</ele>
        <time>2022-08-01T16:42:26Z</time>
      </trkpt>
      <trkpt lat="45.79903" lon="1.62864">
        <ele>381.4</ele>
        <time>2022-08-01T16:42:28Z</time>
      </trkpt>
      <trkpt lat="45.79915" lon="1.62866">
        <ele>381</ele>
        <time>2022-08-01T16:42:30Z</time>
      </trkpt>
      <trkpt lat="45.79926" lon="1.62865">
        <ele>380.3</ele>
        <time>2022-08-01T16:42:32Z</time>
      </trkpt>
      <trkpt lat="45.79937" lon="1.62862">
        <ele>379.5</ele>
        <time>2022-08-01T16:42:34Z</time>
      </trkpt>
      <trkpt lat="45.79948" lon="1.62857">
        <ele>378.5</ele>
        <time>2022-08-01T16:42:36Z</time>
      </trkpt>
      <trkpt lat="45.7996" lon="1.6285">
        <ele>377.4</ele>
        <time>2022-08-01T16:42:38Z</time>
      </trkpt>
      <trkpt lat="45.79972" lon="1.62844">
        <ele>376.3</ele>
        <time>2022-08-01T16:42:40Z</time>
      </trkpt>
      <trkpt lat="45.79985" lon="1.62838">
        <ele>375.2</ele>
        <time>2022-08-01T16:42:42Z</time>
      </trkpt>
      <trkpt lat="45.79998" lon="1.62836">
        <ele>374.3</ele>
        <time>2022-08-01T16:42:44Z</time>
      </trkpt>
      <trkpt lat="45.80011" lon="1.62838">
        <ele>373.6</ele>
        <time>2022-08-01T16:42:46Z</time>
      </trkpt>
      <trkpt lat="45.80024" lon="1.62844">
        <ele>372.9</ele>
        <time>2022-08-01T16:42:48Z</time>
      </trkpt>
      <trkpt lat="45.80036" lon="1.62852">
        <ele>372.2</ele>
        <time>2022-08-01T16:42:50Z</time>
      </trkpt>
      <trkpt lat="45.80048" lon="1.62863">
        <ele>371.5</ele>
        <time>2022-08-01T16:42:52Z</time>
      </trkpt>
      <trkpt lat="45.80056" lon="1.62879">
        <ele>370.8</ele>
        <time>2022-08-01T16:42:54Z</time>
      </trkpt>
      <trkpt lat="45.80062" lon="1.62897">
        <ele>370.2</ele>
        <time>2022-08-01T16:42:56Z</time>
      </trkpt>
      <trkpt lat="45.80063" lon="1.62917">
        <ele>369.9</ele>
        <time>2022-08-01T16:42:58Z</time>
      </trkpt>
      <trkpt lat="45.80059" lon="1.62936">
        <ele>371</ele>
        <time>2022-08-01T16:43:00Z</time>
      </trkpt>
      <trkpt lat="45.80054" lon="1.62954">
        <ele>372.2</ele>
        <time>2022-08-01T16:43:02Z</time>
      </trkpt>
      <trkpt lat="45.80052" lon="1.62972">
        <ele>373.1</ele>
        <time>2022-08-01T16:43:04Z</time>
      </trkpt>
      <trkpt lat="45.80053" lon="1.62991">
        <ele>373.3</ele>
        <time>2022-08-01T16:43:06Z</time>
      </trkpt>
      <trkpt lat="45.80058" lon="1.63008">
        <ele>373.1</ele>
        <time>2022-08-01T16:43:08Z</time>
      </trkpt>
      <trkpt lat="45.80067" lon="1.63023">
        <ele>372.4</ele>
        <time>2022-08-01T16:43:10Z</time>
      </trkpt>
      <trkpt lat="45.80077" lon="1.63039">
        <ele>371.5</ele>
        <time>2022-08-01T16:43:12Z</time>
      </trkpt>
      <trkpt lat="45.80087" lon="1.63054">
        <ele>370.8</ele>
        <time>2022-08-01T16:43:14Z</time>
      </trkpt>
      <trkpt lat="45.80097" lon="1.63071">
        <ele>370.3</ele>
        <time>2022-08-01T16:43:16Z</time>
      </trkpt>
      <trkpt lat="45.80109" lon="1.63088">
        <ele>369.3</ele>
        <time>2022-08-01T16:43:18Z</time>
      </trkpt>
      <trkpt lat="45.80119" lon="1.63105">
        <ele>367.9</ele>
        <time>2022-08-01T16:43:20Z</time>
      </trkpt>
      <trkpt lat="45.80127" lon="1.63126">
        <ele>367.1</ele>
        <time>2022-08-01T16:43:22Z</time>
      </trkpt>
      <trkpt lat="45.80133" lon="1.6315">
        <ele>366.9</ele>
        <time>2022-08-01T16:43:24Z</time>
      </trkpt>
      <trkpt lat="45.80136" lon="1.63174">
        <ele>367.3</ele>
        <time>2022-08-01T16:43:26Z</time>
      </trkpt>
      <trkpt lat="45.80141" lon="1.63197">
        <ele>368.1</ele>
        <time>2022-08-01T16:43:28Z</time>
      </trkpt>
      <trkpt lat="45.80147" lon="1.6322">
        <ele>368.4</ele>
        <time>2022-08-01T16:43:30Z</time>
      </trkpt>
      <trkpt lat="45.80156" lon="1.63238">
        <ele>368.1</ele>
        <time>2022-08-01T16:43:32Z</time>
      </trkpt>
      <trkpt lat="45.80171" lon="1.6325">
        <ele>366.8</ele>
        <time>2022-08-01T16:43:34Z</time>
      </trkpt>
      <trkpt lat="45.80187" lon="1.63255">
        <ele>366.8</ele>
        <time>2022-08-01T16:43:36Z</time>
      </trkpt>
      <trkpt lat="45.80205" lon="1.63252">
        <ele>365.8</ele>
        <time>2022-08-01T16:43:38Z</time>
      </trkpt>
      <trkpt lat="45.80221" lon="1.63243">
        <ele>364.1</ele>
        <time>2022-08-01T16:43:40Z</time>
      </trkpt>
      <trkpt lat="45.80238" lon="1.63233">
        <ele>361.8</ele>
        <time>2022-08-01T16:43:42Z</time>
      </trkpt>
      <trkpt lat="45.80255" lon="1.63224">
        <ele>359.1</ele>
        <time>2022-08-01T16:43:44Z</time>
      </trkpt>
      <trkpt lat="45.80269" lon="1.63219">
        <ele>356.6</ele>
        <time>2022-08-01T16:43:46Z</time>
      </trkpt>
      <trkpt lat="45.80286" lon="1.6322">
        <ele>354.8</ele>
        <time>2022-08-01T16:43:48Z</time>
      </trkpt>
      <trkpt lat="45.80303" lon="1.63225">
        <ele>353.6</ele>
        <time>2022-08-01T16:43:50Z</time>
      </trkpt>
      <trkpt lat="45.80318" lon="1.63234">
        <ele>353.3</ele>
        <time>2022-08-01T16:43:52Z</time>
      </trkpt>
      <trkpt lat="45.80333" lon="1.63246">
        <ele>353.4</ele>
        <time>2022-08-01T16:43:54Z</time>
      </trkpt>
      <trkpt lat="45.80345" lon="1.63262">
        <ele>352.2</ele>
        <time>2022-08-01T16:43:56Z</time>
      </trkpt>
      <trkpt lat="45.80355" lon="1.6328">
        <ele>352.1</ele>
        <time>2022-08-01T16:43:58Z</time>
      </trkpt>
      <trkpt lat="45.80363" lon="1.633">
        <ele>352.8</ele>
        <time>2022-08-01T16:44:00Z</time>
      </trkpt>
      <trkpt lat="45.80368" lon="1.63323">
        <ele>354.8</ele>
        <time>2022-08-01T16:44:02Z</time>
      </trkpt>
      <trkpt lat="45.8037" lon="1.63348">
        <ele>356.1</ele>
        <time>2022-08-01T16:44:04Z</time>
      </trkpt>
      <trkpt lat="45.80369" lon="1.63372">
        <ele>356.5</ele>
        <time>2022-08-01T16:44:06Z</time>
      </trkpt>
      <trkpt lat="45.80368" lon="1.63397">
        <ele>356.9</ele>
        <time>2022-08-01T16:44:08Z</time>
      </trkpt>
      <trkpt lat="45.8037" lon="1.63419">
        <ele>356.5</ele>
        <time>2022-08-01T16:44:10Z</time>
      </trkpt>
      <trkpt lat="45.80369" lon="1.63442">
        <ele>355.6</ele>
        <time>2022-08-01T16:44:12Z</time>
      </trkpt>
      <trkpt lat="45.80371" lon="1.63463">
        <ele>354.3</ele>
        <time>2022-08-01T16:44:14Z</time>
      </trkpt>
      <trkpt lat="45.80372" lon="1.6349">
        <ele>352.7</ele>
        <time>2022-08-01T16:44:16Z</time>
      </trkpt>
      <trkpt lat="45.80371" lon="1.63508">
        <ele>352</ele>
        <time>2022-08-01T16:44:18Z</time>
      </trkpt>
      <trkpt lat="45.80371" lon="1.63529">
        <ele>350.6</ele>
        <time>2022-08-01T16:44:20Z</time>
      </trkpt>
      <trkpt lat="45.8037" lon="1.63551">
        <ele>349.5</ele>
        <time>2022-08-01T16:44:22Z</time>
      </trkpt>
      <trkpt lat="45.80369" lon="1.63572">
        <ele>348.2</ele>
        <time>2022-08-01T16:44:24Z</time>
      </trkpt>
      <trkpt lat="45.80367" lon="1.63593">
        <ele>347.3</ele>
        <time>2022-08-01T16:44:26Z</time>
      </trkpt>
      <trkpt lat="45.80367" lon="1.63615">
        <ele>346.4</ele>
        <time>2022-08-01T16:44:28Z</time>
      </trkpt>
      <trkpt lat="45.80368" lon="1.63638">
        <ele>345.2</ele>
        <time>2022-08-01T16:44:30Z</time>
      </trkpt>
      <trkpt lat="45.80371" lon="1.63658">
        <ele>344</ele>
        <time>2022-08-01T16:44:32Z</time>
      </trkpt>
      <trkpt lat="45.80377" lon="1.63676">
        <ele>343.4</ele>
        <time>2022-08-01T16:44:34Z</time>
      </trkpt>
      <trkpt lat="45.80386" lon="1.63693">
        <ele>343.3</ele>
        <time>2022-08-01T16:44:36Z</time>
      </trkpt>
      <trkpt lat="45.80398" lon="1.63703">
        <ele>342.9</ele>
        <time>2022-08-01T16:44:38Z</time>
      </trkpt>
      <trkpt lat="45.80412" lon="1.63712">
        <ele>342.3</ele>
        <time>2022-08-01T16:44:40Z</time>
      </trkpt>
      <trkpt lat="45.80424" lon="1.63719">
        <ele>342.1</ele>
        <time>2022-08-01T16:44:42Z</time>
      </trkpt>
      <trkpt lat="45.80437" lon="1.63724">
        <ele>341.7</ele>
        <time>2022-08-01T16:44:44Z</time>
      </trkpt>
      <trkpt lat="45.8045" lon="1.6373">
        <ele>341.2</ele>
        <time>2022-08-01T16:44:46Z</time>
      </trkpt>
      <trkpt lat="45.80462" lon="1.63733">
        <ele>340.3</ele>
        <time>2022-08-01T16:44:48Z</time>
      </trkpt>
      <trkpt lat="45.80473" lon="1.63736">
        <ele>339.7</ele>
        <time>2022-08-01T16:44:50Z</time>
      </trkpt>
      <trkpt lat="45.80476" lon="1.63738">
        <ele>339.5</ele>
        <time>2022-08-01T16:44:52Z</time>
      </trkpt>
      <trkpt lat="45.80477" lon="1.63737">
        <ele>339.4</ele>
        <time>2022-08-01T16:44:54Z</time>
      </trkpt>
      <trkpt lat="45.80477" lon="1.63737">
        <ele>339.4</ele>
        <time>2022-08-01T16:44:56Z</time>
      </trkpt>
      <trkpt lat="45.80477" lon="1.63737">
        <ele>339.3</ele>
        <time>2022-08-01T16:44:58Z</time>
      </trkpt>
      <trkpt lat="45.80477" lon="1.63736">
        <ele>339.3</ele>
        <time>2022-08-01T16:45:00Z</time>
      </trkpt>
      <trkpt lat="45.80477" lon="1.63735">
        <ele>339.2</ele>
        <time>2022-08-01T16:45:02Z</time>
      </trkpt>
      <trkpt lat="45.80485" lon="1.63711">
        <ele>337.1</ele>
        <time>2022-08-01T16:46:14Z</time>
      </trkpt>
      <trkpt lat="45.8049" lon="1.63705">
        <ele>336.5</ele>
        <time>2022-08-01T16:46:16Z</time>
      </trkpt>
      <trkpt lat="45.80495" lon="1.63698">
        <ele>335.8</ele>
        <time>2022-08-01T16:46:18Z</time>
      </trkpt>
      <trkpt lat="45.805" lon="1.6369">
        <ele>335.2</ele>
        <time>2022-08-01T16:46:20Z</time>
      </trkpt>
      <trkpt lat="45.80504" lon="1.63682">
        <ele>334.7</ele>
        <time>2022-08-01T16:46:22Z</time>
      </trkpt>
      <trkpt lat="45.8051" lon="1.63673">
        <ele>334.2</ele>
        <time>2022-08-01T16:46:24Z</time>
      </trkpt>
      <trkpt lat="45.80518" lon="1.63666">
        <ele>334</ele>
        <time>2022-08-01T16:46:26Z</time>
      </trkpt>
      <trkpt lat="45.80527" lon="1.63661">
        <ele>334</ele>
        <time>2022-08-01T16:46:28Z</time>
      </trkpt>
      <trkpt lat="45.80534" lon="1.63654">
        <ele>334.1</ele>
        <time>2022-08-01T16:46:30Z</time>
      </trkpt>
      <trkpt lat="45.80539" lon="1.63645">
        <ele>334.1</ele>
        <time>2022-08-01T16:46:32Z</time>
      </trkpt>
      <trkpt lat="45.80543" lon="1.63637">
        <ele>334.2</ele>
        <time>2022-08-01T16:46:34Z</time>
      </trkpt>
      <trkpt lat="45.80549" lon="1.63631">
        <ele>334.2</ele>
        <time>2022-08-01T16:46:36Z</time>
      </trkpt>
      <trkpt lat="45.80555" lon="1.63622">
        <ele>334.2</ele>
        <time>2022-08-01T16:46:38Z</time>
      </trkpt>
      <trkpt lat="45.80559" lon="1.63614">
        <ele>334.2</ele>
        <time>2022-08-01T16:46:40Z</time>
      </trkpt>
      <trkpt lat="45.80564" lon="1.63608">
        <ele>334.2</ele>
        <time>2022-08-01T16:46:42Z</time>
      </trkpt>
      <trkpt lat="45.8057" lon="1.63604">
        <ele>334.1</ele>
        <time>2022-08-01T16:46:44Z</time>
      </trkpt>
      <trkpt lat="45.80576" lon="1.63601">
        <ele>334.1</ele>
        <time>2022-08-01T16:46:46Z</time>
      </trkpt>
      <trkpt lat="45.80579" lon="1.63596">
        <ele>334</ele>
        <time>2022-08-01T16:46:48Z</time>
      </trkpt>
      <trkpt lat="45.80582" lon="1.63588">
        <ele>334</ele>
        <time>2022-08-01T16:46:50Z</time>
      </trkpt>
      <trkpt lat="45.80587" lon="1.63584">
        <ele>333.7</ele>
        <time>2022-08-01T16:46:52Z</time>
      </trkpt>
      <trkpt lat="45.80592" lon="1.63578">
        <ele>333</ele>
        <time>2022-08-01T16:46:54Z</time>
      </trkpt>
      <trkpt lat="45.80597" lon="1.63572">
        <ele>332.4</ele>
        <time>2022-08-01T16:46:56Z</time>
      </trkpt>
      <trkpt lat="45.80602" lon="1.63569">
        <ele>331.8</ele>
        <time>2022-08-01T16:46:58Z</time>
      </trkpt>
      <trkpt lat="45.80606" lon="1.63564">
        <ele>331.3</ele>
        <time>2022-08-01T16:47:00Z</time>
      </trkpt>
      <trkpt lat="45.8061" lon="1.6356">
        <ele>330.9</ele>
        <time>2022-08-01T16:47:02Z</time>
      </trkpt>
      <trkpt lat="45.80616" lon="1.63557">
        <ele>330.5</ele>
        <time>2022-08-01T16:47:04Z</time>
      </trkpt>
      <trkpt lat="45.80622" lon="1.6356">
        <ele>330.3</ele>
        <time>2022-08-01T16:47:06Z</time>
      </trkpt>
      <trkpt lat="45.80625" lon="1.63565">
        <ele>330.3</ele>
        <time>2022-08-01T16:47:08Z</time>
      </trkpt>
      <trkpt lat="45.8063" lon="1.63568">
        <ele>330.2</ele>
        <time>2022-08-01T16:47:10Z</time>
      </trkpt>
      <trkpt lat="45.80634" lon="1.63573">
        <ele>330.1</ele>
        <time>2022-08-01T16:47:12Z</time>
      </trkpt>
      <trkpt lat="45.80639" lon="1.63576">
        <ele>329.8</ele>
        <time>2022-08-01T16:47:14Z</time>
      </trkpt>
      <trkpt lat="45.80644" lon="1.63577">
        <ele>329.5</ele>
        <time>2022-08-01T16:47:16Z</time>
      </trkpt>
      <trkpt lat="45.80648" lon="1.63578">
        <ele>329.2</ele>
        <time>2022-08-01T16:47:18Z</time>
      </trkpt>
      <trkpt lat="45.80653" lon="1.63582">
        <ele>328.9</ele>
        <time>2022-08-01T16:47:20Z</time>
      </trkpt>
      <trkpt lat="45.80657" lon="1.63589">
        <ele>329</ele>
        <time>2022-08-01T16:47:22Z</time>
      </trkpt>
      <trkpt lat="45.8066" lon="1.63594">
        <ele>329.1</ele>
        <time>2022-08-01T16:47:24Z</time>
      </trkpt>
      <trkpt lat="45.80662" lon="1.63598">
        <ele>329.1</ele>
        <time>2022-08-01T16:47:26Z</time>
      </trkpt>
      <trkpt lat="45.80665" lon="1.63602">
        <ele>329.2</ele>
        <time>2022-08-01T16:47:28Z</time>
      </trkpt>
      <trkpt lat="45.80667" lon="1.63606">
        <ele>329.4</ele>
        <time>2022-08-01T16:47:30Z</time>
      </trkpt>
      <trkpt lat="45.8067" lon="1.63611">
        <ele>329.6</ele>
        <time>2022-08-01T16:47:32Z</time>
      </trkpt>
      <trkpt lat="45.80673" lon="1.63616">
        <ele>329.8</ele>
        <time>2022-08-01T16:47:34Z</time>
      </trkpt>
      <trkpt lat="45.80677" lon="1.6362">
        <ele>329.9</ele>
        <time>2022-08-01T16:47:36Z</time>
      </trkpt>
      <trkpt lat="45.8068" lon="1.63624">
        <ele>330</ele>
        <time>2022-08-01T16:47:38Z</time>
      </trkpt>
      <trkpt lat="45.80683" lon="1.63629">
        <ele>330.2</ele>
        <time>2022-08-01T16:47:40Z</time>
      </trkpt>
      <trkpt lat="45.80686" lon="1.63634">
        <ele>330.4</ele>
        <time>2022-08-01T16:47:42Z</time>
      </trkpt>
      <trkpt lat="45.80689" lon="1.6364">
        <ele>330.5</ele>
        <time>2022-08-01T16:47:44Z</time>
      </trkpt>
      <trkpt lat="45.80691" lon="1.63646">
        <ele>330.7</ele>
        <time>2022-08-01T16:47:46Z</time>
      </trkpt>
      <trkpt lat="45.80691" lon="1.6365">
        <ele>330.8</ele>
        <time>2022-08-01T16:47:48Z</time>
      </trkpt>
      <trkpt lat="45.80692" lon="1.63655">
        <ele>331</ele>
        <time>2022-08-01T16:47:50Z</time>
      </trkpt>
      <trkpt lat="45.80694" lon="1.6366">
        <ele>331.1</ele>
        <time>2022-08-01T16:47:52Z</time>
      </trkpt>
      <trkpt lat="45.80696" lon="1.63667">
        <ele>331.2</ele>
        <time>2022-08-01T16:47:54Z</time>
      </trkpt>
      <trkpt lat="45.80695" lon="1.63672">
        <ele>331.3</ele>
        <time>2022-08-01T16:47:56Z</time>
      </trkpt>
      <trkpt lat="45.80692" lon="1.63677">
        <ele>331.4</ele>
        <time>2022-08-01T16:47:58Z</time>
      </trkpt>
      <trkpt lat="45.80691" lon="1.63681">
        <ele>331.4</ele>
        <time>2022-08-01T16:48:00Z</time>
      </trkpt>
      <trkpt lat="45.80691" lon="1.63686">
        <ele>331.4</ele>
        <time>2022-08-01T16:48:02Z</time>
      </trkpt>
      <trkpt lat="45.80691" lon="1.6369">
        <ele>331.3</ele>
        <time>2022-08-01T16:48:04Z</time>
      </trkpt>
      <trkpt lat="45.80689" lon="1.63694">
        <ele>331.4</ele>
        <time>2022-08-01T16:48:06Z</time>
      </trkpt>
      <trkpt lat="45.80687" lon="1.63696">
        <ele>331.5</ele>
        <time>2022-08-01T16:48:08Z</time>
      </trkpt>
      <trkpt lat="45.80688" lon="1.63696">
        <ele>331.5</ele>
        <time>2022-08-01T16:48:10Z</time>
      </trkpt>
      <trkpt lat="45.80688" lon="1.63697">
        <ele>331.4</ele>
        <time>2022-08-01T16:48:12Z</time>
      </trkpt>
      <trkpt lat="45.80689" lon="1.63698">
        <ele>331.4</ele>
        <time>2022-08-01T16:48:14Z</time>
      </trkpt>
      <trkpt lat="45.8069" lon="1.63698">
        <ele>331.3</ele>
        <time>2022-08-01T16:48:16Z</time>
      </trkpt>
      <trkpt lat="45.80691" lon="1.63701">
        <ele>331.3</ele>
        <time>2022-08-01T16:48:18Z</time>
      </trkpt>
      <trkpt lat="45.80692" lon="1.63706">
        <ele>331.2</ele>
        <time>2022-08-01T16:48:20Z</time>
      </trkpt>
      <trkpt lat="45.80694" lon="1.6371">
        <ele>331</ele>
        <time>2022-08-01T16:48:22Z</time>
      </trkpt>
      <trkpt lat="45.80696" lon="1.63715">
        <ele>330.9</ele>
        <time>2022-08-01T16:48:24Z</time>
      </trkpt>
      <trkpt lat="45.80696" lon="1.63717">
        <ele>330.9</ele>
        <time>2022-08-01T16:48:26Z</time>
      </trkpt>
      <trkpt lat="45.80698" lon="1.63718">
        <ele>330.7</ele>
        <time>2022-08-01T16:48:28Z</time>
      </trkpt>
      <trkpt lat="45.80699" lon="1.63718">
        <ele>330.7</ele>
        <time>2022-08-01T16:48:30Z</time>
      </trkpt>
      <trkpt lat="45.80702" lon="1.63718">
        <ele>330.5</ele>
        <time>2022-08-01T16:48:32Z</time>
      </trkpt>
      <trkpt lat="45.80707" lon="1.63719">
        <ele>330.3</ele>
        <time>2022-08-01T16:48:34Z</time>
      </trkpt>
      <trkpt lat="45.8071" lon="1.63721">
        <ele>330.1</ele>
        <time>2022-08-01T16:48:36Z</time>
      </trkpt>
      <trkpt lat="45.80712" lon="1.63724">
        <ele>330</ele>
        <time>2022-08-01T16:48:38Z</time>
      </trkpt>
      <trkpt lat="45.80715" lon="1.63727">
        <ele>329.8</ele>
        <time>2022-08-01T16:48:40Z</time>
      </trkpt>
      <trkpt lat="45.80717" lon="1.63732">
        <ele>329.6</ele>
        <time>2022-08-01T16:48:42Z</time>
      </trkpt>
      <trkpt lat="45.8072" lon="1.63739">
        <ele>329.5</ele>
        <time>2022-08-01T16:48:44Z</time>
      </trkpt>
      <trkpt lat="45.80722" lon="1.63745">
        <ele>329.4</ele>
        <time>2022-08-01T16:48:46Z</time>
      </trkpt>
      <trkpt lat="45.80723" lon="1.63752">
        <ele>329.4</ele>
        <time>2022-08-01T16:48:48Z</time>
      </trkpt>
      <trkpt lat="45.80725" lon="1.63759">
        <ele>329.5</ele>
        <time>2022-08-01T16:48:50Z</time>
      </trkpt>
      <trkpt lat="45.80726" lon="1.63766">
        <ele>329.7</ele>
        <time>2022-08-01T16:48:52Z</time>
      </trkpt>
      <trkpt lat="45.80725" lon="1.63773">
        <ele>330</ele>
        <time>2022-08-01T16:48:54Z</time>
      </trkpt>
      <trkpt lat="45.80726" lon="1.63779">
        <ele>330.1</ele>
        <time>2022-08-01T16:48:56Z</time>
      </trkpt>
      <trkpt lat="45.80728" lon="1.63783">
        <ele>330.2</ele>
        <time>2022-08-01T16:48:58Z</time>
      </trkpt>
      <trkpt lat="45.8073" lon="1.63788">
        <ele>330.4</ele>
        <time>2022-08-01T16:49:00Z</time>
      </trkpt>
      <trkpt lat="45.80732" lon="1.63793">
        <ele>330.5</ele>
        <time>2022-08-01T16:49:02Z</time>
      </trkpt>
      <trkpt lat="45.80732" lon="1.63799">
        <ele>330.7</ele>
        <time>2022-08-01T16:49:04Z</time>
      </trkpt>
      <trkpt lat="45.80733" lon="1.63806">
        <ele>330.9</ele>
        <time>2022-08-01T16:49:06Z</time>
      </trkpt>
      <trkpt lat="45.80733" lon="1.63813">
        <ele>331.2</ele>
        <time>2022-08-01T16:49:08Z</time>
      </trkpt>
      <trkpt lat="45.80732" lon="1.6382">
        <ele>331.5</ele>
        <time>2022-08-01T16:49:10Z</time>
      </trkpt>
      <trkpt lat="45.80733" lon="1.63826">
        <ele>331.7</ele>
        <time>2022-08-01T16:49:12Z</time>
      </trkpt>
      <trkpt lat="45.80733" lon="1.63833">
        <ele>332</ele>
        <time>2022-08-01T16:49:14Z</time>
      </trkpt>
      <trkpt lat="45.80732" lon="1.6384">
        <ele>332.2</ele>
        <time>2022-08-01T16:49:16Z</time>
      </trkpt>
      <trkpt lat="45.80733" lon="1.63848">
        <ele>332.3</ele>
        <time>2022-08-01T16:49:18Z</time>
      </trkpt>
      <trkpt lat="45.80732" lon="1.63857">
        <ele>332.5</ele>
        <time>2022-08-01T16:49:20Z</time>
      </trkpt>
      <trkpt lat="45.80729" lon="1.6386">
        <ele>332.6</ele>
        <time>2022-08-01T16:49:22Z</time>
      </trkpt>
      <trkpt lat="45.80727" lon="1.63866">
        <ele>332.8</ele>
        <time>2022-08-01T16:49:24Z</time>
      </trkpt>
      <trkpt lat="45.80727" lon="1.6387">
        <ele>332.9</ele>
        <time>2022-08-01T16:49:26Z</time>
      </trkpt>
      <trkpt lat="45.80728" lon="1.63871">
        <ele>332.9</ele>
        <time>2022-08-01T16:49:28Z</time>
      </trkpt>
      <trkpt lat="45.80728" lon="1.63871">
        <ele>332.9</ele>
        <time>2022-08-01T16:49:30Z</time>
      </trkpt>
      <trkpt lat="45.80729" lon="1.63872">
        <ele>332.9</ele>
        <time>2022-08-01T16:49:32Z</time>
      </trkpt>
      <trkpt lat="45.8073" lon="1.63871">
        <ele>332.9</ele>
        <time>2022-08-01T16:49:34Z</time>
      </trkpt>
      <trkpt lat="45.8073" lon="1.63871">
        <ele>332.9</ele>
        <time>2022-08-01T16:49:36Z</time>
      </trkpt>
      <trkpt lat="45.80718" lon="1.63871">
        <ele>333.2</ele>
        <time>2022-08-01T16:50:02Z</time>
      </trkpt>
      <trkpt lat="45.80715" lon="1.6387">
        <ele>333.2</ele>
        <time>2022-08-01T16:50:04Z</time>
      </trkpt>
      <trkpt lat="45.80713" lon="1.63871">
        <ele>333.3</ele>
        <time>2022-08-01T16:50:06Z</time>
      </trkpt>
      <trkpt lat="45.80713" lon="1.63874">
        <ele>333.3</ele>
        <time>2022-08-01T16:50:08Z</time>
      </trkpt>
      <trkpt lat="45.80714" lon="1.63878">
        <ele>333.5</ele>
        <time>2022-08-01T16:50:10Z</time>
      </trkpt>
      <trkpt lat="45.80713" lon="1.63882">
        <ele>333.6</ele>
        <time>2022-08-01T16:50:12Z</time>
      </trkpt>
      <trkpt lat="45.80711" lon="1.63887">
        <ele>333.8</ele>
        <time>2022-08-01T16:50:14Z</time>
      </trkpt>
      <trkpt lat="45.80712" lon="1.6389">
        <ele>333.9</ele>
        <time>2022-08-01T16:50:16Z</time>
      </trkpt>
      <trkpt lat="45.80712" lon="1.63893">
        <ele>334</ele>
        <time>2022-08-01T16:50:18Z</time>
      </trkpt>
      <trkpt lat="45.80712" lon="1.63898">
        <ele>334.2</ele>
        <time>2022-08-01T16:50:20Z</time>
      </trkpt>
      <trkpt lat="45.80714" lon="1.63901">
        <ele>334.2</ele>
        <time>2022-08-01T16:50:22Z</time>
      </trkpt>
      <trkpt lat="45.80716" lon="1.63905">
        <ele>334.3</ele>
        <time>2022-08-01T16:50:24Z</time>
      </trkpt>
      <trkpt lat="45.80719" lon="1.63911">
        <ele>334.3</ele>
        <time>2022-08-01T16:50:26Z</time>
      </trkpt>
      <trkpt lat="45.80724" lon="1.63914">
        <ele>334.2</ele>
        <time>2022-08-01T16:50:28Z</time>
      </trkpt>
      <trkpt lat="45.80726" lon="1.63913">
        <ele>334</ele>
        <time>2022-08-01T16:50:30Z</time>
      </trkpt>
      <trkpt lat="45.80735" lon="1.63913">
        <ele>333.6</ele>
        <time>2022-08-01T16:50:32Z</time>
      </trkpt>
      <trkpt lat="45.8074" lon="1.63915">
        <ele>333.4</ele>
        <time>2022-08-01T16:50:34Z</time>
      </trkpt>
      <trkpt lat="45.80744" lon="1.63921">
        <ele>333.6</ele>
        <time>2022-08-01T16:50:36Z</time>
      </trkpt>
      <trkpt lat="45.80746" lon="1.63926">
        <ele>333.7</ele>
        <time>2022-08-01T16:50:38Z</time>
      </trkpt>
      <trkpt lat="45.8075" lon="1.63932">
        <ele>334</ele>
        <time>2022-08-01T16:50:40Z</time>
      </trkpt>
      <trkpt lat="45.80751" lon="1.63938">
        <ele>334.3</ele>
        <time>2022-08-01T16:50:42Z</time>
      </trkpt>
      <trkpt lat="45.80753" lon="1.63943">
        <ele>334.6</ele>
        <time>2022-08-01T16:50:44Z</time>
      </trkpt>
      <trkpt lat="45.80756" lon="1.63948">
        <ele>334.7</ele>
        <time>2022-08-01T16:50:46Z</time>
      </trkpt>
      <trkpt lat="45.80761" lon="1.63951">
        <ele>334.9</ele>
        <time>2022-08-01T16:50:48Z</time>
      </trkpt>
      <trkpt lat="45.80763" lon="1.63957">
        <ele>335.1</ele>
        <time>2022-08-01T16:50:50Z</time>
      </trkpt>
      <trkpt lat="45.80765" lon="1.63963">
        <ele>335.4</ele>
        <time>2022-08-01T16:50:52Z</time>
      </trkpt>
      <trkpt lat="45.80766" lon="1.63969">
        <ele>335.7</ele>
        <time>2022-08-01T16:50:54Z</time>
      </trkpt>
      <trkpt lat="45.80767" lon="1.63975">
        <ele>335.9</ele>
        <time>2022-08-01T16:50:56Z</time>
      </trkpt>
      <trkpt lat="45.8077" lon="1.6398">
        <ele>336.1</ele>
        <time>2022-08-01T16:50:58Z</time>
      </trkpt>
      <trkpt lat="45.80772" lon="1.63983">
        <ele>336.2</ele>
        <time>2022-08-01T16:51:00Z</time>
      </trkpt>
      <trkpt lat="45.80774" lon="1.63987">
        <ele>336.2</ele>
        <time>2022-08-01T16:51:02Z</time>
      </trkpt>
      <trkpt lat="45.80777" lon="1.63992">
        <ele>336.4</ele>
        <time>2022-08-01T16:51:04Z</time>
      </trkpt>
      <trkpt lat="45.80778" lon="1.63996">
        <ele>336.5</ele>
        <time>2022-08-01T16:51:06Z</time>
      </trkpt>
      <trkpt lat="45.80781" lon="1.63999">
        <ele>336.5</ele>
        <time>2022-08-01T16:51:08Z</time>
      </trkpt>
      <trkpt lat="45.80783" lon="1.64003">
        <ele>336.6</ele>
        <time>2022-08-01T16:51:10Z</time>
      </trkpt>
      <trkpt lat="45.80785" lon="1.64007">
        <ele>336.7</ele>
        <time>2022-08-01T16:51:12Z</time>
      </trkpt>
      <trkpt lat="45.80787" lon="1.64012">
        <ele>336.9</ele>
        <time>2022-08-01T16:51:14Z</time>
      </trkpt>
      <trkpt lat="45.80788" lon="1.64017">
        <ele>337.1</ele>
        <time>2022-08-01T16:51:16Z</time>
      </trkpt>
      <trkpt lat="45.80789" lon="1.64022">
        <ele>337.3</ele>
        <time>2022-08-01T16:51:18Z</time>
      </trkpt>
      <trkpt lat="45.80792" lon="1.64026">
        <ele>337.2</ele>
        <time>2022-08-01T16:51:20Z</time>
      </trkpt>
      <trkpt lat="45.80793" lon="1.64031">
        <ele>337.3</ele>
        <time>2022-08-01T16:51:22Z</time>
      </trkpt>
      <trkpt lat="45.80796" lon="1.64034">
        <ele>337.2</ele>
        <time>2022-08-01T16:51:24Z</time>
      </trkpt>
      <trkpt lat="45.80798" lon="1.64041">
        <ele>337.2</ele>
        <time>2022-08-01T16:51:26Z</time>
      </trkpt>
      <trkpt lat="45.80797" lon="1.64044">
        <ele>337.4</ele>
        <time>2022-08-01T16:51:28Z</time>
      </trkpt>
      <trkpt lat="45.808" lon="1.6405">
        <ele>337.2</ele>
        <time>2022-08-01T16:51:30Z</time>
      </trkpt>
      <trkpt lat="45.80803" lon="1.64057">
        <ele>337</ele>
        <time>2022-08-01T16:51:32Z</time>
      </trkpt>
      <trkpt lat="45.80803" lon="1.64065">
        <ele>337.4</ele>
        <time>2022-08-01T16:51:34Z</time>
      </trkpt>
      <trkpt lat="45.80802" lon="1.64067">
        <ele>337.6</ele>
        <time>2022-08-01T16:51:36Z</time>
      </trkpt>
      <trkpt lat="45.80802" lon="1.64073">
        <ele>337.6</ele>
        <time>2022-08-01T16:51:38Z</time>
      </trkpt>
      <trkpt lat="45.80802" lon="1.64078">
        <ele>337.8</ele>
        <time>2022-08-01T16:51:40Z</time>
      </trkpt>
      <trkpt lat="45.80803" lon="1.64083">
        <ele>337.8</ele>
        <time>2022-08-01T16:51:42Z</time>
      </trkpt>
      <trkpt lat="45.80803" lon="1.64082">
        <ele>337.7</ele>
        <time>2022-08-01T16:51:44Z</time>
      </trkpt>
      <trkpt lat="45.80804" lon="1.64083">
        <ele>337.6</ele>
        <time>2022-08-01T16:51:46Z</time>
      </trkpt>
      <trkpt lat="45.80805" lon="1.64083">
        <ele>337.5</ele>
        <time>2022-08-01T16:51:48Z</time>
      </trkpt>
      <trkpt lat="45.80805" lon="1.64083">
        <ele>337.5</ele>
        <time>2022-08-01T16:51:52Z</time>
      </trkpt>
      <trkpt lat="45.80808" lon="1.64101">
        <ele>338.3</ele>
        <time>2022-08-01T16:53:00Z</time>
      </trkpt>
      <trkpt lat="45.80811" lon="1.6411">
        <ele>338.4</ele>
        <time>2022-08-01T16:53:02Z</time>
      </trkpt>
      <trkpt lat="45.80812" lon="1.64117">
        <ele>338.9</ele>
        <time>2022-08-01T16:53:04Z</time>
      </trkpt>
      <trkpt lat="45.80816" lon="1.64127">
        <ele>338.8</ele>
        <time>2022-08-01T16:53:06Z</time>
      </trkpt>
      <trkpt lat="45.80817" lon="1.64137">
        <ele>339.6</ele>
        <time>2022-08-01T16:53:08Z</time>
      </trkpt>
      <trkpt lat="45.8082" lon="1.64147">
        <ele>339.6</ele>
        <time>2022-08-01T16:53:10Z</time>
      </trkpt>
      <trkpt lat="45.80823" lon="1.64155">
        <ele>339.5</ele>
        <time>2022-08-01T16:53:12Z</time>
      </trkpt>
      <trkpt lat="45.80825" lon="1.64162">
        <ele>339.7</ele>
        <time>2022-08-01T16:53:14Z</time>
      </trkpt>
      <trkpt lat="45.80825" lon="1.64171">
        <ele>340.4</ele>
        <time>2022-08-01T16:53:16Z</time>
      </trkpt>
      <trkpt lat="45.80828" lon="1.6418">
        <ele>340.3</ele>
        <time>2022-08-01T16:53:18Z</time>
      </trkpt>
      <trkpt lat="45.80832" lon="1.64188">
        <ele>340.2</ele>
        <time>2022-08-01T16:53:20Z</time>
      </trkpt>
      <trkpt lat="45.80836" lon="1.64198">
        <ele>340.4</ele>
        <time>2022-08-01T16:53:22Z</time>
      </trkpt>
      <trkpt lat="45.80838" lon="1.64208">
        <ele>341</ele>
        <time>2022-08-01T16:53:24Z</time>
      </trkpt>
      <trkpt lat="45.8084" lon="1.64218">
        <ele>341.5</ele>
        <time>2022-08-01T16:53:26Z</time>
      </trkpt>
      <trkpt lat="45.80842" lon="1.64226">
        <ele>341.8</ele>
        <time>2022-08-01T16:53:28Z</time>
      </trkpt>
      <trkpt lat="45.80844" lon="1.64235">
        <ele>342.1</ele>
        <time>2022-08-01T16:53:30Z</time>
      </trkpt>
      <trkpt lat="45.80847" lon="1.64243">
        <ele>342.3</ele>
        <time>2022-08-01T16:53:32Z</time>
      </trkpt>
      <trkpt lat="45.80849" lon="1.64252">
        <ele>342.5</ele>
        <time>2022-08-01T16:53:34Z</time>
      </trkpt>
      <trkpt lat="45.80851" lon="1.64261">
        <ele>342.9</ele>
        <time>2022-08-01T16:53:36Z</time>
      </trkpt>
      <trkpt lat="45.80855" lon="1.64269">
        <ele>342.7</ele>
        <time>2022-08-01T16:53:38Z</time>
      </trkpt>
      <trkpt lat="45.80857" lon="1.64274">
        <ele>342.7</ele>
        <time>2022-08-01T16:53:40Z</time>
      </trkpt>
      <trkpt lat="45.80857" lon="1.64279">
        <ele>342.9</ele>
        <time>2022-08-01T16:53:42Z</time>
      </trkpt>
      <trkpt lat="45.80858" lon="1.64284">
        <ele>343.1</ele>
        <time>2022-08-01T16:53:44Z</time>
      </trkpt>
      <trkpt lat="45.80858" lon="1.64283">
        <ele>343.1</ele>
        <time>2022-08-01T16:53:46Z</time>
      </trkpt>
      <trkpt lat="45.80858" lon="1.64284">
        <ele>343.2</ele>
        <time>2022-08-01T16:53:48Z</time>
      </trkpt>
      <trkpt lat="45.80858" lon="1.64284">
        <ele>343.2</ele>
        <time>2022-08-01T16:53:50Z</time>
      </trkpt>
      <trkpt lat="45.80859" lon="1.64286">
        <ele>343.2</ele>
        <time>2022-08-01T16:53:52Z</time>
      </trkpt>
      <trkpt lat="45.80864" lon="1.64335">
        <ele>345.2</ele>
        <time>2022-08-01T16:55:28Z</time>
      </trkpt>
      <trkpt lat="45.80863" lon="1.64342">
        <ele>345.9</ele>
        <time>2022-08-01T16:55:30Z</time>
      </trkpt>
      <trkpt lat="45.80861" lon="1.64347">
        <ele>346.7</ele>
        <time>2022-08-01T16:55:32Z</time>
      </trkpt>
      <trkpt lat="45.80862" lon="1.64351">
        <ele>346.9</ele>
        <time>2022-08-01T16:55:34Z</time>
      </trkpt>
      <trkpt lat="45.80861" lon="1.64355">
        <ele>347.5</ele>
        <time>2022-08-01T16:55:36Z</time>
      </trkpt>
      <trkpt lat="45.80859" lon="1.6436">
        <ele>348.3</ele>
        <time>2022-08-01T16:55:38Z</time>
      </trkpt>
      <trkpt lat="45.8086" lon="1.64365">
        <ele>348.5</ele>
        <time>2022-08-01T16:55:40Z</time>
      </trkpt>
      <trkpt lat="45.8086" lon="1.6437">
        <ele>348.7</ele>
        <time>2022-08-01T16:55:42Z</time>
      </trkpt>
      <trkpt lat="45.80859" lon="1.64373">
        <ele>349.3</ele>
        <time>2022-08-01T16:55:44Z</time>
      </trkpt>
      <trkpt lat="45.80861" lon="1.64377">
        <ele>349.3</ele>
        <time>2022-08-01T16:55:46Z</time>
      </trkpt>
      <trkpt lat="45.80862" lon="1.64382">
        <ele>349.4</ele>
        <time>2022-08-01T16:55:48Z</time>
      </trkpt>
      <trkpt lat="45.80861" lon="1.64385">
        <ele>349.7</ele>
        <time>2022-08-01T16:55:50Z</time>
      </trkpt>
      <trkpt lat="45.80862" lon="1.64388">
        <ele>349.9</ele>
        <time>2022-08-01T16:55:52Z</time>
      </trkpt>
      <trkpt lat="45.80863" lon="1.64394">
        <ele>349.8</ele>
        <time>2022-08-01T16:55:54Z</time>
      </trkpt>
      <trkpt lat="45.80866" lon="1.64399">
        <ele>349.4</ele>
        <time>2022-08-01T16:55:56Z</time>
      </trkpt>
      <trkpt lat="45.80867" lon="1.64402">
        <ele>349.4</ele>
        <time>2022-08-01T16:55:58Z</time>
      </trkpt>
      <trkpt lat="45.80867" lon="1.64405">
        <ele>349.6</ele>
        <time>2022-08-01T16:56:00Z</time>
      </trkpt>
      <trkpt lat="45.80868" lon="1.64405">
        <ele>349.4</ele>
        <time>2022-08-01T16:56:02Z</time>
      </trkpt>
      <trkpt lat="45.80868" lon="1.64405">
        <ele>349.3</ele>
        <time>2022-08-01T16:56:04Z</time>
      </trkpt>
      <trkpt lat="45.80869" lon="1.64405">
        <ele>349.1</ele>
        <time>2022-08-01T16:56:06Z</time>
      </trkpt>
      <trkpt lat="45.80869" lon="1.64406">
        <ele>349.1</ele>
        <time>2022-08-01T16:56:08Z</time>
      </trkpt>
      <trkpt lat="45.80873" lon="1.64423">
        <ele>348.6</ele>
        <time>2022-08-01T16:56:22Z</time>
      </trkpt>
      <trkpt lat="45.80877" lon="1.64431">
        <ele>347.8</ele>
        <time>2022-08-01T16:56:24Z</time>
      </trkpt>
      <trkpt lat="45.80879" lon="1.64437">
        <ele>347.3</ele>
        <time>2022-08-01T16:56:26Z</time>
      </trkpt>
      <trkpt lat="45.80878" lon="1.64442">
        <ele>347.6</ele>
        <time>2022-08-01T16:56:28Z</time>
      </trkpt>
      <trkpt lat="45.8088" lon="1.64446">
        <ele>347.1</ele>
        <time>2022-08-01T16:56:30Z</time>
      </trkpt>
      <trkpt lat="45.80881" lon="1.6445">
        <ele>346.8</ele>
        <time>2022-08-01T16:56:32Z</time>
      </trkpt>
      <trkpt lat="45.80883" lon="1.64455">
        <ele>346.3</ele>
        <time>2022-08-01T16:56:34Z</time>
      </trkpt>
      <trkpt lat="45.80882" lon="1.64459">
        <ele>346.7</ele>
        <time>2022-08-01T16:56:36Z</time>
      </trkpt>
      <trkpt lat="45.80883" lon="1.64464">
        <ele>346.5</ele>
        <time>2022-08-01T16:56:38Z</time>
      </trkpt>
      <trkpt lat="45.80883" lon="1.64469">
        <ele>346.6</ele>
        <time>2022-08-01T16:56:40Z</time>
      </trkpt>
      <trkpt lat="45.80882" lon="1.64472">
        <ele>346.8</ele>
        <time>2022-08-01T16:56:42Z</time>
      </trkpt>
      <trkpt lat="45.80883" lon="1.64472">
        <ele>346.7</ele>
        <time>2022-08-01T16:56:44Z</time>
      </trkpt>
      <trkpt lat="45.80883" lon="1.64473">
        <ele>346.7</ele>
        <time>2022-08-01T16:56:46Z</time>
      </trkpt>
      <trkpt lat="45.80884" lon="1.64472">
        <ele>346.3</ele>
        <time>2022-08-01T16:56:48Z</time>
      </trkpt>
      <trkpt lat="45.80884" lon="1.64473">
        <ele>346.2</ele>
        <time>2022-08-01T16:56:50Z</time>
      </trkpt>
      <trkpt lat="45.80885" lon="1.64498">
        <ele>346.4</ele>
        <time>2022-08-01T16:57:32Z</time>
      </trkpt>
      <trkpt lat="45.80886" lon="1.64503">
        <ele>346.2</ele>
        <time>2022-08-01T16:57:34Z</time>
      </trkpt>
      <trkpt lat="45.80887" lon="1.64507">
        <ele>346.1</ele>
        <time>2022-08-01T16:57:36Z</time>
      </trkpt>
      <trkpt lat="45.80888" lon="1.64511">
        <ele>346.1</ele>
        <time>2022-08-01T16:57:38Z</time>
      </trkpt>
      <trkpt lat="45.80888" lon="1.64515">
        <ele>346.1</ele>
        <time>2022-08-01T16:57:40Z</time>
      </trkpt>
      <trkpt lat="45.80889" lon="1.64518">
        <ele>346.1</ele>
        <time>2022-08-01T16:57:42Z</time>
      </trkpt>
      <trkpt lat="45.80891" lon="1.64523">
        <ele>345.6</ele>
        <time>2022-08-01T16:57:44Z</time>
      </trkpt>
      <trkpt lat="45.80892" lon="1.64528">
        <ele>345.5</ele>
        <time>2022-08-01T16:57:46Z</time>
      </trkpt>
      <trkpt lat="45.80892" lon="1.64532">
        <ele>345.7</ele>
        <time>2022-08-01T16:57:48Z</time>
      </trkpt>
      <trkpt lat="45.80892" lon="1.64537">
        <ele>345.6</ele>
        <time>2022-08-01T16:57:50Z</time>
      </trkpt>
      <trkpt lat="45.80893" lon="1.64542">
        <ele>345.7</ele>
        <time>2022-08-01T16:57:52Z</time>
      </trkpt>
      <trkpt lat="45.80894" lon="1.64546">
        <ele>345.5</ele>
        <time>2022-08-01T16:57:54Z</time>
      </trkpt>
      <trkpt lat="45.80895" lon="1.64551">
        <ele>345.4</ele>
        <time>2022-08-01T16:57:56Z</time>
      </trkpt>
      <trkpt lat="45.80895" lon="1.64554">
        <ele>345.5</ele>
        <time>2022-08-01T16:57:58Z</time>
      </trkpt>
      <trkpt lat="45.80896" lon="1.64558">
        <ele>345.4</ele>
        <time>2022-08-01T16:58:00Z</time>
      </trkpt>
      <trkpt lat="45.80897" lon="1.64562">
        <ele>345.2</ele>
        <time>2022-08-01T16:58:02Z</time>
      </trkpt>
      <trkpt lat="45.809" lon="1.64567">
        <ele>344.5</ele>
        <time>2022-08-01T16:58:04Z</time>
      </trkpt>
      <trkpt lat="45.80899" lon="1.64573">
        <ele>344.9</ele>
        <time>2022-08-01T16:58:06Z</time>
      </trkpt>
      <trkpt lat="45.809" lon="1.64576">
        <ele>344.8</ele>
        <time>2022-08-01T16:58:08Z</time>
      </trkpt>
      <trkpt lat="45.80902" lon="1.64581">
        <ele>344.3</ele>
        <time>2022-08-01T16:58:10Z</time>
      </trkpt>
      <trkpt lat="45.80903" lon="1.64585">
        <ele>344</ele>
        <time>2022-08-01T16:58:12Z</time>
      </trkpt>
      <trkpt lat="45.80904" lon="1.6459">
        <ele>343.9</ele>
        <time>2022-08-01T16:58:14Z</time>
      </trkpt>
      <trkpt lat="45.80904" lon="1.64595">
        <ele>343.7</ele>
        <time>2022-08-01T16:58:16Z</time>
      </trkpt>
      <trkpt lat="45.80904" lon="1.64601">
        <ele>343.7</ele>
        <time>2022-08-01T16:58:18Z</time>
      </trkpt>
      <trkpt lat="45.80903" lon="1.64607">
        <ele>343.8</ele>
        <time>2022-08-01T16:58:20Z</time>
      </trkpt>
      <trkpt lat="45.80901" lon="1.64616">
        <ele>344.5</ele>
        <time>2022-08-01T16:58:22Z</time>
      </trkpt>
      <trkpt lat="45.80902" lon="1.64624">
        <ele>344.1</ele>
        <time>2022-08-01T16:58:24Z</time>
      </trkpt>
      <trkpt lat="45.80902" lon="1.6463">
        <ele>344.2</ele>
        <time>2022-08-01T16:58:26Z</time>
      </trkpt>
      <trkpt lat="45.80903" lon="1.64635">
        <ele>343.8</ele>
        <time>2022-08-01T16:58:28Z</time>
      </trkpt>
      <trkpt lat="45.80902" lon="1.6464">
        <ele>344.1</ele>
        <time>2022-08-01T16:58:30Z</time>
      </trkpt>
      <trkpt lat="45.80903" lon="1.64647">
        <ele>343.9</ele>
        <time>2022-08-01T16:58:32Z</time>
      </trkpt>
      <trkpt lat="45.80903" lon="1.64652">
        <ele>343.6</ele>
        <time>2022-08-01T16:58:34Z</time>
      </trkpt>
      <trkpt lat="45.80905" lon="1.64658">
        <ele>343.1</ele>
        <time>2022-08-01T16:58:36Z</time>
      </trkpt>
      <trkpt lat="45.80906" lon="1.64662">
        <ele>342.5</ele>
        <time>2022-08-01T16:58:38Z</time>
      </trkpt>
      <trkpt lat="45.80908" lon="1.64667">
        <ele>342</ele>
        <time>2022-08-01T16:58:40Z</time>
      </trkpt>
      <trkpt lat="45.8091" lon="1.64671">
        <ele>341.7</ele>
        <time>2022-08-01T16:58:42Z</time>
      </trkpt>
      <trkpt lat="45.80912" lon="1.64676">
        <ele>341.3</ele>
        <time>2022-08-01T16:58:44Z</time>
      </trkpt>
      <trkpt lat="45.80914" lon="1.64681">
        <ele>341.1</ele>
        <time>2022-08-01T16:58:46Z</time>
      </trkpt>
      <trkpt lat="45.80915" lon="1.64686">
        <ele>341.2</ele>
        <time>2022-08-01T16:58:48Z</time>
      </trkpt>
      <trkpt lat="45.80916" lon="1.64691">
        <ele>341.3</ele>
        <time>2022-08-01T16:58:50Z</time>
      </trkpt>
      <trkpt lat="45.80918" lon="1.64695">
        <ele>341.2</ele>
        <time>2022-08-01T16:58:52Z</time>
      </trkpt>
      <trkpt lat="45.80919" lon="1.647">
        <ele>341.4</ele>
        <time>2022-08-01T16:58:54Z</time>
      </trkpt>
      <trkpt lat="45.80919" lon="1.64705">
        <ele>341.8</ele>
        <time>2022-08-01T16:58:56Z</time>
      </trkpt>
      <trkpt lat="45.8092" lon="1.6471">
        <ele>342</ele>
        <time>2022-08-01T16:58:58Z</time>
      </trkpt>
      <trkpt lat="45.80922" lon="1.64715">
        <ele>342.1</ele>
        <time>2022-08-01T16:59:00Z</time>
      </trkpt>
      <trkpt lat="45.80923" lon="1.64718">
        <ele>342.2</ele>
        <time>2022-08-01T16:59:02Z</time>
      </trkpt>
      <trkpt lat="45.80923" lon="1.64719">
        <ele>342.2</ele>
        <time>2022-08-01T16:59:04Z</time>
      </trkpt>
      <trkpt lat="45.80924" lon="1.64719">
        <ele>342.1</ele>
        <time>2022-08-01T16:59:06Z</time>
      </trkpt>
      <trkpt lat="45.80924" lon="1.64719">
        <ele>342.1</ele>
        <time>2022-08-01T16:59:08Z</time>
      </trkpt>
      <trkpt lat="45.80922" lon="1.64719">
        <ele>342.4</ele>
        <time>2022-08-01T16:59:12Z</time>
      </trkpt>
      <trkpt lat="45.80927" lon="1.64737">
        <ele>343</ele>
        <time>2022-08-01T16:59:20Z</time>
      </trkpt>
      <trkpt lat="45.80928" lon="1.64742">
        <ele>343.2</ele>
        <time>2022-08-01T16:59:22Z</time>
      </trkpt>
      <trkpt lat="45.80929" lon="1.64746">
        <ele>343.3</ele>
        <time>2022-08-01T16:59:24Z</time>
      </trkpt>
      <trkpt lat="45.80929" lon="1.6475">
        <ele>343.5</ele>
        <time>2022-08-01T16:59:26Z</time>
      </trkpt>
      <trkpt lat="45.8093" lon="1.64753">
        <ele>343.6</ele>
        <time>2022-08-01T16:59:28Z</time>
      </trkpt>
      <trkpt lat="45.80932" lon="1.64758">
        <ele>343.7</ele>
        <time>2022-08-01T16:59:30Z</time>
      </trkpt>
      <trkpt lat="45.80933" lon="1.64762">
        <ele>343.8</ele>
        <time>2022-08-01T16:59:32Z</time>
      </trkpt>
      <trkpt lat="45.80934" lon="1.64767">
        <ele>344</ele>
        <time>2022-08-01T16:59:34Z</time>
      </trkpt>
      <trkpt lat="45.80935" lon="1.64772">
        <ele>344.3</ele>
        <time>2022-08-01T16:59:36Z</time>
      </trkpt>
      <trkpt lat="45.80937" lon="1.64776">
        <ele>344.3</ele>
        <time>2022-08-01T16:59:38Z</time>
      </trkpt>
      <trkpt lat="45.80939" lon="1.6478">
        <ele>344.3</ele>
        <time>2022-08-01T16:59:40Z</time>
      </trkpt>
      <trkpt lat="45.80939" lon="1.64784">
        <ele>344.7</ele>
        <time>2022-08-01T16:59:42Z</time>
      </trkpt>
      <trkpt lat="45.80941" lon="1.64788">
        <ele>344.6</ele>
        <time>2022-08-01T16:59:44Z</time>
      </trkpt>
      <trkpt lat="45.80943" lon="1.64792">
        <ele>344.7</ele>
        <time>2022-08-01T16:59:46Z</time>
      </trkpt>
      <trkpt lat="45.80945" lon="1.64796">
        <ele>344.7</ele>
        <time>2022-08-01T16:59:48Z</time>
      </trkpt>
      <trkpt lat="45.80944" lon="1.648">
        <ele>345.2</ele>
        <time>2022-08-01T16:59:50Z</time>
      </trkpt>
      <trkpt lat="45.80947" lon="1.64804">
        <ele>345</ele>
        <time>2022-08-01T16:59:52Z</time>
      </trkpt>
      <trkpt lat="45.80949" lon="1.64809">
        <ele>345.1</ele>
        <time>2022-08-01T16:59:54Z</time>
      </trkpt>
      <trkpt lat="45.8095" lon="1.64813">
        <ele>345.3</ele>
        <time>2022-08-01T16:59:56Z</time>
      </trkpt>
      <trkpt lat="45.80954" lon="1.64818">
        <ele>345</ele>
        <time>2022-08-01T16:59:58Z</time>
      </trkpt>
      <trkpt lat="45.80956" lon="1.64824">
        <ele>345.1</ele>
        <time>2022-08-01T17:00:00Z</time>
      </trkpt>
      <trkpt lat="45.80959" lon="1.64827">
        <ele>344.7</ele>
        <time>2022-08-01T17:00:02Z</time>
      </trkpt>
      <trkpt lat="45.80962" lon="1.64831">
        <ele>344.4</ele>
        <time>2022-08-01T17:00:04Z</time>
      </trkpt>
      <trkpt lat="45.80966" lon="1.64835">
        <ele>344.3</ele>
        <time>2022-08-01T17:00:06Z</time>
      </trkpt>
      <trkpt lat="45.8097" lon="1.64839">
        <ele>344.1</ele>
        <time>2022-08-01T17:00:08Z</time>
      </trkpt>
      <trkpt lat="45.80973" lon="1.64842">
        <ele>343.9</ele>
        <time>2022-08-01T17:00:10Z</time>
      </trkpt>
      <trkpt lat="45.80976" lon="1.64845">
        <ele>343.9</ele>
        <time>2022-08-01T17:00:12Z</time>
      </trkpt>
      <trkpt lat="45.80979" lon="1.64849">
        <ele>344</ele>
        <time>2022-08-01T17:00:14Z</time>
      </trkpt>
      <trkpt lat="45.80983" lon="1.64854">
        <ele>344.1</ele>
        <time>2022-08-01T17:00:16Z</time>
      </trkpt>
      <trkpt lat="45.80986" lon="1.6486">
        <ele>344.4</ele>
        <time>2022-08-01T17:00:18Z</time>
      </trkpt>
      <trkpt lat="45.8099" lon="1.64863">
        <ele>344.3</ele>
        <time>2022-08-01T17:00:20Z</time>
      </trkpt>
      <trkpt lat="45.80995" lon="1.64867">
        <ele>344</ele>
        <time>2022-08-01T17:00:22Z</time>
      </trkpt>
      <trkpt lat="45.80998" lon="1.64871">
        <ele>344.2</ele>
        <time>2022-08-01T17:00:24Z</time>
      </trkpt>
      <trkpt lat="45.81" lon="1.64874">
        <ele>344.4</ele>
        <time>2022-08-01T17:00:26Z</time>
      </trkpt>
      <trkpt lat="45.81003" lon="1.6488">
        <ele>345</ele>
        <time>2022-08-01T17:00:28Z</time>
      </trkpt>
      <trkpt lat="45.81004" lon="1.64885">
        <ele>345.7</ele>
        <time>2022-08-01T17:00:30Z</time>
      </trkpt>
      <trkpt lat="45.81006" lon="1.6489">
        <ele>346.1</ele>
        <time>2022-08-01T17:00:32Z</time>
      </trkpt>
      <trkpt lat="45.81006" lon="1.64893">
        <ele>346.7</ele>
        <time>2022-08-01T17:00:34Z</time>
      </trkpt>
      <trkpt lat="45.81008" lon="1.64894">
        <ele>346.5</ele>
        <time>2022-08-01T17:00:36Z</time>
      </trkpt>
      <trkpt lat="45.8101" lon="1.64893">
        <ele>346.2</ele>
        <time>2022-08-01T17:00:38Z</time>
      </trkpt>
      <trkpt lat="45.81009" lon="1.64894">
        <ele>346.4</ele>
        <time>2022-08-01T17:00:40Z</time>
      </trkpt>
      <trkpt lat="45.8101" lon="1.64894">
        <ele>346.3</ele>
        <time>2022-08-01T17:00:42Z</time>
      </trkpt>
      <trkpt lat="45.8101" lon="1.64895">
        <ele>346.4</ele>
        <time>2022-08-01T17:00:44Z</time>
      </trkpt>
      <trkpt lat="45.81025" lon="1.64912">
        <ele>346.3</ele>
        <time>2022-08-01T17:01:10Z</time>
      </trkpt>
      <trkpt lat="45.81028" lon="1.64916">
        <ele>346.6</ele>
        <time>2022-08-01T17:01:12Z</time>
      </trkpt>
      <trkpt lat="45.81032" lon="1.64921">
        <ele>346.4</ele>
        <time>2022-08-01T17:01:14Z</time>
      </trkpt>
      <trkpt lat="45.81035" lon="1.64926">
        <ele>346.3</ele>
        <time>2022-08-01T17:01:16Z</time>
      </trkpt>
      <trkpt lat="45.81038" lon="1.64931">
        <ele>346.3</ele>
        <time>2022-08-01T17:01:18Z</time>
      </trkpt>
      <trkpt lat="45.81042" lon="1.64935">
        <ele>346.1</ele>
        <time>2022-08-01T17:01:20Z</time>
      </trkpt>
      <trkpt lat="45.81045" lon="1.64939">
        <ele>346</ele>
        <time>2022-08-01T17:01:22Z</time>
      </trkpt>
      <trkpt lat="45.81048" lon="1.64943">
        <ele>345.9</ele>
        <time>2022-08-01T17:01:24Z</time>
      </trkpt>
      <trkpt lat="45.81051" lon="1.64948">
        <ele>346</ele>
        <time>2022-08-01T17:01:26Z</time>
      </trkpt>
      <trkpt lat="45.81055" lon="1.64953">
        <ele>345.8</ele>
        <time>2022-08-01T17:01:28Z</time>
      </trkpt>
      <trkpt lat="45.81059" lon="1.64956">
        <ele>345.5</ele>
        <time>2022-08-01T17:01:30Z</time>
      </trkpt>
      <trkpt lat="45.81063" lon="1.6496">
        <ele>345.3</ele>
        <time>2022-08-01T17:01:32Z</time>
      </trkpt>
      <trkpt lat="45.81067" lon="1.64963">
        <ele>345</ele>
        <time>2022-08-01T17:01:34Z</time>
      </trkpt>
      <trkpt lat="45.81071" lon="1.64965">
        <ele>344.4</ele>
        <time>2022-08-01T17:01:36Z</time>
      </trkpt>
      <trkpt lat="45.81076" lon="1.64967">
        <ele>343.9</ele>
        <time>2022-08-01T17:01:38Z</time>
      </trkpt>
      <trkpt lat="45.81081" lon="1.6497">
        <ele>343.5</ele>
        <time>2022-08-01T17:01:40Z</time>
      </trkpt>
      <trkpt lat="45.81086" lon="1.64972">
        <ele>343.1</ele>
        <time>2022-08-01T17:01:42Z</time>
      </trkpt>
      <trkpt lat="45.81091" lon="1.64975">
        <ele>343</ele>
        <time>2022-08-01T17:01:44Z</time>
      </trkpt>
      <trkpt lat="45.81096" lon="1.64977">
        <ele>342.8</ele>
        <time>2022-08-01T17:01:46Z</time>
      </trkpt>
      <trkpt lat="45.811" lon="1.64977">
        <ele>342.6</ele>
        <time>2022-08-01T17:01:48Z</time>
      </trkpt>
      <trkpt lat="45.81105" lon="1.6498">
        <ele>342.4</ele>
        <time>2022-08-01T17:01:50Z</time>
      </trkpt>
      <trkpt lat="45.81108" lon="1.6498">
        <ele>342.1</ele>
        <time>2022-08-01T17:01:52Z</time>
      </trkpt>
      <trkpt lat="45.81112" lon="1.64982">
        <ele>342</ele>
        <time>2022-08-01T17:01:54Z</time>
      </trkpt>
      <trkpt lat="45.81116" lon="1.64984">
        <ele>341.9</ele>
        <time>2022-08-01T17:01:56Z</time>
      </trkpt>
      <trkpt lat="45.81122" lon="1.64986">
        <ele>341.5</ele>
        <time>2022-08-01T17:01:58Z</time>
      </trkpt>
      <trkpt lat="45.81129" lon="1.64988">
        <ele>341.2</ele>
        <time>2022-08-01T17:02:00Z</time>
      </trkpt>
      <trkpt lat="45.81136" lon="1.64992">
        <ele>341</ele>
        <time>2022-08-01T17:02:02Z</time>
      </trkpt>
      <trkpt lat="45.8114" lon="1.64998">
        <ele>341.3</ele>
        <time>2022-08-01T17:02:04Z</time>
      </trkpt>
      <trkpt lat="45.81142" lon="1.65001">
        <ele>341.5</ele>
        <time>2022-08-01T17:02:06Z</time>
      </trkpt>
      <trkpt lat="45.81141" lon="1.65001">
        <ele>341.5</ele>
        <time>2022-08-01T17:02:08Z</time>
      </trkpt>
      <trkpt lat="45.81142" lon="1.65001">
        <ele>341.5</ele>
        <time>2022-08-01T17:02:10Z</time>
      </trkpt>
      <trkpt lat="45.81142" lon="1.65002">
        <ele>341.6</ele>
        <time>2022-08-01T17:02:12Z</time>
      </trkpt>
      <trkpt lat="45.81142" lon="1.65003">
        <ele>341.7</ele>
        <time>2022-08-01T17:02:14Z</time>
      </trkpt>
      <trkpt lat="45.81145" lon="1.65021">
        <ele>343.4</ele>
        <time>2022-08-01T17:07:16Z</time>
      </trkpt>
      <trkpt lat="45.81146" lon="1.65025">
        <ele>343.8</ele>
        <time>2022-08-01T17:07:18Z</time>
      </trkpt>
      <trkpt lat="45.81146" lon="1.6503">
        <ele>344.3</ele>
        <time>2022-08-01T17:07:20Z</time>
      </trkpt>
      <trkpt lat="45.81146" lon="1.65035">
        <ele>344.8</ele>
        <time>2022-08-01T17:07:22Z</time>
      </trkpt>
      <trkpt lat="45.81149" lon="1.65038">
        <ele>345</ele>
        <time>2022-08-01T17:07:24Z</time>
      </trkpt>
      <trkpt lat="45.81151" lon="1.65041">
        <ele>345.1</ele>
        <time>2022-08-01T17:07:26Z</time>
      </trkpt>
      <trkpt lat="45.81153" lon="1.65044">
        <ele>345.4</ele>
        <time>2022-08-01T17:07:28Z</time>
      </trkpt>
      <trkpt lat="45.81156" lon="1.65046">
        <ele>345.4</ele>
        <time>2022-08-01T17:07:30Z</time>
      </trkpt>
      <trkpt lat="45.81159" lon="1.65048">
        <ele>345.3</ele>
        <time>2022-08-01T17:07:32Z</time>
      </trkpt>
      <trkpt lat="45.81162" lon="1.6505">
        <ele>345.3</ele>
        <time>2022-08-01T17:07:34Z</time>
      </trkpt>
      <trkpt lat="45.81165" lon="1.6505">
        <ele>345.1</ele>
        <time>2022-08-01T17:07:36Z</time>
      </trkpt>
      <trkpt lat="45.81168" lon="1.65051">
        <ele>345.1</ele>
        <time>2022-08-01T17:07:38Z</time>
      </trkpt>
      <trkpt lat="45.8117" lon="1.65051">
        <ele>345.1</ele>
        <time>2022-08-01T17:07:40Z</time>
      </trkpt>
      <trkpt lat="45.81174" lon="1.65049">
        <ele>344.7</ele>
        <time>2022-08-01T17:07:42Z</time>
      </trkpt>
      <trkpt lat="45.81177" lon="1.65048">
        <ele>344.5</ele>
        <time>2022-08-01T17:07:44Z</time>
      </trkpt>
      <trkpt lat="45.8118" lon="1.65048">
        <ele>344.3</ele>
        <time>2022-08-01T17:07:46Z</time>
      </trkpt>
      <trkpt lat="45.81184" lon="1.65048">
        <ele>344.2</ele>
        <time>2022-08-01T17:07:48Z</time>
      </trkpt>
      <trkpt lat="45.81186" lon="1.65049">
        <ele>344.2</ele>
        <time>2022-08-01T17:07:50Z</time>
      </trkpt>
      <trkpt lat="45.8119" lon="1.6505">
        <ele>344.4</ele>
        <time>2022-08-01T17:07:52Z</time>
      </trkpt>
      <trkpt lat="45.81192" lon="1.65051">
        <ele>344.5</ele>
        <time>2022-08-01T17:07:54Z</time>
      </trkpt>
      <trkpt lat="45.81194" lon="1.65054">
        <ele>344.8</ele>
        <time>2022-08-01T17:07:56Z</time>
      </trkpt>
      <trkpt lat="45.81197" lon="1.65056">
        <ele>345.1</ele>
        <time>2022-08-01T17:07:58Z</time>
      </trkpt>
      <trkpt lat="45.81199" lon="1.65058">
        <ele>345.2</ele>
        <time>2022-08-01T17:08:00Z</time>
      </trkpt>
      <trkpt lat="45.81201" lon="1.65059">
        <ele>345.4</ele>
        <time>2022-08-01T17:08:02Z</time>
      </trkpt>
      <trkpt lat="45.81202" lon="1.65058">
        <ele>345.2</ele>
        <time>2022-08-01T17:08:04Z</time>
      </trkpt>
      <trkpt lat="45.81202" lon="1.65059">
        <ele>345.4</ele>
        <time>2022-08-01T17:08:08Z</time>
      </trkpt>
      <trkpt lat="45.81202" lon="1.6506">
        <ele>345.5</ele>
        <time>2022-08-01T17:08:10Z</time>
      </trkpt>
      <trkpt lat="45.81203" lon="1.65061">
        <ele>345.6</ele>
        <time>2022-08-01T17:08:12Z</time>
      </trkpt>
      <trkpt lat="45.81243" lon="1.65075">
        <ele>347.4</ele>
        <time>2022-08-01T17:09:58Z</time>
      </trkpt>
      <trkpt lat="45.8125" lon="1.65074">
        <ele>347.3</ele>
        <time>2022-08-01T17:10:00Z</time>
      </trkpt>
      <trkpt lat="45.81259" lon="1.65079">
        <ele>347.2</ele>
        <time>2022-08-01T17:10:02Z</time>
      </trkpt>
      <trkpt lat="45.81265" lon="1.65083">
        <ele>347.4</ele>
        <time>2022-08-01T17:10:04Z</time>
      </trkpt>
      <trkpt lat="45.81272" lon="1.65089">
        <ele>348</ele>
        <time>2022-08-01T17:10:06Z</time>
      </trkpt>
      <trkpt lat="45.81279" lon="1.65095">
        <ele>348.7</ele>
        <time>2022-08-01T17:10:08Z</time>
      </trkpt>
      <trkpt lat="45.81287" lon="1.65101">
        <ele>349.1</ele>
        <time>2022-08-01T17:10:10Z</time>
      </trkpt>
      <trkpt lat="45.81295" lon="1.65108">
        <ele>349.7</ele>
        <time>2022-08-01T17:10:12Z</time>
      </trkpt>
      <trkpt lat="45.81302" lon="1.65114">
        <ele>350</ele>
        <time>2022-08-01T17:10:14Z</time>
      </trkpt>
      <trkpt lat="45.81305" lon="1.65117">
        <ele>350.4</ele>
        <time>2022-08-01T17:10:16Z</time>
      </trkpt>
      <trkpt lat="45.81306" lon="1.65116">
        <ele>350</ele>
        <time>2022-08-01T17:10:18Z</time>
      </trkpt>
      <trkpt lat="45.81307" lon="1.65116">
        <ele>350</ele>
        <time>2022-08-01T17:10:20Z</time>
      </trkpt>
      <trkpt lat="45.81307" lon="1.65115">
        <ele>349.7</ele>
        <time>2022-08-01T17:10:22Z</time>
      </trkpt>
      <trkpt lat="45.81308" lon="1.65114">
        <ele>349.3</ele>
        <time>2022-08-01T17:10:24Z</time>
      </trkpt>
      <trkpt lat="45.81307" lon="1.65112">
        <ele>349.1</ele>
        <time>2022-08-01T17:10:26Z</time>
      </trkpt>
      <trkpt lat="45.81305" lon="1.65112">
        <ele>349.3</ele>
        <time>2022-08-01T17:10:28Z</time>
      </trkpt>
      <trkpt lat="45.81303" lon="1.65113">
        <ele>349.8</ele>
        <time>2022-08-01T17:10:30Z</time>
      </trkpt>
      <trkpt lat="45.81303" lon="1.65114">
        <ele>349.9</ele>
        <time>2022-08-01T17:10:32Z</time>
      </trkpt>
      <trkpt lat="45.81302" lon="1.65114">
        <ele>350.1</ele>
        <time>2022-08-01T17:10:34Z</time>
      </trkpt>
      <trkpt lat="45.81301" lon="1.65115">
        <ele>350.5</ele>
        <time>2022-08-01T17:10:36Z</time>
      </trkpt>
      <trkpt lat="45.81301" lon="1.65115">
        <ele>350.5</ele>
        <time>2022-08-01T17:10:38Z</time>
      </trkpt>
      <trkpt lat="45.81301" lon="1.65115">
        <ele>350.4</ele>
        <time>2022-08-01T17:10:40Z</time>
      </trkpt>
      <trkpt lat="45.813" lon="1.65113">
        <ele>350.1</ele>
        <time>2022-08-01T17:10:44Z</time>
      </trkpt>
      <trkpt lat="45.81299" lon="1.65114">
        <ele>350.6</ele>
        <time>2022-08-01T17:10:46Z</time>
      </trkpt>
      <trkpt lat="45.81299" lon="1.65114">
        <ele>350.6</ele>
        <time>2022-08-01T17:10:50Z</time>
      </trkpt>
      <trkpt lat="45.81299" lon="1.65113">
        <ele>350.2</ele>
        <time>2022-08-01T17:10:52Z</time>
      </trkpt>
      <trkpt lat="45.81299" lon="1.65113">
        <ele>350.3</ele>
        <time>2022-08-01T17:10:54Z</time>
      </trkpt>
      <trkpt lat="45.81299" lon="1.65112">
        <ele>350</ele>
        <time>2022-08-01T17:10:58Z</time>
      </trkpt>
      <trkpt lat="45.81299" lon="1.65112">
        <ele>350</ele>
        <time>2022-08-01T17:11:00Z</time>
      </trkpt>
      <trkpt lat="45.81299" lon="1.65112">
        <ele>350</ele>
        <time>2022-08-01T17:11:02Z</time>
      </trkpt>
      <trkpt lat="45.81301" lon="1.65112">
        <ele>349.8</ele>
        <time>2022-08-01T17:11:04Z</time>
      </trkpt>
      <trkpt lat="45.81298" lon="1.65118">
        <ele>351.6</ele>
        <time>2022-08-01T17:11:06Z</time>
      </trkpt>
      <trkpt lat="45.81297" lon="1.6512">
        <ele>352.2</ele>
        <time>2022-08-01T17:11:10Z</time>
      </trkpt>
      <trkpt lat="45.81298" lon="1.65122">
        <ele>352.4</ele>
        <time>2022-08-01T17:11:14Z</time>
      </trkpt>
      <trkpt lat="45.81298" lon="1.65123">
        <ele>352.7</ele>
        <time>2022-08-01T17:11:18Z</time>
      </trkpt>
      <trkpt lat="45.81298" lon="1.65121">
        <ele>352.2</ele>
        <time>2022-08-01T17:11:20Z</time>
      </trkpt>
      <trkpt lat="45.81297" lon="1.6512">
        <ele>352</ele>
        <time>2022-08-01T17:11:22Z</time>
      </trkpt>
      <trkpt lat="45.81296" lon="1.65118">
        <ele>351.8</ele>
        <time>2022-08-01T17:11:24Z</time>
      </trkpt>
      <trkpt lat="45.81296" lon="1.65115">
        <ele>351</ele>
        <time>2022-08-01T17:11:26Z</time>
      </trkpt>
      <trkpt lat="45.81294" lon="1.65115">
        <ele>351.3</ele>
        <time>2022-08-01T17:11:28Z</time>
      </trkpt>
      <trkpt lat="45.81295" lon="1.65115">
        <ele>351.1</ele>
        <time>2022-08-01T17:11:30Z</time>
      </trkpt>
      <trkpt lat="45.81296" lon="1.65115">
        <ele>351.3</ele>
        <time>2022-08-01T17:11:32Z</time>
      </trkpt>
      <trkpt lat="45.81298" lon="1.65114">
        <ele>350.6</ele>
        <time>2022-08-01T17:11:34Z</time>
      </trkpt>
      <trkpt lat="45.81299" lon="1.65113">
        <ele>350.1</ele>
        <time>2022-08-01T17:11:36Z</time>
      </trkpt>
      <trkpt lat="45.813" lon="1.65112">
        <ele>350.1</ele>
        <time>2022-08-01T17:11:38Z</time>
      </trkpt>
      <trkpt lat="45.81299" lon="1.6511">
        <ele>349.6</ele>
        <time>2022-08-01T17:11:40Z</time>
      </trkpt>
      <trkpt lat="45.81298" lon="1.6511">
        <ele>349.8</ele>
        <time>2022-08-01T17:11:42Z</time>
      </trkpt>
      <trkpt lat="45.81297" lon="1.6511">
        <ele>349.8</ele>
        <time>2022-08-01T17:11:44Z</time>
      </trkpt>
      <trkpt lat="45.81296" lon="1.65109">
        <ele>349.8</ele>
        <time>2022-08-01T17:11:46Z</time>
      </trkpt>
      <trkpt lat="45.81296" lon="1.65109">
        <ele>349.8</ele>
        <time>2022-08-01T17:11:48Z</time>
      </trkpt>
      <trkpt lat="45.81295" lon="1.65108">
        <ele>349.7</ele>
        <time>2022-08-01T17:11:50Z</time>
      </trkpt>
      <trkpt lat="45.81294" lon="1.65109">
        <ele>349.9</ele>
        <time>2022-08-01T17:11:52Z</time>
      </trkpt>
      <trkpt lat="45.81294" lon="1.65107">
        <ele>349.7</ele>
        <time>2022-08-01T17:11:56Z</time>
      </trkpt>
      <trkpt lat="45.81293" lon="1.65107">
        <ele>349.7</ele>
        <time>2022-08-01T17:11:58Z</time>
      </trkpt>
      <trkpt lat="45.81293" lon="1.65107">
        <ele>349.7</ele>
        <time>2022-08-01T17:12:00Z</time>
      </trkpt>
      <trkpt lat="45.81291" lon="1.65108">
        <ele>350.3</ele>
        <time>2022-08-01T17:12:02Z</time>
      </trkpt>
      <trkpt lat="45.8129" lon="1.6511">
        <ele>350.8</ele>
        <time>2022-08-01T17:12:04Z</time>
      </trkpt>
      <trkpt lat="45.8129" lon="1.6511">
        <ele>350.8</ele>
        <time>2022-08-01T17:12:06Z</time>
      </trkpt>
      <trkpt lat="45.8129" lon="1.6511">
        <ele>350.8</ele>
        <time>2022-08-01T17:12:10Z</time>
      </trkpt>
      <trkpt lat="45.81287" lon="1.65113">
        <ele>351.8</ele>
        <time>2022-08-01T17:12:12Z</time>
      </trkpt>
      <trkpt lat="45.81288" lon="1.65112">
        <ele>351.6</ele>
        <time>2022-08-01T17:12:14Z</time>
      </trkpt>
      <trkpt lat="45.81288" lon="1.65112">
        <ele>351.5</ele>
        <time>2022-08-01T17:12:16Z</time>
      </trkpt>
      <trkpt lat="45.81289" lon="1.65111">
        <ele>351.2</ele>
        <time>2022-08-01T17:12:18Z</time>
      </trkpt>
      <trkpt lat="45.8129" lon="1.65112">
        <ele>351.2</ele>
        <time>2022-08-01T17:12:20Z</time>
      </trkpt>
      <trkpt lat="45.8129" lon="1.65113">
        <ele>351.5</ele>
        <time>2022-08-01T17:12:22Z</time>
      </trkpt>
      <trkpt lat="45.81289" lon="1.65113">
        <ele>351.7</ele>
        <time>2022-08-01T17:12:24Z</time>
      </trkpt>
      <trkpt lat="45.81288" lon="1.65113">
        <ele>351.8</ele>
        <time>2022-08-01T17:12:26Z</time>
      </trkpt>
      <trkpt lat="45.81286" lon="1.65113">
        <ele>352</ele>
        <time>2022-08-01T17:12:28Z</time>
      </trkpt>
      <trkpt lat="45.81283" lon="1.6511">
        <ele>351.7</ele>
        <time>2022-08-01T17:12:30Z</time>
      </trkpt>
      <trkpt lat="45.81281" lon="1.65109">
        <ele>351.7</ele>
        <time>2022-08-01T17:12:32Z</time>
      </trkpt>
      <trkpt lat="45.81278" lon="1.65107">
        <ele>351.6</ele>
        <time>2022-08-01T17:12:34Z</time>
      </trkpt>
      <trkpt lat="45.81276" lon="1.65104">
        <ele>351.2</ele>
        <time>2022-08-01T17:12:36Z</time>
      </trkpt>
      <trkpt lat="45.81273" lon="1.65101">
        <ele>351</ele>
        <time>2022-08-01T17:12:38Z</time>
      </trkpt>
      <trkpt lat="45.8127" lon="1.65098">
        <ele>350.6</ele>
        <time>2022-08-01T17:12:40Z</time>
      </trkpt>
      <trkpt lat="45.81267" lon="1.65096">
        <ele>350.4</ele>
        <time>2022-08-01T17:12:42Z</time>
      </trkpt>
      <trkpt lat="45.81264" lon="1.65096">
        <ele>350.6</ele>
        <time>2022-08-01T17:12:44Z</time>
      </trkpt>
      <trkpt lat="45.81262" lon="1.65095">
        <ele>350.7</ele>
        <time>2022-08-01T17:12:46Z</time>
      </trkpt>
      <trkpt lat="45.81258" lon="1.6509">
        <ele>349.8</ele>
        <time>2022-08-01T17:12:48Z</time>
      </trkpt>
      <trkpt lat="45.81254" lon="1.65088">
        <ele>349.8</ele>
        <time>2022-08-01T17:12:50Z</time>
      </trkpt>
      <trkpt lat="45.81251" lon="1.65087">
        <ele>349.7</ele>
        <time>2022-08-01T17:12:52Z</time>
      </trkpt>
      <trkpt lat="45.81248" lon="1.65085">
        <ele>349.5</ele>
        <time>2022-08-01T17:12:54Z</time>
      </trkpt>
      <trkpt lat="45.81245" lon="1.65085">
        <ele>349.3</ele>
        <time>2022-08-01T17:12:56Z</time>
      </trkpt>
      <trkpt lat="45.81242" lon="1.65085">
        <ele>349.3</ele>
        <time>2022-08-01T17:12:58Z</time>
      </trkpt>
      <trkpt lat="45.81239" lon="1.65084">
        <ele>349.1</ele>
        <time>2022-08-01T17:13:00Z</time>
      </trkpt>
      <trkpt lat="45.81236" lon="1.65083">
        <ele>348.9</ele>
        <time>2022-08-01T17:13:02Z</time>
      </trkpt>
      <trkpt lat="45.81232" lon="1.65082">
        <ele>348.8</ele>
        <time>2022-08-01T17:13:04Z</time>
      </trkpt>
      <trkpt lat="45.81229" lon="1.65083">
        <ele>349</ele>
        <time>2022-08-01T17:13:06Z</time>
      </trkpt>
      <trkpt lat="45.81226" lon="1.65083">
        <ele>349</ele>
        <time>2022-08-01T17:13:08Z</time>
      </trkpt>
      <trkpt lat="45.81223" lon="1.65085">
        <ele>349.5</ele>
        <time>2022-08-01T17:13:10Z</time>
      </trkpt>
      <trkpt lat="45.8122" lon="1.65086">
        <ele>349.6</ele>
        <time>2022-08-01T17:13:12Z</time>
      </trkpt>
      <trkpt lat="45.81217" lon="1.65088">
        <ele>350</ele>
        <time>2022-08-01T17:13:14Z</time>
      </trkpt>
      <trkpt lat="45.81214" lon="1.6509">
        <ele>350.4</ele>
        <time>2022-08-01T17:13:16Z</time>
      </trkpt>
      <trkpt lat="45.81211" lon="1.65091">
        <ele>350.7</ele>
        <time>2022-08-01T17:13:18Z</time>
      </trkpt>
      <trkpt lat="45.81209" lon="1.65092">
        <ele>350.8</ele>
        <time>2022-08-01T17:13:20Z</time>
      </trkpt>
      <trkpt lat="45.81205" lon="1.65093">
        <ele>351.1</ele>
        <time>2022-08-01T17:13:22Z</time>
      </trkpt>
      <trkpt lat="45.81201" lon="1.65095">
        <ele>351.5</ele>
        <time>2022-08-01T17:13:24Z</time>
      </trkpt>
      <trkpt lat="45.81195" lon="1.65099">
        <ele>352.1</ele>
        <time>2022-08-01T17:13:28Z</time>
      </trkpt>
      <trkpt lat="45.81193" lon="1.651">
        <ele>352.4</ele>
        <time>2022-08-01T17:13:30Z</time>
      </trkpt>
      <trkpt lat="45.81191" lon="1.65102">
        <ele>352.6</ele>
        <time>2022-08-01T17:13:32Z</time>
      </trkpt>
      <trkpt lat="45.81188" lon="1.65104">
        <ele>352.9</ele>
        <time>2022-08-01T17:13:34Z</time>
      </trkpt>
      <trkpt lat="45.81185" lon="1.65106">
        <ele>353.4</ele>
        <time>2022-08-01T17:13:36Z</time>
      </trkpt>
      <trkpt lat="45.81182" lon="1.65109">
        <ele>353.9</ele>
        <time>2022-08-01T17:13:38Z</time>
      </trkpt>
      <trkpt lat="45.81179" lon="1.65113">
        <ele>354.4</ele>
        <time>2022-08-01T17:13:40Z</time>
      </trkpt>
      <trkpt lat="45.81176" lon="1.65116">
        <ele>354.8</ele>
        <time>2022-08-01T17:13:42Z</time>
      </trkpt>
      <trkpt lat="45.81173" lon="1.6512">
        <ele>355.4</ele>
        <time>2022-08-01T17:13:44Z</time>
      </trkpt>
      <trkpt lat="45.81171" lon="1.65124">
        <ele>356</ele>
        <time>2022-08-01T17:13:46Z</time>
      </trkpt>
      <trkpt lat="45.81168" lon="1.65128">
        <ele>356.6</ele>
        <time>2022-08-01T17:13:48Z</time>
      </trkpt>
      <trkpt lat="45.81166" lon="1.65131">
        <ele>357</ele>
        <time>2022-08-01T17:13:50Z</time>
      </trkpt>
      <trkpt lat="45.81163" lon="1.65136">
        <ele>357.7</ele>
        <time>2022-08-01T17:13:52Z</time>
      </trkpt>
      <trkpt lat="45.81161" lon="1.65139">
        <ele>358.1</ele>
        <time>2022-08-01T17:13:54Z</time>
      </trkpt>
      <trkpt lat="45.81158" lon="1.65142">
        <ele>358.5</ele>
        <time>2022-08-01T17:13:56Z</time>
      </trkpt>
      <trkpt lat="45.81156" lon="1.65146">
        <ele>359</ele>
        <time>2022-08-01T17:13:58Z</time>
      </trkpt>
      <trkpt lat="45.81153" lon="1.6515">
        <ele>359.3</ele>
        <time>2022-08-01T17:14:00Z</time>
      </trkpt>
      <trkpt lat="45.81151" lon="1.65154">
        <ele>359.7</ele>
        <time>2022-08-01T17:14:02Z</time>
      </trkpt>
      <trkpt lat="45.81148" lon="1.65158">
        <ele>360.1</ele>
        <time>2022-08-01T17:14:04Z</time>
      </trkpt>
      <trkpt lat="45.81146" lon="1.65162">
        <ele>360.5</ele>
        <time>2022-08-01T17:14:06Z</time>
      </trkpt>
      <trkpt lat="45.81143" lon="1.65167">
        <ele>360.8</ele>
        <time>2022-08-01T17:14:08Z</time>
      </trkpt>
      <trkpt lat="45.81141" lon="1.65172">
        <ele>360.8</ele>
        <time>2022-08-01T17:14:10Z</time>
      </trkpt>
      <trkpt lat="45.81139" lon="1.65177">
        <ele>360.7</ele>
        <time>2022-08-01T17:14:12Z</time>
      </trkpt>
      <trkpt lat="45.81137" lon="1.65181">
        <ele>360.7</ele>
        <time>2022-08-01T17:14:14Z</time>
      </trkpt>
      <trkpt lat="45.81135" lon="1.65186">
        <ele>360.8</ele>
        <time>2022-08-01T17:14:16Z</time>
      </trkpt>
      <trkpt lat="45.81133" lon="1.65191">
        <ele>360.8</ele>
        <time>2022-08-01T17:14:18Z</time>
      </trkpt>
      <trkpt lat="45.81132" lon="1.65196">
        <ele>360.9</ele>
        <time>2022-08-01T17:14:20Z</time>
      </trkpt>
      <trkpt lat="45.8113" lon="1.65201">
        <ele>360.9</ele>
        <time>2022-08-01T17:14:22Z</time>
      </trkpt>
      <trkpt lat="45.81128" lon="1.65207">
        <ele>360.8</ele>
        <time>2022-08-01T17:14:24Z</time>
      </trkpt>
      <trkpt lat="45.81126" lon="1.65212">
        <ele>360.7</ele>
        <time>2022-08-01T17:14:26Z</time>
      </trkpt>
      <trkpt lat="45.81125" lon="1.65217">
        <ele>360.7</ele>
        <time>2022-08-01T17:14:28Z</time>
      </trkpt>
      <trkpt lat="45.81103" lon="1.65286">
        <ele>359.9</ele>
        <time>2022-08-01T17:14:48Z</time>
      </trkpt>
      <trkpt lat="45.81101" lon="1.65292">
        <ele>359.7</ele>
        <time>2022-08-01T17:14:50Z</time>
      </trkpt>
      <trkpt lat="45.811" lon="1.65296">
        <ele>359.7</ele>
        <time>2022-08-01T17:14:52Z</time>
      </trkpt>
      <trkpt lat="45.81098" lon="1.653">
        <ele>359.6</ele>
        <time>2022-08-01T17:14:54Z</time>
      </trkpt>
      <trkpt lat="45.81096" lon="1.65306">
        <ele>359.5</ele>
        <time>2022-08-01T17:14:56Z</time>
      </trkpt>
      <trkpt lat="45.81094" lon="1.65311">
        <ele>359.5</ele>
        <time>2022-08-01T17:14:58Z</time>
      </trkpt>
      <trkpt lat="45.81093" lon="1.65316">
        <ele>359.5</ele>
        <time>2022-08-01T17:15:00Z</time>
      </trkpt>
      <trkpt lat="45.81093" lon="1.65321">
        <ele>359.6</ele>
        <time>2022-08-01T17:15:02Z</time>
      </trkpt>
      <trkpt lat="45.8109" lon="1.65327">
        <ele>359.5</ele>
        <time>2022-08-01T17:15:04Z</time>
      </trkpt>
      <trkpt lat="45.81088" lon="1.6533">
        <ele>359.5</ele>
        <time>2022-08-01T17:15:06Z</time>
      </trkpt>
      <trkpt lat="45.81087" lon="1.65335">
        <ele>359.5</ele>
        <time>2022-08-01T17:15:08Z</time>
      </trkpt>
      <trkpt lat="45.81086" lon="1.65339">
        <ele>359.6</ele>
        <time>2022-08-01T17:15:10Z</time>
      </trkpt>
      <trkpt lat="45.81084" lon="1.65344">
        <ele>359.7</ele>
        <time>2022-08-01T17:15:12Z</time>
      </trkpt>
      <trkpt lat="45.81083" lon="1.65348">
        <ele>359.9</ele>
        <time>2022-08-01T17:15:14Z</time>
      </trkpt>
      <trkpt lat="45.81081" lon="1.65352">
        <ele>360.3</ele>
        <time>2022-08-01T17:15:16Z</time>
      </trkpt>
      <trkpt lat="45.81079" lon="1.65357">
        <ele>360.6</ele>
        <time>2022-08-01T17:15:18Z</time>
      </trkpt>
      <trkpt lat="45.81077" lon="1.6536">
        <ele>360.9</ele>
        <time>2022-08-01T17:15:20Z</time>
      </trkpt>
      <trkpt lat="45.81076" lon="1.65364">
        <ele>361.3</ele>
        <time>2022-08-01T17:15:22Z</time>
      </trkpt>
      <trkpt lat="45.81073" lon="1.65368">
        <ele>361.6</ele>
        <time>2022-08-01T17:15:24Z</time>
      </trkpt>
      <trkpt lat="45.81071" lon="1.65372">
        <ele>361.9</ele>
        <time>2022-08-01T17:15:26Z</time>
      </trkpt>
      <trkpt lat="45.81069" lon="1.65375">
        <ele>362.2</ele>
        <time>2022-08-01T17:15:28Z</time>
      </trkpt>
      <trkpt lat="45.81067" lon="1.65378">
        <ele>362.4</ele>
        <time>2022-08-01T17:15:30Z</time>
      </trkpt>
      <trkpt lat="45.81064" lon="1.65381">
        <ele>362.7</ele>
        <time>2022-08-01T17:15:32Z</time>
      </trkpt>
      <trkpt lat="45.81062" lon="1.65383">
        <ele>363</ele>
        <time>2022-08-01T17:15:34Z</time>
      </trkpt>
      <trkpt lat="45.8106" lon="1.65386">
        <ele>363.2</ele>
        <time>2022-08-01T17:15:36Z</time>
      </trkpt>
      <trkpt lat="45.81057" lon="1.65386">
        <ele>363.3</ele>
        <time>2022-08-01T17:15:38Z</time>
      </trkpt>
      <trkpt lat="45.81055" lon="1.65387">
        <ele>363.5</ele>
        <time>2022-08-01T17:15:40Z</time>
      </trkpt>
      <trkpt lat="45.81052" lon="1.65388">
        <ele>363.6</ele>
        <time>2022-08-01T17:15:42Z</time>
      </trkpt>
      <trkpt lat="45.81049" lon="1.65389">
        <ele>363.8</ele>
        <time>2022-08-01T17:15:44Z</time>
      </trkpt>
      <trkpt lat="45.81046" lon="1.65389">
        <ele>363.9</ele>
        <time>2022-08-01T17:15:46Z</time>
      </trkpt>
      <trkpt lat="45.81043" lon="1.65389">
        <ele>364.1</ele>
        <time>2022-08-01T17:15:48Z</time>
      </trkpt>
      <trkpt lat="45.8104" lon="1.65389">
        <ele>364.2</ele>
        <time>2022-08-01T17:15:50Z</time>
      </trkpt>
      <trkpt lat="45.81036" lon="1.65389">
        <ele>364.4</ele>
        <time>2022-08-01T17:15:52Z</time>
      </trkpt>
      <trkpt lat="45.81033" lon="1.65387">
        <ele>364.4</ele>
        <time>2022-08-01T17:15:54Z</time>
      </trkpt>
      <trkpt lat="45.8103" lon="1.65386">
        <ele>364.6</ele>
        <time>2022-08-01T17:15:56Z</time>
      </trkpt>
      <trkpt lat="45.81026" lon="1.65384">
        <ele>364.6</ele>
        <time>2022-08-01T17:15:58Z</time>
      </trkpt>
      <trkpt lat="45.81023" lon="1.65383">
        <ele>364.7</ele>
        <time>2022-08-01T17:16:00Z</time>
      </trkpt>
      <trkpt lat="45.8102" lon="1.65381">
        <ele>364.8</ele>
        <time>2022-08-01T17:16:02Z</time>
      </trkpt>
      <trkpt lat="45.81017" lon="1.65379">
        <ele>364.8</ele>
        <time>2022-08-01T17:16:04Z</time>
      </trkpt>
      <trkpt lat="45.81014" lon="1.65378">
        <ele>365</ele>
        <time>2022-08-01T17:16:06Z</time>
      </trkpt>
      <trkpt lat="45.8101" lon="1.65376">
        <ele>365.1</ele>
        <time>2022-08-01T17:16:08Z</time>
      </trkpt>
      <trkpt lat="45.81007" lon="1.65376">
        <ele>365.2</ele>
        <time>2022-08-01T17:16:10Z</time>
      </trkpt>
      <trkpt lat="45.81004" lon="1.65376">
        <ele>365.3</ele>
        <time>2022-08-01T17:16:12Z</time>
      </trkpt>
      <trkpt lat="45.81002" lon="1.65375">
        <ele>365.4</ele>
        <time>2022-08-01T17:16:14Z</time>
      </trkpt>
      <trkpt lat="45.80999" lon="1.65376">
        <ele>365.7</ele>
        <time>2022-08-01T17:16:16Z</time>
      </trkpt>
      <trkpt lat="45.80997" lon="1.65377">
        <ele>366.2</ele>
        <time>2022-08-01T17:16:18Z</time>
      </trkpt>
      <trkpt lat="45.80995" lon="1.6538">
        <ele>366.7</ele>
        <time>2022-08-01T17:16:20Z</time>
      </trkpt>
      <trkpt lat="45.80993" lon="1.65383">
        <ele>367.2</ele>
        <time>2022-08-01T17:16:22Z</time>
      </trkpt>
      <trkpt lat="45.80992" lon="1.65387">
        <ele>367.5</ele>
        <time>2022-08-01T17:16:24Z</time>
      </trkpt>
      <trkpt lat="45.80993" lon="1.65391">
        <ele>367.4</ele>
        <time>2022-08-01T17:16:26Z</time>
      </trkpt>
      <trkpt lat="45.80995" lon="1.65395">
        <ele>367.1</ele>
        <time>2022-08-01T17:16:28Z</time>
      </trkpt>
      <trkpt lat="45.80998" lon="1.65399">
        <ele>366.8</ele>
        <time>2022-08-01T17:16:30Z</time>
      </trkpt>
      <trkpt lat="45.81" lon="1.65402">
        <ele>366.5</ele>
        <time>2022-08-01T17:16:32Z</time>
      </trkpt>
      <trkpt lat="45.81002" lon="1.65406">
        <ele>366.5</ele>
        <time>2022-08-01T17:16:34Z</time>
      </trkpt>
      <trkpt lat="45.81005" lon="1.6541">
        <ele>366.6</ele>
        <time>2022-08-01T17:16:36Z</time>
      </trkpt>
      <trkpt lat="45.81008" lon="1.65413">
        <ele>366.6</ele>
        <time>2022-08-01T17:16:38Z</time>
      </trkpt>
      <trkpt lat="45.8101" lon="1.65416">
        <ele>366.6</ele>
        <time>2022-08-01T17:16:40Z</time>
      </trkpt>
      <trkpt lat="45.81013" lon="1.65419">
        <ele>366.8</ele>
        <time>2022-08-01T17:16:42Z</time>
      </trkpt>
      <trkpt lat="45.81016" lon="1.65424">
        <ele>367.1</ele>
        <time>2022-08-01T17:16:44Z</time>
      </trkpt>
      <trkpt lat="45.81019" lon="1.65426">
        <ele>367.2</ele>
        <time>2022-08-01T17:16:46Z</time>
      </trkpt>
      <trkpt lat="45.81022" lon="1.65429">
        <ele>367.3</ele>
        <time>2022-08-01T17:16:48Z</time>
      </trkpt>
      <trkpt lat="45.81024" lon="1.65433">
        <ele>367.5</ele>
        <time>2022-08-01T17:16:50Z</time>
      </trkpt>
      <trkpt lat="45.81027" lon="1.65436">
        <ele>367.7</ele>
        <time>2022-08-01T17:16:52Z</time>
      </trkpt>
      <trkpt lat="45.81031" lon="1.65439">
        <ele>367.8</ele>
        <time>2022-08-01T17:16:54Z</time>
      </trkpt>
      <trkpt lat="45.81034" lon="1.65441">
        <ele>367.9</ele>
        <time>2022-08-01T17:16:56Z</time>
      </trkpt>
      <trkpt lat="45.81037" lon="1.65444">
        <ele>368</ele>
        <time>2022-08-01T17:16:58Z</time>
      </trkpt>
      <trkpt lat="45.8104" lon="1.65446">
        <ele>368</ele>
        <time>2022-08-01T17:17:00Z</time>
      </trkpt>
      <trkpt lat="45.81043" lon="1.65447">
        <ele>368</ele>
        <time>2022-08-01T17:17:02Z</time>
      </trkpt>
      <trkpt lat="45.81046" lon="1.65449">
        <ele>368.1</ele>
        <time>2022-08-01T17:17:04Z</time>
      </trkpt>
      <trkpt lat="45.81049" lon="1.65451">
        <ele>368.1</ele>
        <time>2022-08-01T17:17:06Z</time>
      </trkpt>
      <trkpt lat="45.81052" lon="1.65453">
        <ele>368</ele>
        <time>2022-08-01T17:17:08Z</time>
      </trkpt>
      <trkpt lat="45.81056" lon="1.65454">
        <ele>368</ele>
        <time>2022-08-01T17:17:10Z</time>
      </trkpt>
      <trkpt lat="45.8106" lon="1.65454">
        <ele>367.8</ele>
        <time>2022-08-01T17:17:12Z</time>
      </trkpt>
      <trkpt lat="45.81063" lon="1.65455">
        <ele>367.7</ele>
        <time>2022-08-01T17:17:14Z</time>
      </trkpt>
      <trkpt lat="45.81067" lon="1.65456">
        <ele>367.6</ele>
        <time>2022-08-01T17:17:16Z</time>
      </trkpt>
      <trkpt lat="45.81069" lon="1.65457">
        <ele>367.6</ele>
        <time>2022-08-01T17:17:18Z</time>
      </trkpt>
      <trkpt lat="45.81075" lon="1.65456">
        <ele>367.3</ele>
        <time>2022-08-01T17:17:20Z</time>
      </trkpt>
      <trkpt lat="45.81077" lon="1.65457">
        <ele>367.2</ele>
        <time>2022-08-01T17:17:22Z</time>
      </trkpt>
      <trkpt lat="45.81081" lon="1.65459">
        <ele>367.1</ele>
        <time>2022-08-01T17:17:24Z</time>
      </trkpt>
      <trkpt lat="45.81085" lon="1.65459">
        <ele>367.1</ele>
        <time>2022-08-01T17:17:26Z</time>
      </trkpt>
      <trkpt lat="45.81088" lon="1.65459">
        <ele>367.1</ele>
        <time>2022-08-01T17:17:28Z</time>
      </trkpt>
      <trkpt lat="45.81092" lon="1.6546">
        <ele>367.2</ele>
        <time>2022-08-01T17:17:30Z</time>
      </trkpt>
      <trkpt lat="45.81096" lon="1.65461">
        <ele>367.4</ele>
        <time>2022-08-01T17:17:32Z</time>
      </trkpt>
      <trkpt lat="45.811" lon="1.6546">
        <ele>367.4</ele>
        <time>2022-08-01T17:17:34Z</time>
      </trkpt>
      <trkpt lat="45.81104" lon="1.65461">
        <ele>367.5</ele>
        <time>2022-08-01T17:17:36Z</time>
      </trkpt>
      <trkpt lat="45.81107" lon="1.65463">
        <ele>367.7</ele>
        <time>2022-08-01T17:17:38Z</time>
      </trkpt>
      <trkpt lat="45.81111" lon="1.65464">
        <ele>367.7</ele>
        <time>2022-08-01T17:17:40Z</time>
      </trkpt>
      <trkpt lat="45.81115" lon="1.65465">
        <ele>367.8</ele>
        <time>2022-08-01T17:17:42Z</time>
      </trkpt>
      <trkpt lat="45.81119" lon="1.65467">
        <ele>368</ele>
        <time>2022-08-01T17:17:44Z</time>
      </trkpt>
      <trkpt lat="45.81123" lon="1.65469">
        <ele>368.1</ele>
        <time>2022-08-01T17:17:46Z</time>
      </trkpt>
      <trkpt lat="45.81127" lon="1.65472">
        <ele>368.2</ele>
        <time>2022-08-01T17:17:48Z</time>
      </trkpt>
      <trkpt lat="45.8113" lon="1.65474">
        <ele>368.2</ele>
        <time>2022-08-01T17:17:50Z</time>
      </trkpt>
      <trkpt lat="45.81133" lon="1.65478">
        <ele>368.3</ele>
        <time>2022-08-01T17:17:52Z</time>
      </trkpt>
      <trkpt lat="45.81136" lon="1.65481">
        <ele>368.4</ele>
        <time>2022-08-01T17:17:54Z</time>
      </trkpt>
      <trkpt lat="45.81138" lon="1.65485">
        <ele>368.4</ele>
        <time>2022-08-01T17:17:56Z</time>
      </trkpt>
      <trkpt lat="45.81141" lon="1.65489">
        <ele>368.5</ele>
        <time>2022-08-01T17:17:58Z</time>
      </trkpt>
      <trkpt lat="45.81143" lon="1.65492">
        <ele>368.5</ele>
        <time>2022-08-01T17:18:00Z</time>
      </trkpt>
      <trkpt lat="45.81144" lon="1.65494">
        <ele>368.5</ele>
        <time>2022-08-01T17:18:02Z</time>
      </trkpt>
      <trkpt lat="45.81144" lon="1.65497">
        <ele>368.5</ele>
        <time>2022-08-01T17:18:04Z</time>
      </trkpt>
      <trkpt lat="45.81145" lon="1.65498">
        <ele>368.5</ele>
        <time>2022-08-01T17:18:06Z</time>
      </trkpt>
      <trkpt lat="45.81145" lon="1.65498">
        <ele>368.5</ele>
        <time>2022-08-01T17:18:08Z</time>
      </trkpt>
      <trkpt lat="45.81145" lon="1.65498">
        <ele>368.5</ele>
        <time>2022-08-01T17:18:10Z</time>
      </trkpt>
      <trkpt lat="45.81153" lon="1.65527">
        <ele>368.3</ele>
        <time>2022-08-01T17:21:44Z</time>
      </trkpt>
      <trkpt lat="45.81154" lon="1.65534">
        <ele>368.2</ele>
        <time>2022-08-01T17:21:46Z</time>
      </trkpt>
      <trkpt lat="45.81154" lon="1.65541">
        <ele>368.2</ele>
        <time>2022-08-01T17:21:48Z</time>
      </trkpt>
      <trkpt lat="45.81155" lon="1.65548">
        <ele>368.1</ele>
        <time>2022-08-01T17:21:50Z</time>
      </trkpt>
      <trkpt lat="45.81156" lon="1.65555">
        <ele>368</ele>
        <time>2022-08-01T17:21:52Z</time>
      </trkpt>
      <trkpt lat="45.81157" lon="1.65562">
        <ele>367.9</ele>
        <time>2022-08-01T17:21:54Z</time>
      </trkpt>
      <trkpt lat="45.81159" lon="1.6557">
        <ele>367.8</ele>
        <time>2022-08-01T17:21:56Z</time>
      </trkpt>
      <trkpt lat="45.8116" lon="1.65579">
        <ele>367.6</ele>
        <time>2022-08-01T17:21:58Z</time>
      </trkpt>
      <trkpt lat="45.81161" lon="1.65587">
        <ele>367.7</ele>
        <time>2022-08-01T17:22:00Z</time>
      </trkpt>
      <trkpt lat="45.81162" lon="1.65596">
        <ele>368</ele>
        <time>2022-08-01T17:22:02Z</time>
      </trkpt>
      <trkpt lat="45.81163" lon="1.65605">
        <ele>368.3</ele>
        <time>2022-08-01T17:22:04Z</time>
      </trkpt>
      <trkpt lat="45.81165" lon="1.65613">
        <ele>368.6</ele>
        <time>2022-08-01T17:22:06Z</time>
      </trkpt>
      <trkpt lat="45.81167" lon="1.6562">
        <ele>368.8</ele>
        <time>2022-08-01T17:22:08Z</time>
      </trkpt>
      <trkpt lat="45.81168" lon="1.65626">
        <ele>369</ele>
        <time>2022-08-01T17:22:10Z</time>
      </trkpt>
      <trkpt lat="45.81168" lon="1.65632">
        <ele>369.2</ele>
        <time>2022-08-01T17:22:12Z</time>
      </trkpt>
      <trkpt lat="45.81169" lon="1.65636">
        <ele>369.4</ele>
        <time>2022-08-01T17:22:14Z</time>
      </trkpt>
      <trkpt lat="45.8117" lon="1.65641">
        <ele>369.6</ele>
        <time>2022-08-01T17:22:16Z</time>
      </trkpt>
      <trkpt lat="45.81171" lon="1.65646">
        <ele>369.8</ele>
        <time>2022-08-01T17:22:18Z</time>
      </trkpt>
      <trkpt lat="45.81172" lon="1.65653">
        <ele>370</ele>
        <time>2022-08-01T17:22:20Z</time>
      </trkpt>
      <trkpt lat="45.81173" lon="1.65658">
        <ele>370.2</ele>
        <time>2022-08-01T17:22:22Z</time>
      </trkpt>
      <trkpt lat="45.81175" lon="1.65663">
        <ele>370.3</ele>
        <time>2022-08-01T17:22:24Z</time>
      </trkpt>
      <trkpt lat="45.81178" lon="1.65668">
        <ele>370.4</ele>
        <time>2022-08-01T17:22:26Z</time>
      </trkpt>
      <trkpt lat="45.81179" lon="1.65673">
        <ele>370.7</ele>
        <time>2022-08-01T17:22:28Z</time>
      </trkpt>
      <trkpt lat="45.81182" lon="1.65678">
        <ele>370.9</ele>
        <time>2022-08-01T17:22:30Z</time>
      </trkpt>
      <trkpt lat="45.81186" lon="1.65683">
        <ele>370.9</ele>
        <time>2022-08-01T17:22:32Z</time>
      </trkpt>
      <trkpt lat="45.81191" lon="1.65687">
        <ele>370.9</ele>
        <time>2022-08-01T17:22:34Z</time>
      </trkpt>
      <trkpt lat="45.81197" lon="1.6569">
        <ele>370.6</ele>
        <time>2022-08-01T17:22:36Z</time>
      </trkpt>
      <trkpt lat="45.81204" lon="1.65693">
        <ele>370.4</ele>
        <time>2022-08-01T17:22:38Z</time>
      </trkpt>
      <trkpt lat="45.81211" lon="1.65695">
        <ele>370</ele>
        <time>2022-08-01T17:22:40Z</time>
      </trkpt>
      <trkpt lat="45.81219" lon="1.65697">
        <ele>369.5</ele>
        <time>2022-08-01T17:22:42Z</time>
      </trkpt>
      <trkpt lat="45.81229" lon="1.657">
        <ele>369.1</ele>
        <time>2022-08-01T17:22:44Z</time>
      </trkpt>
      <trkpt lat="45.81239" lon="1.65704">
        <ele>368.6</ele>
        <time>2022-08-01T17:22:46Z</time>
      </trkpt>
      <trkpt lat="45.8125" lon="1.65707">
        <ele>368</ele>
        <time>2022-08-01T17:22:48Z</time>
      </trkpt>
      <trkpt lat="45.81262" lon="1.65714">
        <ele>367</ele>
        <time>2022-08-01T17:22:50Z</time>
      </trkpt>
      <trkpt lat="45.81274" lon="1.65722">
        <ele>366.1</ele>
        <time>2022-08-01T17:22:52Z</time>
      </trkpt>
      <trkpt lat="45.81286" lon="1.65732">
        <ele>365.3</ele>
        <time>2022-08-01T17:22:54Z</time>
      </trkpt>
      <trkpt lat="45.81299" lon="1.65743">
        <ele>364.4</ele>
        <time>2022-08-01T17:22:56Z</time>
      </trkpt>
      <trkpt lat="45.81312" lon="1.65753">
        <ele>363.6</ele>
        <time>2022-08-01T17:22:58Z</time>
      </trkpt>
      <trkpt lat="45.81325" lon="1.65764">
        <ele>363</ele>
        <time>2022-08-01T17:23:00Z</time>
      </trkpt>
      <trkpt lat="45.81338" lon="1.65774">
        <ele>362.4</ele>
        <time>2022-08-01T17:23:02Z</time>
      </trkpt>
      <trkpt lat="45.81352" lon="1.65784">
        <ele>361.7</ele>
        <time>2022-08-01T17:23:04Z</time>
      </trkpt>
      <trkpt lat="45.81363" lon="1.65797">
        <ele>361.1</ele>
        <time>2022-08-01T17:23:06Z</time>
      </trkpt>
      <trkpt lat="45.81372" lon="1.65815">
        <ele>360.9</ele>
        <time>2022-08-01T17:23:08Z</time>
      </trkpt>
      <trkpt lat="45.81378" lon="1.65835">
        <ele>361.1</ele>
        <time>2022-08-01T17:23:10Z</time>
      </trkpt>
      <trkpt lat="45.81385" lon="1.65856">
        <ele>361.1</ele>
        <time>2022-08-01T17:23:12Z</time>
      </trkpt>
      <trkpt lat="45.81393" lon="1.65876">
        <ele>360.7</ele>
        <time>2022-08-01T17:23:14Z</time>
      </trkpt>
      <trkpt lat="45.81402" lon="1.65897">
        <ele>360</ele>
        <time>2022-08-01T17:23:16Z</time>
      </trkpt>
      <trkpt lat="45.81411" lon="1.65917">
        <ele>359.1</ele>
        <time>2022-08-01T17:23:18Z</time>
      </trkpt>
      <trkpt lat="45.8142" lon="1.65938">
        <ele>359.3</ele>
        <time>2022-08-01T17:23:20Z</time>
      </trkpt>
      <trkpt lat="45.81429" lon="1.65959">
        <ele>359.3</ele>
        <time>2022-08-01T17:23:22Z</time>
      </trkpt>
      <trkpt lat="45.81437" lon="1.6598">
        <ele>358.9</ele>
        <time>2022-08-01T17:23:24Z</time>
      </trkpt>
      <trkpt lat="45.81446" lon="1.66001">
        <ele>357.9</ele>
        <time>2022-08-01T17:23:26Z</time>
      </trkpt>
      <trkpt lat="45.81457" lon="1.66021">
        <ele>357.1</ele>
        <time>2022-08-01T17:23:28Z</time>
      </trkpt>
      <trkpt lat="45.81469" lon="1.66038">
        <ele>355.9</ele>
        <time>2022-08-01T17:23:30Z</time>
      </trkpt>
      <trkpt lat="45.81481" lon="1.66055">
        <ele>354.8</ele>
        <time>2022-08-01T17:23:32Z</time>
      </trkpt>
      <trkpt lat="45.81493" lon="1.66073">
        <ele>354.3</ele>
        <time>2022-08-01T17:23:34Z</time>
      </trkpt>
      <trkpt lat="45.81501" lon="1.66093">
        <ele>354.1</ele>
        <time>2022-08-01T17:23:36Z</time>
      </trkpt>
      <trkpt lat="45.81507" lon="1.66111">
        <ele>353.9</ele>
        <time>2022-08-01T17:23:38Z</time>
      </trkpt>
      <trkpt lat="45.81513" lon="1.66126">
        <ele>353.4</ele>
        <time>2022-08-01T17:23:40Z</time>
      </trkpt>
      <trkpt lat="45.81518" lon="1.66139">
        <ele>353.1</ele>
        <time>2022-08-01T17:23:42Z</time>
      </trkpt>
      <trkpt lat="45.81521" lon="1.66151">
        <ele>352.9</ele>
        <time>2022-08-01T17:23:44Z</time>
      </trkpt>
      <trkpt lat="45.81526" lon="1.66161">
        <ele>352.4</ele>
        <time>2022-08-01T17:23:46Z</time>
      </trkpt>
      <trkpt lat="45.81533" lon="1.66167">
        <ele>351.6</ele>
        <time>2022-08-01T17:23:48Z</time>
      </trkpt>
      <trkpt lat="45.81538" lon="1.66171">
        <ele>351.2</ele>
        <time>2022-08-01T17:23:50Z</time>
      </trkpt>
      <trkpt lat="45.81542" lon="1.66177">
        <ele>350.9</ele>
        <time>2022-08-01T17:23:52Z</time>
      </trkpt>
      <trkpt lat="45.81548" lon="1.66189">
        <ele>350.4</ele>
        <time>2022-08-01T17:23:54Z</time>
      </trkpt>
      <trkpt lat="45.81552" lon="1.66203">
        <ele>350.2</ele>
        <time>2022-08-01T17:23:56Z</time>
      </trkpt>
      <trkpt lat="45.81552" lon="1.6621">
        <ele>350.5</ele>
        <time>2022-08-01T17:23:58Z</time>
      </trkpt>
      <trkpt lat="45.81547" lon="1.66218">
        <ele>351.6</ele>
        <time>2022-08-01T17:24:00Z</time>
      </trkpt>
      <trkpt lat="45.81544" lon="1.66226">
        <ele>352.6</ele>
        <time>2022-08-01T17:24:02Z</time>
      </trkpt>
      <trkpt lat="45.81559" lon="1.66212">
        <ele>349.4</ele>
        <time>2022-08-01T17:24:04Z</time>
      </trkpt>
      <trkpt lat="45.81558" lon="1.66213">
        <ele>349.5</ele>
        <time>2022-08-01T17:24:08Z</time>
      </trkpt>
      <trkpt lat="45.8156" lon="1.66214">
        <ele>349.2</ele>
        <time>2022-08-01T17:24:10Z</time>
      </trkpt>
      <trkpt lat="45.81562" lon="1.66216">
        <ele>348.9</ele>
        <time>2022-08-01T17:24:12Z</time>
      </trkpt>
      <trkpt lat="45.81566" lon="1.66222">
        <ele>348.3</ele>
        <time>2022-08-01T17:24:14Z</time>
      </trkpt>
      <trkpt lat="45.8157" lon="1.66229">
        <ele>347.6</ele>
        <time>2022-08-01T17:24:16Z</time>
      </trkpt>
      <trkpt lat="45.81574" lon="1.66236">
        <ele>346.9</ele>
        <time>2022-08-01T17:24:18Z</time>
      </trkpt>
      <trkpt lat="45.81578" lon="1.66241">
        <ele>346</ele>
        <time>2022-08-01T17:24:20Z</time>
      </trkpt>
      <trkpt lat="45.81582" lon="1.66249">
        <ele>345.2</ele>
        <time>2022-08-01T17:24:22Z</time>
      </trkpt>
      <trkpt lat="45.81587" lon="1.66255">
        <ele>345.3</ele>
        <time>2022-08-01T17:24:24Z</time>
      </trkpt>
      <trkpt lat="45.81589" lon="1.6626">
        <ele>345.7</ele>
        <time>2022-08-01T17:24:26Z</time>
      </trkpt>
      <trkpt lat="45.81588" lon="1.66261">
        <ele>345.7</ele>
        <time>2022-08-01T17:24:28Z</time>
      </trkpt>
      <trkpt lat="45.81588" lon="1.6626">
        <ele>345.7</ele>
        <time>2022-08-01T17:24:30Z</time>
      </trkpt>
      <trkpt lat="45.8159" lon="1.6626">
        <ele>345.6</ele>
        <time>2022-08-01T17:24:34Z</time>
      </trkpt>
      <trkpt lat="45.81589" lon="1.66258">
        <ele>345.6</ele>
        <time>2022-08-01T17:24:36Z</time>
      </trkpt>
    </trkseg>
      <trkpt lat="45.8155" lon="1.66207">
        <ele>350.8</ele>
        <time>2022-08-02T07:00:18Z</time>
      </trkpt>
      <trkpt lat="45.81562" lon="1.66211">
        <ele>348.8</ele>
        <time>2022-08-02T07:00:19Z</time>
      </trkpt>
      <trkpt lat="45.81557" lon="1.66207">
        <ele>349.6</ele>
        <time>2022-08-02T07:01:10Z</time>
      </trkpt>
      <trkpt lat="45.81555" lon="1.66203">
        <ele>349.8</ele>
        <time>2022-08-02T07:01:12Z</time>
      </trkpt>
      <trkpt lat="45.81553" lon="1.66199">
        <ele>350.1</ele>
        <time>2022-08-02T07:01:14Z</time>
      </trkpt>
      <trkpt lat="45.8155" lon="1.66194">
        <ele>350.3</ele>
        <time>2022-08-02T07:01:16Z</time>
      </trkpt>
      <trkpt lat="45.81549" lon="1.66189">
        <ele>350.4</ele>
        <time>2022-08-02T07:01:18Z</time>
      </trkpt>
      <trkpt lat="45.81545" lon="1.66186">
        <ele>350.7</ele>
        <time>2022-08-02T07:01:20Z</time>
      </trkpt>
      <trkpt lat="45.81543" lon="1.66183">
        <ele>350.9</ele>
        <time>2022-08-02T07:01:22Z</time>
      </trkpt>
      <trkpt lat="45.81542" lon="1.6618">
        <ele>351</ele>
        <time>2022-08-02T07:01:24Z</time>
      </trkpt>
      <trkpt lat="45.8154" lon="1.66179">
        <ele>351.2</ele>
        <time>2022-08-02T07:01:26Z</time>
      </trkpt>
      <trkpt lat="45.81539" lon="1.66175">
        <ele>351.3</ele>
        <time>2022-08-02T07:01:28Z</time>
      </trkpt>
      <trkpt lat="45.81537" lon="1.66173">
        <ele>351.4</ele>
        <time>2022-08-02T07:01:30Z</time>
      </trkpt>
      <trkpt lat="45.81537" lon="1.6617">
        <ele>351.3</ele>
        <time>2022-08-02T07:01:32Z</time>
      </trkpt>
      <trkpt lat="45.81535" lon="1.66168">
        <ele>351.5</ele>
        <time>2022-08-02T07:01:34Z</time>
      </trkpt>
      <trkpt lat="45.81533" lon="1.66167">
        <ele>351.6</ele>
        <time>2022-08-02T07:01:36Z</time>
      </trkpt>
      <trkpt lat="45.81532" lon="1.66164">
        <ele>351.7</ele>
        <time>2022-08-02T07:01:38Z</time>
      </trkpt>
      <trkpt lat="45.81524" lon="1.6615">
        <ele>352.5</ele>
        <time>2022-08-02T07:01:46Z</time>
      </trkpt>
      <trkpt lat="45.81523" lon="1.66146">
        <ele>352.7</ele>
        <time>2022-08-02T07:01:48Z</time>
      </trkpt>
      <trkpt lat="45.8152" lon="1.66139">
        <ele>352.8</ele>
        <time>2022-08-02T07:01:50Z</time>
      </trkpt>
      <trkpt lat="45.81517" lon="1.66135">
        <ele>353.1</ele>
        <time>2022-08-02T07:01:52Z</time>
      </trkpt>
      <trkpt lat="45.81514" lon="1.66129">
        <ele>353.4</ele>
        <time>2022-08-02T07:01:54Z</time>
      </trkpt>
      <trkpt lat="45.81513" lon="1.66123">
        <ele>353.3</ele>
        <time>2022-08-02T07:01:56Z</time>
      </trkpt>
      <trkpt lat="45.8151" lon="1.66118">
        <ele>353.6</ele>
        <time>2022-08-02T07:01:58Z</time>
      </trkpt>
      <trkpt lat="45.81509" lon="1.66112">
        <ele>353.6</ele>
        <time>2022-08-02T07:02:00Z</time>
      </trkpt>
      <trkpt lat="45.81507" lon="1.66107">
        <ele>353.7</ele>
        <time>2022-08-02T07:02:02Z</time>
      </trkpt>
      <trkpt lat="45.81505" lon="1.66101">
        <ele>353.9</ele>
        <time>2022-08-02T07:02:04Z</time>
      </trkpt>
      <trkpt lat="45.81502" lon="1.66096">
        <ele>354</ele>
        <time>2022-08-02T07:02:06Z</time>
      </trkpt>
      <trkpt lat="45.815" lon="1.66092">
        <ele>354.2</ele>
        <time>2022-08-02T07:02:08Z</time>
      </trkpt>
      <trkpt lat="45.81498" lon="1.66087">
        <ele>354.4</ele>
        <time>2022-08-02T07:02:10Z</time>
      </trkpt>
      <trkpt lat="45.81496" lon="1.66083">
        <ele>354.7</ele>
        <time>2022-08-02T07:02:12Z</time>
      </trkpt>
      <trkpt lat="45.81494" lon="1.66078">
        <ele>354.7</ele>
        <time>2022-08-02T07:02:14Z</time>
      </trkpt>
      <trkpt lat="45.81492" lon="1.66074">
        <ele>354.5</ele>
        <time>2022-08-02T07:02:16Z</time>
      </trkpt>
      <trkpt lat="45.8149" lon="1.66069">
        <ele>354.5</ele>
        <time>2022-08-02T07:02:18Z</time>
      </trkpt>
      <trkpt lat="45.81488" lon="1.66066">
        <ele>354.6</ele>
        <time>2022-08-02T07:02:20Z</time>
      </trkpt>
      <trkpt lat="45.81485" lon="1.66062">
        <ele>354.8</ele>
        <time>2022-08-02T07:02:22Z</time>
      </trkpt>
      <trkpt lat="45.81483" lon="1.66058">
        <ele>354.8</ele>
        <time>2022-08-02T07:02:24Z</time>
      </trkpt>
      <trkpt lat="45.81481" lon="1.66055">
        <ele>354.9</ele>
        <time>2022-08-02T07:02:26Z</time>
      </trkpt>
      <trkpt lat="45.81479" lon="1.66052">
        <ele>355.1</ele>
        <time>2022-08-02T07:02:28Z</time>
      </trkpt>
      <trkpt lat="45.81477" lon="1.66049">
        <ele>355.1</ele>
        <time>2022-08-02T07:02:30Z</time>
      </trkpt>
      <trkpt lat="45.81476" lon="1.66046">
        <ele>355.2</ele>
        <time>2022-08-02T07:02:32Z</time>
      </trkpt>
      <trkpt lat="45.81474" lon="1.66042">
        <ele>355.2</ele>
        <time>2022-08-02T07:02:34Z</time>
      </trkpt>
      <trkpt lat="45.81472" lon="1.6604">
        <ele>355.5</ele>
        <time>2022-08-02T07:02:36Z</time>
      </trkpt>
      <trkpt lat="45.8147" lon="1.66036">
        <ele>355.6</ele>
        <time>2022-08-02T07:02:38Z</time>
      </trkpt>
      <trkpt lat="45.81468" lon="1.66033">
        <ele>355.6</ele>
        <time>2022-08-02T07:02:40Z</time>
      </trkpt>
      <trkpt lat="45.81466" lon="1.6603">
        <ele>355.8</ele>
        <time>2022-08-02T07:02:42Z</time>
      </trkpt>
      <trkpt lat="45.81463" lon="1.66027">
        <ele>356.2</ele>
        <time>2022-08-02T07:02:44Z</time>
      </trkpt>
      <trkpt lat="45.81461" lon="1.66023">
        <ele>356.2</ele>
        <time>2022-08-02T07:02:46Z</time>
      </trkpt>
      <trkpt lat="45.81459" lon="1.66018">
        <ele>356.3</ele>
        <time>2022-08-02T07:02:48Z</time>
      </trkpt>
      <trkpt lat="45.81457" lon="1.66015">
        <ele>356.5</ele>
        <time>2022-08-02T07:02:50Z</time>
      </trkpt>
      <trkpt lat="45.81455" lon="1.66013">
        <ele>356.9</ele>
        <time>2022-08-02T07:02:52Z</time>
      </trkpt>
      <trkpt lat="45.81453" lon="1.66009">
        <ele>357.1</ele>
        <time>2022-08-02T07:02:54Z</time>
      </trkpt>
      <trkpt lat="45.81451" lon="1.66004">
        <ele>357</ele>
        <time>2022-08-02T07:02:56Z</time>
      </trkpt>
      <trkpt lat="45.8145" lon="1.65998">
        <ele>357</ele>
        <time>2022-08-02T07:02:58Z</time>
      </trkpt>
      <trkpt lat="45.81448" lon="1.65994">
        <ele>357.4</ele>
        <time>2022-08-02T07:03:00Z</time>
      </trkpt>
      <trkpt lat="45.81445" lon="1.65991">
        <ele>357.8</ele>
        <time>2022-08-02T07:03:02Z</time>
      </trkpt>
      <trkpt lat="45.81443" lon="1.65987">
        <ele>358.1</ele>
        <time>2022-08-02T07:03:04Z</time>
      </trkpt>
      <trkpt lat="45.81441" lon="1.65982">
        <ele>358.3</ele>
        <time>2022-08-02T07:03:06Z</time>
      </trkpt>
      <trkpt lat="45.81439" lon="1.65977">
        <ele>358.5</ele>
        <time>2022-08-02T07:03:08Z</time>
      </trkpt>
      <trkpt lat="45.81437" lon="1.65974">
        <ele>358.6</ele>
        <time>2022-08-02T07:03:10Z</time>
      </trkpt>
      <trkpt lat="45.81436" lon="1.6597">
        <ele>358.7</ele>
        <time>2022-08-02T07:03:12Z</time>
      </trkpt>
      <trkpt lat="45.81435" lon="1.65966">
        <ele>358.6</ele>
        <time>2022-08-02T07:03:14Z</time>
      </trkpt>
      <trkpt lat="45.81433" lon="1.65961">
        <ele>358.7</ele>
        <time>2022-08-02T07:03:16Z</time>
      </trkpt>
      <trkpt lat="45.81431" lon="1.65958">
        <ele>358.9</ele>
        <time>2022-08-02T07:03:18Z</time>
      </trkpt>
      <trkpt lat="45.8143" lon="1.65954">
        <ele>358.9</ele>
        <time>2022-08-02T07:03:20Z</time>
      </trkpt>
      <trkpt lat="45.81428" lon="1.6595">
        <ele>358.9</ele>
        <time>2022-08-02T07:03:22Z</time>
      </trkpt>
      <trkpt lat="45.81426" lon="1.65946">
        <ele>358.9</ele>
        <time>2022-08-02T07:03:24Z</time>
      </trkpt>
      <trkpt lat="45.81425" lon="1.65942">
        <ele>358.9</ele>
        <time>2022-08-02T07:03:26Z</time>
      </trkpt>
      <trkpt lat="45.81424" lon="1.65938">
        <ele>358.7</ele>
        <time>2022-08-02T07:03:28Z</time>
      </trkpt>
      <trkpt lat="45.81421" lon="1.65933">
        <ele>358.7</ele>
        <time>2022-08-02T07:03:30Z</time>
      </trkpt>
      <trkpt lat="45.81419" lon="1.65928">
        <ele>358.6</ele>
        <time>2022-08-02T07:03:32Z</time>
      </trkpt>
      <trkpt lat="45.81418" lon="1.65923">
        <ele>358.4</ele>
        <time>2022-08-02T07:03:34Z</time>
      </trkpt>
      <trkpt lat="45.81416" lon="1.65919">
        <ele>358.3</ele>
        <time>2022-08-02T07:03:36Z</time>
      </trkpt>
      <trkpt lat="45.81414" lon="1.65914">
        <ele>358.5</ele>
        <time>2022-08-02T07:03:38Z</time>
      </trkpt>
      <trkpt lat="45.81412" lon="1.6591">
        <ele>358.7</ele>
        <time>2022-08-02T07:03:40Z</time>
      </trkpt>
      <trkpt lat="45.8141" lon="1.65905">
        <ele>358.9</ele>
        <time>2022-08-02T07:03:42Z</time>
      </trkpt>
      <trkpt lat="45.81408" lon="1.659">
        <ele>359.1</ele>
        <time>2022-08-02T07:03:44Z</time>
      </trkpt>
      <trkpt lat="45.81405" lon="1.65896">
        <ele>359.3</ele>
        <time>2022-08-02T07:03:46Z</time>
      </trkpt>
      <trkpt lat="45.81403" lon="1.65891">
        <ele>359.5</ele>
        <time>2022-08-02T07:03:48Z</time>
      </trkpt>
      <trkpt lat="45.81401" lon="1.65886">
        <ele>359.7</ele>
        <time>2022-08-02T07:03:50Z</time>
      </trkpt>
      <trkpt lat="45.81399" lon="1.65881">
        <ele>359.8</ele>
        <time>2022-08-02T07:03:52Z</time>
      </trkpt>
      <trkpt lat="45.81397" lon="1.65877">
        <ele>360</ele>
        <time>2022-08-02T07:03:54Z</time>
      </trkpt>
      <trkpt lat="45.81396" lon="1.65872">
        <ele>360</ele>
        <time>2022-08-02T07:03:56Z</time>
      </trkpt>
      <trkpt lat="45.81394" lon="1.65868">
        <ele>360.2</ele>
        <time>2022-08-02T07:03:58Z</time>
      </trkpt>
      <trkpt lat="45.81392" lon="1.65865">
        <ele>360.3</ele>
        <time>2022-08-02T07:04:00Z</time>
      </trkpt>
      <trkpt lat="45.8139" lon="1.6586">
        <ele>360.3</ele>
        <time>2022-08-02T07:04:02Z</time>
      </trkpt>
      <trkpt lat="45.81389" lon="1.65855">
        <ele>360.4</ele>
        <time>2022-08-02T07:04:04Z</time>
      </trkpt>
      <trkpt lat="45.81388" lon="1.65851">
        <ele>360.4</ele>
        <time>2022-08-02T07:04:06Z</time>
      </trkpt>
      <trkpt lat="45.81386" lon="1.65846">
        <ele>360.5</ele>
        <time>2022-08-02T07:04:08Z</time>
      </trkpt>
      <trkpt lat="45.81384" lon="1.65843">
        <ele>360.6</ele>
        <time>2022-08-02T07:04:10Z</time>
      </trkpt>
      <trkpt lat="45.81383" lon="1.65838">
        <ele>360.5</ele>
        <time>2022-08-02T07:04:12Z</time>
      </trkpt>
      <trkpt lat="45.81381" lon="1.65833">
        <ele>360.5</ele>
        <time>2022-08-02T07:04:14Z</time>
      </trkpt>
      <trkpt lat="45.81379" lon="1.65828">
        <ele>360.5</ele>
        <time>2022-08-02T07:04:16Z</time>
      </trkpt>
      <trkpt lat="45.81378" lon="1.65823">
        <ele>360.5</ele>
        <time>2022-08-02T07:04:18Z</time>
      </trkpt>
      <trkpt lat="45.81376" lon="1.65816">
        <ele>360.4</ele>
        <time>2022-08-02T07:04:20Z</time>
      </trkpt>
      <trkpt lat="45.81374" lon="1.65812">
        <ele>360.4</ele>
        <time>2022-08-02T07:04:22Z</time>
      </trkpt>
      <trkpt lat="45.81372" lon="1.65807">
        <ele>360.5</ele>
        <time>2022-08-02T07:04:24Z</time>
      </trkpt>
      <trkpt lat="45.8137" lon="1.65802">
        <ele>360.5</ele>
        <time>2022-08-02T07:04:26Z</time>
      </trkpt>
      <trkpt lat="45.81366" lon="1.65798">
        <ele>360.7</ele>
        <time>2022-08-02T07:04:28Z</time>
      </trkpt>
      <trkpt lat="45.81363" lon="1.65794">
        <ele>361</ele>
        <time>2022-08-02T07:04:30Z</time>
      </trkpt>
      <trkpt lat="45.8136" lon="1.65789">
        <ele>361</ele>
        <time>2022-08-02T07:04:32Z</time>
      </trkpt>
      <trkpt lat="45.81356" lon="1.65785">
        <ele>361.2</ele>
        <time>2022-08-02T07:04:34Z</time>
      </trkpt>
      <trkpt lat="45.81353" lon="1.65782">
        <ele>361.4</ele>
        <time>2022-08-02T07:04:36Z</time>
      </trkpt>
      <trkpt lat="45.81349" lon="1.65779">
        <ele>361.6</ele>
        <time>2022-08-02T07:04:38Z</time>
      </trkpt>
      <trkpt lat="45.81346" lon="1.65776">
        <ele>361.8</ele>
        <time>2022-08-02T07:04:40Z</time>
      </trkpt>
      <trkpt lat="45.81342" lon="1.65773">
        <ele>361.9</ele>
        <time>2022-08-02T07:04:42Z</time>
      </trkpt>
      <trkpt lat="45.81339" lon="1.6577">
        <ele>362.1</ele>
        <time>2022-08-02T07:04:44Z</time>
      </trkpt>
      <trkpt lat="45.81335" lon="1.65767">
        <ele>362.2</ele>
        <time>2022-08-02T07:04:46Z</time>
      </trkpt>
      <trkpt lat="45.81332" lon="1.65764">
        <ele>362.3</ele>
        <time>2022-08-02T07:04:48Z</time>
      </trkpt>
      <trkpt lat="45.81329" lon="1.65762">
        <ele>362.4</ele>
        <time>2022-08-02T07:04:50Z</time>
      </trkpt>
      <trkpt lat="45.81325" lon="1.65759">
        <ele>362.6</ele>
        <time>2022-08-02T07:04:52Z</time>
      </trkpt>
      <trkpt lat="45.81321" lon="1.65756">
        <ele>362.8</ele>
        <time>2022-08-02T07:04:54Z</time>
      </trkpt>
      <trkpt lat="45.81318" lon="1.65753">
        <ele>362.9</ele>
        <time>2022-08-02T07:04:56Z</time>
      </trkpt>
      <trkpt lat="45.81314" lon="1.65751">
        <ele>363.1</ele>
        <time>2022-08-02T07:04:58Z</time>
      </trkpt>
      <trkpt lat="45.81311" lon="1.65748">
        <ele>363.3</ele>
        <time>2022-08-02T07:05:00Z</time>
      </trkpt>
      <trkpt lat="45.81308" lon="1.65745">
        <ele>363.5</ele>
        <time>2022-08-02T07:05:02Z</time>
      </trkpt>
      <trkpt lat="45.81304" lon="1.65743">
        <ele>363.8</ele>
        <time>2022-08-02T07:05:04Z</time>
      </trkpt>
      <trkpt lat="45.81301" lon="1.6574">
        <ele>364</ele>
        <time>2022-08-02T07:05:06Z</time>
      </trkpt>
      <trkpt lat="45.81297" lon="1.65737">
        <ele>364.3</ele>
        <time>2022-08-02T07:05:08Z</time>
      </trkpt>
      <trkpt lat="45.81294" lon="1.65734">
        <ele>364.5</ele>
        <time>2022-08-02T07:05:10Z</time>
      </trkpt>
      <trkpt lat="45.81291" lon="1.65732">
        <ele>364.7</ele>
        <time>2022-08-02T07:05:12Z</time>
      </trkpt>
      <trkpt lat="45.81287" lon="1.6573">
        <ele>365</ele>
        <time>2022-08-02T07:05:14Z</time>
      </trkpt>
      <trkpt lat="45.81284" lon="1.65727">
        <ele>365.2</ele>
        <time>2022-08-02T07:05:16Z</time>
      </trkpt>
      <trkpt lat="45.81281" lon="1.65724">
        <ele>365.4</ele>
        <time>2022-08-02T07:05:18Z</time>
      </trkpt>
      <trkpt lat="45.81278" lon="1.65722">
        <ele>365.7</ele>
        <time>2022-08-02T07:05:20Z</time>
      </trkpt>
      <trkpt lat="45.81274" lon="1.65719">
        <ele>365.9</ele>
        <time>2022-08-02T07:05:22Z</time>
      </trkpt>
      <trkpt lat="45.81271" lon="1.65717">
        <ele>366.2</ele>
        <time>2022-08-02T07:05:24Z</time>
      </trkpt>
      <trkpt lat="45.81267" lon="1.65714">
        <ele>366.4</ele>
        <time>2022-08-02T07:05:26Z</time>
      </trkpt>
      <trkpt lat="45.81264" lon="1.65711">
        <ele>366.7</ele>
        <time>2022-08-02T07:05:28Z</time>
      </trkpt>
      <trkpt lat="45.8126" lon="1.65709">
        <ele>366.9</ele>
        <time>2022-08-02T07:05:30Z</time>
      </trkpt>
      <trkpt lat="45.81256" lon="1.65707">
        <ele>367.2</ele>
        <time>2022-08-02T07:05:32Z</time>
      </trkpt>
      <trkpt lat="45.81253" lon="1.65705">
        <ele>367.5</ele>
        <time>2022-08-02T07:05:34Z</time>
      </trkpt>
      <trkpt lat="45.81249" lon="1.65703">
        <ele>367.8</ele>
        <time>2022-08-02T07:05:36Z</time>
      </trkpt>
      <trkpt lat="45.81246" lon="1.65701">
        <ele>368</ele>
        <time>2022-08-02T07:05:38Z</time>
      </trkpt>
      <trkpt lat="45.81242" lon="1.65699">
        <ele>368.1</ele>
        <time>2022-08-02T07:05:40Z</time>
      </trkpt>
      <trkpt lat="45.81239" lon="1.65698">
        <ele>368.3</ele>
        <time>2022-08-02T07:05:42Z</time>
      </trkpt>
      <trkpt lat="45.81235" lon="1.65697">
        <ele>368.5</ele>
        <time>2022-08-02T07:05:44Z</time>
      </trkpt>
      <trkpt lat="45.81231" lon="1.65696">
        <ele>368.7</ele>
        <time>2022-08-02T07:05:46Z</time>
      </trkpt>
      <trkpt lat="45.81228" lon="1.65695">
        <ele>368.9</ele>
        <time>2022-08-02T07:05:48Z</time>
      </trkpt>
      <trkpt lat="45.81224" lon="1.65694">
        <ele>369.1</ele>
        <time>2022-08-02T07:05:50Z</time>
      </trkpt>
      <trkpt lat="45.8122" lon="1.65693">
        <ele>369.3</ele>
        <time>2022-08-02T07:05:52Z</time>
      </trkpt>
      <trkpt lat="45.81216" lon="1.65691">
        <ele>369.5</ele>
        <time>2022-08-02T07:05:54Z</time>
      </trkpt>
      <trkpt lat="45.81212" lon="1.65689">
        <ele>369.6</ele>
        <time>2022-08-02T07:05:56Z</time>
      </trkpt>
      <trkpt lat="45.81208" lon="1.65688">
        <ele>369.8</ele>
        <time>2022-08-02T07:05:58Z</time>
      </trkpt>
      <trkpt lat="45.81205" lon="1.65687">
        <ele>370</ele>
        <time>2022-08-02T07:06:00Z</time>
      </trkpt>
      <trkpt lat="45.81201" lon="1.65686">
        <ele>370.1</ele>
        <time>2022-08-02T07:06:02Z</time>
      </trkpt>
      <trkpt lat="45.81197" lon="1.65685">
        <ele>370.3</ele>
        <time>2022-08-02T07:06:04Z</time>
      </trkpt>
      <trkpt lat="45.81194" lon="1.65683">
        <ele>370.4</ele>
        <time>2022-08-02T07:06:06Z</time>
      </trkpt>
      <trkpt lat="45.8119" lon="1.65681">
        <ele>370.5</ele>
        <time>2022-08-02T07:06:08Z</time>
      </trkpt>
      <trkpt lat="45.81186" lon="1.65679">
        <ele>370.7</ele>
        <time>2022-08-02T07:06:10Z</time>
      </trkpt>
      <trkpt lat="45.81182" lon="1.65678">
        <ele>370.8</ele>
        <time>2022-08-02T07:06:12Z</time>
      </trkpt>
      <trkpt lat="45.81179" lon="1.6568">
        <ele>371.2</ele>
        <time>2022-08-02T07:06:14Z</time>
      </trkpt>
      <trkpt lat="45.81177" lon="1.65683">
        <ele>371.5</ele>
        <time>2022-08-02T07:06:16Z</time>
      </trkpt>
      <trkpt lat="45.81177" lon="1.65688">
        <ele>371.9</ele>
        <time>2022-08-02T07:06:18Z</time>
      </trkpt>
      <trkpt lat="45.81178" lon="1.65693">
        <ele>372.1</ele>
        <time>2022-08-02T07:06:20Z</time>
      </trkpt>
      <trkpt lat="45.81179" lon="1.65698">
        <ele>372.4</ele>
        <time>2022-08-02T07:06:22Z</time>
      </trkpt>
      <trkpt lat="45.81181" lon="1.65703">
        <ele>372.6</ele>
        <time>2022-08-02T07:06:24Z</time>
      </trkpt>
      <trkpt lat="45.81182" lon="1.65708">
        <ele>372.9</ele>
        <time>2022-08-02T07:06:26Z</time>
      </trkpt>
      <trkpt lat="45.81183" lon="1.65713">
        <ele>373.2</ele>
        <time>2022-08-02T07:06:28Z</time>
      </trkpt>
      <trkpt lat="45.81184" lon="1.65718">
        <ele>373.4</ele>
        <time>2022-08-02T07:06:30Z</time>
      </trkpt>
      <trkpt lat="45.81185" lon="1.65723">
        <ele>373.7</ele>
        <time>2022-08-02T07:06:32Z</time>
      </trkpt>
      <trkpt lat="45.81186" lon="1.65728">
        <ele>373.9</ele>
        <time>2022-08-02T07:06:34Z</time>
      </trkpt>
      <trkpt lat="45.81187" lon="1.65733">
        <ele>374.2</ele>
        <time>2022-08-02T07:06:36Z</time>
      </trkpt>
      <trkpt lat="45.81188" lon="1.65738">
        <ele>374.4</ele>
        <time>2022-08-02T07:06:38Z</time>
      </trkpt>
      <trkpt lat="45.81189" lon="1.65743">
        <ele>374.6</ele>
        <time>2022-08-02T07:06:40Z</time>
      </trkpt>
      <trkpt lat="45.8119" lon="1.65747">
        <ele>374.8</ele>
        <time>2022-08-02T07:06:42Z</time>
      </trkpt>
      <trkpt lat="45.81192" lon="1.65752">
        <ele>375.1</ele>
        <time>2022-08-02T07:06:44Z</time>
      </trkpt>
      <trkpt lat="45.81192" lon="1.65757">
        <ele>375.4</ele>
        <time>2022-08-02T07:06:46Z</time>
      </trkpt>
      <trkpt lat="45.81193" lon="1.65761">
        <ele>375.7</ele>
        <time>2022-08-02T07:06:48Z</time>
      </trkpt>
      <trkpt lat="45.81195" lon="1.65765">
        <ele>375.9</ele>
        <time>2022-08-02T07:06:50Z</time>
      </trkpt>
      <trkpt lat="45.81196" lon="1.6577">
        <ele>376.2</ele>
        <time>2022-08-02T07:06:52Z</time>
      </trkpt>
      <trkpt lat="45.81198" lon="1.65774">
        <ele>376.4</ele>
        <time>2022-08-02T07:06:54Z</time>
      </trkpt>
      <trkpt lat="45.812" lon="1.65778">
        <ele>376.6</ele>
        <time>2022-08-02T07:06:56Z</time>
      </trkpt>
      <trkpt lat="45.812" lon="1.65783">
        <ele>376.9</ele>
        <time>2022-08-02T07:06:58Z</time>
      </trkpt>
      <trkpt lat="45.81202" lon="1.65787">
        <ele>377</ele>
        <time>2022-08-02T07:07:00Z</time>
      </trkpt>
      <trkpt lat="45.81203" lon="1.65792">
        <ele>377.2</ele>
        <time>2022-08-02T07:07:02Z</time>
      </trkpt>
      <trkpt lat="45.81205" lon="1.65796">
        <ele>377.4</ele>
        <time>2022-08-02T07:07:04Z</time>
      </trkpt>
      <trkpt lat="45.81206" lon="1.658">
        <ele>377.6</ele>
        <time>2022-08-02T07:07:06Z</time>
      </trkpt>
      <trkpt lat="45.81208" lon="1.65805">
        <ele>377.8</ele>
        <time>2022-08-02T07:07:08Z</time>
      </trkpt>
      <trkpt lat="45.81209" lon="1.65809">
        <ele>378.1</ele>
        <time>2022-08-02T07:07:10Z</time>
      </trkpt>
      <trkpt lat="45.81211" lon="1.65814">
        <ele>378.2</ele>
        <time>2022-08-02T07:07:12Z</time>
      </trkpt>
      <trkpt lat="45.81212" lon="1.65818">
        <ele>378.4</ele>
        <time>2022-08-02T07:07:14Z</time>
      </trkpt>
      <trkpt lat="45.81214" lon="1.65822">
        <ele>378.5</ele>
        <time>2022-08-02T07:07:16Z</time>
      </trkpt>
      <trkpt lat="45.81216" lon="1.65827">
        <ele>378.6</ele>
        <time>2022-08-02T07:07:18Z</time>
      </trkpt>
      <trkpt lat="45.81218" lon="1.65832">
        <ele>378.7</ele>
        <time>2022-08-02T07:07:20Z</time>
      </trkpt>
      <trkpt lat="45.81219" lon="1.65836">
        <ele>379.1</ele>
        <time>2022-08-02T07:07:22Z</time>
      </trkpt>
      <trkpt lat="45.8122" lon="1.6584">
        <ele>379.2</ele>
        <time>2022-08-02T07:07:24Z</time>
      </trkpt>
      <trkpt lat="45.81221" lon="1.65845">
        <ele>379.6</ele>
        <time>2022-08-02T07:07:26Z</time>
      </trkpt>
      <trkpt lat="45.81222" lon="1.6585">
        <ele>380.1</ele>
        <time>2022-08-02T07:07:28Z</time>
      </trkpt>
      <trkpt lat="45.81223" lon="1.65854">
        <ele>380.3</ele>
        <time>2022-08-02T07:07:30Z</time>
      </trkpt>
      <trkpt lat="45.81224" lon="1.65858">
        <ele>380.7</ele>
        <time>2022-08-02T07:07:32Z</time>
      </trkpt>
      <trkpt lat="45.81226" lon="1.65863">
        <ele>381</ele>
        <time>2022-08-02T07:07:34Z</time>
      </trkpt>
      <trkpt lat="45.81227" lon="1.65868">
        <ele>381.3</ele>
        <time>2022-08-02T07:07:36Z</time>
      </trkpt>
      <trkpt lat="45.81228" lon="1.65873">
        <ele>381.8</ele>
        <time>2022-08-02T07:07:38Z</time>
      </trkpt>
      <trkpt lat="45.81229" lon="1.65877">
        <ele>382.1</ele>
        <time>2022-08-02T07:07:40Z</time>
      </trkpt>
      <trkpt lat="45.8123" lon="1.65882">
        <ele>382.5</ele>
        <time>2022-08-02T07:07:42Z</time>
      </trkpt>
      <trkpt lat="45.81232" lon="1.65886">
        <ele>382.8</ele>
        <time>2022-08-02T07:07:44Z</time>
      </trkpt>
      <trkpt lat="45.81233" lon="1.65891">
        <ele>383.2</ele>
        <time>2022-08-02T07:07:46Z</time>
      </trkpt>
      <trkpt lat="45.81235" lon="1.65896">
        <ele>383.4</ele>
        <time>2022-08-02T07:07:48Z</time>
      </trkpt>
      <trkpt lat="45.81237" lon="1.659">
        <ele>383.7</ele>
        <time>2022-08-02T07:07:50Z</time>
      </trkpt>
      <trkpt lat="45.81239" lon="1.65904">
        <ele>383.9</ele>
        <time>2022-08-02T07:07:52Z</time>
      </trkpt>
      <trkpt lat="45.81242" lon="1.65908">
        <ele>384</ele>
        <time>2022-08-02T07:07:54Z</time>
      </trkpt>
      <trkpt lat="45.81245" lon="1.65912">
        <ele>384.1</ele>
        <time>2022-08-02T07:07:56Z</time>
      </trkpt>
      <trkpt lat="45.81247" lon="1.65916">
        <ele>384.2</ele>
        <time>2022-08-02T07:07:58Z</time>
      </trkpt>
      <trkpt lat="45.8125" lon="1.65918">
        <ele>384.3</ele>
        <time>2022-08-02T07:08:00Z</time>
      </trkpt>
      <trkpt lat="45.81253" lon="1.65922">
        <ele>384.6</ele>
        <time>2022-08-02T07:08:02Z</time>
      </trkpt>
      <trkpt lat="45.81256" lon="1.65925">
        <ele>384.9</ele>
        <time>2022-08-02T07:08:04Z</time>
      </trkpt>
      <trkpt lat="45.81259" lon="1.65927">
        <ele>384.9</ele>
        <time>2022-08-02T07:08:06Z</time>
      </trkpt>
      <trkpt lat="45.81263" lon="1.65929">
        <ele>384.9</ele>
        <time>2022-08-02T07:08:08Z</time>
      </trkpt>
      <trkpt lat="45.81266" lon="1.65932">
        <ele>385</ele>
        <time>2022-08-02T07:08:10Z</time>
      </trkpt>
      <trkpt lat="45.8127" lon="1.65934">
        <ele>384.9</ele>
        <time>2022-08-02T07:08:12Z</time>
      </trkpt>
      <trkpt lat="45.81273" lon="1.65938">
        <ele>385.1</ele>
        <time>2022-08-02T07:08:14Z</time>
      </trkpt>
      <trkpt lat="45.81277" lon="1.65941">
        <ele>385.2</ele>
        <time>2022-08-02T07:08:16Z</time>
      </trkpt>
      <trkpt lat="45.8128" lon="1.65945">
        <ele>385.4</ele>
        <time>2022-08-02T07:08:18Z</time>
      </trkpt>
      <trkpt lat="45.81283" lon="1.65949">
        <ele>385.6</ele>
        <time>2022-08-02T07:08:20Z</time>
      </trkpt>
      <trkpt lat="45.81285" lon="1.65952">
        <ele>385.9</ele>
        <time>2022-08-02T07:08:22Z</time>
      </trkpt>
      <trkpt lat="45.81288" lon="1.65957">
        <ele>386.3</ele>
        <time>2022-08-02T07:08:24Z</time>
      </trkpt>
      <trkpt lat="45.81291" lon="1.6596">
        <ele>386.4</ele>
        <time>2022-08-02T07:08:26Z</time>
      </trkpt>
      <trkpt lat="45.81294" lon="1.65964">
        <ele>386.7</ele>
        <time>2022-08-02T07:08:28Z</time>
      </trkpt>
      <trkpt lat="45.81295" lon="1.65968">
        <ele>387.1</ele>
        <time>2022-08-02T07:08:30Z</time>
      </trkpt>
      <trkpt lat="45.81297" lon="1.65973">
        <ele>387.5</ele>
        <time>2022-08-02T07:08:32Z</time>
      </trkpt>
      <trkpt lat="45.81299" lon="1.65977">
        <ele>387.9</ele>
        <time>2022-08-02T07:08:34Z</time>
      </trkpt>
      <trkpt lat="45.81301" lon="1.65981">
        <ele>388.2</ele>
        <time>2022-08-02T07:08:36Z</time>
      </trkpt>
      <trkpt lat="45.81303" lon="1.65986">
        <ele>388.5</ele>
        <time>2022-08-02T07:08:38Z</time>
      </trkpt>
      <trkpt lat="45.81305" lon="1.6599">
        <ele>388.8</ele>
        <time>2022-08-02T07:08:40Z</time>
      </trkpt>
      <trkpt lat="45.81307" lon="1.65995">
        <ele>389.1</ele>
        <time>2022-08-02T07:08:42Z</time>
      </trkpt>
      <trkpt lat="45.81309" lon="1.65998">
        <ele>389.5</ele>
        <time>2022-08-02T07:08:44Z</time>
      </trkpt>
      <trkpt lat="45.8131" lon="1.66003">
        <ele>390</ele>
        <time>2022-08-02T07:08:46Z</time>
      </trkpt>
      <trkpt lat="45.81311" lon="1.66008">
        <ele>390.4</ele>
        <time>2022-08-02T07:08:48Z</time>
      </trkpt>
      <trkpt lat="45.81312" lon="1.66013">
        <ele>390.9</ele>
        <time>2022-08-02T07:08:50Z</time>
      </trkpt>
      <trkpt lat="45.81312" lon="1.66019">
        <ele>391.6</ele>
        <time>2022-08-02T07:08:52Z</time>
      </trkpt>
      <trkpt lat="45.81313" lon="1.66023">
        <ele>392.2</ele>
        <time>2022-08-02T07:08:54Z</time>
      </trkpt>
      <trkpt lat="45.81312" lon="1.66028">
        <ele>392.9</ele>
        <time>2022-08-02T07:08:56Z</time>
      </trkpt>
      <trkpt lat="45.81311" lon="1.66033">
        <ele>393.8</ele>
        <time>2022-08-02T07:08:58Z</time>
      </trkpt>
      <trkpt lat="45.8131" lon="1.66037">
        <ele>394.6</ele>
        <time>2022-08-02T07:09:00Z</time>
      </trkpt>
      <trkpt lat="45.81308" lon="1.6604">
        <ele>395.5</ele>
        <time>2022-08-02T07:09:02Z</time>
      </trkpt>
      <trkpt lat="45.81306" lon="1.66044">
        <ele>396.4</ele>
        <time>2022-08-02T07:09:04Z</time>
      </trkpt>
      <trkpt lat="45.81303" lon="1.66047">
        <ele>397.3</ele>
        <time>2022-08-02T07:09:06Z</time>
      </trkpt>
      <trkpt lat="45.81299" lon="1.66048">
        <ele>398.4</ele>
        <time>2022-08-02T07:09:08Z</time>
      </trkpt>
      <trkpt lat="45.81296" lon="1.66048">
        <ele>399.2</ele>
        <time>2022-08-02T07:09:10Z</time>
      </trkpt>
      <trkpt lat="45.81292" lon="1.66049">
        <ele>400</ele>
        <time>2022-08-02T07:09:12Z</time>
      </trkpt>
      <trkpt lat="45.81288" lon="1.66047">
        <ele>400.5</ele>
        <time>2022-08-02T07:09:14Z</time>
      </trkpt>
      <trkpt lat="45.81285" lon="1.66045">
        <ele>400.8</ele>
        <time>2022-08-02T07:09:16Z</time>
      </trkpt>
      <trkpt lat="45.81283" lon="1.66044">
        <ele>401.2</ele>
        <time>2022-08-02T07:09:18Z</time>
      </trkpt>
      <trkpt lat="45.81279" lon="1.66042">
        <ele>401.6</ele>
        <time>2022-08-02T07:09:20Z</time>
      </trkpt>
      <trkpt lat="45.81277" lon="1.6604">
        <ele>401.8</ele>
        <time>2022-08-02T07:09:22Z</time>
      </trkpt>
      <trkpt lat="45.81274" lon="1.66038">
        <ele>402.1</ele>
        <time>2022-08-02T07:09:24Z</time>
      </trkpt>
      <trkpt lat="45.8127" lon="1.66035">
        <ele>402.3</ele>
        <time>2022-08-02T07:09:26Z</time>
      </trkpt>
      <trkpt lat="45.81267" lon="1.66033">
        <ele>402.6</ele>
        <time>2022-08-02T07:09:28Z</time>
      </trkpt>
      <trkpt lat="45.81264" lon="1.66031">
        <ele>402.9</ele>
        <time>2022-08-02T07:09:30Z</time>
      </trkpt>
      <trkpt lat="45.81262" lon="1.66029">
        <ele>403.1</ele>
        <time>2022-08-02T07:09:32Z</time>
      </trkpt>
      <trkpt lat="45.81259" lon="1.66026">
        <ele>403.3</ele>
        <time>2022-08-02T07:09:34Z</time>
      </trkpt>
      <trkpt lat="45.81256" lon="1.66023">
        <ele>403.3</ele>
        <time>2022-08-02T07:09:36Z</time>
      </trkpt>
      <trkpt lat="45.81254" lon="1.66021">
        <ele>403.5</ele>
        <time>2022-08-02T07:09:38Z</time>
      </trkpt>
      <trkpt lat="45.81251" lon="1.66019">
        <ele>403.9</ele>
        <time>2022-08-02T07:09:40Z</time>
      </trkpt>
      <trkpt lat="45.81248" lon="1.66017">
        <ele>403.9</ele>
        <time>2022-08-02T07:09:42Z</time>
      </trkpt>
      <trkpt lat="45.81245" lon="1.66016">
        <ele>404</ele>
        <time>2022-08-02T07:09:44Z</time>
      </trkpt>
      <trkpt lat="45.81243" lon="1.66014">
        <ele>403.8</ele>
        <time>2022-08-02T07:09:46Z</time>
      </trkpt>
      <trkpt lat="45.8124" lon="1.66012">
        <ele>403.8</ele>
        <time>2022-08-02T07:09:48Z</time>
      </trkpt>
      <trkpt lat="45.81237" lon="1.6601">
        <ele>403.8</ele>
        <time>2022-08-02T07:09:50Z</time>
      </trkpt>
      <trkpt lat="45.81235" lon="1.66008">
        <ele>403.8</ele>
        <time>2022-08-02T07:09:52Z</time>
      </trkpt>
      <trkpt lat="45.81231" lon="1.66008">
        <ele>404</ele>
        <time>2022-08-02T07:09:54Z</time>
      </trkpt>
      <trkpt lat="45.81228" lon="1.66007">
        <ele>404.2</ele>
        <time>2022-08-02T07:09:56Z</time>
      </trkpt>
      <trkpt lat="45.81225" lon="1.66005">
        <ele>404.2</ele>
        <time>2022-08-02T07:09:58Z</time>
      </trkpt>
      <trkpt lat="45.81223" lon="1.66004">
        <ele>404.2</ele>
        <time>2022-08-02T07:10:00Z</time>
      </trkpt>
      <trkpt lat="45.8122" lon="1.66003">
        <ele>404.3</ele>
        <time>2022-08-02T07:10:02Z</time>
      </trkpt>
      <trkpt lat="45.81217" lon="1.66002">
        <ele>404.5</ele>
        <time>2022-08-02T07:10:04Z</time>
      </trkpt>
      <trkpt lat="45.81213" lon="1.66001">
        <ele>404.7</ele>
        <time>2022-08-02T07:10:06Z</time>
      </trkpt>
      <trkpt lat="45.8121" lon="1.66">
        <ele>404.8</ele>
        <time>2022-08-02T07:10:08Z</time>
      </trkpt>
      <trkpt lat="45.81207" lon="1.65999">
        <ele>404.9</ele>
        <time>2022-08-02T07:10:10Z</time>
      </trkpt>
      <trkpt lat="45.81204" lon="1.65999">
        <ele>405.2</ele>
        <time>2022-08-02T07:10:12Z</time>
      </trkpt>
      <trkpt lat="45.81201" lon="1.65998">
        <ele>405.4</ele>
        <time>2022-08-02T07:10:14Z</time>
      </trkpt>
      <trkpt lat="45.81197" lon="1.65997">
        <ele>405.5</ele>
        <time>2022-08-02T07:10:16Z</time>
      </trkpt>
      <trkpt lat="45.81194" lon="1.65996">
        <ele>405.6</ele>
        <time>2022-08-02T07:10:18Z</time>
      </trkpt>
      <trkpt lat="45.81191" lon="1.65996">
        <ele>405.9</ele>
        <time>2022-08-02T07:10:20Z</time>
      </trkpt>
      <trkpt lat="45.81188" lon="1.65996">
        <ele>406.1</ele>
        <time>2022-08-02T07:10:22Z</time>
      </trkpt>
      <trkpt lat="45.81185" lon="1.65995">
        <ele>406.3</ele>
        <time>2022-08-02T07:10:24Z</time>
      </trkpt>
      <trkpt lat="45.81182" lon="1.65994">
        <ele>406.4</ele>
        <time>2022-08-02T07:10:26Z</time>
      </trkpt>
      <trkpt lat="45.81178" lon="1.65994">
        <ele>406.7</ele>
        <time>2022-08-02T07:10:28Z</time>
      </trkpt>
      <trkpt lat="45.81175" lon="1.65993">
        <ele>406.8</ele>
        <time>2022-08-02T07:10:30Z</time>
      </trkpt>
      <trkpt lat="45.81172" lon="1.65992">
        <ele>406.9</ele>
        <time>2022-08-02T07:10:32Z</time>
      </trkpt>
      <trkpt lat="45.81169" lon="1.65991">
        <ele>407.1</ele>
        <time>2022-08-02T07:10:34Z</time>
      </trkpt>
      <trkpt lat="45.81166" lon="1.65991">
        <ele>407.3</ele>
        <time>2022-08-02T07:10:36Z</time>
      </trkpt>
      <trkpt lat="45.81163" lon="1.65991">
        <ele>407.5</ele>
        <time>2022-08-02T07:10:38Z</time>
      </trkpt>
      <trkpt lat="45.81161" lon="1.6599">
        <ele>407.7</ele>
        <time>2022-08-02T07:10:40Z</time>
      </trkpt>
      <trkpt lat="45.81158" lon="1.65989">
        <ele>407.8</ele>
        <time>2022-08-02T07:10:42Z</time>
      </trkpt>
      <trkpt lat="45.81153" lon="1.65988">
        <ele>408</ele>
        <time>2022-08-02T07:10:44Z</time>
      </trkpt>
      <trkpt lat="45.8115" lon="1.65988">
        <ele>408.3</ele>
        <time>2022-08-02T07:10:46Z</time>
      </trkpt>
      <trkpt lat="45.81147" lon="1.65987">
        <ele>408.5</ele>
        <time>2022-08-02T07:10:48Z</time>
      </trkpt>
      <trkpt lat="45.81144" lon="1.65987">
        <ele>408.7</ele>
        <time>2022-08-02T07:10:50Z</time>
      </trkpt>
      <trkpt lat="45.81141" lon="1.65986">
        <ele>409</ele>
        <time>2022-08-02T07:10:52Z</time>
      </trkpt>
      <trkpt lat="45.81138" lon="1.65986">
        <ele>409.2</ele>
        <time>2022-08-02T07:10:54Z</time>
      </trkpt>
      <trkpt lat="45.81135" lon="1.65985">
        <ele>409.3</ele>
        <time>2022-08-02T07:10:56Z</time>
      </trkpt>
      <trkpt lat="45.81132" lon="1.65985">
        <ele>409.6</ele>
        <time>2022-08-02T07:10:58Z</time>
      </trkpt>
      <trkpt lat="45.81129" lon="1.65985">
        <ele>410</ele>
        <time>2022-08-02T07:11:00Z</time>
      </trkpt>
      <trkpt lat="45.81126" lon="1.65984">
        <ele>410.2</ele>
        <time>2022-08-02T07:11:02Z</time>
      </trkpt>
      <trkpt lat="45.81122" lon="1.65984">
        <ele>410.4</ele>
        <time>2022-08-02T07:11:04Z</time>
      </trkpt>
      <trkpt lat="45.8112" lon="1.65983">
        <ele>410.5</ele>
        <time>2022-08-02T07:11:06Z</time>
      </trkpt>
      <trkpt lat="45.81117" lon="1.65982">
        <ele>410.7</ele>
        <time>2022-08-02T07:11:08Z</time>
      </trkpt>
      <trkpt lat="45.81113" lon="1.65982">
        <ele>411.1</ele>
        <time>2022-08-02T07:11:10Z</time>
      </trkpt>
      <trkpt lat="45.8111" lon="1.65981">
        <ele>411.3</ele>
        <time>2022-08-02T07:11:12Z</time>
      </trkpt>
      <trkpt lat="45.81107" lon="1.6598">
        <ele>411.5</ele>
        <time>2022-08-02T07:11:14Z</time>
      </trkpt>
      <trkpt lat="45.81104" lon="1.65979">
        <ele>411.7</ele>
        <time>2022-08-02T07:11:16Z</time>
      </trkpt>
      <trkpt lat="45.811" lon="1.65979">
        <ele>411.9</ele>
        <time>2022-08-02T07:11:18Z</time>
      </trkpt>
      <trkpt lat="45.81097" lon="1.65979">
        <ele>412.2</ele>
        <time>2022-08-02T07:11:20Z</time>
      </trkpt>
      <trkpt lat="45.81094" lon="1.65978">
        <ele>412.5</ele>
        <time>2022-08-02T07:11:22Z</time>
      </trkpt>
      <trkpt lat="45.8109" lon="1.65978">
        <ele>412.8</ele>
        <time>2022-08-02T07:11:24Z</time>
      </trkpt>
      <trkpt lat="45.81087" lon="1.65977">
        <ele>413</ele>
        <time>2022-08-02T07:11:26Z</time>
      </trkpt>
      <trkpt lat="45.81084" lon="1.65977">
        <ele>413.3</ele>
        <time>2022-08-02T07:11:28Z</time>
      </trkpt>
      <trkpt lat="45.81081" lon="1.65976">
        <ele>413.4</ele>
        <time>2022-08-02T07:11:30Z</time>
      </trkpt>
      <trkpt lat="45.81077" lon="1.65976">
        <ele>413.7</ele>
        <time>2022-08-02T07:11:32Z</time>
      </trkpt>
      <trkpt lat="45.81074" lon="1.65976">
        <ele>413.9</ele>
        <time>2022-08-02T07:11:34Z</time>
      </trkpt>
      <trkpt lat="45.81071" lon="1.65976">
        <ele>414.1</ele>
        <time>2022-08-02T07:11:36Z</time>
      </trkpt>
      <trkpt lat="45.81068" lon="1.65976">
        <ele>414.3</ele>
        <time>2022-08-02T07:11:38Z</time>
      </trkpt>
      <trkpt lat="45.81064" lon="1.65977">
        <ele>414.7</ele>
        <time>2022-08-02T07:11:40Z</time>
      </trkpt>
      <trkpt lat="45.81061" lon="1.65978">
        <ele>415.1</ele>
        <time>2022-08-02T07:11:42Z</time>
      </trkpt>
      <trkpt lat="45.81058" lon="1.6598">
        <ele>415.6</ele>
        <time>2022-08-02T07:11:44Z</time>
      </trkpt>
      <trkpt lat="45.81055" lon="1.65982">
        <ele>416.2</ele>
        <time>2022-08-02T07:11:46Z</time>
      </trkpt>
      <trkpt lat="45.81053" lon="1.65986">
        <ele>416.8</ele>
        <time>2022-08-02T07:11:48Z</time>
      </trkpt>
      <trkpt lat="45.81052" lon="1.6599">
        <ele>417.5</ele>
        <time>2022-08-02T07:11:50Z</time>
      </trkpt>
      <trkpt lat="45.81051" lon="1.65995">
        <ele>418.2</ele>
        <time>2022-08-02T07:11:52Z</time>
      </trkpt>
      <trkpt lat="45.81052" lon="1.65999">
        <ele>418.8</ele>
        <time>2022-08-02T07:11:54Z</time>
      </trkpt>
      <trkpt lat="45.81053" lon="1.66003">
        <ele>419.3</ele>
        <time>2022-08-02T07:11:56Z</time>
      </trkpt>
      <trkpt lat="45.81055" lon="1.66006">
        <ele>419.7</ele>
        <time>2022-08-02T07:11:58Z</time>
      </trkpt>
      <trkpt lat="45.81056" lon="1.66009">
        <ele>420.2</ele>
        <time>2022-08-02T07:12:00Z</time>
      </trkpt>
      <trkpt lat="45.81058" lon="1.66012">
        <ele>420.6</ele>
        <time>2022-08-02T07:12:02Z</time>
      </trkpt>
      <trkpt lat="45.81061" lon="1.66014">
        <ele>420.7</ele>
        <time>2022-08-02T07:12:04Z</time>
      </trkpt>
      <trkpt lat="45.81064" lon="1.66016">
        <ele>420.9</ele>
        <time>2022-08-02T07:12:06Z</time>
      </trkpt>
      <trkpt lat="45.81067" lon="1.66018">
        <ele>421</ele>
        <time>2022-08-02T07:12:08Z</time>
      </trkpt>
      <trkpt lat="45.8107" lon="1.6602">
        <ele>421.3</ele>
        <time>2022-08-02T07:12:10Z</time>
      </trkpt>
      <trkpt lat="45.81072" lon="1.66023">
        <ele>421.6</ele>
        <time>2022-08-02T07:12:12Z</time>
      </trkpt>
      <trkpt lat="45.81075" lon="1.66024">
        <ele>421.8</ele>
        <time>2022-08-02T07:12:14Z</time>
      </trkpt>
      <trkpt lat="45.81078" lon="1.66027">
        <ele>422.1</ele>
        <time>2022-08-02T07:12:16Z</time>
      </trkpt>
      <trkpt lat="45.81081" lon="1.66029">
        <ele>422.3</ele>
        <time>2022-08-02T07:12:18Z</time>
      </trkpt>
      <trkpt lat="45.81084" lon="1.66031">
        <ele>422.6</ele>
        <time>2022-08-02T07:12:20Z</time>
      </trkpt>
      <trkpt lat="45.81087" lon="1.66034">
        <ele>422.7</ele>
        <time>2022-08-02T07:12:22Z</time>
      </trkpt>
      <trkpt lat="45.81089" lon="1.66037">
        <ele>423</ele>
        <time>2022-08-02T07:12:24Z</time>
      </trkpt>
      <trkpt lat="45.81092" lon="1.66039">
        <ele>423.1</ele>
        <time>2022-08-02T07:12:26Z</time>
      </trkpt>
      <trkpt lat="45.81095" lon="1.66043">
        <ele>423.4</ele>
        <time>2022-08-02T07:12:28Z</time>
      </trkpt>
      <trkpt lat="45.81098" lon="1.66045">
        <ele>423.6</ele>
        <time>2022-08-02T07:12:30Z</time>
      </trkpt>
      <trkpt lat="45.81101" lon="1.66048">
        <ele>423.8</ele>
        <time>2022-08-02T07:12:32Z</time>
      </trkpt>
      <trkpt lat="45.81104" lon="1.6605">
        <ele>423.8</ele>
        <time>2022-08-02T07:12:34Z</time>
      </trkpt>
      <trkpt lat="45.81106" lon="1.66054">
        <ele>424.1</ele>
        <time>2022-08-02T07:12:36Z</time>
      </trkpt>
      <trkpt lat="45.81109" lon="1.66057">
        <ele>424.4</ele>
        <time>2022-08-02T07:12:38Z</time>
      </trkpt>
      <trkpt lat="45.81111" lon="1.6606">
        <ele>424.7</ele>
        <time>2022-08-02T07:12:40Z</time>
      </trkpt>
      <trkpt lat="45.81114" lon="1.66063">
        <ele>424.9</ele>
        <time>2022-08-02T07:12:42Z</time>
      </trkpt>
      <trkpt lat="45.81117" lon="1.66066">
        <ele>425</ele>
        <time>2022-08-02T07:12:44Z</time>
      </trkpt>
      <trkpt lat="45.8112" lon="1.66069">
        <ele>425.3</ele>
        <time>2022-08-02T07:12:46Z</time>
      </trkpt>
      <trkpt lat="45.81123" lon="1.66072">
        <ele>425.4</ele>
        <time>2022-08-02T07:12:48Z</time>
      </trkpt>
      <trkpt lat="45.81126" lon="1.66074">
        <ele>425.4</ele>
        <time>2022-08-02T07:12:50Z</time>
      </trkpt>
      <trkpt lat="45.81129" lon="1.66078">
        <ele>425.6</ele>
        <time>2022-08-02T07:12:52Z</time>
      </trkpt>
      <trkpt lat="45.81131" lon="1.6608">
        <ele>425.7</ele>
        <time>2022-08-02T07:12:54Z</time>
      </trkpt>
      <trkpt lat="45.81134" lon="1.66083">
        <ele>425.8</ele>
        <time>2022-08-02T07:12:56Z</time>
      </trkpt>
      <trkpt lat="45.81137" lon="1.66086">
        <ele>426.1</ele>
        <time>2022-08-02T07:12:58Z</time>
      </trkpt>
      <trkpt lat="45.81141" lon="1.66089">
        <ele>426.2</ele>
        <time>2022-08-02T07:13:00Z</time>
      </trkpt>
      <trkpt lat="45.81143" lon="1.66091">
        <ele>426.4</ele>
        <time>2022-08-02T07:13:02Z</time>
      </trkpt>
      <trkpt lat="45.81146" lon="1.66094">
        <ele>426.6</ele>
        <time>2022-08-02T07:13:04Z</time>
      </trkpt>
      <trkpt lat="45.81149" lon="1.66096">
        <ele>426.7</ele>
        <time>2022-08-02T07:13:06Z</time>
      </trkpt>
      <trkpt lat="45.81152" lon="1.66097">
        <ele>426.7</ele>
        <time>2022-08-02T07:13:08Z</time>
      </trkpt>
      <trkpt lat="45.81156" lon="1.66099">
        <ele>426.6</ele>
        <time>2022-08-02T07:13:10Z</time>
      </trkpt>
      <trkpt lat="45.81159" lon="1.661">
        <ele>426.5</ele>
        <time>2022-08-02T07:13:12Z</time>
      </trkpt>
      <trkpt lat="45.81163" lon="1.66103">
        <ele>426.7</ele>
        <time>2022-08-02T07:13:14Z</time>
      </trkpt>
      <trkpt lat="45.81165" lon="1.66106">
        <ele>427</ele>
        <time>2022-08-02T07:13:16Z</time>
      </trkpt>
      <trkpt lat="45.81168" lon="1.66109">
        <ele>427.3</ele>
        <time>2022-08-02T07:13:18Z</time>
      </trkpt>
      <trkpt lat="45.81171" lon="1.66111">
        <ele>427.4</ele>
        <time>2022-08-02T07:13:20Z</time>
      </trkpt>
      <trkpt lat="45.81173" lon="1.66113">
        <ele>427.6</ele>
        <time>2022-08-02T07:13:22Z</time>
      </trkpt>
      <trkpt lat="45.81177" lon="1.66115">
        <ele>427.5</ele>
        <time>2022-08-02T07:13:24Z</time>
      </trkpt>
      <trkpt lat="45.81181" lon="1.66117">
        <ele>427.4</ele>
        <time>2022-08-02T07:13:26Z</time>
      </trkpt>
      <trkpt lat="45.81184" lon="1.6612">
        <ele>427.7</ele>
        <time>2022-08-02T07:13:28Z</time>
      </trkpt>
      <trkpt lat="45.81187" lon="1.66122">
        <ele>427.6</ele>
        <time>2022-08-02T07:13:30Z</time>
      </trkpt>
      <trkpt lat="45.8119" lon="1.66125">
        <ele>427.9</ele>
        <time>2022-08-02T07:13:32Z</time>
      </trkpt>
      <trkpt lat="45.81193" lon="1.66127">
        <ele>427.8</ele>
        <time>2022-08-02T07:13:34Z</time>
      </trkpt>
      <trkpt lat="45.81196" lon="1.6613">
        <ele>427.9</ele>
        <time>2022-08-02T07:13:36Z</time>
      </trkpt>
      <trkpt lat="45.812" lon="1.66133">
        <ele>427.7</ele>
        <time>2022-08-02T07:13:38Z</time>
      </trkpt>
      <trkpt lat="45.81204" lon="1.66136">
        <ele>427.8</ele>
        <time>2022-08-02T07:13:40Z</time>
      </trkpt>
      <trkpt lat="45.81207" lon="1.66139">
        <ele>428</ele>
        <time>2022-08-02T07:13:42Z</time>
      </trkpt>
      <trkpt lat="45.8121" lon="1.66143">
        <ele>428.1</ele>
        <time>2022-08-02T07:13:44Z</time>
      </trkpt>
      <trkpt lat="45.81212" lon="1.66147">
        <ele>428.5</ele>
        <time>2022-08-02T07:13:46Z</time>
      </trkpt>
      <trkpt lat="45.81216" lon="1.66151">
        <ele>428.5</ele>
        <time>2022-08-02T07:13:48Z</time>
      </trkpt>
      <trkpt lat="45.81218" lon="1.66155">
        <ele>428.9</ele>
        <time>2022-08-02T07:13:50Z</time>
      </trkpt>
      <trkpt lat="45.8122" lon="1.66159">
        <ele>429.2</ele>
        <time>2022-08-02T07:13:52Z</time>
      </trkpt>
      <trkpt lat="45.81223" lon="1.66164">
        <ele>429.4</ele>
        <time>2022-08-02T07:13:54Z</time>
      </trkpt>
      <trkpt lat="45.81224" lon="1.66168">
        <ele>429.9</ele>
        <time>2022-08-02T07:13:56Z</time>
      </trkpt>
      <trkpt lat="45.81225" lon="1.66173">
        <ele>430.5</ele>
        <time>2022-08-02T07:13:58Z</time>
      </trkpt>
      <trkpt lat="45.81226" lon="1.66178">
        <ele>430.7</ele>
        <time>2022-08-02T07:14:00Z</time>
      </trkpt>
      <trkpt lat="45.81228" lon="1.66183">
        <ele>431</ele>
        <time>2022-08-02T07:14:02Z</time>
      </trkpt>
      <trkpt lat="45.81228" lon="1.66188">
        <ele>431.6</ele>
        <time>2022-08-02T07:14:04Z</time>
      </trkpt>
      <trkpt lat="45.81229" lon="1.66192">
        <ele>432</ele>
        <time>2022-08-02T07:14:06Z</time>
      </trkpt>
      <trkpt lat="45.8123" lon="1.66197">
        <ele>432.5</ele>
        <time>2022-08-02T07:14:08Z</time>
      </trkpt>
      <trkpt lat="45.81231" lon="1.66202">
        <ele>433</ele>
        <time>2022-08-02T07:14:10Z</time>
      </trkpt>
      <trkpt lat="45.81231" lon="1.66206">
        <ele>433.4</ele>
        <time>2022-08-02T07:14:12Z</time>
      </trkpt>
      <trkpt lat="45.81232" lon="1.6621">
        <ele>433.8</ele>
        <time>2022-08-02T07:14:14Z</time>
      </trkpt>
      <trkpt lat="45.81232" lon="1.66215">
        <ele>434.5</ele>
        <time>2022-08-02T07:14:16Z</time>
      </trkpt>
      <trkpt lat="45.81231" lon="1.6622">
        <ele>435.3</ele>
        <time>2022-08-02T07:14:18Z</time>
      </trkpt>
      <trkpt lat="45.81231" lon="1.66224">
        <ele>435.9</ele>
        <time>2022-08-02T07:14:20Z</time>
      </trkpt>
      <trkpt lat="45.8123" lon="1.66229">
        <ele>436.5</ele>
        <time>2022-08-02T07:14:22Z</time>
      </trkpt>
      <trkpt lat="45.8123" lon="1.66234">
        <ele>437.3</ele>
        <time>2022-08-02T07:14:24Z</time>
      </trkpt>
      <trkpt lat="45.8123" lon="1.66238">
        <ele>437.9</ele>
        <time>2022-08-02T07:14:26Z</time>
      </trkpt>
      <trkpt lat="45.81229" lon="1.66243">
        <ele>438.7</ele>
        <time>2022-08-02T07:14:28Z</time>
      </trkpt>
      <trkpt lat="45.81229" lon="1.66248">
        <ele>439.3</ele>
        <time>2022-08-02T07:14:30Z</time>
      </trkpt>
      <trkpt lat="45.81228" lon="1.66252">
        <ele>439.8</ele>
        <time>2022-08-02T07:14:32Z</time>
      </trkpt>
      <trkpt lat="45.81228" lon="1.66256">
        <ele>440.1</ele>
        <time>2022-08-02T07:14:34Z</time>
      </trkpt>
      <trkpt lat="45.81227" lon="1.66261">
        <ele>440.5</ele>
        <time>2022-08-02T07:14:36Z</time>
      </trkpt>
      <trkpt lat="45.81226" lon="1.66265">
        <ele>440.9</ele>
        <time>2022-08-02T07:14:38Z</time>
      </trkpt>
      <trkpt lat="45.81225" lon="1.6627">
        <ele>441.3</ele>
        <time>2022-08-02T07:14:40Z</time>
      </trkpt>
      <trkpt lat="45.81225" lon="1.66274">
        <ele>441.7</ele>
        <time>2022-08-02T07:14:42Z</time>
      </trkpt>
      <trkpt lat="45.81223" lon="1.66278">
        <ele>442.2</ele>
        <time>2022-08-02T07:14:44Z</time>
      </trkpt>
      <trkpt lat="45.81223" lon="1.66282">
        <ele>442.6</ele>
        <time>2022-08-02T07:14:46Z</time>
      </trkpt>
      <trkpt lat="45.81222" lon="1.66286">
        <ele>443</ele>
        <time>2022-08-02T07:14:48Z</time>
      </trkpt>
      <trkpt lat="45.81221" lon="1.6629">
        <ele>443.5</ele>
        <time>2022-08-02T07:14:50Z</time>
      </trkpt>
      <trkpt lat="45.81221" lon="1.66294">
        <ele>443.7</ele>
        <time>2022-08-02T07:14:52Z</time>
      </trkpt>
      <trkpt lat="45.8122" lon="1.66298">
        <ele>444.1</ele>
        <time>2022-08-02T07:14:54Z</time>
      </trkpt>
      <trkpt lat="45.81219" lon="1.66302">
        <ele>444.6</ele>
        <time>2022-08-02T07:14:56Z</time>
      </trkpt>
      <trkpt lat="45.81218" lon="1.66306">
        <ele>445.1</ele>
        <time>2022-08-02T07:14:58Z</time>
      </trkpt>
      <trkpt lat="45.81217" lon="1.6631">
        <ele>445.4</ele>
        <time>2022-08-02T07:15:00Z</time>
      </trkpt>
      <trkpt lat="45.81217" lon="1.66314">
        <ele>445.7</ele>
        <time>2022-08-02T07:15:02Z</time>
      </trkpt>
      <trkpt lat="45.81216" lon="1.66319">
        <ele>446.3</ele>
        <time>2022-08-02T07:15:04Z</time>
      </trkpt>
      <trkpt lat="45.81215" lon="1.66323">
        <ele>446.8</ele>
        <time>2022-08-02T07:15:06Z</time>
      </trkpt>
      <trkpt lat="45.81215" lon="1.66327">
        <ele>447.2</ele>
        <time>2022-08-02T07:15:08Z</time>
      </trkpt>
      <trkpt lat="45.81214" lon="1.66331">
        <ele>447.7</ele>
        <time>2022-08-02T07:15:10Z</time>
      </trkpt>
      <trkpt lat="45.81213" lon="1.66335">
        <ele>448.2</ele>
        <time>2022-08-02T07:15:12Z</time>
      </trkpt>
      <trkpt lat="45.81212" lon="1.66339">
        <ele>448.4</ele>
        <time>2022-08-02T07:15:14Z</time>
      </trkpt>
      <trkpt lat="45.81211" lon="1.66342">
        <ele>448.5</ele>
        <time>2022-08-02T07:15:16Z</time>
      </trkpt>
      <trkpt lat="45.81211" lon="1.66346">
        <ele>448.5</ele>
        <time>2022-08-02T07:15:18Z</time>
      </trkpt>
      <trkpt lat="45.8121" lon="1.6635">
        <ele>448.6</ele>
        <time>2022-08-02T07:15:20Z</time>
      </trkpt>
      <trkpt lat="45.8121" lon="1.66355">
        <ele>448.7</ele>
        <time>2022-08-02T07:15:22Z</time>
      </trkpt>
      <trkpt lat="45.81209" lon="1.66359">
        <ele>448.8</ele>
        <time>2022-08-02T07:15:24Z</time>
      </trkpt>
      <trkpt lat="45.81209" lon="1.66363">
        <ele>448.8</ele>
        <time>2022-08-02T07:15:26Z</time>
      </trkpt>
      <trkpt lat="45.81208" lon="1.66368">
        <ele>449</ele>
        <time>2022-08-02T07:15:28Z</time>
      </trkpt>
      <trkpt lat="45.81207" lon="1.66372">
        <ele>449.2</ele>
        <time>2022-08-02T07:15:30Z</time>
      </trkpt>
      <trkpt lat="45.81206" lon="1.66376">
        <ele>449.4</ele>
        <time>2022-08-02T07:15:32Z</time>
      </trkpt>
      <trkpt lat="45.81206" lon="1.6638">
        <ele>449.5</ele>
        <time>2022-08-02T07:15:34Z</time>
      </trkpt>
      <trkpt lat="45.81205" lon="1.66385">
        <ele>449.5</ele>
        <time>2022-08-02T07:15:36Z</time>
      </trkpt>
      <trkpt lat="45.81205" lon="1.66389">
        <ele>449.7</ele>
        <time>2022-08-02T07:15:38Z</time>
      </trkpt>
      <trkpt lat="45.81203" lon="1.66393">
        <ele>450</ele>
        <time>2022-08-02T07:15:40Z</time>
      </trkpt>
      <trkpt lat="45.81202" lon="1.66397">
        <ele>450.3</ele>
        <time>2022-08-02T07:15:42Z</time>
      </trkpt>
      <trkpt lat="45.81201" lon="1.66402">
        <ele>450.6</ele>
        <time>2022-08-02T07:15:44Z</time>
      </trkpt>
      <trkpt lat="45.812" lon="1.66407">
        <ele>450.9</ele>
        <time>2022-08-02T07:15:46Z</time>
      </trkpt>
      <trkpt lat="45.81198" lon="1.66412">
        <ele>451.3</ele>
        <time>2022-08-02T07:15:48Z</time>
      </trkpt>
      <trkpt lat="45.81197" lon="1.66416">
        <ele>451.5</ele>
        <time>2022-08-02T07:15:50Z</time>
      </trkpt>
      <trkpt lat="45.81196" lon="1.66421">
        <ele>451.6</ele>
        <time>2022-08-02T07:15:52Z</time>
      </trkpt>
      <trkpt lat="45.81194" lon="1.66426">
        <ele>451.6</ele>
        <time>2022-08-02T07:15:54Z</time>
      </trkpt>
      <trkpt lat="45.81193" lon="1.6643">
        <ele>451.8</ele>
        <time>2022-08-02T07:15:56Z</time>
      </trkpt>
      <trkpt lat="45.81192" lon="1.66434">
        <ele>451.6</ele>
        <time>2022-08-02T07:15:58Z</time>
      </trkpt>
      <trkpt lat="45.8119" lon="1.66439">
        <ele>451.8</ele>
        <time>2022-08-02T07:16:00Z</time>
      </trkpt>
      <trkpt lat="45.81189" lon="1.66443">
        <ele>452.1</ele>
        <time>2022-08-02T07:16:02Z</time>
      </trkpt>
      <trkpt lat="45.81187" lon="1.66446">
        <ele>452.3</ele>
        <time>2022-08-02T07:16:04Z</time>
      </trkpt>
      <trkpt lat="45.81186" lon="1.6645">
        <ele>452.4</ele>
        <time>2022-08-02T07:16:06Z</time>
      </trkpt>
      <trkpt lat="45.81184" lon="1.66454">
        <ele>452.6</ele>
        <time>2022-08-02T07:16:08Z</time>
      </trkpt>
      <trkpt lat="45.81183" lon="1.66458">
        <ele>452.8</ele>
        <time>2022-08-02T07:16:10Z</time>
      </trkpt>
      <trkpt lat="45.81181" lon="1.66462">
        <ele>453.1</ele>
        <time>2022-08-02T07:16:12Z</time>
      </trkpt>
      <trkpt lat="45.8118" lon="1.66466">
        <ele>453.1</ele>
        <time>2022-08-02T07:16:14Z</time>
      </trkpt>
      <trkpt lat="45.81177" lon="1.66469">
        <ele>453.7</ele>
        <time>2022-08-02T07:16:16Z</time>
      </trkpt>
      <trkpt lat="45.81175" lon="1.66473">
        <ele>454</ele>
        <time>2022-08-02T07:16:18Z</time>
      </trkpt>
      <trkpt lat="45.81173" lon="1.66477">
        <ele>454.4</ele>
        <time>2022-08-02T07:16:20Z</time>
      </trkpt>
      <trkpt lat="45.81172" lon="1.6648">
        <ele>454.7</ele>
        <time>2022-08-02T07:16:22Z</time>
      </trkpt>
      <trkpt lat="45.8117" lon="1.66484">
        <ele>455.1</ele>
        <time>2022-08-02T07:16:24Z</time>
      </trkpt>
      <trkpt lat="45.81168" lon="1.66488">
        <ele>455.5</ele>
        <time>2022-08-02T07:16:26Z</time>
      </trkpt>
      <trkpt lat="45.81166" lon="1.66491">
        <ele>455.9</ele>
        <time>2022-08-02T07:16:28Z</time>
      </trkpt>
      <trkpt lat="45.81164" lon="1.66495">
        <ele>455.9</ele>
        <time>2022-08-02T07:16:30Z</time>
      </trkpt>
      <trkpt lat="45.81162" lon="1.66499">
        <ele>456.1</ele>
        <time>2022-08-02T07:16:32Z</time>
      </trkpt>
      <trkpt lat="45.8116" lon="1.66503">
        <ele>455.9</ele>
        <time>2022-08-02T07:16:34Z</time>
      </trkpt>
      <trkpt lat="45.81158" lon="1.66507">
        <ele>455.6</ele>
        <time>2022-08-02T07:16:36Z</time>
      </trkpt>
      <trkpt lat="45.81156" lon="1.66511">
        <ele>455.2</ele>
        <time>2022-08-02T07:16:38Z</time>
      </trkpt>
      <trkpt lat="45.81155" lon="1.66514">
        <ele>454.9</ele>
        <time>2022-08-02T07:16:40Z</time>
      </trkpt>
      <trkpt lat="45.81153" lon="1.66519">
        <ele>454.6</ele>
        <time>2022-08-02T07:16:42Z</time>
      </trkpt>
      <trkpt lat="45.81151" lon="1.66521">
        <ele>454.6</ele>
        <time>2022-08-02T07:16:44Z</time>
      </trkpt>
      <trkpt lat="45.81149" lon="1.66525">
        <ele>454.4</ele>
        <time>2022-08-02T07:16:46Z</time>
      </trkpt>
      <trkpt lat="45.81147" lon="1.66529">
        <ele>454.1</ele>
        <time>2022-08-02T07:16:48Z</time>
      </trkpt>
      <trkpt lat="45.81145" lon="1.66532">
        <ele>453.9</ele>
        <time>2022-08-02T07:16:50Z</time>
      </trkpt>
      <trkpt lat="45.81143" lon="1.66536">
        <ele>453.8</ele>
        <time>2022-08-02T07:16:52Z</time>
      </trkpt>
      <trkpt lat="45.81141" lon="1.6654">
        <ele>453.6</ele>
        <time>2022-08-02T07:16:54Z</time>
      </trkpt>
      <trkpt lat="45.81139" lon="1.66542">
        <ele>453.6</ele>
        <time>2022-08-02T07:16:56Z</time>
      </trkpt>
      <trkpt lat="45.81138" lon="1.66546">
        <ele>453.4</ele>
        <time>2022-08-02T07:16:58Z</time>
      </trkpt>
      <trkpt lat="45.81136" lon="1.66551">
        <ele>453</ele>
        <time>2022-08-02T07:17:00Z</time>
      </trkpt>
      <trkpt lat="45.81134" lon="1.66555">
        <ele>452.9</ele>
        <time>2022-08-02T07:17:02Z</time>
      </trkpt>
      <trkpt lat="45.81131" lon="1.66559">
        <ele>452.8</ele>
        <time>2022-08-02T07:17:04Z</time>
      </trkpt>
      <trkpt lat="45.8113" lon="1.66564">
        <ele>452.4</ele>
        <time>2022-08-02T07:17:06Z</time>
      </trkpt>
      <trkpt lat="45.81128" lon="1.66568">
        <ele>452.1</ele>
        <time>2022-08-02T07:17:08Z</time>
      </trkpt>
      <trkpt lat="45.81126" lon="1.66572">
        <ele>452</ele>
        <time>2022-08-02T07:17:10Z</time>
      </trkpt>
      <trkpt lat="45.81124" lon="1.66575">
        <ele>452</ele>
        <time>2022-08-02T07:17:12Z</time>
      </trkpt>
      <trkpt lat="45.81122" lon="1.66579">
        <ele>451.8</ele>
        <time>2022-08-02T07:17:14Z</time>
      </trkpt>
      <trkpt lat="45.8112" lon="1.66583">
        <ele>451.8</ele>
        <time>2022-08-02T07:17:16Z</time>
      </trkpt>
      <trkpt lat="45.81119" lon="1.66587">
        <ele>451.9</ele>
        <time>2022-08-02T07:17:18Z</time>
      </trkpt>
      <trkpt lat="45.81118" lon="1.66591">
        <ele>451.9</ele>
        <time>2022-08-02T07:17:20Z</time>
      </trkpt>
      <trkpt lat="45.81116" lon="1.66594">
        <ele>452.2</ele>
        <time>2022-08-02T07:17:22Z</time>
      </trkpt>
      <trkpt lat="45.81114" lon="1.66598">
        <ele>452.5</ele>
        <time>2022-08-02T07:17:24Z</time>
      </trkpt>
      <trkpt lat="45.81112" lon="1.66601">
        <ele>452.7</ele>
        <time>2022-08-02T07:17:26Z</time>
      </trkpt>
      <trkpt lat="45.8111" lon="1.66605">
        <ele>453</ele>
        <time>2022-08-02T07:17:28Z</time>
      </trkpt>
      <trkpt lat="45.81108" lon="1.66608">
        <ele>453.2</ele>
        <time>2022-08-02T07:17:30Z</time>
      </trkpt>
      <trkpt lat="45.81107" lon="1.66612">
        <ele>453.4</ele>
        <time>2022-08-02T07:17:32Z</time>
      </trkpt>
      <trkpt lat="45.81105" lon="1.66615">
        <ele>453.6</ele>
        <time>2022-08-02T07:17:34Z</time>
      </trkpt>
      <trkpt lat="45.81103" lon="1.66619">
        <ele>453.8</ele>
        <time>2022-08-02T07:17:36Z</time>
      </trkpt>
      <trkpt lat="45.81101" lon="1.66623">
        <ele>454</ele>
        <time>2022-08-02T07:17:38Z</time>
      </trkpt>
      <trkpt lat="45.81099" lon="1.66626">
        <ele>454.2</ele>
        <time>2022-08-02T07:17:40Z</time>
      </trkpt>
      <trkpt lat="45.81098" lon="1.6663">
        <ele>454.3</ele>
        <time>2022-08-02T07:17:42Z</time>
      </trkpt>
      <trkpt lat="45.81096" lon="1.66634">
        <ele>454.5</ele>
        <time>2022-08-02T07:17:44Z</time>
      </trkpt>
      <trkpt lat="45.81094" lon="1.66638">
        <ele>454.6</ele>
        <time>2022-08-02T07:17:46Z</time>
      </trkpt>
      <trkpt lat="45.81092" lon="1.66642">
        <ele>454.7</ele>
        <time>2022-08-02T07:17:48Z</time>
      </trkpt>
      <trkpt lat="45.8109" lon="1.66645">
        <ele>455</ele>
        <time>2022-08-02T07:17:50Z</time>
      </trkpt>
      <trkpt lat="45.81089" lon="1.66648">
        <ele>455</ele>
        <time>2022-08-02T07:17:52Z</time>
      </trkpt>
      <trkpt lat="45.81087" lon="1.66652">
        <ele>455.3</ele>
        <time>2022-08-02T07:17:54Z</time>
      </trkpt>
      <trkpt lat="45.81084" lon="1.66656">
        <ele>455.6</ele>
        <time>2022-08-02T07:17:56Z</time>
      </trkpt>
      <trkpt lat="45.81082" lon="1.66659">
        <ele>455.7</ele>
        <time>2022-08-02T07:17:58Z</time>
      </trkpt>
      <trkpt lat="45.8108" lon="1.66663">
        <ele>455.8</ele>
        <time>2022-08-02T07:18:00Z</time>
      </trkpt>
      <trkpt lat="45.81079" lon="1.66667">
        <ele>455.8</ele>
        <time>2022-08-02T07:18:02Z</time>
      </trkpt>
      <trkpt lat="45.81077" lon="1.6667">
        <ele>456.2</ele>
        <time>2022-08-02T07:18:04Z</time>
      </trkpt>
      <trkpt lat="45.81074" lon="1.66674">
        <ele>456.6</ele>
        <time>2022-08-02T07:18:06Z</time>
      </trkpt>
      <trkpt lat="45.81072" lon="1.66678">
        <ele>456.9</ele>
        <time>2022-08-02T07:18:08Z</time>
      </trkpt>
      <trkpt lat="45.81071" lon="1.66681">
        <ele>457.2</ele>
        <time>2022-08-02T07:18:10Z</time>
      </trkpt>
      <trkpt lat="45.8107" lon="1.66686">
        <ele>457.4</ele>
        <time>2022-08-02T07:18:12Z</time>
      </trkpt>
      <trkpt lat="45.81068" lon="1.66689">
        <ele>457.7</ele>
        <time>2022-08-02T07:18:14Z</time>
      </trkpt>
      <trkpt lat="45.81065" lon="1.66693">
        <ele>458</ele>
        <time>2022-08-02T07:18:16Z</time>
      </trkpt>
      <trkpt lat="45.81063" lon="1.66696">
        <ele>458.4</ele>
        <time>2022-08-02T07:18:18Z</time>
      </trkpt>
      <trkpt lat="45.81061" lon="1.66699">
        <ele>458.8</ele>
        <time>2022-08-02T07:18:20Z</time>
      </trkpt>
      <trkpt lat="45.81059" lon="1.66702">
        <ele>459</ele>
        <time>2022-08-02T07:18:22Z</time>
      </trkpt>
      <trkpt lat="45.81057" lon="1.66706">
        <ele>459.3</ele>
        <time>2022-08-02T07:18:24Z</time>
      </trkpt>
      <trkpt lat="45.81055" lon="1.66709">
        <ele>459.5</ele>
        <time>2022-08-02T07:18:26Z</time>
      </trkpt>
      <trkpt lat="45.81053" lon="1.66713">
        <ele>459.8</ele>
        <time>2022-08-02T07:18:28Z</time>
      </trkpt>
      <trkpt lat="45.8105" lon="1.66716">
        <ele>460.3</ele>
        <time>2022-08-02T07:18:30Z</time>
      </trkpt>
      <trkpt lat="45.81047" lon="1.66719">
        <ele>460.6</ele>
        <time>2022-08-02T07:18:32Z</time>
      </trkpt>
      <trkpt lat="45.81045" lon="1.66722">
        <ele>460.9</ele>
        <time>2022-08-02T07:18:34Z</time>
      </trkpt>
      <trkpt lat="45.81042" lon="1.66725">
        <ele>461.3</ele>
        <time>2022-08-02T07:18:36Z</time>
      </trkpt>
      <trkpt lat="45.81039" lon="1.66727">
        <ele>461.6</ele>
        <time>2022-08-02T07:18:38Z</time>
      </trkpt>
      <trkpt lat="45.81036" lon="1.66729">
        <ele>462</ele>
        <time>2022-08-02T07:18:40Z</time>
      </trkpt>
      <trkpt lat="45.81033" lon="1.66731">
        <ele>462.4</ele>
        <time>2022-08-02T07:18:42Z</time>
      </trkpt>
      <trkpt lat="45.8103" lon="1.66732">
        <ele>462.8</ele>
        <time>2022-08-02T07:18:44Z</time>
      </trkpt>
      <trkpt lat="45.81027" lon="1.66735">
        <ele>463.1</ele>
        <time>2022-08-02T07:18:46Z</time>
      </trkpt>
      <trkpt lat="45.81024" lon="1.66736">
        <ele>463.5</ele>
        <time>2022-08-02T07:18:48Z</time>
      </trkpt>
      <trkpt lat="45.8102" lon="1.66736">
        <ele>463.9</ele>
        <time>2022-08-02T07:18:50Z</time>
      </trkpt>
      <trkpt lat="45.81017" lon="1.66738">
        <ele>464.2</ele>
        <time>2022-08-02T07:18:52Z</time>
      </trkpt>
      <trkpt lat="45.81014" lon="1.66739">
        <ele>464.6</ele>
        <time>2022-08-02T07:18:54Z</time>
      </trkpt>
      <trkpt lat="45.81011" lon="1.66741">
        <ele>464.9</ele>
        <time>2022-08-02T07:18:56Z</time>
      </trkpt>
      <trkpt lat="45.81008" lon="1.66742">
        <ele>465.3</ele>
        <time>2022-08-02T07:18:58Z</time>
      </trkpt>
      <trkpt lat="45.81006" lon="1.66744">
        <ele>465.5</ele>
        <time>2022-08-02T07:19:00Z</time>
      </trkpt>
      <trkpt lat="45.81002" lon="1.66746">
        <ele>465.9</ele>
        <time>2022-08-02T07:19:02Z</time>
      </trkpt>
      <trkpt lat="45.80999" lon="1.66749">
        <ele>466</ele>
        <time>2022-08-02T07:19:04Z</time>
      </trkpt>
      <trkpt lat="45.80996" lon="1.66751">
        <ele>465.9</ele>
        <time>2022-08-02T07:19:06Z</time>
      </trkpt>
      <trkpt lat="45.80993" lon="1.66753">
        <ele>465.6</ele>
        <time>2022-08-02T07:19:08Z</time>
      </trkpt>
      <trkpt lat="45.8099" lon="1.66754">
        <ele>465.5</ele>
        <time>2022-08-02T07:19:10Z</time>
      </trkpt>
      <trkpt lat="45.8099" lon="1.66754">
        <ele>465.5</ele>
        <time>2022-08-02T07:19:12Z</time>
      </trkpt>
      <trkpt lat="45.8099" lon="1.66754">
        <ele>465.5</ele>
        <time>2022-08-02T07:19:14Z</time>
      </trkpt>
      <trkpt lat="45.80991" lon="1.66754">
        <ele>465.5</ele>
        <time>2022-08-02T07:19:16Z</time>
      </trkpt>
      <trkpt lat="45.80991" lon="1.66754">
        <ele>465.5</ele>
        <time>2022-08-02T07:19:18Z</time>
      </trkpt>
      <trkpt lat="45.80991" lon="1.66754">
        <ele>465.5</ele>
        <time>2022-08-02T07:19:20Z</time>
      </trkpt>
      <trkpt lat="45.80972" lon="1.66756">
        <ele>464.8</ele>
        <time>2022-08-02T07:29:36Z</time>
      </trkpt>
      <trkpt lat="45.80967" lon="1.66758">
        <ele>464.6</ele>
        <time>2022-08-02T07:29:38Z</time>
      </trkpt>
      <trkpt lat="45.80961" lon="1.6676">
        <ele>464.3</ele>
        <time>2022-08-02T07:29:40Z</time>
      </trkpt>
      <trkpt lat="45.80954" lon="1.66762">
        <ele>463.9</ele>
        <time>2022-08-02T07:29:42Z</time>
      </trkpt>
      <trkpt lat="45.80947" lon="1.66765">
        <ele>463.6</ele>
        <time>2022-08-02T07:29:44Z</time>
      </trkpt>
      <trkpt lat="45.8094" lon="1.66768">
        <ele>463.1</ele>
        <time>2022-08-02T07:29:46Z</time>
      </trkpt>
      <trkpt lat="45.80932" lon="1.66771">
        <ele>462.7</ele>
        <time>2022-08-02T07:29:48Z</time>
      </trkpt>
      <trkpt lat="45.80923" lon="1.66774">
        <ele>462.1</ele>
        <time>2022-08-02T07:29:50Z</time>
      </trkpt>
      <trkpt lat="45.80915" lon="1.66777">
        <ele>461.8</ele>
        <time>2022-08-02T07:29:52Z</time>
      </trkpt>
      <trkpt lat="45.80907" lon="1.66781">
        <ele>462.1</ele>
        <time>2022-08-02T07:29:54Z</time>
      </trkpt>
      <trkpt lat="45.80899" lon="1.66782">
        <ele>462.6</ele>
        <time>2022-08-02T07:29:56Z</time>
      </trkpt>
      <trkpt lat="45.80889" lon="1.66786">
        <ele>462.8</ele>
        <time>2022-08-02T07:29:58Z</time>
      </trkpt>
      <trkpt lat="45.80879" lon="1.6679">
        <ele>463</ele>
        <time>2022-08-02T07:30:00Z</time>
      </trkpt>
      <trkpt lat="45.80869" lon="1.66795">
        <ele>462.9</ele>
        <time>2022-08-02T07:30:02Z</time>
      </trkpt>
      <trkpt lat="45.80859" lon="1.66801">
        <ele>462.6</ele>
        <time>2022-08-02T07:30:04Z</time>
      </trkpt>
      <trkpt lat="45.80851" lon="1.66806">
        <ele>462.1</ele>
        <time>2022-08-02T07:30:06Z</time>
      </trkpt>
      <trkpt lat="45.80843" lon="1.66811">
        <ele>461.7</ele>
        <time>2022-08-02T07:30:08Z</time>
      </trkpt>
      <trkpt lat="45.80836" lon="1.66816">
        <ele>461</ele>
        <time>2022-08-02T07:30:10Z</time>
      </trkpt>
      <trkpt lat="45.80829" lon="1.66822">
        <ele>460.9</ele>
        <time>2022-08-02T07:30:12Z</time>
      </trkpt>
      <trkpt lat="45.80822" lon="1.66828">
        <ele>461.2</ele>
        <time>2022-08-02T07:30:14Z</time>
      </trkpt>
      <trkpt lat="45.80815" lon="1.66834">
        <ele>461.7</ele>
        <time>2022-08-02T07:30:16Z</time>
      </trkpt>
      <trkpt lat="45.80807" lon="1.66841">
        <ele>462.2</ele>
        <time>2022-08-02T07:30:18Z</time>
      </trkpt>
      <trkpt lat="45.80801" lon="1.6685">
        <ele>462.2</ele>
        <time>2022-08-02T07:30:20Z</time>
      </trkpt>
      <trkpt lat="45.80797" lon="1.6686">
        <ele>461.6</ele>
        <time>2022-08-02T07:30:22Z</time>
      </trkpt>
      <trkpt lat="45.80793" lon="1.66867">
        <ele>461.1</ele>
        <time>2022-08-02T07:30:24Z</time>
      </trkpt>
      <trkpt lat="45.80791" lon="1.6687">
        <ele>461.1</ele>
        <time>2022-08-02T07:30:26Z</time>
      </trkpt>
      <trkpt lat="45.80791" lon="1.6687">
        <ele>461.2</ele>
        <time>2022-08-02T07:30:28Z</time>
      </trkpt>
      <trkpt lat="45.8079" lon="1.6687">
        <ele>461.3</ele>
        <time>2022-08-02T07:30:30Z</time>
      </trkpt>
      <trkpt lat="45.8079" lon="1.6687">
        <ele>461.4</ele>
        <time>2022-08-02T07:30:32Z</time>
      </trkpt>
      <trkpt lat="45.80789" lon="1.6687">
        <ele>461.4</ele>
        <time>2022-08-02T07:30:34Z</time>
      </trkpt>
      <trkpt lat="45.80775" lon="1.66883">
        <ele>461.9</ele>
        <time>2022-08-02T07:31:00Z</time>
      </trkpt>
      <trkpt lat="45.80771" lon="1.66889">
        <ele>461.4</ele>
        <time>2022-08-02T07:31:02Z</time>
      </trkpt>
      <trkpt lat="45.80767" lon="1.66896">
        <ele>461</ele>
        <time>2022-08-02T07:31:04Z</time>
      </trkpt>
      <trkpt lat="45.80762" lon="1.66903">
        <ele>460.6</ele>
        <time>2022-08-02T07:31:06Z</time>
      </trkpt>
      <trkpt lat="45.80759" lon="1.66909">
        <ele>460</ele>
        <time>2022-08-02T07:31:08Z</time>
      </trkpt>
      <trkpt lat="45.80755" lon="1.66917">
        <ele>459.3</ele>
        <time>2022-08-02T07:31:10Z</time>
      </trkpt>
      <trkpt lat="45.8075" lon="1.66925">
        <ele>459.2</ele>
        <time>2022-08-02T07:31:12Z</time>
      </trkpt>
      <trkpt lat="45.80747" lon="1.66932">
        <ele>458.9</ele>
        <time>2022-08-02T07:31:14Z</time>
      </trkpt>
      <trkpt lat="45.80743" lon="1.66939">
        <ele>458.9</ele>
        <time>2022-08-02T07:31:16Z</time>
      </trkpt>
      <trkpt lat="45.80739" lon="1.66946">
        <ele>458.7</ele>
        <time>2022-08-02T07:31:18Z</time>
      </trkpt>
      <trkpt lat="45.80735" lon="1.66953">
        <ele>458.6</ele>
        <time>2022-08-02T07:31:20Z</time>
      </trkpt>
      <trkpt lat="45.80731" lon="1.66957">
        <ele>458.7</ele>
        <time>2022-08-02T07:31:22Z</time>
      </trkpt>
      <trkpt lat="45.80729" lon="1.66962">
        <ele>458.6</ele>
        <time>2022-08-02T07:31:24Z</time>
      </trkpt>
      <trkpt lat="45.80726" lon="1.66968">
        <ele>458.5</ele>
        <time>2022-08-02T07:31:26Z</time>
      </trkpt>
      <trkpt lat="45.80722" lon="1.66973">
        <ele>458.6</ele>
        <time>2022-08-02T07:31:28Z</time>
      </trkpt>
      <trkpt lat="45.80718" lon="1.66977">
        <ele>458.7</ele>
        <time>2022-08-02T07:31:30Z</time>
      </trkpt>
      <trkpt lat="45.80715" lon="1.66982">
        <ele>458.6</ele>
        <time>2022-08-02T07:31:32Z</time>
      </trkpt>
      <trkpt lat="45.80712" lon="1.66989">
        <ele>458.5</ele>
        <time>2022-08-02T07:31:34Z</time>
      </trkpt>
      <trkpt lat="45.8071" lon="1.66996">
        <ele>458.2</ele>
        <time>2022-08-02T07:31:36Z</time>
      </trkpt>
      <trkpt lat="45.80709" lon="1.67002">
        <ele>457.9</ele>
        <time>2022-08-02T07:31:38Z</time>
      </trkpt>
      <trkpt lat="45.80709" lon="1.67008">
        <ele>457.7</ele>
        <time>2022-08-02T07:31:40Z</time>
      </trkpt>
      <trkpt lat="45.8071" lon="1.67011">
        <ele>457.6</ele>
        <time>2022-08-02T07:31:42Z</time>
      </trkpt>
      <trkpt lat="45.80712" lon="1.67018">
        <ele>457.1</ele>
        <time>2022-08-02T07:31:44Z</time>
      </trkpt>
      <trkpt lat="45.80714" lon="1.67028">
        <ele>456.5</ele>
        <time>2022-08-02T07:31:46Z</time>
      </trkpt>
      <trkpt lat="45.80714" lon="1.67041">
        <ele>456.2</ele>
        <time>2022-08-02T07:31:48Z</time>
      </trkpt>
      <trkpt lat="45.8071" lon="1.67055">
        <ele>456.4</ele>
        <time>2022-08-02T07:31:50Z</time>
      </trkpt>
      <trkpt lat="45.80705" lon="1.67068">
        <ele>456.9</ele>
        <time>2022-08-02T07:31:52Z</time>
      </trkpt>
      <trkpt lat="45.807" lon="1.67083">
        <ele>457.2</ele>
        <time>2022-08-02T07:31:54Z</time>
      </trkpt>
      <trkpt lat="45.80697" lon="1.67099">
        <ele>456.6</ele>
        <time>2022-08-02T07:31:56Z</time>
      </trkpt>
      <trkpt lat="45.80697" lon="1.67117">
        <ele>455.6</ele>
        <time>2022-08-02T07:31:58Z</time>
      </trkpt>
      <trkpt lat="45.80698" lon="1.67134">
        <ele>454.4</ele>
        <time>2022-08-02T07:32:00Z</time>
      </trkpt>
      <trkpt lat="45.80701" lon="1.6715">
        <ele>453.1</ele>
        <time>2022-08-02T07:32:02Z</time>
      </trkpt>
      <trkpt lat="45.80706" lon="1.67167">
        <ele>451.6</ele>
        <time>2022-08-02T07:32:04Z</time>
      </trkpt>
      <trkpt lat="45.80707" lon="1.67184">
        <ele>449.8</ele>
        <time>2022-08-02T07:32:06Z</time>
      </trkpt>
      <trkpt lat="45.80705" lon="1.67203">
        <ele>448</ele>
        <time>2022-08-02T07:32:08Z</time>
      </trkpt>
      <trkpt lat="45.80696" lon="1.67219">
        <ele>446.6</ele>
        <time>2022-08-02T07:32:10Z</time>
      </trkpt>
      <trkpt lat="45.80683" lon="1.67229">
        <ele>445.6</ele>
        <time>2022-08-02T07:32:12Z</time>
      </trkpt>
      <trkpt lat="45.8067" lon="1.67241">
        <ele>444.3</ele>
        <time>2022-08-02T07:32:14Z</time>
      </trkpt>
      <trkpt lat="45.80657" lon="1.67252">
        <ele>444.1</ele>
        <time>2022-08-02T07:32:16Z</time>
      </trkpt>
      <trkpt lat="45.80643" lon="1.67265">
        <ele>445.5</ele>
        <time>2022-08-02T07:32:18Z</time>
      </trkpt>
      <trkpt lat="45.8063" lon="1.67279">
        <ele>447.3</ele>
        <time>2022-08-02T07:32:20Z</time>
      </trkpt>
      <trkpt lat="45.80618" lon="1.67292">
        <ele>448.9</ele>
        <time>2022-08-02T07:32:22Z</time>
      </trkpt>
      <trkpt lat="45.8061" lon="1.67308">
        <ele>450.3</ele>
        <time>2022-08-02T07:32:24Z</time>
      </trkpt>
      <trkpt lat="45.80611" lon="1.67329">
        <ele>450.6</ele>
        <time>2022-08-02T07:32:26Z</time>
      </trkpt>
      <trkpt lat="45.80617" lon="1.67345">
        <ele>450.4</ele>
        <time>2022-08-02T07:32:28Z</time>
      </trkpt>
      <trkpt lat="45.80627" lon="1.67354">
        <ele>449.3</ele>
        <time>2022-08-02T07:32:30Z</time>
      </trkpt>
      <trkpt lat="45.80634" lon="1.67364">
        <ele>448.8</ele>
        <time>2022-08-02T07:32:32Z</time>
      </trkpt>
      <trkpt lat="45.80641" lon="1.67372">
        <ele>448.2</ele>
        <time>2022-08-02T07:32:34Z</time>
      </trkpt>
      <trkpt lat="45.80647" lon="1.6738">
        <ele>447.7</ele>
        <time>2022-08-02T07:32:36Z</time>
      </trkpt>
      <trkpt lat="45.80653" lon="1.67387">
        <ele>447.2</ele>
        <time>2022-08-02T07:32:38Z</time>
      </trkpt>
      <trkpt lat="45.80657" lon="1.67394">
        <ele>447.1</ele>
        <time>2022-08-02T07:32:40Z</time>
      </trkpt>
      <trkpt lat="45.80662" lon="1.67401">
        <ele>446.7</ele>
        <time>2022-08-02T07:32:42Z</time>
      </trkpt>
      <trkpt lat="45.80666" lon="1.67409">
        <ele>446.6</ele>
        <time>2022-08-02T07:32:44Z</time>
      </trkpt>
      <trkpt lat="45.80668" lon="1.67418">
        <ele>446.9</ele>
        <time>2022-08-02T07:32:46Z</time>
      </trkpt>
      <trkpt lat="45.80671" lon="1.67429">
        <ele>446.8</ele>
        <time>2022-08-02T07:32:48Z</time>
      </trkpt>
      <trkpt lat="45.80675" lon="1.6744">
        <ele>446.7</ele>
        <time>2022-08-02T07:32:50Z</time>
      </trkpt>
      <trkpt lat="45.80679" lon="1.67452">
        <ele>446.6</ele>
        <time>2022-08-02T07:32:52Z</time>
      </trkpt>
      <trkpt lat="45.80683" lon="1.67464">
        <ele>446.6</ele>
        <time>2022-08-02T07:32:54Z</time>
      </trkpt>
      <trkpt lat="45.80687" lon="1.67477">
        <ele>446.6</ele>
        <time>2022-08-02T07:32:56Z</time>
      </trkpt>
      <trkpt lat="45.80693" lon="1.67488">
        <ele>446.4</ele>
        <time>2022-08-02T07:32:58Z</time>
      </trkpt>
      <trkpt lat="45.807" lon="1.67497">
        <ele>446.2</ele>
        <time>2022-08-02T07:33:00Z</time>
      </trkpt>
      <trkpt lat="45.80706" lon="1.67506">
        <ele>446.8</ele>
        <time>2022-08-02T07:33:02Z</time>
      </trkpt>
      <trkpt lat="45.80714" lon="1.67514">
        <ele>447.3</ele>
        <time>2022-08-02T07:33:04Z</time>
      </trkpt>
      <trkpt lat="45.80724" lon="1.67522">
        <ele>447.8</ele>
        <time>2022-08-02T07:33:06Z</time>
      </trkpt>
      <trkpt lat="45.80734" lon="1.67529">
        <ele>448</ele>
        <time>2022-08-02T07:33:08Z</time>
      </trkpt>
      <trkpt lat="45.80745" lon="1.67535">
        <ele>447.9</ele>
        <time>2022-08-02T07:33:10Z</time>
      </trkpt>
      <trkpt lat="45.80758" lon="1.67538">
        <ele>446.8</ele>
        <time>2022-08-02T07:33:12Z</time>
      </trkpt>
      <trkpt lat="45.80772" lon="1.67542">
        <ele>445.9</ele>
        <time>2022-08-02T07:33:14Z</time>
      </trkpt>
      <trkpt lat="45.80786" lon="1.67544">
        <ele>444.6</ele>
        <time>2022-08-02T07:33:16Z</time>
      </trkpt>
      <trkpt lat="45.80799" lon="1.67546">
        <ele>443.3</ele>
        <time>2022-08-02T07:33:18Z</time>
      </trkpt>
      <trkpt lat="45.80814" lon="1.67546">
        <ele>441.6</ele>
        <time>2022-08-02T07:33:20Z</time>
      </trkpt>
      <trkpt lat="45.80829" lon="1.67545">
        <ele>439.8</ele>
        <time>2022-08-02T07:33:22Z</time>
      </trkpt>
      <trkpt lat="45.80843" lon="1.67545">
        <ele>437.3</ele>
        <time>2022-08-02T07:33:24Z</time>
      </trkpt>
      <trkpt lat="45.80859" lon="1.67545">
        <ele>434.1</ele>
        <time>2022-08-02T07:33:26Z</time>
      </trkpt>
      <trkpt lat="45.80875" lon="1.67548">
        <ele>431.6</ele>
        <time>2022-08-02T07:33:28Z</time>
      </trkpt>
      <trkpt lat="45.8089" lon="1.67549">
        <ele>428.9</ele>
        <time>2022-08-02T07:33:30Z</time>
      </trkpt>
      <trkpt lat="45.80905" lon="1.67558">
        <ele>427.8</ele>
        <time>2022-08-02T07:33:32Z</time>
      </trkpt>
      <trkpt lat="45.80919" lon="1.67565">
        <ele>426.6</ele>
        <time>2022-08-02T07:33:34Z</time>
      </trkpt>
      <trkpt lat="45.80931" lon="1.67581">
        <ele>426</ele>
        <time>2022-08-02T07:33:36Z</time>
      </trkpt>
      <trkpt lat="45.80941" lon="1.67599">
        <ele>427.5</ele>
        <time>2022-08-02T07:33:38Z</time>
      </trkpt>
      <trkpt lat="45.8095" lon="1.67618">
        <ele>429</ele>
        <time>2022-08-02T07:33:40Z</time>
      </trkpt>
      <trkpt lat="45.80957" lon="1.67635">
        <ele>430.4</ele>
        <time>2022-08-02T07:33:42Z</time>
      </trkpt>
      <trkpt lat="45.80964" lon="1.67651">
        <ele>431.1</ele>
        <time>2022-08-02T07:33:44Z</time>
      </trkpt>
      <trkpt lat="45.80972" lon="1.67667">
        <ele>431.4</ele>
        <time>2022-08-02T07:33:46Z</time>
      </trkpt>
      <trkpt lat="45.80978" lon="1.67684">
        <ele>432.5</ele>
        <time>2022-08-02T07:33:48Z</time>
      </trkpt>
      <trkpt lat="45.80986" lon="1.677">
        <ele>433.2</ele>
        <time>2022-08-02T07:33:50Z</time>
      </trkpt>
      <trkpt lat="45.80993" lon="1.67716">
        <ele>434.4</ele>
        <time>2022-08-02T07:33:52Z</time>
      </trkpt>
      <trkpt lat="45.81001" lon="1.6773">
        <ele>434.6</ele>
        <time>2022-08-02T07:33:54Z</time>
      </trkpt>
      <trkpt lat="45.81008" lon="1.67746">
        <ele>435.3</ele>
        <time>2022-08-02T07:33:56Z</time>
      </trkpt>
      <trkpt lat="45.81016" lon="1.67762">
        <ele>433.1</ele>
        <time>2022-08-02T07:33:58Z</time>
      </trkpt>
      <trkpt lat="45.81022" lon="1.67778">
        <ele>431.1</ele>
        <time>2022-08-02T07:34:00Z</time>
      </trkpt>
      <trkpt lat="45.81028" lon="1.67794">
        <ele>428.8</ele>
        <time>2022-08-02T07:34:02Z</time>
      </trkpt>
      <trkpt lat="45.81032" lon="1.67811">
        <ele>428.1</ele>
        <time>2022-08-02T07:34:04Z</time>
      </trkpt>
      <trkpt lat="45.81031" lon="1.67832">
        <ele>429.7</ele>
        <time>2022-08-02T07:34:06Z</time>
      </trkpt>
      <trkpt lat="45.81024" lon="1.67852">
        <ele>429.5</ele>
        <time>2022-08-02T07:34:08Z</time>
      </trkpt>
      <trkpt lat="45.81017" lon="1.67871">
        <ele>429</ele>
        <time>2022-08-02T07:34:10Z</time>
      </trkpt>
      <trkpt lat="45.81008" lon="1.67888">
        <ele>430.2</ele>
        <time>2022-08-02T07:34:12Z</time>
      </trkpt>
      <trkpt lat="45.80995" lon="1.67902">
        <ele>433.4</ele>
        <time>2022-08-02T07:34:14Z</time>
      </trkpt>
      <trkpt lat="45.80986" lon="1.6792">
        <ele>434.7</ele>
        <time>2022-08-02T07:34:16Z</time>
      </trkpt>
      <trkpt lat="45.80979" lon="1.6794">
        <ele>434.2</ele>
        <time>2022-08-02T07:34:18Z</time>
      </trkpt>
      <trkpt lat="45.80975" lon="1.67962">
        <ele>432.1</ele>
        <time>2022-08-02T07:34:20Z</time>
      </trkpt>
      <trkpt lat="45.8097" lon="1.67982">
        <ele>430.5</ele>
        <time>2022-08-02T07:34:22Z</time>
      </trkpt>
      <trkpt lat="45.80966" lon="1.67999">
        <ele>428.7</ele>
        <time>2022-08-02T07:34:24Z</time>
      </trkpt>
      <trkpt lat="45.80964" lon="1.68015">
        <ele>427</ele>
        <time>2022-08-02T07:34:26Z</time>
      </trkpt>
      <trkpt lat="45.80962" lon="1.6803">
        <ele>425.5</ele>
        <time>2022-08-02T07:34:28Z</time>
      </trkpt>
      <trkpt lat="45.80959" lon="1.68047">
        <ele>423.7</ele>
        <time>2022-08-02T07:34:30Z</time>
      </trkpt>
      <trkpt lat="45.80954" lon="1.68065">
        <ele>422.5</ele>
        <time>2022-08-02T07:34:32Z</time>
      </trkpt>
      <trkpt lat="45.80948" lon="1.68083">
        <ele>421</ele>
        <time>2022-08-02T07:34:34Z</time>
      </trkpt>
      <trkpt lat="45.80941" lon="1.681">
        <ele>420.3</ele>
        <time>2022-08-02T07:34:36Z</time>
      </trkpt>
      <trkpt lat="45.8093" lon="1.68114">
        <ele>420.8</ele>
        <time>2022-08-02T07:34:38Z</time>
      </trkpt>
      <trkpt lat="45.80915" lon="1.68122">
        <ele>422.7</ele>
        <time>2022-08-02T07:34:40Z</time>
      </trkpt>
      <trkpt lat="45.80901" lon="1.68127">
        <ele>423.7</ele>
        <time>2022-08-02T07:34:42Z</time>
      </trkpt>
      <trkpt lat="45.80887" lon="1.68128">
        <ele>425.2</ele>
        <time>2022-08-02T07:34:44Z</time>
      </trkpt>
      <trkpt lat="45.80875" lon="1.68136">
        <ele>425.3</ele>
        <time>2022-08-02T07:34:46Z</time>
      </trkpt>
      <trkpt lat="45.80866" lon="1.68153">
        <ele>423.6</ele>
        <time>2022-08-02T07:34:48Z</time>
      </trkpt>
      <trkpt lat="45.80864" lon="1.68171">
        <ele>421.2</ele>
        <time>2022-08-02T07:34:50Z</time>
      </trkpt>
      <trkpt lat="45.80865" lon="1.68187">
        <ele>419.4</ele>
        <time>2022-08-02T07:34:52Z</time>
      </trkpt>
      <trkpt lat="45.8087" lon="1.68204">
        <ele>417.1</ele>
        <time>2022-08-02T07:34:54Z</time>
      </trkpt>
      <trkpt lat="45.80878" lon="1.68222">
        <ele>414.4</ele>
        <time>2022-08-02T07:34:56Z</time>
      </trkpt>
      <trkpt lat="45.80884" lon="1.68241">
        <ele>411.7</ele>
        <time>2022-08-02T07:34:58Z</time>
      </trkpt>
      <trkpt lat="45.80887" lon="1.6826">
        <ele>409.6</ele>
        <time>2022-08-02T07:35:00Z</time>
      </trkpt>
      <trkpt lat="45.80882" lon="1.68279">
        <ele>408</ele>
        <time>2022-08-02T07:35:02Z</time>
      </trkpt>
      <trkpt lat="45.80872" lon="1.68295">
        <ele>407.5</ele>
        <time>2022-08-02T07:35:04Z</time>
      </trkpt>
      <trkpt lat="45.80858" lon="1.68306">
        <ele>407.7</ele>
        <time>2022-08-02T07:35:06Z</time>
      </trkpt>
      <trkpt lat="45.80845" lon="1.68314">
        <ele>408.1</ele>
        <time>2022-08-02T07:35:08Z</time>
      </trkpt>
      <trkpt lat="45.8083" lon="1.68324">
        <ele>408.4</ele>
        <time>2022-08-02T07:35:10Z</time>
      </trkpt>
      <trkpt lat="45.80816" lon="1.68331">
        <ele>408.5</ele>
        <time>2022-08-02T07:35:12Z</time>
      </trkpt>
      <trkpt lat="45.80801" lon="1.68343">
        <ele>407.8</ele>
        <time>2022-08-02T07:35:14Z</time>
      </trkpt>
      <trkpt lat="45.80789" lon="1.68353">
        <ele>407.1</ele>
        <time>2022-08-02T07:35:16Z</time>
      </trkpt>
      <trkpt lat="45.80776" lon="1.68367">
        <ele>406</ele>
        <time>2022-08-02T07:35:18Z</time>
      </trkpt>
      <trkpt lat="45.80764" lon="1.68384">
        <ele>404.8</ele>
        <time>2022-08-02T07:35:20Z</time>
      </trkpt>
      <trkpt lat="45.80753" lon="1.68401">
        <ele>403.7</ele>
        <time>2022-08-02T07:35:22Z</time>
      </trkpt>
      <trkpt lat="45.8074" lon="1.68416">
        <ele>401.5</ele>
        <time>2022-08-02T07:35:24Z</time>
      </trkpt>
      <trkpt lat="45.80725" lon="1.68429">
        <ele>398</ele>
        <time>2022-08-02T07:35:26Z</time>
      </trkpt>
      <trkpt lat="45.80708" lon="1.68439">
        <ele>395.2</ele>
        <time>2022-08-02T07:35:28Z</time>
      </trkpt>
      <trkpt lat="45.80691" lon="1.68444">
        <ele>393.3</ele>
        <time>2022-08-02T07:35:30Z</time>
      </trkpt>
      <trkpt lat="45.80678" lon="1.68443">
        <ele>392.9</ele>
        <time>2022-08-02T07:35:32Z</time>
      </trkpt>
      <trkpt lat="45.80666" lon="1.6844">
        <ele>392.9</ele>
        <time>2022-08-02T07:35:34Z</time>
      </trkpt>
      <trkpt lat="45.80654" lon="1.68443">
        <ele>392.6</ele>
        <time>2022-08-02T07:35:36Z</time>
      </trkpt>
      <trkpt lat="45.80645" lon="1.68456">
        <ele>390.1</ele>
        <time>2022-08-02T07:35:38Z</time>
      </trkpt>
      <trkpt lat="45.80641" lon="1.68474">
        <ele>386.9</ele>
        <time>2022-08-02T07:35:40Z</time>
      </trkpt>
      <trkpt lat="45.80632" lon="1.68491">
        <ele>383.7</ele>
        <time>2022-08-02T07:35:42Z</time>
      </trkpt>
      <trkpt lat="45.80619" lon="1.68501">
        <ele>381.8</ele>
        <time>2022-08-02T07:35:44Z</time>
      </trkpt>
      <trkpt lat="45.80603" lon="1.68507">
        <ele>380.9</ele>
        <time>2022-08-02T07:35:46Z</time>
      </trkpt>
      <trkpt lat="45.80586" lon="1.68511">
        <ele>380.2</ele>
        <time>2022-08-02T07:35:48Z</time>
      </trkpt>
      <trkpt lat="45.80569" lon="1.68516">
        <ele>379.6</ele>
        <time>2022-08-02T07:35:50Z</time>
      </trkpt>
      <trkpt lat="45.80553" lon="1.68521">
        <ele>379.2</ele>
        <time>2022-08-02T07:35:52Z</time>
      </trkpt>
      <trkpt lat="45.80539" lon="1.68525">
        <ele>378.8</ele>
        <time>2022-08-02T07:35:54Z</time>
      </trkpt>
      <trkpt lat="45.80527" lon="1.68533">
        <ele>377.8</ele>
        <time>2022-08-02T07:35:56Z</time>
      </trkpt>
      <trkpt lat="45.80518" lon="1.68546">
        <ele>376</ele>
        <time>2022-08-02T07:35:58Z</time>
      </trkpt>
      <trkpt lat="45.80511" lon="1.68561">
        <ele>374</ele>
        <time>2022-08-02T07:36:00Z</time>
      </trkpt>
      <trkpt lat="45.80507" lon="1.6857">
        <ele>372.7</ele>
        <time>2022-08-02T07:36:02Z</time>
      </trkpt>
      <trkpt lat="45.80507" lon="1.68577">
        <ele>371.8</ele>
        <time>2022-08-02T07:36:04Z</time>
      </trkpt>
      <trkpt lat="45.80508" lon="1.68578">
        <ele>371.6</ele>
        <time>2022-08-02T07:36:06Z</time>
      </trkpt>
      <trkpt lat="45.8051" lon="1.6858">
        <ele>371.3</ele>
        <time>2022-08-02T07:36:08Z</time>
      </trkpt>
      <trkpt lat="45.80511" lon="1.68581">
        <ele>371.1</ele>
        <time>2022-08-02T07:36:10Z</time>
      </trkpt>
      <trkpt lat="45.8051" lon="1.68582">
        <ele>371</ele>
        <time>2022-08-02T07:36:12Z</time>
      </trkpt>
      <trkpt lat="45.8051" lon="1.68581">
        <ele>371.1</ele>
        <time>2022-08-02T07:36:14Z</time>
      </trkpt>
      <trkpt lat="45.80514" lon="1.68621">
        <ele>373.3</ele>
        <time>2022-08-02T07:37:06Z</time>
      </trkpt>
      <trkpt lat="45.80521" lon="1.68632">
        <ele>374.2</ele>
        <time>2022-08-02T07:37:08Z</time>
      </trkpt>
      <trkpt lat="45.80531" lon="1.68641">
        <ele>375</ele>
        <time>2022-08-02T07:37:10Z</time>
      </trkpt>
      <trkpt lat="45.80542" lon="1.68644">
        <ele>375.5</ele>
        <time>2022-08-02T07:37:12Z</time>
      </trkpt>
      <trkpt lat="45.80553" lon="1.6864">
        <ele>375.3</ele>
        <time>2022-08-02T07:37:14Z</time>
      </trkpt>
      <trkpt lat="45.80564" lon="1.68634">
        <ele>374.9</ele>
        <time>2022-08-02T07:37:16Z</time>
      </trkpt>
      <trkpt lat="45.80576" lon="1.68631">
        <ele>374.6</ele>
        <time>2022-08-02T07:37:18Z</time>
      </trkpt>
      <trkpt lat="45.80588" lon="1.68629">
        <ele>374.2</ele>
        <time>2022-08-02T07:37:20Z</time>
      </trkpt>
      <trkpt lat="45.80598" lon="1.68632">
        <ele>373.8</ele>
        <time>2022-08-02T07:37:22Z</time>
      </trkpt>
      <trkpt lat="45.80606" lon="1.68631">
        <ele>373.3</ele>
        <time>2022-08-02T07:37:24Z</time>
      </trkpt>
      <trkpt lat="45.80615" lon="1.68636">
        <ele>373.1</ele>
        <time>2022-08-02T07:37:26Z</time>
      </trkpt>
      <trkpt lat="45.80623" lon="1.68636">
        <ele>372.5</ele>
        <time>2022-08-02T07:37:28Z</time>
      </trkpt>
      <trkpt lat="45.8063" lon="1.68642">
        <ele>372.3</ele>
        <time>2022-08-02T07:37:30Z</time>
      </trkpt>
      <trkpt lat="45.80637" lon="1.68645">
        <ele>371.9</ele>
        <time>2022-08-02T07:37:32Z</time>
      </trkpt>
      <trkpt lat="45.80644" lon="1.68648">
        <ele>371.5</ele>
        <time>2022-08-02T07:37:34Z</time>
      </trkpt>
      <trkpt lat="45.80653" lon="1.68654">
        <ele>371</ele>
        <time>2022-08-02T07:37:36Z</time>
      </trkpt>
      <trkpt lat="45.8066" lon="1.68659">
        <ele>370.5</ele>
        <time>2022-08-02T07:37:38Z</time>
      </trkpt>
      <trkpt lat="45.80665" lon="1.68664">
        <ele>370.2</ele>
        <time>2022-08-02T07:37:40Z</time>
      </trkpt>
      <trkpt lat="45.8067" lon="1.68671">
        <ele>370.8</ele>
        <time>2022-08-02T07:37:42Z</time>
      </trkpt>
      <trkpt lat="45.80674" lon="1.68677">
        <ele>371.9</ele>
        <time>2022-08-02T07:37:44Z</time>
      </trkpt>
      <trkpt lat="45.80678" lon="1.68683">
        <ele>373</ele>
        <time>2022-08-02T07:37:46Z</time>
      </trkpt>
      <trkpt lat="45.80679" lon="1.68691">
        <ele>374.4</ele>
        <time>2022-08-02T07:37:48Z</time>
      </trkpt>
      <trkpt lat="45.80681" lon="1.68698">
        <ele>375.7</ele>
        <time>2022-08-02T07:37:50Z</time>
      </trkpt>
      <trkpt lat="45.80682" lon="1.68705">
        <ele>376.9</ele>
        <time>2022-08-02T07:37:52Z</time>
      </trkpt>
      <trkpt lat="45.80683" lon="1.6871">
        <ele>377.8</ele>
        <time>2022-08-02T07:37:54Z</time>
      </trkpt>
      <trkpt lat="45.80684" lon="1.68716">
        <ele>379</ele>
        <time>2022-08-02T07:37:56Z</time>
      </trkpt>
      <trkpt lat="45.80685" lon="1.68721">
        <ele>379.7</ele>
        <time>2022-08-02T07:37:58Z</time>
      </trkpt>
      <trkpt lat="45.80687" lon="1.68726">
        <ele>380.4</ele>
        <time>2022-08-02T07:38:00Z</time>
      </trkpt>
      <trkpt lat="45.80688" lon="1.6873">
        <ele>381.1</ele>
        <time>2022-08-02T07:38:02Z</time>
      </trkpt>
      <trkpt lat="45.80689" lon="1.68735">
        <ele>381.9</ele>
        <time>2022-08-02T07:38:04Z</time>
      </trkpt>
      <trkpt lat="45.8069" lon="1.68739">
        <ele>382.5</ele>
        <time>2022-08-02T07:38:06Z</time>
      </trkpt>
      <trkpt lat="45.8069" lon="1.68743">
        <ele>383.3</ele>
        <time>2022-08-02T07:38:08Z</time>
      </trkpt>
      <trkpt lat="45.80691" lon="1.68748">
        <ele>384</ele>
        <time>2022-08-02T07:38:10Z</time>
      </trkpt>
      <trkpt lat="45.80691" lon="1.68749">
        <ele>384.1</ele>
        <time>2022-08-02T07:38:12Z</time>
      </trkpt>
      <trkpt lat="45.80691" lon="1.68749">
        <ele>384.1</ele>
        <time>2022-08-02T07:38:14Z</time>
      </trkpt>
      <trkpt lat="45.80691" lon="1.68749">
        <ele>384.1</ele>
        <time>2022-08-02T07:38:16Z</time>
      </trkpt>
      <trkpt lat="45.80691" lon="1.68749">
        <ele>384.1</ele>
        <time>2022-08-02T07:38:18Z</time>
      </trkpt>
      <trkpt lat="45.80697" lon="1.68767">
        <ele>383.9</ele>
        <time>2022-08-02T07:38:34Z</time>
      </trkpt>
      <trkpt lat="45.80698" lon="1.68772">
        <ele>383.9</ele>
        <time>2022-08-02T07:38:36Z</time>
      </trkpt>
      <trkpt lat="45.80699" lon="1.68777">
        <ele>384</ele>
        <time>2022-08-02T07:38:38Z</time>
      </trkpt>
      <trkpt lat="45.807" lon="1.68782">
        <ele>384</ele>
        <time>2022-08-02T07:38:40Z</time>
      </trkpt>
      <trkpt lat="45.80701" lon="1.68787">
        <ele>384</ele>
        <time>2022-08-02T07:38:42Z</time>
      </trkpt>
      <trkpt lat="45.80702" lon="1.68792">
        <ele>384</ele>
        <time>2022-08-02T07:38:44Z</time>
      </trkpt>
      <trkpt lat="45.80702" lon="1.68797">
        <ele>384.1</ele>
        <time>2022-08-02T07:38:46Z</time>
      </trkpt>
      <trkpt lat="45.80703" lon="1.68802">
        <ele>384.2</ele>
        <time>2022-08-02T07:38:48Z</time>
      </trkpt>
      <trkpt lat="45.80703" lon="1.68807">
        <ele>384.4</ele>
        <time>2022-08-02T07:38:50Z</time>
      </trkpt>
      <trkpt lat="45.80703" lon="1.68812">
        <ele>384.6</ele>
        <time>2022-08-02T07:38:52Z</time>
      </trkpt>
      <trkpt lat="45.80702" lon="1.68818">
        <ele>385</ele>
        <time>2022-08-02T07:38:54Z</time>
      </trkpt>
      <trkpt lat="45.80701" lon="1.68824">
        <ele>385.5</ele>
        <time>2022-08-02T07:38:56Z</time>
      </trkpt>
      <trkpt lat="45.807" lon="1.68829">
        <ele>386</ele>
        <time>2022-08-02T07:38:58Z</time>
      </trkpt>
      <trkpt lat="45.80699" lon="1.68835">
        <ele>386.5</ele>
        <time>2022-08-02T07:39:00Z</time>
      </trkpt>
      <trkpt lat="45.80698" lon="1.6884">
        <ele>386.8</ele>
        <time>2022-08-02T07:39:02Z</time>
      </trkpt>
      <trkpt lat="45.80696" lon="1.68846">
        <ele>387.3</ele>
        <time>2022-08-02T07:39:04Z</time>
      </trkpt>
      <trkpt lat="45.80695" lon="1.68852">
        <ele>387.6</ele>
        <time>2022-08-02T07:39:06Z</time>
      </trkpt>
      <trkpt lat="45.80694" lon="1.68857">
        <ele>388</ele>
        <time>2022-08-02T07:39:08Z</time>
      </trkpt>
      <trkpt lat="45.80692" lon="1.68863">
        <ele>388.4</ele>
        <time>2022-08-02T07:39:10Z</time>
      </trkpt>
      <trkpt lat="45.80691" lon="1.68868">
        <ele>388.7</ele>
        <time>2022-08-02T07:39:12Z</time>
      </trkpt>
      <trkpt lat="45.80691" lon="1.68874">
        <ele>388.9</ele>
        <time>2022-08-02T07:39:14Z</time>
      </trkpt>
      <trkpt lat="45.80689" lon="1.68879">
        <ele>389.3</ele>
        <time>2022-08-02T07:39:16Z</time>
      </trkpt>
      <trkpt lat="45.80689" lon="1.68884">
        <ele>389.5</ele>
        <time>2022-08-02T07:39:18Z</time>
      </trkpt>
      <trkpt lat="45.80689" lon="1.68889">
        <ele>389.4</ele>
        <time>2022-08-02T07:39:20Z</time>
      </trkpt>
      <trkpt lat="45.80689" lon="1.68894">
        <ele>389.6</ele>
        <time>2022-08-02T07:39:22Z</time>
      </trkpt>
      <trkpt lat="45.80688" lon="1.68899">
        <ele>389.8</ele>
        <time>2022-08-02T07:39:24Z</time>
      </trkpt>
      <trkpt lat="45.80688" lon="1.68905">
        <ele>389.8</ele>
        <time>2022-08-02T07:39:26Z</time>
      </trkpt>
      <trkpt lat="45.80689" lon="1.68911">
        <ele>389.5</ele>
        <time>2022-08-02T07:39:28Z</time>
      </trkpt>
      <trkpt lat="45.80691" lon="1.68918">
        <ele>389.2</ele>
        <time>2022-08-02T07:39:30Z</time>
      </trkpt>
      <trkpt lat="45.80691" lon="1.68923">
        <ele>389.1</ele>
        <time>2022-08-02T07:39:32Z</time>
      </trkpt>
      <trkpt lat="45.80692" lon="1.68929">
        <ele>388.9</ele>
        <time>2022-08-02T07:39:34Z</time>
      </trkpt>
      <trkpt lat="45.80692" lon="1.68935">
        <ele>388.7</ele>
        <time>2022-08-02T07:39:36Z</time>
      </trkpt>
      <trkpt lat="45.80693" lon="1.68941">
        <ele>388.4</ele>
        <time>2022-08-02T07:39:38Z</time>
      </trkpt>
      <trkpt lat="45.80694" lon="1.68946">
        <ele>388.1</ele>
        <time>2022-08-02T07:39:40Z</time>
      </trkpt>
      <trkpt lat="45.80697" lon="1.68951">
        <ele>387.6</ele>
        <time>2022-08-02T07:39:42Z</time>
      </trkpt>
      <trkpt lat="45.80697" lon="1.68956">
        <ele>387.4</ele>
        <time>2022-08-02T07:39:44Z</time>
      </trkpt>
      <trkpt lat="45.80698" lon="1.6896">
        <ele>387.2</ele>
        <time>2022-08-02T07:39:46Z</time>
      </trkpt>
      <trkpt lat="45.807" lon="1.68964">
        <ele>387</ele>
        <time>2022-08-02T07:39:48Z</time>
      </trkpt>
      <trkpt lat="45.80701" lon="1.68969">
        <ele>386.7</ele>
        <time>2022-08-02T07:39:50Z</time>
      </trkpt>
      <trkpt lat="45.80703" lon="1.68972">
        <ele>386.4</ele>
        <time>2022-08-02T07:39:52Z</time>
      </trkpt>
      <trkpt lat="45.80704" lon="1.68976">
        <ele>386.1</ele>
        <time>2022-08-02T07:39:54Z</time>
      </trkpt>
      <trkpt lat="45.80704" lon="1.68981">
        <ele>386.1</ele>
        <time>2022-08-02T07:39:56Z</time>
      </trkpt>
      <trkpt lat="45.80705" lon="1.68985">
        <ele>386</ele>
        <time>2022-08-02T07:39:58Z</time>
      </trkpt>
      <trkpt lat="45.80705" lon="1.68989">
        <ele>386</ele>
        <time>2022-08-02T07:40:00Z</time>
      </trkpt>
      <trkpt lat="45.80706" lon="1.68994">
        <ele>385.8</ele>
        <time>2022-08-02T07:40:02Z</time>
      </trkpt>
      <trkpt lat="45.80707" lon="1.68998">
        <ele>385.7</ele>
        <time>2022-08-02T07:40:04Z</time>
      </trkpt>
      <trkpt lat="45.80707" lon="1.69003">
        <ele>385.8</ele>
        <time>2022-08-02T07:40:06Z</time>
      </trkpt>
      <trkpt lat="45.80708" lon="1.69008">
        <ele>385.8</ele>
        <time>2022-08-02T07:40:08Z</time>
      </trkpt>
      <trkpt lat="45.80708" lon="1.69014">
        <ele>386</ele>
        <time>2022-08-02T07:40:10Z</time>
      </trkpt>
      <trkpt lat="45.80708" lon="1.69019">
        <ele>386.2</ele>
        <time>2022-08-02T07:40:12Z</time>
      </trkpt>
      <trkpt lat="45.80708" lon="1.69024">
        <ele>386.4</ele>
        <time>2022-08-02T07:40:14Z</time>
      </trkpt>
      <trkpt lat="45.80708" lon="1.69028">
        <ele>386.5</ele>
        <time>2022-08-02T07:40:16Z</time>
      </trkpt>
      <trkpt lat="45.80708" lon="1.69033">
        <ele>386.7</ele>
        <time>2022-08-02T07:40:18Z</time>
      </trkpt>
      <trkpt lat="45.80709" lon="1.69038">
        <ele>386.7</ele>
        <time>2022-08-02T07:40:20Z</time>
      </trkpt>
      <trkpt lat="45.80709" lon="1.69042">
        <ele>386.8</ele>
        <time>2022-08-02T07:40:22Z</time>
      </trkpt>
      <trkpt lat="45.8071" lon="1.69047">
        <ele>386.9</ele>
        <time>2022-08-02T07:40:24Z</time>
      </trkpt>
      <trkpt lat="45.80711" lon="1.69052">
        <ele>386.9</ele>
        <time>2022-08-02T07:40:26Z</time>
      </trkpt>
      <trkpt lat="45.80711" lon="1.69056">
        <ele>387</ele>
        <time>2022-08-02T07:40:28Z</time>
      </trkpt>
      <trkpt lat="45.80712" lon="1.69061">
        <ele>387.1</ele>
        <time>2022-08-02T07:40:30Z</time>
      </trkpt>
      <trkpt lat="45.80711" lon="1.69066">
        <ele>387.4</ele>
        <time>2022-08-02T07:40:32Z</time>
      </trkpt>
      <trkpt lat="45.80712" lon="1.69071">
        <ele>387.4</ele>
        <time>2022-08-02T07:40:34Z</time>
      </trkpt>
      <trkpt lat="45.80712" lon="1.69075">
        <ele>387.5</ele>
        <time>2022-08-02T07:40:36Z</time>
      </trkpt>
      <trkpt lat="45.80712" lon="1.6908">
        <ele>387.7</ele>
        <time>2022-08-02T07:40:38Z</time>
      </trkpt>
      <trkpt lat="45.80712" lon="1.69085">
        <ele>387.9</ele>
        <time>2022-08-02T07:40:40Z</time>
      </trkpt>
      <trkpt lat="45.80712" lon="1.69089">
        <ele>388.2</ele>
        <time>2022-08-02T07:40:42Z</time>
      </trkpt>
      <trkpt lat="45.80713" lon="1.69094">
        <ele>388.4</ele>
        <time>2022-08-02T07:40:44Z</time>
      </trkpt>
      <trkpt lat="45.80713" lon="1.69097">
        <ele>388.7</ele>
        <time>2022-08-02T07:40:46Z</time>
      </trkpt>
      <trkpt lat="45.80713" lon="1.69102">
        <ele>389.2</ele>
        <time>2022-08-02T07:40:48Z</time>
      </trkpt>
      <trkpt lat="45.80713" lon="1.69109">
        <ele>389.7</ele>
        <time>2022-08-02T07:40:50Z</time>
      </trkpt>
      <trkpt lat="45.80713" lon="1.69114">
        <ele>390.1</ele>
        <time>2022-08-02T07:40:52Z</time>
      </trkpt>
      <trkpt lat="45.80713" lon="1.69119">
        <ele>390.6</ele>
        <time>2022-08-02T07:40:54Z</time>
      </trkpt>
      <trkpt lat="45.80713" lon="1.69124">
        <ele>391.1</ele>
        <time>2022-08-02T07:40:56Z</time>
      </trkpt>
      <trkpt lat="45.80712" lon="1.69129">
        <ele>391.7</ele>
        <time>2022-08-02T07:40:58Z</time>
      </trkpt>
      <trkpt lat="45.80711" lon="1.69133">
        <ele>392.3</ele>
        <time>2022-08-02T07:41:00Z</time>
      </trkpt>
      <trkpt lat="45.80709" lon="1.69138">
        <ele>393.1</ele>
        <time>2022-08-02T07:41:02Z</time>
      </trkpt>
      <trkpt lat="45.80708" lon="1.69142">
        <ele>393.9</ele>
        <time>2022-08-02T07:41:04Z</time>
      </trkpt>
      <trkpt lat="45.80706" lon="1.69146">
        <ele>394.8</ele>
        <time>2022-08-02T07:41:06Z</time>
      </trkpt>
      <trkpt lat="45.80705" lon="1.6915">
        <ele>395.4</ele>
        <time>2022-08-02T07:41:08Z</time>
      </trkpt>
      <trkpt lat="45.80703" lon="1.69154">
        <ele>396.2</ele>
        <time>2022-08-02T07:41:10Z</time>
      </trkpt>
      <trkpt lat="45.80702" lon="1.69158">
        <ele>396.9</ele>
        <time>2022-08-02T07:41:12Z</time>
      </trkpt>
      <trkpt lat="45.80701" lon="1.69162">
        <ele>397.5</ele>
        <time>2022-08-02T07:41:14Z</time>
      </trkpt>
      <trkpt lat="45.80699" lon="1.69166">
        <ele>398.5</ele>
        <time>2022-08-02T07:41:16Z</time>
      </trkpt>
      <trkpt lat="45.80698" lon="1.69171">
        <ele>398.8</ele>
        <time>2022-08-02T07:41:18Z</time>
      </trkpt>
      <trkpt lat="45.80696" lon="1.69175">
        <ele>399.1</ele>
        <time>2022-08-02T07:41:20Z</time>
      </trkpt>
      <trkpt lat="45.80696" lon="1.69179">
        <ele>399.3</ele>
        <time>2022-08-02T07:41:22Z</time>
      </trkpt>
      <trkpt lat="45.80694" lon="1.69185">
        <ele>399.6</ele>
        <time>2022-08-02T07:41:24Z</time>
      </trkpt>
      <trkpt lat="45.80692" lon="1.69189">
        <ele>400</ele>
        <time>2022-08-02T07:41:26Z</time>
      </trkpt>
      <trkpt lat="45.8069" lon="1.69193">
        <ele>400.4</ele>
        <time>2022-08-02T07:41:28Z</time>
      </trkpt>
      <trkpt lat="45.80689" lon="1.69198">
        <ele>400.8</ele>
        <time>2022-08-02T07:41:30Z</time>
      </trkpt>
      <trkpt lat="45.80686" lon="1.69202">
        <ele>401.2</ele>
        <time>2022-08-02T07:41:32Z</time>
      </trkpt>
      <trkpt lat="45.80685" lon="1.69206">
        <ele>401.5</ele>
        <time>2022-08-02T07:41:34Z</time>
      </trkpt>
      <trkpt lat="45.80683" lon="1.6921">
        <ele>401.8</ele>
        <time>2022-08-02T07:41:36Z</time>
      </trkpt>
      <trkpt lat="45.80682" lon="1.69215">
        <ele>402</ele>
        <time>2022-08-02T07:41:38Z</time>
      </trkpt>
      <trkpt lat="45.80681" lon="1.69219">
        <ele>402.2</ele>
        <time>2022-08-02T07:41:40Z</time>
      </trkpt>
      <trkpt lat="45.8068" lon="1.69223">
        <ele>402.3</ele>
        <time>2022-08-02T07:41:42Z</time>
      </trkpt>
      <trkpt lat="45.80678" lon="1.69227">
        <ele>402.5</ele>
        <time>2022-08-02T07:41:44Z</time>
      </trkpt>
      <trkpt lat="45.80677" lon="1.69231">
        <ele>402.7</ele>
        <time>2022-08-02T07:41:46Z</time>
      </trkpt>
      <trkpt lat="45.80675" lon="1.69235">
        <ele>402.9</ele>
        <time>2022-08-02T07:41:48Z</time>
      </trkpt>
      <trkpt lat="45.80674" lon="1.69239">
        <ele>403</ele>
        <time>2022-08-02T07:41:50Z</time>
      </trkpt>
      <trkpt lat="45.80672" lon="1.69243">
        <ele>403.2</ele>
        <time>2022-08-02T07:41:52Z</time>
      </trkpt>
      <trkpt lat="45.8067" lon="1.69247">
        <ele>403.5</ele>
        <time>2022-08-02T07:41:54Z</time>
      </trkpt>
      <trkpt lat="45.80669" lon="1.69251">
        <ele>403.5</ele>
        <time>2022-08-02T07:41:56Z</time>
      </trkpt>
      <trkpt lat="45.80667" lon="1.69254">
        <ele>403.6</ele>
        <time>2022-08-02T07:41:58Z</time>
      </trkpt>
      <trkpt lat="45.80665" lon="1.69258">
        <ele>404</ele>
        <time>2022-08-02T07:42:00Z</time>
      </trkpt>
      <trkpt lat="45.80663" lon="1.69263">
        <ele>404</ele>
        <time>2022-08-02T07:42:02Z</time>
      </trkpt>
      <trkpt lat="45.80661" lon="1.69266">
        <ele>404.4</ele>
        <time>2022-08-02T07:42:04Z</time>
      </trkpt>
      <trkpt lat="45.80661" lon="1.6927">
        <ele>404.2</ele>
        <time>2022-08-02T07:42:06Z</time>
      </trkpt>
      <trkpt lat="45.80659" lon="1.69275">
        <ele>404.4</ele>
        <time>2022-08-02T07:42:08Z</time>
      </trkpt>
      <trkpt lat="45.80657" lon="1.69279">
        <ele>404.8</ele>
        <time>2022-08-02T07:42:10Z</time>
      </trkpt>
      <trkpt lat="45.80655" lon="1.69283">
        <ele>404.8</ele>
        <time>2022-08-02T07:42:12Z</time>
      </trkpt>
      <trkpt lat="45.80654" lon="1.69288">
        <ele>404.8</ele>
        <time>2022-08-02T07:42:14Z</time>
      </trkpt>
      <trkpt lat="45.80652" lon="1.69292">
        <ele>404.9</ele>
        <time>2022-08-02T07:42:16Z</time>
      </trkpt>
      <trkpt lat="45.8065" lon="1.69296">
        <ele>405.1</ele>
        <time>2022-08-02T07:42:18Z</time>
      </trkpt>
      <trkpt lat="45.80649" lon="1.69301">
        <ele>404.9</ele>
        <time>2022-08-02T07:42:20Z</time>
      </trkpt>
      <trkpt lat="45.80647" lon="1.69305">
        <ele>405.2</ele>
        <time>2022-08-02T07:42:22Z</time>
      </trkpt>
      <trkpt lat="45.80645" lon="1.69309">
        <ele>405.3</ele>
        <time>2022-08-02T07:42:24Z</time>
      </trkpt>
      <trkpt lat="45.80643" lon="1.69313">
        <ele>405.5</ele>
        <time>2022-08-02T07:42:26Z</time>
      </trkpt>
      <trkpt lat="45.80641" lon="1.69316">
        <ele>405.6</ele>
        <time>2022-08-02T07:42:28Z</time>
      </trkpt>
      <trkpt lat="45.80638" lon="1.6932">
        <ele>405.9</ele>
        <time>2022-08-02T07:42:30Z</time>
      </trkpt>
      <trkpt lat="45.80636" lon="1.69324">
        <ele>406</ele>
        <time>2022-08-02T07:42:32Z</time>
      </trkpt>
      <trkpt lat="45.80633" lon="1.69327">
        <ele>406.3</ele>
        <time>2022-08-02T07:42:34Z</time>
      </trkpt>
      <trkpt lat="45.80631" lon="1.6933">
        <ele>406.5</ele>
        <time>2022-08-02T07:42:36Z</time>
      </trkpt>
      <trkpt lat="45.80628" lon="1.69334">
        <ele>406.8</ele>
        <time>2022-08-02T07:42:38Z</time>
      </trkpt>
      <trkpt lat="45.80626" lon="1.69337">
        <ele>407.3</ele>
        <time>2022-08-02T07:42:40Z</time>
      </trkpt>
      <trkpt lat="45.80623" lon="1.69341">
        <ele>407.8</ele>
        <time>2022-08-02T07:42:42Z</time>
      </trkpt>
      <trkpt lat="45.80621" lon="1.69344">
        <ele>408.2</ele>
        <time>2022-08-02T07:42:44Z</time>
      </trkpt>
      <trkpt lat="45.80618" lon="1.69348">
        <ele>408.6</ele>
        <time>2022-08-02T07:42:46Z</time>
      </trkpt>
      <trkpt lat="45.80615" lon="1.6935">
        <ele>409.1</ele>
        <time>2022-08-02T07:42:48Z</time>
      </trkpt>
      <trkpt lat="45.80612" lon="1.69354">
        <ele>409.6</ele>
        <time>2022-08-02T07:42:50Z</time>
      </trkpt>
      <trkpt lat="45.8061" lon="1.69356">
        <ele>410.1</ele>
        <time>2022-08-02T07:42:52Z</time>
      </trkpt>
      <trkpt lat="45.80607" lon="1.69358">
        <ele>410.6</ele>
        <time>2022-08-02T07:42:54Z</time>
      </trkpt>
      <trkpt lat="45.80604" lon="1.69361">
        <ele>411.1</ele>
        <time>2022-08-02T07:42:56Z</time>
      </trkpt>
      <trkpt lat="45.80602" lon="1.69363">
        <ele>411.5</ele>
        <time>2022-08-02T07:42:58Z</time>
      </trkpt>
      <trkpt lat="45.80599" lon="1.69366">
        <ele>411.9</ele>
        <time>2022-08-02T07:43:00Z</time>
      </trkpt>
      <trkpt lat="45.80596" lon="1.69369">
        <ele>412.4</ele>
        <time>2022-08-02T07:43:02Z</time>
      </trkpt>
      <trkpt lat="45.80593" lon="1.69372">
        <ele>412.8</ele>
        <time>2022-08-02T07:43:04Z</time>
      </trkpt>
      <trkpt lat="45.80591" lon="1.69375">
        <ele>413.1</ele>
        <time>2022-08-02T07:43:06Z</time>
      </trkpt>
      <trkpt lat="45.80588" lon="1.69378">
        <ele>413.5</ele>
        <time>2022-08-02T07:43:08Z</time>
      </trkpt>
      <trkpt lat="45.80585" lon="1.69381">
        <ele>413.8</ele>
        <time>2022-08-02T07:43:10Z</time>
      </trkpt>
      <trkpt lat="45.80583" lon="1.69384">
        <ele>414.1</ele>
        <time>2022-08-02T07:43:12Z</time>
      </trkpt>
      <trkpt lat="45.8058" lon="1.69386">
        <ele>414.6</ele>
        <time>2022-08-02T07:43:14Z</time>
      </trkpt>
      <trkpt lat="45.80577" lon="1.69389">
        <ele>415</ele>
        <time>2022-08-02T07:43:16Z</time>
      </trkpt>
      <trkpt lat="45.80574" lon="1.69392">
        <ele>415.6</ele>
        <time>2022-08-02T07:43:18Z</time>
      </trkpt>
      <trkpt lat="45.80571" lon="1.69395">
        <ele>416</ele>
        <time>2022-08-02T07:43:20Z</time>
      </trkpt>
      <trkpt lat="45.80569" lon="1.69398">
        <ele>416.5</ele>
        <time>2022-08-02T07:43:22Z</time>
      </trkpt>
      <trkpt lat="45.80566" lon="1.69402">
        <ele>416.8</ele>
        <time>2022-08-02T07:43:24Z</time>
      </trkpt>
      <trkpt lat="45.80564" lon="1.69405">
        <ele>417.2</ele>
        <time>2022-08-02T07:43:26Z</time>
      </trkpt>
      <trkpt lat="45.80562" lon="1.69409">
        <ele>417.4</ele>
        <time>2022-08-02T07:43:28Z</time>
      </trkpt>
      <trkpt lat="45.80561" lon="1.69414">
        <ele>417.6</ele>
        <time>2022-08-02T07:43:30Z</time>
      </trkpt>
      <trkpt lat="45.80559" lon="1.69417">
        <ele>417.9</ele>
        <time>2022-08-02T07:43:32Z</time>
      </trkpt>
      <trkpt lat="45.80558" lon="1.69421">
        <ele>418.3</ele>
        <time>2022-08-02T07:43:34Z</time>
      </trkpt>
      <trkpt lat="45.80557" lon="1.69426">
        <ele>418.6</ele>
        <time>2022-08-02T07:43:36Z</time>
      </trkpt>
      <trkpt lat="45.80556" lon="1.69431">
        <ele>418.9</ele>
        <time>2022-08-02T07:43:38Z</time>
      </trkpt>
      <trkpt lat="45.80555" lon="1.69435">
        <ele>419.3</ele>
        <time>2022-08-02T07:43:40Z</time>
      </trkpt>
      <trkpt lat="45.80554" lon="1.6944">
        <ele>419.7</ele>
        <time>2022-08-02T07:43:42Z</time>
      </trkpt>
      <trkpt lat="45.80553" lon="1.69445">
        <ele>419.9</ele>
        <time>2022-08-02T07:43:44Z</time>
      </trkpt>
      <trkpt lat="45.80552" lon="1.69449">
        <ele>420.2</ele>
        <time>2022-08-02T07:43:46Z</time>
      </trkpt>
      <trkpt lat="45.80552" lon="1.69454">
        <ele>420.4</ele>
        <time>2022-08-02T07:43:48Z</time>
      </trkpt>
      <trkpt lat="45.80551" lon="1.69459">
        <ele>420.5</ele>
        <time>2022-08-02T07:43:50Z</time>
      </trkpt>
      <trkpt lat="45.80551" lon="1.69464">
        <ele>420.6</ele>
        <time>2022-08-02T07:43:52Z</time>
      </trkpt>
      <trkpt lat="45.80551" lon="1.69469">
        <ele>420.8</ele>
        <time>2022-08-02T07:43:54Z</time>
      </trkpt>
      <trkpt lat="45.80551" lon="1.69474">
        <ele>420.9</ele>
        <time>2022-08-02T07:43:56Z</time>
      </trkpt>
      <trkpt lat="45.80551" lon="1.69478">
        <ele>420.9</ele>
        <time>2022-08-02T07:43:58Z</time>
      </trkpt>
      <trkpt lat="45.80552" lon="1.69483">
        <ele>420.9</ele>
        <time>2022-08-02T07:44:00Z</time>
      </trkpt>
      <trkpt lat="45.80553" lon="1.69487">
        <ele>420.8</ele>
        <time>2022-08-02T07:44:02Z</time>
      </trkpt>
      <trkpt lat="45.80554" lon="1.69491">
        <ele>420.7</ele>
        <time>2022-08-02T07:44:04Z</time>
      </trkpt>
      <trkpt lat="45.80555" lon="1.69496">
        <ele>420.7</ele>
        <time>2022-08-02T07:44:06Z</time>
      </trkpt>
      <trkpt lat="45.80557" lon="1.69499">
        <ele>420.4</ele>
        <time>2022-08-02T07:44:08Z</time>
      </trkpt>
      <trkpt lat="45.80558" lon="1.69502">
        <ele>420.4</ele>
        <time>2022-08-02T07:44:10Z</time>
      </trkpt>
      <trkpt lat="45.8056" lon="1.69504">
        <ele>420.4</ele>
        <time>2022-08-02T07:44:12Z</time>
      </trkpt>
      <trkpt lat="45.80562" lon="1.69506">
        <ele>420.4</ele>
        <time>2022-08-02T07:44:14Z</time>
      </trkpt>
      <trkpt lat="45.80565" lon="1.69508">
        <ele>420.2</ele>
        <time>2022-08-02T07:44:16Z</time>
      </trkpt>
      <trkpt lat="45.80567" lon="1.69509">
        <ele>420</ele>
        <time>2022-08-02T07:44:18Z</time>
      </trkpt>
      <trkpt lat="45.8057" lon="1.69511">
        <ele>419.9</ele>
        <time>2022-08-02T07:44:20Z</time>
      </trkpt>
      <trkpt lat="45.80572" lon="1.69513">
        <ele>419.8</ele>
        <time>2022-08-02T07:44:22Z</time>
      </trkpt>
      <trkpt lat="45.80576" lon="1.69516">
        <ele>419.8</ele>
        <time>2022-08-02T07:44:24Z</time>
      </trkpt>
      <trkpt lat="45.80579" lon="1.69518">
        <ele>419.7</ele>
        <time>2022-08-02T07:44:26Z</time>
      </trkpt>
      <trkpt lat="45.80581" lon="1.6952">
        <ele>419.6</ele>
        <time>2022-08-02T07:44:28Z</time>
      </trkpt>
      <trkpt lat="45.80585" lon="1.69522">
        <ele>419.5</ele>
        <time>2022-08-02T07:44:30Z</time>
      </trkpt>
      <trkpt lat="45.80588" lon="1.69524">
        <ele>419.6</ele>
        <time>2022-08-02T07:44:32Z</time>
      </trkpt>
      <trkpt lat="45.8059" lon="1.69527">
        <ele>419.8</ele>
        <time>2022-08-02T07:44:34Z</time>
      </trkpt>
      <trkpt lat="45.80594" lon="1.69529">
        <ele>419.9</ele>
        <time>2022-08-02T07:44:36Z</time>
      </trkpt>
      <trkpt lat="45.80596" lon="1.69531">
        <ele>420</ele>
        <time>2022-08-02T07:44:38Z</time>
      </trkpt>
      <trkpt lat="45.80599" lon="1.69534">
        <ele>420.2</ele>
        <time>2022-08-02T07:44:40Z</time>
      </trkpt>
      <trkpt lat="45.80602" lon="1.69537">
        <ele>420.2</ele>
        <time>2022-08-02T07:44:42Z</time>
      </trkpt>
      <trkpt lat="45.80606" lon="1.6954">
        <ele>420.3</ele>
        <time>2022-08-02T07:44:44Z</time>
      </trkpt>
      <trkpt lat="45.80609" lon="1.69542">
        <ele>420.2</ele>
        <time>2022-08-02T07:44:46Z</time>
      </trkpt>
      <trkpt lat="45.80612" lon="1.69545">
        <ele>420.4</ele>
        <time>2022-08-02T07:44:48Z</time>
      </trkpt>
      <trkpt lat="45.80615" lon="1.69548">
        <ele>420.5</ele>
        <time>2022-08-02T07:44:50Z</time>
      </trkpt>
      <trkpt lat="45.80619" lon="1.69551">
        <ele>420.5</ele>
        <time>2022-08-02T07:44:52Z</time>
      </trkpt>
      <trkpt lat="45.80622" lon="1.69553">
        <ele>420.5</ele>
        <time>2022-08-02T07:44:54Z</time>
      </trkpt>
      <trkpt lat="45.80625" lon="1.69557">
        <ele>420.6</ele>
        <time>2022-08-02T07:44:56Z</time>
      </trkpt>
      <trkpt lat="45.80628" lon="1.6956">
        <ele>420.7</ele>
        <time>2022-08-02T07:44:58Z</time>
      </trkpt>
      <trkpt lat="45.80631" lon="1.69563">
        <ele>420.9</ele>
        <time>2022-08-02T07:45:00Z</time>
      </trkpt>
      <trkpt lat="45.80633" lon="1.69568">
        <ele>421.3</ele>
        <time>2022-08-02T07:45:02Z</time>
      </trkpt>
      <trkpt lat="45.80635" lon="1.69572">
        <ele>421.7</ele>
        <time>2022-08-02T07:45:04Z</time>
      </trkpt>
      <trkpt lat="45.80637" lon="1.69577">
        <ele>422.1</ele>
        <time>2022-08-02T07:45:06Z</time>
      </trkpt>
      <trkpt lat="45.80638" lon="1.6958">
        <ele>422.3</ele>
        <time>2022-08-02T07:45:08Z</time>
      </trkpt>
      <trkpt lat="45.8064" lon="1.69585">
        <ele>422.9</ele>
        <time>2022-08-02T07:45:10Z</time>
      </trkpt>
      <trkpt lat="45.80642" lon="1.6959">
        <ele>423.5</ele>
        <time>2022-08-02T07:45:12Z</time>
      </trkpt>
      <trkpt lat="45.80643" lon="1.69594">
        <ele>424.1</ele>
        <time>2022-08-02T07:45:14Z</time>
      </trkpt>
      <trkpt lat="45.80644" lon="1.69599">
        <ele>424.7</ele>
        <time>2022-08-02T07:45:16Z</time>
      </trkpt>
      <trkpt lat="45.80646" lon="1.69603">
        <ele>425.2</ele>
        <time>2022-08-02T07:45:18Z</time>
      </trkpt>
      <trkpt lat="45.80647" lon="1.69607">
        <ele>425.8</ele>
        <time>2022-08-02T07:45:20Z</time>
      </trkpt>
      <trkpt lat="45.80648" lon="1.69612">
        <ele>426.5</ele>
        <time>2022-08-02T07:45:22Z</time>
      </trkpt>
      <trkpt lat="45.8065" lon="1.69616">
        <ele>427</ele>
        <time>2022-08-02T07:45:24Z</time>
      </trkpt>
      <trkpt lat="45.80651" lon="1.69619">
        <ele>427.3</ele>
        <time>2022-08-02T07:45:26Z</time>
      </trkpt>
      <trkpt lat="45.80653" lon="1.69624">
        <ele>427.9</ele>
        <time>2022-08-02T07:45:28Z</time>
      </trkpt>
      <trkpt lat="45.80654" lon="1.69628">
        <ele>428.4</ele>
        <time>2022-08-02T07:45:30Z</time>
      </trkpt>
      <trkpt lat="45.80655" lon="1.69632">
        <ele>428.9</ele>
        <time>2022-08-02T07:45:32Z</time>
      </trkpt>
      <trkpt lat="45.80657" lon="1.69636">
        <ele>429.3</ele>
        <time>2022-08-02T07:45:34Z</time>
      </trkpt>
      <trkpt lat="45.80658" lon="1.69639">
        <ele>429.7</ele>
        <time>2022-08-02T07:45:36Z</time>
      </trkpt>
      <trkpt lat="45.8066" lon="1.69643">
        <ele>430.1</ele>
        <time>2022-08-02T07:45:38Z</time>
      </trkpt>
      <trkpt lat="45.80661" lon="1.69647">
        <ele>430.7</ele>
        <time>2022-08-02T07:45:40Z</time>
      </trkpt>
      <trkpt lat="45.80662" lon="1.69651">
        <ele>431.2</ele>
        <time>2022-08-02T07:45:42Z</time>
      </trkpt>
      <trkpt lat="45.80663" lon="1.69655">
        <ele>431.7</ele>
        <time>2022-08-02T07:45:44Z</time>
      </trkpt>
      <trkpt lat="45.80664" lon="1.69659">
        <ele>432.1</ele>
        <time>2022-08-02T07:45:46Z</time>
      </trkpt>
      <trkpt lat="45.80665" lon="1.69664">
        <ele>432.9</ele>
        <time>2022-08-02T07:45:48Z</time>
      </trkpt>
      <trkpt lat="45.80668" lon="1.69669">
        <ele>433.3</ele>
        <time>2022-08-02T07:45:50Z</time>
      </trkpt>
      <trkpt lat="45.80671" lon="1.69675">
        <ele>434.1</ele>
        <time>2022-08-02T07:45:52Z</time>
      </trkpt>
      <trkpt lat="45.80676" lon="1.69681">
        <ele>434.8</ele>
        <time>2022-08-02T07:45:54Z</time>
      </trkpt>
      <trkpt lat="45.80682" lon="1.69687">
        <ele>435.6</ele>
        <time>2022-08-02T07:45:56Z</time>
      </trkpt>
      <trkpt lat="45.8069" lon="1.69692">
        <ele>436</ele>
        <time>2022-08-02T07:45:58Z</time>
      </trkpt>
      <trkpt lat="45.807" lon="1.69692">
        <ele>435.6</ele>
        <time>2022-08-02T07:46:00Z</time>
      </trkpt>
      <trkpt lat="45.8071" lon="1.6969">
        <ele>434.9</ele>
        <time>2022-08-02T07:46:02Z</time>
      </trkpt>
      <trkpt lat="45.80719" lon="1.69686">
        <ele>433.8</ele>
        <time>2022-08-02T07:46:04Z</time>
      </trkpt>
      <trkpt lat="45.80727" lon="1.69683">
        <ele>432.9</ele>
        <time>2022-08-02T07:46:06Z</time>
      </trkpt>
      <trkpt lat="45.80735" lon="1.69679">
        <ele>431.9</ele>
        <time>2022-08-02T07:46:08Z</time>
      </trkpt>
      <trkpt lat="45.80743" lon="1.69676">
        <ele>431</ele>
        <time>2022-08-02T07:46:10Z</time>
      </trkpt>
      <trkpt lat="45.8075" lon="1.69673">
        <ele>430.1</ele>
        <time>2022-08-02T07:46:12Z</time>
      </trkpt>
      <trkpt lat="45.80758" lon="1.69669">
        <ele>430.1</ele>
        <time>2022-08-02T07:46:14Z</time>
      </trkpt>
      <trkpt lat="45.80765" lon="1.69667">
        <ele>430.2</ele>
        <time>2022-08-02T07:46:16Z</time>
      </trkpt>
      <trkpt lat="45.80771" lon="1.69664">
        <ele>430.4</ele>
        <time>2022-08-02T07:46:18Z</time>
      </trkpt>
      <trkpt lat="45.80776" lon="1.69661">
        <ele>430.4</ele>
        <time>2022-08-02T07:46:20Z</time>
      </trkpt>
      <trkpt lat="45.80778" lon="1.69663">
        <ele>430.7</ele>
        <time>2022-08-02T07:46:22Z</time>
      </trkpt>
      <trkpt lat="45.80782" lon="1.69666">
        <ele>431.6</ele>
        <time>2022-08-02T07:46:24Z</time>
      </trkpt>
      <trkpt lat="45.80782" lon="1.69666">
        <ele>431.5</ele>
        <time>2022-08-02T07:46:26Z</time>
      </trkpt>
      <trkpt lat="45.80795" lon="1.69656">
        <ele>431.2</ele>
        <time>2022-08-02T07:46:28Z</time>
      </trkpt>
      <trkpt lat="45.80802" lon="1.69646">
        <ele>430.4</ele>
        <time>2022-08-02T07:46:30Z</time>
      </trkpt>
      <trkpt lat="45.8081" lon="1.69637">
        <ele>429.7</ele>
        <time>2022-08-02T07:46:32Z</time>
      </trkpt>
      <trkpt lat="45.80818" lon="1.6963">
        <ele>429.3</ele>
        <time>2022-08-02T07:46:34Z</time>
      </trkpt>
      <trkpt lat="45.80826" lon="1.69628">
        <ele>429.7</ele>
        <time>2022-08-02T07:46:36Z</time>
      </trkpt>
      <trkpt lat="45.80833" lon="1.69626">
        <ele>430.1</ele>
        <time>2022-08-02T07:46:38Z</time>
      </trkpt>
      <trkpt lat="45.80839" lon="1.69624">
        <ele>430.2</ele>
        <time>2022-08-02T07:46:40Z</time>
      </trkpt>
      <trkpt lat="45.80844" lon="1.6962">
        <ele>430</ele>
        <time>2022-08-02T07:46:42Z</time>
      </trkpt>
      <trkpt lat="45.80847" lon="1.69617">
        <ele>429.8</ele>
        <time>2022-08-02T07:46:44Z</time>
      </trkpt>
      <trkpt lat="45.80851" lon="1.69613">
        <ele>429.4</ele>
        <time>2022-08-02T07:46:46Z</time>
      </trkpt>
      <trkpt lat="45.80854" lon="1.69608">
        <ele>429</ele>
        <time>2022-08-02T07:46:48Z</time>
      </trkpt>
      <trkpt lat="45.80859" lon="1.69604">
        <ele>428.7</ele>
        <time>2022-08-02T07:46:50Z</time>
      </trkpt>
      <trkpt lat="45.80864" lon="1.696">
        <ele>428.3</ele>
        <time>2022-08-02T07:46:52Z</time>
      </trkpt>
      <trkpt lat="45.80869" lon="1.69596">
        <ele>428.2</ele>
        <time>2022-08-02T07:46:54Z</time>
      </trkpt>
      <trkpt lat="45.80875" lon="1.69594">
        <ele>428.1</ele>
        <time>2022-08-02T07:46:56Z</time>
      </trkpt>
      <trkpt lat="45.80881" lon="1.69593">
        <ele>428.3</ele>
        <time>2022-08-02T07:46:58Z</time>
      </trkpt>
      <trkpt lat="45.80886" lon="1.6959">
        <ele>428.2</ele>
        <time>2022-08-02T07:47:00Z</time>
      </trkpt>
      <trkpt lat="45.80892" lon="1.69591">
        <ele>428.7</ele>
        <time>2022-08-02T07:47:02Z</time>
      </trkpt>
      <trkpt lat="45.80897" lon="1.69592">
        <ele>429.2</ele>
        <time>2022-08-02T07:47:04Z</time>
      </trkpt>
      <trkpt lat="45.80901" lon="1.69595">
        <ele>430</ele>
        <time>2022-08-02T07:47:06Z</time>
      </trkpt>
      <trkpt lat="45.80906" lon="1.69598">
        <ele>430.7</ele>
        <time>2022-08-02T07:47:08Z</time>
      </trkpt>
      <trkpt lat="45.8091" lon="1.696">
        <ele>431.3</ele>
        <time>2022-08-02T07:47:10Z</time>
      </trkpt>
      <trkpt lat="45.80914" lon="1.69602">
        <ele>431.9</ele>
        <time>2022-08-02T07:47:12Z</time>
      </trkpt>
      <trkpt lat="45.80918" lon="1.69604">
        <ele>432.4</ele>
        <time>2022-08-02T07:47:14Z</time>
      </trkpt>
      <trkpt lat="45.80922" lon="1.69605">
        <ele>432.4</ele>
        <time>2022-08-02T07:47:16Z</time>
      </trkpt>
      <trkpt lat="45.80926" lon="1.69608">
        <ele>432.7</ele>
        <time>2022-08-02T07:47:18Z</time>
      </trkpt>
      <trkpt lat="45.80931" lon="1.69611">
        <ele>432.9</ele>
        <time>2022-08-02T07:47:20Z</time>
      </trkpt>
      <trkpt lat="45.80935" lon="1.69612">
        <ele>433</ele>
        <time>2022-08-02T07:47:22Z</time>
      </trkpt>
      <trkpt lat="45.80939" lon="1.69614">
        <ele>433.1</ele>
        <time>2022-08-02T07:47:24Z</time>
      </trkpt>
      <trkpt lat="45.80944" lon="1.69615">
        <ele>433.1</ele>
        <time>2022-08-02T07:47:26Z</time>
      </trkpt>
      <trkpt lat="45.80949" lon="1.69617">
        <ele>433.1</ele>
        <time>2022-08-02T07:47:28Z</time>
      </trkpt>
      <trkpt lat="45.80951" lon="1.69618">
        <ele>433.4</ele>
        <time>2022-08-02T07:47:30Z</time>
      </trkpt>
      <trkpt lat="45.80954" lon="1.69619">
        <ele>433.3</ele>
        <time>2022-08-02T07:47:32Z</time>
      </trkpt>
      <trkpt lat="45.80954" lon="1.69616">
        <ele>432.8</ele>
        <time>2022-08-02T07:47:34Z</time>
      </trkpt>
      <trkpt lat="45.80956" lon="1.69616">
        <ele>432.7</ele>
        <time>2022-08-02T07:47:36Z</time>
      </trkpt>
      <trkpt lat="45.80957" lon="1.69617">
        <ele>432.9</ele>
        <time>2022-08-02T07:47:38Z</time>
      </trkpt>
      <trkpt lat="45.80958" lon="1.69618">
        <ele>432.9</ele>
        <time>2022-08-02T07:47:40Z</time>
      </trkpt>
      <trkpt lat="45.80969" lon="1.69616">
        <ele>432.2</ele>
        <time>2022-08-02T07:48:34Z</time>
      </trkpt>
      <trkpt lat="45.80974" lon="1.69619">
        <ele>432.4</ele>
        <time>2022-08-02T07:48:36Z</time>
      </trkpt>
      <trkpt lat="45.80978" lon="1.69621">
        <ele>432.7</ele>
        <time>2022-08-02T07:48:38Z</time>
      </trkpt>
      <trkpt lat="45.80982" lon="1.69623">
        <ele>432.9</ele>
        <time>2022-08-02T07:48:40Z</time>
      </trkpt>
      <trkpt lat="45.80987" lon="1.69624">
        <ele>432.8</ele>
        <time>2022-08-02T07:48:42Z</time>
      </trkpt>
      <trkpt lat="45.80992" lon="1.69628">
        <ele>433.4</ele>
        <time>2022-08-02T07:48:44Z</time>
      </trkpt>
      <trkpt lat="45.80998" lon="1.69628">
        <ele>433.2</ele>
        <time>2022-08-02T07:48:46Z</time>
      </trkpt>
      <trkpt lat="45.81004" lon="1.6963">
        <ele>432.9</ele>
        <time>2022-08-02T07:48:48Z</time>
      </trkpt>
      <trkpt lat="45.81011" lon="1.69632">
        <ele>432.1</ele>
        <time>2022-08-02T07:48:50Z</time>
      </trkpt>
      <trkpt lat="45.81018" lon="1.69635">
        <ele>431.4</ele>
        <time>2022-08-02T07:48:52Z</time>
      </trkpt>
      <trkpt lat="45.81026" lon="1.69638">
        <ele>430.6</ele>
        <time>2022-08-02T07:48:54Z</time>
      </trkpt>
      <trkpt lat="45.81035" lon="1.69641">
        <ele>429.9</ele>
        <time>2022-08-02T07:48:56Z</time>
      </trkpt>
      <trkpt lat="45.81043" lon="1.69647">
        <ele>429.5</ele>
        <time>2022-08-02T07:48:58Z</time>
      </trkpt>
      <trkpt lat="45.81051" lon="1.69655">
        <ele>429.6</ele>
        <time>2022-08-02T07:49:00Z</time>
      </trkpt>
      <trkpt lat="45.81058" lon="1.69663">
        <ele>429.9</ele>
        <time>2022-08-02T07:49:02Z</time>
      </trkpt>
      <trkpt lat="45.81064" lon="1.69672">
        <ele>430.2</ele>
        <time>2022-08-02T07:49:04Z</time>
      </trkpt>
      <trkpt lat="45.81069" lon="1.69682">
        <ele>430.7</ele>
        <time>2022-08-02T07:49:06Z</time>
      </trkpt>
      <trkpt lat="45.81072" lon="1.69692">
        <ele>431.3</ele>
        <time>2022-08-02T07:49:08Z</time>
      </trkpt>
      <trkpt lat="45.81076" lon="1.69702">
        <ele>432</ele>
        <time>2022-08-02T07:49:10Z</time>
      </trkpt>
      <trkpt lat="45.81079" lon="1.69712">
        <ele>432.7</ele>
        <time>2022-08-02T07:49:12Z</time>
      </trkpt>
      <trkpt lat="45.81083" lon="1.69721">
        <ele>433.2</ele>
        <time>2022-08-02T07:49:14Z</time>
      </trkpt>
      <trkpt lat="45.81087" lon="1.69731">
        <ele>433.6</ele>
        <time>2022-08-02T07:49:16Z</time>
      </trkpt>
      <trkpt lat="45.8109" lon="1.69739">
        <ele>433.9</ele>
        <time>2022-08-02T07:49:18Z</time>
      </trkpt>
      <trkpt lat="45.81091" lon="1.69749">
        <ele>434.8</ele>
        <time>2022-08-02T07:49:20Z</time>
      </trkpt>
      <trkpt lat="45.81092" lon="1.69758">
        <ele>435.3</ele>
        <time>2022-08-02T07:49:22Z</time>
      </trkpt>
      <trkpt lat="45.81092" lon="1.69769">
        <ele>436</ele>
        <time>2022-08-02T07:49:24Z</time>
      </trkpt>
      <trkpt lat="45.81091" lon="1.69778">
        <ele>437</ele>
        <time>2022-08-02T07:49:26Z</time>
      </trkpt>
      <trkpt lat="45.81088" lon="1.69788">
        <ele>438.2</ele>
        <time>2022-08-02T07:49:28Z</time>
      </trkpt>
      <trkpt lat="45.81085" lon="1.698">
        <ele>439.6</ele>
        <time>2022-08-02T07:49:30Z</time>
      </trkpt>
      <trkpt lat="45.81081" lon="1.69813">
        <ele>441.2</ele>
        <time>2022-08-02T07:49:32Z</time>
      </trkpt>
      <trkpt lat="45.81079" lon="1.69827">
        <ele>442.5</ele>
        <time>2022-08-02T07:49:34Z</time>
      </trkpt>
      <trkpt lat="45.81083" lon="1.69843">
        <ele>443</ele>
        <time>2022-08-02T07:49:36Z</time>
      </trkpt>
      <trkpt lat="45.81092" lon="1.6985">
        <ele>442.1</ele>
        <time>2022-08-02T07:49:38Z</time>
      </trkpt>
      <trkpt lat="45.81106" lon="1.69845">
        <ele>439.1</ele>
        <time>2022-08-02T07:49:40Z</time>
      </trkpt>
      <trkpt lat="45.8112" lon="1.6984">
        <ele>436.2</ele>
        <time>2022-08-02T07:49:42Z</time>
      </trkpt>
      <trkpt lat="45.81135" lon="1.69835">
        <ele>432.9</ele>
        <time>2022-08-02T07:49:44Z</time>
      </trkpt>
      <trkpt lat="45.8115" lon="1.6983">
        <ele>429.6</ele>
        <time>2022-08-02T07:49:46Z</time>
      </trkpt>
      <trkpt lat="45.81165" lon="1.69828">
        <ele>426.5</ele>
        <time>2022-08-02T07:49:48Z</time>
      </trkpt>
      <trkpt lat="45.81177" lon="1.69832">
        <ele>423.5</ele>
        <time>2022-08-02T07:49:50Z</time>
      </trkpt>
      <trkpt lat="45.81189" lon="1.69844">
        <ele>421</ele>
        <time>2022-08-02T07:49:52Z</time>
      </trkpt>
      <trkpt lat="45.81195" lon="1.69863">
        <ele>420.5</ele>
        <time>2022-08-02T07:49:54Z</time>
      </trkpt>
      <trkpt lat="45.81199" lon="1.69884">
        <ele>420.9</ele>
        <time>2022-08-02T07:49:56Z</time>
      </trkpt>
      <trkpt lat="45.812" lon="1.69906">
        <ele>422.1</ele>
        <time>2022-08-02T07:49:58Z</time>
      </trkpt>
      <trkpt lat="45.81198" lon="1.6993">
        <ele>423.8</ele>
        <time>2022-08-02T07:50:00Z</time>
      </trkpt>
      <trkpt lat="45.81197" lon="1.69953">
        <ele>425.2</ele>
        <time>2022-08-02T07:50:02Z</time>
      </trkpt>
      <trkpt lat="45.81194" lon="1.69978">
        <ele>426.8</ele>
        <time>2022-08-02T07:50:04Z</time>
      </trkpt>
      <trkpt lat="45.81194" lon="1.70003">
        <ele>427.5</ele>
        <time>2022-08-02T07:50:06Z</time>
      </trkpt>
      <trkpt lat="45.81197" lon="1.70027">
        <ele>427.1</ele>
        <time>2022-08-02T07:50:08Z</time>
      </trkpt>
      <trkpt lat="45.81206" lon="1.70049">
        <ele>424.6</ele>
        <time>2022-08-02T07:50:10Z</time>
      </trkpt>
      <trkpt lat="45.81214" lon="1.7007">
        <ele>421.9</ele>
        <time>2022-08-02T07:50:12Z</time>
      </trkpt>
      <trkpt lat="45.8122" lon="1.70091">
        <ele>420.3</ele>
        <time>2022-08-02T07:50:14Z</time>
      </trkpt>
      <trkpt lat="45.81224" lon="1.70113">
        <ele>419.7</ele>
        <time>2022-08-02T07:50:16Z</time>
      </trkpt>
      <trkpt lat="45.81227" lon="1.70133">
        <ele>419.7</ele>
        <time>2022-08-02T07:50:18Z</time>
      </trkpt>
      <trkpt lat="45.81227" lon="1.70153">
        <ele>420.7</ele>
        <time>2022-08-02T07:50:20Z</time>
      </trkpt>
      <trkpt lat="45.81225" lon="1.70172">
        <ele>422.4</ele>
        <time>2022-08-02T07:50:22Z</time>
      </trkpt>
      <trkpt lat="45.8122" lon="1.70192">
        <ele>425.2</ele>
        <time>2022-08-02T07:50:24Z</time>
      </trkpt>
      <trkpt lat="45.8122" lon="1.70211">
        <ele>426.7</ele>
        <time>2022-08-02T07:50:26Z</time>
      </trkpt>
      <trkpt lat="45.81229" lon="1.70224">
        <ele>424.7</ele>
        <time>2022-08-02T07:50:28Z</time>
      </trkpt>
      <trkpt lat="45.81242" lon="1.70223">
        <ele>420.5</ele>
        <time>2022-08-02T07:50:30Z</time>
      </trkpt>
      <trkpt lat="45.81255" lon="1.70223">
        <ele>417.2</ele>
        <time>2022-08-02T07:50:32Z</time>
      </trkpt>
      <trkpt lat="45.81265" lon="1.7023">
        <ele>415.7</ele>
        <time>2022-08-02T07:50:34Z</time>
      </trkpt>
      <trkpt lat="45.81272" lon="1.70234">
        <ele>414.8</ele>
        <time>2022-08-02T07:50:36Z</time>
      </trkpt>
      <trkpt lat="45.81275" lon="1.70237">
        <ele>414.5</ele>
        <time>2022-08-02T07:50:38Z</time>
      </trkpt>
      <trkpt lat="45.81275" lon="1.70237">
        <ele>414.6</ele>
        <time>2022-08-02T07:50:40Z</time>
      </trkpt>
      <trkpt lat="45.81274" lon="1.70237">
        <ele>414.6</ele>
        <time>2022-08-02T07:50:42Z</time>
      </trkpt>
      <trkpt lat="45.81274" lon="1.70237">
        <ele>414.5</ele>
        <time>2022-08-02T07:50:44Z</time>
      </trkpt>
      <trkpt lat="45.81274" lon="1.70237">
        <ele>414.6</ele>
        <time>2022-08-02T07:50:46Z</time>
      </trkpt>
      <trkpt lat="45.81275" lon="1.70236">
        <ele>414.5</ele>
        <time>2022-08-02T07:50:48Z</time>
      </trkpt>
      <trkpt lat="45.81293" lon="1.70254">
        <ele>412.7</ele>
        <time>2022-08-02T07:51:40Z</time>
      </trkpt>
      <trkpt lat="45.81297" lon="1.70263">
        <ele>413.2</ele>
        <time>2022-08-02T07:51:42Z</time>
      </trkpt>
      <trkpt lat="45.81299" lon="1.70273">
        <ele>413.9</ele>
        <time>2022-08-02T07:51:44Z</time>
      </trkpt>
      <trkpt lat="45.81302" lon="1.70282">
        <ele>414.4</ele>
        <time>2022-08-02T07:51:46Z</time>
      </trkpt>
      <trkpt lat="45.81304" lon="1.7029">
        <ele>414.8</ele>
        <time>2022-08-02T07:51:48Z</time>
      </trkpt>
      <trkpt lat="45.81307" lon="1.70298">
        <ele>415.1</ele>
        <time>2022-08-02T07:51:50Z</time>
      </trkpt>
      <trkpt lat="45.81309" lon="1.70306">
        <ele>415.5</ele>
        <time>2022-08-02T07:51:52Z</time>
      </trkpt>
      <trkpt lat="45.8131" lon="1.70312">
        <ele>415.8</ele>
        <time>2022-08-02T07:51:54Z</time>
      </trkpt>
      <trkpt lat="45.81312" lon="1.70318">
        <ele>416</ele>
        <time>2022-08-02T07:51:56Z</time>
      </trkpt>
      <trkpt lat="45.81314" lon="1.70324">
        <ele>416.2</ele>
        <time>2022-08-02T07:51:58Z</time>
      </trkpt>
      <trkpt lat="45.81315" lon="1.70329">
        <ele>416.3</ele>
        <time>2022-08-02T07:52:00Z</time>
      </trkpt>
      <trkpt lat="45.81317" lon="1.70335">
        <ele>416.5</ele>
        <time>2022-08-02T07:52:02Z</time>
      </trkpt>
      <trkpt lat="45.81319" lon="1.70341">
        <ele>416.6</ele>
        <time>2022-08-02T07:52:04Z</time>
      </trkpt>
      <trkpt lat="45.8132" lon="1.70347">
        <ele>416.8</ele>
        <time>2022-08-02T07:52:06Z</time>
      </trkpt>
      <trkpt lat="45.81322" lon="1.70353">
        <ele>416.8</ele>
        <time>2022-08-02T07:52:08Z</time>
      </trkpt>
      <trkpt lat="45.81324" lon="1.70359">
        <ele>417</ele>
        <time>2022-08-02T07:52:10Z</time>
      </trkpt>
      <trkpt lat="45.81325" lon="1.70365">
        <ele>417.1</ele>
        <time>2022-08-02T07:52:12Z</time>
      </trkpt>
      <trkpt lat="45.81326" lon="1.7037">
        <ele>417.4</ele>
        <time>2022-08-02T07:52:14Z</time>
      </trkpt>
      <trkpt lat="45.81328" lon="1.70375">
        <ele>417.4</ele>
        <time>2022-08-02T07:52:16Z</time>
      </trkpt>
      <trkpt lat="45.8133" lon="1.70381">
        <ele>417.5</ele>
        <time>2022-08-02T07:52:18Z</time>
      </trkpt>
      <trkpt lat="45.81331" lon="1.70387">
        <ele>417.6</ele>
        <time>2022-08-02T07:52:20Z</time>
      </trkpt>
      <trkpt lat="45.81333" lon="1.70392">
        <ele>417.7</ele>
        <time>2022-08-02T07:52:22Z</time>
      </trkpt>
      <trkpt lat="45.81335" lon="1.70397">
        <ele>417.8</ele>
        <time>2022-08-02T07:52:24Z</time>
      </trkpt>
      <trkpt lat="45.81336" lon="1.70402">
        <ele>418</ele>
        <time>2022-08-02T07:52:26Z</time>
      </trkpt>
      <trkpt lat="45.81337" lon="1.70408">
        <ele>418.1</ele>
        <time>2022-08-02T07:52:28Z</time>
      </trkpt>
      <trkpt lat="45.81339" lon="1.70413">
        <ele>418.2</ele>
        <time>2022-08-02T07:52:30Z</time>
      </trkpt>
      <trkpt lat="45.81341" lon="1.70418">
        <ele>418.2</ele>
        <time>2022-08-02T07:52:32Z</time>
      </trkpt>
      <trkpt lat="45.81342" lon="1.70423">
        <ele>418</ele>
        <time>2022-08-02T07:52:34Z</time>
      </trkpt>
      <trkpt lat="45.81343" lon="1.70428">
        <ele>418</ele>
        <time>2022-08-02T07:52:36Z</time>
      </trkpt>
      <trkpt lat="45.81345" lon="1.70433">
        <ele>417.8</ele>
        <time>2022-08-02T07:52:38Z</time>
      </trkpt>
      <trkpt lat="45.81346" lon="1.70438">
        <ele>417.6</ele>
        <time>2022-08-02T07:52:40Z</time>
      </trkpt>
      <trkpt lat="45.81347" lon="1.70443">
        <ele>417.5</ele>
        <time>2022-08-02T07:52:42Z</time>
      </trkpt>
      <trkpt lat="45.81348" lon="1.70448">
        <ele>417.4</ele>
        <time>2022-08-02T07:52:44Z</time>
      </trkpt>
      <trkpt lat="45.81349" lon="1.70454">
        <ele>417.5</ele>
        <time>2022-08-02T07:52:46Z</time>
      </trkpt>
      <trkpt lat="45.8135" lon="1.70459">
        <ele>417.5</ele>
        <time>2022-08-02T07:52:48Z</time>
      </trkpt>
      <trkpt lat="45.8135" lon="1.70465">
        <ele>417.7</ele>
        <time>2022-08-02T07:52:50Z</time>
      </trkpt>
      <trkpt lat="45.81349" lon="1.70471">
        <ele>418.1</ele>
        <time>2022-08-02T07:52:52Z</time>
      </trkpt>
      <trkpt lat="45.81348" lon="1.70476">
        <ele>418.7</ele>
        <time>2022-08-02T07:52:54Z</time>
      </trkpt>
      <trkpt lat="45.81347" lon="1.70481">
        <ele>419.2</ele>
        <time>2022-08-02T07:52:56Z</time>
      </trkpt>
      <trkpt lat="45.81345" lon="1.70486">
        <ele>420</ele>
        <time>2022-08-02T07:52:58Z</time>
      </trkpt>
      <trkpt lat="45.81343" lon="1.70491">
        <ele>420.8</ele>
        <time>2022-08-02T07:53:00Z</time>
      </trkpt>
      <trkpt lat="45.81341" lon="1.70496">
        <ele>421.5</ele>
        <time>2022-08-02T07:53:02Z</time>
      </trkpt>
      <trkpt lat="45.81339" lon="1.705">
        <ele>422.2</ele>
        <time>2022-08-02T07:53:04Z</time>
      </trkpt>
      <trkpt lat="45.81337" lon="1.70505">
        <ele>422.1</ele>
        <time>2022-08-02T07:53:06Z</time>
      </trkpt>
      <trkpt lat="45.81334" lon="1.70508">
        <ele>422.3</ele>
        <time>2022-08-02T07:53:08Z</time>
      </trkpt>
      <trkpt lat="45.81331" lon="1.70511">
        <ele>422.5</ele>
        <time>2022-08-02T07:53:10Z</time>
      </trkpt>
      <trkpt lat="45.81327" lon="1.70514">
        <ele>422.8</ele>
        <time>2022-08-02T07:53:12Z</time>
      </trkpt>
      <trkpt lat="45.81323" lon="1.70516">
        <ele>423.1</ele>
        <time>2022-08-02T07:53:14Z</time>
      </trkpt>
      <trkpt lat="45.8132" lon="1.70519">
        <ele>423.2</ele>
        <time>2022-08-02T07:53:16Z</time>
      </trkpt>
      <trkpt lat="45.81316" lon="1.70521">
        <ele>423.7</ele>
        <time>2022-08-02T07:53:18Z</time>
      </trkpt>
      <trkpt lat="45.81312" lon="1.70523">
        <ele>424.3</ele>
        <time>2022-08-02T07:53:20Z</time>
      </trkpt>
      <trkpt lat="45.81309" lon="1.70524">
        <ele>424.8</ele>
        <time>2022-08-02T07:53:22Z</time>
      </trkpt>
      <trkpt lat="45.81305" lon="1.70526">
        <ele>425.4</ele>
        <time>2022-08-02T07:53:24Z</time>
      </trkpt>
      <trkpt lat="45.81301" lon="1.70528">
        <ele>425.9</ele>
        <time>2022-08-02T07:53:26Z</time>
      </trkpt>
      <trkpt lat="45.81297" lon="1.70529">
        <ele>426.5</ele>
        <time>2022-08-02T07:53:28Z</time>
      </trkpt>
      <trkpt lat="45.81293" lon="1.70531">
        <ele>427.1</ele>
        <time>2022-08-02T07:53:30Z</time>
      </trkpt>
      <trkpt lat="45.8129" lon="1.70532">
        <ele>427.7</ele>
        <time>2022-08-02T07:53:32Z</time>
      </trkpt>
      <trkpt lat="45.81286" lon="1.70534">
        <ele>428.2</ele>
        <time>2022-08-02T07:53:34Z</time>
      </trkpt>
      <trkpt lat="45.81282" lon="1.70535">
        <ele>428.9</ele>
        <time>2022-08-02T07:53:36Z</time>
      </trkpt>
      <trkpt lat="45.81278" lon="1.70536">
        <ele>429.7</ele>
        <time>2022-08-02T07:53:38Z</time>
      </trkpt>
      <trkpt lat="45.81274" lon="1.70538">
        <ele>430.2</ele>
        <time>2022-08-02T07:53:40Z</time>
      </trkpt>
      <trkpt lat="45.81271" lon="1.70539">
        <ele>430.8</ele>
        <time>2022-08-02T07:53:42Z</time>
      </trkpt>
      <trkpt lat="45.81267" lon="1.7054">
        <ele>431.2</ele>
        <time>2022-08-02T07:53:44Z</time>
      </trkpt>
      <trkpt lat="45.81264" lon="1.70542">
        <ele>431.8</ele>
        <time>2022-08-02T07:53:46Z</time>
      </trkpt>
      <trkpt lat="45.8126" lon="1.70543">
        <ele>432.3</ele>
        <time>2022-08-02T07:53:48Z</time>
      </trkpt>
      <trkpt lat="45.81257" lon="1.70545">
        <ele>432.7</ele>
        <time>2022-08-02T07:53:50Z</time>
      </trkpt>
      <trkpt lat="45.81254" lon="1.70546">
        <ele>433.1</ele>
        <time>2022-08-02T07:53:52Z</time>
      </trkpt>
      <trkpt lat="45.81251" lon="1.70548">
        <ele>433.6</ele>
        <time>2022-08-02T07:53:54Z</time>
      </trkpt>
      <trkpt lat="45.81247" lon="1.7055">
        <ele>434.1</ele>
        <time>2022-08-02T07:53:56Z</time>
      </trkpt>
      <trkpt lat="45.81244" lon="1.7055">
        <ele>434.9</ele>
        <time>2022-08-02T07:53:58Z</time>
      </trkpt>
      <trkpt lat="45.81241" lon="1.70551">
        <ele>435.6</ele>
        <time>2022-08-02T07:54:00Z</time>
      </trkpt>
      <trkpt lat="45.81239" lon="1.70551">
        <ele>436.2</ele>
        <time>2022-08-02T07:54:02Z</time>
      </trkpt>
      <trkpt lat="45.81235" lon="1.70551">
        <ele>437</ele>
        <time>2022-08-02T07:54:04Z</time>
      </trkpt>
      <trkpt lat="45.81233" lon="1.70553">
        <ele>437.5</ele>
        <time>2022-08-02T07:54:06Z</time>
      </trkpt>
      <trkpt lat="45.8123" lon="1.70555">
        <ele>438</ele>
        <time>2022-08-02T07:54:08Z</time>
      </trkpt>
      <trkpt lat="45.81227" lon="1.70556">
        <ele>438.4</ele>
        <time>2022-08-02T07:54:10Z</time>
      </trkpt>
      <trkpt lat="45.81224" lon="1.70559">
        <ele>438.8</ele>
        <time>2022-08-02T07:54:12Z</time>
      </trkpt>
      <trkpt lat="45.81219" lon="1.70563">
        <ele>439.2</ele>
        <time>2022-08-02T07:54:14Z</time>
      </trkpt>
      <trkpt lat="45.81216" lon="1.70565">
        <ele>439.6</ele>
        <time>2022-08-02T07:54:16Z</time>
      </trkpt>
      <trkpt lat="45.81213" lon="1.70568">
        <ele>439.9</ele>
        <time>2022-08-02T07:54:18Z</time>
      </trkpt>
      <trkpt lat="45.8121" lon="1.70571">
        <ele>440</ele>
        <time>2022-08-02T07:54:20Z</time>
      </trkpt>
      <trkpt lat="45.81206" lon="1.70574">
        <ele>440.3</ele>
        <time>2022-08-02T07:54:22Z</time>
      </trkpt>
      <trkpt lat="45.81203" lon="1.70577">
        <ele>440.4</ele>
        <time>2022-08-02T07:54:24Z</time>
      </trkpt>
      <trkpt lat="45.81201" lon="1.7058">
        <ele>440.4</ele>
        <time>2022-08-02T07:54:26Z</time>
      </trkpt>
      <trkpt lat="45.81199" lon="1.70582">
        <ele>440.3</ele>
        <time>2022-08-02T07:54:28Z</time>
      </trkpt>
      <trkpt lat="45.81196" lon="1.70585">
        <ele>440.4</ele>
        <time>2022-08-02T07:54:30Z</time>
      </trkpt>
      <trkpt lat="45.81193" lon="1.70587">
        <ele>440.7</ele>
        <time>2022-08-02T07:54:32Z</time>
      </trkpt>
      <trkpt lat="45.8119" lon="1.7059">
        <ele>440.9</ele>
        <time>2022-08-02T07:54:34Z</time>
      </trkpt>
      <trkpt lat="45.81186" lon="1.70592">
        <ele>441.3</ele>
        <time>2022-08-02T07:54:36Z</time>
      </trkpt>
      <trkpt lat="45.81147" lon="1.70615">
        <ele>446.6</ele>
        <time>2022-08-02T07:54:58Z</time>
      </trkpt>
      <trkpt lat="45.81144" lon="1.70615">
        <ele>447.5</ele>
        <time>2022-08-02T07:55:00Z</time>
      </trkpt>
      <trkpt lat="45.8114" lon="1.70616">
        <ele>448.3</ele>
        <time>2022-08-02T07:55:02Z</time>
      </trkpt>
      <trkpt lat="45.81136" lon="1.70617">
        <ele>449.5</ele>
        <time>2022-08-02T07:55:04Z</time>
      </trkpt>
      <trkpt lat="45.81132" lon="1.70618">
        <ele>450.3</ele>
        <time>2022-08-02T07:55:06Z</time>
      </trkpt>
      <trkpt lat="45.81129" lon="1.7062">
        <ele>450.9</ele>
        <time>2022-08-02T07:55:08Z</time>
      </trkpt>
      <trkpt lat="45.81125" lon="1.70621">
        <ele>451.9</ele>
        <time>2022-08-02T07:55:10Z</time>
      </trkpt>
      <trkpt lat="45.81121" lon="1.70623">
        <ele>452.5</ele>
        <time>2022-08-02T07:55:12Z</time>
      </trkpt>
      <trkpt lat="45.81118" lon="1.70625">
        <ele>453.2</ele>
        <time>2022-08-02T07:55:14Z</time>
      </trkpt>
      <trkpt lat="45.81115" lon="1.70627">
        <ele>453.9</ele>
        <time>2022-08-02T07:55:16Z</time>
      </trkpt>
      <trkpt lat="45.81111" lon="1.7063">
        <ele>454.5</ele>
        <time>2022-08-02T07:55:18Z</time>
      </trkpt>
      <trkpt lat="45.81108" lon="1.70632">
        <ele>454.9</ele>
        <time>2022-08-02T07:55:20Z</time>
      </trkpt>
      <trkpt lat="45.81105" lon="1.70636">
        <ele>455.3</ele>
        <time>2022-08-02T07:55:22Z</time>
      </trkpt>
      <trkpt lat="45.81102" lon="1.70639">
        <ele>455.5</ele>
        <time>2022-08-02T07:55:24Z</time>
      </trkpt>
      <trkpt lat="45.81099" lon="1.70643">
        <ele>455.7</ele>
        <time>2022-08-02T07:55:26Z</time>
      </trkpt>
      <trkpt lat="45.81097" lon="1.70646">
        <ele>455.7</ele>
        <time>2022-08-02T07:55:28Z</time>
      </trkpt>
      <trkpt lat="45.81096" lon="1.70649">
        <ele>455.7</ele>
        <time>2022-08-02T07:55:30Z</time>
      </trkpt>
      <trkpt lat="45.81094" lon="1.70653">
        <ele>455.5</ele>
        <time>2022-08-02T07:55:32Z</time>
      </trkpt>
      <trkpt lat="45.81092" lon="1.70659">
        <ele>455.1</ele>
        <time>2022-08-02T07:55:34Z</time>
      </trkpt>
      <trkpt lat="45.81092" lon="1.70663">
        <ele>454.6</ele>
        <time>2022-08-02T07:55:36Z</time>
      </trkpt>
      <trkpt lat="45.81092" lon="1.70668">
        <ele>454.1</ele>
        <time>2022-08-02T07:55:38Z</time>
      </trkpt>
      <trkpt lat="45.81091" lon="1.70671">
        <ele>454.7</ele>
        <time>2022-08-02T07:55:40Z</time>
      </trkpt>
      <trkpt lat="45.81092" lon="1.70675">
        <ele>455</ele>
        <time>2022-08-02T07:55:42Z</time>
      </trkpt>
      <trkpt lat="45.81093" lon="1.70679">
        <ele>455.2</ele>
        <time>2022-08-02T07:55:44Z</time>
      </trkpt>
      <trkpt lat="45.81094" lon="1.70683">
        <ele>455.4</ele>
        <time>2022-08-02T07:55:46Z</time>
      </trkpt>
      <trkpt lat="45.81096" lon="1.70688">
        <ele>455.6</ele>
        <time>2022-08-02T07:55:48Z</time>
      </trkpt>
      <trkpt lat="45.81098" lon="1.70692">
        <ele>455.6</ele>
        <time>2022-08-02T07:55:50Z</time>
      </trkpt>
      <trkpt lat="45.81099" lon="1.70697">
        <ele>455.9</ele>
        <time>2022-08-02T07:55:52Z</time>
      </trkpt>
      <trkpt lat="45.811" lon="1.70701">
        <ele>455.9</ele>
        <time>2022-08-02T07:55:54Z</time>
      </trkpt>
      <trkpt lat="45.81102" lon="1.70705">
        <ele>455.9</ele>
        <time>2022-08-02T07:55:56Z</time>
      </trkpt>
      <trkpt lat="45.81103" lon="1.70709">
        <ele>456</ele>
        <time>2022-08-02T07:55:58Z</time>
      </trkpt>
      <trkpt lat="45.81105" lon="1.70713">
        <ele>456</ele>
        <time>2022-08-02T07:56:00Z</time>
      </trkpt>
      <trkpt lat="45.81107" lon="1.70717">
        <ele>455.8</ele>
        <time>2022-08-02T07:56:02Z</time>
      </trkpt>
      <trkpt lat="45.81109" lon="1.7072">
        <ele>455.5</ele>
        <time>2022-08-02T07:56:04Z</time>
      </trkpt>
      <trkpt lat="45.81111" lon="1.70724">
        <ele>455.6</ele>
        <time>2022-08-02T07:56:06Z</time>
      </trkpt>
      <trkpt lat="45.81112" lon="1.70728">
        <ele>455.7</ele>
        <time>2022-08-02T07:56:08Z</time>
      </trkpt>
      <trkpt lat="45.81115" lon="1.70731">
        <ele>455.3</ele>
        <time>2022-08-02T07:56:10Z</time>
      </trkpt>
      <trkpt lat="45.81117" lon="1.70735">
        <ele>455.1</ele>
        <time>2022-08-02T07:56:12Z</time>
      </trkpt>
      <trkpt lat="45.81118" lon="1.70739">
        <ele>455.2</ele>
        <time>2022-08-02T07:56:14Z</time>
      </trkpt>
      <trkpt lat="45.8112" lon="1.70743">
        <ele>455</ele>
        <time>2022-08-02T07:56:16Z</time>
      </trkpt>
      <trkpt lat="45.81122" lon="1.70746">
        <ele>454.9</ele>
        <time>2022-08-02T07:56:18Z</time>
      </trkpt>
      <trkpt lat="45.81125" lon="1.7075">
        <ele>454.6</ele>
        <time>2022-08-02T07:56:20Z</time>
      </trkpt>
      <trkpt lat="45.81126" lon="1.70752">
        <ele>454.4</ele>
        <time>2022-08-02T07:56:22Z</time>
      </trkpt>
      <trkpt lat="45.81128" lon="1.70756">
        <ele>454.3</ele>
        <time>2022-08-02T07:56:24Z</time>
      </trkpt>
      <trkpt lat="45.81129" lon="1.70759">
        <ele>454.4</ele>
        <time>2022-08-02T07:56:26Z</time>
      </trkpt>
      <trkpt lat="45.81132" lon="1.70763">
        <ele>454.2</ele>
        <time>2022-08-02T07:56:28Z</time>
      </trkpt>
      <trkpt lat="45.81134" lon="1.70767">
        <ele>454.3</ele>
        <time>2022-08-02T07:56:30Z</time>
      </trkpt>
      <trkpt lat="45.81135" lon="1.70771">
        <ele>454.5</ele>
        <time>2022-08-02T07:56:32Z</time>
      </trkpt>
      <trkpt lat="45.81136" lon="1.70774">
        <ele>454.7</ele>
        <time>2022-08-02T07:56:34Z</time>
      </trkpt>
      <trkpt lat="45.81137" lon="1.70778">
        <ele>454.8</ele>
        <time>2022-08-02T07:56:36Z</time>
      </trkpt>
      <trkpt lat="45.81139" lon="1.70783">
        <ele>454.9</ele>
        <time>2022-08-02T07:56:38Z</time>
      </trkpt>
      <trkpt lat="45.81141" lon="1.70787">
        <ele>455.1</ele>
        <time>2022-08-02T07:56:40Z</time>
      </trkpt>
      <trkpt lat="45.81141" lon="1.70791">
        <ele>455.5</ele>
        <time>2022-08-02T07:56:42Z</time>
      </trkpt>
      <trkpt lat="45.81143" lon="1.70794">
        <ele>455.6</ele>
        <time>2022-08-02T07:56:44Z</time>
      </trkpt>
      <trkpt lat="45.81144" lon="1.70797">
        <ele>455.8</ele>
        <time>2022-08-02T07:56:46Z</time>
      </trkpt>
      <trkpt lat="45.81146" lon="1.70801">
        <ele>456</ele>
        <time>2022-08-02T07:56:48Z</time>
      </trkpt>
      <trkpt lat="45.81147" lon="1.70806">
        <ele>456.3</ele>
        <time>2022-08-02T07:56:50Z</time>
      </trkpt>
      <trkpt lat="45.81149" lon="1.7081">
        <ele>456.6</ele>
        <time>2022-08-02T07:56:52Z</time>
      </trkpt>
      <trkpt lat="45.8116" lon="1.70838">
        <ele>458.5</ele>
        <time>2022-08-02T07:57:06Z</time>
      </trkpt>
      <trkpt lat="45.81162" lon="1.70842">
        <ele>458.7</ele>
        <time>2022-08-02T07:57:08Z</time>
      </trkpt>
      <trkpt lat="45.81164" lon="1.70845">
        <ele>458.7</ele>
        <time>2022-08-02T07:57:10Z</time>
      </trkpt>
      <trkpt lat="45.81165" lon="1.70849">
        <ele>459</ele>
        <time>2022-08-02T07:57:12Z</time>
      </trkpt>
      <trkpt lat="45.81168" lon="1.70853">
        <ele>459.1</ele>
        <time>2022-08-02T07:57:14Z</time>
      </trkpt>
      <trkpt lat="45.81169" lon="1.70857">
        <ele>459.6</ele>
        <time>2022-08-02T07:57:16Z</time>
      </trkpt>
      <trkpt lat="45.81172" lon="1.70861">
        <ele>459.8</ele>
        <time>2022-08-02T07:57:18Z</time>
      </trkpt>
      <trkpt lat="45.81174" lon="1.70864">
        <ele>460</ele>
        <time>2022-08-02T07:57:20Z</time>
      </trkpt>
      <trkpt lat="45.81175" lon="1.70868">
        <ele>460.4</ele>
        <time>2022-08-02T07:57:22Z</time>
      </trkpt>
      <trkpt lat="45.81177" lon="1.70872">
        <ele>460.8</ele>
        <time>2022-08-02T07:57:24Z</time>
      </trkpt>
      <trkpt lat="45.81179" lon="1.70874">
        <ele>461</ele>
        <time>2022-08-02T07:57:26Z</time>
      </trkpt>
      <trkpt lat="45.8118" lon="1.70878">
        <ele>461.5</ele>
        <time>2022-08-02T07:57:28Z</time>
      </trkpt>
      <trkpt lat="45.81181" lon="1.70883">
        <ele>462.1</ele>
        <time>2022-08-02T07:57:30Z</time>
      </trkpt>
      <trkpt lat="45.81183" lon="1.70887">
        <ele>462.6</ele>
        <time>2022-08-02T07:57:32Z</time>
      </trkpt>
      <trkpt lat="45.81186" lon="1.70889">
        <ele>462.5</ele>
        <time>2022-08-02T07:57:34Z</time>
      </trkpt>
      <trkpt lat="45.81188" lon="1.70893">
        <ele>462.9</ele>
        <time>2022-08-02T07:57:36Z</time>
      </trkpt>
      <trkpt lat="45.81189" lon="1.70897">
        <ele>463.4</ele>
        <time>2022-08-02T07:57:38Z</time>
      </trkpt>
      <trkpt lat="45.8119" lon="1.70899">
        <ele>463.7</ele>
        <time>2022-08-02T07:57:40Z</time>
      </trkpt>
      <trkpt lat="45.81193" lon="1.70901">
        <ele>463.8</ele>
        <time>2022-08-02T07:57:42Z</time>
      </trkpt>
      <trkpt lat="45.81195" lon="1.70902">
        <ele>463.6</ele>
        <time>2022-08-02T07:57:44Z</time>
      </trkpt>
      <trkpt lat="45.81197" lon="1.70904">
        <ele>463.7</ele>
        <time>2022-08-02T07:57:46Z</time>
      </trkpt>
      <trkpt lat="45.81199" lon="1.70907">
        <ele>463.9</ele>
        <time>2022-08-02T07:57:48Z</time>
      </trkpt>
      <trkpt lat="45.81202" lon="1.70908">
        <ele>463.8</ele>
        <time>2022-08-02T07:57:50Z</time>
      </trkpt>
      <trkpt lat="45.81204" lon="1.7091">
        <ele>463.9</ele>
        <time>2022-08-02T07:57:52Z</time>
      </trkpt>
      <trkpt lat="45.81207" lon="1.70912">
        <ele>463.8</ele>
        <time>2022-08-02T07:57:54Z</time>
      </trkpt>
      <trkpt lat="45.81209" lon="1.70913">
        <ele>463.8</ele>
        <time>2022-08-02T07:57:56Z</time>
      </trkpt>
      <trkpt lat="45.81211" lon="1.70914">
        <ele>463.7</ele>
        <time>2022-08-02T07:57:58Z</time>
      </trkpt>
      <trkpt lat="45.81214" lon="1.70916">
        <ele>463.6</ele>
        <time>2022-08-02T07:58:00Z</time>
      </trkpt>
      <trkpt lat="45.81217" lon="1.70915">
        <ele>462.9</ele>
        <time>2022-08-02T07:58:02Z</time>
      </trkpt>
      <trkpt lat="45.81221" lon="1.70916">
        <ele>462.7</ele>
        <time>2022-08-02T07:58:04Z</time>
      </trkpt>
      <trkpt lat="45.81223" lon="1.70917">
        <ele>462.6</ele>
        <time>2022-08-02T07:58:06Z</time>
      </trkpt>
      <trkpt lat="45.81226" lon="1.70919">
        <ele>462.7</ele>
        <time>2022-08-02T07:58:08Z</time>
      </trkpt>
      <trkpt lat="45.81229" lon="1.70921">
        <ele>462.6</ele>
        <time>2022-08-02T07:58:10Z</time>
      </trkpt>
      <trkpt lat="45.81232" lon="1.70921">
        <ele>462.3</ele>
        <time>2022-08-02T07:58:12Z</time>
      </trkpt>
      <trkpt lat="45.81234" lon="1.70922">
        <ele>462.2</ele>
        <time>2022-08-02T07:58:14Z</time>
      </trkpt>
      <trkpt lat="45.81237" lon="1.70924">
        <ele>462.2</ele>
        <time>2022-08-02T07:58:16Z</time>
      </trkpt>
      <trkpt lat="45.8124" lon="1.70923">
        <ele>461.6</ele>
        <time>2022-08-02T07:58:18Z</time>
      </trkpt>
      <trkpt lat="45.81243" lon="1.70925">
        <ele>461.7</ele>
        <time>2022-08-02T07:58:20Z</time>
      </trkpt>
      <trkpt lat="45.81246" lon="1.70928">
        <ele>461.8</ele>
        <time>2022-08-02T07:58:22Z</time>
      </trkpt>
      <trkpt lat="45.81249" lon="1.70927">
        <ele>461.2</ele>
        <time>2022-08-02T07:58:24Z</time>
      </trkpt>
      <trkpt lat="45.81253" lon="1.70928">
        <ele>461</ele>
        <time>2022-08-02T07:58:26Z</time>
      </trkpt>
      <trkpt lat="45.81255" lon="1.70931">
        <ele>461.3</ele>
        <time>2022-08-02T07:58:28Z</time>
      </trkpt>
      <trkpt lat="45.81258" lon="1.70933">
        <ele>461.5</ele>
        <time>2022-08-02T07:58:30Z</time>
      </trkpt>
      <trkpt lat="45.81261" lon="1.70937">
        <ele>461.8</ele>
        <time>2022-08-02T07:58:32Z</time>
      </trkpt>
      <trkpt lat="45.81263" lon="1.70938">
        <ele>461.6</ele>
        <time>2022-08-02T07:58:34Z</time>
      </trkpt>
      <trkpt lat="45.81266" lon="1.70939">
        <ele>461.6</ele>
        <time>2022-08-02T07:58:36Z</time>
      </trkpt>
      <trkpt lat="45.8127" lon="1.7094">
        <ele>461.4</ele>
        <time>2022-08-02T07:58:38Z</time>
      </trkpt>
      <trkpt lat="45.81273" lon="1.70944">
        <ele>461.7</ele>
        <time>2022-08-02T07:58:40Z</time>
      </trkpt>
      <trkpt lat="45.81276" lon="1.70945">
        <ele>461.7</ele>
        <time>2022-08-02T07:58:42Z</time>
      </trkpt>
      <trkpt lat="45.81278" lon="1.70947">
        <ele>461.8</ele>
        <time>2022-08-02T07:58:44Z</time>
      </trkpt>
      <trkpt lat="45.81281" lon="1.7095">
        <ele>461.8</ele>
        <time>2022-08-02T07:58:46Z</time>
      </trkpt>
      <trkpt lat="45.81284" lon="1.70951">
        <ele>461.8</ele>
        <time>2022-08-02T07:58:48Z</time>
      </trkpt>
      <trkpt lat="45.81287" lon="1.70952">
        <ele>461.7</ele>
        <time>2022-08-02T07:58:50Z</time>
      </trkpt>
      <trkpt lat="45.8129" lon="1.70954">
        <ele>461.6</ele>
        <time>2022-08-02T07:58:52Z</time>
      </trkpt>
      <trkpt lat="45.81293" lon="1.70956">
        <ele>461.6</ele>
        <time>2022-08-02T07:58:54Z</time>
      </trkpt>
      <trkpt lat="45.81295" lon="1.70958">
        <ele>461.7</ele>
        <time>2022-08-02T07:58:56Z</time>
      </trkpt>
      <trkpt lat="45.81298" lon="1.7096">
        <ele>461.7</ele>
        <time>2022-08-02T07:58:58Z</time>
      </trkpt>
      <trkpt lat="45.813" lon="1.70962">
        <ele>461.9</ele>
        <time>2022-08-02T07:59:00Z</time>
      </trkpt>
      <trkpt lat="45.81303" lon="1.70965">
        <ele>462</ele>
        <time>2022-08-02T07:59:02Z</time>
      </trkpt>
      <trkpt lat="45.81306" lon="1.70968">
        <ele>462.3</ele>
        <time>2022-08-02T07:59:04Z</time>
      </trkpt>
      <trkpt lat="45.81308" lon="1.70971">
        <ele>462.6</ele>
        <time>2022-08-02T07:59:06Z</time>
      </trkpt>
      <trkpt lat="45.81311" lon="1.70974">
        <ele>462.9</ele>
        <time>2022-08-02T07:59:08Z</time>
      </trkpt>
      <trkpt lat="45.81314" lon="1.70976">
        <ele>462.8</ele>
        <time>2022-08-02T07:59:10Z</time>
      </trkpt>
      <trkpt lat="45.81317" lon="1.7098">
        <ele>463.2</ele>
        <time>2022-08-02T07:59:12Z</time>
      </trkpt>
      <trkpt lat="45.81319" lon="1.70985">
        <ele>464.1</ele>
        <time>2022-08-02T07:59:14Z</time>
      </trkpt>
      <trkpt lat="45.81322" lon="1.70991">
        <ele>464.8</ele>
        <time>2022-08-02T07:59:16Z</time>
      </trkpt>
      <trkpt lat="45.81323" lon="1.70995">
        <ele>465.4</ele>
        <time>2022-08-02T07:59:18Z</time>
      </trkpt>
      <trkpt lat="45.81326" lon="1.71">
        <ele>466</ele>
        <time>2022-08-02T07:59:20Z</time>
      </trkpt>
      <trkpt lat="45.81329" lon="1.71005">
        <ele>466.3</ele>
        <time>2022-08-02T07:59:22Z</time>
      </trkpt>
      <trkpt lat="45.81332" lon="1.71008">
        <ele>466.2</ele>
        <time>2022-08-02T07:59:24Z</time>
      </trkpt>
      <trkpt lat="45.81334" lon="1.71012">
        <ele>466.4</ele>
        <time>2022-08-02T07:59:26Z</time>
      </trkpt>
      <trkpt lat="45.81337" lon="1.71017">
        <ele>466.5</ele>
        <time>2022-08-02T07:59:28Z</time>
      </trkpt>
      <trkpt lat="45.8134" lon="1.71021">
        <ele>466.4</ele>
        <time>2022-08-02T07:59:30Z</time>
      </trkpt>
      <trkpt lat="45.81341" lon="1.71026">
        <ele>466.9</ele>
        <time>2022-08-02T07:59:32Z</time>
      </trkpt>
      <trkpt lat="45.81342" lon="1.71031">
        <ele>467.1</ele>
        <time>2022-08-02T07:59:34Z</time>
      </trkpt>
      <trkpt lat="45.81345" lon="1.71034">
        <ele>467</ele>
        <time>2022-08-02T07:59:36Z</time>
      </trkpt>
      <trkpt lat="45.81347" lon="1.71039">
        <ele>467.2</ele>
        <time>2022-08-02T07:59:38Z</time>
      </trkpt>
      <trkpt lat="45.81349" lon="1.71043">
        <ele>467.4</ele>
        <time>2022-08-02T07:59:40Z</time>
      </trkpt>
      <trkpt lat="45.8135" lon="1.71049">
        <ele>467.8</ele>
        <time>2022-08-02T07:59:42Z</time>
      </trkpt>
      <trkpt lat="45.81352" lon="1.71052">
        <ele>468</ele>
        <time>2022-08-02T07:59:44Z</time>
      </trkpt>
      <trkpt lat="45.81353" lon="1.71057">
        <ele>468.2</ele>
        <time>2022-08-02T07:59:46Z</time>
      </trkpt>
      <trkpt lat="45.81355" lon="1.71062">
        <ele>468.5</ele>
        <time>2022-08-02T07:59:48Z</time>
      </trkpt>
      <trkpt lat="45.81356" lon="1.71066">
        <ele>468.8</ele>
        <time>2022-08-02T07:59:50Z</time>
      </trkpt>
      <trkpt lat="45.81358" lon="1.71071">
        <ele>469</ele>
        <time>2022-08-02T07:59:52Z</time>
      </trkpt>
      <trkpt lat="45.81359" lon="1.71075">
        <ele>469.2</ele>
        <time>2022-08-02T07:59:54Z</time>
      </trkpt>
      <trkpt lat="45.81362" lon="1.71078">
        <ele>469.1</ele>
        <time>2022-08-02T07:59:56Z</time>
      </trkpt>
      <trkpt lat="45.81364" lon="1.71083">
        <ele>469.4</ele>
        <time>2022-08-02T07:59:58Z</time>
      </trkpt>
      <trkpt lat="45.81365" lon="1.71086">
        <ele>469.6</ele>
        <time>2022-08-02T08:00:00Z</time>
      </trkpt>
      <trkpt lat="45.81367" lon="1.71091">
        <ele>470.1</ele>
        <time>2022-08-02T08:00:02Z</time>
      </trkpt>
      <trkpt lat="45.81369" lon="1.71094">
        <ele>470.3</ele>
        <time>2022-08-02T08:00:04Z</time>
      </trkpt>
      <trkpt lat="45.81372" lon="1.71098">
        <ele>470.3</ele>
        <time>2022-08-02T08:00:06Z</time>
      </trkpt>
      <trkpt lat="45.81373" lon="1.71102">
        <ele>470.7</ele>
        <time>2022-08-02T08:00:08Z</time>
      </trkpt>
      <trkpt lat="45.81374" lon="1.71107">
        <ele>471.3</ele>
        <time>2022-08-02T08:00:10Z</time>
      </trkpt>
      <trkpt lat="45.81376" lon="1.7111">
        <ele>471.5</ele>
        <time>2022-08-02T08:00:12Z</time>
      </trkpt>
      <trkpt lat="45.81378" lon="1.71115">
        <ele>471.7</ele>
        <time>2022-08-02T08:00:14Z</time>
      </trkpt>
      <trkpt lat="45.8138" lon="1.71119">
        <ele>472</ele>
        <time>2022-08-02T08:00:16Z</time>
      </trkpt>
      <trkpt lat="45.81382" lon="1.71123">
        <ele>472.3</ele>
        <time>2022-08-02T08:00:18Z</time>
      </trkpt>
      <trkpt lat="45.81385" lon="1.71127">
        <ele>472.3</ele>
        <time>2022-08-02T08:00:20Z</time>
      </trkpt>
      <trkpt lat="45.81386" lon="1.71131">
        <ele>472.7</ele>
        <time>2022-08-02T08:00:22Z</time>
      </trkpt>
      <trkpt lat="45.81388" lon="1.71136">
        <ele>473</ele>
        <time>2022-08-02T08:00:24Z</time>
      </trkpt>
      <trkpt lat="45.8139" lon="1.7114">
        <ele>473.3</ele>
        <time>2022-08-02T08:00:26Z</time>
      </trkpt>
      <trkpt lat="45.81392" lon="1.71144">
        <ele>473.5</ele>
        <time>2022-08-02T08:00:28Z</time>
      </trkpt>
      <trkpt lat="45.81392" lon="1.71148">
        <ele>474.1</ele>
        <time>2022-08-02T08:00:30Z</time>
      </trkpt>
      <trkpt lat="45.81395" lon="1.71152">
        <ele>474.2</ele>
        <time>2022-08-02T08:00:32Z</time>
      </trkpt>
      <trkpt lat="45.81396" lon="1.71156">
        <ele>474.4</ele>
        <time>2022-08-02T08:00:34Z</time>
      </trkpt>
      <trkpt lat="45.81398" lon="1.71161">
        <ele>474.7</ele>
        <time>2022-08-02T08:00:36Z</time>
      </trkpt>
      <trkpt lat="45.814" lon="1.71165">
        <ele>474.9</ele>
        <time>2022-08-02T08:00:38Z</time>
      </trkpt>
      <trkpt lat="45.81401" lon="1.71171">
        <ele>475.1</ele>
        <time>2022-08-02T08:00:40Z</time>
      </trkpt>
      <trkpt lat="45.81402" lon="1.71175">
        <ele>475.2</ele>
        <time>2022-08-02T08:00:42Z</time>
      </trkpt>
      <trkpt lat="45.81403" lon="1.71179">
        <ele>475.2</ele>
        <time>2022-08-02T08:00:44Z</time>
      </trkpt>
      <trkpt lat="45.81404" lon="1.71179">
        <ele>475</ele>
        <time>2022-08-02T08:00:46Z</time>
      </trkpt>
      <trkpt lat="45.81404" lon="1.71179">
        <ele>475.1</ele>
        <time>2022-08-02T08:00:48Z</time>
      </trkpt>
      <trkpt lat="45.81404" lon="1.71179">
        <ele>475</ele>
        <time>2022-08-02T08:00:50Z</time>
      </trkpt>
      <trkpt lat="45.81404" lon="1.7118">
        <ele>475</ele>
        <time>2022-08-02T08:00:52Z</time>
      </trkpt>
      <trkpt lat="45.81407" lon="1.71196">
        <ele>475.3</ele>
        <time>2022-08-02T08:05:24Z</time>
      </trkpt>
      <trkpt lat="45.81409" lon="1.71203">
        <ele>475.3</ele>
        <time>2022-08-02T08:05:26Z</time>
      </trkpt>
      <trkpt lat="45.8141" lon="1.71211">
        <ele>475.5</ele>
        <time>2022-08-02T08:05:28Z</time>
      </trkpt>
      <trkpt lat="45.8141" lon="1.71218">
        <ele>475.9</ele>
        <time>2022-08-02T08:05:30Z</time>
      </trkpt>
      <trkpt lat="45.81413" lon="1.71227">
        <ele>475.6</ele>
        <time>2022-08-02T08:05:32Z</time>
      </trkpt>
      <trkpt lat="45.81413" lon="1.71234">
        <ele>476.2</ele>
        <time>2022-08-02T08:05:34Z</time>
      </trkpt>
      <trkpt lat="45.81412" lon="1.71244">
        <ele>477.1</ele>
        <time>2022-08-02T08:05:36Z</time>
      </trkpt>
      <trkpt lat="45.8141" lon="1.71254">
        <ele>477.6</ele>
        <time>2022-08-02T08:05:38Z</time>
      </trkpt>
      <trkpt lat="45.81409" lon="1.71264">
        <ele>477.4</ele>
        <time>2022-08-02T08:05:40Z</time>
      </trkpt>
      <trkpt lat="45.81405" lon="1.71275">
        <ele>477.7</ele>
        <time>2022-08-02T08:05:42Z</time>
      </trkpt>
      <trkpt lat="45.81401" lon="1.71286">
        <ele>478</ele>
        <time>2022-08-02T08:05:44Z</time>
      </trkpt>
      <trkpt lat="45.81399" lon="1.71299">
        <ele>477.7</ele>
        <time>2022-08-02T08:05:46Z</time>
      </trkpt>
      <trkpt lat="45.81396" lon="1.71312">
        <ele>477.6</ele>
        <time>2022-08-02T08:05:48Z</time>
      </trkpt>
      <trkpt lat="45.81394" lon="1.71324">
        <ele>477.4</ele>
        <time>2022-08-02T08:05:50Z</time>
      </trkpt>
      <trkpt lat="45.81393" lon="1.71335">
        <ele>477.1</ele>
        <time>2022-08-02T08:05:52Z</time>
      </trkpt>
      <trkpt lat="45.81393" lon="1.71344">
        <ele>477.8</ele>
        <time>2022-08-02T08:05:54Z</time>
      </trkpt>
      <trkpt lat="45.81393" lon="1.71353">
        <ele>478.3</ele>
        <time>2022-08-02T08:05:56Z</time>
      </trkpt>
      <trkpt lat="45.81393" lon="1.7136">
        <ele>478.7</ele>
        <time>2022-08-02T08:05:58Z</time>
      </trkpt>
      <trkpt lat="45.81395" lon="1.71368">
        <ele>478.8</ele>
        <time>2022-08-02T08:06:00Z</time>
      </trkpt>
      <trkpt lat="45.81397" lon="1.71374">
        <ele>478.7</ele>
        <time>2022-08-02T08:06:02Z</time>
      </trkpt>
      <trkpt lat="45.814" lon="1.7138">
        <ele>478.5</ele>
        <time>2022-08-02T08:06:04Z</time>
      </trkpt>
      <trkpt lat="45.81404" lon="1.71384">
        <ele>478</ele>
        <time>2022-08-02T08:06:06Z</time>
      </trkpt>
      <trkpt lat="45.81407" lon="1.71388">
        <ele>477.6</ele>
        <time>2022-08-02T08:06:08Z</time>
      </trkpt>
      <trkpt lat="45.81412" lon="1.71392">
        <ele>476.9</ele>
        <time>2022-08-02T08:06:10Z</time>
      </trkpt>
      <trkpt lat="45.81417" lon="1.71396">
        <ele>476.2</ele>
        <time>2022-08-02T08:06:12Z</time>
      </trkpt>
      <trkpt lat="45.81421" lon="1.71399">
        <ele>475.9</ele>
        <time>2022-08-02T08:06:14Z</time>
      </trkpt>
      <trkpt lat="45.81427" lon="1.71403">
        <ele>475.2</ele>
        <time>2022-08-02T08:06:16Z</time>
      </trkpt>
      <trkpt lat="45.81434" lon="1.71407">
        <ele>474.6</ele>
        <time>2022-08-02T08:06:18Z</time>
      </trkpt>
      <trkpt lat="45.81441" lon="1.71413">
        <ele>474.1</ele>
        <time>2022-08-02T08:06:20Z</time>
      </trkpt>
      <trkpt lat="45.81451" lon="1.71419">
        <ele>473.4</ele>
        <time>2022-08-02T08:06:22Z</time>
      </trkpt>
      <trkpt lat="45.8146" lon="1.71426">
        <ele>472.9</ele>
        <time>2022-08-02T08:06:24Z</time>
      </trkpt>
      <trkpt lat="45.81469" lon="1.71432">
        <ele>472.4</ele>
        <time>2022-08-02T08:06:26Z</time>
      </trkpt>
      <trkpt lat="45.81479" lon="1.71439">
        <ele>472</ele>
        <time>2022-08-02T08:06:28Z</time>
      </trkpt>
      <trkpt lat="45.81489" lon="1.71447">
        <ele>471.6</ele>
        <time>2022-08-02T08:06:30Z</time>
      </trkpt>
      <trkpt lat="45.81498" lon="1.71456">
        <ele>471.5</ele>
        <time>2022-08-02T08:06:32Z</time>
      </trkpt>
      <trkpt lat="45.81509" lon="1.71466">
        <ele>470.9</ele>
        <time>2022-08-02T08:06:34Z</time>
      </trkpt>
      <trkpt lat="45.8152" lon="1.71476">
        <ele>470.2</ele>
        <time>2022-08-02T08:06:36Z</time>
      </trkpt>
      <trkpt lat="45.81533" lon="1.71487">
        <ele>469.4</ele>
        <time>2022-08-02T08:06:38Z</time>
      </trkpt>
      <trkpt lat="45.81544" lon="1.715">
        <ele>469</ele>
        <time>2022-08-02T08:06:40Z</time>
      </trkpt>
      <trkpt lat="45.81555" lon="1.71515">
        <ele>468.8</ele>
        <time>2022-08-02T08:06:42Z</time>
      </trkpt>
      <trkpt lat="45.81564" lon="1.71529">
        <ele>468.8</ele>
        <time>2022-08-02T08:06:44Z</time>
      </trkpt>
      <trkpt lat="45.81574" lon="1.71543">
        <ele>468.8</ele>
        <time>2022-08-02T08:06:46Z</time>
      </trkpt>
      <trkpt lat="45.81583" lon="1.71555">
        <ele>468.6</ele>
        <time>2022-08-02T08:06:48Z</time>
      </trkpt>
      <trkpt lat="45.81594" lon="1.71568">
        <ele>468.6</ele>
        <time>2022-08-02T08:06:50Z</time>
      </trkpt>
      <trkpt lat="45.81604" lon="1.71581">
        <ele>468.8</ele>
        <time>2022-08-02T08:06:52Z</time>
      </trkpt>
      <trkpt lat="45.8161" lon="1.71596">
        <ele>468.8</ele>
        <time>2022-08-02T08:06:54Z</time>
      </trkpt>
      <trkpt lat="45.81617" lon="1.71612">
        <ele>468.8</ele>
        <time>2022-08-02T08:06:56Z</time>
      </trkpt>
      <trkpt lat="45.81622" lon="1.71626">
        <ele>468.8</ele>
        <time>2022-08-02T08:06:58Z</time>
      </trkpt>
      <trkpt lat="45.81622" lon="1.71636">
        <ele>469.3</ele>
        <time>2022-08-02T08:07:00Z</time>
      </trkpt>
      <trkpt lat="45.81624" lon="1.71643">
        <ele>469.4</ele>
        <time>2022-08-02T08:07:02Z</time>
      </trkpt>
      <trkpt lat="45.81628" lon="1.71645">
        <ele>468.8</ele>
        <time>2022-08-02T08:07:04Z</time>
      </trkpt>
      <trkpt lat="45.81628" lon="1.71644">
        <ele>468.8</ele>
        <time>2022-08-02T08:07:06Z</time>
      </trkpt>
      <trkpt lat="45.81629" lon="1.71644">
        <ele>468.7</ele>
        <time>2022-08-02T08:07:08Z</time>
      </trkpt>
      <trkpt lat="45.81629" lon="1.71644">
        <ele>468.6</ele>
        <time>2022-08-02T08:07:10Z</time>
      </trkpt>
      <trkpt lat="45.8163" lon="1.71643">
        <ele>468.5</ele>
        <time>2022-08-02T08:07:12Z</time>
      </trkpt>
      <trkpt lat="45.8164" lon="1.71659">
        <ele>467.8</ele>
        <time>2022-08-02T08:07:28Z</time>
      </trkpt>
      <trkpt lat="45.81644" lon="1.71669">
        <ele>467.5</ele>
        <time>2022-08-02T08:07:30Z</time>
      </trkpt>
      <trkpt lat="45.81649" lon="1.7168">
        <ele>466.7</ele>
        <time>2022-08-02T08:07:32Z</time>
      </trkpt>
      <trkpt lat="45.81651" lon="1.71692">
        <ele>466.2</ele>
        <time>2022-08-02T08:07:34Z</time>
      </trkpt>
      <trkpt lat="45.81656" lon="1.71705">
        <ele>465.3</ele>
        <time>2022-08-02T08:07:36Z</time>
      </trkpt>
      <trkpt lat="45.81661" lon="1.7172">
        <ele>464.3</ele>
        <time>2022-08-02T08:07:38Z</time>
      </trkpt>
      <trkpt lat="45.81668" lon="1.71736">
        <ele>463</ele>
        <time>2022-08-02T08:07:40Z</time>
      </trkpt>
      <trkpt lat="45.81674" lon="1.71753">
        <ele>462.2</ele>
        <time>2022-08-02T08:07:42Z</time>
      </trkpt>
      <trkpt lat="45.81679" lon="1.7177">
        <ele>461.6</ele>
        <time>2022-08-02T08:07:44Z</time>
      </trkpt>
      <trkpt lat="45.81681" lon="1.7179">
        <ele>461.5</ele>
        <time>2022-08-02T08:07:46Z</time>
      </trkpt>
      <trkpt lat="45.81683" lon="1.71811">
        <ele>461.2</ele>
        <time>2022-08-02T08:07:48Z</time>
      </trkpt>
      <trkpt lat="45.81683" lon="1.71832">
        <ele>461.2</ele>
        <time>2022-08-02T08:07:50Z</time>
      </trkpt>
      <trkpt lat="45.8168" lon="1.71852">
        <ele>459.3</ele>
        <time>2022-08-02T08:07:52Z</time>
      </trkpt>
      <trkpt lat="45.81673" lon="1.71871">
        <ele>457.9</ele>
        <time>2022-08-02T08:07:54Z</time>
      </trkpt>
      <trkpt lat="45.81663" lon="1.7189">
        <ele>457.6</ele>
        <time>2022-08-02T08:07:56Z</time>
      </trkpt>
      <trkpt lat="45.81655" lon="1.71907">
        <ele>457.8</ele>
        <time>2022-08-02T08:07:58Z</time>
      </trkpt>
      <trkpt lat="45.81648" lon="1.71929">
        <ele>457.7</ele>
        <time>2022-08-02T08:08:00Z</time>
      </trkpt>
      <trkpt lat="45.81647" lon="1.71954">
        <ele>456.6</ele>
        <time>2022-08-02T08:08:02Z</time>
      </trkpt>
      <trkpt lat="45.81649" lon="1.71977">
        <ele>454.6</ele>
        <time>2022-08-02T08:08:04Z</time>
      </trkpt>
      <trkpt lat="45.81648" lon="1.72001">
        <ele>453.6</ele>
        <time>2022-08-02T08:08:06Z</time>
      </trkpt>
      <trkpt lat="45.8164" lon="1.72022">
        <ele>454.5</ele>
        <time>2022-08-02T08:08:08Z</time>
      </trkpt>
      <trkpt lat="45.8163" lon="1.72043">
        <ele>456.2</ele>
        <time>2022-08-02T08:08:10Z</time>
      </trkpt>
      <trkpt lat="45.81622" lon="1.72066">
        <ele>457.5</ele>
        <time>2022-08-02T08:08:12Z</time>
      </trkpt>
      <trkpt lat="45.81619" lon="1.72092">
        <ele>457.6</ele>
        <time>2022-08-02T08:08:14Z</time>
      </trkpt>
      <trkpt lat="45.81616" lon="1.72116">
        <ele>457.5</ele>
        <time>2022-08-02T08:08:16Z</time>
      </trkpt>
      <trkpt lat="45.81619" lon="1.72143">
        <ele>455.6</ele>
        <time>2022-08-02T08:08:18Z</time>
      </trkpt>
      <trkpt lat="45.81621" lon="1.7217">
        <ele>453.6</ele>
        <time>2022-08-02T08:08:20Z</time>
      </trkpt>
      <trkpt lat="45.8162" lon="1.72199">
        <ele>453</ele>
        <time>2022-08-02T08:08:22Z</time>
      </trkpt>
      <trkpt lat="45.81617" lon="1.72229">
        <ele>453.6</ele>
        <time>2022-08-02T08:08:24Z</time>
      </trkpt>
      <trkpt lat="45.81611" lon="1.72257">
        <ele>454.9</ele>
        <time>2022-08-02T08:08:26Z</time>
      </trkpt>
      <trkpt lat="45.81608" lon="1.72286">
        <ele>452.8</ele>
        <time>2022-08-02T08:08:28Z</time>
      </trkpt>
      <trkpt lat="45.8161" lon="1.72316">
        <ele>448.6</ele>
        <time>2022-08-02T08:08:30Z</time>
      </trkpt>
      <trkpt lat="45.81612" lon="1.72342">
        <ele>444.8</ele>
        <time>2022-08-02T08:08:32Z</time>
      </trkpt>
      <trkpt lat="45.81607" lon="1.72365">
        <ele>442.9</ele>
        <time>2022-08-02T08:08:34Z</time>
      </trkpt>
      <trkpt lat="45.81598" lon="1.72385">
        <ele>442.7</ele>
        <time>2022-08-02T08:08:36Z</time>
      </trkpt>
      <trkpt lat="45.81582" lon="1.72395">
        <ele>445.3</ele>
        <time>2022-08-02T08:08:38Z</time>
      </trkpt>
      <trkpt lat="45.81563" lon="1.72395">
        <ele>446.9</ele>
        <time>2022-08-02T08:08:40Z</time>
      </trkpt>
      <trkpt lat="45.81546" lon="1.72399">
        <ele>447.7</ele>
        <time>2022-08-02T08:08:42Z</time>
      </trkpt>
      <trkpt lat="45.81533" lon="1.72408">
        <ele>447.3</ele>
        <time>2022-08-02T08:08:44Z</time>
      </trkpt>
      <trkpt lat="45.81525" lon="1.7243">
        <ele>445.4</ele>
        <time>2022-08-02T08:08:46Z</time>
      </trkpt>
      <trkpt lat="45.81523" lon="1.72452">
        <ele>443.8</ele>
        <time>2022-08-02T08:08:48Z</time>
      </trkpt>
      <trkpt lat="45.81528" lon="1.72472">
        <ele>441.4</ele>
        <time>2022-08-02T08:08:50Z</time>
      </trkpt>
      <trkpt lat="45.81536" lon="1.72492">
        <ele>438.5</ele>
        <time>2022-08-02T08:08:52Z</time>
      </trkpt>
      <trkpt lat="45.81549" lon="1.7251">
        <ele>435.9</ele>
        <time>2022-08-02T08:08:54Z</time>
      </trkpt>
      <trkpt lat="45.8156" lon="1.72531">
        <ele>434</ele>
        <time>2022-08-02T08:08:56Z</time>
      </trkpt>
      <trkpt lat="45.81573" lon="1.72549">
        <ele>431.6</ele>
        <time>2022-08-02T08:08:58Z</time>
      </trkpt>
      <trkpt lat="45.81585" lon="1.72568">
        <ele>428.9</ele>
        <time>2022-08-02T08:09:00Z</time>
      </trkpt>
      <trkpt lat="45.81595" lon="1.72587">
        <ele>426.4</ele>
        <time>2022-08-02T08:09:02Z</time>
      </trkpt>
      <trkpt lat="45.81602" lon="1.72611">
        <ele>424.4</ele>
        <time>2022-08-02T08:09:04Z</time>
      </trkpt>
      <trkpt lat="45.81602" lon="1.72635">
        <ele>423.9</ele>
        <time>2022-08-02T08:09:06Z</time>
      </trkpt>
      <trkpt lat="45.81598" lon="1.72658">
        <ele>424.4</ele>
        <time>2022-08-02T08:09:08Z</time>
      </trkpt>
      <trkpt lat="45.81594" lon="1.72682">
        <ele>423</ele>
        <time>2022-08-02T08:09:10Z</time>
      </trkpt>
      <trkpt lat="45.81591" lon="1.72706">
        <ele>420.4</ele>
        <time>2022-08-02T08:09:12Z</time>
      </trkpt>
      <trkpt lat="45.81588" lon="1.7273">
        <ele>417.7</ele>
        <time>2022-08-02T08:09:14Z</time>
      </trkpt>
      <trkpt lat="45.8158" lon="1.72752">
        <ele>416.4</ele>
        <time>2022-08-02T08:09:16Z</time>
      </trkpt>
      <trkpt lat="45.81568" lon="1.72772">
        <ele>415.9</ele>
        <time>2022-08-02T08:09:18Z</time>
      </trkpt>
      <trkpt lat="45.81555" lon="1.72793">
        <ele>414.8</ele>
        <time>2022-08-02T08:09:20Z</time>
      </trkpt>
      <trkpt lat="45.81541" lon="1.72813">
        <ele>414.1</ele>
        <time>2022-08-02T08:09:22Z</time>
      </trkpt>
      <trkpt lat="45.81529" lon="1.72831">
        <ele>413.2</ele>
        <time>2022-08-02T08:09:24Z</time>
      </trkpt>
      <trkpt lat="45.81515" lon="1.72844">
        <ele>413</ele>
        <time>2022-08-02T08:09:26Z</time>
      </trkpt>
      <trkpt lat="45.815" lon="1.7285">
        <ele>414.1</ele>
        <time>2022-08-02T08:09:28Z</time>
      </trkpt>
      <trkpt lat="45.81481" lon="1.72863">
        <ele>413.2</ele>
        <time>2022-08-02T08:09:30Z</time>
      </trkpt>
      <trkpt lat="45.81462" lon="1.72871">
        <ele>414</ele>
        <time>2022-08-02T08:09:32Z</time>
      </trkpt>
      <trkpt lat="45.81443" lon="1.72877">
        <ele>415.6</ele>
        <time>2022-08-02T08:09:34Z</time>
      </trkpt>
      <trkpt lat="45.81425" lon="1.72888">
        <ele>416.3</ele>
        <time>2022-08-02T08:09:36Z</time>
      </trkpt>
      <trkpt lat="45.81409" lon="1.72905">
        <ele>416.7</ele>
        <time>2022-08-02T08:09:38Z</time>
      </trkpt>
      <trkpt lat="45.81396" lon="1.7292">
        <ele>417.9</ele>
        <time>2022-08-02T08:09:40Z</time>
      </trkpt>
      <trkpt lat="45.81386" lon="1.72929">
        <ele>418.8</ele>
        <time>2022-08-02T08:09:42Z</time>
      </trkpt>
      <trkpt lat="45.81374" lon="1.7294">
        <ele>419.5</ele>
        <time>2022-08-02T08:09:44Z</time>
      </trkpt>
      <trkpt lat="45.81363" lon="1.72951">
        <ele>419.9</ele>
        <time>2022-08-02T08:09:46Z</time>
      </trkpt>
      <trkpt lat="45.81353" lon="1.7296">
        <ele>420.2</ele>
        <time>2022-08-02T08:09:48Z</time>
      </trkpt>
      <trkpt lat="45.81344" lon="1.7297">
        <ele>420.1</ele>
        <time>2022-08-02T08:09:50Z</time>
      </trkpt>
      <trkpt lat="45.81335" lon="1.7298">
        <ele>419.6</ele>
        <time>2022-08-02T08:09:52Z</time>
      </trkpt>
      <trkpt lat="45.81326" lon="1.72988">
        <ele>419.1</ele>
        <time>2022-08-02T08:09:54Z</time>
      </trkpt>
      <trkpt lat="45.81319" lon="1.72992">
        <ele>419.1</ele>
        <time>2022-08-02T08:09:56Z</time>
      </trkpt>
      <trkpt lat="45.81311" lon="1.73002">
        <ele>417.5</ele>
        <time>2022-08-02T08:09:58Z</time>
      </trkpt>
      <trkpt lat="45.81304" lon="1.73009">
        <ele>416.7</ele>
        <time>2022-08-02T08:10:00Z</time>
      </trkpt>
      <trkpt lat="45.81297" lon="1.73013">
        <ele>416.4</ele>
        <time>2022-08-02T08:10:02Z</time>
      </trkpt>
      <trkpt lat="45.81287" lon="1.73017">
        <ele>416.4</ele>
        <time>2022-08-02T08:10:04Z</time>
      </trkpt>
      <trkpt lat="45.81279" lon="1.7302">
        <ele>416.4</ele>
        <time>2022-08-02T08:10:06Z</time>
      </trkpt>
      <trkpt lat="45.81272" lon="1.73019">
        <ele>417.4</ele>
        <time>2022-08-02T08:10:08Z</time>
      </trkpt>
      <trkpt lat="45.81265" lon="1.73019">
        <ele>418.2</ele>
        <time>2022-08-02T08:10:10Z</time>
      </trkpt>
      <trkpt lat="45.81259" lon="1.73017">
        <ele>419.5</ele>
        <time>2022-08-02T08:10:12Z</time>
      </trkpt>
      <trkpt lat="45.81253" lon="1.73017">
        <ele>420.4</ele>
        <time>2022-08-02T08:10:14Z</time>
      </trkpt>
      <trkpt lat="45.81249" lon="1.73014">
        <ele>421.9</ele>
        <time>2022-08-02T08:10:16Z</time>
      </trkpt>
      <trkpt lat="45.81243" lon="1.73012">
        <ele>422.7</ele>
        <time>2022-08-02T08:10:18Z</time>
      </trkpt>
      <trkpt lat="45.81236" lon="1.73011">
        <ele>423.4</ele>
        <time>2022-08-02T08:10:20Z</time>
      </trkpt>
      <trkpt lat="45.81231" lon="1.73011">
        <ele>423.6</ele>
        <time>2022-08-02T08:10:22Z</time>
      </trkpt>
      <trkpt lat="45.81225" lon="1.73007">
        <ele>425.1</ele>
        <time>2022-08-02T08:10:24Z</time>
      </trkpt>
      <trkpt lat="45.81218" lon="1.7301">
        <ele>424.6</ele>
        <time>2022-08-02T08:10:26Z</time>
      </trkpt>
      <trkpt lat="45.81213" lon="1.73009">
        <ele>424.9</ele>
        <time>2022-08-02T08:10:28Z</time>
      </trkpt>
      <trkpt lat="45.81208" lon="1.73008">
        <ele>425.6</ele>
        <time>2022-08-02T08:10:30Z</time>
      </trkpt>
      <trkpt lat="45.81202" lon="1.73009">
        <ele>425.6</ele>
        <time>2022-08-02T08:10:32Z</time>
      </trkpt>
      <trkpt lat="45.81197" lon="1.73007">
        <ele>426.1</ele>
        <time>2022-08-02T08:10:34Z</time>
      </trkpt>
      <trkpt lat="45.81192" lon="1.73005">
        <ele>426.9</ele>
        <time>2022-08-02T08:10:36Z</time>
      </trkpt>
      <trkpt lat="45.81187" lon="1.73004">
        <ele>427.3</ele>
        <time>2022-08-02T08:10:38Z</time>
      </trkpt>
      <trkpt lat="45.81181" lon="1.73007">
        <ele>426.8</ele>
        <time>2022-08-02T08:10:40Z</time>
      </trkpt>
      <trkpt lat="45.81178" lon="1.73004">
        <ele>427.7</ele>
        <time>2022-08-02T08:10:42Z</time>
      </trkpt>
      <trkpt lat="45.81173" lon="1.73005">
        <ele>427.4</ele>
        <time>2022-08-02T08:10:44Z</time>
      </trkpt>
      <trkpt lat="45.81169" lon="1.73006">
        <ele>427.4</ele>
        <time>2022-08-02T08:10:46Z</time>
      </trkpt>
      <trkpt lat="45.81165" lon="1.73007">
        <ele>427.1</ele>
        <time>2022-08-02T08:10:48Z</time>
      </trkpt>
      <trkpt lat="45.8116" lon="1.73007">
        <ele>426.8</ele>
        <time>2022-08-02T08:10:50Z</time>
      </trkpt>
      <trkpt lat="45.81156" lon="1.73005">
        <ele>426.9</ele>
        <time>2022-08-02T08:10:52Z</time>
      </trkpt>
      <trkpt lat="45.81152" lon="1.73004">
        <ele>426.8</ele>
        <time>2022-08-02T08:10:54Z</time>
      </trkpt>
      <trkpt lat="45.81147" lon="1.73007">
        <ele>425.8</ele>
        <time>2022-08-02T08:10:56Z</time>
      </trkpt>
      <trkpt lat="45.81142" lon="1.73006">
        <ele>425.5</ele>
        <time>2022-08-02T08:10:58Z</time>
      </trkpt>
      <trkpt lat="45.81136" lon="1.73004">
        <ele>425.7</ele>
        <time>2022-08-02T08:11:00Z</time>
      </trkpt>
      <trkpt lat="45.8113" lon="1.73005">
        <ele>425</ele>
        <time>2022-08-02T08:11:02Z</time>
      </trkpt>
      <trkpt lat="45.81124" lon="1.73004">
        <ele>424.6</ele>
        <time>2022-08-02T08:11:04Z</time>
      </trkpt>
      <trkpt lat="45.81116" lon="1.73006">
        <ele>423.7</ele>
        <time>2022-08-02T08:11:06Z</time>
      </trkpt>
      <trkpt lat="45.81108" lon="1.73008">
        <ele>422.8</ele>
        <time>2022-08-02T08:11:08Z</time>
      </trkpt>
      <trkpt lat="45.81097" lon="1.73014">
        <ele>421.2</ele>
        <time>2022-08-02T08:11:10Z</time>
      </trkpt>
      <trkpt lat="45.81085" lon="1.73028">
        <ele>418.7</ele>
        <time>2022-08-02T08:11:12Z</time>
      </trkpt>
      <trkpt lat="45.8108" lon="1.73045">
        <ele>417.2</ele>
        <time>2022-08-02T08:11:14Z</time>
      </trkpt>
      <trkpt lat="45.81082" lon="1.73059">
        <ele>415.2</ele>
        <time>2022-08-02T08:11:16Z</time>
      </trkpt>
      <trkpt lat="45.81081" lon="1.73079">
        <ele>412.9</ele>
        <time>2022-08-02T08:11:18Z</time>
      </trkpt>
      <trkpt lat="45.81084" lon="1.73099">
        <ele>411.4</ele>
        <time>2022-08-02T08:11:20Z</time>
      </trkpt>
      <trkpt lat="45.81086" lon="1.7312">
        <ele>410.5</ele>
        <time>2022-08-02T08:11:22Z</time>
      </trkpt>
      <trkpt lat="45.81088" lon="1.73139">
        <ele>409.7</ele>
        <time>2022-08-02T08:11:24Z</time>
      </trkpt>
      <trkpt lat="45.81088" lon="1.73157">
        <ele>409.1</ele>
        <time>2022-08-02T08:11:26Z</time>
      </trkpt>
      <trkpt lat="45.81086" lon="1.73174">
        <ele>408.4</ele>
        <time>2022-08-02T08:11:28Z</time>
      </trkpt>
      <trkpt lat="45.81082" lon="1.73189">
        <ele>407.9</ele>
        <time>2022-08-02T08:11:30Z</time>
      </trkpt>
      <trkpt lat="45.81076" lon="1.73205">
        <ele>407.7</ele>
        <time>2022-08-02T08:11:32Z</time>
      </trkpt>
      <trkpt lat="45.81072" lon="1.73218">
        <ele>407.6</ele>
        <time>2022-08-02T08:11:34Z</time>
      </trkpt>
      <trkpt lat="45.81064" lon="1.73229">
        <ele>408</ele>
        <time>2022-08-02T08:11:36Z</time>
      </trkpt>
      <trkpt lat="45.81056" lon="1.73239">
        <ele>408.5</ele>
        <time>2022-08-02T08:11:38Z</time>
      </trkpt>
      <trkpt lat="45.81048" lon="1.73248">
        <ele>409.2</ele>
        <time>2022-08-02T08:11:40Z</time>
      </trkpt>
      <trkpt lat="45.81041" lon="1.73258">
        <ele>410</ele>
        <time>2022-08-02T08:11:42Z</time>
      </trkpt>
      <trkpt lat="45.81035" lon="1.73269">
        <ele>410.8</ele>
        <time>2022-08-02T08:11:44Z</time>
      </trkpt>
      <trkpt lat="45.81035" lon="1.73281">
        <ele>410.7</ele>
        <time>2022-08-02T08:11:46Z</time>
      </trkpt>
      <trkpt lat="45.81034" lon="1.73292">
        <ele>410.7</ele>
        <time>2022-08-02T08:11:48Z</time>
      </trkpt>
      <trkpt lat="45.81037" lon="1.73301">
        <ele>410.1</ele>
        <time>2022-08-02T08:11:50Z</time>
      </trkpt>
      <trkpt lat="45.8104" lon="1.7331">
        <ele>409.6</ele>
        <time>2022-08-02T08:11:52Z</time>
      </trkpt>
      <trkpt lat="45.81043" lon="1.73317">
        <ele>409</ele>
        <time>2022-08-02T08:11:54Z</time>
      </trkpt>
      <trkpt lat="45.81046" lon="1.73322">
        <ele>408.5</ele>
        <time>2022-08-02T08:11:56Z</time>
      </trkpt>
      <trkpt lat="45.81048" lon="1.73328">
        <ele>408</ele>
        <time>2022-08-02T08:11:58Z</time>
      </trkpt>
      <trkpt lat="45.8105" lon="1.73337">
        <ele>407.6</ele>
        <time>2022-08-02T08:12:00Z</time>
      </trkpt>
      <trkpt lat="45.8105" lon="1.73344">
        <ele>407.8</ele>
        <time>2022-08-02T08:12:02Z</time>
      </trkpt>
      <trkpt lat="45.81051" lon="1.73353">
        <ele>407.8</ele>
        <time>2022-08-02T08:12:04Z</time>
      </trkpt>
      <trkpt lat="45.81049" lon="1.73362">
        <ele>408.6</ele>
        <time>2022-08-02T08:12:06Z</time>
      </trkpt>
      <trkpt lat="45.81046" lon="1.73371">
        <ele>409.3</ele>
        <time>2022-08-02T08:12:08Z</time>
      </trkpt>
      <trkpt lat="45.81044" lon="1.7338">
        <ele>410.1</ele>
        <time>2022-08-02T08:12:10Z</time>
      </trkpt>
      <trkpt lat="45.81042" lon="1.7339">
        <ele>411.1</ele>
        <time>2022-08-02T08:12:12Z</time>
      </trkpt>
      <trkpt lat="45.81039" lon="1.734">
        <ele>412.1</ele>
        <time>2022-08-02T08:12:14Z</time>
      </trkpt>
      <trkpt lat="45.81039" lon="1.7341">
        <ele>412.5</ele>
        <time>2022-08-02T08:12:16Z</time>
      </trkpt>
      <trkpt lat="45.81036" lon="1.7342">
        <ele>413.5</ele>
        <time>2022-08-02T08:12:18Z</time>
      </trkpt>
      <trkpt lat="45.81034" lon="1.7343">
        <ele>413.5</ele>
        <time>2022-08-02T08:12:20Z</time>
      </trkpt>
      <trkpt lat="45.81033" lon="1.73439">
        <ele>413.4</ele>
        <time>2022-08-02T08:12:22Z</time>
      </trkpt>
      <trkpt lat="45.81032" lon="1.73449">
        <ele>413.3</ele>
        <time>2022-08-02T08:12:24Z</time>
      </trkpt>
      <trkpt lat="45.81032" lon="1.73459">
        <ele>412.8</ele>
        <time>2022-08-02T08:12:26Z</time>
      </trkpt>
      <trkpt lat="45.81033" lon="1.73469">
        <ele>412.2</ele>
        <time>2022-08-02T08:12:28Z</time>
      </trkpt>
      <trkpt lat="45.81032" lon="1.73479">
        <ele>412</ele>
        <time>2022-08-02T08:12:30Z</time>
      </trkpt>
      <trkpt lat="45.81033" lon="1.73489">
        <ele>411.3</ele>
        <time>2022-08-02T08:12:32Z</time>
      </trkpt>
      <trkpt lat="45.81033" lon="1.73499">
        <ele>410.8</ele>
        <time>2022-08-02T08:12:34Z</time>
      </trkpt>
      <trkpt lat="45.81031" lon="1.73509">
        <ele>410.3</ele>
        <time>2022-08-02T08:12:36Z</time>
      </trkpt>
      <trkpt lat="45.81026" lon="1.73518">
        <ele>410.7</ele>
        <time>2022-08-02T08:12:38Z</time>
      </trkpt>
      <trkpt lat="45.8102" lon="1.73526">
        <ele>411.2</ele>
        <time>2022-08-02T08:12:40Z</time>
      </trkpt>
      <trkpt lat="45.81013" lon="1.73532">
        <ele>412</ele>
        <time>2022-08-02T08:12:42Z</time>
      </trkpt>
      <trkpt lat="45.81007" lon="1.73542">
        <ele>412.4</ele>
        <time>2022-08-02T08:12:44Z</time>
      </trkpt>
      <trkpt lat="45.81001" lon="1.73551">
        <ele>412.6</ele>
        <time>2022-08-02T08:12:46Z</time>
      </trkpt>
      <trkpt lat="45.80994" lon="1.73559">
        <ele>413.5</ele>
        <time>2022-08-02T08:12:48Z</time>
      </trkpt>
      <trkpt lat="45.80988" lon="1.7357">
        <ele>413.8</ele>
        <time>2022-08-02T08:12:50Z</time>
      </trkpt>
      <trkpt lat="45.80982" lon="1.73578">
        <ele>414.1</ele>
        <time>2022-08-02T08:12:52Z</time>
      </trkpt>
      <trkpt lat="45.80977" lon="1.73584">
        <ele>414.7</ele>
        <time>2022-08-02T08:12:54Z</time>
      </trkpt>
      <trkpt lat="45.8097" lon="1.736">
        <ele>414.4</ele>
        <time>2022-08-02T08:12:56Z</time>
      </trkpt>
      <trkpt lat="45.80965" lon="1.7361">
        <ele>414.3</ele>
        <time>2022-08-02T08:12:58Z</time>
      </trkpt>
      <trkpt lat="45.80957" lon="1.73619">
        <ele>414.8</ele>
        <time>2022-08-02T08:13:00Z</time>
      </trkpt>
      <trkpt lat="45.80952" lon="1.73626">
        <ele>414.9</ele>
        <time>2022-08-02T08:13:02Z</time>
      </trkpt>
      <trkpt lat="45.80946" lon="1.73637">
        <ele>414.7</ele>
        <time>2022-08-02T08:13:04Z</time>
      </trkpt>
      <trkpt lat="45.8094" lon="1.73647">
        <ele>414.6</ele>
        <time>2022-08-02T08:13:06Z</time>
      </trkpt>
      <trkpt lat="45.80934" lon="1.73655">
        <ele>414.5</ele>
        <time>2022-08-02T08:13:08Z</time>
      </trkpt>
      <trkpt lat="45.80929" lon="1.73665">
        <ele>413.8</ele>
        <time>2022-08-02T08:13:10Z</time>
      </trkpt>
      <trkpt lat="45.80925" lon="1.73677">
        <ele>413.4</ele>
        <time>2022-08-02T08:13:12Z</time>
      </trkpt>
      <trkpt lat="45.80924" lon="1.73689">
        <ele>412.8</ele>
        <time>2022-08-02T08:13:14Z</time>
      </trkpt>
      <trkpt lat="45.80923" lon="1.73701">
        <ele>411.9</ele>
        <time>2022-08-02T08:13:16Z</time>
      </trkpt>
      <trkpt lat="45.80924" lon="1.73706">
        <ele>411.2</ele>
        <time>2022-08-02T08:13:18Z</time>
      </trkpt>
      <trkpt lat="45.80928" lon="1.73705">
        <ele>410.7</ele>
        <time>2022-08-02T08:13:20Z</time>
      </trkpt>
      <trkpt lat="45.80931" lon="1.73701">
        <ele>410.3</ele>
        <time>2022-08-02T08:13:22Z</time>
      </trkpt>
      <trkpt lat="45.80934" lon="1.73697">
        <ele>410.2</ele>
        <time>2022-08-02T08:13:24Z</time>
      </trkpt>
      <trkpt lat="45.80938" lon="1.73695">
        <ele>409.5</ele>
        <time>2022-08-02T08:13:26Z</time>
      </trkpt>
      <trkpt lat="45.80942" lon="1.73694">
        <ele>408.9</ele>
        <time>2022-08-02T08:13:28Z</time>
      </trkpt>
      <trkpt lat="45.80948" lon="1.73693">
        <ele>407.8</ele>
        <time>2022-08-02T08:13:30Z</time>
      </trkpt>
      <trkpt lat="45.80951" lon="1.73694">
        <ele>407.1</ele>
        <time>2022-08-02T08:13:32Z</time>
      </trkpt>
      <trkpt lat="45.80957" lon="1.73698">
        <ele>405.6</ele>
        <time>2022-08-02T08:13:34Z</time>
      </trkpt>
      <trkpt lat="45.80962" lon="1.73705">
        <ele>404.1</ele>
        <time>2022-08-02T08:13:36Z</time>
      </trkpt>
      <trkpt lat="45.80964" lon="1.73714">
        <ele>402.9</ele>
        <time>2022-08-02T08:13:38Z</time>
      </trkpt>
      <trkpt lat="45.80965" lon="1.73723">
        <ele>402</ele>
        <time>2022-08-02T08:13:40Z</time>
      </trkpt>
      <trkpt lat="45.80967" lon="1.7373">
        <ele>400.9</ele>
        <time>2022-08-02T08:13:42Z</time>
      </trkpt>
      <trkpt lat="45.80969" lon="1.7374">
        <ele>399.9</ele>
        <time>2022-08-02T08:13:44Z</time>
      </trkpt>
      <trkpt lat="45.80969" lon="1.73748">
        <ele>399.2</ele>
        <time>2022-08-02T08:13:46Z</time>
      </trkpt>
      <trkpt lat="45.80969" lon="1.73756">
        <ele>398.7</ele>
        <time>2022-08-02T08:13:48Z</time>
      </trkpt>
      <trkpt lat="45.8097" lon="1.73761">
        <ele>398.5</ele>
        <time>2022-08-02T08:13:50Z</time>
      </trkpt>
      <trkpt lat="45.8097" lon="1.73766">
        <ele>398.2</ele>
        <time>2022-08-02T08:13:52Z</time>
      </trkpt>
      <trkpt lat="45.80969" lon="1.7377">
        <ele>398.4</ele>
        <time>2022-08-02T08:13:54Z</time>
      </trkpt>
      <trkpt lat="45.80969" lon="1.73771">
        <ele>398.3</ele>
        <time>2022-08-02T08:13:56Z</time>
      </trkpt>
      <trkpt lat="45.8097" lon="1.73772">
        <ele>398.1</ele>
        <time>2022-08-02T08:13:58Z</time>
      </trkpt>
      <trkpt lat="45.8097" lon="1.73772">
        <ele>398</ele>
        <time>2022-08-02T08:14:00Z</time>
      </trkpt>
      <trkpt lat="45.80971" lon="1.73772">
        <ele>398</ele>
        <time>2022-08-02T08:14:02Z</time>
      </trkpt>
      <trkpt lat="45.8097" lon="1.73742">
        <ele>399.5</ele>
        <time>2022-08-02T08:30:56Z</time>
      </trkpt>
      <trkpt lat="45.80968" lon="1.73738">
        <ele>400.1</ele>
        <time>2022-08-02T08:30:58Z</time>
      </trkpt>
      <trkpt lat="45.80968" lon="1.73731">
        <ele>400.7</ele>
        <time>2022-08-02T08:31:00Z</time>
      </trkpt>
      <trkpt lat="45.80967" lon="1.73726">
        <ele>401.3</ele>
        <time>2022-08-02T08:31:02Z</time>
      </trkpt>
      <trkpt lat="45.80966" lon="1.73722">
        <ele>402</ele>
        <time>2022-08-02T08:31:04Z</time>
      </trkpt>
      <trkpt lat="45.80965" lon="1.73716">
        <ele>402.6</ele>
        <time>2022-08-02T08:31:06Z</time>
      </trkpt>
      <trkpt lat="45.80963" lon="1.73711">
        <ele>403.3</ele>
        <time>2022-08-02T08:31:08Z</time>
      </trkpt>
      <trkpt lat="45.80962" lon="1.73707">
        <ele>403.9</ele>
        <time>2022-08-02T08:31:10Z</time>
      </trkpt>
      <trkpt lat="45.8096" lon="1.73703">
        <ele>404.6</ele>
        <time>2022-08-02T08:31:12Z</time>
      </trkpt>
      <trkpt lat="45.80959" lon="1.73701">
        <ele>405</ele>
        <time>2022-08-02T08:31:14Z</time>
      </trkpt>
      <trkpt lat="45.80956" lon="1.73698">
        <ele>405.8</ele>
        <time>2022-08-02T08:31:16Z</time>
      </trkpt>
      <trkpt lat="45.80954" lon="1.73695">
        <ele>406.4</ele>
        <time>2022-08-02T08:31:18Z</time>
      </trkpt>
      <trkpt lat="45.80951" lon="1.73694">
        <ele>407</ele>
        <time>2022-08-02T08:31:20Z</time>
      </trkpt>
      <trkpt lat="45.80949" lon="1.73694">
        <ele>407.6</ele>
        <time>2022-08-02T08:31:22Z</time>
      </trkpt>
      <trkpt lat="45.80944" lon="1.73694">
        <ele>408.5</ele>
        <time>2022-08-02T08:31:26Z</time>
      </trkpt>
      <trkpt lat="45.80942" lon="1.73694">
        <ele>408.8</ele>
        <time>2022-08-02T08:31:28Z</time>
      </trkpt>
      <trkpt lat="45.8094" lon="1.73694">
        <ele>409.3</ele>
        <time>2022-08-02T08:31:30Z</time>
      </trkpt>
      <trkpt lat="45.80938" lon="1.73695">
        <ele>409.6</ele>
        <time>2022-08-02T08:31:32Z</time>
      </trkpt>
      <trkpt lat="45.80935" lon="1.73695">
        <ele>410.1</ele>
        <time>2022-08-02T08:31:34Z</time>
      </trkpt>
      <trkpt lat="45.80933" lon="1.73695">
        <ele>410.5</ele>
        <time>2022-08-02T08:31:36Z</time>
      </trkpt>
      <trkpt lat="45.8093" lon="1.73698">
        <ele>410.8</ele>
        <time>2022-08-02T08:31:38Z</time>
      </trkpt>
      <trkpt lat="45.80928" lon="1.737">
        <ele>411.1</ele>
        <time>2022-08-02T08:31:40Z</time>
      </trkpt>
      <trkpt lat="45.80925" lon="1.73702">
        <ele>411.4</ele>
        <time>2022-08-02T08:31:42Z</time>
      </trkpt>
      <trkpt lat="45.80924" lon="1.73704">
        <ele>411.5</ele>
        <time>2022-08-02T08:31:44Z</time>
      </trkpt>
      <trkpt lat="45.80924" lon="1.73704">
        <ele>411.5</ele>
        <time>2022-08-02T08:31:46Z</time>
      </trkpt>
      <trkpt lat="45.80924" lon="1.73706">
        <ele>411.2</ele>
        <time>2022-08-02T08:31:50Z</time>
      </trkpt>
      <trkpt lat="45.80924" lon="1.73706">
        <ele>411.2</ele>
        <time>2022-08-02T08:31:52Z</time>
      </trkpt>
      <trkpt lat="45.80925" lon="1.73706">
        <ele>411.1</ele>
        <time>2022-08-02T08:31:54Z</time>
      </trkpt>
      <trkpt lat="45.80925" lon="1.73707">
        <ele>411.1</ele>
        <time>2022-08-02T08:31:56Z</time>
      </trkpt>
      <trkpt lat="45.80925" lon="1.73707">
        <ele>411.1</ele>
        <time>2022-08-02T08:31:58Z</time>
      </trkpt>
      <trkpt lat="45.80923" lon="1.7371">
        <ele>411.1</ele>
        <time>2022-08-02T08:32:00Z</time>
      </trkpt>
      <trkpt lat="45.80923" lon="1.73713">
        <ele>411</ele>
        <time>2022-08-02T08:32:02Z</time>
      </trkpt>
      <trkpt lat="45.80922" lon="1.73716">
        <ele>410.9</ele>
        <time>2022-08-02T08:32:04Z</time>
      </trkpt>
      <trkpt lat="45.80922" lon="1.73721">
        <ele>410.5</ele>
        <time>2022-08-02T08:32:06Z</time>
      </trkpt>
      <trkpt lat="45.80921" lon="1.73725">
        <ele>410.2</ele>
        <time>2022-08-02T08:32:08Z</time>
      </trkpt>
      <trkpt lat="45.80921" lon="1.73729">
        <ele>409.9</ele>
        <time>2022-08-02T08:32:10Z</time>
      </trkpt>
      <trkpt lat="45.80921" lon="1.73734">
        <ele>409.4</ele>
        <time>2022-08-02T08:32:12Z</time>
      </trkpt>
      <trkpt lat="45.80922" lon="1.7374">
        <ele>408.8</ele>
        <time>2022-08-02T08:32:14Z</time>
      </trkpt>
      <trkpt lat="45.80922" lon="1.73745">
        <ele>408.4</ele>
        <time>2022-08-02T08:32:16Z</time>
      </trkpt>
      <trkpt lat="45.80921" lon="1.73751">
        <ele>408.1</ele>
        <time>2022-08-02T08:32:18Z</time>
      </trkpt>
      <trkpt lat="45.80921" lon="1.73756">
        <ele>407.8</ele>
        <time>2022-08-02T08:32:20Z</time>
      </trkpt>
      <trkpt lat="45.80922" lon="1.73763">
        <ele>407.3</ele>
        <time>2022-08-02T08:32:22Z</time>
      </trkpt>
      <trkpt lat="45.80921" lon="1.73769">
        <ele>407.1</ele>
        <time>2022-08-02T08:32:24Z</time>
      </trkpt>
      <trkpt lat="45.8092" lon="1.73775">
        <ele>407</ele>
        <time>2022-08-02T08:32:26Z</time>
      </trkpt>
      <trkpt lat="45.80918" lon="1.73781">
        <ele>406.9</ele>
        <time>2022-08-02T08:32:28Z</time>
      </trkpt>
      <trkpt lat="45.80916" lon="1.73786">
        <ele>406.9</ele>
        <time>2022-08-02T08:32:30Z</time>
      </trkpt>
      <trkpt lat="45.80914" lon="1.73791">
        <ele>407</ele>
        <time>2022-08-02T08:32:32Z</time>
      </trkpt>
      <trkpt lat="45.80911" lon="1.73795">
        <ele>407.3</ele>
        <time>2022-08-02T08:32:34Z</time>
      </trkpt>
      <trkpt lat="45.80908" lon="1.73799">
        <ele>407.7</ele>
        <time>2022-08-02T08:32:36Z</time>
      </trkpt>
      <trkpt lat="45.80905" lon="1.73802">
        <ele>408</ele>
        <time>2022-08-02T08:32:38Z</time>
      </trkpt>
      <trkpt lat="45.80903" lon="1.73806">
        <ele>408.2</ele>
        <time>2022-08-02T08:32:40Z</time>
      </trkpt>
      <trkpt lat="45.80899" lon="1.7381">
        <ele>408.5</ele>
        <time>2022-08-02T08:32:42Z</time>
      </trkpt>
      <trkpt lat="45.80897" lon="1.73815">
        <ele>408.6</ele>
        <time>2022-08-02T08:32:44Z</time>
      </trkpt>
      <trkpt lat="45.80893" lon="1.73819">
        <ele>408.9</ele>
        <time>2022-08-02T08:32:46Z</time>
      </trkpt>
      <trkpt lat="45.8089" lon="1.73824">
        <ele>409.1</ele>
        <time>2022-08-02T08:32:48Z</time>
      </trkpt>
      <trkpt lat="45.80887" lon="1.73829">
        <ele>409.2</ele>
        <time>2022-08-02T08:32:50Z</time>
      </trkpt>
      <trkpt lat="45.80847" lon="1.73854">
        <ele>412.6</ele>
        <time>2022-08-02T08:33:06Z</time>
      </trkpt>
      <trkpt lat="45.80841" lon="1.73857">
        <ele>413.4</ele>
        <time>2022-08-02T08:33:08Z</time>
      </trkpt>
      <trkpt lat="45.80833" lon="1.73859">
        <ele>414.3</ele>
        <time>2022-08-02T08:33:10Z</time>
      </trkpt>
      <trkpt lat="45.80826" lon="1.73861">
        <ele>414.6</ele>
        <time>2022-08-02T08:33:12Z</time>
      </trkpt>
      <trkpt lat="45.8082" lon="1.73863">
        <ele>414.9</ele>
        <time>2022-08-02T08:33:14Z</time>
      </trkpt>
      <trkpt lat="45.80815" lon="1.73857">
        <ele>416</ele>
        <time>2022-08-02T08:33:16Z</time>
      </trkpt>
      <trkpt lat="45.8081" lon="1.73847">
        <ele>417.6</ele>
        <time>2022-08-02T08:33:18Z</time>
      </trkpt>
      <trkpt lat="45.80801" lon="1.73845">
        <ele>418.3</ele>
        <time>2022-08-02T08:33:20Z</time>
      </trkpt>
      <trkpt lat="45.80794" lon="1.73846">
        <ele>418.7</ele>
        <time>2022-08-02T08:33:22Z</time>
      </trkpt>
      <trkpt lat="45.80783" lon="1.73846">
        <ele>419.4</ele>
        <time>2022-08-02T08:33:24Z</time>
      </trkpt>
      <trkpt lat="45.80773" lon="1.73848">
        <ele>419.9</ele>
        <time>2022-08-02T08:33:26Z</time>
      </trkpt>
      <trkpt lat="45.80762" lon="1.73851">
        <ele>420.5</ele>
        <time>2022-08-02T08:33:28Z</time>
      </trkpt>
      <trkpt lat="45.80752" lon="1.73853">
        <ele>421.1</ele>
        <time>2022-08-02T08:33:30Z</time>
      </trkpt>
      <trkpt lat="45.80744" lon="1.73855">
        <ele>421.2</ele>
        <time>2022-08-02T08:33:32Z</time>
      </trkpt>
      <trkpt lat="45.80737" lon="1.73855">
        <ele>421.2</ele>
        <time>2022-08-02T08:33:34Z</time>
      </trkpt>
      <trkpt lat="45.80733" lon="1.73854">
        <ele>421.2</ele>
        <time>2022-08-02T08:33:36Z</time>
      </trkpt>
      <trkpt lat="45.80728" lon="1.73855">
        <ele>421.2</ele>
        <time>2022-08-02T08:33:38Z</time>
      </trkpt>
      <trkpt lat="45.80724" lon="1.73856">
        <ele>421.2</ele>
        <time>2022-08-02T08:33:40Z</time>
      </trkpt>
      <trkpt lat="45.8072" lon="1.73857">
        <ele>421.2</ele>
        <time>2022-08-02T08:33:42Z</time>
      </trkpt>
      <trkpt lat="45.80716" lon="1.73857">
        <ele>421.1</ele>
        <time>2022-08-02T08:33:44Z</time>
      </trkpt>
      <trkpt lat="45.80712" lon="1.73857">
        <ele>421.1</ele>
        <time>2022-08-02T08:33:46Z</time>
      </trkpt>
      <trkpt lat="45.80709" lon="1.73857">
        <ele>421.2</ele>
        <time>2022-08-02T08:33:48Z</time>
      </trkpt>
      <trkpt lat="45.80706" lon="1.73858">
        <ele>421.1</ele>
        <time>2022-08-02T08:33:50Z</time>
      </trkpt>
      <trkpt lat="45.80702" lon="1.73858">
        <ele>421.1</ele>
        <time>2022-08-02T08:33:52Z</time>
      </trkpt>
      <trkpt lat="45.80698" lon="1.73858">
        <ele>421.1</ele>
        <time>2022-08-02T08:33:54Z</time>
      </trkpt>
      <trkpt lat="45.80695" lon="1.73859">
        <ele>421.1</ele>
        <time>2022-08-02T08:33:56Z</time>
      </trkpt>
      <trkpt lat="45.80691" lon="1.73859">
        <ele>421.1</ele>
        <time>2022-08-02T08:33:58Z</time>
      </trkpt>
      <trkpt lat="45.80687" lon="1.73859">
        <ele>421.1</ele>
        <time>2022-08-02T08:34:00Z</time>
      </trkpt>
      <trkpt lat="45.80683" lon="1.73858">
        <ele>421.1</ele>
        <time>2022-08-02T08:34:02Z</time>
      </trkpt>
      <trkpt lat="45.8068" lon="1.73858">
        <ele>421.1</ele>
        <time>2022-08-02T08:34:04Z</time>
      </trkpt>
      <trkpt lat="45.80678" lon="1.73857">
        <ele>421.1</ele>
        <time>2022-08-02T08:34:06Z</time>
      </trkpt>
      <trkpt lat="45.80675" lon="1.73857">
        <ele>421.2</ele>
        <time>2022-08-02T08:34:08Z</time>
      </trkpt>
      <trkpt lat="45.80672" lon="1.73857">
        <ele>421.2</ele>
        <time>2022-08-02T08:34:10Z</time>
      </trkpt>
      <trkpt lat="45.80668" lon="1.73857">
        <ele>421.2</ele>
        <time>2022-08-02T08:34:12Z</time>
      </trkpt>
      <trkpt lat="45.80665" lon="1.73856">
        <ele>421.2</ele>
        <time>2022-08-02T08:34:14Z</time>
      </trkpt>
      <trkpt lat="45.80662" lon="1.73856">
        <ele>421.2</ele>
        <time>2022-08-02T08:34:16Z</time>
      </trkpt>
      <trkpt lat="45.80658" lon="1.73856">
        <ele>421.2</ele>
        <time>2022-08-02T08:34:18Z</time>
      </trkpt>
      <trkpt lat="45.80655" lon="1.73855">
        <ele>421.2</ele>
        <time>2022-08-02T08:34:20Z</time>
      </trkpt>
      <trkpt lat="45.80652" lon="1.73855">
        <ele>421.2</ele>
        <time>2022-08-02T08:34:22Z</time>
      </trkpt>
      <trkpt lat="45.80649" lon="1.73854">
        <ele>421.3</ele>
        <time>2022-08-02T08:34:24Z</time>
      </trkpt>
      <trkpt lat="45.80646" lon="1.73854">
        <ele>421.3</ele>
        <time>2022-08-02T08:34:26Z</time>
      </trkpt>
      <trkpt lat="45.80643" lon="1.73854">
        <ele>421.3</ele>
        <time>2022-08-02T08:34:28Z</time>
      </trkpt>
      <trkpt lat="45.80639" lon="1.73853">
        <ele>421.3</ele>
        <time>2022-08-02T08:34:30Z</time>
      </trkpt>
      <trkpt lat="45.80636" lon="1.73854">
        <ele>421.3</ele>
        <time>2022-08-02T08:34:32Z</time>
      </trkpt>
      <trkpt lat="45.80633" lon="1.73853">
        <ele>421.3</ele>
        <time>2022-08-02T08:34:34Z</time>
      </trkpt>
      <trkpt lat="45.8063" lon="1.73853">
        <ele>421.3</ele>
        <time>2022-08-02T08:34:36Z</time>
      </trkpt>
      <trkpt lat="45.80627" lon="1.73852">
        <ele>421.3</ele>
        <time>2022-08-02T08:34:38Z</time>
      </trkpt>
      <trkpt lat="45.80623" lon="1.73852">
        <ele>421.3</ele>
        <time>2022-08-02T08:34:40Z</time>
      </trkpt>
      <trkpt lat="45.8062" lon="1.73852">
        <ele>421.3</ele>
        <time>2022-08-02T08:34:42Z</time>
      </trkpt>
      <trkpt lat="45.80617" lon="1.73852">
        <ele>421.3</ele>
        <time>2022-08-02T08:34:44Z</time>
      </trkpt>
      <trkpt lat="45.80614" lon="1.73852">
        <ele>421.3</ele>
        <time>2022-08-02T08:34:46Z</time>
      </trkpt>
      <trkpt lat="45.80611" lon="1.73851">
        <ele>421.4</ele>
        <time>2022-08-02T08:34:48Z</time>
      </trkpt>
      <trkpt lat="45.80609" lon="1.73851">
        <ele>421.3</ele>
        <time>2022-08-02T08:34:50Z</time>
      </trkpt>
      <trkpt lat="45.80606" lon="1.73851">
        <ele>421.4</ele>
        <time>2022-08-02T08:34:52Z</time>
      </trkpt>
      <trkpt lat="45.80603" lon="1.73851">
        <ele>421.4</ele>
        <time>2022-08-02T08:34:54Z</time>
      </trkpt>
      <trkpt lat="45.806" lon="1.7385">
        <ele>421.4</ele>
        <time>2022-08-02T08:34:56Z</time>
      </trkpt>
      <trkpt lat="45.80597" lon="1.7385">
        <ele>421.4</ele>
        <time>2022-08-02T08:34:58Z</time>
      </trkpt>
      <trkpt lat="45.80594" lon="1.73851">
        <ele>421.4</ele>
        <time>2022-08-02T08:35:00Z</time>
      </trkpt>
      <trkpt lat="45.80591" lon="1.73851">
        <ele>421.4</ele>
        <time>2022-08-02T08:35:02Z</time>
      </trkpt>
      <trkpt lat="45.80588" lon="1.7385">
        <ele>421.4</ele>
        <time>2022-08-02T08:35:04Z</time>
      </trkpt>
      <trkpt lat="45.80585" lon="1.7385">
        <ele>421.4</ele>
        <time>2022-08-02T08:35:06Z</time>
      </trkpt>
      <trkpt lat="45.80582" lon="1.7385">
        <ele>421.6</ele>
        <time>2022-08-02T08:35:08Z</time>
      </trkpt>
      <trkpt lat="45.80578" lon="1.73849">
        <ele>422.1</ele>
        <time>2022-08-02T08:35:10Z</time>
      </trkpt>
      <trkpt lat="45.80575" lon="1.73849">
        <ele>422.6</ele>
        <time>2022-08-02T08:35:12Z</time>
      </trkpt>
      <trkpt lat="45.80572" lon="1.73848">
        <ele>423</ele>
        <time>2022-08-02T08:35:14Z</time>
      </trkpt>
      <trkpt lat="45.80569" lon="1.73848">
        <ele>423.4</ele>
        <time>2022-08-02T08:35:16Z</time>
      </trkpt>
      <trkpt lat="45.80566" lon="1.73848">
        <ele>423.9</ele>
        <time>2022-08-02T08:35:18Z</time>
      </trkpt>
      <trkpt lat="45.80563" lon="1.73848">
        <ele>424.3</ele>
        <time>2022-08-02T08:35:20Z</time>
      </trkpt>
      <trkpt lat="45.8056" lon="1.73848">
        <ele>424.7</ele>
        <time>2022-08-02T08:35:22Z</time>
      </trkpt>
      <trkpt lat="45.80557" lon="1.73848">
        <ele>425.1</ele>
        <time>2022-08-02T08:35:24Z</time>
      </trkpt>
      <trkpt lat="45.80554" lon="1.73848">
        <ele>425.6</ele>
        <time>2022-08-02T08:35:26Z</time>
      </trkpt>
      <trkpt lat="45.80551" lon="1.73848">
        <ele>425.9</ele>
        <time>2022-08-02T08:35:28Z</time>
      </trkpt>
      <trkpt lat="45.80548" lon="1.73849">
        <ele>426.3</ele>
        <time>2022-08-02T08:35:30Z</time>
      </trkpt>
      <trkpt lat="45.80545" lon="1.73849">
        <ele>426.6</ele>
        <time>2022-08-02T08:35:32Z</time>
      </trkpt>
      <trkpt lat="45.80543" lon="1.73849">
        <ele>427</ele>
        <time>2022-08-02T08:35:34Z</time>
      </trkpt>
      <trkpt lat="45.80539" lon="1.7385">
        <ele>427.4</ele>
        <time>2022-08-02T08:35:36Z</time>
      </trkpt>
      <trkpt lat="45.80536" lon="1.73851">
        <ele>427.8</ele>
        <time>2022-08-02T08:35:38Z</time>
      </trkpt>
      <trkpt lat="45.80533" lon="1.73852">
        <ele>428.1</ele>
        <time>2022-08-02T08:35:40Z</time>
      </trkpt>
      <trkpt lat="45.8053" lon="1.73854">
        <ele>428.5</ele>
        <time>2022-08-02T08:35:42Z</time>
      </trkpt>
      <trkpt lat="45.80527" lon="1.73855">
        <ele>428.8</ele>
        <time>2022-08-02T08:35:44Z</time>
      </trkpt>
      <trkpt lat="45.80525" lon="1.73856">
        <ele>429.1</ele>
        <time>2022-08-02T08:35:46Z</time>
      </trkpt>
      <trkpt lat="45.80522" lon="1.73857">
        <ele>429.4</ele>
        <time>2022-08-02T08:35:48Z</time>
      </trkpt>
      <trkpt lat="45.8052" lon="1.73858">
        <ele>429.6</ele>
        <time>2022-08-02T08:35:50Z</time>
      </trkpt>
      <trkpt lat="45.80517" lon="1.73859">
        <ele>429.8</ele>
        <time>2022-08-02T08:35:52Z</time>
      </trkpt>
      <trkpt lat="45.80515" lon="1.73861">
        <ele>430</ele>
        <time>2022-08-02T08:35:54Z</time>
      </trkpt>
      <trkpt lat="45.80512" lon="1.73862">
        <ele>430.3</ele>
        <time>2022-08-02T08:35:56Z</time>
      </trkpt>
      <trkpt lat="45.8051" lon="1.73863">
        <ele>430.5</ele>
        <time>2022-08-02T08:35:58Z</time>
      </trkpt>
      <trkpt lat="45.80508" lon="1.73864">
        <ele>430.8</ele>
        <time>2022-08-02T08:36:00Z</time>
      </trkpt>
      <trkpt lat="45.80505" lon="1.73866">
        <ele>430.9</ele>
        <time>2022-08-02T08:36:02Z</time>
      </trkpt>
      <trkpt lat="45.80503" lon="1.73868">
        <ele>431.1</ele>
        <time>2022-08-02T08:36:04Z</time>
      </trkpt>
      <trkpt lat="45.80501" lon="1.73869">
        <ele>431.3</ele>
        <time>2022-08-02T08:36:06Z</time>
      </trkpt>
      <trkpt lat="45.80498" lon="1.7387">
        <ele>431.7</ele>
        <time>2022-08-02T08:36:08Z</time>
      </trkpt>
      <trkpt lat="45.80495" lon="1.73872">
        <ele>431.9</ele>
        <time>2022-08-02T08:36:10Z</time>
      </trkpt>
      <trkpt lat="45.80493" lon="1.73873">
        <ele>432.2</ele>
        <time>2022-08-02T08:36:12Z</time>
      </trkpt>
      <trkpt lat="45.8049" lon="1.73874">
        <ele>432.5</ele>
        <time>2022-08-02T08:36:14Z</time>
      </trkpt>
      <trkpt lat="45.80488" lon="1.73876">
        <ele>432.7</ele>
        <time>2022-08-02T08:36:16Z</time>
      </trkpt>
      <trkpt lat="45.80485" lon="1.73877">
        <ele>433</ele>
        <time>2022-08-02T08:36:18Z</time>
      </trkpt>
      <trkpt lat="45.80483" lon="1.73879">
        <ele>433.1</ele>
        <time>2022-08-02T08:36:20Z</time>
      </trkpt>
      <trkpt lat="45.8048" lon="1.73881">
        <ele>433.4</ele>
        <time>2022-08-02T08:36:22Z</time>
      </trkpt>
      <trkpt lat="45.80477" lon="1.73882">
        <ele>433.8</ele>
        <time>2022-08-02T08:36:24Z</time>
      </trkpt>
      <trkpt lat="45.80475" lon="1.73884">
        <ele>433.8</ele>
        <time>2022-08-02T08:36:26Z</time>
      </trkpt>
      <trkpt lat="45.80473" lon="1.73886">
        <ele>434</ele>
        <time>2022-08-02T08:36:28Z</time>
      </trkpt>
      <trkpt lat="45.8047" lon="1.73887">
        <ele>434.2</ele>
        <time>2022-08-02T08:36:30Z</time>
      </trkpt>
      <trkpt lat="45.80467" lon="1.73889">
        <ele>434.4</ele>
        <time>2022-08-02T08:36:32Z</time>
      </trkpt>
      <trkpt lat="45.80465" lon="1.73891">
        <ele>434.6</ele>
        <time>2022-08-02T08:36:34Z</time>
      </trkpt>
      <trkpt lat="45.80461" lon="1.73893">
        <ele>434.9</ele>
        <time>2022-08-02T08:36:36Z</time>
      </trkpt>
      <trkpt lat="45.80458" lon="1.73895">
        <ele>435.1</ele>
        <time>2022-08-02T08:36:38Z</time>
      </trkpt>
      <trkpt lat="45.80455" lon="1.73897">
        <ele>435.4</ele>
        <time>2022-08-02T08:36:40Z</time>
      </trkpt>
      <trkpt lat="45.80451" lon="1.73898">
        <ele>435.7</ele>
        <time>2022-08-02T08:36:42Z</time>
      </trkpt>
      <trkpt lat="45.80448" lon="1.739">
        <ele>436</ele>
        <time>2022-08-02T08:36:44Z</time>
      </trkpt>
      <trkpt lat="45.80444" lon="1.73901">
        <ele>436.3</ele>
        <time>2022-08-02T08:36:46Z</time>
      </trkpt>
      <trkpt lat="45.80441" lon="1.73903">
        <ele>436.5</ele>
        <time>2022-08-02T08:36:48Z</time>
      </trkpt>
      <trkpt lat="45.80438" lon="1.73904">
        <ele>436.8</ele>
        <time>2022-08-02T08:36:50Z</time>
      </trkpt>
      <trkpt lat="45.80435" lon="1.73906">
        <ele>437</ele>
        <time>2022-08-02T08:36:52Z</time>
      </trkpt>
      <trkpt lat="45.80431" lon="1.73908">
        <ele>437.2</ele>
        <time>2022-08-02T08:36:54Z</time>
      </trkpt>
      <trkpt lat="45.80428" lon="1.7391">
        <ele>437.4</ele>
        <time>2022-08-02T08:36:56Z</time>
      </trkpt>
      <trkpt lat="45.80425" lon="1.73912">
        <ele>437.6</ele>
        <time>2022-08-02T08:36:58Z</time>
      </trkpt>
      <trkpt lat="45.80422" lon="1.73914">
        <ele>437.6</ele>
        <time>2022-08-02T08:37:00Z</time>
      </trkpt>
      <trkpt lat="45.80418" lon="1.73917">
        <ele>437.8</ele>
        <time>2022-08-02T08:37:02Z</time>
      </trkpt>
      <trkpt lat="45.80415" lon="1.73921">
        <ele>438</ele>
        <time>2022-08-02T08:37:04Z</time>
      </trkpt>
      <trkpt lat="45.80412" lon="1.73925">
        <ele>438.1</ele>
        <time>2022-08-02T08:37:06Z</time>
      </trkpt>
      <trkpt lat="45.80409" lon="1.73929">
        <ele>438.2</ele>
        <time>2022-08-02T08:37:08Z</time>
      </trkpt>
      <trkpt lat="45.80406" lon="1.73932">
        <ele>438.2</ele>
        <time>2022-08-02T08:37:10Z</time>
      </trkpt>
      <trkpt lat="45.80404" lon="1.73937">
        <ele>438.2</ele>
        <time>2022-08-02T08:37:12Z</time>
      </trkpt>
      <trkpt lat="45.80402" lon="1.73942">
        <ele>438.1</ele>
        <time>2022-08-02T08:37:14Z</time>
      </trkpt>
      <trkpt lat="45.804" lon="1.73946">
        <ele>438.2</ele>
        <time>2022-08-02T08:37:16Z</time>
      </trkpt>
      <trkpt lat="45.80398" lon="1.7395">
        <ele>438.1</ele>
        <time>2022-08-02T08:37:18Z</time>
      </trkpt>
      <trkpt lat="45.80396" lon="1.73955">
        <ele>438</ele>
        <time>2022-08-02T08:37:20Z</time>
      </trkpt>
      <trkpt lat="45.80395" lon="1.73961">
        <ele>437.8</ele>
        <time>2022-08-02T08:37:22Z</time>
      </trkpt>
      <trkpt lat="45.80393" lon="1.73966">
        <ele>437.7</ele>
        <time>2022-08-02T08:37:24Z</time>
      </trkpt>
      <trkpt lat="45.80392" lon="1.7397">
        <ele>437.6</ele>
        <time>2022-08-02T08:37:26Z</time>
      </trkpt>
      <trkpt lat="45.80391" lon="1.73975">
        <ele>437.4</ele>
        <time>2022-08-02T08:37:28Z</time>
      </trkpt>
      <trkpt lat="45.80391" lon="1.73984">
        <ele>437</ele>
        <time>2022-08-02T08:37:30Z</time>
      </trkpt>
      <trkpt lat="45.8039" lon="1.73995">
        <ele>436.5</ele>
        <time>2022-08-02T08:37:32Z</time>
      </trkpt>
      <trkpt lat="45.80389" lon="1.74009">
        <ele>436.1</ele>
        <time>2022-08-02T08:37:34Z</time>
      </trkpt>
      <trkpt lat="45.8039" lon="1.74024">
        <ele>435.6</ele>
        <time>2022-08-02T08:37:36Z</time>
      </trkpt>
      <trkpt lat="45.80392" lon="1.7404">
        <ele>435.1</ele>
        <time>2022-08-02T08:37:38Z</time>
      </trkpt>
      <trkpt lat="45.80395" lon="1.74056">
        <ele>434.7</ele>
        <time>2022-08-02T08:37:40Z</time>
      </trkpt>
      <trkpt lat="45.80398" lon="1.74073">
        <ele>434.2</ele>
        <time>2022-08-02T08:37:42Z</time>
      </trkpt>
      <trkpt lat="45.80402" lon="1.74089">
        <ele>434</ele>
        <time>2022-08-02T08:37:44Z</time>
      </trkpt>
      <trkpt lat="45.80405" lon="1.74106">
        <ele>434.2</ele>
        <time>2022-08-02T08:37:46Z</time>
      </trkpt>
      <trkpt lat="45.80412" lon="1.74119">
        <ele>434.4</ele>
        <time>2022-08-02T08:37:48Z</time>
      </trkpt>
      <trkpt lat="45.80419" lon="1.74131">
        <ele>434.6</ele>
        <time>2022-08-02T08:37:50Z</time>
      </trkpt>
      <trkpt lat="45.80425" lon="1.7414">
        <ele>435</ele>
        <time>2022-08-02T08:37:52Z</time>
      </trkpt>
      <trkpt lat="45.80431" lon="1.74148">
        <ele>435.4</ele>
        <time>2022-08-02T08:37:54Z</time>
      </trkpt>
      <trkpt lat="45.80436" lon="1.74155">
        <ele>435.8</ele>
        <time>2022-08-02T08:37:56Z</time>
      </trkpt>
      <trkpt lat="45.8044" lon="1.74161">
        <ele>436.2</ele>
        <time>2022-08-02T08:37:58Z</time>
      </trkpt>
      <trkpt lat="45.80444" lon="1.74166">
        <ele>436.6</ele>
        <time>2022-08-02T08:38:00Z</time>
      </trkpt>
      <trkpt lat="45.80448" lon="1.74172">
        <ele>437.2</ele>
        <time>2022-08-02T08:38:02Z</time>
      </trkpt>
      <trkpt lat="45.80452" lon="1.74177">
        <ele>437.7</ele>
        <time>2022-08-02T08:38:04Z</time>
      </trkpt>
      <trkpt lat="45.80455" lon="1.74182">
        <ele>438.1</ele>
        <time>2022-08-02T08:38:06Z</time>
      </trkpt>
      <trkpt lat="45.80458" lon="1.74187">
        <ele>438.6</ele>
        <time>2022-08-02T08:38:08Z</time>
      </trkpt>
      <trkpt lat="45.80462" lon="1.74192">
        <ele>439.1</ele>
        <time>2022-08-02T08:38:10Z</time>
      </trkpt>
      <trkpt lat="45.80465" lon="1.74197">
        <ele>439.5</ele>
        <time>2022-08-02T08:38:12Z</time>
      </trkpt>
      <trkpt lat="45.80467" lon="1.74202">
        <ele>439.9</ele>
        <time>2022-08-02T08:38:14Z</time>
      </trkpt>
      <trkpt lat="45.80469" lon="1.74206">
        <ele>440.2</ele>
        <time>2022-08-02T08:38:16Z</time>
      </trkpt>
      <trkpt lat="45.8047" lon="1.74212">
        <ele>440.6</ele>
        <time>2022-08-02T08:38:18Z</time>
      </trkpt>
      <trkpt lat="45.80472" lon="1.74217">
        <ele>440.9</ele>
        <time>2022-08-02T08:38:20Z</time>
      </trkpt>
      <trkpt lat="45.80472" lon="1.74223">
        <ele>441.2</ele>
        <time>2022-08-02T08:38:22Z</time>
      </trkpt>
      <trkpt lat="45.80472" lon="1.74228">
        <ele>441.5</ele>
        <time>2022-08-02T08:38:24Z</time>
      </trkpt>
      <trkpt lat="45.80471" lon="1.74234">
        <ele>441.8</ele>
        <time>2022-08-02T08:38:26Z</time>
      </trkpt>
      <trkpt lat="45.8047" lon="1.74239">
        <ele>442</ele>
        <time>2022-08-02T08:38:28Z</time>
      </trkpt>
      <trkpt lat="45.80469" lon="1.74245">
        <ele>442.2</ele>
        <time>2022-08-02T08:38:30Z</time>
      </trkpt>
      <trkpt lat="45.80468" lon="1.7425">
        <ele>442.4</ele>
        <time>2022-08-02T08:38:32Z</time>
      </trkpt>
      <trkpt lat="45.80466" lon="1.74254">
        <ele>442.6</ele>
        <time>2022-08-02T08:38:34Z</time>
      </trkpt>
      <trkpt lat="45.80465" lon="1.74259">
        <ele>442.8</ele>
        <time>2022-08-02T08:38:36Z</time>
      </trkpt>
      <trkpt lat="45.80464" lon="1.74264">
        <ele>443.1</ele>
        <time>2022-08-02T08:38:38Z</time>
      </trkpt>
      <trkpt lat="45.80463" lon="1.74269">
        <ele>443.3</ele>
        <time>2022-08-02T08:38:40Z</time>
      </trkpt>
      <trkpt lat="45.80463" lon="1.74273">
        <ele>443.6</ele>
        <time>2022-08-02T08:38:42Z</time>
      </trkpt>
      <trkpt lat="45.80462" lon="1.74277">
        <ele>443.8</ele>
        <time>2022-08-02T08:38:44Z</time>
      </trkpt>
      <trkpt lat="45.80462" lon="1.74282">
        <ele>444.1</ele>
        <time>2022-08-02T08:38:46Z</time>
      </trkpt>
      <trkpt lat="45.80461" lon="1.74287">
        <ele>444.3</ele>
        <time>2022-08-02T08:38:48Z</time>
      </trkpt>
      <trkpt lat="45.8046" lon="1.74292">
        <ele>444.6</ele>
        <time>2022-08-02T08:38:50Z</time>
      </trkpt>
      <trkpt lat="45.8046" lon="1.74297">
        <ele>444.9</ele>
        <time>2022-08-02T08:38:52Z</time>
      </trkpt>
      <trkpt lat="45.8046" lon="1.74302">
        <ele>445.2</ele>
        <time>2022-08-02T08:38:54Z</time>
      </trkpt>
      <trkpt lat="45.8046" lon="1.74307">
        <ele>445.5</ele>
        <time>2022-08-02T08:38:56Z</time>
      </trkpt>
      <trkpt lat="45.8046" lon="1.74312">
        <ele>445.8</ele>
        <time>2022-08-02T08:38:58Z</time>
      </trkpt>
      <trkpt lat="45.80461" lon="1.74317">
        <ele>446.1</ele>
        <time>2022-08-02T08:39:00Z</time>
      </trkpt>
      <trkpt lat="45.80461" lon="1.74322">
        <ele>446.5</ele>
        <time>2022-08-02T08:39:02Z</time>
      </trkpt>
      <trkpt lat="45.80462" lon="1.74327">
        <ele>446.8</ele>
        <time>2022-08-02T08:39:04Z</time>
      </trkpt>
      <trkpt lat="45.80463" lon="1.74331">
        <ele>447.1</ele>
        <time>2022-08-02T08:39:06Z</time>
      </trkpt>
      <trkpt lat="45.80464" lon="1.74336">
        <ele>447.5</ele>
        <time>2022-08-02T08:39:08Z</time>
      </trkpt>
      <trkpt lat="45.80464" lon="1.74341">
        <ele>447.8</ele>
        <time>2022-08-02T08:39:10Z</time>
      </trkpt>
      <trkpt lat="45.80465" lon="1.74346">
        <ele>448.2</ele>
        <time>2022-08-02T08:39:12Z</time>
      </trkpt>
      <trkpt lat="45.80466" lon="1.7435">
        <ele>448.6</ele>
        <time>2022-08-02T08:39:14Z</time>
      </trkpt>
      <trkpt lat="45.80466" lon="1.74355">
        <ele>448.9</ele>
        <time>2022-08-02T08:39:16Z</time>
      </trkpt>
      <trkpt lat="45.80468" lon="1.7436">
        <ele>449.3</ele>
        <time>2022-08-02T08:39:18Z</time>
      </trkpt>
      <trkpt lat="45.80469" lon="1.74364">
        <ele>449.7</ele>
        <time>2022-08-02T08:39:20Z</time>
      </trkpt>
      <trkpt lat="45.80469" lon="1.74369">
        <ele>450.1</ele>
        <time>2022-08-02T08:39:22Z</time>
      </trkpt>
      <trkpt lat="45.8047" lon="1.74374">
        <ele>450.5</ele>
        <time>2022-08-02T08:39:24Z</time>
      </trkpt>
      <trkpt lat="45.80471" lon="1.74379">
        <ele>450.9</ele>
        <time>2022-08-02T08:39:26Z</time>
      </trkpt>
      <trkpt lat="45.80472" lon="1.74383">
        <ele>451.2</ele>
        <time>2022-08-02T08:39:28Z</time>
      </trkpt>
      <trkpt lat="45.80473" lon="1.74388">
        <ele>451.6</ele>
        <time>2022-08-02T08:39:30Z</time>
      </trkpt>
      <trkpt lat="45.80473" lon="1.74393">
        <ele>452</ele>
        <time>2022-08-02T08:39:32Z</time>
      </trkpt>
      <trkpt lat="45.80474" lon="1.74397">
        <ele>452.4</ele>
        <time>2022-08-02T08:39:34Z</time>
      </trkpt>
      <trkpt lat="45.80474" lon="1.74402">
        <ele>452.7</ele>
        <time>2022-08-02T08:39:36Z</time>
      </trkpt>
      <trkpt lat="45.80475" lon="1.74407">
        <ele>453.1</ele>
        <time>2022-08-02T08:39:38Z</time>
      </trkpt>
      <trkpt lat="45.80475" lon="1.74412">
        <ele>453.5</ele>
        <time>2022-08-02T08:39:40Z</time>
      </trkpt>
      <trkpt lat="45.80476" lon="1.74417">
        <ele>453.9</ele>
        <time>2022-08-02T08:39:42Z</time>
      </trkpt>
      <trkpt lat="45.80476" lon="1.74422">
        <ele>453.9</ele>
        <time>2022-08-02T08:39:44Z</time>
      </trkpt>
      <trkpt lat="45.80476" lon="1.74426">
        <ele>453.9</ele>
        <time>2022-08-02T08:39:46Z</time>
      </trkpt>
      <trkpt lat="45.80475" lon="1.74432">
        <ele>453.9</ele>
        <time>2022-08-02T08:39:48Z</time>
      </trkpt>
      <trkpt lat="45.80475" lon="1.74437">
        <ele>454</ele>
        <time>2022-08-02T08:39:50Z</time>
      </trkpt>
      <trkpt lat="45.80474" lon="1.74442">
        <ele>454</ele>
        <time>2022-08-02T08:39:52Z</time>
      </trkpt>
      <trkpt lat="45.80473" lon="1.74447">
        <ele>453.9</ele>
        <time>2022-08-02T08:39:54Z</time>
      </trkpt>
      <trkpt lat="45.80472" lon="1.74452">
        <ele>453.9</ele>
        <time>2022-08-02T08:39:56Z</time>
      </trkpt>
      <trkpt lat="45.8047" lon="1.74457">
        <ele>453.9</ele>
        <time>2022-08-02T08:39:58Z</time>
      </trkpt>
      <trkpt lat="45.80467" lon="1.74463">
        <ele>453.9</ele>
        <time>2022-08-02T08:40:00Z</time>
      </trkpt>
      <trkpt lat="45.80464" lon="1.74469">
        <ele>453.8</ele>
        <time>2022-08-02T08:40:02Z</time>
      </trkpt>
      <trkpt lat="45.80461" lon="1.74474">
        <ele>453.8</ele>
        <time>2022-08-02T08:40:04Z</time>
      </trkpt>
      <trkpt lat="45.80458" lon="1.74478">
        <ele>453.7</ele>
        <time>2022-08-02T08:40:06Z</time>
      </trkpt>
      <trkpt lat="45.80454" lon="1.74483">
        <ele>453.7</ele>
        <time>2022-08-02T08:40:08Z</time>
      </trkpt>
      <trkpt lat="45.8045" lon="1.74487">
        <ele>453.6</ele>
        <time>2022-08-02T08:40:10Z</time>
      </trkpt>
      <trkpt lat="45.80445" lon="1.74491">
        <ele>453.5</ele>
        <time>2022-08-02T08:40:12Z</time>
      </trkpt>
      <trkpt lat="45.8044" lon="1.74495">
        <ele>453.5</ele>
        <time>2022-08-02T08:40:14Z</time>
      </trkpt>
      <trkpt lat="45.80435" lon="1.74498">
        <ele>453.4</ele>
        <time>2022-08-02T08:40:16Z</time>
      </trkpt>
      <trkpt lat="45.80429" lon="1.745">
        <ele>453.3</ele>
        <time>2022-08-02T08:40:18Z</time>
      </trkpt>
      <trkpt lat="45.80424" lon="1.74502">
        <ele>453.1</ele>
        <time>2022-08-02T08:40:20Z</time>
      </trkpt>
      <trkpt lat="45.80419" lon="1.74505">
        <ele>452.8</ele>
        <time>2022-08-02T08:40:22Z</time>
      </trkpt>
      <trkpt lat="45.80413" lon="1.74508">
        <ele>452.7</ele>
        <time>2022-08-02T08:40:24Z</time>
      </trkpt>
      <trkpt lat="45.80406" lon="1.74511">
        <ele>452.7</ele>
        <time>2022-08-02T08:40:26Z</time>
      </trkpt>
      <trkpt lat="45.80401" lon="1.74514">
        <ele>452.7</ele>
        <time>2022-08-02T08:40:28Z</time>
      </trkpt>
      <trkpt lat="45.80395" lon="1.74517">
        <ele>452.7</ele>
        <time>2022-08-02T08:40:30Z</time>
      </trkpt>
      <trkpt lat="45.80388" lon="1.74519">
        <ele>452.8</ele>
        <time>2022-08-02T08:40:32Z</time>
      </trkpt>
      <trkpt lat="45.80381" lon="1.74521">
        <ele>453</ele>
        <time>2022-08-02T08:40:34Z</time>
      </trkpt>
      <trkpt lat="45.80375" lon="1.74523">
        <ele>453.1</ele>
        <time>2022-08-02T08:40:36Z</time>
      </trkpt>
      <trkpt lat="45.80367" lon="1.74524">
        <ele>453.3</ele>
        <time>2022-08-02T08:40:38Z</time>
      </trkpt>
      <trkpt lat="45.80361" lon="1.74525">
        <ele>453.5</ele>
        <time>2022-08-02T08:40:40Z</time>
      </trkpt>
      <trkpt lat="45.80354" lon="1.74526">
        <ele>453.7</ele>
        <time>2022-08-02T08:40:42Z</time>
      </trkpt>
      <trkpt lat="45.80348" lon="1.74526">
        <ele>453.9</ele>
        <time>2022-08-02T08:40:44Z</time>
      </trkpt>
      <trkpt lat="45.80343" lon="1.74528">
        <ele>454</ele>
        <time>2022-08-02T08:40:46Z</time>
      </trkpt>
      <trkpt lat="45.80336" lon="1.74528">
        <ele>454.2</ele>
        <time>2022-08-02T08:40:48Z</time>
      </trkpt>
      <trkpt lat="45.80331" lon="1.74528">
        <ele>454.5</ele>
        <time>2022-08-02T08:40:50Z</time>
      </trkpt>
      <trkpt lat="45.80325" lon="1.7453">
        <ele>454.7</ele>
        <time>2022-08-02T08:40:52Z</time>
      </trkpt>
      <trkpt lat="45.80319" lon="1.7453">
        <ele>454.9</ele>
        <time>2022-08-02T08:40:54Z</time>
      </trkpt>
      <trkpt lat="45.80314" lon="1.74532">
        <ele>455.2</ele>
        <time>2022-08-02T08:40:56Z</time>
      </trkpt>
      <trkpt lat="45.80309" lon="1.74535">
        <ele>455.4</ele>
        <time>2022-08-02T08:40:58Z</time>
      </trkpt>
      <trkpt lat="45.80304" lon="1.74537">
        <ele>455.6</ele>
        <time>2022-08-02T08:41:00Z</time>
      </trkpt>
      <trkpt lat="45.803" lon="1.74539">
        <ele>455.9</ele>
        <time>2022-08-02T08:41:02Z</time>
      </trkpt>
      <trkpt lat="45.80297" lon="1.74542">
        <ele>456.1</ele>
        <time>2022-08-02T08:41:04Z</time>
      </trkpt>
      <trkpt lat="45.80293" lon="1.74546">
        <ele>456.3</ele>
        <time>2022-08-02T08:41:06Z</time>
      </trkpt>
      <trkpt lat="45.80289" lon="1.74549">
        <ele>456.5</ele>
        <time>2022-08-02T08:41:08Z</time>
      </trkpt>
      <trkpt lat="45.80286" lon="1.74551">
        <ele>456.7</ele>
        <time>2022-08-02T08:41:10Z</time>
      </trkpt>
      <trkpt lat="45.80282" lon="1.74554">
        <ele>456.9</ele>
        <time>2022-08-02T08:41:12Z</time>
      </trkpt>
      <trkpt lat="45.80279" lon="1.74556">
        <ele>457.1</ele>
        <time>2022-08-02T08:41:14Z</time>
      </trkpt>
      <trkpt lat="45.80277" lon="1.74559">
        <ele>457.2</ele>
        <time>2022-08-02T08:41:16Z</time>
      </trkpt>
      <trkpt lat="45.80273" lon="1.74562">
        <ele>457.4</ele>
        <time>2022-08-02T08:41:18Z</time>
      </trkpt>
      <trkpt lat="45.8027" lon="1.74564">
        <ele>457.6</ele>
        <time>2022-08-02T08:41:20Z</time>
      </trkpt>
      <trkpt lat="45.80267" lon="1.74566">
        <ele>457.8</ele>
        <time>2022-08-02T08:41:22Z</time>
      </trkpt>
      <trkpt lat="45.80264" lon="1.74568">
        <ele>458</ele>
        <time>2022-08-02T08:41:24Z</time>
      </trkpt>
      <trkpt lat="45.80261" lon="1.7457">
        <ele>458.2</ele>
        <time>2022-08-02T08:41:26Z</time>
      </trkpt>
      <trkpt lat="45.80258" lon="1.74572">
        <ele>458.4</ele>
        <time>2022-08-02T08:41:28Z</time>
      </trkpt>
      <trkpt lat="45.80255" lon="1.74574">
        <ele>458.6</ele>
        <time>2022-08-02T08:41:30Z</time>
      </trkpt>
      <trkpt lat="45.80251" lon="1.74575">
        <ele>458.7</ele>
        <time>2022-08-02T08:41:32Z</time>
      </trkpt>
      <trkpt lat="45.8025" lon="1.74577">
        <ele>458.8</ele>
        <time>2022-08-02T08:41:34Z</time>
      </trkpt>
      <trkpt lat="45.80249" lon="1.74577">
        <ele>458.9</ele>
        <time>2022-08-02T08:41:36Z</time>
      </trkpt>
      <trkpt lat="45.80249" lon="1.74577">
        <ele>458.8</ele>
        <time>2022-08-02T08:41:38Z</time>
      </trkpt>
      <trkpt lat="45.8025" lon="1.74577">
        <ele>458.8</ele>
        <time>2022-08-02T08:41:42Z</time>
      </trkpt>
      <trkpt lat="45.80246" lon="1.74597">
        <ele>458.7</ele>
        <time>2022-08-02T08:42:18Z</time>
      </trkpt>
      <trkpt lat="45.80246" lon="1.74609">
        <ele>458.4</ele>
        <time>2022-08-02T08:42:20Z</time>
      </trkpt>
      <trkpt lat="45.80248" lon="1.74622">
        <ele>458.1</ele>
        <time>2022-08-02T08:42:22Z</time>
      </trkpt>
      <trkpt lat="45.80254" lon="1.74637">
        <ele>457.5</ele>
        <time>2022-08-02T08:42:24Z</time>
      </trkpt>
      <trkpt lat="45.80263" lon="1.74652">
        <ele>456.8</ele>
        <time>2022-08-02T08:42:26Z</time>
      </trkpt>
      <trkpt lat="45.80274" lon="1.74665">
        <ele>455.9</ele>
        <time>2022-08-02T08:42:28Z</time>
      </trkpt>
      <trkpt lat="45.80286" lon="1.7468">
        <ele>455.6</ele>
        <time>2022-08-02T08:42:30Z</time>
      </trkpt>
      <trkpt lat="45.80297" lon="1.74696">
        <ele>455.4</ele>
        <time>2022-08-02T08:42:32Z</time>
      </trkpt>
      <trkpt lat="45.80307" lon="1.74713">
        <ele>455.2</ele>
        <time>2022-08-02T08:42:34Z</time>
      </trkpt>
      <trkpt lat="45.80318" lon="1.74727">
        <ele>454.7</ele>
        <time>2022-08-02T08:42:36Z</time>
      </trkpt>
      <trkpt lat="45.80329" lon="1.74746">
        <ele>454.2</ele>
        <time>2022-08-02T08:42:38Z</time>
      </trkpt>
      <trkpt lat="45.80337" lon="1.74766">
        <ele>452.7</ele>
        <time>2022-08-02T08:42:40Z</time>
      </trkpt>
      <trkpt lat="45.80344" lon="1.74791">
        <ele>450.4</ele>
        <time>2022-08-02T08:42:42Z</time>
      </trkpt>
      <trkpt lat="45.80348" lon="1.74814">
        <ele>448.9</ele>
        <time>2022-08-02T08:42:44Z</time>
      </trkpt>
      <trkpt lat="45.80347" lon="1.74837">
        <ele>448.1</ele>
        <time>2022-08-02T08:42:46Z</time>
      </trkpt>
      <trkpt lat="45.80336" lon="1.74852">
        <ele>449.4</ele>
        <time>2022-08-02T08:42:48Z</time>
      </trkpt>
      <trkpt lat="45.80321" lon="1.74857">
        <ele>451.1</ele>
        <time>2022-08-02T08:42:50Z</time>
      </trkpt>
      <trkpt lat="45.80306" lon="1.74861">
        <ele>452.4</ele>
        <time>2022-08-02T08:42:52Z</time>
      </trkpt>
      <trkpt lat="45.80294" lon="1.74871">
        <ele>453.4</ele>
        <time>2022-08-02T08:42:54Z</time>
      </trkpt>
      <trkpt lat="45.80289" lon="1.7489">
        <ele>453.4</ele>
        <time>2022-08-02T08:42:56Z</time>
      </trkpt>
      <trkpt lat="45.80293" lon="1.74908">
        <ele>452.5</ele>
        <time>2022-08-02T08:42:58Z</time>
      </trkpt>
      <trkpt lat="45.80299" lon="1.74926">
        <ele>451.3</ele>
        <time>2022-08-02T08:43:00Z</time>
      </trkpt>
      <trkpt lat="45.80304" lon="1.74943">
        <ele>450.1</ele>
        <time>2022-08-02T08:43:02Z</time>
      </trkpt>
      <trkpt lat="45.80308" lon="1.74962">
        <ele>448.9</ele>
        <time>2022-08-02T08:43:04Z</time>
      </trkpt>
      <trkpt lat="45.80311" lon="1.7498">
        <ele>447.9</ele>
        <time>2022-08-02T08:43:06Z</time>
      </trkpt>
      <trkpt lat="45.80311" lon="1.75">
        <ele>447.2</ele>
        <time>2022-08-02T08:43:08Z</time>
      </trkpt>
      <trkpt lat="45.80304" lon="1.75021">
        <ele>446.9</ele>
        <time>2022-08-02T08:43:10Z</time>
      </trkpt>
      <trkpt lat="45.80296" lon="1.7504">
        <ele>446.9</ele>
        <time>2022-08-02T08:43:12Z</time>
      </trkpt>
      <trkpt lat="45.80288" lon="1.75061">
        <ele>447</ele>
        <time>2022-08-02T08:43:14Z</time>
      </trkpt>
      <trkpt lat="45.80281" lon="1.75084">
        <ele>446.7</ele>
        <time>2022-08-02T08:43:16Z</time>
      </trkpt>
      <trkpt lat="45.80273" lon="1.75106">
        <ele>447.7</ele>
        <time>2022-08-02T08:43:18Z</time>
      </trkpt>
      <trkpt lat="45.80262" lon="1.75126">
        <ele>449.3</ele>
        <time>2022-08-02T08:43:20Z</time>
      </trkpt>
      <trkpt lat="45.80256" lon="1.75147">
        <ele>450.1</ele>
        <time>2022-08-02T08:43:22Z</time>
      </trkpt>
      <trkpt lat="45.80261" lon="1.75169">
        <ele>448.7</ele>
        <time>2022-08-02T08:43:24Z</time>
      </trkpt>
      <trkpt lat="45.80274" lon="1.75185">
        <ele>445.9</ele>
        <time>2022-08-02T08:43:26Z</time>
      </trkpt>
      <trkpt lat="45.80289" lon="1.752">
        <ele>442.5</ele>
        <time>2022-08-02T08:43:28Z</time>
      </trkpt>
      <trkpt lat="45.80304" lon="1.75216">
        <ele>439</ele>
        <time>2022-08-02T08:43:30Z</time>
      </trkpt>
      <trkpt lat="45.80318" lon="1.75232">
        <ele>435.8</ele>
        <time>2022-08-02T08:43:32Z</time>
      </trkpt>
      <trkpt lat="45.80325" lon="1.75251">
        <ele>433.7</ele>
        <time>2022-08-02T08:43:34Z</time>
      </trkpt>
      <trkpt lat="45.80328" lon="1.75275">
        <ele>432.6</ele>
        <time>2022-08-02T08:43:36Z</time>
      </trkpt>
      <trkpt lat="45.80323" lon="1.753">
        <ele>433.1</ele>
        <time>2022-08-02T08:43:38Z</time>
      </trkpt>
      <trkpt lat="45.80316" lon="1.75326">
        <ele>434.1</ele>
        <time>2022-08-02T08:43:40Z</time>
      </trkpt>
      <trkpt lat="45.80311" lon="1.75351">
        <ele>436</ele>
        <time>2022-08-02T08:43:42Z</time>
      </trkpt>
      <trkpt lat="45.80313" lon="1.75376">
        <ele>437</ele>
        <time>2022-08-02T08:43:44Z</time>
      </trkpt>
      <trkpt lat="45.80322" lon="1.75398">
        <ele>436.6</ele>
        <time>2022-08-02T08:43:46Z</time>
      </trkpt>
      <trkpt lat="45.80337" lon="1.75412">
        <ele>435.1</ele>
        <time>2022-08-02T08:43:48Z</time>
      </trkpt>
      <trkpt lat="45.80351" lon="1.75424">
        <ele>433.3</ele>
        <time>2022-08-02T08:43:50Z</time>
      </trkpt>
      <trkpt lat="45.80365" lon="1.75438">
        <ele>431.1</ele>
        <time>2022-08-02T08:43:52Z</time>
      </trkpt>
      <trkpt lat="45.80379" lon="1.75453">
        <ele>428.9</ele>
        <time>2022-08-02T08:43:54Z</time>
      </trkpt>
      <trkpt lat="45.80394" lon="1.75467">
        <ele>426.3</ele>
        <time>2022-08-02T08:43:56Z</time>
      </trkpt>
      <trkpt lat="45.8041" lon="1.75482">
        <ele>423.3</ele>
        <time>2022-08-02T08:43:58Z</time>
      </trkpt>
      <trkpt lat="45.80426" lon="1.75498">
        <ele>421.7</ele>
        <time>2022-08-02T08:44:00Z</time>
      </trkpt>
      <trkpt lat="45.80442" lon="1.75514">
        <ele>421</ele>
        <time>2022-08-02T08:44:02Z</time>
      </trkpt>
      <trkpt lat="45.80458" lon="1.7553">
        <ele>419.8</ele>
        <time>2022-08-02T08:44:04Z</time>
      </trkpt>
      <trkpt lat="45.80476" lon="1.75548">
        <ele>417.7</ele>
        <time>2022-08-02T08:44:06Z</time>
      </trkpt>
      <trkpt lat="45.80495" lon="1.75566">
        <ele>414.9</ele>
        <time>2022-08-02T08:44:08Z</time>
      </trkpt>
      <trkpt lat="45.80514" lon="1.75585">
        <ele>412</ele>
        <time>2022-08-02T08:44:10Z</time>
      </trkpt>
      <trkpt lat="45.80533" lon="1.75604">
        <ele>410.5</ele>
        <time>2022-08-02T08:44:12Z</time>
      </trkpt>
      <trkpt lat="45.80552" lon="1.75621">
        <ele>409.6</ele>
        <time>2022-08-02T08:44:14Z</time>
      </trkpt>
      <trkpt lat="45.80569" lon="1.75639">
        <ele>409.3</ele>
        <time>2022-08-02T08:44:16Z</time>
      </trkpt>
      <trkpt lat="45.80585" lon="1.75654">
        <ele>409.5</ele>
        <time>2022-08-02T08:44:18Z</time>
      </trkpt>
      <trkpt lat="45.80599" lon="1.75668">
        <ele>410.4</ele>
        <time>2022-08-02T08:44:20Z</time>
      </trkpt>
      <trkpt lat="45.80612" lon="1.75681">
        <ele>411.4</ele>
        <time>2022-08-02T08:44:22Z</time>
      </trkpt>
      <trkpt lat="45.80623" lon="1.75693">
        <ele>412.5</ele>
        <time>2022-08-02T08:44:24Z</time>
      </trkpt>
      <trkpt lat="45.80634" lon="1.75704">
        <ele>413.6</ele>
        <time>2022-08-02T08:44:26Z</time>
      </trkpt>
      <trkpt lat="45.80643" lon="1.75713">
        <ele>414.7</ele>
        <time>2022-08-02T08:44:28Z</time>
      </trkpt>
      <trkpt lat="45.80652" lon="1.75721">
        <ele>415.8</ele>
        <time>2022-08-02T08:44:30Z</time>
      </trkpt>
      <trkpt lat="45.8066" lon="1.75729">
        <ele>416.8</ele>
        <time>2022-08-02T08:44:32Z</time>
      </trkpt>
      <trkpt lat="45.80667" lon="1.75737">
        <ele>417.9</ele>
        <time>2022-08-02T08:44:34Z</time>
      </trkpt>
      <trkpt lat="45.80675" lon="1.75744">
        <ele>418.3</ele>
        <time>2022-08-02T08:44:36Z</time>
      </trkpt>
      <trkpt lat="45.80681" lon="1.7575">
        <ele>418.7</ele>
        <time>2022-08-02T08:44:38Z</time>
      </trkpt>
      <trkpt lat="45.80687" lon="1.75758">
        <ele>418.9</ele>
        <time>2022-08-02T08:44:40Z</time>
      </trkpt>
      <trkpt lat="45.80693" lon="1.75765">
        <ele>419</ele>
        <time>2022-08-02T08:44:42Z</time>
      </trkpt>
      <trkpt lat="45.80698" lon="1.75773">
        <ele>419.1</ele>
        <time>2022-08-02T08:44:44Z</time>
      </trkpt>
      <trkpt lat="45.80702" lon="1.75781">
        <ele>419.2</ele>
        <time>2022-08-02T08:44:46Z</time>
      </trkpt>
      <trkpt lat="45.80706" lon="1.75788">
        <ele>419.2</ele>
        <time>2022-08-02T08:44:48Z</time>
      </trkpt>
      <trkpt lat="45.8071" lon="1.75795">
        <ele>419.3</ele>
        <time>2022-08-02T08:44:50Z</time>
      </trkpt>
      <trkpt lat="45.80713" lon="1.75803">
        <ele>419.3</ele>
        <time>2022-08-02T08:44:52Z</time>
      </trkpt>
      <trkpt lat="45.80718" lon="1.75812">
        <ele>419.2</ele>
        <time>2022-08-02T08:44:54Z</time>
      </trkpt>
      <trkpt lat="45.80721" lon="1.75823">
        <ele>419.2</ele>
        <time>2022-08-02T08:44:56Z</time>
      </trkpt>
      <trkpt lat="45.80727" lon="1.75834">
        <ele>418.9</ele>
        <time>2022-08-02T08:44:58Z</time>
      </trkpt>
      <trkpt lat="45.80733" lon="1.75848">
        <ele>417.4</ele>
        <time>2022-08-02T08:45:00Z</time>
      </trkpt>
      <trkpt lat="45.80742" lon="1.75861">
        <ele>415.7</ele>
        <time>2022-08-02T08:45:02Z</time>
      </trkpt>
      <trkpt lat="45.80752" lon="1.75871">
        <ele>414.2</ele>
        <time>2022-08-02T08:45:04Z</time>
      </trkpt>
      <trkpt lat="45.80762" lon="1.75886">
        <ele>412.8</ele>
        <time>2022-08-02T08:45:06Z</time>
      </trkpt>
      <trkpt lat="45.80774" lon="1.759">
        <ele>411.2</ele>
        <time>2022-08-02T08:45:08Z</time>
      </trkpt>
      <trkpt lat="45.80784" lon="1.75916">
        <ele>409.4</ele>
        <time>2022-08-02T08:45:10Z</time>
      </trkpt>
      <trkpt lat="45.80794" lon="1.7593">
        <ele>407.8</ele>
        <time>2022-08-02T08:45:12Z</time>
      </trkpt>
      <trkpt lat="45.80804" lon="1.75947">
        <ele>406.1</ele>
        <time>2022-08-02T08:45:14Z</time>
      </trkpt>
      <trkpt lat="45.80815" lon="1.75965">
        <ele>404.3</ele>
        <time>2022-08-02T08:45:16Z</time>
      </trkpt>
      <trkpt lat="45.80826" lon="1.75985">
        <ele>402.4</ele>
        <time>2022-08-02T08:45:18Z</time>
      </trkpt>
      <trkpt lat="45.80838" lon="1.76003">
        <ele>401</ele>
        <time>2022-08-02T08:45:20Z</time>
      </trkpt>
      <trkpt lat="45.80848" lon="1.76023">
        <ele>401</ele>
        <time>2022-08-02T08:45:22Z</time>
      </trkpt>
      <trkpt lat="45.80859" lon="1.76041">
        <ele>401.3</ele>
        <time>2022-08-02T08:45:24Z</time>
      </trkpt>
      <trkpt lat="45.80868" lon="1.76058">
        <ele>401.7</ele>
        <time>2022-08-02T08:45:26Z</time>
      </trkpt>
      <trkpt lat="45.80878" lon="1.76074">
        <ele>402.4</ele>
        <time>2022-08-02T08:45:28Z</time>
      </trkpt>
      <trkpt lat="45.80887" lon="1.7609">
        <ele>403.2</ele>
        <time>2022-08-02T08:45:30Z</time>
      </trkpt>
      <trkpt lat="45.80894" lon="1.76104">
        <ele>404.1</ele>
        <time>2022-08-02T08:45:32Z</time>
      </trkpt>
      <trkpt lat="45.80901" lon="1.76115">
        <ele>404.9</ele>
        <time>2022-08-02T08:45:34Z</time>
      </trkpt>
      <trkpt lat="45.80907" lon="1.76124">
        <ele>405.5</ele>
        <time>2022-08-02T08:45:36Z</time>
      </trkpt>
      <trkpt lat="45.8091" lon="1.76133">
        <ele>406.1</ele>
        <time>2022-08-02T08:45:38Z</time>
      </trkpt>
      <trkpt lat="45.80914" lon="1.7614">
        <ele>406.6</ele>
        <time>2022-08-02T08:45:40Z</time>
      </trkpt>
      <trkpt lat="45.80916" lon="1.76147">
        <ele>407</ele>
        <time>2022-08-02T08:45:42Z</time>
      </trkpt>
      <trkpt lat="45.80919" lon="1.76155">
        <ele>407.5</ele>
        <time>2022-08-02T08:45:44Z</time>
      </trkpt>
      <trkpt lat="45.80921" lon="1.76161">
        <ele>407.8</ele>
        <time>2022-08-02T08:45:46Z</time>
      </trkpt>
      <trkpt lat="45.80923" lon="1.76169">
        <ele>408.2</ele>
        <time>2022-08-02T08:45:48Z</time>
      </trkpt>
      <trkpt lat="45.80926" lon="1.76175">
        <ele>408.4</ele>
        <time>2022-08-02T08:45:50Z</time>
      </trkpt>
      <trkpt lat="45.80929" lon="1.76181">
        <ele>408.7</ele>
        <time>2022-08-02T08:45:52Z</time>
      </trkpt>
      <trkpt lat="45.8093" lon="1.76188">
        <ele>408.9</ele>
        <time>2022-08-02T08:45:54Z</time>
      </trkpt>
      <trkpt lat="45.80932" lon="1.76195">
        <ele>409.2</ele>
        <time>2022-08-02T08:45:56Z</time>
      </trkpt>
      <trkpt lat="45.80934" lon="1.76203">
        <ele>409.4</ele>
        <time>2022-08-02T08:45:58Z</time>
      </trkpt>
      <trkpt lat="45.80936" lon="1.7621">
        <ele>409.7</ele>
        <time>2022-08-02T08:46:00Z</time>
      </trkpt>
      <trkpt lat="45.80939" lon="1.76218">
        <ele>409.9</ele>
        <time>2022-08-02T08:46:02Z</time>
      </trkpt>
      <trkpt lat="45.8094" lon="1.76225">
        <ele>410.2</ele>
        <time>2022-08-02T08:46:04Z</time>
      </trkpt>
      <trkpt lat="45.80942" lon="1.76233">
        <ele>410.4</ele>
        <time>2022-08-02T08:46:06Z</time>
      </trkpt>
      <trkpt lat="45.80944" lon="1.7624">
        <ele>410.7</ele>
        <time>2022-08-02T08:46:08Z</time>
      </trkpt>
      <trkpt lat="45.80946" lon="1.76246">
        <ele>410.9</ele>
        <time>2022-08-02T08:46:10Z</time>
      </trkpt>
      <trkpt lat="45.80948" lon="1.76253">
        <ele>411.2</ele>
        <time>2022-08-02T08:46:12Z</time>
      </trkpt>
      <trkpt lat="45.8095" lon="1.76259">
        <ele>411.4</ele>
        <time>2022-08-02T08:46:14Z</time>
      </trkpt>
      <trkpt lat="45.80952" lon="1.76265">
        <ele>411.7</ele>
        <time>2022-08-02T08:46:16Z</time>
      </trkpt>
      <trkpt lat="45.80954" lon="1.76271">
        <ele>412</ele>
        <time>2022-08-02T08:46:18Z</time>
      </trkpt>
      <trkpt lat="45.80956" lon="1.76276">
        <ele>412.3</ele>
        <time>2022-08-02T08:46:20Z</time>
      </trkpt>
      <trkpt lat="45.80957" lon="1.76281">
        <ele>412.5</ele>
        <time>2022-08-02T08:46:22Z</time>
      </trkpt>
      <trkpt lat="45.80959" lon="1.76286">
        <ele>412.7</ele>
        <time>2022-08-02T08:46:24Z</time>
      </trkpt>
      <trkpt lat="45.8096" lon="1.76291">
        <ele>412.9</ele>
        <time>2022-08-02T08:46:26Z</time>
      </trkpt>
      <trkpt lat="45.80962" lon="1.76295">
        <ele>413.2</ele>
        <time>2022-08-02T08:46:28Z</time>
      </trkpt>
      <trkpt lat="45.80963" lon="1.763">
        <ele>413.4</ele>
        <time>2022-08-02T08:46:30Z</time>
      </trkpt>
      <trkpt lat="45.80965" lon="1.76305">
        <ele>413.6</ele>
        <time>2022-08-02T08:46:32Z</time>
      </trkpt>
      <trkpt lat="45.80966" lon="1.76309">
        <ele>413.9</ele>
        <time>2022-08-02T08:46:34Z</time>
      </trkpt>
      <trkpt lat="45.80968" lon="1.76314">
        <ele>414.1</ele>
        <time>2022-08-02T08:46:36Z</time>
      </trkpt>
      <trkpt lat="45.8097" lon="1.76319">
        <ele>414.3</ele>
        <time>2022-08-02T08:46:38Z</time>
      </trkpt>
      <trkpt lat="45.80971" lon="1.76323">
        <ele>414.5</ele>
        <time>2022-08-02T08:46:40Z</time>
      </trkpt>
      <trkpt lat="45.80972" lon="1.76328">
        <ele>414.7</ele>
        <time>2022-08-02T08:46:42Z</time>
      </trkpt>
      <trkpt lat="45.80974" lon="1.76332">
        <ele>414.9</ele>
        <time>2022-08-02T08:46:44Z</time>
      </trkpt>
      <trkpt lat="45.80975" lon="1.76336">
        <ele>415.1</ele>
        <time>2022-08-02T08:46:46Z</time>
      </trkpt>
      <trkpt lat="45.80977" lon="1.7634">
        <ele>415.2</ele>
        <time>2022-08-02T08:46:48Z</time>
      </trkpt>
      <trkpt lat="45.80979" lon="1.76344">
        <ele>415.3</ele>
        <time>2022-08-02T08:46:50Z</time>
      </trkpt>
      <trkpt lat="45.80981" lon="1.76348">
        <ele>415.5</ele>
        <time>2022-08-02T08:46:52Z</time>
      </trkpt>
      <trkpt lat="45.80982" lon="1.76353">
        <ele>415.6</ele>
        <time>2022-08-02T08:46:54Z</time>
      </trkpt>
      <trkpt lat="45.80983" lon="1.76356">
        <ele>415.7</ele>
        <time>2022-08-02T08:46:56Z</time>
      </trkpt>
      <trkpt lat="45.80985" lon="1.7636">
        <ele>415.8</ele>
        <time>2022-08-02T08:46:58Z</time>
      </trkpt>
      <trkpt lat="45.80986" lon="1.76364">
        <ele>416</ele>
        <time>2022-08-02T08:47:00Z</time>
      </trkpt>
      <trkpt lat="45.80988" lon="1.76368">
        <ele>416.1</ele>
        <time>2022-08-02T08:47:02Z</time>
      </trkpt>
      <trkpt lat="45.80989" lon="1.76372">
        <ele>416.3</ele>
        <time>2022-08-02T08:47:04Z</time>
      </trkpt>
      <trkpt lat="45.8099" lon="1.76376">
        <ele>416.4</ele>
        <time>2022-08-02T08:47:06Z</time>
      </trkpt>
      <trkpt lat="45.80992" lon="1.76379">
        <ele>416.5</ele>
        <time>2022-08-02T08:47:08Z</time>
      </trkpt>
      <trkpt lat="45.80993" lon="1.76383">
        <ele>416.7</ele>
        <time>2022-08-02T08:47:10Z</time>
      </trkpt>
      <trkpt lat="45.80995" lon="1.76387">
        <ele>416.8</ele>
        <time>2022-08-02T08:47:12Z</time>
      </trkpt>
      <trkpt lat="45.80996" lon="1.76391">
        <ele>417</ele>
        <time>2022-08-02T08:47:14Z</time>
      </trkpt>
      <trkpt lat="45.80997" lon="1.76394">
        <ele>417.1</ele>
        <time>2022-08-02T08:47:16Z</time>
      </trkpt>
      <trkpt lat="45.80998" lon="1.76398">
        <ele>417.3</ele>
        <time>2022-08-02T08:47:18Z</time>
      </trkpt>
      <trkpt lat="45.80999" lon="1.76401">
        <ele>417.4</ele>
        <time>2022-08-02T08:47:20Z</time>
      </trkpt>
      <trkpt lat="45.81" lon="1.76405">
        <ele>417.6</ele>
        <time>2022-08-02T08:47:22Z</time>
      </trkpt>
      <trkpt lat="45.81002" lon="1.76409">
        <ele>417.8</ele>
        <time>2022-08-02T08:47:24Z</time>
      </trkpt>
      <trkpt lat="45.81003" lon="1.76412">
        <ele>417.9</ele>
        <time>2022-08-02T08:47:26Z</time>
      </trkpt>
      <trkpt lat="45.81004" lon="1.76416">
        <ele>418.1</ele>
        <time>2022-08-02T08:47:28Z</time>
      </trkpt>
      <trkpt lat="45.81006" lon="1.76419">
        <ele>418.3</ele>
        <time>2022-08-02T08:47:30Z</time>
      </trkpt>
      <trkpt lat="45.81007" lon="1.76422">
        <ele>418.4</ele>
        <time>2022-08-02T08:47:32Z</time>
      </trkpt>
      <trkpt lat="45.81008" lon="1.76426">
        <ele>418.6</ele>
        <time>2022-08-02T08:47:34Z</time>
      </trkpt>
      <trkpt lat="45.8101" lon="1.7643">
        <ele>418.8</ele>
        <time>2022-08-02T08:47:36Z</time>
      </trkpt>
      <trkpt lat="45.81011" lon="1.76433">
        <ele>419</ele>
        <time>2022-08-02T08:47:38Z</time>
      </trkpt>
      <trkpt lat="45.81013" lon="1.76437">
        <ele>419.1</ele>
        <time>2022-08-02T08:47:40Z</time>
      </trkpt>
      <trkpt lat="45.81015" lon="1.7644">
        <ele>419.3</ele>
        <time>2022-08-02T08:47:42Z</time>
      </trkpt>
      <trkpt lat="45.81017" lon="1.76443">
        <ele>419.4</ele>
        <time>2022-08-02T08:47:44Z</time>
      </trkpt>
      <trkpt lat="45.81018" lon="1.76448">
        <ele>419.6</ele>
        <time>2022-08-02T08:47:46Z</time>
      </trkpt>
      <trkpt lat="45.81019" lon="1.76451">
        <ele>419.7</ele>
        <time>2022-08-02T08:47:48Z</time>
      </trkpt>
      <trkpt lat="45.8102" lon="1.76455">
        <ele>419.9</ele>
        <time>2022-08-02T08:47:50Z</time>
      </trkpt>
      <trkpt lat="45.81022" lon="1.76458">
        <ele>420</ele>
        <time>2022-08-02T08:47:52Z</time>
      </trkpt>
      <trkpt lat="45.81023" lon="1.76462">
        <ele>420.2</ele>
        <time>2022-08-02T08:47:54Z</time>
      </trkpt>
      <trkpt lat="45.81024" lon="1.76465">
        <ele>420.3</ele>
        <time>2022-08-02T08:47:56Z</time>
      </trkpt>
      <trkpt lat="45.81025" lon="1.76469">
        <ele>420.4</ele>
        <time>2022-08-02T08:47:58Z</time>
      </trkpt>
      <trkpt lat="45.81025" lon="1.76471">
        <ele>420.5</ele>
        <time>2022-08-02T08:48:00Z</time>
      </trkpt>
      <trkpt lat="45.81026" lon="1.76474">
        <ele>420.6</ele>
        <time>2022-08-02T08:48:02Z</time>
      </trkpt>
      <trkpt lat="45.81028" lon="1.76476">
        <ele>420.6</ele>
        <time>2022-08-02T08:48:04Z</time>
      </trkpt>
      <trkpt lat="45.8103" lon="1.7648">
        <ele>420.8</ele>
        <time>2022-08-02T08:48:06Z</time>
      </trkpt>
      <trkpt lat="45.81033" lon="1.76483">
        <ele>421</ele>
        <time>2022-08-02T08:48:08Z</time>
      </trkpt>
      <trkpt lat="45.81036" lon="1.76487">
        <ele>421.1</ele>
        <time>2022-08-02T08:48:10Z</time>
      </trkpt>
      <trkpt lat="45.81038" lon="1.76492">
        <ele>421.2</ele>
        <time>2022-08-02T08:48:12Z</time>
      </trkpt>
      <trkpt lat="45.8104" lon="1.76497">
        <ele>421.4</ele>
        <time>2022-08-02T08:48:14Z</time>
      </trkpt>
      <trkpt lat="45.81042" lon="1.76502">
        <ele>421.6</ele>
        <time>2022-08-02T08:48:16Z</time>
      </trkpt>
      <trkpt lat="45.81044" lon="1.76507">
        <ele>421.7</ele>
        <time>2022-08-02T08:48:18Z</time>
      </trkpt>
      <trkpt lat="45.81046" lon="1.76513">
        <ele>421.9</ele>
        <time>2022-08-02T08:48:20Z</time>
      </trkpt>
      <trkpt lat="45.81047" lon="1.76519">
        <ele>422</ele>
        <time>2022-08-02T08:48:22Z</time>
      </trkpt>
      <trkpt lat="45.81049" lon="1.76524">
        <ele>422.2</ele>
        <time>2022-08-02T08:48:24Z</time>
      </trkpt>
      <trkpt lat="45.81051" lon="1.7653">
        <ele>422.4</ele>
        <time>2022-08-02T08:48:26Z</time>
      </trkpt>
      <trkpt lat="45.81053" lon="1.76535">
        <ele>422.6</ele>
        <time>2022-08-02T08:48:28Z</time>
      </trkpt>
      <trkpt lat="45.81055" lon="1.76541">
        <ele>422.8</ele>
        <time>2022-08-02T08:48:30Z</time>
      </trkpt>
      <trkpt lat="45.81056" lon="1.76547">
        <ele>423</ele>
        <time>2022-08-02T08:48:32Z</time>
      </trkpt>
      <trkpt lat="45.81057" lon="1.76552">
        <ele>423.2</ele>
        <time>2022-08-02T08:48:34Z</time>
      </trkpt>
      <trkpt lat="45.81059" lon="1.76558">
        <ele>423.4</ele>
        <time>2022-08-02T08:48:36Z</time>
      </trkpt>
      <trkpt lat="45.8106" lon="1.76563">
        <ele>423.6</ele>
        <time>2022-08-02T08:48:38Z</time>
      </trkpt>
      <trkpt lat="45.81059" lon="1.76568">
        <ele>423.7</ele>
        <time>2022-08-02T08:48:40Z</time>
      </trkpt>
      <trkpt lat="45.81057" lon="1.76568">
        <ele>423.6</ele>
        <time>2022-08-02T08:48:42Z</time>
      </trkpt>
      <trkpt lat="45.81054" lon="1.76569">
        <ele>423.6</ele>
        <time>2022-08-02T08:48:44Z</time>
      </trkpt>
      <trkpt lat="45.81052" lon="1.76567">
        <ele>423.4</ele>
        <time>2022-08-02T08:48:46Z</time>
      </trkpt>
      <trkpt lat="45.81049" lon="1.76564">
        <ele>423.3</ele>
        <time>2022-08-02T08:48:48Z</time>
      </trkpt>
      <trkpt lat="45.81046" lon="1.76562">
        <ele>423.1</ele>
        <time>2022-08-02T08:48:50Z</time>
      </trkpt>
      <trkpt lat="45.81061" lon="1.76552">
        <ele>423.3</ele>
        <time>2022-08-02T09:06:38Z</time>
      </trkpt>
      <trkpt lat="45.81061" lon="1.76552">
        <ele>423.3</ele>
        <time>2022-08-02T09:06:40Z</time>
      </trkpt>
      <trkpt lat="45.81042" lon="1.76569">
        <ele>423.1</ele>
        <time>2022-08-02T09:06:52Z</time>
      </trkpt>
      <trkpt lat="45.81044" lon="1.76566">
        <ele>423.2</ele>
        <time>2022-08-02T09:06:54Z</time>
      </trkpt>
      <trkpt lat="45.81046" lon="1.76564">
        <ele>423.2</ele>
        <time>2022-08-02T09:06:56Z</time>
      </trkpt>
      <trkpt lat="45.81045" lon="1.76565">
        <ele>423.2</ele>
        <time>2022-08-02T09:06:58Z</time>
      </trkpt>
      <trkpt lat="45.81048" lon="1.76561">
        <ele>423.1</ele>
        <time>2022-08-02T09:07:00Z</time>
      </trkpt>
      <trkpt lat="45.8105" lon="1.76568">
        <ele>423.4</ele>
        <time>2022-08-02T09:07:02Z</time>
      </trkpt>
      <trkpt lat="45.81053" lon="1.7657">
        <ele>423.6</ele>
        <time>2022-08-02T09:07:04Z</time>
      </trkpt>
      <trkpt lat="45.81057" lon="1.76573">
        <ele>423.7</ele>
        <time>2022-08-02T09:07:06Z</time>
      </trkpt>
      <trkpt lat="45.81059" lon="1.76575">
        <ele>423.9</ele>
        <time>2022-08-02T09:07:08Z</time>
      </trkpt>
      <trkpt lat="45.81062" lon="1.76573">
        <ele>423.9</ele>
        <time>2022-08-02T09:07:10Z</time>
      </trkpt>
      <trkpt lat="45.81063" lon="1.76572">
        <ele>423.9</ele>
        <time>2022-08-02T09:07:12Z</time>
      </trkpt>
      <trkpt lat="45.81063" lon="1.76572">
        <ele>423.9</ele>
        <time>2022-08-02T09:07:14Z</time>
      </trkpt>
      <trkpt lat="45.81064" lon="1.76572">
        <ele>423.9</ele>
        <time>2022-08-02T09:07:16Z</time>
      </trkpt>
      <trkpt lat="45.81064" lon="1.7657">
        <ele>423.9</ele>
        <time>2022-08-02T09:07:18Z</time>
      </trkpt>
      <trkpt lat="45.81064" lon="1.76571">
        <ele>423.9</ele>
        <time>2022-08-02T09:07:20Z</time>
      </trkpt>
      <trkpt lat="45.8106" lon="1.76551">
        <ele>423.2</ele>
        <time>2022-08-02T09:07:28Z</time>
      </trkpt>
      <trkpt lat="45.81057" lon="1.76542">
        <ele>422.9</ele>
        <time>2022-08-02T09:07:30Z</time>
      </trkpt>
      <trkpt lat="45.81054" lon="1.76533">
        <ele>422.6</ele>
        <time>2022-08-02T09:07:32Z</time>
      </trkpt>
      <trkpt lat="45.81051" lon="1.76523">
        <ele>422.2</ele>
        <time>2022-08-02T09:07:34Z</time>
      </trkpt>
      <trkpt lat="45.81048" lon="1.76513">
        <ele>421.9</ele>
        <time>2022-08-02T09:07:36Z</time>
      </trkpt>
      <trkpt lat="45.81044" lon="1.76503">
        <ele>421.6</ele>
        <time>2022-08-02T09:07:38Z</time>
      </trkpt>
      <trkpt lat="45.81041" lon="1.76494">
        <ele>421.3</ele>
        <time>2022-08-02T09:07:40Z</time>
      </trkpt>
      <trkpt lat="45.81038" lon="1.76485">
        <ele>421.1</ele>
        <time>2022-08-02T09:07:42Z</time>
      </trkpt>
      <trkpt lat="45.8104" lon="1.76476">
        <ele>420.9</ele>
        <time>2022-08-02T09:07:44Z</time>
      </trkpt>
      <trkpt lat="45.81044" lon="1.76471">
        <ele>420.8</ele>
        <time>2022-08-02T09:07:46Z</time>
      </trkpt>
      <trkpt lat="45.81047" lon="1.76469">
        <ele>420.9</ele>
        <time>2022-08-02T09:07:48Z</time>
      </trkpt>
      <trkpt lat="45.81049" lon="1.7647">
        <ele>420.9</ele>
        <time>2022-08-02T09:07:50Z</time>
      </trkpt>
      <trkpt lat="45.81048" lon="1.7647">
        <ele>420.9</ele>
        <time>2022-08-02T09:07:52Z</time>
      </trkpt>
      <trkpt lat="45.81048" lon="1.7647">
        <ele>420.9</ele>
        <time>2022-08-02T09:07:54Z</time>
      </trkpt>
      <trkpt lat="45.81048" lon="1.7647">
        <ele>420.9</ele>
        <time>2022-08-02T09:07:58Z</time>
      </trkpt>
      <trkpt lat="45.81058" lon="1.76462">
        <ele>421</ele>
        <time>2022-08-02T09:08:28Z</time>
      </trkpt>
      <trkpt lat="45.81057" lon="1.76457">
        <ele>420.8</ele>
        <time>2022-08-02T09:08:30Z</time>
      </trkpt>
      <trkpt lat="45.81053" lon="1.76456">
        <ele>420.7</ele>
        <time>2022-08-02T09:08:32Z</time>
      </trkpt>
      <trkpt lat="45.81047" lon="1.76459">
        <ele>420.7</ele>
        <time>2022-08-02T09:08:34Z</time>
      </trkpt>
      <trkpt lat="45.81042" lon="1.76463">
        <ele>420.6</ele>
        <time>2022-08-02T09:08:36Z</time>
      </trkpt>
      <trkpt lat="45.81036" lon="1.76468">
        <ele>420.6</ele>
        <time>2022-08-02T09:08:38Z</time>
      </trkpt>
      <trkpt lat="45.81031" lon="1.76474">
        <ele>420.7</ele>
        <time>2022-08-02T09:08:40Z</time>
      </trkpt>
      <trkpt lat="45.81025" lon="1.7648">
        <ele>420.7</ele>
        <time>2022-08-02T09:08:42Z</time>
      </trkpt>
      <trkpt lat="45.8102" lon="1.76487">
        <ele>420.8</ele>
        <time>2022-08-02T09:08:44Z</time>
      </trkpt>
      <trkpt lat="45.81015" lon="1.76494">
        <ele>421</ele>
        <time>2022-08-02T09:08:46Z</time>
      </trkpt>
      <trkpt lat="45.8101" lon="1.76501">
        <ele>421.1</ele>
        <time>2022-08-02T09:08:48Z</time>
      </trkpt>
      <trkpt lat="45.81007" lon="1.76509">
        <ele>421.2</ele>
        <time>2022-08-02T09:08:50Z</time>
      </trkpt>
      <trkpt lat="45.81004" lon="1.76517">
        <ele>421.3</ele>
        <time>2022-08-02T09:08:52Z</time>
      </trkpt>
      <trkpt lat="45.81001" lon="1.76525">
        <ele>421.3</ele>
        <time>2022-08-02T09:08:54Z</time>
      </trkpt>
      <trkpt lat="45.81" lon="1.76533">
        <ele>421.4</ele>
        <time>2022-08-02T09:08:56Z</time>
      </trkpt>
      <trkpt lat="45.80998" lon="1.76541">
        <ele>421.4</ele>
        <time>2022-08-02T09:08:58Z</time>
      </trkpt>
      <trkpt lat="45.80997" lon="1.76549">
        <ele>421.5</ele>
        <time>2022-08-02T09:09:00Z</time>
      </trkpt>
      <trkpt lat="45.80996" lon="1.76556">
        <ele>421.5</ele>
        <time>2022-08-02T09:09:02Z</time>
      </trkpt>
      <trkpt lat="45.80995" lon="1.76563">
        <ele>421.5</ele>
        <time>2022-08-02T09:09:04Z</time>
      </trkpt>
      <trkpt lat="45.80995" lon="1.7657">
        <ele>421.6</ele>
        <time>2022-08-02T09:09:06Z</time>
      </trkpt>
      <trkpt lat="45.80994" lon="1.76577">
        <ele>421.7</ele>
        <time>2022-08-02T09:09:08Z</time>
      </trkpt>
      <trkpt lat="45.80994" lon="1.76584">
        <ele>421.7</ele>
        <time>2022-08-02T09:09:10Z</time>
      </trkpt>
      <trkpt lat="45.80994" lon="1.7659">
        <ele>422</ele>
        <time>2022-08-02T09:09:12Z</time>
      </trkpt>
      <trkpt lat="45.80994" lon="1.76596">
        <ele>422.3</ele>
        <time>2022-08-02T09:09:14Z</time>
      </trkpt>
      <trkpt lat="45.80995" lon="1.766">
        <ele>422.6</ele>
        <time>2022-08-02T09:09:16Z</time>
      </trkpt>
      <trkpt lat="45.80994" lon="1.76604">
        <ele>422.8</ele>
        <time>2022-08-02T09:09:18Z</time>
      </trkpt>
      <trkpt lat="45.80996" lon="1.76613">
        <ele>423.3</ele>
        <time>2022-08-02T09:09:20Z</time>
      </trkpt>
      <trkpt lat="45.81002" lon="1.7662">
        <ele>423.8</ele>
        <time>2022-08-02T09:09:22Z</time>
      </trkpt>
      <trkpt lat="45.81008" lon="1.76622">
        <ele>424.1</ele>
        <time>2022-08-02T09:09:24Z</time>
      </trkpt>
      <trkpt lat="45.81013" lon="1.76624">
        <ele>424.3</ele>
        <time>2022-08-02T09:09:26Z</time>
      </trkpt>
      <trkpt lat="45.81018" lon="1.76625">
        <ele>424.5</ele>
        <time>2022-08-02T09:09:28Z</time>
      </trkpt>
      <trkpt lat="45.81022" lon="1.76628">
        <ele>424.8</ele>
        <time>2022-08-02T09:09:30Z</time>
      </trkpt>
      <trkpt lat="45.81026" lon="1.76631">
        <ele>425</ele>
        <time>2022-08-02T09:09:32Z</time>
      </trkpt>
      <trkpt lat="45.8103" lon="1.76632">
        <ele>425.2</ele>
        <time>2022-08-02T09:09:34Z</time>
      </trkpt>
      <trkpt lat="45.81034" lon="1.76636">
        <ele>425.5</ele>
        <time>2022-08-02T09:09:36Z</time>
      </trkpt>
      <trkpt lat="45.81038" lon="1.76638">
        <ele>425.7</ele>
        <time>2022-08-02T09:09:38Z</time>
      </trkpt>
      <trkpt lat="45.81041" lon="1.76642">
        <ele>425.9</ele>
        <time>2022-08-02T09:09:40Z</time>
      </trkpt>
      <trkpt lat="45.81044" lon="1.76645">
        <ele>426.1</ele>
        <time>2022-08-02T09:09:42Z</time>
      </trkpt>
      <trkpt lat="45.81047" lon="1.76648">
        <ele>426.4</ele>
        <time>2022-08-02T09:09:44Z</time>
      </trkpt>
      <trkpt lat="45.8105" lon="1.76652">
        <ele>426.6</ele>
        <time>2022-08-02T09:09:46Z</time>
      </trkpt>
      <trkpt lat="45.81053" lon="1.76656">
        <ele>426.8</ele>
        <time>2022-08-02T09:09:48Z</time>
      </trkpt>
      <trkpt lat="45.81057" lon="1.7666">
        <ele>427.1</ele>
        <time>2022-08-02T09:09:50Z</time>
      </trkpt>
      <trkpt lat="45.8106" lon="1.76663">
        <ele>427.3</ele>
        <time>2022-08-02T09:09:52Z</time>
      </trkpt>
      <trkpt lat="45.81062" lon="1.76668">
        <ele>427.6</ele>
        <time>2022-08-02T09:09:54Z</time>
      </trkpt>
      <trkpt lat="45.81065" lon="1.76672">
        <ele>427.9</ele>
        <time>2022-08-02T09:09:56Z</time>
      </trkpt>
      <trkpt lat="45.81068" lon="1.76677">
        <ele>428.2</ele>
        <time>2022-08-02T09:09:58Z</time>
      </trkpt>
      <trkpt lat="45.81071" lon="1.76682">
        <ele>428.5</ele>
        <time>2022-08-02T09:10:00Z</time>
      </trkpt>
      <trkpt lat="45.81074" lon="1.76688">
        <ele>428.8</ele>
        <time>2022-08-02T09:10:02Z</time>
      </trkpt>
      <trkpt lat="45.81076" lon="1.76693">
        <ele>429.1</ele>
        <time>2022-08-02T09:10:04Z</time>
      </trkpt>
      <trkpt lat="45.81079" lon="1.76698">
        <ele>429.4</ele>
        <time>2022-08-02T09:10:06Z</time>
      </trkpt>
      <trkpt lat="45.81082" lon="1.76703">
        <ele>429.7</ele>
        <time>2022-08-02T09:10:08Z</time>
      </trkpt>
      <trkpt lat="45.81084" lon="1.7671">
        <ele>430</ele>
        <time>2022-08-02T09:10:10Z</time>
      </trkpt>
      <trkpt lat="45.81087" lon="1.76716">
        <ele>430.2</ele>
        <time>2022-08-02T09:10:12Z</time>
      </trkpt>
      <trkpt lat="45.81089" lon="1.76721">
        <ele>430.3</ele>
        <time>2022-08-02T09:10:14Z</time>
      </trkpt>
      <trkpt lat="45.81092" lon="1.76727">
        <ele>430.4</ele>
        <time>2022-08-02T09:10:16Z</time>
      </trkpt>
      <trkpt lat="45.81095" lon="1.76733">
        <ele>430.6</ele>
        <time>2022-08-02T09:10:18Z</time>
      </trkpt>
      <trkpt lat="45.81098" lon="1.76739">
        <ele>430.7</ele>
        <time>2022-08-02T09:10:20Z</time>
      </trkpt>
      <trkpt lat="45.811" lon="1.76745">
        <ele>430.8</ele>
        <time>2022-08-02T09:10:22Z</time>
      </trkpt>
      <trkpt lat="45.81102" lon="1.76752">
        <ele>431</ele>
        <time>2022-08-02T09:10:24Z</time>
      </trkpt>
      <trkpt lat="45.81105" lon="1.76758">
        <ele>431.3</ele>
        <time>2022-08-02T09:10:26Z</time>
      </trkpt>
      <trkpt lat="45.81108" lon="1.76764">
        <ele>431.5</ele>
        <time>2022-08-02T09:10:28Z</time>
      </trkpt>
      <trkpt lat="45.81111" lon="1.7677">
        <ele>431.7</ele>
        <time>2022-08-02T09:10:30Z</time>
      </trkpt>
      <trkpt lat="45.81113" lon="1.76776">
        <ele>432</ele>
        <time>2022-08-02T09:10:32Z</time>
      </trkpt>
      <trkpt lat="45.81116" lon="1.76782">
        <ele>432.2</ele>
        <time>2022-08-02T09:10:34Z</time>
      </trkpt>
      <trkpt lat="45.81119" lon="1.76788">
        <ele>432.4</ele>
        <time>2022-08-02T09:10:36Z</time>
      </trkpt>
      <trkpt lat="45.81121" lon="1.76794">
        <ele>432.7</ele>
        <time>2022-08-02T09:10:38Z</time>
      </trkpt>
      <trkpt lat="45.81124" lon="1.768">
        <ele>432.9</ele>
        <time>2022-08-02T09:10:40Z</time>
      </trkpt>
      <trkpt lat="45.81126" lon="1.76806">
        <ele>433.1</ele>
        <time>2022-08-02T09:10:42Z</time>
      </trkpt>
      <trkpt lat="45.81129" lon="1.76812">
        <ele>433.3</ele>
        <time>2022-08-02T09:10:44Z</time>
      </trkpt>
      <trkpt lat="45.81132" lon="1.76818">
        <ele>433.5</ele>
        <time>2022-08-02T09:10:46Z</time>
      </trkpt>
      <trkpt lat="45.81134" lon="1.76824">
        <ele>433.7</ele>
        <time>2022-08-02T09:10:48Z</time>
      </trkpt>
      <trkpt lat="45.81137" lon="1.76831">
        <ele>434</ele>
        <time>2022-08-02T09:10:50Z</time>
      </trkpt>
      <trkpt lat="45.81139" lon="1.76837">
        <ele>434.2</ele>
        <time>2022-08-02T09:10:52Z</time>
      </trkpt>
      <trkpt lat="45.81143" lon="1.76843">
        <ele>434.3</ele>
        <time>2022-08-02T09:10:54Z</time>
      </trkpt>
      <trkpt lat="45.81145" lon="1.76849">
        <ele>434.5</ele>
        <time>2022-08-02T09:10:56Z</time>
      </trkpt>
      <trkpt lat="45.81147" lon="1.76856">
        <ele>434.8</ele>
        <time>2022-08-02T09:10:58Z</time>
      </trkpt>
      <trkpt lat="45.81151" lon="1.76862">
        <ele>434.8</ele>
        <time>2022-08-02T09:11:00Z</time>
      </trkpt>
      <trkpt lat="45.81154" lon="1.76868">
        <ele>435</ele>
        <time>2022-08-02T09:11:02Z</time>
      </trkpt>
      <trkpt lat="45.81157" lon="1.76874">
        <ele>435.2</ele>
        <time>2022-08-02T09:11:04Z</time>
      </trkpt>
      <trkpt lat="45.81159" lon="1.7688">
        <ele>435.4</ele>
        <time>2022-08-02T09:11:06Z</time>
      </trkpt>
      <trkpt lat="45.81162" lon="1.76887">
        <ele>435.5</ele>
        <time>2022-08-02T09:11:08Z</time>
      </trkpt>
      <trkpt lat="45.81165" lon="1.76892">
        <ele>435.7</ele>
        <time>2022-08-02T09:11:10Z</time>
      </trkpt>
      <trkpt lat="45.81167" lon="1.76897">
        <ele>435.8</ele>
        <time>2022-08-02T09:11:12Z</time>
      </trkpt>
      <trkpt lat="45.81169" lon="1.76904">
        <ele>436.1</ele>
        <time>2022-08-02T09:11:14Z</time>
      </trkpt>
      <trkpt lat="45.81171" lon="1.7691">
        <ele>436.4</ele>
        <time>2022-08-02T09:11:16Z</time>
      </trkpt>
      <trkpt lat="45.81172" lon="1.76917">
        <ele>436.7</ele>
        <time>2022-08-02T09:11:18Z</time>
      </trkpt>
      <trkpt lat="45.81174" lon="1.76923">
        <ele>436.5</ele>
        <time>2022-08-02T09:11:20Z</time>
      </trkpt>
      <trkpt lat="45.81175" lon="1.76928">
        <ele>436.3</ele>
        <time>2022-08-02T09:11:22Z</time>
      </trkpt>
      <trkpt lat="45.81174" lon="1.76934">
        <ele>436.2</ele>
        <time>2022-08-02T09:11:24Z</time>
      </trkpt>
      <trkpt lat="45.81173" lon="1.76939">
        <ele>436.1</ele>
        <time>2022-08-02T09:11:26Z</time>
      </trkpt>
      <trkpt lat="45.81173" lon="1.76942">
        <ele>436.1</ele>
        <time>2022-08-02T09:11:28Z</time>
      </trkpt>
      <trkpt lat="45.81172" lon="1.76945">
        <ele>436.1</ele>
        <time>2022-08-02T09:11:30Z</time>
      </trkpt>
      <trkpt lat="45.81172" lon="1.76947">
        <ele>436</ele>
        <time>2022-08-02T09:11:32Z</time>
      </trkpt>
      <trkpt lat="45.81173" lon="1.76949">
        <ele>435.9</ele>
        <time>2022-08-02T09:11:34Z</time>
      </trkpt>
      <trkpt lat="45.81172" lon="1.76951">
        <ele>435.9</ele>
        <time>2022-08-02T09:11:36Z</time>
      </trkpt>
      <trkpt lat="45.81171" lon="1.76954">
        <ele>435.9</ele>
        <time>2022-08-02T09:11:38Z</time>
      </trkpt>
      <trkpt lat="45.81169" lon="1.76958">
        <ele>435.9</ele>
        <time>2022-08-02T09:11:40Z</time>
      </trkpt>
      <trkpt lat="45.81169" lon="1.76962">
        <ele>435.8</ele>
        <time>2022-08-02T09:11:42Z</time>
      </trkpt>
      <trkpt lat="45.81172" lon="1.76969">
        <ele>435.5</ele>
        <time>2022-08-02T09:11:44Z</time>
      </trkpt>
      <trkpt lat="45.81177" lon="1.76965">
        <ele>435.3</ele>
        <time>2022-08-02T09:11:46Z</time>
      </trkpt>
      <trkpt lat="45.81179" lon="1.76959">
        <ele>435.4</ele>
        <time>2022-08-02T09:11:48Z</time>
      </trkpt>
      <trkpt lat="45.81182" lon="1.76957">
        <ele>435.3</ele>
        <time>2022-08-02T09:11:50Z</time>
      </trkpt>
      <trkpt lat="45.81184" lon="1.76952">
        <ele>435.3</ele>
        <time>2022-08-02T09:11:52Z</time>
      </trkpt>
      <trkpt lat="45.81188" lon="1.7695">
        <ele>435.2</ele>
        <time>2022-08-02T09:11:54Z</time>
      </trkpt>
      <trkpt lat="45.81193" lon="1.76951">
        <ele>434.9</ele>
        <time>2022-08-02T09:11:56Z</time>
      </trkpt>
      <trkpt lat="45.81197" lon="1.76953">
        <ele>434.6</ele>
        <time>2022-08-02T09:11:58Z</time>
      </trkpt>
      <trkpt lat="45.81202" lon="1.76954">
        <ele>434.4</ele>
        <time>2022-08-02T09:12:00Z</time>
      </trkpt>
      <trkpt lat="45.81207" lon="1.76952">
        <ele>434.2</ele>
        <time>2022-08-02T09:12:02Z</time>
      </trkpt>
      <trkpt lat="45.81212" lon="1.7695">
        <ele>434</ele>
        <time>2022-08-02T09:12:04Z</time>
      </trkpt>
      <trkpt lat="45.81218" lon="1.76947">
        <ele>433.8</ele>
        <time>2022-08-02T09:12:06Z</time>
      </trkpt>
      <trkpt lat="45.81223" lon="1.76944">
        <ele>433.6</ele>
        <time>2022-08-02T09:12:08Z</time>
      </trkpt>
      <trkpt lat="45.81228" lon="1.76941">
        <ele>433.5</ele>
        <time>2022-08-02T09:12:10Z</time>
      </trkpt>
      <trkpt lat="45.81233" lon="1.76939">
        <ele>433.3</ele>
        <time>2022-08-02T09:12:12Z</time>
      </trkpt>
      <trkpt lat="45.81238" lon="1.76937">
        <ele>433.1</ele>
        <time>2022-08-02T09:12:14Z</time>
      </trkpt>
      <trkpt lat="45.81242" lon="1.76935">
        <ele>432.9</ele>
        <time>2022-08-02T09:12:16Z</time>
      </trkpt>
      <trkpt lat="45.81245" lon="1.76934">
        <ele>432.8</ele>
        <time>2022-08-02T09:12:18Z</time>
      </trkpt>
      <trkpt lat="45.81248" lon="1.76934">
        <ele>432.7</ele>
        <time>2022-08-02T09:12:20Z</time>
      </trkpt>
      <trkpt lat="45.8125" lon="1.76933">
        <ele>432.6</ele>
        <time>2022-08-02T09:12:22Z</time>
      </trkpt>
      <trkpt lat="45.81249" lon="1.76933">
        <ele>432.6</ele>
        <time>2022-08-02T09:12:24Z</time>
      </trkpt>
      <trkpt lat="45.81249" lon="1.76933">
        <ele>432.6</ele>
        <time>2022-08-02T09:12:26Z</time>
      </trkpt>
      <trkpt lat="45.8125" lon="1.76933">
        <ele>432.6</ele>
        <time>2022-08-02T09:12:28Z</time>
      </trkpt>
      <trkpt lat="45.8125" lon="1.76933">
        <ele>432.6</ele>
        <time>2022-08-02T09:12:30Z</time>
      </trkpt>
      <trkpt lat="45.81236" lon="1.76937">
        <ele>433.2</ele>
        <time>2022-08-02T09:21:52Z</time>
      </trkpt>
      <trkpt lat="45.81232" lon="1.7694">
        <ele>433.3</ele>
        <time>2022-08-02T09:21:54Z</time>
      </trkpt>
      <trkpt lat="45.81228" lon="1.76942">
        <ele>433.4</ele>
        <time>2022-08-02T09:21:56Z</time>
      </trkpt>
      <trkpt lat="45.81223" lon="1.76945">
        <ele>433.6</ele>
        <time>2022-08-02T09:21:58Z</time>
      </trkpt>
      <trkpt lat="45.81219" lon="1.76948">
        <ele>433.7</ele>
        <time>2022-08-02T09:22:00Z</time>
      </trkpt>
      <trkpt lat="45.81214" lon="1.7695">
        <ele>433.9</ele>
        <time>2022-08-02T09:22:02Z</time>
      </trkpt>
      <trkpt lat="45.81209" lon="1.76953">
        <ele>434.1</ele>
        <time>2022-08-02T09:22:04Z</time>
      </trkpt>
      <trkpt lat="45.81205" lon="1.76956">
        <ele>434.2</ele>
        <time>2022-08-02T09:22:06Z</time>
      </trkpt>
      <trkpt lat="45.81199" lon="1.76956">
        <ele>434.5</ele>
        <time>2022-08-02T09:22:08Z</time>
      </trkpt>
      <trkpt lat="45.81195" lon="1.76954">
        <ele>434.8</ele>
        <time>2022-08-02T09:22:10Z</time>
      </trkpt>
      <trkpt lat="45.81189" lon="1.76951">
        <ele>435.1</ele>
        <time>2022-08-02T09:22:12Z</time>
      </trkpt>
      <trkpt lat="45.81184" lon="1.76949">
        <ele>435.4</ele>
        <time>2022-08-02T09:22:14Z</time>
      </trkpt>
      <trkpt lat="45.8118" lon="1.76948">
        <ele>435.6</ele>
        <time>2022-08-02T09:22:16Z</time>
      </trkpt>
      <trkpt lat="45.81176" lon="1.76949">
        <ele>435.8</ele>
        <time>2022-08-02T09:22:18Z</time>
      </trkpt>
      <trkpt lat="45.81171" lon="1.76952">
        <ele>435.9</ele>
        <time>2022-08-02T09:22:20Z</time>
      </trkpt>
      <trkpt lat="45.81166" lon="1.76958">
        <ele>436.1</ele>
        <time>2022-08-02T09:22:22Z</time>
      </trkpt>
      <trkpt lat="45.81162" lon="1.76968">
        <ele>436.1</ele>
        <time>2022-08-02T09:22:24Z</time>
      </trkpt>
      <trkpt lat="45.8116" lon="1.76977">
        <ele>436.2</ele>
        <time>2022-08-02T09:22:26Z</time>
      </trkpt>
      <trkpt lat="45.81157" lon="1.76987">
        <ele>436.3</ele>
        <time>2022-08-02T09:22:28Z</time>
      </trkpt>
      <trkpt lat="45.81153" lon="1.76998">
        <ele>436.4</ele>
        <time>2022-08-02T09:22:30Z</time>
      </trkpt>
      <trkpt lat="45.8115" lon="1.77011">
        <ele>436.5</ele>
        <time>2022-08-02T09:22:32Z</time>
      </trkpt>
      <trkpt lat="45.81147" lon="1.77025">
        <ele>436.5</ele>
        <time>2022-08-02T09:22:34Z</time>
      </trkpt>
      <trkpt lat="45.81146" lon="1.77039">
        <ele>436.6</ele>
        <time>2022-08-02T09:22:36Z</time>
      </trkpt>
      <trkpt lat="45.81145" lon="1.77053">
        <ele>436.4</ele>
        <time>2022-08-02T09:22:38Z</time>
      </trkpt>
      <trkpt lat="45.81145" lon="1.77067">
        <ele>436.3</ele>
        <time>2022-08-02T09:22:40Z</time>
      </trkpt>
      <trkpt lat="45.81146" lon="1.7708">
        <ele>436</ele>
        <time>2022-08-02T09:22:42Z</time>
      </trkpt>
      <trkpt lat="45.81148" lon="1.77094">
        <ele>436</ele>
        <time>2022-08-02T09:22:44Z</time>
      </trkpt>
      <trkpt lat="45.81149" lon="1.77106">
        <ele>436</ele>
        <time>2022-08-02T09:22:46Z</time>
      </trkpt>
      <trkpt lat="45.81152" lon="1.7712">
        <ele>435.9</ele>
        <time>2022-08-02T09:22:48Z</time>
      </trkpt>
      <trkpt lat="45.81156" lon="1.77133">
        <ele>435.7</ele>
        <time>2022-08-02T09:22:50Z</time>
      </trkpt>
      <trkpt lat="45.81162" lon="1.77144">
        <ele>435.1</ele>
        <time>2022-08-02T09:22:52Z</time>
      </trkpt>
      <trkpt lat="45.8117" lon="1.77154">
        <ele>434.5</ele>
        <time>2022-08-02T09:22:54Z</time>
      </trkpt>
      <trkpt lat="45.81178" lon="1.77162">
        <ele>434.2</ele>
        <time>2022-08-02T09:22:56Z</time>
      </trkpt>
      <trkpt lat="45.81185" lon="1.77168">
        <ele>434</ele>
        <time>2022-08-02T09:22:58Z</time>
      </trkpt>
      <trkpt lat="45.81194" lon="1.77172">
        <ele>433.6</ele>
        <time>2022-08-02T09:23:00Z</time>
      </trkpt>
      <trkpt lat="45.81203" lon="1.77175">
        <ele>433.2</ele>
        <time>2022-08-02T09:23:02Z</time>
      </trkpt>
      <trkpt lat="45.81213" lon="1.77178">
        <ele>432.9</ele>
        <time>2022-08-02T09:23:04Z</time>
      </trkpt>
      <trkpt lat="45.8122" lon="1.77181">
        <ele>432.6</ele>
        <time>2022-08-02T09:23:06Z</time>
      </trkpt>
      <trkpt lat="45.81228" lon="1.77184">
        <ele>432.4</ele>
        <time>2022-08-02T09:23:08Z</time>
      </trkpt>
      <trkpt lat="45.81236" lon="1.77187">
        <ele>432.1</ele>
        <time>2022-08-02T09:23:10Z</time>
      </trkpt>
      <trkpt lat="45.81245" lon="1.77189">
        <ele>431.9</ele>
        <time>2022-08-02T09:23:12Z</time>
      </trkpt>
      <trkpt lat="45.81254" lon="1.77192">
        <ele>431.6</ele>
        <time>2022-08-02T09:23:14Z</time>
      </trkpt>
      <trkpt lat="45.81263" lon="1.77195">
        <ele>431.4</ele>
        <time>2022-08-02T09:23:16Z</time>
      </trkpt>
      <trkpt lat="45.81272" lon="1.77195">
        <ele>430.9</ele>
        <time>2022-08-02T09:23:18Z</time>
      </trkpt>
      <trkpt lat="45.81277" lon="1.77196">
        <ele>430.7</ele>
        <time>2022-08-02T09:23:20Z</time>
      </trkpt>
      <trkpt lat="45.8129" lon="1.772">
        <ele>430.3</ele>
        <time>2022-08-02T09:23:22Z</time>
      </trkpt>
      <trkpt lat="45.813" lon="1.77203">
        <ele>430</ele>
        <time>2022-08-02T09:23:24Z</time>
      </trkpt>
      <trkpt lat="45.8131" lon="1.77207">
        <ele>429.7</ele>
        <time>2022-08-02T09:23:26Z</time>
      </trkpt>
      <trkpt lat="45.81321" lon="1.7721">
        <ele>429.3</ele>
        <time>2022-08-02T09:23:28Z</time>
      </trkpt>
      <trkpt lat="45.81332" lon="1.77215">
        <ele>429</ele>
        <time>2022-08-02T09:23:30Z</time>
      </trkpt>
      <trkpt lat="45.81342" lon="1.77219">
        <ele>428.7</ele>
        <time>2022-08-02T09:23:32Z</time>
      </trkpt>
      <trkpt lat="45.81351" lon="1.77222">
        <ele>428.5</ele>
        <time>2022-08-02T09:23:34Z</time>
      </trkpt>
      <trkpt lat="45.81361" lon="1.77225">
        <ele>428.3</ele>
        <time>2022-08-02T09:23:36Z</time>
      </trkpt>
      <trkpt lat="45.81372" lon="1.77228">
        <ele>427.9</ele>
        <time>2022-08-02T09:23:38Z</time>
      </trkpt>
      <trkpt lat="45.81382" lon="1.77232">
        <ele>427.7</ele>
        <time>2022-08-02T09:23:40Z</time>
      </trkpt>
      <trkpt lat="45.81391" lon="1.77235">
        <ele>427.5</ele>
        <time>2022-08-02T09:23:42Z</time>
      </trkpt>
      <trkpt lat="45.814" lon="1.77237">
        <ele>427.2</ele>
        <time>2022-08-02T09:23:44Z</time>
      </trkpt>
      <trkpt lat="45.81408" lon="1.77241">
        <ele>427</ele>
        <time>2022-08-02T09:23:46Z</time>
      </trkpt>
      <trkpt lat="45.81415" lon="1.77243">
        <ele>426.7</ele>
        <time>2022-08-02T09:23:48Z</time>
      </trkpt>
      <trkpt lat="45.81421" lon="1.77245">
        <ele>426.9</ele>
        <time>2022-08-02T09:23:50Z</time>
      </trkpt>
      <trkpt lat="45.81428" lon="1.77247">
        <ele>427.3</ele>
        <time>2022-08-02T09:23:52Z</time>
      </trkpt>
      <trkpt lat="45.81435" lon="1.7725">
        <ele>427.6</ele>
        <time>2022-08-02T09:23:54Z</time>
      </trkpt>
      <trkpt lat="45.81441" lon="1.77251">
        <ele>427.9</ele>
        <time>2022-08-02T09:23:56Z</time>
      </trkpt>
      <trkpt lat="45.81447" lon="1.77253">
        <ele>428.2</ele>
        <time>2022-08-02T09:23:58Z</time>
      </trkpt>
      <trkpt lat="45.81453" lon="1.7726">
        <ele>428.4</ele>
        <time>2022-08-02T09:24:00Z</time>
      </trkpt>
      <trkpt lat="45.81457" lon="1.77265">
        <ele>428.7</ele>
        <time>2022-08-02T09:24:02Z</time>
      </trkpt>
      <trkpt lat="45.81461" lon="1.77269">
        <ele>428.8</ele>
        <time>2022-08-02T09:24:04Z</time>
      </trkpt>
      <trkpt lat="45.81464" lon="1.77272">
        <ele>428.9</ele>
        <time>2022-08-02T09:24:06Z</time>
      </trkpt>
      <trkpt lat="45.81467" lon="1.77273">
        <ele>429</ele>
        <time>2022-08-02T09:24:08Z</time>
      </trkpt>
      <trkpt lat="45.81467" lon="1.77269">
        <ele>429</ele>
        <time>2022-08-02T09:24:10Z</time>
      </trkpt>
      <trkpt lat="45.81465" lon="1.77264">
        <ele>428.9</ele>
        <time>2022-08-02T09:24:12Z</time>
      </trkpt>
      <trkpt lat="45.81465" lon="1.77259">
        <ele>428.8</ele>
        <time>2022-08-02T09:24:14Z</time>
      </trkpt>
      <trkpt lat="45.81467" lon="1.77255">
        <ele>428.8</ele>
        <time>2022-08-02T09:24:16Z</time>
      </trkpt>
      <trkpt lat="45.81468" lon="1.77253">
        <ele>428.9</ele>
        <time>2022-08-02T09:24:18Z</time>
      </trkpt>
      <trkpt lat="45.81468" lon="1.77251">
        <ele>428.9</ele>
        <time>2022-08-02T09:24:20Z</time>
      </trkpt>
      <trkpt lat="45.81468" lon="1.77248">
        <ele>428.7</ele>
        <time>2022-08-02T09:24:22Z</time>
      </trkpt>
      <trkpt lat="45.81468" lon="1.77244">
        <ele>428.5</ele>
        <time>2022-08-02T09:24:24Z</time>
      </trkpt>
      <trkpt lat="45.81468" lon="1.77241">
        <ele>428.4</ele>
        <time>2022-08-02T09:24:26Z</time>
      </trkpt>
      <trkpt lat="45.81469" lon="1.77238">
        <ele>428.2</ele>
        <time>2022-08-02T09:24:28Z</time>
      </trkpt>
      <trkpt lat="45.81472" lon="1.77234">
        <ele>428.1</ele>
        <time>2022-08-02T09:24:30Z</time>
      </trkpt>
      <trkpt lat="45.81473" lon="1.77228">
        <ele>427.8</ele>
        <time>2022-08-02T09:24:32Z</time>
      </trkpt>
      <trkpt lat="45.81474" lon="1.77222">
        <ele>427.5</ele>
        <time>2022-08-02T09:24:34Z</time>
      </trkpt>
      <trkpt lat="45.81476" lon="1.77218">
        <ele>427.3</ele>
        <time>2022-08-02T09:24:36Z</time>
      </trkpt>
      <trkpt lat="45.81479" lon="1.77215">
        <ele>427.2</ele>
        <time>2022-08-02T09:24:38Z</time>
      </trkpt>
      <trkpt lat="45.81481" lon="1.77213">
        <ele>427.2</ele>
        <time>2022-08-02T09:24:40Z</time>
      </trkpt>
      <trkpt lat="45.81483" lon="1.7721">
        <ele>427.1</ele>
        <time>2022-08-02T09:24:42Z</time>
      </trkpt>
      <trkpt lat="45.81486" lon="1.7721">
        <ele>427.1</ele>
        <time>2022-08-02T09:24:44Z</time>
      </trkpt>
      <trkpt lat="45.81487" lon="1.77207">
        <ele>427</ele>
        <time>2022-08-02T09:24:46Z</time>
      </trkpt>
      <trkpt lat="45.8149" lon="1.77208">
        <ele>427.2</ele>
        <time>2022-08-02T09:24:48Z</time>
      </trkpt>
      <trkpt lat="45.81492" lon="1.77208">
        <ele>427.3</ele>
        <time>2022-08-02T09:24:50Z</time>
      </trkpt>
      <trkpt lat="45.81492" lon="1.77208">
        <ele>427.2</ele>
        <time>2022-08-02T09:24:52Z</time>
      </trkpt>
      <trkpt lat="45.81492" lon="1.77208">
        <ele>427.2</ele>
        <time>2022-08-02T09:24:54Z</time>
      </trkpt>
      <trkpt lat="45.81492" lon="1.77208">
        <ele>427.3</ele>
        <time>2022-08-02T09:24:56Z</time>
      </trkpt>
      <trkpt lat="45.81493" lon="1.77208">
        <ele>427.3</ele>
        <time>2022-08-02T09:24:58Z</time>
      </trkpt>
      <trkpt lat="45.81493" lon="1.77208">
        <ele>427.3</ele>
        <time>2022-08-02T09:25:00Z</time>
      </trkpt>
      <trkpt lat="45.81502" lon="1.77207">
        <ele>427.3</ele>
        <time>2022-08-02T09:25:26Z</time>
      </trkpt>
      <trkpt lat="45.81505" lon="1.77206">
        <ele>427.1</ele>
        <time>2022-08-02T09:25:28Z</time>
      </trkpt>
      <trkpt lat="45.81507" lon="1.77205">
        <ele>427</ele>
        <time>2022-08-02T09:25:30Z</time>
      </trkpt>
      <trkpt lat="45.81508" lon="1.77202">
        <ele>426.7</ele>
        <time>2022-08-02T09:25:32Z</time>
      </trkpt>
      <trkpt lat="45.81509" lon="1.77198">
        <ele>426.5</ele>
        <time>2022-08-02T09:25:34Z</time>
      </trkpt>
      <trkpt lat="45.81509" lon="1.77197">
        <ele>426.4</ele>
        <time>2022-08-02T09:25:36Z</time>
      </trkpt>
      <trkpt lat="45.81509" lon="1.77196">
        <ele>426.3</ele>
        <time>2022-08-02T09:25:38Z</time>
      </trkpt>
      <trkpt lat="45.8151" lon="1.77193">
        <ele>426</ele>
        <time>2022-08-02T09:25:40Z</time>
      </trkpt>
      <trkpt lat="45.81511" lon="1.77188">
        <ele>425.7</ele>
        <time>2022-08-02T09:25:42Z</time>
      </trkpt>
      <trkpt lat="45.81512" lon="1.77185">
        <ele>425.4</ele>
        <time>2022-08-02T09:25:44Z</time>
      </trkpt>
      <trkpt lat="45.81513" lon="1.77183">
        <ele>425.2</ele>
        <time>2022-08-02T09:25:46Z</time>
      </trkpt>
      <trkpt lat="45.81513" lon="1.77182">
        <ele>425.1</ele>
        <time>2022-08-02T09:25:48Z</time>
      </trkpt>
      <trkpt lat="45.81513" lon="1.77182">
        <ele>425.2</ele>
        <time>2022-08-02T09:25:50Z</time>
      </trkpt>
      <trkpt lat="45.81512" lon="1.77182">
        <ele>425.2</ele>
        <time>2022-08-02T09:25:52Z</time>
      </trkpt>
      <trkpt lat="45.81512" lon="1.77181">
        <ele>425.1</ele>
        <time>2022-08-02T09:25:54Z</time>
      </trkpt>
      <trkpt lat="45.81504" lon="1.77202">
        <ele>426.9</ele>
        <time>2022-08-02T09:26:14Z</time>
      </trkpt>
      <trkpt lat="45.81503" lon="1.77205">
        <ele>427.2</ele>
        <time>2022-08-02T09:26:16Z</time>
      </trkpt>
      <trkpt lat="45.81499" lon="1.77207">
        <ele>427.4</ele>
        <time>2022-08-02T09:26:18Z</time>
      </trkpt>
      <trkpt lat="45.81495" lon="1.7721">
        <ele>427.4</ele>
        <time>2022-08-02T09:26:20Z</time>
      </trkpt>
      <trkpt lat="45.81493" lon="1.77212">
        <ele>427.5</ele>
        <time>2022-08-02T09:26:22Z</time>
      </trkpt>
      <trkpt lat="45.81495" lon="1.77216">
        <ele>427.8</ele>
        <time>2022-08-02T09:26:24Z</time>
      </trkpt>
      <trkpt lat="45.81501" lon="1.7722">
        <ele>428.2</ele>
        <time>2022-08-02T09:26:26Z</time>
      </trkpt>
      <trkpt lat="45.81504" lon="1.77224">
        <ele>428.3</ele>
        <time>2022-08-02T09:26:28Z</time>
      </trkpt>
      <trkpt lat="45.81506" lon="1.77229">
        <ele>428.6</ele>
        <time>2022-08-02T09:26:30Z</time>
      </trkpt>
      <trkpt lat="45.81508" lon="1.77233">
        <ele>428.8</ele>
        <time>2022-08-02T09:26:32Z</time>
      </trkpt>
      <trkpt lat="45.81511" lon="1.77239">
        <ele>429.1</ele>
        <time>2022-08-02T09:26:34Z</time>
      </trkpt>
      <trkpt lat="45.81513" lon="1.77245">
        <ele>429.5</ele>
        <time>2022-08-02T09:26:36Z</time>
      </trkpt>
      <trkpt lat="45.81515" lon="1.7725">
        <ele>429.8</ele>
        <time>2022-08-02T09:26:38Z</time>
      </trkpt>
      <trkpt lat="45.81519" lon="1.77254">
        <ele>429.7</ele>
        <time>2022-08-02T09:26:40Z</time>
      </trkpt>
      <trkpt lat="45.81523" lon="1.77259">
        <ele>429.7</ele>
        <time>2022-08-02T09:26:42Z</time>
      </trkpt>
      <trkpt lat="45.81528" lon="1.77263">
        <ele>429.6</ele>
        <time>2022-08-02T09:26:44Z</time>
      </trkpt>
      <trkpt lat="45.81532" lon="1.7727">
        <ele>429.6</ele>
        <time>2022-08-02T09:26:46Z</time>
      </trkpt>
      <trkpt lat="45.81533" lon="1.77277">
        <ele>429.5</ele>
        <time>2022-08-02T09:26:48Z</time>
      </trkpt>
      <trkpt lat="45.81533" lon="1.77283">
        <ele>429.5</ele>
        <time>2022-08-02T09:26:50Z</time>
      </trkpt>
      <trkpt lat="45.81533" lon="1.77286">
        <ele>429.5</ele>
        <time>2022-08-02T09:26:52Z</time>
      </trkpt>
      <trkpt lat="45.81534" lon="1.77287">
        <ele>429.5</ele>
        <time>2022-08-02T09:26:54Z</time>
      </trkpt>
      <trkpt lat="45.81534" lon="1.77287">
        <ele>429.5</ele>
        <time>2022-08-02T09:26:56Z</time>
      </trkpt>
      <trkpt lat="45.81534" lon="1.77288">
        <ele>429.5</ele>
        <time>2022-08-02T09:26:58Z</time>
      </trkpt>
      <trkpt lat="45.81534" lon="1.77288">
        <ele>429.5</ele>
        <time>2022-08-02T09:27:00Z</time>
      </trkpt>
      <trkpt lat="45.81535" lon="1.77295">
        <ele>429.5</ele>
        <time>2022-08-02T09:27:12Z</time>
      </trkpt>
      <trkpt lat="45.81539" lon="1.77296">
        <ele>429.5</ele>
        <time>2022-08-02T09:27:14Z</time>
      </trkpt>
      <trkpt lat="45.81544" lon="1.77295">
        <ele>429.5</ele>
        <time>2022-08-02T09:27:16Z</time>
      </trkpt>
      <trkpt lat="45.81549" lon="1.77295">
        <ele>429.5</ele>
        <time>2022-08-02T09:27:18Z</time>
      </trkpt>
      <trkpt lat="45.81554" lon="1.77294">
        <ele>429.5</ele>
        <time>2022-08-02T09:27:20Z</time>
      </trkpt>
      <trkpt lat="45.81559" lon="1.77294">
        <ele>429.5</ele>
        <time>2022-08-02T09:27:22Z</time>
      </trkpt>
      <trkpt lat="45.81564" lon="1.77294">
        <ele>429.5</ele>
        <time>2022-08-02T09:27:24Z</time>
      </trkpt>
      <trkpt lat="45.81568" lon="1.77295">
        <ele>429.5</ele>
        <time>2022-08-02T09:27:26Z</time>
      </trkpt>
      <trkpt lat="45.81572" lon="1.77296">
        <ele>429.5</ele>
        <time>2022-08-02T09:27:28Z</time>
      </trkpt>
      <trkpt lat="45.81574" lon="1.77298">
        <ele>429.6</ele>
        <time>2022-08-02T09:27:30Z</time>
      </trkpt>
      <trkpt lat="45.81574" lon="1.77298">
        <ele>429.6</ele>
        <time>2022-08-02T09:27:32Z</time>
      </trkpt>
      <trkpt lat="45.81574" lon="1.77299">
        <ele>429.6</ele>
        <time>2022-08-02T09:27:34Z</time>
      </trkpt>
      <trkpt lat="45.81575" lon="1.77298">
        <ele>429.6</ele>
        <time>2022-08-02T09:27:36Z</time>
      </trkpt>
      <trkpt lat="45.81575" lon="1.77299">
        <ele>429.6</ele>
        <time>2022-08-02T09:27:38Z</time>
      </trkpt>
      <trkpt lat="45.81575" lon="1.77299">
        <ele>429.6</ele>
        <time>2022-08-02T09:27:40Z</time>
      </trkpt>
      <trkpt lat="45.81563" lon="1.77288">
        <ele>429.5</ele>
        <time>2022-08-02T09:36:26Z</time>
      </trkpt>
      <trkpt lat="45.81559" lon="1.77288">
        <ele>429.5</ele>
        <time>2022-08-02T09:36:28Z</time>
      </trkpt>
      <trkpt lat="45.81554" lon="1.77288">
        <ele>429.5</ele>
        <time>2022-08-02T09:36:30Z</time>
      </trkpt>
      <trkpt lat="45.81549" lon="1.77288">
        <ele>429.5</ele>
        <time>2022-08-02T09:36:32Z</time>
      </trkpt>
      <trkpt lat="45.81543" lon="1.77288">
        <ele>429.5</ele>
        <time>2022-08-02T09:36:34Z</time>
      </trkpt>
      <trkpt lat="45.81536" lon="1.77288">
        <ele>429.5</ele>
        <time>2022-08-02T09:36:36Z</time>
      </trkpt>
      <trkpt lat="45.81529" lon="1.77288">
        <ele>429.5</ele>
        <time>2022-08-02T09:36:38Z</time>
      </trkpt>
      <trkpt lat="45.81522" lon="1.77289">
        <ele>429.5</ele>
        <time>2022-08-02T09:36:40Z</time>
      </trkpt>
      <trkpt lat="45.81515" lon="1.77286">
        <ele>429.5</ele>
        <time>2022-08-02T09:36:42Z</time>
      </trkpt>
      <trkpt lat="45.81507" lon="1.77287">
        <ele>429.5</ele>
        <time>2022-08-02T09:36:44Z</time>
      </trkpt>
      <trkpt lat="45.815" lon="1.77286">
        <ele>429.6</ele>
        <time>2022-08-02T09:36:46Z</time>
      </trkpt>
      <trkpt lat="45.81492" lon="1.77284">
        <ele>429.5</ele>
        <time>2022-08-02T09:36:48Z</time>
      </trkpt>
      <trkpt lat="45.81485" lon="1.77281">
        <ele>429.4</ele>
        <time>2022-08-02T09:36:50Z</time>
      </trkpt>
      <trkpt lat="45.81478" lon="1.7728">
        <ele>429.2</ele>
        <time>2022-08-02T09:36:52Z</time>
      </trkpt>
      <trkpt lat="45.81472" lon="1.77276">
        <ele>429.1</ele>
        <time>2022-08-02T09:36:54Z</time>
      </trkpt>
      <trkpt lat="45.81467" lon="1.77274">
        <ele>429</ele>
        <time>2022-08-02T09:36:56Z</time>
      </trkpt>
      <trkpt lat="45.81463" lon="1.7727">
        <ele>428.8</ele>
        <time>2022-08-02T09:36:58Z</time>
      </trkpt>
      <trkpt lat="45.81459" lon="1.77266">
        <ele>428.7</ele>
        <time>2022-08-02T09:37:00Z</time>
      </trkpt>
      <trkpt lat="45.81455" lon="1.7726">
        <ele>428.5</ele>
        <time>2022-08-02T09:37:02Z</time>
      </trkpt>
      <trkpt lat="45.8145" lon="1.77255">
        <ele>428.3</ele>
        <time>2022-08-02T09:37:04Z</time>
      </trkpt>
      <trkpt lat="45.81443" lon="1.77253">
        <ele>428</ele>
        <time>2022-08-02T09:37:06Z</time>
      </trkpt>
      <trkpt lat="45.81435" lon="1.77253">
        <ele>427.8</ele>
        <time>2022-08-02T09:37:08Z</time>
      </trkpt>
      <trkpt lat="45.81428" lon="1.77253">
        <ele>427.5</ele>
        <time>2022-08-02T09:37:10Z</time>
      </trkpt>
      <trkpt lat="45.8142" lon="1.77254">
        <ele>427.2</ele>
        <time>2022-08-02T09:37:12Z</time>
      </trkpt>
      <trkpt lat="45.81414" lon="1.77251">
        <ele>427.2</ele>
        <time>2022-08-02T09:37:14Z</time>
      </trkpt>
      <trkpt lat="45.81409" lon="1.7725">
        <ele>427.4</ele>
        <time>2022-08-02T09:37:16Z</time>
      </trkpt>
      <trkpt lat="45.81404" lon="1.77246">
        <ele>427.4</ele>
        <time>2022-08-02T09:37:18Z</time>
      </trkpt>
      <trkpt lat="45.81398" lon="1.77243">
        <ele>427.6</ele>
        <time>2022-08-02T09:37:20Z</time>
      </trkpt>
      <trkpt lat="45.81392" lon="1.77242">
        <ele>427.7</ele>
        <time>2022-08-02T09:37:22Z</time>
      </trkpt>
      <trkpt lat="45.81387" lon="1.77239">
        <ele>427.8</ele>
        <time>2022-08-02T09:37:24Z</time>
      </trkpt>
      <trkpt lat="45.81382" lon="1.77237">
        <ele>427.9</ele>
        <time>2022-08-02T09:37:26Z</time>
      </trkpt>
      <trkpt lat="45.81377" lon="1.77235">
        <ele>428.1</ele>
        <time>2022-08-02T09:37:28Z</time>
      </trkpt>
      <trkpt lat="45.8137" lon="1.77232">
        <ele>428.2</ele>
        <time>2022-08-02T09:37:30Z</time>
      </trkpt>
      <trkpt lat="45.81365" lon="1.77234">
        <ele>428.6</ele>
        <time>2022-08-02T09:37:32Z</time>
      </trkpt>
      <trkpt lat="45.81364" lon="1.77244">
        <ele>429.2</ele>
        <time>2022-08-02T09:37:34Z</time>
      </trkpt>
      <trkpt lat="45.81365" lon="1.77252">
        <ele>429.5</ele>
        <time>2022-08-02T09:37:36Z</time>
      </trkpt>
      <trkpt lat="45.81368" lon="1.7726">
        <ele>429.6</ele>
        <time>2022-08-02T09:37:38Z</time>
      </trkpt>
      <trkpt lat="45.81372" lon="1.77267">
        <ele>429.6</ele>
        <time>2022-08-02T09:37:40Z</time>
      </trkpt>
      <trkpt lat="45.81376" lon="1.77273">
        <ele>429.6</ele>
        <time>2022-08-02T09:37:42Z</time>
      </trkpt>
      <trkpt lat="45.8138" lon="1.7728">
        <ele>429.7</ele>
        <time>2022-08-02T09:37:44Z</time>
      </trkpt>
      <trkpt lat="45.81385" lon="1.77287">
        <ele>429.7</ele>
        <time>2022-08-02T09:37:46Z</time>
      </trkpt>
      <trkpt lat="45.81389" lon="1.77294">
        <ele>429.7</ele>
        <time>2022-08-02T09:37:48Z</time>
      </trkpt>
      <trkpt lat="45.81393" lon="1.773">
        <ele>429.8</ele>
        <time>2022-08-02T09:37:50Z</time>
      </trkpt>
      <trkpt lat="45.81398" lon="1.77307">
        <ele>429.8</ele>
        <time>2022-08-02T09:37:52Z</time>
      </trkpt>
      <trkpt lat="45.81403" lon="1.77314">
        <ele>429.8</ele>
        <time>2022-08-02T09:37:54Z</time>
      </trkpt>
      <trkpt lat="45.81408" lon="1.7732">
        <ele>429.9</ele>
        <time>2022-08-02T09:37:56Z</time>
      </trkpt>
      <trkpt lat="45.81412" lon="1.77327">
        <ele>430</ele>
        <time>2022-08-02T09:37:58Z</time>
      </trkpt>
      <trkpt lat="45.81417" lon="1.77335">
        <ele>430</ele>
        <time>2022-08-02T09:38:00Z</time>
      </trkpt>
      <trkpt lat="45.81422" lon="1.77342">
        <ele>430.1</ele>
        <time>2022-08-02T09:38:02Z</time>
      </trkpt>
      <trkpt lat="45.81425" lon="1.7735">
        <ele>430.2</ele>
        <time>2022-08-02T09:38:04Z</time>
      </trkpt>
      <trkpt lat="45.81428" lon="1.77358">
        <ele>430.3</ele>
        <time>2022-08-02T09:38:06Z</time>
      </trkpt>
      <trkpt lat="45.8143" lon="1.77365">
        <ele>430.4</ele>
        <time>2022-08-02T09:38:08Z</time>
      </trkpt>
      <trkpt lat="45.81432" lon="1.77372">
        <ele>430.5</ele>
        <time>2022-08-02T09:38:10Z</time>
      </trkpt>
      <trkpt lat="45.81433" lon="1.77378">
        <ele>430.6</ele>
        <time>2022-08-02T09:38:12Z</time>
      </trkpt>
      <trkpt lat="45.81435" lon="1.77384">
        <ele>430.6</ele>
        <time>2022-08-02T09:38:14Z</time>
      </trkpt>
      <trkpt lat="45.81438" lon="1.77391">
        <ele>430.6</ele>
        <time>2022-08-02T09:38:16Z</time>
      </trkpt>
      <trkpt lat="45.81439" lon="1.77396">
        <ele>430.6</ele>
        <time>2022-08-02T09:38:18Z</time>
      </trkpt>
      <trkpt lat="45.8144" lon="1.77402">
        <ele>430.7</ele>
        <time>2022-08-02T09:38:20Z</time>
      </trkpt>
      <trkpt lat="45.81441" lon="1.77407">
        <ele>430.7</ele>
        <time>2022-08-02T09:38:22Z</time>
      </trkpt>
      <trkpt lat="45.81443" lon="1.77413">
        <ele>430.7</ele>
        <time>2022-08-02T09:38:24Z</time>
      </trkpt>
      <trkpt lat="45.81445" lon="1.77418">
        <ele>430.7</ele>
        <time>2022-08-02T09:38:26Z</time>
      </trkpt>
      <trkpt lat="45.81444" lon="1.77424">
        <ele>430.9</ele>
        <time>2022-08-02T09:38:28Z</time>
      </trkpt>
      <trkpt lat="45.81442" lon="1.7743">
        <ele>431.2</ele>
        <time>2022-08-02T09:38:30Z</time>
      </trkpt>
      <trkpt lat="45.81443" lon="1.77435">
        <ele>431.3</ele>
        <time>2022-08-02T09:38:32Z</time>
      </trkpt>
      <trkpt lat="45.81441" lon="1.7744">
        <ele>431.6</ele>
        <time>2022-08-02T09:38:34Z</time>
      </trkpt>
      <trkpt lat="45.81439" lon="1.77446">
        <ele>431.8</ele>
        <time>2022-08-02T09:38:36Z</time>
      </trkpt>
      <trkpt lat="45.81436" lon="1.77453">
        <ele>432.1</ele>
        <time>2022-08-02T09:38:38Z</time>
      </trkpt>
      <trkpt lat="45.81434" lon="1.77458">
        <ele>432.4</ele>
        <time>2022-08-02T09:38:40Z</time>
      </trkpt>
      <trkpt lat="45.81433" lon="1.77464">
        <ele>432.6</ele>
        <time>2022-08-02T09:38:42Z</time>
      </trkpt>
      <trkpt lat="45.81431" lon="1.7747">
        <ele>432.8</ele>
        <time>2022-08-02T09:38:44Z</time>
      </trkpt>
      <trkpt lat="45.8143" lon="1.77475">
        <ele>433</ele>
        <time>2022-08-02T09:38:46Z</time>
      </trkpt>
      <trkpt lat="45.81428" lon="1.7748">
        <ele>433.2</ele>
        <time>2022-08-02T09:38:48Z</time>
      </trkpt>
      <trkpt lat="45.81426" lon="1.77485">
        <ele>433.4</ele>
        <time>2022-08-02T09:38:50Z</time>
      </trkpt>
      <trkpt lat="45.81424" lon="1.7749">
        <ele>433.6</ele>
        <time>2022-08-02T09:38:52Z</time>
      </trkpt>
      <trkpt lat="45.81421" lon="1.77494">
        <ele>433.8</ele>
        <time>2022-08-02T09:38:54Z</time>
      </trkpt>
      <trkpt lat="45.81418" lon="1.775">
        <ele>434</ele>
        <time>2022-08-02T09:38:56Z</time>
      </trkpt>
      <trkpt lat="45.81415" lon="1.77504">
        <ele>434.1</ele>
        <time>2022-08-02T09:38:58Z</time>
      </trkpt>
      <trkpt lat="45.81411" lon="1.77509">
        <ele>434.4</ele>
        <time>2022-08-02T09:39:00Z</time>
      </trkpt>
      <trkpt lat="45.81409" lon="1.77514">
        <ele>434.5</ele>
        <time>2022-08-02T09:39:02Z</time>
      </trkpt>
      <trkpt lat="45.81406" lon="1.77519">
        <ele>434.7</ele>
        <time>2022-08-02T09:39:04Z</time>
      </trkpt>
      <trkpt lat="45.81403" lon="1.77523">
        <ele>434.9</ele>
        <time>2022-08-02T09:39:06Z</time>
      </trkpt>
      <trkpt lat="45.814" lon="1.77529">
        <ele>435.1</ele>
        <time>2022-08-02T09:39:08Z</time>
      </trkpt>
      <trkpt lat="45.81398" lon="1.77534">
        <ele>435.3</ele>
        <time>2022-08-02T09:39:10Z</time>
      </trkpt>
      <trkpt lat="45.81395" lon="1.7754">
        <ele>435.5</ele>
        <time>2022-08-02T09:39:12Z</time>
      </trkpt>
      <trkpt lat="45.81392" lon="1.77546">
        <ele>435.7</ele>
        <time>2022-08-02T09:39:14Z</time>
      </trkpt>
      <trkpt lat="45.81389" lon="1.77553">
        <ele>435.9</ele>
        <time>2022-08-02T09:39:16Z</time>
      </trkpt>
      <trkpt lat="45.81386" lon="1.77559">
        <ele>436.2</ele>
        <time>2022-08-02T09:39:18Z</time>
      </trkpt>
      <trkpt lat="45.81382" lon="1.77563">
        <ele>436.6</ele>
        <time>2022-08-02T09:39:20Z</time>
      </trkpt>
      <trkpt lat="45.81378" lon="1.77568">
        <ele>436.9</ele>
        <time>2022-08-02T09:39:22Z</time>
      </trkpt>
      <trkpt lat="45.81374" lon="1.77574">
        <ele>437.2</ele>
        <time>2022-08-02T09:39:24Z</time>
      </trkpt>
      <trkpt lat="45.81371" lon="1.77579">
        <ele>437.6</ele>
        <time>2022-08-02T09:39:26Z</time>
      </trkpt>
      <trkpt lat="45.81367" lon="1.77584">
        <ele>438</ele>
        <time>2022-08-02T09:39:28Z</time>
      </trkpt>
      <trkpt lat="45.81362" lon="1.77589">
        <ele>438.6</ele>
        <time>2022-08-02T09:39:30Z</time>
      </trkpt>
      <trkpt lat="45.81358" lon="1.77596">
        <ele>439.2</ele>
        <time>2022-08-02T09:39:32Z</time>
      </trkpt>
      <trkpt lat="45.81355" lon="1.77603">
        <ele>439.7</ele>
        <time>2022-08-02T09:39:34Z</time>
      </trkpt>
      <trkpt lat="45.81352" lon="1.7761">
        <ele>440.1</ele>
        <time>2022-08-02T09:39:36Z</time>
      </trkpt>
      <trkpt lat="45.8135" lon="1.77617">
        <ele>440.5</ele>
        <time>2022-08-02T09:39:38Z</time>
      </trkpt>
      <trkpt lat="45.81348" lon="1.77625">
        <ele>440.9</ele>
        <time>2022-08-02T09:39:40Z</time>
      </trkpt>
      <trkpt lat="45.81347" lon="1.77632">
        <ele>441.2</ele>
        <time>2022-08-02T09:39:42Z</time>
      </trkpt>
      <trkpt lat="45.81348" lon="1.7764">
        <ele>441.3</ele>
        <time>2022-08-02T09:39:44Z</time>
      </trkpt>
      <trkpt lat="45.81348" lon="1.77649">
        <ele>441.5</ele>
        <time>2022-08-02T09:39:46Z</time>
      </trkpt>
      <trkpt lat="45.81347" lon="1.77657">
        <ele>441.6</ele>
        <time>2022-08-02T09:39:48Z</time>
      </trkpt>
      <trkpt lat="45.81348" lon="1.77666">
        <ele>441.7</ele>
        <time>2022-08-02T09:39:50Z</time>
      </trkpt>
      <trkpt lat="45.81348" lon="1.77674">
        <ele>441.8</ele>
        <time>2022-08-02T09:39:52Z</time>
      </trkpt>
      <trkpt lat="45.81348" lon="1.77682">
        <ele>441.8</ele>
        <time>2022-08-02T09:39:54Z</time>
      </trkpt>
      <trkpt lat="45.81348" lon="1.77689">
        <ele>441.9</ele>
        <time>2022-08-02T09:39:56Z</time>
      </trkpt>
      <trkpt lat="45.81348" lon="1.77697">
        <ele>442</ele>
        <time>2022-08-02T09:39:58Z</time>
      </trkpt>
      <trkpt lat="45.81348" lon="1.77704">
        <ele>442.1</ele>
        <time>2022-08-02T09:40:00Z</time>
      </trkpt>
      <trkpt lat="45.81349" lon="1.77712">
        <ele>442</ele>
        <time>2022-08-02T09:40:02Z</time>
      </trkpt>
      <trkpt lat="45.81349" lon="1.77719">
        <ele>442.1</ele>
        <time>2022-08-02T09:40:04Z</time>
      </trkpt>
      <trkpt lat="45.81349" lon="1.77726">
        <ele>442.2</ele>
        <time>2022-08-02T09:40:06Z</time>
      </trkpt>
      <trkpt lat="45.81349" lon="1.77733">
        <ele>442.2</ele>
        <time>2022-08-02T09:40:08Z</time>
      </trkpt>
      <trkpt lat="45.81349" lon="1.7774">
        <ele>442.3</ele>
        <time>2022-08-02T09:40:10Z</time>
      </trkpt>
      <trkpt lat="45.81348" lon="1.77747">
        <ele>442.6</ele>
        <time>2022-08-02T09:40:12Z</time>
      </trkpt>
      <trkpt lat="45.81346" lon="1.77754">
        <ele>442.7</ele>
        <time>2022-08-02T09:40:14Z</time>
      </trkpt>
      <trkpt lat="45.81344" lon="1.7776">
        <ele>442.7</ele>
        <time>2022-08-02T09:40:16Z</time>
      </trkpt>
      <trkpt lat="45.81341" lon="1.77766">
        <ele>442.8</ele>
        <time>2022-08-02T09:40:18Z</time>
      </trkpt>
      <trkpt lat="45.81339" lon="1.77772">
        <ele>442.8</ele>
        <time>2022-08-02T09:40:20Z</time>
      </trkpt>
      <trkpt lat="45.81336" lon="1.77778">
        <ele>442.9</ele>
        <time>2022-08-02T09:40:22Z</time>
      </trkpt>
      <trkpt lat="45.81334" lon="1.77784">
        <ele>442.9</ele>
        <time>2022-08-02T09:40:24Z</time>
      </trkpt>
      <trkpt lat="45.81331" lon="1.77791">
        <ele>443.2</ele>
        <time>2022-08-02T09:40:26Z</time>
      </trkpt>
      <trkpt lat="45.81329" lon="1.77797">
        <ele>443.7</ele>
        <time>2022-08-02T09:40:28Z</time>
      </trkpt>
      <trkpt lat="45.81326" lon="1.77802">
        <ele>444.1</ele>
        <time>2022-08-02T09:40:30Z</time>
      </trkpt>
      <trkpt lat="45.81323" lon="1.77809">
        <ele>444.5</ele>
        <time>2022-08-02T09:40:32Z</time>
      </trkpt>
      <trkpt lat="45.81321" lon="1.77815">
        <ele>445</ele>
        <time>2022-08-02T09:40:34Z</time>
      </trkpt>
      <trkpt lat="45.81318" lon="1.77821">
        <ele>445.4</ele>
        <time>2022-08-02T09:40:36Z</time>
      </trkpt>
      <trkpt lat="45.81315" lon="1.77827">
        <ele>445.8</ele>
        <time>2022-08-02T09:40:38Z</time>
      </trkpt>
      <trkpt lat="45.81313" lon="1.77833">
        <ele>446.1</ele>
        <time>2022-08-02T09:40:40Z</time>
      </trkpt>
      <trkpt lat="45.8131" lon="1.77839">
        <ele>446.6</ele>
        <time>2022-08-02T09:40:42Z</time>
      </trkpt>
      <trkpt lat="45.81307" lon="1.77845">
        <ele>447.1</ele>
        <time>2022-08-02T09:40:44Z</time>
      </trkpt>
      <trkpt lat="45.81304" lon="1.77852">
        <ele>447.6</ele>
        <time>2022-08-02T09:40:46Z</time>
      </trkpt>
      <trkpt lat="45.81301" lon="1.77859">
        <ele>447.9</ele>
        <time>2022-08-02T09:40:48Z</time>
      </trkpt>
      <trkpt lat="45.81298" lon="1.77866">
        <ele>448.2</ele>
        <time>2022-08-02T09:40:50Z</time>
      </trkpt>
      <trkpt lat="45.81295" lon="1.77873">
        <ele>448.5</ele>
        <time>2022-08-02T09:40:52Z</time>
      </trkpt>
      <trkpt lat="45.81293" lon="1.77879">
        <ele>448.7</ele>
        <time>2022-08-02T09:40:54Z</time>
      </trkpt>
      <trkpt lat="45.8129" lon="1.77886">
        <ele>448.8</ele>
        <time>2022-08-02T09:40:56Z</time>
      </trkpt>
      <trkpt lat="45.81287" lon="1.77893">
        <ele>448.9</ele>
        <time>2022-08-02T09:40:58Z</time>
      </trkpt>
      <trkpt lat="45.81284" lon="1.77899">
        <ele>449</ele>
        <time>2022-08-02T09:41:00Z</time>
      </trkpt>
      <trkpt lat="45.81281" lon="1.77906">
        <ele>449</ele>
        <time>2022-08-02T09:41:02Z</time>
      </trkpt>
      <trkpt lat="45.81279" lon="1.77912">
        <ele>448.9</ele>
        <time>2022-08-02T09:41:04Z</time>
      </trkpt>
      <trkpt lat="45.81276" lon="1.77918">
        <ele>449</ele>
        <time>2022-08-02T09:41:06Z</time>
      </trkpt>
      <trkpt lat="45.81273" lon="1.77925">
        <ele>449.2</ele>
        <time>2022-08-02T09:41:08Z</time>
      </trkpt>
      <trkpt lat="45.8127" lon="1.7793">
        <ele>449.6</ele>
        <time>2022-08-02T09:41:10Z</time>
      </trkpt>
      <trkpt lat="45.81268" lon="1.77936">
        <ele>449.7</ele>
        <time>2022-08-02T09:41:12Z</time>
      </trkpt>
      <trkpt lat="45.81265" lon="1.77942">
        <ele>449.8</ele>
        <time>2022-08-02T09:41:14Z</time>
      </trkpt>
      <trkpt lat="45.81263" lon="1.77948">
        <ele>449.9</ele>
        <time>2022-08-02T09:41:16Z</time>
      </trkpt>
      <trkpt lat="45.81261" lon="1.77953">
        <ele>449.9</ele>
        <time>2022-08-02T09:41:18Z</time>
      </trkpt>
      <trkpt lat="45.81258" lon="1.77958">
        <ele>450</ele>
        <time>2022-08-02T09:41:20Z</time>
      </trkpt>
      <trkpt lat="45.81256" lon="1.77964">
        <ele>449.9</ele>
        <time>2022-08-02T09:41:22Z</time>
      </trkpt>
      <trkpt lat="45.81254" lon="1.77969">
        <ele>449.8</ele>
        <time>2022-08-02T09:41:24Z</time>
      </trkpt>
      <trkpt lat="45.81252" lon="1.77975">
        <ele>449.6</ele>
        <time>2022-08-02T09:41:26Z</time>
      </trkpt>
      <trkpt lat="45.81249" lon="1.7798">
        <ele>449.6</ele>
        <time>2022-08-02T09:41:28Z</time>
      </trkpt>
      <trkpt lat="45.81246" lon="1.77985">
        <ele>449.8</ele>
        <time>2022-08-02T09:41:30Z</time>
      </trkpt>
      <trkpt lat="45.81244" lon="1.77991">
        <ele>449.8</ele>
        <time>2022-08-02T09:41:32Z</time>
      </trkpt>
      <trkpt lat="45.81241" lon="1.77997">
        <ele>449.9</ele>
        <time>2022-08-02T09:41:34Z</time>
      </trkpt>
      <trkpt lat="45.81239" lon="1.78002">
        <ele>450.1</ele>
        <time>2022-08-02T09:41:36Z</time>
      </trkpt>
      <trkpt lat="45.81236" lon="1.78009">
        <ele>450.5</ele>
        <time>2022-08-02T09:41:38Z</time>
      </trkpt>
      <trkpt lat="45.81233" lon="1.78014">
        <ele>450.9</ele>
        <time>2022-08-02T09:41:40Z</time>
      </trkpt>
      <trkpt lat="45.81231" lon="1.7802">
        <ele>451.2</ele>
        <time>2022-08-02T09:41:42Z</time>
      </trkpt>
      <trkpt lat="45.81228" lon="1.78025">
        <ele>451.5</ele>
        <time>2022-08-02T09:41:44Z</time>
      </trkpt>
      <trkpt lat="45.81225" lon="1.78031">
        <ele>451.8</ele>
        <time>2022-08-02T09:41:46Z</time>
      </trkpt>
      <trkpt lat="45.81223" lon="1.78037">
        <ele>451.9</ele>
        <time>2022-08-02T09:41:48Z</time>
      </trkpt>
      <trkpt lat="45.8122" lon="1.78044">
        <ele>452.1</ele>
        <time>2022-08-02T09:41:50Z</time>
      </trkpt>
      <trkpt lat="45.81217" lon="1.7805">
        <ele>452.2</ele>
        <time>2022-08-02T09:41:52Z</time>
      </trkpt>
      <trkpt lat="45.81214" lon="1.78056">
        <ele>452.2</ele>
        <time>2022-08-02T09:41:54Z</time>
      </trkpt>
      <trkpt lat="45.81212" lon="1.78062">
        <ele>452.2</ele>
        <time>2022-08-02T09:41:56Z</time>
      </trkpt>
      <trkpt lat="45.81209" lon="1.78069">
        <ele>452.2</ele>
        <time>2022-08-02T09:41:58Z</time>
      </trkpt>
      <trkpt lat="45.81206" lon="1.78075">
        <ele>452.1</ele>
        <time>2022-08-02T09:42:00Z</time>
      </trkpt>
      <trkpt lat="45.81204" lon="1.78081">
        <ele>452</ele>
        <time>2022-08-02T09:42:02Z</time>
      </trkpt>
      <trkpt lat="45.81201" lon="1.78088">
        <ele>452.1</ele>
        <time>2022-08-02T09:42:04Z</time>
      </trkpt>
      <trkpt lat="45.81198" lon="1.78095">
        <ele>452.3</ele>
        <time>2022-08-02T09:42:06Z</time>
      </trkpt>
      <trkpt lat="45.81195" lon="1.78101">
        <ele>452.5</ele>
        <time>2022-08-02T09:42:08Z</time>
      </trkpt>
      <trkpt lat="45.81192" lon="1.78108">
        <ele>452.7</ele>
        <time>2022-08-02T09:42:10Z</time>
      </trkpt>
      <trkpt lat="45.81189" lon="1.78114">
        <ele>452.8</ele>
        <time>2022-08-02T09:42:12Z</time>
      </trkpt>
      <trkpt lat="45.81186" lon="1.78121">
        <ele>452.9</ele>
        <time>2022-08-02T09:42:14Z</time>
      </trkpt>
      <trkpt lat="45.81183" lon="1.78127">
        <ele>453</ele>
        <time>2022-08-02T09:42:16Z</time>
      </trkpt>
      <trkpt lat="45.81181" lon="1.78133">
        <ele>453</ele>
        <time>2022-08-02T09:42:18Z</time>
      </trkpt>
      <trkpt lat="45.81178" lon="1.78139">
        <ele>453.1</ele>
        <time>2022-08-02T09:42:20Z</time>
      </trkpt>
      <trkpt lat="45.81176" lon="1.78145">
        <ele>453.1</ele>
        <time>2022-08-02T09:42:22Z</time>
      </trkpt>
      <trkpt lat="45.81173" lon="1.78151">
        <ele>453.1</ele>
        <time>2022-08-02T09:42:24Z</time>
      </trkpt>
      <trkpt lat="45.81171" lon="1.78156">
        <ele>453.1</ele>
        <time>2022-08-02T09:42:26Z</time>
      </trkpt>
      <trkpt lat="45.81168" lon="1.78162">
        <ele>453.1</ele>
        <time>2022-08-02T09:42:28Z</time>
      </trkpt>
      <trkpt lat="45.81166" lon="1.78167">
        <ele>453.1</ele>
        <time>2022-08-02T09:42:30Z</time>
      </trkpt>
      <trkpt lat="45.81163" lon="1.78172">
        <ele>453.5</ele>
        <time>2022-08-02T09:42:32Z</time>
      </trkpt>
      <trkpt lat="45.81161" lon="1.78178">
        <ele>453.8</ele>
        <time>2022-08-02T09:42:34Z</time>
      </trkpt>
      <trkpt lat="45.81158" lon="1.78183">
        <ele>454.1</ele>
        <time>2022-08-02T09:42:36Z</time>
      </trkpt>
      <trkpt lat="45.81156" lon="1.78188">
        <ele>454.5</ele>
        <time>2022-08-02T09:42:38Z</time>
      </trkpt>
      <trkpt lat="45.81153" lon="1.78192">
        <ele>454.9</ele>
        <time>2022-08-02T09:42:40Z</time>
      </trkpt>
      <trkpt lat="45.81151" lon="1.78198">
        <ele>455.1</ele>
        <time>2022-08-02T09:42:42Z</time>
      </trkpt>
      <trkpt lat="45.81149" lon="1.78203">
        <ele>455.4</ele>
        <time>2022-08-02T09:42:44Z</time>
      </trkpt>
      <trkpt lat="45.81146" lon="1.78208">
        <ele>455.7</ele>
        <time>2022-08-02T09:42:46Z</time>
      </trkpt>
      <trkpt lat="45.81144" lon="1.78214">
        <ele>455.9</ele>
        <time>2022-08-02T09:42:48Z</time>
      </trkpt>
      <trkpt lat="45.81142" lon="1.7822">
        <ele>456.1</ele>
        <time>2022-08-02T09:42:50Z</time>
      </trkpt>
      <trkpt lat="45.8114" lon="1.78226">
        <ele>456.4</ele>
        <time>2022-08-02T09:42:52Z</time>
      </trkpt>
      <trkpt lat="45.81137" lon="1.78231">
        <ele>456.7</ele>
        <time>2022-08-02T09:42:54Z</time>
      </trkpt>
      <trkpt lat="45.81135" lon="1.78237">
        <ele>456.9</ele>
        <time>2022-08-02T09:42:56Z</time>
      </trkpt>
      <trkpt lat="45.81133" lon="1.78242">
        <ele>457.2</ele>
        <time>2022-08-02T09:42:58Z</time>
      </trkpt>
      <trkpt lat="45.81131" lon="1.78247">
        <ele>457.4</ele>
        <time>2022-08-02T09:43:00Z</time>
      </trkpt>
      <trkpt lat="45.81128" lon="1.78252">
        <ele>457.6</ele>
        <time>2022-08-02T09:43:02Z</time>
      </trkpt>
      <trkpt lat="45.81125" lon="1.78257">
        <ele>457.9</ele>
        <time>2022-08-02T09:43:04Z</time>
      </trkpt>
      <trkpt lat="45.81123" lon="1.78262">
        <ele>458.2</ele>
        <time>2022-08-02T09:43:06Z</time>
      </trkpt>
      <trkpt lat="45.81121" lon="1.78268">
        <ele>458.5</ele>
        <time>2022-08-02T09:43:08Z</time>
      </trkpt>
      <trkpt lat="45.81119" lon="1.78274">
        <ele>458.9</ele>
        <time>2022-08-02T09:43:10Z</time>
      </trkpt>
      <trkpt lat="45.81116" lon="1.7828">
        <ele>459.3</ele>
        <time>2022-08-02T09:43:12Z</time>
      </trkpt>
      <trkpt lat="45.81113" lon="1.78286">
        <ele>459.8</ele>
        <time>2022-08-02T09:43:14Z</time>
      </trkpt>
      <trkpt lat="45.8111" lon="1.78292">
        <ele>460.2</ele>
        <time>2022-08-02T09:43:16Z</time>
      </trkpt>
      <trkpt lat="45.81107" lon="1.78298">
        <ele>460.7</ele>
        <time>2022-08-02T09:43:18Z</time>
      </trkpt>
      <trkpt lat="45.81105" lon="1.78304">
        <ele>461.1</ele>
        <time>2022-08-02T09:43:20Z</time>
      </trkpt>
      <trkpt lat="45.81102" lon="1.7831">
        <ele>461.6</ele>
        <time>2022-08-02T09:43:22Z</time>
      </trkpt>
      <trkpt lat="45.81099" lon="1.78317">
        <ele>462.1</ele>
        <time>2022-08-02T09:43:24Z</time>
      </trkpt>
      <trkpt lat="45.81097" lon="1.78324">
        <ele>462.5</ele>
        <time>2022-08-02T09:43:26Z</time>
      </trkpt>
      <trkpt lat="45.81095" lon="1.7833">
        <ele>462.9</ele>
        <time>2022-08-02T09:43:28Z</time>
      </trkpt>
      <trkpt lat="45.81094" lon="1.78337">
        <ele>463.3</ele>
        <time>2022-08-02T09:43:30Z</time>
      </trkpt>
      <trkpt lat="45.81092" lon="1.78343">
        <ele>463.7</ele>
        <time>2022-08-02T09:43:32Z</time>
      </trkpt>
      <trkpt lat="45.81091" lon="1.7835">
        <ele>464</ele>
        <time>2022-08-02T09:43:34Z</time>
      </trkpt>
      <trkpt lat="45.8109" lon="1.78358">
        <ele>464.2</ele>
        <time>2022-08-02T09:43:36Z</time>
      </trkpt>
      <trkpt lat="45.81088" lon="1.78366">
        <ele>464.5</ele>
        <time>2022-08-02T09:43:38Z</time>
      </trkpt>
      <trkpt lat="45.81088" lon="1.78374">
        <ele>464.7</ele>
        <time>2022-08-02T09:43:40Z</time>
      </trkpt>
      <trkpt lat="45.81087" lon="1.78382">
        <ele>464.9</ele>
        <time>2022-08-02T09:43:42Z</time>
      </trkpt>
      <trkpt lat="45.81087" lon="1.7839">
        <ele>465</ele>
        <time>2022-08-02T09:43:44Z</time>
      </trkpt>
      <trkpt lat="45.81087" lon="1.78398">
        <ele>465.1</ele>
        <time>2022-08-02T09:43:46Z</time>
      </trkpt>
      <trkpt lat="45.81087" lon="1.78406">
        <ele>465.2</ele>
        <time>2022-08-02T09:43:48Z</time>
      </trkpt>
      <trkpt lat="45.81087" lon="1.78414">
        <ele>465.3</ele>
        <time>2022-08-02T09:43:50Z</time>
      </trkpt>
      <trkpt lat="45.81088" lon="1.78422">
        <ele>465.3</ele>
        <time>2022-08-02T09:43:52Z</time>
      </trkpt>
      <trkpt lat="45.81088" lon="1.7843">
        <ele>465.5</ele>
        <time>2022-08-02T09:43:54Z</time>
      </trkpt>
      <trkpt lat="45.81088" lon="1.78437">
        <ele>465.7</ele>
        <time>2022-08-02T09:43:56Z</time>
      </trkpt>
      <trkpt lat="45.81088" lon="1.78445">
        <ele>465.8</ele>
        <time>2022-08-02T09:43:58Z</time>
      </trkpt>
      <trkpt lat="45.81087" lon="1.78452">
        <ele>466.2</ele>
        <time>2022-08-02T09:44:00Z</time>
      </trkpt>
      <trkpt lat="45.81086" lon="1.7846">
        <ele>466.5</ele>
        <time>2022-08-02T09:44:02Z</time>
      </trkpt>
      <trkpt lat="45.81085" lon="1.78467">
        <ele>466.9</ele>
        <time>2022-08-02T09:44:04Z</time>
      </trkpt>
      <trkpt lat="45.81084" lon="1.78474">
        <ele>467.3</ele>
        <time>2022-08-02T09:44:06Z</time>
      </trkpt>
      <trkpt lat="45.81082" lon="1.78481">
        <ele>467.7</ele>
        <time>2022-08-02T09:44:08Z</time>
      </trkpt>
      <trkpt lat="45.81081" lon="1.78487">
        <ele>468.2</ele>
        <time>2022-08-02T09:44:10Z</time>
      </trkpt>
      <trkpt lat="45.81079" lon="1.78492">
        <ele>468.6</ele>
        <time>2022-08-02T09:44:12Z</time>
      </trkpt>
      <trkpt lat="45.81077" lon="1.78498">
        <ele>469</ele>
        <time>2022-08-02T09:44:14Z</time>
      </trkpt>
      <trkpt lat="45.81075" lon="1.78504">
        <ele>469.4</ele>
        <time>2022-08-02T09:44:16Z</time>
      </trkpt>
      <trkpt lat="45.81073" lon="1.7851">
        <ele>469.7</ele>
        <time>2022-08-02T09:44:18Z</time>
      </trkpt>
      <trkpt lat="45.81072" lon="1.78516">
        <ele>469.9</ele>
        <time>2022-08-02T09:44:20Z</time>
      </trkpt>
      <trkpt lat="45.8107" lon="1.78522">
        <ele>470.2</ele>
        <time>2022-08-02T09:44:22Z</time>
      </trkpt>
      <trkpt lat="45.81069" lon="1.78527">
        <ele>470.3</ele>
        <time>2022-08-02T09:44:24Z</time>
      </trkpt>
      <trkpt lat="45.81067" lon="1.78533">
        <ele>470.5</ele>
        <time>2022-08-02T09:44:26Z</time>
      </trkpt>
      <trkpt lat="45.81065" lon="1.78538">
        <ele>470.6</ele>
        <time>2022-08-02T09:44:28Z</time>
      </trkpt>
      <trkpt lat="45.81064" lon="1.78544">
        <ele>470.6</ele>
        <time>2022-08-02T09:44:30Z</time>
      </trkpt>
      <trkpt lat="45.81062" lon="1.78549">
        <ele>470.7</ele>
        <time>2022-08-02T09:44:32Z</time>
      </trkpt>
      <trkpt lat="45.8106" lon="1.78554">
        <ele>470.7</ele>
        <time>2022-08-02T09:44:34Z</time>
      </trkpt>
      <trkpt lat="45.81059" lon="1.78559">
        <ele>470.6</ele>
        <time>2022-08-02T09:44:36Z</time>
      </trkpt>
      <trkpt lat="45.81057" lon="1.78564">
        <ele>470.6</ele>
        <time>2022-08-02T09:44:38Z</time>
      </trkpt>
      <trkpt lat="45.81056" lon="1.78569">
        <ele>470.4</ele>
        <time>2022-08-02T09:44:40Z</time>
      </trkpt>
      <trkpt lat="45.81054" lon="1.78575">
        <ele>470.3</ele>
        <time>2022-08-02T09:44:42Z</time>
      </trkpt>
      <trkpt lat="45.81053" lon="1.7858">
        <ele>470.1</ele>
        <time>2022-08-02T09:44:44Z</time>
      </trkpt>
      <trkpt lat="45.81051" lon="1.78585">
        <ele>470</ele>
        <time>2022-08-02T09:44:46Z</time>
      </trkpt>
      <trkpt lat="45.8105" lon="1.78591">
        <ele>469.9</ele>
        <time>2022-08-02T09:44:48Z</time>
      </trkpt>
      <trkpt lat="45.81048" lon="1.78596">
        <ele>469.9</ele>
        <time>2022-08-02T09:44:50Z</time>
      </trkpt>
      <trkpt lat="45.81046" lon="1.786">
        <ele>469.8</ele>
        <time>2022-08-02T09:44:52Z</time>
      </trkpt>
      <trkpt lat="45.81045" lon="1.78605">
        <ele>469.7</ele>
        <time>2022-08-02T09:44:54Z</time>
      </trkpt>
      <trkpt lat="45.81044" lon="1.7861">
        <ele>469.7</ele>
        <time>2022-08-02T09:44:56Z</time>
      </trkpt>
      <trkpt lat="45.81042" lon="1.78616">
        <ele>469.6</ele>
        <time>2022-08-02T09:44:58Z</time>
      </trkpt>
      <trkpt lat="45.81041" lon="1.78621">
        <ele>469.6</ele>
        <time>2022-08-02T09:45:00Z</time>
      </trkpt>
      <trkpt lat="45.8104" lon="1.78625">
        <ele>469.5</ele>
        <time>2022-08-02T09:45:02Z</time>
      </trkpt>
      <trkpt lat="45.8104" lon="1.7863">
        <ele>469.4</ele>
        <time>2022-08-02T09:45:04Z</time>
      </trkpt>
      <trkpt lat="45.8104" lon="1.78636">
        <ele>469.4</ele>
        <time>2022-08-02T09:45:06Z</time>
      </trkpt>
      <trkpt lat="45.8104" lon="1.78641">
        <ele>469.3</ele>
        <time>2022-08-02T09:45:08Z</time>
      </trkpt>
      <trkpt lat="45.81041" lon="1.78646">
        <ele>469.3</ele>
        <time>2022-08-02T09:45:10Z</time>
      </trkpt>
      <trkpt lat="45.81041" lon="1.78651">
        <ele>469.2</ele>
        <time>2022-08-02T09:45:12Z</time>
      </trkpt>
      <trkpt lat="45.81042" lon="1.78656">
        <ele>469.1</ele>
        <time>2022-08-02T09:45:14Z</time>
      </trkpt>
      <trkpt lat="45.81044" lon="1.78661">
        <ele>469.1</ele>
        <time>2022-08-02T09:45:16Z</time>
      </trkpt>
      <trkpt lat="45.81046" lon="1.78665">
        <ele>469</ele>
        <time>2022-08-02T09:45:18Z</time>
      </trkpt>
      <trkpt lat="45.81047" lon="1.7867">
        <ele>469.2</ele>
        <time>2022-08-02T09:45:20Z</time>
      </trkpt>
      <trkpt lat="45.81049" lon="1.78674">
        <ele>469.5</ele>
        <time>2022-08-02T09:45:22Z</time>
      </trkpt>
      <trkpt lat="45.81051" lon="1.78679">
        <ele>469.8</ele>
        <time>2022-08-02T09:45:24Z</time>
      </trkpt>
      <trkpt lat="45.81053" lon="1.78683">
        <ele>470</ele>
        <time>2022-08-02T09:45:26Z</time>
      </trkpt>
      <trkpt lat="45.81055" lon="1.78688">
        <ele>470.2</ele>
        <time>2022-08-02T09:45:28Z</time>
      </trkpt>
      <trkpt lat="45.81057" lon="1.78692">
        <ele>470.4</ele>
        <time>2022-08-02T09:45:30Z</time>
      </trkpt>
      <trkpt lat="45.81059" lon="1.78696">
        <ele>470.5</ele>
        <time>2022-08-02T09:45:32Z</time>
      </trkpt>
      <trkpt lat="45.81062" lon="1.787">
        <ele>470.6</ele>
        <time>2022-08-02T09:45:34Z</time>
      </trkpt>
      <trkpt lat="45.81064" lon="1.78704">
        <ele>470.7</ele>
        <time>2022-08-02T09:45:36Z</time>
      </trkpt>
      <trkpt lat="45.81066" lon="1.78708">
        <ele>470.8</ele>
        <time>2022-08-02T09:45:38Z</time>
      </trkpt>
      <trkpt lat="45.81068" lon="1.78712">
        <ele>470.9</ele>
        <time>2022-08-02T09:45:40Z</time>
      </trkpt>
      <trkpt lat="45.8107" lon="1.78717">
        <ele>470.9</ele>
        <time>2022-08-02T09:45:42Z</time>
      </trkpt>
      <trkpt lat="45.81072" lon="1.78721">
        <ele>471</ele>
        <time>2022-08-02T09:45:44Z</time>
      </trkpt>
      <trkpt lat="45.81074" lon="1.78726">
        <ele>471.1</ele>
        <time>2022-08-02T09:45:46Z</time>
      </trkpt>
      <trkpt lat="45.81076" lon="1.78732">
        <ele>471.1</ele>
        <time>2022-08-02T09:45:48Z</time>
      </trkpt>
      <trkpt lat="45.81077" lon="1.78737">
        <ele>471.2</ele>
        <time>2022-08-02T09:45:50Z</time>
      </trkpt>
      <trkpt lat="45.81078" lon="1.78743">
        <ele>471.3</ele>
        <time>2022-08-02T09:45:52Z</time>
      </trkpt>
      <trkpt lat="45.81078" lon="1.78749">
        <ele>471.4</ele>
        <time>2022-08-02T09:45:54Z</time>
      </trkpt>
      <trkpt lat="45.81079" lon="1.78754">
        <ele>471.3</ele>
        <time>2022-08-02T09:45:56Z</time>
      </trkpt>
      <trkpt lat="45.8108" lon="1.7876">
        <ele>471.2</ele>
        <time>2022-08-02T09:45:58Z</time>
      </trkpt>
      <trkpt lat="45.81079" lon="1.78766">
        <ele>471.1</ele>
        <time>2022-08-02T09:46:00Z</time>
      </trkpt>
      <trkpt lat="45.81078" lon="1.78771">
        <ele>471.1</ele>
        <time>2022-08-02T09:46:02Z</time>
      </trkpt>
      <trkpt lat="45.81079" lon="1.78777">
        <ele>471</ele>
        <time>2022-08-02T09:46:04Z</time>
      </trkpt>
      <trkpt lat="45.81078" lon="1.78782">
        <ele>471</ele>
        <time>2022-08-02T09:46:06Z</time>
      </trkpt>
      <trkpt lat="45.81077" lon="1.78787">
        <ele>471.1</ele>
        <time>2022-08-02T09:46:08Z</time>
      </trkpt>
      <trkpt lat="45.81075" lon="1.78793">
        <ele>471.2</ele>
        <time>2022-08-02T09:46:10Z</time>
      </trkpt>
      <trkpt lat="45.81074" lon="1.78798">
        <ele>471.4</ele>
        <time>2022-08-02T09:46:12Z</time>
      </trkpt>
      <trkpt lat="45.81072" lon="1.78802">
        <ele>471.6</ele>
        <time>2022-08-02T09:46:14Z</time>
      </trkpt>
      <trkpt lat="45.8107" lon="1.78807">
        <ele>471.8</ele>
        <time>2022-08-02T09:46:16Z</time>
      </trkpt>
      <trkpt lat="45.81068" lon="1.78812">
        <ele>472.2</ele>
        <time>2022-08-02T09:46:18Z</time>
      </trkpt>
      <trkpt lat="45.81066" lon="1.78817">
        <ele>472.6</ele>
        <time>2022-08-02T09:46:20Z</time>
      </trkpt>
      <trkpt lat="45.81063" lon="1.78821">
        <ele>473.1</ele>
        <time>2022-08-02T09:46:22Z</time>
      </trkpt>
      <trkpt lat="45.81061" lon="1.78826">
        <ele>473.6</ele>
        <time>2022-08-02T09:46:24Z</time>
      </trkpt>
      <trkpt lat="45.81058" lon="1.7883">
        <ele>474.2</ele>
        <time>2022-08-02T09:46:26Z</time>
      </trkpt>
      <trkpt lat="45.81055" lon="1.78834">
        <ele>474.8</ele>
        <time>2022-08-02T09:46:28Z</time>
      </trkpt>
      <trkpt lat="45.81052" lon="1.78838">
        <ele>475.4</ele>
        <time>2022-08-02T09:46:30Z</time>
      </trkpt>
      <trkpt lat="45.81048" lon="1.78842">
        <ele>475.9</ele>
        <time>2022-08-02T09:46:32Z</time>
      </trkpt>
      <trkpt lat="45.81045" lon="1.78846">
        <ele>476.4</ele>
        <time>2022-08-02T09:46:34Z</time>
      </trkpt>
      <trkpt lat="45.81041" lon="1.7885">
        <ele>476.9</ele>
        <time>2022-08-02T09:46:36Z</time>
      </trkpt>
      <trkpt lat="45.81038" lon="1.78853">
        <ele>477.3</ele>
        <time>2022-08-02T09:46:38Z</time>
      </trkpt>
      <trkpt lat="45.81034" lon="1.78855">
        <ele>477.9</ele>
        <time>2022-08-02T09:46:40Z</time>
      </trkpt>
      <trkpt lat="45.8103" lon="1.78858">
        <ele>478.5</ele>
        <time>2022-08-02T09:46:42Z</time>
      </trkpt>
      <trkpt lat="45.81026" lon="1.7886">
        <ele>479</ele>
        <time>2022-08-02T09:46:44Z</time>
      </trkpt>
      <trkpt lat="45.81022" lon="1.78863">
        <ele>479.5</ele>
        <time>2022-08-02T09:46:46Z</time>
      </trkpt>
      <trkpt lat="45.81019" lon="1.78864">
        <ele>480</ele>
        <time>2022-08-02T09:46:48Z</time>
      </trkpt>
      <trkpt lat="45.81015" lon="1.78867">
        <ele>480.4</ele>
        <time>2022-08-02T09:46:50Z</time>
      </trkpt>
      <trkpt lat="45.81011" lon="1.7887">
        <ele>480.8</ele>
        <time>2022-08-02T09:46:52Z</time>
      </trkpt>
      <trkpt lat="45.81007" lon="1.78871">
        <ele>481.3</ele>
        <time>2022-08-02T09:46:54Z</time>
      </trkpt>
      <trkpt lat="45.81002" lon="1.78874">
        <ele>481.7</ele>
        <time>2022-08-02T09:46:56Z</time>
      </trkpt>
      <trkpt lat="45.81" lon="1.78877">
        <ele>481.8</ele>
        <time>2022-08-02T09:46:58Z</time>
      </trkpt>
      <trkpt lat="45.80996" lon="1.78881">
        <ele>481.5</ele>
        <time>2022-08-02T09:47:00Z</time>
      </trkpt>
      <trkpt lat="45.80991" lon="1.78886">
        <ele>481.1</ele>
        <time>2022-08-02T09:47:02Z</time>
      </trkpt>
      <trkpt lat="45.80988" lon="1.7889">
        <ele>480.7</ele>
        <time>2022-08-02T09:47:04Z</time>
      </trkpt>
      <trkpt lat="45.80985" lon="1.78896">
        <ele>480.2</ele>
        <time>2022-08-02T09:47:06Z</time>
      </trkpt>
      <trkpt lat="45.80982" lon="1.78903">
        <ele>479.6</ele>
        <time>2022-08-02T09:47:08Z</time>
      </trkpt>
      <trkpt lat="45.80979" lon="1.7891">
        <ele>478.9</ele>
        <time>2022-08-02T09:47:10Z</time>
      </trkpt>
      <trkpt lat="45.80978" lon="1.78917">
        <ele>478.3</ele>
        <time>2022-08-02T09:47:12Z</time>
      </trkpt>
      <trkpt lat="45.80977" lon="1.78925">
        <ele>478.4</ele>
        <time>2022-08-02T09:47:14Z</time>
      </trkpt>
      <trkpt lat="45.80976" lon="1.78932">
        <ele>478.6</ele>
        <time>2022-08-02T09:47:16Z</time>
      </trkpt>
      <trkpt lat="45.80976" lon="1.7894">
        <ele>478.8</ele>
        <time>2022-08-02T09:47:18Z</time>
      </trkpt>
      <trkpt lat="45.80976" lon="1.78946">
        <ele>478.9</ele>
        <time>2022-08-02T09:47:20Z</time>
      </trkpt>
      <trkpt lat="45.80977" lon="1.78952">
        <ele>479</ele>
        <time>2022-08-02T09:47:22Z</time>
      </trkpt>
      <trkpt lat="45.80977" lon="1.78959">
        <ele>479.2</ele>
        <time>2022-08-02T09:47:24Z</time>
      </trkpt>
      <trkpt lat="45.80978" lon="1.78965">
        <ele>479.4</ele>
        <time>2022-08-02T09:47:26Z</time>
      </trkpt>
      <trkpt lat="45.80979" lon="1.78971">
        <ele>479.5</ele>
        <time>2022-08-02T09:47:28Z</time>
      </trkpt>
      <trkpt lat="45.8098" lon="1.78978">
        <ele>479.7</ele>
        <time>2022-08-02T09:47:30Z</time>
      </trkpt>
      <trkpt lat="45.80981" lon="1.78984">
        <ele>480</ele>
        <time>2022-08-02T09:47:32Z</time>
      </trkpt>
      <trkpt lat="45.80981" lon="1.7899">
        <ele>480.1</ele>
        <time>2022-08-02T09:47:34Z</time>
      </trkpt>
      <trkpt lat="45.80982" lon="1.78996">
        <ele>480.3</ele>
        <time>2022-08-02T09:47:36Z</time>
      </trkpt>
      <trkpt lat="45.80982" lon="1.79001">
        <ele>480.6</ele>
        <time>2022-08-02T09:47:38Z</time>
      </trkpt>
      <trkpt lat="45.80983" lon="1.79007">
        <ele>481</ele>
        <time>2022-08-02T09:47:40Z</time>
      </trkpt>
      <trkpt lat="45.80984" lon="1.79012">
        <ele>481.3</ele>
        <time>2022-08-02T09:47:42Z</time>
      </trkpt>
      <trkpt lat="45.80984" lon="1.79018">
        <ele>481.7</ele>
        <time>2022-08-02T09:47:44Z</time>
      </trkpt>
      <trkpt lat="45.80985" lon="1.79024">
        <ele>482.1</ele>
        <time>2022-08-02T09:47:46Z</time>
      </trkpt>
      <trkpt lat="45.80986" lon="1.7903">
        <ele>482.5</ele>
        <time>2022-08-02T09:47:48Z</time>
      </trkpt>
      <trkpt lat="45.80987" lon="1.79035">
        <ele>482.8</ele>
        <time>2022-08-02T09:47:50Z</time>
      </trkpt>
      <trkpt lat="45.80987" lon="1.79041">
        <ele>483.2</ele>
        <time>2022-08-02T09:47:52Z</time>
      </trkpt>
      <trkpt lat="45.80988" lon="1.79046">
        <ele>483.5</ele>
        <time>2022-08-02T09:47:54Z</time>
      </trkpt>
      <trkpt lat="45.80989" lon="1.79052">
        <ele>483.9</ele>
        <time>2022-08-02T09:47:56Z</time>
      </trkpt>
      <trkpt lat="45.80989" lon="1.79056">
        <ele>484.2</ele>
        <time>2022-08-02T09:47:58Z</time>
      </trkpt>
      <trkpt lat="45.8099" lon="1.79062">
        <ele>484.5</ele>
        <time>2022-08-02T09:48:00Z</time>
      </trkpt>
      <trkpt lat="45.80991" lon="1.79067">
        <ele>484.8</ele>
        <time>2022-08-02T09:48:02Z</time>
      </trkpt>
      <trkpt lat="45.80991" lon="1.79073">
        <ele>485.1</ele>
        <time>2022-08-02T09:48:04Z</time>
      </trkpt>
      <trkpt lat="45.80991" lon="1.79078">
        <ele>485.4</ele>
        <time>2022-08-02T09:48:06Z</time>
      </trkpt>
      <trkpt lat="45.80992" lon="1.79083">
        <ele>485.7</ele>
        <time>2022-08-02T09:48:08Z</time>
      </trkpt>
      <trkpt lat="45.80993" lon="1.79088">
        <ele>486.1</ele>
        <time>2022-08-02T09:48:10Z</time>
      </trkpt>
      <trkpt lat="45.80994" lon="1.79094">
        <ele>486.5</ele>
        <time>2022-08-02T09:48:12Z</time>
      </trkpt>
      <trkpt lat="45.80994" lon="1.79099">
        <ele>486.9</ele>
        <time>2022-08-02T09:48:14Z</time>
      </trkpt>
      <trkpt lat="45.80995" lon="1.79104">
        <ele>487.3</ele>
        <time>2022-08-02T09:48:16Z</time>
      </trkpt>
      <trkpt lat="45.80995" lon="1.79109">
        <ele>487.7</ele>
        <time>2022-08-02T09:48:18Z</time>
      </trkpt>
      <trkpt lat="45.80996" lon="1.79114">
        <ele>488.1</ele>
        <time>2022-08-02T09:48:20Z</time>
      </trkpt>
      <trkpt lat="45.80996" lon="1.79119">
        <ele>488.4</ele>
        <time>2022-08-02T09:48:22Z</time>
      </trkpt>
      <trkpt lat="45.80996" lon="1.79124">
        <ele>488.7</ele>
        <time>2022-08-02T09:48:24Z</time>
      </trkpt>
      <trkpt lat="45.80996" lon="1.79129">
        <ele>489.1</ele>
        <time>2022-08-02T09:48:26Z</time>
      </trkpt>
      <trkpt lat="45.80996" lon="1.79135">
        <ele>489.5</ele>
        <time>2022-08-02T09:48:28Z</time>
      </trkpt>
      <trkpt lat="45.80998" lon="1.7914">
        <ele>489.9</ele>
        <time>2022-08-02T09:48:30Z</time>
      </trkpt>
      <trkpt lat="45.80999" lon="1.79144">
        <ele>490.3</ele>
        <time>2022-08-02T09:48:32Z</time>
      </trkpt>
      <trkpt lat="45.81" lon="1.79149">
        <ele>490.7</ele>
        <time>2022-08-02T09:48:34Z</time>
      </trkpt>
      <trkpt lat="45.81" lon="1.79154">
        <ele>491.1</ele>
        <time>2022-08-02T09:48:36Z</time>
      </trkpt>
      <trkpt lat="45.81" lon="1.79159">
        <ele>491.4</ele>
        <time>2022-08-02T09:48:38Z</time>
      </trkpt>
      <trkpt lat="45.81" lon="1.79163">
        <ele>491.8</ele>
        <time>2022-08-02T09:48:40Z</time>
      </trkpt>
      <trkpt lat="45.81" lon="1.79168">
        <ele>492</ele>
        <time>2022-08-02T09:48:42Z</time>
      </trkpt>
      <trkpt lat="45.81" lon="1.79172">
        <ele>491.9</ele>
        <time>2022-08-02T09:48:44Z</time>
      </trkpt>
      <trkpt lat="45.81001" lon="1.79177">
        <ele>491.9</ele>
        <time>2022-08-02T09:48:46Z</time>
      </trkpt>
      <trkpt lat="45.81001" lon="1.79181">
        <ele>491.9</ele>
        <time>2022-08-02T09:48:48Z</time>
      </trkpt>
      <trkpt lat="45.81002" lon="1.79188">
        <ele>491.8</ele>
        <time>2022-08-02T09:48:50Z</time>
      </trkpt>
      <trkpt lat="45.81001" lon="1.79192">
        <ele>491.7</ele>
        <time>2022-08-02T09:48:52Z</time>
      </trkpt>
      <trkpt lat="45.81001" lon="1.79197">
        <ele>491.7</ele>
        <time>2022-08-02T09:48:54Z</time>
      </trkpt>
      <trkpt lat="45.81001" lon="1.79201">
        <ele>491.6</ele>
        <time>2022-08-02T09:48:56Z</time>
      </trkpt>
      <trkpt lat="45.81001" lon="1.79206">
        <ele>491.5</ele>
        <time>2022-08-02T09:48:58Z</time>
      </trkpt>
      <trkpt lat="45.81001" lon="1.7921">
        <ele>491.5</ele>
        <time>2022-08-02T09:49:00Z</time>
      </trkpt>
      <trkpt lat="45.81001" lon="1.79216">
        <ele>491.4</ele>
        <time>2022-08-02T09:49:02Z</time>
      </trkpt>
      <trkpt lat="45.81001" lon="1.79221">
        <ele>491.4</ele>
        <time>2022-08-02T09:49:04Z</time>
      </trkpt>
      <trkpt lat="45.81001" lon="1.79225">
        <ele>491.3</ele>
        <time>2022-08-02T09:49:06Z</time>
      </trkpt>
      <trkpt lat="45.81" lon="1.7923">
        <ele>491.3</ele>
        <time>2022-08-02T09:49:08Z</time>
      </trkpt>
      <trkpt lat="45.81001" lon="1.79235">
        <ele>491.2</ele>
        <time>2022-08-02T09:49:10Z</time>
      </trkpt>
      <trkpt lat="45.81001" lon="1.79242">
        <ele>491.1</ele>
        <time>2022-08-02T09:49:12Z</time>
      </trkpt>
      <trkpt lat="45.81001" lon="1.79248">
        <ele>491.1</ele>
        <time>2022-08-02T09:49:14Z</time>
      </trkpt>
      <trkpt lat="45.81001" lon="1.79255">
        <ele>491</ele>
        <time>2022-08-02T09:49:16Z</time>
      </trkpt>
      <trkpt lat="45.81" lon="1.79262">
        <ele>490.9</ele>
        <time>2022-08-02T09:49:18Z</time>
      </trkpt>
      <trkpt lat="45.81" lon="1.79269">
        <ele>490.8</ele>
        <time>2022-08-02T09:49:20Z</time>
      </trkpt>
      <trkpt lat="45.81" lon="1.79277">
        <ele>490.7</ele>
        <time>2022-08-02T09:49:22Z</time>
      </trkpt>
      <trkpt lat="45.81001" lon="1.79286">
        <ele>490.6</ele>
        <time>2022-08-02T09:49:24Z</time>
      </trkpt>
      <trkpt lat="45.81" lon="1.79295">
        <ele>490.5</ele>
        <time>2022-08-02T09:49:26Z</time>
      </trkpt>
      <trkpt lat="45.81001" lon="1.79305">
        <ele>490.4</ele>
        <time>2022-08-02T09:49:28Z</time>
      </trkpt>
      <trkpt lat="45.81" lon="1.79314">
        <ele>490.2</ele>
        <time>2022-08-02T09:49:30Z</time>
      </trkpt>
      <trkpt lat="45.81001" lon="1.79322">
        <ele>490.2</ele>
        <time>2022-08-02T09:49:32Z</time>
      </trkpt>
      <trkpt lat="45.81" lon="1.79331">
        <ele>490</ele>
        <time>2022-08-02T09:49:34Z</time>
      </trkpt>
      <trkpt lat="45.81" lon="1.79341">
        <ele>489.9</ele>
        <time>2022-08-02T09:49:36Z</time>
      </trkpt>
      <trkpt lat="45.81001" lon="1.79351">
        <ele>489.8</ele>
        <time>2022-08-02T09:49:38Z</time>
      </trkpt>
      <trkpt lat="45.81001" lon="1.79362">
        <ele>489.7</ele>
        <time>2022-08-02T09:49:40Z</time>
      </trkpt>
      <trkpt lat="45.81001" lon="1.79373">
        <ele>489.6</ele>
        <time>2022-08-02T09:49:42Z</time>
      </trkpt>
      <trkpt lat="45.81001" lon="1.79384">
        <ele>489.5</ele>
        <time>2022-08-02T09:49:44Z</time>
      </trkpt>
      <trkpt lat="45.81001" lon="1.79395">
        <ele>489.4</ele>
        <time>2022-08-02T09:49:46Z</time>
      </trkpt>
      <trkpt lat="45.81001" lon="1.79407">
        <ele>489.2</ele>
        <time>2022-08-02T09:49:48Z</time>
      </trkpt>
      <trkpt lat="45.81001" lon="1.79418">
        <ele>489.1</ele>
        <time>2022-08-02T09:49:50Z</time>
      </trkpt>
      <trkpt lat="45.81001" lon="1.79429">
        <ele>489.4</ele>
        <time>2022-08-02T09:49:52Z</time>
      </trkpt>
      <trkpt lat="45.81" lon="1.7944">
        <ele>489.6</ele>
        <time>2022-08-02T09:49:54Z</time>
      </trkpt>
      <trkpt lat="45.81001" lon="1.79451">
        <ele>489.9</ele>
        <time>2022-08-02T09:49:56Z</time>
      </trkpt>
      <trkpt lat="45.81002" lon="1.79462">
        <ele>490.3</ele>
        <time>2022-08-02T09:49:58Z</time>
      </trkpt>
      <trkpt lat="45.81002" lon="1.79472">
        <ele>490.6</ele>
        <time>2022-08-02T09:50:00Z</time>
      </trkpt>
      <trkpt lat="45.81001" lon="1.79482">
        <ele>490.7</ele>
        <time>2022-08-02T09:50:02Z</time>
      </trkpt>
      <trkpt lat="45.81002" lon="1.79492">
        <ele>491.1</ele>
        <time>2022-08-02T09:50:04Z</time>
      </trkpt>
      <trkpt lat="45.81002" lon="1.79502">
        <ele>491.5</ele>
        <time>2022-08-02T09:50:06Z</time>
      </trkpt>
      <trkpt lat="45.81003" lon="1.79512">
        <ele>492.1</ele>
        <time>2022-08-02T09:50:08Z</time>
      </trkpt>
      <trkpt lat="45.81003" lon="1.79522">
        <ele>492.7</ele>
        <time>2022-08-02T09:50:10Z</time>
      </trkpt>
      <trkpt lat="45.81003" lon="1.79533">
        <ele>493.4</ele>
        <time>2022-08-02T09:50:12Z</time>
      </trkpt>
      <trkpt lat="45.81003" lon="1.79543">
        <ele>494</ele>
        <time>2022-08-02T09:50:14Z</time>
      </trkpt>
      <trkpt lat="45.81003" lon="1.79553">
        <ele>494.7</ele>
        <time>2022-08-02T09:50:16Z</time>
      </trkpt>
      <trkpt lat="45.81004" lon="1.79563">
        <ele>495.4</ele>
        <time>2022-08-02T09:50:18Z</time>
      </trkpt>
      <trkpt lat="45.81006" lon="1.79574">
        <ele>496.3</ele>
        <time>2022-08-02T09:50:20Z</time>
      </trkpt>
      <trkpt lat="45.81007" lon="1.79585">
        <ele>496.9</ele>
        <time>2022-08-02T09:50:22Z</time>
      </trkpt>
      <trkpt lat="45.81009" lon="1.79595">
        <ele>496.9</ele>
        <time>2022-08-02T09:50:24Z</time>
      </trkpt>
      <trkpt lat="45.81011" lon="1.79604">
        <ele>496.8</ele>
        <time>2022-08-02T09:50:26Z</time>
      </trkpt>
      <trkpt lat="45.81013" lon="1.79613">
        <ele>496.8</ele>
        <time>2022-08-02T09:50:28Z</time>
      </trkpt>
      <trkpt lat="45.81015" lon="1.79624">
        <ele>496.7</ele>
        <time>2022-08-02T09:50:30Z</time>
      </trkpt>
      <trkpt lat="45.81019" lon="1.79633">
        <ele>496.7</ele>
        <time>2022-08-02T09:50:32Z</time>
      </trkpt>
      <trkpt lat="45.81022" lon="1.79643">
        <ele>496.6</ele>
        <time>2022-08-02T09:50:34Z</time>
      </trkpt>
      <trkpt lat="45.81025" lon="1.79654">
        <ele>496.4</ele>
        <time>2022-08-02T09:50:36Z</time>
      </trkpt>
      <trkpt lat="45.81029" lon="1.79665">
        <ele>496.2</ele>
        <time>2022-08-02T09:50:38Z</time>
      </trkpt>
      <trkpt lat="45.81032" lon="1.79675">
        <ele>495.5</ele>
        <time>2022-08-02T09:50:40Z</time>
      </trkpt>
      <trkpt lat="45.81036" lon="1.79686">
        <ele>494.8</ele>
        <time>2022-08-02T09:50:42Z</time>
      </trkpt>
      <trkpt lat="45.8104" lon="1.79697">
        <ele>494</ele>
        <time>2022-08-02T09:50:44Z</time>
      </trkpt>
      <trkpt lat="45.81044" lon="1.79709">
        <ele>493.1</ele>
        <time>2022-08-02T09:50:46Z</time>
      </trkpt>
      <trkpt lat="45.81048" lon="1.79721">
        <ele>492</ele>
        <time>2022-08-02T09:50:48Z</time>
      </trkpt>
      <trkpt lat="45.81051" lon="1.79733">
        <ele>491</ele>
        <time>2022-08-02T09:50:50Z</time>
      </trkpt>
      <trkpt lat="45.81055" lon="1.79744">
        <ele>489.9</ele>
        <time>2022-08-02T09:50:52Z</time>
      </trkpt>
      <trkpt lat="45.81058" lon="1.79755">
        <ele>489.5</ele>
        <time>2022-08-02T09:50:54Z</time>
      </trkpt>
      <trkpt lat="45.81062" lon="1.79765">
        <ele>489.8</ele>
        <time>2022-08-02T09:50:56Z</time>
      </trkpt>
      <trkpt lat="45.81065" lon="1.79775">
        <ele>490.1</ele>
        <time>2022-08-02T09:50:58Z</time>
      </trkpt>
      <trkpt lat="45.81068" lon="1.79785">
        <ele>490.4</ele>
        <time>2022-08-02T09:51:00Z</time>
      </trkpt>
      <trkpt lat="45.81071" lon="1.79794">
        <ele>490.7</ele>
        <time>2022-08-02T09:51:02Z</time>
      </trkpt>
      <trkpt lat="45.81074" lon="1.79803">
        <ele>491</ele>
        <time>2022-08-02T09:51:04Z</time>
      </trkpt>
      <trkpt lat="45.81076" lon="1.7981">
        <ele>491.2</ele>
        <time>2022-08-02T09:51:06Z</time>
      </trkpt>
      <trkpt lat="45.81078" lon="1.79815">
        <ele>491.4</ele>
        <time>2022-08-02T09:51:08Z</time>
      </trkpt>
      <trkpt lat="45.81078" lon="1.79818">
        <ele>491.5</ele>
        <time>2022-08-02T09:51:10Z</time>
      </trkpt>
      <trkpt lat="45.81078" lon="1.79818">
        <ele>491.4</ele>
        <time>2022-08-02T09:51:12Z</time>
      </trkpt>
      <trkpt lat="45.81078" lon="1.79818">
        <ele>491.4</ele>
        <time>2022-08-02T09:51:14Z</time>
      </trkpt>
      <trkpt lat="45.81078" lon="1.79818">
        <ele>491.4</ele>
        <time>2022-08-02T09:51:16Z</time>
      </trkpt>
      <trkpt lat="45.81078" lon="1.79818">
        <ele>491.4</ele>
        <time>2022-08-02T09:51:18Z</time>
      </trkpt>
      <trkpt lat="45.81082" lon="1.79835">
        <ele>492.1</ele>
        <time>2022-08-02T09:52:44Z</time>
      </trkpt>
      <trkpt lat="45.81082" lon="1.79837">
        <ele>492.3</ele>
        <time>2022-08-02T09:52:46Z</time>
      </trkpt>
      <trkpt lat="45.81084" lon="1.79839">
        <ele>492.5</ele>
        <time>2022-08-02T09:52:48Z</time>
      </trkpt>
      <trkpt lat="45.81085" lon="1.79842">
        <ele>492.7</ele>
        <time>2022-08-02T09:52:50Z</time>
      </trkpt>
      <trkpt lat="45.81086" lon="1.79846">
        <ele>493</ele>
        <time>2022-08-02T09:52:52Z</time>
      </trkpt>
      <trkpt lat="45.81087" lon="1.79851">
        <ele>493.5</ele>
        <time>2022-08-02T09:52:54Z</time>
      </trkpt>
      <trkpt lat="45.81089" lon="1.79856">
        <ele>493.8</ele>
        <time>2022-08-02T09:52:56Z</time>
      </trkpt>
      <trkpt lat="45.81091" lon="1.79861">
        <ele>494.1</ele>
        <time>2022-08-02T09:52:58Z</time>
      </trkpt>
      <trkpt lat="45.81092" lon="1.79865">
        <ele>494.5</ele>
        <time>2022-08-02T09:53:00Z</time>
      </trkpt>
      <trkpt lat="45.81093" lon="1.79866">
        <ele>494.5</ele>
        <time>2022-08-02T09:53:02Z</time>
      </trkpt>
      <trkpt lat="45.81093" lon="1.79866">
        <ele>494.5</ele>
        <time>2022-08-02T09:53:04Z</time>
      </trkpt>
      <trkpt lat="45.81093" lon="1.79866">
        <ele>494.5</ele>
        <time>2022-08-02T09:53:06Z</time>
      </trkpt>
      <trkpt lat="45.81093" lon="1.79866">
        <ele>494.5</ele>
        <time>2022-08-02T09:53:08Z</time>
      </trkpt>
      <trkpt lat="45.811" lon="1.79879">
        <ele>495.3</ele>
        <time>2022-08-02T09:55:38Z</time>
      </trkpt>
      <trkpt lat="45.81102" lon="1.79883">
        <ele>495.5</ele>
        <time>2022-08-02T09:55:40Z</time>
      </trkpt>
      <trkpt lat="45.81105" lon="1.79887">
        <ele>495.7</ele>
        <time>2022-08-02T09:55:42Z</time>
      </trkpt>
      <trkpt lat="45.81107" lon="1.79891">
        <ele>495.9</ele>
        <time>2022-08-02T09:55:44Z</time>
      </trkpt>
      <trkpt lat="45.81109" lon="1.79896">
        <ele>496.2</ele>
        <time>2022-08-02T09:55:46Z</time>
      </trkpt>
      <trkpt lat="45.81111" lon="1.79899">
        <ele>496.4</ele>
        <time>2022-08-02T09:55:48Z</time>
      </trkpt>
      <trkpt lat="45.81114" lon="1.79903">
        <ele>496.6</ele>
        <time>2022-08-02T09:55:50Z</time>
      </trkpt>
      <trkpt lat="45.81116" lon="1.79907">
        <ele>496.8</ele>
        <time>2022-08-02T09:55:52Z</time>
      </trkpt>
      <trkpt lat="45.81118" lon="1.79911">
        <ele>497</ele>
        <time>2022-08-02T09:55:54Z</time>
      </trkpt>
      <trkpt lat="45.8112" lon="1.79915">
        <ele>497.2</ele>
        <time>2022-08-02T09:55:56Z</time>
      </trkpt>
      <trkpt lat="45.81122" lon="1.79919">
        <ele>497.6</ele>
        <time>2022-08-02T09:55:58Z</time>
      </trkpt>
      <trkpt lat="45.81124" lon="1.79922">
        <ele>498.1</ele>
        <time>2022-08-02T09:56:00Z</time>
      </trkpt>
      <trkpt lat="45.81126" lon="1.79926">
        <ele>498.6</ele>
        <time>2022-08-02T09:56:02Z</time>
      </trkpt>
      <trkpt lat="45.81128" lon="1.7993">
        <ele>499.3</ele>
        <time>2022-08-02T09:56:04Z</time>
      </trkpt>
      <trkpt lat="45.81131" lon="1.79934">
        <ele>499.8</ele>
        <time>2022-08-02T09:56:06Z</time>
      </trkpt>
      <trkpt lat="45.81133" lon="1.79938">
        <ele>500.4</ele>
        <time>2022-08-02T09:56:08Z</time>
      </trkpt>
      <trkpt lat="45.81136" lon="1.79942">
        <ele>501.1</ele>
        <time>2022-08-02T09:56:10Z</time>
      </trkpt>
      <trkpt lat="45.81138" lon="1.79947">
        <ele>501.7</ele>
        <time>2022-08-02T09:56:12Z</time>
      </trkpt>
      <trkpt lat="45.81141" lon="1.79951">
        <ele>502.3</ele>
        <time>2022-08-02T09:56:14Z</time>
      </trkpt>
      <trkpt lat="45.81143" lon="1.79955">
        <ele>502.9</ele>
        <time>2022-08-02T09:56:16Z</time>
      </trkpt>
      <trkpt lat="45.81145" lon="1.7996">
        <ele>503.6</ele>
        <time>2022-08-02T09:56:18Z</time>
      </trkpt>
      <trkpt lat="45.81148" lon="1.79964">
        <ele>504.2</ele>
        <time>2022-08-02T09:56:20Z</time>
      </trkpt>
      <trkpt lat="45.81151" lon="1.79968">
        <ele>504.7</ele>
        <time>2022-08-02T09:56:22Z</time>
      </trkpt>
      <trkpt lat="45.81153" lon="1.79973">
        <ele>505.3</ele>
        <time>2022-08-02T09:56:24Z</time>
      </trkpt>
      <trkpt lat="45.81156" lon="1.79977">
        <ele>505.9</ele>
        <time>2022-08-02T09:56:26Z</time>
      </trkpt>
      <trkpt lat="45.81159" lon="1.79981">
        <ele>506.3</ele>
        <time>2022-08-02T09:56:28Z</time>
      </trkpt>
      <trkpt lat="45.81161" lon="1.79985">
        <ele>506.9</ele>
        <time>2022-08-02T09:56:30Z</time>
      </trkpt>
      <trkpt lat="45.81164" lon="1.79989">
        <ele>507.4</ele>
        <time>2022-08-02T09:56:32Z</time>
      </trkpt>
      <trkpt lat="45.81166" lon="1.79994">
        <ele>507.9</ele>
        <time>2022-08-02T09:56:34Z</time>
      </trkpt>
      <trkpt lat="45.81169" lon="1.79997">
        <ele>508.1</ele>
        <time>2022-08-02T09:56:36Z</time>
      </trkpt>
      <trkpt lat="45.81171" lon="1.80002">
        <ele>508.4</ele>
        <time>2022-08-02T09:56:38Z</time>
      </trkpt>
      <trkpt lat="45.81173" lon="1.80006">
        <ele>508.4</ele>
        <time>2022-08-02T09:56:40Z</time>
      </trkpt>
      <trkpt lat="45.81175" lon="1.8001">
        <ele>508.5</ele>
        <time>2022-08-02T09:56:42Z</time>
      </trkpt>
      <trkpt lat="45.81178" lon="1.80014">
        <ele>508.3</ele>
        <time>2022-08-02T09:56:44Z</time>
      </trkpt>
      <trkpt lat="45.81181" lon="1.80018">
        <ele>508.4</ele>
        <time>2022-08-02T09:56:46Z</time>
      </trkpt>
      <trkpt lat="45.81183" lon="1.80022">
        <ele>508.4</ele>
        <time>2022-08-02T09:56:48Z</time>
      </trkpt>
      <trkpt lat="45.81185" lon="1.80026">
        <ele>508.4</ele>
        <time>2022-08-02T09:56:50Z</time>
      </trkpt>
      <trkpt lat="45.81187" lon="1.8003">
        <ele>508.5</ele>
        <time>2022-08-02T09:56:52Z</time>
      </trkpt>
      <trkpt lat="45.81189" lon="1.80034">
        <ele>508.6</ele>
        <time>2022-08-02T09:56:54Z</time>
      </trkpt>
      <trkpt lat="45.81191" lon="1.80038">
        <ele>508.7</ele>
        <time>2022-08-02T09:56:56Z</time>
      </trkpt>
      <trkpt lat="45.81193" lon="1.80042">
        <ele>508.8</ele>
        <time>2022-08-02T09:56:58Z</time>
      </trkpt>
      <trkpt lat="45.81195" lon="1.80046">
        <ele>508.8</ele>
        <time>2022-08-02T09:57:00Z</time>
      </trkpt>
      <trkpt lat="45.81196" lon="1.8005">
        <ele>509</ele>
        <time>2022-08-02T09:57:02Z</time>
      </trkpt>
      <trkpt lat="45.81198" lon="1.80054">
        <ele>509.1</ele>
        <time>2022-08-02T09:57:04Z</time>
      </trkpt>
      <trkpt lat="45.81201" lon="1.80059">
        <ele>509.1</ele>
        <time>2022-08-02T09:57:06Z</time>
      </trkpt>
      <trkpt lat="45.81203" lon="1.80063">
        <ele>509.2</ele>
        <time>2022-08-02T09:57:08Z</time>
      </trkpt>
      <trkpt lat="45.81204" lon="1.80067">
        <ele>509.3</ele>
        <time>2022-08-02T09:57:10Z</time>
      </trkpt>
      <trkpt lat="45.81206" lon="1.80072">
        <ele>509.4</ele>
        <time>2022-08-02T09:57:12Z</time>
      </trkpt>
      <trkpt lat="45.81208" lon="1.80076">
        <ele>509.8</ele>
        <time>2022-08-02T09:57:14Z</time>
      </trkpt>
      <trkpt lat="45.8121" lon="1.80081">
        <ele>509.9</ele>
        <time>2022-08-02T09:57:16Z</time>
      </trkpt>
      <trkpt lat="45.81212" lon="1.80086">
        <ele>509.9</ele>
        <time>2022-08-02T09:57:18Z</time>
      </trkpt>
      <trkpt lat="45.81213" lon="1.80091">
        <ele>510.1</ele>
        <time>2022-08-02T09:57:20Z</time>
      </trkpt>
      <trkpt lat="45.81215" lon="1.80096">
        <ele>510.1</ele>
        <time>2022-08-02T09:57:22Z</time>
      </trkpt>
      <trkpt lat="45.81216" lon="1.80101">
        <ele>510.3</ele>
        <time>2022-08-02T09:57:24Z</time>
      </trkpt>
      <trkpt lat="45.81217" lon="1.80106">
        <ele>510.5</ele>
        <time>2022-08-02T09:57:26Z</time>
      </trkpt>
      <trkpt lat="45.81219" lon="1.80111">
        <ele>510.7</ele>
        <time>2022-08-02T09:57:28Z</time>
      </trkpt>
      <trkpt lat="45.8122" lon="1.80117">
        <ele>510.8</ele>
        <time>2022-08-02T09:57:30Z</time>
      </trkpt>
      <trkpt lat="45.81221" lon="1.80122">
        <ele>510.9</ele>
        <time>2022-08-02T09:57:32Z</time>
      </trkpt>
      <trkpt lat="45.81222" lon="1.80127">
        <ele>511.2</ele>
        <time>2022-08-02T09:57:34Z</time>
      </trkpt>
      <trkpt lat="45.81224" lon="1.80132">
        <ele>511.2</ele>
        <time>2022-08-02T09:57:36Z</time>
      </trkpt>
      <trkpt lat="45.81225" lon="1.80137">
        <ele>511.5</ele>
        <time>2022-08-02T09:57:38Z</time>
      </trkpt>
      <trkpt lat="45.81225" lon="1.80143">
        <ele>511.8</ele>
        <time>2022-08-02T09:57:40Z</time>
      </trkpt>
      <trkpt lat="45.81226" lon="1.80148">
        <ele>512.1</ele>
        <time>2022-08-02T09:57:42Z</time>
      </trkpt>
      <trkpt lat="45.81226" lon="1.80153">
        <ele>512.5</ele>
        <time>2022-08-02T09:57:44Z</time>
      </trkpt>
      <trkpt lat="45.81227" lon="1.80158">
        <ele>512.9</ele>
        <time>2022-08-02T09:57:46Z</time>
      </trkpt>
      <trkpt lat="45.81227" lon="1.80164">
        <ele>513.3</ele>
        <time>2022-08-02T09:57:48Z</time>
      </trkpt>
      <trkpt lat="45.81227" lon="1.80169">
        <ele>513.6</ele>
        <time>2022-08-02T09:57:50Z</time>
      </trkpt>
      <trkpt lat="45.81227" lon="1.80173">
        <ele>513.9</ele>
        <time>2022-08-02T09:57:52Z</time>
      </trkpt>
      <trkpt lat="45.81227" lon="1.80178">
        <ele>513.9</ele>
        <time>2022-08-02T09:57:54Z</time>
      </trkpt>
      <trkpt lat="45.81227" lon="1.80183">
        <ele>513.9</ele>
        <time>2022-08-02T09:57:56Z</time>
      </trkpt>
      <trkpt lat="45.81227" lon="1.8019">
        <ele>514.3</ele>
        <time>2022-08-02T09:57:58Z</time>
      </trkpt>
      <trkpt lat="45.81227" lon="1.80196">
        <ele>514.5</ele>
        <time>2022-08-02T09:58:00Z</time>
      </trkpt>
      <trkpt lat="45.81228" lon="1.80202">
        <ele>514.3</ele>
        <time>2022-08-02T09:58:02Z</time>
      </trkpt>
      <trkpt lat="45.81228" lon="1.80208">
        <ele>514.5</ele>
        <time>2022-08-02T09:58:04Z</time>
      </trkpt>
      <trkpt lat="45.81228" lon="1.80214">
        <ele>514.7</ele>
        <time>2022-08-02T09:58:06Z</time>
      </trkpt>
      <trkpt lat="45.81229" lon="1.80221">
        <ele>514.6</ele>
        <time>2022-08-02T09:58:08Z</time>
      </trkpt>
      <trkpt lat="45.81229" lon="1.80227">
        <ele>514.8</ele>
        <time>2022-08-02T09:58:10Z</time>
      </trkpt>
      <trkpt lat="45.81229" lon="1.80233">
        <ele>514.8</ele>
        <time>2022-08-02T09:58:12Z</time>
      </trkpt>
      <trkpt lat="45.81229" lon="1.8024">
        <ele>515</ele>
        <time>2022-08-02T09:58:14Z</time>
      </trkpt>
      <trkpt lat="45.8123" lon="1.80246">
        <ele>515</ele>
        <time>2022-08-02T09:58:16Z</time>
      </trkpt>
      <trkpt lat="45.81229" lon="1.80251">
        <ele>515.3</ele>
        <time>2022-08-02T09:58:18Z</time>
      </trkpt>
      <trkpt lat="45.81229" lon="1.80257">
        <ele>514.8</ele>
        <time>2022-08-02T09:58:20Z</time>
      </trkpt>
      <trkpt lat="45.8123" lon="1.80263">
        <ele>514.5</ele>
        <time>2022-08-02T09:58:22Z</time>
      </trkpt>
      <trkpt lat="45.8123" lon="1.80268">
        <ele>514.3</ele>
        <time>2022-08-02T09:58:24Z</time>
      </trkpt>
      <trkpt lat="45.8123" lon="1.80275">
        <ele>513.8</ele>
        <time>2022-08-02T09:58:26Z</time>
      </trkpt>
      <trkpt lat="45.81231" lon="1.80281">
        <ele>513.4</ele>
        <time>2022-08-02T09:58:28Z</time>
      </trkpt>
      <trkpt lat="45.8123" lon="1.80286">
        <ele>513.3</ele>
        <time>2022-08-02T09:58:30Z</time>
      </trkpt>
      <trkpt lat="45.8123" lon="1.80292">
        <ele>513.1</ele>
        <time>2022-08-02T09:58:32Z</time>
      </trkpt>
      <trkpt lat="45.81229" lon="1.80298">
        <ele>513</ele>
        <time>2022-08-02T09:58:34Z</time>
      </trkpt>
      <trkpt lat="45.81228" lon="1.80304">
        <ele>512.9</ele>
        <time>2022-08-02T09:58:36Z</time>
      </trkpt>
      <trkpt lat="45.81226" lon="1.8031">
        <ele>513.1</ele>
        <time>2022-08-02T09:58:38Z</time>
      </trkpt>
      <trkpt lat="45.81225" lon="1.80316">
        <ele>513.1</ele>
        <time>2022-08-02T09:58:40Z</time>
      </trkpt>
      <trkpt lat="45.81222" lon="1.80322">
        <ele>513.4</ele>
        <time>2022-08-02T09:58:42Z</time>
      </trkpt>
      <trkpt lat="45.81219" lon="1.80327">
        <ele>513.8</ele>
        <time>2022-08-02T09:58:44Z</time>
      </trkpt>
      <trkpt lat="45.81215" lon="1.80331">
        <ele>514.4</ele>
        <time>2022-08-02T09:58:46Z</time>
      </trkpt>
      <trkpt lat="45.81211" lon="1.80334">
        <ele>515</ele>
        <time>2022-08-02T09:58:48Z</time>
      </trkpt>
      <trkpt lat="45.81207" lon="1.80337">
        <ele>515.5</ele>
        <time>2022-08-02T09:58:50Z</time>
      </trkpt>
      <trkpt lat="45.81203" lon="1.8034">
        <ele>516</ele>
        <time>2022-08-02T09:58:52Z</time>
      </trkpt>
      <trkpt lat="45.812" lon="1.80341">
        <ele>516.6</ele>
        <time>2022-08-02T09:58:54Z</time>
      </trkpt>
      <trkpt lat="45.81197" lon="1.80344">
        <ele>516.9</ele>
        <time>2022-08-02T09:58:56Z</time>
      </trkpt>
      <trkpt lat="45.81193" lon="1.80345">
        <ele>517.6</ele>
        <time>2022-08-02T09:58:58Z</time>
      </trkpt>
      <trkpt lat="45.8119" lon="1.80347">
        <ele>518.1</ele>
        <time>2022-08-02T09:59:00Z</time>
      </trkpt>
      <trkpt lat="45.81186" lon="1.80348">
        <ele>518.7</ele>
        <time>2022-08-02T09:59:02Z</time>
      </trkpt>
      <trkpt lat="45.81183" lon="1.80349">
        <ele>519.2</ele>
        <time>2022-08-02T09:59:04Z</time>
      </trkpt>
      <trkpt lat="45.81179" lon="1.8035">
        <ele>519.7</ele>
        <time>2022-08-02T09:59:06Z</time>
      </trkpt>
      <trkpt lat="45.81176" lon="1.80352">
        <ele>520.3</ele>
        <time>2022-08-02T09:59:08Z</time>
      </trkpt>
      <trkpt lat="45.81173" lon="1.80353">
        <ele>520.8</ele>
        <time>2022-08-02T09:59:10Z</time>
      </trkpt>
      <trkpt lat="45.81169" lon="1.80355">
        <ele>521.2</ele>
        <time>2022-08-02T09:59:12Z</time>
      </trkpt>
      <trkpt lat="45.81166" lon="1.80358">
        <ele>521.4</ele>
        <time>2022-08-02T09:59:14Z</time>
      </trkpt>
      <trkpt lat="45.81164" lon="1.8036">
        <ele>521.6</ele>
        <time>2022-08-02T09:59:16Z</time>
      </trkpt>
      <trkpt lat="45.8116" lon="1.80363">
        <ele>521.8</ele>
        <time>2022-08-02T09:59:18Z</time>
      </trkpt>
      <trkpt lat="45.81157" lon="1.80366">
        <ele>521.9</ele>
        <time>2022-08-02T09:59:20Z</time>
      </trkpt>
      <trkpt lat="45.81154" lon="1.80369">
        <ele>522.1</ele>
        <time>2022-08-02T09:59:22Z</time>
      </trkpt>
      <trkpt lat="45.81152" lon="1.80374">
        <ele>522.2</ele>
        <time>2022-08-02T09:59:24Z</time>
      </trkpt>
      <trkpt lat="45.81149" lon="1.80378">
        <ele>522.1</ele>
        <time>2022-08-02T09:59:26Z</time>
      </trkpt>
      <trkpt lat="45.81147" lon="1.80382">
        <ele>522.1</ele>
        <time>2022-08-02T09:59:28Z</time>
      </trkpt>
      <trkpt lat="45.81145" lon="1.80386">
        <ele>522</ele>
        <time>2022-08-02T09:59:30Z</time>
      </trkpt>
      <trkpt lat="45.81143" lon="1.8039">
        <ele>521.9</ele>
        <time>2022-08-02T09:59:32Z</time>
      </trkpt>
      <trkpt lat="45.81141" lon="1.80394">
        <ele>521.8</ele>
        <time>2022-08-02T09:59:34Z</time>
      </trkpt>
      <trkpt lat="45.81139" lon="1.80399">
        <ele>521.7</ele>
        <time>2022-08-02T09:59:36Z</time>
      </trkpt>
      <trkpt lat="45.81138" lon="1.80403">
        <ele>521.5</ele>
        <time>2022-08-02T09:59:38Z</time>
      </trkpt>
      <trkpt lat="45.81137" lon="1.80408">
        <ele>521.3</ele>
        <time>2022-08-02T09:59:40Z</time>
      </trkpt>
      <trkpt lat="45.81135" lon="1.80412">
        <ele>521.1</ele>
        <time>2022-08-02T09:59:42Z</time>
      </trkpt>
      <trkpt lat="45.81134" lon="1.80417">
        <ele>520.9</ele>
        <time>2022-08-02T09:59:44Z</time>
      </trkpt>
      <trkpt lat="45.81133" lon="1.80422">
        <ele>521.4</ele>
        <time>2022-08-02T09:59:46Z</time>
      </trkpt>
      <trkpt lat="45.81132" lon="1.80427">
        <ele>521.8</ele>
        <time>2022-08-02T09:59:48Z</time>
      </trkpt>
      <trkpt lat="45.81131" lon="1.80432">
        <ele>522.3</ele>
        <time>2022-08-02T09:59:50Z</time>
      </trkpt>
      <trkpt lat="45.8113" lon="1.80437">
        <ele>522.8</ele>
        <time>2022-08-02T09:59:52Z</time>
      </trkpt>
      <trkpt lat="45.8113" lon="1.80442">
        <ele>523.1</ele>
        <time>2022-08-02T09:59:54Z</time>
      </trkpt>
      <trkpt lat="45.8113" lon="1.80447">
        <ele>523.4</ele>
        <time>2022-08-02T09:59:56Z</time>
      </trkpt>
      <trkpt lat="45.8113" lon="1.80452">
        <ele>523.7</ele>
        <time>2022-08-02T09:59:58Z</time>
      </trkpt>
      <trkpt lat="45.81131" lon="1.80457">
        <ele>524</ele>
        <time>2022-08-02T10:00:00Z</time>
      </trkpt>
      <trkpt lat="45.81132" lon="1.80462">
        <ele>524.1</ele>
        <time>2022-08-02T10:00:02Z</time>
      </trkpt>
      <trkpt lat="45.81133" lon="1.80467">
        <ele>524.1</ele>
        <time>2022-08-02T10:00:04Z</time>
      </trkpt>
      <trkpt lat="45.81135" lon="1.80472">
        <ele>524.2</ele>
        <time>2022-08-02T10:00:06Z</time>
      </trkpt>
      <trkpt lat="45.81136" lon="1.80476">
        <ele>524.3</ele>
        <time>2022-08-02T10:00:08Z</time>
      </trkpt>
      <trkpt lat="45.81138" lon="1.80481">
        <ele>524.3</ele>
        <time>2022-08-02T10:00:10Z</time>
      </trkpt>
      <trkpt lat="45.8114" lon="1.80486">
        <ele>524.3</ele>
        <time>2022-08-02T10:00:12Z</time>
      </trkpt>
      <trkpt lat="45.81141" lon="1.80491">
        <ele>524.3</ele>
        <time>2022-08-02T10:00:14Z</time>
      </trkpt>
      <trkpt lat="45.81144" lon="1.80496">
        <ele>524.3</ele>
        <time>2022-08-02T10:00:16Z</time>
      </trkpt>
      <trkpt lat="45.81146" lon="1.80501">
        <ele>524.4</ele>
        <time>2022-08-02T10:00:18Z</time>
      </trkpt>
      <trkpt lat="45.81147" lon="1.80505">
        <ele>524.9</ele>
        <time>2022-08-02T10:00:20Z</time>
      </trkpt>
      <trkpt lat="45.81149" lon="1.8051">
        <ele>525.4</ele>
        <time>2022-08-02T10:00:22Z</time>
      </trkpt>
      <trkpt lat="45.81151" lon="1.80514">
        <ele>526</ele>
        <time>2022-08-02T10:00:24Z</time>
      </trkpt>
      <trkpt lat="45.81153" lon="1.80519">
        <ele>526.6</ele>
        <time>2022-08-02T10:00:26Z</time>
      </trkpt>
      <trkpt lat="45.81156" lon="1.80524">
        <ele>527.1</ele>
        <time>2022-08-02T10:00:28Z</time>
      </trkpt>
      <trkpt lat="45.81158" lon="1.80529">
        <ele>527.7</ele>
        <time>2022-08-02T10:00:30Z</time>
      </trkpt>
      <trkpt lat="45.8116" lon="1.80533">
        <ele>528.2</ele>
        <time>2022-08-02T10:00:32Z</time>
      </trkpt>
      <trkpt lat="45.81162" lon="1.80538">
        <ele>528.9</ele>
        <time>2022-08-02T10:00:34Z</time>
      </trkpt>
      <trkpt lat="45.81164" lon="1.80542">
        <ele>529.5</ele>
        <time>2022-08-02T10:00:36Z</time>
      </trkpt>
      <trkpt lat="45.81166" lon="1.80547">
        <ele>530</ele>
        <time>2022-08-02T10:00:38Z</time>
      </trkpt>
      <trkpt lat="45.81168" lon="1.80551">
        <ele>530.7</ele>
        <time>2022-08-02T10:00:40Z</time>
      </trkpt>
      <trkpt lat="45.8117" lon="1.80556">
        <ele>531.1</ele>
        <time>2022-08-02T10:00:42Z</time>
      </trkpt>
      <trkpt lat="45.81173" lon="1.80559">
        <ele>531.2</ele>
        <time>2022-08-02T10:00:44Z</time>
      </trkpt>
      <trkpt lat="45.81174" lon="1.80564">
        <ele>531.7</ele>
        <time>2022-08-02T10:00:46Z</time>
      </trkpt>
      <trkpt lat="45.81176" lon="1.80568">
        <ele>532.1</ele>
        <time>2022-08-02T10:00:48Z</time>
      </trkpt>
      <trkpt lat="45.81178" lon="1.80572">
        <ele>532.6</ele>
        <time>2022-08-02T10:00:50Z</time>
      </trkpt>
      <trkpt lat="45.81179" lon="1.80577">
        <ele>533.1</ele>
        <time>2022-08-02T10:00:52Z</time>
      </trkpt>
      <trkpt lat="45.81181" lon="1.80581">
        <ele>533.5</ele>
        <time>2022-08-02T10:00:54Z</time>
      </trkpt>
      <trkpt lat="45.81183" lon="1.80586">
        <ele>533.7</ele>
        <time>2022-08-02T10:00:56Z</time>
      </trkpt>
      <trkpt lat="45.81185" lon="1.8059">
        <ele>533.6</ele>
        <time>2022-08-02T10:00:58Z</time>
      </trkpt>
      <trkpt lat="45.81186" lon="1.80595">
        <ele>533.6</ele>
        <time>2022-08-02T10:01:00Z</time>
      </trkpt>
      <trkpt lat="45.81187" lon="1.806">
        <ele>533.8</ele>
        <time>2022-08-02T10:01:02Z</time>
      </trkpt>
      <trkpt lat="45.81189" lon="1.80604">
        <ele>533.7</ele>
        <time>2022-08-02T10:01:04Z</time>
      </trkpt>
      <trkpt lat="45.8119" lon="1.80609">
        <ele>533.9</ele>
        <time>2022-08-02T10:01:06Z</time>
      </trkpt>
      <trkpt lat="45.81191" lon="1.80614">
        <ele>534</ele>
        <time>2022-08-02T10:01:08Z</time>
      </trkpt>
      <trkpt lat="45.81192" lon="1.80619">
        <ele>534.1</ele>
        <time>2022-08-02T10:01:10Z</time>
      </trkpt>
      <trkpt lat="45.81193" lon="1.80623">
        <ele>534.3</ele>
        <time>2022-08-02T10:01:12Z</time>
      </trkpt>
      <trkpt lat="45.81194" lon="1.80628">
        <ele>534.5</ele>
        <time>2022-08-02T10:01:14Z</time>
      </trkpt>
      <trkpt lat="45.81195" lon="1.80632">
        <ele>534.6</ele>
        <time>2022-08-02T10:01:16Z</time>
      </trkpt>
      <trkpt lat="45.81196" lon="1.80637">
        <ele>534.8</ele>
        <time>2022-08-02T10:01:18Z</time>
      </trkpt>
      <trkpt lat="45.81198" lon="1.80641">
        <ele>534.8</ele>
        <time>2022-08-02T10:01:20Z</time>
      </trkpt>
      <trkpt lat="45.812" lon="1.80646">
        <ele>534.7</ele>
        <time>2022-08-02T10:01:22Z</time>
      </trkpt>
      <trkpt lat="45.81201" lon="1.80651">
        <ele>534.8</ele>
        <time>2022-08-02T10:01:24Z</time>
      </trkpt>
      <trkpt lat="45.81202" lon="1.80656">
        <ele>535</ele>
        <time>2022-08-02T10:01:26Z</time>
      </trkpt>
      <trkpt lat="45.81203" lon="1.80661">
        <ele>535</ele>
        <time>2022-08-02T10:01:28Z</time>
      </trkpt>
      <trkpt lat="45.81205" lon="1.80665">
        <ele>535.1</ele>
        <time>2022-08-02T10:01:30Z</time>
      </trkpt>
      <trkpt lat="45.81206" lon="1.8067">
        <ele>535.3</ele>
        <time>2022-08-02T10:01:32Z</time>
      </trkpt>
      <trkpt lat="45.81208" lon="1.80674">
        <ele>535.5</ele>
        <time>2022-08-02T10:01:34Z</time>
      </trkpt>
      <trkpt lat="45.8121" lon="1.80679">
        <ele>535.7</ele>
        <time>2022-08-02T10:01:36Z</time>
      </trkpt>
      <trkpt lat="45.81213" lon="1.80682">
        <ele>535.7</ele>
        <time>2022-08-02T10:01:38Z</time>
      </trkpt>
      <trkpt lat="45.81216" lon="1.80686">
        <ele>535.7</ele>
        <time>2022-08-02T10:01:40Z</time>
      </trkpt>
      <trkpt lat="45.81218" lon="1.8069">
        <ele>535.9</ele>
        <time>2022-08-02T10:01:42Z</time>
      </trkpt>
      <trkpt lat="45.8122" lon="1.80694">
        <ele>536.1</ele>
        <time>2022-08-02T10:01:44Z</time>
      </trkpt>
      <trkpt lat="45.81223" lon="1.80697">
        <ele>535.9</ele>
        <time>2022-08-02T10:01:46Z</time>
      </trkpt>
      <trkpt lat="45.81226" lon="1.807">
        <ele>536</ele>
        <time>2022-08-02T10:01:48Z</time>
      </trkpt>
      <trkpt lat="45.81228" lon="1.80704">
        <ele>536.2</ele>
        <time>2022-08-02T10:01:50Z</time>
      </trkpt>
      <trkpt lat="45.81231" lon="1.80707">
        <ele>536.3</ele>
        <time>2022-08-02T10:01:52Z</time>
      </trkpt>
      <trkpt lat="45.81234" lon="1.80711">
        <ele>536.4</ele>
        <time>2022-08-02T10:01:54Z</time>
      </trkpt>
      <trkpt lat="45.81237" lon="1.80714">
        <ele>536.4</ele>
        <time>2022-08-02T10:01:56Z</time>
      </trkpt>
      <trkpt lat="45.81239" lon="1.80717">
        <ele>536.7</ele>
        <time>2022-08-02T10:01:58Z</time>
      </trkpt>
      <trkpt lat="45.81242" lon="1.80721">
        <ele>536.8</ele>
        <time>2022-08-02T10:02:00Z</time>
      </trkpt>
      <trkpt lat="45.81245" lon="1.80724">
        <ele>537</ele>
        <time>2022-08-02T10:02:02Z</time>
      </trkpt>
      <trkpt lat="45.81249" lon="1.80728">
        <ele>537.3</ele>
        <time>2022-08-02T10:02:04Z</time>
      </trkpt>
      <trkpt lat="45.81252" lon="1.80732">
        <ele>537.5</ele>
        <time>2022-08-02T10:02:06Z</time>
      </trkpt>
      <trkpt lat="45.81255" lon="1.80736">
        <ele>537.6</ele>
        <time>2022-08-02T10:02:08Z</time>
      </trkpt>
      <trkpt lat="45.81258" lon="1.80739">
        <ele>537.8</ele>
        <time>2022-08-02T10:02:10Z</time>
      </trkpt>
      <trkpt lat="45.81261" lon="1.80743">
        <ele>538.1</ele>
        <time>2022-08-02T10:02:12Z</time>
      </trkpt>
      <trkpt lat="45.81264" lon="1.80747">
        <ele>538.3</ele>
        <time>2022-08-02T10:02:14Z</time>
      </trkpt>
      <trkpt lat="45.81267" lon="1.8075">
        <ele>538.3</ele>
        <time>2022-08-02T10:02:16Z</time>
      </trkpt>
      <trkpt lat="45.8127" lon="1.80753">
        <ele>538.2</ele>
        <time>2022-08-02T10:02:18Z</time>
      </trkpt>
      <trkpt lat="45.81273" lon="1.80757">
        <ele>538</ele>
        <time>2022-08-02T10:02:20Z</time>
      </trkpt>
      <trkpt lat="45.81276" lon="1.8076">
        <ele>537.8</ele>
        <time>2022-08-02T10:02:22Z</time>
      </trkpt>
      <trkpt lat="45.81279" lon="1.80764">
        <ele>537.6</ele>
        <time>2022-08-02T10:02:24Z</time>
      </trkpt>
      <trkpt lat="45.81282" lon="1.80767">
        <ele>537.4</ele>
        <time>2022-08-02T10:02:26Z</time>
      </trkpt>
      <trkpt lat="45.81284" lon="1.80771">
        <ele>537.2</ele>
        <time>2022-08-02T10:02:28Z</time>
      </trkpt>
      <trkpt lat="45.81287" lon="1.80775">
        <ele>536.9</ele>
        <time>2022-08-02T10:02:30Z</time>
      </trkpt>
      <trkpt lat="45.8129" lon="1.80778">
        <ele>536.7</ele>
        <time>2022-08-02T10:02:32Z</time>
      </trkpt>
      <trkpt lat="45.81293" lon="1.80783">
        <ele>536.5</ele>
        <time>2022-08-02T10:02:34Z</time>
      </trkpt>
      <trkpt lat="45.81295" lon="1.80787">
        <ele>536.3</ele>
        <time>2022-08-02T10:02:36Z</time>
      </trkpt>
      <trkpt lat="45.81297" lon="1.80792">
        <ele>536.3</ele>
        <time>2022-08-02T10:02:38Z</time>
      </trkpt>
      <trkpt lat="45.81298" lon="1.80797">
        <ele>536.3</ele>
        <time>2022-08-02T10:02:40Z</time>
      </trkpt>
      <trkpt lat="45.81299" lon="1.80802">
        <ele>536.5</ele>
        <time>2022-08-02T10:02:42Z</time>
      </trkpt>
      <trkpt lat="45.813" lon="1.80807">
        <ele>536.5</ele>
        <time>2022-08-02T10:02:44Z</time>
      </trkpt>
      <trkpt lat="45.81299" lon="1.80812">
        <ele>536.9</ele>
        <time>2022-08-02T10:02:46Z</time>
      </trkpt>
      <trkpt lat="45.81299" lon="1.80818">
        <ele>537.3</ele>
        <time>2022-08-02T10:02:48Z</time>
      </trkpt>
      <trkpt lat="45.81298" lon="1.80823">
        <ele>537.9</ele>
        <time>2022-08-02T10:02:50Z</time>
      </trkpt>
      <trkpt lat="45.81296" lon="1.80828">
        <ele>538.6</ele>
        <time>2022-08-02T10:02:52Z</time>
      </trkpt>
      <trkpt lat="45.81294" lon="1.80833">
        <ele>539.4</ele>
        <time>2022-08-02T10:02:54Z</time>
      </trkpt>
      <trkpt lat="45.81292" lon="1.80837">
        <ele>539.7</ele>
        <time>2022-08-02T10:02:56Z</time>
      </trkpt>
      <trkpt lat="45.81289" lon="1.80841">
        <ele>540</ele>
        <time>2022-08-02T10:02:58Z</time>
      </trkpt>
      <trkpt lat="45.81286" lon="1.80845">
        <ele>540.3</ele>
        <time>2022-08-02T10:03:00Z</time>
      </trkpt>
      <trkpt lat="45.81283" lon="1.80848">
        <ele>540.8</ele>
        <time>2022-08-02T10:03:02Z</time>
      </trkpt>
      <trkpt lat="45.8128" lon="1.80851">
        <ele>541.2</ele>
        <time>2022-08-02T10:03:04Z</time>
      </trkpt>
      <trkpt lat="45.81277" lon="1.80854">
        <ele>541.8</ele>
        <time>2022-08-02T10:03:06Z</time>
      </trkpt>
      <trkpt lat="45.81274" lon="1.80857">
        <ele>542.2</ele>
        <time>2022-08-02T10:03:08Z</time>
      </trkpt>
      <trkpt lat="45.81272" lon="1.8086">
        <ele>542.7</ele>
        <time>2022-08-02T10:03:10Z</time>
      </trkpt>
      <trkpt lat="45.81269" lon="1.80863">
        <ele>543.1</ele>
        <time>2022-08-02T10:03:12Z</time>
      </trkpt>
      <trkpt lat="45.81266" lon="1.80867">
        <ele>543.6</ele>
        <time>2022-08-02T10:03:14Z</time>
      </trkpt>
      <trkpt lat="45.81262" lon="1.80869">
        <ele>544.3</ele>
        <time>2022-08-02T10:03:16Z</time>
      </trkpt>
      <trkpt lat="45.8126" lon="1.80873">
        <ele>544.5</ele>
        <time>2022-08-02T10:03:18Z</time>
      </trkpt>
      <trkpt lat="45.81257" lon="1.80877">
        <ele>545.1</ele>
        <time>2022-08-02T10:03:20Z</time>
      </trkpt>
      <trkpt lat="45.81254" lon="1.8088">
        <ele>545.7</ele>
        <time>2022-08-02T10:03:22Z</time>
      </trkpt>
      <trkpt lat="45.81252" lon="1.80884">
        <ele>545.9</ele>
        <time>2022-08-02T10:03:24Z</time>
      </trkpt>
      <trkpt lat="45.8125" lon="1.80888">
        <ele>546.1</ele>
        <time>2022-08-02T10:03:26Z</time>
      </trkpt>
      <trkpt lat="45.81247" lon="1.80892">
        <ele>546.4</ele>
        <time>2022-08-02T10:03:28Z</time>
      </trkpt>
      <trkpt lat="45.81244" lon="1.80896">
        <ele>546.6</ele>
        <time>2022-08-02T10:03:30Z</time>
      </trkpt>
      <trkpt lat="45.81243" lon="1.80901">
        <ele>546.6</ele>
        <time>2022-08-02T10:03:32Z</time>
      </trkpt>
      <trkpt lat="45.8124" lon="1.80902">
        <ele>547.2</ele>
        <time>2022-08-02T10:03:34Z</time>
      </trkpt>
      <trkpt lat="45.81238" lon="1.80907">
        <ele>547.3</ele>
        <time>2022-08-02T10:03:36Z</time>
      </trkpt>
      <trkpt lat="45.81237" lon="1.80913">
        <ele>547.2</ele>
        <time>2022-08-02T10:03:38Z</time>
      </trkpt>
      <trkpt lat="45.81234" lon="1.80917">
        <ele>547.5</ele>
        <time>2022-08-02T10:03:40Z</time>
      </trkpt>
      <trkpt lat="45.81232" lon="1.80921">
        <ele>547.7</ele>
        <time>2022-08-02T10:03:42Z</time>
      </trkpt>
      <trkpt lat="45.8123" lon="1.80925">
        <ele>547.6</ele>
        <time>2022-08-02T10:03:44Z</time>
      </trkpt>
      <trkpt lat="45.81228" lon="1.8093">
        <ele>547.5</ele>
        <time>2022-08-02T10:03:46Z</time>
      </trkpt>
      <trkpt lat="45.81226" lon="1.80935">
        <ele>547.6</ele>
        <time>2022-08-02T10:03:48Z</time>
      </trkpt>
      <trkpt lat="45.81224" lon="1.8094">
        <ele>547.6</ele>
        <time>2022-08-02T10:03:50Z</time>
      </trkpt>
      <trkpt lat="45.81221" lon="1.80945">
        <ele>547.7</ele>
        <time>2022-08-02T10:03:52Z</time>
      </trkpt>
      <trkpt lat="45.81219" lon="1.80949">
        <ele>547.9</ele>
        <time>2022-08-02T10:03:54Z</time>
      </trkpt>
      <trkpt lat="45.81217" lon="1.80953">
        <ele>548.1</ele>
        <time>2022-08-02T10:03:56Z</time>
      </trkpt>
      <trkpt lat="45.81215" lon="1.80957">
        <ele>548.3</ele>
        <time>2022-08-02T10:03:58Z</time>
      </trkpt>
      <trkpt lat="45.81214" lon="1.80964">
        <ele>548</ele>
        <time>2022-08-02T10:04:00Z</time>
      </trkpt>
      <trkpt lat="45.8121" lon="1.80967">
        <ele>548.6</ele>
        <time>2022-08-02T10:04:02Z</time>
      </trkpt>
      <trkpt lat="45.81208" lon="1.80973">
        <ele>548.7</ele>
        <time>2022-08-02T10:04:04Z</time>
      </trkpt>
      <trkpt lat="45.81206" lon="1.80979">
        <ele>548.9</ele>
        <time>2022-08-02T10:04:06Z</time>
      </trkpt>
      <trkpt lat="45.81204" lon="1.80985">
        <ele>549.2</ele>
        <time>2022-08-02T10:04:08Z</time>
      </trkpt>
      <trkpt lat="45.81201" lon="1.80989">
        <ele>549.5</ele>
        <time>2022-08-02T10:04:10Z</time>
      </trkpt>
      <trkpt lat="45.81199" lon="1.80994">
        <ele>549.9</ele>
        <time>2022-08-02T10:04:12Z</time>
      </trkpt>
      <trkpt lat="45.81196" lon="1.80999">
        <ele>550.5</ele>
        <time>2022-08-02T10:04:14Z</time>
      </trkpt>
      <trkpt lat="45.81194" lon="1.81004">
        <ele>550.8</ele>
        <time>2022-08-02T10:04:16Z</time>
      </trkpt>
      <trkpt lat="45.81192" lon="1.81009">
        <ele>551.1</ele>
        <time>2022-08-02T10:04:18Z</time>
      </trkpt>
      <trkpt lat="45.8119" lon="1.81012">
        <ele>551.8</ele>
        <time>2022-08-02T10:04:20Z</time>
      </trkpt>
      <trkpt lat="45.81187" lon="1.81016">
        <ele>552.2</ele>
        <time>2022-08-02T10:04:22Z</time>
      </trkpt>
      <trkpt lat="45.81185" lon="1.81021">
        <ele>552.5</ele>
        <time>2022-08-02T10:04:24Z</time>
      </trkpt>
      <trkpt lat="45.81183" lon="1.81026">
        <ele>552.9</ele>
        <time>2022-08-02T10:04:26Z</time>
      </trkpt>
      <trkpt lat="45.81181" lon="1.8103">
        <ele>553.2</ele>
        <time>2022-08-02T10:04:28Z</time>
      </trkpt>
      <trkpt lat="45.81179" lon="1.81035">
        <ele>553.3</ele>
        <time>2022-08-02T10:04:30Z</time>
      </trkpt>
      <trkpt lat="45.81177" lon="1.81039">
        <ele>553.6</ele>
        <time>2022-08-02T10:04:32Z</time>
      </trkpt>
      <trkpt lat="45.81175" lon="1.81044">
        <ele>553.9</ele>
        <time>2022-08-02T10:04:34Z</time>
      </trkpt>
      <trkpt lat="45.81173" lon="1.81047">
        <ele>554.1</ele>
        <time>2022-08-02T10:04:36Z</time>
      </trkpt>
      <trkpt lat="45.81171" lon="1.81051">
        <ele>554.6</ele>
        <time>2022-08-02T10:04:38Z</time>
      </trkpt>
      <trkpt lat="45.81169" lon="1.81056">
        <ele>554.7</ele>
        <time>2022-08-02T10:04:40Z</time>
      </trkpt>
      <trkpt lat="45.81166" lon="1.81059">
        <ele>555.4</ele>
        <time>2022-08-02T10:04:42Z</time>
      </trkpt>
      <trkpt lat="45.81165" lon="1.81064">
        <ele>555.9</ele>
        <time>2022-08-02T10:04:44Z</time>
      </trkpt>
      <trkpt lat="45.81163" lon="1.81068">
        <ele>556.5</ele>
        <time>2022-08-02T10:04:46Z</time>
      </trkpt>
      <trkpt lat="45.8116" lon="1.81072">
        <ele>557.6</ele>
        <time>2022-08-02T10:04:48Z</time>
      </trkpt>
      <trkpt lat="45.81158" lon="1.81076">
        <ele>558.8</ele>
        <time>2022-08-02T10:04:50Z</time>
      </trkpt>
      <trkpt lat="45.81155" lon="1.8108">
        <ele>559.8</ele>
        <time>2022-08-02T10:04:52Z</time>
      </trkpt>
      <trkpt lat="45.81154" lon="1.81085">
        <ele>560.3</ele>
        <time>2022-08-02T10:04:54Z</time>
      </trkpt>
      <trkpt lat="45.81152" lon="1.8109">
        <ele>560.9</ele>
        <time>2022-08-02T10:04:56Z</time>
      </trkpt>
      <trkpt lat="45.81151" lon="1.81095">
        <ele>561</ele>
        <time>2022-08-02T10:04:58Z</time>
      </trkpt>
      <trkpt lat="45.81149" lon="1.81098">
        <ele>561.4</ele>
        <time>2022-08-02T10:05:00Z</time>
      </trkpt>
      <trkpt lat="45.81147" lon="1.81104">
        <ele>561.8</ele>
        <time>2022-08-02T10:05:02Z</time>
      </trkpt>
      <trkpt lat="45.81146" lon="1.81109">
        <ele>562.1</ele>
        <time>2022-08-02T10:05:04Z</time>
      </trkpt>
      <trkpt lat="45.81144" lon="1.81114">
        <ele>562.4</ele>
        <time>2022-08-02T10:05:06Z</time>
      </trkpt>
      <trkpt lat="45.81143" lon="1.81119">
        <ele>562.5</ele>
        <time>2022-08-02T10:05:08Z</time>
      </trkpt>
      <trkpt lat="45.81141" lon="1.81124">
        <ele>562.6</ele>
        <time>2022-08-02T10:05:10Z</time>
      </trkpt>
      <trkpt lat="45.8114" lon="1.81129">
        <ele>562.6</ele>
        <time>2022-08-02T10:05:12Z</time>
      </trkpt>
      <trkpt lat="45.81139" lon="1.81134">
        <ele>562.2</ele>
        <time>2022-08-02T10:05:14Z</time>
      </trkpt>
      <trkpt lat="45.81138" lon="1.8114">
        <ele>562</ele>
        <time>2022-08-02T10:05:16Z</time>
      </trkpt>
      <trkpt lat="45.81136" lon="1.81144">
        <ele>562.1</ele>
        <time>2022-08-02T10:05:18Z</time>
      </trkpt>
      <trkpt lat="45.81135" lon="1.8115">
        <ele>561.9</ele>
        <time>2022-08-02T10:05:20Z</time>
      </trkpt>
      <trkpt lat="45.81133" lon="1.81155">
        <ele>561.9</ele>
        <time>2022-08-02T10:05:22Z</time>
      </trkpt>
      <trkpt lat="45.81132" lon="1.81161">
        <ele>561.6</ele>
        <time>2022-08-02T10:05:24Z</time>
      </trkpt>
      <trkpt lat="45.81131" lon="1.81168">
        <ele>561</ele>
        <time>2022-08-02T10:05:26Z</time>
      </trkpt>
      <trkpt lat="45.8113" lon="1.81173">
        <ele>561.1</ele>
        <time>2022-08-02T10:05:28Z</time>
      </trkpt>
      <trkpt lat="45.81129" lon="1.81179">
        <ele>561.3</ele>
        <time>2022-08-02T10:05:30Z</time>
      </trkpt>
      <trkpt lat="45.81127" lon="1.81185">
        <ele>561.6</ele>
        <time>2022-08-02T10:05:32Z</time>
      </trkpt>
      <trkpt lat="45.81124" lon="1.8119">
        <ele>562.3</ele>
        <time>2022-08-02T10:05:34Z</time>
      </trkpt>
      <trkpt lat="45.81122" lon="1.81196">
        <ele>562.4</ele>
        <time>2022-08-02T10:05:36Z</time>
      </trkpt>
      <trkpt lat="45.81119" lon="1.81201">
        <ele>562.9</ele>
        <time>2022-08-02T10:05:38Z</time>
      </trkpt>
      <trkpt lat="45.81115" lon="1.81205">
        <ele>563.5</ele>
        <time>2022-08-02T10:05:40Z</time>
      </trkpt>
      <trkpt lat="45.81112" lon="1.81208">
        <ele>564</ele>
        <time>2022-08-02T10:05:42Z</time>
      </trkpt>
      <trkpt lat="45.81108" lon="1.81211">
        <ele>564.8</ele>
        <time>2022-08-02T10:05:44Z</time>
      </trkpt>
      <trkpt lat="45.81104" lon="1.81214">
        <ele>565.5</ele>
        <time>2022-08-02T10:05:46Z</time>
      </trkpt>
      <trkpt lat="45.811" lon="1.81217">
        <ele>566.1</ele>
        <time>2022-08-02T10:05:48Z</time>
      </trkpt>
      <trkpt lat="45.81096" lon="1.81222">
        <ele>566.3</ele>
        <time>2022-08-02T10:05:50Z</time>
      </trkpt>
      <trkpt lat="45.81092" lon="1.81224">
        <ele>566.8</ele>
        <time>2022-08-02T10:05:52Z</time>
      </trkpt>
      <trkpt lat="45.81089" lon="1.81228">
        <ele>567.2</ele>
        <time>2022-08-02T10:05:54Z</time>
      </trkpt>
      <trkpt lat="45.81085" lon="1.81229">
        <ele>567.6</ele>
        <time>2022-08-02T10:05:56Z</time>
      </trkpt>
      <trkpt lat="45.81081" lon="1.81231">
        <ele>568</ele>
        <time>2022-08-02T10:05:58Z</time>
      </trkpt>
      <trkpt lat="45.81077" lon="1.81233">
        <ele>568.1</ele>
        <time>2022-08-02T10:06:00Z</time>
      </trkpt>
      <trkpt lat="45.81074" lon="1.81236">
        <ele>567.9</ele>
        <time>2022-08-02T10:06:02Z</time>
      </trkpt>
      <trkpt lat="45.81071" lon="1.81237">
        <ele>568.1</ele>
        <time>2022-08-02T10:06:04Z</time>
      </trkpt>
      <trkpt lat="45.81067" lon="1.8124">
        <ele>568</ele>
        <time>2022-08-02T10:06:06Z</time>
      </trkpt>
      <trkpt lat="45.81064" lon="1.81242">
        <ele>568.1</ele>
        <time>2022-08-02T10:06:08Z</time>
      </trkpt>
      <trkpt lat="45.81059" lon="1.81244">
        <ele>568.2</ele>
        <time>2022-08-02T10:06:10Z</time>
      </trkpt>
      <trkpt lat="45.81056" lon="1.81247">
        <ele>568.1</ele>
        <time>2022-08-02T10:06:12Z</time>
      </trkpt>
      <trkpt lat="45.81053" lon="1.81249">
        <ele>567.9</ele>
        <time>2022-08-02T10:06:14Z</time>
      </trkpt>
      <trkpt lat="45.81049" lon="1.81251">
        <ele>568.1</ele>
        <time>2022-08-02T10:06:16Z</time>
      </trkpt>
      <trkpt lat="45.81045" lon="1.81252">
        <ele>568.5</ele>
        <time>2022-08-02T10:06:18Z</time>
      </trkpt>
      <trkpt lat="45.81042" lon="1.81254">
        <ele>568.7</ele>
        <time>2022-08-02T10:06:20Z</time>
      </trkpt>
      <trkpt lat="45.81038" lon="1.81256">
        <ele>569</ele>
        <time>2022-08-02T10:06:22Z</time>
      </trkpt>
      <trkpt lat="45.81036" lon="1.81257">
        <ele>569.2</ele>
        <time>2022-08-02T10:06:24Z</time>
      </trkpt>
      <trkpt lat="45.81032" lon="1.81259">
        <ele>569.4</ele>
        <time>2022-08-02T10:06:26Z</time>
      </trkpt>
      <trkpt lat="45.81029" lon="1.81262">
        <ele>569.5</ele>
        <time>2022-08-02T10:06:28Z</time>
      </trkpt>
      <trkpt lat="45.81026" lon="1.81264">
        <ele>569.6</ele>
        <time>2022-08-02T10:06:30Z</time>
      </trkpt>
      <trkpt lat="45.81023" lon="1.81265">
        <ele>569.8</ele>
        <time>2022-08-02T10:06:32Z</time>
      </trkpt>
      <trkpt lat="45.8102" lon="1.81266">
        <ele>570</ele>
        <time>2022-08-02T10:06:34Z</time>
      </trkpt>
      <trkpt lat="45.81017" lon="1.81267">
        <ele>570.2</ele>
        <time>2022-08-02T10:06:36Z</time>
      </trkpt>
      <trkpt lat="45.81013" lon="1.81269">
        <ele>570.3</ele>
        <time>2022-08-02T10:06:38Z</time>
      </trkpt>
      <trkpt lat="45.81011" lon="1.8127">
        <ele>570.4</ele>
        <time>2022-08-02T10:06:40Z</time>
      </trkpt>
      <trkpt lat="45.81007" lon="1.81272">
        <ele>570.4</ele>
        <time>2022-08-02T10:06:42Z</time>
      </trkpt>
      <trkpt lat="45.81004" lon="1.81275">
        <ele>570.4</ele>
        <time>2022-08-02T10:06:44Z</time>
      </trkpt>
      <trkpt lat="45.81001" lon="1.81277">
        <ele>570.4</ele>
        <time>2022-08-02T10:06:46Z</time>
      </trkpt>
      <trkpt lat="45.80997" lon="1.81278">
        <ele>571.1</ele>
        <time>2022-08-02T10:06:48Z</time>
      </trkpt>
      <trkpt lat="45.80995" lon="1.81279">
        <ele>571.6</ele>
        <time>2022-08-02T10:06:50Z</time>
      </trkpt>
      <trkpt lat="45.80992" lon="1.81281">
        <ele>572.2</ele>
        <time>2022-08-02T10:06:52Z</time>
      </trkpt>
      <trkpt lat="45.80989" lon="1.81282">
        <ele>572.7</ele>
        <time>2022-08-02T10:06:54Z</time>
      </trkpt>
      <trkpt lat="45.80986" lon="1.81285">
        <ele>573.3</ele>
        <time>2022-08-02T10:06:56Z</time>
      </trkpt>
      <trkpt lat="45.80983" lon="1.81286">
        <ele>573.9</ele>
        <time>2022-08-02T10:06:58Z</time>
      </trkpt>
      <trkpt lat="45.8098" lon="1.81287">
        <ele>574.6</ele>
        <time>2022-08-02T10:07:00Z</time>
      </trkpt>
      <trkpt lat="45.80977" lon="1.81289">
        <ele>575.1</ele>
        <time>2022-08-02T10:07:02Z</time>
      </trkpt>
      <trkpt lat="45.80974" lon="1.81292">
        <ele>575.5</ele>
        <time>2022-08-02T10:07:04Z</time>
      </trkpt>
      <trkpt lat="45.8097" lon="1.81295">
        <ele>576</ele>
        <time>2022-08-02T10:07:06Z</time>
      </trkpt>
      <trkpt lat="45.80967" lon="1.81296">
        <ele>576.6</ele>
        <time>2022-08-02T10:07:08Z</time>
      </trkpt>
      <trkpt lat="45.80964" lon="1.81298">
        <ele>577.2</ele>
        <time>2022-08-02T10:07:10Z</time>
      </trkpt>
      <trkpt lat="45.80961" lon="1.81302">
        <ele>577.4</ele>
        <time>2022-08-02T10:07:12Z</time>
      </trkpt>
      <trkpt lat="45.80958" lon="1.81303">
        <ele>577.8</ele>
        <time>2022-08-02T10:07:14Z</time>
      </trkpt>
      <trkpt lat="45.80955" lon="1.81306">
        <ele>578.4</ele>
        <time>2022-08-02T10:07:16Z</time>
      </trkpt>
      <trkpt lat="45.80952" lon="1.81308">
        <ele>578.8</ele>
        <time>2022-08-02T10:07:18Z</time>
      </trkpt>
      <trkpt lat="45.80949" lon="1.81311">
        <ele>578.9</ele>
        <time>2022-08-02T10:07:20Z</time>
      </trkpt>
      <trkpt lat="45.80947" lon="1.81315">
        <ele>578.9</ele>
        <time>2022-08-02T10:07:22Z</time>
      </trkpt>
      <trkpt lat="45.80945" lon="1.81317">
        <ele>579.1</ele>
        <time>2022-08-02T10:07:24Z</time>
      </trkpt>
      <trkpt lat="45.80943" lon="1.81318">
        <ele>579.3</ele>
        <time>2022-08-02T10:07:26Z</time>
      </trkpt>
      <trkpt lat="45.8094" lon="1.8132">
        <ele>579.8</ele>
        <time>2022-08-02T10:07:28Z</time>
      </trkpt>
      <trkpt lat="45.80937" lon="1.81322">
        <ele>580</ele>
        <time>2022-08-02T10:07:30Z</time>
      </trkpt>
      <trkpt lat="45.80935" lon="1.81325">
        <ele>580.2</ele>
        <time>2022-08-02T10:07:32Z</time>
      </trkpt>
      <trkpt lat="45.80933" lon="1.81328">
        <ele>580</ele>
        <time>2022-08-02T10:07:34Z</time>
      </trkpt>
      <trkpt lat="45.80931" lon="1.8133">
        <ele>580.2</ele>
        <time>2022-08-02T10:07:36Z</time>
      </trkpt>
      <trkpt lat="45.80929" lon="1.81334">
        <ele>580</ele>
        <time>2022-08-02T10:07:38Z</time>
      </trkpt>
      <trkpt lat="45.80927" lon="1.81338">
        <ele>580.3</ele>
        <time>2022-08-02T10:07:40Z</time>
      </trkpt>
      <trkpt lat="45.80925" lon="1.81341">
        <ele>580.6</ele>
        <time>2022-08-02T10:07:42Z</time>
      </trkpt>
      <trkpt lat="45.80923" lon="1.81344">
        <ele>580.8</ele>
        <time>2022-08-02T10:07:44Z</time>
      </trkpt>
      <trkpt lat="45.80922" lon="1.81347">
        <ele>580.9</ele>
        <time>2022-08-02T10:07:46Z</time>
      </trkpt>
      <trkpt lat="45.8092" lon="1.81351">
        <ele>581.2</ele>
        <time>2022-08-02T10:07:48Z</time>
      </trkpt>
      <trkpt lat="45.80917" lon="1.81355">
        <ele>581.4</ele>
        <time>2022-08-02T10:07:50Z</time>
      </trkpt>
      <trkpt lat="45.80915" lon="1.81358">
        <ele>581.6</ele>
        <time>2022-08-02T10:07:52Z</time>
      </trkpt>
      <trkpt lat="45.80915" lon="1.81362">
        <ele>581.5</ele>
        <time>2022-08-02T10:07:54Z</time>
      </trkpt>
      <trkpt lat="45.80912" lon="1.81365">
        <ele>581.8</ele>
        <time>2022-08-02T10:07:56Z</time>
      </trkpt>
      <trkpt lat="45.80911" lon="1.81369">
        <ele>581.9</ele>
        <time>2022-08-02T10:07:58Z</time>
      </trkpt>
      <trkpt lat="45.80909" lon="1.81372">
        <ele>582.3</ele>
        <time>2022-08-02T10:08:00Z</time>
      </trkpt>
      <trkpt lat="45.80907" lon="1.81376">
        <ele>582.6</ele>
        <time>2022-08-02T10:08:02Z</time>
      </trkpt>
      <trkpt lat="45.80905" lon="1.81379">
        <ele>582.8</ele>
        <time>2022-08-02T10:08:04Z</time>
      </trkpt>
      <trkpt lat="45.80903" lon="1.81382">
        <ele>583.2</ele>
        <time>2022-08-02T10:08:06Z</time>
      </trkpt>
      <trkpt lat="45.80902" lon="1.81386">
        <ele>583.3</ele>
        <time>2022-08-02T10:08:08Z</time>
      </trkpt>
      <trkpt lat="45.809" lon="1.8139">
        <ele>583.6</ele>
        <time>2022-08-02T10:08:10Z</time>
      </trkpt>
      <trkpt lat="45.80897" lon="1.81394">
        <ele>584.1</ele>
        <time>2022-08-02T10:08:12Z</time>
      </trkpt>
      <trkpt lat="45.80896" lon="1.81398">
        <ele>584.3</ele>
        <time>2022-08-02T10:08:14Z</time>
      </trkpt>
      <trkpt lat="45.80894" lon="1.81402">
        <ele>584.6</ele>
        <time>2022-08-02T10:08:16Z</time>
      </trkpt>
      <trkpt lat="45.80892" lon="1.81406">
        <ele>584.8</ele>
        <time>2022-08-02T10:08:18Z</time>
      </trkpt>
      <trkpt lat="45.80891" lon="1.8141">
        <ele>585.2</ele>
        <time>2022-08-02T10:08:20Z</time>
      </trkpt>
      <trkpt lat="45.80889" lon="1.81413">
        <ele>585.5</ele>
        <time>2022-08-02T10:08:22Z</time>
      </trkpt>
      <trkpt lat="45.80887" lon="1.81417">
        <ele>585.8</ele>
        <time>2022-08-02T10:08:24Z</time>
      </trkpt>
      <trkpt lat="45.80886" lon="1.81421">
        <ele>586.2</ele>
        <time>2022-08-02T10:08:26Z</time>
      </trkpt>
      <trkpt lat="45.80886" lon="1.81425">
        <ele>586.6</ele>
        <time>2022-08-02T10:08:28Z</time>
      </trkpt>
      <trkpt lat="45.80886" lon="1.81429">
        <ele>586.7</ele>
        <time>2022-08-02T10:08:30Z</time>
      </trkpt>
      <trkpt lat="45.80886" lon="1.81434">
        <ele>586.9</ele>
        <time>2022-08-02T10:08:32Z</time>
      </trkpt>
      <trkpt lat="45.80885" lon="1.81438">
        <ele>587.4</ele>
        <time>2022-08-02T10:08:34Z</time>
      </trkpt>
      <trkpt lat="45.80883" lon="1.81442">
        <ele>588.2</ele>
        <time>2022-08-02T10:08:36Z</time>
      </trkpt>
      <trkpt lat="45.80881" lon="1.81446">
        <ele>588.9</ele>
        <time>2022-08-02T10:08:38Z</time>
      </trkpt>
      <trkpt lat="45.80881" lon="1.8145">
        <ele>589.1</ele>
        <time>2022-08-02T10:08:40Z</time>
      </trkpt>
      <trkpt lat="45.8088" lon="1.81454">
        <ele>589.3</ele>
        <time>2022-08-02T10:08:42Z</time>
      </trkpt>
      <trkpt lat="45.80881" lon="1.81458">
        <ele>589.4</ele>
        <time>2022-08-02T10:08:44Z</time>
      </trkpt>
      <trkpt lat="45.80882" lon="1.81463">
        <ele>589.1</ele>
        <time>2022-08-02T10:08:46Z</time>
      </trkpt>
      <trkpt lat="45.80884" lon="1.81467">
        <ele>588.8</ele>
        <time>2022-08-02T10:08:48Z</time>
      </trkpt>
      <trkpt lat="45.80886" lon="1.81471">
        <ele>588.2</ele>
        <time>2022-08-02T10:08:50Z</time>
      </trkpt>
      <trkpt lat="45.80889" lon="1.81474">
        <ele>587.6</ele>
        <time>2022-08-02T10:08:52Z</time>
      </trkpt>
      <trkpt lat="45.8089" lon="1.81478">
        <ele>587.3</ele>
        <time>2022-08-02T10:08:54Z</time>
      </trkpt>
      <trkpt lat="45.80893" lon="1.81481">
        <ele>586.8</ele>
        <time>2022-08-02T10:08:56Z</time>
      </trkpt>
      <trkpt lat="45.80895" lon="1.81485">
        <ele>586.3</ele>
        <time>2022-08-02T10:08:58Z</time>
      </trkpt>
      <trkpt lat="45.80899" lon="1.81488">
        <ele>585.4</ele>
        <time>2022-08-02T10:09:00Z</time>
      </trkpt>
      <trkpt lat="45.80901" lon="1.81491">
        <ele>584.8</ele>
        <time>2022-08-02T10:09:02Z</time>
      </trkpt>
      <trkpt lat="45.80904" lon="1.81495">
        <ele>584.4</ele>
        <time>2022-08-02T10:09:04Z</time>
      </trkpt>
      <trkpt lat="45.80906" lon="1.81499">
        <ele>584</ele>
        <time>2022-08-02T10:09:06Z</time>
      </trkpt>
      <trkpt lat="45.80907" lon="1.81504">
        <ele>583.6</ele>
        <time>2022-08-02T10:09:08Z</time>
      </trkpt>
      <trkpt lat="45.80909" lon="1.81508">
        <ele>583.2</ele>
        <time>2022-08-02T10:09:10Z</time>
      </trkpt>
      <trkpt lat="45.8091" lon="1.81512">
        <ele>583.2</ele>
        <time>2022-08-02T10:09:12Z</time>
      </trkpt>
      <trkpt lat="45.80911" lon="1.81517">
        <ele>582.9</ele>
        <time>2022-08-02T10:09:14Z</time>
      </trkpt>
      <trkpt lat="45.80911" lon="1.81522">
        <ele>583</ele>
        <time>2022-08-02T10:09:16Z</time>
      </trkpt>
      <trkpt lat="45.8091" lon="1.81527">
        <ele>583.4</ele>
        <time>2022-08-02T10:09:18Z</time>
      </trkpt>
      <trkpt lat="45.80911" lon="1.81532">
        <ele>583.4</ele>
        <time>2022-08-02T10:09:20Z</time>
      </trkpt>
      <trkpt lat="45.80909" lon="1.81537">
        <ele>583.9</ele>
        <time>2022-08-02T10:09:22Z</time>
      </trkpt>
      <trkpt lat="45.80908" lon="1.81543">
        <ele>584.4</ele>
        <time>2022-08-02T10:09:24Z</time>
      </trkpt>
      <trkpt lat="45.80907" lon="1.81548">
        <ele>584.8</ele>
        <time>2022-08-02T10:09:26Z</time>
      </trkpt>
      <trkpt lat="45.80906" lon="1.81553">
        <ele>585.2</ele>
        <time>2022-08-02T10:09:28Z</time>
      </trkpt>
      <trkpt lat="45.80905" lon="1.81559">
        <ele>585.7</ele>
        <time>2022-08-02T10:09:30Z</time>
      </trkpt>
      <trkpt lat="45.80903" lon="1.81564">
        <ele>586.2</ele>
        <time>2022-08-02T10:09:32Z</time>
      </trkpt>
      <trkpt lat="45.80902" lon="1.81569">
        <ele>586.8</ele>
        <time>2022-08-02T10:09:34Z</time>
      </trkpt>
      <trkpt lat="45.80901" lon="1.81574">
        <ele>587.2</ele>
        <time>2022-08-02T10:09:36Z</time>
      </trkpt>
      <trkpt lat="45.80899" lon="1.81579">
        <ele>587.8</ele>
        <time>2022-08-02T10:09:38Z</time>
      </trkpt>
      <trkpt lat="45.80897" lon="1.81584">
        <ele>588.4</ele>
        <time>2022-08-02T10:09:40Z</time>
      </trkpt>
      <trkpt lat="45.80896" lon="1.81588">
        <ele>588.8</ele>
        <time>2022-08-02T10:09:42Z</time>
      </trkpt>
      <trkpt lat="45.80896" lon="1.81593">
        <ele>589.1</ele>
        <time>2022-08-02T10:09:44Z</time>
      </trkpt>
      <trkpt lat="45.80894" lon="1.81597">
        <ele>589.7</ele>
        <time>2022-08-02T10:09:46Z</time>
      </trkpt>
      <trkpt lat="45.80893" lon="1.81601">
        <ele>590.2</ele>
        <time>2022-08-02T10:09:48Z</time>
      </trkpt>
      <trkpt lat="45.80892" lon="1.81605">
        <ele>590.6</ele>
        <time>2022-08-02T10:09:50Z</time>
      </trkpt>
      <trkpt lat="45.8089" lon="1.81609">
        <ele>591</ele>
        <time>2022-08-02T10:09:52Z</time>
      </trkpt>
      <trkpt lat="45.80888" lon="1.81612">
        <ele>591.6</ele>
        <time>2022-08-02T10:09:54Z</time>
      </trkpt>
      <trkpt lat="45.80887" lon="1.81617">
        <ele>592</ele>
        <time>2022-08-02T10:09:56Z</time>
      </trkpt>
      <trkpt lat="45.80886" lon="1.81621">
        <ele>592.4</ele>
        <time>2022-08-02T10:09:58Z</time>
      </trkpt>
      <trkpt lat="45.80886" lon="1.81625">
        <ele>592.6</ele>
        <time>2022-08-02T10:10:00Z</time>
      </trkpt>
      <trkpt lat="45.80884" lon="1.81628">
        <ele>593</ele>
        <time>2022-08-02T10:10:02Z</time>
      </trkpt>
      <trkpt lat="45.80883" lon="1.81632">
        <ele>593.3</ele>
        <time>2022-08-02T10:10:04Z</time>
      </trkpt>
      <trkpt lat="45.80882" lon="1.81636">
        <ele>593.7</ele>
        <time>2022-08-02T10:10:06Z</time>
      </trkpt>
      <trkpt lat="45.8088" lon="1.81639">
        <ele>594.1</ele>
        <time>2022-08-02T10:10:08Z</time>
      </trkpt>
      <trkpt lat="45.8088" lon="1.81644">
        <ele>594.3</ele>
        <time>2022-08-02T10:10:10Z</time>
      </trkpt>
      <trkpt lat="45.80878" lon="1.81648">
        <ele>594.6</ele>
        <time>2022-08-02T10:10:12Z</time>
      </trkpt>
      <trkpt lat="45.80877" lon="1.81651">
        <ele>595</ele>
        <time>2022-08-02T10:10:14Z</time>
      </trkpt>
      <trkpt lat="45.80876" lon="1.81655">
        <ele>595.2</ele>
        <time>2022-08-02T10:10:16Z</time>
      </trkpt>
      <trkpt lat="45.80874" lon="1.81659">
        <ele>595.5</ele>
        <time>2022-08-02T10:10:18Z</time>
      </trkpt>
      <trkpt lat="45.80873" lon="1.81663">
        <ele>595.8</ele>
        <time>2022-08-02T10:10:20Z</time>
      </trkpt>
      <trkpt lat="45.80871" lon="1.81666">
        <ele>596.1</ele>
        <time>2022-08-02T10:10:22Z</time>
      </trkpt>
      <trkpt lat="45.8087" lon="1.8167">
        <ele>596.4</ele>
        <time>2022-08-02T10:10:24Z</time>
      </trkpt>
      <trkpt lat="45.80868" lon="1.81673">
        <ele>596.7</ele>
        <time>2022-08-02T10:10:26Z</time>
      </trkpt>
      <trkpt lat="45.80866" lon="1.81677">
        <ele>597</ele>
        <time>2022-08-02T10:10:28Z</time>
      </trkpt>
      <trkpt lat="45.80863" lon="1.81679">
        <ele>597.4</ele>
        <time>2022-08-02T10:10:30Z</time>
      </trkpt>
      <trkpt lat="45.80862" lon="1.81682">
        <ele>597.6</ele>
        <time>2022-08-02T10:10:32Z</time>
      </trkpt>
      <trkpt lat="45.80859" lon="1.81686">
        <ele>598</ele>
        <time>2022-08-02T10:10:34Z</time>
      </trkpt>
      <trkpt lat="45.80856" lon="1.81689">
        <ele>598.3</ele>
        <time>2022-08-02T10:10:36Z</time>
      </trkpt>
      <trkpt lat="45.80855" lon="1.81693">
        <ele>598.4</ele>
        <time>2022-08-02T10:10:38Z</time>
      </trkpt>
      <trkpt lat="45.80852" lon="1.81695">
        <ele>598.7</ele>
        <time>2022-08-02T10:10:40Z</time>
      </trkpt>
      <trkpt lat="45.8085" lon="1.81699">
        <ele>598.8</ele>
        <time>2022-08-02T10:10:42Z</time>
      </trkpt>
      <trkpt lat="45.80848" lon="1.81702">
        <ele>599</ele>
        <time>2022-08-02T10:10:44Z</time>
      </trkpt>
      <trkpt lat="45.80846" lon="1.81705">
        <ele>599.1</ele>
        <time>2022-08-02T10:10:46Z</time>
      </trkpt>
      <trkpt lat="45.80844" lon="1.81707">
        <ele>599.3</ele>
        <time>2022-08-02T10:10:48Z</time>
      </trkpt>
      <trkpt lat="45.80841" lon="1.8171">
        <ele>599.5</ele>
        <time>2022-08-02T10:10:50Z</time>
      </trkpt>
      <trkpt lat="45.80839" lon="1.81713">
        <ele>599.5</ele>
        <time>2022-08-02T10:10:52Z</time>
      </trkpt>
      <trkpt lat="45.80837" lon="1.81716">
        <ele>599.7</ele>
        <time>2022-08-02T10:10:54Z</time>
      </trkpt>
      <trkpt lat="45.80834" lon="1.8172">
        <ele>599.7</ele>
        <time>2022-08-02T10:10:56Z</time>
      </trkpt>
      <trkpt lat="45.80832" lon="1.81723">
        <ele>599.9</ele>
        <time>2022-08-02T10:10:58Z</time>
      </trkpt>
      <trkpt lat="45.80829" lon="1.81727">
        <ele>600.1</ele>
        <time>2022-08-02T10:11:00Z</time>
      </trkpt>
      <trkpt lat="45.80826" lon="1.81731">
        <ele>600.4</ele>
        <time>2022-08-02T10:11:02Z</time>
      </trkpt>
      <trkpt lat="45.80824" lon="1.81734">
        <ele>600.7</ele>
        <time>2022-08-02T10:11:04Z</time>
      </trkpt>
      <trkpt lat="45.80821" lon="1.81737">
        <ele>601</ele>
        <time>2022-08-02T10:11:06Z</time>
      </trkpt>
      <trkpt lat="45.80819" lon="1.81741">
        <ele>601.2</ele>
        <time>2022-08-02T10:11:08Z</time>
      </trkpt>
      <trkpt lat="45.80817" lon="1.81744">
        <ele>601.3</ele>
        <time>2022-08-02T10:11:10Z</time>
      </trkpt>
      <trkpt lat="45.80814" lon="1.81748">
        <ele>601.6</ele>
        <time>2022-08-02T10:11:12Z</time>
      </trkpt>
      <trkpt lat="45.80812" lon="1.81751">
        <ele>601.8</ele>
        <time>2022-08-02T10:11:14Z</time>
      </trkpt>
      <trkpt lat="45.8081" lon="1.81756">
        <ele>602.2</ele>
        <time>2022-08-02T10:11:16Z</time>
      </trkpt>
      <trkpt lat="45.80808" lon="1.81759">
        <ele>602.5</ele>
        <time>2022-08-02T10:11:18Z</time>
      </trkpt>
      <trkpt lat="45.80805" lon="1.81762">
        <ele>602.9</ele>
        <time>2022-08-02T10:11:20Z</time>
      </trkpt>
      <trkpt lat="45.80803" lon="1.81766">
        <ele>603.1</ele>
        <time>2022-08-02T10:11:22Z</time>
      </trkpt>
      <trkpt lat="45.80801" lon="1.81771">
        <ele>603.4</ele>
        <time>2022-08-02T10:11:24Z</time>
      </trkpt>
      <trkpt lat="45.80799" lon="1.81775">
        <ele>603.7</ele>
        <time>2022-08-02T10:11:26Z</time>
      </trkpt>
      <trkpt lat="45.80797" lon="1.81779">
        <ele>603.9</ele>
        <time>2022-08-02T10:11:28Z</time>
      </trkpt>
      <trkpt lat="45.80795" lon="1.81783">
        <ele>604</ele>
        <time>2022-08-02T10:11:30Z</time>
      </trkpt>
      <trkpt lat="45.80793" lon="1.81787">
        <ele>604.2</ele>
        <time>2022-08-02T10:11:32Z</time>
      </trkpt>
      <trkpt lat="45.8079" lon="1.81792">
        <ele>604.5</ele>
        <time>2022-08-02T10:11:34Z</time>
      </trkpt>
      <trkpt lat="45.80787" lon="1.81796">
        <ele>604.6</ele>
        <time>2022-08-02T10:11:36Z</time>
      </trkpt>
      <trkpt lat="45.80785" lon="1.818">
        <ele>604.8</ele>
        <time>2022-08-02T10:11:38Z</time>
      </trkpt>
      <trkpt lat="45.80783" lon="1.81805">
        <ele>604.8</ele>
        <time>2022-08-02T10:11:40Z</time>
      </trkpt>
      <trkpt lat="45.80781" lon="1.81808">
        <ele>604.9</ele>
        <time>2022-08-02T10:11:42Z</time>
      </trkpt>
      <trkpt lat="45.80779" lon="1.81811">
        <ele>604.9</ele>
        <time>2022-08-02T10:11:44Z</time>
      </trkpt>
      <trkpt lat="45.80778" lon="1.81814">
        <ele>604.9</ele>
        <time>2022-08-02T10:11:46Z</time>
      </trkpt>
      <trkpt lat="45.80776" lon="1.81818">
        <ele>604.9</ele>
        <time>2022-08-02T10:11:48Z</time>
      </trkpt>
      <trkpt lat="45.80775" lon="1.81822">
        <ele>604.8</ele>
        <time>2022-08-02T10:11:50Z</time>
      </trkpt>
      <trkpt lat="45.80773" lon="1.81826">
        <ele>604.8</ele>
        <time>2022-08-02T10:11:52Z</time>
      </trkpt>
      <trkpt lat="45.8077" lon="1.81827">
        <ele>604.9</ele>
        <time>2022-08-02T10:11:54Z</time>
      </trkpt>
      <trkpt lat="45.80767" lon="1.8183">
        <ele>605</ele>
        <time>2022-08-02T10:11:56Z</time>
      </trkpt>
      <trkpt lat="45.80767" lon="1.81829">
        <ele>605.1</ele>
        <time>2022-08-02T10:11:58Z</time>
      </trkpt>
      <trkpt lat="45.80767" lon="1.81831">
        <ele>604.9</ele>
        <time>2022-08-02T10:12:00Z</time>
      </trkpt>
      <trkpt lat="45.80767" lon="1.81832">
        <ele>604.9</ele>
        <time>2022-08-02T10:12:02Z</time>
      </trkpt>
      <trkpt lat="45.80767" lon="1.81832">
        <ele>604.9</ele>
        <time>2022-08-02T10:12:06Z</time>
      </trkpt>
      <trkpt lat="45.80773" lon="1.8185">
        <ele>605.4</ele>
        <time>2022-08-02T10:20:44Z</time>
      </trkpt>
      <trkpt lat="45.80771" lon="1.81853">
        <ele>605.7</ele>
        <time>2022-08-02T10:20:46Z</time>
      </trkpt>
      <trkpt lat="45.8077" lon="1.81858">
        <ele>606.1</ele>
        <time>2022-08-02T10:20:48Z</time>
      </trkpt>
      <trkpt lat="45.80769" lon="1.81862">
        <ele>606.5</ele>
        <time>2022-08-02T10:20:50Z</time>
      </trkpt>
      <trkpt lat="45.80768" lon="1.81867">
        <ele>606.8</ele>
        <time>2022-08-02T10:20:52Z</time>
      </trkpt>
      <trkpt lat="45.80767" lon="1.81872">
        <ele>607.2</ele>
        <time>2022-08-02T10:20:54Z</time>
      </trkpt>
      <trkpt lat="45.80768" lon="1.81877">
        <ele>607.5</ele>
        <time>2022-08-02T10:20:56Z</time>
      </trkpt>
      <trkpt lat="45.80768" lon="1.81882">
        <ele>607.8</ele>
        <time>2022-08-02T10:20:58Z</time>
      </trkpt>
      <trkpt lat="45.80769" lon="1.81887">
        <ele>608</ele>
        <time>2022-08-02T10:21:00Z</time>
      </trkpt>
      <trkpt lat="45.8077" lon="1.81892">
        <ele>608.2</ele>
        <time>2022-08-02T10:21:02Z</time>
      </trkpt>
      <trkpt lat="45.80771" lon="1.81896">
        <ele>608.4</ele>
        <time>2022-08-02T10:21:04Z</time>
      </trkpt>
      <trkpt lat="45.80773" lon="1.819">
        <ele>608.6</ele>
        <time>2022-08-02T10:21:06Z</time>
      </trkpt>
      <trkpt lat="45.80775" lon="1.81904">
        <ele>608.7</ele>
        <time>2022-08-02T10:21:08Z</time>
      </trkpt>
      <trkpt lat="45.80777" lon="1.81908">
        <ele>608.8</ele>
        <time>2022-08-02T10:21:10Z</time>
      </trkpt>
      <trkpt lat="45.8078" lon="1.81911">
        <ele>608.9</ele>
        <time>2022-08-02T10:21:12Z</time>
      </trkpt>
      <trkpt lat="45.80782" lon="1.81915">
        <ele>608.9</ele>
        <time>2022-08-02T10:21:14Z</time>
      </trkpt>
      <trkpt lat="45.80785" lon="1.81918">
        <ele>608.9</ele>
        <time>2022-08-02T10:21:16Z</time>
      </trkpt>
      <trkpt lat="45.80788" lon="1.81921">
        <ele>608.9</ele>
        <time>2022-08-02T10:21:18Z</time>
      </trkpt>
      <trkpt lat="45.8079" lon="1.81925">
        <ele>608.9</ele>
        <time>2022-08-02T10:21:20Z</time>
      </trkpt>
      <trkpt lat="45.80792" lon="1.81928">
        <ele>608.9</ele>
        <time>2022-08-02T10:21:22Z</time>
      </trkpt>
      <trkpt lat="45.80795" lon="1.81932">
        <ele>608.9</ele>
        <time>2022-08-02T10:21:24Z</time>
      </trkpt>
      <trkpt lat="45.80798" lon="1.81934">
        <ele>608.7</ele>
        <time>2022-08-02T10:21:26Z</time>
      </trkpt>
      <trkpt lat="45.808" lon="1.81937">
        <ele>608.6</ele>
        <time>2022-08-02T10:21:28Z</time>
      </trkpt>
      <trkpt lat="45.80802" lon="1.81941">
        <ele>608.5</ele>
        <time>2022-08-02T10:21:30Z</time>
      </trkpt>
      <trkpt lat="45.80805" lon="1.81945">
        <ele>608.4</ele>
        <time>2022-08-02T10:21:32Z</time>
      </trkpt>
      <trkpt lat="45.80807" lon="1.8195">
        <ele>608.3</ele>
        <time>2022-08-02T10:21:34Z</time>
      </trkpt>
      <trkpt lat="45.8081" lon="1.81954">
        <ele>608.1</ele>
        <time>2022-08-02T10:21:36Z</time>
      </trkpt>
      <trkpt lat="45.8081" lon="1.8196">
        <ele>608.2</ele>
        <time>2022-08-02T10:21:38Z</time>
      </trkpt>
      <trkpt lat="45.8081" lon="1.81965">
        <ele>608.3</ele>
        <time>2022-08-02T10:21:40Z</time>
      </trkpt>
      <trkpt lat="45.80808" lon="1.81971">
        <ele>608.6</ele>
        <time>2022-08-02T10:21:42Z</time>
      </trkpt>
      <trkpt lat="45.80808" lon="1.81975">
        <ele>608.8</ele>
        <time>2022-08-02T10:21:44Z</time>
      </trkpt>
      <trkpt lat="45.80807" lon="1.8198">
        <ele>608.9</ele>
        <time>2022-08-02T10:21:46Z</time>
      </trkpt>
      <trkpt lat="45.80806" lon="1.81985">
        <ele>609.3</ele>
        <time>2022-08-02T10:21:48Z</time>
      </trkpt>
      <trkpt lat="45.80805" lon="1.8199">
        <ele>609.6</ele>
        <time>2022-08-02T10:21:50Z</time>
      </trkpt>
      <trkpt lat="45.80803" lon="1.81995">
        <ele>609.9</ele>
        <time>2022-08-02T10:21:52Z</time>
      </trkpt>
      <trkpt lat="45.80802" lon="1.82">
        <ele>610.2</ele>
        <time>2022-08-02T10:21:54Z</time>
      </trkpt>
      <trkpt lat="45.80801" lon="1.82004">
        <ele>610.4</ele>
        <time>2022-08-02T10:21:56Z</time>
      </trkpt>
      <trkpt lat="45.80799" lon="1.82008">
        <ele>610.7</ele>
        <time>2022-08-02T10:21:58Z</time>
      </trkpt>
      <trkpt lat="45.80798" lon="1.82013">
        <ele>610.8</ele>
        <time>2022-08-02T10:22:00Z</time>
      </trkpt>
      <trkpt lat="45.80796" lon="1.82017">
        <ele>611</ele>
        <time>2022-08-02T10:22:02Z</time>
      </trkpt>
      <trkpt lat="45.80795" lon="1.82022">
        <ele>611</ele>
        <time>2022-08-02T10:22:04Z</time>
      </trkpt>
      <trkpt lat="45.80794" lon="1.82027">
        <ele>611.2</ele>
        <time>2022-08-02T10:22:06Z</time>
      </trkpt>
      <trkpt lat="45.80792" lon="1.82032">
        <ele>611.3</ele>
        <time>2022-08-02T10:22:08Z</time>
      </trkpt>
      <trkpt lat="45.80791" lon="1.82037">
        <ele>611.5</ele>
        <time>2022-08-02T10:22:10Z</time>
      </trkpt>
      <trkpt lat="45.80789" lon="1.82042">
        <ele>611.6</ele>
        <time>2022-08-02T10:22:12Z</time>
      </trkpt>
      <trkpt lat="45.80787" lon="1.82046">
        <ele>611.8</ele>
        <time>2022-08-02T10:22:14Z</time>
      </trkpt>
      <trkpt lat="45.80786" lon="1.82051">
        <ele>611.8</ele>
        <time>2022-08-02T10:22:16Z</time>
      </trkpt>
      <trkpt lat="45.80785" lon="1.82055">
        <ele>611.9</ele>
        <time>2022-08-02T10:22:18Z</time>
      </trkpt>
      <trkpt lat="45.80784" lon="1.82059">
        <ele>611.9</ele>
        <time>2022-08-02T10:22:20Z</time>
      </trkpt>
      <trkpt lat="45.80782" lon="1.82064">
        <ele>612</ele>
        <time>2022-08-02T10:22:22Z</time>
      </trkpt>
      <trkpt lat="45.80781" lon="1.82068">
        <ele>612</ele>
        <time>2022-08-02T10:22:24Z</time>
      </trkpt>
      <trkpt lat="45.8078" lon="1.82072">
        <ele>612</ele>
        <time>2022-08-02T10:22:26Z</time>
      </trkpt>
      <trkpt lat="45.80779" lon="1.82077">
        <ele>612.1</ele>
        <time>2022-08-02T10:22:28Z</time>
      </trkpt>
      <trkpt lat="45.80776" lon="1.82081">
        <ele>612.2</ele>
        <time>2022-08-02T10:22:30Z</time>
      </trkpt>
      <trkpt lat="45.80775" lon="1.82085">
        <ele>612.3</ele>
        <time>2022-08-02T10:22:32Z</time>
      </trkpt>
      <trkpt lat="45.80774" lon="1.82088">
        <ele>612.3</ele>
        <time>2022-08-02T10:22:34Z</time>
      </trkpt>
      <trkpt lat="45.80772" lon="1.82093">
        <ele>612.3</ele>
        <time>2022-08-02T10:22:36Z</time>
      </trkpt>
      <trkpt lat="45.8077" lon="1.82097">
        <ele>612.4</ele>
        <time>2022-08-02T10:22:38Z</time>
      </trkpt>
      <trkpt lat="45.80768" lon="1.82101">
        <ele>612.4</ele>
        <time>2022-08-02T10:22:40Z</time>
      </trkpt>
      <trkpt lat="45.80766" lon="1.82105">
        <ele>612.4</ele>
        <time>2022-08-02T10:22:42Z</time>
      </trkpt>
      <trkpt lat="45.80765" lon="1.82109">
        <ele>612.3</ele>
        <time>2022-08-02T10:22:44Z</time>
      </trkpt>
      <trkpt lat="45.80763" lon="1.82113">
        <ele>612.3</ele>
        <time>2022-08-02T10:22:46Z</time>
      </trkpt>
      <trkpt lat="45.80761" lon="1.82117">
        <ele>612.2</ele>
        <time>2022-08-02T10:22:48Z</time>
      </trkpt>
      <trkpt lat="45.80759" lon="1.82122">
        <ele>612.1</ele>
        <time>2022-08-02T10:22:50Z</time>
      </trkpt>
      <trkpt lat="45.80757" lon="1.82127">
        <ele>612</ele>
        <time>2022-08-02T10:22:52Z</time>
      </trkpt>
      <trkpt lat="45.80755" lon="1.82131">
        <ele>611.9</ele>
        <time>2022-08-02T10:22:54Z</time>
      </trkpt>
      <trkpt lat="45.80754" lon="1.82135">
        <ele>611.7</ele>
        <time>2022-08-02T10:22:56Z</time>
      </trkpt>
      <trkpt lat="45.80752" lon="1.8214">
        <ele>611.6</ele>
        <time>2022-08-02T10:22:58Z</time>
      </trkpt>
      <trkpt lat="45.8075" lon="1.82144">
        <ele>611.4</ele>
        <time>2022-08-02T10:23:00Z</time>
      </trkpt>
      <trkpt lat="45.80748" lon="1.82149">
        <ele>611.2</ele>
        <time>2022-08-02T10:23:02Z</time>
      </trkpt>
      <trkpt lat="45.80746" lon="1.82153">
        <ele>611.1</ele>
        <time>2022-08-02T10:23:04Z</time>
      </trkpt>
      <trkpt lat="45.80745" lon="1.82158">
        <ele>610.9</ele>
        <time>2022-08-02T10:23:06Z</time>
      </trkpt>
      <trkpt lat="45.80744" lon="1.82163">
        <ele>610.7</ele>
        <time>2022-08-02T10:23:08Z</time>
      </trkpt>
      <trkpt lat="45.80743" lon="1.82168">
        <ele>610.7</ele>
        <time>2022-08-02T10:23:10Z</time>
      </trkpt>
      <trkpt lat="45.80743" lon="1.82173">
        <ele>611</ele>
        <time>2022-08-02T10:23:12Z</time>
      </trkpt>
      <trkpt lat="45.80743" lon="1.82178">
        <ele>611.4</ele>
        <time>2022-08-02T10:23:14Z</time>
      </trkpt>
      <trkpt lat="45.80744" lon="1.82183">
        <ele>611.6</ele>
        <time>2022-08-02T10:23:16Z</time>
      </trkpt>
      <trkpt lat="45.80745" lon="1.82187">
        <ele>611.9</ele>
        <time>2022-08-02T10:23:18Z</time>
      </trkpt>
      <trkpt lat="45.80746" lon="1.82191">
        <ele>612.1</ele>
        <time>2022-08-02T10:23:20Z</time>
      </trkpt>
      <trkpt lat="45.80748" lon="1.82196">
        <ele>612.3</ele>
        <time>2022-08-02T10:23:22Z</time>
      </trkpt>
      <trkpt lat="45.8075" lon="1.822">
        <ele>612.4</ele>
        <time>2022-08-02T10:23:24Z</time>
      </trkpt>
      <trkpt lat="45.80752" lon="1.82203">
        <ele>612.7</ele>
        <time>2022-08-02T10:23:26Z</time>
      </trkpt>
      <trkpt lat="45.80754" lon="1.82205">
        <ele>612.9</ele>
        <time>2022-08-02T10:23:28Z</time>
      </trkpt>
      <trkpt lat="45.80756" lon="1.82208">
        <ele>613.1</ele>
        <time>2022-08-02T10:23:30Z</time>
      </trkpt>
      <trkpt lat="45.80759" lon="1.82209">
        <ele>613.4</ele>
        <time>2022-08-02T10:23:32Z</time>
      </trkpt>
      <trkpt lat="45.80762" lon="1.82212">
        <ele>613.7</ele>
        <time>2022-08-02T10:23:34Z</time>
      </trkpt>
      <trkpt lat="45.80764" lon="1.82214">
        <ele>613.9</ele>
        <time>2022-08-02T10:23:36Z</time>
      </trkpt>
      <trkpt lat="45.80768" lon="1.82216">
        <ele>614.2</ele>
        <time>2022-08-02T10:23:38Z</time>
      </trkpt>
      <trkpt lat="45.80771" lon="1.82218">
        <ele>614.5</ele>
        <time>2022-08-02T10:23:40Z</time>
      </trkpt>
      <trkpt lat="45.80775" lon="1.8222">
        <ele>614.8</ele>
        <time>2022-08-02T10:23:42Z</time>
      </trkpt>
      <trkpt lat="45.80778" lon="1.82222">
        <ele>615.1</ele>
        <time>2022-08-02T10:23:44Z</time>
      </trkpt>
      <trkpt lat="45.80782" lon="1.82223">
        <ele>615.3</ele>
        <time>2022-08-02T10:23:46Z</time>
      </trkpt>
      <trkpt lat="45.80786" lon="1.82224">
        <ele>615.6</ele>
        <time>2022-08-02T10:23:48Z</time>
      </trkpt>
      <trkpt lat="45.80789" lon="1.82225">
        <ele>615.8</ele>
        <time>2022-08-02T10:23:50Z</time>
      </trkpt>
      <trkpt lat="45.80792" lon="1.82226">
        <ele>616.1</ele>
        <time>2022-08-02T10:23:52Z</time>
      </trkpt>
      <trkpt lat="45.80795" lon="1.82226">
        <ele>616.2</ele>
        <time>2022-08-02T10:23:54Z</time>
      </trkpt>
      <trkpt lat="45.80799" lon="1.82226">
        <ele>616.4</ele>
        <time>2022-08-02T10:23:56Z</time>
      </trkpt>
      <trkpt lat="45.80802" lon="1.82227">
        <ele>616.6</ele>
        <time>2022-08-02T10:23:58Z</time>
      </trkpt>
      <trkpt lat="45.80805" lon="1.82227">
        <ele>616.7</ele>
        <time>2022-08-02T10:24:00Z</time>
      </trkpt>
      <trkpt lat="45.80808" lon="1.82227">
        <ele>616.9</ele>
        <time>2022-08-02T10:24:02Z</time>
      </trkpt>
      <trkpt lat="45.80811" lon="1.82227">
        <ele>617</ele>
        <time>2022-08-02T10:24:04Z</time>
      </trkpt>
      <trkpt lat="45.80814" lon="1.82226">
        <ele>617.1</ele>
        <time>2022-08-02T10:24:06Z</time>
      </trkpt>
      <trkpt lat="45.80817" lon="1.82226">
        <ele>617.1</ele>
        <time>2022-08-02T10:24:08Z</time>
      </trkpt>
      <trkpt lat="45.80821" lon="1.82225">
        <ele>617.2</ele>
        <time>2022-08-02T10:24:10Z</time>
      </trkpt>
      <trkpt lat="45.80824" lon="1.82224">
        <ele>617.2</ele>
        <time>2022-08-02T10:24:12Z</time>
      </trkpt>
      <trkpt lat="45.80828" lon="1.82222">
        <ele>617.1</ele>
        <time>2022-08-02T10:24:14Z</time>
      </trkpt>
      <trkpt lat="45.80831" lon="1.82221">
        <ele>617</ele>
        <time>2022-08-02T10:24:16Z</time>
      </trkpt>
      <trkpt lat="45.80834" lon="1.82219">
        <ele>617</ele>
        <time>2022-08-02T10:24:18Z</time>
      </trkpt>
      <trkpt lat="45.80838" lon="1.82215">
        <ele>616.9</ele>
        <time>2022-08-02T10:24:20Z</time>
      </trkpt>
      <trkpt lat="45.80842" lon="1.82214">
        <ele>617.1</ele>
        <time>2022-08-02T10:24:22Z</time>
      </trkpt>
      <trkpt lat="45.80845" lon="1.82213">
        <ele>617.2</ele>
        <time>2022-08-02T10:24:24Z</time>
      </trkpt>
      <trkpt lat="45.80849" lon="1.82212">
        <ele>617.5</ele>
        <time>2022-08-02T10:24:26Z</time>
      </trkpt>
      <trkpt lat="45.80852" lon="1.82211">
        <ele>617.6</ele>
        <time>2022-08-02T10:24:28Z</time>
      </trkpt>
      <trkpt lat="45.80855" lon="1.8221">
        <ele>617.8</ele>
        <time>2022-08-02T10:24:30Z</time>
      </trkpt>
      <trkpt lat="45.80859" lon="1.82211">
        <ele>618.3</ele>
        <time>2022-08-02T10:24:32Z</time>
      </trkpt>
      <trkpt lat="45.80862" lon="1.8221">
        <ele>618.6</ele>
        <time>2022-08-02T10:24:34Z</time>
      </trkpt>
      <trkpt lat="45.80866" lon="1.8221">
        <ele>618.9</ele>
        <time>2022-08-02T10:24:36Z</time>
      </trkpt>
      <trkpt lat="45.8087" lon="1.8221">
        <ele>619.2</ele>
        <time>2022-08-02T10:24:38Z</time>
      </trkpt>
      <trkpt lat="45.80873" lon="1.82209">
        <ele>619.4</ele>
        <time>2022-08-02T10:24:40Z</time>
      </trkpt>
      <trkpt lat="45.80876" lon="1.82208">
        <ele>619.6</ele>
        <time>2022-08-02T10:24:42Z</time>
      </trkpt>
      <trkpt lat="45.8088" lon="1.82208">
        <ele>619.9</ele>
        <time>2022-08-02T10:24:44Z</time>
      </trkpt>
      <trkpt lat="45.80883" lon="1.82208">
        <ele>620.1</ele>
        <time>2022-08-02T10:24:46Z</time>
      </trkpt>
      <trkpt lat="45.80886" lon="1.82207">
        <ele>620.4</ele>
        <time>2022-08-02T10:24:48Z</time>
      </trkpt>
      <trkpt lat="45.8089" lon="1.82207">
        <ele>620.7</ele>
        <time>2022-08-02T10:24:50Z</time>
      </trkpt>
      <trkpt lat="45.80893" lon="1.82206">
        <ele>620.9</ele>
        <time>2022-08-02T10:24:52Z</time>
      </trkpt>
      <trkpt lat="45.80896" lon="1.82205">
        <ele>621.2</ele>
        <time>2022-08-02T10:24:54Z</time>
      </trkpt>
      <trkpt lat="45.809" lon="1.82207">
        <ele>621.8</ele>
        <time>2022-08-02T10:24:56Z</time>
      </trkpt>
      <trkpt lat="45.80904" lon="1.8221">
        <ele>622.4</ele>
        <time>2022-08-02T10:24:58Z</time>
      </trkpt>
      <trkpt lat="45.80907" lon="1.82214">
        <ele>623.1</ele>
        <time>2022-08-02T10:25:00Z</time>
      </trkpt>
      <trkpt lat="45.80909" lon="1.82217">
        <ele>623.7</ele>
        <time>2022-08-02T10:25:02Z</time>
      </trkpt>
      <trkpt lat="45.80909" lon="1.82223">
        <ele>624.4</ele>
        <time>2022-08-02T10:25:04Z</time>
      </trkpt>
      <trkpt lat="45.80908" lon="1.82228">
        <ele>624.8</ele>
        <time>2022-08-02T10:25:06Z</time>
      </trkpt>
      <trkpt lat="45.80907" lon="1.82232">
        <ele>625.2</ele>
        <time>2022-08-02T10:25:08Z</time>
      </trkpt>
      <trkpt lat="45.80906" lon="1.82237">
        <ele>625.6</ele>
        <time>2022-08-02T10:25:10Z</time>
      </trkpt>
      <trkpt lat="45.80904" lon="1.82241">
        <ele>625.9</ele>
        <time>2022-08-02T10:25:12Z</time>
      </trkpt>
      <trkpt lat="45.80902" lon="1.82244">
        <ele>626.1</ele>
        <time>2022-08-02T10:25:14Z</time>
      </trkpt>
      <trkpt lat="45.80899" lon="1.82248">
        <ele>626.3</ele>
        <time>2022-08-02T10:25:16Z</time>
      </trkpt>
      <trkpt lat="45.80896" lon="1.82252">
        <ele>626.7</ele>
        <time>2022-08-02T10:25:18Z</time>
      </trkpt>
      <trkpt lat="45.80893" lon="1.82256">
        <ele>627.2</ele>
        <time>2022-08-02T10:25:20Z</time>
      </trkpt>
      <trkpt lat="45.80891" lon="1.82259">
        <ele>627.7</ele>
        <time>2022-08-02T10:25:22Z</time>
      </trkpt>
      <trkpt lat="45.80889" lon="1.82262">
        <ele>628.1</ele>
        <time>2022-08-02T10:25:24Z</time>
      </trkpt>
      <trkpt lat="45.80886" lon="1.82266">
        <ele>628.6</ele>
        <time>2022-08-02T10:25:26Z</time>
      </trkpt>
      <trkpt lat="45.80884" lon="1.82269">
        <ele>629.1</ele>
        <time>2022-08-02T10:25:28Z</time>
      </trkpt>
      <trkpt lat="45.80881" lon="1.82272">
        <ele>629.5</ele>
        <time>2022-08-02T10:25:30Z</time>
      </trkpt>
      <trkpt lat="45.80879" lon="1.82275">
        <ele>629.9</ele>
        <time>2022-08-02T10:25:32Z</time>
      </trkpt>
      <trkpt lat="45.80876" lon="1.82279">
        <ele>630.2</ele>
        <time>2022-08-02T10:25:34Z</time>
      </trkpt>
      <trkpt lat="45.80874" lon="1.82281">
        <ele>630.6</ele>
        <time>2022-08-02T10:25:36Z</time>
      </trkpt>
      <trkpt lat="45.80871" lon="1.82285">
        <ele>631</ele>
        <time>2022-08-02T10:25:38Z</time>
      </trkpt>
      <trkpt lat="45.80868" lon="1.82287">
        <ele>631.3</ele>
        <time>2022-08-02T10:25:40Z</time>
      </trkpt>
      <trkpt lat="45.80866" lon="1.8229">
        <ele>631.5</ele>
        <time>2022-08-02T10:25:42Z</time>
      </trkpt>
      <trkpt lat="45.80863" lon="1.82292">
        <ele>631.8</ele>
        <time>2022-08-02T10:25:44Z</time>
      </trkpt>
      <trkpt lat="45.8086" lon="1.82295">
        <ele>632</ele>
        <time>2022-08-02T10:25:46Z</time>
      </trkpt>
      <trkpt lat="45.80858" lon="1.82298">
        <ele>632.4</ele>
        <time>2022-08-02T10:25:48Z</time>
      </trkpt>
      <trkpt lat="45.80856" lon="1.82301">
        <ele>632.8</ele>
        <time>2022-08-02T10:25:50Z</time>
      </trkpt>
      <trkpt lat="45.80853" lon="1.82303">
        <ele>633.1</ele>
        <time>2022-08-02T10:25:52Z</time>
      </trkpt>
      <trkpt lat="45.80851" lon="1.82305">
        <ele>633.3</ele>
        <time>2022-08-02T10:25:54Z</time>
      </trkpt>
      <trkpt lat="45.80849" lon="1.82308">
        <ele>633.7</ele>
        <time>2022-08-02T10:25:56Z</time>
      </trkpt>
      <trkpt lat="45.80846" lon="1.82311">
        <ele>634</ele>
        <time>2022-08-02T10:25:58Z</time>
      </trkpt>
      <trkpt lat="45.80843" lon="1.82314">
        <ele>634.2</ele>
        <time>2022-08-02T10:26:00Z</time>
      </trkpt>
      <trkpt lat="45.80841" lon="1.82317">
        <ele>634.7</ele>
        <time>2022-08-02T10:26:02Z</time>
      </trkpt>
      <trkpt lat="45.80839" lon="1.82321">
        <ele>635.1</ele>
        <time>2022-08-02T10:26:04Z</time>
      </trkpt>
      <trkpt lat="45.80835" lon="1.82323">
        <ele>635.1</ele>
        <time>2022-08-02T10:26:06Z</time>
      </trkpt>
      <trkpt lat="45.80832" lon="1.82325">
        <ele>635.3</ele>
        <time>2022-08-02T10:26:08Z</time>
      </trkpt>
      <trkpt lat="45.80829" lon="1.82328">
        <ele>635.5</ele>
        <time>2022-08-02T10:26:10Z</time>
      </trkpt>
      <trkpt lat="45.80827" lon="1.8233">
        <ele>635.8</ele>
        <time>2022-08-02T10:26:12Z</time>
      </trkpt>
      <trkpt lat="45.80825" lon="1.82333">
        <ele>636.2</ele>
        <time>2022-08-02T10:26:14Z</time>
      </trkpt>
      <trkpt lat="45.80822" lon="1.82335">
        <ele>636.3</ele>
        <time>2022-08-02T10:26:16Z</time>
      </trkpt>
      <trkpt lat="45.80819" lon="1.82337">
        <ele>636.5</ele>
        <time>2022-08-02T10:26:18Z</time>
      </trkpt>
      <trkpt lat="45.80816" lon="1.82339">
        <ele>636.7</ele>
        <time>2022-08-02T10:26:20Z</time>
      </trkpt>
      <trkpt lat="45.80814" lon="1.82342">
        <ele>637.1</ele>
        <time>2022-08-02T10:26:22Z</time>
      </trkpt>
      <trkpt lat="45.80812" lon="1.82344">
        <ele>637.4</ele>
        <time>2022-08-02T10:26:24Z</time>
      </trkpt>
      <trkpt lat="45.80809" lon="1.82347">
        <ele>637.6</ele>
        <time>2022-08-02T10:26:26Z</time>
      </trkpt>
      <trkpt lat="45.80806" lon="1.8235">
        <ele>638</ele>
        <time>2022-08-02T10:26:28Z</time>
      </trkpt>
      <trkpt lat="45.80803" lon="1.82352">
        <ele>638.3</ele>
        <time>2022-08-02T10:26:30Z</time>
      </trkpt>
      <trkpt lat="45.80801" lon="1.82354">
        <ele>638.6</ele>
        <time>2022-08-02T10:26:32Z</time>
      </trkpt>
      <trkpt lat="45.80799" lon="1.82357">
        <ele>638.9</ele>
        <time>2022-08-02T10:26:34Z</time>
      </trkpt>
      <trkpt lat="45.80797" lon="1.82359">
        <ele>639.4</ele>
        <time>2022-08-02T10:26:36Z</time>
      </trkpt>
      <trkpt lat="45.80794" lon="1.82362">
        <ele>639.7</ele>
        <time>2022-08-02T10:26:38Z</time>
      </trkpt>
      <trkpt lat="45.80792" lon="1.82364">
        <ele>640.1</ele>
        <time>2022-08-02T10:26:40Z</time>
      </trkpt>
      <trkpt lat="45.8079" lon="1.82367">
        <ele>640.5</ele>
        <time>2022-08-02T10:26:42Z</time>
      </trkpt>
      <trkpt lat="45.80787" lon="1.82369">
        <ele>640.7</ele>
        <time>2022-08-02T10:26:44Z</time>
      </trkpt>
      <trkpt lat="45.80785" lon="1.82371">
        <ele>640.9</ele>
        <time>2022-08-02T10:26:46Z</time>
      </trkpt>
      <trkpt lat="45.80783" lon="1.82373">
        <ele>641.3</ele>
        <time>2022-08-02T10:26:48Z</time>
      </trkpt>
      <trkpt lat="45.8078" lon="1.82375">
        <ele>641.5</ele>
        <time>2022-08-02T10:26:50Z</time>
      </trkpt>
      <trkpt lat="45.80778" lon="1.82377">
        <ele>641.8</ele>
        <time>2022-08-02T10:26:52Z</time>
      </trkpt>
      <trkpt lat="45.80775" lon="1.82378">
        <ele>641.9</ele>
        <time>2022-08-02T10:26:54Z</time>
      </trkpt>
      <trkpt lat="45.80772" lon="1.82381">
        <ele>642.2</ele>
        <time>2022-08-02T10:26:56Z</time>
      </trkpt>
      <trkpt lat="45.8077" lon="1.82382">
        <ele>642.3</ele>
        <time>2022-08-02T10:26:58Z</time>
      </trkpt>
      <trkpt lat="45.80767" lon="1.82383">
        <ele>642.4</ele>
        <time>2022-08-02T10:27:00Z</time>
      </trkpt>
      <trkpt lat="45.80765" lon="1.82385">
        <ele>642.6</ele>
        <time>2022-08-02T10:27:02Z</time>
      </trkpt>
      <trkpt lat="45.80763" lon="1.82386">
        <ele>642.7</ele>
        <time>2022-08-02T10:27:04Z</time>
      </trkpt>
      <trkpt lat="45.8076" lon="1.82388">
        <ele>642.9</ele>
        <time>2022-08-02T10:27:06Z</time>
      </trkpt>
      <trkpt lat="45.80758" lon="1.82389">
        <ele>643</ele>
        <time>2022-08-02T10:27:08Z</time>
      </trkpt>
      <trkpt lat="45.80756" lon="1.82391">
        <ele>643.3</ele>
        <time>2022-08-02T10:27:10Z</time>
      </trkpt>
      <trkpt lat="45.80754" lon="1.82392">
        <ele>643.3</ele>
        <time>2022-08-02T10:27:12Z</time>
      </trkpt>
      <trkpt lat="45.80751" lon="1.82393">
        <ele>643.3</ele>
        <time>2022-08-02T10:27:14Z</time>
      </trkpt>
      <trkpt lat="45.80748" lon="1.82393">
        <ele>643.4</ele>
        <time>2022-08-02T10:27:16Z</time>
      </trkpt>
      <trkpt lat="45.80745" lon="1.82394">
        <ele>643.5</ele>
        <time>2022-08-02T10:27:18Z</time>
      </trkpt>
      <trkpt lat="45.80743" lon="1.82395">
        <ele>643.9</ele>
        <time>2022-08-02T10:27:20Z</time>
      </trkpt>
      <trkpt lat="45.8074" lon="1.82395">
        <ele>644</ele>
        <time>2022-08-02T10:27:22Z</time>
      </trkpt>
      <trkpt lat="45.80738" lon="1.82397">
        <ele>644.3</ele>
        <time>2022-08-02T10:27:24Z</time>
      </trkpt>
      <trkpt lat="45.80736" lon="1.82399">
        <ele>644.7</ele>
        <time>2022-08-02T10:27:26Z</time>
      </trkpt>
      <trkpt lat="45.80733" lon="1.82399">
        <ele>644.9</ele>
        <time>2022-08-02T10:27:28Z</time>
      </trkpt>
      <trkpt lat="45.8073" lon="1.824">
        <ele>645.1</ele>
        <time>2022-08-02T10:27:30Z</time>
      </trkpt>
      <trkpt lat="45.80727" lon="1.82399">
        <ele>644.9</ele>
        <time>2022-08-02T10:27:32Z</time>
      </trkpt>
      <trkpt lat="45.80725" lon="1.82401">
        <ele>645.2</ele>
        <time>2022-08-02T10:27:34Z</time>
      </trkpt>
      <trkpt lat="45.80722" lon="1.82402">
        <ele>645.4</ele>
        <time>2022-08-02T10:27:36Z</time>
      </trkpt>
      <trkpt lat="45.80719" lon="1.82402">
        <ele>645.6</ele>
        <time>2022-08-02T10:27:38Z</time>
      </trkpt>
      <trkpt lat="45.80716" lon="1.82404">
        <ele>646</ele>
        <time>2022-08-02T10:27:40Z</time>
      </trkpt>
      <trkpt lat="45.80713" lon="1.82405">
        <ele>646.2</ele>
        <time>2022-08-02T10:27:42Z</time>
      </trkpt>
      <trkpt lat="45.80709" lon="1.82406">
        <ele>646.4</ele>
        <time>2022-08-02T10:27:44Z</time>
      </trkpt>
      <trkpt lat="45.80706" lon="1.82407">
        <ele>646.6</ele>
        <time>2022-08-02T10:27:46Z</time>
      </trkpt>
      <trkpt lat="45.80703" lon="1.82408">
        <ele>646.7</ele>
        <time>2022-08-02T10:27:48Z</time>
      </trkpt>
      <trkpt lat="45.807" lon="1.82409">
        <ele>646.8</ele>
        <time>2022-08-02T10:27:50Z</time>
      </trkpt>
      <trkpt lat="45.80697" lon="1.82409">
        <ele>646.9</ele>
        <time>2022-08-02T10:27:52Z</time>
      </trkpt>
      <trkpt lat="45.80694" lon="1.8241">
        <ele>647.1</ele>
        <time>2022-08-02T10:27:54Z</time>
      </trkpt>
      <trkpt lat="45.80691" lon="1.82412">
        <ele>647.3</ele>
        <time>2022-08-02T10:27:56Z</time>
      </trkpt>
      <trkpt lat="45.80688" lon="1.82412">
        <ele>647.4</ele>
        <time>2022-08-02T10:27:58Z</time>
      </trkpt>
      <trkpt lat="45.80685" lon="1.82412">
        <ele>647.4</ele>
        <time>2022-08-02T10:28:00Z</time>
      </trkpt>
      <trkpt lat="45.80682" lon="1.82414">
        <ele>647.7</ele>
        <time>2022-08-02T10:28:02Z</time>
      </trkpt>
      <trkpt lat="45.8068" lon="1.82416">
        <ele>648.1</ele>
        <time>2022-08-02T10:28:04Z</time>
      </trkpt>
      <trkpt lat="45.80677" lon="1.82419">
        <ele>648.5</ele>
        <time>2022-08-02T10:28:06Z</time>
      </trkpt>
      <trkpt lat="45.80674" lon="1.8242">
        <ele>648.6</ele>
        <time>2022-08-02T10:28:08Z</time>
      </trkpt>
      <trkpt lat="45.80671" lon="1.82422">
        <ele>648.8</ele>
        <time>2022-08-02T10:28:10Z</time>
      </trkpt>
      <trkpt lat="45.80668" lon="1.82423">
        <ele>648.9</ele>
        <time>2022-08-02T10:28:12Z</time>
      </trkpt>
      <trkpt lat="45.80665" lon="1.82424">
        <ele>648.8</ele>
        <time>2022-08-02T10:28:14Z</time>
      </trkpt>
      <trkpt lat="45.80662" lon="1.82427">
        <ele>648.5</ele>
        <time>2022-08-02T10:28:16Z</time>
      </trkpt>
      <trkpt lat="45.8066" lon="1.82429">
        <ele>648.3</ele>
        <time>2022-08-02T10:28:18Z</time>
      </trkpt>
      <trkpt lat="45.80657" lon="1.82431">
        <ele>648.2</ele>
        <time>2022-08-02T10:28:20Z</time>
      </trkpt>
      <trkpt lat="45.80654" lon="1.82433">
        <ele>648</ele>
        <time>2022-08-02T10:28:22Z</time>
      </trkpt>
      <trkpt lat="45.80651" lon="1.82435">
        <ele>647.8</ele>
        <time>2022-08-02T10:28:24Z</time>
      </trkpt>
      <trkpt lat="45.80649" lon="1.82438">
        <ele>647.8</ele>
        <time>2022-08-02T10:28:26Z</time>
      </trkpt>
      <trkpt lat="45.80646" lon="1.8244">
        <ele>647.5</ele>
        <time>2022-08-02T10:28:28Z</time>
      </trkpt>
      <trkpt lat="45.80643" lon="1.82442">
        <ele>647.4</ele>
        <time>2022-08-02T10:28:30Z</time>
      </trkpt>
      <trkpt lat="45.8064" lon="1.82445">
        <ele>647.3</ele>
        <time>2022-08-02T10:28:32Z</time>
      </trkpt>
      <trkpt lat="45.80638" lon="1.82448">
        <ele>647.2</ele>
        <time>2022-08-02T10:28:34Z</time>
      </trkpt>
      <trkpt lat="45.80635" lon="1.82451">
        <ele>647.2</ele>
        <time>2022-08-02T10:28:36Z</time>
      </trkpt>
      <trkpt lat="45.80632" lon="1.82454">
        <ele>647.3</ele>
        <time>2022-08-02T10:28:38Z</time>
      </trkpt>
      <trkpt lat="45.8063" lon="1.82458">
        <ele>647.5</ele>
        <time>2022-08-02T10:28:40Z</time>
      </trkpt>
      <trkpt lat="45.80627" lon="1.82462">
        <ele>647.7</ele>
        <time>2022-08-02T10:28:42Z</time>
      </trkpt>
      <trkpt lat="45.80625" lon="1.82465">
        <ele>647.8</ele>
        <time>2022-08-02T10:28:44Z</time>
      </trkpt>
      <trkpt lat="45.80622" lon="1.82469">
        <ele>647.8</ele>
        <time>2022-08-02T10:28:46Z</time>
      </trkpt>
      <trkpt lat="45.8062" lon="1.82474">
        <ele>648.3</ele>
        <time>2022-08-02T10:28:48Z</time>
      </trkpt>
      <trkpt lat="45.80617" lon="1.82479">
        <ele>648.5</ele>
        <time>2022-08-02T10:28:50Z</time>
      </trkpt>
      <trkpt lat="45.80614" lon="1.82483">
        <ele>648.8</ele>
        <time>2022-08-02T10:28:52Z</time>
      </trkpt>
      <trkpt lat="45.80611" lon="1.82487">
        <ele>649</ele>
        <time>2022-08-02T10:28:54Z</time>
      </trkpt>
      <trkpt lat="45.80609" lon="1.82491">
        <ele>649.3</ele>
        <time>2022-08-02T10:28:56Z</time>
      </trkpt>
      <trkpt lat="45.80606" lon="1.82495">
        <ele>649.5</ele>
        <time>2022-08-02T10:28:58Z</time>
      </trkpt>
      <trkpt lat="45.80603" lon="1.82499">
        <ele>649.7</ele>
        <time>2022-08-02T10:29:00Z</time>
      </trkpt>
      <trkpt lat="45.806" lon="1.82503">
        <ele>649.8</ele>
        <time>2022-08-02T10:29:02Z</time>
      </trkpt>
      <trkpt lat="45.80598" lon="1.82508">
        <ele>649.9</ele>
        <time>2022-08-02T10:29:04Z</time>
      </trkpt>
      <trkpt lat="45.80595" lon="1.82512">
        <ele>650</ele>
        <time>2022-08-02T10:29:06Z</time>
      </trkpt>
      <trkpt lat="45.80592" lon="1.82517">
        <ele>650.2</ele>
        <time>2022-08-02T10:29:08Z</time>
      </trkpt>
      <trkpt lat="45.8059" lon="1.82522">
        <ele>650.3</ele>
        <time>2022-08-02T10:29:10Z</time>
      </trkpt>
      <trkpt lat="45.80587" lon="1.82526">
        <ele>650.5</ele>
        <time>2022-08-02T10:29:12Z</time>
      </trkpt>
      <trkpt lat="45.80584" lon="1.82532">
        <ele>650.6</ele>
        <time>2022-08-02T10:29:14Z</time>
      </trkpt>
      <trkpt lat="45.80582" lon="1.82538">
        <ele>650.8</ele>
        <time>2022-08-02T10:29:16Z</time>
      </trkpt>
      <trkpt lat="45.80579" lon="1.82544">
        <ele>650.9</ele>
        <time>2022-08-02T10:29:18Z</time>
      </trkpt>
      <trkpt lat="45.80576" lon="1.82549">
        <ele>651.1</ele>
        <time>2022-08-02T10:29:20Z</time>
      </trkpt>
      <trkpt lat="45.80574" lon="1.82555">
        <ele>651.3</ele>
        <time>2022-08-02T10:29:22Z</time>
      </trkpt>
      <trkpt lat="45.80571" lon="1.8256">
        <ele>651.5</ele>
        <time>2022-08-02T10:29:24Z</time>
      </trkpt>
      <trkpt lat="45.80569" lon="1.82566">
        <ele>651.6</ele>
        <time>2022-08-02T10:29:26Z</time>
      </trkpt>
      <trkpt lat="45.80566" lon="1.82572">
        <ele>651.7</ele>
        <time>2022-08-02T10:29:28Z</time>
      </trkpt>
      <trkpt lat="45.80564" lon="1.82577">
        <ele>651.9</ele>
        <time>2022-08-02T10:29:30Z</time>
      </trkpt>
      <trkpt lat="45.80562" lon="1.82582">
        <ele>652</ele>
        <time>2022-08-02T10:29:32Z</time>
      </trkpt>
      <trkpt lat="45.80559" lon="1.82588">
        <ele>652</ele>
        <time>2022-08-02T10:29:34Z</time>
      </trkpt>
      <trkpt lat="45.80557" lon="1.82593">
        <ele>652.1</ele>
        <time>2022-08-02T10:29:36Z</time>
      </trkpt>
      <trkpt lat="45.80555" lon="1.82598">
        <ele>652</ele>
        <time>2022-08-02T10:29:38Z</time>
      </trkpt>
      <trkpt lat="45.80553" lon="1.82603">
        <ele>652</ele>
        <time>2022-08-02T10:29:40Z</time>
      </trkpt>
      <trkpt lat="45.80551" lon="1.82607">
        <ele>652</ele>
        <time>2022-08-02T10:29:42Z</time>
      </trkpt>
      <trkpt lat="45.8055" lon="1.82613">
        <ele>652.3</ele>
        <time>2022-08-02T10:29:44Z</time>
      </trkpt>
      <trkpt lat="45.80549" lon="1.82619">
        <ele>652.4</ele>
        <time>2022-08-02T10:29:46Z</time>
      </trkpt>
      <trkpt lat="45.80546" lon="1.82625">
        <ele>652.4</ele>
        <time>2022-08-02T10:29:48Z</time>
      </trkpt>
      <trkpt lat="45.80544" lon="1.8263">
        <ele>652.3</ele>
        <time>2022-08-02T10:29:50Z</time>
      </trkpt>
      <trkpt lat="45.80542" lon="1.82636">
        <ele>652.5</ele>
        <time>2022-08-02T10:29:52Z</time>
      </trkpt>
      <trkpt lat="45.80541" lon="1.82641">
        <ele>652.5</ele>
        <time>2022-08-02T10:29:54Z</time>
      </trkpt>
      <trkpt lat="45.80539" lon="1.82647">
        <ele>652.7</ele>
        <time>2022-08-02T10:29:56Z</time>
      </trkpt>
      <trkpt lat="45.80538" lon="1.82654">
        <ele>652.8</ele>
        <time>2022-08-02T10:29:58Z</time>
      </trkpt>
      <trkpt lat="45.80537" lon="1.82662">
        <ele>653.2</ele>
        <time>2022-08-02T10:30:00Z</time>
      </trkpt>
      <trkpt lat="45.80536" lon="1.82669">
        <ele>653.4</ele>
        <time>2022-08-02T10:30:02Z</time>
      </trkpt>
      <trkpt lat="45.80534" lon="1.82676">
        <ele>653.5</ele>
        <time>2022-08-02T10:30:04Z</time>
      </trkpt>
      <trkpt lat="45.80533" lon="1.82683">
        <ele>653.8</ele>
        <time>2022-08-02T10:30:06Z</time>
      </trkpt>
      <trkpt lat="45.80533" lon="1.82692">
        <ele>654.1</ele>
        <time>2022-08-02T10:30:08Z</time>
      </trkpt>
      <trkpt lat="45.80532" lon="1.82699">
        <ele>654.4</ele>
        <time>2022-08-02T10:30:10Z</time>
      </trkpt>
      <trkpt lat="45.80532" lon="1.82707">
        <ele>654.8</ele>
        <time>2022-08-02T10:30:12Z</time>
      </trkpt>
      <trkpt lat="45.8053" lon="1.82713">
        <ele>654.9</ele>
        <time>2022-08-02T10:30:14Z</time>
      </trkpt>
      <trkpt lat="45.80529" lon="1.82721">
        <ele>655.2</ele>
        <time>2022-08-02T10:30:16Z</time>
      </trkpt>
      <trkpt lat="45.80528" lon="1.82729">
        <ele>655.5</ele>
        <time>2022-08-02T10:30:18Z</time>
      </trkpt>
      <trkpt lat="45.80528" lon="1.82737">
        <ele>655.9</ele>
        <time>2022-08-02T10:30:20Z</time>
      </trkpt>
      <trkpt lat="45.80528" lon="1.82744">
        <ele>656.3</ele>
        <time>2022-08-02T10:30:22Z</time>
      </trkpt>
      <trkpt lat="45.80526" lon="1.82752">
        <ele>656.4</ele>
        <time>2022-08-02T10:30:24Z</time>
      </trkpt>
      <trkpt lat="45.80525" lon="1.8276">
        <ele>656.2</ele>
        <time>2022-08-02T10:30:26Z</time>
      </trkpt>
      <trkpt lat="45.80524" lon="1.82769">
        <ele>656</ele>
        <time>2022-08-02T10:30:28Z</time>
      </trkpt>
      <trkpt lat="45.80523" lon="1.82776">
        <ele>655.7</ele>
        <time>2022-08-02T10:30:30Z</time>
      </trkpt>
      <trkpt lat="45.80522" lon="1.82785">
        <ele>655.6</ele>
        <time>2022-08-02T10:30:32Z</time>
      </trkpt>
      <trkpt lat="45.80521" lon="1.82792">
        <ele>655.4</ele>
        <time>2022-08-02T10:30:34Z</time>
      </trkpt>
      <trkpt lat="45.8052" lon="1.828">
        <ele>655.2</ele>
        <time>2022-08-02T10:30:36Z</time>
      </trkpt>
      <trkpt lat="45.8052" lon="1.82808">
        <ele>655.2</ele>
        <time>2022-08-02T10:30:38Z</time>
      </trkpt>
      <trkpt lat="45.80519" lon="1.82816">
        <ele>655.1</ele>
        <time>2022-08-02T10:30:40Z</time>
      </trkpt>
      <trkpt lat="45.80518" lon="1.82825">
        <ele>654.9</ele>
        <time>2022-08-02T10:30:42Z</time>
      </trkpt>
      <trkpt lat="45.80517" lon="1.82833">
        <ele>654.8</ele>
        <time>2022-08-02T10:30:44Z</time>
      </trkpt>
      <trkpt lat="45.80516" lon="1.82841">
        <ele>655</ele>
        <time>2022-08-02T10:30:46Z</time>
      </trkpt>
      <trkpt lat="45.80515" lon="1.82849">
        <ele>655.2</ele>
        <time>2022-08-02T10:30:48Z</time>
      </trkpt>
      <trkpt lat="45.80514" lon="1.82857">
        <ele>655.4</ele>
        <time>2022-08-02T10:30:50Z</time>
      </trkpt>
      <trkpt lat="45.80514" lon="1.82865">
        <ele>655.6</ele>
        <time>2022-08-02T10:30:52Z</time>
      </trkpt>
      <trkpt lat="45.80513" lon="1.82872">
        <ele>655.8</ele>
        <time>2022-08-02T10:30:54Z</time>
      </trkpt>
      <trkpt lat="45.80511" lon="1.8288">
        <ele>655.9</ele>
        <time>2022-08-02T10:30:56Z</time>
      </trkpt>
      <trkpt lat="45.80511" lon="1.82888">
        <ele>656.2</ele>
        <time>2022-08-02T10:30:58Z</time>
      </trkpt>
      <trkpt lat="45.8051" lon="1.82896">
        <ele>656.5</ele>
        <time>2022-08-02T10:31:00Z</time>
      </trkpt>
      <trkpt lat="45.80509" lon="1.82904">
        <ele>656.6</ele>
        <time>2022-08-02T10:31:02Z</time>
      </trkpt>
      <trkpt lat="45.80508" lon="1.82913">
        <ele>656.8</ele>
        <time>2022-08-02T10:31:04Z</time>
      </trkpt>
      <trkpt lat="45.80507" lon="1.82923">
        <ele>656.7</ele>
        <time>2022-08-02T10:31:06Z</time>
      </trkpt>
      <trkpt lat="45.80506" lon="1.82933">
        <ele>656.5</ele>
        <time>2022-08-02T10:31:08Z</time>
      </trkpt>
      <trkpt lat="45.80505" lon="1.82945">
        <ele>656.1</ele>
        <time>2022-08-02T10:31:10Z</time>
      </trkpt>
      <trkpt lat="45.80503" lon="1.82958">
        <ele>655.8</ele>
        <time>2022-08-02T10:31:12Z</time>
      </trkpt>
      <trkpt lat="45.80503" lon="1.82973">
        <ele>655.5</ele>
        <time>2022-08-02T10:31:14Z</time>
      </trkpt>
      <trkpt lat="45.80501" lon="1.82989">
        <ele>655.2</ele>
        <time>2022-08-02T10:31:16Z</time>
      </trkpt>
      <trkpt lat="45.805" lon="1.83006">
        <ele>654.8</ele>
        <time>2022-08-02T10:31:18Z</time>
      </trkpt>
      <trkpt lat="45.80498" lon="1.83024">
        <ele>654.4</ele>
        <time>2022-08-02T10:31:20Z</time>
      </trkpt>
      <trkpt lat="45.80497" lon="1.83043">
        <ele>653.9</ele>
        <time>2022-08-02T10:31:22Z</time>
      </trkpt>
      <trkpt lat="45.80495" lon="1.83063">
        <ele>653.6</ele>
        <time>2022-08-02T10:31:24Z</time>
      </trkpt>
      <trkpt lat="45.80494" lon="1.83084">
        <ele>653.3</ele>
        <time>2022-08-02T10:31:26Z</time>
      </trkpt>
      <trkpt lat="45.80492" lon="1.83105">
        <ele>653.1</ele>
        <time>2022-08-02T10:31:28Z</time>
      </trkpt>
      <trkpt lat="45.80491" lon="1.83127">
        <ele>653</ele>
        <time>2022-08-02T10:31:30Z</time>
      </trkpt>
      <trkpt lat="45.80489" lon="1.83149">
        <ele>652.9</ele>
        <time>2022-08-02T10:31:32Z</time>
      </trkpt>
      <trkpt lat="45.80487" lon="1.83172">
        <ele>652.6</ele>
        <time>2022-08-02T10:31:34Z</time>
      </trkpt>
      <trkpt lat="45.80484" lon="1.83196">
        <ele>651.1</ele>
        <time>2022-08-02T10:31:36Z</time>
      </trkpt>
      <trkpt lat="45.80483" lon="1.83221">
        <ele>649.3</ele>
        <time>2022-08-02T10:31:38Z</time>
      </trkpt>
      <trkpt lat="45.80481" lon="1.83247">
        <ele>647.6</ele>
        <time>2022-08-02T10:31:40Z</time>
      </trkpt>
      <trkpt lat="45.80479" lon="1.83272">
        <ele>647.2</ele>
        <time>2022-08-02T10:31:42Z</time>
      </trkpt>
      <trkpt lat="45.80479" lon="1.83296">
        <ele>646.5</ele>
        <time>2022-08-02T10:31:44Z</time>
      </trkpt>
      <trkpt lat="45.8048" lon="1.83319">
        <ele>645.7</ele>
        <time>2022-08-02T10:31:46Z</time>
      </trkpt>
      <trkpt lat="45.80482" lon="1.8334">
        <ele>645.2</ele>
        <time>2022-08-02T10:31:48Z</time>
      </trkpt>
      <trkpt lat="45.80484" lon="1.83362">
        <ele>645.8</ele>
        <time>2022-08-02T10:31:50Z</time>
      </trkpt>
      <trkpt lat="45.80486" lon="1.83381">
        <ele>646.3</ele>
        <time>2022-08-02T10:31:52Z</time>
      </trkpt>
      <trkpt lat="45.80487" lon="1.834">
        <ele>646.9</ele>
        <time>2022-08-02T10:31:54Z</time>
      </trkpt>
      <trkpt lat="45.80489" lon="1.83416">
        <ele>647.3</ele>
        <time>2022-08-02T10:31:56Z</time>
      </trkpt>
      <trkpt lat="45.8049" lon="1.83431">
        <ele>647.6</ele>
        <time>2022-08-02T10:31:58Z</time>
      </trkpt>
      <trkpt lat="45.80492" lon="1.83444">
        <ele>647.9</ele>
        <time>2022-08-02T10:32:00Z</time>
      </trkpt>
      <trkpt lat="45.80493" lon="1.83457">
        <ele>648.3</ele>
        <time>2022-08-02T10:32:02Z</time>
      </trkpt>
      <trkpt lat="45.80494" lon="1.83468">
        <ele>648.7</ele>
        <time>2022-08-02T10:32:04Z</time>
      </trkpt>
      <trkpt lat="45.80494" lon="1.83479">
        <ele>649.1</ele>
        <time>2022-08-02T10:32:06Z</time>
      </trkpt>
      <trkpt lat="45.80495" lon="1.83489">
        <ele>649.5</ele>
        <time>2022-08-02T10:32:08Z</time>
      </trkpt>
      <trkpt lat="45.80495" lon="1.83499">
        <ele>649.8</ele>
        <time>2022-08-02T10:32:10Z</time>
      </trkpt>
      <trkpt lat="45.80495" lon="1.83507">
        <ele>650.2</ele>
        <time>2022-08-02T10:32:12Z</time>
      </trkpt>
      <trkpt lat="45.80495" lon="1.83515">
        <ele>650.6</ele>
        <time>2022-08-02T10:32:14Z</time>
      </trkpt>
      <trkpt lat="45.80494" lon="1.83522">
        <ele>651</ele>
        <time>2022-08-02T10:32:16Z</time>
      </trkpt>
      <trkpt lat="45.80494" lon="1.8353">
        <ele>651.4</ele>
        <time>2022-08-02T10:32:18Z</time>
      </trkpt>
      <trkpt lat="45.80494" lon="1.83537">
        <ele>651.7</ele>
        <time>2022-08-02T10:32:20Z</time>
      </trkpt>
      <trkpt lat="45.80492" lon="1.83544">
        <ele>652.2</ele>
        <time>2022-08-02T10:32:22Z</time>
      </trkpt>
      <trkpt lat="45.80491" lon="1.8355">
        <ele>652.6</ele>
        <time>2022-08-02T10:32:24Z</time>
      </trkpt>
      <trkpt lat="45.80489" lon="1.83557">
        <ele>653.1</ele>
        <time>2022-08-02T10:32:26Z</time>
      </trkpt>
      <trkpt lat="45.80487" lon="1.83563">
        <ele>653.6</ele>
        <time>2022-08-02T10:32:28Z</time>
      </trkpt>
      <trkpt lat="45.80485" lon="1.8357">
        <ele>654.1</ele>
        <time>2022-08-02T10:32:30Z</time>
      </trkpt>
      <trkpt lat="45.80483" lon="1.83575">
        <ele>654.5</ele>
        <time>2022-08-02T10:32:32Z</time>
      </trkpt>
      <trkpt lat="45.80481" lon="1.8358">
        <ele>654.9</ele>
        <time>2022-08-02T10:32:34Z</time>
      </trkpt>
      <trkpt lat="45.80478" lon="1.83584">
        <ele>655.4</ele>
        <time>2022-08-02T10:32:36Z</time>
      </trkpt>
      <trkpt lat="45.80475" lon="1.83589">
        <ele>655.8</ele>
        <time>2022-08-02T10:32:38Z</time>
      </trkpt>
      <trkpt lat="45.80473" lon="1.83594">
        <ele>656.2</ele>
        <time>2022-08-02T10:32:40Z</time>
      </trkpt>
      <trkpt lat="45.8047" lon="1.83598">
        <ele>656.6</ele>
        <time>2022-08-02T10:32:42Z</time>
      </trkpt>
      <trkpt lat="45.80467" lon="1.83602">
        <ele>657</ele>
        <time>2022-08-02T10:32:44Z</time>
      </trkpt>
      <trkpt lat="45.80464" lon="1.83607">
        <ele>657.4</ele>
        <time>2022-08-02T10:32:46Z</time>
      </trkpt>
      <trkpt lat="45.80462" lon="1.83612">
        <ele>657.7</ele>
        <time>2022-08-02T10:32:48Z</time>
      </trkpt>
      <trkpt lat="45.80459" lon="1.83616">
        <ele>658</ele>
        <time>2022-08-02T10:32:50Z</time>
      </trkpt>
      <trkpt lat="45.80456" lon="1.83621">
        <ele>658.3</ele>
        <time>2022-08-02T10:32:52Z</time>
      </trkpt>
      <trkpt lat="45.80454" lon="1.83627">
        <ele>658.6</ele>
        <time>2022-08-02T10:32:54Z</time>
      </trkpt>
      <trkpt lat="45.80452" lon="1.83634">
        <ele>658.8</ele>
        <time>2022-08-02T10:32:56Z</time>
      </trkpt>
      <trkpt lat="45.80451" lon="1.8364">
        <ele>659</ele>
        <time>2022-08-02T10:32:58Z</time>
      </trkpt>
      <trkpt lat="45.80451" lon="1.83646">
        <ele>659.1</ele>
        <time>2022-08-02T10:33:00Z</time>
      </trkpt>
      <trkpt lat="45.80451" lon="1.83651">
        <ele>659.2</ele>
        <time>2022-08-02T10:33:02Z</time>
      </trkpt>
      <trkpt lat="45.80451" lon="1.83657">
        <ele>659.3</ele>
        <time>2022-08-02T10:33:04Z</time>
      </trkpt>
      <trkpt lat="45.80451" lon="1.83663">
        <ele>659.3</ele>
        <time>2022-08-02T10:33:06Z</time>
      </trkpt>
      <trkpt lat="45.80452" lon="1.8367">
        <ele>659.5</ele>
        <time>2022-08-02T10:33:08Z</time>
      </trkpt>
      <trkpt lat="45.80454" lon="1.83676">
        <ele>659.7</ele>
        <time>2022-08-02T10:33:10Z</time>
      </trkpt>
      <trkpt lat="45.80456" lon="1.83681">
        <ele>659.9</ele>
        <time>2022-08-02T10:33:12Z</time>
      </trkpt>
      <trkpt lat="45.80458" lon="1.83687">
        <ele>660.1</ele>
        <time>2022-08-02T10:33:14Z</time>
      </trkpt>
      <trkpt lat="45.8046" lon="1.83693">
        <ele>660.3</ele>
        <time>2022-08-02T10:33:16Z</time>
      </trkpt>
      <trkpt lat="45.80461" lon="1.83698">
        <ele>660.5</ele>
        <time>2022-08-02T10:33:18Z</time>
      </trkpt>
      <trkpt lat="45.80464" lon="1.83703">
        <ele>660.5</ele>
        <time>2022-08-02T10:33:20Z</time>
      </trkpt>
      <trkpt lat="45.80466" lon="1.83709">
        <ele>660.7</ele>
        <time>2022-08-02T10:33:22Z</time>
      </trkpt>
      <trkpt lat="45.80468" lon="1.83714">
        <ele>660.8</ele>
        <time>2022-08-02T10:33:24Z</time>
      </trkpt>
      <trkpt lat="45.8047" lon="1.83719">
        <ele>660.8</ele>
        <time>2022-08-02T10:33:26Z</time>
      </trkpt>
      <trkpt lat="45.80471" lon="1.83725">
        <ele>661</ele>
        <time>2022-08-02T10:33:28Z</time>
      </trkpt>
      <trkpt lat="45.80472" lon="1.8373">
        <ele>661.2</ele>
        <time>2022-08-02T10:33:30Z</time>
      </trkpt>
      <trkpt lat="45.80473" lon="1.83736">
        <ele>661.3</ele>
        <time>2022-08-02T10:33:32Z</time>
      </trkpt>
      <trkpt lat="45.80473" lon="1.83741">
        <ele>661.5</ele>
        <time>2022-08-02T10:33:34Z</time>
      </trkpt>
      <trkpt lat="45.80474" lon="1.83748">
        <ele>661.7</ele>
        <time>2022-08-02T10:33:36Z</time>
      </trkpt>
      <trkpt lat="45.80474" lon="1.83753">
        <ele>661.9</ele>
        <time>2022-08-02T10:33:38Z</time>
      </trkpt>
      <trkpt lat="45.80474" lon="1.83759">
        <ele>661.9</ele>
        <time>2022-08-02T10:33:40Z</time>
      </trkpt>
      <trkpt lat="45.80475" lon="1.83765">
        <ele>662</ele>
        <time>2022-08-02T10:33:42Z</time>
      </trkpt>
      <trkpt lat="45.80473" lon="1.83771">
        <ele>662.3</ele>
        <time>2022-08-02T10:33:44Z</time>
      </trkpt>
      <trkpt lat="45.80473" lon="1.83777">
        <ele>662.4</ele>
        <time>2022-08-02T10:33:46Z</time>
      </trkpt>
      <trkpt lat="45.80473" lon="1.83783">
        <ele>662.6</ele>
        <time>2022-08-02T10:33:48Z</time>
      </trkpt>
      <trkpt lat="45.80473" lon="1.83789">
        <ele>662.7</ele>
        <time>2022-08-02T10:33:50Z</time>
      </trkpt>
      <trkpt lat="45.80471" lon="1.83795">
        <ele>663</ele>
        <time>2022-08-02T10:33:52Z</time>
      </trkpt>
      <trkpt lat="45.80471" lon="1.838">
        <ele>663.2</ele>
        <time>2022-08-02T10:33:54Z</time>
      </trkpt>
      <trkpt lat="45.80469" lon="1.83806">
        <ele>663.5</ele>
        <time>2022-08-02T10:33:56Z</time>
      </trkpt>
      <trkpt lat="45.80469" lon="1.83813">
        <ele>663.7</ele>
        <time>2022-08-02T10:33:58Z</time>
      </trkpt>
      <trkpt lat="45.80469" lon="1.8382">
        <ele>663.8</ele>
        <time>2022-08-02T10:34:00Z</time>
      </trkpt>
      <trkpt lat="45.80467" lon="1.83826">
        <ele>664.2</ele>
        <time>2022-08-02T10:34:02Z</time>
      </trkpt>
      <trkpt lat="45.80467" lon="1.83832">
        <ele>664.4</ele>
        <time>2022-08-02T10:34:04Z</time>
      </trkpt>
      <trkpt lat="45.80468" lon="1.8384">
        <ele>664.8</ele>
        <time>2022-08-02T10:34:06Z</time>
      </trkpt>
      <trkpt lat="45.80469" lon="1.83848">
        <ele>665.2</ele>
        <time>2022-08-02T10:34:08Z</time>
      </trkpt>
      <trkpt lat="45.80471" lon="1.83856">
        <ele>665.6</ele>
        <time>2022-08-02T10:34:10Z</time>
      </trkpt>
      <trkpt lat="45.80473" lon="1.83863">
        <ele>665.9</ele>
        <time>2022-08-02T10:34:12Z</time>
      </trkpt>
      <trkpt lat="45.80477" lon="1.83869">
        <ele>666</ele>
        <time>2022-08-02T10:34:14Z</time>
      </trkpt>
      <trkpt lat="45.8048" lon="1.83876">
        <ele>666.1</ele>
        <time>2022-08-02T10:34:16Z</time>
      </trkpt>
      <trkpt lat="45.80484" lon="1.83882">
        <ele>666.1</ele>
        <time>2022-08-02T10:34:18Z</time>
      </trkpt>
      <trkpt lat="45.80487" lon="1.83888">
        <ele>666.1</ele>
        <time>2022-08-02T10:34:20Z</time>
      </trkpt>
      <trkpt lat="45.80491" lon="1.83892">
        <ele>666.1</ele>
        <time>2022-08-02T10:34:22Z</time>
      </trkpt>
      <trkpt lat="45.80494" lon="1.83898">
        <ele>666.2</ele>
        <time>2022-08-02T10:34:24Z</time>
      </trkpt>
      <trkpt lat="45.80497" lon="1.83902">
        <ele>666.1</ele>
        <time>2022-08-02T10:34:26Z</time>
      </trkpt>
      <trkpt lat="45.805" lon="1.83906">
        <ele>666.1</ele>
        <time>2022-08-02T10:34:28Z</time>
      </trkpt>
      <trkpt lat="45.80503" lon="1.83911">
        <ele>666.5</ele>
        <time>2022-08-02T10:34:30Z</time>
      </trkpt>
      <trkpt lat="45.80507" lon="1.83916">
        <ele>666.8</ele>
        <time>2022-08-02T10:34:32Z</time>
      </trkpt>
      <trkpt lat="45.8051" lon="1.8392">
        <ele>666.9</ele>
        <time>2022-08-02T10:34:34Z</time>
      </trkpt>
      <trkpt lat="45.80512" lon="1.83924">
        <ele>667</ele>
        <time>2022-08-02T10:34:36Z</time>
      </trkpt>
      <trkpt lat="45.80516" lon="1.83929">
        <ele>667.1</ele>
        <time>2022-08-02T10:34:38Z</time>
      </trkpt>
      <trkpt lat="45.80519" lon="1.83933">
        <ele>667.3</ele>
        <time>2022-08-02T10:34:40Z</time>
      </trkpt>
      <trkpt lat="45.80522" lon="1.83939">
        <ele>667.4</ele>
        <time>2022-08-02T10:34:42Z</time>
      </trkpt>
      <trkpt lat="45.80525" lon="1.83943">
        <ele>667.5</ele>
        <time>2022-08-02T10:34:44Z</time>
      </trkpt>
      <trkpt lat="45.80528" lon="1.83948">
        <ele>667.5</ele>
        <time>2022-08-02T10:34:46Z</time>
      </trkpt>
      <trkpt lat="45.80532" lon="1.83953">
        <ele>667.6</ele>
        <time>2022-08-02T10:34:48Z</time>
      </trkpt>
      <trkpt lat="45.80534" lon="1.83958">
        <ele>667.8</ele>
        <time>2022-08-02T10:34:50Z</time>
      </trkpt>
      <trkpt lat="45.80537" lon="1.83963">
        <ele>667.9</ele>
        <time>2022-08-02T10:34:52Z</time>
      </trkpt>
      <trkpt lat="45.80539" lon="1.83968">
        <ele>668</ele>
        <time>2022-08-02T10:34:54Z</time>
      </trkpt>
      <trkpt lat="45.80541" lon="1.83973">
        <ele>668</ele>
        <time>2022-08-02T10:34:56Z</time>
      </trkpt>
      <trkpt lat="45.80544" lon="1.83979">
        <ele>668.1</ele>
        <time>2022-08-02T10:34:58Z</time>
      </trkpt>
      <trkpt lat="45.80546" lon="1.83986">
        <ele>668.3</ele>
        <time>2022-08-02T10:35:00Z</time>
      </trkpt>
      <trkpt lat="45.80548" lon="1.83993">
        <ele>668.4</ele>
        <time>2022-08-02T10:35:02Z</time>
      </trkpt>
      <trkpt lat="45.8055" lon="1.84">
        <ele>668.6</ele>
        <time>2022-08-02T10:35:04Z</time>
      </trkpt>
      <trkpt lat="45.8055" lon="1.84009">
        <ele>668.4</ele>
        <time>2022-08-02T10:35:06Z</time>
      </trkpt>
      <trkpt lat="45.80551" lon="1.84018">
        <ele>668.3</ele>
        <time>2022-08-02T10:35:08Z</time>
      </trkpt>
      <trkpt lat="45.8055" lon="1.84027">
        <ele>668.2</ele>
        <time>2022-08-02T10:35:10Z</time>
      </trkpt>
      <trkpt lat="45.80549" lon="1.84036">
        <ele>668.2</ele>
        <time>2022-08-02T10:35:12Z</time>
      </trkpt>
      <trkpt lat="45.80547" lon="1.84044">
        <ele>668.3</ele>
        <time>2022-08-02T10:35:14Z</time>
      </trkpt>
      <trkpt lat="45.80544" lon="1.84053">
        <ele>668.4</ele>
        <time>2022-08-02T10:35:16Z</time>
      </trkpt>
      <trkpt lat="45.80541" lon="1.8406">
        <ele>668.7</ele>
        <time>2022-08-02T10:35:18Z</time>
      </trkpt>
      <trkpt lat="45.80537" lon="1.84065">
        <ele>669.2</ele>
        <time>2022-08-02T10:35:20Z</time>
      </trkpt>
      <trkpt lat="45.80532" lon="1.84072">
        <ele>669.7</ele>
        <time>2022-08-02T10:35:22Z</time>
      </trkpt>
      <trkpt lat="45.80527" lon="1.84079">
        <ele>670.4</ele>
        <time>2022-08-02T10:35:24Z</time>
      </trkpt>
      <trkpt lat="45.80521" lon="1.84086">
        <ele>671</ele>
        <time>2022-08-02T10:35:26Z</time>
      </trkpt>
      <trkpt lat="45.80516" lon="1.84093">
        <ele>671.2</ele>
        <time>2022-08-02T10:35:28Z</time>
      </trkpt>
      <trkpt lat="45.8051" lon="1.84102">
        <ele>671.2</ele>
        <time>2022-08-02T10:35:30Z</time>
      </trkpt>
      <trkpt lat="45.80506" lon="1.84108">
        <ele>671.2</ele>
        <time>2022-08-02T10:35:32Z</time>
      </trkpt>
      <trkpt lat="45.80503" lon="1.84117">
        <ele>670.9</ele>
        <time>2022-08-02T10:35:34Z</time>
      </trkpt>
      <trkpt lat="45.805" lon="1.84125">
        <ele>670.5</ele>
        <time>2022-08-02T10:35:36Z</time>
      </trkpt>
      <trkpt lat="45.80499" lon="1.84133">
        <ele>670.1</ele>
        <time>2022-08-02T10:35:38Z</time>
      </trkpt>
      <trkpt lat="45.80498" lon="1.84141">
        <ele>669.5</ele>
        <time>2022-08-02T10:35:40Z</time>
      </trkpt>
      <trkpt lat="45.80499" lon="1.8415">
        <ele>668.7</ele>
        <time>2022-08-02T10:35:42Z</time>
      </trkpt>
      <trkpt lat="45.80499" lon="1.84159">
        <ele>667.8</ele>
        <time>2022-08-02T10:35:44Z</time>
      </trkpt>
      <trkpt lat="45.80499" lon="1.84169">
        <ele>667.1</ele>
        <time>2022-08-02T10:35:46Z</time>
      </trkpt>
      <trkpt lat="45.80498" lon="1.84177">
        <ele>667.2</ele>
        <time>2022-08-02T10:35:48Z</time>
      </trkpt>
      <trkpt lat="45.80492" lon="1.84183">
        <ele>668.1</ele>
        <time>2022-08-02T10:35:50Z</time>
      </trkpt>
      <trkpt lat="45.80488" lon="1.84184">
        <ele>668.9</ele>
        <time>2022-08-02T10:35:52Z</time>
      </trkpt>
      <trkpt lat="45.80486" lon="1.84187">
        <ele>669.1</ele>
        <time>2022-08-02T10:35:54Z</time>
      </trkpt>
      <trkpt lat="45.80487" lon="1.84188">
        <ele>668.9</ele>
        <time>2022-08-02T10:35:56Z</time>
      </trkpt>
      <trkpt lat="45.80487" lon="1.84189">
        <ele>668.8</ele>
        <time>2022-08-02T10:35:58Z</time>
      </trkpt>
      <trkpt lat="45.80488" lon="1.84189">
        <ele>668.8</ele>
        <time>2022-08-02T10:36:00Z</time>
      </trkpt>
      <trkpt lat="45.80488" lon="1.8419">
        <ele>668.7</ele>
        <time>2022-08-02T10:36:02Z</time>
      </trkpt>
      <trkpt lat="45.80501" lon="1.84222">
        <ele>665.6</ele>
        <time>2022-08-02T10:42:06Z</time>
      </trkpt>
      <trkpt lat="45.80504" lon="1.8423">
        <ele>665.3</ele>
        <time>2022-08-02T10:42:08Z</time>
      </trkpt>
      <trkpt lat="45.80509" lon="1.84238">
        <ele>664.9</ele>
        <time>2022-08-02T10:42:10Z</time>
      </trkpt>
      <trkpt lat="45.80512" lon="1.84243">
        <ele>664.7</ele>
        <time>2022-08-02T10:42:12Z</time>
      </trkpt>
      <trkpt lat="45.80516" lon="1.84256">
        <ele>664.3</ele>
        <time>2022-08-02T10:42:14Z</time>
      </trkpt>
      <trkpt lat="45.80519" lon="1.84268">
        <ele>663.8</ele>
        <time>2022-08-02T10:42:16Z</time>
      </trkpt>
      <trkpt lat="45.80522" lon="1.84278">
        <ele>663.4</ele>
        <time>2022-08-02T10:42:18Z</time>
      </trkpt>
      <trkpt lat="45.80526" lon="1.84288">
        <ele>663</ele>
        <time>2022-08-02T10:42:20Z</time>
      </trkpt>
      <trkpt lat="45.80532" lon="1.84298">
        <ele>662.6</ele>
        <time>2022-08-02T10:42:22Z</time>
      </trkpt>
      <trkpt lat="45.80535" lon="1.84306">
        <ele>662.3</ele>
        <time>2022-08-02T10:42:24Z</time>
      </trkpt>
      <trkpt lat="45.80537" lon="1.84314">
        <ele>662.1</ele>
        <time>2022-08-02T10:42:26Z</time>
      </trkpt>
      <trkpt lat="45.80534" lon="1.8432">
        <ele>661.9</ele>
        <time>2022-08-02T10:42:28Z</time>
      </trkpt>
      <trkpt lat="45.8053" lon="1.84325">
        <ele>661.9</ele>
        <time>2022-08-02T10:42:30Z</time>
      </trkpt>
      <trkpt lat="45.80528" lon="1.84328">
        <ele>661.8</ele>
        <time>2022-08-02T10:42:32Z</time>
      </trkpt>
      <trkpt lat="45.80528" lon="1.84332">
        <ele>661.7</ele>
        <time>2022-08-02T10:42:34Z</time>
      </trkpt>
      <trkpt lat="45.80528" lon="1.84333">
        <ele>661.7</ele>
        <time>2022-08-02T10:42:36Z</time>
      </trkpt>
      <trkpt lat="45.80528" lon="1.84334">
        <ele>661.7</ele>
        <time>2022-08-02T10:42:38Z</time>
      </trkpt>
      <trkpt lat="45.80528" lon="1.84334">
        <ele>661.6</ele>
        <time>2022-08-02T10:42:40Z</time>
      </trkpt>
      <trkpt lat="45.80537" lon="1.84343">
        <ele>661.2</ele>
        <time>2022-08-02T10:43:22Z</time>
      </trkpt>
      <trkpt lat="45.80535" lon="1.84352">
        <ele>661</ele>
        <time>2022-08-02T10:43:24Z</time>
      </trkpt>
      <trkpt lat="45.80532" lon="1.8436">
        <ele>660.8</ele>
        <time>2022-08-02T10:43:26Z</time>
      </trkpt>
      <trkpt lat="45.80529" lon="1.84369">
        <ele>660.5</ele>
        <time>2022-08-02T10:43:28Z</time>
      </trkpt>
      <trkpt lat="45.80526" lon="1.84377">
        <ele>660.3</ele>
        <time>2022-08-02T10:43:30Z</time>
      </trkpt>
      <trkpt lat="45.80523" lon="1.84385">
        <ele>660</ele>
        <time>2022-08-02T10:43:32Z</time>
      </trkpt>
      <trkpt lat="45.8052" lon="1.84394">
        <ele>659.7</ele>
        <time>2022-08-02T10:43:34Z</time>
      </trkpt>
      <trkpt lat="45.80517" lon="1.84401">
        <ele>659.5</ele>
        <time>2022-08-02T10:43:36Z</time>
      </trkpt>
      <trkpt lat="45.80514" lon="1.84411">
        <ele>659.2</ele>
        <time>2022-08-02T10:43:38Z</time>
      </trkpt>
      <trkpt lat="45.8051" lon="1.84419">
        <ele>658.9</ele>
        <time>2022-08-02T10:43:40Z</time>
      </trkpt>
      <trkpt lat="45.80507" lon="1.84429">
        <ele>658.4</ele>
        <time>2022-08-02T10:43:42Z</time>
      </trkpt>
      <trkpt lat="45.80504" lon="1.84438">
        <ele>657.9</ele>
        <time>2022-08-02T10:43:44Z</time>
      </trkpt>
      <trkpt lat="45.805" lon="1.84448">
        <ele>657.5</ele>
        <time>2022-08-02T10:43:46Z</time>
      </trkpt>
      <trkpt lat="45.80496" lon="1.84458">
        <ele>656.9</ele>
        <time>2022-08-02T10:43:48Z</time>
      </trkpt>
      <trkpt lat="45.80493" lon="1.84468">
        <ele>656.1</ele>
        <time>2022-08-02T10:43:50Z</time>
      </trkpt>
      <trkpt lat="45.80489" lon="1.84478">
        <ele>655.4</ele>
        <time>2022-08-02T10:43:52Z</time>
      </trkpt>
      <trkpt lat="45.80485" lon="1.84487">
        <ele>654.6</ele>
        <time>2022-08-02T10:43:54Z</time>
      </trkpt>
      <trkpt lat="45.80482" lon="1.84495">
        <ele>653.8</ele>
        <time>2022-08-02T10:43:56Z</time>
      </trkpt>
      <trkpt lat="45.80479" lon="1.84502">
        <ele>653.1</ele>
        <time>2022-08-02T10:43:58Z</time>
      </trkpt>
      <trkpt lat="45.80476" lon="1.84508">
        <ele>652.6</ele>
        <time>2022-08-02T10:44:00Z</time>
      </trkpt>
      <trkpt lat="45.80473" lon="1.84509">
        <ele>652.4</ele>
        <time>2022-08-02T10:44:02Z</time>
      </trkpt>
      <trkpt lat="45.80473" lon="1.84509">
        <ele>652.4</ele>
        <time>2022-08-02T10:44:04Z</time>
      </trkpt>
      <trkpt lat="45.80473" lon="1.84509">
        <ele>652.4</ele>
        <time>2022-08-02T10:44:06Z</time>
      </trkpt>
      <trkpt lat="45.80473" lon="1.8451">
        <ele>652.3</ele>
        <time>2022-08-02T10:44:08Z</time>
      </trkpt>
      <trkpt lat="45.80461" lon="1.84529">
        <ele>651.1</ele>
        <time>2022-08-02T10:44:28Z</time>
      </trkpt>
      <trkpt lat="45.80457" lon="1.84526">
        <ele>651</ele>
        <time>2022-08-02T10:44:30Z</time>
      </trkpt>
      <trkpt lat="45.80454" lon="1.84519">
        <ele>650.9</ele>
        <time>2022-08-02T10:44:32Z</time>
      </trkpt>
      <trkpt lat="45.80451" lon="1.84511">
        <ele>650.8</ele>
        <time>2022-08-02T10:44:34Z</time>
      </trkpt>
      <trkpt lat="45.80445" lon="1.84508">
        <ele>650.4</ele>
        <time>2022-08-02T10:44:36Z</time>
      </trkpt>
      <trkpt lat="45.8044" lon="1.84504">
        <ele>650</ele>
        <time>2022-08-02T10:44:38Z</time>
      </trkpt>
      <trkpt lat="45.80434" lon="1.84499">
        <ele>649.6</ele>
        <time>2022-08-02T10:44:40Z</time>
      </trkpt>
      <trkpt lat="45.80429" lon="1.84492">
        <ele>650</ele>
        <time>2022-08-02T10:44:42Z</time>
      </trkpt>
      <trkpt lat="45.80424" lon="1.84485">
        <ele>650.5</ele>
        <time>2022-08-02T10:44:44Z</time>
      </trkpt>
      <trkpt lat="45.8042" lon="1.84477">
        <ele>651.2</ele>
        <time>2022-08-02T10:44:46Z</time>
      </trkpt>
      <trkpt lat="45.80415" lon="1.8447">
        <ele>651.9</ele>
        <time>2022-08-02T10:44:48Z</time>
      </trkpt>
      <trkpt lat="45.8041" lon="1.84466">
        <ele>652.6</ele>
        <time>2022-08-02T10:44:50Z</time>
      </trkpt>
      <trkpt lat="45.80405" lon="1.84465">
        <ele>652.8</ele>
        <time>2022-08-02T10:44:52Z</time>
      </trkpt>
      <trkpt lat="45.80399" lon="1.84465">
        <ele>652.8</ele>
        <time>2022-08-02T10:44:54Z</time>
      </trkpt>
      <trkpt lat="45.80393" lon="1.84467">
        <ele>652.7</ele>
        <time>2022-08-02T10:44:56Z</time>
      </trkpt>
      <trkpt lat="45.80387" lon="1.8447">
        <ele>652.4</ele>
        <time>2022-08-02T10:44:58Z</time>
      </trkpt>
      <trkpt lat="45.80382" lon="1.8447">
        <ele>652.4</ele>
        <time>2022-08-02T10:45:00Z</time>
      </trkpt>
      <trkpt lat="45.80379" lon="1.84467">
        <ele>652.9</ele>
        <time>2022-08-02T10:45:02Z</time>
      </trkpt>
      <trkpt lat="45.80376" lon="1.84463">
        <ele>653.5</ele>
        <time>2022-08-02T10:45:04Z</time>
      </trkpt>
      <trkpt lat="45.80375" lon="1.84463">
        <ele>653.6</ele>
        <time>2022-08-02T10:45:06Z</time>
      </trkpt>
      <trkpt lat="45.80374" lon="1.84462">
        <ele>653.7</ele>
        <time>2022-08-02T10:45:08Z</time>
      </trkpt>
      <trkpt lat="45.80374" lon="1.84462">
        <ele>653.7</ele>
        <time>2022-08-02T10:45:10Z</time>
      </trkpt>
      <trkpt lat="45.80374" lon="1.84462">
        <ele>653.7</ele>
        <time>2022-08-02T10:45:12Z</time>
      </trkpt>
      <trkpt lat="45.80357" lon="1.84441">
        <ele>657.3</ele>
        <time>2022-08-02T10:45:48Z</time>
      </trkpt>
      <trkpt lat="45.80352" lon="1.84438">
        <ele>657.8</ele>
        <time>2022-08-02T10:45:50Z</time>
      </trkpt>
      <trkpt lat="45.80349" lon="1.84436">
        <ele>658.4</ele>
        <time>2022-08-02T10:45:52Z</time>
      </trkpt>
      <trkpt lat="45.80346" lon="1.84434">
        <ele>658.7</ele>
        <time>2022-08-02T10:45:54Z</time>
      </trkpt>
      <trkpt lat="45.80342" lon="1.84433">
        <ele>659</ele>
        <time>2022-08-02T10:45:56Z</time>
      </trkpt>
      <trkpt lat="45.80338" lon="1.84432">
        <ele>659.3</ele>
        <time>2022-08-02T10:45:58Z</time>
      </trkpt>
      <trkpt lat="45.80334" lon="1.84429">
        <ele>659.8</ele>
        <time>2022-08-02T10:46:00Z</time>
      </trkpt>
      <trkpt lat="45.8033" lon="1.84427">
        <ele>660.5</ele>
        <time>2022-08-02T10:46:02Z</time>
      </trkpt>
      <trkpt lat="45.80327" lon="1.84425">
        <ele>661.3</ele>
        <time>2022-08-02T10:46:04Z</time>
      </trkpt>
      <trkpt lat="45.80324" lon="1.84424">
        <ele>661.8</ele>
        <time>2022-08-02T10:46:06Z</time>
      </trkpt>
      <trkpt lat="45.80322" lon="1.84423">
        <ele>662.1</ele>
        <time>2022-08-02T10:46:08Z</time>
      </trkpt>
      <trkpt lat="45.8032" lon="1.84422">
        <ele>662.5</ele>
        <time>2022-08-02T10:46:10Z</time>
      </trkpt>
      <trkpt lat="45.80318" lon="1.84421">
        <ele>663</ele>
        <time>2022-08-02T10:46:12Z</time>
      </trkpt>
      <trkpt lat="45.80316" lon="1.84422">
        <ele>662.9</ele>
        <time>2022-08-02T10:46:14Z</time>
      </trkpt>
      <trkpt lat="45.80318" lon="1.8443">
        <ele>661.4</ele>
        <time>2022-08-02T12:59:59Z</time>
      </trkpt>
      <trkpt lat="45.80318" lon="1.84432">
        <ele>661</ele>
        <time>2022-08-02T13:00:01Z</time>
      </trkpt>
      <trkpt lat="45.80312" lon="1.8442">
        <ele>663.7</ele>
        <time>2022-08-02T13:00:41Z</time>
      </trkpt>
      <trkpt lat="45.8031" lon="1.84418">
        <ele>664.2</ele>
        <time>2022-08-02T13:00:43Z</time>
      </trkpt>
      <trkpt lat="45.80308" lon="1.84419">
        <ele>664.4</ele>
        <time>2022-08-02T13:00:45Z</time>
      </trkpt>
      <trkpt lat="45.80306" lon="1.84419">
        <ele>664.6</ele>
        <time>2022-08-02T13:00:47Z</time>
      </trkpt>
      <trkpt lat="45.80304" lon="1.84418">
        <ele>664.9</ele>
        <time>2022-08-02T13:00:49Z</time>
      </trkpt>
      <trkpt lat="45.80302" lon="1.84417">
        <ele>665.4</ele>
        <time>2022-08-02T13:00:51Z</time>
      </trkpt>
      <trkpt lat="45.80299" lon="1.84416">
        <ele>665.8</ele>
        <time>2022-08-02T13:00:53Z</time>
      </trkpt>
      <trkpt lat="45.80296" lon="1.84414">
        <ele>666.4</ele>
        <time>2022-08-02T13:00:55Z</time>
      </trkpt>
      <trkpt lat="45.80294" lon="1.84414">
        <ele>666.7</ele>
        <time>2022-08-02T13:00:57Z</time>
      </trkpt>
      <trkpt lat="45.80291" lon="1.84414">
        <ele>667</ele>
        <time>2022-08-02T13:00:59Z</time>
      </trkpt>
      <trkpt lat="45.80289" lon="1.84413">
        <ele>667.5</ele>
        <time>2022-08-02T13:01:01Z</time>
      </trkpt>
      <trkpt lat="45.80286" lon="1.84414">
        <ele>667.7</ele>
        <time>2022-08-02T13:01:03Z</time>
      </trkpt>
      <trkpt lat="45.80283" lon="1.84415">
        <ele>667.8</ele>
        <time>2022-08-02T13:01:05Z</time>
      </trkpt>
      <trkpt lat="45.8028" lon="1.84415">
        <ele>668.1</ele>
        <time>2022-08-02T13:01:07Z</time>
      </trkpt>
      <trkpt lat="45.80277" lon="1.84416">
        <ele>668.2</ele>
        <time>2022-08-02T13:01:09Z</time>
      </trkpt>
      <trkpt lat="45.80274" lon="1.84416">
        <ele>668.6</ele>
        <time>2022-08-02T13:01:11Z</time>
      </trkpt>
      <trkpt lat="45.80271" lon="1.84416">
        <ele>668.9</ele>
        <time>2022-08-02T13:01:13Z</time>
      </trkpt>
      <trkpt lat="45.80268" lon="1.84418">
        <ele>668.8</ele>
        <time>2022-08-02T13:01:15Z</time>
      </trkpt>
      <trkpt lat="45.80264" lon="1.8442">
        <ele>668.9</ele>
        <time>2022-08-02T13:01:17Z</time>
      </trkpt>
      <trkpt lat="45.8026" lon="1.84421">
        <ele>669.1</ele>
        <time>2022-08-02T13:01:19Z</time>
      </trkpt>
      <trkpt lat="45.80255" lon="1.84426">
        <ele>668.8</ele>
        <time>2022-08-02T13:01:21Z</time>
      </trkpt>
      <trkpt lat="45.80251" lon="1.84429">
        <ele>668.8</ele>
        <time>2022-08-02T13:01:23Z</time>
      </trkpt>
      <trkpt lat="45.80247" lon="1.84434">
        <ele>668.1</ele>
        <time>2022-08-02T13:01:25Z</time>
      </trkpt>
      <trkpt lat="45.80243" lon="1.84441">
        <ele>667</ele>
        <time>2022-08-02T13:01:27Z</time>
      </trkpt>
      <trkpt lat="45.80239" lon="1.84446">
        <ele>666.4</ele>
        <time>2022-08-02T13:01:29Z</time>
      </trkpt>
      <trkpt lat="45.80234" lon="1.84454">
        <ele>665.3</ele>
        <time>2022-08-02T13:01:31Z</time>
      </trkpt>
      <trkpt lat="45.8023" lon="1.84459">
        <ele>664.8</ele>
        <time>2022-08-02T13:01:33Z</time>
      </trkpt>
      <trkpt lat="45.80225" lon="1.84462">
        <ele>664.6</ele>
        <time>2022-08-02T13:01:35Z</time>
      </trkpt>
      <trkpt lat="45.80221" lon="1.84463">
        <ele>664.5</ele>
        <time>2022-08-02T13:01:37Z</time>
      </trkpt>
      <trkpt lat="45.80218" lon="1.84466">
        <ele>664.2</ele>
        <time>2022-08-02T13:01:39Z</time>
      </trkpt>
      <trkpt lat="45.80215" lon="1.84468">
        <ele>664.2</ele>
        <time>2022-08-02T13:01:41Z</time>
      </trkpt>
      <trkpt lat="45.80212" lon="1.8447">
        <ele>664.1</ele>
        <time>2022-08-02T13:01:43Z</time>
      </trkpt>
      <trkpt lat="45.80208" lon="1.84474">
        <ele>663.5</ele>
        <time>2022-08-02T13:01:45Z</time>
      </trkpt>
      <trkpt lat="45.80205" lon="1.84477">
        <ele>663.3</ele>
        <time>2022-08-02T13:01:47Z</time>
      </trkpt>
      <trkpt lat="45.80203" lon="1.8448">
        <ele>662.9</ele>
        <time>2022-08-02T13:01:49Z</time>
      </trkpt>
      <trkpt lat="45.80199" lon="1.84483">
        <ele>662.6</ele>
        <time>2022-08-02T13:01:51Z</time>
      </trkpt>
      <trkpt lat="45.80195" lon="1.84487">
        <ele>662.3</ele>
        <time>2022-08-02T13:01:53Z</time>
      </trkpt>
      <trkpt lat="45.8019" lon="1.84491">
        <ele>661.9</ele>
        <time>2022-08-02T13:01:55Z</time>
      </trkpt>
      <trkpt lat="45.80185" lon="1.84493">
        <ele>661.8</ele>
        <time>2022-08-02T13:01:57Z</time>
      </trkpt>
      <trkpt lat="45.80179" lon="1.84497">
        <ele>661.6</ele>
        <time>2022-08-02T13:01:59Z</time>
      </trkpt>
      <trkpt lat="45.80174" lon="1.845">
        <ele>661.5</ele>
        <time>2022-08-02T13:02:01Z</time>
      </trkpt>
      <trkpt lat="45.80166" lon="1.84504">
        <ele>661.4</ele>
        <time>2022-08-02T13:02:03Z</time>
      </trkpt>
      <trkpt lat="45.80156" lon="1.84507">
        <ele>661.1</ele>
        <time>2022-08-02T13:02:05Z</time>
      </trkpt>
      <trkpt lat="45.80146" lon="1.84511">
        <ele>660.6</ele>
        <time>2022-08-02T13:02:07Z</time>
      </trkpt>
      <trkpt lat="45.80138" lon="1.84514">
        <ele>660.4</ele>
        <time>2022-08-02T13:02:09Z</time>
      </trkpt>
      <trkpt lat="45.80134" lon="1.84516">
        <ele>660.2</ele>
        <time>2022-08-02T13:02:10Z</time>
      </trkpt>
      <trkpt lat="45.80128" lon="1.84516">
        <ele>660.3</ele>
        <time>2022-08-02T13:02:12Z</time>
      </trkpt>
      <trkpt lat="45.80122" lon="1.84517">
        <ele>660.3</ele>
        <time>2022-08-02T13:02:14Z</time>
      </trkpt>
      <trkpt lat="45.80113" lon="1.84518">
        <ele>660.4</ele>
        <time>2022-08-02T13:02:17Z</time>
      </trkpt>
      <trkpt lat="45.80108" lon="1.84518">
        <ele>660.6</ele>
        <time>2022-08-02T13:02:19Z</time>
      </trkpt>
      <trkpt lat="45.80102" lon="1.84516">
        <ele>661</ele>
        <time>2022-08-02T13:02:21Z</time>
      </trkpt>
      <trkpt lat="45.80096" lon="1.84515">
        <ele>661.4</ele>
        <time>2022-08-02T13:02:23Z</time>
      </trkpt>
      <trkpt lat="45.8009" lon="1.84512">
        <ele>662</ele>
        <time>2022-08-02T13:02:25Z</time>
      </trkpt>
      <trkpt lat="45.80085" lon="1.84509">
        <ele>662.6</ele>
        <time>2022-08-02T13:02:27Z</time>
      </trkpt>
      <trkpt lat="45.8008" lon="1.84504">
        <ele>663.1</ele>
        <time>2022-08-02T13:02:29Z</time>
      </trkpt>
      <trkpt lat="45.80076" lon="1.84501">
        <ele>663.3</ele>
        <time>2022-08-02T13:02:31Z</time>
      </trkpt>
      <trkpt lat="45.8007" lon="1.845">
        <ele>663.1</ele>
        <time>2022-08-02T13:02:33Z</time>
      </trkpt>
      <trkpt lat="45.80064" lon="1.84499">
        <ele>662.7</ele>
        <time>2022-08-02T13:02:35Z</time>
      </trkpt>
      <trkpt lat="45.80058" lon="1.84497">
        <ele>662.3</ele>
        <time>2022-08-02T13:02:37Z</time>
      </trkpt>
      <trkpt lat="45.80051" lon="1.84497">
        <ele>661.7</ele>
        <time>2022-08-02T13:02:39Z</time>
      </trkpt>
      <trkpt lat="45.80044" lon="1.84504">
        <ele>660.8</ele>
        <time>2022-08-02T13:02:41Z</time>
      </trkpt>
      <trkpt lat="45.80038" lon="1.84512">
        <ele>659.7</ele>
        <time>2022-08-02T13:02:43Z</time>
      </trkpt>
      <trkpt lat="45.80033" lon="1.84518">
        <ele>658.9</ele>
        <time>2022-08-02T13:02:45Z</time>
      </trkpt>
      <trkpt lat="45.80027" lon="1.84522">
        <ele>658.3</ele>
        <time>2022-08-02T13:02:47Z</time>
      </trkpt>
      <trkpt lat="45.80019" lon="1.84523">
        <ele>657.9</ele>
        <time>2022-08-02T13:02:49Z</time>
      </trkpt>
      <trkpt lat="45.80014" lon="1.84519">
        <ele>657.9</ele>
        <time>2022-08-02T13:02:51Z</time>
      </trkpt>
      <trkpt lat="45.80008" lon="1.84519">
        <ele>657.7</ele>
        <time>2022-08-02T13:02:53Z</time>
      </trkpt>
      <trkpt lat="45.80003" lon="1.84519">
        <ele>657.5</ele>
        <time>2022-08-02T13:02:55Z</time>
      </trkpt>
      <trkpt lat="45.79998" lon="1.84518">
        <ele>657.2</ele>
        <time>2022-08-02T13:02:57Z</time>
      </trkpt>
      <trkpt lat="45.79994" lon="1.84519">
        <ele>656.7</ele>
        <time>2022-08-02T13:02:59Z</time>
      </trkpt>
      <trkpt lat="45.79989" lon="1.8452">
        <ele>656.3</ele>
        <time>2022-08-02T13:03:01Z</time>
      </trkpt>
      <trkpt lat="45.79986" lon="1.84522">
        <ele>655.9</ele>
        <time>2022-08-02T13:03:03Z</time>
      </trkpt>
      <trkpt lat="45.79981" lon="1.84524">
        <ele>655.4</ele>
        <time>2022-08-02T13:03:05Z</time>
      </trkpt>
      <trkpt lat="45.79977" lon="1.84524">
        <ele>655</ele>
        <time>2022-08-02T13:03:07Z</time>
      </trkpt>
      <trkpt lat="45.79974" lon="1.84523">
        <ele>654.7</ele>
        <time>2022-08-02T13:03:09Z</time>
      </trkpt>
      <trkpt lat="45.79972" lon="1.84523">
        <ele>654.6</ele>
        <time>2022-08-02T13:03:11Z</time>
      </trkpt>
      <trkpt lat="45.79971" lon="1.8452">
        <ele>654.6</ele>
        <time>2022-08-02T13:03:13Z</time>
      </trkpt>
      <trkpt lat="45.7997" lon="1.84519">
        <ele>654.5</ele>
        <time>2022-08-02T13:03:15Z</time>
      </trkpt>
      <trkpt lat="45.79971" lon="1.84519">
        <ele>654.6</ele>
        <time>2022-08-02T13:03:17Z</time>
      </trkpt>
      <trkpt lat="45.7997" lon="1.8452">
        <ele>654.5</ele>
        <time>2022-08-02T13:03:19Z</time>
      </trkpt>
      <trkpt lat="45.79971" lon="1.8452">
        <ele>654.5</ele>
        <time>2022-08-02T13:03:21Z</time>
      </trkpt>
      <trkpt lat="45.79967" lon="1.84514">
        <ele>654.4</ele>
        <time>2022-08-02T13:03:33Z</time>
      </trkpt>
      <trkpt lat="45.79965" lon="1.84513">
        <ele>654.3</ele>
        <time>2022-08-02T13:03:35Z</time>
      </trkpt>
      <trkpt lat="45.79965" lon="1.84513">
        <ele>654.3</ele>
        <time>2022-08-02T13:03:37Z</time>
      </trkpt>
      <trkpt lat="45.79965" lon="1.84513">
        <ele>654.2</ele>
        <time>2022-08-02T13:03:39Z</time>
      </trkpt>
      <trkpt lat="45.79964" lon="1.84514">
        <ele>654.1</ele>
        <time>2022-08-02T13:03:41Z</time>
      </trkpt>
      <trkpt lat="45.79961" lon="1.84513">
        <ele>653.9</ele>
        <time>2022-08-02T13:03:43Z</time>
      </trkpt>
      <trkpt lat="45.79958" lon="1.84511">
        <ele>653.7</ele>
        <time>2022-08-02T13:03:45Z</time>
      </trkpt>
      <trkpt lat="45.79956" lon="1.84507">
        <ele>653.6</ele>
        <time>2022-08-02T13:03:47Z</time>
      </trkpt>
      <trkpt lat="45.79955" lon="1.84504">
        <ele>653.6</ele>
        <time>2022-08-02T13:03:49Z</time>
      </trkpt>
      <trkpt lat="45.79956" lon="1.84499">
        <ele>653.8</ele>
        <time>2022-08-02T13:03:51Z</time>
      </trkpt>
      <trkpt lat="45.79956" lon="1.84496">
        <ele>653.7</ele>
        <time>2022-08-02T13:03:53Z</time>
      </trkpt>
      <trkpt lat="45.79956" lon="1.84497">
        <ele>653.7</ele>
        <time>2022-08-02T13:03:55Z</time>
      </trkpt>
      <trkpt lat="45.79956" lon="1.84496">
        <ele>653.7</ele>
        <time>2022-08-02T13:03:57Z</time>
      </trkpt>
      <trkpt lat="45.79956" lon="1.84496">
        <ele>653.8</ele>
        <time>2022-08-02T13:03:59Z</time>
      </trkpt>
      <trkpt lat="45.79956" lon="1.84496">
        <ele>653.8</ele>
        <time>2022-08-02T13:04:01Z</time>
      </trkpt>
      <trkpt lat="45.79962" lon="1.84477">
        <ele>654.2</ele>
        <time>2022-08-02T13:04:09Z</time>
      </trkpt>
      <trkpt lat="45.79965" lon="1.8447">
        <ele>654.6</ele>
        <time>2022-08-02T13:04:11Z</time>
      </trkpt>
      <trkpt lat="45.79969" lon="1.84463">
        <ele>655</ele>
        <time>2022-08-02T13:04:13Z</time>
      </trkpt>
      <trkpt lat="45.7997" lon="1.84454">
        <ele>655.1</ele>
        <time>2022-08-02T13:04:15Z</time>
      </trkpt>
      <trkpt lat="45.79971" lon="1.84447">
        <ele>655.2</ele>
        <time>2022-08-02T13:04:17Z</time>
      </trkpt>
      <trkpt lat="45.79973" lon="1.84438">
        <ele>655.4</ele>
        <time>2022-08-02T13:04:19Z</time>
      </trkpt>
      <trkpt lat="45.79975" lon="1.84429">
        <ele>655.6</ele>
        <time>2022-08-02T13:04:21Z</time>
      </trkpt>
      <trkpt lat="45.79976" lon="1.84422">
        <ele>655.8</ele>
        <time>2022-08-02T13:04:23Z</time>
      </trkpt>
      <trkpt lat="45.79977" lon="1.84413">
        <ele>656.1</ele>
        <time>2022-08-02T13:04:25Z</time>
      </trkpt>
      <trkpt lat="45.79979" lon="1.84403">
        <ele>656.5</ele>
        <time>2022-08-02T13:04:27Z</time>
      </trkpt>
      <trkpt lat="45.7998" lon="1.84395">
        <ele>656.9</ele>
        <time>2022-08-02T13:04:29Z</time>
      </trkpt>
      <trkpt lat="45.7998" lon="1.84384">
        <ele>657.1</ele>
        <time>2022-08-02T13:04:31Z</time>
      </trkpt>
      <trkpt lat="45.7998" lon="1.84373">
        <ele>657.3</ele>
        <time>2022-08-02T13:04:33Z</time>
      </trkpt>
      <trkpt lat="45.79979" lon="1.84363">
        <ele>657.3</ele>
        <time>2022-08-02T13:04:35Z</time>
      </trkpt>
      <trkpt lat="45.79977" lon="1.84352">
        <ele>657.3</ele>
        <time>2022-08-02T13:04:37Z</time>
      </trkpt>
      <trkpt lat="45.79974" lon="1.84341">
        <ele>657.1</ele>
        <time>2022-08-02T13:04:39Z</time>
      </trkpt>
      <trkpt lat="45.7997" lon="1.84331">
        <ele>656.9</ele>
        <time>2022-08-02T13:04:41Z</time>
      </trkpt>
      <trkpt lat="45.79967" lon="1.8432">
        <ele>657.2</ele>
        <time>2022-08-02T13:04:43Z</time>
      </trkpt>
      <trkpt lat="45.79961" lon="1.84311">
        <ele>657.2</ele>
        <time>2022-08-02T13:04:45Z</time>
      </trkpt>
      <trkpt lat="45.79954" lon="1.84305">
        <ele>656.9</ele>
        <time>2022-08-02T13:04:47Z</time>
      </trkpt>
      <trkpt lat="45.79947" lon="1.843">
        <ele>656.6</ele>
        <time>2022-08-02T13:04:49Z</time>
      </trkpt>
      <trkpt lat="45.7994" lon="1.84297">
        <ele>656.2</ele>
        <time>2022-08-02T13:04:51Z</time>
      </trkpt>
      <trkpt lat="45.79936" lon="1.84294">
        <ele>656.1</ele>
        <time>2022-08-02T13:04:53Z</time>
      </trkpt>
      <trkpt lat="45.79932" lon="1.84293">
        <ele>655.9</ele>
        <time>2022-08-02T13:04:55Z</time>
      </trkpt>
      <trkpt lat="45.79928" lon="1.84293">
        <ele>655.5</ele>
        <time>2022-08-02T13:04:57Z</time>
      </trkpt>
      <trkpt lat="45.79925" lon="1.84293">
        <ele>655.2</ele>
        <time>2022-08-02T13:04:59Z</time>
      </trkpt>
      <trkpt lat="45.79922" lon="1.84289">
        <ele>655.4</ele>
        <time>2022-08-02T13:05:01Z</time>
      </trkpt>
      <trkpt lat="45.79918" lon="1.84285">
        <ele>655.5</ele>
        <time>2022-08-02T13:05:03Z</time>
      </trkpt>
      <trkpt lat="45.79913" lon="1.84283">
        <ele>656.1</ele>
        <time>2022-08-02T13:05:05Z</time>
      </trkpt>
      <trkpt lat="45.79906" lon="1.84281">
        <ele>656.8</ele>
        <time>2022-08-02T13:05:07Z</time>
      </trkpt>
      <trkpt lat="45.799" lon="1.8428">
        <ele>657.7</ele>
        <time>2022-08-02T13:05:09Z</time>
      </trkpt>
      <trkpt lat="45.79894" lon="1.8428">
        <ele>658.2</ele>
        <time>2022-08-02T13:05:11Z</time>
      </trkpt>
      <trkpt lat="45.79889" lon="1.84279">
        <ele>658.9</ele>
        <time>2022-08-02T13:05:13Z</time>
      </trkpt>
      <trkpt lat="45.79883" lon="1.8428">
        <ele>659.4</ele>
        <time>2022-08-02T13:05:15Z</time>
      </trkpt>
      <trkpt lat="45.79878" lon="1.84278">
        <ele>660.1</ele>
        <time>2022-08-02T13:05:17Z</time>
      </trkpt>
      <trkpt lat="45.79872" lon="1.84278">
        <ele>660.7</ele>
        <time>2022-08-02T13:05:19Z</time>
      </trkpt>
      <trkpt lat="45.79867" lon="1.84278">
        <ele>661.2</ele>
        <time>2022-08-02T13:05:21Z</time>
      </trkpt>
      <trkpt lat="45.79862" lon="1.84279">
        <ele>661.6</ele>
        <time>2022-08-02T13:05:23Z</time>
      </trkpt>
      <trkpt lat="45.79857" lon="1.84279">
        <ele>662.1</ele>
        <time>2022-08-02T13:05:25Z</time>
      </trkpt>
      <trkpt lat="45.79852" lon="1.8428">
        <ele>662.3</ele>
        <time>2022-08-02T13:05:27Z</time>
      </trkpt>
      <trkpt lat="45.79848" lon="1.84281">
        <ele>662.6</ele>
        <time>2022-08-02T13:05:29Z</time>
      </trkpt>
      <trkpt lat="45.79843" lon="1.84282">
        <ele>662.9</ele>
        <time>2022-08-02T13:05:31Z</time>
      </trkpt>
      <trkpt lat="45.79838" lon="1.84282">
        <ele>663.4</ele>
        <time>2022-08-02T13:05:33Z</time>
      </trkpt>
      <trkpt lat="45.79834" lon="1.84282">
        <ele>663.8</ele>
        <time>2022-08-02T13:05:35Z</time>
      </trkpt>
      <trkpt lat="45.79831" lon="1.8428">
        <ele>664.6</ele>
        <time>2022-08-02T13:05:37Z</time>
      </trkpt>
      <trkpt lat="45.79827" lon="1.84279">
        <ele>665.5</ele>
        <time>2022-08-02T13:05:39Z</time>
      </trkpt>
      <trkpt lat="45.79824" lon="1.84278">
        <ele>666.3</ele>
        <time>2022-08-02T13:05:41Z</time>
      </trkpt>
      <trkpt lat="45.7982" lon="1.84277">
        <ele>667</ele>
        <time>2022-08-02T13:05:43Z</time>
      </trkpt>
      <trkpt lat="45.79817" lon="1.84278">
        <ele>667.4</ele>
        <time>2022-08-02T13:05:45Z</time>
      </trkpt>
      <trkpt lat="45.79814" lon="1.84278">
        <ele>667.9</ele>
        <time>2022-08-02T13:05:47Z</time>
      </trkpt>
      <trkpt lat="45.79811" lon="1.84278">
        <ele>668.3</ele>
        <time>2022-08-02T13:05:49Z</time>
      </trkpt>
      <trkpt lat="45.79808" lon="1.84278">
        <ele>668.8</ele>
        <time>2022-08-02T13:05:51Z</time>
      </trkpt>
      <trkpt lat="45.79805" lon="1.84278">
        <ele>669.4</ele>
        <time>2022-08-02T13:05:53Z</time>
      </trkpt>
      <trkpt lat="45.79802" lon="1.84279">
        <ele>669.8</ele>
        <time>2022-08-02T13:05:55Z</time>
      </trkpt>
      <trkpt lat="45.79798" lon="1.84279">
        <ele>670.4</ele>
        <time>2022-08-02T13:05:57Z</time>
      </trkpt>
      <trkpt lat="45.79795" lon="1.84279">
        <ele>671</ele>
        <time>2022-08-02T13:05:59Z</time>
      </trkpt>
      <trkpt lat="45.79792" lon="1.8428">
        <ele>671.4</ele>
        <time>2022-08-02T13:06:01Z</time>
      </trkpt>
      <trkpt lat="45.79789" lon="1.84281">
        <ele>671.7</ele>
        <time>2022-08-02T13:06:03Z</time>
      </trkpt>
      <trkpt lat="45.79785" lon="1.84283">
        <ele>671.9</ele>
        <time>2022-08-02T13:06:05Z</time>
      </trkpt>
      <trkpt lat="45.79783" lon="1.84286">
        <ele>671.9</ele>
        <time>2022-08-02T13:06:07Z</time>
      </trkpt>
      <trkpt lat="45.79781" lon="1.84288">
        <ele>672</ele>
        <time>2022-08-02T13:06:09Z</time>
      </trkpt>
      <trkpt lat="45.79779" lon="1.8429">
        <ele>671.9</ele>
        <time>2022-08-02T13:06:11Z</time>
      </trkpt>
      <trkpt lat="45.79776" lon="1.84294">
        <ele>671.9</ele>
        <time>2022-08-02T13:06:13Z</time>
      </trkpt>
      <trkpt lat="45.79774" lon="1.84296">
        <ele>672.1</ele>
        <time>2022-08-02T13:06:15Z</time>
      </trkpt>
      <trkpt lat="45.79772" lon="1.84297">
        <ele>672.3</ele>
        <time>2022-08-02T13:06:17Z</time>
      </trkpt>
      <trkpt lat="45.79768" lon="1.843">
        <ele>672.6</ele>
        <time>2022-08-02T13:06:19Z</time>
      </trkpt>
      <trkpt lat="45.79765" lon="1.84303">
        <ele>672.7</ele>
        <time>2022-08-02T13:06:21Z</time>
      </trkpt>
      <trkpt lat="45.79762" lon="1.84306">
        <ele>672.9</ele>
        <time>2022-08-02T13:06:23Z</time>
      </trkpt>
      <trkpt lat="45.79759" lon="1.84307">
        <ele>673.3</ele>
        <time>2022-08-02T13:06:25Z</time>
      </trkpt>
      <trkpt lat="45.79757" lon="1.8431">
        <ele>673.4</ele>
        <time>2022-08-02T13:06:27Z</time>
      </trkpt>
      <trkpt lat="45.79755" lon="1.84314">
        <ele>673.3</ele>
        <time>2022-08-02T13:06:29Z</time>
      </trkpt>
      <trkpt lat="45.79753" lon="1.8432">
        <ele>672.9</ele>
        <time>2022-08-02T13:06:31Z</time>
      </trkpt>
      <trkpt lat="45.79753" lon="1.84324">
        <ele>672.6</ele>
        <time>2022-08-02T13:06:33Z</time>
      </trkpt>
      <trkpt lat="45.79752" lon="1.84328">
        <ele>672.3</ele>
        <time>2022-08-02T13:06:35Z</time>
      </trkpt>
      <trkpt lat="45.79751" lon="1.84331">
        <ele>672.1</ele>
        <time>2022-08-02T13:06:37Z</time>
      </trkpt>
      <trkpt lat="45.79751" lon="1.84331">
        <ele>672</ele>
        <time>2022-08-02T13:06:39Z</time>
      </trkpt>
      <trkpt lat="45.79751" lon="1.84331">
        <ele>672</ele>
        <time>2022-08-02T13:06:41Z</time>
      </trkpt>
      <trkpt lat="45.79751" lon="1.8433">
        <ele>672.1</ele>
        <time>2022-08-02T13:06:43Z</time>
      </trkpt>
      <trkpt lat="45.7975" lon="1.84333">
        <ele>672</ele>
        <time>2022-08-02T13:06:45Z</time>
      </trkpt>
      <trkpt lat="45.79751" lon="1.84334">
        <ele>671.8</ele>
        <time>2022-08-02T13:07:01Z</time>
      </trkpt>
      <trkpt lat="45.79751" lon="1.84334">
        <ele>671.8</ele>
        <time>2022-08-02T13:07:05Z</time>
      </trkpt>
      <trkpt lat="45.79751" lon="1.84335">
        <ele>671.6</ele>
        <time>2022-08-02T13:07:09Z</time>
      </trkpt>
      <trkpt lat="45.79752" lon="1.84335">
        <ele>671.5</ele>
        <time>2022-08-02T13:07:11Z</time>
      </trkpt>
      <trkpt lat="45.79752" lon="1.84335">
        <ele>671.3</ele>
        <time>2022-08-02T13:07:13Z</time>
      </trkpt>
      <trkpt lat="45.79755" lon="1.84337">
        <ele>670.6</ele>
        <time>2022-08-02T13:07:15Z</time>
      </trkpt>
      <trkpt lat="45.79758" lon="1.8434">
        <ele>669.8</ele>
        <time>2022-08-02T13:07:17Z</time>
      </trkpt>
      <trkpt lat="45.7976" lon="1.84346">
        <ele>669.1</ele>
        <time>2022-08-02T13:07:19Z</time>
      </trkpt>
      <trkpt lat="45.7976" lon="1.84348">
        <ele>668.9</ele>
        <time>2022-08-02T13:07:21Z</time>
      </trkpt>
      <trkpt lat="45.7976" lon="1.84349">
        <ele>668.8</ele>
        <time>2022-08-02T13:07:23Z</time>
      </trkpt>
      <trkpt lat="45.7976" lon="1.84349">
        <ele>668.8</ele>
        <time>2022-08-02T13:07:27Z</time>
      </trkpt>
      <trkpt lat="45.79765" lon="1.84383">
        <ele>665.7</ele>
        <time>2022-08-02T13:07:57Z</time>
      </trkpt>
      <trkpt lat="45.79763" lon="1.84391">
        <ele>665.6</ele>
        <time>2022-08-02T13:07:59Z</time>
      </trkpt>
      <trkpt lat="45.79762" lon="1.84398">
        <ele>665.3</ele>
        <time>2022-08-02T13:08:01Z</time>
      </trkpt>
      <trkpt lat="45.79762" lon="1.84405">
        <ele>665</ele>
        <time>2022-08-02T13:08:03Z</time>
      </trkpt>
      <trkpt lat="45.79759" lon="1.84412">
        <ele>665.3</ele>
        <time>2022-08-02T13:08:05Z</time>
      </trkpt>
      <trkpt lat="45.79757" lon="1.84418">
        <ele>665.4</ele>
        <time>2022-08-02T13:08:07Z</time>
      </trkpt>
      <trkpt lat="45.79755" lon="1.84427">
        <ele>665.6</ele>
        <time>2022-08-02T13:08:09Z</time>
      </trkpt>
      <trkpt lat="45.79755" lon="1.84434">
        <ele>665.7</ele>
        <time>2022-08-02T13:08:11Z</time>
      </trkpt>
      <trkpt lat="45.79753" lon="1.84443">
        <ele>666.1</ele>
        <time>2022-08-02T13:08:13Z</time>
      </trkpt>
      <trkpt lat="45.79751" lon="1.8445">
        <ele>666.3</ele>
        <time>2022-08-02T13:08:15Z</time>
      </trkpt>
      <trkpt lat="45.79749" lon="1.84457">
        <ele>666.7</ele>
        <time>2022-08-02T13:08:17Z</time>
      </trkpt>
      <trkpt lat="45.79747" lon="1.84465">
        <ele>666.9</ele>
        <time>2022-08-02T13:08:19Z</time>
      </trkpt>
      <trkpt lat="45.79745" lon="1.84473">
        <ele>667.3</ele>
        <time>2022-08-02T13:08:21Z</time>
      </trkpt>
      <trkpt lat="45.79743" lon="1.84479">
        <ele>667.6</ele>
        <time>2022-08-02T13:08:23Z</time>
      </trkpt>
      <trkpt lat="45.79743" lon="1.84484">
        <ele>667.5</ele>
        <time>2022-08-02T13:08:25Z</time>
      </trkpt>
      <trkpt lat="45.79742" lon="1.84489">
        <ele>667.7</ele>
        <time>2022-08-02T13:08:27Z</time>
      </trkpt>
      <trkpt lat="45.79743" lon="1.84496">
        <ele>667.4</ele>
        <time>2022-08-02T13:08:29Z</time>
      </trkpt>
      <trkpt lat="45.79746" lon="1.84501">
        <ele>666.7</ele>
        <time>2022-08-02T13:08:31Z</time>
      </trkpt>
      <trkpt lat="45.79748" lon="1.84515">
        <ele>665.8</ele>
        <time>2022-08-02T13:08:33Z</time>
      </trkpt>
      <trkpt lat="45.79748" lon="1.84526">
        <ele>665.5</ele>
        <time>2022-08-02T13:08:35Z</time>
      </trkpt>
      <trkpt lat="45.79746" lon="1.84538">
        <ele>665.4</ele>
        <time>2022-08-02T13:08:37Z</time>
      </trkpt>
      <trkpt lat="45.79745" lon="1.84549">
        <ele>665.3</ele>
        <time>2022-08-02T13:08:39Z</time>
      </trkpt>
      <trkpt lat="45.79743" lon="1.84558">
        <ele>665.2</ele>
        <time>2022-08-02T13:08:41Z</time>
      </trkpt>
      <trkpt lat="45.79743" lon="1.84566">
        <ele>665</ele>
        <time>2022-08-02T13:08:43Z</time>
      </trkpt>
      <trkpt lat="45.79742" lon="1.84573">
        <ele>665.1</ele>
        <time>2022-08-02T13:08:45Z</time>
      </trkpt>
      <trkpt lat="45.79739" lon="1.84579">
        <ele>665.3</ele>
        <time>2022-08-02T13:08:47Z</time>
      </trkpt>
      <trkpt lat="45.79736" lon="1.84585">
        <ele>665.9</ele>
        <time>2022-08-02T13:08:49Z</time>
      </trkpt>
      <trkpt lat="45.79734" lon="1.84592">
        <ele>666.1</ele>
        <time>2022-08-02T13:08:51Z</time>
      </trkpt>
      <trkpt lat="45.79731" lon="1.846">
        <ele>666.4</ele>
        <time>2022-08-02T13:08:53Z</time>
      </trkpt>
      <trkpt lat="45.79731" lon="1.84605">
        <ele>666.4</ele>
        <time>2022-08-02T13:08:55Z</time>
      </trkpt>
      <trkpt lat="45.79729" lon="1.84613">
        <ele>666.6</ele>
        <time>2022-08-02T13:08:57Z</time>
      </trkpt>
      <trkpt lat="45.79727" lon="1.8462">
        <ele>666.7</ele>
        <time>2022-08-02T13:08:59Z</time>
      </trkpt>
      <trkpt lat="45.79725" lon="1.84626">
        <ele>667.1</ele>
        <time>2022-08-02T13:09:01Z</time>
      </trkpt>
      <trkpt lat="45.79723" lon="1.84631">
        <ele>667.3</ele>
        <time>2022-08-02T13:09:03Z</time>
      </trkpt>
      <trkpt lat="45.79721" lon="1.84639">
        <ele>667.6</ele>
        <time>2022-08-02T13:09:05Z</time>
      </trkpt>
      <trkpt lat="45.7972" lon="1.84646">
        <ele>667.6</ele>
        <time>2022-08-02T13:09:07Z</time>
      </trkpt>
      <trkpt lat="45.79719" lon="1.84652">
        <ele>667.7</ele>
        <time>2022-08-02T13:09:09Z</time>
      </trkpt>
      <trkpt lat="45.79718" lon="1.84661">
        <ele>667.7</ele>
        <time>2022-08-02T13:09:11Z</time>
      </trkpt>
      <trkpt lat="45.79715" lon="1.84668">
        <ele>668</ele>
        <time>2022-08-02T13:09:13Z</time>
      </trkpt>
      <trkpt lat="45.79711" lon="1.84676">
        <ele>667.9</ele>
        <time>2022-08-02T13:09:15Z</time>
      </trkpt>
      <trkpt lat="45.79708" lon="1.84684">
        <ele>667.6</ele>
        <time>2022-08-02T13:09:17Z</time>
      </trkpt>
      <trkpt lat="45.79707" lon="1.84693">
        <ele>667</ele>
        <time>2022-08-02T13:09:19Z</time>
      </trkpt>
      <trkpt lat="45.79705" lon="1.84701">
        <ele>666.5</ele>
        <time>2022-08-02T13:09:21Z</time>
      </trkpt>
      <trkpt lat="45.79703" lon="1.84711">
        <ele>665.9</ele>
        <time>2022-08-02T13:09:23Z</time>
      </trkpt>
      <trkpt lat="45.79702" lon="1.84728">
        <ele>664.7</ele>
        <time>2022-08-02T13:09:25Z</time>
      </trkpt>
      <trkpt lat="45.79699" lon="1.84738">
        <ele>664.3</ele>
        <time>2022-08-02T13:09:27Z</time>
      </trkpt>
      <trkpt lat="45.79696" lon="1.84752">
        <ele>664.2</ele>
        <time>2022-08-02T13:09:29Z</time>
      </trkpt>
      <trkpt lat="45.79695" lon="1.84756">
        <ele>664.2</ele>
        <time>2022-08-02T13:09:31Z</time>
      </trkpt>
      <trkpt lat="45.79695" lon="1.84769">
        <ele>663.5</ele>
        <time>2022-08-02T13:09:33Z</time>
      </trkpt>
      <trkpt lat="45.79692" lon="1.8478">
        <ele>663.7</ele>
        <time>2022-08-02T13:09:35Z</time>
      </trkpt>
      <trkpt lat="45.79689" lon="1.84788">
        <ele>664.1</ele>
        <time>2022-08-02T13:09:37Z</time>
      </trkpt>
      <trkpt lat="45.79685" lon="1.84798">
        <ele>664.4</ele>
        <time>2022-08-02T13:09:39Z</time>
      </trkpt>
      <trkpt lat="45.79681" lon="1.8481">
        <ele>664.6</ele>
        <time>2022-08-02T13:09:41Z</time>
      </trkpt>
      <trkpt lat="45.79677" lon="1.84821">
        <ele>664.7</ele>
        <time>2022-08-02T13:09:43Z</time>
      </trkpt>
      <trkpt lat="45.79676" lon="1.84829">
        <ele>664.4</ele>
        <time>2022-08-02T13:09:45Z</time>
      </trkpt>
      <trkpt lat="45.79672" lon="1.84841">
        <ele>664.3</ele>
        <time>2022-08-02T13:09:47Z</time>
      </trkpt>
      <trkpt lat="45.7967" lon="1.84848">
        <ele>664.3</ele>
        <time>2022-08-02T13:09:49Z</time>
      </trkpt>
      <trkpt lat="45.79667" lon="1.84859">
        <ele>664.2</ele>
        <time>2022-08-02T13:09:51Z</time>
      </trkpt>
      <trkpt lat="45.79664" lon="1.84869">
        <ele>664.1</ele>
        <time>2022-08-02T13:09:53Z</time>
      </trkpt>
      <trkpt lat="45.79662" lon="1.8488">
        <ele>663.7</ele>
        <time>2022-08-02T13:09:55Z</time>
      </trkpt>
      <trkpt lat="45.7966" lon="1.84891">
        <ele>663.3</ele>
        <time>2022-08-02T13:09:57Z</time>
      </trkpt>
      <trkpt lat="45.79656" lon="1.84904">
        <ele>663.2</ele>
        <time>2022-08-02T13:09:59Z</time>
      </trkpt>
      <trkpt lat="45.79653" lon="1.84914">
        <ele>663.1</ele>
        <time>2022-08-02T13:10:01Z</time>
      </trkpt>
      <trkpt lat="45.79647" lon="1.84922">
        <ele>663.2</ele>
        <time>2022-08-02T13:10:03Z</time>
      </trkpt>
      <trkpt lat="45.79643" lon="1.84933">
        <ele>662.7</ele>
        <time>2022-08-02T13:10:05Z</time>
      </trkpt>
      <trkpt lat="45.7964" lon="1.84941">
        <ele>662.2</ele>
        <time>2022-08-02T13:10:07Z</time>
      </trkpt>
      <trkpt lat="45.79635" lon="1.84951">
        <ele>662</ele>
        <time>2022-08-02T13:10:09Z</time>
      </trkpt>
      <trkpt lat="45.79631" lon="1.84959">
        <ele>661.9</ele>
        <time>2022-08-02T13:10:11Z</time>
      </trkpt>
      <trkpt lat="45.79626" lon="1.84968">
        <ele>661.9</ele>
        <time>2022-08-02T13:10:13Z</time>
      </trkpt>
      <trkpt lat="45.7962" lon="1.84972">
        <ele>662.7</ele>
        <time>2022-08-02T13:10:15Z</time>
      </trkpt>
      <trkpt lat="45.79615" lon="1.84973">
        <ele>663.7</ele>
        <time>2022-08-02T13:10:17Z</time>
      </trkpt>
      <trkpt lat="45.7961" lon="1.84976">
        <ele>664.4</ele>
        <time>2022-08-02T13:10:19Z</time>
      </trkpt>
      <trkpt lat="45.79607" lon="1.84973">
        <ele>665.6</ele>
        <time>2022-08-02T13:10:21Z</time>
      </trkpt>
      <trkpt lat="45.79604" lon="1.84973">
        <ele>666.1</ele>
        <time>2022-08-02T13:10:23Z</time>
      </trkpt>
      <trkpt lat="45.79601" lon="1.84975">
        <ele>666.6</ele>
        <time>2022-08-02T13:10:25Z</time>
      </trkpt>
      <trkpt lat="45.79598" lon="1.84977">
        <ele>667.2</ele>
        <time>2022-08-02T13:10:27Z</time>
      </trkpt>
      <trkpt lat="45.79594" lon="1.84979">
        <ele>667.9</ele>
        <time>2022-08-02T13:10:29Z</time>
      </trkpt>
      <trkpt lat="45.7959" lon="1.84981">
        <ele>668.5</ele>
        <time>2022-08-02T13:10:31Z</time>
      </trkpt>
      <trkpt lat="45.79587" lon="1.84983">
        <ele>669</ele>
        <time>2022-08-02T13:10:33Z</time>
      </trkpt>
      <trkpt lat="45.79585" lon="1.84985">
        <ele>669.2</ele>
        <time>2022-08-02T13:10:35Z</time>
      </trkpt>
      <trkpt lat="45.79583" lon="1.84988">
        <ele>669.3</ele>
        <time>2022-08-02T13:10:37Z</time>
      </trkpt>
      <trkpt lat="45.79581" lon="1.84991">
        <ele>669.4</ele>
        <time>2022-08-02T13:10:39Z</time>
      </trkpt>
      <trkpt lat="45.7958" lon="1.84993">
        <ele>669.5</ele>
        <time>2022-08-02T13:10:41Z</time>
      </trkpt>
      <trkpt lat="45.7958" lon="1.84994">
        <ele>669.4</ele>
        <time>2022-08-02T13:10:43Z</time>
      </trkpt>
      <trkpt lat="45.7958" lon="1.84994">
        <ele>669.4</ele>
        <time>2022-08-02T13:10:47Z</time>
      </trkpt>
      <trkpt lat="45.79569" lon="1.85023">
        <ele>669.1</ele>
        <time>2022-08-02T13:11:13Z</time>
      </trkpt>
      <trkpt lat="45.79568" lon="1.85029">
        <ele>668.8</ele>
        <time>2022-08-02T13:11:15Z</time>
      </trkpt>
      <trkpt lat="45.79562" lon="1.8504">
        <ele>668.8</ele>
        <time>2022-08-02T13:11:17Z</time>
      </trkpt>
      <trkpt lat="45.79562" lon="1.85055">
        <ele>667</ele>
        <time>2022-08-02T13:11:19Z</time>
      </trkpt>
      <trkpt lat="45.79557" lon="1.85067">
        <ele>666.8</ele>
        <time>2022-08-02T13:11:21Z</time>
      </trkpt>
      <trkpt lat="45.79553" lon="1.85072">
        <ele>666.9</ele>
        <time>2022-08-02T13:11:23Z</time>
      </trkpt>
      <trkpt lat="45.79549" lon="1.85074">
        <ele>667.2</ele>
        <time>2022-08-02T13:11:25Z</time>
      </trkpt>
      <trkpt lat="45.79547" lon="1.85078">
        <ele>667.1</ele>
        <time>2022-08-02T13:11:27Z</time>
      </trkpt>
      <trkpt lat="45.79544" lon="1.8508">
        <ele>667.6</ele>
        <time>2022-08-02T13:11:29Z</time>
      </trkpt>
      <trkpt lat="45.79541" lon="1.85084">
        <ele>667.4</ele>
        <time>2022-08-02T13:11:31Z</time>
      </trkpt>
      <trkpt lat="45.79538" lon="1.85087">
        <ele>667.5</ele>
        <time>2022-08-02T13:11:33Z</time>
      </trkpt>
      <trkpt lat="45.79538" lon="1.85088">
        <ele>667.6</ele>
        <time>2022-08-02T13:11:35Z</time>
      </trkpt>
      <trkpt lat="45.79538" lon="1.85088">
        <ele>667.4</ele>
        <time>2022-08-02T13:11:37Z</time>
      </trkpt>
      <trkpt lat="45.79538" lon="1.85089">
        <ele>667.3</ele>
        <time>2022-08-02T13:11:39Z</time>
      </trkpt>
      <trkpt lat="45.79538" lon="1.8509">
        <ele>667.2</ele>
        <time>2022-08-02T13:11:41Z</time>
      </trkpt>
      <trkpt lat="45.79538" lon="1.8509">
        <ele>667.1</ele>
        <time>2022-08-02T13:11:43Z</time>
      </trkpt>
      <trkpt lat="45.79526" lon="1.85109">
        <ele>666.6</ele>
        <time>2022-08-02T13:12:33Z</time>
      </trkpt>
      <trkpt lat="45.79522" lon="1.85114">
        <ele>666.3</ele>
        <time>2022-08-02T13:12:35Z</time>
      </trkpt>
      <trkpt lat="45.79518" lon="1.85119">
        <ele>666.2</ele>
        <time>2022-08-02T13:12:37Z</time>
      </trkpt>
      <trkpt lat="45.79514" lon="1.85123">
        <ele>666.3</ele>
        <time>2022-08-02T13:12:39Z</time>
      </trkpt>
      <trkpt lat="45.79512" lon="1.85128">
        <ele>665.9</ele>
        <time>2022-08-02T13:12:41Z</time>
      </trkpt>
      <trkpt lat="45.79509" lon="1.85132">
        <ele>665.7</ele>
        <time>2022-08-02T13:12:43Z</time>
      </trkpt>
      <trkpt lat="45.79508" lon="1.85137">
        <ele>665.4</ele>
        <time>2022-08-02T13:12:45Z</time>
      </trkpt>
      <trkpt lat="45.79503" lon="1.85145">
        <ele>664.9</ele>
        <time>2022-08-02T13:12:47Z</time>
      </trkpt>
      <trkpt lat="45.79496" lon="1.85152">
        <ele>665</ele>
        <time>2022-08-02T13:12:49Z</time>
      </trkpt>
      <trkpt lat="45.7949" lon="1.85158">
        <ele>665.2</ele>
        <time>2022-08-02T13:12:51Z</time>
      </trkpt>
      <trkpt lat="45.79486" lon="1.8516">
        <ele>665.5</ele>
        <time>2022-08-02T13:12:53Z</time>
      </trkpt>
      <trkpt lat="45.79484" lon="1.85161">
        <ele>665.6</ele>
        <time>2022-08-02T13:12:55Z</time>
      </trkpt>
      <trkpt lat="45.79481" lon="1.85163">
        <ele>665.8</ele>
        <time>2022-08-02T13:12:57Z</time>
      </trkpt>
      <trkpt lat="45.79478" lon="1.85165">
        <ele>666</ele>
        <time>2022-08-02T13:12:59Z</time>
      </trkpt>
      <trkpt lat="45.79475" lon="1.85167">
        <ele>666.1</ele>
        <time>2022-08-02T13:13:01Z</time>
      </trkpt>
      <trkpt lat="45.79473" lon="1.85169">
        <ele>666.2</ele>
        <time>2022-08-02T13:13:03Z</time>
      </trkpt>
      <trkpt lat="45.79469" lon="1.85171">
        <ele>666.4</ele>
        <time>2022-08-02T13:13:05Z</time>
      </trkpt>
      <trkpt lat="45.79467" lon="1.85173">
        <ele>666.5</ele>
        <time>2022-08-02T13:13:07Z</time>
      </trkpt>
      <trkpt lat="45.79463" lon="1.85175">
        <ele>666.7</ele>
        <time>2022-08-02T13:13:09Z</time>
      </trkpt>
      <trkpt lat="45.79461" lon="1.85178">
        <ele>666.5</ele>
        <time>2022-08-02T13:13:11Z</time>
      </trkpt>
      <trkpt lat="45.79459" lon="1.85181">
        <ele>666.3</ele>
        <time>2022-08-02T13:13:13Z</time>
      </trkpt>
      <trkpt lat="45.79456" lon="1.85184">
        <ele>666.3</ele>
        <time>2022-08-02T13:13:15Z</time>
      </trkpt>
      <trkpt lat="45.79453" lon="1.85189">
        <ele>665.9</ele>
        <time>2022-08-02T13:13:17Z</time>
      </trkpt>
      <trkpt lat="45.7945" lon="1.852">
        <ele>664.4</ele>
        <time>2022-08-02T13:13:19Z</time>
      </trkpt>
      <trkpt lat="45.79444" lon="1.8521">
        <ele>663.4</ele>
        <time>2022-08-02T13:13:21Z</time>
      </trkpt>
      <trkpt lat="45.79441" lon="1.85215">
        <ele>663</ele>
        <time>2022-08-02T13:13:23Z</time>
      </trkpt>
      <trkpt lat="45.79438" lon="1.85219">
        <ele>662.7</ele>
        <time>2022-08-02T13:13:25Z</time>
      </trkpt>
      <trkpt lat="45.79432" lon="1.85221">
        <ele>663.2</ele>
        <time>2022-08-02T13:13:27Z</time>
      </trkpt>
      <trkpt lat="45.79426" lon="1.85223">
        <ele>663.8</ele>
        <time>2022-08-02T13:13:29Z</time>
      </trkpt>
      <trkpt lat="45.79422" lon="1.85224">
        <ele>664.2</ele>
        <time>2022-08-02T13:13:31Z</time>
      </trkpt>
      <trkpt lat="45.79417" lon="1.85228">
        <ele>664</ele>
        <time>2022-08-02T13:13:33Z</time>
      </trkpt>
      <trkpt lat="45.79413" lon="1.85234">
        <ele>663.3</ele>
        <time>2022-08-02T13:13:35Z</time>
      </trkpt>
      <trkpt lat="45.79407" lon="1.85239">
        <ele>662.9</ele>
        <time>2022-08-02T13:13:37Z</time>
      </trkpt>
      <trkpt lat="45.79403" lon="1.85242">
        <ele>662.6</ele>
        <time>2022-08-02T13:13:39Z</time>
      </trkpt>
      <trkpt lat="45.79398" lon="1.85246">
        <ele>662.1</ele>
        <time>2022-08-02T13:13:41Z</time>
      </trkpt>
      <trkpt lat="45.79394" lon="1.85247">
        <ele>662.3</ele>
        <time>2022-08-02T13:13:43Z</time>
      </trkpt>
      <trkpt lat="45.79388" lon="1.85248">
        <ele>662.5</ele>
        <time>2022-08-02T13:13:45Z</time>
      </trkpt>
      <trkpt lat="45.79381" lon="1.85249">
        <ele>662.8</ele>
        <time>2022-08-02T13:13:47Z</time>
      </trkpt>
      <trkpt lat="45.79377" lon="1.85249">
        <ele>663</ele>
        <time>2022-08-02T13:13:49Z</time>
      </trkpt>
      <trkpt lat="45.79373" lon="1.85251">
        <ele>663</ele>
        <time>2022-08-02T13:13:51Z</time>
      </trkpt>
      <trkpt lat="45.79367" lon="1.85252">
        <ele>663.3</ele>
        <time>2022-08-02T13:13:53Z</time>
      </trkpt>
      <trkpt lat="45.79362" lon="1.85254">
        <ele>663.3</ele>
        <time>2022-08-02T13:13:55Z</time>
      </trkpt>
      <trkpt lat="45.79358" lon="1.85258">
        <ele>663.2</ele>
        <time>2022-08-02T13:13:57Z</time>
      </trkpt>
      <trkpt lat="45.79353" lon="1.85261">
        <ele>663.1</ele>
        <time>2022-08-02T13:13:59Z</time>
      </trkpt>
      <trkpt lat="45.79348" lon="1.85262">
        <ele>663.3</ele>
        <time>2022-08-02T13:14:01Z</time>
      </trkpt>
      <trkpt lat="45.79342" lon="1.85264">
        <ele>663.5</ele>
        <time>2022-08-02T13:14:03Z</time>
      </trkpt>
      <trkpt lat="45.79337" lon="1.85264">
        <ele>663.9</ele>
        <time>2022-08-02T13:14:05Z</time>
      </trkpt>
      <trkpt lat="45.79332" lon="1.85264">
        <ele>664.3</ele>
        <time>2022-08-02T13:14:07Z</time>
      </trkpt>
      <trkpt lat="45.79328" lon="1.85264">
        <ele>664.9</ele>
        <time>2022-08-02T13:14:09Z</time>
      </trkpt>
      <trkpt lat="45.79324" lon="1.85264">
        <ele>665.4</ele>
        <time>2022-08-02T13:14:11Z</time>
      </trkpt>
      <trkpt lat="45.7932" lon="1.85264">
        <ele>665.9</ele>
        <time>2022-08-02T13:14:13Z</time>
      </trkpt>
      <trkpt lat="45.79317" lon="1.85266">
        <ele>666.1</ele>
        <time>2022-08-02T13:14:15Z</time>
      </trkpt>
      <trkpt lat="45.79313" lon="1.85267">
        <ele>666.4</ele>
        <time>2022-08-02T13:14:17Z</time>
      </trkpt>
      <trkpt lat="45.7931" lon="1.85269">
        <ele>666.5</ele>
        <time>2022-08-02T13:14:19Z</time>
      </trkpt>
      <trkpt lat="45.79305" lon="1.85272">
        <ele>666.7</ele>
        <time>2022-08-02T13:14:21Z</time>
      </trkpt>
      <trkpt lat="45.79299" lon="1.85275">
        <ele>666.9</ele>
        <time>2022-08-02T13:14:23Z</time>
      </trkpt>
      <trkpt lat="45.79294" lon="1.8528">
        <ele>666.6</ele>
        <time>2022-08-02T13:14:25Z</time>
      </trkpt>
      <trkpt lat="45.79289" lon="1.85284">
        <ele>666.7</ele>
        <time>2022-08-02T13:14:27Z</time>
      </trkpt>
      <trkpt lat="45.79284" lon="1.85288">
        <ele>666.5</ele>
        <time>2022-08-02T13:14:29Z</time>
      </trkpt>
      <trkpt lat="45.7928" lon="1.8529">
        <ele>666.7</ele>
        <time>2022-08-02T13:14:31Z</time>
      </trkpt>
      <trkpt lat="45.79274" lon="1.85293">
        <ele>666.6</ele>
        <time>2022-08-02T13:14:33Z</time>
      </trkpt>
      <trkpt lat="45.7927" lon="1.85295">
        <ele>666.6</ele>
        <time>2022-08-02T13:14:35Z</time>
      </trkpt>
      <trkpt lat="45.79266" lon="1.85297">
        <ele>666.8</ele>
        <time>2022-08-02T13:14:37Z</time>
      </trkpt>
      <trkpt lat="45.79262" lon="1.853">
        <ele>666.7</ele>
        <time>2022-08-02T13:14:39Z</time>
      </trkpt>
      <trkpt lat="45.79258" lon="1.85303">
        <ele>666.4</ele>
        <time>2022-08-02T13:14:41Z</time>
      </trkpt>
      <trkpt lat="45.79255" lon="1.85305">
        <ele>666.2</ele>
        <time>2022-08-02T13:14:43Z</time>
      </trkpt>
      <trkpt lat="45.79252" lon="1.85309">
        <ele>665.8</ele>
        <time>2022-08-02T13:14:45Z</time>
      </trkpt>
      <trkpt lat="45.79249" lon="1.85313">
        <ele>665.3</ele>
        <time>2022-08-02T13:14:47Z</time>
      </trkpt>
      <trkpt lat="45.79244" lon="1.85315">
        <ele>664.9</ele>
        <time>2022-08-02T13:14:49Z</time>
      </trkpt>
      <trkpt lat="45.7924" lon="1.85316">
        <ele>664.9</ele>
        <time>2022-08-02T13:14:51Z</time>
      </trkpt>
      <trkpt lat="45.79237" lon="1.85319">
        <ele>664.2</ele>
        <time>2022-08-02T13:14:53Z</time>
      </trkpt>
      <trkpt lat="45.79233" lon="1.85321">
        <ele>663.9</ele>
        <time>2022-08-02T13:14:55Z</time>
      </trkpt>
      <trkpt lat="45.7923" lon="1.85322">
        <ele>663.9</ele>
        <time>2022-08-02T13:14:57Z</time>
      </trkpt>
      <trkpt lat="45.79227" lon="1.8532">
        <ele>664.3</ele>
        <time>2022-08-02T13:14:59Z</time>
      </trkpt>
      <trkpt lat="45.79224" lon="1.85322">
        <ele>664</ele>
        <time>2022-08-02T13:15:01Z</time>
      </trkpt>
      <trkpt lat="45.79222" lon="1.85323">
        <ele>663.8</ele>
        <time>2022-08-02T13:15:03Z</time>
      </trkpt>
      <trkpt lat="45.79219" lon="1.85326">
        <ele>663.3</ele>
        <time>2022-08-02T13:15:05Z</time>
      </trkpt>
      <trkpt lat="45.79212" lon="1.85328">
        <ele>663.1</ele>
        <time>2022-08-02T13:15:07Z</time>
      </trkpt>
      <trkpt lat="45.79203" lon="1.85331">
        <ele>662.7</ele>
        <time>2022-08-02T13:15:09Z</time>
      </trkpt>
      <trkpt lat="45.79197" lon="1.85334">
        <ele>662.2</ele>
        <time>2022-08-02T13:15:11Z</time>
      </trkpt>
      <trkpt lat="45.79191" lon="1.85335">
        <ele>662.1</ele>
        <time>2022-08-02T13:15:13Z</time>
      </trkpt>
      <trkpt lat="45.79185" lon="1.85336">
        <ele>662.1</ele>
        <time>2022-08-02T13:15:15Z</time>
      </trkpt>
      <trkpt lat="45.79178" lon="1.85337">
        <ele>662.1</ele>
        <time>2022-08-02T13:15:17Z</time>
      </trkpt>
      <trkpt lat="45.79171" lon="1.85335">
        <ele>662.6</ele>
        <time>2022-08-02T13:15:19Z</time>
      </trkpt>
      <trkpt lat="45.79164" lon="1.85335">
        <ele>662.8</ele>
        <time>2022-08-02T13:15:21Z</time>
      </trkpt>
      <trkpt lat="45.7916" lon="1.85332">
        <ele>663.3</ele>
        <time>2022-08-02T13:15:23Z</time>
      </trkpt>
      <trkpt lat="45.79156" lon="1.85329">
        <ele>663.9</ele>
        <time>2022-08-02T13:15:25Z</time>
      </trkpt>
      <trkpt lat="45.7915" lon="1.8533">
        <ele>663.8</ele>
        <time>2022-08-02T13:15:27Z</time>
      </trkpt>
      <trkpt lat="45.79143" lon="1.8533">
        <ele>663.8</ele>
        <time>2022-08-02T13:15:29Z</time>
      </trkpt>
      <trkpt lat="45.79135" lon="1.85329">
        <ele>664</ele>
        <time>2022-08-02T13:15:31Z</time>
      </trkpt>
      <trkpt lat="45.79127" lon="1.85334">
        <ele>662.9</ele>
        <time>2022-08-02T13:15:33Z</time>
      </trkpt>
      <trkpt lat="45.7912" lon="1.85337">
        <ele>662.3</ele>
        <time>2022-08-02T13:15:35Z</time>
      </trkpt>
      <trkpt lat="45.79115" lon="1.85338">
        <ele>662.1</ele>
        <time>2022-08-02T13:15:37Z</time>
      </trkpt>
      <trkpt lat="45.7911" lon="1.85338">
        <ele>662.1</ele>
        <time>2022-08-02T13:15:39Z</time>
      </trkpt>
      <trkpt lat="45.79106" lon="1.85336">
        <ele>662.4</ele>
        <time>2022-08-02T13:15:41Z</time>
      </trkpt>
      <trkpt lat="45.791" lon="1.85334">
        <ele>662.8</ele>
        <time>2022-08-02T13:15:43Z</time>
      </trkpt>
      <trkpt lat="45.79095" lon="1.85332">
        <ele>663.2</ele>
        <time>2022-08-02T13:15:45Z</time>
      </trkpt>
      <trkpt lat="45.7909" lon="1.8533">
        <ele>663.8</ele>
        <time>2022-08-02T13:15:47Z</time>
      </trkpt>
      <trkpt lat="45.79085" lon="1.85327">
        <ele>664.7</ele>
        <time>2022-08-02T13:15:49Z</time>
      </trkpt>
      <trkpt lat="45.79078" lon="1.85323">
        <ele>664.8</ele>
        <time>2022-08-02T13:15:51Z</time>
      </trkpt>
      <trkpt lat="45.79073" lon="1.85316">
        <ele>665.9</ele>
        <time>2022-08-02T13:15:53Z</time>
      </trkpt>
      <trkpt lat="45.79071" lon="1.85313">
        <ele>666.6</ele>
        <time>2022-08-02T13:15:55Z</time>
      </trkpt>
      <trkpt lat="45.7907" lon="1.85313">
        <ele>666.2</ele>
        <time>2022-08-02T13:15:57Z</time>
      </trkpt>
      <trkpt lat="45.79065" lon="1.85312">
        <ele>665.9</ele>
        <time>2022-08-02T13:15:59Z</time>
      </trkpt>
      <trkpt lat="45.7906" lon="1.85311">
        <ele>665.5</ele>
        <time>2022-08-02T13:16:01Z</time>
      </trkpt>
      <trkpt lat="45.79052" lon="1.85306">
        <ele>665.7</ele>
        <time>2022-08-02T13:16:03Z</time>
      </trkpt>
      <trkpt lat="45.79044" lon="1.85301">
        <ele>666.3</ele>
        <time>2022-08-02T13:16:05Z</time>
      </trkpt>
      <trkpt lat="45.79041" lon="1.85296">
        <ele>667.3</ele>
        <time>2022-08-02T13:16:07Z</time>
      </trkpt>
      <trkpt lat="45.79035" lon="1.85294">
        <ele>667.4</ele>
        <time>2022-08-02T13:16:09Z</time>
      </trkpt>
      <trkpt lat="45.79028" lon="1.85291">
        <ele>667.6</ele>
        <time>2022-08-02T13:16:11Z</time>
      </trkpt>
      <trkpt lat="45.7902" lon="1.85285">
        <ele>668.7</ele>
        <time>2022-08-02T13:16:13Z</time>
      </trkpt>
      <trkpt lat="45.79016" lon="1.85282">
        <ele>669.4</ele>
        <time>2022-08-02T13:16:15Z</time>
      </trkpt>
      <trkpt lat="45.79012" lon="1.85279">
        <ele>669.9</ele>
        <time>2022-08-02T13:16:17Z</time>
      </trkpt>
      <trkpt lat="45.79008" lon="1.85277">
        <ele>670.3</ele>
        <time>2022-08-02T13:16:19Z</time>
      </trkpt>
      <trkpt lat="45.79003" lon="1.85275">
        <ele>670.9</ele>
        <time>2022-08-02T13:16:21Z</time>
      </trkpt>
      <trkpt lat="45.78999" lon="1.85275">
        <ele>670.4</ele>
        <time>2022-08-02T13:16:23Z</time>
      </trkpt>
      <trkpt lat="45.7899" lon="1.85271">
        <ele>671.2</ele>
        <time>2022-08-02T13:16:25Z</time>
      </trkpt>
      <trkpt lat="45.78982" lon="1.85264">
        <ele>672.8</ele>
        <time>2022-08-02T13:16:27Z</time>
      </trkpt>
      <trkpt lat="45.78976" lon="1.85264">
        <ele>672.3</ele>
        <time>2022-08-02T13:16:29Z</time>
      </trkpt>
      <trkpt lat="45.78971" lon="1.85262">
        <ele>672.6</ele>
        <time>2022-08-02T13:16:31Z</time>
      </trkpt>
      <trkpt lat="45.78963" lon="1.85264">
        <ele>671.1</ele>
        <time>2022-08-02T13:16:33Z</time>
      </trkpt>
      <trkpt lat="45.78955" lon="1.85262">
        <ele>671.2</ele>
        <time>2022-08-02T13:16:35Z</time>
      </trkpt>
      <trkpt lat="45.78946" lon="1.85258">
        <ele>671.6</ele>
        <time>2022-08-02T13:16:37Z</time>
      </trkpt>
      <trkpt lat="45.78938" lon="1.85256">
        <ele>671.6</ele>
        <time>2022-08-02T13:16:39Z</time>
      </trkpt>
      <trkpt lat="45.78931" lon="1.85255">
        <ele>671.1</ele>
        <time>2022-08-02T13:16:41Z</time>
      </trkpt>
      <trkpt lat="45.78925" lon="1.85253">
        <ele>670.9</ele>
        <time>2022-08-02T13:16:43Z</time>
      </trkpt>
      <trkpt lat="45.78919" lon="1.8525">
        <ele>671.1</ele>
        <time>2022-08-02T13:16:45Z</time>
      </trkpt>
      <trkpt lat="45.78911" lon="1.85245">
        <ele>670.5</ele>
        <time>2022-08-02T13:16:47Z</time>
      </trkpt>
      <trkpt lat="45.78904" lon="1.8524">
        <ele>669.8</ele>
        <time>2022-08-02T13:16:49Z</time>
      </trkpt>
      <trkpt lat="45.78898" lon="1.85237">
        <ele>668.8</ele>
        <time>2022-08-02T13:16:51Z</time>
      </trkpt>
      <trkpt lat="45.78892" lon="1.85236">
        <ele>667.6</ele>
        <time>2022-08-02T13:16:53Z</time>
      </trkpt>
      <trkpt lat="45.78887" lon="1.85232">
        <ele>667.4</ele>
        <time>2022-08-02T13:16:55Z</time>
      </trkpt>
      <trkpt lat="45.7888" lon="1.85228">
        <ele>666.5</ele>
        <time>2022-08-02T13:16:57Z</time>
      </trkpt>
      <trkpt lat="45.78875" lon="1.85223">
        <ele>666.5</ele>
        <time>2022-08-02T13:16:59Z</time>
      </trkpt>
      <trkpt lat="45.7887" lon="1.85218">
        <ele>666.4</ele>
        <time>2022-08-02T13:17:01Z</time>
      </trkpt>
      <trkpt lat="45.78862" lon="1.85214">
        <ele>665.6</ele>
        <time>2022-08-02T13:17:03Z</time>
      </trkpt>
      <trkpt lat="45.78855" lon="1.85208">
        <ele>665.5</ele>
        <time>2022-08-02T13:17:05Z</time>
      </trkpt>
      <trkpt lat="45.78848" lon="1.85202">
        <ele>665.8</ele>
        <time>2022-08-02T13:17:07Z</time>
      </trkpt>
      <trkpt lat="45.7884" lon="1.85196">
        <ele>665.7</ele>
        <time>2022-08-02T13:17:09Z</time>
      </trkpt>
      <trkpt lat="45.78831" lon="1.85193">
        <ele>664.9</ele>
        <time>2022-08-02T13:17:11Z</time>
      </trkpt>
      <trkpt lat="45.78822" lon="1.85185">
        <ele>666.9</ele>
        <time>2022-08-02T13:17:13Z</time>
      </trkpt>
      <trkpt lat="45.78814" lon="1.85181">
        <ele>667.5</ele>
        <time>2022-08-02T13:17:15Z</time>
      </trkpt>
      <trkpt lat="45.78809" lon="1.85171">
        <ele>670</ele>
        <time>2022-08-02T13:17:17Z</time>
      </trkpt>
      <trkpt lat="45.78804" lon="1.85165">
        <ele>671.3</ele>
        <time>2022-08-02T13:17:19Z</time>
      </trkpt>
      <trkpt lat="45.78799" lon="1.85159">
        <ele>672.3</ele>
        <time>2022-08-02T13:17:21Z</time>
      </trkpt>
      <trkpt lat="45.78794" lon="1.85155">
        <ele>672.8</ele>
        <time>2022-08-02T13:17:23Z</time>
      </trkpt>
      <trkpt lat="45.78791" lon="1.85151">
        <ele>673.4</ele>
        <time>2022-08-02T13:17:25Z</time>
      </trkpt>
      <trkpt lat="45.78787" lon="1.85146">
        <ele>674.3</ele>
        <time>2022-08-02T13:17:27Z</time>
      </trkpt>
      <trkpt lat="45.78782" lon="1.85145">
        <ele>674</ele>
        <time>2022-08-02T13:17:29Z</time>
      </trkpt>
      <trkpt lat="45.78776" lon="1.85142">
        <ele>674.1</ele>
        <time>2022-08-02T13:17:31Z</time>
      </trkpt>
      <trkpt lat="45.7877" lon="1.85141">
        <ele>673.8</ele>
        <time>2022-08-02T13:17:33Z</time>
      </trkpt>
      <trkpt lat="45.78764" lon="1.85142">
        <ele>673.2</ele>
        <time>2022-08-02T13:17:35Z</time>
      </trkpt>
      <trkpt lat="45.78758" lon="1.8514">
        <ele>673.1</ele>
        <time>2022-08-02T13:17:37Z</time>
      </trkpt>
      <trkpt lat="45.78751" lon="1.8514">
        <ele>672.5</ele>
        <time>2022-08-02T13:17:39Z</time>
      </trkpt>
      <trkpt lat="45.78744" lon="1.8514">
        <ele>671.3</ele>
        <time>2022-08-02T13:17:41Z</time>
      </trkpt>
      <trkpt lat="45.78738" lon="1.85141">
        <ele>670</ele>
        <time>2022-08-02T13:17:43Z</time>
      </trkpt>
      <trkpt lat="45.78732" lon="1.85139">
        <ele>669.4</ele>
        <time>2022-08-02T13:17:45Z</time>
      </trkpt>
      <trkpt lat="45.78726" lon="1.85138">
        <ele>668.5</ele>
        <time>2022-08-02T13:17:47Z</time>
      </trkpt>
      <trkpt lat="45.7872" lon="1.85137">
        <ele>667.7</ele>
        <time>2022-08-02T13:17:49Z</time>
      </trkpt>
      <trkpt lat="45.78715" lon="1.85137">
        <ele>666.9</ele>
        <time>2022-08-02T13:17:51Z</time>
      </trkpt>
      <trkpt lat="45.7871" lon="1.85135">
        <ele>666.6</ele>
        <time>2022-08-02T13:17:53Z</time>
      </trkpt>
      <trkpt lat="45.78703" lon="1.85133">
        <ele>665.7</ele>
        <time>2022-08-02T13:17:55Z</time>
      </trkpt>
      <trkpt lat="45.78698" lon="1.8513">
        <ele>665.8</ele>
        <time>2022-08-02T13:17:57Z</time>
      </trkpt>
      <trkpt lat="45.78693" lon="1.85129">
        <ele>665.6</ele>
        <time>2022-08-02T13:17:59Z</time>
      </trkpt>
      <trkpt lat="45.78689" lon="1.85127">
        <ele>665.4</ele>
        <time>2022-08-02T13:18:01Z</time>
      </trkpt>
      <trkpt lat="45.78687" lon="1.85124">
        <ele>666.1</ele>
        <time>2022-08-02T13:18:03Z</time>
      </trkpt>
      <trkpt lat="45.78684" lon="1.85122">
        <ele>666.1</ele>
        <time>2022-08-02T13:18:05Z</time>
      </trkpt>
      <trkpt lat="45.7868" lon="1.85119">
        <ele>666.5</ele>
        <time>2022-08-02T13:18:07Z</time>
      </trkpt>
      <trkpt lat="45.78676" lon="1.85116">
        <ele>667.1</ele>
        <time>2022-08-02T13:18:09Z</time>
      </trkpt>
      <trkpt lat="45.78673" lon="1.85113">
        <ele>667.6</ele>
        <time>2022-08-02T13:18:11Z</time>
      </trkpt>
      <trkpt lat="45.78671" lon="1.85111">
        <ele>667.8</ele>
        <time>2022-08-02T13:18:13Z</time>
      </trkpt>
      <trkpt lat="45.78667" lon="1.85108">
        <ele>668.6</ele>
        <time>2022-08-02T13:18:15Z</time>
      </trkpt>
      <trkpt lat="45.78662" lon="1.85105">
        <ele>668.9</ele>
        <time>2022-08-02T13:18:17Z</time>
      </trkpt>
      <trkpt lat="45.78659" lon="1.85101">
        <ele>669.8</ele>
        <time>2022-08-02T13:18:19Z</time>
      </trkpt>
      <trkpt lat="45.78654" lon="1.85096">
        <ele>670.6</ele>
        <time>2022-08-02T13:18:21Z</time>
      </trkpt>
      <trkpt lat="45.78651" lon="1.85093">
        <ele>671.2</ele>
        <time>2022-08-02T13:18:23Z</time>
      </trkpt>
      <trkpt lat="45.78647" lon="1.8509">
        <ele>671.5</ele>
        <time>2022-08-02T13:18:25Z</time>
      </trkpt>
      <trkpt lat="45.78644" lon="1.85088">
        <ele>671.6</ele>
        <time>2022-08-02T13:18:27Z</time>
      </trkpt>
      <trkpt lat="45.78645" lon="1.85088">
        <ele>671.5</ele>
        <time>2022-08-02T13:18:29Z</time>
      </trkpt>
      <trkpt lat="45.78644" lon="1.85089">
        <ele>671.3</ele>
        <time>2022-08-02T13:18:31Z</time>
      </trkpt>
      <trkpt lat="45.78642" lon="1.85089">
        <ele>671</ele>
        <time>2022-08-02T13:18:35Z</time>
      </trkpt>
      <trkpt lat="45.78644" lon="1.85091">
        <ele>670.7</ele>
        <time>2022-08-02T13:18:39Z</time>
      </trkpt>
      <trkpt lat="45.78644" lon="1.85091">
        <ele>670.7</ele>
        <time>2022-08-02T13:18:41Z</time>
      </trkpt>
      <trkpt lat="45.78644" lon="1.85091">
        <ele>670.7</ele>
        <time>2022-08-02T13:18:45Z</time>
      </trkpt>
      <trkpt lat="45.78644" lon="1.85091">
        <ele>670.7</ele>
        <time>2022-08-02T13:18:49Z</time>
      </trkpt>
      <trkpt lat="45.78643" lon="1.85092">
        <ele>670.1</ele>
        <time>2022-08-02T13:18:51Z</time>
      </trkpt>
      <trkpt lat="45.78643" lon="1.85092">
        <ele>670.1</ele>
        <time>2022-08-02T13:18:55Z</time>
      </trkpt>
      <trkpt lat="45.78643" lon="1.85093">
        <ele>669.9</ele>
        <time>2022-08-02T13:18:57Z</time>
      </trkpt>
      <trkpt lat="45.78642" lon="1.85094">
        <ele>669.5</ele>
        <time>2022-08-02T13:19:01Z</time>
      </trkpt>
      <trkpt lat="45.78642" lon="1.85094">
        <ele>669.3</ele>
        <time>2022-08-02T13:19:03Z</time>
      </trkpt>
      <trkpt lat="45.78641" lon="1.85094">
        <ele>669.2</ele>
        <time>2022-08-02T13:19:05Z</time>
      </trkpt>
      <trkpt lat="45.78641" lon="1.85094">
        <ele>669.2</ele>
        <time>2022-08-02T13:19:07Z</time>
      </trkpt>
      <trkpt lat="45.78639" lon="1.85091">
        <ele>669.8</ele>
        <time>2022-08-02T13:19:09Z</time>
      </trkpt>
      <trkpt lat="45.7864" lon="1.8509">
        <ele>670.1</ele>
        <time>2022-08-02T13:19:11Z</time>
      </trkpt>
      <trkpt lat="45.7864" lon="1.85091">
        <ele>670.1</ele>
        <time>2022-08-02T13:19:13Z</time>
      </trkpt>
      <trkpt lat="45.78639" lon="1.8509">
        <ele>670.3</ele>
        <time>2022-08-02T13:19:15Z</time>
      </trkpt>
      <trkpt lat="45.78639" lon="1.85089">
        <ele>670.4</ele>
        <time>2022-08-02T13:19:17Z</time>
      </trkpt>
      <trkpt lat="45.78639" lon="1.85089">
        <ele>670.4</ele>
        <time>2022-08-02T13:19:19Z</time>
      </trkpt>
      <trkpt lat="45.78639" lon="1.85088">
        <ele>670.5</ele>
        <time>2022-08-02T13:19:23Z</time>
      </trkpt>
      <trkpt lat="45.78638" lon="1.85088">
        <ele>670.5</ele>
        <time>2022-08-02T13:19:25Z</time>
      </trkpt>
      <trkpt lat="45.78639" lon="1.85087">
        <ele>670.8</ele>
        <time>2022-08-02T13:19:27Z</time>
      </trkpt>
      <trkpt lat="45.78639" lon="1.85088">
        <ele>670.7</ele>
        <time>2022-08-02T13:19:29Z</time>
      </trkpt>
      <trkpt lat="45.78639" lon="1.85088">
        <ele>670.7</ele>
        <time>2022-08-02T13:19:33Z</time>
      </trkpt>
      <trkpt lat="45.7864" lon="1.85089">
        <ele>670.5</ele>
        <time>2022-08-02T13:19:35Z</time>
      </trkpt>
      <trkpt lat="45.7864" lon="1.85089">
        <ele>670.5</ele>
        <time>2022-08-02T13:19:37Z</time>
      </trkpt>
      <trkpt lat="45.78639" lon="1.85089">
        <ele>670.4</ele>
        <time>2022-08-02T13:19:39Z</time>
      </trkpt>
      <trkpt lat="45.78639" lon="1.85089">
        <ele>670.2</ele>
        <time>2022-08-02T13:19:41Z</time>
      </trkpt>
      <trkpt lat="45.78638" lon="1.85088">
        <ele>670.6</ele>
        <time>2022-08-02T13:19:43Z</time>
      </trkpt>
      <trkpt lat="45.78638" lon="1.85087">
        <ele>670.8</ele>
        <time>2022-08-02T13:19:45Z</time>
      </trkpt>
      <trkpt lat="45.78638" lon="1.85087">
        <ele>670.8</ele>
        <time>2022-08-02T13:19:47Z</time>
      </trkpt>
      <trkpt lat="45.78638" lon="1.85087">
        <ele>670.8</ele>
        <time>2022-08-02T13:19:51Z</time>
      </trkpt>
      <trkpt lat="45.78638" lon="1.85087">
        <ele>670.7</ele>
        <time>2022-08-02T13:19:55Z</time>
      </trkpt>
      <trkpt lat="45.78638" lon="1.85087">
        <ele>670.8</ele>
        <time>2022-08-02T13:19:57Z</time>
      </trkpt>
      <trkpt lat="45.78637" lon="1.85087">
        <ele>670.8</ele>
        <time>2022-08-02T13:19:59Z</time>
      </trkpt>
      <trkpt lat="45.78638" lon="1.85088">
        <ele>670.4</ele>
        <time>2022-08-02T13:20:01Z</time>
      </trkpt>
      <trkpt lat="45.78638" lon="1.8509">
        <ele>670.1</ele>
        <time>2022-08-02T13:20:05Z</time>
      </trkpt>
      <trkpt lat="45.78637" lon="1.8509">
        <ele>669.9</ele>
        <time>2022-08-02T13:20:07Z</time>
      </trkpt>
      <trkpt lat="45.78637" lon="1.85089">
        <ele>670.2</ele>
        <time>2022-08-02T13:20:09Z</time>
      </trkpt>
      <trkpt lat="45.78637" lon="1.8509">
        <ele>670</ele>
        <time>2022-08-02T13:20:11Z</time>
      </trkpt>
      <trkpt lat="45.78636" lon="1.85089">
        <ele>670</ele>
        <time>2022-08-02T13:20:13Z</time>
      </trkpt>
      <trkpt lat="45.78636" lon="1.8509">
        <ele>669.7</ele>
        <time>2022-08-02T13:20:15Z</time>
      </trkpt>
      <trkpt lat="45.78636" lon="1.85089">
        <ele>669.7</ele>
        <time>2022-08-02T13:20:17Z</time>
      </trkpt>
      <trkpt lat="45.78635" lon="1.8509">
        <ele>669.5</ele>
        <time>2022-08-02T13:20:19Z</time>
      </trkpt>
      <trkpt lat="45.78635" lon="1.8509">
        <ele>669.5</ele>
        <time>2022-08-02T13:20:23Z</time>
      </trkpt>
      <trkpt lat="45.78635" lon="1.85095">
        <ele>667.9</ele>
        <time>2022-08-02T13:20:25Z</time>
      </trkpt>
      <trkpt lat="45.78635" lon="1.85095">
        <ele>667.9</ele>
        <time>2022-08-02T13:20:27Z</time>
      </trkpt>
      <trkpt lat="45.78635" lon="1.85095">
        <ele>668</ele>
        <time>2022-08-02T13:20:29Z</time>
      </trkpt>
      <trkpt lat="45.78635" lon="1.85095">
        <ele>668</ele>
        <time>2022-08-02T13:20:31Z</time>
      </trkpt>
      <trkpt lat="45.78635" lon="1.85094">
        <ele>668.4</ele>
        <time>2022-08-02T13:20:33Z</time>
      </trkpt>
      <trkpt lat="45.78634" lon="1.85092">
        <ele>668.7</ele>
        <time>2022-08-02T13:20:35Z</time>
      </trkpt>
      <trkpt lat="45.78634" lon="1.85093">
        <ele>668.4</ele>
        <time>2022-08-02T13:20:37Z</time>
      </trkpt>
      <trkpt lat="45.78635" lon="1.85096">
        <ele>667.8</ele>
        <time>2022-08-02T13:20:39Z</time>
      </trkpt>
      <trkpt lat="45.78637" lon="1.85097">
        <ele>667.7</ele>
        <time>2022-08-02T13:20:41Z</time>
      </trkpt>
      <trkpt lat="45.78639" lon="1.85098">
        <ele>667.8</ele>
        <time>2022-08-02T13:20:43Z</time>
      </trkpt>
      <trkpt lat="45.78643" lon="1.85102">
        <ele>667.2</ele>
        <time>2022-08-02T13:20:45Z</time>
      </trkpt>
      <trkpt lat="45.78646" lon="1.85104">
        <ele>667</ele>
        <time>2022-08-02T13:20:47Z</time>
      </trkpt>
      <trkpt lat="45.78648" lon="1.85104">
        <ele>667.2</ele>
        <time>2022-08-02T13:20:49Z</time>
      </trkpt>
      <trkpt lat="45.7865" lon="1.85107">
        <ele>666.7</ele>
        <time>2022-08-02T13:20:51Z</time>
      </trkpt>
      <trkpt lat="45.78652" lon="1.8511">
        <ele>666</ele>
        <time>2022-08-02T13:20:53Z</time>
      </trkpt>
      <trkpt lat="45.78652" lon="1.85112">
        <ele>665.3</ele>
        <time>2022-08-02T13:20:55Z</time>
      </trkpt>
      <trkpt lat="45.78654" lon="1.85116">
        <ele>664.3</ele>
        <time>2022-08-02T13:20:57Z</time>
      </trkpt>
      <trkpt lat="45.78655" lon="1.85117">
        <ele>664.1</ele>
        <time>2022-08-02T13:20:59Z</time>
      </trkpt>
      <trkpt lat="45.78658" lon="1.85119">
        <ele>663.5</ele>
        <time>2022-08-02T13:21:01Z</time>
      </trkpt>
      <trkpt lat="45.78659" lon="1.85118">
        <ele>664.1</ele>
        <time>2022-08-02T13:21:03Z</time>
      </trkpt>
      <trkpt lat="45.78662" lon="1.85119">
        <ele>664.1</ele>
        <time>2022-08-02T13:21:05Z</time>
      </trkpt>
      <trkpt lat="45.78665" lon="1.85118">
        <ele>664.9</ele>
        <time>2022-08-02T13:21:07Z</time>
      </trkpt>
      <trkpt lat="45.78668" lon="1.85117">
        <ele>665.5</ele>
        <time>2022-08-02T13:21:09Z</time>
      </trkpt>
      <trkpt lat="45.7867" lon="1.85117">
        <ele>665.7</ele>
        <time>2022-08-02T13:21:11Z</time>
      </trkpt>
      <trkpt lat="45.78672" lon="1.85117">
        <ele>666.2</ele>
        <time>2022-08-02T13:21:13Z</time>
      </trkpt>
      <trkpt lat="45.78674" lon="1.85118">
        <ele>666.1</ele>
        <time>2022-08-02T13:21:15Z</time>
      </trkpt>
      <trkpt lat="45.78675" lon="1.85116">
        <ele>666.8</ele>
        <time>2022-08-02T13:21:17Z</time>
      </trkpt>
      <trkpt lat="45.78676" lon="1.85118">
        <ele>666.4</ele>
        <time>2022-08-02T13:21:19Z</time>
      </trkpt>
      <trkpt lat="45.78678" lon="1.85118">
        <ele>666.5</ele>
        <time>2022-08-02T13:21:21Z</time>
      </trkpt>
      <trkpt lat="45.78678" lon="1.85118">
        <ele>666.6</ele>
        <time>2022-08-02T13:21:23Z</time>
      </trkpt>
      <trkpt lat="45.7868" lon="1.85118">
        <ele>666.7</ele>
        <time>2022-08-02T13:21:25Z</time>
      </trkpt>
      <trkpt lat="45.7868" lon="1.85118">
        <ele>666.8</ele>
        <time>2022-08-02T13:21:27Z</time>
      </trkpt>
      <trkpt lat="45.78681" lon="1.85118">
        <ele>667</ele>
        <time>2022-08-02T13:21:29Z</time>
      </trkpt>
      <trkpt lat="45.78684" lon="1.85119">
        <ele>667.2</ele>
        <time>2022-08-02T13:21:31Z</time>
      </trkpt>
      <trkpt lat="45.78685" lon="1.8512">
        <ele>666.9</ele>
        <time>2022-08-02T13:21:33Z</time>
      </trkpt>
      <trkpt lat="45.78684" lon="1.8512">
        <ele>666.8</ele>
        <time>2022-08-02T13:21:35Z</time>
      </trkpt>
      <trkpt lat="45.78684" lon="1.8512">
        <ele>666.7</ele>
        <time>2022-08-02T13:21:37Z</time>
      </trkpt>
      <trkpt lat="45.78685" lon="1.85121">
        <ele>666.5</ele>
        <time>2022-08-02T13:21:39Z</time>
      </trkpt>
      <trkpt lat="45.78687" lon="1.85123">
        <ele>666.3</ele>
        <time>2022-08-02T13:21:41Z</time>
      </trkpt>
      <trkpt lat="45.78689" lon="1.85123">
        <ele>666.6</ele>
        <time>2022-08-02T13:21:43Z</time>
      </trkpt>
      <trkpt lat="45.78691" lon="1.85124">
        <ele>666.5</ele>
        <time>2022-08-02T13:21:45Z</time>
      </trkpt>
      <trkpt lat="45.78691" lon="1.85126">
        <ele>666.1</ele>
        <time>2022-08-02T13:21:47Z</time>
      </trkpt>
      <trkpt lat="45.78693" lon="1.85125">
        <ele>666.4</ele>
        <time>2022-08-02T13:21:49Z</time>
      </trkpt>
      <trkpt lat="45.78694" lon="1.85127">
        <ele>666.1</ele>
        <time>2022-08-02T13:21:51Z</time>
      </trkpt>
      <trkpt lat="45.78696" lon="1.85128">
        <ele>666.2</ele>
        <time>2022-08-02T13:21:53Z</time>
      </trkpt>
      <trkpt lat="45.78697" lon="1.85129">
        <ele>666.1</ele>
        <time>2022-08-02T13:21:55Z</time>
      </trkpt>
      <trkpt lat="45.787" lon="1.85128">
        <ele>666.7</ele>
        <time>2022-08-02T13:21:57Z</time>
      </trkpt>
      <trkpt lat="45.787" lon="1.85129">
        <ele>666.4</ele>
        <time>2022-08-02T13:21:59Z</time>
      </trkpt>
      <trkpt lat="45.78703" lon="1.8513">
        <ele>666.7</ele>
        <time>2022-08-02T13:22:01Z</time>
      </trkpt>
      <trkpt lat="45.78703" lon="1.85132">
        <ele>666.3</ele>
        <time>2022-08-02T13:22:03Z</time>
      </trkpt>
      <trkpt lat="45.78705" lon="1.85132">
        <ele>666.5</ele>
        <time>2022-08-02T13:22:05Z</time>
      </trkpt>
      <trkpt lat="45.78707" lon="1.85134">
        <ele>666.3</ele>
        <time>2022-08-02T13:22:07Z</time>
      </trkpt>
      <trkpt lat="45.78709" lon="1.85136">
        <ele>666.1</ele>
        <time>2022-08-02T13:22:09Z</time>
      </trkpt>
      <trkpt lat="45.78712" lon="1.85135">
        <ele>666.7</ele>
        <time>2022-08-02T13:22:11Z</time>
      </trkpt>
      <trkpt lat="45.78713" lon="1.85135">
        <ele>667.1</ele>
        <time>2022-08-02T13:22:13Z</time>
      </trkpt>
      <trkpt lat="45.78715" lon="1.85136">
        <ele>667.2</ele>
        <time>2022-08-02T13:22:15Z</time>
      </trkpt>
      <trkpt lat="45.78716" lon="1.85136">
        <ele>667.4</ele>
        <time>2022-08-02T13:22:17Z</time>
      </trkpt>
      <trkpt lat="45.78717" lon="1.85137">
        <ele>667.4</ele>
        <time>2022-08-02T13:22:19Z</time>
      </trkpt>
      <trkpt lat="45.7872" lon="1.85137">
        <ele>667.9</ele>
        <time>2022-08-02T13:22:21Z</time>
      </trkpt>
      <trkpt lat="45.78722" lon="1.85137">
        <ele>668.3</ele>
        <time>2022-08-02T13:22:23Z</time>
      </trkpt>
      <trkpt lat="45.78725" lon="1.85137">
        <ele>668.6</ele>
        <time>2022-08-02T13:22:25Z</time>
      </trkpt>
      <trkpt lat="45.78727" lon="1.85139">
        <ele>668.5</ele>
        <time>2022-08-02T13:22:27Z</time>
      </trkpt>
      <trkpt lat="45.78728" lon="1.8514">
        <ele>668.4</ele>
        <time>2022-08-02T13:22:29Z</time>
      </trkpt>
      <trkpt lat="45.78729" lon="1.85139">
        <ele>668.7</ele>
        <time>2022-08-02T13:22:31Z</time>
      </trkpt>
      <trkpt lat="45.7873" lon="1.85141">
        <ele>668.5</ele>
        <time>2022-08-02T13:22:33Z</time>
      </trkpt>
      <trkpt lat="45.78731" lon="1.85141">
        <ele>668.7</ele>
        <time>2022-08-02T13:22:35Z</time>
      </trkpt>
      <trkpt lat="45.78732" lon="1.85142">
        <ele>668.7</ele>
        <time>2022-08-02T13:22:37Z</time>
      </trkpt>
      <trkpt lat="45.78736" lon="1.85142">
        <ele>669.4</ele>
        <time>2022-08-02T13:22:41Z</time>
      </trkpt>
      <trkpt lat="45.78737" lon="1.85141">
        <ele>669.9</ele>
        <time>2022-08-02T13:22:43Z</time>
      </trkpt>
      <trkpt lat="45.78737" lon="1.8514">
        <ele>670</ele>
        <time>2022-08-02T13:22:45Z</time>
      </trkpt>
      <trkpt lat="45.78738" lon="1.8514">
        <ele>670.2</ele>
        <time>2022-08-02T13:22:47Z</time>
      </trkpt>
      <trkpt lat="45.78742" lon="1.8514">
        <ele>670.9</ele>
        <time>2022-08-02T13:22:49Z</time>
      </trkpt>
      <trkpt lat="45.78743" lon="1.8514">
        <ele>671.4</ele>
        <time>2022-08-02T13:22:51Z</time>
      </trkpt>
      <trkpt lat="45.78743" lon="1.85139">
        <ele>671.4</ele>
        <time>2022-08-02T13:22:53Z</time>
      </trkpt>
      <trkpt lat="45.78745" lon="1.8514">
        <ele>671.7</ele>
        <time>2022-08-02T13:22:55Z</time>
      </trkpt>
      <trkpt lat="45.78747" lon="1.85138">
        <ele>672.3</ele>
        <time>2022-08-02T13:22:57Z</time>
      </trkpt>
      <trkpt lat="45.78748" lon="1.85139">
        <ele>672.2</ele>
        <time>2022-08-02T13:22:59Z</time>
      </trkpt>
      <trkpt lat="45.78749" lon="1.85139">
        <ele>672.5</ele>
        <time>2022-08-02T13:23:01Z</time>
      </trkpt>
      <trkpt lat="45.78752" lon="1.85139">
        <ele>672.8</ele>
        <time>2022-08-02T13:23:03Z</time>
      </trkpt>
      <trkpt lat="45.78752" lon="1.8514">
        <ele>672.7</ele>
        <time>2022-08-02T13:23:05Z</time>
      </trkpt>
      <trkpt lat="45.78755" lon="1.85139">
        <ele>673.1</ele>
        <time>2022-08-02T13:23:07Z</time>
      </trkpt>
      <trkpt lat="45.78756" lon="1.85139">
        <ele>673.2</ele>
        <time>2022-08-02T13:23:09Z</time>
      </trkpt>
      <trkpt lat="45.78758" lon="1.85139">
        <ele>673.3</ele>
        <time>2022-08-02T13:23:11Z</time>
      </trkpt>
      <trkpt lat="45.7876" lon="1.85139">
        <ele>673.5</ele>
        <time>2022-08-02T13:23:13Z</time>
      </trkpt>
      <trkpt lat="45.7876" lon="1.85139">
        <ele>673.4</ele>
        <time>2022-08-02T13:23:15Z</time>
      </trkpt>
      <trkpt lat="45.78763" lon="1.8514">
        <ele>673.5</ele>
        <time>2022-08-02T13:23:17Z</time>
      </trkpt>
      <trkpt lat="45.78763" lon="1.85142">
        <ele>673.2</ele>
        <time>2022-08-02T13:23:19Z</time>
      </trkpt>
      <trkpt lat="45.78765" lon="1.85142">
        <ele>673.4</ele>
        <time>2022-08-02T13:23:21Z</time>
      </trkpt>
      <trkpt lat="45.78768" lon="1.85142">
        <ele>673.5</ele>
        <time>2022-08-02T13:23:23Z</time>
      </trkpt>
      <trkpt lat="45.7877" lon="1.85143">
        <ele>673.5</ele>
        <time>2022-08-02T13:23:25Z</time>
      </trkpt>
      <trkpt lat="45.7877" lon="1.85143">
        <ele>673.6</ele>
        <time>2022-08-02T13:23:27Z</time>
      </trkpt>
      <trkpt lat="45.78772" lon="1.85143">
        <ele>673.7</ele>
        <time>2022-08-02T13:23:29Z</time>
      </trkpt>
      <trkpt lat="45.78774" lon="1.85142">
        <ele>673.9</ele>
        <time>2022-08-02T13:23:31Z</time>
      </trkpt>
      <trkpt lat="45.78776" lon="1.85143">
        <ele>674</ele>
        <time>2022-08-02T13:23:33Z</time>
      </trkpt>
      <trkpt lat="45.78777" lon="1.85144">
        <ele>673.8</ele>
        <time>2022-08-02T13:23:35Z</time>
      </trkpt>
      <trkpt lat="45.7878" lon="1.85144">
        <ele>674.1</ele>
        <time>2022-08-02T13:23:37Z</time>
      </trkpt>
      <trkpt lat="45.78781" lon="1.85145">
        <ele>674</ele>
        <time>2022-08-02T13:23:39Z</time>
      </trkpt>
      <trkpt lat="45.78784" lon="1.85145">
        <ele>674.2</ele>
        <time>2022-08-02T13:23:41Z</time>
      </trkpt>
      <trkpt lat="45.78786" lon="1.85146">
        <ele>674.1</ele>
        <time>2022-08-02T13:23:43Z</time>
      </trkpt>
      <trkpt lat="45.78788" lon="1.85147">
        <ele>674.1</ele>
        <time>2022-08-02T13:23:45Z</time>
      </trkpt>
      <trkpt lat="45.78791" lon="1.85147">
        <ele>674.2</ele>
        <time>2022-08-02T13:23:47Z</time>
      </trkpt>
      <trkpt lat="45.78793" lon="1.85148">
        <ele>674.3</ele>
        <time>2022-08-02T13:23:49Z</time>
      </trkpt>
      <trkpt lat="45.78795" lon="1.8515">
        <ele>674</ele>
        <time>2022-08-02T13:23:51Z</time>
      </trkpt>
      <trkpt lat="45.78796" lon="1.85152">
        <ele>673.7</ele>
        <time>2022-08-02T13:23:53Z</time>
      </trkpt>
      <trkpt lat="45.78797" lon="1.85153">
        <ele>673.6</ele>
        <time>2022-08-02T13:23:55Z</time>
      </trkpt>
      <trkpt lat="45.78798" lon="1.85154">
        <ele>673.3</ele>
        <time>2022-08-02T13:23:57Z</time>
      </trkpt>
      <trkpt lat="45.78798" lon="1.85157">
        <ele>672.7</ele>
        <time>2022-08-02T13:23:59Z</time>
      </trkpt>
      <trkpt lat="45.78797" lon="1.85157">
        <ele>672.6</ele>
        <time>2022-08-02T13:24:01Z</time>
      </trkpt>
      <trkpt lat="45.78798" lon="1.85158">
        <ele>672.4</ele>
        <time>2022-08-02T13:24:03Z</time>
      </trkpt>
      <trkpt lat="45.78797" lon="1.8516">
        <ele>671.9</ele>
        <time>2022-08-02T13:24:05Z</time>
      </trkpt>
      <trkpt lat="45.78798" lon="1.85161">
        <ele>671.9</ele>
        <time>2022-08-02T13:24:07Z</time>
      </trkpt>
      <trkpt lat="45.78799" lon="1.85161">
        <ele>671.7</ele>
        <time>2022-08-02T13:24:09Z</time>
      </trkpt>
      <trkpt lat="45.788" lon="1.85161">
        <ele>671.9</ele>
        <time>2022-08-02T13:24:11Z</time>
      </trkpt>
      <trkpt lat="45.78802" lon="1.85163">
        <ele>671.5</ele>
        <time>2022-08-02T13:24:13Z</time>
      </trkpt>
      <trkpt lat="45.78803" lon="1.85166">
        <ele>671</ele>
        <time>2022-08-02T13:24:15Z</time>
      </trkpt>
      <trkpt lat="45.78805" lon="1.85167">
        <ele>670.8</ele>
        <time>2022-08-02T13:24:17Z</time>
      </trkpt>
      <trkpt lat="45.78807" lon="1.85169">
        <ele>670.5</ele>
        <time>2022-08-02T13:24:19Z</time>
      </trkpt>
      <trkpt lat="45.78808" lon="1.85171">
        <ele>670.1</ele>
        <time>2022-08-02T13:24:21Z</time>
      </trkpt>
      <trkpt lat="45.78808" lon="1.8517">
        <ele>670.2</ele>
        <time>2022-08-02T13:24:23Z</time>
      </trkpt>
      <trkpt lat="45.7881" lon="1.85172">
        <ele>669.8</ele>
        <time>2022-08-02T13:24:25Z</time>
      </trkpt>
      <trkpt lat="45.78811" lon="1.85175">
        <ele>669</ele>
        <time>2022-08-02T13:24:27Z</time>
      </trkpt>
      <trkpt lat="45.78811" lon="1.85175">
        <ele>669.1</ele>
        <time>2022-08-02T13:24:29Z</time>
      </trkpt>
      <trkpt lat="45.78811" lon="1.85175">
        <ele>669.1</ele>
        <time>2022-08-02T13:24:31Z</time>
      </trkpt>
      <trkpt lat="45.78812" lon="1.85176">
        <ele>668.9</ele>
        <time>2022-08-02T13:24:33Z</time>
      </trkpt>
      <trkpt lat="45.78809" lon="1.85174">
        <ele>669.2</ele>
        <time>2022-08-02T13:24:35Z</time>
      </trkpt>
      <trkpt lat="45.78806" lon="1.85171">
        <ele>670</ele>
        <time>2022-08-02T13:24:37Z</time>
      </trkpt>
      <trkpt lat="45.78804" lon="1.85168">
        <ele>670.6</ele>
        <time>2022-08-02T13:24:39Z</time>
      </trkpt>
      <trkpt lat="45.78803" lon="1.85165">
        <ele>671.3</ele>
        <time>2022-08-02T13:24:41Z</time>
      </trkpt>
      <trkpt lat="45.788" lon="1.85162">
        <ele>671.6</ele>
        <time>2022-08-02T13:24:43Z</time>
      </trkpt>
      <trkpt lat="45.788" lon="1.8516">
        <ele>672</ele>
        <time>2022-08-02T13:24:45Z</time>
      </trkpt>
      <trkpt lat="45.78797" lon="1.85159">
        <ele>672.2</ele>
        <time>2022-08-02T13:24:47Z</time>
      </trkpt>
      <trkpt lat="45.78796" lon="1.85156">
        <ele>672.7</ele>
        <time>2022-08-02T13:24:49Z</time>
      </trkpt>
      <trkpt lat="45.78794" lon="1.85154">
        <ele>673</ele>
        <time>2022-08-02T13:24:51Z</time>
      </trkpt>
      <trkpt lat="45.78793" lon="1.85152">
        <ele>673.3</ele>
        <time>2022-08-02T13:24:53Z</time>
      </trkpt>
      <trkpt lat="45.78792" lon="1.85148">
        <ele>674.2</ele>
        <time>2022-08-02T13:24:55Z</time>
      </trkpt>
      <trkpt lat="45.7879" lon="1.85147">
        <ele>674.3</ele>
        <time>2022-08-02T13:24:57Z</time>
      </trkpt>
      <trkpt lat="45.78786" lon="1.85145">
        <ele>674.5</ele>
        <time>2022-08-02T13:24:59Z</time>
      </trkpt>
      <trkpt lat="45.78786" lon="1.85143">
        <ele>674.7</ele>
        <time>2022-08-02T13:25:01Z</time>
      </trkpt>
      <trkpt lat="45.78785" lon="1.85142">
        <ele>675</ele>
        <time>2022-08-02T13:25:03Z</time>
      </trkpt>
      <trkpt lat="45.78783" lon="1.85142">
        <ele>674.7</ele>
        <time>2022-08-02T13:25:05Z</time>
      </trkpt>
      <trkpt lat="45.7878" lon="1.85142">
        <ele>674.4</ele>
        <time>2022-08-02T13:25:07Z</time>
      </trkpt>
      <trkpt lat="45.78777" lon="1.85143">
        <ele>674.1</ele>
        <time>2022-08-02T13:25:09Z</time>
      </trkpt>
      <trkpt lat="45.78775" lon="1.85143">
        <ele>674</ele>
        <time>2022-08-02T13:25:11Z</time>
      </trkpt>
      <trkpt lat="45.78772" lon="1.85141">
        <ele>674</ele>
        <time>2022-08-02T13:25:13Z</time>
      </trkpt>
      <trkpt lat="45.78771" lon="1.85141">
        <ele>673.9</ele>
        <time>2022-08-02T13:25:15Z</time>
      </trkpt>
      <trkpt lat="45.78769" lon="1.85141">
        <ele>673.7</ele>
        <time>2022-08-02T13:25:17Z</time>
      </trkpt>
      <trkpt lat="45.78766" lon="1.85142">
        <ele>673.3</ele>
        <time>2022-08-02T13:25:19Z</time>
      </trkpt>
      <trkpt lat="45.78764" lon="1.85142">
        <ele>673.3</ele>
        <time>2022-08-02T13:25:21Z</time>
      </trkpt>
      <trkpt lat="45.78761" lon="1.85143">
        <ele>672.8</ele>
        <time>2022-08-02T13:25:23Z</time>
      </trkpt>
      <trkpt lat="45.7876" lon="1.85143">
        <ele>672.7</ele>
        <time>2022-08-02T13:25:25Z</time>
      </trkpt>
      <trkpt lat="45.78758" lon="1.85143">
        <ele>672.5</ele>
        <time>2022-08-02T13:25:27Z</time>
      </trkpt>
      <trkpt lat="45.78756" lon="1.85142">
        <ele>672.6</ele>
        <time>2022-08-02T13:25:29Z</time>
      </trkpt>
      <trkpt lat="45.78754" lon="1.85142">
        <ele>672.4</ele>
        <time>2022-08-02T13:25:31Z</time>
      </trkpt>
      <trkpt lat="45.78754" lon="1.85141">
        <ele>672.6</ele>
        <time>2022-08-02T13:25:33Z</time>
      </trkpt>
      <trkpt lat="45.78752" lon="1.85142">
        <ele>672.3</ele>
        <time>2022-08-02T13:25:35Z</time>
      </trkpt>
      <trkpt lat="45.7875" lon="1.85142">
        <ele>672.1</ele>
        <time>2022-08-02T13:25:37Z</time>
      </trkpt>
      <trkpt lat="45.78748" lon="1.85142">
        <ele>671.7</ele>
        <time>2022-08-02T13:25:39Z</time>
      </trkpt>
      <trkpt lat="45.78747" lon="1.85142">
        <ele>671.3</ele>
        <time>2022-08-02T13:25:41Z</time>
      </trkpt>
      <trkpt lat="45.78744" lon="1.85143">
        <ele>670.8</ele>
        <time>2022-08-02T13:25:43Z</time>
      </trkpt>
      <trkpt lat="45.78742" lon="1.85142">
        <ele>670.7</ele>
        <time>2022-08-02T13:25:45Z</time>
      </trkpt>
      <trkpt lat="45.78739" lon="1.85141">
        <ele>670.3</ele>
        <time>2022-08-02T13:25:47Z</time>
      </trkpt>
      <trkpt lat="45.78737" lon="1.85142">
        <ele>669.7</ele>
        <time>2022-08-02T13:25:49Z</time>
      </trkpt>
      <trkpt lat="45.78737" lon="1.85142">
        <ele>669.5</ele>
        <time>2022-08-02T13:25:51Z</time>
      </trkpt>
      <trkpt lat="45.78734" lon="1.85142">
        <ele>669.3</ele>
        <time>2022-08-02T13:25:53Z</time>
      </trkpt>
      <trkpt lat="45.78732" lon="1.8514">
        <ele>669.1</ele>
        <time>2022-08-02T13:25:55Z</time>
      </trkpt>
      <trkpt lat="45.78731" lon="1.85139">
        <ele>669</ele>
        <time>2022-08-02T13:25:57Z</time>
      </trkpt>
      <trkpt lat="45.7873" lon="1.85139">
        <ele>669</ele>
        <time>2022-08-02T13:25:59Z</time>
      </trkpt>
      <trkpt lat="45.78725" lon="1.85139">
        <ele>668.2</ele>
        <time>2022-08-02T13:26:01Z</time>
      </trkpt>
      <trkpt lat="45.78725" lon="1.85138">
        <ele>668.3</ele>
        <time>2022-08-02T13:26:03Z</time>
      </trkpt>
      <trkpt lat="45.78722" lon="1.85136">
        <ele>668.3</ele>
        <time>2022-08-02T13:26:05Z</time>
      </trkpt>
      <trkpt lat="45.7872" lon="1.85136">
        <ele>667.9</ele>
        <time>2022-08-02T13:26:07Z</time>
      </trkpt>
      <trkpt lat="45.78717" lon="1.85136">
        <ele>667.4</ele>
        <time>2022-08-02T13:26:09Z</time>
      </trkpt>
      <trkpt lat="45.78715" lon="1.85137">
        <ele>666.9</ele>
        <time>2022-08-02T13:26:11Z</time>
      </trkpt>
      <trkpt lat="45.78713" lon="1.85137">
        <ele>666.6</ele>
        <time>2022-08-02T13:26:13Z</time>
      </trkpt>
      <trkpt lat="45.78711" lon="1.85137">
        <ele>666.2</ele>
        <time>2022-08-02T13:26:15Z</time>
      </trkpt>
      <trkpt lat="45.78709" lon="1.85137">
        <ele>665.9</ele>
        <time>2022-08-02T13:26:17Z</time>
      </trkpt>
      <trkpt lat="45.78708" lon="1.85136">
        <ele>665.7</ele>
        <time>2022-08-02T13:26:19Z</time>
      </trkpt>
      <trkpt lat="45.78705" lon="1.85135">
        <ele>665.7</ele>
        <time>2022-08-02T13:26:21Z</time>
      </trkpt>
      <trkpt lat="45.78703" lon="1.85135">
        <ele>665.3</ele>
        <time>2022-08-02T13:26:23Z</time>
      </trkpt>
      <trkpt lat="45.78702" lon="1.85135">
        <ele>665</ele>
        <time>2022-08-02T13:26:25Z</time>
      </trkpt>
      <trkpt lat="45.78699" lon="1.85134">
        <ele>664.9</ele>
        <time>2022-08-02T13:26:27Z</time>
      </trkpt>
      <trkpt lat="45.78697" lon="1.85133">
        <ele>664.9</ele>
        <time>2022-08-02T13:26:29Z</time>
      </trkpt>
      <trkpt lat="45.78697" lon="1.85133">
        <ele>664.8</ele>
        <time>2022-08-02T13:26:31Z</time>
      </trkpt>
      <trkpt lat="45.78695" lon="1.85131">
        <ele>665.2</ele>
        <time>2022-08-02T13:26:33Z</time>
      </trkpt>
      <trkpt lat="45.78694" lon="1.85129">
        <ele>665.4</ele>
        <time>2022-08-02T13:26:35Z</time>
      </trkpt>
      <trkpt lat="45.78691" lon="1.85129">
        <ele>665.1</ele>
        <time>2022-08-02T13:26:37Z</time>
      </trkpt>
      <trkpt lat="45.7869" lon="1.85127">
        <ele>665.4</ele>
        <time>2022-08-02T13:26:39Z</time>
      </trkpt>
      <trkpt lat="45.78688" lon="1.85127">
        <ele>665.2</ele>
        <time>2022-08-02T13:26:41Z</time>
      </trkpt>
      <trkpt lat="45.78685" lon="1.85126">
        <ele>665</ele>
        <time>2022-08-02T13:26:43Z</time>
      </trkpt>
      <trkpt lat="45.78684" lon="1.85126">
        <ele>664.9</ele>
        <time>2022-08-02T13:26:45Z</time>
      </trkpt>
      <trkpt lat="45.7868" lon="1.85124">
        <ele>665.1</ele>
        <time>2022-08-02T13:26:47Z</time>
      </trkpt>
      <trkpt lat="45.78679" lon="1.85123">
        <ele>665.1</ele>
        <time>2022-08-02T13:26:49Z</time>
      </trkpt>
      <trkpt lat="45.78677" lon="1.85122">
        <ele>665.1</ele>
        <time>2022-08-02T13:26:51Z</time>
      </trkpt>
      <trkpt lat="45.78676" lon="1.85119">
        <ele>665.9</ele>
        <time>2022-08-02T13:26:53Z</time>
      </trkpt>
      <trkpt lat="45.78675" lon="1.85118">
        <ele>666</ele>
        <time>2022-08-02T13:26:55Z</time>
      </trkpt>
      <trkpt lat="45.78672" lon="1.85117">
        <ele>666</ele>
        <time>2022-08-02T13:26:57Z</time>
      </trkpt>
      <trkpt lat="45.7867" lon="1.85114">
        <ele>666.8</ele>
        <time>2022-08-02T13:26:59Z</time>
      </trkpt>
      <trkpt lat="45.78668" lon="1.85113">
        <ele>666.7</ele>
        <time>2022-08-02T13:27:01Z</time>
      </trkpt>
      <trkpt lat="45.78667" lon="1.85112">
        <ele>666.9</ele>
        <time>2022-08-02T13:27:03Z</time>
      </trkpt>
      <trkpt lat="45.78665" lon="1.8511">
        <ele>667.4</ele>
        <time>2022-08-02T13:27:05Z</time>
      </trkpt>
      <trkpt lat="45.78663" lon="1.85109">
        <ele>667.7</ele>
        <time>2022-08-02T13:27:07Z</time>
      </trkpt>
      <trkpt lat="45.7866" lon="1.85108">
        <ele>667.5</ele>
        <time>2022-08-02T13:27:09Z</time>
      </trkpt>
      <trkpt lat="45.78659" lon="1.85108">
        <ele>667.6</ele>
        <time>2022-08-02T13:27:11Z</time>
      </trkpt>
      <trkpt lat="45.78657" lon="1.85108">
        <ele>667.1</ele>
        <time>2022-08-02T13:27:13Z</time>
      </trkpt>
      <trkpt lat="45.78655" lon="1.85108">
        <ele>667</ele>
        <time>2022-08-02T13:27:15Z</time>
      </trkpt>
      <trkpt lat="45.78654" lon="1.85108">
        <ele>666.7</ele>
        <time>2022-08-02T13:27:17Z</time>
      </trkpt>
      <trkpt lat="45.78653" lon="1.85106">
        <ele>667.3</ele>
        <time>2022-08-02T13:27:19Z</time>
      </trkpt>
      <trkpt lat="45.78651" lon="1.85103">
        <ele>667.9</ele>
        <time>2022-08-02T13:27:21Z</time>
      </trkpt>
      <trkpt lat="45.7865" lon="1.85102">
        <ele>668.2</ele>
        <time>2022-08-02T13:27:23Z</time>
      </trkpt>
      <trkpt lat="45.78648" lon="1.851">
        <ele>668.4</ele>
        <time>2022-08-02T13:27:25Z</time>
      </trkpt>
      <trkpt lat="45.78645" lon="1.85098">
        <ele>668.8</ele>
        <time>2022-08-02T13:27:27Z</time>
      </trkpt>
      <trkpt lat="45.78644" lon="1.85097">
        <ele>668.9</ele>
        <time>2022-08-02T13:27:29Z</time>
      </trkpt>
      <trkpt lat="45.78643" lon="1.85093">
        <ele>669.8</ele>
        <time>2022-08-02T13:27:31Z</time>
      </trkpt>
      <trkpt lat="45.7864" lon="1.85091">
        <ele>669.9</ele>
        <time>2022-08-02T13:27:33Z</time>
      </trkpt>
      <trkpt lat="45.78638" lon="1.85091">
        <ele>669.6</ele>
        <time>2022-08-02T13:27:35Z</time>
      </trkpt>
      <trkpt lat="45.78627" lon="1.85085">
        <ele>669.4</ele>
        <time>2022-08-02T13:29:47Z</time>
      </trkpt>
      <trkpt lat="45.7862" lon="1.85083">
        <ele>668.6</ele>
        <time>2022-08-02T13:29:49Z</time>
      </trkpt>
      <trkpt lat="45.78614" lon="1.85081">
        <ele>668.1</ele>
        <time>2022-08-02T13:29:51Z</time>
      </trkpt>
      <trkpt lat="45.78612" lon="1.85078">
        <ele>668.4</ele>
        <time>2022-08-02T13:29:53Z</time>
      </trkpt>
      <trkpt lat="45.78603" lon="1.85073">
        <ele>668.2</ele>
        <time>2022-08-02T13:29:55Z</time>
      </trkpt>
      <trkpt lat="45.78601" lon="1.8507">
        <ele>668.5</ele>
        <time>2022-08-02T13:29:57Z</time>
      </trkpt>
      <trkpt lat="45.78597" lon="1.85065">
        <ele>669.1</ele>
        <time>2022-08-02T13:29:59Z</time>
      </trkpt>
      <trkpt lat="45.78592" lon="1.85063">
        <ele>668.7</ele>
        <time>2022-08-02T13:30:01Z</time>
      </trkpt>
      <trkpt lat="45.78589" lon="1.8506">
        <ele>669.1</ele>
        <time>2022-08-02T13:30:03Z</time>
      </trkpt>
      <trkpt lat="45.78586" lon="1.85057">
        <ele>669.4</ele>
        <time>2022-08-02T13:30:05Z</time>
      </trkpt>
      <trkpt lat="45.78582" lon="1.85056">
        <ele>669.1</ele>
        <time>2022-08-02T13:30:07Z</time>
      </trkpt>
      <trkpt lat="45.78579" lon="1.85053">
        <ele>669.5</ele>
        <time>2022-08-02T13:30:09Z</time>
      </trkpt>
      <trkpt lat="45.78575" lon="1.85052">
        <ele>669.5</ele>
        <time>2022-08-02T13:30:11Z</time>
      </trkpt>
      <trkpt lat="45.7857" lon="1.85051">
        <ele>669.1</ele>
        <time>2022-08-02T13:30:13Z</time>
      </trkpt>
      <trkpt lat="45.78567" lon="1.85051">
        <ele>668.9</ele>
        <time>2022-08-02T13:30:15Z</time>
      </trkpt>
      <trkpt lat="45.78564" lon="1.85051">
        <ele>668.6</ele>
        <time>2022-08-02T13:30:17Z</time>
      </trkpt>
      <trkpt lat="45.78561" lon="1.8505">
        <ele>668.4</ele>
        <time>2022-08-02T13:30:19Z</time>
      </trkpt>
      <trkpt lat="45.78555" lon="1.8505">
        <ele>668</ele>
        <time>2022-08-02T13:30:21Z</time>
      </trkpt>
      <trkpt lat="45.78549" lon="1.85049">
        <ele>667.5</ele>
        <time>2022-08-02T13:30:23Z</time>
      </trkpt>
      <trkpt lat="45.78546" lon="1.85046">
        <ele>667.9</ele>
        <time>2022-08-02T13:30:25Z</time>
      </trkpt>
      <trkpt lat="45.78536" lon="1.85047">
        <ele>666.6</ele>
        <time>2022-08-02T13:30:27Z</time>
      </trkpt>
      <trkpt lat="45.78533" lon="1.85042">
        <ele>667.2</ele>
        <time>2022-08-02T13:30:29Z</time>
      </trkpt>
      <trkpt lat="45.78529" lon="1.85041">
        <ele>666.9</ele>
        <time>2022-08-02T13:30:31Z</time>
      </trkpt>
      <trkpt lat="45.78524" lon="1.8504">
        <ele>666.6</ele>
        <time>2022-08-02T13:30:33Z</time>
      </trkpt>
      <trkpt lat="45.78521" lon="1.85037">
        <ele>666.7</ele>
        <time>2022-08-02T13:30:35Z</time>
      </trkpt>
      <trkpt lat="45.78512" lon="1.85033">
        <ele>666.2</ele>
        <time>2022-08-02T13:30:37Z</time>
      </trkpt>
      <trkpt lat="45.78505" lon="1.85026">
        <ele>666.1</ele>
        <time>2022-08-02T13:30:39Z</time>
      </trkpt>
      <trkpt lat="45.78499" lon="1.85023">
        <ele>665.8</ele>
        <time>2022-08-02T13:30:41Z</time>
      </trkpt>
      <trkpt lat="45.78494" lon="1.8502">
        <ele>665.7</ele>
        <time>2022-08-02T13:30:43Z</time>
      </trkpt>
      <trkpt lat="45.78489" lon="1.85017">
        <ele>665.5</ele>
        <time>2022-08-02T13:30:45Z</time>
      </trkpt>
      <trkpt lat="45.78486" lon="1.85014">
        <ele>665.6</ele>
        <time>2022-08-02T13:30:47Z</time>
      </trkpt>
      <trkpt lat="45.7848" lon="1.8501">
        <ele>665.4</ele>
        <time>2022-08-02T13:30:49Z</time>
      </trkpt>
      <trkpt lat="45.78476" lon="1.85007">
        <ele>665.5</ele>
        <time>2022-08-02T13:30:51Z</time>
      </trkpt>
      <trkpt lat="45.78472" lon="1.85006">
        <ele>665.1</ele>
        <time>2022-08-02T13:30:53Z</time>
      </trkpt>
      <trkpt lat="45.78466" lon="1.85005">
        <ele>664.7</ele>
        <time>2022-08-02T13:30:55Z</time>
      </trkpt>
      <trkpt lat="45.78459" lon="1.85">
        <ele>664.5</ele>
        <time>2022-08-02T13:30:57Z</time>
      </trkpt>
      <trkpt lat="45.78451" lon="1.84996">
        <ele>664.2</ele>
        <time>2022-08-02T13:30:59Z</time>
      </trkpt>
      <trkpt lat="45.78444" lon="1.84993">
        <ele>663.7</ele>
        <time>2022-08-02T13:31:01Z</time>
      </trkpt>
      <trkpt lat="45.78435" lon="1.8499">
        <ele>663</ele>
        <time>2022-08-02T13:31:03Z</time>
      </trkpt>
      <trkpt lat="45.78429" lon="1.84985">
        <ele>662.6</ele>
        <time>2022-08-02T13:31:05Z</time>
      </trkpt>
      <trkpt lat="45.78423" lon="1.84982">
        <ele>662.1</ele>
        <time>2022-08-02T13:31:07Z</time>
      </trkpt>
      <trkpt lat="45.78417" lon="1.84976">
        <ele>661.8</ele>
        <time>2022-08-02T13:31:09Z</time>
      </trkpt>
      <trkpt lat="45.78409" lon="1.84971">
        <ele>661.2</ele>
        <time>2022-08-02T13:31:11Z</time>
      </trkpt>
      <trkpt lat="45.78404" lon="1.84964">
        <ele>661.2</ele>
        <time>2022-08-02T13:31:13Z</time>
      </trkpt>
      <trkpt lat="45.784" lon="1.84955">
        <ele>661.4</ele>
        <time>2022-08-02T13:31:15Z</time>
      </trkpt>
      <trkpt lat="45.78393" lon="1.84949">
        <ele>661.4</ele>
        <time>2022-08-02T13:31:17Z</time>
      </trkpt>
      <trkpt lat="45.78389" lon="1.84943">
        <ele>661.5</ele>
        <time>2022-08-02T13:31:19Z</time>
      </trkpt>
      <trkpt lat="45.78386" lon="1.84939">
        <ele>661.5</ele>
        <time>2022-08-02T13:31:21Z</time>
      </trkpt>
      <trkpt lat="45.78377" lon="1.84934">
        <ele>661.3</ele>
        <time>2022-08-02T13:31:23Z</time>
      </trkpt>
      <trkpt lat="45.7837" lon="1.8493">
        <ele>661.2</ele>
        <time>2022-08-02T13:31:25Z</time>
      </trkpt>
      <trkpt lat="45.78365" lon="1.84925">
        <ele>661.3</ele>
        <time>2022-08-02T13:31:27Z</time>
      </trkpt>
      <trkpt lat="45.78355" lon="1.8492">
        <ele>661.1</ele>
        <time>2022-08-02T13:31:29Z</time>
      </trkpt>
      <trkpt lat="45.78346" lon="1.84915">
        <ele>661.1</ele>
        <time>2022-08-02T13:31:31Z</time>
      </trkpt>
      <trkpt lat="45.78338" lon="1.84913">
        <ele>660.8</ele>
        <time>2022-08-02T13:31:33Z</time>
      </trkpt>
      <trkpt lat="45.7833" lon="1.84918">
        <ele>659.7</ele>
        <time>2022-08-02T13:31:35Z</time>
      </trkpt>
      <trkpt lat="45.78321" lon="1.84922">
        <ele>658.7</ele>
        <time>2022-08-02T13:31:37Z</time>
      </trkpt>
      <trkpt lat="45.78313" lon="1.84929">
        <ele>657.4</ele>
        <time>2022-08-02T13:31:39Z</time>
      </trkpt>
      <trkpt lat="45.78306" lon="1.84936">
        <ele>656.3</ele>
        <time>2022-08-02T13:31:41Z</time>
      </trkpt>
      <trkpt lat="45.78298" lon="1.84939">
        <ele>655.5</ele>
        <time>2022-08-02T13:31:43Z</time>
      </trkpt>
      <trkpt lat="45.78291" lon="1.84939">
        <ele>655.3</ele>
        <time>2022-08-02T13:31:45Z</time>
      </trkpt>
      <trkpt lat="45.78283" lon="1.84938">
        <ele>655.1</ele>
        <time>2022-08-02T13:31:47Z</time>
      </trkpt>
      <trkpt lat="45.78278" lon="1.84938">
        <ele>655</ele>
        <time>2022-08-02T13:31:49Z</time>
      </trkpt>
      <trkpt lat="45.78269" lon="1.84933">
        <ele>655.1</ele>
        <time>2022-08-02T13:31:51Z</time>
      </trkpt>
      <trkpt lat="45.78261" lon="1.8493">
        <ele>655.2</ele>
        <time>2022-08-02T13:31:53Z</time>
      </trkpt>
      <trkpt lat="45.78256" lon="1.84929">
        <ele>655.1</ele>
        <time>2022-08-02T13:31:55Z</time>
      </trkpt>
      <trkpt lat="45.78248" lon="1.84924">
        <ele>655.2</ele>
        <time>2022-08-02T13:31:57Z</time>
      </trkpt>
      <trkpt lat="45.78243" lon="1.84921">
        <ele>655.5</ele>
        <time>2022-08-02T13:31:59Z</time>
      </trkpt>
      <trkpt lat="45.78239" lon="1.84915">
        <ele>655.9</ele>
        <time>2022-08-02T13:32:01Z</time>
      </trkpt>
      <trkpt lat="45.78234" lon="1.84907">
        <ele>656</ele>
        <time>2022-08-02T13:32:03Z</time>
      </trkpt>
      <trkpt lat="45.78232" lon="1.84897">
        <ele>656.1</ele>
        <time>2022-08-02T13:32:05Z</time>
      </trkpt>
      <trkpt lat="45.7823" lon="1.84888">
        <ele>656.2</ele>
        <time>2022-08-02T13:32:07Z</time>
      </trkpt>
      <trkpt lat="45.78229" lon="1.84881">
        <ele>656.3</ele>
        <time>2022-08-02T13:32:09Z</time>
      </trkpt>
      <trkpt lat="45.7823" lon="1.84873">
        <ele>656.4</ele>
        <time>2022-08-02T13:32:11Z</time>
      </trkpt>
      <trkpt lat="45.78229" lon="1.84865">
        <ele>656.5</ele>
        <time>2022-08-02T13:32:13Z</time>
      </trkpt>
      <trkpt lat="45.7823" lon="1.84857">
        <ele>656.7</ele>
        <time>2022-08-02T13:32:15Z</time>
      </trkpt>
      <trkpt lat="45.78229" lon="1.8485">
        <ele>656.8</ele>
        <time>2022-08-02T13:32:17Z</time>
      </trkpt>
      <trkpt lat="45.78229" lon="1.84841">
        <ele>656.9</ele>
        <time>2022-08-02T13:32:19Z</time>
      </trkpt>
      <trkpt lat="45.78228" lon="1.84834">
        <ele>656.9</ele>
        <time>2022-08-02T13:32:21Z</time>
      </trkpt>
      <trkpt lat="45.78228" lon="1.84825">
        <ele>658.2</ele>
        <time>2022-08-02T13:32:23Z</time>
      </trkpt>
      <trkpt lat="45.78228" lon="1.8482">
        <ele>659</ele>
        <time>2022-08-02T13:32:24Z</time>
      </trkpt>
      <trkpt lat="45.78228" lon="1.84809">
        <ele>660.8</ele>
        <time>2022-08-02T13:32:26Z</time>
      </trkpt>
      <trkpt lat="45.78226" lon="1.84796">
        <ele>662.6</ele>
        <time>2022-08-02T13:32:28Z</time>
      </trkpt>
      <trkpt lat="45.78221" lon="1.84785">
        <ele>663.9</ele>
        <time>2022-08-02T13:32:30Z</time>
      </trkpt>
      <trkpt lat="45.78216" lon="1.84779">
        <ele>664.3</ele>
        <time>2022-08-02T13:32:32Z</time>
      </trkpt>
      <trkpt lat="45.78211" lon="1.84772">
        <ele>664.7</ele>
        <time>2022-08-02T13:32:34Z</time>
      </trkpt>
      <trkpt lat="45.78205" lon="1.84766">
        <ele>664.9</ele>
        <time>2022-08-02T13:32:36Z</time>
      </trkpt>
      <trkpt lat="45.78199" lon="1.84762">
        <ele>664.8</ele>
        <time>2022-08-02T13:32:38Z</time>
      </trkpt>
      <trkpt lat="45.78192" lon="1.8476">
        <ele>664.2</ele>
        <time>2022-08-02T13:32:40Z</time>
      </trkpt>
      <trkpt lat="45.78185" lon="1.84757">
        <ele>663.6</ele>
        <time>2022-08-02T13:32:42Z</time>
      </trkpt>
      <trkpt lat="45.78176" lon="1.84754">
        <ele>662.8</ele>
        <time>2022-08-02T13:32:44Z</time>
      </trkpt>
      <trkpt lat="45.78169" lon="1.84756">
        <ele>661.7</ele>
        <time>2022-08-02T13:32:46Z</time>
      </trkpt>
      <trkpt lat="45.78164" lon="1.84759">
        <ele>661.4</ele>
        <time>2022-08-02T13:32:48Z</time>
      </trkpt>
      <trkpt lat="45.78156" lon="1.84764">
        <ele>661.4</ele>
        <time>2022-08-02T13:32:50Z</time>
      </trkpt>
      <trkpt lat="45.78152" lon="1.84773">
        <ele>661</ele>
        <time>2022-08-02T13:32:52Z</time>
      </trkpt>
      <trkpt lat="45.78148" lon="1.84778">
        <ele>660.9</ele>
        <time>2022-08-02T13:32:54Z</time>
      </trkpt>
      <trkpt lat="45.78146" lon="1.84785">
        <ele>660.5</ele>
        <time>2022-08-02T13:32:56Z</time>
      </trkpt>
      <trkpt lat="45.78144" lon="1.84794">
        <ele>660</ele>
        <time>2022-08-02T13:32:58Z</time>
      </trkpt>
      <trkpt lat="45.78142" lon="1.84805">
        <ele>659.4</ele>
        <time>2022-08-02T13:33:00Z</time>
      </trkpt>
      <trkpt lat="45.78141" lon="1.84815">
        <ele>658.8</ele>
        <time>2022-08-02T13:33:02Z</time>
      </trkpt>
      <trkpt lat="45.78141" lon="1.84824">
        <ele>658.1</ele>
        <time>2022-08-02T13:33:04Z</time>
      </trkpt>
      <trkpt lat="45.7814" lon="1.84833">
        <ele>657.5</ele>
        <time>2022-08-02T13:33:06Z</time>
      </trkpt>
      <trkpt lat="45.7814" lon="1.84843">
        <ele>657.5</ele>
        <time>2022-08-02T13:33:08Z</time>
      </trkpt>
      <trkpt lat="45.78139" lon="1.84852">
        <ele>657.4</ele>
        <time>2022-08-02T13:33:10Z</time>
      </trkpt>
      <trkpt lat="45.7814" lon="1.84859">
        <ele>657.4</ele>
        <time>2022-08-02T13:33:12Z</time>
      </trkpt>
      <trkpt lat="45.7814" lon="1.84872">
        <ele>657.2</ele>
        <time>2022-08-02T13:33:14Z</time>
      </trkpt>
      <trkpt lat="45.7814" lon="1.84882">
        <ele>657.1</ele>
        <time>2022-08-02T13:33:16Z</time>
      </trkpt>
      <trkpt lat="45.7814" lon="1.84893">
        <ele>657.1</ele>
        <time>2022-08-02T13:33:18Z</time>
      </trkpt>
      <trkpt lat="45.7814" lon="1.84902">
        <ele>657</ele>
        <time>2022-08-02T13:33:20Z</time>
      </trkpt>
      <trkpt lat="45.78139" lon="1.84912">
        <ele>657</ele>
        <time>2022-08-02T13:33:22Z</time>
      </trkpt>
      <trkpt lat="45.78137" lon="1.84922">
        <ele>656.7</ele>
        <time>2022-08-02T13:33:24Z</time>
      </trkpt>
      <trkpt lat="45.78134" lon="1.84932">
        <ele>656.1</ele>
        <time>2022-08-02T13:33:26Z</time>
      </trkpt>
      <trkpt lat="45.78131" lon="1.84942">
        <ele>655.6</ele>
        <time>2022-08-02T13:33:28Z</time>
      </trkpt>
      <trkpt lat="45.78128" lon="1.8495">
        <ele>655.1</ele>
        <time>2022-08-02T13:33:30Z</time>
      </trkpt>
      <trkpt lat="45.78127" lon="1.84959">
        <ele>654.6</ele>
        <time>2022-08-02T13:33:32Z</time>
      </trkpt>
      <trkpt lat="45.78126" lon="1.84967">
        <ele>654</ele>
        <time>2022-08-02T13:33:34Z</time>
      </trkpt>
      <trkpt lat="45.78124" lon="1.84975">
        <ele>653.5</ele>
        <time>2022-08-02T13:33:36Z</time>
      </trkpt>
      <trkpt lat="45.78122" lon="1.84982">
        <ele>653.2</ele>
        <time>2022-08-02T13:33:38Z</time>
      </trkpt>
      <trkpt lat="45.7812" lon="1.84988">
        <ele>652.8</ele>
        <time>2022-08-02T13:33:40Z</time>
      </trkpt>
      <trkpt lat="45.78118" lon="1.84998">
        <ele>652.2</ele>
        <time>2022-08-02T13:33:43Z</time>
      </trkpt>
      <trkpt lat="45.78116" lon="1.85005">
        <ele>652.1</ele>
        <time>2022-08-02T13:33:45Z</time>
      </trkpt>
      <trkpt lat="45.78114" lon="1.85011">
        <ele>652.1</ele>
        <time>2022-08-02T13:33:47Z</time>
      </trkpt>
      <trkpt lat="45.7811" lon="1.85018">
        <ele>652.2</ele>
        <time>2022-08-02T13:33:49Z</time>
      </trkpt>
      <trkpt lat="45.78105" lon="1.85026">
        <ele>652.3</ele>
        <time>2022-08-02T13:33:51Z</time>
      </trkpt>
      <trkpt lat="45.78099" lon="1.85033">
        <ele>652.4</ele>
        <time>2022-08-02T13:33:53Z</time>
      </trkpt>
      <trkpt lat="45.78093" lon="1.8504">
        <ele>652.5</ele>
        <time>2022-08-02T13:33:55Z</time>
      </trkpt>
      <trkpt lat="45.78084" lon="1.85044">
        <ele>652.8</ele>
        <time>2022-08-02T13:33:57Z</time>
      </trkpt>
      <trkpt lat="45.78075" lon="1.85044">
        <ele>653.3</ele>
        <time>2022-08-02T13:33:59Z</time>
      </trkpt>
      <trkpt lat="45.78069" lon="1.85041">
        <ele>653.7</ele>
        <time>2022-08-02T13:34:01Z</time>
      </trkpt>
      <trkpt lat="45.78064" lon="1.8504">
        <ele>654</ele>
        <time>2022-08-02T13:34:03Z</time>
      </trkpt>
      <trkpt lat="45.78058" lon="1.85039">
        <ele>654.4</ele>
        <time>2022-08-02T13:34:05Z</time>
      </trkpt>
      <trkpt lat="45.7805" lon="1.8504">
        <ele>654.7</ele>
        <time>2022-08-02T13:34:07Z</time>
      </trkpt>
      <trkpt lat="45.78042" lon="1.85042">
        <ele>654.9</ele>
        <time>2022-08-02T13:34:09Z</time>
      </trkpt>
      <trkpt lat="45.78035" lon="1.85044">
        <ele>655.1</ele>
        <time>2022-08-02T13:34:11Z</time>
      </trkpt>
      <trkpt lat="45.78028" lon="1.85047">
        <ele>655.1</ele>
        <time>2022-08-02T13:34:13Z</time>
      </trkpt>
      <trkpt lat="45.78021" lon="1.8505">
        <ele>655.1</ele>
        <time>2022-08-02T13:34:15Z</time>
      </trkpt>
      <trkpt lat="45.78015" lon="1.85053">
        <ele>655.1</ele>
        <time>2022-08-02T13:34:17Z</time>
      </trkpt>
      <trkpt lat="45.78008" lon="1.85056">
        <ele>655.1</ele>
        <time>2022-08-02T13:34:19Z</time>
      </trkpt>
      <trkpt lat="45.78001" lon="1.8506">
        <ele>654.8</ele>
        <time>2022-08-02T13:34:21Z</time>
      </trkpt>
      <trkpt lat="45.77994" lon="1.85064">
        <ele>654.8</ele>
        <time>2022-08-02T13:34:23Z</time>
      </trkpt>
      <trkpt lat="45.77988" lon="1.85071">
        <ele>654.8</ele>
        <time>2022-08-02T13:34:25Z</time>
      </trkpt>
      <trkpt lat="45.77982" lon="1.85078">
        <ele>654.5</ele>
        <time>2022-08-02T13:34:27Z</time>
      </trkpt>
      <trkpt lat="45.77977" lon="1.85085">
        <ele>654.5</ele>
        <time>2022-08-02T13:34:29Z</time>
      </trkpt>
      <trkpt lat="45.77976" lon="1.85096">
        <ele>655</ele>
        <time>2022-08-02T13:34:31Z</time>
      </trkpt>
      <trkpt lat="45.77975" lon="1.85105">
        <ele>655.5</ele>
        <time>2022-08-02T13:34:33Z</time>
      </trkpt>
      <trkpt lat="45.77974" lon="1.85113">
        <ele>655.9</ele>
        <time>2022-08-02T13:34:35Z</time>
      </trkpt>
      <trkpt lat="45.77974" lon="1.85125">
        <ele>656.2</ele>
        <time>2022-08-02T13:34:37Z</time>
      </trkpt>
      <trkpt lat="45.77976" lon="1.85134">
        <ele>656.4</ele>
        <time>2022-08-02T13:34:39Z</time>
      </trkpt>
      <trkpt lat="45.77977" lon="1.85141">
        <ele>656.5</ele>
        <time>2022-08-02T13:34:41Z</time>
      </trkpt>
      <trkpt lat="45.77979" lon="1.85146">
        <ele>656.3</ele>
        <time>2022-08-02T13:34:43Z</time>
      </trkpt>
      <trkpt lat="45.7798" lon="1.85149">
        <ele>656.3</ele>
        <time>2022-08-02T13:34:45Z</time>
      </trkpt>
      <trkpt lat="45.77981" lon="1.85156">
        <ele>656.3</ele>
        <time>2022-08-02T13:34:47Z</time>
      </trkpt>
      <trkpt lat="45.77985" lon="1.8516">
        <ele>655.9</ele>
        <time>2022-08-02T13:34:49Z</time>
      </trkpt>
      <trkpt lat="45.77987" lon="1.85165">
        <ele>655.8</ele>
        <time>2022-08-02T13:34:51Z</time>
      </trkpt>
      <trkpt lat="45.77989" lon="1.8517">
        <ele>655.8</ele>
        <time>2022-08-02T13:34:53Z</time>
      </trkpt>
      <trkpt lat="45.77993" lon="1.85175">
        <ele>655.7</ele>
        <time>2022-08-02T13:34:55Z</time>
      </trkpt>
      <trkpt lat="45.77996" lon="1.8518">
        <ele>655.7</ele>
        <time>2022-08-02T13:34:57Z</time>
      </trkpt>
      <trkpt lat="45.78" lon="1.85185">
        <ele>655.6</ele>
        <time>2022-08-02T13:34:59Z</time>
      </trkpt>
      <trkpt lat="45.78002" lon="1.8519">
        <ele>655.8</ele>
        <time>2022-08-02T13:35:01Z</time>
      </trkpt>
      <trkpt lat="45.78006" lon="1.85197">
        <ele>656</ele>
        <time>2022-08-02T13:35:03Z</time>
      </trkpt>
      <trkpt lat="45.78006" lon="1.85199">
        <ele>656.1</ele>
        <time>2022-08-02T13:35:05Z</time>
      </trkpt>
      <trkpt lat="45.78006" lon="1.852">
        <ele>656.1</ele>
        <time>2022-08-02T13:35:07Z</time>
      </trkpt>
      <trkpt lat="45.78007" lon="1.852">
        <ele>656.1</ele>
        <time>2022-08-02T13:35:09Z</time>
      </trkpt>
      <trkpt lat="45.78007" lon="1.852">
        <ele>656</ele>
        <time>2022-08-02T13:35:11Z</time>
      </trkpt>
      <trkpt lat="45.78008" lon="1.85201">
        <ele>656</ele>
        <time>2022-08-02T13:35:13Z</time>
      </trkpt>
      <trkpt lat="45.78023" lon="1.8523">
        <ele>656.2</ele>
        <time>2022-08-02T13:35:45Z</time>
      </trkpt>
      <trkpt lat="45.78023" lon="1.85233">
        <ele>656.3</ele>
        <time>2022-08-02T13:35:47Z</time>
      </trkpt>
      <trkpt lat="45.78025" lon="1.85237">
        <ele>656.4</ele>
        <time>2022-08-02T13:35:49Z</time>
      </trkpt>
      <trkpt lat="45.78026" lon="1.8524">
        <ele>656.3</ele>
        <time>2022-08-02T13:35:51Z</time>
      </trkpt>
      <trkpt lat="45.78028" lon="1.85242">
        <ele>656.2</ele>
        <time>2022-08-02T13:35:53Z</time>
      </trkpt>
      <trkpt lat="45.78029" lon="1.85241">
        <ele>656.1</ele>
        <time>2022-08-02T13:35:55Z</time>
      </trkpt>
      <trkpt lat="45.78031" lon="1.85243">
        <ele>655.8</ele>
        <time>2022-08-02T13:35:57Z</time>
      </trkpt>
      <trkpt lat="45.78034" lon="1.85249">
        <ele>655.7</ele>
        <time>2022-08-02T13:35:59Z</time>
      </trkpt>
      <trkpt lat="45.78038" lon="1.85254">
        <ele>655.3</ele>
        <time>2022-08-02T13:36:01Z</time>
      </trkpt>
      <trkpt lat="45.78041" lon="1.85257">
        <ele>655.1</ele>
        <time>2022-08-02T13:36:03Z</time>
      </trkpt>
      <trkpt lat="45.78044" lon="1.85261">
        <ele>654.9</ele>
        <time>2022-08-02T13:36:05Z</time>
      </trkpt>
      <trkpt lat="45.78049" lon="1.85263">
        <ele>654.4</ele>
        <time>2022-08-02T13:36:07Z</time>
      </trkpt>
      <trkpt lat="45.78051" lon="1.85267">
        <ele>654.3</ele>
        <time>2022-08-02T13:36:09Z</time>
      </trkpt>
      <trkpt lat="45.78055" lon="1.85273">
        <ele>654.1</ele>
        <time>2022-08-02T13:36:11Z</time>
      </trkpt>
      <trkpt lat="45.78061" lon="1.85274">
        <ele>653.3</ele>
        <time>2022-08-02T13:36:13Z</time>
      </trkpt>
      <trkpt lat="45.78066" lon="1.85276">
        <ele>652.7</ele>
        <time>2022-08-02T13:36:15Z</time>
      </trkpt>
      <trkpt lat="45.78071" lon="1.85278">
        <ele>652.1</ele>
        <time>2022-08-02T13:36:17Z</time>
      </trkpt>
      <trkpt lat="45.78076" lon="1.85281">
        <ele>651.6</ele>
        <time>2022-08-02T13:36:19Z</time>
      </trkpt>
      <trkpt lat="45.78081" lon="1.85287">
        <ele>651.5</ele>
        <time>2022-08-02T13:36:21Z</time>
      </trkpt>
      <trkpt lat="45.78084" lon="1.85292">
        <ele>651.5</ele>
        <time>2022-08-02T13:36:23Z</time>
      </trkpt>
      <trkpt lat="45.78086" lon="1.85296">
        <ele>651.8</ele>
        <time>2022-08-02T13:36:25Z</time>
      </trkpt>
      <trkpt lat="45.78088" lon="1.85303">
        <ele>652.2</ele>
        <time>2022-08-02T13:36:27Z</time>
      </trkpt>
      <trkpt lat="45.78088" lon="1.8531">
        <ele>652.7</ele>
        <time>2022-08-02T13:36:29Z</time>
      </trkpt>
      <trkpt lat="45.78088" lon="1.85315">
        <ele>653.2</ele>
        <time>2022-08-02T13:36:31Z</time>
      </trkpt>
      <trkpt lat="45.78087" lon="1.85322">
        <ele>653.7</ele>
        <time>2022-08-02T13:36:33Z</time>
      </trkpt>
      <trkpt lat="45.78087" lon="1.85328">
        <ele>654.3</ele>
        <time>2022-08-02T13:36:35Z</time>
      </trkpt>
      <trkpt lat="45.78086" lon="1.85335">
        <ele>654.7</ele>
        <time>2022-08-02T13:36:37Z</time>
      </trkpt>
      <trkpt lat="45.78085" lon="1.85341">
        <ele>654.6</ele>
        <time>2022-08-02T13:36:39Z</time>
      </trkpt>
      <trkpt lat="45.78083" lon="1.85348">
        <ele>654.5</ele>
        <time>2022-08-02T13:36:41Z</time>
      </trkpt>
      <trkpt lat="45.78082" lon="1.85355">
        <ele>654.4</ele>
        <time>2022-08-02T13:36:43Z</time>
      </trkpt>
      <trkpt lat="45.7808" lon="1.85361">
        <ele>654.5</ele>
        <time>2022-08-02T13:36:45Z</time>
      </trkpt>
      <trkpt lat="45.78077" lon="1.85365">
        <ele>654.8</ele>
        <time>2022-08-02T13:36:47Z</time>
      </trkpt>
      <trkpt lat="45.78074" lon="1.85369">
        <ele>655</ele>
        <time>2022-08-02T13:36:49Z</time>
      </trkpt>
      <trkpt lat="45.78072" lon="1.85373">
        <ele>655.2</ele>
        <time>2022-08-02T13:36:51Z</time>
      </trkpt>
      <trkpt lat="45.78069" lon="1.85375">
        <ele>655.5</ele>
        <time>2022-08-02T13:36:53Z</time>
      </trkpt>
      <trkpt lat="45.78068" lon="1.85377">
        <ele>655.6</ele>
        <time>2022-08-02T13:36:55Z</time>
      </trkpt>
      <trkpt lat="45.78067" lon="1.85381">
        <ele>655.5</ele>
        <time>2022-08-02T13:36:57Z</time>
      </trkpt>
      <trkpt lat="45.78067" lon="1.85384">
        <ele>655.5</ele>
        <time>2022-08-02T13:36:59Z</time>
      </trkpt>
      <trkpt lat="45.78066" lon="1.85386">
        <ele>655.5</ele>
        <time>2022-08-02T13:37:01Z</time>
      </trkpt>
      <trkpt lat="45.78066" lon="1.85386">
        <ele>655.5</ele>
        <time>2022-08-02T13:37:03Z</time>
      </trkpt>
      <trkpt lat="45.78065" lon="1.85389">
        <ele>655.6</ele>
        <time>2022-08-02T13:37:07Z</time>
      </trkpt>
      <trkpt lat="45.78063" lon="1.85396">
        <ele>655.7</ele>
        <time>2022-08-02T13:37:09Z</time>
      </trkpt>
      <trkpt lat="45.78061" lon="1.85409">
        <ele>655.5</ele>
        <time>2022-08-02T13:37:11Z</time>
      </trkpt>
      <trkpt lat="45.78058" lon="1.85421">
        <ele>655.4</ele>
        <time>2022-08-02T13:37:13Z</time>
      </trkpt>
      <trkpt lat="45.78055" lon="1.8543">
        <ele>655.4</ele>
        <time>2022-08-02T13:37:15Z</time>
      </trkpt>
      <trkpt lat="45.78053" lon="1.85438">
        <ele>655.3</ele>
        <time>2022-08-02T13:37:17Z</time>
      </trkpt>
      <trkpt lat="45.78053" lon="1.85445">
        <ele>654.9</ele>
        <time>2022-08-02T13:37:19Z</time>
      </trkpt>
      <trkpt lat="45.78052" lon="1.85453">
        <ele>654.5</ele>
        <time>2022-08-02T13:37:21Z</time>
      </trkpt>
      <trkpt lat="45.78053" lon="1.85462">
        <ele>654.1</ele>
        <time>2022-08-02T13:37:23Z</time>
      </trkpt>
      <trkpt lat="45.78052" lon="1.85468">
        <ele>653.9</ele>
        <time>2022-08-02T13:37:25Z</time>
      </trkpt>
      <trkpt lat="45.78051" lon="1.8547">
        <ele>653.8</ele>
        <time>2022-08-02T13:37:27Z</time>
      </trkpt>
      <trkpt lat="45.78051" lon="1.85469">
        <ele>653.9</ele>
        <time>2022-08-02T13:37:29Z</time>
      </trkpt>
      <trkpt lat="45.78051" lon="1.85472">
        <ele>653.8</ele>
        <time>2022-08-02T13:37:31Z</time>
      </trkpt>
      <trkpt lat="45.78051" lon="1.85475">
        <ele>653.6</ele>
        <time>2022-08-02T13:37:33Z</time>
      </trkpt>
      <trkpt lat="45.78051" lon="1.8548">
        <ele>653.4</ele>
        <time>2022-08-02T13:37:35Z</time>
      </trkpt>
      <trkpt lat="45.78052" lon="1.85486">
        <ele>652.9</ele>
        <time>2022-08-02T13:37:37Z</time>
      </trkpt>
      <trkpt lat="45.78052" lon="1.85494">
        <ele>652.4</ele>
        <time>2022-08-02T13:37:39Z</time>
      </trkpt>
      <trkpt lat="45.78051" lon="1.85498">
        <ele>652.3</ele>
        <time>2022-08-02T13:37:41Z</time>
      </trkpt>
      <trkpt lat="45.78051" lon="1.85498">
        <ele>652.4</ele>
        <time>2022-08-02T13:37:43Z</time>
      </trkpt>
      <trkpt lat="45.78051" lon="1.85498">
        <ele>652.4</ele>
        <time>2022-08-02T13:37:45Z</time>
      </trkpt>
      <trkpt lat="45.78051" lon="1.85499">
        <ele>652.3</ele>
        <time>2022-08-02T13:37:47Z</time>
      </trkpt>
      <trkpt lat="45.78051" lon="1.85501">
        <ele>652.3</ele>
        <time>2022-08-02T13:37:49Z</time>
      </trkpt>
      <trkpt lat="45.78051" lon="1.85503">
        <ele>652.3</ele>
        <time>2022-08-02T13:37:51Z</time>
      </trkpt>
      <trkpt lat="45.7806" lon="1.85526">
        <ele>651.3</ele>
        <time>2022-08-02T13:37:59Z</time>
      </trkpt>
      <trkpt lat="45.78061" lon="1.85533">
        <ele>651.2</ele>
        <time>2022-08-02T13:38:01Z</time>
      </trkpt>
      <trkpt lat="45.78064" lon="1.85538">
        <ele>650.8</ele>
        <time>2022-08-02T13:38:03Z</time>
      </trkpt>
      <trkpt lat="45.78068" lon="1.85542">
        <ele>650.2</ele>
        <time>2022-08-02T13:38:05Z</time>
      </trkpt>
      <trkpt lat="45.78071" lon="1.85546">
        <ele>649.8</ele>
        <time>2022-08-02T13:38:07Z</time>
      </trkpt>
      <trkpt lat="45.78075" lon="1.8555">
        <ele>649.3</ele>
        <time>2022-08-02T13:38:09Z</time>
      </trkpt>
      <trkpt lat="45.78078" lon="1.85554">
        <ele>648.8</ele>
        <time>2022-08-02T13:38:11Z</time>
      </trkpt>
      <trkpt lat="45.78081" lon="1.8556">
        <ele>648.4</ele>
        <time>2022-08-02T13:38:13Z</time>
      </trkpt>
      <trkpt lat="45.78082" lon="1.85564">
        <ele>648.3</ele>
        <time>2022-08-02T13:38:15Z</time>
      </trkpt>
      <trkpt lat="45.78081" lon="1.85563">
        <ele>648.3</ele>
        <time>2022-08-02T13:38:17Z</time>
      </trkpt>
      <trkpt lat="45.78081" lon="1.85563">
        <ele>648.3</ele>
        <time>2022-08-02T13:38:19Z</time>
      </trkpt>
      <trkpt lat="45.78081" lon="1.85563">
        <ele>648.3</ele>
        <time>2022-08-02T13:38:23Z</time>
      </trkpt>
      <trkpt lat="45.78081" lon="1.85565">
        <ele>648.3</ele>
        <time>2022-08-02T13:38:25Z</time>
      </trkpt>
      <trkpt lat="45.78082" lon="1.85571">
        <ele>648.2</ele>
        <time>2022-08-02T13:38:27Z</time>
      </trkpt>
      <trkpt lat="45.7808" lon="1.85576">
        <ele>648.5</ele>
        <time>2022-08-02T13:38:29Z</time>
      </trkpt>
      <trkpt lat="45.78077" lon="1.85579">
        <ele>648.9</ele>
        <time>2022-08-02T13:38:31Z</time>
      </trkpt>
      <trkpt lat="45.78075" lon="1.85579">
        <ele>649.2</ele>
        <time>2022-08-02T13:38:33Z</time>
      </trkpt>
      <trkpt lat="45.78072" lon="1.85581">
        <ele>649.7</ele>
        <time>2022-08-02T13:38:35Z</time>
      </trkpt>
      <trkpt lat="45.78069" lon="1.85584">
        <ele>650.3</ele>
        <time>2022-08-02T13:38:37Z</time>
      </trkpt>
      <trkpt lat="45.78067" lon="1.85588">
        <ele>650.8</ele>
        <time>2022-08-02T13:38:39Z</time>
      </trkpt>
      <trkpt lat="45.78066" lon="1.85594">
        <ele>651.3</ele>
        <time>2022-08-02T13:38:41Z</time>
      </trkpt>
      <trkpt lat="45.78064" lon="1.85599">
        <ele>651.9</ele>
        <time>2022-08-02T13:38:43Z</time>
      </trkpt>
      <trkpt lat="45.78063" lon="1.85606">
        <ele>652.3</ele>
        <time>2022-08-02T13:38:45Z</time>
      </trkpt>
      <trkpt lat="45.78063" lon="1.85612">
        <ele>652.6</ele>
        <time>2022-08-02T13:38:47Z</time>
      </trkpt>
      <trkpt lat="45.78062" lon="1.85619">
        <ele>653.1</ele>
        <time>2022-08-02T13:38:49Z</time>
      </trkpt>
      <trkpt lat="45.78062" lon="1.85627">
        <ele>653.5</ele>
        <time>2022-08-02T13:38:51Z</time>
      </trkpt>
      <trkpt lat="45.78062" lon="1.85635">
        <ele>654</ele>
        <time>2022-08-02T13:38:53Z</time>
      </trkpt>
      <trkpt lat="45.78061" lon="1.85644">
        <ele>654.5</ele>
        <time>2022-08-02T13:38:55Z</time>
      </trkpt>
      <trkpt lat="45.7806" lon="1.85651">
        <ele>654.9</ele>
        <time>2022-08-02T13:38:57Z</time>
      </trkpt>
      <trkpt lat="45.78059" lon="1.85659">
        <ele>655.4</ele>
        <time>2022-08-02T13:38:59Z</time>
      </trkpt>
      <trkpt lat="45.7806" lon="1.85667">
        <ele>655.7</ele>
        <time>2022-08-02T13:39:01Z</time>
      </trkpt>
      <trkpt lat="45.78058" lon="1.85676">
        <ele>655.7</ele>
        <time>2022-08-02T13:39:03Z</time>
      </trkpt>
      <trkpt lat="45.78058" lon="1.85686">
        <ele>655.6</ele>
        <time>2022-08-02T13:39:05Z</time>
      </trkpt>
      <trkpt lat="45.7806" lon="1.85697">
        <ele>655.4</ele>
        <time>2022-08-02T13:39:07Z</time>
      </trkpt>
      <trkpt lat="45.78064" lon="1.85708">
        <ele>655.2</ele>
        <time>2022-08-02T13:39:09Z</time>
      </trkpt>
      <trkpt lat="45.78069" lon="1.85717">
        <ele>655</ele>
        <time>2022-08-02T13:39:11Z</time>
      </trkpt>
      <trkpt lat="45.78075" lon="1.85724">
        <ele>654.9</ele>
        <time>2022-08-02T13:39:13Z</time>
      </trkpt>
      <trkpt lat="45.7808" lon="1.85732">
        <ele>654.8</ele>
        <time>2022-08-02T13:39:15Z</time>
      </trkpt>
      <trkpt lat="45.78083" lon="1.85741">
        <ele>654.9</ele>
        <time>2022-08-02T13:39:17Z</time>
      </trkpt>
      <trkpt lat="45.78086" lon="1.85745">
        <ele>655.4</ele>
        <time>2022-08-02T13:39:19Z</time>
      </trkpt>
      <trkpt lat="45.78086" lon="1.85747">
        <ele>655.5</ele>
        <time>2022-08-02T13:39:21Z</time>
      </trkpt>
      <trkpt lat="45.78086" lon="1.85746">
        <ele>655.5</ele>
        <time>2022-08-02T13:39:23Z</time>
      </trkpt>
      <trkpt lat="45.78086" lon="1.85746">
        <ele>655.4</ele>
        <time>2022-08-02T13:39:25Z</time>
      </trkpt>
      <trkpt lat="45.78087" lon="1.85746">
        <ele>655.5</ele>
        <time>2022-08-02T13:39:27Z</time>
      </trkpt>
      <trkpt lat="45.78087" lon="1.85746">
        <ele>655.5</ele>
        <time>2022-08-02T13:39:29Z</time>
      </trkpt>
      <trkpt lat="45.78087" lon="1.85746">
        <ele>655.6</ele>
        <time>2022-08-02T13:40:39Z</time>
      </trkpt>
      <trkpt lat="45.78089" lon="1.85748">
        <ele>655.9</ele>
        <time>2022-08-02T13:40:41Z</time>
      </trkpt>
      <trkpt lat="45.78091" lon="1.85749">
        <ele>656.4</ele>
        <time>2022-08-02T13:40:43Z</time>
      </trkpt>
      <trkpt lat="45.78094" lon="1.85751">
        <ele>656.9</ele>
        <time>2022-08-02T13:40:45Z</time>
      </trkpt>
      <trkpt lat="45.78098" lon="1.85753">
        <ele>657.4</ele>
        <time>2022-08-02T13:40:47Z</time>
      </trkpt>
      <trkpt lat="45.781" lon="1.85754">
        <ele>657.8</ele>
        <time>2022-08-02T13:40:49Z</time>
      </trkpt>
      <trkpt lat="45.78106" lon="1.85756">
        <ele>658.7</ele>
        <time>2022-08-02T13:40:51Z</time>
      </trkpt>
      <trkpt lat="45.7811" lon="1.85757">
        <ele>659.3</ele>
        <time>2022-08-02T13:40:53Z</time>
      </trkpt>
      <trkpt lat="45.78112" lon="1.85755">
        <ele>659.9</ele>
        <time>2022-08-02T13:40:55Z</time>
      </trkpt>
      <trkpt lat="45.78114" lon="1.85753">
        <ele>660.3</ele>
        <time>2022-08-02T13:40:57Z</time>
      </trkpt>
      <trkpt lat="45.78113" lon="1.85751">
        <ele>660.4</ele>
        <time>2022-08-02T13:40:59Z</time>
      </trkpt>
      <trkpt lat="45.78113" lon="1.8575">
        <ele>660.4</ele>
        <time>2022-08-02T13:41:01Z</time>
      </trkpt>
      <trkpt lat="45.78113" lon="1.85749">
        <ele>660.3</ele>
        <time>2022-08-02T13:41:05Z</time>
      </trkpt>
      <trkpt lat="45.78113" lon="1.85749">
        <ele>660.3</ele>
        <time>2022-08-02T13:41:07Z</time>
      </trkpt>
      <trkpt lat="45.78112" lon="1.85748">
        <ele>660.1</ele>
        <time>2022-08-02T13:41:09Z</time>
      </trkpt>
      <trkpt lat="45.78112" lon="1.85747">
        <ele>660.2</ele>
        <time>2022-08-02T13:41:11Z</time>
      </trkpt>
      <trkpt lat="45.78113" lon="1.85742">
        <ele>660.1</ele>
        <time>2022-08-02T13:41:13Z</time>
      </trkpt>
      <trkpt lat="45.78115" lon="1.85738">
        <ele>660.3</ele>
        <time>2022-08-02T13:41:15Z</time>
      </trkpt>
      <trkpt lat="45.78118" lon="1.85734">
        <ele>660.7</ele>
        <time>2022-08-02T13:41:17Z</time>
      </trkpt>
      <trkpt lat="45.7812" lon="1.8573">
        <ele>660.9</ele>
        <time>2022-08-02T13:41:19Z</time>
      </trkpt>
      <trkpt lat="45.78121" lon="1.85726">
        <ele>661</ele>
        <time>2022-08-02T13:41:21Z</time>
      </trkpt>
      <trkpt lat="45.78121" lon="1.85723">
        <ele>660.9</ele>
        <time>2022-08-02T13:41:23Z</time>
      </trkpt>
      <trkpt lat="45.78122" lon="1.85724">
        <ele>661</ele>
        <time>2022-08-02T13:41:25Z</time>
      </trkpt>
      <trkpt lat="45.78122" lon="1.85724">
        <ele>661</ele>
        <time>2022-08-02T13:41:27Z</time>
      </trkpt>
      <trkpt lat="45.78122" lon="1.85722">
        <ele>660.9</ele>
        <time>2022-08-02T13:41:29Z</time>
      </trkpt>
      <trkpt lat="45.78122" lon="1.8572">
        <ele>661</ele>
        <time>2022-08-02T13:41:31Z</time>
      </trkpt>
      <trkpt lat="45.78122" lon="1.85718">
        <ele>660.8</ele>
        <time>2022-08-02T13:41:33Z</time>
      </trkpt>
      <trkpt lat="45.78126" lon="1.85691">
        <ele>660.4</ele>
        <time>2022-08-02T13:42:15Z</time>
      </trkpt>
      <trkpt lat="45.78127" lon="1.85687">
        <ele>660.6</ele>
        <time>2022-08-02T13:42:17Z</time>
      </trkpt>
      <trkpt lat="45.7813" lon="1.85683">
        <ele>660.7</ele>
        <time>2022-08-02T13:42:19Z</time>
      </trkpt>
      <trkpt lat="45.78132" lon="1.85679">
        <ele>660.9</ele>
        <time>2022-08-02T13:42:21Z</time>
      </trkpt>
      <trkpt lat="45.78134" lon="1.85675">
        <ele>661</ele>
        <time>2022-08-02T13:42:23Z</time>
      </trkpt>
      <trkpt lat="45.78136" lon="1.85672">
        <ele>661.1</ele>
        <time>2022-08-02T13:42:25Z</time>
      </trkpt>
      <trkpt lat="45.78138" lon="1.85666">
        <ele>661.2</ele>
        <time>2022-08-02T13:42:27Z</time>
      </trkpt>
      <trkpt lat="45.78143" lon="1.85662">
        <ele>661.5</ele>
        <time>2022-08-02T13:42:29Z</time>
      </trkpt>
      <trkpt lat="45.78147" lon="1.85659">
        <ele>661.7</ele>
        <time>2022-08-02T13:42:31Z</time>
      </trkpt>
      <trkpt lat="45.7815" lon="1.85656">
        <ele>661.8</ele>
        <time>2022-08-02T13:42:33Z</time>
      </trkpt>
      <trkpt lat="45.78153" lon="1.85652">
        <ele>661.9</ele>
        <time>2022-08-02T13:42:35Z</time>
      </trkpt>
      <trkpt lat="45.78155" lon="1.85647">
        <ele>661.6</ele>
        <time>2022-08-02T13:42:37Z</time>
      </trkpt>
      <trkpt lat="45.78157" lon="1.85642">
        <ele>661.4</ele>
        <time>2022-08-02T13:42:39Z</time>
      </trkpt>
      <trkpt lat="45.78159" lon="1.85636">
        <ele>661.1</ele>
        <time>2022-08-02T13:42:41Z</time>
      </trkpt>
      <trkpt lat="45.78162" lon="1.8563">
        <ele>660.9</ele>
        <time>2022-08-02T13:42:43Z</time>
      </trkpt>
      <trkpt lat="45.78167" lon="1.85626">
        <ele>661.2</ele>
        <time>2022-08-02T13:42:45Z</time>
      </trkpt>
      <trkpt lat="45.78169" lon="1.85619">
        <ele>660.6</ele>
        <time>2022-08-02T13:42:47Z</time>
      </trkpt>
      <trkpt lat="45.78172" lon="1.85613">
        <ele>660.2</ele>
        <time>2022-08-02T13:42:49Z</time>
      </trkpt>
      <trkpt lat="45.78172" lon="1.85607">
        <ele>659.5</ele>
        <time>2022-08-02T13:42:51Z</time>
      </trkpt>
      <trkpt lat="45.78176" lon="1.85604">
        <ele>659.4</ele>
        <time>2022-08-02T13:42:53Z</time>
      </trkpt>
      <trkpt lat="45.78178" lon="1.85599">
        <ele>659</ele>
        <time>2022-08-02T13:42:55Z</time>
      </trkpt>
      <trkpt lat="45.78182" lon="1.85596">
        <ele>658.9</ele>
        <time>2022-08-02T13:42:57Z</time>
      </trkpt>
      <trkpt lat="45.78186" lon="1.85596">
        <ele>659.1</ele>
        <time>2022-08-02T13:42:59Z</time>
      </trkpt>
      <trkpt lat="45.78188" lon="1.85597">
        <ele>659.3</ele>
        <time>2022-08-02T13:43:01Z</time>
      </trkpt>
      <trkpt lat="45.78191" lon="1.85597">
        <ele>659.4</ele>
        <time>2022-08-02T13:43:03Z</time>
      </trkpt>
      <trkpt lat="45.78193" lon="1.85596">
        <ele>659.4</ele>
        <time>2022-08-02T13:43:05Z</time>
      </trkpt>
      <trkpt lat="45.78192" lon="1.85596">
        <ele>659.4</ele>
        <time>2022-08-02T13:43:07Z</time>
      </trkpt>
      <trkpt lat="45.78193" lon="1.85596">
        <ele>659.5</ele>
        <time>2022-08-02T13:43:09Z</time>
      </trkpt>
      <trkpt lat="45.78193" lon="1.85597">
        <ele>659.5</ele>
        <time>2022-08-02T13:43:11Z</time>
      </trkpt>
      <trkpt lat="45.782" lon="1.85584">
        <ele>658.3</ele>
        <time>2022-08-02T13:43:21Z</time>
      </trkpt>
      <trkpt lat="45.78205" lon="1.85582">
        <ele>658.2</ele>
        <time>2022-08-02T13:43:23Z</time>
      </trkpt>
      <trkpt lat="45.78211" lon="1.85581">
        <ele>658.3</ele>
        <time>2022-08-02T13:43:25Z</time>
      </trkpt>
      <trkpt lat="45.78216" lon="1.85583">
        <ele>658.7</ele>
        <time>2022-08-02T13:43:27Z</time>
      </trkpt>
      <trkpt lat="45.78221" lon="1.85585">
        <ele>659.2</ele>
        <time>2022-08-02T13:43:29Z</time>
      </trkpt>
      <trkpt lat="45.78226" lon="1.85588">
        <ele>659.8</ele>
        <time>2022-08-02T13:43:31Z</time>
      </trkpt>
      <trkpt lat="45.78232" lon="1.8559">
        <ele>660.2</ele>
        <time>2022-08-02T13:43:33Z</time>
      </trkpt>
      <trkpt lat="45.78237" lon="1.8559">
        <ele>660.5</ele>
        <time>2022-08-02T13:43:35Z</time>
      </trkpt>
      <trkpt lat="45.7824" lon="1.85591">
        <ele>660.9</ele>
        <time>2022-08-02T13:43:37Z</time>
      </trkpt>
      <trkpt lat="45.78245" lon="1.8559">
        <ele>660.9</ele>
        <time>2022-08-02T13:43:39Z</time>
      </trkpt>
      <trkpt lat="45.78248" lon="1.85586">
        <ele>660.4</ele>
        <time>2022-08-02T13:43:41Z</time>
      </trkpt>
      <trkpt lat="45.78255" lon="1.85585">
        <ele>660.8</ele>
        <time>2022-08-02T13:43:43Z</time>
      </trkpt>
      <trkpt lat="45.78259" lon="1.85584">
        <ele>661.2</ele>
        <time>2022-08-02T13:43:45Z</time>
      </trkpt>
      <trkpt lat="45.78263" lon="1.85579">
        <ele>661</ele>
        <time>2022-08-02T13:43:47Z</time>
      </trkpt>
      <trkpt lat="45.78268" lon="1.85577">
        <ele>661.3</ele>
        <time>2022-08-02T13:43:49Z</time>
      </trkpt>
      <trkpt lat="45.78273" lon="1.85573">
        <ele>661.3</ele>
        <time>2022-08-02T13:43:51Z</time>
      </trkpt>
      <trkpt lat="45.78278" lon="1.85575">
        <ele>662.3</ele>
        <time>2022-08-02T13:43:53Z</time>
      </trkpt>
      <trkpt lat="45.78281" lon="1.85574">
        <ele>662.5</ele>
        <time>2022-08-02T13:43:55Z</time>
      </trkpt>
      <trkpt lat="45.78284" lon="1.85571">
        <ele>662.6</ele>
        <time>2022-08-02T13:43:57Z</time>
      </trkpt>
      <trkpt lat="45.78286" lon="1.85571">
        <ele>662.8</ele>
        <time>2022-08-02T13:43:59Z</time>
      </trkpt>
      <trkpt lat="45.78289" lon="1.8557">
        <ele>663</ele>
        <time>2022-08-02T13:44:01Z</time>
      </trkpt>
      <trkpt lat="45.78292" lon="1.85567">
        <ele>663</ele>
        <time>2022-08-02T13:44:03Z</time>
      </trkpt>
      <trkpt lat="45.78294" lon="1.85566">
        <ele>663.1</ele>
        <time>2022-08-02T13:44:05Z</time>
      </trkpt>
      <trkpt lat="45.78297" lon="1.85561">
        <ele>663</ele>
        <time>2022-08-02T13:44:07Z</time>
      </trkpt>
      <trkpt lat="45.78304" lon="1.85557">
        <ele>663.5</ele>
        <time>2022-08-02T13:44:09Z</time>
      </trkpt>
      <trkpt lat="45.78308" lon="1.85555">
        <ele>663.8</ele>
        <time>2022-08-02T13:44:10Z</time>
      </trkpt>
      <trkpt lat="45.78314" lon="1.85549">
        <ele>663.9</ele>
        <time>2022-08-02T13:44:13Z</time>
      </trkpt>
      <trkpt lat="45.78316" lon="1.85546">
        <ele>663.9</ele>
        <time>2022-08-02T13:44:15Z</time>
      </trkpt>
      <trkpt lat="45.78317" lon="1.85539">
        <ele>663.4</ele>
        <time>2022-08-02T13:44:17Z</time>
      </trkpt>
      <trkpt lat="45.7832" lon="1.8553">
        <ele>662.9</ele>
        <time>2022-08-02T13:44:19Z</time>
      </trkpt>
      <trkpt lat="45.78322" lon="1.85528">
        <ele>662.9</ele>
        <time>2022-08-02T13:44:21Z</time>
      </trkpt>
      <trkpt lat="45.78324" lon="1.85519">
        <ele>662.5</ele>
        <time>2022-08-02T13:44:23Z</time>
      </trkpt>
      <trkpt lat="45.78327" lon="1.85511">
        <ele>662.1</ele>
        <time>2022-08-02T13:44:25Z</time>
      </trkpt>
      <trkpt lat="45.78329" lon="1.85505">
        <ele>661.7</ele>
        <time>2022-08-02T13:44:27Z</time>
      </trkpt>
      <trkpt lat="45.78331" lon="1.85499">
        <ele>661.5</ele>
        <time>2022-08-02T13:44:29Z</time>
      </trkpt>
      <trkpt lat="45.78332" lon="1.85492">
        <ele>660.5</ele>
        <time>2022-08-02T13:44:31Z</time>
      </trkpt>
      <trkpt lat="45.78333" lon="1.85486">
        <ele>659.6</ele>
        <time>2022-08-02T13:44:33Z</time>
      </trkpt>
      <trkpt lat="45.78337" lon="1.85482">
        <ele>659.4</ele>
        <time>2022-08-02T13:44:35Z</time>
      </trkpt>
      <trkpt lat="45.78337" lon="1.85476">
        <ele>658.6</ele>
        <time>2022-08-02T13:44:37Z</time>
      </trkpt>
      <trkpt lat="45.78337" lon="1.85477">
        <ele>658.7</ele>
        <time>2022-08-02T13:44:39Z</time>
      </trkpt>
      <trkpt lat="45.78337" lon="1.85477">
        <ele>658.7</ele>
        <time>2022-08-02T13:44:41Z</time>
      </trkpt>
      <trkpt lat="45.78337" lon="1.85477">
        <ele>658.7</ele>
        <time>2022-08-02T13:44:43Z</time>
      </trkpt>
      <trkpt lat="45.78337" lon="1.85477">
        <ele>658.7</ele>
        <time>2022-08-02T13:44:45Z</time>
      </trkpt>
      <trkpt lat="45.78337" lon="1.85476">
        <ele>658.6</ele>
        <time>2022-08-02T13:44:47Z</time>
      </trkpt>
      <trkpt lat="45.78347" lon="1.85454">
        <ele>656.4</ele>
        <time>2022-08-02T13:45:35Z</time>
      </trkpt>
      <trkpt lat="45.78348" lon="1.85449">
        <ele>655.8</ele>
        <time>2022-08-02T13:45:37Z</time>
      </trkpt>
      <trkpt lat="45.78351" lon="1.85442">
        <ele>655.1</ele>
        <time>2022-08-02T13:45:39Z</time>
      </trkpt>
      <trkpt lat="45.78354" lon="1.85436">
        <ele>654.5</ele>
        <time>2022-08-02T13:45:41Z</time>
      </trkpt>
      <trkpt lat="45.78357" lon="1.85431">
        <ele>654.3</ele>
        <time>2022-08-02T13:45:43Z</time>
      </trkpt>
      <trkpt lat="45.78359" lon="1.85427">
        <ele>654</ele>
        <time>2022-08-02T13:45:45Z</time>
      </trkpt>
      <trkpt lat="45.78359" lon="1.85425">
        <ele>653.6</ele>
        <time>2022-08-02T13:45:47Z</time>
      </trkpt>
      <trkpt lat="45.78361" lon="1.85418">
        <ele>652.9</ele>
        <time>2022-08-02T13:45:49Z</time>
      </trkpt>
      <trkpt lat="45.78367" lon="1.85416">
        <ele>653.6</ele>
        <time>2022-08-02T13:45:51Z</time>
      </trkpt>
      <trkpt lat="45.78367" lon="1.85415">
        <ele>653.5</ele>
        <time>2022-08-02T13:45:53Z</time>
      </trkpt>
      <trkpt lat="45.78368" lon="1.85407">
        <ele>653.2</ele>
        <time>2022-08-02T13:45:55Z</time>
      </trkpt>
      <trkpt lat="45.7837" lon="1.85404">
        <ele>653.2</ele>
        <time>2022-08-02T13:45:57Z</time>
      </trkpt>
      <trkpt lat="45.78374" lon="1.85399">
        <ele>653.5</ele>
        <time>2022-08-02T13:45:59Z</time>
      </trkpt>
      <trkpt lat="45.78379" lon="1.85398">
        <ele>654</ele>
        <time>2022-08-02T13:46:01Z</time>
      </trkpt>
      <trkpt lat="45.78383" lon="1.85396">
        <ele>654.2</ele>
        <time>2022-08-02T13:46:03Z</time>
      </trkpt>
      <trkpt lat="45.78386" lon="1.85397">
        <ele>654.7</ele>
        <time>2022-08-02T13:46:05Z</time>
      </trkpt>
      <trkpt lat="45.78389" lon="1.85397">
        <ele>655.2</ele>
        <time>2022-08-02T13:46:07Z</time>
      </trkpt>
      <trkpt lat="45.78391" lon="1.85395">
        <ele>655.1</ele>
        <time>2022-08-02T13:46:09Z</time>
      </trkpt>
      <trkpt lat="45.78395" lon="1.85396">
        <ele>655.8</ele>
        <time>2022-08-02T13:46:11Z</time>
      </trkpt>
      <trkpt lat="45.78399" lon="1.854">
        <ele>656.8</ele>
        <time>2022-08-02T13:46:13Z</time>
      </trkpt>
      <trkpt lat="45.78403" lon="1.85402">
        <ele>657.6</ele>
        <time>2022-08-02T13:46:15Z</time>
      </trkpt>
      <trkpt lat="45.78405" lon="1.85402">
        <ele>657.9</ele>
        <time>2022-08-02T13:46:17Z</time>
      </trkpt>
      <trkpt lat="45.78408" lon="1.85404">
        <ele>658.6</ele>
        <time>2022-08-02T13:46:19Z</time>
      </trkpt>
      <trkpt lat="45.78412" lon="1.85403">
        <ele>659.1</ele>
        <time>2022-08-02T13:46:21Z</time>
      </trkpt>
      <trkpt lat="45.78417" lon="1.85403">
        <ele>659.7</ele>
        <time>2022-08-02T13:46:23Z</time>
      </trkpt>
      <trkpt lat="45.78421" lon="1.85403">
        <ele>659.8</ele>
        <time>2022-08-02T13:46:25Z</time>
      </trkpt>
      <trkpt lat="45.78426" lon="1.85402">
        <ele>659.7</ele>
        <time>2022-08-02T13:46:27Z</time>
      </trkpt>
      <trkpt lat="45.78431" lon="1.85403">
        <ele>659.9</ele>
        <time>2022-08-02T13:46:29Z</time>
      </trkpt>
      <trkpt lat="45.78435" lon="1.85401">
        <ele>659.8</ele>
        <time>2022-08-02T13:46:31Z</time>
      </trkpt>
      <trkpt lat="45.78439" lon="1.85399">
        <ele>659.5</ele>
        <time>2022-08-02T13:46:33Z</time>
      </trkpt>
      <trkpt lat="45.78442" lon="1.85397">
        <ele>659.1</ele>
        <time>2022-08-02T13:46:35Z</time>
      </trkpt>
      <trkpt lat="45.78446" lon="1.85392">
        <ele>658.3</ele>
        <time>2022-08-02T13:46:37Z</time>
      </trkpt>
      <trkpt lat="45.7845" lon="1.8539">
        <ele>658</ele>
        <time>2022-08-02T13:46:39Z</time>
      </trkpt>
      <trkpt lat="45.78455" lon="1.85389">
        <ele>658</ele>
        <time>2022-08-02T13:46:41Z</time>
      </trkpt>
      <trkpt lat="45.78459" lon="1.8539">
        <ele>658.2</ele>
        <time>2022-08-02T13:46:43Z</time>
      </trkpt>
      <trkpt lat="45.78462" lon="1.85388">
        <ele>657.9</ele>
        <time>2022-08-02T13:46:45Z</time>
      </trkpt>
      <trkpt lat="45.78466" lon="1.85386">
        <ele>657.6</ele>
        <time>2022-08-02T13:46:47Z</time>
      </trkpt>
      <trkpt lat="45.7847" lon="1.85385">
        <ele>657.4</ele>
        <time>2022-08-02T13:46:49Z</time>
      </trkpt>
      <trkpt lat="45.78472" lon="1.85384">
        <ele>657.4</ele>
        <time>2022-08-02T13:46:50Z</time>
      </trkpt>
      <trkpt lat="45.78478" lon="1.85382">
        <ele>657</ele>
        <time>2022-08-02T13:46:53Z</time>
      </trkpt>
      <trkpt lat="45.78482" lon="1.85381">
        <ele>657</ele>
        <time>2022-08-02T13:46:55Z</time>
      </trkpt>
      <trkpt lat="45.78484" lon="1.85383">
        <ele>657.3</ele>
        <time>2022-08-02T13:46:57Z</time>
      </trkpt>
      <trkpt lat="45.78488" lon="1.85385">
        <ele>657.8</ele>
        <time>2022-08-02T13:46:59Z</time>
      </trkpt>
      <trkpt lat="45.78492" lon="1.85386">
        <ele>658</ele>
        <time>2022-08-02T13:47:01Z</time>
      </trkpt>
      <trkpt lat="45.78495" lon="1.85386">
        <ele>658</ele>
        <time>2022-08-02T13:47:03Z</time>
      </trkpt>
      <trkpt lat="45.78498" lon="1.85388">
        <ele>658.4</ele>
        <time>2022-08-02T13:47:05Z</time>
      </trkpt>
      <trkpt lat="45.785" lon="1.85389">
        <ele>658.6</ele>
        <time>2022-08-02T13:47:07Z</time>
      </trkpt>
      <trkpt lat="45.78504" lon="1.85391">
        <ele>658.6</ele>
        <time>2022-08-02T13:47:09Z</time>
      </trkpt>
      <trkpt lat="45.78504" lon="1.85395">
        <ele>659.4</ele>
        <time>2022-08-02T13:47:11Z</time>
      </trkpt>
      <trkpt lat="45.78506" lon="1.85398">
        <ele>659.5</ele>
        <time>2022-08-02T13:47:13Z</time>
      </trkpt>
      <trkpt lat="45.7851" lon="1.85399">
        <ele>659.1</ele>
        <time>2022-08-02T13:47:15Z</time>
      </trkpt>
      <trkpt lat="45.78512" lon="1.85398">
        <ele>658.6</ele>
        <time>2022-08-02T13:47:17Z</time>
      </trkpt>
      <trkpt lat="45.78516" lon="1.85397">
        <ele>657.9</ele>
        <time>2022-08-02T13:47:19Z</time>
      </trkpt>
      <trkpt lat="45.78521" lon="1.85398">
        <ele>657.3</ele>
        <time>2022-08-02T13:47:21Z</time>
      </trkpt>
      <trkpt lat="45.78523" lon="1.85399">
        <ele>657.2</ele>
        <time>2022-08-02T13:47:23Z</time>
      </trkpt>
      <trkpt lat="45.78527" lon="1.85401">
        <ele>656.9</ele>
        <time>2022-08-02T13:47:25Z</time>
      </trkpt>
      <trkpt lat="45.78533" lon="1.85408">
        <ele>656.7</ele>
        <time>2022-08-02T13:47:27Z</time>
      </trkpt>
      <trkpt lat="45.78536" lon="1.8541">
        <ele>656.5</ele>
        <time>2022-08-02T13:47:29Z</time>
      </trkpt>
      <trkpt lat="45.78537" lon="1.85411">
        <ele>656.2</ele>
        <time>2022-08-02T13:47:31Z</time>
      </trkpt>
      <trkpt lat="45.78537" lon="1.8541">
        <ele>656.2</ele>
        <time>2022-08-02T13:47:33Z</time>
      </trkpt>
      <trkpt lat="45.78539" lon="1.85412">
        <ele>656.1</ele>
        <time>2022-08-02T13:47:37Z</time>
      </trkpt>
      <trkpt lat="45.78539" lon="1.85412">
        <ele>656.1</ele>
        <time>2022-08-02T13:47:39Z</time>
      </trkpt>
      <trkpt lat="45.78561" lon="1.85423">
        <ele>653.4</ele>
        <time>2022-08-02T13:48:05Z</time>
      </trkpt>
      <trkpt lat="45.78566" lon="1.85423">
        <ele>652.6</ele>
        <time>2022-08-02T13:48:07Z</time>
      </trkpt>
      <trkpt lat="45.78568" lon="1.85423">
        <ele>652.2</ele>
        <time>2022-08-02T13:48:09Z</time>
      </trkpt>
      <trkpt lat="45.78574" lon="1.85426">
        <ele>651.7</ele>
        <time>2022-08-02T13:48:11Z</time>
      </trkpt>
      <trkpt lat="45.78579" lon="1.85427">
        <ele>651</ele>
        <time>2022-08-02T13:48:13Z</time>
      </trkpt>
      <trkpt lat="45.78584" lon="1.85427">
        <ele>650.3</ele>
        <time>2022-08-02T13:48:15Z</time>
      </trkpt>
      <trkpt lat="45.78588" lon="1.85428">
        <ele>650.4</ele>
        <time>2022-08-02T13:48:17Z</time>
      </trkpt>
      <trkpt lat="45.78593" lon="1.85431">
        <ele>650.8</ele>
        <time>2022-08-02T13:48:19Z</time>
      </trkpt>
      <trkpt lat="45.78597" lon="1.85432">
        <ele>650.8</ele>
        <time>2022-08-02T13:48:21Z</time>
      </trkpt>
      <trkpt lat="45.78599" lon="1.85433">
        <ele>650.8</ele>
        <time>2022-08-02T13:48:22Z</time>
      </trkpt>
      <trkpt lat="45.78602" lon="1.85436">
        <ele>651.2</ele>
        <time>2022-08-02T13:48:24Z</time>
      </trkpt>
      <trkpt lat="45.78605" lon="1.85439">
        <ele>651.6</ele>
        <time>2022-08-02T13:48:26Z</time>
      </trkpt>
      <trkpt lat="45.78608" lon="1.85443">
        <ele>651.9</ele>
        <time>2022-08-02T13:48:28Z</time>
      </trkpt>
      <trkpt lat="45.78611" lon="1.85446">
        <ele>652.2</ele>
        <time>2022-08-02T13:48:30Z</time>
      </trkpt>
      <trkpt lat="45.78615" lon="1.85447">
        <ele>652.1</ele>
        <time>2022-08-02T13:48:32Z</time>
      </trkpt>
      <trkpt lat="45.78619" lon="1.85451">
        <ele>652.3</ele>
        <time>2022-08-02T13:48:34Z</time>
      </trkpt>
      <trkpt lat="45.78626" lon="1.85456">
        <ele>652.1</ele>
        <time>2022-08-02T13:48:37Z</time>
      </trkpt>
      <trkpt lat="45.78629" lon="1.85461">
        <ele>652.3</ele>
        <time>2022-08-02T13:48:39Z</time>
      </trkpt>
      <trkpt lat="45.78632" lon="1.85464">
        <ele>652.2</ele>
        <time>2022-08-02T13:48:41Z</time>
      </trkpt>
      <trkpt lat="45.78633" lon="1.85466">
        <ele>652.3</ele>
        <time>2022-08-02T13:48:43Z</time>
      </trkpt>
      <trkpt lat="45.78636" lon="1.8547">
        <ele>652.3</ele>
        <time>2022-08-02T13:48:45Z</time>
      </trkpt>
      <trkpt lat="45.78638" lon="1.85472">
        <ele>652.1</ele>
        <time>2022-08-02T13:48:47Z</time>
      </trkpt>
      <trkpt lat="45.78641" lon="1.85476">
        <ele>651.9</ele>
        <time>2022-08-02T13:48:49Z</time>
      </trkpt>
      <trkpt lat="45.78643" lon="1.8548">
        <ele>651.9</ele>
        <time>2022-08-02T13:48:51Z</time>
      </trkpt>
      <trkpt lat="45.78643" lon="1.85484">
        <ele>652.1</ele>
        <time>2022-08-02T13:48:53Z</time>
      </trkpt>
      <trkpt lat="45.78643" lon="1.8549">
        <ele>652.5</ele>
        <time>2022-08-02T13:48:55Z</time>
      </trkpt>
      <trkpt lat="45.78643" lon="1.85489">
        <ele>652.5</ele>
        <time>2022-08-02T13:48:57Z</time>
      </trkpt>
      <trkpt lat="45.78643" lon="1.8549">
        <ele>652.5</ele>
        <time>2022-08-02T13:48:59Z</time>
      </trkpt>
      <trkpt lat="45.78643" lon="1.85491">
        <ele>652.6</ele>
        <time>2022-08-02T13:49:01Z</time>
      </trkpt>
      <trkpt lat="45.78643" lon="1.85491">
        <ele>652.7</ele>
        <time>2022-08-02T13:49:03Z</time>
      </trkpt>
      <trkpt lat="45.78644" lon="1.85492">
        <ele>652.5</ele>
        <time>2022-08-02T13:49:05Z</time>
      </trkpt>
      <trkpt lat="45.78645" lon="1.85495">
        <ele>652.4</ele>
        <time>2022-08-02T13:49:07Z</time>
      </trkpt>
      <trkpt lat="45.78647" lon="1.85499">
        <ele>652.2</ele>
        <time>2022-08-02T13:49:09Z</time>
      </trkpt>
      <trkpt lat="45.78647" lon="1.85503">
        <ele>652.3</ele>
        <time>2022-08-02T13:49:11Z</time>
      </trkpt>
      <trkpt lat="45.78647" lon="1.85503">
        <ele>652.3</ele>
        <time>2022-08-02T13:49:13Z</time>
      </trkpt>
      <trkpt lat="45.78647" lon="1.85503">
        <ele>652.3</ele>
        <time>2022-08-02T13:49:15Z</time>
      </trkpt>
      <trkpt lat="45.78647" lon="1.85503">
        <ele>652.3</ele>
        <time>2022-08-02T13:49:17Z</time>
      </trkpt>
      <trkpt lat="45.78647" lon="1.85503">
        <ele>652.3</ele>
        <time>2022-08-02T13:49:21Z</time>
      </trkpt>
      <trkpt lat="45.78648" lon="1.85525">
        <ele>652.6</ele>
        <time>2022-08-02T13:50:35Z</time>
      </trkpt>
      <trkpt lat="45.78648" lon="1.85528">
        <ele>652.7</ele>
        <time>2022-08-02T13:50:37Z</time>
      </trkpt>
      <trkpt lat="45.78647" lon="1.85533">
        <ele>653</ele>
        <time>2022-08-02T13:50:39Z</time>
      </trkpt>
      <trkpt lat="45.78647" lon="1.85536">
        <ele>653</ele>
        <time>2022-08-02T13:50:41Z</time>
      </trkpt>
      <trkpt lat="45.78647" lon="1.85541">
        <ele>653.3</ele>
        <time>2022-08-02T13:50:43Z</time>
      </trkpt>
      <trkpt lat="45.78646" lon="1.85546">
        <ele>653.6</ele>
        <time>2022-08-02T13:50:45Z</time>
      </trkpt>
      <trkpt lat="45.78646" lon="1.8555">
        <ele>653.9</ele>
        <time>2022-08-02T13:50:47Z</time>
      </trkpt>
      <trkpt lat="45.78645" lon="1.85555">
        <ele>654.1</ele>
        <time>2022-08-02T13:50:49Z</time>
      </trkpt>
      <trkpt lat="45.78647" lon="1.8556">
        <ele>653.8</ele>
        <time>2022-08-02T13:50:51Z</time>
      </trkpt>
      <trkpt lat="45.7865" lon="1.85566">
        <ele>653.1</ele>
        <time>2022-08-02T13:50:53Z</time>
      </trkpt>
      <trkpt lat="45.78647" lon="1.85576">
        <ele>654.1</ele>
        <time>2022-08-02T13:50:55Z</time>
      </trkpt>
      <trkpt lat="45.78644" lon="1.85582">
        <ele>655.2</ele>
        <time>2022-08-02T13:50:57Z</time>
      </trkpt>
      <trkpt lat="45.78643" lon="1.85588">
        <ele>655.7</ele>
        <time>2022-08-02T13:50:59Z</time>
      </trkpt>
      <trkpt lat="45.78643" lon="1.85591">
        <ele>655.7</ele>
        <time>2022-08-02T13:51:01Z</time>
      </trkpt>
      <trkpt lat="45.78644" lon="1.85597">
        <ele>655.5</ele>
        <time>2022-08-02T13:51:03Z</time>
      </trkpt>
      <trkpt lat="45.78645" lon="1.85602">
        <ele>655.3</ele>
        <time>2022-08-02T13:51:05Z</time>
      </trkpt>
      <trkpt lat="45.78645" lon="1.8561">
        <ele>655.5</ele>
        <time>2022-08-02T13:51:07Z</time>
      </trkpt>
      <trkpt lat="45.78642" lon="1.85615">
        <ele>656.4</ele>
        <time>2022-08-02T13:51:09Z</time>
      </trkpt>
      <trkpt lat="45.78641" lon="1.85617">
        <ele>657</ele>
        <time>2022-08-02T13:51:11Z</time>
      </trkpt>
      <trkpt lat="45.78639" lon="1.8562">
        <ele>657.6</ele>
        <time>2022-08-02T13:51:13Z</time>
      </trkpt>
      <trkpt lat="45.78639" lon="1.85624">
        <ele>657.7</ele>
        <time>2022-08-02T13:51:15Z</time>
      </trkpt>
      <trkpt lat="45.78639" lon="1.85628">
        <ele>657.9</ele>
        <time>2022-08-02T13:51:17Z</time>
      </trkpt>
      <trkpt lat="45.78639" lon="1.85633">
        <ele>658</ele>
        <time>2022-08-02T13:51:19Z</time>
      </trkpt>
      <trkpt lat="45.78639" lon="1.85642">
        <ele>657.9</ele>
        <time>2022-08-02T13:51:21Z</time>
      </trkpt>
      <trkpt lat="45.78639" lon="1.85651">
        <ele>658.3</ele>
        <time>2022-08-02T13:51:23Z</time>
      </trkpt>
      <trkpt lat="45.78638" lon="1.85661">
        <ele>658.8</ele>
        <time>2022-08-02T13:51:25Z</time>
      </trkpt>
      <trkpt lat="45.78635" lon="1.85667">
        <ele>660.2</ele>
        <time>2022-08-02T13:51:27Z</time>
      </trkpt>
      <trkpt lat="45.78633" lon="1.85669">
        <ele>660.6</ele>
        <time>2022-08-02T13:51:29Z</time>
      </trkpt>
      <trkpt lat="45.78631" lon="1.85675">
        <ele>661</ele>
        <time>2022-08-02T13:51:31Z</time>
      </trkpt>
      <trkpt lat="45.7863" lon="1.85681">
        <ele>661.1</ele>
        <time>2022-08-02T13:51:33Z</time>
      </trkpt>
      <trkpt lat="45.78629" lon="1.85687">
        <ele>661</ele>
        <time>2022-08-02T13:51:35Z</time>
      </trkpt>
      <trkpt lat="45.78627" lon="1.85695">
        <ele>661.2</ele>
        <time>2022-08-02T13:51:37Z</time>
      </trkpt>
      <trkpt lat="45.78626" lon="1.85699">
        <ele>661.1</ele>
        <time>2022-08-02T13:51:39Z</time>
      </trkpt>
      <trkpt lat="45.78625" lon="1.85705">
        <ele>661</ele>
        <time>2022-08-02T13:51:41Z</time>
      </trkpt>
      <trkpt lat="45.78625" lon="1.85711">
        <ele>660.7</ele>
        <time>2022-08-02T13:51:43Z</time>
      </trkpt>
      <trkpt lat="45.78624" lon="1.85717">
        <ele>660.3</ele>
        <time>2022-08-02T13:51:45Z</time>
      </trkpt>
      <trkpt lat="45.78622" lon="1.85726">
        <ele>660.3</ele>
        <time>2022-08-02T13:51:47Z</time>
      </trkpt>
      <trkpt lat="45.7862" lon="1.85728">
        <ele>660.5</ele>
        <time>2022-08-02T13:51:49Z</time>
      </trkpt>
      <trkpt lat="45.78619" lon="1.85735">
        <ele>660.3</ele>
        <time>2022-08-02T13:51:51Z</time>
      </trkpt>
      <trkpt lat="45.78617" lon="1.85741">
        <ele>660.1</ele>
        <time>2022-08-02T13:51:53Z</time>
      </trkpt>
      <trkpt lat="45.78616" lon="1.85746">
        <ele>660</ele>
        <time>2022-08-02T13:51:55Z</time>
      </trkpt>
      <trkpt lat="45.78615" lon="1.85749">
        <ele>660</ele>
        <time>2022-08-02T13:51:57Z</time>
      </trkpt>
      <trkpt lat="45.78614" lon="1.85754">
        <ele>659.5</ele>
        <time>2022-08-02T13:51:59Z</time>
      </trkpt>
      <trkpt lat="45.78611" lon="1.85759">
        <ele>659.4</ele>
        <time>2022-08-02T13:52:01Z</time>
      </trkpt>
      <trkpt lat="45.78608" lon="1.85763">
        <ele>659.2</ele>
        <time>2022-08-02T13:52:03Z</time>
      </trkpt>
      <trkpt lat="45.78604" lon="1.85765">
        <ele>659.7</ele>
        <time>2022-08-02T13:52:05Z</time>
      </trkpt>
      <trkpt lat="45.78603" lon="1.85769">
        <ele>659.3</ele>
        <time>2022-08-02T13:52:07Z</time>
      </trkpt>
      <trkpt lat="45.78597" lon="1.85775">
        <ele>659</ele>
        <time>2022-08-02T13:52:09Z</time>
      </trkpt>
      <trkpt lat="45.78589" lon="1.85778">
        <ele>659.7</ele>
        <time>2022-08-02T13:52:11Z</time>
      </trkpt>
      <trkpt lat="45.78588" lon="1.8578">
        <ele>659.6</ele>
        <time>2022-08-02T13:52:13Z</time>
      </trkpt>
      <trkpt lat="45.78585" lon="1.85781">
        <ele>659.9</ele>
        <time>2022-08-02T13:52:15Z</time>
      </trkpt>
      <trkpt lat="45.78582" lon="1.85783">
        <ele>659.4</ele>
        <time>2022-08-02T13:52:17Z</time>
      </trkpt>
      <trkpt lat="45.7858" lon="1.85786">
        <ele>659</ele>
        <time>2022-08-02T13:52:19Z</time>
      </trkpt>
      <trkpt lat="45.78572" lon="1.85795">
        <ele>657.7</ele>
        <time>2022-08-02T13:52:21Z</time>
      </trkpt>
      <trkpt lat="45.78567" lon="1.85794">
        <ele>658.2</ele>
        <time>2022-08-02T13:52:23Z</time>
      </trkpt>
      <trkpt lat="45.78564" lon="1.85796">
        <ele>658.1</ele>
        <time>2022-08-02T13:52:25Z</time>
      </trkpt>
      <trkpt lat="45.78561" lon="1.85796">
        <ele>658.2</ele>
        <time>2022-08-02T13:52:27Z</time>
      </trkpt>
      <trkpt lat="45.78555" lon="1.85802">
        <ele>657.5</ele>
        <time>2022-08-02T13:52:29Z</time>
      </trkpt>
      <trkpt lat="45.78547" lon="1.85802">
        <ele>658.2</ele>
        <time>2022-08-02T13:52:31Z</time>
      </trkpt>
      <trkpt lat="45.78543" lon="1.858">
        <ele>658.8</ele>
        <time>2022-08-02T13:52:33Z</time>
      </trkpt>
      <trkpt lat="45.78536" lon="1.85797">
        <ele>660</ele>
        <time>2022-08-02T13:52:35Z</time>
      </trkpt>
      <trkpt lat="45.78529" lon="1.85798">
        <ele>660.4</ele>
        <time>2022-08-02T13:52:37Z</time>
      </trkpt>
      <trkpt lat="45.78524" lon="1.85793">
        <ele>661.9</ele>
        <time>2022-08-02T13:52:39Z</time>
      </trkpt>
      <trkpt lat="45.78521" lon="1.85789">
        <ele>663</ele>
        <time>2022-08-02T13:52:41Z</time>
      </trkpt>
      <trkpt lat="45.78515" lon="1.85787">
        <ele>663.9</ele>
        <time>2022-08-02T13:52:43Z</time>
      </trkpt>
      <trkpt lat="45.78509" lon="1.85786">
        <ele>664.5</ele>
        <time>2022-08-02T13:52:45Z</time>
      </trkpt>
      <trkpt lat="45.78502" lon="1.85783">
        <ele>665.5</ele>
        <time>2022-08-02T13:52:47Z</time>
      </trkpt>
      <trkpt lat="45.78495" lon="1.85778">
        <ele>666.6</ele>
        <time>2022-08-02T13:52:49Z</time>
      </trkpt>
      <trkpt lat="45.78488" lon="1.85772">
        <ele>667.7</ele>
        <time>2022-08-02T13:52:51Z</time>
      </trkpt>
      <trkpt lat="45.7848" lon="1.8577">
        <ele>668.1</ele>
        <time>2022-08-02T13:52:53Z</time>
      </trkpt>
      <trkpt lat="45.78478" lon="1.85766">
        <ele>668.9</ele>
        <time>2022-08-02T13:52:55Z</time>
      </trkpt>
      <trkpt lat="45.78471" lon="1.85767">
        <ele>668.6</ele>
        <time>2022-08-02T13:52:57Z</time>
      </trkpt>
      <trkpt lat="45.78465" lon="1.85773">
        <ele>667.7</ele>
        <time>2022-08-02T13:52:59Z</time>
      </trkpt>
      <trkpt lat="45.7846" lon="1.85777">
        <ele>667</ele>
        <time>2022-08-02T13:53:01Z</time>
      </trkpt>
      <trkpt lat="45.78454" lon="1.8578">
        <ele>666.4</ele>
        <time>2022-08-02T13:53:03Z</time>
      </trkpt>
      <trkpt lat="45.7845" lon="1.85785">
        <ele>665.8</ele>
        <time>2022-08-02T13:53:05Z</time>
      </trkpt>
      <trkpt lat="45.78447" lon="1.85789">
        <ele>665.1</ele>
        <time>2022-08-02T13:53:07Z</time>
      </trkpt>
      <trkpt lat="45.7844" lon="1.85793">
        <ele>664.5</ele>
        <time>2022-08-02T13:53:09Z</time>
      </trkpt>
      <trkpt lat="45.78436" lon="1.85795">
        <ele>664.2</ele>
        <time>2022-08-02T13:53:11Z</time>
      </trkpt>
      <trkpt lat="45.78431" lon="1.85797">
        <ele>664.1</ele>
        <time>2022-08-02T13:53:13Z</time>
      </trkpt>
      <trkpt lat="45.78427" lon="1.85799">
        <ele>663.8</ele>
        <time>2022-08-02T13:53:15Z</time>
      </trkpt>
      <trkpt lat="45.78423" lon="1.85801">
        <ele>663.6</ele>
        <time>2022-08-02T13:53:17Z</time>
      </trkpt>
      <trkpt lat="45.78419" lon="1.85802">
        <ele>663.4</ele>
        <time>2022-08-02T13:53:19Z</time>
      </trkpt>
      <trkpt lat="45.78416" lon="1.85804">
        <ele>663.3</ele>
        <time>2022-08-02T13:53:21Z</time>
      </trkpt>
      <trkpt lat="45.78413" lon="1.85808">
        <ele>662.9</ele>
        <time>2022-08-02T13:53:23Z</time>
      </trkpt>
      <trkpt lat="45.78411" lon="1.85811">
        <ele>662.8</ele>
        <time>2022-08-02T13:53:25Z</time>
      </trkpt>
      <trkpt lat="45.78407" lon="1.85813">
        <ele>662.7</ele>
        <time>2022-08-02T13:53:27Z</time>
      </trkpt>
      <trkpt lat="45.78405" lon="1.85816">
        <ele>662.6</ele>
        <time>2022-08-02T13:53:29Z</time>
      </trkpt>
      <trkpt lat="45.78402" lon="1.8582">
        <ele>662.3</ele>
        <time>2022-08-02T13:53:31Z</time>
      </trkpt>
      <trkpt lat="45.78399" lon="1.85823">
        <ele>662.2</ele>
        <time>2022-08-02T13:53:33Z</time>
      </trkpt>
      <trkpt lat="45.78395" lon="1.85828">
        <ele>661.8</ele>
        <time>2022-08-02T13:53:35Z</time>
      </trkpt>
      <trkpt lat="45.78392" lon="1.8583">
        <ele>661.8</ele>
        <time>2022-08-02T13:53:37Z</time>
      </trkpt>
      <trkpt lat="45.78388" lon="1.85834">
        <ele>661.7</ele>
        <time>2022-08-02T13:53:39Z</time>
      </trkpt>
      <trkpt lat="45.78383" lon="1.85838">
        <ele>662</ele>
        <time>2022-08-02T13:53:41Z</time>
      </trkpt>
      <trkpt lat="45.7838" lon="1.85836">
        <ele>662.4</ele>
        <time>2022-08-02T13:53:43Z</time>
      </trkpt>
      <trkpt lat="45.78376" lon="1.85836">
        <ele>662.8</ele>
        <time>2022-08-02T13:53:45Z</time>
      </trkpt>
      <trkpt lat="45.78373" lon="1.85837">
        <ele>663.1</ele>
        <time>2022-08-02T13:53:47Z</time>
      </trkpt>
      <trkpt lat="45.78371" lon="1.85838">
        <ele>663.2</ele>
        <time>2022-08-02T13:53:49Z</time>
      </trkpt>
      <trkpt lat="45.78371" lon="1.85839">
        <ele>663.2</ele>
        <time>2022-08-02T13:53:51Z</time>
      </trkpt>
      <trkpt lat="45.78371" lon="1.85839">
        <ele>663.2</ele>
        <time>2022-08-02T13:53:53Z</time>
      </trkpt>
      <trkpt lat="45.7837" lon="1.85839">
        <ele>663.3</ele>
        <time>2022-08-02T13:53:55Z</time>
      </trkpt>
      <trkpt lat="45.7837" lon="1.8584">
        <ele>663.2</ele>
        <time>2022-08-02T13:53:57Z</time>
      </trkpt>
      <trkpt lat="45.78367" lon="1.85847">
        <ele>663.2</ele>
        <time>2022-08-02T13:53:59Z</time>
      </trkpt>
      <trkpt lat="45.78363" lon="1.85856">
        <ele>663.3</ele>
        <time>2022-08-02T13:54:01Z</time>
      </trkpt>
      <trkpt lat="45.78362" lon="1.85862">
        <ele>663.2</ele>
        <time>2022-08-02T13:54:03Z</time>
      </trkpt>
      <trkpt lat="45.78362" lon="1.85869">
        <ele>663</ele>
        <time>2022-08-02T13:54:05Z</time>
      </trkpt>
      <trkpt lat="45.78362" lon="1.85877">
        <ele>662.7</ele>
        <time>2022-08-02T13:54:07Z</time>
      </trkpt>
      <trkpt lat="45.78368" lon="1.85885">
        <ele>661.8</ele>
        <time>2022-08-02T13:54:09Z</time>
      </trkpt>
      <trkpt lat="45.78374" lon="1.85889">
        <ele>661.1</ele>
        <time>2022-08-02T13:54:11Z</time>
      </trkpt>
      <trkpt lat="45.78378" lon="1.85894">
        <ele>660.5</ele>
        <time>2022-08-02T13:54:13Z</time>
      </trkpt>
      <trkpt lat="45.78383" lon="1.85896">
        <ele>660</ele>
        <time>2022-08-02T13:54:15Z</time>
      </trkpt>
      <trkpt lat="45.78388" lon="1.85901">
        <ele>659.3</ele>
        <time>2022-08-02T13:54:17Z</time>
      </trkpt>
      <trkpt lat="45.78391" lon="1.85906">
        <ele>658.9</ele>
        <time>2022-08-02T13:54:19Z</time>
      </trkpt>
      <trkpt lat="45.78395" lon="1.85912">
        <ele>658.3</ele>
        <time>2022-08-02T13:54:21Z</time>
      </trkpt>
      <trkpt lat="45.78395" lon="1.85917">
        <ele>658.1</ele>
        <time>2022-08-02T13:54:23Z</time>
      </trkpt>
      <trkpt lat="45.78394" lon="1.85923">
        <ele>658.6</ele>
        <time>2022-08-02T13:54:25Z</time>
      </trkpt>
      <trkpt lat="45.78392" lon="1.85926">
        <ele>659.2</ele>
        <time>2022-08-02T13:54:27Z</time>
      </trkpt>
      <trkpt lat="45.78394" lon="1.85931">
        <ele>659.4</ele>
        <time>2022-08-02T13:54:29Z</time>
      </trkpt>
      <trkpt lat="45.78395" lon="1.85936">
        <ele>659.6</ele>
        <time>2022-08-02T13:54:31Z</time>
      </trkpt>
      <trkpt lat="45.78396" lon="1.85941">
        <ele>659.9</ele>
        <time>2022-08-02T13:54:33Z</time>
      </trkpt>
      <trkpt lat="45.78398" lon="1.85946">
        <ele>660.1</ele>
        <time>2022-08-02T13:54:35Z</time>
      </trkpt>
      <trkpt lat="45.784" lon="1.8595">
        <ele>660.3</ele>
        <time>2022-08-02T13:54:37Z</time>
      </trkpt>
      <trkpt lat="45.78402" lon="1.85955">
        <ele>660.4</ele>
        <time>2022-08-02T13:54:39Z</time>
      </trkpt>
      <trkpt lat="45.78404" lon="1.85961">
        <ele>660.6</ele>
        <time>2022-08-02T13:54:41Z</time>
      </trkpt>
      <trkpt lat="45.78406" lon="1.85967">
        <ele>660.8</ele>
        <time>2022-08-02T13:54:43Z</time>
      </trkpt>
      <trkpt lat="45.7841" lon="1.85975">
        <ele>661</ele>
        <time>2022-08-02T13:54:45Z</time>
      </trkpt>
      <trkpt lat="45.78413" lon="1.85985">
        <ele>661.3</ele>
        <time>2022-08-02T13:54:47Z</time>
      </trkpt>
      <trkpt lat="45.78416" lon="1.85995">
        <ele>661.8</ele>
        <time>2022-08-02T13:54:49Z</time>
      </trkpt>
      <trkpt lat="45.7842" lon="1.86002">
        <ele>661.6</ele>
        <time>2022-08-02T13:54:51Z</time>
      </trkpt>
      <trkpt lat="45.78424" lon="1.86014">
        <ele>662.1</ele>
        <time>2022-08-02T13:54:53Z</time>
      </trkpt>
      <trkpt lat="45.78428" lon="1.86022">
        <ele>662.1</ele>
        <time>2022-08-02T13:54:55Z</time>
      </trkpt>
      <trkpt lat="45.78431" lon="1.86028">
        <ele>662.2</ele>
        <time>2022-08-02T13:54:57Z</time>
      </trkpt>
      <trkpt lat="45.78435" lon="1.86036">
        <ele>662.3</ele>
        <time>2022-08-02T13:54:59Z</time>
      </trkpt>
      <trkpt lat="45.78437" lon="1.86044">
        <ele>662.6</ele>
        <time>2022-08-02T13:55:01Z</time>
      </trkpt>
      <trkpt lat="45.78442" lon="1.86054">
        <ele>662.9</ele>
        <time>2022-08-02T13:55:03Z</time>
      </trkpt>
      <trkpt lat="45.78446" lon="1.86061">
        <ele>663</ele>
        <time>2022-08-02T13:55:05Z</time>
      </trkpt>
      <trkpt lat="45.78449" lon="1.86066">
        <ele>663</ele>
        <time>2022-08-02T13:55:07Z</time>
      </trkpt>
      <trkpt lat="45.78453" lon="1.86071">
        <ele>662.9</ele>
        <time>2022-08-02T13:55:09Z</time>
      </trkpt>
      <trkpt lat="45.78459" lon="1.86074">
        <ele>662.5</ele>
        <time>2022-08-02T13:55:11Z</time>
      </trkpt>
      <trkpt lat="45.78463" lon="1.86078">
        <ele>662.3</ele>
        <time>2022-08-02T13:55:13Z</time>
      </trkpt>
      <trkpt lat="45.78468" lon="1.86081">
        <ele>662.1</ele>
        <time>2022-08-02T13:55:15Z</time>
      </trkpt>
      <trkpt lat="45.78474" lon="1.86085">
        <ele>661.6</ele>
        <time>2022-08-02T13:55:17Z</time>
      </trkpt>
      <trkpt lat="45.78481" lon="1.86088">
        <ele>661</ele>
        <time>2022-08-02T13:55:19Z</time>
      </trkpt>
      <trkpt lat="45.78486" lon="1.86087">
        <ele>660.2</ele>
        <time>2022-08-02T13:55:21Z</time>
      </trkpt>
      <trkpt lat="45.78492" lon="1.86087">
        <ele>659.4</ele>
        <time>2022-08-02T13:55:23Z</time>
      </trkpt>
      <trkpt lat="45.78497" lon="1.86088">
        <ele>659</ele>
        <time>2022-08-02T13:55:25Z</time>
      </trkpt>
      <trkpt lat="45.78502" lon="1.8609">
        <ele>658.5</ele>
        <time>2022-08-02T13:55:27Z</time>
      </trkpt>
      <trkpt lat="45.78508" lon="1.86091">
        <ele>657.9</ele>
        <time>2022-08-02T13:55:29Z</time>
      </trkpt>
      <trkpt lat="45.78512" lon="1.86092">
        <ele>657.5</ele>
        <time>2022-08-02T13:55:31Z</time>
      </trkpt>
      <trkpt lat="45.78516" lon="1.86093">
        <ele>657.1</ele>
        <time>2022-08-02T13:55:33Z</time>
      </trkpt>
      <trkpt lat="45.78521" lon="1.86095">
        <ele>656.8</ele>
        <time>2022-08-02T13:55:35Z</time>
      </trkpt>
      <trkpt lat="45.78525" lon="1.86099">
        <ele>656.7</ele>
        <time>2022-08-02T13:55:37Z</time>
      </trkpt>
      <trkpt lat="45.78529" lon="1.86102">
        <ele>656.7</ele>
        <time>2022-08-02T13:55:39Z</time>
      </trkpt>
      <trkpt lat="45.78533" lon="1.86105">
        <ele>656.6</ele>
        <time>2022-08-02T13:55:41Z</time>
      </trkpt>
      <trkpt lat="45.78536" lon="1.86108">
        <ele>656.5</ele>
        <time>2022-08-02T13:55:43Z</time>
      </trkpt>
      <trkpt lat="45.7854" lon="1.86112">
        <ele>656.5</ele>
        <time>2022-08-02T13:55:45Z</time>
      </trkpt>
      <trkpt lat="45.78543" lon="1.86115">
        <ele>656.4</ele>
        <time>2022-08-02T13:55:47Z</time>
      </trkpt>
      <trkpt lat="45.78545" lon="1.86119">
        <ele>656.6</ele>
        <time>2022-08-02T13:55:49Z</time>
      </trkpt>
      <trkpt lat="45.78546" lon="1.86124">
        <ele>657.1</ele>
        <time>2022-08-02T13:55:51Z</time>
      </trkpt>
      <trkpt lat="45.78546" lon="1.8613">
        <ele>657.8</ele>
        <time>2022-08-02T13:55:53Z</time>
      </trkpt>
      <trkpt lat="45.78545" lon="1.86133">
        <ele>658.3</ele>
        <time>2022-08-02T13:55:55Z</time>
      </trkpt>
      <trkpt lat="45.78546" lon="1.86137">
        <ele>658.6</ele>
        <time>2022-08-02T13:55:57Z</time>
      </trkpt>
      <trkpt lat="45.78549" lon="1.86142">
        <ele>658.9</ele>
        <time>2022-08-02T13:55:59Z</time>
      </trkpt>
      <trkpt lat="45.7855" lon="1.86146">
        <ele>659.2</ele>
        <time>2022-08-02T13:56:01Z</time>
      </trkpt>
      <trkpt lat="45.78551" lon="1.86146">
        <ele>659.1</ele>
        <time>2022-08-02T13:56:03Z</time>
      </trkpt>
      <trkpt lat="45.78551" lon="1.86146">
        <ele>659.1</ele>
        <time>2022-08-02T13:56:05Z</time>
      </trkpt>
      <trkpt lat="45.7855" lon="1.86146">
        <ele>659.1</ele>
        <time>2022-08-02T13:56:09Z</time>
      </trkpt>
      <trkpt lat="45.7855" lon="1.86145">
        <ele>659.2</ele>
        <time>2022-08-02T13:56:11Z</time>
      </trkpt>
      <trkpt lat="45.78558" lon="1.86166">
        <ele>660.7</ele>
        <time>2022-08-02T13:56:21Z</time>
      </trkpt>
      <trkpt lat="45.78556" lon="1.86173">
        <ele>661.3</ele>
        <time>2022-08-02T13:56:23Z</time>
      </trkpt>
      <trkpt lat="45.78557" lon="1.86182">
        <ele>661.8</ele>
        <time>2022-08-02T13:56:25Z</time>
      </trkpt>
      <trkpt lat="45.78561" lon="1.86187">
        <ele>661.6</ele>
        <time>2022-08-02T13:56:27Z</time>
      </trkpt>
      <trkpt lat="45.78562" lon="1.86193">
        <ele>661.9</ele>
        <time>2022-08-02T13:56:29Z</time>
      </trkpt>
      <trkpt lat="45.78567" lon="1.86204">
        <ele>661.9</ele>
        <time>2022-08-02T13:56:31Z</time>
      </trkpt>
      <trkpt lat="45.78571" lon="1.86213">
        <ele>661.9</ele>
        <time>2022-08-02T13:56:33Z</time>
      </trkpt>
      <trkpt lat="45.78576" lon="1.8622">
        <ele>661.6</ele>
        <time>2022-08-02T13:56:35Z</time>
      </trkpt>
      <trkpt lat="45.78577" lon="1.86229">
        <ele>661.9</ele>
        <time>2022-08-02T13:56:37Z</time>
      </trkpt>
      <trkpt lat="45.78581" lon="1.86235">
        <ele>661.6</ele>
        <time>2022-08-02T13:56:39Z</time>
      </trkpt>
      <trkpt lat="45.78585" lon="1.8624">
        <ele>661.5</ele>
        <time>2022-08-02T13:56:41Z</time>
      </trkpt>
      <trkpt lat="45.7859" lon="1.86242">
        <ele>661.6</ele>
        <time>2022-08-02T13:56:43Z</time>
      </trkpt>
      <trkpt lat="45.78594" lon="1.86245">
        <ele>661.7</ele>
        <time>2022-08-02T13:56:45Z</time>
      </trkpt>
      <trkpt lat="45.78595" lon="1.86253">
        <ele>662</ele>
        <time>2022-08-02T13:56:47Z</time>
      </trkpt>
      <trkpt lat="45.78595" lon="1.86258">
        <ele>662.2</ele>
        <time>2022-08-02T13:56:49Z</time>
      </trkpt>
      <trkpt lat="45.78598" lon="1.86259">
        <ele>662.3</ele>
        <time>2022-08-02T13:56:51Z</time>
      </trkpt>
      <trkpt lat="45.78601" lon="1.86262">
        <ele>662.4</ele>
        <time>2022-08-02T13:56:53Z</time>
      </trkpt>
      <trkpt lat="45.78604" lon="1.86266">
        <ele>662.5</ele>
        <time>2022-08-02T13:56:55Z</time>
      </trkpt>
      <trkpt lat="45.78607" lon="1.86269">
        <ele>662.7</ele>
        <time>2022-08-02T13:56:57Z</time>
      </trkpt>
      <trkpt lat="45.78609" lon="1.86271">
        <ele>662.7</ele>
        <time>2022-08-02T13:56:59Z</time>
      </trkpt>
      <trkpt lat="45.78612" lon="1.86272">
        <ele>662.7</ele>
        <time>2022-08-02T13:57:01Z</time>
      </trkpt>
      <trkpt lat="45.78614" lon="1.86272">
        <ele>662.7</ele>
        <time>2022-08-02T13:57:03Z</time>
      </trkpt>
      <trkpt lat="45.78618" lon="1.86271">
        <ele>662.6</ele>
        <time>2022-08-02T13:57:05Z</time>
      </trkpt>
      <trkpt lat="45.78622" lon="1.86268">
        <ele>662.4</ele>
        <time>2022-08-02T13:57:07Z</time>
      </trkpt>
      <trkpt lat="45.78626" lon="1.86267">
        <ele>662.3</ele>
        <time>2022-08-02T13:57:09Z</time>
      </trkpt>
      <trkpt lat="45.7863" lon="1.86265">
        <ele>662.1</ele>
        <time>2022-08-02T13:57:11Z</time>
      </trkpt>
      <trkpt lat="45.78634" lon="1.86265">
        <ele>662.1</ele>
        <time>2022-08-02T13:57:13Z</time>
      </trkpt>
      <trkpt lat="45.78638" lon="1.86265">
        <ele>662.1</ele>
        <time>2022-08-02T13:57:15Z</time>
      </trkpt>
      <trkpt lat="45.78642" lon="1.86264">
        <ele>662</ele>
        <time>2022-08-02T13:57:17Z</time>
      </trkpt>
      <trkpt lat="45.78646" lon="1.86262">
        <ele>661.8</ele>
        <time>2022-08-02T13:57:19Z</time>
      </trkpt>
      <trkpt lat="45.78649" lon="1.86261">
        <ele>661.8</ele>
        <time>2022-08-02T13:57:21Z</time>
      </trkpt>
      <trkpt lat="45.78651" lon="1.86262">
        <ele>661.8</ele>
        <time>2022-08-02T13:57:23Z</time>
      </trkpt>
      <trkpt lat="45.78653" lon="1.86262">
        <ele>661.8</ele>
        <time>2022-08-02T13:57:25Z</time>
      </trkpt>
      <trkpt lat="45.78657" lon="1.86263">
        <ele>661.7</ele>
        <time>2022-08-02T13:57:27Z</time>
      </trkpt>
      <trkpt lat="45.7866" lon="1.86263">
        <ele>661.7</ele>
        <time>2022-08-02T13:57:29Z</time>
      </trkpt>
      <trkpt lat="45.78663" lon="1.8626">
        <ele>661.5</ele>
        <time>2022-08-02T13:57:31Z</time>
      </trkpt>
      <trkpt lat="45.78665" lon="1.86256">
        <ele>661.3</ele>
        <time>2022-08-02T13:57:33Z</time>
      </trkpt>
      <trkpt lat="45.78667" lon="1.86253">
        <ele>661.2</ele>
        <time>2022-08-02T13:57:35Z</time>
      </trkpt>
      <trkpt lat="45.78667" lon="1.86253">
        <ele>661.2</ele>
        <time>2022-08-02T13:57:37Z</time>
      </trkpt>
      <trkpt lat="45.78667" lon="1.86254">
        <ele>661.2</ele>
        <time>2022-08-02T13:57:39Z</time>
      </trkpt>
      <trkpt lat="45.78667" lon="1.86252">
        <ele>661.1</ele>
        <time>2022-08-02T13:57:43Z</time>
      </trkpt>
      <trkpt lat="45.78686" lon="1.86264">
        <ele>661.5</ele>
        <time>2022-08-02T13:58:51Z</time>
      </trkpt>
      <trkpt lat="45.78692" lon="1.86264">
        <ele>661.5</ele>
        <time>2022-08-02T13:58:53Z</time>
      </trkpt>
      <trkpt lat="45.78699" lon="1.86264">
        <ele>661.4</ele>
        <time>2022-08-02T13:58:55Z</time>
      </trkpt>
      <trkpt lat="45.78705" lon="1.86264">
        <ele>661.4</ele>
        <time>2022-08-02T13:58:57Z</time>
      </trkpt>
      <trkpt lat="45.78712" lon="1.86266">
        <ele>661.4</ele>
        <time>2022-08-02T13:58:59Z</time>
      </trkpt>
      <trkpt lat="45.78719" lon="1.86269">
        <ele>661.3</ele>
        <time>2022-08-02T13:59:01Z</time>
      </trkpt>
      <trkpt lat="45.78725" lon="1.86273">
        <ele>661.3</ele>
        <time>2022-08-02T13:59:03Z</time>
      </trkpt>
      <trkpt lat="45.78731" lon="1.86276">
        <ele>661.3</ele>
        <time>2022-08-02T13:59:05Z</time>
      </trkpt>
      <trkpt lat="45.78738" lon="1.86279">
        <ele>661.2</ele>
        <time>2022-08-02T13:59:07Z</time>
      </trkpt>
      <trkpt lat="45.78745" lon="1.86282">
        <ele>661.1</ele>
        <time>2022-08-02T13:59:09Z</time>
      </trkpt>
      <trkpt lat="45.78751" lon="1.86285">
        <ele>661</ele>
        <time>2022-08-02T13:59:11Z</time>
      </trkpt>
      <trkpt lat="45.78756" lon="1.86288">
        <ele>661.3</ele>
        <time>2022-08-02T13:59:13Z</time>
      </trkpt>
      <trkpt lat="45.78762" lon="1.8629">
        <ele>661.5</ele>
        <time>2022-08-02T13:59:15Z</time>
      </trkpt>
      <trkpt lat="45.78768" lon="1.86292">
        <ele>661.8</ele>
        <time>2022-08-02T13:59:17Z</time>
      </trkpt>
      <trkpt lat="45.78774" lon="1.86295">
        <ele>662</ele>
        <time>2022-08-02T13:59:19Z</time>
      </trkpt>
      <trkpt lat="45.7878" lon="1.86298">
        <ele>662.2</ele>
        <time>2022-08-02T13:59:21Z</time>
      </trkpt>
      <trkpt lat="45.78786" lon="1.86301">
        <ele>662.4</ele>
        <time>2022-08-02T13:59:23Z</time>
      </trkpt>
      <trkpt lat="45.78792" lon="1.86303">
        <ele>662.5</ele>
        <time>2022-08-02T13:59:25Z</time>
      </trkpt>
      <trkpt lat="45.78798" lon="1.86307">
        <ele>662.7</ele>
        <time>2022-08-02T13:59:27Z</time>
      </trkpt>
      <trkpt lat="45.78804" lon="1.86309">
        <ele>662.8</ele>
        <time>2022-08-02T13:59:29Z</time>
      </trkpt>
      <trkpt lat="45.7881" lon="1.86312">
        <ele>663</ele>
        <time>2022-08-02T13:59:31Z</time>
      </trkpt>
      <trkpt lat="45.78816" lon="1.86315">
        <ele>663.1</ele>
        <time>2022-08-02T13:59:33Z</time>
      </trkpt>
      <trkpt lat="45.78823" lon="1.86317">
        <ele>663.3</ele>
        <time>2022-08-02T13:59:35Z</time>
      </trkpt>
      <trkpt lat="45.78829" lon="1.8632">
        <ele>663.4</ele>
        <time>2022-08-02T13:59:37Z</time>
      </trkpt>
      <trkpt lat="45.78835" lon="1.86322">
        <ele>663.6</ele>
        <time>2022-08-02T13:59:39Z</time>
      </trkpt>
      <trkpt lat="45.78842" lon="1.86325">
        <ele>664.1</ele>
        <time>2022-08-02T13:59:41Z</time>
      </trkpt>
      <trkpt lat="45.78848" lon="1.86326">
        <ele>664.7</ele>
        <time>2022-08-02T13:59:43Z</time>
      </trkpt>
      <trkpt lat="45.78854" lon="1.86329">
        <ele>665.2</ele>
        <time>2022-08-02T13:59:45Z</time>
      </trkpt>
      <trkpt lat="45.78859" lon="1.86331">
        <ele>665.6</ele>
        <time>2022-08-02T13:59:47Z</time>
      </trkpt>
      <trkpt lat="45.78864" lon="1.86333">
        <ele>665.9</ele>
        <time>2022-08-02T13:59:49Z</time>
      </trkpt>
      <trkpt lat="45.78867" lon="1.86335">
        <ele>666.2</ele>
        <time>2022-08-02T13:59:51Z</time>
      </trkpt>
      <trkpt lat="45.7887" lon="1.86335">
        <ele>666.5</ele>
        <time>2022-08-02T13:59:53Z</time>
      </trkpt>
      <trkpt lat="45.78874" lon="1.86331">
        <ele>667</ele>
        <time>2022-08-02T13:59:55Z</time>
      </trkpt>
      <trkpt lat="45.78876" lon="1.86326">
        <ele>667.5</ele>
        <time>2022-08-02T13:59:57Z</time>
      </trkpt>
      <trkpt lat="45.78879" lon="1.86323">
        <ele>667.9</ele>
        <time>2022-08-02T13:59:59Z</time>
      </trkpt>
      <trkpt lat="45.7888" lon="1.8632">
        <ele>668.1</ele>
        <time>2022-08-02T14:00:01Z</time>
      </trkpt>
      <trkpt lat="45.78883" lon="1.86317">
        <ele>668.5</ele>
        <time>2022-08-02T14:00:03Z</time>
      </trkpt>
      <trkpt lat="45.78885" lon="1.86314">
        <ele>669</ele>
        <time>2022-08-02T14:00:05Z</time>
      </trkpt>
      <trkpt lat="45.78888" lon="1.86311">
        <ele>669.3</ele>
        <time>2022-08-02T14:00:07Z</time>
      </trkpt>
      <trkpt lat="45.78889" lon="1.8631">
        <ele>669.6</ele>
        <time>2022-08-02T14:00:09Z</time>
      </trkpt>
      <trkpt lat="45.78883" lon="1.86341">
        <ele>667.6</ele>
        <time>2022-08-02T14:00:49Z</time>
      </trkpt>
      <trkpt lat="45.78887" lon="1.86344">
        <ele>667.9</ele>
        <time>2022-08-02T14:00:51Z</time>
      </trkpt>
      <trkpt lat="45.7889" lon="1.86344">
        <ele>668.2</ele>
        <time>2022-08-02T14:00:53Z</time>
      </trkpt>
      <trkpt lat="45.78893" lon="1.86344">
        <ele>668.5</ele>
        <time>2022-08-02T14:00:55Z</time>
      </trkpt>
      <trkpt lat="45.78897" lon="1.86345">
        <ele>668.8</ele>
        <time>2022-08-02T14:00:57Z</time>
      </trkpt>
      <trkpt lat="45.78902" lon="1.86347">
        <ele>669.1</ele>
        <time>2022-08-02T14:00:59Z</time>
      </trkpt>
      <trkpt lat="45.78906" lon="1.8635">
        <ele>669.5</ele>
        <time>2022-08-02T14:01:01Z</time>
      </trkpt>
      <trkpt lat="45.78911" lon="1.86351">
        <ele>669.8</ele>
        <time>2022-08-02T14:01:03Z</time>
      </trkpt>
      <trkpt lat="45.78916" lon="1.86351">
        <ele>670.3</ele>
        <time>2022-08-02T14:01:05Z</time>
      </trkpt>
      <trkpt lat="45.7892" lon="1.86354">
        <ele>670.6</ele>
        <time>2022-08-02T14:01:07Z</time>
      </trkpt>
      <trkpt lat="45.78924" lon="1.86359">
        <ele>670.8</ele>
        <time>2022-08-02T14:01:09Z</time>
      </trkpt>
      <trkpt lat="45.78929" lon="1.86361">
        <ele>671.2</ele>
        <time>2022-08-02T14:01:11Z</time>
      </trkpt>
      <trkpt lat="45.78935" lon="1.86366">
        <ele>671.3</ele>
        <time>2022-08-02T14:01:13Z</time>
      </trkpt>
      <trkpt lat="45.7894" lon="1.86368">
        <ele>671.7</ele>
        <time>2022-08-02T14:01:15Z</time>
      </trkpt>
      <trkpt lat="45.78946" lon="1.86372">
        <ele>671.9</ele>
        <time>2022-08-02T14:01:17Z</time>
      </trkpt>
      <trkpt lat="45.78953" lon="1.86373">
        <ele>672.3</ele>
        <time>2022-08-02T14:01:19Z</time>
      </trkpt>
      <trkpt lat="45.78961" lon="1.86373">
        <ele>672.9</ele>
        <time>2022-08-02T14:01:21Z</time>
      </trkpt>
      <trkpt lat="45.78969" lon="1.86375">
        <ele>673.2</ele>
        <time>2022-08-02T14:01:23Z</time>
      </trkpt>
      <trkpt lat="45.78975" lon="1.86375">
        <ele>673.7</ele>
        <time>2022-08-02T14:01:25Z</time>
      </trkpt>
      <trkpt lat="45.78982" lon="1.86376">
        <ele>674</ele>
        <time>2022-08-02T14:01:27Z</time>
      </trkpt>
      <trkpt lat="45.7899" lon="1.86378">
        <ele>674.4</ele>
        <time>2022-08-02T14:01:29Z</time>
      </trkpt>
      <trkpt lat="45.78997" lon="1.86381">
        <ele>674.4</ele>
        <time>2022-08-02T14:01:31Z</time>
      </trkpt>
      <trkpt lat="45.79005" lon="1.86383">
        <ele>674.4</ele>
        <time>2022-08-02T14:01:33Z</time>
      </trkpt>
      <trkpt lat="45.79012" lon="1.86383">
        <ele>674.5</ele>
        <time>2022-08-02T14:01:35Z</time>
      </trkpt>
      <trkpt lat="45.7902" lon="1.86385">
        <ele>674.2</ele>
        <time>2022-08-02T14:01:37Z</time>
      </trkpt>
      <trkpt lat="45.79026" lon="1.86387">
        <ele>674</ele>
        <time>2022-08-02T14:01:39Z</time>
      </trkpt>
      <trkpt lat="45.79032" lon="1.86391">
        <ele>673.6</ele>
        <time>2022-08-02T14:01:41Z</time>
      </trkpt>
      <trkpt lat="45.79038" lon="1.86391">
        <ele>673.5</ele>
        <time>2022-08-02T14:01:43Z</time>
      </trkpt>
      <trkpt lat="45.79044" lon="1.86393">
        <ele>673.4</ele>
        <time>2022-08-02T14:01:45Z</time>
      </trkpt>
      <trkpt lat="45.79049" lon="1.86393">
        <ele>673.4</ele>
        <time>2022-08-02T14:01:47Z</time>
      </trkpt>
      <trkpt lat="45.79055" lon="1.86395">
        <ele>673.2</ele>
        <time>2022-08-02T14:01:49Z</time>
      </trkpt>
      <trkpt lat="45.79061" lon="1.86396">
        <ele>673.1</ele>
        <time>2022-08-02T14:01:51Z</time>
      </trkpt>
      <trkpt lat="45.79065" lon="1.86397">
        <ele>673.1</ele>
        <time>2022-08-02T14:01:53Z</time>
      </trkpt>
      <trkpt lat="45.79068" lon="1.86398">
        <ele>673</ele>
        <time>2022-08-02T14:01:55Z</time>
      </trkpt>
      <trkpt lat="45.79071" lon="1.86398">
        <ele>673</ele>
        <time>2022-08-02T14:01:57Z</time>
      </trkpt>
      <trkpt lat="45.79074" lon="1.86397">
        <ele>673.1</ele>
        <time>2022-08-02T14:01:59Z</time>
      </trkpt>
      <trkpt lat="45.79077" lon="1.86397">
        <ele>673.3</ele>
        <time>2022-08-02T14:02:01Z</time>
      </trkpt>
      <trkpt lat="45.79081" lon="1.86397">
        <ele>673.2</ele>
        <time>2022-08-02T14:02:03Z</time>
      </trkpt>
      <trkpt lat="45.79085" lon="1.86396">
        <ele>673.2</ele>
        <time>2022-08-02T14:02:05Z</time>
      </trkpt>
      <trkpt lat="45.79089" lon="1.86397">
        <ele>672.7</ele>
        <time>2022-08-02T14:02:07Z</time>
      </trkpt>
      <trkpt lat="45.79094" lon="1.86396">
        <ele>672.2</ele>
        <time>2022-08-02T14:02:09Z</time>
      </trkpt>
      <trkpt lat="45.79101" lon="1.86395">
        <ele>671.5</ele>
        <time>2022-08-02T14:02:11Z</time>
      </trkpt>
      <trkpt lat="45.79109" lon="1.86393">
        <ele>670.7</ele>
        <time>2022-08-02T14:02:13Z</time>
      </trkpt>
      <trkpt lat="45.79117" lon="1.86391">
        <ele>670.2</ele>
        <time>2022-08-02T14:02:15Z</time>
      </trkpt>
      <trkpt lat="45.79124" lon="1.86388">
        <ele>669.5</ele>
        <time>2022-08-02T14:02:17Z</time>
      </trkpt>
      <trkpt lat="45.7913" lon="1.86384">
        <ele>669.3</ele>
        <time>2022-08-02T14:02:19Z</time>
      </trkpt>
      <trkpt lat="45.79139" lon="1.86378">
        <ele>669</ele>
        <time>2022-08-02T14:02:21Z</time>
      </trkpt>
      <trkpt lat="45.79147" lon="1.86371">
        <ele>668.7</ele>
        <time>2022-08-02T14:02:23Z</time>
      </trkpt>
      <trkpt lat="45.79156" lon="1.86363">
        <ele>668.4</ele>
        <time>2022-08-02T14:02:25Z</time>
      </trkpt>
      <trkpt lat="45.79165" lon="1.86355">
        <ele>667.9</ele>
        <time>2022-08-02T14:02:27Z</time>
      </trkpt>
      <trkpt lat="45.79174" lon="1.86348">
        <ele>667</ele>
        <time>2022-08-02T14:02:29Z</time>
      </trkpt>
      <trkpt lat="45.79183" lon="1.86341">
        <ele>666.2</ele>
        <time>2022-08-02T14:02:31Z</time>
      </trkpt>
      <trkpt lat="45.79191" lon="1.86333">
        <ele>665.4</ele>
        <time>2022-08-02T14:02:33Z</time>
      </trkpt>
      <trkpt lat="45.79201" lon="1.86325">
        <ele>664.8</ele>
        <time>2022-08-02T14:02:35Z</time>
      </trkpt>
      <trkpt lat="45.79209" lon="1.86319">
        <ele>664.1</ele>
        <time>2022-08-02T14:02:37Z</time>
      </trkpt>
      <trkpt lat="45.79214" lon="1.86313">
        <ele>663.9</ele>
        <time>2022-08-02T14:02:39Z</time>
      </trkpt>
      <trkpt lat="45.7922" lon="1.8631">
        <ele>662.9</ele>
        <time>2022-08-02T14:02:41Z</time>
      </trkpt>
      <trkpt lat="45.79227" lon="1.8631">
        <ele>661.4</ele>
        <time>2022-08-02T14:02:43Z</time>
      </trkpt>
      <trkpt lat="45.79234" lon="1.86308">
        <ele>660.2</ele>
        <time>2022-08-02T14:02:45Z</time>
      </trkpt>
      <trkpt lat="45.79241" lon="1.86305">
        <ele>659</ele>
        <time>2022-08-02T14:02:47Z</time>
      </trkpt>
      <trkpt lat="45.79247" lon="1.863">
        <ele>658.2</ele>
        <time>2022-08-02T14:02:49Z</time>
      </trkpt>
      <trkpt lat="45.79252" lon="1.86294">
        <ele>658</ele>
        <time>2022-08-02T14:02:51Z</time>
      </trkpt>
      <trkpt lat="45.79257" lon="1.86288">
        <ele>657.9</ele>
        <time>2022-08-02T14:02:53Z</time>
      </trkpt>
      <trkpt lat="45.79261" lon="1.86282">
        <ele>658</ele>
        <time>2022-08-02T14:02:55Z</time>
      </trkpt>
      <trkpt lat="45.79265" lon="1.86278">
        <ele>657.8</ele>
        <time>2022-08-02T14:02:57Z</time>
      </trkpt>
      <trkpt lat="45.79269" lon="1.86271">
        <ele>657.8</ele>
        <time>2022-08-02T14:02:59Z</time>
      </trkpt>
      <trkpt lat="45.79271" lon="1.86267">
        <ele>657.9</ele>
        <time>2022-08-02T14:03:01Z</time>
      </trkpt>
      <trkpt lat="45.79273" lon="1.86263">
        <ele>657.9</ele>
        <time>2022-08-02T14:03:03Z</time>
      </trkpt>
      <trkpt lat="45.79275" lon="1.8626">
        <ele>657.7</ele>
        <time>2022-08-02T14:03:05Z</time>
      </trkpt>
      <trkpt lat="45.79275" lon="1.86259">
        <ele>657.8</ele>
        <time>2022-08-02T14:03:07Z</time>
      </trkpt>
      <trkpt lat="45.79275" lon="1.86259">
        <ele>657.8</ele>
        <time>2022-08-02T14:03:09Z</time>
      </trkpt>
      <trkpt lat="45.79275" lon="1.86259">
        <ele>657.8</ele>
        <time>2022-08-02T14:03:11Z</time>
      </trkpt>
      <trkpt lat="45.79276" lon="1.8626">
        <ele>657.6</ele>
        <time>2022-08-02T14:03:15Z</time>
      </trkpt>
      <trkpt lat="45.79289" lon="1.86234">
        <ele>656.3</ele>
        <time>2022-08-02T14:04:03Z</time>
      </trkpt>
      <trkpt lat="45.79292" lon="1.86231">
        <ele>655.9</ele>
        <time>2022-08-02T14:04:05Z</time>
      </trkpt>
      <trkpt lat="45.79295" lon="1.86227">
        <ele>655.3</ele>
        <time>2022-08-02T14:04:07Z</time>
      </trkpt>
      <trkpt lat="45.79299" lon="1.86223">
        <ele>654.6</ele>
        <time>2022-08-02T14:04:09Z</time>
      </trkpt>
      <trkpt lat="45.79303" lon="1.86221">
        <ele>653.9</ele>
        <time>2022-08-02T14:04:11Z</time>
      </trkpt>
      <trkpt lat="45.79307" lon="1.86219">
        <ele>653.2</ele>
        <time>2022-08-02T14:04:13Z</time>
      </trkpt>
      <trkpt lat="45.79312" lon="1.86217">
        <ele>652.3</ele>
        <time>2022-08-02T14:04:15Z</time>
      </trkpt>
      <trkpt lat="45.79318" lon="1.86215">
        <ele>651.2</ele>
        <time>2022-08-02T14:04:17Z</time>
      </trkpt>
      <trkpt lat="45.79324" lon="1.86218">
        <ele>649.9</ele>
        <time>2022-08-02T14:04:19Z</time>
      </trkpt>
      <trkpt lat="45.7933" lon="1.8622">
        <ele>648.7</ele>
        <time>2022-08-02T14:04:21Z</time>
      </trkpt>
      <trkpt lat="45.79337" lon="1.86221">
        <ele>648</ele>
        <time>2022-08-02T14:04:23Z</time>
      </trkpt>
      <trkpt lat="45.79344" lon="1.86222">
        <ele>648</ele>
        <time>2022-08-02T14:04:25Z</time>
      </trkpt>
      <trkpt lat="45.7935" lon="1.86223">
        <ele>648</ele>
        <time>2022-08-02T14:04:27Z</time>
      </trkpt>
      <trkpt lat="45.79357" lon="1.86225">
        <ele>648</ele>
        <time>2022-08-02T14:04:29Z</time>
      </trkpt>
      <trkpt lat="45.79363" lon="1.86225">
        <ele>648</ele>
        <time>2022-08-02T14:04:31Z</time>
      </trkpt>
      <trkpt lat="45.7937" lon="1.86225">
        <ele>648</ele>
        <time>2022-08-02T14:04:33Z</time>
      </trkpt>
      <trkpt lat="45.79375" lon="1.86227">
        <ele>648</ele>
        <time>2022-08-02T14:04:35Z</time>
      </trkpt>
      <trkpt lat="45.79381" lon="1.86227">
        <ele>648</ele>
        <time>2022-08-02T14:04:37Z</time>
      </trkpt>
      <trkpt lat="45.79387" lon="1.86229">
        <ele>648</ele>
        <time>2022-08-02T14:04:39Z</time>
      </trkpt>
      <trkpt lat="45.79394" lon="1.8623">
        <ele>648</ele>
        <time>2022-08-02T14:04:41Z</time>
      </trkpt>
      <trkpt lat="45.794" lon="1.86231">
        <ele>648</ele>
        <time>2022-08-02T14:04:43Z</time>
      </trkpt>
      <trkpt lat="45.79407" lon="1.86232">
        <ele>648</ele>
        <time>2022-08-02T14:04:45Z</time>
      </trkpt>
      <trkpt lat="45.79414" lon="1.86233">
        <ele>648</ele>
        <time>2022-08-02T14:04:47Z</time>
      </trkpt>
      <trkpt lat="45.79421" lon="1.86234">
        <ele>648</ele>
        <time>2022-08-02T14:04:49Z</time>
      </trkpt>
      <trkpt lat="45.79427" lon="1.86235">
        <ele>648</ele>
        <time>2022-08-02T14:04:51Z</time>
      </trkpt>
      <trkpt lat="45.79434" lon="1.86236">
        <ele>648</ele>
        <time>2022-08-02T14:04:53Z</time>
      </trkpt>
      <trkpt lat="45.79441" lon="1.86238">
        <ele>648</ele>
        <time>2022-08-02T14:04:55Z</time>
      </trkpt>
      <trkpt lat="45.79447" lon="1.86239">
        <ele>648</ele>
        <time>2022-08-02T14:04:57Z</time>
      </trkpt>
      <trkpt lat="45.79454" lon="1.8624">
        <ele>648</ele>
        <time>2022-08-02T14:04:59Z</time>
      </trkpt>
      <trkpt lat="45.79461" lon="1.86243">
        <ele>648</ele>
        <time>2022-08-02T14:05:01Z</time>
      </trkpt>
      <trkpt lat="45.79468" lon="1.86247">
        <ele>648</ele>
        <time>2022-08-02T14:05:03Z</time>
      </trkpt>
      <trkpt lat="45.79475" lon="1.86251">
        <ele>648</ele>
        <time>2022-08-02T14:05:05Z</time>
      </trkpt>
      <trkpt lat="45.79481" lon="1.86256">
        <ele>648.2</ele>
        <time>2022-08-02T14:05:07Z</time>
      </trkpt>
      <trkpt lat="45.79487" lon="1.86263">
        <ele>648.4</ele>
        <time>2022-08-02T14:05:09Z</time>
      </trkpt>
      <trkpt lat="45.79493" lon="1.86269">
        <ele>648.6</ele>
        <time>2022-08-02T14:05:11Z</time>
      </trkpt>
      <trkpt lat="45.79499" lon="1.86275">
        <ele>648.9</ele>
        <time>2022-08-02T14:05:13Z</time>
      </trkpt>
      <trkpt lat="45.79504" lon="1.86281">
        <ele>649.1</ele>
        <time>2022-08-02T14:05:15Z</time>
      </trkpt>
      <trkpt lat="45.7951" lon="1.86286">
        <ele>649.1</ele>
        <time>2022-08-02T14:05:17Z</time>
      </trkpt>
      <trkpt lat="45.79515" lon="1.86292">
        <ele>649.2</ele>
        <time>2022-08-02T14:05:19Z</time>
      </trkpt>
      <trkpt lat="45.7952" lon="1.86298">
        <ele>649.3</ele>
        <time>2022-08-02T14:05:21Z</time>
      </trkpt>
      <trkpt lat="45.79525" lon="1.86303">
        <ele>649.3</ele>
        <time>2022-08-02T14:05:23Z</time>
      </trkpt>
      <trkpt lat="45.79531" lon="1.86309">
        <ele>649.3</ele>
        <time>2022-08-02T14:05:25Z</time>
      </trkpt>
      <trkpt lat="45.79536" lon="1.86315">
        <ele>649.3</ele>
        <time>2022-08-02T14:05:27Z</time>
      </trkpt>
      <trkpt lat="45.79542" lon="1.8632">
        <ele>649.3</ele>
        <time>2022-08-02T14:05:29Z</time>
      </trkpt>
      <trkpt lat="45.79547" lon="1.86325">
        <ele>649.2</ele>
        <time>2022-08-02T14:05:31Z</time>
      </trkpt>
      <trkpt lat="45.79552" lon="1.8633">
        <ele>649.1</ele>
        <time>2022-08-02T14:05:33Z</time>
      </trkpt>
      <trkpt lat="45.79557" lon="1.86336">
        <ele>649</ele>
        <time>2022-08-02T14:05:35Z</time>
      </trkpt>
      <trkpt lat="45.79562" lon="1.86341">
        <ele>648.9</ele>
        <time>2022-08-02T14:05:37Z</time>
      </trkpt>
      <trkpt lat="45.79567" lon="1.86346">
        <ele>648.9</ele>
        <time>2022-08-02T14:05:39Z</time>
      </trkpt>
      <trkpt lat="45.79572" lon="1.86351">
        <ele>648.9</ele>
        <time>2022-08-02T14:05:41Z</time>
      </trkpt>
      <trkpt lat="45.79576" lon="1.86356">
        <ele>648.9</ele>
        <time>2022-08-02T14:05:43Z</time>
      </trkpt>
      <trkpt lat="45.79581" lon="1.86361">
        <ele>649</ele>
        <time>2022-08-02T14:05:45Z</time>
      </trkpt>
      <trkpt lat="45.79586" lon="1.86366">
        <ele>649.2</ele>
        <time>2022-08-02T14:05:47Z</time>
      </trkpt>
      <trkpt lat="45.79589" lon="1.86369">
        <ele>649.2</ele>
        <time>2022-08-02T14:05:49Z</time>
      </trkpt>
      <trkpt lat="45.79592" lon="1.86372">
        <ele>649.3</ele>
        <time>2022-08-02T14:05:51Z</time>
      </trkpt>
      <trkpt lat="45.79595" lon="1.86376">
        <ele>649.3</ele>
        <time>2022-08-02T14:05:53Z</time>
      </trkpt>
      <trkpt lat="45.79599" lon="1.86379">
        <ele>649.4</ele>
        <time>2022-08-02T14:05:55Z</time>
      </trkpt>
      <trkpt lat="45.79602" lon="1.86383">
        <ele>649.4</ele>
        <time>2022-08-02T14:05:57Z</time>
      </trkpt>
      <trkpt lat="45.79606" lon="1.86388">
        <ele>649.4</ele>
        <time>2022-08-02T14:05:59Z</time>
      </trkpt>
      <trkpt lat="45.79611" lon="1.86393">
        <ele>649.4</ele>
        <time>2022-08-02T14:06:01Z</time>
      </trkpt>
      <trkpt lat="45.79615" lon="1.86398">
        <ele>649.4</ele>
        <time>2022-08-02T14:06:03Z</time>
      </trkpt>
      <trkpt lat="45.7962" lon="1.86403">
        <ele>649.4</ele>
        <time>2022-08-02T14:06:05Z</time>
      </trkpt>
      <trkpt lat="45.79625" lon="1.86408">
        <ele>649.3</ele>
        <time>2022-08-02T14:06:07Z</time>
      </trkpt>
      <trkpt lat="45.7963" lon="1.86413">
        <ele>649.3</ele>
        <time>2022-08-02T14:06:09Z</time>
      </trkpt>
      <trkpt lat="45.79635" lon="1.86418">
        <ele>649.1</ele>
        <time>2022-08-02T14:06:11Z</time>
      </trkpt>
      <trkpt lat="45.7964" lon="1.86424">
        <ele>649.1</ele>
        <time>2022-08-02T14:06:13Z</time>
      </trkpt>
      <trkpt lat="45.79645" lon="1.86429">
        <ele>649</ele>
        <time>2022-08-02T14:06:15Z</time>
      </trkpt>
      <trkpt lat="45.7965" lon="1.86434">
        <ele>649</ele>
        <time>2022-08-02T14:06:17Z</time>
      </trkpt>
      <trkpt lat="45.79655" lon="1.86439">
        <ele>649</ele>
        <time>2022-08-02T14:06:19Z</time>
      </trkpt>
      <trkpt lat="45.79661" lon="1.86445">
        <ele>649.1</ele>
        <time>2022-08-02T14:06:21Z</time>
      </trkpt>
      <trkpt lat="45.79666" lon="1.8645">
        <ele>649.2</ele>
        <time>2022-08-02T14:06:23Z</time>
      </trkpt>
      <trkpt lat="45.79671" lon="1.86456">
        <ele>649.8</ele>
        <time>2022-08-02T14:06:25Z</time>
      </trkpt>
      <trkpt lat="45.79676" lon="1.86461">
        <ele>650.6</ele>
        <time>2022-08-02T14:06:27Z</time>
      </trkpt>
      <trkpt lat="45.79681" lon="1.86467">
        <ele>651.4</ele>
        <time>2022-08-02T14:06:29Z</time>
      </trkpt>
      <trkpt lat="45.79686" lon="1.86472">
        <ele>652.2</ele>
        <time>2022-08-02T14:06:31Z</time>
      </trkpt>
      <trkpt lat="45.79692" lon="1.86478">
        <ele>653</ele>
        <time>2022-08-02T14:06:33Z</time>
      </trkpt>
      <trkpt lat="45.79697" lon="1.86483">
        <ele>653.8</ele>
        <time>2022-08-02T14:06:35Z</time>
      </trkpt>
      <trkpt lat="45.79702" lon="1.86488">
        <ele>654.7</ele>
        <time>2022-08-02T14:06:37Z</time>
      </trkpt>
      <trkpt lat="45.79708" lon="1.86494">
        <ele>655.7</ele>
        <time>2022-08-02T14:06:39Z</time>
      </trkpt>
      <trkpt lat="45.79713" lon="1.86499">
        <ele>656.6</ele>
        <time>2022-08-02T14:06:41Z</time>
      </trkpt>
      <trkpt lat="45.79719" lon="1.86502">
        <ele>657.4</ele>
        <time>2022-08-02T14:06:43Z</time>
      </trkpt>
      <trkpt lat="45.79724" lon="1.86504">
        <ele>658.2</ele>
        <time>2022-08-02T14:06:45Z</time>
      </trkpt>
      <trkpt lat="45.79728" lon="1.86506">
        <ele>659</ele>
        <time>2022-08-02T14:06:47Z</time>
      </trkpt>
      <trkpt lat="45.79731" lon="1.86508">
        <ele>659.4</ele>
        <time>2022-08-02T14:06:49Z</time>
      </trkpt>
      <trkpt lat="45.79733" lon="1.86509">
        <ele>659.6</ele>
        <time>2022-08-02T14:06:51Z</time>
      </trkpt>
      <trkpt lat="45.79734" lon="1.86506">
        <ele>659.6</ele>
        <time>2022-08-02T14:06:53Z</time>
      </trkpt>
      <trkpt lat="45.79739" lon="1.86506">
        <ele>660.1</ele>
        <time>2022-08-02T14:06:55Z</time>
      </trkpt>
      <trkpt lat="45.79741" lon="1.86505">
        <ele>660.4</ele>
        <time>2022-08-02T14:06:57Z</time>
      </trkpt>
      <trkpt lat="45.79744" lon="1.86504">
        <ele>660.5</ele>
        <time>2022-08-02T14:06:59Z</time>
      </trkpt>
      <trkpt lat="45.79746" lon="1.86501">
        <ele>660.6</ele>
        <time>2022-08-02T14:07:01Z</time>
      </trkpt>
      <trkpt lat="45.79746" lon="1.86499">
        <ele>660.4</ele>
        <time>2022-08-02T14:07:03Z</time>
      </trkpt>
      <trkpt lat="45.79747" lon="1.86496">
        <ele>660.4</ele>
        <time>2022-08-02T14:07:05Z</time>
      </trkpt>
      <trkpt lat="45.79747" lon="1.86495">
        <ele>660.4</ele>
        <time>2022-08-02T14:07:07Z</time>
      </trkpt>
      <trkpt lat="45.79759" lon="1.86472">
        <ele>660.8</ele>
        <time>2022-08-02T14:08:35Z</time>
      </trkpt>
      <trkpt lat="45.79762" lon="1.86463">
        <ele>660.6</ele>
        <time>2022-08-02T14:08:37Z</time>
      </trkpt>
      <trkpt lat="45.79765" lon="1.86456">
        <ele>660.5</ele>
        <time>2022-08-02T14:08:39Z</time>
      </trkpt>
      <trkpt lat="45.79771" lon="1.8645">
        <ele>660.8</ele>
        <time>2022-08-02T14:08:41Z</time>
      </trkpt>
      <trkpt lat="45.79776" lon="1.8645">
        <ele>661.6</ele>
        <time>2022-08-02T14:08:43Z</time>
      </trkpt>
      <trkpt lat="45.79778" lon="1.8645">
        <ele>661.8</ele>
        <time>2022-08-02T14:08:45Z</time>
      </trkpt>
      <trkpt lat="45.79781" lon="1.86448">
        <ele>661.9</ele>
        <time>2022-08-02T14:08:47Z</time>
      </trkpt>
      <trkpt lat="45.79784" lon="1.86448">
        <ele>662.3</ele>
        <time>2022-08-02T14:08:49Z</time>
      </trkpt>
      <trkpt lat="45.79787" lon="1.86445">
        <ele>662.5</ele>
        <time>2022-08-02T14:08:51Z</time>
      </trkpt>
      <trkpt lat="45.7979" lon="1.86442">
        <ele>662.5</ele>
        <time>2022-08-02T14:08:53Z</time>
      </trkpt>
      <trkpt lat="45.79793" lon="1.8644">
        <ele>662.7</ele>
        <time>2022-08-02T14:08:55Z</time>
      </trkpt>
      <trkpt lat="45.79797" lon="1.8644">
        <ele>663.1</ele>
        <time>2022-08-02T14:08:57Z</time>
      </trkpt>
      <trkpt lat="45.79801" lon="1.86439">
        <ele>663.5</ele>
        <time>2022-08-02T14:08:59Z</time>
      </trkpt>
      <trkpt lat="45.79804" lon="1.86437">
        <ele>663.8</ele>
        <time>2022-08-02T14:09:01Z</time>
      </trkpt>
      <trkpt lat="45.79808" lon="1.86436">
        <ele>664</ele>
        <time>2022-08-02T14:09:03Z</time>
      </trkpt>
      <trkpt lat="45.79813" lon="1.86433">
        <ele>664.2</ele>
        <time>2022-08-02T14:09:05Z</time>
      </trkpt>
      <trkpt lat="45.79815" lon="1.86431">
        <ele>664.2</ele>
        <time>2022-08-02T14:09:07Z</time>
      </trkpt>
      <trkpt lat="45.79818" lon="1.8643">
        <ele>664.3</ele>
        <time>2022-08-02T14:09:09Z</time>
      </trkpt>
      <trkpt lat="45.79821" lon="1.86426">
        <ele>664.2</ele>
        <time>2022-08-02T14:09:11Z</time>
      </trkpt>
      <trkpt lat="45.79824" lon="1.86424">
        <ele>664.2</ele>
        <time>2022-08-02T14:09:13Z</time>
      </trkpt>
      <trkpt lat="45.79828" lon="1.86422">
        <ele>664.3</ele>
        <time>2022-08-02T14:09:15Z</time>
      </trkpt>
      <trkpt lat="45.79831" lon="1.8642">
        <ele>664.2</ele>
        <time>2022-08-02T14:09:17Z</time>
      </trkpt>
      <trkpt lat="45.79833" lon="1.86419">
        <ele>664.3</ele>
        <time>2022-08-02T14:09:19Z</time>
      </trkpt>
      <trkpt lat="45.79837" lon="1.86418">
        <ele>664.3</ele>
        <time>2022-08-02T14:09:21Z</time>
      </trkpt>
      <trkpt lat="45.79839" lon="1.86416">
        <ele>664.2</ele>
        <time>2022-08-02T14:09:22Z</time>
      </trkpt>
      <trkpt lat="45.79841" lon="1.86414">
        <ele>664</ele>
        <time>2022-08-02T14:09:24Z</time>
      </trkpt>
      <trkpt lat="45.79846" lon="1.86412">
        <ele>663.9</ele>
        <time>2022-08-02T14:09:26Z</time>
      </trkpt>
      <trkpt lat="45.7985" lon="1.8641">
        <ele>663.7</ele>
        <time>2022-08-02T14:09:28Z</time>
      </trkpt>
      <trkpt lat="45.79855" lon="1.86405">
        <ele>663.2</ele>
        <time>2022-08-02T14:09:31Z</time>
      </trkpt>
      <trkpt lat="45.7986" lon="1.86403">
        <ele>663.2</ele>
        <time>2022-08-02T14:09:33Z</time>
      </trkpt>
      <trkpt lat="45.79865" lon="1.864">
        <ele>663</ele>
        <time>2022-08-02T14:09:35Z</time>
      </trkpt>
      <trkpt lat="45.79869" lon="1.86399">
        <ele>663.1</ele>
        <time>2022-08-02T14:09:37Z</time>
      </trkpt>
      <trkpt lat="45.79874" lon="1.86396">
        <ele>663</ele>
        <time>2022-08-02T14:09:39Z</time>
      </trkpt>
      <trkpt lat="45.79878" lon="1.86394">
        <ele>662.9</ele>
        <time>2022-08-02T14:09:41Z</time>
      </trkpt>
      <trkpt lat="45.79882" lon="1.86393">
        <ele>663</ele>
        <time>2022-08-02T14:09:43Z</time>
      </trkpt>
      <trkpt lat="45.79886" lon="1.86393">
        <ele>663.3</ele>
        <time>2022-08-02T14:09:45Z</time>
      </trkpt>
      <trkpt lat="45.79889" lon="1.86394">
        <ele>663.7</ele>
        <time>2022-08-02T14:09:47Z</time>
      </trkpt>
      <trkpt lat="45.79891" lon="1.86396">
        <ele>664.2</ele>
        <time>2022-08-02T14:09:49Z</time>
      </trkpt>
      <trkpt lat="45.79894" lon="1.86397">
        <ele>664.5</ele>
        <time>2022-08-02T14:09:51Z</time>
      </trkpt>
      <trkpt lat="45.79898" lon="1.86396">
        <ele>664.7</ele>
        <time>2022-08-02T14:09:53Z</time>
      </trkpt>
      <trkpt lat="45.79903" lon="1.86397">
        <ele>665.2</ele>
        <time>2022-08-02T14:09:55Z</time>
      </trkpt>
      <trkpt lat="45.79906" lon="1.86398">
        <ele>665.6</ele>
        <time>2022-08-02T14:09:57Z</time>
      </trkpt>
      <trkpt lat="45.79909" lon="1.86399">
        <ele>666</ele>
        <time>2022-08-02T14:09:59Z</time>
      </trkpt>
      <trkpt lat="45.79912" lon="1.864">
        <ele>666.2</ele>
        <time>2022-08-02T14:10:01Z</time>
      </trkpt>
      <trkpt lat="45.79914" lon="1.86399">
        <ele>666.4</ele>
        <time>2022-08-02T14:10:03Z</time>
      </trkpt>
      <trkpt lat="45.79917" lon="1.86401">
        <ele>666.7</ele>
        <time>2022-08-02T14:10:05Z</time>
      </trkpt>
      <trkpt lat="45.79919" lon="1.86403">
        <ele>667</ele>
        <time>2022-08-02T14:10:07Z</time>
      </trkpt>
      <trkpt lat="45.79922" lon="1.86403">
        <ele>667.2</ele>
        <time>2022-08-02T14:10:09Z</time>
      </trkpt>
      <trkpt lat="45.79925" lon="1.86404">
        <ele>667.4</ele>
        <time>2022-08-02T14:10:11Z</time>
      </trkpt>
      <trkpt lat="45.79927" lon="1.86405">
        <ele>667.5</ele>
        <time>2022-08-02T14:10:13Z</time>
      </trkpt>
      <trkpt lat="45.7993" lon="1.86404">
        <ele>667.5</ele>
        <time>2022-08-02T14:10:15Z</time>
      </trkpt>
      <trkpt lat="45.79931" lon="1.86404">
        <ele>667.5</ele>
        <time>2022-08-02T14:10:17Z</time>
      </trkpt>
      <trkpt lat="45.79933" lon="1.86404">
        <ele>667.4</ele>
        <time>2022-08-02T14:10:19Z</time>
      </trkpt>
      <trkpt lat="45.79933" lon="1.86403">
        <ele>667.4</ele>
        <time>2022-08-02T14:10:21Z</time>
      </trkpt>
      <trkpt lat="45.79933" lon="1.86402">
        <ele>667.2</ele>
        <time>2022-08-02T14:10:23Z</time>
      </trkpt>
      <trkpt lat="45.79934" lon="1.86402">
        <ele>667.1</ele>
        <time>2022-08-02T14:10:25Z</time>
      </trkpt>
      <trkpt lat="45.80057" lon="1.86542">
        <ele>684</ele>
        <time>2022-08-02T16:17:45Z</time>
      </trkpt>
      <trkpt lat="45.80061" lon="1.8652">
        <ele>681.8</ele>
        <time>2022-08-02T16:17:47Z</time>
      </trkpt>
      <trkpt lat="45.8005" lon="1.86501">
        <ele>680.7</ele>
        <time>2022-08-02T16:18:07Z</time>
      </trkpt>
      <trkpt lat="45.80045" lon="1.86502">
        <ele>681</ele>
        <time>2022-08-02T16:18:09Z</time>
      </trkpt>
      <trkpt lat="45.8004" lon="1.86502">
        <ele>681.3</ele>
        <time>2022-08-02T16:18:11Z</time>
      </trkpt>
      <trkpt lat="45.80036" lon="1.86502">
        <ele>681.4</ele>
        <time>2022-08-02T16:18:13Z</time>
      </trkpt>
      <trkpt lat="45.80033" lon="1.86503">
        <ele>681.7</ele>
        <time>2022-08-02T16:18:15Z</time>
      </trkpt>
      <trkpt lat="45.80029" lon="1.865">
        <ele>681.6</ele>
        <time>2022-08-02T16:18:17Z</time>
      </trkpt>
      <trkpt lat="45.80027" lon="1.86492">
        <ele>680.8</ele>
        <time>2022-08-02T16:18:19Z</time>
      </trkpt>
      <trkpt lat="45.80021" lon="1.86491">
        <ele>680.9</ele>
        <time>2022-08-02T16:18:21Z</time>
      </trkpt>
      <trkpt lat="45.80019" lon="1.86493">
        <ele>681.2</ele>
        <time>2022-08-02T16:18:23Z</time>
      </trkpt>
      <trkpt lat="45.80017" lon="1.86497">
        <ele>681.8</ele>
        <time>2022-08-02T16:18:25Z</time>
      </trkpt>
      <trkpt lat="45.80013" lon="1.86499">
        <ele>682.3</ele>
        <time>2022-08-02T16:18:27Z</time>
      </trkpt>
      <trkpt lat="45.80008" lon="1.86499">
        <ele>682.5</ele>
        <time>2022-08-02T16:18:29Z</time>
      </trkpt>
      <trkpt lat="45.80003" lon="1.86498">
        <ele>682.6</ele>
        <time>2022-08-02T16:18:31Z</time>
      </trkpt>
      <trkpt lat="45.79998" lon="1.86497">
        <ele>682.7</ele>
        <time>2022-08-02T16:18:33Z</time>
      </trkpt>
      <trkpt lat="45.79993" lon="1.86496">
        <ele>682.9</ele>
        <time>2022-08-02T16:18:35Z</time>
      </trkpt>
      <trkpt lat="45.79987" lon="1.86496">
        <ele>683.1</ele>
        <time>2022-08-02T16:18:37Z</time>
      </trkpt>
      <trkpt lat="45.79981" lon="1.86494">
        <ele>683.2</ele>
        <time>2022-08-02T16:18:39Z</time>
      </trkpt>
      <trkpt lat="45.79974" lon="1.86492">
        <ele>683.3</ele>
        <time>2022-08-02T16:18:41Z</time>
      </trkpt>
      <trkpt lat="45.79966" lon="1.86491">
        <ele>683.4</ele>
        <time>2022-08-02T16:18:43Z</time>
      </trkpt>
      <trkpt lat="45.79959" lon="1.86488">
        <ele>683.2</ele>
        <time>2022-08-02T16:18:45Z</time>
      </trkpt>
      <trkpt lat="45.79955" lon="1.86485">
        <ele>682.9</ele>
        <time>2022-08-02T16:18:47Z</time>
      </trkpt>
      <trkpt lat="45.79948" lon="1.86486">
        <ele>683.4</ele>
        <time>2022-08-02T16:18:49Z</time>
      </trkpt>
      <trkpt lat="45.79943" lon="1.86487">
        <ele>683.7</ele>
        <time>2022-08-02T16:18:51Z</time>
      </trkpt>
      <trkpt lat="45.79938" lon="1.86485">
        <ele>683.5</ele>
        <time>2022-08-02T16:18:53Z</time>
      </trkpt>
      <trkpt lat="45.79932" lon="1.86483">
        <ele>683.4</ele>
        <time>2022-08-02T16:18:55Z</time>
      </trkpt>
      <trkpt lat="45.79924" lon="1.86479">
        <ele>683</ele>
        <time>2022-08-02T16:18:57Z</time>
      </trkpt>
      <trkpt lat="45.79916" lon="1.86476">
        <ele>682.4</ele>
        <time>2022-08-02T16:18:59Z</time>
      </trkpt>
      <trkpt lat="45.79908" lon="1.86471">
        <ele>680.4</ele>
        <time>2022-08-02T16:19:01Z</time>
      </trkpt>
      <trkpt lat="45.799" lon="1.86471">
        <ele>679.7</ele>
        <time>2022-08-02T16:19:03Z</time>
      </trkpt>
      <trkpt lat="45.79891" lon="1.86472">
        <ele>678.9</ele>
        <time>2022-08-02T16:19:05Z</time>
      </trkpt>
      <trkpt lat="45.79882" lon="1.8647">
        <ele>677.6</ele>
        <time>2022-08-02T16:19:07Z</time>
      </trkpt>
      <trkpt lat="45.79873" lon="1.8647">
        <ele>676.5</ele>
        <time>2022-08-02T16:19:09Z</time>
      </trkpt>
      <trkpt lat="45.79864" lon="1.86472">
        <ele>675.9</ele>
        <time>2022-08-02T16:19:11Z</time>
      </trkpt>
      <trkpt lat="45.79853" lon="1.8647">
        <ele>674.5</ele>
        <time>2022-08-02T16:19:13Z</time>
      </trkpt>
      <trkpt lat="45.79844" lon="1.86464">
        <ele>672.4</ele>
        <time>2022-08-02T16:19:15Z</time>
      </trkpt>
      <trkpt lat="45.79833" lon="1.86468">
        <ele>671.9</ele>
        <time>2022-08-02T16:19:17Z</time>
      </trkpt>
      <trkpt lat="45.79824" lon="1.86472">
        <ele>671.2</ele>
        <time>2022-08-02T16:19:19Z</time>
      </trkpt>
      <trkpt lat="45.79814" lon="1.86473">
        <ele>669.7</ele>
        <time>2022-08-02T16:19:21Z</time>
      </trkpt>
      <trkpt lat="45.79807" lon="1.86475">
        <ele>668.8</ele>
        <time>2022-08-02T16:19:23Z</time>
      </trkpt>
      <trkpt lat="45.79801" lon="1.86479">
        <ele>668.3</ele>
        <time>2022-08-02T16:19:25Z</time>
      </trkpt>
      <trkpt lat="45.79794" lon="1.86486">
        <ele>667.8</ele>
        <time>2022-08-02T16:19:27Z</time>
      </trkpt>
      <trkpt lat="45.79786" lon="1.86488">
        <ele>666.8</ele>
        <time>2022-08-02T16:19:29Z</time>
      </trkpt>
      <trkpt lat="45.79777" lon="1.86492">
        <ele>665.4</ele>
        <time>2022-08-02T16:19:31Z</time>
      </trkpt>
      <trkpt lat="45.79769" lon="1.86496">
        <ele>664.3</ele>
        <time>2022-08-02T16:19:33Z</time>
      </trkpt>
      <trkpt lat="45.7976" lon="1.865">
        <ele>662.9</ele>
        <time>2022-08-02T16:19:35Z</time>
      </trkpt>
      <trkpt lat="45.79752" lon="1.86506">
        <ele>661.8</ele>
        <time>2022-08-02T16:19:37Z</time>
      </trkpt>
      <trkpt lat="45.79745" lon="1.86509">
        <ele>661.1</ele>
        <time>2022-08-02T16:19:39Z</time>
      </trkpt>
      <trkpt lat="45.79733" lon="1.86507">
        <ele>659.5</ele>
        <time>2022-08-02T16:19:41Z</time>
      </trkpt>
      <trkpt lat="45.79724" lon="1.86507">
        <ele>658.4</ele>
        <time>2022-08-02T16:19:43Z</time>
      </trkpt>
      <trkpt lat="45.79714" lon="1.865">
        <ele>656.7</ele>
        <time>2022-08-02T16:19:45Z</time>
      </trkpt>
      <trkpt lat="45.79707" lon="1.86493">
        <ele>655.5</ele>
        <time>2022-08-02T16:19:47Z</time>
      </trkpt>
      <trkpt lat="45.79706" lon="1.86491">
        <ele>655.3</ele>
        <time>2022-08-02T16:19:49Z</time>
      </trkpt>
      <trkpt lat="45.79707" lon="1.86491">
        <ele>655.4</ele>
        <time>2022-08-02T16:19:51Z</time>
      </trkpt>
      <trkpt lat="45.79707" lon="1.86491">
        <ele>655.4</ele>
        <time>2022-08-02T16:19:53Z</time>
      </trkpt>
      <trkpt lat="45.79707" lon="1.86491">
        <ele>655.4</ele>
        <time>2022-08-02T16:19:55Z</time>
      </trkpt>
      <trkpt lat="45.79707" lon="1.86491">
        <ele>655.4</ele>
        <time>2022-08-02T16:19:57Z</time>
      </trkpt>
      <trkpt lat="45.79707" lon="1.86491">
        <ele>655.4</ele>
        <time>2022-08-02T16:19:59Z</time>
      </trkpt>
      <trkpt lat="45.79696" lon="1.8648">
        <ele>653.7</ele>
        <time>2022-08-02T16:20:47Z</time>
      </trkpt>
      <trkpt lat="45.79692" lon="1.86476">
        <ele>653</ele>
        <time>2022-08-02T16:20:49Z</time>
      </trkpt>
      <trkpt lat="45.79687" lon="1.86472">
        <ele>652.3</ele>
        <time>2022-08-02T16:20:51Z</time>
      </trkpt>
      <trkpt lat="45.79682" lon="1.86467">
        <ele>651.5</ele>
        <time>2022-08-02T16:20:53Z</time>
      </trkpt>
      <trkpt lat="45.79677" lon="1.86462">
        <ele>650.7</ele>
        <time>2022-08-02T16:20:55Z</time>
      </trkpt>
      <trkpt lat="45.79671" lon="1.86457">
        <ele>650</ele>
        <time>2022-08-02T16:20:57Z</time>
      </trkpt>
      <trkpt lat="45.79667" lon="1.8645">
        <ele>649.3</ele>
        <time>2022-08-02T16:20:59Z</time>
      </trkpt>
      <trkpt lat="45.79662" lon="1.86444">
        <ele>649</ele>
        <time>2022-08-02T16:21:01Z</time>
      </trkpt>
      <trkpt lat="45.79657" lon="1.86438">
        <ele>649</ele>
        <time>2022-08-02T16:21:03Z</time>
      </trkpt>
      <trkpt lat="45.79651" lon="1.86433">
        <ele>648.9</ele>
        <time>2022-08-02T16:21:05Z</time>
      </trkpt>
      <trkpt lat="45.79645" lon="1.86427">
        <ele>648.9</ele>
        <time>2022-08-02T16:21:07Z</time>
      </trkpt>
      <trkpt lat="45.79639" lon="1.8642">
        <ele>649</ele>
        <time>2022-08-02T16:21:09Z</time>
      </trkpt>
      <trkpt lat="45.79633" lon="1.86414">
        <ele>649.2</ele>
        <time>2022-08-02T16:21:11Z</time>
      </trkpt>
      <trkpt lat="45.79627" lon="1.86408">
        <ele>649.3</ele>
        <time>2022-08-02T16:21:13Z</time>
      </trkpt>
      <trkpt lat="45.79622" lon="1.86402">
        <ele>649.3</ele>
        <time>2022-08-02T16:21:15Z</time>
      </trkpt>
      <trkpt lat="45.79616" lon="1.86396">
        <ele>649.4</ele>
        <time>2022-08-02T16:21:17Z</time>
      </trkpt>
      <trkpt lat="45.7961" lon="1.8639">
        <ele>649.4</ele>
        <time>2022-08-02T16:21:19Z</time>
      </trkpt>
      <trkpt lat="45.79605" lon="1.86384">
        <ele>649.4</ele>
        <time>2022-08-02T16:21:21Z</time>
      </trkpt>
      <trkpt lat="45.79599" lon="1.86378">
        <ele>649.3</ele>
        <time>2022-08-02T16:21:23Z</time>
      </trkpt>
      <trkpt lat="45.79593" lon="1.86371">
        <ele>649.2</ele>
        <time>2022-08-02T16:21:25Z</time>
      </trkpt>
      <trkpt lat="45.79586" lon="1.86365">
        <ele>649.1</ele>
        <time>2022-08-02T16:21:27Z</time>
      </trkpt>
      <trkpt lat="45.79579" lon="1.86358">
        <ele>649</ele>
        <time>2022-08-02T16:21:29Z</time>
      </trkpt>
      <trkpt lat="45.79573" lon="1.86352">
        <ele>648.9</ele>
        <time>2022-08-02T16:21:31Z</time>
      </trkpt>
      <trkpt lat="45.79567" lon="1.86346">
        <ele>648.9</ele>
        <time>2022-08-02T16:21:33Z</time>
      </trkpt>
      <trkpt lat="45.79561" lon="1.86339">
        <ele>648.9</ele>
        <time>2022-08-02T16:21:35Z</time>
      </trkpt>
      <trkpt lat="45.79554" lon="1.86331">
        <ele>649</ele>
        <time>2022-08-02T16:21:37Z</time>
      </trkpt>
      <trkpt lat="45.79547" lon="1.86325">
        <ele>649.2</ele>
        <time>2022-08-02T16:21:39Z</time>
      </trkpt>
      <trkpt lat="45.7954" lon="1.86318">
        <ele>649.3</ele>
        <time>2022-08-02T16:21:41Z</time>
      </trkpt>
      <trkpt lat="45.79533" lon="1.8631">
        <ele>649.3</ele>
        <time>2022-08-02T16:21:43Z</time>
      </trkpt>
      <trkpt lat="45.79526" lon="1.86301">
        <ele>649.3</ele>
        <time>2022-08-02T16:21:45Z</time>
      </trkpt>
      <trkpt lat="45.79518" lon="1.86294">
        <ele>649.2</ele>
        <time>2022-08-02T16:21:47Z</time>
      </trkpt>
      <trkpt lat="45.79511" lon="1.86287">
        <ele>649.2</ele>
        <time>2022-08-02T16:21:49Z</time>
      </trkpt>
      <trkpt lat="45.79504" lon="1.86279">
        <ele>649</ele>
        <time>2022-08-02T16:21:51Z</time>
      </trkpt>
      <trkpt lat="45.79497" lon="1.86272">
        <ele>648.8</ele>
        <time>2022-08-02T16:21:53Z</time>
      </trkpt>
      <trkpt lat="45.79491" lon="1.86265">
        <ele>648.5</ele>
        <time>2022-08-02T16:21:55Z</time>
      </trkpt>
      <trkpt lat="45.79484" lon="1.86258">
        <ele>648.2</ele>
        <time>2022-08-02T16:21:57Z</time>
      </trkpt>
      <trkpt lat="45.79477" lon="1.86252">
        <ele>648.1</ele>
        <time>2022-08-02T16:21:59Z</time>
      </trkpt>
      <trkpt lat="45.7947" lon="1.86246">
        <ele>648</ele>
        <time>2022-08-02T16:22:01Z</time>
      </trkpt>
      <trkpt lat="45.79462" lon="1.86242">
        <ele>648</ele>
        <time>2022-08-02T16:22:03Z</time>
      </trkpt>
      <trkpt lat="45.79454" lon="1.86239">
        <ele>648</ele>
        <time>2022-08-02T16:22:05Z</time>
      </trkpt>
      <trkpt lat="45.79446" lon="1.86238">
        <ele>648</ele>
        <time>2022-08-02T16:22:07Z</time>
      </trkpt>
      <trkpt lat="45.79438" lon="1.86236">
        <ele>648</ele>
        <time>2022-08-02T16:22:09Z</time>
      </trkpt>
      <trkpt lat="45.7943" lon="1.86235">
        <ele>648</ele>
        <time>2022-08-02T16:22:11Z</time>
      </trkpt>
      <trkpt lat="45.79422" lon="1.86234">
        <ele>648</ele>
        <time>2022-08-02T16:22:13Z</time>
      </trkpt>
      <trkpt lat="45.79413" lon="1.86233">
        <ele>648</ele>
        <time>2022-08-02T16:22:15Z</time>
      </trkpt>
      <trkpt lat="45.79405" lon="1.86232">
        <ele>648</ele>
        <time>2022-08-02T16:22:17Z</time>
      </trkpt>
      <trkpt lat="45.79396" lon="1.86231">
        <ele>648</ele>
        <time>2022-08-02T16:22:19Z</time>
      </trkpt>
      <trkpt lat="45.79387" lon="1.86229">
        <ele>648</ele>
        <time>2022-08-02T16:22:21Z</time>
      </trkpt>
      <trkpt lat="45.79378" lon="1.86227">
        <ele>648</ele>
        <time>2022-08-02T16:22:23Z</time>
      </trkpt>
      <trkpt lat="45.7937" lon="1.86226">
        <ele>648</ele>
        <time>2022-08-02T16:22:25Z</time>
      </trkpt>
      <trkpt lat="45.79362" lon="1.86224">
        <ele>648</ele>
        <time>2022-08-02T16:22:27Z</time>
      </trkpt>
      <trkpt lat="45.79354" lon="1.86224">
        <ele>648</ele>
        <time>2022-08-02T16:22:29Z</time>
      </trkpt>
      <trkpt lat="45.79347" lon="1.86222">
        <ele>648</ele>
        <time>2022-08-02T16:22:31Z</time>
      </trkpt>
      <trkpt lat="45.7934" lon="1.86221">
        <ele>648</ele>
        <time>2022-08-02T16:22:33Z</time>
      </trkpt>
      <trkpt lat="45.79333" lon="1.8622">
        <ele>648.2</ele>
        <time>2022-08-02T16:22:35Z</time>
      </trkpt>
      <trkpt lat="45.79325" lon="1.86219">
        <ele>649.7</ele>
        <time>2022-08-02T16:22:37Z</time>
      </trkpt>
      <trkpt lat="45.79316" lon="1.86218">
        <ele>651.4</ele>
        <time>2022-08-02T16:22:39Z</time>
      </trkpt>
      <trkpt lat="45.79308" lon="1.86218">
        <ele>653.1</ele>
        <time>2022-08-02T16:22:41Z</time>
      </trkpt>
      <trkpt lat="45.79299" lon="1.86222">
        <ele>654.7</ele>
        <time>2022-08-02T16:22:43Z</time>
      </trkpt>
      <trkpt lat="45.79292" lon="1.86228">
        <ele>656</ele>
        <time>2022-08-02T16:22:45Z</time>
      </trkpt>
      <trkpt lat="45.79287" lon="1.86236">
        <ele>656.7</ele>
        <time>2022-08-02T16:22:47Z</time>
      </trkpt>
      <trkpt lat="45.79282" lon="1.86244">
        <ele>657.4</ele>
        <time>2022-08-02T16:22:49Z</time>
      </trkpt>
      <trkpt lat="45.79278" lon="1.86254">
        <ele>657.7</ele>
        <time>2022-08-02T16:22:51Z</time>
      </trkpt>
      <trkpt lat="45.79274" lon="1.86263">
        <ele>657.6</ele>
        <time>2022-08-02T16:22:53Z</time>
      </trkpt>
      <trkpt lat="45.79271" lon="1.86271">
        <ele>657.5</ele>
        <time>2022-08-02T16:22:55Z</time>
      </trkpt>
      <trkpt lat="45.79267" lon="1.86278">
        <ele>657.4</ele>
        <time>2022-08-02T16:22:57Z</time>
      </trkpt>
      <trkpt lat="45.79263" lon="1.86284">
        <ele>657.6</ele>
        <time>2022-08-02T16:22:59Z</time>
      </trkpt>
      <trkpt lat="45.79259" lon="1.86289">
        <ele>657.7</ele>
        <time>2022-08-02T16:23:01Z</time>
      </trkpt>
      <trkpt lat="45.79255" lon="1.86294">
        <ele>657.6</ele>
        <time>2022-08-02T16:23:03Z</time>
      </trkpt>
      <trkpt lat="45.79252" lon="1.86299">
        <ele>657.5</ele>
        <time>2022-08-02T16:23:05Z</time>
      </trkpt>
      <trkpt lat="45.79249" lon="1.86303">
        <ele>657.6</ele>
        <time>2022-08-02T16:23:07Z</time>
      </trkpt>
      <trkpt lat="45.79246" lon="1.86307">
        <ele>657.8</ele>
        <time>2022-08-02T16:23:09Z</time>
      </trkpt>
      <trkpt lat="45.79243" lon="1.86309">
        <ele>658.2</ele>
        <time>2022-08-02T16:23:11Z</time>
      </trkpt>
      <trkpt lat="45.79238" lon="1.8631">
        <ele>659</ele>
        <time>2022-08-02T16:23:13Z</time>
      </trkpt>
      <trkpt lat="45.79235" lon="1.86309">
        <ele>659.8</ele>
        <time>2022-08-02T16:23:15Z</time>
      </trkpt>
      <trkpt lat="45.79231" lon="1.8631">
        <ele>660.6</ele>
        <time>2022-08-02T16:23:17Z</time>
      </trkpt>
      <trkpt lat="45.79228" lon="1.86309">
        <ele>661.4</ele>
        <time>2022-08-02T16:23:19Z</time>
      </trkpt>
      <trkpt lat="45.79224" lon="1.86308">
        <ele>662.4</ele>
        <time>2022-08-02T16:23:21Z</time>
      </trkpt>
      <trkpt lat="45.79221" lon="1.86308">
        <ele>663</ele>
        <time>2022-08-02T16:23:23Z</time>
      </trkpt>
      <trkpt lat="45.79219" lon="1.86308">
        <ele>663.4</ele>
        <time>2022-08-02T16:23:25Z</time>
      </trkpt>
      <trkpt lat="45.79217" lon="1.86312">
        <ele>663.5</ele>
        <time>2022-08-02T16:23:27Z</time>
      </trkpt>
      <trkpt lat="45.79214" lon="1.86315">
        <ele>663.6</ele>
        <time>2022-08-02T16:23:29Z</time>
      </trkpt>
      <trkpt lat="45.79212" lon="1.86318">
        <ele>663.6</ele>
        <time>2022-08-02T16:23:31Z</time>
      </trkpt>
      <trkpt lat="45.79208" lon="1.86319">
        <ele>664.3</ele>
        <time>2022-08-02T16:23:33Z</time>
      </trkpt>
      <trkpt lat="45.79205" lon="1.86321">
        <ele>664.4</ele>
        <time>2022-08-02T16:23:35Z</time>
      </trkpt>
      <trkpt lat="45.79202" lon="1.86324">
        <ele>664.7</ele>
        <time>2022-08-02T16:23:37Z</time>
      </trkpt>
      <trkpt lat="45.79199" lon="1.86326">
        <ele>664.8</ele>
        <time>2022-08-02T16:23:39Z</time>
      </trkpt>
      <trkpt lat="45.79197" lon="1.86328">
        <ele>665.1</ele>
        <time>2022-08-02T16:23:41Z</time>
      </trkpt>
      <trkpt lat="45.79194" lon="1.86331">
        <ele>665.1</ele>
        <time>2022-08-02T16:23:43Z</time>
      </trkpt>
      <trkpt lat="45.79191" lon="1.86333">
        <ele>665.4</ele>
        <time>2022-08-02T16:23:45Z</time>
      </trkpt>
      <trkpt lat="45.79189" lon="1.86335">
        <ele>665.6</ele>
        <time>2022-08-02T16:23:47Z</time>
      </trkpt>
      <trkpt lat="45.79186" lon="1.86337">
        <ele>665.9</ele>
        <time>2022-08-02T16:23:49Z</time>
      </trkpt>
      <trkpt lat="45.79184" lon="1.86339">
        <ele>666.2</ele>
        <time>2022-08-02T16:23:51Z</time>
      </trkpt>
      <trkpt lat="45.7918" lon="1.86341">
        <ele>666.6</ele>
        <time>2022-08-02T16:23:53Z</time>
      </trkpt>
      <trkpt lat="45.79178" lon="1.86343">
        <ele>666.8</ele>
        <time>2022-08-02T16:23:55Z</time>
      </trkpt>
      <trkpt lat="45.79175" lon="1.86346">
        <ele>667.1</ele>
        <time>2022-08-02T16:23:57Z</time>
      </trkpt>
      <trkpt lat="45.79172" lon="1.86347">
        <ele>667.5</ele>
        <time>2022-08-02T16:23:59Z</time>
      </trkpt>
      <trkpt lat="45.7917" lon="1.8635">
        <ele>667.7</ele>
        <time>2022-08-02T16:24:01Z</time>
      </trkpt>
      <trkpt lat="45.79166" lon="1.86353">
        <ele>668</ele>
        <time>2022-08-02T16:24:03Z</time>
      </trkpt>
      <trkpt lat="45.79164" lon="1.86355">
        <ele>668.1</ele>
        <time>2022-08-02T16:24:05Z</time>
      </trkpt>
      <trkpt lat="45.79161" lon="1.86358">
        <ele>668.1</ele>
        <time>2022-08-02T16:24:07Z</time>
      </trkpt>
      <trkpt lat="45.79159" lon="1.8636">
        <ele>668.2</ele>
        <time>2022-08-02T16:24:09Z</time>
      </trkpt>
      <trkpt lat="45.79156" lon="1.86362">
        <ele>668.5</ele>
        <time>2022-08-02T16:24:11Z</time>
      </trkpt>
      <trkpt lat="45.79154" lon="1.86364">
        <ele>668.6</ele>
        <time>2022-08-02T16:24:13Z</time>
      </trkpt>
      <trkpt lat="45.79151" lon="1.86366">
        <ele>668.8</ele>
        <time>2022-08-02T16:24:15Z</time>
      </trkpt>
      <trkpt lat="45.79149" lon="1.86369">
        <ele>668.7</ele>
        <time>2022-08-02T16:24:17Z</time>
      </trkpt>
      <trkpt lat="45.79146" lon="1.86371">
        <ele>668.9</ele>
        <time>2022-08-02T16:24:19Z</time>
      </trkpt>
      <trkpt lat="45.79143" lon="1.86373">
        <ele>669</ele>
        <time>2022-08-02T16:24:21Z</time>
      </trkpt>
      <trkpt lat="45.7914" lon="1.86375">
        <ele>669.2</ele>
        <time>2022-08-02T16:24:23Z</time>
      </trkpt>
      <trkpt lat="45.79137" lon="1.86376">
        <ele>669.4</ele>
        <time>2022-08-02T16:24:25Z</time>
      </trkpt>
      <trkpt lat="45.79134" lon="1.86379">
        <ele>669.6</ele>
        <time>2022-08-02T16:24:27Z</time>
      </trkpt>
      <trkpt lat="45.79131" lon="1.86381">
        <ele>669.7</ele>
        <time>2022-08-02T16:24:29Z</time>
      </trkpt>
      <trkpt lat="45.79127" lon="1.86382">
        <ele>670</ele>
        <time>2022-08-02T16:24:31Z</time>
      </trkpt>
      <trkpt lat="45.79123" lon="1.86383">
        <ele>670.4</ele>
        <time>2022-08-02T16:24:33Z</time>
      </trkpt>
      <trkpt lat="45.79119" lon="1.86384">
        <ele>670.7</ele>
        <time>2022-08-02T16:24:35Z</time>
      </trkpt>
      <trkpt lat="45.79116" lon="1.86385">
        <ele>671.1</ele>
        <time>2022-08-02T16:24:37Z</time>
      </trkpt>
      <trkpt lat="45.79112" lon="1.86387">
        <ele>671.3</ele>
        <time>2022-08-02T16:24:39Z</time>
      </trkpt>
      <trkpt lat="45.79109" lon="1.86388">
        <ele>671.5</ele>
        <time>2022-08-02T16:24:41Z</time>
      </trkpt>
      <trkpt lat="45.79106" lon="1.86389">
        <ele>671.7</ele>
        <time>2022-08-02T16:24:43Z</time>
      </trkpt>
      <trkpt lat="45.79102" lon="1.86389">
        <ele>672.1</ele>
        <time>2022-08-02T16:24:45Z</time>
      </trkpt>
      <trkpt lat="45.79099" lon="1.86391">
        <ele>672.3</ele>
        <time>2022-08-02T16:24:47Z</time>
      </trkpt>
      <trkpt lat="45.79096" lon="1.86392">
        <ele>672.5</ele>
        <time>2022-08-02T16:24:49Z</time>
      </trkpt>
      <trkpt lat="45.79092" lon="1.86393">
        <ele>673</ele>
        <time>2022-08-02T16:24:51Z</time>
      </trkpt>
      <trkpt lat="45.79088" lon="1.86394">
        <ele>673.2</ele>
        <time>2022-08-02T16:24:53Z</time>
      </trkpt>
      <trkpt lat="45.79085" lon="1.86394">
        <ele>673.6</ele>
        <time>2022-08-02T16:24:55Z</time>
      </trkpt>
      <trkpt lat="45.79081" lon="1.86395">
        <ele>673.5</ele>
        <time>2022-08-02T16:24:57Z</time>
      </trkpt>
      <trkpt lat="45.79077" lon="1.86395">
        <ele>673.5</ele>
        <time>2022-08-02T16:24:59Z</time>
      </trkpt>
      <trkpt lat="45.79073" lon="1.86397">
        <ele>673.2</ele>
        <time>2022-08-02T16:25:01Z</time>
      </trkpt>
      <trkpt lat="45.79069" lon="1.86397">
        <ele>673.2</ele>
        <time>2022-08-02T16:25:03Z</time>
      </trkpt>
      <trkpt lat="45.79066" lon="1.86396">
        <ele>673.1</ele>
        <time>2022-08-02T16:25:05Z</time>
      </trkpt>
      <trkpt lat="45.79061" lon="1.86396">
        <ele>673.2</ele>
        <time>2022-08-02T16:25:07Z</time>
      </trkpt>
      <trkpt lat="45.79056" lon="1.86395">
        <ele>673.2</ele>
        <time>2022-08-02T16:25:09Z</time>
      </trkpt>
      <trkpt lat="45.7905" lon="1.86394">
        <ele>673.3</ele>
        <time>2022-08-02T16:25:11Z</time>
      </trkpt>
      <trkpt lat="45.79044" lon="1.86393">
        <ele>673.4</ele>
        <time>2022-08-02T16:25:13Z</time>
      </trkpt>
      <trkpt lat="45.79036" lon="1.86391">
        <ele>673.5</ele>
        <time>2022-08-02T16:25:15Z</time>
      </trkpt>
      <trkpt lat="45.79028" lon="1.8639">
        <ele>673.6</ele>
        <time>2022-08-02T16:25:17Z</time>
      </trkpt>
      <trkpt lat="45.79019" lon="1.86388">
        <ele>673.9</ele>
        <time>2022-08-02T16:25:19Z</time>
      </trkpt>
      <trkpt lat="45.7901" lon="1.86384">
        <ele>674.2</ele>
        <time>2022-08-02T16:25:21Z</time>
      </trkpt>
      <trkpt lat="45.79001" lon="1.8638">
        <ele>674.8</ele>
        <time>2022-08-02T16:25:23Z</time>
      </trkpt>
      <trkpt lat="45.7899" lon="1.86378">
        <ele>674.4</ele>
        <time>2022-08-02T16:25:25Z</time>
      </trkpt>
      <trkpt lat="45.78981" lon="1.86377">
        <ele>673.9</ele>
        <time>2022-08-02T16:25:27Z</time>
      </trkpt>
      <trkpt lat="45.78969" lon="1.86377">
        <ele>673.1</ele>
        <time>2022-08-02T16:25:29Z</time>
      </trkpt>
      <trkpt lat="45.7896" lon="1.86376">
        <ele>672.5</ele>
        <time>2022-08-02T16:25:31Z</time>
      </trkpt>
      <trkpt lat="45.78951" lon="1.86375">
        <ele>671.9</ele>
        <time>2022-08-02T16:25:33Z</time>
      </trkpt>
      <trkpt lat="45.78943" lon="1.86371">
        <ele>671.7</ele>
        <time>2022-08-02T16:25:35Z</time>
      </trkpt>
      <trkpt lat="45.78936" lon="1.86367">
        <ele>671.4</ele>
        <time>2022-08-02T16:25:37Z</time>
      </trkpt>
      <trkpt lat="45.7893" lon="1.86363">
        <ele>671.1</ele>
        <time>2022-08-02T16:25:39Z</time>
      </trkpt>
      <trkpt lat="45.78923" lon="1.86358">
        <ele>670.7</ele>
        <time>2022-08-02T16:25:41Z</time>
      </trkpt>
      <trkpt lat="45.78914" lon="1.86354">
        <ele>670</ele>
        <time>2022-08-02T16:25:43Z</time>
      </trkpt>
      <trkpt lat="45.78904" lon="1.86349">
        <ele>669.3</ele>
        <time>2022-08-02T16:25:45Z</time>
      </trkpt>
      <trkpt lat="45.78894" lon="1.86344">
        <ele>668.6</ele>
        <time>2022-08-02T16:25:47Z</time>
      </trkpt>
      <trkpt lat="45.78887" lon="1.8634">
        <ele>668</ele>
        <time>2022-08-02T16:25:49Z</time>
      </trkpt>
      <trkpt lat="45.78879" lon="1.86339">
        <ele>667.2</ele>
        <time>2022-08-02T16:25:51Z</time>
      </trkpt>
      <trkpt lat="45.78874" lon="1.86336">
        <ele>666.9</ele>
        <time>2022-08-02T16:25:53Z</time>
      </trkpt>
      <trkpt lat="45.78876" lon="1.8633">
        <ele>667.3</ele>
        <time>2022-08-02T16:25:55Z</time>
      </trkpt>
      <trkpt lat="45.7888" lon="1.86324">
        <ele>667.9</ele>
        <time>2022-08-02T16:25:57Z</time>
      </trkpt>
      <trkpt lat="45.78883" lon="1.8632">
        <ele>668.5</ele>
        <time>2022-08-02T16:25:59Z</time>
      </trkpt>
      <trkpt lat="45.78887" lon="1.86317">
        <ele>669</ele>
        <time>2022-08-02T16:26:01Z</time>
      </trkpt>
      <trkpt lat="45.78888" lon="1.86315">
        <ele>669.2</ele>
        <time>2022-08-02T16:26:03Z</time>
      </trkpt>
      <trkpt lat="45.78888" lon="1.86316">
        <ele>669.1</ele>
        <time>2022-08-02T16:26:05Z</time>
      </trkpt>
      <trkpt lat="45.78888" lon="1.86316">
        <ele>669.1</ele>
        <time>2022-08-02T16:26:09Z</time>
      </trkpt>
      <trkpt lat="45.78876" lon="1.86331">
        <ele>667.2</ele>
        <time>2022-08-02T16:26:45Z</time>
      </trkpt>
      <trkpt lat="45.7887" lon="1.86335">
        <ele>666.5</ele>
        <time>2022-08-02T16:26:47Z</time>
      </trkpt>
      <trkpt lat="45.78864" lon="1.86333">
        <ele>666</ele>
        <time>2022-08-02T16:26:49Z</time>
      </trkpt>
      <trkpt lat="45.78858" lon="1.8633">
        <ele>665.5</ele>
        <time>2022-08-02T16:26:51Z</time>
      </trkpt>
      <trkpt lat="45.78851" lon="1.86328">
        <ele>665</ele>
        <time>2022-08-02T16:26:53Z</time>
      </trkpt>
      <trkpt lat="45.78844" lon="1.86325">
        <ele>664.3</ele>
        <time>2022-08-02T16:26:55Z</time>
      </trkpt>
      <trkpt lat="45.78835" lon="1.86322">
        <ele>663.6</ele>
        <time>2022-08-02T16:26:57Z</time>
      </trkpt>
      <trkpt lat="45.78827" lon="1.86319">
        <ele>663.3</ele>
        <time>2022-08-02T16:26:59Z</time>
      </trkpt>
      <trkpt lat="45.78819" lon="1.86315">
        <ele>663.2</ele>
        <time>2022-08-02T16:27:01Z</time>
      </trkpt>
      <trkpt lat="45.7881" lon="1.86311">
        <ele>663</ele>
        <time>2022-08-02T16:27:03Z</time>
      </trkpt>
      <trkpt lat="45.78801" lon="1.86308">
        <ele>662.8</ele>
        <time>2022-08-02T16:27:05Z</time>
      </trkpt>
      <trkpt lat="45.78792" lon="1.86304">
        <ele>662.5</ele>
        <time>2022-08-02T16:27:07Z</time>
      </trkpt>
      <trkpt lat="45.78783" lon="1.863">
        <ele>662.3</ele>
        <time>2022-08-02T16:27:09Z</time>
      </trkpt>
      <trkpt lat="45.78774" lon="1.86295">
        <ele>662</ele>
        <time>2022-08-02T16:27:11Z</time>
      </trkpt>
      <trkpt lat="45.78764" lon="1.86291">
        <ele>661.6</ele>
        <time>2022-08-02T16:27:13Z</time>
      </trkpt>
      <trkpt lat="45.78754" lon="1.86286">
        <ele>661.2</ele>
        <time>2022-08-02T16:27:15Z</time>
      </trkpt>
      <trkpt lat="45.78742" lon="1.86282">
        <ele>661.1</ele>
        <time>2022-08-02T16:27:17Z</time>
      </trkpt>
      <trkpt lat="45.78731" lon="1.86277">
        <ele>661.3</ele>
        <time>2022-08-02T16:27:19Z</time>
      </trkpt>
      <trkpt lat="45.7872" lon="1.8627">
        <ele>661.3</ele>
        <time>2022-08-02T16:27:21Z</time>
      </trkpt>
      <trkpt lat="45.78708" lon="1.86268">
        <ele>661.4</ele>
        <time>2022-08-02T16:27:23Z</time>
      </trkpt>
      <trkpt lat="45.78696" lon="1.86266">
        <ele>661.5</ele>
        <time>2022-08-02T16:27:25Z</time>
      </trkpt>
      <trkpt lat="45.78685" lon="1.86265">
        <ele>661.5</ele>
        <time>2022-08-02T16:27:27Z</time>
      </trkpt>
      <trkpt lat="45.78674" lon="1.86263">
        <ele>661.6</ele>
        <time>2022-08-02T16:27:29Z</time>
      </trkpt>
      <trkpt lat="45.78665" lon="1.86262">
        <ele>661.6</ele>
        <time>2022-08-02T16:27:31Z</time>
      </trkpt>
      <trkpt lat="45.78656" lon="1.86263">
        <ele>661.8</ele>
        <time>2022-08-02T16:27:33Z</time>
      </trkpt>
      <trkpt lat="45.78649" lon="1.86269">
        <ele>662.1</ele>
        <time>2022-08-02T16:27:35Z</time>
      </trkpt>
      <trkpt lat="45.78643" lon="1.86276">
        <ele>662.6</ele>
        <time>2022-08-02T16:27:37Z</time>
      </trkpt>
      <trkpt lat="45.78638" lon="1.86283">
        <ele>662.9</ele>
        <time>2022-08-02T16:27:39Z</time>
      </trkpt>
      <trkpt lat="45.78632" lon="1.86289">
        <ele>663.3</ele>
        <time>2022-08-02T16:27:41Z</time>
      </trkpt>
      <trkpt lat="45.78627" lon="1.86294">
        <ele>663.6</ele>
        <time>2022-08-02T16:27:43Z</time>
      </trkpt>
      <trkpt lat="45.78622" lon="1.86299">
        <ele>663.9</ele>
        <time>2022-08-02T16:27:45Z</time>
      </trkpt>
      <trkpt lat="45.78618" lon="1.86303">
        <ele>664.1</ele>
        <time>2022-08-02T16:27:47Z</time>
      </trkpt>
      <trkpt lat="45.78615" lon="1.86307">
        <ele>664.4</ele>
        <time>2022-08-02T16:27:49Z</time>
      </trkpt>
      <trkpt lat="45.78612" lon="1.86312">
        <ele>664.6</ele>
        <time>2022-08-02T16:27:51Z</time>
      </trkpt>
      <trkpt lat="45.78614" lon="1.86318">
        <ele>664.9</ele>
        <time>2022-08-02T16:27:53Z</time>
      </trkpt>
      <trkpt lat="45.78617" lon="1.86322">
        <ele>665</ele>
        <time>2022-08-02T16:27:55Z</time>
      </trkpt>
      <trkpt lat="45.7862" lon="1.86327">
        <ele>665.2</ele>
        <time>2022-08-02T16:27:57Z</time>
      </trkpt>
      <trkpt lat="45.78623" lon="1.86333">
        <ele>665.5</ele>
        <time>2022-08-02T16:27:59Z</time>
      </trkpt>
      <trkpt lat="45.78627" lon="1.86339">
        <ele>665.8</ele>
        <time>2022-08-02T16:28:01Z</time>
      </trkpt>
      <trkpt lat="45.78631" lon="1.86346">
        <ele>666.1</ele>
        <time>2022-08-02T16:28:03Z</time>
      </trkpt>
      <trkpt lat="45.78635" lon="1.86351">
        <ele>666.3</ele>
        <time>2022-08-02T16:28:05Z</time>
      </trkpt>
      <trkpt lat="45.78638" lon="1.86359">
        <ele>666.7</ele>
        <time>2022-08-02T16:28:07Z</time>
      </trkpt>
      <trkpt lat="45.78642" lon="1.86365">
        <ele>666.9</ele>
        <time>2022-08-02T16:28:09Z</time>
      </trkpt>
      <trkpt lat="45.78647" lon="1.86371">
        <ele>667</ele>
        <time>2022-08-02T16:28:11Z</time>
      </trkpt>
      <trkpt lat="45.78651" lon="1.86377">
        <ele>667.2</ele>
        <time>2022-08-02T16:28:13Z</time>
      </trkpt>
      <trkpt lat="45.78655" lon="1.86384">
        <ele>667.3</ele>
        <time>2022-08-02T16:28:15Z</time>
      </trkpt>
      <trkpt lat="45.78659" lon="1.86392">
        <ele>667.5</ele>
        <time>2022-08-02T16:28:17Z</time>
      </trkpt>
      <trkpt lat="45.78664" lon="1.86398">
        <ele>667.5</ele>
        <time>2022-08-02T16:28:19Z</time>
      </trkpt>
      <trkpt lat="45.78668" lon="1.86405">
        <ele>667.5</ele>
        <time>2022-08-02T16:28:21Z</time>
      </trkpt>
      <trkpt lat="45.78673" lon="1.86412">
        <ele>667.4</ele>
        <time>2022-08-02T16:28:23Z</time>
      </trkpt>
      <trkpt lat="45.78678" lon="1.8642">
        <ele>667.2</ele>
        <time>2022-08-02T16:28:25Z</time>
      </trkpt>
      <trkpt lat="45.78683" lon="1.86429">
        <ele>666.9</ele>
        <time>2022-08-02T16:28:27Z</time>
      </trkpt>
      <trkpt lat="45.78686" lon="1.8644">
        <ele>666.7</ele>
        <time>2022-08-02T16:28:29Z</time>
      </trkpt>
      <trkpt lat="45.78687" lon="1.86454">
        <ele>666.7</ele>
        <time>2022-08-02T16:28:31Z</time>
      </trkpt>
      <trkpt lat="45.78685" lon="1.86468">
        <ele>666.8</ele>
        <time>2022-08-02T16:28:33Z</time>
      </trkpt>
      <trkpt lat="45.78678" lon="1.86481">
        <ele>667.3</ele>
        <time>2022-08-02T16:28:35Z</time>
      </trkpt>
      <trkpt lat="45.78671" lon="1.86494">
        <ele>667.7</ele>
        <time>2022-08-02T16:28:37Z</time>
      </trkpt>
      <trkpt lat="45.78664" lon="1.86507">
        <ele>668.1</ele>
        <time>2022-08-02T16:28:39Z</time>
      </trkpt>
      <trkpt lat="45.78656" lon="1.86519">
        <ele>668.6</ele>
        <time>2022-08-02T16:28:41Z</time>
      </trkpt>
      <trkpt lat="45.78649" lon="1.86532">
        <ele>669</ele>
        <time>2022-08-02T16:28:43Z</time>
      </trkpt>
      <trkpt lat="45.78643" lon="1.86547">
        <ele>669.3</ele>
        <time>2022-08-02T16:28:45Z</time>
      </trkpt>
      <trkpt lat="45.78637" lon="1.86562">
        <ele>669.7</ele>
        <time>2022-08-02T16:28:47Z</time>
      </trkpt>
      <trkpt lat="45.78633" lon="1.86579">
        <ele>669.8</ele>
        <time>2022-08-02T16:28:49Z</time>
      </trkpt>
      <trkpt lat="45.78631" lon="1.86598">
        <ele>669.1</ele>
        <time>2022-08-02T16:28:51Z</time>
      </trkpt>
      <trkpt lat="45.78631" lon="1.86616">
        <ele>668.2</ele>
        <time>2022-08-02T16:28:53Z</time>
      </trkpt>
      <trkpt lat="45.78631" lon="1.86633">
        <ele>667.3</ele>
        <time>2022-08-02T16:28:55Z</time>
      </trkpt>
      <trkpt lat="45.78632" lon="1.8665">
        <ele>666.4</ele>
        <time>2022-08-02T16:28:57Z</time>
      </trkpt>
      <trkpt lat="45.78631" lon="1.86666">
        <ele>665.6</ele>
        <time>2022-08-02T16:28:59Z</time>
      </trkpt>
      <trkpt lat="45.78632" lon="1.86682">
        <ele>664.7</ele>
        <time>2022-08-02T16:29:01Z</time>
      </trkpt>
      <trkpt lat="45.78634" lon="1.86698">
        <ele>663.8</ele>
        <time>2022-08-02T16:29:03Z</time>
      </trkpt>
      <trkpt lat="45.78634" lon="1.86715">
        <ele>662.8</ele>
        <time>2022-08-02T16:29:05Z</time>
      </trkpt>
      <trkpt lat="45.78634" lon="1.86732">
        <ele>661.9</ele>
        <time>2022-08-02T16:29:07Z</time>
      </trkpt>
      <trkpt lat="45.78635" lon="1.86751">
        <ele>660.8</ele>
        <time>2022-08-02T16:29:09Z</time>
      </trkpt>
      <trkpt lat="45.78636" lon="1.86765">
        <ele>660.1</ele>
        <time>2022-08-02T16:29:11Z</time>
      </trkpt>
      <trkpt lat="45.78638" lon="1.8678">
        <ele>659.4</ele>
        <time>2022-08-02T16:29:13Z</time>
      </trkpt>
      <trkpt lat="45.78637" lon="1.86797">
        <ele>658.5</ele>
        <time>2022-08-02T16:29:15Z</time>
      </trkpt>
      <trkpt lat="45.78639" lon="1.86813">
        <ele>657.7</ele>
        <time>2022-08-02T16:29:17Z</time>
      </trkpt>
      <trkpt lat="45.78639" lon="1.86829">
        <ele>656.9</ele>
        <time>2022-08-02T16:29:19Z</time>
      </trkpt>
      <trkpt lat="45.78639" lon="1.86845">
        <ele>656.8</ele>
        <time>2022-08-02T16:29:21Z</time>
      </trkpt>
      <trkpt lat="45.78639" lon="1.86861">
        <ele>657</ele>
        <time>2022-08-02T16:29:23Z</time>
      </trkpt>
      <trkpt lat="45.78641" lon="1.86877">
        <ele>657.3</ele>
        <time>2022-08-02T16:29:25Z</time>
      </trkpt>
      <trkpt lat="45.78642" lon="1.86894">
        <ele>657.6</ele>
        <time>2022-08-02T16:29:27Z</time>
      </trkpt>
      <trkpt lat="45.78642" lon="1.86909">
        <ele>657.8</ele>
        <time>2022-08-02T16:29:29Z</time>
      </trkpt>
      <trkpt lat="45.78642" lon="1.86924">
        <ele>657.8</ele>
        <time>2022-08-02T16:29:31Z</time>
      </trkpt>
      <trkpt lat="45.78642" lon="1.86939">
        <ele>657.5</ele>
        <time>2022-08-02T16:29:33Z</time>
      </trkpt>
      <trkpt lat="45.78642" lon="1.86953">
        <ele>657.3</ele>
        <time>2022-08-02T16:29:35Z</time>
      </trkpt>
      <trkpt lat="45.78643" lon="1.86966">
        <ele>657.1</ele>
        <time>2022-08-02T16:29:37Z</time>
      </trkpt>
      <trkpt lat="45.78644" lon="1.8698">
        <ele>656.9</ele>
        <time>2022-08-02T16:29:39Z</time>
      </trkpt>
      <trkpt lat="45.78644" lon="1.86991">
        <ele>656.7</ele>
        <time>2022-08-02T16:29:41Z</time>
      </trkpt>
      <trkpt lat="45.78644" lon="1.87002">
        <ele>656.5</ele>
        <time>2022-08-02T16:29:43Z</time>
      </trkpt>
      <trkpt lat="45.78643" lon="1.87013">
        <ele>656</ele>
        <time>2022-08-02T16:29:45Z</time>
      </trkpt>
      <trkpt lat="45.78645" lon="1.87025">
        <ele>655.6</ele>
        <time>2022-08-02T16:29:47Z</time>
      </trkpt>
      <trkpt lat="45.78645" lon="1.87034">
        <ele>655.3</ele>
        <time>2022-08-02T16:29:49Z</time>
      </trkpt>
      <trkpt lat="45.78645" lon="1.87044">
        <ele>654.9</ele>
        <time>2022-08-02T16:29:51Z</time>
      </trkpt>
      <trkpt lat="45.78646" lon="1.87053">
        <ele>654.5</ele>
        <time>2022-08-02T16:29:53Z</time>
      </trkpt>
      <trkpt lat="45.78647" lon="1.87062">
        <ele>654.2</ele>
        <time>2022-08-02T16:29:55Z</time>
      </trkpt>
      <trkpt lat="45.78647" lon="1.87069">
        <ele>653.9</ele>
        <time>2022-08-02T16:29:57Z</time>
      </trkpt>
      <trkpt lat="45.78646" lon="1.87077">
        <ele>653.5</ele>
        <time>2022-08-02T16:29:59Z</time>
      </trkpt>
      <trkpt lat="45.78646" lon="1.87085">
        <ele>653.3</ele>
        <time>2022-08-02T16:30:01Z</time>
      </trkpt>
      <trkpt lat="45.78646" lon="1.87093">
        <ele>653.2</ele>
        <time>2022-08-02T16:30:03Z</time>
      </trkpt>
      <trkpt lat="45.78645" lon="1.871">
        <ele>653.1</ele>
        <time>2022-08-02T16:30:05Z</time>
      </trkpt>
      <trkpt lat="45.78646" lon="1.87106">
        <ele>653.1</ele>
        <time>2022-08-02T16:30:07Z</time>
      </trkpt>
      <trkpt lat="45.78646" lon="1.87112">
        <ele>653.1</ele>
        <time>2022-08-02T16:30:09Z</time>
      </trkpt>
      <trkpt lat="45.78646" lon="1.87117">
        <ele>653.1</ele>
        <time>2022-08-02T16:30:11Z</time>
      </trkpt>
      <trkpt lat="45.78647" lon="1.87122">
        <ele>653</ele>
        <time>2022-08-02T16:30:13Z</time>
      </trkpt>
      <trkpt lat="45.7865" lon="1.87122">
        <ele>653.1</ele>
        <time>2022-08-02T16:30:15Z</time>
      </trkpt>
      <trkpt lat="45.78652" lon="1.87117">
        <ele>653.2</ele>
        <time>2022-08-02T16:30:17Z</time>
      </trkpt>
      <trkpt lat="45.78651" lon="1.87114">
        <ele>653.2</ele>
        <time>2022-08-02T16:30:19Z</time>
      </trkpt>
      <trkpt lat="45.78648" lon="1.87111">
        <ele>653.2</ele>
        <time>2022-08-02T16:30:21Z</time>
      </trkpt>
      <trkpt lat="45.78647" lon="1.87106">
        <ele>653.2</ele>
        <time>2022-08-02T16:30:23Z</time>
      </trkpt>
      <trkpt lat="45.78648" lon="1.87099">
        <ele>653.2</ele>
        <time>2022-08-02T16:30:25Z</time>
      </trkpt>
      <trkpt lat="45.78647" lon="1.8709">
        <ele>653.3</ele>
        <time>2022-08-02T16:30:27Z</time>
      </trkpt>
      <trkpt lat="45.78647" lon="1.87082">
        <ele>653.3</ele>
        <time>2022-08-02T16:30:29Z</time>
      </trkpt>
      <trkpt lat="45.78646" lon="1.87075">
        <ele>653.6</ele>
        <time>2022-08-02T16:30:31Z</time>
      </trkpt>
      <trkpt lat="45.78646" lon="1.87068">
        <ele>653.9</ele>
        <time>2022-08-02T16:30:33Z</time>
      </trkpt>
      <trkpt lat="45.78646" lon="1.8706">
        <ele>654.3</ele>
        <time>2022-08-02T16:30:35Z</time>
      </trkpt>
      <trkpt lat="45.78646" lon="1.8705">
        <ele>654.7</ele>
        <time>2022-08-02T16:30:37Z</time>
      </trkpt>
      <trkpt lat="45.78646" lon="1.87041">
        <ele>655</ele>
        <time>2022-08-02T16:30:39Z</time>
      </trkpt>
      <trkpt lat="45.78645" lon="1.87031">
        <ele>655.4</ele>
        <time>2022-08-02T16:30:41Z</time>
      </trkpt>
      <trkpt lat="45.78645" lon="1.87022">
        <ele>655.8</ele>
        <time>2022-08-02T16:30:43Z</time>
      </trkpt>
      <trkpt lat="45.78645" lon="1.87013">
        <ele>656.1</ele>
        <time>2022-08-02T16:30:45Z</time>
      </trkpt>
      <trkpt lat="45.78644" lon="1.87004">
        <ele>656.4</ele>
        <time>2022-08-02T16:30:47Z</time>
      </trkpt>
      <trkpt lat="45.78644" lon="1.86993">
        <ele>656.7</ele>
        <time>2022-08-02T16:30:49Z</time>
      </trkpt>
      <trkpt lat="45.78644" lon="1.86982">
        <ele>656.9</ele>
        <time>2022-08-02T16:30:51Z</time>
      </trkpt>
      <trkpt lat="45.78643" lon="1.8697">
        <ele>657</ele>
        <time>2022-08-02T16:30:53Z</time>
      </trkpt>
      <trkpt lat="45.78642" lon="1.86958">
        <ele>657.2</ele>
        <time>2022-08-02T16:30:55Z</time>
      </trkpt>
      <trkpt lat="45.78643" lon="1.86946">
        <ele>657.4</ele>
        <time>2022-08-02T16:30:57Z</time>
      </trkpt>
      <trkpt lat="45.78642" lon="1.86934">
        <ele>657.6</ele>
        <time>2022-08-02T16:30:59Z</time>
      </trkpt>
      <trkpt lat="45.78643" lon="1.86921">
        <ele>657.9</ele>
        <time>2022-08-02T16:31:01Z</time>
      </trkpt>
      <trkpt lat="45.78642" lon="1.86909">
        <ele>657.8</ele>
        <time>2022-08-02T16:31:03Z</time>
      </trkpt>
      <trkpt lat="45.78642" lon="1.86898">
        <ele>657.7</ele>
        <time>2022-08-02T16:31:05Z</time>
      </trkpt>
      <trkpt lat="45.78642" lon="1.86886">
        <ele>657.5</ele>
        <time>2022-08-02T16:31:07Z</time>
      </trkpt>
      <trkpt lat="45.78641" lon="1.86875">
        <ele>657.3</ele>
        <time>2022-08-02T16:31:09Z</time>
      </trkpt>
      <trkpt lat="45.7864" lon="1.86864">
        <ele>657.1</ele>
        <time>2022-08-02T16:31:11Z</time>
      </trkpt>
      <trkpt lat="45.7864" lon="1.86856">
        <ele>657</ele>
        <time>2022-08-02T16:31:13Z</time>
      </trkpt>
      <trkpt lat="45.78639" lon="1.86847">
        <ele>656.8</ele>
        <time>2022-08-02T16:31:15Z</time>
      </trkpt>
      <trkpt lat="45.7864" lon="1.86841">
        <ele>656.8</ele>
        <time>2022-08-02T16:31:17Z</time>
      </trkpt>
      <trkpt lat="45.78639" lon="1.86831">
        <ele>656.8</ele>
        <time>2022-08-02T16:31:19Z</time>
      </trkpt>
      <trkpt lat="45.78639" lon="1.86822">
        <ele>657.2</ele>
        <time>2022-08-02T16:31:21Z</time>
      </trkpt>
      <trkpt lat="45.78639" lon="1.86814">
        <ele>657.7</ele>
        <time>2022-08-02T16:31:23Z</time>
      </trkpt>
      <trkpt lat="45.78638" lon="1.86805">
        <ele>658.1</ele>
        <time>2022-08-02T16:31:25Z</time>
      </trkpt>
      <trkpt lat="45.78637" lon="1.86796">
        <ele>658.5</ele>
        <time>2022-08-02T16:31:27Z</time>
      </trkpt>
      <trkpt lat="45.78637" lon="1.86788">
        <ele>658.9</ele>
        <time>2022-08-02T16:31:29Z</time>
      </trkpt>
      <trkpt lat="45.78636" lon="1.86779">
        <ele>659.4</ele>
        <time>2022-08-02T16:31:31Z</time>
      </trkpt>
      <trkpt lat="45.78635" lon="1.8677">
        <ele>659.8</ele>
        <time>2022-08-02T16:31:33Z</time>
      </trkpt>
      <trkpt lat="45.78635" lon="1.86762">
        <ele>660.2</ele>
        <time>2022-08-02T16:31:35Z</time>
      </trkpt>
      <trkpt lat="45.78634" lon="1.86753">
        <ele>660.7</ele>
        <time>2022-08-02T16:31:37Z</time>
      </trkpt>
      <trkpt lat="45.78633" lon="1.86744">
        <ele>661.2</ele>
        <time>2022-08-02T16:31:39Z</time>
      </trkpt>
      <trkpt lat="45.78633" lon="1.86734">
        <ele>661.7</ele>
        <time>2022-08-02T16:31:41Z</time>
      </trkpt>
      <trkpt lat="45.78634" lon="1.86723">
        <ele>662.4</ele>
        <time>2022-08-02T16:31:43Z</time>
      </trkpt>
      <trkpt lat="45.78633" lon="1.86712">
        <ele>663</ele>
        <time>2022-08-02T16:31:45Z</time>
      </trkpt>
      <trkpt lat="45.78633" lon="1.86702">
        <ele>663.6</ele>
        <time>2022-08-02T16:31:47Z</time>
      </trkpt>
      <trkpt lat="45.78632" lon="1.86693">
        <ele>664.1</ele>
        <time>2022-08-02T16:31:49Z</time>
      </trkpt>
      <trkpt lat="45.78632" lon="1.86683">
        <ele>664.7</ele>
        <time>2022-08-02T16:31:51Z</time>
      </trkpt>
      <trkpt lat="45.78631" lon="1.86672">
        <ele>665.2</ele>
        <time>2022-08-02T16:31:53Z</time>
      </trkpt>
      <trkpt lat="45.78631" lon="1.86662">
        <ele>665.8</ele>
        <time>2022-08-02T16:31:55Z</time>
      </trkpt>
      <trkpt lat="45.78631" lon="1.86652">
        <ele>666.3</ele>
        <time>2022-08-02T16:31:57Z</time>
      </trkpt>
      <trkpt lat="45.78631" lon="1.86642">
        <ele>666.8</ele>
        <time>2022-08-02T16:31:59Z</time>
      </trkpt>
      <trkpt lat="45.78631" lon="1.86633">
        <ele>667.3</ele>
        <time>2022-08-02T16:32:01Z</time>
      </trkpt>
      <trkpt lat="45.78631" lon="1.86623">
        <ele>667.8</ele>
        <time>2022-08-02T16:32:03Z</time>
      </trkpt>
      <trkpt lat="45.7863" lon="1.86613">
        <ele>668.4</ele>
        <time>2022-08-02T16:32:05Z</time>
      </trkpt>
      <trkpt lat="45.7863" lon="1.86601">
        <ele>669</ele>
        <time>2022-08-02T16:32:07Z</time>
      </trkpt>
      <trkpt lat="45.7863" lon="1.86591">
        <ele>669.5</ele>
        <time>2022-08-02T16:32:09Z</time>
      </trkpt>
      <trkpt lat="45.78632" lon="1.86581">
        <ele>669.8</ele>
        <time>2022-08-02T16:32:11Z</time>
      </trkpt>
      <trkpt lat="45.78635" lon="1.86572">
        <ele>669.7</ele>
        <time>2022-08-02T16:32:13Z</time>
      </trkpt>
      <trkpt lat="45.78638" lon="1.86563">
        <ele>669.6</ele>
        <time>2022-08-02T16:32:15Z</time>
      </trkpt>
      <trkpt lat="45.7864" lon="1.86554">
        <ele>669.4</ele>
        <time>2022-08-02T16:32:17Z</time>
      </trkpt>
      <trkpt lat="45.78644" lon="1.86546">
        <ele>669.2</ele>
        <time>2022-08-02T16:32:19Z</time>
      </trkpt>
      <trkpt lat="45.78647" lon="1.86538">
        <ele>669</ele>
        <time>2022-08-02T16:32:21Z</time>
      </trkpt>
      <trkpt lat="45.78651" lon="1.86531">
        <ele>668.9</ele>
        <time>2022-08-02T16:32:23Z</time>
      </trkpt>
      <trkpt lat="45.78655" lon="1.86524">
        <ele>668.6</ele>
        <time>2022-08-02T16:32:25Z</time>
      </trkpt>
      <trkpt lat="45.78658" lon="1.86518">
        <ele>668.5</ele>
        <time>2022-08-02T16:32:27Z</time>
      </trkpt>
      <trkpt lat="45.78662" lon="1.86512">
        <ele>668.2</ele>
        <time>2022-08-02T16:32:29Z</time>
      </trkpt>
      <trkpt lat="45.78666" lon="1.86506">
        <ele>668</ele>
        <time>2022-08-02T16:32:31Z</time>
      </trkpt>
      <trkpt lat="45.78669" lon="1.86499">
        <ele>667.9</ele>
        <time>2022-08-02T16:32:33Z</time>
      </trkpt>
      <trkpt lat="45.78672" lon="1.86493">
        <ele>667.7</ele>
        <time>2022-08-02T16:32:35Z</time>
      </trkpt>
      <trkpt lat="45.78675" lon="1.86488">
        <ele>667.5</ele>
        <time>2022-08-02T16:32:37Z</time>
      </trkpt>
      <trkpt lat="45.78678" lon="1.86482">
        <ele>667.3</ele>
        <time>2022-08-02T16:32:39Z</time>
      </trkpt>
      <trkpt lat="45.78681" lon="1.86476">
        <ele>667.1</ele>
        <time>2022-08-02T16:32:41Z</time>
      </trkpt>
      <trkpt lat="45.78684" lon="1.8647">
        <ele>666.9</ele>
        <time>2022-08-02T16:32:43Z</time>
      </trkpt>
      <trkpt lat="45.78686" lon="1.86463">
        <ele>666.7</ele>
        <time>2022-08-02T16:32:45Z</time>
      </trkpt>
      <trkpt lat="45.78687" lon="1.86456">
        <ele>666.6</ele>
        <time>2022-08-02T16:32:47Z</time>
      </trkpt>
      <trkpt lat="45.78687" lon="1.86449">
        <ele>666.6</ele>
        <time>2022-08-02T16:32:49Z</time>
      </trkpt>
      <trkpt lat="45.78686" lon="1.86441">
        <ele>666.7</ele>
        <time>2022-08-02T16:32:51Z</time>
      </trkpt>
      <trkpt lat="45.78684" lon="1.86434">
        <ele>666.8</ele>
        <time>2022-08-02T16:32:53Z</time>
      </trkpt>
      <trkpt lat="45.78681" lon="1.86428">
        <ele>667</ele>
        <time>2022-08-02T16:32:55Z</time>
      </trkpt>
      <trkpt lat="45.78679" lon="1.86422">
        <ele>667.1</ele>
        <time>2022-08-02T16:32:57Z</time>
      </trkpt>
      <trkpt lat="45.78676" lon="1.86416">
        <ele>667.3</ele>
        <time>2022-08-02T16:32:59Z</time>
      </trkpt>
      <trkpt lat="45.78674" lon="1.8641">
        <ele>667.3</ele>
        <time>2022-08-02T16:33:01Z</time>
      </trkpt>
      <trkpt lat="45.78672" lon="1.86407">
        <ele>667.2</ele>
        <time>2022-08-02T16:33:03Z</time>
      </trkpt>
      <trkpt lat="45.78667" lon="1.86403">
        <ele>667.5</ele>
        <time>2022-08-02T16:33:05Z</time>
      </trkpt>
      <trkpt lat="45.78662" lon="1.86399">
        <ele>667.6</ele>
        <time>2022-08-02T16:33:07Z</time>
      </trkpt>
      <trkpt lat="45.78659" lon="1.86393">
        <ele>667.5</ele>
        <time>2022-08-02T16:33:09Z</time>
      </trkpt>
      <trkpt lat="45.78655" lon="1.86387">
        <ele>667.4</ele>
        <time>2022-08-02T16:33:11Z</time>
      </trkpt>
      <trkpt lat="45.7865" lon="1.86381">
        <ele>667.3</ele>
        <time>2022-08-02T16:33:13Z</time>
      </trkpt>
      <trkpt lat="45.78647" lon="1.86372">
        <ele>667.1</ele>
        <time>2022-08-02T16:33:15Z</time>
      </trkpt>
      <trkpt lat="45.78641" lon="1.86365">
        <ele>666.9</ele>
        <time>2022-08-02T16:33:17Z</time>
      </trkpt>
      <trkpt lat="45.78636" lon="1.86357">
        <ele>666.6</ele>
        <time>2022-08-02T16:33:19Z</time>
      </trkpt>
      <trkpt lat="45.78631" lon="1.86347">
        <ele>666.2</ele>
        <time>2022-08-02T16:33:21Z</time>
      </trkpt>
      <trkpt lat="45.78626" lon="1.86339">
        <ele>665.8</ele>
        <time>2022-08-02T16:33:23Z</time>
      </trkpt>
      <trkpt lat="45.78621" lon="1.86332">
        <ele>665.5</ele>
        <time>2022-08-02T16:33:25Z</time>
      </trkpt>
      <trkpt lat="45.78617" lon="1.86324">
        <ele>665.1</ele>
        <time>2022-08-02T16:33:27Z</time>
      </trkpt>
      <trkpt lat="45.78611" lon="1.86317">
        <ele>664.9</ele>
        <time>2022-08-02T16:33:29Z</time>
      </trkpt>
      <trkpt lat="45.78607" lon="1.86311">
        <ele>664.6</ele>
        <time>2022-08-02T16:33:31Z</time>
      </trkpt>
      <trkpt lat="45.78601" lon="1.86303">
        <ele>664.3</ele>
        <time>2022-08-02T16:33:33Z</time>
      </trkpt>
      <trkpt lat="45.78596" lon="1.86293">
        <ele>663.9</ele>
        <time>2022-08-02T16:33:35Z</time>
      </trkpt>
      <trkpt lat="45.78591" lon="1.86282">
        <ele>663.5</ele>
        <time>2022-08-02T16:33:37Z</time>
      </trkpt>
      <trkpt lat="45.78585" lon="1.86272">
        <ele>663.1</ele>
        <time>2022-08-02T16:33:39Z</time>
      </trkpt>
      <trkpt lat="45.78578" lon="1.86262">
        <ele>663.4</ele>
        <time>2022-08-02T16:33:41Z</time>
      </trkpt>
      <trkpt lat="45.78571" lon="1.86252">
        <ele>663.9</ele>
        <time>2022-08-02T16:33:43Z</time>
      </trkpt>
      <trkpt lat="45.78566" lon="1.86241">
        <ele>664.2</ele>
        <time>2022-08-02T16:33:45Z</time>
      </trkpt>
      <trkpt lat="45.78559" lon="1.86227">
        <ele>664.3</ele>
        <time>2022-08-02T16:33:47Z</time>
      </trkpt>
      <trkpt lat="45.78554" lon="1.86213">
        <ele>664.2</ele>
        <time>2022-08-02T16:33:49Z</time>
      </trkpt>
      <trkpt lat="45.7855" lon="1.86198">
        <ele>663.7</ele>
        <time>2022-08-02T16:33:51Z</time>
      </trkpt>
      <trkpt lat="45.78546" lon="1.86183">
        <ele>663.1</ele>
        <time>2022-08-02T16:33:53Z</time>
      </trkpt>
      <trkpt lat="45.78542" lon="1.86167">
        <ele>662.5</ele>
        <time>2022-08-02T16:33:55Z</time>
      </trkpt>
      <trkpt lat="45.78537" lon="1.86152">
        <ele>661.4</ele>
        <time>2022-08-02T16:33:57Z</time>
      </trkpt>
      <trkpt lat="45.78532" lon="1.86137">
        <ele>660.2</ele>
        <time>2022-08-02T16:33:59Z</time>
      </trkpt>
      <trkpt lat="45.78524" lon="1.86122">
        <ele>659.5</ele>
        <time>2022-08-02T16:34:01Z</time>
      </trkpt>
      <trkpt lat="45.78513" lon="1.86111">
        <ele>659.4</ele>
        <time>2022-08-02T16:34:03Z</time>
      </trkpt>
      <trkpt lat="45.78499" lon="1.86105">
        <ele>660.5</ele>
        <time>2022-08-02T16:34:05Z</time>
      </trkpt>
      <trkpt lat="45.78486" lon="1.86103">
        <ele>661.8</ele>
        <time>2022-08-02T16:34:07Z</time>
      </trkpt>
      <trkpt lat="45.78471" lon="1.86101">
        <ele>663.3</ele>
        <time>2022-08-02T16:34:09Z</time>
      </trkpt>
      <trkpt lat="45.78457" lon="1.86099">
        <ele>664.8</ele>
        <time>2022-08-02T16:34:11Z</time>
      </trkpt>
      <trkpt lat="45.78443" lon="1.86087">
        <ele>665.7</ele>
        <time>2022-08-02T16:34:13Z</time>
      </trkpt>
      <trkpt lat="45.78434" lon="1.86072">
        <ele>665.7</ele>
        <time>2022-08-02T16:34:15Z</time>
      </trkpt>
      <trkpt lat="45.78427" lon="1.86056">
        <ele>665.2</ele>
        <time>2022-08-02T16:34:17Z</time>
      </trkpt>
      <trkpt lat="45.78421" lon="1.86039">
        <ele>664.6</ele>
        <time>2022-08-02T16:34:19Z</time>
      </trkpt>
      <trkpt lat="45.78415" lon="1.86022">
        <ele>664</ele>
        <time>2022-08-02T16:34:21Z</time>
      </trkpt>
      <trkpt lat="45.78409" lon="1.86005">
        <ele>663.4</ele>
        <time>2022-08-02T16:34:23Z</time>
      </trkpt>
      <trkpt lat="45.78405" lon="1.8599">
        <ele>662.7</ele>
        <time>2022-08-02T16:34:25Z</time>
      </trkpt>
      <trkpt lat="45.78399" lon="1.85974">
        <ele>662.2</ele>
        <time>2022-08-02T16:34:27Z</time>
      </trkpt>
      <trkpt lat="45.78394" lon="1.85961">
        <ele>661.8</ele>
        <time>2022-08-02T16:34:29Z</time>
      </trkpt>
      <trkpt lat="45.78388" lon="1.85948">
        <ele>661.4</ele>
        <time>2022-08-02T16:34:31Z</time>
      </trkpt>
      <trkpt lat="45.78383" lon="1.85935">
        <ele>660.8</ele>
        <time>2022-08-02T16:34:33Z</time>
      </trkpt>
      <trkpt lat="45.78374" lon="1.85924">
        <ele>660.7</ele>
        <time>2022-08-02T16:34:35Z</time>
      </trkpt>
      <trkpt lat="45.78366" lon="1.85915">
        <ele>660.9</ele>
        <time>2022-08-02T16:34:37Z</time>
      </trkpt>
      <trkpt lat="45.78355" lon="1.85908">
        <ele>662.2</ele>
        <time>2022-08-02T16:34:39Z</time>
      </trkpt>
      <trkpt lat="45.78346" lon="1.85901">
        <ele>663.4</ele>
        <time>2022-08-02T16:34:41Z</time>
      </trkpt>
      <trkpt lat="45.78334" lon="1.85897">
        <ele>664.6</ele>
        <time>2022-08-02T16:34:43Z</time>
      </trkpt>
      <trkpt lat="45.78323" lon="1.85895">
        <ele>664.6</ele>
        <time>2022-08-02T16:34:45Z</time>
      </trkpt>
      <trkpt lat="45.78313" lon="1.85892">
        <ele>664.6</ele>
        <time>2022-08-02T16:34:47Z</time>
      </trkpt>
      <trkpt lat="45.78312" lon="1.85888">
        <ele>664.7</ele>
        <time>2022-08-02T16:34:49Z</time>
      </trkpt>
      <trkpt lat="45.78314" lon="1.85881">
        <ele>665</ele>
        <time>2022-08-02T16:34:51Z</time>
      </trkpt>
      <trkpt lat="45.78313" lon="1.85877">
        <ele>665.2</ele>
        <time>2022-08-02T16:34:53Z</time>
      </trkpt>
      <trkpt lat="45.78312" lon="1.85877">
        <ele>665.2</ele>
        <time>2022-08-02T16:34:55Z</time>
      </trkpt>
      <trkpt lat="45.78311" lon="1.85878">
        <ele>665.1</ele>
        <time>2022-08-02T16:34:57Z</time>
      </trkpt>
      <trkpt lat="45.78312" lon="1.8588">
        <ele>665</ele>
        <time>2022-08-02T16:34:59Z</time>
      </trkpt>
      <trkpt lat="45.78312" lon="1.8588">
        <ele>665</ele>
        <time>2022-08-02T16:35:01Z</time>
      </trkpt>
      <trkpt lat="45.78313" lon="1.8588">
        <ele>665</ele>
        <time>2022-08-02T16:35:03Z</time>
      </trkpt>
      <trkpt lat="45.78295" lon="1.85889">
        <ele>664.4</ele>
        <time>2022-08-02T16:35:15Z</time>
      </trkpt>
      <trkpt lat="45.78287" lon="1.85888">
        <ele>664.3</ele>
        <time>2022-08-02T16:35:17Z</time>
      </trkpt>
      <trkpt lat="45.78279" lon="1.85885">
        <ele>664.3</ele>
        <time>2022-08-02T16:35:19Z</time>
      </trkpt>
      <trkpt lat="45.78269" lon="1.85884">
        <ele>664.3</ele>
        <time>2022-08-02T16:35:21Z</time>
      </trkpt>
      <trkpt lat="45.7826" lon="1.85881">
        <ele>664.3</ele>
        <time>2022-08-02T16:35:23Z</time>
      </trkpt>
      <trkpt lat="45.78249" lon="1.85878">
        <ele>664.3</ele>
        <time>2022-08-02T16:35:25Z</time>
      </trkpt>
      <trkpt lat="45.78239" lon="1.85876">
        <ele>663.7</ele>
        <time>2022-08-02T16:35:27Z</time>
      </trkpt>
      <trkpt lat="45.78228" lon="1.85873">
        <ele>663.1</ele>
        <time>2022-08-02T16:35:29Z</time>
      </trkpt>
      <trkpt lat="45.78218" lon="1.8587">
        <ele>662.6</ele>
        <time>2022-08-02T16:35:31Z</time>
      </trkpt>
      <trkpt lat="45.78208" lon="1.85867">
        <ele>662.1</ele>
        <time>2022-08-02T16:35:33Z</time>
      </trkpt>
      <trkpt lat="45.78198" lon="1.85864">
        <ele>661.7</ele>
        <time>2022-08-02T16:35:35Z</time>
      </trkpt>
      <trkpt lat="45.78189" lon="1.85862">
        <ele>661.3</ele>
        <time>2022-08-02T16:35:37Z</time>
      </trkpt>
      <trkpt lat="45.7818" lon="1.85859">
        <ele>661</ele>
        <time>2022-08-02T16:35:39Z</time>
      </trkpt>
      <trkpt lat="45.7817" lon="1.85857">
        <ele>660.7</ele>
        <time>2022-08-02T16:35:41Z</time>
      </trkpt>
      <trkpt lat="45.78163" lon="1.85853">
        <ele>660.4</ele>
        <time>2022-08-02T16:35:43Z</time>
      </trkpt>
      <trkpt lat="45.78156" lon="1.85849">
        <ele>660</ele>
        <time>2022-08-02T16:35:45Z</time>
      </trkpt>
      <trkpt lat="45.78149" lon="1.85844">
        <ele>659.5</ele>
        <time>2022-08-02T16:35:47Z</time>
      </trkpt>
      <trkpt lat="45.78143" lon="1.85839">
        <ele>659.1</ele>
        <time>2022-08-02T16:35:49Z</time>
      </trkpt>
      <trkpt lat="45.78136" lon="1.85833">
        <ele>658.6</ele>
        <time>2022-08-02T16:35:51Z</time>
      </trkpt>
      <trkpt lat="45.7813" lon="1.85828">
        <ele>658.1</ele>
        <time>2022-08-02T16:35:53Z</time>
      </trkpt>
      <trkpt lat="45.78124" lon="1.85825">
        <ele>657.4</ele>
        <time>2022-08-02T16:35:55Z</time>
      </trkpt>
      <trkpt lat="45.7812" lon="1.85823">
        <ele>656.9</ele>
        <time>2022-08-02T16:35:57Z</time>
      </trkpt>
      <trkpt lat="45.78117" lon="1.85822">
        <ele>656.6</ele>
        <time>2022-08-02T16:35:59Z</time>
      </trkpt>
      <trkpt lat="45.78118" lon="1.85822">
        <ele>656.6</ele>
        <time>2022-08-02T16:36:01Z</time>
      </trkpt>
      <trkpt lat="45.78118" lon="1.85823">
        <ele>656.6</ele>
        <time>2022-08-02T16:36:03Z</time>
      </trkpt>
      <trkpt lat="45.78118" lon="1.85822">
        <ele>656.7</ele>
        <time>2022-08-02T16:36:05Z</time>
      </trkpt>
      <trkpt lat="45.78118" lon="1.85822">
        <ele>656.7</ele>
        <time>2022-08-02T16:36:07Z</time>
      </trkpt>
      <trkpt lat="45.78118" lon="1.85822">
        <ele>656.7</ele>
        <time>2022-08-02T16:36:09Z</time>
      </trkpt>
      <trkpt lat="45.78116" lon="1.85809">
        <ele>657.3</ele>
        <time>2022-08-02T16:37:03Z</time>
      </trkpt>
      <trkpt lat="45.78116" lon="1.85804">
        <ele>657.5</ele>
        <time>2022-08-02T16:37:05Z</time>
      </trkpt>
      <trkpt lat="45.78113" lon="1.85798">
        <ele>657.4</ele>
        <time>2022-08-02T16:37:07Z</time>
      </trkpt>
      <trkpt lat="45.7811" lon="1.85792">
        <ele>657.3</ele>
        <time>2022-08-02T16:37:09Z</time>
      </trkpt>
      <trkpt lat="45.78107" lon="1.85785">
        <ele>657.1</ele>
        <time>2022-08-02T16:37:11Z</time>
      </trkpt>
      <trkpt lat="45.78103" lon="1.85779">
        <ele>657</ele>
        <time>2022-08-02T16:37:13Z</time>
      </trkpt>
      <trkpt lat="45.78099" lon="1.85772">
        <ele>656.7</ele>
        <time>2022-08-02T16:37:15Z</time>
      </trkpt>
      <trkpt lat="45.78096" lon="1.85765">
        <ele>656.5</ele>
        <time>2022-08-02T16:37:17Z</time>
      </trkpt>
      <trkpt lat="45.78092" lon="1.85759">
        <ele>656.1</ele>
        <time>2022-08-02T16:37:19Z</time>
      </trkpt>
      <trkpt lat="45.78088" lon="1.85751">
        <ele>655.7</ele>
        <time>2022-08-02T16:37:21Z</time>
      </trkpt>
      <trkpt lat="45.78084" lon="1.85744">
        <ele>655.1</ele>
        <time>2022-08-02T16:37:23Z</time>
      </trkpt>
      <trkpt lat="45.7808" lon="1.85738">
        <ele>654.9</ele>
        <time>2022-08-02T16:37:25Z</time>
      </trkpt>
      <trkpt lat="45.78075" lon="1.85733">
        <ele>654.9</ele>
        <time>2022-08-02T16:37:27Z</time>
      </trkpt>
      <trkpt lat="45.78071" lon="1.85728">
        <ele>655</ele>
        <time>2022-08-02T16:37:29Z</time>
      </trkpt>
      <trkpt lat="45.78066" lon="1.85723">
        <ele>655.1</ele>
        <time>2022-08-02T16:37:31Z</time>
      </trkpt>
      <trkpt lat="45.78061" lon="1.8572">
        <ele>655.2</ele>
        <time>2022-08-02T16:37:33Z</time>
      </trkpt>
      <trkpt lat="45.78055" lon="1.8572">
        <ele>655.4</ele>
        <time>2022-08-02T16:37:35Z</time>
      </trkpt>
      <trkpt lat="45.7805" lon="1.85719">
        <ele>655.5</ele>
        <time>2022-08-02T16:37:37Z</time>
      </trkpt>
      <trkpt lat="45.78043" lon="1.85719">
        <ele>655.7</ele>
        <time>2022-08-02T16:37:39Z</time>
      </trkpt>
      <trkpt lat="45.78037" lon="1.85723">
        <ele>655.8</ele>
        <time>2022-08-02T16:37:41Z</time>
      </trkpt>
      <trkpt lat="45.78031" lon="1.85728">
        <ele>655.7</ele>
        <time>2022-08-02T16:37:43Z</time>
      </trkpt>
      <trkpt lat="45.78026" lon="1.85737">
        <ele>655.5</ele>
        <time>2022-08-02T16:37:45Z</time>
      </trkpt>
      <trkpt lat="45.78019" lon="1.85744">
        <ele>655.2</ele>
        <time>2022-08-02T16:37:47Z</time>
      </trkpt>
      <trkpt lat="45.78012" lon="1.85752">
        <ele>654.8</ele>
        <time>2022-08-02T16:37:49Z</time>
      </trkpt>
      <trkpt lat="45.78006" lon="1.8576">
        <ele>654.3</ele>
        <time>2022-08-02T16:37:51Z</time>
      </trkpt>
      <trkpt lat="45.77999" lon="1.85767">
        <ele>653.8</ele>
        <time>2022-08-02T16:37:53Z</time>
      </trkpt>
      <trkpt lat="45.77992" lon="1.85773">
        <ele>653.3</ele>
        <time>2022-08-02T16:37:55Z</time>
      </trkpt>
      <trkpt lat="45.77985" lon="1.85779">
        <ele>653</ele>
        <time>2022-08-02T16:37:57Z</time>
      </trkpt>
      <trkpt lat="45.77977" lon="1.85783">
        <ele>652.8</ele>
        <time>2022-08-02T16:37:59Z</time>
      </trkpt>
      <trkpt lat="45.7797" lon="1.85785">
        <ele>652.7</ele>
        <time>2022-08-02T16:38:01Z</time>
      </trkpt>
      <trkpt lat="45.77961" lon="1.85783">
        <ele>652.9</ele>
        <time>2022-08-02T16:38:03Z</time>
      </trkpt>
      <trkpt lat="45.77954" lon="1.85778">
        <ele>653.2</ele>
        <time>2022-08-02T16:38:05Z</time>
      </trkpt>
      <trkpt lat="45.77948" lon="1.85771">
        <ele>653.5</ele>
        <time>2022-08-02T16:38:07Z</time>
      </trkpt>
      <trkpt lat="45.77942" lon="1.85762">
        <ele>653.8</ele>
        <time>2022-08-02T16:38:09Z</time>
      </trkpt>
      <trkpt lat="45.77938" lon="1.85752">
        <ele>654.2</ele>
        <time>2022-08-02T16:38:11Z</time>
      </trkpt>
      <trkpt lat="45.77934" lon="1.85741">
        <ele>654.4</ele>
        <time>2022-08-02T16:38:13Z</time>
      </trkpt>
      <trkpt lat="45.77929" lon="1.8573">
        <ele>654.5</ele>
        <time>2022-08-02T16:38:15Z</time>
      </trkpt>
      <trkpt lat="45.77924" lon="1.8572">
        <ele>654.6</ele>
        <time>2022-08-02T16:38:17Z</time>
      </trkpt>
      <trkpt lat="45.77919" lon="1.8571">
        <ele>654.6</ele>
        <time>2022-08-02T16:38:19Z</time>
      </trkpt>
      <trkpt lat="45.77913" lon="1.857">
        <ele>654.6</ele>
        <time>2022-08-02T16:38:21Z</time>
      </trkpt>
      <trkpt lat="45.77906" lon="1.85691">
        <ele>654.9</ele>
        <time>2022-08-02T16:38:23Z</time>
      </trkpt>
      <trkpt lat="45.77898" lon="1.85684">
        <ele>655.2</ele>
        <time>2022-08-02T16:38:25Z</time>
      </trkpt>
      <trkpt lat="45.77889" lon="1.85676">
        <ele>655.5</ele>
        <time>2022-08-02T16:38:27Z</time>
      </trkpt>
      <trkpt lat="45.77881" lon="1.8567">
        <ele>655.8</ele>
        <time>2022-08-02T16:38:29Z</time>
      </trkpt>
      <trkpt lat="45.77871" lon="1.85664">
        <ele>656.1</ele>
        <time>2022-08-02T16:38:31Z</time>
      </trkpt>
      <trkpt lat="45.77863" lon="1.85658">
        <ele>656.4</ele>
        <time>2022-08-02T16:38:33Z</time>
      </trkpt>
      <trkpt lat="45.77854" lon="1.85653">
        <ele>656.6</ele>
        <time>2022-08-02T16:38:35Z</time>
      </trkpt>
      <trkpt lat="45.77846" lon="1.85647">
        <ele>656.8</ele>
        <time>2022-08-02T16:38:37Z</time>
      </trkpt>
      <trkpt lat="45.77838" lon="1.85642">
        <ele>656.9</ele>
        <time>2022-08-02T16:38:39Z</time>
      </trkpt>
      <trkpt lat="45.7783" lon="1.85639">
        <ele>657</ele>
        <time>2022-08-02T16:38:41Z</time>
      </trkpt>
      <trkpt lat="45.77824" lon="1.85633">
        <ele>656.8</ele>
        <time>2022-08-02T16:38:43Z</time>
      </trkpt>
      <trkpt lat="45.77818" lon="1.85628">
        <ele>656.7</ele>
        <time>2022-08-02T16:38:45Z</time>
      </trkpt>
      <trkpt lat="45.77811" lon="1.85623">
        <ele>656.6</ele>
        <time>2022-08-02T16:38:47Z</time>
      </trkpt>
      <trkpt lat="45.77805" lon="1.85619">
        <ele>656.5</ele>
        <time>2022-08-02T16:38:49Z</time>
      </trkpt>
      <trkpt lat="45.77799" lon="1.85615">
        <ele>656.3</ele>
        <time>2022-08-02T16:38:51Z</time>
      </trkpt>
      <trkpt lat="45.77794" lon="1.8561">
        <ele>656.2</ele>
        <time>2022-08-02T16:38:53Z</time>
      </trkpt>
      <trkpt lat="45.77788" lon="1.85606">
        <ele>656.1</ele>
        <time>2022-08-02T16:38:55Z</time>
      </trkpt>
      <trkpt lat="45.77781" lon="1.85602">
        <ele>655.9</ele>
        <time>2022-08-02T16:38:57Z</time>
      </trkpt>
      <trkpt lat="45.77775" lon="1.85598">
        <ele>655.7</ele>
        <time>2022-08-02T16:38:59Z</time>
      </trkpt>
      <trkpt lat="45.77768" lon="1.85592">
        <ele>655.5</ele>
        <time>2022-08-02T16:39:01Z</time>
      </trkpt>
      <trkpt lat="45.7776" lon="1.85587">
        <ele>655.3</ele>
        <time>2022-08-02T16:39:03Z</time>
      </trkpt>
      <trkpt lat="45.77753" lon="1.85581">
        <ele>655.2</ele>
        <time>2022-08-02T16:39:05Z</time>
      </trkpt>
      <trkpt lat="45.77745" lon="1.85576">
        <ele>655.3</ele>
        <time>2022-08-02T16:39:07Z</time>
      </trkpt>
      <trkpt lat="45.77737" lon="1.8557">
        <ele>655.3</ele>
        <time>2022-08-02T16:39:09Z</time>
      </trkpt>
      <trkpt lat="45.77728" lon="1.85564">
        <ele>655.3</ele>
        <time>2022-08-02T16:39:11Z</time>
      </trkpt>
      <trkpt lat="45.7772" lon="1.85557">
        <ele>655.3</ele>
        <time>2022-08-02T16:39:13Z</time>
      </trkpt>
      <trkpt lat="45.77712" lon="1.8555">
        <ele>655.2</ele>
        <time>2022-08-02T16:39:15Z</time>
      </trkpt>
      <trkpt lat="45.77702" lon="1.85544">
        <ele>655.1</ele>
        <time>2022-08-02T16:39:17Z</time>
      </trkpt>
      <trkpt lat="45.77693" lon="1.85537">
        <ele>654.9</ele>
        <time>2022-08-02T16:39:19Z</time>
      </trkpt>
      <trkpt lat="45.77683" lon="1.8553">
        <ele>654.7</ele>
        <time>2022-08-02T16:39:21Z</time>
      </trkpt>
      <trkpt lat="45.77672" lon="1.85523">
        <ele>654.5</ele>
        <time>2022-08-02T16:39:23Z</time>
      </trkpt>
      <trkpt lat="45.77661" lon="1.85515">
        <ele>654.2</ele>
        <time>2022-08-02T16:39:25Z</time>
      </trkpt>
      <trkpt lat="45.77649" lon="1.85507">
        <ele>653.8</ele>
        <time>2022-08-02T16:39:27Z</time>
      </trkpt>
      <trkpt lat="45.77637" lon="1.85498">
        <ele>653.2</ele>
        <time>2022-08-02T16:39:29Z</time>
      </trkpt>
      <trkpt lat="45.77624" lon="1.85488">
        <ele>652.6</ele>
        <time>2022-08-02T16:39:31Z</time>
      </trkpt>
      <trkpt lat="45.7761" lon="1.85477">
        <ele>652</ele>
        <time>2022-08-02T16:39:33Z</time>
      </trkpt>
      <trkpt lat="45.77596" lon="1.85465">
        <ele>651.2</ele>
        <time>2022-08-02T16:39:35Z</time>
      </trkpt>
      <trkpt lat="45.77582" lon="1.85451">
        <ele>650.5</ele>
        <time>2022-08-02T16:39:37Z</time>
      </trkpt>
      <trkpt lat="45.77568" lon="1.85436">
        <ele>650</ele>
        <time>2022-08-02T16:39:39Z</time>
      </trkpt>
      <trkpt lat="45.77555" lon="1.8542">
        <ele>649.3</ele>
        <time>2022-08-02T16:39:41Z</time>
      </trkpt>
      <trkpt lat="45.77542" lon="1.85402">
        <ele>648.8</ele>
        <time>2022-08-02T16:39:43Z</time>
      </trkpt>
      <trkpt lat="45.7753" lon="1.85382">
        <ele>648.4</ele>
        <time>2022-08-02T16:39:45Z</time>
      </trkpt>
      <trkpt lat="45.77518" lon="1.85361">
        <ele>648.3</ele>
        <time>2022-08-02T16:39:47Z</time>
      </trkpt>
      <trkpt lat="45.77505" lon="1.85339">
        <ele>648.1</ele>
        <time>2022-08-02T16:39:49Z</time>
      </trkpt>
      <trkpt lat="45.77493" lon="1.85317">
        <ele>648.4</ele>
        <time>2022-08-02T16:39:51Z</time>
      </trkpt>
      <trkpt lat="45.77481" lon="1.85295">
        <ele>648.5</ele>
        <time>2022-08-02T16:39:53Z</time>
      </trkpt>
      <trkpt lat="45.77469" lon="1.85273">
        <ele>648.1</ele>
        <time>2022-08-02T16:39:55Z</time>
      </trkpt>
      <trkpt lat="45.77457" lon="1.8525">
        <ele>647.3</ele>
        <time>2022-08-02T16:39:57Z</time>
      </trkpt>
      <trkpt lat="45.77448" lon="1.8523">
        <ele>646.6</ele>
        <time>2022-08-02T16:39:59Z</time>
      </trkpt>
      <trkpt lat="45.77439" lon="1.85215">
        <ele>646.2</ele>
        <time>2022-08-02T16:40:01Z</time>
      </trkpt>
      <trkpt lat="45.7743" lon="1.85202">
        <ele>645.6</ele>
        <time>2022-08-02T16:40:03Z</time>
      </trkpt>
      <trkpt lat="45.77423" lon="1.85192">
        <ele>645.2</ele>
        <time>2022-08-02T16:40:05Z</time>
      </trkpt>
      <trkpt lat="45.77412" lon="1.85185">
        <ele>644.8</ele>
        <time>2022-08-02T16:40:07Z</time>
      </trkpt>
      <trkpt lat="45.77402" lon="1.8518">
        <ele>645</ele>
        <time>2022-08-02T16:40:09Z</time>
      </trkpt>
      <trkpt lat="45.77392" lon="1.85182">
        <ele>644.8</ele>
        <time>2022-08-02T16:40:11Z</time>
      </trkpt>
      <trkpt lat="45.77384" lon="1.85187">
        <ele>644.2</ele>
        <time>2022-08-02T16:40:13Z</time>
      </trkpt>
      <trkpt lat="45.7738" lon="1.85188">
        <ele>644.1</ele>
        <time>2022-08-02T16:40:15Z</time>
      </trkpt>
      <trkpt lat="45.7738" lon="1.85188">
        <ele>644</ele>
        <time>2022-08-02T16:40:17Z</time>
      </trkpt>
      <trkpt lat="45.77381" lon="1.85189">
        <ele>644</ele>
        <time>2022-08-02T16:40:19Z</time>
      </trkpt>
      <trkpt lat="45.77381" lon="1.85189">
        <ele>643.9</ele>
        <time>2022-08-02T16:40:21Z</time>
      </trkpt>
      <trkpt lat="45.7738" lon="1.8519">
        <ele>643.9</ele>
        <time>2022-08-02T16:40:23Z</time>
      </trkpt>
      <trkpt lat="45.77352" lon="1.85223">
        <ele>639.5</ele>
        <time>2022-08-02T16:43:37Z</time>
      </trkpt>
      <trkpt lat="45.77345" lon="1.85228">
        <ele>638.5</ele>
        <time>2022-08-02T16:43:39Z</time>
      </trkpt>
      <trkpt lat="45.77339" lon="1.85235">
        <ele>637.3</ele>
        <time>2022-08-02T16:43:41Z</time>
      </trkpt>
      <trkpt lat="45.77334" lon="1.85241">
        <ele>636.2</ele>
        <time>2022-08-02T16:43:43Z</time>
      </trkpt>
      <trkpt lat="45.77329" lon="1.85245">
        <ele>635.5</ele>
        <time>2022-08-02T16:43:45Z</time>
      </trkpt>
      <trkpt lat="45.77324" lon="1.8525">
        <ele>634.6</ele>
        <time>2022-08-02T16:43:47Z</time>
      </trkpt>
      <trkpt lat="45.77319" lon="1.85252">
        <ele>634.2</ele>
        <time>2022-08-02T16:43:49Z</time>
      </trkpt>
      <trkpt lat="45.77312" lon="1.85255">
        <ele>633.7</ele>
        <time>2022-08-02T16:43:51Z</time>
      </trkpt>
      <trkpt lat="45.77307" lon="1.85256">
        <ele>633.4</ele>
        <time>2022-08-02T16:43:53Z</time>
      </trkpt>
      <trkpt lat="45.77302" lon="1.85257">
        <ele>633.1</ele>
        <time>2022-08-02T16:43:55Z</time>
      </trkpt>
      <trkpt lat="45.77296" lon="1.85256">
        <ele>632.9</ele>
        <time>2022-08-02T16:43:57Z</time>
      </trkpt>
      <trkpt lat="45.7729" lon="1.8525">
        <ele>632.9</ele>
        <time>2022-08-02T16:43:59Z</time>
      </trkpt>
      <trkpt lat="45.77285" lon="1.85243">
        <ele>633.4</ele>
        <time>2022-08-02T16:44:01Z</time>
      </trkpt>
      <trkpt lat="45.77281" lon="1.85236">
        <ele>633.8</ele>
        <time>2022-08-02T16:44:03Z</time>
      </trkpt>
      <trkpt lat="45.77277" lon="1.85228">
        <ele>634.3</ele>
        <time>2022-08-02T16:44:05Z</time>
      </trkpt>
      <trkpt lat="45.77272" lon="1.85218">
        <ele>634.9</ele>
        <time>2022-08-02T16:44:07Z</time>
      </trkpt>
      <trkpt lat="45.77267" lon="1.85206">
        <ele>635.5</ele>
        <time>2022-08-02T16:44:09Z</time>
      </trkpt>
      <trkpt lat="45.77262" lon="1.85195">
        <ele>636</ele>
        <time>2022-08-02T16:44:11Z</time>
      </trkpt>
      <trkpt lat="45.77257" lon="1.85184">
        <ele>636.5</ele>
        <time>2022-08-02T16:44:13Z</time>
      </trkpt>
      <trkpt lat="45.77252" lon="1.85172">
        <ele>636.9</ele>
        <time>2022-08-02T16:44:15Z</time>
      </trkpt>
      <trkpt lat="45.77247" lon="1.8516">
        <ele>637</ele>
        <time>2022-08-02T16:44:17Z</time>
      </trkpt>
      <trkpt lat="45.77243" lon="1.85149">
        <ele>636.9</ele>
        <time>2022-08-02T16:44:19Z</time>
      </trkpt>
      <trkpt lat="45.77239" lon="1.85138">
        <ele>636.9</ele>
        <time>2022-08-02T16:44:21Z</time>
      </trkpt>
      <trkpt lat="45.77235" lon="1.85128">
        <ele>636.8</ele>
        <time>2022-08-02T16:44:23Z</time>
      </trkpt>
      <trkpt lat="45.77232" lon="1.85119">
        <ele>636.6</ele>
        <time>2022-08-02T16:44:25Z</time>
      </trkpt>
      <trkpt lat="45.77228" lon="1.85111">
        <ele>636.3</ele>
        <time>2022-08-02T16:44:27Z</time>
      </trkpt>
      <trkpt lat="45.77225" lon="1.85103">
        <ele>636</ele>
        <time>2022-08-02T16:44:29Z</time>
      </trkpt>
      <trkpt lat="45.77222" lon="1.85096">
        <ele>635.8</ele>
        <time>2022-08-02T16:44:31Z</time>
      </trkpt>
      <trkpt lat="45.7722" lon="1.85089">
        <ele>635.6</ele>
        <time>2022-08-02T16:44:33Z</time>
      </trkpt>
      <trkpt lat="45.77222" lon="1.85083">
        <ele>636</ele>
        <time>2022-08-02T16:44:35Z</time>
      </trkpt>
      <trkpt lat="45.77225" lon="1.8508">
        <ele>636.4</ele>
        <time>2022-08-02T16:44:37Z</time>
      </trkpt>
      <trkpt lat="45.77229" lon="1.85082">
        <ele>637</ele>
        <time>2022-08-02T16:44:39Z</time>
      </trkpt>
      <trkpt lat="45.7723" lon="1.85082">
        <ele>637.2</ele>
        <time>2022-08-02T16:44:41Z</time>
      </trkpt>
      <trkpt lat="45.77234" lon="1.85082">
        <ele>637.7</ele>
        <time>2022-08-02T16:44:43Z</time>
      </trkpt>
      <trkpt lat="45.77235" lon="1.85082">
        <ele>637.9</ele>
        <time>2022-08-02T16:44:45Z</time>
      </trkpt>
      <trkpt lat="45.77236" lon="1.85083">
        <ele>638</ele>
        <time>2022-08-02T16:44:47Z</time>
      </trkpt>
      <trkpt lat="45.77239" lon="1.85084">
        <ele>638.5</ele>
        <time>2022-08-02T16:44:49Z</time>
      </trkpt>
      <trkpt lat="45.77242" lon="1.85084">
        <ele>638.8</ele>
        <time>2022-08-02T16:44:51Z</time>
      </trkpt>
      <trkpt lat="45.77247" lon="1.85084">
        <ele>639.5</ele>
        <time>2022-08-02T16:44:53Z</time>
      </trkpt>
      <trkpt lat="45.77251" lon="1.85082">
        <ele>640.1</ele>
        <time>2022-08-02T16:44:55Z</time>
      </trkpt>
      <trkpt lat="45.77255" lon="1.85081">
        <ele>640.6</ele>
        <time>2022-08-02T16:44:57Z</time>
      </trkpt>
      <trkpt lat="45.77258" lon="1.8508">
        <ele>640.9</ele>
        <time>2022-08-02T16:44:59Z</time>
      </trkpt>
      <trkpt lat="45.77259" lon="1.85077">
        <ele>641.1</ele>
        <time>2022-08-02T16:45:01Z</time>
      </trkpt>
      <trkpt lat="45.77259" lon="1.85076">
        <ele>641.1</ele>
        <time>2022-08-02T16:45:03Z</time>
      </trkpt>
      <trkpt lat="45.77259" lon="1.85076">
        <ele>641.1</ele>
        <time>2022-08-02T16:45:05Z</time>
      </trkpt>
      <trkpt lat="45.77259" lon="1.85076">
        <ele>641.1</ele>
        <time>2022-08-02T16:45:09Z</time>
      </trkpt>
    </trkseg>
      <trkpt lat="45.77248" lon="1.85082">
        <ele>639.7</ele>
        <time>2022-08-03T06:48:54Z</time>
      </trkpt>
      <trkpt lat="45.77248" lon="1.85082">
        <ele>639.7</ele>
        <time>2022-08-03T06:48:55Z</time>
      </trkpt>
      <trkpt lat="45.77239" lon="1.85081">
        <ele>638.5</ele>
        <time>2022-08-03T06:51:05Z</time>
      </trkpt>
      <trkpt lat="45.77236" lon="1.85081">
        <ele>638.1</ele>
        <time>2022-08-03T06:51:07Z</time>
      </trkpt>
      <trkpt lat="45.77233" lon="1.8508">
        <ele>637.6</ele>
        <time>2022-08-03T06:51:09Z</time>
      </trkpt>
      <trkpt lat="45.7723" lon="1.85079">
        <ele>637.2</ele>
        <time>2022-08-03T06:51:11Z</time>
      </trkpt>
      <trkpt lat="45.77227" lon="1.85078">
        <ele>636.8</ele>
        <time>2022-08-03T06:51:13Z</time>
      </trkpt>
      <trkpt lat="45.77223" lon="1.85078">
        <ele>636.2</ele>
        <time>2022-08-03T06:51:15Z</time>
      </trkpt>
      <trkpt lat="45.77221" lon="1.85081">
        <ele>635.9</ele>
        <time>2022-08-03T06:51:17Z</time>
      </trkpt>
      <trkpt lat="45.77221" lon="1.85082">
        <ele>635.9</ele>
        <time>2022-08-03T06:51:19Z</time>
      </trkpt>
      <trkpt lat="45.7722" lon="1.85089">
        <ele>635.6</ele>
        <time>2022-08-03T06:51:21Z</time>
      </trkpt>
      <trkpt lat="45.77223" lon="1.85096">
        <ele>635.9</ele>
        <time>2022-08-03T06:51:23Z</time>
      </trkpt>
      <trkpt lat="45.77227" lon="1.85104">
        <ele>636.3</ele>
        <time>2022-08-03T06:51:25Z</time>
      </trkpt>
      <trkpt lat="45.77231" lon="1.85112">
        <ele>636.6</ele>
        <time>2022-08-03T06:51:27Z</time>
      </trkpt>
      <trkpt lat="45.77235" lon="1.8512">
        <ele>636.9</ele>
        <time>2022-08-03T06:51:29Z</time>
      </trkpt>
      <trkpt lat="45.77239" lon="1.8513">
        <ele>637.1</ele>
        <time>2022-08-03T06:51:31Z</time>
      </trkpt>
      <trkpt lat="45.77243" lon="1.85141">
        <ele>637.2</ele>
        <time>2022-08-03T06:51:33Z</time>
      </trkpt>
      <trkpt lat="45.77249" lon="1.85153">
        <ele>637.4</ele>
        <time>2022-08-03T06:51:35Z</time>
      </trkpt>
      <trkpt lat="45.77254" lon="1.85165">
        <ele>637.5</ele>
        <time>2022-08-03T06:51:37Z</time>
      </trkpt>
      <trkpt lat="45.77259" lon="1.85178">
        <ele>637.1</ele>
        <time>2022-08-03T06:51:39Z</time>
      </trkpt>
      <trkpt lat="45.77264" lon="1.85189">
        <ele>636.6</ele>
        <time>2022-08-03T06:51:41Z</time>
      </trkpt>
      <trkpt lat="45.77269" lon="1.852">
        <ele>636.3</ele>
        <time>2022-08-03T06:51:43Z</time>
      </trkpt>
      <trkpt lat="45.77274" lon="1.8521">
        <ele>635.7</ele>
        <time>2022-08-03T06:51:45Z</time>
      </trkpt>
      <trkpt lat="45.77278" lon="1.85221">
        <ele>635.1</ele>
        <time>2022-08-03T06:51:47Z</time>
      </trkpt>
      <trkpt lat="45.77282" lon="1.85231">
        <ele>634.4</ele>
        <time>2022-08-03T06:51:49Z</time>
      </trkpt>
      <trkpt lat="45.77286" lon="1.85241">
        <ele>633.6</ele>
        <time>2022-08-03T06:51:51Z</time>
      </trkpt>
      <trkpt lat="45.77288" lon="1.85252">
        <ele>632.7</ele>
        <time>2022-08-03T06:51:53Z</time>
      </trkpt>
      <trkpt lat="45.7729" lon="1.85265">
        <ele>632</ele>
        <time>2022-08-03T06:51:55Z</time>
      </trkpt>
      <trkpt lat="45.77292" lon="1.85278">
        <ele>631.3</ele>
        <time>2022-08-03T06:51:57Z</time>
      </trkpt>
      <trkpt lat="45.77291" lon="1.85293">
        <ele>630.4</ele>
        <time>2022-08-03T06:51:59Z</time>
      </trkpt>
      <trkpt lat="45.7729" lon="1.8531">
        <ele>629.3</ele>
        <time>2022-08-03T06:52:01Z</time>
      </trkpt>
      <trkpt lat="45.77286" lon="1.85328">
        <ele>627.9</ele>
        <time>2022-08-03T06:52:03Z</time>
      </trkpt>
      <trkpt lat="45.77281" lon="1.85346">
        <ele>628.5</ele>
        <time>2022-08-03T06:52:05Z</time>
      </trkpt>
      <trkpt lat="45.77274" lon="1.85363">
        <ele>629.7</ele>
        <time>2022-08-03T06:52:07Z</time>
      </trkpt>
      <trkpt lat="45.77267" lon="1.85379">
        <ele>630.6</ele>
        <time>2022-08-03T06:52:09Z</time>
      </trkpt>
      <trkpt lat="45.77262" lon="1.85395">
        <ele>631.4</ele>
        <time>2022-08-03T06:52:11Z</time>
      </trkpt>
      <trkpt lat="45.77257" lon="1.85408">
        <ele>632</ele>
        <time>2022-08-03T06:52:13Z</time>
      </trkpt>
      <trkpt lat="45.77253" lon="1.8542">
        <ele>632.9</ele>
        <time>2022-08-03T06:52:15Z</time>
      </trkpt>
      <trkpt lat="45.77248" lon="1.85432">
        <ele>634.2</ele>
        <time>2022-08-03T06:52:17Z</time>
      </trkpt>
      <trkpt lat="45.77244" lon="1.85443">
        <ele>635.5</ele>
        <time>2022-08-03T06:52:19Z</time>
      </trkpt>
      <trkpt lat="45.77239" lon="1.85454">
        <ele>636.5</ele>
        <time>2022-08-03T06:52:21Z</time>
      </trkpt>
      <trkpt lat="45.77236" lon="1.85464">
        <ele>637.6</ele>
        <time>2022-08-03T06:52:23Z</time>
      </trkpt>
      <trkpt lat="45.77233" lon="1.85474">
        <ele>638.6</ele>
        <time>2022-08-03T06:52:25Z</time>
      </trkpt>
      <trkpt lat="45.77231" lon="1.85482">
        <ele>639.4</ele>
        <time>2022-08-03T06:52:27Z</time>
      </trkpt>
      <trkpt lat="45.77228" lon="1.85489">
        <ele>639.8</ele>
        <time>2022-08-03T06:52:29Z</time>
      </trkpt>
      <trkpt lat="45.77226" lon="1.85496">
        <ele>640.4</ele>
        <time>2022-08-03T06:52:31Z</time>
      </trkpt>
      <trkpt lat="45.77223" lon="1.85502">
        <ele>640.6</ele>
        <time>2022-08-03T06:52:33Z</time>
      </trkpt>
      <trkpt lat="45.77221" lon="1.85508">
        <ele>640.6</ele>
        <time>2022-08-03T06:52:35Z</time>
      </trkpt>
      <trkpt lat="45.77219" lon="1.85514">
        <ele>640.6</ele>
        <time>2022-08-03T06:52:37Z</time>
      </trkpt>
      <trkpt lat="45.77217" lon="1.8552">
        <ele>640.6</ele>
        <time>2022-08-03T06:52:39Z</time>
      </trkpt>
      <trkpt lat="45.77215" lon="1.85526">
        <ele>640.7</ele>
        <time>2022-08-03T06:52:41Z</time>
      </trkpt>
      <trkpt lat="45.77213" lon="1.85532">
        <ele>640.8</ele>
        <time>2022-08-03T06:52:43Z</time>
      </trkpt>
      <trkpt lat="45.7721" lon="1.85538">
        <ele>640.9</ele>
        <time>2022-08-03T06:52:45Z</time>
      </trkpt>
      <trkpt lat="45.77208" lon="1.85544">
        <ele>640.9</ele>
        <time>2022-08-03T06:52:47Z</time>
      </trkpt>
      <trkpt lat="45.77206" lon="1.8555">
        <ele>641</ele>
        <time>2022-08-03T06:52:49Z</time>
      </trkpt>
      <trkpt lat="45.77204" lon="1.85556">
        <ele>641.1</ele>
        <time>2022-08-03T06:52:51Z</time>
      </trkpt>
      <trkpt lat="45.77202" lon="1.85562">
        <ele>641.1</ele>
        <time>2022-08-03T06:52:53Z</time>
      </trkpt>
      <trkpt lat="45.772" lon="1.85567">
        <ele>641.3</ele>
        <time>2022-08-03T06:52:55Z</time>
      </trkpt>
      <trkpt lat="45.77198" lon="1.85572">
        <ele>641.4</ele>
        <time>2022-08-03T06:52:57Z</time>
      </trkpt>
      <trkpt lat="45.77197" lon="1.85577">
        <ele>641.5</ele>
        <time>2022-08-03T06:52:59Z</time>
      </trkpt>
      <trkpt lat="45.77195" lon="1.85582">
        <ele>641.7</ele>
        <time>2022-08-03T06:53:01Z</time>
      </trkpt>
      <trkpt lat="45.77194" lon="1.85588">
        <ele>641.7</ele>
        <time>2022-08-03T06:53:03Z</time>
      </trkpt>
      <trkpt lat="45.77193" lon="1.85594">
        <ele>641.6</ele>
        <time>2022-08-03T06:53:05Z</time>
      </trkpt>
      <trkpt lat="45.77191" lon="1.85599">
        <ele>641.5</ele>
        <time>2022-08-03T06:53:07Z</time>
      </trkpt>
      <trkpt lat="45.7719" lon="1.85604">
        <ele>641.4</ele>
        <time>2022-08-03T06:53:09Z</time>
      </trkpt>
      <trkpt lat="45.77189" lon="1.8561">
        <ele>641.2</ele>
        <time>2022-08-03T06:53:11Z</time>
      </trkpt>
      <trkpt lat="45.77187" lon="1.85615">
        <ele>641</ele>
        <time>2022-08-03T06:53:13Z</time>
      </trkpt>
      <trkpt lat="45.77185" lon="1.85621">
        <ele>640.8</ele>
        <time>2022-08-03T06:53:15Z</time>
      </trkpt>
      <trkpt lat="45.77182" lon="1.85627">
        <ele>640.6</ele>
        <time>2022-08-03T06:53:17Z</time>
      </trkpt>
      <trkpt lat="45.77179" lon="1.85633">
        <ele>640.3</ele>
        <time>2022-08-03T06:53:19Z</time>
      </trkpt>
      <trkpt lat="45.77176" lon="1.8564">
        <ele>639.9</ele>
        <time>2022-08-03T06:53:21Z</time>
      </trkpt>
      <trkpt lat="45.77172" lon="1.85649">
        <ele>639.4</ele>
        <time>2022-08-03T06:53:23Z</time>
      </trkpt>
      <trkpt lat="45.77166" lon="1.8566">
        <ele>638.9</ele>
        <time>2022-08-03T06:53:25Z</time>
      </trkpt>
      <trkpt lat="45.77159" lon="1.8567">
        <ele>638.5</ele>
        <time>2022-08-03T06:53:27Z</time>
      </trkpt>
      <trkpt lat="45.77151" lon="1.85679">
        <ele>637.9</ele>
        <time>2022-08-03T06:53:29Z</time>
      </trkpt>
      <trkpt lat="45.7714" lon="1.85685">
        <ele>637.2</ele>
        <time>2022-08-03T06:53:31Z</time>
      </trkpt>
      <trkpt lat="45.7713" lon="1.85689">
        <ele>636.6</ele>
        <time>2022-08-03T06:53:33Z</time>
      </trkpt>
      <trkpt lat="45.77119" lon="1.85695">
        <ele>635.8</ele>
        <time>2022-08-03T06:53:35Z</time>
      </trkpt>
      <trkpt lat="45.77107" lon="1.85702">
        <ele>635</ele>
        <time>2022-08-03T06:53:37Z</time>
      </trkpt>
      <trkpt lat="45.77096" lon="1.85714">
        <ele>634</ele>
        <time>2022-08-03T06:53:39Z</time>
      </trkpt>
      <trkpt lat="45.77085" lon="1.85726">
        <ele>632.9</ele>
        <time>2022-08-03T06:53:41Z</time>
      </trkpt>
      <trkpt lat="45.77072" lon="1.85739">
        <ele>631.7</ele>
        <time>2022-08-03T06:53:43Z</time>
      </trkpt>
      <trkpt lat="45.77059" lon="1.85753">
        <ele>630.5</ele>
        <time>2022-08-03T06:53:45Z</time>
      </trkpt>
      <trkpt lat="45.77044" lon="1.85767">
        <ele>629.8</ele>
        <time>2022-08-03T06:53:47Z</time>
      </trkpt>
      <trkpt lat="45.77033" lon="1.85783">
        <ele>629.5</ele>
        <time>2022-08-03T06:53:49Z</time>
      </trkpt>
      <trkpt lat="45.77028" lon="1.858">
        <ele>629.7</ele>
        <time>2022-08-03T06:53:51Z</time>
      </trkpt>
      <trkpt lat="45.77023" lon="1.85817">
        <ele>629.9</ele>
        <time>2022-08-03T06:53:53Z</time>
      </trkpt>
      <trkpt lat="45.77019" lon="1.85833">
        <ele>630.2</ele>
        <time>2022-08-03T06:53:55Z</time>
      </trkpt>
      <trkpt lat="45.77015" lon="1.85845">
        <ele>630.5</ele>
        <time>2022-08-03T06:53:57Z</time>
      </trkpt>
      <trkpt lat="45.77012" lon="1.85856">
        <ele>630.8</ele>
        <time>2022-08-03T06:53:59Z</time>
      </trkpt>
      <trkpt lat="45.77008" lon="1.85866">
        <ele>631.1</ele>
        <time>2022-08-03T06:54:01Z</time>
      </trkpt>
      <trkpt lat="45.77006" lon="1.85876">
        <ele>631.5</ele>
        <time>2022-08-03T06:54:03Z</time>
      </trkpt>
      <trkpt lat="45.77003" lon="1.85885">
        <ele>631.8</ele>
        <time>2022-08-03T06:54:05Z</time>
      </trkpt>
      <trkpt lat="45.77001" lon="1.85892">
        <ele>632.1</ele>
        <time>2022-08-03T06:54:07Z</time>
      </trkpt>
      <trkpt lat="45.76999" lon="1.859">
        <ele>632.4</ele>
        <time>2022-08-03T06:54:09Z</time>
      </trkpt>
      <trkpt lat="45.76997" lon="1.85908">
        <ele>632.5</ele>
        <time>2022-08-03T06:54:11Z</time>
      </trkpt>
      <trkpt lat="45.76996" lon="1.85915">
        <ele>632.7</ele>
        <time>2022-08-03T06:54:13Z</time>
      </trkpt>
      <trkpt lat="45.76995" lon="1.85921">
        <ele>632.9</ele>
        <time>2022-08-03T06:54:15Z</time>
      </trkpt>
      <trkpt lat="45.76994" lon="1.85927">
        <ele>633</ele>
        <time>2022-08-03T06:54:17Z</time>
      </trkpt>
      <trkpt lat="45.76994" lon="1.85936">
        <ele>633.2</ele>
        <time>2022-08-03T06:54:19Z</time>
      </trkpt>
      <trkpt lat="45.76994" lon="1.85943">
        <ele>633.3</ele>
        <time>2022-08-03T06:54:21Z</time>
      </trkpt>
      <trkpt lat="45.76993" lon="1.85949">
        <ele>633.4</ele>
        <time>2022-08-03T06:54:23Z</time>
      </trkpt>
      <trkpt lat="45.76994" lon="1.85955">
        <ele>633.6</ele>
        <time>2022-08-03T06:54:25Z</time>
      </trkpt>
      <trkpt lat="45.76993" lon="1.85962">
        <ele>633.8</ele>
        <time>2022-08-03T06:54:27Z</time>
      </trkpt>
      <trkpt lat="45.76993" lon="1.8597">
        <ele>634</ele>
        <time>2022-08-03T06:54:29Z</time>
      </trkpt>
      <trkpt lat="45.76994" lon="1.85978">
        <ele>634.2</ele>
        <time>2022-08-03T06:54:31Z</time>
      </trkpt>
      <trkpt lat="45.76994" lon="1.85984">
        <ele>634.3</ele>
        <time>2022-08-03T06:54:33Z</time>
      </trkpt>
      <trkpt lat="45.76995" lon="1.8599">
        <ele>634.5</ele>
        <time>2022-08-03T06:54:35Z</time>
      </trkpt>
      <trkpt lat="45.76996" lon="1.85996">
        <ele>634.7</ele>
        <time>2022-08-03T06:54:37Z</time>
      </trkpt>
      <trkpt lat="45.76998" lon="1.86002">
        <ele>635</ele>
        <time>2022-08-03T06:54:39Z</time>
      </trkpt>
      <trkpt lat="45.77" lon="1.86006">
        <ele>635.1</ele>
        <time>2022-08-03T06:54:41Z</time>
      </trkpt>
      <trkpt lat="45.77002" lon="1.86012">
        <ele>635.2</ele>
        <time>2022-08-03T06:54:43Z</time>
      </trkpt>
      <trkpt lat="45.77004" lon="1.86017">
        <ele>635.2</ele>
        <time>2022-08-03T06:54:45Z</time>
      </trkpt>
      <trkpt lat="45.77006" lon="1.86023">
        <ele>635.3</ele>
        <time>2022-08-03T06:54:47Z</time>
      </trkpt>
      <trkpt lat="45.77008" lon="1.86028">
        <ele>635.4</ele>
        <time>2022-08-03T06:54:49Z</time>
      </trkpt>
      <trkpt lat="45.7701" lon="1.86033">
        <ele>635.4</ele>
        <time>2022-08-03T06:54:51Z</time>
      </trkpt>
      <trkpt lat="45.77013" lon="1.86037">
        <ele>635.4</ele>
        <time>2022-08-03T06:54:53Z</time>
      </trkpt>
      <trkpt lat="45.77015" lon="1.86044">
        <ele>635.5</ele>
        <time>2022-08-03T06:54:55Z</time>
      </trkpt>
      <trkpt lat="45.77018" lon="1.86049">
        <ele>635.6</ele>
        <time>2022-08-03T06:54:57Z</time>
      </trkpt>
      <trkpt lat="45.77021" lon="1.86056">
        <ele>635.7</ele>
        <time>2022-08-03T06:54:59Z</time>
      </trkpt>
      <trkpt lat="45.77023" lon="1.86062">
        <ele>635.8</ele>
        <time>2022-08-03T06:55:01Z</time>
      </trkpt>
      <trkpt lat="45.77026" lon="1.8607">
        <ele>635.9</ele>
        <time>2022-08-03T06:55:03Z</time>
      </trkpt>
      <trkpt lat="45.77027" lon="1.86078">
        <ele>636.2</ele>
        <time>2022-08-03T06:55:05Z</time>
      </trkpt>
      <trkpt lat="45.77028" lon="1.86086">
        <ele>636.5</ele>
        <time>2022-08-03T06:55:07Z</time>
      </trkpt>
      <trkpt lat="45.77028" lon="1.86094">
        <ele>637.1</ele>
        <time>2022-08-03T06:55:09Z</time>
      </trkpt>
      <trkpt lat="45.77028" lon="1.86102">
        <ele>637.8</ele>
        <time>2022-08-03T06:55:11Z</time>
      </trkpt>
      <trkpt lat="45.77025" lon="1.86111">
        <ele>638.5</ele>
        <time>2022-08-03T06:55:13Z</time>
      </trkpt>
      <trkpt lat="45.77024" lon="1.86119">
        <ele>639.1</ele>
        <time>2022-08-03T06:55:15Z</time>
      </trkpt>
      <trkpt lat="45.77021" lon="1.86126">
        <ele>639.7</ele>
        <time>2022-08-03T06:55:17Z</time>
      </trkpt>
      <trkpt lat="45.77019" lon="1.86132">
        <ele>640.2</ele>
        <time>2022-08-03T06:55:19Z</time>
      </trkpt>
      <trkpt lat="45.77017" lon="1.86142">
        <ele>641</ele>
        <time>2022-08-03T06:55:21Z</time>
      </trkpt>
      <trkpt lat="45.77014" lon="1.86149">
        <ele>641.5</ele>
        <time>2022-08-03T06:55:23Z</time>
      </trkpt>
      <trkpt lat="45.77012" lon="1.86157">
        <ele>642.1</ele>
        <time>2022-08-03T06:55:25Z</time>
      </trkpt>
      <trkpt lat="45.77009" lon="1.86163">
        <ele>642.6</ele>
        <time>2022-08-03T06:55:27Z</time>
      </trkpt>
      <trkpt lat="45.77007" lon="1.8617">
        <ele>643.6</ele>
        <time>2022-08-03T06:55:29Z</time>
      </trkpt>
      <trkpt lat="45.77005" lon="1.86176">
        <ele>645.1</ele>
        <time>2022-08-03T06:55:31Z</time>
      </trkpt>
      <trkpt lat="45.77002" lon="1.86183">
        <ele>646.6</ele>
        <time>2022-08-03T06:55:33Z</time>
      </trkpt>
      <trkpt lat="45.77" lon="1.86189">
        <ele>648.2</ele>
        <time>2022-08-03T06:55:35Z</time>
      </trkpt>
      <trkpt lat="45.76996" lon="1.86194">
        <ele>649.1</ele>
        <time>2022-08-03T06:55:37Z</time>
      </trkpt>
      <trkpt lat="45.76993" lon="1.86199">
        <ele>650.2</ele>
        <time>2022-08-03T06:55:39Z</time>
      </trkpt>
      <trkpt lat="45.7699" lon="1.86203">
        <ele>650.9</ele>
        <time>2022-08-03T06:55:41Z</time>
      </trkpt>
      <trkpt lat="45.76986" lon="1.86207">
        <ele>651.5</ele>
        <time>2022-08-03T06:55:43Z</time>
      </trkpt>
      <trkpt lat="45.76983" lon="1.86209">
        <ele>651.9</ele>
        <time>2022-08-03T06:55:45Z</time>
      </trkpt>
      <trkpt lat="45.76979" lon="1.86211">
        <ele>652.3</ele>
        <time>2022-08-03T06:55:47Z</time>
      </trkpt>
      <trkpt lat="45.76975" lon="1.86214">
        <ele>652.7</ele>
        <time>2022-08-03T06:55:49Z</time>
      </trkpt>
      <trkpt lat="45.76972" lon="1.86216">
        <ele>653.1</ele>
        <time>2022-08-03T06:55:51Z</time>
      </trkpt>
      <trkpt lat="45.7697" lon="1.86217">
        <ele>653.3</ele>
        <time>2022-08-03T06:55:53Z</time>
      </trkpt>
      <trkpt lat="45.76966" lon="1.8622">
        <ele>653.7</ele>
        <time>2022-08-03T06:55:55Z</time>
      </trkpt>
      <trkpt lat="45.76962" lon="1.86222">
        <ele>654.1</ele>
        <time>2022-08-03T06:55:57Z</time>
      </trkpt>
      <trkpt lat="45.76958" lon="1.86224">
        <ele>654.3</ele>
        <time>2022-08-03T06:55:59Z</time>
      </trkpt>
      <trkpt lat="45.76955" lon="1.86226">
        <ele>654.7</ele>
        <time>2022-08-03T06:56:01Z</time>
      </trkpt>
      <trkpt lat="45.76951" lon="1.86227">
        <ele>654.9</ele>
        <time>2022-08-03T06:56:03Z</time>
      </trkpt>
      <trkpt lat="45.76948" lon="1.8623">
        <ele>655.4</ele>
        <time>2022-08-03T06:56:05Z</time>
      </trkpt>
      <trkpt lat="45.76945" lon="1.86231">
        <ele>655.6</ele>
        <time>2022-08-03T06:56:07Z</time>
      </trkpt>
      <trkpt lat="45.76941" lon="1.86233">
        <ele>655.8</ele>
        <time>2022-08-03T06:56:09Z</time>
      </trkpt>
      <trkpt lat="45.76937" lon="1.86233">
        <ele>655.8</ele>
        <time>2022-08-03T06:56:11Z</time>
      </trkpt>
      <trkpt lat="45.76933" lon="1.86235">
        <ele>656.1</ele>
        <time>2022-08-03T06:56:13Z</time>
      </trkpt>
      <trkpt lat="45.76929" lon="1.86237">
        <ele>656.3</ele>
        <time>2022-08-03T06:56:15Z</time>
      </trkpt>
      <trkpt lat="45.76925" lon="1.86238">
        <ele>656.5</ele>
        <time>2022-08-03T06:56:17Z</time>
      </trkpt>
      <trkpt lat="45.76922" lon="1.8624">
        <ele>656.9</ele>
        <time>2022-08-03T06:56:19Z</time>
      </trkpt>
      <trkpt lat="45.76918" lon="1.86242">
        <ele>657.2</ele>
        <time>2022-08-03T06:56:21Z</time>
      </trkpt>
      <trkpt lat="45.76914" lon="1.86244">
        <ele>657.5</ele>
        <time>2022-08-03T06:56:23Z</time>
      </trkpt>
      <trkpt lat="45.7691" lon="1.86246">
        <ele>657.8</ele>
        <time>2022-08-03T06:56:25Z</time>
      </trkpt>
      <trkpt lat="45.76907" lon="1.86247">
        <ele>658.1</ele>
        <time>2022-08-03T06:56:27Z</time>
      </trkpt>
      <trkpt lat="45.76903" lon="1.86249">
        <ele>658.4</ele>
        <time>2022-08-03T06:56:29Z</time>
      </trkpt>
      <trkpt lat="45.769" lon="1.86251">
        <ele>658.6</ele>
        <time>2022-08-03T06:56:31Z</time>
      </trkpt>
      <trkpt lat="45.76897" lon="1.86253">
        <ele>658.9</ele>
        <time>2022-08-03T06:56:33Z</time>
      </trkpt>
      <trkpt lat="45.76893" lon="1.86255">
        <ele>659.1</ele>
        <time>2022-08-03T06:56:35Z</time>
      </trkpt>
      <trkpt lat="45.7689" lon="1.86257">
        <ele>659.5</ele>
        <time>2022-08-03T06:56:37Z</time>
      </trkpt>
      <trkpt lat="45.76888" lon="1.8626">
        <ele>659.9</ele>
        <time>2022-08-03T06:56:39Z</time>
      </trkpt>
      <trkpt lat="45.76884" lon="1.86262">
        <ele>660.3</ele>
        <time>2022-08-03T06:56:41Z</time>
      </trkpt>
      <trkpt lat="45.76881" lon="1.86265">
        <ele>660.8</ele>
        <time>2022-08-03T06:56:43Z</time>
      </trkpt>
      <trkpt lat="45.76879" lon="1.86269">
        <ele>661.3</ele>
        <time>2022-08-03T06:56:45Z</time>
      </trkpt>
      <trkpt lat="45.76876" lon="1.86272">
        <ele>661.7</ele>
        <time>2022-08-03T06:56:47Z</time>
      </trkpt>
      <trkpt lat="45.76873" lon="1.86275">
        <ele>662.2</ele>
        <time>2022-08-03T06:56:49Z</time>
      </trkpt>
      <trkpt lat="45.76871" lon="1.86278">
        <ele>662.7</ele>
        <time>2022-08-03T06:56:51Z</time>
      </trkpt>
      <trkpt lat="45.76869" lon="1.86282">
        <ele>663.3</ele>
        <time>2022-08-03T06:56:53Z</time>
      </trkpt>
      <trkpt lat="45.76866" lon="1.86286">
        <ele>663.8</ele>
        <time>2022-08-03T06:56:55Z</time>
      </trkpt>
      <trkpt lat="45.76864" lon="1.8629">
        <ele>664.4</ele>
        <time>2022-08-03T06:56:57Z</time>
      </trkpt>
      <trkpt lat="45.76862" lon="1.86295">
        <ele>665.1</ele>
        <time>2022-08-03T06:56:59Z</time>
      </trkpt>
      <trkpt lat="45.7686" lon="1.86299">
        <ele>665.8</ele>
        <time>2022-08-03T06:57:01Z</time>
      </trkpt>
      <trkpt lat="45.76858" lon="1.86303">
        <ele>666.3</ele>
        <time>2022-08-03T06:57:03Z</time>
      </trkpt>
      <trkpt lat="45.76857" lon="1.86308">
        <ele>667</ele>
        <time>2022-08-03T06:57:05Z</time>
      </trkpt>
      <trkpt lat="45.76855" lon="1.86312">
        <ele>667.7</ele>
        <time>2022-08-03T06:57:07Z</time>
      </trkpt>
      <trkpt lat="45.76853" lon="1.86316">
        <ele>668.2</ele>
        <time>2022-08-03T06:57:09Z</time>
      </trkpt>
      <trkpt lat="45.76851" lon="1.8632">
        <ele>668.7</ele>
        <time>2022-08-03T06:57:11Z</time>
      </trkpt>
      <trkpt lat="45.7685" lon="1.86324">
        <ele>669.2</ele>
        <time>2022-08-03T06:57:13Z</time>
      </trkpt>
      <trkpt lat="45.76848" lon="1.86327">
        <ele>669.5</ele>
        <time>2022-08-03T06:57:15Z</time>
      </trkpt>
      <trkpt lat="45.76847" lon="1.8633">
        <ele>669.9</ele>
        <time>2022-08-03T06:57:17Z</time>
      </trkpt>
      <trkpt lat="45.76844" lon="1.86332">
        <ele>670</ele>
        <time>2022-08-03T06:57:19Z</time>
      </trkpt>
      <trkpt lat="45.76842" lon="1.86337">
        <ele>670.6</ele>
        <time>2022-08-03T06:57:21Z</time>
      </trkpt>
      <trkpt lat="45.76841" lon="1.86341">
        <ele>671.6</ele>
        <time>2022-08-03T06:57:23Z</time>
      </trkpt>
      <trkpt lat="45.7684" lon="1.86346">
        <ele>672.3</ele>
        <time>2022-08-03T06:57:25Z</time>
      </trkpt>
      <trkpt lat="45.76838" lon="1.86348">
        <ele>672.7</ele>
        <time>2022-08-03T06:57:27Z</time>
      </trkpt>
      <trkpt lat="45.76838" lon="1.86351">
        <ele>673.2</ele>
        <time>2022-08-03T06:57:29Z</time>
      </trkpt>
      <trkpt lat="45.76836" lon="1.86357">
        <ele>674.3</ele>
        <time>2022-08-03T06:57:31Z</time>
      </trkpt>
      <trkpt lat="45.76834" lon="1.86362">
        <ele>675.3</ele>
        <time>2022-08-03T06:57:33Z</time>
      </trkpt>
      <trkpt lat="45.76832" lon="1.86365">
        <ele>675.7</ele>
        <time>2022-08-03T06:57:35Z</time>
      </trkpt>
      <trkpt lat="45.76829" lon="1.86368">
        <ele>676.1</ele>
        <time>2022-08-03T06:57:37Z</time>
      </trkpt>
      <trkpt lat="45.76827" lon="1.86373">
        <ele>676.9</ele>
        <time>2022-08-03T06:57:39Z</time>
      </trkpt>
      <trkpt lat="45.76825" lon="1.86377">
        <ele>677.6</ele>
        <time>2022-08-03T06:57:41Z</time>
      </trkpt>
      <trkpt lat="45.76823" lon="1.86382">
        <ele>678.2</ele>
        <time>2022-08-03T06:57:43Z</time>
      </trkpt>
      <trkpt lat="45.7682" lon="1.86385">
        <ele>678.6</ele>
        <time>2022-08-03T06:57:45Z</time>
      </trkpt>
      <trkpt lat="45.76817" lon="1.86387">
        <ele>678.5</ele>
        <time>2022-08-03T06:57:47Z</time>
      </trkpt>
      <trkpt lat="45.76814" lon="1.86389">
        <ele>678.6</ele>
        <time>2022-08-03T06:57:49Z</time>
      </trkpt>
      <trkpt lat="45.76811" lon="1.86392">
        <ele>678.7</ele>
        <time>2022-08-03T06:57:51Z</time>
      </trkpt>
      <trkpt lat="45.76807" lon="1.86395">
        <ele>678.7</ele>
        <time>2022-08-03T06:57:53Z</time>
      </trkpt>
      <trkpt lat="45.76803" lon="1.86397">
        <ele>678.4</ele>
        <time>2022-08-03T06:57:55Z</time>
      </trkpt>
      <trkpt lat="45.768" lon="1.864">
        <ele>678.5</ele>
        <time>2022-08-03T06:57:57Z</time>
      </trkpt>
      <trkpt lat="45.76799" lon="1.86406">
        <ele>679.4</ele>
        <time>2022-08-03T06:57:59Z</time>
      </trkpt>
      <trkpt lat="45.76795" lon="1.86407">
        <ele>679</ele>
        <time>2022-08-03T06:58:01Z</time>
      </trkpt>
      <trkpt lat="45.76793" lon="1.86408">
        <ele>678.7</ele>
        <time>2022-08-03T06:58:03Z</time>
      </trkpt>
      <trkpt lat="45.7679" lon="1.86409">
        <ele>678.5</ele>
        <time>2022-08-03T06:58:05Z</time>
      </trkpt>
      <trkpt lat="45.76788" lon="1.86413">
        <ele>678.9</ele>
        <time>2022-08-03T06:58:07Z</time>
      </trkpt>
      <trkpt lat="45.76786" lon="1.86417">
        <ele>679.2</ele>
        <time>2022-08-03T06:58:09Z</time>
      </trkpt>
      <trkpt lat="45.76783" lon="1.86419">
        <ele>679.1</ele>
        <time>2022-08-03T06:58:11Z</time>
      </trkpt>
      <trkpt lat="45.7678" lon="1.86423">
        <ele>679.4</ele>
        <time>2022-08-03T06:58:13Z</time>
      </trkpt>
      <trkpt lat="45.76777" lon="1.86424">
        <ele>679</ele>
        <time>2022-08-03T06:58:15Z</time>
      </trkpt>
      <trkpt lat="45.76774" lon="1.86424">
        <ele>678.6</ele>
        <time>2022-08-03T06:58:17Z</time>
      </trkpt>
      <trkpt lat="45.76771" lon="1.86429">
        <ele>679.2</ele>
        <time>2022-08-03T06:58:19Z</time>
      </trkpt>
      <trkpt lat="45.76768" lon="1.86431">
        <ele>679.3</ele>
        <time>2022-08-03T06:58:21Z</time>
      </trkpt>
      <trkpt lat="45.76766" lon="1.86435">
        <ele>679.6</ele>
        <time>2022-08-03T06:58:23Z</time>
      </trkpt>
      <trkpt lat="45.76763" lon="1.86438">
        <ele>679.7</ele>
        <time>2022-08-03T06:58:25Z</time>
      </trkpt>
      <trkpt lat="45.76761" lon="1.86441">
        <ele>680.1</ele>
        <time>2022-08-03T06:58:27Z</time>
      </trkpt>
      <trkpt lat="45.76758" lon="1.86443">
        <ele>680</ele>
        <time>2022-08-03T06:58:29Z</time>
      </trkpt>
      <trkpt lat="45.76755" lon="1.86446">
        <ele>680.1</ele>
        <time>2022-08-03T06:58:31Z</time>
      </trkpt>
      <trkpt lat="45.76753" lon="1.8645">
        <ele>680.7</ele>
        <time>2022-08-03T06:58:33Z</time>
      </trkpt>
      <trkpt lat="45.7675" lon="1.86451">
        <ele>680.5</ele>
        <time>2022-08-03T06:58:35Z</time>
      </trkpt>
      <trkpt lat="45.76747" lon="1.86454">
        <ele>680.6</ele>
        <time>2022-08-03T06:58:37Z</time>
      </trkpt>
      <trkpt lat="45.76743" lon="1.86455">
        <ele>680.3</ele>
        <time>2022-08-03T06:58:39Z</time>
      </trkpt>
      <trkpt lat="45.7674" lon="1.86459">
        <ele>680.6</ele>
        <time>2022-08-03T06:58:41Z</time>
      </trkpt>
      <trkpt lat="45.76738" lon="1.86462">
        <ele>680.8</ele>
        <time>2022-08-03T06:58:43Z</time>
      </trkpt>
      <trkpt lat="45.76734" lon="1.86463">
        <ele>680.5</ele>
        <time>2022-08-03T06:58:45Z</time>
      </trkpt>
      <trkpt lat="45.76732" lon="1.86463">
        <ele>680.2</ele>
        <time>2022-08-03T06:58:47Z</time>
      </trkpt>
      <trkpt lat="45.7673" lon="1.86465">
        <ele>680.1</ele>
        <time>2022-08-03T06:58:49Z</time>
      </trkpt>
      <trkpt lat="45.76727" lon="1.86468">
        <ele>680.1</ele>
        <time>2022-08-03T06:58:51Z</time>
      </trkpt>
      <trkpt lat="45.76724" lon="1.8647">
        <ele>680</ele>
        <time>2022-08-03T06:58:53Z</time>
      </trkpt>
      <trkpt lat="45.7672" lon="1.86473">
        <ele>680.1</ele>
        <time>2022-08-03T06:58:55Z</time>
      </trkpt>
      <trkpt lat="45.76717" lon="1.86475">
        <ele>679.8</ele>
        <time>2022-08-03T06:58:57Z</time>
      </trkpt>
      <trkpt lat="45.76714" lon="1.86476">
        <ele>679.5</ele>
        <time>2022-08-03T06:58:59Z</time>
      </trkpt>
      <trkpt lat="45.76711" lon="1.86479">
        <ele>679.4</ele>
        <time>2022-08-03T06:59:01Z</time>
      </trkpt>
      <trkpt lat="45.76709" lon="1.86482">
        <ele>679.5</ele>
        <time>2022-08-03T06:59:03Z</time>
      </trkpt>
      <trkpt lat="45.76706" lon="1.86483">
        <ele>679.4</ele>
        <time>2022-08-03T06:59:05Z</time>
      </trkpt>
      <trkpt lat="45.76703" lon="1.86486">
        <ele>679.3</ele>
        <time>2022-08-03T06:59:07Z</time>
      </trkpt>
      <trkpt lat="45.76701" lon="1.86491">
        <ele>679.5</ele>
        <time>2022-08-03T06:59:09Z</time>
      </trkpt>
      <trkpt lat="45.76698" lon="1.86491">
        <ele>679</ele>
        <time>2022-08-03T06:59:11Z</time>
      </trkpt>
      <trkpt lat="45.76695" lon="1.86495">
        <ele>679</ele>
        <time>2022-08-03T06:59:13Z</time>
      </trkpt>
      <trkpt lat="45.76692" lon="1.86496">
        <ele>678.6</ele>
        <time>2022-08-03T06:59:15Z</time>
      </trkpt>
      <trkpt lat="45.76689" lon="1.86499">
        <ele>678.5</ele>
        <time>2022-08-03T06:59:17Z</time>
      </trkpt>
      <trkpt lat="45.76686" lon="1.86502">
        <ele>678.4</ele>
        <time>2022-08-03T06:59:19Z</time>
      </trkpt>
      <trkpt lat="45.76684" lon="1.86504">
        <ele>678.3</ele>
        <time>2022-08-03T06:59:21Z</time>
      </trkpt>
      <trkpt lat="45.76682" lon="1.86508">
        <ele>678.5</ele>
        <time>2022-08-03T06:59:23Z</time>
      </trkpt>
      <trkpt lat="45.76679" lon="1.8651">
        <ele>678.3</ele>
        <time>2022-08-03T06:59:25Z</time>
      </trkpt>
      <trkpt lat="45.76677" lon="1.86513">
        <ele>678.3</ele>
        <time>2022-08-03T06:59:27Z</time>
      </trkpt>
      <trkpt lat="45.76675" lon="1.86518">
        <ele>678.9</ele>
        <time>2022-08-03T06:59:29Z</time>
      </trkpt>
      <trkpt lat="45.76673" lon="1.86522">
        <ele>679.1</ele>
        <time>2022-08-03T06:59:31Z</time>
      </trkpt>
      <trkpt lat="45.76671" lon="1.86525">
        <ele>679.4</ele>
        <time>2022-08-03T06:59:33Z</time>
      </trkpt>
      <trkpt lat="45.7667" lon="1.8653">
        <ele>679.9</ele>
        <time>2022-08-03T06:59:35Z</time>
      </trkpt>
      <trkpt lat="45.76668" lon="1.86534">
        <ele>680.5</ele>
        <time>2022-08-03T06:59:37Z</time>
      </trkpt>
      <trkpt lat="45.76666" lon="1.86539">
        <ele>681</ele>
        <time>2022-08-03T06:59:39Z</time>
      </trkpt>
      <trkpt lat="45.76665" lon="1.86544">
        <ele>681.6</ele>
        <time>2022-08-03T06:59:41Z</time>
      </trkpt>
      <trkpt lat="45.76663" lon="1.86546">
        <ele>681.7</ele>
        <time>2022-08-03T06:59:43Z</time>
      </trkpt>
      <trkpt lat="45.7666" lon="1.86551">
        <ele>682.2</ele>
        <time>2022-08-03T06:59:45Z</time>
      </trkpt>
      <trkpt lat="45.76659" lon="1.86556">
        <ele>682.7</ele>
        <time>2022-08-03T06:59:47Z</time>
      </trkpt>
      <trkpt lat="45.7666" lon="1.86562">
        <ele>683.9</ele>
        <time>2022-08-03T06:59:49Z</time>
      </trkpt>
      <trkpt lat="45.76657" lon="1.86565">
        <ele>683.9</ele>
        <time>2022-08-03T06:59:51Z</time>
      </trkpt>
      <trkpt lat="45.76654" lon="1.8657">
        <ele>684.2</ele>
        <time>2022-08-03T06:59:53Z</time>
      </trkpt>
      <trkpt lat="45.76652" lon="1.86575">
        <ele>684.6</ele>
        <time>2022-08-03T06:59:55Z</time>
      </trkpt>
      <trkpt lat="45.7665" lon="1.86579">
        <ele>684.9</ele>
        <time>2022-08-03T06:59:57Z</time>
      </trkpt>
      <trkpt lat="45.76647" lon="1.86584">
        <ele>684.9</ele>
        <time>2022-08-03T06:59:59Z</time>
      </trkpt>
      <trkpt lat="45.76643" lon="1.86588">
        <ele>684.3</ele>
        <time>2022-08-03T07:00:01Z</time>
      </trkpt>
      <trkpt lat="45.76641" lon="1.86594">
        <ele>684.4</ele>
        <time>2022-08-03T07:00:03Z</time>
      </trkpt>
      <trkpt lat="45.76638" lon="1.86599">
        <ele>684.5</ele>
        <time>2022-08-03T07:00:05Z</time>
      </trkpt>
      <trkpt lat="45.76636" lon="1.86604">
        <ele>684.4</ele>
        <time>2022-08-03T07:00:07Z</time>
      </trkpt>
      <trkpt lat="45.76633" lon="1.86608">
        <ele>684.2</ele>
        <time>2022-08-03T07:00:09Z</time>
      </trkpt>
      <trkpt lat="45.7663" lon="1.86611">
        <ele>684</ele>
        <time>2022-08-03T07:00:11Z</time>
      </trkpt>
      <trkpt lat="45.76629" lon="1.86616">
        <ele>684.2</ele>
        <time>2022-08-03T07:00:13Z</time>
      </trkpt>
      <trkpt lat="45.76629" lon="1.86621">
        <ele>684.5</ele>
        <time>2022-08-03T07:00:15Z</time>
      </trkpt>
      <trkpt lat="45.76627" lon="1.86624">
        <ele>684.3</ele>
        <time>2022-08-03T07:00:17Z</time>
      </trkpt>
      <trkpt lat="45.76625" lon="1.86628">
        <ele>684.3</ele>
        <time>2022-08-03T07:00:19Z</time>
      </trkpt>
      <trkpt lat="45.76623" lon="1.86631">
        <ele>684</ele>
        <time>2022-08-03T07:00:21Z</time>
      </trkpt>
      <trkpt lat="45.76621" lon="1.86635">
        <ele>683.9</ele>
        <time>2022-08-03T07:00:23Z</time>
      </trkpt>
      <trkpt lat="45.76619" lon="1.8664">
        <ele>684</ele>
        <time>2022-08-03T07:00:25Z</time>
      </trkpt>
      <trkpt lat="45.76617" lon="1.86644">
        <ele>683.9</ele>
        <time>2022-08-03T07:00:27Z</time>
      </trkpt>
      <trkpt lat="45.76616" lon="1.86648">
        <ele>684</ele>
        <time>2022-08-03T07:00:29Z</time>
      </trkpt>
      <trkpt lat="45.76616" lon="1.86652">
        <ele>684.2</ele>
        <time>2022-08-03T07:00:31Z</time>
      </trkpt>
      <trkpt lat="45.76614" lon="1.86655">
        <ele>683.9</ele>
        <time>2022-08-03T07:00:33Z</time>
      </trkpt>
      <trkpt lat="45.76612" lon="1.86659">
        <ele>683.9</ele>
        <time>2022-08-03T07:00:35Z</time>
      </trkpt>
      <trkpt lat="45.7661" lon="1.86661">
        <ele>683.7</ele>
        <time>2022-08-03T07:00:37Z</time>
      </trkpt>
      <trkpt lat="45.76611" lon="1.86667">
        <ele>684.3</ele>
        <time>2022-08-03T07:00:39Z</time>
      </trkpt>
      <trkpt lat="45.76609" lon="1.86669">
        <ele>683.9</ele>
        <time>2022-08-03T07:00:41Z</time>
      </trkpt>
      <trkpt lat="45.76607" lon="1.86674">
        <ele>684.1</ele>
        <time>2022-08-03T07:00:43Z</time>
      </trkpt>
      <trkpt lat="45.76606" lon="1.86678">
        <ele>684.1</ele>
        <time>2022-08-03T07:00:45Z</time>
      </trkpt>
      <trkpt lat="45.76603" lon="1.86682">
        <ele>683.8</ele>
        <time>2022-08-03T07:00:47Z</time>
      </trkpt>
      <trkpt lat="45.76602" lon="1.86685">
        <ele>684</ele>
        <time>2022-08-03T07:00:49Z</time>
      </trkpt>
      <trkpt lat="45.76602" lon="1.86691">
        <ele>684.6</ele>
        <time>2022-08-03T07:00:51Z</time>
      </trkpt>
      <trkpt lat="45.766" lon="1.86694">
        <ele>684.5</ele>
        <time>2022-08-03T07:00:53Z</time>
      </trkpt>
      <trkpt lat="45.766" lon="1.86699">
        <ele>684.8</ele>
        <time>2022-08-03T07:00:55Z</time>
      </trkpt>
      <trkpt lat="45.766" lon="1.86704">
        <ele>685.4</ele>
        <time>2022-08-03T07:00:57Z</time>
      </trkpt>
      <trkpt lat="45.766" lon="1.86707">
        <ele>685.7</ele>
        <time>2022-08-03T07:00:59Z</time>
      </trkpt>
      <trkpt lat="45.76601" lon="1.86713">
        <ele>686.6</ele>
        <time>2022-08-03T07:01:01Z</time>
      </trkpt>
      <trkpt lat="45.76601" lon="1.86717">
        <ele>687.1</ele>
        <time>2022-08-03T07:01:03Z</time>
      </trkpt>
      <trkpt lat="45.76601" lon="1.86723">
        <ele>687.8</ele>
        <time>2022-08-03T07:01:05Z</time>
      </trkpt>
      <trkpt lat="45.766" lon="1.86727">
        <ele>688</ele>
        <time>2022-08-03T07:01:07Z</time>
      </trkpt>
      <trkpt lat="45.766" lon="1.86731">
        <ele>688.3</ele>
        <time>2022-08-03T07:01:09Z</time>
      </trkpt>
      <trkpt lat="45.76601" lon="1.86735">
        <ele>689</ele>
        <time>2022-08-03T07:01:11Z</time>
      </trkpt>
      <trkpt lat="45.76602" lon="1.8674">
        <ele>689.8</ele>
        <time>2022-08-03T07:01:13Z</time>
      </trkpt>
      <trkpt lat="45.76603" lon="1.86743">
        <ele>690.5</ele>
        <time>2022-08-03T07:01:15Z</time>
      </trkpt>
      <trkpt lat="45.76606" lon="1.86747">
        <ele>691.7</ele>
        <time>2022-08-03T07:01:17Z</time>
      </trkpt>
      <trkpt lat="45.7661" lon="1.86753">
        <ele>693.2</ele>
        <time>2022-08-03T07:01:19Z</time>
      </trkpt>
      <trkpt lat="45.7661" lon="1.86758">
        <ele>694</ele>
        <time>2022-08-03T07:01:21Z</time>
      </trkpt>
      <trkpt lat="45.76612" lon="1.86763">
        <ele>695.1</ele>
        <time>2022-08-03T07:01:23Z</time>
      </trkpt>
      <trkpt lat="45.76613" lon="1.86766">
        <ele>695.7</ele>
        <time>2022-08-03T07:01:25Z</time>
      </trkpt>
      <trkpt lat="45.76614" lon="1.86771">
        <ele>696.5</ele>
        <time>2022-08-03T07:01:27Z</time>
      </trkpt>
      <trkpt lat="45.76615" lon="1.86775">
        <ele>697.2</ele>
        <time>2022-08-03T07:01:29Z</time>
      </trkpt>
      <trkpt lat="45.76616" lon="1.86779">
        <ele>698</ele>
        <time>2022-08-03T07:01:31Z</time>
      </trkpt>
      <trkpt lat="45.76618" lon="1.86784">
        <ele>698.7</ele>
        <time>2022-08-03T07:01:33Z</time>
      </trkpt>
      <trkpt lat="45.76619" lon="1.86789">
        <ele>699.6</ele>
        <time>2022-08-03T07:01:35Z</time>
      </trkpt>
      <trkpt lat="45.76621" lon="1.86793">
        <ele>700.4</ele>
        <time>2022-08-03T07:01:37Z</time>
      </trkpt>
      <trkpt lat="45.76622" lon="1.86798">
        <ele>701.4</ele>
        <time>2022-08-03T07:01:39Z</time>
      </trkpt>
      <trkpt lat="45.76623" lon="1.86803">
        <ele>702</ele>
        <time>2022-08-03T07:01:41Z</time>
      </trkpt>
      <trkpt lat="45.76625" lon="1.86808">
        <ele>702.8</ele>
        <time>2022-08-03T07:01:43Z</time>
      </trkpt>
      <trkpt lat="45.76626" lon="1.86813">
        <ele>703.6</ele>
        <time>2022-08-03T07:01:45Z</time>
      </trkpt>
      <trkpt lat="45.76628" lon="1.86816">
        <ele>704.3</ele>
        <time>2022-08-03T07:01:47Z</time>
      </trkpt>
      <trkpt lat="45.76629" lon="1.86822">
        <ele>705.2</ele>
        <time>2022-08-03T07:01:49Z</time>
      </trkpt>
      <trkpt lat="45.7663" lon="1.86825">
        <ele>705.5</ele>
        <time>2022-08-03T07:01:51Z</time>
      </trkpt>
      <trkpt lat="45.7663" lon="1.86831">
        <ele>706.2</ele>
        <time>2022-08-03T07:01:53Z</time>
      </trkpt>
      <trkpt lat="45.7663" lon="1.86836">
        <ele>706.4</ele>
        <time>2022-08-03T07:01:55Z</time>
      </trkpt>
      <trkpt lat="45.7663" lon="1.8684">
        <ele>706.5</ele>
        <time>2022-08-03T07:01:57Z</time>
      </trkpt>
      <trkpt lat="45.76631" lon="1.86845">
        <ele>706.8</ele>
        <time>2022-08-03T07:01:59Z</time>
      </trkpt>
      <trkpt lat="45.7663" lon="1.8685">
        <ele>706.8</ele>
        <time>2022-08-03T07:02:01Z</time>
      </trkpt>
      <trkpt lat="45.76631" lon="1.86855">
        <ele>707</ele>
        <time>2022-08-03T07:02:03Z</time>
      </trkpt>
      <trkpt lat="45.76631" lon="1.8686">
        <ele>707.1</ele>
        <time>2022-08-03T07:02:05Z</time>
      </trkpt>
      <trkpt lat="45.76632" lon="1.86866">
        <ele>707.3</ele>
        <time>2022-08-03T07:02:07Z</time>
      </trkpt>
      <trkpt lat="45.76631" lon="1.8687">
        <ele>707.3</ele>
        <time>2022-08-03T07:02:09Z</time>
      </trkpt>
      <trkpt lat="45.76631" lon="1.86875">
        <ele>707.3</ele>
        <time>2022-08-03T07:02:11Z</time>
      </trkpt>
      <trkpt lat="45.76631" lon="1.8688">
        <ele>707.5</ele>
        <time>2022-08-03T07:02:13Z</time>
      </trkpt>
      <trkpt lat="45.76631" lon="1.86884">
        <ele>707.5</ele>
        <time>2022-08-03T07:02:15Z</time>
      </trkpt>
      <trkpt lat="45.7663" lon="1.86889">
        <ele>707.6</ele>
        <time>2022-08-03T07:02:17Z</time>
      </trkpt>
      <trkpt lat="45.7663" lon="1.86894">
        <ele>707.6</ele>
        <time>2022-08-03T07:02:19Z</time>
      </trkpt>
      <trkpt lat="45.7663" lon="1.86898">
        <ele>707.6</ele>
        <time>2022-08-03T07:02:21Z</time>
      </trkpt>
      <trkpt lat="45.76629" lon="1.86903">
        <ele>707.7</ele>
        <time>2022-08-03T07:02:23Z</time>
      </trkpt>
      <trkpt lat="45.76629" lon="1.86907">
        <ele>707.7</ele>
        <time>2022-08-03T07:02:25Z</time>
      </trkpt>
      <trkpt lat="45.76627" lon="1.86912">
        <ele>707.6</ele>
        <time>2022-08-03T07:02:27Z</time>
      </trkpt>
      <trkpt lat="45.76626" lon="1.86916">
        <ele>707.6</ele>
        <time>2022-08-03T07:02:29Z</time>
      </trkpt>
      <trkpt lat="45.76623" lon="1.8692">
        <ele>707.4</ele>
        <time>2022-08-03T07:02:31Z</time>
      </trkpt>
      <trkpt lat="45.7662" lon="1.86924">
        <ele>707.1</ele>
        <time>2022-08-03T07:02:33Z</time>
      </trkpt>
      <trkpt lat="45.76617" lon="1.86926">
        <ele>706.8</ele>
        <time>2022-08-03T07:02:35Z</time>
      </trkpt>
      <trkpt lat="45.76614" lon="1.86928">
        <ele>706.5</ele>
        <time>2022-08-03T07:02:37Z</time>
      </trkpt>
      <trkpt lat="45.76611" lon="1.86931">
        <ele>706.3</ele>
        <time>2022-08-03T07:02:39Z</time>
      </trkpt>
      <trkpt lat="45.76607" lon="1.86934">
        <ele>706</ele>
        <time>2022-08-03T07:02:41Z</time>
      </trkpt>
      <trkpt lat="45.76604" lon="1.86937">
        <ele>705.8</ele>
        <time>2022-08-03T07:02:43Z</time>
      </trkpt>
      <trkpt lat="45.76599" lon="1.86939">
        <ele>705.5</ele>
        <time>2022-08-03T07:02:45Z</time>
      </trkpt>
      <trkpt lat="45.76596" lon="1.86941">
        <ele>705.2</ele>
        <time>2022-08-03T07:02:47Z</time>
      </trkpt>
      <trkpt lat="45.76592" lon="1.86944">
        <ele>705</ele>
        <time>2022-08-03T07:02:49Z</time>
      </trkpt>
      <trkpt lat="45.76589" lon="1.86947">
        <ele>704.9</ele>
        <time>2022-08-03T07:02:51Z</time>
      </trkpt>
      <trkpt lat="45.76585" lon="1.86949">
        <ele>704.7</ele>
        <time>2022-08-03T07:02:53Z</time>
      </trkpt>
      <trkpt lat="45.7658" lon="1.86951">
        <ele>704.5</ele>
        <time>2022-08-03T07:02:55Z</time>
      </trkpt>
      <trkpt lat="45.76576" lon="1.86954">
        <ele>704.5</ele>
        <time>2022-08-03T07:02:57Z</time>
      </trkpt>
      <trkpt lat="45.76574" lon="1.86957">
        <ele>704.5</ele>
        <time>2022-08-03T07:02:59Z</time>
      </trkpt>
      <trkpt lat="45.76571" lon="1.86959">
        <ele>704.5</ele>
        <time>2022-08-03T07:03:01Z</time>
      </trkpt>
      <trkpt lat="45.76569" lon="1.86961">
        <ele>704.5</ele>
        <time>2022-08-03T07:03:03Z</time>
      </trkpt>
      <trkpt lat="45.76568" lon="1.86962">
        <ele>704.6</ele>
        <time>2022-08-03T07:03:05Z</time>
      </trkpt>
      <trkpt lat="45.76564" lon="1.86965">
        <ele>704.6</ele>
        <time>2022-08-03T07:03:07Z</time>
      </trkpt>
      <trkpt lat="45.76561" lon="1.86967">
        <ele>704.6</ele>
        <time>2022-08-03T07:03:09Z</time>
      </trkpt>
      <trkpt lat="45.76559" lon="1.86969">
        <ele>704.6</ele>
        <time>2022-08-03T07:03:11Z</time>
      </trkpt>
      <trkpt lat="45.76556" lon="1.86972">
        <ele>704.7</ele>
        <time>2022-08-03T07:03:13Z</time>
      </trkpt>
      <trkpt lat="45.76554" lon="1.86976">
        <ele>704.8</ele>
        <time>2022-08-03T07:03:15Z</time>
      </trkpt>
      <trkpt lat="45.76552" lon="1.86981">
        <ele>705.1</ele>
        <time>2022-08-03T07:03:17Z</time>
      </trkpt>
      <trkpt lat="45.7655" lon="1.86986">
        <ele>705.3</ele>
        <time>2022-08-03T07:03:19Z</time>
      </trkpt>
      <trkpt lat="45.76547" lon="1.86991">
        <ele>705.5</ele>
        <time>2022-08-03T07:03:21Z</time>
      </trkpt>
      <trkpt lat="45.76545" lon="1.86995">
        <ele>705.7</ele>
        <time>2022-08-03T07:03:23Z</time>
      </trkpt>
      <trkpt lat="45.76544" lon="1.86998">
        <ele>705.9</ele>
        <time>2022-08-03T07:03:25Z</time>
      </trkpt>
      <trkpt lat="45.76543" lon="1.87003">
        <ele>706.1</ele>
        <time>2022-08-03T07:03:27Z</time>
      </trkpt>
      <trkpt lat="45.76541" lon="1.87006">
        <ele>706.2</ele>
        <time>2022-08-03T07:03:29Z</time>
      </trkpt>
      <trkpt lat="45.76541" lon="1.8701">
        <ele>706.3</ele>
        <time>2022-08-03T07:03:31Z</time>
      </trkpt>
      <trkpt lat="45.76541" lon="1.87015">
        <ele>706.5</ele>
        <time>2022-08-03T07:03:33Z</time>
      </trkpt>
      <trkpt lat="45.7654" lon="1.8702">
        <ele>706.7</ele>
        <time>2022-08-03T07:03:35Z</time>
      </trkpt>
      <trkpt lat="45.7654" lon="1.87025">
        <ele>706.8</ele>
        <time>2022-08-03T07:03:37Z</time>
      </trkpt>
      <trkpt lat="45.76541" lon="1.87031">
        <ele>707.1</ele>
        <time>2022-08-03T07:03:39Z</time>
      </trkpt>
      <trkpt lat="45.76542" lon="1.87035">
        <ele>707.3</ele>
        <time>2022-08-03T07:03:41Z</time>
      </trkpt>
      <trkpt lat="45.76543" lon="1.87039">
        <ele>707.4</ele>
        <time>2022-08-03T07:03:43Z</time>
      </trkpt>
      <trkpt lat="45.76544" lon="1.87043">
        <ele>707.7</ele>
        <time>2022-08-03T07:03:45Z</time>
      </trkpt>
      <trkpt lat="45.76545" lon="1.87047">
        <ele>707.9</ele>
        <time>2022-08-03T07:03:47Z</time>
      </trkpt>
      <trkpt lat="45.76546" lon="1.87051">
        <ele>708.1</ele>
        <time>2022-08-03T07:03:49Z</time>
      </trkpt>
      <trkpt lat="45.76548" lon="1.87055">
        <ele>708.3</ele>
        <time>2022-08-03T07:03:51Z</time>
      </trkpt>
      <trkpt lat="45.7655" lon="1.87059">
        <ele>708.6</ele>
        <time>2022-08-03T07:03:53Z</time>
      </trkpt>
      <trkpt lat="45.76552" lon="1.87063">
        <ele>708.9</ele>
        <time>2022-08-03T07:03:55Z</time>
      </trkpt>
      <trkpt lat="45.76554" lon="1.87067">
        <ele>709.2</ele>
        <time>2022-08-03T07:03:57Z</time>
      </trkpt>
      <trkpt lat="45.76556" lon="1.87072">
        <ele>709.5</ele>
        <time>2022-08-03T07:03:59Z</time>
      </trkpt>
      <trkpt lat="45.76559" lon="1.87075">
        <ele>709.9</ele>
        <time>2022-08-03T07:04:01Z</time>
      </trkpt>
      <trkpt lat="45.76561" lon="1.8708">
        <ele>710.2</ele>
        <time>2022-08-03T07:04:03Z</time>
      </trkpt>
      <trkpt lat="45.76563" lon="1.87084">
        <ele>710.5</ele>
        <time>2022-08-03T07:04:05Z</time>
      </trkpt>
      <trkpt lat="45.76565" lon="1.87089">
        <ele>710.7</ele>
        <time>2022-08-03T07:04:07Z</time>
      </trkpt>
      <trkpt lat="45.76567" lon="1.87092">
        <ele>710.9</ele>
        <time>2022-08-03T07:04:09Z</time>
      </trkpt>
      <trkpt lat="45.76569" lon="1.87097">
        <ele>711</ele>
        <time>2022-08-03T07:04:11Z</time>
      </trkpt>
      <trkpt lat="45.76571" lon="1.87101">
        <ele>711.1</ele>
        <time>2022-08-03T07:04:13Z</time>
      </trkpt>
      <trkpt lat="45.76573" lon="1.87105">
        <ele>711.3</ele>
        <time>2022-08-03T07:04:15Z</time>
      </trkpt>
      <trkpt lat="45.76576" lon="1.87109">
        <ele>711.5</ele>
        <time>2022-08-03T07:04:17Z</time>
      </trkpt>
      <trkpt lat="45.76578" lon="1.87113">
        <ele>711.6</ele>
        <time>2022-08-03T07:04:19Z</time>
      </trkpt>
      <trkpt lat="45.7658" lon="1.87117">
        <ele>711.8</ele>
        <time>2022-08-03T07:04:21Z</time>
      </trkpt>
      <trkpt lat="45.76581" lon="1.87122">
        <ele>711.9</ele>
        <time>2022-08-03T07:04:23Z</time>
      </trkpt>
      <trkpt lat="45.76583" lon="1.87127">
        <ele>712</ele>
        <time>2022-08-03T07:04:25Z</time>
      </trkpt>
      <trkpt lat="45.76585" lon="1.87131">
        <ele>712.2</ele>
        <time>2022-08-03T07:04:27Z</time>
      </trkpt>
      <trkpt lat="45.76588" lon="1.87135">
        <ele>712.4</ele>
        <time>2022-08-03T07:04:29Z</time>
      </trkpt>
      <trkpt lat="45.76589" lon="1.8714">
        <ele>712.7</ele>
        <time>2022-08-03T07:04:31Z</time>
      </trkpt>
      <trkpt lat="45.76591" lon="1.87145">
        <ele>712.8</ele>
        <time>2022-08-03T07:04:33Z</time>
      </trkpt>
      <trkpt lat="45.76593" lon="1.8715">
        <ele>713.1</ele>
        <time>2022-08-03T07:04:35Z</time>
      </trkpt>
      <trkpt lat="45.76595" lon="1.87155">
        <ele>713.3</ele>
        <time>2022-08-03T07:04:37Z</time>
      </trkpt>
      <trkpt lat="45.76597" lon="1.8716">
        <ele>713.7</ele>
        <time>2022-08-03T07:04:39Z</time>
      </trkpt>
      <trkpt lat="45.766" lon="1.87165">
        <ele>714</ele>
        <time>2022-08-03T07:04:41Z</time>
      </trkpt>
      <trkpt lat="45.76603" lon="1.8717">
        <ele>714.3</ele>
        <time>2022-08-03T07:04:43Z</time>
      </trkpt>
      <trkpt lat="45.76604" lon="1.87177">
        <ele>714.4</ele>
        <time>2022-08-03T07:04:45Z</time>
      </trkpt>
      <trkpt lat="45.76606" lon="1.87183">
        <ele>714.5</ele>
        <time>2022-08-03T07:04:47Z</time>
      </trkpt>
      <trkpt lat="45.76609" lon="1.87188">
        <ele>714.7</ele>
        <time>2022-08-03T07:04:49Z</time>
      </trkpt>
      <trkpt lat="45.7661" lon="1.87195">
        <ele>714.7</ele>
        <time>2022-08-03T07:04:51Z</time>
      </trkpt>
      <trkpt lat="45.76612" lon="1.872">
        <ele>714.9</ele>
        <time>2022-08-03T07:04:53Z</time>
      </trkpt>
      <trkpt lat="45.76614" lon="1.87206">
        <ele>715</ele>
        <time>2022-08-03T07:04:55Z</time>
      </trkpt>
      <trkpt lat="45.76615" lon="1.87213">
        <ele>715</ele>
        <time>2022-08-03T07:04:57Z</time>
      </trkpt>
      <trkpt lat="45.76618" lon="1.8722">
        <ele>715.1</ele>
        <time>2022-08-03T07:04:59Z</time>
      </trkpt>
      <trkpt lat="45.7662" lon="1.87227">
        <ele>715.2</ele>
        <time>2022-08-03T07:05:01Z</time>
      </trkpt>
      <trkpt lat="45.76621" lon="1.87234">
        <ele>715.1</ele>
        <time>2022-08-03T07:05:03Z</time>
      </trkpt>
      <trkpt lat="45.76622" lon="1.8724">
        <ele>715</ele>
        <time>2022-08-03T07:05:05Z</time>
      </trkpt>
      <trkpt lat="45.76624" lon="1.87246">
        <ele>715.1</ele>
        <time>2022-08-03T07:05:07Z</time>
      </trkpt>
      <trkpt lat="45.76626" lon="1.87252">
        <ele>715.1</ele>
        <time>2022-08-03T07:05:09Z</time>
      </trkpt>
      <trkpt lat="45.76628" lon="1.87258">
        <ele>715.3</ele>
        <time>2022-08-03T07:05:11Z</time>
      </trkpt>
      <trkpt lat="45.76629" lon="1.87263">
        <ele>715.4</ele>
        <time>2022-08-03T07:05:13Z</time>
      </trkpt>
      <trkpt lat="45.76631" lon="1.87268">
        <ele>715.6</ele>
        <time>2022-08-03T07:05:15Z</time>
      </trkpt>
      <trkpt lat="45.7663" lon="1.87274">
        <ele>715.6</ele>
        <time>2022-08-03T07:05:17Z</time>
      </trkpt>
      <trkpt lat="45.76632" lon="1.87281">
        <ele>715.7</ele>
        <time>2022-08-03T07:05:19Z</time>
      </trkpt>
      <trkpt lat="45.76633" lon="1.87286">
        <ele>715.8</ele>
        <time>2022-08-03T07:05:21Z</time>
      </trkpt>
      <trkpt lat="45.76635" lon="1.87292">
        <ele>715.8</ele>
        <time>2022-08-03T07:05:23Z</time>
      </trkpt>
      <trkpt lat="45.76638" lon="1.87297">
        <ele>715.8</ele>
        <time>2022-08-03T07:05:25Z</time>
      </trkpt>
      <trkpt lat="45.7664" lon="1.87302">
        <ele>715.8</ele>
        <time>2022-08-03T07:05:27Z</time>
      </trkpt>
      <trkpt lat="45.76641" lon="1.87308">
        <ele>715.7</ele>
        <time>2022-08-03T07:05:29Z</time>
      </trkpt>
      <trkpt lat="45.76643" lon="1.87312">
        <ele>715.6</ele>
        <time>2022-08-03T07:05:31Z</time>
      </trkpt>
      <trkpt lat="45.76644" lon="1.87318">
        <ele>715.5</ele>
        <time>2022-08-03T07:05:33Z</time>
      </trkpt>
      <trkpt lat="45.76646" lon="1.87323">
        <ele>715.4</ele>
        <time>2022-08-03T07:05:35Z</time>
      </trkpt>
      <trkpt lat="45.76647" lon="1.87329">
        <ele>715.3</ele>
        <time>2022-08-03T07:05:37Z</time>
      </trkpt>
      <trkpt lat="45.7665" lon="1.87334">
        <ele>715</ele>
        <time>2022-08-03T07:05:39Z</time>
      </trkpt>
      <trkpt lat="45.76653" lon="1.8734">
        <ele>715</ele>
        <time>2022-08-03T07:05:41Z</time>
      </trkpt>
      <trkpt lat="45.76654" lon="1.87346">
        <ele>715</ele>
        <time>2022-08-03T07:05:43Z</time>
      </trkpt>
      <trkpt lat="45.76656" lon="1.87351">
        <ele>714.9</ele>
        <time>2022-08-03T07:05:45Z</time>
      </trkpt>
      <trkpt lat="45.76658" lon="1.87358">
        <ele>714.9</ele>
        <time>2022-08-03T07:05:47Z</time>
      </trkpt>
      <trkpt lat="45.7666" lon="1.87363">
        <ele>714.9</ele>
        <time>2022-08-03T07:05:49Z</time>
      </trkpt>
      <trkpt lat="45.76661" lon="1.87368">
        <ele>714.9</ele>
        <time>2022-08-03T07:05:51Z</time>
      </trkpt>
      <trkpt lat="45.76662" lon="1.87374">
        <ele>714.9</ele>
        <time>2022-08-03T07:05:53Z</time>
      </trkpt>
      <trkpt lat="45.76665" lon="1.8738">
        <ele>714.7</ele>
        <time>2022-08-03T07:05:55Z</time>
      </trkpt>
      <trkpt lat="45.76666" lon="1.87385">
        <ele>714.7</ele>
        <time>2022-08-03T07:05:57Z</time>
      </trkpt>
      <trkpt lat="45.76668" lon="1.87391">
        <ele>714.7</ele>
        <time>2022-08-03T07:05:59Z</time>
      </trkpt>
      <trkpt lat="45.7667" lon="1.87395">
        <ele>714.8</ele>
        <time>2022-08-03T07:06:01Z</time>
      </trkpt>
      <trkpt lat="45.76671" lon="1.87401">
        <ele>714.9</ele>
        <time>2022-08-03T07:06:03Z</time>
      </trkpt>
      <trkpt lat="45.76673" lon="1.87407">
        <ele>715</ele>
        <time>2022-08-03T07:06:05Z</time>
      </trkpt>
      <trkpt lat="45.76675" lon="1.87412">
        <ele>715.1</ele>
        <time>2022-08-03T07:06:07Z</time>
      </trkpt>
      <trkpt lat="45.76677" lon="1.87418">
        <ele>715.2</ele>
        <time>2022-08-03T07:06:09Z</time>
      </trkpt>
      <trkpt lat="45.7668" lon="1.87423">
        <ele>715.5</ele>
        <time>2022-08-03T07:06:11Z</time>
      </trkpt>
      <trkpt lat="45.76681" lon="1.87429">
        <ele>715.8</ele>
        <time>2022-08-03T07:06:13Z</time>
      </trkpt>
      <trkpt lat="45.76683" lon="1.87435">
        <ele>716.1</ele>
        <time>2022-08-03T07:06:15Z</time>
      </trkpt>
      <trkpt lat="45.76685" lon="1.87441">
        <ele>716.4</ele>
        <time>2022-08-03T07:06:17Z</time>
      </trkpt>
      <trkpt lat="45.76687" lon="1.87446">
        <ele>716.6</ele>
        <time>2022-08-03T07:06:19Z</time>
      </trkpt>
      <trkpt lat="45.7669" lon="1.87451">
        <ele>716.8</ele>
        <time>2022-08-03T07:06:21Z</time>
      </trkpt>
      <trkpt lat="45.76691" lon="1.87457">
        <ele>717</ele>
        <time>2022-08-03T07:06:23Z</time>
      </trkpt>
      <trkpt lat="45.76692" lon="1.87463">
        <ele>717.2</ele>
        <time>2022-08-03T07:06:25Z</time>
      </trkpt>
      <trkpt lat="45.76694" lon="1.87469">
        <ele>717.5</ele>
        <time>2022-08-03T07:06:27Z</time>
      </trkpt>
      <trkpt lat="45.76695" lon="1.87475">
        <ele>717.7</ele>
        <time>2022-08-03T07:06:29Z</time>
      </trkpt>
      <trkpt lat="45.76696" lon="1.87481">
        <ele>717.9</ele>
        <time>2022-08-03T07:06:31Z</time>
      </trkpt>
      <trkpt lat="45.76696" lon="1.87486">
        <ele>718</ele>
        <time>2022-08-03T07:06:33Z</time>
      </trkpt>
      <trkpt lat="45.76698" lon="1.87491">
        <ele>718.2</ele>
        <time>2022-08-03T07:06:35Z</time>
      </trkpt>
      <trkpt lat="45.76699" lon="1.87496">
        <ele>718.3</ele>
        <time>2022-08-03T07:06:37Z</time>
      </trkpt>
      <trkpt lat="45.76699" lon="1.875">
        <ele>718.5</ele>
        <time>2022-08-03T07:06:39Z</time>
      </trkpt>
      <trkpt lat="45.767" lon="1.87505">
        <ele>719.2</ele>
        <time>2022-08-03T07:06:41Z</time>
      </trkpt>
      <trkpt lat="45.767" lon="1.8751">
        <ele>720.1</ele>
        <time>2022-08-03T07:06:43Z</time>
      </trkpt>
      <trkpt lat="45.76699" lon="1.87516">
        <ele>721</ele>
        <time>2022-08-03T07:06:45Z</time>
      </trkpt>
      <trkpt lat="45.76699" lon="1.87519">
        <ele>721.5</ele>
        <time>2022-08-03T07:06:47Z</time>
      </trkpt>
      <trkpt lat="45.76697" lon="1.87525">
        <ele>722.5</ele>
        <time>2022-08-03T07:06:49Z</time>
      </trkpt>
      <trkpt lat="45.76695" lon="1.8753">
        <ele>723.3</ele>
        <time>2022-08-03T07:06:51Z</time>
      </trkpt>
      <trkpt lat="45.76693" lon="1.87535">
        <ele>724.2</ele>
        <time>2022-08-03T07:06:53Z</time>
      </trkpt>
      <trkpt lat="45.76691" lon="1.87539">
        <ele>724.9</ele>
        <time>2022-08-03T07:06:55Z</time>
      </trkpt>
      <trkpt lat="45.76688" lon="1.87544">
        <ele>725.8</ele>
        <time>2022-08-03T07:06:57Z</time>
      </trkpt>
      <trkpt lat="45.76686" lon="1.87548">
        <ele>726.4</ele>
        <time>2022-08-03T07:06:59Z</time>
      </trkpt>
      <trkpt lat="45.76683" lon="1.87552">
        <ele>727</ele>
        <time>2022-08-03T07:07:01Z</time>
      </trkpt>
      <trkpt lat="45.7668" lon="1.87556">
        <ele>727.7</ele>
        <time>2022-08-03T07:07:03Z</time>
      </trkpt>
      <trkpt lat="45.76677" lon="1.87559">
        <ele>728.2</ele>
        <time>2022-08-03T07:07:05Z</time>
      </trkpt>
      <trkpt lat="45.76675" lon="1.87562">
        <ele>728.8</ele>
        <time>2022-08-03T07:07:07Z</time>
      </trkpt>
      <trkpt lat="45.76671" lon="1.87565">
        <ele>729.3</ele>
        <time>2022-08-03T07:07:09Z</time>
      </trkpt>
      <trkpt lat="45.76667" lon="1.87567">
        <ele>729.7</ele>
        <time>2022-08-03T07:07:11Z</time>
      </trkpt>
      <trkpt lat="45.76664" lon="1.8757">
        <ele>730.1</ele>
        <time>2022-08-03T07:07:13Z</time>
      </trkpt>
      <trkpt lat="45.7666" lon="1.8757">
        <ele>730.2</ele>
        <time>2022-08-03T07:07:15Z</time>
      </trkpt>
      <trkpt lat="45.76657" lon="1.87571">
        <ele>730.4</ele>
        <time>2022-08-03T07:07:17Z</time>
      </trkpt>
      <trkpt lat="45.76654" lon="1.87573">
        <ele>730.7</ele>
        <time>2022-08-03T07:07:19Z</time>
      </trkpt>
      <trkpt lat="45.76651" lon="1.87575">
        <ele>730.9</ele>
        <time>2022-08-03T07:07:21Z</time>
      </trkpt>
      <trkpt lat="45.76647" lon="1.87576">
        <ele>731.1</ele>
        <time>2022-08-03T07:07:23Z</time>
      </trkpt>
      <trkpt lat="45.76644" lon="1.87577">
        <ele>731.3</ele>
        <time>2022-08-03T07:07:25Z</time>
      </trkpt>
      <trkpt lat="45.7664" lon="1.87577">
        <ele>731.3</ele>
        <time>2022-08-03T07:07:27Z</time>
      </trkpt>
      <trkpt lat="45.76636" lon="1.87578">
        <ele>731.4</ele>
        <time>2022-08-03T07:07:29Z</time>
      </trkpt>
      <trkpt lat="45.76633" lon="1.87579">
        <ele>731.5</ele>
        <time>2022-08-03T07:07:31Z</time>
      </trkpt>
      <trkpt lat="45.76629" lon="1.87579">
        <ele>731.6</ele>
        <time>2022-08-03T07:07:33Z</time>
      </trkpt>
      <trkpt lat="45.76626" lon="1.87579">
        <ele>731.6</ele>
        <time>2022-08-03T07:07:35Z</time>
      </trkpt>
      <trkpt lat="45.76622" lon="1.87581">
        <ele>731.8</ele>
        <time>2022-08-03T07:07:37Z</time>
      </trkpt>
      <trkpt lat="45.7662" lon="1.87582">
        <ele>731.8</ele>
        <time>2022-08-03T07:07:39Z</time>
      </trkpt>
      <trkpt lat="45.76616" lon="1.87583">
        <ele>732</ele>
        <time>2022-08-03T07:07:41Z</time>
      </trkpt>
      <trkpt lat="45.76612" lon="1.87584">
        <ele>732</ele>
        <time>2022-08-03T07:07:43Z</time>
      </trkpt>
      <trkpt lat="45.76609" lon="1.87585">
        <ele>732.2</ele>
        <time>2022-08-03T07:07:45Z</time>
      </trkpt>
      <trkpt lat="45.76607" lon="1.87586">
        <ele>732.3</ele>
        <time>2022-08-03T07:07:47Z</time>
      </trkpt>
      <trkpt lat="45.76604" lon="1.87587">
        <ele>732.4</ele>
        <time>2022-08-03T07:07:49Z</time>
      </trkpt>
      <trkpt lat="45.766" lon="1.87588">
        <ele>732.5</ele>
        <time>2022-08-03T07:07:51Z</time>
      </trkpt>
      <trkpt lat="45.76597" lon="1.87588">
        <ele>732.5</ele>
        <time>2022-08-03T07:07:53Z</time>
      </trkpt>
      <trkpt lat="45.76594" lon="1.87589">
        <ele>732.6</ele>
        <time>2022-08-03T07:07:55Z</time>
      </trkpt>
      <trkpt lat="45.7659" lon="1.8759">
        <ele>732.7</ele>
        <time>2022-08-03T07:07:57Z</time>
      </trkpt>
      <trkpt lat="45.76588" lon="1.87591">
        <ele>732.8</ele>
        <time>2022-08-03T07:07:59Z</time>
      </trkpt>
      <trkpt lat="45.76585" lon="1.87593">
        <ele>732.9</ele>
        <time>2022-08-03T07:08:01Z</time>
      </trkpt>
      <trkpt lat="45.76582" lon="1.87593">
        <ele>733</ele>
        <time>2022-08-03T07:08:03Z</time>
      </trkpt>
      <trkpt lat="45.76579" lon="1.87595">
        <ele>733.2</ele>
        <time>2022-08-03T07:08:05Z</time>
      </trkpt>
      <trkpt lat="45.76576" lon="1.87596">
        <ele>733.4</ele>
        <time>2022-08-03T07:08:07Z</time>
      </trkpt>
      <trkpt lat="45.76574" lon="1.87597">
        <ele>733.6</ele>
        <time>2022-08-03T07:08:09Z</time>
      </trkpt>
      <trkpt lat="45.7657" lon="1.87598">
        <ele>733.8</ele>
        <time>2022-08-03T07:08:11Z</time>
      </trkpt>
      <trkpt lat="45.76567" lon="1.876">
        <ele>734</ele>
        <time>2022-08-03T07:08:13Z</time>
      </trkpt>
      <trkpt lat="45.76564" lon="1.87602">
        <ele>734.2</ele>
        <time>2022-08-03T07:08:15Z</time>
      </trkpt>
      <trkpt lat="45.76561" lon="1.87603">
        <ele>734.4</ele>
        <time>2022-08-03T07:08:17Z</time>
      </trkpt>
      <trkpt lat="45.76558" lon="1.87605">
        <ele>734.6</ele>
        <time>2022-08-03T07:08:19Z</time>
      </trkpt>
      <trkpt lat="45.76556" lon="1.87605">
        <ele>734.6</ele>
        <time>2022-08-03T07:08:21Z</time>
      </trkpt>
      <trkpt lat="45.76553" lon="1.87607">
        <ele>734.8</ele>
        <time>2022-08-03T07:08:23Z</time>
      </trkpt>
      <trkpt lat="45.7655" lon="1.87607">
        <ele>734.9</ele>
        <time>2022-08-03T07:08:25Z</time>
      </trkpt>
      <trkpt lat="45.76547" lon="1.87608">
        <ele>735.1</ele>
        <time>2022-08-03T07:08:27Z</time>
      </trkpt>
      <trkpt lat="45.76545" lon="1.8761">
        <ele>735.2</ele>
        <time>2022-08-03T07:08:29Z</time>
      </trkpt>
      <trkpt lat="45.76542" lon="1.87613">
        <ele>735.4</ele>
        <time>2022-08-03T07:08:31Z</time>
      </trkpt>
      <trkpt lat="45.7654" lon="1.87615">
        <ele>735.6</ele>
        <time>2022-08-03T07:08:33Z</time>
      </trkpt>
      <trkpt lat="45.76537" lon="1.87616">
        <ele>735.7</ele>
        <time>2022-08-03T07:08:35Z</time>
      </trkpt>
      <trkpt lat="45.76536" lon="1.87619">
        <ele>735.9</ele>
        <time>2022-08-03T07:08:37Z</time>
      </trkpt>
      <trkpt lat="45.76534" lon="1.87622">
        <ele>736.1</ele>
        <time>2022-08-03T07:08:39Z</time>
      </trkpt>
      <trkpt lat="45.76532" lon="1.87625">
        <ele>736.3</ele>
        <time>2022-08-03T07:08:41Z</time>
      </trkpt>
      <trkpt lat="45.76531" lon="1.87629">
        <ele>736.6</ele>
        <time>2022-08-03T07:08:43Z</time>
      </trkpt>
      <trkpt lat="45.76529" lon="1.87632">
        <ele>736.7</ele>
        <time>2022-08-03T07:08:45Z</time>
      </trkpt>
      <trkpt lat="45.76528" lon="1.87637">
        <ele>737</ele>
        <time>2022-08-03T07:08:47Z</time>
      </trkpt>
      <trkpt lat="45.76527" lon="1.8764">
        <ele>737.2</ele>
        <time>2022-08-03T07:08:49Z</time>
      </trkpt>
      <trkpt lat="45.76525" lon="1.87644">
        <ele>737.4</ele>
        <time>2022-08-03T07:08:51Z</time>
      </trkpt>
      <trkpt lat="45.76526" lon="1.87649">
        <ele>737.6</ele>
        <time>2022-08-03T07:08:53Z</time>
      </trkpt>
      <trkpt lat="45.76524" lon="1.87652">
        <ele>737.8</ele>
        <time>2022-08-03T07:08:55Z</time>
      </trkpt>
      <trkpt lat="45.76522" lon="1.87655">
        <ele>737.9</ele>
        <time>2022-08-03T07:08:57Z</time>
      </trkpt>
      <trkpt lat="45.76521" lon="1.8766">
        <ele>738.2</ele>
        <time>2022-08-03T07:08:59Z</time>
      </trkpt>
      <trkpt lat="45.76519" lon="1.87664">
        <ele>738.3</ele>
        <time>2022-08-03T07:09:01Z</time>
      </trkpt>
      <trkpt lat="45.76517" lon="1.87669">
        <ele>738.6</ele>
        <time>2022-08-03T07:09:03Z</time>
      </trkpt>
      <trkpt lat="45.76516" lon="1.87674">
        <ele>738.8</ele>
        <time>2022-08-03T07:09:05Z</time>
      </trkpt>
      <trkpt lat="45.76515" lon="1.87678">
        <ele>739</ele>
        <time>2022-08-03T07:09:07Z</time>
      </trkpt>
      <trkpt lat="45.76513" lon="1.87682">
        <ele>739.1</ele>
        <time>2022-08-03T07:09:09Z</time>
      </trkpt>
      <trkpt lat="45.76511" lon="1.87686">
        <ele>739.3</ele>
        <time>2022-08-03T07:09:11Z</time>
      </trkpt>
      <trkpt lat="45.7651" lon="1.8769">
        <ele>739.5</ele>
        <time>2022-08-03T07:09:13Z</time>
      </trkpt>
      <trkpt lat="45.76509" lon="1.87696">
        <ele>739.7</ele>
        <time>2022-08-03T07:09:15Z</time>
      </trkpt>
      <trkpt lat="45.76508" lon="1.87701">
        <ele>739.9</ele>
        <time>2022-08-03T07:09:17Z</time>
      </trkpt>
      <trkpt lat="45.76508" lon="1.87705">
        <ele>740.2</ele>
        <time>2022-08-03T07:09:19Z</time>
      </trkpt>
      <trkpt lat="45.7651" lon="1.87709">
        <ele>740.5</ele>
        <time>2022-08-03T07:09:21Z</time>
      </trkpt>
      <trkpt lat="45.76512" lon="1.87713">
        <ele>740.7</ele>
        <time>2022-08-03T07:09:23Z</time>
      </trkpt>
      <trkpt lat="45.76512" lon="1.87717">
        <ele>741</ele>
        <time>2022-08-03T07:09:25Z</time>
      </trkpt>
      <trkpt lat="45.76513" lon="1.87721">
        <ele>741.2</ele>
        <time>2022-08-03T07:09:27Z</time>
      </trkpt>
      <trkpt lat="45.76514" lon="1.87725">
        <ele>741.5</ele>
        <time>2022-08-03T07:09:29Z</time>
      </trkpt>
      <trkpt lat="45.76513" lon="1.87728">
        <ele>741.6</ele>
        <time>2022-08-03T07:09:31Z</time>
      </trkpt>
      <trkpt lat="45.76512" lon="1.87733">
        <ele>741.8</ele>
        <time>2022-08-03T07:09:33Z</time>
      </trkpt>
      <trkpt lat="45.7651" lon="1.87736">
        <ele>741.9</ele>
        <time>2022-08-03T07:09:35Z</time>
      </trkpt>
      <trkpt lat="45.7651" lon="1.87737">
        <ele>742</ele>
        <time>2022-08-03T07:09:37Z</time>
      </trkpt>
      <trkpt lat="45.7651" lon="1.87737">
        <ele>742</ele>
        <time>2022-08-03T07:09:39Z</time>
      </trkpt>
      <trkpt lat="45.7651" lon="1.87737">
        <ele>741.9</ele>
        <time>2022-08-03T07:09:41Z</time>
      </trkpt>
      <trkpt lat="45.7651" lon="1.87737">
        <ele>741.9</ele>
        <time>2022-08-03T07:09:43Z</time>
      </trkpt>
      <trkpt lat="45.7651" lon="1.87737">
        <ele>741.9</ele>
        <time>2022-08-03T07:09:45Z</time>
      </trkpt>
      <trkpt lat="45.76498" lon="1.87743">
        <ele>742</ele>
        <time>2022-08-03T07:12:53Z</time>
      </trkpt>
      <trkpt lat="45.76497" lon="1.87749">
        <ele>742.6</ele>
        <time>2022-08-03T07:12:55Z</time>
      </trkpt>
      <trkpt lat="45.76496" lon="1.87756">
        <ele>742.7</ele>
        <time>2022-08-03T07:12:57Z</time>
      </trkpt>
      <trkpt lat="45.76495" lon="1.87764">
        <ele>742.7</ele>
        <time>2022-08-03T07:12:59Z</time>
      </trkpt>
      <trkpt lat="45.76495" lon="1.87772">
        <ele>742.6</ele>
        <time>2022-08-03T07:13:01Z</time>
      </trkpt>
      <trkpt lat="45.76494" lon="1.87782">
        <ele>742.6</ele>
        <time>2022-08-03T07:13:03Z</time>
      </trkpt>
      <trkpt lat="45.76493" lon="1.87792">
        <ele>742.7</ele>
        <time>2022-08-03T07:13:05Z</time>
      </trkpt>
      <trkpt lat="45.76492" lon="1.87803">
        <ele>742.6</ele>
        <time>2022-08-03T07:13:07Z</time>
      </trkpt>
      <trkpt lat="45.76491" lon="1.87815">
        <ele>742.5</ele>
        <time>2022-08-03T07:13:09Z</time>
      </trkpt>
      <trkpt lat="45.76491" lon="1.87828">
        <ele>742.4</ele>
        <time>2022-08-03T07:13:11Z</time>
      </trkpt>
      <trkpt lat="45.76489" lon="1.8784">
        <ele>742.5</ele>
        <time>2022-08-03T07:13:13Z</time>
      </trkpt>
      <trkpt lat="45.76488" lon="1.87853">
        <ele>742.7</ele>
        <time>2022-08-03T07:13:15Z</time>
      </trkpt>
      <trkpt lat="45.76487" lon="1.87866">
        <ele>742.9</ele>
        <time>2022-08-03T07:13:17Z</time>
      </trkpt>
      <trkpt lat="45.76486" lon="1.87878">
        <ele>743.2</ele>
        <time>2022-08-03T07:13:19Z</time>
      </trkpt>
      <trkpt lat="45.76483" lon="1.8789">
        <ele>743.6</ele>
        <time>2022-08-03T07:13:21Z</time>
      </trkpt>
      <trkpt lat="45.76478" lon="1.87902">
        <ele>744.2</ele>
        <time>2022-08-03T07:13:23Z</time>
      </trkpt>
      <trkpt lat="45.76472" lon="1.87914">
        <ele>744.8</ele>
        <time>2022-08-03T07:13:25Z</time>
      </trkpt>
      <trkpt lat="45.76466" lon="1.87926">
        <ele>745.5</ele>
        <time>2022-08-03T07:13:27Z</time>
      </trkpt>
      <trkpt lat="45.76459" lon="1.87937">
        <ele>746</ele>
        <time>2022-08-03T07:13:29Z</time>
      </trkpt>
      <trkpt lat="45.76451" lon="1.87948">
        <ele>746.1</ele>
        <time>2022-08-03T07:13:31Z</time>
      </trkpt>
      <trkpt lat="45.76444" lon="1.8796">
        <ele>745.8</ele>
        <time>2022-08-03T07:13:33Z</time>
      </trkpt>
      <trkpt lat="45.76435" lon="1.87972">
        <ele>744.9</ele>
        <time>2022-08-03T07:13:35Z</time>
      </trkpt>
      <trkpt lat="45.76425" lon="1.87983">
        <ele>743.6</ele>
        <time>2022-08-03T07:13:37Z</time>
      </trkpt>
      <trkpt lat="45.76415" lon="1.87993">
        <ele>742</ele>
        <time>2022-08-03T07:13:39Z</time>
      </trkpt>
      <trkpt lat="45.76404" lon="1.88002">
        <ele>742</ele>
        <time>2022-08-03T07:13:41Z</time>
      </trkpt>
      <trkpt lat="45.76393" lon="1.8801">
        <ele>742.9</ele>
        <time>2022-08-03T07:13:43Z</time>
      </trkpt>
      <trkpt lat="45.76383" lon="1.88019">
        <ele>743.3</ele>
        <time>2022-08-03T07:13:45Z</time>
      </trkpt>
      <trkpt lat="45.76372" lon="1.88025">
        <ele>743.5</ele>
        <time>2022-08-03T07:13:47Z</time>
      </trkpt>
      <trkpt lat="45.76361" lon="1.88034">
        <ele>743.1</ele>
        <time>2022-08-03T07:13:49Z</time>
      </trkpt>
      <trkpt lat="45.76353" lon="1.88039">
        <ele>742.7</ele>
        <time>2022-08-03T07:13:51Z</time>
      </trkpt>
      <trkpt lat="45.7634" lon="1.8805">
        <ele>741.3</ele>
        <time>2022-08-03T07:13:53Z</time>
      </trkpt>
      <trkpt lat="45.76331" lon="1.88063">
        <ele>739.7</ele>
        <time>2022-08-03T07:13:55Z</time>
      </trkpt>
      <trkpt lat="45.76324" lon="1.8808">
        <ele>738.4</ele>
        <time>2022-08-03T07:13:57Z</time>
      </trkpt>
      <trkpt lat="45.76319" lon="1.88101">
        <ele>737.7</ele>
        <time>2022-08-03T07:13:59Z</time>
      </trkpt>
      <trkpt lat="45.76317" lon="1.88122">
        <ele>737.1</ele>
        <time>2022-08-03T07:14:01Z</time>
      </trkpt>
      <trkpt lat="45.76317" lon="1.88143">
        <ele>736.2</ele>
        <time>2022-08-03T07:14:03Z</time>
      </trkpt>
      <trkpt lat="45.76321" lon="1.88164">
        <ele>734.5</ele>
        <time>2022-08-03T07:14:05Z</time>
      </trkpt>
      <trkpt lat="45.7633" lon="1.88184">
        <ele>732.2</ele>
        <time>2022-08-03T07:14:07Z</time>
      </trkpt>
      <trkpt lat="45.76342" lon="1.88199">
        <ele>732.1</ele>
        <time>2022-08-03T07:14:09Z</time>
      </trkpt>
      <trkpt lat="45.76356" lon="1.88215">
        <ele>732.6</ele>
        <time>2022-08-03T07:14:11Z</time>
      </trkpt>
      <trkpt lat="45.76368" lon="1.88235">
        <ele>732</ele>
        <time>2022-08-03T07:14:13Z</time>
      </trkpt>
      <trkpt lat="45.76376" lon="1.88259">
        <ele>730.3</ele>
        <time>2022-08-03T07:14:15Z</time>
      </trkpt>
      <trkpt lat="45.76381" lon="1.88286">
        <ele>728.1</ele>
        <time>2022-08-03T07:14:17Z</time>
      </trkpt>
      <trkpt lat="45.76385" lon="1.88313">
        <ele>725.7</ele>
        <time>2022-08-03T07:14:19Z</time>
      </trkpt>
      <trkpt lat="45.7639" lon="1.88342">
        <ele>722.3</ele>
        <time>2022-08-03T07:14:21Z</time>
      </trkpt>
      <trkpt lat="45.76395" lon="1.88371">
        <ele>717.8</ele>
        <time>2022-08-03T07:14:23Z</time>
      </trkpt>
      <trkpt lat="45.764" lon="1.884">
        <ele>713.6</ele>
        <time>2022-08-03T07:14:25Z</time>
      </trkpt>
      <trkpt lat="45.76404" lon="1.88426">
        <ele>711.3</ele>
        <time>2022-08-03T07:14:27Z</time>
      </trkpt>
      <trkpt lat="45.76404" lon="1.88453">
        <ele>711.7</ele>
        <time>2022-08-03T07:14:29Z</time>
      </trkpt>
      <trkpt lat="45.76403" lon="1.88478">
        <ele>712</ele>
        <time>2022-08-03T07:14:31Z</time>
      </trkpt>
      <trkpt lat="45.76398" lon="1.88502">
        <ele>712</ele>
        <time>2022-08-03T07:14:33Z</time>
      </trkpt>
      <trkpt lat="45.76388" lon="1.88521">
        <ele>712.9</ele>
        <time>2022-08-03T07:14:35Z</time>
      </trkpt>
      <trkpt lat="45.76376" lon="1.88537">
        <ele>712.9</ele>
        <time>2022-08-03T07:14:37Z</time>
      </trkpt>
      <trkpt lat="45.76363" lon="1.8855">
        <ele>712.3</ele>
        <time>2022-08-03T07:14:39Z</time>
      </trkpt>
      <trkpt lat="45.76352" lon="1.88564">
        <ele>711.6</ele>
        <time>2022-08-03T07:14:41Z</time>
      </trkpt>
      <trkpt lat="45.7634" lon="1.88576">
        <ele>710.7</ele>
        <time>2022-08-03T07:14:43Z</time>
      </trkpt>
      <trkpt lat="45.76329" lon="1.88589">
        <ele>710.1</ele>
        <time>2022-08-03T07:14:45Z</time>
      </trkpt>
      <trkpt lat="45.76318" lon="1.886">
        <ele>710</ele>
        <time>2022-08-03T07:14:47Z</time>
      </trkpt>
      <trkpt lat="45.76308" lon="1.88612">
        <ele>710</ele>
        <time>2022-08-03T07:14:49Z</time>
      </trkpt>
      <trkpt lat="45.76298" lon="1.88624">
        <ele>709.9</ele>
        <time>2022-08-03T07:14:51Z</time>
      </trkpt>
      <trkpt lat="45.76288" lon="1.88635">
        <ele>709.7</ele>
        <time>2022-08-03T07:14:53Z</time>
      </trkpt>
      <trkpt lat="45.76279" lon="1.88643">
        <ele>709.4</ele>
        <time>2022-08-03T07:14:55Z</time>
      </trkpt>
      <trkpt lat="45.76269" lon="1.8865">
        <ele>708.9</ele>
        <time>2022-08-03T07:14:57Z</time>
      </trkpt>
      <trkpt lat="45.7626" lon="1.88653">
        <ele>708.3</ele>
        <time>2022-08-03T07:14:59Z</time>
      </trkpt>
      <trkpt lat="45.76252" lon="1.88659">
        <ele>707.9</ele>
        <time>2022-08-03T07:15:01Z</time>
      </trkpt>
      <trkpt lat="45.76245" lon="1.88663">
        <ele>708.1</ele>
        <time>2022-08-03T07:15:03Z</time>
      </trkpt>
      <trkpt lat="45.76239" lon="1.88668">
        <ele>708.6</ele>
        <time>2022-08-03T07:15:05Z</time>
      </trkpt>
      <trkpt lat="45.76234" lon="1.88673">
        <ele>709.2</ele>
        <time>2022-08-03T07:15:07Z</time>
      </trkpt>
      <trkpt lat="45.7623" lon="1.88677">
        <ele>709.8</ele>
        <time>2022-08-03T07:15:09Z</time>
      </trkpt>
      <trkpt lat="45.76225" lon="1.8868">
        <ele>710.3</ele>
        <time>2022-08-03T07:15:11Z</time>
      </trkpt>
      <trkpt lat="45.76221" lon="1.88684">
        <ele>710.9</ele>
        <time>2022-08-03T07:15:13Z</time>
      </trkpt>
      <trkpt lat="45.76218" lon="1.88689">
        <ele>711.5</ele>
        <time>2022-08-03T07:15:15Z</time>
      </trkpt>
      <trkpt lat="45.76212" lon="1.88693">
        <ele>712</ele>
        <time>2022-08-03T07:15:17Z</time>
      </trkpt>
      <trkpt lat="45.76209" lon="1.88697">
        <ele>712.5</ele>
        <time>2022-08-03T07:15:19Z</time>
      </trkpt>
      <trkpt lat="45.76204" lon="1.887">
        <ele>713</ele>
        <time>2022-08-03T07:15:21Z</time>
      </trkpt>
      <trkpt lat="45.762" lon="1.88702">
        <ele>713.4</ele>
        <time>2022-08-03T07:15:23Z</time>
      </trkpt>
      <trkpt lat="45.76196" lon="1.88705">
        <ele>713.8</ele>
        <time>2022-08-03T07:15:25Z</time>
      </trkpt>
      <trkpt lat="45.76193" lon="1.88709">
        <ele>714.2</ele>
        <time>2022-08-03T07:15:27Z</time>
      </trkpt>
      <trkpt lat="45.7619" lon="1.88711">
        <ele>714.6</ele>
        <time>2022-08-03T07:15:29Z</time>
      </trkpt>
      <trkpt lat="45.76187" lon="1.88715">
        <ele>715</ele>
        <time>2022-08-03T07:15:31Z</time>
      </trkpt>
      <trkpt lat="45.76183" lon="1.88717">
        <ele>715.3</ele>
        <time>2022-08-03T07:15:33Z</time>
      </trkpt>
      <trkpt lat="45.7618" lon="1.88719">
        <ele>715.7</ele>
        <time>2022-08-03T07:15:35Z</time>
      </trkpt>
      <trkpt lat="45.76177" lon="1.88721">
        <ele>716</ele>
        <time>2022-08-03T07:15:37Z</time>
      </trkpt>
      <trkpt lat="45.76173" lon="1.88724">
        <ele>716.3</ele>
        <time>2022-08-03T07:15:39Z</time>
      </trkpt>
      <trkpt lat="45.76169" lon="1.88726">
        <ele>716.6</ele>
        <time>2022-08-03T07:15:41Z</time>
      </trkpt>
      <trkpt lat="45.76167" lon="1.8873">
        <ele>717.1</ele>
        <time>2022-08-03T07:15:43Z</time>
      </trkpt>
      <trkpt lat="45.76163" lon="1.88733">
        <ele>717.4</ele>
        <time>2022-08-03T07:15:45Z</time>
      </trkpt>
      <trkpt lat="45.76161" lon="1.88735">
        <ele>717.7</ele>
        <time>2022-08-03T07:15:47Z</time>
      </trkpt>
      <trkpt lat="45.76158" lon="1.88738">
        <ele>718</ele>
        <time>2022-08-03T07:15:49Z</time>
      </trkpt>
      <trkpt lat="45.76155" lon="1.8874">
        <ele>718.2</ele>
        <time>2022-08-03T07:15:51Z</time>
      </trkpt>
      <trkpt lat="45.76152" lon="1.88744">
        <ele>718.5</ele>
        <time>2022-08-03T07:15:53Z</time>
      </trkpt>
      <trkpt lat="45.7615" lon="1.88747">
        <ele>718.8</ele>
        <time>2022-08-03T07:15:55Z</time>
      </trkpt>
      <trkpt lat="45.76147" lon="1.8875">
        <ele>719</ele>
        <time>2022-08-03T07:15:57Z</time>
      </trkpt>
      <trkpt lat="45.76144" lon="1.88753">
        <ele>719.4</ele>
        <time>2022-08-03T07:15:59Z</time>
      </trkpt>
      <trkpt lat="45.76142" lon="1.88756">
        <ele>719.8</ele>
        <time>2022-08-03T07:16:01Z</time>
      </trkpt>
      <trkpt lat="45.76139" lon="1.88758">
        <ele>720.2</ele>
        <time>2022-08-03T07:16:03Z</time>
      </trkpt>
      <trkpt lat="45.76136" lon="1.88761">
        <ele>720.5</ele>
        <time>2022-08-03T07:16:05Z</time>
      </trkpt>
      <trkpt lat="45.76133" lon="1.88764">
        <ele>720.9</ele>
        <time>2022-08-03T07:16:07Z</time>
      </trkpt>
      <trkpt lat="45.76131" lon="1.88766">
        <ele>721.2</ele>
        <time>2022-08-03T07:16:09Z</time>
      </trkpt>
      <trkpt lat="45.76128" lon="1.88769">
        <ele>721.6</ele>
        <time>2022-08-03T07:16:11Z</time>
      </trkpt>
      <trkpt lat="45.76125" lon="1.88771">
        <ele>721.9</ele>
        <time>2022-08-03T07:16:13Z</time>
      </trkpt>
      <trkpt lat="45.76123" lon="1.88774">
        <ele>722.3</ele>
        <time>2022-08-03T07:16:15Z</time>
      </trkpt>
      <trkpt lat="45.7612" lon="1.88776">
        <ele>722.6</ele>
        <time>2022-08-03T07:16:17Z</time>
      </trkpt>
      <trkpt lat="45.76117" lon="1.88779">
        <ele>722.9</ele>
        <time>2022-08-03T07:16:19Z</time>
      </trkpt>
      <trkpt lat="45.76116" lon="1.8878">
        <ele>723.1</ele>
        <time>2022-08-03T07:16:21Z</time>
      </trkpt>
      <trkpt lat="45.76113" lon="1.88782">
        <ele>723.4</ele>
        <time>2022-08-03T07:16:23Z</time>
      </trkpt>
      <trkpt lat="45.7611" lon="1.88785">
        <ele>723.8</ele>
        <time>2022-08-03T07:16:25Z</time>
      </trkpt>
      <trkpt lat="45.76108" lon="1.88787">
        <ele>724</ele>
        <time>2022-08-03T07:16:27Z</time>
      </trkpt>
      <trkpt lat="45.76104" lon="1.8879">
        <ele>724.4</ele>
        <time>2022-08-03T07:16:29Z</time>
      </trkpt>
      <trkpt lat="45.76102" lon="1.88794">
        <ele>724.9</ele>
        <time>2022-08-03T07:16:31Z</time>
      </trkpt>
      <trkpt lat="45.761" lon="1.88798">
        <ele>725.4</ele>
        <time>2022-08-03T07:16:33Z</time>
      </trkpt>
      <trkpt lat="45.76098" lon="1.88801">
        <ele>725.8</ele>
        <time>2022-08-03T07:16:35Z</time>
      </trkpt>
      <trkpt lat="45.76094" lon="1.88804">
        <ele>726.2</ele>
        <time>2022-08-03T07:16:37Z</time>
      </trkpt>
      <trkpt lat="45.76092" lon="1.88807">
        <ele>726.5</ele>
        <time>2022-08-03T07:16:39Z</time>
      </trkpt>
      <trkpt lat="45.76089" lon="1.8881">
        <ele>726.9</ele>
        <time>2022-08-03T07:16:41Z</time>
      </trkpt>
      <trkpt lat="45.76086" lon="1.88814">
        <ele>727.4</ele>
        <time>2022-08-03T07:16:43Z</time>
      </trkpt>
      <trkpt lat="45.76083" lon="1.88816">
        <ele>727.7</ele>
        <time>2022-08-03T07:16:45Z</time>
      </trkpt>
      <trkpt lat="45.7608" lon="1.88818">
        <ele>728.2</ele>
        <time>2022-08-03T07:16:47Z</time>
      </trkpt>
      <trkpt lat="45.76078" lon="1.8882">
        <ele>728.7</ele>
        <time>2022-08-03T07:16:49Z</time>
      </trkpt>
      <trkpt lat="45.76075" lon="1.88823">
        <ele>729.3</ele>
        <time>2022-08-03T07:16:51Z</time>
      </trkpt>
      <trkpt lat="45.76071" lon="1.88824">
        <ele>729.7</ele>
        <time>2022-08-03T07:16:53Z</time>
      </trkpt>
      <trkpt lat="45.76068" lon="1.88826">
        <ele>730.2</ele>
        <time>2022-08-03T07:16:55Z</time>
      </trkpt>
      <trkpt lat="45.76065" lon="1.88829">
        <ele>730.8</ele>
        <time>2022-08-03T07:16:57Z</time>
      </trkpt>
      <trkpt lat="45.76062" lon="1.88831">
        <ele>731.2</ele>
        <time>2022-08-03T07:16:59Z</time>
      </trkpt>
      <trkpt lat="45.76059" lon="1.88832">
        <ele>731.6</ele>
        <time>2022-08-03T07:17:01Z</time>
      </trkpt>
      <trkpt lat="45.76056" lon="1.88832">
        <ele>731.9</ele>
        <time>2022-08-03T07:17:03Z</time>
      </trkpt>
      <trkpt lat="45.76053" lon="1.88834">
        <ele>732.3</ele>
        <time>2022-08-03T07:17:05Z</time>
      </trkpt>
      <trkpt lat="45.7605" lon="1.88835">
        <ele>732.6</ele>
        <time>2022-08-03T07:17:07Z</time>
      </trkpt>
      <trkpt lat="45.76047" lon="1.88836">
        <ele>733</ele>
        <time>2022-08-03T07:17:09Z</time>
      </trkpt>
      <trkpt lat="45.76043" lon="1.88836">
        <ele>733.3</ele>
        <time>2022-08-03T07:17:11Z</time>
      </trkpt>
      <trkpt lat="45.7604" lon="1.88837">
        <ele>733.6</ele>
        <time>2022-08-03T07:17:13Z</time>
      </trkpt>
      <trkpt lat="45.76037" lon="1.88838">
        <ele>734</ele>
        <time>2022-08-03T07:17:15Z</time>
      </trkpt>
      <trkpt lat="45.76033" lon="1.88838">
        <ele>734.2</ele>
        <time>2022-08-03T07:17:17Z</time>
      </trkpt>
      <trkpt lat="45.7603" lon="1.88838">
        <ele>734.6</ele>
        <time>2022-08-03T07:17:19Z</time>
      </trkpt>
      <trkpt lat="45.76027" lon="1.88839">
        <ele>734.8</ele>
        <time>2022-08-03T07:17:21Z</time>
      </trkpt>
      <trkpt lat="45.76023" lon="1.88838">
        <ele>735</ele>
        <time>2022-08-03T07:17:23Z</time>
      </trkpt>
      <trkpt lat="45.7602" lon="1.88838">
        <ele>735.2</ele>
        <time>2022-08-03T07:17:25Z</time>
      </trkpt>
      <trkpt lat="45.76016" lon="1.88838">
        <ele>735.5</ele>
        <time>2022-08-03T07:17:27Z</time>
      </trkpt>
      <trkpt lat="45.76013" lon="1.88839">
        <ele>735.8</ele>
        <time>2022-08-03T07:17:29Z</time>
      </trkpt>
      <trkpt lat="45.76009" lon="1.88839">
        <ele>736.1</ele>
        <time>2022-08-03T07:17:31Z</time>
      </trkpt>
      <trkpt lat="45.76006" lon="1.88839">
        <ele>736.4</ele>
        <time>2022-08-03T07:17:33Z</time>
      </trkpt>
      <trkpt lat="45.76003" lon="1.88839">
        <ele>736.6</ele>
        <time>2022-08-03T07:17:35Z</time>
      </trkpt>
      <trkpt lat="45.76" lon="1.8884">
        <ele>736.8</ele>
        <time>2022-08-03T07:17:37Z</time>
      </trkpt>
      <trkpt lat="45.75996" lon="1.8884">
        <ele>736.8</ele>
        <time>2022-08-03T07:17:39Z</time>
      </trkpt>
      <trkpt lat="45.75992" lon="1.88841">
        <ele>736.7</ele>
        <time>2022-08-03T07:17:41Z</time>
      </trkpt>
      <trkpt lat="45.75988" lon="1.88841">
        <ele>736.7</ele>
        <time>2022-08-03T07:17:43Z</time>
      </trkpt>
      <trkpt lat="45.75985" lon="1.88842">
        <ele>736.7</ele>
        <time>2022-08-03T07:17:45Z</time>
      </trkpt>
      <trkpt lat="45.75981" lon="1.88843">
        <ele>736.7</ele>
        <time>2022-08-03T07:17:47Z</time>
      </trkpt>
      <trkpt lat="45.75977" lon="1.88845">
        <ele>736.8</ele>
        <time>2022-08-03T07:17:49Z</time>
      </trkpt>
      <trkpt lat="45.75974" lon="1.88846">
        <ele>736.8</ele>
        <time>2022-08-03T07:17:51Z</time>
      </trkpt>
      <trkpt lat="45.7597" lon="1.88847">
        <ele>736.7</ele>
        <time>2022-08-03T07:17:53Z</time>
      </trkpt>
      <trkpt lat="45.75967" lon="1.88849">
        <ele>736.8</ele>
        <time>2022-08-03T07:17:55Z</time>
      </trkpt>
      <trkpt lat="45.75964" lon="1.88852">
        <ele>737</ele>
        <time>2022-08-03T07:17:57Z</time>
      </trkpt>
      <trkpt lat="45.75961" lon="1.88854">
        <ele>737.1</ele>
        <time>2022-08-03T07:17:59Z</time>
      </trkpt>
      <trkpt lat="45.75958" lon="1.88857">
        <ele>737.3</ele>
        <time>2022-08-03T07:18:01Z</time>
      </trkpt>
      <trkpt lat="45.75955" lon="1.8886">
        <ele>737.4</ele>
        <time>2022-08-03T07:18:03Z</time>
      </trkpt>
      <trkpt lat="45.75953" lon="1.88863">
        <ele>737.5</ele>
        <time>2022-08-03T07:18:05Z</time>
      </trkpt>
      <trkpt lat="45.7595" lon="1.88866">
        <ele>737.7</ele>
        <time>2022-08-03T07:18:07Z</time>
      </trkpt>
      <trkpt lat="45.75947" lon="1.8887">
        <ele>737.9</ele>
        <time>2022-08-03T07:18:09Z</time>
      </trkpt>
      <trkpt lat="45.75945" lon="1.88873">
        <ele>738</ele>
        <time>2022-08-03T07:18:11Z</time>
      </trkpt>
      <trkpt lat="45.75942" lon="1.88877">
        <ele>738.2</ele>
        <time>2022-08-03T07:18:13Z</time>
      </trkpt>
      <trkpt lat="45.7594" lon="1.8888">
        <ele>738.3</ele>
        <time>2022-08-03T07:18:15Z</time>
      </trkpt>
      <trkpt lat="45.75938" lon="1.88884">
        <ele>738.4</ele>
        <time>2022-08-03T07:18:17Z</time>
      </trkpt>
      <trkpt lat="45.75936" lon="1.88888">
        <ele>738.7</ele>
        <time>2022-08-03T07:18:19Z</time>
      </trkpt>
      <trkpt lat="45.75934" lon="1.88892">
        <ele>738.8</ele>
        <time>2022-08-03T07:18:21Z</time>
      </trkpt>
      <trkpt lat="45.75933" lon="1.88895">
        <ele>738.9</ele>
        <time>2022-08-03T07:18:23Z</time>
      </trkpt>
      <trkpt lat="45.75931" lon="1.88899">
        <ele>739</ele>
        <time>2022-08-03T07:18:25Z</time>
      </trkpt>
      <trkpt lat="45.75928" lon="1.88902">
        <ele>739.1</ele>
        <time>2022-08-03T07:18:27Z</time>
      </trkpt>
      <trkpt lat="45.75926" lon="1.88905">
        <ele>739.1</ele>
        <time>2022-08-03T07:18:29Z</time>
      </trkpt>
      <trkpt lat="45.75924" lon="1.88908">
        <ele>739.2</ele>
        <time>2022-08-03T07:18:31Z</time>
      </trkpt>
      <trkpt lat="45.75922" lon="1.88912">
        <ele>739.2</ele>
        <time>2022-08-03T07:18:33Z</time>
      </trkpt>
      <trkpt lat="45.7592" lon="1.88917">
        <ele>739.3</ele>
        <time>2022-08-03T07:18:35Z</time>
      </trkpt>
      <trkpt lat="45.75918" lon="1.88922">
        <ele>739.4</ele>
        <time>2022-08-03T07:18:37Z</time>
      </trkpt>
      <trkpt lat="45.75918" lon="1.88928">
        <ele>739.5</ele>
        <time>2022-08-03T07:18:39Z</time>
      </trkpt>
      <trkpt lat="45.75917" lon="1.88932">
        <ele>739.6</ele>
        <time>2022-08-03T07:18:41Z</time>
      </trkpt>
      <trkpt lat="45.75917" lon="1.88935">
        <ele>739.6</ele>
        <time>2022-08-03T07:18:43Z</time>
      </trkpt>
      <trkpt lat="45.75916" lon="1.8894">
        <ele>739.8</ele>
        <time>2022-08-03T07:18:45Z</time>
      </trkpt>
      <trkpt lat="45.75914" lon="1.88947">
        <ele>739.9</ele>
        <time>2022-08-03T07:18:47Z</time>
      </trkpt>
      <trkpt lat="45.75914" lon="1.88948">
        <ele>740</ele>
        <time>2022-08-03T07:18:49Z</time>
      </trkpt>
      <trkpt lat="45.75913" lon="1.88952">
        <ele>740</ele>
        <time>2022-08-03T07:18:51Z</time>
      </trkpt>
      <trkpt lat="45.75914" lon="1.88956">
        <ele>740.2</ele>
        <time>2022-08-03T07:18:53Z</time>
      </trkpt>
      <trkpt lat="45.75914" lon="1.8896">
        <ele>740.3</ele>
        <time>2022-08-03T07:18:55Z</time>
      </trkpt>
      <trkpt lat="45.75914" lon="1.88965">
        <ele>740.6</ele>
        <time>2022-08-03T07:18:57Z</time>
      </trkpt>
      <trkpt lat="45.75915" lon="1.88971">
        <ele>740.8</ele>
        <time>2022-08-03T07:18:59Z</time>
      </trkpt>
      <trkpt lat="45.75915" lon="1.88976">
        <ele>741</ele>
        <time>2022-08-03T07:19:01Z</time>
      </trkpt>
      <trkpt lat="45.75915" lon="1.88981">
        <ele>741.2</ele>
        <time>2022-08-03T07:19:03Z</time>
      </trkpt>
      <trkpt lat="45.75915" lon="1.88986">
        <ele>741.4</ele>
        <time>2022-08-03T07:19:05Z</time>
      </trkpt>
      <trkpt lat="45.75916" lon="1.88993">
        <ele>741.7</ele>
        <time>2022-08-03T07:19:07Z</time>
      </trkpt>
      <trkpt lat="45.75916" lon="1.88999">
        <ele>741.9</ele>
        <time>2022-08-03T07:19:09Z</time>
      </trkpt>
      <trkpt lat="45.75916" lon="1.89005">
        <ele>741.8</ele>
        <time>2022-08-03T07:19:11Z</time>
      </trkpt>
      <trkpt lat="45.75917" lon="1.89011">
        <ele>741.8</ele>
        <time>2022-08-03T07:19:13Z</time>
      </trkpt>
      <trkpt lat="45.75918" lon="1.89017">
        <ele>741.8</ele>
        <time>2022-08-03T07:19:15Z</time>
      </trkpt>
      <trkpt lat="45.7592" lon="1.89023">
        <ele>741.8</ele>
        <time>2022-08-03T07:19:17Z</time>
      </trkpt>
      <trkpt lat="45.75922" lon="1.89029">
        <ele>741.9</ele>
        <time>2022-08-03T07:19:19Z</time>
      </trkpt>
      <trkpt lat="45.75924" lon="1.89035">
        <ele>742</ele>
        <time>2022-08-03T07:19:21Z</time>
      </trkpt>
      <trkpt lat="45.75925" lon="1.89041">
        <ele>742</ele>
        <time>2022-08-03T07:19:23Z</time>
      </trkpt>
      <trkpt lat="45.75926" lon="1.89047">
        <ele>742</ele>
        <time>2022-08-03T07:19:25Z</time>
      </trkpt>
      <trkpt lat="45.75928" lon="1.89054">
        <ele>742.1</ele>
        <time>2022-08-03T07:19:27Z</time>
      </trkpt>
      <trkpt lat="45.7593" lon="1.89059">
        <ele>742.2</ele>
        <time>2022-08-03T07:19:29Z</time>
      </trkpt>
      <trkpt lat="45.75931" lon="1.89068">
        <ele>742.2</ele>
        <time>2022-08-03T07:19:31Z</time>
      </trkpt>
      <trkpt lat="45.75933" lon="1.89075">
        <ele>742.1</ele>
        <time>2022-08-03T07:19:33Z</time>
      </trkpt>
      <trkpt lat="45.75933" lon="1.89082">
        <ele>742</ele>
        <time>2022-08-03T07:19:35Z</time>
      </trkpt>
      <trkpt lat="45.75932" lon="1.8909">
        <ele>742.1</ele>
        <time>2022-08-03T07:19:37Z</time>
      </trkpt>
      <trkpt lat="45.75932" lon="1.89098">
        <ele>742.2</ele>
        <time>2022-08-03T07:19:39Z</time>
      </trkpt>
      <trkpt lat="45.75931" lon="1.89107">
        <ele>742.4</ele>
        <time>2022-08-03T07:19:41Z</time>
      </trkpt>
      <trkpt lat="45.75929" lon="1.89117">
        <ele>742.5</ele>
        <time>2022-08-03T07:19:43Z</time>
      </trkpt>
      <trkpt lat="45.75928" lon="1.89127">
        <ele>742.6</ele>
        <time>2022-08-03T07:19:45Z</time>
      </trkpt>
      <trkpt lat="45.75926" lon="1.89139">
        <ele>742.6</ele>
        <time>2022-08-03T07:19:47Z</time>
      </trkpt>
      <trkpt lat="45.75925" lon="1.8915">
        <ele>742.7</ele>
        <time>2022-08-03T07:19:49Z</time>
      </trkpt>
      <trkpt lat="45.75923" lon="1.8916">
        <ele>742.8</ele>
        <time>2022-08-03T07:19:51Z</time>
      </trkpt>
      <trkpt lat="45.75921" lon="1.8917">
        <ele>742.7</ele>
        <time>2022-08-03T07:19:53Z</time>
      </trkpt>
      <trkpt lat="45.75919" lon="1.89179">
        <ele>742.5</ele>
        <time>2022-08-03T07:19:55Z</time>
      </trkpt>
      <trkpt lat="45.75918" lon="1.8919">
        <ele>742.5</ele>
        <time>2022-08-03T07:19:57Z</time>
      </trkpt>
      <trkpt lat="45.75917" lon="1.89204">
        <ele>742.6</ele>
        <time>2022-08-03T07:19:59Z</time>
      </trkpt>
      <trkpt lat="45.75917" lon="1.89218">
        <ele>742.6</ele>
        <time>2022-08-03T07:20:01Z</time>
      </trkpt>
      <trkpt lat="45.75917" lon="1.89233">
        <ele>742.9</ele>
        <time>2022-08-03T07:20:03Z</time>
      </trkpt>
      <trkpt lat="45.75917" lon="1.89249">
        <ele>743.1</ele>
        <time>2022-08-03T07:20:05Z</time>
      </trkpt>
      <trkpt lat="45.75918" lon="1.89266">
        <ele>743</ele>
        <time>2022-08-03T07:20:07Z</time>
      </trkpt>
      <trkpt lat="45.75916" lon="1.89281">
        <ele>742.5</ele>
        <time>2022-08-03T07:20:09Z</time>
      </trkpt>
      <trkpt lat="45.75915" lon="1.89296">
        <ele>742</ele>
        <time>2022-08-03T07:20:11Z</time>
      </trkpt>
      <trkpt lat="45.75917" lon="1.89314">
        <ele>742.2</ele>
        <time>2022-08-03T07:20:13Z</time>
      </trkpt>
      <trkpt lat="45.75918" lon="1.89329">
        <ele>742.3</ele>
        <time>2022-08-03T07:20:15Z</time>
      </trkpt>
      <trkpt lat="45.7592" lon="1.89345">
        <ele>742.4</ele>
        <time>2022-08-03T07:20:17Z</time>
      </trkpt>
      <trkpt lat="45.75922" lon="1.89365">
        <ele>742.2</ele>
        <time>2022-08-03T07:20:19Z</time>
      </trkpt>
      <trkpt lat="45.75923" lon="1.89383">
        <ele>741.9</ele>
        <time>2022-08-03T07:20:21Z</time>
      </trkpt>
      <trkpt lat="45.75926" lon="1.89401">
        <ele>741.8</ele>
        <time>2022-08-03T07:20:23Z</time>
      </trkpt>
      <trkpt lat="45.75928" lon="1.89418">
        <ele>741.5</ele>
        <time>2022-08-03T07:20:25Z</time>
      </trkpt>
      <trkpt lat="45.7593" lon="1.89439">
        <ele>739.8</ele>
        <time>2022-08-03T07:20:27Z</time>
      </trkpt>
      <trkpt lat="45.75934" lon="1.89457">
        <ele>738.7</ele>
        <time>2022-08-03T07:20:29Z</time>
      </trkpt>
      <trkpt lat="45.75937" lon="1.89478">
        <ele>737.3</ele>
        <time>2022-08-03T07:20:31Z</time>
      </trkpt>
      <trkpt lat="45.7594" lon="1.89501">
        <ele>735.6</ele>
        <time>2022-08-03T07:20:33Z</time>
      </trkpt>
      <trkpt lat="45.75942" lon="1.89523">
        <ele>735</ele>
        <time>2022-08-03T07:20:35Z</time>
      </trkpt>
      <trkpt lat="45.75943" lon="1.89542">
        <ele>734.3</ele>
        <time>2022-08-03T07:20:37Z</time>
      </trkpt>
      <trkpt lat="45.75943" lon="1.89562">
        <ele>733.4</ele>
        <time>2022-08-03T07:20:39Z</time>
      </trkpt>
      <trkpt lat="45.75943" lon="1.89581">
        <ele>732.6</ele>
        <time>2022-08-03T07:20:41Z</time>
      </trkpt>
      <trkpt lat="45.75945" lon="1.89598">
        <ele>732.1</ele>
        <time>2022-08-03T07:20:43Z</time>
      </trkpt>
      <trkpt lat="45.75947" lon="1.89616">
        <ele>731.5</ele>
        <time>2022-08-03T07:20:45Z</time>
      </trkpt>
      <trkpt lat="45.75951" lon="1.89633">
        <ele>731</ele>
        <time>2022-08-03T07:20:47Z</time>
      </trkpt>
      <trkpt lat="45.75956" lon="1.8965">
        <ele>730.3</ele>
        <time>2022-08-03T07:20:49Z</time>
      </trkpt>
      <trkpt lat="45.75961" lon="1.89669">
        <ele>729.4</ele>
        <time>2022-08-03T07:20:51Z</time>
      </trkpt>
      <trkpt lat="45.75968" lon="1.89689">
        <ele>728.5</ele>
        <time>2022-08-03T07:20:53Z</time>
      </trkpt>
      <trkpt lat="45.75975" lon="1.89708">
        <ele>727.5</ele>
        <time>2022-08-03T07:20:55Z</time>
      </trkpt>
      <trkpt lat="45.75983" lon="1.89726">
        <ele>726.5</ele>
        <time>2022-08-03T07:20:57Z</time>
      </trkpt>
      <trkpt lat="45.75993" lon="1.89744">
        <ele>725.4</ele>
        <time>2022-08-03T07:20:59Z</time>
      </trkpt>
      <trkpt lat="45.75999" lon="1.89766">
        <ele>724.8</ele>
        <time>2022-08-03T07:21:01Z</time>
      </trkpt>
      <trkpt lat="45.76005" lon="1.89786">
        <ele>724.7</ele>
        <time>2022-08-03T07:21:03Z</time>
      </trkpt>
      <trkpt lat="45.76012" lon="1.89803">
        <ele>724.6</ele>
        <time>2022-08-03T07:21:05Z</time>
      </trkpt>
      <trkpt lat="45.76016" lon="1.89825">
        <ele>724.3</ele>
        <time>2022-08-03T07:21:07Z</time>
      </trkpt>
      <trkpt lat="45.76014" lon="1.89842">
        <ele>723.2</ele>
        <time>2022-08-03T07:21:09Z</time>
      </trkpt>
      <trkpt lat="45.76011" lon="1.89857">
        <ele>721.4</ele>
        <time>2022-08-03T07:21:11Z</time>
      </trkpt>
      <trkpt lat="45.76009" lon="1.8987">
        <ele>719.9</ele>
        <time>2022-08-03T07:21:13Z</time>
      </trkpt>
      <trkpt lat="45.76007" lon="1.89884">
        <ele>718.2</ele>
        <time>2022-08-03T07:21:15Z</time>
      </trkpt>
      <trkpt lat="45.76004" lon="1.89898">
        <ele>716.5</ele>
        <time>2022-08-03T07:21:17Z</time>
      </trkpt>
      <trkpt lat="45.76" lon="1.89908">
        <ele>715.1</ele>
        <time>2022-08-03T07:21:19Z</time>
      </trkpt>
      <trkpt lat="45.75999" lon="1.89915">
        <ele>714.1</ele>
        <time>2022-08-03T07:21:21Z</time>
      </trkpt>
      <trkpt lat="45.75999" lon="1.89918">
        <ele>713.7</ele>
        <time>2022-08-03T07:21:23Z</time>
      </trkpt>
      <trkpt lat="45.75999" lon="1.89919">
        <ele>713.6</ele>
        <time>2022-08-03T07:21:25Z</time>
      </trkpt>
      <trkpt lat="45.75999" lon="1.89919">
        <ele>713.5</ele>
        <time>2022-08-03T07:21:27Z</time>
      </trkpt>
      <trkpt lat="45.75999" lon="1.89919">
        <ele>713.5</ele>
        <time>2022-08-03T07:21:29Z</time>
      </trkpt>
      <trkpt lat="45.76007" lon="1.89953">
        <ele>708.3</ele>
        <time>2022-08-03T07:23:35Z</time>
      </trkpt>
      <trkpt lat="45.76011" lon="1.89958">
        <ele>707.8</ele>
        <time>2022-08-03T07:23:37Z</time>
      </trkpt>
      <trkpt lat="45.76014" lon="1.89961">
        <ele>707.5</ele>
        <time>2022-08-03T07:23:39Z</time>
      </trkpt>
      <trkpt lat="45.76018" lon="1.89964">
        <ele>707.2</ele>
        <time>2022-08-03T07:23:41Z</time>
      </trkpt>
      <trkpt lat="45.76022" lon="1.89968">
        <ele>706.9</ele>
        <time>2022-08-03T07:23:43Z</time>
      </trkpt>
      <trkpt lat="45.76027" lon="1.89971">
        <ele>706.6</ele>
        <time>2022-08-03T07:23:45Z</time>
      </trkpt>
      <trkpt lat="45.76034" lon="1.89975">
        <ele>706.5</ele>
        <time>2022-08-03T07:23:47Z</time>
      </trkpt>
      <trkpt lat="45.76041" lon="1.8998">
        <ele>706.2</ele>
        <time>2022-08-03T07:23:49Z</time>
      </trkpt>
      <trkpt lat="45.76051" lon="1.89987">
        <ele>705.7</ele>
        <time>2022-08-03T07:23:51Z</time>
      </trkpt>
      <trkpt lat="45.76059" lon="1.89996">
        <ele>704.9</ele>
        <time>2022-08-03T07:23:53Z</time>
      </trkpt>
      <trkpt lat="45.76067" lon="1.90007">
        <ele>703.7</ele>
        <time>2022-08-03T07:23:55Z</time>
      </trkpt>
      <trkpt lat="45.76078" lon="1.90016">
        <ele>703.2</ele>
        <time>2022-08-03T07:23:57Z</time>
      </trkpt>
      <trkpt lat="45.76089" lon="1.90023">
        <ele>702.7</ele>
        <time>2022-08-03T07:23:59Z</time>
      </trkpt>
      <trkpt lat="45.76099" lon="1.90027">
        <ele>702.6</ele>
        <time>2022-08-03T07:24:01Z</time>
      </trkpt>
      <trkpt lat="45.76111" lon="1.90034">
        <ele>702</ele>
        <time>2022-08-03T07:24:03Z</time>
      </trkpt>
      <trkpt lat="45.76126" lon="1.9004">
        <ele>702</ele>
        <time>2022-08-03T07:24:05Z</time>
      </trkpt>
      <trkpt lat="45.76136" lon="1.90048">
        <ele>701.5</ele>
        <time>2022-08-03T07:24:07Z</time>
      </trkpt>
      <trkpt lat="45.76145" lon="1.90063">
        <ele>700.1</ele>
        <time>2022-08-03T07:24:09Z</time>
      </trkpt>
      <trkpt lat="45.76148" lon="1.9008">
        <ele>698.1</ele>
        <time>2022-08-03T07:24:11Z</time>
      </trkpt>
      <trkpt lat="45.76149" lon="1.90098">
        <ele>697.1</ele>
        <time>2022-08-03T07:24:13Z</time>
      </trkpt>
      <trkpt lat="45.76148" lon="1.90117">
        <ele>696.2</ele>
        <time>2022-08-03T07:24:15Z</time>
      </trkpt>
      <trkpt lat="45.76145" lon="1.90138">
        <ele>694.9</ele>
        <time>2022-08-03T07:24:17Z</time>
      </trkpt>
      <trkpt lat="45.76138" lon="1.9016">
        <ele>693.2</ele>
        <time>2022-08-03T07:24:19Z</time>
      </trkpt>
      <trkpt lat="45.76126" lon="1.90182">
        <ele>690.6</ele>
        <time>2022-08-03T07:24:21Z</time>
      </trkpt>
      <trkpt lat="45.76115" lon="1.90206">
        <ele>687.9</ele>
        <time>2022-08-03T07:24:23Z</time>
      </trkpt>
      <trkpt lat="45.76105" lon="1.90229">
        <ele>685.4</ele>
        <time>2022-08-03T07:24:25Z</time>
      </trkpt>
      <trkpt lat="45.76091" lon="1.90257">
        <ele>682.5</ele>
        <time>2022-08-03T07:24:27Z</time>
      </trkpt>
      <trkpt lat="45.76074" lon="1.90278">
        <ele>680.5</ele>
        <time>2022-08-03T07:24:29Z</time>
      </trkpt>
      <trkpt lat="45.76059" lon="1.90303">
        <ele>678.7</ele>
        <time>2022-08-03T07:24:31Z</time>
      </trkpt>
      <trkpt lat="45.76041" lon="1.90317">
        <ele>677.1</ele>
        <time>2022-08-03T07:24:33Z</time>
      </trkpt>
      <trkpt lat="45.76023" lon="1.90344">
        <ele>675.5</ele>
        <time>2022-08-03T07:24:35Z</time>
      </trkpt>
      <trkpt lat="45.76007" lon="1.9037">
        <ele>674.7</ele>
        <time>2022-08-03T07:24:37Z</time>
      </trkpt>
      <trkpt lat="45.75992" lon="1.90396">
        <ele>674.2</ele>
        <time>2022-08-03T07:24:39Z</time>
      </trkpt>
      <trkpt lat="45.75977" lon="1.90418">
        <ele>673.6</ele>
        <time>2022-08-03T07:24:41Z</time>
      </trkpt>
      <trkpt lat="45.75963" lon="1.90447">
        <ele>672.6</ele>
        <time>2022-08-03T07:24:43Z</time>
      </trkpt>
      <trkpt lat="45.75949" lon="1.90467">
        <ele>671.6</ele>
        <time>2022-08-03T07:24:45Z</time>
      </trkpt>
      <trkpt lat="45.75942" lon="1.90487">
        <ele>670.9</ele>
        <time>2022-08-03T07:24:47Z</time>
      </trkpt>
      <trkpt lat="45.75931" lon="1.905">
        <ele>670</ele>
        <time>2022-08-03T07:24:49Z</time>
      </trkpt>
      <trkpt lat="45.75926" lon="1.90517">
        <ele>667.8</ele>
        <time>2022-08-03T07:24:51Z</time>
      </trkpt>
      <trkpt lat="45.75929" lon="1.90535">
        <ele>666</ele>
        <time>2022-08-03T07:24:53Z</time>
      </trkpt>
      <trkpt lat="45.75934" lon="1.90555">
        <ele>664.5</ele>
        <time>2022-08-03T07:24:55Z</time>
      </trkpt>
      <trkpt lat="45.75947" lon="1.90568">
        <ele>664.9</ele>
        <time>2022-08-03T07:24:57Z</time>
      </trkpt>
      <trkpt lat="45.75962" lon="1.90581">
        <ele>665.7</ele>
        <time>2022-08-03T07:24:59Z</time>
      </trkpt>
      <trkpt lat="45.75976" lon="1.90594">
        <ele>665.6</ele>
        <time>2022-08-03T07:25:01Z</time>
      </trkpt>
      <trkpt lat="45.75988" lon="1.90608">
        <ele>665.4</ele>
        <time>2022-08-03T07:25:03Z</time>
      </trkpt>
      <trkpt lat="45.76002" lon="1.90621">
        <ele>665</ele>
        <time>2022-08-03T07:25:05Z</time>
      </trkpt>
      <trkpt lat="45.76012" lon="1.90634">
        <ele>662.2</ele>
        <time>2022-08-03T07:25:07Z</time>
      </trkpt>
      <trkpt lat="45.76025" lon="1.90637">
        <ele>660.8</ele>
        <time>2022-08-03T07:25:09Z</time>
      </trkpt>
      <trkpt lat="45.76037" lon="1.90629">
        <ele>660.9</ele>
        <time>2022-08-03T07:25:11Z</time>
      </trkpt>
      <trkpt lat="45.76047" lon="1.90617">
        <ele>661.3</ele>
        <time>2022-08-03T07:25:13Z</time>
      </trkpt>
      <trkpt lat="45.7606" lon="1.90601">
        <ele>661.6</ele>
        <time>2022-08-03T07:25:15Z</time>
      </trkpt>
      <trkpt lat="45.76066" lon="1.9058">
        <ele>662.4</ele>
        <time>2022-08-03T07:25:17Z</time>
      </trkpt>
      <trkpt lat="45.76071" lon="1.9056">
        <ele>662.2</ele>
        <time>2022-08-03T07:25:19Z</time>
      </trkpt>
      <trkpt lat="45.76075" lon="1.90539">
        <ele>662.3</ele>
        <time>2022-08-03T07:25:21Z</time>
      </trkpt>
      <trkpt lat="45.76081" lon="1.90521">
        <ele>661.8</ele>
        <time>2022-08-03T07:25:23Z</time>
      </trkpt>
      <trkpt lat="45.76093" lon="1.90508">
        <ele>661.1</ele>
        <time>2022-08-03T07:25:25Z</time>
      </trkpt>
      <trkpt lat="45.76105" lon="1.90509">
        <ele>660.1</ele>
        <time>2022-08-03T07:25:27Z</time>
      </trkpt>
      <trkpt lat="45.76116" lon="1.90509">
        <ele>659.2</ele>
        <time>2022-08-03T07:25:29Z</time>
      </trkpt>
      <trkpt lat="45.76125" lon="1.90511">
        <ele>658.4</ele>
        <time>2022-08-03T07:25:31Z</time>
      </trkpt>
      <trkpt lat="45.76137" lon="1.9051">
        <ele>657.6</ele>
        <time>2022-08-03T07:25:33Z</time>
      </trkpt>
      <trkpt lat="45.76146" lon="1.90507">
        <ele>657</ele>
        <time>2022-08-03T07:25:35Z</time>
      </trkpt>
      <trkpt lat="45.76156" lon="1.9051">
        <ele>656.1</ele>
        <time>2022-08-03T07:25:37Z</time>
      </trkpt>
      <trkpt lat="45.76158" lon="1.90528">
        <ele>654.8</ele>
        <time>2022-08-03T07:25:39Z</time>
      </trkpt>
      <trkpt lat="45.76156" lon="1.90543">
        <ele>653.9</ele>
        <time>2022-08-03T07:25:41Z</time>
      </trkpt>
      <trkpt lat="45.76152" lon="1.90555">
        <ele>653.6</ele>
        <time>2022-08-03T07:25:43Z</time>
      </trkpt>
      <trkpt lat="45.76142" lon="1.9057">
        <ele>653.8</ele>
        <time>2022-08-03T07:25:45Z</time>
      </trkpt>
      <trkpt lat="45.76138" lon="1.90586">
        <ele>653.3</ele>
        <time>2022-08-03T07:25:47Z</time>
      </trkpt>
      <trkpt lat="45.76134" lon="1.90603">
        <ele>653.1</ele>
        <time>2022-08-03T07:25:49Z</time>
      </trkpt>
      <trkpt lat="45.76132" lon="1.90622">
        <ele>652.4</ele>
        <time>2022-08-03T07:25:51Z</time>
      </trkpt>
      <trkpt lat="45.76132" lon="1.90641">
        <ele>651.5</ele>
        <time>2022-08-03T07:25:53Z</time>
      </trkpt>
      <trkpt lat="45.76135" lon="1.90661">
        <ele>650.3</ele>
        <time>2022-08-03T07:25:55Z</time>
      </trkpt>
      <trkpt lat="45.76136" lon="1.90676">
        <ele>648.9</ele>
        <time>2022-08-03T07:25:57Z</time>
      </trkpt>
      <trkpt lat="45.76136" lon="1.90693">
        <ele>647.2</ele>
        <time>2022-08-03T07:25:59Z</time>
      </trkpt>
      <trkpt lat="45.76136" lon="1.90711">
        <ele>645.4</ele>
        <time>2022-08-03T07:26:01Z</time>
      </trkpt>
      <trkpt lat="45.7613" lon="1.90723">
        <ele>644.7</ele>
        <time>2022-08-03T07:26:03Z</time>
      </trkpt>
      <trkpt lat="45.76119" lon="1.90731">
        <ele>645.1</ele>
        <time>2022-08-03T07:26:05Z</time>
      </trkpt>
      <trkpt lat="45.76107" lon="1.90737">
        <ele>645.7</ele>
        <time>2022-08-03T07:26:07Z</time>
      </trkpt>
      <trkpt lat="45.76094" lon="1.90742">
        <ele>646.6</ele>
        <time>2022-08-03T07:26:09Z</time>
      </trkpt>
      <trkpt lat="45.76081" lon="1.90747">
        <ele>647.1</ele>
        <time>2022-08-03T07:26:11Z</time>
      </trkpt>
      <trkpt lat="45.7607" lon="1.90752">
        <ele>645.5</ele>
        <time>2022-08-03T07:26:13Z</time>
      </trkpt>
      <trkpt lat="45.76057" lon="1.90753">
        <ele>644.4</ele>
        <time>2022-08-03T07:26:15Z</time>
      </trkpt>
      <trkpt lat="45.76046" lon="1.90755">
        <ele>643.2</ele>
        <time>2022-08-03T07:26:17Z</time>
      </trkpt>
      <trkpt lat="45.76037" lon="1.90753">
        <ele>642.7</ele>
        <time>2022-08-03T07:26:19Z</time>
      </trkpt>
      <trkpt lat="45.76033" lon="1.90753">
        <ele>642.4</ele>
        <time>2022-08-03T07:26:21Z</time>
      </trkpt>
      <trkpt lat="45.76034" lon="1.90755">
        <ele>642.1</ele>
        <time>2022-08-03T07:26:23Z</time>
      </trkpt>
      <trkpt lat="45.76033" lon="1.90756">
        <ele>642</ele>
        <time>2022-08-03T07:26:25Z</time>
      </trkpt>
      <trkpt lat="45.76033" lon="1.90755">
        <ele>642</ele>
        <time>2022-08-03T07:26:27Z</time>
      </trkpt>
      <trkpt lat="45.76031" lon="1.90758">
        <ele>641.5</ele>
        <time>2022-08-03T07:26:29Z</time>
      </trkpt>
      <trkpt lat="45.76009" lon="1.90777">
        <ele>637.1</ele>
        <time>2022-08-03T07:26:41Z</time>
      </trkpt>
      <trkpt lat="45.76002" lon="1.90783">
        <ele>635.8</ele>
        <time>2022-08-03T07:26:43Z</time>
      </trkpt>
      <trkpt lat="45.75993" lon="1.90794">
        <ele>633.8</ele>
        <time>2022-08-03T07:26:45Z</time>
      </trkpt>
      <trkpt lat="45.75987" lon="1.90811">
        <ele>631.6</ele>
        <time>2022-08-03T07:26:47Z</time>
      </trkpt>
      <trkpt lat="45.75985" lon="1.90828">
        <ele>629.6</ele>
        <time>2022-08-03T07:26:49Z</time>
      </trkpt>
      <trkpt lat="45.75981" lon="1.90849">
        <ele>628.5</ele>
        <time>2022-08-03T07:26:51Z</time>
      </trkpt>
      <trkpt lat="45.75978" lon="1.90872">
        <ele>627.7</ele>
        <time>2022-08-03T07:26:53Z</time>
      </trkpt>
      <trkpt lat="45.75973" lon="1.90889">
        <ele>627</ele>
        <time>2022-08-03T07:26:55Z</time>
      </trkpt>
      <trkpt lat="45.75965" lon="1.90903">
        <ele>626.3</ele>
        <time>2022-08-03T07:26:57Z</time>
      </trkpt>
      <trkpt lat="45.75955" lon="1.90919">
        <ele>625.2</ele>
        <time>2022-08-03T07:26:59Z</time>
      </trkpt>
      <trkpt lat="45.75944" lon="1.90932">
        <ele>624</ele>
        <time>2022-08-03T07:27:01Z</time>
      </trkpt>
      <trkpt lat="45.75939" lon="1.90948">
        <ele>622.7</ele>
        <time>2022-08-03T07:27:03Z</time>
      </trkpt>
      <trkpt lat="45.7594" lon="1.90973">
        <ele>621.1</ele>
        <time>2022-08-03T07:27:05Z</time>
      </trkpt>
      <trkpt lat="45.75945" lon="1.90992">
        <ele>620.3</ele>
        <time>2022-08-03T07:27:07Z</time>
      </trkpt>
      <trkpt lat="45.75944" lon="1.91009">
        <ele>620.5</ele>
        <time>2022-08-03T07:27:09Z</time>
      </trkpt>
      <trkpt lat="45.75936" lon="1.91017">
        <ele>620.5</ele>
        <time>2022-08-03T07:27:11Z</time>
      </trkpt>
      <trkpt lat="45.75928" lon="1.91019">
        <ele>620.1</ele>
        <time>2022-08-03T07:27:13Z</time>
      </trkpt>
      <trkpt lat="45.75925" lon="1.91022">
        <ele>620.2</ele>
        <time>2022-08-03T07:27:15Z</time>
      </trkpt>
      <trkpt lat="45.75923" lon="1.91023">
        <ele>620.2</ele>
        <time>2022-08-03T07:27:17Z</time>
      </trkpt>
      <trkpt lat="45.75917" lon="1.91026">
        <ele>620.1</ele>
        <time>2022-08-03T07:27:19Z</time>
      </trkpt>
      <trkpt lat="45.75913" lon="1.91026">
        <ele>620</ele>
        <time>2022-08-03T07:27:21Z</time>
      </trkpt>
      <trkpt lat="45.7591" lon="1.91028">
        <ele>620.1</ele>
        <time>2022-08-03T07:27:23Z</time>
      </trkpt>
      <trkpt lat="45.75904" lon="1.91032">
        <ele>620.3</ele>
        <time>2022-08-03T07:27:25Z</time>
      </trkpt>
      <trkpt lat="45.75899" lon="1.91035">
        <ele>620.6</ele>
        <time>2022-08-03T07:27:27Z</time>
      </trkpt>
      <trkpt lat="45.75895" lon="1.91036">
        <ele>620.5</ele>
        <time>2022-08-03T07:27:29Z</time>
      </trkpt>
      <trkpt lat="45.75893" lon="1.91041">
        <ele>621</ele>
        <time>2022-08-03T07:27:31Z</time>
      </trkpt>
      <trkpt lat="45.7589" lon="1.91046">
        <ele>621.4</ele>
        <time>2022-08-03T07:27:33Z</time>
      </trkpt>
      <trkpt lat="45.75885" lon="1.9105">
        <ele>621.6</ele>
        <time>2022-08-03T07:27:35Z</time>
      </trkpt>
      <trkpt lat="45.75881" lon="1.91054">
        <ele>621.8</ele>
        <time>2022-08-03T07:27:37Z</time>
      </trkpt>
      <trkpt lat="45.75878" lon="1.91058">
        <ele>622.1</ele>
        <time>2022-08-03T07:27:39Z</time>
      </trkpt>
      <trkpt lat="45.75876" lon="1.91061">
        <ele>622.3</ele>
        <time>2022-08-03T07:27:41Z</time>
      </trkpt>
      <trkpt lat="45.75874" lon="1.91064">
        <ele>622.4</ele>
        <time>2022-08-03T07:27:43Z</time>
      </trkpt>
      <trkpt lat="45.7587" lon="1.91069">
        <ele>622.7</ele>
        <time>2022-08-03T07:27:45Z</time>
      </trkpt>
      <trkpt lat="45.75868" lon="1.91072">
        <ele>622.9</ele>
        <time>2022-08-03T07:27:47Z</time>
      </trkpt>
      <trkpt lat="45.75863" lon="1.91076">
        <ele>623.1</ele>
        <time>2022-08-03T07:27:49Z</time>
      </trkpt>
      <trkpt lat="45.75859" lon="1.91079">
        <ele>623.2</ele>
        <time>2022-08-03T07:27:51Z</time>
      </trkpt>
      <trkpt lat="45.75855" lon="1.91082">
        <ele>623.2</ele>
        <time>2022-08-03T07:27:53Z</time>
      </trkpt>
      <trkpt lat="45.75851" lon="1.91086">
        <ele>623.4</ele>
        <time>2022-08-03T07:27:55Z</time>
      </trkpt>
      <trkpt lat="45.75848" lon="1.9109">
        <ele>623.5</ele>
        <time>2022-08-03T07:27:57Z</time>
      </trkpt>
      <trkpt lat="45.75844" lon="1.91093">
        <ele>623.5</ele>
        <time>2022-08-03T07:27:59Z</time>
      </trkpt>
      <trkpt lat="45.75841" lon="1.91096">
        <ele>623.6</ele>
        <time>2022-08-03T07:28:01Z</time>
      </trkpt>
      <trkpt lat="45.75837" lon="1.91099">
        <ele>623.6</ele>
        <time>2022-08-03T07:28:03Z</time>
      </trkpt>
      <trkpt lat="45.75833" lon="1.91103">
        <ele>623.6</ele>
        <time>2022-08-03T07:28:05Z</time>
      </trkpt>
      <trkpt lat="45.7583" lon="1.91108">
        <ele>623.8</ele>
        <time>2022-08-03T07:28:07Z</time>
      </trkpt>
      <trkpt lat="45.75826" lon="1.91112">
        <ele>623.9</ele>
        <time>2022-08-03T07:28:09Z</time>
      </trkpt>
      <trkpt lat="45.75822" lon="1.91116">
        <ele>624</ele>
        <time>2022-08-03T07:28:11Z</time>
      </trkpt>
      <trkpt lat="45.75819" lon="1.9112">
        <ele>624.1</ele>
        <time>2022-08-03T07:28:13Z</time>
      </trkpt>
      <trkpt lat="45.75816" lon="1.91125">
        <ele>624.4</ele>
        <time>2022-08-03T07:28:15Z</time>
      </trkpt>
      <trkpt lat="45.75814" lon="1.9113">
        <ele>624.6</ele>
        <time>2022-08-03T07:28:17Z</time>
      </trkpt>
      <trkpt lat="45.75813" lon="1.91137">
        <ele>625.2</ele>
        <time>2022-08-03T07:28:19Z</time>
      </trkpt>
      <trkpt lat="45.75812" lon="1.91143">
        <ele>625.7</ele>
        <time>2022-08-03T07:28:21Z</time>
      </trkpt>
      <trkpt lat="45.75811" lon="1.91149">
        <ele>626.1</ele>
        <time>2022-08-03T07:28:23Z</time>
      </trkpt>
      <trkpt lat="45.7581" lon="1.91155">
        <ele>626.6</ele>
        <time>2022-08-03T07:28:25Z</time>
      </trkpt>
      <trkpt lat="45.7581" lon="1.91161">
        <ele>627.1</ele>
        <time>2022-08-03T07:28:27Z</time>
      </trkpt>
      <trkpt lat="45.7581" lon="1.91166">
        <ele>627.5</ele>
        <time>2022-08-03T07:28:29Z</time>
      </trkpt>
      <trkpt lat="45.7581" lon="1.91172">
        <ele>627.6</ele>
        <time>2022-08-03T07:28:31Z</time>
      </trkpt>
      <trkpt lat="45.75812" lon="1.91177">
        <ele>627.6</ele>
        <time>2022-08-03T07:28:33Z</time>
      </trkpt>
      <trkpt lat="45.75814" lon="1.91182">
        <ele>627.7</ele>
        <time>2022-08-03T07:28:35Z</time>
      </trkpt>
      <trkpt lat="45.75816" lon="1.91188">
        <ele>627.7</ele>
        <time>2022-08-03T07:28:37Z</time>
      </trkpt>
      <trkpt lat="45.75818" lon="1.91192">
        <ele>627.8</ele>
        <time>2022-08-03T07:28:39Z</time>
      </trkpt>
      <trkpt lat="45.75822" lon="1.91196">
        <ele>627.9</ele>
        <time>2022-08-03T07:28:41Z</time>
      </trkpt>
      <trkpt lat="45.75825" lon="1.912">
        <ele>627.9</ele>
        <time>2022-08-03T07:28:43Z</time>
      </trkpt>
      <trkpt lat="45.7583" lon="1.91204">
        <ele>628</ele>
        <time>2022-08-03T07:28:45Z</time>
      </trkpt>
      <trkpt lat="45.75833" lon="1.91208">
        <ele>628</ele>
        <time>2022-08-03T07:28:47Z</time>
      </trkpt>
      <trkpt lat="45.75837" lon="1.91211">
        <ele>628.5</ele>
        <time>2022-08-03T07:28:49Z</time>
      </trkpt>
      <trkpt lat="45.7584" lon="1.91214">
        <ele>628.9</ele>
        <time>2022-08-03T07:28:51Z</time>
      </trkpt>
      <trkpt lat="45.75843" lon="1.91217">
        <ele>629.3</ele>
        <time>2022-08-03T07:28:53Z</time>
      </trkpt>
      <trkpt lat="45.75846" lon="1.9122">
        <ele>629.8</ele>
        <time>2022-08-03T07:28:55Z</time>
      </trkpt>
      <trkpt lat="45.75851" lon="1.91224">
        <ele>630.4</ele>
        <time>2022-08-03T07:28:57Z</time>
      </trkpt>
      <trkpt lat="45.75856" lon="1.91229">
        <ele>631.3</ele>
        <time>2022-08-03T07:28:59Z</time>
      </trkpt>
      <trkpt lat="45.75862" lon="1.91234">
        <ele>632.3</ele>
        <time>2022-08-03T07:29:01Z</time>
      </trkpt>
      <trkpt lat="45.75869" lon="1.91242">
        <ele>633.3</ele>
        <time>2022-08-03T07:29:03Z</time>
      </trkpt>
      <trkpt lat="45.75875" lon="1.91251">
        <ele>634.4</ele>
        <time>2022-08-03T07:29:05Z</time>
      </trkpt>
      <trkpt lat="45.7588" lon="1.91263">
        <ele>634.5</ele>
        <time>2022-08-03T07:29:07Z</time>
      </trkpt>
      <trkpt lat="45.75884" lon="1.91275">
        <ele>634.2</ele>
        <time>2022-08-03T07:29:09Z</time>
      </trkpt>
      <trkpt lat="45.75889" lon="1.91288">
        <ele>634.1</ele>
        <time>2022-08-03T07:29:11Z</time>
      </trkpt>
      <trkpt lat="45.75895" lon="1.913">
        <ele>633.8</ele>
        <time>2022-08-03T07:29:13Z</time>
      </trkpt>
      <trkpt lat="45.75903" lon="1.91314">
        <ele>633.5</ele>
        <time>2022-08-03T07:29:15Z</time>
      </trkpt>
      <trkpt lat="45.75912" lon="1.91328">
        <ele>633.1</ele>
        <time>2022-08-03T07:29:17Z</time>
      </trkpt>
      <trkpt lat="45.75921" lon="1.91342">
        <ele>633.1</ele>
        <time>2022-08-03T07:29:19Z</time>
      </trkpt>
      <trkpt lat="45.7593" lon="1.91355">
        <ele>633.3</ele>
        <time>2022-08-03T07:29:21Z</time>
      </trkpt>
      <trkpt lat="45.75934" lon="1.91376">
        <ele>632.5</ele>
        <time>2022-08-03T07:29:23Z</time>
      </trkpt>
      <trkpt lat="45.75933" lon="1.91393">
        <ele>631.2</ele>
        <time>2022-08-03T07:29:25Z</time>
      </trkpt>
      <trkpt lat="45.75931" lon="1.91409">
        <ele>629.7</ele>
        <time>2022-08-03T07:29:27Z</time>
      </trkpt>
      <trkpt lat="45.75928" lon="1.91423">
        <ele>628.9</ele>
        <time>2022-08-03T07:29:29Z</time>
      </trkpt>
      <trkpt lat="45.75925" lon="1.91436">
        <ele>628.6</ele>
        <time>2022-08-03T07:29:31Z</time>
      </trkpt>
      <trkpt lat="45.75923" lon="1.91451">
        <ele>628.6</ele>
        <time>2022-08-03T07:29:33Z</time>
      </trkpt>
      <trkpt lat="45.75927" lon="1.91466">
        <ele>629.3</ele>
        <time>2022-08-03T07:29:35Z</time>
      </trkpt>
      <trkpt lat="45.75931" lon="1.91481">
        <ele>630</ele>
        <time>2022-08-03T07:29:37Z</time>
      </trkpt>
      <trkpt lat="45.75935" lon="1.91493">
        <ele>630.5</ele>
        <time>2022-08-03T07:29:39Z</time>
      </trkpt>
      <trkpt lat="45.75938" lon="1.91505">
        <ele>631.2</ele>
        <time>2022-08-03T07:29:41Z</time>
      </trkpt>
      <trkpt lat="45.75942" lon="1.91517">
        <ele>632.4</ele>
        <time>2022-08-03T07:29:43Z</time>
      </trkpt>
      <trkpt lat="45.75945" lon="1.91527">
        <ele>633.3</ele>
        <time>2022-08-03T07:29:45Z</time>
      </trkpt>
      <trkpt lat="45.75947" lon="1.91535">
        <ele>633.9</ele>
        <time>2022-08-03T07:29:47Z</time>
      </trkpt>
      <trkpt lat="45.75949" lon="1.91542">
        <ele>634.3</ele>
        <time>2022-08-03T07:29:49Z</time>
      </trkpt>
      <trkpt lat="45.7595" lon="1.91548">
        <ele>634.7</ele>
        <time>2022-08-03T07:29:51Z</time>
      </trkpt>
      <trkpt lat="45.75952" lon="1.91554">
        <ele>635</ele>
        <time>2022-08-03T07:29:53Z</time>
      </trkpt>
      <trkpt lat="45.75955" lon="1.9156">
        <ele>635.1</ele>
        <time>2022-08-03T07:29:55Z</time>
      </trkpt>
      <trkpt lat="45.75956" lon="1.91564">
        <ele>635.3</ele>
        <time>2022-08-03T07:29:57Z</time>
      </trkpt>
      <trkpt lat="45.75958" lon="1.91568">
        <ele>635.4</ele>
        <time>2022-08-03T07:29:59Z</time>
      </trkpt>
      <trkpt lat="45.7596" lon="1.91572">
        <ele>635.4</ele>
        <time>2022-08-03T07:30:01Z</time>
      </trkpt>
      <trkpt lat="45.75962" lon="1.91576">
        <ele>635.4</ele>
        <time>2022-08-03T07:30:03Z</time>
      </trkpt>
      <trkpt lat="45.75964" lon="1.91581">
        <ele>635.4</ele>
        <time>2022-08-03T07:30:05Z</time>
      </trkpt>
      <trkpt lat="45.75966" lon="1.91585">
        <ele>635.4</ele>
        <time>2022-08-03T07:30:07Z</time>
      </trkpt>
      <trkpt lat="45.75967" lon="1.9159">
        <ele>635.6</ele>
        <time>2022-08-03T07:30:09Z</time>
      </trkpt>
      <trkpt lat="45.75968" lon="1.91594">
        <ele>635.8</ele>
        <time>2022-08-03T07:30:11Z</time>
      </trkpt>
      <trkpt lat="45.7597" lon="1.91598">
        <ele>635.8</ele>
        <time>2022-08-03T07:30:13Z</time>
      </trkpt>
      <trkpt lat="45.75972" lon="1.91602">
        <ele>635.8</ele>
        <time>2022-08-03T07:30:15Z</time>
      </trkpt>
      <trkpt lat="45.75975" lon="1.91606">
        <ele>635.8</ele>
        <time>2022-08-03T07:30:17Z</time>
      </trkpt>
      <trkpt lat="45.75977" lon="1.9161">
        <ele>635.8</ele>
        <time>2022-08-03T07:30:19Z</time>
      </trkpt>
      <trkpt lat="45.75979" lon="1.91614">
        <ele>635.8</ele>
        <time>2022-08-03T07:30:21Z</time>
      </trkpt>
      <trkpt lat="45.75983" lon="1.91617">
        <ele>635.6</ele>
        <time>2022-08-03T07:30:23Z</time>
      </trkpt>
      <trkpt lat="45.75984" lon="1.91621">
        <ele>635.7</ele>
        <time>2022-08-03T07:30:25Z</time>
      </trkpt>
      <trkpt lat="45.75986" lon="1.91626">
        <ele>635.7</ele>
        <time>2022-08-03T07:30:27Z</time>
      </trkpt>
      <trkpt lat="45.75986" lon="1.9163">
        <ele>635.9</ele>
        <time>2022-08-03T07:30:29Z</time>
      </trkpt>
      <trkpt lat="45.75987" lon="1.91634">
        <ele>636.1</ele>
        <time>2022-08-03T07:30:31Z</time>
      </trkpt>
      <trkpt lat="45.75989" lon="1.91638">
        <ele>636.1</ele>
        <time>2022-08-03T07:30:33Z</time>
      </trkpt>
      <trkpt lat="45.7599" lon="1.91642">
        <ele>636.1</ele>
        <time>2022-08-03T07:30:35Z</time>
      </trkpt>
      <trkpt lat="45.75992" lon="1.91647">
        <ele>636.2</ele>
        <time>2022-08-03T07:30:37Z</time>
      </trkpt>
      <trkpt lat="45.75992" lon="1.91652">
        <ele>636.4</ele>
        <time>2022-08-03T07:30:39Z</time>
      </trkpt>
      <trkpt lat="45.75994" lon="1.91656">
        <ele>636.3</ele>
        <time>2022-08-03T07:30:41Z</time>
      </trkpt>
      <trkpt lat="45.75994" lon="1.91662">
        <ele>636.6</ele>
        <time>2022-08-03T07:30:43Z</time>
      </trkpt>
      <trkpt lat="45.75994" lon="1.91666">
        <ele>636.8</ele>
        <time>2022-08-03T07:30:45Z</time>
      </trkpt>
      <trkpt lat="45.75994" lon="1.91672">
        <ele>636.8</ele>
        <time>2022-08-03T07:30:47Z</time>
      </trkpt>
      <trkpt lat="45.75993" lon="1.91677">
        <ele>636.8</ele>
        <time>2022-08-03T07:30:49Z</time>
      </trkpt>
      <trkpt lat="45.75993" lon="1.91681">
        <ele>636.7</ele>
        <time>2022-08-03T07:30:51Z</time>
      </trkpt>
      <trkpt lat="45.75992" lon="1.91687">
        <ele>636.8</ele>
        <time>2022-08-03T07:30:53Z</time>
      </trkpt>
      <trkpt lat="45.7599" lon="1.91691">
        <ele>637</ele>
        <time>2022-08-03T07:30:55Z</time>
      </trkpt>
      <trkpt lat="45.75989" lon="1.91695">
        <ele>636.9</ele>
        <time>2022-08-03T07:30:57Z</time>
      </trkpt>
      <trkpt lat="45.75987" lon="1.917">
        <ele>637.1</ele>
        <time>2022-08-03T07:30:59Z</time>
      </trkpt>
      <trkpt lat="45.75985" lon="1.91706">
        <ele>637.2</ele>
        <time>2022-08-03T07:31:01Z</time>
      </trkpt>
      <trkpt lat="45.75982" lon="1.9171">
        <ele>637.4</ele>
        <time>2022-08-03T07:31:03Z</time>
      </trkpt>
      <trkpt lat="45.75979" lon="1.91714">
        <ele>637.6</ele>
        <time>2022-08-03T07:31:05Z</time>
      </trkpt>
      <trkpt lat="45.75976" lon="1.91718">
        <ele>637.8</ele>
        <time>2022-08-03T07:31:07Z</time>
      </trkpt>
      <trkpt lat="45.75973" lon="1.9172">
        <ele>638</ele>
        <time>2022-08-03T07:31:09Z</time>
      </trkpt>
      <trkpt lat="45.7597" lon="1.91723">
        <ele>638.2</ele>
        <time>2022-08-03T07:31:11Z</time>
      </trkpt>
      <trkpt lat="45.75966" lon="1.91726">
        <ele>638.4</ele>
        <time>2022-08-03T07:31:13Z</time>
      </trkpt>
      <trkpt lat="45.75964" lon="1.91729">
        <ele>638.5</ele>
        <time>2022-08-03T07:31:15Z</time>
      </trkpt>
      <trkpt lat="45.7596" lon="1.9173">
        <ele>638.8</ele>
        <time>2022-08-03T07:31:17Z</time>
      </trkpt>
      <trkpt lat="45.75956" lon="1.91731">
        <ele>639.1</ele>
        <time>2022-08-03T07:31:19Z</time>
      </trkpt>
      <trkpt lat="45.75953" lon="1.91732">
        <ele>639.3</ele>
        <time>2022-08-03T07:31:21Z</time>
      </trkpt>
      <trkpt lat="45.75949" lon="1.91733">
        <ele>639.6</ele>
        <time>2022-08-03T07:31:23Z</time>
      </trkpt>
      <trkpt lat="45.75946" lon="1.91734">
        <ele>639.8</ele>
        <time>2022-08-03T07:31:25Z</time>
      </trkpt>
      <trkpt lat="45.75942" lon="1.91733">
        <ele>640.2</ele>
        <time>2022-08-03T07:31:27Z</time>
      </trkpt>
      <trkpt lat="45.75938" lon="1.91734">
        <ele>640.5</ele>
        <time>2022-08-03T07:31:29Z</time>
      </trkpt>
      <trkpt lat="45.75935" lon="1.91733">
        <ele>640.8</ele>
        <time>2022-08-03T07:31:31Z</time>
      </trkpt>
      <trkpt lat="45.75932" lon="1.91734">
        <ele>641</ele>
        <time>2022-08-03T07:31:33Z</time>
      </trkpt>
      <trkpt lat="45.75928" lon="1.91734">
        <ele>641.3</ele>
        <time>2022-08-03T07:31:35Z</time>
      </trkpt>
      <trkpt lat="45.75924" lon="1.91735">
        <ele>641.6</ele>
        <time>2022-08-03T07:31:37Z</time>
      </trkpt>
      <trkpt lat="45.7592" lon="1.91735">
        <ele>641.9</ele>
        <time>2022-08-03T07:31:39Z</time>
      </trkpt>
      <trkpt lat="45.75917" lon="1.91735">
        <ele>642.2</ele>
        <time>2022-08-03T07:31:41Z</time>
      </trkpt>
      <trkpt lat="45.75914" lon="1.91734">
        <ele>642.5</ele>
        <time>2022-08-03T07:31:43Z</time>
      </trkpt>
      <trkpt lat="45.75911" lon="1.91732">
        <ele>642.8</ele>
        <time>2022-08-03T07:31:45Z</time>
      </trkpt>
      <trkpt lat="45.75907" lon="1.91731">
        <ele>643.1</ele>
        <time>2022-08-03T07:31:47Z</time>
      </trkpt>
      <trkpt lat="45.75903" lon="1.91731">
        <ele>643.4</ele>
        <time>2022-08-03T07:31:49Z</time>
      </trkpt>
      <trkpt lat="45.75898" lon="1.91728">
        <ele>643.8</ele>
        <time>2022-08-03T07:31:51Z</time>
      </trkpt>
      <trkpt lat="45.75895" lon="1.91725">
        <ele>644.2</ele>
        <time>2022-08-03T07:31:53Z</time>
      </trkpt>
      <trkpt lat="45.75892" lon="1.9172">
        <ele>644.5</ele>
        <time>2022-08-03T07:31:55Z</time>
      </trkpt>
      <trkpt lat="45.75888" lon="1.91715">
        <ele>644.9</ele>
        <time>2022-08-03T07:31:57Z</time>
      </trkpt>
      <trkpt lat="45.75884" lon="1.9171">
        <ele>645.2</ele>
        <time>2022-08-03T07:31:59Z</time>
      </trkpt>
      <trkpt lat="45.75879" lon="1.91706">
        <ele>645.5</ele>
        <time>2022-08-03T07:32:01Z</time>
      </trkpt>
      <trkpt lat="45.75874" lon="1.91702">
        <ele>645.7</ele>
        <time>2022-08-03T07:32:03Z</time>
      </trkpt>
      <trkpt lat="45.75868" lon="1.91698">
        <ele>645.8</ele>
        <time>2022-08-03T07:32:05Z</time>
      </trkpt>
      <trkpt lat="45.75865" lon="1.91696">
        <ele>645.9</ele>
        <time>2022-08-03T07:32:07Z</time>
      </trkpt>
      <trkpt lat="45.75866" lon="1.91697">
        <ele>645.8</ele>
        <time>2022-08-03T07:32:09Z</time>
      </trkpt>
      <trkpt lat="45.75866" lon="1.91697">
        <ele>645.8</ele>
        <time>2022-08-03T07:32:11Z</time>
      </trkpt>
      <trkpt lat="45.75866" lon="1.91696">
        <ele>645.8</ele>
        <time>2022-08-03T07:32:15Z</time>
      </trkpt>
      <trkpt lat="45.75857" lon="1.91702">
        <ele>645.9</ele>
        <time>2022-08-03T07:35:25Z</time>
      </trkpt>
      <trkpt lat="45.75853" lon="1.91701">
        <ele>646</ele>
        <time>2022-08-03T07:35:27Z</time>
      </trkpt>
      <trkpt lat="45.75849" lon="1.91701">
        <ele>646</ele>
        <time>2022-08-03T07:35:29Z</time>
      </trkpt>
      <trkpt lat="45.75844" lon="1.91701">
        <ele>646.1</ele>
        <time>2022-08-03T07:35:31Z</time>
      </trkpt>
      <trkpt lat="45.7584" lon="1.917">
        <ele>646.1</ele>
        <time>2022-08-03T07:35:33Z</time>
      </trkpt>
      <trkpt lat="45.75835" lon="1.91701">
        <ele>646.2</ele>
        <time>2022-08-03T07:35:35Z</time>
      </trkpt>
      <trkpt lat="45.75831" lon="1.91707">
        <ele>646.7</ele>
        <time>2022-08-03T07:35:37Z</time>
      </trkpt>
      <trkpt lat="45.75829" lon="1.91713">
        <ele>647.2</ele>
        <time>2022-08-03T07:35:39Z</time>
      </trkpt>
      <trkpt lat="45.75827" lon="1.91717">
        <ele>647.7</ele>
        <time>2022-08-03T07:35:41Z</time>
      </trkpt>
      <trkpt lat="45.75827" lon="1.9172">
        <ele>647.8</ele>
        <time>2022-08-03T07:35:43Z</time>
      </trkpt>
      <trkpt lat="45.75827" lon="1.91723">
        <ele>647.9</ele>
        <time>2022-08-03T07:35:45Z</time>
      </trkpt>
      <trkpt lat="45.75827" lon="1.91725">
        <ele>648</ele>
        <time>2022-08-03T07:35:47Z</time>
      </trkpt>
      <trkpt lat="45.75829" lon="1.91725">
        <ele>647.7</ele>
        <time>2022-08-03T07:35:49Z</time>
      </trkpt>
      <trkpt lat="45.75829" lon="1.91725">
        <ele>647.7</ele>
        <time>2022-08-03T07:35:51Z</time>
      </trkpt>
      <trkpt lat="45.75828" lon="1.91732">
        <ele>648.1</ele>
        <time>2022-08-03T07:36:07Z</time>
      </trkpt>
      <trkpt lat="45.75826" lon="1.91737">
        <ele>648.7</ele>
        <time>2022-08-03T07:36:09Z</time>
      </trkpt>
      <trkpt lat="45.75824" lon="1.91742">
        <ele>649.2</ele>
        <time>2022-08-03T07:36:11Z</time>
      </trkpt>
      <trkpt lat="45.75824" lon="1.91749">
        <ele>649.6</ele>
        <time>2022-08-03T07:36:13Z</time>
      </trkpt>
      <trkpt lat="45.75823" lon="1.91754">
        <ele>650.1</ele>
        <time>2022-08-03T07:36:15Z</time>
      </trkpt>
      <trkpt lat="45.75824" lon="1.91761">
        <ele>650.6</ele>
        <time>2022-08-03T07:36:17Z</time>
      </trkpt>
      <trkpt lat="45.75824" lon="1.91767">
        <ele>651.1</ele>
        <time>2022-08-03T07:36:19Z</time>
      </trkpt>
      <trkpt lat="45.75825" lon="1.91773">
        <ele>651.7</ele>
        <time>2022-08-03T07:36:21Z</time>
      </trkpt>
      <trkpt lat="45.75826" lon="1.91779">
        <ele>652</ele>
        <time>2022-08-03T07:36:23Z</time>
      </trkpt>
      <trkpt lat="45.75827" lon="1.91786">
        <ele>652.5</ele>
        <time>2022-08-03T07:36:25Z</time>
      </trkpt>
      <trkpt lat="45.75827" lon="1.91792">
        <ele>653</ele>
        <time>2022-08-03T07:36:27Z</time>
      </trkpt>
      <trkpt lat="45.75828" lon="1.91798">
        <ele>653.5</ele>
        <time>2022-08-03T07:36:29Z</time>
      </trkpt>
      <trkpt lat="45.75828" lon="1.91805">
        <ele>654.1</ele>
        <time>2022-08-03T07:36:31Z</time>
      </trkpt>
      <trkpt lat="45.75828" lon="1.91811">
        <ele>654.8</ele>
        <time>2022-08-03T07:36:33Z</time>
      </trkpt>
      <trkpt lat="45.75827" lon="1.91818">
        <ele>655.6</ele>
        <time>2022-08-03T07:36:35Z</time>
      </trkpt>
      <trkpt lat="45.75827" lon="1.91824">
        <ele>656.2</ele>
        <time>2022-08-03T07:36:37Z</time>
      </trkpt>
      <trkpt lat="45.75827" lon="1.9183">
        <ele>656.8</ele>
        <time>2022-08-03T07:36:39Z</time>
      </trkpt>
      <trkpt lat="45.75826" lon="1.91836">
        <ele>657.3</ele>
        <time>2022-08-03T07:36:41Z</time>
      </trkpt>
      <trkpt lat="45.75826" lon="1.91841">
        <ele>657.7</ele>
        <time>2022-08-03T07:36:43Z</time>
      </trkpt>
      <trkpt lat="45.75827" lon="1.91847">
        <ele>658</ele>
        <time>2022-08-03T07:36:45Z</time>
      </trkpt>
      <trkpt lat="45.75827" lon="1.91853">
        <ele>658.2</ele>
        <time>2022-08-03T07:36:47Z</time>
      </trkpt>
      <trkpt lat="45.75828" lon="1.91858">
        <ele>658.4</ele>
        <time>2022-08-03T07:36:49Z</time>
      </trkpt>
      <trkpt lat="45.75828" lon="1.91864">
        <ele>658.8</ele>
        <time>2022-08-03T07:36:51Z</time>
      </trkpt>
      <trkpt lat="45.7583" lon="1.9187">
        <ele>658.9</ele>
        <time>2022-08-03T07:36:53Z</time>
      </trkpt>
      <trkpt lat="45.75832" lon="1.91876">
        <ele>658.9</ele>
        <time>2022-08-03T07:36:55Z</time>
      </trkpt>
      <trkpt lat="45.75833" lon="1.91883">
        <ele>659</ele>
        <time>2022-08-03T07:36:57Z</time>
      </trkpt>
      <trkpt lat="45.75836" lon="1.91889">
        <ele>658.7</ele>
        <time>2022-08-03T07:36:59Z</time>
      </trkpt>
      <trkpt lat="45.75839" lon="1.91897">
        <ele>658.5</ele>
        <time>2022-08-03T07:37:01Z</time>
      </trkpt>
      <trkpt lat="45.75843" lon="1.91903">
        <ele>658.1</ele>
        <time>2022-08-03T07:37:03Z</time>
      </trkpt>
      <trkpt lat="45.75845" lon="1.91911">
        <ele>658</ele>
        <time>2022-08-03T07:37:05Z</time>
      </trkpt>
      <trkpt lat="45.75847" lon="1.91919">
        <ele>657.8</ele>
        <time>2022-08-03T07:37:07Z</time>
      </trkpt>
      <trkpt lat="45.75849" lon="1.91929">
        <ele>657.3</ele>
        <time>2022-08-03T07:37:09Z</time>
      </trkpt>
      <trkpt lat="45.75849" lon="1.91937">
        <ele>657.2</ele>
        <time>2022-08-03T07:37:11Z</time>
      </trkpt>
      <trkpt lat="45.75851" lon="1.91943">
        <ele>656.7</ele>
        <time>2022-08-03T07:37:13Z</time>
      </trkpt>
      <trkpt lat="45.75853" lon="1.91952">
        <ele>656.3</ele>
        <time>2022-08-03T07:37:15Z</time>
      </trkpt>
      <trkpt lat="45.75854" lon="1.91959">
        <ele>656</ele>
        <time>2022-08-03T07:37:17Z</time>
      </trkpt>
      <trkpt lat="45.75856" lon="1.91967">
        <ele>655.5</ele>
        <time>2022-08-03T07:37:19Z</time>
      </trkpt>
      <trkpt lat="45.75859" lon="1.91975">
        <ele>655</ele>
        <time>2022-08-03T07:37:21Z</time>
      </trkpt>
      <trkpt lat="45.75863" lon="1.91985">
        <ele>654.4</ele>
        <time>2022-08-03T07:37:23Z</time>
      </trkpt>
      <trkpt lat="45.75866" lon="1.91993">
        <ele>654</ele>
        <time>2022-08-03T07:37:25Z</time>
      </trkpt>
      <trkpt lat="45.7587" lon="1.92003">
        <ele>653.3</ele>
        <time>2022-08-03T07:37:27Z</time>
      </trkpt>
      <trkpt lat="45.75872" lon="1.92012">
        <ele>652.8</ele>
        <time>2022-08-03T07:37:29Z</time>
      </trkpt>
      <trkpt lat="45.75873" lon="1.92021">
        <ele>652.6</ele>
        <time>2022-08-03T07:37:31Z</time>
      </trkpt>
      <trkpt lat="45.75875" lon="1.9203">
        <ele>652.4</ele>
        <time>2022-08-03T07:37:33Z</time>
      </trkpt>
      <trkpt lat="45.75879" lon="1.92039">
        <ele>651.9</ele>
        <time>2022-08-03T07:37:35Z</time>
      </trkpt>
      <trkpt lat="45.75885" lon="1.92045">
        <ele>651.4</ele>
        <time>2022-08-03T07:37:37Z</time>
      </trkpt>
      <trkpt lat="45.75892" lon="1.92045">
        <ele>650.8</ele>
        <time>2022-08-03T07:37:39Z</time>
      </trkpt>
      <trkpt lat="45.75896" lon="1.92043">
        <ele>650.4</ele>
        <time>2022-08-03T07:37:41Z</time>
      </trkpt>
      <trkpt lat="45.75901" lon="1.92039">
        <ele>649.8</ele>
        <time>2022-08-03T07:37:43Z</time>
      </trkpt>
      <trkpt lat="45.75904" lon="1.92037">
        <ele>649.4</ele>
        <time>2022-08-03T07:37:45Z</time>
      </trkpt>
      <trkpt lat="45.75908" lon="1.92028">
        <ele>648.6</ele>
        <time>2022-08-03T07:37:47Z</time>
      </trkpt>
      <trkpt lat="45.7591" lon="1.92021">
        <ele>648.1</ele>
        <time>2022-08-03T07:37:49Z</time>
      </trkpt>
      <trkpt lat="45.75912" lon="1.92015">
        <ele>647.5</ele>
        <time>2022-08-03T07:37:51Z</time>
      </trkpt>
      <trkpt lat="45.75912" lon="1.92009">
        <ele>647.2</ele>
        <time>2022-08-03T07:37:53Z</time>
      </trkpt>
      <trkpt lat="45.75916" lon="1.92005">
        <ele>646.5</ele>
        <time>2022-08-03T07:37:55Z</time>
      </trkpt>
      <trkpt lat="45.75918" lon="1.92001">
        <ele>646.3</ele>
        <time>2022-08-03T07:37:57Z</time>
      </trkpt>
      <trkpt lat="45.7592" lon="1.92">
        <ele>646.9</ele>
        <time>2022-08-03T07:37:59Z</time>
      </trkpt>
      <trkpt lat="45.75922" lon="1.91999">
        <ele>647.2</ele>
        <time>2022-08-03T07:38:01Z</time>
      </trkpt>
      <trkpt lat="45.75922" lon="1.91999">
        <ele>647.3</ele>
        <time>2022-08-03T07:38:03Z</time>
      </trkpt>
      <trkpt lat="45.75922" lon="1.91999">
        <ele>647.2</ele>
        <time>2022-08-03T07:38:05Z</time>
      </trkpt>
      <trkpt lat="45.75921" lon="1.91998">
        <ele>647.1</ele>
        <time>2022-08-03T07:38:07Z</time>
      </trkpt>
      <trkpt lat="45.75921" lon="1.91997">
        <ele>647</ele>
        <time>2022-08-03T07:38:09Z</time>
      </trkpt>
      <trkpt lat="45.75904" lon="1.92028">
        <ele>649.1</ele>
        <time>2022-08-03T07:39:09Z</time>
      </trkpt>
      <trkpt lat="45.75903" lon="1.92033">
        <ele>649.4</ele>
        <time>2022-08-03T07:39:11Z</time>
      </trkpt>
      <trkpt lat="45.75902" lon="1.92038">
        <ele>649.7</ele>
        <time>2022-08-03T07:39:13Z</time>
      </trkpt>
      <trkpt lat="45.75899" lon="1.9204">
        <ele>650</ele>
        <time>2022-08-03T07:39:15Z</time>
      </trkpt>
      <trkpt lat="45.75896" lon="1.92043">
        <ele>650.4</ele>
        <time>2022-08-03T07:39:17Z</time>
      </trkpt>
      <trkpt lat="45.75891" lon="1.92045">
        <ele>650.8</ele>
        <time>2022-08-03T07:39:19Z</time>
      </trkpt>
      <trkpt lat="45.75888" lon="1.92047">
        <ele>651.1</ele>
        <time>2022-08-03T07:39:21Z</time>
      </trkpt>
      <trkpt lat="45.75885" lon="1.92048">
        <ele>651.4</ele>
        <time>2022-08-03T07:39:23Z</time>
      </trkpt>
      <trkpt lat="45.75882" lon="1.92048">
        <ele>651.6</ele>
        <time>2022-08-03T07:39:25Z</time>
      </trkpt>
      <trkpt lat="45.75878" lon="1.92045">
        <ele>651.9</ele>
        <time>2022-08-03T07:39:27Z</time>
      </trkpt>
      <trkpt lat="45.75877" lon="1.92042">
        <ele>652.1</ele>
        <time>2022-08-03T07:39:29Z</time>
      </trkpt>
      <trkpt lat="45.75875" lon="1.92038">
        <ele>652.3</ele>
        <time>2022-08-03T07:39:31Z</time>
      </trkpt>
      <trkpt lat="45.75874" lon="1.92034">
        <ele>652.4</ele>
        <time>2022-08-03T07:39:33Z</time>
      </trkpt>
      <trkpt lat="45.75872" lon="1.92028">
        <ele>652.7</ele>
        <time>2022-08-03T07:39:35Z</time>
      </trkpt>
      <trkpt lat="45.75872" lon="1.92023">
        <ele>652.8</ele>
        <time>2022-08-03T07:39:37Z</time>
      </trkpt>
      <trkpt lat="45.75871" lon="1.92019">
        <ele>652.9</ele>
        <time>2022-08-03T07:39:39Z</time>
      </trkpt>
      <trkpt lat="45.7587" lon="1.92012">
        <ele>653.1</ele>
        <time>2022-08-03T07:39:41Z</time>
      </trkpt>
      <trkpt lat="45.75868" lon="1.92009">
        <ele>653.5</ele>
        <time>2022-08-03T07:39:43Z</time>
      </trkpt>
      <trkpt lat="45.75867" lon="1.92004">
        <ele>653.6</ele>
        <time>2022-08-03T07:39:45Z</time>
      </trkpt>
      <trkpt lat="45.75866" lon="1.92">
        <ele>653.9</ele>
        <time>2022-08-03T07:39:47Z</time>
      </trkpt>
      <trkpt lat="45.75864" lon="1.91996">
        <ele>654.2</ele>
        <time>2022-08-03T07:39:49Z</time>
      </trkpt>
      <trkpt lat="45.75862" lon="1.91994">
        <ele>654.5</ele>
        <time>2022-08-03T07:39:51Z</time>
      </trkpt>
      <trkpt lat="45.75859" lon="1.91988">
        <ele>654.9</ele>
        <time>2022-08-03T07:39:53Z</time>
      </trkpt>
      <trkpt lat="45.75857" lon="1.91983">
        <ele>655.4</ele>
        <time>2022-08-03T07:39:55Z</time>
      </trkpt>
      <trkpt lat="45.75855" lon="1.91979">
        <ele>655.7</ele>
        <time>2022-08-03T07:39:57Z</time>
      </trkpt>
      <trkpt lat="45.75855" lon="1.91975">
        <ele>655.8</ele>
        <time>2022-08-03T07:39:59Z</time>
      </trkpt>
      <trkpt lat="45.75854" lon="1.9197">
        <ele>656</ele>
        <time>2022-08-03T07:40:01Z</time>
      </trkpt>
      <trkpt lat="45.75852" lon="1.91965">
        <ele>656.4</ele>
        <time>2022-08-03T07:40:03Z</time>
      </trkpt>
      <trkpt lat="45.7585" lon="1.91961">
        <ele>656.8</ele>
        <time>2022-08-03T07:40:05Z</time>
      </trkpt>
      <trkpt lat="45.75848" lon="1.91956">
        <ele>657.2</ele>
        <time>2022-08-03T07:40:07Z</time>
      </trkpt>
      <trkpt lat="45.75846" lon="1.9195">
        <ele>657.6</ele>
        <time>2022-08-03T07:40:09Z</time>
      </trkpt>
      <trkpt lat="45.75845" lon="1.91946">
        <ele>657.9</ele>
        <time>2022-08-03T07:40:11Z</time>
      </trkpt>
      <trkpt lat="45.75844" lon="1.9194">
        <ele>658.3</ele>
        <time>2022-08-03T07:40:13Z</time>
      </trkpt>
      <trkpt lat="45.75843" lon="1.91934">
        <ele>658.6</ele>
        <time>2022-08-03T07:40:15Z</time>
      </trkpt>
      <trkpt lat="45.75842" lon="1.91928">
        <ele>658.9</ele>
        <time>2022-08-03T07:40:17Z</time>
      </trkpt>
      <trkpt lat="45.7584" lon="1.9192">
        <ele>659.5</ele>
        <time>2022-08-03T07:40:19Z</time>
      </trkpt>
      <trkpt lat="45.75838" lon="1.91915">
        <ele>659.8</ele>
        <time>2022-08-03T07:40:21Z</time>
      </trkpt>
      <trkpt lat="45.75836" lon="1.91909">
        <ele>659.9</ele>
        <time>2022-08-03T07:40:23Z</time>
      </trkpt>
      <trkpt lat="45.75834" lon="1.91904">
        <ele>660</ele>
        <time>2022-08-03T07:40:25Z</time>
      </trkpt>
      <trkpt lat="45.75831" lon="1.91898">
        <ele>660.3</ele>
        <time>2022-08-03T07:40:27Z</time>
      </trkpt>
      <trkpt lat="45.75829" lon="1.91893">
        <ele>660.4</ele>
        <time>2022-08-03T07:40:29Z</time>
      </trkpt>
      <trkpt lat="45.75826" lon="1.91888">
        <ele>660.5</ele>
        <time>2022-08-03T07:40:31Z</time>
      </trkpt>
      <trkpt lat="45.75825" lon="1.91884">
        <ele>660.5</ele>
        <time>2022-08-03T07:40:33Z</time>
      </trkpt>
      <trkpt lat="45.75823" lon="1.91879">
        <ele>660.6</ele>
        <time>2022-08-03T07:40:35Z</time>
      </trkpt>
      <trkpt lat="45.75822" lon="1.91875">
        <ele>660.5</ele>
        <time>2022-08-03T07:40:37Z</time>
      </trkpt>
      <trkpt lat="45.7582" lon="1.91869">
        <ele>660.4</ele>
        <time>2022-08-03T07:40:39Z</time>
      </trkpt>
      <trkpt lat="45.7582" lon="1.91862">
        <ele>660.1</ele>
        <time>2022-08-03T07:40:41Z</time>
      </trkpt>
      <trkpt lat="45.75819" lon="1.91856">
        <ele>659.8</ele>
        <time>2022-08-03T07:40:43Z</time>
      </trkpt>
      <trkpt lat="45.75819" lon="1.91848">
        <ele>659.3</ele>
        <time>2022-08-03T07:40:45Z</time>
      </trkpt>
      <trkpt lat="45.75819" lon="1.91841">
        <ele>658.9</ele>
        <time>2022-08-03T07:40:47Z</time>
      </trkpt>
      <trkpt lat="45.75821" lon="1.91832">
        <ele>658</ele>
        <time>2022-08-03T07:40:49Z</time>
      </trkpt>
      <trkpt lat="45.75822" lon="1.91822">
        <ele>656.8</ele>
        <time>2022-08-03T07:40:51Z</time>
      </trkpt>
      <trkpt lat="45.75823" lon="1.91812">
        <ele>655.7</ele>
        <time>2022-08-03T07:40:53Z</time>
      </trkpt>
      <trkpt lat="45.75822" lon="1.918">
        <ele>654.6</ele>
        <time>2022-08-03T07:40:55Z</time>
      </trkpt>
      <trkpt lat="45.75822" lon="1.91788">
        <ele>653.6</ele>
        <time>2022-08-03T07:40:57Z</time>
      </trkpt>
      <trkpt lat="45.75821" lon="1.91778">
        <ele>652.7</ele>
        <time>2022-08-03T07:40:59Z</time>
      </trkpt>
      <trkpt lat="45.75821" lon="1.91764">
        <ele>651.5</ele>
        <time>2022-08-03T07:41:01Z</time>
      </trkpt>
      <trkpt lat="45.75821" lon="1.91754">
        <ele>650.4</ele>
        <time>2022-08-03T07:41:03Z</time>
      </trkpt>
      <trkpt lat="45.75821" lon="1.91743">
        <ele>649.7</ele>
        <time>2022-08-03T07:41:05Z</time>
      </trkpt>
      <trkpt lat="45.75823" lon="1.9173">
        <ele>648.8</ele>
        <time>2022-08-03T07:41:07Z</time>
      </trkpt>
      <trkpt lat="45.75826" lon="1.9172">
        <ele>647.9</ele>
        <time>2022-08-03T07:41:09Z</time>
      </trkpt>
      <trkpt lat="45.75828" lon="1.91711">
        <ele>647.3</ele>
        <time>2022-08-03T07:41:11Z</time>
      </trkpt>
      <trkpt lat="45.7583" lon="1.91707">
        <ele>646.9</ele>
        <time>2022-08-03T07:41:13Z</time>
      </trkpt>
      <trkpt lat="45.75831" lon="1.91702">
        <ele>646.6</ele>
        <time>2022-08-03T07:41:15Z</time>
      </trkpt>
      <trkpt lat="45.75829" lon="1.91698">
        <ele>646.6</ele>
        <time>2022-08-03T07:41:17Z</time>
      </trkpt>
      <trkpt lat="45.75826" lon="1.91696">
        <ele>646.9</ele>
        <time>2022-08-03T07:41:19Z</time>
      </trkpt>
      <trkpt lat="45.75822" lon="1.91697">
        <ele>647.3</ele>
        <time>2022-08-03T07:41:21Z</time>
      </trkpt>
      <trkpt lat="45.75818" lon="1.91696">
        <ele>647.8</ele>
        <time>2022-08-03T07:41:23Z</time>
      </trkpt>
      <trkpt lat="45.75814" lon="1.91696">
        <ele>648.2</ele>
        <time>2022-08-03T07:41:25Z</time>
      </trkpt>
      <trkpt lat="45.75811" lon="1.91697">
        <ele>648.7</ele>
        <time>2022-08-03T07:41:27Z</time>
      </trkpt>
      <trkpt lat="45.75807" lon="1.91698">
        <ele>649.2</ele>
        <time>2022-08-03T07:41:29Z</time>
      </trkpt>
      <trkpt lat="45.75804" lon="1.91698">
        <ele>649.6</ele>
        <time>2022-08-03T07:41:31Z</time>
      </trkpt>
      <trkpt lat="45.758" lon="1.91698">
        <ele>650</ele>
        <time>2022-08-03T07:41:33Z</time>
      </trkpt>
      <trkpt lat="45.75795" lon="1.91698">
        <ele>650.5</ele>
        <time>2022-08-03T07:41:35Z</time>
      </trkpt>
      <trkpt lat="45.75791" lon="1.91699">
        <ele>651.1</ele>
        <time>2022-08-03T07:41:37Z</time>
      </trkpt>
      <trkpt lat="45.75787" lon="1.91699">
        <ele>651.5</ele>
        <time>2022-08-03T07:41:39Z</time>
      </trkpt>
      <trkpt lat="45.75783" lon="1.91699">
        <ele>652</ele>
        <time>2022-08-03T07:41:41Z</time>
      </trkpt>
      <trkpt lat="45.7578" lon="1.917">
        <ele>652.5</ele>
        <time>2022-08-03T07:41:43Z</time>
      </trkpt>
      <trkpt lat="45.75775" lon="1.91698">
        <ele>652.8</ele>
        <time>2022-08-03T07:41:45Z</time>
      </trkpt>
      <trkpt lat="45.75771" lon="1.91699">
        <ele>653.5</ele>
        <time>2022-08-03T07:41:47Z</time>
      </trkpt>
      <trkpt lat="45.75767" lon="1.917">
        <ele>654</ele>
        <time>2022-08-03T07:41:49Z</time>
      </trkpt>
      <trkpt lat="45.75763" lon="1.917">
        <ele>654.5</ele>
        <time>2022-08-03T07:41:51Z</time>
      </trkpt>
      <trkpt lat="45.75758" lon="1.91703">
        <ele>655.3</ele>
        <time>2022-08-03T07:41:53Z</time>
      </trkpt>
      <trkpt lat="45.75755" lon="1.91704">
        <ele>655.8</ele>
        <time>2022-08-03T07:41:55Z</time>
      </trkpt>
      <trkpt lat="45.75752" lon="1.91704">
        <ele>656.3</ele>
        <time>2022-08-03T07:41:57Z</time>
      </trkpt>
      <trkpt lat="45.75747" lon="1.91705">
        <ele>657.1</ele>
        <time>2022-08-03T07:41:59Z</time>
      </trkpt>
      <trkpt lat="45.75744" lon="1.91707">
        <ele>657.7</ele>
        <time>2022-08-03T07:42:01Z</time>
      </trkpt>
      <trkpt lat="45.7574" lon="1.91707">
        <ele>658.2</ele>
        <time>2022-08-03T07:42:03Z</time>
      </trkpt>
      <trkpt lat="45.75736" lon="1.91707">
        <ele>658.7</ele>
        <time>2022-08-03T07:42:05Z</time>
      </trkpt>
      <trkpt lat="45.75732" lon="1.91707">
        <ele>659.3</ele>
        <time>2022-08-03T07:42:07Z</time>
      </trkpt>
      <trkpt lat="45.75728" lon="1.91706">
        <ele>659.7</ele>
        <time>2022-08-03T07:42:09Z</time>
      </trkpt>
      <trkpt lat="45.75724" lon="1.91705">
        <ele>660.2</ele>
        <time>2022-08-03T07:42:11Z</time>
      </trkpt>
      <trkpt lat="45.7572" lon="1.91704">
        <ele>660.6</ele>
        <time>2022-08-03T07:42:13Z</time>
      </trkpt>
      <trkpt lat="45.75716" lon="1.91702">
        <ele>660.9</ele>
        <time>2022-08-03T07:42:15Z</time>
      </trkpt>
      <trkpt lat="45.75712" lon="1.91699">
        <ele>661.1</ele>
        <time>2022-08-03T07:42:17Z</time>
      </trkpt>
      <trkpt lat="45.7571" lon="1.91696">
        <ele>661.3</ele>
        <time>2022-08-03T07:42:19Z</time>
      </trkpt>
      <trkpt lat="45.75706" lon="1.91693">
        <ele>661.6</ele>
        <time>2022-08-03T07:42:21Z</time>
      </trkpt>
      <trkpt lat="45.75703" lon="1.91688">
        <ele>661.6</ele>
        <time>2022-08-03T07:42:23Z</time>
      </trkpt>
      <trkpt lat="45.757" lon="1.91684">
        <ele>661.8</ele>
        <time>2022-08-03T07:42:25Z</time>
      </trkpt>
      <trkpt lat="45.75697" lon="1.91679">
        <ele>661.8</ele>
        <time>2022-08-03T07:42:27Z</time>
      </trkpt>
      <trkpt lat="45.75694" lon="1.91674">
        <ele>661.9</ele>
        <time>2022-08-03T07:42:29Z</time>
      </trkpt>
      <trkpt lat="45.75691" lon="1.9167">
        <ele>662.2</ele>
        <time>2022-08-03T07:42:31Z</time>
      </trkpt>
      <trkpt lat="45.75689" lon="1.91666">
        <ele>662.2</ele>
        <time>2022-08-03T07:42:33Z</time>
      </trkpt>
      <trkpt lat="45.75686" lon="1.91661">
        <ele>662.5</ele>
        <time>2022-08-03T07:42:35Z</time>
      </trkpt>
      <trkpt lat="45.75684" lon="1.91656">
        <ele>662.6</ele>
        <time>2022-08-03T07:42:37Z</time>
      </trkpt>
      <trkpt lat="45.75682" lon="1.9165">
        <ele>662.7</ele>
        <time>2022-08-03T07:42:39Z</time>
      </trkpt>
      <trkpt lat="45.75679" lon="1.91647">
        <ele>662.9</ele>
        <time>2022-08-03T07:42:41Z</time>
      </trkpt>
      <trkpt lat="45.75677" lon="1.91643">
        <ele>663</ele>
        <time>2022-08-03T07:42:43Z</time>
      </trkpt>
      <trkpt lat="45.75675" lon="1.91641">
        <ele>663.3</ele>
        <time>2022-08-03T07:42:45Z</time>
      </trkpt>
      <trkpt lat="45.75674" lon="1.91636">
        <ele>663.2</ele>
        <time>2022-08-03T07:42:47Z</time>
      </trkpt>
      <trkpt lat="45.75671" lon="1.91631">
        <ele>663.3</ele>
        <time>2022-08-03T07:42:49Z</time>
      </trkpt>
      <trkpt lat="45.75669" lon="1.91628">
        <ele>663.4</ele>
        <time>2022-08-03T07:42:51Z</time>
      </trkpt>
      <trkpt lat="45.75668" lon="1.91623">
        <ele>663.2</ele>
        <time>2022-08-03T07:42:53Z</time>
      </trkpt>
      <trkpt lat="45.75665" lon="1.9162">
        <ele>663.4</ele>
        <time>2022-08-03T07:42:55Z</time>
      </trkpt>
      <trkpt lat="45.75663" lon="1.91617">
        <ele>663.3</ele>
        <time>2022-08-03T07:42:57Z</time>
      </trkpt>
      <trkpt lat="45.75659" lon="1.91615">
        <ele>663.4</ele>
        <time>2022-08-03T07:42:59Z</time>
      </trkpt>
      <trkpt lat="45.75657" lon="1.91613">
        <ele>663.5</ele>
        <time>2022-08-03T07:43:01Z</time>
      </trkpt>
      <trkpt lat="45.75654" lon="1.9161">
        <ele>663.5</ele>
        <time>2022-08-03T07:43:03Z</time>
      </trkpt>
      <trkpt lat="45.75651" lon="1.91607">
        <ele>663.5</ele>
        <time>2022-08-03T07:43:05Z</time>
      </trkpt>
      <trkpt lat="45.75649" lon="1.91604">
        <ele>663.4</ele>
        <time>2022-08-03T07:43:07Z</time>
      </trkpt>
      <trkpt lat="45.75646" lon="1.91601">
        <ele>663.5</ele>
        <time>2022-08-03T07:43:09Z</time>
      </trkpt>
      <trkpt lat="45.75643" lon="1.916">
        <ele>663.6</ele>
        <time>2022-08-03T07:43:11Z</time>
      </trkpt>
      <trkpt lat="45.7564" lon="1.91598">
        <ele>663.7</ele>
        <time>2022-08-03T07:43:13Z</time>
      </trkpt>
      <trkpt lat="45.75638" lon="1.91595">
        <ele>663.8</ele>
        <time>2022-08-03T07:43:15Z</time>
      </trkpt>
      <trkpt lat="45.75635" lon="1.91595">
        <ele>663.9</ele>
        <time>2022-08-03T07:43:17Z</time>
      </trkpt>
      <trkpt lat="45.75632" lon="1.91594">
        <ele>664.1</ele>
        <time>2022-08-03T07:43:19Z</time>
      </trkpt>
      <trkpt lat="45.75628" lon="1.91594">
        <ele>664.4</ele>
        <time>2022-08-03T07:43:21Z</time>
      </trkpt>
      <trkpt lat="45.75625" lon="1.91594">
        <ele>664.6</ele>
        <time>2022-08-03T07:43:23Z</time>
      </trkpt>
      <trkpt lat="45.75621" lon="1.91593">
        <ele>664.8</ele>
        <time>2022-08-03T07:43:25Z</time>
      </trkpt>
      <trkpt lat="45.75618" lon="1.91593">
        <ele>665</ele>
        <time>2022-08-03T07:43:27Z</time>
      </trkpt>
      <trkpt lat="45.75614" lon="1.91594">
        <ele>665.3</ele>
        <time>2022-08-03T07:43:29Z</time>
      </trkpt>
      <trkpt lat="45.75611" lon="1.91595">
        <ele>665.6</ele>
        <time>2022-08-03T07:43:31Z</time>
      </trkpt>
      <trkpt lat="45.75608" lon="1.91596">
        <ele>665.9</ele>
        <time>2022-08-03T07:43:33Z</time>
      </trkpt>
      <trkpt lat="45.75605" lon="1.91598">
        <ele>666.2</ele>
        <time>2022-08-03T07:43:35Z</time>
      </trkpt>
      <trkpt lat="45.75602" lon="1.91601">
        <ele>666.5</ele>
        <time>2022-08-03T07:43:37Z</time>
      </trkpt>
      <trkpt lat="45.75599" lon="1.91601">
        <ele>666.8</ele>
        <time>2022-08-03T07:43:39Z</time>
      </trkpt>
      <trkpt lat="45.75596" lon="1.91602">
        <ele>667.1</ele>
        <time>2022-08-03T07:43:41Z</time>
      </trkpt>
      <trkpt lat="45.75593" lon="1.91607">
        <ele>667.4</ele>
        <time>2022-08-03T07:43:43Z</time>
      </trkpt>
      <trkpt lat="45.75592" lon="1.91611">
        <ele>667.8</ele>
        <time>2022-08-03T07:43:45Z</time>
      </trkpt>
      <trkpt lat="45.7559" lon="1.91614">
        <ele>668</ele>
        <time>2022-08-03T07:43:47Z</time>
      </trkpt>
      <trkpt lat="45.75591" lon="1.91618">
        <ele>668.2</ele>
        <time>2022-08-03T07:43:49Z</time>
      </trkpt>
      <trkpt lat="45.75593" lon="1.91622">
        <ele>668.2</ele>
        <time>2022-08-03T07:43:51Z</time>
      </trkpt>
      <trkpt lat="45.75594" lon="1.91626">
        <ele>668.4</ele>
        <time>2022-08-03T07:43:53Z</time>
      </trkpt>
      <trkpt lat="45.75595" lon="1.91629">
        <ele>668.4</ele>
        <time>2022-08-03T07:43:55Z</time>
      </trkpt>
      <trkpt lat="45.75597" lon="1.91633">
        <ele>668.5</ele>
        <time>2022-08-03T07:43:57Z</time>
      </trkpt>
      <trkpt lat="45.75597" lon="1.91637">
        <ele>668.7</ele>
        <time>2022-08-03T07:43:59Z</time>
      </trkpt>
      <trkpt lat="45.75598" lon="1.91642">
        <ele>668.9</ele>
        <time>2022-08-03T07:44:01Z</time>
      </trkpt>
      <trkpt lat="45.75598" lon="1.91645">
        <ele>669</ele>
        <time>2022-08-03T07:44:03Z</time>
      </trkpt>
      <trkpt lat="45.75599" lon="1.91649">
        <ele>669.2</ele>
        <time>2022-08-03T07:44:05Z</time>
      </trkpt>
      <trkpt lat="45.756" lon="1.91653">
        <ele>669.3</ele>
        <time>2022-08-03T07:44:07Z</time>
      </trkpt>
      <trkpt lat="45.75601" lon="1.91657">
        <ele>669.5</ele>
        <time>2022-08-03T07:44:09Z</time>
      </trkpt>
      <trkpt lat="45.75602" lon="1.91661">
        <ele>669.6</ele>
        <time>2022-08-03T07:44:11Z</time>
      </trkpt>
      <trkpt lat="45.75603" lon="1.91666">
        <ele>669.8</ele>
        <time>2022-08-03T07:44:13Z</time>
      </trkpt>
      <trkpt lat="45.75604" lon="1.91669">
        <ele>670</ele>
        <time>2022-08-03T07:44:15Z</time>
      </trkpt>
      <trkpt lat="45.75604" lon="1.91674">
        <ele>670.3</ele>
        <time>2022-08-03T07:44:17Z</time>
      </trkpt>
      <trkpt lat="45.75604" lon="1.91678">
        <ele>670.6</ele>
        <time>2022-08-03T07:44:19Z</time>
      </trkpt>
      <trkpt lat="45.75603" lon="1.91682">
        <ele>671</ele>
        <time>2022-08-03T07:44:21Z</time>
      </trkpt>
      <trkpt lat="45.75602" lon="1.91686">
        <ele>671.3</ele>
        <time>2022-08-03T07:44:23Z</time>
      </trkpt>
      <trkpt lat="45.756" lon="1.91691">
        <ele>671.8</ele>
        <time>2022-08-03T07:44:25Z</time>
      </trkpt>
      <trkpt lat="45.75599" lon="1.91695">
        <ele>672.3</ele>
        <time>2022-08-03T07:44:27Z</time>
      </trkpt>
      <trkpt lat="45.75596" lon="1.91699">
        <ele>672.7</ele>
        <time>2022-08-03T07:44:29Z</time>
      </trkpt>
      <trkpt lat="45.75594" lon="1.91702">
        <ele>673.2</ele>
        <time>2022-08-03T07:44:31Z</time>
      </trkpt>
      <trkpt lat="45.75592" lon="1.91707">
        <ele>673.7</ele>
        <time>2022-08-03T07:44:33Z</time>
      </trkpt>
      <trkpt lat="45.7559" lon="1.9171">
        <ele>674.2</ele>
        <time>2022-08-03T07:44:35Z</time>
      </trkpt>
      <trkpt lat="45.75587" lon="1.91714">
        <ele>674.7</ele>
        <time>2022-08-03T07:44:37Z</time>
      </trkpt>
      <trkpt lat="45.75585" lon="1.91718">
        <ele>675.2</ele>
        <time>2022-08-03T07:44:39Z</time>
      </trkpt>
      <trkpt lat="45.75583" lon="1.91722">
        <ele>675.8</ele>
        <time>2022-08-03T07:44:41Z</time>
      </trkpt>
      <trkpt lat="45.7558" lon="1.91725">
        <ele>676.5</ele>
        <time>2022-08-03T07:44:43Z</time>
      </trkpt>
      <trkpt lat="45.75577" lon="1.91729">
        <ele>677.2</ele>
        <time>2022-08-03T07:44:45Z</time>
      </trkpt>
      <trkpt lat="45.75575" lon="1.91733">
        <ele>677.8</ele>
        <time>2022-08-03T07:44:47Z</time>
      </trkpt>
      <trkpt lat="45.75573" lon="1.91736">
        <ele>678.5</ele>
        <time>2022-08-03T07:44:49Z</time>
      </trkpt>
      <trkpt lat="45.75572" lon="1.91741">
        <ele>679</ele>
        <time>2022-08-03T07:44:51Z</time>
      </trkpt>
      <trkpt lat="45.7557" lon="1.91744">
        <ele>679.5</ele>
        <time>2022-08-03T07:44:53Z</time>
      </trkpt>
      <trkpt lat="45.75569" lon="1.91749">
        <ele>680</ele>
        <time>2022-08-03T07:44:55Z</time>
      </trkpt>
      <trkpt lat="45.75569" lon="1.91753">
        <ele>680.1</ele>
        <time>2022-08-03T07:44:57Z</time>
      </trkpt>
      <trkpt lat="45.75567" lon="1.91756">
        <ele>680.4</ele>
        <time>2022-08-03T07:44:59Z</time>
      </trkpt>
      <trkpt lat="45.75567" lon="1.91761">
        <ele>680.4</ele>
        <time>2022-08-03T07:45:01Z</time>
      </trkpt>
      <trkpt lat="45.75566" lon="1.91766">
        <ele>680.5</ele>
        <time>2022-08-03T07:45:03Z</time>
      </trkpt>
      <trkpt lat="45.75565" lon="1.9177">
        <ele>680.6</ele>
        <time>2022-08-03T07:45:05Z</time>
      </trkpt>
      <trkpt lat="45.75565" lon="1.91775">
        <ele>680.7</ele>
        <time>2022-08-03T07:45:07Z</time>
      </trkpt>
      <trkpt lat="45.75564" lon="1.9178">
        <ele>680.8</ele>
        <time>2022-08-03T07:45:09Z</time>
      </trkpt>
      <trkpt lat="45.75564" lon="1.91784">
        <ele>680.8</ele>
        <time>2022-08-03T07:45:11Z</time>
      </trkpt>
      <trkpt lat="45.75562" lon="1.91789">
        <ele>681</ele>
        <time>2022-08-03T07:45:13Z</time>
      </trkpt>
      <trkpt lat="45.7556" lon="1.91793">
        <ele>681.2</ele>
        <time>2022-08-03T07:45:15Z</time>
      </trkpt>
      <trkpt lat="45.75558" lon="1.91797">
        <ele>681.5</ele>
        <time>2022-08-03T07:45:17Z</time>
      </trkpt>
      <trkpt lat="45.75557" lon="1.91802">
        <ele>681.6</ele>
        <time>2022-08-03T07:45:19Z</time>
      </trkpt>
      <trkpt lat="45.75555" lon="1.91807">
        <ele>681.8</ele>
        <time>2022-08-03T07:45:21Z</time>
      </trkpt>
      <trkpt lat="45.75552" lon="1.91811">
        <ele>682.1</ele>
        <time>2022-08-03T07:45:23Z</time>
      </trkpt>
      <trkpt lat="45.75549" lon="1.91815">
        <ele>682.4</ele>
        <time>2022-08-03T07:45:25Z</time>
      </trkpt>
      <trkpt lat="45.75545" lon="1.91818">
        <ele>682.8</ele>
        <time>2022-08-03T07:45:27Z</time>
      </trkpt>
      <trkpt lat="45.75542" lon="1.91821">
        <ele>683.1</ele>
        <time>2022-08-03T07:45:29Z</time>
      </trkpt>
      <trkpt lat="45.75539" lon="1.91825">
        <ele>683.4</ele>
        <time>2022-08-03T07:45:31Z</time>
      </trkpt>
      <trkpt lat="45.75535" lon="1.91829">
        <ele>683.7</ele>
        <time>2022-08-03T07:45:33Z</time>
      </trkpt>
      <trkpt lat="45.75532" lon="1.91831">
        <ele>684</ele>
        <time>2022-08-03T07:45:35Z</time>
      </trkpt>
      <trkpt lat="45.75527" lon="1.91834">
        <ele>684.4</ele>
        <time>2022-08-03T07:45:37Z</time>
      </trkpt>
      <trkpt lat="45.75524" lon="1.91837">
        <ele>684.7</ele>
        <time>2022-08-03T07:45:39Z</time>
      </trkpt>
      <trkpt lat="45.7552" lon="1.91839">
        <ele>685.1</ele>
        <time>2022-08-03T07:45:41Z</time>
      </trkpt>
      <trkpt lat="45.75518" lon="1.91843">
        <ele>685.2</ele>
        <time>2022-08-03T07:45:43Z</time>
      </trkpt>
      <trkpt lat="45.75516" lon="1.91848">
        <ele>685.4</ele>
        <time>2022-08-03T07:45:45Z</time>
      </trkpt>
      <trkpt lat="45.75513" lon="1.91852">
        <ele>685.6</ele>
        <time>2022-08-03T07:45:47Z</time>
      </trkpt>
      <trkpt lat="45.75513" lon="1.91852">
        <ele>685.6</ele>
        <time>2022-08-03T07:45:49Z</time>
      </trkpt>
      <trkpt lat="45.75513" lon="1.91851">
        <ele>685.6</ele>
        <time>2022-08-03T07:45:51Z</time>
      </trkpt>
      <trkpt lat="45.75513" lon="1.91851">
        <ele>685.6</ele>
        <time>2022-08-03T07:45:53Z</time>
      </trkpt>
      <trkpt lat="45.75513" lon="1.91851">
        <ele>685.6</ele>
        <time>2022-08-03T07:45:55Z</time>
      </trkpt>
      <trkpt lat="45.75502" lon="1.91855">
        <ele>686.6</ele>
        <time>2022-08-03T07:48:29Z</time>
      </trkpt>
      <trkpt lat="45.75498" lon="1.91859">
        <ele>687.2</ele>
        <time>2022-08-03T07:48:31Z</time>
      </trkpt>
      <trkpt lat="45.75494" lon="1.91863">
        <ele>687.9</ele>
        <time>2022-08-03T07:48:33Z</time>
      </trkpt>
      <trkpt lat="45.7549" lon="1.91866">
        <ele>688.6</ele>
        <time>2022-08-03T07:48:35Z</time>
      </trkpt>
      <trkpt lat="45.75486" lon="1.9187">
        <ele>689.3</ele>
        <time>2022-08-03T07:48:37Z</time>
      </trkpt>
      <trkpt lat="45.75483" lon="1.91874">
        <ele>689.8</ele>
        <time>2022-08-03T07:48:39Z</time>
      </trkpt>
      <trkpt lat="45.7548" lon="1.91879">
        <ele>690.2</ele>
        <time>2022-08-03T07:48:41Z</time>
      </trkpt>
      <trkpt lat="45.75476" lon="1.91883">
        <ele>690.9</ele>
        <time>2022-08-03T07:48:43Z</time>
      </trkpt>
      <trkpt lat="45.75471" lon="1.91887">
        <ele>691.5</ele>
        <time>2022-08-03T07:48:45Z</time>
      </trkpt>
      <trkpt lat="45.75466" lon="1.91892">
        <ele>692.1</ele>
        <time>2022-08-03T07:48:47Z</time>
      </trkpt>
      <trkpt lat="45.7546" lon="1.91897">
        <ele>692.9</ele>
        <time>2022-08-03T07:48:49Z</time>
      </trkpt>
      <trkpt lat="45.75455" lon="1.91904">
        <ele>693.3</ele>
        <time>2022-08-03T07:48:51Z</time>
      </trkpt>
      <trkpt lat="45.75448" lon="1.9191">
        <ele>693.9</ele>
        <time>2022-08-03T07:48:53Z</time>
      </trkpt>
      <trkpt lat="45.75443" lon="1.91916">
        <ele>694.2</ele>
        <time>2022-08-03T07:48:55Z</time>
      </trkpt>
      <trkpt lat="45.75436" lon="1.91923">
        <ele>694.1</ele>
        <time>2022-08-03T07:48:57Z</time>
      </trkpt>
      <trkpt lat="45.75429" lon="1.91933">
        <ele>693.4</ele>
        <time>2022-08-03T07:48:59Z</time>
      </trkpt>
      <trkpt lat="45.75423" lon="1.91946">
        <ele>692</ele>
        <time>2022-08-03T07:49:01Z</time>
      </trkpt>
      <trkpt lat="45.75419" lon="1.91958">
        <ele>690.3</ele>
        <time>2022-08-03T07:49:03Z</time>
      </trkpt>
      <trkpt lat="45.75413" lon="1.91971">
        <ele>688.4</ele>
        <time>2022-08-03T07:49:05Z</time>
      </trkpt>
      <trkpt lat="45.75408" lon="1.91984">
        <ele>686.7</ele>
        <time>2022-08-03T07:49:07Z</time>
      </trkpt>
      <trkpt lat="45.75405" lon="1.91998">
        <ele>684.6</ele>
        <time>2022-08-03T07:49:09Z</time>
      </trkpt>
      <trkpt lat="45.75399" lon="1.92012">
        <ele>683.2</ele>
        <time>2022-08-03T07:49:11Z</time>
      </trkpt>
      <trkpt lat="45.75395" lon="1.92024">
        <ele>681.9</ele>
        <time>2022-08-03T07:49:13Z</time>
      </trkpt>
      <trkpt lat="45.75388" lon="1.92041">
        <ele>680.2</ele>
        <time>2022-08-03T07:49:15Z</time>
      </trkpt>
      <trkpt lat="45.75382" lon="1.92057">
        <ele>678.4</ele>
        <time>2022-08-03T07:49:17Z</time>
      </trkpt>
      <trkpt lat="45.75376" lon="1.92072">
        <ele>676.6</ele>
        <time>2022-08-03T07:49:19Z</time>
      </trkpt>
      <trkpt lat="45.7537" lon="1.9209">
        <ele>675</ele>
        <time>2022-08-03T07:49:21Z</time>
      </trkpt>
      <trkpt lat="45.75368" lon="1.92107">
        <ele>674.3</ele>
        <time>2022-08-03T07:49:23Z</time>
      </trkpt>
      <trkpt lat="45.75364" lon="1.92125">
        <ele>673.6</ele>
        <time>2022-08-03T07:49:25Z</time>
      </trkpt>
      <trkpt lat="45.75361" lon="1.92144">
        <ele>672.8</ele>
        <time>2022-08-03T07:49:27Z</time>
      </trkpt>
      <trkpt lat="45.75358" lon="1.92163">
        <ele>671.9</ele>
        <time>2022-08-03T07:49:29Z</time>
      </trkpt>
      <trkpt lat="45.75355" lon="1.92183">
        <ele>671.9</ele>
        <time>2022-08-03T07:49:31Z</time>
      </trkpt>
      <trkpt lat="45.75352" lon="1.92203">
        <ele>672.2</ele>
        <time>2022-08-03T07:49:33Z</time>
      </trkpt>
      <trkpt lat="45.75348" lon="1.92223">
        <ele>672.3</ele>
        <time>2022-08-03T07:49:35Z</time>
      </trkpt>
      <trkpt lat="45.75346" lon="1.92241">
        <ele>672.4</ele>
        <time>2022-08-03T07:49:37Z</time>
      </trkpt>
      <trkpt lat="45.75342" lon="1.92258">
        <ele>673.4</ele>
        <time>2022-08-03T07:49:39Z</time>
      </trkpt>
      <trkpt lat="45.75338" lon="1.92272">
        <ele>674.9</ele>
        <time>2022-08-03T07:49:41Z</time>
      </trkpt>
      <trkpt lat="45.7533" lon="1.92283">
        <ele>676</ele>
        <time>2022-08-03T07:49:43Z</time>
      </trkpt>
      <trkpt lat="45.75321" lon="1.92291">
        <ele>676.8</ele>
        <time>2022-08-03T07:49:45Z</time>
      </trkpt>
      <trkpt lat="45.75313" lon="1.92298">
        <ele>677.2</ele>
        <time>2022-08-03T07:49:47Z</time>
      </trkpt>
      <trkpt lat="45.75305" lon="1.92304">
        <ele>677.5</ele>
        <time>2022-08-03T07:49:49Z</time>
      </trkpt>
      <trkpt lat="45.75296" lon="1.9231">
        <ele>677.6</ele>
        <time>2022-08-03T07:49:51Z</time>
      </trkpt>
      <trkpt lat="45.75288" lon="1.92316">
        <ele>677.7</ele>
        <time>2022-08-03T07:49:53Z</time>
      </trkpt>
      <trkpt lat="45.7528" lon="1.92323">
        <ele>677.6</ele>
        <time>2022-08-03T07:49:55Z</time>
      </trkpt>
      <trkpt lat="45.75273" lon="1.92328">
        <ele>677.4</ele>
        <time>2022-08-03T07:49:57Z</time>
      </trkpt>
      <trkpt lat="45.75264" lon="1.92334">
        <ele>677.1</ele>
        <time>2022-08-03T07:49:59Z</time>
      </trkpt>
      <trkpt lat="45.75256" lon="1.9234">
        <ele>677.4</ele>
        <time>2022-08-03T07:50:01Z</time>
      </trkpt>
      <trkpt lat="45.75247" lon="1.92346">
        <ele>677.6</ele>
        <time>2022-08-03T07:50:03Z</time>
      </trkpt>
      <trkpt lat="45.75239" lon="1.92352">
        <ele>677.8</ele>
        <time>2022-08-03T07:50:05Z</time>
      </trkpt>
      <trkpt lat="45.75231" lon="1.92359">
        <ele>678.1</ele>
        <time>2022-08-03T07:50:07Z</time>
      </trkpt>
      <trkpt lat="45.75222" lon="1.92365">
        <ele>678.1</ele>
        <time>2022-08-03T07:50:09Z</time>
      </trkpt>
      <trkpt lat="45.75214" lon="1.92371">
        <ele>677.9</ele>
        <time>2022-08-03T07:50:11Z</time>
      </trkpt>
      <trkpt lat="45.75206" lon="1.92379">
        <ele>677.9</ele>
        <time>2022-08-03T07:50:13Z</time>
      </trkpt>
      <trkpt lat="45.75197" lon="1.92384">
        <ele>677.5</ele>
        <time>2022-08-03T07:50:15Z</time>
      </trkpt>
      <trkpt lat="45.75189" lon="1.9239">
        <ele>677</ele>
        <time>2022-08-03T07:50:17Z</time>
      </trkpt>
      <trkpt lat="45.75181" lon="1.92397">
        <ele>676.6</ele>
        <time>2022-08-03T07:50:19Z</time>
      </trkpt>
      <trkpt lat="45.75172" lon="1.92403">
        <ele>675.9</ele>
        <time>2022-08-03T07:50:21Z</time>
      </trkpt>
      <trkpt lat="45.75165" lon="1.92411">
        <ele>675.5</ele>
        <time>2022-08-03T07:50:23Z</time>
      </trkpt>
      <trkpt lat="45.75157" lon="1.92419">
        <ele>675.7</ele>
        <time>2022-08-03T07:50:25Z</time>
      </trkpt>
      <trkpt lat="45.75151" lon="1.92427">
        <ele>676</ele>
        <time>2022-08-03T07:50:27Z</time>
      </trkpt>
      <trkpt lat="45.75147" lon="1.92435">
        <ele>676.4</ele>
        <time>2022-08-03T07:50:29Z</time>
      </trkpt>
      <trkpt lat="45.75143" lon="1.92443">
        <ele>676.8</ele>
        <time>2022-08-03T07:50:31Z</time>
      </trkpt>
      <trkpt lat="45.75142" lon="1.9245">
        <ele>677.3</ele>
        <time>2022-08-03T07:50:33Z</time>
      </trkpt>
      <trkpt lat="45.7514" lon="1.92457">
        <ele>677.9</ele>
        <time>2022-08-03T07:50:35Z</time>
      </trkpt>
      <trkpt lat="45.7514" lon="1.9246">
        <ele>678.1</ele>
        <time>2022-08-03T07:50:37Z</time>
      </trkpt>
      <trkpt lat="45.7514" lon="1.92463">
        <ele>678.3</ele>
        <time>2022-08-03T07:50:39Z</time>
      </trkpt>
      <trkpt lat="45.7514" lon="1.92462">
        <ele>678.2</ele>
        <time>2022-08-03T07:50:41Z</time>
      </trkpt>
      <trkpt lat="45.7514" lon="1.92462">
        <ele>678.2</ele>
        <time>2022-08-03T07:50:45Z</time>
      </trkpt>
      <trkpt lat="45.7514" lon="1.92464">
        <ele>678.4</ele>
        <time>2022-08-03T07:50:49Z</time>
      </trkpt>
      <trkpt lat="45.75138" lon="1.92468">
        <ele>678.5</ele>
        <time>2022-08-03T07:50:51Z</time>
      </trkpt>
      <trkpt lat="45.75133" lon="1.9246">
        <ele>677.5</ele>
        <time>2022-08-03T07:50:53Z</time>
      </trkpt>
      <trkpt lat="45.75128" lon="1.92455">
        <ele>676.6</ele>
        <time>2022-08-03T07:50:55Z</time>
      </trkpt>
      <trkpt lat="45.75122" lon="1.92446">
        <ele>675.5</ele>
        <time>2022-08-03T07:50:57Z</time>
      </trkpt>
      <trkpt lat="45.75116" lon="1.92438">
        <ele>674.6</ele>
        <time>2022-08-03T07:50:59Z</time>
      </trkpt>
      <trkpt lat="45.75111" lon="1.9243">
        <ele>673.6</ele>
        <time>2022-08-03T07:51:01Z</time>
      </trkpt>
      <trkpt lat="45.75105" lon="1.92423">
        <ele>672.7</ele>
        <time>2022-08-03T07:51:03Z</time>
      </trkpt>
      <trkpt lat="45.75099" lon="1.92416">
        <ele>671.9</ele>
        <time>2022-08-03T07:51:05Z</time>
      </trkpt>
      <trkpt lat="45.75093" lon="1.9241">
        <ele>671.3</ele>
        <time>2022-08-03T07:51:07Z</time>
      </trkpt>
      <trkpt lat="45.75089" lon="1.92406">
        <ele>670.8</ele>
        <time>2022-08-03T07:51:09Z</time>
      </trkpt>
      <trkpt lat="45.75088" lon="1.92401">
        <ele>670.5</ele>
        <time>2022-08-03T07:51:11Z</time>
      </trkpt>
      <trkpt lat="45.75088" lon="1.92399">
        <ele>670.5</ele>
        <time>2022-08-03T07:51:13Z</time>
      </trkpt>
      <trkpt lat="45.75089" lon="1.924">
        <ele>670.5</ele>
        <time>2022-08-03T07:51:15Z</time>
      </trkpt>
      <trkpt lat="45.75089" lon="1.924">
        <ele>670.5</ele>
        <time>2022-08-03T07:51:19Z</time>
      </trkpt>
      <trkpt lat="45.75071" lon="1.92384">
        <ele>669.8</ele>
        <time>2022-08-03T07:51:43Z</time>
      </trkpt>
      <trkpt lat="45.7507" lon="1.92383">
        <ele>669.8</ele>
        <time>2022-08-03T07:51:45Z</time>
      </trkpt>
      <trkpt lat="45.75072" lon="1.92382">
        <ele>669.7</ele>
        <time>2022-08-03T07:51:47Z</time>
      </trkpt>
      <trkpt lat="45.75073" lon="1.92386">
        <ele>669.8</ele>
        <time>2022-08-03T07:51:49Z</time>
      </trkpt>
      <trkpt lat="45.75073" lon="1.92389">
        <ele>670</ele>
        <time>2022-08-03T07:51:51Z</time>
      </trkpt>
      <trkpt lat="45.75075" lon="1.9239">
        <ele>670</ele>
        <time>2022-08-03T07:51:53Z</time>
      </trkpt>
      <trkpt lat="45.75078" lon="1.92391">
        <ele>669.9</ele>
        <time>2022-08-03T07:51:55Z</time>
      </trkpt>
      <trkpt lat="45.7508" lon="1.92392">
        <ele>669.9</ele>
        <time>2022-08-03T07:51:57Z</time>
      </trkpt>
      <trkpt lat="45.75081" lon="1.92397">
        <ele>670.1</ele>
        <time>2022-08-03T07:51:59Z</time>
      </trkpt>
      <trkpt lat="45.75083" lon="1.92402">
        <ele>670.3</ele>
        <time>2022-08-03T07:52:01Z</time>
      </trkpt>
      <trkpt lat="45.75085" lon="1.92399">
        <ele>670.3</ele>
        <time>2022-08-03T07:52:03Z</time>
      </trkpt>
      <trkpt lat="45.75084" lon="1.92395">
        <ele>670</ele>
        <time>2022-08-03T07:52:05Z</time>
      </trkpt>
      <trkpt lat="45.75082" lon="1.92392">
        <ele>669.9</ele>
        <time>2022-08-03T07:52:07Z</time>
      </trkpt>
      <trkpt lat="45.7508" lon="1.92389">
        <ele>669.8</ele>
        <time>2022-08-03T07:52:09Z</time>
      </trkpt>
      <trkpt lat="45.75077" lon="1.92391">
        <ele>669.9</ele>
        <time>2022-08-03T07:52:11Z</time>
      </trkpt>
      <trkpt lat="45.75079" lon="1.92399">
        <ele>670.2</ele>
        <time>2022-08-03T07:52:13Z</time>
      </trkpt>
      <trkpt lat="45.75086" lon="1.92405">
        <ele>670.6</ele>
        <time>2022-08-03T07:52:15Z</time>
      </trkpt>
      <trkpt lat="45.75091" lon="1.92412">
        <ele>671.2</ele>
        <time>2022-08-03T07:52:17Z</time>
      </trkpt>
      <trkpt lat="45.75096" lon="1.92419">
        <ele>671.9</ele>
        <time>2022-08-03T07:52:19Z</time>
      </trkpt>
      <trkpt lat="45.75102" lon="1.92426">
        <ele>672.8</ele>
        <time>2022-08-03T07:52:21Z</time>
      </trkpt>
      <trkpt lat="45.75108" lon="1.92433">
        <ele>673.6</ele>
        <time>2022-08-03T07:52:23Z</time>
      </trkpt>
      <trkpt lat="45.75113" lon="1.9244">
        <ele>674.5</ele>
        <time>2022-08-03T07:52:25Z</time>
      </trkpt>
      <trkpt lat="45.75118" lon="1.92446">
        <ele>675.3</ele>
        <time>2022-08-03T07:52:27Z</time>
      </trkpt>
      <trkpt lat="45.75123" lon="1.92453">
        <ele>676.2</ele>
        <time>2022-08-03T07:52:29Z</time>
      </trkpt>
      <trkpt lat="45.75128" lon="1.92459">
        <ele>677</ele>
        <time>2022-08-03T07:52:31Z</time>
      </trkpt>
      <trkpt lat="45.75132" lon="1.92465">
        <ele>677.8</ele>
        <time>2022-08-03T07:52:33Z</time>
      </trkpt>
      <trkpt lat="45.75135" lon="1.92472">
        <ele>678.7</ele>
        <time>2022-08-03T07:52:35Z</time>
      </trkpt>
      <trkpt lat="45.75139" lon="1.92481">
        <ele>679.7</ele>
        <time>2022-08-03T07:52:37Z</time>
      </trkpt>
      <trkpt lat="45.75141" lon="1.92489">
        <ele>680.6</ele>
        <time>2022-08-03T07:52:39Z</time>
      </trkpt>
      <trkpt lat="45.75142" lon="1.92498">
        <ele>681.4</ele>
        <time>2022-08-03T07:52:41Z</time>
      </trkpt>
      <trkpt lat="45.75143" lon="1.92507">
        <ele>682.1</ele>
        <time>2022-08-03T07:52:43Z</time>
      </trkpt>
      <trkpt lat="45.75142" lon="1.92516">
        <ele>682.6</ele>
        <time>2022-08-03T07:52:45Z</time>
      </trkpt>
      <trkpt lat="45.75141" lon="1.92524">
        <ele>683</ele>
        <time>2022-08-03T07:52:47Z</time>
      </trkpt>
      <trkpt lat="45.75138" lon="1.92532">
        <ele>683.2</ele>
        <time>2022-08-03T07:52:49Z</time>
      </trkpt>
      <trkpt lat="45.75136" lon="1.9254">
        <ele>683.4</ele>
        <time>2022-08-03T07:52:51Z</time>
      </trkpt>
      <trkpt lat="45.75132" lon="1.92546">
        <ele>683.5</ele>
        <time>2022-08-03T07:52:53Z</time>
      </trkpt>
      <trkpt lat="45.75128" lon="1.92552">
        <ele>683.4</ele>
        <time>2022-08-03T07:52:55Z</time>
      </trkpt>
      <trkpt lat="45.75123" lon="1.92556">
        <ele>683.1</ele>
        <time>2022-08-03T07:52:57Z</time>
      </trkpt>
      <trkpt lat="45.75118" lon="1.92559">
        <ele>682.8</ele>
        <time>2022-08-03T07:52:59Z</time>
      </trkpt>
      <trkpt lat="45.75112" lon="1.92561">
        <ele>682.4</ele>
        <time>2022-08-03T07:53:01Z</time>
      </trkpt>
      <trkpt lat="45.75107" lon="1.92563">
        <ele>682.1</ele>
        <time>2022-08-03T07:53:03Z</time>
      </trkpt>
      <trkpt lat="45.75103" lon="1.92564">
        <ele>681.7</ele>
        <time>2022-08-03T07:53:05Z</time>
      </trkpt>
      <trkpt lat="45.75098" lon="1.92565">
        <ele>681.3</ele>
        <time>2022-08-03T07:53:07Z</time>
      </trkpt>
      <trkpt lat="45.75093" lon="1.92566">
        <ele>680.9</ele>
        <time>2022-08-03T07:53:09Z</time>
      </trkpt>
      <trkpt lat="45.75088" lon="1.92568">
        <ele>680.6</ele>
        <time>2022-08-03T07:53:11Z</time>
      </trkpt>
      <trkpt lat="45.75084" lon="1.92569">
        <ele>680.3</ele>
        <time>2022-08-03T07:53:13Z</time>
      </trkpt>
      <trkpt lat="45.75081" lon="1.92572">
        <ele>680.1</ele>
        <time>2022-08-03T07:53:15Z</time>
      </trkpt>
      <trkpt lat="45.75076" lon="1.92574">
        <ele>679.8</ele>
        <time>2022-08-03T07:53:17Z</time>
      </trkpt>
      <trkpt lat="45.75072" lon="1.92578">
        <ele>679.7</ele>
        <time>2022-08-03T07:53:19Z</time>
      </trkpt>
      <trkpt lat="45.75069" lon="1.92582">
        <ele>679.6</ele>
        <time>2022-08-03T07:53:21Z</time>
      </trkpt>
      <trkpt lat="45.75066" lon="1.92585">
        <ele>679.4</ele>
        <time>2022-08-03T07:53:23Z</time>
      </trkpt>
      <trkpt lat="45.75064" lon="1.92591">
        <ele>679.4</ele>
        <time>2022-08-03T07:53:25Z</time>
      </trkpt>
      <trkpt lat="45.75061" lon="1.92596">
        <ele>679.4</ele>
        <time>2022-08-03T07:53:27Z</time>
      </trkpt>
      <trkpt lat="45.7506" lon="1.92602">
        <ele>679.5</ele>
        <time>2022-08-03T07:53:29Z</time>
      </trkpt>
      <trkpt lat="45.75059" lon="1.92608">
        <ele>679.6</ele>
        <time>2022-08-03T07:53:31Z</time>
      </trkpt>
      <trkpt lat="45.75058" lon="1.92614">
        <ele>679.7</ele>
        <time>2022-08-03T07:53:33Z</time>
      </trkpt>
      <trkpt lat="45.75056" lon="1.9262">
        <ele>679.8</ele>
        <time>2022-08-03T07:53:35Z</time>
      </trkpt>
      <trkpt lat="45.75056" lon="1.92626">
        <ele>680</ele>
        <time>2022-08-03T07:53:37Z</time>
      </trkpt>
      <trkpt lat="45.75056" lon="1.92632">
        <ele>680.2</ele>
        <time>2022-08-03T07:53:39Z</time>
      </trkpt>
      <trkpt lat="45.75057" lon="1.92637">
        <ele>680.4</ele>
        <time>2022-08-03T07:53:41Z</time>
      </trkpt>
      <trkpt lat="45.75057" lon="1.92644">
        <ele>680.7</ele>
        <time>2022-08-03T07:53:43Z</time>
      </trkpt>
      <trkpt lat="45.75057" lon="1.92649">
        <ele>680.9</ele>
        <time>2022-08-03T07:53:45Z</time>
      </trkpt>
      <trkpt lat="45.75056" lon="1.92655">
        <ele>681</ele>
        <time>2022-08-03T07:53:47Z</time>
      </trkpt>
      <trkpt lat="45.75057" lon="1.92661">
        <ele>681.3</ele>
        <time>2022-08-03T07:53:49Z</time>
      </trkpt>
      <trkpt lat="45.75057" lon="1.92668">
        <ele>681.6</ele>
        <time>2022-08-03T07:53:51Z</time>
      </trkpt>
      <trkpt lat="45.75057" lon="1.92674">
        <ele>681.9</ele>
        <time>2022-08-03T07:53:53Z</time>
      </trkpt>
      <trkpt lat="45.75057" lon="1.9268">
        <ele>682</ele>
        <time>2022-08-03T07:53:55Z</time>
      </trkpt>
      <trkpt lat="45.75056" lon="1.92686">
        <ele>682.2</ele>
        <time>2022-08-03T07:53:57Z</time>
      </trkpt>
      <trkpt lat="45.75057" lon="1.92692">
        <ele>682.5</ele>
        <time>2022-08-03T07:53:59Z</time>
      </trkpt>
      <trkpt lat="45.75057" lon="1.92699">
        <ele>682.8</ele>
        <time>2022-08-03T07:54:01Z</time>
      </trkpt>
      <trkpt lat="45.75057" lon="1.92704">
        <ele>683</ele>
        <time>2022-08-03T07:54:03Z</time>
      </trkpt>
      <trkpt lat="45.75057" lon="1.9271">
        <ele>683.3</ele>
        <time>2022-08-03T07:54:05Z</time>
      </trkpt>
      <trkpt lat="45.75057" lon="1.92715">
        <ele>683.5</ele>
        <time>2022-08-03T07:54:07Z</time>
      </trkpt>
      <trkpt lat="45.75057" lon="1.92721">
        <ele>683.8</ele>
        <time>2022-08-03T07:54:09Z</time>
      </trkpt>
      <trkpt lat="45.75057" lon="1.92727">
        <ele>684</ele>
        <time>2022-08-03T07:54:11Z</time>
      </trkpt>
      <trkpt lat="45.75057" lon="1.92733">
        <ele>684.2</ele>
        <time>2022-08-03T07:54:13Z</time>
      </trkpt>
      <trkpt lat="45.75057" lon="1.92738">
        <ele>684.4</ele>
        <time>2022-08-03T07:54:15Z</time>
      </trkpt>
      <trkpt lat="45.75058" lon="1.92744">
        <ele>684.7</ele>
        <time>2022-08-03T07:54:17Z</time>
      </trkpt>
      <trkpt lat="45.75058" lon="1.92749">
        <ele>685</ele>
        <time>2022-08-03T07:54:19Z</time>
      </trkpt>
      <trkpt lat="45.75058" lon="1.92755">
        <ele>684.9</ele>
        <time>2022-08-03T07:54:21Z</time>
      </trkpt>
      <trkpt lat="45.75058" lon="1.92762">
        <ele>684.9</ele>
        <time>2022-08-03T07:54:23Z</time>
      </trkpt>
      <trkpt lat="45.75057" lon="1.92769">
        <ele>684.8</ele>
        <time>2022-08-03T07:54:25Z</time>
      </trkpt>
      <trkpt lat="45.75059" lon="1.92774">
        <ele>685</ele>
        <time>2022-08-03T07:54:27Z</time>
      </trkpt>
      <trkpt lat="45.7506" lon="1.92781">
        <ele>685</ele>
        <time>2022-08-03T07:54:29Z</time>
      </trkpt>
      <trkpt lat="45.75062" lon="1.92786">
        <ele>685.1</ele>
        <time>2022-08-03T07:54:31Z</time>
      </trkpt>
      <trkpt lat="45.75063" lon="1.92792">
        <ele>685.1</ele>
        <time>2022-08-03T07:54:33Z</time>
      </trkpt>
      <trkpt lat="45.75065" lon="1.92797">
        <ele>685.3</ele>
        <time>2022-08-03T07:54:35Z</time>
      </trkpt>
      <trkpt lat="45.75067" lon="1.92802">
        <ele>685.5</ele>
        <time>2022-08-03T07:54:37Z</time>
      </trkpt>
      <trkpt lat="45.7507" lon="1.92806">
        <ele>685.7</ele>
        <time>2022-08-03T07:54:39Z</time>
      </trkpt>
      <trkpt lat="45.75073" lon="1.9281">
        <ele>685.9</ele>
        <time>2022-08-03T07:54:41Z</time>
      </trkpt>
      <trkpt lat="45.75076" lon="1.92814">
        <ele>686</ele>
        <time>2022-08-03T07:54:43Z</time>
      </trkpt>
      <trkpt lat="45.75079" lon="1.92817">
        <ele>686.2</ele>
        <time>2022-08-03T07:54:45Z</time>
      </trkpt>
      <trkpt lat="45.75083" lon="1.92821">
        <ele>686.4</ele>
        <time>2022-08-03T07:54:47Z</time>
      </trkpt>
      <trkpt lat="45.75086" lon="1.92822">
        <ele>686.9</ele>
        <time>2022-08-03T07:54:49Z</time>
      </trkpt>
      <trkpt lat="45.7509" lon="1.92825">
        <ele>687.4</ele>
        <time>2022-08-03T07:54:51Z</time>
      </trkpt>
      <trkpt lat="45.75094" lon="1.92826">
        <ele>687.9</ele>
        <time>2022-08-03T07:54:53Z</time>
      </trkpt>
      <trkpt lat="45.75097" lon="1.92827">
        <ele>688.5</ele>
        <time>2022-08-03T07:54:55Z</time>
      </trkpt>
      <trkpt lat="45.75101" lon="1.92829">
        <ele>689</ele>
        <time>2022-08-03T07:54:57Z</time>
      </trkpt>
      <trkpt lat="45.75104" lon="1.92829">
        <ele>689.5</ele>
        <time>2022-08-03T07:54:59Z</time>
      </trkpt>
      <trkpt lat="45.75108" lon="1.9283">
        <ele>690.1</ele>
        <time>2022-08-03T07:55:01Z</time>
      </trkpt>
      <trkpt lat="45.75112" lon="1.92831">
        <ele>690.8</ele>
        <time>2022-08-03T07:55:03Z</time>
      </trkpt>
      <trkpt lat="45.75116" lon="1.92831">
        <ele>691.5</ele>
        <time>2022-08-03T07:55:05Z</time>
      </trkpt>
      <trkpt lat="45.7512" lon="1.92832">
        <ele>692.1</ele>
        <time>2022-08-03T07:55:07Z</time>
      </trkpt>
      <trkpt lat="45.75124" lon="1.92834">
        <ele>692.8</ele>
        <time>2022-08-03T07:55:09Z</time>
      </trkpt>
      <trkpt lat="45.75128" lon="1.92836">
        <ele>693.4</ele>
        <time>2022-08-03T07:55:11Z</time>
      </trkpt>
      <trkpt lat="45.75132" lon="1.92839">
        <ele>694</ele>
        <time>2022-08-03T07:55:13Z</time>
      </trkpt>
      <trkpt lat="45.75136" lon="1.92843">
        <ele>694.6</ele>
        <time>2022-08-03T07:55:15Z</time>
      </trkpt>
      <trkpt lat="45.75139" lon="1.92847">
        <ele>695.1</ele>
        <time>2022-08-03T07:55:17Z</time>
      </trkpt>
      <trkpt lat="45.75142" lon="1.92852">
        <ele>695.5</ele>
        <time>2022-08-03T07:55:19Z</time>
      </trkpt>
      <trkpt lat="45.75145" lon="1.92857">
        <ele>695.8</ele>
        <time>2022-08-03T07:55:21Z</time>
      </trkpt>
      <trkpt lat="45.75148" lon="1.92863">
        <ele>696.1</ele>
        <time>2022-08-03T07:55:23Z</time>
      </trkpt>
      <trkpt lat="45.7515" lon="1.92867">
        <ele>696.3</ele>
        <time>2022-08-03T07:55:25Z</time>
      </trkpt>
      <trkpt lat="45.75152" lon="1.92872">
        <ele>696.6</ele>
        <time>2022-08-03T07:55:27Z</time>
      </trkpt>
      <trkpt lat="45.75153" lon="1.92878">
        <ele>696.6</ele>
        <time>2022-08-03T07:55:29Z</time>
      </trkpt>
      <trkpt lat="45.75154" lon="1.92884">
        <ele>696.6</ele>
        <time>2022-08-03T07:55:31Z</time>
      </trkpt>
      <trkpt lat="45.75154" lon="1.92889">
        <ele>696.6</ele>
        <time>2022-08-03T07:55:33Z</time>
      </trkpt>
      <trkpt lat="45.75155" lon="1.92895">
        <ele>696.6</ele>
        <time>2022-08-03T07:55:35Z</time>
      </trkpt>
      <trkpt lat="45.75156" lon="1.92901">
        <ele>696.5</ele>
        <time>2022-08-03T07:55:37Z</time>
      </trkpt>
      <trkpt lat="45.75156" lon="1.92907">
        <ele>696.4</ele>
        <time>2022-08-03T07:55:39Z</time>
      </trkpt>
      <trkpt lat="45.75155" lon="1.92912">
        <ele>696.2</ele>
        <time>2022-08-03T07:55:41Z</time>
      </trkpt>
      <trkpt lat="45.75155" lon="1.92918">
        <ele>696.1</ele>
        <time>2022-08-03T07:55:43Z</time>
      </trkpt>
      <trkpt lat="45.75154" lon="1.92924">
        <ele>696.5</ele>
        <time>2022-08-03T07:55:45Z</time>
      </trkpt>
      <trkpt lat="45.75153" lon="1.9293">
        <ele>697</ele>
        <time>2022-08-03T07:55:47Z</time>
      </trkpt>
      <trkpt lat="45.75152" lon="1.92936">
        <ele>697.3</ele>
        <time>2022-08-03T07:55:49Z</time>
      </trkpt>
      <trkpt lat="45.75151" lon="1.92941">
        <ele>697.6</ele>
        <time>2022-08-03T07:55:51Z</time>
      </trkpt>
      <trkpt lat="45.7515" lon="1.92947">
        <ele>697.9</ele>
        <time>2022-08-03T07:55:53Z</time>
      </trkpt>
      <trkpt lat="45.75148" lon="1.92952">
        <ele>698.2</ele>
        <time>2022-08-03T07:55:55Z</time>
      </trkpt>
      <trkpt lat="45.75145" lon="1.92957">
        <ele>698.2</ele>
        <time>2022-08-03T07:55:57Z</time>
      </trkpt>
      <trkpt lat="45.75142" lon="1.92962">
        <ele>698.3</ele>
        <time>2022-08-03T07:55:59Z</time>
      </trkpt>
      <trkpt lat="45.75139" lon="1.92968">
        <ele>698.5</ele>
        <time>2022-08-03T07:56:01Z</time>
      </trkpt>
      <trkpt lat="45.75136" lon="1.92972">
        <ele>698.5</ele>
        <time>2022-08-03T07:56:03Z</time>
      </trkpt>
      <trkpt lat="45.75134" lon="1.92977">
        <ele>698.7</ele>
        <time>2022-08-03T07:56:05Z</time>
      </trkpt>
      <trkpt lat="45.75131" lon="1.92983">
        <ele>698.9</ele>
        <time>2022-08-03T07:56:07Z</time>
      </trkpt>
      <trkpt lat="45.75128" lon="1.92987">
        <ele>699</ele>
        <time>2022-08-03T07:56:09Z</time>
      </trkpt>
      <trkpt lat="45.75125" lon="1.92992">
        <ele>699.2</ele>
        <time>2022-08-03T07:56:11Z</time>
      </trkpt>
      <trkpt lat="45.75122" lon="1.92997">
        <ele>699.4</ele>
        <time>2022-08-03T07:56:13Z</time>
      </trkpt>
      <trkpt lat="45.75119" lon="1.93001">
        <ele>699.4</ele>
        <time>2022-08-03T07:56:15Z</time>
      </trkpt>
      <trkpt lat="45.75116" lon="1.93005">
        <ele>699.5</ele>
        <time>2022-08-03T07:56:17Z</time>
      </trkpt>
      <trkpt lat="45.75113" lon="1.93009">
        <ele>699.6</ele>
        <time>2022-08-03T07:56:19Z</time>
      </trkpt>
      <trkpt lat="45.75112" lon="1.9301">
        <ele>699.6</ele>
        <time>2022-08-03T07:56:21Z</time>
      </trkpt>
      <trkpt lat="45.75112" lon="1.9301">
        <ele>699.6</ele>
        <time>2022-08-03T07:56:23Z</time>
      </trkpt>
      <trkpt lat="45.75112" lon="1.9301">
        <ele>699.6</ele>
        <time>2022-08-03T07:56:25Z</time>
      </trkpt>
      <trkpt lat="45.75111" lon="1.9301">
        <ele>699.5</ele>
        <time>2022-08-03T07:56:27Z</time>
      </trkpt>
      <trkpt lat="45.75111" lon="1.9301">
        <ele>699.5</ele>
        <time>2022-08-03T07:56:29Z</time>
      </trkpt>
      <trkpt lat="45.75102" lon="1.9302">
        <ele>699.6</ele>
        <time>2022-08-03T07:56:47Z</time>
      </trkpt>
      <trkpt lat="45.75098" lon="1.93023">
        <ele>699.5</ele>
        <time>2022-08-03T07:56:49Z</time>
      </trkpt>
      <trkpt lat="45.75094" lon="1.93025">
        <ele>699.3</ele>
        <time>2022-08-03T07:56:51Z</time>
      </trkpt>
      <trkpt lat="45.7509" lon="1.93028">
        <ele>699.1</ele>
        <time>2022-08-03T07:56:53Z</time>
      </trkpt>
      <trkpt lat="45.75086" lon="1.9303">
        <ele>698.9</ele>
        <time>2022-08-03T07:56:55Z</time>
      </trkpt>
      <trkpt lat="45.75082" lon="1.93032">
        <ele>698.8</ele>
        <time>2022-08-03T07:56:57Z</time>
      </trkpt>
      <trkpt lat="45.75078" lon="1.93035">
        <ele>698.8</ele>
        <time>2022-08-03T07:56:59Z</time>
      </trkpt>
      <trkpt lat="45.75074" lon="1.93038">
        <ele>698.8</ele>
        <time>2022-08-03T07:57:01Z</time>
      </trkpt>
      <trkpt lat="45.75071" lon="1.93042">
        <ele>699</ele>
        <time>2022-08-03T07:57:03Z</time>
      </trkpt>
      <trkpt lat="45.75068" lon="1.93045">
        <ele>699.1</ele>
        <time>2022-08-03T07:57:05Z</time>
      </trkpt>
      <trkpt lat="45.75064" lon="1.93049">
        <ele>699.2</ele>
        <time>2022-08-03T07:57:07Z</time>
      </trkpt>
      <trkpt lat="45.75062" lon="1.93054">
        <ele>699.5</ele>
        <time>2022-08-03T07:57:09Z</time>
      </trkpt>
      <trkpt lat="45.75059" lon="1.93059">
        <ele>699.8</ele>
        <time>2022-08-03T07:57:11Z</time>
      </trkpt>
      <trkpt lat="45.75057" lon="1.93064">
        <ele>700.1</ele>
        <time>2022-08-03T07:57:13Z</time>
      </trkpt>
      <trkpt lat="45.75055" lon="1.93069">
        <ele>700.5</ele>
        <time>2022-08-03T07:57:15Z</time>
      </trkpt>
      <trkpt lat="45.75053" lon="1.93074">
        <ele>700.8</ele>
        <time>2022-08-03T07:57:17Z</time>
      </trkpt>
      <trkpt lat="45.75051" lon="1.9308">
        <ele>701.2</ele>
        <time>2022-08-03T07:57:19Z</time>
      </trkpt>
      <trkpt lat="45.7505" lon="1.93086">
        <ele>701.7</ele>
        <time>2022-08-03T07:57:21Z</time>
      </trkpt>
      <trkpt lat="45.75049" lon="1.93092">
        <ele>702.2</ele>
        <time>2022-08-03T07:57:23Z</time>
      </trkpt>
      <trkpt lat="45.75048" lon="1.93098">
        <ele>702.7</ele>
        <time>2022-08-03T07:57:25Z</time>
      </trkpt>
      <trkpt lat="45.75047" lon="1.93104">
        <ele>703.2</ele>
        <time>2022-08-03T07:57:27Z</time>
      </trkpt>
      <trkpt lat="45.75047" lon="1.9311">
        <ele>703.7</ele>
        <time>2022-08-03T07:57:29Z</time>
      </trkpt>
      <trkpt lat="45.75046" lon="1.93116">
        <ele>704.1</ele>
        <time>2022-08-03T07:57:31Z</time>
      </trkpt>
      <trkpt lat="45.75044" lon="1.93123">
        <ele>704.6</ele>
        <time>2022-08-03T07:57:33Z</time>
      </trkpt>
      <trkpt lat="45.75042" lon="1.93129">
        <ele>705</ele>
        <time>2022-08-03T07:57:35Z</time>
      </trkpt>
      <trkpt lat="45.75041" lon="1.93136">
        <ele>705.5</ele>
        <time>2022-08-03T07:57:37Z</time>
      </trkpt>
      <trkpt lat="45.7504" lon="1.93143">
        <ele>706</ele>
        <time>2022-08-03T07:57:39Z</time>
      </trkpt>
      <trkpt lat="45.75039" lon="1.93149">
        <ele>706.4</ele>
        <time>2022-08-03T07:57:41Z</time>
      </trkpt>
      <trkpt lat="45.75038" lon="1.93154">
        <ele>706.8</ele>
        <time>2022-08-03T07:57:43Z</time>
      </trkpt>
      <trkpt lat="45.75037" lon="1.9316">
        <ele>707.2</ele>
        <time>2022-08-03T07:57:45Z</time>
      </trkpt>
      <trkpt lat="45.75035" lon="1.93166">
        <ele>707.6</ele>
        <time>2022-08-03T07:57:47Z</time>
      </trkpt>
      <trkpt lat="45.75034" lon="1.93172">
        <ele>707.8</ele>
        <time>2022-08-03T07:57:49Z</time>
      </trkpt>
      <trkpt lat="45.75033" lon="1.93178">
        <ele>707.9</ele>
        <time>2022-08-03T07:57:51Z</time>
      </trkpt>
      <trkpt lat="45.75032" lon="1.93184">
        <ele>708.1</ele>
        <time>2022-08-03T07:57:53Z</time>
      </trkpt>
      <trkpt lat="45.75031" lon="1.9319">
        <ele>708.4</ele>
        <time>2022-08-03T07:57:55Z</time>
      </trkpt>
      <trkpt lat="45.7503" lon="1.93196">
        <ele>708.6</ele>
        <time>2022-08-03T07:57:57Z</time>
      </trkpt>
      <trkpt lat="45.7503" lon="1.93202">
        <ele>708.9</ele>
        <time>2022-08-03T07:57:59Z</time>
      </trkpt>
      <trkpt lat="45.75029" lon="1.93207">
        <ele>709.1</ele>
        <time>2022-08-03T07:58:01Z</time>
      </trkpt>
      <trkpt lat="45.75028" lon="1.93213">
        <ele>709.3</ele>
        <time>2022-08-03T07:58:03Z</time>
      </trkpt>
      <trkpt lat="45.75028" lon="1.93219">
        <ele>709.7</ele>
        <time>2022-08-03T07:58:05Z</time>
      </trkpt>
      <trkpt lat="45.75028" lon="1.93225">
        <ele>709.9</ele>
        <time>2022-08-03T07:58:07Z</time>
      </trkpt>
      <trkpt lat="45.75027" lon="1.93231">
        <ele>710.2</ele>
        <time>2022-08-03T07:58:09Z</time>
      </trkpt>
      <trkpt lat="45.75027" lon="1.93237">
        <ele>710.5</ele>
        <time>2022-08-03T07:58:11Z</time>
      </trkpt>
      <trkpt lat="45.75027" lon="1.93243">
        <ele>710.8</ele>
        <time>2022-08-03T07:58:13Z</time>
      </trkpt>
      <trkpt lat="45.75026" lon="1.93249">
        <ele>711.1</ele>
        <time>2022-08-03T07:58:15Z</time>
      </trkpt>
      <trkpt lat="45.75025" lon="1.93254">
        <ele>711.2</ele>
        <time>2022-08-03T07:58:17Z</time>
      </trkpt>
      <trkpt lat="45.75025" lon="1.9326">
        <ele>711.3</ele>
        <time>2022-08-03T07:58:19Z</time>
      </trkpt>
      <trkpt lat="45.75024" lon="1.93266">
        <ele>711.5</ele>
        <time>2022-08-03T07:58:21Z</time>
      </trkpt>
      <trkpt lat="45.75024" lon="1.93272">
        <ele>711.6</ele>
        <time>2022-08-03T07:58:23Z</time>
      </trkpt>
      <trkpt lat="45.75023" lon="1.93278">
        <ele>711.8</ele>
        <time>2022-08-03T07:58:25Z</time>
      </trkpt>
      <trkpt lat="45.75023" lon="1.93284">
        <ele>712</ele>
        <time>2022-08-03T07:58:27Z</time>
      </trkpt>
      <trkpt lat="45.75023" lon="1.93289">
        <ele>712.2</ele>
        <time>2022-08-03T07:58:29Z</time>
      </trkpt>
      <trkpt lat="45.75023" lon="1.93295">
        <ele>712.4</ele>
        <time>2022-08-03T07:58:31Z</time>
      </trkpt>
      <trkpt lat="45.75023" lon="1.93301">
        <ele>712.6</ele>
        <time>2022-08-03T07:58:33Z</time>
      </trkpt>
      <trkpt lat="45.75023" lon="1.93307">
        <ele>712.8</ele>
        <time>2022-08-03T07:58:35Z</time>
      </trkpt>
      <trkpt lat="45.75023" lon="1.93313">
        <ele>713</ele>
        <time>2022-08-03T07:58:37Z</time>
      </trkpt>
      <trkpt lat="45.75024" lon="1.93319">
        <ele>713.3</ele>
        <time>2022-08-03T07:58:39Z</time>
      </trkpt>
      <trkpt lat="45.75024" lon="1.93324">
        <ele>713.6</ele>
        <time>2022-08-03T07:58:41Z</time>
      </trkpt>
      <trkpt lat="45.75025" lon="1.9333">
        <ele>713.9</ele>
        <time>2022-08-03T07:58:43Z</time>
      </trkpt>
      <trkpt lat="45.75026" lon="1.93335">
        <ele>714.2</ele>
        <time>2022-08-03T07:58:45Z</time>
      </trkpt>
      <trkpt lat="45.75027" lon="1.93339">
        <ele>714.4</ele>
        <time>2022-08-03T07:58:47Z</time>
      </trkpt>
      <trkpt lat="45.75026" lon="1.93342">
        <ele>714.4</ele>
        <time>2022-08-03T07:58:49Z</time>
      </trkpt>
      <trkpt lat="45.75026" lon="1.93345">
        <ele>714.5</ele>
        <time>2022-08-03T07:58:51Z</time>
      </trkpt>
      <trkpt lat="45.75027" lon="1.93351">
        <ele>714.8</ele>
        <time>2022-08-03T07:58:53Z</time>
      </trkpt>
      <trkpt lat="45.75025" lon="1.93356">
        <ele>714.7</ele>
        <time>2022-08-03T07:58:55Z</time>
      </trkpt>
      <trkpt lat="45.75022" lon="1.93356">
        <ele>714.3</ele>
        <time>2022-08-03T07:58:57Z</time>
      </trkpt>
      <trkpt lat="45.75019" lon="1.93358">
        <ele>714</ele>
        <time>2022-08-03T07:58:59Z</time>
      </trkpt>
      <trkpt lat="45.75019" lon="1.9336">
        <ele>714.1</ele>
        <time>2022-08-03T07:59:01Z</time>
      </trkpt>
      <trkpt lat="45.75019" lon="1.93359">
        <ele>714.1</ele>
        <time>2022-08-03T07:59:03Z</time>
      </trkpt>
      <trkpt lat="45.75019" lon="1.93359">
        <ele>714.1</ele>
        <time>2022-08-03T07:59:05Z</time>
      </trkpt>
      <trkpt lat="45.75019" lon="1.9336">
        <ele>714.1</ele>
        <time>2022-08-03T07:59:09Z</time>
      </trkpt>
      <trkpt lat="45.75029" lon="1.93379">
        <ele>716</ele>
        <time>2022-08-03T08:26:29Z</time>
      </trkpt>
      <trkpt lat="45.75028" lon="1.93383">
        <ele>716</ele>
        <time>2022-08-03T08:26:31Z</time>
      </trkpt>
      <trkpt lat="45.75028" lon="1.93386">
        <ele>716.1</ele>
        <time>2022-08-03T08:26:33Z</time>
      </trkpt>
      <trkpt lat="45.75028" lon="1.9339">
        <ele>716.2</ele>
        <time>2022-08-03T08:26:35Z</time>
      </trkpt>
      <trkpt lat="45.75028" lon="1.93395">
        <ele>716.4</ele>
        <time>2022-08-03T08:26:37Z</time>
      </trkpt>
      <trkpt lat="45.75029" lon="1.934">
        <ele>716.6</ele>
        <time>2022-08-03T08:26:39Z</time>
      </trkpt>
      <trkpt lat="45.75029" lon="1.93405">
        <ele>716.8</ele>
        <time>2022-08-03T08:26:41Z</time>
      </trkpt>
      <trkpt lat="45.7503" lon="1.9341">
        <ele>717</ele>
        <time>2022-08-03T08:26:43Z</time>
      </trkpt>
      <trkpt lat="45.7503" lon="1.93415">
        <ele>717.3</ele>
        <time>2022-08-03T08:26:45Z</time>
      </trkpt>
      <trkpt lat="45.75031" lon="1.93421">
        <ele>717.6</ele>
        <time>2022-08-03T08:26:47Z</time>
      </trkpt>
      <trkpt lat="45.75031" lon="1.93426">
        <ele>717.8</ele>
        <time>2022-08-03T08:26:49Z</time>
      </trkpt>
      <trkpt lat="45.75032" lon="1.93431">
        <ele>718</ele>
        <time>2022-08-03T08:26:51Z</time>
      </trkpt>
      <trkpt lat="45.75033" lon="1.93435">
        <ele>718.3</ele>
        <time>2022-08-03T08:26:53Z</time>
      </trkpt>
      <trkpt lat="45.75034" lon="1.9344">
        <ele>718.6</ele>
        <time>2022-08-03T08:26:55Z</time>
      </trkpt>
      <trkpt lat="45.75035" lon="1.93444">
        <ele>718.8</ele>
        <time>2022-08-03T08:26:57Z</time>
      </trkpt>
      <trkpt lat="45.75036" lon="1.93449">
        <ele>719</ele>
        <time>2022-08-03T08:26:59Z</time>
      </trkpt>
      <trkpt lat="45.75037" lon="1.93452">
        <ele>719.3</ele>
        <time>2022-08-03T08:27:01Z</time>
      </trkpt>
      <trkpt lat="45.75038" lon="1.93458">
        <ele>719.6</ele>
        <time>2022-08-03T08:27:03Z</time>
      </trkpt>
      <trkpt lat="45.7504" lon="1.93462">
        <ele>719.9</ele>
        <time>2022-08-03T08:27:05Z</time>
      </trkpt>
      <trkpt lat="45.75041" lon="1.93467">
        <ele>720.1</ele>
        <time>2022-08-03T08:27:07Z</time>
      </trkpt>
      <trkpt lat="45.75042" lon="1.93471">
        <ele>720.3</ele>
        <time>2022-08-03T08:27:09Z</time>
      </trkpt>
      <trkpt lat="45.75043" lon="1.93476">
        <ele>720.6</ele>
        <time>2022-08-03T08:27:11Z</time>
      </trkpt>
      <trkpt lat="45.75044" lon="1.93481">
        <ele>720.8</ele>
        <time>2022-08-03T08:27:13Z</time>
      </trkpt>
      <trkpt lat="45.75045" lon="1.93485">
        <ele>721</ele>
        <time>2022-08-03T08:27:15Z</time>
      </trkpt>
      <trkpt lat="45.75045" lon="1.93491">
        <ele>721.2</ele>
        <time>2022-08-03T08:27:17Z</time>
      </trkpt>
      <trkpt lat="45.75046" lon="1.93496">
        <ele>721.3</ele>
        <time>2022-08-03T08:27:19Z</time>
      </trkpt>
      <trkpt lat="45.75046" lon="1.93502">
        <ele>721.5</ele>
        <time>2022-08-03T08:27:21Z</time>
      </trkpt>
      <trkpt lat="45.75044" lon="1.93506">
        <ele>721.5</ele>
        <time>2022-08-03T08:27:23Z</time>
      </trkpt>
      <trkpt lat="45.75044" lon="1.93512">
        <ele>721.8</ele>
        <time>2022-08-03T08:27:25Z</time>
      </trkpt>
      <trkpt lat="45.75044" lon="1.93517">
        <ele>722.1</ele>
        <time>2022-08-03T08:27:27Z</time>
      </trkpt>
      <trkpt lat="45.75043" lon="1.93523">
        <ele>722.2</ele>
        <time>2022-08-03T08:27:29Z</time>
      </trkpt>
      <trkpt lat="45.75043" lon="1.93528">
        <ele>722.5</ele>
        <time>2022-08-03T08:27:31Z</time>
      </trkpt>
      <trkpt lat="45.75044" lon="1.93533">
        <ele>722.8</ele>
        <time>2022-08-03T08:27:33Z</time>
      </trkpt>
      <trkpt lat="45.75043" lon="1.93538">
        <ele>722.9</ele>
        <time>2022-08-03T08:27:35Z</time>
      </trkpt>
      <trkpt lat="45.75042" lon="1.93544">
        <ele>723.2</ele>
        <time>2022-08-03T08:27:37Z</time>
      </trkpt>
      <trkpt lat="45.75043" lon="1.93549">
        <ele>723.4</ele>
        <time>2022-08-03T08:27:39Z</time>
      </trkpt>
      <trkpt lat="45.75043" lon="1.93555">
        <ele>723.7</ele>
        <time>2022-08-03T08:27:41Z</time>
      </trkpt>
      <trkpt lat="45.75043" lon="1.9356">
        <ele>724</ele>
        <time>2022-08-03T08:27:43Z</time>
      </trkpt>
      <trkpt lat="45.75043" lon="1.93566">
        <ele>724.3</ele>
        <time>2022-08-03T08:27:45Z</time>
      </trkpt>
      <trkpt lat="45.75043" lon="1.93571">
        <ele>724.5</ele>
        <time>2022-08-03T08:27:47Z</time>
      </trkpt>
      <trkpt lat="45.75043" lon="1.93576">
        <ele>724.7</ele>
        <time>2022-08-03T08:27:49Z</time>
      </trkpt>
      <trkpt lat="45.75043" lon="1.93582">
        <ele>725</ele>
        <time>2022-08-03T08:27:51Z</time>
      </trkpt>
      <trkpt lat="45.75043" lon="1.93587">
        <ele>725.2</ele>
        <time>2022-08-03T08:27:53Z</time>
      </trkpt>
      <trkpt lat="45.75042" lon="1.93593">
        <ele>725.5</ele>
        <time>2022-08-03T08:27:55Z</time>
      </trkpt>
      <trkpt lat="45.7504" lon="1.93598">
        <ele>725.5</ele>
        <time>2022-08-03T08:27:57Z</time>
      </trkpt>
      <trkpt lat="45.75039" lon="1.93603">
        <ele>725.6</ele>
        <time>2022-08-03T08:27:59Z</time>
      </trkpt>
      <trkpt lat="45.75037" lon="1.93609">
        <ele>725.7</ele>
        <time>2022-08-03T08:28:01Z</time>
      </trkpt>
      <trkpt lat="45.75036" lon="1.93614">
        <ele>725.8</ele>
        <time>2022-08-03T08:28:03Z</time>
      </trkpt>
      <trkpt lat="45.75034" lon="1.93619">
        <ele>725.8</ele>
        <time>2022-08-03T08:28:05Z</time>
      </trkpt>
      <trkpt lat="45.75033" lon="1.93624">
        <ele>725.9</ele>
        <time>2022-08-03T08:28:07Z</time>
      </trkpt>
      <trkpt lat="45.75031" lon="1.93628">
        <ele>726</ele>
        <time>2022-08-03T08:28:09Z</time>
      </trkpt>
      <trkpt lat="45.75029" lon="1.93632">
        <ele>726</ele>
        <time>2022-08-03T08:28:11Z</time>
      </trkpt>
      <trkpt lat="45.75028" lon="1.93636">
        <ele>726</ele>
        <time>2022-08-03T08:28:13Z</time>
      </trkpt>
      <trkpt lat="45.75026" lon="1.93642">
        <ele>726.1</ele>
        <time>2022-08-03T08:28:15Z</time>
      </trkpt>
      <trkpt lat="45.75025" lon="1.93646">
        <ele>726.2</ele>
        <time>2022-08-03T08:28:17Z</time>
      </trkpt>
      <trkpt lat="45.75023" lon="1.93651">
        <ele>726.3</ele>
        <time>2022-08-03T08:28:19Z</time>
      </trkpt>
      <trkpt lat="45.75022" lon="1.93657">
        <ele>726.4</ele>
        <time>2022-08-03T08:28:21Z</time>
      </trkpt>
      <trkpt lat="45.7502" lon="1.93662">
        <ele>726.5</ele>
        <time>2022-08-03T08:28:23Z</time>
      </trkpt>
      <trkpt lat="45.75018" lon="1.93666">
        <ele>726.5</ele>
        <time>2022-08-03T08:28:25Z</time>
      </trkpt>
      <trkpt lat="45.75016" lon="1.93671">
        <ele>726.4</ele>
        <time>2022-08-03T08:28:27Z</time>
      </trkpt>
      <trkpt lat="45.75015" lon="1.93676">
        <ele>726.5</ele>
        <time>2022-08-03T08:28:29Z</time>
      </trkpt>
      <trkpt lat="45.75014" lon="1.93681">
        <ele>726.5</ele>
        <time>2022-08-03T08:28:31Z</time>
      </trkpt>
      <trkpt lat="45.75014" lon="1.93687">
        <ele>726.7</ele>
        <time>2022-08-03T08:28:33Z</time>
      </trkpt>
      <trkpt lat="45.75013" lon="1.93693">
        <ele>726.8</ele>
        <time>2022-08-03T08:28:35Z</time>
      </trkpt>
      <trkpt lat="45.75014" lon="1.93699">
        <ele>727</ele>
        <time>2022-08-03T08:28:37Z</time>
      </trkpt>
      <trkpt lat="45.75014" lon="1.93705">
        <ele>727.2</ele>
        <time>2022-08-03T08:28:39Z</time>
      </trkpt>
      <trkpt lat="45.75016" lon="1.93711">
        <ele>727.4</ele>
        <time>2022-08-03T08:28:41Z</time>
      </trkpt>
      <trkpt lat="45.75018" lon="1.93718">
        <ele>727.7</ele>
        <time>2022-08-03T08:28:43Z</time>
      </trkpt>
      <trkpt lat="45.7502" lon="1.93724">
        <ele>727.9</ele>
        <time>2022-08-03T08:28:45Z</time>
      </trkpt>
      <trkpt lat="45.75023" lon="1.93729">
        <ele>728.1</ele>
        <time>2022-08-03T08:28:47Z</time>
      </trkpt>
      <trkpt lat="45.75025" lon="1.93735">
        <ele>728.3</ele>
        <time>2022-08-03T08:28:49Z</time>
      </trkpt>
      <trkpt lat="45.75029" lon="1.93741">
        <ele>728.6</ele>
        <time>2022-08-03T08:28:51Z</time>
      </trkpt>
      <trkpt lat="45.75032" lon="1.93748">
        <ele>728.7</ele>
        <time>2022-08-03T08:28:53Z</time>
      </trkpt>
      <trkpt lat="45.75036" lon="1.93755">
        <ele>728.7</ele>
        <time>2022-08-03T08:28:55Z</time>
      </trkpt>
      <trkpt lat="45.75039" lon="1.93763">
        <ele>728.6</ele>
        <time>2022-08-03T08:28:57Z</time>
      </trkpt>
      <trkpt lat="45.75041" lon="1.9377">
        <ele>728.4</ele>
        <time>2022-08-03T08:28:59Z</time>
      </trkpt>
      <trkpt lat="45.75045" lon="1.93778">
        <ele>728.2</ele>
        <time>2022-08-03T08:29:01Z</time>
      </trkpt>
      <trkpt lat="45.75048" lon="1.93787">
        <ele>727.9</ele>
        <time>2022-08-03T08:29:03Z</time>
      </trkpt>
      <trkpt lat="45.75052" lon="1.93796">
        <ele>727.5</ele>
        <time>2022-08-03T08:29:05Z</time>
      </trkpt>
      <trkpt lat="45.75056" lon="1.93805">
        <ele>727.1</ele>
        <time>2022-08-03T08:29:07Z</time>
      </trkpt>
      <trkpt lat="45.75061" lon="1.93816">
        <ele>726.6</ele>
        <time>2022-08-03T08:29:09Z</time>
      </trkpt>
      <trkpt lat="45.75066" lon="1.93828">
        <ele>725.9</ele>
        <time>2022-08-03T08:29:11Z</time>
      </trkpt>
      <trkpt lat="45.75071" lon="1.9384">
        <ele>725.3</ele>
        <time>2022-08-03T08:29:13Z</time>
      </trkpt>
      <trkpt lat="45.75077" lon="1.93852">
        <ele>725</ele>
        <time>2022-08-03T08:29:15Z</time>
      </trkpt>
      <trkpt lat="45.75082" lon="1.93864">
        <ele>724.7</ele>
        <time>2022-08-03T08:29:17Z</time>
      </trkpt>
      <trkpt lat="45.75086" lon="1.93881">
        <ele>724.8</ele>
        <time>2022-08-03T08:29:19Z</time>
      </trkpt>
      <trkpt lat="45.75093" lon="1.93892">
        <ele>725.4</ele>
        <time>2022-08-03T08:29:21Z</time>
      </trkpt>
      <trkpt lat="45.75099" lon="1.93906">
        <ele>725.7</ele>
        <time>2022-08-03T08:29:23Z</time>
      </trkpt>
      <trkpt lat="45.75105" lon="1.93921">
        <ele>725.6</ele>
        <time>2022-08-03T08:29:25Z</time>
      </trkpt>
      <trkpt lat="45.75111" lon="1.93936">
        <ele>725.3</ele>
        <time>2022-08-03T08:29:27Z</time>
      </trkpt>
      <trkpt lat="45.75119" lon="1.93952">
        <ele>725</ele>
        <time>2022-08-03T08:29:29Z</time>
      </trkpt>
      <trkpt lat="45.75125" lon="1.93969">
        <ele>724.4</ele>
        <time>2022-08-03T08:29:31Z</time>
      </trkpt>
      <trkpt lat="45.75133" lon="1.93986">
        <ele>723.7</ele>
        <time>2022-08-03T08:29:33Z</time>
      </trkpt>
      <trkpt lat="45.75141" lon="1.94004">
        <ele>722.9</ele>
        <time>2022-08-03T08:29:35Z</time>
      </trkpt>
      <trkpt lat="45.75148" lon="1.94022">
        <ele>722.5</ele>
        <time>2022-08-03T08:29:37Z</time>
      </trkpt>
      <trkpt lat="45.75155" lon="1.94041">
        <ele>722.1</ele>
        <time>2022-08-03T08:29:39Z</time>
      </trkpt>
      <trkpt lat="45.75163" lon="1.94059">
        <ele>721.8</ele>
        <time>2022-08-03T08:29:41Z</time>
      </trkpt>
      <trkpt lat="45.75171" lon="1.94077">
        <ele>721.7</ele>
        <time>2022-08-03T08:29:43Z</time>
      </trkpt>
      <trkpt lat="45.75179" lon="1.94095">
        <ele>721.6</ele>
        <time>2022-08-03T08:29:45Z</time>
      </trkpt>
      <trkpt lat="45.75187" lon="1.94114">
        <ele>721.5</ele>
        <time>2022-08-03T08:29:47Z</time>
      </trkpt>
      <trkpt lat="45.75194" lon="1.94131">
        <ele>721.3</ele>
        <time>2022-08-03T08:29:49Z</time>
      </trkpt>
      <trkpt lat="45.75205" lon="1.9415">
        <ele>721.4</ele>
        <time>2022-08-03T08:29:51Z</time>
      </trkpt>
      <trkpt lat="45.75213" lon="1.94169">
        <ele>721.3</ele>
        <time>2022-08-03T08:29:53Z</time>
      </trkpt>
      <trkpt lat="45.75221" lon="1.94188">
        <ele>721.5</ele>
        <time>2022-08-03T08:29:55Z</time>
      </trkpt>
      <trkpt lat="45.75228" lon="1.94207">
        <ele>721.7</ele>
        <time>2022-08-03T08:29:57Z</time>
      </trkpt>
      <trkpt lat="45.75236" lon="1.94226">
        <ele>722</ele>
        <time>2022-08-03T08:29:59Z</time>
      </trkpt>
      <trkpt lat="45.75245" lon="1.94246">
        <ele>722.5</ele>
        <time>2022-08-03T08:30:01Z</time>
      </trkpt>
      <trkpt lat="45.75253" lon="1.94266">
        <ele>722</ele>
        <time>2022-08-03T08:30:03Z</time>
      </trkpt>
      <trkpt lat="45.75262" lon="1.94285">
        <ele>721.3</ele>
        <time>2022-08-03T08:30:05Z</time>
      </trkpt>
      <trkpt lat="45.7527" lon="1.94304">
        <ele>720.5</ele>
        <time>2022-08-03T08:30:07Z</time>
      </trkpt>
      <trkpt lat="45.75278" lon="1.94323">
        <ele>719.8</ele>
        <time>2022-08-03T08:30:09Z</time>
      </trkpt>
      <trkpt lat="45.75286" lon="1.94343">
        <ele>718.7</ele>
        <time>2022-08-03T08:30:11Z</time>
      </trkpt>
      <trkpt lat="45.75295" lon="1.94363">
        <ele>717</ele>
        <time>2022-08-03T08:30:13Z</time>
      </trkpt>
      <trkpt lat="45.75304" lon="1.94382">
        <ele>714.9</ele>
        <time>2022-08-03T08:30:15Z</time>
      </trkpt>
      <trkpt lat="45.75313" lon="1.94403">
        <ele>712.1</ele>
        <time>2022-08-03T08:30:17Z</time>
      </trkpt>
      <trkpt lat="45.75322" lon="1.94423">
        <ele>709.9</ele>
        <time>2022-08-03T08:30:19Z</time>
      </trkpt>
      <trkpt lat="45.7533" lon="1.94445">
        <ele>709.4</ele>
        <time>2022-08-03T08:30:21Z</time>
      </trkpt>
      <trkpt lat="45.75339" lon="1.94465">
        <ele>709</ele>
        <time>2022-08-03T08:30:23Z</time>
      </trkpt>
      <trkpt lat="45.75348" lon="1.94487">
        <ele>708.7</ele>
        <time>2022-08-03T08:30:25Z</time>
      </trkpt>
      <trkpt lat="45.75354" lon="1.94508">
        <ele>708.5</ele>
        <time>2022-08-03T08:30:27Z</time>
      </trkpt>
      <trkpt lat="45.75361" lon="1.94529">
        <ele>708.7</ele>
        <time>2022-08-03T08:30:29Z</time>
      </trkpt>
      <trkpt lat="45.75366" lon="1.94548">
        <ele>708.8</ele>
        <time>2022-08-03T08:30:31Z</time>
      </trkpt>
      <trkpt lat="45.7537" lon="1.94565">
        <ele>708.9</ele>
        <time>2022-08-03T08:30:33Z</time>
      </trkpt>
      <trkpt lat="45.75375" lon="1.94581">
        <ele>709</ele>
        <time>2022-08-03T08:30:35Z</time>
      </trkpt>
      <trkpt lat="45.75379" lon="1.94596">
        <ele>709</ele>
        <time>2022-08-03T08:30:37Z</time>
      </trkpt>
      <trkpt lat="45.75383" lon="1.9461">
        <ele>709.1</ele>
        <time>2022-08-03T08:30:39Z</time>
      </trkpt>
      <trkpt lat="45.75386" lon="1.94623">
        <ele>709.1</ele>
        <time>2022-08-03T08:30:41Z</time>
      </trkpt>
      <trkpt lat="45.75389" lon="1.94636">
        <ele>709.1</ele>
        <time>2022-08-03T08:30:43Z</time>
      </trkpt>
      <trkpt lat="45.75393" lon="1.94649">
        <ele>709.2</ele>
        <time>2022-08-03T08:30:45Z</time>
      </trkpt>
      <trkpt lat="45.75396" lon="1.94661">
        <ele>709.3</ele>
        <time>2022-08-03T08:30:47Z</time>
      </trkpt>
      <trkpt lat="45.754" lon="1.94675">
        <ele>709.6</ele>
        <time>2022-08-03T08:30:49Z</time>
      </trkpt>
      <trkpt lat="45.75403" lon="1.94688">
        <ele>710.1</ele>
        <time>2022-08-03T08:30:51Z</time>
      </trkpt>
      <trkpt lat="45.75407" lon="1.94702">
        <ele>710.6</ele>
        <time>2022-08-03T08:30:53Z</time>
      </trkpt>
      <trkpt lat="45.7541" lon="1.94715">
        <ele>711.1</ele>
        <time>2022-08-03T08:30:55Z</time>
      </trkpt>
      <trkpt lat="45.75413" lon="1.94729">
        <ele>711.5</ele>
        <time>2022-08-03T08:30:57Z</time>
      </trkpt>
      <trkpt lat="45.75417" lon="1.94742">
        <ele>711.9</ele>
        <time>2022-08-03T08:30:59Z</time>
      </trkpt>
      <trkpt lat="45.75421" lon="1.94757">
        <ele>712.4</ele>
        <time>2022-08-03T08:31:01Z</time>
      </trkpt>
      <trkpt lat="45.75426" lon="1.94771">
        <ele>712.8</ele>
        <time>2022-08-03T08:31:03Z</time>
      </trkpt>
      <trkpt lat="45.75432" lon="1.94785">
        <ele>713.2</ele>
        <time>2022-08-03T08:31:05Z</time>
      </trkpt>
      <trkpt lat="45.75438" lon="1.94798">
        <ele>713.6</ele>
        <time>2022-08-03T08:31:07Z</time>
      </trkpt>
      <trkpt lat="45.75445" lon="1.94809">
        <ele>714</ele>
        <time>2022-08-03T08:31:09Z</time>
      </trkpt>
      <trkpt lat="45.75452" lon="1.94819">
        <ele>714.3</ele>
        <time>2022-08-03T08:31:11Z</time>
      </trkpt>
      <trkpt lat="45.7546" lon="1.94828">
        <ele>714.7</ele>
        <time>2022-08-03T08:31:13Z</time>
      </trkpt>
      <trkpt lat="45.75469" lon="1.94835">
        <ele>715</ele>
        <time>2022-08-03T08:31:15Z</time>
      </trkpt>
      <trkpt lat="45.75478" lon="1.94841">
        <ele>715.4</ele>
        <time>2022-08-03T08:31:17Z</time>
      </trkpt>
      <trkpt lat="45.75486" lon="1.94851">
        <ele>715.4</ele>
        <time>2022-08-03T08:31:19Z</time>
      </trkpt>
      <trkpt lat="45.75494" lon="1.94858">
        <ele>715.5</ele>
        <time>2022-08-03T08:31:21Z</time>
      </trkpt>
      <trkpt lat="45.75502" lon="1.94865">
        <ele>715.6</ele>
        <time>2022-08-03T08:31:23Z</time>
      </trkpt>
      <trkpt lat="45.7551" lon="1.94875">
        <ele>715.5</ele>
        <time>2022-08-03T08:31:25Z</time>
      </trkpt>
      <trkpt lat="45.75516" lon="1.9488">
        <ele>715.5</ele>
        <time>2022-08-03T08:31:27Z</time>
      </trkpt>
      <trkpt lat="45.75524" lon="1.94886">
        <ele>715.4</ele>
        <time>2022-08-03T08:31:29Z</time>
      </trkpt>
      <trkpt lat="45.75528" lon="1.94893">
        <ele>715.2</ele>
        <time>2022-08-03T08:31:31Z</time>
      </trkpt>
      <trkpt lat="45.75537" lon="1.94897">
        <ele>715.3</ele>
        <time>2022-08-03T08:31:33Z</time>
      </trkpt>
      <trkpt lat="45.75544" lon="1.94904">
        <ele>715</ele>
        <time>2022-08-03T08:31:35Z</time>
      </trkpt>
      <trkpt lat="45.7555" lon="1.94911">
        <ele>714.6</ele>
        <time>2022-08-03T08:31:37Z</time>
      </trkpt>
      <trkpt lat="45.75558" lon="1.94916">
        <ele>714.5</ele>
        <time>2022-08-03T08:31:39Z</time>
      </trkpt>
      <trkpt lat="45.75565" lon="1.94922">
        <ele>714.3</ele>
        <time>2022-08-03T08:31:41Z</time>
      </trkpt>
      <trkpt lat="45.75572" lon="1.94929">
        <ele>714.1</ele>
        <time>2022-08-03T08:31:43Z</time>
      </trkpt>
      <trkpt lat="45.75579" lon="1.94938">
        <ele>713.9</ele>
        <time>2022-08-03T08:31:45Z</time>
      </trkpt>
      <trkpt lat="45.75587" lon="1.94946">
        <ele>713.7</ele>
        <time>2022-08-03T08:31:47Z</time>
      </trkpt>
      <trkpt lat="45.75592" lon="1.94958">
        <ele>713.3</ele>
        <time>2022-08-03T08:31:49Z</time>
      </trkpt>
      <trkpt lat="45.75598" lon="1.94965">
        <ele>713.2</ele>
        <time>2022-08-03T08:31:51Z</time>
      </trkpt>
      <trkpt lat="45.75606" lon="1.94975">
        <ele>713.1</ele>
        <time>2022-08-03T08:31:53Z</time>
      </trkpt>
      <trkpt lat="45.75612" lon="1.94984">
        <ele>713</ele>
        <time>2022-08-03T08:31:55Z</time>
      </trkpt>
      <trkpt lat="45.75618" lon="1.94993">
        <ele>713</ele>
        <time>2022-08-03T08:31:57Z</time>
      </trkpt>
      <trkpt lat="45.75624" lon="1.95">
        <ele>713</ele>
        <time>2022-08-03T08:31:59Z</time>
      </trkpt>
      <trkpt lat="45.75629" lon="1.9501">
        <ele>713.2</ele>
        <time>2022-08-03T08:32:01Z</time>
      </trkpt>
      <trkpt lat="45.75635" lon="1.95017">
        <ele>713.4</ele>
        <time>2022-08-03T08:32:03Z</time>
      </trkpt>
      <trkpt lat="45.75641" lon="1.95027">
        <ele>713.7</ele>
        <time>2022-08-03T08:32:05Z</time>
      </trkpt>
      <trkpt lat="45.75646" lon="1.95036">
        <ele>713.9</ele>
        <time>2022-08-03T08:32:07Z</time>
      </trkpt>
      <trkpt lat="45.75651" lon="1.95045">
        <ele>714.1</ele>
        <time>2022-08-03T08:32:09Z</time>
      </trkpt>
      <trkpt lat="45.75657" lon="1.95053">
        <ele>714.4</ele>
        <time>2022-08-03T08:32:11Z</time>
      </trkpt>
      <trkpt lat="45.75661" lon="1.95061">
        <ele>714.7</ele>
        <time>2022-08-03T08:32:13Z</time>
      </trkpt>
      <trkpt lat="45.75666" lon="1.95068">
        <ele>715</ele>
        <time>2022-08-03T08:32:15Z</time>
      </trkpt>
      <trkpt lat="45.75671" lon="1.95077">
        <ele>715.4</ele>
        <time>2022-08-03T08:32:17Z</time>
      </trkpt>
      <trkpt lat="45.75675" lon="1.95085">
        <ele>715.8</ele>
        <time>2022-08-03T08:32:19Z</time>
      </trkpt>
      <trkpt lat="45.7568" lon="1.95092">
        <ele>716.2</ele>
        <time>2022-08-03T08:32:21Z</time>
      </trkpt>
      <trkpt lat="45.75684" lon="1.951">
        <ele>716.4</ele>
        <time>2022-08-03T08:32:23Z</time>
      </trkpt>
      <trkpt lat="45.75689" lon="1.95107">
        <ele>716.7</ele>
        <time>2022-08-03T08:32:25Z</time>
      </trkpt>
      <trkpt lat="45.75694" lon="1.95113">
        <ele>717</ele>
        <time>2022-08-03T08:32:27Z</time>
      </trkpt>
      <trkpt lat="45.75697" lon="1.95121">
        <ele>717.1</ele>
        <time>2022-08-03T08:32:29Z</time>
      </trkpt>
      <trkpt lat="45.757" lon="1.9513">
        <ele>717.2</ele>
        <time>2022-08-03T08:32:31Z</time>
      </trkpt>
      <trkpt lat="45.757" lon="1.95139">
        <ele>717</ele>
        <time>2022-08-03T08:32:33Z</time>
      </trkpt>
      <trkpt lat="45.75701" lon="1.9515">
        <ele>716.8</ele>
        <time>2022-08-03T08:32:35Z</time>
      </trkpt>
      <trkpt lat="45.75701" lon="1.9516">
        <ele>716.6</ele>
        <time>2022-08-03T08:32:37Z</time>
      </trkpt>
      <trkpt lat="45.75701" lon="1.95171">
        <ele>716.4</ele>
        <time>2022-08-03T08:32:39Z</time>
      </trkpt>
      <trkpt lat="45.75701" lon="1.95183">
        <ele>716.2</ele>
        <time>2022-08-03T08:32:41Z</time>
      </trkpt>
      <trkpt lat="45.75701" lon="1.95194">
        <ele>716.1</ele>
        <time>2022-08-03T08:32:43Z</time>
      </trkpt>
      <trkpt lat="45.757" lon="1.95207">
        <ele>715.9</ele>
        <time>2022-08-03T08:32:45Z</time>
      </trkpt>
      <trkpt lat="45.75699" lon="1.95218">
        <ele>715.6</ele>
        <time>2022-08-03T08:32:47Z</time>
      </trkpt>
      <trkpt lat="45.75697" lon="1.9523">
        <ele>715.4</ele>
        <time>2022-08-03T08:32:49Z</time>
      </trkpt>
      <trkpt lat="45.75696" lon="1.95241">
        <ele>715.2</ele>
        <time>2022-08-03T08:32:51Z</time>
      </trkpt>
      <trkpt lat="45.75695" lon="1.95253">
        <ele>715</ele>
        <time>2022-08-03T08:32:53Z</time>
      </trkpt>
      <trkpt lat="45.75693" lon="1.95265">
        <ele>714.6</ele>
        <time>2022-08-03T08:32:55Z</time>
      </trkpt>
      <trkpt lat="45.75692" lon="1.95277">
        <ele>714.4</ele>
        <time>2022-08-03T08:32:57Z</time>
      </trkpt>
      <trkpt lat="45.75691" lon="1.9529">
        <ele>714</ele>
        <time>2022-08-03T08:32:59Z</time>
      </trkpt>
      <trkpt lat="45.75689" lon="1.95304">
        <ele>713.7</ele>
        <time>2022-08-03T08:33:01Z</time>
      </trkpt>
      <trkpt lat="45.75685" lon="1.95315">
        <ele>713.3</ele>
        <time>2022-08-03T08:33:03Z</time>
      </trkpt>
      <trkpt lat="45.75679" lon="1.95327">
        <ele>712.7</ele>
        <time>2022-08-03T08:33:05Z</time>
      </trkpt>
      <trkpt lat="45.7567" lon="1.95336">
        <ele>712</ele>
        <time>2022-08-03T08:33:07Z</time>
      </trkpt>
      <trkpt lat="45.75661" lon="1.95341">
        <ele>711.7</ele>
        <time>2022-08-03T08:33:09Z</time>
      </trkpt>
      <trkpt lat="45.7565" lon="1.95343">
        <ele>711.7</ele>
        <time>2022-08-03T08:33:11Z</time>
      </trkpt>
      <trkpt lat="45.75639" lon="1.95344">
        <ele>711.7</ele>
        <time>2022-08-03T08:33:13Z</time>
      </trkpt>
      <trkpt lat="45.75629" lon="1.95347">
        <ele>711.8</ele>
        <time>2022-08-03T08:33:15Z</time>
      </trkpt>
      <trkpt lat="45.75618" lon="1.9535">
        <ele>711.9</ele>
        <time>2022-08-03T08:33:17Z</time>
      </trkpt>
      <trkpt lat="45.75608" lon="1.95354">
        <ele>712</ele>
        <time>2022-08-03T08:33:19Z</time>
      </trkpt>
      <trkpt lat="45.756" lon="1.95358">
        <ele>712.2</ele>
        <time>2022-08-03T08:33:21Z</time>
      </trkpt>
      <trkpt lat="45.75591" lon="1.95364">
        <ele>712.5</ele>
        <time>2022-08-03T08:33:23Z</time>
      </trkpt>
      <trkpt lat="45.75583" lon="1.95372">
        <ele>713</ele>
        <time>2022-08-03T08:33:25Z</time>
      </trkpt>
      <trkpt lat="45.75577" lon="1.95384">
        <ele>713.9</ele>
        <time>2022-08-03T08:33:27Z</time>
      </trkpt>
      <trkpt lat="45.75572" lon="1.95399">
        <ele>714.7</ele>
        <time>2022-08-03T08:33:29Z</time>
      </trkpt>
      <trkpt lat="45.7557" lon="1.95412">
        <ele>715.2</ele>
        <time>2022-08-03T08:33:31Z</time>
      </trkpt>
      <trkpt lat="45.75566" lon="1.95425">
        <ele>715.1</ele>
        <time>2022-08-03T08:33:33Z</time>
      </trkpt>
      <trkpt lat="45.75561" lon="1.9544">
        <ele>714.5</ele>
        <time>2022-08-03T08:33:35Z</time>
      </trkpt>
      <trkpt lat="45.75554" lon="1.9545">
        <ele>714.3</ele>
        <time>2022-08-03T08:33:37Z</time>
      </trkpt>
      <trkpt lat="45.75544" lon="1.95457">
        <ele>714.2</ele>
        <time>2022-08-03T08:33:39Z</time>
      </trkpt>
      <trkpt lat="45.75534" lon="1.9546">
        <ele>714.5</ele>
        <time>2022-08-03T08:33:41Z</time>
      </trkpt>
      <trkpt lat="45.75523" lon="1.95464">
        <ele>714.7</ele>
        <time>2022-08-03T08:33:43Z</time>
      </trkpt>
      <trkpt lat="45.75512" lon="1.95465">
        <ele>715.1</ele>
        <time>2022-08-03T08:33:45Z</time>
      </trkpt>
      <trkpt lat="45.75501" lon="1.95465">
        <ele>715.6</ele>
        <time>2022-08-03T08:33:47Z</time>
      </trkpt>
      <trkpt lat="45.75491" lon="1.95465">
        <ele>715.6</ele>
        <time>2022-08-03T08:33:49Z</time>
      </trkpt>
      <trkpt lat="45.75482" lon="1.95463">
        <ele>716</ele>
        <time>2022-08-03T08:33:51Z</time>
      </trkpt>
      <trkpt lat="45.75471" lon="1.95465">
        <ele>715.8</ele>
        <time>2022-08-03T08:33:53Z</time>
      </trkpt>
      <trkpt lat="45.75461" lon="1.95466">
        <ele>715.8</ele>
        <time>2022-08-03T08:33:55Z</time>
      </trkpt>
      <trkpt lat="45.75452" lon="1.95465">
        <ele>715.9</ele>
        <time>2022-08-03T08:33:57Z</time>
      </trkpt>
      <trkpt lat="45.75442" lon="1.95465">
        <ele>716</ele>
        <time>2022-08-03T08:33:59Z</time>
      </trkpt>
      <trkpt lat="45.75432" lon="1.95466">
        <ele>715.9</ele>
        <time>2022-08-03T08:34:01Z</time>
      </trkpt>
      <trkpt lat="45.75423" lon="1.95467">
        <ele>715.9</ele>
        <time>2022-08-03T08:34:03Z</time>
      </trkpt>
      <trkpt lat="45.75414" lon="1.95466">
        <ele>716.2</ele>
        <time>2022-08-03T08:34:05Z</time>
      </trkpt>
      <trkpt lat="45.75404" lon="1.95465">
        <ele>716.7</ele>
        <time>2022-08-03T08:34:07Z</time>
      </trkpt>
      <trkpt lat="45.75396" lon="1.95465">
        <ele>717.2</ele>
        <time>2022-08-03T08:34:09Z</time>
      </trkpt>
      <trkpt lat="45.75386" lon="1.95463">
        <ele>717.8</ele>
        <time>2022-08-03T08:34:11Z</time>
      </trkpt>
      <trkpt lat="45.75378" lon="1.95461">
        <ele>718.4</ele>
        <time>2022-08-03T08:34:13Z</time>
      </trkpt>
      <trkpt lat="45.75369" lon="1.9546">
        <ele>718.9</ele>
        <time>2022-08-03T08:34:15Z</time>
      </trkpt>
      <trkpt lat="45.75361" lon="1.9546">
        <ele>719.3</ele>
        <time>2022-08-03T08:34:17Z</time>
      </trkpt>
      <trkpt lat="45.75353" lon="1.95463">
        <ele>719.6</ele>
        <time>2022-08-03T08:34:19Z</time>
      </trkpt>
      <trkpt lat="45.75346" lon="1.95466">
        <ele>719.7</ele>
        <time>2022-08-03T08:34:21Z</time>
      </trkpt>
      <trkpt lat="45.75338" lon="1.9547">
        <ele>719.6</ele>
        <time>2022-08-03T08:34:23Z</time>
      </trkpt>
      <trkpt lat="45.75331" lon="1.95477">
        <ele>719.5</ele>
        <time>2022-08-03T08:34:25Z</time>
      </trkpt>
      <trkpt lat="45.75323" lon="1.95484">
        <ele>719.7</ele>
        <time>2022-08-03T08:34:27Z</time>
      </trkpt>
      <trkpt lat="45.75317" lon="1.95492">
        <ele>719.7</ele>
        <time>2022-08-03T08:34:29Z</time>
      </trkpt>
      <trkpt lat="45.7531" lon="1.95499">
        <ele>719.8</ele>
        <time>2022-08-03T08:34:31Z</time>
      </trkpt>
      <trkpt lat="45.75304" lon="1.95508">
        <ele>719.9</ele>
        <time>2022-08-03T08:34:33Z</time>
      </trkpt>
      <trkpt lat="45.75297" lon="1.95516">
        <ele>719.9</ele>
        <time>2022-08-03T08:34:35Z</time>
      </trkpt>
      <trkpt lat="45.75291" lon="1.95524">
        <ele>720</ele>
        <time>2022-08-03T08:34:37Z</time>
      </trkpt>
      <trkpt lat="45.75284" lon="1.95532">
        <ele>720</ele>
        <time>2022-08-03T08:34:39Z</time>
      </trkpt>
      <trkpt lat="45.75277" lon="1.9554">
        <ele>719.9</ele>
        <time>2022-08-03T08:34:41Z</time>
      </trkpt>
      <trkpt lat="45.7527" lon="1.95547">
        <ele>719.9</ele>
        <time>2022-08-03T08:34:43Z</time>
      </trkpt>
      <trkpt lat="45.75263" lon="1.95554">
        <ele>719.9</ele>
        <time>2022-08-03T08:34:45Z</time>
      </trkpt>
      <trkpt lat="45.75256" lon="1.9556">
        <ele>720</ele>
        <time>2022-08-03T08:34:47Z</time>
      </trkpt>
      <trkpt lat="45.75248" lon="1.95564">
        <ele>720.1</ele>
        <time>2022-08-03T08:34:49Z</time>
      </trkpt>
      <trkpt lat="45.75241" lon="1.95567">
        <ele>719.7</ele>
        <time>2022-08-03T08:34:51Z</time>
      </trkpt>
      <trkpt lat="45.75233" lon="1.9557">
        <ele>719.4</ele>
        <time>2022-08-03T08:34:53Z</time>
      </trkpt>
      <trkpt lat="45.75225" lon="1.95572">
        <ele>719.2</ele>
        <time>2022-08-03T08:34:55Z</time>
      </trkpt>
      <trkpt lat="45.75217" lon="1.95575">
        <ele>718.9</ele>
        <time>2022-08-03T08:34:57Z</time>
      </trkpt>
      <trkpt lat="45.75209" lon="1.95577">
        <ele>718.6</ele>
        <time>2022-08-03T08:34:59Z</time>
      </trkpt>
      <trkpt lat="45.75201" lon="1.9558">
        <ele>718.3</ele>
        <time>2022-08-03T08:35:01Z</time>
      </trkpt>
      <trkpt lat="45.75192" lon="1.95583">
        <ele>718.1</ele>
        <time>2022-08-03T08:35:03Z</time>
      </trkpt>
      <trkpt lat="45.75184" lon="1.95585">
        <ele>717.9</ele>
        <time>2022-08-03T08:35:05Z</time>
      </trkpt>
      <trkpt lat="45.75176" lon="1.95587">
        <ele>717.7</ele>
        <time>2022-08-03T08:35:07Z</time>
      </trkpt>
      <trkpt lat="45.75168" lon="1.9559">
        <ele>717.6</ele>
        <time>2022-08-03T08:35:09Z</time>
      </trkpt>
      <trkpt lat="45.7516" lon="1.95592">
        <ele>717.5</ele>
        <time>2022-08-03T08:35:11Z</time>
      </trkpt>
      <trkpt lat="45.75152" lon="1.95595">
        <ele>717.4</ele>
        <time>2022-08-03T08:35:13Z</time>
      </trkpt>
      <trkpt lat="45.75143" lon="1.95597">
        <ele>717.4</ele>
        <time>2022-08-03T08:35:15Z</time>
      </trkpt>
      <trkpt lat="45.75135" lon="1.95599">
        <ele>717.3</ele>
        <time>2022-08-03T08:35:17Z</time>
      </trkpt>
      <trkpt lat="45.75126" lon="1.95603">
        <ele>717.3</ele>
        <time>2022-08-03T08:35:19Z</time>
      </trkpt>
      <trkpt lat="45.75118" lon="1.95607">
        <ele>717.2</ele>
        <time>2022-08-03T08:35:21Z</time>
      </trkpt>
      <trkpt lat="45.7511" lon="1.95613">
        <ele>717.2</ele>
        <time>2022-08-03T08:35:23Z</time>
      </trkpt>
      <trkpt lat="45.75103" lon="1.9562">
        <ele>717.1</ele>
        <time>2022-08-03T08:35:25Z</time>
      </trkpt>
      <trkpt lat="45.75097" lon="1.95631">
        <ele>717.1</ele>
        <time>2022-08-03T08:35:27Z</time>
      </trkpt>
      <trkpt lat="45.75092" lon="1.95641">
        <ele>717</ele>
        <time>2022-08-03T08:35:29Z</time>
      </trkpt>
      <trkpt lat="45.75088" lon="1.95652">
        <ele>717</ele>
        <time>2022-08-03T08:35:31Z</time>
      </trkpt>
      <trkpt lat="45.75084" lon="1.95663">
        <ele>717</ele>
        <time>2022-08-03T08:35:33Z</time>
      </trkpt>
      <trkpt lat="45.75081" lon="1.95675">
        <ele>717</ele>
        <time>2022-08-03T08:35:35Z</time>
      </trkpt>
      <trkpt lat="45.75077" lon="1.95686">
        <ele>717.1</ele>
        <time>2022-08-03T08:35:37Z</time>
      </trkpt>
      <trkpt lat="45.75071" lon="1.95696">
        <ele>717.1</ele>
        <time>2022-08-03T08:35:39Z</time>
      </trkpt>
      <trkpt lat="45.75064" lon="1.95702">
        <ele>717.2</ele>
        <time>2022-08-03T08:35:41Z</time>
      </trkpt>
      <trkpt lat="45.75056" lon="1.95707">
        <ele>717.4</ele>
        <time>2022-08-03T08:35:43Z</time>
      </trkpt>
      <trkpt lat="45.75048" lon="1.95709">
        <ele>717.5</ele>
        <time>2022-08-03T08:35:45Z</time>
      </trkpt>
      <trkpt lat="45.75041" lon="1.95711">
        <ele>717.7</ele>
        <time>2022-08-03T08:35:47Z</time>
      </trkpt>
      <trkpt lat="45.75035" lon="1.95711">
        <ele>717.8</ele>
        <time>2022-08-03T08:35:49Z</time>
      </trkpt>
      <trkpt lat="45.75029" lon="1.95713">
        <ele>717.9</ele>
        <time>2022-08-03T08:35:51Z</time>
      </trkpt>
      <trkpt lat="45.75022" lon="1.95717">
        <ele>717.8</ele>
        <time>2022-08-03T08:35:53Z</time>
      </trkpt>
      <trkpt lat="45.75016" lon="1.95721">
        <ele>717.7</ele>
        <time>2022-08-03T08:35:55Z</time>
      </trkpt>
      <trkpt lat="45.75009" lon="1.95727">
        <ele>717.5</ele>
        <time>2022-08-03T08:35:57Z</time>
      </trkpt>
      <trkpt lat="45.75003" lon="1.95734">
        <ele>717.1</ele>
        <time>2022-08-03T08:35:59Z</time>
      </trkpt>
      <trkpt lat="45.74997" lon="1.95741">
        <ele>716.7</ele>
        <time>2022-08-03T08:36:01Z</time>
      </trkpt>
      <trkpt lat="45.74992" lon="1.95749">
        <ele>716.4</ele>
        <time>2022-08-03T08:36:03Z</time>
      </trkpt>
      <trkpt lat="45.74989" lon="1.95756">
        <ele>716.3</ele>
        <time>2022-08-03T08:36:05Z</time>
      </trkpt>
      <trkpt lat="45.74986" lon="1.95765">
        <ele>716.4</ele>
        <time>2022-08-03T08:36:07Z</time>
      </trkpt>
      <trkpt lat="45.74984" lon="1.95773">
        <ele>716.3</ele>
        <time>2022-08-03T08:36:09Z</time>
      </trkpt>
      <trkpt lat="45.7498" lon="1.95782">
        <ele>716.3</ele>
        <time>2022-08-03T08:36:11Z</time>
      </trkpt>
      <trkpt lat="45.74978" lon="1.95791">
        <ele>716.1</ele>
        <time>2022-08-03T08:36:13Z</time>
      </trkpt>
      <trkpt lat="45.74975" lon="1.95799">
        <ele>716</ele>
        <time>2022-08-03T08:36:15Z</time>
      </trkpt>
      <trkpt lat="45.74972" lon="1.95807">
        <ele>715.8</ele>
        <time>2022-08-03T08:36:17Z</time>
      </trkpt>
      <trkpt lat="45.74968" lon="1.95815">
        <ele>715.7</ele>
        <time>2022-08-03T08:36:19Z</time>
      </trkpt>
      <trkpt lat="45.74963" lon="1.95822">
        <ele>715.4</ele>
        <time>2022-08-03T08:36:21Z</time>
      </trkpt>
      <trkpt lat="45.74959" lon="1.95829">
        <ele>715.1</ele>
        <time>2022-08-03T08:36:23Z</time>
      </trkpt>
      <trkpt lat="45.74954" lon="1.95838">
        <ele>715.1</ele>
        <time>2022-08-03T08:36:25Z</time>
      </trkpt>
      <trkpt lat="45.74951" lon="1.95843">
        <ele>715.4</ele>
        <time>2022-08-03T08:36:27Z</time>
      </trkpt>
      <trkpt lat="45.74947" lon="1.95847">
        <ele>715.4</ele>
        <time>2022-08-03T08:36:29Z</time>
      </trkpt>
      <trkpt lat="45.74939" lon="1.95848">
        <ele>715.3</ele>
        <time>2022-08-03T08:36:31Z</time>
      </trkpt>
      <trkpt lat="45.74933" lon="1.95848">
        <ele>715.1</ele>
        <time>2022-08-03T08:36:33Z</time>
      </trkpt>
      <trkpt lat="45.74926" lon="1.95845">
        <ele>714.8</ele>
        <time>2022-08-03T08:36:35Z</time>
      </trkpt>
      <trkpt lat="45.74919" lon="1.95842">
        <ele>714.5</ele>
        <time>2022-08-03T08:36:37Z</time>
      </trkpt>
      <trkpt lat="45.74913" lon="1.95836">
        <ele>714.1</ele>
        <time>2022-08-03T08:36:39Z</time>
      </trkpt>
      <trkpt lat="45.74906" lon="1.9583">
        <ele>714.2</ele>
        <time>2022-08-03T08:36:41Z</time>
      </trkpt>
      <trkpt lat="45.74899" lon="1.95825">
        <ele>714.5</ele>
        <time>2022-08-03T08:36:43Z</time>
      </trkpt>
      <trkpt lat="45.74891" lon="1.95819">
        <ele>714.7</ele>
        <time>2022-08-03T08:36:45Z</time>
      </trkpt>
      <trkpt lat="45.74883" lon="1.95816">
        <ele>714.8</ele>
        <time>2022-08-03T08:36:47Z</time>
      </trkpt>
      <trkpt lat="45.74874" lon="1.95822">
        <ele>714.6</ele>
        <time>2022-08-03T08:36:49Z</time>
      </trkpt>
      <trkpt lat="45.74864" lon="1.95826">
        <ele>714.3</ele>
        <time>2022-08-03T08:36:51Z</time>
      </trkpt>
      <trkpt lat="45.74856" lon="1.95834">
        <ele>714</ele>
        <time>2022-08-03T08:36:53Z</time>
      </trkpt>
      <trkpt lat="45.74849" lon="1.95844">
        <ele>714.2</ele>
        <time>2022-08-03T08:36:55Z</time>
      </trkpt>
      <trkpt lat="45.74844" lon="1.95856">
        <ele>714.4</ele>
        <time>2022-08-03T08:36:57Z</time>
      </trkpt>
      <trkpt lat="45.7484" lon="1.95869">
        <ele>714.5</ele>
        <time>2022-08-03T08:36:59Z</time>
      </trkpt>
      <trkpt lat="45.74836" lon="1.95881">
        <ele>714.6</ele>
        <time>2022-08-03T08:37:01Z</time>
      </trkpt>
      <trkpt lat="45.74833" lon="1.95895">
        <ele>714.7</ele>
        <time>2022-08-03T08:37:03Z</time>
      </trkpt>
      <trkpt lat="45.7483" lon="1.95907">
        <ele>715</ele>
        <time>2022-08-03T08:37:05Z</time>
      </trkpt>
      <trkpt lat="45.74827" lon="1.95921">
        <ele>715.4</ele>
        <time>2022-08-03T08:37:07Z</time>
      </trkpt>
      <trkpt lat="45.74824" lon="1.95934">
        <ele>715.6</ele>
        <time>2022-08-03T08:37:09Z</time>
      </trkpt>
      <trkpt lat="45.74821" lon="1.95946">
        <ele>715.8</ele>
        <time>2022-08-03T08:37:11Z</time>
      </trkpt>
      <trkpt lat="45.74818" lon="1.95959">
        <ele>716.1</ele>
        <time>2022-08-03T08:37:13Z</time>
      </trkpt>
      <trkpt lat="45.74815" lon="1.95971">
        <ele>716.3</ele>
        <time>2022-08-03T08:37:15Z</time>
      </trkpt>
      <trkpt lat="45.74812" lon="1.95983">
        <ele>716.4</ele>
        <time>2022-08-03T08:37:17Z</time>
      </trkpt>
      <trkpt lat="45.74809" lon="1.95995">
        <ele>716.6</ele>
        <time>2022-08-03T08:37:19Z</time>
      </trkpt>
      <trkpt lat="45.74806" lon="1.96006">
        <ele>716.6</ele>
        <time>2022-08-03T08:37:21Z</time>
      </trkpt>
      <trkpt lat="45.74803" lon="1.96019">
        <ele>716.6</ele>
        <time>2022-08-03T08:37:23Z</time>
      </trkpt>
      <trkpt lat="45.74799" lon="1.96031">
        <ele>716.7</ele>
        <time>2022-08-03T08:37:25Z</time>
      </trkpt>
      <trkpt lat="45.74796" lon="1.96043">
        <ele>716.8</ele>
        <time>2022-08-03T08:37:27Z</time>
      </trkpt>
      <trkpt lat="45.74792" lon="1.96056">
        <ele>717</ele>
        <time>2022-08-03T08:37:29Z</time>
      </trkpt>
      <trkpt lat="45.74789" lon="1.96069">
        <ele>717.2</ele>
        <time>2022-08-03T08:37:31Z</time>
      </trkpt>
      <trkpt lat="45.74785" lon="1.96081">
        <ele>717.4</ele>
        <time>2022-08-03T08:37:33Z</time>
      </trkpt>
      <trkpt lat="45.74781" lon="1.96094">
        <ele>717.5</ele>
        <time>2022-08-03T08:37:35Z</time>
      </trkpt>
      <trkpt lat="45.74777" lon="1.96106">
        <ele>717.4</ele>
        <time>2022-08-03T08:37:37Z</time>
      </trkpt>
      <trkpt lat="45.74772" lon="1.96118">
        <ele>717.4</ele>
        <time>2022-08-03T08:37:39Z</time>
      </trkpt>
      <trkpt lat="45.74765" lon="1.96129">
        <ele>717.4</ele>
        <time>2022-08-03T08:37:41Z</time>
      </trkpt>
      <trkpt lat="45.74758" lon="1.9614">
        <ele>717.5</ele>
        <time>2022-08-03T08:37:43Z</time>
      </trkpt>
      <trkpt lat="45.74751" lon="1.96149">
        <ele>717.6</ele>
        <time>2022-08-03T08:37:45Z</time>
      </trkpt>
      <trkpt lat="45.74743" lon="1.96157">
        <ele>717.4</ele>
        <time>2022-08-03T08:37:47Z</time>
      </trkpt>
      <trkpt lat="45.74734" lon="1.96163">
        <ele>717.3</ele>
        <time>2022-08-03T08:37:49Z</time>
      </trkpt>
      <trkpt lat="45.74724" lon="1.96166">
        <ele>717.3</ele>
        <time>2022-08-03T08:37:51Z</time>
      </trkpt>
      <trkpt lat="45.74715" lon="1.96167">
        <ele>717.4</ele>
        <time>2022-08-03T08:37:53Z</time>
      </trkpt>
      <trkpt lat="45.74705" lon="1.96165">
        <ele>717.6</ele>
        <time>2022-08-03T08:37:55Z</time>
      </trkpt>
      <trkpt lat="45.74696" lon="1.96161">
        <ele>717.7</ele>
        <time>2022-08-03T08:37:57Z</time>
      </trkpt>
      <trkpt lat="45.74686" lon="1.96158">
        <ele>717.8</ele>
        <time>2022-08-03T08:37:59Z</time>
      </trkpt>
      <trkpt lat="45.74676" lon="1.96153">
        <ele>717.8</ele>
        <time>2022-08-03T08:38:01Z</time>
      </trkpt>
      <trkpt lat="45.74666" lon="1.9615">
        <ele>717.8</ele>
        <time>2022-08-03T08:38:03Z</time>
      </trkpt>
      <trkpt lat="45.74656" lon="1.96147">
        <ele>717.4</ele>
        <time>2022-08-03T08:38:05Z</time>
      </trkpt>
      <trkpt lat="45.74647" lon="1.96146">
        <ele>717.1</ele>
        <time>2022-08-03T08:38:07Z</time>
      </trkpt>
      <trkpt lat="45.74637" lon="1.96146">
        <ele>716.8</ele>
        <time>2022-08-03T08:38:09Z</time>
      </trkpt>
      <trkpt lat="45.74627" lon="1.96148">
        <ele>716.5</ele>
        <time>2022-08-03T08:38:11Z</time>
      </trkpt>
      <trkpt lat="45.74619" lon="1.96153">
        <ele>716.4</ele>
        <time>2022-08-03T08:38:13Z</time>
      </trkpt>
      <trkpt lat="45.74609" lon="1.96154">
        <ele>716.1</ele>
        <time>2022-08-03T08:38:15Z</time>
      </trkpt>
      <trkpt lat="45.746" lon="1.96157">
        <ele>716</ele>
        <time>2022-08-03T08:38:17Z</time>
      </trkpt>
      <trkpt lat="45.7459" lon="1.96162">
        <ele>716</ele>
        <time>2022-08-03T08:38:19Z</time>
      </trkpt>
      <trkpt lat="45.74581" lon="1.96164">
        <ele>715.9</ele>
        <time>2022-08-03T08:38:21Z</time>
      </trkpt>
      <trkpt lat="45.74573" lon="1.96168">
        <ele>716</ele>
        <time>2022-08-03T08:38:23Z</time>
      </trkpt>
      <trkpt lat="45.74564" lon="1.9617">
        <ele>716</ele>
        <time>2022-08-03T08:38:25Z</time>
      </trkpt>
      <trkpt lat="45.74555" lon="1.96175">
        <ele>716</ele>
        <time>2022-08-03T08:38:27Z</time>
      </trkpt>
      <trkpt lat="45.74547" lon="1.96178">
        <ele>716.1</ele>
        <time>2022-08-03T08:38:29Z</time>
      </trkpt>
      <trkpt lat="45.74538" lon="1.9618">
        <ele>716.1</ele>
        <time>2022-08-03T08:38:31Z</time>
      </trkpt>
      <trkpt lat="45.7453" lon="1.96185">
        <ele>716.1</ele>
        <time>2022-08-03T08:38:33Z</time>
      </trkpt>
      <trkpt lat="45.74521" lon="1.96188">
        <ele>716.2</ele>
        <time>2022-08-03T08:38:35Z</time>
      </trkpt>
      <trkpt lat="45.74512" lon="1.96191">
        <ele>716.3</ele>
        <time>2022-08-03T08:38:37Z</time>
      </trkpt>
      <trkpt lat="45.74503" lon="1.96194">
        <ele>716.3</ele>
        <time>2022-08-03T08:38:39Z</time>
      </trkpt>
      <trkpt lat="45.74495" lon="1.96198">
        <ele>716.6</ele>
        <time>2022-08-03T08:38:41Z</time>
      </trkpt>
      <trkpt lat="45.74486" lon="1.96201">
        <ele>717.1</ele>
        <time>2022-08-03T08:38:43Z</time>
      </trkpt>
      <trkpt lat="45.74478" lon="1.96203">
        <ele>717.5</ele>
        <time>2022-08-03T08:38:45Z</time>
      </trkpt>
      <trkpt lat="45.74471" lon="1.96207">
        <ele>717.9</ele>
        <time>2022-08-03T08:38:47Z</time>
      </trkpt>
      <trkpt lat="45.74463" lon="1.96209">
        <ele>718.3</ele>
        <time>2022-08-03T08:38:49Z</time>
      </trkpt>
      <trkpt lat="45.74455" lon="1.96212">
        <ele>718.7</ele>
        <time>2022-08-03T08:38:51Z</time>
      </trkpt>
      <trkpt lat="45.7445" lon="1.96217">
        <ele>719</ele>
        <time>2022-08-03T08:38:53Z</time>
      </trkpt>
      <trkpt lat="45.74445" lon="1.96221">
        <ele>719.3</ele>
        <time>2022-08-03T08:38:55Z</time>
      </trkpt>
      <trkpt lat="45.74438" lon="1.96225">
        <ele>719.7</ele>
        <time>2022-08-03T08:38:57Z</time>
      </trkpt>
      <trkpt lat="45.74432" lon="1.96231">
        <ele>720</ele>
        <time>2022-08-03T08:38:59Z</time>
      </trkpt>
      <trkpt lat="45.74427" lon="1.96238">
        <ele>720.4</ele>
        <time>2022-08-03T08:39:01Z</time>
      </trkpt>
      <trkpt lat="45.74421" lon="1.96245">
        <ele>720.7</ele>
        <time>2022-08-03T08:39:03Z</time>
      </trkpt>
      <trkpt lat="45.74417" lon="1.96254">
        <ele>720.9</ele>
        <time>2022-08-03T08:39:05Z</time>
      </trkpt>
      <trkpt lat="45.74412" lon="1.96262">
        <ele>721</ele>
        <time>2022-08-03T08:39:07Z</time>
      </trkpt>
      <trkpt lat="45.7441" lon="1.96271">
        <ele>720.9</ele>
        <time>2022-08-03T08:39:09Z</time>
      </trkpt>
      <trkpt lat="45.74409" lon="1.9628">
        <ele>720.9</ele>
        <time>2022-08-03T08:39:11Z</time>
      </trkpt>
      <trkpt lat="45.74408" lon="1.9629">
        <ele>720.8</ele>
        <time>2022-08-03T08:39:13Z</time>
      </trkpt>
      <trkpt lat="45.74407" lon="1.963">
        <ele>720.7</ele>
        <time>2022-08-03T08:39:15Z</time>
      </trkpt>
      <trkpt lat="45.74406" lon="1.96309">
        <ele>720.6</ele>
        <time>2022-08-03T08:39:17Z</time>
      </trkpt>
      <trkpt lat="45.74406" lon="1.9632">
        <ele>720.5</ele>
        <time>2022-08-03T08:39:19Z</time>
      </trkpt>
      <trkpt lat="45.74406" lon="1.96329">
        <ele>720.4</ele>
        <time>2022-08-03T08:39:21Z</time>
      </trkpt>
      <trkpt lat="45.74405" lon="1.96338">
        <ele>720.5</ele>
        <time>2022-08-03T08:39:23Z</time>
      </trkpt>
      <trkpt lat="45.74403" lon="1.96348">
        <ele>720.8</ele>
        <time>2022-08-03T08:39:25Z</time>
      </trkpt>
      <trkpt lat="45.744" lon="1.96357">
        <ele>721</ele>
        <time>2022-08-03T08:39:27Z</time>
      </trkpt>
      <trkpt lat="45.74396" lon="1.96365">
        <ele>721.3</ele>
        <time>2022-08-03T08:39:29Z</time>
      </trkpt>
      <trkpt lat="45.74394" lon="1.96374">
        <ele>721.5</ele>
        <time>2022-08-03T08:39:31Z</time>
      </trkpt>
      <trkpt lat="45.74391" lon="1.96383">
        <ele>721.7</ele>
        <time>2022-08-03T08:39:33Z</time>
      </trkpt>
      <trkpt lat="45.7439" lon="1.96393">
        <ele>721.9</ele>
        <time>2022-08-03T08:39:35Z</time>
      </trkpt>
      <trkpt lat="45.74388" lon="1.96404">
        <ele>722.2</ele>
        <time>2022-08-03T08:39:37Z</time>
      </trkpt>
      <trkpt lat="45.74388" lon="1.96413">
        <ele>722.3</ele>
        <time>2022-08-03T08:39:39Z</time>
      </trkpt>
      <trkpt lat="45.74389" lon="1.96425">
        <ele>722.5</ele>
        <time>2022-08-03T08:39:41Z</time>
      </trkpt>
      <trkpt lat="45.74389" lon="1.96435">
        <ele>722.7</ele>
        <time>2022-08-03T08:39:43Z</time>
      </trkpt>
      <trkpt lat="45.74389" lon="1.96446">
        <ele>722.9</ele>
        <time>2022-08-03T08:39:45Z</time>
      </trkpt>
      <trkpt lat="45.74391" lon="1.96456">
        <ele>723.1</ele>
        <time>2022-08-03T08:39:47Z</time>
      </trkpt>
      <trkpt lat="45.74392" lon="1.96467">
        <ele>723.2</ele>
        <time>2022-08-03T08:39:49Z</time>
      </trkpt>
      <trkpt lat="45.74395" lon="1.96477">
        <ele>723.4</ele>
        <time>2022-08-03T08:39:51Z</time>
      </trkpt>
      <trkpt lat="45.74398" lon="1.96487">
        <ele>723.5</ele>
        <time>2022-08-03T08:39:53Z</time>
      </trkpt>
      <trkpt lat="45.74402" lon="1.96497">
        <ele>723.5</ele>
        <time>2022-08-03T08:39:55Z</time>
      </trkpt>
      <trkpt lat="45.74406" lon="1.96507">
        <ele>723.5</ele>
        <time>2022-08-03T08:39:57Z</time>
      </trkpt>
      <trkpt lat="45.7441" lon="1.96518">
        <ele>723.5</ele>
        <time>2022-08-03T08:39:59Z</time>
      </trkpt>
      <trkpt lat="45.74414" lon="1.96528">
        <ele>723.4</ele>
        <time>2022-08-03T08:40:01Z</time>
      </trkpt>
      <trkpt lat="45.74418" lon="1.96539">
        <ele>723.5</ele>
        <time>2022-08-03T08:40:03Z</time>
      </trkpt>
      <trkpt lat="45.74422" lon="1.96551">
        <ele>723.9</ele>
        <time>2022-08-03T08:40:05Z</time>
      </trkpt>
      <trkpt lat="45.74426" lon="1.96561">
        <ele>724.2</ele>
        <time>2022-08-03T08:40:07Z</time>
      </trkpt>
      <trkpt lat="45.7443" lon="1.96572">
        <ele>724.6</ele>
        <time>2022-08-03T08:40:09Z</time>
      </trkpt>
      <trkpt lat="45.74434" lon="1.96582">
        <ele>725</ele>
        <time>2022-08-03T08:40:11Z</time>
      </trkpt>
      <trkpt lat="45.74438" lon="1.96592">
        <ele>725.3</ele>
        <time>2022-08-03T08:40:13Z</time>
      </trkpt>
      <trkpt lat="45.74441" lon="1.96602">
        <ele>725.6</ele>
        <time>2022-08-03T08:40:15Z</time>
      </trkpt>
      <trkpt lat="45.74443" lon="1.96614">
        <ele>725.8</ele>
        <time>2022-08-03T08:40:17Z</time>
      </trkpt>
      <trkpt lat="45.74444" lon="1.96627">
        <ele>726</ele>
        <time>2022-08-03T08:40:19Z</time>
      </trkpt>
      <trkpt lat="45.74444" lon="1.96639">
        <ele>726.1</ele>
        <time>2022-08-03T08:40:21Z</time>
      </trkpt>
      <trkpt lat="45.74441" lon="1.96651">
        <ele>726.1</ele>
        <time>2022-08-03T08:40:23Z</time>
      </trkpt>
      <trkpt lat="45.74438" lon="1.96661">
        <ele>726</ele>
        <time>2022-08-03T08:40:25Z</time>
      </trkpt>
      <trkpt lat="45.74434" lon="1.9667">
        <ele>726.1</ele>
        <time>2022-08-03T08:40:27Z</time>
      </trkpt>
      <trkpt lat="45.7443" lon="1.9668">
        <ele>726.5</ele>
        <time>2022-08-03T08:40:29Z</time>
      </trkpt>
      <trkpt lat="45.74427" lon="1.96689">
        <ele>726.8</ele>
        <time>2022-08-03T08:40:31Z</time>
      </trkpt>
      <trkpt lat="45.74424" lon="1.96698">
        <ele>727.2</ele>
        <time>2022-08-03T08:40:33Z</time>
      </trkpt>
      <trkpt lat="45.74424" lon="1.96708">
        <ele>727.8</ele>
        <time>2022-08-03T08:40:35Z</time>
      </trkpt>
      <trkpt lat="45.74421" lon="1.96716">
        <ele>728.2</ele>
        <time>2022-08-03T08:40:37Z</time>
      </trkpt>
      <trkpt lat="45.74421" lon="1.96725">
        <ele>728.7</ele>
        <time>2022-08-03T08:40:39Z</time>
      </trkpt>
      <trkpt lat="45.74422" lon="1.96734">
        <ele>729.3</ele>
        <time>2022-08-03T08:40:41Z</time>
      </trkpt>
      <trkpt lat="45.74424" lon="1.96743">
        <ele>729.9</ele>
        <time>2022-08-03T08:40:43Z</time>
      </trkpt>
      <trkpt lat="45.74427" lon="1.96751">
        <ele>730.5</ele>
        <time>2022-08-03T08:40:45Z</time>
      </trkpt>
      <trkpt lat="45.7443" lon="1.96758">
        <ele>730.8</ele>
        <time>2022-08-03T08:40:47Z</time>
      </trkpt>
      <trkpt lat="45.74434" lon="1.96765">
        <ele>731.1</ele>
        <time>2022-08-03T08:40:49Z</time>
      </trkpt>
      <trkpt lat="45.74438" lon="1.96772">
        <ele>731.3</ele>
        <time>2022-08-03T08:40:51Z</time>
      </trkpt>
      <trkpt lat="45.74443" lon="1.96778">
        <ele>731.6</ele>
        <time>2022-08-03T08:40:53Z</time>
      </trkpt>
      <trkpt lat="45.74447" lon="1.96783">
        <ele>731.8</ele>
        <time>2022-08-03T08:40:55Z</time>
      </trkpt>
      <trkpt lat="45.74452" lon="1.96789">
        <ele>732</ele>
        <time>2022-08-03T08:40:57Z</time>
      </trkpt>
      <trkpt lat="45.74457" lon="1.96796">
        <ele>732.2</ele>
        <time>2022-08-03T08:40:59Z</time>
      </trkpt>
      <trkpt lat="45.74461" lon="1.96802">
        <ele>732.4</ele>
        <time>2022-08-03T08:41:01Z</time>
      </trkpt>
      <trkpt lat="45.74466" lon="1.9681">
        <ele>732.5</ele>
        <time>2022-08-03T08:41:03Z</time>
      </trkpt>
      <trkpt lat="45.74469" lon="1.96819">
        <ele>732.6</ele>
        <time>2022-08-03T08:41:05Z</time>
      </trkpt>
      <trkpt lat="45.74473" lon="1.96828">
        <ele>732.7</ele>
        <time>2022-08-03T08:41:07Z</time>
      </trkpt>
      <trkpt lat="45.74476" lon="1.96838">
        <ele>732.6</ele>
        <time>2022-08-03T08:41:09Z</time>
      </trkpt>
      <trkpt lat="45.74478" lon="1.96848">
        <ele>732.5</ele>
        <time>2022-08-03T08:41:11Z</time>
      </trkpt>
      <trkpt lat="45.7448" lon="1.96858">
        <ele>732.3</ele>
        <time>2022-08-03T08:41:13Z</time>
      </trkpt>
      <trkpt lat="45.74482" lon="1.96869">
        <ele>732.1</ele>
        <time>2022-08-03T08:41:15Z</time>
      </trkpt>
      <trkpt lat="45.74484" lon="1.9688">
        <ele>731.9</ele>
        <time>2022-08-03T08:41:17Z</time>
      </trkpt>
      <trkpt lat="45.74486" lon="1.96891">
        <ele>731.7</ele>
        <time>2022-08-03T08:41:19Z</time>
      </trkpt>
      <trkpt lat="45.74488" lon="1.96902">
        <ele>731.4</ele>
        <time>2022-08-03T08:41:21Z</time>
      </trkpt>
      <trkpt lat="45.7449" lon="1.96913">
        <ele>731.2</ele>
        <time>2022-08-03T08:41:23Z</time>
      </trkpt>
      <trkpt lat="45.74491" lon="1.96924">
        <ele>730.8</ele>
        <time>2022-08-03T08:41:25Z</time>
      </trkpt>
      <trkpt lat="45.74493" lon="1.96934">
        <ele>730.3</ele>
        <time>2022-08-03T08:41:27Z</time>
      </trkpt>
      <trkpt lat="45.74496" lon="1.96947">
        <ele>729.7</ele>
        <time>2022-08-03T08:41:29Z</time>
      </trkpt>
      <trkpt lat="45.74499" lon="1.96959">
        <ele>729</ele>
        <time>2022-08-03T08:41:31Z</time>
      </trkpt>
      <trkpt lat="45.74501" lon="1.96972">
        <ele>728.4</ele>
        <time>2022-08-03T08:41:33Z</time>
      </trkpt>
      <trkpt lat="45.74504" lon="1.96986">
        <ele>727.9</ele>
        <time>2022-08-03T08:41:35Z</time>
      </trkpt>
      <trkpt lat="45.74506" lon="1.97">
        <ele>727.4</ele>
        <time>2022-08-03T08:41:37Z</time>
      </trkpt>
      <trkpt lat="45.74509" lon="1.97013">
        <ele>727.7</ele>
        <time>2022-08-03T08:41:39Z</time>
      </trkpt>
      <trkpt lat="45.74512" lon="1.97025">
        <ele>728</ele>
        <time>2022-08-03T08:41:41Z</time>
      </trkpt>
      <trkpt lat="45.74514" lon="1.97038">
        <ele>728.2</ele>
        <time>2022-08-03T08:41:43Z</time>
      </trkpt>
      <trkpt lat="45.74516" lon="1.97051">
        <ele>728.5</ele>
        <time>2022-08-03T08:41:45Z</time>
      </trkpt>
      <trkpt lat="45.74519" lon="1.97063">
        <ele>728.7</ele>
        <time>2022-08-03T08:41:47Z</time>
      </trkpt>
      <trkpt lat="45.74521" lon="1.97075">
        <ele>728.9</ele>
        <time>2022-08-03T08:41:49Z</time>
      </trkpt>
      <trkpt lat="45.74523" lon="1.97087">
        <ele>729.3</ele>
        <time>2022-08-03T08:41:51Z</time>
      </trkpt>
      <trkpt lat="45.74525" lon="1.97098">
        <ele>729.7</ele>
        <time>2022-08-03T08:41:53Z</time>
      </trkpt>
      <trkpt lat="45.74525" lon="1.9711">
        <ele>730.2</ele>
        <time>2022-08-03T08:41:55Z</time>
      </trkpt>
      <trkpt lat="45.74523" lon="1.97122">
        <ele>730.6</ele>
        <time>2022-08-03T08:41:57Z</time>
      </trkpt>
      <trkpt lat="45.74518" lon="1.97134">
        <ele>730.9</ele>
        <time>2022-08-03T08:41:59Z</time>
      </trkpt>
      <trkpt lat="45.74513" lon="1.97143">
        <ele>731.1</ele>
        <time>2022-08-03T08:42:01Z</time>
      </trkpt>
      <trkpt lat="45.74506" lon="1.97149">
        <ele>731.2</ele>
        <time>2022-08-03T08:42:03Z</time>
      </trkpt>
      <trkpt lat="45.74499" lon="1.97153">
        <ele>731.3</ele>
        <time>2022-08-03T08:42:05Z</time>
      </trkpt>
      <trkpt lat="45.74491" lon="1.97155">
        <ele>731.3</ele>
        <time>2022-08-03T08:42:07Z</time>
      </trkpt>
      <trkpt lat="45.74483" lon="1.97155">
        <ele>731.3</ele>
        <time>2022-08-03T08:42:09Z</time>
      </trkpt>
      <trkpt lat="45.74476" lon="1.97156">
        <ele>731.3</ele>
        <time>2022-08-03T08:42:11Z</time>
      </trkpt>
      <trkpt lat="45.74468" lon="1.97158">
        <ele>731.3</ele>
        <time>2022-08-03T08:42:13Z</time>
      </trkpt>
      <trkpt lat="45.74462" lon="1.9716">
        <ele>731.3</ele>
        <time>2022-08-03T08:42:15Z</time>
      </trkpt>
      <trkpt lat="45.74455" lon="1.97163">
        <ele>731.3</ele>
        <time>2022-08-03T08:42:17Z</time>
      </trkpt>
      <trkpt lat="45.74449" lon="1.97167">
        <ele>731.4</ele>
        <time>2022-08-03T08:42:19Z</time>
      </trkpt>
      <trkpt lat="45.74444" lon="1.97174">
        <ele>731.7</ele>
        <time>2022-08-03T08:42:21Z</time>
      </trkpt>
      <trkpt lat="45.74439" lon="1.9718">
        <ele>731.9</ele>
        <time>2022-08-03T08:42:23Z</time>
      </trkpt>
      <trkpt lat="45.74434" lon="1.97188">
        <ele>732.2</ele>
        <time>2022-08-03T08:42:25Z</time>
      </trkpt>
      <trkpt lat="45.7443" lon="1.97196">
        <ele>732.6</ele>
        <time>2022-08-03T08:42:27Z</time>
      </trkpt>
      <trkpt lat="45.74426" lon="1.97204">
        <ele>732.9</ele>
        <time>2022-08-03T08:42:29Z</time>
      </trkpt>
      <trkpt lat="45.74423" lon="1.97214">
        <ele>733.3</ele>
        <time>2022-08-03T08:42:31Z</time>
      </trkpt>
      <trkpt lat="45.74418" lon="1.97223">
        <ele>733.7</ele>
        <time>2022-08-03T08:42:33Z</time>
      </trkpt>
      <trkpt lat="45.74412" lon="1.9723">
        <ele>734</ele>
        <time>2022-08-03T08:42:35Z</time>
      </trkpt>
      <trkpt lat="45.74405" lon="1.97236">
        <ele>734.1</ele>
        <time>2022-08-03T08:42:37Z</time>
      </trkpt>
      <trkpt lat="45.74398" lon="1.97242">
        <ele>734.1</ele>
        <time>2022-08-03T08:42:39Z</time>
      </trkpt>
      <trkpt lat="45.74392" lon="1.97243">
        <ele>734</ele>
        <time>2022-08-03T08:42:41Z</time>
      </trkpt>
      <trkpt lat="45.74385" lon="1.97246">
        <ele>733.8</ele>
        <time>2022-08-03T08:42:43Z</time>
      </trkpt>
      <trkpt lat="45.74379" lon="1.9725">
        <ele>733.7</ele>
        <time>2022-08-03T08:42:45Z</time>
      </trkpt>
      <trkpt lat="45.74373" lon="1.97254">
        <ele>733.5</ele>
        <time>2022-08-03T08:42:47Z</time>
      </trkpt>
      <trkpt lat="45.74367" lon="1.97261">
        <ele>733.3</ele>
        <time>2022-08-03T08:42:49Z</time>
      </trkpt>
      <trkpt lat="45.74363" lon="1.97269">
        <ele>733.3</ele>
        <time>2022-08-03T08:42:51Z</time>
      </trkpt>
      <trkpt lat="45.7436" lon="1.97279">
        <ele>733.3</ele>
        <time>2022-08-03T08:42:53Z</time>
      </trkpt>
      <trkpt lat="45.74359" lon="1.97287">
        <ele>733.4</ele>
        <time>2022-08-03T08:42:55Z</time>
      </trkpt>
      <trkpt lat="45.7436" lon="1.97295">
        <ele>733.5</ele>
        <time>2022-08-03T08:42:57Z</time>
      </trkpt>
      <trkpt lat="45.74361" lon="1.97304">
        <ele>733.6</ele>
        <time>2022-08-03T08:42:59Z</time>
      </trkpt>
      <trkpt lat="45.74362" lon="1.97313">
        <ele>733.8</ele>
        <time>2022-08-03T08:43:01Z</time>
      </trkpt>
      <trkpt lat="45.74362" lon="1.97322">
        <ele>733.9</ele>
        <time>2022-08-03T08:43:03Z</time>
      </trkpt>
      <trkpt lat="45.74362" lon="1.97332">
        <ele>734</ele>
        <time>2022-08-03T08:43:05Z</time>
      </trkpt>
      <trkpt lat="45.74361" lon="1.97342">
        <ele>734.1</ele>
        <time>2022-08-03T08:43:07Z</time>
      </trkpt>
      <trkpt lat="45.7436" lon="1.9735">
        <ele>734.2</ele>
        <time>2022-08-03T08:43:09Z</time>
      </trkpt>
      <trkpt lat="45.74358" lon="1.97356">
        <ele>734.2</ele>
        <time>2022-08-03T08:43:11Z</time>
      </trkpt>
      <trkpt lat="45.74356" lon="1.97362">
        <ele>734.3</ele>
        <time>2022-08-03T08:43:13Z</time>
      </trkpt>
      <trkpt lat="45.74353" lon="1.97368">
        <ele>734.2</ele>
        <time>2022-08-03T08:43:15Z</time>
      </trkpt>
      <trkpt lat="45.74351" lon="1.97373">
        <ele>734.2</ele>
        <time>2022-08-03T08:43:17Z</time>
      </trkpt>
      <trkpt lat="45.74347" lon="1.97377">
        <ele>734.1</ele>
        <time>2022-08-03T08:43:19Z</time>
      </trkpt>
      <trkpt lat="45.74344" lon="1.97381">
        <ele>734</ele>
        <time>2022-08-03T08:43:21Z</time>
      </trkpt>
      <trkpt lat="45.74342" lon="1.97383">
        <ele>734</ele>
        <time>2022-08-03T08:43:23Z</time>
      </trkpt>
      <trkpt lat="45.74339" lon="1.97385">
        <ele>733.9</ele>
        <time>2022-08-03T08:43:25Z</time>
      </trkpt>
      <trkpt lat="45.74336" lon="1.97387">
        <ele>733.7</ele>
        <time>2022-08-03T08:43:27Z</time>
      </trkpt>
      <trkpt lat="45.74331" lon="1.97388">
        <ele>733.9</ele>
        <time>2022-08-03T08:43:29Z</time>
      </trkpt>
      <trkpt lat="45.74288" lon="1.97384">
        <ele>739.5</ele>
        <time>2022-08-03T08:44:33Z</time>
      </trkpt>
      <trkpt lat="45.74285" lon="1.97379">
        <ele>739.7</ele>
        <time>2022-08-03T08:44:35Z</time>
      </trkpt>
      <trkpt lat="45.74281" lon="1.97374">
        <ele>740</ele>
        <time>2022-08-03T08:44:37Z</time>
      </trkpt>
      <trkpt lat="45.74278" lon="1.97369">
        <ele>740.3</ele>
        <time>2022-08-03T08:44:39Z</time>
      </trkpt>
      <trkpt lat="45.74276" lon="1.97366">
        <ele>740.4</ele>
        <time>2022-08-03T08:44:41Z</time>
      </trkpt>
      <trkpt lat="45.74273" lon="1.97361">
        <ele>740.6</ele>
        <time>2022-08-03T08:44:43Z</time>
      </trkpt>
      <trkpt lat="45.7427" lon="1.97355">
        <ele>740.7</ele>
        <time>2022-08-03T08:44:45Z</time>
      </trkpt>
      <trkpt lat="45.74268" lon="1.97348">
        <ele>740.7</ele>
        <time>2022-08-03T08:44:47Z</time>
      </trkpt>
      <trkpt lat="45.74266" lon="1.97342">
        <ele>740.7</ele>
        <time>2022-08-03T08:44:49Z</time>
      </trkpt>
      <trkpt lat="45.74264" lon="1.97336">
        <ele>740.6</ele>
        <time>2022-08-03T08:44:51Z</time>
      </trkpt>
      <trkpt lat="45.74262" lon="1.9733">
        <ele>740.5</ele>
        <time>2022-08-03T08:44:53Z</time>
      </trkpt>
      <trkpt lat="45.7426" lon="1.97323">
        <ele>740.3</ele>
        <time>2022-08-03T08:44:55Z</time>
      </trkpt>
      <trkpt lat="45.74259" lon="1.97317">
        <ele>740.2</ele>
        <time>2022-08-03T08:44:57Z</time>
      </trkpt>
      <trkpt lat="45.74256" lon="1.97312">
        <ele>740.1</ele>
        <time>2022-08-03T08:44:59Z</time>
      </trkpt>
      <trkpt lat="45.74254" lon="1.97306">
        <ele>740</ele>
        <time>2022-08-03T08:45:01Z</time>
      </trkpt>
      <trkpt lat="45.74251" lon="1.97302">
        <ele>740</ele>
        <time>2022-08-03T08:45:03Z</time>
      </trkpt>
      <trkpt lat="45.74248" lon="1.97298">
        <ele>740</ele>
        <time>2022-08-03T08:45:05Z</time>
      </trkpt>
      <trkpt lat="45.74244" lon="1.97294">
        <ele>740</ele>
        <time>2022-08-03T08:45:07Z</time>
      </trkpt>
      <trkpt lat="45.74241" lon="1.97291">
        <ele>740</ele>
        <time>2022-08-03T08:45:09Z</time>
      </trkpt>
      <trkpt lat="45.74237" lon="1.97289">
        <ele>740.2</ele>
        <time>2022-08-03T08:45:11Z</time>
      </trkpt>
      <trkpt lat="45.74233" lon="1.97287">
        <ele>740.4</ele>
        <time>2022-08-03T08:45:13Z</time>
      </trkpt>
      <trkpt lat="45.74228" lon="1.97287">
        <ele>740.7</ele>
        <time>2022-08-03T08:45:15Z</time>
      </trkpt>
      <trkpt lat="45.74223" lon="1.97288">
        <ele>741</ele>
        <time>2022-08-03T08:45:17Z</time>
      </trkpt>
      <trkpt lat="45.74219" lon="1.97289">
        <ele>741.4</ele>
        <time>2022-08-03T08:45:19Z</time>
      </trkpt>
      <trkpt lat="45.74214" lon="1.97289">
        <ele>741.8</ele>
        <time>2022-08-03T08:45:21Z</time>
      </trkpt>
      <trkpt lat="45.74209" lon="1.97291">
        <ele>742.2</ele>
        <time>2022-08-03T08:45:23Z</time>
      </trkpt>
      <trkpt lat="45.74204" lon="1.97294">
        <ele>742.6</ele>
        <time>2022-08-03T08:45:25Z</time>
      </trkpt>
      <trkpt lat="45.742" lon="1.97295">
        <ele>743</ele>
        <time>2022-08-03T08:45:27Z</time>
      </trkpt>
      <trkpt lat="45.74195" lon="1.97298">
        <ele>743.5</ele>
        <time>2022-08-03T08:45:29Z</time>
      </trkpt>
      <trkpt lat="45.74191" lon="1.97301">
        <ele>743.9</ele>
        <time>2022-08-03T08:45:31Z</time>
      </trkpt>
      <trkpt lat="45.74187" lon="1.97305">
        <ele>744.3</ele>
        <time>2022-08-03T08:45:33Z</time>
      </trkpt>
      <trkpt lat="45.74182" lon="1.97308">
        <ele>744.8</ele>
        <time>2022-08-03T08:45:35Z</time>
      </trkpt>
      <trkpt lat="45.74178" lon="1.97313">
        <ele>745.3</ele>
        <time>2022-08-03T08:45:37Z</time>
      </trkpt>
      <trkpt lat="45.74173" lon="1.97317">
        <ele>745.8</ele>
        <time>2022-08-03T08:45:39Z</time>
      </trkpt>
      <trkpt lat="45.74169" lon="1.97322">
        <ele>746.3</ele>
        <time>2022-08-03T08:45:41Z</time>
      </trkpt>
      <trkpt lat="45.74165" lon="1.97327">
        <ele>746.7</ele>
        <time>2022-08-03T08:45:43Z</time>
      </trkpt>
      <trkpt lat="45.74161" lon="1.97333">
        <ele>747</ele>
        <time>2022-08-03T08:45:45Z</time>
      </trkpt>
      <trkpt lat="45.74159" lon="1.97338">
        <ele>747.5</ele>
        <time>2022-08-03T08:45:47Z</time>
      </trkpt>
      <trkpt lat="45.74155" lon="1.97344">
        <ele>748</ele>
        <time>2022-08-03T08:45:49Z</time>
      </trkpt>
      <trkpt lat="45.74152" lon="1.97349">
        <ele>748.4</ele>
        <time>2022-08-03T08:45:51Z</time>
      </trkpt>
      <trkpt lat="45.74148" lon="1.97354">
        <ele>748.9</ele>
        <time>2022-08-03T08:45:53Z</time>
      </trkpt>
      <trkpt lat="45.74144" lon="1.97359">
        <ele>749.2</ele>
        <time>2022-08-03T08:45:55Z</time>
      </trkpt>
      <trkpt lat="45.74138" lon="1.97361">
        <ele>749.4</ele>
        <time>2022-08-03T08:45:57Z</time>
      </trkpt>
      <trkpt lat="45.74132" lon="1.97361">
        <ele>749.4</ele>
        <time>2022-08-03T08:45:59Z</time>
      </trkpt>
      <trkpt lat="45.74126" lon="1.97358">
        <ele>749.3</ele>
        <time>2022-08-03T08:46:01Z</time>
      </trkpt>
      <trkpt lat="45.74122" lon="1.97356">
        <ele>749.1</ele>
        <time>2022-08-03T08:46:03Z</time>
      </trkpt>
      <trkpt lat="45.74118" lon="1.97351">
        <ele>748.8</ele>
        <time>2022-08-03T08:46:05Z</time>
      </trkpt>
      <trkpt lat="45.74114" lon="1.97344">
        <ele>748.4</ele>
        <time>2022-08-03T08:46:07Z</time>
      </trkpt>
      <trkpt lat="45.7411" lon="1.9734">
        <ele>748.2</ele>
        <time>2022-08-03T08:46:09Z</time>
      </trkpt>
      <trkpt lat="45.74106" lon="1.97332">
        <ele>747.7</ele>
        <time>2022-08-03T08:46:11Z</time>
      </trkpt>
      <trkpt lat="45.74103" lon="1.97327">
        <ele>747.4</ele>
        <time>2022-08-03T08:46:13Z</time>
      </trkpt>
      <trkpt lat="45.74098" lon="1.97322">
        <ele>747.2</ele>
        <time>2022-08-03T08:46:15Z</time>
      </trkpt>
      <trkpt lat="45.74094" lon="1.97319">
        <ele>747</ele>
        <time>2022-08-03T08:46:17Z</time>
      </trkpt>
      <trkpt lat="45.74088" lon="1.97316">
        <ele>746.9</ele>
        <time>2022-08-03T08:46:19Z</time>
      </trkpt>
      <trkpt lat="45.74083" lon="1.97314">
        <ele>746.8</ele>
        <time>2022-08-03T08:46:21Z</time>
      </trkpt>
      <trkpt lat="45.74079" lon="1.97313">
        <ele>746.7</ele>
        <time>2022-08-03T08:46:23Z</time>
      </trkpt>
      <trkpt lat="45.74075" lon="1.97313">
        <ele>746.7</ele>
        <time>2022-08-03T08:46:25Z</time>
      </trkpt>
      <trkpt lat="45.74071" lon="1.97313">
        <ele>746.6</ele>
        <time>2022-08-03T08:46:27Z</time>
      </trkpt>
      <trkpt lat="45.74069" lon="1.97313">
        <ele>746.6</ele>
        <time>2022-08-03T08:46:29Z</time>
      </trkpt>
      <trkpt lat="45.74066" lon="1.97314">
        <ele>746.6</ele>
        <time>2022-08-03T08:46:31Z</time>
      </trkpt>
      <trkpt lat="45.74063" lon="1.97316">
        <ele>746.6</ele>
        <time>2022-08-03T08:46:33Z</time>
      </trkpt>
      <trkpt lat="45.7406" lon="1.97321">
        <ele>746.8</ele>
        <time>2022-08-03T08:46:35Z</time>
      </trkpt>
      <trkpt lat="45.74054" lon="1.97324">
        <ele>746.9</ele>
        <time>2022-08-03T08:46:37Z</time>
      </trkpt>
      <trkpt lat="45.74046" lon="1.9733">
        <ele>746.9</ele>
        <time>2022-08-03T08:46:39Z</time>
      </trkpt>
      <trkpt lat="45.74042" lon="1.97336">
        <ele>747.1</ele>
        <time>2022-08-03T08:46:41Z</time>
      </trkpt>
      <trkpt lat="45.74039" lon="1.97342">
        <ele>747.3</ele>
        <time>2022-08-03T08:46:43Z</time>
      </trkpt>
      <trkpt lat="45.74036" lon="1.97348">
        <ele>747.5</ele>
        <time>2022-08-03T08:46:45Z</time>
      </trkpt>
      <trkpt lat="45.74032" lon="1.97354">
        <ele>747.6</ele>
        <time>2022-08-03T08:46:47Z</time>
      </trkpt>
      <trkpt lat="45.74028" lon="1.9736">
        <ele>747.7</ele>
        <time>2022-08-03T08:46:49Z</time>
      </trkpt>
      <trkpt lat="45.74026" lon="1.97367">
        <ele>747.8</ele>
        <time>2022-08-03T08:46:51Z</time>
      </trkpt>
      <trkpt lat="45.74022" lon="1.97372">
        <ele>747.8</ele>
        <time>2022-08-03T08:46:53Z</time>
      </trkpt>
      <trkpt lat="45.74019" lon="1.97379">
        <ele>748</ele>
        <time>2022-08-03T08:46:55Z</time>
      </trkpt>
      <trkpt lat="45.74016" lon="1.97386">
        <ele>748</ele>
        <time>2022-08-03T08:46:57Z</time>
      </trkpt>
      <trkpt lat="45.74014" lon="1.97392">
        <ele>748.1</ele>
        <time>2022-08-03T08:46:59Z</time>
      </trkpt>
      <trkpt lat="45.74011" lon="1.97399">
        <ele>748.2</ele>
        <time>2022-08-03T08:47:01Z</time>
      </trkpt>
      <trkpt lat="45.7401" lon="1.97405">
        <ele>748.3</ele>
        <time>2022-08-03T08:47:03Z</time>
      </trkpt>
      <trkpt lat="45.74007" lon="1.97413">
        <ele>748.3</ele>
        <time>2022-08-03T08:47:05Z</time>
      </trkpt>
      <trkpt lat="45.74007" lon="1.9742">
        <ele>748.6</ele>
        <time>2022-08-03T08:47:07Z</time>
      </trkpt>
      <trkpt lat="45.74005" lon="1.97427">
        <ele>748.8</ele>
        <time>2022-08-03T08:47:09Z</time>
      </trkpt>
      <trkpt lat="45.74005" lon="1.97434">
        <ele>749.1</ele>
        <time>2022-08-03T08:47:11Z</time>
      </trkpt>
      <trkpt lat="45.74004" lon="1.97442">
        <ele>749.5</ele>
        <time>2022-08-03T08:47:13Z</time>
      </trkpt>
      <trkpt lat="45.74003" lon="1.97452">
        <ele>749.9</ele>
        <time>2022-08-03T08:47:15Z</time>
      </trkpt>
      <trkpt lat="45.74003" lon="1.97459">
        <ele>750.3</ele>
        <time>2022-08-03T08:47:17Z</time>
      </trkpt>
      <trkpt lat="45.74003" lon="1.97467">
        <ele>750.6</ele>
        <time>2022-08-03T08:47:19Z</time>
      </trkpt>
      <trkpt lat="45.74002" lon="1.97475">
        <ele>751</ele>
        <time>2022-08-03T08:47:21Z</time>
      </trkpt>
      <trkpt lat="45.74003" lon="1.97483">
        <ele>751.4</ele>
        <time>2022-08-03T08:47:23Z</time>
      </trkpt>
      <trkpt lat="45.74003" lon="1.97489">
        <ele>751.7</ele>
        <time>2022-08-03T08:47:25Z</time>
      </trkpt>
      <trkpt lat="45.74004" lon="1.97498">
        <ele>752.2</ele>
        <time>2022-08-03T08:47:27Z</time>
      </trkpt>
      <trkpt lat="45.74005" lon="1.97507">
        <ele>752.6</ele>
        <time>2022-08-03T08:47:29Z</time>
      </trkpt>
      <trkpt lat="45.74007" lon="1.97515">
        <ele>752.9</ele>
        <time>2022-08-03T08:47:31Z</time>
      </trkpt>
      <trkpt lat="45.74007" lon="1.97524">
        <ele>753.1</ele>
        <time>2022-08-03T08:47:33Z</time>
      </trkpt>
      <trkpt lat="45.74006" lon="1.97533">
        <ele>753.3</ele>
        <time>2022-08-03T08:47:35Z</time>
      </trkpt>
      <trkpt lat="45.74004" lon="1.97543">
        <ele>753.3</ele>
        <time>2022-08-03T08:47:37Z</time>
      </trkpt>
      <trkpt lat="45.74001" lon="1.97551">
        <ele>753.3</ele>
        <time>2022-08-03T08:47:39Z</time>
      </trkpt>
      <trkpt lat="45.73997" lon="1.97556">
        <ele>753.2</ele>
        <time>2022-08-03T08:47:41Z</time>
      </trkpt>
      <trkpt lat="45.73993" lon="1.97561">
        <ele>753</ele>
        <time>2022-08-03T08:47:43Z</time>
      </trkpt>
      <trkpt lat="45.73988" lon="1.97565">
        <ele>752.7</ele>
        <time>2022-08-03T08:47:45Z</time>
      </trkpt>
      <trkpt lat="45.73983" lon="1.97568">
        <ele>752.4</ele>
        <time>2022-08-03T08:47:47Z</time>
      </trkpt>
      <trkpt lat="45.73978" lon="1.97573">
        <ele>752.1</ele>
        <time>2022-08-03T08:47:49Z</time>
      </trkpt>
      <trkpt lat="45.73971" lon="1.97577">
        <ele>751.6</ele>
        <time>2022-08-03T08:47:51Z</time>
      </trkpt>
      <trkpt lat="45.73964" lon="1.97582">
        <ele>751</ele>
        <time>2022-08-03T08:47:53Z</time>
      </trkpt>
      <trkpt lat="45.73955" lon="1.97588">
        <ele>750.1</ele>
        <time>2022-08-03T08:47:55Z</time>
      </trkpt>
      <trkpt lat="45.73946" lon="1.97594">
        <ele>749.3</ele>
        <time>2022-08-03T08:47:57Z</time>
      </trkpt>
      <trkpt lat="45.73936" lon="1.97597">
        <ele>748.4</ele>
        <time>2022-08-03T08:47:59Z</time>
      </trkpt>
      <trkpt lat="45.73925" lon="1.97602">
        <ele>747.6</ele>
        <time>2022-08-03T08:48:01Z</time>
      </trkpt>
      <trkpt lat="45.73915" lon="1.97607">
        <ele>747</ele>
        <time>2022-08-03T08:48:03Z</time>
      </trkpt>
      <trkpt lat="45.73904" lon="1.97612">
        <ele>746.7</ele>
        <time>2022-08-03T08:48:05Z</time>
      </trkpt>
      <trkpt lat="45.73894" lon="1.97617">
        <ele>746.4</ele>
        <time>2022-08-03T08:48:07Z</time>
      </trkpt>
      <trkpt lat="45.73884" lon="1.97623">
        <ele>746.2</ele>
        <time>2022-08-03T08:48:09Z</time>
      </trkpt>
      <trkpt lat="45.73872" lon="1.97627">
        <ele>745.9</ele>
        <time>2022-08-03T08:48:11Z</time>
      </trkpt>
      <trkpt lat="45.73861" lon="1.97632">
        <ele>745.7</ele>
        <time>2022-08-03T08:48:13Z</time>
      </trkpt>
      <trkpt lat="45.73849" lon="1.97638">
        <ele>745.4</ele>
        <time>2022-08-03T08:48:15Z</time>
      </trkpt>
      <trkpt lat="45.73839" lon="1.97642">
        <ele>745.1</ele>
        <time>2022-08-03T08:48:17Z</time>
      </trkpt>
      <trkpt lat="45.73829" lon="1.97644">
        <ele>744.8</ele>
        <time>2022-08-03T08:48:19Z</time>
      </trkpt>
      <trkpt lat="45.73811" lon="1.9766">
        <ele>743.9</ele>
        <time>2022-08-03T08:48:21Z</time>
      </trkpt>
      <trkpt lat="45.73797" lon="1.97665">
        <ele>743.3</ele>
        <time>2022-08-03T08:48:23Z</time>
      </trkpt>
      <trkpt lat="45.73784" lon="1.97671">
        <ele>742.8</ele>
        <time>2022-08-03T08:48:25Z</time>
      </trkpt>
      <trkpt lat="45.73772" lon="1.97676">
        <ele>742.4</ele>
        <time>2022-08-03T08:48:27Z</time>
      </trkpt>
      <trkpt lat="45.73759" lon="1.97682">
        <ele>741.7</ele>
        <time>2022-08-03T08:48:29Z</time>
      </trkpt>
      <trkpt lat="45.73746" lon="1.97687">
        <ele>741.1</ele>
        <time>2022-08-03T08:48:31Z</time>
      </trkpt>
      <trkpt lat="45.73733" lon="1.97692">
        <ele>740.8</ele>
        <time>2022-08-03T08:48:33Z</time>
      </trkpt>
      <trkpt lat="45.7372" lon="1.977">
        <ele>740.5</ele>
        <time>2022-08-03T08:48:35Z</time>
      </trkpt>
      <trkpt lat="45.73708" lon="1.9771">
        <ele>740.2</ele>
        <time>2022-08-03T08:48:37Z</time>
      </trkpt>
      <trkpt lat="45.73696" lon="1.97721">
        <ele>739.9</ele>
        <time>2022-08-03T08:48:39Z</time>
      </trkpt>
      <trkpt lat="45.73685" lon="1.97734">
        <ele>739.6</ele>
        <time>2022-08-03T08:48:41Z</time>
      </trkpt>
      <trkpt lat="45.73673" lon="1.97751">
        <ele>739.2</ele>
        <time>2022-08-03T08:48:43Z</time>
      </trkpt>
      <trkpt lat="45.73662" lon="1.97767">
        <ele>738.9</ele>
        <time>2022-08-03T08:48:45Z</time>
      </trkpt>
      <trkpt lat="45.73651" lon="1.97781">
        <ele>738.6</ele>
        <time>2022-08-03T08:48:47Z</time>
      </trkpt>
      <trkpt lat="45.73641" lon="1.97797">
        <ele>738.2</ele>
        <time>2022-08-03T08:48:49Z</time>
      </trkpt>
      <trkpt lat="45.7363" lon="1.97811">
        <ele>737.8</ele>
        <time>2022-08-03T08:48:51Z</time>
      </trkpt>
      <trkpt lat="45.7362" lon="1.97824">
        <ele>737.4</ele>
        <time>2022-08-03T08:48:53Z</time>
      </trkpt>
      <trkpt lat="45.7361" lon="1.97838">
        <ele>737.2</ele>
        <time>2022-08-03T08:48:55Z</time>
      </trkpt>
      <trkpt lat="45.73601" lon="1.9785">
        <ele>737.6</ele>
        <time>2022-08-03T08:48:57Z</time>
      </trkpt>
      <trkpt lat="45.73592" lon="1.97861">
        <ele>738</ele>
        <time>2022-08-03T08:48:59Z</time>
      </trkpt>
      <trkpt lat="45.73584" lon="1.97872">
        <ele>738.3</ele>
        <time>2022-08-03T08:49:01Z</time>
      </trkpt>
      <trkpt lat="45.73576" lon="1.97883">
        <ele>738.6</ele>
        <time>2022-08-03T08:49:03Z</time>
      </trkpt>
      <trkpt lat="45.73569" lon="1.97892">
        <ele>738.8</ele>
        <time>2022-08-03T08:49:05Z</time>
      </trkpt>
      <trkpt lat="45.73563" lon="1.97903">
        <ele>739</ele>
        <time>2022-08-03T08:49:07Z</time>
      </trkpt>
      <trkpt lat="45.73556" lon="1.97913">
        <ele>739.2</ele>
        <time>2022-08-03T08:49:09Z</time>
      </trkpt>
      <trkpt lat="45.7355" lon="1.97924">
        <ele>739.6</ele>
        <time>2022-08-03T08:49:11Z</time>
      </trkpt>
      <trkpt lat="45.73544" lon="1.97934">
        <ele>740.1</ele>
        <time>2022-08-03T08:49:13Z</time>
      </trkpt>
      <trkpt lat="45.73538" lon="1.97944">
        <ele>740.6</ele>
        <time>2022-08-03T08:49:15Z</time>
      </trkpt>
      <trkpt lat="45.73533" lon="1.97955">
        <ele>741.2</ele>
        <time>2022-08-03T08:49:17Z</time>
      </trkpt>
      <trkpt lat="45.73527" lon="1.97966">
        <ele>741.8</ele>
        <time>2022-08-03T08:49:19Z</time>
      </trkpt>
      <trkpt lat="45.73521" lon="1.97976">
        <ele>742.3</ele>
        <time>2022-08-03T08:49:21Z</time>
      </trkpt>
      <trkpt lat="45.73516" lon="1.97987">
        <ele>742.8</ele>
        <time>2022-08-03T08:49:23Z</time>
      </trkpt>
      <trkpt lat="45.73511" lon="1.97997">
        <ele>743.4</ele>
        <time>2022-08-03T08:49:25Z</time>
      </trkpt>
      <trkpt lat="45.73505" lon="1.98008">
        <ele>743.8</ele>
        <time>2022-08-03T08:49:27Z</time>
      </trkpt>
      <trkpt lat="45.73499" lon="1.98018">
        <ele>744</ele>
        <time>2022-08-03T08:49:29Z</time>
      </trkpt>
      <trkpt lat="45.73494" lon="1.98029">
        <ele>744.1</ele>
        <time>2022-08-03T08:49:31Z</time>
      </trkpt>
      <trkpt lat="45.73489" lon="1.98039">
        <ele>744.2</ele>
        <time>2022-08-03T08:49:33Z</time>
      </trkpt>
      <trkpt lat="45.73484" lon="1.9805">
        <ele>744.3</ele>
        <time>2022-08-03T08:49:35Z</time>
      </trkpt>
      <trkpt lat="45.73479" lon="1.98061">
        <ele>744.5</ele>
        <time>2022-08-03T08:49:37Z</time>
      </trkpt>
      <trkpt lat="45.73474" lon="1.98074">
        <ele>744.7</ele>
        <time>2022-08-03T08:49:39Z</time>
      </trkpt>
      <trkpt lat="45.73471" lon="1.98088">
        <ele>744.7</ele>
        <time>2022-08-03T08:49:41Z</time>
      </trkpt>
      <trkpt lat="45.73468" lon="1.98102">
        <ele>744</ele>
        <time>2022-08-03T08:49:43Z</time>
      </trkpt>
      <trkpt lat="45.73466" lon="1.98116">
        <ele>743.4</ele>
        <time>2022-08-03T08:49:45Z</time>
      </trkpt>
      <trkpt lat="45.73463" lon="1.98134">
        <ele>742.7</ele>
        <time>2022-08-03T08:49:47Z</time>
      </trkpt>
      <trkpt lat="45.73462" lon="1.9815">
        <ele>742.1</ele>
        <time>2022-08-03T08:49:49Z</time>
      </trkpt>
      <trkpt lat="45.7346" lon="1.98167">
        <ele>741.6</ele>
        <time>2022-08-03T08:49:51Z</time>
      </trkpt>
      <trkpt lat="45.73458" lon="1.98183">
        <ele>741.6</ele>
        <time>2022-08-03T08:49:53Z</time>
      </trkpt>
      <trkpt lat="45.73456" lon="1.982">
        <ele>741.6</ele>
        <time>2022-08-03T08:49:55Z</time>
      </trkpt>
      <trkpt lat="45.73454" lon="1.98217">
        <ele>741.6</ele>
        <time>2022-08-03T08:49:57Z</time>
      </trkpt>
      <trkpt lat="45.73452" lon="1.98232">
        <ele>741.6</ele>
        <time>2022-08-03T08:49:59Z</time>
      </trkpt>
      <trkpt lat="45.73451" lon="1.98247">
        <ele>741.6</ele>
        <time>2022-08-03T08:50:01Z</time>
      </trkpt>
      <trkpt lat="45.73448" lon="1.98262">
        <ele>742.1</ele>
        <time>2022-08-03T08:50:03Z</time>
      </trkpt>
      <trkpt lat="45.73447" lon="1.98276">
        <ele>742.7</ele>
        <time>2022-08-03T08:50:05Z</time>
      </trkpt>
      <trkpt lat="45.73445" lon="1.98291">
        <ele>743.4</ele>
        <time>2022-08-03T08:50:07Z</time>
      </trkpt>
      <trkpt lat="45.73444" lon="1.98305">
        <ele>744</ele>
        <time>2022-08-03T08:50:09Z</time>
      </trkpt>
      <trkpt lat="45.73442" lon="1.98321">
        <ele>744.6</ele>
        <time>2022-08-03T08:50:11Z</time>
      </trkpt>
      <trkpt lat="45.7344" lon="1.98335">
        <ele>745</ele>
        <time>2022-08-03T08:50:13Z</time>
      </trkpt>
      <trkpt lat="45.73438" lon="1.9835">
        <ele>744.2</ele>
        <time>2022-08-03T08:50:15Z</time>
      </trkpt>
      <trkpt lat="45.73436" lon="1.98365">
        <ele>743.4</ele>
        <time>2022-08-03T08:50:17Z</time>
      </trkpt>
      <trkpt lat="45.73434" lon="1.98381">
        <ele>742.4</ele>
        <time>2022-08-03T08:50:19Z</time>
      </trkpt>
      <trkpt lat="45.73432" lon="1.98398">
        <ele>741.5</ele>
        <time>2022-08-03T08:50:21Z</time>
      </trkpt>
      <trkpt lat="45.73431" lon="1.98414">
        <ele>740.5</ele>
        <time>2022-08-03T08:50:23Z</time>
      </trkpt>
      <trkpt lat="45.73429" lon="1.98429">
        <ele>740.1</ele>
        <time>2022-08-03T08:50:25Z</time>
      </trkpt>
      <trkpt lat="45.73426" lon="1.98444">
        <ele>739.8</ele>
        <time>2022-08-03T08:50:27Z</time>
      </trkpt>
      <trkpt lat="45.73424" lon="1.9846">
        <ele>739.4</ele>
        <time>2022-08-03T08:50:29Z</time>
      </trkpt>
      <trkpt lat="45.7342" lon="1.98474">
        <ele>738.7</ele>
        <time>2022-08-03T08:50:31Z</time>
      </trkpt>
      <trkpt lat="45.73415" lon="1.98487">
        <ele>738.1</ele>
        <time>2022-08-03T08:50:33Z</time>
      </trkpt>
      <trkpt lat="45.7341" lon="1.98499">
        <ele>737.8</ele>
        <time>2022-08-03T08:50:35Z</time>
      </trkpt>
      <trkpt lat="45.73403" lon="1.98511">
        <ele>738.3</ele>
        <time>2022-08-03T08:50:37Z</time>
      </trkpt>
      <trkpt lat="45.73396" lon="1.98521">
        <ele>738.6</ele>
        <time>2022-08-03T08:50:39Z</time>
      </trkpt>
      <trkpt lat="45.7339" lon="1.98532">
        <ele>738.9</ele>
        <time>2022-08-03T08:50:41Z</time>
      </trkpt>
      <trkpt lat="45.73382" lon="1.98542">
        <ele>739.1</ele>
        <time>2022-08-03T08:50:43Z</time>
      </trkpt>
      <trkpt lat="45.73375" lon="1.98551">
        <ele>739.1</ele>
        <time>2022-08-03T08:50:45Z</time>
      </trkpt>
      <trkpt lat="45.73368" lon="1.98561">
        <ele>739.2</ele>
        <time>2022-08-03T08:50:47Z</time>
      </trkpt>
      <trkpt lat="45.73361" lon="1.98571">
        <ele>739.2</ele>
        <time>2022-08-03T08:50:49Z</time>
      </trkpt>
      <trkpt lat="45.73354" lon="1.98581">
        <ele>739.1</ele>
        <time>2022-08-03T08:50:51Z</time>
      </trkpt>
      <trkpt lat="45.73347" lon="1.9859">
        <ele>739.2</ele>
        <time>2022-08-03T08:50:53Z</time>
      </trkpt>
      <trkpt lat="45.73341" lon="1.986">
        <ele>739.4</ele>
        <time>2022-08-03T08:50:55Z</time>
      </trkpt>
      <trkpt lat="45.73334" lon="1.98611">
        <ele>739.7</ele>
        <time>2022-08-03T08:50:57Z</time>
      </trkpt>
      <trkpt lat="45.73329" lon="1.98622">
        <ele>740.2</ele>
        <time>2022-08-03T08:50:59Z</time>
      </trkpt>
      <trkpt lat="45.73325" lon="1.98634">
        <ele>740.7</ele>
        <time>2022-08-03T08:51:01Z</time>
      </trkpt>
      <trkpt lat="45.73322" lon="1.98646">
        <ele>741.3</ele>
        <time>2022-08-03T08:51:03Z</time>
      </trkpt>
      <trkpt lat="45.73319" lon="1.98658">
        <ele>741.8</ele>
        <time>2022-08-03T08:51:05Z</time>
      </trkpt>
      <trkpt lat="45.73317" lon="1.98672">
        <ele>742.2</ele>
        <time>2022-08-03T08:51:07Z</time>
      </trkpt>
      <trkpt lat="45.73316" lon="1.98685">
        <ele>742.2</ele>
        <time>2022-08-03T08:51:09Z</time>
      </trkpt>
      <trkpt lat="45.73314" lon="1.98699">
        <ele>742.3</ele>
        <time>2022-08-03T08:51:11Z</time>
      </trkpt>
      <trkpt lat="45.73313" lon="1.98713">
        <ele>742.3</ele>
        <time>2022-08-03T08:51:13Z</time>
      </trkpt>
      <trkpt lat="45.73311" lon="1.98727">
        <ele>742.3</ele>
        <time>2022-08-03T08:51:15Z</time>
      </trkpt>
      <trkpt lat="45.73309" lon="1.98741">
        <ele>742.4</ele>
        <time>2022-08-03T08:51:17Z</time>
      </trkpt>
      <trkpt lat="45.73307" lon="1.98755">
        <ele>742</ele>
        <time>2022-08-03T08:51:19Z</time>
      </trkpt>
      <trkpt lat="45.73303" lon="1.98768">
        <ele>740.8</ele>
        <time>2022-08-03T08:51:21Z</time>
      </trkpt>
      <trkpt lat="45.73299" lon="1.98781">
        <ele>739.8</ele>
        <time>2022-08-03T08:51:23Z</time>
      </trkpt>
      <trkpt lat="45.73294" lon="1.98794">
        <ele>738.8</ele>
        <time>2022-08-03T08:51:25Z</time>
      </trkpt>
      <trkpt lat="45.73286" lon="1.98806">
        <ele>738</ele>
        <time>2022-08-03T08:51:27Z</time>
      </trkpt>
      <trkpt lat="45.73277" lon="1.98816">
        <ele>737.5</ele>
        <time>2022-08-03T08:51:29Z</time>
      </trkpt>
      <trkpt lat="45.73266" lon="1.98823">
        <ele>737.2</ele>
        <time>2022-08-03T08:51:31Z</time>
      </trkpt>
      <trkpt lat="45.73255" lon="1.98826">
        <ele>737.2</ele>
        <time>2022-08-03T08:51:33Z</time>
      </trkpt>
      <trkpt lat="45.73245" lon="1.98831">
        <ele>737.1</ele>
        <time>2022-08-03T08:51:35Z</time>
      </trkpt>
      <trkpt lat="45.73236" lon="1.98832">
        <ele>736.9</ele>
        <time>2022-08-03T08:51:37Z</time>
      </trkpt>
      <trkpt lat="45.73228" lon="1.98834">
        <ele>736.7</ele>
        <time>2022-08-03T08:51:39Z</time>
      </trkpt>
      <trkpt lat="45.73219" lon="1.98837">
        <ele>736.5</ele>
        <time>2022-08-03T08:51:41Z</time>
      </trkpt>
      <trkpt lat="45.73211" lon="1.98841">
        <ele>736.3</ele>
        <time>2022-08-03T08:51:43Z</time>
      </trkpt>
      <trkpt lat="45.73202" lon="1.98848">
        <ele>736.1</ele>
        <time>2022-08-03T08:51:45Z</time>
      </trkpt>
      <trkpt lat="45.73195" lon="1.98859">
        <ele>735.8</ele>
        <time>2022-08-03T08:51:47Z</time>
      </trkpt>
      <trkpt lat="45.73188" lon="1.98873">
        <ele>735.7</ele>
        <time>2022-08-03T08:51:49Z</time>
      </trkpt>
      <trkpt lat="45.73182" lon="1.98888">
        <ele>735.6</ele>
        <time>2022-08-03T08:51:51Z</time>
      </trkpt>
      <trkpt lat="45.73178" lon="1.98904">
        <ele>735.6</ele>
        <time>2022-08-03T08:51:53Z</time>
      </trkpt>
      <trkpt lat="45.73175" lon="1.98919">
        <ele>735.6</ele>
        <time>2022-08-03T08:51:55Z</time>
      </trkpt>
      <trkpt lat="45.73173" lon="1.98934">
        <ele>735.9</ele>
        <time>2022-08-03T08:51:57Z</time>
      </trkpt>
      <trkpt lat="45.73172" lon="1.98949">
        <ele>736.2</ele>
        <time>2022-08-03T08:51:59Z</time>
      </trkpt>
      <trkpt lat="45.73171" lon="1.98964">
        <ele>736.4</ele>
        <time>2022-08-03T08:52:01Z</time>
      </trkpt>
      <trkpt lat="45.73171" lon="1.98978">
        <ele>736.6</ele>
        <time>2022-08-03T08:52:03Z</time>
      </trkpt>
      <trkpt lat="45.73173" lon="1.98992">
        <ele>736.7</ele>
        <time>2022-08-03T08:52:05Z</time>
      </trkpt>
      <trkpt lat="45.73174" lon="1.99005">
        <ele>737.1</ele>
        <time>2022-08-03T08:52:07Z</time>
      </trkpt>
      <trkpt lat="45.73177" lon="1.99018">
        <ele>737.7</ele>
        <time>2022-08-03T08:52:09Z</time>
      </trkpt>
      <trkpt lat="45.7318" lon="1.9903">
        <ele>738.1</ele>
        <time>2022-08-03T08:52:11Z</time>
      </trkpt>
      <trkpt lat="45.73185" lon="1.99043">
        <ele>738.5</ele>
        <time>2022-08-03T08:52:13Z</time>
      </trkpt>
      <trkpt lat="45.73189" lon="1.99055">
        <ele>738.7</ele>
        <time>2022-08-03T08:52:15Z</time>
      </trkpt>
      <trkpt lat="45.73193" lon="1.99066">
        <ele>738.8</ele>
        <time>2022-08-03T08:52:17Z</time>
      </trkpt>
      <trkpt lat="45.73197" lon="1.99078">
        <ele>738.9</ele>
        <time>2022-08-03T08:52:19Z</time>
      </trkpt>
      <trkpt lat="45.73202" lon="1.9909">
        <ele>738.8</ele>
        <time>2022-08-03T08:52:21Z</time>
      </trkpt>
      <trkpt lat="45.73206" lon="1.99102">
        <ele>738.5</ele>
        <time>2022-08-03T08:52:23Z</time>
      </trkpt>
      <trkpt lat="45.73211" lon="1.99116">
        <ele>738.3</ele>
        <time>2022-08-03T08:52:25Z</time>
      </trkpt>
      <trkpt lat="45.73216" lon="1.99129">
        <ele>738</ele>
        <time>2022-08-03T08:52:27Z</time>
      </trkpt>
      <trkpt lat="45.73222" lon="1.99142">
        <ele>737.6</ele>
        <time>2022-08-03T08:52:29Z</time>
      </trkpt>
      <trkpt lat="45.7323" lon="1.99154">
        <ele>737</ele>
        <time>2022-08-03T08:52:31Z</time>
      </trkpt>
      <trkpt lat="45.7324" lon="1.99165">
        <ele>736.1</ele>
        <time>2022-08-03T08:52:33Z</time>
      </trkpt>
      <trkpt lat="45.73251" lon="1.99173">
        <ele>735.2</ele>
        <time>2022-08-03T08:52:35Z</time>
      </trkpt>
      <trkpt lat="45.73262" lon="1.99182">
        <ele>734.1</ele>
        <time>2022-08-03T08:52:37Z</time>
      </trkpt>
      <trkpt lat="45.73273" lon="1.99192">
        <ele>733.1</ele>
        <time>2022-08-03T08:52:39Z</time>
      </trkpt>
      <trkpt lat="45.73283" lon="1.99202">
        <ele>732.2</ele>
        <time>2022-08-03T08:52:41Z</time>
      </trkpt>
      <trkpt lat="45.73295" lon="1.9921">
        <ele>730.9</ele>
        <time>2022-08-03T08:52:43Z</time>
      </trkpt>
      <trkpt lat="45.73306" lon="1.99221">
        <ele>729.8</ele>
        <time>2022-08-03T08:52:45Z</time>
      </trkpt>
      <trkpt lat="45.73318" lon="1.99234">
        <ele>728.5</ele>
        <time>2022-08-03T08:52:47Z</time>
      </trkpt>
      <trkpt lat="45.7333" lon="1.99244">
        <ele>727.3</ele>
        <time>2022-08-03T08:52:49Z</time>
      </trkpt>
      <trkpt lat="45.7334" lon="1.99257">
        <ele>726.9</ele>
        <time>2022-08-03T08:52:51Z</time>
      </trkpt>
      <trkpt lat="45.73347" lon="1.99275">
        <ele>726.8</ele>
        <time>2022-08-03T08:52:53Z</time>
      </trkpt>
      <trkpt lat="45.73348" lon="1.99297">
        <ele>727.1</ele>
        <time>2022-08-03T08:52:55Z</time>
      </trkpt>
      <trkpt lat="45.73342" lon="1.99316">
        <ele>727.9</ele>
        <time>2022-08-03T08:52:57Z</time>
      </trkpt>
      <trkpt lat="45.73332" lon="1.99329">
        <ele>729.1</ele>
        <time>2022-08-03T08:52:59Z</time>
      </trkpt>
      <trkpt lat="45.73321" lon="1.99341">
        <ele>730.3</ele>
        <time>2022-08-03T08:53:01Z</time>
      </trkpt>
      <trkpt lat="45.73311" lon="1.99355">
        <ele>731.2</ele>
        <time>2022-08-03T08:53:03Z</time>
      </trkpt>
      <trkpt lat="45.73301" lon="1.9937">
        <ele>732</ele>
        <time>2022-08-03T08:53:05Z</time>
      </trkpt>
      <trkpt lat="45.73298" lon="1.9939">
        <ele>731.9</ele>
        <time>2022-08-03T08:53:07Z</time>
      </trkpt>
      <trkpt lat="45.73301" lon="1.99409">
        <ele>731.1</ele>
        <time>2022-08-03T08:53:09Z</time>
      </trkpt>
      <trkpt lat="45.73306" lon="1.99427">
        <ele>730.4</ele>
        <time>2022-08-03T08:53:11Z</time>
      </trkpt>
      <trkpt lat="45.73309" lon="1.99446">
        <ele>730.2</ele>
        <time>2022-08-03T08:53:13Z</time>
      </trkpt>
      <trkpt lat="45.7331" lon="1.99467">
        <ele>730.3</ele>
        <time>2022-08-03T08:53:15Z</time>
      </trkpt>
      <trkpt lat="45.7331" lon="1.99492">
        <ele>730.6</ele>
        <time>2022-08-03T08:53:17Z</time>
      </trkpt>
      <trkpt lat="45.73308" lon="1.99506">
        <ele>730.9</ele>
        <time>2022-08-03T08:53:19Z</time>
      </trkpt>
      <trkpt lat="45.73304" lon="1.99526">
        <ele>731.3</ele>
        <time>2022-08-03T08:53:21Z</time>
      </trkpt>
      <trkpt lat="45.73302" lon="1.99546">
        <ele>731.5</ele>
        <time>2022-08-03T08:53:23Z</time>
      </trkpt>
      <trkpt lat="45.73299" lon="1.99565">
        <ele>731.7</ele>
        <time>2022-08-03T08:53:25Z</time>
      </trkpt>
      <trkpt lat="45.73292" lon="1.99584">
        <ele>732</ele>
        <time>2022-08-03T08:53:27Z</time>
      </trkpt>
      <trkpt lat="45.7328" lon="1.99598">
        <ele>731.3</ele>
        <time>2022-08-03T08:53:29Z</time>
      </trkpt>
      <trkpt lat="45.73267" lon="1.99609">
        <ele>730.7</ele>
        <time>2022-08-03T08:53:31Z</time>
      </trkpt>
      <trkpt lat="45.73252" lon="1.99619">
        <ele>730</ele>
        <time>2022-08-03T08:53:33Z</time>
      </trkpt>
      <trkpt lat="45.73239" lon="1.99633">
        <ele>728.3</ele>
        <time>2022-08-03T08:53:35Z</time>
      </trkpt>
      <trkpt lat="45.73227" lon="1.99647">
        <ele>726.6</ele>
        <time>2022-08-03T08:53:37Z</time>
      </trkpt>
      <trkpt lat="45.73214" lon="1.99662">
        <ele>725</ele>
        <time>2022-08-03T08:53:39Z</time>
      </trkpt>
      <trkpt lat="45.73198" lon="1.99675">
        <ele>723.7</ele>
        <time>2022-08-03T08:53:41Z</time>
      </trkpt>
      <trkpt lat="45.73185" lon="1.99686">
        <ele>722.5</ele>
        <time>2022-08-03T08:53:43Z</time>
      </trkpt>
      <trkpt lat="45.73172" lon="1.99695">
        <ele>721.2</ele>
        <time>2022-08-03T08:53:45Z</time>
      </trkpt>
      <trkpt lat="45.73162" lon="1.99699">
        <ele>720.5</ele>
        <time>2022-08-03T08:53:47Z</time>
      </trkpt>
      <trkpt lat="45.73156" lon="1.99705">
        <ele>719.8</ele>
        <time>2022-08-03T08:53:49Z</time>
      </trkpt>
      <trkpt lat="45.73149" lon="1.99709">
        <ele>719.4</ele>
        <time>2022-08-03T08:53:51Z</time>
      </trkpt>
      <trkpt lat="45.73143" lon="1.99713">
        <ele>718.9</ele>
        <time>2022-08-03T08:53:53Z</time>
      </trkpt>
      <trkpt lat="45.73138" lon="1.99717">
        <ele>718.6</ele>
        <time>2022-08-03T08:53:55Z</time>
      </trkpt>
      <trkpt lat="45.73131" lon="1.99722">
        <ele>718.2</ele>
        <time>2022-08-03T08:53:57Z</time>
      </trkpt>
      <trkpt lat="45.73125" lon="1.99726">
        <ele>717.9</ele>
        <time>2022-08-03T08:53:59Z</time>
      </trkpt>
      <trkpt lat="45.73119" lon="1.9973">
        <ele>717.6</ele>
        <time>2022-08-03T08:54:01Z</time>
      </trkpt>
      <trkpt lat="45.73112" lon="1.99734">
        <ele>717.4</ele>
        <time>2022-08-03T08:54:03Z</time>
      </trkpt>
      <trkpt lat="45.73105" lon="1.99739">
        <ele>717.2</ele>
        <time>2022-08-03T08:54:05Z</time>
      </trkpt>
      <trkpt lat="45.73098" lon="1.99743">
        <ele>717.1</ele>
        <time>2022-08-03T08:54:07Z</time>
      </trkpt>
      <trkpt lat="45.73091" lon="1.99746">
        <ele>717</ele>
        <time>2022-08-03T08:54:09Z</time>
      </trkpt>
      <trkpt lat="45.73083" lon="1.99749">
        <ele>717</ele>
        <time>2022-08-03T08:54:11Z</time>
      </trkpt>
      <trkpt lat="45.73076" lon="1.9975">
        <ele>717.5</ele>
        <time>2022-08-03T08:54:13Z</time>
      </trkpt>
      <trkpt lat="45.7307" lon="1.99751">
        <ele>717.9</ele>
        <time>2022-08-03T08:54:15Z</time>
      </trkpt>
      <trkpt lat="45.73063" lon="1.9975">
        <ele>718.2</ele>
        <time>2022-08-03T08:54:17Z</time>
      </trkpt>
      <trkpt lat="45.73057" lon="1.9975">
        <ele>718.6</ele>
        <time>2022-08-03T08:54:19Z</time>
      </trkpt>
      <trkpt lat="45.7305" lon="1.99749">
        <ele>719</ele>
        <time>2022-08-03T08:54:21Z</time>
      </trkpt>
      <trkpt lat="45.73043" lon="1.99747">
        <ele>719.3</ele>
        <time>2022-08-03T08:54:23Z</time>
      </trkpt>
      <trkpt lat="45.73036" lon="1.99744">
        <ele>719.6</ele>
        <time>2022-08-03T08:54:25Z</time>
      </trkpt>
      <trkpt lat="45.73029" lon="1.9974">
        <ele>719.9</ele>
        <time>2022-08-03T08:54:27Z</time>
      </trkpt>
      <trkpt lat="45.73022" lon="1.99736">
        <ele>720.1</ele>
        <time>2022-08-03T08:54:29Z</time>
      </trkpt>
      <trkpt lat="45.73016" lon="1.9973">
        <ele>720.1</ele>
        <time>2022-08-03T08:54:31Z</time>
      </trkpt>
      <trkpt lat="45.73011" lon="1.99726">
        <ele>720.1</ele>
        <time>2022-08-03T08:54:33Z</time>
      </trkpt>
      <trkpt lat="45.73006" lon="1.99721">
        <ele>720</ele>
        <time>2022-08-03T08:54:35Z</time>
      </trkpt>
      <trkpt lat="45.73003" lon="1.99716">
        <ele>719.9</ele>
        <time>2022-08-03T08:54:37Z</time>
      </trkpt>
      <trkpt lat="45.72999" lon="1.9971">
        <ele>719.6</ele>
        <time>2022-08-03T08:54:39Z</time>
      </trkpt>
      <trkpt lat="45.72995" lon="1.99705">
        <ele>719.5</ele>
        <time>2022-08-03T08:54:41Z</time>
      </trkpt>
      <trkpt lat="45.72991" lon="1.99699">
        <ele>719.3</ele>
        <time>2022-08-03T08:54:43Z</time>
      </trkpt>
      <trkpt lat="45.72986" lon="1.99694">
        <ele>719.3</ele>
        <time>2022-08-03T08:54:45Z</time>
      </trkpt>
      <trkpt lat="45.72981" lon="1.99688">
        <ele>719.2</ele>
        <time>2022-08-03T08:54:47Z</time>
      </trkpt>
      <trkpt lat="45.72978" lon="1.99683">
        <ele>719.2</ele>
        <time>2022-08-03T08:54:49Z</time>
      </trkpt>
      <trkpt lat="45.72975" lon="1.99679">
        <ele>719.2</ele>
        <time>2022-08-03T08:54:51Z</time>
      </trkpt>
      <trkpt lat="45.72976" lon="1.99673">
        <ele>719</ele>
        <time>2022-08-03T08:54:53Z</time>
      </trkpt>
      <trkpt lat="45.72978" lon="1.99671">
        <ele>718.8</ele>
        <time>2022-08-03T08:54:55Z</time>
      </trkpt>
      <trkpt lat="45.72978" lon="1.99671">
        <ele>718.8</ele>
        <time>2022-08-03T08:54:57Z</time>
      </trkpt>
      <trkpt lat="45.72978" lon="1.99671">
        <ele>718.7</ele>
        <time>2022-08-03T08:54:59Z</time>
      </trkpt>
      <trkpt lat="45.72978" lon="1.99671">
        <ele>718.7</ele>
        <time>2022-08-03T08:55:01Z</time>
      </trkpt>
      <trkpt lat="45.72978" lon="1.9967">
        <ele>718.7</ele>
        <time>2022-08-03T08:55:03Z</time>
      </trkpt>
      <trkpt lat="45.72983" lon="1.99668">
        <ele>718.3</ele>
        <time>2022-08-03T09:18:33Z</time>
      </trkpt>
      <trkpt lat="45.72983" lon="1.99668">
        <ele>718.3</ele>
        <time>2022-08-03T09:18:34Z</time>
      </trkpt>
      <trkpt lat="45.72964" lon="1.99666">
        <ele>719.6</ele>
        <time>2022-08-03T09:23:36Z</time>
      </trkpt>
      <trkpt lat="45.7296" lon="1.9966">
        <ele>719.7</ele>
        <time>2022-08-03T09:23:38Z</time>
      </trkpt>
      <trkpt lat="45.72955" lon="1.99654">
        <ele>719.8</ele>
        <time>2022-08-03T09:23:40Z</time>
      </trkpt>
      <trkpt lat="45.7295" lon="1.99649">
        <ele>719.8</ele>
        <time>2022-08-03T09:23:42Z</time>
      </trkpt>
      <trkpt lat="45.72946" lon="1.99645">
        <ele>719.9</ele>
        <time>2022-08-03T09:23:44Z</time>
      </trkpt>
      <trkpt lat="45.72941" lon="1.99641">
        <ele>719.9</ele>
        <time>2022-08-03T09:23:46Z</time>
      </trkpt>
      <trkpt lat="45.72936" lon="1.99638">
        <ele>720.1</ele>
        <time>2022-08-03T09:23:48Z</time>
      </trkpt>
      <trkpt lat="45.72931" lon="1.99634">
        <ele>720</ele>
        <time>2022-08-03T09:23:50Z</time>
      </trkpt>
      <trkpt lat="45.72926" lon="1.9963">
        <ele>720</ele>
        <time>2022-08-03T09:23:52Z</time>
      </trkpt>
      <trkpt lat="45.72921" lon="1.99626">
        <ele>720</ele>
        <time>2022-08-03T09:23:54Z</time>
      </trkpt>
      <trkpt lat="45.72915" lon="1.99624">
        <ele>720</ele>
        <time>2022-08-03T09:23:56Z</time>
      </trkpt>
      <trkpt lat="45.7291" lon="1.99621">
        <ele>719.9</ele>
        <time>2022-08-03T09:23:58Z</time>
      </trkpt>
      <trkpt lat="45.72904" lon="1.99619">
        <ele>719.9</ele>
        <time>2022-08-03T09:24:00Z</time>
      </trkpt>
      <trkpt lat="45.72898" lon="1.99617">
        <ele>719.8</ele>
        <time>2022-08-03T09:24:02Z</time>
      </trkpt>
      <trkpt lat="45.72892" lon="1.99614">
        <ele>719.8</ele>
        <time>2022-08-03T09:24:04Z</time>
      </trkpt>
      <trkpt lat="45.72886" lon="1.99612">
        <ele>719.8</ele>
        <time>2022-08-03T09:24:06Z</time>
      </trkpt>
      <trkpt lat="45.7288" lon="1.9961">
        <ele>719.8</ele>
        <time>2022-08-03T09:24:08Z</time>
      </trkpt>
      <trkpt lat="45.72874" lon="1.99608">
        <ele>719.8</ele>
        <time>2022-08-03T09:24:10Z</time>
      </trkpt>
      <trkpt lat="45.72868" lon="1.99606">
        <ele>719.8</ele>
        <time>2022-08-03T09:24:12Z</time>
      </trkpt>
      <trkpt lat="45.72862" lon="1.99606">
        <ele>719.9</ele>
        <time>2022-08-03T09:24:14Z</time>
      </trkpt>
      <trkpt lat="45.72857" lon="1.99604">
        <ele>720</ele>
        <time>2022-08-03T09:24:16Z</time>
      </trkpt>
      <trkpt lat="45.72851" lon="1.99604">
        <ele>720</ele>
        <time>2022-08-03T09:24:18Z</time>
      </trkpt>
      <trkpt lat="45.72846" lon="1.99603">
        <ele>720.1</ele>
        <time>2022-08-03T09:24:20Z</time>
      </trkpt>
      <trkpt lat="45.72841" lon="1.99603">
        <ele>720.2</ele>
        <time>2022-08-03T09:24:22Z</time>
      </trkpt>
      <trkpt lat="45.72836" lon="1.99603">
        <ele>720.4</ele>
        <time>2022-08-03T09:24:24Z</time>
      </trkpt>
      <trkpt lat="45.72831" lon="1.99603">
        <ele>720.4</ele>
        <time>2022-08-03T09:24:26Z</time>
      </trkpt>
      <trkpt lat="45.72826" lon="1.99603">
        <ele>720.5</ele>
        <time>2022-08-03T09:24:28Z</time>
      </trkpt>
      <trkpt lat="45.7282" lon="1.99605">
        <ele>720.6</ele>
        <time>2022-08-03T09:24:30Z</time>
      </trkpt>
      <trkpt lat="45.72816" lon="1.99605">
        <ele>720.6</ele>
        <time>2022-08-03T09:24:32Z</time>
      </trkpt>
      <trkpt lat="45.72811" lon="1.99606">
        <ele>720.7</ele>
        <time>2022-08-03T09:24:34Z</time>
      </trkpt>
      <trkpt lat="45.72806" lon="1.99607">
        <ele>720.8</ele>
        <time>2022-08-03T09:24:36Z</time>
      </trkpt>
      <trkpt lat="45.72802" lon="1.99608">
        <ele>720.9</ele>
        <time>2022-08-03T09:24:38Z</time>
      </trkpt>
      <trkpt lat="45.72798" lon="1.9961">
        <ele>721</ele>
        <time>2022-08-03T09:24:40Z</time>
      </trkpt>
      <trkpt lat="45.72794" lon="1.99612">
        <ele>721.2</ele>
        <time>2022-08-03T09:24:42Z</time>
      </trkpt>
      <trkpt lat="45.7279" lon="1.99612">
        <ele>721.3</ele>
        <time>2022-08-03T09:24:44Z</time>
      </trkpt>
      <trkpt lat="45.72786" lon="1.99614">
        <ele>721.4</ele>
        <time>2022-08-03T09:24:46Z</time>
      </trkpt>
      <trkpt lat="45.72782" lon="1.99616">
        <ele>721.6</ele>
        <time>2022-08-03T09:24:48Z</time>
      </trkpt>
      <trkpt lat="45.72779" lon="1.99618">
        <ele>721.8</ele>
        <time>2022-08-03T09:24:50Z</time>
      </trkpt>
      <trkpt lat="45.72774" lon="1.9962">
        <ele>721.9</ele>
        <time>2022-08-03T09:24:52Z</time>
      </trkpt>
      <trkpt lat="45.7277" lon="1.99622">
        <ele>722.1</ele>
        <time>2022-08-03T09:24:54Z</time>
      </trkpt>
      <trkpt lat="45.72767" lon="1.99624">
        <ele>722.3</ele>
        <time>2022-08-03T09:24:56Z</time>
      </trkpt>
      <trkpt lat="45.72763" lon="1.99627">
        <ele>722.5</ele>
        <time>2022-08-03T09:24:58Z</time>
      </trkpt>
      <trkpt lat="45.7276" lon="1.9963">
        <ele>722.8</ele>
        <time>2022-08-03T09:25:00Z</time>
      </trkpt>
      <trkpt lat="45.72756" lon="1.99632">
        <ele>723.1</ele>
        <time>2022-08-03T09:25:02Z</time>
      </trkpt>
      <trkpt lat="45.72752" lon="1.99635">
        <ele>723.3</ele>
        <time>2022-08-03T09:25:04Z</time>
      </trkpt>
      <trkpt lat="45.72748" lon="1.99637">
        <ele>723.5</ele>
        <time>2022-08-03T09:25:06Z</time>
      </trkpt>
      <trkpt lat="45.72745" lon="1.9964">
        <ele>723.7</ele>
        <time>2022-08-03T09:25:08Z</time>
      </trkpt>
      <trkpt lat="45.72741" lon="1.99643">
        <ele>723.9</ele>
        <time>2022-08-03T09:25:10Z</time>
      </trkpt>
      <trkpt lat="45.72737" lon="1.99645">
        <ele>724</ele>
        <time>2022-08-03T09:25:12Z</time>
      </trkpt>
      <trkpt lat="45.72732" lon="1.99647">
        <ele>724.2</ele>
        <time>2022-08-03T09:25:14Z</time>
      </trkpt>
      <trkpt lat="45.72729" lon="1.9965">
        <ele>724.4</ele>
        <time>2022-08-03T09:25:16Z</time>
      </trkpt>
      <trkpt lat="45.72724" lon="1.99652">
        <ele>724.5</ele>
        <time>2022-08-03T09:25:18Z</time>
      </trkpt>
      <trkpt lat="45.7272" lon="1.99654">
        <ele>724.6</ele>
        <time>2022-08-03T09:25:20Z</time>
      </trkpt>
      <trkpt lat="45.72716" lon="1.99657">
        <ele>724.8</ele>
        <time>2022-08-03T09:25:22Z</time>
      </trkpt>
      <trkpt lat="45.72713" lon="1.99659">
        <ele>724.9</ele>
        <time>2022-08-03T09:25:24Z</time>
      </trkpt>
      <trkpt lat="45.72709" lon="1.99662">
        <ele>725.1</ele>
        <time>2022-08-03T09:25:26Z</time>
      </trkpt>
      <trkpt lat="45.72705" lon="1.99665">
        <ele>725.4</ele>
        <time>2022-08-03T09:25:28Z</time>
      </trkpt>
      <trkpt lat="45.72701" lon="1.99669">
        <ele>725.6</ele>
        <time>2022-08-03T09:25:30Z</time>
      </trkpt>
      <trkpt lat="45.72697" lon="1.99672">
        <ele>725.9</ele>
        <time>2022-08-03T09:25:32Z</time>
      </trkpt>
      <trkpt lat="45.72693" lon="1.99674">
        <ele>726.1</ele>
        <time>2022-08-03T09:25:34Z</time>
      </trkpt>
      <trkpt lat="45.72689" lon="1.99677">
        <ele>726.3</ele>
        <time>2022-08-03T09:25:36Z</time>
      </trkpt>
      <trkpt lat="45.72685" lon="1.9968">
        <ele>726.6</ele>
        <time>2022-08-03T09:25:38Z</time>
      </trkpt>
      <trkpt lat="45.72681" lon="1.99682">
        <ele>726.9</ele>
        <time>2022-08-03T09:25:40Z</time>
      </trkpt>
      <trkpt lat="45.72677" lon="1.99685">
        <ele>727.2</ele>
        <time>2022-08-03T09:25:42Z</time>
      </trkpt>
      <trkpt lat="45.72673" lon="1.99689">
        <ele>727.6</ele>
        <time>2022-08-03T09:25:44Z</time>
      </trkpt>
      <trkpt lat="45.7267" lon="1.99692">
        <ele>728</ele>
        <time>2022-08-03T09:25:46Z</time>
      </trkpt>
      <trkpt lat="45.72666" lon="1.99694">
        <ele>728.3</ele>
        <time>2022-08-03T09:25:48Z</time>
      </trkpt>
      <trkpt lat="45.72662" lon="1.99696">
        <ele>728.6</ele>
        <time>2022-08-03T09:25:50Z</time>
      </trkpt>
      <trkpt lat="45.72659" lon="1.99699">
        <ele>728.9</ele>
        <time>2022-08-03T09:25:52Z</time>
      </trkpt>
      <trkpt lat="45.72656" lon="1.99702">
        <ele>729.3</ele>
        <time>2022-08-03T09:25:54Z</time>
      </trkpt>
      <trkpt lat="45.72652" lon="1.99705">
        <ele>729.6</ele>
        <time>2022-08-03T09:25:56Z</time>
      </trkpt>
      <trkpt lat="45.72649" lon="1.99708">
        <ele>729.9</ele>
        <time>2022-08-03T09:25:58Z</time>
      </trkpt>
      <trkpt lat="45.72645" lon="1.99711">
        <ele>730.3</ele>
        <time>2022-08-03T09:26:00Z</time>
      </trkpt>
      <trkpt lat="45.72642" lon="1.99713">
        <ele>730.5</ele>
        <time>2022-08-03T09:26:02Z</time>
      </trkpt>
      <trkpt lat="45.72638" lon="1.99716">
        <ele>730.8</ele>
        <time>2022-08-03T09:26:04Z</time>
      </trkpt>
      <trkpt lat="45.72635" lon="1.99718">
        <ele>731.1</ele>
        <time>2022-08-03T09:26:06Z</time>
      </trkpt>
      <trkpt lat="45.72632" lon="1.99721">
        <ele>731.4</ele>
        <time>2022-08-03T09:26:08Z</time>
      </trkpt>
      <trkpt lat="45.72628" lon="1.99724">
        <ele>731.7</ele>
        <time>2022-08-03T09:26:10Z</time>
      </trkpt>
      <trkpt lat="45.72624" lon="1.99726">
        <ele>731.9</ele>
        <time>2022-08-03T09:26:12Z</time>
      </trkpt>
      <trkpt lat="45.72621" lon="1.99729">
        <ele>732.2</ele>
        <time>2022-08-03T09:26:14Z</time>
      </trkpt>
      <trkpt lat="45.72617" lon="1.99732">
        <ele>732.5</ele>
        <time>2022-08-03T09:26:16Z</time>
      </trkpt>
      <trkpt lat="45.72614" lon="1.99734">
        <ele>732.7</ele>
        <time>2022-08-03T09:26:18Z</time>
      </trkpt>
      <trkpt lat="45.7261" lon="1.99737">
        <ele>733</ele>
        <time>2022-08-03T09:26:20Z</time>
      </trkpt>
      <trkpt lat="45.72607" lon="1.9974">
        <ele>733.3</ele>
        <time>2022-08-03T09:26:22Z</time>
      </trkpt>
      <trkpt lat="45.72603" lon="1.99743">
        <ele>733.5</ele>
        <time>2022-08-03T09:26:24Z</time>
      </trkpt>
      <trkpt lat="45.726" lon="1.99746">
        <ele>733.8</ele>
        <time>2022-08-03T09:26:26Z</time>
      </trkpt>
      <trkpt lat="45.72597" lon="1.99748">
        <ele>734</ele>
        <time>2022-08-03T09:26:28Z</time>
      </trkpt>
      <trkpt lat="45.72593" lon="1.99751">
        <ele>734.2</ele>
        <time>2022-08-03T09:26:30Z</time>
      </trkpt>
      <trkpt lat="45.72589" lon="1.99754">
        <ele>734.4</ele>
        <time>2022-08-03T09:26:32Z</time>
      </trkpt>
      <trkpt lat="45.72586" lon="1.99757">
        <ele>734.5</ele>
        <time>2022-08-03T09:26:34Z</time>
      </trkpt>
      <trkpt lat="45.72582" lon="1.9976">
        <ele>734.7</ele>
        <time>2022-08-03T09:26:36Z</time>
      </trkpt>
      <trkpt lat="45.72579" lon="1.99763">
        <ele>734.9</ele>
        <time>2022-08-03T09:26:38Z</time>
      </trkpt>
      <trkpt lat="45.72576" lon="1.99767">
        <ele>735.1</ele>
        <time>2022-08-03T09:26:40Z</time>
      </trkpt>
      <trkpt lat="45.72573" lon="1.9977">
        <ele>735.2</ele>
        <time>2022-08-03T09:26:42Z</time>
      </trkpt>
      <trkpt lat="45.72569" lon="1.99774">
        <ele>735.4</ele>
        <time>2022-08-03T09:26:44Z</time>
      </trkpt>
      <trkpt lat="45.72566" lon="1.99777">
        <ele>735.6</ele>
        <time>2022-08-03T09:26:46Z</time>
      </trkpt>
      <trkpt lat="45.72563" lon="1.99781">
        <ele>735.9</ele>
        <time>2022-08-03T09:26:48Z</time>
      </trkpt>
      <trkpt lat="45.7256" lon="1.99785">
        <ele>736.1</ele>
        <time>2022-08-03T09:26:50Z</time>
      </trkpt>
      <trkpt lat="45.72557" lon="1.99789">
        <ele>736.3</ele>
        <time>2022-08-03T09:26:52Z</time>
      </trkpt>
      <trkpt lat="45.72554" lon="1.99793">
        <ele>736.6</ele>
        <time>2022-08-03T09:26:54Z</time>
      </trkpt>
      <trkpt lat="45.72551" lon="1.99797">
        <ele>736.8</ele>
        <time>2022-08-03T09:26:56Z</time>
      </trkpt>
      <trkpt lat="45.72548" lon="1.99801">
        <ele>737.1</ele>
        <time>2022-08-03T09:26:58Z</time>
      </trkpt>
      <trkpt lat="45.72545" lon="1.99805">
        <ele>737.3</ele>
        <time>2022-08-03T09:27:00Z</time>
      </trkpt>
      <trkpt lat="45.72542" lon="1.99808">
        <ele>737.5</ele>
        <time>2022-08-03T09:27:02Z</time>
      </trkpt>
      <trkpt lat="45.72539" lon="1.99812">
        <ele>737.8</ele>
        <time>2022-08-03T09:27:04Z</time>
      </trkpt>
      <trkpt lat="45.72536" lon="1.99816">
        <ele>738</ele>
        <time>2022-08-03T09:27:06Z</time>
      </trkpt>
      <trkpt lat="45.72533" lon="1.99819">
        <ele>738.3</ele>
        <time>2022-08-03T09:27:08Z</time>
      </trkpt>
      <trkpt lat="45.7253" lon="1.99823">
        <ele>738.5</ele>
        <time>2022-08-03T09:27:10Z</time>
      </trkpt>
      <trkpt lat="45.72527" lon="1.99826">
        <ele>738.7</ele>
        <time>2022-08-03T09:27:12Z</time>
      </trkpt>
      <trkpt lat="45.72524" lon="1.9983">
        <ele>739</ele>
        <time>2022-08-03T09:27:14Z</time>
      </trkpt>
      <trkpt lat="45.72521" lon="1.99833">
        <ele>739.3</ele>
        <time>2022-08-03T09:27:16Z</time>
      </trkpt>
      <trkpt lat="45.72519" lon="1.99837">
        <ele>739.6</ele>
        <time>2022-08-03T09:27:18Z</time>
      </trkpt>
      <trkpt lat="45.72516" lon="1.99841">
        <ele>740</ele>
        <time>2022-08-03T09:27:20Z</time>
      </trkpt>
      <trkpt lat="45.72512" lon="1.99843">
        <ele>740.3</ele>
        <time>2022-08-03T09:27:22Z</time>
      </trkpt>
      <trkpt lat="45.72509" lon="1.99847">
        <ele>740.7</ele>
        <time>2022-08-03T09:27:24Z</time>
      </trkpt>
      <trkpt lat="45.72506" lon="1.99851">
        <ele>741.1</ele>
        <time>2022-08-03T09:27:26Z</time>
      </trkpt>
      <trkpt lat="45.72503" lon="1.99854">
        <ele>741.5</ele>
        <time>2022-08-03T09:27:28Z</time>
      </trkpt>
      <trkpt lat="45.725" lon="1.99857">
        <ele>741.9</ele>
        <time>2022-08-03T09:27:30Z</time>
      </trkpt>
      <trkpt lat="45.72496" lon="1.9986">
        <ele>742.3</ele>
        <time>2022-08-03T09:27:32Z</time>
      </trkpt>
      <trkpt lat="45.72492" lon="1.99863">
        <ele>742.8</ele>
        <time>2022-08-03T09:27:34Z</time>
      </trkpt>
      <trkpt lat="45.72489" lon="1.99865">
        <ele>743.2</ele>
        <time>2022-08-03T09:27:36Z</time>
      </trkpt>
      <trkpt lat="45.72486" lon="1.99868">
        <ele>743.6</ele>
        <time>2022-08-03T09:27:38Z</time>
      </trkpt>
      <trkpt lat="45.72482" lon="1.9987">
        <ele>743.9</ele>
        <time>2022-08-03T09:27:40Z</time>
      </trkpt>
      <trkpt lat="45.72478" lon="1.99872">
        <ele>744.3</ele>
        <time>2022-08-03T09:27:42Z</time>
      </trkpt>
      <trkpt lat="45.72474" lon="1.99874">
        <ele>744.7</ele>
        <time>2022-08-03T09:27:44Z</time>
      </trkpt>
      <trkpt lat="45.72471" lon="1.99876">
        <ele>745</ele>
        <time>2022-08-03T09:27:46Z</time>
      </trkpt>
      <trkpt lat="45.72467" lon="1.99878">
        <ele>745.3</ele>
        <time>2022-08-03T09:27:48Z</time>
      </trkpt>
      <trkpt lat="45.72463" lon="1.99879">
        <ele>745.6</ele>
        <time>2022-08-03T09:27:50Z</time>
      </trkpt>
      <trkpt lat="45.72459" lon="1.99882">
        <ele>746</ele>
        <time>2022-08-03T09:27:52Z</time>
      </trkpt>
      <trkpt lat="45.72456" lon="1.99884">
        <ele>746.3</ele>
        <time>2022-08-03T09:27:54Z</time>
      </trkpt>
      <trkpt lat="45.72452" lon="1.99885">
        <ele>746.6</ele>
        <time>2022-08-03T09:27:56Z</time>
      </trkpt>
      <trkpt lat="45.72448" lon="1.99887">
        <ele>746.9</ele>
        <time>2022-08-03T09:27:58Z</time>
      </trkpt>
      <trkpt lat="45.72444" lon="1.99887">
        <ele>747.1</ele>
        <time>2022-08-03T09:28:00Z</time>
      </trkpt>
      <trkpt lat="45.7244" lon="1.99889">
        <ele>747.3</ele>
        <time>2022-08-03T09:28:02Z</time>
      </trkpt>
      <trkpt lat="45.72436" lon="1.9989">
        <ele>747.6</ele>
        <time>2022-08-03T09:28:04Z</time>
      </trkpt>
      <trkpt lat="45.72432" lon="1.99891">
        <ele>747.8</ele>
        <time>2022-08-03T09:28:06Z</time>
      </trkpt>
      <trkpt lat="45.72428" lon="1.99892">
        <ele>748</ele>
        <time>2022-08-03T09:28:08Z</time>
      </trkpt>
      <trkpt lat="45.72424" lon="1.99893">
        <ele>748.3</ele>
        <time>2022-08-03T09:28:10Z</time>
      </trkpt>
      <trkpt lat="45.72419" lon="1.99893">
        <ele>748.4</ele>
        <time>2022-08-03T09:28:12Z</time>
      </trkpt>
      <trkpt lat="45.72415" lon="1.99893">
        <ele>748.5</ele>
        <time>2022-08-03T09:28:14Z</time>
      </trkpt>
      <trkpt lat="45.72411" lon="1.99894">
        <ele>748.7</ele>
        <time>2022-08-03T09:28:16Z</time>
      </trkpt>
      <trkpt lat="45.72407" lon="1.99894">
        <ele>748.8</ele>
        <time>2022-08-03T09:28:18Z</time>
      </trkpt>
      <trkpt lat="45.72403" lon="1.99894">
        <ele>749</ele>
        <time>2022-08-03T09:28:20Z</time>
      </trkpt>
      <trkpt lat="45.72399" lon="1.99893">
        <ele>749</ele>
        <time>2022-08-03T09:28:22Z</time>
      </trkpt>
      <trkpt lat="45.72395" lon="1.99893">
        <ele>749.1</ele>
        <time>2022-08-03T09:28:24Z</time>
      </trkpt>
      <trkpt lat="45.72391" lon="1.99893">
        <ele>749.3</ele>
        <time>2022-08-03T09:28:26Z</time>
      </trkpt>
      <trkpt lat="45.72387" lon="1.99894">
        <ele>749.4</ele>
        <time>2022-08-03T09:28:28Z</time>
      </trkpt>
      <trkpt lat="45.72383" lon="1.99893">
        <ele>749.5</ele>
        <time>2022-08-03T09:28:30Z</time>
      </trkpt>
      <trkpt lat="45.72379" lon="1.99894">
        <ele>749.7</ele>
        <time>2022-08-03T09:28:32Z</time>
      </trkpt>
      <trkpt lat="45.72375" lon="1.99895">
        <ele>749.9</ele>
        <time>2022-08-03T09:28:34Z</time>
      </trkpt>
      <trkpt lat="45.72372" lon="1.99897">
        <ele>750.2</ele>
        <time>2022-08-03T09:28:36Z</time>
      </trkpt>
      <trkpt lat="45.72368" lon="1.99899">
        <ele>750.5</ele>
        <time>2022-08-03T09:28:38Z</time>
      </trkpt>
      <trkpt lat="45.72365" lon="1.99901">
        <ele>750.8</ele>
        <time>2022-08-03T09:28:40Z</time>
      </trkpt>
      <trkpt lat="45.72362" lon="1.99903">
        <ele>751.1</ele>
        <time>2022-08-03T09:28:42Z</time>
      </trkpt>
      <trkpt lat="45.7236" lon="1.99906">
        <ele>751.4</ele>
        <time>2022-08-03T09:28:44Z</time>
      </trkpt>
      <trkpt lat="45.72357" lon="1.99909">
        <ele>751.7</ele>
        <time>2022-08-03T09:28:46Z</time>
      </trkpt>
      <trkpt lat="45.72354" lon="1.99912">
        <ele>752.1</ele>
        <time>2022-08-03T09:28:48Z</time>
      </trkpt>
      <trkpt lat="45.7235" lon="1.99917">
        <ele>752.6</ele>
        <time>2022-08-03T09:28:50Z</time>
      </trkpt>
      <trkpt lat="45.72348" lon="1.99922">
        <ele>753.1</ele>
        <time>2022-08-03T09:28:52Z</time>
      </trkpt>
      <trkpt lat="45.72345" lon="1.99927">
        <ele>753.6</ele>
        <time>2022-08-03T09:28:54Z</time>
      </trkpt>
      <trkpt lat="45.72343" lon="1.99932">
        <ele>754</ele>
        <time>2022-08-03T09:28:56Z</time>
      </trkpt>
      <trkpt lat="45.72341" lon="1.99937">
        <ele>754.5</ele>
        <time>2022-08-03T09:28:58Z</time>
      </trkpt>
      <trkpt lat="45.72339" lon="1.99941">
        <ele>754.8</ele>
        <time>2022-08-03T09:29:00Z</time>
      </trkpt>
      <trkpt lat="45.72337" lon="1.99946">
        <ele>755.2</ele>
        <time>2022-08-03T09:29:02Z</time>
      </trkpt>
      <trkpt lat="45.72336" lon="1.99952">
        <ele>755.5</ele>
        <time>2022-08-03T09:29:04Z</time>
      </trkpt>
      <trkpt lat="45.72333" lon="1.99956">
        <ele>755.8</ele>
        <time>2022-08-03T09:29:06Z</time>
      </trkpt>
      <trkpt lat="45.72331" lon="1.99959">
        <ele>755.9</ele>
        <time>2022-08-03T09:29:08Z</time>
      </trkpt>
      <trkpt lat="45.7233" lon="1.99963">
        <ele>756.1</ele>
        <time>2022-08-03T09:29:10Z</time>
      </trkpt>
      <trkpt lat="45.72328" lon="1.99967">
        <ele>756.1</ele>
        <time>2022-08-03T09:29:12Z</time>
      </trkpt>
      <trkpt lat="45.72326" lon="1.9997">
        <ele>756.2</ele>
        <time>2022-08-03T09:29:14Z</time>
      </trkpt>
      <trkpt lat="45.72325" lon="1.99974">
        <ele>756.4</ele>
        <time>2022-08-03T09:29:16Z</time>
      </trkpt>
      <trkpt lat="45.72324" lon="1.99978">
        <ele>756.5</ele>
        <time>2022-08-03T09:29:18Z</time>
      </trkpt>
      <trkpt lat="45.72322" lon="1.99982">
        <ele>756.7</ele>
        <time>2022-08-03T09:29:20Z</time>
      </trkpt>
      <trkpt lat="45.72321" lon="1.99985">
        <ele>756.7</ele>
        <time>2022-08-03T09:29:22Z</time>
      </trkpt>
      <trkpt lat="45.72319" lon="1.99989">
        <ele>756.8</ele>
        <time>2022-08-03T09:29:24Z</time>
      </trkpt>
      <trkpt lat="45.72317" lon="1.99993">
        <ele>756.9</ele>
        <time>2022-08-03T09:29:26Z</time>
      </trkpt>
      <trkpt lat="45.72315" lon="1.99997">
        <ele>757</ele>
        <time>2022-08-03T09:29:28Z</time>
      </trkpt>
      <trkpt lat="45.72313" lon="2.00001">
        <ele>757.2</ele>
        <time>2022-08-03T09:29:30Z</time>
      </trkpt>
      <trkpt lat="45.72311" lon="2.00006">
        <ele>757.5</ele>
        <time>2022-08-03T09:29:32Z</time>
      </trkpt>
      <trkpt lat="45.72309" lon="2.0001">
        <ele>757.7</ele>
        <time>2022-08-03T09:29:34Z</time>
      </trkpt>
      <trkpt lat="45.72307" lon="2.00015">
        <ele>757.9</ele>
        <time>2022-08-03T09:29:36Z</time>
      </trkpt>
      <trkpt lat="45.72306" lon="2.00019">
        <ele>758.1</ele>
        <time>2022-08-03T09:29:38Z</time>
      </trkpt>
      <trkpt lat="45.72303" lon="2.00023">
        <ele>758.3</ele>
        <time>2022-08-03T09:29:40Z</time>
      </trkpt>
      <trkpt lat="45.72301" lon="2.00027">
        <ele>758.5</ele>
        <time>2022-08-03T09:29:42Z</time>
      </trkpt>
      <trkpt lat="45.72298" lon="2.00032">
        <ele>758.8</ele>
        <time>2022-08-03T09:29:44Z</time>
      </trkpt>
      <trkpt lat="45.72296" lon="2.00037">
        <ele>758.9</ele>
        <time>2022-08-03T09:29:46Z</time>
      </trkpt>
      <trkpt lat="45.72293" lon="2.00041">
        <ele>759</ele>
        <time>2022-08-03T09:29:48Z</time>
      </trkpt>
      <trkpt lat="45.7229" lon="2.00045">
        <ele>759.2</ele>
        <time>2022-08-03T09:29:50Z</time>
      </trkpt>
      <trkpt lat="45.72287" lon="2.0005">
        <ele>759.3</ele>
        <time>2022-08-03T09:29:52Z</time>
      </trkpt>
      <trkpt lat="45.72284" lon="2.00054">
        <ele>759.4</ele>
        <time>2022-08-03T09:29:54Z</time>
      </trkpt>
      <trkpt lat="45.72281" lon="2.00058">
        <ele>759.5</ele>
        <time>2022-08-03T09:29:56Z</time>
      </trkpt>
      <trkpt lat="45.72276" lon="2.00062">
        <ele>759.5</ele>
        <time>2022-08-03T09:29:58Z</time>
      </trkpt>
      <trkpt lat="45.72273" lon="2.00065">
        <ele>759.4</ele>
        <time>2022-08-03T09:30:00Z</time>
      </trkpt>
      <trkpt lat="45.72269" lon="2.0007">
        <ele>759.5</ele>
        <time>2022-08-03T09:30:02Z</time>
      </trkpt>
      <trkpt lat="45.72265" lon="2.00074">
        <ele>759.6</ele>
        <time>2022-08-03T09:30:04Z</time>
      </trkpt>
      <trkpt lat="45.72261" lon="2.00077">
        <ele>759.4</ele>
        <time>2022-08-03T09:30:06Z</time>
      </trkpt>
      <trkpt lat="45.72256" lon="2.00081">
        <ele>759.4</ele>
        <time>2022-08-03T09:30:08Z</time>
      </trkpt>
      <trkpt lat="45.72252" lon="2.00085">
        <ele>759.4</ele>
        <time>2022-08-03T09:30:10Z</time>
      </trkpt>
      <trkpt lat="45.72247" lon="2.0009">
        <ele>759.6</ele>
        <time>2022-08-03T09:30:12Z</time>
      </trkpt>
      <trkpt lat="45.72243" lon="2.00094">
        <ele>759.8</ele>
        <time>2022-08-03T09:30:14Z</time>
      </trkpt>
      <trkpt lat="45.72239" lon="2.00098">
        <ele>759.9</ele>
        <time>2022-08-03T09:30:16Z</time>
      </trkpt>
      <trkpt lat="45.72235" lon="2.00102">
        <ele>759.9</ele>
        <time>2022-08-03T09:30:18Z</time>
      </trkpt>
      <trkpt lat="45.72231" lon="2.00105">
        <ele>760</ele>
        <time>2022-08-03T09:30:20Z</time>
      </trkpt>
      <trkpt lat="45.72227" lon="2.00109">
        <ele>760.2</ele>
        <time>2022-08-03T09:30:22Z</time>
      </trkpt>
      <trkpt lat="45.72223" lon="2.00113">
        <ele>760.2</ele>
        <time>2022-08-03T09:30:24Z</time>
      </trkpt>
      <trkpt lat="45.72219" lon="2.00116">
        <ele>760.2</ele>
        <time>2022-08-03T09:30:26Z</time>
      </trkpt>
      <trkpt lat="45.72215" lon="2.00117">
        <ele>759.9</ele>
        <time>2022-08-03T09:30:28Z</time>
      </trkpt>
      <trkpt lat="45.72212" lon="2.00116">
        <ele>759.6</ele>
        <time>2022-08-03T09:30:30Z</time>
      </trkpt>
      <trkpt lat="45.72212" lon="2.00117">
        <ele>759.6</ele>
        <time>2022-08-03T09:30:32Z</time>
      </trkpt>
      <trkpt lat="45.72212" lon="2.00117">
        <ele>759.6</ele>
        <time>2022-08-03T09:30:34Z</time>
      </trkpt>
      <trkpt lat="45.72212" lon="2.00117">
        <ele>759.6</ele>
        <time>2022-08-03T09:30:36Z</time>
      </trkpt>
      <trkpt lat="45.72212" lon="2.00117">
        <ele>759.5</ele>
        <time>2022-08-03T09:30:38Z</time>
      </trkpt>
      <trkpt lat="45.72212" lon="2.00116">
        <ele>759.5</ele>
        <time>2022-08-03T09:30:40Z</time>
      </trkpt>
      <trkpt lat="45.72202" lon="2.0013">
        <ele>760.2</ele>
        <time>2022-08-03T09:31:54Z</time>
      </trkpt>
      <trkpt lat="45.72198" lon="2.00134">
        <ele>760.4</ele>
        <time>2022-08-03T09:31:56Z</time>
      </trkpt>
      <trkpt lat="45.72194" lon="2.00139">
        <ele>760.6</ele>
        <time>2022-08-03T09:31:58Z</time>
      </trkpt>
      <trkpt lat="45.7219" lon="2.00144">
        <ele>760.7</ele>
        <time>2022-08-03T09:32:00Z</time>
      </trkpt>
      <trkpt lat="45.72184" lon="2.00149">
        <ele>760.8</ele>
        <time>2022-08-03T09:32:02Z</time>
      </trkpt>
      <trkpt lat="45.72179" lon="2.00154">
        <ele>760.8</ele>
        <time>2022-08-03T09:32:04Z</time>
      </trkpt>
      <trkpt lat="45.72173" lon="2.0016">
        <ele>760.9</ele>
        <time>2022-08-03T09:32:06Z</time>
      </trkpt>
      <trkpt lat="45.72167" lon="2.00167">
        <ele>761</ele>
        <time>2022-08-03T09:32:08Z</time>
      </trkpt>
      <trkpt lat="45.72161" lon="2.00175">
        <ele>760.8</ele>
        <time>2022-08-03T09:32:10Z</time>
      </trkpt>
      <trkpt lat="45.72154" lon="2.00182">
        <ele>760.4</ele>
        <time>2022-08-03T09:32:12Z</time>
      </trkpt>
      <trkpt lat="45.72148" lon="2.00189">
        <ele>760</ele>
        <time>2022-08-03T09:32:14Z</time>
      </trkpt>
      <trkpt lat="45.72142" lon="2.00197">
        <ele>759.7</ele>
        <time>2022-08-03T09:32:16Z</time>
      </trkpt>
      <trkpt lat="45.72135" lon="2.00206">
        <ele>759.5</ele>
        <time>2022-08-03T09:32:18Z</time>
      </trkpt>
      <trkpt lat="45.7213" lon="2.00213">
        <ele>759.1</ele>
        <time>2022-08-03T09:32:20Z</time>
      </trkpt>
      <trkpt lat="45.72124" lon="2.00222">
        <ele>758.9</ele>
        <time>2022-08-03T09:32:22Z</time>
      </trkpt>
      <trkpt lat="45.72119" lon="2.00229">
        <ele>758.8</ele>
        <time>2022-08-03T09:32:24Z</time>
      </trkpt>
      <trkpt lat="45.72114" lon="2.00238">
        <ele>758.7</ele>
        <time>2022-08-03T09:32:26Z</time>
      </trkpt>
      <trkpt lat="45.72109" lon="2.00247">
        <ele>758.7</ele>
        <time>2022-08-03T09:32:28Z</time>
      </trkpt>
      <trkpt lat="45.72105" lon="2.00257">
        <ele>758.4</ele>
        <time>2022-08-03T09:32:30Z</time>
      </trkpt>
      <trkpt lat="45.72102" lon="2.00267">
        <ele>757.9</ele>
        <time>2022-08-03T09:32:32Z</time>
      </trkpt>
      <trkpt lat="45.72099" lon="2.00277">
        <ele>757.5</ele>
        <time>2022-08-03T09:32:34Z</time>
      </trkpt>
      <trkpt lat="45.72097" lon="2.00288">
        <ele>757.2</ele>
        <time>2022-08-03T09:32:36Z</time>
      </trkpt>
      <trkpt lat="45.72096" lon="2.00299">
        <ele>757.1</ele>
        <time>2022-08-03T09:32:38Z</time>
      </trkpt>
      <trkpt lat="45.72095" lon="2.00311">
        <ele>757.1</ele>
        <time>2022-08-03T09:32:40Z</time>
      </trkpt>
      <trkpt lat="45.72095" lon="2.00322">
        <ele>757.3</ele>
        <time>2022-08-03T09:32:42Z</time>
      </trkpt>
      <trkpt lat="45.72096" lon="2.00335">
        <ele>757.7</ele>
        <time>2022-08-03T09:32:44Z</time>
      </trkpt>
      <trkpt lat="45.72098" lon="2.00346">
        <ele>758.1</ele>
        <time>2022-08-03T09:32:46Z</time>
      </trkpt>
      <trkpt lat="45.72099" lon="2.00357">
        <ele>758.3</ele>
        <time>2022-08-03T09:32:48Z</time>
      </trkpt>
      <trkpt lat="45.72102" lon="2.00367">
        <ele>758.8</ele>
        <time>2022-08-03T09:32:50Z</time>
      </trkpt>
      <trkpt lat="45.72105" lon="2.00378">
        <ele>759.3</ele>
        <time>2022-08-03T09:32:52Z</time>
      </trkpt>
      <trkpt lat="45.72109" lon="2.00389">
        <ele>759.8</ele>
        <time>2022-08-03T09:32:54Z</time>
      </trkpt>
      <trkpt lat="45.72112" lon="2.00399">
        <ele>760.1</ele>
        <time>2022-08-03T09:32:56Z</time>
      </trkpt>
      <trkpt lat="45.72117" lon="2.00411">
        <ele>760.6</ele>
        <time>2022-08-03T09:32:58Z</time>
      </trkpt>
      <trkpt lat="45.72119" lon="2.00422">
        <ele>761.1</ele>
        <time>2022-08-03T09:33:00Z</time>
      </trkpt>
      <trkpt lat="45.72122" lon="2.00434">
        <ele>762.1</ele>
        <time>2022-08-03T09:33:02Z</time>
      </trkpt>
      <trkpt lat="45.72123" lon="2.00445">
        <ele>762.9</ele>
        <time>2022-08-03T09:33:04Z</time>
      </trkpt>
      <trkpt lat="45.72123" lon="2.00455">
        <ele>763.6</ele>
        <time>2022-08-03T09:33:06Z</time>
      </trkpt>
      <trkpt lat="45.72123" lon="2.00465">
        <ele>764.2</ele>
        <time>2022-08-03T09:33:08Z</time>
      </trkpt>
      <trkpt lat="45.72124" lon="2.00474">
        <ele>764.8</ele>
        <time>2022-08-03T09:33:10Z</time>
      </trkpt>
      <trkpt lat="45.72125" lon="2.00483">
        <ele>765.4</ele>
        <time>2022-08-03T09:33:12Z</time>
      </trkpt>
      <trkpt lat="45.72125" lon="2.00491">
        <ele>766</ele>
        <time>2022-08-03T09:33:14Z</time>
      </trkpt>
      <trkpt lat="45.72126" lon="2.005">
        <ele>766.6</ele>
        <time>2022-08-03T09:33:16Z</time>
      </trkpt>
      <trkpt lat="45.72126" lon="2.00509">
        <ele>767.1</ele>
        <time>2022-08-03T09:33:18Z</time>
      </trkpt>
      <trkpt lat="45.72126" lon="2.00517">
        <ele>767.6</ele>
        <time>2022-08-03T09:33:20Z</time>
      </trkpt>
      <trkpt lat="45.72127" lon="2.00526">
        <ele>768.2</ele>
        <time>2022-08-03T09:33:22Z</time>
      </trkpt>
      <trkpt lat="45.72127" lon="2.00534">
        <ele>768.8</ele>
        <time>2022-08-03T09:33:24Z</time>
      </trkpt>
      <trkpt lat="45.72128" lon="2.00542">
        <ele>769.4</ele>
        <time>2022-08-03T09:33:26Z</time>
      </trkpt>
      <trkpt lat="45.72128" lon="2.0055">
        <ele>769.8</ele>
        <time>2022-08-03T09:33:28Z</time>
      </trkpt>
      <trkpt lat="45.72128" lon="2.00558">
        <ele>770.4</ele>
        <time>2022-08-03T09:33:30Z</time>
      </trkpt>
      <trkpt lat="45.72129" lon="2.00567">
        <ele>771.1</ele>
        <time>2022-08-03T09:33:32Z</time>
      </trkpt>
      <trkpt lat="45.7213" lon="2.00575">
        <ele>771.7</ele>
        <time>2022-08-03T09:33:34Z</time>
      </trkpt>
      <trkpt lat="45.7213" lon="2.00582">
        <ele>772.2</ele>
        <time>2022-08-03T09:33:36Z</time>
      </trkpt>
      <trkpt lat="45.72131" lon="2.0059">
        <ele>773</ele>
        <time>2022-08-03T09:33:38Z</time>
      </trkpt>
      <trkpt lat="45.72133" lon="2.00598">
        <ele>773.7</ele>
        <time>2022-08-03T09:33:40Z</time>
      </trkpt>
      <trkpt lat="45.72133" lon="2.00606">
        <ele>774.3</ele>
        <time>2022-08-03T09:33:42Z</time>
      </trkpt>
      <trkpt lat="45.72134" lon="2.00614">
        <ele>775</ele>
        <time>2022-08-03T09:33:44Z</time>
      </trkpt>
      <trkpt lat="45.72133" lon="2.00622">
        <ele>775.5</ele>
        <time>2022-08-03T09:33:46Z</time>
      </trkpt>
      <trkpt lat="45.72131" lon="2.0063">
        <ele>775.8</ele>
        <time>2022-08-03T09:33:48Z</time>
      </trkpt>
      <trkpt lat="45.72128" lon="2.00636">
        <ele>776</ele>
        <time>2022-08-03T09:33:50Z</time>
      </trkpt>
      <trkpt lat="45.72125" lon="2.00643">
        <ele>776.1</ele>
        <time>2022-08-03T09:33:52Z</time>
      </trkpt>
      <trkpt lat="45.7212" lon="2.00647">
        <ele>776</ele>
        <time>2022-08-03T09:33:54Z</time>
      </trkpt>
      <trkpt lat="45.72116" lon="2.00651">
        <ele>776</ele>
        <time>2022-08-03T09:33:56Z</time>
      </trkpt>
      <trkpt lat="45.72112" lon="2.00655">
        <ele>776</ele>
        <time>2022-08-03T09:33:58Z</time>
      </trkpt>
      <trkpt lat="45.72107" lon="2.00659">
        <ele>775.9</ele>
        <time>2022-08-03T09:34:00Z</time>
      </trkpt>
      <trkpt lat="45.72102" lon="2.00661">
        <ele>775.8</ele>
        <time>2022-08-03T09:34:02Z</time>
      </trkpt>
      <trkpt lat="45.72097" lon="2.00663">
        <ele>775.7</ele>
        <time>2022-08-03T09:34:04Z</time>
      </trkpt>
      <trkpt lat="45.72094" lon="2.00663">
        <ele>775.4</ele>
        <time>2022-08-03T09:34:06Z</time>
      </trkpt>
      <trkpt lat="45.72088" lon="2.00664">
        <ele>775</ele>
        <time>2022-08-03T09:34:08Z</time>
      </trkpt>
      <trkpt lat="45.72082" lon="2.00664">
        <ele>774.8</ele>
        <time>2022-08-03T09:34:10Z</time>
      </trkpt>
      <trkpt lat="45.72076" lon="2.00664">
        <ele>775.2</ele>
        <time>2022-08-03T09:34:12Z</time>
      </trkpt>
      <trkpt lat="45.7207" lon="2.00663">
        <ele>775.5</ele>
        <time>2022-08-03T09:34:14Z</time>
      </trkpt>
      <trkpt lat="45.72064" lon="2.00662">
        <ele>775.7</ele>
        <time>2022-08-03T09:34:16Z</time>
      </trkpt>
      <trkpt lat="45.72059" lon="2.00661">
        <ele>775.9</ele>
        <time>2022-08-03T09:34:18Z</time>
      </trkpt>
      <trkpt lat="45.72053" lon="2.00659">
        <ele>776</ele>
        <time>2022-08-03T09:34:20Z</time>
      </trkpt>
      <trkpt lat="45.72048" lon="2.00658">
        <ele>776.1</ele>
        <time>2022-08-03T09:34:22Z</time>
      </trkpt>
      <trkpt lat="45.72042" lon="2.00655">
        <ele>776.1</ele>
        <time>2022-08-03T09:34:24Z</time>
      </trkpt>
      <trkpt lat="45.72037" lon="2.00653">
        <ele>776</ele>
        <time>2022-08-03T09:34:26Z</time>
      </trkpt>
      <trkpt lat="45.72031" lon="2.00649">
        <ele>775.7</ele>
        <time>2022-08-03T09:34:28Z</time>
      </trkpt>
      <trkpt lat="45.72026" lon="2.00645">
        <ele>775.3</ele>
        <time>2022-08-03T09:34:30Z</time>
      </trkpt>
      <trkpt lat="45.72021" lon="2.00642">
        <ele>775</ele>
        <time>2022-08-03T09:34:32Z</time>
      </trkpt>
      <trkpt lat="45.72017" lon="2.00638">
        <ele>774.5</ele>
        <time>2022-08-03T09:34:34Z</time>
      </trkpt>
      <trkpt lat="45.72013" lon="2.00634">
        <ele>773.9</ele>
        <time>2022-08-03T09:34:36Z</time>
      </trkpt>
      <trkpt lat="45.72009" lon="2.0063">
        <ele>773.2</ele>
        <time>2022-08-03T09:34:38Z</time>
      </trkpt>
      <trkpt lat="45.72005" lon="2.00626">
        <ele>772.5</ele>
        <time>2022-08-03T09:34:40Z</time>
      </trkpt>
      <trkpt lat="45.72001" lon="2.00623">
        <ele>772.1</ele>
        <time>2022-08-03T09:34:42Z</time>
      </trkpt>
      <trkpt lat="45.71997" lon="2.0062">
        <ele>771.8</ele>
        <time>2022-08-03T09:34:44Z</time>
      </trkpt>
      <trkpt lat="45.71993" lon="2.00618">
        <ele>771.6</ele>
        <time>2022-08-03T09:34:46Z</time>
      </trkpt>
      <trkpt lat="45.71989" lon="2.00616">
        <ele>771.6</ele>
        <time>2022-08-03T09:34:48Z</time>
      </trkpt>
      <trkpt lat="45.71984" lon="2.00614">
        <ele>771.7</ele>
        <time>2022-08-03T09:34:50Z</time>
      </trkpt>
      <trkpt lat="45.71979" lon="2.00613">
        <ele>771.8</ele>
        <time>2022-08-03T09:34:52Z</time>
      </trkpt>
      <trkpt lat="45.71975" lon="2.00612">
        <ele>772.1</ele>
        <time>2022-08-03T09:34:54Z</time>
      </trkpt>
      <trkpt lat="45.7197" lon="2.00612">
        <ele>772.4</ele>
        <time>2022-08-03T09:34:56Z</time>
      </trkpt>
      <trkpt lat="45.71965" lon="2.0061">
        <ele>772.6</ele>
        <time>2022-08-03T09:34:58Z</time>
      </trkpt>
      <trkpt lat="45.7196" lon="2.0061">
        <ele>772.9</ele>
        <time>2022-08-03T09:35:00Z</time>
      </trkpt>
      <trkpt lat="45.71955" lon="2.00608">
        <ele>773.1</ele>
        <time>2022-08-03T09:35:02Z</time>
      </trkpt>
      <trkpt lat="45.71951" lon="2.00607">
        <ele>773.3</ele>
        <time>2022-08-03T09:35:04Z</time>
      </trkpt>
      <trkpt lat="45.71946" lon="2.00605">
        <ele>773.5</ele>
        <time>2022-08-03T09:35:06Z</time>
      </trkpt>
      <trkpt lat="45.71941" lon="2.00604">
        <ele>773.7</ele>
        <time>2022-08-03T09:35:08Z</time>
      </trkpt>
      <trkpt lat="45.71935" lon="2.00602">
        <ele>774</ele>
        <time>2022-08-03T09:35:10Z</time>
      </trkpt>
      <trkpt lat="45.7193" lon="2.00601">
        <ele>774.3</ele>
        <time>2022-08-03T09:35:12Z</time>
      </trkpt>
      <trkpt lat="45.71925" lon="2.006">
        <ele>774.6</ele>
        <time>2022-08-03T09:35:14Z</time>
      </trkpt>
      <trkpt lat="45.7192" lon="2.00599">
        <ele>775</ele>
        <time>2022-08-03T09:35:16Z</time>
      </trkpt>
      <trkpt lat="45.71914" lon="2.00598">
        <ele>775.1</ele>
        <time>2022-08-03T09:35:18Z</time>
      </trkpt>
      <trkpt lat="45.71909" lon="2.00598">
        <ele>775.2</ele>
        <time>2022-08-03T09:35:20Z</time>
      </trkpt>
      <trkpt lat="45.71903" lon="2.00597">
        <ele>775.3</ele>
        <time>2022-08-03T09:35:22Z</time>
      </trkpt>
      <trkpt lat="45.71898" lon="2.00597">
        <ele>775.4</ele>
        <time>2022-08-03T09:35:24Z</time>
      </trkpt>
      <trkpt lat="45.71893" lon="2.00598">
        <ele>775.6</ele>
        <time>2022-08-03T09:35:26Z</time>
      </trkpt>
      <trkpt lat="45.71887" lon="2.00599">
        <ele>775.8</ele>
        <time>2022-08-03T09:35:28Z</time>
      </trkpt>
      <trkpt lat="45.71882" lon="2.00601">
        <ele>776.1</ele>
        <time>2022-08-03T09:35:30Z</time>
      </trkpt>
      <trkpt lat="45.71877" lon="2.00603">
        <ele>776.4</ele>
        <time>2022-08-03T09:35:32Z</time>
      </trkpt>
      <trkpt lat="45.71873" lon="2.00605">
        <ele>776.7</ele>
        <time>2022-08-03T09:35:34Z</time>
      </trkpt>
      <trkpt lat="45.71868" lon="2.00607">
        <ele>777</ele>
        <time>2022-08-03T09:35:36Z</time>
      </trkpt>
      <trkpt lat="45.71864" lon="2.00611">
        <ele>777.4</ele>
        <time>2022-08-03T09:35:38Z</time>
      </trkpt>
      <trkpt lat="45.71859" lon="2.00615">
        <ele>777.8</ele>
        <time>2022-08-03T09:35:40Z</time>
      </trkpt>
      <trkpt lat="45.71855" lon="2.00618">
        <ele>778.1</ele>
        <time>2022-08-03T09:35:42Z</time>
      </trkpt>
      <trkpt lat="45.71851" lon="2.00622">
        <ele>778.4</ele>
        <time>2022-08-03T09:35:44Z</time>
      </trkpt>
      <trkpt lat="45.71847" lon="2.00627">
        <ele>778.7</ele>
        <time>2022-08-03T09:35:46Z</time>
      </trkpt>
      <trkpt lat="45.71844" lon="2.0063">
        <ele>778.9</ele>
        <time>2022-08-03T09:35:48Z</time>
      </trkpt>
      <trkpt lat="45.71841" lon="2.00635">
        <ele>779.2</ele>
        <time>2022-08-03T09:35:50Z</time>
      </trkpt>
      <trkpt lat="45.71838" lon="2.0064">
        <ele>779.5</ele>
        <time>2022-08-03T09:35:52Z</time>
      </trkpt>
      <trkpt lat="45.71835" lon="2.00646">
        <ele>779.8</ele>
        <time>2022-08-03T09:35:54Z</time>
      </trkpt>
      <trkpt lat="45.71832" lon="2.00651">
        <ele>779.9</ele>
        <time>2022-08-03T09:35:56Z</time>
      </trkpt>
      <trkpt lat="45.7183" lon="2.00657">
        <ele>779.8</ele>
        <time>2022-08-03T09:35:58Z</time>
      </trkpt>
      <trkpt lat="45.71827" lon="2.00662">
        <ele>779.7</ele>
        <time>2022-08-03T09:36:00Z</time>
      </trkpt>
      <trkpt lat="45.71825" lon="2.00667">
        <ele>779.5</ele>
        <time>2022-08-03T09:36:02Z</time>
      </trkpt>
      <trkpt lat="45.71822" lon="2.00673">
        <ele>779.6</ele>
        <time>2022-08-03T09:36:04Z</time>
      </trkpt>
      <trkpt lat="45.7182" lon="2.00678">
        <ele>779.8</ele>
        <time>2022-08-03T09:36:06Z</time>
      </trkpt>
      <trkpt lat="45.71817" lon="2.00684">
        <ele>780</ele>
        <time>2022-08-03T09:36:08Z</time>
      </trkpt>
      <trkpt lat="45.71815" lon="2.0069">
        <ele>780.1</ele>
        <time>2022-08-03T09:36:10Z</time>
      </trkpt>
      <trkpt lat="45.71812" lon="2.00696">
        <ele>780.3</ele>
        <time>2022-08-03T09:36:12Z</time>
      </trkpt>
      <trkpt lat="45.71809" lon="2.00702">
        <ele>780.4</ele>
        <time>2022-08-03T09:36:14Z</time>
      </trkpt>
      <trkpt lat="45.71807" lon="2.00709">
        <ele>780.7</ele>
        <time>2022-08-03T09:36:16Z</time>
      </trkpt>
      <trkpt lat="45.71804" lon="2.00716">
        <ele>780.9</ele>
        <time>2022-08-03T09:36:18Z</time>
      </trkpt>
      <trkpt lat="45.71801" lon="2.00723">
        <ele>781</ele>
        <time>2022-08-03T09:36:20Z</time>
      </trkpt>
      <trkpt lat="45.71797" lon="2.00731">
        <ele>781.1</ele>
        <time>2022-08-03T09:36:22Z</time>
      </trkpt>
      <trkpt lat="45.71794" lon="2.00739">
        <ele>781.4</ele>
        <time>2022-08-03T09:36:24Z</time>
      </trkpt>
      <trkpt lat="45.7179" lon="2.00746">
        <ele>781.4</ele>
        <time>2022-08-03T09:36:26Z</time>
      </trkpt>
      <trkpt lat="45.71787" lon="2.00754">
        <ele>781.7</ele>
        <time>2022-08-03T09:36:28Z</time>
      </trkpt>
      <trkpt lat="45.71784" lon="2.00762">
        <ele>782</ele>
        <time>2022-08-03T09:36:30Z</time>
      </trkpt>
      <trkpt lat="45.71781" lon="2.00767">
        <ele>782.1</ele>
        <time>2022-08-03T09:36:32Z</time>
      </trkpt>
      <trkpt lat="45.71776" lon="2.00775">
        <ele>782.3</ele>
        <time>2022-08-03T09:36:34Z</time>
      </trkpt>
      <trkpt lat="45.71772" lon="2.00784">
        <ele>782.8</ele>
        <time>2022-08-03T09:36:36Z</time>
      </trkpt>
      <trkpt lat="45.71769" lon="2.00792">
        <ele>783.2</ele>
        <time>2022-08-03T09:36:38Z</time>
      </trkpt>
      <trkpt lat="45.71766" lon="2.00801">
        <ele>783.7</ele>
        <time>2022-08-03T09:36:40Z</time>
      </trkpt>
      <trkpt lat="45.71762" lon="2.00809">
        <ele>784</ele>
        <time>2022-08-03T09:36:42Z</time>
      </trkpt>
      <trkpt lat="45.71758" lon="2.00818">
        <ele>784.5</ele>
        <time>2022-08-03T09:36:44Z</time>
      </trkpt>
      <trkpt lat="45.71753" lon="2.00826">
        <ele>784.7</ele>
        <time>2022-08-03T09:36:46Z</time>
      </trkpt>
      <trkpt lat="45.71749" lon="2.00835">
        <ele>785.1</ele>
        <time>2022-08-03T09:36:48Z</time>
      </trkpt>
      <trkpt lat="45.71745" lon="2.00845">
        <ele>785.3</ele>
        <time>2022-08-03T09:36:50Z</time>
      </trkpt>
      <trkpt lat="45.7174" lon="2.00855">
        <ele>785.5</ele>
        <time>2022-08-03T09:36:52Z</time>
      </trkpt>
      <trkpt lat="45.71735" lon="2.00863">
        <ele>785.7</ele>
        <time>2022-08-03T09:36:54Z</time>
      </trkpt>
      <trkpt lat="45.7173" lon="2.00873">
        <ele>785.9</ele>
        <time>2022-08-03T09:36:56Z</time>
      </trkpt>
      <trkpt lat="45.71725" lon="2.00882">
        <ele>786.1</ele>
        <time>2022-08-03T09:36:58Z</time>
      </trkpt>
      <trkpt lat="45.7172" lon="2.0089">
        <ele>786.1</ele>
        <time>2022-08-03T09:37:00Z</time>
      </trkpt>
      <trkpt lat="45.71714" lon="2.00899">
        <ele>786.2</ele>
        <time>2022-08-03T09:37:02Z</time>
      </trkpt>
      <trkpt lat="45.71708" lon="2.00907">
        <ele>786.3</ele>
        <time>2022-08-03T09:37:04Z</time>
      </trkpt>
      <trkpt lat="45.71702" lon="2.00914">
        <ele>786.3</ele>
        <time>2022-08-03T09:37:06Z</time>
      </trkpt>
      <trkpt lat="45.71697" lon="2.00923">
        <ele>786.4</ele>
        <time>2022-08-03T09:37:08Z</time>
      </trkpt>
      <trkpt lat="45.7169" lon="2.00931">
        <ele>786.3</ele>
        <time>2022-08-03T09:37:10Z</time>
      </trkpt>
      <trkpt lat="45.71684" lon="2.00938">
        <ele>786.4</ele>
        <time>2022-08-03T09:37:12Z</time>
      </trkpt>
      <trkpt lat="45.71677" lon="2.00945">
        <ele>786.2</ele>
        <time>2022-08-03T09:37:14Z</time>
      </trkpt>
      <trkpt lat="45.71671" lon="2.00953">
        <ele>786.4</ele>
        <time>2022-08-03T09:37:16Z</time>
      </trkpt>
      <trkpt lat="45.71665" lon="2.00959">
        <ele>786.4</ele>
        <time>2022-08-03T09:37:18Z</time>
      </trkpt>
      <trkpt lat="45.71658" lon="2.00965">
        <ele>786.1</ele>
        <time>2022-08-03T09:37:20Z</time>
      </trkpt>
      <trkpt lat="45.71652" lon="2.00971">
        <ele>785.9</ele>
        <time>2022-08-03T09:37:22Z</time>
      </trkpt>
      <trkpt lat="45.71646" lon="2.00976">
        <ele>785.7</ele>
        <time>2022-08-03T09:37:24Z</time>
      </trkpt>
      <trkpt lat="45.7164" lon="2.00983">
        <ele>785.8</ele>
        <time>2022-08-03T09:37:26Z</time>
      </trkpt>
      <trkpt lat="45.71634" lon="2.0099">
        <ele>786.1</ele>
        <time>2022-08-03T09:37:28Z</time>
      </trkpt>
      <trkpt lat="45.71628" lon="2.00997">
        <ele>786.5</ele>
        <time>2022-08-03T09:37:30Z</time>
      </trkpt>
      <trkpt lat="45.71622" lon="2.01003">
        <ele>786.4</ele>
        <time>2022-08-03T09:37:32Z</time>
      </trkpt>
      <trkpt lat="45.71616" lon="2.01011">
        <ele>786.3</ele>
        <time>2022-08-03T09:37:34Z</time>
      </trkpt>
      <trkpt lat="45.71612" lon="2.01017">
        <ele>786.2</ele>
        <time>2022-08-03T09:37:36Z</time>
      </trkpt>
      <trkpt lat="45.71605" lon="2.01024">
        <ele>785.9</ele>
        <time>2022-08-03T09:37:38Z</time>
      </trkpt>
      <trkpt lat="45.71599" lon="2.01032">
        <ele>785.8</ele>
        <time>2022-08-03T09:37:40Z</time>
      </trkpt>
      <trkpt lat="45.71593" lon="2.01039">
        <ele>785.6</ele>
        <time>2022-08-03T09:37:42Z</time>
      </trkpt>
      <trkpt lat="45.71588" lon="2.0105">
        <ele>785.8</ele>
        <time>2022-08-03T09:37:44Z</time>
      </trkpt>
      <trkpt lat="45.71583" lon="2.01058">
        <ele>785.7</ele>
        <time>2022-08-03T09:37:46Z</time>
      </trkpt>
      <trkpt lat="45.71577" lon="2.01068">
        <ele>785.3</ele>
        <time>2022-08-03T09:37:48Z</time>
      </trkpt>
      <trkpt lat="45.71573" lon="2.01076">
        <ele>785</ele>
        <time>2022-08-03T09:37:50Z</time>
      </trkpt>
      <trkpt lat="45.71568" lon="2.01085">
        <ele>784.8</ele>
        <time>2022-08-03T09:37:52Z</time>
      </trkpt>
      <trkpt lat="45.71565" lon="2.01095">
        <ele>784.1</ele>
        <time>2022-08-03T09:37:54Z</time>
      </trkpt>
      <trkpt lat="45.71562" lon="2.01103">
        <ele>783.5</ele>
        <time>2022-08-03T09:37:56Z</time>
      </trkpt>
      <trkpt lat="45.71559" lon="2.01112">
        <ele>783.2</ele>
        <time>2022-08-03T09:37:58Z</time>
      </trkpt>
      <trkpt lat="45.71558" lon="2.01121">
        <ele>783.1</ele>
        <time>2022-08-03T09:38:00Z</time>
      </trkpt>
      <trkpt lat="45.71556" lon="2.0113">
        <ele>782.9</ele>
        <time>2022-08-03T09:38:02Z</time>
      </trkpt>
      <trkpt lat="45.71556" lon="2.01141">
        <ele>782.9</ele>
        <time>2022-08-03T09:38:04Z</time>
      </trkpt>
      <trkpt lat="45.71556" lon="2.01152">
        <ele>783.2</ele>
        <time>2022-08-03T09:38:06Z</time>
      </trkpt>
      <trkpt lat="45.71556" lon="2.01162">
        <ele>783.4</ele>
        <time>2022-08-03T09:38:08Z</time>
      </trkpt>
      <trkpt lat="45.71558" lon="2.01172">
        <ele>783.9</ele>
        <time>2022-08-03T09:38:10Z</time>
      </trkpt>
      <trkpt lat="45.71559" lon="2.01182">
        <ele>784.3</ele>
        <time>2022-08-03T09:38:12Z</time>
      </trkpt>
      <trkpt lat="45.71561" lon="2.01192">
        <ele>784.9</ele>
        <time>2022-08-03T09:38:14Z</time>
      </trkpt>
      <trkpt lat="45.71563" lon="2.01203">
        <ele>785.4</ele>
        <time>2022-08-03T09:38:16Z</time>
      </trkpt>
      <trkpt lat="45.71564" lon="2.01213">
        <ele>785.9</ele>
        <time>2022-08-03T09:38:18Z</time>
      </trkpt>
      <trkpt lat="45.71566" lon="2.01223">
        <ele>786.3</ele>
        <time>2022-08-03T09:38:20Z</time>
      </trkpt>
      <trkpt lat="45.71567" lon="2.01233">
        <ele>786.7</ele>
        <time>2022-08-03T09:38:22Z</time>
      </trkpt>
      <trkpt lat="45.71568" lon="2.01242">
        <ele>787</ele>
        <time>2022-08-03T09:38:24Z</time>
      </trkpt>
      <trkpt lat="45.7157" lon="2.01252">
        <ele>787.4</ele>
        <time>2022-08-03T09:38:26Z</time>
      </trkpt>
      <trkpt lat="45.71571" lon="2.01262">
        <ele>787.5</ele>
        <time>2022-08-03T09:38:28Z</time>
      </trkpt>
      <trkpt lat="45.71571" lon="2.01272">
        <ele>787.6</ele>
        <time>2022-08-03T09:38:30Z</time>
      </trkpt>
      <trkpt lat="45.71572" lon="2.01282">
        <ele>787.7</ele>
        <time>2022-08-03T09:38:32Z</time>
      </trkpt>
      <trkpt lat="45.71571" lon="2.01293">
        <ele>787.6</ele>
        <time>2022-08-03T09:38:34Z</time>
      </trkpt>
      <trkpt lat="45.71568" lon="2.01303">
        <ele>787.5</ele>
        <time>2022-08-03T09:38:36Z</time>
      </trkpt>
      <trkpt lat="45.71564" lon="2.01313">
        <ele>787.3</ele>
        <time>2022-08-03T09:38:38Z</time>
      </trkpt>
      <trkpt lat="45.71559" lon="2.01321">
        <ele>787.2</ele>
        <time>2022-08-03T09:38:40Z</time>
      </trkpt>
      <trkpt lat="45.71553" lon="2.01328">
        <ele>787.2</ele>
        <time>2022-08-03T09:38:42Z</time>
      </trkpt>
      <trkpt lat="45.71546" lon="2.01333">
        <ele>787.1</ele>
        <time>2022-08-03T09:38:44Z</time>
      </trkpt>
      <trkpt lat="45.71539" lon="2.01336">
        <ele>787.1</ele>
        <time>2022-08-03T09:38:46Z</time>
      </trkpt>
      <trkpt lat="45.71531" lon="2.01337">
        <ele>786.9</ele>
        <time>2022-08-03T09:38:48Z</time>
      </trkpt>
      <trkpt lat="45.71524" lon="2.01337">
        <ele>786.8</ele>
        <time>2022-08-03T09:38:50Z</time>
      </trkpt>
      <trkpt lat="45.71516" lon="2.01336">
        <ele>786.6</ele>
        <time>2022-08-03T09:38:52Z</time>
      </trkpt>
      <trkpt lat="45.71508" lon="2.01335">
        <ele>786.3</ele>
        <time>2022-08-03T09:38:54Z</time>
      </trkpt>
      <trkpt lat="45.715" lon="2.01334">
        <ele>786.1</ele>
        <time>2022-08-03T09:38:56Z</time>
      </trkpt>
      <trkpt lat="45.71492" lon="2.01334">
        <ele>786</ele>
        <time>2022-08-03T09:38:58Z</time>
      </trkpt>
      <trkpt lat="45.71485" lon="2.01332">
        <ele>785.9</ele>
        <time>2022-08-03T09:39:00Z</time>
      </trkpt>
      <trkpt lat="45.71477" lon="2.01332">
        <ele>785.9</ele>
        <time>2022-08-03T09:39:02Z</time>
      </trkpt>
      <trkpt lat="45.71469" lon="2.01332">
        <ele>785.8</ele>
        <time>2022-08-03T09:39:04Z</time>
      </trkpt>
      <trkpt lat="45.71461" lon="2.01331">
        <ele>785.7</ele>
        <time>2022-08-03T09:39:06Z</time>
      </trkpt>
      <trkpt lat="45.71453" lon="2.0133">
        <ele>785.6</ele>
        <time>2022-08-03T09:39:08Z</time>
      </trkpt>
      <trkpt lat="45.71445" lon="2.01329">
        <ele>785.5</ele>
        <time>2022-08-03T09:39:10Z</time>
      </trkpt>
      <trkpt lat="45.71437" lon="2.01329">
        <ele>785.5</ele>
        <time>2022-08-03T09:39:12Z</time>
      </trkpt>
      <trkpt lat="45.71429" lon="2.01329">
        <ele>785.4</ele>
        <time>2022-08-03T09:39:14Z</time>
      </trkpt>
      <trkpt lat="45.71422" lon="2.01328">
        <ele>785.3</ele>
        <time>2022-08-03T09:39:16Z</time>
      </trkpt>
      <trkpt lat="45.71414" lon="2.01326">
        <ele>784.8</ele>
        <time>2022-08-03T09:39:18Z</time>
      </trkpt>
      <trkpt lat="45.71407" lon="2.01326">
        <ele>784.2</ele>
        <time>2022-08-03T09:39:20Z</time>
      </trkpt>
      <trkpt lat="45.71399" lon="2.01326">
        <ele>783.7</ele>
        <time>2022-08-03T09:39:22Z</time>
      </trkpt>
      <trkpt lat="45.71392" lon="2.01327">
        <ele>783.3</ele>
        <time>2022-08-03T09:39:24Z</time>
      </trkpt>
      <trkpt lat="45.71385" lon="2.01329">
        <ele>783</ele>
        <time>2022-08-03T09:39:26Z</time>
      </trkpt>
      <trkpt lat="45.71377" lon="2.01332">
        <ele>782.9</ele>
        <time>2022-08-03T09:39:28Z</time>
      </trkpt>
      <trkpt lat="45.7137" lon="2.01337">
        <ele>783</ele>
        <time>2022-08-03T09:39:30Z</time>
      </trkpt>
      <trkpt lat="45.71363" lon="2.01343">
        <ele>783.3</ele>
        <time>2022-08-03T09:39:32Z</time>
      </trkpt>
      <trkpt lat="45.71357" lon="2.0135">
        <ele>783.7</ele>
        <time>2022-08-03T09:39:34Z</time>
      </trkpt>
      <trkpt lat="45.7135" lon="2.01357">
        <ele>784.2</ele>
        <time>2022-08-03T09:39:36Z</time>
      </trkpt>
      <trkpt lat="45.71344" lon="2.01364">
        <ele>784.7</ele>
        <time>2022-08-03T09:39:38Z</time>
      </trkpt>
      <trkpt lat="45.71337" lon="2.01371">
        <ele>785.2</ele>
        <time>2022-08-03T09:39:40Z</time>
      </trkpt>
      <trkpt lat="45.71331" lon="2.01379">
        <ele>785.7</ele>
        <time>2022-08-03T09:39:42Z</time>
      </trkpt>
      <trkpt lat="45.71325" lon="2.01386">
        <ele>785.7</ele>
        <time>2022-08-03T09:39:44Z</time>
      </trkpt>
      <trkpt lat="45.71318" lon="2.01393">
        <ele>785.7</ele>
        <time>2022-08-03T09:39:46Z</time>
      </trkpt>
      <trkpt lat="45.71311" lon="2.014">
        <ele>785.7</ele>
        <time>2022-08-03T09:39:48Z</time>
      </trkpt>
      <trkpt lat="45.71304" lon="2.01408">
        <ele>785.7</ele>
        <time>2022-08-03T09:39:50Z</time>
      </trkpt>
      <trkpt lat="45.71298" lon="2.01416">
        <ele>785.7</ele>
        <time>2022-08-03T09:39:52Z</time>
      </trkpt>
      <trkpt lat="45.71292" lon="2.01422">
        <ele>785.7</ele>
        <time>2022-08-03T09:39:54Z</time>
      </trkpt>
      <trkpt lat="45.71285" lon="2.0143">
        <ele>785.6</ele>
        <time>2022-08-03T09:39:56Z</time>
      </trkpt>
      <trkpt lat="45.71278" lon="2.01438">
        <ele>785.6</ele>
        <time>2022-08-03T09:39:58Z</time>
      </trkpt>
      <trkpt lat="45.71271" lon="2.01447">
        <ele>785.7</ele>
        <time>2022-08-03T09:40:00Z</time>
      </trkpt>
      <trkpt lat="45.71265" lon="2.01455">
        <ele>785.8</ele>
        <time>2022-08-03T09:40:02Z</time>
      </trkpt>
      <trkpt lat="45.71259" lon="2.01465">
        <ele>786.1</ele>
        <time>2022-08-03T09:40:04Z</time>
      </trkpt>
      <trkpt lat="45.71254" lon="2.01474">
        <ele>786.4</ele>
        <time>2022-08-03T09:40:06Z</time>
      </trkpt>
      <trkpt lat="45.71248" lon="2.01484">
        <ele>786.7</ele>
        <time>2022-08-03T09:40:08Z</time>
      </trkpt>
      <trkpt lat="45.71242" lon="2.01494">
        <ele>787.2</ele>
        <time>2022-08-03T09:40:10Z</time>
      </trkpt>
      <trkpt lat="45.71236" lon="2.01503">
        <ele>787.4</ele>
        <time>2022-08-03T09:40:12Z</time>
      </trkpt>
      <trkpt lat="45.71231" lon="2.01512">
        <ele>787.4</ele>
        <time>2022-08-03T09:40:14Z</time>
      </trkpt>
      <trkpt lat="45.71226" lon="2.01522">
        <ele>787.4</ele>
        <time>2022-08-03T09:40:16Z</time>
      </trkpt>
      <trkpt lat="45.71221" lon="2.01532">
        <ele>787.6</ele>
        <time>2022-08-03T09:40:18Z</time>
      </trkpt>
      <trkpt lat="45.71217" lon="2.01542">
        <ele>787.9</ele>
        <time>2022-08-03T09:40:20Z</time>
      </trkpt>
      <trkpt lat="45.71213" lon="2.01552">
        <ele>788.2</ele>
        <time>2022-08-03T09:40:22Z</time>
      </trkpt>
      <trkpt lat="45.7121" lon="2.01564">
        <ele>788.7</ele>
        <time>2022-08-03T09:40:24Z</time>
      </trkpt>
      <trkpt lat="45.71207" lon="2.01575">
        <ele>789.2</ele>
        <time>2022-08-03T09:40:26Z</time>
      </trkpt>
      <trkpt lat="45.71205" lon="2.01585">
        <ele>789.7</ele>
        <time>2022-08-03T09:40:28Z</time>
      </trkpt>
      <trkpt lat="45.71203" lon="2.01598">
        <ele>789.9</ele>
        <time>2022-08-03T09:40:30Z</time>
      </trkpt>
      <trkpt lat="45.71201" lon="2.01609">
        <ele>790.1</ele>
        <time>2022-08-03T09:40:32Z</time>
      </trkpt>
      <trkpt lat="45.712" lon="2.0162">
        <ele>790.2</ele>
        <time>2022-08-03T09:40:34Z</time>
      </trkpt>
      <trkpt lat="45.71198" lon="2.01632">
        <ele>790.4</ele>
        <time>2022-08-03T09:40:36Z</time>
      </trkpt>
      <trkpt lat="45.71196" lon="2.01643">
        <ele>790.5</ele>
        <time>2022-08-03T09:40:38Z</time>
      </trkpt>
      <trkpt lat="45.71193" lon="2.01655">
        <ele>790.4</ele>
        <time>2022-08-03T09:40:40Z</time>
      </trkpt>
      <trkpt lat="45.71189" lon="2.01666">
        <ele>790.3</ele>
        <time>2022-08-03T09:40:42Z</time>
      </trkpt>
      <trkpt lat="45.71185" lon="2.01676">
        <ele>790.2</ele>
        <time>2022-08-03T09:40:44Z</time>
      </trkpt>
      <trkpt lat="45.71179" lon="2.01685">
        <ele>790</ele>
        <time>2022-08-03T09:40:46Z</time>
      </trkpt>
      <trkpt lat="45.71172" lon="2.01692">
        <ele>789.5</ele>
        <time>2022-08-03T09:40:48Z</time>
      </trkpt>
      <trkpt lat="45.71165" lon="2.01699">
        <ele>789.3</ele>
        <time>2022-08-03T09:40:50Z</time>
      </trkpt>
      <trkpt lat="45.71158" lon="2.01706">
        <ele>789.6</ele>
        <time>2022-08-03T09:40:52Z</time>
      </trkpt>
      <trkpt lat="45.71151" lon="2.01712">
        <ele>789.9</ele>
        <time>2022-08-03T09:40:54Z</time>
      </trkpt>
      <trkpt lat="45.71143" lon="2.01718">
        <ele>790.1</ele>
        <time>2022-08-03T09:40:56Z</time>
      </trkpt>
      <trkpt lat="45.71136" lon="2.01725">
        <ele>790.4</ele>
        <time>2022-08-03T09:40:58Z</time>
      </trkpt>
      <trkpt lat="45.71129" lon="2.01731">
        <ele>790.7</ele>
        <time>2022-08-03T09:41:00Z</time>
      </trkpt>
      <trkpt lat="45.71121" lon="2.01737">
        <ele>791</ele>
        <time>2022-08-03T09:41:02Z</time>
      </trkpt>
      <trkpt lat="45.71114" lon="2.01743">
        <ele>791.3</ele>
        <time>2022-08-03T09:41:04Z</time>
      </trkpt>
      <trkpt lat="45.71107" lon="2.01749">
        <ele>791.5</ele>
        <time>2022-08-03T09:41:06Z</time>
      </trkpt>
      <trkpt lat="45.71099" lon="2.01755">
        <ele>791.5</ele>
        <time>2022-08-03T09:41:08Z</time>
      </trkpt>
      <trkpt lat="45.71092" lon="2.01762">
        <ele>791.4</ele>
        <time>2022-08-03T09:41:10Z</time>
      </trkpt>
      <trkpt lat="45.71084" lon="2.01769">
        <ele>791.3</ele>
        <time>2022-08-03T09:41:12Z</time>
      </trkpt>
      <trkpt lat="45.71077" lon="2.01775">
        <ele>791</ele>
        <time>2022-08-03T09:41:14Z</time>
      </trkpt>
      <trkpt lat="45.71069" lon="2.01781">
        <ele>790.7</ele>
        <time>2022-08-03T09:41:16Z</time>
      </trkpt>
      <trkpt lat="45.71062" lon="2.01787">
        <ele>790.3</ele>
        <time>2022-08-03T09:41:18Z</time>
      </trkpt>
      <trkpt lat="45.71055" lon="2.01793">
        <ele>790</ele>
        <time>2022-08-03T09:41:20Z</time>
      </trkpt>
      <trkpt lat="45.71048" lon="2.018">
        <ele>789.6</ele>
        <time>2022-08-03T09:41:22Z</time>
      </trkpt>
      <trkpt lat="45.7104" lon="2.01806">
        <ele>789</ele>
        <time>2022-08-03T09:41:24Z</time>
      </trkpt>
      <trkpt lat="45.71032" lon="2.01812">
        <ele>788.5</ele>
        <time>2022-08-03T09:41:26Z</time>
      </trkpt>
      <trkpt lat="45.71024" lon="2.0182">
        <ele>787.9</ele>
        <time>2022-08-03T09:41:28Z</time>
      </trkpt>
      <trkpt lat="45.71015" lon="2.01827">
        <ele>787.2</ele>
        <time>2022-08-03T09:41:30Z</time>
      </trkpt>
      <trkpt lat="45.71005" lon="2.01834">
        <ele>786.4</ele>
        <time>2022-08-03T09:41:32Z</time>
      </trkpt>
      <trkpt lat="45.70995" lon="2.01842">
        <ele>786.1</ele>
        <time>2022-08-03T09:41:34Z</time>
      </trkpt>
      <trkpt lat="45.70985" lon="2.01851">
        <ele>785.9</ele>
        <time>2022-08-03T09:41:36Z</time>
      </trkpt>
      <trkpt lat="45.70974" lon="2.0186">
        <ele>785.7</ele>
        <time>2022-08-03T09:41:38Z</time>
      </trkpt>
      <trkpt lat="45.70963" lon="2.01869">
        <ele>785.5</ele>
        <time>2022-08-03T09:41:40Z</time>
      </trkpt>
      <trkpt lat="45.70952" lon="2.01879">
        <ele>785.3</ele>
        <time>2022-08-03T09:41:42Z</time>
      </trkpt>
      <trkpt lat="45.7094" lon="2.01888">
        <ele>785.1</ele>
        <time>2022-08-03T09:41:44Z</time>
      </trkpt>
      <trkpt lat="45.70928" lon="2.01899">
        <ele>785</ele>
        <time>2022-08-03T09:41:46Z</time>
      </trkpt>
      <trkpt lat="45.70916" lon="2.01908">
        <ele>784.7</ele>
        <time>2022-08-03T09:41:48Z</time>
      </trkpt>
      <trkpt lat="45.70904" lon="2.01917">
        <ele>784.1</ele>
        <time>2022-08-03T09:41:50Z</time>
      </trkpt>
      <trkpt lat="45.70893" lon="2.01927">
        <ele>783.6</ele>
        <time>2022-08-03T09:41:52Z</time>
      </trkpt>
      <trkpt lat="45.70881" lon="2.01937">
        <ele>783.1</ele>
        <time>2022-08-03T09:41:54Z</time>
      </trkpt>
      <trkpt lat="45.70869" lon="2.01947">
        <ele>782.7</ele>
        <time>2022-08-03T09:41:56Z</time>
      </trkpt>
      <trkpt lat="45.70857" lon="2.01957">
        <ele>782.3</ele>
        <time>2022-08-03T09:41:58Z</time>
      </trkpt>
      <trkpt lat="45.70845" lon="2.01967">
        <ele>782.1</ele>
        <time>2022-08-03T09:42:00Z</time>
      </trkpt>
      <trkpt lat="45.70833" lon="2.01978">
        <ele>781.9</ele>
        <time>2022-08-03T09:42:02Z</time>
      </trkpt>
      <trkpt lat="45.70821" lon="2.01987">
        <ele>781.7</ele>
        <time>2022-08-03T09:42:04Z</time>
      </trkpt>
      <trkpt lat="45.7081" lon="2.01995">
        <ele>781.4</ele>
        <time>2022-08-03T09:42:06Z</time>
      </trkpt>
      <trkpt lat="45.70802" lon="2.01998">
        <ele>781</ele>
        <time>2022-08-03T09:42:08Z</time>
      </trkpt>
      <trkpt lat="45.70795" lon="2.01999">
        <ele>780.6</ele>
        <time>2022-08-03T09:42:10Z</time>
      </trkpt>
      <trkpt lat="45.70793" lon="2.01999">
        <ele>780.5</ele>
        <time>2022-08-03T09:42:12Z</time>
      </trkpt>
      <trkpt lat="45.70792" lon="2.01999">
        <ele>780.5</ele>
        <time>2022-08-03T09:42:14Z</time>
      </trkpt>
      <trkpt lat="45.70793" lon="2.01999">
        <ele>780.5</ele>
        <time>2022-08-03T09:42:16Z</time>
      </trkpt>
      <trkpt lat="45.70793" lon="2.01999">
        <ele>780.5</ele>
        <time>2022-08-03T09:42:18Z</time>
      </trkpt>
      <trkpt lat="45.70792" lon="2.01999">
        <ele>780.5</ele>
        <time>2022-08-03T09:42:20Z</time>
      </trkpt>
      <trkpt lat="45.70782" lon="2.02002">
        <ele>779.8</ele>
        <time>2022-08-03T09:43:34Z</time>
      </trkpt>
      <trkpt lat="45.70779" lon="2.02003">
        <ele>779.6</ele>
        <time>2022-08-03T09:43:36Z</time>
      </trkpt>
      <trkpt lat="45.70774" lon="2.02004">
        <ele>779.2</ele>
        <time>2022-08-03T09:43:38Z</time>
      </trkpt>
      <trkpt lat="45.70767" lon="2.02005">
        <ele>778.8</ele>
        <time>2022-08-03T09:43:40Z</time>
      </trkpt>
      <trkpt lat="45.70759" lon="2.02007">
        <ele>778.3</ele>
        <time>2022-08-03T09:43:42Z</time>
      </trkpt>
      <trkpt lat="45.7075" lon="2.02009">
        <ele>777.7</ele>
        <time>2022-08-03T09:43:44Z</time>
      </trkpt>
      <trkpt lat="45.70741" lon="2.02012">
        <ele>777.8</ele>
        <time>2022-08-03T09:43:46Z</time>
      </trkpt>
      <trkpt lat="45.7073" lon="2.02013">
        <ele>778</ele>
        <time>2022-08-03T09:43:48Z</time>
      </trkpt>
      <trkpt lat="45.70718" lon="2.02015">
        <ele>778.3</ele>
        <time>2022-08-03T09:43:50Z</time>
      </trkpt>
      <trkpt lat="45.70706" lon="2.02017">
        <ele>778.6</ele>
        <time>2022-08-03T09:43:52Z</time>
      </trkpt>
      <trkpt lat="45.70693" lon="2.02019">
        <ele>778.8</ele>
        <time>2022-08-03T09:43:54Z</time>
      </trkpt>
      <trkpt lat="45.70679" lon="2.0202">
        <ele>779.2</ele>
        <time>2022-08-03T09:43:56Z</time>
      </trkpt>
      <trkpt lat="45.70665" lon="2.02023">
        <ele>779.5</ele>
        <time>2022-08-03T09:43:58Z</time>
      </trkpt>
      <trkpt lat="45.7065" lon="2.02025">
        <ele>779.5</ele>
        <time>2022-08-03T09:44:00Z</time>
      </trkpt>
      <trkpt lat="45.70635" lon="2.02028">
        <ele>779.4</ele>
        <time>2022-08-03T09:44:02Z</time>
      </trkpt>
      <trkpt lat="45.70619" lon="2.02031">
        <ele>779.4</ele>
        <time>2022-08-03T09:44:04Z</time>
      </trkpt>
      <trkpt lat="45.70604" lon="2.02034">
        <ele>779.2</ele>
        <time>2022-08-03T09:44:06Z</time>
      </trkpt>
      <trkpt lat="45.70589" lon="2.0204">
        <ele>778.7</ele>
        <time>2022-08-03T09:44:08Z</time>
      </trkpt>
      <trkpt lat="45.70574" lon="2.02051">
        <ele>777.7</ele>
        <time>2022-08-03T09:44:10Z</time>
      </trkpt>
      <trkpt lat="45.70562" lon="2.02067">
        <ele>776.6</ele>
        <time>2022-08-03T09:44:12Z</time>
      </trkpt>
      <trkpt lat="45.70554" lon="2.02088">
        <ele>775.6</ele>
        <time>2022-08-03T09:44:14Z</time>
      </trkpt>
      <trkpt lat="45.70548" lon="2.0211">
        <ele>775.3</ele>
        <time>2022-08-03T09:44:16Z</time>
      </trkpt>
      <trkpt lat="45.70542" lon="2.02134">
        <ele>774.8</ele>
        <time>2022-08-03T09:44:18Z</time>
      </trkpt>
      <trkpt lat="45.70536" lon="2.02157">
        <ele>774.1</ele>
        <time>2022-08-03T09:44:20Z</time>
      </trkpt>
      <trkpt lat="45.70531" lon="2.02181">
        <ele>773.2</ele>
        <time>2022-08-03T09:44:22Z</time>
      </trkpt>
      <trkpt lat="45.70525" lon="2.02203">
        <ele>772.3</ele>
        <time>2022-08-03T09:44:24Z</time>
      </trkpt>
      <trkpt lat="45.70519" lon="2.02226">
        <ele>771.5</ele>
        <time>2022-08-03T09:44:26Z</time>
      </trkpt>
      <trkpt lat="45.70513" lon="2.02249">
        <ele>770.9</ele>
        <time>2022-08-03T09:44:28Z</time>
      </trkpt>
      <trkpt lat="45.70507" lon="2.02271">
        <ele>769.9</ele>
        <time>2022-08-03T09:44:30Z</time>
      </trkpt>
      <trkpt lat="45.70501" lon="2.02294">
        <ele>768.9</ele>
        <time>2022-08-03T09:44:32Z</time>
      </trkpt>
      <trkpt lat="45.70496" lon="2.02317">
        <ele>767.9</ele>
        <time>2022-08-03T09:44:34Z</time>
      </trkpt>
      <trkpt lat="45.70491" lon="2.02338">
        <ele>767.3</ele>
        <time>2022-08-03T09:44:36Z</time>
      </trkpt>
      <trkpt lat="45.70488" lon="2.02352">
        <ele>767.5</ele>
        <time>2022-08-03T09:44:38Z</time>
      </trkpt>
      <trkpt lat="45.70483" lon="2.02366">
        <ele>767.8</ele>
        <time>2022-08-03T09:44:40Z</time>
      </trkpt>
      <trkpt lat="45.70482" lon="2.0238">
        <ele>767.9</ele>
        <time>2022-08-03T09:44:42Z</time>
      </trkpt>
      <trkpt lat="45.70484" lon="2.02394">
        <ele>767.8</ele>
        <time>2022-08-03T09:44:44Z</time>
      </trkpt>
      <trkpt lat="45.70491" lon="2.02406">
        <ele>767.5</ele>
        <time>2022-08-03T09:44:46Z</time>
      </trkpt>
      <trkpt lat="45.70499" lon="2.02418">
        <ele>767.1</ele>
        <time>2022-08-03T09:44:48Z</time>
      </trkpt>
      <trkpt lat="45.70507" lon="2.02431">
        <ele>767.4</ele>
        <time>2022-08-03T09:44:50Z</time>
      </trkpt>
      <trkpt lat="45.70516" lon="2.02444">
        <ele>767.8</ele>
        <time>2022-08-03T09:44:52Z</time>
      </trkpt>
      <trkpt lat="45.70526" lon="2.02456">
        <ele>768.1</ele>
        <time>2022-08-03T09:44:54Z</time>
      </trkpt>
      <trkpt lat="45.70534" lon="2.0247">
        <ele>768.5</ele>
        <time>2022-08-03T09:44:56Z</time>
      </trkpt>
      <trkpt lat="45.70544" lon="2.02485">
        <ele>768.9</ele>
        <time>2022-08-03T09:44:58Z</time>
      </trkpt>
      <trkpt lat="45.70553" lon="2.02499">
        <ele>769.3</ele>
        <time>2022-08-03T09:45:00Z</time>
      </trkpt>
      <trkpt lat="45.70562" lon="2.02513">
        <ele>769.1</ele>
        <time>2022-08-03T09:45:02Z</time>
      </trkpt>
      <trkpt lat="45.70571" lon="2.02527">
        <ele>768.7</ele>
        <time>2022-08-03T09:45:04Z</time>
      </trkpt>
      <trkpt lat="45.70576" lon="2.02545">
        <ele>768.2</ele>
        <time>2022-08-03T09:45:06Z</time>
      </trkpt>
      <trkpt lat="45.70575" lon="2.02566">
        <ele>767.9</ele>
        <time>2022-08-03T09:45:08Z</time>
      </trkpt>
      <trkpt lat="45.70562" lon="2.02581">
        <ele>768.6</ele>
        <time>2022-08-03T09:45:10Z</time>
      </trkpt>
      <trkpt lat="45.70551" lon="2.02592">
        <ele>768.2</ele>
        <time>2022-08-03T09:45:12Z</time>
      </trkpt>
      <trkpt lat="45.70539" lon="2.02606">
        <ele>767.3</ele>
        <time>2022-08-03T09:45:14Z</time>
      </trkpt>
      <trkpt lat="45.70526" lon="2.02621">
        <ele>766.5</ele>
        <time>2022-08-03T09:45:16Z</time>
      </trkpt>
      <trkpt lat="45.70513" lon="2.02634">
        <ele>765.9</ele>
        <time>2022-08-03T09:45:18Z</time>
      </trkpt>
      <trkpt lat="45.70499" lon="2.02647">
        <ele>765.4</ele>
        <time>2022-08-03T09:45:20Z</time>
      </trkpt>
      <trkpt lat="45.70485" lon="2.02662">
        <ele>765.3</ele>
        <time>2022-08-03T09:45:22Z</time>
      </trkpt>
      <trkpt lat="45.70474" lon="2.0268">
        <ele>764.6</ele>
        <time>2022-08-03T09:45:24Z</time>
      </trkpt>
      <trkpt lat="45.70467" lon="2.02701">
        <ele>763.4</ele>
        <time>2022-08-03T09:45:26Z</time>
      </trkpt>
      <trkpt lat="45.70459" lon="2.02724">
        <ele>762.1</ele>
        <time>2022-08-03T09:45:28Z</time>
      </trkpt>
      <trkpt lat="45.70452" lon="2.02746">
        <ele>760.9</ele>
        <time>2022-08-03T09:45:30Z</time>
      </trkpt>
      <trkpt lat="45.70445" lon="2.02768">
        <ele>759.9</ele>
        <time>2022-08-03T09:45:32Z</time>
      </trkpt>
      <trkpt lat="45.70438" lon="2.02791">
        <ele>758.4</ele>
        <time>2022-08-03T09:45:34Z</time>
      </trkpt>
      <trkpt lat="45.70435" lon="2.02814">
        <ele>756.2</ele>
        <time>2022-08-03T09:45:36Z</time>
      </trkpt>
      <trkpt lat="45.70433" lon="2.02839">
        <ele>754.2</ele>
        <time>2022-08-03T09:45:38Z</time>
      </trkpt>
      <trkpt lat="45.70432" lon="2.02864">
        <ele>754</ele>
        <time>2022-08-03T09:45:40Z</time>
      </trkpt>
      <trkpt lat="45.70431" lon="2.02889">
        <ele>753.9</ele>
        <time>2022-08-03T09:45:42Z</time>
      </trkpt>
      <trkpt lat="45.70429" lon="2.02913">
        <ele>753.7</ele>
        <time>2022-08-03T09:45:44Z</time>
      </trkpt>
      <trkpt lat="45.70428" lon="2.02936">
        <ele>753.4</ele>
        <time>2022-08-03T09:45:46Z</time>
      </trkpt>
      <trkpt lat="45.70428" lon="2.02957">
        <ele>753</ele>
        <time>2022-08-03T09:45:48Z</time>
      </trkpt>
      <trkpt lat="45.70426" lon="2.02978">
        <ele>752.5</ele>
        <time>2022-08-03T09:45:50Z</time>
      </trkpt>
      <trkpt lat="45.70425" lon="2.02999">
        <ele>752.1</ele>
        <time>2022-08-03T09:45:52Z</time>
      </trkpt>
      <trkpt lat="45.70424" lon="2.03017">
        <ele>752.1</ele>
        <time>2022-08-03T09:45:54Z</time>
      </trkpt>
      <trkpt lat="45.70423" lon="2.03036">
        <ele>752.1</ele>
        <time>2022-08-03T09:45:56Z</time>
      </trkpt>
      <trkpt lat="45.70422" lon="2.03053">
        <ele>752.1</ele>
        <time>2022-08-03T09:45:58Z</time>
      </trkpt>
      <trkpt lat="45.70421" lon="2.0307">
        <ele>752.1</ele>
        <time>2022-08-03T09:46:00Z</time>
      </trkpt>
      <trkpt lat="45.7042" lon="2.03087">
        <ele>752.1</ele>
        <time>2022-08-03T09:46:02Z</time>
      </trkpt>
      <trkpt lat="45.7042" lon="2.03104">
        <ele>752.3</ele>
        <time>2022-08-03T09:46:04Z</time>
      </trkpt>
      <trkpt lat="45.70419" lon="2.0312">
        <ele>752.5</ele>
        <time>2022-08-03T09:46:06Z</time>
      </trkpt>
      <trkpt lat="45.70418" lon="2.03136">
        <ele>752.7</ele>
        <time>2022-08-03T09:46:08Z</time>
      </trkpt>
      <trkpt lat="45.70417" lon="2.03152">
        <ele>752.8</ele>
        <time>2022-08-03T09:46:10Z</time>
      </trkpt>
      <trkpt lat="45.70417" lon="2.03166">
        <ele>753</ele>
        <time>2022-08-03T09:46:12Z</time>
      </trkpt>
      <trkpt lat="45.70416" lon="2.03181">
        <ele>753.2</ele>
        <time>2022-08-03T09:46:14Z</time>
      </trkpt>
      <trkpt lat="45.70415" lon="2.03195">
        <ele>753.3</ele>
        <time>2022-08-03T09:46:16Z</time>
      </trkpt>
      <trkpt lat="45.70414" lon="2.03208">
        <ele>753.5</ele>
        <time>2022-08-03T09:46:18Z</time>
      </trkpt>
      <trkpt lat="45.70414" lon="2.0322">
        <ele>753.6</ele>
        <time>2022-08-03T09:46:20Z</time>
      </trkpt>
      <trkpt lat="45.70413" lon="2.03232">
        <ele>753.8</ele>
        <time>2022-08-03T09:46:22Z</time>
      </trkpt>
      <trkpt lat="45.70412" lon="2.03244">
        <ele>753.9</ele>
        <time>2022-08-03T09:46:24Z</time>
      </trkpt>
      <trkpt lat="45.70412" lon="2.03257">
        <ele>754.2</ele>
        <time>2022-08-03T09:46:26Z</time>
      </trkpt>
      <trkpt lat="45.70412" lon="2.03268">
        <ele>754.6</ele>
        <time>2022-08-03T09:46:28Z</time>
      </trkpt>
      <trkpt lat="45.70411" lon="2.03279">
        <ele>755</ele>
        <time>2022-08-03T09:46:30Z</time>
      </trkpt>
      <trkpt lat="45.7041" lon="2.0329">
        <ele>755.3</ele>
        <time>2022-08-03T09:46:32Z</time>
      </trkpt>
      <trkpt lat="45.70409" lon="2.033">
        <ele>755.7</ele>
        <time>2022-08-03T09:46:34Z</time>
      </trkpt>
      <trkpt lat="45.70409" lon="2.03309">
        <ele>756</ele>
        <time>2022-08-03T09:46:36Z</time>
      </trkpt>
      <trkpt lat="45.70409" lon="2.03319">
        <ele>756.3</ele>
        <time>2022-08-03T09:46:38Z</time>
      </trkpt>
      <trkpt lat="45.70408" lon="2.03329">
        <ele>756.6</ele>
        <time>2022-08-03T09:46:40Z</time>
      </trkpt>
      <trkpt lat="45.70408" lon="2.03338">
        <ele>756.9</ele>
        <time>2022-08-03T09:46:42Z</time>
      </trkpt>
      <trkpt lat="45.70407" lon="2.03348">
        <ele>757.1</ele>
        <time>2022-08-03T09:46:44Z</time>
      </trkpt>
      <trkpt lat="45.70407" lon="2.03357">
        <ele>757.3</ele>
        <time>2022-08-03T09:46:46Z</time>
      </trkpt>
      <trkpt lat="45.70406" lon="2.03367">
        <ele>757.5</ele>
        <time>2022-08-03T09:46:48Z</time>
      </trkpt>
      <trkpt lat="45.70406" lon="2.03376">
        <ele>757.7</ele>
        <time>2022-08-03T09:46:50Z</time>
      </trkpt>
      <trkpt lat="45.70405" lon="2.03384">
        <ele>757.9</ele>
        <time>2022-08-03T09:46:52Z</time>
      </trkpt>
      <trkpt lat="45.70405" lon="2.03392">
        <ele>758</ele>
        <time>2022-08-03T09:46:54Z</time>
      </trkpt>
      <trkpt lat="45.70405" lon="2.03401">
        <ele>758.2</ele>
        <time>2022-08-03T09:46:56Z</time>
      </trkpt>
      <trkpt lat="45.70404" lon="2.03409">
        <ele>758.4</ele>
        <time>2022-08-03T09:46:58Z</time>
      </trkpt>
      <trkpt lat="45.70403" lon="2.03417">
        <ele>758.5</ele>
        <time>2022-08-03T09:47:00Z</time>
      </trkpt>
      <trkpt lat="45.70403" lon="2.03426">
        <ele>758.7</ele>
        <time>2022-08-03T09:47:02Z</time>
      </trkpt>
      <trkpt lat="45.70402" lon="2.03434">
        <ele>758.9</ele>
        <time>2022-08-03T09:47:04Z</time>
      </trkpt>
      <trkpt lat="45.70402" lon="2.03443">
        <ele>759.1</ele>
        <time>2022-08-03T09:47:06Z</time>
      </trkpt>
      <trkpt lat="45.70401" lon="2.03451">
        <ele>759.4</ele>
        <time>2022-08-03T09:47:08Z</time>
      </trkpt>
      <trkpt lat="45.70401" lon="2.03459">
        <ele>759.6</ele>
        <time>2022-08-03T09:47:10Z</time>
      </trkpt>
      <trkpt lat="45.70401" lon="2.03467">
        <ele>759.8</ele>
        <time>2022-08-03T09:47:12Z</time>
      </trkpt>
      <trkpt lat="45.704" lon="2.03475">
        <ele>760</ele>
        <time>2022-08-03T09:47:14Z</time>
      </trkpt>
      <trkpt lat="45.70399" lon="2.03483">
        <ele>760.1</ele>
        <time>2022-08-03T09:47:16Z</time>
      </trkpt>
      <trkpt lat="45.70399" lon="2.03492">
        <ele>760.4</ele>
        <time>2022-08-03T09:47:18Z</time>
      </trkpt>
      <trkpt lat="45.70398" lon="2.035">
        <ele>760.6</ele>
        <time>2022-08-03T09:47:20Z</time>
      </trkpt>
      <trkpt lat="45.70398" lon="2.03509">
        <ele>760.8</ele>
        <time>2022-08-03T09:47:22Z</time>
      </trkpt>
      <trkpt lat="45.70398" lon="2.03517">
        <ele>761.1</ele>
        <time>2022-08-03T09:47:24Z</time>
      </trkpt>
      <trkpt lat="45.70398" lon="2.03526">
        <ele>761.3</ele>
        <time>2022-08-03T09:47:26Z</time>
      </trkpt>
      <trkpt lat="45.70397" lon="2.03535">
        <ele>761.6</ele>
        <time>2022-08-03T09:47:28Z</time>
      </trkpt>
      <trkpt lat="45.70398" lon="2.03543">
        <ele>761.8</ele>
        <time>2022-08-03T09:47:30Z</time>
      </trkpt>
      <trkpt lat="45.70399" lon="2.03551">
        <ele>762.1</ele>
        <time>2022-08-03T09:47:32Z</time>
      </trkpt>
      <trkpt lat="45.704" lon="2.0356">
        <ele>762.3</ele>
        <time>2022-08-03T09:47:34Z</time>
      </trkpt>
      <trkpt lat="45.70402" lon="2.03569">
        <ele>762.6</ele>
        <time>2022-08-03T09:47:36Z</time>
      </trkpt>
      <trkpt lat="45.70404" lon="2.03579">
        <ele>762.9</ele>
        <time>2022-08-03T09:47:38Z</time>
      </trkpt>
      <trkpt lat="45.70406" lon="2.03589">
        <ele>762.9</ele>
        <time>2022-08-03T09:47:40Z</time>
      </trkpt>
      <trkpt lat="45.70409" lon="2.036">
        <ele>762.6</ele>
        <time>2022-08-03T09:47:42Z</time>
      </trkpt>
      <trkpt lat="45.70412" lon="2.03611">
        <ele>762.3</ele>
        <time>2022-08-03T09:47:44Z</time>
      </trkpt>
      <trkpt lat="45.70415" lon="2.03623">
        <ele>762.1</ele>
        <time>2022-08-03T09:47:46Z</time>
      </trkpt>
      <trkpt lat="45.70418" lon="2.03634">
        <ele>761.9</ele>
        <time>2022-08-03T09:47:48Z</time>
      </trkpt>
      <trkpt lat="45.70422" lon="2.03646">
        <ele>762</ele>
        <time>2022-08-03T09:47:50Z</time>
      </trkpt>
      <trkpt lat="45.70425" lon="2.03658">
        <ele>762.1</ele>
        <time>2022-08-03T09:47:52Z</time>
      </trkpt>
      <trkpt lat="45.70429" lon="2.0367">
        <ele>762.3</ele>
        <time>2022-08-03T09:47:54Z</time>
      </trkpt>
      <trkpt lat="45.70433" lon="2.03683">
        <ele>762.7</ele>
        <time>2022-08-03T09:47:56Z</time>
      </trkpt>
      <trkpt lat="45.70437" lon="2.03695">
        <ele>763.1</ele>
        <time>2022-08-03T09:47:58Z</time>
      </trkpt>
      <trkpt lat="45.70442" lon="2.03708">
        <ele>763.6</ele>
        <time>2022-08-03T09:48:00Z</time>
      </trkpt>
      <trkpt lat="45.70446" lon="2.03721">
        <ele>764.2</ele>
        <time>2022-08-03T09:48:02Z</time>
      </trkpt>
      <trkpt lat="45.7045" lon="2.03735">
        <ele>764.8</ele>
        <time>2022-08-03T09:48:04Z</time>
      </trkpt>
      <trkpt lat="45.70454" lon="2.0375">
        <ele>765.4</ele>
        <time>2022-08-03T09:48:06Z</time>
      </trkpt>
      <trkpt lat="45.70459" lon="2.03764">
        <ele>765.1</ele>
        <time>2022-08-03T09:48:08Z</time>
      </trkpt>
      <trkpt lat="45.70463" lon="2.03779">
        <ele>764.7</ele>
        <time>2022-08-03T09:48:10Z</time>
      </trkpt>
      <trkpt lat="45.70468" lon="2.03794">
        <ele>764.3</ele>
        <time>2022-08-03T09:48:12Z</time>
      </trkpt>
      <trkpt lat="45.70473" lon="2.0381">
        <ele>763.8</ele>
        <time>2022-08-03T09:48:14Z</time>
      </trkpt>
      <trkpt lat="45.70478" lon="2.03827">
        <ele>763.1</ele>
        <time>2022-08-03T09:48:16Z</time>
      </trkpt>
      <trkpt lat="45.70483" lon="2.03843">
        <ele>762.6</ele>
        <time>2022-08-03T09:48:18Z</time>
      </trkpt>
      <trkpt lat="45.70488" lon="2.0386">
        <ele>762</ele>
        <time>2022-08-03T09:48:20Z</time>
      </trkpt>
      <trkpt lat="45.70493" lon="2.03876">
        <ele>761.1</ele>
        <time>2022-08-03T09:48:22Z</time>
      </trkpt>
      <trkpt lat="45.70497" lon="2.03893">
        <ele>759.9</ele>
        <time>2022-08-03T09:48:24Z</time>
      </trkpt>
      <trkpt lat="45.70502" lon="2.03909">
        <ele>758.8</ele>
        <time>2022-08-03T09:48:26Z</time>
      </trkpt>
      <trkpt lat="45.70507" lon="2.03926">
        <ele>758.6</ele>
        <time>2022-08-03T09:48:28Z</time>
      </trkpt>
      <trkpt lat="45.70513" lon="2.03942">
        <ele>759.2</ele>
        <time>2022-08-03T09:48:30Z</time>
      </trkpt>
      <trkpt lat="45.70518" lon="2.03958">
        <ele>759.6</ele>
        <time>2022-08-03T09:48:32Z</time>
      </trkpt>
      <trkpt lat="45.70522" lon="2.03973">
        <ele>759.8</ele>
        <time>2022-08-03T09:48:34Z</time>
      </trkpt>
      <trkpt lat="45.70528" lon="2.03988">
        <ele>759.9</ele>
        <time>2022-08-03T09:48:36Z</time>
      </trkpt>
      <trkpt lat="45.70532" lon="2.04002">
        <ele>759.8</ele>
        <time>2022-08-03T09:48:38Z</time>
      </trkpt>
      <trkpt lat="45.70536" lon="2.04016">
        <ele>759.6</ele>
        <time>2022-08-03T09:48:40Z</time>
      </trkpt>
      <trkpt lat="45.7054" lon="2.0403">
        <ele>759.4</ele>
        <time>2022-08-03T09:48:42Z</time>
      </trkpt>
      <trkpt lat="45.70545" lon="2.04044">
        <ele>759.1</ele>
        <time>2022-08-03T09:48:44Z</time>
      </trkpt>
      <trkpt lat="45.70549" lon="2.04057">
        <ele>758.8</ele>
        <time>2022-08-03T09:48:46Z</time>
      </trkpt>
      <trkpt lat="45.70553" lon="2.04071">
        <ele>758.6</ele>
        <time>2022-08-03T09:48:48Z</time>
      </trkpt>
      <trkpt lat="45.70556" lon="2.04085">
        <ele>758.3</ele>
        <time>2022-08-03T09:48:50Z</time>
      </trkpt>
      <trkpt lat="45.7056" lon="2.04098">
        <ele>758.1</ele>
        <time>2022-08-03T09:48:52Z</time>
      </trkpt>
      <trkpt lat="45.70564" lon="2.04111">
        <ele>757.9</ele>
        <time>2022-08-03T09:48:54Z</time>
      </trkpt>
      <trkpt lat="45.70568" lon="2.04123">
        <ele>757.7</ele>
        <time>2022-08-03T09:48:56Z</time>
      </trkpt>
      <trkpt lat="45.70571" lon="2.04135">
        <ele>757.5</ele>
        <time>2022-08-03T09:48:58Z</time>
      </trkpt>
      <trkpt lat="45.70575" lon="2.04146">
        <ele>757.3</ele>
        <time>2022-08-03T09:49:00Z</time>
      </trkpt>
      <trkpt lat="45.70578" lon="2.04158">
        <ele>757.2</ele>
        <time>2022-08-03T09:49:02Z</time>
      </trkpt>
      <trkpt lat="45.70581" lon="2.04169">
        <ele>757.2</ele>
        <time>2022-08-03T09:49:04Z</time>
      </trkpt>
      <trkpt lat="45.70584" lon="2.0418">
        <ele>757.6</ele>
        <time>2022-08-03T09:49:06Z</time>
      </trkpt>
      <trkpt lat="45.70588" lon="2.04189">
        <ele>758.1</ele>
        <time>2022-08-03T09:49:08Z</time>
      </trkpt>
      <trkpt lat="45.70591" lon="2.04198">
        <ele>758.5</ele>
        <time>2022-08-03T09:49:10Z</time>
      </trkpt>
      <trkpt lat="45.70593" lon="2.04207">
        <ele>759</ele>
        <time>2022-08-03T09:49:12Z</time>
      </trkpt>
      <trkpt lat="45.70596" lon="2.04216">
        <ele>759.4</ele>
        <time>2022-08-03T09:49:14Z</time>
      </trkpt>
      <trkpt lat="45.70599" lon="2.04225">
        <ele>759.9</ele>
        <time>2022-08-03T09:49:16Z</time>
      </trkpt>
      <trkpt lat="45.70602" lon="2.04235">
        <ele>760.3</ele>
        <time>2022-08-03T09:49:18Z</time>
      </trkpt>
      <trkpt lat="45.70604" lon="2.04243">
        <ele>760.7</ele>
        <time>2022-08-03T09:49:20Z</time>
      </trkpt>
      <trkpt lat="45.70607" lon="2.04251">
        <ele>761.1</ele>
        <time>2022-08-03T09:49:22Z</time>
      </trkpt>
      <trkpt lat="45.70609" lon="2.04259">
        <ele>761.5</ele>
        <time>2022-08-03T09:49:24Z</time>
      </trkpt>
      <trkpt lat="45.70612" lon="2.04266">
        <ele>761.9</ele>
        <time>2022-08-03T09:49:26Z</time>
      </trkpt>
      <trkpt lat="45.70614" lon="2.04273">
        <ele>762.2</ele>
        <time>2022-08-03T09:49:28Z</time>
      </trkpt>
      <trkpt lat="45.70616" lon="2.0428">
        <ele>762.7</ele>
        <time>2022-08-03T09:49:30Z</time>
      </trkpt>
      <trkpt lat="45.70618" lon="2.04287">
        <ele>763.1</ele>
        <time>2022-08-03T09:49:32Z</time>
      </trkpt>
      <trkpt lat="45.7062" lon="2.04294">
        <ele>763.5</ele>
        <time>2022-08-03T09:49:34Z</time>
      </trkpt>
      <trkpt lat="45.70622" lon="2.04301">
        <ele>764</ele>
        <time>2022-08-03T09:49:36Z</time>
      </trkpt>
      <trkpt lat="45.70624" lon="2.04308">
        <ele>764.4</ele>
        <time>2022-08-03T09:49:38Z</time>
      </trkpt>
      <trkpt lat="45.70626" lon="2.04315">
        <ele>764.9</ele>
        <time>2022-08-03T09:49:40Z</time>
      </trkpt>
      <trkpt lat="45.70628" lon="2.04321">
        <ele>765.4</ele>
        <time>2022-08-03T09:49:42Z</time>
      </trkpt>
      <trkpt lat="45.7063" lon="2.04327">
        <ele>765.9</ele>
        <time>2022-08-03T09:49:44Z</time>
      </trkpt>
      <trkpt lat="45.70632" lon="2.04333">
        <ele>766.3</ele>
        <time>2022-08-03T09:49:46Z</time>
      </trkpt>
      <trkpt lat="45.70634" lon="2.0434">
        <ele>766.6</ele>
        <time>2022-08-03T09:49:48Z</time>
      </trkpt>
      <trkpt lat="45.70636" lon="2.04346">
        <ele>766.8</ele>
        <time>2022-08-03T09:49:50Z</time>
      </trkpt>
      <trkpt lat="45.70638" lon="2.04353">
        <ele>767.1</ele>
        <time>2022-08-03T09:49:52Z</time>
      </trkpt>
      <trkpt lat="45.7064" lon="2.04359">
        <ele>767.3</ele>
        <time>2022-08-03T09:49:54Z</time>
      </trkpt>
      <trkpt lat="45.70642" lon="2.04366">
        <ele>767.6</ele>
        <time>2022-08-03T09:49:56Z</time>
      </trkpt>
      <trkpt lat="45.70643" lon="2.04373">
        <ele>767.8</ele>
        <time>2022-08-03T09:49:58Z</time>
      </trkpt>
      <trkpt lat="45.70646" lon="2.04379">
        <ele>768.1</ele>
        <time>2022-08-03T09:50:00Z</time>
      </trkpt>
      <trkpt lat="45.70648" lon="2.04386">
        <ele>768.4</ele>
        <time>2022-08-03T09:50:02Z</time>
      </trkpt>
      <trkpt lat="45.7065" lon="2.04393">
        <ele>768.6</ele>
        <time>2022-08-03T09:50:04Z</time>
      </trkpt>
      <trkpt lat="45.70652" lon="2.04399">
        <ele>768.9</ele>
        <time>2022-08-03T09:50:06Z</time>
      </trkpt>
      <trkpt lat="45.70654" lon="2.04405">
        <ele>769.1</ele>
        <time>2022-08-03T09:50:08Z</time>
      </trkpt>
      <trkpt lat="45.70656" lon="2.04412">
        <ele>769.4</ele>
        <time>2022-08-03T09:50:10Z</time>
      </trkpt>
      <trkpt lat="45.70658" lon="2.04419">
        <ele>769.6</ele>
        <time>2022-08-03T09:50:12Z</time>
      </trkpt>
      <trkpt lat="45.7066" lon="2.04425">
        <ele>769.8</ele>
        <time>2022-08-03T09:50:14Z</time>
      </trkpt>
      <trkpt lat="45.70662" lon="2.04431">
        <ele>770</ele>
        <time>2022-08-03T09:50:16Z</time>
      </trkpt>
      <trkpt lat="45.70664" lon="2.04437">
        <ele>770.2</ele>
        <time>2022-08-03T09:50:18Z</time>
      </trkpt>
      <trkpt lat="45.70667" lon="2.04443">
        <ele>770.3</ele>
        <time>2022-08-03T09:50:20Z</time>
      </trkpt>
      <trkpt lat="45.70668" lon="2.0445">
        <ele>770.4</ele>
        <time>2022-08-03T09:50:22Z</time>
      </trkpt>
      <trkpt lat="45.7067" lon="2.04456">
        <ele>770.5</ele>
        <time>2022-08-03T09:50:24Z</time>
      </trkpt>
      <trkpt lat="45.70672" lon="2.04462">
        <ele>770.6</ele>
        <time>2022-08-03T09:50:26Z</time>
      </trkpt>
      <trkpt lat="45.70674" lon="2.04468">
        <ele>770.7</ele>
        <time>2022-08-03T09:50:28Z</time>
      </trkpt>
      <trkpt lat="45.70676" lon="2.04474">
        <ele>770.7</ele>
        <time>2022-08-03T09:50:30Z</time>
      </trkpt>
      <trkpt lat="45.70678" lon="2.0448">
        <ele>770.8</ele>
        <time>2022-08-03T09:50:32Z</time>
      </trkpt>
      <trkpt lat="45.7068" lon="2.04485">
        <ele>770.8</ele>
        <time>2022-08-03T09:50:34Z</time>
      </trkpt>
      <trkpt lat="45.70682" lon="2.04492">
        <ele>770.8</ele>
        <time>2022-08-03T09:50:36Z</time>
      </trkpt>
      <trkpt lat="45.70684" lon="2.04497">
        <ele>770.8</ele>
        <time>2022-08-03T09:50:38Z</time>
      </trkpt>
      <trkpt lat="45.70685" lon="2.04503">
        <ele>770.9</ele>
        <time>2022-08-03T09:50:40Z</time>
      </trkpt>
      <trkpt lat="45.70687" lon="2.04508">
        <ele>771.1</ele>
        <time>2022-08-03T09:50:42Z</time>
      </trkpt>
      <trkpt lat="45.70689" lon="2.04514">
        <ele>771.2</ele>
        <time>2022-08-03T09:50:44Z</time>
      </trkpt>
      <trkpt lat="45.7069" lon="2.0452">
        <ele>771.4</ele>
        <time>2022-08-03T09:50:46Z</time>
      </trkpt>
      <trkpt lat="45.70692" lon="2.04526">
        <ele>771.6</ele>
        <time>2022-08-03T09:50:48Z</time>
      </trkpt>
      <trkpt lat="45.70693" lon="2.04532">
        <ele>771.7</ele>
        <time>2022-08-03T09:50:50Z</time>
      </trkpt>
      <trkpt lat="45.70694" lon="2.04538">
        <ele>771.9</ele>
        <time>2022-08-03T09:50:52Z</time>
      </trkpt>
      <trkpt lat="45.70695" lon="2.04544">
        <ele>772.1</ele>
        <time>2022-08-03T09:50:54Z</time>
      </trkpt>
      <trkpt lat="45.70695" lon="2.04551">
        <ele>772.3</ele>
        <time>2022-08-03T09:50:56Z</time>
      </trkpt>
      <trkpt lat="45.70695" lon="2.04557">
        <ele>772.5</ele>
        <time>2022-08-03T09:50:58Z</time>
      </trkpt>
      <trkpt lat="45.70695" lon="2.04563">
        <ele>772.6</ele>
        <time>2022-08-03T09:51:00Z</time>
      </trkpt>
      <trkpt lat="45.70694" lon="2.04568">
        <ele>772.9</ele>
        <time>2022-08-03T09:51:02Z</time>
      </trkpt>
      <trkpt lat="45.70693" lon="2.04574">
        <ele>773.1</ele>
        <time>2022-08-03T09:51:04Z</time>
      </trkpt>
      <trkpt lat="45.70692" lon="2.04579">
        <ele>773.3</ele>
        <time>2022-08-03T09:51:06Z</time>
      </trkpt>
      <trkpt lat="45.70691" lon="2.04584">
        <ele>773.6</ele>
        <time>2022-08-03T09:51:08Z</time>
      </trkpt>
      <trkpt lat="45.7069" lon="2.0459">
        <ele>773.8</ele>
        <time>2022-08-03T09:51:10Z</time>
      </trkpt>
      <trkpt lat="45.70688" lon="2.04595">
        <ele>774.1</ele>
        <time>2022-08-03T09:51:12Z</time>
      </trkpt>
      <trkpt lat="45.70687" lon="2.04601">
        <ele>774.3</ele>
        <time>2022-08-03T09:51:14Z</time>
      </trkpt>
      <trkpt lat="45.70685" lon="2.04606">
        <ele>774.5</ele>
        <time>2022-08-03T09:51:16Z</time>
      </trkpt>
      <trkpt lat="45.70684" lon="2.04611">
        <ele>774.7</ele>
        <time>2022-08-03T09:51:18Z</time>
      </trkpt>
      <trkpt lat="45.70683" lon="2.04616">
        <ele>774.9</ele>
        <time>2022-08-03T09:51:20Z</time>
      </trkpt>
      <trkpt lat="45.70681" lon="2.04621">
        <ele>775.1</ele>
        <time>2022-08-03T09:51:22Z</time>
      </trkpt>
      <trkpt lat="45.70679" lon="2.04626">
        <ele>775.2</ele>
        <time>2022-08-03T09:51:24Z</time>
      </trkpt>
      <trkpt lat="45.70678" lon="2.04631">
        <ele>775.4</ele>
        <time>2022-08-03T09:51:26Z</time>
      </trkpt>
      <trkpt lat="45.70676" lon="2.04637">
        <ele>775.5</ele>
        <time>2022-08-03T09:51:28Z</time>
      </trkpt>
      <trkpt lat="45.70675" lon="2.04643">
        <ele>775.6</ele>
        <time>2022-08-03T09:51:30Z</time>
      </trkpt>
      <trkpt lat="45.70674" lon="2.04648">
        <ele>775.8</ele>
        <time>2022-08-03T09:51:32Z</time>
      </trkpt>
      <trkpt lat="45.70673" lon="2.04654">
        <ele>775.9</ele>
        <time>2022-08-03T09:51:34Z</time>
      </trkpt>
      <trkpt lat="45.70672" lon="2.04659">
        <ele>775.9</ele>
        <time>2022-08-03T09:51:36Z</time>
      </trkpt>
      <trkpt lat="45.7067" lon="2.04665">
        <ele>776</ele>
        <time>2022-08-03T09:51:38Z</time>
      </trkpt>
      <trkpt lat="45.70669" lon="2.04671">
        <ele>776.2</ele>
        <time>2022-08-03T09:51:40Z</time>
      </trkpt>
      <trkpt lat="45.70667" lon="2.04676">
        <ele>776.4</ele>
        <time>2022-08-03T09:51:42Z</time>
      </trkpt>
      <trkpt lat="45.70666" lon="2.04682">
        <ele>776.5</ele>
        <time>2022-08-03T09:51:44Z</time>
      </trkpt>
      <trkpt lat="45.70664" lon="2.04687">
        <ele>776.7</ele>
        <time>2022-08-03T09:51:46Z</time>
      </trkpt>
      <trkpt lat="45.70663" lon="2.04693">
        <ele>776.9</ele>
        <time>2022-08-03T09:51:48Z</time>
      </trkpt>
      <trkpt lat="45.70662" lon="2.04697">
        <ele>777</ele>
        <time>2022-08-03T09:51:50Z</time>
      </trkpt>
      <trkpt lat="45.70661" lon="2.04702">
        <ele>777.2</ele>
        <time>2022-08-03T09:51:52Z</time>
      </trkpt>
      <trkpt lat="45.70659" lon="2.04707">
        <ele>777.3</ele>
        <time>2022-08-03T09:51:54Z</time>
      </trkpt>
      <trkpt lat="45.70658" lon="2.04712">
        <ele>777.4</ele>
        <time>2022-08-03T09:51:56Z</time>
      </trkpt>
      <trkpt lat="45.70657" lon="2.04716">
        <ele>777.5</ele>
        <time>2022-08-03T09:51:58Z</time>
      </trkpt>
      <trkpt lat="45.70655" lon="2.0472">
        <ele>777.6</ele>
        <time>2022-08-03T09:52:00Z</time>
      </trkpt>
      <trkpt lat="45.70655" lon="2.04722">
        <ele>777.7</ele>
        <time>2022-08-03T09:52:02Z</time>
      </trkpt>
      <trkpt lat="45.70655" lon="2.04722">
        <ele>777.6</ele>
        <time>2022-08-03T09:52:04Z</time>
      </trkpt>
      <trkpt lat="45.70655" lon="2.04722">
        <ele>777.7</ele>
        <time>2022-08-03T09:52:06Z</time>
      </trkpt>
      <trkpt lat="45.70655" lon="2.04722">
        <ele>777.7</ele>
        <time>2022-08-03T09:52:08Z</time>
      </trkpt>
      <trkpt lat="45.70654" lon="2.04723">
        <ele>777.7</ele>
        <time>2022-08-03T09:52:10Z</time>
      </trkpt>
      <trkpt lat="45.70648" lon="2.04745">
        <ele>778.2</ele>
        <time>2022-08-03T09:54:26Z</time>
      </trkpt>
      <trkpt lat="45.70647" lon="2.04751">
        <ele>778.3</ele>
        <time>2022-08-03T09:54:28Z</time>
      </trkpt>
      <trkpt lat="45.70646" lon="2.04757">
        <ele>778.7</ele>
        <time>2022-08-03T09:54:30Z</time>
      </trkpt>
      <trkpt lat="45.70645" lon="2.04762">
        <ele>779</ele>
        <time>2022-08-03T09:54:32Z</time>
      </trkpt>
      <trkpt lat="45.70643" lon="2.04768">
        <ele>779.3</ele>
        <time>2022-08-03T09:54:34Z</time>
      </trkpt>
      <trkpt lat="45.70641" lon="2.04774">
        <ele>779.6</ele>
        <time>2022-08-03T09:54:36Z</time>
      </trkpt>
      <trkpt lat="45.7064" lon="2.0478">
        <ele>779.9</ele>
        <time>2022-08-03T09:54:38Z</time>
      </trkpt>
      <trkpt lat="45.70639" lon="2.04786">
        <ele>780.1</ele>
        <time>2022-08-03T09:54:40Z</time>
      </trkpt>
      <trkpt lat="45.70637" lon="2.04791">
        <ele>780.4</ele>
        <time>2022-08-03T09:54:42Z</time>
      </trkpt>
      <trkpt lat="45.70635" lon="2.04797">
        <ele>780.6</ele>
        <time>2022-08-03T09:54:44Z</time>
      </trkpt>
      <trkpt lat="45.70634" lon="2.04803">
        <ele>780.9</ele>
        <time>2022-08-03T09:54:46Z</time>
      </trkpt>
      <trkpt lat="45.70632" lon="2.04809">
        <ele>781.2</ele>
        <time>2022-08-03T09:54:48Z</time>
      </trkpt>
      <trkpt lat="45.70631" lon="2.04815">
        <ele>781.4</ele>
        <time>2022-08-03T09:54:50Z</time>
      </trkpt>
      <trkpt lat="45.7063" lon="2.04822">
        <ele>781.7</ele>
        <time>2022-08-03T09:54:52Z</time>
      </trkpt>
      <trkpt lat="45.70628" lon="2.04828">
        <ele>782</ele>
        <time>2022-08-03T09:54:54Z</time>
      </trkpt>
      <trkpt lat="45.70626" lon="2.04834">
        <ele>782.2</ele>
        <time>2022-08-03T09:54:56Z</time>
      </trkpt>
      <trkpt lat="45.70624" lon="2.0484">
        <ele>782.6</ele>
        <time>2022-08-03T09:54:58Z</time>
      </trkpt>
      <trkpt lat="45.70623" lon="2.04847">
        <ele>783</ele>
        <time>2022-08-03T09:55:00Z</time>
      </trkpt>
      <trkpt lat="45.70621" lon="2.04856">
        <ele>783.6</ele>
        <time>2022-08-03T09:55:03Z</time>
      </trkpt>
      <trkpt lat="45.70619" lon="2.04862">
        <ele>784</ele>
        <time>2022-08-03T09:55:05Z</time>
      </trkpt>
      <trkpt lat="45.70618" lon="2.04868">
        <ele>784.4</ele>
        <time>2022-08-03T09:55:07Z</time>
      </trkpt>
      <trkpt lat="45.70616" lon="2.04873">
        <ele>784.7</ele>
        <time>2022-08-03T09:55:09Z</time>
      </trkpt>
      <trkpt lat="45.70614" lon="2.04879">
        <ele>785.1</ele>
        <time>2022-08-03T09:55:11Z</time>
      </trkpt>
      <trkpt lat="45.70613" lon="2.04885">
        <ele>785.4</ele>
        <time>2022-08-03T09:55:13Z</time>
      </trkpt>
      <trkpt lat="45.70611" lon="2.0489">
        <ele>785.8</ele>
        <time>2022-08-03T09:55:15Z</time>
      </trkpt>
      <trkpt lat="45.7061" lon="2.04896">
        <ele>786.2</ele>
        <time>2022-08-03T09:55:17Z</time>
      </trkpt>
      <trkpt lat="45.70608" lon="2.04902">
        <ele>786.6</ele>
        <time>2022-08-03T09:55:19Z</time>
      </trkpt>
      <trkpt lat="45.70607" lon="2.04908">
        <ele>787</ele>
        <time>2022-08-03T09:55:21Z</time>
      </trkpt>
      <trkpt lat="45.70606" lon="2.04913">
        <ele>787.3</ele>
        <time>2022-08-03T09:55:23Z</time>
      </trkpt>
      <trkpt lat="45.70605" lon="2.04919">
        <ele>787.7</ele>
        <time>2022-08-03T09:55:25Z</time>
      </trkpt>
      <trkpt lat="45.70603" lon="2.04925">
        <ele>788.1</ele>
        <time>2022-08-03T09:55:27Z</time>
      </trkpt>
      <trkpt lat="45.70602" lon="2.04931">
        <ele>788.4</ele>
        <time>2022-08-03T09:55:29Z</time>
      </trkpt>
      <trkpt lat="45.70601" lon="2.04936">
        <ele>788.7</ele>
        <time>2022-08-03T09:55:31Z</time>
      </trkpt>
      <trkpt lat="45.70599" lon="2.04942">
        <ele>789</ele>
        <time>2022-08-03T09:55:33Z</time>
      </trkpt>
      <trkpt lat="45.70597" lon="2.04948">
        <ele>789.3</ele>
        <time>2022-08-03T09:55:35Z</time>
      </trkpt>
      <trkpt lat="45.70596" lon="2.04953">
        <ele>789.5</ele>
        <time>2022-08-03T09:55:37Z</time>
      </trkpt>
      <trkpt lat="45.70594" lon="2.04958">
        <ele>789.6</ele>
        <time>2022-08-03T09:55:39Z</time>
      </trkpt>
      <trkpt lat="45.70592" lon="2.04964">
        <ele>789.8</ele>
        <time>2022-08-03T09:55:41Z</time>
      </trkpt>
      <trkpt lat="45.7059" lon="2.04969">
        <ele>789.9</ele>
        <time>2022-08-03T09:55:43Z</time>
      </trkpt>
      <trkpt lat="45.70588" lon="2.04974">
        <ele>790</ele>
        <time>2022-08-03T09:55:45Z</time>
      </trkpt>
      <trkpt lat="45.70586" lon="2.04979">
        <ele>790</ele>
        <time>2022-08-03T09:55:47Z</time>
      </trkpt>
      <trkpt lat="45.70583" lon="2.04983">
        <ele>790</ele>
        <time>2022-08-03T09:55:49Z</time>
      </trkpt>
      <trkpt lat="45.7058" lon="2.04988">
        <ele>789.9</ele>
        <time>2022-08-03T09:55:51Z</time>
      </trkpt>
      <trkpt lat="45.70578" lon="2.04992">
        <ele>789.9</ele>
        <time>2022-08-03T09:55:53Z</time>
      </trkpt>
      <trkpt lat="45.70575" lon="2.04997">
        <ele>789.8</ele>
        <time>2022-08-03T09:55:55Z</time>
      </trkpt>
      <trkpt lat="45.70573" lon="2.05002">
        <ele>790</ele>
        <time>2022-08-03T09:55:57Z</time>
      </trkpt>
      <trkpt lat="45.7057" lon="2.05007">
        <ele>790</ele>
        <time>2022-08-03T09:55:59Z</time>
      </trkpt>
      <trkpt lat="45.70568" lon="2.05011">
        <ele>790.1</ele>
        <time>2022-08-03T09:56:01Z</time>
      </trkpt>
      <trkpt lat="45.70566" lon="2.05016">
        <ele>790.3</ele>
        <time>2022-08-03T09:56:03Z</time>
      </trkpt>
      <trkpt lat="45.70563" lon="2.05021">
        <ele>790.4</ele>
        <time>2022-08-03T09:56:05Z</time>
      </trkpt>
      <trkpt lat="45.70561" lon="2.05026">
        <ele>790.6</ele>
        <time>2022-08-03T09:56:07Z</time>
      </trkpt>
      <trkpt lat="45.70558" lon="2.05031">
        <ele>790.7</ele>
        <time>2022-08-03T09:56:09Z</time>
      </trkpt>
      <trkpt lat="45.70556" lon="2.05035">
        <ele>790.8</ele>
        <time>2022-08-03T09:56:11Z</time>
      </trkpt>
      <trkpt lat="45.70553" lon="2.0504">
        <ele>790.9</ele>
        <time>2022-08-03T09:56:13Z</time>
      </trkpt>
      <trkpt lat="45.70552" lon="2.05042">
        <ele>790.9</ele>
        <time>2022-08-03T09:56:14Z</time>
      </trkpt>
      <trkpt lat="45.70549" lon="2.05047">
        <ele>791.1</ele>
        <time>2022-08-03T09:56:16Z</time>
      </trkpt>
      <trkpt lat="45.70546" lon="2.05052">
        <ele>791.2</ele>
        <time>2022-08-03T09:56:18Z</time>
      </trkpt>
      <trkpt lat="45.70543" lon="2.05057">
        <ele>791.3</ele>
        <time>2022-08-03T09:56:20Z</time>
      </trkpt>
      <trkpt lat="45.7054" lon="2.05061">
        <ele>791.4</ele>
        <time>2022-08-03T09:56:22Z</time>
      </trkpt>
      <trkpt lat="45.70538" lon="2.05067">
        <ele>791.6</ele>
        <time>2022-08-03T09:56:24Z</time>
      </trkpt>
      <trkpt lat="45.70535" lon="2.05071">
        <ele>791.7</ele>
        <time>2022-08-03T09:56:26Z</time>
      </trkpt>
      <trkpt lat="45.70533" lon="2.05076">
        <ele>791.9</ele>
        <time>2022-08-03T09:56:28Z</time>
      </trkpt>
      <trkpt lat="45.7053" lon="2.05081">
        <ele>792</ele>
        <time>2022-08-03T09:56:30Z</time>
      </trkpt>
      <trkpt lat="45.70528" lon="2.05086">
        <ele>792.2</ele>
        <time>2022-08-03T09:56:32Z</time>
      </trkpt>
      <trkpt lat="45.70525" lon="2.0509">
        <ele>792.4</ele>
        <time>2022-08-03T09:56:34Z</time>
      </trkpt>
      <trkpt lat="45.70522" lon="2.05094">
        <ele>792.5</ele>
        <time>2022-08-03T09:56:36Z</time>
      </trkpt>
      <trkpt lat="45.7052" lon="2.051">
        <ele>792.7</ele>
        <time>2022-08-03T09:56:38Z</time>
      </trkpt>
      <trkpt lat="45.70517" lon="2.05105">
        <ele>792.9</ele>
        <time>2022-08-03T09:56:40Z</time>
      </trkpt>
      <trkpt lat="45.70515" lon="2.0511">
        <ele>793.1</ele>
        <time>2022-08-03T09:56:42Z</time>
      </trkpt>
      <trkpt lat="45.70512" lon="2.05115">
        <ele>793.2</ele>
        <time>2022-08-03T09:56:44Z</time>
      </trkpt>
      <trkpt lat="45.7051" lon="2.0512">
        <ele>793.3</ele>
        <time>2022-08-03T09:56:46Z</time>
      </trkpt>
      <trkpt lat="45.70508" lon="2.05124">
        <ele>793.4</ele>
        <time>2022-08-03T09:56:48Z</time>
      </trkpt>
      <trkpt lat="45.70505" lon="2.05128">
        <ele>793.3</ele>
        <time>2022-08-03T09:56:50Z</time>
      </trkpt>
      <trkpt lat="45.70503" lon="2.05133">
        <ele>793.5</ele>
        <time>2022-08-03T09:56:52Z</time>
      </trkpt>
      <trkpt lat="45.705" lon="2.05137">
        <ele>793.5</ele>
        <time>2022-08-03T09:56:54Z</time>
      </trkpt>
      <trkpt lat="45.70497" lon="2.05142">
        <ele>793.4</ele>
        <time>2022-08-03T09:56:56Z</time>
      </trkpt>
      <trkpt lat="45.70494" lon="2.05146">
        <ele>793.3</ele>
        <time>2022-08-03T09:56:58Z</time>
      </trkpt>
      <trkpt lat="45.70492" lon="2.0515">
        <ele>793.3</ele>
        <time>2022-08-03T09:57:00Z</time>
      </trkpt>
      <trkpt lat="45.70489" lon="2.05155">
        <ele>793.2</ele>
        <time>2022-08-03T09:57:02Z</time>
      </trkpt>
      <trkpt lat="45.70487" lon="2.05159">
        <ele>793.2</ele>
        <time>2022-08-03T09:57:04Z</time>
      </trkpt>
      <trkpt lat="45.70486" lon="2.05162">
        <ele>793.2</ele>
        <time>2022-08-03T09:57:06Z</time>
      </trkpt>
      <trkpt lat="45.70485" lon="2.05163">
        <ele>793.1</ele>
        <time>2022-08-03T09:57:08Z</time>
      </trkpt>
      <trkpt lat="45.7048" lon="2.05171">
        <ele>793.2</ele>
        <time>2022-08-03T09:57:10Z</time>
      </trkpt>
      <trkpt lat="45.70476" lon="2.05176">
        <ele>793.4</ele>
        <time>2022-08-03T09:57:12Z</time>
      </trkpt>
      <trkpt lat="45.70474" lon="2.05183">
        <ele>793.8</ele>
        <time>2022-08-03T09:57:14Z</time>
      </trkpt>
      <trkpt lat="45.70471" lon="2.05188">
        <ele>794.1</ele>
        <time>2022-08-03T09:57:16Z</time>
      </trkpt>
      <trkpt lat="45.70469" lon="2.05193">
        <ele>794.4</ele>
        <time>2022-08-03T09:57:18Z</time>
      </trkpt>
      <trkpt lat="45.70466" lon="2.05198">
        <ele>794.7</ele>
        <time>2022-08-03T09:57:20Z</time>
      </trkpt>
      <trkpt lat="45.70463" lon="2.05204">
        <ele>795</ele>
        <time>2022-08-03T09:57:22Z</time>
      </trkpt>
      <trkpt lat="45.7046" lon="2.05208">
        <ele>795.2</ele>
        <time>2022-08-03T09:57:24Z</time>
      </trkpt>
      <trkpt lat="45.70457" lon="2.05214">
        <ele>795.6</ele>
        <time>2022-08-03T09:57:26Z</time>
      </trkpt>
      <trkpt lat="45.70455" lon="2.05218">
        <ele>796</ele>
        <time>2022-08-03T09:57:28Z</time>
      </trkpt>
      <trkpt lat="45.70453" lon="2.05223">
        <ele>796.4</ele>
        <time>2022-08-03T09:57:30Z</time>
      </trkpt>
      <trkpt lat="45.7045" lon="2.05229">
        <ele>796.9</ele>
        <time>2022-08-03T09:57:32Z</time>
      </trkpt>
      <trkpt lat="45.70447" lon="2.05234">
        <ele>797.3</ele>
        <time>2022-08-03T09:57:34Z</time>
      </trkpt>
      <trkpt lat="45.70445" lon="2.05239">
        <ele>797.8</ele>
        <time>2022-08-03T09:57:36Z</time>
      </trkpt>
      <trkpt lat="45.70442" lon="2.05245">
        <ele>798.2</ele>
        <time>2022-08-03T09:57:38Z</time>
      </trkpt>
      <trkpt lat="45.7044" lon="2.0525">
        <ele>798.9</ele>
        <time>2022-08-03T09:57:40Z</time>
      </trkpt>
      <trkpt lat="45.70438" lon="2.05256">
        <ele>799.3</ele>
        <time>2022-08-03T09:57:42Z</time>
      </trkpt>
      <trkpt lat="45.70436" lon="2.05261">
        <ele>799.7</ele>
        <time>2022-08-03T09:57:44Z</time>
      </trkpt>
      <trkpt lat="45.70434" lon="2.05266">
        <ele>800</ele>
        <time>2022-08-03T09:57:46Z</time>
      </trkpt>
      <trkpt lat="45.70432" lon="2.05271">
        <ele>800.6</ele>
        <time>2022-08-03T09:57:48Z</time>
      </trkpt>
      <trkpt lat="45.70431" lon="2.05277">
        <ele>801.1</ele>
        <time>2022-08-03T09:57:50Z</time>
      </trkpt>
      <trkpt lat="45.70429" lon="2.05282">
        <ele>801.5</ele>
        <time>2022-08-03T09:57:52Z</time>
      </trkpt>
      <trkpt lat="45.70427" lon="2.05286">
        <ele>801.9</ele>
        <time>2022-08-03T09:57:54Z</time>
      </trkpt>
      <trkpt lat="45.70426" lon="2.05292">
        <ele>802.6</ele>
        <time>2022-08-03T09:57:56Z</time>
      </trkpt>
      <trkpt lat="45.70423" lon="2.05298">
        <ele>803.1</ele>
        <time>2022-08-03T09:57:58Z</time>
      </trkpt>
      <trkpt lat="45.70421" lon="2.05304">
        <ele>803.6</ele>
        <time>2022-08-03T09:58:00Z</time>
      </trkpt>
      <trkpt lat="45.70419" lon="2.05311">
        <ele>804.2</ele>
        <time>2022-08-03T09:58:02Z</time>
      </trkpt>
      <trkpt lat="45.70416" lon="2.05317">
        <ele>804.7</ele>
        <time>2022-08-03T09:58:04Z</time>
      </trkpt>
      <trkpt lat="45.70414" lon="2.05322">
        <ele>805.2</ele>
        <time>2022-08-03T09:58:06Z</time>
      </trkpt>
      <trkpt lat="45.70412" lon="2.05327">
        <ele>805.4</ele>
        <time>2022-08-03T09:58:08Z</time>
      </trkpt>
      <trkpt lat="45.70409" lon="2.05333">
        <ele>805.9</ele>
        <time>2022-08-03T09:58:10Z</time>
      </trkpt>
      <trkpt lat="45.70407" lon="2.05339">
        <ele>806</ele>
        <time>2022-08-03T09:58:12Z</time>
      </trkpt>
      <trkpt lat="45.70405" lon="2.05345">
        <ele>806</ele>
        <time>2022-08-03T09:58:14Z</time>
      </trkpt>
      <trkpt lat="45.70402" lon="2.0535">
        <ele>806.1</ele>
        <time>2022-08-03T09:58:16Z</time>
      </trkpt>
      <trkpt lat="45.704" lon="2.05356">
        <ele>806.1</ele>
        <time>2022-08-03T09:58:18Z</time>
      </trkpt>
      <trkpt lat="45.70398" lon="2.05363">
        <ele>806.3</ele>
        <time>2022-08-03T09:58:20Z</time>
      </trkpt>
      <trkpt lat="45.70396" lon="2.05368">
        <ele>806.3</ele>
        <time>2022-08-03T09:58:22Z</time>
      </trkpt>
      <trkpt lat="45.70393" lon="2.05373">
        <ele>806.3</ele>
        <time>2022-08-03T09:58:24Z</time>
      </trkpt>
      <trkpt lat="45.70392" lon="2.05379">
        <ele>806.4</ele>
        <time>2022-08-03T09:58:26Z</time>
      </trkpt>
      <trkpt lat="45.7039" lon="2.05386">
        <ele>806.5</ele>
        <time>2022-08-03T09:58:28Z</time>
      </trkpt>
      <trkpt lat="45.70387" lon="2.05391">
        <ele>806.4</ele>
        <time>2022-08-03T09:58:30Z</time>
      </trkpt>
      <trkpt lat="45.70384" lon="2.05398">
        <ele>806.3</ele>
        <time>2022-08-03T09:58:32Z</time>
      </trkpt>
      <trkpt lat="45.70382" lon="2.05405">
        <ele>806.4</ele>
        <time>2022-08-03T09:58:34Z</time>
      </trkpt>
      <trkpt lat="45.7038" lon="2.05412">
        <ele>806.6</ele>
        <time>2022-08-03T09:58:36Z</time>
      </trkpt>
      <trkpt lat="45.70377" lon="2.05418">
        <ele>806.4</ele>
        <time>2022-08-03T09:58:38Z</time>
      </trkpt>
      <trkpt lat="45.70376" lon="2.05425">
        <ele>806.4</ele>
        <time>2022-08-03T09:58:40Z</time>
      </trkpt>
      <trkpt lat="45.70375" lon="2.05433">
        <ele>806.6</ele>
        <time>2022-08-03T09:58:42Z</time>
      </trkpt>
      <trkpt lat="45.70375" lon="2.05442">
        <ele>806.8</ele>
        <time>2022-08-03T09:58:44Z</time>
      </trkpt>
      <trkpt lat="45.70374" lon="2.05451">
        <ele>806.9</ele>
        <time>2022-08-03T09:58:46Z</time>
      </trkpt>
      <trkpt lat="45.70375" lon="2.05458">
        <ele>807.2</ele>
        <time>2022-08-03T09:58:48Z</time>
      </trkpt>
      <trkpt lat="45.70376" lon="2.05464">
        <ele>807.5</ele>
        <time>2022-08-03T09:58:50Z</time>
      </trkpt>
      <trkpt lat="45.70374" lon="2.05474">
        <ele>807.7</ele>
        <time>2022-08-03T09:58:52Z</time>
      </trkpt>
      <trkpt lat="45.70375" lon="2.05482">
        <ele>808</ele>
        <time>2022-08-03T09:58:54Z</time>
      </trkpt>
      <trkpt lat="45.70374" lon="2.0549">
        <ele>808.1</ele>
        <time>2022-08-03T09:58:56Z</time>
      </trkpt>
      <trkpt lat="45.70375" lon="2.05499">
        <ele>808.4</ele>
        <time>2022-08-03T09:58:58Z</time>
      </trkpt>
      <trkpt lat="45.70378" lon="2.05506">
        <ele>809.1</ele>
        <time>2022-08-03T09:59:00Z</time>
      </trkpt>
      <trkpt lat="45.7038" lon="2.05507">
        <ele>809.4</ele>
        <time>2022-08-03T09:59:02Z</time>
      </trkpt>
      <trkpt lat="45.70384" lon="2.05507">
        <ele>809.9</ele>
        <time>2022-08-03T09:59:04Z</time>
      </trkpt>
      <trkpt lat="45.70388" lon="2.05505">
        <ele>810.1</ele>
        <time>2022-08-03T09:59:06Z</time>
      </trkpt>
      <trkpt lat="45.70392" lon="2.05498">
        <ele>810.3</ele>
        <time>2022-08-03T09:59:08Z</time>
      </trkpt>
      <trkpt lat="45.70394" lon="2.05492">
        <ele>810.5</ele>
        <time>2022-08-03T09:59:10Z</time>
      </trkpt>
      <trkpt lat="45.70396" lon="2.05488">
        <ele>810.6</ele>
        <time>2022-08-03T09:59:12Z</time>
      </trkpt>
      <trkpt lat="45.704" lon="2.05481">
        <ele>811</ele>
        <time>2022-08-03T09:59:14Z</time>
      </trkpt>
      <trkpt lat="45.70403" lon="2.05472">
        <ele>811.2</ele>
        <time>2022-08-03T09:59:16Z</time>
      </trkpt>
      <trkpt lat="45.70407" lon="2.05462">
        <ele>811.7</ele>
        <time>2022-08-03T09:59:18Z</time>
      </trkpt>
      <trkpt lat="45.70414" lon="2.05458">
        <ele>812.7</ele>
        <time>2022-08-03T09:59:20Z</time>
      </trkpt>
      <trkpt lat="45.7042" lon="2.05452">
        <ele>813.3</ele>
        <time>2022-08-03T09:59:22Z</time>
      </trkpt>
      <trkpt lat="45.70421" lon="2.05444">
        <ele>813.4</ele>
        <time>2022-08-03T09:59:24Z</time>
      </trkpt>
      <trkpt lat="45.70426" lon="2.05437">
        <ele>813.8</ele>
        <time>2022-08-03T09:59:26Z</time>
      </trkpt>
      <trkpt lat="45.7043" lon="2.05432">
        <ele>814.1</ele>
        <time>2022-08-03T09:59:28Z</time>
      </trkpt>
      <trkpt lat="45.70432" lon="2.05428">
        <ele>814.3</ele>
        <time>2022-08-03T09:59:30Z</time>
      </trkpt>
      <trkpt lat="45.70434" lon="2.05423">
        <ele>814.4</ele>
        <time>2022-08-03T09:59:32Z</time>
      </trkpt>
      <trkpt lat="45.70437" lon="2.05418">
        <ele>814.5</ele>
        <time>2022-08-03T09:59:34Z</time>
      </trkpt>
      <trkpt lat="45.70438" lon="2.05414">
        <ele>814.4</ele>
        <time>2022-08-03T09:59:36Z</time>
      </trkpt>
      <trkpt lat="45.70438" lon="2.05411">
        <ele>814.2</ele>
        <time>2022-08-03T09:59:38Z</time>
      </trkpt>
      <trkpt lat="45.70437" lon="2.05408">
        <ele>813.9</ele>
        <time>2022-08-03T09:59:40Z</time>
      </trkpt>
      <trkpt lat="45.70434" lon="2.05407">
        <ele>813.6</ele>
        <time>2022-08-03T09:59:42Z</time>
      </trkpt>
      <trkpt lat="45.70432" lon="2.05405">
        <ele>813.3</ele>
        <time>2022-08-03T09:59:44Z</time>
      </trkpt>
      <trkpt lat="45.70429" lon="2.05405">
        <ele>813.1</ele>
        <time>2022-08-03T09:59:46Z</time>
      </trkpt>
      <trkpt lat="45.70429" lon="2.05403">
        <ele>813</ele>
        <time>2022-08-03T09:59:48Z</time>
      </trkpt>
      <trkpt lat="45.70429" lon="2.05404">
        <ele>813</ele>
        <time>2022-08-03T09:59:50Z</time>
      </trkpt>
      <trkpt lat="45.70429" lon="2.05404">
        <ele>813</ele>
        <time>2022-08-03T09:59:52Z</time>
      </trkpt>
      <trkpt lat="45.70429" lon="2.05405">
        <ele>813.1</ele>
        <time>2022-08-03T09:59:54Z</time>
      </trkpt>
      <trkpt lat="45.70429" lon="2.05403">
        <ele>813</ele>
        <time>2022-08-03T09:59:56Z</time>
      </trkpt>
      <trkpt lat="45.70428" lon="2.05431">
        <ele>814</ele>
        <time>2022-08-03T10:18:38Z</time>
      </trkpt>
      <trkpt lat="45.70425" lon="2.05437">
        <ele>813.7</ele>
        <time>2022-08-03T10:18:40Z</time>
      </trkpt>
      <trkpt lat="45.70421" lon="2.05442">
        <ele>813.4</ele>
        <time>2022-08-03T10:18:42Z</time>
      </trkpt>
      <trkpt lat="45.70417" lon="2.05449">
        <ele>813</ele>
        <time>2022-08-03T10:18:44Z</time>
      </trkpt>
      <trkpt lat="45.70412" lon="2.05456">
        <ele>812.4</ele>
        <time>2022-08-03T10:18:46Z</time>
      </trkpt>
      <trkpt lat="45.70408" lon="2.05461">
        <ele>811.8</ele>
        <time>2022-08-03T10:18:48Z</time>
      </trkpt>
      <trkpt lat="45.70404" lon="2.05466">
        <ele>811.3</ele>
        <time>2022-08-03T10:18:50Z</time>
      </trkpt>
      <trkpt lat="45.704" lon="2.05474">
        <ele>810.9</ele>
        <time>2022-08-03T10:18:52Z</time>
      </trkpt>
      <trkpt lat="45.70399" lon="2.05482">
        <ele>810.9</ele>
        <time>2022-08-03T10:18:54Z</time>
      </trkpt>
      <trkpt lat="45.70398" lon="2.05489">
        <ele>810.8</ele>
        <time>2022-08-03T10:18:56Z</time>
      </trkpt>
      <trkpt lat="45.70395" lon="2.05494">
        <ele>810.5</ele>
        <time>2022-08-03T10:18:58Z</time>
      </trkpt>
      <trkpt lat="45.70393" lon="2.055">
        <ele>810.5</ele>
        <time>2022-08-03T10:19:00Z</time>
      </trkpt>
      <trkpt lat="45.7039" lon="2.05505">
        <ele>810.4</ele>
        <time>2022-08-03T10:19:02Z</time>
      </trkpt>
      <trkpt lat="45.70387" lon="2.05509">
        <ele>810.2</ele>
        <time>2022-08-03T10:19:04Z</time>
      </trkpt>
      <trkpt lat="45.70385" lon="2.05511">
        <ele>810.1</ele>
        <time>2022-08-03T10:19:06Z</time>
      </trkpt>
      <trkpt lat="45.70383" lon="2.05509">
        <ele>809.8</ele>
        <time>2022-08-03T10:19:08Z</time>
      </trkpt>
      <trkpt lat="45.70381" lon="2.05508">
        <ele>809.6</ele>
        <time>2022-08-03T10:19:10Z</time>
      </trkpt>
      <trkpt lat="45.70381" lon="2.05509">
        <ele>809.5</ele>
        <time>2022-08-03T10:19:12Z</time>
      </trkpt>
      <trkpt lat="45.7038" lon="2.05509">
        <ele>809.5</ele>
        <time>2022-08-03T10:19:14Z</time>
      </trkpt>
      <trkpt lat="45.70374" lon="2.05493">
        <ele>808.2</ele>
        <time>2022-08-03T10:23:12Z</time>
      </trkpt>
      <trkpt lat="45.70375" lon="2.05485">
        <ele>808.1</ele>
        <time>2022-08-03T10:23:14Z</time>
      </trkpt>
      <trkpt lat="45.70374" lon="2.0548">
        <ele>807.8</ele>
        <time>2022-08-03T10:23:16Z</time>
      </trkpt>
      <trkpt lat="45.70373" lon="2.05476">
        <ele>807.5</ele>
        <time>2022-08-03T10:23:18Z</time>
      </trkpt>
      <trkpt lat="45.7037" lon="2.05473">
        <ele>807.1</ele>
        <time>2022-08-03T10:23:20Z</time>
      </trkpt>
      <trkpt lat="45.70365" lon="2.05469">
        <ele>806.3</ele>
        <time>2022-08-03T10:23:22Z</time>
      </trkpt>
      <trkpt lat="45.70359" lon="2.05465">
        <ele>805.3</ele>
        <time>2022-08-03T10:23:24Z</time>
      </trkpt>
      <trkpt lat="45.70355" lon="2.05457">
        <ele>804.4</ele>
        <time>2022-08-03T10:23:26Z</time>
      </trkpt>
      <trkpt lat="45.7035" lon="2.0545">
        <ele>803.5</ele>
        <time>2022-08-03T10:23:28Z</time>
      </trkpt>
      <trkpt lat="45.70346" lon="2.05444">
        <ele>802.6</ele>
        <time>2022-08-03T10:23:30Z</time>
      </trkpt>
      <trkpt lat="45.70342" lon="2.05438">
        <ele>801.7</ele>
        <time>2022-08-03T10:23:32Z</time>
      </trkpt>
      <trkpt lat="45.7034" lon="2.05435">
        <ele>801.2</ele>
        <time>2022-08-03T10:23:34Z</time>
      </trkpt>
      <trkpt lat="45.70338" lon="2.05432">
        <ele>800.6</ele>
        <time>2022-08-03T10:23:36Z</time>
      </trkpt>
      <trkpt lat="45.70335" lon="2.0543">
        <ele>800.1</ele>
        <time>2022-08-03T10:23:38Z</time>
      </trkpt>
      <trkpt lat="45.70332" lon="2.05429">
        <ele>799.7</ele>
        <time>2022-08-03T10:23:40Z</time>
      </trkpt>
      <trkpt lat="45.70332" lon="2.05428">
        <ele>799.7</ele>
        <time>2022-08-03T10:23:42Z</time>
      </trkpt>
      <trkpt lat="45.70333" lon="2.05428">
        <ele>799.7</ele>
        <time>2022-08-03T10:23:44Z</time>
      </trkpt>
      <trkpt lat="45.70333" lon="2.05428">
        <ele>799.7</ele>
        <time>2022-08-03T10:23:46Z</time>
      </trkpt>
      <trkpt lat="45.70333" lon="2.05428">
        <ele>799.7</ele>
        <time>2022-08-03T10:23:48Z</time>
      </trkpt>
      <trkpt lat="45.70333" lon="2.05428">
        <ele>799.7</ele>
        <time>2022-08-03T10:23:50Z</time>
      </trkpt>
      <trkpt lat="45.70314" lon="2.05396">
        <ele>797.5</ele>
        <time>2022-08-03T10:24:14Z</time>
      </trkpt>
      <trkpt lat="45.70305" lon="2.05378">
        <ele>796</ele>
        <time>2022-08-03T10:24:16Z</time>
      </trkpt>
      <trkpt lat="45.70294" lon="2.05358">
        <ele>794</ele>
        <time>2022-08-03T10:24:18Z</time>
      </trkpt>
      <trkpt lat="45.70284" lon="2.05339">
        <ele>791.9</ele>
        <time>2022-08-03T10:24:20Z</time>
      </trkpt>
      <trkpt lat="45.70275" lon="2.0532">
        <ele>789.2</ele>
        <time>2022-08-03T10:24:22Z</time>
      </trkpt>
      <trkpt lat="45.70267" lon="2.05304">
        <ele>786.9</ele>
        <time>2022-08-03T10:24:24Z</time>
      </trkpt>
      <trkpt lat="45.70261" lon="2.05294">
        <ele>785.4</ele>
        <time>2022-08-03T10:24:26Z</time>
      </trkpt>
      <trkpt lat="45.70256" lon="2.05285">
        <ele>784.1</ele>
        <time>2022-08-03T10:24:28Z</time>
      </trkpt>
      <trkpt lat="45.70254" lon="2.0528">
        <ele>783.4</ele>
        <time>2022-08-03T10:24:30Z</time>
      </trkpt>
      <trkpt lat="45.70252" lon="2.05276">
        <ele>782.8</ele>
        <time>2022-08-03T10:24:32Z</time>
      </trkpt>
      <trkpt lat="45.7025" lon="2.05271">
        <ele>782.2</ele>
        <time>2022-08-03T10:24:34Z</time>
      </trkpt>
      <trkpt lat="45.70245" lon="2.05266">
        <ele>781.8</ele>
        <time>2022-08-03T10:24:36Z</time>
      </trkpt>
      <trkpt lat="45.70239" lon="2.05261">
        <ele>781.5</ele>
        <time>2022-08-03T10:24:38Z</time>
      </trkpt>
      <trkpt lat="45.7023" lon="2.05256">
        <ele>781.1</ele>
        <time>2022-08-03T10:24:40Z</time>
      </trkpt>
      <trkpt lat="45.70219" lon="2.0525">
        <ele>780.7</ele>
        <time>2022-08-03T10:24:42Z</time>
      </trkpt>
      <trkpt lat="45.70206" lon="2.05242">
        <ele>780.4</ele>
        <time>2022-08-03T10:24:44Z</time>
      </trkpt>
      <trkpt lat="45.70192" lon="2.05232">
        <ele>779.9</ele>
        <time>2022-08-03T10:24:46Z</time>
      </trkpt>
      <trkpt lat="45.70177" lon="2.05222">
        <ele>779.4</ele>
        <time>2022-08-03T10:24:48Z</time>
      </trkpt>
      <trkpt lat="45.70163" lon="2.0521">
        <ele>778.3</ele>
        <time>2022-08-03T10:24:50Z</time>
      </trkpt>
      <trkpt lat="45.70151" lon="2.05195">
        <ele>775.8</ele>
        <time>2022-08-03T10:24:52Z</time>
      </trkpt>
      <trkpt lat="45.70142" lon="2.05179">
        <ele>773.4</ele>
        <time>2022-08-03T10:24:54Z</time>
      </trkpt>
      <trkpt lat="45.70136" lon="2.05158">
        <ele>771.2</ele>
        <time>2022-08-03T10:24:56Z</time>
      </trkpt>
      <trkpt lat="45.70139" lon="2.05132">
        <ele>770.1</ele>
        <time>2022-08-03T10:24:58Z</time>
      </trkpt>
      <trkpt lat="45.70144" lon="2.05107">
        <ele>769</ele>
        <time>2022-08-03T10:25:00Z</time>
      </trkpt>
      <trkpt lat="45.70149" lon="2.05084">
        <ele>768</ele>
        <time>2022-08-03T10:25:02Z</time>
      </trkpt>
      <trkpt lat="45.70153" lon="2.0506">
        <ele>767.4</ele>
        <time>2022-08-03T10:25:04Z</time>
      </trkpt>
      <trkpt lat="45.70155" lon="2.05037">
        <ele>766.8</ele>
        <time>2022-08-03T10:25:06Z</time>
      </trkpt>
      <trkpt lat="45.70157" lon="2.05015">
        <ele>766.2</ele>
        <time>2022-08-03T10:25:08Z</time>
      </trkpt>
      <trkpt lat="45.70159" lon="2.04997">
        <ele>765.6</ele>
        <time>2022-08-03T10:25:10Z</time>
      </trkpt>
      <trkpt lat="45.70159" lon="2.04983">
        <ele>765.3</ele>
        <time>2022-08-03T10:25:12Z</time>
      </trkpt>
      <trkpt lat="45.70159" lon="2.04972">
        <ele>765</ele>
        <time>2022-08-03T10:25:14Z</time>
      </trkpt>
      <trkpt lat="45.70153" lon="2.04964">
        <ele>764.7</ele>
        <time>2022-08-03T10:25:16Z</time>
      </trkpt>
      <trkpt lat="45.70144" lon="2.04966">
        <ele>764.4</ele>
        <time>2022-08-03T10:25:18Z</time>
      </trkpt>
      <trkpt lat="45.70137" lon="2.04971">
        <ele>764.2</ele>
        <time>2022-08-03T10:25:20Z</time>
      </trkpt>
      <trkpt lat="45.7013" lon="2.04974">
        <ele>764.1</ele>
        <time>2022-08-03T10:25:22Z</time>
      </trkpt>
      <trkpt lat="45.70123" lon="2.04977">
        <ele>763.9</ele>
        <time>2022-08-03T10:25:24Z</time>
      </trkpt>
      <trkpt lat="45.70116" lon="2.04979">
        <ele>763.7</ele>
        <time>2022-08-03T10:25:26Z</time>
      </trkpt>
      <trkpt lat="45.70108" lon="2.04981">
        <ele>763.4</ele>
        <time>2022-08-03T10:25:28Z</time>
      </trkpt>
      <trkpt lat="45.701" lon="2.04982">
        <ele>763.2</ele>
        <time>2022-08-03T10:25:30Z</time>
      </trkpt>
      <trkpt lat="45.70092" lon="2.04984">
        <ele>762.9</ele>
        <time>2022-08-03T10:25:32Z</time>
      </trkpt>
      <trkpt lat="45.70084" lon="2.04984">
        <ele>762.6</ele>
        <time>2022-08-03T10:25:34Z</time>
      </trkpt>
      <trkpt lat="45.70078" lon="2.04987">
        <ele>763</ele>
        <time>2022-08-03T10:25:36Z</time>
      </trkpt>
      <trkpt lat="45.70072" lon="2.04988">
        <ele>763.4</ele>
        <time>2022-08-03T10:25:38Z</time>
      </trkpt>
      <trkpt lat="45.70065" lon="2.04987">
        <ele>763.9</ele>
        <time>2022-08-03T10:25:40Z</time>
      </trkpt>
      <trkpt lat="45.70057" lon="2.04986">
        <ele>764.4</ele>
        <time>2022-08-03T10:25:42Z</time>
      </trkpt>
      <trkpt lat="45.70051" lon="2.04985">
        <ele>764.8</ele>
        <time>2022-08-03T10:25:44Z</time>
      </trkpt>
      <trkpt lat="45.70044" lon="2.04982">
        <ele>765.2</ele>
        <time>2022-08-03T10:25:46Z</time>
      </trkpt>
      <trkpt lat="45.70037" lon="2.0498">
        <ele>765.7</ele>
        <time>2022-08-03T10:25:48Z</time>
      </trkpt>
      <trkpt lat="45.70031" lon="2.04977">
        <ele>766.1</ele>
        <time>2022-08-03T10:25:50Z</time>
      </trkpt>
      <trkpt lat="45.70024" lon="2.04973">
        <ele>766.6</ele>
        <time>2022-08-03T10:25:52Z</time>
      </trkpt>
      <trkpt lat="45.70018" lon="2.04967">
        <ele>767.1</ele>
        <time>2022-08-03T10:25:54Z</time>
      </trkpt>
      <trkpt lat="45.70012" lon="2.0496">
        <ele>767.6</ele>
        <time>2022-08-03T10:25:56Z</time>
      </trkpt>
      <trkpt lat="45.70006" lon="2.04953">
        <ele>768.1</ele>
        <time>2022-08-03T10:25:58Z</time>
      </trkpt>
      <trkpt lat="45.70001" lon="2.04944">
        <ele>768.6</ele>
        <time>2022-08-03T10:26:00Z</time>
      </trkpt>
      <trkpt lat="45.69997" lon="2.04935">
        <ele>769.7</ele>
        <time>2022-08-03T10:26:02Z</time>
      </trkpt>
      <trkpt lat="45.69993" lon="2.04924">
        <ele>770.8</ele>
        <time>2022-08-03T10:26:04Z</time>
      </trkpt>
      <trkpt lat="45.69989" lon="2.04914">
        <ele>771.9</ele>
        <time>2022-08-03T10:26:06Z</time>
      </trkpt>
      <trkpt lat="45.69986" lon="2.04904">
        <ele>772.1</ele>
        <time>2022-08-03T10:26:08Z</time>
      </trkpt>
      <trkpt lat="45.69983" lon="2.04892">
        <ele>772.4</ele>
        <time>2022-08-03T10:26:10Z</time>
      </trkpt>
      <trkpt lat="45.69981" lon="2.04883">
        <ele>772.5</ele>
        <time>2022-08-03T10:26:12Z</time>
      </trkpt>
      <trkpt lat="45.69978" lon="2.04874">
        <ele>772.5</ele>
        <time>2022-08-03T10:26:14Z</time>
      </trkpt>
      <trkpt lat="45.69976" lon="2.04865">
        <ele>772.5</ele>
        <time>2022-08-03T10:26:16Z</time>
      </trkpt>
      <trkpt lat="45.69974" lon="2.04858">
        <ele>772.6</ele>
        <time>2022-08-03T10:26:18Z</time>
      </trkpt>
      <trkpt lat="45.69971" lon="2.04851">
        <ele>772.8</ele>
        <time>2022-08-03T10:26:20Z</time>
      </trkpt>
      <trkpt lat="45.69968" lon="2.04845">
        <ele>773</ele>
        <time>2022-08-03T10:26:22Z</time>
      </trkpt>
      <trkpt lat="45.69965" lon="2.04838">
        <ele>773.1</ele>
        <time>2022-08-03T10:26:24Z</time>
      </trkpt>
      <trkpt lat="45.6996" lon="2.04831">
        <ele>773.4</ele>
        <time>2022-08-03T10:26:26Z</time>
      </trkpt>
      <trkpt lat="45.69956" lon="2.04823">
        <ele>773.1</ele>
        <time>2022-08-03T10:26:28Z</time>
      </trkpt>
      <trkpt lat="45.69951" lon="2.04816">
        <ele>773</ele>
        <time>2022-08-03T10:26:30Z</time>
      </trkpt>
      <trkpt lat="45.69945" lon="2.04809">
        <ele>772.9</ele>
        <time>2022-08-03T10:26:32Z</time>
      </trkpt>
      <trkpt lat="45.69939" lon="2.04802">
        <ele>772.7</ele>
        <time>2022-08-03T10:26:34Z</time>
      </trkpt>
      <trkpt lat="45.69933" lon="2.04796">
        <ele>772.5</ele>
        <time>2022-08-03T10:26:36Z</time>
      </trkpt>
      <trkpt lat="45.69927" lon="2.0479">
        <ele>772.4</ele>
        <time>2022-08-03T10:26:38Z</time>
      </trkpt>
      <trkpt lat="45.69921" lon="2.04784">
        <ele>772.1</ele>
        <time>2022-08-03T10:26:40Z</time>
      </trkpt>
      <trkpt lat="45.69914" lon="2.0478">
        <ele>772.1</ele>
        <time>2022-08-03T10:26:42Z</time>
      </trkpt>
      <trkpt lat="45.69908" lon="2.04776">
        <ele>771.9</ele>
        <time>2022-08-03T10:26:44Z</time>
      </trkpt>
      <trkpt lat="45.69901" lon="2.04771">
        <ele>771.6</ele>
        <time>2022-08-03T10:26:46Z</time>
      </trkpt>
      <trkpt lat="45.69896" lon="2.04767">
        <ele>771.6</ele>
        <time>2022-08-03T10:26:48Z</time>
      </trkpt>
      <trkpt lat="45.69889" lon="2.04763">
        <ele>771.7</ele>
        <time>2022-08-03T10:26:50Z</time>
      </trkpt>
      <trkpt lat="45.69881" lon="2.0476">
        <ele>772.1</ele>
        <time>2022-08-03T10:26:52Z</time>
      </trkpt>
      <trkpt lat="45.69874" lon="2.04757">
        <ele>772.4</ele>
        <time>2022-08-03T10:26:54Z</time>
      </trkpt>
      <trkpt lat="45.69868" lon="2.04752">
        <ele>772.2</ele>
        <time>2022-08-03T10:26:56Z</time>
      </trkpt>
      <trkpt lat="45.69864" lon="2.04748">
        <ele>772.2</ele>
        <time>2022-08-03T10:26:58Z</time>
      </trkpt>
      <trkpt lat="45.69859" lon="2.04746">
        <ele>772.6</ele>
        <time>2022-08-03T10:27:00Z</time>
      </trkpt>
      <trkpt lat="45.69853" lon="2.04742">
        <ele>773</ele>
        <time>2022-08-03T10:27:02Z</time>
      </trkpt>
      <trkpt lat="45.69848" lon="2.0474">
        <ele>773.2</ele>
        <time>2022-08-03T10:27:04Z</time>
      </trkpt>
      <trkpt lat="45.69844" lon="2.04737">
        <ele>773.4</ele>
        <time>2022-08-03T10:27:06Z</time>
      </trkpt>
      <trkpt lat="45.69839" lon="2.04735">
        <ele>773.8</ele>
        <time>2022-08-03T10:27:08Z</time>
      </trkpt>
      <trkpt lat="45.69835" lon="2.04733">
        <ele>773.9</ele>
        <time>2022-08-03T10:27:10Z</time>
      </trkpt>
      <trkpt lat="45.69832" lon="2.04732">
        <ele>774</ele>
        <time>2022-08-03T10:27:12Z</time>
      </trkpt>
      <trkpt lat="45.69829" lon="2.04731">
        <ele>774</ele>
        <time>2022-08-03T10:27:14Z</time>
      </trkpt>
      <trkpt lat="45.69825" lon="2.04729">
        <ele>773.9</ele>
        <time>2022-08-03T10:27:16Z</time>
      </trkpt>
      <trkpt lat="45.6982" lon="2.04729">
        <ele>773.9</ele>
        <time>2022-08-03T10:27:18Z</time>
      </trkpt>
      <trkpt lat="45.69817" lon="2.04728">
        <ele>773.9</ele>
        <time>2022-08-03T10:27:20Z</time>
      </trkpt>
      <trkpt lat="45.69814" lon="2.04728">
        <ele>773.9</ele>
        <time>2022-08-03T10:27:22Z</time>
      </trkpt>
      <trkpt lat="45.6981" lon="2.04728">
        <ele>774.1</ele>
        <time>2022-08-03T10:27:24Z</time>
      </trkpt>
      <trkpt lat="45.69806" lon="2.04729">
        <ele>774.2</ele>
        <time>2022-08-03T10:27:26Z</time>
      </trkpt>
      <trkpt lat="45.69802" lon="2.0473">
        <ele>774.4</ele>
        <time>2022-08-03T10:27:28Z</time>
      </trkpt>
      <trkpt lat="45.69798" lon="2.04732">
        <ele>774.7</ele>
        <time>2022-08-03T10:27:30Z</time>
      </trkpt>
      <trkpt lat="45.69794" lon="2.04732">
        <ele>774.8</ele>
        <time>2022-08-03T10:27:32Z</time>
      </trkpt>
      <trkpt lat="45.6979" lon="2.04734">
        <ele>775.1</ele>
        <time>2022-08-03T10:27:34Z</time>
      </trkpt>
      <trkpt lat="45.69787" lon="2.04734">
        <ele>775.2</ele>
        <time>2022-08-03T10:27:36Z</time>
      </trkpt>
      <trkpt lat="45.69783" lon="2.04735">
        <ele>775.3</ele>
        <time>2022-08-03T10:27:38Z</time>
      </trkpt>
      <trkpt lat="45.6978" lon="2.04736">
        <ele>775.6</ele>
        <time>2022-08-03T10:27:40Z</time>
      </trkpt>
      <trkpt lat="45.69777" lon="2.04737">
        <ele>775.7</ele>
        <time>2022-08-03T10:27:42Z</time>
      </trkpt>
      <trkpt lat="45.69773" lon="2.04738">
        <ele>776</ele>
        <time>2022-08-03T10:27:44Z</time>
      </trkpt>
      <trkpt lat="45.6977" lon="2.04739">
        <ele>776.1</ele>
        <time>2022-08-03T10:27:46Z</time>
      </trkpt>
      <trkpt lat="45.69767" lon="2.0474">
        <ele>776.3</ele>
        <time>2022-08-03T10:27:48Z</time>
      </trkpt>
      <trkpt lat="45.69764" lon="2.0474">
        <ele>776.5</ele>
        <time>2022-08-03T10:27:50Z</time>
      </trkpt>
      <trkpt lat="45.6976" lon="2.04741">
        <ele>776.6</ele>
        <time>2022-08-03T10:27:52Z</time>
      </trkpt>
      <trkpt lat="45.69756" lon="2.04742">
        <ele>776.8</ele>
        <time>2022-08-03T10:27:54Z</time>
      </trkpt>
      <trkpt lat="45.69753" lon="2.04743">
        <ele>777</ele>
        <time>2022-08-03T10:27:56Z</time>
      </trkpt>
      <trkpt lat="45.69749" lon="2.04743">
        <ele>777.1</ele>
        <time>2022-08-03T10:27:58Z</time>
      </trkpt>
      <trkpt lat="45.69746" lon="2.04744">
        <ele>777.2</ele>
        <time>2022-08-03T10:28:00Z</time>
      </trkpt>
      <trkpt lat="45.69742" lon="2.04745">
        <ele>777.4</ele>
        <time>2022-08-03T10:28:02Z</time>
      </trkpt>
      <trkpt lat="45.69739" lon="2.04746">
        <ele>777.6</ele>
        <time>2022-08-03T10:28:04Z</time>
      </trkpt>
      <trkpt lat="45.69735" lon="2.04746">
        <ele>777.7</ele>
        <time>2022-08-03T10:28:06Z</time>
      </trkpt>
      <trkpt lat="45.69732" lon="2.04747">
        <ele>777.8</ele>
        <time>2022-08-03T10:28:08Z</time>
      </trkpt>
      <trkpt lat="45.69729" lon="2.04748">
        <ele>777.9</ele>
        <time>2022-08-03T10:28:10Z</time>
      </trkpt>
      <trkpt lat="45.69725" lon="2.04749">
        <ele>778.2</ele>
        <time>2022-08-03T10:28:12Z</time>
      </trkpt>
      <trkpt lat="45.69722" lon="2.0475">
        <ele>778.3</ele>
        <time>2022-08-03T10:28:14Z</time>
      </trkpt>
      <trkpt lat="45.69719" lon="2.0475">
        <ele>778.4</ele>
        <time>2022-08-03T10:28:16Z</time>
      </trkpt>
      <trkpt lat="45.69716" lon="2.04751">
        <ele>778.6</ele>
        <time>2022-08-03T10:28:18Z</time>
      </trkpt>
      <trkpt lat="45.69712" lon="2.04752">
        <ele>778.8</ele>
        <time>2022-08-03T10:28:20Z</time>
      </trkpt>
      <trkpt lat="45.69709" lon="2.04753">
        <ele>779</ele>
        <time>2022-08-03T10:28:22Z</time>
      </trkpt>
      <trkpt lat="45.69706" lon="2.04754">
        <ele>779.2</ele>
        <time>2022-08-03T10:28:24Z</time>
      </trkpt>
      <trkpt lat="45.69703" lon="2.04755">
        <ele>779.4</ele>
        <time>2022-08-03T10:28:26Z</time>
      </trkpt>
      <trkpt lat="45.697" lon="2.04755">
        <ele>779.6</ele>
        <time>2022-08-03T10:28:28Z</time>
      </trkpt>
      <trkpt lat="45.69697" lon="2.04757">
        <ele>780</ele>
        <time>2022-08-03T10:28:30Z</time>
      </trkpt>
      <trkpt lat="45.69694" lon="2.04758">
        <ele>780.3</ele>
        <time>2022-08-03T10:28:32Z</time>
      </trkpt>
      <trkpt lat="45.69691" lon="2.0476">
        <ele>780.6</ele>
        <time>2022-08-03T10:28:34Z</time>
      </trkpt>
      <trkpt lat="45.69688" lon="2.04761">
        <ele>780.9</ele>
        <time>2022-08-03T10:28:36Z</time>
      </trkpt>
      <trkpt lat="45.69685" lon="2.04762">
        <ele>781.2</ele>
        <time>2022-08-03T10:28:38Z</time>
      </trkpt>
      <trkpt lat="45.69682" lon="2.04764">
        <ele>781.7</ele>
        <time>2022-08-03T10:28:40Z</time>
      </trkpt>
      <trkpt lat="45.69679" lon="2.04765">
        <ele>782</ele>
        <time>2022-08-03T10:28:42Z</time>
      </trkpt>
      <trkpt lat="45.69676" lon="2.04767">
        <ele>782.5</ele>
        <time>2022-08-03T10:28:44Z</time>
      </trkpt>
      <trkpt lat="45.69673" lon="2.04769">
        <ele>782.9</ele>
        <time>2022-08-03T10:28:46Z</time>
      </trkpt>
      <trkpt lat="45.69671" lon="2.04772">
        <ele>783.6</ele>
        <time>2022-08-03T10:28:48Z</time>
      </trkpt>
      <trkpt lat="45.69667" lon="2.04774">
        <ele>784.2</ele>
        <time>2022-08-03T10:28:50Z</time>
      </trkpt>
      <trkpt lat="45.69664" lon="2.04776">
        <ele>784.7</ele>
        <time>2022-08-03T10:28:52Z</time>
      </trkpt>
      <trkpt lat="45.69661" lon="2.04779">
        <ele>785.3</ele>
        <time>2022-08-03T10:28:54Z</time>
      </trkpt>
      <trkpt lat="45.69658" lon="2.04781">
        <ele>785.9</ele>
        <time>2022-08-03T10:28:56Z</time>
      </trkpt>
      <trkpt lat="45.69655" lon="2.04783">
        <ele>786.2</ele>
        <time>2022-08-03T10:28:58Z</time>
      </trkpt>
      <trkpt lat="45.69652" lon="2.04785">
        <ele>786.7</ele>
        <time>2022-08-03T10:29:00Z</time>
      </trkpt>
      <trkpt lat="45.69648" lon="2.04787">
        <ele>787.1</ele>
        <time>2022-08-03T10:29:02Z</time>
      </trkpt>
      <trkpt lat="45.69645" lon="2.04789">
        <ele>787.5</ele>
        <time>2022-08-03T10:29:04Z</time>
      </trkpt>
      <trkpt lat="45.69642" lon="2.0479">
        <ele>787.6</ele>
        <time>2022-08-03T10:29:06Z</time>
      </trkpt>
      <trkpt lat="45.69639" lon="2.0479">
        <ele>787.7</ele>
        <time>2022-08-03T10:29:08Z</time>
      </trkpt>
      <trkpt lat="45.69635" lon="2.04791">
        <ele>787.9</ele>
        <time>2022-08-03T10:29:10Z</time>
      </trkpt>
      <trkpt lat="45.69633" lon="2.04792">
        <ele>788</ele>
        <time>2022-08-03T10:29:12Z</time>
      </trkpt>
      <trkpt lat="45.69628" lon="2.04794">
        <ele>788.4</ele>
        <time>2022-08-03T10:29:14Z</time>
      </trkpt>
      <trkpt lat="45.69625" lon="2.04794">
        <ele>788.3</ele>
        <time>2022-08-03T10:29:16Z</time>
      </trkpt>
      <trkpt lat="45.6962" lon="2.04794">
        <ele>788.4</ele>
        <time>2022-08-03T10:29:18Z</time>
      </trkpt>
      <trkpt lat="45.69616" lon="2.04795">
        <ele>788.5</ele>
        <time>2022-08-03T10:29:20Z</time>
      </trkpt>
      <trkpt lat="45.69612" lon="2.04795">
        <ele>788.6</ele>
        <time>2022-08-03T10:29:22Z</time>
      </trkpt>
      <trkpt lat="45.69608" lon="2.04795">
        <ele>788.5</ele>
        <time>2022-08-03T10:29:24Z</time>
      </trkpt>
      <trkpt lat="45.69604" lon="2.04796">
        <ele>788.6</ele>
        <time>2022-08-03T10:29:26Z</time>
      </trkpt>
      <trkpt lat="45.696" lon="2.04797">
        <ele>788.7</ele>
        <time>2022-08-03T10:29:28Z</time>
      </trkpt>
      <trkpt lat="45.69596" lon="2.04796">
        <ele>788.6</ele>
        <time>2022-08-03T10:29:30Z</time>
      </trkpt>
      <trkpt lat="45.69592" lon="2.04798">
        <ele>788.8</ele>
        <time>2022-08-03T10:29:32Z</time>
      </trkpt>
      <trkpt lat="45.69588" lon="2.04798">
        <ele>788.7</ele>
        <time>2022-08-03T10:29:34Z</time>
      </trkpt>
      <trkpt lat="45.69585" lon="2.04799">
        <ele>788.8</ele>
        <time>2022-08-03T10:29:36Z</time>
      </trkpt>
      <trkpt lat="45.69582" lon="2.04799">
        <ele>789</ele>
        <time>2022-08-03T10:29:38Z</time>
      </trkpt>
      <trkpt lat="45.69579" lon="2.048">
        <ele>789.4</ele>
        <time>2022-08-03T10:29:40Z</time>
      </trkpt>
      <trkpt lat="45.69577" lon="2.048">
        <ele>789.6</ele>
        <time>2022-08-03T10:29:42Z</time>
      </trkpt>
      <trkpt lat="45.69574" lon="2.04799">
        <ele>789.8</ele>
        <time>2022-08-03T10:29:44Z</time>
      </trkpt>
      <trkpt lat="45.69569" lon="2.048">
        <ele>790.5</ele>
        <time>2022-08-03T10:29:46Z</time>
      </trkpt>
      <trkpt lat="45.69565" lon="2.04801">
        <ele>790.9</ele>
        <time>2022-08-03T10:29:48Z</time>
      </trkpt>
      <trkpt lat="45.69562" lon="2.04801">
        <ele>791.3</ele>
        <time>2022-08-03T10:29:50Z</time>
      </trkpt>
      <trkpt lat="45.69558" lon="2.04801">
        <ele>791.6</ele>
        <time>2022-08-03T10:29:52Z</time>
      </trkpt>
      <trkpt lat="45.69555" lon="2.04801">
        <ele>792</ele>
        <time>2022-08-03T10:29:54Z</time>
      </trkpt>
      <trkpt lat="45.69551" lon="2.04801">
        <ele>792.4</ele>
        <time>2022-08-03T10:29:56Z</time>
      </trkpt>
      <trkpt lat="45.69547" lon="2.04801">
        <ele>792.8</ele>
        <time>2022-08-03T10:29:58Z</time>
      </trkpt>
      <trkpt lat="45.69544" lon="2.04802">
        <ele>793.2</ele>
        <time>2022-08-03T10:30:00Z</time>
      </trkpt>
      <trkpt lat="45.6954" lon="2.04802">
        <ele>793.6</ele>
        <time>2022-08-03T10:30:02Z</time>
      </trkpt>
      <trkpt lat="45.69536" lon="2.04802">
        <ele>794</ele>
        <time>2022-08-03T10:30:04Z</time>
      </trkpt>
      <trkpt lat="45.69533" lon="2.04804">
        <ele>794.5</ele>
        <time>2022-08-03T10:30:06Z</time>
      </trkpt>
      <trkpt lat="45.69529" lon="2.04805">
        <ele>795</ele>
        <time>2022-08-03T10:30:08Z</time>
      </trkpt>
      <trkpt lat="45.69526" lon="2.04806">
        <ele>795.4</ele>
        <time>2022-08-03T10:30:10Z</time>
      </trkpt>
      <trkpt lat="45.69523" lon="2.04806">
        <ele>795.8</ele>
        <time>2022-08-03T10:30:12Z</time>
      </trkpt>
      <trkpt lat="45.69519" lon="2.04806">
        <ele>796.2</ele>
        <time>2022-08-03T10:30:14Z</time>
      </trkpt>
      <trkpt lat="45.69514" lon="2.04805">
        <ele>796.5</ele>
        <time>2022-08-03T10:30:16Z</time>
      </trkpt>
      <trkpt lat="45.69511" lon="2.04805">
        <ele>796.9</ele>
        <time>2022-08-03T10:30:18Z</time>
      </trkpt>
      <trkpt lat="45.69505" lon="2.04803">
        <ele>797.2</ele>
        <time>2022-08-03T10:30:20Z</time>
      </trkpt>
      <trkpt lat="45.69502" lon="2.04804">
        <ele>797.6</ele>
        <time>2022-08-03T10:30:22Z</time>
      </trkpt>
      <trkpt lat="45.69498" lon="2.04802">
        <ele>797.7</ele>
        <time>2022-08-03T10:30:24Z</time>
      </trkpt>
      <trkpt lat="45.69494" lon="2.04801">
        <ele>797.7</ele>
        <time>2022-08-03T10:30:26Z</time>
      </trkpt>
      <trkpt lat="45.69491" lon="2.04799">
        <ele>797.7</ele>
        <time>2022-08-03T10:30:28Z</time>
      </trkpt>
      <trkpt lat="45.69487" lon="2.04798">
        <ele>797.7</ele>
        <time>2022-08-03T10:30:30Z</time>
      </trkpt>
      <trkpt lat="45.69484" lon="2.04798">
        <ele>797.7</ele>
        <time>2022-08-03T10:30:32Z</time>
      </trkpt>
      <trkpt lat="45.69481" lon="2.04796">
        <ele>797.7</ele>
        <time>2022-08-03T10:30:34Z</time>
      </trkpt>
      <trkpt lat="45.69477" lon="2.04795">
        <ele>797.7</ele>
        <time>2022-08-03T10:30:36Z</time>
      </trkpt>
      <trkpt lat="45.69474" lon="2.04795">
        <ele>797.8</ele>
        <time>2022-08-03T10:30:38Z</time>
      </trkpt>
      <trkpt lat="45.69471" lon="2.04795">
        <ele>797.9</ele>
        <time>2022-08-03T10:30:40Z</time>
      </trkpt>
      <trkpt lat="45.69468" lon="2.04795">
        <ele>798</ele>
        <time>2022-08-03T10:30:42Z</time>
      </trkpt>
      <trkpt lat="45.69465" lon="2.04795">
        <ele>798.1</ele>
        <time>2022-08-03T10:30:44Z</time>
      </trkpt>
      <trkpt lat="45.69461" lon="2.04795">
        <ele>798.3</ele>
        <time>2022-08-03T10:30:46Z</time>
      </trkpt>
      <trkpt lat="45.69458" lon="2.04795">
        <ele>798.4</ele>
        <time>2022-08-03T10:30:48Z</time>
      </trkpt>
      <trkpt lat="45.69454" lon="2.04794">
        <ele>798.5</ele>
        <time>2022-08-03T10:30:50Z</time>
      </trkpt>
      <trkpt lat="45.69451" lon="2.04795">
        <ele>798.6</ele>
        <time>2022-08-03T10:30:52Z</time>
      </trkpt>
      <trkpt lat="45.69445" lon="2.04797">
        <ele>799</ele>
        <time>2022-08-03T10:30:54Z</time>
      </trkpt>
      <trkpt lat="45.69442" lon="2.04798">
        <ele>799.3</ele>
        <time>2022-08-03T10:30:56Z</time>
      </trkpt>
      <trkpt lat="45.69438" lon="2.04799">
        <ele>799.5</ele>
        <time>2022-08-03T10:30:58Z</time>
      </trkpt>
      <trkpt lat="45.69436" lon="2.04801">
        <ele>799.8</ele>
        <time>2022-08-03T10:31:00Z</time>
      </trkpt>
      <trkpt lat="45.69433" lon="2.04802">
        <ele>800</ele>
        <time>2022-08-03T10:31:02Z</time>
      </trkpt>
      <trkpt lat="45.69429" lon="2.04803">
        <ele>800.2</ele>
        <time>2022-08-03T10:31:04Z</time>
      </trkpt>
      <trkpt lat="45.69426" lon="2.04804">
        <ele>800.6</ele>
        <time>2022-08-03T10:31:06Z</time>
      </trkpt>
      <trkpt lat="45.69422" lon="2.04806">
        <ele>800.8</ele>
        <time>2022-08-03T10:31:08Z</time>
      </trkpt>
      <trkpt lat="45.69419" lon="2.04808">
        <ele>801.1</ele>
        <time>2022-08-03T10:31:10Z</time>
      </trkpt>
      <trkpt lat="45.69413" lon="2.0481">
        <ele>801.2</ele>
        <time>2022-08-03T10:31:13Z</time>
      </trkpt>
      <trkpt lat="45.69412" lon="2.0481">
        <ele>801.2</ele>
        <time>2022-08-03T10:31:14Z</time>
      </trkpt>
      <trkpt lat="45.69407" lon="2.04812">
        <ele>801.1</ele>
        <time>2022-08-03T10:31:17Z</time>
      </trkpt>
      <trkpt lat="45.69403" lon="2.04814">
        <ele>801</ele>
        <time>2022-08-03T10:31:19Z</time>
      </trkpt>
      <trkpt lat="45.69399" lon="2.04815">
        <ele>800.9</ele>
        <time>2022-08-03T10:31:21Z</time>
      </trkpt>
      <trkpt lat="45.69396" lon="2.04816">
        <ele>800.7</ele>
        <time>2022-08-03T10:31:23Z</time>
      </trkpt>
      <trkpt lat="45.69392" lon="2.04818">
        <ele>800.6</ele>
        <time>2022-08-03T10:31:25Z</time>
      </trkpt>
      <trkpt lat="45.69389" lon="2.04819">
        <ele>800.5</ele>
        <time>2022-08-03T10:31:27Z</time>
      </trkpt>
      <trkpt lat="45.69386" lon="2.0482">
        <ele>800.4</ele>
        <time>2022-08-03T10:31:29Z</time>
      </trkpt>
      <trkpt lat="45.69382" lon="2.04821">
        <ele>800.3</ele>
        <time>2022-08-03T10:31:31Z</time>
      </trkpt>
      <trkpt lat="45.69379" lon="2.04822">
        <ele>800.2</ele>
        <time>2022-08-03T10:31:33Z</time>
      </trkpt>
      <trkpt lat="45.69376" lon="2.04824">
        <ele>800.1</ele>
        <time>2022-08-03T10:31:35Z</time>
      </trkpt>
      <trkpt lat="45.69373" lon="2.04825">
        <ele>800</ele>
        <time>2022-08-03T10:31:37Z</time>
      </trkpt>
      <trkpt lat="45.69369" lon="2.04827">
        <ele>799.9</ele>
        <time>2022-08-03T10:31:39Z</time>
      </trkpt>
      <trkpt lat="45.69366" lon="2.04828">
        <ele>799.8</ele>
        <time>2022-08-03T10:31:41Z</time>
      </trkpt>
      <trkpt lat="45.69362" lon="2.0483">
        <ele>799.7</ele>
        <time>2022-08-03T10:31:43Z</time>
      </trkpt>
      <trkpt lat="45.69358" lon="2.04832">
        <ele>799.6</ele>
        <time>2022-08-03T10:31:45Z</time>
      </trkpt>
      <trkpt lat="45.69355" lon="2.04833">
        <ele>799.5</ele>
        <time>2022-08-03T10:31:47Z</time>
      </trkpt>
      <trkpt lat="45.69351" lon="2.04834">
        <ele>799.4</ele>
        <time>2022-08-03T10:31:49Z</time>
      </trkpt>
      <trkpt lat="45.69348" lon="2.04835">
        <ele>799.3</ele>
        <time>2022-08-03T10:31:51Z</time>
      </trkpt>
      <trkpt lat="45.69344" lon="2.04837">
        <ele>799.2</ele>
        <time>2022-08-03T10:31:53Z</time>
      </trkpt>
      <trkpt lat="45.69342" lon="2.04837">
        <ele>799.2</ele>
        <time>2022-08-03T10:31:54Z</time>
      </trkpt>
      <trkpt lat="45.69338" lon="2.0484">
        <ele>799.2</ele>
        <time>2022-08-03T10:31:56Z</time>
      </trkpt>
      <trkpt lat="45.69334" lon="2.04843">
        <ele>799.3</ele>
        <time>2022-08-03T10:31:58Z</time>
      </trkpt>
      <trkpt lat="45.69331" lon="2.04846">
        <ele>799.4</ele>
        <time>2022-08-03T10:32:00Z</time>
      </trkpt>
      <trkpt lat="45.69327" lon="2.04849">
        <ele>799.5</ele>
        <time>2022-08-03T10:32:02Z</time>
      </trkpt>
      <trkpt lat="45.69323" lon="2.04851">
        <ele>799.5</ele>
        <time>2022-08-03T10:32:04Z</time>
      </trkpt>
      <trkpt lat="45.6932" lon="2.04854">
        <ele>799.6</ele>
        <time>2022-08-03T10:32:06Z</time>
      </trkpt>
      <trkpt lat="45.69316" lon="2.04856">
        <ele>799.7</ele>
        <time>2022-08-03T10:32:08Z</time>
      </trkpt>
      <trkpt lat="45.69312" lon="2.04859">
        <ele>799.7</ele>
        <time>2022-08-03T10:32:10Z</time>
      </trkpt>
      <trkpt lat="45.69309" lon="2.04862">
        <ele>799.9</ele>
        <time>2022-08-03T10:32:12Z</time>
      </trkpt>
      <trkpt lat="45.69305" lon="2.04865">
        <ele>799.9</ele>
        <time>2022-08-03T10:32:14Z</time>
      </trkpt>
      <trkpt lat="45.69302" lon="2.04867">
        <ele>800</ele>
        <time>2022-08-03T10:32:16Z</time>
      </trkpt>
      <trkpt lat="45.69299" lon="2.04871">
        <ele>800.3</ele>
        <time>2022-08-03T10:32:18Z</time>
      </trkpt>
      <trkpt lat="45.69295" lon="2.04875">
        <ele>800.5</ele>
        <time>2022-08-03T10:32:20Z</time>
      </trkpt>
      <trkpt lat="45.69292" lon="2.04878">
        <ele>800.6</ele>
        <time>2022-08-03T10:32:22Z</time>
      </trkpt>
      <trkpt lat="45.69288" lon="2.04881">
        <ele>800.9</ele>
        <time>2022-08-03T10:32:24Z</time>
      </trkpt>
      <trkpt lat="45.69284" lon="2.04885">
        <ele>801.1</ele>
        <time>2022-08-03T10:32:26Z</time>
      </trkpt>
      <trkpt lat="45.6928" lon="2.04888">
        <ele>801.2</ele>
        <time>2022-08-03T10:32:28Z</time>
      </trkpt>
      <trkpt lat="45.69276" lon="2.04892">
        <ele>801.4</ele>
        <time>2022-08-03T10:32:30Z</time>
      </trkpt>
      <trkpt lat="45.69272" lon="2.04895">
        <ele>801.6</ele>
        <time>2022-08-03T10:32:32Z</time>
      </trkpt>
      <trkpt lat="45.69269" lon="2.04898">
        <ele>801.7</ele>
        <time>2022-08-03T10:32:34Z</time>
      </trkpt>
      <trkpt lat="45.69265" lon="2.04901">
        <ele>801.8</ele>
        <time>2022-08-03T10:32:36Z</time>
      </trkpt>
      <trkpt lat="45.69262" lon="2.04904">
        <ele>802</ele>
        <time>2022-08-03T10:32:38Z</time>
      </trkpt>
      <trkpt lat="45.69258" lon="2.04907">
        <ele>802.2</ele>
        <time>2022-08-03T10:32:40Z</time>
      </trkpt>
      <trkpt lat="45.69253" lon="2.04912">
        <ele>802.5</ele>
        <time>2022-08-03T10:32:42Z</time>
      </trkpt>
      <trkpt lat="45.69249" lon="2.04915">
        <ele>802.8</ele>
        <time>2022-08-03T10:32:44Z</time>
      </trkpt>
      <trkpt lat="45.69245" lon="2.04919">
        <ele>803.1</ele>
        <time>2022-08-03T10:32:46Z</time>
      </trkpt>
      <trkpt lat="45.6924" lon="2.04924">
        <ele>803.8</ele>
        <time>2022-08-03T10:32:48Z</time>
      </trkpt>
      <trkpt lat="45.69236" lon="2.04928">
        <ele>804.2</ele>
        <time>2022-08-03T10:32:50Z</time>
      </trkpt>
      <trkpt lat="45.69231" lon="2.04932">
        <ele>804.6</ele>
        <time>2022-08-03T10:32:52Z</time>
      </trkpt>
      <trkpt lat="45.69227" lon="2.04935">
        <ele>805</ele>
        <time>2022-08-03T10:32:54Z</time>
      </trkpt>
      <trkpt lat="45.69223" lon="2.04939">
        <ele>805.5</ele>
        <time>2022-08-03T10:32:56Z</time>
      </trkpt>
      <trkpt lat="45.69218" lon="2.04943">
        <ele>805.9</ele>
        <time>2022-08-03T10:32:58Z</time>
      </trkpt>
      <trkpt lat="45.69214" lon="2.04947">
        <ele>806.4</ele>
        <time>2022-08-03T10:33:00Z</time>
      </trkpt>
      <trkpt lat="45.6921" lon="2.04949">
        <ele>806.5</ele>
        <time>2022-08-03T10:33:02Z</time>
      </trkpt>
      <trkpt lat="45.69206" lon="2.04952">
        <ele>806.9</ele>
        <time>2022-08-03T10:33:04Z</time>
      </trkpt>
      <trkpt lat="45.69202" lon="2.04956">
        <ele>807.4</ele>
        <time>2022-08-03T10:33:06Z</time>
      </trkpt>
      <trkpt lat="45.69198" lon="2.04959">
        <ele>807.8</ele>
        <time>2022-08-03T10:33:08Z</time>
      </trkpt>
      <trkpt lat="45.69194" lon="2.04961">
        <ele>807.9</ele>
        <time>2022-08-03T10:33:10Z</time>
      </trkpt>
      <trkpt lat="45.6919" lon="2.04964">
        <ele>808.1</ele>
        <time>2022-08-03T10:33:12Z</time>
      </trkpt>
      <trkpt lat="45.69185" lon="2.04967">
        <ele>808.5</ele>
        <time>2022-08-03T10:33:14Z</time>
      </trkpt>
      <trkpt lat="45.69182" lon="2.0497">
        <ele>808.8</ele>
        <time>2022-08-03T10:33:16Z</time>
      </trkpt>
      <trkpt lat="45.69178" lon="2.04973">
        <ele>809.3</ele>
        <time>2022-08-03T10:33:18Z</time>
      </trkpt>
      <trkpt lat="45.69174" lon="2.04976">
        <ele>809.5</ele>
        <time>2022-08-03T10:33:20Z</time>
      </trkpt>
      <trkpt lat="45.69167" lon="2.04981">
        <ele>810.1</ele>
        <time>2022-08-03T10:33:23Z</time>
      </trkpt>
      <trkpt lat="45.69163" lon="2.04985">
        <ele>810.7</ele>
        <time>2022-08-03T10:33:25Z</time>
      </trkpt>
      <trkpt lat="45.69159" lon="2.04989">
        <ele>811.1</ele>
        <time>2022-08-03T10:33:27Z</time>
      </trkpt>
      <trkpt lat="45.69155" lon="2.04993">
        <ele>811.3</ele>
        <time>2022-08-03T10:33:29Z</time>
      </trkpt>
      <trkpt lat="45.6915" lon="2.04997">
        <ele>811.6</ele>
        <time>2022-08-03T10:33:31Z</time>
      </trkpt>
      <trkpt lat="45.69146" lon="2.05001">
        <ele>811.9</ele>
        <time>2022-08-03T10:33:33Z</time>
      </trkpt>
      <trkpt lat="45.69142" lon="2.05004">
        <ele>812</ele>
        <time>2022-08-03T10:33:35Z</time>
      </trkpt>
      <trkpt lat="45.69138" lon="2.05009">
        <ele>812.4</ele>
        <time>2022-08-03T10:33:37Z</time>
      </trkpt>
      <trkpt lat="45.69134" lon="2.05011">
        <ele>812.3</ele>
        <time>2022-08-03T10:33:39Z</time>
      </trkpt>
      <trkpt lat="45.6913" lon="2.05015">
        <ele>812.5</ele>
        <time>2022-08-03T10:33:41Z</time>
      </trkpt>
      <trkpt lat="45.69126" lon="2.05018">
        <ele>812.7</ele>
        <time>2022-08-03T10:33:43Z</time>
      </trkpt>
      <trkpt lat="45.69122" lon="2.05022">
        <ele>812.8</ele>
        <time>2022-08-03T10:33:45Z</time>
      </trkpt>
      <trkpt lat="45.69118" lon="2.05026">
        <ele>813</ele>
        <time>2022-08-03T10:33:47Z</time>
      </trkpt>
      <trkpt lat="45.69115" lon="2.05029">
        <ele>813.1</ele>
        <time>2022-08-03T10:33:49Z</time>
      </trkpt>
      <trkpt lat="45.69111" lon="2.05031">
        <ele>812.9</ele>
        <time>2022-08-03T10:33:51Z</time>
      </trkpt>
      <trkpt lat="45.69107" lon="2.05035">
        <ele>813</ele>
        <time>2022-08-03T10:33:53Z</time>
      </trkpt>
      <trkpt lat="45.69103" lon="2.05037">
        <ele>812.9</ele>
        <time>2022-08-03T10:33:55Z</time>
      </trkpt>
      <trkpt lat="45.691" lon="2.05042">
        <ele>813.2</ele>
        <time>2022-08-03T10:33:57Z</time>
      </trkpt>
      <trkpt lat="45.69096" lon="2.05046">
        <ele>813.4</ele>
        <time>2022-08-03T10:33:59Z</time>
      </trkpt>
      <trkpt lat="45.69094" lon="2.05048">
        <ele>813.4</ele>
        <time>2022-08-03T10:34:00Z</time>
      </trkpt>
      <trkpt lat="45.69091" lon="2.05053">
        <ele>813.6</ele>
        <time>2022-08-03T10:34:02Z</time>
      </trkpt>
      <trkpt lat="45.69087" lon="2.05056">
        <ele>813.6</ele>
        <time>2022-08-03T10:34:04Z</time>
      </trkpt>
      <trkpt lat="45.69085" lon="2.0506">
        <ele>813.7</ele>
        <time>2022-08-03T10:34:06Z</time>
      </trkpt>
      <trkpt lat="45.69081" lon="2.05063">
        <ele>814.2</ele>
        <time>2022-08-03T10:34:08Z</time>
      </trkpt>
      <trkpt lat="45.69079" lon="2.05065">
        <ele>814.6</ele>
        <time>2022-08-03T10:34:10Z</time>
      </trkpt>
      <trkpt lat="45.69077" lon="2.05068">
        <ele>815</ele>
        <time>2022-08-03T10:34:12Z</time>
      </trkpt>
      <trkpt lat="45.69073" lon="2.05073">
        <ele>815.9</ele>
        <time>2022-08-03T10:34:14Z</time>
      </trkpt>
      <trkpt lat="45.6907" lon="2.05077">
        <ele>816.6</ele>
        <time>2022-08-03T10:34:16Z</time>
      </trkpt>
      <trkpt lat="45.69067" lon="2.05081">
        <ele>817.1</ele>
        <time>2022-08-03T10:34:18Z</time>
      </trkpt>
      <trkpt lat="45.69065" lon="2.05085">
        <ele>817.7</ele>
        <time>2022-08-03T10:34:20Z</time>
      </trkpt>
      <trkpt lat="45.69062" lon="2.05089">
        <ele>818.3</ele>
        <time>2022-08-03T10:34:22Z</time>
      </trkpt>
      <trkpt lat="45.69059" lon="2.05092">
        <ele>818.8</ele>
        <time>2022-08-03T10:34:24Z</time>
      </trkpt>
      <trkpt lat="45.69056" lon="2.05095">
        <ele>819.2</ele>
        <time>2022-08-03T10:34:26Z</time>
      </trkpt>
      <trkpt lat="45.69053" lon="2.05099">
        <ele>819.8</ele>
        <time>2022-08-03T10:34:28Z</time>
      </trkpt>
      <trkpt lat="45.69049" lon="2.05104">
        <ele>820.4</ele>
        <time>2022-08-03T10:34:30Z</time>
      </trkpt>
      <trkpt lat="45.69048" lon="2.05115">
        <ele>821.7</ele>
        <time>2022-08-03T10:34:32Z</time>
      </trkpt>
      <trkpt lat="45.6905" lon="2.05126">
        <ele>823.2</ele>
        <time>2022-08-03T10:34:34Z</time>
      </trkpt>
      <trkpt lat="45.69048" lon="2.05134">
        <ele>824</ele>
        <time>2022-08-03T10:34:36Z</time>
      </trkpt>
      <trkpt lat="45.69046" lon="2.05131">
        <ele>823.6</ele>
        <time>2022-08-03T10:34:38Z</time>
      </trkpt>
      <trkpt lat="45.69038" lon="2.05127">
        <ele>822.8</ele>
        <time>2022-08-03T10:34:40Z</time>
      </trkpt>
      <trkpt lat="45.69035" lon="2.05128">
        <ele>822.9</ele>
        <time>2022-08-03T10:34:42Z</time>
      </trkpt>
      <trkpt lat="45.69031" lon="2.0513">
        <ele>822.9</ele>
        <time>2022-08-03T10:34:44Z</time>
      </trkpt>
      <trkpt lat="45.69027" lon="2.05132">
        <ele>822.9</ele>
        <time>2022-08-03T10:34:46Z</time>
      </trkpt>
      <trkpt lat="45.69022" lon="2.05133">
        <ele>822.9</ele>
        <time>2022-08-03T10:34:48Z</time>
      </trkpt>
      <trkpt lat="45.6902" lon="2.05137">
        <ele>823.1</ele>
        <time>2022-08-03T10:34:50Z</time>
      </trkpt>
      <trkpt lat="45.69016" lon="2.05141">
        <ele>823.3</ele>
        <time>2022-08-03T10:34:52Z</time>
      </trkpt>
      <trkpt lat="45.69013" lon="2.05143">
        <ele>823.3</ele>
        <time>2022-08-03T10:34:54Z</time>
      </trkpt>
      <trkpt lat="45.69006" lon="2.05146">
        <ele>823.1</ele>
        <time>2022-08-03T10:34:56Z</time>
      </trkpt>
      <trkpt lat="45.69003" lon="2.05148">
        <ele>823.1</ele>
        <time>2022-08-03T10:34:58Z</time>
      </trkpt>
      <trkpt lat="45.69" lon="2.05151">
        <ele>823.1</ele>
        <time>2022-08-03T10:35:00Z</time>
      </trkpt>
      <trkpt lat="45.68996" lon="2.05152">
        <ele>823.5</ele>
        <time>2022-08-03T10:35:02Z</time>
      </trkpt>
      <trkpt lat="45.68993" lon="2.05155">
        <ele>823.9</ele>
        <time>2022-08-03T10:35:04Z</time>
      </trkpt>
      <trkpt lat="45.68989" lon="2.05158">
        <ele>824.2</ele>
        <time>2022-08-03T10:35:06Z</time>
      </trkpt>
      <trkpt lat="45.68986" lon="2.0516">
        <ele>824.5</ele>
        <time>2022-08-03T10:35:08Z</time>
      </trkpt>
      <trkpt lat="45.68983" lon="2.05162">
        <ele>824.7</ele>
        <time>2022-08-03T10:35:10Z</time>
      </trkpt>
      <trkpt lat="45.6898" lon="2.05164">
        <ele>824.9</ele>
        <time>2022-08-03T10:35:12Z</time>
      </trkpt>
      <trkpt lat="45.68977" lon="2.05164">
        <ele>825.1</ele>
        <time>2022-08-03T10:35:14Z</time>
      </trkpt>
      <trkpt lat="45.68974" lon="2.05165">
        <ele>825.3</ele>
        <time>2022-08-03T10:35:16Z</time>
      </trkpt>
      <trkpt lat="45.6897" lon="2.05166">
        <ele>825.4</ele>
        <time>2022-08-03T10:35:18Z</time>
      </trkpt>
      <trkpt lat="45.68967" lon="2.05168">
        <ele>825.7</ele>
        <time>2022-08-03T10:35:20Z</time>
      </trkpt>
      <trkpt lat="45.68964" lon="2.05169">
        <ele>826</ele>
        <time>2022-08-03T10:35:22Z</time>
      </trkpt>
      <trkpt lat="45.68961" lon="2.05171">
        <ele>826.3</ele>
        <time>2022-08-03T10:35:24Z</time>
      </trkpt>
      <trkpt lat="45.68958" lon="2.05172">
        <ele>826.5</ele>
        <time>2022-08-03T10:35:26Z</time>
      </trkpt>
      <trkpt lat="45.68954" lon="2.05174">
        <ele>826.9</ele>
        <time>2022-08-03T10:35:28Z</time>
      </trkpt>
      <trkpt lat="45.68952" lon="2.05176">
        <ele>827.2</ele>
        <time>2022-08-03T10:35:30Z</time>
      </trkpt>
      <trkpt lat="45.68948" lon="2.05178">
        <ele>827.5</ele>
        <time>2022-08-03T10:35:32Z</time>
      </trkpt>
      <trkpt lat="45.68946" lon="2.0518">
        <ele>827.8</ele>
        <time>2022-08-03T10:35:34Z</time>
      </trkpt>
      <trkpt lat="45.68943" lon="2.05181">
        <ele>827.9</ele>
        <time>2022-08-03T10:35:36Z</time>
      </trkpt>
      <trkpt lat="45.68939" lon="2.05183">
        <ele>828.2</ele>
        <time>2022-08-03T10:35:38Z</time>
      </trkpt>
      <trkpt lat="45.68936" lon="2.05186">
        <ele>828.5</ele>
        <time>2022-08-03T10:35:40Z</time>
      </trkpt>
      <trkpt lat="45.68933" lon="2.05186">
        <ele>828.6</ele>
        <time>2022-08-03T10:35:42Z</time>
      </trkpt>
      <trkpt lat="45.6893" lon="2.05188">
        <ele>828.7</ele>
        <time>2022-08-03T10:35:44Z</time>
      </trkpt>
      <trkpt lat="45.68927" lon="2.05189">
        <ele>828.9</ele>
        <time>2022-08-03T10:35:46Z</time>
      </trkpt>
      <trkpt lat="45.68923" lon="2.05189">
        <ele>828.9</ele>
        <time>2022-08-03T10:35:48Z</time>
      </trkpt>
      <trkpt lat="45.68919" lon="2.0519">
        <ele>829.1</ele>
        <time>2022-08-03T10:35:50Z</time>
      </trkpt>
      <trkpt lat="45.68916" lon="2.05189">
        <ele>829.1</ele>
        <time>2022-08-03T10:35:52Z</time>
      </trkpt>
      <trkpt lat="45.68912" lon="2.05189">
        <ele>829.1</ele>
        <time>2022-08-03T10:35:54Z</time>
      </trkpt>
      <trkpt lat="45.68909" lon="2.05187">
        <ele>829.1</ele>
        <time>2022-08-03T10:35:56Z</time>
      </trkpt>
      <trkpt lat="45.68905" lon="2.05186">
        <ele>829.1</ele>
        <time>2022-08-03T10:35:58Z</time>
      </trkpt>
      <trkpt lat="45.68902" lon="2.05183">
        <ele>829</ele>
        <time>2022-08-03T10:36:00Z</time>
      </trkpt>
      <trkpt lat="45.68899" lon="2.05181">
        <ele>829</ele>
        <time>2022-08-03T10:36:02Z</time>
      </trkpt>
      <trkpt lat="45.68897" lon="2.05178">
        <ele>828.9</ele>
        <time>2022-08-03T10:36:04Z</time>
      </trkpt>
      <trkpt lat="45.68894" lon="2.05176">
        <ele>828.8</ele>
        <time>2022-08-03T10:36:06Z</time>
      </trkpt>
      <trkpt lat="45.68891" lon="2.05173">
        <ele>828.7</ele>
        <time>2022-08-03T10:36:08Z</time>
      </trkpt>
      <trkpt lat="45.68888" lon="2.05171">
        <ele>828.6</ele>
        <time>2022-08-03T10:36:10Z</time>
      </trkpt>
      <trkpt lat="45.68885" lon="2.0517">
        <ele>828.6</ele>
        <time>2022-08-03T10:36:12Z</time>
      </trkpt>
      <trkpt lat="45.68882" lon="2.05167">
        <ele>828.5</ele>
        <time>2022-08-03T10:36:14Z</time>
      </trkpt>
      <trkpt lat="45.68879" lon="2.05165">
        <ele>828.7</ele>
        <time>2022-08-03T10:36:16Z</time>
      </trkpt>
      <trkpt lat="45.68876" lon="2.05162">
        <ele>829.1</ele>
        <time>2022-08-03T10:36:18Z</time>
      </trkpt>
      <trkpt lat="45.68873" lon="2.05159">
        <ele>829.5</ele>
        <time>2022-08-03T10:36:20Z</time>
      </trkpt>
      <trkpt lat="45.68869" lon="2.05156">
        <ele>830</ele>
        <time>2022-08-03T10:36:22Z</time>
      </trkpt>
      <trkpt lat="45.68866" lon="2.05154">
        <ele>830.3</ele>
        <time>2022-08-03T10:36:24Z</time>
      </trkpt>
      <trkpt lat="45.68862" lon="2.05152">
        <ele>830.7</ele>
        <time>2022-08-03T10:36:26Z</time>
      </trkpt>
      <trkpt lat="45.68859" lon="2.05149">
        <ele>831.1</ele>
        <time>2022-08-03T10:36:28Z</time>
      </trkpt>
      <trkpt lat="45.68856" lon="2.05147">
        <ele>831.4</ele>
        <time>2022-08-03T10:36:30Z</time>
      </trkpt>
      <trkpt lat="45.68852" lon="2.05144">
        <ele>831.8</ele>
        <time>2022-08-03T10:36:32Z</time>
      </trkpt>
      <trkpt lat="45.68849" lon="2.05142">
        <ele>832.2</ele>
        <time>2022-08-03T10:36:34Z</time>
      </trkpt>
      <trkpt lat="45.68846" lon="2.05139">
        <ele>832.6</ele>
        <time>2022-08-03T10:36:36Z</time>
      </trkpt>
      <trkpt lat="45.68842" lon="2.05137">
        <ele>832.8</ele>
        <time>2022-08-03T10:36:38Z</time>
      </trkpt>
      <trkpt lat="45.68838" lon="2.05136">
        <ele>833</ele>
        <time>2022-08-03T10:36:40Z</time>
      </trkpt>
      <trkpt lat="45.68835" lon="2.05134">
        <ele>833.3</ele>
        <time>2022-08-03T10:36:42Z</time>
      </trkpt>
      <trkpt lat="45.68831" lon="2.05132">
        <ele>833.5</ele>
        <time>2022-08-03T10:36:44Z</time>
      </trkpt>
      <trkpt lat="45.68827" lon="2.0513">
        <ele>833.7</ele>
        <time>2022-08-03T10:36:46Z</time>
      </trkpt>
      <trkpt lat="45.68824" lon="2.05129">
        <ele>833.8</ele>
        <time>2022-08-03T10:36:48Z</time>
      </trkpt>
      <trkpt lat="45.6882" lon="2.05127">
        <ele>833.9</ele>
        <time>2022-08-03T10:36:50Z</time>
      </trkpt>
      <trkpt lat="45.68816" lon="2.05127">
        <ele>833.8</ele>
        <time>2022-08-03T10:36:52Z</time>
      </trkpt>
      <trkpt lat="45.68813" lon="2.05127">
        <ele>833.7</ele>
        <time>2022-08-03T10:36:54Z</time>
      </trkpt>
      <trkpt lat="45.68809" lon="2.05127">
        <ele>833.6</ele>
        <time>2022-08-03T10:36:56Z</time>
      </trkpt>
      <trkpt lat="45.68806" lon="2.05127">
        <ele>833.6</ele>
        <time>2022-08-03T10:36:58Z</time>
      </trkpt>
      <trkpt lat="45.68802" lon="2.05127">
        <ele>833.5</ele>
        <time>2022-08-03T10:37:00Z</time>
      </trkpt>
      <trkpt lat="45.68799" lon="2.05127">
        <ele>833.4</ele>
        <time>2022-08-03T10:37:02Z</time>
      </trkpt>
      <trkpt lat="45.68795" lon="2.05128">
        <ele>833.2</ele>
        <time>2022-08-03T10:37:04Z</time>
      </trkpt>
      <trkpt lat="45.68792" lon="2.0513">
        <ele>832.9</ele>
        <time>2022-08-03T10:37:06Z</time>
      </trkpt>
      <trkpt lat="45.68788" lon="2.05131">
        <ele>832.7</ele>
        <time>2022-08-03T10:37:08Z</time>
      </trkpt>
      <trkpt lat="45.68784" lon="2.05131">
        <ele>832.6</ele>
        <time>2022-08-03T10:37:10Z</time>
      </trkpt>
      <trkpt lat="45.6878" lon="2.05132">
        <ele>832.4</ele>
        <time>2022-08-03T10:37:12Z</time>
      </trkpt>
      <trkpt lat="45.68776" lon="2.05133">
        <ele>832.2</ele>
        <time>2022-08-03T10:37:14Z</time>
      </trkpt>
      <trkpt lat="45.68772" lon="2.05133">
        <ele>832.1</ele>
        <time>2022-08-03T10:37:16Z</time>
      </trkpt>
      <trkpt lat="45.68768" lon="2.05134">
        <ele>831.9</ele>
        <time>2022-08-03T10:37:18Z</time>
      </trkpt>
      <trkpt lat="45.68764" lon="2.05135">
        <ele>831.7</ele>
        <time>2022-08-03T10:37:20Z</time>
      </trkpt>
      <trkpt lat="45.6876" lon="2.05136">
        <ele>831.5</ele>
        <time>2022-08-03T10:37:22Z</time>
      </trkpt>
      <trkpt lat="45.68756" lon="2.05137">
        <ele>831.3</ele>
        <time>2022-08-03T10:37:24Z</time>
      </trkpt>
      <trkpt lat="45.68752" lon="2.05138">
        <ele>831.1</ele>
        <time>2022-08-03T10:37:26Z</time>
      </trkpt>
      <trkpt lat="45.68748" lon="2.05138">
        <ele>831.2</ele>
        <time>2022-08-03T10:37:28Z</time>
      </trkpt>
      <trkpt lat="45.68744" lon="2.05139">
        <ele>831.4</ele>
        <time>2022-08-03T10:37:30Z</time>
      </trkpt>
      <trkpt lat="45.6874" lon="2.0514">
        <ele>831.6</ele>
        <time>2022-08-03T10:37:32Z</time>
      </trkpt>
      <trkpt lat="45.68736" lon="2.05141">
        <ele>831.8</ele>
        <time>2022-08-03T10:37:34Z</time>
      </trkpt>
      <trkpt lat="45.68733" lon="2.05142">
        <ele>831.9</ele>
        <time>2022-08-03T10:37:36Z</time>
      </trkpt>
      <trkpt lat="45.68729" lon="2.05143">
        <ele>832</ele>
        <time>2022-08-03T10:37:38Z</time>
      </trkpt>
      <trkpt lat="45.68726" lon="2.05144">
        <ele>832.1</ele>
        <time>2022-08-03T10:37:40Z</time>
      </trkpt>
      <trkpt lat="45.68722" lon="2.05145">
        <ele>832.3</ele>
        <time>2022-08-03T10:37:42Z</time>
      </trkpt>
      <trkpt lat="45.68718" lon="2.05147">
        <ele>832.5</ele>
        <time>2022-08-03T10:37:44Z</time>
      </trkpt>
      <trkpt lat="45.68714" lon="2.05149">
        <ele>832.5</ele>
        <time>2022-08-03T10:37:46Z</time>
      </trkpt>
      <trkpt lat="45.6871" lon="2.05151">
        <ele>832.6</ele>
        <time>2022-08-03T10:37:48Z</time>
      </trkpt>
      <trkpt lat="45.68706" lon="2.05153">
        <ele>832.6</ele>
        <time>2022-08-03T10:37:50Z</time>
      </trkpt>
      <trkpt lat="45.68702" lon="2.05156">
        <ele>832.7</ele>
        <time>2022-08-03T10:37:52Z</time>
      </trkpt>
      <trkpt lat="45.68698" lon="2.05158">
        <ele>832.7</ele>
        <time>2022-08-03T10:37:54Z</time>
      </trkpt>
      <trkpt lat="45.68694" lon="2.05159">
        <ele>832.8</ele>
        <time>2022-08-03T10:37:56Z</time>
      </trkpt>
      <trkpt lat="45.6869" lon="2.05161">
        <ele>832.9</ele>
        <time>2022-08-03T10:37:58Z</time>
      </trkpt>
      <trkpt lat="45.68686" lon="2.05163">
        <ele>833</ele>
        <time>2022-08-03T10:38:00Z</time>
      </trkpt>
      <trkpt lat="45.68682" lon="2.05163">
        <ele>833.3</ele>
        <time>2022-08-03T10:38:02Z</time>
      </trkpt>
      <trkpt lat="45.68678" lon="2.05164">
        <ele>833.5</ele>
        <time>2022-08-03T10:38:04Z</time>
      </trkpt>
      <trkpt lat="45.68674" lon="2.05165">
        <ele>833.7</ele>
        <time>2022-08-03T10:38:06Z</time>
      </trkpt>
      <trkpt lat="45.68669" lon="2.05165">
        <ele>834</ele>
        <time>2022-08-03T10:38:08Z</time>
      </trkpt>
      <trkpt lat="45.68665" lon="2.05166">
        <ele>834.1</ele>
        <time>2022-08-03T10:38:10Z</time>
      </trkpt>
      <trkpt lat="45.68661" lon="2.05166">
        <ele>834.2</ele>
        <time>2022-08-03T10:38:12Z</time>
      </trkpt>
      <trkpt lat="45.68657" lon="2.05166">
        <ele>834.2</ele>
        <time>2022-08-03T10:38:14Z</time>
      </trkpt>
      <trkpt lat="45.68652" lon="2.05165">
        <ele>834.3</ele>
        <time>2022-08-03T10:38:16Z</time>
      </trkpt>
      <trkpt lat="45.68648" lon="2.05166">
        <ele>834.3</ele>
        <time>2022-08-03T10:38:18Z</time>
      </trkpt>
      <trkpt lat="45.68644" lon="2.05166">
        <ele>834.4</ele>
        <time>2022-08-03T10:38:20Z</time>
      </trkpt>
      <trkpt lat="45.6864" lon="2.05165">
        <ele>834.5</ele>
        <time>2022-08-03T10:38:22Z</time>
      </trkpt>
      <trkpt lat="45.68636" lon="2.05165">
        <ele>834.6</ele>
        <time>2022-08-03T10:38:24Z</time>
      </trkpt>
      <trkpt lat="45.68631" lon="2.05164">
        <ele>834.7</ele>
        <time>2022-08-03T10:38:26Z</time>
      </trkpt>
      <trkpt lat="45.68627" lon="2.05162">
        <ele>834.9</ele>
        <time>2022-08-03T10:38:28Z</time>
      </trkpt>
      <trkpt lat="45.68622" lon="2.0516">
        <ele>835.1</ele>
        <time>2022-08-03T10:38:30Z</time>
      </trkpt>
      <trkpt lat="45.68618" lon="2.05159">
        <ele>835.2</ele>
        <time>2022-08-03T10:38:32Z</time>
      </trkpt>
      <trkpt lat="45.68614" lon="2.05157">
        <ele>835.4</ele>
        <time>2022-08-03T10:38:34Z</time>
      </trkpt>
      <trkpt lat="45.6861" lon="2.05155">
        <ele>835.6</ele>
        <time>2022-08-03T10:38:36Z</time>
      </trkpt>
      <trkpt lat="45.68606" lon="2.05153">
        <ele>835.7</ele>
        <time>2022-08-03T10:38:38Z</time>
      </trkpt>
      <trkpt lat="45.68602" lon="2.05151">
        <ele>835.9</ele>
        <time>2022-08-03T10:38:40Z</time>
      </trkpt>
      <trkpt lat="45.68598" lon="2.0515">
        <ele>836</ele>
        <time>2022-08-03T10:38:42Z</time>
      </trkpt>
      <trkpt lat="45.68595" lon="2.05147">
        <ele>836.2</ele>
        <time>2022-08-03T10:38:44Z</time>
      </trkpt>
      <trkpt lat="45.68591" lon="2.05145">
        <ele>836.3</ele>
        <time>2022-08-03T10:38:46Z</time>
      </trkpt>
      <trkpt lat="45.68587" lon="2.05142">
        <ele>836.5</ele>
        <time>2022-08-03T10:38:48Z</time>
      </trkpt>
      <trkpt lat="45.68583" lon="2.0514">
        <ele>836.6</ele>
        <time>2022-08-03T10:38:50Z</time>
      </trkpt>
      <trkpt lat="45.6858" lon="2.05138">
        <ele>836.7</ele>
        <time>2022-08-03T10:38:52Z</time>
      </trkpt>
      <trkpt lat="45.68576" lon="2.05136">
        <ele>836.9</ele>
        <time>2022-08-03T10:38:54Z</time>
      </trkpt>
      <trkpt lat="45.68572" lon="2.05134">
        <ele>837</ele>
        <time>2022-08-03T10:38:56Z</time>
      </trkpt>
      <trkpt lat="45.68568" lon="2.05131">
        <ele>837.2</ele>
        <time>2022-08-03T10:38:58Z</time>
      </trkpt>
      <trkpt lat="45.68564" lon="2.05129">
        <ele>837.4</ele>
        <time>2022-08-03T10:39:00Z</time>
      </trkpt>
      <trkpt lat="45.68561" lon="2.05127">
        <ele>837.5</ele>
        <time>2022-08-03T10:39:02Z</time>
      </trkpt>
      <trkpt lat="45.68557" lon="2.05125">
        <ele>837.7</ele>
        <time>2022-08-03T10:39:04Z</time>
      </trkpt>
      <trkpt lat="45.68553" lon="2.05122">
        <ele>837.9</ele>
        <time>2022-08-03T10:39:06Z</time>
      </trkpt>
      <trkpt lat="45.6855" lon="2.0512">
        <ele>838</ele>
        <time>2022-08-03T10:39:08Z</time>
      </trkpt>
      <trkpt lat="45.68546" lon="2.05118">
        <ele>838.2</ele>
        <time>2022-08-03T10:39:10Z</time>
      </trkpt>
      <trkpt lat="45.68542" lon="2.05116">
        <ele>838.3</ele>
        <time>2022-08-03T10:39:12Z</time>
      </trkpt>
      <trkpt lat="45.68538" lon="2.05114">
        <ele>838.5</ele>
        <time>2022-08-03T10:39:14Z</time>
      </trkpt>
      <trkpt lat="45.68534" lon="2.05113">
        <ele>838.6</ele>
        <time>2022-08-03T10:39:16Z</time>
      </trkpt>
      <trkpt lat="45.6853" lon="2.05112">
        <ele>838.7</ele>
        <time>2022-08-03T10:39:18Z</time>
      </trkpt>
      <trkpt lat="45.68526" lon="2.05111">
        <ele>838.8</ele>
        <time>2022-08-03T10:39:20Z</time>
      </trkpt>
      <trkpt lat="45.68522" lon="2.0511">
        <ele>838.9</ele>
        <time>2022-08-03T10:39:22Z</time>
      </trkpt>
      <trkpt lat="45.68518" lon="2.05109">
        <ele>839</ele>
        <time>2022-08-03T10:39:24Z</time>
      </trkpt>
      <trkpt lat="45.68514" lon="2.05108">
        <ele>839.1</ele>
        <time>2022-08-03T10:39:26Z</time>
      </trkpt>
      <trkpt lat="45.6851" lon="2.05107">
        <ele>839.2</ele>
        <time>2022-08-03T10:39:28Z</time>
      </trkpt>
      <trkpt lat="45.68506" lon="2.05106">
        <ele>839.3</ele>
        <time>2022-08-03T10:39:30Z</time>
      </trkpt>
      <trkpt lat="45.68502" lon="2.05106">
        <ele>839.3</ele>
        <time>2022-08-03T10:39:32Z</time>
      </trkpt>
      <trkpt lat="45.68499" lon="2.05105">
        <ele>839.5</ele>
        <time>2022-08-03T10:39:34Z</time>
      </trkpt>
      <trkpt lat="45.68495" lon="2.05104">
        <ele>839.9</ele>
        <time>2022-08-03T10:39:36Z</time>
      </trkpt>
      <trkpt lat="45.68491" lon="2.05103">
        <ele>840.2</ele>
        <time>2022-08-03T10:39:38Z</time>
      </trkpt>
      <trkpt lat="45.68487" lon="2.05102">
        <ele>840.4</ele>
        <time>2022-08-03T10:39:40Z</time>
      </trkpt>
      <trkpt lat="45.68483" lon="2.05102">
        <ele>840.7</ele>
        <time>2022-08-03T10:39:42Z</time>
      </trkpt>
      <trkpt lat="45.68479" lon="2.051">
        <ele>841.1</ele>
        <time>2022-08-03T10:39:44Z</time>
      </trkpt>
      <trkpt lat="45.68475" lon="2.05099">
        <ele>841.3</ele>
        <time>2022-08-03T10:39:46Z</time>
      </trkpt>
      <trkpt lat="45.68471" lon="2.05098">
        <ele>841.6</ele>
        <time>2022-08-03T10:39:48Z</time>
      </trkpt>
      <trkpt lat="45.68467" lon="2.05098">
        <ele>841.9</ele>
        <time>2022-08-03T10:39:50Z</time>
      </trkpt>
      <trkpt lat="45.68463" lon="2.05097">
        <ele>842.2</ele>
        <time>2022-08-03T10:39:52Z</time>
      </trkpt>
      <trkpt lat="45.68459" lon="2.05097">
        <ele>842.4</ele>
        <time>2022-08-03T10:39:54Z</time>
      </trkpt>
      <trkpt lat="45.68455" lon="2.05096">
        <ele>842.7</ele>
        <time>2022-08-03T10:39:56Z</time>
      </trkpt>
      <trkpt lat="45.68451" lon="2.05095">
        <ele>843</ele>
        <time>2022-08-03T10:39:58Z</time>
      </trkpt>
      <trkpt lat="45.68447" lon="2.05093">
        <ele>843.2</ele>
        <time>2022-08-03T10:40:00Z</time>
      </trkpt>
      <trkpt lat="45.68442" lon="2.05091">
        <ele>843.5</ele>
        <time>2022-08-03T10:40:02Z</time>
      </trkpt>
      <trkpt lat="45.68439" lon="2.05089">
        <ele>843.8</ele>
        <time>2022-08-03T10:40:04Z</time>
      </trkpt>
      <trkpt lat="45.68434" lon="2.05088">
        <ele>844</ele>
        <time>2022-08-03T10:40:06Z</time>
      </trkpt>
      <trkpt lat="45.6843" lon="2.05087">
        <ele>844.3</ele>
        <time>2022-08-03T10:40:08Z</time>
      </trkpt>
      <trkpt lat="45.68426" lon="2.05087">
        <ele>844.5</ele>
        <time>2022-08-03T10:40:10Z</time>
      </trkpt>
      <trkpt lat="45.68422" lon="2.05086">
        <ele>844.7</ele>
        <time>2022-08-03T10:40:12Z</time>
      </trkpt>
      <trkpt lat="45.68418" lon="2.05085">
        <ele>844.9</ele>
        <time>2022-08-03T10:40:14Z</time>
      </trkpt>
      <trkpt lat="45.68414" lon="2.05083">
        <ele>845.3</ele>
        <time>2022-08-03T10:40:16Z</time>
      </trkpt>
      <trkpt lat="45.68409" lon="2.05081">
        <ele>845.6</ele>
        <time>2022-08-03T10:40:18Z</time>
      </trkpt>
      <trkpt lat="45.68405" lon="2.05079">
        <ele>845.9</ele>
        <time>2022-08-03T10:40:20Z</time>
      </trkpt>
      <trkpt lat="45.684" lon="2.05077">
        <ele>846.3</ele>
        <time>2022-08-03T10:40:22Z</time>
      </trkpt>
      <trkpt lat="45.68395" lon="2.05077">
        <ele>846.6</ele>
        <time>2022-08-03T10:40:24Z</time>
      </trkpt>
      <trkpt lat="45.6839" lon="2.05074">
        <ele>846.9</ele>
        <time>2022-08-03T10:40:26Z</time>
      </trkpt>
      <trkpt lat="45.68386" lon="2.05074">
        <ele>847.2</ele>
        <time>2022-08-03T10:40:28Z</time>
      </trkpt>
      <trkpt lat="45.68381" lon="2.05073">
        <ele>847.5</ele>
        <time>2022-08-03T10:40:30Z</time>
      </trkpt>
      <trkpt lat="45.68376" lon="2.05071">
        <ele>847.8</ele>
        <time>2022-08-03T10:40:32Z</time>
      </trkpt>
      <trkpt lat="45.68372" lon="2.0507">
        <ele>848.1</ele>
        <time>2022-08-03T10:40:34Z</time>
      </trkpt>
      <trkpt lat="45.68367" lon="2.05069">
        <ele>848.3</ele>
        <time>2022-08-03T10:40:36Z</time>
      </trkpt>
      <trkpt lat="45.68363" lon="2.05066">
        <ele>848.5</ele>
        <time>2022-08-03T10:40:38Z</time>
      </trkpt>
      <trkpt lat="45.68359" lon="2.05065">
        <ele>848.7</ele>
        <time>2022-08-03T10:40:40Z</time>
      </trkpt>
      <trkpt lat="45.68355" lon="2.05064">
        <ele>848.9</ele>
        <time>2022-08-03T10:40:42Z</time>
      </trkpt>
      <trkpt lat="45.6835" lon="2.05062">
        <ele>849.1</ele>
        <time>2022-08-03T10:40:44Z</time>
      </trkpt>
      <trkpt lat="45.68346" lon="2.0506">
        <ele>849.2</ele>
        <time>2022-08-03T10:40:46Z</time>
      </trkpt>
      <trkpt lat="45.68342" lon="2.05058">
        <ele>849.4</ele>
        <time>2022-08-03T10:40:48Z</time>
      </trkpt>
      <trkpt lat="45.68337" lon="2.05056">
        <ele>849.5</ele>
        <time>2022-08-03T10:40:50Z</time>
      </trkpt>
      <trkpt lat="45.68333" lon="2.05055">
        <ele>849.7</ele>
        <time>2022-08-03T10:40:52Z</time>
      </trkpt>
      <trkpt lat="45.68328" lon="2.05053">
        <ele>849.8</ele>
        <time>2022-08-03T10:40:54Z</time>
      </trkpt>
      <trkpt lat="45.68324" lon="2.05051">
        <ele>849.9</ele>
        <time>2022-08-03T10:40:56Z</time>
      </trkpt>
      <trkpt lat="45.68319" lon="2.05049">
        <ele>850.1</ele>
        <time>2022-08-03T10:40:58Z</time>
      </trkpt>
      <trkpt lat="45.68315" lon="2.05048">
        <ele>850.2</ele>
        <time>2022-08-03T10:41:00Z</time>
      </trkpt>
      <trkpt lat="45.6831" lon="2.05046">
        <ele>850.4</ele>
        <time>2022-08-03T10:41:02Z</time>
      </trkpt>
      <trkpt lat="45.68306" lon="2.05045">
        <ele>850.6</ele>
        <time>2022-08-03T10:41:04Z</time>
      </trkpt>
      <trkpt lat="45.68301" lon="2.05044">
        <ele>850.8</ele>
        <time>2022-08-03T10:41:06Z</time>
      </trkpt>
      <trkpt lat="45.68297" lon="2.05042">
        <ele>850.9</ele>
        <time>2022-08-03T10:41:08Z</time>
      </trkpt>
      <trkpt lat="45.68293" lon="2.05041">
        <ele>851.1</ele>
        <time>2022-08-03T10:41:10Z</time>
      </trkpt>
      <trkpt lat="45.68291" lon="2.05041">
        <ele>851.2</ele>
        <time>2022-08-03T10:41:12Z</time>
      </trkpt>
      <trkpt lat="45.6829" lon="2.0504">
        <ele>851.2</ele>
        <time>2022-08-03T10:41:14Z</time>
      </trkpt>
      <trkpt lat="45.6829" lon="2.0504">
        <ele>851.2</ele>
        <time>2022-08-03T10:41:16Z</time>
      </trkpt>
      <trkpt lat="45.6829" lon="2.0504">
        <ele>851.2</ele>
        <time>2022-08-03T10:41:18Z</time>
      </trkpt>
      <trkpt lat="45.68289" lon="2.0504">
        <ele>851.2</ele>
        <time>2022-08-03T10:41:20Z</time>
      </trkpt>
      <trkpt lat="45.6827" lon="2.05044">
        <ele>852.9</ele>
        <time>2022-08-03T10:44:24Z</time>
      </trkpt>
      <trkpt lat="45.68265" lon="2.05044">
        <ele>853.3</ele>
        <time>2022-08-03T10:44:26Z</time>
      </trkpt>
      <trkpt lat="45.6826" lon="2.05045">
        <ele>853.6</ele>
        <time>2022-08-03T10:44:28Z</time>
      </trkpt>
      <trkpt lat="45.68254" lon="2.05045">
        <ele>854.1</ele>
        <time>2022-08-03T10:44:30Z</time>
      </trkpt>
      <trkpt lat="45.68249" lon="2.05045">
        <ele>854.4</ele>
        <time>2022-08-03T10:44:32Z</time>
      </trkpt>
      <trkpt lat="45.68243" lon="2.05046">
        <ele>854.4</ele>
        <time>2022-08-03T10:44:34Z</time>
      </trkpt>
      <trkpt lat="45.68238" lon="2.05046">
        <ele>854.4</ele>
        <time>2022-08-03T10:44:36Z</time>
      </trkpt>
      <trkpt lat="45.68232" lon="2.05047">
        <ele>854.5</ele>
        <time>2022-08-03T10:44:38Z</time>
      </trkpt>
      <trkpt lat="45.68227" lon="2.05047">
        <ele>854.6</ele>
        <time>2022-08-03T10:44:40Z</time>
      </trkpt>
      <trkpt lat="45.68221" lon="2.05047">
        <ele>854.6</ele>
        <time>2022-08-03T10:44:42Z</time>
      </trkpt>
      <trkpt lat="45.68215" lon="2.05048">
        <ele>854.7</ele>
        <time>2022-08-03T10:44:44Z</time>
      </trkpt>
      <trkpt lat="45.68209" lon="2.05048">
        <ele>854.8</ele>
        <time>2022-08-03T10:44:46Z</time>
      </trkpt>
      <trkpt lat="45.68204" lon="2.05048">
        <ele>854.8</ele>
        <time>2022-08-03T10:44:48Z</time>
      </trkpt>
      <trkpt lat="45.68198" lon="2.05049">
        <ele>854.9</ele>
        <time>2022-08-03T10:44:50Z</time>
      </trkpt>
      <trkpt lat="45.68192" lon="2.05048">
        <ele>854.8</ele>
        <time>2022-08-03T10:44:52Z</time>
      </trkpt>
      <trkpt lat="45.68187" lon="2.05048">
        <ele>854.9</ele>
        <time>2022-08-03T10:44:54Z</time>
      </trkpt>
      <trkpt lat="45.68182" lon="2.05048">
        <ele>854.9</ele>
        <time>2022-08-03T10:44:56Z</time>
      </trkpt>
      <trkpt lat="45.68177" lon="2.05049">
        <ele>855.1</ele>
        <time>2022-08-03T10:44:58Z</time>
      </trkpt>
      <trkpt lat="45.68172" lon="2.05049">
        <ele>855</ele>
        <time>2022-08-03T10:45:00Z</time>
      </trkpt>
      <trkpt lat="45.68166" lon="2.05048">
        <ele>855</ele>
        <time>2022-08-03T10:45:02Z</time>
      </trkpt>
      <trkpt lat="45.68161" lon="2.05048">
        <ele>855.2</ele>
        <time>2022-08-03T10:45:04Z</time>
      </trkpt>
      <trkpt lat="45.68156" lon="2.05049">
        <ele>855.4</ele>
        <time>2022-08-03T10:45:06Z</time>
      </trkpt>
      <trkpt lat="45.68151" lon="2.05049">
        <ele>855.7</ele>
        <time>2022-08-03T10:45:08Z</time>
      </trkpt>
      <trkpt lat="45.68146" lon="2.05049">
        <ele>855.9</ele>
        <time>2022-08-03T10:45:10Z</time>
      </trkpt>
      <trkpt lat="45.6814" lon="2.05048">
        <ele>856</ele>
        <time>2022-08-03T10:45:12Z</time>
      </trkpt>
      <trkpt lat="45.68135" lon="2.05047">
        <ele>856.2</ele>
        <time>2022-08-03T10:45:14Z</time>
      </trkpt>
      <trkpt lat="45.6813" lon="2.05048">
        <ele>856.5</ele>
        <time>2022-08-03T10:45:16Z</time>
      </trkpt>
      <trkpt lat="45.68125" lon="2.05049">
        <ele>856.8</ele>
        <time>2022-08-03T10:45:18Z</time>
      </trkpt>
      <trkpt lat="45.6812" lon="2.05048">
        <ele>857</ele>
        <time>2022-08-03T10:45:20Z</time>
      </trkpt>
      <trkpt lat="45.68114" lon="2.05048">
        <ele>857.1</ele>
        <time>2022-08-03T10:45:22Z</time>
      </trkpt>
      <trkpt lat="45.68109" lon="2.05049">
        <ele>857.5</ele>
        <time>2022-08-03T10:45:24Z</time>
      </trkpt>
      <trkpt lat="45.68104" lon="2.05049">
        <ele>857.7</ele>
        <time>2022-08-03T10:45:26Z</time>
      </trkpt>
      <trkpt lat="45.68098" lon="2.05048">
        <ele>857.9</ele>
        <time>2022-08-03T10:45:28Z</time>
      </trkpt>
      <trkpt lat="45.68093" lon="2.05049">
        <ele>858.3</ele>
        <time>2022-08-03T10:45:30Z</time>
      </trkpt>
      <trkpt lat="45.68087" lon="2.0505">
        <ele>858.6</ele>
        <time>2022-08-03T10:45:32Z</time>
      </trkpt>
      <trkpt lat="45.68081" lon="2.0505">
        <ele>858.7</ele>
        <time>2022-08-03T10:45:34Z</time>
      </trkpt>
      <trkpt lat="45.68074" lon="2.0505">
        <ele>858.3</ele>
        <time>2022-08-03T10:45:36Z</time>
      </trkpt>
      <trkpt lat="45.68067" lon="2.05051">
        <ele>858</ele>
        <time>2022-08-03T10:45:38Z</time>
      </trkpt>
      <trkpt lat="45.6806" lon="2.05052">
        <ele>857.7</ele>
        <time>2022-08-03T10:45:40Z</time>
      </trkpt>
      <trkpt lat="45.68053" lon="2.05053">
        <ele>857.4</ele>
        <time>2022-08-03T10:45:42Z</time>
      </trkpt>
      <trkpt lat="45.68045" lon="2.05054">
        <ele>857</ele>
        <time>2022-08-03T10:45:44Z</time>
      </trkpt>
      <trkpt lat="45.68038" lon="2.05054">
        <ele>856.6</ele>
        <time>2022-08-03T10:45:46Z</time>
      </trkpt>
      <trkpt lat="45.6803" lon="2.05056">
        <ele>856.3</ele>
        <time>2022-08-03T10:45:48Z</time>
      </trkpt>
      <trkpt lat="45.68024" lon="2.05059">
        <ele>856.3</ele>
        <time>2022-08-03T10:45:50Z</time>
      </trkpt>
      <trkpt lat="45.68017" lon="2.05063">
        <ele>856.2</ele>
        <time>2022-08-03T10:45:52Z</time>
      </trkpt>
      <trkpt lat="45.6801" lon="2.05068">
        <ele>856.3</ele>
        <time>2022-08-03T10:45:54Z</time>
      </trkpt>
      <trkpt lat="45.68004" lon="2.05074">
        <ele>856.4</ele>
        <time>2022-08-03T10:45:56Z</time>
      </trkpt>
      <trkpt lat="45.67997" lon="2.05079">
        <ele>856.4</ele>
        <time>2022-08-03T10:45:58Z</time>
      </trkpt>
      <trkpt lat="45.67991" lon="2.05084">
        <ele>856.4</ele>
        <time>2022-08-03T10:46:00Z</time>
      </trkpt>
      <trkpt lat="45.67985" lon="2.05088">
        <ele>856.4</ele>
        <time>2022-08-03T10:46:02Z</time>
      </trkpt>
      <trkpt lat="45.67979" lon="2.05093">
        <ele>856.4</ele>
        <time>2022-08-03T10:46:04Z</time>
      </trkpt>
      <trkpt lat="45.67973" lon="2.05098">
        <ele>856.3</ele>
        <time>2022-08-03T10:46:06Z</time>
      </trkpt>
      <trkpt lat="45.67967" lon="2.05102">
        <ele>856.3</ele>
        <time>2022-08-03T10:46:08Z</time>
      </trkpt>
      <trkpt lat="45.67962" lon="2.05106">
        <ele>856.3</ele>
        <time>2022-08-03T10:46:10Z</time>
      </trkpt>
      <trkpt lat="45.67956" lon="2.0511">
        <ele>856.3</ele>
        <time>2022-08-03T10:46:12Z</time>
      </trkpt>
      <trkpt lat="45.6795" lon="2.05114">
        <ele>856.2</ele>
        <time>2022-08-03T10:46:14Z</time>
      </trkpt>
      <trkpt lat="45.67944" lon="2.05118">
        <ele>856.1</ele>
        <time>2022-08-03T10:46:16Z</time>
      </trkpt>
      <trkpt lat="45.67939" lon="2.05121">
        <ele>856.1</ele>
        <time>2022-08-03T10:46:18Z</time>
      </trkpt>
      <trkpt lat="45.67934" lon="2.05124">
        <ele>856</ele>
        <time>2022-08-03T10:46:20Z</time>
      </trkpt>
      <trkpt lat="45.67928" lon="2.05126">
        <ele>855.9</ele>
        <time>2022-08-03T10:46:22Z</time>
      </trkpt>
      <trkpt lat="45.67922" lon="2.05129">
        <ele>855.7</ele>
        <time>2022-08-03T10:46:24Z</time>
      </trkpt>
      <trkpt lat="45.67916" lon="2.05131">
        <ele>855.6</ele>
        <time>2022-08-03T10:46:26Z</time>
      </trkpt>
      <trkpt lat="45.67909" lon="2.05133">
        <ele>855.6</ele>
        <time>2022-08-03T10:46:28Z</time>
      </trkpt>
      <trkpt lat="45.67902" lon="2.05133">
        <ele>855.4</ele>
        <time>2022-08-03T10:46:30Z</time>
      </trkpt>
      <trkpt lat="45.67896" lon="2.05133">
        <ele>855.3</ele>
        <time>2022-08-03T10:46:32Z</time>
      </trkpt>
      <trkpt lat="45.67889" lon="2.05134">
        <ele>855.2</ele>
        <time>2022-08-03T10:46:34Z</time>
      </trkpt>
      <trkpt lat="45.67882" lon="2.05135">
        <ele>855.1</ele>
        <time>2022-08-03T10:46:36Z</time>
      </trkpt>
      <trkpt lat="45.67875" lon="2.05135">
        <ele>855</ele>
        <time>2022-08-03T10:46:38Z</time>
      </trkpt>
      <trkpt lat="45.67868" lon="2.05136">
        <ele>854.9</ele>
        <time>2022-08-03T10:46:40Z</time>
      </trkpt>
      <trkpt lat="45.67861" lon="2.05138">
        <ele>854.9</ele>
        <time>2022-08-03T10:46:42Z</time>
      </trkpt>
      <trkpt lat="45.67853" lon="2.05139">
        <ele>854.8</ele>
        <time>2022-08-03T10:46:44Z</time>
      </trkpt>
      <trkpt lat="45.67845" lon="2.05141">
        <ele>854.8</ele>
        <time>2022-08-03T10:46:46Z</time>
      </trkpt>
      <trkpt lat="45.67837" lon="2.05144">
        <ele>854.9</ele>
        <time>2022-08-03T10:46:48Z</time>
      </trkpt>
      <trkpt lat="45.6783" lon="2.05147">
        <ele>855</ele>
        <time>2022-08-03T10:46:50Z</time>
      </trkpt>
      <trkpt lat="45.67823" lon="2.05151">
        <ele>855.1</ele>
        <time>2022-08-03T10:46:52Z</time>
      </trkpt>
      <trkpt lat="45.67816" lon="2.05155">
        <ele>855.3</ele>
        <time>2022-08-03T10:46:54Z</time>
      </trkpt>
      <trkpt lat="45.67808" lon="2.0516">
        <ele>855.4</ele>
        <time>2022-08-03T10:46:56Z</time>
      </trkpt>
      <trkpt lat="45.67801" lon="2.05164">
        <ele>855.6</ele>
        <time>2022-08-03T10:46:58Z</time>
      </trkpt>
      <trkpt lat="45.67795" lon="2.05168">
        <ele>855.7</ele>
        <time>2022-08-03T10:47:00Z</time>
      </trkpt>
      <trkpt lat="45.67789" lon="2.05173">
        <ele>855.7</ele>
        <time>2022-08-03T10:47:02Z</time>
      </trkpt>
      <trkpt lat="45.67784" lon="2.05179">
        <ele>855.8</ele>
        <time>2022-08-03T10:47:04Z</time>
      </trkpt>
      <trkpt lat="45.6778" lon="2.05185">
        <ele>855.8</ele>
        <time>2022-08-03T10:47:06Z</time>
      </trkpt>
      <trkpt lat="45.67776" lon="2.0519">
        <ele>855.9</ele>
        <time>2022-08-03T10:47:08Z</time>
      </trkpt>
      <trkpt lat="45.67775" lon="2.05194">
        <ele>855.9</ele>
        <time>2022-08-03T10:47:10Z</time>
      </trkpt>
      <trkpt lat="45.67773" lon="2.05194">
        <ele>855.9</ele>
        <time>2022-08-03T10:47:12Z</time>
      </trkpt>
      <trkpt lat="45.67772" lon="2.05193">
        <ele>855.7</ele>
        <time>2022-08-03T10:47:14Z</time>
      </trkpt>
      <trkpt lat="45.67769" lon="2.05193">
        <ele>855.6</ele>
        <time>2022-08-03T10:47:16Z</time>
      </trkpt>
      <trkpt lat="45.67763" lon="2.05193">
        <ele>855.3</ele>
        <time>2022-08-03T10:47:18Z</time>
      </trkpt>
      <trkpt lat="45.67755" lon="2.05195">
        <ele>854.9</ele>
        <time>2022-08-03T10:47:20Z</time>
      </trkpt>
      <trkpt lat="45.67745" lon="2.05199">
        <ele>854.5</ele>
        <time>2022-08-03T10:47:22Z</time>
      </trkpt>
      <trkpt lat="45.67734" lon="2.05201">
        <ele>853.8</ele>
        <time>2022-08-03T10:47:24Z</time>
      </trkpt>
      <trkpt lat="45.67721" lon="2.05203">
        <ele>853.1</ele>
        <time>2022-08-03T10:47:26Z</time>
      </trkpt>
      <trkpt lat="45.67707" lon="2.05206">
        <ele>852.3</ele>
        <time>2022-08-03T10:47:28Z</time>
      </trkpt>
      <trkpt lat="45.67692" lon="2.05208">
        <ele>851.5</ele>
        <time>2022-08-03T10:47:30Z</time>
      </trkpt>
      <trkpt lat="45.67679" lon="2.0521">
        <ele>850.8</ele>
        <time>2022-08-03T10:47:32Z</time>
      </trkpt>
      <trkpt lat="45.67668" lon="2.05212">
        <ele>850.3</ele>
        <time>2022-08-03T10:47:34Z</time>
      </trkpt>
      <trkpt lat="45.67655" lon="2.05213">
        <ele>850.4</ele>
        <time>2022-08-03T10:47:36Z</time>
      </trkpt>
      <trkpt lat="45.67643" lon="2.05214">
        <ele>850.6</ele>
        <time>2022-08-03T10:47:38Z</time>
      </trkpt>
      <trkpt lat="45.67633" lon="2.05215">
        <ele>850.8</ele>
        <time>2022-08-03T10:47:40Z</time>
      </trkpt>
      <trkpt lat="45.67627" lon="2.05216">
        <ele>850.9</ele>
        <time>2022-08-03T10:47:42Z</time>
      </trkpt>
      <trkpt lat="45.67616" lon="2.0522">
        <ele>851.3</ele>
        <time>2022-08-03T10:47:44Z</time>
      </trkpt>
      <trkpt lat="45.67653" lon="2.05212">
        <ele>850.4</ele>
        <time>2022-08-03T10:47:46Z</time>
      </trkpt>
      <trkpt lat="45.67653" lon="2.05212">
        <ele>850.3</ele>
        <time>2022-08-03T10:47:48Z</time>
      </trkpt>
      <trkpt lat="45.67653" lon="2.05212">
        <ele>850.4</ele>
        <time>2022-08-03T10:47:50Z</time>
      </trkpt>
      <trkpt lat="45.67653" lon="2.05213">
        <ele>850.4</ele>
        <time>2022-08-03T10:47:52Z</time>
      </trkpt>
      <trkpt lat="45.67653" lon="2.05212">
        <ele>850.4</ele>
        <time>2022-08-03T10:47:54Z</time>
      </trkpt>
      <trkpt lat="45.67656" lon="2.05204">
        <ele>849.9</ele>
        <time>2022-08-03T13:26:02Z</time>
      </trkpt>
      <trkpt lat="45.6765" lon="2.05206">
        <ele>850.1</ele>
        <time>2022-08-03T13:26:04Z</time>
      </trkpt>
      <trkpt lat="45.67637" lon="2.05211">
        <ele>850.5</ele>
        <time>2022-08-03T13:27:30Z</time>
      </trkpt>
      <trkpt lat="45.67633" lon="2.05212">
        <ele>850.6</ele>
        <time>2022-08-03T13:27:32Z</time>
      </trkpt>
      <trkpt lat="45.6763" lon="2.05212">
        <ele>850.7</ele>
        <time>2022-08-03T13:27:34Z</time>
      </trkpt>
      <trkpt lat="45.67626" lon="2.05212">
        <ele>850.7</ele>
        <time>2022-08-03T13:27:36Z</time>
      </trkpt>
      <trkpt lat="45.67622" lon="2.05213">
        <ele>850.8</ele>
        <time>2022-08-03T13:27:38Z</time>
      </trkpt>
      <trkpt lat="45.67619" lon="2.05218">
        <ele>851.2</ele>
        <time>2022-08-03T13:27:40Z</time>
      </trkpt>
      <trkpt lat="45.67619" lon="2.05224">
        <ele>851.5</ele>
        <time>2022-08-03T13:27:42Z</time>
      </trkpt>
      <trkpt lat="45.67618" lon="2.0523">
        <ele>851.9</ele>
        <time>2022-08-03T13:27:44Z</time>
      </trkpt>
      <trkpt lat="45.67617" lon="2.05233">
        <ele>852.1</ele>
        <time>2022-08-03T13:27:46Z</time>
      </trkpt>
      <trkpt lat="45.67617" lon="2.05238">
        <ele>852.4</ele>
        <time>2022-08-03T13:27:48Z</time>
      </trkpt>
      <trkpt lat="45.67615" lon="2.05243">
        <ele>852.8</ele>
        <time>2022-08-03T13:27:50Z</time>
      </trkpt>
      <trkpt lat="45.67614" lon="2.05248">
        <ele>853.1</ele>
        <time>2022-08-03T13:27:52Z</time>
      </trkpt>
      <trkpt lat="45.67613" lon="2.05252">
        <ele>853.4</ele>
        <time>2022-08-03T13:27:54Z</time>
      </trkpt>
      <trkpt lat="45.67611" lon="2.05257">
        <ele>853.7</ele>
        <time>2022-08-03T13:27:56Z</time>
      </trkpt>
      <trkpt lat="45.6761" lon="2.05263">
        <ele>854</ele>
        <time>2022-08-03T13:27:58Z</time>
      </trkpt>
      <trkpt lat="45.67608" lon="2.05268">
        <ele>854.3</ele>
        <time>2022-08-03T13:28:00Z</time>
      </trkpt>
      <trkpt lat="45.67606" lon="2.05273">
        <ele>854.6</ele>
        <time>2022-08-03T13:28:02Z</time>
      </trkpt>
      <trkpt lat="45.67604" lon="2.05276">
        <ele>854.9</ele>
        <time>2022-08-03T13:28:04Z</time>
      </trkpt>
      <trkpt lat="45.67602" lon="2.05281">
        <ele>855.1</ele>
        <time>2022-08-03T13:28:06Z</time>
      </trkpt>
      <trkpt lat="45.67601" lon="2.05286">
        <ele>855.5</ele>
        <time>2022-08-03T13:28:08Z</time>
      </trkpt>
      <trkpt lat="45.67598" lon="2.05291">
        <ele>855.8</ele>
        <time>2022-08-03T13:28:10Z</time>
      </trkpt>
      <trkpt lat="45.67595" lon="2.05295">
        <ele>856.2</ele>
        <time>2022-08-03T13:28:12Z</time>
      </trkpt>
      <trkpt lat="45.67593" lon="2.05299">
        <ele>856.5</ele>
        <time>2022-08-03T13:28:14Z</time>
      </trkpt>
      <trkpt lat="45.67589" lon="2.05302">
        <ele>856.8</ele>
        <time>2022-08-03T13:28:16Z</time>
      </trkpt>
      <trkpt lat="45.67586" lon="2.05305">
        <ele>857.2</ele>
        <time>2022-08-03T13:28:18Z</time>
      </trkpt>
      <trkpt lat="45.67583" lon="2.05308">
        <ele>857.5</ele>
        <time>2022-08-03T13:28:20Z</time>
      </trkpt>
      <trkpt lat="45.67581" lon="2.05313">
        <ele>857.7</ele>
        <time>2022-08-03T13:28:22Z</time>
      </trkpt>
      <trkpt lat="45.6758" lon="2.05317">
        <ele>857.8</ele>
        <time>2022-08-03T13:28:24Z</time>
      </trkpt>
      <trkpt lat="45.67578" lon="2.05322">
        <ele>858</ele>
        <time>2022-08-03T13:28:26Z</time>
      </trkpt>
      <trkpt lat="45.67577" lon="2.05326">
        <ele>858.3</ele>
        <time>2022-08-03T13:28:28Z</time>
      </trkpt>
      <trkpt lat="45.67576" lon="2.0533">
        <ele>858.4</ele>
        <time>2022-08-03T13:28:30Z</time>
      </trkpt>
      <trkpt lat="45.67574" lon="2.05334">
        <ele>858.6</ele>
        <time>2022-08-03T13:28:32Z</time>
      </trkpt>
      <trkpt lat="45.67572" lon="2.05336">
        <ele>858.5</ele>
        <time>2022-08-03T13:28:34Z</time>
      </trkpt>
      <trkpt lat="45.6757" lon="2.05337">
        <ele>858.5</ele>
        <time>2022-08-03T13:28:36Z</time>
      </trkpt>
      <trkpt lat="45.67567" lon="2.05338">
        <ele>858.4</ele>
        <time>2022-08-03T13:28:38Z</time>
      </trkpt>
      <trkpt lat="45.67564" lon="2.05336">
        <ele>858.2</ele>
        <time>2022-08-03T13:28:40Z</time>
      </trkpt>
      <trkpt lat="45.67561" lon="2.05333">
        <ele>857.9</ele>
        <time>2022-08-03T13:28:42Z</time>
      </trkpt>
      <trkpt lat="45.67559" lon="2.05331">
        <ele>857.7</ele>
        <time>2022-08-03T13:28:44Z</time>
      </trkpt>
      <trkpt lat="45.67559" lon="2.05331">
        <ele>857.7</ele>
        <time>2022-08-03T13:28:46Z</time>
      </trkpt>
      <trkpt lat="45.67559" lon="2.05331">
        <ele>857.7</ele>
        <time>2022-08-03T13:28:48Z</time>
      </trkpt>
      <trkpt lat="45.67559" lon="2.05331">
        <ele>857.7</ele>
        <time>2022-08-03T13:28:50Z</time>
      </trkpt>
      <trkpt lat="45.67559" lon="2.0533">
        <ele>857.6</ele>
        <time>2022-08-03T13:28:52Z</time>
      </trkpt>
      <trkpt lat="45.67559" lon="2.0533">
        <ele>857.6</ele>
        <time>2022-08-03T13:28:54Z</time>
      </trkpt>
      <trkpt lat="45.67566" lon="2.05337">
        <ele>858.3</ele>
        <time>2022-08-03T13:29:20Z</time>
      </trkpt>
      <trkpt lat="45.67568" lon="2.05341">
        <ele>858.6</ele>
        <time>2022-08-03T13:29:22Z</time>
      </trkpt>
      <trkpt lat="45.67567" lon="2.05347">
        <ele>858.8</ele>
        <time>2022-08-03T13:29:24Z</time>
      </trkpt>
      <trkpt lat="45.67562" lon="2.05353">
        <ele>858.9</ele>
        <time>2022-08-03T13:29:26Z</time>
      </trkpt>
      <trkpt lat="45.67558" lon="2.05357">
        <ele>858.9</ele>
        <time>2022-08-03T13:29:28Z</time>
      </trkpt>
      <trkpt lat="45.67554" lon="2.05362">
        <ele>859</ele>
        <time>2022-08-03T13:29:30Z</time>
      </trkpt>
      <trkpt lat="45.6755" lon="2.05366">
        <ele>859.1</ele>
        <time>2022-08-03T13:29:32Z</time>
      </trkpt>
      <trkpt lat="45.67546" lon="2.0537">
        <ele>859.1</ele>
        <time>2022-08-03T13:29:34Z</time>
      </trkpt>
      <trkpt lat="45.67542" lon="2.05374">
        <ele>859.2</ele>
        <time>2022-08-03T13:29:36Z</time>
      </trkpt>
      <trkpt lat="45.67537" lon="2.05377">
        <ele>859.2</ele>
        <time>2022-08-03T13:29:38Z</time>
      </trkpt>
      <trkpt lat="45.67532" lon="2.0538">
        <ele>859.3</ele>
        <time>2022-08-03T13:29:40Z</time>
      </trkpt>
      <trkpt lat="45.67528" lon="2.05383">
        <ele>859.3</ele>
        <time>2022-08-03T13:29:42Z</time>
      </trkpt>
      <trkpt lat="45.67523" lon="2.05387">
        <ele>859.4</ele>
        <time>2022-08-03T13:29:44Z</time>
      </trkpt>
      <trkpt lat="45.67518" lon="2.0539">
        <ele>859.5</ele>
        <time>2022-08-03T13:29:46Z</time>
      </trkpt>
      <trkpt lat="45.67514" lon="2.05392">
        <ele>859.6</ele>
        <time>2022-08-03T13:29:48Z</time>
      </trkpt>
      <trkpt lat="45.67509" lon="2.05396">
        <ele>859.7</ele>
        <time>2022-08-03T13:29:50Z</time>
      </trkpt>
      <trkpt lat="45.67504" lon="2.05398">
        <ele>859.7</ele>
        <time>2022-08-03T13:29:52Z</time>
      </trkpt>
      <trkpt lat="45.67499" lon="2.054">
        <ele>859.8</ele>
        <time>2022-08-03T13:29:54Z</time>
      </trkpt>
      <trkpt lat="45.67494" lon="2.05404">
        <ele>859.7</ele>
        <time>2022-08-03T13:29:56Z</time>
      </trkpt>
      <trkpt lat="45.6749" lon="2.05407">
        <ele>859.6</ele>
        <time>2022-08-03T13:29:58Z</time>
      </trkpt>
      <trkpt lat="45.67485" lon="2.05409">
        <ele>859.5</ele>
        <time>2022-08-03T13:30:00Z</time>
      </trkpt>
      <trkpt lat="45.67481" lon="2.05413">
        <ele>859.5</ele>
        <time>2022-08-03T13:30:02Z</time>
      </trkpt>
      <trkpt lat="45.67476" lon="2.05417">
        <ele>859.6</ele>
        <time>2022-08-03T13:30:04Z</time>
      </trkpt>
      <trkpt lat="45.67472" lon="2.05419">
        <ele>859.5</ele>
        <time>2022-08-03T13:30:06Z</time>
      </trkpt>
      <trkpt lat="45.67468" lon="2.05424">
        <ele>859.5</ele>
        <time>2022-08-03T13:30:08Z</time>
      </trkpt>
      <trkpt lat="45.67464" lon="2.05427">
        <ele>859.5</ele>
        <time>2022-08-03T13:30:10Z</time>
      </trkpt>
      <trkpt lat="45.6746" lon="2.0543">
        <ele>859.5</ele>
        <time>2022-08-03T13:30:12Z</time>
      </trkpt>
      <trkpt lat="45.67456" lon="2.05435">
        <ele>859.5</ele>
        <time>2022-08-03T13:30:14Z</time>
      </trkpt>
      <trkpt lat="45.67452" lon="2.05439">
        <ele>859.6</ele>
        <time>2022-08-03T13:30:16Z</time>
      </trkpt>
      <trkpt lat="45.67448" lon="2.05442">
        <ele>859.6</ele>
        <time>2022-08-03T13:30:18Z</time>
      </trkpt>
      <trkpt lat="45.67443" lon="2.05447">
        <ele>859.7</ele>
        <time>2022-08-03T13:30:20Z</time>
      </trkpt>
      <trkpt lat="45.67438" lon="2.05452">
        <ele>859.7</ele>
        <time>2022-08-03T13:30:22Z</time>
      </trkpt>
      <trkpt lat="45.67433" lon="2.05457">
        <ele>859.8</ele>
        <time>2022-08-03T13:30:24Z</time>
      </trkpt>
      <trkpt lat="45.67428" lon="2.05462">
        <ele>859.9</ele>
        <time>2022-08-03T13:30:26Z</time>
      </trkpt>
      <trkpt lat="45.67424" lon="2.05467">
        <ele>860</ele>
        <time>2022-08-03T13:30:28Z</time>
      </trkpt>
      <trkpt lat="45.67419" lon="2.05472">
        <ele>860.1</ele>
        <time>2022-08-03T13:30:30Z</time>
      </trkpt>
      <trkpt lat="45.67413" lon="2.05476">
        <ele>859.9</ele>
        <time>2022-08-03T13:30:32Z</time>
      </trkpt>
      <trkpt lat="45.67408" lon="2.05481">
        <ele>859.8</ele>
        <time>2022-08-03T13:30:34Z</time>
      </trkpt>
      <trkpt lat="45.67403" lon="2.05485">
        <ele>859.7</ele>
        <time>2022-08-03T13:30:36Z</time>
      </trkpt>
      <trkpt lat="45.67399" lon="2.0549">
        <ele>859.6</ele>
        <time>2022-08-03T13:30:38Z</time>
      </trkpt>
      <trkpt lat="45.67393" lon="2.05494">
        <ele>859.3</ele>
        <time>2022-08-03T13:30:40Z</time>
      </trkpt>
      <trkpt lat="45.67387" lon="2.055">
        <ele>859.1</ele>
        <time>2022-08-03T13:30:42Z</time>
      </trkpt>
      <trkpt lat="45.6738" lon="2.05505">
        <ele>859.2</ele>
        <time>2022-08-03T13:30:44Z</time>
      </trkpt>
      <trkpt lat="45.67373" lon="2.0551">
        <ele>859.2</ele>
        <time>2022-08-03T13:30:46Z</time>
      </trkpt>
      <trkpt lat="45.67365" lon="2.05516">
        <ele>859.4</ele>
        <time>2022-08-03T13:30:48Z</time>
      </trkpt>
      <trkpt lat="45.67358" lon="2.05523">
        <ele>859.8</ele>
        <time>2022-08-03T13:30:50Z</time>
      </trkpt>
      <trkpt lat="45.6735" lon="2.05531">
        <ele>860.1</ele>
        <time>2022-08-03T13:30:52Z</time>
      </trkpt>
      <trkpt lat="45.67344" lon="2.0554">
        <ele>860.7</ele>
        <time>2022-08-03T13:30:54Z</time>
      </trkpt>
      <trkpt lat="45.67337" lon="2.05548">
        <ele>861.4</ele>
        <time>2022-08-03T13:30:56Z</time>
      </trkpt>
      <trkpt lat="45.67331" lon="2.05557">
        <ele>861.9</ele>
        <time>2022-08-03T13:30:58Z</time>
      </trkpt>
      <trkpt lat="45.67325" lon="2.05566">
        <ele>862.5</ele>
        <time>2022-08-03T13:31:00Z</time>
      </trkpt>
      <trkpt lat="45.67318" lon="2.05575">
        <ele>862.7</ele>
        <time>2022-08-03T13:31:02Z</time>
      </trkpt>
      <trkpt lat="45.67312" lon="2.05583">
        <ele>863</ele>
        <time>2022-08-03T13:31:04Z</time>
      </trkpt>
      <trkpt lat="45.67307" lon="2.05593">
        <ele>863</ele>
        <time>2022-08-03T13:31:06Z</time>
      </trkpt>
      <trkpt lat="45.67304" lon="2.05604">
        <ele>863.3</ele>
        <time>2022-08-03T13:31:08Z</time>
      </trkpt>
      <trkpt lat="45.673" lon="2.05611">
        <ele>863.2</ele>
        <time>2022-08-03T13:31:10Z</time>
      </trkpt>
      <trkpt lat="45.67294" lon="2.05616">
        <ele>862.8</ele>
        <time>2022-08-03T13:31:12Z</time>
      </trkpt>
      <trkpt lat="45.67292" lon="2.05616">
        <ele>862.4</ele>
        <time>2022-08-03T13:31:14Z</time>
      </trkpt>
      <trkpt lat="45.67293" lon="2.05615">
        <ele>862.6</ele>
        <time>2022-08-03T13:31:16Z</time>
      </trkpt>
      <trkpt lat="45.67293" lon="2.05615">
        <ele>862.5</ele>
        <time>2022-08-03T13:31:18Z</time>
      </trkpt>
      <trkpt lat="45.67293" lon="2.05615">
        <ele>862.5</ele>
        <time>2022-08-03T13:31:20Z</time>
      </trkpt>
      <trkpt lat="45.67293" lon="2.05616">
        <ele>862.5</ele>
        <time>2022-08-03T13:31:22Z</time>
      </trkpt>
      <trkpt lat="45.67293" lon="2.05616">
        <ele>862.5</ele>
        <time>2022-08-03T13:31:24Z</time>
      </trkpt>
      <trkpt lat="45.67276" lon="2.05613">
        <ele>859.7</ele>
        <time>2022-08-03T13:32:30Z</time>
      </trkpt>
      <trkpt lat="45.67269" lon="2.05616">
        <ele>858.8</ele>
        <time>2022-08-03T13:32:32Z</time>
      </trkpt>
      <trkpt lat="45.67261" lon="2.05616">
        <ele>857.6</ele>
        <time>2022-08-03T13:32:34Z</time>
      </trkpt>
      <trkpt lat="45.67253" lon="2.05616">
        <ele>856.3</ele>
        <time>2022-08-03T13:32:36Z</time>
      </trkpt>
      <trkpt lat="45.67244" lon="2.05617">
        <ele>856</ele>
        <time>2022-08-03T13:32:38Z</time>
      </trkpt>
      <trkpt lat="45.67235" lon="2.05619">
        <ele>856.1</ele>
        <time>2022-08-03T13:32:40Z</time>
      </trkpt>
      <trkpt lat="45.67227" lon="2.05622">
        <ele>856.2</ele>
        <time>2022-08-03T13:32:42Z</time>
      </trkpt>
      <trkpt lat="45.67219" lon="2.05628">
        <ele>856.4</ele>
        <time>2022-08-03T13:32:44Z</time>
      </trkpt>
      <trkpt lat="45.67212" lon="2.05635">
        <ele>856.7</ele>
        <time>2022-08-03T13:32:46Z</time>
      </trkpt>
      <trkpt lat="45.67203" lon="2.05644">
        <ele>857</ele>
        <time>2022-08-03T13:32:48Z</time>
      </trkpt>
      <trkpt lat="45.67195" lon="2.05652">
        <ele>857.2</ele>
        <time>2022-08-03T13:32:50Z</time>
      </trkpt>
      <trkpt lat="45.67186" lon="2.05661">
        <ele>857.3</ele>
        <time>2022-08-03T13:32:52Z</time>
      </trkpt>
      <trkpt lat="45.67178" lon="2.0567">
        <ele>857.1</ele>
        <time>2022-08-03T13:32:54Z</time>
      </trkpt>
      <trkpt lat="45.67168" lon="2.05679">
        <ele>856.3</ele>
        <time>2022-08-03T13:32:56Z</time>
      </trkpt>
      <trkpt lat="45.67158" lon="2.05686">
        <ele>855.6</ele>
        <time>2022-08-03T13:32:58Z</time>
      </trkpt>
      <trkpt lat="45.67146" lon="2.05693">
        <ele>854.9</ele>
        <time>2022-08-03T13:33:00Z</time>
      </trkpt>
      <trkpt lat="45.67134" lon="2.05699">
        <ele>854.3</ele>
        <time>2022-08-03T13:33:02Z</time>
      </trkpt>
      <trkpt lat="45.67121" lon="2.05705">
        <ele>853.8</ele>
        <time>2022-08-03T13:33:04Z</time>
      </trkpt>
      <trkpt lat="45.6711" lon="2.05715">
        <ele>853.2</ele>
        <time>2022-08-03T13:33:06Z</time>
      </trkpt>
      <trkpt lat="45.671" lon="2.0573">
        <ele>852.6</ele>
        <time>2022-08-03T13:33:08Z</time>
      </trkpt>
      <trkpt lat="45.67091" lon="2.05745">
        <ele>852.1</ele>
        <time>2022-08-03T13:33:10Z</time>
      </trkpt>
      <trkpt lat="45.67081" lon="2.05759">
        <ele>851.5</ele>
        <time>2022-08-03T13:33:12Z</time>
      </trkpt>
      <trkpt lat="45.67072" lon="2.05775">
        <ele>850.3</ele>
        <time>2022-08-03T13:33:14Z</time>
      </trkpt>
      <trkpt lat="45.67065" lon="2.05795">
        <ele>849.2</ele>
        <time>2022-08-03T13:33:16Z</time>
      </trkpt>
      <trkpt lat="45.67064" lon="2.05817">
        <ele>848.3</ele>
        <time>2022-08-03T13:33:18Z</time>
      </trkpt>
      <trkpt lat="45.67066" lon="2.05837">
        <ele>847.5</ele>
        <time>2022-08-03T13:33:20Z</time>
      </trkpt>
      <trkpt lat="45.67069" lon="2.05858">
        <ele>847.1</ele>
        <time>2022-08-03T13:33:22Z</time>
      </trkpt>
      <trkpt lat="45.67072" lon="2.05881">
        <ele>846.6</ele>
        <time>2022-08-03T13:33:24Z</time>
      </trkpt>
      <trkpt lat="45.67076" lon="2.05904">
        <ele>846.1</ele>
        <time>2022-08-03T13:33:26Z</time>
      </trkpt>
      <trkpt lat="45.67079" lon="2.05927">
        <ele>845.3</ele>
        <time>2022-08-03T13:33:28Z</time>
      </trkpt>
      <trkpt lat="45.6708" lon="2.05946">
        <ele>844.1</ele>
        <time>2022-08-03T13:33:30Z</time>
      </trkpt>
      <trkpt lat="45.67074" lon="2.05965">
        <ele>842.9</ele>
        <time>2022-08-03T13:33:32Z</time>
      </trkpt>
      <trkpt lat="45.67059" lon="2.05974">
        <ele>842</ele>
        <time>2022-08-03T13:33:34Z</time>
      </trkpt>
      <trkpt lat="45.67043" lon="2.05977">
        <ele>841.4</ele>
        <time>2022-08-03T13:33:36Z</time>
      </trkpt>
      <trkpt lat="45.67026" lon="2.0598">
        <ele>840.8</ele>
        <time>2022-08-03T13:33:38Z</time>
      </trkpt>
      <trkpt lat="45.67008" lon="2.05982">
        <ele>840.2</ele>
        <time>2022-08-03T13:33:40Z</time>
      </trkpt>
      <trkpt lat="45.6699" lon="2.05984">
        <ele>839.5</ele>
        <time>2022-08-03T13:33:42Z</time>
      </trkpt>
      <trkpt lat="45.66971" lon="2.0598">
        <ele>838.9</ele>
        <time>2022-08-03T13:33:44Z</time>
      </trkpt>
      <trkpt lat="45.66952" lon="2.05971">
        <ele>838.2</ele>
        <time>2022-08-03T13:33:46Z</time>
      </trkpt>
      <trkpt lat="45.66932" lon="2.0597">
        <ele>837.2</ele>
        <time>2022-08-03T13:33:48Z</time>
      </trkpt>
      <trkpt lat="45.66911" lon="2.05977">
        <ele>836.4</ele>
        <time>2022-08-03T13:33:50Z</time>
      </trkpt>
      <trkpt lat="45.66891" lon="2.05982">
        <ele>836.6</ele>
        <time>2022-08-03T13:33:52Z</time>
      </trkpt>
      <trkpt lat="45.66874" lon="2.05987">
        <ele>836.9</ele>
        <time>2022-08-03T13:33:54Z</time>
      </trkpt>
      <trkpt lat="45.66859" lon="2.05992">
        <ele>837.3</ele>
        <time>2022-08-03T13:33:56Z</time>
      </trkpt>
      <trkpt lat="45.66848" lon="2.06001">
        <ele>837.7</ele>
        <time>2022-08-03T13:33:58Z</time>
      </trkpt>
      <trkpt lat="45.66838" lon="2.06009">
        <ele>838.2</ele>
        <time>2022-08-03T13:34:00Z</time>
      </trkpt>
      <trkpt lat="45.66829" lon="2.06015">
        <ele>838.6</ele>
        <time>2022-08-03T13:34:02Z</time>
      </trkpt>
      <trkpt lat="45.66819" lon="2.06016">
        <ele>838.7</ele>
        <time>2022-08-03T13:34:04Z</time>
      </trkpt>
      <trkpt lat="45.66811" lon="2.06014">
        <ele>838.6</ele>
        <time>2022-08-03T13:34:06Z</time>
      </trkpt>
      <trkpt lat="45.66803" lon="2.06008">
        <ele>838.3</ele>
        <time>2022-08-03T13:34:08Z</time>
      </trkpt>
      <trkpt lat="45.66796" lon="2.06">
        <ele>838</ele>
        <time>2022-08-03T13:34:10Z</time>
      </trkpt>
      <trkpt lat="45.6679" lon="2.05992">
        <ele>838</ele>
        <time>2022-08-03T13:34:12Z</time>
      </trkpt>
      <trkpt lat="45.66784" lon="2.05986">
        <ele>838</ele>
        <time>2022-08-03T13:34:14Z</time>
      </trkpt>
      <trkpt lat="45.66777" lon="2.0598">
        <ele>838</ele>
        <time>2022-08-03T13:34:16Z</time>
      </trkpt>
      <trkpt lat="45.66769" lon="2.05976">
        <ele>838.1</ele>
        <time>2022-08-03T13:34:18Z</time>
      </trkpt>
      <trkpt lat="45.66761" lon="2.05974">
        <ele>838.2</ele>
        <time>2022-08-03T13:34:20Z</time>
      </trkpt>
      <trkpt lat="45.66752" lon="2.05971">
        <ele>838.3</ele>
        <time>2022-08-03T13:34:22Z</time>
      </trkpt>
      <trkpt lat="45.66744" lon="2.05969">
        <ele>838.3</ele>
        <time>2022-08-03T13:34:24Z</time>
      </trkpt>
      <trkpt lat="45.66735" lon="2.05967">
        <ele>838.2</ele>
        <time>2022-08-03T13:34:26Z</time>
      </trkpt>
      <trkpt lat="45.66727" lon="2.05962">
        <ele>838.1</ele>
        <time>2022-08-03T13:34:28Z</time>
      </trkpt>
      <trkpt lat="45.66718" lon="2.05958">
        <ele>838.1</ele>
        <time>2022-08-03T13:34:30Z</time>
      </trkpt>
      <trkpt lat="45.6671" lon="2.05953">
        <ele>838.1</ele>
        <time>2022-08-03T13:34:32Z</time>
      </trkpt>
      <trkpt lat="45.66702" lon="2.0595">
        <ele>838.1</ele>
        <time>2022-08-03T13:34:34Z</time>
      </trkpt>
      <trkpt lat="45.66693" lon="2.05948">
        <ele>838.1</ele>
        <time>2022-08-03T13:34:36Z</time>
      </trkpt>
      <trkpt lat="45.66684" lon="2.05947">
        <ele>838.1</ele>
        <time>2022-08-03T13:34:38Z</time>
      </trkpt>
      <trkpt lat="45.66674" lon="2.05944">
        <ele>838.1</ele>
        <time>2022-08-03T13:34:40Z</time>
      </trkpt>
      <trkpt lat="45.66665" lon="2.05939">
        <ele>838.1</ele>
        <time>2022-08-03T13:34:42Z</time>
      </trkpt>
      <trkpt lat="45.66657" lon="2.0593">
        <ele>838.2</ele>
        <time>2022-08-03T13:34:44Z</time>
      </trkpt>
      <trkpt lat="45.66651" lon="2.05922">
        <ele>838.3</ele>
        <time>2022-08-03T13:34:46Z</time>
      </trkpt>
      <trkpt lat="45.66645" lon="2.05913">
        <ele>838.4</ele>
        <time>2022-08-03T13:34:48Z</time>
      </trkpt>
      <trkpt lat="45.66638" lon="2.05905">
        <ele>838.4</ele>
        <time>2022-08-03T13:34:50Z</time>
      </trkpt>
      <trkpt lat="45.6663" lon="2.059">
        <ele>838.4</ele>
        <time>2022-08-03T13:34:52Z</time>
      </trkpt>
      <trkpt lat="45.66622" lon="2.05896">
        <ele>838.3</ele>
        <time>2022-08-03T13:34:54Z</time>
      </trkpt>
      <trkpt lat="45.66613" lon="2.05894">
        <ele>838.1</ele>
        <time>2022-08-03T13:34:56Z</time>
      </trkpt>
      <trkpt lat="45.66605" lon="2.05894">
        <ele>837.8</ele>
        <time>2022-08-03T13:34:58Z</time>
      </trkpt>
      <trkpt lat="45.66596" lon="2.05897">
        <ele>837.3</ele>
        <time>2022-08-03T13:35:00Z</time>
      </trkpt>
      <trkpt lat="45.66586" lon="2.05903">
        <ele>836.8</ele>
        <time>2022-08-03T13:35:02Z</time>
      </trkpt>
      <trkpt lat="45.66577" lon="2.05909">
        <ele>836.3</ele>
        <time>2022-08-03T13:35:04Z</time>
      </trkpt>
      <trkpt lat="45.66568" lon="2.05915">
        <ele>835.9</ele>
        <time>2022-08-03T13:35:06Z</time>
      </trkpt>
      <trkpt lat="45.66558" lon="2.05921">
        <ele>835.5</ele>
        <time>2022-08-03T13:35:08Z</time>
      </trkpt>
      <trkpt lat="45.66548" lon="2.05925">
        <ele>835.3</ele>
        <time>2022-08-03T13:35:10Z</time>
      </trkpt>
      <trkpt lat="45.66537" lon="2.05929">
        <ele>835</ele>
        <time>2022-08-03T13:35:12Z</time>
      </trkpt>
      <trkpt lat="45.66527" lon="2.05931">
        <ele>834.8</ele>
        <time>2022-08-03T13:35:14Z</time>
      </trkpt>
      <trkpt lat="45.66517" lon="2.05932">
        <ele>834.6</ele>
        <time>2022-08-03T13:35:16Z</time>
      </trkpt>
      <trkpt lat="45.66507" lon="2.05932">
        <ele>834.5</ele>
        <time>2022-08-03T13:35:18Z</time>
      </trkpt>
      <trkpt lat="45.66498" lon="2.05932">
        <ele>834.4</ele>
        <time>2022-08-03T13:35:20Z</time>
      </trkpt>
      <trkpt lat="45.66489" lon="2.05931">
        <ele>834.3</ele>
        <time>2022-08-03T13:35:22Z</time>
      </trkpt>
      <trkpt lat="45.6648" lon="2.05931">
        <ele>834.2</ele>
        <time>2022-08-03T13:35:24Z</time>
      </trkpt>
      <trkpt lat="45.6647" lon="2.0593">
        <ele>834.1</ele>
        <time>2022-08-03T13:35:26Z</time>
      </trkpt>
      <trkpt lat="45.66461" lon="2.05929">
        <ele>834</ele>
        <time>2022-08-03T13:35:28Z</time>
      </trkpt>
      <trkpt lat="45.6645" lon="2.05928">
        <ele>833.9</ele>
        <time>2022-08-03T13:35:30Z</time>
      </trkpt>
      <trkpt lat="45.6644" lon="2.05924">
        <ele>833.9</ele>
        <time>2022-08-03T13:35:32Z</time>
      </trkpt>
      <trkpt lat="45.6643" lon="2.05919">
        <ele>834</ele>
        <time>2022-08-03T13:35:34Z</time>
      </trkpt>
      <trkpt lat="45.6642" lon="2.05912">
        <ele>834.1</ele>
        <time>2022-08-03T13:35:36Z</time>
      </trkpt>
      <trkpt lat="45.66411" lon="2.05905">
        <ele>833.9</ele>
        <time>2022-08-03T13:35:38Z</time>
      </trkpt>
      <trkpt lat="45.66403" lon="2.05896">
        <ele>833.6</ele>
        <time>2022-08-03T13:35:40Z</time>
      </trkpt>
      <trkpt lat="45.66395" lon="2.05886">
        <ele>833.2</ele>
        <time>2022-08-03T13:35:42Z</time>
      </trkpt>
      <trkpt lat="45.66388" lon="2.05875">
        <ele>832.9</ele>
        <time>2022-08-03T13:35:44Z</time>
      </trkpt>
      <trkpt lat="45.6638" lon="2.05864">
        <ele>832.6</ele>
        <time>2022-08-03T13:35:46Z</time>
      </trkpt>
      <trkpt lat="45.66373" lon="2.05853">
        <ele>832.3</ele>
        <time>2022-08-03T13:35:48Z</time>
      </trkpt>
      <trkpt lat="45.66365" lon="2.05842">
        <ele>831.9</ele>
        <time>2022-08-03T13:35:50Z</time>
      </trkpt>
      <trkpt lat="45.66358" lon="2.0583">
        <ele>831.4</ele>
        <time>2022-08-03T13:35:52Z</time>
      </trkpt>
      <trkpt lat="45.6635" lon="2.0582">
        <ele>830.8</ele>
        <time>2022-08-03T13:35:54Z</time>
      </trkpt>
      <trkpt lat="45.66343" lon="2.0581">
        <ele>830.3</ele>
        <time>2022-08-03T13:35:56Z</time>
      </trkpt>
      <trkpt lat="45.66334" lon="2.05801">
        <ele>829.6</ele>
        <time>2022-08-03T13:35:58Z</time>
      </trkpt>
      <trkpt lat="45.66325" lon="2.05791">
        <ele>829.6</ele>
        <time>2022-08-03T13:36:00Z</time>
      </trkpt>
      <trkpt lat="45.66315" lon="2.05781">
        <ele>829.8</ele>
        <time>2022-08-03T13:36:02Z</time>
      </trkpt>
      <trkpt lat="45.66306" lon="2.05772">
        <ele>830</ele>
        <time>2022-08-03T13:36:04Z</time>
      </trkpt>
      <trkpt lat="45.66297" lon="2.05763">
        <ele>830.3</ele>
        <time>2022-08-03T13:36:06Z</time>
      </trkpt>
      <trkpt lat="45.66289" lon="2.05753">
        <ele>830.6</ele>
        <time>2022-08-03T13:36:08Z</time>
      </trkpt>
      <trkpt lat="45.66281" lon="2.05742">
        <ele>831.2</ele>
        <time>2022-08-03T13:36:10Z</time>
      </trkpt>
      <trkpt lat="45.66275" lon="2.0573">
        <ele>831.9</ele>
        <time>2022-08-03T13:36:12Z</time>
      </trkpt>
      <trkpt lat="45.66269" lon="2.05718">
        <ele>832.6</ele>
        <time>2022-08-03T13:36:14Z</time>
      </trkpt>
      <trkpt lat="45.66263" lon="2.05707">
        <ele>833.3</ele>
        <time>2022-08-03T13:36:16Z</time>
      </trkpt>
      <trkpt lat="45.66258" lon="2.05697">
        <ele>834.1</ele>
        <time>2022-08-03T13:36:18Z</time>
      </trkpt>
      <trkpt lat="45.66254" lon="2.05687">
        <ele>834.8</ele>
        <time>2022-08-03T13:36:20Z</time>
      </trkpt>
      <trkpt lat="45.66249" lon="2.05677">
        <ele>835.4</ele>
        <time>2022-08-03T13:36:22Z</time>
      </trkpt>
      <trkpt lat="45.66244" lon="2.05668">
        <ele>835.5</ele>
        <time>2022-08-03T13:36:24Z</time>
      </trkpt>
      <trkpt lat="45.6624" lon="2.05659">
        <ele>834.8</ele>
        <time>2022-08-03T13:36:26Z</time>
      </trkpt>
      <trkpt lat="45.66236" lon="2.0565">
        <ele>834</ele>
        <time>2022-08-03T13:36:28Z</time>
      </trkpt>
      <trkpt lat="45.66232" lon="2.05642">
        <ele>833.2</ele>
        <time>2022-08-03T13:36:30Z</time>
      </trkpt>
      <trkpt lat="45.66228" lon="2.05633">
        <ele>832.4</ele>
        <time>2022-08-03T13:36:32Z</time>
      </trkpt>
      <trkpt lat="45.66226" lon="2.05623">
        <ele>831.6</ele>
        <time>2022-08-03T13:36:34Z</time>
      </trkpt>
      <trkpt lat="45.66225" lon="2.05613">
        <ele>830.9</ele>
        <time>2022-08-03T13:36:36Z</time>
      </trkpt>
      <trkpt lat="45.66224" lon="2.05602">
        <ele>830.2</ele>
        <time>2022-08-03T13:36:38Z</time>
      </trkpt>
      <trkpt lat="45.66223" lon="2.0559">
        <ele>829.5</ele>
        <time>2022-08-03T13:36:40Z</time>
      </trkpt>
      <trkpt lat="45.66224" lon="2.05578">
        <ele>829.1</ele>
        <time>2022-08-03T13:36:42Z</time>
      </trkpt>
      <trkpt lat="45.66224" lon="2.05566">
        <ele>829.2</ele>
        <time>2022-08-03T13:36:44Z</time>
      </trkpt>
      <trkpt lat="45.66226" lon="2.05555">
        <ele>829.3</ele>
        <time>2022-08-03T13:36:46Z</time>
      </trkpt>
      <trkpt lat="45.66227" lon="2.05543">
        <ele>829.4</ele>
        <time>2022-08-03T13:36:48Z</time>
      </trkpt>
      <trkpt lat="45.66228" lon="2.05529">
        <ele>829.4</ele>
        <time>2022-08-03T13:36:50Z</time>
      </trkpt>
      <trkpt lat="45.66227" lon="2.05516">
        <ele>829.2</ele>
        <time>2022-08-03T13:36:52Z</time>
      </trkpt>
      <trkpt lat="45.66223" lon="2.05504">
        <ele>829</ele>
        <time>2022-08-03T13:36:54Z</time>
      </trkpt>
      <trkpt lat="45.66218" lon="2.05493">
        <ele>828.7</ele>
        <time>2022-08-03T13:36:56Z</time>
      </trkpt>
      <trkpt lat="45.66213" lon="2.05482">
        <ele>828.5</ele>
        <time>2022-08-03T13:36:58Z</time>
      </trkpt>
      <trkpt lat="45.66209" lon="2.05471">
        <ele>828.3</ele>
        <time>2022-08-03T13:37:00Z</time>
      </trkpt>
      <trkpt lat="45.66205" lon="2.05461">
        <ele>828.3</ele>
        <time>2022-08-03T13:37:02Z</time>
      </trkpt>
      <trkpt lat="45.66203" lon="2.0545">
        <ele>828.3</ele>
        <time>2022-08-03T13:37:04Z</time>
      </trkpt>
      <trkpt lat="45.66201" lon="2.0544">
        <ele>828.3</ele>
        <time>2022-08-03T13:37:06Z</time>
      </trkpt>
      <trkpt lat="45.66199" lon="2.05429">
        <ele>828.4</ele>
        <time>2022-08-03T13:37:08Z</time>
      </trkpt>
      <trkpt lat="45.66197" lon="2.05419">
        <ele>828.5</ele>
        <time>2022-08-03T13:37:10Z</time>
      </trkpt>
      <trkpt lat="45.66195" lon="2.05409">
        <ele>828.1</ele>
        <time>2022-08-03T13:37:12Z</time>
      </trkpt>
      <trkpt lat="45.66192" lon="2.05398">
        <ele>827.7</ele>
        <time>2022-08-03T13:37:14Z</time>
      </trkpt>
      <trkpt lat="45.66189" lon="2.05386">
        <ele>827.2</ele>
        <time>2022-08-03T13:37:16Z</time>
      </trkpt>
      <trkpt lat="45.66185" lon="2.05374">
        <ele>826.9</ele>
        <time>2022-08-03T13:37:18Z</time>
      </trkpt>
      <trkpt lat="45.66179" lon="2.05362">
        <ele>826.9</ele>
        <time>2022-08-03T13:37:20Z</time>
      </trkpt>
      <trkpt lat="45.66172" lon="2.0535">
        <ele>827.1</ele>
        <time>2022-08-03T13:37:22Z</time>
      </trkpt>
      <trkpt lat="45.66162" lon="2.05339">
        <ele>827.2</ele>
        <time>2022-08-03T13:37:24Z</time>
      </trkpt>
      <trkpt lat="45.6615" lon="2.0533">
        <ele>826.6</ele>
        <time>2022-08-03T13:37:26Z</time>
      </trkpt>
      <trkpt lat="45.66136" lon="2.05323">
        <ele>825.7</ele>
        <time>2022-08-03T13:37:28Z</time>
      </trkpt>
      <trkpt lat="45.6612" lon="2.05314">
        <ele>824.7</ele>
        <time>2022-08-03T13:37:30Z</time>
      </trkpt>
      <trkpt lat="45.66104" lon="2.05306">
        <ele>823.7</ele>
        <time>2022-08-03T13:37:32Z</time>
      </trkpt>
      <trkpt lat="45.66087" lon="2.05298">
        <ele>822.7</ele>
        <time>2022-08-03T13:37:34Z</time>
      </trkpt>
      <trkpt lat="45.66069" lon="2.05294">
        <ele>821.2</ele>
        <time>2022-08-03T13:37:36Z</time>
      </trkpt>
      <trkpt lat="45.66049" lon="2.05294">
        <ele>819.5</ele>
        <time>2022-08-03T13:37:38Z</time>
      </trkpt>
      <trkpt lat="45.66029" lon="2.05299">
        <ele>818.4</ele>
        <time>2022-08-03T13:37:40Z</time>
      </trkpt>
      <trkpt lat="45.66009" lon="2.05307">
        <ele>817.2</ele>
        <time>2022-08-03T13:37:42Z</time>
      </trkpt>
      <trkpt lat="45.65988" lon="2.05308">
        <ele>816.4</ele>
        <time>2022-08-03T13:37:44Z</time>
      </trkpt>
      <trkpt lat="45.65969" lon="2.05299">
        <ele>816</ele>
        <time>2022-08-03T13:37:46Z</time>
      </trkpt>
      <trkpt lat="45.65953" lon="2.05289">
        <ele>815.7</ele>
        <time>2022-08-03T13:37:48Z</time>
      </trkpt>
      <trkpt lat="45.65937" lon="2.05286">
        <ele>815.8</ele>
        <time>2022-08-03T13:37:50Z</time>
      </trkpt>
      <trkpt lat="45.65922" lon="2.05288">
        <ele>816</ele>
        <time>2022-08-03T13:37:52Z</time>
      </trkpt>
      <trkpt lat="45.65908" lon="2.05291">
        <ele>816.2</ele>
        <time>2022-08-03T13:37:54Z</time>
      </trkpt>
      <trkpt lat="45.65896" lon="2.05292">
        <ele>816.5</ele>
        <time>2022-08-03T13:37:56Z</time>
      </trkpt>
      <trkpt lat="45.65886" lon="2.05291">
        <ele>816.7</ele>
        <time>2022-08-03T13:37:58Z</time>
      </trkpt>
      <trkpt lat="45.65876" lon="2.05289">
        <ele>817</ele>
        <time>2022-08-03T13:38:00Z</time>
      </trkpt>
      <trkpt lat="45.65866" lon="2.05287">
        <ele>817.4</ele>
        <time>2022-08-03T13:38:02Z</time>
      </trkpt>
      <trkpt lat="45.65856" lon="2.05284">
        <ele>817.7</ele>
        <time>2022-08-03T13:38:04Z</time>
      </trkpt>
      <trkpt lat="45.65846" lon="2.0528">
        <ele>818.2</ele>
        <time>2022-08-03T13:38:06Z</time>
      </trkpt>
      <trkpt lat="45.65836" lon="2.05276">
        <ele>818.7</ele>
        <time>2022-08-03T13:38:08Z</time>
      </trkpt>
      <trkpt lat="45.65825" lon="2.0527">
        <ele>819</ele>
        <time>2022-08-03T13:38:10Z</time>
      </trkpt>
      <trkpt lat="45.65814" lon="2.05263">
        <ele>819.3</ele>
        <time>2022-08-03T13:38:12Z</time>
      </trkpt>
      <trkpt lat="45.65803" lon="2.05254">
        <ele>819.8</ele>
        <time>2022-08-03T13:38:14Z</time>
      </trkpt>
      <trkpt lat="45.65792" lon="2.05247">
        <ele>820.1</ele>
        <time>2022-08-03T13:38:16Z</time>
      </trkpt>
      <trkpt lat="45.65781" lon="2.05243">
        <ele>820.3</ele>
        <time>2022-08-03T13:38:18Z</time>
      </trkpt>
      <trkpt lat="45.65768" lon="2.0524">
        <ele>820.4</ele>
        <time>2022-08-03T13:38:20Z</time>
      </trkpt>
      <trkpt lat="45.65756" lon="2.05242">
        <ele>820.4</ele>
        <time>2022-08-03T13:38:22Z</time>
      </trkpt>
      <trkpt lat="45.65744" lon="2.05243">
        <ele>820.1</ele>
        <time>2022-08-03T13:38:24Z</time>
      </trkpt>
      <trkpt lat="45.65731" lon="2.05244">
        <ele>819.7</ele>
        <time>2022-08-03T13:38:26Z</time>
      </trkpt>
      <trkpt lat="45.65718" lon="2.05245">
        <ele>819.1</ele>
        <time>2022-08-03T13:38:28Z</time>
      </trkpt>
      <trkpt lat="45.65709" lon="2.05242">
        <ele>819</ele>
        <time>2022-08-03T13:38:30Z</time>
      </trkpt>
      <trkpt lat="45.65695" lon="2.0524">
        <ele>818.6</ele>
        <time>2022-08-03T13:38:32Z</time>
      </trkpt>
      <trkpt lat="45.65682" lon="2.05237">
        <ele>818.4</ele>
        <time>2022-08-03T13:38:34Z</time>
      </trkpt>
      <trkpt lat="45.65669" lon="2.05232">
        <ele>818.4</ele>
        <time>2022-08-03T13:38:36Z</time>
      </trkpt>
      <trkpt lat="45.65658" lon="2.05224">
        <ele>818.5</ele>
        <time>2022-08-03T13:38:38Z</time>
      </trkpt>
      <trkpt lat="45.65647" lon="2.05213">
        <ele>818.8</ele>
        <time>2022-08-03T13:38:40Z</time>
      </trkpt>
      <trkpt lat="45.65635" lon="2.05202">
        <ele>818.9</ele>
        <time>2022-08-03T13:38:42Z</time>
      </trkpt>
      <trkpt lat="45.65622" lon="2.05196">
        <ele>818.6</ele>
        <time>2022-08-03T13:38:44Z</time>
      </trkpt>
      <trkpt lat="45.65609" lon="2.05192">
        <ele>818.1</ele>
        <time>2022-08-03T13:38:46Z</time>
      </trkpt>
      <trkpt lat="45.65596" lon="2.05195">
        <ele>817.3</ele>
        <time>2022-08-03T13:38:48Z</time>
      </trkpt>
      <trkpt lat="45.65582" lon="2.05199">
        <ele>816.4</ele>
        <time>2022-08-03T13:38:50Z</time>
      </trkpt>
      <trkpt lat="45.65569" lon="2.05203">
        <ele>815.6</ele>
        <time>2022-08-03T13:38:52Z</time>
      </trkpt>
      <trkpt lat="45.65555" lon="2.05207">
        <ele>814.9</ele>
        <time>2022-08-03T13:38:54Z</time>
      </trkpt>
      <trkpt lat="45.65542" lon="2.05209">
        <ele>814.2</ele>
        <time>2022-08-03T13:38:56Z</time>
      </trkpt>
      <trkpt lat="45.65528" lon="2.0521">
        <ele>813.6</ele>
        <time>2022-08-03T13:38:58Z</time>
      </trkpt>
      <trkpt lat="45.65515" lon="2.05211">
        <ele>813.1</ele>
        <time>2022-08-03T13:39:00Z</time>
      </trkpt>
      <trkpt lat="45.65504" lon="2.05211">
        <ele>812.6</ele>
        <time>2022-08-03T13:39:02Z</time>
      </trkpt>
      <trkpt lat="45.65492" lon="2.05211">
        <ele>812.5</ele>
        <time>2022-08-03T13:39:04Z</time>
      </trkpt>
      <trkpt lat="45.65482" lon="2.05212">
        <ele>812.4</ele>
        <time>2022-08-03T13:39:06Z</time>
      </trkpt>
      <trkpt lat="45.65472" lon="2.05212">
        <ele>812.4</ele>
        <time>2022-08-03T13:39:08Z</time>
      </trkpt>
      <trkpt lat="45.65462" lon="2.05212">
        <ele>812.4</ele>
        <time>2022-08-03T13:39:10Z</time>
      </trkpt>
      <trkpt lat="45.65452" lon="2.05212">
        <ele>812.4</ele>
        <time>2022-08-03T13:39:12Z</time>
      </trkpt>
      <trkpt lat="45.65442" lon="2.05212">
        <ele>812.4</ele>
        <time>2022-08-03T13:39:14Z</time>
      </trkpt>
      <trkpt lat="45.65432" lon="2.05212">
        <ele>812.4</ele>
        <time>2022-08-03T13:39:16Z</time>
      </trkpt>
      <trkpt lat="45.65423" lon="2.05212">
        <ele>812.4</ele>
        <time>2022-08-03T13:39:18Z</time>
      </trkpt>
      <trkpt lat="45.65414" lon="2.05211">
        <ele>812.6</ele>
        <time>2022-08-03T13:39:20Z</time>
      </trkpt>
      <trkpt lat="45.65405" lon="2.0521">
        <ele>813.3</ele>
        <time>2022-08-03T13:39:22Z</time>
      </trkpt>
      <trkpt lat="45.65398" lon="2.05208">
        <ele>814</ele>
        <time>2022-08-03T13:39:24Z</time>
      </trkpt>
      <trkpt lat="45.6539" lon="2.05206">
        <ele>814.7</ele>
        <time>2022-08-03T13:39:26Z</time>
      </trkpt>
      <trkpt lat="45.65383" lon="2.05204">
        <ele>815.3</ele>
        <time>2022-08-03T13:39:28Z</time>
      </trkpt>
      <trkpt lat="45.65377" lon="2.05201">
        <ele>816</ele>
        <time>2022-08-03T13:39:30Z</time>
      </trkpt>
      <trkpt lat="45.65371" lon="2.05199">
        <ele>816.6</ele>
        <time>2022-08-03T13:39:32Z</time>
      </trkpt>
      <trkpt lat="45.65365" lon="2.05197">
        <ele>817.1</ele>
        <time>2022-08-03T13:39:34Z</time>
      </trkpt>
      <trkpt lat="45.6536" lon="2.05195">
        <ele>817.7</ele>
        <time>2022-08-03T13:39:36Z</time>
      </trkpt>
      <trkpt lat="45.65355" lon="2.05192">
        <ele>818.3</ele>
        <time>2022-08-03T13:39:38Z</time>
      </trkpt>
      <trkpt lat="45.6535" lon="2.05189">
        <ele>818.9</ele>
        <time>2022-08-03T13:39:40Z</time>
      </trkpt>
      <trkpt lat="45.65345" lon="2.05185">
        <ele>819.7</ele>
        <time>2022-08-03T13:39:42Z</time>
      </trkpt>
      <trkpt lat="45.6534" lon="2.0518">
        <ele>820.4</ele>
        <time>2022-08-03T13:39:44Z</time>
      </trkpt>
      <trkpt lat="45.65336" lon="2.05176">
        <ele>821.1</ele>
        <time>2022-08-03T13:39:46Z</time>
      </trkpt>
      <trkpt lat="45.65331" lon="2.05171">
        <ele>821.7</ele>
        <time>2022-08-03T13:39:48Z</time>
      </trkpt>
      <trkpt lat="45.65326" lon="2.05166">
        <ele>821.9</ele>
        <time>2022-08-03T13:39:50Z</time>
      </trkpt>
      <trkpt lat="45.65321" lon="2.05161">
        <ele>822</ele>
        <time>2022-08-03T13:39:52Z</time>
      </trkpt>
      <trkpt lat="45.65316" lon="2.05157">
        <ele>822.1</ele>
        <time>2022-08-03T13:39:54Z</time>
      </trkpt>
      <trkpt lat="45.65311" lon="2.05153">
        <ele>822.2</ele>
        <time>2022-08-03T13:39:56Z</time>
      </trkpt>
      <trkpt lat="45.65306" lon="2.05149">
        <ele>822.2</ele>
        <time>2022-08-03T13:39:58Z</time>
      </trkpt>
      <trkpt lat="45.65301" lon="2.05145">
        <ele>822.3</ele>
        <time>2022-08-03T13:40:00Z</time>
      </trkpt>
      <trkpt lat="45.65296" lon="2.05142">
        <ele>822.4</ele>
        <time>2022-08-03T13:40:02Z</time>
      </trkpt>
      <trkpt lat="45.65291" lon="2.05137">
        <ele>822.5</ele>
        <time>2022-08-03T13:40:04Z</time>
      </trkpt>
      <trkpt lat="45.65285" lon="2.05134">
        <ele>822.6</ele>
        <time>2022-08-03T13:40:06Z</time>
      </trkpt>
      <trkpt lat="45.6528" lon="2.05131">
        <ele>822.8</ele>
        <time>2022-08-03T13:40:08Z</time>
      </trkpt>
      <trkpt lat="45.65275" lon="2.05128">
        <ele>822.9</ele>
        <time>2022-08-03T13:40:10Z</time>
      </trkpt>
      <trkpt lat="45.65269" lon="2.05125">
        <ele>823</ele>
        <time>2022-08-03T13:40:12Z</time>
      </trkpt>
      <trkpt lat="45.65264" lon="2.05123">
        <ele>823.1</ele>
        <time>2022-08-03T13:40:14Z</time>
      </trkpt>
      <trkpt lat="45.65258" lon="2.0512">
        <ele>823.2</ele>
        <time>2022-08-03T13:40:16Z</time>
      </trkpt>
      <trkpt lat="45.65252" lon="2.05118">
        <ele>823.3</ele>
        <time>2022-08-03T13:40:18Z</time>
      </trkpt>
      <trkpt lat="45.65247" lon="2.05115">
        <ele>823.3</ele>
        <time>2022-08-03T13:40:20Z</time>
      </trkpt>
      <trkpt lat="45.65241" lon="2.05113">
        <ele>823.2</ele>
        <time>2022-08-03T13:40:22Z</time>
      </trkpt>
      <trkpt lat="45.65235" lon="2.05111">
        <ele>823</ele>
        <time>2022-08-03T13:40:24Z</time>
      </trkpt>
      <trkpt lat="45.6523" lon="2.05108">
        <ele>822.9</ele>
        <time>2022-08-03T13:40:26Z</time>
      </trkpt>
      <trkpt lat="45.65225" lon="2.05105">
        <ele>822.8</ele>
        <time>2022-08-03T13:40:28Z</time>
      </trkpt>
      <trkpt lat="45.65219" lon="2.05102">
        <ele>822.7</ele>
        <time>2022-08-03T13:40:30Z</time>
      </trkpt>
      <trkpt lat="45.65214" lon="2.05098">
        <ele>822.6</ele>
        <time>2022-08-03T13:40:32Z</time>
      </trkpt>
      <trkpt lat="45.65209" lon="2.05095">
        <ele>822.6</ele>
        <time>2022-08-03T13:40:34Z</time>
      </trkpt>
      <trkpt lat="45.65204" lon="2.05091">
        <ele>822.5</ele>
        <time>2022-08-03T13:40:36Z</time>
      </trkpt>
      <trkpt lat="45.65199" lon="2.05086">
        <ele>822.4</ele>
        <time>2022-08-03T13:40:38Z</time>
      </trkpt>
      <trkpt lat="45.65194" lon="2.05082">
        <ele>822.4</ele>
        <time>2022-08-03T13:40:40Z</time>
      </trkpt>
      <trkpt lat="45.65189" lon="2.05078">
        <ele>822.5</ele>
        <time>2022-08-03T13:40:42Z</time>
      </trkpt>
      <trkpt lat="45.65183" lon="2.05074">
        <ele>822.6</ele>
        <time>2022-08-03T13:40:44Z</time>
      </trkpt>
      <trkpt lat="45.65178" lon="2.05071">
        <ele>822.6</ele>
        <time>2022-08-03T13:40:46Z</time>
      </trkpt>
      <trkpt lat="45.65173" lon="2.05066">
        <ele>822.7</ele>
        <time>2022-08-03T13:40:48Z</time>
      </trkpt>
      <trkpt lat="45.65168" lon="2.05064">
        <ele>822.7</ele>
        <time>2022-08-03T13:40:50Z</time>
      </trkpt>
      <trkpt lat="45.65162" lon="2.05061">
        <ele>822.8</ele>
        <time>2022-08-03T13:40:52Z</time>
      </trkpt>
      <trkpt lat="45.65156" lon="2.0506">
        <ele>822.8</ele>
        <time>2022-08-03T13:40:54Z</time>
      </trkpt>
      <trkpt lat="45.65149" lon="2.05058">
        <ele>822.8</ele>
        <time>2022-08-03T13:40:56Z</time>
      </trkpt>
      <trkpt lat="45.65143" lon="2.05057">
        <ele>822.8</ele>
        <time>2022-08-03T13:40:58Z</time>
      </trkpt>
      <trkpt lat="45.65137" lon="2.05057">
        <ele>822.6</ele>
        <time>2022-08-03T13:41:00Z</time>
      </trkpt>
      <trkpt lat="45.6513" lon="2.05058">
        <ele>822.5</ele>
        <time>2022-08-03T13:41:02Z</time>
      </trkpt>
      <trkpt lat="45.65124" lon="2.0506">
        <ele>822.3</ele>
        <time>2022-08-03T13:41:04Z</time>
      </trkpt>
      <trkpt lat="45.65119" lon="2.05062">
        <ele>822.2</ele>
        <time>2022-08-03T13:41:06Z</time>
      </trkpt>
      <trkpt lat="45.65112" lon="2.05064">
        <ele>822.1</ele>
        <time>2022-08-03T13:41:08Z</time>
      </trkpt>
      <trkpt lat="45.65107" lon="2.05066">
        <ele>822</ele>
        <time>2022-08-03T13:41:10Z</time>
      </trkpt>
      <trkpt lat="45.65101" lon="2.0507">
        <ele>821.9</ele>
        <time>2022-08-03T13:41:12Z</time>
      </trkpt>
      <trkpt lat="45.65096" lon="2.05073">
        <ele>821.9</ele>
        <time>2022-08-03T13:41:14Z</time>
      </trkpt>
      <trkpt lat="45.65091" lon="2.05077">
        <ele>821.9</ele>
        <time>2022-08-03T13:41:16Z</time>
      </trkpt>
      <trkpt lat="45.65086" lon="2.0508">
        <ele>821.9</ele>
        <time>2022-08-03T13:41:18Z</time>
      </trkpt>
      <trkpt lat="45.65082" lon="2.05083">
        <ele>822.2</ele>
        <time>2022-08-03T13:41:20Z</time>
      </trkpt>
      <trkpt lat="45.65077" lon="2.05086">
        <ele>822.7</ele>
        <time>2022-08-03T13:41:22Z</time>
      </trkpt>
      <trkpt lat="45.65073" lon="2.05089">
        <ele>823.3</ele>
        <time>2022-08-03T13:41:24Z</time>
      </trkpt>
      <trkpt lat="45.65069" lon="2.05092">
        <ele>823.7</ele>
        <time>2022-08-03T13:41:26Z</time>
      </trkpt>
      <trkpt lat="45.65065" lon="2.05095">
        <ele>824.2</ele>
        <time>2022-08-03T13:41:28Z</time>
      </trkpt>
      <trkpt lat="45.65061" lon="2.05098">
        <ele>824.7</ele>
        <time>2022-08-03T13:41:30Z</time>
      </trkpt>
      <trkpt lat="45.65057" lon="2.051">
        <ele>825.2</ele>
        <time>2022-08-03T13:41:32Z</time>
      </trkpt>
      <trkpt lat="45.65053" lon="2.05103">
        <ele>825.7</ele>
        <time>2022-08-03T13:41:34Z</time>
      </trkpt>
      <trkpt lat="45.6505" lon="2.05105">
        <ele>826.1</ele>
        <time>2022-08-03T13:41:36Z</time>
      </trkpt>
      <trkpt lat="45.65046" lon="2.05107">
        <ele>826.5</ele>
        <time>2022-08-03T13:41:38Z</time>
      </trkpt>
      <trkpt lat="45.65044" lon="2.0511">
        <ele>826.9</ele>
        <time>2022-08-03T13:41:40Z</time>
      </trkpt>
      <trkpt lat="45.65041" lon="2.05111">
        <ele>827.3</ele>
        <time>2022-08-03T13:41:42Z</time>
      </trkpt>
      <trkpt lat="45.65039" lon="2.05113">
        <ele>827.5</ele>
        <time>2022-08-03T13:41:44Z</time>
      </trkpt>
      <trkpt lat="45.65035" lon="2.05115">
        <ele>828</ele>
        <time>2022-08-03T13:41:46Z</time>
      </trkpt>
      <trkpt lat="45.65032" lon="2.05117">
        <ele>828.4</ele>
        <time>2022-08-03T13:41:48Z</time>
      </trkpt>
      <trkpt lat="45.65029" lon="2.05119">
        <ele>828.8</ele>
        <time>2022-08-03T13:41:50Z</time>
      </trkpt>
      <trkpt lat="45.65026" lon="2.0512">
        <ele>829.2</ele>
        <time>2022-08-03T13:41:52Z</time>
      </trkpt>
      <trkpt lat="45.65022" lon="2.05121">
        <ele>829.6</ele>
        <time>2022-08-03T13:41:54Z</time>
      </trkpt>
      <trkpt lat="45.65018" lon="2.05122">
        <ele>830</ele>
        <time>2022-08-03T13:41:56Z</time>
      </trkpt>
      <trkpt lat="45.65015" lon="2.05123">
        <ele>830.4</ele>
        <time>2022-08-03T13:41:58Z</time>
      </trkpt>
      <trkpt lat="45.65011" lon="2.05123">
        <ele>830.8</ele>
        <time>2022-08-03T13:42:00Z</time>
      </trkpt>
      <trkpt lat="45.65008" lon="2.05123">
        <ele>831.1</ele>
        <time>2022-08-03T13:42:02Z</time>
      </trkpt>
      <trkpt lat="45.65004" lon="2.05121">
        <ele>831.4</ele>
        <time>2022-08-03T13:42:04Z</time>
      </trkpt>
      <trkpt lat="45.65" lon="2.0512">
        <ele>831.7</ele>
        <time>2022-08-03T13:42:06Z</time>
      </trkpt>
      <trkpt lat="45.64997" lon="2.05119">
        <ele>832</ele>
        <time>2022-08-03T13:42:08Z</time>
      </trkpt>
      <trkpt lat="45.64993" lon="2.05119">
        <ele>832.3</ele>
        <time>2022-08-03T13:42:10Z</time>
      </trkpt>
      <trkpt lat="45.64989" lon="2.05118">
        <ele>832.5</ele>
        <time>2022-08-03T13:42:12Z</time>
      </trkpt>
      <trkpt lat="45.64985" lon="2.05116">
        <ele>832.7</ele>
        <time>2022-08-03T13:42:14Z</time>
      </trkpt>
      <trkpt lat="45.64982" lon="2.05115">
        <ele>832.9</ele>
        <time>2022-08-03T13:42:16Z</time>
      </trkpt>
      <trkpt lat="45.64978" lon="2.05114">
        <ele>833.2</ele>
        <time>2022-08-03T13:42:18Z</time>
      </trkpt>
      <trkpt lat="45.64975" lon="2.05112">
        <ele>833.4</ele>
        <time>2022-08-03T13:42:20Z</time>
      </trkpt>
      <trkpt lat="45.64971" lon="2.05111">
        <ele>833.7</ele>
        <time>2022-08-03T13:42:22Z</time>
      </trkpt>
      <trkpt lat="45.64967" lon="2.0511">
        <ele>833.9</ele>
        <time>2022-08-03T13:42:24Z</time>
      </trkpt>
      <trkpt lat="45.64964" lon="2.05109">
        <ele>834.1</ele>
        <time>2022-08-03T13:42:26Z</time>
      </trkpt>
      <trkpt lat="45.6496" lon="2.05108">
        <ele>834.4</ele>
        <time>2022-08-03T13:42:28Z</time>
      </trkpt>
      <trkpt lat="45.64956" lon="2.05107">
        <ele>834.7</ele>
        <time>2022-08-03T13:42:30Z</time>
      </trkpt>
      <trkpt lat="45.64953" lon="2.05106">
        <ele>834.9</ele>
        <time>2022-08-03T13:42:32Z</time>
      </trkpt>
      <trkpt lat="45.64949" lon="2.05105">
        <ele>835.1</ele>
        <time>2022-08-03T13:42:34Z</time>
      </trkpt>
      <trkpt lat="45.64946" lon="2.05104">
        <ele>835.4</ele>
        <time>2022-08-03T13:42:36Z</time>
      </trkpt>
      <trkpt lat="45.64943" lon="2.05104">
        <ele>835.6</ele>
        <time>2022-08-03T13:42:38Z</time>
      </trkpt>
      <trkpt lat="45.64939" lon="2.05103">
        <ele>835.9</ele>
        <time>2022-08-03T13:42:40Z</time>
      </trkpt>
      <trkpt lat="45.64937" lon="2.05103">
        <ele>836</ele>
        <time>2022-08-03T13:42:42Z</time>
      </trkpt>
      <trkpt lat="45.64933" lon="2.05103">
        <ele>836.4</ele>
        <time>2022-08-03T13:42:44Z</time>
      </trkpt>
      <trkpt lat="45.6493" lon="2.05102">
        <ele>836.6</ele>
        <time>2022-08-03T13:42:46Z</time>
      </trkpt>
      <trkpt lat="45.64926" lon="2.05101">
        <ele>836.9</ele>
        <time>2022-08-03T13:42:48Z</time>
      </trkpt>
      <trkpt lat="45.64922" lon="2.05101">
        <ele>837.2</ele>
        <time>2022-08-03T13:42:50Z</time>
      </trkpt>
      <trkpt lat="45.64919" lon="2.05101">
        <ele>837.5</ele>
        <time>2022-08-03T13:42:52Z</time>
      </trkpt>
      <trkpt lat="45.64916" lon="2.051">
        <ele>837.7</ele>
        <time>2022-08-03T13:42:54Z</time>
      </trkpt>
      <trkpt lat="45.64911" lon="2.05099">
        <ele>837.8</ele>
        <time>2022-08-03T13:42:56Z</time>
      </trkpt>
      <trkpt lat="45.64908" lon="2.05099">
        <ele>837.9</ele>
        <time>2022-08-03T13:42:58Z</time>
      </trkpt>
      <trkpt lat="45.64904" lon="2.05098">
        <ele>837.9</ele>
        <time>2022-08-03T13:43:00Z</time>
      </trkpt>
      <trkpt lat="45.64899" lon="2.05097">
        <ele>838</ele>
        <time>2022-08-03T13:43:02Z</time>
      </trkpt>
      <trkpt lat="45.64895" lon="2.05097">
        <ele>838.2</ele>
        <time>2022-08-03T13:43:04Z</time>
      </trkpt>
      <trkpt lat="45.6489" lon="2.05096">
        <ele>838.3</ele>
        <time>2022-08-03T13:43:06Z</time>
      </trkpt>
      <trkpt lat="45.64886" lon="2.05095">
        <ele>838.4</ele>
        <time>2022-08-03T13:43:08Z</time>
      </trkpt>
      <trkpt lat="45.64881" lon="2.05094">
        <ele>838.5</ele>
        <time>2022-08-03T13:43:10Z</time>
      </trkpt>
      <trkpt lat="45.64875" lon="2.05093">
        <ele>838.6</ele>
        <time>2022-08-03T13:43:12Z</time>
      </trkpt>
      <trkpt lat="45.6487" lon="2.05092">
        <ele>838.7</ele>
        <time>2022-08-03T13:43:14Z</time>
      </trkpt>
      <trkpt lat="45.64865" lon="2.05091">
        <ele>838.8</ele>
        <time>2022-08-03T13:43:16Z</time>
      </trkpt>
      <trkpt lat="45.64859" lon="2.0509">
        <ele>838.8</ele>
        <time>2022-08-03T13:43:18Z</time>
      </trkpt>
      <trkpt lat="45.64854" lon="2.05089">
        <ele>838.9</ele>
        <time>2022-08-03T13:43:20Z</time>
      </trkpt>
      <trkpt lat="45.64849" lon="2.05088">
        <ele>839</ele>
        <time>2022-08-03T13:43:22Z</time>
      </trkpt>
      <trkpt lat="45.64844" lon="2.05086">
        <ele>839</ele>
        <time>2022-08-03T13:43:24Z</time>
      </trkpt>
      <trkpt lat="45.64838" lon="2.05085">
        <ele>839</ele>
        <time>2022-08-03T13:43:26Z</time>
      </trkpt>
      <trkpt lat="45.64833" lon="2.05084">
        <ele>839.1</ele>
        <time>2022-08-03T13:43:28Z</time>
      </trkpt>
      <trkpt lat="45.64828" lon="2.05083">
        <ele>839.5</ele>
        <time>2022-08-03T13:43:30Z</time>
      </trkpt>
      <trkpt lat="45.64823" lon="2.05082">
        <ele>840</ele>
        <time>2022-08-03T13:43:32Z</time>
      </trkpt>
      <trkpt lat="45.64818" lon="2.05081">
        <ele>840.5</ele>
        <time>2022-08-03T13:43:34Z</time>
      </trkpt>
      <trkpt lat="45.64814" lon="2.05081">
        <ele>840.9</ele>
        <time>2022-08-03T13:43:36Z</time>
      </trkpt>
      <trkpt lat="45.6481" lon="2.0508">
        <ele>841.4</ele>
        <time>2022-08-03T13:43:38Z</time>
      </trkpt>
      <trkpt lat="45.64805" lon="2.05079">
        <ele>841.8</ele>
        <time>2022-08-03T13:43:40Z</time>
      </trkpt>
      <trkpt lat="45.64801" lon="2.05078">
        <ele>842.1</ele>
        <time>2022-08-03T13:43:42Z</time>
      </trkpt>
      <trkpt lat="45.64797" lon="2.05076">
        <ele>842.4</ele>
        <time>2022-08-03T13:43:44Z</time>
      </trkpt>
      <trkpt lat="45.64793" lon="2.05075">
        <ele>842.8</ele>
        <time>2022-08-03T13:43:46Z</time>
      </trkpt>
      <trkpt lat="45.6479" lon="2.05072">
        <ele>843</ele>
        <time>2022-08-03T13:43:48Z</time>
      </trkpt>
      <trkpt lat="45.64787" lon="2.05068">
        <ele>843.1</ele>
        <time>2022-08-03T13:43:50Z</time>
      </trkpt>
      <trkpt lat="45.64784" lon="2.05061">
        <ele>843</ele>
        <time>2022-08-03T13:43:52Z</time>
      </trkpt>
      <trkpt lat="45.64782" lon="2.05054">
        <ele>842.9</ele>
        <time>2022-08-03T13:43:54Z</time>
      </trkpt>
      <trkpt lat="45.6478" lon="2.05047">
        <ele>842.7</ele>
        <time>2022-08-03T13:43:56Z</time>
      </trkpt>
      <trkpt lat="45.64777" lon="2.05041">
        <ele>842.7</ele>
        <time>2022-08-03T13:43:58Z</time>
      </trkpt>
      <trkpt lat="45.64774" lon="2.05034">
        <ele>842.7</ele>
        <time>2022-08-03T13:44:00Z</time>
      </trkpt>
      <trkpt lat="45.6477" lon="2.05029">
        <ele>842.9</ele>
        <time>2022-08-03T13:44:02Z</time>
      </trkpt>
      <trkpt lat="45.64766" lon="2.05023">
        <ele>843.1</ele>
        <time>2022-08-03T13:44:04Z</time>
      </trkpt>
      <trkpt lat="45.64762" lon="2.05018">
        <ele>843.3</ele>
        <time>2022-08-03T13:44:06Z</time>
      </trkpt>
      <trkpt lat="45.64758" lon="2.05014">
        <ele>843.7</ele>
        <time>2022-08-03T13:44:08Z</time>
      </trkpt>
      <trkpt lat="45.64753" lon="2.05011">
        <ele>844.1</ele>
        <time>2022-08-03T13:44:10Z</time>
      </trkpt>
      <trkpt lat="45.64749" lon="2.05011">
        <ele>844.7</ele>
        <time>2022-08-03T13:44:12Z</time>
      </trkpt>
      <trkpt lat="45.64744" lon="2.0501">
        <ele>845.1</ele>
        <time>2022-08-03T13:44:14Z</time>
      </trkpt>
      <trkpt lat="45.64739" lon="2.0501">
        <ele>845.5</ele>
        <time>2022-08-03T13:44:16Z</time>
      </trkpt>
      <trkpt lat="45.64734" lon="2.05011">
        <ele>846.1</ele>
        <time>2022-08-03T13:44:18Z</time>
      </trkpt>
      <trkpt lat="45.6473" lon="2.05013">
        <ele>846.6</ele>
        <time>2022-08-03T13:44:20Z</time>
      </trkpt>
      <trkpt lat="45.64725" lon="2.05014">
        <ele>847</ele>
        <time>2022-08-03T13:44:22Z</time>
      </trkpt>
      <trkpt lat="45.64722" lon="2.05015">
        <ele>847.4</ele>
        <time>2022-08-03T13:44:24Z</time>
      </trkpt>
      <trkpt lat="45.64717" lon="2.05016">
        <ele>847.8</ele>
        <time>2022-08-03T13:44:26Z</time>
      </trkpt>
      <trkpt lat="45.64713" lon="2.05017">
        <ele>848.3</ele>
        <time>2022-08-03T13:44:28Z</time>
      </trkpt>
      <trkpt lat="45.64708" lon="2.05016">
        <ele>848.7</ele>
        <time>2022-08-03T13:44:30Z</time>
      </trkpt>
      <trkpt lat="45.64704" lon="2.05014">
        <ele>849</ele>
        <time>2022-08-03T13:44:32Z</time>
      </trkpt>
      <trkpt lat="45.647" lon="2.05012">
        <ele>849.3</ele>
        <time>2022-08-03T13:44:34Z</time>
      </trkpt>
      <trkpt lat="45.64696" lon="2.05009">
        <ele>849.6</ele>
        <time>2022-08-03T13:44:36Z</time>
      </trkpt>
      <trkpt lat="45.64692" lon="2.05005">
        <ele>849.7</ele>
        <time>2022-08-03T13:44:38Z</time>
      </trkpt>
      <trkpt lat="45.64689" lon="2.05002">
        <ele>849.9</ele>
        <time>2022-08-03T13:44:40Z</time>
      </trkpt>
      <trkpt lat="45.64686" lon="2.04999">
        <ele>850.2</ele>
        <time>2022-08-03T13:44:42Z</time>
      </trkpt>
      <trkpt lat="45.64682" lon="2.04996">
        <ele>850.4</ele>
        <time>2022-08-03T13:44:44Z</time>
      </trkpt>
      <trkpt lat="45.64678" lon="2.04993">
        <ele>850.8</ele>
        <time>2022-08-03T13:44:46Z</time>
      </trkpt>
      <trkpt lat="45.64675" lon="2.0499">
        <ele>851.1</ele>
        <time>2022-08-03T13:44:48Z</time>
      </trkpt>
      <trkpt lat="45.64671" lon="2.04988">
        <ele>851.5</ele>
        <time>2022-08-03T13:44:50Z</time>
      </trkpt>
      <trkpt lat="45.64667" lon="2.04986">
        <ele>851.8</ele>
        <time>2022-08-03T13:44:52Z</time>
      </trkpt>
      <trkpt lat="45.64663" lon="2.04984">
        <ele>851.9</ele>
        <time>2022-08-03T13:44:54Z</time>
      </trkpt>
      <trkpt lat="45.64659" lon="2.04983">
        <ele>851.9</ele>
        <time>2022-08-03T13:44:56Z</time>
      </trkpt>
      <trkpt lat="45.64656" lon="2.04981">
        <ele>852</ele>
        <time>2022-08-03T13:44:58Z</time>
      </trkpt>
      <trkpt lat="45.64653" lon="2.04981">
        <ele>852</ele>
        <time>2022-08-03T13:45:00Z</time>
      </trkpt>
      <trkpt lat="45.64649" lon="2.04979">
        <ele>852.1</ele>
        <time>2022-08-03T13:45:02Z</time>
      </trkpt>
      <trkpt lat="45.64645" lon="2.04979">
        <ele>852.1</ele>
        <time>2022-08-03T13:45:04Z</time>
      </trkpt>
      <trkpt lat="45.64642" lon="2.04978">
        <ele>852.2</ele>
        <time>2022-08-03T13:45:06Z</time>
      </trkpt>
      <trkpt lat="45.64639" lon="2.04977">
        <ele>852.2</ele>
        <time>2022-08-03T13:45:08Z</time>
      </trkpt>
      <trkpt lat="45.64635" lon="2.04976">
        <ele>852.3</ele>
        <time>2022-08-03T13:45:10Z</time>
      </trkpt>
      <trkpt lat="45.64631" lon="2.04975">
        <ele>852.4</ele>
        <time>2022-08-03T13:45:12Z</time>
      </trkpt>
      <trkpt lat="45.64628" lon="2.04974">
        <ele>852.4</ele>
        <time>2022-08-03T13:45:14Z</time>
      </trkpt>
      <trkpt lat="45.64625" lon="2.04973">
        <ele>852.5</ele>
        <time>2022-08-03T13:45:16Z</time>
      </trkpt>
      <trkpt lat="45.64621" lon="2.04972">
        <ele>852.6</ele>
        <time>2022-08-03T13:45:18Z</time>
      </trkpt>
      <trkpt lat="45.64618" lon="2.04971">
        <ele>852.6</ele>
        <time>2022-08-03T13:45:20Z</time>
      </trkpt>
      <trkpt lat="45.64615" lon="2.0497">
        <ele>852.7</ele>
        <time>2022-08-03T13:45:22Z</time>
      </trkpt>
      <trkpt lat="45.64611" lon="2.04969">
        <ele>852.8</ele>
        <time>2022-08-03T13:45:24Z</time>
      </trkpt>
      <trkpt lat="45.64608" lon="2.04968">
        <ele>852.9</ele>
        <time>2022-08-03T13:45:26Z</time>
      </trkpt>
      <trkpt lat="45.64605" lon="2.04967">
        <ele>852.9</ele>
        <time>2022-08-03T13:45:28Z</time>
      </trkpt>
      <trkpt lat="45.64601" lon="2.04966">
        <ele>853</ele>
        <time>2022-08-03T13:45:30Z</time>
      </trkpt>
      <trkpt lat="45.64598" lon="2.04965">
        <ele>853.1</ele>
        <time>2022-08-03T13:45:32Z</time>
      </trkpt>
      <trkpt lat="45.64594" lon="2.04965">
        <ele>853.2</ele>
        <time>2022-08-03T13:45:34Z</time>
      </trkpt>
      <trkpt lat="45.64591" lon="2.04964">
        <ele>853.3</ele>
        <time>2022-08-03T13:45:36Z</time>
      </trkpt>
      <trkpt lat="45.64588" lon="2.04962">
        <ele>853.4</ele>
        <time>2022-08-03T13:45:38Z</time>
      </trkpt>
      <trkpt lat="45.64584" lon="2.04961">
        <ele>853.4</ele>
        <time>2022-08-03T13:45:40Z</time>
      </trkpt>
      <trkpt lat="45.64581" lon="2.0496">
        <ele>853.5</ele>
        <time>2022-08-03T13:45:42Z</time>
      </trkpt>
      <trkpt lat="45.64578" lon="2.04959">
        <ele>853.6</ele>
        <time>2022-08-03T13:45:44Z</time>
      </trkpt>
      <trkpt lat="45.64574" lon="2.04958">
        <ele>853.7</ele>
        <time>2022-08-03T13:45:46Z</time>
      </trkpt>
      <trkpt lat="45.64571" lon="2.04957">
        <ele>853.8</ele>
        <time>2022-08-03T13:45:48Z</time>
      </trkpt>
      <trkpt lat="45.64568" lon="2.04956">
        <ele>853.9</ele>
        <time>2022-08-03T13:45:50Z</time>
      </trkpt>
      <trkpt lat="45.64564" lon="2.04955">
        <ele>854</ele>
        <time>2022-08-03T13:45:52Z</time>
      </trkpt>
      <trkpt lat="45.64561" lon="2.04954">
        <ele>854.1</ele>
        <time>2022-08-03T13:45:54Z</time>
      </trkpt>
      <trkpt lat="45.64557" lon="2.04953">
        <ele>854.2</ele>
        <time>2022-08-03T13:45:56Z</time>
      </trkpt>
      <trkpt lat="45.64553" lon="2.04952">
        <ele>854.3</ele>
        <time>2022-08-03T13:45:58Z</time>
      </trkpt>
      <trkpt lat="45.6455" lon="2.04951">
        <ele>854.5</ele>
        <time>2022-08-03T13:46:00Z</time>
      </trkpt>
      <trkpt lat="45.64546" lon="2.0495">
        <ele>854.6</ele>
        <time>2022-08-03T13:46:02Z</time>
      </trkpt>
      <trkpt lat="45.64542" lon="2.04949">
        <ele>854.7</ele>
        <time>2022-08-03T13:46:04Z</time>
      </trkpt>
      <trkpt lat="45.64539" lon="2.04949">
        <ele>854.8</ele>
        <time>2022-08-03T13:46:06Z</time>
      </trkpt>
      <trkpt lat="45.64535" lon="2.04947">
        <ele>854.9</ele>
        <time>2022-08-03T13:46:08Z</time>
      </trkpt>
      <trkpt lat="45.64531" lon="2.04946">
        <ele>855.1</ele>
        <time>2022-08-03T13:46:10Z</time>
      </trkpt>
      <trkpt lat="45.64528" lon="2.04945">
        <ele>855.2</ele>
        <time>2022-08-03T13:46:12Z</time>
      </trkpt>
      <trkpt lat="45.64524" lon="2.04944">
        <ele>855.3</ele>
        <time>2022-08-03T13:46:14Z</time>
      </trkpt>
      <trkpt lat="45.6452" lon="2.04943">
        <ele>855.5</ele>
        <time>2022-08-03T13:46:16Z</time>
      </trkpt>
      <trkpt lat="45.64517" lon="2.04943">
        <ele>855.6</ele>
        <time>2022-08-03T13:46:18Z</time>
      </trkpt>
      <trkpt lat="45.64514" lon="2.04942">
        <ele>855.7</ele>
        <time>2022-08-03T13:46:20Z</time>
      </trkpt>
      <trkpt lat="45.6451" lon="2.04942">
        <ele>855.8</ele>
        <time>2022-08-03T13:46:22Z</time>
      </trkpt>
      <trkpt lat="45.64507" lon="2.0494">
        <ele>856</ele>
        <time>2022-08-03T13:46:24Z</time>
      </trkpt>
      <trkpt lat="45.64503" lon="2.04939">
        <ele>856.1</ele>
        <time>2022-08-03T13:46:26Z</time>
      </trkpt>
      <trkpt lat="45.645" lon="2.04939">
        <ele>856.2</ele>
        <time>2022-08-03T13:46:28Z</time>
      </trkpt>
      <trkpt lat="45.64496" lon="2.04938">
        <ele>856.5</ele>
        <time>2022-08-03T13:46:30Z</time>
      </trkpt>
      <trkpt lat="45.64492" lon="2.04937">
        <ele>856.7</ele>
        <time>2022-08-03T13:46:32Z</time>
      </trkpt>
      <trkpt lat="45.64488" lon="2.04937">
        <ele>856.9</ele>
        <time>2022-08-03T13:46:34Z</time>
      </trkpt>
      <trkpt lat="45.64484" lon="2.04937">
        <ele>857.2</ele>
        <time>2022-08-03T13:46:36Z</time>
      </trkpt>
      <trkpt lat="45.64481" lon="2.04936">
        <ele>857.4</ele>
        <time>2022-08-03T13:46:38Z</time>
      </trkpt>
      <trkpt lat="45.64477" lon="2.04936">
        <ele>857.6</ele>
        <time>2022-08-03T13:46:40Z</time>
      </trkpt>
      <trkpt lat="45.64473" lon="2.04936">
        <ele>857.8</ele>
        <time>2022-08-03T13:46:42Z</time>
      </trkpt>
      <trkpt lat="45.64469" lon="2.04935">
        <ele>858.1</ele>
        <time>2022-08-03T13:46:44Z</time>
      </trkpt>
      <trkpt lat="45.64465" lon="2.04934">
        <ele>858.3</ele>
        <time>2022-08-03T13:46:46Z</time>
      </trkpt>
      <trkpt lat="45.64461" lon="2.04935">
        <ele>858.5</ele>
        <time>2022-08-03T13:46:48Z</time>
      </trkpt>
      <trkpt lat="45.64458" lon="2.04935">
        <ele>858.7</ele>
        <time>2022-08-03T13:46:50Z</time>
      </trkpt>
      <trkpt lat="45.64454" lon="2.04934">
        <ele>858.9</ele>
        <time>2022-08-03T13:46:52Z</time>
      </trkpt>
      <trkpt lat="45.6445" lon="2.04935">
        <ele>859.1</ele>
        <time>2022-08-03T13:46:54Z</time>
      </trkpt>
      <trkpt lat="45.64446" lon="2.04935">
        <ele>859.4</ele>
        <time>2022-08-03T13:46:56Z</time>
      </trkpt>
      <trkpt lat="45.64442" lon="2.04934">
        <ele>859.6</ele>
        <time>2022-08-03T13:46:58Z</time>
      </trkpt>
      <trkpt lat="45.64438" lon="2.04934">
        <ele>859.8</ele>
        <time>2022-08-03T13:47:00Z</time>
      </trkpt>
      <trkpt lat="45.64434" lon="2.04935">
        <ele>860.1</ele>
        <time>2022-08-03T13:47:02Z</time>
      </trkpt>
      <trkpt lat="45.64429" lon="2.04935">
        <ele>860.3</ele>
        <time>2022-08-03T13:47:04Z</time>
      </trkpt>
      <trkpt lat="45.64425" lon="2.04935">
        <ele>860.5</ele>
        <time>2022-08-03T13:47:06Z</time>
      </trkpt>
      <trkpt lat="45.64421" lon="2.04934">
        <ele>860.8</ele>
        <time>2022-08-03T13:47:08Z</time>
      </trkpt>
      <trkpt lat="45.64417" lon="2.04934">
        <ele>861</ele>
        <time>2022-08-03T13:47:10Z</time>
      </trkpt>
      <trkpt lat="45.64413" lon="2.04934">
        <ele>861.3</ele>
        <time>2022-08-03T13:47:12Z</time>
      </trkpt>
      <trkpt lat="45.64409" lon="2.04934">
        <ele>861.6</ele>
        <time>2022-08-03T13:47:14Z</time>
      </trkpt>
      <trkpt lat="45.64405" lon="2.04934">
        <ele>861.9</ele>
        <time>2022-08-03T13:47:16Z</time>
      </trkpt>
      <trkpt lat="45.64401" lon="2.04933">
        <ele>862.3</ele>
        <time>2022-08-03T13:47:18Z</time>
      </trkpt>
      <trkpt lat="45.64396" lon="2.04933">
        <ele>862.7</ele>
        <time>2022-08-03T13:47:20Z</time>
      </trkpt>
      <trkpt lat="45.64392" lon="2.04933">
        <ele>863</ele>
        <time>2022-08-03T13:47:22Z</time>
      </trkpt>
      <trkpt lat="45.64388" lon="2.04933">
        <ele>863.3</ele>
        <time>2022-08-03T13:47:24Z</time>
      </trkpt>
      <trkpt lat="45.64384" lon="2.04932">
        <ele>863.7</ele>
        <time>2022-08-03T13:47:26Z</time>
      </trkpt>
      <trkpt lat="45.6438" lon="2.04932">
        <ele>864</ele>
        <time>2022-08-03T13:47:28Z</time>
      </trkpt>
      <trkpt lat="45.64375" lon="2.04932">
        <ele>864.4</ele>
        <time>2022-08-03T13:47:30Z</time>
      </trkpt>
      <trkpt lat="45.64371" lon="2.04931">
        <ele>864.7</ele>
        <time>2022-08-03T13:47:32Z</time>
      </trkpt>
      <trkpt lat="45.64367" lon="2.0493">
        <ele>865.1</ele>
        <time>2022-08-03T13:47:34Z</time>
      </trkpt>
      <trkpt lat="45.64363" lon="2.04929">
        <ele>865.4</ele>
        <time>2022-08-03T13:47:36Z</time>
      </trkpt>
      <trkpt lat="45.64359" lon="2.04929">
        <ele>865.8</ele>
        <time>2022-08-03T13:47:38Z</time>
      </trkpt>
      <trkpt lat="45.64354" lon="2.04929">
        <ele>866.1</ele>
        <time>2022-08-03T13:47:40Z</time>
      </trkpt>
      <trkpt lat="45.6435" lon="2.04928">
        <ele>866.5</ele>
        <time>2022-08-03T13:47:42Z</time>
      </trkpt>
      <trkpt lat="45.64346" lon="2.04927">
        <ele>866.8</ele>
        <time>2022-08-03T13:47:44Z</time>
      </trkpt>
      <trkpt lat="45.64342" lon="2.04926">
        <ele>867.2</ele>
        <time>2022-08-03T13:47:46Z</time>
      </trkpt>
      <trkpt lat="45.64339" lon="2.04925">
        <ele>867.5</ele>
        <time>2022-08-03T13:47:48Z</time>
      </trkpt>
      <trkpt lat="45.64334" lon="2.04924">
        <ele>867.8</ele>
        <time>2022-08-03T13:47:50Z</time>
      </trkpt>
      <trkpt lat="45.6433" lon="2.04922">
        <ele>868.1</ele>
        <time>2022-08-03T13:47:52Z</time>
      </trkpt>
      <trkpt lat="45.64326" lon="2.04921">
        <ele>868.3</ele>
        <time>2022-08-03T13:47:54Z</time>
      </trkpt>
      <trkpt lat="45.64321" lon="2.0492">
        <ele>868.5</ele>
        <time>2022-08-03T13:47:56Z</time>
      </trkpt>
      <trkpt lat="45.64317" lon="2.04919">
        <ele>868.8</ele>
        <time>2022-08-03T13:47:58Z</time>
      </trkpt>
      <trkpt lat="45.64313" lon="2.04918">
        <ele>869</ele>
        <time>2022-08-03T13:48:00Z</time>
      </trkpt>
      <trkpt lat="45.64308" lon="2.04916">
        <ele>869.2</ele>
        <time>2022-08-03T13:48:02Z</time>
      </trkpt>
      <trkpt lat="45.64304" lon="2.04915">
        <ele>869.4</ele>
        <time>2022-08-03T13:48:04Z</time>
      </trkpt>
      <trkpt lat="45.643" lon="2.04913">
        <ele>869.7</ele>
        <time>2022-08-03T13:48:06Z</time>
      </trkpt>
      <trkpt lat="45.64295" lon="2.04912">
        <ele>869.9</ele>
        <time>2022-08-03T13:48:08Z</time>
      </trkpt>
      <trkpt lat="45.64291" lon="2.0491">
        <ele>870.2</ele>
        <time>2022-08-03T13:48:10Z</time>
      </trkpt>
      <trkpt lat="45.64286" lon="2.04909">
        <ele>870.4</ele>
        <time>2022-08-03T13:48:12Z</time>
      </trkpt>
      <trkpt lat="45.64282" lon="2.04908">
        <ele>870.7</ele>
        <time>2022-08-03T13:48:14Z</time>
      </trkpt>
      <trkpt lat="45.64277" lon="2.04906">
        <ele>871</ele>
        <time>2022-08-03T13:48:16Z</time>
      </trkpt>
      <trkpt lat="45.64272" lon="2.04905">
        <ele>871.2</ele>
        <time>2022-08-03T13:48:18Z</time>
      </trkpt>
      <trkpt lat="45.64268" lon="2.04904">
        <ele>871.5</ele>
        <time>2022-08-03T13:48:20Z</time>
      </trkpt>
      <trkpt lat="45.64263" lon="2.04902">
        <ele>871.7</ele>
        <time>2022-08-03T13:48:22Z</time>
      </trkpt>
      <trkpt lat="45.64259" lon="2.049">
        <ele>872</ele>
        <time>2022-08-03T13:48:24Z</time>
      </trkpt>
      <trkpt lat="45.64254" lon="2.04898">
        <ele>872.3</ele>
        <time>2022-08-03T13:48:26Z</time>
      </trkpt>
      <trkpt lat="45.64249" lon="2.04896">
        <ele>872.5</ele>
        <time>2022-08-03T13:48:28Z</time>
      </trkpt>
      <trkpt lat="45.64244" lon="2.04894">
        <ele>872.8</ele>
        <time>2022-08-03T13:48:30Z</time>
      </trkpt>
      <trkpt lat="45.64239" lon="2.04891">
        <ele>873.1</ele>
        <time>2022-08-03T13:48:32Z</time>
      </trkpt>
      <trkpt lat="45.64234" lon="2.04887">
        <ele>873.3</ele>
        <time>2022-08-03T13:48:34Z</time>
      </trkpt>
      <trkpt lat="45.64229" lon="2.04883">
        <ele>873.7</ele>
        <time>2022-08-03T13:48:36Z</time>
      </trkpt>
      <trkpt lat="45.64226" lon="2.04878">
        <ele>873.9</ele>
        <time>2022-08-03T13:48:38Z</time>
      </trkpt>
      <trkpt lat="45.64222" lon="2.04873">
        <ele>874.2</ele>
        <time>2022-08-03T13:48:40Z</time>
      </trkpt>
      <trkpt lat="45.64218" lon="2.04868">
        <ele>874.6</ele>
        <time>2022-08-03T13:48:42Z</time>
      </trkpt>
      <trkpt lat="45.64214" lon="2.04862">
        <ele>874.9</ele>
        <time>2022-08-03T13:48:44Z</time>
      </trkpt>
      <trkpt lat="45.64211" lon="2.04856">
        <ele>875.2</ele>
        <time>2022-08-03T13:48:46Z</time>
      </trkpt>
      <trkpt lat="45.64208" lon="2.0485">
        <ele>875.5</ele>
        <time>2022-08-03T13:48:48Z</time>
      </trkpt>
      <trkpt lat="45.64205" lon="2.04844">
        <ele>875.9</ele>
        <time>2022-08-03T13:48:50Z</time>
      </trkpt>
      <trkpt lat="45.64202" lon="2.04838">
        <ele>876.2</ele>
        <time>2022-08-03T13:48:52Z</time>
      </trkpt>
      <trkpt lat="45.64198" lon="2.04832">
        <ele>876.5</ele>
        <time>2022-08-03T13:48:54Z</time>
      </trkpt>
      <trkpt lat="45.64195" lon="2.04826">
        <ele>876.7</ele>
        <time>2022-08-03T13:48:56Z</time>
      </trkpt>
      <trkpt lat="45.64191" lon="2.0482">
        <ele>877</ele>
        <time>2022-08-03T13:48:58Z</time>
      </trkpt>
      <trkpt lat="45.64188" lon="2.04813">
        <ele>877.2</ele>
        <time>2022-08-03T13:49:00Z</time>
      </trkpt>
      <trkpt lat="45.64184" lon="2.04806">
        <ele>877.5</ele>
        <time>2022-08-03T13:49:02Z</time>
      </trkpt>
      <trkpt lat="45.6418" lon="2.04799">
        <ele>877.8</ele>
        <time>2022-08-03T13:49:04Z</time>
      </trkpt>
      <trkpt lat="45.64177" lon="2.04791">
        <ele>878</ele>
        <time>2022-08-03T13:49:06Z</time>
      </trkpt>
      <trkpt lat="45.64173" lon="2.04783">
        <ele>878.3</ele>
        <time>2022-08-03T13:49:08Z</time>
      </trkpt>
      <trkpt lat="45.64169" lon="2.04777">
        <ele>878.6</ele>
        <time>2022-08-03T13:49:10Z</time>
      </trkpt>
      <trkpt lat="45.64166" lon="2.0477">
        <ele>878.8</ele>
        <time>2022-08-03T13:49:12Z</time>
      </trkpt>
      <trkpt lat="45.64162" lon="2.04763">
        <ele>879</ele>
        <time>2022-08-03T13:49:14Z</time>
      </trkpt>
      <trkpt lat="45.64158" lon="2.04755">
        <ele>879.1</ele>
        <time>2022-08-03T13:49:16Z</time>
      </trkpt>
      <trkpt lat="45.64154" lon="2.04748">
        <ele>879.3</ele>
        <time>2022-08-03T13:49:18Z</time>
      </trkpt>
      <trkpt lat="45.6415" lon="2.0474">
        <ele>879.2</ele>
        <time>2022-08-03T13:49:20Z</time>
      </trkpt>
      <trkpt lat="45.64146" lon="2.04732">
        <ele>879.1</ele>
        <time>2022-08-03T13:49:22Z</time>
      </trkpt>
      <trkpt lat="45.64142" lon="2.04723">
        <ele>878.9</ele>
        <time>2022-08-03T13:49:24Z</time>
      </trkpt>
      <trkpt lat="45.64138" lon="2.04714">
        <ele>878.7</ele>
        <time>2022-08-03T13:49:26Z</time>
      </trkpt>
      <trkpt lat="45.64134" lon="2.04703">
        <ele>878.3</ele>
        <time>2022-08-03T13:49:28Z</time>
      </trkpt>
      <trkpt lat="45.6413" lon="2.04692">
        <ele>878</ele>
        <time>2022-08-03T13:49:30Z</time>
      </trkpt>
      <trkpt lat="45.64127" lon="2.04681">
        <ele>877.5</ele>
        <time>2022-08-03T13:49:32Z</time>
      </trkpt>
      <trkpt lat="45.64122" lon="2.04669">
        <ele>877</ele>
        <time>2022-08-03T13:49:34Z</time>
      </trkpt>
      <trkpt lat="45.64116" lon="2.04658">
        <ele>876.1</ele>
        <time>2022-08-03T13:49:36Z</time>
      </trkpt>
      <trkpt lat="45.64109" lon="2.04647">
        <ele>875.1</ele>
        <time>2022-08-03T13:49:38Z</time>
      </trkpt>
      <trkpt lat="45.64101" lon="2.04637">
        <ele>874.1</ele>
        <time>2022-08-03T13:49:40Z</time>
      </trkpt>
      <trkpt lat="45.64091" lon="2.04626">
        <ele>872.9</ele>
        <time>2022-08-03T13:49:42Z</time>
      </trkpt>
      <trkpt lat="45.64081" lon="2.04615">
        <ele>871.7</ele>
        <time>2022-08-03T13:49:44Z</time>
      </trkpt>
      <trkpt lat="45.64071" lon="2.04603">
        <ele>871</ele>
        <time>2022-08-03T13:49:46Z</time>
      </trkpt>
      <trkpt lat="45.6406" lon="2.04591">
        <ele>870.2</ele>
        <time>2022-08-03T13:49:48Z</time>
      </trkpt>
      <trkpt lat="45.64047" lon="2.04579">
        <ele>869.5</ele>
        <time>2022-08-03T13:49:50Z</time>
      </trkpt>
      <trkpt lat="45.64034" lon="2.04569">
        <ele>869</ele>
        <time>2022-08-03T13:49:52Z</time>
      </trkpt>
      <trkpt lat="45.64019" lon="2.0456">
        <ele>868.4</ele>
        <time>2022-08-03T13:49:54Z</time>
      </trkpt>
      <trkpt lat="45.64003" lon="2.04552">
        <ele>867.6</ele>
        <time>2022-08-03T13:49:56Z</time>
      </trkpt>
      <trkpt lat="45.63986" lon="2.04544">
        <ele>865.9</ele>
        <time>2022-08-03T13:49:58Z</time>
      </trkpt>
      <trkpt lat="45.63971" lon="2.04536">
        <ele>864.1</ele>
        <time>2022-08-03T13:50:00Z</time>
      </trkpt>
      <trkpt lat="45.63955" lon="2.04531">
        <ele>862.3</ele>
        <time>2022-08-03T13:50:02Z</time>
      </trkpt>
      <trkpt lat="45.63937" lon="2.04527">
        <ele>860.6</ele>
        <time>2022-08-03T13:50:04Z</time>
      </trkpt>
      <trkpt lat="45.63918" lon="2.04525">
        <ele>859</ele>
        <time>2022-08-03T13:50:06Z</time>
      </trkpt>
      <trkpt lat="45.63899" lon="2.04524">
        <ele>857.6</ele>
        <time>2022-08-03T13:50:08Z</time>
      </trkpt>
      <trkpt lat="45.63879" lon="2.04523">
        <ele>856.3</ele>
        <time>2022-08-03T13:50:10Z</time>
      </trkpt>
      <trkpt lat="45.63857" lon="2.04523">
        <ele>854.9</ele>
        <time>2022-08-03T13:50:12Z</time>
      </trkpt>
      <trkpt lat="45.63837" lon="2.04519">
        <ele>853.3</ele>
        <time>2022-08-03T13:50:14Z</time>
      </trkpt>
      <trkpt lat="45.63819" lon="2.04511">
        <ele>852.2</ele>
        <time>2022-08-03T13:50:16Z</time>
      </trkpt>
      <trkpt lat="45.63805" lon="2.04501">
        <ele>851.4</ele>
        <time>2022-08-03T13:50:18Z</time>
      </trkpt>
      <trkpt lat="45.63792" lon="2.04491">
        <ele>850.4</ele>
        <time>2022-08-03T13:50:20Z</time>
      </trkpt>
      <trkpt lat="45.63781" lon="2.04483">
        <ele>849.5</ele>
        <time>2022-08-03T13:50:22Z</time>
      </trkpt>
      <trkpt lat="45.63772" lon="2.04476">
        <ele>848.6</ele>
        <time>2022-08-03T13:50:24Z</time>
      </trkpt>
      <trkpt lat="45.63764" lon="2.04468">
        <ele>847.7</ele>
        <time>2022-08-03T13:50:26Z</time>
      </trkpt>
      <trkpt lat="45.63758" lon="2.04463">
        <ele>847.1</ele>
        <time>2022-08-03T13:50:28Z</time>
      </trkpt>
      <trkpt lat="45.63753" lon="2.04457">
        <ele>846.3</ele>
        <time>2022-08-03T13:50:30Z</time>
      </trkpt>
      <trkpt lat="45.6375" lon="2.04451">
        <ele>845.6</ele>
        <time>2022-08-03T13:50:32Z</time>
      </trkpt>
      <trkpt lat="45.63749" lon="2.0445">
        <ele>845.4</ele>
        <time>2022-08-03T13:50:34Z</time>
      </trkpt>
      <trkpt lat="45.63749" lon="2.0445">
        <ele>845.4</ele>
        <time>2022-08-03T13:50:36Z</time>
      </trkpt>
      <trkpt lat="45.63749" lon="2.0445">
        <ele>845.4</ele>
        <time>2022-08-03T13:50:38Z</time>
      </trkpt>
      <trkpt lat="45.63749" lon="2.0445">
        <ele>845.4</ele>
        <time>2022-08-03T13:50:40Z</time>
      </trkpt>
      <trkpt lat="45.63749" lon="2.0445">
        <ele>845.4</ele>
        <time>2022-08-03T13:50:42Z</time>
      </trkpt>
      <trkpt lat="45.63738" lon="2.04424">
        <ele>842.2</ele>
        <time>2022-08-03T13:50:52Z</time>
      </trkpt>
      <trkpt lat="45.63731" lon="2.04412">
        <ele>841</ele>
        <time>2022-08-03T13:50:54Z</time>
      </trkpt>
      <trkpt lat="45.63723" lon="2.04397">
        <ele>839.6</ele>
        <time>2022-08-03T13:50:56Z</time>
      </trkpt>
      <trkpt lat="45.63714" lon="2.04381">
        <ele>838.2</ele>
        <time>2022-08-03T13:50:58Z</time>
      </trkpt>
      <trkpt lat="45.63703" lon="2.04363">
        <ele>836.7</ele>
        <time>2022-08-03T13:51:00Z</time>
      </trkpt>
      <trkpt lat="45.63692" lon="2.04344">
        <ele>835.1</ele>
        <time>2022-08-03T13:51:02Z</time>
      </trkpt>
      <trkpt lat="45.6368" lon="2.04324">
        <ele>833.7</ele>
        <time>2022-08-03T13:51:04Z</time>
      </trkpt>
      <trkpt lat="45.63667" lon="2.04305">
        <ele>832.3</ele>
        <time>2022-08-03T13:51:06Z</time>
      </trkpt>
      <trkpt lat="45.63652" lon="2.04287">
        <ele>830.8</ele>
        <time>2022-08-03T13:51:08Z</time>
      </trkpt>
      <trkpt lat="45.63636" lon="2.04269">
        <ele>829.3</ele>
        <time>2022-08-03T13:51:10Z</time>
      </trkpt>
      <trkpt lat="45.63619" lon="2.0425">
        <ele>827.6</ele>
        <time>2022-08-03T13:51:12Z</time>
      </trkpt>
      <trkpt lat="45.63601" lon="2.04229">
        <ele>827.1</ele>
        <time>2022-08-03T13:51:14Z</time>
      </trkpt>
      <trkpt lat="45.63586" lon="2.04204">
        <ele>826.3</ele>
        <time>2022-08-03T13:51:16Z</time>
      </trkpt>
      <trkpt lat="45.63569" lon="2.04185">
        <ele>825.6</ele>
        <time>2022-08-03T13:51:18Z</time>
      </trkpt>
      <trkpt lat="45.6355" lon="2.04171">
        <ele>825.5</ele>
        <time>2022-08-03T13:51:20Z</time>
      </trkpt>
      <trkpt lat="45.63531" lon="2.04159">
        <ele>826.3</ele>
        <time>2022-08-03T13:51:22Z</time>
      </trkpt>
      <trkpt lat="45.63514" lon="2.04149">
        <ele>827.3</ele>
        <time>2022-08-03T13:51:24Z</time>
      </trkpt>
      <trkpt lat="45.63498" lon="2.04142">
        <ele>827.8</ele>
        <time>2022-08-03T13:51:26Z</time>
      </trkpt>
      <trkpt lat="45.63483" lon="2.04141">
        <ele>828.2</ele>
        <time>2022-08-03T13:51:28Z</time>
      </trkpt>
      <trkpt lat="45.6347" lon="2.04142">
        <ele>828.4</ele>
        <time>2022-08-03T13:51:30Z</time>
      </trkpt>
      <trkpt lat="45.6346" lon="2.04144">
        <ele>828.5</ele>
        <time>2022-08-03T13:51:32Z</time>
      </trkpt>
      <trkpt lat="45.6345" lon="2.04145">
        <ele>828.6</ele>
        <time>2022-08-03T13:51:34Z</time>
      </trkpt>
      <trkpt lat="45.63442" lon="2.04146">
        <ele>828.7</ele>
        <time>2022-08-03T13:51:36Z</time>
      </trkpt>
      <trkpt lat="45.63435" lon="2.04147">
        <ele>828.8</ele>
        <time>2022-08-03T13:51:38Z</time>
      </trkpt>
      <trkpt lat="45.63429" lon="2.04147">
        <ele>828.9</ele>
        <time>2022-08-03T13:51:40Z</time>
      </trkpt>
      <trkpt lat="45.63422" lon="2.04146">
        <ele>829.1</ele>
        <time>2022-08-03T13:51:42Z</time>
      </trkpt>
      <trkpt lat="45.63416" lon="2.04145">
        <ele>829.3</ele>
        <time>2022-08-03T13:51:44Z</time>
      </trkpt>
      <trkpt lat="45.6341" lon="2.04142">
        <ele>829.1</ele>
        <time>2022-08-03T13:51:46Z</time>
      </trkpt>
      <trkpt lat="45.63404" lon="2.04139">
        <ele>828.9</ele>
        <time>2022-08-03T13:51:48Z</time>
      </trkpt>
      <trkpt lat="45.63399" lon="2.04135">
        <ele>828.8</ele>
        <time>2022-08-03T13:51:50Z</time>
      </trkpt>
      <trkpt lat="45.63393" lon="2.04131">
        <ele>828.6</ele>
        <time>2022-08-03T13:51:52Z</time>
      </trkpt>
      <trkpt lat="45.63387" lon="2.04125">
        <ele>828.5</ele>
        <time>2022-08-03T13:51:54Z</time>
      </trkpt>
      <trkpt lat="45.6338" lon="2.04123">
        <ele>828.2</ele>
        <time>2022-08-03T13:51:56Z</time>
      </trkpt>
      <trkpt lat="45.63373" lon="2.04118">
        <ele>827.9</ele>
        <time>2022-08-03T13:51:58Z</time>
      </trkpt>
      <trkpt lat="45.63366" lon="2.04112">
        <ele>827.7</ele>
        <time>2022-08-03T13:52:00Z</time>
      </trkpt>
      <trkpt lat="45.6336" lon="2.04106">
        <ele>827.4</ele>
        <time>2022-08-03T13:52:02Z</time>
      </trkpt>
      <trkpt lat="45.63352" lon="2.04101">
        <ele>827</ele>
        <time>2022-08-03T13:52:04Z</time>
      </trkpt>
      <trkpt lat="45.63345" lon="2.04093">
        <ele>826.7</ele>
        <time>2022-08-03T13:52:06Z</time>
      </trkpt>
      <trkpt lat="45.63337" lon="2.04083">
        <ele>826.3</ele>
        <time>2022-08-03T13:52:08Z</time>
      </trkpt>
      <trkpt lat="45.6333" lon="2.04073">
        <ele>826</ele>
        <time>2022-08-03T13:52:10Z</time>
      </trkpt>
      <trkpt lat="45.63325" lon="2.0406">
        <ele>825.9</ele>
        <time>2022-08-03T13:52:12Z</time>
      </trkpt>
      <trkpt lat="45.6332" lon="2.0405">
        <ele>825.8</ele>
        <time>2022-08-03T13:52:14Z</time>
      </trkpt>
      <trkpt lat="45.63315" lon="2.0404">
        <ele>825.6</ele>
        <time>2022-08-03T13:52:16Z</time>
      </trkpt>
      <trkpt lat="45.63311" lon="2.04028">
        <ele>825.6</ele>
        <time>2022-08-03T13:52:18Z</time>
      </trkpt>
      <trkpt lat="45.63309" lon="2.04019">
        <ele>825.7</ele>
        <time>2022-08-03T13:52:20Z</time>
      </trkpt>
      <trkpt lat="45.63308" lon="2.04011">
        <ele>825.9</ele>
        <time>2022-08-03T13:52:22Z</time>
      </trkpt>
      <trkpt lat="45.63307" lon="2.04004">
        <ele>826</ele>
        <time>2022-08-03T13:52:24Z</time>
      </trkpt>
      <trkpt lat="45.63309" lon="2.03997">
        <ele>826.2</ele>
        <time>2022-08-03T13:52:26Z</time>
      </trkpt>
      <trkpt lat="45.63311" lon="2.03992">
        <ele>826.3</ele>
        <time>2022-08-03T13:52:28Z</time>
      </trkpt>
      <trkpt lat="45.63312" lon="2.03986">
        <ele>826.4</ele>
        <time>2022-08-03T13:52:30Z</time>
      </trkpt>
      <trkpt lat="45.63312" lon="2.0398">
        <ele>826.4</ele>
        <time>2022-08-03T13:52:32Z</time>
      </trkpt>
      <trkpt lat="45.63311" lon="2.03974">
        <ele>826.3</ele>
        <time>2022-08-03T13:52:34Z</time>
      </trkpt>
      <trkpt lat="45.6331" lon="2.03968">
        <ele>826.2</ele>
        <time>2022-08-03T13:52:36Z</time>
      </trkpt>
      <trkpt lat="45.63308" lon="2.03965">
        <ele>826.1</ele>
        <time>2022-08-03T13:52:38Z</time>
      </trkpt>
      <trkpt lat="45.63307" lon="2.03963">
        <ele>825.9</ele>
        <time>2022-08-03T13:52:40Z</time>
      </trkpt>
      <trkpt lat="45.63304" lon="2.03962">
        <ele>825.7</ele>
        <time>2022-08-03T13:52:42Z</time>
      </trkpt>
      <trkpt lat="45.633" lon="2.03959">
        <ele>825.4</ele>
        <time>2022-08-03T13:52:44Z</time>
      </trkpt>
      <trkpt lat="45.63296" lon="2.03957">
        <ele>825.1</ele>
        <time>2022-08-03T13:52:46Z</time>
      </trkpt>
      <trkpt lat="45.63292" lon="2.03956">
        <ele>824.8</ele>
        <time>2022-08-03T13:52:48Z</time>
      </trkpt>
      <trkpt lat="45.63288" lon="2.03955">
        <ele>824.5</ele>
        <time>2022-08-03T13:52:50Z</time>
      </trkpt>
      <trkpt lat="45.63287" lon="2.0396">
        <ele>824.4</ele>
        <time>2022-08-03T13:52:52Z</time>
      </trkpt>
      <trkpt lat="45.63288" lon="2.03961">
        <ele>824.4</ele>
        <time>2022-08-03T13:52:54Z</time>
      </trkpt>
      <trkpt lat="45.63289" lon="2.0396">
        <ele>824.5</ele>
        <time>2022-08-03T13:52:56Z</time>
      </trkpt>
      <trkpt lat="45.63288" lon="2.03961">
        <ele>824.5</ele>
        <time>2022-08-03T13:52:58Z</time>
      </trkpt>
      <trkpt lat="45.63289" lon="2.03961">
        <ele>824.5</ele>
        <time>2022-08-03T13:53:00Z</time>
      </trkpt>
      <trkpt lat="45.63289" lon="2.03961">
        <ele>824.5</ele>
        <time>2022-08-03T13:53:02Z</time>
      </trkpt>
      <trkpt lat="45.63293" lon="2.03947">
        <ele>824.8</ele>
        <time>2022-08-03T14:00:56Z</time>
      </trkpt>
      <trkpt lat="45.63292" lon="2.03943">
        <ele>824.7</ele>
        <time>2022-08-03T14:00:58Z</time>
      </trkpt>
      <trkpt lat="45.63291" lon="2.03937">
        <ele>824.6</ele>
        <time>2022-08-03T14:01:00Z</time>
      </trkpt>
      <trkpt lat="45.63288" lon="2.03932">
        <ele>824.3</ele>
        <time>2022-08-03T14:01:02Z</time>
      </trkpt>
      <trkpt lat="45.63283" lon="2.03929">
        <ele>823.9</ele>
        <time>2022-08-03T14:01:04Z</time>
      </trkpt>
      <trkpt lat="45.6327" lon="2.0393">
        <ele>822.8</ele>
        <time>2022-08-03T14:01:06Z</time>
      </trkpt>
      <trkpt lat="45.63268" lon="2.03927">
        <ele>822.6</ele>
        <time>2022-08-03T14:01:08Z</time>
      </trkpt>
      <trkpt lat="45.63266" lon="2.03925">
        <ele>822.4</ele>
        <time>2022-08-03T14:01:10Z</time>
      </trkpt>
      <trkpt lat="45.63257" lon="2.03923">
        <ele>821.7</ele>
        <time>2022-08-03T14:01:12Z</time>
      </trkpt>
      <trkpt lat="45.63246" lon="2.03916">
        <ele>820.8</ele>
        <time>2022-08-03T14:01:14Z</time>
      </trkpt>
      <trkpt lat="45.63241" lon="2.03915">
        <ele>820.5</ele>
        <time>2022-08-03T14:01:16Z</time>
      </trkpt>
      <trkpt lat="45.63235" lon="2.03907">
        <ele>820.2</ele>
        <time>2022-08-03T14:01:18Z</time>
      </trkpt>
      <trkpt lat="45.63233" lon="2.03895">
        <ele>820.4</ele>
        <time>2022-08-03T14:01:20Z</time>
      </trkpt>
      <trkpt lat="45.63232" lon="2.03884">
        <ele>820.5</ele>
        <time>2022-08-03T14:01:22Z</time>
      </trkpt>
      <trkpt lat="45.6323" lon="2.03872">
        <ele>820.5</ele>
        <time>2022-08-03T14:01:24Z</time>
      </trkpt>
      <trkpt lat="45.63227" lon="2.03859">
        <ele>820.4</ele>
        <time>2022-08-03T14:01:26Z</time>
      </trkpt>
      <trkpt lat="45.63222" lon="2.03848">
        <ele>820.1</ele>
        <time>2022-08-03T14:01:28Z</time>
      </trkpt>
      <trkpt lat="45.63216" lon="2.03837">
        <ele>819.7</ele>
        <time>2022-08-03T14:01:30Z</time>
      </trkpt>
      <trkpt lat="45.63209" lon="2.03826">
        <ele>819.6</ele>
        <time>2022-08-03T14:01:32Z</time>
      </trkpt>
      <trkpt lat="45.63202" lon="2.03816">
        <ele>819.7</ele>
        <time>2022-08-03T14:01:34Z</time>
      </trkpt>
      <trkpt lat="45.63195" lon="2.03807">
        <ele>819.7</ele>
        <time>2022-08-03T14:01:36Z</time>
      </trkpt>
      <trkpt lat="45.63187" lon="2.03797">
        <ele>819.6</ele>
        <time>2022-08-03T14:01:38Z</time>
      </trkpt>
      <trkpt lat="45.6318" lon="2.03787">
        <ele>819.7</ele>
        <time>2022-08-03T14:01:40Z</time>
      </trkpt>
      <trkpt lat="45.63173" lon="2.03776">
        <ele>819.8</ele>
        <time>2022-08-03T14:01:42Z</time>
      </trkpt>
      <trkpt lat="45.63167" lon="2.03765">
        <ele>819.9</ele>
        <time>2022-08-03T14:01:44Z</time>
      </trkpt>
      <trkpt lat="45.63161" lon="2.03753">
        <ele>820.1</ele>
        <time>2022-08-03T14:01:46Z</time>
      </trkpt>
      <trkpt lat="45.63156" lon="2.0374">
        <ele>820.2</ele>
        <time>2022-08-03T14:01:48Z</time>
      </trkpt>
      <trkpt lat="45.63152" lon="2.03727">
        <ele>820.3</ele>
        <time>2022-08-03T14:01:50Z</time>
      </trkpt>
      <trkpt lat="45.63147" lon="2.03714">
        <ele>820.4</ele>
        <time>2022-08-03T14:01:52Z</time>
      </trkpt>
      <trkpt lat="45.63143" lon="2.03701">
        <ele>820.5</ele>
        <time>2022-08-03T14:01:54Z</time>
      </trkpt>
      <trkpt lat="45.63137" lon="2.03688">
        <ele>820.5</ele>
        <time>2022-08-03T14:01:56Z</time>
      </trkpt>
      <trkpt lat="45.63133" lon="2.03674">
        <ele>820.6</ele>
        <time>2022-08-03T14:01:58Z</time>
      </trkpt>
      <trkpt lat="45.63128" lon="2.03661">
        <ele>820.5</ele>
        <time>2022-08-03T14:02:00Z</time>
      </trkpt>
      <trkpt lat="45.63124" lon="2.03647">
        <ele>820.3</ele>
        <time>2022-08-03T14:02:02Z</time>
      </trkpt>
      <trkpt lat="45.63119" lon="2.03634">
        <ele>820</ele>
        <time>2022-08-03T14:02:04Z</time>
      </trkpt>
      <trkpt lat="45.63114" lon="2.0362">
        <ele>819.7</ele>
        <time>2022-08-03T14:02:06Z</time>
      </trkpt>
      <trkpt lat="45.6311" lon="2.03606">
        <ele>819.4</ele>
        <time>2022-08-03T14:02:08Z</time>
      </trkpt>
      <trkpt lat="45.63106" lon="2.03591">
        <ele>819.1</ele>
        <time>2022-08-03T14:02:10Z</time>
      </trkpt>
      <trkpt lat="45.63103" lon="2.03575">
        <ele>818.4</ele>
        <time>2022-08-03T14:02:12Z</time>
      </trkpt>
      <trkpt lat="45.63101" lon="2.03558">
        <ele>817.4</ele>
        <time>2022-08-03T14:02:14Z</time>
      </trkpt>
      <trkpt lat="45.63101" lon="2.03541">
        <ele>816.6</ele>
        <time>2022-08-03T14:02:16Z</time>
      </trkpt>
      <trkpt lat="45.63101" lon="2.03525">
        <ele>815.8</ele>
        <time>2022-08-03T14:02:18Z</time>
      </trkpt>
      <trkpt lat="45.63103" lon="2.03509">
        <ele>815.5</ele>
        <time>2022-08-03T14:02:20Z</time>
      </trkpt>
      <trkpt lat="45.63107" lon="2.03492">
        <ele>814.9</ele>
        <time>2022-08-03T14:02:22Z</time>
      </trkpt>
      <trkpt lat="45.63113" lon="2.03477">
        <ele>814.5</ele>
        <time>2022-08-03T14:02:24Z</time>
      </trkpt>
      <trkpt lat="45.63121" lon="2.03463">
        <ele>814.5</ele>
        <time>2022-08-03T14:02:26Z</time>
      </trkpt>
      <trkpt lat="45.6313" lon="2.03451">
        <ele>815</ele>
        <time>2022-08-03T14:02:28Z</time>
      </trkpt>
      <trkpt lat="45.63139" lon="2.03439">
        <ele>815.3</ele>
        <time>2022-08-03T14:02:30Z</time>
      </trkpt>
      <trkpt lat="45.63145" lon="2.03424">
        <ele>815.1</ele>
        <time>2022-08-03T14:02:32Z</time>
      </trkpt>
      <trkpt lat="45.63153" lon="2.03411">
        <ele>815.6</ele>
        <time>2022-08-03T14:02:34Z</time>
      </trkpt>
      <trkpt lat="45.63157" lon="2.03394">
        <ele>815.8</ele>
        <time>2022-08-03T14:02:36Z</time>
      </trkpt>
      <trkpt lat="45.63158" lon="2.03378">
        <ele>815.7</ele>
        <time>2022-08-03T14:02:38Z</time>
      </trkpt>
      <trkpt lat="45.63158" lon="2.03359">
        <ele>815.3</ele>
        <time>2022-08-03T14:02:40Z</time>
      </trkpt>
      <trkpt lat="45.63156" lon="2.03341">
        <ele>814.7</ele>
        <time>2022-08-03T14:02:42Z</time>
      </trkpt>
      <trkpt lat="45.63154" lon="2.03322">
        <ele>814.2</ele>
        <time>2022-08-03T14:02:44Z</time>
      </trkpt>
      <trkpt lat="45.6315" lon="2.03307">
        <ele>813.6</ele>
        <time>2022-08-03T14:02:46Z</time>
      </trkpt>
      <trkpt lat="45.63146" lon="2.0329">
        <ele>813.1</ele>
        <time>2022-08-03T14:02:48Z</time>
      </trkpt>
      <trkpt lat="45.6314" lon="2.03272">
        <ele>812.4</ele>
        <time>2022-08-03T14:02:50Z</time>
      </trkpt>
      <trkpt lat="45.63135" lon="2.03256">
        <ele>811.7</ele>
        <time>2022-08-03T14:02:52Z</time>
      </trkpt>
      <trkpt lat="45.6313" lon="2.0324">
        <ele>811.1</ele>
        <time>2022-08-03T14:02:54Z</time>
      </trkpt>
      <trkpt lat="45.63126" lon="2.03223">
        <ele>810.5</ele>
        <time>2022-08-03T14:02:56Z</time>
      </trkpt>
      <trkpt lat="45.63123" lon="2.03206">
        <ele>810</ele>
        <time>2022-08-03T14:02:58Z</time>
      </trkpt>
      <trkpt lat="45.63118" lon="2.03189">
        <ele>809.2</ele>
        <time>2022-08-03T14:03:00Z</time>
      </trkpt>
      <trkpt lat="45.63115" lon="2.03171">
        <ele>808.5</ele>
        <time>2022-08-03T14:03:02Z</time>
      </trkpt>
      <trkpt lat="45.63112" lon="2.03152">
        <ele>807.9</ele>
        <time>2022-08-03T14:03:04Z</time>
      </trkpt>
      <trkpt lat="45.63112" lon="2.03134">
        <ele>807.4</ele>
        <time>2022-08-03T14:03:06Z</time>
      </trkpt>
      <trkpt lat="45.63113" lon="2.03116">
        <ele>807.3</ele>
        <time>2022-08-03T14:03:08Z</time>
      </trkpt>
      <trkpt lat="45.63116" lon="2.03097">
        <ele>807.2</ele>
        <time>2022-08-03T14:03:10Z</time>
      </trkpt>
      <trkpt lat="45.6312" lon="2.03078">
        <ele>807.3</ele>
        <time>2022-08-03T14:03:12Z</time>
      </trkpt>
      <trkpt lat="45.63127" lon="2.03061">
        <ele>807.6</ele>
        <time>2022-08-03T14:03:14Z</time>
      </trkpt>
      <trkpt lat="45.63135" lon="2.03044">
        <ele>807.8</ele>
        <time>2022-08-03T14:03:16Z</time>
      </trkpt>
      <trkpt lat="45.63146" lon="2.03028">
        <ele>807.9</ele>
        <time>2022-08-03T14:03:18Z</time>
      </trkpt>
      <trkpt lat="45.63155" lon="2.0301">
        <ele>807.3</ele>
        <time>2022-08-03T14:03:20Z</time>
      </trkpt>
      <trkpt lat="45.63162" lon="2.0299">
        <ele>806.5</ele>
        <time>2022-08-03T14:03:22Z</time>
      </trkpt>
      <trkpt lat="45.63169" lon="2.0297">
        <ele>805.8</ele>
        <time>2022-08-03T14:03:24Z</time>
      </trkpt>
      <trkpt lat="45.63173" lon="2.02948">
        <ele>805.1</ele>
        <time>2022-08-03T14:03:26Z</time>
      </trkpt>
      <trkpt lat="45.63176" lon="2.02926">
        <ele>804.3</ele>
        <time>2022-08-03T14:03:28Z</time>
      </trkpt>
      <trkpt lat="45.63179" lon="2.02905">
        <ele>803.5</ele>
        <time>2022-08-03T14:03:30Z</time>
      </trkpt>
      <trkpt lat="45.63181" lon="2.02885">
        <ele>802.8</ele>
        <time>2022-08-03T14:03:32Z</time>
      </trkpt>
      <trkpt lat="45.63184" lon="2.02866">
        <ele>802.2</ele>
        <time>2022-08-03T14:03:34Z</time>
      </trkpt>
      <trkpt lat="45.63188" lon="2.02849">
        <ele>801.8</ele>
        <time>2022-08-03T14:03:36Z</time>
      </trkpt>
      <trkpt lat="45.63191" lon="2.02831">
        <ele>801.2</ele>
        <time>2022-08-03T14:03:38Z</time>
      </trkpt>
      <trkpt lat="45.63194" lon="2.02814">
        <ele>800.6</ele>
        <time>2022-08-03T14:03:40Z</time>
      </trkpt>
      <trkpt lat="45.63196" lon="2.02798">
        <ele>800</ele>
        <time>2022-08-03T14:03:42Z</time>
      </trkpt>
      <trkpt lat="45.63199" lon="2.02782">
        <ele>799.3</ele>
        <time>2022-08-03T14:03:44Z</time>
      </trkpt>
      <trkpt lat="45.63204" lon="2.02766">
        <ele>798.7</ele>
        <time>2022-08-03T14:03:46Z</time>
      </trkpt>
      <trkpt lat="45.63212" lon="2.02753">
        <ele>798.4</ele>
        <time>2022-08-03T14:03:48Z</time>
      </trkpt>
      <trkpt lat="45.63224" lon="2.02746">
        <ele>798.5</ele>
        <time>2022-08-03T14:03:50Z</time>
      </trkpt>
      <trkpt lat="45.63237" lon="2.02741">
        <ele>798.7</ele>
        <time>2022-08-03T14:03:52Z</time>
      </trkpt>
      <trkpt lat="45.63249" lon="2.02739">
        <ele>799</ele>
        <time>2022-08-03T14:03:54Z</time>
      </trkpt>
      <trkpt lat="45.6326" lon="2.02733">
        <ele>799.3</ele>
        <time>2022-08-03T14:03:56Z</time>
      </trkpt>
      <trkpt lat="45.63268" lon="2.0272">
        <ele>798.9</ele>
        <time>2022-08-03T14:03:58Z</time>
      </trkpt>
      <trkpt lat="45.63272" lon="2.02707">
        <ele>798.2</ele>
        <time>2022-08-03T14:04:00Z</time>
      </trkpt>
      <trkpt lat="45.63277" lon="2.02698">
        <ele>798</ele>
        <time>2022-08-03T14:04:02Z</time>
      </trkpt>
      <trkpt lat="45.63281" lon="2.02687">
        <ele>797.5</ele>
        <time>2022-08-03T14:04:04Z</time>
      </trkpt>
      <trkpt lat="45.63285" lon="2.02674">
        <ele>796.9</ele>
        <time>2022-08-03T14:04:06Z</time>
      </trkpt>
      <trkpt lat="45.63291" lon="2.02664">
        <ele>796.9</ele>
        <time>2022-08-03T14:04:08Z</time>
      </trkpt>
      <trkpt lat="45.63296" lon="2.02651">
        <ele>797.3</ele>
        <time>2022-08-03T14:04:10Z</time>
      </trkpt>
      <trkpt lat="45.63302" lon="2.02637">
        <ele>797.6</ele>
        <time>2022-08-03T14:04:12Z</time>
      </trkpt>
      <trkpt lat="45.63305" lon="2.02622">
        <ele>797.6</ele>
        <time>2022-08-03T14:04:14Z</time>
      </trkpt>
      <trkpt lat="45.63304" lon="2.02608">
        <ele>797.3</ele>
        <time>2022-08-03T14:04:16Z</time>
      </trkpt>
      <trkpt lat="45.63297" lon="2.02596">
        <ele>796.5</ele>
        <time>2022-08-03T14:04:18Z</time>
      </trkpt>
      <trkpt lat="45.6329" lon="2.02583">
        <ele>795.9</ele>
        <time>2022-08-03T14:04:20Z</time>
      </trkpt>
      <trkpt lat="45.63282" lon="2.02571">
        <ele>795.8</ele>
        <time>2022-08-03T14:04:22Z</time>
      </trkpt>
      <trkpt lat="45.63276" lon="2.02556">
        <ele>795.8</ele>
        <time>2022-08-03T14:04:24Z</time>
      </trkpt>
      <trkpt lat="45.6327" lon="2.0254">
        <ele>795.9</ele>
        <time>2022-08-03T14:04:26Z</time>
      </trkpt>
      <trkpt lat="45.63267" lon="2.02522">
        <ele>796.1</ele>
        <time>2022-08-03T14:04:28Z</time>
      </trkpt>
      <trkpt lat="45.63263" lon="2.02503">
        <ele>796.4</ele>
        <time>2022-08-03T14:04:30Z</time>
      </trkpt>
      <trkpt lat="45.63261" lon="2.02484">
        <ele>796.4</ele>
        <time>2022-08-03T14:04:32Z</time>
      </trkpt>
      <trkpt lat="45.63256" lon="2.02466">
        <ele>796.2</ele>
        <time>2022-08-03T14:04:34Z</time>
      </trkpt>
      <trkpt lat="45.63252" lon="2.02446">
        <ele>796</ele>
        <time>2022-08-03T14:04:36Z</time>
      </trkpt>
      <trkpt lat="45.63247" lon="2.02425">
        <ele>796.1</ele>
        <time>2022-08-03T14:04:38Z</time>
      </trkpt>
      <trkpt lat="45.63243" lon="2.02404">
        <ele>796.8</ele>
        <time>2022-08-03T14:04:40Z</time>
      </trkpt>
      <trkpt lat="45.63238" lon="2.02384">
        <ele>797.4</ele>
        <time>2022-08-03T14:04:42Z</time>
      </trkpt>
      <trkpt lat="45.63233" lon="2.02364">
        <ele>797.9</ele>
        <time>2022-08-03T14:04:44Z</time>
      </trkpt>
      <trkpt lat="45.63229" lon="2.02343">
        <ele>798.1</ele>
        <time>2022-08-03T14:04:46Z</time>
      </trkpt>
      <trkpt lat="45.63224" lon="2.02321">
        <ele>797.4</ele>
        <time>2022-08-03T14:04:48Z</time>
      </trkpt>
      <trkpt lat="45.63221" lon="2.023">
        <ele>795.9</ele>
        <time>2022-08-03T14:04:50Z</time>
      </trkpt>
      <trkpt lat="45.63222" lon="2.02278">
        <ele>794.7</ele>
        <time>2022-08-03T14:04:52Z</time>
      </trkpt>
      <trkpt lat="45.63223" lon="2.02256">
        <ele>793.4</ele>
        <time>2022-08-03T14:04:54Z</time>
      </trkpt>
      <trkpt lat="45.63228" lon="2.02235">
        <ele>791.9</ele>
        <time>2022-08-03T14:04:56Z</time>
      </trkpt>
      <trkpt lat="45.63237" lon="2.02217">
        <ele>790.6</ele>
        <time>2022-08-03T14:04:58Z</time>
      </trkpt>
      <trkpt lat="45.63247" lon="2.02202">
        <ele>789.6</ele>
        <time>2022-08-03T14:05:00Z</time>
      </trkpt>
      <trkpt lat="45.63259" lon="2.02189">
        <ele>789.9</ele>
        <time>2022-08-03T14:05:02Z</time>
      </trkpt>
      <trkpt lat="45.6327" lon="2.02173">
        <ele>790.1</ele>
        <time>2022-08-03T14:05:04Z</time>
      </trkpt>
      <trkpt lat="45.63281" lon="2.0216">
        <ele>790.8</ele>
        <time>2022-08-03T14:05:06Z</time>
      </trkpt>
      <trkpt lat="45.63292" lon="2.02146">
        <ele>791.4</ele>
        <time>2022-08-03T14:05:08Z</time>
      </trkpt>
      <trkpt lat="45.63301" lon="2.0213">
        <ele>791.7</ele>
        <time>2022-08-03T14:05:10Z</time>
      </trkpt>
      <trkpt lat="45.63308" lon="2.02111">
        <ele>791.4</ele>
        <time>2022-08-03T14:05:12Z</time>
      </trkpt>
      <trkpt lat="45.63313" lon="2.02091">
        <ele>790.5</ele>
        <time>2022-08-03T14:05:14Z</time>
      </trkpt>
      <trkpt lat="45.63315" lon="2.0207">
        <ele>789.7</ele>
        <time>2022-08-03T14:05:16Z</time>
      </trkpt>
      <trkpt lat="45.63312" lon="2.02049">
        <ele>788.5</ele>
        <time>2022-08-03T14:05:18Z</time>
      </trkpt>
      <trkpt lat="45.63306" lon="2.02029">
        <ele>787.2</ele>
        <time>2022-08-03T14:05:20Z</time>
      </trkpt>
      <trkpt lat="45.633" lon="2.02009">
        <ele>786</ele>
        <time>2022-08-03T14:05:22Z</time>
      </trkpt>
      <trkpt lat="45.63294" lon="2.01989">
        <ele>784.7</ele>
        <time>2022-08-03T14:05:24Z</time>
      </trkpt>
      <trkpt lat="45.63288" lon="2.01968">
        <ele>783.4</ele>
        <time>2022-08-03T14:05:26Z</time>
      </trkpt>
      <trkpt lat="45.63282" lon="2.01949">
        <ele>782.3</ele>
        <time>2022-08-03T14:05:28Z</time>
      </trkpt>
      <trkpt lat="45.63276" lon="2.01928">
        <ele>781.3</ele>
        <time>2022-08-03T14:05:30Z</time>
      </trkpt>
      <trkpt lat="45.63267" lon="2.01908">
        <ele>780.2</ele>
        <time>2022-08-03T14:05:32Z</time>
      </trkpt>
      <trkpt lat="45.6326" lon="2.01889">
        <ele>779.2</ele>
        <time>2022-08-03T14:05:34Z</time>
      </trkpt>
      <trkpt lat="45.63253" lon="2.0187">
        <ele>778.4</ele>
        <time>2022-08-03T14:05:36Z</time>
      </trkpt>
      <trkpt lat="45.63245" lon="2.01852">
        <ele>777.7</ele>
        <time>2022-08-03T14:05:38Z</time>
      </trkpt>
      <trkpt lat="45.63238" lon="2.01834">
        <ele>777.2</ele>
        <time>2022-08-03T14:05:40Z</time>
      </trkpt>
      <trkpt lat="45.63231" lon="2.01816">
        <ele>776.8</ele>
        <time>2022-08-03T14:05:42Z</time>
      </trkpt>
      <trkpt lat="45.63225" lon="2.01799">
        <ele>776.4</ele>
        <time>2022-08-03T14:05:44Z</time>
      </trkpt>
      <trkpt lat="45.63219" lon="2.01782">
        <ele>776.2</ele>
        <time>2022-08-03T14:05:46Z</time>
      </trkpt>
      <trkpt lat="45.63212" lon="2.01766">
        <ele>776.1</ele>
        <time>2022-08-03T14:05:48Z</time>
      </trkpt>
      <trkpt lat="45.63206" lon="2.01751">
        <ele>776.1</ele>
        <time>2022-08-03T14:05:50Z</time>
      </trkpt>
      <trkpt lat="45.632" lon="2.01736">
        <ele>776</ele>
        <time>2022-08-03T14:05:52Z</time>
      </trkpt>
      <trkpt lat="45.63194" lon="2.01721">
        <ele>775.8</ele>
        <time>2022-08-03T14:05:54Z</time>
      </trkpt>
      <trkpt lat="45.63189" lon="2.01706">
        <ele>775.4</ele>
        <time>2022-08-03T14:05:56Z</time>
      </trkpt>
      <trkpt lat="45.63183" lon="2.01691">
        <ele>774.9</ele>
        <time>2022-08-03T14:05:58Z</time>
      </trkpt>
      <trkpt lat="45.63177" lon="2.01676">
        <ele>774.4</ele>
        <time>2022-08-03T14:06:00Z</time>
      </trkpt>
      <trkpt lat="45.63171" lon="2.01662">
        <ele>773.9</ele>
        <time>2022-08-03T14:06:02Z</time>
      </trkpt>
      <trkpt lat="45.63166" lon="2.01648">
        <ele>773.8</ele>
        <time>2022-08-03T14:06:04Z</time>
      </trkpt>
      <trkpt lat="45.63161" lon="2.01635">
        <ele>773.8</ele>
        <time>2022-08-03T14:06:06Z</time>
      </trkpt>
      <trkpt lat="45.63156" lon="2.01622">
        <ele>773.8</ele>
        <time>2022-08-03T14:06:08Z</time>
      </trkpt>
      <trkpt lat="45.63151" lon="2.01609">
        <ele>773.8</ele>
        <time>2022-08-03T14:06:10Z</time>
      </trkpt>
      <trkpt lat="45.63146" lon="2.01596">
        <ele>773.9</ele>
        <time>2022-08-03T14:06:12Z</time>
      </trkpt>
      <trkpt lat="45.63141" lon="2.01584">
        <ele>773.9</ele>
        <time>2022-08-03T14:06:14Z</time>
      </trkpt>
      <trkpt lat="45.63137" lon="2.01572">
        <ele>774.1</ele>
        <time>2022-08-03T14:06:16Z</time>
      </trkpt>
      <trkpt lat="45.63132" lon="2.01561">
        <ele>774.2</ele>
        <time>2022-08-03T14:06:18Z</time>
      </trkpt>
      <trkpt lat="45.63128" lon="2.01549">
        <ele>774.4</ele>
        <time>2022-08-03T14:06:20Z</time>
      </trkpt>
      <trkpt lat="45.63124" lon="2.01539">
        <ele>774.5</ele>
        <time>2022-08-03T14:06:22Z</time>
      </trkpt>
      <trkpt lat="45.63119" lon="2.01527">
        <ele>774.7</ele>
        <time>2022-08-03T14:06:24Z</time>
      </trkpt>
      <trkpt lat="45.63115" lon="2.01516">
        <ele>774.9</ele>
        <time>2022-08-03T14:06:26Z</time>
      </trkpt>
      <trkpt lat="45.6311" lon="2.01504">
        <ele>775</ele>
        <time>2022-08-03T14:06:28Z</time>
      </trkpt>
      <trkpt lat="45.63106" lon="2.01493">
        <ele>775</ele>
        <time>2022-08-03T14:06:30Z</time>
      </trkpt>
      <trkpt lat="45.63101" lon="2.01481">
        <ele>775</ele>
        <time>2022-08-03T14:06:32Z</time>
      </trkpt>
      <trkpt lat="45.63097" lon="2.0147">
        <ele>774.9</ele>
        <time>2022-08-03T14:06:34Z</time>
      </trkpt>
      <trkpt lat="45.63092" lon="2.01459">
        <ele>774.7</ele>
        <time>2022-08-03T14:06:36Z</time>
      </trkpt>
      <trkpt lat="45.63088" lon="2.01448">
        <ele>774.6</ele>
        <time>2022-08-03T14:06:38Z</time>
      </trkpt>
      <trkpt lat="45.63084" lon="2.01437">
        <ele>774.5</ele>
        <time>2022-08-03T14:06:40Z</time>
      </trkpt>
      <trkpt lat="45.63079" lon="2.01425">
        <ele>774.2</ele>
        <time>2022-08-03T14:06:42Z</time>
      </trkpt>
      <trkpt lat="45.63075" lon="2.01414">
        <ele>774.1</ele>
        <time>2022-08-03T14:06:44Z</time>
      </trkpt>
      <trkpt lat="45.63071" lon="2.01403">
        <ele>774.1</ele>
        <time>2022-08-03T14:06:46Z</time>
      </trkpt>
      <trkpt lat="45.63066" lon="2.01392">
        <ele>774.2</ele>
        <time>2022-08-03T14:06:48Z</time>
      </trkpt>
      <trkpt lat="45.63062" lon="2.01381">
        <ele>774.3</ele>
        <time>2022-08-03T14:06:50Z</time>
      </trkpt>
      <trkpt lat="45.63058" lon="2.0137">
        <ele>774.3</ele>
        <time>2022-08-03T14:06:52Z</time>
      </trkpt>
      <trkpt lat="45.63053" lon="2.01359">
        <ele>774.4</ele>
        <time>2022-08-03T14:06:54Z</time>
      </trkpt>
      <trkpt lat="45.63049" lon="2.01348">
        <ele>774.4</ele>
        <time>2022-08-03T14:06:56Z</time>
      </trkpt>
      <trkpt lat="45.63045" lon="2.01337">
        <ele>774.5</ele>
        <time>2022-08-03T14:06:58Z</time>
      </trkpt>
      <trkpt lat="45.63041" lon="2.01327">
        <ele>774.8</ele>
        <time>2022-08-03T14:07:00Z</time>
      </trkpt>
      <trkpt lat="45.63037" lon="2.01316">
        <ele>775.4</ele>
        <time>2022-08-03T14:07:02Z</time>
      </trkpt>
      <trkpt lat="45.63034" lon="2.01305">
        <ele>776</ele>
        <time>2022-08-03T14:07:04Z</time>
      </trkpt>
      <trkpt lat="45.63032" lon="2.01293">
        <ele>776.7</ele>
        <time>2022-08-03T14:07:06Z</time>
      </trkpt>
      <trkpt lat="45.63031" lon="2.01281">
        <ele>777.4</ele>
        <time>2022-08-03T14:07:08Z</time>
      </trkpt>
      <trkpt lat="45.63032" lon="2.0127">
        <ele>777.9</ele>
        <time>2022-08-03T14:07:10Z</time>
      </trkpt>
      <trkpt lat="45.63033" lon="2.0126">
        <ele>778.4</ele>
        <time>2022-08-03T14:07:12Z</time>
      </trkpt>
      <trkpt lat="45.63033" lon="2.0125">
        <ele>778.8</ele>
        <time>2022-08-03T14:07:14Z</time>
      </trkpt>
      <trkpt lat="45.63033" lon="2.0124">
        <ele>778.7</ele>
        <time>2022-08-03T14:07:16Z</time>
      </trkpt>
      <trkpt lat="45.63032" lon="2.0123">
        <ele>778.6</ele>
        <time>2022-08-03T14:07:18Z</time>
      </trkpt>
      <trkpt lat="45.63031" lon="2.0122">
        <ele>778.6</ele>
        <time>2022-08-03T14:07:20Z</time>
      </trkpt>
      <trkpt lat="45.63028" lon="2.01211">
        <ele>778.7</ele>
        <time>2022-08-03T14:07:22Z</time>
      </trkpt>
      <trkpt lat="45.63025" lon="2.01201">
        <ele>778.8</ele>
        <time>2022-08-03T14:07:24Z</time>
      </trkpt>
      <trkpt lat="45.63021" lon="2.01192">
        <ele>778.9</ele>
        <time>2022-08-03T14:07:26Z</time>
      </trkpt>
      <trkpt lat="45.63017" lon="2.01183">
        <ele>779.1</ele>
        <time>2022-08-03T14:07:28Z</time>
      </trkpt>
      <trkpt lat="45.63015" lon="2.01172">
        <ele>779.1</ele>
        <time>2022-08-03T14:07:30Z</time>
      </trkpt>
      <trkpt lat="45.63013" lon="2.01161">
        <ele>779.3</ele>
        <time>2022-08-03T14:07:32Z</time>
      </trkpt>
      <trkpt lat="45.63013" lon="2.01149">
        <ele>779.9</ele>
        <time>2022-08-03T14:07:34Z</time>
      </trkpt>
      <trkpt lat="45.63014" lon="2.01138">
        <ele>780.2</ele>
        <time>2022-08-03T14:07:36Z</time>
      </trkpt>
      <trkpt lat="45.63018" lon="2.01127">
        <ele>780.4</ele>
        <time>2022-08-03T14:07:38Z</time>
      </trkpt>
      <trkpt lat="45.63021" lon="2.01118">
        <ele>780.5</ele>
        <time>2022-08-03T14:07:40Z</time>
      </trkpt>
      <trkpt lat="45.63024" lon="2.01109">
        <ele>780.6</ele>
        <time>2022-08-03T14:07:42Z</time>
      </trkpt>
      <trkpt lat="45.63027" lon="2.01099">
        <ele>780.8</ele>
        <time>2022-08-03T14:07:44Z</time>
      </trkpt>
      <trkpt lat="45.63028" lon="2.0109">
        <ele>781</ele>
        <time>2022-08-03T14:07:46Z</time>
      </trkpt>
      <trkpt lat="45.6303" lon="2.0108">
        <ele>781.1</ele>
        <time>2022-08-03T14:07:48Z</time>
      </trkpt>
      <trkpt lat="45.6303" lon="2.0107">
        <ele>780.9</ele>
        <time>2022-08-03T14:07:50Z</time>
      </trkpt>
      <trkpt lat="45.63029" lon="2.01059">
        <ele>780.8</ele>
        <time>2022-08-03T14:07:52Z</time>
      </trkpt>
      <trkpt lat="45.63026" lon="2.01049">
        <ele>780.9</ele>
        <time>2022-08-03T14:07:54Z</time>
      </trkpt>
      <trkpt lat="45.63024" lon="2.01039">
        <ele>781</ele>
        <time>2022-08-03T14:07:56Z</time>
      </trkpt>
      <trkpt lat="45.63019" lon="2.01029">
        <ele>781.1</ele>
        <time>2022-08-03T14:07:58Z</time>
      </trkpt>
      <trkpt lat="45.63016" lon="2.01018">
        <ele>781.2</ele>
        <time>2022-08-03T14:08:00Z</time>
      </trkpt>
      <trkpt lat="45.63012" lon="2.01007">
        <ele>781.3</ele>
        <time>2022-08-03T14:08:02Z</time>
      </trkpt>
      <trkpt lat="45.63008" lon="2.00998">
        <ele>781.4</ele>
        <time>2022-08-03T14:08:04Z</time>
      </trkpt>
      <trkpt lat="45.63003" lon="2.00989">
        <ele>781.4</ele>
        <time>2022-08-03T14:08:06Z</time>
      </trkpt>
      <trkpt lat="45.62999" lon="2.00977">
        <ele>781.4</ele>
        <time>2022-08-03T14:08:08Z</time>
      </trkpt>
      <trkpt lat="45.62995" lon="2.00966">
        <ele>781.8</ele>
        <time>2022-08-03T14:08:10Z</time>
      </trkpt>
      <trkpt lat="45.6299" lon="2.00956">
        <ele>782.2</ele>
        <time>2022-08-03T14:08:12Z</time>
      </trkpt>
      <trkpt lat="45.62986" lon="2.00945">
        <ele>782.5</ele>
        <time>2022-08-03T14:08:14Z</time>
      </trkpt>
      <trkpt lat="45.62981" lon="2.00935">
        <ele>783.1</ele>
        <time>2022-08-03T14:08:16Z</time>
      </trkpt>
      <trkpt lat="45.62977" lon="2.00924">
        <ele>783.4</ele>
        <time>2022-08-03T14:08:18Z</time>
      </trkpt>
      <trkpt lat="45.62974" lon="2.00912">
        <ele>783.5</ele>
        <time>2022-08-03T14:08:20Z</time>
      </trkpt>
      <trkpt lat="45.6297" lon="2.009">
        <ele>783.8</ele>
        <time>2022-08-03T14:08:22Z</time>
      </trkpt>
      <trkpt lat="45.62967" lon="2.00889">
        <ele>784</ele>
        <time>2022-08-03T14:08:24Z</time>
      </trkpt>
      <trkpt lat="45.62963" lon="2.00876">
        <ele>784</ele>
        <time>2022-08-03T14:08:26Z</time>
      </trkpt>
      <trkpt lat="45.6296" lon="2.00864">
        <ele>783.9</ele>
        <time>2022-08-03T14:08:28Z</time>
      </trkpt>
      <trkpt lat="45.62955" lon="2.00852">
        <ele>783.6</ele>
        <time>2022-08-03T14:08:30Z</time>
      </trkpt>
      <trkpt lat="45.62952" lon="2.00841">
        <ele>783.3</ele>
        <time>2022-08-03T14:08:32Z</time>
      </trkpt>
      <trkpt lat="45.62948" lon="2.00829">
        <ele>782.9</ele>
        <time>2022-08-03T14:08:34Z</time>
      </trkpt>
      <trkpt lat="45.62944" lon="2.00817">
        <ele>782.6</ele>
        <time>2022-08-03T14:08:36Z</time>
      </trkpt>
      <trkpt lat="45.62941" lon="2.00805">
        <ele>782</ele>
        <time>2022-08-03T14:08:38Z</time>
      </trkpt>
      <trkpt lat="45.62937" lon="2.00793">
        <ele>781.3</ele>
        <time>2022-08-03T14:08:40Z</time>
      </trkpt>
      <trkpt lat="45.62934" lon="2.00782">
        <ele>780.6</ele>
        <time>2022-08-03T14:08:42Z</time>
      </trkpt>
      <trkpt lat="45.62929" lon="2.0077">
        <ele>779.5</ele>
        <time>2022-08-03T14:08:44Z</time>
      </trkpt>
      <trkpt lat="45.62925" lon="2.00758">
        <ele>778.4</ele>
        <time>2022-08-03T14:08:46Z</time>
      </trkpt>
      <trkpt lat="45.6292" lon="2.00747">
        <ele>777.2</ele>
        <time>2022-08-03T14:08:48Z</time>
      </trkpt>
      <trkpt lat="45.62915" lon="2.00738">
        <ele>776.8</ele>
        <time>2022-08-03T14:08:50Z</time>
      </trkpt>
      <trkpt lat="45.62908" lon="2.00728">
        <ele>777.2</ele>
        <time>2022-08-03T14:08:52Z</time>
      </trkpt>
      <trkpt lat="45.62901" lon="2.00719">
        <ele>777.6</ele>
        <time>2022-08-03T14:08:54Z</time>
      </trkpt>
      <trkpt lat="45.62893" lon="2.00711">
        <ele>777.9</ele>
        <time>2022-08-03T14:08:56Z</time>
      </trkpt>
      <trkpt lat="45.62885" lon="2.00703">
        <ele>778.2</ele>
        <time>2022-08-03T14:08:58Z</time>
      </trkpt>
      <trkpt lat="45.62877" lon="2.00694">
        <ele>778.3</ele>
        <time>2022-08-03T14:09:00Z</time>
      </trkpt>
      <trkpt lat="45.6287" lon="2.00686">
        <ele>778.3</ele>
        <time>2022-08-03T14:09:02Z</time>
      </trkpt>
      <trkpt lat="45.62863" lon="2.00678">
        <ele>778.1</ele>
        <time>2022-08-03T14:09:04Z</time>
      </trkpt>
      <trkpt lat="45.62857" lon="2.00667">
        <ele>777.6</ele>
        <time>2022-08-03T14:09:06Z</time>
      </trkpt>
      <trkpt lat="45.62853" lon="2.00654">
        <ele>777.5</ele>
        <time>2022-08-03T14:09:08Z</time>
      </trkpt>
      <trkpt lat="45.62849" lon="2.0064">
        <ele>777.4</ele>
        <time>2022-08-03T14:09:10Z</time>
      </trkpt>
      <trkpt lat="45.62849" lon="2.00626">
        <ele>777.1</ele>
        <time>2022-08-03T14:09:12Z</time>
      </trkpt>
      <trkpt lat="45.62849" lon="2.00611">
        <ele>776.7</ele>
        <time>2022-08-03T14:09:14Z</time>
      </trkpt>
      <trkpt lat="45.6285" lon="2.00598">
        <ele>776.4</ele>
        <time>2022-08-03T14:09:16Z</time>
      </trkpt>
      <trkpt lat="45.6285" lon="2.00585">
        <ele>776</ele>
        <time>2022-08-03T14:09:18Z</time>
      </trkpt>
      <trkpt lat="45.6285" lon="2.00572">
        <ele>775.7</ele>
        <time>2022-08-03T14:09:20Z</time>
      </trkpt>
      <trkpt lat="45.6285" lon="2.00559">
        <ele>775.3</ele>
        <time>2022-08-03T14:09:22Z</time>
      </trkpt>
      <trkpt lat="45.62848" lon="2.00547">
        <ele>775</ele>
        <time>2022-08-03T14:09:24Z</time>
      </trkpt>
      <trkpt lat="45.62846" lon="2.00535">
        <ele>774.8</ele>
        <time>2022-08-03T14:09:26Z</time>
      </trkpt>
      <trkpt lat="45.62841" lon="2.00524">
        <ele>774.6</ele>
        <time>2022-08-03T14:09:28Z</time>
      </trkpt>
      <trkpt lat="45.62836" lon="2.00513">
        <ele>774.4</ele>
        <time>2022-08-03T14:09:30Z</time>
      </trkpt>
      <trkpt lat="45.6283" lon="2.00502">
        <ele>774.3</ele>
        <time>2022-08-03T14:09:32Z</time>
      </trkpt>
      <trkpt lat="45.62823" lon="2.00493">
        <ele>774.3</ele>
        <time>2022-08-03T14:09:34Z</time>
      </trkpt>
      <trkpt lat="45.62815" lon="2.00484">
        <ele>774.3</ele>
        <time>2022-08-03T14:09:36Z</time>
      </trkpt>
      <trkpt lat="45.62808" lon="2.00474">
        <ele>774.2</ele>
        <time>2022-08-03T14:09:38Z</time>
      </trkpt>
      <trkpt lat="45.62801" lon="2.00465">
        <ele>774.1</ele>
        <time>2022-08-03T14:09:40Z</time>
      </trkpt>
      <trkpt lat="45.62794" lon="2.00457">
        <ele>774.1</ele>
        <time>2022-08-03T14:09:42Z</time>
      </trkpt>
      <trkpt lat="45.62786" lon="2.00447">
        <ele>773.9</ele>
        <time>2022-08-03T14:09:44Z</time>
      </trkpt>
      <trkpt lat="45.6278" lon="2.00436">
        <ele>773.6</ele>
        <time>2022-08-03T14:09:46Z</time>
      </trkpt>
      <trkpt lat="45.62775" lon="2.00423">
        <ele>773.2</ele>
        <time>2022-08-03T14:09:48Z</time>
      </trkpt>
      <trkpt lat="45.62772" lon="2.00409">
        <ele>773.2</ele>
        <time>2022-08-03T14:09:50Z</time>
      </trkpt>
      <trkpt lat="45.6277" lon="2.00395">
        <ele>773.6</ele>
        <time>2022-08-03T14:09:52Z</time>
      </trkpt>
      <trkpt lat="45.62769" lon="2.00383">
        <ele>774</ele>
        <time>2022-08-03T14:09:54Z</time>
      </trkpt>
      <trkpt lat="45.62768" lon="2.00372">
        <ele>774.3</ele>
        <time>2022-08-03T14:09:56Z</time>
      </trkpt>
      <trkpt lat="45.62767" lon="2.00361">
        <ele>774.6</ele>
        <time>2022-08-03T14:09:58Z</time>
      </trkpt>
      <trkpt lat="45.62767" lon="2.0035">
        <ele>774.9</ele>
        <time>2022-08-03T14:10:00Z</time>
      </trkpt>
      <trkpt lat="45.62765" lon="2.00341">
        <ele>775.3</ele>
        <time>2022-08-03T14:10:02Z</time>
      </trkpt>
      <trkpt lat="45.62763" lon="2.00332">
        <ele>775.5</ele>
        <time>2022-08-03T14:10:04Z</time>
      </trkpt>
      <trkpt lat="45.62761" lon="2.00323">
        <ele>775.5</ele>
        <time>2022-08-03T14:10:06Z</time>
      </trkpt>
      <trkpt lat="45.62757" lon="2.00313">
        <ele>775.4</ele>
        <time>2022-08-03T14:10:08Z</time>
      </trkpt>
      <trkpt lat="45.62753" lon="2.00305">
        <ele>775.3</ele>
        <time>2022-08-03T14:10:10Z</time>
      </trkpt>
      <trkpt lat="45.62749" lon="2.00297">
        <ele>775.2</ele>
        <time>2022-08-03T14:10:12Z</time>
      </trkpt>
      <trkpt lat="45.62744" lon="2.0029">
        <ele>775.4</ele>
        <time>2022-08-03T14:10:14Z</time>
      </trkpt>
      <trkpt lat="45.62739" lon="2.00284">
        <ele>775.6</ele>
        <time>2022-08-03T14:10:16Z</time>
      </trkpt>
      <trkpt lat="45.62734" lon="2.00278">
        <ele>775.8</ele>
        <time>2022-08-03T14:10:18Z</time>
      </trkpt>
      <trkpt lat="45.62729" lon="2.00271">
        <ele>775.9</ele>
        <time>2022-08-03T14:10:20Z</time>
      </trkpt>
      <trkpt lat="45.62724" lon="2.00265">
        <ele>776.1</ele>
        <time>2022-08-03T14:10:22Z</time>
      </trkpt>
      <trkpt lat="45.62719" lon="2.0026">
        <ele>776.2</ele>
        <time>2022-08-03T14:10:24Z</time>
      </trkpt>
      <trkpt lat="45.62714" lon="2.00254">
        <ele>776.3</ele>
        <time>2022-08-03T14:10:26Z</time>
      </trkpt>
      <trkpt lat="45.62708" lon="2.00249">
        <ele>776.5</ele>
        <time>2022-08-03T14:10:28Z</time>
      </trkpt>
      <trkpt lat="45.62703" lon="2.00245">
        <ele>776.7</ele>
        <time>2022-08-03T14:10:30Z</time>
      </trkpt>
      <trkpt lat="45.62697" lon="2.0024">
        <ele>776.9</ele>
        <time>2022-08-03T14:10:32Z</time>
      </trkpt>
      <trkpt lat="45.62691" lon="2.00236">
        <ele>777.1</ele>
        <time>2022-08-03T14:10:34Z</time>
      </trkpt>
      <trkpt lat="45.62685" lon="2.00233">
        <ele>777.4</ele>
        <time>2022-08-03T14:10:36Z</time>
      </trkpt>
      <trkpt lat="45.62678" lon="2.00229">
        <ele>777.6</ele>
        <time>2022-08-03T14:10:38Z</time>
      </trkpt>
      <trkpt lat="45.62672" lon="2.00226">
        <ele>777.8</ele>
        <time>2022-08-03T14:10:40Z</time>
      </trkpt>
      <trkpt lat="45.62667" lon="2.00221">
        <ele>778</ele>
        <time>2022-08-03T14:10:42Z</time>
      </trkpt>
      <trkpt lat="45.62661" lon="2.00216">
        <ele>778.5</ele>
        <time>2022-08-03T14:10:44Z</time>
      </trkpt>
      <trkpt lat="45.62656" lon="2.0021">
        <ele>779</ele>
        <time>2022-08-03T14:10:46Z</time>
      </trkpt>
      <trkpt lat="45.62651" lon="2.00202">
        <ele>779.2</ele>
        <time>2022-08-03T14:10:48Z</time>
      </trkpt>
      <trkpt lat="45.62647" lon="2.00194">
        <ele>779.4</ele>
        <time>2022-08-03T14:10:50Z</time>
      </trkpt>
      <trkpt lat="45.62643" lon="2.00186">
        <ele>779.3</ele>
        <time>2022-08-03T14:10:52Z</time>
      </trkpt>
      <trkpt lat="45.62641" lon="2.00176">
        <ele>779</ele>
        <time>2022-08-03T14:10:54Z</time>
      </trkpt>
      <trkpt lat="45.62639" lon="2.00166">
        <ele>778.6</ele>
        <time>2022-08-03T14:10:56Z</time>
      </trkpt>
      <trkpt lat="45.6264" lon="2.00157">
        <ele>778.8</ele>
        <time>2022-08-03T14:10:58Z</time>
      </trkpt>
      <trkpt lat="45.6264" lon="2.00147">
        <ele>778.9</ele>
        <time>2022-08-03T14:11:00Z</time>
      </trkpt>
      <trkpt lat="45.6264" lon="2.0014">
        <ele>779</ele>
        <time>2022-08-03T14:11:02Z</time>
      </trkpt>
      <trkpt lat="45.62641" lon="2.00132">
        <ele>779</ele>
        <time>2022-08-03T14:11:04Z</time>
      </trkpt>
      <trkpt lat="45.62641" lon="2.00125">
        <ele>779.1</ele>
        <time>2022-08-03T14:11:06Z</time>
      </trkpt>
      <trkpt lat="45.62641" lon="2.00118">
        <ele>779.1</ele>
        <time>2022-08-03T14:11:08Z</time>
      </trkpt>
      <trkpt lat="45.62642" lon="2.00112">
        <ele>779.1</ele>
        <time>2022-08-03T14:11:10Z</time>
      </trkpt>
      <trkpt lat="45.62642" lon="2.00105">
        <ele>779.2</ele>
        <time>2022-08-03T14:11:12Z</time>
      </trkpt>
      <trkpt lat="45.62643" lon="2.00099">
        <ele>779.2</ele>
        <time>2022-08-03T14:11:14Z</time>
      </trkpt>
      <trkpt lat="45.62644" lon="2.00092">
        <ele>779.2</ele>
        <time>2022-08-03T14:11:16Z</time>
      </trkpt>
      <trkpt lat="45.62644" lon="2.00085">
        <ele>779.2</ele>
        <time>2022-08-03T14:11:18Z</time>
      </trkpt>
      <trkpt lat="45.62644" lon="2.00079">
        <ele>779.3</ele>
        <time>2022-08-03T14:11:20Z</time>
      </trkpt>
      <trkpt lat="45.62645" lon="2.00072">
        <ele>779.4</ele>
        <time>2022-08-03T14:11:22Z</time>
      </trkpt>
      <trkpt lat="45.62645" lon="2.00066">
        <ele>779.4</ele>
        <time>2022-08-03T14:11:24Z</time>
      </trkpt>
      <trkpt lat="45.62646" lon="2.00059">
        <ele>779.4</ele>
        <time>2022-08-03T14:11:26Z</time>
      </trkpt>
      <trkpt lat="45.62646" lon="2.00053">
        <ele>779.5</ele>
        <time>2022-08-03T14:11:28Z</time>
      </trkpt>
      <trkpt lat="45.62646" lon="2.00047">
        <ele>779.6</ele>
        <time>2022-08-03T14:11:30Z</time>
      </trkpt>
      <trkpt lat="45.62647" lon="2.00041">
        <ele>779.6</ele>
        <time>2022-08-03T14:11:32Z</time>
      </trkpt>
      <trkpt lat="45.62647" lon="2.00035">
        <ele>779.8</ele>
        <time>2022-08-03T14:11:34Z</time>
      </trkpt>
      <trkpt lat="45.62647" lon="2.00028">
        <ele>779.8</ele>
        <time>2022-08-03T14:11:36Z</time>
      </trkpt>
      <trkpt lat="45.62647" lon="2.00022">
        <ele>779.9</ele>
        <time>2022-08-03T14:11:38Z</time>
      </trkpt>
      <trkpt lat="45.62647" lon="2.00016">
        <ele>780.1</ele>
        <time>2022-08-03T14:11:40Z</time>
      </trkpt>
      <trkpt lat="45.62647" lon="2.00009">
        <ele>780.2</ele>
        <time>2022-08-03T14:11:42Z</time>
      </trkpt>
      <trkpt lat="45.62646" lon="2.00003">
        <ele>780.4</ele>
        <time>2022-08-03T14:11:44Z</time>
      </trkpt>
      <trkpt lat="45.62646" lon="1.99996">
        <ele>780.6</ele>
        <time>2022-08-03T14:11:46Z</time>
      </trkpt>
      <trkpt lat="45.62646" lon="1.9999">
        <ele>781</ele>
        <time>2022-08-03T14:11:48Z</time>
      </trkpt>
      <trkpt lat="45.62645" lon="1.99984">
        <ele>781.3</ele>
        <time>2022-08-03T14:11:50Z</time>
      </trkpt>
      <trkpt lat="45.62645" lon="1.99977">
        <ele>781.7</ele>
        <time>2022-08-03T14:11:52Z</time>
      </trkpt>
      <trkpt lat="45.62644" lon="1.99971">
        <ele>782.1</ele>
        <time>2022-08-03T14:11:54Z</time>
      </trkpt>
      <trkpt lat="45.62643" lon="1.99965">
        <ele>782.5</ele>
        <time>2022-08-03T14:11:56Z</time>
      </trkpt>
      <trkpt lat="45.62641" lon="1.99959">
        <ele>783</ele>
        <time>2022-08-03T14:11:58Z</time>
      </trkpt>
      <trkpt lat="45.62639" lon="1.99954">
        <ele>783.5</ele>
        <time>2022-08-03T14:12:00Z</time>
      </trkpt>
      <trkpt lat="45.62637" lon="1.99948">
        <ele>784</ele>
        <time>2022-08-03T14:12:02Z</time>
      </trkpt>
      <trkpt lat="45.62634" lon="1.99943">
        <ele>784.4</ele>
        <time>2022-08-03T14:12:04Z</time>
      </trkpt>
      <trkpt lat="45.62632" lon="1.99938">
        <ele>784.8</ele>
        <time>2022-08-03T14:12:06Z</time>
      </trkpt>
      <trkpt lat="45.6263" lon="1.99933">
        <ele>785.2</ele>
        <time>2022-08-03T14:12:08Z</time>
      </trkpt>
      <trkpt lat="45.62627" lon="1.99928">
        <ele>785.6</ele>
        <time>2022-08-03T14:12:10Z</time>
      </trkpt>
      <trkpt lat="45.62624" lon="1.99924">
        <ele>785.9</ele>
        <time>2022-08-03T14:12:12Z</time>
      </trkpt>
      <trkpt lat="45.62621" lon="1.99919">
        <ele>786.3</ele>
        <time>2022-08-03T14:12:14Z</time>
      </trkpt>
      <trkpt lat="45.62618" lon="1.99914">
        <ele>786.5</ele>
        <time>2022-08-03T14:12:16Z</time>
      </trkpt>
      <trkpt lat="45.62615" lon="1.9991">
        <ele>786.8</ele>
        <time>2022-08-03T14:12:18Z</time>
      </trkpt>
      <trkpt lat="45.62612" lon="1.99906">
        <ele>787.1</ele>
        <time>2022-08-03T14:12:20Z</time>
      </trkpt>
      <trkpt lat="45.62608" lon="1.99901">
        <ele>787.3</ele>
        <time>2022-08-03T14:12:22Z</time>
      </trkpt>
      <trkpt lat="45.62605" lon="1.99897">
        <ele>787.4</ele>
        <time>2022-08-03T14:12:24Z</time>
      </trkpt>
      <trkpt lat="45.62602" lon="1.99893">
        <ele>787.6</ele>
        <time>2022-08-03T14:12:26Z</time>
      </trkpt>
      <trkpt lat="45.62598" lon="1.9989">
        <ele>787.7</ele>
        <time>2022-08-03T14:12:28Z</time>
      </trkpt>
      <trkpt lat="45.62595" lon="1.99887">
        <ele>787.9</ele>
        <time>2022-08-03T14:12:30Z</time>
      </trkpt>
      <trkpt lat="45.62591" lon="1.99883">
        <ele>787.9</ele>
        <time>2022-08-03T14:12:32Z</time>
      </trkpt>
      <trkpt lat="45.62587" lon="1.9988">
        <ele>788</ele>
        <time>2022-08-03T14:12:34Z</time>
      </trkpt>
      <trkpt lat="45.62584" lon="1.99877">
        <ele>788</ele>
        <time>2022-08-03T14:12:36Z</time>
      </trkpt>
      <trkpt lat="45.6258" lon="1.99875">
        <ele>788.4</ele>
        <time>2022-08-03T14:12:38Z</time>
      </trkpt>
      <trkpt lat="45.62575" lon="1.99873">
        <ele>788.8</ele>
        <time>2022-08-03T14:12:40Z</time>
      </trkpt>
      <trkpt lat="45.62572" lon="1.9987">
        <ele>789.3</ele>
        <time>2022-08-03T14:12:42Z</time>
      </trkpt>
      <trkpt lat="45.62567" lon="1.99867">
        <ele>789.7</ele>
        <time>2022-08-03T14:12:44Z</time>
      </trkpt>
      <trkpt lat="45.62563" lon="1.99865">
        <ele>790.1</ele>
        <time>2022-08-03T14:12:46Z</time>
      </trkpt>
      <trkpt lat="45.62559" lon="1.99863">
        <ele>790.6</ele>
        <time>2022-08-03T14:12:48Z</time>
      </trkpt>
      <trkpt lat="45.62555" lon="1.9986">
        <ele>791</ele>
        <time>2022-08-03T14:12:50Z</time>
      </trkpt>
      <trkpt lat="45.62551" lon="1.99858">
        <ele>791.5</ele>
        <time>2022-08-03T14:12:52Z</time>
      </trkpt>
      <trkpt lat="45.62548" lon="1.99855">
        <ele>791.9</ele>
        <time>2022-08-03T14:12:54Z</time>
      </trkpt>
      <trkpt lat="45.62544" lon="1.99852">
        <ele>792.4</ele>
        <time>2022-08-03T14:12:56Z</time>
      </trkpt>
      <trkpt lat="45.6254" lon="1.99849">
        <ele>792.8</ele>
        <time>2022-08-03T14:12:58Z</time>
      </trkpt>
      <trkpt lat="45.62536" lon="1.99845">
        <ele>793.3</ele>
        <time>2022-08-03T14:13:00Z</time>
      </trkpt>
      <trkpt lat="45.62533" lon="1.99841">
        <ele>793.6</ele>
        <time>2022-08-03T14:13:02Z</time>
      </trkpt>
      <trkpt lat="45.6253" lon="1.99837">
        <ele>794</ele>
        <time>2022-08-03T14:13:04Z</time>
      </trkpt>
      <trkpt lat="45.62528" lon="1.9983">
        <ele>794.3</ele>
        <time>2022-08-03T14:13:06Z</time>
      </trkpt>
      <trkpt lat="45.62526" lon="1.99824">
        <ele>794.5</ele>
        <time>2022-08-03T14:13:08Z</time>
      </trkpt>
      <trkpt lat="45.62524" lon="1.99819">
        <ele>794.8</ele>
        <time>2022-08-03T14:13:10Z</time>
      </trkpt>
      <trkpt lat="45.62522" lon="1.99813">
        <ele>795</ele>
        <time>2022-08-03T14:13:12Z</time>
      </trkpt>
      <trkpt lat="45.62521" lon="1.99808">
        <ele>795.2</ele>
        <time>2022-08-03T14:13:14Z</time>
      </trkpt>
      <trkpt lat="45.62519" lon="1.99803">
        <ele>795.4</ele>
        <time>2022-08-03T14:13:16Z</time>
      </trkpt>
      <trkpt lat="45.62517" lon="1.99797">
        <ele>795.6</ele>
        <time>2022-08-03T14:13:18Z</time>
      </trkpt>
      <trkpt lat="45.62516" lon="1.99792">
        <ele>795.7</ele>
        <time>2022-08-03T14:13:20Z</time>
      </trkpt>
      <trkpt lat="45.62514" lon="1.99787">
        <ele>795.9</ele>
        <time>2022-08-03T14:13:22Z</time>
      </trkpt>
      <trkpt lat="45.62513" lon="1.99781">
        <ele>796</ele>
        <time>2022-08-03T14:13:24Z</time>
      </trkpt>
      <trkpt lat="45.62511" lon="1.99776">
        <ele>796.2</ele>
        <time>2022-08-03T14:13:26Z</time>
      </trkpt>
      <trkpt lat="45.62509" lon="1.9977">
        <ele>796.3</ele>
        <time>2022-08-03T14:13:28Z</time>
      </trkpt>
      <trkpt lat="45.62508" lon="1.99764">
        <ele>796.4</ele>
        <time>2022-08-03T14:13:30Z</time>
      </trkpt>
      <trkpt lat="45.62506" lon="1.99757">
        <ele>796.5</ele>
        <time>2022-08-03T14:13:32Z</time>
      </trkpt>
      <trkpt lat="45.62505" lon="1.99752">
        <ele>796.5</ele>
        <time>2022-08-03T14:13:34Z</time>
      </trkpt>
      <trkpt lat="45.62503" lon="1.99746">
        <ele>796.8</ele>
        <time>2022-08-03T14:13:36Z</time>
      </trkpt>
      <trkpt lat="45.62501" lon="1.99741">
        <ele>797</ele>
        <time>2022-08-03T14:13:38Z</time>
      </trkpt>
      <trkpt lat="45.625" lon="1.99735">
        <ele>797.2</ele>
        <time>2022-08-03T14:13:40Z</time>
      </trkpt>
      <trkpt lat="45.62497" lon="1.9973">
        <ele>797.3</ele>
        <time>2022-08-03T14:13:42Z</time>
      </trkpt>
      <trkpt lat="45.62496" lon="1.99725">
        <ele>797.4</ele>
        <time>2022-08-03T14:13:44Z</time>
      </trkpt>
      <trkpt lat="45.62495" lon="1.9972">
        <ele>797.5</ele>
        <time>2022-08-03T14:13:46Z</time>
      </trkpt>
      <trkpt lat="45.62493" lon="1.99716">
        <ele>797.6</ele>
        <time>2022-08-03T14:13:48Z</time>
      </trkpt>
      <trkpt lat="45.62491" lon="1.9971">
        <ele>797.7</ele>
        <time>2022-08-03T14:13:50Z</time>
      </trkpt>
      <trkpt lat="45.6249" lon="1.99705">
        <ele>797.8</ele>
        <time>2022-08-03T14:13:52Z</time>
      </trkpt>
      <trkpt lat="45.62488" lon="1.99699">
        <ele>797.9</ele>
        <time>2022-08-03T14:13:54Z</time>
      </trkpt>
      <trkpt lat="45.62487" lon="1.99694">
        <ele>797.9</ele>
        <time>2022-08-03T14:13:56Z</time>
      </trkpt>
      <trkpt lat="45.62484" lon="1.99689">
        <ele>798</ele>
        <time>2022-08-03T14:13:58Z</time>
      </trkpt>
      <trkpt lat="45.62483" lon="1.99683">
        <ele>798.1</ele>
        <time>2022-08-03T14:14:00Z</time>
      </trkpt>
      <trkpt lat="45.62481" lon="1.99677">
        <ele>798.2</ele>
        <time>2022-08-03T14:14:02Z</time>
      </trkpt>
      <trkpt lat="45.62478" lon="1.99671">
        <ele>798.2</ele>
        <time>2022-08-03T14:14:04Z</time>
      </trkpt>
      <trkpt lat="45.62475" lon="1.99665">
        <ele>798.3</ele>
        <time>2022-08-03T14:14:06Z</time>
      </trkpt>
      <trkpt lat="45.62471" lon="1.99659">
        <ele>798.2</ele>
        <time>2022-08-03T14:14:08Z</time>
      </trkpt>
      <trkpt lat="45.62468" lon="1.99654">
        <ele>798.2</ele>
        <time>2022-08-03T14:14:10Z</time>
      </trkpt>
      <trkpt lat="45.62463" lon="1.99649">
        <ele>798.1</ele>
        <time>2022-08-03T14:14:12Z</time>
      </trkpt>
      <trkpt lat="45.62457" lon="1.99646">
        <ele>798</ele>
        <time>2022-08-03T14:14:14Z</time>
      </trkpt>
      <trkpt lat="45.62451" lon="1.99645">
        <ele>797.9</ele>
        <time>2022-08-03T14:14:16Z</time>
      </trkpt>
      <trkpt lat="45.62443" lon="1.99641">
        <ele>797.7</ele>
        <time>2022-08-03T14:14:18Z</time>
      </trkpt>
      <trkpt lat="45.62435" lon="1.9964">
        <ele>797.6</ele>
        <time>2022-08-03T14:14:20Z</time>
      </trkpt>
      <trkpt lat="45.62429" lon="1.99638">
        <ele>797.5</ele>
        <time>2022-08-03T14:14:22Z</time>
      </trkpt>
      <trkpt lat="45.62422" lon="1.99638">
        <ele>797.4</ele>
        <time>2022-08-03T14:14:24Z</time>
      </trkpt>
      <trkpt lat="45.62415" lon="1.99633">
        <ele>797.1</ele>
        <time>2022-08-03T14:14:26Z</time>
      </trkpt>
      <trkpt lat="45.62402" lon="1.99632">
        <ele>797.4</ele>
        <time>2022-08-03T14:14:28Z</time>
      </trkpt>
      <trkpt lat="45.62404" lon="1.99635">
        <ele>797.5</ele>
        <time>2022-08-03T14:14:30Z</time>
      </trkpt>
      <trkpt lat="45.62398" lon="1.99635">
        <ele>797.7</ele>
        <time>2022-08-03T14:14:32Z</time>
      </trkpt>
      <trkpt lat="45.62393" lon="1.99637">
        <ele>797.9</ele>
        <time>2022-08-03T14:14:34Z</time>
      </trkpt>
      <trkpt lat="45.62386" lon="1.99641">
        <ele>798.3</ele>
        <time>2022-08-03T14:14:36Z</time>
      </trkpt>
      <trkpt lat="45.62377" lon="1.99645">
        <ele>798.8</ele>
        <time>2022-08-03T14:14:38Z</time>
      </trkpt>
      <trkpt lat="45.62368" lon="1.99645">
        <ele>799</ele>
        <time>2022-08-03T14:14:40Z</time>
      </trkpt>
      <trkpt lat="45.62359" lon="1.9964">
        <ele>799</ele>
        <time>2022-08-03T14:14:42Z</time>
      </trkpt>
      <trkpt lat="45.62351" lon="1.99632">
        <ele>798.8</ele>
        <time>2022-08-03T14:14:44Z</time>
      </trkpt>
      <trkpt lat="45.62344" lon="1.99622">
        <ele>798.5</ele>
        <time>2022-08-03T14:14:46Z</time>
      </trkpt>
      <trkpt lat="45.62338" lon="1.99612">
        <ele>798.2</ele>
        <time>2022-08-03T14:14:48Z</time>
      </trkpt>
      <trkpt lat="45.62332" lon="1.99601">
        <ele>798</ele>
        <time>2022-08-03T14:14:50Z</time>
      </trkpt>
      <trkpt lat="45.62327" lon="1.9959">
        <ele>798.3</ele>
        <time>2022-08-03T14:14:52Z</time>
      </trkpt>
      <trkpt lat="45.62322" lon="1.9958">
        <ele>798.6</ele>
        <time>2022-08-03T14:14:54Z</time>
      </trkpt>
      <trkpt lat="45.62315" lon="1.99572">
        <ele>798.8</ele>
        <time>2022-08-03T14:14:56Z</time>
      </trkpt>
      <trkpt lat="45.6231" lon="1.99563">
        <ele>798.9</ele>
        <time>2022-08-03T14:14:58Z</time>
      </trkpt>
      <trkpt lat="45.62304" lon="1.99554">
        <ele>799.2</ele>
        <time>2022-08-03T14:15:00Z</time>
      </trkpt>
      <trkpt lat="45.62297" lon="1.99546">
        <ele>799.6</ele>
        <time>2022-08-03T14:15:02Z</time>
      </trkpt>
      <trkpt lat="45.62289" lon="1.9954">
        <ele>800.2</ele>
        <time>2022-08-03T14:15:04Z</time>
      </trkpt>
      <trkpt lat="45.62282" lon="1.99533">
        <ele>800.7</ele>
        <time>2022-08-03T14:15:06Z</time>
      </trkpt>
      <trkpt lat="45.62275" lon="1.99525">
        <ele>801.2</ele>
        <time>2022-08-03T14:15:08Z</time>
      </trkpt>
      <trkpt lat="45.62269" lon="1.99516">
        <ele>801.4</ele>
        <time>2022-08-03T14:15:10Z</time>
      </trkpt>
      <trkpt lat="45.62265" lon="1.99505">
        <ele>801.2</ele>
        <time>2022-08-03T14:15:12Z</time>
      </trkpt>
      <trkpt lat="45.62261" lon="1.99495">
        <ele>800.6</ele>
        <time>2022-08-03T14:15:14Z</time>
      </trkpt>
      <trkpt lat="45.62258" lon="1.99484">
        <ele>799.5</ele>
        <time>2022-08-03T14:15:16Z</time>
      </trkpt>
      <trkpt lat="45.62255" lon="1.99472">
        <ele>798.3</ele>
        <time>2022-08-03T14:15:18Z</time>
      </trkpt>
      <trkpt lat="45.62253" lon="1.9946">
        <ele>796.9</ele>
        <time>2022-08-03T14:15:20Z</time>
      </trkpt>
      <trkpt lat="45.62249" lon="1.99448">
        <ele>795.6</ele>
        <time>2022-08-03T14:15:22Z</time>
      </trkpt>
      <trkpt lat="45.62245" lon="1.99439">
        <ele>794.8</ele>
        <time>2022-08-03T14:15:24Z</time>
      </trkpt>
      <trkpt lat="45.6224" lon="1.9943">
        <ele>794.2</ele>
        <time>2022-08-03T14:15:26Z</time>
      </trkpt>
      <trkpt lat="45.62235" lon="1.99425">
        <ele>794</ele>
        <time>2022-08-03T14:15:28Z</time>
      </trkpt>
      <trkpt lat="45.6223" lon="1.9942">
        <ele>793.9</ele>
        <time>2022-08-03T14:15:30Z</time>
      </trkpt>
      <trkpt lat="45.62224" lon="1.99416">
        <ele>794</ele>
        <time>2022-08-03T14:15:32Z</time>
      </trkpt>
      <trkpt lat="45.62218" lon="1.99411">
        <ele>793.9</ele>
        <time>2022-08-03T14:15:34Z</time>
      </trkpt>
      <trkpt lat="45.62212" lon="1.99406">
        <ele>793.7</ele>
        <time>2022-08-03T14:15:36Z</time>
      </trkpt>
      <trkpt lat="45.62206" lon="1.99402">
        <ele>793.6</ele>
        <time>2022-08-03T14:15:38Z</time>
      </trkpt>
      <trkpt lat="45.62199" lon="1.99398">
        <ele>793.6</ele>
        <time>2022-08-03T14:15:40Z</time>
      </trkpt>
      <trkpt lat="45.62193" lon="1.99394">
        <ele>793.4</ele>
        <time>2022-08-03T14:15:42Z</time>
      </trkpt>
      <trkpt lat="45.62187" lon="1.9939">
        <ele>793.3</ele>
        <time>2022-08-03T14:15:44Z</time>
      </trkpt>
      <trkpt lat="45.62181" lon="1.99386">
        <ele>793.1</ele>
        <time>2022-08-03T14:15:46Z</time>
      </trkpt>
      <trkpt lat="45.62175" lon="1.99382">
        <ele>792.9</ele>
        <time>2022-08-03T14:15:48Z</time>
      </trkpt>
      <trkpt lat="45.62169" lon="1.99378">
        <ele>792.4</ele>
        <time>2022-08-03T14:15:50Z</time>
      </trkpt>
      <trkpt lat="45.62164" lon="1.99373">
        <ele>791.8</ele>
        <time>2022-08-03T14:15:52Z</time>
      </trkpt>
      <trkpt lat="45.62163" lon="1.99372">
        <ele>791.7</ele>
        <time>2022-08-03T14:15:54Z</time>
      </trkpt>
      <trkpt lat="45.62163" lon="1.99373">
        <ele>791.8</ele>
        <time>2022-08-03T14:15:56Z</time>
      </trkpt>
      <trkpt lat="45.62163" lon="1.99373">
        <ele>791.8</ele>
        <time>2022-08-03T14:15:58Z</time>
      </trkpt>
      <trkpt lat="45.62163" lon="1.99373">
        <ele>791.8</ele>
        <time>2022-08-03T14:16:00Z</time>
      </trkpt>
      <trkpt lat="45.62163" lon="1.99373">
        <ele>791.8</ele>
        <time>2022-08-03T14:16:02Z</time>
      </trkpt>
      <trkpt lat="45.62149" lon="1.99362">
        <ele>790.6</ele>
        <time>2022-08-03T14:16:32Z</time>
      </trkpt>
      <trkpt lat="45.62143" lon="1.99359">
        <ele>790.3</ele>
        <time>2022-08-03T14:16:34Z</time>
      </trkpt>
      <trkpt lat="45.62138" lon="1.99354">
        <ele>789.9</ele>
        <time>2022-08-03T14:16:36Z</time>
      </trkpt>
      <trkpt lat="45.62132" lon="1.9935">
        <ele>789.6</ele>
        <time>2022-08-03T14:16:38Z</time>
      </trkpt>
      <trkpt lat="45.62126" lon="1.99344">
        <ele>789.3</ele>
        <time>2022-08-03T14:16:40Z</time>
      </trkpt>
      <trkpt lat="45.62119" lon="1.99339">
        <ele>789.1</ele>
        <time>2022-08-03T14:16:42Z</time>
      </trkpt>
      <trkpt lat="45.62112" lon="1.99333">
        <ele>788.9</ele>
        <time>2022-08-03T14:16:44Z</time>
      </trkpt>
      <trkpt lat="45.62105" lon="1.99328">
        <ele>788.9</ele>
        <time>2022-08-03T14:16:46Z</time>
      </trkpt>
      <trkpt lat="45.62098" lon="1.99322">
        <ele>788.9</ele>
        <time>2022-08-03T14:16:48Z</time>
      </trkpt>
      <trkpt lat="45.62091" lon="1.99316">
        <ele>788.9</ele>
        <time>2022-08-03T14:16:50Z</time>
      </trkpt>
      <trkpt lat="45.62084" lon="1.99311">
        <ele>788.9</ele>
        <time>2022-08-03T14:16:52Z</time>
      </trkpt>
      <trkpt lat="45.62077" lon="1.99305">
        <ele>788.1</ele>
        <time>2022-08-03T14:16:54Z</time>
      </trkpt>
      <trkpt lat="45.6207" lon="1.99299">
        <ele>787.1</ele>
        <time>2022-08-03T14:16:56Z</time>
      </trkpt>
      <trkpt lat="45.62063" lon="1.99293">
        <ele>786.3</ele>
        <time>2022-08-03T14:16:58Z</time>
      </trkpt>
      <trkpt lat="45.62056" lon="1.99289">
        <ele>785.7</ele>
        <time>2022-08-03T14:17:00Z</time>
      </trkpt>
      <trkpt lat="45.62049" lon="1.99286">
        <ele>785.3</ele>
        <time>2022-08-03T14:17:02Z</time>
      </trkpt>
      <trkpt lat="45.62042" lon="1.99285">
        <ele>785.1</ele>
        <time>2022-08-03T14:17:04Z</time>
      </trkpt>
      <trkpt lat="45.62035" lon="1.99285">
        <ele>785</ele>
        <time>2022-08-03T14:17:06Z</time>
      </trkpt>
      <trkpt lat="45.62027" lon="1.99287">
        <ele>785.1</ele>
        <time>2022-08-03T14:17:08Z</time>
      </trkpt>
      <trkpt lat="45.62019" lon="1.99291">
        <ele>785.3</ele>
        <time>2022-08-03T14:17:10Z</time>
      </trkpt>
      <trkpt lat="45.6201" lon="1.99298">
        <ele>785.7</ele>
        <time>2022-08-03T14:17:12Z</time>
      </trkpt>
      <trkpt lat="45.62002" lon="1.99306">
        <ele>786.1</ele>
        <time>2022-08-03T14:17:14Z</time>
      </trkpt>
      <trkpt lat="45.61993" lon="1.99317">
        <ele>786.7</ele>
        <time>2022-08-03T14:17:16Z</time>
      </trkpt>
      <trkpt lat="45.61985" lon="1.99329">
        <ele>787.2</ele>
        <time>2022-08-03T14:17:18Z</time>
      </trkpt>
      <trkpt lat="45.61974" lon="1.99342">
        <ele>787.4</ele>
        <time>2022-08-03T14:17:20Z</time>
      </trkpt>
      <trkpt lat="45.6196" lon="1.99347">
        <ele>787.1</ele>
        <time>2022-08-03T14:17:22Z</time>
      </trkpt>
      <trkpt lat="45.61947" lon="1.99339">
        <ele>786.3</ele>
        <time>2022-08-03T14:17:24Z</time>
      </trkpt>
      <trkpt lat="45.6194" lon="1.9932">
        <ele>785.7</ele>
        <time>2022-08-03T14:17:26Z</time>
      </trkpt>
      <trkpt lat="45.61935" lon="1.99301">
        <ele>785.4</ele>
        <time>2022-08-03T14:17:28Z</time>
      </trkpt>
      <trkpt lat="45.61929" lon="1.99283">
        <ele>785.4</ele>
        <time>2022-08-03T14:17:30Z</time>
      </trkpt>
      <trkpt lat="45.61924" lon="1.99264">
        <ele>785.6</ele>
        <time>2022-08-03T14:17:32Z</time>
      </trkpt>
      <trkpt lat="45.61917" lon="1.99248">
        <ele>786</ele>
        <time>2022-08-03T14:17:34Z</time>
      </trkpt>
      <trkpt lat="45.61911" lon="1.99234">
        <ele>786.4</ele>
        <time>2022-08-03T14:17:36Z</time>
      </trkpt>
      <trkpt lat="45.61904" lon="1.99225">
        <ele>786.8</ele>
        <time>2022-08-03T14:17:38Z</time>
      </trkpt>
      <trkpt lat="45.61898" lon="1.99217">
        <ele>787</ele>
        <time>2022-08-03T14:17:40Z</time>
      </trkpt>
      <trkpt lat="45.61891" lon="1.99208">
        <ele>787.2</ele>
        <time>2022-08-03T14:17:42Z</time>
      </trkpt>
      <trkpt lat="45.61885" lon="1.99201">
        <ele>787.3</ele>
        <time>2022-08-03T14:17:44Z</time>
      </trkpt>
      <trkpt lat="45.61879" lon="1.99195">
        <ele>787.4</ele>
        <time>2022-08-03T14:17:46Z</time>
      </trkpt>
      <trkpt lat="45.61874" lon="1.9919">
        <ele>787.4</ele>
        <time>2022-08-03T14:17:48Z</time>
      </trkpt>
      <trkpt lat="45.61869" lon="1.99187">
        <ele>787.4</ele>
        <time>2022-08-03T14:17:50Z</time>
      </trkpt>
      <trkpt lat="45.61863" lon="1.99184">
        <ele>787.4</ele>
        <time>2022-08-03T14:17:52Z</time>
      </trkpt>
      <trkpt lat="45.61857" lon="1.99182">
        <ele>787.5</ele>
        <time>2022-08-03T14:17:54Z</time>
      </trkpt>
      <trkpt lat="45.6185" lon="1.99183">
        <ele>787.7</ele>
        <time>2022-08-03T14:17:56Z</time>
      </trkpt>
      <trkpt lat="45.61843" lon="1.99183">
        <ele>787.9</ele>
        <time>2022-08-03T14:17:58Z</time>
      </trkpt>
      <trkpt lat="45.61836" lon="1.99185">
        <ele>788.2</ele>
        <time>2022-08-03T14:18:00Z</time>
      </trkpt>
      <trkpt lat="45.61829" lon="1.99186">
        <ele>788.7</ele>
        <time>2022-08-03T14:18:02Z</time>
      </trkpt>
      <trkpt lat="45.61821" lon="1.99188">
        <ele>789.3</ele>
        <time>2022-08-03T14:18:04Z</time>
      </trkpt>
      <trkpt lat="45.61815" lon="1.99188">
        <ele>789.7</ele>
        <time>2022-08-03T14:18:06Z</time>
      </trkpt>
      <trkpt lat="45.61807" lon="1.99187">
        <ele>790.1</ele>
        <time>2022-08-03T14:18:08Z</time>
      </trkpt>
      <trkpt lat="45.61799" lon="1.99184">
        <ele>790.4</ele>
        <time>2022-08-03T14:18:10Z</time>
      </trkpt>
      <trkpt lat="45.61792" lon="1.99181">
        <ele>790.6</ele>
        <time>2022-08-03T14:18:12Z</time>
      </trkpt>
      <trkpt lat="45.61784" lon="1.99178">
        <ele>790.8</ele>
        <time>2022-08-03T14:18:14Z</time>
      </trkpt>
      <trkpt lat="45.61777" lon="1.99173">
        <ele>790.9</ele>
        <time>2022-08-03T14:18:16Z</time>
      </trkpt>
      <trkpt lat="45.61769" lon="1.99168">
        <ele>791</ele>
        <time>2022-08-03T14:18:18Z</time>
      </trkpt>
      <trkpt lat="45.61762" lon="1.99164">
        <ele>791</ele>
        <time>2022-08-03T14:18:20Z</time>
      </trkpt>
      <trkpt lat="45.61755" lon="1.9916">
        <ele>791</ele>
        <time>2022-08-03T14:18:22Z</time>
      </trkpt>
      <trkpt lat="45.61747" lon="1.99156">
        <ele>791</ele>
        <time>2022-08-03T14:18:24Z</time>
      </trkpt>
      <trkpt lat="45.6174" lon="1.99153">
        <ele>791.2</ele>
        <time>2022-08-03T14:18:26Z</time>
      </trkpt>
      <trkpt lat="45.61732" lon="1.99151">
        <ele>791.4</ele>
        <time>2022-08-03T14:18:28Z</time>
      </trkpt>
      <trkpt lat="45.61725" lon="1.99149">
        <ele>791.7</ele>
        <time>2022-08-03T14:18:30Z</time>
      </trkpt>
      <trkpt lat="45.61717" lon="1.99149">
        <ele>792.2</ele>
        <time>2022-08-03T14:18:32Z</time>
      </trkpt>
      <trkpt lat="45.61709" lon="1.99149">
        <ele>792.8</ele>
        <time>2022-08-03T14:18:34Z</time>
      </trkpt>
      <trkpt lat="45.61701" lon="1.9915">
        <ele>793.3</ele>
        <time>2022-08-03T14:18:36Z</time>
      </trkpt>
      <trkpt lat="45.61694" lon="1.9915">
        <ele>793.8</ele>
        <time>2022-08-03T14:18:38Z</time>
      </trkpt>
      <trkpt lat="45.61686" lon="1.99151">
        <ele>794.4</ele>
        <time>2022-08-03T14:18:40Z</time>
      </trkpt>
      <trkpt lat="45.61679" lon="1.99152">
        <ele>794.9</ele>
        <time>2022-08-03T14:18:42Z</time>
      </trkpt>
      <trkpt lat="45.61672" lon="1.99152">
        <ele>795.4</ele>
        <time>2022-08-03T14:18:44Z</time>
      </trkpt>
      <trkpt lat="45.61665" lon="1.99152">
        <ele>796</ele>
        <time>2022-08-03T14:18:46Z</time>
      </trkpt>
      <trkpt lat="45.61658" lon="1.99152">
        <ele>796.8</ele>
        <time>2022-08-03T14:18:48Z</time>
      </trkpt>
      <trkpt lat="45.61651" lon="1.99151">
        <ele>797.6</ele>
        <time>2022-08-03T14:18:50Z</time>
      </trkpt>
      <trkpt lat="45.61645" lon="1.9915">
        <ele>798.3</ele>
        <time>2022-08-03T14:18:52Z</time>
      </trkpt>
      <trkpt lat="45.61639" lon="1.99148">
        <ele>799</ele>
        <time>2022-08-03T14:18:54Z</time>
      </trkpt>
      <trkpt lat="45.61632" lon="1.99144">
        <ele>799.6</ele>
        <time>2022-08-03T14:18:56Z</time>
      </trkpt>
      <trkpt lat="45.61628" lon="1.99137">
        <ele>799.9</ele>
        <time>2022-08-03T14:18:58Z</time>
      </trkpt>
      <trkpt lat="45.61625" lon="1.99128">
        <ele>799.9</ele>
        <time>2022-08-03T14:19:00Z</time>
      </trkpt>
      <trkpt lat="45.61624" lon="1.99119">
        <ele>799.7</ele>
        <time>2022-08-03T14:19:02Z</time>
      </trkpt>
      <trkpt lat="45.61625" lon="1.9911">
        <ele>799.1</ele>
        <time>2022-08-03T14:19:04Z</time>
      </trkpt>
      <trkpt lat="45.61628" lon="1.99101">
        <ele>798.2</ele>
        <time>2022-08-03T14:19:06Z</time>
      </trkpt>
      <trkpt lat="45.61632" lon="1.99093">
        <ele>797.1</ele>
        <time>2022-08-03T14:19:08Z</time>
      </trkpt>
      <trkpt lat="45.61637" lon="1.99085">
        <ele>795.7</ele>
        <time>2022-08-03T14:19:10Z</time>
      </trkpt>
      <trkpt lat="45.61643" lon="1.99076">
        <ele>795</ele>
        <time>2022-08-03T14:19:12Z</time>
      </trkpt>
      <trkpt lat="45.61649" lon="1.99067">
        <ele>794.4</ele>
        <time>2022-08-03T14:19:14Z</time>
      </trkpt>
      <trkpt lat="45.61654" lon="1.99057">
        <ele>794</ele>
        <time>2022-08-03T14:19:16Z</time>
      </trkpt>
      <trkpt lat="45.61661" lon="1.99048">
        <ele>793.3</ele>
        <time>2022-08-03T14:19:18Z</time>
      </trkpt>
      <trkpt lat="45.61667" lon="1.99038">
        <ele>792.7</ele>
        <time>2022-08-03T14:19:20Z</time>
      </trkpt>
      <trkpt lat="45.61673" lon="1.99028">
        <ele>792.4</ele>
        <time>2022-08-03T14:19:22Z</time>
      </trkpt>
      <trkpt lat="45.61679" lon="1.99017">
        <ele>791.9</ele>
        <time>2022-08-03T14:19:24Z</time>
      </trkpt>
      <trkpt lat="45.61686" lon="1.99006">
        <ele>791.1</ele>
        <time>2022-08-03T14:19:26Z</time>
      </trkpt>
      <trkpt lat="45.61693" lon="1.98995">
        <ele>790.3</ele>
        <time>2022-08-03T14:19:28Z</time>
      </trkpt>
      <trkpt lat="45.617" lon="1.98983">
        <ele>789.6</ele>
        <time>2022-08-03T14:19:30Z</time>
      </trkpt>
      <trkpt lat="45.61707" lon="1.98971">
        <ele>788.8</ele>
        <time>2022-08-03T14:19:32Z</time>
      </trkpt>
      <trkpt lat="45.61715" lon="1.98958">
        <ele>787.9</ele>
        <time>2022-08-03T14:19:34Z</time>
      </trkpt>
      <trkpt lat="45.61723" lon="1.98945">
        <ele>786.8</ele>
        <time>2022-08-03T14:19:36Z</time>
      </trkpt>
      <trkpt lat="45.61731" lon="1.98931">
        <ele>785.6</ele>
        <time>2022-08-03T14:19:38Z</time>
      </trkpt>
      <trkpt lat="45.61738" lon="1.98921">
        <ele>784.6</ele>
        <time>2022-08-03T14:19:40Z</time>
      </trkpt>
      <trkpt lat="45.61746" lon="1.9891">
        <ele>783.1</ele>
        <time>2022-08-03T14:19:42Z</time>
      </trkpt>
      <trkpt lat="45.61755" lon="1.989">
        <ele>781.9</ele>
        <time>2022-08-03T14:19:44Z</time>
      </trkpt>
      <trkpt lat="45.61765" lon="1.9889">
        <ele>780.9</ele>
        <time>2022-08-03T14:19:46Z</time>
      </trkpt>
      <trkpt lat="45.61775" lon="1.9888">
        <ele>779.8</ele>
        <time>2022-08-03T14:19:48Z</time>
      </trkpt>
      <trkpt lat="45.61785" lon="1.98868">
        <ele>778.7</ele>
        <time>2022-08-03T14:19:50Z</time>
      </trkpt>
      <trkpt lat="45.61793" lon="1.98855">
        <ele>777.7</ele>
        <time>2022-08-03T14:19:52Z</time>
      </trkpt>
      <trkpt lat="45.61799" lon="1.98839">
        <ele>777.2</ele>
        <time>2022-08-03T14:19:54Z</time>
      </trkpt>
      <trkpt lat="45.61803" lon="1.98823">
        <ele>776.7</ele>
        <time>2022-08-03T14:19:56Z</time>
      </trkpt>
      <trkpt lat="45.61807" lon="1.98807">
        <ele>776.3</ele>
        <time>2022-08-03T14:19:58Z</time>
      </trkpt>
      <trkpt lat="45.61812" lon="1.98792">
        <ele>775.8</ele>
        <time>2022-08-03T14:20:00Z</time>
      </trkpt>
      <trkpt lat="45.61817" lon="1.98778">
        <ele>775.4</ele>
        <time>2022-08-03T14:20:02Z</time>
      </trkpt>
      <trkpt lat="45.61821" lon="1.98766">
        <ele>775</ele>
        <time>2022-08-03T14:20:04Z</time>
      </trkpt>
      <trkpt lat="45.61825" lon="1.98757">
        <ele>774.8</ele>
        <time>2022-08-03T14:20:06Z</time>
      </trkpt>
      <trkpt lat="45.61828" lon="1.9875">
        <ele>774.6</ele>
        <time>2022-08-03T14:20:08Z</time>
      </trkpt>
      <trkpt lat="45.6183" lon="1.98741">
        <ele>774.1</ele>
        <time>2022-08-03T14:20:10Z</time>
      </trkpt>
      <trkpt lat="45.61831" lon="1.98729">
        <ele>773.7</ele>
        <time>2022-08-03T14:20:12Z</time>
      </trkpt>
      <trkpt lat="45.61833" lon="1.98717">
        <ele>773.2</ele>
        <time>2022-08-03T14:20:14Z</time>
      </trkpt>
      <trkpt lat="45.61833" lon="1.98703">
        <ele>772.9</ele>
        <time>2022-08-03T14:20:16Z</time>
      </trkpt>
      <trkpt lat="45.61831" lon="1.9869">
        <ele>772.7</ele>
        <time>2022-08-03T14:20:18Z</time>
      </trkpt>
      <trkpt lat="45.61828" lon="1.98675">
        <ele>772.6</ele>
        <time>2022-08-03T14:20:20Z</time>
      </trkpt>
      <trkpt lat="45.61823" lon="1.9866">
        <ele>772</ele>
        <time>2022-08-03T14:20:22Z</time>
      </trkpt>
      <trkpt lat="45.61817" lon="1.98645">
        <ele>771</ele>
        <time>2022-08-03T14:20:24Z</time>
      </trkpt>
      <trkpt lat="45.6181" lon="1.98632">
        <ele>770.3</ele>
        <time>2022-08-03T14:20:26Z</time>
      </trkpt>
      <trkpt lat="45.61801" lon="1.98619">
        <ele>769.9</ele>
        <time>2022-08-03T14:20:28Z</time>
      </trkpt>
      <trkpt lat="45.6179" lon="1.98607">
        <ele>769.8</ele>
        <time>2022-08-03T14:20:30Z</time>
      </trkpt>
      <trkpt lat="45.61778" lon="1.98597">
        <ele>770.1</ele>
        <time>2022-08-03T14:20:32Z</time>
      </trkpt>
      <trkpt lat="45.61765" lon="1.98587">
        <ele>770.7</ele>
        <time>2022-08-03T14:20:34Z</time>
      </trkpt>
      <trkpt lat="45.61751" lon="1.98582">
        <ele>771.7</ele>
        <time>2022-08-03T14:20:36Z</time>
      </trkpt>
      <trkpt lat="45.61736" lon="1.9858">
        <ele>771.7</ele>
        <time>2022-08-03T14:20:38Z</time>
      </trkpt>
      <trkpt lat="45.6172" lon="1.98578">
        <ele>771.7</ele>
        <time>2022-08-03T14:20:40Z</time>
      </trkpt>
      <trkpt lat="45.61705" lon="1.98578">
        <ele>771.8</ele>
        <time>2022-08-03T14:20:42Z</time>
      </trkpt>
      <trkpt lat="45.6169" lon="1.98577">
        <ele>771.9</ele>
        <time>2022-08-03T14:20:44Z</time>
      </trkpt>
      <trkpt lat="45.61673" lon="1.98578">
        <ele>772.1</ele>
        <time>2022-08-03T14:20:46Z</time>
      </trkpt>
      <trkpt lat="45.61657" lon="1.98578">
        <ele>773.1</ele>
        <time>2022-08-03T14:20:48Z</time>
      </trkpt>
      <trkpt lat="45.61644" lon="1.98575">
        <ele>774.4</ele>
        <time>2022-08-03T14:20:50Z</time>
      </trkpt>
      <trkpt lat="45.61632" lon="1.98559">
        <ele>776.1</ele>
        <time>2022-08-03T14:20:52Z</time>
      </trkpt>
      <trkpt lat="45.61628" lon="1.98541">
        <ele>777.2</ele>
        <time>2022-08-03T14:20:54Z</time>
      </trkpt>
      <trkpt lat="45.61638" lon="1.98517">
        <ele>776.8</ele>
        <time>2022-08-03T14:20:56Z</time>
      </trkpt>
      <trkpt lat="45.61652" lon="1.98505">
        <ele>775.6</ele>
        <time>2022-08-03T14:20:58Z</time>
      </trkpt>
      <trkpt lat="45.61666" lon="1.98494">
        <ele>774.7</ele>
        <time>2022-08-03T14:21:00Z</time>
      </trkpt>
      <trkpt lat="45.61679" lon="1.98482">
        <ele>774.1</ele>
        <time>2022-08-03T14:21:02Z</time>
      </trkpt>
      <trkpt lat="45.61691" lon="1.98467">
        <ele>773.4</ele>
        <time>2022-08-03T14:21:04Z</time>
      </trkpt>
      <trkpt lat="45.61703" lon="1.9845">
        <ele>772.5</ele>
        <time>2022-08-03T14:21:06Z</time>
      </trkpt>
      <trkpt lat="45.61713" lon="1.9843">
        <ele>771.3</ele>
        <time>2022-08-03T14:21:08Z</time>
      </trkpt>
      <trkpt lat="45.61725" lon="1.98414">
        <ele>769</ele>
        <time>2022-08-03T14:21:10Z</time>
      </trkpt>
      <trkpt lat="45.61737" lon="1.98398">
        <ele>766.4</ele>
        <time>2022-08-03T14:21:12Z</time>
      </trkpt>
      <trkpt lat="45.61747" lon="1.98382">
        <ele>764.4</ele>
        <time>2022-08-03T14:21:14Z</time>
      </trkpt>
      <trkpt lat="45.61755" lon="1.98363">
        <ele>763</ele>
        <time>2022-08-03T14:21:16Z</time>
      </trkpt>
      <trkpt lat="45.6176" lon="1.98341">
        <ele>762.3</ele>
        <time>2022-08-03T14:21:18Z</time>
      </trkpt>
      <trkpt lat="45.6176" lon="1.98318">
        <ele>762.3</ele>
        <time>2022-08-03T14:21:20Z</time>
      </trkpt>
      <trkpt lat="45.61754" lon="1.98298">
        <ele>763.2</ele>
        <time>2022-08-03T14:21:22Z</time>
      </trkpt>
      <trkpt lat="45.61749" lon="1.98286">
        <ele>764</ele>
        <time>2022-08-03T14:21:24Z</time>
      </trkpt>
      <trkpt lat="45.61771" lon="1.98254">
        <ele>758.9</ele>
        <time>2022-08-03T14:21:26Z</time>
      </trkpt>
      <trkpt lat="45.61784" lon="1.98241">
        <ele>756.9</ele>
        <time>2022-08-03T14:21:28Z</time>
      </trkpt>
      <trkpt lat="45.61791" lon="1.9822">
        <ele>756.9</ele>
        <time>2022-08-03T14:21:30Z</time>
      </trkpt>
      <trkpt lat="45.618" lon="1.98193">
        <ele>756.5</ele>
        <time>2022-08-03T14:21:32Z</time>
      </trkpt>
      <trkpt lat="45.61809" lon="1.98178">
        <ele>755.1</ele>
        <time>2022-08-03T14:21:34Z</time>
      </trkpt>
      <trkpt lat="45.6182" lon="1.98157">
        <ele>753.9</ele>
        <time>2022-08-03T14:21:36Z</time>
      </trkpt>
      <trkpt lat="45.6183" lon="1.98138">
        <ele>753.8</ele>
        <time>2022-08-03T14:21:38Z</time>
      </trkpt>
      <trkpt lat="45.61843" lon="1.98119">
        <ele>753.3</ele>
        <time>2022-08-03T14:21:40Z</time>
      </trkpt>
      <trkpt lat="45.6186" lon="1.98116">
        <ele>750.4</ele>
        <time>2022-08-03T14:21:42Z</time>
      </trkpt>
      <trkpt lat="45.61874" lon="1.98115">
        <ele>747.5</ele>
        <time>2022-08-03T14:21:44Z</time>
      </trkpt>
      <trkpt lat="45.61893" lon="1.981">
        <ele>745.4</ele>
        <time>2022-08-03T14:21:46Z</time>
      </trkpt>
      <trkpt lat="45.61908" lon="1.98086">
        <ele>743.6</ele>
        <time>2022-08-03T14:21:48Z</time>
      </trkpt>
      <trkpt lat="45.61921" lon="1.98068">
        <ele>743.3</ele>
        <time>2022-08-03T14:21:50Z</time>
      </trkpt>
      <trkpt lat="45.61933" lon="1.9805">
        <ele>744.1</ele>
        <time>2022-08-03T14:21:52Z</time>
      </trkpt>
      <trkpt lat="45.61943" lon="1.98033">
        <ele>744.8</ele>
        <time>2022-08-03T14:21:54Z</time>
      </trkpt>
      <trkpt lat="45.61954" lon="1.98014">
        <ele>745.6</ele>
        <time>2022-08-03T14:21:56Z</time>
      </trkpt>
      <trkpt lat="45.61964" lon="1.97996">
        <ele>745.9</ele>
        <time>2022-08-03T14:21:58Z</time>
      </trkpt>
      <trkpt lat="45.61975" lon="1.9798">
        <ele>744.9</ele>
        <time>2022-08-03T14:22:00Z</time>
      </trkpt>
      <trkpt lat="45.61989" lon="1.97968">
        <ele>743.5</ele>
        <time>2022-08-03T14:22:02Z</time>
      </trkpt>
      <trkpt lat="45.62005" lon="1.97964">
        <ele>742.2</ele>
        <time>2022-08-03T14:22:04Z</time>
      </trkpt>
      <trkpt lat="45.6202" lon="1.97959">
        <ele>741.5</ele>
        <time>2022-08-03T14:22:06Z</time>
      </trkpt>
      <trkpt lat="45.62031" lon="1.97944">
        <ele>741.2</ele>
        <time>2022-08-03T14:22:08Z</time>
      </trkpt>
      <trkpt lat="45.62037" lon="1.97923">
        <ele>741.2</ele>
        <time>2022-08-03T14:22:10Z</time>
      </trkpt>
      <trkpt lat="45.62043" lon="1.97903">
        <ele>740.8</ele>
        <time>2022-08-03T14:22:12Z</time>
      </trkpt>
      <trkpt lat="45.62049" lon="1.97883">
        <ele>740.3</ele>
        <time>2022-08-03T14:22:14Z</time>
      </trkpt>
      <trkpt lat="45.62056" lon="1.97862">
        <ele>739.9</ele>
        <time>2022-08-03T14:22:16Z</time>
      </trkpt>
      <trkpt lat="45.62062" lon="1.97841">
        <ele>739.6</ele>
        <time>2022-08-03T14:22:18Z</time>
      </trkpt>
      <trkpt lat="45.62069" lon="1.9782">
        <ele>739.5</ele>
        <time>2022-08-03T14:22:20Z</time>
      </trkpt>
      <trkpt lat="45.62074" lon="1.978">
        <ele>739.7</ele>
        <time>2022-08-03T14:22:22Z</time>
      </trkpt>
      <trkpt lat="45.62078" lon="1.97778">
        <ele>739.8</ele>
        <time>2022-08-03T14:22:24Z</time>
      </trkpt>
      <trkpt lat="45.62079" lon="1.97756">
        <ele>740.1</ele>
        <time>2022-08-03T14:22:26Z</time>
      </trkpt>
      <trkpt lat="45.62079" lon="1.97734">
        <ele>740</ele>
        <time>2022-08-03T14:22:28Z</time>
      </trkpt>
      <trkpt lat="45.62079" lon="1.97712">
        <ele>739.8</ele>
        <time>2022-08-03T14:22:30Z</time>
      </trkpt>
      <trkpt lat="45.62079" lon="1.97692">
        <ele>739.6</ele>
        <time>2022-08-03T14:22:32Z</time>
      </trkpt>
      <trkpt lat="45.62078" lon="1.97672">
        <ele>739.5</ele>
        <time>2022-08-03T14:22:34Z</time>
      </trkpt>
      <trkpt lat="45.62075" lon="1.97654">
        <ele>739.2</ele>
        <time>2022-08-03T14:22:36Z</time>
      </trkpt>
      <trkpt lat="45.62072" lon="1.97635">
        <ele>739</ele>
        <time>2022-08-03T14:22:38Z</time>
      </trkpt>
      <trkpt lat="45.62068" lon="1.97617">
        <ele>738.7</ele>
        <time>2022-08-03T14:22:40Z</time>
      </trkpt>
      <trkpt lat="45.62065" lon="1.97599">
        <ele>738.4</ele>
        <time>2022-08-03T14:22:42Z</time>
      </trkpt>
      <trkpt lat="45.62061" lon="1.97582">
        <ele>738.1</ele>
        <time>2022-08-03T14:22:44Z</time>
      </trkpt>
      <trkpt lat="45.62058" lon="1.97565">
        <ele>738</ele>
        <time>2022-08-03T14:22:46Z</time>
      </trkpt>
      <trkpt lat="45.62054" lon="1.97549">
        <ele>738</ele>
        <time>2022-08-03T14:22:48Z</time>
      </trkpt>
      <trkpt lat="45.62051" lon="1.97533">
        <ele>737.9</ele>
        <time>2022-08-03T14:22:50Z</time>
      </trkpt>
      <trkpt lat="45.62048" lon="1.97518">
        <ele>737.7</ele>
        <time>2022-08-03T14:22:52Z</time>
      </trkpt>
      <trkpt lat="45.62044" lon="1.97502">
        <ele>737.5</ele>
        <time>2022-08-03T14:22:54Z</time>
      </trkpt>
      <trkpt lat="45.62041" lon="1.97487">
        <ele>737.1</ele>
        <time>2022-08-03T14:22:56Z</time>
      </trkpt>
      <trkpt lat="45.62038" lon="1.9747">
        <ele>736.6</ele>
        <time>2022-08-03T14:22:58Z</time>
      </trkpt>
      <trkpt lat="45.62035" lon="1.97454">
        <ele>736.1</ele>
        <time>2022-08-03T14:23:00Z</time>
      </trkpt>
      <trkpt lat="45.62032" lon="1.97438">
        <ele>735.7</ele>
        <time>2022-08-03T14:23:02Z</time>
      </trkpt>
      <trkpt lat="45.62028" lon="1.97422">
        <ele>735.2</ele>
        <time>2022-08-03T14:23:04Z</time>
      </trkpt>
      <trkpt lat="45.62025" lon="1.97406">
        <ele>734.9</ele>
        <time>2022-08-03T14:23:06Z</time>
      </trkpt>
      <trkpt lat="45.62022" lon="1.9739">
        <ele>734.7</ele>
        <time>2022-08-03T14:23:08Z</time>
      </trkpt>
      <trkpt lat="45.62018" lon="1.97375">
        <ele>734.4</ele>
        <time>2022-08-03T14:23:10Z</time>
      </trkpt>
      <trkpt lat="45.62015" lon="1.97359">
        <ele>734.1</ele>
        <time>2022-08-03T14:23:12Z</time>
      </trkpt>
      <trkpt lat="45.62012" lon="1.97343">
        <ele>733.7</ele>
        <time>2022-08-03T14:23:14Z</time>
      </trkpt>
      <trkpt lat="45.62009" lon="1.97327">
        <ele>733.4</ele>
        <time>2022-08-03T14:23:16Z</time>
      </trkpt>
      <trkpt lat="45.62006" lon="1.97312">
        <ele>733.2</ele>
        <time>2022-08-03T14:23:18Z</time>
      </trkpt>
      <trkpt lat="45.62006" lon="1.97295">
        <ele>733.2</ele>
        <time>2022-08-03T14:23:20Z</time>
      </trkpt>
      <trkpt lat="45.6201" lon="1.97279">
        <ele>733.3</ele>
        <time>2022-08-03T14:23:22Z</time>
      </trkpt>
      <trkpt lat="45.62017" lon="1.97266">
        <ele>733.5</ele>
        <time>2022-08-03T14:23:24Z</time>
      </trkpt>
      <trkpt lat="45.62026" lon="1.97256">
        <ele>733.7</ele>
        <time>2022-08-03T14:23:26Z</time>
      </trkpt>
      <trkpt lat="45.62035" lon="1.97246">
        <ele>733.7</ele>
        <time>2022-08-03T14:23:28Z</time>
      </trkpt>
      <trkpt lat="45.62043" lon="1.97238">
        <ele>733.5</ele>
        <time>2022-08-03T14:23:30Z</time>
      </trkpt>
      <trkpt lat="45.6205" lon="1.97228">
        <ele>733.3</ele>
        <time>2022-08-03T14:23:32Z</time>
      </trkpt>
      <trkpt lat="45.62053" lon="1.97213">
        <ele>732.8</ele>
        <time>2022-08-03T14:23:34Z</time>
      </trkpt>
      <trkpt lat="45.62055" lon="1.97199">
        <ele>732.3</ele>
        <time>2022-08-03T14:23:36Z</time>
      </trkpt>
      <trkpt lat="45.62054" lon="1.97183">
        <ele>731.6</ele>
        <time>2022-08-03T14:23:38Z</time>
      </trkpt>
      <trkpt lat="45.62054" lon="1.97167">
        <ele>731</ele>
        <time>2022-08-03T14:23:40Z</time>
      </trkpt>
      <trkpt lat="45.62052" lon="1.97152">
        <ele>731.8</ele>
        <time>2022-08-03T14:23:42Z</time>
      </trkpt>
      <trkpt lat="45.62048" lon="1.97137">
        <ele>732.7</ele>
        <time>2022-08-03T14:23:44Z</time>
      </trkpt>
      <trkpt lat="45.62042" lon="1.97127">
        <ele>733.1</ele>
        <time>2022-08-03T14:23:46Z</time>
      </trkpt>
      <trkpt lat="45.62031" lon="1.97122">
        <ele>733</ele>
        <time>2022-08-03T14:23:48Z</time>
      </trkpt>
      <trkpt lat="45.62019" lon="1.97126">
        <ele>732.3</ele>
        <time>2022-08-03T14:23:50Z</time>
      </trkpt>
      <trkpt lat="45.62008" lon="1.97136">
        <ele>731.2</ele>
        <time>2022-08-03T14:23:52Z</time>
      </trkpt>
      <trkpt lat="45.61997" lon="1.97146">
        <ele>730.2</ele>
        <time>2022-08-03T14:23:54Z</time>
      </trkpt>
      <trkpt lat="45.61986" lon="1.97156">
        <ele>729.8</ele>
        <time>2022-08-03T14:23:56Z</time>
      </trkpt>
      <trkpt lat="45.61976" lon="1.97167">
        <ele>729.6</ele>
        <time>2022-08-03T14:23:58Z</time>
      </trkpt>
      <trkpt lat="45.61966" lon="1.97178">
        <ele>730.6</ele>
        <time>2022-08-03T14:24:00Z</time>
      </trkpt>
      <trkpt lat="45.61956" lon="1.97188">
        <ele>731.6</ele>
        <time>2022-08-03T14:24:02Z</time>
      </trkpt>
      <trkpt lat="45.61944" lon="1.97194">
        <ele>732.5</ele>
        <time>2022-08-03T14:24:04Z</time>
      </trkpt>
      <trkpt lat="45.61933" lon="1.97191">
        <ele>732.7</ele>
        <time>2022-08-03T14:24:06Z</time>
      </trkpt>
      <trkpt lat="45.61925" lon="1.9718">
        <ele>732</ele>
        <time>2022-08-03T14:24:08Z</time>
      </trkpt>
      <trkpt lat="45.61919" lon="1.97167">
        <ele>731</ele>
        <time>2022-08-03T14:24:10Z</time>
      </trkpt>
      <trkpt lat="45.61914" lon="1.97155">
        <ele>731.1</ele>
        <time>2022-08-03T14:24:12Z</time>
      </trkpt>
      <trkpt lat="45.61909" lon="1.97141">
        <ele>731.5</ele>
        <time>2022-08-03T14:24:14Z</time>
      </trkpt>
      <trkpt lat="45.61904" lon="1.97128">
        <ele>732.1</ele>
        <time>2022-08-03T14:24:16Z</time>
      </trkpt>
      <trkpt lat="45.61899" lon="1.97115">
        <ele>732.8</ele>
        <time>2022-08-03T14:24:18Z</time>
      </trkpt>
      <trkpt lat="45.61893" lon="1.97102">
        <ele>733.5</ele>
        <time>2022-08-03T14:24:20Z</time>
      </trkpt>
      <trkpt lat="45.61889" lon="1.97086">
        <ele>734</ele>
        <time>2022-08-03T14:24:22Z</time>
      </trkpt>
      <trkpt lat="45.61887" lon="1.9707">
        <ele>734.7</ele>
        <time>2022-08-03T14:24:24Z</time>
      </trkpt>
      <trkpt lat="45.61887" lon="1.97053">
        <ele>735</ele>
        <time>2022-08-03T14:24:26Z</time>
      </trkpt>
      <trkpt lat="45.61889" lon="1.97036">
        <ele>734.7</ele>
        <time>2022-08-03T14:24:28Z</time>
      </trkpt>
      <trkpt lat="45.61893" lon="1.97021">
        <ele>734.1</ele>
        <time>2022-08-03T14:24:30Z</time>
      </trkpt>
      <trkpt lat="45.61897" lon="1.97009">
        <ele>733.2</ele>
        <time>2022-08-03T14:24:32Z</time>
      </trkpt>
      <trkpt lat="45.619" lon="1.97">
        <ele>732.4</ele>
        <time>2022-08-03T14:24:34Z</time>
      </trkpt>
      <trkpt lat="45.61904" lon="1.96989">
        <ele>731.3</ele>
        <time>2022-08-03T14:24:36Z</time>
      </trkpt>
      <trkpt lat="45.61906" lon="1.96977">
        <ele>730.6</ele>
        <time>2022-08-03T14:24:38Z</time>
      </trkpt>
      <trkpt lat="45.61907" lon="1.96964">
        <ele>730</ele>
        <time>2022-08-03T14:24:40Z</time>
      </trkpt>
      <trkpt lat="45.61908" lon="1.96952">
        <ele>729.7</ele>
        <time>2022-08-03T14:24:42Z</time>
      </trkpt>
      <trkpt lat="45.61907" lon="1.96938">
        <ele>729.8</ele>
        <time>2022-08-03T14:24:44Z</time>
      </trkpt>
      <trkpt lat="45.61905" lon="1.96924">
        <ele>730</ele>
        <time>2022-08-03T14:24:46Z</time>
      </trkpt>
      <trkpt lat="45.61903" lon="1.9691">
        <ele>730.4</ele>
        <time>2022-08-03T14:24:48Z</time>
      </trkpt>
      <trkpt lat="45.619" lon="1.96899">
        <ele>730.8</ele>
        <time>2022-08-03T14:24:50Z</time>
      </trkpt>
      <trkpt lat="45.61897" lon="1.96886">
        <ele>731.1</ele>
        <time>2022-08-03T14:24:52Z</time>
      </trkpt>
      <trkpt lat="45.61895" lon="1.96874">
        <ele>731.2</ele>
        <time>2022-08-03T14:24:54Z</time>
      </trkpt>
      <trkpt lat="45.61893" lon="1.96861">
        <ele>731.2</ele>
        <time>2022-08-03T14:24:56Z</time>
      </trkpt>
      <trkpt lat="45.6189" lon="1.96848">
        <ele>731.3</ele>
        <time>2022-08-03T14:24:58Z</time>
      </trkpt>
      <trkpt lat="45.61887" lon="1.96833">
        <ele>731.2</ele>
        <time>2022-08-03T14:25:00Z</time>
      </trkpt>
      <trkpt lat="45.61884" lon="1.9682">
        <ele>730.4</ele>
        <time>2022-08-03T14:25:02Z</time>
      </trkpt>
      <trkpt lat="45.61878" lon="1.96808">
        <ele>729.9</ele>
        <time>2022-08-03T14:25:04Z</time>
      </trkpt>
      <trkpt lat="45.61872" lon="1.96798">
        <ele>729.5</ele>
        <time>2022-08-03T14:25:06Z</time>
      </trkpt>
      <trkpt lat="45.61864" lon="1.96789">
        <ele>729.2</ele>
        <time>2022-08-03T14:25:08Z</time>
      </trkpt>
      <trkpt lat="45.61856" lon="1.9678">
        <ele>728.8</ele>
        <time>2022-08-03T14:25:10Z</time>
      </trkpt>
      <trkpt lat="45.61848" lon="1.96773">
        <ele>728.5</ele>
        <time>2022-08-03T14:25:12Z</time>
      </trkpt>
      <trkpt lat="45.6184" lon="1.96766">
        <ele>728</ele>
        <time>2022-08-03T14:25:14Z</time>
      </trkpt>
      <trkpt lat="45.61832" lon="1.96757">
        <ele>727.3</ele>
        <time>2022-08-03T14:25:16Z</time>
      </trkpt>
      <trkpt lat="45.61826" lon="1.96746">
        <ele>727</ele>
        <time>2022-08-03T14:25:18Z</time>
      </trkpt>
      <trkpt lat="45.6182" lon="1.96735">
        <ele>727</ele>
        <time>2022-08-03T14:25:20Z</time>
      </trkpt>
      <trkpt lat="45.61817" lon="1.96721">
        <ele>726.6</ele>
        <time>2022-08-03T14:25:22Z</time>
      </trkpt>
      <trkpt lat="45.61814" lon="1.96707">
        <ele>726</ele>
        <time>2022-08-03T14:25:24Z</time>
      </trkpt>
      <trkpt lat="45.61813" lon="1.96692">
        <ele>725.1</ele>
        <time>2022-08-03T14:25:26Z</time>
      </trkpt>
      <trkpt lat="45.61812" lon="1.96676">
        <ele>724</ele>
        <time>2022-08-03T14:25:28Z</time>
      </trkpt>
      <trkpt lat="45.61811" lon="1.9666">
        <ele>723.3</ele>
        <time>2022-08-03T14:25:30Z</time>
      </trkpt>
      <trkpt lat="45.61809" lon="1.96644">
        <ele>723.5</ele>
        <time>2022-08-03T14:25:32Z</time>
      </trkpt>
      <trkpt lat="45.61805" lon="1.9663">
        <ele>723.9</ele>
        <time>2022-08-03T14:25:34Z</time>
      </trkpt>
      <trkpt lat="45.61799" lon="1.96617">
        <ele>724.6</ele>
        <time>2022-08-03T14:25:36Z</time>
      </trkpt>
      <trkpt lat="45.61793" lon="1.96604">
        <ele>725.4</ele>
        <time>2022-08-03T14:25:38Z</time>
      </trkpt>
      <trkpt lat="45.61787" lon="1.96591">
        <ele>726</ele>
        <time>2022-08-03T14:25:40Z</time>
      </trkpt>
      <trkpt lat="45.61781" lon="1.96578">
        <ele>726.6</ele>
        <time>2022-08-03T14:25:42Z</time>
      </trkpt>
      <trkpt lat="45.61777" lon="1.96562">
        <ele>726.5</ele>
        <time>2022-08-03T14:25:44Z</time>
      </trkpt>
      <trkpt lat="45.61774" lon="1.96547">
        <ele>726.2</ele>
        <time>2022-08-03T14:25:46Z</time>
      </trkpt>
      <trkpt lat="45.61772" lon="1.9653">
        <ele>725.7</ele>
        <time>2022-08-03T14:25:48Z</time>
      </trkpt>
      <trkpt lat="45.6177" lon="1.96513">
        <ele>725.3</ele>
        <time>2022-08-03T14:25:50Z</time>
      </trkpt>
      <trkpt lat="45.61766" lon="1.96495">
        <ele>725.1</ele>
        <time>2022-08-03T14:25:52Z</time>
      </trkpt>
      <trkpt lat="45.61759" lon="1.96482">
        <ele>725.7</ele>
        <time>2022-08-03T14:25:54Z</time>
      </trkpt>
      <trkpt lat="45.61752" lon="1.96469">
        <ele>726.1</ele>
        <time>2022-08-03T14:25:56Z</time>
      </trkpt>
      <trkpt lat="45.61743" lon="1.96461">
        <ele>726.6</ele>
        <time>2022-08-03T14:25:58Z</time>
      </trkpt>
      <trkpt lat="45.61734" lon="1.96452">
        <ele>727</ele>
        <time>2022-08-03T14:26:00Z</time>
      </trkpt>
      <trkpt lat="45.61724" lon="1.96443">
        <ele>727.1</ele>
        <time>2022-08-03T14:26:02Z</time>
      </trkpt>
      <trkpt lat="45.61714" lon="1.96436">
        <ele>727</ele>
        <time>2022-08-03T14:26:04Z</time>
      </trkpt>
      <trkpt lat="45.61704" lon="1.96429">
        <ele>726.7</ele>
        <time>2022-08-03T14:26:06Z</time>
      </trkpt>
      <trkpt lat="45.61694" lon="1.96423">
        <ele>726.3</ele>
        <time>2022-08-03T14:26:08Z</time>
      </trkpt>
      <trkpt lat="45.61684" lon="1.96416">
        <ele>725.8</ele>
        <time>2022-08-03T14:26:10Z</time>
      </trkpt>
      <trkpt lat="45.61674" lon="1.96413">
        <ele>725.6</ele>
        <time>2022-08-03T14:26:12Z</time>
      </trkpt>
      <trkpt lat="45.61663" lon="1.9641">
        <ele>725.4</ele>
        <time>2022-08-03T14:26:14Z</time>
      </trkpt>
      <trkpt lat="45.61653" lon="1.96408">
        <ele>724.9</ele>
        <time>2022-08-03T14:26:16Z</time>
      </trkpt>
      <trkpt lat="45.61643" lon="1.96406">
        <ele>724.5</ele>
        <time>2022-08-03T14:26:18Z</time>
      </trkpt>
      <trkpt lat="45.61633" lon="1.96406">
        <ele>724.1</ele>
        <time>2022-08-03T14:26:20Z</time>
      </trkpt>
      <trkpt lat="45.61622" lon="1.96404">
        <ele>723.7</ele>
        <time>2022-08-03T14:26:22Z</time>
      </trkpt>
      <trkpt lat="45.61612" lon="1.96403">
        <ele>723.3</ele>
        <time>2022-08-03T14:26:24Z</time>
      </trkpt>
      <trkpt lat="45.61602" lon="1.96399">
        <ele>722.7</ele>
        <time>2022-08-03T14:26:26Z</time>
      </trkpt>
      <trkpt lat="45.61593" lon="1.96395">
        <ele>722</ele>
        <time>2022-08-03T14:26:28Z</time>
      </trkpt>
      <trkpt lat="45.61585" lon="1.96388">
        <ele>721</ele>
        <time>2022-08-03T14:26:30Z</time>
      </trkpt>
      <trkpt lat="45.61576" lon="1.9638">
        <ele>721</ele>
        <time>2022-08-03T14:26:32Z</time>
      </trkpt>
      <trkpt lat="45.61568" lon="1.96371">
        <ele>721</ele>
        <time>2022-08-03T14:26:34Z</time>
      </trkpt>
      <trkpt lat="45.6156" lon="1.96364">
        <ele>721.2</ele>
        <time>2022-08-03T14:26:36Z</time>
      </trkpt>
      <trkpt lat="45.61551" lon="1.96356">
        <ele>721.3</ele>
        <time>2022-08-03T14:26:38Z</time>
      </trkpt>
      <trkpt lat="45.61542" lon="1.96348">
        <ele>721.3</ele>
        <time>2022-08-03T14:26:40Z</time>
      </trkpt>
      <trkpt lat="45.61533" lon="1.96339">
        <ele>721.2</ele>
        <time>2022-08-03T14:26:42Z</time>
      </trkpt>
      <trkpt lat="45.61524" lon="1.96331">
        <ele>721.4</ele>
        <time>2022-08-03T14:26:44Z</time>
      </trkpt>
      <trkpt lat="45.61515" lon="1.96323">
        <ele>722.1</ele>
        <time>2022-08-03T14:26:46Z</time>
      </trkpt>
      <trkpt lat="45.61506" lon="1.96315">
        <ele>722.5</ele>
        <time>2022-08-03T14:26:48Z</time>
      </trkpt>
      <trkpt lat="45.61497" lon="1.96307">
        <ele>723.1</ele>
        <time>2022-08-03T14:26:50Z</time>
      </trkpt>
      <trkpt lat="45.61488" lon="1.96299">
        <ele>724.6</ele>
        <time>2022-08-03T14:26:52Z</time>
      </trkpt>
      <trkpt lat="45.61479" lon="1.9629">
        <ele>725.7</ele>
        <time>2022-08-03T14:26:54Z</time>
      </trkpt>
      <trkpt lat="45.61472" lon="1.96279">
        <ele>726.4</ele>
        <time>2022-08-03T14:26:56Z</time>
      </trkpt>
      <trkpt lat="45.61467" lon="1.96264">
        <ele>726.4</ele>
        <time>2022-08-03T14:26:58Z</time>
      </trkpt>
      <trkpt lat="45.61463" lon="1.96248">
        <ele>726.1</ele>
        <time>2022-08-03T14:27:00Z</time>
      </trkpt>
      <trkpt lat="45.6146" lon="1.96234">
        <ele>726.6</ele>
        <time>2022-08-03T14:27:02Z</time>
      </trkpt>
      <trkpt lat="45.61457" lon="1.96218">
        <ele>726.8</ele>
        <time>2022-08-03T14:27:04Z</time>
      </trkpt>
      <trkpt lat="45.61456" lon="1.96202">
        <ele>726.7</ele>
        <time>2022-08-03T14:27:06Z</time>
      </trkpt>
      <trkpt lat="45.61454" lon="1.96185">
        <ele>726.6</ele>
        <time>2022-08-03T14:27:08Z</time>
      </trkpt>
      <trkpt lat="45.61451" lon="1.96169">
        <ele>726.4</ele>
        <time>2022-08-03T14:27:10Z</time>
      </trkpt>
      <trkpt lat="45.61449" lon="1.96154">
        <ele>726.5</ele>
        <time>2022-08-03T14:27:12Z</time>
      </trkpt>
      <trkpt lat="45.61446" lon="1.96139">
        <ele>726.5</ele>
        <time>2022-08-03T14:27:14Z</time>
      </trkpt>
      <trkpt lat="45.61444" lon="1.96123">
        <ele>726.3</ele>
        <time>2022-08-03T14:27:16Z</time>
      </trkpt>
      <trkpt lat="45.61441" lon="1.96108">
        <ele>725.9</ele>
        <time>2022-08-03T14:27:18Z</time>
      </trkpt>
      <trkpt lat="45.61438" lon="1.96091">
        <ele>725.2</ele>
        <time>2022-08-03T14:27:20Z</time>
      </trkpt>
      <trkpt lat="45.61434" lon="1.96076">
        <ele>724.9</ele>
        <time>2022-08-03T14:27:22Z</time>
      </trkpt>
      <trkpt lat="45.61431" lon="1.96062">
        <ele>724.9</ele>
        <time>2022-08-03T14:27:24Z</time>
      </trkpt>
      <trkpt lat="45.61427" lon="1.96049">
        <ele>724.7</ele>
        <time>2022-08-03T14:27:26Z</time>
      </trkpt>
      <trkpt lat="45.61422" lon="1.96036">
        <ele>724.1</ele>
        <time>2022-08-03T14:27:28Z</time>
      </trkpt>
      <trkpt lat="45.61416" lon="1.96022">
        <ele>723.5</ele>
        <time>2022-08-03T14:27:30Z</time>
      </trkpt>
      <trkpt lat="45.6141" lon="1.96009">
        <ele>724.3</ele>
        <time>2022-08-03T14:27:32Z</time>
      </trkpt>
      <trkpt lat="45.61403" lon="1.95997">
        <ele>724.9</ele>
        <time>2022-08-03T14:27:34Z</time>
      </trkpt>
      <trkpt lat="45.61397" lon="1.95985">
        <ele>725.6</ele>
        <time>2022-08-03T14:27:36Z</time>
      </trkpt>
      <trkpt lat="45.6139" lon="1.95974">
        <ele>725.9</ele>
        <time>2022-08-03T14:27:38Z</time>
      </trkpt>
      <trkpt lat="45.61383" lon="1.95962">
        <ele>725.8</ele>
        <time>2022-08-03T14:27:40Z</time>
      </trkpt>
      <trkpt lat="45.61376" lon="1.95951">
        <ele>725.4</ele>
        <time>2022-08-03T14:27:42Z</time>
      </trkpt>
      <trkpt lat="45.61369" lon="1.95941">
        <ele>724.6</ele>
        <time>2022-08-03T14:27:44Z</time>
      </trkpt>
      <trkpt lat="45.61363" lon="1.95931">
        <ele>723.6</ele>
        <time>2022-08-03T14:27:46Z</time>
      </trkpt>
      <trkpt lat="45.61357" lon="1.9592">
        <ele>722.3</ele>
        <time>2022-08-03T14:27:48Z</time>
      </trkpt>
      <trkpt lat="45.61351" lon="1.95909">
        <ele>720.9</ele>
        <time>2022-08-03T14:27:50Z</time>
      </trkpt>
      <trkpt lat="45.61345" lon="1.959">
        <ele>719.4</ele>
        <time>2022-08-03T14:27:52Z</time>
      </trkpt>
      <trkpt lat="45.61339" lon="1.95889">
        <ele>717.8</ele>
        <time>2022-08-03T14:27:54Z</time>
      </trkpt>
      <trkpt lat="45.61333" lon="1.95879">
        <ele>716.3</ele>
        <time>2022-08-03T14:27:56Z</time>
      </trkpt>
      <trkpt lat="45.61326" lon="1.95869">
        <ele>715.4</ele>
        <time>2022-08-03T14:27:58Z</time>
      </trkpt>
      <trkpt lat="45.6132" lon="1.95859">
        <ele>714.6</ele>
        <time>2022-08-03T14:28:00Z</time>
      </trkpt>
      <trkpt lat="45.61313" lon="1.95848">
        <ele>713.6</ele>
        <time>2022-08-03T14:28:02Z</time>
      </trkpt>
      <trkpt lat="45.61307" lon="1.95837">
        <ele>712.7</ele>
        <time>2022-08-03T14:28:04Z</time>
      </trkpt>
      <trkpt lat="45.61301" lon="1.95826">
        <ele>712.1</ele>
        <time>2022-08-03T14:28:06Z</time>
      </trkpt>
      <trkpt lat="45.61294" lon="1.95815">
        <ele>711.7</ele>
        <time>2022-08-03T14:28:08Z</time>
      </trkpt>
      <trkpt lat="45.61288" lon="1.95803">
        <ele>711.4</ele>
        <time>2022-08-03T14:28:10Z</time>
      </trkpt>
      <trkpt lat="45.61281" lon="1.95791">
        <ele>711.1</ele>
        <time>2022-08-03T14:28:12Z</time>
      </trkpt>
      <trkpt lat="45.61274" lon="1.9578">
        <ele>710.8</ele>
        <time>2022-08-03T14:28:14Z</time>
      </trkpt>
      <trkpt lat="45.61268" lon="1.95769">
        <ele>710.5</ele>
        <time>2022-08-03T14:28:16Z</time>
      </trkpt>
      <trkpt lat="45.61261" lon="1.95758">
        <ele>710.2</ele>
        <time>2022-08-03T14:28:18Z</time>
      </trkpt>
      <trkpt lat="45.61253" lon="1.95747">
        <ele>710</ele>
        <time>2022-08-03T14:28:20Z</time>
      </trkpt>
      <trkpt lat="45.61247" lon="1.95736">
        <ele>710</ele>
        <time>2022-08-03T14:28:22Z</time>
      </trkpt>
      <trkpt lat="45.6124" lon="1.95726">
        <ele>710.2</ele>
        <time>2022-08-03T14:28:24Z</time>
      </trkpt>
      <trkpt lat="45.61232" lon="1.95718">
        <ele>710.3</ele>
        <time>2022-08-03T14:28:26Z</time>
      </trkpt>
      <trkpt lat="45.61223" lon="1.95711">
        <ele>710.5</ele>
        <time>2022-08-03T14:28:28Z</time>
      </trkpt>
      <trkpt lat="45.61213" lon="1.95706">
        <ele>710.7</ele>
        <time>2022-08-03T14:28:30Z</time>
      </trkpt>
      <trkpt lat="45.61202" lon="1.95704">
        <ele>710.9</ele>
        <time>2022-08-03T14:28:32Z</time>
      </trkpt>
      <trkpt lat="45.61192" lon="1.957">
        <ele>711.1</ele>
        <time>2022-08-03T14:28:34Z</time>
      </trkpt>
      <trkpt lat="45.61181" lon="1.95699">
        <ele>711.3</ele>
        <time>2022-08-03T14:28:36Z</time>
      </trkpt>
      <trkpt lat="45.61171" lon="1.95697">
        <ele>711.5</ele>
        <time>2022-08-03T14:28:38Z</time>
      </trkpt>
      <trkpt lat="45.6116" lon="1.95695">
        <ele>712.1</ele>
        <time>2022-08-03T14:28:40Z</time>
      </trkpt>
      <trkpt lat="45.61149" lon="1.95693">
        <ele>712.8</ele>
        <time>2022-08-03T14:28:42Z</time>
      </trkpt>
      <trkpt lat="45.61139" lon="1.95692">
        <ele>713.5</ele>
        <time>2022-08-03T14:28:44Z</time>
      </trkpt>
      <trkpt lat="45.61129" lon="1.95691">
        <ele>714.1</ele>
        <time>2022-08-03T14:28:46Z</time>
      </trkpt>
      <trkpt lat="45.6112" lon="1.9569">
        <ele>714.7</ele>
        <time>2022-08-03T14:28:48Z</time>
      </trkpt>
      <trkpt lat="45.61111" lon="1.95688">
        <ele>715.2</ele>
        <time>2022-08-03T14:28:50Z</time>
      </trkpt>
      <trkpt lat="45.61103" lon="1.95686">
        <ele>715.8</ele>
        <time>2022-08-03T14:28:52Z</time>
      </trkpt>
      <trkpt lat="45.61094" lon="1.95684">
        <ele>716.3</ele>
        <time>2022-08-03T14:28:54Z</time>
      </trkpt>
      <trkpt lat="45.61086" lon="1.95683">
        <ele>716.8</ele>
        <time>2022-08-03T14:28:56Z</time>
      </trkpt>
      <trkpt lat="45.61077" lon="1.95682">
        <ele>717.1</ele>
        <time>2022-08-03T14:28:58Z</time>
      </trkpt>
      <trkpt lat="45.61069" lon="1.9568">
        <ele>717.2</ele>
        <time>2022-08-03T14:29:00Z</time>
      </trkpt>
      <trkpt lat="45.61062" lon="1.95679">
        <ele>717.3</ele>
        <time>2022-08-03T14:29:02Z</time>
      </trkpt>
      <trkpt lat="45.61054" lon="1.95678">
        <ele>717.3</ele>
        <time>2022-08-03T14:29:04Z</time>
      </trkpt>
      <trkpt lat="45.61047" lon="1.95677">
        <ele>717.4</ele>
        <time>2022-08-03T14:29:06Z</time>
      </trkpt>
      <trkpt lat="45.6104" lon="1.95676">
        <ele>717.5</ele>
        <time>2022-08-03T14:29:08Z</time>
      </trkpt>
      <trkpt lat="45.61032" lon="1.95674">
        <ele>717.6</ele>
        <time>2022-08-03T14:29:10Z</time>
      </trkpt>
      <trkpt lat="45.61025" lon="1.95673">
        <ele>717.7</ele>
        <time>2022-08-03T14:29:12Z</time>
      </trkpt>
      <trkpt lat="45.61018" lon="1.95672">
        <ele>717.8</ele>
        <time>2022-08-03T14:29:14Z</time>
      </trkpt>
      <trkpt lat="45.61011" lon="1.9567">
        <ele>717.9</ele>
        <time>2022-08-03T14:29:16Z</time>
      </trkpt>
      <trkpt lat="45.61003" lon="1.95669">
        <ele>718</ele>
        <time>2022-08-03T14:29:18Z</time>
      </trkpt>
      <trkpt lat="45.60996" lon="1.95668">
        <ele>718</ele>
        <time>2022-08-03T14:29:20Z</time>
      </trkpt>
      <trkpt lat="45.6099" lon="1.95667">
        <ele>717.9</ele>
        <time>2022-08-03T14:29:22Z</time>
      </trkpt>
      <trkpt lat="45.60984" lon="1.95665">
        <ele>717.9</ele>
        <time>2022-08-03T14:29:24Z</time>
      </trkpt>
      <trkpt lat="45.60978" lon="1.95663">
        <ele>717.9</ele>
        <time>2022-08-03T14:29:26Z</time>
      </trkpt>
      <trkpt lat="45.60972" lon="1.95661">
        <ele>718</ele>
        <time>2022-08-03T14:29:28Z</time>
      </trkpt>
      <trkpt lat="45.60967" lon="1.95658">
        <ele>718.1</ele>
        <time>2022-08-03T14:29:30Z</time>
      </trkpt>
      <trkpt lat="45.60962" lon="1.95653">
        <ele>718.3</ele>
        <time>2022-08-03T14:29:32Z</time>
      </trkpt>
      <trkpt lat="45.60956" lon="1.95649">
        <ele>718.4</ele>
        <time>2022-08-03T14:29:34Z</time>
      </trkpt>
      <trkpt lat="45.60951" lon="1.95645">
        <ele>718.6</ele>
        <time>2022-08-03T14:29:36Z</time>
      </trkpt>
      <trkpt lat="45.60946" lon="1.9564">
        <ele>718.7</ele>
        <time>2022-08-03T14:29:38Z</time>
      </trkpt>
      <trkpt lat="45.60941" lon="1.95635">
        <ele>718.9</ele>
        <time>2022-08-03T14:29:40Z</time>
      </trkpt>
      <trkpt lat="45.60936" lon="1.9563">
        <ele>719.1</ele>
        <time>2022-08-03T14:29:42Z</time>
      </trkpt>
      <trkpt lat="45.60932" lon="1.95625">
        <ele>719.3</ele>
        <time>2022-08-03T14:29:44Z</time>
      </trkpt>
      <trkpt lat="45.60928" lon="1.95619">
        <ele>719.5</ele>
        <time>2022-08-03T14:29:46Z</time>
      </trkpt>
      <trkpt lat="45.60923" lon="1.95613">
        <ele>719.7</ele>
        <time>2022-08-03T14:29:48Z</time>
      </trkpt>
      <trkpt lat="45.6092" lon="1.95605">
        <ele>720</ele>
        <time>2022-08-03T14:29:50Z</time>
      </trkpt>
      <trkpt lat="45.60916" lon="1.95598">
        <ele>720.3</ele>
        <time>2022-08-03T14:29:52Z</time>
      </trkpt>
      <trkpt lat="45.60912" lon="1.95591">
        <ele>720.5</ele>
        <time>2022-08-03T14:29:54Z</time>
      </trkpt>
      <trkpt lat="45.60909" lon="1.95584">
        <ele>720.7</ele>
        <time>2022-08-03T14:29:56Z</time>
      </trkpt>
      <trkpt lat="45.60905" lon="1.95576">
        <ele>720.9</ele>
        <time>2022-08-03T14:29:58Z</time>
      </trkpt>
      <trkpt lat="45.60901" lon="1.95568">
        <ele>721.1</ele>
        <time>2022-08-03T14:30:00Z</time>
      </trkpt>
      <trkpt lat="45.60898" lon="1.9556">
        <ele>721.3</ele>
        <time>2022-08-03T14:30:02Z</time>
      </trkpt>
      <trkpt lat="45.60894" lon="1.95553">
        <ele>721.4</ele>
        <time>2022-08-03T14:30:04Z</time>
      </trkpt>
      <trkpt lat="45.6089" lon="1.95546">
        <ele>721.5</ele>
        <time>2022-08-03T14:30:06Z</time>
      </trkpt>
      <trkpt lat="45.60885" lon="1.9554">
        <ele>721.5</ele>
        <time>2022-08-03T14:30:08Z</time>
      </trkpt>
      <trkpt lat="45.6088" lon="1.95534">
        <ele>721.5</ele>
        <time>2022-08-03T14:30:10Z</time>
      </trkpt>
      <trkpt lat="45.60876" lon="1.95528">
        <ele>721.6</ele>
        <time>2022-08-03T14:30:12Z</time>
      </trkpt>
      <trkpt lat="45.60871" lon="1.95522">
        <ele>721.5</ele>
        <time>2022-08-03T14:30:14Z</time>
      </trkpt>
      <trkpt lat="45.60867" lon="1.95516">
        <ele>721.5</ele>
        <time>2022-08-03T14:30:16Z</time>
      </trkpt>
      <trkpt lat="45.60863" lon="1.9551">
        <ele>721.4</ele>
        <time>2022-08-03T14:30:18Z</time>
      </trkpt>
      <trkpt lat="45.60858" lon="1.95504">
        <ele>721.3</ele>
        <time>2022-08-03T14:30:20Z</time>
      </trkpt>
      <trkpt lat="45.60853" lon="1.95498">
        <ele>721.3</ele>
        <time>2022-08-03T14:30:22Z</time>
      </trkpt>
      <trkpt lat="45.60848" lon="1.95492">
        <ele>721.4</ele>
        <time>2022-08-03T14:30:24Z</time>
      </trkpt>
      <trkpt lat="45.60844" lon="1.95486">
        <ele>721.5</ele>
        <time>2022-08-03T14:30:26Z</time>
      </trkpt>
      <trkpt lat="45.60838" lon="1.9548">
        <ele>721.6</ele>
        <time>2022-08-03T14:30:28Z</time>
      </trkpt>
      <trkpt lat="45.60833" lon="1.95473">
        <ele>721.6</ele>
        <time>2022-08-03T14:30:30Z</time>
      </trkpt>
      <trkpt lat="45.60828" lon="1.95465">
        <ele>721.9</ele>
        <time>2022-08-03T14:30:32Z</time>
      </trkpt>
      <trkpt lat="45.60823" lon="1.95458">
        <ele>722.1</ele>
        <time>2022-08-03T14:30:34Z</time>
      </trkpt>
      <trkpt lat="45.60817" lon="1.9545">
        <ele>722.3</ele>
        <time>2022-08-03T14:30:36Z</time>
      </trkpt>
      <trkpt lat="45.60813" lon="1.9544">
        <ele>722.6</ele>
        <time>2022-08-03T14:30:38Z</time>
      </trkpt>
      <trkpt lat="45.60809" lon="1.95431">
        <ele>722.8</ele>
        <time>2022-08-03T14:30:40Z</time>
      </trkpt>
      <trkpt lat="45.60803" lon="1.95422">
        <ele>723</ele>
        <time>2022-08-03T14:30:42Z</time>
      </trkpt>
      <trkpt lat="45.60798" lon="1.95411">
        <ele>723.4</ele>
        <time>2022-08-03T14:30:44Z</time>
      </trkpt>
      <trkpt lat="45.60792" lon="1.954">
        <ele>723.7</ele>
        <time>2022-08-03T14:30:46Z</time>
      </trkpt>
      <trkpt lat="45.60785" lon="1.95387">
        <ele>723.9</ele>
        <time>2022-08-03T14:30:48Z</time>
      </trkpt>
      <trkpt lat="45.60778" lon="1.95373">
        <ele>724.2</ele>
        <time>2022-08-03T14:30:50Z</time>
      </trkpt>
      <trkpt lat="45.60772" lon="1.95358">
        <ele>724.2</ele>
        <time>2022-08-03T14:30:52Z</time>
      </trkpt>
      <trkpt lat="45.60764" lon="1.95344">
        <ele>723.7</ele>
        <time>2022-08-03T14:30:54Z</time>
      </trkpt>
      <trkpt lat="45.60756" lon="1.95328">
        <ele>723.2</ele>
        <time>2022-08-03T14:30:56Z</time>
      </trkpt>
      <trkpt lat="45.60748" lon="1.95313">
        <ele>722.9</ele>
        <time>2022-08-03T14:30:58Z</time>
      </trkpt>
      <trkpt lat="45.60742" lon="1.95297">
        <ele>723.3</ele>
        <time>2022-08-03T14:31:00Z</time>
      </trkpt>
      <trkpt lat="45.60735" lon="1.95279">
        <ele>723.5</ele>
        <time>2022-08-03T14:31:02Z</time>
      </trkpt>
      <trkpt lat="45.6073" lon="1.95263">
        <ele>723.5</ele>
        <time>2022-08-03T14:31:04Z</time>
      </trkpt>
      <trkpt lat="45.60723" lon="1.95245">
        <ele>723</ele>
        <time>2022-08-03T14:31:06Z</time>
      </trkpt>
      <trkpt lat="45.60716" lon="1.95227">
        <ele>721.8</ele>
        <time>2022-08-03T14:31:08Z</time>
      </trkpt>
      <trkpt lat="45.6071" lon="1.95209">
        <ele>720.7</ele>
        <time>2022-08-03T14:31:10Z</time>
      </trkpt>
      <trkpt lat="45.60706" lon="1.95189">
        <ele>719.8</ele>
        <time>2022-08-03T14:31:12Z</time>
      </trkpt>
      <trkpt lat="45.60704" lon="1.95167">
        <ele>719</ele>
        <time>2022-08-03T14:31:14Z</time>
      </trkpt>
      <trkpt lat="45.60706" lon="1.95145">
        <ele>718.3</ele>
        <time>2022-08-03T14:31:16Z</time>
      </trkpt>
      <trkpt lat="45.60707" lon="1.95122">
        <ele>717.5</ele>
        <time>2022-08-03T14:31:18Z</time>
      </trkpt>
      <trkpt lat="45.6071" lon="1.95099">
        <ele>716.9</ele>
        <time>2022-08-03T14:31:20Z</time>
      </trkpt>
      <trkpt lat="45.60712" lon="1.95075">
        <ele>715.9</ele>
        <time>2022-08-03T14:31:22Z</time>
      </trkpt>
      <trkpt lat="45.60713" lon="1.95051">
        <ele>714.3</ele>
        <time>2022-08-03T14:31:24Z</time>
      </trkpt>
      <trkpt lat="45.60711" lon="1.95028">
        <ele>712.4</ele>
        <time>2022-08-03T14:31:26Z</time>
      </trkpt>
      <trkpt lat="45.60707" lon="1.95004">
        <ele>710.2</ele>
        <time>2022-08-03T14:31:28Z</time>
      </trkpt>
      <trkpt lat="45.60702" lon="1.94983">
        <ele>708.4</ele>
        <time>2022-08-03T14:31:30Z</time>
      </trkpt>
      <trkpt lat="45.60698" lon="1.94964">
        <ele>707</ele>
        <time>2022-08-03T14:31:32Z</time>
      </trkpt>
      <trkpt lat="45.60695" lon="1.94949">
        <ele>706.1</ele>
        <time>2022-08-03T14:31:34Z</time>
      </trkpt>
      <trkpt lat="45.60693" lon="1.94936">
        <ele>705.3</ele>
        <time>2022-08-03T14:31:36Z</time>
      </trkpt>
      <trkpt lat="45.6069" lon="1.94921">
        <ele>704.5</ele>
        <time>2022-08-03T14:31:38Z</time>
      </trkpt>
      <trkpt lat="45.60688" lon="1.94908">
        <ele>704.2</ele>
        <time>2022-08-03T14:31:40Z</time>
      </trkpt>
      <trkpt lat="45.60684" lon="1.94893">
        <ele>704</ele>
        <time>2022-08-03T14:31:42Z</time>
      </trkpt>
      <trkpt lat="45.60679" lon="1.94881">
        <ele>704</ele>
        <time>2022-08-03T14:31:44Z</time>
      </trkpt>
      <trkpt lat="45.60672" lon="1.94871">
        <ele>704</ele>
        <time>2022-08-03T14:31:46Z</time>
      </trkpt>
      <trkpt lat="45.60665" lon="1.94865">
        <ele>704</ele>
        <time>2022-08-03T14:31:48Z</time>
      </trkpt>
      <trkpt lat="45.60658" lon="1.94858">
        <ele>704.3</ele>
        <time>2022-08-03T14:31:50Z</time>
      </trkpt>
      <trkpt lat="45.60652" lon="1.94853">
        <ele>704.5</ele>
        <time>2022-08-03T14:31:52Z</time>
      </trkpt>
      <trkpt lat="45.60645" lon="1.94848">
        <ele>704.7</ele>
        <time>2022-08-03T14:31:54Z</time>
      </trkpt>
      <trkpt lat="45.60638" lon="1.94843">
        <ele>704.9</ele>
        <time>2022-08-03T14:31:56Z</time>
      </trkpt>
      <trkpt lat="45.60632" lon="1.9484">
        <ele>705.2</ele>
        <time>2022-08-03T14:31:58Z</time>
      </trkpt>
      <trkpt lat="45.60626" lon="1.94835">
        <ele>705.4</ele>
        <time>2022-08-03T14:32:00Z</time>
      </trkpt>
      <trkpt lat="45.6062" lon="1.94831">
        <ele>705.8</ele>
        <time>2022-08-03T14:32:02Z</time>
      </trkpt>
      <trkpt lat="45.60614" lon="1.94826">
        <ele>706.4</ele>
        <time>2022-08-03T14:32:04Z</time>
      </trkpt>
      <trkpt lat="45.60608" lon="1.94822">
        <ele>706.9</ele>
        <time>2022-08-03T14:32:06Z</time>
      </trkpt>
      <trkpt lat="45.60601" lon="1.94817">
        <ele>707.5</ele>
        <time>2022-08-03T14:32:08Z</time>
      </trkpt>
      <trkpt lat="45.60595" lon="1.94812">
        <ele>708.1</ele>
        <time>2022-08-03T14:32:10Z</time>
      </trkpt>
      <trkpt lat="45.60589" lon="1.94807">
        <ele>708.7</ele>
        <time>2022-08-03T14:32:12Z</time>
      </trkpt>
      <trkpt lat="45.60582" lon="1.94803">
        <ele>709.1</ele>
        <time>2022-08-03T14:32:14Z</time>
      </trkpt>
      <trkpt lat="45.60576" lon="1.94798">
        <ele>709.2</ele>
        <time>2022-08-03T14:32:16Z</time>
      </trkpt>
      <trkpt lat="45.6057" lon="1.94794">
        <ele>709.2</ele>
        <time>2022-08-03T14:32:18Z</time>
      </trkpt>
      <trkpt lat="45.60564" lon="1.9479">
        <ele>709.1</ele>
        <time>2022-08-03T14:32:20Z</time>
      </trkpt>
      <trkpt lat="45.60558" lon="1.94786">
        <ele>709.1</ele>
        <time>2022-08-03T14:32:22Z</time>
      </trkpt>
      <trkpt lat="45.60553" lon="1.94782">
        <ele>709.1</ele>
        <time>2022-08-03T14:32:24Z</time>
      </trkpt>
      <trkpt lat="45.60549" lon="1.94778">
        <ele>709</ele>
        <time>2022-08-03T14:32:26Z</time>
      </trkpt>
      <trkpt lat="45.60544" lon="1.94773">
        <ele>709</ele>
        <time>2022-08-03T14:32:28Z</time>
      </trkpt>
      <trkpt lat="45.6054" lon="1.94766">
        <ele>709.1</ele>
        <time>2022-08-03T14:32:30Z</time>
      </trkpt>
      <trkpt lat="45.60536" lon="1.94759">
        <ele>709.2</ele>
        <time>2022-08-03T14:32:32Z</time>
      </trkpt>
      <trkpt lat="45.60533" lon="1.94752">
        <ele>709.3</ele>
        <time>2022-08-03T14:32:34Z</time>
      </trkpt>
      <trkpt lat="45.6053" lon="1.94744">
        <ele>709.7</ele>
        <time>2022-08-03T14:32:36Z</time>
      </trkpt>
      <trkpt lat="45.60527" lon="1.94738">
        <ele>710.2</ele>
        <time>2022-08-03T14:32:38Z</time>
      </trkpt>
      <trkpt lat="45.60524" lon="1.94731">
        <ele>710.7</ele>
        <time>2022-08-03T14:32:40Z</time>
      </trkpt>
      <trkpt lat="45.60521" lon="1.94723">
        <ele>711.3</ele>
        <time>2022-08-03T14:32:42Z</time>
      </trkpt>
      <trkpt lat="45.60518" lon="1.94715">
        <ele>712</ele>
        <time>2022-08-03T14:32:44Z</time>
      </trkpt>
      <trkpt lat="45.60514" lon="1.94708">
        <ele>712.7</ele>
        <time>2022-08-03T14:32:46Z</time>
      </trkpt>
      <trkpt lat="45.6051" lon="1.947">
        <ele>713.4</ele>
        <time>2022-08-03T14:32:48Z</time>
      </trkpt>
      <trkpt lat="45.60507" lon="1.94692">
        <ele>714.1</ele>
        <time>2022-08-03T14:32:50Z</time>
      </trkpt>
      <trkpt lat="45.60504" lon="1.94686">
        <ele>714.8</ele>
        <time>2022-08-03T14:32:52Z</time>
      </trkpt>
      <trkpt lat="45.60501" lon="1.94678">
        <ele>715.6</ele>
        <time>2022-08-03T14:32:54Z</time>
      </trkpt>
      <trkpt lat="45.60498" lon="1.94672">
        <ele>716.3</ele>
        <time>2022-08-03T14:32:56Z</time>
      </trkpt>
      <trkpt lat="45.60495" lon="1.94665">
        <ele>716.8</ele>
        <time>2022-08-03T14:32:58Z</time>
      </trkpt>
      <trkpt lat="45.60491" lon="1.94659">
        <ele>717.4</ele>
        <time>2022-08-03T14:33:00Z</time>
      </trkpt>
      <trkpt lat="45.60488" lon="1.94654">
        <ele>718</ele>
        <time>2022-08-03T14:33:02Z</time>
      </trkpt>
      <trkpt lat="45.60485" lon="1.94649">
        <ele>718.6</ele>
        <time>2022-08-03T14:33:04Z</time>
      </trkpt>
      <trkpt lat="45.60481" lon="1.94644">
        <ele>719</ele>
        <time>2022-08-03T14:33:06Z</time>
      </trkpt>
      <trkpt lat="45.60475" lon="1.9464">
        <ele>719.5</ele>
        <time>2022-08-03T14:33:08Z</time>
      </trkpt>
      <trkpt lat="45.6047" lon="1.94636">
        <ele>720</ele>
        <time>2022-08-03T14:33:10Z</time>
      </trkpt>
      <trkpt lat="45.60465" lon="1.94633">
        <ele>720.3</ele>
        <time>2022-08-03T14:33:12Z</time>
      </trkpt>
      <trkpt lat="45.6046" lon="1.94631">
        <ele>720.5</ele>
        <time>2022-08-03T14:33:14Z</time>
      </trkpt>
      <trkpt lat="45.60455" lon="1.9463">
        <ele>720.6</ele>
        <time>2022-08-03T14:33:16Z</time>
      </trkpt>
      <trkpt lat="45.60449" lon="1.94628">
        <ele>720.7</ele>
        <time>2022-08-03T14:33:18Z</time>
      </trkpt>
      <trkpt lat="45.60444" lon="1.94627">
        <ele>720.9</ele>
        <time>2022-08-03T14:33:20Z</time>
      </trkpt>
      <trkpt lat="45.60439" lon="1.94625">
        <ele>721.1</ele>
        <time>2022-08-03T14:33:22Z</time>
      </trkpt>
      <trkpt lat="45.60433" lon="1.94623">
        <ele>721.4</ele>
        <time>2022-08-03T14:33:24Z</time>
      </trkpt>
      <trkpt lat="45.60428" lon="1.9462">
        <ele>721.8</ele>
        <time>2022-08-03T14:33:26Z</time>
      </trkpt>
      <trkpt lat="45.60422" lon="1.94617">
        <ele>722.4</ele>
        <time>2022-08-03T14:33:28Z</time>
      </trkpt>
      <trkpt lat="45.60417" lon="1.94614">
        <ele>723.1</ele>
        <time>2022-08-03T14:33:30Z</time>
      </trkpt>
      <trkpt lat="45.60411" lon="1.94611">
        <ele>723</ele>
        <time>2022-08-03T14:33:32Z</time>
      </trkpt>
      <trkpt lat="45.60406" lon="1.94608">
        <ele>722.9</ele>
        <time>2022-08-03T14:33:34Z</time>
      </trkpt>
      <trkpt lat="45.60401" lon="1.94604">
        <ele>722.9</ele>
        <time>2022-08-03T14:33:36Z</time>
      </trkpt>
      <trkpt lat="45.60396" lon="1.946">
        <ele>722.9</ele>
        <time>2022-08-03T14:33:38Z</time>
      </trkpt>
      <trkpt lat="45.60391" lon="1.94597">
        <ele>722.9</ele>
        <time>2022-08-03T14:33:40Z</time>
      </trkpt>
      <trkpt lat="45.60386" lon="1.94593">
        <ele>722.9</ele>
        <time>2022-08-03T14:33:42Z</time>
      </trkpt>
      <trkpt lat="45.60381" lon="1.94589">
        <ele>722.9</ele>
        <time>2022-08-03T14:33:44Z</time>
      </trkpt>
      <trkpt lat="45.60377" lon="1.94585">
        <ele>722.9</ele>
        <time>2022-08-03T14:33:46Z</time>
      </trkpt>
      <trkpt lat="45.60372" lon="1.94581">
        <ele>722.8</ele>
        <time>2022-08-03T14:33:48Z</time>
      </trkpt>
      <trkpt lat="45.60367" lon="1.94577">
        <ele>722.6</ele>
        <time>2022-08-03T14:33:50Z</time>
      </trkpt>
      <trkpt lat="45.60362" lon="1.94573">
        <ele>722.4</ele>
        <time>2022-08-03T14:33:52Z</time>
      </trkpt>
      <trkpt lat="45.60358" lon="1.9457">
        <ele>722.2</ele>
        <time>2022-08-03T14:33:54Z</time>
      </trkpt>
      <trkpt lat="45.60354" lon="1.94565">
        <ele>722.3</ele>
        <time>2022-08-03T14:33:56Z</time>
      </trkpt>
      <trkpt lat="45.6035" lon="1.94561">
        <ele>722.4</ele>
        <time>2022-08-03T14:33:58Z</time>
      </trkpt>
      <trkpt lat="45.60346" lon="1.94556">
        <ele>722.6</ele>
        <time>2022-08-03T14:34:00Z</time>
      </trkpt>
      <trkpt lat="45.60344" lon="1.94551">
        <ele>723</ele>
        <time>2022-08-03T14:34:02Z</time>
      </trkpt>
      <trkpt lat="45.60341" lon="1.94545">
        <ele>723.5</ele>
        <time>2022-08-03T14:34:04Z</time>
      </trkpt>
      <trkpt lat="45.60338" lon="1.9454">
        <ele>724</ele>
        <time>2022-08-03T14:34:06Z</time>
      </trkpt>
      <trkpt lat="45.60335" lon="1.94534">
        <ele>724.6</ele>
        <time>2022-08-03T14:34:08Z</time>
      </trkpt>
      <trkpt lat="45.60332" lon="1.94528">
        <ele>725.2</ele>
        <time>2022-08-03T14:34:10Z</time>
      </trkpt>
      <trkpt lat="45.6033" lon="1.94524">
        <ele>725.8</ele>
        <time>2022-08-03T14:34:12Z</time>
      </trkpt>
      <trkpt lat="45.60326" lon="1.9452">
        <ele>726.2</ele>
        <time>2022-08-03T14:34:14Z</time>
      </trkpt>
      <trkpt lat="45.60324" lon="1.94516">
        <ele>726.7</ele>
        <time>2022-08-03T14:34:16Z</time>
      </trkpt>
      <trkpt lat="45.6032" lon="1.94513">
        <ele>726.9</ele>
        <time>2022-08-03T14:34:18Z</time>
      </trkpt>
      <trkpt lat="45.60316" lon="1.9451">
        <ele>727</ele>
        <time>2022-08-03T14:34:20Z</time>
      </trkpt>
      <trkpt lat="45.60312" lon="1.94508">
        <ele>727</ele>
        <time>2022-08-03T14:34:22Z</time>
      </trkpt>
      <trkpt lat="45.60308" lon="1.94506">
        <ele>726.9</ele>
        <time>2022-08-03T14:34:24Z</time>
      </trkpt>
      <trkpt lat="45.60304" lon="1.94505">
        <ele>726.8</ele>
        <time>2022-08-03T14:34:26Z</time>
      </trkpt>
      <trkpt lat="45.603" lon="1.94503">
        <ele>726.7</ele>
        <time>2022-08-03T14:34:28Z</time>
      </trkpt>
      <trkpt lat="45.60296" lon="1.945">
        <ele>726.8</ele>
        <time>2022-08-03T14:34:30Z</time>
      </trkpt>
      <trkpt lat="45.60292" lon="1.94497">
        <ele>726.7</ele>
        <time>2022-08-03T14:34:32Z</time>
      </trkpt>
      <trkpt lat="45.60288" lon="1.94493">
        <ele>726.7</ele>
        <time>2022-08-03T14:34:34Z</time>
      </trkpt>
      <trkpt lat="45.60285" lon="1.94489">
        <ele>726.6</ele>
        <time>2022-08-03T14:34:36Z</time>
      </trkpt>
      <trkpt lat="45.60281" lon="1.94485">
        <ele>726.6</ele>
        <time>2022-08-03T14:34:38Z</time>
      </trkpt>
      <trkpt lat="45.60279" lon="1.9448">
        <ele>726.8</ele>
        <time>2022-08-03T14:34:40Z</time>
      </trkpt>
      <trkpt lat="45.60276" lon="1.94474">
        <ele>726.9</ele>
        <time>2022-08-03T14:34:42Z</time>
      </trkpt>
      <trkpt lat="45.60274" lon="1.9447">
        <ele>727.1</ele>
        <time>2022-08-03T14:34:44Z</time>
      </trkpt>
      <trkpt lat="45.60272" lon="1.94463">
        <ele>727.3</ele>
        <time>2022-08-03T14:34:46Z</time>
      </trkpt>
      <trkpt lat="45.60269" lon="1.94458">
        <ele>727.5</ele>
        <time>2022-08-03T14:34:48Z</time>
      </trkpt>
      <trkpt lat="45.60267" lon="1.94453">
        <ele>727.7</ele>
        <time>2022-08-03T14:34:50Z</time>
      </trkpt>
      <trkpt lat="45.60265" lon="1.94448">
        <ele>727.9</ele>
        <time>2022-08-03T14:34:52Z</time>
      </trkpt>
      <trkpt lat="45.60263" lon="1.94442">
        <ele>728.1</ele>
        <time>2022-08-03T14:34:54Z</time>
      </trkpt>
      <trkpt lat="45.60261" lon="1.94437">
        <ele>728.3</ele>
        <time>2022-08-03T14:34:56Z</time>
      </trkpt>
      <trkpt lat="45.60258" lon="1.94432">
        <ele>728.5</ele>
        <time>2022-08-03T14:34:58Z</time>
      </trkpt>
      <trkpt lat="45.60256" lon="1.94427">
        <ele>728.7</ele>
        <time>2022-08-03T14:35:00Z</time>
      </trkpt>
      <trkpt lat="45.60253" lon="1.94422">
        <ele>728.8</ele>
        <time>2022-08-03T14:35:02Z</time>
      </trkpt>
      <trkpt lat="45.60251" lon="1.94418">
        <ele>729</ele>
        <time>2022-08-03T14:35:04Z</time>
      </trkpt>
      <trkpt lat="45.60249" lon="1.94413">
        <ele>729.1</ele>
        <time>2022-08-03T14:35:06Z</time>
      </trkpt>
      <trkpt lat="45.60246" lon="1.94409">
        <ele>729.4</ele>
        <time>2022-08-03T14:35:08Z</time>
      </trkpt>
      <trkpt lat="45.60244" lon="1.94404">
        <ele>729.7</ele>
        <time>2022-08-03T14:35:10Z</time>
      </trkpt>
      <trkpt lat="45.6024" lon="1.94401">
        <ele>729.9</ele>
        <time>2022-08-03T14:35:12Z</time>
      </trkpt>
      <trkpt lat="45.60237" lon="1.94398">
        <ele>730.1</ele>
        <time>2022-08-03T14:35:14Z</time>
      </trkpt>
      <trkpt lat="45.60234" lon="1.94395">
        <ele>730.2</ele>
        <time>2022-08-03T14:35:16Z</time>
      </trkpt>
      <trkpt lat="45.6023" lon="1.94392">
        <ele>730.4</ele>
        <time>2022-08-03T14:35:18Z</time>
      </trkpt>
      <trkpt lat="45.60226" lon="1.94389">
        <ele>730.5</ele>
        <time>2022-08-03T14:35:20Z</time>
      </trkpt>
      <trkpt lat="45.60222" lon="1.94387">
        <ele>730.6</ele>
        <time>2022-08-03T14:35:22Z</time>
      </trkpt>
      <trkpt lat="45.6022" lon="1.94384">
        <ele>730.7</ele>
        <time>2022-08-03T14:35:24Z</time>
      </trkpt>
      <trkpt lat="45.60216" lon="1.94383">
        <ele>730.8</ele>
        <time>2022-08-03T14:35:26Z</time>
      </trkpt>
      <trkpt lat="45.60213" lon="1.94382">
        <ele>730.8</ele>
        <time>2022-08-03T14:35:28Z</time>
      </trkpt>
      <trkpt lat="45.6021" lon="1.9438">
        <ele>730.9</ele>
        <time>2022-08-03T14:35:30Z</time>
      </trkpt>
      <trkpt lat="45.60206" lon="1.94379">
        <ele>730.9</ele>
        <time>2022-08-03T14:35:32Z</time>
      </trkpt>
      <trkpt lat="45.60203" lon="1.94376">
        <ele>730.9</ele>
        <time>2022-08-03T14:35:34Z</time>
      </trkpt>
      <trkpt lat="45.602" lon="1.94374">
        <ele>730.9</ele>
        <time>2022-08-03T14:35:36Z</time>
      </trkpt>
      <trkpt lat="45.60197" lon="1.94373">
        <ele>730.9</ele>
        <time>2022-08-03T14:35:38Z</time>
      </trkpt>
      <trkpt lat="45.60194" lon="1.9437">
        <ele>730.8</ele>
        <time>2022-08-03T14:35:40Z</time>
      </trkpt>
      <trkpt lat="45.60191" lon="1.94368">
        <ele>730.7</ele>
        <time>2022-08-03T14:35:42Z</time>
      </trkpt>
      <trkpt lat="45.60187" lon="1.94367">
        <ele>730.7</ele>
        <time>2022-08-03T14:35:44Z</time>
      </trkpt>
      <trkpt lat="45.60184" lon="1.94364">
        <ele>730.5</ele>
        <time>2022-08-03T14:35:46Z</time>
      </trkpt>
      <trkpt lat="45.60181" lon="1.94362">
        <ele>730.4</ele>
        <time>2022-08-03T14:35:48Z</time>
      </trkpt>
      <trkpt lat="45.60177" lon="1.9436">
        <ele>730.3</ele>
        <time>2022-08-03T14:35:50Z</time>
      </trkpt>
      <trkpt lat="45.60174" lon="1.94358">
        <ele>730.1</ele>
        <time>2022-08-03T14:35:52Z</time>
      </trkpt>
      <trkpt lat="45.60171" lon="1.94356">
        <ele>730</ele>
        <time>2022-08-03T14:35:54Z</time>
      </trkpt>
      <trkpt lat="45.60167" lon="1.94354">
        <ele>729.8</ele>
        <time>2022-08-03T14:35:56Z</time>
      </trkpt>
      <trkpt lat="45.60164" lon="1.94353">
        <ele>729.8</ele>
        <time>2022-08-03T14:35:58Z</time>
      </trkpt>
      <trkpt lat="45.60161" lon="1.94351">
        <ele>729.8</ele>
        <time>2022-08-03T14:36:00Z</time>
      </trkpt>
      <trkpt lat="45.60158" lon="1.94348">
        <ele>729.7</ele>
        <time>2022-08-03T14:36:02Z</time>
      </trkpt>
      <trkpt lat="45.60154" lon="1.94346">
        <ele>729.8</ele>
        <time>2022-08-03T14:36:04Z</time>
      </trkpt>
      <trkpt lat="45.60151" lon="1.94344">
        <ele>729.8</ele>
        <time>2022-08-03T14:36:06Z</time>
      </trkpt>
      <trkpt lat="45.60147" lon="1.94342">
        <ele>729.8</ele>
        <time>2022-08-03T14:36:08Z</time>
      </trkpt>
      <trkpt lat="45.60144" lon="1.94339">
        <ele>729.8</ele>
        <time>2022-08-03T14:36:10Z</time>
      </trkpt>
      <trkpt lat="45.6014" lon="1.94337">
        <ele>729.9</ele>
        <time>2022-08-03T14:36:12Z</time>
      </trkpt>
      <trkpt lat="45.60137" lon="1.94335">
        <ele>729.9</ele>
        <time>2022-08-03T14:36:14Z</time>
      </trkpt>
      <trkpt lat="45.60134" lon="1.94332">
        <ele>729.9</ele>
        <time>2022-08-03T14:36:16Z</time>
      </trkpt>
      <trkpt lat="45.6013" lon="1.9433">
        <ele>730</ele>
        <time>2022-08-03T14:36:18Z</time>
      </trkpt>
      <trkpt lat="45.60126" lon="1.94329">
        <ele>730.2</ele>
        <time>2022-08-03T14:36:20Z</time>
      </trkpt>
      <trkpt lat="45.60123" lon="1.94327">
        <ele>730.3</ele>
        <time>2022-08-03T14:36:22Z</time>
      </trkpt>
      <trkpt lat="45.60119" lon="1.94326">
        <ele>730.4</ele>
        <time>2022-08-03T14:36:24Z</time>
      </trkpt>
      <trkpt lat="45.60116" lon="1.94325">
        <ele>730.6</ele>
        <time>2022-08-03T14:36:26Z</time>
      </trkpt>
      <trkpt lat="45.60112" lon="1.94325">
        <ele>730.8</ele>
        <time>2022-08-03T14:36:28Z</time>
      </trkpt>
      <trkpt lat="45.60109" lon="1.94324">
        <ele>731</ele>
        <time>2022-08-03T14:36:30Z</time>
      </trkpt>
      <trkpt lat="45.60105" lon="1.94323">
        <ele>731.1</ele>
        <time>2022-08-03T14:36:32Z</time>
      </trkpt>
      <trkpt lat="45.60101" lon="1.94323">
        <ele>731.4</ele>
        <time>2022-08-03T14:36:34Z</time>
      </trkpt>
      <trkpt lat="45.60098" lon="1.94324">
        <ele>731.6</ele>
        <time>2022-08-03T14:36:36Z</time>
      </trkpt>
      <trkpt lat="45.60094" lon="1.94325">
        <ele>731.9</ele>
        <time>2022-08-03T14:36:38Z</time>
      </trkpt>
      <trkpt lat="45.60091" lon="1.94327">
        <ele>732.2</ele>
        <time>2022-08-03T14:36:40Z</time>
      </trkpt>
      <trkpt lat="45.60087" lon="1.94327">
        <ele>732.5</ele>
        <time>2022-08-03T14:36:42Z</time>
      </trkpt>
      <trkpt lat="45.60084" lon="1.94329">
        <ele>732.8</ele>
        <time>2022-08-03T14:36:44Z</time>
      </trkpt>
      <trkpt lat="45.6008" lon="1.94331">
        <ele>733</ele>
        <time>2022-08-03T14:36:46Z</time>
      </trkpt>
      <trkpt lat="45.60077" lon="1.94332">
        <ele>733.3</ele>
        <time>2022-08-03T14:36:48Z</time>
      </trkpt>
      <trkpt lat="45.60073" lon="1.94334">
        <ele>733.6</ele>
        <time>2022-08-03T14:36:50Z</time>
      </trkpt>
      <trkpt lat="45.60069" lon="1.94335">
        <ele>733.8</ele>
        <time>2022-08-03T14:36:52Z</time>
      </trkpt>
      <trkpt lat="45.60066" lon="1.94337">
        <ele>734.1</ele>
        <time>2022-08-03T14:36:54Z</time>
      </trkpt>
      <trkpt lat="45.60062" lon="1.94338">
        <ele>734.3</ele>
        <time>2022-08-03T14:36:56Z</time>
      </trkpt>
      <trkpt lat="45.60057" lon="1.94338">
        <ele>734.5</ele>
        <time>2022-08-03T14:36:58Z</time>
      </trkpt>
      <trkpt lat="45.60053" lon="1.94339">
        <ele>734.8</ele>
        <time>2022-08-03T14:37:00Z</time>
      </trkpt>
      <trkpt lat="45.60049" lon="1.94338">
        <ele>734.9</ele>
        <time>2022-08-03T14:37:02Z</time>
      </trkpt>
      <trkpt lat="45.60045" lon="1.94338">
        <ele>735.1</ele>
        <time>2022-08-03T14:37:04Z</time>
      </trkpt>
      <trkpt lat="45.60041" lon="1.94336">
        <ele>735.2</ele>
        <time>2022-08-03T14:37:06Z</time>
      </trkpt>
      <trkpt lat="45.60037" lon="1.94334">
        <ele>735.2</ele>
        <time>2022-08-03T14:37:08Z</time>
      </trkpt>
      <trkpt lat="45.60034" lon="1.94331">
        <ele>735.2</ele>
        <time>2022-08-03T14:37:10Z</time>
      </trkpt>
      <trkpt lat="45.6003" lon="1.94328">
        <ele>735.3</ele>
        <time>2022-08-03T14:37:12Z</time>
      </trkpt>
      <trkpt lat="45.60026" lon="1.94325">
        <ele>735.2</ele>
        <time>2022-08-03T14:37:14Z</time>
      </trkpt>
      <trkpt lat="45.60021" lon="1.94322">
        <ele>735.2</ele>
        <time>2022-08-03T14:37:16Z</time>
      </trkpt>
      <trkpt lat="45.60018" lon="1.94318">
        <ele>735.1</ele>
        <time>2022-08-03T14:37:18Z</time>
      </trkpt>
      <trkpt lat="45.60013" lon="1.94314">
        <ele>735.1</ele>
        <time>2022-08-03T14:37:20Z</time>
      </trkpt>
      <trkpt lat="45.60008" lon="1.9431">
        <ele>734.9</ele>
        <time>2022-08-03T14:37:22Z</time>
      </trkpt>
      <trkpt lat="45.60005" lon="1.94307">
        <ele>734.9</ele>
        <time>2022-08-03T14:37:24Z</time>
      </trkpt>
      <trkpt lat="45.60001" lon="1.94304">
        <ele>734.9</ele>
        <time>2022-08-03T14:37:26Z</time>
      </trkpt>
      <trkpt lat="45.59997" lon="1.943">
        <ele>734.7</ele>
        <time>2022-08-03T14:37:28Z</time>
      </trkpt>
      <trkpt lat="45.59993" lon="1.94296">
        <ele>734.6</ele>
        <time>2022-08-03T14:37:30Z</time>
      </trkpt>
      <trkpt lat="45.59988" lon="1.94292">
        <ele>734.6</ele>
        <time>2022-08-03T14:37:32Z</time>
      </trkpt>
      <trkpt lat="45.59983" lon="1.94288">
        <ele>734.6</ele>
        <time>2022-08-03T14:37:34Z</time>
      </trkpt>
      <trkpt lat="45.59978" lon="1.94284">
        <ele>734.7</ele>
        <time>2022-08-03T14:37:36Z</time>
      </trkpt>
      <trkpt lat="45.59974" lon="1.9428">
        <ele>734.8</ele>
        <time>2022-08-03T14:37:38Z</time>
      </trkpt>
      <trkpt lat="45.59969" lon="1.94275">
        <ele>734.9</ele>
        <time>2022-08-03T14:37:40Z</time>
      </trkpt>
      <trkpt lat="45.59964" lon="1.94271">
        <ele>735.1</ele>
        <time>2022-08-03T14:37:42Z</time>
      </trkpt>
      <trkpt lat="45.59959" lon="1.94266">
        <ele>735.3</ele>
        <time>2022-08-03T14:37:44Z</time>
      </trkpt>
      <trkpt lat="45.59954" lon="1.94262">
        <ele>735.7</ele>
        <time>2022-08-03T14:37:46Z</time>
      </trkpt>
      <trkpt lat="45.59949" lon="1.94257">
        <ele>736</ele>
        <time>2022-08-03T14:37:48Z</time>
      </trkpt>
      <trkpt lat="45.59944" lon="1.94253">
        <ele>736.4</ele>
        <time>2022-08-03T14:37:50Z</time>
      </trkpt>
      <trkpt lat="45.59939" lon="1.94248">
        <ele>736.8</ele>
        <time>2022-08-03T14:37:52Z</time>
      </trkpt>
      <trkpt lat="45.59933" lon="1.94244">
        <ele>737.2</ele>
        <time>2022-08-03T14:37:54Z</time>
      </trkpt>
      <trkpt lat="45.59928" lon="1.9424">
        <ele>737.5</ele>
        <time>2022-08-03T14:37:56Z</time>
      </trkpt>
      <trkpt lat="45.59922" lon="1.94235">
        <ele>737.8</ele>
        <time>2022-08-03T14:37:58Z</time>
      </trkpt>
      <trkpt lat="45.59916" lon="1.94232">
        <ele>738.2</ele>
        <time>2022-08-03T14:38:00Z</time>
      </trkpt>
      <trkpt lat="45.59911" lon="1.94226">
        <ele>738.3</ele>
        <time>2022-08-03T14:38:02Z</time>
      </trkpt>
      <trkpt lat="45.59905" lon="1.9422">
        <ele>738.5</ele>
        <time>2022-08-03T14:38:04Z</time>
      </trkpt>
      <trkpt lat="45.59899" lon="1.94216">
        <ele>738.8</ele>
        <time>2022-08-03T14:38:06Z</time>
      </trkpt>
      <trkpt lat="45.59893" lon="1.9421">
        <ele>739</ele>
        <time>2022-08-03T14:38:08Z</time>
      </trkpt>
      <trkpt lat="45.59887" lon="1.94205">
        <ele>739.4</ele>
        <time>2022-08-03T14:38:10Z</time>
      </trkpt>
      <trkpt lat="45.59881" lon="1.94199">
        <ele>739.7</ele>
        <time>2022-08-03T14:38:12Z</time>
      </trkpt>
      <trkpt lat="45.59874" lon="1.94194">
        <ele>740.1</ele>
        <time>2022-08-03T14:38:14Z</time>
      </trkpt>
      <trkpt lat="45.59869" lon="1.94189">
        <ele>740.4</ele>
        <time>2022-08-03T14:38:16Z</time>
      </trkpt>
      <trkpt lat="45.59863" lon="1.94185">
        <ele>740.8</ele>
        <time>2022-08-03T14:38:18Z</time>
      </trkpt>
      <trkpt lat="45.59857" lon="1.94179">
        <ele>741.1</ele>
        <time>2022-08-03T14:38:20Z</time>
      </trkpt>
      <trkpt lat="45.59851" lon="1.94175">
        <ele>741.5</ele>
        <time>2022-08-03T14:38:22Z</time>
      </trkpt>
      <trkpt lat="45.59845" lon="1.94169">
        <ele>741.9</ele>
        <time>2022-08-03T14:38:24Z</time>
      </trkpt>
      <trkpt lat="45.5984" lon="1.94164">
        <ele>742.1</ele>
        <time>2022-08-03T14:38:26Z</time>
      </trkpt>
      <trkpt lat="45.59834" lon="1.94158">
        <ele>742.1</ele>
        <time>2022-08-03T14:38:28Z</time>
      </trkpt>
      <trkpt lat="45.59829" lon="1.9415">
        <ele>742.1</ele>
        <time>2022-08-03T14:38:30Z</time>
      </trkpt>
      <trkpt lat="45.59824" lon="1.94143">
        <ele>742.1</ele>
        <time>2022-08-03T14:38:32Z</time>
      </trkpt>
      <trkpt lat="45.59819" lon="1.94135">
        <ele>742.1</ele>
        <time>2022-08-03T14:38:34Z</time>
      </trkpt>
      <trkpt lat="45.59815" lon="1.94129">
        <ele>742.1</ele>
        <time>2022-08-03T14:38:36Z</time>
      </trkpt>
      <trkpt lat="45.5981" lon="1.94123">
        <ele>742.2</ele>
        <time>2022-08-03T14:38:38Z</time>
      </trkpt>
      <trkpt lat="45.59804" lon="1.94119">
        <ele>742.6</ele>
        <time>2022-08-03T14:38:40Z</time>
      </trkpt>
      <trkpt lat="45.598" lon="1.94115">
        <ele>742.7</ele>
        <time>2022-08-03T14:38:42Z</time>
      </trkpt>
      <trkpt lat="45.59796" lon="1.94112">
        <ele>743</ele>
        <time>2022-08-03T14:38:44Z</time>
      </trkpt>
      <trkpt lat="45.59792" lon="1.94109">
        <ele>743.3</ele>
        <time>2022-08-03T14:38:46Z</time>
      </trkpt>
      <trkpt lat="45.59788" lon="1.94107">
        <ele>743.6</ele>
        <time>2022-08-03T14:38:48Z</time>
      </trkpt>
      <trkpt lat="45.59787" lon="1.94101">
        <ele>743.1</ele>
        <time>2022-08-03T14:38:50Z</time>
      </trkpt>
      <trkpt lat="45.59786" lon="1.94101">
        <ele>743.2</ele>
        <time>2022-08-03T14:38:52Z</time>
      </trkpt>
      <trkpt lat="45.59785" lon="1.94101">
        <ele>743.3</ele>
        <time>2022-08-03T14:38:54Z</time>
      </trkpt>
      <trkpt lat="45.59785" lon="1.94102">
        <ele>743.4</ele>
        <time>2022-08-03T14:38:56Z</time>
      </trkpt>
      <trkpt lat="45.59785" lon="1.94102">
        <ele>743.4</ele>
        <time>2022-08-03T14:38:58Z</time>
      </trkpt>
      <trkpt lat="45.59773" lon="1.94096">
        <ele>744.4</ele>
        <time>2022-08-03T14:40:20Z</time>
      </trkpt>
      <trkpt lat="45.5977" lon="1.94088">
        <ele>743.9</ele>
        <time>2022-08-03T14:40:22Z</time>
      </trkpt>
      <trkpt lat="45.59767" lon="1.94081">
        <ele>743.6</ele>
        <time>2022-08-03T14:40:24Z</time>
      </trkpt>
      <trkpt lat="45.59764" lon="1.94071">
        <ele>743.3</ele>
        <time>2022-08-03T14:40:26Z</time>
      </trkpt>
      <trkpt lat="45.5976" lon="1.9406">
        <ele>742.9</ele>
        <time>2022-08-03T14:40:28Z</time>
      </trkpt>
      <trkpt lat="45.59756" lon="1.94049">
        <ele>742.5</ele>
        <time>2022-08-03T14:40:30Z</time>
      </trkpt>
      <trkpt lat="45.59753" lon="1.94037">
        <ele>741.8</ele>
        <time>2022-08-03T14:40:32Z</time>
      </trkpt>
      <trkpt lat="45.59749" lon="1.94024">
        <ele>741.1</ele>
        <time>2022-08-03T14:40:34Z</time>
      </trkpt>
      <trkpt lat="45.59746" lon="1.94012">
        <ele>740.6</ele>
        <time>2022-08-03T14:40:36Z</time>
      </trkpt>
      <trkpt lat="45.59742" lon="1.93999">
        <ele>740</ele>
        <time>2022-08-03T14:40:38Z</time>
      </trkpt>
      <trkpt lat="45.59738" lon="1.93988">
        <ele>740</ele>
        <time>2022-08-03T14:40:40Z</time>
      </trkpt>
      <trkpt lat="45.59735" lon="1.93976">
        <ele>740.1</ele>
        <time>2022-08-03T14:40:42Z</time>
      </trkpt>
      <trkpt lat="45.59731" lon="1.93965">
        <ele>740.1</ele>
        <time>2022-08-03T14:40:44Z</time>
      </trkpt>
      <trkpt lat="45.59726" lon="1.93954">
        <ele>740.1</ele>
        <time>2022-08-03T14:40:46Z</time>
      </trkpt>
      <trkpt lat="45.59722" lon="1.93944">
        <ele>740.1</ele>
        <time>2022-08-03T14:40:48Z</time>
      </trkpt>
      <trkpt lat="45.59717" lon="1.93934">
        <ele>740.1</ele>
        <time>2022-08-03T14:40:50Z</time>
      </trkpt>
      <trkpt lat="45.59713" lon="1.93924">
        <ele>740</ele>
        <time>2022-08-03T14:40:52Z</time>
      </trkpt>
      <trkpt lat="45.59708" lon="1.93916">
        <ele>740</ele>
        <time>2022-08-03T14:40:54Z</time>
      </trkpt>
      <trkpt lat="45.59702" lon="1.93907">
        <ele>739.9</ele>
        <time>2022-08-03T14:40:56Z</time>
      </trkpt>
      <trkpt lat="45.59696" lon="1.93899">
        <ele>739.8</ele>
        <time>2022-08-03T14:40:58Z</time>
      </trkpt>
      <trkpt lat="45.59689" lon="1.93891">
        <ele>739.6</ele>
        <time>2022-08-03T14:41:00Z</time>
      </trkpt>
      <trkpt lat="45.59683" lon="1.93883">
        <ele>739.3</ele>
        <time>2022-08-03T14:41:02Z</time>
      </trkpt>
      <trkpt lat="45.59677" lon="1.93874">
        <ele>739</ele>
        <time>2022-08-03T14:41:04Z</time>
      </trkpt>
      <trkpt lat="45.59671" lon="1.93866">
        <ele>738.6</ele>
        <time>2022-08-03T14:41:06Z</time>
      </trkpt>
      <trkpt lat="45.59664" lon="1.93857">
        <ele>738.2</ele>
        <time>2022-08-03T14:41:08Z</time>
      </trkpt>
      <trkpt lat="45.59658" lon="1.93849">
        <ele>738.1</ele>
        <time>2022-08-03T14:41:10Z</time>
      </trkpt>
      <trkpt lat="45.59651" lon="1.9384">
        <ele>738.1</ele>
        <time>2022-08-03T14:41:12Z</time>
      </trkpt>
      <trkpt lat="45.59645" lon="1.93829">
        <ele>737.9</ele>
        <time>2022-08-03T14:41:14Z</time>
      </trkpt>
      <trkpt lat="45.59638" lon="1.93819">
        <ele>738.2</ele>
        <time>2022-08-03T14:41:16Z</time>
      </trkpt>
      <trkpt lat="45.59633" lon="1.93807">
        <ele>738.4</ele>
        <time>2022-08-03T14:41:18Z</time>
      </trkpt>
      <trkpt lat="45.59628" lon="1.93794">
        <ele>738.5</ele>
        <time>2022-08-03T14:41:20Z</time>
      </trkpt>
      <trkpt lat="45.59623" lon="1.9378">
        <ele>738.6</ele>
        <time>2022-08-03T14:41:22Z</time>
      </trkpt>
      <trkpt lat="45.59619" lon="1.93764">
        <ele>738.6</ele>
        <time>2022-08-03T14:41:24Z</time>
      </trkpt>
      <trkpt lat="45.59615" lon="1.93748">
        <ele>738.5</ele>
        <time>2022-08-03T14:41:26Z</time>
      </trkpt>
      <trkpt lat="45.59612" lon="1.9373">
        <ele>738.4</ele>
        <time>2022-08-03T14:41:28Z</time>
      </trkpt>
      <trkpt lat="45.59611" lon="1.93713">
        <ele>738.1</ele>
        <time>2022-08-03T14:41:30Z</time>
      </trkpt>
      <trkpt lat="45.59611" lon="1.93693">
        <ele>737.7</ele>
        <time>2022-08-03T14:41:32Z</time>
      </trkpt>
      <trkpt lat="45.59611" lon="1.93674">
        <ele>737.2</ele>
        <time>2022-08-03T14:41:34Z</time>
      </trkpt>
      <trkpt lat="45.59612" lon="1.93654">
        <ele>736.6</ele>
        <time>2022-08-03T14:41:36Z</time>
      </trkpt>
      <trkpt lat="45.59614" lon="1.93633">
        <ele>735.7</ele>
        <time>2022-08-03T14:41:38Z</time>
      </trkpt>
      <trkpt lat="45.59616" lon="1.93612">
        <ele>734.8</ele>
        <time>2022-08-03T14:41:40Z</time>
      </trkpt>
      <trkpt lat="45.59617" lon="1.9359">
        <ele>734</ele>
        <time>2022-08-03T14:41:42Z</time>
      </trkpt>
      <trkpt lat="45.59619" lon="1.93567">
        <ele>733.4</ele>
        <time>2022-08-03T14:41:44Z</time>
      </trkpt>
      <trkpt lat="45.5962" lon="1.93544">
        <ele>733.1</ele>
        <time>2022-08-03T14:41:46Z</time>
      </trkpt>
      <trkpt lat="45.59622" lon="1.93521">
        <ele>732.6</ele>
        <time>2022-08-03T14:41:48Z</time>
      </trkpt>
      <trkpt lat="45.59625" lon="1.93497">
        <ele>732</ele>
        <time>2022-08-03T14:41:50Z</time>
      </trkpt>
      <trkpt lat="45.59628" lon="1.93475">
        <ele>731.3</ele>
        <time>2022-08-03T14:41:52Z</time>
      </trkpt>
      <trkpt lat="45.59631" lon="1.93453">
        <ele>730.6</ele>
        <time>2022-08-03T14:41:54Z</time>
      </trkpt>
      <trkpt lat="45.59635" lon="1.93432">
        <ele>730.1</ele>
        <time>2022-08-03T14:41:56Z</time>
      </trkpt>
      <trkpt lat="45.59638" lon="1.9341">
        <ele>729.6</ele>
        <time>2022-08-03T14:41:58Z</time>
      </trkpt>
      <trkpt lat="45.59641" lon="1.93387">
        <ele>729</ele>
        <time>2022-08-03T14:42:00Z</time>
      </trkpt>
      <trkpt lat="45.59644" lon="1.93365">
        <ele>728.6</ele>
        <time>2022-08-03T14:42:02Z</time>
      </trkpt>
      <trkpt lat="45.59645" lon="1.93344">
        <ele>728.3</ele>
        <time>2022-08-03T14:42:04Z</time>
      </trkpt>
      <trkpt lat="45.59646" lon="1.9332">
        <ele>728</ele>
        <time>2022-08-03T14:42:06Z</time>
      </trkpt>
      <trkpt lat="45.59645" lon="1.93295">
        <ele>727.6</ele>
        <time>2022-08-03T14:42:08Z</time>
      </trkpt>
      <trkpt lat="45.59646" lon="1.93271">
        <ele>727.1</ele>
        <time>2022-08-03T14:42:10Z</time>
      </trkpt>
      <trkpt lat="45.59646" lon="1.93245">
        <ele>726.6</ele>
        <time>2022-08-03T14:42:12Z</time>
      </trkpt>
      <trkpt lat="45.59646" lon="1.93222">
        <ele>725.6</ele>
        <time>2022-08-03T14:42:14Z</time>
      </trkpt>
      <trkpt lat="45.59642" lon="1.93198">
        <ele>724.2</ele>
        <time>2022-08-03T14:42:16Z</time>
      </trkpt>
      <trkpt lat="45.59647" lon="1.93176">
        <ele>723.7</ele>
        <time>2022-08-03T14:42:18Z</time>
      </trkpt>
      <trkpt lat="45.59649" lon="1.93153">
        <ele>722</ele>
        <time>2022-08-03T14:42:20Z</time>
      </trkpt>
      <trkpt lat="45.59656" lon="1.9313">
        <ele>720</ele>
        <time>2022-08-03T14:42:22Z</time>
      </trkpt>
      <trkpt lat="45.59661" lon="1.93107">
        <ele>717.9</ele>
        <time>2022-08-03T14:42:24Z</time>
      </trkpt>
      <trkpt lat="45.59666" lon="1.93082">
        <ele>715.7</ele>
        <time>2022-08-03T14:42:26Z</time>
      </trkpt>
      <trkpt lat="45.59671" lon="1.93057">
        <ele>712.8</ele>
        <time>2022-08-03T14:42:28Z</time>
      </trkpt>
      <trkpt lat="45.59676" lon="1.93034">
        <ele>710.3</ele>
        <time>2022-08-03T14:42:30Z</time>
      </trkpt>
      <trkpt lat="45.59681" lon="1.93013">
        <ele>707.9</ele>
        <time>2022-08-03T14:42:32Z</time>
      </trkpt>
      <trkpt lat="45.59685" lon="1.9299">
        <ele>705.6</ele>
        <time>2022-08-03T14:42:34Z</time>
      </trkpt>
      <trkpt lat="45.5969" lon="1.92971">
        <ele>704.3</ele>
        <time>2022-08-03T14:42:36Z</time>
      </trkpt>
      <trkpt lat="45.59694" lon="1.92953">
        <ele>702.8</ele>
        <time>2022-08-03T14:42:38Z</time>
      </trkpt>
      <trkpt lat="45.59698" lon="1.92932">
        <ele>701.1</ele>
        <time>2022-08-03T14:42:40Z</time>
      </trkpt>
      <trkpt lat="45.59703" lon="1.92909">
        <ele>699.8</ele>
        <time>2022-08-03T14:42:42Z</time>
      </trkpt>
      <trkpt lat="45.59707" lon="1.92889">
        <ele>699.5</ele>
        <time>2022-08-03T14:42:44Z</time>
      </trkpt>
      <trkpt lat="45.59712" lon="1.92868">
        <ele>699.1</ele>
        <time>2022-08-03T14:42:46Z</time>
      </trkpt>
      <trkpt lat="45.5972" lon="1.92852">
        <ele>699.4</ele>
        <time>2022-08-03T14:42:48Z</time>
      </trkpt>
      <trkpt lat="45.59727" lon="1.92837">
        <ele>699.4</ele>
        <time>2022-08-03T14:42:50Z</time>
      </trkpt>
      <trkpt lat="45.59733" lon="1.92825">
        <ele>699.5</ele>
        <time>2022-08-03T14:42:52Z</time>
      </trkpt>
      <trkpt lat="45.59738" lon="1.92813">
        <ele>699.5</ele>
        <time>2022-08-03T14:42:54Z</time>
      </trkpt>
      <trkpt lat="45.59743" lon="1.92803">
        <ele>699.5</ele>
        <time>2022-08-03T14:42:56Z</time>
      </trkpt>
      <trkpt lat="45.59748" lon="1.92793">
        <ele>699.4</ele>
        <time>2022-08-03T14:42:58Z</time>
      </trkpt>
      <trkpt lat="45.59753" lon="1.92783">
        <ele>699</ele>
        <time>2022-08-03T14:43:00Z</time>
      </trkpt>
      <trkpt lat="45.59758" lon="1.92773">
        <ele>698.5</ele>
        <time>2022-08-03T14:43:02Z</time>
      </trkpt>
      <trkpt lat="45.59762" lon="1.92765">
        <ele>698</ele>
        <time>2022-08-03T14:43:04Z</time>
      </trkpt>
      <trkpt lat="45.59766" lon="1.92758">
        <ele>697.7</ele>
        <time>2022-08-03T14:43:06Z</time>
      </trkpt>
      <trkpt lat="45.59769" lon="1.92751">
        <ele>697.3</ele>
        <time>2022-08-03T14:43:08Z</time>
      </trkpt>
      <trkpt lat="45.59772" lon="1.92744">
        <ele>697.1</ele>
        <time>2022-08-03T14:43:10Z</time>
      </trkpt>
      <trkpt lat="45.59775" lon="1.9274">
        <ele>697</ele>
        <time>2022-08-03T14:43:12Z</time>
      </trkpt>
      <trkpt lat="45.59778" lon="1.92736">
        <ele>696.9</ele>
        <time>2022-08-03T14:43:14Z</time>
      </trkpt>
      <trkpt lat="45.5978" lon="1.92738">
        <ele>697</ele>
        <time>2022-08-03T14:43:16Z</time>
      </trkpt>
      <trkpt lat="45.59781" lon="1.92737">
        <ele>697</ele>
        <time>2022-08-03T14:43:18Z</time>
      </trkpt>
      <trkpt lat="45.59781" lon="1.92736">
        <ele>697</ele>
        <time>2022-08-03T14:43:20Z</time>
      </trkpt>
      <trkpt lat="45.59781" lon="1.92736">
        <ele>697</ele>
        <time>2022-08-03T14:43:22Z</time>
      </trkpt>
      <trkpt lat="45.59781" lon="1.92737">
        <ele>697</ele>
        <time>2022-08-03T14:43:24Z</time>
      </trkpt>
      <trkpt lat="45.5977" lon="1.92742">
        <ele>697</ele>
        <time>2022-08-03T14:44:20Z</time>
      </trkpt>
      <trkpt lat="45.59768" lon="1.92747">
        <ele>697.1</ele>
        <time>2022-08-03T14:44:22Z</time>
      </trkpt>
      <trkpt lat="45.59767" lon="1.92752">
        <ele>697.3</ele>
        <time>2022-08-03T14:44:24Z</time>
      </trkpt>
      <trkpt lat="45.59765" lon="1.92756">
        <ele>697.5</ele>
        <time>2022-08-03T14:44:26Z</time>
      </trkpt>
      <trkpt lat="45.5976" lon="1.92754">
        <ele>697.4</ele>
        <time>2022-08-03T14:44:28Z</time>
      </trkpt>
      <trkpt lat="45.59754" lon="1.9275">
        <ele>697.1</ele>
        <time>2022-08-03T14:44:30Z</time>
      </trkpt>
      <trkpt lat="45.59749" lon="1.92746">
        <ele>696.8</ele>
        <time>2022-08-03T14:44:32Z</time>
      </trkpt>
      <trkpt lat="45.59744" lon="1.92744">
        <ele>696.4</ele>
        <time>2022-08-03T14:44:34Z</time>
      </trkpt>
      <trkpt lat="45.5974" lon="1.92743">
        <ele>696</ele>
        <time>2022-08-03T14:44:36Z</time>
      </trkpt>
      <trkpt lat="45.59737" lon="1.92742">
        <ele>695.8</ele>
        <time>2022-08-03T14:44:38Z</time>
      </trkpt>
      <trkpt lat="45.59734" lon="1.92738">
        <ele>695.5</ele>
        <time>2022-08-03T14:44:40Z</time>
      </trkpt>
      <trkpt lat="45.5973" lon="1.92736">
        <ele>695.1</ele>
        <time>2022-08-03T14:44:42Z</time>
      </trkpt>
      <trkpt lat="45.59726" lon="1.92734">
        <ele>694.8</ele>
        <time>2022-08-03T14:44:44Z</time>
      </trkpt>
      <trkpt lat="45.59722" lon="1.92735">
        <ele>694.6</ele>
        <time>2022-08-03T14:44:46Z</time>
      </trkpt>
      <trkpt lat="45.59721" lon="1.92738">
        <ele>694.6</ele>
        <time>2022-08-03T14:44:48Z</time>
      </trkpt>
      <trkpt lat="45.5972" lon="1.9274">
        <ele>694.5</ele>
        <time>2022-08-03T14:44:50Z</time>
      </trkpt>
      <trkpt lat="45.5972" lon="1.9274">
        <ele>694.6</ele>
        <time>2022-08-03T14:44:52Z</time>
      </trkpt>
      <trkpt lat="45.5972" lon="1.9274">
        <ele>694.6</ele>
        <time>2022-08-03T14:44:54Z</time>
      </trkpt>
      <trkpt lat="45.5972" lon="1.92741">
        <ele>694.6</ele>
        <time>2022-08-03T14:44:56Z</time>
      </trkpt>
      <trkpt lat="45.5975" lon="1.9274">
        <ele>696.6</ele>
        <time>2022-08-03T15:14:19Z</time>
      </trkpt>
      <trkpt lat="45.59747" lon="1.92731">
        <ele>696.1</ele>
        <time>2022-08-03T15:14:21Z</time>
      </trkpt>
      <trkpt lat="45.59772" lon="1.92745">
        <ele>697.1</ele>
        <time>2022-08-03T15:26:33Z</time>
      </trkpt>
      <trkpt lat="45.59776" lon="1.9274">
        <ele>697</ele>
        <time>2022-08-03T15:26:35Z</time>
      </trkpt>
      <trkpt lat="45.59779" lon="1.92732">
        <ele>696.9</ele>
        <time>2022-08-03T15:26:37Z</time>
      </trkpt>
      <trkpt lat="45.59785" lon="1.92734">
        <ele>697</ele>
        <time>2022-08-03T15:26:39Z</time>
      </trkpt>
      <trkpt lat="45.5979" lon="1.92744">
        <ele>697.3</ele>
        <time>2022-08-03T15:26:41Z</time>
      </trkpt>
      <trkpt lat="45.59792" lon="1.9275">
        <ele>697.5</ele>
        <time>2022-08-03T15:26:43Z</time>
      </trkpt>
      <trkpt lat="45.59796" lon="1.92755">
        <ele>697.8</ele>
        <time>2022-08-03T15:26:45Z</time>
      </trkpt>
      <trkpt lat="45.598" lon="1.92759">
        <ele>698.1</ele>
        <time>2022-08-03T15:26:47Z</time>
      </trkpt>
      <trkpt lat="45.59805" lon="1.9276">
        <ele>698.2</ele>
        <time>2022-08-03T15:26:49Z</time>
      </trkpt>
      <trkpt lat="45.59807" lon="1.92759">
        <ele>698.2</ele>
        <time>2022-08-03T15:26:51Z</time>
      </trkpt>
      <trkpt lat="45.5981" lon="1.92755">
        <ele>698</ele>
        <time>2022-08-03T15:26:53Z</time>
      </trkpt>
      <trkpt lat="45.59812" lon="1.92751">
        <ele>697.8</ele>
        <time>2022-08-03T15:26:55Z</time>
      </trkpt>
      <trkpt lat="45.59815" lon="1.92748">
        <ele>697.7</ele>
        <time>2022-08-03T15:26:57Z</time>
      </trkpt>
      <trkpt lat="45.59817" lon="1.92744">
        <ele>697.7</ele>
        <time>2022-08-03T15:26:59Z</time>
      </trkpt>
      <trkpt lat="45.5982" lon="1.92741">
        <ele>697.7</ele>
        <time>2022-08-03T15:27:01Z</time>
      </trkpt>
      <trkpt lat="45.59822" lon="1.92738">
        <ele>697.7</ele>
        <time>2022-08-03T15:27:03Z</time>
      </trkpt>
      <trkpt lat="45.59824" lon="1.92736">
        <ele>697.7</ele>
        <time>2022-08-03T15:27:05Z</time>
      </trkpt>
      <trkpt lat="45.59825" lon="1.92736">
        <ele>697.7</ele>
        <time>2022-08-03T15:27:07Z</time>
      </trkpt>
      <trkpt lat="45.59827" lon="1.92734">
        <ele>697.7</ele>
        <time>2022-08-03T15:27:09Z</time>
      </trkpt>
      <trkpt lat="45.59827" lon="1.92735">
        <ele>697.7</ele>
        <time>2022-08-03T15:27:11Z</time>
      </trkpt>
      <trkpt lat="45.59832" lon="1.92732">
        <ele>697.8</ele>
        <time>2022-08-03T15:27:13Z</time>
      </trkpt>
      <trkpt lat="45.59835" lon="1.92731">
        <ele>697.8</ele>
        <time>2022-08-03T15:27:15Z</time>
      </trkpt>
      <trkpt lat="45.59836" lon="1.92729">
        <ele>697.9</ele>
        <time>2022-08-03T15:27:17Z</time>
      </trkpt>
      <trkpt lat="45.59838" lon="1.92728">
        <ele>697.9</ele>
        <time>2022-08-03T15:27:19Z</time>
      </trkpt>
      <trkpt lat="45.59839" lon="1.92728">
        <ele>698</ele>
        <time>2022-08-03T15:27:21Z</time>
      </trkpt>
      <trkpt lat="45.59841" lon="1.92727">
        <ele>698.1</ele>
        <time>2022-08-03T15:27:23Z</time>
      </trkpt>
      <trkpt lat="45.5984" lon="1.92728">
        <ele>698</ele>
        <time>2022-08-03T15:27:25Z</time>
      </trkpt>
      <trkpt lat="45.5984" lon="1.92728">
        <ele>698</ele>
        <time>2022-08-03T15:27:27Z</time>
      </trkpt>
      <trkpt lat="45.59837" lon="1.92745">
        <ele>698.1</ele>
        <time>2022-08-03T15:43:49Z</time>
      </trkpt>
      <trkpt lat="45.59833" lon="1.92743">
        <ele>697.9</ele>
        <time>2022-08-03T15:43:51Z</time>
      </trkpt>
      <trkpt lat="45.5983" lon="1.9274">
        <ele>697.8</ele>
        <time>2022-08-03T15:43:53Z</time>
      </trkpt>
      <trkpt lat="45.59826" lon="1.9274">
        <ele>697.8</ele>
        <time>2022-08-03T15:43:55Z</time>
      </trkpt>
      <trkpt lat="45.59822" lon="1.92741">
        <ele>697.7</ele>
        <time>2022-08-03T15:43:57Z</time>
      </trkpt>
      <trkpt lat="45.59818" lon="1.92746">
        <ele>697.7</ele>
        <time>2022-08-03T15:43:59Z</time>
      </trkpt>
      <trkpt lat="45.59814" lon="1.92752">
        <ele>697.9</ele>
        <time>2022-08-03T15:44:01Z</time>
      </trkpt>
      <trkpt lat="45.59811" lon="1.92757">
        <ele>698.1</ele>
        <time>2022-08-03T15:44:03Z</time>
      </trkpt>
      <trkpt lat="45.59806" lon="1.92762">
        <ele>698.3</ele>
        <time>2022-08-03T15:44:05Z</time>
      </trkpt>
      <trkpt lat="45.59802" lon="1.92766">
        <ele>698.4</ele>
        <time>2022-08-03T15:44:07Z</time>
      </trkpt>
      <trkpt lat="45.59795" lon="1.92758">
        <ele>698</ele>
        <time>2022-08-03T15:44:09Z</time>
      </trkpt>
      <trkpt lat="45.59791" lon="1.92752">
        <ele>697.6</ele>
        <time>2022-08-03T15:44:11Z</time>
      </trkpt>
      <trkpt lat="45.59787" lon="1.92746">
        <ele>697.3</ele>
        <time>2022-08-03T15:44:13Z</time>
      </trkpt>
      <trkpt lat="45.59785" lon="1.92738">
        <ele>697.1</ele>
        <time>2022-08-03T15:44:15Z</time>
      </trkpt>
      <trkpt lat="45.59782" lon="1.92735">
        <ele>697</ele>
        <time>2022-08-03T15:44:17Z</time>
      </trkpt>
      <trkpt lat="45.59781" lon="1.92733">
        <ele>696.9</ele>
        <time>2022-08-03T15:44:19Z</time>
      </trkpt>
      <trkpt lat="45.59779" lon="1.9273">
        <ele>696.8</ele>
        <time>2022-08-03T15:44:21Z</time>
      </trkpt>
      <trkpt lat="45.59775" lon="1.9273">
        <ele>696.7</ele>
        <time>2022-08-03T15:44:23Z</time>
      </trkpt>
      <trkpt lat="45.59771" lon="1.92727">
        <ele>696.5</ele>
        <time>2022-08-03T15:44:25Z</time>
      </trkpt>
      <trkpt lat="45.59766" lon="1.9272">
        <ele>696.3</ele>
        <time>2022-08-03T15:44:27Z</time>
      </trkpt>
      <trkpt lat="45.5976" lon="1.92715">
        <ele>696</ele>
        <time>2022-08-03T15:44:29Z</time>
      </trkpt>
      <trkpt lat="45.59754" lon="1.92709">
        <ele>695.6</ele>
        <time>2022-08-03T15:44:31Z</time>
      </trkpt>
      <trkpt lat="45.59748" lon="1.92705">
        <ele>695.3</ele>
        <time>2022-08-03T15:44:33Z</time>
      </trkpt>
      <trkpt lat="45.59743" lon="1.92704">
        <ele>694.9</ele>
        <time>2022-08-03T15:44:35Z</time>
      </trkpt>
      <trkpt lat="45.59736" lon="1.92709">
        <ele>694.7</ele>
        <time>2022-08-03T15:44:37Z</time>
      </trkpt>
      <trkpt lat="45.5973" lon="1.92716">
        <ele>694.5</ele>
        <time>2022-08-03T15:44:39Z</time>
      </trkpt>
      <trkpt lat="45.59725" lon="1.92722">
        <ele>694.4</ele>
        <time>2022-08-03T15:44:41Z</time>
      </trkpt>
      <trkpt lat="45.59721" lon="1.92727">
        <ele>694.3</ele>
        <time>2022-08-03T15:44:43Z</time>
      </trkpt>
      <trkpt lat="45.59715" lon="1.9273">
        <ele>694</ele>
        <time>2022-08-03T15:44:45Z</time>
      </trkpt>
      <trkpt lat="45.59711" lon="1.92728">
        <ele>693.7</ele>
        <time>2022-08-03T15:44:47Z</time>
      </trkpt>
      <trkpt lat="45.597" lon="1.92732">
        <ele>693</ele>
        <time>2022-08-03T15:44:49Z</time>
      </trkpt>
      <trkpt lat="45.5969" lon="1.9273">
        <ele>692.3</ele>
        <time>2022-08-03T15:44:51Z</time>
      </trkpt>
      <trkpt lat="45.59683" lon="1.92727">
        <ele>691.8</ele>
        <time>2022-08-03T15:44:53Z</time>
      </trkpt>
      <trkpt lat="45.59675" lon="1.92726">
        <ele>691.3</ele>
        <time>2022-08-03T15:44:55Z</time>
      </trkpt>
      <trkpt lat="45.59666" lon="1.92725">
        <ele>690.7</ele>
        <time>2022-08-03T15:44:57Z</time>
      </trkpt>
      <trkpt lat="45.59657" lon="1.92726">
        <ele>690.3</ele>
        <time>2022-08-03T15:44:59Z</time>
      </trkpt>
      <trkpt lat="45.59649" lon="1.92728">
        <ele>689.9</ele>
        <time>2022-08-03T15:45:01Z</time>
      </trkpt>
      <trkpt lat="45.59642" lon="1.9273">
        <ele>689.6</ele>
        <time>2022-08-03T15:45:03Z</time>
      </trkpt>
      <trkpt lat="45.59634" lon="1.92732">
        <ele>689.2</ele>
        <time>2022-08-03T15:45:05Z</time>
      </trkpt>
      <trkpt lat="45.59628" lon="1.92739">
        <ele>689</ele>
        <time>2022-08-03T15:45:07Z</time>
      </trkpt>
      <trkpt lat="45.59621" lon="1.92745">
        <ele>688.7</ele>
        <time>2022-08-03T15:45:09Z</time>
      </trkpt>
      <trkpt lat="45.59614" lon="1.92752">
        <ele>688.5</ele>
        <time>2022-08-03T15:45:11Z</time>
      </trkpt>
      <trkpt lat="45.59606" lon="1.92756">
        <ele>688.2</ele>
        <time>2022-08-03T15:45:13Z</time>
      </trkpt>
      <trkpt lat="45.59599" lon="1.92761">
        <ele>687.9</ele>
        <time>2022-08-03T15:45:15Z</time>
      </trkpt>
      <trkpt lat="45.59592" lon="1.92762">
        <ele>687.5</ele>
        <time>2022-08-03T15:45:17Z</time>
      </trkpt>
      <trkpt lat="45.59585" lon="1.9276">
        <ele>687.2</ele>
        <time>2022-08-03T15:45:19Z</time>
      </trkpt>
      <trkpt lat="45.59579" lon="1.92758">
        <ele>687.5</ele>
        <time>2022-08-03T15:45:21Z</time>
      </trkpt>
      <trkpt lat="45.59573" lon="1.92754">
        <ele>687.9</ele>
        <time>2022-08-03T15:45:23Z</time>
      </trkpt>
      <trkpt lat="45.59569" lon="1.9275">
        <ele>688.2</ele>
        <time>2022-08-03T15:45:25Z</time>
      </trkpt>
      <trkpt lat="45.59567" lon="1.92749">
        <ele>688.3</ele>
        <time>2022-08-03T15:45:27Z</time>
      </trkpt>
      <trkpt lat="45.5957" lon="1.92755">
        <ele>688.3</ele>
        <time>2022-08-03T15:45:29Z</time>
      </trkpt>
      <trkpt lat="45.5957" lon="1.92763">
        <ele>688.5</ele>
        <time>2022-08-03T15:45:31Z</time>
      </trkpt>
      <trkpt lat="45.59571" lon="1.9277">
        <ele>688.6</ele>
        <time>2022-08-03T15:45:33Z</time>
      </trkpt>
      <trkpt lat="45.59572" lon="1.92777">
        <ele>688.7</ele>
        <time>2022-08-03T15:45:35Z</time>
      </trkpt>
      <trkpt lat="45.59572" lon="1.92782">
        <ele>688.9</ele>
        <time>2022-08-03T15:45:37Z</time>
      </trkpt>
      <trkpt lat="45.59574" lon="1.92785">
        <ele>688.6</ele>
        <time>2022-08-03T15:45:39Z</time>
      </trkpt>
      <trkpt lat="45.59577" lon="1.92782">
        <ele>688.2</ele>
        <time>2022-08-03T15:45:41Z</time>
      </trkpt>
      <trkpt lat="45.59577" lon="1.92774">
        <ele>688.1</ele>
        <time>2022-08-03T15:45:43Z</time>
      </trkpt>
      <trkpt lat="45.59578" lon="1.92766">
        <ele>687.8</ele>
        <time>2022-08-03T15:45:45Z</time>
      </trkpt>
      <trkpt lat="45.59577" lon="1.92758">
        <ele>687.7</ele>
        <time>2022-08-03T15:45:47Z</time>
      </trkpt>
      <trkpt lat="45.59574" lon="1.92751">
        <ele>687.8</ele>
        <time>2022-08-03T15:45:49Z</time>
      </trkpt>
      <trkpt lat="45.5957" lon="1.92745">
        <ele>688</ele>
        <time>2022-08-03T15:45:51Z</time>
      </trkpt>
      <trkpt lat="45.59566" lon="1.92738">
        <ele>688.1</ele>
        <time>2022-08-03T15:45:53Z</time>
      </trkpt>
      <trkpt lat="45.59561" lon="1.92733">
        <ele>688.3</ele>
        <time>2022-08-03T15:45:55Z</time>
      </trkpt>
      <trkpt lat="45.59557" lon="1.92728">
        <ele>688.4</ele>
        <time>2022-08-03T15:45:57Z</time>
      </trkpt>
      <trkpt lat="45.59554" lon="1.92723">
        <ele>688.4</ele>
        <time>2022-08-03T15:45:59Z</time>
      </trkpt>
      <trkpt lat="45.59552" lon="1.92717">
        <ele>688.3</ele>
        <time>2022-08-03T15:46:01Z</time>
      </trkpt>
      <trkpt lat="45.59553" lon="1.92708">
        <ele>688</ele>
        <time>2022-08-03T15:46:03Z</time>
      </trkpt>
      <trkpt lat="45.59548" lon="1.92704">
        <ele>688</ele>
        <time>2022-08-03T15:46:05Z</time>
      </trkpt>
      <trkpt lat="45.59546" lon="1.92698">
        <ele>687.8</ele>
        <time>2022-08-03T15:46:07Z</time>
      </trkpt>
      <trkpt lat="45.59543" lon="1.92695">
        <ele>687.8</ele>
        <time>2022-08-03T15:46:09Z</time>
      </trkpt>
      <trkpt lat="45.5954" lon="1.9269">
        <ele>687.7</ele>
        <time>2022-08-03T15:46:11Z</time>
      </trkpt>
      <trkpt lat="45.59537" lon="1.92686">
        <ele>687.6</ele>
        <time>2022-08-03T15:46:13Z</time>
      </trkpt>
      <trkpt lat="45.59534" lon="1.92683">
        <ele>687.4</ele>
        <time>2022-08-03T15:46:15Z</time>
      </trkpt>
      <trkpt lat="45.59531" lon="1.92681">
        <ele>687.4</ele>
        <time>2022-08-03T15:46:17Z</time>
      </trkpt>
      <trkpt lat="45.59528" lon="1.92679">
        <ele>687.4</ele>
        <time>2022-08-03T15:46:19Z</time>
      </trkpt>
      <trkpt lat="45.59525" lon="1.92677">
        <ele>687.3</ele>
        <time>2022-08-03T15:46:21Z</time>
      </trkpt>
      <trkpt lat="45.59521" lon="1.92676">
        <ele>687.3</ele>
        <time>2022-08-03T15:46:23Z</time>
      </trkpt>
      <trkpt lat="45.59518" lon="1.92676">
        <ele>687.4</ele>
        <time>2022-08-03T15:46:25Z</time>
      </trkpt>
      <trkpt lat="45.59515" lon="1.92673">
        <ele>687.3</ele>
        <time>2022-08-03T15:46:27Z</time>
      </trkpt>
      <trkpt lat="45.59512" lon="1.92671">
        <ele>687.2</ele>
        <time>2022-08-03T15:46:29Z</time>
      </trkpt>
      <trkpt lat="45.59508" lon="1.92668">
        <ele>687</ele>
        <time>2022-08-03T15:46:31Z</time>
      </trkpt>
      <trkpt lat="45.59504" lon="1.92663">
        <ele>686.7</ele>
        <time>2022-08-03T15:46:33Z</time>
      </trkpt>
      <trkpt lat="45.59498" lon="1.9266">
        <ele>686.6</ele>
        <time>2022-08-03T15:46:35Z</time>
      </trkpt>
      <trkpt lat="45.59491" lon="1.92655">
        <ele>686.2</ele>
        <time>2022-08-03T15:46:37Z</time>
      </trkpt>
      <trkpt lat="45.59484" lon="1.92649">
        <ele>685.7</ele>
        <time>2022-08-03T15:46:39Z</time>
      </trkpt>
      <trkpt lat="45.59475" lon="1.92642">
        <ele>685.2</ele>
        <time>2022-08-03T15:46:41Z</time>
      </trkpt>
      <trkpt lat="45.59466" lon="1.92635">
        <ele>684.7</ele>
        <time>2022-08-03T15:46:43Z</time>
      </trkpt>
      <trkpt lat="45.59457" lon="1.92626">
        <ele>684.1</ele>
        <time>2022-08-03T15:46:45Z</time>
      </trkpt>
      <trkpt lat="45.59448" lon="1.92618">
        <ele>683.5</ele>
        <time>2022-08-03T15:46:47Z</time>
      </trkpt>
      <trkpt lat="45.59438" lon="1.92608">
        <ele>682.8</ele>
        <time>2022-08-03T15:46:49Z</time>
      </trkpt>
      <trkpt lat="45.59428" lon="1.92598">
        <ele>682</ele>
        <time>2022-08-03T15:46:51Z</time>
      </trkpt>
      <trkpt lat="45.59419" lon="1.92587">
        <ele>681.3</ele>
        <time>2022-08-03T15:46:53Z</time>
      </trkpt>
      <trkpt lat="45.59411" lon="1.92573">
        <ele>681</ele>
        <time>2022-08-03T15:46:55Z</time>
      </trkpt>
      <trkpt lat="45.59402" lon="1.92559">
        <ele>680.9</ele>
        <time>2022-08-03T15:46:57Z</time>
      </trkpt>
      <trkpt lat="45.59396" lon="1.92546">
        <ele>680.9</ele>
        <time>2022-08-03T15:46:59Z</time>
      </trkpt>
      <trkpt lat="45.59389" lon="1.92535">
        <ele>680.8</ele>
        <time>2022-08-03T15:47:01Z</time>
      </trkpt>
      <trkpt lat="45.59383" lon="1.92523">
        <ele>680.7</ele>
        <time>2022-08-03T15:47:03Z</time>
      </trkpt>
      <trkpt lat="45.59377" lon="1.9251">
        <ele>680.6</ele>
        <time>2022-08-03T15:47:05Z</time>
      </trkpt>
      <trkpt lat="45.59371" lon="1.92496">
        <ele>680.3</ele>
        <time>2022-08-03T15:47:07Z</time>
      </trkpt>
      <trkpt lat="45.59365" lon="1.92481">
        <ele>679.8</ele>
        <time>2022-08-03T15:47:09Z</time>
      </trkpt>
      <trkpt lat="45.59359" lon="1.92466">
        <ele>679.2</ele>
        <time>2022-08-03T15:47:11Z</time>
      </trkpt>
      <trkpt lat="45.59352" lon="1.9245">
        <ele>678.6</ele>
        <time>2022-08-03T15:47:13Z</time>
      </trkpt>
      <trkpt lat="45.59345" lon="1.92434">
        <ele>677.9</ele>
        <time>2022-08-03T15:47:15Z</time>
      </trkpt>
      <trkpt lat="45.59337" lon="1.92418">
        <ele>677.1</ele>
        <time>2022-08-03T15:47:17Z</time>
      </trkpt>
      <trkpt lat="45.5933" lon="1.924">
        <ele>676.5</ele>
        <time>2022-08-03T15:47:19Z</time>
      </trkpt>
      <trkpt lat="45.59323" lon="1.92383">
        <ele>676</ele>
        <time>2022-08-03T15:47:21Z</time>
      </trkpt>
      <trkpt lat="45.59316" lon="1.92366">
        <ele>675.5</ele>
        <time>2022-08-03T15:47:23Z</time>
      </trkpt>
      <trkpt lat="45.59308" lon="1.92349">
        <ele>675.2</ele>
        <time>2022-08-03T15:47:25Z</time>
      </trkpt>
      <trkpt lat="45.593" lon="1.92332">
        <ele>675</ele>
        <time>2022-08-03T15:47:27Z</time>
      </trkpt>
      <trkpt lat="45.59293" lon="1.92314">
        <ele>674.8</ele>
        <time>2022-08-03T15:47:29Z</time>
      </trkpt>
      <trkpt lat="45.59284" lon="1.92295">
        <ele>674.6</ele>
        <time>2022-08-03T15:47:31Z</time>
      </trkpt>
      <trkpt lat="45.59276" lon="1.92278">
        <ele>674.6</ele>
        <time>2022-08-03T15:47:33Z</time>
      </trkpt>
      <trkpt lat="45.59264" lon="1.92262">
        <ele>674.7</ele>
        <time>2022-08-03T15:47:35Z</time>
      </trkpt>
      <trkpt lat="45.5925" lon="1.92253">
        <ele>675</ele>
        <time>2022-08-03T15:47:37Z</time>
      </trkpt>
      <trkpt lat="45.59235" lon="1.92246">
        <ele>674.7</ele>
        <time>2022-08-03T15:47:39Z</time>
      </trkpt>
      <trkpt lat="45.59219" lon="1.92241">
        <ele>674.5</ele>
        <time>2022-08-03T15:47:41Z</time>
      </trkpt>
      <trkpt lat="45.59205" lon="1.92235">
        <ele>674.6</ele>
        <time>2022-08-03T15:47:43Z</time>
      </trkpt>
      <trkpt lat="45.5919" lon="1.9223">
        <ele>674.9</ele>
        <time>2022-08-03T15:47:45Z</time>
      </trkpt>
      <trkpt lat="45.59176" lon="1.92225">
        <ele>675.3</ele>
        <time>2022-08-03T15:47:47Z</time>
      </trkpt>
      <trkpt lat="45.59163" lon="1.9222">
        <ele>675.9</ele>
        <time>2022-08-03T15:47:49Z</time>
      </trkpt>
      <trkpt lat="45.5915" lon="1.92214">
        <ele>676.4</ele>
        <time>2022-08-03T15:47:51Z</time>
      </trkpt>
      <trkpt lat="45.59139" lon="1.92209">
        <ele>676.9</ele>
        <time>2022-08-03T15:47:53Z</time>
      </trkpt>
      <trkpt lat="45.59128" lon="1.92204">
        <ele>677.5</ele>
        <time>2022-08-03T15:47:55Z</time>
      </trkpt>
      <trkpt lat="45.59118" lon="1.92199">
        <ele>678</ele>
        <time>2022-08-03T15:47:57Z</time>
      </trkpt>
      <trkpt lat="45.59108" lon="1.92194">
        <ele>678.6</ele>
        <time>2022-08-03T15:47:59Z</time>
      </trkpt>
      <trkpt lat="45.59099" lon="1.9219">
        <ele>679.1</ele>
        <time>2022-08-03T15:48:01Z</time>
      </trkpt>
      <trkpt lat="45.59092" lon="1.92187">
        <ele>679.5</ele>
        <time>2022-08-03T15:48:03Z</time>
      </trkpt>
      <trkpt lat="45.59087" lon="1.92184">
        <ele>679.9</ele>
        <time>2022-08-03T15:48:05Z</time>
      </trkpt>
      <trkpt lat="45.59087" lon="1.9219">
        <ele>679.2</ele>
        <time>2022-08-03T15:48:07Z</time>
      </trkpt>
      <trkpt lat="45.59091" lon="1.92194">
        <ele>678.7</ele>
        <time>2022-08-03T15:48:09Z</time>
      </trkpt>
      <trkpt lat="45.59098" lon="1.92196">
        <ele>678.4</ele>
        <time>2022-08-03T15:48:11Z</time>
      </trkpt>
      <trkpt lat="45.59105" lon="1.92197">
        <ele>678.3</ele>
        <time>2022-08-03T15:48:13Z</time>
      </trkpt>
      <trkpt lat="45.59112" lon="1.92194">
        <ele>678.6</ele>
        <time>2022-08-03T15:48:15Z</time>
      </trkpt>
      <trkpt lat="45.5912" lon="1.92187">
        <ele>679.3</ele>
        <time>2022-08-03T15:48:17Z</time>
      </trkpt>
      <trkpt lat="45.59125" lon="1.92177">
        <ele>680.4</ele>
        <time>2022-08-03T15:48:19Z</time>
      </trkpt>
      <trkpt lat="45.59131" lon="1.92168">
        <ele>681.3</ele>
        <time>2022-08-03T15:48:21Z</time>
      </trkpt>
      <trkpt lat="45.59137" lon="1.92161">
        <ele>682.1</ele>
        <time>2022-08-03T15:48:23Z</time>
      </trkpt>
      <trkpt lat="45.59142" lon="1.92154">
        <ele>682.9</ele>
        <time>2022-08-03T15:48:25Z</time>
      </trkpt>
      <trkpt lat="45.59148" lon="1.92149">
        <ele>683.5</ele>
        <time>2022-08-03T15:48:27Z</time>
      </trkpt>
      <trkpt lat="45.59155" lon="1.92143">
        <ele>684.2</ele>
        <time>2022-08-03T15:48:29Z</time>
      </trkpt>
      <trkpt lat="45.59162" lon="1.92139">
        <ele>684.7</ele>
        <time>2022-08-03T15:48:31Z</time>
      </trkpt>
      <trkpt lat="45.59168" lon="1.92134">
        <ele>685.2</ele>
        <time>2022-08-03T15:48:33Z</time>
      </trkpt>
      <trkpt lat="45.59173" lon="1.9213">
        <ele>685.1</ele>
        <time>2022-08-03T15:48:35Z</time>
      </trkpt>
      <trkpt lat="45.59178" lon="1.92127">
        <ele>684.9</ele>
        <time>2022-08-03T15:48:37Z</time>
      </trkpt>
      <trkpt lat="45.59184" lon="1.92124">
        <ele>684.5</ele>
        <time>2022-08-03T15:48:39Z</time>
      </trkpt>
      <trkpt lat="45.59187" lon="1.92121">
        <ele>684.4</ele>
        <time>2022-08-03T15:48:41Z</time>
      </trkpt>
      <trkpt lat="45.59191" lon="1.92119">
        <ele>684.3</ele>
        <time>2022-08-03T15:48:43Z</time>
      </trkpt>
      <trkpt lat="45.59195" lon="1.92116">
        <ele>684.1</ele>
        <time>2022-08-03T15:48:45Z</time>
      </trkpt>
      <trkpt lat="45.59199" lon="1.92112">
        <ele>683.9</ele>
        <time>2022-08-03T15:48:47Z</time>
      </trkpt>
      <trkpt lat="45.59202" lon="1.9211">
        <ele>683.7</ele>
        <time>2022-08-03T15:48:49Z</time>
      </trkpt>
      <trkpt lat="45.59206" lon="1.92106">
        <ele>683.7</ele>
        <time>2022-08-03T15:48:51Z</time>
      </trkpt>
      <trkpt lat="45.59209" lon="1.92099">
        <ele>683.9</ele>
        <time>2022-08-03T15:48:53Z</time>
      </trkpt>
      <trkpt lat="45.59211" lon="1.9209">
        <ele>684.5</ele>
        <time>2022-08-03T15:48:55Z</time>
      </trkpt>
      <trkpt lat="45.59213" lon="1.92077">
        <ele>684.6</ele>
        <time>2022-08-03T15:48:57Z</time>
      </trkpt>
      <trkpt lat="45.59213" lon="1.92061">
        <ele>684</ele>
        <time>2022-08-03T15:48:59Z</time>
      </trkpt>
      <trkpt lat="45.59213" lon="1.92044">
        <ele>683.5</ele>
        <time>2022-08-03T15:49:01Z</time>
      </trkpt>
      <trkpt lat="45.59213" lon="1.92024">
        <ele>682.9</ele>
        <time>2022-08-03T15:49:03Z</time>
      </trkpt>
      <trkpt lat="45.59212" lon="1.92004">
        <ele>682.4</ele>
        <time>2022-08-03T15:49:05Z</time>
      </trkpt>
      <trkpt lat="45.5921" lon="1.91984">
        <ele>682</ele>
        <time>2022-08-03T15:49:07Z</time>
      </trkpt>
      <trkpt lat="45.59208" lon="1.91963">
        <ele>681.5</ele>
        <time>2022-08-03T15:49:09Z</time>
      </trkpt>
      <trkpt lat="45.59206" lon="1.91945">
        <ele>681</ele>
        <time>2022-08-03T15:49:11Z</time>
      </trkpt>
      <trkpt lat="45.59205" lon="1.91927">
        <ele>680.3</ele>
        <time>2022-08-03T15:49:13Z</time>
      </trkpt>
      <trkpt lat="45.59202" lon="1.9191">
        <ele>679.6</ele>
        <time>2022-08-03T15:49:15Z</time>
      </trkpt>
      <trkpt lat="45.59199" lon="1.91895">
        <ele>678.8</ele>
        <time>2022-08-03T15:49:17Z</time>
      </trkpt>
      <trkpt lat="45.59197" lon="1.91879">
        <ele>678</ele>
        <time>2022-08-03T15:49:19Z</time>
      </trkpt>
      <trkpt lat="45.59194" lon="1.91865">
        <ele>677.2</ele>
        <time>2022-08-03T15:49:21Z</time>
      </trkpt>
      <trkpt lat="45.59191" lon="1.9185">
        <ele>676.3</ele>
        <time>2022-08-03T15:49:23Z</time>
      </trkpt>
      <trkpt lat="45.59189" lon="1.91836">
        <ele>675.4</ele>
        <time>2022-08-03T15:49:25Z</time>
      </trkpt>
      <trkpt lat="45.59188" lon="1.91823">
        <ele>674.8</ele>
        <time>2022-08-03T15:49:27Z</time>
      </trkpt>
      <trkpt lat="45.59186" lon="1.9181">
        <ele>674.4</ele>
        <time>2022-08-03T15:49:29Z</time>
      </trkpt>
      <trkpt lat="45.59184" lon="1.91797">
        <ele>674</ele>
        <time>2022-08-03T15:49:31Z</time>
      </trkpt>
      <trkpt lat="45.59183" lon="1.91785">
        <ele>673.5</ele>
        <time>2022-08-03T15:49:33Z</time>
      </trkpt>
      <trkpt lat="45.59181" lon="1.91772">
        <ele>673.1</ele>
        <time>2022-08-03T15:49:35Z</time>
      </trkpt>
      <trkpt lat="45.5918" lon="1.9176">
        <ele>672.8</ele>
        <time>2022-08-03T15:49:37Z</time>
      </trkpt>
      <trkpt lat="45.59178" lon="1.91749">
        <ele>672.4</ele>
        <time>2022-08-03T15:49:39Z</time>
      </trkpt>
      <trkpt lat="45.59177" lon="1.91738">
        <ele>672.4</ele>
        <time>2022-08-03T15:49:41Z</time>
      </trkpt>
      <trkpt lat="45.59175" lon="1.91727">
        <ele>672.4</ele>
        <time>2022-08-03T15:49:43Z</time>
      </trkpt>
      <trkpt lat="45.59174" lon="1.91715">
        <ele>672.3</ele>
        <time>2022-08-03T15:49:45Z</time>
      </trkpt>
      <trkpt lat="45.59172" lon="1.91703">
        <ele>672.2</ele>
        <time>2022-08-03T15:49:47Z</time>
      </trkpt>
      <trkpt lat="45.59171" lon="1.91691">
        <ele>672.2</ele>
        <time>2022-08-03T15:49:49Z</time>
      </trkpt>
      <trkpt lat="45.59169" lon="1.91679">
        <ele>672.1</ele>
        <time>2022-08-03T15:49:51Z</time>
      </trkpt>
      <trkpt lat="45.59168" lon="1.91668">
        <ele>672</ele>
        <time>2022-08-03T15:49:53Z</time>
      </trkpt>
      <trkpt lat="45.59166" lon="1.91656">
        <ele>672</ele>
        <time>2022-08-03T15:49:55Z</time>
      </trkpt>
      <trkpt lat="45.59164" lon="1.91644">
        <ele>672.2</ele>
        <time>2022-08-03T15:49:57Z</time>
      </trkpt>
      <trkpt lat="45.59162" lon="1.91632">
        <ele>672.3</ele>
        <time>2022-08-03T15:49:59Z</time>
      </trkpt>
      <trkpt lat="45.59161" lon="1.9162">
        <ele>672.4</ele>
        <time>2022-08-03T15:50:01Z</time>
      </trkpt>
      <trkpt lat="45.59159" lon="1.91608">
        <ele>672.4</ele>
        <time>2022-08-03T15:50:03Z</time>
      </trkpt>
      <trkpt lat="45.59159" lon="1.91597">
        <ele>672.4</ele>
        <time>2022-08-03T15:50:05Z</time>
      </trkpt>
      <trkpt lat="45.59159" lon="1.91585">
        <ele>672.3</ele>
        <time>2022-08-03T15:50:07Z</time>
      </trkpt>
      <trkpt lat="45.59159" lon="1.91574">
        <ele>672.2</ele>
        <time>2022-08-03T15:50:09Z</time>
      </trkpt>
      <trkpt lat="45.5916" lon="1.91567">
        <ele>672.2</ele>
        <time>2022-08-03T15:50:11Z</time>
      </trkpt>
      <trkpt lat="45.59159" lon="1.91563">
        <ele>672.3</ele>
        <time>2022-08-03T15:50:13Z</time>
      </trkpt>
      <trkpt lat="45.59159" lon="1.91557">
        <ele>672.2</ele>
        <time>2022-08-03T15:50:15Z</time>
      </trkpt>
      <trkpt lat="45.59164" lon="1.9153">
        <ele>672.1</ele>
        <time>2022-08-03T15:50:17Z</time>
      </trkpt>
      <trkpt lat="45.59166" lon="1.91517">
        <ele>672</ele>
        <time>2022-08-03T15:50:19Z</time>
      </trkpt>
      <trkpt lat="45.59169" lon="1.91505">
        <ele>671.9</ele>
        <time>2022-08-03T15:50:21Z</time>
      </trkpt>
      <trkpt lat="45.59171" lon="1.91493">
        <ele>671.9</ele>
        <time>2022-08-03T15:50:23Z</time>
      </trkpt>
      <trkpt lat="45.59174" lon="1.91482">
        <ele>671.8</ele>
        <time>2022-08-03T15:50:25Z</time>
      </trkpt>
      <trkpt lat="45.59176" lon="1.91471">
        <ele>671.8</ele>
        <time>2022-08-03T15:50:27Z</time>
      </trkpt>
      <trkpt lat="45.59179" lon="1.9146">
        <ele>671.8</ele>
        <time>2022-08-03T15:50:29Z</time>
      </trkpt>
      <trkpt lat="45.59182" lon="1.91448">
        <ele>671.7</ele>
        <time>2022-08-03T15:50:31Z</time>
      </trkpt>
      <trkpt lat="45.59185" lon="1.91437">
        <ele>671.7</ele>
        <time>2022-08-03T15:50:33Z</time>
      </trkpt>
      <trkpt lat="45.59187" lon="1.91424">
        <ele>671.7</ele>
        <time>2022-08-03T15:50:35Z</time>
      </trkpt>
      <trkpt lat="45.5919" lon="1.91412">
        <ele>671.7</ele>
        <time>2022-08-03T15:50:37Z</time>
      </trkpt>
      <trkpt lat="45.59194" lon="1.91398">
        <ele>671.6</ele>
        <time>2022-08-03T15:50:39Z</time>
      </trkpt>
      <trkpt lat="45.59197" lon="1.91382">
        <ele>671.5</ele>
        <time>2022-08-03T15:50:41Z</time>
      </trkpt>
      <trkpt lat="45.592" lon="1.91367">
        <ele>671.4</ele>
        <time>2022-08-03T15:50:43Z</time>
      </trkpt>
      <trkpt lat="45.59203" lon="1.91348">
        <ele>671.2</ele>
        <time>2022-08-03T15:50:45Z</time>
      </trkpt>
      <trkpt lat="45.59205" lon="1.91353">
        <ele>671.2</ele>
        <time>2022-08-03T15:50:47Z</time>
      </trkpt>
      <trkpt lat="45.59207" lon="1.91341">
        <ele>671.1</ele>
        <time>2022-08-03T15:50:49Z</time>
      </trkpt>
      <trkpt lat="45.59212" lon="1.9133">
        <ele>670.9</ele>
        <time>2022-08-03T15:50:51Z</time>
      </trkpt>
      <trkpt lat="45.59215" lon="1.91318">
        <ele>670.7</ele>
        <time>2022-08-03T15:50:53Z</time>
      </trkpt>
      <trkpt lat="45.59218" lon="1.91307">
        <ele>670.5</ele>
        <time>2022-08-03T15:50:55Z</time>
      </trkpt>
      <trkpt lat="45.5922" lon="1.91295">
        <ele>670.4</ele>
        <time>2022-08-03T15:50:57Z</time>
      </trkpt>
      <trkpt lat="45.59223" lon="1.91283">
        <ele>670.3</ele>
        <time>2022-08-03T15:50:59Z</time>
      </trkpt>
      <trkpt lat="45.59226" lon="1.91271">
        <ele>670.1</ele>
        <time>2022-08-03T15:51:01Z</time>
      </trkpt>
      <trkpt lat="45.59229" lon="1.91259">
        <ele>670.1</ele>
        <time>2022-08-03T15:51:03Z</time>
      </trkpt>
      <trkpt lat="45.59231" lon="1.91247">
        <ele>670</ele>
        <time>2022-08-03T15:51:05Z</time>
      </trkpt>
      <trkpt lat="45.59234" lon="1.91235">
        <ele>670.2</ele>
        <time>2022-08-03T15:51:07Z</time>
      </trkpt>
      <trkpt lat="45.59237" lon="1.91222">
        <ele>670.3</ele>
        <time>2022-08-03T15:51:09Z</time>
      </trkpt>
      <trkpt lat="45.5924" lon="1.9121">
        <ele>670.5</ele>
        <time>2022-08-03T15:51:11Z</time>
      </trkpt>
      <trkpt lat="45.59243" lon="1.91197">
        <ele>670.6</ele>
        <time>2022-08-03T15:51:13Z</time>
      </trkpt>
      <trkpt lat="45.59246" lon="1.91183">
        <ele>670.8</ele>
        <time>2022-08-03T15:51:15Z</time>
      </trkpt>
      <trkpt lat="45.59249" lon="1.9117">
        <ele>671</ele>
        <time>2022-08-03T15:51:17Z</time>
      </trkpt>
      <trkpt lat="45.59253" lon="1.91158">
        <ele>670.9</ele>
        <time>2022-08-03T15:51:19Z</time>
      </trkpt>
      <trkpt lat="45.59255" lon="1.91147">
        <ele>670.8</ele>
        <time>2022-08-03T15:51:21Z</time>
      </trkpt>
      <trkpt lat="45.59258" lon="1.91137">
        <ele>670.7</ele>
        <time>2022-08-03T15:51:23Z</time>
      </trkpt>
      <trkpt lat="45.59261" lon="1.91127">
        <ele>670.7</ele>
        <time>2022-08-03T15:51:25Z</time>
      </trkpt>
      <trkpt lat="45.59264" lon="1.91116">
        <ele>670.7</ele>
        <time>2022-08-03T15:51:27Z</time>
      </trkpt>
      <trkpt lat="45.59266" lon="1.91105">
        <ele>670.8</ele>
        <time>2022-08-03T15:51:29Z</time>
      </trkpt>
      <trkpt lat="45.59269" lon="1.91095">
        <ele>670.9</ele>
        <time>2022-08-03T15:51:31Z</time>
      </trkpt>
      <trkpt lat="45.59271" lon="1.91085">
        <ele>671</ele>
        <time>2022-08-03T15:51:33Z</time>
      </trkpt>
      <trkpt lat="45.59274" lon="1.91077">
        <ele>672.5</ele>
        <time>2022-08-03T15:51:35Z</time>
      </trkpt>
      <trkpt lat="45.59276" lon="1.91069">
        <ele>674.3</ele>
        <time>2022-08-03T15:51:37Z</time>
      </trkpt>
      <trkpt lat="45.59278" lon="1.91062">
        <ele>676</ele>
        <time>2022-08-03T15:51:39Z</time>
      </trkpt>
      <trkpt lat="45.59279" lon="1.91055">
        <ele>677.4</ele>
        <time>2022-08-03T15:51:41Z</time>
      </trkpt>
      <trkpt lat="45.59281" lon="1.9105">
        <ele>678.5</ele>
        <time>2022-08-03T15:51:43Z</time>
      </trkpt>
      <trkpt lat="45.59282" lon="1.91047">
        <ele>679.3</ele>
        <time>2022-08-03T15:51:45Z</time>
      </trkpt>
      <trkpt lat="45.59283" lon="1.91043">
        <ele>680.2</ele>
        <time>2022-08-03T15:51:47Z</time>
      </trkpt>
      <trkpt lat="45.59285" lon="1.91039">
        <ele>681</ele>
        <time>2022-08-03T15:51:49Z</time>
      </trkpt>
      <trkpt lat="45.59285" lon="1.91034">
        <ele>681.9</ele>
        <time>2022-08-03T15:51:51Z</time>
      </trkpt>
      <trkpt lat="45.59286" lon="1.91031">
        <ele>682.7</ele>
        <time>2022-08-03T15:51:53Z</time>
      </trkpt>
      <trkpt lat="45.59287" lon="1.91028">
        <ele>683.2</ele>
        <time>2022-08-03T15:51:55Z</time>
      </trkpt>
      <trkpt lat="45.59287" lon="1.91025">
        <ele>683.9</ele>
        <time>2022-08-03T15:51:57Z</time>
      </trkpt>
      <trkpt lat="45.59288" lon="1.91021">
        <ele>684.7</ele>
        <time>2022-08-03T15:51:59Z</time>
      </trkpt>
      <trkpt lat="45.59289" lon="1.91018">
        <ele>685.3</ele>
        <time>2022-08-03T15:52:01Z</time>
      </trkpt>
      <trkpt lat="45.59291" lon="1.91015">
        <ele>685.9</ele>
        <time>2022-08-03T15:52:03Z</time>
      </trkpt>
      <trkpt lat="45.59292" lon="1.91012">
        <ele>686.6</ele>
        <time>2022-08-03T15:52:05Z</time>
      </trkpt>
      <trkpt lat="45.59293" lon="1.91009">
        <ele>687.2</ele>
        <time>2022-08-03T15:52:07Z</time>
      </trkpt>
      <trkpt lat="45.59294" lon="1.91007">
        <ele>687.5</ele>
        <time>2022-08-03T15:52:09Z</time>
      </trkpt>
      <trkpt lat="45.59295" lon="1.91004">
        <ele>688.1</ele>
        <time>2022-08-03T15:52:11Z</time>
      </trkpt>
      <trkpt lat="45.59296" lon="1.91001">
        <ele>688.7</ele>
        <time>2022-08-03T15:52:13Z</time>
      </trkpt>
      <trkpt lat="45.59297" lon="1.90998">
        <ele>689.6</ele>
        <time>2022-08-03T15:52:15Z</time>
      </trkpt>
      <trkpt lat="45.59298" lon="1.90995">
        <ele>690.4</ele>
        <time>2022-08-03T15:52:17Z</time>
      </trkpt>
      <trkpt lat="45.59299" lon="1.90993">
        <ele>690.9</ele>
        <time>2022-08-03T15:52:19Z</time>
      </trkpt>
      <trkpt lat="45.59315" lon="1.90974">
        <ele>696.1</ele>
        <time>2022-08-03T15:53:17Z</time>
      </trkpt>
      <trkpt lat="45.59319" lon="1.90974">
        <ele>696</ele>
        <time>2022-08-03T15:53:19Z</time>
      </trkpt>
      <trkpt lat="45.59321" lon="1.90971">
        <ele>696.7</ele>
        <time>2022-08-03T15:53:21Z</time>
      </trkpt>
      <trkpt lat="45.59322" lon="1.90968">
        <ele>697.8</ele>
        <time>2022-08-03T15:53:23Z</time>
      </trkpt>
      <trkpt lat="45.59325" lon="1.90966">
        <ele>698.3</ele>
        <time>2022-08-03T15:53:25Z</time>
      </trkpt>
      <trkpt lat="45.59328" lon="1.90964">
        <ele>698.7</ele>
        <time>2022-08-03T15:53:27Z</time>
      </trkpt>
      <trkpt lat="45.59328" lon="1.90961">
        <ele>699.8</ele>
        <time>2022-08-03T15:53:29Z</time>
      </trkpt>
      <trkpt lat="45.59328" lon="1.90956">
        <ele>701.2</ele>
        <time>2022-08-03T15:53:31Z</time>
      </trkpt>
      <trkpt lat="45.5933" lon="1.90955">
        <ele>701.6</ele>
        <time>2022-08-03T15:53:33Z</time>
      </trkpt>
      <trkpt lat="45.59332" lon="1.90952">
        <ele>702.3</ele>
        <time>2022-08-03T15:53:35Z</time>
      </trkpt>
      <trkpt lat="45.59333" lon="1.90949">
        <ele>703.3</ele>
        <time>2022-08-03T15:53:37Z</time>
      </trkpt>
      <trkpt lat="45.59332" lon="1.90947">
        <ele>703.8</ele>
        <time>2022-08-03T15:53:39Z</time>
      </trkpt>
      <trkpt lat="45.59333" lon="1.90945">
        <ele>704.4</ele>
        <time>2022-08-03T15:53:41Z</time>
      </trkpt>
      <trkpt lat="45.59334" lon="1.90944">
        <ele>704.8</ele>
        <time>2022-08-03T15:53:43Z</time>
      </trkpt>
      <trkpt lat="45.59335" lon="1.90943">
        <ele>705.2</ele>
        <time>2022-08-03T15:53:45Z</time>
      </trkpt>
      <trkpt lat="45.59336" lon="1.9094">
        <ele>705.9</ele>
        <time>2022-08-03T15:53:47Z</time>
      </trkpt>
      <trkpt lat="45.59336" lon="1.90938">
        <ele>706.7</ele>
        <time>2022-08-03T15:53:49Z</time>
      </trkpt>
      <trkpt lat="45.59334" lon="1.90936">
        <ele>707.2</ele>
        <time>2022-08-03T15:53:51Z</time>
      </trkpt>
      <trkpt lat="45.59334" lon="1.90933">
        <ele>708</ele>
        <time>2022-08-03T15:53:53Z</time>
      </trkpt>
      <trkpt lat="45.59335" lon="1.90932">
        <ele>708.3</ele>
        <time>2022-08-03T15:53:55Z</time>
      </trkpt>
      <trkpt lat="45.59337" lon="1.9093">
        <ele>708.8</ele>
        <time>2022-08-03T15:53:57Z</time>
      </trkpt>
      <trkpt lat="45.59338" lon="1.90927">
        <ele>709.7</ele>
        <time>2022-08-03T15:53:59Z</time>
      </trkpt>
      <trkpt lat="45.59337" lon="1.90925">
        <ele>710.4</ele>
        <time>2022-08-03T15:54:01Z</time>
      </trkpt>
      <trkpt lat="45.59337" lon="1.90922">
        <ele>711.2</ele>
        <time>2022-08-03T15:54:03Z</time>
      </trkpt>
      <trkpt lat="45.59338" lon="1.9092">
        <ele>712</ele>
        <time>2022-08-03T15:54:05Z</time>
      </trkpt>
      <trkpt lat="45.5934" lon="1.90919">
        <ele>712.1</ele>
        <time>2022-08-03T15:54:07Z</time>
      </trkpt>
      <trkpt lat="45.59342" lon="1.90917">
        <ele>712.7</ele>
        <time>2022-08-03T15:54:09Z</time>
      </trkpt>
      <trkpt lat="45.59342" lon="1.90914">
        <ele>713.1</ele>
        <time>2022-08-03T15:54:11Z</time>
      </trkpt>
      <trkpt lat="45.59342" lon="1.90912">
        <ele>713.6</ele>
        <time>2022-08-03T15:54:13Z</time>
      </trkpt>
      <trkpt lat="45.59342" lon="1.90908">
        <ele>714.2</ele>
        <time>2022-08-03T15:54:15Z</time>
      </trkpt>
      <trkpt lat="45.59344" lon="1.90906">
        <ele>714.4</ele>
        <time>2022-08-03T15:54:17Z</time>
      </trkpt>
      <trkpt lat="45.59346" lon="1.90905">
        <ele>714.5</ele>
        <time>2022-08-03T15:54:19Z</time>
      </trkpt>
      <trkpt lat="45.59347" lon="1.90903">
        <ele>714.8</ele>
        <time>2022-08-03T15:54:21Z</time>
      </trkpt>
      <trkpt lat="45.59347" lon="1.909">
        <ele>715.3</ele>
        <time>2022-08-03T15:54:23Z</time>
      </trkpt>
      <trkpt lat="45.59346" lon="1.90898">
        <ele>715.8</ele>
        <time>2022-08-03T15:54:25Z</time>
      </trkpt>
      <trkpt lat="45.59348" lon="1.90896">
        <ele>715.9</ele>
        <time>2022-08-03T15:54:27Z</time>
      </trkpt>
      <trkpt lat="45.5935" lon="1.90895">
        <ele>716</ele>
        <time>2022-08-03T15:54:29Z</time>
      </trkpt>
      <trkpt lat="45.59351" lon="1.90893">
        <ele>716.3</ele>
        <time>2022-08-03T15:54:31Z</time>
      </trkpt>
      <trkpt lat="45.59352" lon="1.9089">
        <ele>716.7</ele>
        <time>2022-08-03T15:54:33Z</time>
      </trkpt>
      <trkpt lat="45.59352" lon="1.90887">
        <ele>717.3</ele>
        <time>2022-08-03T15:54:35Z</time>
      </trkpt>
      <trkpt lat="45.59353" lon="1.90884">
        <ele>717.8</ele>
        <time>2022-08-03T15:54:37Z</time>
      </trkpt>
      <trkpt lat="45.59355" lon="1.90883">
        <ele>717.8</ele>
        <time>2022-08-03T15:54:39Z</time>
      </trkpt>
      <trkpt lat="45.59355" lon="1.90882">
        <ele>717.9</ele>
        <time>2022-08-03T15:54:41Z</time>
      </trkpt>
      <trkpt lat="45.59357" lon="1.9088">
        <ele>718.1</ele>
        <time>2022-08-03T15:54:43Z</time>
      </trkpt>
      <trkpt lat="45.59356" lon="1.9088">
        <ele>718.2</ele>
        <time>2022-08-03T15:54:45Z</time>
      </trkpt>
      <trkpt lat="45.59356" lon="1.90878">
        <ele>718.6</ele>
        <time>2022-08-03T15:54:47Z</time>
      </trkpt>
      <trkpt lat="45.59356" lon="1.90879">
        <ele>718.4</ele>
        <time>2022-08-03T15:54:49Z</time>
      </trkpt>
      <trkpt lat="45.59356" lon="1.90878">
        <ele>718.5</ele>
        <time>2022-08-03T15:54:51Z</time>
      </trkpt>
      <trkpt lat="45.59355" lon="1.90877">
        <ele>718.7</ele>
        <time>2022-08-03T15:54:53Z</time>
      </trkpt>
      <trkpt lat="45.59355" lon="1.90876">
        <ele>718.9</ele>
        <time>2022-08-03T15:54:55Z</time>
      </trkpt>
      <trkpt lat="45.59355" lon="1.90874">
        <ele>719.3</ele>
        <time>2022-08-03T15:54:57Z</time>
      </trkpt>
      <trkpt lat="45.59356" lon="1.90871">
        <ele>719.7</ele>
        <time>2022-08-03T15:54:59Z</time>
      </trkpt>
      <trkpt lat="45.59358" lon="1.9087">
        <ele>719.7</ele>
        <time>2022-08-03T15:55:01Z</time>
      </trkpt>
      <trkpt lat="45.59361" lon="1.90868">
        <ele>719.8</ele>
        <time>2022-08-03T15:55:03Z</time>
      </trkpt>
      <trkpt lat="45.59362" lon="1.90866">
        <ele>720</ele>
        <time>2022-08-03T15:55:05Z</time>
      </trkpt>
      <trkpt lat="45.59363" lon="1.90862">
        <ele>720.6</ele>
        <time>2022-08-03T15:55:07Z</time>
      </trkpt>
      <trkpt lat="45.59363" lon="1.9086">
        <ele>720.9</ele>
        <time>2022-08-03T15:55:09Z</time>
      </trkpt>
      <trkpt lat="45.59365" lon="1.90858">
        <ele>721.1</ele>
        <time>2022-08-03T15:55:11Z</time>
      </trkpt>
      <trkpt lat="45.59367" lon="1.90857">
        <ele>721.1</ele>
        <time>2022-08-03T15:55:13Z</time>
      </trkpt>
      <trkpt lat="45.59367" lon="1.90854">
        <ele>721.5</ele>
        <time>2022-08-03T15:55:15Z</time>
      </trkpt>
      <trkpt lat="45.59368" lon="1.9085">
        <ele>722.1</ele>
        <time>2022-08-03T15:55:17Z</time>
      </trkpt>
      <trkpt lat="45.59369" lon="1.90849">
        <ele>722.2</ele>
        <time>2022-08-03T15:55:19Z</time>
      </trkpt>
      <trkpt lat="45.59371" lon="1.90847">
        <ele>722.4</ele>
        <time>2022-08-03T15:55:21Z</time>
      </trkpt>
      <trkpt lat="45.59371" lon="1.90843">
        <ele>722.9</ele>
        <time>2022-08-03T15:55:23Z</time>
      </trkpt>
      <trkpt lat="45.59372" lon="1.90841">
        <ele>723.2</ele>
        <time>2022-08-03T15:55:25Z</time>
      </trkpt>
      <trkpt lat="45.59371" lon="1.90838">
        <ele>723.7</ele>
        <time>2022-08-03T15:55:27Z</time>
      </trkpt>
      <trkpt lat="45.59372" lon="1.90835">
        <ele>724</ele>
        <time>2022-08-03T15:55:29Z</time>
      </trkpt>
      <trkpt lat="45.59373" lon="1.90832">
        <ele>724.3</ele>
        <time>2022-08-03T15:55:31Z</time>
      </trkpt>
      <trkpt lat="45.59374" lon="1.90829">
        <ele>724.2</ele>
        <time>2022-08-03T15:55:33Z</time>
      </trkpt>
      <trkpt lat="45.59374" lon="1.90827">
        <ele>724.2</ele>
        <time>2022-08-03T15:55:35Z</time>
      </trkpt>
      <trkpt lat="45.59374" lon="1.90824">
        <ele>724.4</ele>
        <time>2022-08-03T15:55:37Z</time>
      </trkpt>
      <trkpt lat="45.59373" lon="1.90821">
        <ele>724.5</ele>
        <time>2022-08-03T15:55:39Z</time>
      </trkpt>
      <trkpt lat="45.59373" lon="1.90818">
        <ele>724.6</ele>
        <time>2022-08-03T15:55:41Z</time>
      </trkpt>
      <trkpt lat="45.59373" lon="1.90815">
        <ele>724.6</ele>
        <time>2022-08-03T15:55:43Z</time>
      </trkpt>
      <trkpt lat="45.59374" lon="1.90812">
        <ele>724.6</ele>
        <time>2022-08-03T15:55:45Z</time>
      </trkpt>
      <trkpt lat="45.59374" lon="1.9081">
        <ele>724.7</ele>
        <time>2022-08-03T15:55:47Z</time>
      </trkpt>
      <trkpt lat="45.59374" lon="1.90807">
        <ele>724.7</ele>
        <time>2022-08-03T15:55:49Z</time>
      </trkpt>
      <trkpt lat="45.59374" lon="1.90805">
        <ele>724.7</ele>
        <time>2022-08-03T15:55:51Z</time>
      </trkpt>
      <trkpt lat="45.59374" lon="1.90803">
        <ele>724.8</ele>
        <time>2022-08-03T15:55:53Z</time>
      </trkpt>
      <trkpt lat="45.59374" lon="1.908">
        <ele>724.9</ele>
        <time>2022-08-03T15:55:55Z</time>
      </trkpt>
      <trkpt lat="45.59374" lon="1.90797">
        <ele>724.9</ele>
        <time>2022-08-03T15:55:57Z</time>
      </trkpt>
      <trkpt lat="45.59375" lon="1.90794">
        <ele>724.9</ele>
        <time>2022-08-03T15:55:59Z</time>
      </trkpt>
      <trkpt lat="45.59376" lon="1.90792">
        <ele>724.9</ele>
        <time>2022-08-03T15:56:01Z</time>
      </trkpt>
      <trkpt lat="45.59377" lon="1.90788">
        <ele>724.9</ele>
        <time>2022-08-03T15:56:03Z</time>
      </trkpt>
      <trkpt lat="45.59377" lon="1.90786">
        <ele>725</ele>
        <time>2022-08-03T15:56:05Z</time>
      </trkpt>
      <trkpt lat="45.59378" lon="1.90783">
        <ele>724.9</ele>
        <time>2022-08-03T15:56:07Z</time>
      </trkpt>
      <trkpt lat="45.59379" lon="1.9078">
        <ele>725</ele>
        <time>2022-08-03T15:56:09Z</time>
      </trkpt>
      <trkpt lat="45.5938" lon="1.90777">
        <ele>725</ele>
        <time>2022-08-03T15:56:11Z</time>
      </trkpt>
      <trkpt lat="45.59381" lon="1.90774">
        <ele>724.9</ele>
        <time>2022-08-03T15:56:13Z</time>
      </trkpt>
      <trkpt lat="45.59381" lon="1.90771">
        <ele>725</ele>
        <time>2022-08-03T15:56:15Z</time>
      </trkpt>
      <trkpt lat="45.59381" lon="1.90769">
        <ele>725.1</ele>
        <time>2022-08-03T15:56:17Z</time>
      </trkpt>
      <trkpt lat="45.59382" lon="1.90766">
        <ele>725.1</ele>
        <time>2022-08-03T15:56:19Z</time>
      </trkpt>
      <trkpt lat="45.59383" lon="1.90763">
        <ele>725.1</ele>
        <time>2022-08-03T15:56:21Z</time>
      </trkpt>
      <trkpt lat="45.59385" lon="1.90759">
        <ele>725.1</ele>
        <time>2022-08-03T15:56:23Z</time>
      </trkpt>
      <trkpt lat="45.59386" lon="1.90755">
        <ele>725.1</ele>
        <time>2022-08-03T15:56:25Z</time>
      </trkpt>
      <trkpt lat="45.59387" lon="1.90752">
        <ele>725.1</ele>
        <time>2022-08-03T15:56:27Z</time>
      </trkpt>
      <trkpt lat="45.59388" lon="1.9075">
        <ele>725.1</ele>
        <time>2022-08-03T15:56:29Z</time>
      </trkpt>
      <trkpt lat="45.59388" lon="1.90746">
        <ele>725</ele>
        <time>2022-08-03T15:56:31Z</time>
      </trkpt>
      <trkpt lat="45.59389" lon="1.90743">
        <ele>724.9</ele>
        <time>2022-08-03T15:56:33Z</time>
      </trkpt>
      <trkpt lat="45.59389" lon="1.90741">
        <ele>724.8</ele>
        <time>2022-08-03T15:56:35Z</time>
      </trkpt>
      <trkpt lat="45.5939" lon="1.90737">
        <ele>724.7</ele>
        <time>2022-08-03T15:56:37Z</time>
      </trkpt>
      <trkpt lat="45.59391" lon="1.90734">
        <ele>724.6</ele>
        <time>2022-08-03T15:56:39Z</time>
      </trkpt>
      <trkpt lat="45.59393" lon="1.90732">
        <ele>724.4</ele>
        <time>2022-08-03T15:56:41Z</time>
      </trkpt>
      <trkpt lat="45.59394" lon="1.90731">
        <ele>724.3</ele>
        <time>2022-08-03T15:56:43Z</time>
      </trkpt>
      <trkpt lat="45.59396" lon="1.90729">
        <ele>724.2</ele>
        <time>2022-08-03T15:56:45Z</time>
      </trkpt>
      <trkpt lat="45.59397" lon="1.90728">
        <ele>724.1</ele>
        <time>2022-08-03T15:56:47Z</time>
      </trkpt>
      <trkpt lat="45.59415" lon="1.90713">
        <ele>723.1</ele>
        <time>2022-08-03T16:04:33Z</time>
      </trkpt>
      <trkpt lat="45.59418" lon="1.9071">
        <ele>723.2</ele>
        <time>2022-08-03T16:04:35Z</time>
      </trkpt>
      <trkpt lat="45.5942" lon="1.90707">
        <ele>723.4</ele>
        <time>2022-08-03T16:04:37Z</time>
      </trkpt>
      <trkpt lat="45.59423" lon="1.90703">
        <ele>723.8</ele>
        <time>2022-08-03T16:04:39Z</time>
      </trkpt>
      <trkpt lat="45.59429" lon="1.90697">
        <ele>724.4</ele>
        <time>2022-08-03T16:04:41Z</time>
      </trkpt>
      <trkpt lat="45.59432" lon="1.90692">
        <ele>724.8</ele>
        <time>2022-08-03T16:04:43Z</time>
      </trkpt>
      <trkpt lat="45.59435" lon="1.90688">
        <ele>725.2</ele>
        <time>2022-08-03T16:04:45Z</time>
      </trkpt>
      <trkpt lat="45.59439" lon="1.90683">
        <ele>725.7</ele>
        <time>2022-08-03T16:04:47Z</time>
      </trkpt>
      <trkpt lat="45.59442" lon="1.90678">
        <ele>726.2</ele>
        <time>2022-08-03T16:04:49Z</time>
      </trkpt>
      <trkpt lat="45.59445" lon="1.90674">
        <ele>726.7</ele>
        <time>2022-08-03T16:04:51Z</time>
      </trkpt>
      <trkpt lat="45.59447" lon="1.90669">
        <ele>727</ele>
        <time>2022-08-03T16:04:53Z</time>
      </trkpt>
      <trkpt lat="45.5945" lon="1.90664">
        <ele>727.4</ele>
        <time>2022-08-03T16:04:55Z</time>
      </trkpt>
      <trkpt lat="45.59454" lon="1.90657">
        <ele>727.8</ele>
        <time>2022-08-03T16:04:57Z</time>
      </trkpt>
      <trkpt lat="45.59454" lon="1.90649">
        <ele>727.8</ele>
        <time>2022-08-03T16:04:59Z</time>
      </trkpt>
      <trkpt lat="45.59455" lon="1.90643">
        <ele>727.9</ele>
        <time>2022-08-03T16:05:01Z</time>
      </trkpt>
      <trkpt lat="45.59456" lon="1.90636">
        <ele>727.9</ele>
        <time>2022-08-03T16:05:03Z</time>
      </trkpt>
      <trkpt lat="45.59456" lon="1.9063">
        <ele>728</ele>
        <time>2022-08-03T16:05:05Z</time>
      </trkpt>
      <trkpt lat="45.59456" lon="1.90625">
        <ele>728</ele>
        <time>2022-08-03T16:05:07Z</time>
      </trkpt>
      <trkpt lat="45.59456" lon="1.9062">
        <ele>727.9</ele>
        <time>2022-08-03T16:05:09Z</time>
      </trkpt>
      <trkpt lat="45.59457" lon="1.90614">
        <ele>728</ele>
        <time>2022-08-03T16:05:11Z</time>
      </trkpt>
      <trkpt lat="45.59456" lon="1.90607">
        <ele>727.8</ele>
        <time>2022-08-03T16:05:13Z</time>
      </trkpt>
      <trkpt lat="45.59456" lon="1.906">
        <ele>727.7</ele>
        <time>2022-08-03T16:05:15Z</time>
      </trkpt>
      <trkpt lat="45.59455" lon="1.90591">
        <ele>727.4</ele>
        <time>2022-08-03T16:05:17Z</time>
      </trkpt>
      <trkpt lat="45.59453" lon="1.90581">
        <ele>727.2</ele>
        <time>2022-08-03T16:05:19Z</time>
      </trkpt>
      <trkpt lat="45.5945" lon="1.9057">
        <ele>727.3</ele>
        <time>2022-08-03T16:05:21Z</time>
      </trkpt>
      <trkpt lat="45.59446" lon="1.90559">
        <ele>727.3</ele>
        <time>2022-08-03T16:05:23Z</time>
      </trkpt>
      <trkpt lat="45.59442" lon="1.90548">
        <ele>727.3</ele>
        <time>2022-08-03T16:05:25Z</time>
      </trkpt>
      <trkpt lat="45.59439" lon="1.9054">
        <ele>727.4</ele>
        <time>2022-08-03T16:05:27Z</time>
      </trkpt>
      <trkpt lat="45.59436" lon="1.90533">
        <ele>727.5</ele>
        <time>2022-08-03T16:05:29Z</time>
      </trkpt>
      <trkpt lat="45.59432" lon="1.90522">
        <ele>727.8</ele>
        <time>2022-08-03T16:05:31Z</time>
      </trkpt>
      <trkpt lat="45.59428" lon="1.90513">
        <ele>728.1</ele>
        <time>2022-08-03T16:05:33Z</time>
      </trkpt>
      <trkpt lat="45.59424" lon="1.90503">
        <ele>728.4</ele>
        <time>2022-08-03T16:05:35Z</time>
      </trkpt>
      <trkpt lat="45.59421" lon="1.90492">
        <ele>728.5</ele>
        <time>2022-08-03T16:05:37Z</time>
      </trkpt>
      <trkpt lat="45.59418" lon="1.90483">
        <ele>728.3</ele>
        <time>2022-08-03T16:05:39Z</time>
      </trkpt>
      <trkpt lat="45.59413" lon="1.90473">
        <ele>727.9</ele>
        <time>2022-08-03T16:05:41Z</time>
      </trkpt>
      <trkpt lat="45.5941" lon="1.90461">
        <ele>727.6</ele>
        <time>2022-08-03T16:05:43Z</time>
      </trkpt>
      <trkpt lat="45.59406" lon="1.90451">
        <ele>727.3</ele>
        <time>2022-08-03T16:05:45Z</time>
      </trkpt>
      <trkpt lat="45.59402" lon="1.90441">
        <ele>726.9</ele>
        <time>2022-08-03T16:05:47Z</time>
      </trkpt>
      <trkpt lat="45.59399" lon="1.90432">
        <ele>726.6</ele>
        <time>2022-08-03T16:05:49Z</time>
      </trkpt>
      <trkpt lat="45.59399" lon="1.90422">
        <ele>726.8</ele>
        <time>2022-08-03T16:05:51Z</time>
      </trkpt>
      <trkpt lat="45.59398" lon="1.90409">
        <ele>726.4</ele>
        <time>2022-08-03T16:05:53Z</time>
      </trkpt>
      <trkpt lat="45.59397" lon="1.90397">
        <ele>725.9</ele>
        <time>2022-08-03T16:05:55Z</time>
      </trkpt>
      <trkpt lat="45.59398" lon="1.90385">
        <ele>725.4</ele>
        <time>2022-08-03T16:05:57Z</time>
      </trkpt>
      <trkpt lat="45.59399" lon="1.90375">
        <ele>725</ele>
        <time>2022-08-03T16:05:59Z</time>
      </trkpt>
      <trkpt lat="45.594" lon="1.90366">
        <ele>724.7</ele>
        <time>2022-08-03T16:06:01Z</time>
      </trkpt>
      <trkpt lat="45.59401" lon="1.90357">
        <ele>724.3</ele>
        <time>2022-08-03T16:06:03Z</time>
      </trkpt>
      <trkpt lat="45.59401" lon="1.90346">
        <ele>723.9</ele>
        <time>2022-08-03T16:06:05Z</time>
      </trkpt>
      <trkpt lat="45.59401" lon="1.90333">
        <ele>723.2</ele>
        <time>2022-08-03T16:06:07Z</time>
      </trkpt>
      <trkpt lat="45.59399" lon="1.90325">
        <ele>723.4</ele>
        <time>2022-08-03T16:06:09Z</time>
      </trkpt>
      <trkpt lat="45.59397" lon="1.90314">
        <ele>723.6</ele>
        <time>2022-08-03T16:06:11Z</time>
      </trkpt>
      <trkpt lat="45.59394" lon="1.90304">
        <ele>723.6</ele>
        <time>2022-08-03T16:06:13Z</time>
      </trkpt>
      <trkpt lat="45.59392" lon="1.90291">
        <ele>723.8</ele>
        <time>2022-08-03T16:06:15Z</time>
      </trkpt>
      <trkpt lat="45.59389" lon="1.90281">
        <ele>723.7</ele>
        <time>2022-08-03T16:06:17Z</time>
      </trkpt>
      <trkpt lat="45.59384" lon="1.90268">
        <ele>723.4</ele>
        <time>2022-08-03T16:06:19Z</time>
      </trkpt>
      <trkpt lat="45.59381" lon="1.90256">
        <ele>723.2</ele>
        <time>2022-08-03T16:06:21Z</time>
      </trkpt>
      <trkpt lat="45.59375" lon="1.90246">
        <ele>722.8</ele>
        <time>2022-08-03T16:06:23Z</time>
      </trkpt>
      <trkpt lat="45.59372" lon="1.90236">
        <ele>723.1</ele>
        <time>2022-08-03T16:06:25Z</time>
      </trkpt>
      <trkpt lat="45.59368" lon="1.90225">
        <ele>723.4</ele>
        <time>2022-08-03T16:06:27Z</time>
      </trkpt>
      <trkpt lat="45.59364" lon="1.90214">
        <ele>723.6</ele>
        <time>2022-08-03T16:06:29Z</time>
      </trkpt>
      <trkpt lat="45.59361" lon="1.90207">
        <ele>723.6</ele>
        <time>2022-08-03T16:06:31Z</time>
      </trkpt>
      <trkpt lat="45.59359" lon="1.90201">
        <ele>723.6</ele>
        <time>2022-08-03T16:06:33Z</time>
      </trkpt>
      <trkpt lat="45.5936" lon="1.90194">
        <ele>724.2</ele>
        <time>2022-08-03T16:06:35Z</time>
      </trkpt>
      <trkpt lat="45.59359" lon="1.90189">
        <ele>724.5</ele>
        <time>2022-08-03T16:06:37Z</time>
      </trkpt>
      <trkpt lat="45.59357" lon="1.90184">
        <ele>724.4</ele>
        <time>2022-08-03T16:06:39Z</time>
      </trkpt>
      <trkpt lat="45.59356" lon="1.90178">
        <ele>724.7</ele>
        <time>2022-08-03T16:06:41Z</time>
      </trkpt>
      <trkpt lat="45.59357" lon="1.90174">
        <ele>725</ele>
        <time>2022-08-03T16:06:43Z</time>
      </trkpt>
      <trkpt lat="45.59357" lon="1.90168">
        <ele>725.4</ele>
        <time>2022-08-03T16:06:45Z</time>
      </trkpt>
      <trkpt lat="45.59356" lon="1.90163">
        <ele>725.5</ele>
        <time>2022-08-03T16:06:47Z</time>
      </trkpt>
      <trkpt lat="45.59355" lon="1.9016">
        <ele>725.5</ele>
        <time>2022-08-03T16:06:49Z</time>
      </trkpt>
      <trkpt lat="45.59354" lon="1.90157">
        <ele>725.4</ele>
        <time>2022-08-03T16:06:51Z</time>
      </trkpt>
      <trkpt lat="45.59353" lon="1.90152">
        <ele>725.4</ele>
        <time>2022-08-03T16:06:53Z</time>
      </trkpt>
      <trkpt lat="45.59353" lon="1.90148">
        <ele>725.6</ele>
        <time>2022-08-03T16:06:55Z</time>
      </trkpt>
      <trkpt lat="45.59351" lon="1.90143">
        <ele>725.5</ele>
        <time>2022-08-03T16:06:57Z</time>
      </trkpt>
      <trkpt lat="45.59351" lon="1.9014">
        <ele>725.7</ele>
        <time>2022-08-03T16:06:59Z</time>
      </trkpt>
      <trkpt lat="45.5935" lon="1.90136">
        <ele>725.6</ele>
        <time>2022-08-03T16:07:01Z</time>
      </trkpt>
      <trkpt lat="45.5935" lon="1.90133">
        <ele>725.7</ele>
        <time>2022-08-03T16:07:03Z</time>
      </trkpt>
      <trkpt lat="45.59349" lon="1.90127">
        <ele>725.9</ele>
        <time>2022-08-03T16:07:05Z</time>
      </trkpt>
      <trkpt lat="45.59349" lon="1.90123">
        <ele>726</ele>
        <time>2022-08-03T16:07:07Z</time>
      </trkpt>
      <trkpt lat="45.59349" lon="1.90119">
        <ele>726.2</ele>
        <time>2022-08-03T16:07:09Z</time>
      </trkpt>
      <trkpt lat="45.59349" lon="1.90114">
        <ele>726.3</ele>
        <time>2022-08-03T16:07:11Z</time>
      </trkpt>
      <trkpt lat="45.59348" lon="1.90108">
        <ele>726.4</ele>
        <time>2022-08-03T16:07:13Z</time>
      </trkpt>
      <trkpt lat="45.59347" lon="1.90105">
        <ele>726.4</ele>
        <time>2022-08-03T16:07:15Z</time>
      </trkpt>
      <trkpt lat="45.59346" lon="1.90101">
        <ele>726.5</ele>
        <time>2022-08-03T16:07:17Z</time>
      </trkpt>
      <trkpt lat="45.59346" lon="1.90098">
        <ele>726.6</ele>
        <time>2022-08-03T16:07:19Z</time>
      </trkpt>
      <trkpt lat="45.59346" lon="1.90094">
        <ele>726.8</ele>
        <time>2022-08-03T16:07:21Z</time>
      </trkpt>
      <trkpt lat="45.59346" lon="1.9009">
        <ele>726.9</ele>
        <time>2022-08-03T16:07:23Z</time>
      </trkpt>
      <trkpt lat="45.59345" lon="1.90085">
        <ele>727</ele>
        <time>2022-08-03T16:07:25Z</time>
      </trkpt>
      <trkpt lat="45.59345" lon="1.90081">
        <ele>727.1</ele>
        <time>2022-08-03T16:07:27Z</time>
      </trkpt>
      <trkpt lat="45.59344" lon="1.90076">
        <ele>727.1</ele>
        <time>2022-08-03T16:07:29Z</time>
      </trkpt>
      <trkpt lat="45.59345" lon="1.90072">
        <ele>727.2</ele>
        <time>2022-08-03T16:07:31Z</time>
      </trkpt>
      <trkpt lat="45.59344" lon="1.90068">
        <ele>727.2</ele>
        <time>2022-08-03T16:07:33Z</time>
      </trkpt>
      <trkpt lat="45.59345" lon="1.90064">
        <ele>727.3</ele>
        <time>2022-08-03T16:07:35Z</time>
      </trkpt>
      <trkpt lat="45.59345" lon="1.9006">
        <ele>727.5</ele>
        <time>2022-08-03T16:07:37Z</time>
      </trkpt>
      <trkpt lat="45.59344" lon="1.90054">
        <ele>727.4</ele>
        <time>2022-08-03T16:07:39Z</time>
      </trkpt>
      <trkpt lat="45.59344" lon="1.90047">
        <ele>727.5</ele>
        <time>2022-08-03T16:07:41Z</time>
      </trkpt>
      <trkpt lat="45.59344" lon="1.90044">
        <ele>727.6</ele>
        <time>2022-08-03T16:07:43Z</time>
      </trkpt>
      <trkpt lat="45.59344" lon="1.9004">
        <ele>727.6</ele>
        <time>2022-08-03T16:07:45Z</time>
      </trkpt>
      <trkpt lat="45.59344" lon="1.90035">
        <ele>727.7</ele>
        <time>2022-08-03T16:07:47Z</time>
      </trkpt>
      <trkpt lat="45.59345" lon="1.9003">
        <ele>727.9</ele>
        <time>2022-08-03T16:07:49Z</time>
      </trkpt>
      <trkpt lat="45.59346" lon="1.90024">
        <ele>728.1</ele>
        <time>2022-08-03T16:07:51Z</time>
      </trkpt>
      <trkpt lat="45.59345" lon="1.90018">
        <ele>728.2</ele>
        <time>2022-08-03T16:07:53Z</time>
      </trkpt>
      <trkpt lat="45.59348" lon="1.90009">
        <ele>728.6</ele>
        <time>2022-08-03T16:07:55Z</time>
      </trkpt>
      <trkpt lat="45.59347" lon="1.90012">
        <ele>728.5</ele>
        <time>2022-08-03T16:07:57Z</time>
      </trkpt>
      <trkpt lat="45.59347" lon="1.90011">
        <ele>728.5</ele>
        <time>2022-08-03T16:07:59Z</time>
      </trkpt>
      <trkpt lat="45.59348" lon="1.90013">
        <ele>728.6</ele>
        <time>2022-08-03T16:08:01Z</time>
      </trkpt>
      <trkpt lat="45.59348" lon="1.90015">
        <ele>728.6</ele>
        <time>2022-08-03T16:08:03Z</time>
      </trkpt>
      <trkpt lat="45.59348" lon="1.90016">
        <ele>728.6</ele>
        <time>2022-08-03T16:08:05Z</time>
      </trkpt>
      <trkpt lat="45.59349" lon="1.90015">
        <ele>728.6</ele>
        <time>2022-08-03T16:08:07Z</time>
      </trkpt>
      <trkpt lat="45.59343" lon="1.90016">
        <ele>728</ele>
        <time>2022-08-03T16:11:01Z</time>
      </trkpt>
      <trkpt lat="45.59343" lon="1.9002">
        <ele>727.9</ele>
        <time>2022-08-03T16:11:03Z</time>
      </trkpt>
      <trkpt lat="45.59344" lon="1.90026">
        <ele>727.9</ele>
        <time>2022-08-03T16:11:05Z</time>
      </trkpt>
      <trkpt lat="45.59345" lon="1.90035">
        <ele>727.8</ele>
        <time>2022-08-03T16:11:07Z</time>
      </trkpt>
      <trkpt lat="45.59346" lon="1.9004">
        <ele>727.9</ele>
        <time>2022-08-03T16:11:09Z</time>
      </trkpt>
      <trkpt lat="45.59346" lon="1.90049">
        <ele>727.8</ele>
        <time>2022-08-03T16:11:11Z</time>
      </trkpt>
      <trkpt lat="45.59345" lon="1.90056">
        <ele>727.6</ele>
        <time>2022-08-03T16:11:13Z</time>
      </trkpt>
      <trkpt lat="45.59347" lon="1.90063">
        <ele>727.8</ele>
        <time>2022-08-03T16:11:15Z</time>
      </trkpt>
      <trkpt lat="45.59347" lon="1.90069">
        <ele>727.6</ele>
        <time>2022-08-03T16:11:17Z</time>
      </trkpt>
      <trkpt lat="45.59346" lon="1.90075">
        <ele>727.4</ele>
        <time>2022-08-03T16:11:19Z</time>
      </trkpt>
      <trkpt lat="45.59343" lon="1.90076">
        <ele>726.9</ele>
        <time>2022-08-03T16:11:21Z</time>
      </trkpt>
      <trkpt lat="45.59344" lon="1.90075">
        <ele>727</ele>
        <time>2022-08-03T16:11:23Z</time>
      </trkpt>
      <trkpt lat="45.59343" lon="1.90074">
        <ele>726.9</ele>
        <time>2022-08-03T16:11:25Z</time>
      </trkpt>
      <trkpt lat="45.59342" lon="1.90074">
        <ele>726.7</ele>
        <time>2022-08-03T16:11:27Z</time>
      </trkpt>
      <trkpt lat="45.59343" lon="1.90051">
        <ele>727.3</ele>
        <time>2022-08-03T16:11:41Z</time>
      </trkpt>
      <trkpt lat="45.59344" lon="1.90045">
        <ele>727.5</ele>
        <time>2022-08-03T16:11:43Z</time>
      </trkpt>
      <trkpt lat="45.59344" lon="1.9004">
        <ele>727.6</ele>
        <time>2022-08-03T16:11:45Z</time>
      </trkpt>
      <trkpt lat="45.59344" lon="1.90036">
        <ele>727.7</ele>
        <time>2022-08-03T16:11:47Z</time>
      </trkpt>
      <trkpt lat="45.59344" lon="1.90031">
        <ele>727.8</ele>
        <time>2022-08-03T16:11:49Z</time>
      </trkpt>
      <trkpt lat="45.59344" lon="1.90027">
        <ele>727.8</ele>
        <time>2022-08-03T16:11:51Z</time>
      </trkpt>
      <trkpt lat="45.59344" lon="1.90022">
        <ele>727.9</ele>
        <time>2022-08-03T16:11:53Z</time>
      </trkpt>
      <trkpt lat="45.59345" lon="1.90018">
        <ele>728.1</ele>
        <time>2022-08-03T16:11:55Z</time>
      </trkpt>
      <trkpt lat="45.59346" lon="1.90014">
        <ele>728.3</ele>
        <time>2022-08-03T16:11:57Z</time>
      </trkpt>
      <trkpt lat="45.59347" lon="1.9001">
        <ele>728.4</ele>
        <time>2022-08-03T16:11:59Z</time>
      </trkpt>
      <trkpt lat="45.59347" lon="1.90006">
        <ele>728.6</ele>
        <time>2022-08-03T16:12:01Z</time>
      </trkpt>
      <trkpt lat="45.59346" lon="1.90004">
        <ele>728.5</ele>
        <time>2022-08-03T16:12:03Z</time>
      </trkpt>
      <trkpt lat="45.59347" lon="1.90004">
        <ele>728.6</ele>
        <time>2022-08-03T16:12:05Z</time>
      </trkpt>
      <trkpt lat="45.59347" lon="1.90004">
        <ele>728.6</ele>
        <time>2022-08-03T16:12:07Z</time>
      </trkpt>
      <trkpt lat="45.59347" lon="1.90004">
        <ele>728.6</ele>
        <time>2022-08-03T16:12:09Z</time>
      </trkpt>
      <trkpt lat="45.59347" lon="1.90003">
        <ele>728.6</ele>
        <time>2022-08-03T16:12:11Z</time>
      </trkpt>
      <trkpt lat="45.59364" lon="1.89957">
        <ele>727.5</ele>
        <time>2022-08-03T16:14:21Z</time>
      </trkpt>
      <trkpt lat="45.59366" lon="1.8995">
        <ele>727.3</ele>
        <time>2022-08-03T16:14:23Z</time>
      </trkpt>
      <trkpt lat="45.59369" lon="1.89945">
        <ele>727.3</ele>
        <time>2022-08-03T16:14:25Z</time>
      </trkpt>
      <trkpt lat="45.59371" lon="1.89938">
        <ele>727.1</ele>
        <time>2022-08-03T16:14:27Z</time>
      </trkpt>
      <trkpt lat="45.59374" lon="1.89933">
        <ele>727.1</ele>
        <time>2022-08-03T16:14:29Z</time>
      </trkpt>
      <trkpt lat="45.59377" lon="1.89926">
        <ele>726.9</ele>
        <time>2022-08-03T16:14:31Z</time>
      </trkpt>
      <trkpt lat="45.59379" lon="1.89919">
        <ele>726.7</ele>
        <time>2022-08-03T16:14:33Z</time>
      </trkpt>
      <trkpt lat="45.59381" lon="1.89912">
        <ele>726.2</ele>
        <time>2022-08-03T16:14:35Z</time>
      </trkpt>
      <trkpt lat="45.59383" lon="1.89904">
        <ele>725.4</ele>
        <time>2022-08-03T16:14:37Z</time>
      </trkpt>
      <trkpt lat="45.59386" lon="1.89896">
        <ele>724.7</ele>
        <time>2022-08-03T16:14:39Z</time>
      </trkpt>
      <trkpt lat="45.59391" lon="1.89888">
        <ele>724.3</ele>
        <time>2022-08-03T16:14:41Z</time>
      </trkpt>
      <trkpt lat="45.59394" lon="1.89883">
        <ele>724.1</ele>
        <time>2022-08-03T16:14:43Z</time>
      </trkpt>
      <trkpt lat="45.59399" lon="1.89879">
        <ele>724.2</ele>
        <time>2022-08-03T16:14:45Z</time>
      </trkpt>
      <trkpt lat="45.59402" lon="1.89875">
        <ele>724.2</ele>
        <time>2022-08-03T16:14:47Z</time>
      </trkpt>
      <trkpt lat="45.59407" lon="1.89872">
        <ele>724.4</ele>
        <time>2022-08-03T16:14:49Z</time>
      </trkpt>
      <trkpt lat="45.59412" lon="1.89868">
        <ele>724.5</ele>
        <time>2022-08-03T16:14:51Z</time>
      </trkpt>
      <trkpt lat="45.59418" lon="1.89864">
        <ele>724.7</ele>
        <time>2022-08-03T16:14:53Z</time>
      </trkpt>
      <trkpt lat="45.59422" lon="1.89862">
        <ele>724.5</ele>
        <time>2022-08-03T16:14:55Z</time>
      </trkpt>
      <trkpt lat="45.59426" lon="1.89861">
        <ele>724.3</ele>
        <time>2022-08-03T16:14:57Z</time>
      </trkpt>
      <trkpt lat="45.59431" lon="1.89858">
        <ele>724</ele>
        <time>2022-08-03T16:14:59Z</time>
      </trkpt>
      <trkpt lat="45.59436" lon="1.89855">
        <ele>723.7</ele>
        <time>2022-08-03T16:15:01Z</time>
      </trkpt>
      <trkpt lat="45.59442" lon="1.89853">
        <ele>723.5</ele>
        <time>2022-08-03T16:15:03Z</time>
      </trkpt>
      <trkpt lat="45.59447" lon="1.89851">
        <ele>723.3</ele>
        <time>2022-08-03T16:15:05Z</time>
      </trkpt>
      <trkpt lat="45.59451" lon="1.89851">
        <ele>723.3</ele>
        <time>2022-08-03T16:15:07Z</time>
      </trkpt>
      <trkpt lat="45.59456" lon="1.8985">
        <ele>723.2</ele>
        <time>2022-08-03T16:15:09Z</time>
      </trkpt>
      <trkpt lat="45.5946" lon="1.89849">
        <ele>723</ele>
        <time>2022-08-03T16:15:11Z</time>
      </trkpt>
      <trkpt lat="45.59465" lon="1.89848">
        <ele>722.9</ele>
        <time>2022-08-03T16:15:13Z</time>
      </trkpt>
      <trkpt lat="45.5947" lon="1.89847">
        <ele>722.9</ele>
        <time>2022-08-03T16:15:15Z</time>
      </trkpt>
      <trkpt lat="45.59476" lon="1.89846">
        <ele>722.8</ele>
        <time>2022-08-03T16:15:17Z</time>
      </trkpt>
      <trkpt lat="45.59481" lon="1.89849">
        <ele>723.1</ele>
        <time>2022-08-03T16:15:19Z</time>
      </trkpt>
      <trkpt lat="45.59484" lon="1.89848">
        <ele>723</ele>
        <time>2022-08-03T16:15:21Z</time>
      </trkpt>
      <trkpt lat="45.59493" lon="1.89846">
        <ele>722.8</ele>
        <time>2022-08-03T16:15:23Z</time>
      </trkpt>
      <trkpt lat="45.595" lon="1.8984">
        <ele>721.9</ele>
        <time>2022-08-03T16:15:25Z</time>
      </trkpt>
      <trkpt lat="45.59506" lon="1.89834">
        <ele>721.3</ele>
        <time>2022-08-03T16:15:27Z</time>
      </trkpt>
      <trkpt lat="45.59512" lon="1.89828">
        <ele>721</ele>
        <time>2022-08-03T16:15:29Z</time>
      </trkpt>
      <trkpt lat="45.59519" lon="1.89822">
        <ele>720.6</ele>
        <time>2022-08-03T16:15:31Z</time>
      </trkpt>
      <trkpt lat="45.59527" lon="1.89815">
        <ele>720.3</ele>
        <time>2022-08-03T16:15:33Z</time>
      </trkpt>
      <trkpt lat="45.59531" lon="1.8981">
        <ele>719.9</ele>
        <time>2022-08-03T16:15:35Z</time>
      </trkpt>
      <trkpt lat="45.59536" lon="1.89808">
        <ele>719.9</ele>
        <time>2022-08-03T16:15:37Z</time>
      </trkpt>
      <trkpt lat="45.59539" lon="1.89805">
        <ele>719.7</ele>
        <time>2022-08-03T16:15:39Z</time>
      </trkpt>
      <trkpt lat="45.59541" lon="1.898">
        <ele>719.3</ele>
        <time>2022-08-03T16:15:41Z</time>
      </trkpt>
      <trkpt lat="45.59543" lon="1.89797">
        <ele>719.1</ele>
        <time>2022-08-03T16:15:43Z</time>
      </trkpt>
      <trkpt lat="45.59546" lon="1.89794">
        <ele>718.9</ele>
        <time>2022-08-03T16:15:45Z</time>
      </trkpt>
      <trkpt lat="45.59548" lon="1.89793">
        <ele>718.8</ele>
        <time>2022-08-03T16:15:47Z</time>
      </trkpt>
      <trkpt lat="45.5955" lon="1.8979">
        <ele>718.6</ele>
        <time>2022-08-03T16:15:49Z</time>
      </trkpt>
      <trkpt lat="45.59552" lon="1.89786">
        <ele>718.2</ele>
        <time>2022-08-03T16:15:51Z</time>
      </trkpt>
      <trkpt lat="45.59555" lon="1.89781">
        <ele>717.7</ele>
        <time>2022-08-03T16:15:53Z</time>
      </trkpt>
      <trkpt lat="45.59557" lon="1.89775">
        <ele>717.2</ele>
        <time>2022-08-03T16:15:55Z</time>
      </trkpt>
      <trkpt lat="45.59561" lon="1.8977">
        <ele>716.8</ele>
        <time>2022-08-03T16:15:57Z</time>
      </trkpt>
      <trkpt lat="45.59565" lon="1.89765">
        <ele>716.3</ele>
        <time>2022-08-03T16:15:59Z</time>
      </trkpt>
      <trkpt lat="45.59568" lon="1.8976">
        <ele>715.9</ele>
        <time>2022-08-03T16:16:01Z</time>
      </trkpt>
      <trkpt lat="45.59571" lon="1.89755">
        <ele>715.4</ele>
        <time>2022-08-03T16:16:03Z</time>
      </trkpt>
      <trkpt lat="45.59574" lon="1.89754">
        <ele>715.3</ele>
        <time>2022-08-03T16:16:05Z</time>
      </trkpt>
      <trkpt lat="45.59578" lon="1.89753">
        <ele>715.3</ele>
        <time>2022-08-03T16:16:07Z</time>
      </trkpt>
      <trkpt lat="45.5958" lon="1.89753">
        <ele>715.3</ele>
        <time>2022-08-03T16:16:09Z</time>
      </trkpt>
      <trkpt lat="45.59586" lon="1.89754">
        <ele>715.1</ele>
        <time>2022-08-03T16:16:11Z</time>
      </trkpt>
      <trkpt lat="45.59589" lon="1.89752">
        <ele>714.6</ele>
        <time>2022-08-03T16:16:13Z</time>
      </trkpt>
      <trkpt lat="45.59594" lon="1.89748">
        <ele>713.6</ele>
        <time>2022-08-03T16:16:15Z</time>
      </trkpt>
      <trkpt lat="45.59601" lon="1.89747">
        <ele>712.9</ele>
        <time>2022-08-03T16:16:17Z</time>
      </trkpt>
      <trkpt lat="45.59605" lon="1.89747">
        <ele>712.5</ele>
        <time>2022-08-03T16:16:19Z</time>
      </trkpt>
      <trkpt lat="45.59609" lon="1.89749">
        <ele>712.1</ele>
        <time>2022-08-03T16:16:21Z</time>
      </trkpt>
      <trkpt lat="45.59614" lon="1.89747">
        <ele>711.4</ele>
        <time>2022-08-03T16:16:23Z</time>
      </trkpt>
      <trkpt lat="45.59619" lon="1.89748">
        <ele>710.9</ele>
        <time>2022-08-03T16:16:25Z</time>
      </trkpt>
      <trkpt lat="45.59625" lon="1.89749">
        <ele>710.5</ele>
        <time>2022-08-03T16:16:27Z</time>
      </trkpt>
      <trkpt lat="45.5963" lon="1.8975">
        <ele>710</ele>
        <time>2022-08-03T16:16:29Z</time>
      </trkpt>
      <trkpt lat="45.59633" lon="1.8975">
        <ele>709.6</ele>
        <time>2022-08-03T16:16:31Z</time>
      </trkpt>
      <trkpt lat="45.59638" lon="1.89748">
        <ele>708.9</ele>
        <time>2022-08-03T16:16:33Z</time>
      </trkpt>
      <trkpt lat="45.59644" lon="1.89747">
        <ele>708.2</ele>
        <time>2022-08-03T16:16:35Z</time>
      </trkpt>
      <trkpt lat="45.59653" lon="1.89749">
        <ele>707.4</ele>
        <time>2022-08-03T16:16:37Z</time>
      </trkpt>
      <trkpt lat="45.5966" lon="1.89751">
        <ele>706.8</ele>
        <time>2022-08-03T16:16:39Z</time>
      </trkpt>
      <trkpt lat="45.59665" lon="1.89748">
        <ele>705.9</ele>
        <time>2022-08-03T16:16:41Z</time>
      </trkpt>
      <trkpt lat="45.59673" lon="1.89746">
        <ele>704.8</ele>
        <time>2022-08-03T16:16:43Z</time>
      </trkpt>
      <trkpt lat="45.59677" lon="1.89744">
        <ele>704</ele>
        <time>2022-08-03T16:16:45Z</time>
      </trkpt>
      <trkpt lat="45.59683" lon="1.89741">
        <ele>703</ele>
        <time>2022-08-03T16:16:47Z</time>
      </trkpt>
      <trkpt lat="45.59687" lon="1.89737">
        <ele>702.1</ele>
        <time>2022-08-03T16:16:49Z</time>
      </trkpt>
      <trkpt lat="45.59694" lon="1.89733">
        <ele>700.9</ele>
        <time>2022-08-03T16:16:51Z</time>
      </trkpt>
      <trkpt lat="45.59698" lon="1.89732">
        <ele>700.2</ele>
        <time>2022-08-03T16:16:53Z</time>
      </trkpt>
      <trkpt lat="45.59704" lon="1.89732">
        <ele>699.6</ele>
        <time>2022-08-03T16:16:55Z</time>
      </trkpt>
      <trkpt lat="45.59716" lon="1.89729">
        <ele>697.9</ele>
        <time>2022-08-03T16:16:57Z</time>
      </trkpt>
      <trkpt lat="45.59715" lon="1.8973">
        <ele>698.1</ele>
        <time>2022-08-03T16:16:59Z</time>
      </trkpt>
      <trkpt lat="45.59721" lon="1.89729">
        <ele>697.3</ele>
        <time>2022-08-03T16:17:01Z</time>
      </trkpt>
      <trkpt lat="45.59727" lon="1.89725">
        <ele>696.5</ele>
        <time>2022-08-03T16:17:03Z</time>
      </trkpt>
      <trkpt lat="45.59728" lon="1.89723">
        <ele>696.2</ele>
        <time>2022-08-03T16:17:05Z</time>
      </trkpt>
      <trkpt lat="45.59733" lon="1.89721">
        <ele>695.5</ele>
        <time>2022-08-03T16:17:07Z</time>
      </trkpt>
      <trkpt lat="45.59737" lon="1.89719">
        <ele>695</ele>
        <time>2022-08-03T16:17:09Z</time>
      </trkpt>
      <trkpt lat="45.59742" lon="1.89716">
        <ele>694.2</ele>
        <time>2022-08-03T16:17:11Z</time>
      </trkpt>
      <trkpt lat="45.59748" lon="1.89714">
        <ele>693.4</ele>
        <time>2022-08-03T16:17:13Z</time>
      </trkpt>
      <trkpt lat="45.59758" lon="1.89711">
        <ele>692.4</ele>
        <time>2022-08-03T16:17:15Z</time>
      </trkpt>
      <trkpt lat="45.59768" lon="1.89709">
        <ele>691.5</ele>
        <time>2022-08-03T16:17:17Z</time>
      </trkpt>
      <trkpt lat="45.59777" lon="1.89711">
        <ele>690.8</ele>
        <time>2022-08-03T16:17:19Z</time>
      </trkpt>
      <trkpt lat="45.59783" lon="1.89714">
        <ele>690.3</ele>
        <time>2022-08-03T16:17:21Z</time>
      </trkpt>
      <trkpt lat="45.59787" lon="1.89714">
        <ele>690</ele>
        <time>2022-08-03T16:17:23Z</time>
      </trkpt>
      <trkpt lat="45.59793" lon="1.89713">
        <ele>689.5</ele>
        <time>2022-08-03T16:17:25Z</time>
      </trkpt>
      <trkpt lat="45.59797" lon="1.89711">
        <ele>689.1</ele>
        <time>2022-08-03T16:17:27Z</time>
      </trkpt>
      <trkpt lat="45.59798" lon="1.89709">
        <ele>688.9</ele>
        <time>2022-08-03T16:17:29Z</time>
      </trkpt>
      <trkpt lat="45.59797" lon="1.89709">
        <ele>689</ele>
        <time>2022-08-03T16:17:31Z</time>
      </trkpt>
      <trkpt lat="45.59798" lon="1.89709">
        <ele>689</ele>
        <time>2022-08-03T16:17:33Z</time>
      </trkpt>
      <trkpt lat="45.59799" lon="1.89709">
        <ele>688.9</ele>
        <time>2022-08-03T16:17:35Z</time>
      </trkpt>
      <trkpt lat="45.59798" lon="1.89709">
        <ele>688.9</ele>
        <time>2022-08-03T16:17:37Z</time>
      </trkpt>
      <trkpt lat="45.59797" lon="1.89709">
        <ele>689</ele>
        <time>2022-08-03T16:17:39Z</time>
      </trkpt>
      <trkpt lat="45.59811" lon="1.89699">
        <ele>687.9</ele>
        <time>2022-08-03T16:19:53Z</time>
      </trkpt>
      <trkpt lat="45.59817" lon="1.89695">
        <ele>687.5</ele>
        <time>2022-08-03T16:19:55Z</time>
      </trkpt>
      <trkpt lat="45.59822" lon="1.8969">
        <ele>687.2</ele>
        <time>2022-08-03T16:19:57Z</time>
      </trkpt>
      <trkpt lat="45.59828" lon="1.89685">
        <ele>686.9</ele>
        <time>2022-08-03T16:19:59Z</time>
      </trkpt>
      <trkpt lat="45.59832" lon="1.89682">
        <ele>686.7</ele>
        <time>2022-08-03T16:20:01Z</time>
      </trkpt>
      <trkpt lat="45.59834" lon="1.89677">
        <ele>686.8</ele>
        <time>2022-08-03T16:20:03Z</time>
      </trkpt>
      <trkpt lat="45.59836" lon="1.89675">
        <ele>686.9</ele>
        <time>2022-08-03T16:20:05Z</time>
      </trkpt>
      <trkpt lat="45.59838" lon="1.89672">
        <ele>687.1</ele>
        <time>2022-08-03T16:20:07Z</time>
      </trkpt>
      <trkpt lat="45.59842" lon="1.89668">
        <ele>687.5</ele>
        <time>2022-08-03T16:20:09Z</time>
      </trkpt>
      <trkpt lat="45.59845" lon="1.89665">
        <ele>687.9</ele>
        <time>2022-08-03T16:20:11Z</time>
      </trkpt>
      <trkpt lat="45.59849" lon="1.89661">
        <ele>688.4</ele>
        <time>2022-08-03T16:20:13Z</time>
      </trkpt>
      <trkpt lat="45.59856" lon="1.89658">
        <ele>689.1</ele>
        <time>2022-08-03T16:20:15Z</time>
      </trkpt>
      <trkpt lat="45.59863" lon="1.89655">
        <ele>689.7</ele>
        <time>2022-08-03T16:20:17Z</time>
      </trkpt>
      <trkpt lat="45.59874" lon="1.89655">
        <ele>690.3</ele>
        <time>2022-08-03T16:20:19Z</time>
      </trkpt>
      <trkpt lat="45.59884" lon="1.89651">
        <ele>691.2</ele>
        <time>2022-08-03T16:20:21Z</time>
      </trkpt>
      <trkpt lat="45.59895" lon="1.89646">
        <ele>692.3</ele>
        <time>2022-08-03T16:20:23Z</time>
      </trkpt>
      <trkpt lat="45.59905" lon="1.8964">
        <ele>693.3</ele>
        <time>2022-08-03T16:20:25Z</time>
      </trkpt>
      <trkpt lat="45.59914" lon="1.89637">
        <ele>694</ele>
        <time>2022-08-03T16:20:27Z</time>
      </trkpt>
      <trkpt lat="45.59922" lon="1.89635">
        <ele>694.6</ele>
        <time>2022-08-03T16:20:29Z</time>
      </trkpt>
      <trkpt lat="45.59928" lon="1.89633">
        <ele>695.1</ele>
        <time>2022-08-03T16:20:31Z</time>
      </trkpt>
      <trkpt lat="45.59933" lon="1.89632">
        <ele>695.5</ele>
        <time>2022-08-03T16:20:33Z</time>
      </trkpt>
      <trkpt lat="45.59938" lon="1.8963">
        <ele>695.9</ele>
        <time>2022-08-03T16:20:35Z</time>
      </trkpt>
      <trkpt lat="45.59942" lon="1.89628">
        <ele>696.3</ele>
        <time>2022-08-03T16:20:37Z</time>
      </trkpt>
      <trkpt lat="45.59946" lon="1.89626">
        <ele>696.7</ele>
        <time>2022-08-03T16:20:39Z</time>
      </trkpt>
      <trkpt lat="45.5995" lon="1.89624">
        <ele>697.1</ele>
        <time>2022-08-03T16:20:41Z</time>
      </trkpt>
      <trkpt lat="45.59953" lon="1.89622">
        <ele>697.5</ele>
        <time>2022-08-03T16:20:43Z</time>
      </trkpt>
      <trkpt lat="45.59958" lon="1.89619">
        <ele>697.9</ele>
        <time>2022-08-03T16:20:45Z</time>
      </trkpt>
      <trkpt lat="45.59962" lon="1.89618">
        <ele>698.2</ele>
        <time>2022-08-03T16:20:47Z</time>
      </trkpt>
      <trkpt lat="45.59964" lon="1.89616">
        <ele>698.6</ele>
        <time>2022-08-03T16:20:49Z</time>
      </trkpt>
      <trkpt lat="45.59968" lon="1.89615">
        <ele>698.9</ele>
        <time>2022-08-03T16:20:51Z</time>
      </trkpt>
      <trkpt lat="45.59973" lon="1.89613">
        <ele>699.4</ele>
        <time>2022-08-03T16:20:53Z</time>
      </trkpt>
      <trkpt lat="45.59975" lon="1.8961">
        <ele>699.8</ele>
        <time>2022-08-03T16:20:55Z</time>
      </trkpt>
      <trkpt lat="45.59979" lon="1.89608">
        <ele>700.3</ele>
        <time>2022-08-03T16:20:57Z</time>
      </trkpt>
      <trkpt lat="45.59983" lon="1.89605">
        <ele>700.7</ele>
        <time>2022-08-03T16:20:59Z</time>
      </trkpt>
      <trkpt lat="45.59986" lon="1.89604">
        <ele>701.1</ele>
        <time>2022-08-03T16:21:01Z</time>
      </trkpt>
      <trkpt lat="45.5999" lon="1.89602">
        <ele>701.6</ele>
        <time>2022-08-03T16:21:03Z</time>
      </trkpt>
      <trkpt lat="45.59993" lon="1.89599">
        <ele>702</ele>
        <time>2022-08-03T16:21:05Z</time>
      </trkpt>
      <trkpt lat="45.59997" lon="1.89597">
        <ele>702.4</ele>
        <time>2022-08-03T16:21:07Z</time>
      </trkpt>
      <trkpt lat="45.6" lon="1.89595">
        <ele>702.9</ele>
        <time>2022-08-03T16:21:09Z</time>
      </trkpt>
      <trkpt lat="45.60002" lon="1.89593">
        <ele>703.3</ele>
        <time>2022-08-03T16:21:11Z</time>
      </trkpt>
      <trkpt lat="45.60005" lon="1.8959">
        <ele>703.7</ele>
        <time>2022-08-03T16:21:13Z</time>
      </trkpt>
      <trkpt lat="45.60007" lon="1.89588">
        <ele>704.1</ele>
        <time>2022-08-03T16:21:15Z</time>
      </trkpt>
      <trkpt lat="45.6001" lon="1.89586">
        <ele>704.5</ele>
        <time>2022-08-03T16:21:17Z</time>
      </trkpt>
      <trkpt lat="45.60012" lon="1.89584">
        <ele>704.8</ele>
        <time>2022-08-03T16:21:19Z</time>
      </trkpt>
      <trkpt lat="45.60015" lon="1.89583">
        <ele>705.1</ele>
        <time>2022-08-03T16:21:21Z</time>
      </trkpt>
      <trkpt lat="45.60018" lon="1.89581">
        <ele>705.4</ele>
        <time>2022-08-03T16:21:23Z</time>
      </trkpt>
      <trkpt lat="45.6002" lon="1.89581">
        <ele>705.5</ele>
        <time>2022-08-03T16:21:25Z</time>
      </trkpt>
      <trkpt lat="45.60023" lon="1.89579">
        <ele>705.8</ele>
        <time>2022-08-03T16:21:27Z</time>
      </trkpt>
      <trkpt lat="45.60025" lon="1.89576">
        <ele>706.1</ele>
        <time>2022-08-03T16:21:29Z</time>
      </trkpt>
      <trkpt lat="45.60028" lon="1.89573">
        <ele>706.4</ele>
        <time>2022-08-03T16:21:31Z</time>
      </trkpt>
      <trkpt lat="45.60029" lon="1.89572">
        <ele>706.5</ele>
        <time>2022-08-03T16:21:33Z</time>
      </trkpt>
      <trkpt lat="45.60029" lon="1.89573">
        <ele>706.5</ele>
        <time>2022-08-03T16:21:35Z</time>
      </trkpt>
      <trkpt lat="45.60029" lon="1.89573">
        <ele>706.5</ele>
        <time>2022-08-03T16:21:37Z</time>
      </trkpt>
      <trkpt lat="45.60029" lon="1.89573">
        <ele>706.4</ele>
        <time>2022-08-03T16:21:39Z</time>
      </trkpt>
      <trkpt lat="45.60029" lon="1.89573">
        <ele>706.4</ele>
        <time>2022-08-03T16:21:41Z</time>
      </trkpt>
      <trkpt lat="45.60035" lon="1.89568">
        <ele>707.1</ele>
        <time>2022-08-03T16:21:51Z</time>
      </trkpt>
      <trkpt lat="45.60038" lon="1.89567">
        <ele>707.3</ele>
        <time>2022-08-03T16:21:53Z</time>
      </trkpt>
      <trkpt lat="45.6004" lon="1.89564">
        <ele>707.6</ele>
        <time>2022-08-03T16:21:55Z</time>
      </trkpt>
      <trkpt lat="45.60043" lon="1.89562">
        <ele>707.8</ele>
        <time>2022-08-03T16:21:57Z</time>
      </trkpt>
      <trkpt lat="45.60045" lon="1.8956">
        <ele>708.1</ele>
        <time>2022-08-03T16:21:59Z</time>
      </trkpt>
      <trkpt lat="45.60048" lon="1.89558">
        <ele>708.4</ele>
        <time>2022-08-03T16:22:01Z</time>
      </trkpt>
      <trkpt lat="45.60051" lon="1.89556">
        <ele>708.7</ele>
        <time>2022-08-03T16:22:03Z</time>
      </trkpt>
      <trkpt lat="45.60054" lon="1.89556">
        <ele>708.9</ele>
        <time>2022-08-03T16:22:05Z</time>
      </trkpt>
      <trkpt lat="45.60056" lon="1.89555">
        <ele>709.1</ele>
        <time>2022-08-03T16:22:07Z</time>
      </trkpt>
      <trkpt lat="45.60059" lon="1.89553">
        <ele>709.3</ele>
        <time>2022-08-03T16:22:09Z</time>
      </trkpt>
      <trkpt lat="45.60061" lon="1.89552">
        <ele>709.6</ele>
        <time>2022-08-03T16:22:11Z</time>
      </trkpt>
      <trkpt lat="45.60065" lon="1.8955">
        <ele>709.9</ele>
        <time>2022-08-03T16:22:13Z</time>
      </trkpt>
      <trkpt lat="45.60067" lon="1.89549">
        <ele>710.1</ele>
        <time>2022-08-03T16:22:15Z</time>
      </trkpt>
      <trkpt lat="45.6007" lon="1.89549">
        <ele>710.3</ele>
        <time>2022-08-03T16:22:17Z</time>
      </trkpt>
      <trkpt lat="45.60072" lon="1.89547">
        <ele>710.5</ele>
        <time>2022-08-03T16:22:19Z</time>
      </trkpt>
      <trkpt lat="45.60074" lon="1.89546">
        <ele>710.7</ele>
        <time>2022-08-03T16:22:21Z</time>
      </trkpt>
      <trkpt lat="45.60076" lon="1.89544">
        <ele>710.9</ele>
        <time>2022-08-03T16:22:23Z</time>
      </trkpt>
      <trkpt lat="45.60078" lon="1.89543">
        <ele>711.1</ele>
        <time>2022-08-03T16:22:25Z</time>
      </trkpt>
      <trkpt lat="45.6008" lon="1.89543">
        <ele>711.2</ele>
        <time>2022-08-03T16:22:27Z</time>
      </trkpt>
      <trkpt lat="45.60083" lon="1.89543">
        <ele>711.4</ele>
        <time>2022-08-03T16:22:29Z</time>
      </trkpt>
      <trkpt lat="45.60085" lon="1.89543">
        <ele>711.5</ele>
        <time>2022-08-03T16:22:31Z</time>
      </trkpt>
      <trkpt lat="45.60088" lon="1.89542">
        <ele>711.6</ele>
        <time>2022-08-03T16:22:33Z</time>
      </trkpt>
      <trkpt lat="45.60089" lon="1.89542">
        <ele>711.7</ele>
        <time>2022-08-03T16:22:35Z</time>
      </trkpt>
      <trkpt lat="45.60092" lon="1.89541">
        <ele>711.8</ele>
        <time>2022-08-03T16:22:37Z</time>
      </trkpt>
      <trkpt lat="45.60094" lon="1.89542">
        <ele>711.9</ele>
        <time>2022-08-03T16:22:39Z</time>
      </trkpt>
      <trkpt lat="45.60097" lon="1.89542">
        <ele>712</ele>
        <time>2022-08-03T16:22:41Z</time>
      </trkpt>
      <trkpt lat="45.601" lon="1.89544">
        <ele>712</ele>
        <time>2022-08-03T16:22:43Z</time>
      </trkpt>
      <trkpt lat="45.60102" lon="1.89544">
        <ele>712.1</ele>
        <time>2022-08-03T16:22:45Z</time>
      </trkpt>
      <trkpt lat="45.60105" lon="1.89544">
        <ele>712.2</ele>
        <time>2022-08-03T16:22:47Z</time>
      </trkpt>
      <trkpt lat="45.60107" lon="1.89547">
        <ele>712.1</ele>
        <time>2022-08-03T16:22:49Z</time>
      </trkpt>
      <trkpt lat="45.6011" lon="1.8955">
        <ele>712.1</ele>
        <time>2022-08-03T16:22:51Z</time>
      </trkpt>
      <trkpt lat="45.60114" lon="1.89551">
        <ele>712.2</ele>
        <time>2022-08-03T16:22:53Z</time>
      </trkpt>
      <trkpt lat="45.60117" lon="1.89552">
        <ele>712.2</ele>
        <time>2022-08-03T16:22:55Z</time>
      </trkpt>
      <trkpt lat="45.6012" lon="1.89553">
        <ele>712.3</ele>
        <time>2022-08-03T16:22:57Z</time>
      </trkpt>
      <trkpt lat="45.60124" lon="1.89554">
        <ele>712.4</ele>
        <time>2022-08-03T16:22:59Z</time>
      </trkpt>
      <trkpt lat="45.60128" lon="1.89554">
        <ele>712.5</ele>
        <time>2022-08-03T16:23:01Z</time>
      </trkpt>
      <trkpt lat="45.60131" lon="1.89555">
        <ele>712.6</ele>
        <time>2022-08-03T16:23:03Z</time>
      </trkpt>
      <trkpt lat="45.60134" lon="1.89555">
        <ele>712.7</ele>
        <time>2022-08-03T16:23:05Z</time>
      </trkpt>
      <trkpt lat="45.60138" lon="1.89555">
        <ele>712.8</ele>
        <time>2022-08-03T16:23:07Z</time>
      </trkpt>
      <trkpt lat="45.60142" lon="1.89554">
        <ele>712.9</ele>
        <time>2022-08-03T16:23:09Z</time>
      </trkpt>
      <trkpt lat="45.60146" lon="1.89552">
        <ele>713.2</ele>
        <time>2022-08-03T16:23:11Z</time>
      </trkpt>
      <trkpt lat="45.6015" lon="1.89551">
        <ele>713.4</ele>
        <time>2022-08-03T16:23:13Z</time>
      </trkpt>
      <trkpt lat="45.60154" lon="1.89549">
        <ele>713.6</ele>
        <time>2022-08-03T16:23:15Z</time>
      </trkpt>
      <trkpt lat="45.60159" lon="1.89547">
        <ele>713.9</ele>
        <time>2022-08-03T16:23:17Z</time>
      </trkpt>
      <trkpt lat="45.60164" lon="1.89543">
        <ele>714.3</ele>
        <time>2022-08-03T16:23:19Z</time>
      </trkpt>
      <trkpt lat="45.60168" lon="1.8954">
        <ele>714.5</ele>
        <time>2022-08-03T16:23:21Z</time>
      </trkpt>
      <trkpt lat="45.60172" lon="1.89536">
        <ele>714.3</ele>
        <time>2022-08-03T16:23:23Z</time>
      </trkpt>
      <trkpt lat="45.60178" lon="1.89532">
        <ele>714</ele>
        <time>2022-08-03T16:23:25Z</time>
      </trkpt>
      <trkpt lat="45.60184" lon="1.89527">
        <ele>713.8</ele>
        <time>2022-08-03T16:23:27Z</time>
      </trkpt>
      <trkpt lat="45.60189" lon="1.89523">
        <ele>713.4</ele>
        <time>2022-08-03T16:23:29Z</time>
      </trkpt>
      <trkpt lat="45.60198" lon="1.89518">
        <ele>712.9</ele>
        <time>2022-08-03T16:23:31Z</time>
      </trkpt>
      <trkpt lat="45.60208" lon="1.89515">
        <ele>712.1</ele>
        <time>2022-08-03T16:23:33Z</time>
      </trkpt>
      <trkpt lat="45.60219" lon="1.89515">
        <ele>711.1</ele>
        <time>2022-08-03T16:23:35Z</time>
      </trkpt>
      <trkpt lat="45.6023" lon="1.89517">
        <ele>709.9</ele>
        <time>2022-08-03T16:23:37Z</time>
      </trkpt>
      <trkpt lat="45.60241" lon="1.89521">
        <ele>708.6</ele>
        <time>2022-08-03T16:23:39Z</time>
      </trkpt>
      <trkpt lat="45.60253" lon="1.89529">
        <ele>707</ele>
        <time>2022-08-03T16:23:41Z</time>
      </trkpt>
      <trkpt lat="45.60264" lon="1.89539">
        <ele>705.3</ele>
        <time>2022-08-03T16:23:43Z</time>
      </trkpt>
      <trkpt lat="45.60276" lon="1.89551">
        <ele>703.8</ele>
        <time>2022-08-03T16:23:45Z</time>
      </trkpt>
      <trkpt lat="45.60287" lon="1.89562">
        <ele>702.5</ele>
        <time>2022-08-03T16:23:47Z</time>
      </trkpt>
      <trkpt lat="45.60299" lon="1.8957">
        <ele>701.4</ele>
        <time>2022-08-03T16:23:49Z</time>
      </trkpt>
      <trkpt lat="45.60313" lon="1.89574">
        <ele>700.4</ele>
        <time>2022-08-03T16:23:51Z</time>
      </trkpt>
      <trkpt lat="45.60326" lon="1.89577">
        <ele>699.4</ele>
        <time>2022-08-03T16:23:53Z</time>
      </trkpt>
      <trkpt lat="45.60341" lon="1.8958">
        <ele>698.8</ele>
        <time>2022-08-03T16:23:55Z</time>
      </trkpt>
      <trkpt lat="45.60356" lon="1.89583">
        <ele>698.5</ele>
        <time>2022-08-03T16:23:57Z</time>
      </trkpt>
      <trkpt lat="45.60372" lon="1.89586">
        <ele>697.7</ele>
        <time>2022-08-03T16:23:59Z</time>
      </trkpt>
      <trkpt lat="45.60387" lon="1.8959">
        <ele>696.7</ele>
        <time>2022-08-03T16:24:01Z</time>
      </trkpt>
      <trkpt lat="45.60403" lon="1.89594">
        <ele>695.6</ele>
        <time>2022-08-03T16:24:03Z</time>
      </trkpt>
      <trkpt lat="45.60419" lon="1.89598">
        <ele>694.5</ele>
        <time>2022-08-03T16:24:05Z</time>
      </trkpt>
      <trkpt lat="45.60433" lon="1.89604">
        <ele>695</ele>
        <time>2022-08-03T16:24:07Z</time>
      </trkpt>
      <trkpt lat="45.60448" lon="1.89613">
        <ele>694.6</ele>
        <time>2022-08-03T16:24:09Z</time>
      </trkpt>
      <trkpt lat="45.60462" lon="1.89626">
        <ele>693.2</ele>
        <time>2022-08-03T16:24:11Z</time>
      </trkpt>
      <trkpt lat="45.60475" lon="1.89641">
        <ele>690.8</ele>
        <time>2022-08-03T16:24:13Z</time>
      </trkpt>
      <trkpt lat="45.60486" lon="1.89658">
        <ele>687.5</ele>
        <time>2022-08-03T16:24:15Z</time>
      </trkpt>
      <trkpt lat="45.60498" lon="1.89672">
        <ele>685.2</ele>
        <time>2022-08-03T16:24:17Z</time>
      </trkpt>
      <trkpt lat="45.6051" lon="1.89688">
        <ele>684.5</ele>
        <time>2022-08-03T16:24:19Z</time>
      </trkpt>
      <trkpt lat="45.60526" lon="1.897">
        <ele>684.6</ele>
        <time>2022-08-03T16:24:21Z</time>
      </trkpt>
      <trkpt lat="45.60535" lon="1.89714">
        <ele>683.3</ele>
        <time>2022-08-03T16:24:23Z</time>
      </trkpt>
      <trkpt lat="45.60551" lon="1.8972">
        <ele>683.8</ele>
        <time>2022-08-03T16:24:25Z</time>
      </trkpt>
      <trkpt lat="45.60569" lon="1.8972">
        <ele>685.5</ele>
        <time>2022-08-03T16:24:27Z</time>
      </trkpt>
      <trkpt lat="45.60588" lon="1.89721">
        <ele>686.8</ele>
        <time>2022-08-03T16:24:29Z</time>
      </trkpt>
      <trkpt lat="45.60603" lon="1.89728">
        <ele>685.5</ele>
        <time>2022-08-03T16:24:31Z</time>
      </trkpt>
      <trkpt lat="45.60612" lon="1.89742">
        <ele>682.2</ele>
        <time>2022-08-03T16:24:33Z</time>
      </trkpt>
      <trkpt lat="45.60622" lon="1.89752">
        <ele>680.1</ele>
        <time>2022-08-03T16:24:35Z</time>
      </trkpt>
      <trkpt lat="45.60626" lon="1.89756">
        <ele>679.7</ele>
        <time>2022-08-03T16:24:37Z</time>
      </trkpt>
      <trkpt lat="45.60629" lon="1.89758">
        <ele>679.4</ele>
        <time>2022-08-03T16:24:39Z</time>
      </trkpt>
      <trkpt lat="45.60633" lon="1.89762">
        <ele>679</ele>
        <time>2022-08-03T16:24:41Z</time>
      </trkpt>
      <trkpt lat="45.60637" lon="1.89765">
        <ele>678.7</ele>
        <time>2022-08-03T16:24:43Z</time>
      </trkpt>
      <trkpt lat="45.60642" lon="1.89764">
        <ele>678.9</ele>
        <time>2022-08-03T16:24:45Z</time>
      </trkpt>
      <trkpt lat="45.60649" lon="1.89766">
        <ele>678.9</ele>
        <time>2022-08-03T16:24:47Z</time>
      </trkpt>
      <trkpt lat="45.60653" lon="1.89765">
        <ele>679.1</ele>
        <time>2022-08-03T16:24:49Z</time>
      </trkpt>
      <trkpt lat="45.60659" lon="1.89763">
        <ele>679.4</ele>
        <time>2022-08-03T16:24:51Z</time>
      </trkpt>
      <trkpt lat="45.60665" lon="1.89761">
        <ele>679.8</ele>
        <time>2022-08-03T16:24:53Z</time>
      </trkpt>
      <trkpt lat="45.60668" lon="1.89759">
        <ele>679.9</ele>
        <time>2022-08-03T16:24:55Z</time>
      </trkpt>
      <trkpt lat="45.60673" lon="1.89757">
        <ele>679.7</ele>
        <time>2022-08-03T16:24:57Z</time>
      </trkpt>
      <trkpt lat="45.60678" lon="1.89758">
        <ele>679.2</ele>
        <time>2022-08-03T16:24:59Z</time>
      </trkpt>
      <trkpt lat="45.60684" lon="1.89759">
        <ele>678.7</ele>
        <time>2022-08-03T16:25:01Z</time>
      </trkpt>
      <trkpt lat="45.60688" lon="1.89762">
        <ele>678.1</ele>
        <time>2022-08-03T16:25:03Z</time>
      </trkpt>
      <trkpt lat="45.60693" lon="1.89767">
        <ele>677.5</ele>
        <time>2022-08-03T16:25:05Z</time>
      </trkpt>
      <trkpt lat="45.60697" lon="1.89773">
        <ele>676.9</ele>
        <time>2022-08-03T16:25:07Z</time>
      </trkpt>
      <trkpt lat="45.60699" lon="1.89777">
        <ele>676.6</ele>
        <time>2022-08-03T16:25:09Z</time>
      </trkpt>
      <trkpt lat="45.60702" lon="1.89781">
        <ele>676.3</ele>
        <time>2022-08-03T16:25:11Z</time>
      </trkpt>
      <trkpt lat="45.60705" lon="1.89783">
        <ele>676.1</ele>
        <time>2022-08-03T16:25:13Z</time>
      </trkpt>
      <trkpt lat="45.60706" lon="1.89786">
        <ele>676</ele>
        <time>2022-08-03T16:25:15Z</time>
      </trkpt>
      <trkpt lat="45.60706" lon="1.89787">
        <ele>676</ele>
        <time>2022-08-03T16:25:17Z</time>
      </trkpt>
      <trkpt lat="45.60706" lon="1.89787">
        <ele>675.9</ele>
        <time>2022-08-03T16:25:19Z</time>
      </trkpt>
      <trkpt lat="45.60707" lon="1.89787">
        <ele>675.9</ele>
        <time>2022-08-03T16:25:21Z</time>
      </trkpt>
      <trkpt lat="45.60707" lon="1.89787">
        <ele>675.9</ele>
        <time>2022-08-03T16:25:23Z</time>
      </trkpt>
      <trkpt lat="45.60707" lon="1.89788">
        <ele>675.9</ele>
        <time>2022-08-03T16:25:25Z</time>
      </trkpt>
      <trkpt lat="45.60722" lon="1.89819">
        <ele>675.4</ele>
        <time>2022-08-03T16:28:23Z</time>
      </trkpt>
      <trkpt lat="45.60726" lon="1.89823">
        <ele>675.5</ele>
        <time>2022-08-03T16:28:25Z</time>
      </trkpt>
      <trkpt lat="45.6073" lon="1.89824">
        <ele>675.7</ele>
        <time>2022-08-03T16:28:27Z</time>
      </trkpt>
      <trkpt lat="45.60732" lon="1.89823">
        <ele>675.8</ele>
        <time>2022-08-03T16:28:29Z</time>
      </trkpt>
      <trkpt lat="45.60734" lon="1.89821">
        <ele>675.8</ele>
        <time>2022-08-03T16:28:31Z</time>
      </trkpt>
      <trkpt lat="45.60736" lon="1.8982">
        <ele>675.9</ele>
        <time>2022-08-03T16:28:33Z</time>
      </trkpt>
      <trkpt lat="45.6074" lon="1.89818">
        <ele>676</ele>
        <time>2022-08-03T16:28:35Z</time>
      </trkpt>
      <trkpt lat="45.60743" lon="1.89815">
        <ele>675.9</ele>
        <time>2022-08-03T16:28:37Z</time>
      </trkpt>
      <trkpt lat="45.60745" lon="1.8981">
        <ele>675.8</ele>
        <time>2022-08-03T16:28:39Z</time>
      </trkpt>
      <trkpt lat="45.60748" lon="1.89806">
        <ele>675.7</ele>
        <time>2022-08-03T16:28:41Z</time>
      </trkpt>
      <trkpt lat="45.6075" lon="1.89804">
        <ele>675.6</ele>
        <time>2022-08-03T16:28:43Z</time>
      </trkpt>
      <trkpt lat="45.60752" lon="1.89801">
        <ele>675.6</ele>
        <time>2022-08-03T16:28:45Z</time>
      </trkpt>
      <trkpt lat="45.60755" lon="1.89795">
        <ele>675.6</ele>
        <time>2022-08-03T16:28:47Z</time>
      </trkpt>
      <trkpt lat="45.60758" lon="1.8979">
        <ele>675.5</ele>
        <time>2022-08-03T16:28:49Z</time>
      </trkpt>
      <trkpt lat="45.6076" lon="1.89786">
        <ele>675.5</ele>
        <time>2022-08-03T16:28:51Z</time>
      </trkpt>
      <trkpt lat="45.60762" lon="1.89782">
        <ele>675.4</ele>
        <time>2022-08-03T16:28:53Z</time>
      </trkpt>
      <trkpt lat="45.60766" lon="1.89779">
        <ele>675.5</ele>
        <time>2022-08-03T16:28:55Z</time>
      </trkpt>
      <trkpt lat="45.6077" lon="1.89776">
        <ele>675.5</ele>
        <time>2022-08-03T16:28:57Z</time>
      </trkpt>
      <trkpt lat="45.60775" lon="1.89771">
        <ele>675.6</ele>
        <time>2022-08-03T16:28:59Z</time>
      </trkpt>
      <trkpt lat="45.60779" lon="1.89766">
        <ele>675.5</ele>
        <time>2022-08-03T16:29:01Z</time>
      </trkpt>
      <trkpt lat="45.60785" lon="1.89763">
        <ele>675.6</ele>
        <time>2022-08-03T16:29:03Z</time>
      </trkpt>
      <trkpt lat="45.6079" lon="1.89759">
        <ele>675.6</ele>
        <time>2022-08-03T16:29:05Z</time>
      </trkpt>
      <trkpt lat="45.60796" lon="1.89756">
        <ele>675.7</ele>
        <time>2022-08-03T16:29:07Z</time>
      </trkpt>
      <trkpt lat="45.60802" lon="1.89752">
        <ele>675.7</ele>
        <time>2022-08-03T16:29:09Z</time>
      </trkpt>
      <trkpt lat="45.60806" lon="1.89749">
        <ele>675.7</ele>
        <time>2022-08-03T16:29:11Z</time>
      </trkpt>
      <trkpt lat="45.60811" lon="1.89747">
        <ele>675.9</ele>
        <time>2022-08-03T16:29:13Z</time>
      </trkpt>
      <trkpt lat="45.60816" lon="1.89744">
        <ele>676</ele>
        <time>2022-08-03T16:29:15Z</time>
      </trkpt>
      <trkpt lat="45.60821" lon="1.89742">
        <ele>676</ele>
        <time>2022-08-03T16:29:17Z</time>
      </trkpt>
      <trkpt lat="45.60827" lon="1.89738">
        <ele>675.9</ele>
        <time>2022-08-03T16:29:19Z</time>
      </trkpt>
      <trkpt lat="45.60833" lon="1.89735">
        <ele>675.8</ele>
        <time>2022-08-03T16:29:21Z</time>
      </trkpt>
      <trkpt lat="45.60839" lon="1.89734">
        <ele>675.5</ele>
        <time>2022-08-03T16:29:23Z</time>
      </trkpt>
      <trkpt lat="45.60845" lon="1.89731">
        <ele>675.2</ele>
        <time>2022-08-03T16:29:25Z</time>
      </trkpt>
      <trkpt lat="45.6085" lon="1.89729">
        <ele>674.8</ele>
        <time>2022-08-03T16:29:27Z</time>
      </trkpt>
      <trkpt lat="45.60857" lon="1.89729">
        <ele>674.7</ele>
        <time>2022-08-03T16:29:29Z</time>
      </trkpt>
      <trkpt lat="45.60862" lon="1.89727">
        <ele>674.4</ele>
        <time>2022-08-03T16:29:31Z</time>
      </trkpt>
      <trkpt lat="45.60869" lon="1.89726">
        <ele>674.1</ele>
        <time>2022-08-03T16:29:33Z</time>
      </trkpt>
      <trkpt lat="45.60875" lon="1.89725">
        <ele>673.9</ele>
        <time>2022-08-03T16:29:35Z</time>
      </trkpt>
      <trkpt lat="45.60882" lon="1.89725">
        <ele>673.7</ele>
        <time>2022-08-03T16:29:37Z</time>
      </trkpt>
      <trkpt lat="45.6089" lon="1.89726">
        <ele>673.6</ele>
        <time>2022-08-03T16:29:39Z</time>
      </trkpt>
      <trkpt lat="45.60897" lon="1.89726">
        <ele>673.5</ele>
        <time>2022-08-03T16:29:41Z</time>
      </trkpt>
      <trkpt lat="45.60903" lon="1.89728">
        <ele>673.5</ele>
        <time>2022-08-03T16:29:43Z</time>
      </trkpt>
      <trkpt lat="45.60911" lon="1.89731">
        <ele>673.5</ele>
        <time>2022-08-03T16:29:45Z</time>
      </trkpt>
      <trkpt lat="45.60917" lon="1.89733">
        <ele>673.6</ele>
        <time>2022-08-03T16:29:47Z</time>
      </trkpt>
      <trkpt lat="45.60923" lon="1.89737">
        <ele>673.6</ele>
        <time>2022-08-03T16:29:49Z</time>
      </trkpt>
      <trkpt lat="45.60929" lon="1.89741">
        <ele>673.6</ele>
        <time>2022-08-03T16:29:51Z</time>
      </trkpt>
      <trkpt lat="45.60935" lon="1.89744">
        <ele>673.5</ele>
        <time>2022-08-03T16:29:53Z</time>
      </trkpt>
      <trkpt lat="45.60941" lon="1.89749">
        <ele>673.4</ele>
        <time>2022-08-03T16:29:55Z</time>
      </trkpt>
      <trkpt lat="45.60947" lon="1.89754">
        <ele>673.4</ele>
        <time>2022-08-03T16:29:57Z</time>
      </trkpt>
      <trkpt lat="45.60954" lon="1.8976">
        <ele>673.3</ele>
        <time>2022-08-03T16:29:59Z</time>
      </trkpt>
      <trkpt lat="45.6096" lon="1.89765">
        <ele>673.1</ele>
        <time>2022-08-03T16:30:01Z</time>
      </trkpt>
      <trkpt lat="45.60967" lon="1.8977">
        <ele>672.9</ele>
        <time>2022-08-03T16:30:03Z</time>
      </trkpt>
      <trkpt lat="45.60974" lon="1.89776">
        <ele>672.7</ele>
        <time>2022-08-03T16:30:05Z</time>
      </trkpt>
      <trkpt lat="45.6098" lon="1.89783">
        <ele>672.5</ele>
        <time>2022-08-03T16:30:07Z</time>
      </trkpt>
      <trkpt lat="45.60986" lon="1.8979">
        <ele>672.5</ele>
        <time>2022-08-03T16:30:09Z</time>
      </trkpt>
      <trkpt lat="45.6099" lon="1.89798">
        <ele>672.5</ele>
        <time>2022-08-03T16:30:11Z</time>
      </trkpt>
      <trkpt lat="45.60993" lon="1.89807">
        <ele>672.5</ele>
        <time>2022-08-03T16:30:13Z</time>
      </trkpt>
      <trkpt lat="45.60996" lon="1.89815">
        <ele>672.7</ele>
        <time>2022-08-03T16:30:15Z</time>
      </trkpt>
      <trkpt lat="45.60997" lon="1.89825">
        <ele>672.9</ele>
        <time>2022-08-03T16:30:17Z</time>
      </trkpt>
      <trkpt lat="45.60998" lon="1.89834">
        <ele>673.2</ele>
        <time>2022-08-03T16:30:19Z</time>
      </trkpt>
      <trkpt lat="45.60999" lon="1.89844">
        <ele>673.4</ele>
        <time>2022-08-03T16:30:21Z</time>
      </trkpt>
      <trkpt lat="45.60998" lon="1.89853">
        <ele>673.6</ele>
        <time>2022-08-03T16:30:23Z</time>
      </trkpt>
      <trkpt lat="45.60998" lon="1.89862">
        <ele>673.9</ele>
        <time>2022-08-03T16:30:25Z</time>
      </trkpt>
      <trkpt lat="45.60999" lon="1.89871">
        <ele>674.1</ele>
        <time>2022-08-03T16:30:27Z</time>
      </trkpt>
      <trkpt lat="45.61001" lon="1.8988">
        <ele>674.1</ele>
        <time>2022-08-03T16:30:29Z</time>
      </trkpt>
      <trkpt lat="45.61002" lon="1.89889">
        <ele>674.2</ele>
        <time>2022-08-03T16:30:31Z</time>
      </trkpt>
      <trkpt lat="45.61005" lon="1.89897">
        <ele>674.2</ele>
        <time>2022-08-03T16:30:33Z</time>
      </trkpt>
      <trkpt lat="45.61008" lon="1.89905">
        <ele>674.2</ele>
        <time>2022-08-03T16:30:35Z</time>
      </trkpt>
      <trkpt lat="45.61013" lon="1.89912">
        <ele>674.1</ele>
        <time>2022-08-03T16:30:37Z</time>
      </trkpt>
      <trkpt lat="45.61017" lon="1.89918">
        <ele>674.1</ele>
        <time>2022-08-03T16:30:39Z</time>
      </trkpt>
      <trkpt lat="45.61021" lon="1.89923">
        <ele>674.2</ele>
        <time>2022-08-03T16:30:41Z</time>
      </trkpt>
      <trkpt lat="45.61028" lon="1.89929">
        <ele>674.3</ele>
        <time>2022-08-03T16:30:43Z</time>
      </trkpt>
      <trkpt lat="45.61034" lon="1.89933">
        <ele>674.3</ele>
        <time>2022-08-03T16:30:45Z</time>
      </trkpt>
      <trkpt lat="45.6104" lon="1.89936">
        <ele>674.1</ele>
        <time>2022-08-03T16:30:47Z</time>
      </trkpt>
      <trkpt lat="45.61046" lon="1.89939">
        <ele>674</ele>
        <time>2022-08-03T16:30:49Z</time>
      </trkpt>
      <trkpt lat="45.61053" lon="1.89943">
        <ele>673.9</ele>
        <time>2022-08-03T16:30:51Z</time>
      </trkpt>
      <trkpt lat="45.6106" lon="1.89946">
        <ele>673.8</ele>
        <time>2022-08-03T16:30:53Z</time>
      </trkpt>
      <trkpt lat="45.61066" lon="1.8995">
        <ele>673.7</ele>
        <time>2022-08-03T16:30:55Z</time>
      </trkpt>
      <trkpt lat="45.61072" lon="1.89953">
        <ele>673.6</ele>
        <time>2022-08-03T16:30:57Z</time>
      </trkpt>
      <trkpt lat="45.61079" lon="1.89956">
        <ele>673.6</ele>
        <time>2022-08-03T16:30:59Z</time>
      </trkpt>
      <trkpt lat="45.61085" lon="1.89959">
        <ele>673.7</ele>
        <time>2022-08-03T16:31:01Z</time>
      </trkpt>
      <trkpt lat="45.61092" lon="1.89963">
        <ele>674.3</ele>
        <time>2022-08-03T16:31:03Z</time>
      </trkpt>
      <trkpt lat="45.61098" lon="1.89965">
        <ele>674.9</ele>
        <time>2022-08-03T16:31:05Z</time>
      </trkpt>
      <trkpt lat="45.61104" lon="1.89968">
        <ele>675.5</ele>
        <time>2022-08-03T16:31:07Z</time>
      </trkpt>
      <trkpt lat="45.6111" lon="1.89972">
        <ele>676.1</ele>
        <time>2022-08-03T16:31:09Z</time>
      </trkpt>
      <trkpt lat="45.61117" lon="1.89975">
        <ele>676.6</ele>
        <time>2022-08-03T16:31:11Z</time>
      </trkpt>
      <trkpt lat="45.61123" lon="1.89977">
        <ele>677</ele>
        <time>2022-08-03T16:31:13Z</time>
      </trkpt>
      <trkpt lat="45.6113" lon="1.89979">
        <ele>677.5</ele>
        <time>2022-08-03T16:31:15Z</time>
      </trkpt>
      <trkpt lat="45.61136" lon="1.8998">
        <ele>677.8</ele>
        <time>2022-08-03T16:31:17Z</time>
      </trkpt>
      <trkpt lat="45.61142" lon="1.8998">
        <ele>678.1</ele>
        <time>2022-08-03T16:31:19Z</time>
      </trkpt>
      <trkpt lat="45.61148" lon="1.89978">
        <ele>678.3</ele>
        <time>2022-08-03T16:31:21Z</time>
      </trkpt>
      <trkpt lat="45.61154" lon="1.89974">
        <ele>678.4</ele>
        <time>2022-08-03T16:31:23Z</time>
      </trkpt>
      <trkpt lat="45.61159" lon="1.8997">
        <ele>678.5</ele>
        <time>2022-08-03T16:31:25Z</time>
      </trkpt>
      <trkpt lat="45.61163" lon="1.89966">
        <ele>678.6</ele>
        <time>2022-08-03T16:31:27Z</time>
      </trkpt>
      <trkpt lat="45.61167" lon="1.89961">
        <ele>678.6</ele>
        <time>2022-08-03T16:31:29Z</time>
      </trkpt>
      <trkpt lat="45.6117" lon="1.89958">
        <ele>678.6</ele>
        <time>2022-08-03T16:31:31Z</time>
      </trkpt>
      <trkpt lat="45.61173" lon="1.89955">
        <ele>678.7</ele>
        <time>2022-08-03T16:31:33Z</time>
      </trkpt>
      <trkpt lat="45.61176" lon="1.89952">
        <ele>678.8</ele>
        <time>2022-08-03T16:31:35Z</time>
      </trkpt>
      <trkpt lat="45.61178" lon="1.8995">
        <ele>678.9</ele>
        <time>2022-08-03T16:31:37Z</time>
      </trkpt>
      <trkpt lat="45.61182" lon="1.89949">
        <ele>679.1</ele>
        <time>2022-08-03T16:31:39Z</time>
      </trkpt>
      <trkpt lat="45.61185" lon="1.89948">
        <ele>679.3</ele>
        <time>2022-08-03T16:31:41Z</time>
      </trkpt>
      <trkpt lat="45.61187" lon="1.89947">
        <ele>679.4</ele>
        <time>2022-08-03T16:31:43Z</time>
      </trkpt>
      <trkpt lat="45.6119" lon="1.89946">
        <ele>679.5</ele>
        <time>2022-08-03T16:31:45Z</time>
      </trkpt>
      <trkpt lat="45.61193" lon="1.89943">
        <ele>679.6</ele>
        <time>2022-08-03T16:31:47Z</time>
      </trkpt>
      <trkpt lat="45.61193" lon="1.89937">
        <ele>679.5</ele>
        <time>2022-08-03T16:31:49Z</time>
      </trkpt>
      <trkpt lat="45.61191" lon="1.89929">
        <ele>679.1</ele>
        <time>2022-08-03T16:31:51Z</time>
      </trkpt>
      <trkpt lat="45.6119" lon="1.8992">
        <ele>678.7</ele>
        <time>2022-08-03T16:31:53Z</time>
      </trkpt>
      <trkpt lat="45.61187" lon="1.89909">
        <ele>678.4</ele>
        <time>2022-08-03T16:31:55Z</time>
      </trkpt>
      <trkpt lat="45.61185" lon="1.89897">
        <ele>678.1</ele>
        <time>2022-08-03T16:31:57Z</time>
      </trkpt>
      <trkpt lat="45.61181" lon="1.89884">
        <ele>677.8</ele>
        <time>2022-08-03T16:31:59Z</time>
      </trkpt>
      <trkpt lat="45.61178" lon="1.8987">
        <ele>677.6</ele>
        <time>2022-08-03T16:32:01Z</time>
      </trkpt>
      <trkpt lat="45.61175" lon="1.89857">
        <ele>677.4</ele>
        <time>2022-08-03T16:32:03Z</time>
      </trkpt>
      <trkpt lat="45.61172" lon="1.89843">
        <ele>677.2</ele>
        <time>2022-08-03T16:32:05Z</time>
      </trkpt>
      <trkpt lat="45.6117" lon="1.8983">
        <ele>677.3</ele>
        <time>2022-08-03T16:32:07Z</time>
      </trkpt>
      <trkpt lat="45.61166" lon="1.89818">
        <ele>677.7</ele>
        <time>2022-08-03T16:32:09Z</time>
      </trkpt>
      <trkpt lat="45.61164" lon="1.89805">
        <ele>678</ele>
        <time>2022-08-03T16:32:11Z</time>
      </trkpt>
      <trkpt lat="45.61161" lon="1.89794">
        <ele>678.2</ele>
        <time>2022-08-03T16:32:13Z</time>
      </trkpt>
      <trkpt lat="45.61159" lon="1.89782">
        <ele>678.4</ele>
        <time>2022-08-03T16:32:15Z</time>
      </trkpt>
      <trkpt lat="45.61156" lon="1.89771">
        <ele>678.6</ele>
        <time>2022-08-03T16:32:17Z</time>
      </trkpt>
      <trkpt lat="45.61154" lon="1.89761">
        <ele>678.8</ele>
        <time>2022-08-03T16:32:19Z</time>
      </trkpt>
      <trkpt lat="45.61152" lon="1.8975">
        <ele>678.9</ele>
        <time>2022-08-03T16:32:21Z</time>
      </trkpt>
      <trkpt lat="45.6115" lon="1.89739">
        <ele>679.3</ele>
        <time>2022-08-03T16:32:23Z</time>
      </trkpt>
      <trkpt lat="45.61148" lon="1.89729">
        <ele>679.8</ele>
        <time>2022-08-03T16:32:25Z</time>
      </trkpt>
      <trkpt lat="45.61147" lon="1.89718">
        <ele>680.2</ele>
        <time>2022-08-03T16:32:27Z</time>
      </trkpt>
      <trkpt lat="45.61145" lon="1.89709">
        <ele>680.6</ele>
        <time>2022-08-03T16:32:29Z</time>
      </trkpt>
      <trkpt lat="45.61143" lon="1.89699">
        <ele>681</ele>
        <time>2022-08-03T16:32:31Z</time>
      </trkpt>
      <trkpt lat="45.61142" lon="1.89689">
        <ele>681.4</ele>
        <time>2022-08-03T16:32:33Z</time>
      </trkpt>
      <trkpt lat="45.61141" lon="1.8968">
        <ele>681.8</ele>
        <time>2022-08-03T16:32:35Z</time>
      </trkpt>
      <trkpt lat="45.6114" lon="1.89671">
        <ele>682.3</ele>
        <time>2022-08-03T16:32:37Z</time>
      </trkpt>
      <trkpt lat="45.6114" lon="1.89661">
        <ele>682.9</ele>
        <time>2022-08-03T16:32:39Z</time>
      </trkpt>
      <trkpt lat="45.61139" lon="1.89652">
        <ele>683.4</ele>
        <time>2022-08-03T16:32:41Z</time>
      </trkpt>
      <trkpt lat="45.61139" lon="1.89643">
        <ele>684.1</ele>
        <time>2022-08-03T16:32:43Z</time>
      </trkpt>
      <trkpt lat="45.61139" lon="1.89634">
        <ele>684.7</ele>
        <time>2022-08-03T16:32:45Z</time>
      </trkpt>
      <trkpt lat="45.61139" lon="1.89625">
        <ele>685.3</ele>
        <time>2022-08-03T16:32:47Z</time>
      </trkpt>
      <trkpt lat="45.61139" lon="1.89616">
        <ele>686.1</ele>
        <time>2022-08-03T16:32:49Z</time>
      </trkpt>
      <trkpt lat="45.6114" lon="1.89608">
        <ele>686.7</ele>
        <time>2022-08-03T16:32:51Z</time>
      </trkpt>
      <trkpt lat="45.6114" lon="1.89599">
        <ele>687.3</ele>
        <time>2022-08-03T16:32:53Z</time>
      </trkpt>
      <trkpt lat="45.6114" lon="1.8959">
        <ele>688.2</ele>
        <time>2022-08-03T16:32:55Z</time>
      </trkpt>
      <trkpt lat="45.61141" lon="1.89583">
        <ele>688.8</ele>
        <time>2022-08-03T16:32:57Z</time>
      </trkpt>
      <trkpt lat="45.61141" lon="1.89574">
        <ele>688.7</ele>
        <time>2022-08-03T16:32:59Z</time>
      </trkpt>
      <trkpt lat="45.61141" lon="1.89565">
        <ele>688.5</ele>
        <time>2022-08-03T16:33:01Z</time>
      </trkpt>
      <trkpt lat="45.61143" lon="1.89557">
        <ele>688.6</ele>
        <time>2022-08-03T16:33:03Z</time>
      </trkpt>
      <trkpt lat="45.61143" lon="1.89548">
        <ele>688.5</ele>
        <time>2022-08-03T16:33:05Z</time>
      </trkpt>
      <trkpt lat="45.61144" lon="1.8954">
        <ele>688.5</ele>
        <time>2022-08-03T16:33:07Z</time>
      </trkpt>
      <trkpt lat="45.61146" lon="1.89532">
        <ele>688.7</ele>
        <time>2022-08-03T16:33:09Z</time>
      </trkpt>
      <trkpt lat="45.61147" lon="1.89523">
        <ele>688.6</ele>
        <time>2022-08-03T16:33:11Z</time>
      </trkpt>
      <trkpt lat="45.61149" lon="1.89515">
        <ele>688.8</ele>
        <time>2022-08-03T16:33:13Z</time>
      </trkpt>
      <trkpt lat="45.61151" lon="1.89507">
        <ele>688.9</ele>
        <time>2022-08-03T16:33:15Z</time>
      </trkpt>
      <trkpt lat="45.61153" lon="1.89498">
        <ele>689</ele>
        <time>2022-08-03T16:33:17Z</time>
      </trkpt>
      <trkpt lat="45.61155" lon="1.89489">
        <ele>688.4</ele>
        <time>2022-08-03T16:33:19Z</time>
      </trkpt>
      <trkpt lat="45.61157" lon="1.89479">
        <ele>687.8</ele>
        <time>2022-08-03T16:33:21Z</time>
      </trkpt>
      <trkpt lat="45.61159" lon="1.89469">
        <ele>687.2</ele>
        <time>2022-08-03T16:33:23Z</time>
      </trkpt>
      <trkpt lat="45.61162" lon="1.89459">
        <ele>686.4</ele>
        <time>2022-08-03T16:33:25Z</time>
      </trkpt>
      <trkpt lat="45.61165" lon="1.89448">
        <ele>685.6</ele>
        <time>2022-08-03T16:33:27Z</time>
      </trkpt>
      <trkpt lat="45.61168" lon="1.89437">
        <ele>684.7</ele>
        <time>2022-08-03T16:33:29Z</time>
      </trkpt>
      <trkpt lat="45.61172" lon="1.89425">
        <ele>684</ele>
        <time>2022-08-03T16:33:31Z</time>
      </trkpt>
      <trkpt lat="45.61176" lon="1.89414">
        <ele>683.6</ele>
        <time>2022-08-03T16:33:33Z</time>
      </trkpt>
      <trkpt lat="45.6118" lon="1.89399">
        <ele>683.6</ele>
        <time>2022-08-03T16:33:35Z</time>
      </trkpt>
      <trkpt lat="45.61185" lon="1.89385">
        <ele>683.8</ele>
        <time>2022-08-03T16:33:37Z</time>
      </trkpt>
      <trkpt lat="45.61189" lon="1.8937">
        <ele>683.8</ele>
        <time>2022-08-03T16:33:39Z</time>
      </trkpt>
      <trkpt lat="45.61194" lon="1.89353">
        <ele>683.7</ele>
        <time>2022-08-03T16:33:41Z</time>
      </trkpt>
      <trkpt lat="45.612" lon="1.89336">
        <ele>683.5</ele>
        <time>2022-08-03T16:33:43Z</time>
      </trkpt>
      <trkpt lat="45.61205" lon="1.89318">
        <ele>684.5</ele>
        <time>2022-08-03T16:33:45Z</time>
      </trkpt>
      <trkpt lat="45.61211" lon="1.893">
        <ele>685.2</ele>
        <time>2022-08-03T16:33:47Z</time>
      </trkpt>
      <trkpt lat="45.61217" lon="1.89281">
        <ele>685.5</ele>
        <time>2022-08-03T16:33:49Z</time>
      </trkpt>
      <trkpt lat="45.61222" lon="1.89263">
        <ele>685.2</ele>
        <time>2022-08-03T16:33:51Z</time>
      </trkpt>
      <trkpt lat="45.61227" lon="1.89246">
        <ele>684.8</ele>
        <time>2022-08-03T16:33:53Z</time>
      </trkpt>
      <trkpt lat="45.61232" lon="1.89229">
        <ele>685.2</ele>
        <time>2022-08-03T16:33:55Z</time>
      </trkpt>
      <trkpt lat="45.61236" lon="1.89212">
        <ele>685.7</ele>
        <time>2022-08-03T16:33:57Z</time>
      </trkpt>
      <trkpt lat="45.6124" lon="1.89198">
        <ele>686.2</ele>
        <time>2022-08-03T16:33:59Z</time>
      </trkpt>
      <trkpt lat="45.61242" lon="1.89184">
        <ele>686.7</ele>
        <time>2022-08-03T16:34:01Z</time>
      </trkpt>
      <trkpt lat="45.61244" lon="1.8917">
        <ele>687.2</ele>
        <time>2022-08-03T16:34:03Z</time>
      </trkpt>
      <trkpt lat="45.61245" lon="1.89159">
        <ele>687.5</ele>
        <time>2022-08-03T16:34:05Z</time>
      </trkpt>
      <trkpt lat="45.61247" lon="1.89148">
        <ele>687.6</ele>
        <time>2022-08-03T16:34:07Z</time>
      </trkpt>
      <trkpt lat="45.61247" lon="1.89138">
        <ele>687.8</ele>
        <time>2022-08-03T16:34:09Z</time>
      </trkpt>
      <trkpt lat="45.61248" lon="1.89129">
        <ele>688</ele>
        <time>2022-08-03T16:34:11Z</time>
      </trkpt>
      <trkpt lat="45.61248" lon="1.8912">
        <ele>688.2</ele>
        <time>2022-08-03T16:34:13Z</time>
      </trkpt>
      <trkpt lat="45.61249" lon="1.89112">
        <ele>688.4</ele>
        <time>2022-08-03T16:34:15Z</time>
      </trkpt>
      <trkpt lat="45.61249" lon="1.89104">
        <ele>688.5</ele>
        <time>2022-08-03T16:34:17Z</time>
      </trkpt>
      <trkpt lat="45.61249" lon="1.89095">
        <ele>688.8</ele>
        <time>2022-08-03T16:34:19Z</time>
      </trkpt>
      <trkpt lat="45.61248" lon="1.89088">
        <ele>689</ele>
        <time>2022-08-03T16:34:21Z</time>
      </trkpt>
      <trkpt lat="45.61248" lon="1.8908">
        <ele>689.2</ele>
        <time>2022-08-03T16:34:23Z</time>
      </trkpt>
      <trkpt lat="45.61247" lon="1.89073">
        <ele>689.4</ele>
        <time>2022-08-03T16:34:25Z</time>
      </trkpt>
      <trkpt lat="45.61246" lon="1.89065">
        <ele>689.7</ele>
        <time>2022-08-03T16:34:27Z</time>
      </trkpt>
      <trkpt lat="45.61245" lon="1.89059">
        <ele>689.9</ele>
        <time>2022-08-03T16:34:29Z</time>
      </trkpt>
      <trkpt lat="45.61245" lon="1.89052">
        <ele>690.1</ele>
        <time>2022-08-03T16:34:31Z</time>
      </trkpt>
      <trkpt lat="45.61243" lon="1.89045">
        <ele>690.4</ele>
        <time>2022-08-03T16:34:33Z</time>
      </trkpt>
      <trkpt lat="45.61242" lon="1.89038">
        <ele>690.6</ele>
        <time>2022-08-03T16:34:35Z</time>
      </trkpt>
      <trkpt lat="45.6124" lon="1.89031">
        <ele>690.8</ele>
        <time>2022-08-03T16:34:37Z</time>
      </trkpt>
      <trkpt lat="45.61239" lon="1.89024">
        <ele>690.9</ele>
        <time>2022-08-03T16:34:39Z</time>
      </trkpt>
      <trkpt lat="45.61237" lon="1.89017">
        <ele>691.1</ele>
        <time>2022-08-03T16:34:41Z</time>
      </trkpt>
      <trkpt lat="45.61236" lon="1.8901">
        <ele>691.2</ele>
        <time>2022-08-03T16:34:43Z</time>
      </trkpt>
      <trkpt lat="45.61234" lon="1.89004">
        <ele>691.3</ele>
        <time>2022-08-03T16:34:45Z</time>
      </trkpt>
      <trkpt lat="45.61233" lon="1.88998">
        <ele>691.7</ele>
        <time>2022-08-03T16:34:47Z</time>
      </trkpt>
      <trkpt lat="45.61231" lon="1.88993">
        <ele>692.3</ele>
        <time>2022-08-03T16:34:49Z</time>
      </trkpt>
      <trkpt lat="45.6123" lon="1.8899">
        <ele>692.8</ele>
        <time>2022-08-03T16:34:51Z</time>
      </trkpt>
      <trkpt lat="45.6123" lon="1.88987">
        <ele>693.1</ele>
        <time>2022-08-03T16:34:53Z</time>
      </trkpt>
      <trkpt lat="45.61229" lon="1.88984">
        <ele>693.5</ele>
        <time>2022-08-03T16:34:55Z</time>
      </trkpt>
      <trkpt lat="45.61227" lon="1.88979">
        <ele>694</ele>
        <time>2022-08-03T16:34:57Z</time>
      </trkpt>
      <trkpt lat="45.61223" lon="1.88974">
        <ele>694.4</ele>
        <time>2022-08-03T16:34:59Z</time>
      </trkpt>
      <trkpt lat="45.6122" lon="1.8897">
        <ele>694.6</ele>
        <time>2022-08-03T16:35:01Z</time>
      </trkpt>
      <trkpt lat="45.61215" lon="1.88968">
        <ele>694.5</ele>
        <time>2022-08-03T16:35:03Z</time>
      </trkpt>
      <trkpt lat="45.61209" lon="1.88967">
        <ele>694.2</ele>
        <time>2022-08-03T16:35:05Z</time>
      </trkpt>
      <trkpt lat="45.61203" lon="1.88967">
        <ele>693.6</ele>
        <time>2022-08-03T16:35:07Z</time>
      </trkpt>
      <trkpt lat="45.61194" lon="1.88967">
        <ele>692.9</ele>
        <time>2022-08-03T16:35:09Z</time>
      </trkpt>
      <trkpt lat="45.61184" lon="1.88968">
        <ele>692</ele>
        <time>2022-08-03T16:35:11Z</time>
      </trkpt>
      <trkpt lat="45.61173" lon="1.88969">
        <ele>691</ele>
        <time>2022-08-03T16:35:13Z</time>
      </trkpt>
      <trkpt lat="45.61159" lon="1.88968">
        <ele>689.6</ele>
        <time>2022-08-03T16:35:15Z</time>
      </trkpt>
      <trkpt lat="45.61146" lon="1.88962">
        <ele>688.2</ele>
        <time>2022-08-03T16:35:17Z</time>
      </trkpt>
      <trkpt lat="45.61134" lon="1.88951">
        <ele>687</ele>
        <time>2022-08-03T16:35:19Z</time>
      </trkpt>
      <trkpt lat="45.61123" lon="1.88935">
        <ele>685.9</ele>
        <time>2022-08-03T16:35:21Z</time>
      </trkpt>
      <trkpt lat="45.61113" lon="1.88919">
        <ele>684.6</ele>
        <time>2022-08-03T16:35:23Z</time>
      </trkpt>
      <trkpt lat="45.61102" lon="1.88902">
        <ele>684.5</ele>
        <time>2022-08-03T16:35:25Z</time>
      </trkpt>
      <trkpt lat="45.61092" lon="1.88883">
        <ele>684.4</ele>
        <time>2022-08-03T16:35:27Z</time>
      </trkpt>
      <trkpt lat="45.61082" lon="1.88864">
        <ele>684.1</ele>
        <time>2022-08-03T16:35:29Z</time>
      </trkpt>
      <trkpt lat="45.61071" lon="1.88843">
        <ele>683.8</ele>
        <time>2022-08-03T16:35:31Z</time>
      </trkpt>
      <trkpt lat="45.61061" lon="1.88826">
        <ele>683.2</ele>
        <time>2022-08-03T16:35:33Z</time>
      </trkpt>
      <trkpt lat="45.61051" lon="1.88808">
        <ele>682.8</ele>
        <time>2022-08-03T16:35:35Z</time>
      </trkpt>
      <trkpt lat="45.61043" lon="1.88786">
        <ele>682.8</ele>
        <time>2022-08-03T16:35:37Z</time>
      </trkpt>
      <trkpt lat="45.61036" lon="1.88763">
        <ele>682.8</ele>
        <time>2022-08-03T16:35:39Z</time>
      </trkpt>
      <trkpt lat="45.61026" lon="1.88743">
        <ele>681.3</ele>
        <time>2022-08-03T16:35:41Z</time>
      </trkpt>
      <trkpt lat="45.61016" lon="1.88722">
        <ele>679.1</ele>
        <time>2022-08-03T16:35:43Z</time>
      </trkpt>
      <trkpt lat="45.61007" lon="1.887">
        <ele>676.6</ele>
        <time>2022-08-03T16:35:45Z</time>
      </trkpt>
      <trkpt lat="45.61" lon="1.88678">
        <ele>675</ele>
        <time>2022-08-03T16:35:47Z</time>
      </trkpt>
      <trkpt lat="45.60999" lon="1.88651">
        <ele>674.3</ele>
        <time>2022-08-03T16:35:49Z</time>
      </trkpt>
      <trkpt lat="45.61" lon="1.8863">
        <ele>673.7</ele>
        <time>2022-08-03T16:35:51Z</time>
      </trkpt>
      <trkpt lat="45.61004" lon="1.8861">
        <ele>674.3</ele>
        <time>2022-08-03T16:35:53Z</time>
      </trkpt>
      <trkpt lat="45.61007" lon="1.8859">
        <ele>674.5</ele>
        <time>2022-08-03T16:35:55Z</time>
      </trkpt>
      <trkpt lat="45.6101" lon="1.88571">
        <ele>674.8</ele>
        <time>2022-08-03T16:35:57Z</time>
      </trkpt>
      <trkpt lat="45.61013" lon="1.88553">
        <ele>675.2</ele>
        <time>2022-08-03T16:35:59Z</time>
      </trkpt>
      <trkpt lat="45.61015" lon="1.88532">
        <ele>675.2</ele>
        <time>2022-08-03T16:36:01Z</time>
      </trkpt>
      <trkpt lat="45.61018" lon="1.88519">
        <ele>675.8</ele>
        <time>2022-08-03T16:36:03Z</time>
      </trkpt>
      <trkpt lat="45.61021" lon="1.88503">
        <ele>676.1</ele>
        <time>2022-08-03T16:36:05Z</time>
      </trkpt>
      <trkpt lat="45.61023" lon="1.88488">
        <ele>676.8</ele>
        <time>2022-08-03T16:36:07Z</time>
      </trkpt>
      <trkpt lat="45.61026" lon="1.88475">
        <ele>677.8</ele>
        <time>2022-08-03T16:36:09Z</time>
      </trkpt>
      <trkpt lat="45.61029" lon="1.88461">
        <ele>678.5</ele>
        <time>2022-08-03T16:36:11Z</time>
      </trkpt>
      <trkpt lat="45.61031" lon="1.88449">
        <ele>679.1</ele>
        <time>2022-08-03T16:36:13Z</time>
      </trkpt>
      <trkpt lat="45.61032" lon="1.88439">
        <ele>679.4</ele>
        <time>2022-08-03T16:36:15Z</time>
      </trkpt>
      <trkpt lat="45.61032" lon="1.8843">
        <ele>679.6</ele>
        <time>2022-08-03T16:36:17Z</time>
      </trkpt>
      <trkpt lat="45.61032" lon="1.88422">
        <ele>679.7</ele>
        <time>2022-08-03T16:36:19Z</time>
      </trkpt>
      <trkpt lat="45.61032" lon="1.88413">
        <ele>679.9</ele>
        <time>2022-08-03T16:36:21Z</time>
      </trkpt>
      <trkpt lat="45.61031" lon="1.88405">
        <ele>679.7</ele>
        <time>2022-08-03T16:36:23Z</time>
      </trkpt>
      <trkpt lat="45.61031" lon="1.88396">
        <ele>679.9</ele>
        <time>2022-08-03T16:36:25Z</time>
      </trkpt>
      <trkpt lat="45.61029" lon="1.88388">
        <ele>679.7</ele>
        <time>2022-08-03T16:36:27Z</time>
      </trkpt>
      <trkpt lat="45.61028" lon="1.8838">
        <ele>679.7</ele>
        <time>2022-08-03T16:36:29Z</time>
      </trkpt>
      <trkpt lat="45.61026" lon="1.88374">
        <ele>679.4</ele>
        <time>2022-08-03T16:36:31Z</time>
      </trkpt>
      <trkpt lat="45.61024" lon="1.88367">
        <ele>679.2</ele>
        <time>2022-08-03T16:36:33Z</time>
      </trkpt>
      <trkpt lat="45.61021" lon="1.88361">
        <ele>678.9</ele>
        <time>2022-08-03T16:36:35Z</time>
      </trkpt>
      <trkpt lat="45.61019" lon="1.88355">
        <ele>678.7</ele>
        <time>2022-08-03T16:36:37Z</time>
      </trkpt>
      <trkpt lat="45.61016" lon="1.88349">
        <ele>678.4</ele>
        <time>2022-08-03T16:36:39Z</time>
      </trkpt>
      <trkpt lat="45.61013" lon="1.88343">
        <ele>678</ele>
        <time>2022-08-03T16:36:41Z</time>
      </trkpt>
      <trkpt lat="45.6101" lon="1.88338">
        <ele>677.7</ele>
        <time>2022-08-03T16:36:43Z</time>
      </trkpt>
      <trkpt lat="45.61007" lon="1.88333">
        <ele>677.3</ele>
        <time>2022-08-03T16:36:45Z</time>
      </trkpt>
      <trkpt lat="45.61004" lon="1.88329">
        <ele>676.9</ele>
        <time>2022-08-03T16:36:47Z</time>
      </trkpt>
      <trkpt lat="45.61" lon="1.88324">
        <ele>676.6</ele>
        <time>2022-08-03T16:36:49Z</time>
      </trkpt>
      <trkpt lat="45.60997" lon="1.88319">
        <ele>676.9</ele>
        <time>2022-08-03T16:36:51Z</time>
      </trkpt>
      <trkpt lat="45.60993" lon="1.88315">
        <ele>677.2</ele>
        <time>2022-08-03T16:36:53Z</time>
      </trkpt>
      <trkpt lat="45.60989" lon="1.88312">
        <ele>677.5</ele>
        <time>2022-08-03T16:36:55Z</time>
      </trkpt>
      <trkpt lat="45.60985" lon="1.8831">
        <ele>677.7</ele>
        <time>2022-08-03T16:36:57Z</time>
      </trkpt>
      <trkpt lat="45.60982" lon="1.88306">
        <ele>678</ele>
        <time>2022-08-03T16:36:59Z</time>
      </trkpt>
      <trkpt lat="45.60977" lon="1.88304">
        <ele>678.2</ele>
        <time>2022-08-03T16:37:01Z</time>
      </trkpt>
      <trkpt lat="45.60973" lon="1.88302">
        <ele>678.4</ele>
        <time>2022-08-03T16:37:03Z</time>
      </trkpt>
      <trkpt lat="45.6097" lon="1.883">
        <ele>678.6</ele>
        <time>2022-08-03T16:37:05Z</time>
      </trkpt>
      <trkpt lat="45.60966" lon="1.88298">
        <ele>678.8</ele>
        <time>2022-08-03T16:37:07Z</time>
      </trkpt>
      <trkpt lat="45.60961" lon="1.88296">
        <ele>678.9</ele>
        <time>2022-08-03T16:37:09Z</time>
      </trkpt>
      <trkpt lat="45.60957" lon="1.88295">
        <ele>679.1</ele>
        <time>2022-08-03T16:37:11Z</time>
      </trkpt>
      <trkpt lat="45.60953" lon="1.88294">
        <ele>679.2</ele>
        <time>2022-08-03T16:37:13Z</time>
      </trkpt>
      <trkpt lat="45.6095" lon="1.88293">
        <ele>679.4</ele>
        <time>2022-08-03T16:37:15Z</time>
      </trkpt>
      <trkpt lat="45.60946" lon="1.88291">
        <ele>679.5</ele>
        <time>2022-08-03T16:37:17Z</time>
      </trkpt>
      <trkpt lat="45.60942" lon="1.8829">
        <ele>679.6</ele>
        <time>2022-08-03T16:37:19Z</time>
      </trkpt>
      <trkpt lat="45.60938" lon="1.88288">
        <ele>679.8</ele>
        <time>2022-08-03T16:37:21Z</time>
      </trkpt>
      <trkpt lat="45.60935" lon="1.88287">
        <ele>679.9</ele>
        <time>2022-08-03T16:37:23Z</time>
      </trkpt>
      <trkpt lat="45.60931" lon="1.88285">
        <ele>680.1</ele>
        <time>2022-08-03T16:37:25Z</time>
      </trkpt>
      <trkpt lat="45.60927" lon="1.88284">
        <ele>680.2</ele>
        <time>2022-08-03T16:37:27Z</time>
      </trkpt>
      <trkpt lat="45.60923" lon="1.88283">
        <ele>680.3</ele>
        <time>2022-08-03T16:37:29Z</time>
      </trkpt>
      <trkpt lat="45.60921" lon="1.88281">
        <ele>680.5</ele>
        <time>2022-08-03T16:37:31Z</time>
      </trkpt>
      <trkpt lat="45.60917" lon="1.88279">
        <ele>680.6</ele>
        <time>2022-08-03T16:37:33Z</time>
      </trkpt>
      <trkpt lat="45.60914" lon="1.88278">
        <ele>680.7</ele>
        <time>2022-08-03T16:37:35Z</time>
      </trkpt>
      <trkpt lat="45.60911" lon="1.88279">
        <ele>680.8</ele>
        <time>2022-08-03T16:37:37Z</time>
      </trkpt>
      <trkpt lat="45.60908" lon="1.88281">
        <ele>680.8</ele>
        <time>2022-08-03T16:37:39Z</time>
      </trkpt>
      <trkpt lat="45.60905" lon="1.88285">
        <ele>680.7</ele>
        <time>2022-08-03T16:37:41Z</time>
      </trkpt>
      <trkpt lat="45.60903" lon="1.88288">
        <ele>680.5</ele>
        <time>2022-08-03T16:37:43Z</time>
      </trkpt>
      <trkpt lat="45.60901" lon="1.88297">
        <ele>680</ele>
        <time>2022-08-03T16:37:45Z</time>
      </trkpt>
      <trkpt lat="45.60901" lon="1.88306">
        <ele>679.4</ele>
        <time>2022-08-03T16:37:47Z</time>
      </trkpt>
      <trkpt lat="45.60901" lon="1.88314">
        <ele>678.9</ele>
        <time>2022-08-03T16:37:49Z</time>
      </trkpt>
      <trkpt lat="45.609" lon="1.88326">
        <ele>678.1</ele>
        <time>2022-08-03T16:37:51Z</time>
      </trkpt>
      <trkpt lat="45.60899" lon="1.88339">
        <ele>677.3</ele>
        <time>2022-08-03T16:37:53Z</time>
      </trkpt>
      <trkpt lat="45.60899" lon="1.88352">
        <ele>676.6</ele>
        <time>2022-08-03T16:37:55Z</time>
      </trkpt>
      <trkpt lat="45.60898" lon="1.88366">
        <ele>675.8</ele>
        <time>2022-08-03T16:37:57Z</time>
      </trkpt>
      <trkpt lat="45.60897" lon="1.88381">
        <ele>675</ele>
        <time>2022-08-03T16:37:59Z</time>
      </trkpt>
      <trkpt lat="45.60896" lon="1.88393">
        <ele>674.3</ele>
        <time>2022-08-03T16:38:01Z</time>
      </trkpt>
      <trkpt lat="45.60895" lon="1.88404">
        <ele>673.6</ele>
        <time>2022-08-03T16:38:03Z</time>
      </trkpt>
      <trkpt lat="45.60895" lon="1.88411">
        <ele>673.2</ele>
        <time>2022-08-03T16:38:05Z</time>
      </trkpt>
      <trkpt lat="45.60895" lon="1.88418">
        <ele>672.9</ele>
        <time>2022-08-03T16:38:07Z</time>
      </trkpt>
      <trkpt lat="45.60893" lon="1.88422">
        <ele>672.7</ele>
        <time>2022-08-03T16:38:09Z</time>
      </trkpt>
      <trkpt lat="45.60889" lon="1.88423">
        <ele>672.5</ele>
        <time>2022-08-03T16:38:11Z</time>
      </trkpt>
      <trkpt lat="45.60885" lon="1.8842">
        <ele>672.4</ele>
        <time>2022-08-03T16:38:13Z</time>
      </trkpt>
      <trkpt lat="45.60878" lon="1.88416">
        <ele>672.2</ele>
        <time>2022-08-03T16:38:15Z</time>
      </trkpt>
      <trkpt lat="45.60871" lon="1.88414">
        <ele>672</ele>
        <time>2022-08-03T16:38:17Z</time>
      </trkpt>
      <trkpt lat="45.60864" lon="1.88411">
        <ele>671.8</ele>
        <time>2022-08-03T16:38:19Z</time>
      </trkpt>
      <trkpt lat="45.60858" lon="1.88408">
        <ele>671.7</ele>
        <time>2022-08-03T16:38:21Z</time>
      </trkpt>
      <trkpt lat="45.60851" lon="1.88404">
        <ele>671.7</ele>
        <time>2022-08-03T16:38:23Z</time>
      </trkpt>
      <trkpt lat="45.60843" lon="1.88399">
        <ele>671.7</ele>
        <time>2022-08-03T16:38:25Z</time>
      </trkpt>
      <trkpt lat="45.60838" lon="1.88394">
        <ele>671.9</ele>
        <time>2022-08-03T16:38:27Z</time>
      </trkpt>
      <trkpt lat="45.60837" lon="1.88392">
        <ele>671.9</ele>
        <time>2022-08-03T16:38:29Z</time>
      </trkpt>
      <trkpt lat="45.60835" lon="1.88391">
        <ele>671.9</ele>
        <time>2022-08-03T16:38:31Z</time>
      </trkpt>
      <trkpt lat="45.60834" lon="1.88391">
        <ele>671.9</ele>
        <time>2022-08-03T16:38:33Z</time>
      </trkpt>
      <trkpt lat="45.60829" lon="1.8839">
        <ele>671.9</ele>
        <time>2022-08-03T16:38:35Z</time>
      </trkpt>
      <trkpt lat="45.60823" lon="1.88387">
        <ele>672.3</ele>
        <time>2022-08-03T16:38:37Z</time>
      </trkpt>
      <trkpt lat="45.60816" lon="1.88383">
        <ele>672.8</ele>
        <time>2022-08-03T16:38:39Z</time>
      </trkpt>
      <trkpt lat="45.60808" lon="1.88378">
        <ele>673.3</ele>
        <time>2022-08-03T16:38:41Z</time>
      </trkpt>
      <trkpt lat="45.60798" lon="1.88375">
        <ele>673.9</ele>
        <time>2022-08-03T16:38:43Z</time>
      </trkpt>
      <trkpt lat="45.60791" lon="1.88374">
        <ele>674.1</ele>
        <time>2022-08-03T16:38:45Z</time>
      </trkpt>
      <trkpt lat="45.60787" lon="1.88376">
        <ele>674.1</ele>
        <time>2022-08-03T16:38:47Z</time>
      </trkpt>
      <trkpt lat="45.60783" lon="1.88376">
        <ele>674</ele>
        <time>2022-08-03T16:38:49Z</time>
      </trkpt>
      <trkpt lat="45.60779" lon="1.88374">
        <ele>674.5</ele>
        <time>2022-08-03T16:38:51Z</time>
      </trkpt>
      <trkpt lat="45.60775" lon="1.88372">
        <ele>674.8</ele>
        <time>2022-08-03T16:38:53Z</time>
      </trkpt>
      <trkpt lat="45.60771" lon="1.88372">
        <ele>674.9</ele>
        <time>2022-08-03T16:38:55Z</time>
      </trkpt>
      <trkpt lat="45.60767" lon="1.88372">
        <ele>675</ele>
        <time>2022-08-03T16:38:57Z</time>
      </trkpt>
      <trkpt lat="45.60762" lon="1.8837">
        <ele>675.3</ele>
        <time>2022-08-03T16:38:59Z</time>
      </trkpt>
      <trkpt lat="45.60758" lon="1.88371">
        <ele>675.4</ele>
        <time>2022-08-03T16:39:01Z</time>
      </trkpt>
      <trkpt lat="45.60755" lon="1.8837">
        <ele>675.6</ele>
        <time>2022-08-03T16:39:03Z</time>
      </trkpt>
      <trkpt lat="45.6075" lon="1.8837">
        <ele>675.7</ele>
        <time>2022-08-03T16:39:05Z</time>
      </trkpt>
      <trkpt lat="45.60746" lon="1.8837">
        <ele>676.1</ele>
        <time>2022-08-03T16:39:07Z</time>
      </trkpt>
      <trkpt lat="45.60742" lon="1.88371">
        <ele>676.3</ele>
        <time>2022-08-03T16:39:09Z</time>
      </trkpt>
      <trkpt lat="45.60741" lon="1.8837">
        <ele>676.8</ele>
        <time>2022-08-03T16:39:11Z</time>
      </trkpt>
      <trkpt lat="45.60737" lon="1.88368">
        <ele>677.4</ele>
        <time>2022-08-03T16:39:13Z</time>
      </trkpt>
      <trkpt lat="45.60734" lon="1.8837">
        <ele>677.5</ele>
        <time>2022-08-03T16:39:15Z</time>
      </trkpt>
      <trkpt lat="45.60731" lon="1.8837">
        <ele>677.7</ele>
        <time>2022-08-03T16:39:17Z</time>
      </trkpt>
      <trkpt lat="45.60729" lon="1.88372">
        <ele>677.7</ele>
        <time>2022-08-03T16:39:19Z</time>
      </trkpt>
      <trkpt lat="45.60727" lon="1.88372">
        <ele>677.9</ele>
        <time>2022-08-03T16:39:21Z</time>
      </trkpt>
      <trkpt lat="45.60727" lon="1.88373">
        <ele>677.7</ele>
        <time>2022-08-03T16:39:23Z</time>
      </trkpt>
      <trkpt lat="45.60726" lon="1.88374">
        <ele>677.6</ele>
        <time>2022-08-03T16:39:25Z</time>
      </trkpt>
      <trkpt lat="45.60726" lon="1.88376">
        <ele>677.3</ele>
        <time>2022-08-03T16:39:27Z</time>
      </trkpt>
      <trkpt lat="45.60727" lon="1.88367">
        <ele>678.8</ele>
        <time>2022-08-03T16:39:43Z</time>
      </trkpt>
      <trkpt lat="45.60724" lon="1.88364">
        <ele>679.4</ele>
        <time>2022-08-03T16:39:45Z</time>
      </trkpt>
      <trkpt lat="45.60721" lon="1.88365">
        <ele>679.7</ele>
        <time>2022-08-03T16:39:47Z</time>
      </trkpt>
      <trkpt lat="45.60718" lon="1.88367">
        <ele>679.7</ele>
        <time>2022-08-03T16:39:49Z</time>
      </trkpt>
      <trkpt lat="45.60713" lon="1.88371">
        <ele>679.5</ele>
        <time>2022-08-03T16:39:51Z</time>
      </trkpt>
      <trkpt lat="45.60709" lon="1.88372">
        <ele>679.6</ele>
        <time>2022-08-03T16:39:53Z</time>
      </trkpt>
      <trkpt lat="45.60706" lon="1.88376">
        <ele>679.4</ele>
        <time>2022-08-03T16:39:55Z</time>
      </trkpt>
      <trkpt lat="45.607" lon="1.88377">
        <ele>679.6</ele>
        <time>2022-08-03T16:39:57Z</time>
      </trkpt>
      <trkpt lat="45.60697" lon="1.88377">
        <ele>680.1</ele>
        <time>2022-08-03T16:39:59Z</time>
      </trkpt>
      <trkpt lat="45.60696" lon="1.88378">
        <ele>680</ele>
        <time>2022-08-03T16:40:01Z</time>
      </trkpt>
      <trkpt lat="45.60696" lon="1.88377">
        <ele>680.1</ele>
        <time>2022-08-03T16:40:03Z</time>
      </trkpt>
      <trkpt lat="45.60696" lon="1.88377">
        <ele>680.2</ele>
        <time>2022-08-03T16:40:05Z</time>
      </trkpt>
      <trkpt lat="45.60696" lon="1.88377">
        <ele>680.1</ele>
        <time>2022-08-03T16:40:07Z</time>
      </trkpt>
      <trkpt lat="45.60696" lon="1.88377">
        <ele>680.1</ele>
        <time>2022-08-03T16:40:09Z</time>
      </trkpt>
    </trkseg>
      <trkpt lat="45.60473" lon="1.88377">
        <ele>681.5</ele>
        <time>2022-08-04T06:08:43Z</time>
      </trkpt>
      <trkpt lat="45.60467" lon="1.88373">
        <ele>681.9</ele>
        <time>2022-08-04T06:08:45Z</time>
      </trkpt>
      <trkpt lat="45.60498" lon="1.88343">
        <ele>686.8</ele>
        <time>2022-08-04T06:09:27Z</time>
      </trkpt>
      <trkpt lat="45.60502" lon="1.8834">
        <ele>687.2</ele>
        <time>2022-08-04T06:09:29Z</time>
      </trkpt>
      <trkpt lat="45.60505" lon="1.8834">
        <ele>687.5</ele>
        <time>2022-08-04T06:09:31Z</time>
      </trkpt>
      <trkpt lat="45.60509" lon="1.88339">
        <ele>687.7</ele>
        <time>2022-08-04T06:09:33Z</time>
      </trkpt>
      <trkpt lat="45.60512" lon="1.88337">
        <ele>688.2</ele>
        <time>2022-08-04T06:09:35Z</time>
      </trkpt>
      <trkpt lat="45.60516" lon="1.88336">
        <ele>688.5</ele>
        <time>2022-08-04T06:09:37Z</time>
      </trkpt>
      <trkpt lat="45.6052" lon="1.88336">
        <ele>688.8</ele>
        <time>2022-08-04T06:09:39Z</time>
      </trkpt>
      <trkpt lat="45.60524" lon="1.88336">
        <ele>689</ele>
        <time>2022-08-04T06:09:41Z</time>
      </trkpt>
      <trkpt lat="45.60528" lon="1.88339">
        <ele>688.7</ele>
        <time>2022-08-04T06:09:43Z</time>
      </trkpt>
      <trkpt lat="45.60533" lon="1.88342">
        <ele>688.4</ele>
        <time>2022-08-04T06:09:45Z</time>
      </trkpt>
      <trkpt lat="45.60538" lon="1.88346">
        <ele>688.1</ele>
        <time>2022-08-04T06:09:47Z</time>
      </trkpt>
      <trkpt lat="45.60544" lon="1.88349">
        <ele>687.7</ele>
        <time>2022-08-04T06:09:49Z</time>
      </trkpt>
      <trkpt lat="45.60549" lon="1.88354">
        <ele>687</ele>
        <time>2022-08-04T06:09:51Z</time>
      </trkpt>
      <trkpt lat="45.60555" lon="1.88358">
        <ele>686.3</ele>
        <time>2022-08-04T06:09:53Z</time>
      </trkpt>
      <trkpt lat="45.60561" lon="1.88363">
        <ele>685.4</ele>
        <time>2022-08-04T06:09:55Z</time>
      </trkpt>
      <trkpt lat="45.60567" lon="1.88368">
        <ele>684.4</ele>
        <time>2022-08-04T06:09:57Z</time>
      </trkpt>
      <trkpt lat="45.60575" lon="1.88372">
        <ele>683.6</ele>
        <time>2022-08-04T06:09:59Z</time>
      </trkpt>
      <trkpt lat="45.60581" lon="1.88376">
        <ele>682.8</ele>
        <time>2022-08-04T06:10:01Z</time>
      </trkpt>
      <trkpt lat="45.60588" lon="1.8838">
        <ele>681.8</ele>
        <time>2022-08-04T06:10:03Z</time>
      </trkpt>
      <trkpt lat="45.60596" lon="1.88383">
        <ele>681.1</ele>
        <time>2022-08-04T06:10:05Z</time>
      </trkpt>
      <trkpt lat="45.60603" lon="1.88385">
        <ele>680.8</ele>
        <time>2022-08-04T06:10:07Z</time>
      </trkpt>
      <trkpt lat="45.60609" lon="1.88387">
        <ele>680.4</ele>
        <time>2022-08-04T06:10:09Z</time>
      </trkpt>
      <trkpt lat="45.60615" lon="1.88387">
        <ele>680.4</ele>
        <time>2022-08-04T06:10:11Z</time>
      </trkpt>
      <trkpt lat="45.60622" lon="1.88385">
        <ele>681</ele>
        <time>2022-08-04T06:10:13Z</time>
      </trkpt>
      <trkpt lat="45.60627" lon="1.88386">
        <ele>680.8</ele>
        <time>2022-08-04T06:10:15Z</time>
      </trkpt>
      <trkpt lat="45.60635" lon="1.88384">
        <ele>681.1</ele>
        <time>2022-08-04T06:10:17Z</time>
      </trkpt>
      <trkpt lat="45.60642" lon="1.88383">
        <ele>681.4</ele>
        <time>2022-08-04T06:10:19Z</time>
      </trkpt>
      <trkpt lat="45.6065" lon="1.88383">
        <ele>681.6</ele>
        <time>2022-08-04T06:10:21Z</time>
      </trkpt>
      <trkpt lat="45.60657" lon="1.88382">
        <ele>681.9</ele>
        <time>2022-08-04T06:10:23Z</time>
      </trkpt>
      <trkpt lat="45.60664" lon="1.8838">
        <ele>682.4</ele>
        <time>2022-08-04T06:10:25Z</time>
      </trkpt>
      <trkpt lat="45.60671" lon="1.88377">
        <ele>682.5</ele>
        <time>2022-08-04T06:10:27Z</time>
      </trkpt>
      <trkpt lat="45.60678" lon="1.88371">
        <ele>683.2</ele>
        <time>2022-08-04T06:10:29Z</time>
      </trkpt>
      <trkpt lat="45.60684" lon="1.88372">
        <ele>682.4</ele>
        <time>2022-08-04T06:10:31Z</time>
      </trkpt>
      <trkpt lat="45.60692" lon="1.88366">
        <ele>682.8</ele>
        <time>2022-08-04T06:10:33Z</time>
      </trkpt>
      <trkpt lat="45.60695" lon="1.88369">
        <ele>681.8</ele>
        <time>2022-08-04T06:10:35Z</time>
      </trkpt>
      <trkpt lat="45.60701" lon="1.88367">
        <ele>681.6</ele>
        <time>2022-08-04T06:10:37Z</time>
      </trkpt>
      <trkpt lat="45.60705" lon="1.88367">
        <ele>681.1</ele>
        <time>2022-08-04T06:10:39Z</time>
      </trkpt>
      <trkpt lat="45.60709" lon="1.88365">
        <ele>681.1</ele>
        <time>2022-08-04T06:10:41Z</time>
      </trkpt>
      <trkpt lat="45.60713" lon="1.88365">
        <ele>680.7</ele>
        <time>2022-08-04T06:10:43Z</time>
      </trkpt>
      <trkpt lat="45.60717" lon="1.88367">
        <ele>679.8</ele>
        <time>2022-08-04T06:10:45Z</time>
      </trkpt>
      <trkpt lat="45.6072" lon="1.88363">
        <ele>680.2</ele>
        <time>2022-08-04T06:10:47Z</time>
      </trkpt>
      <trkpt lat="45.60722" lon="1.8836">
        <ele>680.5</ele>
        <time>2022-08-04T06:10:49Z</time>
      </trkpt>
      <trkpt lat="45.60724" lon="1.88362">
        <ele>679.7</ele>
        <time>2022-08-04T06:10:51Z</time>
      </trkpt>
      <trkpt lat="45.60727" lon="1.88366">
        <ele>678.8</ele>
        <time>2022-08-04T06:10:53Z</time>
      </trkpt>
      <trkpt lat="45.6073" lon="1.88367">
        <ele>678.3</ele>
        <time>2022-08-04T06:10:55Z</time>
      </trkpt>
      <trkpt lat="45.60729" lon="1.88367">
        <ele>678.4</ele>
        <time>2022-08-04T06:10:57Z</time>
      </trkpt>
      <trkpt lat="45.6073" lon="1.88367">
        <ele>678.4</ele>
        <time>2022-08-04T06:10:59Z</time>
      </trkpt>
      <trkpt lat="45.6073" lon="1.88366">
        <ele>678.4</ele>
        <time>2022-08-04T06:11:01Z</time>
      </trkpt>
      <trkpt lat="45.60732" lon="1.88365">
        <ele>678.5</ele>
        <time>2022-08-04T06:11:03Z</time>
      </trkpt>
      <trkpt lat="45.60734" lon="1.88365">
        <ele>678.3</ele>
        <time>2022-08-04T06:11:05Z</time>
      </trkpt>
      <trkpt lat="45.60737" lon="1.88364">
        <ele>678.1</ele>
        <time>2022-08-04T06:11:07Z</time>
      </trkpt>
      <trkpt lat="45.6074" lon="1.88365">
        <ele>677.5</ele>
        <time>2022-08-04T06:11:09Z</time>
      </trkpt>
      <trkpt lat="45.60739" lon="1.88365">
        <ele>677.6</ele>
        <time>2022-08-04T06:11:11Z</time>
      </trkpt>
      <trkpt lat="45.6074" lon="1.88365">
        <ele>677.6</ele>
        <time>2022-08-04T06:11:13Z</time>
      </trkpt>
      <trkpt lat="45.6074" lon="1.88366">
        <ele>677.5</ele>
        <time>2022-08-04T06:11:15Z</time>
      </trkpt>
      <trkpt lat="45.6074" lon="1.88365">
        <ele>677.5</ele>
        <time>2022-08-04T06:11:17Z</time>
      </trkpt>
      <trkpt lat="45.60752" lon="1.88365">
        <ele>676.4</ele>
        <time>2022-08-04T06:11:35Z</time>
      </trkpt>
      <trkpt lat="45.60756" lon="1.88365">
        <ele>676.3</ele>
        <time>2022-08-04T06:11:37Z</time>
      </trkpt>
      <trkpt lat="45.60761" lon="1.88366">
        <ele>676</ele>
        <time>2022-08-04T06:11:39Z</time>
      </trkpt>
      <trkpt lat="45.60767" lon="1.88366">
        <ele>675.8</ele>
        <time>2022-08-04T06:11:41Z</time>
      </trkpt>
      <trkpt lat="45.60773" lon="1.88367">
        <ele>675.4</ele>
        <time>2022-08-04T06:11:43Z</time>
      </trkpt>
      <trkpt lat="45.60778" lon="1.88369">
        <ele>675.1</ele>
        <time>2022-08-04T06:11:45Z</time>
      </trkpt>
      <trkpt lat="45.60783" lon="1.88371">
        <ele>674.7</ele>
        <time>2022-08-04T06:11:47Z</time>
      </trkpt>
      <trkpt lat="45.60789" lon="1.88372">
        <ele>674.4</ele>
        <time>2022-08-04T06:11:49Z</time>
      </trkpt>
      <trkpt lat="45.60796" lon="1.88374">
        <ele>674</ele>
        <time>2022-08-04T06:11:51Z</time>
      </trkpt>
      <trkpt lat="45.60803" lon="1.88376">
        <ele>673.6</ele>
        <time>2022-08-04T06:11:53Z</time>
      </trkpt>
      <trkpt lat="45.60809" lon="1.8838">
        <ele>673.1</ele>
        <time>2022-08-04T06:11:55Z</time>
      </trkpt>
      <trkpt lat="45.60815" lon="1.88383">
        <ele>672.7</ele>
        <time>2022-08-04T06:11:57Z</time>
      </trkpt>
      <trkpt lat="45.6082" lon="1.88385">
        <ele>672.5</ele>
        <time>2022-08-04T06:11:59Z</time>
      </trkpt>
      <trkpt lat="45.60825" lon="1.88388">
        <ele>672.2</ele>
        <time>2022-08-04T06:12:01Z</time>
      </trkpt>
      <trkpt lat="45.60831" lon="1.8839">
        <ele>672</ele>
        <time>2022-08-04T06:12:03Z</time>
      </trkpt>
      <trkpt lat="45.60836" lon="1.88393">
        <ele>671.8</ele>
        <time>2022-08-04T06:12:05Z</time>
      </trkpt>
      <trkpt lat="45.60841" lon="1.88396">
        <ele>671.8</ele>
        <time>2022-08-04T06:12:07Z</time>
      </trkpt>
      <trkpt lat="45.60845" lon="1.88398">
        <ele>671.9</ele>
        <time>2022-08-04T06:12:09Z</time>
      </trkpt>
      <trkpt lat="45.6085" lon="1.884">
        <ele>672</ele>
        <time>2022-08-04T06:12:11Z</time>
      </trkpt>
      <trkpt lat="45.60854" lon="1.88402">
        <ele>672</ele>
        <time>2022-08-04T06:12:13Z</time>
      </trkpt>
      <trkpt lat="45.60858" lon="1.88404">
        <ele>672</ele>
        <time>2022-08-04T06:12:15Z</time>
      </trkpt>
      <trkpt lat="45.60861" lon="1.88405">
        <ele>672.1</ele>
        <time>2022-08-04T06:12:17Z</time>
      </trkpt>
      <trkpt lat="45.60865" lon="1.88407">
        <ele>672.1</ele>
        <time>2022-08-04T06:12:19Z</time>
      </trkpt>
      <trkpt lat="45.60869" lon="1.8841">
        <ele>672.1</ele>
        <time>2022-08-04T06:12:21Z</time>
      </trkpt>
      <trkpt lat="45.60872" lon="1.88412">
        <ele>672.1</ele>
        <time>2022-08-04T06:12:23Z</time>
      </trkpt>
      <trkpt lat="45.60875" lon="1.88415">
        <ele>672.1</ele>
        <time>2022-08-04T06:12:25Z</time>
      </trkpt>
      <trkpt lat="45.60879" lon="1.88417">
        <ele>672.2</ele>
        <time>2022-08-04T06:12:27Z</time>
      </trkpt>
      <trkpt lat="45.60881" lon="1.88418">
        <ele>672.3</ele>
        <time>2022-08-04T06:12:29Z</time>
      </trkpt>
      <trkpt lat="45.60885" lon="1.88419">
        <ele>672.4</ele>
        <time>2022-08-04T06:12:31Z</time>
      </trkpt>
      <trkpt lat="45.60888" lon="1.88419">
        <ele>672.5</ele>
        <time>2022-08-04T06:12:33Z</time>
      </trkpt>
      <trkpt lat="45.60891" lon="1.88421">
        <ele>672.6</ele>
        <time>2022-08-04T06:12:35Z</time>
      </trkpt>
      <trkpt lat="45.60893" lon="1.88421">
        <ele>672.7</ele>
        <time>2022-08-04T06:12:37Z</time>
      </trkpt>
      <trkpt lat="45.60896" lon="1.8842">
        <ele>672.9</ele>
        <time>2022-08-04T06:12:39Z</time>
      </trkpt>
      <trkpt lat="45.60899" lon="1.88423">
        <ele>672.9</ele>
        <time>2022-08-04T06:12:41Z</time>
      </trkpt>
      <trkpt lat="45.60902" lon="1.88426">
        <ele>672.9</ele>
        <time>2022-08-04T06:12:43Z</time>
      </trkpt>
      <trkpt lat="45.60904" lon="1.88428">
        <ele>672.9</ele>
        <time>2022-08-04T06:12:45Z</time>
      </trkpt>
      <trkpt lat="45.60906" lon="1.88431">
        <ele>672.9</ele>
        <time>2022-08-04T06:12:47Z</time>
      </trkpt>
      <trkpt lat="45.60907" lon="1.88435">
        <ele>672.8</ele>
        <time>2022-08-04T06:12:49Z</time>
      </trkpt>
      <trkpt lat="45.6091" lon="1.88435">
        <ele>672.9</ele>
        <time>2022-08-04T06:12:51Z</time>
      </trkpt>
      <trkpt lat="45.60912" lon="1.88436">
        <ele>672.9</ele>
        <time>2022-08-04T06:12:53Z</time>
      </trkpt>
      <trkpt lat="45.60915" lon="1.88437">
        <ele>673</ele>
        <time>2022-08-04T06:12:55Z</time>
      </trkpt>
      <trkpt lat="45.60917" lon="1.88436">
        <ele>673.1</ele>
        <time>2022-08-04T06:12:57Z</time>
      </trkpt>
      <trkpt lat="45.60919" lon="1.88435">
        <ele>673.1</ele>
        <time>2022-08-04T06:12:59Z</time>
      </trkpt>
      <trkpt lat="45.6092" lon="1.88435">
        <ele>673.1</ele>
        <time>2022-08-04T06:13:01Z</time>
      </trkpt>
      <trkpt lat="45.60921" lon="1.88435">
        <ele>673</ele>
        <time>2022-08-04T06:13:03Z</time>
      </trkpt>
      <trkpt lat="45.60921" lon="1.88435">
        <ele>673</ele>
        <time>2022-08-04T06:13:05Z</time>
      </trkpt>
      <trkpt lat="45.60921" lon="1.88435">
        <ele>673</ele>
        <time>2022-08-04T06:13:07Z</time>
      </trkpt>
      <trkpt lat="45.60921" lon="1.88435">
        <ele>673</ele>
        <time>2022-08-04T06:13:09Z</time>
      </trkpt>
      <trkpt lat="45.60897" lon="1.88403">
        <ele>673.8</ele>
        <time>2022-08-04T06:14:17Z</time>
      </trkpt>
      <trkpt lat="45.60898" lon="1.88395">
        <ele>674.2</ele>
        <time>2022-08-04T06:14:19Z</time>
      </trkpt>
      <trkpt lat="45.609" lon="1.88388">
        <ele>674.7</ele>
        <time>2022-08-04T06:14:21Z</time>
      </trkpt>
      <trkpt lat="45.609" lon="1.88379">
        <ele>675.2</ele>
        <time>2022-08-04T06:14:23Z</time>
      </trkpt>
      <trkpt lat="45.60901" lon="1.8837">
        <ele>675.7</ele>
        <time>2022-08-04T06:14:25Z</time>
      </trkpt>
      <trkpt lat="45.60901" lon="1.88361">
        <ele>676.2</ele>
        <time>2022-08-04T06:14:27Z</time>
      </trkpt>
      <trkpt lat="45.60902" lon="1.88352">
        <ele>676.7</ele>
        <time>2022-08-04T06:14:29Z</time>
      </trkpt>
      <trkpt lat="45.60902" lon="1.88343">
        <ele>677.1</ele>
        <time>2022-08-04T06:14:31Z</time>
      </trkpt>
      <trkpt lat="45.60903" lon="1.88335">
        <ele>677.6</ele>
        <time>2022-08-04T06:14:33Z</time>
      </trkpt>
      <trkpt lat="45.60903" lon="1.88327">
        <ele>678.1</ele>
        <time>2022-08-04T06:14:35Z</time>
      </trkpt>
      <trkpt lat="45.60903" lon="1.8832">
        <ele>678.5</ele>
        <time>2022-08-04T06:14:37Z</time>
      </trkpt>
      <trkpt lat="45.60903" lon="1.88313">
        <ele>679</ele>
        <time>2022-08-04T06:14:39Z</time>
      </trkpt>
      <trkpt lat="45.60903" lon="1.88306">
        <ele>679.4</ele>
        <time>2022-08-04T06:14:41Z</time>
      </trkpt>
      <trkpt lat="45.60903" lon="1.883">
        <ele>679.8</ele>
        <time>2022-08-04T06:14:43Z</time>
      </trkpt>
      <trkpt lat="45.60904" lon="1.88295">
        <ele>680.1</ele>
        <time>2022-08-04T06:14:45Z</time>
      </trkpt>
      <trkpt lat="45.60905" lon="1.8829">
        <ele>680.4</ele>
        <time>2022-08-04T06:14:47Z</time>
      </trkpt>
      <trkpt lat="45.60906" lon="1.88286">
        <ele>680.6</ele>
        <time>2022-08-04T06:14:49Z</time>
      </trkpt>
      <trkpt lat="45.60908" lon="1.8828">
        <ele>680.9</ele>
        <time>2022-08-04T06:14:51Z</time>
      </trkpt>
      <trkpt lat="45.60908" lon="1.88274">
        <ele>681.2</ele>
        <time>2022-08-04T06:14:53Z</time>
      </trkpt>
      <trkpt lat="45.60908" lon="1.88268">
        <ele>681.6</ele>
        <time>2022-08-04T06:14:55Z</time>
      </trkpt>
      <trkpt lat="45.60907" lon="1.88262">
        <ele>682</ele>
        <time>2022-08-04T06:14:57Z</time>
      </trkpt>
      <trkpt lat="45.60905" lon="1.88256">
        <ele>682.5</ele>
        <time>2022-08-04T06:14:59Z</time>
      </trkpt>
      <trkpt lat="45.60904" lon="1.8825">
        <ele>682.9</ele>
        <time>2022-08-04T06:15:01Z</time>
      </trkpt>
      <trkpt lat="45.60904" lon="1.88246">
        <ele>683.4</ele>
        <time>2022-08-04T06:15:03Z</time>
      </trkpt>
      <trkpt lat="45.60903" lon="1.88241">
        <ele>683.8</ele>
        <time>2022-08-04T06:15:05Z</time>
      </trkpt>
      <trkpt lat="45.60903" lon="1.88236">
        <ele>684.3</ele>
        <time>2022-08-04T06:15:07Z</time>
      </trkpt>
      <trkpt lat="45.60902" lon="1.88231">
        <ele>684.9</ele>
        <time>2022-08-04T06:15:09Z</time>
      </trkpt>
      <trkpt lat="45.60901" lon="1.88227">
        <ele>685.3</ele>
        <time>2022-08-04T06:15:11Z</time>
      </trkpt>
      <trkpt lat="45.60901" lon="1.88222">
        <ele>685.8</ele>
        <time>2022-08-04T06:15:13Z</time>
      </trkpt>
      <trkpt lat="45.60901" lon="1.88218">
        <ele>686.2</ele>
        <time>2022-08-04T06:15:15Z</time>
      </trkpt>
      <trkpt lat="45.609" lon="1.88213">
        <ele>686.7</ele>
        <time>2022-08-04T06:15:17Z</time>
      </trkpt>
      <trkpt lat="45.609" lon="1.88209">
        <ele>687.1</ele>
        <time>2022-08-04T06:15:19Z</time>
      </trkpt>
      <trkpt lat="45.60899" lon="1.88205">
        <ele>687.6</ele>
        <time>2022-08-04T06:15:21Z</time>
      </trkpt>
      <trkpt lat="45.60898" lon="1.88201">
        <ele>688</ele>
        <time>2022-08-04T06:15:23Z</time>
      </trkpt>
      <trkpt lat="45.60897" lon="1.88197">
        <ele>688.3</ele>
        <time>2022-08-04T06:15:25Z</time>
      </trkpt>
      <trkpt lat="45.60897" lon="1.88193">
        <ele>688.8</ele>
        <time>2022-08-04T06:15:27Z</time>
      </trkpt>
      <trkpt lat="45.60896" lon="1.88189">
        <ele>689.1</ele>
        <time>2022-08-04T06:15:29Z</time>
      </trkpt>
      <trkpt lat="45.60895" lon="1.88185">
        <ele>689.6</ele>
        <time>2022-08-04T06:15:31Z</time>
      </trkpt>
      <trkpt lat="45.60894" lon="1.8818">
        <ele>690.1</ele>
        <time>2022-08-04T06:15:33Z</time>
      </trkpt>
      <trkpt lat="45.60894" lon="1.88175">
        <ele>690.5</ele>
        <time>2022-08-04T06:15:35Z</time>
      </trkpt>
      <trkpt lat="45.60893" lon="1.8817">
        <ele>690.9</ele>
        <time>2022-08-04T06:15:37Z</time>
      </trkpt>
      <trkpt lat="45.60892" lon="1.88166">
        <ele>691.3</ele>
        <time>2022-08-04T06:15:39Z</time>
      </trkpt>
      <trkpt lat="45.60891" lon="1.88162">
        <ele>691.1</ele>
        <time>2022-08-04T06:15:41Z</time>
      </trkpt>
      <trkpt lat="45.6089" lon="1.88157">
        <ele>690.9</ele>
        <time>2022-08-04T06:15:43Z</time>
      </trkpt>
      <trkpt lat="45.6089" lon="1.88154">
        <ele>690.8</ele>
        <time>2022-08-04T06:15:45Z</time>
      </trkpt>
      <trkpt lat="45.60889" lon="1.88149">
        <ele>690.6</ele>
        <time>2022-08-04T06:15:47Z</time>
      </trkpt>
      <trkpt lat="45.60888" lon="1.88144">
        <ele>690.4</ele>
        <time>2022-08-04T06:15:49Z</time>
      </trkpt>
      <trkpt lat="45.60888" lon="1.88139">
        <ele>690.3</ele>
        <time>2022-08-04T06:15:51Z</time>
      </trkpt>
      <trkpt lat="45.60887" lon="1.88134">
        <ele>690</ele>
        <time>2022-08-04T06:15:53Z</time>
      </trkpt>
      <trkpt lat="45.60885" lon="1.8813">
        <ele>689.9</ele>
        <time>2022-08-04T06:15:55Z</time>
      </trkpt>
      <trkpt lat="45.60884" lon="1.88126">
        <ele>689.7</ele>
        <time>2022-08-04T06:15:57Z</time>
      </trkpt>
      <trkpt lat="45.60883" lon="1.88121">
        <ele>689.6</ele>
        <time>2022-08-04T06:15:59Z</time>
      </trkpt>
      <trkpt lat="45.6088" lon="1.88118">
        <ele>689.4</ele>
        <time>2022-08-04T06:16:01Z</time>
      </trkpt>
      <trkpt lat="45.60878" lon="1.88114">
        <ele>689.3</ele>
        <time>2022-08-04T06:16:03Z</time>
      </trkpt>
      <trkpt lat="45.60874" lon="1.88109">
        <ele>689.1</ele>
        <time>2022-08-04T06:16:05Z</time>
      </trkpt>
      <trkpt lat="45.60868" lon="1.88105">
        <ele>688.9</ele>
        <time>2022-08-04T06:16:07Z</time>
      </trkpt>
      <trkpt lat="45.60862" lon="1.88101">
        <ele>688.8</ele>
        <time>2022-08-04T06:16:09Z</time>
      </trkpt>
      <trkpt lat="45.60855" lon="1.88097">
        <ele>688.6</ele>
        <time>2022-08-04T06:16:11Z</time>
      </trkpt>
      <trkpt lat="45.60848" lon="1.88093">
        <ele>688.4</ele>
        <time>2022-08-04T06:16:13Z</time>
      </trkpt>
      <trkpt lat="45.6084" lon="1.88089">
        <ele>688.3</ele>
        <time>2022-08-04T06:16:15Z</time>
      </trkpt>
      <trkpt lat="45.60831" lon="1.88084">
        <ele>688.1</ele>
        <time>2022-08-04T06:16:17Z</time>
      </trkpt>
      <trkpt lat="45.60822" lon="1.8808">
        <ele>688.1</ele>
        <time>2022-08-04T06:16:19Z</time>
      </trkpt>
      <trkpt lat="45.60813" lon="1.88076">
        <ele>688.1</ele>
        <time>2022-08-04T06:16:21Z</time>
      </trkpt>
      <trkpt lat="45.60803" lon="1.88071">
        <ele>688.1</ele>
        <time>2022-08-04T06:16:23Z</time>
      </trkpt>
      <trkpt lat="45.60793" lon="1.88066">
        <ele>688</ele>
        <time>2022-08-04T06:16:25Z</time>
      </trkpt>
      <trkpt lat="45.60782" lon="1.8806">
        <ele>687.8</ele>
        <time>2022-08-04T06:16:27Z</time>
      </trkpt>
      <trkpt lat="45.60771" lon="1.88056">
        <ele>687.7</ele>
        <time>2022-08-04T06:16:29Z</time>
      </trkpt>
      <trkpt lat="45.6076" lon="1.88051">
        <ele>687.5</ele>
        <time>2022-08-04T06:16:31Z</time>
      </trkpt>
      <trkpt lat="45.60749" lon="1.88046">
        <ele>687.2</ele>
        <time>2022-08-04T06:16:33Z</time>
      </trkpt>
      <trkpt lat="45.60738" lon="1.88042">
        <ele>687.1</ele>
        <time>2022-08-04T06:16:35Z</time>
      </trkpt>
      <trkpt lat="45.6073" lon="1.88035">
        <ele>686.9</ele>
        <time>2022-08-04T06:16:37Z</time>
      </trkpt>
      <trkpt lat="45.60719" lon="1.88032">
        <ele>686.8</ele>
        <time>2022-08-04T06:16:39Z</time>
      </trkpt>
      <trkpt lat="45.60708" lon="1.88028">
        <ele>686.7</ele>
        <time>2022-08-04T06:16:41Z</time>
      </trkpt>
      <trkpt lat="45.60698" lon="1.88025">
        <ele>686.6</ele>
        <time>2022-08-04T06:16:43Z</time>
      </trkpt>
      <trkpt lat="45.60688" lon="1.8802">
        <ele>686.3</ele>
        <time>2022-08-04T06:16:45Z</time>
      </trkpt>
      <trkpt lat="45.60678" lon="1.88018">
        <ele>686.2</ele>
        <time>2022-08-04T06:16:47Z</time>
      </trkpt>
      <trkpt lat="45.60667" lon="1.88015">
        <ele>686.1</ele>
        <time>2022-08-04T06:16:49Z</time>
      </trkpt>
      <trkpt lat="45.60657" lon="1.88014">
        <ele>685.8</ele>
        <time>2022-08-04T06:16:51Z</time>
      </trkpt>
      <trkpt lat="45.60648" lon="1.88012">
        <ele>685.5</ele>
        <time>2022-08-04T06:16:53Z</time>
      </trkpt>
      <trkpt lat="45.60638" lon="1.88011">
        <ele>685.2</ele>
        <time>2022-08-04T06:16:55Z</time>
      </trkpt>
      <trkpt lat="45.60627" lon="1.8801">
        <ele>684.9</ele>
        <time>2022-08-04T06:16:57Z</time>
      </trkpt>
      <trkpt lat="45.60618" lon="1.88008">
        <ele>684.5</ele>
        <time>2022-08-04T06:16:59Z</time>
      </trkpt>
      <trkpt lat="45.60608" lon="1.88006">
        <ele>684.1</ele>
        <time>2022-08-04T06:17:01Z</time>
      </trkpt>
      <trkpt lat="45.60599" lon="1.88002">
        <ele>683.6</ele>
        <time>2022-08-04T06:17:03Z</time>
      </trkpt>
      <trkpt lat="45.60591" lon="1.87998">
        <ele>683.2</ele>
        <time>2022-08-04T06:17:05Z</time>
      </trkpt>
      <trkpt lat="45.60583" lon="1.87993">
        <ele>683.1</ele>
        <time>2022-08-04T06:17:07Z</time>
      </trkpt>
      <trkpt lat="45.60574" lon="1.87988">
        <ele>683.6</ele>
        <time>2022-08-04T06:17:09Z</time>
      </trkpt>
      <trkpt lat="45.60566" lon="1.87982">
        <ele>684</ele>
        <time>2022-08-04T06:17:11Z</time>
      </trkpt>
      <trkpt lat="45.60558" lon="1.87976">
        <ele>684.4</ele>
        <time>2022-08-04T06:17:13Z</time>
      </trkpt>
      <trkpt lat="45.6055" lon="1.87971">
        <ele>684.8</ele>
        <time>2022-08-04T06:17:15Z</time>
      </trkpt>
      <trkpt lat="45.60543" lon="1.87966">
        <ele>685.2</ele>
        <time>2022-08-04T06:17:17Z</time>
      </trkpt>
      <trkpt lat="45.60535" lon="1.87961">
        <ele>685.5</ele>
        <time>2022-08-04T06:17:19Z</time>
      </trkpt>
      <trkpt lat="45.60527" lon="1.87957">
        <ele>685.9</ele>
        <time>2022-08-04T06:17:21Z</time>
      </trkpt>
      <trkpt lat="45.6052" lon="1.87952">
        <ele>686.2</ele>
        <time>2022-08-04T06:17:23Z</time>
      </trkpt>
      <trkpt lat="45.60512" lon="1.87947">
        <ele>686.5</ele>
        <time>2022-08-04T06:17:25Z</time>
      </trkpt>
      <trkpt lat="45.60503" lon="1.87942">
        <ele>686.9</ele>
        <time>2022-08-04T06:17:27Z</time>
      </trkpt>
      <trkpt lat="45.60493" lon="1.87938">
        <ele>686.9</ele>
        <time>2022-08-04T06:17:29Z</time>
      </trkpt>
      <trkpt lat="45.60484" lon="1.87934">
        <ele>686.8</ele>
        <time>2022-08-04T06:17:31Z</time>
      </trkpt>
      <trkpt lat="45.60474" lon="1.87929">
        <ele>686.6</ele>
        <time>2022-08-04T06:17:33Z</time>
      </trkpt>
      <trkpt lat="45.60464" lon="1.87925">
        <ele>686.3</ele>
        <time>2022-08-04T06:17:35Z</time>
      </trkpt>
      <trkpt lat="45.60454" lon="1.8792">
        <ele>686</ele>
        <time>2022-08-04T06:17:37Z</time>
      </trkpt>
      <trkpt lat="45.60444" lon="1.87915">
        <ele>685.6</ele>
        <time>2022-08-04T06:17:39Z</time>
      </trkpt>
      <trkpt lat="45.60433" lon="1.8791">
        <ele>685.1</ele>
        <time>2022-08-04T06:17:41Z</time>
      </trkpt>
      <trkpt lat="45.60423" lon="1.87905">
        <ele>684.7</ele>
        <time>2022-08-04T06:17:43Z</time>
      </trkpt>
      <trkpt lat="45.60413" lon="1.879">
        <ele>684.3</ele>
        <time>2022-08-04T06:17:45Z</time>
      </trkpt>
      <trkpt lat="45.60402" lon="1.87894">
        <ele>683.8</ele>
        <time>2022-08-04T06:17:47Z</time>
      </trkpt>
      <trkpt lat="45.60391" lon="1.87889">
        <ele>683.2</ele>
        <time>2022-08-04T06:17:49Z</time>
      </trkpt>
      <trkpt lat="45.6038" lon="1.87884">
        <ele>682.6</ele>
        <time>2022-08-04T06:17:51Z</time>
      </trkpt>
      <trkpt lat="45.60369" lon="1.87878">
        <ele>682</ele>
        <time>2022-08-04T06:17:53Z</time>
      </trkpt>
      <trkpt lat="45.60358" lon="1.87873">
        <ele>681.3</ele>
        <time>2022-08-04T06:17:55Z</time>
      </trkpt>
      <trkpt lat="45.60346" lon="1.87867">
        <ele>680.5</ele>
        <time>2022-08-04T06:17:57Z</time>
      </trkpt>
      <trkpt lat="45.60335" lon="1.87861">
        <ele>679.8</ele>
        <time>2022-08-04T06:17:59Z</time>
      </trkpt>
      <trkpt lat="45.60324" lon="1.87854">
        <ele>679.2</ele>
        <time>2022-08-04T06:18:01Z</time>
      </trkpt>
      <trkpt lat="45.60312" lon="1.87847">
        <ele>678.7</ele>
        <time>2022-08-04T06:18:03Z</time>
      </trkpt>
      <trkpt lat="45.60301" lon="1.8784">
        <ele>678.1</ele>
        <time>2022-08-04T06:18:05Z</time>
      </trkpt>
      <trkpt lat="45.6029" lon="1.87832">
        <ele>677.5</ele>
        <time>2022-08-04T06:18:07Z</time>
      </trkpt>
      <trkpt lat="45.60278" lon="1.87824">
        <ele>677.4</ele>
        <time>2022-08-04T06:18:09Z</time>
      </trkpt>
      <trkpt lat="45.60266" lon="1.87816">
        <ele>677.5</ele>
        <time>2022-08-04T06:18:11Z</time>
      </trkpt>
      <trkpt lat="45.60254" lon="1.87808">
        <ele>677.6</ele>
        <time>2022-08-04T06:18:13Z</time>
      </trkpt>
      <trkpt lat="45.60242" lon="1.87799">
        <ele>678</ele>
        <time>2022-08-04T06:18:15Z</time>
      </trkpt>
      <trkpt lat="45.6023" lon="1.8779">
        <ele>678.1</ele>
        <time>2022-08-04T06:18:17Z</time>
      </trkpt>
      <trkpt lat="45.60218" lon="1.87782">
        <ele>677.9</ele>
        <time>2022-08-04T06:18:19Z</time>
      </trkpt>
      <trkpt lat="45.60206" lon="1.87773">
        <ele>677.4</ele>
        <time>2022-08-04T06:18:21Z</time>
      </trkpt>
      <trkpt lat="45.60194" lon="1.87764">
        <ele>676.6</ele>
        <time>2022-08-04T06:18:23Z</time>
      </trkpt>
      <trkpt lat="45.60182" lon="1.87756">
        <ele>675.4</ele>
        <time>2022-08-04T06:18:25Z</time>
      </trkpt>
      <trkpt lat="45.60169" lon="1.87747">
        <ele>674.1</ele>
        <time>2022-08-04T06:18:27Z</time>
      </trkpt>
      <trkpt lat="45.60156" lon="1.87738">
        <ele>674.4</ele>
        <time>2022-08-04T06:18:29Z</time>
      </trkpt>
      <trkpt lat="45.60143" lon="1.87728">
        <ele>674.8</ele>
        <time>2022-08-04T06:18:31Z</time>
      </trkpt>
      <trkpt lat="45.6013" lon="1.87719">
        <ele>675.2</ele>
        <time>2022-08-04T06:18:33Z</time>
      </trkpt>
      <trkpt lat="45.60117" lon="1.8771">
        <ele>675.6</ele>
        <time>2022-08-04T06:18:35Z</time>
      </trkpt>
      <trkpt lat="45.60104" lon="1.87701">
        <ele>676</ele>
        <time>2022-08-04T06:18:37Z</time>
      </trkpt>
      <trkpt lat="45.60091" lon="1.87691">
        <ele>676.3</ele>
        <time>2022-08-04T06:18:39Z</time>
      </trkpt>
      <trkpt lat="45.60079" lon="1.87682">
        <ele>676.6</ele>
        <time>2022-08-04T06:18:41Z</time>
      </trkpt>
      <trkpt lat="45.60066" lon="1.87671">
        <ele>677.1</ele>
        <time>2022-08-04T06:18:43Z</time>
      </trkpt>
      <trkpt lat="45.60055" lon="1.87659">
        <ele>678.2</ele>
        <time>2022-08-04T06:18:45Z</time>
      </trkpt>
      <trkpt lat="45.60043" lon="1.87646">
        <ele>679.8</ele>
        <time>2022-08-04T06:18:47Z</time>
      </trkpt>
      <trkpt lat="45.60034" lon="1.87631">
        <ele>681.2</ele>
        <time>2022-08-04T06:18:49Z</time>
      </trkpt>
      <trkpt lat="45.60024" lon="1.8762">
        <ele>682.3</ele>
        <time>2022-08-04T06:18:51Z</time>
      </trkpt>
      <trkpt lat="45.60013" lon="1.8761">
        <ele>683.3</ele>
        <time>2022-08-04T06:18:53Z</time>
      </trkpt>
      <trkpt lat="45.60002" lon="1.87603">
        <ele>684</ele>
        <time>2022-08-04T06:18:55Z</time>
      </trkpt>
      <trkpt lat="45.5999" lon="1.87598">
        <ele>684.1</ele>
        <time>2022-08-04T06:18:57Z</time>
      </trkpt>
      <trkpt lat="45.59979" lon="1.87594">
        <ele>684</ele>
        <time>2022-08-04T06:18:59Z</time>
      </trkpt>
      <trkpt lat="45.59968" lon="1.87589">
        <ele>683.9</ele>
        <time>2022-08-04T06:19:01Z</time>
      </trkpt>
      <trkpt lat="45.59958" lon="1.87584">
        <ele>684</ele>
        <time>2022-08-04T06:19:03Z</time>
      </trkpt>
      <trkpt lat="45.59949" lon="1.8758">
        <ele>684.1</ele>
        <time>2022-08-04T06:19:05Z</time>
      </trkpt>
      <trkpt lat="45.59939" lon="1.87577">
        <ele>684.1</ele>
        <time>2022-08-04T06:19:07Z</time>
      </trkpt>
      <trkpt lat="45.5993" lon="1.87572">
        <ele>684.2</ele>
        <time>2022-08-04T06:19:09Z</time>
      </trkpt>
      <trkpt lat="45.59921" lon="1.87569">
        <ele>684.2</ele>
        <time>2022-08-04T06:19:11Z</time>
      </trkpt>
      <trkpt lat="45.59912" lon="1.87566">
        <ele>684.4</ele>
        <time>2022-08-04T06:19:13Z</time>
      </trkpt>
      <trkpt lat="45.59903" lon="1.87566">
        <ele>684.7</ele>
        <time>2022-08-04T06:19:15Z</time>
      </trkpt>
      <trkpt lat="45.59894" lon="1.87566">
        <ele>685</ele>
        <time>2022-08-04T06:19:17Z</time>
      </trkpt>
      <trkpt lat="45.59885" lon="1.87566">
        <ele>685.3</ele>
        <time>2022-08-04T06:19:19Z</time>
      </trkpt>
      <trkpt lat="45.59877" lon="1.87568">
        <ele>685.6</ele>
        <time>2022-08-04T06:19:21Z</time>
      </trkpt>
      <trkpt lat="45.59868" lon="1.87569">
        <ele>685.9</ele>
        <time>2022-08-04T06:19:23Z</time>
      </trkpt>
      <trkpt lat="45.5986" lon="1.87569">
        <ele>686.2</ele>
        <time>2022-08-04T06:19:25Z</time>
      </trkpt>
      <trkpt lat="45.59851" lon="1.87569">
        <ele>686.5</ele>
        <time>2022-08-04T06:19:27Z</time>
      </trkpt>
      <trkpt lat="45.59844" lon="1.87568">
        <ele>686.8</ele>
        <time>2022-08-04T06:19:29Z</time>
      </trkpt>
      <trkpt lat="45.59835" lon="1.87566">
        <ele>687.1</ele>
        <time>2022-08-04T06:19:31Z</time>
      </trkpt>
      <trkpt lat="45.59828" lon="1.87561">
        <ele>687.1</ele>
        <time>2022-08-04T06:19:33Z</time>
      </trkpt>
      <trkpt lat="45.59822" lon="1.87555">
        <ele>686.9</ele>
        <time>2022-08-04T06:19:35Z</time>
      </trkpt>
      <trkpt lat="45.59816" lon="1.87547">
        <ele>686.8</ele>
        <time>2022-08-04T06:19:37Z</time>
      </trkpt>
      <trkpt lat="45.59812" lon="1.87538">
        <ele>686.8</ele>
        <time>2022-08-04T06:19:39Z</time>
      </trkpt>
      <trkpt lat="45.59808" lon="1.87528">
        <ele>686.9</ele>
        <time>2022-08-04T06:19:41Z</time>
      </trkpt>
      <trkpt lat="45.59807" lon="1.87518">
        <ele>687</ele>
        <time>2022-08-04T06:19:43Z</time>
      </trkpt>
      <trkpt lat="45.59806" lon="1.87509">
        <ele>687.2</ele>
        <time>2022-08-04T06:19:45Z</time>
      </trkpt>
      <trkpt lat="45.59806" lon="1.87499">
        <ele>687.3</ele>
        <time>2022-08-04T06:19:47Z</time>
      </trkpt>
      <trkpt lat="45.59806" lon="1.87492">
        <ele>687.3</ele>
        <time>2022-08-04T06:19:49Z</time>
      </trkpt>
      <trkpt lat="45.59805" lon="1.87481">
        <ele>687.3</ele>
        <time>2022-08-04T06:19:51Z</time>
      </trkpt>
      <trkpt lat="45.59805" lon="1.87472">
        <ele>687.2</ele>
        <time>2022-08-04T06:19:53Z</time>
      </trkpt>
      <trkpt lat="45.59804" lon="1.87462">
        <ele>687.1</ele>
        <time>2022-08-04T06:19:55Z</time>
      </trkpt>
      <trkpt lat="45.59804" lon="1.87452">
        <ele>687.1</ele>
        <time>2022-08-04T06:19:57Z</time>
      </trkpt>
      <trkpt lat="45.59803" lon="1.87442">
        <ele>687</ele>
        <time>2022-08-04T06:19:59Z</time>
      </trkpt>
      <trkpt lat="45.59803" lon="1.87432">
        <ele>687</ele>
        <time>2022-08-04T06:20:01Z</time>
      </trkpt>
      <trkpt lat="45.59803" lon="1.87422">
        <ele>686.9</ele>
        <time>2022-08-04T06:20:03Z</time>
      </trkpt>
      <trkpt lat="45.59802" lon="1.87413">
        <ele>686.9</ele>
        <time>2022-08-04T06:20:05Z</time>
      </trkpt>
      <trkpt lat="45.59801" lon="1.87404">
        <ele>686.9</ele>
        <time>2022-08-04T06:20:07Z</time>
      </trkpt>
      <trkpt lat="45.59802" lon="1.87394">
        <ele>687</ele>
        <time>2022-08-04T06:20:09Z</time>
      </trkpt>
      <trkpt lat="45.59801" lon="1.87385">
        <ele>687.1</ele>
        <time>2022-08-04T06:20:11Z</time>
      </trkpt>
      <trkpt lat="45.59801" lon="1.87376">
        <ele>687.1</ele>
        <time>2022-08-04T06:20:13Z</time>
      </trkpt>
      <trkpt lat="45.598" lon="1.87367">
        <ele>687.1</ele>
        <time>2022-08-04T06:20:15Z</time>
      </trkpt>
      <trkpt lat="45.598" lon="1.87357">
        <ele>687.2</ele>
        <time>2022-08-04T06:20:17Z</time>
      </trkpt>
      <trkpt lat="45.59798" lon="1.87349">
        <ele>687.2</ele>
        <time>2022-08-04T06:20:19Z</time>
      </trkpt>
      <trkpt lat="45.59798" lon="1.8734">
        <ele>687.3</ele>
        <time>2022-08-04T06:20:21Z</time>
      </trkpt>
      <trkpt lat="45.59798" lon="1.8733">
        <ele>687.3</ele>
        <time>2022-08-04T06:20:23Z</time>
      </trkpt>
      <trkpt lat="45.59797" lon="1.87323">
        <ele>687.2</ele>
        <time>2022-08-04T06:20:25Z</time>
      </trkpt>
      <trkpt lat="45.59797" lon="1.87313">
        <ele>687.2</ele>
        <time>2022-08-04T06:20:27Z</time>
      </trkpt>
      <trkpt lat="45.59797" lon="1.87303">
        <ele>687.1</ele>
        <time>2022-08-04T06:20:29Z</time>
      </trkpt>
      <trkpt lat="45.59798" lon="1.87294">
        <ele>687.1</ele>
        <time>2022-08-04T06:20:31Z</time>
      </trkpt>
      <trkpt lat="45.59799" lon="1.87285">
        <ele>687.1</ele>
        <time>2022-08-04T06:20:33Z</time>
      </trkpt>
      <trkpt lat="45.59799" lon="1.87276">
        <ele>687.1</ele>
        <time>2022-08-04T06:20:35Z</time>
      </trkpt>
      <trkpt lat="45.598" lon="1.87266">
        <ele>687.1</ele>
        <time>2022-08-04T06:20:37Z</time>
      </trkpt>
      <trkpt lat="45.59801" lon="1.87257">
        <ele>687.1</ele>
        <time>2022-08-04T06:20:39Z</time>
      </trkpt>
      <trkpt lat="45.59802" lon="1.87247">
        <ele>687.1</ele>
        <time>2022-08-04T06:20:41Z</time>
      </trkpt>
      <trkpt lat="45.59803" lon="1.87239">
        <ele>687.1</ele>
        <time>2022-08-04T06:20:43Z</time>
      </trkpt>
      <trkpt lat="45.59804" lon="1.87229">
        <ele>687</ele>
        <time>2022-08-04T06:20:45Z</time>
      </trkpt>
      <trkpt lat="45.59805" lon="1.8722">
        <ele>687</ele>
        <time>2022-08-04T06:20:47Z</time>
      </trkpt>
      <trkpt lat="45.59807" lon="1.87212">
        <ele>686.9</ele>
        <time>2022-08-04T06:20:49Z</time>
      </trkpt>
      <trkpt lat="45.59808" lon="1.87204">
        <ele>686.9</ele>
        <time>2022-08-04T06:20:51Z</time>
      </trkpt>
      <trkpt lat="45.59809" lon="1.87195">
        <ele>686.8</ele>
        <time>2022-08-04T06:20:53Z</time>
      </trkpt>
      <trkpt lat="45.59812" lon="1.87187">
        <ele>686.8</ele>
        <time>2022-08-04T06:20:55Z</time>
      </trkpt>
      <trkpt lat="45.59814" lon="1.87178">
        <ele>686.7</ele>
        <time>2022-08-04T06:20:57Z</time>
      </trkpt>
      <trkpt lat="45.59817" lon="1.87171">
        <ele>686.7</ele>
        <time>2022-08-04T06:20:59Z</time>
      </trkpt>
      <trkpt lat="45.59819" lon="1.87165">
        <ele>686.7</ele>
        <time>2022-08-04T06:21:01Z</time>
      </trkpt>
      <trkpt lat="45.59822" lon="1.87159">
        <ele>686.8</ele>
        <time>2022-08-04T06:21:03Z</time>
      </trkpt>
      <trkpt lat="45.59826" lon="1.87153">
        <ele>687</ele>
        <time>2022-08-04T06:21:05Z</time>
      </trkpt>
      <trkpt lat="45.5983" lon="1.87149">
        <ele>687.1</ele>
        <time>2022-08-04T06:21:07Z</time>
      </trkpt>
      <trkpt lat="45.59834" lon="1.87144">
        <ele>687.3</ele>
        <time>2022-08-04T06:21:09Z</time>
      </trkpt>
      <trkpt lat="45.59838" lon="1.87139">
        <ele>687.6</ele>
        <time>2022-08-04T06:21:11Z</time>
      </trkpt>
      <trkpt lat="45.59842" lon="1.87134">
        <ele>687.9</ele>
        <time>2022-08-04T06:21:13Z</time>
      </trkpt>
      <trkpt lat="45.59847" lon="1.8713">
        <ele>688.1</ele>
        <time>2022-08-04T06:21:15Z</time>
      </trkpt>
      <trkpt lat="45.59851" lon="1.87125">
        <ele>688.3</ele>
        <time>2022-08-04T06:21:17Z</time>
      </trkpt>
      <trkpt lat="45.59855" lon="1.87121">
        <ele>688.5</ele>
        <time>2022-08-04T06:21:19Z</time>
      </trkpt>
      <trkpt lat="45.5986" lon="1.87116">
        <ele>688.7</ele>
        <time>2022-08-04T06:21:21Z</time>
      </trkpt>
      <trkpt lat="45.59864" lon="1.87112">
        <ele>688.9</ele>
        <time>2022-08-04T06:21:23Z</time>
      </trkpt>
      <trkpt lat="45.59868" lon="1.87107">
        <ele>689</ele>
        <time>2022-08-04T06:21:25Z</time>
      </trkpt>
      <trkpt lat="45.59873" lon="1.87103">
        <ele>689.1</ele>
        <time>2022-08-04T06:21:27Z</time>
      </trkpt>
      <trkpt lat="45.59877" lon="1.87098">
        <ele>689.2</ele>
        <time>2022-08-04T06:21:29Z</time>
      </trkpt>
      <trkpt lat="45.59882" lon="1.87093">
        <ele>689.3</ele>
        <time>2022-08-04T06:21:31Z</time>
      </trkpt>
      <trkpt lat="45.59886" lon="1.87088">
        <ele>689.4</ele>
        <time>2022-08-04T06:21:33Z</time>
      </trkpt>
      <trkpt lat="45.59891" lon="1.87084">
        <ele>689.4</ele>
        <time>2022-08-04T06:21:35Z</time>
      </trkpt>
      <trkpt lat="45.59895" lon="1.87078">
        <ele>689.6</ele>
        <time>2022-08-04T06:21:37Z</time>
      </trkpt>
      <trkpt lat="45.599" lon="1.87073">
        <ele>689.8</ele>
        <time>2022-08-04T06:21:39Z</time>
      </trkpt>
      <trkpt lat="45.59905" lon="1.87069">
        <ele>690</ele>
        <time>2022-08-04T06:21:41Z</time>
      </trkpt>
      <trkpt lat="45.59909" lon="1.87064">
        <ele>690.1</ele>
        <time>2022-08-04T06:21:43Z</time>
      </trkpt>
      <trkpt lat="45.59914" lon="1.87059">
        <ele>690.2</ele>
        <time>2022-08-04T06:21:45Z</time>
      </trkpt>
      <trkpt lat="45.59918" lon="1.87054">
        <ele>690.3</ele>
        <time>2022-08-04T06:21:47Z</time>
      </trkpt>
      <trkpt lat="45.59922" lon="1.87048">
        <ele>690.3</ele>
        <time>2022-08-04T06:21:49Z</time>
      </trkpt>
      <trkpt lat="45.59925" lon="1.87041">
        <ele>690.2</ele>
        <time>2022-08-04T06:21:51Z</time>
      </trkpt>
      <trkpt lat="45.59928" lon="1.87033">
        <ele>690.3</ele>
        <time>2022-08-04T06:21:53Z</time>
      </trkpt>
      <trkpt lat="45.5993" lon="1.87024">
        <ele>690.3</ele>
        <time>2022-08-04T06:21:55Z</time>
      </trkpt>
      <trkpt lat="45.59931" lon="1.87016">
        <ele>690.4</ele>
        <time>2022-08-04T06:21:57Z</time>
      </trkpt>
      <trkpt lat="45.59932" lon="1.87007">
        <ele>690.5</ele>
        <time>2022-08-04T06:21:59Z</time>
      </trkpt>
      <trkpt lat="45.59933" lon="1.86999">
        <ele>690.7</ele>
        <time>2022-08-04T06:22:01Z</time>
      </trkpt>
      <trkpt lat="45.59933" lon="1.8699">
        <ele>691.2</ele>
        <time>2022-08-04T06:22:03Z</time>
      </trkpt>
      <trkpt lat="45.59934" lon="1.86982">
        <ele>691.8</ele>
        <time>2022-08-04T06:22:05Z</time>
      </trkpt>
      <trkpt lat="45.59934" lon="1.86973">
        <ele>692.4</ele>
        <time>2022-08-04T06:22:07Z</time>
      </trkpt>
      <trkpt lat="45.59934" lon="1.86964">
        <ele>692.9</ele>
        <time>2022-08-04T06:22:09Z</time>
      </trkpt>
      <trkpt lat="45.59935" lon="1.86956">
        <ele>693.5</ele>
        <time>2022-08-04T06:22:11Z</time>
      </trkpt>
      <trkpt lat="45.59935" lon="1.86947">
        <ele>694</ele>
        <time>2022-08-04T06:22:13Z</time>
      </trkpt>
      <trkpt lat="45.59936" lon="1.86939">
        <ele>694.6</ele>
        <time>2022-08-04T06:22:15Z</time>
      </trkpt>
      <trkpt lat="45.59936" lon="1.86931">
        <ele>695.1</ele>
        <time>2022-08-04T06:22:17Z</time>
      </trkpt>
      <trkpt lat="45.59936" lon="1.86923">
        <ele>695.6</ele>
        <time>2022-08-04T06:22:19Z</time>
      </trkpt>
      <trkpt lat="45.59936" lon="1.86915">
        <ele>696.1</ele>
        <time>2022-08-04T06:22:21Z</time>
      </trkpt>
      <trkpt lat="45.59937" lon="1.86907">
        <ele>696.7</ele>
        <time>2022-08-04T06:22:23Z</time>
      </trkpt>
      <trkpt lat="45.59937" lon="1.869">
        <ele>697.3</ele>
        <time>2022-08-04T06:22:25Z</time>
      </trkpt>
      <trkpt lat="45.59936" lon="1.86893">
        <ele>697.9</ele>
        <time>2022-08-04T06:22:27Z</time>
      </trkpt>
      <trkpt lat="45.59935" lon="1.86886">
        <ele>698.4</ele>
        <time>2022-08-04T06:22:29Z</time>
      </trkpt>
      <trkpt lat="45.59934" lon="1.86879">
        <ele>698.9</ele>
        <time>2022-08-04T06:22:31Z</time>
      </trkpt>
      <trkpt lat="45.59932" lon="1.86873">
        <ele>699.3</ele>
        <time>2022-08-04T06:22:33Z</time>
      </trkpt>
      <trkpt lat="45.59929" lon="1.86868">
        <ele>699.7</ele>
        <time>2022-08-04T06:22:35Z</time>
      </trkpt>
      <trkpt lat="45.59925" lon="1.86863">
        <ele>700</ele>
        <time>2022-08-04T06:22:37Z</time>
      </trkpt>
      <trkpt lat="45.59922" lon="1.86859">
        <ele>700.2</ele>
        <time>2022-08-04T06:22:39Z</time>
      </trkpt>
      <trkpt lat="45.59917" lon="1.86856">
        <ele>700.4</ele>
        <time>2022-08-04T06:22:41Z</time>
      </trkpt>
      <trkpt lat="45.59913" lon="1.86854">
        <ele>700.5</ele>
        <time>2022-08-04T06:22:43Z</time>
      </trkpt>
      <trkpt lat="45.59909" lon="1.86851">
        <ele>700.7</ele>
        <time>2022-08-04T06:22:45Z</time>
      </trkpt>
      <trkpt lat="45.59906" lon="1.86849">
        <ele>700.9</ele>
        <time>2022-08-04T06:22:47Z</time>
      </trkpt>
      <trkpt lat="45.59901" lon="1.86848">
        <ele>701</ele>
        <time>2022-08-04T06:22:49Z</time>
      </trkpt>
      <trkpt lat="45.59897" lon="1.86845">
        <ele>701.2</ele>
        <time>2022-08-04T06:22:51Z</time>
      </trkpt>
      <trkpt lat="45.59893" lon="1.86842">
        <ele>701.4</ele>
        <time>2022-08-04T06:22:53Z</time>
      </trkpt>
      <trkpt lat="45.59888" lon="1.8684">
        <ele>701.5</ele>
        <time>2022-08-04T06:22:55Z</time>
      </trkpt>
      <trkpt lat="45.59884" lon="1.86837">
        <ele>701.7</ele>
        <time>2022-08-04T06:22:57Z</time>
      </trkpt>
      <trkpt lat="45.5988" lon="1.86835">
        <ele>701.9</ele>
        <time>2022-08-04T06:22:59Z</time>
      </trkpt>
      <trkpt lat="45.59876" lon="1.86833">
        <ele>702</ele>
        <time>2022-08-04T06:23:01Z</time>
      </trkpt>
      <trkpt lat="45.59871" lon="1.86832">
        <ele>702.2</ele>
        <time>2022-08-04T06:23:03Z</time>
      </trkpt>
      <trkpt lat="45.59867" lon="1.86829">
        <ele>702.4</ele>
        <time>2022-08-04T06:23:05Z</time>
      </trkpt>
      <trkpt lat="45.59863" lon="1.86827">
        <ele>702.7</ele>
        <time>2022-08-04T06:23:07Z</time>
      </trkpt>
      <trkpt lat="45.59859" lon="1.86825">
        <ele>702.9</ele>
        <time>2022-08-04T06:23:09Z</time>
      </trkpt>
      <trkpt lat="45.59854" lon="1.86824">
        <ele>703.1</ele>
        <time>2022-08-04T06:23:11Z</time>
      </trkpt>
      <trkpt lat="45.5985" lon="1.86823">
        <ele>703.1</ele>
        <time>2022-08-04T06:23:13Z</time>
      </trkpt>
      <trkpt lat="45.59845" lon="1.86824">
        <ele>703</ele>
        <time>2022-08-04T06:23:15Z</time>
      </trkpt>
      <trkpt lat="45.59841" lon="1.86824">
        <ele>703</ele>
        <time>2022-08-04T06:23:17Z</time>
      </trkpt>
      <trkpt lat="45.59837" lon="1.86826">
        <ele>702.8</ele>
        <time>2022-08-04T06:23:19Z</time>
      </trkpt>
      <trkpt lat="45.59833" lon="1.86828">
        <ele>702.6</ele>
        <time>2022-08-04T06:23:21Z</time>
      </trkpt>
      <trkpt lat="45.59829" lon="1.86829">
        <ele>702.4</ele>
        <time>2022-08-04T06:23:23Z</time>
      </trkpt>
      <trkpt lat="45.59825" lon="1.86833">
        <ele>702</ele>
        <time>2022-08-04T06:23:25Z</time>
      </trkpt>
      <trkpt lat="45.59822" lon="1.86836">
        <ele>701.7</ele>
        <time>2022-08-04T06:23:27Z</time>
      </trkpt>
      <trkpt lat="45.59818" lon="1.86838">
        <ele>701.5</ele>
        <time>2022-08-04T06:23:29Z</time>
      </trkpt>
      <trkpt lat="45.59814" lon="1.86839">
        <ele>701.4</ele>
        <time>2022-08-04T06:23:31Z</time>
      </trkpt>
      <trkpt lat="45.59809" lon="1.8684">
        <ele>701.3</ele>
        <time>2022-08-04T06:23:33Z</time>
      </trkpt>
      <trkpt lat="45.59805" lon="1.8684">
        <ele>701.3</ele>
        <time>2022-08-04T06:23:35Z</time>
      </trkpt>
      <trkpt lat="45.59801" lon="1.86839">
        <ele>701.3</ele>
        <time>2022-08-04T06:23:37Z</time>
      </trkpt>
      <trkpt lat="45.59796" lon="1.86838">
        <ele>701.3</ele>
        <time>2022-08-04T06:23:39Z</time>
      </trkpt>
      <trkpt lat="45.59792" lon="1.86835">
        <ele>701.4</ele>
        <time>2022-08-04T06:23:41Z</time>
      </trkpt>
      <trkpt lat="45.59788" lon="1.8683">
        <ele>701.7</ele>
        <time>2022-08-04T06:23:43Z</time>
      </trkpt>
      <trkpt lat="45.59784" lon="1.86824">
        <ele>702.1</ele>
        <time>2022-08-04T06:23:45Z</time>
      </trkpt>
      <trkpt lat="45.5978" lon="1.86819">
        <ele>702.4</ele>
        <time>2022-08-04T06:23:47Z</time>
      </trkpt>
      <trkpt lat="45.59777" lon="1.8681">
        <ele>702.9</ele>
        <time>2022-08-04T06:23:49Z</time>
      </trkpt>
      <trkpt lat="45.59774" lon="1.86804">
        <ele>703.2</ele>
        <time>2022-08-04T06:23:51Z</time>
      </trkpt>
      <trkpt lat="45.5977" lon="1.86797">
        <ele>703.5</ele>
        <time>2022-08-04T06:23:53Z</time>
      </trkpt>
      <trkpt lat="45.59767" lon="1.86789">
        <ele>703.9</ele>
        <time>2022-08-04T06:23:55Z</time>
      </trkpt>
      <trkpt lat="45.59763" lon="1.86782">
        <ele>704.1</ele>
        <time>2022-08-04T06:23:57Z</time>
      </trkpt>
      <trkpt lat="45.59759" lon="1.86774">
        <ele>704.3</ele>
        <time>2022-08-04T06:23:59Z</time>
      </trkpt>
      <trkpt lat="45.59756" lon="1.86766">
        <ele>704.6</ele>
        <time>2022-08-04T06:24:01Z</time>
      </trkpt>
      <trkpt lat="45.59753" lon="1.86758">
        <ele>704.8</ele>
        <time>2022-08-04T06:24:03Z</time>
      </trkpt>
      <trkpt lat="45.5975" lon="1.86751">
        <ele>704.9</ele>
        <time>2022-08-04T06:24:05Z</time>
      </trkpt>
      <trkpt lat="45.59747" lon="1.86743">
        <ele>705.4</ele>
        <time>2022-08-04T06:24:07Z</time>
      </trkpt>
      <trkpt lat="45.59745" lon="1.86735">
        <ele>705.8</ele>
        <time>2022-08-04T06:24:09Z</time>
      </trkpt>
      <trkpt lat="45.59743" lon="1.86726">
        <ele>706.2</ele>
        <time>2022-08-04T06:24:11Z</time>
      </trkpt>
      <trkpt lat="45.59741" lon="1.86717">
        <ele>706.7</ele>
        <time>2022-08-04T06:24:13Z</time>
      </trkpt>
      <trkpt lat="45.59738" lon="1.86708">
        <ele>707.1</ele>
        <time>2022-08-04T06:24:15Z</time>
      </trkpt>
      <trkpt lat="45.59736" lon="1.86699">
        <ele>707.6</ele>
        <time>2022-08-04T06:24:17Z</time>
      </trkpt>
      <trkpt lat="45.59733" lon="1.86689">
        <ele>708.1</ele>
        <time>2022-08-04T06:24:19Z</time>
      </trkpt>
      <trkpt lat="45.59731" lon="1.86679">
        <ele>708.6</ele>
        <time>2022-08-04T06:24:21Z</time>
      </trkpt>
      <trkpt lat="45.59729" lon="1.8667">
        <ele>709.1</ele>
        <time>2022-08-04T06:24:23Z</time>
      </trkpt>
      <trkpt lat="45.59726" lon="1.86661">
        <ele>709.4</ele>
        <time>2022-08-04T06:24:25Z</time>
      </trkpt>
      <trkpt lat="45.59724" lon="1.86651">
        <ele>709.5</ele>
        <time>2022-08-04T06:24:27Z</time>
      </trkpt>
      <trkpt lat="45.59722" lon="1.8664">
        <ele>709.6</ele>
        <time>2022-08-04T06:24:29Z</time>
      </trkpt>
      <trkpt lat="45.59721" lon="1.86629">
        <ele>709.8</ele>
        <time>2022-08-04T06:24:31Z</time>
      </trkpt>
      <trkpt lat="45.5972" lon="1.86619">
        <ele>709.9</ele>
        <time>2022-08-04T06:24:33Z</time>
      </trkpt>
      <trkpt lat="45.59721" lon="1.86608">
        <ele>710</ele>
        <time>2022-08-04T06:24:35Z</time>
      </trkpt>
      <trkpt lat="45.59723" lon="1.86598">
        <ele>710.2</ele>
        <time>2022-08-04T06:24:37Z</time>
      </trkpt>
      <trkpt lat="45.59724" lon="1.86588">
        <ele>710.3</ele>
        <time>2022-08-04T06:24:39Z</time>
      </trkpt>
      <trkpt lat="45.59726" lon="1.86578">
        <ele>710.3</ele>
        <time>2022-08-04T06:24:41Z</time>
      </trkpt>
      <trkpt lat="45.59728" lon="1.86568">
        <ele>710.2</ele>
        <time>2022-08-04T06:24:43Z</time>
      </trkpt>
      <trkpt lat="45.59729" lon="1.86558">
        <ele>710</ele>
        <time>2022-08-04T06:24:45Z</time>
      </trkpt>
      <trkpt lat="45.59731" lon="1.86548">
        <ele>709.8</ele>
        <time>2022-08-04T06:24:47Z</time>
      </trkpt>
      <trkpt lat="45.59731" lon="1.86537">
        <ele>709.6</ele>
        <time>2022-08-04T06:24:49Z</time>
      </trkpt>
      <trkpt lat="45.59732" lon="1.86527">
        <ele>709.4</ele>
        <time>2022-08-04T06:24:51Z</time>
      </trkpt>
      <trkpt lat="45.59731" lon="1.86516">
        <ele>709.2</ele>
        <time>2022-08-04T06:24:53Z</time>
      </trkpt>
      <trkpt lat="45.59731" lon="1.86505">
        <ele>709</ele>
        <time>2022-08-04T06:24:55Z</time>
      </trkpt>
      <trkpt lat="45.5973" lon="1.86495">
        <ele>708.7</ele>
        <time>2022-08-04T06:24:57Z</time>
      </trkpt>
      <trkpt lat="45.5973" lon="1.86484">
        <ele>708.4</ele>
        <time>2022-08-04T06:24:59Z</time>
      </trkpt>
      <trkpt lat="45.59729" lon="1.86473">
        <ele>708.2</ele>
        <time>2022-08-04T06:25:01Z</time>
      </trkpt>
      <trkpt lat="45.59728" lon="1.86462">
        <ele>707.9</ele>
        <time>2022-08-04T06:25:03Z</time>
      </trkpt>
      <trkpt lat="45.59726" lon="1.86451">
        <ele>707.6</ele>
        <time>2022-08-04T06:25:05Z</time>
      </trkpt>
      <trkpt lat="45.59724" lon="1.86441">
        <ele>707.2</ele>
        <time>2022-08-04T06:25:07Z</time>
      </trkpt>
      <trkpt lat="45.59721" lon="1.8643">
        <ele>706.9</ele>
        <time>2022-08-04T06:25:09Z</time>
      </trkpt>
      <trkpt lat="45.59717" lon="1.8642">
        <ele>706.5</ele>
        <time>2022-08-04T06:25:11Z</time>
      </trkpt>
      <trkpt lat="45.59713" lon="1.86409">
        <ele>706.3</ele>
        <time>2022-08-04T06:25:13Z</time>
      </trkpt>
      <trkpt lat="45.59709" lon="1.864">
        <ele>706.2</ele>
        <time>2022-08-04T06:25:15Z</time>
      </trkpt>
      <trkpt lat="45.59705" lon="1.8639">
        <ele>706.2</ele>
        <time>2022-08-04T06:25:17Z</time>
      </trkpt>
      <trkpt lat="45.597" lon="1.8638">
        <ele>706.1</ele>
        <time>2022-08-04T06:25:19Z</time>
      </trkpt>
      <trkpt lat="45.59696" lon="1.86371">
        <ele>706.1</ele>
        <time>2022-08-04T06:25:21Z</time>
      </trkpt>
      <trkpt lat="45.59692" lon="1.86361">
        <ele>706.1</ele>
        <time>2022-08-04T06:25:23Z</time>
      </trkpt>
      <trkpt lat="45.59688" lon="1.86352">
        <ele>706.2</ele>
        <time>2022-08-04T06:25:25Z</time>
      </trkpt>
      <trkpt lat="45.59684" lon="1.86343">
        <ele>706.2</ele>
        <time>2022-08-04T06:25:27Z</time>
      </trkpt>
      <trkpt lat="45.59679" lon="1.86334">
        <ele>706.3</ele>
        <time>2022-08-04T06:25:29Z</time>
      </trkpt>
      <trkpt lat="45.59675" lon="1.86325">
        <ele>705.8</ele>
        <time>2022-08-04T06:25:31Z</time>
      </trkpt>
      <trkpt lat="45.59671" lon="1.86315">
        <ele>705.2</ele>
        <time>2022-08-04T06:25:33Z</time>
      </trkpt>
      <trkpt lat="45.59667" lon="1.86306">
        <ele>704.7</ele>
        <time>2022-08-04T06:25:35Z</time>
      </trkpt>
      <trkpt lat="45.59662" lon="1.86295">
        <ele>704.1</ele>
        <time>2022-08-04T06:25:37Z</time>
      </trkpt>
      <trkpt lat="45.59657" lon="1.86284">
        <ele>703.6</ele>
        <time>2022-08-04T06:25:39Z</time>
      </trkpt>
      <trkpt lat="45.59652" lon="1.8627">
        <ele>703</ele>
        <time>2022-08-04T06:25:41Z</time>
      </trkpt>
      <trkpt lat="45.59647" lon="1.86255">
        <ele>702.4</ele>
        <time>2022-08-04T06:25:43Z</time>
      </trkpt>
      <trkpt lat="45.59644" lon="1.86238">
        <ele>701.2</ele>
        <time>2022-08-04T06:25:45Z</time>
      </trkpt>
      <trkpt lat="45.59642" lon="1.86221">
        <ele>699.9</ele>
        <time>2022-08-04T06:25:47Z</time>
      </trkpt>
      <trkpt lat="45.59639" lon="1.86203">
        <ele>698.6</ele>
        <time>2022-08-04T06:25:49Z</time>
      </trkpt>
      <trkpt lat="45.5963" lon="1.86189">
        <ele>697.9</ele>
        <time>2022-08-04T06:25:51Z</time>
      </trkpt>
      <trkpt lat="45.59618" lon="1.86179">
        <ele>697.8</ele>
        <time>2022-08-04T06:25:53Z</time>
      </trkpt>
      <trkpt lat="45.59604" lon="1.86173">
        <ele>698.2</ele>
        <time>2022-08-04T06:25:55Z</time>
      </trkpt>
      <trkpt lat="45.59589" lon="1.86169">
        <ele>698.8</ele>
        <time>2022-08-04T06:25:57Z</time>
      </trkpt>
      <trkpt lat="45.59574" lon="1.86164">
        <ele>698.7</ele>
        <time>2022-08-04T06:25:59Z</time>
      </trkpt>
      <trkpt lat="45.5956" lon="1.8616">
        <ele>698.3</ele>
        <time>2022-08-04T06:26:01Z</time>
      </trkpt>
      <trkpt lat="45.59545" lon="1.86157">
        <ele>697.9</ele>
        <time>2022-08-04T06:26:03Z</time>
      </trkpt>
      <trkpt lat="45.5953" lon="1.86154">
        <ele>697.7</ele>
        <time>2022-08-04T06:26:05Z</time>
      </trkpt>
      <trkpt lat="45.59515" lon="1.8615">
        <ele>697.4</ele>
        <time>2022-08-04T06:26:07Z</time>
      </trkpt>
      <trkpt lat="45.59499" lon="1.86145">
        <ele>696.9</ele>
        <time>2022-08-04T06:26:09Z</time>
      </trkpt>
      <trkpt lat="45.59484" lon="1.86142">
        <ele>696.4</ele>
        <time>2022-08-04T06:26:11Z</time>
      </trkpt>
      <trkpt lat="45.59469" lon="1.86139">
        <ele>695.9</ele>
        <time>2022-08-04T06:26:13Z</time>
      </trkpt>
      <trkpt lat="45.59453" lon="1.86139">
        <ele>695.6</ele>
        <time>2022-08-04T06:26:15Z</time>
      </trkpt>
      <trkpt lat="45.59437" lon="1.8614">
        <ele>695.4</ele>
        <time>2022-08-04T06:26:17Z</time>
      </trkpt>
      <trkpt lat="45.59422" lon="1.86143">
        <ele>695.4</ele>
        <time>2022-08-04T06:26:19Z</time>
      </trkpt>
      <trkpt lat="45.59406" lon="1.86145">
        <ele>695.5</ele>
        <time>2022-08-04T06:26:21Z</time>
      </trkpt>
      <trkpt lat="45.59391" lon="1.86139">
        <ele>695.2</ele>
        <time>2022-08-04T06:26:23Z</time>
      </trkpt>
      <trkpt lat="45.59378" lon="1.86125">
        <ele>694.4</ele>
        <time>2022-08-04T06:26:25Z</time>
      </trkpt>
      <trkpt lat="45.59372" lon="1.86106">
        <ele>693.4</ele>
        <time>2022-08-04T06:26:27Z</time>
      </trkpt>
      <trkpt lat="45.59371" lon="1.86089">
        <ele>692.4</ele>
        <time>2022-08-04T06:26:29Z</time>
      </trkpt>
      <trkpt lat="45.59372" lon="1.86073">
        <ele>691.7</ele>
        <time>2022-08-04T06:26:31Z</time>
      </trkpt>
      <trkpt lat="45.59376" lon="1.86057">
        <ele>691</ele>
        <time>2022-08-04T06:26:33Z</time>
      </trkpt>
      <trkpt lat="45.59379" lon="1.86041">
        <ele>690.3</ele>
        <time>2022-08-04T06:26:35Z</time>
      </trkpt>
      <trkpt lat="45.59381" lon="1.86023">
        <ele>689.6</ele>
        <time>2022-08-04T06:26:37Z</time>
      </trkpt>
      <trkpt lat="45.59381" lon="1.86005">
        <ele>688.9</ele>
        <time>2022-08-04T06:26:39Z</time>
      </trkpt>
      <trkpt lat="45.59378" lon="1.85987">
        <ele>688.2</ele>
        <time>2022-08-04T06:26:41Z</time>
      </trkpt>
      <trkpt lat="45.59373" lon="1.8597">
        <ele>687.5</ele>
        <time>2022-08-04T06:26:43Z</time>
      </trkpt>
      <trkpt lat="45.59365" lon="1.85954">
        <ele>686.9</ele>
        <time>2022-08-04T06:26:45Z</time>
      </trkpt>
      <trkpt lat="45.59358" lon="1.85935">
        <ele>686.2</ele>
        <time>2022-08-04T06:26:47Z</time>
      </trkpt>
      <trkpt lat="45.59352" lon="1.85915">
        <ele>685.3</ele>
        <time>2022-08-04T06:26:49Z</time>
      </trkpt>
      <trkpt lat="45.59349" lon="1.85894">
        <ele>685</ele>
        <time>2022-08-04T06:26:51Z</time>
      </trkpt>
      <trkpt lat="45.59349" lon="1.85872">
        <ele>684.7</ele>
        <time>2022-08-04T06:26:53Z</time>
      </trkpt>
      <trkpt lat="45.59348" lon="1.85851">
        <ele>684.3</ele>
        <time>2022-08-04T06:26:55Z</time>
      </trkpt>
      <trkpt lat="45.59347" lon="1.85829">
        <ele>684</ele>
        <time>2022-08-04T06:26:57Z</time>
      </trkpt>
      <trkpt lat="45.59346" lon="1.85807">
        <ele>683.8</ele>
        <time>2022-08-04T06:26:59Z</time>
      </trkpt>
      <trkpt lat="45.59345" lon="1.85785">
        <ele>683.6</ele>
        <time>2022-08-04T06:27:01Z</time>
      </trkpt>
      <trkpt lat="45.59343" lon="1.85763">
        <ele>683.4</ele>
        <time>2022-08-04T06:27:03Z</time>
      </trkpt>
      <trkpt lat="45.59342" lon="1.8574">
        <ele>683.2</ele>
        <time>2022-08-04T06:27:05Z</time>
      </trkpt>
      <trkpt lat="45.59342" lon="1.85717">
        <ele>683.1</ele>
        <time>2022-08-04T06:27:07Z</time>
      </trkpt>
      <trkpt lat="45.59342" lon="1.85695">
        <ele>683</ele>
        <time>2022-08-04T06:27:09Z</time>
      </trkpt>
      <trkpt lat="45.59347" lon="1.85672">
        <ele>682.9</ele>
        <time>2022-08-04T06:27:11Z</time>
      </trkpt>
      <trkpt lat="45.59353" lon="1.85651">
        <ele>683.6</ele>
        <time>2022-08-04T06:27:13Z</time>
      </trkpt>
      <trkpt lat="45.59359" lon="1.85629">
        <ele>684.6</ele>
        <time>2022-08-04T06:27:15Z</time>
      </trkpt>
      <trkpt lat="45.59365" lon="1.85611">
        <ele>685.6</ele>
        <time>2022-08-04T06:27:17Z</time>
      </trkpt>
      <trkpt lat="45.5937" lon="1.85592">
        <ele>686.5</ele>
        <time>2022-08-04T06:27:19Z</time>
      </trkpt>
      <trkpt lat="45.59376" lon="1.85574">
        <ele>687.2</ele>
        <time>2022-08-04T06:27:21Z</time>
      </trkpt>
      <trkpt lat="45.59382" lon="1.85555">
        <ele>687.6</ele>
        <time>2022-08-04T06:27:23Z</time>
      </trkpt>
      <trkpt lat="45.59387" lon="1.85537">
        <ele>688.1</ele>
        <time>2022-08-04T06:27:25Z</time>
      </trkpt>
      <trkpt lat="45.59392" lon="1.85517">
        <ele>688.7</ele>
        <time>2022-08-04T06:27:27Z</time>
      </trkpt>
      <trkpt lat="45.59393" lon="1.85497">
        <ele>688.8</ele>
        <time>2022-08-04T06:27:29Z</time>
      </trkpt>
      <trkpt lat="45.59392" lon="1.85479">
        <ele>686.6</ele>
        <time>2022-08-04T06:27:31Z</time>
      </trkpt>
      <trkpt lat="45.59391" lon="1.85462">
        <ele>684.6</ele>
        <time>2022-08-04T06:27:33Z</time>
      </trkpt>
      <trkpt lat="45.59392" lon="1.85445">
        <ele>682.6</ele>
        <time>2022-08-04T06:27:35Z</time>
      </trkpt>
      <trkpt lat="45.59394" lon="1.85428">
        <ele>680.7</ele>
        <time>2022-08-04T06:27:37Z</time>
      </trkpt>
      <trkpt lat="45.59398" lon="1.85412">
        <ele>679.3</ele>
        <time>2022-08-04T06:27:39Z</time>
      </trkpt>
      <trkpt lat="45.59406" lon="1.85397">
        <ele>678.6</ele>
        <time>2022-08-04T06:27:41Z</time>
      </trkpt>
      <trkpt lat="45.59416" lon="1.85382">
        <ele>678</ele>
        <time>2022-08-04T06:27:43Z</time>
      </trkpt>
      <trkpt lat="45.59428" lon="1.8537">
        <ele>677.9</ele>
        <time>2022-08-04T06:27:45Z</time>
      </trkpt>
      <trkpt lat="45.59438" lon="1.85354">
        <ele>677.1</ele>
        <time>2022-08-04T06:27:47Z</time>
      </trkpt>
      <trkpt lat="45.59447" lon="1.85333">
        <ele>675.4</ele>
        <time>2022-08-04T06:27:49Z</time>
      </trkpt>
      <trkpt lat="45.59451" lon="1.85309">
        <ele>674.5</ele>
        <time>2022-08-04T06:27:51Z</time>
      </trkpt>
      <trkpt lat="45.59455" lon="1.85285">
        <ele>673.4</ele>
        <time>2022-08-04T06:27:53Z</time>
      </trkpt>
      <trkpt lat="45.59456" lon="1.8526">
        <ele>672.1</ele>
        <time>2022-08-04T06:27:55Z</time>
      </trkpt>
      <trkpt lat="45.59453" lon="1.85235">
        <ele>671.4</ele>
        <time>2022-08-04T06:27:57Z</time>
      </trkpt>
      <trkpt lat="45.59446" lon="1.85214">
        <ele>671.4</ele>
        <time>2022-08-04T06:27:59Z</time>
      </trkpt>
      <trkpt lat="45.59435" lon="1.85197">
        <ele>671.6</ele>
        <time>2022-08-04T06:28:01Z</time>
      </trkpt>
      <trkpt lat="45.59422" lon="1.85183">
        <ele>671.9</ele>
        <time>2022-08-04T06:28:03Z</time>
      </trkpt>
      <trkpt lat="45.59412" lon="1.85171">
        <ele>672</ele>
        <time>2022-08-04T06:28:05Z</time>
      </trkpt>
      <trkpt lat="45.59402" lon="1.8516">
        <ele>672</ele>
        <time>2022-08-04T06:28:07Z</time>
      </trkpt>
      <trkpt lat="45.59393" lon="1.8515">
        <ele>672</ele>
        <time>2022-08-04T06:28:09Z</time>
      </trkpt>
      <trkpt lat="45.59385" lon="1.85141">
        <ele>672.2</ele>
        <time>2022-08-04T06:28:11Z</time>
      </trkpt>
      <trkpt lat="45.59377" lon="1.8513">
        <ele>672.4</ele>
        <time>2022-08-04T06:28:13Z</time>
      </trkpt>
      <trkpt lat="45.5937" lon="1.85118">
        <ele>672.7</ele>
        <time>2022-08-04T06:28:15Z</time>
      </trkpt>
      <trkpt lat="45.59364" lon="1.85102">
        <ele>673.2</ele>
        <time>2022-08-04T06:28:17Z</time>
      </trkpt>
      <trkpt lat="45.59362" lon="1.85084">
        <ele>673.6</ele>
        <time>2022-08-04T06:28:19Z</time>
      </trkpt>
      <trkpt lat="45.59366" lon="1.85066">
        <ele>675.1</ele>
        <time>2022-08-04T06:28:21Z</time>
      </trkpt>
      <trkpt lat="45.59377" lon="1.85052">
        <ele>675.9</ele>
        <time>2022-08-04T06:28:23Z</time>
      </trkpt>
      <trkpt lat="45.5939" lon="1.85046">
        <ele>675.7</ele>
        <time>2022-08-04T06:28:25Z</time>
      </trkpt>
      <trkpt lat="45.59403" lon="1.85043">
        <ele>675.2</ele>
        <time>2022-08-04T06:28:27Z</time>
      </trkpt>
      <trkpt lat="45.59415" lon="1.85039">
        <ele>674.8</ele>
        <time>2022-08-04T06:28:29Z</time>
      </trkpt>
      <trkpt lat="45.59426" lon="1.85035">
        <ele>673.9</ele>
        <time>2022-08-04T06:28:31Z</time>
      </trkpt>
      <trkpt lat="45.59437" lon="1.85028">
        <ele>673</ele>
        <time>2022-08-04T06:28:33Z</time>
      </trkpt>
      <trkpt lat="45.59447" lon="1.85019">
        <ele>672.3</ele>
        <time>2022-08-04T06:28:35Z</time>
      </trkpt>
      <trkpt lat="45.59457" lon="1.85009">
        <ele>671.7</ele>
        <time>2022-08-04T06:28:37Z</time>
      </trkpt>
      <trkpt lat="45.59465" lon="1.84999">
        <ele>671.1</ele>
        <time>2022-08-04T06:28:39Z</time>
      </trkpt>
      <trkpt lat="45.59473" lon="1.84988">
        <ele>671.5</ele>
        <time>2022-08-04T06:28:41Z</time>
      </trkpt>
      <trkpt lat="45.5948" lon="1.84975">
        <ele>672.3</ele>
        <time>2022-08-04T06:28:43Z</time>
      </trkpt>
      <trkpt lat="45.59486" lon="1.84963">
        <ele>673.2</ele>
        <time>2022-08-04T06:28:45Z</time>
      </trkpt>
      <trkpt lat="45.59492" lon="1.84949">
        <ele>674.3</ele>
        <time>2022-08-04T06:28:47Z</time>
      </trkpt>
      <trkpt lat="45.59498" lon="1.84935">
        <ele>675.6</ele>
        <time>2022-08-04T06:28:49Z</time>
      </trkpt>
      <trkpt lat="45.59505" lon="1.84921">
        <ele>676.7</ele>
        <time>2022-08-04T06:28:51Z</time>
      </trkpt>
      <trkpt lat="45.59512" lon="1.84907">
        <ele>677.6</ele>
        <time>2022-08-04T06:28:53Z</time>
      </trkpt>
      <trkpt lat="45.59519" lon="1.84894">
        <ele>678</ele>
        <time>2022-08-04T06:28:55Z</time>
      </trkpt>
      <trkpt lat="45.59529" lon="1.84885">
        <ele>677.5</ele>
        <time>2022-08-04T06:28:57Z</time>
      </trkpt>
      <trkpt lat="45.59539" lon="1.84881">
        <ele>676.4</ele>
        <time>2022-08-04T06:28:59Z</time>
      </trkpt>
      <trkpt lat="45.5955" lon="1.84879">
        <ele>675</ele>
        <time>2022-08-04T06:29:01Z</time>
      </trkpt>
      <trkpt lat="45.59561" lon="1.84876">
        <ele>673.5</ele>
        <time>2022-08-04T06:29:03Z</time>
      </trkpt>
      <trkpt lat="45.59572" lon="1.84869">
        <ele>672.4</ele>
        <time>2022-08-04T06:29:05Z</time>
      </trkpt>
      <trkpt lat="45.59582" lon="1.84858">
        <ele>671.9</ele>
        <time>2022-08-04T06:29:07Z</time>
      </trkpt>
      <trkpt lat="45.5959" lon="1.84842">
        <ele>671.8</ele>
        <time>2022-08-04T06:29:09Z</time>
      </trkpt>
      <trkpt lat="45.59596" lon="1.84825">
        <ele>671.5</ele>
        <time>2022-08-04T06:29:11Z</time>
      </trkpt>
      <trkpt lat="45.59599" lon="1.84805">
        <ele>671.6</ele>
        <time>2022-08-04T06:29:13Z</time>
      </trkpt>
      <trkpt lat="45.59599" lon="1.84782">
        <ele>672.3</ele>
        <time>2022-08-04T06:29:15Z</time>
      </trkpt>
      <trkpt lat="45.59599" lon="1.84759">
        <ele>673.2</ele>
        <time>2022-08-04T06:29:17Z</time>
      </trkpt>
      <trkpt lat="45.59599" lon="1.84734">
        <ele>674</ele>
        <time>2022-08-04T06:29:19Z</time>
      </trkpt>
      <trkpt lat="45.59602" lon="1.8471">
        <ele>674</ele>
        <time>2022-08-04T06:29:21Z</time>
      </trkpt>
      <trkpt lat="45.59608" lon="1.84687">
        <ele>673.2</ele>
        <time>2022-08-04T06:29:23Z</time>
      </trkpt>
      <trkpt lat="45.59616" lon="1.84664">
        <ele>671.6</ele>
        <time>2022-08-04T06:29:25Z</time>
      </trkpt>
      <trkpt lat="45.59625" lon="1.84642">
        <ele>669.4</ele>
        <time>2022-08-04T06:29:27Z</time>
      </trkpt>
      <trkpt lat="45.59635" lon="1.84621">
        <ele>666.9</ele>
        <time>2022-08-04T06:29:29Z</time>
      </trkpt>
      <trkpt lat="45.59645" lon="1.84602">
        <ele>664.9</ele>
        <time>2022-08-04T06:29:31Z</time>
      </trkpt>
      <trkpt lat="45.59656" lon="1.84584">
        <ele>663.1</ele>
        <time>2022-08-04T06:29:33Z</time>
      </trkpt>
      <trkpt lat="45.5967" lon="1.84574">
        <ele>660.5</ele>
        <time>2022-08-04T06:29:35Z</time>
      </trkpt>
      <trkpt lat="45.59686" lon="1.84576">
        <ele>658.5</ele>
        <time>2022-08-04T06:29:37Z</time>
      </trkpt>
      <trkpt lat="45.59701" lon="1.84583">
        <ele>656.5</ele>
        <time>2022-08-04T06:29:39Z</time>
      </trkpt>
      <trkpt lat="45.59715" lon="1.84587">
        <ele>654.7</ele>
        <time>2022-08-04T06:29:41Z</time>
      </trkpt>
      <trkpt lat="45.59729" lon="1.84583">
        <ele>652.7</ele>
        <time>2022-08-04T06:29:43Z</time>
      </trkpt>
      <trkpt lat="45.59742" lon="1.84568">
        <ele>651.4</ele>
        <time>2022-08-04T06:29:45Z</time>
      </trkpt>
      <trkpt lat="45.59752" lon="1.84551">
        <ele>650.8</ele>
        <time>2022-08-04T06:29:47Z</time>
      </trkpt>
      <trkpt lat="45.59761" lon="1.84533">
        <ele>651</ele>
        <time>2022-08-04T06:29:49Z</time>
      </trkpt>
      <trkpt lat="45.59771" lon="1.84514">
        <ele>651.1</ele>
        <time>2022-08-04T06:29:51Z</time>
      </trkpt>
      <trkpt lat="45.5978" lon="1.84495">
        <ele>650.9</ele>
        <time>2022-08-04T06:29:53Z</time>
      </trkpt>
      <trkpt lat="45.59786" lon="1.84474">
        <ele>650.5</ele>
        <time>2022-08-04T06:29:55Z</time>
      </trkpt>
      <trkpt lat="45.59787" lon="1.84456">
        <ele>650.3</ele>
        <time>2022-08-04T06:29:57Z</time>
      </trkpt>
      <trkpt lat="45.59787" lon="1.84435">
        <ele>650.1</ele>
        <time>2022-08-04T06:29:59Z</time>
      </trkpt>
      <trkpt lat="45.59788" lon="1.84415">
        <ele>650</ele>
        <time>2022-08-04T06:30:01Z</time>
      </trkpt>
      <trkpt lat="45.59788" lon="1.84395">
        <ele>649.9</ele>
        <time>2022-08-04T06:30:03Z</time>
      </trkpt>
      <trkpt lat="45.59789" lon="1.84378">
        <ele>649.9</ele>
        <time>2022-08-04T06:30:05Z</time>
      </trkpt>
      <trkpt lat="45.59789" lon="1.84362">
        <ele>649.9</ele>
        <time>2022-08-04T06:30:07Z</time>
      </trkpt>
      <trkpt lat="45.59792" lon="1.84346">
        <ele>650</ele>
        <time>2022-08-04T06:30:09Z</time>
      </trkpt>
      <trkpt lat="45.59798" lon="1.84332">
        <ele>650.4</ele>
        <time>2022-08-04T06:30:11Z</time>
      </trkpt>
      <trkpt lat="45.59804" lon="1.84321">
        <ele>650.6</ele>
        <time>2022-08-04T06:30:13Z</time>
      </trkpt>
      <trkpt lat="45.5981" lon="1.84311">
        <ele>650.8</ele>
        <time>2022-08-04T06:30:15Z</time>
      </trkpt>
      <trkpt lat="45.59815" lon="1.84298">
        <ele>650.8</ele>
        <time>2022-08-04T06:30:17Z</time>
      </trkpt>
      <trkpt lat="45.59816" lon="1.84285">
        <ele>650.6</ele>
        <time>2022-08-04T06:30:19Z</time>
      </trkpt>
      <trkpt lat="45.59816" lon="1.84272">
        <ele>650.3</ele>
        <time>2022-08-04T06:30:21Z</time>
      </trkpt>
      <trkpt lat="45.59818" lon="1.84259">
        <ele>650.1</ele>
        <time>2022-08-04T06:30:23Z</time>
      </trkpt>
      <trkpt lat="45.59819" lon="1.84247">
        <ele>649.9</ele>
        <time>2022-08-04T06:30:25Z</time>
      </trkpt>
      <trkpt lat="45.5982" lon="1.84235">
        <ele>649.5</ele>
        <time>2022-08-04T06:30:27Z</time>
      </trkpt>
      <trkpt lat="45.59823" lon="1.84224">
        <ele>649.3</ele>
        <time>2022-08-04T06:30:29Z</time>
      </trkpt>
      <trkpt lat="45.59826" lon="1.84213">
        <ele>649.2</ele>
        <time>2022-08-04T06:30:31Z</time>
      </trkpt>
      <trkpt lat="45.5983" lon="1.84202">
        <ele>649</ele>
        <time>2022-08-04T06:30:33Z</time>
      </trkpt>
      <trkpt lat="45.59832" lon="1.8419">
        <ele>648.7</ele>
        <time>2022-08-04T06:30:35Z</time>
      </trkpt>
      <trkpt lat="45.59836" lon="1.84179">
        <ele>648.7</ele>
        <time>2022-08-04T06:30:37Z</time>
      </trkpt>
      <trkpt lat="45.5984" lon="1.84169">
        <ele>648.6</ele>
        <time>2022-08-04T06:30:39Z</time>
      </trkpt>
      <trkpt lat="45.59843" lon="1.8416">
        <ele>648.4</ele>
        <time>2022-08-04T06:30:41Z</time>
      </trkpt>
      <trkpt lat="45.59846" lon="1.84149">
        <ele>648.2</ele>
        <time>2022-08-04T06:30:43Z</time>
      </trkpt>
      <trkpt lat="45.59849" lon="1.84139">
        <ele>647.9</ele>
        <time>2022-08-04T06:30:45Z</time>
      </trkpt>
      <trkpt lat="45.59852" lon="1.84129">
        <ele>647.6</ele>
        <time>2022-08-04T06:30:47Z</time>
      </trkpt>
      <trkpt lat="45.59854" lon="1.8412">
        <ele>647.2</ele>
        <time>2022-08-04T06:30:49Z</time>
      </trkpt>
      <trkpt lat="45.59858" lon="1.8411">
        <ele>646.9</ele>
        <time>2022-08-04T06:30:51Z</time>
      </trkpt>
      <trkpt lat="45.5986" lon="1.84099">
        <ele>646.5</ele>
        <time>2022-08-04T06:30:53Z</time>
      </trkpt>
      <trkpt lat="45.59864" lon="1.84088">
        <ele>646</ele>
        <time>2022-08-04T06:30:55Z</time>
      </trkpt>
      <trkpt lat="45.59867" lon="1.84075">
        <ele>645.4</ele>
        <time>2022-08-04T06:30:57Z</time>
      </trkpt>
      <trkpt lat="45.5987" lon="1.8406">
        <ele>644.8</ele>
        <time>2022-08-04T06:30:59Z</time>
      </trkpt>
      <trkpt lat="45.59872" lon="1.84043">
        <ele>644</ele>
        <time>2022-08-04T06:31:01Z</time>
      </trkpt>
      <trkpt lat="45.59875" lon="1.84024">
        <ele>643.2</ele>
        <time>2022-08-04T06:31:03Z</time>
      </trkpt>
      <trkpt lat="45.59878" lon="1.84004">
        <ele>642.2</ele>
        <time>2022-08-04T06:31:05Z</time>
      </trkpt>
      <trkpt lat="45.59878" lon="1.83984">
        <ele>641.5</ele>
        <time>2022-08-04T06:31:07Z</time>
      </trkpt>
      <trkpt lat="45.59877" lon="1.83963">
        <ele>640.9</ele>
        <time>2022-08-04T06:31:09Z</time>
      </trkpt>
      <trkpt lat="45.59876" lon="1.83943">
        <ele>640.3</ele>
        <time>2022-08-04T06:31:11Z</time>
      </trkpt>
      <trkpt lat="45.59875" lon="1.83924">
        <ele>639.7</ele>
        <time>2022-08-04T06:31:13Z</time>
      </trkpt>
      <trkpt lat="45.59874" lon="1.83906">
        <ele>639.6</ele>
        <time>2022-08-04T06:31:15Z</time>
      </trkpt>
      <trkpt lat="45.59873" lon="1.83888">
        <ele>639.7</ele>
        <time>2022-08-04T06:31:17Z</time>
      </trkpt>
      <trkpt lat="45.59872" lon="1.83872">
        <ele>639.8</ele>
        <time>2022-08-04T06:31:19Z</time>
      </trkpt>
      <trkpt lat="45.5987" lon="1.83857">
        <ele>639.8</ele>
        <time>2022-08-04T06:31:21Z</time>
      </trkpt>
      <trkpt lat="45.59868" lon="1.83844">
        <ele>639.9</ele>
        <time>2022-08-04T06:31:23Z</time>
      </trkpt>
      <trkpt lat="45.59866" lon="1.8383">
        <ele>640.1</ele>
        <time>2022-08-04T06:31:25Z</time>
      </trkpt>
      <trkpt lat="45.59862" lon="1.83818">
        <ele>640.3</ele>
        <time>2022-08-04T06:31:27Z</time>
      </trkpt>
      <trkpt lat="45.59858" lon="1.83807">
        <ele>640.6</ele>
        <time>2022-08-04T06:31:29Z</time>
      </trkpt>
      <trkpt lat="45.59851" lon="1.838">
        <ele>640.9</ele>
        <time>2022-08-04T06:31:31Z</time>
      </trkpt>
      <trkpt lat="45.59841" lon="1.838">
        <ele>641.1</ele>
        <time>2022-08-04T06:31:33Z</time>
      </trkpt>
      <trkpt lat="45.59831" lon="1.83801">
        <ele>641.2</ele>
        <time>2022-08-04T06:31:35Z</time>
      </trkpt>
      <trkpt lat="45.59819" lon="1.83801">
        <ele>641.3</ele>
        <time>2022-08-04T06:31:37Z</time>
      </trkpt>
      <trkpt lat="45.59808" lon="1.838">
        <ele>641.5</ele>
        <time>2022-08-04T06:31:39Z</time>
      </trkpt>
      <trkpt lat="45.59797" lon="1.83799">
        <ele>641.7</ele>
        <time>2022-08-04T06:31:41Z</time>
      </trkpt>
      <trkpt lat="45.59785" lon="1.83797">
        <ele>642</ele>
        <time>2022-08-04T06:31:43Z</time>
      </trkpt>
      <trkpt lat="45.59774" lon="1.83796">
        <ele>642.2</ele>
        <time>2022-08-04T06:31:45Z</time>
      </trkpt>
      <trkpt lat="45.59763" lon="1.83796">
        <ele>642.4</ele>
        <time>2022-08-04T06:31:47Z</time>
      </trkpt>
      <trkpt lat="45.59753" lon="1.83796">
        <ele>642.5</ele>
        <time>2022-08-04T06:31:49Z</time>
      </trkpt>
      <trkpt lat="45.59742" lon="1.83797">
        <ele>643.3</ele>
        <time>2022-08-04T06:31:51Z</time>
      </trkpt>
      <trkpt lat="45.59731" lon="1.83799">
        <ele>644.2</ele>
        <time>2022-08-04T06:31:53Z</time>
      </trkpt>
      <trkpt lat="45.5972" lon="1.83801">
        <ele>645</ele>
        <time>2022-08-04T06:31:55Z</time>
      </trkpt>
      <trkpt lat="45.59709" lon="1.83805">
        <ele>645.7</ele>
        <time>2022-08-04T06:31:57Z</time>
      </trkpt>
      <trkpt lat="45.59698" lon="1.83807">
        <ele>646.4</ele>
        <time>2022-08-04T06:31:59Z</time>
      </trkpt>
      <trkpt lat="45.59688" lon="1.8381">
        <ele>647</ele>
        <time>2022-08-04T06:32:01Z</time>
      </trkpt>
      <trkpt lat="45.59678" lon="1.83817">
        <ele>647.1</ele>
        <time>2022-08-04T06:32:03Z</time>
      </trkpt>
      <trkpt lat="45.5967" lon="1.83831">
        <ele>646</ele>
        <time>2022-08-04T06:32:05Z</time>
      </trkpt>
      <trkpt lat="45.59665" lon="1.83852">
        <ele>646.9</ele>
        <time>2022-08-04T06:32:07Z</time>
      </trkpt>
      <trkpt lat="45.5966" lon="1.8387">
        <ele>647.9</ele>
        <time>2022-08-04T06:32:09Z</time>
      </trkpt>
      <trkpt lat="45.59652" lon="1.83886">
        <ele>648.8</ele>
        <time>2022-08-04T06:32:11Z</time>
      </trkpt>
      <trkpt lat="45.59641" lon="1.83895">
        <ele>649.4</ele>
        <time>2022-08-04T06:32:13Z</time>
      </trkpt>
      <trkpt lat="45.59633" lon="1.83898">
        <ele>649.7</ele>
        <time>2022-08-04T06:32:15Z</time>
      </trkpt>
      <trkpt lat="45.59625" lon="1.83899">
        <ele>649.9</ele>
        <time>2022-08-04T06:32:17Z</time>
      </trkpt>
      <trkpt lat="45.59619" lon="1.83902">
        <ele>650.2</ele>
        <time>2022-08-04T06:32:19Z</time>
      </trkpt>
      <trkpt lat="45.59613" lon="1.83904">
        <ele>650.5</ele>
        <time>2022-08-04T06:32:21Z</time>
      </trkpt>
      <trkpt lat="45.59608" lon="1.83905">
        <ele>650.7</ele>
        <time>2022-08-04T06:32:23Z</time>
      </trkpt>
      <trkpt lat="45.59601" lon="1.83909">
        <ele>651</ele>
        <time>2022-08-04T06:32:25Z</time>
      </trkpt>
      <trkpt lat="45.59595" lon="1.8391">
        <ele>651.3</ele>
        <time>2022-08-04T06:32:27Z</time>
      </trkpt>
      <trkpt lat="45.59588" lon="1.83911">
        <ele>651.5</ele>
        <time>2022-08-04T06:32:29Z</time>
      </trkpt>
      <trkpt lat="45.59583" lon="1.83913">
        <ele>651.7</ele>
        <time>2022-08-04T06:32:31Z</time>
      </trkpt>
      <trkpt lat="45.59577" lon="1.83915">
        <ele>651.9</ele>
        <time>2022-08-04T06:32:33Z</time>
      </trkpt>
      <trkpt lat="45.59571" lon="1.83916">
        <ele>652.1</ele>
        <time>2022-08-04T06:32:35Z</time>
      </trkpt>
      <trkpt lat="45.59566" lon="1.83918">
        <ele>652.4</ele>
        <time>2022-08-04T06:32:37Z</time>
      </trkpt>
      <trkpt lat="45.59561" lon="1.83919">
        <ele>652.7</ele>
        <time>2022-08-04T06:32:39Z</time>
      </trkpt>
      <trkpt lat="45.59556" lon="1.8392">
        <ele>652.8</ele>
        <time>2022-08-04T06:32:41Z</time>
      </trkpt>
      <trkpt lat="45.59551" lon="1.83921">
        <ele>653.1</ele>
        <time>2022-08-04T06:32:43Z</time>
      </trkpt>
      <trkpt lat="45.59547" lon="1.83922">
        <ele>653.2</ele>
        <time>2022-08-04T06:32:45Z</time>
      </trkpt>
      <trkpt lat="45.59544" lon="1.83923">
        <ele>653.4</ele>
        <time>2022-08-04T06:32:47Z</time>
      </trkpt>
      <trkpt lat="45.59539" lon="1.83925">
        <ele>653.7</ele>
        <time>2022-08-04T06:32:49Z</time>
      </trkpt>
      <trkpt lat="45.59535" lon="1.83926">
        <ele>654</ele>
        <time>2022-08-04T06:32:51Z</time>
      </trkpt>
      <trkpt lat="45.5953" lon="1.83928">
        <ele>654.4</ele>
        <time>2022-08-04T06:32:53Z</time>
      </trkpt>
      <trkpt lat="45.59526" lon="1.83931">
        <ele>654.7</ele>
        <time>2022-08-04T06:32:55Z</time>
      </trkpt>
      <trkpt lat="45.59521" lon="1.83932">
        <ele>655</ele>
        <time>2022-08-04T06:32:57Z</time>
      </trkpt>
      <trkpt lat="45.59515" lon="1.83933">
        <ele>655.2</ele>
        <time>2022-08-04T06:32:59Z</time>
      </trkpt>
      <trkpt lat="45.5951" lon="1.83935">
        <ele>655.5</ele>
        <time>2022-08-04T06:33:01Z</time>
      </trkpt>
      <trkpt lat="45.59505" lon="1.83937">
        <ele>655.9</ele>
        <time>2022-08-04T06:33:03Z</time>
      </trkpt>
      <trkpt lat="45.595" lon="1.83939">
        <ele>656.2</ele>
        <time>2022-08-04T06:33:05Z</time>
      </trkpt>
      <trkpt lat="45.59495" lon="1.83941">
        <ele>656.6</ele>
        <time>2022-08-04T06:33:07Z</time>
      </trkpt>
      <trkpt lat="45.5949" lon="1.83944">
        <ele>657</ele>
        <time>2022-08-04T06:33:09Z</time>
      </trkpt>
      <trkpt lat="45.59485" lon="1.83946">
        <ele>657.3</ele>
        <time>2022-08-04T06:33:11Z</time>
      </trkpt>
      <trkpt lat="45.5948" lon="1.83949">
        <ele>657.6</ele>
        <time>2022-08-04T06:33:13Z</time>
      </trkpt>
      <trkpt lat="45.59475" lon="1.83951">
        <ele>657.9</ele>
        <time>2022-08-04T06:33:15Z</time>
      </trkpt>
      <trkpt lat="45.59469" lon="1.83955">
        <ele>658.3</ele>
        <time>2022-08-04T06:33:17Z</time>
      </trkpt>
      <trkpt lat="45.59463" lon="1.83959">
        <ele>658.9</ele>
        <time>2022-08-04T06:33:19Z</time>
      </trkpt>
      <trkpt lat="45.59458" lon="1.83963">
        <ele>659.3</ele>
        <time>2022-08-04T06:33:21Z</time>
      </trkpt>
      <trkpt lat="45.59452" lon="1.83966">
        <ele>659.6</ele>
        <time>2022-08-04T06:33:23Z</time>
      </trkpt>
      <trkpt lat="45.59445" lon="1.83968">
        <ele>659.8</ele>
        <time>2022-08-04T06:33:25Z</time>
      </trkpt>
      <trkpt lat="45.59439" lon="1.83972">
        <ele>660.2</ele>
        <time>2022-08-04T06:33:27Z</time>
      </trkpt>
      <trkpt lat="45.59434" lon="1.83977">
        <ele>660.7</ele>
        <time>2022-08-04T06:33:29Z</time>
      </trkpt>
      <trkpt lat="45.59428" lon="1.83981">
        <ele>661.1</ele>
        <time>2022-08-04T06:33:31Z</time>
      </trkpt>
      <trkpt lat="45.59422" lon="1.83985">
        <ele>661.5</ele>
        <time>2022-08-04T06:33:33Z</time>
      </trkpt>
      <trkpt lat="45.59416" lon="1.83988">
        <ele>661.6</ele>
        <time>2022-08-04T06:33:35Z</time>
      </trkpt>
      <trkpt lat="45.5941" lon="1.83991">
        <ele>661.4</ele>
        <time>2022-08-04T06:33:37Z</time>
      </trkpt>
      <trkpt lat="45.59404" lon="1.83995">
        <ele>661.2</ele>
        <time>2022-08-04T06:33:39Z</time>
      </trkpt>
      <trkpt lat="45.59398" lon="1.83998">
        <ele>661</ele>
        <time>2022-08-04T06:33:41Z</time>
      </trkpt>
      <trkpt lat="45.59393" lon="1.84001">
        <ele>660.8</ele>
        <time>2022-08-04T06:33:43Z</time>
      </trkpt>
      <trkpt lat="45.59388" lon="1.84004">
        <ele>660.7</ele>
        <time>2022-08-04T06:33:45Z</time>
      </trkpt>
      <trkpt lat="45.59383" lon="1.84007">
        <ele>660.6</ele>
        <time>2022-08-04T06:33:47Z</time>
      </trkpt>
      <trkpt lat="45.59377" lon="1.84009">
        <ele>660.4</ele>
        <time>2022-08-04T06:33:49Z</time>
      </trkpt>
      <trkpt lat="45.59372" lon="1.84011">
        <ele>660.3</ele>
        <time>2022-08-04T06:33:51Z</time>
      </trkpt>
      <trkpt lat="45.59368" lon="1.84014">
        <ele>660.3</ele>
        <time>2022-08-04T06:33:53Z</time>
      </trkpt>
      <trkpt lat="45.59363" lon="1.84016">
        <ele>660.3</ele>
        <time>2022-08-04T06:33:55Z</time>
      </trkpt>
      <trkpt lat="45.59358" lon="1.84019">
        <ele>660.4</ele>
        <time>2022-08-04T06:33:57Z</time>
      </trkpt>
      <trkpt lat="45.59354" lon="1.84022">
        <ele>660.5</ele>
        <time>2022-08-04T06:33:59Z</time>
      </trkpt>
      <trkpt lat="45.5935" lon="1.84026">
        <ele>660.8</ele>
        <time>2022-08-04T06:34:01Z</time>
      </trkpt>
      <trkpt lat="45.59345" lon="1.84029">
        <ele>661</ele>
        <time>2022-08-04T06:34:03Z</time>
      </trkpt>
      <trkpt lat="45.59341" lon="1.84032">
        <ele>661.3</ele>
        <time>2022-08-04T06:34:05Z</time>
      </trkpt>
      <trkpt lat="45.59336" lon="1.84035">
        <ele>661.4</ele>
        <time>2022-08-04T06:34:07Z</time>
      </trkpt>
      <trkpt lat="45.59331" lon="1.84038">
        <ele>661.9</ele>
        <time>2022-08-04T06:34:09Z</time>
      </trkpt>
      <trkpt lat="45.59325" lon="1.84041">
        <ele>662.5</ele>
        <time>2022-08-04T06:34:11Z</time>
      </trkpt>
      <trkpt lat="45.5932" lon="1.84043">
        <ele>663.2</ele>
        <time>2022-08-04T06:34:13Z</time>
      </trkpt>
      <trkpt lat="45.59314" lon="1.84045">
        <ele>663.7</ele>
        <time>2022-08-04T06:34:15Z</time>
      </trkpt>
      <trkpt lat="45.59309" lon="1.84046">
        <ele>664.1</ele>
        <time>2022-08-04T06:34:17Z</time>
      </trkpt>
      <trkpt lat="45.59303" lon="1.84048">
        <ele>664.5</ele>
        <time>2022-08-04T06:34:19Z</time>
      </trkpt>
      <trkpt lat="45.59297" lon="1.84049">
        <ele>664.9</ele>
        <time>2022-08-04T06:34:21Z</time>
      </trkpt>
      <trkpt lat="45.59292" lon="1.8405">
        <ele>665.2</ele>
        <time>2022-08-04T06:34:23Z</time>
      </trkpt>
      <trkpt lat="45.59286" lon="1.84049">
        <ele>665.3</ele>
        <time>2022-08-04T06:34:25Z</time>
      </trkpt>
      <trkpt lat="45.59282" lon="1.84047">
        <ele>665.1</ele>
        <time>2022-08-04T06:34:27Z</time>
      </trkpt>
      <trkpt lat="45.59277" lon="1.84047">
        <ele>665.2</ele>
        <time>2022-08-04T06:34:29Z</time>
      </trkpt>
      <trkpt lat="45.59272" lon="1.84047">
        <ele>665.3</ele>
        <time>2022-08-04T06:34:31Z</time>
      </trkpt>
      <trkpt lat="45.59266" lon="1.84047">
        <ele>665.5</ele>
        <time>2022-08-04T06:34:33Z</time>
      </trkpt>
      <trkpt lat="45.59262" lon="1.84047">
        <ele>665.6</ele>
        <time>2022-08-04T06:34:35Z</time>
      </trkpt>
      <trkpt lat="45.59256" lon="1.84047">
        <ele>665.8</ele>
        <time>2022-08-04T06:34:37Z</time>
      </trkpt>
      <trkpt lat="45.59251" lon="1.84047">
        <ele>666.1</ele>
        <time>2022-08-04T06:34:39Z</time>
      </trkpt>
      <trkpt lat="45.59245" lon="1.84049">
        <ele>666.1</ele>
        <time>2022-08-04T06:34:41Z</time>
      </trkpt>
      <trkpt lat="45.5924" lon="1.84049">
        <ele>665.8</ele>
        <time>2022-08-04T06:34:43Z</time>
      </trkpt>
      <trkpt lat="45.59234" lon="1.84051">
        <ele>665.9</ele>
        <time>2022-08-04T06:34:45Z</time>
      </trkpt>
      <trkpt lat="45.59229" lon="1.84053">
        <ele>666</ele>
        <time>2022-08-04T06:34:47Z</time>
      </trkpt>
      <trkpt lat="45.59223" lon="1.84055">
        <ele>666</ele>
        <time>2022-08-04T06:34:49Z</time>
      </trkpt>
      <trkpt lat="45.59218" lon="1.84058">
        <ele>666.2</ele>
        <time>2022-08-04T06:34:51Z</time>
      </trkpt>
      <trkpt lat="45.59212" lon="1.84062">
        <ele>666.6</ele>
        <time>2022-08-04T06:34:53Z</time>
      </trkpt>
      <trkpt lat="45.59206" lon="1.84065">
        <ele>666.8</ele>
        <time>2022-08-04T06:34:55Z</time>
      </trkpt>
      <trkpt lat="45.592" lon="1.84067">
        <ele>666.9</ele>
        <time>2022-08-04T06:34:57Z</time>
      </trkpt>
      <trkpt lat="45.59194" lon="1.84071">
        <ele>667.4</ele>
        <time>2022-08-04T06:34:59Z</time>
      </trkpt>
      <trkpt lat="45.59188" lon="1.84075">
        <ele>667.7</ele>
        <time>2022-08-04T06:35:01Z</time>
      </trkpt>
      <trkpt lat="45.59183" lon="1.84078">
        <ele>667.9</ele>
        <time>2022-08-04T06:35:03Z</time>
      </trkpt>
      <trkpt lat="45.59177" lon="1.84081">
        <ele>668.1</ele>
        <time>2022-08-04T06:35:05Z</time>
      </trkpt>
      <trkpt lat="45.59172" lon="1.84084">
        <ele>668.4</ele>
        <time>2022-08-04T06:35:07Z</time>
      </trkpt>
      <trkpt lat="45.59166" lon="1.84087">
        <ele>668.4</ele>
        <time>2022-08-04T06:35:09Z</time>
      </trkpt>
      <trkpt lat="45.5916" lon="1.8409">
        <ele>668.5</ele>
        <time>2022-08-04T06:35:11Z</time>
      </trkpt>
      <trkpt lat="45.59155" lon="1.84093">
        <ele>668.5</ele>
        <time>2022-08-04T06:35:13Z</time>
      </trkpt>
      <trkpt lat="45.5915" lon="1.84095">
        <ele>668.4</ele>
        <time>2022-08-04T06:35:15Z</time>
      </trkpt>
      <trkpt lat="45.59145" lon="1.84099">
        <ele>668.5</ele>
        <time>2022-08-04T06:35:17Z</time>
      </trkpt>
      <trkpt lat="45.59139" lon="1.84102">
        <ele>668.6</ele>
        <time>2022-08-04T06:35:19Z</time>
      </trkpt>
      <trkpt lat="45.59134" lon="1.84104">
        <ele>668.5</ele>
        <time>2022-08-04T06:35:21Z</time>
      </trkpt>
      <trkpt lat="45.59128" lon="1.84107">
        <ele>668.6</ele>
        <time>2022-08-04T06:35:23Z</time>
      </trkpt>
      <trkpt lat="45.59122" lon="1.8411">
        <ele>668.7</ele>
        <time>2022-08-04T06:35:25Z</time>
      </trkpt>
      <trkpt lat="45.59116" lon="1.84114">
        <ele>668.7</ele>
        <time>2022-08-04T06:35:27Z</time>
      </trkpt>
      <trkpt lat="45.59108" lon="1.84117">
        <ele>668.7</ele>
        <time>2022-08-04T06:35:29Z</time>
      </trkpt>
      <trkpt lat="45.591" lon="1.84118">
        <ele>668.4</ele>
        <time>2022-08-04T06:35:31Z</time>
      </trkpt>
      <trkpt lat="45.59092" lon="1.84117">
        <ele>667.6</ele>
        <time>2022-08-04T06:35:33Z</time>
      </trkpt>
      <trkpt lat="45.59085" lon="1.84115">
        <ele>666.8</ele>
        <time>2022-08-04T06:35:35Z</time>
      </trkpt>
      <trkpt lat="45.59078" lon="1.84112">
        <ele>666.6</ele>
        <time>2022-08-04T06:35:37Z</time>
      </trkpt>
      <trkpt lat="45.59071" lon="1.84109">
        <ele>666.5</ele>
        <time>2022-08-04T06:35:39Z</time>
      </trkpt>
      <trkpt lat="45.59065" lon="1.84105">
        <ele>666.3</ele>
        <time>2022-08-04T06:35:41Z</time>
      </trkpt>
      <trkpt lat="45.59059" lon="1.841">
        <ele>666</ele>
        <time>2022-08-04T06:35:43Z</time>
      </trkpt>
      <trkpt lat="45.59053" lon="1.84097">
        <ele>665.9</ele>
        <time>2022-08-04T06:35:45Z</time>
      </trkpt>
      <trkpt lat="45.59046" lon="1.84094">
        <ele>665.8</ele>
        <time>2022-08-04T06:35:47Z</time>
      </trkpt>
      <trkpt lat="45.5904" lon="1.84091">
        <ele>665.9</ele>
        <time>2022-08-04T06:35:49Z</time>
      </trkpt>
      <trkpt lat="45.59034" lon="1.84086">
        <ele>665.7</ele>
        <time>2022-08-04T06:35:51Z</time>
      </trkpt>
      <trkpt lat="45.59028" lon="1.84083">
        <ele>665.6</ele>
        <time>2022-08-04T06:35:53Z</time>
      </trkpt>
      <trkpt lat="45.59021" lon="1.84079">
        <ele>665.8</ele>
        <time>2022-08-04T06:35:55Z</time>
      </trkpt>
      <trkpt lat="45.59015" lon="1.84075">
        <ele>666</ele>
        <time>2022-08-04T06:35:57Z</time>
      </trkpt>
      <trkpt lat="45.59009" lon="1.84072">
        <ele>666.2</ele>
        <time>2022-08-04T06:35:59Z</time>
      </trkpt>
      <trkpt lat="45.59002" lon="1.84068">
        <ele>666.5</ele>
        <time>2022-08-04T06:36:01Z</time>
      </trkpt>
      <trkpt lat="45.58996" lon="1.84063">
        <ele>666.3</ele>
        <time>2022-08-04T06:36:03Z</time>
      </trkpt>
      <trkpt lat="45.5899" lon="1.84059">
        <ele>666</ele>
        <time>2022-08-04T06:36:05Z</time>
      </trkpt>
      <trkpt lat="45.58983" lon="1.84053">
        <ele>665.6</ele>
        <time>2022-08-04T06:36:07Z</time>
      </trkpt>
      <trkpt lat="45.58976" lon="1.84046">
        <ele>665.2</ele>
        <time>2022-08-04T06:36:09Z</time>
      </trkpt>
      <trkpt lat="45.5897" lon="1.84038">
        <ele>664.8</ele>
        <time>2022-08-04T06:36:11Z</time>
      </trkpt>
      <trkpt lat="45.58965" lon="1.8403">
        <ele>664.5</ele>
        <time>2022-08-04T06:36:13Z</time>
      </trkpt>
      <trkpt lat="45.5896" lon="1.84022">
        <ele>664.1</ele>
        <time>2022-08-04T06:36:15Z</time>
      </trkpt>
      <trkpt lat="45.58956" lon="1.84013">
        <ele>663.8</ele>
        <time>2022-08-04T06:36:17Z</time>
      </trkpt>
      <trkpt lat="45.58952" lon="1.84005">
        <ele>663.5</ele>
        <time>2022-08-04T06:36:19Z</time>
      </trkpt>
      <trkpt lat="45.58948" lon="1.83997">
        <ele>663.4</ele>
        <time>2022-08-04T06:36:21Z</time>
      </trkpt>
      <trkpt lat="45.58944" lon="1.83989">
        <ele>663.2</ele>
        <time>2022-08-04T06:36:23Z</time>
      </trkpt>
      <trkpt lat="45.5894" lon="1.8398">
        <ele>662.9</ele>
        <time>2022-08-04T06:36:25Z</time>
      </trkpt>
      <trkpt lat="45.58937" lon="1.83971">
        <ele>662.6</ele>
        <time>2022-08-04T06:36:27Z</time>
      </trkpt>
      <trkpt lat="45.58933" lon="1.83963">
        <ele>662.4</ele>
        <time>2022-08-04T06:36:29Z</time>
      </trkpt>
      <trkpt lat="45.58928" lon="1.83955">
        <ele>662.1</ele>
        <time>2022-08-04T06:36:31Z</time>
      </trkpt>
      <trkpt lat="45.58922" lon="1.83946">
        <ele>661.7</ele>
        <time>2022-08-04T06:36:33Z</time>
      </trkpt>
      <trkpt lat="45.58914" lon="1.83938">
        <ele>661.3</ele>
        <time>2022-08-04T06:36:35Z</time>
      </trkpt>
      <trkpt lat="45.58907" lon="1.83929">
        <ele>660.7</ele>
        <time>2022-08-04T06:36:37Z</time>
      </trkpt>
      <trkpt lat="45.58899" lon="1.83921">
        <ele>660.2</ele>
        <time>2022-08-04T06:36:39Z</time>
      </trkpt>
      <trkpt lat="45.5889" lon="1.83911">
        <ele>659.6</ele>
        <time>2022-08-04T06:36:41Z</time>
      </trkpt>
      <trkpt lat="45.58881" lon="1.83902">
        <ele>658.8</ele>
        <time>2022-08-04T06:36:43Z</time>
      </trkpt>
      <trkpt lat="45.58872" lon="1.83894">
        <ele>658.1</ele>
        <time>2022-08-04T06:36:45Z</time>
      </trkpt>
      <trkpt lat="45.58863" lon="1.83887">
        <ele>657.5</ele>
        <time>2022-08-04T06:36:47Z</time>
      </trkpt>
      <trkpt lat="45.58855" lon="1.83882">
        <ele>657</ele>
        <time>2022-08-04T06:36:49Z</time>
      </trkpt>
      <trkpt lat="45.58845" lon="1.83877">
        <ele>656.7</ele>
        <time>2022-08-04T06:36:51Z</time>
      </trkpt>
      <trkpt lat="45.58835" lon="1.83875">
        <ele>656.5</ele>
        <time>2022-08-04T06:36:53Z</time>
      </trkpt>
      <trkpt lat="45.58825" lon="1.83875">
        <ele>656.3</ele>
        <time>2022-08-04T06:36:55Z</time>
      </trkpt>
      <trkpt lat="45.58816" lon="1.83875">
        <ele>656</ele>
        <time>2022-08-04T06:36:57Z</time>
      </trkpt>
      <trkpt lat="45.58806" lon="1.83878">
        <ele>655.9</ele>
        <time>2022-08-04T06:36:59Z</time>
      </trkpt>
      <trkpt lat="45.58799" lon="1.83879">
        <ele>655.8</ele>
        <time>2022-08-04T06:37:01Z</time>
      </trkpt>
      <trkpt lat="45.58796" lon="1.83877">
        <ele>655.5</ele>
        <time>2022-08-04T06:37:03Z</time>
      </trkpt>
      <trkpt lat="45.58796" lon="1.83877">
        <ele>655.5</ele>
        <time>2022-08-04T06:37:05Z</time>
      </trkpt>
      <trkpt lat="45.58796" lon="1.83877">
        <ele>655.5</ele>
        <time>2022-08-04T06:37:07Z</time>
      </trkpt>
      <trkpt lat="45.58796" lon="1.83878">
        <ele>655.6</ele>
        <time>2022-08-04T06:37:11Z</time>
      </trkpt>
      <trkpt lat="45.58781" lon="1.83882">
        <ele>655.4</ele>
        <time>2022-08-04T06:37:43Z</time>
      </trkpt>
      <trkpt lat="45.58772" lon="1.83882">
        <ele>655.2</ele>
        <time>2022-08-04T06:37:45Z</time>
      </trkpt>
      <trkpt lat="45.58763" lon="1.83881">
        <ele>654.9</ele>
        <time>2022-08-04T06:37:47Z</time>
      </trkpt>
      <trkpt lat="45.58751" lon="1.83881">
        <ele>654.5</ele>
        <time>2022-08-04T06:37:49Z</time>
      </trkpt>
      <trkpt lat="45.58739" lon="1.83881">
        <ele>653.8</ele>
        <time>2022-08-04T06:37:51Z</time>
      </trkpt>
      <trkpt lat="45.58726" lon="1.83882">
        <ele>653.2</ele>
        <time>2022-08-04T06:37:53Z</time>
      </trkpt>
      <trkpt lat="45.58716" lon="1.83883">
        <ele>652.7</ele>
        <time>2022-08-04T06:37:55Z</time>
      </trkpt>
      <trkpt lat="45.58707" lon="1.83886">
        <ele>652.4</ele>
        <time>2022-08-04T06:37:57Z</time>
      </trkpt>
      <trkpt lat="45.58698" lon="1.83888">
        <ele>652</ele>
        <time>2022-08-04T06:37:59Z</time>
      </trkpt>
      <trkpt lat="45.58689" lon="1.83889">
        <ele>651.6</ele>
        <time>2022-08-04T06:38:01Z</time>
      </trkpt>
      <trkpt lat="45.58678" lon="1.83892">
        <ele>651.1</ele>
        <time>2022-08-04T06:38:03Z</time>
      </trkpt>
      <trkpt lat="45.58668" lon="1.83899">
        <ele>651.1</ele>
        <time>2022-08-04T06:38:05Z</time>
      </trkpt>
      <trkpt lat="45.58663" lon="1.83911">
        <ele>651.3</ele>
        <time>2022-08-04T06:38:07Z</time>
      </trkpt>
      <trkpt lat="45.58659" lon="1.83924">
        <ele>651.9</ele>
        <time>2022-08-04T06:38:09Z</time>
      </trkpt>
      <trkpt lat="45.58656" lon="1.83937">
        <ele>652.8</ele>
        <time>2022-08-04T06:38:11Z</time>
      </trkpt>
      <trkpt lat="45.58652" lon="1.83948">
        <ele>653.4</ele>
        <time>2022-08-04T06:38:13Z</time>
      </trkpt>
      <trkpt lat="45.58648" lon="1.83958">
        <ele>653.8</ele>
        <time>2022-08-04T06:38:15Z</time>
      </trkpt>
      <trkpt lat="45.58645" lon="1.83966">
        <ele>654</ele>
        <time>2022-08-04T06:38:17Z</time>
      </trkpt>
      <trkpt lat="45.58641" lon="1.83974">
        <ele>654.1</ele>
        <time>2022-08-04T06:38:19Z</time>
      </trkpt>
      <trkpt lat="45.58637" lon="1.83981">
        <ele>654.1</ele>
        <time>2022-08-04T06:38:21Z</time>
      </trkpt>
      <trkpt lat="45.58632" lon="1.83988">
        <ele>653.9</ele>
        <time>2022-08-04T06:38:23Z</time>
      </trkpt>
      <trkpt lat="45.58629" lon="1.83997">
        <ele>653.9</ele>
        <time>2022-08-04T06:38:25Z</time>
      </trkpt>
      <trkpt lat="45.58624" lon="1.84007">
        <ele>653.5</ele>
        <time>2022-08-04T06:38:27Z</time>
      </trkpt>
      <trkpt lat="45.58619" lon="1.84018">
        <ele>652.9</ele>
        <time>2022-08-04T06:38:29Z</time>
      </trkpt>
      <trkpt lat="45.58613" lon="1.8403">
        <ele>652.3</ele>
        <time>2022-08-04T06:38:31Z</time>
      </trkpt>
      <trkpt lat="45.58607" lon="1.84041">
        <ele>651.7</ele>
        <time>2022-08-04T06:38:33Z</time>
      </trkpt>
      <trkpt lat="45.58603" lon="1.84053">
        <ele>651.3</ele>
        <time>2022-08-04T06:38:35Z</time>
      </trkpt>
      <trkpt lat="45.586" lon="1.84066">
        <ele>651.1</ele>
        <time>2022-08-04T06:38:37Z</time>
      </trkpt>
      <trkpt lat="45.58596" lon="1.84078">
        <ele>650.9</ele>
        <time>2022-08-04T06:38:39Z</time>
      </trkpt>
      <trkpt lat="45.58593" lon="1.8409">
        <ele>650.6</ele>
        <time>2022-08-04T06:38:41Z</time>
      </trkpt>
      <trkpt lat="45.5859" lon="1.84102">
        <ele>650.1</ele>
        <time>2022-08-04T06:38:43Z</time>
      </trkpt>
      <trkpt lat="45.58587" lon="1.8411">
        <ele>649.5</ele>
        <time>2022-08-04T06:38:45Z</time>
      </trkpt>
      <trkpt lat="45.58584" lon="1.84119">
        <ele>649.1</ele>
        <time>2022-08-04T06:38:47Z</time>
      </trkpt>
      <trkpt lat="45.58581" lon="1.84128">
        <ele>648.8</ele>
        <time>2022-08-04T06:38:49Z</time>
      </trkpt>
      <trkpt lat="45.58577" lon="1.84137">
        <ele>648.3</ele>
        <time>2022-08-04T06:38:51Z</time>
      </trkpt>
      <trkpt lat="45.58569" lon="1.84146">
        <ele>647.6</ele>
        <time>2022-08-04T06:38:53Z</time>
      </trkpt>
      <trkpt lat="45.58557" lon="1.84149">
        <ele>646.4</ele>
        <time>2022-08-04T06:38:55Z</time>
      </trkpt>
      <trkpt lat="45.58545" lon="1.84147">
        <ele>645.2</ele>
        <time>2022-08-04T06:38:57Z</time>
      </trkpt>
      <trkpt lat="45.58533" lon="1.84143">
        <ele>644</ele>
        <time>2022-08-04T06:38:59Z</time>
      </trkpt>
      <trkpt lat="45.58523" lon="1.8414">
        <ele>643</ele>
        <time>2022-08-04T06:39:01Z</time>
      </trkpt>
      <trkpt lat="45.58515" lon="1.84137">
        <ele>642.1</ele>
        <time>2022-08-04T06:39:03Z</time>
      </trkpt>
      <trkpt lat="45.58507" lon="1.84128">
        <ele>641.3</ele>
        <time>2022-08-04T06:39:05Z</time>
      </trkpt>
      <trkpt lat="45.58508" lon="1.84113">
        <ele>641.2</ele>
        <time>2022-08-04T06:39:07Z</time>
      </trkpt>
      <trkpt lat="45.58507" lon="1.84103">
        <ele>641</ele>
        <time>2022-08-04T06:39:09Z</time>
      </trkpt>
      <trkpt lat="45.58503" lon="1.84096">
        <ele>640.5</ele>
        <time>2022-08-04T06:39:11Z</time>
      </trkpt>
      <trkpt lat="45.58502" lon="1.84089">
        <ele>640.3</ele>
        <time>2022-08-04T06:39:13Z</time>
      </trkpt>
      <trkpt lat="45.58501" lon="1.84079">
        <ele>640.2</ele>
        <time>2022-08-04T06:39:15Z</time>
      </trkpt>
      <trkpt lat="45.58499" lon="1.8407">
        <ele>640.2</ele>
        <time>2022-08-04T06:39:17Z</time>
      </trkpt>
      <trkpt lat="45.58497" lon="1.84064">
        <ele>640.2</ele>
        <time>2022-08-04T06:39:19Z</time>
      </trkpt>
      <trkpt lat="45.58494" lon="1.84056">
        <ele>640.2</ele>
        <time>2022-08-04T06:39:21Z</time>
      </trkpt>
      <trkpt lat="45.58493" lon="1.84047">
        <ele>640.4</ele>
        <time>2022-08-04T06:39:23Z</time>
      </trkpt>
      <trkpt lat="45.58491" lon="1.84037">
        <ele>640.6</ele>
        <time>2022-08-04T06:39:25Z</time>
      </trkpt>
      <trkpt lat="45.58488" lon="1.84028">
        <ele>640.9</ele>
        <time>2022-08-04T06:39:27Z</time>
      </trkpt>
      <trkpt lat="45.58485" lon="1.84022">
        <ele>641</ele>
        <time>2022-08-04T06:39:29Z</time>
      </trkpt>
      <trkpt lat="45.5848" lon="1.84018">
        <ele>641.1</ele>
        <time>2022-08-04T06:39:31Z</time>
      </trkpt>
      <trkpt lat="45.58477" lon="1.84017">
        <ele>641.1</ele>
        <time>2022-08-04T06:39:33Z</time>
      </trkpt>
      <trkpt lat="45.58472" lon="1.84017">
        <ele>640.9</ele>
        <time>2022-08-04T06:39:35Z</time>
      </trkpt>
      <trkpt lat="45.58466" lon="1.84017">
        <ele>640.8</ele>
        <time>2022-08-04T06:39:37Z</time>
      </trkpt>
      <trkpt lat="45.58463" lon="1.84015">
        <ele>640.8</ele>
        <time>2022-08-04T06:39:39Z</time>
      </trkpt>
      <trkpt lat="45.58463" lon="1.84016">
        <ele>640.7</ele>
        <time>2022-08-04T06:39:41Z</time>
      </trkpt>
      <trkpt lat="45.58463" lon="1.84016">
        <ele>640.7</ele>
        <time>2022-08-04T06:39:43Z</time>
      </trkpt>
      <trkpt lat="45.58462" lon="1.84017">
        <ele>640.7</ele>
        <time>2022-08-04T06:39:45Z</time>
      </trkpt>
      <trkpt lat="45.58459" lon="1.84017">
        <ele>640.6</ele>
        <time>2022-08-04T06:39:47Z</time>
      </trkpt>
      <trkpt lat="45.58454" lon="1.84017">
        <ele>640.5</ele>
        <time>2022-08-04T06:39:49Z</time>
      </trkpt>
      <trkpt lat="45.58449" lon="1.84015">
        <ele>640.5</ele>
        <time>2022-08-04T06:39:51Z</time>
      </trkpt>
      <trkpt lat="45.58444" lon="1.84014">
        <ele>640.5</ele>
        <time>2022-08-04T06:39:53Z</time>
      </trkpt>
      <trkpt lat="45.58437" lon="1.84012">
        <ele>640.6</ele>
        <time>2022-08-04T06:39:55Z</time>
      </trkpt>
      <trkpt lat="45.58433" lon="1.84013">
        <ele>640.4</ele>
        <time>2022-08-04T06:39:57Z</time>
      </trkpt>
      <trkpt lat="45.58429" lon="1.84013">
        <ele>640.3</ele>
        <time>2022-08-04T06:39:59Z</time>
      </trkpt>
      <trkpt lat="45.58424" lon="1.84014">
        <ele>640.1</ele>
        <time>2022-08-04T06:40:01Z</time>
      </trkpt>
      <trkpt lat="45.58419" lon="1.84012">
        <ele>640.4</ele>
        <time>2022-08-04T06:40:03Z</time>
      </trkpt>
      <trkpt lat="45.58413" lon="1.84013">
        <ele>639.7</ele>
        <time>2022-08-04T06:40:05Z</time>
      </trkpt>
      <trkpt lat="45.5841" lon="1.84014">
        <ele>639.2</ele>
        <time>2022-08-04T06:40:07Z</time>
      </trkpt>
      <trkpt lat="45.58407" lon="1.84014">
        <ele>638.9</ele>
        <time>2022-08-04T06:40:09Z</time>
      </trkpt>
      <trkpt lat="45.58409" lon="1.84014">
        <ele>639.1</ele>
        <time>2022-08-04T06:40:11Z</time>
      </trkpt>
      <trkpt lat="45.58408" lon="1.84015">
        <ele>638.9</ele>
        <time>2022-08-04T06:40:13Z</time>
      </trkpt>
      <trkpt lat="45.58408" lon="1.84014">
        <ele>639</ele>
        <time>2022-08-04T06:40:15Z</time>
      </trkpt>
      <trkpt lat="45.58408" lon="1.84015">
        <ele>638.9</ele>
        <time>2022-08-04T06:40:17Z</time>
      </trkpt>
      <trkpt lat="45.58407" lon="1.84016">
        <ele>638.6</ele>
        <time>2022-08-04T06:40:19Z</time>
      </trkpt>
      <trkpt lat="45.58364" lon="1.84022">
        <ele>632.7</ele>
        <time>2022-08-04T06:42:59Z</time>
      </trkpt>
      <trkpt lat="45.58361" lon="1.84022">
        <ele>632.4</ele>
        <time>2022-08-04T06:43:01Z</time>
      </trkpt>
      <trkpt lat="45.5836" lon="1.84022">
        <ele>632.3</ele>
        <time>2022-08-04T06:43:03Z</time>
      </trkpt>
      <trkpt lat="45.58357" lon="1.84022">
        <ele>632</ele>
        <time>2022-08-04T06:43:05Z</time>
      </trkpt>
      <trkpt lat="45.58352" lon="1.84023">
        <ele>631.1</ele>
        <time>2022-08-04T06:43:07Z</time>
      </trkpt>
      <trkpt lat="45.58348" lon="1.84023">
        <ele>630.7</ele>
        <time>2022-08-04T06:43:09Z</time>
      </trkpt>
      <trkpt lat="45.58344" lon="1.84019">
        <ele>631.1</ele>
        <time>2022-08-04T06:43:11Z</time>
      </trkpt>
      <trkpt lat="45.58341" lon="1.84018">
        <ele>631</ele>
        <time>2022-08-04T06:43:13Z</time>
      </trkpt>
      <trkpt lat="45.58338" lon="1.84015">
        <ele>631.3</ele>
        <time>2022-08-04T06:43:15Z</time>
      </trkpt>
      <trkpt lat="45.58338" lon="1.84014">
        <ele>631.5</ele>
        <time>2022-08-04T06:43:17Z</time>
      </trkpt>
      <trkpt lat="45.58334" lon="1.84012">
        <ele>631.5</ele>
        <time>2022-08-04T06:43:19Z</time>
      </trkpt>
      <trkpt lat="45.58331" lon="1.8401">
        <ele>631.1</ele>
        <time>2022-08-04T06:43:21Z</time>
      </trkpt>
      <trkpt lat="45.58327" lon="1.84005">
        <ele>631.2</ele>
        <time>2022-08-04T06:43:23Z</time>
      </trkpt>
      <trkpt lat="45.58323" lon="1.84002">
        <ele>630.6</ele>
        <time>2022-08-04T06:43:25Z</time>
      </trkpt>
      <trkpt lat="45.58319" lon="1.84">
        <ele>629.9</ele>
        <time>2022-08-04T06:43:27Z</time>
      </trkpt>
      <trkpt lat="45.58314" lon="1.83995">
        <ele>629.4</ele>
        <time>2022-08-04T06:43:29Z</time>
      </trkpt>
      <trkpt lat="45.5831" lon="1.8399">
        <ele>629.1</ele>
        <time>2022-08-04T06:43:31Z</time>
      </trkpt>
      <trkpt lat="45.58307" lon="1.83986">
        <ele>628.9</ele>
        <time>2022-08-04T06:43:33Z</time>
      </trkpt>
      <trkpt lat="45.58303" lon="1.83982">
        <ele>628.9</ele>
        <time>2022-08-04T06:43:35Z</time>
      </trkpt>
      <trkpt lat="45.583" lon="1.8398">
        <ele>628.4</ele>
        <time>2022-08-04T06:43:37Z</time>
      </trkpt>
      <trkpt lat="45.58294" lon="1.83977">
        <ele>627.6</ele>
        <time>2022-08-04T06:43:39Z</time>
      </trkpt>
      <trkpt lat="45.58289" lon="1.83974">
        <ele>626.8</ele>
        <time>2022-08-04T06:43:41Z</time>
      </trkpt>
      <trkpt lat="45.58285" lon="1.83972">
        <ele>626.2</ele>
        <time>2022-08-04T06:43:43Z</time>
      </trkpt>
      <trkpt lat="45.5828" lon="1.8397">
        <ele>625.2</ele>
        <time>2022-08-04T06:43:45Z</time>
      </trkpt>
      <trkpt lat="45.58275" lon="1.83968">
        <ele>624.5</ele>
        <time>2022-08-04T06:43:47Z</time>
      </trkpt>
      <trkpt lat="45.58269" lon="1.83966">
        <ele>623.4</ele>
        <time>2022-08-04T06:43:49Z</time>
      </trkpt>
      <trkpt lat="45.58259" lon="1.8396">
        <ele>622.5</ele>
        <time>2022-08-04T06:43:51Z</time>
      </trkpt>
      <trkpt lat="45.58249" lon="1.83956">
        <ele>620.9</ele>
        <time>2022-08-04T06:43:53Z</time>
      </trkpt>
      <trkpt lat="45.58243" lon="1.83951">
        <ele>620.6</ele>
        <time>2022-08-04T06:43:55Z</time>
      </trkpt>
      <trkpt lat="45.58236" lon="1.83947">
        <ele>619.7</ele>
        <time>2022-08-04T06:43:57Z</time>
      </trkpt>
      <trkpt lat="45.58229" lon="1.83945">
        <ele>618.2</ele>
        <time>2022-08-04T06:43:59Z</time>
      </trkpt>
      <trkpt lat="45.58223" lon="1.83946">
        <ele>616.4</ele>
        <time>2022-08-04T06:44:01Z</time>
      </trkpt>
      <trkpt lat="45.58218" lon="1.83944">
        <ele>615.7</ele>
        <time>2022-08-04T06:44:03Z</time>
      </trkpt>
      <trkpt lat="45.58213" lon="1.83941">
        <ele>615</ele>
        <time>2022-08-04T06:44:05Z</time>
      </trkpt>
      <trkpt lat="45.58207" lon="1.83937">
        <ele>614.6</ele>
        <time>2022-08-04T06:44:07Z</time>
      </trkpt>
      <trkpt lat="45.58205" lon="1.83935">
        <ele>614.5</ele>
        <time>2022-08-04T06:44:09Z</time>
      </trkpt>
      <trkpt lat="45.58202" lon="1.83934">
        <ele>614</ele>
        <time>2022-08-04T06:44:11Z</time>
      </trkpt>
      <trkpt lat="45.58195" lon="1.83934">
        <ele>612.2</ele>
        <time>2022-08-04T06:44:13Z</time>
      </trkpt>
      <trkpt lat="45.58189" lon="1.83934">
        <ele>610.6</ele>
        <time>2022-08-04T06:44:15Z</time>
      </trkpt>
      <trkpt lat="45.58182" lon="1.83931">
        <ele>609.3</ele>
        <time>2022-08-04T06:44:17Z</time>
      </trkpt>
      <trkpt lat="45.58175" lon="1.83927">
        <ele>608.6</ele>
        <time>2022-08-04T06:44:19Z</time>
      </trkpt>
      <trkpt lat="45.58169" lon="1.8392">
        <ele>608.8</ele>
        <time>2022-08-04T06:44:21Z</time>
      </trkpt>
      <trkpt lat="45.58161" lon="1.83918">
        <ele>606.8</ele>
        <time>2022-08-04T06:44:23Z</time>
      </trkpt>
      <trkpt lat="45.58154" lon="1.83913">
        <ele>605.3</ele>
        <time>2022-08-04T06:44:25Z</time>
      </trkpt>
      <trkpt lat="45.58148" lon="1.83905">
        <ele>604.7</ele>
        <time>2022-08-04T06:44:27Z</time>
      </trkpt>
      <trkpt lat="45.58144" lon="1.839">
        <ele>604</ele>
        <time>2022-08-04T06:44:29Z</time>
      </trkpt>
      <trkpt lat="45.5814" lon="1.83896">
        <ele>603.2</ele>
        <time>2022-08-04T06:44:31Z</time>
      </trkpt>
      <trkpt lat="45.58134" lon="1.83891">
        <ele>602.3</ele>
        <time>2022-08-04T06:44:33Z</time>
      </trkpt>
      <trkpt lat="45.58131" lon="1.83886">
        <ele>601.9</ele>
        <time>2022-08-04T06:44:35Z</time>
      </trkpt>
      <trkpt lat="45.58127" lon="1.83881">
        <ele>601.3</ele>
        <time>2022-08-04T06:44:37Z</time>
      </trkpt>
      <trkpt lat="45.5812" lon="1.83875">
        <ele>600.3</ele>
        <time>2022-08-04T06:44:39Z</time>
      </trkpt>
      <trkpt lat="45.58116" lon="1.8387">
        <ele>599.8</ele>
        <time>2022-08-04T06:44:41Z</time>
      </trkpt>
      <trkpt lat="45.58114" lon="1.83864">
        <ele>599.9</ele>
        <time>2022-08-04T06:44:43Z</time>
      </trkpt>
      <trkpt lat="45.5811" lon="1.83857">
        <ele>599.7</ele>
        <time>2022-08-04T06:44:45Z</time>
      </trkpt>
      <trkpt lat="45.58107" lon="1.83854">
        <ele>599.2</ele>
        <time>2022-08-04T06:44:47Z</time>
      </trkpt>
      <trkpt lat="45.581" lon="1.8385">
        <ele>597.6</ele>
        <time>2022-08-04T06:44:49Z</time>
      </trkpt>
      <trkpt lat="45.58096" lon="1.83844">
        <ele>597.4</ele>
        <time>2022-08-04T06:44:51Z</time>
      </trkpt>
      <trkpt lat="45.58091" lon="1.83838">
        <ele>596.6</ele>
        <time>2022-08-04T06:44:53Z</time>
      </trkpt>
      <trkpt lat="45.58083" lon="1.83831">
        <ele>595.2</ele>
        <time>2022-08-04T06:44:55Z</time>
      </trkpt>
      <trkpt lat="45.58077" lon="1.83828">
        <ele>593.7</ele>
        <time>2022-08-04T06:44:57Z</time>
      </trkpt>
      <trkpt lat="45.58071" lon="1.83825">
        <ele>592.5</ele>
        <time>2022-08-04T06:44:59Z</time>
      </trkpt>
      <trkpt lat="45.58067" lon="1.83821">
        <ele>591.6</ele>
        <time>2022-08-04T06:45:01Z</time>
      </trkpt>
      <trkpt lat="45.5806" lon="1.8382">
        <ele>589.8</ele>
        <time>2022-08-04T06:45:03Z</time>
      </trkpt>
      <trkpt lat="45.58052" lon="1.83817">
        <ele>587.8</ele>
        <time>2022-08-04T06:45:05Z</time>
      </trkpt>
      <trkpt lat="45.58048" lon="1.83815">
        <ele>586.7</ele>
        <time>2022-08-04T06:45:07Z</time>
      </trkpt>
      <trkpt lat="45.58041" lon="1.83812">
        <ele>584.9</ele>
        <time>2022-08-04T06:45:09Z</time>
      </trkpt>
      <trkpt lat="45.58037" lon="1.8381">
        <ele>583.8</ele>
        <time>2022-08-04T06:45:11Z</time>
      </trkpt>
      <trkpt lat="45.58032" lon="1.83807">
        <ele>582.5</ele>
        <time>2022-08-04T06:45:13Z</time>
      </trkpt>
      <trkpt lat="45.58027" lon="1.83804">
        <ele>581.4</ele>
        <time>2022-08-04T06:45:15Z</time>
      </trkpt>
      <trkpt lat="45.58022" lon="1.83804">
        <ele>580.1</ele>
        <time>2022-08-04T06:45:17Z</time>
      </trkpt>
      <trkpt lat="45.58016" lon="1.83801">
        <ele>578.5</ele>
        <time>2022-08-04T06:45:19Z</time>
      </trkpt>
      <trkpt lat="45.58011" lon="1.83797">
        <ele>577.5</ele>
        <time>2022-08-04T06:45:21Z</time>
      </trkpt>
      <trkpt lat="45.58008" lon="1.83792">
        <ele>576.9</ele>
        <time>2022-08-04T06:45:23Z</time>
      </trkpt>
      <trkpt lat="45.58003" lon="1.83785">
        <ele>576.2</ele>
        <time>2022-08-04T06:45:25Z</time>
      </trkpt>
      <trkpt lat="45.57998" lon="1.83774">
        <ele>575.9</ele>
        <time>2022-08-04T06:45:27Z</time>
      </trkpt>
      <trkpt lat="45.57997" lon="1.83763">
        <ele>576.5</ele>
        <time>2022-08-04T06:45:29Z</time>
      </trkpt>
      <trkpt lat="45.57995" lon="1.83757">
        <ele>576.4</ele>
        <time>2022-08-04T06:45:31Z</time>
      </trkpt>
      <trkpt lat="45.57988" lon="1.83747">
        <ele>574.6</ele>
        <time>2022-08-04T06:45:33Z</time>
      </trkpt>
      <trkpt lat="45.57986" lon="1.83736">
        <ele>573.7</ele>
        <time>2022-08-04T06:45:35Z</time>
      </trkpt>
      <trkpt lat="45.57985" lon="1.83726">
        <ele>573.5</ele>
        <time>2022-08-04T06:45:37Z</time>
      </trkpt>
      <trkpt lat="45.57991" lon="1.83715">
        <ele>575.6</ele>
        <time>2022-08-04T06:45:39Z</time>
      </trkpt>
      <trkpt lat="45.57991" lon="1.83709">
        <ele>575.9</ele>
        <time>2022-08-04T06:45:41Z</time>
      </trkpt>
      <trkpt lat="45.5799" lon="1.83704">
        <ele>575.2</ele>
        <time>2022-08-04T06:45:43Z</time>
      </trkpt>
      <trkpt lat="45.57988" lon="1.83699">
        <ele>574.7</ele>
        <time>2022-08-04T06:45:45Z</time>
      </trkpt>
      <trkpt lat="45.57987" lon="1.83694">
        <ele>574.1</ele>
        <time>2022-08-04T06:45:47Z</time>
      </trkpt>
      <trkpt lat="45.57983" lon="1.83687">
        <ele>572.9</ele>
        <time>2022-08-04T06:45:49Z</time>
      </trkpt>
      <trkpt lat="45.57981" lon="1.83684">
        <ele>572</ele>
        <time>2022-08-04T06:45:51Z</time>
      </trkpt>
      <trkpt lat="45.57978" lon="1.83677">
        <ele>571.2</ele>
        <time>2022-08-04T06:45:53Z</time>
      </trkpt>
      <trkpt lat="45.57976" lon="1.83673">
        <ele>570.2</ele>
        <time>2022-08-04T06:45:55Z</time>
      </trkpt>
      <trkpt lat="45.57972" lon="1.83668">
        <ele>568.9</ele>
        <time>2022-08-04T06:45:57Z</time>
      </trkpt>
      <trkpt lat="45.57969" lon="1.83662">
        <ele>567.6</ele>
        <time>2022-08-04T06:45:59Z</time>
      </trkpt>
      <trkpt lat="45.57967" lon="1.83656">
        <ele>566.3</ele>
        <time>2022-08-04T06:46:01Z</time>
      </trkpt>
      <trkpt lat="45.57968" lon="1.83652">
        <ele>566.3</ele>
        <time>2022-08-04T06:46:03Z</time>
      </trkpt>
      <trkpt lat="45.57968" lon="1.83651">
        <ele>566.4</ele>
        <time>2022-08-04T06:46:05Z</time>
      </trkpt>
      <trkpt lat="45.57969" lon="1.83651">
        <ele>566.5</ele>
        <time>2022-08-04T06:46:07Z</time>
      </trkpt>
      <trkpt lat="45.57966" lon="1.83636">
        <ele>564.7</ele>
        <time>2022-08-04T06:50:49Z</time>
      </trkpt>
      <trkpt lat="45.57965" lon="1.83625">
        <ele>563.5</ele>
        <time>2022-08-04T06:50:51Z</time>
      </trkpt>
      <trkpt lat="45.57964" lon="1.83616">
        <ele>562.7</ele>
        <time>2022-08-04T06:50:53Z</time>
      </trkpt>
      <trkpt lat="45.57965" lon="1.83608">
        <ele>562.4</ele>
        <time>2022-08-04T06:50:55Z</time>
      </trkpt>
      <trkpt lat="45.57969" lon="1.83601">
        <ele>563</ele>
        <time>2022-08-04T06:50:57Z</time>
      </trkpt>
      <trkpt lat="45.57967" lon="1.83591">
        <ele>561.8</ele>
        <time>2022-08-04T06:50:59Z</time>
      </trkpt>
      <trkpt lat="45.57967" lon="1.83583">
        <ele>561.3</ele>
        <time>2022-08-04T06:51:01Z</time>
      </trkpt>
      <trkpt lat="45.57966" lon="1.83574">
        <ele>559.4</ele>
        <time>2022-08-04T06:51:03Z</time>
      </trkpt>
      <trkpt lat="45.57968" lon="1.83569">
        <ele>559.1</ele>
        <time>2022-08-04T06:51:05Z</time>
      </trkpt>
      <trkpt lat="45.5797" lon="1.83564">
        <ele>558.7</ele>
        <time>2022-08-04T06:51:07Z</time>
      </trkpt>
      <trkpt lat="45.57971" lon="1.83557">
        <ele>557.6</ele>
        <time>2022-08-04T06:51:09Z</time>
      </trkpt>
      <trkpt lat="45.57973" lon="1.83548">
        <ele>556.6</ele>
        <time>2022-08-04T06:51:11Z</time>
      </trkpt>
      <trkpt lat="45.57972" lon="1.83545">
        <ele>555.9</ele>
        <time>2022-08-04T06:51:13Z</time>
      </trkpt>
      <trkpt lat="45.57971" lon="1.83544">
        <ele>555.6</ele>
        <time>2022-08-04T06:51:15Z</time>
      </trkpt>
      <trkpt lat="45.57971" lon="1.83544">
        <ele>555.6</ele>
        <time>2022-08-04T06:51:17Z</time>
      </trkpt>
      <trkpt lat="45.57972" lon="1.83543">
        <ele>555.5</ele>
        <time>2022-08-04T06:51:19Z</time>
      </trkpt>
      <trkpt lat="45.57971" lon="1.83541">
        <ele>555.1</ele>
        <time>2022-08-04T06:51:21Z</time>
      </trkpt>
      <trkpt lat="45.57976" lon="1.83508">
        <ele>550.2</ele>
        <time>2022-08-04T06:51:49Z</time>
      </trkpt>
      <trkpt lat="45.57981" lon="1.83498">
        <ele>549.8</ele>
        <time>2022-08-04T06:51:51Z</time>
      </trkpt>
      <trkpt lat="45.57987" lon="1.83489">
        <ele>550.3</ele>
        <time>2022-08-04T06:51:53Z</time>
      </trkpt>
      <trkpt lat="45.57994" lon="1.8348">
        <ele>550.7</ele>
        <time>2022-08-04T06:51:55Z</time>
      </trkpt>
      <trkpt lat="45.58001" lon="1.83472">
        <ele>550.9</ele>
        <time>2022-08-04T06:51:57Z</time>
      </trkpt>
      <trkpt lat="45.58014" lon="1.83465">
        <ele>552.3</ele>
        <time>2022-08-04T06:51:59Z</time>
      </trkpt>
      <trkpt lat="45.58021" lon="1.83462">
        <ele>553.2</ele>
        <time>2022-08-04T06:52:01Z</time>
      </trkpt>
      <trkpt lat="45.58027" lon="1.83451">
        <ele>552.6</ele>
        <time>2022-08-04T06:52:03Z</time>
      </trkpt>
      <trkpt lat="45.58033" lon="1.8345">
        <ele>553.2</ele>
        <time>2022-08-04T06:52:05Z</time>
      </trkpt>
      <trkpt lat="45.58039" lon="1.83448">
        <ele>554</ele>
        <time>2022-08-04T06:52:07Z</time>
      </trkpt>
      <trkpt lat="45.58045" lon="1.83447">
        <ele>554.5</ele>
        <time>2022-08-04T06:52:09Z</time>
      </trkpt>
      <trkpt lat="45.58048" lon="1.83444">
        <ele>554.4</ele>
        <time>2022-08-04T06:52:11Z</time>
      </trkpt>
      <trkpt lat="45.58054" lon="1.8344">
        <ele>554.7</ele>
        <time>2022-08-04T06:52:13Z</time>
      </trkpt>
      <trkpt lat="45.58058" lon="1.8344">
        <ele>555.2</ele>
        <time>2022-08-04T06:52:15Z</time>
      </trkpt>
      <trkpt lat="45.58063" lon="1.83437">
        <ele>555.2</ele>
        <time>2022-08-04T06:52:17Z</time>
      </trkpt>
      <trkpt lat="45.58066" lon="1.83437">
        <ele>555.6</ele>
        <time>2022-08-04T06:52:19Z</time>
      </trkpt>
      <trkpt lat="45.5807" lon="1.83436">
        <ele>556.1</ele>
        <time>2022-08-04T06:52:21Z</time>
      </trkpt>
      <trkpt lat="45.58071" lon="1.83436">
        <ele>556</ele>
        <time>2022-08-04T06:52:23Z</time>
      </trkpt>
      <trkpt lat="45.58072" lon="1.83436">
        <ele>556.2</ele>
        <time>2022-08-04T06:52:25Z</time>
      </trkpt>
      <trkpt lat="45.58072" lon="1.83436">
        <ele>556.2</ele>
        <time>2022-08-04T06:52:29Z</time>
      </trkpt>
      <trkpt lat="45.58096" lon="1.83432">
        <ele>557.2</ele>
        <time>2022-08-04T06:52:55Z</time>
      </trkpt>
      <trkpt lat="45.58099" lon="1.83432">
        <ele>557.3</ele>
        <time>2022-08-04T06:52:57Z</time>
      </trkpt>
      <trkpt lat="45.58102" lon="1.83434">
        <ele>558</ele>
        <time>2022-08-04T06:52:59Z</time>
      </trkpt>
      <trkpt lat="45.58107" lon="1.83437">
        <ele>559.1</ele>
        <time>2022-08-04T06:53:01Z</time>
      </trkpt>
      <trkpt lat="45.5811" lon="1.83442">
        <ele>560.6</ele>
        <time>2022-08-04T06:53:03Z</time>
      </trkpt>
      <trkpt lat="45.58113" lon="1.83442">
        <ele>560.9</ele>
        <time>2022-08-04T06:53:05Z</time>
      </trkpt>
      <trkpt lat="45.58116" lon="1.83445">
        <ele>561.7</ele>
        <time>2022-08-04T06:53:07Z</time>
      </trkpt>
      <trkpt lat="45.58119" lon="1.83446">
        <ele>562.1</ele>
        <time>2022-08-04T06:53:09Z</time>
      </trkpt>
      <trkpt lat="45.58125" lon="1.83448">
        <ele>563.2</ele>
        <time>2022-08-04T06:53:11Z</time>
      </trkpt>
      <trkpt lat="45.5813" lon="1.8345">
        <ele>563.9</ele>
        <time>2022-08-04T06:53:13Z</time>
      </trkpt>
      <trkpt lat="45.58134" lon="1.83449">
        <ele>564</ele>
        <time>2022-08-04T06:53:15Z</time>
      </trkpt>
      <trkpt lat="45.58139" lon="1.8345">
        <ele>564.5</ele>
        <time>2022-08-04T06:53:17Z</time>
      </trkpt>
      <trkpt lat="45.58143" lon="1.8345">
        <ele>564.7</ele>
        <time>2022-08-04T06:53:19Z</time>
      </trkpt>
      <trkpt lat="45.58144" lon="1.83449">
        <ele>564.6</ele>
        <time>2022-08-04T06:53:21Z</time>
      </trkpt>
      <trkpt lat="45.58146" lon="1.83449">
        <ele>564.5</ele>
        <time>2022-08-04T06:53:23Z</time>
      </trkpt>
      <trkpt lat="45.5815" lon="1.83449">
        <ele>564.9</ele>
        <time>2022-08-04T06:53:25Z</time>
      </trkpt>
      <trkpt lat="45.58151" lon="1.83447">
        <ele>564</ele>
        <time>2022-08-04T06:53:27Z</time>
      </trkpt>
      <trkpt lat="45.58155" lon="1.83444">
        <ele>563.4</ele>
        <time>2022-08-04T06:53:29Z</time>
      </trkpt>
      <trkpt lat="45.58157" lon="1.83443">
        <ele>562.9</ele>
        <time>2022-08-04T06:53:31Z</time>
      </trkpt>
      <trkpt lat="45.58163" lon="1.83443">
        <ele>563.5</ele>
        <time>2022-08-04T06:53:33Z</time>
      </trkpt>
      <trkpt lat="45.58166" lon="1.83445">
        <ele>564.1</ele>
        <time>2022-08-04T06:53:35Z</time>
      </trkpt>
      <trkpt lat="45.58169" lon="1.83444">
        <ele>564.2</ele>
        <time>2022-08-04T06:53:37Z</time>
      </trkpt>
      <trkpt lat="45.58173" lon="1.8344">
        <ele>563.4</ele>
        <time>2022-08-04T06:53:39Z</time>
      </trkpt>
      <trkpt lat="45.58175" lon="1.83438">
        <ele>563</ele>
        <time>2022-08-04T06:53:41Z</time>
      </trkpt>
      <trkpt lat="45.58178" lon="1.8344">
        <ele>564</ele>
        <time>2022-08-04T06:53:43Z</time>
      </trkpt>
      <trkpt lat="45.58181" lon="1.83441">
        <ele>564.5</ele>
        <time>2022-08-04T06:53:45Z</time>
      </trkpt>
      <trkpt lat="45.58183" lon="1.8344">
        <ele>564.7</ele>
        <time>2022-08-04T06:53:47Z</time>
      </trkpt>
      <trkpt lat="45.58187" lon="1.8344">
        <ele>565.2</ele>
        <time>2022-08-04T06:53:49Z</time>
      </trkpt>
      <trkpt lat="45.5819" lon="1.83441">
        <ele>565.8</ele>
        <time>2022-08-04T06:53:51Z</time>
      </trkpt>
      <trkpt lat="45.58192" lon="1.83442">
        <ele>566.5</ele>
        <time>2022-08-04T06:53:53Z</time>
      </trkpt>
      <trkpt lat="45.58197" lon="1.83442">
        <ele>567.1</ele>
        <time>2022-08-04T06:53:55Z</time>
      </trkpt>
      <trkpt lat="45.582" lon="1.83442">
        <ele>567.5</ele>
        <time>2022-08-04T06:53:57Z</time>
      </trkpt>
      <trkpt lat="45.58203" lon="1.8344">
        <ele>567.4</ele>
        <time>2022-08-04T06:53:59Z</time>
      </trkpt>
      <trkpt lat="45.58206" lon="1.83441">
        <ele>568.1</ele>
        <time>2022-08-04T06:54:01Z</time>
      </trkpt>
      <trkpt lat="45.58209" lon="1.83442">
        <ele>568.7</ele>
        <time>2022-08-04T06:54:03Z</time>
      </trkpt>
      <trkpt lat="45.58213" lon="1.83444">
        <ele>569.9</ele>
        <time>2022-08-04T06:54:05Z</time>
      </trkpt>
      <trkpt lat="45.58216" lon="1.83446">
        <ele>571.2</ele>
        <time>2022-08-04T06:54:07Z</time>
      </trkpt>
      <trkpt lat="45.5822" lon="1.83447">
        <ele>571.9</ele>
        <time>2022-08-04T06:54:09Z</time>
      </trkpt>
      <trkpt lat="45.58223" lon="1.83449">
        <ele>573</ele>
        <time>2022-08-04T06:54:11Z</time>
      </trkpt>
      <trkpt lat="45.58227" lon="1.83449">
        <ele>573.5</ele>
        <time>2022-08-04T06:54:13Z</time>
      </trkpt>
      <trkpt lat="45.5823" lon="1.83449">
        <ele>573.8</ele>
        <time>2022-08-04T06:54:15Z</time>
      </trkpt>
      <trkpt lat="45.58232" lon="1.8345">
        <ele>574.5</ele>
        <time>2022-08-04T06:54:17Z</time>
      </trkpt>
      <trkpt lat="45.58235" lon="1.83453">
        <ele>575.8</ele>
        <time>2022-08-04T06:54:19Z</time>
      </trkpt>
      <trkpt lat="45.58238" lon="1.83453">
        <ele>576.1</ele>
        <time>2022-08-04T06:54:21Z</time>
      </trkpt>
      <trkpt lat="45.58239" lon="1.83454">
        <ele>576.6</ele>
        <time>2022-08-04T06:54:23Z</time>
      </trkpt>
      <trkpt lat="45.58243" lon="1.83453">
        <ele>577</ele>
        <time>2022-08-04T06:54:25Z</time>
      </trkpt>
      <trkpt lat="45.58244" lon="1.83453">
        <ele>577</ele>
        <time>2022-08-04T06:54:27Z</time>
      </trkpt>
      <trkpt lat="45.58245" lon="1.83452">
        <ele>576.8</ele>
        <time>2022-08-04T06:54:29Z</time>
      </trkpt>
      <trkpt lat="45.58247" lon="1.8345">
        <ele>576.3</ele>
        <time>2022-08-04T06:54:31Z</time>
      </trkpt>
      <trkpt lat="45.58249" lon="1.83447">
        <ele>575.6</ele>
        <time>2022-08-04T06:54:33Z</time>
      </trkpt>
      <trkpt lat="45.58255" lon="1.83439">
        <ele>574</ele>
        <time>2022-08-04T06:54:35Z</time>
      </trkpt>
      <trkpt lat="45.5826" lon="1.83429">
        <ele>571.9</ele>
        <time>2022-08-04T06:54:37Z</time>
      </trkpt>
      <trkpt lat="45.58266" lon="1.83418">
        <ele>569.5</ele>
        <time>2022-08-04T06:54:39Z</time>
      </trkpt>
      <trkpt lat="45.58274" lon="1.83406">
        <ele>568.4</ele>
        <time>2022-08-04T06:54:41Z</time>
      </trkpt>
      <trkpt lat="45.58283" lon="1.83399">
        <ele>568.4</ele>
        <time>2022-08-04T06:54:43Z</time>
      </trkpt>
      <trkpt lat="45.58292" lon="1.83394">
        <ele>568.6</ele>
        <time>2022-08-04T06:54:45Z</time>
      </trkpt>
      <trkpt lat="45.583" lon="1.83388">
        <ele>568.3</ele>
        <time>2022-08-04T06:54:47Z</time>
      </trkpt>
      <trkpt lat="45.58306" lon="1.83386">
        <ele>568.7</ele>
        <time>2022-08-04T06:54:49Z</time>
      </trkpt>
      <trkpt lat="45.58311" lon="1.83387">
        <ele>569.7</ele>
        <time>2022-08-04T06:54:51Z</time>
      </trkpt>
      <trkpt lat="45.58314" lon="1.83386">
        <ele>570</ele>
        <time>2022-08-04T06:54:53Z</time>
      </trkpt>
      <trkpt lat="45.58319" lon="1.83384">
        <ele>570.1</ele>
        <time>2022-08-04T06:54:55Z</time>
      </trkpt>
      <trkpt lat="45.58322" lon="1.83384">
        <ele>570.6</ele>
        <time>2022-08-04T06:54:57Z</time>
      </trkpt>
      <trkpt lat="45.58326" lon="1.83382">
        <ele>570.6</ele>
        <time>2022-08-04T06:54:59Z</time>
      </trkpt>
      <trkpt lat="45.5833" lon="1.83382">
        <ele>571.3</ele>
        <time>2022-08-04T06:55:01Z</time>
      </trkpt>
      <trkpt lat="45.58332" lon="1.8338">
        <ele>571</ele>
        <time>2022-08-04T06:55:03Z</time>
      </trkpt>
      <trkpt lat="45.58336" lon="1.83377">
        <ele>570.5</ele>
        <time>2022-08-04T06:55:05Z</time>
      </trkpt>
      <trkpt lat="45.58339" lon="1.83374">
        <ele>569.9</ele>
        <time>2022-08-04T06:55:07Z</time>
      </trkpt>
      <trkpt lat="45.58341" lon="1.83373">
        <ele>569.8</ele>
        <time>2022-08-04T06:55:09Z</time>
      </trkpt>
      <trkpt lat="45.58343" lon="1.83372">
        <ele>569.7</ele>
        <time>2022-08-04T06:55:11Z</time>
      </trkpt>
      <trkpt lat="45.58347" lon="1.83371">
        <ele>569.8</ele>
        <time>2022-08-04T06:55:13Z</time>
      </trkpt>
      <trkpt lat="45.58351" lon="1.8337">
        <ele>570.1</ele>
        <time>2022-08-04T06:55:15Z</time>
      </trkpt>
      <trkpt lat="45.58353" lon="1.83371">
        <ele>570.5</ele>
        <time>2022-08-04T06:55:17Z</time>
      </trkpt>
      <trkpt lat="45.58356" lon="1.83371">
        <ele>571.1</ele>
        <time>2022-08-04T06:55:19Z</time>
      </trkpt>
      <trkpt lat="45.58358" lon="1.83371">
        <ele>571.3</ele>
        <time>2022-08-04T06:55:21Z</time>
      </trkpt>
      <trkpt lat="45.58359" lon="1.83372">
        <ele>571.8</ele>
        <time>2022-08-04T06:55:23Z</time>
      </trkpt>
      <trkpt lat="45.58361" lon="1.83374">
        <ele>572.6</ele>
        <time>2022-08-04T06:55:25Z</time>
      </trkpt>
      <trkpt lat="45.58364" lon="1.83374">
        <ele>572.8</ele>
        <time>2022-08-04T06:55:27Z</time>
      </trkpt>
      <trkpt lat="45.58366" lon="1.83374">
        <ele>573.2</ele>
        <time>2022-08-04T06:55:29Z</time>
      </trkpt>
      <trkpt lat="45.58368" lon="1.83374">
        <ele>573.3</ele>
        <time>2022-08-04T06:55:31Z</time>
      </trkpt>
      <trkpt lat="45.5837" lon="1.83375">
        <ele>574</ele>
        <time>2022-08-04T06:55:33Z</time>
      </trkpt>
      <trkpt lat="45.58372" lon="1.83375">
        <ele>574.3</ele>
        <time>2022-08-04T06:55:35Z</time>
      </trkpt>
      <trkpt lat="45.58374" lon="1.83377">
        <ele>575</ele>
        <time>2022-08-04T06:55:37Z</time>
      </trkpt>
      <trkpt lat="45.58376" lon="1.83379">
        <ele>575.7</ele>
        <time>2022-08-04T06:55:39Z</time>
      </trkpt>
      <trkpt lat="45.58379" lon="1.83379">
        <ele>576.3</ele>
        <time>2022-08-04T06:55:41Z</time>
      </trkpt>
      <trkpt lat="45.58382" lon="1.8338">
        <ele>576.7</ele>
        <time>2022-08-04T06:55:43Z</time>
      </trkpt>
      <trkpt lat="45.58384" lon="1.8338">
        <ele>577</ele>
        <time>2022-08-04T06:55:45Z</time>
      </trkpt>
      <trkpt lat="45.58386" lon="1.83381">
        <ele>577.5</ele>
        <time>2022-08-04T06:55:47Z</time>
      </trkpt>
      <trkpt lat="45.58388" lon="1.83381">
        <ele>578</ele>
        <time>2022-08-04T06:55:49Z</time>
      </trkpt>
      <trkpt lat="45.5839" lon="1.83383">
        <ele>578.5</ele>
        <time>2022-08-04T06:55:51Z</time>
      </trkpt>
      <trkpt lat="45.58392" lon="1.83384">
        <ele>579.1</ele>
        <time>2022-08-04T06:55:53Z</time>
      </trkpt>
      <trkpt lat="45.58394" lon="1.83384">
        <ele>579.5</ele>
        <time>2022-08-04T06:55:55Z</time>
      </trkpt>
      <trkpt lat="45.58395" lon="1.83386">
        <ele>580</ele>
        <time>2022-08-04T06:55:57Z</time>
      </trkpt>
      <trkpt lat="45.58397" lon="1.83386">
        <ele>580.2</ele>
        <time>2022-08-04T06:55:59Z</time>
      </trkpt>
      <trkpt lat="45.58398" lon="1.83387">
        <ele>580.7</ele>
        <time>2022-08-04T06:56:01Z</time>
      </trkpt>
      <trkpt lat="45.58399" lon="1.83387">
        <ele>580.8</ele>
        <time>2022-08-04T06:56:03Z</time>
      </trkpt>
      <trkpt lat="45.58399" lon="1.83387">
        <ele>580.7</ele>
        <time>2022-08-04T06:56:05Z</time>
      </trkpt>
      <trkpt lat="45.58399" lon="1.83386">
        <ele>580.6</ele>
        <time>2022-08-04T06:56:07Z</time>
      </trkpt>
      <trkpt lat="45.58428" lon="1.83391">
        <ele>585.6</ele>
        <time>2022-08-04T06:56:57Z</time>
      </trkpt>
      <trkpt lat="45.58428" lon="1.8339">
        <ele>585.5</ele>
        <time>2022-08-04T06:56:59Z</time>
      </trkpt>
      <trkpt lat="45.58432" lon="1.83393">
        <ele>586.8</ele>
        <time>2022-08-04T06:57:01Z</time>
      </trkpt>
      <trkpt lat="45.58435" lon="1.83393">
        <ele>587.3</ele>
        <time>2022-08-04T06:57:03Z</time>
      </trkpt>
      <trkpt lat="45.58438" lon="1.83391">
        <ele>587.2</ele>
        <time>2022-08-04T06:57:05Z</time>
      </trkpt>
      <trkpt lat="45.58441" lon="1.83395">
        <ele>588.8</ele>
        <time>2022-08-04T06:57:07Z</time>
      </trkpt>
      <trkpt lat="45.58443" lon="1.83398">
        <ele>589.8</ele>
        <time>2022-08-04T06:57:09Z</time>
      </trkpt>
      <trkpt lat="45.58449" lon="1.83401">
        <ele>591.4</ele>
        <time>2022-08-04T06:57:11Z</time>
      </trkpt>
      <trkpt lat="45.58453" lon="1.83403">
        <ele>592.5</ele>
        <time>2022-08-04T06:57:13Z</time>
      </trkpt>
      <trkpt lat="45.58457" lon="1.83405">
        <ele>593.4</ele>
        <time>2022-08-04T06:57:15Z</time>
      </trkpt>
      <trkpt lat="45.58461" lon="1.83407">
        <ele>594.5</ele>
        <time>2022-08-04T06:57:17Z</time>
      </trkpt>
      <trkpt lat="45.58463" lon="1.83409">
        <ele>595.2</ele>
        <time>2022-08-04T06:57:19Z</time>
      </trkpt>
      <trkpt lat="45.58465" lon="1.8341">
        <ele>595.9</ele>
        <time>2022-08-04T06:57:21Z</time>
      </trkpt>
      <trkpt lat="45.58466" lon="1.83412">
        <ele>596.5</ele>
        <time>2022-08-04T06:57:23Z</time>
      </trkpt>
      <trkpt lat="45.58468" lon="1.83413">
        <ele>597</ele>
        <time>2022-08-04T06:57:25Z</time>
      </trkpt>
      <trkpt lat="45.5847" lon="1.83414">
        <ele>597.4</ele>
        <time>2022-08-04T06:57:27Z</time>
      </trkpt>
      <trkpt lat="45.58473" lon="1.83415">
        <ele>598.2</ele>
        <time>2022-08-04T06:57:29Z</time>
      </trkpt>
      <trkpt lat="45.58474" lon="1.83416">
        <ele>598.4</ele>
        <time>2022-08-04T06:57:31Z</time>
      </trkpt>
      <trkpt lat="45.58477" lon="1.83415">
        <ele>598.6</ele>
        <time>2022-08-04T06:57:33Z</time>
      </trkpt>
      <trkpt lat="45.58479" lon="1.83415">
        <ele>598.9</ele>
        <time>2022-08-04T06:57:35Z</time>
      </trkpt>
      <trkpt lat="45.58482" lon="1.83415">
        <ele>599.2</ele>
        <time>2022-08-04T06:57:37Z</time>
      </trkpt>
      <trkpt lat="45.58486" lon="1.83415">
        <ele>599.8</ele>
        <time>2022-08-04T06:57:39Z</time>
      </trkpt>
      <trkpt lat="45.58488" lon="1.83415">
        <ele>600</ele>
        <time>2022-08-04T06:57:41Z</time>
      </trkpt>
      <trkpt lat="45.5849" lon="1.8341">
        <ele>599.3</ele>
        <time>2022-08-04T06:57:43Z</time>
      </trkpt>
      <trkpt lat="45.58492" lon="1.83407">
        <ele>599</ele>
        <time>2022-08-04T06:57:45Z</time>
      </trkpt>
      <trkpt lat="45.58495" lon="1.83407">
        <ele>599.3</ele>
        <time>2022-08-04T06:57:47Z</time>
      </trkpt>
      <trkpt lat="45.58497" lon="1.83404">
        <ele>599</ele>
        <time>2022-08-04T06:57:49Z</time>
      </trkpt>
      <trkpt lat="45.58498" lon="1.83403">
        <ele>599</ele>
        <time>2022-08-04T06:57:51Z</time>
      </trkpt>
      <trkpt lat="45.585" lon="1.83399">
        <ele>598.4</ele>
        <time>2022-08-04T06:57:53Z</time>
      </trkpt>
      <trkpt lat="45.58502" lon="1.83397">
        <ele>598.5</ele>
        <time>2022-08-04T06:57:55Z</time>
      </trkpt>
      <trkpt lat="45.58503" lon="1.83394">
        <ele>598.4</ele>
        <time>2022-08-04T06:57:57Z</time>
      </trkpt>
      <trkpt lat="45.58504" lon="1.83393">
        <ele>598.3</ele>
        <time>2022-08-04T06:57:59Z</time>
      </trkpt>
      <trkpt lat="45.58507" lon="1.83391">
        <ele>598.9</ele>
        <time>2022-08-04T06:58:01Z</time>
      </trkpt>
      <trkpt lat="45.5851" lon="1.8339">
        <ele>599.6</ele>
        <time>2022-08-04T06:58:03Z</time>
      </trkpt>
      <trkpt lat="45.58511" lon="1.83389">
        <ele>599.7</ele>
        <time>2022-08-04T06:58:05Z</time>
      </trkpt>
      <trkpt lat="45.58512" lon="1.83386">
        <ele>599.5</ele>
        <time>2022-08-04T06:58:07Z</time>
      </trkpt>
      <trkpt lat="45.58513" lon="1.83383">
        <ele>599.5</ele>
        <time>2022-08-04T06:58:09Z</time>
      </trkpt>
      <trkpt lat="45.58516" lon="1.83381">
        <ele>599.9</ele>
        <time>2022-08-04T06:58:11Z</time>
      </trkpt>
      <trkpt lat="45.58517" lon="1.83379">
        <ele>599.9</ele>
        <time>2022-08-04T06:58:13Z</time>
      </trkpt>
      <trkpt lat="45.58518" lon="1.83377">
        <ele>599.8</ele>
        <time>2022-08-04T06:58:15Z</time>
      </trkpt>
      <trkpt lat="45.58521" lon="1.83375">
        <ele>600.3</ele>
        <time>2022-08-04T06:58:17Z</time>
      </trkpt>
      <trkpt lat="45.58522" lon="1.83373">
        <ele>600.5</ele>
        <time>2022-08-04T06:58:19Z</time>
      </trkpt>
      <trkpt lat="45.58525" lon="1.83371">
        <ele>600.8</ele>
        <time>2022-08-04T06:58:21Z</time>
      </trkpt>
      <trkpt lat="45.58525" lon="1.83366">
        <ele>600</ele>
        <time>2022-08-04T06:58:23Z</time>
      </trkpt>
      <trkpt lat="45.58525" lon="1.83361">
        <ele>599.2</ele>
        <time>2022-08-04T06:58:25Z</time>
      </trkpt>
      <trkpt lat="45.58528" lon="1.8336">
        <ele>600.1</ele>
        <time>2022-08-04T06:58:27Z</time>
      </trkpt>
      <trkpt lat="45.58529" lon="1.83356">
        <ele>599.5</ele>
        <time>2022-08-04T06:58:29Z</time>
      </trkpt>
      <trkpt lat="45.58529" lon="1.83352">
        <ele>599.1</ele>
        <time>2022-08-04T06:58:31Z</time>
      </trkpt>
      <trkpt lat="45.5853" lon="1.8335">
        <ele>598.9</ele>
        <time>2022-08-04T06:58:33Z</time>
      </trkpt>
      <trkpt lat="45.58531" lon="1.83346">
        <ele>598.5</ele>
        <time>2022-08-04T06:58:35Z</time>
      </trkpt>
      <trkpt lat="45.58531" lon="1.83343">
        <ele>598.1</ele>
        <time>2022-08-04T06:58:37Z</time>
      </trkpt>
      <trkpt lat="45.58532" lon="1.8334">
        <ele>597.9</ele>
        <time>2022-08-04T06:58:39Z</time>
      </trkpt>
      <trkpt lat="45.58534" lon="1.83339">
        <ele>598.4</ele>
        <time>2022-08-04T06:58:41Z</time>
      </trkpt>
      <trkpt lat="45.58536" lon="1.83337">
        <ele>598.4</ele>
        <time>2022-08-04T06:58:43Z</time>
      </trkpt>
      <trkpt lat="45.58537" lon="1.83336">
        <ele>598.7</ele>
        <time>2022-08-04T06:58:45Z</time>
      </trkpt>
      <trkpt lat="45.58539" lon="1.83333">
        <ele>598.9</ele>
        <time>2022-08-04T06:58:47Z</time>
      </trkpt>
      <trkpt lat="45.5854" lon="1.83332">
        <ele>599.1</ele>
        <time>2022-08-04T06:58:49Z</time>
      </trkpt>
      <trkpt lat="45.58542" lon="1.83329">
        <ele>599.2</ele>
        <time>2022-08-04T06:58:51Z</time>
      </trkpt>
      <trkpt lat="45.58542" lon="1.83326">
        <ele>598.7</ele>
        <time>2022-08-04T06:58:53Z</time>
      </trkpt>
      <trkpt lat="45.58544" lon="1.83323">
        <ele>598.6</ele>
        <time>2022-08-04T06:58:55Z</time>
      </trkpt>
      <trkpt lat="45.58546" lon="1.83321">
        <ele>599.1</ele>
        <time>2022-08-04T06:58:57Z</time>
      </trkpt>
      <trkpt lat="45.58547" lon="1.83319">
        <ele>599</ele>
        <time>2022-08-04T06:58:59Z</time>
      </trkpt>
      <trkpt lat="45.58549" lon="1.83317">
        <ele>599.4</ele>
        <time>2022-08-04T06:59:01Z</time>
      </trkpt>
      <trkpt lat="45.5855" lon="1.83314">
        <ele>599.1</ele>
        <time>2022-08-04T06:59:03Z</time>
      </trkpt>
      <trkpt lat="45.58554" lon="1.83313">
        <ele>600.1</ele>
        <time>2022-08-04T06:59:05Z</time>
      </trkpt>
      <trkpt lat="45.58555" lon="1.83312">
        <ele>600.3</ele>
        <time>2022-08-04T06:59:07Z</time>
      </trkpt>
      <trkpt lat="45.58557" lon="1.83309">
        <ele>600.5</ele>
        <time>2022-08-04T06:59:09Z</time>
      </trkpt>
      <trkpt lat="45.5856" lon="1.83308">
        <ele>601.2</ele>
        <time>2022-08-04T06:59:11Z</time>
      </trkpt>
      <trkpt lat="45.58561" lon="1.83304">
        <ele>600.8</ele>
        <time>2022-08-04T06:59:13Z</time>
      </trkpt>
      <trkpt lat="45.58562" lon="1.83301">
        <ele>600.3</ele>
        <time>2022-08-04T06:59:15Z</time>
      </trkpt>
      <trkpt lat="45.58565" lon="1.83298">
        <ele>600.6</ele>
        <time>2022-08-04T06:59:17Z</time>
      </trkpt>
      <trkpt lat="45.58567" lon="1.83298">
        <ele>601.2</ele>
        <time>2022-08-04T06:59:19Z</time>
      </trkpt>
      <trkpt lat="45.58569" lon="1.83297">
        <ele>601.9</ele>
        <time>2022-08-04T06:59:21Z</time>
      </trkpt>
      <trkpt lat="45.58572" lon="1.83296">
        <ele>602.2</ele>
        <time>2022-08-04T06:59:23Z</time>
      </trkpt>
      <trkpt lat="45.58574" lon="1.83295">
        <ele>602.7</ele>
        <time>2022-08-04T06:59:25Z</time>
      </trkpt>
      <trkpt lat="45.58576" lon="1.83293">
        <ele>603</ele>
        <time>2022-08-04T06:59:27Z</time>
      </trkpt>
      <trkpt lat="45.58578" lon="1.83291">
        <ele>603.3</ele>
        <time>2022-08-04T06:59:29Z</time>
      </trkpt>
      <trkpt lat="45.58581" lon="1.8329">
        <ele>603.8</ele>
        <time>2022-08-04T06:59:31Z</time>
      </trkpt>
      <trkpt lat="45.58582" lon="1.83288">
        <ele>603.7</ele>
        <time>2022-08-04T06:59:33Z</time>
      </trkpt>
      <trkpt lat="45.58585" lon="1.83287">
        <ele>604.1</ele>
        <time>2022-08-04T06:59:35Z</time>
      </trkpt>
      <trkpt lat="45.58587" lon="1.83287">
        <ele>604.6</ele>
        <time>2022-08-04T06:59:37Z</time>
      </trkpt>
      <trkpt lat="45.58589" lon="1.83286">
        <ele>604.6</ele>
        <time>2022-08-04T06:59:39Z</time>
      </trkpt>
      <trkpt lat="45.58592" lon="1.83284">
        <ele>604.6</ele>
        <time>2022-08-04T06:59:41Z</time>
      </trkpt>
      <trkpt lat="45.58594" lon="1.83282">
        <ele>604.5</ele>
        <time>2022-08-04T06:59:43Z</time>
      </trkpt>
      <trkpt lat="45.58595" lon="1.83281">
        <ele>604.5</ele>
        <time>2022-08-04T06:59:45Z</time>
      </trkpt>
      <trkpt lat="45.58597" lon="1.83282">
        <ele>605.1</ele>
        <time>2022-08-04T06:59:47Z</time>
      </trkpt>
      <trkpt lat="45.586" lon="1.8328">
        <ele>605.3</ele>
        <time>2022-08-04T06:59:49Z</time>
      </trkpt>
      <trkpt lat="45.58602" lon="1.83278">
        <ele>605.1</ele>
        <time>2022-08-04T06:59:51Z</time>
      </trkpt>
      <trkpt lat="45.58605" lon="1.83276">
        <ele>605</ele>
        <time>2022-08-04T06:59:53Z</time>
      </trkpt>
      <trkpt lat="45.58606" lon="1.83273">
        <ele>604.4</ele>
        <time>2022-08-04T06:59:55Z</time>
      </trkpt>
      <trkpt lat="45.58608" lon="1.83271">
        <ele>604.4</ele>
        <time>2022-08-04T06:59:57Z</time>
      </trkpt>
      <trkpt lat="45.58612" lon="1.83271">
        <ele>604.9</ele>
        <time>2022-08-04T06:59:59Z</time>
      </trkpt>
      <trkpt lat="45.58614" lon="1.83269">
        <ele>604.8</ele>
        <time>2022-08-04T07:00:01Z</time>
      </trkpt>
      <trkpt lat="45.58615" lon="1.83268">
        <ele>605</ele>
        <time>2022-08-04T07:00:03Z</time>
      </trkpt>
      <trkpt lat="45.58618" lon="1.83266">
        <ele>604.6</ele>
        <time>2022-08-04T07:00:05Z</time>
      </trkpt>
      <trkpt lat="45.5862" lon="1.83265">
        <ele>605</ele>
        <time>2022-08-04T07:00:07Z</time>
      </trkpt>
      <trkpt lat="45.58621" lon="1.83263">
        <ele>604.6</ele>
        <time>2022-08-04T07:00:09Z</time>
      </trkpt>
      <trkpt lat="45.58624" lon="1.83262">
        <ele>604.7</ele>
        <time>2022-08-04T07:00:11Z</time>
      </trkpt>
      <trkpt lat="45.58627" lon="1.83261">
        <ele>605.2</ele>
        <time>2022-08-04T07:00:13Z</time>
      </trkpt>
      <trkpt lat="45.58629" lon="1.83261">
        <ele>605.4</ele>
        <time>2022-08-04T07:00:15Z</time>
      </trkpt>
      <trkpt lat="45.58632" lon="1.83261">
        <ele>605.9</ele>
        <time>2022-08-04T07:00:17Z</time>
      </trkpt>
      <trkpt lat="45.58635" lon="1.83259">
        <ele>606</ele>
        <time>2022-08-04T07:00:19Z</time>
      </trkpt>
      <trkpt lat="45.58637" lon="1.83262">
        <ele>607</ele>
        <time>2022-08-04T07:00:21Z</time>
      </trkpt>
      <trkpt lat="45.5864" lon="1.83264">
        <ele>608.2</ele>
        <time>2022-08-04T07:00:23Z</time>
      </trkpt>
      <trkpt lat="45.58642" lon="1.83264">
        <ele>608.5</ele>
        <time>2022-08-04T07:00:25Z</time>
      </trkpt>
      <trkpt lat="45.58643" lon="1.83261">
        <ele>607.9</ele>
        <time>2022-08-04T07:00:27Z</time>
      </trkpt>
      <trkpt lat="45.58643" lon="1.83261">
        <ele>607.8</ele>
        <time>2022-08-04T07:00:29Z</time>
      </trkpt>
      <trkpt lat="45.58679" lon="1.83273">
        <ele>613.5</ele>
        <time>2022-08-04T07:02:47Z</time>
      </trkpt>
      <trkpt lat="45.58681" lon="1.83275">
        <ele>614</ele>
        <time>2022-08-04T07:02:49Z</time>
      </trkpt>
      <trkpt lat="45.58683" lon="1.83278">
        <ele>614.4</ele>
        <time>2022-08-04T07:02:51Z</time>
      </trkpt>
      <trkpt lat="45.58685" lon="1.8328">
        <ele>614.7</ele>
        <time>2022-08-04T07:02:53Z</time>
      </trkpt>
      <trkpt lat="45.58688" lon="1.83281">
        <ele>614.5</ele>
        <time>2022-08-04T07:02:55Z</time>
      </trkpt>
      <trkpt lat="45.58688" lon="1.83284">
        <ele>615.2</ele>
        <time>2022-08-04T07:02:57Z</time>
      </trkpt>
      <trkpt lat="45.58691" lon="1.83286">
        <ele>615.4</ele>
        <time>2022-08-04T07:02:59Z</time>
      </trkpt>
      <trkpt lat="45.58693" lon="1.83288">
        <ele>615.7</ele>
        <time>2022-08-04T07:03:01Z</time>
      </trkpt>
      <trkpt lat="45.58695" lon="1.8329">
        <ele>615.9</ele>
        <time>2022-08-04T07:03:03Z</time>
      </trkpt>
      <trkpt lat="45.58697" lon="1.83291">
        <ele>616.1</ele>
        <time>2022-08-04T07:03:05Z</time>
      </trkpt>
      <trkpt lat="45.58699" lon="1.83294">
        <ele>616.5</ele>
        <time>2022-08-04T07:03:07Z</time>
      </trkpt>
      <trkpt lat="45.58701" lon="1.83295">
        <ele>616.5</ele>
        <time>2022-08-04T07:03:09Z</time>
      </trkpt>
      <trkpt lat="45.58702" lon="1.83296">
        <ele>616.7</ele>
        <time>2022-08-04T07:03:11Z</time>
      </trkpt>
      <trkpt lat="45.58704" lon="1.83299">
        <ele>617</ele>
        <time>2022-08-04T07:03:13Z</time>
      </trkpt>
      <trkpt lat="45.58706" lon="1.833">
        <ele>617</ele>
        <time>2022-08-04T07:03:15Z</time>
      </trkpt>
      <trkpt lat="45.58708" lon="1.833">
        <ele>616.9</ele>
        <time>2022-08-04T07:03:17Z</time>
      </trkpt>
      <trkpt lat="45.5871" lon="1.83302">
        <ele>617.2</ele>
        <time>2022-08-04T07:03:19Z</time>
      </trkpt>
      <trkpt lat="45.58711" lon="1.83304">
        <ele>617.3</ele>
        <time>2022-08-04T07:03:21Z</time>
      </trkpt>
      <trkpt lat="45.58713" lon="1.83305">
        <ele>617.5</ele>
        <time>2022-08-04T07:03:23Z</time>
      </trkpt>
      <trkpt lat="45.58715" lon="1.83308">
        <ele>617.8</ele>
        <time>2022-08-04T07:03:25Z</time>
      </trkpt>
      <trkpt lat="45.58716" lon="1.83311">
        <ele>618.4</ele>
        <time>2022-08-04T07:03:27Z</time>
      </trkpt>
      <trkpt lat="45.58718" lon="1.83314">
        <ele>618.8</ele>
        <time>2022-08-04T07:03:29Z</time>
      </trkpt>
      <trkpt lat="45.5872" lon="1.83315">
        <ele>618.8</ele>
        <time>2022-08-04T07:03:31Z</time>
      </trkpt>
      <trkpt lat="45.58723" lon="1.83316">
        <ele>618.8</ele>
        <time>2022-08-04T07:03:33Z</time>
      </trkpt>
      <trkpt lat="45.58725" lon="1.83318">
        <ele>619</ele>
        <time>2022-08-04T07:03:35Z</time>
      </trkpt>
      <trkpt lat="45.58726" lon="1.83321">
        <ele>619.4</ele>
        <time>2022-08-04T07:03:37Z</time>
      </trkpt>
      <trkpt lat="45.58728" lon="1.83323">
        <ele>619.7</ele>
        <time>2022-08-04T07:03:39Z</time>
      </trkpt>
      <trkpt lat="45.5873" lon="1.83325">
        <ele>620</ele>
        <time>2022-08-04T07:03:41Z</time>
      </trkpt>
      <trkpt lat="45.58731" lon="1.83329">
        <ele>620.6</ele>
        <time>2022-08-04T07:03:43Z</time>
      </trkpt>
      <trkpt lat="45.58731" lon="1.83332">
        <ele>621.4</ele>
        <time>2022-08-04T07:03:45Z</time>
      </trkpt>
      <trkpt lat="45.58732" lon="1.83335">
        <ele>621.8</ele>
        <time>2022-08-04T07:03:47Z</time>
      </trkpt>
      <trkpt lat="45.58734" lon="1.83338">
        <ele>622.2</ele>
        <time>2022-08-04T07:03:49Z</time>
      </trkpt>
      <trkpt lat="45.58735" lon="1.83341">
        <ele>622.6</ele>
        <time>2022-08-04T07:03:51Z</time>
      </trkpt>
      <trkpt lat="45.58735" lon="1.83343">
        <ele>623</ele>
        <time>2022-08-04T07:03:53Z</time>
      </trkpt>
      <trkpt lat="45.58736" lon="1.83346">
        <ele>623.6</ele>
        <time>2022-08-04T07:03:55Z</time>
      </trkpt>
      <trkpt lat="45.58736" lon="1.83349">
        <ele>624.1</ele>
        <time>2022-08-04T07:03:57Z</time>
      </trkpt>
      <trkpt lat="45.58737" lon="1.83352">
        <ele>624.6</ele>
        <time>2022-08-04T07:03:59Z</time>
      </trkpt>
      <trkpt lat="45.58737" lon="1.83356">
        <ele>625.3</ele>
        <time>2022-08-04T07:04:01Z</time>
      </trkpt>
      <trkpt lat="45.58737" lon="1.8336">
        <ele>626.1</ele>
        <time>2022-08-04T07:04:03Z</time>
      </trkpt>
      <trkpt lat="45.58738" lon="1.83363">
        <ele>626.6</ele>
        <time>2022-08-04T07:04:05Z</time>
      </trkpt>
      <trkpt lat="45.58738" lon="1.83366">
        <ele>627.1</ele>
        <time>2022-08-04T07:04:07Z</time>
      </trkpt>
      <trkpt lat="45.58738" lon="1.83369">
        <ele>627.7</ele>
        <time>2022-08-04T07:04:09Z</time>
      </trkpt>
      <trkpt lat="45.58739" lon="1.83372">
        <ele>628.3</ele>
        <time>2022-08-04T07:04:11Z</time>
      </trkpt>
      <trkpt lat="45.58738" lon="1.83376">
        <ele>628.9</ele>
        <time>2022-08-04T07:04:13Z</time>
      </trkpt>
      <trkpt lat="45.58739" lon="1.83379">
        <ele>629.5</ele>
        <time>2022-08-04T07:04:15Z</time>
      </trkpt>
      <trkpt lat="45.5874" lon="1.83381">
        <ele>629.8</ele>
        <time>2022-08-04T07:04:17Z</time>
      </trkpt>
      <trkpt lat="45.5874" lon="1.83384">
        <ele>630.5</ele>
        <time>2022-08-04T07:04:19Z</time>
      </trkpt>
      <trkpt lat="45.58741" lon="1.83388">
        <ele>631.1</ele>
        <time>2022-08-04T07:04:21Z</time>
      </trkpt>
      <trkpt lat="45.58741" lon="1.83391">
        <ele>631.7</ele>
        <time>2022-08-04T07:04:23Z</time>
      </trkpt>
      <trkpt lat="45.58741" lon="1.83394">
        <ele>632.3</ele>
        <time>2022-08-04T07:04:25Z</time>
      </trkpt>
      <trkpt lat="45.58741" lon="1.83397">
        <ele>632.9</ele>
        <time>2022-08-04T07:04:27Z</time>
      </trkpt>
      <trkpt lat="45.58742" lon="1.834">
        <ele>633.4</ele>
        <time>2022-08-04T07:04:29Z</time>
      </trkpt>
      <trkpt lat="45.58742" lon="1.83403">
        <ele>633.8</ele>
        <time>2022-08-04T07:04:31Z</time>
      </trkpt>
      <trkpt lat="45.58742" lon="1.83406">
        <ele>634.4</ele>
        <time>2022-08-04T07:04:33Z</time>
      </trkpt>
      <trkpt lat="45.58743" lon="1.83408">
        <ele>634.8</ele>
        <time>2022-08-04T07:04:35Z</time>
      </trkpt>
      <trkpt lat="45.58744" lon="1.8341">
        <ele>635.2</ele>
        <time>2022-08-04T07:04:37Z</time>
      </trkpt>
      <trkpt lat="45.58744" lon="1.83413">
        <ele>635.8</ele>
        <time>2022-08-04T07:04:39Z</time>
      </trkpt>
      <trkpt lat="45.58723" lon="1.83386">
        <ele>632.7</ele>
        <time>2022-08-04T07:22:47Z</time>
      </trkpt>
      <trkpt lat="45.58723" lon="1.83372">
        <ele>630</ele>
        <time>2022-08-04T07:22:49Z</time>
      </trkpt>
      <trkpt lat="45.58725" lon="1.83358">
        <ele>627.2</ele>
        <time>2022-08-04T07:22:51Z</time>
      </trkpt>
      <trkpt lat="45.58731" lon="1.83344">
        <ele>623.6</ele>
        <time>2022-08-04T07:22:53Z</time>
      </trkpt>
      <trkpt lat="45.58731" lon="1.83332">
        <ele>621.4</ele>
        <time>2022-08-04T07:22:55Z</time>
      </trkpt>
      <trkpt lat="45.58732" lon="1.83318">
        <ele>618</ele>
        <time>2022-08-04T07:22:57Z</time>
      </trkpt>
      <trkpt lat="45.5873" lon="1.833">
        <ele>614.1</ele>
        <time>2022-08-04T07:22:59Z</time>
      </trkpt>
      <trkpt lat="45.58727" lon="1.8328">
        <ele>609.7</ele>
        <time>2022-08-04T07:23:01Z</time>
      </trkpt>
      <trkpt lat="45.58723" lon="1.83257">
        <ele>604.6</ele>
        <time>2022-08-04T07:23:03Z</time>
      </trkpt>
      <trkpt lat="45.58714" lon="1.83234">
        <ele>600.7</ele>
        <time>2022-08-04T07:23:05Z</time>
      </trkpt>
      <trkpt lat="45.58701" lon="1.83298">
        <ele>617.2</ele>
        <time>2022-08-04T07:23:07Z</time>
      </trkpt>
      <trkpt lat="45.58696" lon="1.83293">
        <ele>616.7</ele>
        <time>2022-08-04T07:23:09Z</time>
      </trkpt>
      <trkpt lat="45.58692" lon="1.8329">
        <ele>616.4</ele>
        <time>2022-08-04T07:23:11Z</time>
      </trkpt>
      <trkpt lat="45.58687" lon="1.83286">
        <ele>616</ele>
        <time>2022-08-04T07:23:13Z</time>
      </trkpt>
      <trkpt lat="45.58682" lon="1.83283">
        <ele>615.8</ele>
        <time>2022-08-04T07:23:15Z</time>
      </trkpt>
      <trkpt lat="45.58678" lon="1.83279">
        <ele>615.4</ele>
        <time>2022-08-04T07:23:17Z</time>
      </trkpt>
      <trkpt lat="45.58673" lon="1.83276">
        <ele>615.1</ele>
        <time>2022-08-04T07:23:19Z</time>
      </trkpt>
      <trkpt lat="45.58668" lon="1.83273">
        <ele>614.9</ele>
        <time>2022-08-04T07:23:21Z</time>
      </trkpt>
      <trkpt lat="45.58663" lon="1.83271">
        <ele>614</ele>
        <time>2022-08-04T07:23:23Z</time>
      </trkpt>
      <trkpt lat="45.58658" lon="1.83269">
        <ele>612.6</ele>
        <time>2022-08-04T07:23:25Z</time>
      </trkpt>
      <trkpt lat="45.58653" lon="1.83268">
        <ele>611.5</ele>
        <time>2022-08-04T07:23:27Z</time>
      </trkpt>
      <trkpt lat="45.58649" lon="1.83265">
        <ele>609.9</ele>
        <time>2022-08-04T07:23:29Z</time>
      </trkpt>
      <trkpt lat="45.58642" lon="1.83263">
        <ele>608.2</ele>
        <time>2022-08-04T07:23:31Z</time>
      </trkpt>
      <trkpt lat="45.58639" lon="1.83262">
        <ele>607.3</ele>
        <time>2022-08-04T07:23:33Z</time>
      </trkpt>
      <trkpt lat="45.58636" lon="1.83264">
        <ele>607.3</ele>
        <time>2022-08-04T07:23:35Z</time>
      </trkpt>
      <trkpt lat="45.58631" lon="1.83264">
        <ele>606.6</ele>
        <time>2022-08-04T07:23:37Z</time>
      </trkpt>
      <trkpt lat="45.58628" lon="1.83268">
        <ele>606.9</ele>
        <time>2022-08-04T07:23:39Z</time>
      </trkpt>
      <trkpt lat="45.58625" lon="1.83268">
        <ele>606.4</ele>
        <time>2022-08-04T07:23:41Z</time>
      </trkpt>
      <trkpt lat="45.58622" lon="1.8327">
        <ele>606.6</ele>
        <time>2022-08-04T07:23:43Z</time>
      </trkpt>
      <trkpt lat="45.5862" lon="1.83272">
        <ele>606.7</ele>
        <time>2022-08-04T07:23:45Z</time>
      </trkpt>
      <trkpt lat="45.58618" lon="1.83273">
        <ele>606.5</ele>
        <time>2022-08-04T07:23:47Z</time>
      </trkpt>
      <trkpt lat="45.58615" lon="1.83274">
        <ele>606.3</ele>
        <time>2022-08-04T07:23:49Z</time>
      </trkpt>
      <trkpt lat="45.58613" lon="1.83274">
        <ele>606</ele>
        <time>2022-08-04T07:23:51Z</time>
      </trkpt>
      <trkpt lat="45.58611" lon="1.83275">
        <ele>605.9</ele>
        <time>2022-08-04T07:23:53Z</time>
      </trkpt>
      <trkpt lat="45.58608" lon="1.83277">
        <ele>605.9</ele>
        <time>2022-08-04T07:23:55Z</time>
      </trkpt>
      <trkpt lat="45.58607" lon="1.83279">
        <ele>606</ele>
        <time>2022-08-04T07:23:57Z</time>
      </trkpt>
      <trkpt lat="45.58603" lon="1.83281">
        <ele>605.9</ele>
        <time>2022-08-04T07:23:59Z</time>
      </trkpt>
      <trkpt lat="45.586" lon="1.83283">
        <ele>605.9</ele>
        <time>2022-08-04T07:24:01Z</time>
      </trkpt>
      <trkpt lat="45.58597" lon="1.83286">
        <ele>606</ele>
        <time>2022-08-04T07:24:03Z</time>
      </trkpt>
      <trkpt lat="45.58593" lon="1.83289">
        <ele>606</ele>
        <time>2022-08-04T07:24:05Z</time>
      </trkpt>
      <trkpt lat="45.58589" lon="1.83292">
        <ele>606</ele>
        <time>2022-08-04T07:24:07Z</time>
      </trkpt>
      <trkpt lat="45.58588" lon="1.83292">
        <ele>605.9</ele>
        <time>2022-08-04T07:24:09Z</time>
      </trkpt>
      <trkpt lat="45.58585" lon="1.83294">
        <ele>606</ele>
        <time>2022-08-04T07:24:11Z</time>
      </trkpt>
      <trkpt lat="45.58583" lon="1.83297">
        <ele>606</ele>
        <time>2022-08-04T07:24:13Z</time>
      </trkpt>
      <trkpt lat="45.5858" lon="1.833">
        <ele>606</ele>
        <time>2022-08-04T07:24:15Z</time>
      </trkpt>
      <trkpt lat="45.58578" lon="1.83301">
        <ele>605.5</ele>
        <time>2022-08-04T07:24:17Z</time>
      </trkpt>
      <trkpt lat="45.58575" lon="1.83305">
        <ele>605.4</ele>
        <time>2022-08-04T07:24:19Z</time>
      </trkpt>
      <trkpt lat="45.58572" lon="1.83307">
        <ele>605.1</ele>
        <time>2022-08-04T07:24:21Z</time>
      </trkpt>
      <trkpt lat="45.58567" lon="1.83311">
        <ele>604.2</ele>
        <time>2022-08-04T07:24:23Z</time>
      </trkpt>
      <trkpt lat="45.58564" lon="1.83314">
        <ele>604</ele>
        <time>2022-08-04T07:24:25Z</time>
      </trkpt>
      <trkpt lat="45.58563" lon="1.83316">
        <ele>603.9</ele>
        <time>2022-08-04T07:24:27Z</time>
      </trkpt>
      <trkpt lat="45.58559" lon="1.83319">
        <ele>603.2</ele>
        <time>2022-08-04T07:24:29Z</time>
      </trkpt>
      <trkpt lat="45.58555" lon="1.83325">
        <ele>603.1</ele>
        <time>2022-08-04T07:24:31Z</time>
      </trkpt>
      <trkpt lat="45.58552" lon="1.8333">
        <ele>603</ele>
        <time>2022-08-04T07:24:33Z</time>
      </trkpt>
      <trkpt lat="45.58549" lon="1.83335">
        <ele>603</ele>
        <time>2022-08-04T07:24:35Z</time>
      </trkpt>
      <trkpt lat="45.58547" lon="1.83338">
        <ele>602.6</ele>
        <time>2022-08-04T07:24:37Z</time>
      </trkpt>
      <trkpt lat="45.58544" lon="1.83343">
        <ele>602.6</ele>
        <time>2022-08-04T07:24:39Z</time>
      </trkpt>
      <trkpt lat="45.58545" lon="1.83349">
        <ele>603.9</ele>
        <time>2022-08-04T07:24:41Z</time>
      </trkpt>
      <trkpt lat="45.58543" lon="1.83354">
        <ele>604</ele>
        <time>2022-08-04T07:24:43Z</time>
      </trkpt>
      <trkpt lat="45.58543" lon="1.83359">
        <ele>604.8</ele>
        <time>2022-08-04T07:24:45Z</time>
      </trkpt>
      <trkpt lat="45.58541" lon="1.83362">
        <ele>604.8</ele>
        <time>2022-08-04T07:24:47Z</time>
      </trkpt>
      <trkpt lat="45.58538" lon="1.83365">
        <ele>604.3</ele>
        <time>2022-08-04T07:24:49Z</time>
      </trkpt>
      <trkpt lat="45.58536" lon="1.83366">
        <ele>603.6</ele>
        <time>2022-08-04T07:24:51Z</time>
      </trkpt>
      <trkpt lat="45.58532" lon="1.8337">
        <ele>603.2</ele>
        <time>2022-08-04T07:24:53Z</time>
      </trkpt>
      <trkpt lat="45.5853" lon="1.83378">
        <ele>603.9</ele>
        <time>2022-08-04T07:24:55Z</time>
      </trkpt>
      <trkpt lat="45.58525" lon="1.83385">
        <ele>603.8</ele>
        <time>2022-08-04T07:24:57Z</time>
      </trkpt>
      <trkpt lat="45.58521" lon="1.83392">
        <ele>603.5</ele>
        <time>2022-08-04T07:24:59Z</time>
      </trkpt>
      <trkpt lat="45.58518" lon="1.83398">
        <ele>603.6</ele>
        <time>2022-08-04T07:25:01Z</time>
      </trkpt>
      <trkpt lat="45.58514" lon="1.834">
        <ele>603.1</ele>
        <time>2022-08-04T07:25:03Z</time>
      </trkpt>
      <trkpt lat="45.58509" lon="1.83404">
        <ele>602.2</ele>
        <time>2022-08-04T07:25:05Z</time>
      </trkpt>
      <trkpt lat="45.58505" lon="1.83409">
        <ele>601.8</ele>
        <time>2022-08-04T07:25:07Z</time>
      </trkpt>
      <trkpt lat="45.58503" lon="1.83411">
        <ele>601.7</ele>
        <time>2022-08-04T07:25:09Z</time>
      </trkpt>
      <trkpt lat="45.58499" lon="1.83413">
        <ele>601.1</ele>
        <time>2022-08-04T07:25:11Z</time>
      </trkpt>
      <trkpt lat="45.58494" lon="1.83415">
        <ele>600.7</ele>
        <time>2022-08-04T07:25:13Z</time>
      </trkpt>
      <trkpt lat="45.5849" lon="1.83414">
        <ele>600.1</ele>
        <time>2022-08-04T07:25:15Z</time>
      </trkpt>
      <trkpt lat="45.58483" lon="1.83419">
        <ele>600.2</ele>
        <time>2022-08-04T07:25:17Z</time>
      </trkpt>
      <trkpt lat="45.58478" lon="1.83418">
        <ele>599.4</ele>
        <time>2022-08-04T07:25:19Z</time>
      </trkpt>
      <trkpt lat="45.58473" lon="1.83416">
        <ele>598.3</ele>
        <time>2022-08-04T07:25:21Z</time>
      </trkpt>
      <trkpt lat="45.58468" lon="1.83415">
        <ele>597.3</ele>
        <time>2022-08-04T07:25:23Z</time>
      </trkpt>
      <trkpt lat="45.58463" lon="1.83412">
        <ele>596.1</ele>
        <time>2022-08-04T07:25:25Z</time>
      </trkpt>
      <trkpt lat="45.5846" lon="1.8341">
        <ele>595.1</ele>
        <time>2022-08-04T07:25:27Z</time>
      </trkpt>
      <trkpt lat="45.58456" lon="1.8341">
        <ele>594.6</ele>
        <time>2022-08-04T07:25:29Z</time>
      </trkpt>
      <trkpt lat="45.58452" lon="1.83409">
        <ele>593.8</ele>
        <time>2022-08-04T07:25:31Z</time>
      </trkpt>
      <trkpt lat="45.58449" lon="1.83408">
        <ele>593.2</ele>
        <time>2022-08-04T07:25:33Z</time>
      </trkpt>
      <trkpt lat="45.58446" lon="1.83407">
        <ele>592.6</ele>
        <time>2022-08-04T07:25:35Z</time>
      </trkpt>
      <trkpt lat="45.58444" lon="1.83406">
        <ele>591.8</ele>
        <time>2022-08-04T07:25:37Z</time>
      </trkpt>
      <trkpt lat="45.58441" lon="1.83404">
        <ele>590.9</ele>
        <time>2022-08-04T07:25:39Z</time>
      </trkpt>
      <trkpt lat="45.58439" lon="1.83404">
        <ele>590.6</ele>
        <time>2022-08-04T07:25:41Z</time>
      </trkpt>
      <trkpt lat="45.58434" lon="1.83403">
        <ele>589.7</ele>
        <time>2022-08-04T07:25:43Z</time>
      </trkpt>
      <trkpt lat="45.58431" lon="1.83401">
        <ele>588.7</ele>
        <time>2022-08-04T07:25:45Z</time>
      </trkpt>
      <trkpt lat="45.58428" lon="1.83401">
        <ele>588.2</ele>
        <time>2022-08-04T07:25:47Z</time>
      </trkpt>
      <trkpt lat="45.58423" lon="1.83397">
        <ele>586.6</ele>
        <time>2022-08-04T07:25:49Z</time>
      </trkpt>
      <trkpt lat="45.5842" lon="1.83397">
        <ele>586.1</ele>
        <time>2022-08-04T07:25:51Z</time>
      </trkpt>
      <trkpt lat="45.58416" lon="1.83396">
        <ele>585.4</ele>
        <time>2022-08-04T07:25:53Z</time>
      </trkpt>
      <trkpt lat="45.58411" lon="1.83396">
        <ele>584.6</ele>
        <time>2022-08-04T07:25:55Z</time>
      </trkpt>
      <trkpt lat="45.58406" lon="1.83394">
        <ele>583.7</ele>
        <time>2022-08-04T07:25:57Z</time>
      </trkpt>
      <trkpt lat="45.58401" lon="1.83394">
        <ele>583.1</ele>
        <time>2022-08-04T07:25:59Z</time>
      </trkpt>
      <trkpt lat="45.58399" lon="1.83394">
        <ele>582.8</ele>
        <time>2022-08-04T07:26:01Z</time>
      </trkpt>
      <trkpt lat="45.58395" lon="1.83394">
        <ele>582.3</ele>
        <time>2022-08-04T07:26:03Z</time>
      </trkpt>
      <trkpt lat="45.58389" lon="1.8339">
        <ele>580.7</ele>
        <time>2022-08-04T07:26:05Z</time>
      </trkpt>
      <trkpt lat="45.58382" lon="1.83385">
        <ele>578.3</ele>
        <time>2022-08-04T07:26:07Z</time>
      </trkpt>
      <trkpt lat="45.58377" lon="1.83381">
        <ele>576.6</ele>
        <time>2022-08-04T07:26:09Z</time>
      </trkpt>
      <trkpt lat="45.58375" lon="1.83382">
        <ele>576.8</ele>
        <time>2022-08-04T07:26:11Z</time>
      </trkpt>
      <trkpt lat="45.58375" lon="1.83387">
        <ele>578</ele>
        <time>2022-08-04T07:26:13Z</time>
      </trkpt>
      <trkpt lat="45.58377" lon="1.83392">
        <ele>579.9</ele>
        <time>2022-08-04T07:26:15Z</time>
      </trkpt>
      <trkpt lat="45.5838" lon="1.83403">
        <ele>583.5</ele>
        <time>2022-08-04T07:26:17Z</time>
      </trkpt>
      <trkpt lat="45.58384" lon="1.83411">
        <ele>586.3</ele>
        <time>2022-08-04T07:26:19Z</time>
      </trkpt>
      <trkpt lat="45.58391" lon="1.83424">
        <ele>590.8</ele>
        <time>2022-08-04T07:26:21Z</time>
      </trkpt>
      <trkpt lat="45.58351" lon="1.83373">
        <ele>571.1</ele>
        <time>2022-08-04T07:26:23Z</time>
      </trkpt>
      <trkpt lat="45.58348" lon="1.83374">
        <ele>570.9</ele>
        <time>2022-08-04T07:26:25Z</time>
      </trkpt>
      <trkpt lat="45.58345" lon="1.83375">
        <ele>570.9</ele>
        <time>2022-08-04T07:26:27Z</time>
      </trkpt>
      <trkpt lat="45.58342" lon="1.83376">
        <ele>570.9</ele>
        <time>2022-08-04T07:26:29Z</time>
      </trkpt>
      <trkpt lat="45.58338" lon="1.83377">
        <ele>570.6</ele>
        <time>2022-08-04T07:26:31Z</time>
      </trkpt>
      <trkpt lat="45.58334" lon="1.83379">
        <ele>570.9</ele>
        <time>2022-08-04T07:26:33Z</time>
      </trkpt>
      <trkpt lat="45.58329" lon="1.83381">
        <ele>570.9</ele>
        <time>2022-08-04T07:26:35Z</time>
      </trkpt>
      <trkpt lat="45.58327" lon="1.83381">
        <ele>570.5</ele>
        <time>2022-08-04T07:26:37Z</time>
      </trkpt>
      <trkpt lat="45.58323" lon="1.83383">
        <ele>570.5</ele>
        <time>2022-08-04T07:26:39Z</time>
      </trkpt>
      <trkpt lat="45.5832" lon="1.83383">
        <ele>570.2</ele>
        <time>2022-08-04T07:26:41Z</time>
      </trkpt>
      <trkpt lat="45.58315" lon="1.83386">
        <ele>570.3</ele>
        <time>2022-08-04T07:26:43Z</time>
      </trkpt>
      <trkpt lat="45.58311" lon="1.83387">
        <ele>569.8</ele>
        <time>2022-08-04T07:26:45Z</time>
      </trkpt>
      <trkpt lat="45.58309" lon="1.83389">
        <ele>569.9</ele>
        <time>2022-08-04T07:26:47Z</time>
      </trkpt>
      <trkpt lat="45.58304" lon="1.8339">
        <ele>569.4</ele>
        <time>2022-08-04T07:26:49Z</time>
      </trkpt>
      <trkpt lat="45.58298" lon="1.83392">
        <ele>569</ele>
        <time>2022-08-04T07:26:51Z</time>
      </trkpt>
      <trkpt lat="45.58297" lon="1.83399">
        <ele>570.7</ele>
        <time>2022-08-04T07:26:53Z</time>
      </trkpt>
      <trkpt lat="45.58292" lon="1.83404">
        <ele>571.2</ele>
        <time>2022-08-04T07:26:55Z</time>
      </trkpt>
      <trkpt lat="45.58286" lon="1.83407">
        <ele>570.9</ele>
        <time>2022-08-04T07:26:57Z</time>
      </trkpt>
      <trkpt lat="45.58281" lon="1.83412">
        <ele>571.3</ele>
        <time>2022-08-04T07:26:59Z</time>
      </trkpt>
      <trkpt lat="45.58277" lon="1.83416">
        <ele>571.3</ele>
        <time>2022-08-04T07:27:01Z</time>
      </trkpt>
      <trkpt lat="45.58274" lon="1.83421">
        <ele>572.2</ele>
        <time>2022-08-04T07:27:03Z</time>
      </trkpt>
      <trkpt lat="45.58272" lon="1.83424">
        <ele>572.9</ele>
        <time>2022-08-04T07:27:05Z</time>
      </trkpt>
      <trkpt lat="45.58268" lon="1.83427">
        <ele>573</ele>
        <time>2022-08-04T07:27:07Z</time>
      </trkpt>
      <trkpt lat="45.58264" lon="1.8343">
        <ele>573.1</ele>
        <time>2022-08-04T07:27:09Z</time>
      </trkpt>
      <trkpt lat="45.58261" lon="1.83433">
        <ele>573.6</ele>
        <time>2022-08-04T07:27:11Z</time>
      </trkpt>
      <trkpt lat="45.58258" lon="1.83437">
        <ele>574.3</ele>
        <time>2022-08-04T07:27:13Z</time>
      </trkpt>
      <trkpt lat="45.58258" lon="1.8344">
        <ele>575</ele>
        <time>2022-08-04T07:27:15Z</time>
      </trkpt>
      <trkpt lat="45.58255" lon="1.83442">
        <ele>575</ele>
        <time>2022-08-04T07:27:17Z</time>
      </trkpt>
      <trkpt lat="45.58252" lon="1.83443">
        <ele>574.9</ele>
        <time>2022-08-04T07:27:19Z</time>
      </trkpt>
      <trkpt lat="45.58251" lon="1.83449">
        <ele>576.6</ele>
        <time>2022-08-04T07:27:21Z</time>
      </trkpt>
      <trkpt lat="45.5825" lon="1.83451">
        <ele>577.2</ele>
        <time>2022-08-04T07:27:23Z</time>
      </trkpt>
      <trkpt lat="45.58248" lon="1.83454">
        <ele>577.7</ele>
        <time>2022-08-04T07:27:25Z</time>
      </trkpt>
      <trkpt lat="45.58245" lon="1.83455">
        <ele>577.7</ele>
        <time>2022-08-04T07:27:27Z</time>
      </trkpt>
      <trkpt lat="45.58243" lon="1.83457">
        <ele>578.2</ele>
        <time>2022-08-04T07:27:29Z</time>
      </trkpt>
      <trkpt lat="45.58221" lon="1.83463">
        <ele>577.5</ele>
        <time>2022-08-04T07:28:41Z</time>
      </trkpt>
      <trkpt lat="45.58218" lon="1.83459">
        <ele>575.8</ele>
        <time>2022-08-04T07:28:43Z</time>
      </trkpt>
      <trkpt lat="45.58215" lon="1.83457">
        <ele>574.5</ele>
        <time>2022-08-04T07:28:45Z</time>
      </trkpt>
      <trkpt lat="45.5821" lon="1.83454">
        <ele>573.1</ele>
        <time>2022-08-04T07:28:47Z</time>
      </trkpt>
      <trkpt lat="45.58204" lon="1.83453">
        <ele>572</ele>
        <time>2022-08-04T07:28:49Z</time>
      </trkpt>
      <trkpt lat="45.58201" lon="1.83454">
        <ele>571.9</ele>
        <time>2022-08-04T07:28:51Z</time>
      </trkpt>
      <trkpt lat="45.58198" lon="1.8345">
        <ele>570.2</ele>
        <time>2022-08-04T07:28:53Z</time>
      </trkpt>
      <trkpt lat="45.58191" lon="1.83452">
        <ele>569.9</ele>
        <time>2022-08-04T07:28:55Z</time>
      </trkpt>
      <trkpt lat="45.58186" lon="1.83452">
        <ele>569.2</ele>
        <time>2022-08-04T07:28:57Z</time>
      </trkpt>
      <trkpt lat="45.58182" lon="1.83453">
        <ele>568.9</ele>
        <time>2022-08-04T07:28:59Z</time>
      </trkpt>
      <trkpt lat="45.58175" lon="1.83453">
        <ele>568.1</ele>
        <time>2022-08-04T07:29:01Z</time>
      </trkpt>
      <trkpt lat="45.5817" lon="1.83455">
        <ele>568.2</ele>
        <time>2022-08-04T07:29:03Z</time>
      </trkpt>
      <trkpt lat="45.58163" lon="1.83453">
        <ele>566.9</ele>
        <time>2022-08-04T07:29:05Z</time>
      </trkpt>
      <trkpt lat="45.58157" lon="1.83446">
        <ele>564</ele>
        <time>2022-08-04T07:29:07Z</time>
      </trkpt>
      <trkpt lat="45.5815" lon="1.83454">
        <ele>566.3</ele>
        <time>2022-08-04T07:29:09Z</time>
      </trkpt>
      <trkpt lat="45.58145" lon="1.83453">
        <ele>565.9</ele>
        <time>2022-08-04T07:29:11Z</time>
      </trkpt>
      <trkpt lat="45.5814" lon="1.83453">
        <ele>565.5</ele>
        <time>2022-08-04T07:29:13Z</time>
      </trkpt>
      <trkpt lat="45.58134" lon="1.8345">
        <ele>564.3</ele>
        <time>2022-08-04T07:29:15Z</time>
      </trkpt>
      <trkpt lat="45.58128" lon="1.8345">
        <ele>563.8</ele>
        <time>2022-08-04T07:29:17Z</time>
      </trkpt>
      <trkpt lat="45.58122" lon="1.83447">
        <ele>562.5</ele>
        <time>2022-08-04T07:29:19Z</time>
      </trkpt>
      <trkpt lat="45.58116" lon="1.83445">
        <ele>561.8</ele>
        <time>2022-08-04T07:29:21Z</time>
      </trkpt>
      <trkpt lat="45.58111" lon="1.83444">
        <ele>561.1</ele>
        <time>2022-08-04T07:29:23Z</time>
      </trkpt>
      <trkpt lat="45.58103" lon="1.83442">
        <ele>560.3</ele>
        <time>2022-08-04T07:29:25Z</time>
      </trkpt>
      <trkpt lat="45.58095" lon="1.8344">
        <ele>559.5</ele>
        <time>2022-08-04T07:29:27Z</time>
      </trkpt>
      <trkpt lat="45.58089" lon="1.83437">
        <ele>558.3</ele>
        <time>2022-08-04T07:29:29Z</time>
      </trkpt>
      <trkpt lat="45.58083" lon="1.83437">
        <ele>558.2</ele>
        <time>2022-08-04T07:29:31Z</time>
      </trkpt>
      <trkpt lat="45.58078" lon="1.83436">
        <ele>557.1</ele>
        <time>2022-08-04T07:29:33Z</time>
      </trkpt>
      <trkpt lat="45.58071" lon="1.83436">
        <ele>556</ele>
        <time>2022-08-04T07:29:35Z</time>
      </trkpt>
      <trkpt lat="45.58064" lon="1.83436">
        <ele>555.2</ele>
        <time>2022-08-04T07:29:37Z</time>
      </trkpt>
      <trkpt lat="45.58058" lon="1.83438">
        <ele>554.7</ele>
        <time>2022-08-04T07:29:39Z</time>
      </trkpt>
      <trkpt lat="45.58052" lon="1.83441">
        <ele>554.5</ele>
        <time>2022-08-04T07:29:41Z</time>
      </trkpt>
      <trkpt lat="45.58045" lon="1.83443">
        <ele>554</ele>
        <time>2022-08-04T07:29:43Z</time>
      </trkpt>
      <trkpt lat="45.58041" lon="1.83447">
        <ele>554</ele>
        <time>2022-08-04T07:29:45Z</time>
      </trkpt>
      <trkpt lat="45.58037" lon="1.83451">
        <ele>554.2</ele>
        <time>2022-08-04T07:29:47Z</time>
      </trkpt>
      <trkpt lat="45.5803" lon="1.83458">
        <ele>554</ele>
        <time>2022-08-04T07:29:49Z</time>
      </trkpt>
      <trkpt lat="45.58023" lon="1.8346">
        <ele>553.3</ele>
        <time>2022-08-04T07:29:51Z</time>
      </trkpt>
      <trkpt lat="45.58015" lon="1.83466">
        <ele>552.9</ele>
        <time>2022-08-04T07:29:53Z</time>
      </trkpt>
      <trkpt lat="45.58008" lon="1.83474">
        <ele>552.4</ele>
        <time>2022-08-04T07:29:55Z</time>
      </trkpt>
      <trkpt lat="45.58001" lon="1.83482">
        <ele>552</ele>
        <time>2022-08-04T07:29:57Z</time>
      </trkpt>
      <trkpt lat="45.57997" lon="1.83489">
        <ele>552.1</ele>
        <time>2022-08-04T07:29:59Z</time>
      </trkpt>
      <trkpt lat="45.57992" lon="1.83495">
        <ele>551.7</ele>
        <time>2022-08-04T07:30:01Z</time>
      </trkpt>
      <trkpt lat="45.57989" lon="1.83503">
        <ele>552.2</ele>
        <time>2022-08-04T07:30:03Z</time>
      </trkpt>
      <trkpt lat="45.57986" lon="1.83509">
        <ele>552.7</ele>
        <time>2022-08-04T07:30:05Z</time>
      </trkpt>
      <trkpt lat="45.57984" lon="1.83517">
        <ele>553.7</ele>
        <time>2022-08-04T07:30:07Z</time>
      </trkpt>
      <trkpt lat="45.57981" lon="1.83526">
        <ele>554.6</ele>
        <time>2022-08-04T07:30:09Z</time>
      </trkpt>
      <trkpt lat="45.57978" lon="1.83534">
        <ele>555.4</ele>
        <time>2022-08-04T07:30:11Z</time>
      </trkpt>
      <trkpt lat="45.57978" lon="1.83541">
        <ele>556.7</ele>
        <time>2022-08-04T07:30:13Z</time>
      </trkpt>
      <trkpt lat="45.57977" lon="1.83551">
        <ele>558.1</ele>
        <time>2022-08-04T07:30:15Z</time>
      </trkpt>
      <trkpt lat="45.57976" lon="1.83558">
        <ele>559</ele>
        <time>2022-08-04T07:30:17Z</time>
      </trkpt>
      <trkpt lat="45.57976" lon="1.83565">
        <ele>560.3</ele>
        <time>2022-08-04T07:30:19Z</time>
      </trkpt>
      <trkpt lat="45.57975" lon="1.83571">
        <ele>561</ele>
        <time>2022-08-04T07:30:21Z</time>
      </trkpt>
      <trkpt lat="45.57974" lon="1.83578">
        <ele>562.1</ele>
        <time>2022-08-04T07:30:23Z</time>
      </trkpt>
      <trkpt lat="45.57973" lon="1.83582">
        <ele>562.7</ele>
        <time>2022-08-04T07:30:25Z</time>
      </trkpt>
      <trkpt lat="45.57973" lon="1.83588">
        <ele>563.2</ele>
        <time>2022-08-04T07:30:27Z</time>
      </trkpt>
      <trkpt lat="45.57972" lon="1.83595">
        <ele>563.5</ele>
        <time>2022-08-04T07:30:29Z</time>
      </trkpt>
      <trkpt lat="45.57971" lon="1.836">
        <ele>563.8</ele>
        <time>2022-08-04T07:30:31Z</time>
      </trkpt>
      <trkpt lat="45.57971" lon="1.83607">
        <ele>564.1</ele>
        <time>2022-08-04T07:30:33Z</time>
      </trkpt>
      <trkpt lat="45.5797" lon="1.83613">
        <ele>564.4</ele>
        <time>2022-08-04T07:30:35Z</time>
      </trkpt>
      <trkpt lat="45.57969" lon="1.8362">
        <ele>564.5</ele>
        <time>2022-08-04T07:30:37Z</time>
      </trkpt>
      <trkpt lat="45.5797" lon="1.83624">
        <ele>565</ele>
        <time>2022-08-04T07:30:39Z</time>
      </trkpt>
      <trkpt lat="45.5797" lon="1.83629">
        <ele>565.5</ele>
        <time>2022-08-04T07:30:41Z</time>
      </trkpt>
      <trkpt lat="45.57971" lon="1.83635">
        <ele>566.2</ele>
        <time>2022-08-04T07:30:43Z</time>
      </trkpt>
      <trkpt lat="45.5797" lon="1.83638">
        <ele>566.2</ele>
        <time>2022-08-04T07:30:45Z</time>
      </trkpt>
      <trkpt lat="45.57971" lon="1.83641">
        <ele>566.6</ele>
        <time>2022-08-04T07:30:47Z</time>
      </trkpt>
      <trkpt lat="45.57971" lon="1.83646">
        <ele>567.1</ele>
        <time>2022-08-04T07:30:49Z</time>
      </trkpt>
      <trkpt lat="45.57971" lon="1.83652">
        <ele>567.3</ele>
        <time>2022-08-04T07:30:51Z</time>
      </trkpt>
      <trkpt lat="45.5797" lon="1.83655">
        <ele>567.4</ele>
        <time>2022-08-04T07:30:53Z</time>
      </trkpt>
      <trkpt lat="45.5797" lon="1.83659">
        <ele>567.7</ele>
        <time>2022-08-04T07:30:55Z</time>
      </trkpt>
      <trkpt lat="45.5797" lon="1.83662">
        <ele>567.8</ele>
        <time>2022-08-04T07:30:57Z</time>
      </trkpt>
      <trkpt lat="45.57969" lon="1.83665">
        <ele>567.7</ele>
        <time>2022-08-04T07:30:59Z</time>
      </trkpt>
      <trkpt lat="45.57968" lon="1.83667">
        <ele>567.4</ele>
        <time>2022-08-04T07:31:01Z</time>
      </trkpt>
      <trkpt lat="45.57967" lon="1.83669">
        <ele>567.1</ele>
        <time>2022-08-04T07:31:03Z</time>
      </trkpt>
      <trkpt lat="45.57966" lon="1.8367">
        <ele>566.7</ele>
        <time>2022-08-04T07:31:05Z</time>
      </trkpt>
      <trkpt lat="45.57966" lon="1.83671">
        <ele>566.6</ele>
        <time>2022-08-04T07:31:07Z</time>
      </trkpt>
      <trkpt lat="45.57958" lon="1.83693">
        <ele>563.8</ele>
        <time>2022-08-04T07:31:39Z</time>
      </trkpt>
      <trkpt lat="45.57957" lon="1.83705">
        <ele>563.5</ele>
        <time>2022-08-04T07:31:41Z</time>
      </trkpt>
      <trkpt lat="45.57952" lon="1.83712">
        <ele>561.3</ele>
        <time>2022-08-04T07:31:43Z</time>
      </trkpt>
      <trkpt lat="45.57948" lon="1.83717">
        <ele>560</ele>
        <time>2022-08-04T07:31:45Z</time>
      </trkpt>
      <trkpt lat="45.57943" lon="1.83724">
        <ele>557.9</ele>
        <time>2022-08-04T07:31:47Z</time>
      </trkpt>
      <trkpt lat="45.5794" lon="1.83733">
        <ele>556.8</ele>
        <time>2022-08-04T07:31:49Z</time>
      </trkpt>
      <trkpt lat="45.57938" lon="1.83743">
        <ele>556</ele>
        <time>2022-08-04T07:31:51Z</time>
      </trkpt>
      <trkpt lat="45.57934" lon="1.83747">
        <ele>554.3</ele>
        <time>2022-08-04T07:31:53Z</time>
      </trkpt>
      <trkpt lat="45.57929" lon="1.83749">
        <ele>552.7</ele>
        <time>2022-08-04T07:31:55Z</time>
      </trkpt>
      <trkpt lat="45.57927" lon="1.83752">
        <ele>551.7</ele>
        <time>2022-08-04T07:31:57Z</time>
      </trkpt>
      <trkpt lat="45.57921" lon="1.83752">
        <ele>549.6</ele>
        <time>2022-08-04T07:31:59Z</time>
      </trkpt>
      <trkpt lat="45.57914" lon="1.83752">
        <ele>547.4</ele>
        <time>2022-08-04T07:32:01Z</time>
      </trkpt>
      <trkpt lat="45.57907" lon="1.83753">
        <ele>545.8</ele>
        <time>2022-08-04T07:32:03Z</time>
      </trkpt>
      <trkpt lat="45.57899" lon="1.83756">
        <ele>544.1</ele>
        <time>2022-08-04T07:32:05Z</time>
      </trkpt>
      <trkpt lat="45.57892" lon="1.83758">
        <ele>542.4</ele>
        <time>2022-08-04T07:32:07Z</time>
      </trkpt>
      <trkpt lat="45.57887" lon="1.8376">
        <ele>541.3</ele>
        <time>2022-08-04T07:32:09Z</time>
      </trkpt>
      <trkpt lat="45.57881" lon="1.83761">
        <ele>540</ele>
        <time>2022-08-04T07:32:11Z</time>
      </trkpt>
      <trkpt lat="45.57873" lon="1.8376">
        <ele>538.4</ele>
        <time>2022-08-04T07:32:13Z</time>
      </trkpt>
      <trkpt lat="45.57866" lon="1.83753">
        <ele>537</ele>
        <time>2022-08-04T07:32:15Z</time>
      </trkpt>
      <trkpt lat="45.57859" lon="1.83745">
        <ele>535.7</ele>
        <time>2022-08-04T07:32:17Z</time>
      </trkpt>
      <trkpt lat="45.57853" lon="1.83733">
        <ele>534.4</ele>
        <time>2022-08-04T07:32:19Z</time>
      </trkpt>
      <trkpt lat="45.57845" lon="1.83722">
        <ele>532.8</ele>
        <time>2022-08-04T07:32:21Z</time>
      </trkpt>
      <trkpt lat="45.57837" lon="1.83712">
        <ele>531.2</ele>
        <time>2022-08-04T07:32:23Z</time>
      </trkpt>
      <trkpt lat="45.57827" lon="1.83703">
        <ele>530.1</ele>
        <time>2022-08-04T07:32:25Z</time>
      </trkpt>
      <trkpt lat="45.57819" lon="1.83696">
        <ele>529.4</ele>
        <time>2022-08-04T07:32:27Z</time>
      </trkpt>
      <trkpt lat="45.57812" lon="1.8369">
        <ele>528.9</ele>
        <time>2022-08-04T07:32:29Z</time>
      </trkpt>
      <trkpt lat="45.57803" lon="1.83683">
        <ele>528.3</ele>
        <time>2022-08-04T07:32:31Z</time>
      </trkpt>
      <trkpt lat="45.57793" lon="1.83677">
        <ele>527.5</ele>
        <time>2022-08-04T07:32:33Z</time>
      </trkpt>
      <trkpt lat="45.57784" lon="1.83671">
        <ele>526.8</ele>
        <time>2022-08-04T07:32:35Z</time>
      </trkpt>
      <trkpt lat="45.57775" lon="1.83664">
        <ele>526.1</ele>
        <time>2022-08-04T07:32:37Z</time>
      </trkpt>
      <trkpt lat="45.57766" lon="1.83657">
        <ele>525.4</ele>
        <time>2022-08-04T07:32:39Z</time>
      </trkpt>
      <trkpt lat="45.5776" lon="1.83649">
        <ele>524.9</ele>
        <time>2022-08-04T07:32:41Z</time>
      </trkpt>
      <trkpt lat="45.57753" lon="1.83643">
        <ele>524.5</ele>
        <time>2022-08-04T07:32:43Z</time>
      </trkpt>
      <trkpt lat="45.57744" lon="1.8364">
        <ele>524.4</ele>
        <time>2022-08-04T07:32:45Z</time>
      </trkpt>
      <trkpt lat="45.57736" lon="1.83636">
        <ele>524.5</ele>
        <time>2022-08-04T07:32:47Z</time>
      </trkpt>
      <trkpt lat="45.57729" lon="1.83634">
        <ele>524.5</ele>
        <time>2022-08-04T07:32:49Z</time>
      </trkpt>
      <trkpt lat="45.57723" lon="1.83633">
        <ele>524.6</ele>
        <time>2022-08-04T07:32:51Z</time>
      </trkpt>
      <trkpt lat="45.57718" lon="1.83633">
        <ele>524.6</ele>
        <time>2022-08-04T07:32:53Z</time>
      </trkpt>
      <trkpt lat="45.57714" lon="1.83632">
        <ele>524.7</ele>
        <time>2022-08-04T07:32:55Z</time>
      </trkpt>
      <trkpt lat="45.57711" lon="1.83631">
        <ele>524.7</ele>
        <time>2022-08-04T07:32:57Z</time>
      </trkpt>
      <trkpt lat="45.57706" lon="1.8363">
        <ele>524.7</ele>
        <time>2022-08-04T07:32:59Z</time>
      </trkpt>
      <trkpt lat="45.57705" lon="1.83634">
        <ele>524.7</ele>
        <time>2022-08-04T07:33:01Z</time>
      </trkpt>
      <trkpt lat="45.57705" lon="1.83635">
        <ele>524.7</ele>
        <time>2022-08-04T07:33:03Z</time>
      </trkpt>
      <trkpt lat="45.57705" lon="1.83635">
        <ele>524.7</ele>
        <time>2022-08-04T07:33:05Z</time>
      </trkpt>
      <trkpt lat="45.57706" lon="1.83634">
        <ele>524.7</ele>
        <time>2022-08-04T07:33:07Z</time>
      </trkpt>
      <trkpt lat="45.57705" lon="1.83634">
        <ele>524.7</ele>
        <time>2022-08-04T07:33:09Z</time>
      </trkpt>
      <trkpt lat="45.57706" lon="1.83634">
        <ele>524.7</ele>
        <time>2022-08-04T07:33:11Z</time>
      </trkpt>
      <trkpt lat="45.57699" lon="1.83649">
        <ele>524.7</ele>
        <time>2022-08-04T07:33:49Z</time>
      </trkpt>
      <trkpt lat="45.57694" lon="1.83655">
        <ele>524.7</ele>
        <time>2022-08-04T07:33:51Z</time>
      </trkpt>
      <trkpt lat="45.5769" lon="1.83663">
        <ele>524.7</ele>
        <time>2022-08-04T07:33:53Z</time>
      </trkpt>
      <trkpt lat="45.57686" lon="1.83673">
        <ele>524.6</ele>
        <time>2022-08-04T07:33:55Z</time>
      </trkpt>
      <trkpt lat="45.57682" lon="1.83684">
        <ele>524.3</ele>
        <time>2022-08-04T07:33:57Z</time>
      </trkpt>
      <trkpt lat="45.57681" lon="1.83696">
        <ele>523.9</ele>
        <time>2022-08-04T07:33:59Z</time>
      </trkpt>
      <trkpt lat="45.57681" lon="1.83709">
        <ele>523.5</ele>
        <time>2022-08-04T07:34:01Z</time>
      </trkpt>
      <trkpt lat="45.57679" lon="1.8372">
        <ele>523.1</ele>
        <time>2022-08-04T07:34:03Z</time>
      </trkpt>
      <trkpt lat="45.57675" lon="1.83732">
        <ele>522.7</ele>
        <time>2022-08-04T07:34:05Z</time>
      </trkpt>
      <trkpt lat="45.57668" lon="1.8374">
        <ele>522.4</ele>
        <time>2022-08-04T07:34:07Z</time>
      </trkpt>
      <trkpt lat="45.5766" lon="1.83746">
        <ele>522.1</ele>
        <time>2022-08-04T07:34:09Z</time>
      </trkpt>
      <trkpt lat="45.57652" lon="1.8375">
        <ele>521.8</ele>
        <time>2022-08-04T07:34:11Z</time>
      </trkpt>
      <trkpt lat="45.57644" lon="1.83752">
        <ele>521.7</ele>
        <time>2022-08-04T07:34:13Z</time>
      </trkpt>
      <trkpt lat="45.57636" lon="1.83755">
        <ele>521.6</ele>
        <time>2022-08-04T07:34:15Z</time>
      </trkpt>
      <trkpt lat="45.5763" lon="1.83761">
        <ele>521.4</ele>
        <time>2022-08-04T07:34:17Z</time>
      </trkpt>
      <trkpt lat="45.57625" lon="1.83769">
        <ele>521.3</ele>
        <time>2022-08-04T07:34:19Z</time>
      </trkpt>
      <trkpt lat="45.57622" lon="1.83779">
        <ele>521.1</ele>
        <time>2022-08-04T07:34:21Z</time>
      </trkpt>
      <trkpt lat="45.57621" lon="1.8379">
        <ele>521</ele>
        <time>2022-08-04T07:34:23Z</time>
      </trkpt>
      <trkpt lat="45.57622" lon="1.83801">
        <ele>520.9</ele>
        <time>2022-08-04T07:34:25Z</time>
      </trkpt>
      <trkpt lat="45.57622" lon="1.83812">
        <ele>520.7</ele>
        <time>2022-08-04T07:34:27Z</time>
      </trkpt>
      <trkpt lat="45.57623" lon="1.83817">
        <ele>520.7</ele>
        <time>2022-08-04T07:34:29Z</time>
      </trkpt>
      <trkpt lat="45.57625" lon="1.83828">
        <ele>520.6</ele>
        <time>2022-08-04T07:34:31Z</time>
      </trkpt>
      <trkpt lat="45.57625" lon="1.83839">
        <ele>520.7</ele>
        <time>2022-08-04T07:34:33Z</time>
      </trkpt>
      <trkpt lat="45.57626" lon="1.83851">
        <ele>521.2</ele>
        <time>2022-08-04T07:34:35Z</time>
      </trkpt>
      <trkpt lat="45.57626" lon="1.83863">
        <ele>521.6</ele>
        <time>2022-08-04T07:34:37Z</time>
      </trkpt>
      <trkpt lat="45.57628" lon="1.83875">
        <ele>522</ele>
        <time>2022-08-04T07:34:39Z</time>
      </trkpt>
      <trkpt lat="45.57628" lon="1.83886">
        <ele>522.4</ele>
        <time>2022-08-04T07:34:41Z</time>
      </trkpt>
      <trkpt lat="45.57629" lon="1.83897">
        <ele>522.8</ele>
        <time>2022-08-04T07:34:43Z</time>
      </trkpt>
      <trkpt lat="45.57629" lon="1.83908">
        <ele>523.2</ele>
        <time>2022-08-04T07:34:45Z</time>
      </trkpt>
      <trkpt lat="45.57631" lon="1.83919">
        <ele>523.6</ele>
        <time>2022-08-04T07:34:47Z</time>
      </trkpt>
      <trkpt lat="45.57632" lon="1.83931">
        <ele>523.9</ele>
        <time>2022-08-04T07:34:49Z</time>
      </trkpt>
      <trkpt lat="45.57632" lon="1.83943">
        <ele>524.1</ele>
        <time>2022-08-04T07:34:51Z</time>
      </trkpt>
      <trkpt lat="45.57633" lon="1.83954">
        <ele>524.3</ele>
        <time>2022-08-04T07:34:53Z</time>
      </trkpt>
      <trkpt lat="45.57634" lon="1.83966">
        <ele>524.6</ele>
        <time>2022-08-04T07:34:55Z</time>
      </trkpt>
      <trkpt lat="45.57635" lon="1.83977">
        <ele>524.8</ele>
        <time>2022-08-04T07:34:57Z</time>
      </trkpt>
      <trkpt lat="45.57635" lon="1.83989">
        <ele>525</ele>
        <time>2022-08-04T07:34:59Z</time>
      </trkpt>
      <trkpt lat="45.57635" lon="1.84">
        <ele>525.3</ele>
        <time>2022-08-04T07:35:01Z</time>
      </trkpt>
      <trkpt lat="45.57634" lon="1.8401">
        <ele>526.2</ele>
        <time>2022-08-04T07:35:03Z</time>
      </trkpt>
      <trkpt lat="45.57631" lon="1.84019">
        <ele>527.1</ele>
        <time>2022-08-04T07:35:05Z</time>
      </trkpt>
      <trkpt lat="45.57627" lon="1.84026">
        <ele>528</ele>
        <time>2022-08-04T07:35:07Z</time>
      </trkpt>
      <trkpt lat="45.57621" lon="1.84031">
        <ele>528.6</ele>
        <time>2022-08-04T07:35:09Z</time>
      </trkpt>
      <trkpt lat="45.57615" lon="1.84035">
        <ele>529.3</ele>
        <time>2022-08-04T07:35:11Z</time>
      </trkpt>
      <trkpt lat="45.57609" lon="1.84038">
        <ele>529.9</ele>
        <time>2022-08-04T07:35:13Z</time>
      </trkpt>
      <trkpt lat="45.57603" lon="1.8404">
        <ele>530.4</ele>
        <time>2022-08-04T07:35:15Z</time>
      </trkpt>
      <trkpt lat="45.57597" lon="1.84042">
        <ele>530.9</ele>
        <time>2022-08-04T07:35:17Z</time>
      </trkpt>
      <trkpt lat="45.57592" lon="1.84042">
        <ele>531.3</ele>
        <time>2022-08-04T07:35:19Z</time>
      </trkpt>
      <trkpt lat="45.57586" lon="1.84043">
        <ele>531.6</ele>
        <time>2022-08-04T07:35:21Z</time>
      </trkpt>
      <trkpt lat="45.5758" lon="1.84043">
        <ele>532.1</ele>
        <time>2022-08-04T07:35:23Z</time>
      </trkpt>
      <trkpt lat="45.57576" lon="1.84044">
        <ele>532.7</ele>
        <time>2022-08-04T07:35:25Z</time>
      </trkpt>
      <trkpt lat="45.57571" lon="1.84047">
        <ele>533.6</ele>
        <time>2022-08-04T07:35:27Z</time>
      </trkpt>
      <trkpt lat="45.57565" lon="1.84048">
        <ele>534.3</ele>
        <time>2022-08-04T07:35:29Z</time>
      </trkpt>
      <trkpt lat="45.5756" lon="1.84048">
        <ele>534.8</ele>
        <time>2022-08-04T07:35:31Z</time>
      </trkpt>
      <trkpt lat="45.57556" lon="1.84049">
        <ele>535.4</ele>
        <time>2022-08-04T07:35:33Z</time>
      </trkpt>
      <trkpt lat="45.5755" lon="1.84049">
        <ele>535.8</ele>
        <time>2022-08-04T07:35:35Z</time>
      </trkpt>
      <trkpt lat="45.57546" lon="1.84049">
        <ele>536.3</ele>
        <time>2022-08-04T07:35:37Z</time>
      </trkpt>
      <trkpt lat="45.57541" lon="1.84049">
        <ele>536.7</ele>
        <time>2022-08-04T07:35:39Z</time>
      </trkpt>
      <trkpt lat="45.57536" lon="1.84047">
        <ele>536.8</ele>
        <time>2022-08-04T07:35:41Z</time>
      </trkpt>
      <trkpt lat="45.57532" lon="1.84046">
        <ele>536.9</ele>
        <time>2022-08-04T07:35:43Z</time>
      </trkpt>
      <trkpt lat="45.57527" lon="1.84042">
        <ele>536.7</ele>
        <time>2022-08-04T07:35:45Z</time>
      </trkpt>
      <trkpt lat="45.57523" lon="1.84041">
        <ele>536.7</ele>
        <time>2022-08-04T07:35:47Z</time>
      </trkpt>
      <trkpt lat="45.57521" lon="1.84039">
        <ele>536.6</ele>
        <time>2022-08-04T07:35:49Z</time>
      </trkpt>
      <trkpt lat="45.57519" lon="1.84037">
        <ele>536.5</ele>
        <time>2022-08-04T07:35:51Z</time>
      </trkpt>
      <trkpt lat="45.57516" lon="1.84035">
        <ele>536.3</ele>
        <time>2022-08-04T07:35:53Z</time>
      </trkpt>
      <trkpt lat="45.57514" lon="1.84033">
        <ele>536.1</ele>
        <time>2022-08-04T07:35:55Z</time>
      </trkpt>
      <trkpt lat="45.5751" lon="1.84029">
        <ele>535.7</ele>
        <time>2022-08-04T07:35:57Z</time>
      </trkpt>
      <trkpt lat="45.57507" lon="1.84024">
        <ele>535</ele>
        <time>2022-08-04T07:35:59Z</time>
      </trkpt>
      <trkpt lat="45.57502" lon="1.84016">
        <ele>533.9</ele>
        <time>2022-08-04T07:36:01Z</time>
      </trkpt>
      <trkpt lat="45.57497" lon="1.84009">
        <ele>533.2</ele>
        <time>2022-08-04T07:36:03Z</time>
      </trkpt>
      <trkpt lat="45.5749" lon="1.84004">
        <ele>533</ele>
        <time>2022-08-04T07:36:05Z</time>
      </trkpt>
      <trkpt lat="45.57485" lon="1.83996">
        <ele>532.6</ele>
        <time>2022-08-04T07:36:07Z</time>
      </trkpt>
      <trkpt lat="45.5748" lon="1.83988">
        <ele>532.7</ele>
        <time>2022-08-04T07:36:09Z</time>
      </trkpt>
      <trkpt lat="45.57473" lon="1.83981">
        <ele>532.9</ele>
        <time>2022-08-04T07:36:11Z</time>
      </trkpt>
      <trkpt lat="45.57467" lon="1.83972">
        <ele>532.9</ele>
        <time>2022-08-04T07:36:13Z</time>
      </trkpt>
      <trkpt lat="45.5746" lon="1.83963">
        <ele>533</ele>
        <time>2022-08-04T07:36:15Z</time>
      </trkpt>
      <trkpt lat="45.57453" lon="1.83953">
        <ele>533</ele>
        <time>2022-08-04T07:36:17Z</time>
      </trkpt>
      <trkpt lat="45.57445" lon="1.83943">
        <ele>533</ele>
        <time>2022-08-04T07:36:19Z</time>
      </trkpt>
      <trkpt lat="45.57437" lon="1.83933">
        <ele>533</ele>
        <time>2022-08-04T07:36:21Z</time>
      </trkpt>
      <trkpt lat="45.57431" lon="1.83923">
        <ele>532.9</ele>
        <time>2022-08-04T07:36:23Z</time>
      </trkpt>
      <trkpt lat="45.57425" lon="1.83915">
        <ele>532.8</ele>
        <time>2022-08-04T07:36:25Z</time>
      </trkpt>
      <trkpt lat="45.57419" lon="1.83907">
        <ele>532.3</ele>
        <time>2022-08-04T07:36:27Z</time>
      </trkpt>
      <trkpt lat="45.57413" lon="1.83899">
        <ele>532.1</ele>
        <time>2022-08-04T07:36:29Z</time>
      </trkpt>
      <trkpt lat="45.57408" lon="1.83892">
        <ele>531.9</ele>
        <time>2022-08-04T07:36:31Z</time>
      </trkpt>
      <trkpt lat="45.57403" lon="1.83885">
        <ele>531.9</ele>
        <time>2022-08-04T07:36:33Z</time>
      </trkpt>
      <trkpt lat="45.57397" lon="1.83879">
        <ele>531.9</ele>
        <time>2022-08-04T07:36:35Z</time>
      </trkpt>
      <trkpt lat="45.57393" lon="1.83872">
        <ele>531.7</ele>
        <time>2022-08-04T07:36:37Z</time>
      </trkpt>
      <trkpt lat="45.57388" lon="1.83866">
        <ele>531.7</ele>
        <time>2022-08-04T07:36:39Z</time>
      </trkpt>
      <trkpt lat="45.57383" lon="1.83859">
        <ele>531.5</ele>
        <time>2022-08-04T07:36:41Z</time>
      </trkpt>
      <trkpt lat="45.57378" lon="1.83854">
        <ele>531.6</ele>
        <time>2022-08-04T07:36:43Z</time>
      </trkpt>
      <trkpt lat="45.57373" lon="1.83848">
        <ele>531.4</ele>
        <time>2022-08-04T07:36:45Z</time>
      </trkpt>
      <trkpt lat="45.57367" lon="1.83842">
        <ele>531.7</ele>
        <time>2022-08-04T07:36:47Z</time>
      </trkpt>
      <trkpt lat="45.57362" lon="1.83837">
        <ele>531.8</ele>
        <time>2022-08-04T07:36:49Z</time>
      </trkpt>
      <trkpt lat="45.57357" lon="1.83831">
        <ele>531.8</ele>
        <time>2022-08-04T07:36:51Z</time>
      </trkpt>
      <trkpt lat="45.57352" lon="1.83826">
        <ele>531.8</ele>
        <time>2022-08-04T07:36:53Z</time>
      </trkpt>
      <trkpt lat="45.57347" lon="1.8382">
        <ele>531.9</ele>
        <time>2022-08-04T07:36:55Z</time>
      </trkpt>
      <trkpt lat="45.57341" lon="1.83814">
        <ele>531.9</ele>
        <time>2022-08-04T07:36:57Z</time>
      </trkpt>
      <trkpt lat="45.57337" lon="1.83808">
        <ele>531.6</ele>
        <time>2022-08-04T07:36:59Z</time>
      </trkpt>
      <trkpt lat="45.57331" lon="1.83801">
        <ele>531</ele>
        <time>2022-08-04T07:37:01Z</time>
      </trkpt>
      <trkpt lat="45.57325" lon="1.83795">
        <ele>530.1</ele>
        <time>2022-08-04T07:37:03Z</time>
      </trkpt>
      <trkpt lat="45.5732" lon="1.83788">
        <ele>529.1</ele>
        <time>2022-08-04T07:37:05Z</time>
      </trkpt>
      <trkpt lat="45.57315" lon="1.83782">
        <ele>528.4</ele>
        <time>2022-08-04T07:37:07Z</time>
      </trkpt>
      <trkpt lat="45.57309" lon="1.83778">
        <ele>527.9</ele>
        <time>2022-08-04T07:37:09Z</time>
      </trkpt>
      <trkpt lat="45.57302" lon="1.83774">
        <ele>527.6</ele>
        <time>2022-08-04T07:37:11Z</time>
      </trkpt>
      <trkpt lat="45.57295" lon="1.83771">
        <ele>527.4</ele>
        <time>2022-08-04T07:37:13Z</time>
      </trkpt>
      <trkpt lat="45.57285" lon="1.83769">
        <ele>527.5</ele>
        <time>2022-08-04T07:37:15Z</time>
      </trkpt>
      <trkpt lat="45.57274" lon="1.83768">
        <ele>527.8</ele>
        <time>2022-08-04T07:37:17Z</time>
      </trkpt>
      <trkpt lat="45.57262" lon="1.83765">
        <ele>527.8</ele>
        <time>2022-08-04T07:37:19Z</time>
      </trkpt>
      <trkpt lat="45.5725" lon="1.83754">
        <ele>527.3</ele>
        <time>2022-08-04T07:37:21Z</time>
      </trkpt>
      <trkpt lat="45.57243" lon="1.83733">
        <ele>528.5</ele>
        <time>2022-08-04T07:37:23Z</time>
      </trkpt>
      <trkpt lat="45.57242" lon="1.83709">
        <ele>529</ele>
        <time>2022-08-04T07:37:25Z</time>
      </trkpt>
      <trkpt lat="45.57243" lon="1.8369">
        <ele>528.7</ele>
        <time>2022-08-04T07:37:27Z</time>
      </trkpt>
      <trkpt lat="45.57245" lon="1.83674">
        <ele>528.5</ele>
        <time>2022-08-04T07:37:29Z</time>
      </trkpt>
      <trkpt lat="45.57246" lon="1.83659">
        <ele>528.2</ele>
        <time>2022-08-04T07:37:31Z</time>
      </trkpt>
      <trkpt lat="45.57247" lon="1.83647">
        <ele>527.9</ele>
        <time>2022-08-04T07:37:33Z</time>
      </trkpt>
      <trkpt lat="45.57247" lon="1.83635">
        <ele>527.9</ele>
        <time>2022-08-04T07:37:35Z</time>
      </trkpt>
      <trkpt lat="45.57249" lon="1.83624">
        <ele>527.2</ele>
        <time>2022-08-04T07:37:37Z</time>
      </trkpt>
      <trkpt lat="45.57249" lon="1.83611">
        <ele>527.2</ele>
        <time>2022-08-04T07:37:39Z</time>
      </trkpt>
      <trkpt lat="45.5725" lon="1.83596">
        <ele>527</ele>
        <time>2022-08-04T07:37:41Z</time>
      </trkpt>
      <trkpt lat="45.57251" lon="1.83582">
        <ele>527</ele>
        <time>2022-08-04T07:37:43Z</time>
      </trkpt>
      <trkpt lat="45.57252" lon="1.83568">
        <ele>527.7</ele>
        <time>2022-08-04T07:37:45Z</time>
      </trkpt>
      <trkpt lat="45.57253" lon="1.83555">
        <ele>528.2</ele>
        <time>2022-08-04T07:37:47Z</time>
      </trkpt>
      <trkpt lat="45.57255" lon="1.83542">
        <ele>528.7</ele>
        <time>2022-08-04T07:37:49Z</time>
      </trkpt>
      <trkpt lat="45.57257" lon="1.8353">
        <ele>529.1</ele>
        <time>2022-08-04T07:37:51Z</time>
      </trkpt>
      <trkpt lat="45.57258" lon="1.83518">
        <ele>529.5</ele>
        <time>2022-08-04T07:37:53Z</time>
      </trkpt>
      <trkpt lat="45.5726" lon="1.83507">
        <ele>529.7</ele>
        <time>2022-08-04T07:37:55Z</time>
      </trkpt>
      <trkpt lat="45.57261" lon="1.83497">
        <ele>529.9</ele>
        <time>2022-08-04T07:37:57Z</time>
      </trkpt>
      <trkpt lat="45.57262" lon="1.83485">
        <ele>529.7</ele>
        <time>2022-08-04T07:37:59Z</time>
      </trkpt>
      <trkpt lat="45.57263" lon="1.83474">
        <ele>529.6</ele>
        <time>2022-08-04T07:38:01Z</time>
      </trkpt>
      <trkpt lat="45.57264" lon="1.83464">
        <ele>529.5</ele>
        <time>2022-08-04T07:38:03Z</time>
      </trkpt>
      <trkpt lat="45.57263" lon="1.83455">
        <ele>529.8</ele>
        <time>2022-08-04T07:38:05Z</time>
      </trkpt>
      <trkpt lat="45.57263" lon="1.83447">
        <ele>529.9</ele>
        <time>2022-08-04T07:38:07Z</time>
      </trkpt>
      <trkpt lat="45.57262" lon="1.83442">
        <ele>530.1</ele>
        <time>2022-08-04T07:38:09Z</time>
      </trkpt>
      <trkpt lat="45.57261" lon="1.83434">
        <ele>530.4</ele>
        <time>2022-08-04T07:38:11Z</time>
      </trkpt>
      <trkpt lat="45.57259" lon="1.83424">
        <ele>531</ele>
        <time>2022-08-04T07:38:13Z</time>
      </trkpt>
      <trkpt lat="45.57257" lon="1.83417">
        <ele>531.4</ele>
        <time>2022-08-04T07:38:15Z</time>
      </trkpt>
      <trkpt lat="45.57254" lon="1.83408">
        <ele>531.4</ele>
        <time>2022-08-04T07:38:17Z</time>
      </trkpt>
      <trkpt lat="45.57252" lon="1.834">
        <ele>531.3</ele>
        <time>2022-08-04T07:38:19Z</time>
      </trkpt>
      <trkpt lat="45.57249" lon="1.83393">
        <ele>531.3</ele>
        <time>2022-08-04T07:38:21Z</time>
      </trkpt>
      <trkpt lat="45.57246" lon="1.83385">
        <ele>531.2</ele>
        <time>2022-08-04T07:38:23Z</time>
      </trkpt>
      <trkpt lat="45.57244" lon="1.83376">
        <ele>531</ele>
        <time>2022-08-04T07:38:25Z</time>
      </trkpt>
      <trkpt lat="45.57241" lon="1.83368">
        <ele>531</ele>
        <time>2022-08-04T07:38:27Z</time>
      </trkpt>
      <trkpt lat="45.5724" lon="1.83361">
        <ele>530.6</ele>
        <time>2022-08-04T07:38:29Z</time>
      </trkpt>
      <trkpt lat="45.57237" lon="1.83353">
        <ele>530.5</ele>
        <time>2022-08-04T07:38:31Z</time>
      </trkpt>
      <trkpt lat="45.57234" lon="1.83346">
        <ele>530.5</ele>
        <time>2022-08-04T07:38:33Z</time>
      </trkpt>
      <trkpt lat="45.5723" lon="1.83339">
        <ele>530.5</ele>
        <time>2022-08-04T07:38:35Z</time>
      </trkpt>
      <trkpt lat="45.57227" lon="1.83331">
        <ele>530.4</ele>
        <time>2022-08-04T07:38:37Z</time>
      </trkpt>
      <trkpt lat="45.57221" lon="1.83324">
        <ele>530.3</ele>
        <time>2022-08-04T07:38:39Z</time>
      </trkpt>
      <trkpt lat="45.57214" lon="1.83318">
        <ele>530.7</ele>
        <time>2022-08-04T07:38:41Z</time>
      </trkpt>
      <trkpt lat="45.57206" lon="1.83313">
        <ele>531.3</ele>
        <time>2022-08-04T07:38:43Z</time>
      </trkpt>
      <trkpt lat="45.57198" lon="1.83308">
        <ele>531.9</ele>
        <time>2022-08-04T07:38:45Z</time>
      </trkpt>
      <trkpt lat="45.57189" lon="1.83304">
        <ele>532.6</ele>
        <time>2022-08-04T07:38:47Z</time>
      </trkpt>
      <trkpt lat="45.57179" lon="1.833">
        <ele>533.6</ele>
        <time>2022-08-04T07:38:49Z</time>
      </trkpt>
      <trkpt lat="45.57169" lon="1.83295">
        <ele>534.3</ele>
        <time>2022-08-04T07:38:51Z</time>
      </trkpt>
      <trkpt lat="45.57159" lon="1.83291">
        <ele>534.5</ele>
        <time>2022-08-04T07:38:53Z</time>
      </trkpt>
      <trkpt lat="45.57149" lon="1.83286">
        <ele>534.3</ele>
        <time>2022-08-04T07:38:55Z</time>
      </trkpt>
      <trkpt lat="45.5714" lon="1.83278">
        <ele>533.5</ele>
        <time>2022-08-04T07:38:57Z</time>
      </trkpt>
      <trkpt lat="45.57133" lon="1.8327">
        <ele>532.3</ele>
        <time>2022-08-04T07:38:59Z</time>
      </trkpt>
      <trkpt lat="45.57125" lon="1.83262">
        <ele>531.2</ele>
        <time>2022-08-04T07:39:01Z</time>
      </trkpt>
      <trkpt lat="45.57119" lon="1.83256">
        <ele>530.4</ele>
        <time>2022-08-04T07:39:03Z</time>
      </trkpt>
      <trkpt lat="45.57111" lon="1.8325">
        <ele>529.6</ele>
        <time>2022-08-04T07:39:05Z</time>
      </trkpt>
      <trkpt lat="45.57103" lon="1.83248">
        <ele>529.9</ele>
        <time>2022-08-04T07:39:07Z</time>
      </trkpt>
      <trkpt lat="45.57095" lon="1.83245">
        <ele>530</ele>
        <time>2022-08-04T07:39:09Z</time>
      </trkpt>
      <trkpt lat="45.57088" lon="1.83242">
        <ele>530</ele>
        <time>2022-08-04T07:39:11Z</time>
      </trkpt>
      <trkpt lat="45.57081" lon="1.83241">
        <ele>530.4</ele>
        <time>2022-08-04T07:39:13Z</time>
      </trkpt>
      <trkpt lat="45.57071" lon="1.83238">
        <ele>530.7</ele>
        <time>2022-08-04T07:39:15Z</time>
      </trkpt>
      <trkpt lat="45.57062" lon="1.83234">
        <ele>530.8</ele>
        <time>2022-08-04T07:39:17Z</time>
      </trkpt>
      <trkpt lat="45.57052" lon="1.8323">
        <ele>530.8</ele>
        <time>2022-08-04T07:39:19Z</time>
      </trkpt>
      <trkpt lat="45.57042" lon="1.83225">
        <ele>530.6</ele>
        <time>2022-08-04T07:39:21Z</time>
      </trkpt>
      <trkpt lat="45.57032" lon="1.83219">
        <ele>530.2</ele>
        <time>2022-08-04T07:39:23Z</time>
      </trkpt>
      <trkpt lat="45.57023" lon="1.83214">
        <ele>529.8</ele>
        <time>2022-08-04T07:39:25Z</time>
      </trkpt>
      <trkpt lat="45.57013" lon="1.83206">
        <ele>528.9</ele>
        <time>2022-08-04T07:39:27Z</time>
      </trkpt>
      <trkpt lat="45.57002" lon="1.832">
        <ele>528.1</ele>
        <time>2022-08-04T07:39:29Z</time>
      </trkpt>
      <trkpt lat="45.56993" lon="1.83191">
        <ele>527.8</ele>
        <time>2022-08-04T07:39:31Z</time>
      </trkpt>
      <trkpt lat="45.56982" lon="1.83181">
        <ele>527.7</ele>
        <time>2022-08-04T07:39:33Z</time>
      </trkpt>
      <trkpt lat="45.56974" lon="1.83172">
        <ele>527.2</ele>
        <time>2022-08-04T07:39:35Z</time>
      </trkpt>
      <trkpt lat="45.56967" lon="1.83161">
        <ele>527</ele>
        <time>2022-08-04T07:39:37Z</time>
      </trkpt>
      <trkpt lat="45.56958" lon="1.83151">
        <ele>527.5</ele>
        <time>2022-08-04T07:39:39Z</time>
      </trkpt>
      <trkpt lat="45.5695" lon="1.83141">
        <ele>527.8</ele>
        <time>2022-08-04T07:39:41Z</time>
      </trkpt>
      <trkpt lat="45.56941" lon="1.8313">
        <ele>527.7</ele>
        <time>2022-08-04T07:39:43Z</time>
      </trkpt>
      <trkpt lat="45.5693" lon="1.83121">
        <ele>528</ele>
        <time>2022-08-04T07:39:45Z</time>
      </trkpt>
      <trkpt lat="45.56922" lon="1.83111">
        <ele>527.6</ele>
        <time>2022-08-04T07:39:47Z</time>
      </trkpt>
      <trkpt lat="45.56915" lon="1.83104">
        <ele>527.5</ele>
        <time>2022-08-04T07:39:49Z</time>
      </trkpt>
      <trkpt lat="45.56911" lon="1.83095">
        <ele>527.3</ele>
        <time>2022-08-04T07:39:51Z</time>
      </trkpt>
      <trkpt lat="45.56905" lon="1.8309">
        <ele>528.1</ele>
        <time>2022-08-04T07:39:53Z</time>
      </trkpt>
      <trkpt lat="45.56901" lon="1.83084">
        <ele>528.3</ele>
        <time>2022-08-04T07:39:55Z</time>
      </trkpt>
      <trkpt lat="45.56894" lon="1.83079">
        <ele>529.5</ele>
        <time>2022-08-04T07:39:57Z</time>
      </trkpt>
      <trkpt lat="45.56888" lon="1.83075">
        <ele>530.8</ele>
        <time>2022-08-04T07:39:59Z</time>
      </trkpt>
      <trkpt lat="45.56883" lon="1.83065">
        <ele>530.7</ele>
        <time>2022-08-04T07:40:01Z</time>
      </trkpt>
      <trkpt lat="45.56878" lon="1.8306">
        <ele>530.9</ele>
        <time>2022-08-04T07:40:03Z</time>
      </trkpt>
      <trkpt lat="45.56872" lon="1.83051">
        <ele>530.8</ele>
        <time>2022-08-04T07:40:05Z</time>
      </trkpt>
      <trkpt lat="45.56868" lon="1.83042">
        <ele>529.9</ele>
        <time>2022-08-04T07:40:07Z</time>
      </trkpt>
      <trkpt lat="45.56863" lon="1.83035">
        <ele>529.6</ele>
        <time>2022-08-04T07:40:09Z</time>
      </trkpt>
      <trkpt lat="45.56857" lon="1.83027">
        <ele>528.9</ele>
        <time>2022-08-04T07:40:11Z</time>
      </trkpt>
      <trkpt lat="45.56851" lon="1.83021">
        <ele>528.5</ele>
        <time>2022-08-04T07:40:13Z</time>
      </trkpt>
      <trkpt lat="45.56844" lon="1.83015">
        <ele>528.5</ele>
        <time>2022-08-04T07:40:15Z</time>
      </trkpt>
      <trkpt lat="45.56834" lon="1.83009">
        <ele>528.5</ele>
        <time>2022-08-04T07:40:17Z</time>
      </trkpt>
      <trkpt lat="45.56827" lon="1.83005">
        <ele>528.9</ele>
        <time>2022-08-04T07:40:19Z</time>
      </trkpt>
      <trkpt lat="45.56817" lon="1.83">
        <ele>529.9</ele>
        <time>2022-08-04T07:40:21Z</time>
      </trkpt>
      <trkpt lat="45.56809" lon="1.82998">
        <ele>531.3</ele>
        <time>2022-08-04T07:40:23Z</time>
      </trkpt>
      <trkpt lat="45.568" lon="1.82992">
        <ele>531.7</ele>
        <time>2022-08-04T07:40:25Z</time>
      </trkpt>
      <trkpt lat="45.56793" lon="1.82988">
        <ele>532.3</ele>
        <time>2022-08-04T07:40:27Z</time>
      </trkpt>
      <trkpt lat="45.56784" lon="1.82985">
        <ele>532.9</ele>
        <time>2022-08-04T07:40:29Z</time>
      </trkpt>
      <trkpt lat="45.56777" lon="1.8298">
        <ele>533.1</ele>
        <time>2022-08-04T07:40:31Z</time>
      </trkpt>
      <trkpt lat="45.56768" lon="1.82976">
        <ele>533.4</ele>
        <time>2022-08-04T07:40:33Z</time>
      </trkpt>
      <trkpt lat="45.5676" lon="1.8297">
        <ele>532.5</ele>
        <time>2022-08-04T07:40:35Z</time>
      </trkpt>
      <trkpt lat="45.56753" lon="1.82966">
        <ele>531.8</ele>
        <time>2022-08-04T07:40:37Z</time>
      </trkpt>
      <trkpt lat="45.56745" lon="1.82962">
        <ele>533</ele>
        <time>2022-08-04T07:40:39Z</time>
      </trkpt>
      <trkpt lat="45.56737" lon="1.82957">
        <ele>534</ele>
        <time>2022-08-04T07:40:41Z</time>
      </trkpt>
      <trkpt lat="45.5673" lon="1.82953">
        <ele>535</ele>
        <time>2022-08-04T07:40:43Z</time>
      </trkpt>
      <trkpt lat="45.56724" lon="1.82946">
        <ele>534.7</ele>
        <time>2022-08-04T07:40:45Z</time>
      </trkpt>
      <trkpt lat="45.56717" lon="1.82939">
        <ele>534.9</ele>
        <time>2022-08-04T07:40:47Z</time>
      </trkpt>
      <trkpt lat="45.56711" lon="1.82933">
        <ele>534.6</ele>
        <time>2022-08-04T07:40:49Z</time>
      </trkpt>
      <trkpt lat="45.56706" lon="1.82928">
        <ele>534.7</ele>
        <time>2022-08-04T07:40:51Z</time>
      </trkpt>
      <trkpt lat="45.56699" lon="1.82922">
        <ele>535.2</ele>
        <time>2022-08-04T07:40:53Z</time>
      </trkpt>
      <trkpt lat="45.56692" lon="1.82917">
        <ele>535.6</ele>
        <time>2022-08-04T07:40:55Z</time>
      </trkpt>
      <trkpt lat="45.56686" lon="1.82912">
        <ele>536.5</ele>
        <time>2022-08-04T07:40:57Z</time>
      </trkpt>
      <trkpt lat="45.5668" lon="1.82906">
        <ele>536.6</ele>
        <time>2022-08-04T07:40:59Z</time>
      </trkpt>
      <trkpt lat="45.56673" lon="1.82898">
        <ele>536.3</ele>
        <time>2022-08-04T07:41:01Z</time>
      </trkpt>
      <trkpt lat="45.56668" lon="1.82891">
        <ele>535.4</ele>
        <time>2022-08-04T07:41:03Z</time>
      </trkpt>
      <trkpt lat="45.5666" lon="1.82886">
        <ele>536</ele>
        <time>2022-08-04T07:41:05Z</time>
      </trkpt>
      <trkpt lat="45.56654" lon="1.82882">
        <ele>536.6</ele>
        <time>2022-08-04T07:41:07Z</time>
      </trkpt>
      <trkpt lat="45.56648" lon="1.82876">
        <ele>536.1</ele>
        <time>2022-08-04T07:41:09Z</time>
      </trkpt>
      <trkpt lat="45.56643" lon="1.82869">
        <ele>535.2</ele>
        <time>2022-08-04T07:41:11Z</time>
      </trkpt>
      <trkpt lat="45.56636" lon="1.82861">
        <ele>534.7</ele>
        <time>2022-08-04T07:41:13Z</time>
      </trkpt>
      <trkpt lat="45.56629" lon="1.82857">
        <ele>535.6</ele>
        <time>2022-08-04T07:41:15Z</time>
      </trkpt>
      <trkpt lat="45.56624" lon="1.82851">
        <ele>534.9</ele>
        <time>2022-08-04T07:41:17Z</time>
      </trkpt>
      <trkpt lat="45.56617" lon="1.82845">
        <ele>535.2</ele>
        <time>2022-08-04T07:41:19Z</time>
      </trkpt>
      <trkpt lat="45.56612" lon="1.82839">
        <ele>534.5</ele>
        <time>2022-08-04T07:41:21Z</time>
      </trkpt>
      <trkpt lat="45.56606" lon="1.82835">
        <ele>535.2</ele>
        <time>2022-08-04T07:41:23Z</time>
      </trkpt>
      <trkpt lat="45.56598" lon="1.82828">
        <ele>535.5</ele>
        <time>2022-08-04T07:41:25Z</time>
      </trkpt>
      <trkpt lat="45.56594" lon="1.82824">
        <ele>535.9</ele>
        <time>2022-08-04T07:41:27Z</time>
      </trkpt>
      <trkpt lat="45.56587" lon="1.82819">
        <ele>536.3</ele>
        <time>2022-08-04T07:41:29Z</time>
      </trkpt>
      <trkpt lat="45.56581" lon="1.82815">
        <ele>536.5</ele>
        <time>2022-08-04T07:41:31Z</time>
      </trkpt>
      <trkpt lat="45.56575" lon="1.82809">
        <ele>535.7</ele>
        <time>2022-08-04T07:41:33Z</time>
      </trkpt>
      <trkpt lat="45.56565" lon="1.82801">
        <ele>535.4</ele>
        <time>2022-08-04T07:41:35Z</time>
      </trkpt>
      <trkpt lat="45.56553" lon="1.82795">
        <ele>535.8</ele>
        <time>2022-08-04T07:41:37Z</time>
      </trkpt>
      <trkpt lat="45.56542" lon="1.82787">
        <ele>536</ele>
        <time>2022-08-04T07:41:39Z</time>
      </trkpt>
      <trkpt lat="45.5653" lon="1.82779">
        <ele>536.3</ele>
        <time>2022-08-04T07:41:41Z</time>
      </trkpt>
      <trkpt lat="45.56519" lon="1.82769">
        <ele>535.9</ele>
        <time>2022-08-04T07:41:43Z</time>
      </trkpt>
      <trkpt lat="45.56508" lon="1.82758">
        <ele>535.3</ele>
        <time>2022-08-04T07:41:45Z</time>
      </trkpt>
      <trkpt lat="45.56497" lon="1.82746">
        <ele>535.5</ele>
        <time>2022-08-04T07:41:47Z</time>
      </trkpt>
      <trkpt lat="45.56486" lon="1.82734">
        <ele>537</ele>
        <time>2022-08-04T07:41:49Z</time>
      </trkpt>
      <trkpt lat="45.56475" lon="1.82723">
        <ele>538.1</ele>
        <time>2022-08-04T07:41:51Z</time>
      </trkpt>
      <trkpt lat="45.56463" lon="1.82712">
        <ele>538.9</ele>
        <time>2022-08-04T07:41:53Z</time>
      </trkpt>
      <trkpt lat="45.56452" lon="1.827">
        <ele>538.7</ele>
        <time>2022-08-04T07:41:55Z</time>
      </trkpt>
      <trkpt lat="45.56442" lon="1.82691">
        <ele>538.5</ele>
        <time>2022-08-04T07:41:57Z</time>
      </trkpt>
      <trkpt lat="45.56432" lon="1.82681">
        <ele>537.7</ele>
        <time>2022-08-04T07:41:59Z</time>
      </trkpt>
      <trkpt lat="45.56425" lon="1.8267">
        <ele>536.1</ele>
        <time>2022-08-04T07:42:01Z</time>
      </trkpt>
      <trkpt lat="45.56416" lon="1.82662">
        <ele>535</ele>
        <time>2022-08-04T07:42:03Z</time>
      </trkpt>
      <trkpt lat="45.56409" lon="1.82655">
        <ele>535.3</ele>
        <time>2022-08-04T07:42:05Z</time>
      </trkpt>
      <trkpt lat="45.56404" lon="1.82646">
        <ele>534.9</ele>
        <time>2022-08-04T07:42:07Z</time>
      </trkpt>
      <trkpt lat="45.56398" lon="1.82635">
        <ele>534.2</ele>
        <time>2022-08-04T07:42:09Z</time>
      </trkpt>
      <trkpt lat="45.5639" lon="1.82626">
        <ele>534.6</ele>
        <time>2022-08-04T07:42:11Z</time>
      </trkpt>
      <trkpt lat="45.56385" lon="1.82615">
        <ele>533.3</ele>
        <time>2022-08-04T07:42:13Z</time>
      </trkpt>
      <trkpt lat="45.56378" lon="1.82606">
        <ele>533.6</ele>
        <time>2022-08-04T07:42:15Z</time>
      </trkpt>
      <trkpt lat="45.56371" lon="1.82595">
        <ele>533.6</ele>
        <time>2022-08-04T07:42:17Z</time>
      </trkpt>
      <trkpt lat="45.56366" lon="1.82583">
        <ele>532.4</ele>
        <time>2022-08-04T07:42:19Z</time>
      </trkpt>
      <trkpt lat="45.56358" lon="1.82568">
        <ele>533.5</ele>
        <time>2022-08-04T07:42:21Z</time>
      </trkpt>
      <trkpt lat="45.5635" lon="1.82552">
        <ele>534</ele>
        <time>2022-08-04T07:42:23Z</time>
      </trkpt>
      <trkpt lat="45.5634" lon="1.82536">
        <ele>534.8</ele>
        <time>2022-08-04T07:42:25Z</time>
      </trkpt>
      <trkpt lat="45.56332" lon="1.82521">
        <ele>534.6</ele>
        <time>2022-08-04T07:42:27Z</time>
      </trkpt>
      <trkpt lat="45.56325" lon="1.82506">
        <ele>533.8</ele>
        <time>2022-08-04T07:42:29Z</time>
      </trkpt>
      <trkpt lat="45.56315" lon="1.82494">
        <ele>533.6</ele>
        <time>2022-08-04T07:42:31Z</time>
      </trkpt>
      <trkpt lat="45.56305" lon="1.82477">
        <ele>532.2</ele>
        <time>2022-08-04T07:42:33Z</time>
      </trkpt>
      <trkpt lat="45.56296" lon="1.82466">
        <ele>531.9</ele>
        <time>2022-08-04T07:42:35Z</time>
      </trkpt>
      <trkpt lat="45.56287" lon="1.82455">
        <ele>531.5</ele>
        <time>2022-08-04T07:42:37Z</time>
      </trkpt>
      <trkpt lat="45.5628" lon="1.82443">
        <ele>530.6</ele>
        <time>2022-08-04T07:42:39Z</time>
      </trkpt>
      <trkpt lat="45.56274" lon="1.82432">
        <ele>529.9</ele>
        <time>2022-08-04T07:42:41Z</time>
      </trkpt>
      <trkpt lat="45.56266" lon="1.82421">
        <ele>529.5</ele>
        <time>2022-08-04T07:42:43Z</time>
      </trkpt>
      <trkpt lat="45.56258" lon="1.82411">
        <ele>530.2</ele>
        <time>2022-08-04T07:42:45Z</time>
      </trkpt>
      <trkpt lat="45.56251" lon="1.82399">
        <ele>531.3</ele>
        <time>2022-08-04T07:42:47Z</time>
      </trkpt>
      <trkpt lat="45.56243" lon="1.82388">
        <ele>533</ele>
        <time>2022-08-04T07:42:49Z</time>
      </trkpt>
      <trkpt lat="45.56241" lon="1.82377">
        <ele>533.3</ele>
        <time>2022-08-04T07:42:51Z</time>
      </trkpt>
      <trkpt lat="45.56236" lon="1.82369">
        <ele>534.1</ele>
        <time>2022-08-04T07:42:53Z</time>
      </trkpt>
      <trkpt lat="45.56232" lon="1.82358">
        <ele>534.7</ele>
        <time>2022-08-04T07:42:55Z</time>
      </trkpt>
      <trkpt lat="45.56226" lon="1.82352">
        <ele>535.8</ele>
        <time>2022-08-04T07:42:57Z</time>
      </trkpt>
      <trkpt lat="45.56223" lon="1.82346">
        <ele>536</ele>
        <time>2022-08-04T07:42:59Z</time>
      </trkpt>
      <trkpt lat="45.56221" lon="1.82339">
        <ele>536.3</ele>
        <time>2022-08-04T07:43:01Z</time>
      </trkpt>
      <trkpt lat="45.56219" lon="1.82333">
        <ele>536.4</ele>
        <time>2022-08-04T07:43:03Z</time>
      </trkpt>
      <trkpt lat="45.56217" lon="1.82328">
        <ele>536.6</ele>
        <time>2022-08-04T07:43:05Z</time>
      </trkpt>
      <trkpt lat="45.56215" lon="1.82323">
        <ele>536.9</ele>
        <time>2022-08-04T07:43:07Z</time>
      </trkpt>
      <trkpt lat="45.56213" lon="1.82317">
        <ele>537.1</ele>
        <time>2022-08-04T07:43:09Z</time>
      </trkpt>
      <trkpt lat="45.56212" lon="1.8231">
        <ele>537.2</ele>
        <time>2022-08-04T07:43:11Z</time>
      </trkpt>
      <trkpt lat="45.56212" lon="1.82304">
        <ele>537.1</ele>
        <time>2022-08-04T07:43:13Z</time>
      </trkpt>
      <trkpt lat="45.56211" lon="1.82298">
        <ele>537.1</ele>
        <time>2022-08-04T07:43:15Z</time>
      </trkpt>
      <trkpt lat="45.5621" lon="1.82294">
        <ele>537.1</ele>
        <time>2022-08-04T07:43:17Z</time>
      </trkpt>
      <trkpt lat="45.5621" lon="1.82289">
        <ele>537</ele>
        <time>2022-08-04T07:43:19Z</time>
      </trkpt>
      <trkpt lat="45.56209" lon="1.82285">
        <ele>536.9</ele>
        <time>2022-08-04T07:43:21Z</time>
      </trkpt>
      <trkpt lat="45.56208" lon="1.8228">
        <ele>537</ele>
        <time>2022-08-04T07:43:23Z</time>
      </trkpt>
      <trkpt lat="45.56207" lon="1.82274">
        <ele>536.8</ele>
        <time>2022-08-04T07:43:25Z</time>
      </trkpt>
      <trkpt lat="45.56207" lon="1.82269">
        <ele>536.8</ele>
        <time>2022-08-04T07:43:27Z</time>
      </trkpt>
      <trkpt lat="45.56205" lon="1.82264">
        <ele>536.8</ele>
        <time>2022-08-04T07:43:29Z</time>
      </trkpt>
      <trkpt lat="45.56204" lon="1.82261">
        <ele>536.8</ele>
        <time>2022-08-04T07:43:31Z</time>
      </trkpt>
      <trkpt lat="45.56202" lon="1.82257">
        <ele>536.9</ele>
        <time>2022-08-04T07:43:33Z</time>
      </trkpt>
      <trkpt lat="45.562" lon="1.82252">
        <ele>536.9</ele>
        <time>2022-08-04T07:43:35Z</time>
      </trkpt>
      <trkpt lat="45.56199" lon="1.82249">
        <ele>536.9</ele>
        <time>2022-08-04T07:43:37Z</time>
      </trkpt>
      <trkpt lat="45.56195" lon="1.82244">
        <ele>537.1</ele>
        <time>2022-08-04T07:43:39Z</time>
      </trkpt>
      <trkpt lat="45.56193" lon="1.82242">
        <ele>537.3</ele>
        <time>2022-08-04T07:43:41Z</time>
      </trkpt>
      <trkpt lat="45.56191" lon="1.8224">
        <ele>537.5</ele>
        <time>2022-08-04T07:43:43Z</time>
      </trkpt>
      <trkpt lat="45.56188" lon="1.82238">
        <ele>537.6</ele>
        <time>2022-08-04T07:43:45Z</time>
      </trkpt>
      <trkpt lat="45.56186" lon="1.82237">
        <ele>537.8</ele>
        <time>2022-08-04T07:43:47Z</time>
      </trkpt>
      <trkpt lat="45.56183" lon="1.82234">
        <ele>537.9</ele>
        <time>2022-08-04T07:43:49Z</time>
      </trkpt>
      <trkpt lat="45.56181" lon="1.82231">
        <ele>538</ele>
        <time>2022-08-04T07:43:51Z</time>
      </trkpt>
      <trkpt lat="45.56178" lon="1.8223">
        <ele>538.2</ele>
        <time>2022-08-04T07:43:53Z</time>
      </trkpt>
      <trkpt lat="45.56176" lon="1.82227">
        <ele>538.3</ele>
        <time>2022-08-04T07:43:55Z</time>
      </trkpt>
      <trkpt lat="45.56173" lon="1.82226">
        <ele>538.4</ele>
        <time>2022-08-04T07:43:57Z</time>
      </trkpt>
      <trkpt lat="45.56171" lon="1.82225">
        <ele>538.5</ele>
        <time>2022-08-04T07:43:59Z</time>
      </trkpt>
      <trkpt lat="45.56168" lon="1.82224">
        <ele>538.6</ele>
        <time>2022-08-04T07:44:01Z</time>
      </trkpt>
      <trkpt lat="45.56167" lon="1.82223">
        <ele>538.7</ele>
        <time>2022-08-04T07:44:03Z</time>
      </trkpt>
      <trkpt lat="45.56164" lon="1.82223">
        <ele>538.7</ele>
        <time>2022-08-04T07:44:05Z</time>
      </trkpt>
      <trkpt lat="45.56162" lon="1.82223">
        <ele>538.7</ele>
        <time>2022-08-04T07:44:07Z</time>
      </trkpt>
      <trkpt lat="45.5616" lon="1.82222">
        <ele>538.7</ele>
        <time>2022-08-04T07:44:09Z</time>
      </trkpt>
      <trkpt lat="45.5616" lon="1.82222">
        <ele>538.6</ele>
        <time>2022-08-04T07:44:11Z</time>
      </trkpt>
      <trkpt lat="45.5616" lon="1.82222">
        <ele>538.7</ele>
        <time>2022-08-04T07:44:13Z</time>
      </trkpt>
      <trkpt lat="45.5616" lon="1.82222">
        <ele>538.7</ele>
        <time>2022-08-04T07:44:15Z</time>
      </trkpt>
      <trkpt lat="45.56165" lon="1.82199">
        <ele>537.5</ele>
        <time>2022-08-04T07:45:29Z</time>
      </trkpt>
      <trkpt lat="45.56167" lon="1.82192">
        <ele>537.2</ele>
        <time>2022-08-04T07:45:31Z</time>
      </trkpt>
      <trkpt lat="45.56168" lon="1.82185">
        <ele>536.8</ele>
        <time>2022-08-04T07:45:33Z</time>
      </trkpt>
      <trkpt lat="45.5617" lon="1.82179">
        <ele>536.5</ele>
        <time>2022-08-04T07:45:35Z</time>
      </trkpt>
      <trkpt lat="45.56171" lon="1.82177">
        <ele>536.4</ele>
        <time>2022-08-04T07:45:37Z</time>
      </trkpt>
      <trkpt lat="45.56172" lon="1.82173">
        <ele>536.2</ele>
        <time>2022-08-04T07:45:39Z</time>
      </trkpt>
      <trkpt lat="45.56173" lon="1.82164">
        <ele>535.8</ele>
        <time>2022-08-04T07:45:41Z</time>
      </trkpt>
      <trkpt lat="45.56172" lon="1.82159">
        <ele>535.4</ele>
        <time>2022-08-04T07:45:43Z</time>
      </trkpt>
      <trkpt lat="45.56172" lon="1.82154">
        <ele>535.1</ele>
        <time>2022-08-04T07:45:45Z</time>
      </trkpt>
      <trkpt lat="45.56173" lon="1.82149">
        <ele>534.8</ele>
        <time>2022-08-04T07:45:47Z</time>
      </trkpt>
      <trkpt lat="45.56172" lon="1.82143">
        <ele>534.3</ele>
        <time>2022-08-04T07:45:49Z</time>
      </trkpt>
      <trkpt lat="45.56171" lon="1.82137">
        <ele>533.9</ele>
        <time>2022-08-04T07:45:51Z</time>
      </trkpt>
      <trkpt lat="45.56171" lon="1.82129">
        <ele>533.4</ele>
        <time>2022-08-04T07:45:53Z</time>
      </trkpt>
      <trkpt lat="45.56168" lon="1.82124">
        <ele>533</ele>
        <time>2022-08-04T07:45:55Z</time>
      </trkpt>
      <trkpt lat="45.5617" lon="1.82111">
        <ele>532.1</ele>
        <time>2022-08-04T07:45:57Z</time>
      </trkpt>
      <trkpt lat="45.5617" lon="1.82104">
        <ele>531.6</ele>
        <time>2022-08-04T07:45:59Z</time>
      </trkpt>
      <trkpt lat="45.56169" lon="1.82097">
        <ele>531.1</ele>
        <time>2022-08-04T07:46:01Z</time>
      </trkpt>
      <trkpt lat="45.56168" lon="1.82089">
        <ele>530.5</ele>
        <time>2022-08-04T07:46:03Z</time>
      </trkpt>
      <trkpt lat="45.56167" lon="1.82074">
        <ele>529.8</ele>
        <time>2022-08-04T07:46:05Z</time>
      </trkpt>
      <trkpt lat="45.56165" lon="1.82072">
        <ele>529.6</ele>
        <time>2022-08-04T07:46:07Z</time>
      </trkpt>
      <trkpt lat="45.56163" lon="1.82064">
        <ele>529.3</ele>
        <time>2022-08-04T07:46:09Z</time>
      </trkpt>
      <trkpt lat="45.56162" lon="1.82056">
        <ele>529</ele>
        <time>2022-08-04T07:46:11Z</time>
      </trkpt>
      <trkpt lat="45.5616" lon="1.8205">
        <ele>528.8</ele>
        <time>2022-08-04T07:46:13Z</time>
      </trkpt>
      <trkpt lat="45.56158" lon="1.82043">
        <ele>528.5</ele>
        <time>2022-08-04T07:46:15Z</time>
      </trkpt>
      <trkpt lat="45.56156" lon="1.82035">
        <ele>528.1</ele>
        <time>2022-08-04T07:46:17Z</time>
      </trkpt>
      <trkpt lat="45.56154" lon="1.82027">
        <ele>527.8</ele>
        <time>2022-08-04T07:46:19Z</time>
      </trkpt>
      <trkpt lat="45.56153" lon="1.82023">
        <ele>527.7</ele>
        <time>2022-08-04T07:46:21Z</time>
      </trkpt>
      <trkpt lat="45.56151" lon="1.82015">
        <ele>527.4</ele>
        <time>2022-08-04T07:46:23Z</time>
      </trkpt>
      <trkpt lat="45.56148" lon="1.82005">
        <ele>527</ele>
        <time>2022-08-04T07:46:25Z</time>
      </trkpt>
      <trkpt lat="45.56145" lon="1.81998">
        <ele>526.6</ele>
        <time>2022-08-04T07:46:27Z</time>
      </trkpt>
      <trkpt lat="45.56144" lon="1.81993">
        <ele>526.2</ele>
        <time>2022-08-04T07:46:29Z</time>
      </trkpt>
      <trkpt lat="45.56142" lon="1.81989">
        <ele>525.7</ele>
        <time>2022-08-04T07:46:31Z</time>
      </trkpt>
      <trkpt lat="45.56138" lon="1.81981">
        <ele>525.1</ele>
        <time>2022-08-04T07:46:33Z</time>
      </trkpt>
      <trkpt lat="45.56136" lon="1.81976">
        <ele>524.5</ele>
        <time>2022-08-04T07:46:35Z</time>
      </trkpt>
      <trkpt lat="45.56133" lon="1.8197">
        <ele>524</ele>
        <time>2022-08-04T07:46:37Z</time>
      </trkpt>
      <trkpt lat="45.56131" lon="1.81965">
        <ele>523.7</ele>
        <time>2022-08-04T07:46:39Z</time>
      </trkpt>
      <trkpt lat="45.5613" lon="1.81961">
        <ele>523.3</ele>
        <time>2022-08-04T07:46:41Z</time>
      </trkpt>
      <trkpt lat="45.56126" lon="1.81959">
        <ele>523</ele>
        <time>2022-08-04T07:46:43Z</time>
      </trkpt>
      <trkpt lat="45.56125" lon="1.81956">
        <ele>522.9</ele>
        <time>2022-08-04T07:46:45Z</time>
      </trkpt>
      <trkpt lat="45.56123" lon="1.8195">
        <ele>522.5</ele>
        <time>2022-08-04T07:46:47Z</time>
      </trkpt>
      <trkpt lat="45.56122" lon="1.81948">
        <ele>522.3</ele>
        <time>2022-08-04T07:46:49Z</time>
      </trkpt>
      <trkpt lat="45.56119" lon="1.81944">
        <ele>522</ele>
        <time>2022-08-04T07:46:51Z</time>
      </trkpt>
      <trkpt lat="45.56119" lon="1.81939">
        <ele>521.7</ele>
        <time>2022-08-04T07:46:53Z</time>
      </trkpt>
      <trkpt lat="45.56118" lon="1.81936">
        <ele>521.5</ele>
        <time>2022-08-04T07:46:55Z</time>
      </trkpt>
      <trkpt lat="45.56116" lon="1.81933">
        <ele>521.3</ele>
        <time>2022-08-04T07:46:57Z</time>
      </trkpt>
      <trkpt lat="45.56113" lon="1.81929">
        <ele>521</ele>
        <time>2022-08-04T07:46:59Z</time>
      </trkpt>
      <trkpt lat="45.56113" lon="1.81926">
        <ele>520.9</ele>
        <time>2022-08-04T07:47:01Z</time>
      </trkpt>
      <trkpt lat="45.5611" lon="1.81923">
        <ele>520.7</ele>
        <time>2022-08-04T07:47:03Z</time>
      </trkpt>
      <trkpt lat="45.56107" lon="1.81918">
        <ele>520.3</ele>
        <time>2022-08-04T07:47:05Z</time>
      </trkpt>
      <trkpt lat="45.56104" lon="1.81915">
        <ele>520.1</ele>
        <time>2022-08-04T07:47:07Z</time>
      </trkpt>
      <trkpt lat="45.56105" lon="1.81915">
        <ele>520.1</ele>
        <time>2022-08-04T07:47:09Z</time>
      </trkpt>
      <trkpt lat="45.56104" lon="1.81914">
        <ele>520.1</ele>
        <time>2022-08-04T07:47:11Z</time>
      </trkpt>
      <trkpt lat="45.561" lon="1.81912">
        <ele>519.8</ele>
        <time>2022-08-04T07:47:13Z</time>
      </trkpt>
      <trkpt lat="45.56098" lon="1.8191">
        <ele>519.6</ele>
        <time>2022-08-04T07:47:15Z</time>
      </trkpt>
      <trkpt lat="45.56098" lon="1.81909">
        <ele>519.6</ele>
        <time>2022-08-04T07:47:17Z</time>
      </trkpt>
      <trkpt lat="45.56097" lon="1.81909">
        <ele>519.6</ele>
        <time>2022-08-04T07:47:19Z</time>
      </trkpt>
      <trkpt lat="45.56096" lon="1.81909">
        <ele>519.5</ele>
        <time>2022-08-04T07:47:21Z</time>
      </trkpt>
      <trkpt lat="45.56095" lon="1.81908">
        <ele>519.5</ele>
        <time>2022-08-04T07:47:23Z</time>
      </trkpt>
      <trkpt lat="45.56077" lon="1.81902">
        <ele>518.8</ele>
        <time>2022-08-04T07:48:41Z</time>
      </trkpt>
      <trkpt lat="45.56075" lon="1.81902">
        <ele>518.7</ele>
        <time>2022-08-04T07:48:43Z</time>
      </trkpt>
      <trkpt lat="45.56071" lon="1.81902">
        <ele>518.7</ele>
        <time>2022-08-04T07:48:45Z</time>
      </trkpt>
      <trkpt lat="45.56067" lon="1.81902">
        <ele>518.6</ele>
        <time>2022-08-04T07:48:47Z</time>
      </trkpt>
      <trkpt lat="45.56061" lon="1.81902">
        <ele>518.5</ele>
        <time>2022-08-04T07:48:49Z</time>
      </trkpt>
      <trkpt lat="45.56056" lon="1.819">
        <ele>518.3</ele>
        <time>2022-08-04T07:48:51Z</time>
      </trkpt>
      <trkpt lat="45.56052" lon="1.81899">
        <ele>518.2</ele>
        <time>2022-08-04T07:48:53Z</time>
      </trkpt>
      <trkpt lat="45.56049" lon="1.81901">
        <ele>518.2</ele>
        <time>2022-08-04T07:48:55Z</time>
      </trkpt>
      <trkpt lat="45.56045" lon="1.81901">
        <ele>518.1</ele>
        <time>2022-08-04T07:48:57Z</time>
      </trkpt>
      <trkpt lat="45.5604" lon="1.81904">
        <ele>518.2</ele>
        <time>2022-08-04T07:48:59Z</time>
      </trkpt>
      <trkpt lat="45.56033" lon="1.81906">
        <ele>518.2</ele>
        <time>2022-08-04T07:49:01Z</time>
      </trkpt>
      <trkpt lat="45.56029" lon="1.81906">
        <ele>518.1</ele>
        <time>2022-08-04T07:49:03Z</time>
      </trkpt>
      <trkpt lat="45.56024" lon="1.81907">
        <ele>518.1</ele>
        <time>2022-08-04T07:49:05Z</time>
      </trkpt>
      <trkpt lat="45.5602" lon="1.81907">
        <ele>518</ele>
        <time>2022-08-04T07:49:07Z</time>
      </trkpt>
      <trkpt lat="45.56014" lon="1.81906">
        <ele>517.8</ele>
        <time>2022-08-04T07:49:09Z</time>
      </trkpt>
      <trkpt lat="45.5601" lon="1.81901">
        <ele>517.5</ele>
        <time>2022-08-04T07:49:11Z</time>
      </trkpt>
      <trkpt lat="45.56009" lon="1.81898">
        <ele>517.3</ele>
        <time>2022-08-04T07:49:13Z</time>
      </trkpt>
      <trkpt lat="45.56008" lon="1.81895">
        <ele>517.1</ele>
        <time>2022-08-04T07:49:15Z</time>
      </trkpt>
      <trkpt lat="45.56006" lon="1.81889">
        <ele>516.8</ele>
        <time>2022-08-04T07:49:17Z</time>
      </trkpt>
      <trkpt lat="45.56004" lon="1.81882">
        <ele>516.4</ele>
        <time>2022-08-04T07:49:19Z</time>
      </trkpt>
      <trkpt lat="45.56002" lon="1.81879">
        <ele>516.2</ele>
        <time>2022-08-04T07:49:21Z</time>
      </trkpt>
      <trkpt lat="45.56002" lon="1.81873">
        <ele>515.9</ele>
        <time>2022-08-04T07:49:23Z</time>
      </trkpt>
      <trkpt lat="45.56002" lon="1.81873">
        <ele>515.9</ele>
        <time>2022-08-04T07:49:25Z</time>
      </trkpt>
      <trkpt lat="45.56002" lon="1.81873">
        <ele>515.9</ele>
        <time>2022-08-04T07:49:27Z</time>
      </trkpt>
      <trkpt lat="45.56002" lon="1.81873">
        <ele>515.9</ele>
        <time>2022-08-04T07:49:31Z</time>
      </trkpt>
      <trkpt lat="45.56008" lon="1.81895">
        <ele>517.1</ele>
        <time>2022-08-04T07:52:03Z</time>
      </trkpt>
      <trkpt lat="45.56009" lon="1.81897">
        <ele>517.2</ele>
        <time>2022-08-04T07:52:05Z</time>
      </trkpt>
      <trkpt lat="45.5601" lon="1.819">
        <ele>517.4</ele>
        <time>2022-08-04T07:52:07Z</time>
      </trkpt>
      <trkpt lat="45.56009" lon="1.81902">
        <ele>517.5</ele>
        <time>2022-08-04T07:52:09Z</time>
      </trkpt>
      <trkpt lat="45.56008" lon="1.81902">
        <ele>517.5</ele>
        <time>2022-08-04T07:52:11Z</time>
      </trkpt>
      <trkpt lat="45.56009" lon="1.81903">
        <ele>517.5</ele>
        <time>2022-08-04T07:52:13Z</time>
      </trkpt>
      <trkpt lat="45.56011" lon="1.81906">
        <ele>517.7</ele>
        <time>2022-08-04T07:52:15Z</time>
      </trkpt>
      <trkpt lat="45.56013" lon="1.81907">
        <ele>517.8</ele>
        <time>2022-08-04T07:52:17Z</time>
      </trkpt>
      <trkpt lat="45.56015" lon="1.81909">
        <ele>518</ele>
        <time>2022-08-04T07:52:19Z</time>
      </trkpt>
      <trkpt lat="45.56017" lon="1.81912">
        <ele>518.2</ele>
        <time>2022-08-04T07:52:21Z</time>
      </trkpt>
      <trkpt lat="45.56017" lon="1.81915">
        <ele>518.3</ele>
        <time>2022-08-04T07:52:23Z</time>
      </trkpt>
      <trkpt lat="45.56015" lon="1.81916">
        <ele>518.3</ele>
        <time>2022-08-04T07:52:25Z</time>
      </trkpt>
      <trkpt lat="45.56015" lon="1.81917">
        <ele>518.4</ele>
        <time>2022-08-04T07:52:27Z</time>
      </trkpt>
      <trkpt lat="45.56015" lon="1.81918">
        <ele>518.5</ele>
        <time>2022-08-04T07:52:29Z</time>
      </trkpt>
      <trkpt lat="45.56015" lon="1.81918">
        <ele>518.5</ele>
        <time>2022-08-04T07:52:31Z</time>
      </trkpt>
      <trkpt lat="45.56013" lon="1.81942">
        <ele>520.3</ele>
        <time>2022-08-04T07:52:43Z</time>
      </trkpt>
      <trkpt lat="45.56016" lon="1.8195">
        <ele>520.9</ele>
        <time>2022-08-04T07:52:45Z</time>
      </trkpt>
      <trkpt lat="45.56018" lon="1.81957">
        <ele>521.4</ele>
        <time>2022-08-04T07:52:47Z</time>
      </trkpt>
      <trkpt lat="45.56021" lon="1.81965">
        <ele>522</ele>
        <time>2022-08-04T07:52:49Z</time>
      </trkpt>
      <trkpt lat="45.56024" lon="1.81971">
        <ele>522.4</ele>
        <time>2022-08-04T07:52:51Z</time>
      </trkpt>
      <trkpt lat="45.56028" lon="1.81977">
        <ele>522.8</ele>
        <time>2022-08-04T07:52:53Z</time>
      </trkpt>
      <trkpt lat="45.56032" lon="1.81984">
        <ele>523.2</ele>
        <time>2022-08-04T07:52:55Z</time>
      </trkpt>
      <trkpt lat="45.56034" lon="1.81993">
        <ele>523.7</ele>
        <time>2022-08-04T07:52:57Z</time>
      </trkpt>
      <trkpt lat="45.56032" lon="1.82002">
        <ele>524.3</ele>
        <time>2022-08-04T07:52:59Z</time>
      </trkpt>
      <trkpt lat="45.56025" lon="1.82006">
        <ele>524.8</ele>
        <time>2022-08-04T07:53:01Z</time>
      </trkpt>
      <trkpt lat="45.56019" lon="1.82005">
        <ele>524.9</ele>
        <time>2022-08-04T07:53:03Z</time>
      </trkpt>
      <trkpt lat="45.56013" lon="1.82005">
        <ele>525</ele>
        <time>2022-08-04T07:53:05Z</time>
      </trkpt>
      <trkpt lat="45.56009" lon="1.82002">
        <ele>524.9</ele>
        <time>2022-08-04T07:53:07Z</time>
      </trkpt>
      <trkpt lat="45.56002" lon="1.82">
        <ele>524.9</ele>
        <time>2022-08-04T07:53:09Z</time>
      </trkpt>
      <trkpt lat="45.55996" lon="1.81996">
        <ele>525.5</ele>
        <time>2022-08-04T07:53:11Z</time>
      </trkpt>
      <trkpt lat="45.5599" lon="1.81992">
        <ele>526.2</ele>
        <time>2022-08-04T07:53:13Z</time>
      </trkpt>
      <trkpt lat="45.55986" lon="1.81986">
        <ele>526.2</ele>
        <time>2022-08-04T07:53:15Z</time>
      </trkpt>
      <trkpt lat="45.5598" lon="1.81981">
        <ele>526.7</ele>
        <time>2022-08-04T07:53:17Z</time>
      </trkpt>
      <trkpt lat="45.55975" lon="1.81977">
        <ele>527.2</ele>
        <time>2022-08-04T07:53:19Z</time>
      </trkpt>
      <trkpt lat="45.55968" lon="1.81971">
        <ele>527.6</ele>
        <time>2022-08-04T07:53:21Z</time>
      </trkpt>
      <trkpt lat="45.55962" lon="1.81966">
        <ele>527.9</ele>
        <time>2022-08-04T07:53:23Z</time>
      </trkpt>
      <trkpt lat="45.55959" lon="1.81959">
        <ele>527.6</ele>
        <time>2022-08-04T07:53:25Z</time>
      </trkpt>
      <trkpt lat="45.55954" lon="1.81952">
        <ele>527.2</ele>
        <time>2022-08-04T07:53:27Z</time>
      </trkpt>
      <trkpt lat="45.55949" lon="1.81946">
        <ele>527.1</ele>
        <time>2022-08-04T07:53:29Z</time>
      </trkpt>
      <trkpt lat="45.55946" lon="1.81939">
        <ele>526.5</ele>
        <time>2022-08-04T07:53:31Z</time>
      </trkpt>
      <trkpt lat="45.55942" lon="1.81936">
        <ele>526.4</ele>
        <time>2022-08-04T07:53:33Z</time>
      </trkpt>
      <trkpt lat="45.55938" lon="1.81929">
        <ele>526</ele>
        <time>2022-08-04T07:53:35Z</time>
      </trkpt>
      <trkpt lat="45.55932" lon="1.81924">
        <ele>525.7</ele>
        <time>2022-08-04T07:53:37Z</time>
      </trkpt>
      <trkpt lat="45.55928" lon="1.8192">
        <ele>525.4</ele>
        <time>2022-08-04T07:53:39Z</time>
      </trkpt>
      <trkpt lat="45.55921" lon="1.8191">
        <ele>524.6</ele>
        <time>2022-08-04T07:53:41Z</time>
      </trkpt>
      <trkpt lat="45.55919" lon="1.81906">
        <ele>524.2</ele>
        <time>2022-08-04T07:53:43Z</time>
      </trkpt>
      <trkpt lat="45.55913" lon="1.81898">
        <ele>524.1</ele>
        <time>2022-08-04T07:53:45Z</time>
      </trkpt>
      <trkpt lat="45.55909" lon="1.81891">
        <ele>523.9</ele>
        <time>2022-08-04T07:53:47Z</time>
      </trkpt>
      <trkpt lat="45.55905" lon="1.81882">
        <ele>523.4</ele>
        <time>2022-08-04T07:53:49Z</time>
      </trkpt>
      <trkpt lat="45.559" lon="1.81874">
        <ele>523.1</ele>
        <time>2022-08-04T07:53:51Z</time>
      </trkpt>
      <trkpt lat="45.55897" lon="1.81867">
        <ele>522.6</ele>
        <time>2022-08-04T07:53:53Z</time>
      </trkpt>
      <trkpt lat="45.55893" lon="1.81861">
        <ele>522.4</ele>
        <time>2022-08-04T07:53:55Z</time>
      </trkpt>
      <trkpt lat="45.55888" lon="1.81854">
        <ele>522</ele>
        <time>2022-08-04T07:53:57Z</time>
      </trkpt>
      <trkpt lat="45.55883" lon="1.81849">
        <ele>522</ele>
        <time>2022-08-04T07:53:59Z</time>
      </trkpt>
      <trkpt lat="45.55877" lon="1.81843">
        <ele>522</ele>
        <time>2022-08-04T07:54:01Z</time>
      </trkpt>
      <trkpt lat="45.55871" lon="1.81839">
        <ele>522.2</ele>
        <time>2022-08-04T07:54:03Z</time>
      </trkpt>
      <trkpt lat="45.55865" lon="1.81835">
        <ele>522.4</ele>
        <time>2022-08-04T07:54:05Z</time>
      </trkpt>
      <trkpt lat="45.55859" lon="1.81832">
        <ele>522.8</ele>
        <time>2022-08-04T07:54:07Z</time>
      </trkpt>
      <trkpt lat="45.55853" lon="1.81827">
        <ele>523.3</ele>
        <time>2022-08-04T07:54:09Z</time>
      </trkpt>
      <trkpt lat="45.55847" lon="1.81823">
        <ele>523.4</ele>
        <time>2022-08-04T07:54:11Z</time>
      </trkpt>
      <trkpt lat="45.55841" lon="1.81819">
        <ele>523.9</ele>
        <time>2022-08-04T07:54:13Z</time>
      </trkpt>
      <trkpt lat="45.55835" lon="1.81816">
        <ele>524.2</ele>
        <time>2022-08-04T07:54:15Z</time>
      </trkpt>
      <trkpt lat="45.5583" lon="1.81811">
        <ele>524.2</ele>
        <time>2022-08-04T07:54:17Z</time>
      </trkpt>
      <trkpt lat="45.55826" lon="1.81808">
        <ele>524.7</ele>
        <time>2022-08-04T07:54:19Z</time>
      </trkpt>
      <trkpt lat="45.5582" lon="1.818">
        <ele>524.5</ele>
        <time>2022-08-04T07:54:21Z</time>
      </trkpt>
      <trkpt lat="45.55814" lon="1.81797">
        <ele>525.2</ele>
        <time>2022-08-04T07:54:23Z</time>
      </trkpt>
      <trkpt lat="45.55811" lon="1.81793">
        <ele>525.3</ele>
        <time>2022-08-04T07:54:25Z</time>
      </trkpt>
      <trkpt lat="45.55804" lon="1.81789">
        <ele>525.9</ele>
        <time>2022-08-04T07:54:27Z</time>
      </trkpt>
      <trkpt lat="45.55799" lon="1.81785">
        <ele>526.1</ele>
        <time>2022-08-04T07:54:29Z</time>
      </trkpt>
      <trkpt lat="45.55792" lon="1.8178">
        <ele>526.4</ele>
        <time>2022-08-04T07:54:31Z</time>
      </trkpt>
      <trkpt lat="45.55788" lon="1.81775">
        <ele>526.4</ele>
        <time>2022-08-04T07:54:33Z</time>
      </trkpt>
      <trkpt lat="45.5578" lon="1.81771">
        <ele>527</ele>
        <time>2022-08-04T07:54:35Z</time>
      </trkpt>
      <trkpt lat="45.55774" lon="1.81767">
        <ele>527.4</ele>
        <time>2022-08-04T07:54:37Z</time>
      </trkpt>
      <trkpt lat="45.55768" lon="1.81762">
        <ele>527.4</ele>
        <time>2022-08-04T07:54:39Z</time>
      </trkpt>
      <trkpt lat="45.55765" lon="1.81756">
        <ele>526.8</ele>
        <time>2022-08-04T07:54:41Z</time>
      </trkpt>
      <trkpt lat="45.55757" lon="1.81752">
        <ele>527.1</ele>
        <time>2022-08-04T07:54:43Z</time>
      </trkpt>
      <trkpt lat="45.55751" lon="1.81748">
        <ele>527.6</ele>
        <time>2022-08-04T07:54:45Z</time>
      </trkpt>
      <trkpt lat="45.55745" lon="1.81741">
        <ele>527.3</ele>
        <time>2022-08-04T07:54:47Z</time>
      </trkpt>
      <trkpt lat="45.55741" lon="1.81736">
        <ele>527.3</ele>
        <time>2022-08-04T07:54:49Z</time>
      </trkpt>
      <trkpt lat="45.55736" lon="1.81731">
        <ele>527.4</ele>
        <time>2022-08-04T07:54:51Z</time>
      </trkpt>
      <trkpt lat="45.55728" lon="1.81726">
        <ele>527.8</ele>
        <time>2022-08-04T07:54:53Z</time>
      </trkpt>
      <trkpt lat="45.55723" lon="1.81721">
        <ele>527.9</ele>
        <time>2022-08-04T07:54:55Z</time>
      </trkpt>
      <trkpt lat="45.55717" lon="1.81716">
        <ele>528</ele>
        <time>2022-08-04T07:54:57Z</time>
      </trkpt>
      <trkpt lat="45.55711" lon="1.81712">
        <ele>528.3</ele>
        <time>2022-08-04T07:54:59Z</time>
      </trkpt>
      <trkpt lat="45.55706" lon="1.81707">
        <ele>528.2</ele>
        <time>2022-08-04T07:55:01Z</time>
      </trkpt>
      <trkpt lat="45.55701" lon="1.81705">
        <ele>528.6</ele>
        <time>2022-08-04T07:55:03Z</time>
      </trkpt>
      <trkpt lat="45.55698" lon="1.81704">
        <ele>529</ele>
        <time>2022-08-04T07:55:05Z</time>
      </trkpt>
      <trkpt lat="45.55694" lon="1.81703">
        <ele>529.4</ele>
        <time>2022-08-04T07:55:07Z</time>
      </trkpt>
      <trkpt lat="45.5569" lon="1.81703">
        <ele>529.9</ele>
        <time>2022-08-04T07:55:09Z</time>
      </trkpt>
      <trkpt lat="45.55685" lon="1.81702">
        <ele>530.7</ele>
        <time>2022-08-04T07:55:11Z</time>
      </trkpt>
      <trkpt lat="45.55682" lon="1.81701">
        <ele>530.9</ele>
        <time>2022-08-04T07:55:13Z</time>
      </trkpt>
      <trkpt lat="45.55679" lon="1.81701">
        <ele>531.3</ele>
        <time>2022-08-04T07:55:15Z</time>
      </trkpt>
      <trkpt lat="45.55677" lon="1.817">
        <ele>531.5</ele>
        <time>2022-08-04T07:55:17Z</time>
      </trkpt>
      <trkpt lat="45.55673" lon="1.817">
        <ele>532.3</ele>
        <time>2022-08-04T07:55:19Z</time>
      </trkpt>
      <trkpt lat="45.5567" lon="1.81699">
        <ele>532.4</ele>
        <time>2022-08-04T07:55:21Z</time>
      </trkpt>
      <trkpt lat="45.5567" lon="1.81699">
        <ele>532.6</ele>
        <time>2022-08-04T07:55:23Z</time>
      </trkpt>
      <trkpt lat="45.55669" lon="1.81699">
        <ele>532.7</ele>
        <time>2022-08-04T07:55:25Z</time>
      </trkpt>
      <trkpt lat="45.55669" lon="1.817">
        <ele>532.9</ele>
        <time>2022-08-04T07:55:27Z</time>
      </trkpt>
      <trkpt lat="45.55668" lon="1.817">
        <ele>532.9</ele>
        <time>2022-08-04T07:55:29Z</time>
      </trkpt>
      <trkpt lat="45.55653" lon="1.81696">
        <ele>534.4</ele>
        <time>2022-08-04T07:55:59Z</time>
      </trkpt>
      <trkpt lat="45.5565" lon="1.81695">
        <ele>534.8</ele>
        <time>2022-08-04T07:56:01Z</time>
      </trkpt>
      <trkpt lat="45.55646" lon="1.81696">
        <ele>535.5</ele>
        <time>2022-08-04T07:56:03Z</time>
      </trkpt>
      <trkpt lat="45.55644" lon="1.81694">
        <ele>535.4</ele>
        <time>2022-08-04T07:56:05Z</time>
      </trkpt>
      <trkpt lat="45.5564" lon="1.81695">
        <ele>536.3</ele>
        <time>2022-08-04T07:56:07Z</time>
      </trkpt>
      <trkpt lat="45.55636" lon="1.81697">
        <ele>537.4</ele>
        <time>2022-08-04T07:56:09Z</time>
      </trkpt>
      <trkpt lat="45.55632" lon="1.81696">
        <ele>538</ele>
        <time>2022-08-04T07:56:11Z</time>
      </trkpt>
      <trkpt lat="45.55628" lon="1.81697">
        <ele>538.6</ele>
        <time>2022-08-04T07:56:13Z</time>
      </trkpt>
      <trkpt lat="45.55624" lon="1.81698">
        <ele>539.5</ele>
        <time>2022-08-04T07:56:15Z</time>
      </trkpt>
      <trkpt lat="45.5562" lon="1.81698">
        <ele>540.1</ele>
        <time>2022-08-04T07:56:17Z</time>
      </trkpt>
      <trkpt lat="45.55616" lon="1.81697">
        <ele>540.6</ele>
        <time>2022-08-04T07:56:19Z</time>
      </trkpt>
      <trkpt lat="45.55612" lon="1.81697">
        <ele>541.2</ele>
        <time>2022-08-04T07:56:21Z</time>
      </trkpt>
      <trkpt lat="45.55609" lon="1.81696">
        <ele>541.6</ele>
        <time>2022-08-04T07:56:23Z</time>
      </trkpt>
      <trkpt lat="45.55606" lon="1.81695">
        <ele>541.8</ele>
        <time>2022-08-04T07:56:25Z</time>
      </trkpt>
      <trkpt lat="45.55603" lon="1.81694">
        <ele>542.1</ele>
        <time>2022-08-04T07:56:27Z</time>
      </trkpt>
      <trkpt lat="45.556" lon="1.81693">
        <ele>542.3</ele>
        <time>2022-08-04T07:56:29Z</time>
      </trkpt>
      <trkpt lat="45.55598" lon="1.81691">
        <ele>542.3</ele>
        <time>2022-08-04T07:56:31Z</time>
      </trkpt>
      <trkpt lat="45.55595" lon="1.81689">
        <ele>542.3</ele>
        <time>2022-08-04T07:56:33Z</time>
      </trkpt>
      <trkpt lat="45.55593" lon="1.81687">
        <ele>542.4</ele>
        <time>2022-08-04T07:56:35Z</time>
      </trkpt>
      <trkpt lat="45.5559" lon="1.81686">
        <ele>542.6</ele>
        <time>2022-08-04T07:56:37Z</time>
      </trkpt>
      <trkpt lat="45.5559" lon="1.81683">
        <ele>542.1</ele>
        <time>2022-08-04T07:56:39Z</time>
      </trkpt>
      <trkpt lat="45.55587" lon="1.81681">
        <ele>542.2</ele>
        <time>2022-08-04T07:56:41Z</time>
      </trkpt>
      <trkpt lat="45.55585" lon="1.81682">
        <ele>542.7</ele>
        <time>2022-08-04T07:56:43Z</time>
      </trkpt>
      <trkpt lat="45.55584" lon="1.81683">
        <ele>543</ele>
        <time>2022-08-04T07:56:45Z</time>
      </trkpt>
      <trkpt lat="45.55584" lon="1.81682">
        <ele>542.9</ele>
        <time>2022-08-04T07:56:47Z</time>
      </trkpt>
      <trkpt lat="45.55584" lon="1.81683">
        <ele>543</ele>
        <time>2022-08-04T07:56:49Z</time>
      </trkpt>
      <trkpt lat="45.55583" lon="1.81683">
        <ele>543.2</ele>
        <time>2022-08-04T07:56:51Z</time>
      </trkpt>
      <trkpt lat="45.55557" lon="1.81673">
        <ele>541</ele>
        <time>2022-08-04T07:57:33Z</time>
      </trkpt>
      <trkpt lat="45.55555" lon="1.81672">
        <ele>540.7</ele>
        <time>2022-08-04T07:57:35Z</time>
      </trkpt>
      <trkpt lat="45.55553" lon="1.81671">
        <ele>540.5</ele>
        <time>2022-08-04T07:57:37Z</time>
      </trkpt>
      <trkpt lat="45.5555" lon="1.8167">
        <ele>540.3</ele>
        <time>2022-08-04T07:57:39Z</time>
      </trkpt>
      <trkpt lat="45.55547" lon="1.81668">
        <ele>539.9</ele>
        <time>2022-08-04T07:57:41Z</time>
      </trkpt>
      <trkpt lat="45.55544" lon="1.81666">
        <ele>539.4</ele>
        <time>2022-08-04T07:57:43Z</time>
      </trkpt>
      <trkpt lat="45.55541" lon="1.81664">
        <ele>539.2</ele>
        <time>2022-08-04T07:57:45Z</time>
      </trkpt>
      <trkpt lat="45.55536" lon="1.8166">
        <ele>538.7</ele>
        <time>2022-08-04T07:57:47Z</time>
      </trkpt>
      <trkpt lat="45.55532" lon="1.81657">
        <ele>538.4</ele>
        <time>2022-08-04T07:57:49Z</time>
      </trkpt>
      <trkpt lat="45.55526" lon="1.81656">
        <ele>538.2</ele>
        <time>2022-08-04T07:57:51Z</time>
      </trkpt>
      <trkpt lat="45.55521" lon="1.81653">
        <ele>537.7</ele>
        <time>2022-08-04T07:57:53Z</time>
      </trkpt>
      <trkpt lat="45.55511" lon="1.81652">
        <ele>537.3</ele>
        <time>2022-08-04T07:57:55Z</time>
      </trkpt>
      <trkpt lat="45.55504" lon="1.8165">
        <ele>536.9</ele>
        <time>2022-08-04T07:57:57Z</time>
      </trkpt>
      <trkpt lat="45.55495" lon="1.81648">
        <ele>536.9</ele>
        <time>2022-08-04T07:57:59Z</time>
      </trkpt>
      <trkpt lat="45.55489" lon="1.81645">
        <ele>536.9</ele>
        <time>2022-08-04T07:58:01Z</time>
      </trkpt>
      <trkpt lat="45.55482" lon="1.81642">
        <ele>536.9</ele>
        <time>2022-08-04T07:58:03Z</time>
      </trkpt>
      <trkpt lat="45.55476" lon="1.81637">
        <ele>536.6</ele>
        <time>2022-08-04T07:58:05Z</time>
      </trkpt>
      <trkpt lat="45.55471" lon="1.81632">
        <ele>536.1</ele>
        <time>2022-08-04T07:58:07Z</time>
      </trkpt>
      <trkpt lat="45.55465" lon="1.81626">
        <ele>535.5</ele>
        <time>2022-08-04T07:58:09Z</time>
      </trkpt>
      <trkpt lat="45.55458" lon="1.81617">
        <ele>534.5</ele>
        <time>2022-08-04T07:58:11Z</time>
      </trkpt>
      <trkpt lat="45.55453" lon="1.81611">
        <ele>533.8</ele>
        <time>2022-08-04T07:58:13Z</time>
      </trkpt>
      <trkpt lat="45.55446" lon="1.81604">
        <ele>532.9</ele>
        <time>2022-08-04T07:58:15Z</time>
      </trkpt>
      <trkpt lat="45.55438" lon="1.816">
        <ele>532.5</ele>
        <time>2022-08-04T07:58:17Z</time>
      </trkpt>
      <trkpt lat="45.55432" lon="1.81597">
        <ele>532.1</ele>
        <time>2022-08-04T07:58:19Z</time>
      </trkpt>
      <trkpt lat="45.55427" lon="1.81596">
        <ele>532.1</ele>
        <time>2022-08-04T07:58:21Z</time>
      </trkpt>
      <trkpt lat="45.55424" lon="1.81594">
        <ele>531.9</ele>
        <time>2022-08-04T07:58:23Z</time>
      </trkpt>
      <trkpt lat="45.55422" lon="1.81593">
        <ele>531.7</ele>
        <time>2022-08-04T07:58:25Z</time>
      </trkpt>
      <trkpt lat="45.5542" lon="1.81591">
        <ele>531.4</ele>
        <time>2022-08-04T07:58:27Z</time>
      </trkpt>
      <trkpt lat="45.55418" lon="1.81589">
        <ele>531.1</ele>
        <time>2022-08-04T07:58:29Z</time>
      </trkpt>
      <trkpt lat="45.55416" lon="1.81587">
        <ele>530.7</ele>
        <time>2022-08-04T07:58:31Z</time>
      </trkpt>
      <trkpt lat="45.55415" lon="1.81585">
        <ele>530.5</ele>
        <time>2022-08-04T07:58:33Z</time>
      </trkpt>
      <trkpt lat="45.55412" lon="1.81582">
        <ele>530.1</ele>
        <time>2022-08-04T07:58:35Z</time>
      </trkpt>
      <trkpt lat="45.5541" lon="1.8158">
        <ele>529.7</ele>
        <time>2022-08-04T07:58:37Z</time>
      </trkpt>
      <trkpt lat="45.55409" lon="1.8158">
        <ele>529.9</ele>
        <time>2022-08-04T07:58:39Z</time>
      </trkpt>
      <trkpt lat="45.55406" lon="1.81578">
        <ele>529.4</ele>
        <time>2022-08-04T07:58:41Z</time>
      </trkpt>
      <trkpt lat="45.55406" lon="1.81577">
        <ele>529.2</ele>
        <time>2022-08-04T07:58:43Z</time>
      </trkpt>
      <trkpt lat="45.55405" lon="1.81576">
        <ele>529.1</ele>
        <time>2022-08-04T07:58:45Z</time>
      </trkpt>
      <trkpt lat="45.55404" lon="1.81575">
        <ele>528.8</ele>
        <time>2022-08-04T07:58:47Z</time>
      </trkpt>
      <trkpt lat="45.55409" lon="1.8155">
        <ele>521.1</ele>
        <time>2022-08-04T08:00:59Z</time>
      </trkpt>
      <trkpt lat="45.55406" lon="1.8155">
        <ele>521.4</ele>
        <time>2022-08-04T08:01:01Z</time>
      </trkpt>
      <trkpt lat="45.55403" lon="1.81551">
        <ele>521.8</ele>
        <time>2022-08-04T08:01:03Z</time>
      </trkpt>
      <trkpt lat="45.55401" lon="1.81551">
        <ele>522.2</ele>
        <time>2022-08-04T08:01:05Z</time>
      </trkpt>
      <trkpt lat="45.55395" lon="1.81551">
        <ele>522.8</ele>
        <time>2022-08-04T08:01:07Z</time>
      </trkpt>
      <trkpt lat="45.5539" lon="1.81551">
        <ele>523.2</ele>
        <time>2022-08-04T08:01:09Z</time>
      </trkpt>
      <trkpt lat="45.55383" lon="1.81551">
        <ele>523.8</ele>
        <time>2022-08-04T08:01:11Z</time>
      </trkpt>
      <trkpt lat="45.55375" lon="1.81547">
        <ele>523.3</ele>
        <time>2022-08-04T08:01:13Z</time>
      </trkpt>
      <trkpt lat="45.55368" lon="1.81548">
        <ele>524.1</ele>
        <time>2022-08-04T08:01:15Z</time>
      </trkpt>
      <trkpt lat="45.55365" lon="1.81545">
        <ele>523.6</ele>
        <time>2022-08-04T08:01:17Z</time>
      </trkpt>
      <trkpt lat="45.55361" lon="1.81545">
        <ele>524.1</ele>
        <time>2022-08-04T08:01:19Z</time>
      </trkpt>
      <trkpt lat="45.55359" lon="1.81544">
        <ele>523.9</ele>
        <time>2022-08-04T08:01:21Z</time>
      </trkpt>
      <trkpt lat="45.55358" lon="1.81543">
        <ele>523.8</ele>
        <time>2022-08-04T08:01:23Z</time>
      </trkpt>
      <trkpt lat="45.55355" lon="1.81541">
        <ele>523.5</ele>
        <time>2022-08-04T08:01:25Z</time>
      </trkpt>
      <trkpt lat="45.55366" lon="1.81452">
        <ele>506.6</ele>
        <time>2022-08-04T08:05:23Z</time>
      </trkpt>
      <trkpt lat="45.55367" lon="1.81455">
        <ele>506.7</ele>
        <time>2022-08-04T08:05:25Z</time>
      </trkpt>
      <trkpt lat="45.55369" lon="1.81457">
        <ele>506.8</ele>
        <time>2022-08-04T08:05:27Z</time>
      </trkpt>
      <trkpt lat="45.55373" lon="1.81458">
        <ele>506.6</ele>
        <time>2022-08-04T08:05:29Z</time>
      </trkpt>
      <trkpt lat="45.55377" lon="1.81459">
        <ele>506.4</ele>
        <time>2022-08-04T08:05:31Z</time>
      </trkpt>
      <trkpt lat="45.5538" lon="1.81461">
        <ele>506.3</ele>
        <time>2022-08-04T08:05:33Z</time>
      </trkpt>
      <trkpt lat="45.55385" lon="1.81461">
        <ele>506.1</ele>
        <time>2022-08-04T08:05:35Z</time>
      </trkpt>
      <trkpt lat="45.5539" lon="1.81461">
        <ele>505.8</ele>
        <time>2022-08-04T08:05:37Z</time>
      </trkpt>
      <trkpt lat="45.55393" lon="1.81461">
        <ele>505.5</ele>
        <time>2022-08-04T08:05:39Z</time>
      </trkpt>
      <trkpt lat="45.55395" lon="1.81458">
        <ele>505.3</ele>
        <time>2022-08-04T08:05:41Z</time>
      </trkpt>
      <trkpt lat="45.55398" lon="1.81456">
        <ele>505</ele>
        <time>2022-08-04T08:05:43Z</time>
      </trkpt>
      <trkpt lat="45.554" lon="1.81454">
        <ele>504.7</ele>
        <time>2022-08-04T08:05:45Z</time>
      </trkpt>
      <trkpt lat="45.55398" lon="1.81452">
        <ele>504.7</ele>
        <time>2022-08-04T08:05:47Z</time>
      </trkpt>
      <trkpt lat="45.55399" lon="1.81451">
        <ele>504.6</ele>
        <time>2022-08-04T08:05:49Z</time>
      </trkpt>
      <trkpt lat="45.55392" lon="1.81453">
        <ele>505.1</ele>
        <time>2022-08-04T08:07:35Z</time>
      </trkpt>
      <trkpt lat="45.55392" lon="1.81453">
        <ele>505.2</ele>
        <time>2022-08-04T08:07:37Z</time>
      </trkpt>
      <trkpt lat="45.55391" lon="1.81454">
        <ele>505.2</ele>
        <time>2022-08-04T08:07:39Z</time>
      </trkpt>
      <trkpt lat="45.55391" lon="1.81454">
        <ele>505.3</ele>
        <time>2022-08-04T08:07:41Z</time>
      </trkpt>
      <trkpt lat="45.5539" lon="1.81456">
        <ele>505.5</ele>
        <time>2022-08-04T08:07:43Z</time>
      </trkpt>
      <trkpt lat="45.55386" lon="1.81459">
        <ele>505.9</ele>
        <time>2022-08-04T08:07:45Z</time>
      </trkpt>
      <trkpt lat="45.55383" lon="1.8146">
        <ele>506.1</ele>
        <time>2022-08-04T08:07:47Z</time>
      </trkpt>
      <trkpt lat="45.55377" lon="1.81461">
        <ele>506.6</ele>
        <time>2022-08-04T08:07:49Z</time>
      </trkpt>
      <trkpt lat="45.55372" lon="1.81459">
        <ele>506.7</ele>
        <time>2022-08-04T08:07:51Z</time>
      </trkpt>
      <trkpt lat="45.55366" lon="1.81456">
        <ele>506.8</ele>
        <time>2022-08-04T08:07:53Z</time>
      </trkpt>
      <trkpt lat="45.55364" lon="1.81453">
        <ele>506.7</ele>
        <time>2022-08-04T08:07:55Z</time>
      </trkpt>
      <trkpt lat="45.55364" lon="1.81454">
        <ele>506.8</ele>
        <time>2022-08-04T08:07:57Z</time>
      </trkpt>
      <trkpt lat="45.55364" lon="1.81455">
        <ele>506.9</ele>
        <time>2022-08-04T08:07:59Z</time>
      </trkpt>
      <trkpt lat="45.55363" lon="1.81455">
        <ele>506.9</ele>
        <time>2022-08-04T08:08:01Z</time>
      </trkpt>
      <trkpt lat="45.55378" lon="1.81458">
        <ele>506.3</ele>
        <time>2022-08-04T08:31:41Z</time>
      </trkpt>
      <trkpt lat="45.55381" lon="1.81459">
        <ele>506.1</ele>
        <time>2022-08-04T08:31:43Z</time>
      </trkpt>
      <trkpt lat="45.55385" lon="1.81459">
        <ele>506</ele>
        <time>2022-08-04T08:31:45Z</time>
      </trkpt>
      <trkpt lat="45.55386" lon="1.81459">
        <ele>505.9</ele>
        <time>2022-08-04T08:31:47Z</time>
      </trkpt>
      <trkpt lat="45.55389" lon="1.81458">
        <ele>505.6</ele>
        <time>2022-08-04T08:31:49Z</time>
      </trkpt>
      <trkpt lat="45.55391" lon="1.81455">
        <ele>505.3</ele>
        <time>2022-08-04T08:31:51Z</time>
      </trkpt>
      <trkpt lat="45.55391" lon="1.81452">
        <ele>505.2</ele>
        <time>2022-08-04T08:31:53Z</time>
      </trkpt>
      <trkpt lat="45.55389" lon="1.81449">
        <ele>505.1</ele>
        <time>2022-08-04T08:31:55Z</time>
      </trkpt>
      <trkpt lat="45.55387" lon="1.81447">
        <ele>505</ele>
        <time>2022-08-04T08:31:57Z</time>
      </trkpt>
      <trkpt lat="45.55385" lon="1.81444">
        <ele>505</ele>
        <time>2022-08-04T08:31:59Z</time>
      </trkpt>
      <trkpt lat="45.55383" lon="1.81443">
        <ele>505</ele>
        <time>2022-08-04T08:32:01Z</time>
      </trkpt>
      <trkpt lat="45.55381" lon="1.81441">
        <ele>505</ele>
        <time>2022-08-04T08:32:03Z</time>
      </trkpt>
      <trkpt lat="45.55378" lon="1.8144">
        <ele>505</ele>
        <time>2022-08-04T08:32:05Z</time>
      </trkpt>
      <trkpt lat="45.55376" lon="1.81439">
        <ele>505.1</ele>
        <time>2022-08-04T08:32:07Z</time>
      </trkpt>
      <trkpt lat="45.55376" lon="1.81436">
        <ele>504.9</ele>
        <time>2022-08-04T08:32:09Z</time>
      </trkpt>
      <trkpt lat="45.55374" lon="1.81435">
        <ele>504.9</ele>
        <time>2022-08-04T08:32:11Z</time>
      </trkpt>
      <trkpt lat="45.55373" lon="1.81432">
        <ele>504.7</ele>
        <time>2022-08-04T08:32:13Z</time>
      </trkpt>
      <trkpt lat="45.55371" lon="1.81429">
        <ele>504.5</ele>
        <time>2022-08-04T08:32:15Z</time>
      </trkpt>
      <trkpt lat="45.55369" lon="1.81428">
        <ele>504.5</ele>
        <time>2022-08-04T08:32:17Z</time>
      </trkpt>
      <trkpt lat="45.55366" lon="1.81427">
        <ele>504.6</ele>
        <time>2022-08-04T08:32:19Z</time>
      </trkpt>
      <trkpt lat="45.55364" lon="1.81426">
        <ele>504.7</ele>
        <time>2022-08-04T08:32:21Z</time>
      </trkpt>
      <trkpt lat="45.55362" lon="1.81424">
        <ele>504.6</ele>
        <time>2022-08-04T08:32:23Z</time>
      </trkpt>
      <trkpt lat="45.55361" lon="1.8142">
        <ele>504.3</ele>
        <time>2022-08-04T08:32:25Z</time>
      </trkpt>
      <trkpt lat="45.5536" lon="1.81415">
        <ele>504.1</ele>
        <time>2022-08-04T08:32:27Z</time>
      </trkpt>
      <trkpt lat="45.55359" lon="1.81412">
        <ele>504.2</ele>
        <time>2022-08-04T08:32:29Z</time>
      </trkpt>
      <trkpt lat="45.55358" lon="1.81408">
        <ele>504.3</ele>
        <time>2022-08-04T08:32:31Z</time>
      </trkpt>
      <trkpt lat="45.55357" lon="1.81405">
        <ele>504.4</ele>
        <time>2022-08-04T08:32:33Z</time>
      </trkpt>
      <trkpt lat="45.55356" lon="1.81401">
        <ele>504.5</ele>
        <time>2022-08-04T08:32:35Z</time>
      </trkpt>
      <trkpt lat="45.55356" lon="1.81397">
        <ele>504.6</ele>
        <time>2022-08-04T08:32:37Z</time>
      </trkpt>
      <trkpt lat="45.55356" lon="1.81393">
        <ele>504.7</ele>
        <time>2022-08-04T08:32:39Z</time>
      </trkpt>
      <trkpt lat="45.55356" lon="1.81388">
        <ele>504.8</ele>
        <time>2022-08-04T08:32:41Z</time>
      </trkpt>
      <trkpt lat="45.55356" lon="1.81384">
        <ele>504.9</ele>
        <time>2022-08-04T08:32:43Z</time>
      </trkpt>
      <trkpt lat="45.55357" lon="1.81381">
        <ele>505</ele>
        <time>2022-08-04T08:32:45Z</time>
      </trkpt>
      <trkpt lat="45.55358" lon="1.81378">
        <ele>505.1</ele>
        <time>2022-08-04T08:32:47Z</time>
      </trkpt>
      <trkpt lat="45.55359" lon="1.81374">
        <ele>505.3</ele>
        <time>2022-08-04T08:32:49Z</time>
      </trkpt>
      <trkpt lat="45.5536" lon="1.81371">
        <ele>505.4</ele>
        <time>2022-08-04T08:32:51Z</time>
      </trkpt>
      <trkpt lat="45.55361" lon="1.81368">
        <ele>505.6</ele>
        <time>2022-08-04T08:32:53Z</time>
      </trkpt>
      <trkpt lat="45.55362" lon="1.81364">
        <ele>505.7</ele>
        <time>2022-08-04T08:32:55Z</time>
      </trkpt>
      <trkpt lat="45.55363" lon="1.8136">
        <ele>505.9</ele>
        <time>2022-08-04T08:32:57Z</time>
      </trkpt>
      <trkpt lat="45.55364" lon="1.81356">
        <ele>506.2</ele>
        <time>2022-08-04T08:32:59Z</time>
      </trkpt>
      <trkpt lat="45.55365" lon="1.81353">
        <ele>506.4</ele>
        <time>2022-08-04T08:33:01Z</time>
      </trkpt>
      <trkpt lat="45.55366" lon="1.81349">
        <ele>506.6</ele>
        <time>2022-08-04T08:33:03Z</time>
      </trkpt>
      <trkpt lat="45.55366" lon="1.81346">
        <ele>506.8</ele>
        <time>2022-08-04T08:33:05Z</time>
      </trkpt>
      <trkpt lat="45.55367" lon="1.81345">
        <ele>507</ele>
        <time>2022-08-04T08:33:07Z</time>
      </trkpt>
      <trkpt lat="45.55368" lon="1.81343">
        <ele>507.1</ele>
        <time>2022-08-04T08:33:09Z</time>
      </trkpt>
      <trkpt lat="45.55366" lon="1.81341">
        <ele>507</ele>
        <time>2022-08-04T08:33:11Z</time>
      </trkpt>
      <trkpt lat="45.55368" lon="1.81339">
        <ele>507.3</ele>
        <time>2022-08-04T08:33:13Z</time>
      </trkpt>
      <trkpt lat="45.55368" lon="1.81339">
        <ele>507.3</ele>
        <time>2022-08-04T08:33:15Z</time>
      </trkpt>
      <trkpt lat="45.55371" lon="1.8133">
        <ele>508.1</ele>
        <time>2022-08-04T08:33:43Z</time>
      </trkpt>
      <trkpt lat="45.55371" lon="1.81324">
        <ele>508.3</ele>
        <time>2022-08-04T08:33:45Z</time>
      </trkpt>
      <trkpt lat="45.55371" lon="1.8132">
        <ele>508.5</ele>
        <time>2022-08-04T08:33:47Z</time>
      </trkpt>
      <trkpt lat="45.55372" lon="1.81316">
        <ele>508.7</ele>
        <time>2022-08-04T08:33:49Z</time>
      </trkpt>
      <trkpt lat="45.55372" lon="1.81312">
        <ele>508.8</ele>
        <time>2022-08-04T08:33:51Z</time>
      </trkpt>
      <trkpt lat="45.55372" lon="1.81309">
        <ele>508.9</ele>
        <time>2022-08-04T08:33:53Z</time>
      </trkpt>
      <trkpt lat="45.55373" lon="1.81306">
        <ele>509.1</ele>
        <time>2022-08-04T08:33:55Z</time>
      </trkpt>
      <trkpt lat="45.55373" lon="1.81303">
        <ele>509.2</ele>
        <time>2022-08-04T08:33:57Z</time>
      </trkpt>
      <trkpt lat="45.55372" lon="1.81301">
        <ele>509.1</ele>
        <time>2022-08-04T08:33:59Z</time>
      </trkpt>
      <trkpt lat="45.55369" lon="1.81298">
        <ele>508.9</ele>
        <time>2022-08-04T08:34:01Z</time>
      </trkpt>
      <trkpt lat="45.5537" lon="1.813">
        <ele>508.9</ele>
        <time>2022-08-04T08:34:03Z</time>
      </trkpt>
      <trkpt lat="45.5537" lon="1.813">
        <ele>509</ele>
        <time>2022-08-04T08:34:05Z</time>
      </trkpt>
      <trkpt lat="45.5537" lon="1.813">
        <ele>509</ele>
        <time>2022-08-04T08:34:07Z</time>
      </trkpt>
      <trkpt lat="45.55373" lon="1.81286">
        <ele>509.7</ele>
        <time>2022-08-04T08:35:13Z</time>
      </trkpt>
      <trkpt lat="45.55376" lon="1.81281">
        <ele>510.1</ele>
        <time>2022-08-04T08:35:15Z</time>
      </trkpt>
      <trkpt lat="45.55377" lon="1.81277">
        <ele>510.3</ele>
        <time>2022-08-04T08:35:17Z</time>
      </trkpt>
      <trkpt lat="45.55377" lon="1.81271">
        <ele>510.6</ele>
        <time>2022-08-04T08:35:19Z</time>
      </trkpt>
      <trkpt lat="45.55376" lon="1.81264">
        <ele>510.6</ele>
        <time>2022-08-04T08:35:21Z</time>
      </trkpt>
      <trkpt lat="45.55374" lon="1.81256">
        <ele>510.8</ele>
        <time>2022-08-04T08:35:23Z</time>
      </trkpt>
      <trkpt lat="45.55373" lon="1.81247">
        <ele>511.1</ele>
        <time>2022-08-04T08:35:25Z</time>
      </trkpt>
      <trkpt lat="45.55371" lon="1.81238">
        <ele>511.5</ele>
        <time>2022-08-04T08:35:27Z</time>
      </trkpt>
      <trkpt lat="45.55368" lon="1.81228">
        <ele>512.1</ele>
        <time>2022-08-04T08:35:29Z</time>
      </trkpt>
      <trkpt lat="45.55364" lon="1.81218">
        <ele>512.7</ele>
        <time>2022-08-04T08:35:31Z</time>
      </trkpt>
      <trkpt lat="45.55359" lon="1.81211">
        <ele>513.1</ele>
        <time>2022-08-04T08:35:33Z</time>
      </trkpt>
      <trkpt lat="45.55352" lon="1.81205">
        <ele>513.5</ele>
        <time>2022-08-04T08:35:35Z</time>
      </trkpt>
      <trkpt lat="45.55346" lon="1.81202">
        <ele>513.8</ele>
        <time>2022-08-04T08:35:37Z</time>
      </trkpt>
      <trkpt lat="45.55341" lon="1.81198">
        <ele>514.2</ele>
        <time>2022-08-04T08:35:39Z</time>
      </trkpt>
      <trkpt lat="45.55334" lon="1.81195">
        <ele>514.6</ele>
        <time>2022-08-04T08:35:41Z</time>
      </trkpt>
      <trkpt lat="45.55327" lon="1.81193">
        <ele>514.5</ele>
        <time>2022-08-04T08:35:43Z</time>
      </trkpt>
      <trkpt lat="45.55319" lon="1.81192">
        <ele>514.2</ele>
        <time>2022-08-04T08:35:45Z</time>
      </trkpt>
      <trkpt lat="45.5531" lon="1.8119">
        <ele>514.1</ele>
        <time>2022-08-04T08:35:47Z</time>
      </trkpt>
      <trkpt lat="45.55302" lon="1.81188">
        <ele>513.8</ele>
        <time>2022-08-04T08:35:49Z</time>
      </trkpt>
      <trkpt lat="45.55294" lon="1.81188">
        <ele>513.5</ele>
        <time>2022-08-04T08:35:51Z</time>
      </trkpt>
      <trkpt lat="45.55285" lon="1.81189">
        <ele>512.9</ele>
        <time>2022-08-04T08:35:53Z</time>
      </trkpt>
      <trkpt lat="45.55277" lon="1.8119">
        <ele>512.4</ele>
        <time>2022-08-04T08:35:55Z</time>
      </trkpt>
      <trkpt lat="45.55268" lon="1.81193">
        <ele>511.7</ele>
        <time>2022-08-04T08:35:57Z</time>
      </trkpt>
      <trkpt lat="45.55261" lon="1.81194">
        <ele>511.2</ele>
        <time>2022-08-04T08:35:59Z</time>
      </trkpt>
      <trkpt lat="45.55252" lon="1.81195">
        <ele>510.7</ele>
        <time>2022-08-04T08:36:01Z</time>
      </trkpt>
      <trkpt lat="45.55244" lon="1.81197">
        <ele>510</ele>
        <time>2022-08-04T08:36:03Z</time>
      </trkpt>
      <trkpt lat="45.55236" lon="1.81199">
        <ele>509.4</ele>
        <time>2022-08-04T08:36:05Z</time>
      </trkpt>
      <trkpt lat="45.55228" lon="1.81199">
        <ele>508.8</ele>
        <time>2022-08-04T08:36:07Z</time>
      </trkpt>
      <trkpt lat="45.55219" lon="1.81197">
        <ele>508.3</ele>
        <time>2022-08-04T08:36:09Z</time>
      </trkpt>
      <trkpt lat="45.55212" lon="1.81192">
        <ele>508</ele>
        <time>2022-08-04T08:36:11Z</time>
      </trkpt>
      <trkpt lat="45.55206" lon="1.81182">
        <ele>507.8</ele>
        <time>2022-08-04T08:36:13Z</time>
      </trkpt>
      <trkpt lat="45.55202" lon="1.81172">
        <ele>507.7</ele>
        <time>2022-08-04T08:36:15Z</time>
      </trkpt>
      <trkpt lat="45.552" lon="1.8116">
        <ele>507.4</ele>
        <time>2022-08-04T08:36:17Z</time>
      </trkpt>
      <trkpt lat="45.552" lon="1.81149">
        <ele>507</ele>
        <time>2022-08-04T08:36:19Z</time>
      </trkpt>
      <trkpt lat="45.55202" lon="1.81139">
        <ele>506.9</ele>
        <time>2022-08-04T08:36:21Z</time>
      </trkpt>
      <trkpt lat="45.55206" lon="1.81128">
        <ele>506.9</ele>
        <time>2022-08-04T08:36:23Z</time>
      </trkpt>
      <trkpt lat="45.5521" lon="1.81115">
        <ele>506.8</ele>
        <time>2022-08-04T08:36:25Z</time>
      </trkpt>
      <trkpt lat="45.55212" lon="1.81103">
        <ele>506.5</ele>
        <time>2022-08-04T08:36:27Z</time>
      </trkpt>
      <trkpt lat="45.55216" lon="1.81092">
        <ele>506.5</ele>
        <time>2022-08-04T08:36:29Z</time>
      </trkpt>
      <trkpt lat="45.55218" lon="1.8108">
        <ele>506.2</ele>
        <time>2022-08-04T08:36:31Z</time>
      </trkpt>
      <trkpt lat="45.55221" lon="1.81068">
        <ele>506</ele>
        <time>2022-08-04T08:36:33Z</time>
      </trkpt>
      <trkpt lat="45.55224" lon="1.81055">
        <ele>505.8</ele>
        <time>2022-08-04T08:36:35Z</time>
      </trkpt>
      <trkpt lat="45.55227" lon="1.81043">
        <ele>505.6</ele>
        <time>2022-08-04T08:36:37Z</time>
      </trkpt>
      <trkpt lat="45.5523" lon="1.81031">
        <ele>505.5</ele>
        <time>2022-08-04T08:36:39Z</time>
      </trkpt>
      <trkpt lat="45.55233" lon="1.81018">
        <ele>505.2</ele>
        <time>2022-08-04T08:36:41Z</time>
      </trkpt>
      <trkpt lat="45.55236" lon="1.81005">
        <ele>505</ele>
        <time>2022-08-04T08:36:43Z</time>
      </trkpt>
      <trkpt lat="45.5524" lon="1.80991">
        <ele>505</ele>
        <time>2022-08-04T08:36:45Z</time>
      </trkpt>
      <trkpt lat="45.55244" lon="1.8098">
        <ele>505.2</ele>
        <time>2022-08-04T08:36:47Z</time>
      </trkpt>
      <trkpt lat="45.55248" lon="1.80964">
        <ele>505.3</ele>
        <time>2022-08-04T08:36:49Z</time>
      </trkpt>
      <trkpt lat="45.55251" lon="1.8095">
        <ele>505.6</ele>
        <time>2022-08-04T08:36:51Z</time>
      </trkpt>
      <trkpt lat="45.55255" lon="1.80937">
        <ele>506.4</ele>
        <time>2022-08-04T08:36:53Z</time>
      </trkpt>
      <trkpt lat="45.55257" lon="1.80924">
        <ele>506.8</ele>
        <time>2022-08-04T08:36:55Z</time>
      </trkpt>
      <trkpt lat="45.55259" lon="1.80916">
        <ele>507.7</ele>
        <time>2022-08-04T08:36:57Z</time>
      </trkpt>
      <trkpt lat="45.55263" lon="1.80907">
        <ele>509.9</ele>
        <time>2022-08-04T08:36:59Z</time>
      </trkpt>
      <trkpt lat="45.55264" lon="1.809">
        <ele>511.3</ele>
        <time>2022-08-04T08:37:01Z</time>
      </trkpt>
      <trkpt lat="45.55266" lon="1.80895">
        <ele>512.4</ele>
        <time>2022-08-04T08:37:03Z</time>
      </trkpt>
      <trkpt lat="45.55267" lon="1.8089">
        <ele>513.6</ele>
        <time>2022-08-04T08:37:05Z</time>
      </trkpt>
      <trkpt lat="45.55268" lon="1.80886">
        <ele>514.4</ele>
        <time>2022-08-04T08:37:07Z</time>
      </trkpt>
      <trkpt lat="45.5527" lon="1.8088">
        <ele>515.7</ele>
        <time>2022-08-04T08:37:09Z</time>
      </trkpt>
      <trkpt lat="45.55271" lon="1.80875">
        <ele>516.7</ele>
        <time>2022-08-04T08:37:11Z</time>
      </trkpt>
      <trkpt lat="45.55272" lon="1.80871">
        <ele>517.5</ele>
        <time>2022-08-04T08:37:13Z</time>
      </trkpt>
      <trkpt lat="45.55273" lon="1.80869">
        <ele>518.2</ele>
        <time>2022-08-04T08:37:15Z</time>
      </trkpt>
      <trkpt lat="45.55273" lon="1.80865">
        <ele>518.7</ele>
        <time>2022-08-04T08:37:17Z</time>
      </trkpt>
      <trkpt lat="45.55274" lon="1.80861">
        <ele>519.6</ele>
        <time>2022-08-04T08:37:19Z</time>
      </trkpt>
      <trkpt lat="45.55273" lon="1.80852">
        <ele>520.9</ele>
        <time>2022-08-04T08:37:21Z</time>
      </trkpt>
      <trkpt lat="45.55271" lon="1.8084">
        <ele>521.8</ele>
        <time>2022-08-04T08:37:23Z</time>
      </trkpt>
      <trkpt lat="45.55267" lon="1.80831">
        <ele>521.9</ele>
        <time>2022-08-04T08:37:25Z</time>
      </trkpt>
      <trkpt lat="45.55259" lon="1.80815">
        <ele>522.4</ele>
        <time>2022-08-04T08:37:27Z</time>
      </trkpt>
      <trkpt lat="45.55249" lon="1.80802">
        <ele>522</ele>
        <time>2022-08-04T08:37:29Z</time>
      </trkpt>
      <trkpt lat="45.55238" lon="1.80789">
        <ele>521.4</ele>
        <time>2022-08-04T08:37:31Z</time>
      </trkpt>
      <trkpt lat="45.55224" lon="1.80777">
        <ele>519.2</ele>
        <time>2022-08-04T08:37:33Z</time>
      </trkpt>
      <trkpt lat="45.55204" lon="1.80769">
        <ele>514.5</ele>
        <time>2022-08-04T08:37:35Z</time>
      </trkpt>
      <trkpt lat="45.55192" lon="1.80757">
        <ele>512.5</ele>
        <time>2022-08-04T08:37:37Z</time>
      </trkpt>
      <trkpt lat="45.55178" lon="1.80744">
        <ele>510.1</ele>
        <time>2022-08-04T08:37:39Z</time>
      </trkpt>
      <trkpt lat="45.55163" lon="1.80734">
        <ele>508</ele>
        <time>2022-08-04T08:37:41Z</time>
      </trkpt>
      <trkpt lat="45.55148" lon="1.80723">
        <ele>508</ele>
        <time>2022-08-04T08:37:43Z</time>
      </trkpt>
      <trkpt lat="45.55134" lon="1.80714">
        <ele>507.4</ele>
        <time>2022-08-04T08:37:45Z</time>
      </trkpt>
      <trkpt lat="45.55121" lon="1.80702">
        <ele>507.5</ele>
        <time>2022-08-04T08:37:47Z</time>
      </trkpt>
      <trkpt lat="45.55107" lon="1.80691">
        <ele>507.2</ele>
        <time>2022-08-04T08:37:49Z</time>
      </trkpt>
      <trkpt lat="45.55094" lon="1.80679">
        <ele>506.9</ele>
        <time>2022-08-04T08:37:51Z</time>
      </trkpt>
      <trkpt lat="45.55081" lon="1.80668">
        <ele>506.4</ele>
        <time>2022-08-04T08:37:53Z</time>
      </trkpt>
      <trkpt lat="45.55069" lon="1.80659">
        <ele>505.9</ele>
        <time>2022-08-04T08:37:55Z</time>
      </trkpt>
      <trkpt lat="45.55057" lon="1.8065">
        <ele>505.5</ele>
        <time>2022-08-04T08:37:57Z</time>
      </trkpt>
      <trkpt lat="45.55047" lon="1.80645">
        <ele>504.9</ele>
        <time>2022-08-04T08:37:59Z</time>
      </trkpt>
      <trkpt lat="45.55038" lon="1.80637">
        <ele>504.8</ele>
        <time>2022-08-04T08:38:01Z</time>
      </trkpt>
      <trkpt lat="45.55029" lon="1.8063">
        <ele>504.8</ele>
        <time>2022-08-04T08:38:03Z</time>
      </trkpt>
      <trkpt lat="45.5502" lon="1.80624">
        <ele>504.7</ele>
        <time>2022-08-04T08:38:05Z</time>
      </trkpt>
      <trkpt lat="45.55014" lon="1.80619">
        <ele>504.9</ele>
        <time>2022-08-04T08:38:07Z</time>
      </trkpt>
      <trkpt lat="45.55008" lon="1.80614">
        <ele>505</ele>
        <time>2022-08-04T08:38:09Z</time>
      </trkpt>
      <trkpt lat="45.55002" lon="1.80609">
        <ele>505.2</ele>
        <time>2022-08-04T08:38:11Z</time>
      </trkpt>
      <trkpt lat="45.54997" lon="1.80604">
        <ele>506</ele>
        <time>2022-08-04T08:38:13Z</time>
      </trkpt>
      <trkpt lat="45.54991" lon="1.80599">
        <ele>507.1</ele>
        <time>2022-08-04T08:38:15Z</time>
      </trkpt>
      <trkpt lat="45.54986" lon="1.80594">
        <ele>508</ele>
        <time>2022-08-04T08:38:17Z</time>
      </trkpt>
      <trkpt lat="45.54981" lon="1.80588">
        <ele>509</ele>
        <time>2022-08-04T08:38:19Z</time>
      </trkpt>
      <trkpt lat="45.54976" lon="1.80583">
        <ele>509.9</ele>
        <time>2022-08-04T08:38:21Z</time>
      </trkpt>
      <trkpt lat="45.54971" lon="1.80577">
        <ele>510.8</ele>
        <time>2022-08-04T08:38:23Z</time>
      </trkpt>
      <trkpt lat="45.54967" lon="1.8057">
        <ele>511.7</ele>
        <time>2022-08-04T08:38:25Z</time>
      </trkpt>
      <trkpt lat="45.54964" lon="1.80568">
        <ele>512</ele>
        <time>2022-08-04T08:38:27Z</time>
      </trkpt>
      <trkpt lat="45.54961" lon="1.80564">
        <ele>512.5</ele>
        <time>2022-08-04T08:38:29Z</time>
      </trkpt>
      <trkpt lat="45.54957" lon="1.80559">
        <ele>513.1</ele>
        <time>2022-08-04T08:38:31Z</time>
      </trkpt>
      <trkpt lat="45.54951" lon="1.8055">
        <ele>514.2</ele>
        <time>2022-08-04T08:38:33Z</time>
      </trkpt>
      <trkpt lat="45.54947" lon="1.80546">
        <ele>514.7</ele>
        <time>2022-08-04T08:38:35Z</time>
      </trkpt>
      <trkpt lat="45.54942" lon="1.8054">
        <ele>515.4</ele>
        <time>2022-08-04T08:38:37Z</time>
      </trkpt>
      <trkpt lat="45.54937" lon="1.80534">
        <ele>516</ele>
        <time>2022-08-04T08:38:39Z</time>
      </trkpt>
      <trkpt lat="45.54932" lon="1.80531">
        <ele>516.3</ele>
        <time>2022-08-04T08:38:41Z</time>
      </trkpt>
      <trkpt lat="45.54926" lon="1.80526">
        <ele>516.8</ele>
        <time>2022-08-04T08:38:43Z</time>
      </trkpt>
      <trkpt lat="45.54922" lon="1.8052">
        <ele>517.3</ele>
        <time>2022-08-04T08:38:45Z</time>
      </trkpt>
      <trkpt lat="45.54918" lon="1.80513">
        <ele>517.9</ele>
        <time>2022-08-04T08:38:47Z</time>
      </trkpt>
      <trkpt lat="45.54912" lon="1.80508">
        <ele>518.2</ele>
        <time>2022-08-04T08:38:49Z</time>
      </trkpt>
      <trkpt lat="45.54907" lon="1.80502">
        <ele>518.5</ele>
        <time>2022-08-04T08:38:51Z</time>
      </trkpt>
      <trkpt lat="45.54902" lon="1.80493">
        <ele>518.3</ele>
        <time>2022-08-04T08:38:53Z</time>
      </trkpt>
      <trkpt lat="45.54897" lon="1.80483">
        <ele>517.9</ele>
        <time>2022-08-04T08:38:55Z</time>
      </trkpt>
      <trkpt lat="45.54891" lon="1.80473">
        <ele>517.4</ele>
        <time>2022-08-04T08:38:57Z</time>
      </trkpt>
      <trkpt lat="45.54887" lon="1.80461">
        <ele>516.8</ele>
        <time>2022-08-04T08:38:59Z</time>
      </trkpt>
      <trkpt lat="45.5488" lon="1.80449">
        <ele>516</ele>
        <time>2022-08-04T08:39:01Z</time>
      </trkpt>
      <trkpt lat="45.54875" lon="1.80435">
        <ele>515.1</ele>
        <time>2022-08-04T08:39:03Z</time>
      </trkpt>
      <trkpt lat="45.54866" lon="1.80422">
        <ele>514</ele>
        <time>2022-08-04T08:39:05Z</time>
      </trkpt>
      <trkpt lat="45.54858" lon="1.80406">
        <ele>513.3</ele>
        <time>2022-08-04T08:39:07Z</time>
      </trkpt>
      <trkpt lat="45.54849" lon="1.80389">
        <ele>512.9</ele>
        <time>2022-08-04T08:39:09Z</time>
      </trkpt>
      <trkpt lat="45.54838" lon="1.80373">
        <ele>512.4</ele>
        <time>2022-08-04T08:39:11Z</time>
      </trkpt>
      <trkpt lat="45.54827" lon="1.80356">
        <ele>511.7</ele>
        <time>2022-08-04T08:39:13Z</time>
      </trkpt>
      <trkpt lat="45.54815" lon="1.80341">
        <ele>510.6</ele>
        <time>2022-08-04T08:39:15Z</time>
      </trkpt>
      <trkpt lat="45.54801" lon="1.80325">
        <ele>508.9</ele>
        <time>2022-08-04T08:39:17Z</time>
      </trkpt>
      <trkpt lat="45.54789" lon="1.8031">
        <ele>506.7</ele>
        <time>2022-08-04T08:39:19Z</time>
      </trkpt>
      <trkpt lat="45.54776" lon="1.80297">
        <ele>504</ele>
        <time>2022-08-04T08:39:21Z</time>
      </trkpt>
      <trkpt lat="45.54762" lon="1.80281">
        <ele>500.7</ele>
        <time>2022-08-04T08:39:23Z</time>
      </trkpt>
      <trkpt lat="45.54749" lon="1.80263">
        <ele>496.9</ele>
        <time>2022-08-04T08:39:25Z</time>
      </trkpt>
      <trkpt lat="45.54734" lon="1.80245">
        <ele>493</ele>
        <time>2022-08-04T08:39:27Z</time>
      </trkpt>
      <trkpt lat="45.54719" lon="1.80228">
        <ele>489.9</ele>
        <time>2022-08-04T08:39:29Z</time>
      </trkpt>
      <trkpt lat="45.54704" lon="1.80209">
        <ele>487.2</ele>
        <time>2022-08-04T08:39:31Z</time>
      </trkpt>
      <trkpt lat="45.54689" lon="1.80191">
        <ele>485.2</ele>
        <time>2022-08-04T08:39:33Z</time>
      </trkpt>
      <trkpt lat="45.54674" lon="1.80173">
        <ele>483.6</ele>
        <time>2022-08-04T08:39:35Z</time>
      </trkpt>
      <trkpt lat="45.54659" lon="1.80154">
        <ele>482.3</ele>
        <time>2022-08-04T08:39:37Z</time>
      </trkpt>
      <trkpt lat="45.54644" lon="1.80135">
        <ele>481.2</ele>
        <time>2022-08-04T08:39:39Z</time>
      </trkpt>
      <trkpt lat="45.54629" lon="1.80117">
        <ele>480.6</ele>
        <time>2022-08-04T08:39:41Z</time>
      </trkpt>
      <trkpt lat="45.54616" lon="1.80101">
        <ele>480.4</ele>
        <time>2022-08-04T08:39:43Z</time>
      </trkpt>
      <trkpt lat="45.54603" lon="1.80085">
        <ele>480.4</ele>
        <time>2022-08-04T08:39:45Z</time>
      </trkpt>
      <trkpt lat="45.54593" lon="1.80072">
        <ele>480.1</ele>
        <time>2022-08-04T08:39:47Z</time>
      </trkpt>
      <trkpt lat="45.54584" lon="1.80057">
        <ele>479.7</ele>
        <time>2022-08-04T08:39:49Z</time>
      </trkpt>
      <trkpt lat="45.5458" lon="1.80039">
        <ele>479.3</ele>
        <time>2022-08-04T08:39:51Z</time>
      </trkpt>
      <trkpt lat="45.54581" lon="1.80021">
        <ele>479.1</ele>
        <time>2022-08-04T08:39:53Z</time>
      </trkpt>
      <trkpt lat="45.54576" lon="1.80008">
        <ele>478.8</ele>
        <time>2022-08-04T08:39:55Z</time>
      </trkpt>
      <trkpt lat="45.54566" lon="1.80001">
        <ele>478.4</ele>
        <time>2022-08-04T08:39:57Z</time>
      </trkpt>
      <trkpt lat="45.54555" lon="1.80006">
        <ele>477.9</ele>
        <time>2022-08-04T08:39:59Z</time>
      </trkpt>
      <trkpt lat="45.54544" lon="1.8001">
        <ele>477.4</ele>
        <time>2022-08-04T08:40:01Z</time>
      </trkpt>
      <trkpt lat="45.54532" lon="1.80002">
        <ele>477.1</ele>
        <time>2022-08-04T08:40:03Z</time>
      </trkpt>
      <trkpt lat="45.54523" lon="1.79991">
        <ele>477.1</ele>
        <time>2022-08-04T08:40:05Z</time>
      </trkpt>
      <trkpt lat="45.54514" lon="1.79981">
        <ele>477.1</ele>
        <time>2022-08-04T08:40:07Z</time>
      </trkpt>
      <trkpt lat="45.54505" lon="1.79971">
        <ele>477.2</ele>
        <time>2022-08-04T08:40:09Z</time>
      </trkpt>
      <trkpt lat="45.54495" lon="1.79961">
        <ele>477.2</ele>
        <time>2022-08-04T08:40:11Z</time>
      </trkpt>
      <trkpt lat="45.54486" lon="1.79951">
        <ele>477.1</ele>
        <time>2022-08-04T08:40:13Z</time>
      </trkpt>
      <trkpt lat="45.54477" lon="1.79941">
        <ele>477.1</ele>
        <time>2022-08-04T08:40:15Z</time>
      </trkpt>
      <trkpt lat="45.54468" lon="1.79931">
        <ele>477.2</ele>
        <time>2022-08-04T08:40:17Z</time>
      </trkpt>
      <trkpt lat="45.54459" lon="1.7992">
        <ele>477.4</ele>
        <time>2022-08-04T08:40:19Z</time>
      </trkpt>
      <trkpt lat="45.5445" lon="1.79909">
        <ele>478</ele>
        <time>2022-08-04T08:40:21Z</time>
      </trkpt>
      <trkpt lat="45.54441" lon="1.79899">
        <ele>478.6</ele>
        <time>2022-08-04T08:40:23Z</time>
      </trkpt>
      <trkpt lat="45.54433" lon="1.79889">
        <ele>479.1</ele>
        <time>2022-08-04T08:40:25Z</time>
      </trkpt>
      <trkpt lat="45.54425" lon="1.79878">
        <ele>479.7</ele>
        <time>2022-08-04T08:40:27Z</time>
      </trkpt>
      <trkpt lat="45.54418" lon="1.79868">
        <ele>480.2</ele>
        <time>2022-08-04T08:40:29Z</time>
      </trkpt>
      <trkpt lat="45.5441" lon="1.7986">
        <ele>480.3</ele>
        <time>2022-08-04T08:40:31Z</time>
      </trkpt>
      <trkpt lat="45.54402" lon="1.79851">
        <ele>480.4</ele>
        <time>2022-08-04T08:40:33Z</time>
      </trkpt>
      <trkpt lat="45.54394" lon="1.79842">
        <ele>480.4</ele>
        <time>2022-08-04T08:40:35Z</time>
      </trkpt>
      <trkpt lat="45.54386" lon="1.79834">
        <ele>480.4</ele>
        <time>2022-08-04T08:40:37Z</time>
      </trkpt>
      <trkpt lat="45.54377" lon="1.79826">
        <ele>480.1</ele>
        <time>2022-08-04T08:40:39Z</time>
      </trkpt>
      <trkpt lat="45.54367" lon="1.7982">
        <ele>479.7</ele>
        <time>2022-08-04T08:40:41Z</time>
      </trkpt>
      <trkpt lat="45.54357" lon="1.79816">
        <ele>479.1</ele>
        <time>2022-08-04T08:40:43Z</time>
      </trkpt>
      <trkpt lat="45.54346" lon="1.79816">
        <ele>478.3</ele>
        <time>2022-08-04T08:40:45Z</time>
      </trkpt>
      <trkpt lat="45.54335" lon="1.79817">
        <ele>477.3</ele>
        <time>2022-08-04T08:40:47Z</time>
      </trkpt>
      <trkpt lat="45.54324" lon="1.79819">
        <ele>477.6</ele>
        <time>2022-08-04T08:40:49Z</time>
      </trkpt>
      <trkpt lat="45.54313" lon="1.79822">
        <ele>477.9</ele>
        <time>2022-08-04T08:40:51Z</time>
      </trkpt>
      <trkpt lat="45.54303" lon="1.79827">
        <ele>478.2</ele>
        <time>2022-08-04T08:40:53Z</time>
      </trkpt>
      <trkpt lat="45.54294" lon="1.79834">
        <ele>478.3</ele>
        <time>2022-08-04T08:40:55Z</time>
      </trkpt>
      <trkpt lat="45.54286" lon="1.79842">
        <ele>478.4</ele>
        <time>2022-08-04T08:40:57Z</time>
      </trkpt>
      <trkpt lat="45.54278" lon="1.79852">
        <ele>478.5</ele>
        <time>2022-08-04T08:40:59Z</time>
      </trkpt>
      <trkpt lat="45.5427" lon="1.79863">
        <ele>478.4</ele>
        <time>2022-08-04T08:41:01Z</time>
      </trkpt>
      <trkpt lat="45.54263" lon="1.79875">
        <ele>478.3</ele>
        <time>2022-08-04T08:41:03Z</time>
      </trkpt>
      <trkpt lat="45.54254" lon="1.79887">
        <ele>478.2</ele>
        <time>2022-08-04T08:41:05Z</time>
      </trkpt>
      <trkpt lat="45.54246" lon="1.79899">
        <ele>478.4</ele>
        <time>2022-08-04T08:41:07Z</time>
      </trkpt>
      <trkpt lat="45.54239" lon="1.79911">
        <ele>479</ele>
        <time>2022-08-04T08:41:09Z</time>
      </trkpt>
      <trkpt lat="45.5423" lon="1.79923">
        <ele>479.9</ele>
        <time>2022-08-04T08:41:11Z</time>
      </trkpt>
      <trkpt lat="45.54222" lon="1.79935">
        <ele>480.8</ele>
        <time>2022-08-04T08:41:13Z</time>
      </trkpt>
      <trkpt lat="45.54214" lon="1.79947">
        <ele>481.7</ele>
        <time>2022-08-04T08:41:15Z</time>
      </trkpt>
      <trkpt lat="45.54205" lon="1.79959">
        <ele>482.7</ele>
        <time>2022-08-04T08:41:17Z</time>
      </trkpt>
      <trkpt lat="45.54197" lon="1.79972">
        <ele>483.7</ele>
        <time>2022-08-04T08:41:19Z</time>
      </trkpt>
      <trkpt lat="45.54189" lon="1.79984">
        <ele>484.7</ele>
        <time>2022-08-04T08:41:21Z</time>
      </trkpt>
      <trkpt lat="45.54181" lon="1.79995">
        <ele>485.6</ele>
        <time>2022-08-04T08:41:23Z</time>
      </trkpt>
      <trkpt lat="45.54174" lon="1.80005">
        <ele>486.5</ele>
        <time>2022-08-04T08:41:25Z</time>
      </trkpt>
      <trkpt lat="45.54167" lon="1.80015">
        <ele>487.2</ele>
        <time>2022-08-04T08:41:27Z</time>
      </trkpt>
      <trkpt lat="45.5416" lon="1.80025">
        <ele>487.5</ele>
        <time>2022-08-04T08:41:29Z</time>
      </trkpt>
      <trkpt lat="45.54153" lon="1.80033">
        <ele>487.6</ele>
        <time>2022-08-04T08:41:31Z</time>
      </trkpt>
      <trkpt lat="45.54147" lon="1.80042">
        <ele>487.5</ele>
        <time>2022-08-04T08:41:33Z</time>
      </trkpt>
      <trkpt lat="45.54139" lon="1.80051">
        <ele>487.2</ele>
        <time>2022-08-04T08:41:35Z</time>
      </trkpt>
      <trkpt lat="45.54131" lon="1.80058">
        <ele>486.9</ele>
        <time>2022-08-04T08:41:37Z</time>
      </trkpt>
      <trkpt lat="45.54122" lon="1.80065">
        <ele>486.4</ele>
        <time>2022-08-04T08:41:39Z</time>
      </trkpt>
      <trkpt lat="45.54112" lon="1.8007">
        <ele>486</ele>
        <time>2022-08-04T08:41:41Z</time>
      </trkpt>
      <trkpt lat="45.54102" lon="1.80074">
        <ele>485.6</ele>
        <time>2022-08-04T08:41:43Z</time>
      </trkpt>
      <trkpt lat="45.54091" lon="1.80077">
        <ele>485.2</ele>
        <time>2022-08-04T08:41:45Z</time>
      </trkpt>
      <trkpt lat="45.54078" lon="1.80079">
        <ele>484.2</ele>
        <time>2022-08-04T08:41:47Z</time>
      </trkpt>
      <trkpt lat="45.54065" lon="1.8008">
        <ele>482.4</ele>
        <time>2022-08-04T08:41:49Z</time>
      </trkpt>
      <trkpt lat="45.54051" lon="1.80075">
        <ele>481.5</ele>
        <time>2022-08-04T08:41:51Z</time>
      </trkpt>
      <trkpt lat="45.54037" lon="1.80069">
        <ele>481.3</ele>
        <time>2022-08-04T08:41:53Z</time>
      </trkpt>
      <trkpt lat="45.54023" lon="1.80062">
        <ele>481.4</ele>
        <time>2022-08-04T08:41:55Z</time>
      </trkpt>
      <trkpt lat="45.54009" lon="1.80055">
        <ele>481.4</ele>
        <time>2022-08-04T08:41:57Z</time>
      </trkpt>
      <trkpt lat="45.53996" lon="1.80048">
        <ele>482.5</ele>
        <time>2022-08-04T08:41:59Z</time>
      </trkpt>
      <trkpt lat="45.53983" lon="1.80042">
        <ele>484.5</ele>
        <time>2022-08-04T08:42:01Z</time>
      </trkpt>
      <trkpt lat="45.5397" lon="1.80039">
        <ele>485.8</ele>
        <time>2022-08-04T08:42:03Z</time>
      </trkpt>
      <trkpt lat="45.53958" lon="1.80037">
        <ele>486.7</ele>
        <time>2022-08-04T08:42:05Z</time>
      </trkpt>
      <trkpt lat="45.53946" lon="1.80039">
        <ele>486.7</ele>
        <time>2022-08-04T08:42:07Z</time>
      </trkpt>
      <trkpt lat="45.53935" lon="1.80041">
        <ele>486.4</ele>
        <time>2022-08-04T08:42:09Z</time>
      </trkpt>
      <trkpt lat="45.53923" lon="1.80044">
        <ele>486.1</ele>
        <time>2022-08-04T08:42:11Z</time>
      </trkpt>
      <trkpt lat="45.5391" lon="1.8005">
        <ele>485.4</ele>
        <time>2022-08-04T08:42:13Z</time>
      </trkpt>
      <trkpt lat="45.539" lon="1.80053">
        <ele>485.4</ele>
        <time>2022-08-04T08:42:15Z</time>
      </trkpt>
      <trkpt lat="45.53889" lon="1.80058">
        <ele>485.3</ele>
        <time>2022-08-04T08:42:17Z</time>
      </trkpt>
      <trkpt lat="45.53878" lon="1.80064">
        <ele>485.2</ele>
        <time>2022-08-04T08:42:19Z</time>
      </trkpt>
      <trkpt lat="45.53868" lon="1.80068">
        <ele>485.6</ele>
        <time>2022-08-04T08:42:21Z</time>
      </trkpt>
      <trkpt lat="45.53858" lon="1.80078">
        <ele>485.3</ele>
        <time>2022-08-04T08:42:23Z</time>
      </trkpt>
      <trkpt lat="45.5385" lon="1.80089">
        <ele>484.9</ele>
        <time>2022-08-04T08:42:25Z</time>
      </trkpt>
      <trkpt lat="45.53841" lon="1.80102">
        <ele>483.7</ele>
        <time>2022-08-04T08:42:27Z</time>
      </trkpt>
      <trkpt lat="45.53832" lon="1.80114">
        <ele>482.4</ele>
        <time>2022-08-04T08:42:29Z</time>
      </trkpt>
      <trkpt lat="45.53822" lon="1.80121">
        <ele>480.2</ele>
        <time>2022-08-04T08:42:31Z</time>
      </trkpt>
      <trkpt lat="45.53812" lon="1.80129">
        <ele>478</ele>
        <time>2022-08-04T08:42:33Z</time>
      </trkpt>
      <trkpt lat="45.53802" lon="1.80136">
        <ele>476.1</ele>
        <time>2022-08-04T08:42:35Z</time>
      </trkpt>
      <trkpt lat="45.53792" lon="1.80141">
        <ele>474.6</ele>
        <time>2022-08-04T08:42:37Z</time>
      </trkpt>
      <trkpt lat="45.53781" lon="1.80147">
        <ele>473.2</ele>
        <time>2022-08-04T08:42:39Z</time>
      </trkpt>
      <trkpt lat="45.53772" lon="1.80153">
        <ele>471.7</ele>
        <time>2022-08-04T08:42:41Z</time>
      </trkpt>
      <trkpt lat="45.53762" lon="1.80159">
        <ele>470.4</ele>
        <time>2022-08-04T08:42:43Z</time>
      </trkpt>
      <trkpt lat="45.53753" lon="1.80166">
        <ele>469.2</ele>
        <time>2022-08-04T08:42:45Z</time>
      </trkpt>
      <trkpt lat="45.53743" lon="1.80172">
        <ele>469.8</ele>
        <time>2022-08-04T08:42:47Z</time>
      </trkpt>
      <trkpt lat="45.53734" lon="1.80177">
        <ele>470.9</ele>
        <time>2022-08-04T08:42:49Z</time>
      </trkpt>
      <trkpt lat="45.53725" lon="1.80182">
        <ele>472</ele>
        <time>2022-08-04T08:42:51Z</time>
      </trkpt>
      <trkpt lat="45.53715" lon="1.80186">
        <ele>473.1</ele>
        <time>2022-08-04T08:42:53Z</time>
      </trkpt>
      <trkpt lat="45.53706" lon="1.80187">
        <ele>474.1</ele>
        <time>2022-08-04T08:42:55Z</time>
      </trkpt>
      <trkpt lat="45.53697" lon="1.80185">
        <ele>474.7</ele>
        <time>2022-08-04T08:42:57Z</time>
      </trkpt>
      <trkpt lat="45.53688" lon="1.80181">
        <ele>475</ele>
        <time>2022-08-04T08:42:59Z</time>
      </trkpt>
      <trkpt lat="45.53679" lon="1.80176">
        <ele>475.1</ele>
        <time>2022-08-04T08:43:01Z</time>
      </trkpt>
      <trkpt lat="45.53672" lon="1.80169">
        <ele>474.9</ele>
        <time>2022-08-04T08:43:03Z</time>
      </trkpt>
      <trkpt lat="45.53666" lon="1.80161">
        <ele>474.7</ele>
        <time>2022-08-04T08:43:05Z</time>
      </trkpt>
      <trkpt lat="45.53661" lon="1.80153">
        <ele>475</ele>
        <time>2022-08-04T08:43:07Z</time>
      </trkpt>
      <trkpt lat="45.53656" lon="1.80144">
        <ele>475.1</ele>
        <time>2022-08-04T08:43:09Z</time>
      </trkpt>
      <trkpt lat="45.53652" lon="1.80134">
        <ele>475</ele>
        <time>2022-08-04T08:43:11Z</time>
      </trkpt>
      <trkpt lat="45.53649" lon="1.80125">
        <ele>474.8</ele>
        <time>2022-08-04T08:43:13Z</time>
      </trkpt>
      <trkpt lat="45.53647" lon="1.80116">
        <ele>474.5</ele>
        <time>2022-08-04T08:43:15Z</time>
      </trkpt>
      <trkpt lat="45.53645" lon="1.80106">
        <ele>474.2</ele>
        <time>2022-08-04T08:43:17Z</time>
      </trkpt>
      <trkpt lat="45.53643" lon="1.80096">
        <ele>473.7</ele>
        <time>2022-08-04T08:43:19Z</time>
      </trkpt>
      <trkpt lat="45.53641" lon="1.80085">
        <ele>473.1</ele>
        <time>2022-08-04T08:43:21Z</time>
      </trkpt>
      <trkpt lat="45.53642" lon="1.80075">
        <ele>474.1</ele>
        <time>2022-08-04T08:43:23Z</time>
      </trkpt>
      <trkpt lat="45.53642" lon="1.80064">
        <ele>475.4</ele>
        <time>2022-08-04T08:43:25Z</time>
      </trkpt>
      <trkpt lat="45.53642" lon="1.80054">
        <ele>476.5</ele>
        <time>2022-08-04T08:43:27Z</time>
      </trkpt>
      <trkpt lat="45.53644" lon="1.80045">
        <ele>477.4</ele>
        <time>2022-08-04T08:43:29Z</time>
      </trkpt>
      <trkpt lat="45.53646" lon="1.80036">
        <ele>478.2</ele>
        <time>2022-08-04T08:43:31Z</time>
      </trkpt>
      <trkpt lat="45.53648" lon="1.80028">
        <ele>478.8</ele>
        <time>2022-08-04T08:43:33Z</time>
      </trkpt>
      <trkpt lat="45.53651" lon="1.80019">
        <ele>479.3</ele>
        <time>2022-08-04T08:43:35Z</time>
      </trkpt>
      <trkpt lat="45.53655" lon="1.80012">
        <ele>479.3</ele>
        <time>2022-08-04T08:43:37Z</time>
      </trkpt>
      <trkpt lat="45.53658" lon="1.80005">
        <ele>479.3</ele>
        <time>2022-08-04T08:43:39Z</time>
      </trkpt>
      <trkpt lat="45.53662" lon="1.79997">
        <ele>479.5</ele>
        <time>2022-08-04T08:43:41Z</time>
      </trkpt>
      <trkpt lat="45.53667" lon="1.79989">
        <ele>480.2</ele>
        <time>2022-08-04T08:43:43Z</time>
      </trkpt>
      <trkpt lat="45.53671" lon="1.79981">
        <ele>481.4</ele>
        <time>2022-08-04T08:43:45Z</time>
      </trkpt>
      <trkpt lat="45.53675" lon="1.79973">
        <ele>482.6</ele>
        <time>2022-08-04T08:43:47Z</time>
      </trkpt>
      <trkpt lat="45.5368" lon="1.79966">
        <ele>483.5</ele>
        <time>2022-08-04T08:43:49Z</time>
      </trkpt>
      <trkpt lat="45.53684" lon="1.79959">
        <ele>484.2</ele>
        <time>2022-08-04T08:43:51Z</time>
      </trkpt>
      <trkpt lat="45.53688" lon="1.79952">
        <ele>484.7</ele>
        <time>2022-08-04T08:43:53Z</time>
      </trkpt>
      <trkpt lat="45.53693" lon="1.79945">
        <ele>485.3</ele>
        <time>2022-08-04T08:43:55Z</time>
      </trkpt>
      <trkpt lat="45.53697" lon="1.79937">
        <ele>485.6</ele>
        <time>2022-08-04T08:43:57Z</time>
      </trkpt>
      <trkpt lat="45.53703" lon="1.7993">
        <ele>485.6</ele>
        <time>2022-08-04T08:43:59Z</time>
      </trkpt>
      <trkpt lat="45.53708" lon="1.79921">
        <ele>485.7</ele>
        <time>2022-08-04T08:44:01Z</time>
      </trkpt>
      <trkpt lat="45.53713" lon="1.79914">
        <ele>485.5</ele>
        <time>2022-08-04T08:44:03Z</time>
      </trkpt>
      <trkpt lat="45.53717" lon="1.79905">
        <ele>485.8</ele>
        <time>2022-08-04T08:44:05Z</time>
      </trkpt>
      <trkpt lat="45.53723" lon="1.79897">
        <ele>485.9</ele>
        <time>2022-08-04T08:44:07Z</time>
      </trkpt>
      <trkpt lat="45.53727" lon="1.7989">
        <ele>486.1</ele>
        <time>2022-08-04T08:44:09Z</time>
      </trkpt>
      <trkpt lat="45.53733" lon="1.79882">
        <ele>486</ele>
        <time>2022-08-04T08:44:11Z</time>
      </trkpt>
      <trkpt lat="45.53737" lon="1.79875">
        <ele>486.2</ele>
        <time>2022-08-04T08:44:13Z</time>
      </trkpt>
      <trkpt lat="45.53741" lon="1.79867">
        <ele>486.3</ele>
        <time>2022-08-04T08:44:15Z</time>
      </trkpt>
      <trkpt lat="45.53745" lon="1.79856">
        <ele>487</ele>
        <time>2022-08-04T08:44:17Z</time>
      </trkpt>
      <trkpt lat="45.5375" lon="1.79848">
        <ele>487.1</ele>
        <time>2022-08-04T08:44:19Z</time>
      </trkpt>
      <trkpt lat="45.53755" lon="1.79841">
        <ele>487</ele>
        <time>2022-08-04T08:44:21Z</time>
      </trkpt>
      <trkpt lat="45.5376" lon="1.79834">
        <ele>486.6</ele>
        <time>2022-08-04T08:44:23Z</time>
      </trkpt>
      <trkpt lat="45.53764" lon="1.79825">
        <ele>485.8</ele>
        <time>2022-08-04T08:44:25Z</time>
      </trkpt>
      <trkpt lat="45.5377" lon="1.79819">
        <ele>484.5</ele>
        <time>2022-08-04T08:44:27Z</time>
      </trkpt>
      <trkpt lat="45.53774" lon="1.7981">
        <ele>483.8</ele>
        <time>2022-08-04T08:44:29Z</time>
      </trkpt>
      <trkpt lat="45.53779" lon="1.79804">
        <ele>482.5</ele>
        <time>2022-08-04T08:44:31Z</time>
      </trkpt>
      <trkpt lat="45.53783" lon="1.79798">
        <ele>481.6</ele>
        <time>2022-08-04T08:44:33Z</time>
      </trkpt>
      <trkpt lat="45.53787" lon="1.79792">
        <ele>480.6</ele>
        <time>2022-08-04T08:44:35Z</time>
      </trkpt>
      <trkpt lat="45.53791" lon="1.79786">
        <ele>479.6</ele>
        <time>2022-08-04T08:44:37Z</time>
      </trkpt>
      <trkpt lat="45.53794" lon="1.79778">
        <ele>478.8</ele>
        <time>2022-08-04T08:44:39Z</time>
      </trkpt>
      <trkpt lat="45.53797" lon="1.7977">
        <ele>478</ele>
        <time>2022-08-04T08:44:41Z</time>
      </trkpt>
      <trkpt lat="45.53799" lon="1.79763">
        <ele>477.4</ele>
        <time>2022-08-04T08:44:43Z</time>
      </trkpt>
      <trkpt lat="45.53801" lon="1.79755">
        <ele>476.7</ele>
        <time>2022-08-04T08:44:45Z</time>
      </trkpt>
      <trkpt lat="45.53802" lon="1.79747">
        <ele>476.4</ele>
        <time>2022-08-04T08:44:47Z</time>
      </trkpt>
      <trkpt lat="45.53801" lon="1.79738">
        <ele>476.8</ele>
        <time>2022-08-04T08:44:49Z</time>
      </trkpt>
      <trkpt lat="45.53799" lon="1.79727">
        <ele>477.4</ele>
        <time>2022-08-04T08:44:51Z</time>
      </trkpt>
      <trkpt lat="45.53797" lon="1.79717">
        <ele>478.1</ele>
        <time>2022-08-04T08:44:53Z</time>
      </trkpt>
      <trkpt lat="45.53795" lon="1.79707">
        <ele>478.5</ele>
        <time>2022-08-04T08:44:55Z</time>
      </trkpt>
      <trkpt lat="45.53794" lon="1.79697">
        <ele>478.9</ele>
        <time>2022-08-04T08:44:57Z</time>
      </trkpt>
      <trkpt lat="45.53792" lon="1.79687">
        <ele>479.3</ele>
        <time>2022-08-04T08:44:59Z</time>
      </trkpt>
      <trkpt lat="45.53791" lon="1.79676">
        <ele>479.6</ele>
        <time>2022-08-04T08:45:01Z</time>
      </trkpt>
      <trkpt lat="45.5379" lon="1.79666">
        <ele>480</ele>
        <time>2022-08-04T08:45:03Z</time>
      </trkpt>
      <trkpt lat="45.53789" lon="1.79657">
        <ele>480.1</ele>
        <time>2022-08-04T08:45:05Z</time>
      </trkpt>
      <trkpt lat="45.53787" lon="1.79647">
        <ele>480.2</ele>
        <time>2022-08-04T08:45:07Z</time>
      </trkpt>
      <trkpt lat="45.53786" lon="1.79637">
        <ele>480.5</ele>
        <time>2022-08-04T08:45:09Z</time>
      </trkpt>
      <trkpt lat="45.53784" lon="1.79626">
        <ele>480.7</ele>
        <time>2022-08-04T08:45:11Z</time>
      </trkpt>
      <trkpt lat="45.53782" lon="1.79616">
        <ele>481</ele>
        <time>2022-08-04T08:45:13Z</time>
      </trkpt>
      <trkpt lat="45.53781" lon="1.79607">
        <ele>481.4</ele>
        <time>2022-08-04T08:45:15Z</time>
      </trkpt>
      <trkpt lat="45.53779" lon="1.79597">
        <ele>481.7</ele>
        <time>2022-08-04T08:45:17Z</time>
      </trkpt>
      <trkpt lat="45.53778" lon="1.79588">
        <ele>481.9</ele>
        <time>2022-08-04T08:45:19Z</time>
      </trkpt>
      <trkpt lat="45.53777" lon="1.79578">
        <ele>481.9</ele>
        <time>2022-08-04T08:45:21Z</time>
      </trkpt>
      <trkpt lat="45.53776" lon="1.79569">
        <ele>481.8</ele>
        <time>2022-08-04T08:45:23Z</time>
      </trkpt>
      <trkpt lat="45.53774" lon="1.7956">
        <ele>481.7</ele>
        <time>2022-08-04T08:45:25Z</time>
      </trkpt>
      <trkpt lat="45.53773" lon="1.79551">
        <ele>481.3</ele>
        <time>2022-08-04T08:45:27Z</time>
      </trkpt>
      <trkpt lat="45.53772" lon="1.79542">
        <ele>481.2</ele>
        <time>2022-08-04T08:45:29Z</time>
      </trkpt>
      <trkpt lat="45.53771" lon="1.79533">
        <ele>480.9</ele>
        <time>2022-08-04T08:45:31Z</time>
      </trkpt>
      <trkpt lat="45.5377" lon="1.79525">
        <ele>480.8</ele>
        <time>2022-08-04T08:45:33Z</time>
      </trkpt>
      <trkpt lat="45.53768" lon="1.79517">
        <ele>480.7</ele>
        <time>2022-08-04T08:45:35Z</time>
      </trkpt>
      <trkpt lat="45.53766" lon="1.79508">
        <ele>480.7</ele>
        <time>2022-08-04T08:45:37Z</time>
      </trkpt>
      <trkpt lat="45.53764" lon="1.79501">
        <ele>480.7</ele>
        <time>2022-08-04T08:45:39Z</time>
      </trkpt>
      <trkpt lat="45.53763" lon="1.79493">
        <ele>480.9</ele>
        <time>2022-08-04T08:45:41Z</time>
      </trkpt>
      <trkpt lat="45.53762" lon="1.79485">
        <ele>481</ele>
        <time>2022-08-04T08:45:43Z</time>
      </trkpt>
      <trkpt lat="45.53762" lon="1.79477">
        <ele>480.8</ele>
        <time>2022-08-04T08:45:45Z</time>
      </trkpt>
      <trkpt lat="45.5376" lon="1.79469">
        <ele>480.9</ele>
        <time>2022-08-04T08:45:47Z</time>
      </trkpt>
      <trkpt lat="45.53759" lon="1.79461">
        <ele>481.1</ele>
        <time>2022-08-04T08:45:49Z</time>
      </trkpt>
      <trkpt lat="45.53757" lon="1.79453">
        <ele>481.5</ele>
        <time>2022-08-04T08:45:51Z</time>
      </trkpt>
      <trkpt lat="45.53754" lon="1.79447">
        <ele>482.2</ele>
        <time>2022-08-04T08:45:53Z</time>
      </trkpt>
      <trkpt lat="45.5375" lon="1.79443">
        <ele>482.9</ele>
        <time>2022-08-04T08:45:55Z</time>
      </trkpt>
      <trkpt lat="45.53747" lon="1.7944">
        <ele>483</ele>
        <time>2022-08-04T08:45:57Z</time>
      </trkpt>
      <trkpt lat="45.53744" lon="1.79435">
        <ele>483</ele>
        <time>2022-08-04T08:45:59Z</time>
      </trkpt>
      <trkpt lat="45.53741" lon="1.7943">
        <ele>483</ele>
        <time>2022-08-04T08:46:01Z</time>
      </trkpt>
      <trkpt lat="45.53739" lon="1.79427">
        <ele>483</ele>
        <time>2022-08-04T08:46:03Z</time>
      </trkpt>
      <trkpt lat="45.53739" lon="1.79425">
        <ele>482.9</ele>
        <time>2022-08-04T08:46:05Z</time>
      </trkpt>
      <trkpt lat="45.53739" lon="1.79423">
        <ele>482.8</ele>
        <time>2022-08-04T08:46:07Z</time>
      </trkpt>
      <trkpt lat="45.53738" lon="1.7942">
        <ele>482.7</ele>
        <time>2022-08-04T08:46:09Z</time>
      </trkpt>
      <trkpt lat="45.53736" lon="1.79416">
        <ele>482.6</ele>
        <time>2022-08-04T08:46:11Z</time>
      </trkpt>
      <trkpt lat="45.53716" lon="1.79397">
        <ele>481.9</ele>
        <time>2022-08-04T08:46:19Z</time>
      </trkpt>
      <trkpt lat="45.53713" lon="1.79392">
        <ele>481.6</ele>
        <time>2022-08-04T08:46:21Z</time>
      </trkpt>
      <trkpt lat="45.53709" lon="1.79387">
        <ele>481.5</ele>
        <time>2022-08-04T08:46:23Z</time>
      </trkpt>
      <trkpt lat="45.53705" lon="1.79383">
        <ele>481.4</ele>
        <time>2022-08-04T08:46:25Z</time>
      </trkpt>
      <trkpt lat="45.53702" lon="1.79378">
        <ele>481.2</ele>
        <time>2022-08-04T08:46:27Z</time>
      </trkpt>
      <trkpt lat="45.53699" lon="1.79373">
        <ele>481</ele>
        <time>2022-08-04T08:46:29Z</time>
      </trkpt>
      <trkpt lat="45.53695" lon="1.7937">
        <ele>481</ele>
        <time>2022-08-04T08:46:31Z</time>
      </trkpt>
      <trkpt lat="45.53693" lon="1.79365">
        <ele>480.9</ele>
        <time>2022-08-04T08:46:33Z</time>
      </trkpt>
      <trkpt lat="45.53689" lon="1.79363">
        <ele>481</ele>
        <time>2022-08-04T08:46:35Z</time>
      </trkpt>
      <trkpt lat="45.53685" lon="1.79362">
        <ele>481.2</ele>
        <time>2022-08-04T08:46:37Z</time>
      </trkpt>
      <trkpt lat="45.53682" lon="1.79361">
        <ele>481.4</ele>
        <time>2022-08-04T08:46:39Z</time>
      </trkpt>
      <trkpt lat="45.53681" lon="1.79363">
        <ele>481.7</ele>
        <time>2022-08-04T08:46:41Z</time>
      </trkpt>
      <trkpt lat="45.53679" lon="1.79365">
        <ele>482</ele>
        <time>2022-08-04T08:46:43Z</time>
      </trkpt>
      <trkpt lat="45.53677" lon="1.79367">
        <ele>482.2</ele>
        <time>2022-08-04T08:46:45Z</time>
      </trkpt>
      <trkpt lat="45.53676" lon="1.79367">
        <ele>482.3</ele>
        <time>2022-08-04T08:46:47Z</time>
      </trkpt>
      <trkpt lat="45.53676" lon="1.79368">
        <ele>482.3</ele>
        <time>2022-08-04T08:46:49Z</time>
      </trkpt>
      <trkpt lat="45.53644" lon="1.79334">
        <ele>482.7</ele>
        <time>2022-08-04T10:01:02Z</time>
      </trkpt>
      <trkpt lat="45.53675" lon="1.79345">
        <ele>481</ele>
        <time>2022-08-04T10:13:59Z</time>
      </trkpt>
      <trkpt lat="45.53677" lon="1.79347">
        <ele>480.9</ele>
        <time>2022-08-04T10:14:01Z</time>
      </trkpt>
      <trkpt lat="45.5368" lon="1.79351">
        <ele>480.9</ele>
        <time>2022-08-04T10:14:03Z</time>
      </trkpt>
      <trkpt lat="45.53685" lon="1.79358">
        <ele>481</ele>
        <time>2022-08-04T10:14:05Z</time>
      </trkpt>
      <trkpt lat="45.5369" lon="1.79365">
        <ele>481.1</ele>
        <time>2022-08-04T10:14:07Z</time>
      </trkpt>
      <trkpt lat="45.53695" lon="1.79372">
        <ele>481.2</ele>
        <time>2022-08-04T10:14:09Z</time>
      </trkpt>
      <trkpt lat="45.53699" lon="1.79379">
        <ele>481.5</ele>
        <time>2022-08-04T10:14:11Z</time>
      </trkpt>
      <trkpt lat="45.53704" lon="1.79385">
        <ele>481.7</ele>
        <time>2022-08-04T10:14:13Z</time>
      </trkpt>
      <trkpt lat="45.53708" lon="1.79392">
        <ele>482</ele>
        <time>2022-08-04T10:14:15Z</time>
      </trkpt>
      <trkpt lat="45.53713" lon="1.79398">
        <ele>482.2</ele>
        <time>2022-08-04T10:14:17Z</time>
      </trkpt>
      <trkpt lat="45.53718" lon="1.79405">
        <ele>482.5</ele>
        <time>2022-08-04T10:14:19Z</time>
      </trkpt>
      <trkpt lat="45.53723" lon="1.7941">
        <ele>482.7</ele>
        <time>2022-08-04T10:14:21Z</time>
      </trkpt>
      <trkpt lat="45.53728" lon="1.79415">
        <ele>482.9</ele>
        <time>2022-08-04T10:14:23Z</time>
      </trkpt>
      <trkpt lat="45.53733" lon="1.79419">
        <ele>482.9</ele>
        <time>2022-08-04T10:14:25Z</time>
      </trkpt>
      <trkpt lat="45.53741" lon="1.79421">
        <ele>482.6</ele>
        <time>2022-08-04T10:14:27Z</time>
      </trkpt>
      <trkpt lat="45.53743" lon="1.7943">
        <ele>482.9</ele>
        <time>2022-08-04T10:14:29Z</time>
      </trkpt>
      <trkpt lat="45.53749" lon="1.79436">
        <ele>482.8</ele>
        <time>2022-08-04T10:14:31Z</time>
      </trkpt>
      <trkpt lat="45.53754" lon="1.79441">
        <ele>481.9</ele>
        <time>2022-08-04T10:14:33Z</time>
      </trkpt>
      <trkpt lat="45.53758" lon="1.79446">
        <ele>480.8</ele>
        <time>2022-08-04T10:14:35Z</time>
      </trkpt>
      <trkpt lat="45.53763" lon="1.79456">
        <ele>479.8</ele>
        <time>2022-08-04T10:14:37Z</time>
      </trkpt>
      <trkpt lat="45.53764" lon="1.7947">
        <ele>480</ele>
        <time>2022-08-04T10:14:39Z</time>
      </trkpt>
      <trkpt lat="45.53765" lon="1.79483">
        <ele>480.1</ele>
        <time>2022-08-04T10:14:41Z</time>
      </trkpt>
      <trkpt lat="45.53767" lon="1.79496">
        <ele>479.9</ele>
        <time>2022-08-04T10:14:43Z</time>
      </trkpt>
      <trkpt lat="45.53768" lon="1.79509">
        <ele>480</ele>
        <time>2022-08-04T10:14:45Z</time>
      </trkpt>
      <trkpt lat="45.53769" lon="1.7952">
        <ele>480.7</ele>
        <time>2022-08-04T10:14:47Z</time>
      </trkpt>
      <trkpt lat="45.5377" lon="1.79535">
        <ele>481.4</ele>
        <time>2022-08-04T10:14:49Z</time>
      </trkpt>
      <trkpt lat="45.53771" lon="1.79547">
        <ele>481.9</ele>
        <time>2022-08-04T10:14:51Z</time>
      </trkpt>
      <trkpt lat="45.53772" lon="1.7956">
        <ele>482.4</ele>
        <time>2022-08-04T10:14:53Z</time>
      </trkpt>
      <trkpt lat="45.53773" lon="1.79573">
        <ele>482.8</ele>
        <time>2022-08-04T10:14:55Z</time>
      </trkpt>
      <trkpt lat="45.53775" lon="1.79587">
        <ele>483</ele>
        <time>2022-08-04T10:14:57Z</time>
      </trkpt>
      <trkpt lat="45.53777" lon="1.796">
        <ele>482.5</ele>
        <time>2022-08-04T10:14:59Z</time>
      </trkpt>
      <trkpt lat="45.53777" lon="1.79614">
        <ele>482.5</ele>
        <time>2022-08-04T10:15:01Z</time>
      </trkpt>
      <trkpt lat="45.53782" lon="1.79628">
        <ele>481.3</ele>
        <time>2022-08-04T10:15:03Z</time>
      </trkpt>
      <trkpt lat="45.53783" lon="1.79642">
        <ele>481.2</ele>
        <time>2022-08-04T10:15:05Z</time>
      </trkpt>
      <trkpt lat="45.53786" lon="1.79655">
        <ele>480.7</ele>
        <time>2022-08-04T10:15:07Z</time>
      </trkpt>
      <trkpt lat="45.53788" lon="1.79669">
        <ele>480.4</ele>
        <time>2022-08-04T10:15:09Z</time>
      </trkpt>
      <trkpt lat="45.53791" lon="1.79684">
        <ele>479.8</ele>
        <time>2022-08-04T10:15:11Z</time>
      </trkpt>
      <trkpt lat="45.53792" lon="1.79699">
        <ele>479.3</ele>
        <time>2022-08-04T10:15:13Z</time>
      </trkpt>
      <trkpt lat="45.53794" lon="1.79714">
        <ele>478.8</ele>
        <time>2022-08-04T10:15:15Z</time>
      </trkpt>
      <trkpt lat="45.53796" lon="1.7973">
        <ele>478.2</ele>
        <time>2022-08-04T10:15:17Z</time>
      </trkpt>
      <trkpt lat="45.53798" lon="1.79746">
        <ele>477.8</ele>
        <time>2022-08-04T10:15:19Z</time>
      </trkpt>
      <trkpt lat="45.53796" lon="1.79762">
        <ele>478.2</ele>
        <time>2022-08-04T10:15:21Z</time>
      </trkpt>
      <trkpt lat="45.53792" lon="1.79778">
        <ele>479.3</ele>
        <time>2022-08-04T10:15:23Z</time>
      </trkpt>
      <trkpt lat="45.53784" lon="1.7979">
        <ele>481.2</ele>
        <time>2022-08-04T10:15:25Z</time>
      </trkpt>
      <trkpt lat="45.53777" lon="1.79803">
        <ele>483</ele>
        <time>2022-08-04T10:15:27Z</time>
      </trkpt>
      <trkpt lat="45.53769" lon="1.79816">
        <ele>484.7</ele>
        <time>2022-08-04T10:15:29Z</time>
      </trkpt>
      <trkpt lat="45.53761" lon="1.79829">
        <ele>486.6</ele>
        <time>2022-08-04T10:15:31Z</time>
      </trkpt>
      <trkpt lat="45.53752" lon="1.79844">
        <ele>487.2</ele>
        <time>2022-08-04T10:15:33Z</time>
      </trkpt>
      <trkpt lat="45.53744" lon="1.79857">
        <ele>487.1</ele>
        <time>2022-08-04T10:15:35Z</time>
      </trkpt>
      <trkpt lat="45.53735" lon="1.79871">
        <ele>487</ele>
        <time>2022-08-04T10:15:37Z</time>
      </trkpt>
      <trkpt lat="45.53727" lon="1.79887">
        <ele>486.5</ele>
        <time>2022-08-04T10:15:39Z</time>
      </trkpt>
      <trkpt lat="45.53718" lon="1.79899">
        <ele>486.5</ele>
        <time>2022-08-04T10:15:41Z</time>
      </trkpt>
      <trkpt lat="45.5371" lon="1.79913">
        <ele>486.2</ele>
        <time>2022-08-04T10:15:43Z</time>
      </trkpt>
      <trkpt lat="45.53701" lon="1.79929">
        <ele>486</ele>
        <time>2022-08-04T10:15:45Z</time>
      </trkpt>
      <trkpt lat="45.53693" lon="1.7994">
        <ele>485.8</ele>
        <time>2022-08-04T10:15:47Z</time>
      </trkpt>
      <trkpt lat="45.53685" lon="1.79955">
        <ele>484.8</ele>
        <time>2022-08-04T10:15:49Z</time>
      </trkpt>
      <trkpt lat="45.53676" lon="1.79968">
        <ele>483.4</ele>
        <time>2022-08-04T10:15:51Z</time>
      </trkpt>
      <trkpt lat="45.53668" lon="1.79982">
        <ele>481.4</ele>
        <time>2022-08-04T10:15:53Z</time>
      </trkpt>
      <trkpt lat="45.53661" lon="1.79997">
        <ele>480</ele>
        <time>2022-08-04T10:15:55Z</time>
      </trkpt>
      <trkpt lat="45.53653" lon="1.8001">
        <ele>479.9</ele>
        <time>2022-08-04T10:15:57Z</time>
      </trkpt>
      <trkpt lat="45.53647" lon="1.80024">
        <ele>479.6</ele>
        <time>2022-08-04T10:15:59Z</time>
      </trkpt>
      <trkpt lat="45.53642" lon="1.80038">
        <ele>478.7</ele>
        <time>2022-08-04T10:16:01Z</time>
      </trkpt>
      <trkpt lat="45.53639" lon="1.80051">
        <ele>477.5</ele>
        <time>2022-08-04T10:16:03Z</time>
      </trkpt>
      <trkpt lat="45.53632" lon="1.80062">
        <ele>477.3</ele>
        <time>2022-08-04T10:16:05Z</time>
      </trkpt>
      <trkpt lat="45.53623" lon="1.80066">
        <ele>478.3</ele>
        <time>2022-08-04T10:16:07Z</time>
      </trkpt>
      <trkpt lat="45.53614" lon="1.80065">
        <ele>480.1</ele>
        <time>2022-08-04T10:16:09Z</time>
      </trkpt>
      <trkpt lat="45.53606" lon="1.80064">
        <ele>481.5</ele>
        <time>2022-08-04T10:16:11Z</time>
      </trkpt>
      <trkpt lat="45.53599" lon="1.80064">
        <ele>482.7</ele>
        <time>2022-08-04T10:16:13Z</time>
      </trkpt>
      <trkpt lat="45.53593" lon="1.80064">
        <ele>483.7</ele>
        <time>2022-08-04T10:16:15Z</time>
      </trkpt>
      <trkpt lat="45.53587" lon="1.80064">
        <ele>484.7</ele>
        <time>2022-08-04T10:16:17Z</time>
      </trkpt>
      <trkpt lat="45.53582" lon="1.80065">
        <ele>485.5</ele>
        <time>2022-08-04T10:16:19Z</time>
      </trkpt>
      <trkpt lat="45.53577" lon="1.80065">
        <ele>485.8</ele>
        <time>2022-08-04T10:16:21Z</time>
      </trkpt>
      <trkpt lat="45.53572" lon="1.80067">
        <ele>485.9</ele>
        <time>2022-08-04T10:16:23Z</time>
      </trkpt>
      <trkpt lat="45.53567" lon="1.80068">
        <ele>486</ele>
        <time>2022-08-04T10:16:25Z</time>
      </trkpt>
      <trkpt lat="45.53562" lon="1.8007">
        <ele>486.2</ele>
        <time>2022-08-04T10:16:27Z</time>
      </trkpt>
      <trkpt lat="45.53558" lon="1.8007">
        <ele>486.5</ele>
        <time>2022-08-04T10:16:29Z</time>
      </trkpt>
      <trkpt lat="45.53554" lon="1.80072">
        <ele>486.4</ele>
        <time>2022-08-04T10:16:31Z</time>
      </trkpt>
      <trkpt lat="45.53549" lon="1.80073">
        <ele>486.6</ele>
        <time>2022-08-04T10:16:33Z</time>
      </trkpt>
      <trkpt lat="45.53545" lon="1.80075">
        <ele>486.7</ele>
        <time>2022-08-04T10:16:35Z</time>
      </trkpt>
      <trkpt lat="45.53542" lon="1.80077">
        <ele>486.6</ele>
        <time>2022-08-04T10:16:37Z</time>
      </trkpt>
      <trkpt lat="45.53537" lon="1.80081">
        <ele>486.2</ele>
        <time>2022-08-04T10:16:39Z</time>
      </trkpt>
      <trkpt lat="45.53533" lon="1.80084">
        <ele>486.3</ele>
        <time>2022-08-04T10:16:41Z</time>
      </trkpt>
      <trkpt lat="45.5353" lon="1.80087">
        <ele>486.8</ele>
        <time>2022-08-04T10:16:43Z</time>
      </trkpt>
      <trkpt lat="45.53526" lon="1.8009">
        <ele>487.2</ele>
        <time>2022-08-04T10:16:45Z</time>
      </trkpt>
      <trkpt lat="45.53522" lon="1.80092">
        <ele>487.7</ele>
        <time>2022-08-04T10:16:47Z</time>
      </trkpt>
      <trkpt lat="45.5352" lon="1.80096">
        <ele>488.2</ele>
        <time>2022-08-04T10:16:49Z</time>
      </trkpt>
      <trkpt lat="45.53516" lon="1.80099">
        <ele>488.7</ele>
        <time>2022-08-04T10:16:51Z</time>
      </trkpt>
      <trkpt lat="45.53513" lon="1.80102">
        <ele>489.1</ele>
        <time>2022-08-04T10:16:53Z</time>
      </trkpt>
      <trkpt lat="45.5351" lon="1.80106">
        <ele>489.6</ele>
        <time>2022-08-04T10:16:55Z</time>
      </trkpt>
      <trkpt lat="45.53507" lon="1.8011">
        <ele>490.1</ele>
        <time>2022-08-04T10:16:57Z</time>
      </trkpt>
      <trkpt lat="45.53504" lon="1.80113">
        <ele>490.5</ele>
        <time>2022-08-04T10:16:59Z</time>
      </trkpt>
      <trkpt lat="45.53502" lon="1.80118">
        <ele>490.9</ele>
        <time>2022-08-04T10:17:01Z</time>
      </trkpt>
      <trkpt lat="45.53499" lon="1.80122">
        <ele>491.4</ele>
        <time>2022-08-04T10:17:03Z</time>
      </trkpt>
      <trkpt lat="45.53497" lon="1.80125">
        <ele>491.8</ele>
        <time>2022-08-04T10:17:05Z</time>
      </trkpt>
      <trkpt lat="45.53495" lon="1.80128">
        <ele>492.2</ele>
        <time>2022-08-04T10:17:07Z</time>
      </trkpt>
      <trkpt lat="45.53493" lon="1.80131">
        <ele>492.4</ele>
        <time>2022-08-04T10:17:09Z</time>
      </trkpt>
      <trkpt lat="45.53492" lon="1.80134">
        <ele>492.8</ele>
        <time>2022-08-04T10:17:11Z</time>
      </trkpt>
      <trkpt lat="45.5349" lon="1.80138">
        <ele>493</ele>
        <time>2022-08-04T10:17:13Z</time>
      </trkpt>
      <trkpt lat="45.53488" lon="1.80142">
        <ele>493.4</ele>
        <time>2022-08-04T10:17:15Z</time>
      </trkpt>
      <trkpt lat="45.53487" lon="1.80145">
        <ele>493.7</ele>
        <time>2022-08-04T10:17:17Z</time>
      </trkpt>
      <trkpt lat="45.53485" lon="1.80148">
        <ele>494</ele>
        <time>2022-08-04T10:17:19Z</time>
      </trkpt>
      <trkpt lat="45.53483" lon="1.80151">
        <ele>494.3</ele>
        <time>2022-08-04T10:17:21Z</time>
      </trkpt>
      <trkpt lat="45.5348" lon="1.80154">
        <ele>494.6</ele>
        <time>2022-08-04T10:17:23Z</time>
      </trkpt>
      <trkpt lat="45.53479" lon="1.80157">
        <ele>494.8</ele>
        <time>2022-08-04T10:17:25Z</time>
      </trkpt>
      <trkpt lat="45.53477" lon="1.8016">
        <ele>495.1</ele>
        <time>2022-08-04T10:17:27Z</time>
      </trkpt>
      <trkpt lat="45.53475" lon="1.80163">
        <ele>495.4</ele>
        <time>2022-08-04T10:17:29Z</time>
      </trkpt>
      <trkpt lat="45.53473" lon="1.80166">
        <ele>495.6</ele>
        <time>2022-08-04T10:17:31Z</time>
      </trkpt>
      <trkpt lat="45.53471" lon="1.80169">
        <ele>496</ele>
        <time>2022-08-04T10:17:33Z</time>
      </trkpt>
      <trkpt lat="45.53469" lon="1.80172">
        <ele>496.4</ele>
        <time>2022-08-04T10:17:35Z</time>
      </trkpt>
      <trkpt lat="45.53468" lon="1.80175">
        <ele>496.8</ele>
        <time>2022-08-04T10:17:37Z</time>
      </trkpt>
      <trkpt lat="45.53466" lon="1.80178">
        <ele>497.2</ele>
        <time>2022-08-04T10:17:39Z</time>
      </trkpt>
      <trkpt lat="45.53464" lon="1.80181">
        <ele>497.6</ele>
        <time>2022-08-04T10:17:41Z</time>
      </trkpt>
      <trkpt lat="45.53463" lon="1.80184">
        <ele>498</ele>
        <time>2022-08-04T10:17:43Z</time>
      </trkpt>
      <trkpt lat="45.53461" lon="1.80187">
        <ele>498.4</ele>
        <time>2022-08-04T10:17:45Z</time>
      </trkpt>
      <trkpt lat="45.53459" lon="1.8019">
        <ele>498.8</ele>
        <time>2022-08-04T10:17:47Z</time>
      </trkpt>
      <trkpt lat="45.53457" lon="1.80192">
        <ele>499.2</ele>
        <time>2022-08-04T10:17:49Z</time>
      </trkpt>
      <trkpt lat="45.53455" lon="1.80195">
        <ele>499.6</ele>
        <time>2022-08-04T10:17:51Z</time>
      </trkpt>
      <trkpt lat="45.53453" lon="1.80197">
        <ele>499.9</ele>
        <time>2022-08-04T10:17:53Z</time>
      </trkpt>
      <trkpt lat="45.53452" lon="1.802">
        <ele>500.3</ele>
        <time>2022-08-04T10:17:55Z</time>
      </trkpt>
      <trkpt lat="45.53451" lon="1.80203">
        <ele>500.6</ele>
        <time>2022-08-04T10:17:57Z</time>
      </trkpt>
      <trkpt lat="45.53449" lon="1.80205">
        <ele>500.9</ele>
        <time>2022-08-04T10:17:59Z</time>
      </trkpt>
      <trkpt lat="45.53447" lon="1.80207">
        <ele>501.2</ele>
        <time>2022-08-04T10:18:01Z</time>
      </trkpt>
      <trkpt lat="45.53446" lon="1.80209">
        <ele>501.5</ele>
        <time>2022-08-04T10:18:03Z</time>
      </trkpt>
      <trkpt lat="45.53444" lon="1.80211">
        <ele>501.8</ele>
        <time>2022-08-04T10:18:05Z</time>
      </trkpt>
      <trkpt lat="45.53442" lon="1.80214">
        <ele>502.2</ele>
        <time>2022-08-04T10:18:07Z</time>
      </trkpt>
      <trkpt lat="45.5344" lon="1.80217">
        <ele>502.6</ele>
        <time>2022-08-04T10:18:09Z</time>
      </trkpt>
      <trkpt lat="45.53439" lon="1.80219">
        <ele>502.9</ele>
        <time>2022-08-04T10:18:11Z</time>
      </trkpt>
      <trkpt lat="45.53437" lon="1.80222">
        <ele>503.2</ele>
        <time>2022-08-04T10:18:13Z</time>
      </trkpt>
      <trkpt lat="45.53435" lon="1.80224">
        <ele>503.6</ele>
        <time>2022-08-04T10:18:15Z</time>
      </trkpt>
      <trkpt lat="45.53433" lon="1.80227">
        <ele>503.9</ele>
        <time>2022-08-04T10:18:17Z</time>
      </trkpt>
      <trkpt lat="45.53432" lon="1.80229">
        <ele>504.2</ele>
        <time>2022-08-04T10:18:19Z</time>
      </trkpt>
      <trkpt lat="45.5343" lon="1.80232">
        <ele>504.6</ele>
        <time>2022-08-04T10:18:21Z</time>
      </trkpt>
      <trkpt lat="45.53429" lon="1.80234">
        <ele>504.9</ele>
        <time>2022-08-04T10:18:23Z</time>
      </trkpt>
      <trkpt lat="45.53427" lon="1.80237">
        <ele>505.2</ele>
        <time>2022-08-04T10:18:25Z</time>
      </trkpt>
      <trkpt lat="45.53425" lon="1.80239">
        <ele>505.6</ele>
        <time>2022-08-04T10:18:27Z</time>
      </trkpt>
      <trkpt lat="45.53423" lon="1.80241">
        <ele>505.8</ele>
        <time>2022-08-04T10:18:29Z</time>
      </trkpt>
      <trkpt lat="45.53421" lon="1.80243">
        <ele>506.1</ele>
        <time>2022-08-04T10:18:31Z</time>
      </trkpt>
      <trkpt lat="45.53419" lon="1.80245">
        <ele>506.4</ele>
        <time>2022-08-04T10:18:33Z</time>
      </trkpt>
      <trkpt lat="45.53417" lon="1.80248">
        <ele>506.8</ele>
        <time>2022-08-04T10:18:35Z</time>
      </trkpt>
      <trkpt lat="45.53414" lon="1.8025">
        <ele>507.1</ele>
        <time>2022-08-04T10:18:37Z</time>
      </trkpt>
      <trkpt lat="45.53413" lon="1.80252">
        <ele>507.3</ele>
        <time>2022-08-04T10:18:39Z</time>
      </trkpt>
      <trkpt lat="45.5341" lon="1.80254">
        <ele>507.5</ele>
        <time>2022-08-04T10:18:41Z</time>
      </trkpt>
      <trkpt lat="45.53409" lon="1.80257">
        <ele>507.7</ele>
        <time>2022-08-04T10:18:43Z</time>
      </trkpt>
      <trkpt lat="45.53406" lon="1.80259">
        <ele>507.8</ele>
        <time>2022-08-04T10:18:45Z</time>
      </trkpt>
      <trkpt lat="45.53404" lon="1.80261">
        <ele>508</ele>
        <time>2022-08-04T10:18:47Z</time>
      </trkpt>
      <trkpt lat="45.53401" lon="1.80264">
        <ele>508.2</ele>
        <time>2022-08-04T10:18:49Z</time>
      </trkpt>
      <trkpt lat="45.53399" lon="1.80266">
        <ele>508.4</ele>
        <time>2022-08-04T10:18:51Z</time>
      </trkpt>
      <trkpt lat="45.53397" lon="1.80267">
        <ele>508.5</ele>
        <time>2022-08-04T10:18:53Z</time>
      </trkpt>
      <trkpt lat="45.53394" lon="1.80269">
        <ele>508.6</ele>
        <time>2022-08-04T10:18:55Z</time>
      </trkpt>
      <trkpt lat="45.53392" lon="1.80271">
        <ele>508.7</ele>
        <time>2022-08-04T10:18:57Z</time>
      </trkpt>
      <trkpt lat="45.5339" lon="1.80272">
        <ele>508.8</ele>
        <time>2022-08-04T10:18:59Z</time>
      </trkpt>
      <trkpt lat="45.53387" lon="1.80273">
        <ele>508.9</ele>
        <time>2022-08-04T10:19:01Z</time>
      </trkpt>
      <trkpt lat="45.53385" lon="1.80275">
        <ele>509</ele>
        <time>2022-08-04T10:19:03Z</time>
      </trkpt>
      <trkpt lat="45.53382" lon="1.80276">
        <ele>509.1</ele>
        <time>2022-08-04T10:19:05Z</time>
      </trkpt>
      <trkpt lat="45.5338" lon="1.80278">
        <ele>509.2</ele>
        <time>2022-08-04T10:19:07Z</time>
      </trkpt>
      <trkpt lat="45.53377" lon="1.8028">
        <ele>509.3</ele>
        <time>2022-08-04T10:19:09Z</time>
      </trkpt>
      <trkpt lat="45.53374" lon="1.80281">
        <ele>509.4</ele>
        <time>2022-08-04T10:19:11Z</time>
      </trkpt>
      <trkpt lat="45.53372" lon="1.80283">
        <ele>509.5</ele>
        <time>2022-08-04T10:19:13Z</time>
      </trkpt>
      <trkpt lat="45.53369" lon="1.80284">
        <ele>509.5</ele>
        <time>2022-08-04T10:19:15Z</time>
      </trkpt>
      <trkpt lat="45.53366" lon="1.80286">
        <ele>509.6</ele>
        <time>2022-08-04T10:19:17Z</time>
      </trkpt>
      <trkpt lat="45.53363" lon="1.80287">
        <ele>509.6</ele>
        <time>2022-08-04T10:19:19Z</time>
      </trkpt>
      <trkpt lat="45.5336" lon="1.80289">
        <ele>509.7</ele>
        <time>2022-08-04T10:19:21Z</time>
      </trkpt>
      <trkpt lat="45.53357" lon="1.8029">
        <ele>509.7</ele>
        <time>2022-08-04T10:19:23Z</time>
      </trkpt>
      <trkpt lat="45.53354" lon="1.80291">
        <ele>509.8</ele>
        <time>2022-08-04T10:19:25Z</time>
      </trkpt>
      <trkpt lat="45.53351" lon="1.80292">
        <ele>509.8</ele>
        <time>2022-08-04T10:19:27Z</time>
      </trkpt>
      <trkpt lat="45.53348" lon="1.80294">
        <ele>509.8</ele>
        <time>2022-08-04T10:19:29Z</time>
      </trkpt>
      <trkpt lat="45.53345" lon="1.80295">
        <ele>509.8</ele>
        <time>2022-08-04T10:19:31Z</time>
      </trkpt>
      <trkpt lat="45.53342" lon="1.80296">
        <ele>509.8</ele>
        <time>2022-08-04T10:19:33Z</time>
      </trkpt>
      <trkpt lat="45.53339" lon="1.80297">
        <ele>509.8</ele>
        <time>2022-08-04T10:19:35Z</time>
      </trkpt>
      <trkpt lat="45.53336" lon="1.80298">
        <ele>509.8</ele>
        <time>2022-08-04T10:19:37Z</time>
      </trkpt>
      <trkpt lat="45.53333" lon="1.80299">
        <ele>509.8</ele>
        <time>2022-08-04T10:19:39Z</time>
      </trkpt>
      <trkpt lat="45.53329" lon="1.803">
        <ele>509.7</ele>
        <time>2022-08-04T10:19:41Z</time>
      </trkpt>
      <trkpt lat="45.53326" lon="1.80301">
        <ele>509.7</ele>
        <time>2022-08-04T10:19:43Z</time>
      </trkpt>
      <trkpt lat="45.53323" lon="1.80302">
        <ele>509.6</ele>
        <time>2022-08-04T10:19:45Z</time>
      </trkpt>
      <trkpt lat="45.5332" lon="1.80303">
        <ele>509.5</ele>
        <time>2022-08-04T10:19:47Z</time>
      </trkpt>
      <trkpt lat="45.53317" lon="1.80304">
        <ele>509.5</ele>
        <time>2022-08-04T10:19:49Z</time>
      </trkpt>
      <trkpt lat="45.53314" lon="1.80305">
        <ele>509.4</ele>
        <time>2022-08-04T10:19:51Z</time>
      </trkpt>
      <trkpt lat="45.53311" lon="1.80306">
        <ele>509.4</ele>
        <time>2022-08-04T10:19:53Z</time>
      </trkpt>
      <trkpt lat="45.53308" lon="1.80307">
        <ele>509.3</ele>
        <time>2022-08-04T10:19:55Z</time>
      </trkpt>
      <trkpt lat="45.53306" lon="1.80308">
        <ele>509.3</ele>
        <time>2022-08-04T10:19:57Z</time>
      </trkpt>
      <trkpt lat="45.53303" lon="1.80308">
        <ele>509.3</ele>
        <time>2022-08-04T10:19:59Z</time>
      </trkpt>
      <trkpt lat="45.53299" lon="1.80309">
        <ele>509.2</ele>
        <time>2022-08-04T10:20:01Z</time>
      </trkpt>
      <trkpt lat="45.53296" lon="1.80309">
        <ele>509.2</ele>
        <time>2022-08-04T10:20:03Z</time>
      </trkpt>
      <trkpt lat="45.53293" lon="1.80309">
        <ele>509.2</ele>
        <time>2022-08-04T10:20:05Z</time>
      </trkpt>
      <trkpt lat="45.53289" lon="1.8031">
        <ele>509.1</ele>
        <time>2022-08-04T10:20:07Z</time>
      </trkpt>
      <trkpt lat="45.53285" lon="1.80309">
        <ele>509.1</ele>
        <time>2022-08-04T10:20:09Z</time>
      </trkpt>
      <trkpt lat="45.53282" lon="1.80309">
        <ele>509</ele>
        <time>2022-08-04T10:20:11Z</time>
      </trkpt>
      <trkpt lat="45.53279" lon="1.80308">
        <ele>509</ele>
        <time>2022-08-04T10:20:13Z</time>
      </trkpt>
      <trkpt lat="45.53275" lon="1.80305">
        <ele>509</ele>
        <time>2022-08-04T10:20:15Z</time>
      </trkpt>
      <trkpt lat="45.53272" lon="1.80302">
        <ele>508.9</ele>
        <time>2022-08-04T10:20:17Z</time>
      </trkpt>
      <trkpt lat="45.53269" lon="1.80297">
        <ele>508.9</ele>
        <time>2022-08-04T10:20:19Z</time>
      </trkpt>
      <trkpt lat="45.53268" lon="1.80291">
        <ele>508.8</ele>
        <time>2022-08-04T10:20:21Z</time>
      </trkpt>
      <trkpt lat="45.53267" lon="1.80284">
        <ele>508.8</ele>
        <time>2022-08-04T10:20:23Z</time>
      </trkpt>
      <trkpt lat="45.53265" lon="1.80278">
        <ele>508.7</ele>
        <time>2022-08-04T10:20:25Z</time>
      </trkpt>
      <trkpt lat="45.53263" lon="1.80271">
        <ele>508.6</ele>
        <time>2022-08-04T10:20:27Z</time>
      </trkpt>
      <trkpt lat="45.53261" lon="1.80265">
        <ele>508.5</ele>
        <time>2022-08-04T10:20:29Z</time>
      </trkpt>
      <trkpt lat="45.53259" lon="1.8026">
        <ele>508.4</ele>
        <time>2022-08-04T10:20:31Z</time>
      </trkpt>
      <trkpt lat="45.53254" lon="1.80258">
        <ele>508.2</ele>
        <time>2022-08-04T10:20:33Z</time>
      </trkpt>
      <trkpt lat="45.53249" lon="1.80259">
        <ele>508.1</ele>
        <time>2022-08-04T10:20:35Z</time>
      </trkpt>
      <trkpt lat="45.53244" lon="1.8026">
        <ele>508.3</ele>
        <time>2022-08-04T10:20:37Z</time>
      </trkpt>
      <trkpt lat="45.5324" lon="1.80259">
        <ele>508.4</ele>
        <time>2022-08-04T10:20:39Z</time>
      </trkpt>
      <trkpt lat="45.53237" lon="1.80255">
        <ele>508.4</ele>
        <time>2022-08-04T10:20:41Z</time>
      </trkpt>
      <trkpt lat="45.53238" lon="1.80249">
        <ele>508.3</ele>
        <time>2022-08-04T10:20:43Z</time>
      </trkpt>
      <trkpt lat="45.53239" lon="1.80243">
        <ele>508.2</ele>
        <time>2022-08-04T10:20:45Z</time>
      </trkpt>
      <trkpt lat="45.53241" lon="1.80237">
        <ele>508.2</ele>
        <time>2022-08-04T10:20:47Z</time>
      </trkpt>
      <trkpt lat="45.53241" lon="1.80231">
        <ele>508.2</ele>
        <time>2022-08-04T10:20:49Z</time>
      </trkpt>
      <trkpt lat="45.53241" lon="1.80224">
        <ele>508.1</ele>
        <time>2022-08-04T10:20:51Z</time>
      </trkpt>
      <trkpt lat="45.53242" lon="1.80217">
        <ele>508.1</ele>
        <time>2022-08-04T10:20:53Z</time>
      </trkpt>
      <trkpt lat="45.53241" lon="1.80211">
        <ele>508.1</ele>
        <time>2022-08-04T10:20:55Z</time>
      </trkpt>
      <trkpt lat="45.53239" lon="1.80206">
        <ele>508.1</ele>
        <time>2022-08-04T10:20:57Z</time>
      </trkpt>
      <trkpt lat="45.53236" lon="1.80203">
        <ele>508.2</ele>
        <time>2022-08-04T10:20:59Z</time>
      </trkpt>
      <trkpt lat="45.53233" lon="1.802">
        <ele>508.2</ele>
        <time>2022-08-04T10:21:01Z</time>
      </trkpt>
      <trkpt lat="45.5323" lon="1.80198">
        <ele>508.2</ele>
        <time>2022-08-04T10:21:03Z</time>
      </trkpt>
      <trkpt lat="45.53226" lon="1.80196">
        <ele>508.2</ele>
        <time>2022-08-04T10:21:05Z</time>
      </trkpt>
      <trkpt lat="45.53223" lon="1.80194">
        <ele>508.2</ele>
        <time>2022-08-04T10:21:07Z</time>
      </trkpt>
      <trkpt lat="45.5322" lon="1.80193">
        <ele>508.2</ele>
        <time>2022-08-04T10:21:09Z</time>
      </trkpt>
      <trkpt lat="45.53219" lon="1.80192">
        <ele>508.2</ele>
        <time>2022-08-04T10:21:11Z</time>
      </trkpt>
      <trkpt lat="45.5322" lon="1.80193">
        <ele>508.2</ele>
        <time>2022-08-04T10:21:13Z</time>
      </trkpt>
      <trkpt lat="45.5322" lon="1.80193">
        <ele>508.2</ele>
        <time>2022-08-04T10:21:15Z</time>
      </trkpt>
      <trkpt lat="45.5322" lon="1.80193">
        <ele>508.2</ele>
        <time>2022-08-04T10:21:17Z</time>
      </trkpt>
      <trkpt lat="45.5322" lon="1.80193">
        <ele>508.2</ele>
        <time>2022-08-04T10:21:19Z</time>
      </trkpt>
      <trkpt lat="45.53227" lon="1.80202">
        <ele>508.2</ele>
        <time>2022-08-04T10:51:03Z</time>
      </trkpt>
      <trkpt lat="45.53229" lon="1.80206">
        <ele>508.2</ele>
        <time>2022-08-04T10:51:05Z</time>
      </trkpt>
      <trkpt lat="45.53233" lon="1.80208">
        <ele>508.2</ele>
        <time>2022-08-04T10:51:07Z</time>
      </trkpt>
      <trkpt lat="45.53236" lon="1.80211">
        <ele>508.2</ele>
        <time>2022-08-04T10:51:09Z</time>
      </trkpt>
      <trkpt lat="45.53237" lon="1.80215">
        <ele>508.2</ele>
        <time>2022-08-04T10:51:11Z</time>
      </trkpt>
      <trkpt lat="45.53239" lon="1.80221">
        <ele>508.2</ele>
        <time>2022-08-04T10:51:13Z</time>
      </trkpt>
      <trkpt lat="45.53239" lon="1.80228">
        <ele>508.2</ele>
        <time>2022-08-04T10:51:15Z</time>
      </trkpt>
      <trkpt lat="45.53238" lon="1.80233">
        <ele>508.2</ele>
        <time>2022-08-04T10:51:17Z</time>
      </trkpt>
      <trkpt lat="45.53238" lon="1.80239">
        <ele>508.3</ele>
        <time>2022-08-04T10:51:19Z</time>
      </trkpt>
      <trkpt lat="45.53238" lon="1.80242">
        <ele>508.3</ele>
        <time>2022-08-04T10:51:21Z</time>
      </trkpt>
      <trkpt lat="45.53239" lon="1.80245">
        <ele>508.2</ele>
        <time>2022-08-04T10:51:23Z</time>
      </trkpt>
      <trkpt lat="45.53239" lon="1.8025">
        <ele>508.3</ele>
        <time>2022-08-04T10:51:25Z</time>
      </trkpt>
      <trkpt lat="45.53238" lon="1.80256">
        <ele>508.4</ele>
        <time>2022-08-04T10:51:27Z</time>
      </trkpt>
      <trkpt lat="45.5324" lon="1.80259">
        <ele>508.4</ele>
        <time>2022-08-04T10:51:29Z</time>
      </trkpt>
      <trkpt lat="45.53244" lon="1.80261">
        <ele>508.3</ele>
        <time>2022-08-04T10:51:31Z</time>
      </trkpt>
      <trkpt lat="45.5325" lon="1.80261">
        <ele>508.2</ele>
        <time>2022-08-04T10:51:33Z</time>
      </trkpt>
      <trkpt lat="45.53255" lon="1.80264">
        <ele>508.3</ele>
        <time>2022-08-04T10:51:35Z</time>
      </trkpt>
      <trkpt lat="45.5326" lon="1.80269">
        <ele>508.5</ele>
        <time>2022-08-04T10:51:37Z</time>
      </trkpt>
      <trkpt lat="45.53263" lon="1.80276">
        <ele>508.6</ele>
        <time>2022-08-04T10:51:39Z</time>
      </trkpt>
      <trkpt lat="45.53264" lon="1.80284">
        <ele>508.7</ele>
        <time>2022-08-04T10:51:41Z</time>
      </trkpt>
      <trkpt lat="45.53266" lon="1.8029">
        <ele>508.8</ele>
        <time>2022-08-04T10:51:43Z</time>
      </trkpt>
      <trkpt lat="45.53268" lon="1.80298">
        <ele>508.8</ele>
        <time>2022-08-04T10:51:45Z</time>
      </trkpt>
      <trkpt lat="45.5327" lon="1.80304">
        <ele>508.9</ele>
        <time>2022-08-04T10:51:47Z</time>
      </trkpt>
      <trkpt lat="45.53272" lon="1.80311">
        <ele>508.9</ele>
        <time>2022-08-04T10:51:49Z</time>
      </trkpt>
      <trkpt lat="45.53273" lon="1.80318">
        <ele>509</ele>
        <time>2022-08-04T10:51:51Z</time>
      </trkpt>
      <trkpt lat="45.53274" lon="1.80326">
        <ele>509</ele>
        <time>2022-08-04T10:51:53Z</time>
      </trkpt>
      <trkpt lat="45.53273" lon="1.80333">
        <ele>509</ele>
        <time>2022-08-04T10:51:55Z</time>
      </trkpt>
      <trkpt lat="45.53272" lon="1.80339">
        <ele>509.4</ele>
        <time>2022-08-04T10:51:57Z</time>
      </trkpt>
      <trkpt lat="45.53272" lon="1.80345">
        <ele>509.8</ele>
        <time>2022-08-04T10:51:59Z</time>
      </trkpt>
      <trkpt lat="45.53273" lon="1.80352">
        <ele>510.2</ele>
        <time>2022-08-04T10:52:01Z</time>
      </trkpt>
      <trkpt lat="45.53274" lon="1.80358">
        <ele>510.5</ele>
        <time>2022-08-04T10:52:03Z</time>
      </trkpt>
      <trkpt lat="45.53275" lon="1.80364">
        <ele>511</ele>
        <time>2022-08-04T10:52:05Z</time>
      </trkpt>
      <trkpt lat="45.53276" lon="1.80371">
        <ele>511.4</ele>
        <time>2022-08-04T10:52:07Z</time>
      </trkpt>
      <trkpt lat="45.53277" lon="1.80377">
        <ele>511.8</ele>
        <time>2022-08-04T10:52:09Z</time>
      </trkpt>
      <trkpt lat="45.53278" lon="1.80382">
        <ele>512.1</ele>
        <time>2022-08-04T10:52:11Z</time>
      </trkpt>
      <trkpt lat="45.53278" lon="1.80388">
        <ele>512.5</ele>
        <time>2022-08-04T10:52:13Z</time>
      </trkpt>
      <trkpt lat="45.53279" lon="1.80394">
        <ele>512.9</ele>
        <time>2022-08-04T10:52:15Z</time>
      </trkpt>
      <trkpt lat="45.5328" lon="1.804">
        <ele>513.3</ele>
        <time>2022-08-04T10:52:17Z</time>
      </trkpt>
      <trkpt lat="45.53281" lon="1.80406">
        <ele>513.7</ele>
        <time>2022-08-04T10:52:19Z</time>
      </trkpt>
      <trkpt lat="45.53282" lon="1.80412">
        <ele>514.1</ele>
        <time>2022-08-04T10:52:21Z</time>
      </trkpt>
      <trkpt lat="45.53283" lon="1.80418">
        <ele>514.5</ele>
        <time>2022-08-04T10:52:23Z</time>
      </trkpt>
      <trkpt lat="45.53284" lon="1.80424">
        <ele>514.9</ele>
        <time>2022-08-04T10:52:25Z</time>
      </trkpt>
      <trkpt lat="45.53285" lon="1.80429">
        <ele>515.3</ele>
        <time>2022-08-04T10:52:27Z</time>
      </trkpt>
      <trkpt lat="45.53286" lon="1.80435">
        <ele>515.7</ele>
        <time>2022-08-04T10:52:29Z</time>
      </trkpt>
      <trkpt lat="45.53286" lon="1.8044">
        <ele>516.1</ele>
        <time>2022-08-04T10:52:31Z</time>
      </trkpt>
      <trkpt lat="45.53287" lon="1.80446">
        <ele>516.6</ele>
        <time>2022-08-04T10:52:33Z</time>
      </trkpt>
      <trkpt lat="45.53288" lon="1.80452">
        <ele>517</ele>
        <time>2022-08-04T10:52:35Z</time>
      </trkpt>
      <trkpt lat="45.53289" lon="1.80458">
        <ele>517.4</ele>
        <time>2022-08-04T10:52:37Z</time>
      </trkpt>
      <trkpt lat="45.53291" lon="1.80463">
        <ele>517.8</ele>
        <time>2022-08-04T10:52:39Z</time>
      </trkpt>
      <trkpt lat="45.53291" lon="1.80469">
        <ele>518.3</ele>
        <time>2022-08-04T10:52:41Z</time>
      </trkpt>
      <trkpt lat="45.53292" lon="1.80475">
        <ele>518.7</ele>
        <time>2022-08-04T10:52:43Z</time>
      </trkpt>
      <trkpt lat="45.53293" lon="1.8048">
        <ele>519.1</ele>
        <time>2022-08-04T10:52:45Z</time>
      </trkpt>
      <trkpt lat="45.53294" lon="1.80486">
        <ele>519.5</ele>
        <time>2022-08-04T10:52:47Z</time>
      </trkpt>
      <trkpt lat="45.53294" lon="1.80492">
        <ele>519.9</ele>
        <time>2022-08-04T10:52:49Z</time>
      </trkpt>
      <trkpt lat="45.53295" lon="1.80498">
        <ele>520.4</ele>
        <time>2022-08-04T10:52:51Z</time>
      </trkpt>
      <trkpt lat="45.53296" lon="1.80503">
        <ele>520.6</ele>
        <time>2022-08-04T10:52:53Z</time>
      </trkpt>
      <trkpt lat="45.53296" lon="1.80509">
        <ele>520.7</ele>
        <time>2022-08-04T10:52:55Z</time>
      </trkpt>
      <trkpt lat="45.53297" lon="1.80514">
        <ele>520.9</ele>
        <time>2022-08-04T10:52:57Z</time>
      </trkpt>
      <trkpt lat="45.53298" lon="1.80519">
        <ele>521</ele>
        <time>2022-08-04T10:52:59Z</time>
      </trkpt>
      <trkpt lat="45.53298" lon="1.80524">
        <ele>521.1</ele>
        <time>2022-08-04T10:53:01Z</time>
      </trkpt>
      <trkpt lat="45.53299" lon="1.80529">
        <ele>521.2</ele>
        <time>2022-08-04T10:53:03Z</time>
      </trkpt>
      <trkpt lat="45.533" lon="1.80534">
        <ele>521.3</ele>
        <time>2022-08-04T10:53:05Z</time>
      </trkpt>
      <trkpt lat="45.53301" lon="1.80539">
        <ele>521.5</ele>
        <time>2022-08-04T10:53:07Z</time>
      </trkpt>
      <trkpt lat="45.53302" lon="1.80544">
        <ele>521.5</ele>
        <time>2022-08-04T10:53:09Z</time>
      </trkpt>
      <trkpt lat="45.53302" lon="1.80549">
        <ele>521.7</ele>
        <time>2022-08-04T10:53:11Z</time>
      </trkpt>
      <trkpt lat="45.53302" lon="1.80553">
        <ele>521.7</ele>
        <time>2022-08-04T10:53:13Z</time>
      </trkpt>
      <trkpt lat="45.53303" lon="1.80558">
        <ele>521.8</ele>
        <time>2022-08-04T10:53:15Z</time>
      </trkpt>
      <trkpt lat="45.53303" lon="1.80563">
        <ele>521.9</ele>
        <time>2022-08-04T10:53:17Z</time>
      </trkpt>
      <trkpt lat="45.53304" lon="1.80568">
        <ele>522</ele>
        <time>2022-08-04T10:53:19Z</time>
      </trkpt>
      <trkpt lat="45.53304" lon="1.80573">
        <ele>522.2</ele>
        <time>2022-08-04T10:53:21Z</time>
      </trkpt>
      <trkpt lat="45.53304" lon="1.80579">
        <ele>522.3</ele>
        <time>2022-08-04T10:53:23Z</time>
      </trkpt>
      <trkpt lat="45.53305" lon="1.80584">
        <ele>522.3</ele>
        <time>2022-08-04T10:53:25Z</time>
      </trkpt>
      <trkpt lat="45.53306" lon="1.8059">
        <ele>522.3</ele>
        <time>2022-08-04T10:53:27Z</time>
      </trkpt>
      <trkpt lat="45.53305" lon="1.80596">
        <ele>522.2</ele>
        <time>2022-08-04T10:53:29Z</time>
      </trkpt>
      <trkpt lat="45.53306" lon="1.80603">
        <ele>522.2</ele>
        <time>2022-08-04T10:53:31Z</time>
      </trkpt>
      <trkpt lat="45.53306" lon="1.80609">
        <ele>522.1</ele>
        <time>2022-08-04T10:53:33Z</time>
      </trkpt>
      <trkpt lat="45.53307" lon="1.80616">
        <ele>522</ele>
        <time>2022-08-04T10:53:35Z</time>
      </trkpt>
      <trkpt lat="45.53308" lon="1.80624">
        <ele>522</ele>
        <time>2022-08-04T10:53:37Z</time>
      </trkpt>
      <trkpt lat="45.53309" lon="1.80633">
        <ele>521.9</ele>
        <time>2022-08-04T10:53:39Z</time>
      </trkpt>
      <trkpt lat="45.53309" lon="1.80642">
        <ele>521.8</ele>
        <time>2022-08-04T10:53:41Z</time>
      </trkpt>
      <trkpt lat="45.5331" lon="1.80652">
        <ele>521.7</ele>
        <time>2022-08-04T10:53:43Z</time>
      </trkpt>
      <trkpt lat="45.53311" lon="1.80662">
        <ele>521.6</ele>
        <time>2022-08-04T10:53:45Z</time>
      </trkpt>
      <trkpt lat="45.53312" lon="1.80673">
        <ele>521.2</ele>
        <time>2022-08-04T10:53:47Z</time>
      </trkpt>
      <trkpt lat="45.53313" lon="1.80686">
        <ele>520.5</ele>
        <time>2022-08-04T10:53:49Z</time>
      </trkpt>
      <trkpt lat="45.53314" lon="1.807">
        <ele>519.8</ele>
        <time>2022-08-04T10:53:51Z</time>
      </trkpt>
      <trkpt lat="45.53315" lon="1.80715">
        <ele>519</ele>
        <time>2022-08-04T10:53:53Z</time>
      </trkpt>
      <trkpt lat="45.53317" lon="1.80732">
        <ele>518.1</ele>
        <time>2022-08-04T10:53:55Z</time>
      </trkpt>
      <trkpt lat="45.53321" lon="1.80749">
        <ele>517.2</ele>
        <time>2022-08-04T10:53:57Z</time>
      </trkpt>
      <trkpt lat="45.53326" lon="1.80767">
        <ele>516.5</ele>
        <time>2022-08-04T10:53:59Z</time>
      </trkpt>
      <trkpt lat="45.53332" lon="1.80785">
        <ele>515.8</ele>
        <time>2022-08-04T10:54:01Z</time>
      </trkpt>
      <trkpt lat="45.53338" lon="1.80804">
        <ele>515.2</ele>
        <time>2022-08-04T10:54:03Z</time>
      </trkpt>
      <trkpt lat="45.53344" lon="1.80821">
        <ele>514.6</ele>
        <time>2022-08-04T10:54:05Z</time>
      </trkpt>
      <trkpt lat="45.5335" lon="1.80838">
        <ele>514.4</ele>
        <time>2022-08-04T10:54:07Z</time>
      </trkpt>
      <trkpt lat="45.53356" lon="1.80852">
        <ele>515</ele>
        <time>2022-08-04T10:54:09Z</time>
      </trkpt>
      <trkpt lat="45.53363" lon="1.80864">
        <ele>515.6</ele>
        <time>2022-08-04T10:54:11Z</time>
      </trkpt>
      <trkpt lat="45.53369" lon="1.80872">
        <ele>515.9</ele>
        <time>2022-08-04T10:54:13Z</time>
      </trkpt>
      <trkpt lat="45.53376" lon="1.80878">
        <ele>516.1</ele>
        <time>2022-08-04T10:54:15Z</time>
      </trkpt>
      <trkpt lat="45.53381" lon="1.80883">
        <ele>516.3</ele>
        <time>2022-08-04T10:54:17Z</time>
      </trkpt>
      <trkpt lat="45.53386" lon="1.80886">
        <ele>516.4</ele>
        <time>2022-08-04T10:54:19Z</time>
      </trkpt>
      <trkpt lat="45.53391" lon="1.8089">
        <ele>516.5</ele>
        <time>2022-08-04T10:54:21Z</time>
      </trkpt>
      <trkpt lat="45.53396" lon="1.80892">
        <ele>516.5</ele>
        <time>2022-08-04T10:54:23Z</time>
      </trkpt>
      <trkpt lat="45.53399" lon="1.80895">
        <ele>516.6</ele>
        <time>2022-08-04T10:54:25Z</time>
      </trkpt>
      <trkpt lat="45.53402" lon="1.80898">
        <ele>516.6</ele>
        <time>2022-08-04T10:54:27Z</time>
      </trkpt>
      <trkpt lat="45.53406" lon="1.80901">
        <ele>516.7</ele>
        <time>2022-08-04T10:54:29Z</time>
      </trkpt>
      <trkpt lat="45.5341" lon="1.80903">
        <ele>516.7</ele>
        <time>2022-08-04T10:54:31Z</time>
      </trkpt>
      <trkpt lat="45.53414" lon="1.80906">
        <ele>516.8</ele>
        <time>2022-08-04T10:54:33Z</time>
      </trkpt>
      <trkpt lat="45.53417" lon="1.80908">
        <ele>516.8</ele>
        <time>2022-08-04T10:54:35Z</time>
      </trkpt>
      <trkpt lat="45.53421" lon="1.80911">
        <ele>516.9</ele>
        <time>2022-08-04T10:54:37Z</time>
      </trkpt>
      <trkpt lat="45.53425" lon="1.80914">
        <ele>517</ele>
        <time>2022-08-04T10:54:39Z</time>
      </trkpt>
      <trkpt lat="45.53429" lon="1.80917">
        <ele>517.1</ele>
        <time>2022-08-04T10:54:41Z</time>
      </trkpt>
      <trkpt lat="45.53433" lon="1.8092">
        <ele>517.6</ele>
        <time>2022-08-04T10:54:43Z</time>
      </trkpt>
      <trkpt lat="45.53436" lon="1.80923">
        <ele>518</ele>
        <time>2022-08-04T10:54:45Z</time>
      </trkpt>
      <trkpt lat="45.53439" lon="1.80926">
        <ele>518.4</ele>
        <time>2022-08-04T10:54:47Z</time>
      </trkpt>
      <trkpt lat="45.53442" lon="1.8093">
        <ele>518.9</ele>
        <time>2022-08-04T10:54:49Z</time>
      </trkpt>
      <trkpt lat="45.53445" lon="1.80934">
        <ele>519.4</ele>
        <time>2022-08-04T10:54:51Z</time>
      </trkpt>
      <trkpt lat="45.53448" lon="1.80939">
        <ele>520</ele>
        <time>2022-08-04T10:54:53Z</time>
      </trkpt>
      <trkpt lat="45.5345" lon="1.80943">
        <ele>520.5</ele>
        <time>2022-08-04T10:54:55Z</time>
      </trkpt>
      <trkpt lat="45.53453" lon="1.80948">
        <ele>521</ele>
        <time>2022-08-04T10:54:57Z</time>
      </trkpt>
      <trkpt lat="45.53455" lon="1.80952">
        <ele>521.6</ele>
        <time>2022-08-04T10:54:59Z</time>
      </trkpt>
      <trkpt lat="45.53457" lon="1.80957">
        <ele>522.1</ele>
        <time>2022-08-04T10:55:01Z</time>
      </trkpt>
      <trkpt lat="45.53459" lon="1.80962">
        <ele>522.7</ele>
        <time>2022-08-04T10:55:03Z</time>
      </trkpt>
      <trkpt lat="45.53461" lon="1.80967">
        <ele>523.2</ele>
        <time>2022-08-04T10:55:05Z</time>
      </trkpt>
      <trkpt lat="45.53463" lon="1.80971">
        <ele>523.7</ele>
        <time>2022-08-04T10:55:07Z</time>
      </trkpt>
      <trkpt lat="45.53465" lon="1.80976">
        <ele>524.2</ele>
        <time>2022-08-04T10:55:09Z</time>
      </trkpt>
      <trkpt lat="45.53467" lon="1.80981">
        <ele>524.7</ele>
        <time>2022-08-04T10:55:11Z</time>
      </trkpt>
      <trkpt lat="45.53468" lon="1.80985">
        <ele>525.1</ele>
        <time>2022-08-04T10:55:13Z</time>
      </trkpt>
      <trkpt lat="45.5347" lon="1.8099">
        <ele>525.6</ele>
        <time>2022-08-04T10:55:15Z</time>
      </trkpt>
      <trkpt lat="45.53472" lon="1.80994">
        <ele>526.1</ele>
        <time>2022-08-04T10:55:17Z</time>
      </trkpt>
      <trkpt lat="45.53474" lon="1.80998">
        <ele>526.4</ele>
        <time>2022-08-04T10:55:19Z</time>
      </trkpt>
      <trkpt lat="45.53476" lon="1.81003">
        <ele>526.7</ele>
        <time>2022-08-04T10:55:21Z</time>
      </trkpt>
      <trkpt lat="45.53477" lon="1.81008">
        <ele>527</ele>
        <time>2022-08-04T10:55:23Z</time>
      </trkpt>
      <trkpt lat="45.53478" lon="1.81012">
        <ele>527.2</ele>
        <time>2022-08-04T10:55:25Z</time>
      </trkpt>
      <trkpt lat="45.5348" lon="1.81017">
        <ele>527.4</ele>
        <time>2022-08-04T10:55:27Z</time>
      </trkpt>
      <trkpt lat="45.53481" lon="1.81022">
        <ele>527.6</ele>
        <time>2022-08-04T10:55:29Z</time>
      </trkpt>
      <trkpt lat="45.53482" lon="1.81026">
        <ele>527.8</ele>
        <time>2022-08-04T10:55:31Z</time>
      </trkpt>
      <trkpt lat="45.53483" lon="1.81032">
        <ele>528.1</ele>
        <time>2022-08-04T10:55:33Z</time>
      </trkpt>
      <trkpt lat="45.53484" lon="1.81036">
        <ele>528.3</ele>
        <time>2022-08-04T10:55:35Z</time>
      </trkpt>
      <trkpt lat="45.53484" lon="1.8104">
        <ele>528.5</ele>
        <time>2022-08-04T10:55:37Z</time>
      </trkpt>
      <trkpt lat="45.53485" lon="1.81044">
        <ele>528.6</ele>
        <time>2022-08-04T10:55:39Z</time>
      </trkpt>
      <trkpt lat="45.53485" lon="1.81048">
        <ele>528.8</ele>
        <time>2022-08-04T10:55:41Z</time>
      </trkpt>
      <trkpt lat="45.53485" lon="1.81052">
        <ele>529</ele>
        <time>2022-08-04T10:55:43Z</time>
      </trkpt>
      <trkpt lat="45.53486" lon="1.81057">
        <ele>529.2</ele>
        <time>2022-08-04T10:55:45Z</time>
      </trkpt>
      <trkpt lat="45.53486" lon="1.81061">
        <ele>529.4</ele>
        <time>2022-08-04T10:55:47Z</time>
      </trkpt>
      <trkpt lat="45.53485" lon="1.81065">
        <ele>529.6</ele>
        <time>2022-08-04T10:55:49Z</time>
      </trkpt>
      <trkpt lat="45.53485" lon="1.81069">
        <ele>529.9</ele>
        <time>2022-08-04T10:55:51Z</time>
      </trkpt>
      <trkpt lat="45.53485" lon="1.81074">
        <ele>530.1</ele>
        <time>2022-08-04T10:55:53Z</time>
      </trkpt>
      <trkpt lat="45.53485" lon="1.81078">
        <ele>530.4</ele>
        <time>2022-08-04T10:55:55Z</time>
      </trkpt>
      <trkpt lat="45.53484" lon="1.81082">
        <ele>530.7</ele>
        <time>2022-08-04T10:55:57Z</time>
      </trkpt>
      <trkpt lat="45.53484" lon="1.81086">
        <ele>531</ele>
        <time>2022-08-04T10:55:59Z</time>
      </trkpt>
      <trkpt lat="45.53483" lon="1.8109">
        <ele>531.5</ele>
        <time>2022-08-04T10:56:01Z</time>
      </trkpt>
      <trkpt lat="45.53482" lon="1.81095">
        <ele>531.9</ele>
        <time>2022-08-04T10:56:03Z</time>
      </trkpt>
      <trkpt lat="45.53482" lon="1.81099">
        <ele>532.3</ele>
        <time>2022-08-04T10:56:05Z</time>
      </trkpt>
      <trkpt lat="45.53481" lon="1.81103">
        <ele>532.8</ele>
        <time>2022-08-04T10:56:07Z</time>
      </trkpt>
      <trkpt lat="45.5348" lon="1.81107">
        <ele>533.3</ele>
        <time>2022-08-04T10:56:09Z</time>
      </trkpt>
      <trkpt lat="45.53479" lon="1.81111">
        <ele>533.7</ele>
        <time>2022-08-04T10:56:11Z</time>
      </trkpt>
      <trkpt lat="45.53478" lon="1.81115">
        <ele>534.1</ele>
        <time>2022-08-04T10:56:13Z</time>
      </trkpt>
      <trkpt lat="45.53476" lon="1.81119">
        <ele>534.6</ele>
        <time>2022-08-04T10:56:15Z</time>
      </trkpt>
      <trkpt lat="45.53475" lon="1.81122">
        <ele>535</ele>
        <time>2022-08-04T10:56:17Z</time>
      </trkpt>
      <trkpt lat="45.53474" lon="1.81126">
        <ele>535.4</ele>
        <time>2022-08-04T10:56:19Z</time>
      </trkpt>
      <trkpt lat="45.53473" lon="1.81129">
        <ele>535.8</ele>
        <time>2022-08-04T10:56:21Z</time>
      </trkpt>
      <trkpt lat="45.53472" lon="1.81133">
        <ele>536.2</ele>
        <time>2022-08-04T10:56:23Z</time>
      </trkpt>
      <trkpt lat="45.5347" lon="1.81136">
        <ele>536.6</ele>
        <time>2022-08-04T10:56:25Z</time>
      </trkpt>
      <trkpt lat="45.53469" lon="1.8114">
        <ele>537</ele>
        <time>2022-08-04T10:56:27Z</time>
      </trkpt>
      <trkpt lat="45.53468" lon="1.81143">
        <ele>537.4</ele>
        <time>2022-08-04T10:56:29Z</time>
      </trkpt>
      <trkpt lat="45.53467" lon="1.81147">
        <ele>537.7</ele>
        <time>2022-08-04T10:56:31Z</time>
      </trkpt>
      <trkpt lat="45.53466" lon="1.8115">
        <ele>538.1</ele>
        <time>2022-08-04T10:56:33Z</time>
      </trkpt>
      <trkpt lat="45.53465" lon="1.81154">
        <ele>538.4</ele>
        <time>2022-08-04T10:56:35Z</time>
      </trkpt>
      <trkpt lat="45.53464" lon="1.81157">
        <ele>538.8</ele>
        <time>2022-08-04T10:56:37Z</time>
      </trkpt>
      <trkpt lat="45.53463" lon="1.8116">
        <ele>539.2</ele>
        <time>2022-08-04T10:56:39Z</time>
      </trkpt>
      <trkpt lat="45.53462" lon="1.81164">
        <ele>539.5</ele>
        <time>2022-08-04T10:56:41Z</time>
      </trkpt>
      <trkpt lat="45.53461" lon="1.81167">
        <ele>539.9</ele>
        <time>2022-08-04T10:56:43Z</time>
      </trkpt>
      <trkpt lat="45.53459" lon="1.81171">
        <ele>540.3</ele>
        <time>2022-08-04T10:56:45Z</time>
      </trkpt>
      <trkpt lat="45.53458" lon="1.81174">
        <ele>540.7</ele>
        <time>2022-08-04T10:56:47Z</time>
      </trkpt>
      <trkpt lat="45.53457" lon="1.81177">
        <ele>541</ele>
        <time>2022-08-04T10:56:49Z</time>
      </trkpt>
      <trkpt lat="45.53456" lon="1.8118">
        <ele>541.4</ele>
        <time>2022-08-04T10:56:51Z</time>
      </trkpt>
      <trkpt lat="45.53455" lon="1.81184">
        <ele>541.8</ele>
        <time>2022-08-04T10:56:53Z</time>
      </trkpt>
      <trkpt lat="45.53454" lon="1.81187">
        <ele>542.1</ele>
        <time>2022-08-04T10:56:55Z</time>
      </trkpt>
      <trkpt lat="45.53453" lon="1.8119">
        <ele>542.5</ele>
        <time>2022-08-04T10:56:57Z</time>
      </trkpt>
      <trkpt lat="45.53452" lon="1.81194">
        <ele>542.8</ele>
        <time>2022-08-04T10:56:59Z</time>
      </trkpt>
      <trkpt lat="45.5345" lon="1.81198">
        <ele>543.2</ele>
        <time>2022-08-04T10:57:01Z</time>
      </trkpt>
      <trkpt lat="45.53449" lon="1.81201">
        <ele>543.5</ele>
        <time>2022-08-04T10:57:03Z</time>
      </trkpt>
      <trkpt lat="45.53447" lon="1.81204">
        <ele>543.9</ele>
        <time>2022-08-04T10:57:05Z</time>
      </trkpt>
      <trkpt lat="45.53446" lon="1.81207">
        <ele>544.2</ele>
        <time>2022-08-04T10:57:07Z</time>
      </trkpt>
      <trkpt lat="45.53445" lon="1.81211">
        <ele>544.5</ele>
        <time>2022-08-04T10:57:09Z</time>
      </trkpt>
      <trkpt lat="45.53443" lon="1.81215">
        <ele>544.9</ele>
        <time>2022-08-04T10:57:11Z</time>
      </trkpt>
      <trkpt lat="45.53442" lon="1.81218">
        <ele>545.2</ele>
        <time>2022-08-04T10:57:13Z</time>
      </trkpt>
      <trkpt lat="45.53441" lon="1.81221">
        <ele>545.5</ele>
        <time>2022-08-04T10:57:15Z</time>
      </trkpt>
      <trkpt lat="45.53439" lon="1.81225">
        <ele>545.8</ele>
        <time>2022-08-04T10:57:17Z</time>
      </trkpt>
      <trkpt lat="45.53438" lon="1.81229">
        <ele>546.1</ele>
        <time>2022-08-04T10:57:19Z</time>
      </trkpt>
      <trkpt lat="45.53436" lon="1.81232">
        <ele>546.4</ele>
        <time>2022-08-04T10:57:21Z</time>
      </trkpt>
      <trkpt lat="45.53435" lon="1.81236">
        <ele>546.7</ele>
        <time>2022-08-04T10:57:23Z</time>
      </trkpt>
      <trkpt lat="45.53433" lon="1.81239">
        <ele>547</ele>
        <time>2022-08-04T10:57:25Z</time>
      </trkpt>
      <trkpt lat="45.53432" lon="1.81243">
        <ele>547.3</ele>
        <time>2022-08-04T10:57:27Z</time>
      </trkpt>
      <trkpt lat="45.53431" lon="1.81246">
        <ele>547.5</ele>
        <time>2022-08-04T10:57:29Z</time>
      </trkpt>
      <trkpt lat="45.53429" lon="1.81249">
        <ele>547.8</ele>
        <time>2022-08-04T10:57:31Z</time>
      </trkpt>
      <trkpt lat="45.53427" lon="1.81252">
        <ele>548</ele>
        <time>2022-08-04T10:57:33Z</time>
      </trkpt>
      <trkpt lat="45.53425" lon="1.81255">
        <ele>548.1</ele>
        <time>2022-08-04T10:57:35Z</time>
      </trkpt>
      <trkpt lat="45.53423" lon="1.81259">
        <ele>548.2</ele>
        <time>2022-08-04T10:57:37Z</time>
      </trkpt>
      <trkpt lat="45.53421" lon="1.81262">
        <ele>548.3</ele>
        <time>2022-08-04T10:57:39Z</time>
      </trkpt>
      <trkpt lat="45.53419" lon="1.81265">
        <ele>548.4</ele>
        <time>2022-08-04T10:57:41Z</time>
      </trkpt>
      <trkpt lat="45.53417" lon="1.81268">
        <ele>548.4</ele>
        <time>2022-08-04T10:57:43Z</time>
      </trkpt>
      <trkpt lat="45.53415" lon="1.81271">
        <ele>548.5</ele>
        <time>2022-08-04T10:57:45Z</time>
      </trkpt>
      <trkpt lat="45.53413" lon="1.81273">
        <ele>548.7</ele>
        <time>2022-08-04T10:57:47Z</time>
      </trkpt>
      <trkpt lat="45.53411" lon="1.81276">
        <ele>548.8</ele>
        <time>2022-08-04T10:57:49Z</time>
      </trkpt>
      <trkpt lat="45.53409" lon="1.81278">
        <ele>548.9</ele>
        <time>2022-08-04T10:57:51Z</time>
      </trkpt>
      <trkpt lat="45.53407" lon="1.81281">
        <ele>549</ele>
        <time>2022-08-04T10:57:53Z</time>
      </trkpt>
      <trkpt lat="45.53404" lon="1.81283">
        <ele>549.2</ele>
        <time>2022-08-04T10:57:55Z</time>
      </trkpt>
      <trkpt lat="45.53402" lon="1.81286">
        <ele>549.3</ele>
        <time>2022-08-04T10:57:57Z</time>
      </trkpt>
      <trkpt lat="45.534" lon="1.81288">
        <ele>549.4</ele>
        <time>2022-08-04T10:57:59Z</time>
      </trkpt>
      <trkpt lat="45.53398" lon="1.8129">
        <ele>549.5</ele>
        <time>2022-08-04T10:58:01Z</time>
      </trkpt>
      <trkpt lat="45.53395" lon="1.81292">
        <ele>549.7</ele>
        <time>2022-08-04T10:58:03Z</time>
      </trkpt>
      <trkpt lat="45.53393" lon="1.81295">
        <ele>549.8</ele>
        <time>2022-08-04T10:58:05Z</time>
      </trkpt>
      <trkpt lat="45.53391" lon="1.81297">
        <ele>549.9</ele>
        <time>2022-08-04T10:58:07Z</time>
      </trkpt>
      <trkpt lat="45.53389" lon="1.81299">
        <ele>550.1</ele>
        <time>2022-08-04T10:58:09Z</time>
      </trkpt>
      <trkpt lat="45.53386" lon="1.81302">
        <ele>550.2</ele>
        <time>2022-08-04T10:58:11Z</time>
      </trkpt>
      <trkpt lat="45.53384" lon="1.81304">
        <ele>550.3</ele>
        <time>2022-08-04T10:58:13Z</time>
      </trkpt>
      <trkpt lat="45.53382" lon="1.81307">
        <ele>550.5</ele>
        <time>2022-08-04T10:58:15Z</time>
      </trkpt>
      <trkpt lat="45.53379" lon="1.81309">
        <ele>550.7</ele>
        <time>2022-08-04T10:58:17Z</time>
      </trkpt>
      <trkpt lat="45.53376" lon="1.81312">
        <ele>550.8</ele>
        <time>2022-08-04T10:58:19Z</time>
      </trkpt>
      <trkpt lat="45.53374" lon="1.81315">
        <ele>551</ele>
        <time>2022-08-04T10:58:21Z</time>
      </trkpt>
      <trkpt lat="45.53371" lon="1.81318">
        <ele>551.2</ele>
        <time>2022-08-04T10:58:23Z</time>
      </trkpt>
      <trkpt lat="45.53368" lon="1.8132">
        <ele>551.3</ele>
        <time>2022-08-04T10:58:25Z</time>
      </trkpt>
      <trkpt lat="45.53365" lon="1.81323">
        <ele>551.5</ele>
        <time>2022-08-04T10:58:27Z</time>
      </trkpt>
      <trkpt lat="45.53363" lon="1.81326">
        <ele>551.7</ele>
        <time>2022-08-04T10:58:29Z</time>
      </trkpt>
      <trkpt lat="45.5336" lon="1.81329">
        <ele>551.9</ele>
        <time>2022-08-04T10:58:31Z</time>
      </trkpt>
      <trkpt lat="45.53358" lon="1.81331">
        <ele>552.1</ele>
        <time>2022-08-04T10:58:33Z</time>
      </trkpt>
      <trkpt lat="45.53355" lon="1.81334">
        <ele>552.2</ele>
        <time>2022-08-04T10:58:35Z</time>
      </trkpt>
      <trkpt lat="45.53352" lon="1.81337">
        <ele>552.5</ele>
        <time>2022-08-04T10:58:37Z</time>
      </trkpt>
      <trkpt lat="45.5335" lon="1.81339">
        <ele>552.7</ele>
        <time>2022-08-04T10:58:39Z</time>
      </trkpt>
      <trkpt lat="45.53347" lon="1.81342">
        <ele>552.9</ele>
        <time>2022-08-04T10:58:41Z</time>
      </trkpt>
      <trkpt lat="45.53344" lon="1.81345">
        <ele>553.2</ele>
        <time>2022-08-04T10:58:43Z</time>
      </trkpt>
      <trkpt lat="45.53341" lon="1.81348">
        <ele>553.4</ele>
        <time>2022-08-04T10:58:45Z</time>
      </trkpt>
      <trkpt lat="45.53338" lon="1.81351">
        <ele>553.7</ele>
        <time>2022-08-04T10:58:47Z</time>
      </trkpt>
      <trkpt lat="45.53335" lon="1.81354">
        <ele>553.9</ele>
        <time>2022-08-04T10:58:49Z</time>
      </trkpt>
      <trkpt lat="45.53332" lon="1.81357">
        <ele>554.2</ele>
        <time>2022-08-04T10:58:51Z</time>
      </trkpt>
      <trkpt lat="45.53329" lon="1.8136">
        <ele>554.5</ele>
        <time>2022-08-04T10:58:53Z</time>
      </trkpt>
      <trkpt lat="45.53325" lon="1.81364">
        <ele>554.9</ele>
        <time>2022-08-04T10:58:55Z</time>
      </trkpt>
      <trkpt lat="45.53322" lon="1.81367">
        <ele>555.2</ele>
        <time>2022-08-04T10:58:57Z</time>
      </trkpt>
      <trkpt lat="45.53319" lon="1.8137">
        <ele>555.4</ele>
        <time>2022-08-04T10:58:59Z</time>
      </trkpt>
      <trkpt lat="45.53316" lon="1.81373">
        <ele>555.7</ele>
        <time>2022-08-04T10:59:01Z</time>
      </trkpt>
      <trkpt lat="45.53312" lon="1.81377">
        <ele>555.9</ele>
        <time>2022-08-04T10:59:03Z</time>
      </trkpt>
      <trkpt lat="45.53309" lon="1.8138">
        <ele>556.2</ele>
        <time>2022-08-04T10:59:05Z</time>
      </trkpt>
      <trkpt lat="45.53306" lon="1.81384">
        <ele>556.4</ele>
        <time>2022-08-04T10:59:07Z</time>
      </trkpt>
      <trkpt lat="45.53303" lon="1.81387">
        <ele>556.6</ele>
        <time>2022-08-04T10:59:09Z</time>
      </trkpt>
      <trkpt lat="45.533" lon="1.81391">
        <ele>556.8</ele>
        <time>2022-08-04T10:59:11Z</time>
      </trkpt>
      <trkpt lat="45.53297" lon="1.81395">
        <ele>557</ele>
        <time>2022-08-04T10:59:13Z</time>
      </trkpt>
      <trkpt lat="45.53294" lon="1.81398">
        <ele>557.1</ele>
        <time>2022-08-04T10:59:15Z</time>
      </trkpt>
      <trkpt lat="45.53291" lon="1.81403">
        <ele>557.3</ele>
        <time>2022-08-04T10:59:17Z</time>
      </trkpt>
      <trkpt lat="45.53289" lon="1.81407">
        <ele>557.4</ele>
        <time>2022-08-04T10:59:19Z</time>
      </trkpt>
      <trkpt lat="45.53286" lon="1.81411">
        <ele>557.5</ele>
        <time>2022-08-04T10:59:21Z</time>
      </trkpt>
      <trkpt lat="45.53283" lon="1.81415">
        <ele>557.6</ele>
        <time>2022-08-04T10:59:23Z</time>
      </trkpt>
      <trkpt lat="45.5328" lon="1.8142">
        <ele>557.7</ele>
        <time>2022-08-04T10:59:25Z</time>
      </trkpt>
      <trkpt lat="45.53278" lon="1.81424">
        <ele>557.7</ele>
        <time>2022-08-04T10:59:27Z</time>
      </trkpt>
      <trkpt lat="45.53277" lon="1.81426">
        <ele>557.7</ele>
        <time>2022-08-04T10:59:29Z</time>
      </trkpt>
      <trkpt lat="45.53276" lon="1.81429">
        <ele>557.7</ele>
        <time>2022-08-04T10:59:31Z</time>
      </trkpt>
      <trkpt lat="45.53274" lon="1.81433">
        <ele>557.7</ele>
        <time>2022-08-04T10:59:33Z</time>
      </trkpt>
      <trkpt lat="45.53273" lon="1.81437">
        <ele>557.7</ele>
        <time>2022-08-04T10:59:35Z</time>
      </trkpt>
      <trkpt lat="45.5327" lon="1.81442">
        <ele>557.7</ele>
        <time>2022-08-04T10:59:37Z</time>
      </trkpt>
      <trkpt lat="45.53269" lon="1.81447">
        <ele>557.7</ele>
        <time>2022-08-04T10:59:39Z</time>
      </trkpt>
      <trkpt lat="45.53267" lon="1.81452">
        <ele>557.7</ele>
        <time>2022-08-04T10:59:41Z</time>
      </trkpt>
      <trkpt lat="45.53265" lon="1.81458">
        <ele>557.7</ele>
        <time>2022-08-04T10:59:43Z</time>
      </trkpt>
      <trkpt lat="45.53264" lon="1.81463">
        <ele>557.6</ele>
        <time>2022-08-04T10:59:45Z</time>
      </trkpt>
      <trkpt lat="45.53262" lon="1.81469">
        <ele>557.6</ele>
        <time>2022-08-04T10:59:47Z</time>
      </trkpt>
      <trkpt lat="45.5326" lon="1.81475">
        <ele>557.5</ele>
        <time>2022-08-04T10:59:49Z</time>
      </trkpt>
      <trkpt lat="45.53258" lon="1.81482">
        <ele>557.4</ele>
        <time>2022-08-04T10:59:51Z</time>
      </trkpt>
      <trkpt lat="45.53256" lon="1.81489">
        <ele>557.3</ele>
        <time>2022-08-04T10:59:53Z</time>
      </trkpt>
      <trkpt lat="45.53254" lon="1.81497">
        <ele>557.2</ele>
        <time>2022-08-04T10:59:55Z</time>
      </trkpt>
      <trkpt lat="45.53253" lon="1.81505">
        <ele>557.1</ele>
        <time>2022-08-04T10:59:57Z</time>
      </trkpt>
      <trkpt lat="45.5325" lon="1.81513">
        <ele>557</ele>
        <time>2022-08-04T10:59:59Z</time>
      </trkpt>
      <trkpt lat="45.53248" lon="1.81521">
        <ele>557</ele>
        <time>2022-08-04T11:00:01Z</time>
      </trkpt>
      <trkpt lat="45.53246" lon="1.81531">
        <ele>557</ele>
        <time>2022-08-04T11:00:03Z</time>
      </trkpt>
      <trkpt lat="45.53243" lon="1.81542">
        <ele>556.9</ele>
        <time>2022-08-04T11:00:05Z</time>
      </trkpt>
      <trkpt lat="45.5324" lon="1.81553">
        <ele>556.7</ele>
        <time>2022-08-04T11:00:07Z</time>
      </trkpt>
      <trkpt lat="45.53237" lon="1.81566">
        <ele>556.5</ele>
        <time>2022-08-04T11:00:09Z</time>
      </trkpt>
      <trkpt lat="45.53234" lon="1.8158">
        <ele>556.3</ele>
        <time>2022-08-04T11:00:11Z</time>
      </trkpt>
      <trkpt lat="45.5323" lon="1.81594">
        <ele>556</ele>
        <time>2022-08-04T11:00:13Z</time>
      </trkpt>
      <trkpt lat="45.53227" lon="1.81609">
        <ele>555.9</ele>
        <time>2022-08-04T11:00:15Z</time>
      </trkpt>
      <trkpt lat="45.53223" lon="1.81626">
        <ele>555.7</ele>
        <time>2022-08-04T11:00:17Z</time>
      </trkpt>
      <trkpt lat="45.5322" lon="1.81644">
        <ele>555.6</ele>
        <time>2022-08-04T11:00:19Z</time>
      </trkpt>
      <trkpt lat="45.5322" lon="1.81663">
        <ele>555.5</ele>
        <time>2022-08-04T11:00:21Z</time>
      </trkpt>
      <trkpt lat="45.5322" lon="1.81684">
        <ele>555.4</ele>
        <time>2022-08-04T11:00:23Z</time>
      </trkpt>
      <trkpt lat="45.53223" lon="1.81705">
        <ele>555.2</ele>
        <time>2022-08-04T11:00:25Z</time>
      </trkpt>
      <trkpt lat="45.53228" lon="1.81726">
        <ele>554.9</ele>
        <time>2022-08-04T11:00:27Z</time>
      </trkpt>
      <trkpt lat="45.53235" lon="1.81747">
        <ele>554.4</ele>
        <time>2022-08-04T11:00:29Z</time>
      </trkpt>
      <trkpt lat="45.53245" lon="1.81767">
        <ele>552.4</ele>
        <time>2022-08-04T11:00:31Z</time>
      </trkpt>
      <trkpt lat="45.53258" lon="1.81787">
        <ele>550.1</ele>
        <time>2022-08-04T11:00:33Z</time>
      </trkpt>
      <trkpt lat="45.53269" lon="1.81807">
        <ele>548.3</ele>
        <time>2022-08-04T11:00:35Z</time>
      </trkpt>
      <trkpt lat="45.53279" lon="1.8183">
        <ele>546.4</ele>
        <time>2022-08-04T11:00:37Z</time>
      </trkpt>
      <trkpt lat="45.53287" lon="1.81856">
        <ele>544.9</ele>
        <time>2022-08-04T11:00:39Z</time>
      </trkpt>
      <trkpt lat="45.53292" lon="1.81883">
        <ele>543.6</ele>
        <time>2022-08-04T11:00:41Z</time>
      </trkpt>
      <trkpt lat="45.53295" lon="1.81912">
        <ele>542.1</ele>
        <time>2022-08-04T11:00:43Z</time>
      </trkpt>
      <trkpt lat="45.53295" lon="1.81941">
        <ele>541.2</ele>
        <time>2022-08-04T11:00:45Z</time>
      </trkpt>
      <trkpt lat="45.53294" lon="1.81971">
        <ele>540.4</ele>
        <time>2022-08-04T11:00:47Z</time>
      </trkpt>
      <trkpt lat="45.53292" lon="1.82001">
        <ele>539.6</ele>
        <time>2022-08-04T11:00:49Z</time>
      </trkpt>
      <trkpt lat="45.53294" lon="1.82031">
        <ele>539.4</ele>
        <time>2022-08-04T11:00:51Z</time>
      </trkpt>
      <trkpt lat="45.53297" lon="1.8206">
        <ele>539.3</ele>
        <time>2022-08-04T11:00:53Z</time>
      </trkpt>
      <trkpt lat="45.53305" lon="1.82086">
        <ele>539</ele>
        <time>2022-08-04T11:00:55Z</time>
      </trkpt>
      <trkpt lat="45.53316" lon="1.82106">
        <ele>539.1</ele>
        <time>2022-08-04T11:00:57Z</time>
      </trkpt>
      <trkpt lat="45.53329" lon="1.82122">
        <ele>539</ele>
        <time>2022-08-04T11:00:59Z</time>
      </trkpt>
      <trkpt lat="45.53341" lon="1.82134">
        <ele>539.2</ele>
        <time>2022-08-04T11:01:01Z</time>
      </trkpt>
      <trkpt lat="45.53353" lon="1.82143">
        <ele>539.6</ele>
        <time>2022-08-04T11:01:03Z</time>
      </trkpt>
      <trkpt lat="45.53363" lon="1.82149">
        <ele>540</ele>
        <time>2022-08-04T11:01:05Z</time>
      </trkpt>
      <trkpt lat="45.53373" lon="1.82154">
        <ele>540.4</ele>
        <time>2022-08-04T11:01:07Z</time>
      </trkpt>
      <trkpt lat="45.53381" lon="1.82159">
        <ele>540.7</ele>
        <time>2022-08-04T11:01:09Z</time>
      </trkpt>
      <trkpt lat="45.53388" lon="1.82164">
        <ele>540.9</ele>
        <time>2022-08-04T11:01:11Z</time>
      </trkpt>
      <trkpt lat="45.53394" lon="1.82167">
        <ele>541.3</ele>
        <time>2022-08-04T11:01:13Z</time>
      </trkpt>
      <trkpt lat="45.534" lon="1.82171">
        <ele>542</ele>
        <time>2022-08-04T11:01:15Z</time>
      </trkpt>
      <trkpt lat="45.53405" lon="1.82174">
        <ele>542.6</ele>
        <time>2022-08-04T11:01:17Z</time>
      </trkpt>
      <trkpt lat="45.5341" lon="1.82177">
        <ele>543.2</ele>
        <time>2022-08-04T11:01:19Z</time>
      </trkpt>
      <trkpt lat="45.53415" lon="1.82179">
        <ele>543.7</ele>
        <time>2022-08-04T11:01:21Z</time>
      </trkpt>
      <trkpt lat="45.53419" lon="1.82181">
        <ele>544.1</ele>
        <time>2022-08-04T11:01:23Z</time>
      </trkpt>
      <trkpt lat="45.53423" lon="1.82183">
        <ele>544.3</ele>
        <time>2022-08-04T11:01:25Z</time>
      </trkpt>
      <trkpt lat="45.53426" lon="1.82186">
        <ele>544.7</ele>
        <time>2022-08-04T11:01:27Z</time>
      </trkpt>
      <trkpt lat="45.5343" lon="1.82188">
        <ele>545</ele>
        <time>2022-08-04T11:01:29Z</time>
      </trkpt>
      <trkpt lat="45.53434" lon="1.82189">
        <ele>545.1</ele>
        <time>2022-08-04T11:01:31Z</time>
      </trkpt>
      <trkpt lat="45.53438" lon="1.82192">
        <ele>545.4</ele>
        <time>2022-08-04T11:01:33Z</time>
      </trkpt>
      <trkpt lat="45.53441" lon="1.82194">
        <ele>545.7</ele>
        <time>2022-08-04T11:01:35Z</time>
      </trkpt>
      <trkpt lat="45.53445" lon="1.82197">
        <ele>546</ele>
        <time>2022-08-04T11:01:37Z</time>
      </trkpt>
      <trkpt lat="45.53448" lon="1.82199">
        <ele>546.2</ele>
        <time>2022-08-04T11:01:39Z</time>
      </trkpt>
      <trkpt lat="45.53452" lon="1.82202">
        <ele>546.5</ele>
        <time>2022-08-04T11:01:41Z</time>
      </trkpt>
      <trkpt lat="45.53455" lon="1.82203">
        <ele>546.7</ele>
        <time>2022-08-04T11:01:43Z</time>
      </trkpt>
      <trkpt lat="45.53459" lon="1.82205">
        <ele>546.8</ele>
        <time>2022-08-04T11:01:45Z</time>
      </trkpt>
      <trkpt lat="45.53462" lon="1.82207">
        <ele>547.1</ele>
        <time>2022-08-04T11:01:47Z</time>
      </trkpt>
      <trkpt lat="45.53466" lon="1.82209">
        <ele>547.2</ele>
        <time>2022-08-04T11:01:49Z</time>
      </trkpt>
      <trkpt lat="45.53469" lon="1.82211">
        <ele>547.4</ele>
        <time>2022-08-04T11:01:51Z</time>
      </trkpt>
      <trkpt lat="45.53473" lon="1.82214">
        <ele>547.6</ele>
        <time>2022-08-04T11:01:53Z</time>
      </trkpt>
      <trkpt lat="45.53476" lon="1.82216">
        <ele>547.9</ele>
        <time>2022-08-04T11:01:55Z</time>
      </trkpt>
      <trkpt lat="45.5348" lon="1.82219">
        <ele>548.1</ele>
        <time>2022-08-04T11:01:57Z</time>
      </trkpt>
      <trkpt lat="45.53483" lon="1.82221">
        <ele>548.3</ele>
        <time>2022-08-04T11:01:59Z</time>
      </trkpt>
      <trkpt lat="45.53486" lon="1.82223">
        <ele>548.4</ele>
        <time>2022-08-04T11:02:01Z</time>
      </trkpt>
      <trkpt lat="45.53489" lon="1.82226">
        <ele>548.6</ele>
        <time>2022-08-04T11:02:03Z</time>
      </trkpt>
      <trkpt lat="45.53492" lon="1.82229">
        <ele>548.9</ele>
        <time>2022-08-04T11:02:05Z</time>
      </trkpt>
      <trkpt lat="45.53496" lon="1.82231">
        <ele>549.1</ele>
        <time>2022-08-04T11:02:07Z</time>
      </trkpt>
      <trkpt lat="45.53499" lon="1.82233">
        <ele>549.2</ele>
        <time>2022-08-04T11:02:09Z</time>
      </trkpt>
      <trkpt lat="45.53502" lon="1.82237">
        <ele>549.4</ele>
        <time>2022-08-04T11:02:11Z</time>
      </trkpt>
      <trkpt lat="45.53505" lon="1.8224">
        <ele>549.4</ele>
        <time>2022-08-04T11:02:13Z</time>
      </trkpt>
      <trkpt lat="45.53507" lon="1.82243">
        <ele>549.5</ele>
        <time>2022-08-04T11:02:15Z</time>
      </trkpt>
      <trkpt lat="45.5351" lon="1.82247">
        <ele>549.6</ele>
        <time>2022-08-04T11:02:17Z</time>
      </trkpt>
      <trkpt lat="45.53513" lon="1.8225">
        <ele>549.6</ele>
        <time>2022-08-04T11:02:19Z</time>
      </trkpt>
      <trkpt lat="45.53516" lon="1.82254">
        <ele>550</ele>
        <time>2022-08-04T11:02:21Z</time>
      </trkpt>
      <trkpt lat="45.53519" lon="1.82257">
        <ele>550.4</ele>
        <time>2022-08-04T11:02:23Z</time>
      </trkpt>
      <trkpt lat="45.53521" lon="1.82261">
        <ele>550.8</ele>
        <time>2022-08-04T11:02:25Z</time>
      </trkpt>
      <trkpt lat="45.53524" lon="1.82264">
        <ele>551.2</ele>
        <time>2022-08-04T11:02:27Z</time>
      </trkpt>
      <trkpt lat="45.53526" lon="1.82267">
        <ele>551.5</ele>
        <time>2022-08-04T11:02:29Z</time>
      </trkpt>
      <trkpt lat="45.53529" lon="1.82271">
        <ele>551.9</ele>
        <time>2022-08-04T11:02:31Z</time>
      </trkpt>
      <trkpt lat="45.53531" lon="1.82274">
        <ele>552.3</ele>
        <time>2022-08-04T11:02:33Z</time>
      </trkpt>
      <trkpt lat="45.53533" lon="1.82278">
        <ele>552.8</ele>
        <time>2022-08-04T11:02:35Z</time>
      </trkpt>
      <trkpt lat="45.53536" lon="1.82282">
        <ele>553.1</ele>
        <time>2022-08-04T11:02:37Z</time>
      </trkpt>
      <trkpt lat="45.53538" lon="1.82285">
        <ele>553.5</ele>
        <time>2022-08-04T11:02:39Z</time>
      </trkpt>
      <trkpt lat="45.5354" lon="1.8229">
        <ele>554.1</ele>
        <time>2022-08-04T11:02:41Z</time>
      </trkpt>
      <trkpt lat="45.53542" lon="1.82293">
        <ele>554.5</ele>
        <time>2022-08-04T11:02:43Z</time>
      </trkpt>
      <trkpt lat="45.53544" lon="1.82297">
        <ele>554.9</ele>
        <time>2022-08-04T11:02:45Z</time>
      </trkpt>
      <trkpt lat="45.53547" lon="1.82301">
        <ele>555.4</ele>
        <time>2022-08-04T11:02:47Z</time>
      </trkpt>
      <trkpt lat="45.53549" lon="1.82306">
        <ele>555.9</ele>
        <time>2022-08-04T11:02:49Z</time>
      </trkpt>
      <trkpt lat="45.53551" lon="1.8231">
        <ele>556.4</ele>
        <time>2022-08-04T11:02:51Z</time>
      </trkpt>
      <trkpt lat="45.53553" lon="1.82315">
        <ele>557</ele>
        <time>2022-08-04T11:02:53Z</time>
      </trkpt>
      <trkpt lat="45.53555" lon="1.8232">
        <ele>557.7</ele>
        <time>2022-08-04T11:02:55Z</time>
      </trkpt>
      <trkpt lat="45.53557" lon="1.82324">
        <ele>558.2</ele>
        <time>2022-08-04T11:02:57Z</time>
      </trkpt>
      <trkpt lat="45.53558" lon="1.82328">
        <ele>558.7</ele>
        <time>2022-08-04T11:02:59Z</time>
      </trkpt>
      <trkpt lat="45.5356" lon="1.82333">
        <ele>559.4</ele>
        <time>2022-08-04T11:03:01Z</time>
      </trkpt>
      <trkpt lat="45.53562" lon="1.82338">
        <ele>559.9</ele>
        <time>2022-08-04T11:03:03Z</time>
      </trkpt>
      <trkpt lat="45.53563" lon="1.82343">
        <ele>560.3</ele>
        <time>2022-08-04T11:03:05Z</time>
      </trkpt>
      <trkpt lat="45.53565" lon="1.82347">
        <ele>560.7</ele>
        <time>2022-08-04T11:03:07Z</time>
      </trkpt>
      <trkpt lat="45.53566" lon="1.82352">
        <ele>561.1</ele>
        <time>2022-08-04T11:03:09Z</time>
      </trkpt>
      <trkpt lat="45.53568" lon="1.82356">
        <ele>561.6</ele>
        <time>2022-08-04T11:03:11Z</time>
      </trkpt>
      <trkpt lat="45.53569" lon="1.82361">
        <ele>562</ele>
        <time>2022-08-04T11:03:13Z</time>
      </trkpt>
      <trkpt lat="45.53571" lon="1.82365">
        <ele>562.4</ele>
        <time>2022-08-04T11:03:15Z</time>
      </trkpt>
      <trkpt lat="45.53572" lon="1.82369">
        <ele>562.7</ele>
        <time>2022-08-04T11:03:17Z</time>
      </trkpt>
      <trkpt lat="45.53574" lon="1.82373">
        <ele>563.2</ele>
        <time>2022-08-04T11:03:19Z</time>
      </trkpt>
      <trkpt lat="45.53575" lon="1.82378">
        <ele>563.6</ele>
        <time>2022-08-04T11:03:21Z</time>
      </trkpt>
      <trkpt lat="45.53576" lon="1.82382">
        <ele>564.1</ele>
        <time>2022-08-04T11:03:23Z</time>
      </trkpt>
      <trkpt lat="45.53578" lon="1.82386">
        <ele>564.4</ele>
        <time>2022-08-04T11:03:25Z</time>
      </trkpt>
      <trkpt lat="45.53579" lon="1.8239">
        <ele>564.9</ele>
        <time>2022-08-04T11:03:27Z</time>
      </trkpt>
      <trkpt lat="45.5358" lon="1.82394">
        <ele>565.2</ele>
        <time>2022-08-04T11:03:29Z</time>
      </trkpt>
      <trkpt lat="45.53582" lon="1.82399">
        <ele>565.6</ele>
        <time>2022-08-04T11:03:31Z</time>
      </trkpt>
      <trkpt lat="45.53584" lon="1.82402">
        <ele>565.8</ele>
        <time>2022-08-04T11:03:33Z</time>
      </trkpt>
      <trkpt lat="45.53586" lon="1.82406">
        <ele>566.2</ele>
        <time>2022-08-04T11:03:35Z</time>
      </trkpt>
      <trkpt lat="45.53588" lon="1.82411">
        <ele>566.7</ele>
        <time>2022-08-04T11:03:37Z</time>
      </trkpt>
      <trkpt lat="45.5359" lon="1.82414">
        <ele>567</ele>
        <time>2022-08-04T11:03:39Z</time>
      </trkpt>
      <trkpt lat="45.53591" lon="1.82419">
        <ele>567.3</ele>
        <time>2022-08-04T11:03:41Z</time>
      </trkpt>
      <trkpt lat="45.53593" lon="1.82424">
        <ele>567.3</ele>
        <time>2022-08-04T11:03:43Z</time>
      </trkpt>
      <trkpt lat="45.53595" lon="1.82428">
        <ele>567.3</ele>
        <time>2022-08-04T11:03:45Z</time>
      </trkpt>
      <trkpt lat="45.53596" lon="1.82432">
        <ele>567.3</ele>
        <time>2022-08-04T11:03:47Z</time>
      </trkpt>
      <trkpt lat="45.53598" lon="1.82437">
        <ele>567.1</ele>
        <time>2022-08-04T11:03:49Z</time>
      </trkpt>
      <trkpt lat="45.536" lon="1.82441">
        <ele>567</ele>
        <time>2022-08-04T11:03:51Z</time>
      </trkpt>
      <trkpt lat="45.53602" lon="1.82445">
        <ele>567</ele>
        <time>2022-08-04T11:03:53Z</time>
      </trkpt>
      <trkpt lat="45.53602" lon="1.82449">
        <ele>567.1</ele>
        <time>2022-08-04T11:03:55Z</time>
      </trkpt>
      <trkpt lat="45.53602" lon="1.82454">
        <ele>567.3</ele>
        <time>2022-08-04T11:03:57Z</time>
      </trkpt>
      <trkpt lat="45.53602" lon="1.8246">
        <ele>567.4</ele>
        <time>2022-08-04T11:03:59Z</time>
      </trkpt>
      <trkpt lat="45.53602" lon="1.82464">
        <ele>567.6</ele>
        <time>2022-08-04T11:04:01Z</time>
      </trkpt>
      <trkpt lat="45.536" lon="1.82469">
        <ele>567.9</ele>
        <time>2022-08-04T11:04:03Z</time>
      </trkpt>
      <trkpt lat="45.536" lon="1.82474">
        <ele>568.1</ele>
        <time>2022-08-04T11:04:05Z</time>
      </trkpt>
      <trkpt lat="45.53599" lon="1.8248">
        <ele>568.3</ele>
        <time>2022-08-04T11:04:07Z</time>
      </trkpt>
      <trkpt lat="45.53598" lon="1.82484">
        <ele>568.6</ele>
        <time>2022-08-04T11:04:09Z</time>
      </trkpt>
      <trkpt lat="45.53597" lon="1.82488">
        <ele>568.8</ele>
        <time>2022-08-04T11:04:11Z</time>
      </trkpt>
      <trkpt lat="45.53596" lon="1.82493">
        <ele>569.1</ele>
        <time>2022-08-04T11:04:13Z</time>
      </trkpt>
      <trkpt lat="45.53595" lon="1.82497">
        <ele>569.3</ele>
        <time>2022-08-04T11:04:15Z</time>
      </trkpt>
      <trkpt lat="45.53594" lon="1.82501">
        <ele>569.6</ele>
        <time>2022-08-04T11:04:17Z</time>
      </trkpt>
      <trkpt lat="45.53592" lon="1.82505">
        <ele>569.5</ele>
        <time>2022-08-04T11:04:19Z</time>
      </trkpt>
      <trkpt lat="45.53591" lon="1.82509">
        <ele>569.5</ele>
        <time>2022-08-04T11:04:21Z</time>
      </trkpt>
      <trkpt lat="45.53589" lon="1.82513">
        <ele>569.5</ele>
        <time>2022-08-04T11:04:23Z</time>
      </trkpt>
      <trkpt lat="45.53588" lon="1.82518">
        <ele>569.4</ele>
        <time>2022-08-04T11:04:25Z</time>
      </trkpt>
      <trkpt lat="45.53587" lon="1.82522">
        <ele>569.2</ele>
        <time>2022-08-04T11:04:27Z</time>
      </trkpt>
      <trkpt lat="45.53585" lon="1.82526">
        <ele>569.2</ele>
        <time>2022-08-04T11:04:29Z</time>
      </trkpt>
      <trkpt lat="45.53584" lon="1.8253">
        <ele>569.1</ele>
        <time>2022-08-04T11:04:31Z</time>
      </trkpt>
      <trkpt lat="45.53582" lon="1.82535">
        <ele>569.1</ele>
        <time>2022-08-04T11:04:33Z</time>
      </trkpt>
      <trkpt lat="45.53581" lon="1.8254">
        <ele>569</ele>
        <time>2022-08-04T11:04:35Z</time>
      </trkpt>
      <trkpt lat="45.5358" lon="1.82544">
        <ele>569</ele>
        <time>2022-08-04T11:04:37Z</time>
      </trkpt>
      <trkpt lat="45.53578" lon="1.82548">
        <ele>569</ele>
        <time>2022-08-04T11:04:39Z</time>
      </trkpt>
      <trkpt lat="45.53576" lon="1.82552">
        <ele>569.2</ele>
        <time>2022-08-04T11:04:41Z</time>
      </trkpt>
      <trkpt lat="45.53574" lon="1.82556">
        <ele>569.3</ele>
        <time>2022-08-04T11:04:43Z</time>
      </trkpt>
      <trkpt lat="45.53572" lon="1.8256">
        <ele>569.4</ele>
        <time>2022-08-04T11:04:45Z</time>
      </trkpt>
      <trkpt lat="45.53569" lon="1.82564">
        <ele>569.6</ele>
        <time>2022-08-04T11:04:47Z</time>
      </trkpt>
      <trkpt lat="45.53567" lon="1.82568">
        <ele>569.7</ele>
        <time>2022-08-04T11:04:49Z</time>
      </trkpt>
      <trkpt lat="45.53566" lon="1.82573">
        <ele>569.8</ele>
        <time>2022-08-04T11:04:51Z</time>
      </trkpt>
      <trkpt lat="45.53564" lon="1.82577">
        <ele>569.9</ele>
        <time>2022-08-04T11:04:53Z</time>
      </trkpt>
      <trkpt lat="45.53562" lon="1.82582">
        <ele>570</ele>
        <time>2022-08-04T11:04:55Z</time>
      </trkpt>
      <trkpt lat="45.5356" lon="1.82586">
        <ele>570.2</ele>
        <time>2022-08-04T11:04:57Z</time>
      </trkpt>
      <trkpt lat="45.53558" lon="1.8259">
        <ele>570.5</ele>
        <time>2022-08-04T11:04:59Z</time>
      </trkpt>
      <trkpt lat="45.53556" lon="1.82595">
        <ele>570.7</ele>
        <time>2022-08-04T11:05:01Z</time>
      </trkpt>
      <trkpt lat="45.53554" lon="1.82599">
        <ele>571.1</ele>
        <time>2022-08-04T11:05:03Z</time>
      </trkpt>
      <trkpt lat="45.53552" lon="1.82603">
        <ele>571.3</ele>
        <time>2022-08-04T11:05:05Z</time>
      </trkpt>
      <trkpt lat="45.5355" lon="1.82608">
        <ele>571.5</ele>
        <time>2022-08-04T11:05:07Z</time>
      </trkpt>
      <trkpt lat="45.53548" lon="1.82612">
        <ele>571.7</ele>
        <time>2022-08-04T11:05:09Z</time>
      </trkpt>
      <trkpt lat="45.53546" lon="1.82616">
        <ele>571.9</ele>
        <time>2022-08-04T11:05:11Z</time>
      </trkpt>
      <trkpt lat="45.53544" lon="1.8262">
        <ele>572.1</ele>
        <time>2022-08-04T11:05:13Z</time>
      </trkpt>
      <trkpt lat="45.53543" lon="1.82624">
        <ele>572.1</ele>
        <time>2022-08-04T11:05:15Z</time>
      </trkpt>
      <trkpt lat="45.53541" lon="1.82628">
        <ele>572.2</ele>
        <time>2022-08-04T11:05:17Z</time>
      </trkpt>
      <trkpt lat="45.5354" lon="1.82632">
        <ele>572.3</ele>
        <time>2022-08-04T11:05:19Z</time>
      </trkpt>
      <trkpt lat="45.53538" lon="1.82636">
        <ele>572.4</ele>
        <time>2022-08-04T11:05:21Z</time>
      </trkpt>
      <trkpt lat="45.53537" lon="1.8264">
        <ele>572.4</ele>
        <time>2022-08-04T11:05:23Z</time>
      </trkpt>
      <trkpt lat="45.53535" lon="1.82644">
        <ele>572.5</ele>
        <time>2022-08-04T11:05:25Z</time>
      </trkpt>
      <trkpt lat="45.53534" lon="1.82648">
        <ele>572.5</ele>
        <time>2022-08-04T11:05:27Z</time>
      </trkpt>
      <trkpt lat="45.53532" lon="1.82653">
        <ele>572.4</ele>
        <time>2022-08-04T11:05:29Z</time>
      </trkpt>
      <trkpt lat="45.53531" lon="1.82657">
        <ele>572.4</ele>
        <time>2022-08-04T11:05:31Z</time>
      </trkpt>
      <trkpt lat="45.53529" lon="1.82661">
        <ele>572.4</ele>
        <time>2022-08-04T11:05:33Z</time>
      </trkpt>
      <trkpt lat="45.53528" lon="1.82666">
        <ele>572.3</ele>
        <time>2022-08-04T11:05:35Z</time>
      </trkpt>
      <trkpt lat="45.53528" lon="1.8267">
        <ele>572.6</ele>
        <time>2022-08-04T11:05:37Z</time>
      </trkpt>
      <trkpt lat="45.53526" lon="1.82675">
        <ele>573</ele>
        <time>2022-08-04T11:05:39Z</time>
      </trkpt>
      <trkpt lat="45.53525" lon="1.82679">
        <ele>573.4</ele>
        <time>2022-08-04T11:05:41Z</time>
      </trkpt>
      <trkpt lat="45.53524" lon="1.82683">
        <ele>573.8</ele>
        <time>2022-08-04T11:05:43Z</time>
      </trkpt>
      <trkpt lat="45.53523" lon="1.82688">
        <ele>574.1</ele>
        <time>2022-08-04T11:05:45Z</time>
      </trkpt>
      <trkpt lat="45.53522" lon="1.82692">
        <ele>574.4</ele>
        <time>2022-08-04T11:05:47Z</time>
      </trkpt>
      <trkpt lat="45.53522" lon="1.82697">
        <ele>574.8</ele>
        <time>2022-08-04T11:05:49Z</time>
      </trkpt>
      <trkpt lat="45.53521" lon="1.82702">
        <ele>575.1</ele>
        <time>2022-08-04T11:05:51Z</time>
      </trkpt>
      <trkpt lat="45.5352" lon="1.82706">
        <ele>575.4</ele>
        <time>2022-08-04T11:05:53Z</time>
      </trkpt>
      <trkpt lat="45.5352" lon="1.82711">
        <ele>575.7</ele>
        <time>2022-08-04T11:05:55Z</time>
      </trkpt>
      <trkpt lat="45.5352" lon="1.82716">
        <ele>576</ele>
        <time>2022-08-04T11:05:57Z</time>
      </trkpt>
      <trkpt lat="45.53519" lon="1.82721">
        <ele>576.3</ele>
        <time>2022-08-04T11:05:59Z</time>
      </trkpt>
      <trkpt lat="45.53519" lon="1.82725">
        <ele>576.6</ele>
        <time>2022-08-04T11:06:01Z</time>
      </trkpt>
      <trkpt lat="45.53519" lon="1.8273">
        <ele>576.9</ele>
        <time>2022-08-04T11:06:03Z</time>
      </trkpt>
      <trkpt lat="45.53519" lon="1.82735">
        <ele>577.2</ele>
        <time>2022-08-04T11:06:05Z</time>
      </trkpt>
      <trkpt lat="45.53518" lon="1.82739">
        <ele>577.5</ele>
        <time>2022-08-04T11:06:07Z</time>
      </trkpt>
      <trkpt lat="45.53518" lon="1.82744">
        <ele>577.8</ele>
        <time>2022-08-04T11:06:09Z</time>
      </trkpt>
      <trkpt lat="45.53518" lon="1.82749">
        <ele>578.1</ele>
        <time>2022-08-04T11:06:11Z</time>
      </trkpt>
      <trkpt lat="45.53518" lon="1.82754">
        <ele>578.2</ele>
        <time>2022-08-04T11:06:13Z</time>
      </trkpt>
      <trkpt lat="45.53518" lon="1.82759">
        <ele>578.3</ele>
        <time>2022-08-04T11:06:15Z</time>
      </trkpt>
      <trkpt lat="45.53518" lon="1.82764">
        <ele>578.4</ele>
        <time>2022-08-04T11:06:17Z</time>
      </trkpt>
      <trkpt lat="45.53518" lon="1.82769">
        <ele>578.5</ele>
        <time>2022-08-04T11:06:19Z</time>
      </trkpt>
      <trkpt lat="45.53518" lon="1.82774">
        <ele>578.6</ele>
        <time>2022-08-04T11:06:21Z</time>
      </trkpt>
      <trkpt lat="45.53518" lon="1.82779">
        <ele>578.7</ele>
        <time>2022-08-04T11:06:23Z</time>
      </trkpt>
      <trkpt lat="45.53518" lon="1.82784">
        <ele>578.8</ele>
        <time>2022-08-04T11:06:25Z</time>
      </trkpt>
      <trkpt lat="45.53517" lon="1.82789">
        <ele>578.9</ele>
        <time>2022-08-04T11:06:27Z</time>
      </trkpt>
      <trkpt lat="45.53516" lon="1.82794">
        <ele>579.1</ele>
        <time>2022-08-04T11:06:29Z</time>
      </trkpt>
      <trkpt lat="45.53515" lon="1.82799">
        <ele>579.3</ele>
        <time>2022-08-04T11:06:31Z</time>
      </trkpt>
      <trkpt lat="45.53514" lon="1.82803">
        <ele>579.4</ele>
        <time>2022-08-04T11:06:33Z</time>
      </trkpt>
      <trkpt lat="45.53512" lon="1.82808">
        <ele>579.6</ele>
        <time>2022-08-04T11:06:35Z</time>
      </trkpt>
      <trkpt lat="45.5351" lon="1.82812">
        <ele>579.8</ele>
        <time>2022-08-04T11:06:37Z</time>
      </trkpt>
      <trkpt lat="45.53507" lon="1.82816">
        <ele>580.1</ele>
        <time>2022-08-04T11:06:39Z</time>
      </trkpt>
      <trkpt lat="45.53505" lon="1.8282">
        <ele>580.3</ele>
        <time>2022-08-04T11:06:41Z</time>
      </trkpt>
      <trkpt lat="45.53502" lon="1.82824">
        <ele>580.6</ele>
        <time>2022-08-04T11:06:43Z</time>
      </trkpt>
      <trkpt lat="45.53499" lon="1.82828">
        <ele>581</ele>
        <time>2022-08-04T11:06:45Z</time>
      </trkpt>
      <trkpt lat="45.53496" lon="1.82832">
        <ele>581.4</ele>
        <time>2022-08-04T11:06:47Z</time>
      </trkpt>
      <trkpt lat="45.53494" lon="1.82836">
        <ele>581.5</ele>
        <time>2022-08-04T11:06:49Z</time>
      </trkpt>
      <trkpt lat="45.53491" lon="1.82841">
        <ele>581.6</ele>
        <time>2022-08-04T11:06:51Z</time>
      </trkpt>
      <trkpt lat="45.53487" lon="1.82845">
        <ele>581.7</ele>
        <time>2022-08-04T11:06:53Z</time>
      </trkpt>
      <trkpt lat="45.53484" lon="1.82849">
        <ele>581.9</ele>
        <time>2022-08-04T11:06:55Z</time>
      </trkpt>
      <trkpt lat="45.5348" lon="1.82852">
        <ele>582.1</ele>
        <time>2022-08-04T11:06:57Z</time>
      </trkpt>
      <trkpt lat="45.53477" lon="1.82856">
        <ele>582.2</ele>
        <time>2022-08-04T11:06:59Z</time>
      </trkpt>
      <trkpt lat="45.53473" lon="1.82858">
        <ele>582.5</ele>
        <time>2022-08-04T11:07:01Z</time>
      </trkpt>
      <trkpt lat="45.53471" lon="1.8286">
        <ele>582.7</ele>
        <time>2022-08-04T11:07:03Z</time>
      </trkpt>
      <trkpt lat="45.53467" lon="1.82864">
        <ele>582.9</ele>
        <time>2022-08-04T11:07:05Z</time>
      </trkpt>
      <trkpt lat="45.53464" lon="1.82867">
        <ele>583.1</ele>
        <time>2022-08-04T11:07:07Z</time>
      </trkpt>
      <trkpt lat="45.53461" lon="1.82869">
        <ele>583.4</ele>
        <time>2022-08-04T11:07:09Z</time>
      </trkpt>
      <trkpt lat="45.53457" lon="1.82872">
        <ele>583.6</ele>
        <time>2022-08-04T11:07:11Z</time>
      </trkpt>
      <trkpt lat="45.53454" lon="1.82874">
        <ele>583.9</ele>
        <time>2022-08-04T11:07:13Z</time>
      </trkpt>
      <trkpt lat="45.53451" lon="1.82877">
        <ele>584.2</ele>
        <time>2022-08-04T11:07:15Z</time>
      </trkpt>
      <trkpt lat="45.53448" lon="1.82879">
        <ele>584.4</ele>
        <time>2022-08-04T11:07:17Z</time>
      </trkpt>
      <trkpt lat="45.53445" lon="1.82882">
        <ele>584.6</ele>
        <time>2022-08-04T11:07:19Z</time>
      </trkpt>
      <trkpt lat="45.53442" lon="1.82885">
        <ele>584.7</ele>
        <time>2022-08-04T11:07:21Z</time>
      </trkpt>
      <trkpt lat="45.53438" lon="1.82887">
        <ele>585.1</ele>
        <time>2022-08-04T11:07:23Z</time>
      </trkpt>
      <trkpt lat="45.53435" lon="1.8289">
        <ele>585.4</ele>
        <time>2022-08-04T11:07:25Z</time>
      </trkpt>
      <trkpt lat="45.53432" lon="1.82893">
        <ele>585.6</ele>
        <time>2022-08-04T11:07:27Z</time>
      </trkpt>
      <trkpt lat="45.53429" lon="1.82896">
        <ele>585.8</ele>
        <time>2022-08-04T11:07:29Z</time>
      </trkpt>
      <trkpt lat="45.53425" lon="1.829">
        <ele>586</ele>
        <time>2022-08-04T11:07:31Z</time>
      </trkpt>
      <trkpt lat="45.53422" lon="1.82904">
        <ele>586.2</ele>
        <time>2022-08-04T11:07:33Z</time>
      </trkpt>
      <trkpt lat="45.53419" lon="1.82908">
        <ele>586.3</ele>
        <time>2022-08-04T11:07:35Z</time>
      </trkpt>
      <trkpt lat="45.53416" lon="1.82912">
        <ele>586.5</ele>
        <time>2022-08-04T11:07:37Z</time>
      </trkpt>
      <trkpt lat="45.53412" lon="1.82916">
        <ele>586.8</ele>
        <time>2022-08-04T11:07:39Z</time>
      </trkpt>
      <trkpt lat="45.5341" lon="1.8292">
        <ele>587</ele>
        <time>2022-08-04T11:07:41Z</time>
      </trkpt>
      <trkpt lat="45.53407" lon="1.82926">
        <ele>587.1</ele>
        <time>2022-08-04T11:07:43Z</time>
      </trkpt>
      <trkpt lat="45.53405" lon="1.82931">
        <ele>587.4</ele>
        <time>2022-08-04T11:07:45Z</time>
      </trkpt>
      <trkpt lat="45.53402" lon="1.82936">
        <ele>587.6</ele>
        <time>2022-08-04T11:07:47Z</time>
      </trkpt>
      <trkpt lat="45.534" lon="1.82941">
        <ele>587.7</ele>
        <time>2022-08-04T11:07:49Z</time>
      </trkpt>
      <trkpt lat="45.53398" lon="1.82946">
        <ele>588</ele>
        <time>2022-08-04T11:07:51Z</time>
      </trkpt>
      <trkpt lat="45.53395" lon="1.82951">
        <ele>588.3</ele>
        <time>2022-08-04T11:07:53Z</time>
      </trkpt>
      <trkpt lat="45.53393" lon="1.82956">
        <ele>588.6</ele>
        <time>2022-08-04T11:07:55Z</time>
      </trkpt>
      <trkpt lat="45.53391" lon="1.82961">
        <ele>588.9</ele>
        <time>2022-08-04T11:07:57Z</time>
      </trkpt>
      <trkpt lat="45.53389" lon="1.82966">
        <ele>589.1</ele>
        <time>2022-08-04T11:07:59Z</time>
      </trkpt>
      <trkpt lat="45.53387" lon="1.82971">
        <ele>589.6</ele>
        <time>2022-08-04T11:08:01Z</time>
      </trkpt>
      <trkpt lat="45.53385" lon="1.82976">
        <ele>589.9</ele>
        <time>2022-08-04T11:08:03Z</time>
      </trkpt>
      <trkpt lat="45.53383" lon="1.82981">
        <ele>590.3</ele>
        <time>2022-08-04T11:08:05Z</time>
      </trkpt>
      <trkpt lat="45.53381" lon="1.82986">
        <ele>590.6</ele>
        <time>2022-08-04T11:08:07Z</time>
      </trkpt>
      <trkpt lat="45.53379" lon="1.8299">
        <ele>591</ele>
        <time>2022-08-04T11:08:09Z</time>
      </trkpt>
      <trkpt lat="45.53378" lon="1.82995">
        <ele>591.4</ele>
        <time>2022-08-04T11:08:11Z</time>
      </trkpt>
      <trkpt lat="45.53375" lon="1.82999">
        <ele>591.9</ele>
        <time>2022-08-04T11:08:13Z</time>
      </trkpt>
      <trkpt lat="45.53374" lon="1.83004">
        <ele>592.8</ele>
        <time>2022-08-04T11:08:15Z</time>
      </trkpt>
      <trkpt lat="45.53373" lon="1.83009">
        <ele>593.7</ele>
        <time>2022-08-04T11:08:17Z</time>
      </trkpt>
      <trkpt lat="45.53371" lon="1.83014">
        <ele>594.6</ele>
        <time>2022-08-04T11:08:19Z</time>
      </trkpt>
      <trkpt lat="45.5337" lon="1.8302">
        <ele>595.6</ele>
        <time>2022-08-04T11:08:21Z</time>
      </trkpt>
      <trkpt lat="45.53369" lon="1.83025">
        <ele>596.4</ele>
        <time>2022-08-04T11:08:23Z</time>
      </trkpt>
      <trkpt lat="45.53369" lon="1.8303">
        <ele>597.1</ele>
        <time>2022-08-04T11:08:25Z</time>
      </trkpt>
      <trkpt lat="45.53369" lon="1.83035">
        <ele>597.7</ele>
        <time>2022-08-04T11:08:27Z</time>
      </trkpt>
      <trkpt lat="45.53369" lon="1.8304">
        <ele>598.3</ele>
        <time>2022-08-04T11:08:29Z</time>
      </trkpt>
      <trkpt lat="45.53369" lon="1.83045">
        <ele>598.8</ele>
        <time>2022-08-04T11:08:31Z</time>
      </trkpt>
      <trkpt lat="45.5337" lon="1.8305">
        <ele>599.2</ele>
        <time>2022-08-04T11:08:33Z</time>
      </trkpt>
      <trkpt lat="45.5337" lon="1.83055">
        <ele>599.6</ele>
        <time>2022-08-04T11:08:35Z</time>
      </trkpt>
      <trkpt lat="45.53371" lon="1.8306">
        <ele>599.9</ele>
        <time>2022-08-04T11:08:37Z</time>
      </trkpt>
      <trkpt lat="45.53372" lon="1.83064">
        <ele>600.2</ele>
        <time>2022-08-04T11:08:39Z</time>
      </trkpt>
      <trkpt lat="45.53373" lon="1.83069">
        <ele>600.4</ele>
        <time>2022-08-04T11:08:41Z</time>
      </trkpt>
      <trkpt lat="45.53374" lon="1.83073">
        <ele>600.8</ele>
        <time>2022-08-04T11:08:43Z</time>
      </trkpt>
      <trkpt lat="45.53375" lon="1.83078">
        <ele>600.9</ele>
        <time>2022-08-04T11:08:45Z</time>
      </trkpt>
      <trkpt lat="45.53376" lon="1.83082">
        <ele>601</ele>
        <time>2022-08-04T11:08:47Z</time>
      </trkpt>
      <trkpt lat="45.53379" lon="1.83086">
        <ele>601</ele>
        <time>2022-08-04T11:08:49Z</time>
      </trkpt>
      <trkpt lat="45.53381" lon="1.8309">
        <ele>601</ele>
        <time>2022-08-04T11:08:51Z</time>
      </trkpt>
      <trkpt lat="45.53384" lon="1.83094">
        <ele>600.8</ele>
        <time>2022-08-04T11:08:53Z</time>
      </trkpt>
      <trkpt lat="45.53386" lon="1.83098">
        <ele>601</ele>
        <time>2022-08-04T11:08:55Z</time>
      </trkpt>
      <trkpt lat="45.53388" lon="1.83101">
        <ele>600.8</ele>
        <time>2022-08-04T11:08:57Z</time>
      </trkpt>
      <trkpt lat="45.53389" lon="1.83105">
        <ele>601.1</ele>
        <time>2022-08-04T11:08:59Z</time>
      </trkpt>
      <trkpt lat="45.53392" lon="1.83109">
        <ele>601</ele>
        <time>2022-08-04T11:09:01Z</time>
      </trkpt>
      <trkpt lat="45.53394" lon="1.83113">
        <ele>601.1</ele>
        <time>2022-08-04T11:09:03Z</time>
      </trkpt>
      <trkpt lat="45.53396" lon="1.83117">
        <ele>601.3</ele>
        <time>2022-08-04T11:09:05Z</time>
      </trkpt>
      <trkpt lat="45.53398" lon="1.8312">
        <ele>601.3</ele>
        <time>2022-08-04T11:09:07Z</time>
      </trkpt>
      <trkpt lat="45.53401" lon="1.83123">
        <ele>601</ele>
        <time>2022-08-04T11:09:09Z</time>
      </trkpt>
      <trkpt lat="45.53404" lon="1.83126">
        <ele>600.8</ele>
        <time>2022-08-04T11:09:11Z</time>
      </trkpt>
      <trkpt lat="45.53406" lon="1.83129">
        <ele>600.7</ele>
        <time>2022-08-04T11:09:13Z</time>
      </trkpt>
      <trkpt lat="45.53409" lon="1.83132">
        <ele>600.5</ele>
        <time>2022-08-04T11:09:15Z</time>
      </trkpt>
      <trkpt lat="45.53412" lon="1.83136">
        <ele>600.4</ele>
        <time>2022-08-04T11:09:17Z</time>
      </trkpt>
      <trkpt lat="45.53413" lon="1.8314">
        <ele>600.8</ele>
        <time>2022-08-04T11:09:19Z</time>
      </trkpt>
      <trkpt lat="45.53415" lon="1.83143">
        <ele>600.8</ele>
        <time>2022-08-04T11:09:21Z</time>
      </trkpt>
      <trkpt lat="45.53418" lon="1.83146">
        <ele>600.6</ele>
        <time>2022-08-04T11:09:23Z</time>
      </trkpt>
      <trkpt lat="45.53421" lon="1.83149">
        <ele>600.3</ele>
        <time>2022-08-04T11:09:25Z</time>
      </trkpt>
      <trkpt lat="45.53423" lon="1.83153">
        <ele>600.5</ele>
        <time>2022-08-04T11:09:27Z</time>
      </trkpt>
      <trkpt lat="45.53425" lon="1.83157">
        <ele>600.9</ele>
        <time>2022-08-04T11:09:29Z</time>
      </trkpt>
      <trkpt lat="45.53425" lon="1.8316">
        <ele>601.3</ele>
        <time>2022-08-04T11:09:31Z</time>
      </trkpt>
      <trkpt lat="45.53426" lon="1.83165">
        <ele>601.7</ele>
        <time>2022-08-04T11:09:33Z</time>
      </trkpt>
      <trkpt lat="45.53427" lon="1.83167">
        <ele>601.9</ele>
        <time>2022-08-04T11:09:35Z</time>
      </trkpt>
      <trkpt lat="45.53428" lon="1.83171">
        <ele>602.1</ele>
        <time>2022-08-04T11:09:37Z</time>
      </trkpt>
      <trkpt lat="45.5343" lon="1.83174">
        <ele>601.9</ele>
        <time>2022-08-04T11:09:39Z</time>
      </trkpt>
      <trkpt lat="45.5343" lon="1.83177">
        <ele>602</ele>
        <time>2022-08-04T11:09:41Z</time>
      </trkpt>
      <trkpt lat="45.5343" lon="1.83182">
        <ele>602.4</ele>
        <time>2022-08-04T11:09:43Z</time>
      </trkpt>
      <trkpt lat="45.53432" lon="1.83185">
        <ele>602.3</ele>
        <time>2022-08-04T11:09:45Z</time>
      </trkpt>
      <trkpt lat="45.53433" lon="1.83189">
        <ele>602.5</ele>
        <time>2022-08-04T11:09:47Z</time>
      </trkpt>
      <trkpt lat="45.53432" lon="1.83192">
        <ele>603</ele>
        <time>2022-08-04T11:09:49Z</time>
      </trkpt>
      <trkpt lat="45.53434" lon="1.83197">
        <ele>603</ele>
        <time>2022-08-04T11:09:51Z</time>
      </trkpt>
      <trkpt lat="45.53435" lon="1.83202">
        <ele>603.3</ele>
        <time>2022-08-04T11:09:53Z</time>
      </trkpt>
      <trkpt lat="45.53434" lon="1.83207">
        <ele>604</ele>
        <time>2022-08-04T11:09:55Z</time>
      </trkpt>
      <trkpt lat="45.53434" lon="1.83211">
        <ele>604.2</ele>
        <time>2022-08-04T11:09:57Z</time>
      </trkpt>
      <trkpt lat="45.53434" lon="1.83215">
        <ele>604.9</ele>
        <time>2022-08-04T11:09:59Z</time>
      </trkpt>
      <trkpt lat="45.53434" lon="1.83219">
        <ele>605.2</ele>
        <time>2022-08-04T11:10:01Z</time>
      </trkpt>
      <trkpt lat="45.53433" lon="1.83223">
        <ele>605.8</ele>
        <time>2022-08-04T11:10:03Z</time>
      </trkpt>
      <trkpt lat="45.53433" lon="1.83227">
        <ele>606.4</ele>
        <time>2022-08-04T11:10:05Z</time>
      </trkpt>
      <trkpt lat="45.53432" lon="1.83231">
        <ele>607.2</ele>
        <time>2022-08-04T11:10:07Z</time>
      </trkpt>
      <trkpt lat="45.53432" lon="1.83235">
        <ele>607.5</ele>
        <time>2022-08-04T11:10:09Z</time>
      </trkpt>
      <trkpt lat="45.53432" lon="1.8324">
        <ele>607.9</ele>
        <time>2022-08-04T11:10:11Z</time>
      </trkpt>
      <trkpt lat="45.53433" lon="1.83244">
        <ele>608.1</ele>
        <time>2022-08-04T11:10:13Z</time>
      </trkpt>
      <trkpt lat="45.53432" lon="1.83248">
        <ele>609</ele>
        <time>2022-08-04T11:10:15Z</time>
      </trkpt>
      <trkpt lat="45.53431" lon="1.83252">
        <ele>609.4</ele>
        <time>2022-08-04T11:10:17Z</time>
      </trkpt>
      <trkpt lat="45.5343" lon="1.83255">
        <ele>609.8</ele>
        <time>2022-08-04T11:10:19Z</time>
      </trkpt>
      <trkpt lat="45.53429" lon="1.83259">
        <ele>609.9</ele>
        <time>2022-08-04T11:10:21Z</time>
      </trkpt>
      <trkpt lat="45.53429" lon="1.83263">
        <ele>610.2</ele>
        <time>2022-08-04T11:10:23Z</time>
      </trkpt>
      <trkpt lat="45.53428" lon="1.83267">
        <ele>610.6</ele>
        <time>2022-08-04T11:10:25Z</time>
      </trkpt>
      <trkpt lat="45.53427" lon="1.83271">
        <ele>610.8</ele>
        <time>2022-08-04T11:10:27Z</time>
      </trkpt>
      <trkpt lat="45.53426" lon="1.83276">
        <ele>611.1</ele>
        <time>2022-08-04T11:10:29Z</time>
      </trkpt>
      <trkpt lat="45.53426" lon="1.83281">
        <ele>611.1</ele>
        <time>2022-08-04T11:10:31Z</time>
      </trkpt>
      <trkpt lat="45.53425" lon="1.83284">
        <ele>611.4</ele>
        <time>2022-08-04T11:10:33Z</time>
      </trkpt>
      <trkpt lat="45.53424" lon="1.83289">
        <ele>611.6</ele>
        <time>2022-08-04T11:10:35Z</time>
      </trkpt>
      <trkpt lat="45.53423" lon="1.83293">
        <ele>612</ele>
        <time>2022-08-04T11:10:37Z</time>
      </trkpt>
      <trkpt lat="45.53423" lon="1.83297">
        <ele>612.1</ele>
        <time>2022-08-04T11:10:39Z</time>
      </trkpt>
      <trkpt lat="45.53422" lon="1.833">
        <ele>612.4</ele>
        <time>2022-08-04T11:10:41Z</time>
      </trkpt>
      <trkpt lat="45.53421" lon="1.83305">
        <ele>612.8</ele>
        <time>2022-08-04T11:10:43Z</time>
      </trkpt>
      <trkpt lat="45.53421" lon="1.83308">
        <ele>612.7</ele>
        <time>2022-08-04T11:10:45Z</time>
      </trkpt>
      <trkpt lat="45.53421" lon="1.83312">
        <ele>612.6</ele>
        <time>2022-08-04T11:10:47Z</time>
      </trkpt>
      <trkpt lat="45.5342" lon="1.83316">
        <ele>612.9</ele>
        <time>2022-08-04T11:10:49Z</time>
      </trkpt>
      <trkpt lat="45.5342" lon="1.8332">
        <ele>613</ele>
        <time>2022-08-04T11:10:51Z</time>
      </trkpt>
      <trkpt lat="45.5342" lon="1.83324">
        <ele>613.1</ele>
        <time>2022-08-04T11:10:53Z</time>
      </trkpt>
      <trkpt lat="45.53419" lon="1.83328">
        <ele>613.2</ele>
        <time>2022-08-04T11:10:55Z</time>
      </trkpt>
      <trkpt lat="45.53418" lon="1.83331">
        <ele>613.5</ele>
        <time>2022-08-04T11:10:57Z</time>
      </trkpt>
      <trkpt lat="45.53418" lon="1.83335">
        <ele>613.6</ele>
        <time>2022-08-04T11:10:59Z</time>
      </trkpt>
      <trkpt lat="45.53418" lon="1.8334">
        <ele>613.4</ele>
        <time>2022-08-04T11:11:01Z</time>
      </trkpt>
      <trkpt lat="45.53417" lon="1.83343">
        <ele>613.5</ele>
        <time>2022-08-04T11:11:03Z</time>
      </trkpt>
      <trkpt lat="45.53417" lon="1.83347">
        <ele>613.7</ele>
        <time>2022-08-04T11:11:05Z</time>
      </trkpt>
      <trkpt lat="45.53416" lon="1.83351">
        <ele>614</ele>
        <time>2022-08-04T11:11:07Z</time>
      </trkpt>
      <trkpt lat="45.53415" lon="1.83354">
        <ele>614.3</ele>
        <time>2022-08-04T11:11:09Z</time>
      </trkpt>
      <trkpt lat="45.53414" lon="1.83359">
        <ele>614.5</ele>
        <time>2022-08-04T11:11:11Z</time>
      </trkpt>
      <trkpt lat="45.53413" lon="1.83362">
        <ele>614.6</ele>
        <time>2022-08-04T11:11:13Z</time>
      </trkpt>
      <trkpt lat="45.53412" lon="1.83366">
        <ele>614.9</ele>
        <time>2022-08-04T11:11:15Z</time>
      </trkpt>
      <trkpt lat="45.53411" lon="1.8337">
        <ele>615.2</ele>
        <time>2022-08-04T11:11:17Z</time>
      </trkpt>
      <trkpt lat="45.5341" lon="1.83373">
        <ele>615.4</ele>
        <time>2022-08-04T11:11:19Z</time>
      </trkpt>
      <trkpt lat="45.53409" lon="1.83377">
        <ele>615.8</ele>
        <time>2022-08-04T11:11:21Z</time>
      </trkpt>
      <trkpt lat="45.53408" lon="1.8338">
        <ele>616</ele>
        <time>2022-08-04T11:11:23Z</time>
      </trkpt>
      <trkpt lat="45.53408" lon="1.83384">
        <ele>616.2</ele>
        <time>2022-08-04T11:11:25Z</time>
      </trkpt>
      <trkpt lat="45.53407" lon="1.83388">
        <ele>616.5</ele>
        <time>2022-08-04T11:11:27Z</time>
      </trkpt>
      <trkpt lat="45.53406" lon="1.83392">
        <ele>616.6</ele>
        <time>2022-08-04T11:11:29Z</time>
      </trkpt>
      <trkpt lat="45.53405" lon="1.83396">
        <ele>616.9</ele>
        <time>2022-08-04T11:11:31Z</time>
      </trkpt>
      <trkpt lat="45.53403" lon="1.83399">
        <ele>617.5</ele>
        <time>2022-08-04T11:11:33Z</time>
      </trkpt>
      <trkpt lat="45.53402" lon="1.83402">
        <ele>617.8</ele>
        <time>2022-08-04T11:11:35Z</time>
      </trkpt>
      <trkpt lat="45.53402" lon="1.83406">
        <ele>617.9</ele>
        <time>2022-08-04T11:11:37Z</time>
      </trkpt>
      <trkpt lat="45.53402" lon="1.83409">
        <ele>617.9</ele>
        <time>2022-08-04T11:11:39Z</time>
      </trkpt>
      <trkpt lat="45.534" lon="1.83412">
        <ele>618.6</ele>
        <time>2022-08-04T11:11:41Z</time>
      </trkpt>
      <trkpt lat="45.53398" lon="1.83416">
        <ele>619.1</ele>
        <time>2022-08-04T11:11:43Z</time>
      </trkpt>
      <trkpt lat="45.53398" lon="1.8342">
        <ele>619.2</ele>
        <time>2022-08-04T11:11:45Z</time>
      </trkpt>
      <trkpt lat="45.53396" lon="1.83424">
        <ele>619.5</ele>
        <time>2022-08-04T11:11:47Z</time>
      </trkpt>
      <trkpt lat="45.53395" lon="1.83428">
        <ele>619.6</ele>
        <time>2022-08-04T11:11:49Z</time>
      </trkpt>
      <trkpt lat="45.53394" lon="1.83432">
        <ele>619.8</ele>
        <time>2022-08-04T11:11:51Z</time>
      </trkpt>
      <trkpt lat="45.53394" lon="1.83436">
        <ele>619.7</ele>
        <time>2022-08-04T11:11:53Z</time>
      </trkpt>
      <trkpt lat="45.53393" lon="1.8344">
        <ele>619.8</ele>
        <time>2022-08-04T11:11:55Z</time>
      </trkpt>
      <trkpt lat="45.53392" lon="1.83443">
        <ele>620.2</ele>
        <time>2022-08-04T11:11:57Z</time>
      </trkpt>
      <trkpt lat="45.53391" lon="1.83447">
        <ele>620.5</ele>
        <time>2022-08-04T11:11:59Z</time>
      </trkpt>
      <trkpt lat="45.53389" lon="1.8345">
        <ele>620.8</ele>
        <time>2022-08-04T11:12:01Z</time>
      </trkpt>
      <trkpt lat="45.53388" lon="1.83454">
        <ele>620.9</ele>
        <time>2022-08-04T11:12:03Z</time>
      </trkpt>
      <trkpt lat="45.53387" lon="1.83457">
        <ele>621.3</ele>
        <time>2022-08-04T11:12:05Z</time>
      </trkpt>
      <trkpt lat="45.53385" lon="1.8346">
        <ele>621.8</ele>
        <time>2022-08-04T11:12:07Z</time>
      </trkpt>
      <trkpt lat="45.53384" lon="1.83463">
        <ele>622</ele>
        <time>2022-08-04T11:12:09Z</time>
      </trkpt>
      <trkpt lat="45.53383" lon="1.83466">
        <ele>622.2</ele>
        <time>2022-08-04T11:12:11Z</time>
      </trkpt>
      <trkpt lat="45.53381" lon="1.8347">
        <ele>622.6</ele>
        <time>2022-08-04T11:12:13Z</time>
      </trkpt>
      <trkpt lat="45.53379" lon="1.83473">
        <ele>623</ele>
        <time>2022-08-04T11:12:15Z</time>
      </trkpt>
      <trkpt lat="45.53377" lon="1.83477">
        <ele>623.6</ele>
        <time>2022-08-04T11:12:17Z</time>
      </trkpt>
      <trkpt lat="45.53376" lon="1.8348">
        <ele>624</ele>
        <time>2022-08-04T11:12:19Z</time>
      </trkpt>
      <trkpt lat="45.53375" lon="1.83483">
        <ele>624</ele>
        <time>2022-08-04T11:12:21Z</time>
      </trkpt>
      <trkpt lat="45.53373" lon="1.83486">
        <ele>624.6</ele>
        <time>2022-08-04T11:12:23Z</time>
      </trkpt>
      <trkpt lat="45.53371" lon="1.8349">
        <ele>624.9</ele>
        <time>2022-08-04T11:12:25Z</time>
      </trkpt>
      <trkpt lat="45.53369" lon="1.83493">
        <ele>625.3</ele>
        <time>2022-08-04T11:12:27Z</time>
      </trkpt>
      <trkpt lat="45.53368" lon="1.83497">
        <ele>625.5</ele>
        <time>2022-08-04T11:12:29Z</time>
      </trkpt>
      <trkpt lat="45.53366" lon="1.83499">
        <ele>626</ele>
        <time>2022-08-04T11:12:31Z</time>
      </trkpt>
      <trkpt lat="45.53364" lon="1.83502">
        <ele>626.7</ele>
        <time>2022-08-04T11:12:33Z</time>
      </trkpt>
      <trkpt lat="45.53361" lon="1.83506">
        <ele>627.4</ele>
        <time>2022-08-04T11:12:35Z</time>
      </trkpt>
      <trkpt lat="45.53359" lon="1.83509">
        <ele>627.9</ele>
        <time>2022-08-04T11:12:37Z</time>
      </trkpt>
      <trkpt lat="45.53358" lon="1.83512">
        <ele>628.2</ele>
        <time>2022-08-04T11:12:39Z</time>
      </trkpt>
      <trkpt lat="45.53357" lon="1.83514">
        <ele>628.4</ele>
        <time>2022-08-04T11:12:41Z</time>
      </trkpt>
      <trkpt lat="45.53355" lon="1.83517">
        <ele>628.9</ele>
        <time>2022-08-04T11:12:43Z</time>
      </trkpt>
      <trkpt lat="45.53353" lon="1.8352">
        <ele>629.2</ele>
        <time>2022-08-04T11:12:45Z</time>
      </trkpt>
      <trkpt lat="45.53351" lon="1.83522">
        <ele>629.8</ele>
        <time>2022-08-04T11:12:47Z</time>
      </trkpt>
      <trkpt lat="45.53349" lon="1.83525">
        <ele>630.3</ele>
        <time>2022-08-04T11:12:49Z</time>
      </trkpt>
      <trkpt lat="45.53347" lon="1.83528">
        <ele>630.9</ele>
        <time>2022-08-04T11:12:51Z</time>
      </trkpt>
      <trkpt lat="45.53345" lon="1.83531">
        <ele>631.4</ele>
        <time>2022-08-04T11:12:53Z</time>
      </trkpt>
      <trkpt lat="45.53343" lon="1.83533">
        <ele>631.9</ele>
        <time>2022-08-04T11:12:55Z</time>
      </trkpt>
      <trkpt lat="45.5334" lon="1.83536">
        <ele>632.6</ele>
        <time>2022-08-04T11:12:57Z</time>
      </trkpt>
      <trkpt lat="45.53339" lon="1.83538">
        <ele>633</ele>
        <time>2022-08-04T11:12:59Z</time>
      </trkpt>
      <trkpt lat="45.53337" lon="1.83542">
        <ele>633.5</ele>
        <time>2022-08-04T11:13:01Z</time>
      </trkpt>
      <trkpt lat="45.53334" lon="1.83545">
        <ele>634.1</ele>
        <time>2022-08-04T11:13:03Z</time>
      </trkpt>
      <trkpt lat="45.53332" lon="1.83548">
        <ele>634.4</ele>
        <time>2022-08-04T11:13:05Z</time>
      </trkpt>
      <trkpt lat="45.5333" lon="1.83551">
        <ele>634.8</ele>
        <time>2022-08-04T11:13:07Z</time>
      </trkpt>
      <trkpt lat="45.53328" lon="1.83553">
        <ele>635.2</ele>
        <time>2022-08-04T11:13:09Z</time>
      </trkpt>
      <trkpt lat="45.53326" lon="1.83556">
        <ele>635.6</ele>
        <time>2022-08-04T11:13:11Z</time>
      </trkpt>
      <trkpt lat="45.53324" lon="1.8356">
        <ele>636.1</ele>
        <time>2022-08-04T11:13:13Z</time>
      </trkpt>
      <trkpt lat="45.53322" lon="1.83563">
        <ele>636.4</ele>
        <time>2022-08-04T11:13:15Z</time>
      </trkpt>
      <trkpt lat="45.53321" lon="1.83567">
        <ele>636.6</ele>
        <time>2022-08-04T11:13:17Z</time>
      </trkpt>
      <trkpt lat="45.53319" lon="1.83572">
        <ele>636.8</ele>
        <time>2022-08-04T11:13:19Z</time>
      </trkpt>
      <trkpt lat="45.53317" lon="1.83576">
        <ele>637.1</ele>
        <time>2022-08-04T11:13:21Z</time>
      </trkpt>
      <trkpt lat="45.53316" lon="1.8358">
        <ele>637.3</ele>
        <time>2022-08-04T11:13:23Z</time>
      </trkpt>
      <trkpt lat="45.53314" lon="1.83584">
        <ele>637.5</ele>
        <time>2022-08-04T11:13:25Z</time>
      </trkpt>
      <trkpt lat="45.53313" lon="1.83589">
        <ele>637.8</ele>
        <time>2022-08-04T11:13:27Z</time>
      </trkpt>
      <trkpt lat="45.53311" lon="1.83592">
        <ele>638.2</ele>
        <time>2022-08-04T11:13:29Z</time>
      </trkpt>
      <trkpt lat="45.5331" lon="1.83595">
        <ele>638.4</ele>
        <time>2022-08-04T11:13:31Z</time>
      </trkpt>
      <trkpt lat="45.5331" lon="1.83599">
        <ele>638.5</ele>
        <time>2022-08-04T11:13:33Z</time>
      </trkpt>
      <trkpt lat="45.53309" lon="1.83603">
        <ele>638.7</ele>
        <time>2022-08-04T11:13:35Z</time>
      </trkpt>
      <trkpt lat="45.53308" lon="1.83606">
        <ele>638.9</ele>
        <time>2022-08-04T11:13:37Z</time>
      </trkpt>
      <trkpt lat="45.53307" lon="1.83609">
        <ele>638.9</ele>
        <time>2022-08-04T11:13:39Z</time>
      </trkpt>
      <trkpt lat="45.53306" lon="1.83612">
        <ele>639.3</ele>
        <time>2022-08-04T11:13:41Z</time>
      </trkpt>
      <trkpt lat="45.53306" lon="1.83616">
        <ele>639.3</ele>
        <time>2022-08-04T11:13:43Z</time>
      </trkpt>
      <trkpt lat="45.53306" lon="1.83619">
        <ele>639.3</ele>
        <time>2022-08-04T11:13:45Z</time>
      </trkpt>
      <trkpt lat="45.53305" lon="1.83622">
        <ele>639.5</ele>
        <time>2022-08-04T11:13:47Z</time>
      </trkpt>
      <trkpt lat="45.53304" lon="1.83626">
        <ele>639.6</ele>
        <time>2022-08-04T11:13:49Z</time>
      </trkpt>
      <trkpt lat="45.53304" lon="1.83629">
        <ele>639.6</ele>
        <time>2022-08-04T11:13:51Z</time>
      </trkpt>
      <trkpt lat="45.53303" lon="1.83633">
        <ele>639.8</ele>
        <time>2022-08-04T11:13:53Z</time>
      </trkpt>
      <trkpt lat="45.53303" lon="1.83636">
        <ele>639.9</ele>
        <time>2022-08-04T11:13:55Z</time>
      </trkpt>
      <trkpt lat="45.53302" lon="1.8364">
        <ele>640.1</ele>
        <time>2022-08-04T11:13:57Z</time>
      </trkpt>
      <trkpt lat="45.53301" lon="1.83643">
        <ele>640.2</ele>
        <time>2022-08-04T11:13:59Z</time>
      </trkpt>
      <trkpt lat="45.533" lon="1.83646">
        <ele>640.4</ele>
        <time>2022-08-04T11:14:01Z</time>
      </trkpt>
      <trkpt lat="45.533" lon="1.83649">
        <ele>640.6</ele>
        <time>2022-08-04T11:14:03Z</time>
      </trkpt>
      <trkpt lat="45.53299" lon="1.83653">
        <ele>640.8</ele>
        <time>2022-08-04T11:14:05Z</time>
      </trkpt>
      <trkpt lat="45.53298" lon="1.83656">
        <ele>640.9</ele>
        <time>2022-08-04T11:14:07Z</time>
      </trkpt>
      <trkpt lat="45.53298" lon="1.8366">
        <ele>641.1</ele>
        <time>2022-08-04T11:14:09Z</time>
      </trkpt>
      <trkpt lat="45.53297" lon="1.83664">
        <ele>641.2</ele>
        <time>2022-08-04T11:14:11Z</time>
      </trkpt>
      <trkpt lat="45.53297" lon="1.83667">
        <ele>641.2</ele>
        <time>2022-08-04T11:14:13Z</time>
      </trkpt>
      <trkpt lat="45.53296" lon="1.83671">
        <ele>641.5</ele>
        <time>2022-08-04T11:14:15Z</time>
      </trkpt>
      <trkpt lat="45.53295" lon="1.83675">
        <ele>641.6</ele>
        <time>2022-08-04T11:14:17Z</time>
      </trkpt>
      <trkpt lat="45.53294" lon="1.83678">
        <ele>641.9</ele>
        <time>2022-08-04T11:14:19Z</time>
      </trkpt>
      <trkpt lat="45.53293" lon="1.83682">
        <ele>642.1</ele>
        <time>2022-08-04T11:14:21Z</time>
      </trkpt>
      <trkpt lat="45.53293" lon="1.83686">
        <ele>642.3</ele>
        <time>2022-08-04T11:14:23Z</time>
      </trkpt>
      <trkpt lat="45.53292" lon="1.83689">
        <ele>642.4</ele>
        <time>2022-08-04T11:14:25Z</time>
      </trkpt>
      <trkpt lat="45.53291" lon="1.83693">
        <ele>642.8</ele>
        <time>2022-08-04T11:14:27Z</time>
      </trkpt>
      <trkpt lat="45.5329" lon="1.83697">
        <ele>643</ele>
        <time>2022-08-04T11:14:29Z</time>
      </trkpt>
      <trkpt lat="45.53289" lon="1.83701">
        <ele>643.2</ele>
        <time>2022-08-04T11:14:31Z</time>
      </trkpt>
      <trkpt lat="45.53289" lon="1.83704">
        <ele>643.4</ele>
        <time>2022-08-04T11:14:33Z</time>
      </trkpt>
      <trkpt lat="45.53287" lon="1.83708">
        <ele>643.8</ele>
        <time>2022-08-04T11:14:35Z</time>
      </trkpt>
      <trkpt lat="45.53286" lon="1.83711">
        <ele>644</ele>
        <time>2022-08-04T11:14:37Z</time>
      </trkpt>
      <trkpt lat="45.53285" lon="1.83715">
        <ele>644.5</ele>
        <time>2022-08-04T11:14:39Z</time>
      </trkpt>
      <trkpt lat="45.53283" lon="1.83719">
        <ele>645.2</ele>
        <time>2022-08-04T11:14:41Z</time>
      </trkpt>
      <trkpt lat="45.53283" lon="1.83719">
        <ele>645.1</ele>
        <time>2022-08-04T11:14:43Z</time>
      </trkpt>
      <trkpt lat="45.53284" lon="1.83719">
        <ele>644.8</ele>
        <time>2022-08-04T11:14:45Z</time>
      </trkpt>
      <trkpt lat="45.53283" lon="1.8372">
        <ele>644.9</ele>
        <time>2022-08-04T11:14:47Z</time>
      </trkpt>
      <trkpt lat="45.53283" lon="1.8372">
        <ele>645</ele>
        <time>2022-08-04T11:14:49Z</time>
      </trkpt>
      <trkpt lat="45.53283" lon="1.83721">
        <ele>644.9</ele>
        <time>2022-08-04T11:14:51Z</time>
      </trkpt>
      <trkpt lat="45.53282" lon="1.83742">
        <ele>645</ele>
        <time>2022-08-04T11:21:41Z</time>
      </trkpt>
      <trkpt lat="45.53281" lon="1.83745">
        <ele>645.3</ele>
        <time>2022-08-04T11:21:43Z</time>
      </trkpt>
      <trkpt lat="45.53281" lon="1.83748">
        <ele>645.3</ele>
        <time>2022-08-04T11:21:45Z</time>
      </trkpt>
      <trkpt lat="45.5328" lon="1.83751">
        <ele>645.5</ele>
        <time>2022-08-04T11:21:47Z</time>
      </trkpt>
      <trkpt lat="45.5328" lon="1.83755">
        <ele>645.6</ele>
        <time>2022-08-04T11:21:49Z</time>
      </trkpt>
      <trkpt lat="45.53279" lon="1.83758">
        <ele>645.7</ele>
        <time>2022-08-04T11:21:51Z</time>
      </trkpt>
      <trkpt lat="45.53278" lon="1.83761">
        <ele>645.9</ele>
        <time>2022-08-04T11:21:53Z</time>
      </trkpt>
      <trkpt lat="45.53277" lon="1.83764">
        <ele>646.2</ele>
        <time>2022-08-04T11:21:55Z</time>
      </trkpt>
      <trkpt lat="45.53276" lon="1.83767">
        <ele>646.3</ele>
        <time>2022-08-04T11:21:57Z</time>
      </trkpt>
      <trkpt lat="45.53275" lon="1.8377">
        <ele>646.4</ele>
        <time>2022-08-04T11:21:59Z</time>
      </trkpt>
      <trkpt lat="45.53274" lon="1.83774">
        <ele>646.7</ele>
        <time>2022-08-04T11:22:01Z</time>
      </trkpt>
      <trkpt lat="45.53274" lon="1.83777">
        <ele>646.7</ele>
        <time>2022-08-04T11:22:03Z</time>
      </trkpt>
      <trkpt lat="45.53272" lon="1.8378">
        <ele>647.1</ele>
        <time>2022-08-04T11:22:05Z</time>
      </trkpt>
      <trkpt lat="45.53271" lon="1.83782">
        <ele>647.5</ele>
        <time>2022-08-04T11:22:07Z</time>
      </trkpt>
      <trkpt lat="45.5327" lon="1.83786">
        <ele>647.6</ele>
        <time>2022-08-04T11:22:09Z</time>
      </trkpt>
      <trkpt lat="45.5327" lon="1.8379">
        <ele>647.4</ele>
        <time>2022-08-04T11:22:11Z</time>
      </trkpt>
      <trkpt lat="45.53269" lon="1.83792">
        <ele>647.7</ele>
        <time>2022-08-04T11:22:13Z</time>
      </trkpt>
      <trkpt lat="45.53267" lon="1.83795">
        <ele>648.2</ele>
        <time>2022-08-04T11:22:15Z</time>
      </trkpt>
      <trkpt lat="45.53266" lon="1.83798">
        <ele>648.5</ele>
        <time>2022-08-04T11:22:17Z</time>
      </trkpt>
      <trkpt lat="45.53265" lon="1.83802">
        <ele>648.6</ele>
        <time>2022-08-04T11:22:19Z</time>
      </trkpt>
      <trkpt lat="45.53264" lon="1.83805">
        <ele>648.9</ele>
        <time>2022-08-04T11:22:21Z</time>
      </trkpt>
      <trkpt lat="45.53263" lon="1.83808">
        <ele>649.2</ele>
        <time>2022-08-04T11:22:23Z</time>
      </trkpt>
      <trkpt lat="45.53262" lon="1.83811">
        <ele>649.3</ele>
        <time>2022-08-04T11:22:25Z</time>
      </trkpt>
      <trkpt lat="45.53261" lon="1.83814">
        <ele>649.5</ele>
        <time>2022-08-04T11:22:27Z</time>
      </trkpt>
      <trkpt lat="45.5326" lon="1.83817">
        <ele>649.5</ele>
        <time>2022-08-04T11:22:29Z</time>
      </trkpt>
      <trkpt lat="45.53259" lon="1.8382">
        <ele>649.7</ele>
        <time>2022-08-04T11:22:31Z</time>
      </trkpt>
      <trkpt lat="45.53258" lon="1.83823">
        <ele>649.9</ele>
        <time>2022-08-04T11:22:33Z</time>
      </trkpt>
      <trkpt lat="45.53257" lon="1.83826">
        <ele>650.1</ele>
        <time>2022-08-04T11:22:35Z</time>
      </trkpt>
      <trkpt lat="45.53256" lon="1.83829">
        <ele>650.4</ele>
        <time>2022-08-04T11:22:37Z</time>
      </trkpt>
      <trkpt lat="45.53255" lon="1.83832">
        <ele>650.6</ele>
        <time>2022-08-04T11:22:39Z</time>
      </trkpt>
      <trkpt lat="45.53254" lon="1.83835">
        <ele>650.9</ele>
        <time>2022-08-04T11:22:41Z</time>
      </trkpt>
      <trkpt lat="45.53253" lon="1.83838">
        <ele>651.1</ele>
        <time>2022-08-04T11:22:43Z</time>
      </trkpt>
      <trkpt lat="45.53252" lon="1.83841">
        <ele>651.7</ele>
        <time>2022-08-04T11:22:45Z</time>
      </trkpt>
      <trkpt lat="45.5325" lon="1.83844">
        <ele>652.3</ele>
        <time>2022-08-04T11:22:47Z</time>
      </trkpt>
      <trkpt lat="45.53249" lon="1.83847">
        <ele>652.7</ele>
        <time>2022-08-04T11:22:49Z</time>
      </trkpt>
      <trkpt lat="45.53249" lon="1.83851">
        <ele>653</ele>
        <time>2022-08-04T11:22:51Z</time>
      </trkpt>
      <trkpt lat="45.53247" lon="1.83854">
        <ele>653.5</ele>
        <time>2022-08-04T11:22:53Z</time>
      </trkpt>
      <trkpt lat="45.53247" lon="1.83857">
        <ele>653.9</ele>
        <time>2022-08-04T11:22:55Z</time>
      </trkpt>
      <trkpt lat="45.53246" lon="1.8386">
        <ele>654.2</ele>
        <time>2022-08-04T11:22:57Z</time>
      </trkpt>
      <trkpt lat="45.53245" lon="1.83863">
        <ele>654.6</ele>
        <time>2022-08-04T11:22:59Z</time>
      </trkpt>
      <trkpt lat="45.53244" lon="1.83866">
        <ele>654.8</ele>
        <time>2022-08-04T11:23:01Z</time>
      </trkpt>
      <trkpt lat="45.53243" lon="1.83869">
        <ele>655.3</ele>
        <time>2022-08-04T11:23:03Z</time>
      </trkpt>
      <trkpt lat="45.53243" lon="1.83872">
        <ele>655.5</ele>
        <time>2022-08-04T11:23:05Z</time>
      </trkpt>
      <trkpt lat="45.53242" lon="1.83875">
        <ele>656.1</ele>
        <time>2022-08-04T11:23:07Z</time>
      </trkpt>
      <trkpt lat="45.5324" lon="1.83879">
        <ele>656.5</ele>
        <time>2022-08-04T11:23:09Z</time>
      </trkpt>
      <trkpt lat="45.5324" lon="1.83882">
        <ele>656.9</ele>
        <time>2022-08-04T11:23:11Z</time>
      </trkpt>
      <trkpt lat="45.53239" lon="1.83885">
        <ele>657.3</ele>
        <time>2022-08-04T11:23:13Z</time>
      </trkpt>
      <trkpt lat="45.53239" lon="1.83889">
        <ele>657.5</ele>
        <time>2022-08-04T11:23:15Z</time>
      </trkpt>
      <trkpt lat="45.53238" lon="1.83892">
        <ele>657.8</ele>
        <time>2022-08-04T11:23:17Z</time>
      </trkpt>
      <trkpt lat="45.53238" lon="1.83895">
        <ele>658.1</ele>
        <time>2022-08-04T11:23:19Z</time>
      </trkpt>
      <trkpt lat="45.53237" lon="1.83898">
        <ele>658.6</ele>
        <time>2022-08-04T11:23:21Z</time>
      </trkpt>
      <trkpt lat="45.53236" lon="1.83902">
        <ele>658.8</ele>
        <time>2022-08-04T11:23:23Z</time>
      </trkpt>
      <trkpt lat="45.53236" lon="1.83905">
        <ele>659.1</ele>
        <time>2022-08-04T11:23:25Z</time>
      </trkpt>
      <trkpt lat="45.53235" lon="1.83909">
        <ele>659.5</ele>
        <time>2022-08-04T11:23:27Z</time>
      </trkpt>
      <trkpt lat="45.53235" lon="1.83912">
        <ele>659.8</ele>
        <time>2022-08-04T11:23:29Z</time>
      </trkpt>
      <trkpt lat="45.53234" lon="1.83916">
        <ele>660.1</ele>
        <time>2022-08-04T11:23:31Z</time>
      </trkpt>
      <trkpt lat="45.53234" lon="1.83919">
        <ele>660.3</ele>
        <time>2022-08-04T11:23:33Z</time>
      </trkpt>
      <trkpt lat="45.53233" lon="1.83922">
        <ele>660.6</ele>
        <time>2022-08-04T11:23:35Z</time>
      </trkpt>
      <trkpt lat="45.53233" lon="1.83926">
        <ele>660.7</ele>
        <time>2022-08-04T11:23:37Z</time>
      </trkpt>
      <trkpt lat="45.53233" lon="1.83928">
        <ele>660.8</ele>
        <time>2022-08-04T11:23:39Z</time>
      </trkpt>
      <trkpt lat="45.53233" lon="1.83932">
        <ele>660.8</ele>
        <time>2022-08-04T11:23:41Z</time>
      </trkpt>
      <trkpt lat="45.53233" lon="1.83935">
        <ele>661.1</ele>
        <time>2022-08-04T11:23:43Z</time>
      </trkpt>
      <trkpt lat="45.53233" lon="1.83939">
        <ele>661.2</ele>
        <time>2022-08-04T11:23:45Z</time>
      </trkpt>
      <trkpt lat="45.53232" lon="1.83942">
        <ele>661.4</ele>
        <time>2022-08-04T11:23:47Z</time>
      </trkpt>
      <trkpt lat="45.53232" lon="1.83946">
        <ele>661.7</ele>
        <time>2022-08-04T11:23:49Z</time>
      </trkpt>
      <trkpt lat="45.53232" lon="1.8395">
        <ele>661.8</ele>
        <time>2022-08-04T11:23:51Z</time>
      </trkpt>
      <trkpt lat="45.53231" lon="1.83954">
        <ele>662</ele>
        <time>2022-08-04T11:23:53Z</time>
      </trkpt>
      <trkpt lat="45.53231" lon="1.83957">
        <ele>662.2</ele>
        <time>2022-08-04T11:23:55Z</time>
      </trkpt>
      <trkpt lat="45.53231" lon="1.83961">
        <ele>662.2</ele>
        <time>2022-08-04T11:23:57Z</time>
      </trkpt>
      <trkpt lat="45.53231" lon="1.83964">
        <ele>662.5</ele>
        <time>2022-08-04T11:23:59Z</time>
      </trkpt>
      <trkpt lat="45.53231" lon="1.83968">
        <ele>662.7</ele>
        <time>2022-08-04T11:24:01Z</time>
      </trkpt>
      <trkpt lat="45.53231" lon="1.83971">
        <ele>662.7</ele>
        <time>2022-08-04T11:24:03Z</time>
      </trkpt>
      <trkpt lat="45.5323" lon="1.83975">
        <ele>662.9</ele>
        <time>2022-08-04T11:24:05Z</time>
      </trkpt>
      <trkpt lat="45.5323" lon="1.83978">
        <ele>663.1</ele>
        <time>2022-08-04T11:24:07Z</time>
      </trkpt>
      <trkpt lat="45.53231" lon="1.83982">
        <ele>662.9</ele>
        <time>2022-08-04T11:24:09Z</time>
      </trkpt>
      <trkpt lat="45.53231" lon="1.83986">
        <ele>662.9</ele>
        <time>2022-08-04T11:24:11Z</time>
      </trkpt>
      <trkpt lat="45.53231" lon="1.83989">
        <ele>663</ele>
        <time>2022-08-04T11:24:13Z</time>
      </trkpt>
      <trkpt lat="45.53231" lon="1.83993">
        <ele>663.2</ele>
        <time>2022-08-04T11:24:15Z</time>
      </trkpt>
      <trkpt lat="45.53232" lon="1.83997">
        <ele>663.1</ele>
        <time>2022-08-04T11:24:17Z</time>
      </trkpt>
      <trkpt lat="45.53231" lon="1.84">
        <ele>663.3</ele>
        <time>2022-08-04T11:24:19Z</time>
      </trkpt>
      <trkpt lat="45.53232" lon="1.84004">
        <ele>663</ele>
        <time>2022-08-04T11:24:21Z</time>
      </trkpt>
      <trkpt lat="45.53232" lon="1.84007">
        <ele>663</ele>
        <time>2022-08-04T11:24:23Z</time>
      </trkpt>
      <trkpt lat="45.53232" lon="1.84011">
        <ele>662.9</ele>
        <time>2022-08-04T11:24:25Z</time>
      </trkpt>
      <trkpt lat="45.53231" lon="1.84014">
        <ele>663.2</ele>
        <time>2022-08-04T11:24:27Z</time>
      </trkpt>
      <trkpt lat="45.53231" lon="1.84017">
        <ele>663.2</ele>
        <time>2022-08-04T11:24:29Z</time>
      </trkpt>
      <trkpt lat="45.53229" lon="1.8402">
        <ele>663.8</ele>
        <time>2022-08-04T11:24:31Z</time>
      </trkpt>
      <trkpt lat="45.53228" lon="1.84023">
        <ele>663.8</ele>
        <time>2022-08-04T11:24:33Z</time>
      </trkpt>
      <trkpt lat="45.53228" lon="1.84027">
        <ele>663.9</ele>
        <time>2022-08-04T11:24:35Z</time>
      </trkpt>
      <trkpt lat="45.53227" lon="1.84031">
        <ele>664</ele>
        <time>2022-08-04T11:24:37Z</time>
      </trkpt>
      <trkpt lat="45.53227" lon="1.84034">
        <ele>664</ele>
        <time>2022-08-04T11:24:39Z</time>
      </trkpt>
      <trkpt lat="45.53225" lon="1.84037">
        <ele>664.6</ele>
        <time>2022-08-04T11:24:41Z</time>
      </trkpt>
      <trkpt lat="45.53225" lon="1.84041">
        <ele>664.8</ele>
        <time>2022-08-04T11:24:43Z</time>
      </trkpt>
      <trkpt lat="45.53224" lon="1.84045">
        <ele>665</ele>
        <time>2022-08-04T11:24:45Z</time>
      </trkpt>
      <trkpt lat="45.53223" lon="1.84047">
        <ele>665.2</ele>
        <time>2022-08-04T11:24:47Z</time>
      </trkpt>
      <trkpt lat="45.53223" lon="1.84051">
        <ele>665.4</ele>
        <time>2022-08-04T11:24:49Z</time>
      </trkpt>
      <trkpt lat="45.53222" lon="1.84054">
        <ele>665.6</ele>
        <time>2022-08-04T11:24:51Z</time>
      </trkpt>
      <trkpt lat="45.53221" lon="1.84058">
        <ele>666</ele>
        <time>2022-08-04T11:24:53Z</time>
      </trkpt>
      <trkpt lat="45.5322" lon="1.84062">
        <ele>666.3</ele>
        <time>2022-08-04T11:24:55Z</time>
      </trkpt>
      <trkpt lat="45.53218" lon="1.84066">
        <ele>666.9</ele>
        <time>2022-08-04T11:24:57Z</time>
      </trkpt>
      <trkpt lat="45.53217" lon="1.84069">
        <ele>667.1</ele>
        <time>2022-08-04T11:24:59Z</time>
      </trkpt>
      <trkpt lat="45.53217" lon="1.84073">
        <ele>667.1</ele>
        <time>2022-08-04T11:25:01Z</time>
      </trkpt>
      <trkpt lat="45.53215" lon="1.84077">
        <ele>667.6</ele>
        <time>2022-08-04T11:25:03Z</time>
      </trkpt>
      <trkpt lat="45.53215" lon="1.8408">
        <ele>667.7</ele>
        <time>2022-08-04T11:25:05Z</time>
      </trkpt>
      <trkpt lat="45.53215" lon="1.84084">
        <ele>667.7</ele>
        <time>2022-08-04T11:25:07Z</time>
      </trkpt>
      <trkpt lat="45.53214" lon="1.84087">
        <ele>668</ele>
        <time>2022-08-04T11:25:09Z</time>
      </trkpt>
      <trkpt lat="45.53212" lon="1.8409">
        <ele>668.4</ele>
        <time>2022-08-04T11:25:11Z</time>
      </trkpt>
      <trkpt lat="45.53211" lon="1.84094">
        <ele>668.6</ele>
        <time>2022-08-04T11:25:13Z</time>
      </trkpt>
      <trkpt lat="45.53211" lon="1.84097">
        <ele>668.7</ele>
        <time>2022-08-04T11:25:15Z</time>
      </trkpt>
      <trkpt lat="45.5321" lon="1.841">
        <ele>669</ele>
        <time>2022-08-04T11:25:17Z</time>
      </trkpt>
      <trkpt lat="45.53208" lon="1.84103">
        <ele>669.4</ele>
        <time>2022-08-04T11:25:19Z</time>
      </trkpt>
      <trkpt lat="45.53207" lon="1.84105">
        <ele>669.7</ele>
        <time>2022-08-04T11:25:21Z</time>
      </trkpt>
      <trkpt lat="45.53207" lon="1.84107">
        <ele>669.7</ele>
        <time>2022-08-04T11:25:23Z</time>
      </trkpt>
      <trkpt lat="45.53206" lon="1.8411">
        <ele>669.9</ele>
        <time>2022-08-04T11:25:25Z</time>
      </trkpt>
      <trkpt lat="45.53206" lon="1.84113">
        <ele>670.1</ele>
        <time>2022-08-04T11:25:27Z</time>
      </trkpt>
      <trkpt lat="45.53205" lon="1.84117">
        <ele>670.1</ele>
        <time>2022-08-04T11:25:29Z</time>
      </trkpt>
      <trkpt lat="45.53204" lon="1.84119">
        <ele>670.4</ele>
        <time>2022-08-04T11:25:31Z</time>
      </trkpt>
      <trkpt lat="45.53203" lon="1.84122">
        <ele>670.7</ele>
        <time>2022-08-04T11:25:33Z</time>
      </trkpt>
      <trkpt lat="45.53203" lon="1.84126">
        <ele>670.7</ele>
        <time>2022-08-04T11:25:35Z</time>
      </trkpt>
      <trkpt lat="45.53202" lon="1.84129">
        <ele>671</ele>
        <time>2022-08-04T11:25:37Z</time>
      </trkpt>
      <trkpt lat="45.53201" lon="1.84132">
        <ele>671.1</ele>
        <time>2022-08-04T11:25:39Z</time>
      </trkpt>
      <trkpt lat="45.532" lon="1.84135">
        <ele>671.5</ele>
        <time>2022-08-04T11:25:41Z</time>
      </trkpt>
      <trkpt lat="45.53199" lon="1.84139">
        <ele>671.7</ele>
        <time>2022-08-04T11:25:43Z</time>
      </trkpt>
      <trkpt lat="45.53198" lon="1.84142">
        <ele>672</ele>
        <time>2022-08-04T11:25:45Z</time>
      </trkpt>
      <trkpt lat="45.53197" lon="1.84145">
        <ele>672</ele>
        <time>2022-08-04T11:25:47Z</time>
      </trkpt>
      <trkpt lat="45.53196" lon="1.84148">
        <ele>672.5</ele>
        <time>2022-08-04T11:25:49Z</time>
      </trkpt>
      <trkpt lat="45.53195" lon="1.84151">
        <ele>672.7</ele>
        <time>2022-08-04T11:25:51Z</time>
      </trkpt>
      <trkpt lat="45.53194" lon="1.84155">
        <ele>672.8</ele>
        <time>2022-08-04T11:25:53Z</time>
      </trkpt>
      <trkpt lat="45.53193" lon="1.84159">
        <ele>672.9</ele>
        <time>2022-08-04T11:25:55Z</time>
      </trkpt>
      <trkpt lat="45.53193" lon="1.84162">
        <ele>673.1</ele>
        <time>2022-08-04T11:25:57Z</time>
      </trkpt>
      <trkpt lat="45.53192" lon="1.84166">
        <ele>673.3</ele>
        <time>2022-08-04T11:25:59Z</time>
      </trkpt>
      <trkpt lat="45.53192" lon="1.8417">
        <ele>673.3</ele>
        <time>2022-08-04T11:26:01Z</time>
      </trkpt>
      <trkpt lat="45.53191" lon="1.84173">
        <ele>673.6</ele>
        <time>2022-08-04T11:26:03Z</time>
      </trkpt>
      <trkpt lat="45.5319" lon="1.84177">
        <ele>673.8</ele>
        <time>2022-08-04T11:26:05Z</time>
      </trkpt>
      <trkpt lat="45.53189" lon="1.84181">
        <ele>674.2</ele>
        <time>2022-08-04T11:26:07Z</time>
      </trkpt>
      <trkpt lat="45.53188" lon="1.84184">
        <ele>674.5</ele>
        <time>2022-08-04T11:26:09Z</time>
      </trkpt>
      <trkpt lat="45.53188" lon="1.84188">
        <ele>674.7</ele>
        <time>2022-08-04T11:26:11Z</time>
      </trkpt>
      <trkpt lat="45.53187" lon="1.84191">
        <ele>674.9</ele>
        <time>2022-08-04T11:26:13Z</time>
      </trkpt>
      <trkpt lat="45.53186" lon="1.84194">
        <ele>675.2</ele>
        <time>2022-08-04T11:26:15Z</time>
      </trkpt>
      <trkpt lat="45.53185" lon="1.84197">
        <ele>675.6</ele>
        <time>2022-08-04T11:26:17Z</time>
      </trkpt>
      <trkpt lat="45.53185" lon="1.842">
        <ele>675.6</ele>
        <time>2022-08-04T11:26:19Z</time>
      </trkpt>
      <trkpt lat="45.53184" lon="1.84203">
        <ele>676</ele>
        <time>2022-08-04T11:26:21Z</time>
      </trkpt>
      <trkpt lat="45.53183" lon="1.84206">
        <ele>676.5</ele>
        <time>2022-08-04T11:26:23Z</time>
      </trkpt>
      <trkpt lat="45.53181" lon="1.84209">
        <ele>676.8</ele>
        <time>2022-08-04T11:26:25Z</time>
      </trkpt>
      <trkpt lat="45.53181" lon="1.84212">
        <ele>677.1</ele>
        <time>2022-08-04T11:26:27Z</time>
      </trkpt>
      <trkpt lat="45.5318" lon="1.84215">
        <ele>677.3</ele>
        <time>2022-08-04T11:26:29Z</time>
      </trkpt>
      <trkpt lat="45.53179" lon="1.84217">
        <ele>677.7</ele>
        <time>2022-08-04T11:26:31Z</time>
      </trkpt>
      <trkpt lat="45.53179" lon="1.8422">
        <ele>677.9</ele>
        <time>2022-08-04T11:26:33Z</time>
      </trkpt>
      <trkpt lat="45.53178" lon="1.84223">
        <ele>678.1</ele>
        <time>2022-08-04T11:26:35Z</time>
      </trkpt>
      <trkpt lat="45.53177" lon="1.84226">
        <ele>678.5</ele>
        <time>2022-08-04T11:26:37Z</time>
      </trkpt>
      <trkpt lat="45.53175" lon="1.8423">
        <ele>678.9</ele>
        <time>2022-08-04T11:26:39Z</time>
      </trkpt>
      <trkpt lat="45.53175" lon="1.84233">
        <ele>679.1</ele>
        <time>2022-08-04T11:26:41Z</time>
      </trkpt>
      <trkpt lat="45.53174" lon="1.84236">
        <ele>679.4</ele>
        <time>2022-08-04T11:26:43Z</time>
      </trkpt>
      <trkpt lat="45.53173" lon="1.84239">
        <ele>679.9</ele>
        <time>2022-08-04T11:26:45Z</time>
      </trkpt>
      <trkpt lat="45.53172" lon="1.84242">
        <ele>680</ele>
        <time>2022-08-04T11:26:47Z</time>
      </trkpt>
      <trkpt lat="45.53172" lon="1.84245">
        <ele>680</ele>
        <time>2022-08-04T11:26:49Z</time>
      </trkpt>
      <trkpt lat="45.53172" lon="1.84248">
        <ele>680.3</ele>
        <time>2022-08-04T11:26:51Z</time>
      </trkpt>
      <trkpt lat="45.53171" lon="1.84251">
        <ele>680.6</ele>
        <time>2022-08-04T11:26:53Z</time>
      </trkpt>
      <trkpt lat="45.53169" lon="1.84254">
        <ele>681</ele>
        <time>2022-08-04T11:26:55Z</time>
      </trkpt>
      <trkpt lat="45.53169" lon="1.84258">
        <ele>681.2</ele>
        <time>2022-08-04T11:26:57Z</time>
      </trkpt>
      <trkpt lat="45.53168" lon="1.84261">
        <ele>681.2</ele>
        <time>2022-08-04T11:26:59Z</time>
      </trkpt>
      <trkpt lat="45.53167" lon="1.84265">
        <ele>681.5</ele>
        <time>2022-08-04T11:27:01Z</time>
      </trkpt>
      <trkpt lat="45.53166" lon="1.84268">
        <ele>681.7</ele>
        <time>2022-08-04T11:27:03Z</time>
      </trkpt>
      <trkpt lat="45.53166" lon="1.84271">
        <ele>681.9</ele>
        <time>2022-08-04T11:27:05Z</time>
      </trkpt>
      <trkpt lat="45.53165" lon="1.84275">
        <ele>682.2</ele>
        <time>2022-08-04T11:27:07Z</time>
      </trkpt>
      <trkpt lat="45.53164" lon="1.84278">
        <ele>682.4</ele>
        <time>2022-08-04T11:27:09Z</time>
      </trkpt>
      <trkpt lat="45.53163" lon="1.84281">
        <ele>682.6</ele>
        <time>2022-08-04T11:27:11Z</time>
      </trkpt>
      <trkpt lat="45.53162" lon="1.84284">
        <ele>682.8</ele>
        <time>2022-08-04T11:27:13Z</time>
      </trkpt>
      <trkpt lat="45.53161" lon="1.84287">
        <ele>683.2</ele>
        <time>2022-08-04T11:27:15Z</time>
      </trkpt>
      <trkpt lat="45.53161" lon="1.84291">
        <ele>683.2</ele>
        <time>2022-08-04T11:27:17Z</time>
      </trkpt>
      <trkpt lat="45.5316" lon="1.84294">
        <ele>683.4</ele>
        <time>2022-08-04T11:27:19Z</time>
      </trkpt>
      <trkpt lat="45.53159" lon="1.84297">
        <ele>683.9</ele>
        <time>2022-08-04T11:27:21Z</time>
      </trkpt>
      <trkpt lat="45.53157" lon="1.84299">
        <ele>684.2</ele>
        <time>2022-08-04T11:27:23Z</time>
      </trkpt>
      <trkpt lat="45.53157" lon="1.84303">
        <ele>684.4</ele>
        <time>2022-08-04T11:27:25Z</time>
      </trkpt>
      <trkpt lat="45.53156" lon="1.84306">
        <ele>684.5</ele>
        <time>2022-08-04T11:27:27Z</time>
      </trkpt>
      <trkpt lat="45.53156" lon="1.84309">
        <ele>684.5</ele>
        <time>2022-08-04T11:27:29Z</time>
      </trkpt>
      <trkpt lat="45.53155" lon="1.84312">
        <ele>684.9</ele>
        <time>2022-08-04T11:27:31Z</time>
      </trkpt>
      <trkpt lat="45.53154" lon="1.84315">
        <ele>685.1</ele>
        <time>2022-08-04T11:27:33Z</time>
      </trkpt>
      <trkpt lat="45.53153" lon="1.84319">
        <ele>685.2</ele>
        <time>2022-08-04T11:27:35Z</time>
      </trkpt>
      <trkpt lat="45.53152" lon="1.84322">
        <ele>685.4</ele>
        <time>2022-08-04T11:27:37Z</time>
      </trkpt>
      <trkpt lat="45.53152" lon="1.84325">
        <ele>685.6</ele>
        <time>2022-08-04T11:27:39Z</time>
      </trkpt>
      <trkpt lat="45.53151" lon="1.84328">
        <ele>685.8</ele>
        <time>2022-08-04T11:27:41Z</time>
      </trkpt>
      <trkpt lat="45.5315" lon="1.84332">
        <ele>685.9</ele>
        <time>2022-08-04T11:27:43Z</time>
      </trkpt>
      <trkpt lat="45.53149" lon="1.84335">
        <ele>686.1</ele>
        <time>2022-08-04T11:27:45Z</time>
      </trkpt>
      <trkpt lat="45.53149" lon="1.84338">
        <ele>686.2</ele>
        <time>2022-08-04T11:27:47Z</time>
      </trkpt>
      <trkpt lat="45.53148" lon="1.84341">
        <ele>686.2</ele>
        <time>2022-08-04T11:27:49Z</time>
      </trkpt>
      <trkpt lat="45.53147" lon="1.84344">
        <ele>686.4</ele>
        <time>2022-08-04T11:27:51Z</time>
      </trkpt>
      <trkpt lat="45.53146" lon="1.84347">
        <ele>686.6</ele>
        <time>2022-08-04T11:27:53Z</time>
      </trkpt>
      <trkpt lat="45.53145" lon="1.84349">
        <ele>686.7</ele>
        <time>2022-08-04T11:27:55Z</time>
      </trkpt>
      <trkpt lat="45.53144" lon="1.84353">
        <ele>686.7</ele>
        <time>2022-08-04T11:27:57Z</time>
      </trkpt>
      <trkpt lat="45.53144" lon="1.84356">
        <ele>686.6</ele>
        <time>2022-08-04T11:27:59Z</time>
      </trkpt>
      <trkpt lat="45.53143" lon="1.8436">
        <ele>686.7</ele>
        <time>2022-08-04T11:28:01Z</time>
      </trkpt>
      <trkpt lat="45.53142" lon="1.84363">
        <ele>687</ele>
        <time>2022-08-04T11:28:03Z</time>
      </trkpt>
      <trkpt lat="45.5314" lon="1.84366">
        <ele>687.1</ele>
        <time>2022-08-04T11:28:05Z</time>
      </trkpt>
      <trkpt lat="45.53139" lon="1.84369">
        <ele>687.2</ele>
        <time>2022-08-04T11:28:07Z</time>
      </trkpt>
      <trkpt lat="45.53139" lon="1.84373">
        <ele>687.2</ele>
        <time>2022-08-04T11:28:09Z</time>
      </trkpt>
      <trkpt lat="45.53138" lon="1.84375">
        <ele>687.3</ele>
        <time>2022-08-04T11:28:11Z</time>
      </trkpt>
      <trkpt lat="45.53137" lon="1.84378">
        <ele>687.5</ele>
        <time>2022-08-04T11:28:13Z</time>
      </trkpt>
      <trkpt lat="45.53135" lon="1.84382">
        <ele>687.5</ele>
        <time>2022-08-04T11:28:15Z</time>
      </trkpt>
      <trkpt lat="45.53135" lon="1.84385">
        <ele>687.5</ele>
        <time>2022-08-04T11:28:17Z</time>
      </trkpt>
      <trkpt lat="45.53133" lon="1.84388">
        <ele>687.7</ele>
        <time>2022-08-04T11:28:19Z</time>
      </trkpt>
      <trkpt lat="45.53132" lon="1.84391">
        <ele>687.8</ele>
        <time>2022-08-04T11:28:21Z</time>
      </trkpt>
      <trkpt lat="45.53131" lon="1.84394">
        <ele>687.9</ele>
        <time>2022-08-04T11:28:23Z</time>
      </trkpt>
      <trkpt lat="45.53129" lon="1.84397">
        <ele>688.2</ele>
        <time>2022-08-04T11:28:25Z</time>
      </trkpt>
      <trkpt lat="45.53128" lon="1.844">
        <ele>688.2</ele>
        <time>2022-08-04T11:28:27Z</time>
      </trkpt>
      <trkpt lat="45.53126" lon="1.84403">
        <ele>688.3</ele>
        <time>2022-08-04T11:28:29Z</time>
      </trkpt>
      <trkpt lat="45.53125" lon="1.84406">
        <ele>688.6</ele>
        <time>2022-08-04T11:28:31Z</time>
      </trkpt>
      <trkpt lat="45.53123" lon="1.84409">
        <ele>688.8</ele>
        <time>2022-08-04T11:28:33Z</time>
      </trkpt>
      <trkpt lat="45.53121" lon="1.8441">
        <ele>689.2</ele>
        <time>2022-08-04T11:28:35Z</time>
      </trkpt>
      <trkpt lat="45.53119" lon="1.84413">
        <ele>689.3</ele>
        <time>2022-08-04T11:28:37Z</time>
      </trkpt>
      <trkpt lat="45.53117" lon="1.84416">
        <ele>689.5</ele>
        <time>2022-08-04T11:28:39Z</time>
      </trkpt>
      <trkpt lat="45.53116" lon="1.84418">
        <ele>689.8</ele>
        <time>2022-08-04T11:28:41Z</time>
      </trkpt>
      <trkpt lat="45.53114" lon="1.84421">
        <ele>690.1</ele>
        <time>2022-08-04T11:28:43Z</time>
      </trkpt>
      <trkpt lat="45.53112" lon="1.84423">
        <ele>690.3</ele>
        <time>2022-08-04T11:28:45Z</time>
      </trkpt>
      <trkpt lat="45.5311" lon="1.84426">
        <ele>690.6</ele>
        <time>2022-08-04T11:28:47Z</time>
      </trkpt>
      <trkpt lat="45.53108" lon="1.84429">
        <ele>690.9</ele>
        <time>2022-08-04T11:28:49Z</time>
      </trkpt>
      <trkpt lat="45.53106" lon="1.84431">
        <ele>691.1</ele>
        <time>2022-08-04T11:28:51Z</time>
      </trkpt>
      <trkpt lat="45.53105" lon="1.84434">
        <ele>691.3</ele>
        <time>2022-08-04T11:28:53Z</time>
      </trkpt>
      <trkpt lat="45.53104" lon="1.84437">
        <ele>691.4</ele>
        <time>2022-08-04T11:28:55Z</time>
      </trkpt>
      <trkpt lat="45.53103" lon="1.8444">
        <ele>691.4</ele>
        <time>2022-08-04T11:28:57Z</time>
      </trkpt>
      <trkpt lat="45.53101" lon="1.84442">
        <ele>691.5</ele>
        <time>2022-08-04T11:28:59Z</time>
      </trkpt>
      <trkpt lat="45.53099" lon="1.84444">
        <ele>691.8</ele>
        <time>2022-08-04T11:29:01Z</time>
      </trkpt>
      <trkpt lat="45.53098" lon="1.84448">
        <ele>691.7</ele>
        <time>2022-08-04T11:29:03Z</time>
      </trkpt>
      <trkpt lat="45.53096" lon="1.84449">
        <ele>691.9</ele>
        <time>2022-08-04T11:29:05Z</time>
      </trkpt>
      <trkpt lat="45.53094" lon="1.84452">
        <ele>692.1</ele>
        <time>2022-08-04T11:29:07Z</time>
      </trkpt>
      <trkpt lat="45.53093" lon="1.84455">
        <ele>692.1</ele>
        <time>2022-08-04T11:29:09Z</time>
      </trkpt>
      <trkpt lat="45.53091" lon="1.84457">
        <ele>692.3</ele>
        <time>2022-08-04T11:29:11Z</time>
      </trkpt>
      <trkpt lat="45.53089" lon="1.84459">
        <ele>692.5</ele>
        <time>2022-08-04T11:29:13Z</time>
      </trkpt>
      <trkpt lat="45.53087" lon="1.8446">
        <ele>692.6</ele>
        <time>2022-08-04T11:29:15Z</time>
      </trkpt>
      <trkpt lat="45.53086" lon="1.84462">
        <ele>692.7</ele>
        <time>2022-08-04T11:29:17Z</time>
      </trkpt>
      <trkpt lat="45.53083" lon="1.84463">
        <ele>693</ele>
        <time>2022-08-04T11:29:19Z</time>
      </trkpt>
      <trkpt lat="45.53082" lon="1.84466">
        <ele>693.1</ele>
        <time>2022-08-04T11:29:21Z</time>
      </trkpt>
      <trkpt lat="45.53081" lon="1.84469">
        <ele>693.1</ele>
        <time>2022-08-04T11:29:23Z</time>
      </trkpt>
      <trkpt lat="45.53079" lon="1.84472">
        <ele>693.3</ele>
        <time>2022-08-04T11:29:25Z</time>
      </trkpt>
      <trkpt lat="45.53077" lon="1.84474">
        <ele>693.6</ele>
        <time>2022-08-04T11:29:27Z</time>
      </trkpt>
      <trkpt lat="45.53076" lon="1.84477">
        <ele>693.5</ele>
        <time>2022-08-04T11:29:29Z</time>
      </trkpt>
      <trkpt lat="45.53075" lon="1.84479">
        <ele>693.7</ele>
        <time>2022-08-04T11:29:31Z</time>
      </trkpt>
      <trkpt lat="45.53073" lon="1.84481">
        <ele>694</ele>
        <time>2022-08-04T11:29:33Z</time>
      </trkpt>
      <trkpt lat="45.53071" lon="1.84484">
        <ele>694.2</ele>
        <time>2022-08-04T11:29:35Z</time>
      </trkpt>
      <trkpt lat="45.5307" lon="1.84487">
        <ele>694.2</ele>
        <time>2022-08-04T11:29:37Z</time>
      </trkpt>
      <trkpt lat="45.53068" lon="1.84489">
        <ele>694.5</ele>
        <time>2022-08-04T11:29:39Z</time>
      </trkpt>
      <trkpt lat="45.53066" lon="1.84492">
        <ele>694.8</ele>
        <time>2022-08-04T11:29:41Z</time>
      </trkpt>
      <trkpt lat="45.53065" lon="1.84494">
        <ele>694.9</ele>
        <time>2022-08-04T11:29:43Z</time>
      </trkpt>
      <trkpt lat="45.53064" lon="1.84497">
        <ele>694.9</ele>
        <time>2022-08-04T11:29:45Z</time>
      </trkpt>
      <trkpt lat="45.53062" lon="1.84498">
        <ele>695.4</ele>
        <time>2022-08-04T11:29:47Z</time>
      </trkpt>
      <trkpt lat="45.53061" lon="1.84501">
        <ele>695.3</ele>
        <time>2022-08-04T11:29:49Z</time>
      </trkpt>
      <trkpt lat="45.53061" lon="1.84504">
        <ele>695.6</ele>
        <time>2022-08-04T11:29:51Z</time>
      </trkpt>
      <trkpt lat="45.5306" lon="1.84506">
        <ele>695.6</ele>
        <time>2022-08-04T11:29:53Z</time>
      </trkpt>
      <trkpt lat="45.53059" lon="1.84508">
        <ele>695.9</ele>
        <time>2022-08-04T11:29:55Z</time>
      </trkpt>
      <trkpt lat="45.53058" lon="1.84511">
        <ele>696.4</ele>
        <time>2022-08-04T11:29:57Z</time>
      </trkpt>
      <trkpt lat="45.53056" lon="1.84513">
        <ele>696.7</ele>
        <time>2022-08-04T11:29:59Z</time>
      </trkpt>
      <trkpt lat="45.53056" lon="1.84516">
        <ele>696.7</ele>
        <time>2022-08-04T11:30:01Z</time>
      </trkpt>
      <trkpt lat="45.53055" lon="1.84519">
        <ele>696.9</ele>
        <time>2022-08-04T11:30:03Z</time>
      </trkpt>
      <trkpt lat="45.53055" lon="1.84523">
        <ele>697.1</ele>
        <time>2022-08-04T11:30:05Z</time>
      </trkpt>
      <trkpt lat="45.53055" lon="1.84527">
        <ele>696.9</ele>
        <time>2022-08-04T11:30:07Z</time>
      </trkpt>
      <trkpt lat="45.53055" lon="1.8453">
        <ele>696.9</ele>
        <time>2022-08-04T11:30:09Z</time>
      </trkpt>
      <trkpt lat="45.53054" lon="1.84534">
        <ele>697.2</ele>
        <time>2022-08-04T11:30:11Z</time>
      </trkpt>
      <trkpt lat="45.53053" lon="1.84538">
        <ele>697.4</ele>
        <time>2022-08-04T11:30:13Z</time>
      </trkpt>
      <trkpt lat="45.53052" lon="1.84543">
        <ele>697.5</ele>
        <time>2022-08-04T11:30:15Z</time>
      </trkpt>
      <trkpt lat="45.53051" lon="1.84546">
        <ele>697.7</ele>
        <time>2022-08-04T11:30:17Z</time>
      </trkpt>
      <trkpt lat="45.53049" lon="1.84549">
        <ele>698</ele>
        <time>2022-08-04T11:30:19Z</time>
      </trkpt>
      <trkpt lat="45.5305" lon="1.84552">
        <ele>698</ele>
        <time>2022-08-04T11:30:21Z</time>
      </trkpt>
      <trkpt lat="45.53048" lon="1.84555">
        <ele>698.3</ele>
        <time>2022-08-04T11:30:23Z</time>
      </trkpt>
      <trkpt lat="45.53046" lon="1.84558">
        <ele>698.6</ele>
        <time>2022-08-04T11:30:25Z</time>
      </trkpt>
      <trkpt lat="45.53046" lon="1.84562">
        <ele>698.7</ele>
        <time>2022-08-04T11:30:27Z</time>
      </trkpt>
      <trkpt lat="45.53045" lon="1.84564">
        <ele>698.8</ele>
        <time>2022-08-04T11:30:29Z</time>
      </trkpt>
      <trkpt lat="45.53044" lon="1.84568">
        <ele>698.8</ele>
        <time>2022-08-04T11:30:31Z</time>
      </trkpt>
      <trkpt lat="45.53043" lon="1.84571">
        <ele>699.1</ele>
        <time>2022-08-04T11:30:33Z</time>
      </trkpt>
      <trkpt lat="45.53042" lon="1.84575">
        <ele>699.2</ele>
        <time>2022-08-04T11:30:35Z</time>
      </trkpt>
      <trkpt lat="45.5304" lon="1.84578">
        <ele>699.5</ele>
        <time>2022-08-04T11:30:37Z</time>
      </trkpt>
      <trkpt lat="45.53039" lon="1.84581">
        <ele>699.7</ele>
        <time>2022-08-04T11:30:39Z</time>
      </trkpt>
      <trkpt lat="45.53038" lon="1.84584">
        <ele>699.8</ele>
        <time>2022-08-04T11:30:41Z</time>
      </trkpt>
      <trkpt lat="45.53035" lon="1.84586">
        <ele>700.3</ele>
        <time>2022-08-04T11:30:43Z</time>
      </trkpt>
      <trkpt lat="45.53034" lon="1.8459">
        <ele>700.7</ele>
        <time>2022-08-04T11:30:45Z</time>
      </trkpt>
      <trkpt lat="45.53032" lon="1.84592">
        <ele>701</ele>
        <time>2022-08-04T11:30:47Z</time>
      </trkpt>
      <trkpt lat="45.5303" lon="1.84595">
        <ele>701.5</ele>
        <time>2022-08-04T11:30:49Z</time>
      </trkpt>
      <trkpt lat="45.53027" lon="1.84596">
        <ele>702</ele>
        <time>2022-08-04T11:30:51Z</time>
      </trkpt>
      <trkpt lat="45.53025" lon="1.84599">
        <ele>702.4</ele>
        <time>2022-08-04T11:30:53Z</time>
      </trkpt>
      <trkpt lat="45.53022" lon="1.84602">
        <ele>702.9</ele>
        <time>2022-08-04T11:30:55Z</time>
      </trkpt>
      <trkpt lat="45.5302" lon="1.84605">
        <ele>703.2</ele>
        <time>2022-08-04T11:30:57Z</time>
      </trkpt>
      <trkpt lat="45.53018" lon="1.84608">
        <ele>703.6</ele>
        <time>2022-08-04T11:30:59Z</time>
      </trkpt>
      <trkpt lat="45.53015" lon="1.84608">
        <ele>704</ele>
        <time>2022-08-04T11:31:01Z</time>
      </trkpt>
      <trkpt lat="45.53012" lon="1.84609">
        <ele>704.5</ele>
        <time>2022-08-04T11:31:03Z</time>
      </trkpt>
      <trkpt lat="45.5301" lon="1.84612">
        <ele>704.8</ele>
        <time>2022-08-04T11:31:05Z</time>
      </trkpt>
      <trkpt lat="45.53008" lon="1.84615">
        <ele>705.1</ele>
        <time>2022-08-04T11:31:07Z</time>
      </trkpt>
      <trkpt lat="45.53006" lon="1.84616">
        <ele>705.4</ele>
        <time>2022-08-04T11:31:09Z</time>
      </trkpt>
      <trkpt lat="45.53003" lon="1.8462">
        <ele>705.7</ele>
        <time>2022-08-04T11:31:11Z</time>
      </trkpt>
      <trkpt lat="45.53" lon="1.84621">
        <ele>706</ele>
        <time>2022-08-04T11:31:13Z</time>
      </trkpt>
      <trkpt lat="45.52998" lon="1.84624">
        <ele>706.2</ele>
        <time>2022-08-04T11:31:15Z</time>
      </trkpt>
      <trkpt lat="45.52995" lon="1.84627">
        <ele>706.4</ele>
        <time>2022-08-04T11:31:17Z</time>
      </trkpt>
      <trkpt lat="45.52993" lon="1.84629">
        <ele>706.6</ele>
        <time>2022-08-04T11:31:19Z</time>
      </trkpt>
      <trkpt lat="45.52991" lon="1.84631">
        <ele>706.8</ele>
        <time>2022-08-04T11:31:21Z</time>
      </trkpt>
      <trkpt lat="45.52988" lon="1.84632">
        <ele>707.1</ele>
        <time>2022-08-04T11:31:23Z</time>
      </trkpt>
      <trkpt lat="45.52985" lon="1.84635">
        <ele>707.3</ele>
        <time>2022-08-04T11:31:25Z</time>
      </trkpt>
      <trkpt lat="45.52983" lon="1.84636">
        <ele>707.5</ele>
        <time>2022-08-04T11:31:27Z</time>
      </trkpt>
      <trkpt lat="45.5298" lon="1.84638">
        <ele>707.7</ele>
        <time>2022-08-04T11:31:29Z</time>
      </trkpt>
      <trkpt lat="45.52977" lon="1.8464">
        <ele>707.9</ele>
        <time>2022-08-04T11:31:31Z</time>
      </trkpt>
      <trkpt lat="45.52974" lon="1.84641">
        <ele>708.2</ele>
        <time>2022-08-04T11:31:33Z</time>
      </trkpt>
      <trkpt lat="45.52971" lon="1.84642">
        <ele>708.4</ele>
        <time>2022-08-04T11:31:35Z</time>
      </trkpt>
      <trkpt lat="45.52969" lon="1.84643">
        <ele>708.7</ele>
        <time>2022-08-04T11:31:37Z</time>
      </trkpt>
      <trkpt lat="45.52966" lon="1.84644">
        <ele>708.9</ele>
        <time>2022-08-04T11:31:39Z</time>
      </trkpt>
      <trkpt lat="45.52963" lon="1.84644">
        <ele>709.2</ele>
        <time>2022-08-04T11:31:41Z</time>
      </trkpt>
      <trkpt lat="45.52961" lon="1.84645">
        <ele>709.4</ele>
        <time>2022-08-04T11:31:43Z</time>
      </trkpt>
      <trkpt lat="45.52958" lon="1.84644">
        <ele>709.7</ele>
        <time>2022-08-04T11:31:45Z</time>
      </trkpt>
      <trkpt lat="45.52956" lon="1.84641">
        <ele>710</ele>
        <time>2022-08-04T11:31:47Z</time>
      </trkpt>
      <trkpt lat="45.52953" lon="1.84641">
        <ele>710.3</ele>
        <time>2022-08-04T11:31:49Z</time>
      </trkpt>
      <trkpt lat="45.52951" lon="1.84641">
        <ele>710.5</ele>
        <time>2022-08-04T11:31:51Z</time>
      </trkpt>
      <trkpt lat="45.52948" lon="1.84641">
        <ele>710.8</ele>
        <time>2022-08-04T11:31:53Z</time>
      </trkpt>
      <trkpt lat="45.52946" lon="1.84639">
        <ele>711.1</ele>
        <time>2022-08-04T11:31:55Z</time>
      </trkpt>
      <trkpt lat="45.52943" lon="1.84638">
        <ele>711.4</ele>
        <time>2022-08-04T11:31:57Z</time>
      </trkpt>
      <trkpt lat="45.5294" lon="1.84637">
        <ele>711.7</ele>
        <time>2022-08-04T11:31:59Z</time>
      </trkpt>
      <trkpt lat="45.52938" lon="1.84635">
        <ele>712</ele>
        <time>2022-08-04T11:32:01Z</time>
      </trkpt>
      <trkpt lat="45.52935" lon="1.84635">
        <ele>712.2</ele>
        <time>2022-08-04T11:32:03Z</time>
      </trkpt>
      <trkpt lat="45.52933" lon="1.84635">
        <ele>712.5</ele>
        <time>2022-08-04T11:32:05Z</time>
      </trkpt>
      <trkpt lat="45.5293" lon="1.84635">
        <ele>712.8</ele>
        <time>2022-08-04T11:32:07Z</time>
      </trkpt>
      <trkpt lat="45.52928" lon="1.84632">
        <ele>713.1</ele>
        <time>2022-08-04T11:32:09Z</time>
      </trkpt>
      <trkpt lat="45.52925" lon="1.84631">
        <ele>713.5</ele>
        <time>2022-08-04T11:32:11Z</time>
      </trkpt>
      <trkpt lat="45.52923" lon="1.84629">
        <ele>713.7</ele>
        <time>2022-08-04T11:32:13Z</time>
      </trkpt>
      <trkpt lat="45.5292" lon="1.84629">
        <ele>714</ele>
        <time>2022-08-04T11:32:15Z</time>
      </trkpt>
      <trkpt lat="45.52917" lon="1.84628">
        <ele>714.3</ele>
        <time>2022-08-04T11:32:17Z</time>
      </trkpt>
      <trkpt lat="45.52915" lon="1.84628">
        <ele>714.5</ele>
        <time>2022-08-04T11:32:19Z</time>
      </trkpt>
      <trkpt lat="45.52912" lon="1.84627">
        <ele>714.7</ele>
        <time>2022-08-04T11:32:21Z</time>
      </trkpt>
      <trkpt lat="45.5291" lon="1.84626">
        <ele>714.9</ele>
        <time>2022-08-04T11:32:23Z</time>
      </trkpt>
      <trkpt lat="45.52907" lon="1.84626">
        <ele>715.1</ele>
        <time>2022-08-04T11:32:25Z</time>
      </trkpt>
      <trkpt lat="45.52904" lon="1.84625">
        <ele>715.2</ele>
        <time>2022-08-04T11:32:27Z</time>
      </trkpt>
      <trkpt lat="45.52901" lon="1.84624">
        <ele>715.4</ele>
        <time>2022-08-04T11:32:29Z</time>
      </trkpt>
      <trkpt lat="45.52899" lon="1.84623">
        <ele>715.6</ele>
        <time>2022-08-04T11:32:31Z</time>
      </trkpt>
      <trkpt lat="45.52896" lon="1.84624">
        <ele>715.8</ele>
        <time>2022-08-04T11:32:33Z</time>
      </trkpt>
      <trkpt lat="45.52893" lon="1.84624">
        <ele>715.9</ele>
        <time>2022-08-04T11:32:35Z</time>
      </trkpt>
      <trkpt lat="45.52891" lon="1.84623">
        <ele>716.1</ele>
        <time>2022-08-04T11:32:37Z</time>
      </trkpt>
      <trkpt lat="45.52888" lon="1.84622">
        <ele>716.2</ele>
        <time>2022-08-04T11:32:39Z</time>
      </trkpt>
      <trkpt lat="45.52886" lon="1.84622">
        <ele>716.4</ele>
        <time>2022-08-04T11:32:41Z</time>
      </trkpt>
      <trkpt lat="45.52883" lon="1.84623">
        <ele>716.5</ele>
        <time>2022-08-04T11:32:43Z</time>
      </trkpt>
      <trkpt lat="45.52881" lon="1.84623">
        <ele>716.6</ele>
        <time>2022-08-04T11:32:45Z</time>
      </trkpt>
      <trkpt lat="45.52879" lon="1.84624">
        <ele>716.7</ele>
        <time>2022-08-04T11:32:47Z</time>
      </trkpt>
      <trkpt lat="45.52877" lon="1.84625">
        <ele>716.9</ele>
        <time>2022-08-04T11:32:49Z</time>
      </trkpt>
      <trkpt lat="45.52875" lon="1.84627">
        <ele>717</ele>
        <time>2022-08-04T11:32:51Z</time>
      </trkpt>
      <trkpt lat="45.52874" lon="1.8463">
        <ele>717.1</ele>
        <time>2022-08-04T11:32:53Z</time>
      </trkpt>
      <trkpt lat="45.52872" lon="1.84634">
        <ele>717.2</ele>
        <time>2022-08-04T11:32:55Z</time>
      </trkpt>
      <trkpt lat="45.52872" lon="1.84638">
        <ele>717.2</ele>
        <time>2022-08-04T11:32:57Z</time>
      </trkpt>
      <trkpt lat="45.5287" lon="1.84641">
        <ele>717.3</ele>
        <time>2022-08-04T11:32:59Z</time>
      </trkpt>
      <trkpt lat="45.52869" lon="1.84644">
        <ele>717.5</ele>
        <time>2022-08-04T11:33:01Z</time>
      </trkpt>
      <trkpt lat="45.52868" lon="1.84647">
        <ele>717.6</ele>
        <time>2022-08-04T11:33:03Z</time>
      </trkpt>
      <trkpt lat="45.52867" lon="1.84651">
        <ele>717.7</ele>
        <time>2022-08-04T11:33:05Z</time>
      </trkpt>
      <trkpt lat="45.52865" lon="1.84653">
        <ele>717.8</ele>
        <time>2022-08-04T11:33:07Z</time>
      </trkpt>
      <trkpt lat="45.52865" lon="1.84651">
        <ele>717.9</ele>
        <time>2022-08-04T11:33:09Z</time>
      </trkpt>
      <trkpt lat="45.52865" lon="1.84651">
        <ele>717.8</ele>
        <time>2022-08-04T11:33:11Z</time>
      </trkpt>
      <trkpt lat="45.52864" lon="1.84652">
        <ele>717.9</ele>
        <time>2022-08-04T11:33:13Z</time>
      </trkpt>
      <trkpt lat="45.52863" lon="1.84653">
        <ele>718</ele>
        <time>2022-08-04T11:33:15Z</time>
      </trkpt>
      <trkpt lat="45.52863" lon="1.84654">
        <ele>718</ele>
        <time>2022-08-04T11:33:17Z</time>
      </trkpt>
      <trkpt lat="45.52874" lon="1.8464">
        <ele>717.1</ele>
        <time>2022-08-04T11:45:29Z</time>
      </trkpt>
      <trkpt lat="45.52875" lon="1.84633">
        <ele>717</ele>
        <time>2022-08-04T11:45:31Z</time>
      </trkpt>
      <trkpt lat="45.52874" lon="1.84626">
        <ele>717.1</ele>
        <time>2022-08-04T11:45:33Z</time>
      </trkpt>
      <trkpt lat="45.5287" lon="1.84622">
        <ele>717.3</ele>
        <time>2022-08-04T11:45:35Z</time>
      </trkpt>
      <trkpt lat="45.52865" lon="1.84625">
        <ele>717.6</ele>
        <time>2022-08-04T11:45:37Z</time>
      </trkpt>
      <trkpt lat="45.52863" lon="1.84627">
        <ele>717.7</ele>
        <time>2022-08-04T11:45:39Z</time>
      </trkpt>
      <trkpt lat="45.52861" lon="1.8463">
        <ele>717.9</ele>
        <time>2022-08-04T11:45:41Z</time>
      </trkpt>
      <trkpt lat="45.52858" lon="1.84631">
        <ele>718.1</ele>
        <time>2022-08-04T11:45:43Z</time>
      </trkpt>
      <trkpt lat="45.52856" lon="1.84634">
        <ele>718.3</ele>
        <time>2022-08-04T11:45:45Z</time>
      </trkpt>
      <trkpt lat="45.52854" lon="1.84636">
        <ele>718.4</ele>
        <time>2022-08-04T11:45:47Z</time>
      </trkpt>
      <trkpt lat="45.52852" lon="1.84638">
        <ele>718.6</ele>
        <time>2022-08-04T11:45:49Z</time>
      </trkpt>
      <trkpt lat="45.5285" lon="1.8464">
        <ele>718.9</ele>
        <time>2022-08-04T11:45:51Z</time>
      </trkpt>
      <trkpt lat="45.52848" lon="1.84643">
        <ele>719.1</ele>
        <time>2022-08-04T11:45:53Z</time>
      </trkpt>
      <trkpt lat="45.52845" lon="1.84646">
        <ele>719.3</ele>
        <time>2022-08-04T11:45:55Z</time>
      </trkpt>
      <trkpt lat="45.52844" lon="1.84649">
        <ele>719.5</ele>
        <time>2022-08-04T11:45:57Z</time>
      </trkpt>
      <trkpt lat="45.52842" lon="1.84652">
        <ele>719.7</ele>
        <time>2022-08-04T11:45:59Z</time>
      </trkpt>
      <trkpt lat="45.5284" lon="1.84654">
        <ele>720</ele>
        <time>2022-08-04T11:46:01Z</time>
      </trkpt>
      <trkpt lat="45.52837" lon="1.84657">
        <ele>720.3</ele>
        <time>2022-08-04T11:46:03Z</time>
      </trkpt>
      <trkpt lat="45.52836" lon="1.8466">
        <ele>720.5</ele>
        <time>2022-08-04T11:46:05Z</time>
      </trkpt>
      <trkpt lat="45.52835" lon="1.84663">
        <ele>720.8</ele>
        <time>2022-08-04T11:46:07Z</time>
      </trkpt>
      <trkpt lat="45.52833" lon="1.84665">
        <ele>721</ele>
        <time>2022-08-04T11:46:09Z</time>
      </trkpt>
      <trkpt lat="45.52831" lon="1.84669">
        <ele>721.3</ele>
        <time>2022-08-04T11:46:11Z</time>
      </trkpt>
      <trkpt lat="45.5283" lon="1.84672">
        <ele>721.6</ele>
        <time>2022-08-04T11:46:13Z</time>
      </trkpt>
      <trkpt lat="45.52829" lon="1.84675">
        <ele>721.8</ele>
        <time>2022-08-04T11:46:15Z</time>
      </trkpt>
      <trkpt lat="45.52827" lon="1.84678">
        <ele>722.2</ele>
        <time>2022-08-04T11:46:17Z</time>
      </trkpt>
      <trkpt lat="45.52826" lon="1.84681">
        <ele>722.4</ele>
        <time>2022-08-04T11:46:19Z</time>
      </trkpt>
      <trkpt lat="45.52825" lon="1.84684">
        <ele>722.6</ele>
        <time>2022-08-04T11:46:21Z</time>
      </trkpt>
      <trkpt lat="45.52823" lon="1.84687">
        <ele>722.9</ele>
        <time>2022-08-04T11:46:23Z</time>
      </trkpt>
      <trkpt lat="45.52822" lon="1.8469">
        <ele>723.2</ele>
        <time>2022-08-04T11:46:25Z</time>
      </trkpt>
      <trkpt lat="45.52821" lon="1.84694">
        <ele>723.4</ele>
        <time>2022-08-04T11:46:27Z</time>
      </trkpt>
      <trkpt lat="45.52819" lon="1.84696">
        <ele>723.7</ele>
        <time>2022-08-04T11:46:29Z</time>
      </trkpt>
      <trkpt lat="45.52818" lon="1.847">
        <ele>724</ele>
        <time>2022-08-04T11:46:31Z</time>
      </trkpt>
      <trkpt lat="45.52817" lon="1.84703">
        <ele>724.2</ele>
        <time>2022-08-04T11:46:33Z</time>
      </trkpt>
      <trkpt lat="45.52816" lon="1.84706">
        <ele>724.4</ele>
        <time>2022-08-04T11:46:35Z</time>
      </trkpt>
      <trkpt lat="45.52814" lon="1.84709">
        <ele>724.7</ele>
        <time>2022-08-04T11:46:37Z</time>
      </trkpt>
      <trkpt lat="45.52813" lon="1.84713">
        <ele>724.9</ele>
        <time>2022-08-04T11:46:39Z</time>
      </trkpt>
      <trkpt lat="45.52812" lon="1.84716">
        <ele>725.2</ele>
        <time>2022-08-04T11:46:41Z</time>
      </trkpt>
      <trkpt lat="45.52811" lon="1.8472">
        <ele>725.4</ele>
        <time>2022-08-04T11:46:43Z</time>
      </trkpt>
      <trkpt lat="45.5281" lon="1.84722">
        <ele>725.6</ele>
        <time>2022-08-04T11:46:45Z</time>
      </trkpt>
      <trkpt lat="45.52809" lon="1.84725">
        <ele>725.8</ele>
        <time>2022-08-04T11:46:47Z</time>
      </trkpt>
      <trkpt lat="45.52809" lon="1.84729">
        <ele>726</ele>
        <time>2022-08-04T11:46:49Z</time>
      </trkpt>
      <trkpt lat="45.52808" lon="1.84732">
        <ele>726.2</ele>
        <time>2022-08-04T11:46:51Z</time>
      </trkpt>
      <trkpt lat="45.52806" lon="1.84735">
        <ele>726.4</ele>
        <time>2022-08-04T11:46:53Z</time>
      </trkpt>
      <trkpt lat="45.52806" lon="1.84738">
        <ele>726.6</ele>
        <time>2022-08-04T11:46:55Z</time>
      </trkpt>
      <trkpt lat="45.52805" lon="1.84741">
        <ele>726.8</ele>
        <time>2022-08-04T11:46:57Z</time>
      </trkpt>
      <trkpt lat="45.52804" lon="1.84744">
        <ele>727</ele>
        <time>2022-08-04T11:46:59Z</time>
      </trkpt>
      <trkpt lat="45.52803" lon="1.84747">
        <ele>727.2</ele>
        <time>2022-08-04T11:47:01Z</time>
      </trkpt>
      <trkpt lat="45.52802" lon="1.8475">
        <ele>727.4</ele>
        <time>2022-08-04T11:47:03Z</time>
      </trkpt>
      <trkpt lat="45.528" lon="1.84753">
        <ele>727.6</ele>
        <time>2022-08-04T11:47:05Z</time>
      </trkpt>
      <trkpt lat="45.528" lon="1.84757">
        <ele>727.7</ele>
        <time>2022-08-04T11:47:07Z</time>
      </trkpt>
      <trkpt lat="45.528" lon="1.84761">
        <ele>727.8</ele>
        <time>2022-08-04T11:47:09Z</time>
      </trkpt>
      <trkpt lat="45.52798" lon="1.84764">
        <ele>728.1</ele>
        <time>2022-08-04T11:47:11Z</time>
      </trkpt>
      <trkpt lat="45.52797" lon="1.84768">
        <ele>728.2</ele>
        <time>2022-08-04T11:47:13Z</time>
      </trkpt>
      <trkpt lat="45.52796" lon="1.84771">
        <ele>728.4</ele>
        <time>2022-08-04T11:47:15Z</time>
      </trkpt>
      <trkpt lat="45.52795" lon="1.84774">
        <ele>728.5</ele>
        <time>2022-08-04T11:47:17Z</time>
      </trkpt>
      <trkpt lat="45.52796" lon="1.84778">
        <ele>728.5</ele>
        <time>2022-08-04T11:47:19Z</time>
      </trkpt>
      <trkpt lat="45.52795" lon="1.84782">
        <ele>728.6</ele>
        <time>2022-08-04T11:47:21Z</time>
      </trkpt>
      <trkpt lat="45.52794" lon="1.84786">
        <ele>728.8</ele>
        <time>2022-08-04T11:47:23Z</time>
      </trkpt>
      <trkpt lat="45.52794" lon="1.8479">
        <ele>728.8</ele>
        <time>2022-08-04T11:47:25Z</time>
      </trkpt>
      <trkpt lat="45.52794" lon="1.84794">
        <ele>728.9</ele>
        <time>2022-08-04T11:47:27Z</time>
      </trkpt>
      <trkpt lat="45.52792" lon="1.84799">
        <ele>729</ele>
        <time>2022-08-04T11:47:29Z</time>
      </trkpt>
      <trkpt lat="45.52792" lon="1.84802">
        <ele>729.1</ele>
        <time>2022-08-04T11:47:31Z</time>
      </trkpt>
      <trkpt lat="45.52792" lon="1.84807">
        <ele>729.2</ele>
        <time>2022-08-04T11:47:33Z</time>
      </trkpt>
      <trkpt lat="45.52791" lon="1.84811">
        <ele>729.3</ele>
        <time>2022-08-04T11:47:35Z</time>
      </trkpt>
      <trkpt lat="45.5279" lon="1.84815">
        <ele>729.3</ele>
        <time>2022-08-04T11:47:37Z</time>
      </trkpt>
      <trkpt lat="45.52789" lon="1.84819">
        <ele>729.4</ele>
        <time>2022-08-04T11:47:39Z</time>
      </trkpt>
      <trkpt lat="45.52789" lon="1.84823">
        <ele>729.4</ele>
        <time>2022-08-04T11:47:41Z</time>
      </trkpt>
      <trkpt lat="45.52788" lon="1.84827">
        <ele>729.5</ele>
        <time>2022-08-04T11:47:43Z</time>
      </trkpt>
      <trkpt lat="45.52787" lon="1.84831">
        <ele>729.5</ele>
        <time>2022-08-04T11:47:45Z</time>
      </trkpt>
      <trkpt lat="45.52787" lon="1.84835">
        <ele>729.6</ele>
        <time>2022-08-04T11:47:47Z</time>
      </trkpt>
      <trkpt lat="45.52786" lon="1.84839">
        <ele>729.8</ele>
        <time>2022-08-04T11:47:49Z</time>
      </trkpt>
      <trkpt lat="45.52786" lon="1.84843">
        <ele>730</ele>
        <time>2022-08-04T11:47:51Z</time>
      </trkpt>
      <trkpt lat="45.52786" lon="1.84847">
        <ele>730.1</ele>
        <time>2022-08-04T11:47:53Z</time>
      </trkpt>
      <trkpt lat="45.52785" lon="1.84852">
        <ele>730.3</ele>
        <time>2022-08-04T11:47:55Z</time>
      </trkpt>
      <trkpt lat="45.52784" lon="1.84857">
        <ele>730.5</ele>
        <time>2022-08-04T11:47:57Z</time>
      </trkpt>
      <trkpt lat="45.52783" lon="1.84861">
        <ele>730.7</ele>
        <time>2022-08-04T11:47:59Z</time>
      </trkpt>
      <trkpt lat="45.52783" lon="1.84865">
        <ele>730.8</ele>
        <time>2022-08-04T11:48:01Z</time>
      </trkpt>
      <trkpt lat="45.52783" lon="1.8487">
        <ele>731</ele>
        <time>2022-08-04T11:48:03Z</time>
      </trkpt>
      <trkpt lat="45.52783" lon="1.84874">
        <ele>731.1</ele>
        <time>2022-08-04T11:48:05Z</time>
      </trkpt>
      <trkpt lat="45.52783" lon="1.84878">
        <ele>731.3</ele>
        <time>2022-08-04T11:48:07Z</time>
      </trkpt>
      <trkpt lat="45.52782" lon="1.84883">
        <ele>731.5</ele>
        <time>2022-08-04T11:48:09Z</time>
      </trkpt>
      <trkpt lat="45.52782" lon="1.84887">
        <ele>731.6</ele>
        <time>2022-08-04T11:48:11Z</time>
      </trkpt>
      <trkpt lat="45.52783" lon="1.84891">
        <ele>731.8</ele>
        <time>2022-08-04T11:48:13Z</time>
      </trkpt>
      <trkpt lat="45.52783" lon="1.84896">
        <ele>732</ele>
        <time>2022-08-04T11:48:15Z</time>
      </trkpt>
      <trkpt lat="45.52783" lon="1.84901">
        <ele>732.2</ele>
        <time>2022-08-04T11:48:17Z</time>
      </trkpt>
      <trkpt lat="45.52783" lon="1.84906">
        <ele>732.4</ele>
        <time>2022-08-04T11:48:19Z</time>
      </trkpt>
      <trkpt lat="45.52784" lon="1.8491">
        <ele>732.6</ele>
        <time>2022-08-04T11:48:21Z</time>
      </trkpt>
      <trkpt lat="45.52785" lon="1.84914">
        <ele>732.8</ele>
        <time>2022-08-04T11:48:23Z</time>
      </trkpt>
      <trkpt lat="45.52785" lon="1.84919">
        <ele>733</ele>
        <time>2022-08-04T11:48:25Z</time>
      </trkpt>
      <trkpt lat="45.52785" lon="1.84923">
        <ele>733</ele>
        <time>2022-08-04T11:48:27Z</time>
      </trkpt>
      <trkpt lat="45.52787" lon="1.84928">
        <ele>733.2</ele>
        <time>2022-08-04T11:48:29Z</time>
      </trkpt>
      <trkpt lat="45.52788" lon="1.84932">
        <ele>733.3</ele>
        <time>2022-08-04T11:48:31Z</time>
      </trkpt>
      <trkpt lat="45.52789" lon="1.84936">
        <ele>733.4</ele>
        <time>2022-08-04T11:48:33Z</time>
      </trkpt>
      <trkpt lat="45.52789" lon="1.84941">
        <ele>733.5</ele>
        <time>2022-08-04T11:48:35Z</time>
      </trkpt>
      <trkpt lat="45.5279" lon="1.84946">
        <ele>733.7</ele>
        <time>2022-08-04T11:48:37Z</time>
      </trkpt>
      <trkpt lat="45.52791" lon="1.8495">
        <ele>733.8</ele>
        <time>2022-08-04T11:48:39Z</time>
      </trkpt>
      <trkpt lat="45.52792" lon="1.84954">
        <ele>733.9</ele>
        <time>2022-08-04T11:48:41Z</time>
      </trkpt>
      <trkpt lat="45.52792" lon="1.84959">
        <ele>734.1</ele>
        <time>2022-08-04T11:48:43Z</time>
      </trkpt>
      <trkpt lat="45.52793" lon="1.84963">
        <ele>734.2</ele>
        <time>2022-08-04T11:48:45Z</time>
      </trkpt>
      <trkpt lat="45.52794" lon="1.84968">
        <ele>734.4</ele>
        <time>2022-08-04T11:48:47Z</time>
      </trkpt>
      <trkpt lat="45.52795" lon="1.84971">
        <ele>734.7</ele>
        <time>2022-08-04T11:48:49Z</time>
      </trkpt>
      <trkpt lat="45.52795" lon="1.84976">
        <ele>734.8</ele>
        <time>2022-08-04T11:48:51Z</time>
      </trkpt>
      <trkpt lat="45.52796" lon="1.84981">
        <ele>735</ele>
        <time>2022-08-04T11:48:53Z</time>
      </trkpt>
      <trkpt lat="45.52797" lon="1.84985">
        <ele>735.3</ele>
        <time>2022-08-04T11:48:55Z</time>
      </trkpt>
      <trkpt lat="45.52798" lon="1.84989">
        <ele>735.6</ele>
        <time>2022-08-04T11:48:57Z</time>
      </trkpt>
      <trkpt lat="45.52799" lon="1.84994">
        <ele>735.8</ele>
        <time>2022-08-04T11:48:59Z</time>
      </trkpt>
      <trkpt lat="45.52799" lon="1.84998">
        <ele>736</ele>
        <time>2022-08-04T11:49:01Z</time>
      </trkpt>
      <trkpt lat="45.52801" lon="1.85002">
        <ele>736.5</ele>
        <time>2022-08-04T11:49:03Z</time>
      </trkpt>
      <trkpt lat="45.52802" lon="1.85006">
        <ele>737</ele>
        <time>2022-08-04T11:49:05Z</time>
      </trkpt>
      <trkpt lat="45.52803" lon="1.85011">
        <ele>737.4</ele>
        <time>2022-08-04T11:49:07Z</time>
      </trkpt>
      <trkpt lat="45.52804" lon="1.85015">
        <ele>737.7</ele>
        <time>2022-08-04T11:49:09Z</time>
      </trkpt>
      <trkpt lat="45.52805" lon="1.85019">
        <ele>738.2</ele>
        <time>2022-08-04T11:49:11Z</time>
      </trkpt>
      <trkpt lat="45.52806" lon="1.85024">
        <ele>738.6</ele>
        <time>2022-08-04T11:49:13Z</time>
      </trkpt>
      <trkpt lat="45.52807" lon="1.85028">
        <ele>739</ele>
        <time>2022-08-04T11:49:15Z</time>
      </trkpt>
      <trkpt lat="45.52808" lon="1.85033">
        <ele>739.5</ele>
        <time>2022-08-04T11:49:17Z</time>
      </trkpt>
      <trkpt lat="45.52809" lon="1.85038">
        <ele>739.9</ele>
        <time>2022-08-04T11:49:19Z</time>
      </trkpt>
      <trkpt lat="45.5281" lon="1.85042">
        <ele>740.4</ele>
        <time>2022-08-04T11:49:21Z</time>
      </trkpt>
      <trkpt lat="45.52811" lon="1.85047">
        <ele>740.8</ele>
        <time>2022-08-04T11:49:23Z</time>
      </trkpt>
      <trkpt lat="45.52812" lon="1.85051">
        <ele>741.1</ele>
        <time>2022-08-04T11:49:25Z</time>
      </trkpt>
      <trkpt lat="45.52813" lon="1.85056">
        <ele>741.4</ele>
        <time>2022-08-04T11:49:27Z</time>
      </trkpt>
      <trkpt lat="45.52814" lon="1.85061">
        <ele>741.9</ele>
        <time>2022-08-04T11:49:29Z</time>
      </trkpt>
      <trkpt lat="45.52815" lon="1.85065">
        <ele>742.2</ele>
        <time>2022-08-04T11:49:31Z</time>
      </trkpt>
      <trkpt lat="45.52815" lon="1.8507">
        <ele>742.5</ele>
        <time>2022-08-04T11:49:33Z</time>
      </trkpt>
      <trkpt lat="45.52814" lon="1.85075">
        <ele>742.6</ele>
        <time>2022-08-04T11:49:35Z</time>
      </trkpt>
      <trkpt lat="45.52813" lon="1.85081">
        <ele>742.8</ele>
        <time>2022-08-04T11:49:37Z</time>
      </trkpt>
      <trkpt lat="45.52813" lon="1.85086">
        <ele>742.9</ele>
        <time>2022-08-04T11:49:39Z</time>
      </trkpt>
      <trkpt lat="45.52813" lon="1.85091">
        <ele>743.2</ele>
        <time>2022-08-04T11:49:41Z</time>
      </trkpt>
      <trkpt lat="45.52812" lon="1.85096">
        <ele>743.3</ele>
        <time>2022-08-04T11:49:43Z</time>
      </trkpt>
      <trkpt lat="45.52811" lon="1.851">
        <ele>743.3</ele>
        <time>2022-08-04T11:49:45Z</time>
      </trkpt>
      <trkpt lat="45.5281" lon="1.85105">
        <ele>743.3</ele>
        <time>2022-08-04T11:49:47Z</time>
      </trkpt>
      <trkpt lat="45.52809" lon="1.8511">
        <ele>743.4</ele>
        <time>2022-08-04T11:49:49Z</time>
      </trkpt>
      <trkpt lat="45.52808" lon="1.85115">
        <ele>743.5</ele>
        <time>2022-08-04T11:49:51Z</time>
      </trkpt>
      <trkpt lat="45.52808" lon="1.8512">
        <ele>743.6</ele>
        <time>2022-08-04T11:49:53Z</time>
      </trkpt>
      <trkpt lat="45.52807" lon="1.85125">
        <ele>743.7</ele>
        <time>2022-08-04T11:49:55Z</time>
      </trkpt>
      <trkpt lat="45.52805" lon="1.85131">
        <ele>743.7</ele>
        <time>2022-08-04T11:49:57Z</time>
      </trkpt>
      <trkpt lat="45.52804" lon="1.85135">
        <ele>743.6</ele>
        <time>2022-08-04T11:49:59Z</time>
      </trkpt>
      <trkpt lat="45.52803" lon="1.85139">
        <ele>743.6</ele>
        <time>2022-08-04T11:50:01Z</time>
      </trkpt>
      <trkpt lat="45.52802" lon="1.85144">
        <ele>743.7</ele>
        <time>2022-08-04T11:50:03Z</time>
      </trkpt>
      <trkpt lat="45.528" lon="1.85148">
        <ele>743.7</ele>
        <time>2022-08-04T11:50:05Z</time>
      </trkpt>
      <trkpt lat="45.52799" lon="1.85154">
        <ele>743.7</ele>
        <time>2022-08-04T11:50:07Z</time>
      </trkpt>
      <trkpt lat="45.52798" lon="1.85158">
        <ele>743.7</ele>
        <time>2022-08-04T11:50:09Z</time>
      </trkpt>
      <trkpt lat="45.52796" lon="1.85163">
        <ele>743.5</ele>
        <time>2022-08-04T11:50:11Z</time>
      </trkpt>
      <trkpt lat="45.52794" lon="1.85168">
        <ele>743.5</ele>
        <time>2022-08-04T11:50:13Z</time>
      </trkpt>
      <trkpt lat="45.52793" lon="1.85173">
        <ele>743.6</ele>
        <time>2022-08-04T11:50:15Z</time>
      </trkpt>
      <trkpt lat="45.52792" lon="1.85178">
        <ele>743.7</ele>
        <time>2022-08-04T11:50:17Z</time>
      </trkpt>
      <trkpt lat="45.5279" lon="1.85183">
        <ele>743.7</ele>
        <time>2022-08-04T11:50:19Z</time>
      </trkpt>
      <trkpt lat="45.52789" lon="1.85188">
        <ele>743.8</ele>
        <time>2022-08-04T11:50:21Z</time>
      </trkpt>
      <trkpt lat="45.52787" lon="1.85193">
        <ele>743.8</ele>
        <time>2022-08-04T11:50:23Z</time>
      </trkpt>
      <trkpt lat="45.52785" lon="1.85198">
        <ele>743.8</ele>
        <time>2022-08-04T11:50:25Z</time>
      </trkpt>
      <trkpt lat="45.52783" lon="1.85203">
        <ele>743.9</ele>
        <time>2022-08-04T11:50:27Z</time>
      </trkpt>
      <trkpt lat="45.52782" lon="1.85208">
        <ele>744</ele>
        <time>2022-08-04T11:50:29Z</time>
      </trkpt>
      <trkpt lat="45.52781" lon="1.85213">
        <ele>744.1</ele>
        <time>2022-08-04T11:50:31Z</time>
      </trkpt>
      <trkpt lat="45.5278" lon="1.85218">
        <ele>744.3</ele>
        <time>2022-08-04T11:50:33Z</time>
      </trkpt>
      <trkpt lat="45.52779" lon="1.85223">
        <ele>744.4</ele>
        <time>2022-08-04T11:50:35Z</time>
      </trkpt>
      <trkpt lat="45.52776" lon="1.85228">
        <ele>744.4</ele>
        <time>2022-08-04T11:50:37Z</time>
      </trkpt>
      <trkpt lat="45.52775" lon="1.85234">
        <ele>744.5</ele>
        <time>2022-08-04T11:50:39Z</time>
      </trkpt>
      <trkpt lat="45.52773" lon="1.85239">
        <ele>744.5</ele>
        <time>2022-08-04T11:50:41Z</time>
      </trkpt>
      <trkpt lat="45.52771" lon="1.85243">
        <ele>744.6</ele>
        <time>2022-08-04T11:50:43Z</time>
      </trkpt>
      <trkpt lat="45.52769" lon="1.85247">
        <ele>744.6</ele>
        <time>2022-08-04T11:50:45Z</time>
      </trkpt>
      <trkpt lat="45.52767" lon="1.85252">
        <ele>744.8</ele>
        <time>2022-08-04T11:50:47Z</time>
      </trkpt>
      <trkpt lat="45.52764" lon="1.85257">
        <ele>745.6</ele>
        <time>2022-08-04T11:50:49Z</time>
      </trkpt>
      <trkpt lat="45.52761" lon="1.85262">
        <ele>746.3</ele>
        <time>2022-08-04T11:50:51Z</time>
      </trkpt>
      <trkpt lat="45.52759" lon="1.85266">
        <ele>746.9</ele>
        <time>2022-08-04T11:50:53Z</time>
      </trkpt>
      <trkpt lat="45.52755" lon="1.8527">
        <ele>747.4</ele>
        <time>2022-08-04T11:50:55Z</time>
      </trkpt>
      <trkpt lat="45.52753" lon="1.85275">
        <ele>748.2</ele>
        <time>2022-08-04T11:50:57Z</time>
      </trkpt>
      <trkpt lat="45.5275" lon="1.85279">
        <ele>748.9</ele>
        <time>2022-08-04T11:50:59Z</time>
      </trkpt>
      <trkpt lat="45.52746" lon="1.85283">
        <ele>749.5</ele>
        <time>2022-08-04T11:51:01Z</time>
      </trkpt>
      <trkpt lat="45.52743" lon="1.85287">
        <ele>750</ele>
        <time>2022-08-04T11:51:03Z</time>
      </trkpt>
      <trkpt lat="45.52739" lon="1.85291">
        <ele>750.5</ele>
        <time>2022-08-04T11:51:05Z</time>
      </trkpt>
      <trkpt lat="45.52736" lon="1.85294">
        <ele>750.9</ele>
        <time>2022-08-04T11:51:07Z</time>
      </trkpt>
      <trkpt lat="45.52732" lon="1.85298">
        <ele>751.5</ele>
        <time>2022-08-04T11:51:09Z</time>
      </trkpt>
      <trkpt lat="45.52728" lon="1.85302">
        <ele>751.8</ele>
        <time>2022-08-04T11:51:11Z</time>
      </trkpt>
      <trkpt lat="45.52724" lon="1.85304">
        <ele>752</ele>
        <time>2022-08-04T11:51:13Z</time>
      </trkpt>
      <trkpt lat="45.5272" lon="1.85307">
        <ele>752.2</ele>
        <time>2022-08-04T11:51:15Z</time>
      </trkpt>
      <trkpt lat="45.52715" lon="1.8531">
        <ele>752.4</ele>
        <time>2022-08-04T11:51:17Z</time>
      </trkpt>
      <trkpt lat="45.52711" lon="1.85313">
        <ele>752.4</ele>
        <time>2022-08-04T11:51:19Z</time>
      </trkpt>
      <trkpt lat="45.52706" lon="1.85315">
        <ele>752.5</ele>
        <time>2022-08-04T11:51:21Z</time>
      </trkpt>
      <trkpt lat="45.52702" lon="1.85317">
        <ele>752.5</ele>
        <time>2022-08-04T11:51:23Z</time>
      </trkpt>
      <trkpt lat="45.52697" lon="1.8532">
        <ele>752.5</ele>
        <time>2022-08-04T11:51:25Z</time>
      </trkpt>
      <trkpt lat="45.52692" lon="1.85322">
        <ele>752.5</ele>
        <time>2022-08-04T11:51:27Z</time>
      </trkpt>
      <trkpt lat="45.52687" lon="1.85326">
        <ele>752.8</ele>
        <time>2022-08-04T11:51:29Z</time>
      </trkpt>
      <trkpt lat="45.52682" lon="1.8533">
        <ele>753</ele>
        <time>2022-08-04T11:51:31Z</time>
      </trkpt>
      <trkpt lat="45.52678" lon="1.85332">
        <ele>752.9</ele>
        <time>2022-08-04T11:51:33Z</time>
      </trkpt>
      <trkpt lat="45.52674" lon="1.85335">
        <ele>753.1</ele>
        <time>2022-08-04T11:51:35Z</time>
      </trkpt>
      <trkpt lat="45.5267" lon="1.85338">
        <ele>753.1</ele>
        <time>2022-08-04T11:51:37Z</time>
      </trkpt>
      <trkpt lat="45.52665" lon="1.85342">
        <ele>753</ele>
        <time>2022-08-04T11:51:39Z</time>
      </trkpt>
      <trkpt lat="45.5266" lon="1.85346">
        <ele>752.9</ele>
        <time>2022-08-04T11:51:41Z</time>
      </trkpt>
      <trkpt lat="45.52656" lon="1.8535">
        <ele>752.9</ele>
        <time>2022-08-04T11:51:43Z</time>
      </trkpt>
      <trkpt lat="45.52652" lon="1.85355">
        <ele>752.9</ele>
        <time>2022-08-04T11:51:45Z</time>
      </trkpt>
      <trkpt lat="45.52648" lon="1.85359">
        <ele>753</ele>
        <time>2022-08-04T11:51:47Z</time>
      </trkpt>
      <trkpt lat="45.52645" lon="1.85365">
        <ele>753.1</ele>
        <time>2022-08-04T11:51:49Z</time>
      </trkpt>
      <trkpt lat="45.52641" lon="1.8537">
        <ele>753.2</ele>
        <time>2022-08-04T11:51:51Z</time>
      </trkpt>
      <trkpt lat="45.52638" lon="1.85376">
        <ele>753.5</ele>
        <time>2022-08-04T11:51:53Z</time>
      </trkpt>
      <trkpt lat="45.52636" lon="1.85382">
        <ele>753.8</ele>
        <time>2022-08-04T11:51:55Z</time>
      </trkpt>
      <trkpt lat="45.52633" lon="1.85388">
        <ele>754.1</ele>
        <time>2022-08-04T11:51:57Z</time>
      </trkpt>
      <trkpt lat="45.52631" lon="1.85395">
        <ele>754.5</ele>
        <time>2022-08-04T11:51:59Z</time>
      </trkpt>
      <trkpt lat="45.52629" lon="1.85401">
        <ele>754.9</ele>
        <time>2022-08-04T11:52:01Z</time>
      </trkpt>
      <trkpt lat="45.52627" lon="1.85408">
        <ele>755.4</ele>
        <time>2022-08-04T11:52:03Z</time>
      </trkpt>
      <trkpt lat="45.52625" lon="1.85415">
        <ele>755.8</ele>
        <time>2022-08-04T11:52:05Z</time>
      </trkpt>
      <trkpt lat="45.52624" lon="1.85422">
        <ele>756.1</ele>
        <time>2022-08-04T11:52:07Z</time>
      </trkpt>
      <trkpt lat="45.52623" lon="1.85429">
        <ele>756.3</ele>
        <time>2022-08-04T11:52:09Z</time>
      </trkpt>
      <trkpt lat="45.52622" lon="1.85436">
        <ele>756.5</ele>
        <time>2022-08-04T11:52:11Z</time>
      </trkpt>
      <trkpt lat="45.52621" lon="1.85443">
        <ele>756.8</ele>
        <time>2022-08-04T11:52:13Z</time>
      </trkpt>
      <trkpt lat="45.52621" lon="1.8545">
        <ele>757.2</ele>
        <time>2022-08-04T11:52:15Z</time>
      </trkpt>
      <trkpt lat="45.52621" lon="1.85457">
        <ele>757.6</ele>
        <time>2022-08-04T11:52:17Z</time>
      </trkpt>
      <trkpt lat="45.52621" lon="1.85464">
        <ele>758</ele>
        <time>2022-08-04T11:52:19Z</time>
      </trkpt>
      <trkpt lat="45.52621" lon="1.85471">
        <ele>758.4</ele>
        <time>2022-08-04T11:52:21Z</time>
      </trkpt>
      <trkpt lat="45.52621" lon="1.85478">
        <ele>758.7</ele>
        <time>2022-08-04T11:52:23Z</time>
      </trkpt>
      <trkpt lat="45.5262" lon="1.85484">
        <ele>759</ele>
        <time>2022-08-04T11:52:25Z</time>
      </trkpt>
      <trkpt lat="45.5262" lon="1.85491">
        <ele>759.3</ele>
        <time>2022-08-04T11:52:27Z</time>
      </trkpt>
      <trkpt lat="45.52619" lon="1.85497">
        <ele>759.5</ele>
        <time>2022-08-04T11:52:29Z</time>
      </trkpt>
      <trkpt lat="45.52618" lon="1.85504">
        <ele>759.8</ele>
        <time>2022-08-04T11:52:31Z</time>
      </trkpt>
      <trkpt lat="45.52617" lon="1.85511">
        <ele>760.3</ele>
        <time>2022-08-04T11:52:33Z</time>
      </trkpt>
      <trkpt lat="45.52616" lon="1.85518">
        <ele>760.8</ele>
        <time>2022-08-04T11:52:35Z</time>
      </trkpt>
      <trkpt lat="45.52615" lon="1.85524">
        <ele>761.1</ele>
        <time>2022-08-04T11:52:37Z</time>
      </trkpt>
      <trkpt lat="45.52612" lon="1.85529">
        <ele>761.2</ele>
        <time>2022-08-04T11:52:39Z</time>
      </trkpt>
      <trkpt lat="45.52611" lon="1.85535">
        <ele>761.6</ele>
        <time>2022-08-04T11:52:41Z</time>
      </trkpt>
      <trkpt lat="45.52608" lon="1.85541">
        <ele>761.9</ele>
        <time>2022-08-04T11:52:43Z</time>
      </trkpt>
      <trkpt lat="45.52606" lon="1.85547">
        <ele>762.2</ele>
        <time>2022-08-04T11:52:45Z</time>
      </trkpt>
      <trkpt lat="45.52603" lon="1.85552">
        <ele>762.4</ele>
        <time>2022-08-04T11:52:47Z</time>
      </trkpt>
      <trkpt lat="45.52599" lon="1.85558">
        <ele>762.8</ele>
        <time>2022-08-04T11:52:49Z</time>
      </trkpt>
      <trkpt lat="45.52596" lon="1.85563">
        <ele>763.1</ele>
        <time>2022-08-04T11:52:51Z</time>
      </trkpt>
      <trkpt lat="45.52592" lon="1.85567">
        <ele>763.3</ele>
        <time>2022-08-04T11:52:53Z</time>
      </trkpt>
      <trkpt lat="45.52589" lon="1.85572">
        <ele>763.7</ele>
        <time>2022-08-04T11:52:55Z</time>
      </trkpt>
      <trkpt lat="45.52586" lon="1.85576">
        <ele>764.1</ele>
        <time>2022-08-04T11:52:57Z</time>
      </trkpt>
      <trkpt lat="45.52582" lon="1.8558">
        <ele>764.4</ele>
        <time>2022-08-04T11:52:59Z</time>
      </trkpt>
      <trkpt lat="45.52578" lon="1.85583">
        <ele>764.3</ele>
        <time>2022-08-04T11:53:01Z</time>
      </trkpt>
      <trkpt lat="45.52574" lon="1.85587">
        <ele>764.5</ele>
        <time>2022-08-04T11:53:03Z</time>
      </trkpt>
      <trkpt lat="45.5257" lon="1.8559">
        <ele>764.6</ele>
        <time>2022-08-04T11:53:05Z</time>
      </trkpt>
      <trkpt lat="45.52566" lon="1.85594">
        <ele>764.7</ele>
        <time>2022-08-04T11:53:07Z</time>
      </trkpt>
      <trkpt lat="45.52562" lon="1.85598">
        <ele>764.8</ele>
        <time>2022-08-04T11:53:09Z</time>
      </trkpt>
      <trkpt lat="45.52559" lon="1.85601">
        <ele>764.9</ele>
        <time>2022-08-04T11:53:11Z</time>
      </trkpt>
      <trkpt lat="45.52556" lon="1.85605">
        <ele>765.1</ele>
        <time>2022-08-04T11:53:13Z</time>
      </trkpt>
      <trkpt lat="45.52552" lon="1.85608">
        <ele>765.1</ele>
        <time>2022-08-04T11:53:15Z</time>
      </trkpt>
      <trkpt lat="45.5255" lon="1.85613">
        <ele>765.5</ele>
        <time>2022-08-04T11:53:17Z</time>
      </trkpt>
      <trkpt lat="45.52548" lon="1.85618">
        <ele>765.8</ele>
        <time>2022-08-04T11:53:19Z</time>
      </trkpt>
      <trkpt lat="45.52545" lon="1.85622">
        <ele>766.1</ele>
        <time>2022-08-04T11:53:21Z</time>
      </trkpt>
      <trkpt lat="45.52541" lon="1.85626">
        <ele>766.1</ele>
        <time>2022-08-04T11:53:23Z</time>
      </trkpt>
      <trkpt lat="45.52539" lon="1.85631">
        <ele>766.4</ele>
        <time>2022-08-04T11:53:25Z</time>
      </trkpt>
      <trkpt lat="45.52537" lon="1.85636">
        <ele>766.8</ele>
        <time>2022-08-04T11:53:27Z</time>
      </trkpt>
      <trkpt lat="45.52535" lon="1.85641">
        <ele>767.1</ele>
        <time>2022-08-04T11:53:29Z</time>
      </trkpt>
      <trkpt lat="45.52532" lon="1.85646">
        <ele>767.5</ele>
        <time>2022-08-04T11:53:31Z</time>
      </trkpt>
      <trkpt lat="45.5253" lon="1.85651">
        <ele>767.7</ele>
        <time>2022-08-04T11:53:33Z</time>
      </trkpt>
      <trkpt lat="45.52527" lon="1.85658">
        <ele>768.1</ele>
        <time>2022-08-04T11:53:35Z</time>
      </trkpt>
      <trkpt lat="45.52525" lon="1.85664">
        <ele>768.5</ele>
        <time>2022-08-04T11:53:37Z</time>
      </trkpt>
      <trkpt lat="45.52521" lon="1.85669">
        <ele>768.5</ele>
        <time>2022-08-04T11:53:39Z</time>
      </trkpt>
      <trkpt lat="45.52518" lon="1.85675">
        <ele>768.7</ele>
        <time>2022-08-04T11:53:41Z</time>
      </trkpt>
      <trkpt lat="45.52515" lon="1.8568">
        <ele>768.9</ele>
        <time>2022-08-04T11:53:43Z</time>
      </trkpt>
      <trkpt lat="45.52512" lon="1.85686">
        <ele>769.3</ele>
        <time>2022-08-04T11:53:45Z</time>
      </trkpt>
      <trkpt lat="45.52509" lon="1.85692">
        <ele>769.5</ele>
        <time>2022-08-04T11:53:47Z</time>
      </trkpt>
      <trkpt lat="45.52506" lon="1.85698">
        <ele>769.9</ele>
        <time>2022-08-04T11:53:49Z</time>
      </trkpt>
      <trkpt lat="45.52503" lon="1.85704">
        <ele>770.4</ele>
        <time>2022-08-04T11:53:51Z</time>
      </trkpt>
      <trkpt lat="45.52501" lon="1.85711">
        <ele>770.9</ele>
        <time>2022-08-04T11:53:53Z</time>
      </trkpt>
      <trkpt lat="45.52498" lon="1.85717">
        <ele>771.7</ele>
        <time>2022-08-04T11:53:55Z</time>
      </trkpt>
      <trkpt lat="45.52495" lon="1.85723">
        <ele>772.5</ele>
        <time>2022-08-04T11:53:57Z</time>
      </trkpt>
      <trkpt lat="45.52493" lon="1.8573">
        <ele>773.4</ele>
        <time>2022-08-04T11:53:59Z</time>
      </trkpt>
      <trkpt lat="45.5249" lon="1.85736">
        <ele>774.2</ele>
        <time>2022-08-04T11:54:01Z</time>
      </trkpt>
      <trkpt lat="45.52489" lon="1.85742">
        <ele>774.9</ele>
        <time>2022-08-04T11:54:03Z</time>
      </trkpt>
      <trkpt lat="45.52488" lon="1.85749">
        <ele>775.7</ele>
        <time>2022-08-04T11:54:05Z</time>
      </trkpt>
      <trkpt lat="45.52486" lon="1.85755">
        <ele>775.7</ele>
        <time>2022-08-04T11:54:07Z</time>
      </trkpt>
      <trkpt lat="45.52486" lon="1.85762">
        <ele>775.6</ele>
        <time>2022-08-04T11:54:09Z</time>
      </trkpt>
      <trkpt lat="45.52486" lon="1.85769">
        <ele>775.5</ele>
        <time>2022-08-04T11:54:11Z</time>
      </trkpt>
      <trkpt lat="45.52485" lon="1.85775">
        <ele>775.4</ele>
        <time>2022-08-04T11:54:13Z</time>
      </trkpt>
      <trkpt lat="45.52485" lon="1.85781">
        <ele>775.3</ele>
        <time>2022-08-04T11:54:15Z</time>
      </trkpt>
      <trkpt lat="45.52485" lon="1.85789">
        <ele>775.1</ele>
        <time>2022-08-04T11:54:17Z</time>
      </trkpt>
      <trkpt lat="45.52485" lon="1.85796">
        <ele>775</ele>
        <time>2022-08-04T11:54:19Z</time>
      </trkpt>
      <trkpt lat="45.52486" lon="1.85803">
        <ele>774.9</ele>
        <time>2022-08-04T11:54:21Z</time>
      </trkpt>
      <trkpt lat="45.52487" lon="1.8581">
        <ele>774.8</ele>
        <time>2022-08-04T11:54:23Z</time>
      </trkpt>
      <trkpt lat="45.52487" lon="1.85817">
        <ele>774.6</ele>
        <time>2022-08-04T11:54:25Z</time>
      </trkpt>
      <trkpt lat="45.52488" lon="1.85824">
        <ele>774.4</ele>
        <time>2022-08-04T11:54:27Z</time>
      </trkpt>
      <trkpt lat="45.5249" lon="1.85832">
        <ele>774.3</ele>
        <time>2022-08-04T11:54:29Z</time>
      </trkpt>
      <trkpt lat="45.52491" lon="1.8584">
        <ele>774.1</ele>
        <time>2022-08-04T11:54:31Z</time>
      </trkpt>
      <trkpt lat="45.52491" lon="1.85847">
        <ele>774</ele>
        <time>2022-08-04T11:54:33Z</time>
      </trkpt>
      <trkpt lat="45.52492" lon="1.85855">
        <ele>773.8</ele>
        <time>2022-08-04T11:54:35Z</time>
      </trkpt>
      <trkpt lat="45.52492" lon="1.85862">
        <ele>773.7</ele>
        <time>2022-08-04T11:54:37Z</time>
      </trkpt>
      <trkpt lat="45.52492" lon="1.8587">
        <ele>773.6</ele>
        <time>2022-08-04T11:54:39Z</time>
      </trkpt>
      <trkpt lat="45.52492" lon="1.85878">
        <ele>773.4</ele>
        <time>2022-08-04T11:54:41Z</time>
      </trkpt>
      <trkpt lat="45.52492" lon="1.85886">
        <ele>773.3</ele>
        <time>2022-08-04T11:54:43Z</time>
      </trkpt>
      <trkpt lat="45.52491" lon="1.85892">
        <ele>773.2</ele>
        <time>2022-08-04T11:54:45Z</time>
      </trkpt>
      <trkpt lat="45.52491" lon="1.859">
        <ele>773.1</ele>
        <time>2022-08-04T11:54:47Z</time>
      </trkpt>
      <trkpt lat="45.5249" lon="1.85907">
        <ele>772.9</ele>
        <time>2022-08-04T11:54:49Z</time>
      </trkpt>
      <trkpt lat="45.52489" lon="1.85914">
        <ele>772.8</ele>
        <time>2022-08-04T11:54:51Z</time>
      </trkpt>
      <trkpt lat="45.52488" lon="1.85922">
        <ele>772.8</ele>
        <time>2022-08-04T11:54:53Z</time>
      </trkpt>
      <trkpt lat="45.52487" lon="1.8593">
        <ele>772.9</ele>
        <time>2022-08-04T11:54:55Z</time>
      </trkpt>
      <trkpt lat="45.52486" lon="1.85937">
        <ele>773</ele>
        <time>2022-08-04T11:54:57Z</time>
      </trkpt>
      <trkpt lat="45.52485" lon="1.85944">
        <ele>773.1</ele>
        <time>2022-08-04T11:54:59Z</time>
      </trkpt>
      <trkpt lat="45.52484" lon="1.85951">
        <ele>773.2</ele>
        <time>2022-08-04T11:55:01Z</time>
      </trkpt>
      <trkpt lat="45.52483" lon="1.85958">
        <ele>773.3</ele>
        <time>2022-08-04T11:55:03Z</time>
      </trkpt>
      <trkpt lat="45.52482" lon="1.85965">
        <ele>773.4</ele>
        <time>2022-08-04T11:55:05Z</time>
      </trkpt>
      <trkpt lat="45.52481" lon="1.85973">
        <ele>773.5</ele>
        <time>2022-08-04T11:55:07Z</time>
      </trkpt>
      <trkpt lat="45.5248" lon="1.8598">
        <ele>773.5</ele>
        <time>2022-08-04T11:55:09Z</time>
      </trkpt>
      <trkpt lat="45.5248" lon="1.85988">
        <ele>773.6</ele>
        <time>2022-08-04T11:55:11Z</time>
      </trkpt>
      <trkpt lat="45.52478" lon="1.85995">
        <ele>773.6</ele>
        <time>2022-08-04T11:55:13Z</time>
      </trkpt>
      <trkpt lat="45.52478" lon="1.86002">
        <ele>773.7</ele>
        <time>2022-08-04T11:55:15Z</time>
      </trkpt>
      <trkpt lat="45.52477" lon="1.86009">
        <ele>773.6</ele>
        <time>2022-08-04T11:55:17Z</time>
      </trkpt>
      <trkpt lat="45.52478" lon="1.86017">
        <ele>773.6</ele>
        <time>2022-08-04T11:55:19Z</time>
      </trkpt>
      <trkpt lat="45.52477" lon="1.86024">
        <ele>773.6</ele>
        <time>2022-08-04T11:55:21Z</time>
      </trkpt>
      <trkpt lat="45.52478" lon="1.86032">
        <ele>773.6</ele>
        <time>2022-08-04T11:55:23Z</time>
      </trkpt>
      <trkpt lat="45.52479" lon="1.86039">
        <ele>773.6</ele>
        <time>2022-08-04T11:55:25Z</time>
      </trkpt>
      <trkpt lat="45.5248" lon="1.86047">
        <ele>773.7</ele>
        <time>2022-08-04T11:55:27Z</time>
      </trkpt>
      <trkpt lat="45.52482" lon="1.86054">
        <ele>773.8</ele>
        <time>2022-08-04T11:55:29Z</time>
      </trkpt>
      <trkpt lat="45.52484" lon="1.86062">
        <ele>773.9</ele>
        <time>2022-08-04T11:55:31Z</time>
      </trkpt>
      <trkpt lat="45.52486" lon="1.86069">
        <ele>774</ele>
        <time>2022-08-04T11:55:33Z</time>
      </trkpt>
      <trkpt lat="45.52488" lon="1.86075">
        <ele>774.1</ele>
        <time>2022-08-04T11:55:35Z</time>
      </trkpt>
      <trkpt lat="45.5249" lon="1.86081">
        <ele>774.3</ele>
        <time>2022-08-04T11:55:37Z</time>
      </trkpt>
      <trkpt lat="45.52493" lon="1.86087">
        <ele>774.4</ele>
        <time>2022-08-04T11:55:39Z</time>
      </trkpt>
      <trkpt lat="45.52497" lon="1.86094">
        <ele>774.4</ele>
        <time>2022-08-04T11:55:41Z</time>
      </trkpt>
      <trkpt lat="45.525" lon="1.861">
        <ele>774.5</ele>
        <time>2022-08-04T11:55:43Z</time>
      </trkpt>
      <trkpt lat="45.52505" lon="1.86106">
        <ele>774.7</ele>
        <time>2022-08-04T11:55:45Z</time>
      </trkpt>
      <trkpt lat="45.52509" lon="1.86112">
        <ele>775</ele>
        <time>2022-08-04T11:55:47Z</time>
      </trkpt>
      <trkpt lat="45.52513" lon="1.8612">
        <ele>775.1</ele>
        <time>2022-08-04T11:55:49Z</time>
      </trkpt>
      <trkpt lat="45.52518" lon="1.86127">
        <ele>775.3</ele>
        <time>2022-08-04T11:55:51Z</time>
      </trkpt>
      <trkpt lat="45.52522" lon="1.86135">
        <ele>775.4</ele>
        <time>2022-08-04T11:55:53Z</time>
      </trkpt>
      <trkpt lat="45.52525" lon="1.86144">
        <ele>775.4</ele>
        <time>2022-08-04T11:55:55Z</time>
      </trkpt>
      <trkpt lat="45.52528" lon="1.86152">
        <ele>775.3</ele>
        <time>2022-08-04T11:55:57Z</time>
      </trkpt>
      <trkpt lat="45.52531" lon="1.86162">
        <ele>775.2</ele>
        <time>2022-08-04T11:55:59Z</time>
      </trkpt>
      <trkpt lat="45.52532" lon="1.86172">
        <ele>774.9</ele>
        <time>2022-08-04T11:56:01Z</time>
      </trkpt>
      <trkpt lat="45.52534" lon="1.86183">
        <ele>774.6</ele>
        <time>2022-08-04T11:56:03Z</time>
      </trkpt>
      <trkpt lat="45.52534" lon="1.86193">
        <ele>774.2</ele>
        <time>2022-08-04T11:56:05Z</time>
      </trkpt>
      <trkpt lat="45.52534" lon="1.86203">
        <ele>773.8</ele>
        <time>2022-08-04T11:56:07Z</time>
      </trkpt>
      <trkpt lat="45.52533" lon="1.86213">
        <ele>773.4</ele>
        <time>2022-08-04T11:56:09Z</time>
      </trkpt>
      <trkpt lat="45.52532" lon="1.86223">
        <ele>773</ele>
        <time>2022-08-04T11:56:11Z</time>
      </trkpt>
      <trkpt lat="45.5253" lon="1.86233">
        <ele>772.6</ele>
        <time>2022-08-04T11:56:13Z</time>
      </trkpt>
      <trkpt lat="45.52528" lon="1.86242">
        <ele>772.3</ele>
        <time>2022-08-04T11:56:15Z</time>
      </trkpt>
      <trkpt lat="45.52525" lon="1.86251">
        <ele>772</ele>
        <time>2022-08-04T11:56:17Z</time>
      </trkpt>
      <trkpt lat="45.52523" lon="1.8626">
        <ele>772.5</ele>
        <time>2022-08-04T11:56:19Z</time>
      </trkpt>
      <trkpt lat="45.52521" lon="1.86268">
        <ele>772.9</ele>
        <time>2022-08-04T11:56:21Z</time>
      </trkpt>
      <trkpt lat="45.52519" lon="1.86276">
        <ele>773.3</ele>
        <time>2022-08-04T11:56:23Z</time>
      </trkpt>
      <trkpt lat="45.52517" lon="1.86284">
        <ele>773.7</ele>
        <time>2022-08-04T11:56:25Z</time>
      </trkpt>
      <trkpt lat="45.52515" lon="1.86291">
        <ele>774.1</ele>
        <time>2022-08-04T11:56:27Z</time>
      </trkpt>
      <trkpt lat="45.52513" lon="1.86298">
        <ele>774.5</ele>
        <time>2022-08-04T11:56:29Z</time>
      </trkpt>
      <trkpt lat="45.52512" lon="1.86304">
        <ele>774.9</ele>
        <time>2022-08-04T11:56:31Z</time>
      </trkpt>
      <trkpt lat="45.5251" lon="1.8631">
        <ele>775.2</ele>
        <time>2022-08-04T11:56:33Z</time>
      </trkpt>
      <trkpt lat="45.52508" lon="1.86315">
        <ele>775.6</ele>
        <time>2022-08-04T11:56:35Z</time>
      </trkpt>
      <trkpt lat="45.52506" lon="1.8632">
        <ele>776</ele>
        <time>2022-08-04T11:56:37Z</time>
      </trkpt>
      <trkpt lat="45.52504" lon="1.86325">
        <ele>776.4</ele>
        <time>2022-08-04T11:56:39Z</time>
      </trkpt>
      <trkpt lat="45.52501" lon="1.8633">
        <ele>776.7</ele>
        <time>2022-08-04T11:56:41Z</time>
      </trkpt>
      <trkpt lat="45.52499" lon="1.86334">
        <ele>777.1</ele>
        <time>2022-08-04T11:56:43Z</time>
      </trkpt>
      <trkpt lat="45.52496" lon="1.86337">
        <ele>777.9</ele>
        <time>2022-08-04T11:56:45Z</time>
      </trkpt>
      <trkpt lat="45.52493" lon="1.8634">
        <ele>778.8</ele>
        <time>2022-08-04T11:56:47Z</time>
      </trkpt>
      <trkpt lat="45.5249" lon="1.86343">
        <ele>779.5</ele>
        <time>2022-08-04T11:56:49Z</time>
      </trkpt>
      <trkpt lat="45.52487" lon="1.86346">
        <ele>780.3</ele>
        <time>2022-08-04T11:56:51Z</time>
      </trkpt>
      <trkpt lat="45.52484" lon="1.86349">
        <ele>780.8</ele>
        <time>2022-08-04T11:56:53Z</time>
      </trkpt>
      <trkpt lat="45.52481" lon="1.86351">
        <ele>781.4</ele>
        <time>2022-08-04T11:56:55Z</time>
      </trkpt>
      <trkpt lat="45.52478" lon="1.86352">
        <ele>781.9</ele>
        <time>2022-08-04T11:56:57Z</time>
      </trkpt>
      <trkpt lat="45.52474" lon="1.86354">
        <ele>782.3</ele>
        <time>2022-08-04T11:56:59Z</time>
      </trkpt>
      <trkpt lat="45.52471" lon="1.86356">
        <ele>782.8</ele>
        <time>2022-08-04T11:57:01Z</time>
      </trkpt>
      <trkpt lat="45.52468" lon="1.86357">
        <ele>783.2</ele>
        <time>2022-08-04T11:57:03Z</time>
      </trkpt>
      <trkpt lat="45.52465" lon="1.86358">
        <ele>783.6</ele>
        <time>2022-08-04T11:57:05Z</time>
      </trkpt>
      <trkpt lat="45.52462" lon="1.86358">
        <ele>783.8</ele>
        <time>2022-08-04T11:57:07Z</time>
      </trkpt>
      <trkpt lat="45.52459" lon="1.86359">
        <ele>784.1</ele>
        <time>2022-08-04T11:57:09Z</time>
      </trkpt>
      <trkpt lat="45.52456" lon="1.86358">
        <ele>784.2</ele>
        <time>2022-08-04T11:57:11Z</time>
      </trkpt>
      <trkpt lat="45.52453" lon="1.86359">
        <ele>784.4</ele>
        <time>2022-08-04T11:57:13Z</time>
      </trkpt>
      <trkpt lat="45.52451" lon="1.86359">
        <ele>784.6</ele>
        <time>2022-08-04T11:57:15Z</time>
      </trkpt>
      <trkpt lat="45.52448" lon="1.86357">
        <ele>784.5</ele>
        <time>2022-08-04T11:57:17Z</time>
      </trkpt>
      <trkpt lat="45.52445" lon="1.86357">
        <ele>784.6</ele>
        <time>2022-08-04T11:57:19Z</time>
      </trkpt>
      <trkpt lat="45.52441" lon="1.86356">
        <ele>784.7</ele>
        <time>2022-08-04T11:57:21Z</time>
      </trkpt>
      <trkpt lat="45.52439" lon="1.86355">
        <ele>784.7</ele>
        <time>2022-08-04T11:57:23Z</time>
      </trkpt>
      <trkpt lat="45.52436" lon="1.86354">
        <ele>784.7</ele>
        <time>2022-08-04T11:57:25Z</time>
      </trkpt>
      <trkpt lat="45.52433" lon="1.86353">
        <ele>784.8</ele>
        <time>2022-08-04T11:57:27Z</time>
      </trkpt>
      <trkpt lat="45.5243" lon="1.86352">
        <ele>784.9</ele>
        <time>2022-08-04T11:57:29Z</time>
      </trkpt>
      <trkpt lat="45.52427" lon="1.86352">
        <ele>785</ele>
        <time>2022-08-04T11:57:31Z</time>
      </trkpt>
      <trkpt lat="45.52424" lon="1.86352">
        <ele>785.2</ele>
        <time>2022-08-04T11:57:33Z</time>
      </trkpt>
      <trkpt lat="45.52421" lon="1.86351">
        <ele>785.3</ele>
        <time>2022-08-04T11:57:35Z</time>
      </trkpt>
      <trkpt lat="45.52417" lon="1.86351">
        <ele>785.5</ele>
        <time>2022-08-04T11:57:37Z</time>
      </trkpt>
      <trkpt lat="45.52414" lon="1.8635">
        <ele>785.4</ele>
        <time>2022-08-04T11:57:39Z</time>
      </trkpt>
      <trkpt lat="45.5241" lon="1.86351">
        <ele>785.4</ele>
        <time>2022-08-04T11:57:41Z</time>
      </trkpt>
      <trkpt lat="45.52407" lon="1.8635">
        <ele>785.3</ele>
        <time>2022-08-04T11:57:43Z</time>
      </trkpt>
      <trkpt lat="45.52404" lon="1.86351">
        <ele>785.3</ele>
        <time>2022-08-04T11:57:45Z</time>
      </trkpt>
      <trkpt lat="45.524" lon="1.86352">
        <ele>785.3</ele>
        <time>2022-08-04T11:57:47Z</time>
      </trkpt>
      <trkpt lat="45.52397" lon="1.86353">
        <ele>785.3</ele>
        <time>2022-08-04T11:57:49Z</time>
      </trkpt>
      <trkpt lat="45.52393" lon="1.86353">
        <ele>785.3</ele>
        <time>2022-08-04T11:57:51Z</time>
      </trkpt>
      <trkpt lat="45.5239" lon="1.86355">
        <ele>785.4</ele>
        <time>2022-08-04T11:57:53Z</time>
      </trkpt>
      <trkpt lat="45.52386" lon="1.86356">
        <ele>785.5</ele>
        <time>2022-08-04T11:57:55Z</time>
      </trkpt>
      <trkpt lat="45.52383" lon="1.86357">
        <ele>785.5</ele>
        <time>2022-08-04T11:57:57Z</time>
      </trkpt>
      <trkpt lat="45.52379" lon="1.86359">
        <ele>785.7</ele>
        <time>2022-08-04T11:57:59Z</time>
      </trkpt>
      <trkpt lat="45.52376" lon="1.86361">
        <ele>785.9</ele>
        <time>2022-08-04T11:58:01Z</time>
      </trkpt>
      <trkpt lat="45.52373" lon="1.86364">
        <ele>786.1</ele>
        <time>2022-08-04T11:58:03Z</time>
      </trkpt>
      <trkpt lat="45.5237" lon="1.86365">
        <ele>786.2</ele>
        <time>2022-08-04T11:58:05Z</time>
      </trkpt>
      <trkpt lat="45.52367" lon="1.86368">
        <ele>786.4</ele>
        <time>2022-08-04T11:58:07Z</time>
      </trkpt>
      <trkpt lat="45.52365" lon="1.86371">
        <ele>786.7</ele>
        <time>2022-08-04T11:58:09Z</time>
      </trkpt>
      <trkpt lat="45.52362" lon="1.86373">
        <ele>786.8</ele>
        <time>2022-08-04T11:58:11Z</time>
      </trkpt>
      <trkpt lat="45.5236" lon="1.86376">
        <ele>787.1</ele>
        <time>2022-08-04T11:58:13Z</time>
      </trkpt>
      <trkpt lat="45.52357" lon="1.86379">
        <ele>787.2</ele>
        <time>2022-08-04T11:58:15Z</time>
      </trkpt>
      <trkpt lat="45.52355" lon="1.86381">
        <ele>787.5</ele>
        <time>2022-08-04T11:58:17Z</time>
      </trkpt>
      <trkpt lat="45.52353" lon="1.86385">
        <ele>787.7</ele>
        <time>2022-08-04T11:58:19Z</time>
      </trkpt>
      <trkpt lat="45.52351" lon="1.86388">
        <ele>788</ele>
        <time>2022-08-04T11:58:21Z</time>
      </trkpt>
      <trkpt lat="45.52349" lon="1.8639">
        <ele>788.2</ele>
        <time>2022-08-04T11:58:23Z</time>
      </trkpt>
      <trkpt lat="45.52347" lon="1.86394">
        <ele>788.5</ele>
        <time>2022-08-04T11:58:25Z</time>
      </trkpt>
      <trkpt lat="45.52345" lon="1.86398">
        <ele>788.7</ele>
        <time>2022-08-04T11:58:27Z</time>
      </trkpt>
      <trkpt lat="45.52343" lon="1.86401">
        <ele>789</ele>
        <time>2022-08-04T11:58:29Z</time>
      </trkpt>
      <trkpt lat="45.52341" lon="1.86405">
        <ele>789.3</ele>
        <time>2022-08-04T11:58:31Z</time>
      </trkpt>
      <trkpt lat="45.52339" lon="1.86408">
        <ele>789.5</ele>
        <time>2022-08-04T11:58:33Z</time>
      </trkpt>
      <trkpt lat="45.52337" lon="1.86412">
        <ele>789.8</ele>
        <time>2022-08-04T11:58:35Z</time>
      </trkpt>
      <trkpt lat="45.52336" lon="1.86416">
        <ele>790.1</ele>
        <time>2022-08-04T11:58:37Z</time>
      </trkpt>
      <trkpt lat="45.52335" lon="1.8642">
        <ele>790.2</ele>
        <time>2022-08-04T11:58:39Z</time>
      </trkpt>
      <trkpt lat="45.52333" lon="1.86424">
        <ele>790.3</ele>
        <time>2022-08-04T11:58:41Z</time>
      </trkpt>
      <trkpt lat="45.52332" lon="1.86428">
        <ele>790.5</ele>
        <time>2022-08-04T11:58:43Z</time>
      </trkpt>
      <trkpt lat="45.52331" lon="1.86432">
        <ele>790.6</ele>
        <time>2022-08-04T11:58:45Z</time>
      </trkpt>
      <trkpt lat="45.5233" lon="1.86436">
        <ele>790.7</ele>
        <time>2022-08-04T11:58:47Z</time>
      </trkpt>
      <trkpt lat="45.52329" lon="1.86441">
        <ele>790.8</ele>
        <time>2022-08-04T11:58:49Z</time>
      </trkpt>
      <trkpt lat="45.52329" lon="1.86445">
        <ele>791</ele>
        <time>2022-08-04T11:58:51Z</time>
      </trkpt>
      <trkpt lat="45.52329" lon="1.86449">
        <ele>791.2</ele>
        <time>2022-08-04T11:58:53Z</time>
      </trkpt>
      <trkpt lat="45.52328" lon="1.86453">
        <ele>791.3</ele>
        <time>2022-08-04T11:58:55Z</time>
      </trkpt>
      <trkpt lat="45.52327" lon="1.86457">
        <ele>791.4</ele>
        <time>2022-08-04T11:58:57Z</time>
      </trkpt>
      <trkpt lat="45.52327" lon="1.86461">
        <ele>791.6</ele>
        <time>2022-08-04T11:58:59Z</time>
      </trkpt>
      <trkpt lat="45.52327" lon="1.86466">
        <ele>791.8</ele>
        <time>2022-08-04T11:59:01Z</time>
      </trkpt>
      <trkpt lat="45.52327" lon="1.86471">
        <ele>792.1</ele>
        <time>2022-08-04T11:59:03Z</time>
      </trkpt>
      <trkpt lat="45.52327" lon="1.86476">
        <ele>792.3</ele>
        <time>2022-08-04T11:59:05Z</time>
      </trkpt>
      <trkpt lat="45.52327" lon="1.8648">
        <ele>792.6</ele>
        <time>2022-08-04T11:59:07Z</time>
      </trkpt>
      <trkpt lat="45.52327" lon="1.86484">
        <ele>792.8</ele>
        <time>2022-08-04T11:59:09Z</time>
      </trkpt>
      <trkpt lat="45.52327" lon="1.86489">
        <ele>793</ele>
        <time>2022-08-04T11:59:11Z</time>
      </trkpt>
      <trkpt lat="45.52328" lon="1.86493">
        <ele>793.3</ele>
        <time>2022-08-04T11:59:13Z</time>
      </trkpt>
      <trkpt lat="45.52328" lon="1.86497">
        <ele>793.5</ele>
        <time>2022-08-04T11:59:15Z</time>
      </trkpt>
      <trkpt lat="45.52329" lon="1.86501">
        <ele>793.8</ele>
        <time>2022-08-04T11:59:17Z</time>
      </trkpt>
      <trkpt lat="45.5233" lon="1.86505">
        <ele>794.2</ele>
        <time>2022-08-04T11:59:19Z</time>
      </trkpt>
      <trkpt lat="45.52331" lon="1.8651">
        <ele>794.5</ele>
        <time>2022-08-04T11:59:21Z</time>
      </trkpt>
      <trkpt lat="45.52331" lon="1.86514">
        <ele>794.9</ele>
        <time>2022-08-04T11:59:23Z</time>
      </trkpt>
      <trkpt lat="45.52332" lon="1.86518">
        <ele>795.2</ele>
        <time>2022-08-04T11:59:25Z</time>
      </trkpt>
      <trkpt lat="45.52333" lon="1.86522">
        <ele>795.6</ele>
        <time>2022-08-04T11:59:27Z</time>
      </trkpt>
      <trkpt lat="45.52334" lon="1.86527">
        <ele>796</ele>
        <time>2022-08-04T11:59:29Z</time>
      </trkpt>
      <trkpt lat="45.52335" lon="1.86531">
        <ele>796.4</ele>
        <time>2022-08-04T11:59:31Z</time>
      </trkpt>
      <trkpt lat="45.52336" lon="1.86535">
        <ele>796.8</ele>
        <time>2022-08-04T11:59:33Z</time>
      </trkpt>
      <trkpt lat="45.52336" lon="1.86539">
        <ele>797.1</ele>
        <time>2022-08-04T11:59:35Z</time>
      </trkpt>
      <trkpt lat="45.52336" lon="1.86543">
        <ele>797.5</ele>
        <time>2022-08-04T11:59:37Z</time>
      </trkpt>
      <trkpt lat="45.52336" lon="1.86548">
        <ele>797.8</ele>
        <time>2022-08-04T11:59:39Z</time>
      </trkpt>
      <trkpt lat="45.52337" lon="1.86552">
        <ele>798.2</ele>
        <time>2022-08-04T11:59:41Z</time>
      </trkpt>
      <trkpt lat="45.52337" lon="1.86557">
        <ele>798.5</ele>
        <time>2022-08-04T11:59:43Z</time>
      </trkpt>
      <trkpt lat="45.52337" lon="1.86561">
        <ele>798.8</ele>
        <time>2022-08-04T11:59:45Z</time>
      </trkpt>
      <trkpt lat="45.52336" lon="1.86565">
        <ele>799</ele>
        <time>2022-08-04T11:59:47Z</time>
      </trkpt>
      <trkpt lat="45.52335" lon="1.86569">
        <ele>799.2</ele>
        <time>2022-08-04T11:59:49Z</time>
      </trkpt>
      <trkpt lat="45.52334" lon="1.86573">
        <ele>799.4</ele>
        <time>2022-08-04T11:59:51Z</time>
      </trkpt>
      <trkpt lat="45.52333" lon="1.86577">
        <ele>799.6</ele>
        <time>2022-08-04T11:59:53Z</time>
      </trkpt>
      <trkpt lat="45.52332" lon="1.86581">
        <ele>799.9</ele>
        <time>2022-08-04T11:59:55Z</time>
      </trkpt>
      <trkpt lat="45.5233" lon="1.86585">
        <ele>800.3</ele>
        <time>2022-08-04T11:59:57Z</time>
      </trkpt>
      <trkpt lat="45.52328" lon="1.86589">
        <ele>800.8</ele>
        <time>2022-08-04T11:59:59Z</time>
      </trkpt>
      <trkpt lat="45.52327" lon="1.86592">
        <ele>801.3</ele>
        <time>2022-08-04T12:00:01Z</time>
      </trkpt>
      <trkpt lat="45.52325" lon="1.86596">
        <ele>801.8</ele>
        <time>2022-08-04T12:00:03Z</time>
      </trkpt>
      <trkpt lat="45.52323" lon="1.866">
        <ele>802.3</ele>
        <time>2022-08-04T12:00:05Z</time>
      </trkpt>
      <trkpt lat="45.5232" lon="1.86602">
        <ele>802.8</ele>
        <time>2022-08-04T12:00:07Z</time>
      </trkpt>
      <trkpt lat="45.52318" lon="1.86605">
        <ele>803.3</ele>
        <time>2022-08-04T12:00:09Z</time>
      </trkpt>
      <trkpt lat="45.52315" lon="1.86608">
        <ele>803.7</ele>
        <time>2022-08-04T12:00:11Z</time>
      </trkpt>
      <trkpt lat="45.52312" lon="1.8661">
        <ele>804.2</ele>
        <time>2022-08-04T12:00:13Z</time>
      </trkpt>
      <trkpt lat="45.52309" lon="1.86612">
        <ele>804.6</ele>
        <time>2022-08-04T12:00:15Z</time>
      </trkpt>
      <trkpt lat="45.52306" lon="1.86614">
        <ele>805</ele>
        <time>2022-08-04T12:00:17Z</time>
      </trkpt>
      <trkpt lat="45.52303" lon="1.86616">
        <ele>805.4</ele>
        <time>2022-08-04T12:00:19Z</time>
      </trkpt>
      <trkpt lat="45.523" lon="1.86618">
        <ele>805.8</ele>
        <time>2022-08-04T12:00:21Z</time>
      </trkpt>
      <trkpt lat="45.52297" lon="1.86619">
        <ele>806.1</ele>
        <time>2022-08-04T12:00:23Z</time>
      </trkpt>
      <trkpt lat="45.52294" lon="1.8662">
        <ele>806.4</ele>
        <time>2022-08-04T12:00:25Z</time>
      </trkpt>
      <trkpt lat="45.52291" lon="1.86621">
        <ele>806.6</ele>
        <time>2022-08-04T12:00:27Z</time>
      </trkpt>
      <trkpt lat="45.52288" lon="1.86621">
        <ele>806.8</ele>
        <time>2022-08-04T12:00:29Z</time>
      </trkpt>
      <trkpt lat="45.52286" lon="1.86622">
        <ele>807.1</ele>
        <time>2022-08-04T12:00:31Z</time>
      </trkpt>
      <trkpt lat="45.52283" lon="1.86622">
        <ele>807.3</ele>
        <time>2022-08-04T12:00:33Z</time>
      </trkpt>
      <trkpt lat="45.5228" lon="1.86623">
        <ele>807.6</ele>
        <time>2022-08-04T12:00:35Z</time>
      </trkpt>
      <trkpt lat="45.52277" lon="1.86624">
        <ele>807.9</ele>
        <time>2022-08-04T12:00:37Z</time>
      </trkpt>
      <trkpt lat="45.52275" lon="1.86625">
        <ele>808.1</ele>
        <time>2022-08-04T12:00:39Z</time>
      </trkpt>
      <trkpt lat="45.52272" lon="1.86625">
        <ele>808.3</ele>
        <time>2022-08-04T12:00:41Z</time>
      </trkpt>
      <trkpt lat="45.52269" lon="1.86626">
        <ele>808.6</ele>
        <time>2022-08-04T12:00:43Z</time>
      </trkpt>
      <trkpt lat="45.52266" lon="1.86627">
        <ele>809</ele>
        <time>2022-08-04T12:00:45Z</time>
      </trkpt>
      <trkpt lat="45.52263" lon="1.86627">
        <ele>809.2</ele>
        <time>2022-08-04T12:00:47Z</time>
      </trkpt>
      <trkpt lat="45.5226" lon="1.86628">
        <ele>809.4</ele>
        <time>2022-08-04T12:00:49Z</time>
      </trkpt>
      <trkpt lat="45.52257" lon="1.86628">
        <ele>809.8</ele>
        <time>2022-08-04T12:00:51Z</time>
      </trkpt>
      <trkpt lat="45.52254" lon="1.8663">
        <ele>810.2</ele>
        <time>2022-08-04T12:00:53Z</time>
      </trkpt>
      <trkpt lat="45.52251" lon="1.86631">
        <ele>810.6</ele>
        <time>2022-08-04T12:00:55Z</time>
      </trkpt>
      <trkpt lat="45.52247" lon="1.86632">
        <ele>810.9</ele>
        <time>2022-08-04T12:00:57Z</time>
      </trkpt>
      <trkpt lat="45.52244" lon="1.86632">
        <ele>811.1</ele>
        <time>2022-08-04T12:00:59Z</time>
      </trkpt>
      <trkpt lat="45.52241" lon="1.86632">
        <ele>811.3</ele>
        <time>2022-08-04T12:01:01Z</time>
      </trkpt>
      <trkpt lat="45.52238" lon="1.86634">
        <ele>811.6</ele>
        <time>2022-08-04T12:01:03Z</time>
      </trkpt>
      <trkpt lat="45.52235" lon="1.86635">
        <ele>812</ele>
        <time>2022-08-04T12:01:05Z</time>
      </trkpt>
      <trkpt lat="45.52232" lon="1.86635">
        <ele>812.3</ele>
        <time>2022-08-04T12:01:07Z</time>
      </trkpt>
      <trkpt lat="45.52229" lon="1.86636">
        <ele>812.5</ele>
        <time>2022-08-04T12:01:09Z</time>
      </trkpt>
      <trkpt lat="45.52226" lon="1.86637">
        <ele>812.8</ele>
        <time>2022-08-04T12:01:11Z</time>
      </trkpt>
      <trkpt lat="45.52223" lon="1.86637">
        <ele>813</ele>
        <time>2022-08-04T12:01:13Z</time>
      </trkpt>
      <trkpt lat="45.5222" lon="1.86638">
        <ele>813.4</ele>
        <time>2022-08-04T12:01:15Z</time>
      </trkpt>
      <trkpt lat="45.52217" lon="1.86638">
        <ele>813.5</ele>
        <time>2022-08-04T12:01:17Z</time>
      </trkpt>
      <trkpt lat="45.52214" lon="1.86639">
        <ele>813.8</ele>
        <time>2022-08-04T12:01:19Z</time>
      </trkpt>
      <trkpt lat="45.52212" lon="1.8664">
        <ele>814</ele>
        <time>2022-08-04T12:01:21Z</time>
      </trkpt>
      <trkpt lat="45.52208" lon="1.8664">
        <ele>814.2</ele>
        <time>2022-08-04T12:01:23Z</time>
      </trkpt>
      <trkpt lat="45.52205" lon="1.8664">
        <ele>814.4</ele>
        <time>2022-08-04T12:01:25Z</time>
      </trkpt>
      <trkpt lat="45.52202" lon="1.86641">
        <ele>814.6</ele>
        <time>2022-08-04T12:01:27Z</time>
      </trkpt>
      <trkpt lat="45.52199" lon="1.86641">
        <ele>814.8</ele>
        <time>2022-08-04T12:01:29Z</time>
      </trkpt>
      <trkpt lat="45.52195" lon="1.86642">
        <ele>815.1</ele>
        <time>2022-08-04T12:01:31Z</time>
      </trkpt>
      <trkpt lat="45.52192" lon="1.86642">
        <ele>815.3</ele>
        <time>2022-08-04T12:01:33Z</time>
      </trkpt>
      <trkpt lat="45.52188" lon="1.86642">
        <ele>815.4</ele>
        <time>2022-08-04T12:01:35Z</time>
      </trkpt>
      <trkpt lat="45.52185" lon="1.86641">
        <ele>815.5</ele>
        <time>2022-08-04T12:01:37Z</time>
      </trkpt>
      <trkpt lat="45.52182" lon="1.86642">
        <ele>815.7</ele>
        <time>2022-08-04T12:01:39Z</time>
      </trkpt>
      <trkpt lat="45.52179" lon="1.86641">
        <ele>815.8</ele>
        <time>2022-08-04T12:01:41Z</time>
      </trkpt>
      <trkpt lat="45.52175" lon="1.86641">
        <ele>815.9</ele>
        <time>2022-08-04T12:01:43Z</time>
      </trkpt>
      <trkpt lat="45.52172" lon="1.8664">
        <ele>815.8</ele>
        <time>2022-08-04T12:01:45Z</time>
      </trkpt>
      <trkpt lat="45.5217" lon="1.86638">
        <ele>815.7</ele>
        <time>2022-08-04T12:01:47Z</time>
      </trkpt>
      <trkpt lat="45.52167" lon="1.86635">
        <ele>815.5</ele>
        <time>2022-08-04T12:01:49Z</time>
      </trkpt>
      <trkpt lat="45.52163" lon="1.86634">
        <ele>815.5</ele>
        <time>2022-08-04T12:01:51Z</time>
      </trkpt>
      <trkpt lat="45.5216" lon="1.86632">
        <ele>815.6</ele>
        <time>2022-08-04T12:01:53Z</time>
      </trkpt>
      <trkpt lat="45.52156" lon="1.8663">
        <ele>815.6</ele>
        <time>2022-08-04T12:01:55Z</time>
      </trkpt>
      <trkpt lat="45.52153" lon="1.86628">
        <ele>815.6</ele>
        <time>2022-08-04T12:01:57Z</time>
      </trkpt>
      <trkpt lat="45.52149" lon="1.86627">
        <ele>815.6</ele>
        <time>2022-08-04T12:01:59Z</time>
      </trkpt>
      <trkpt lat="45.52147" lon="1.86624">
        <ele>815.4</ele>
        <time>2022-08-04T12:02:01Z</time>
      </trkpt>
      <trkpt lat="45.52144" lon="1.86622">
        <ele>815.3</ele>
        <time>2022-08-04T12:02:03Z</time>
      </trkpt>
      <trkpt lat="45.52141" lon="1.8662">
        <ele>815.3</ele>
        <time>2022-08-04T12:02:05Z</time>
      </trkpt>
      <trkpt lat="45.52137" lon="1.86619">
        <ele>815.4</ele>
        <time>2022-08-04T12:02:07Z</time>
      </trkpt>
      <trkpt lat="45.52134" lon="1.86617">
        <ele>815.2</ele>
        <time>2022-08-04T12:02:09Z</time>
      </trkpt>
      <trkpt lat="45.52131" lon="1.86616">
        <ele>815.3</ele>
        <time>2022-08-04T12:02:11Z</time>
      </trkpt>
      <trkpt lat="45.52127" lon="1.86615">
        <ele>815.4</ele>
        <time>2022-08-04T12:02:13Z</time>
      </trkpt>
      <trkpt lat="45.52124" lon="1.86613">
        <ele>815.2</ele>
        <time>2022-08-04T12:02:15Z</time>
      </trkpt>
      <trkpt lat="45.5212" lon="1.86611">
        <ele>815.2</ele>
        <time>2022-08-04T12:02:17Z</time>
      </trkpt>
      <trkpt lat="45.52117" lon="1.8661">
        <ele>815.2</ele>
        <time>2022-08-04T12:02:19Z</time>
      </trkpt>
      <trkpt lat="45.52114" lon="1.86609">
        <ele>815.2</ele>
        <time>2022-08-04T12:02:21Z</time>
      </trkpt>
      <trkpt lat="45.5211" lon="1.86609">
        <ele>815.4</ele>
        <time>2022-08-04T12:02:23Z</time>
      </trkpt>
      <trkpt lat="45.52107" lon="1.86608">
        <ele>815.5</ele>
        <time>2022-08-04T12:02:25Z</time>
      </trkpt>
      <trkpt lat="45.52104" lon="1.86606">
        <ele>815.2</ele>
        <time>2022-08-04T12:02:27Z</time>
      </trkpt>
      <trkpt lat="45.52101" lon="1.86605">
        <ele>815.3</ele>
        <time>2022-08-04T12:02:29Z</time>
      </trkpt>
      <trkpt lat="45.52098" lon="1.86603">
        <ele>815.1</ele>
        <time>2022-08-04T12:02:31Z</time>
      </trkpt>
      <trkpt lat="45.52095" lon="1.86602">
        <ele>815.1</ele>
        <time>2022-08-04T12:02:33Z</time>
      </trkpt>
      <trkpt lat="45.52092" lon="1.86601">
        <ele>815.2</ele>
        <time>2022-08-04T12:02:35Z</time>
      </trkpt>
      <trkpt lat="45.52088" lon="1.86601">
        <ele>815.3</ele>
        <time>2022-08-04T12:02:37Z</time>
      </trkpt>
      <trkpt lat="45.52086" lon="1.86599">
        <ele>815.1</ele>
        <time>2022-08-04T12:02:39Z</time>
      </trkpt>
      <trkpt lat="45.52083" lon="1.866">
        <ele>815.4</ele>
        <time>2022-08-04T12:02:41Z</time>
      </trkpt>
      <trkpt lat="45.52079" lon="1.866">
        <ele>815.6</ele>
        <time>2022-08-04T12:02:43Z</time>
      </trkpt>
      <trkpt lat="45.52076" lon="1.86598">
        <ele>815.5</ele>
        <time>2022-08-04T12:02:45Z</time>
      </trkpt>
      <trkpt lat="45.52074" lon="1.86597">
        <ele>815.3</ele>
        <time>2022-08-04T12:02:47Z</time>
      </trkpt>
      <trkpt lat="45.5207" lon="1.86595">
        <ele>815.2</ele>
        <time>2022-08-04T12:02:49Z</time>
      </trkpt>
      <trkpt lat="45.52067" lon="1.86597">
        <ele>815.8</ele>
        <time>2022-08-04T12:02:51Z</time>
      </trkpt>
      <trkpt lat="45.52063" lon="1.86598">
        <ele>816.2</ele>
        <time>2022-08-04T12:02:53Z</time>
      </trkpt>
      <trkpt lat="45.5206" lon="1.86597">
        <ele>816.3</ele>
        <time>2022-08-04T12:02:55Z</time>
      </trkpt>
      <trkpt lat="45.52056" lon="1.86597">
        <ele>816.6</ele>
        <time>2022-08-04T12:02:57Z</time>
      </trkpt>
      <trkpt lat="45.52055" lon="1.86598">
        <ele>816.9</ele>
        <time>2022-08-04T12:02:59Z</time>
      </trkpt>
      <trkpt lat="45.52052" lon="1.86598">
        <ele>817</ele>
        <time>2022-08-04T12:03:01Z</time>
      </trkpt>
      <trkpt lat="45.52048" lon="1.86596">
        <ele>817</ele>
        <time>2022-08-04T12:03:03Z</time>
      </trkpt>
      <trkpt lat="45.52044" lon="1.86598">
        <ele>817.6</ele>
        <time>2022-08-04T12:03:05Z</time>
      </trkpt>
      <trkpt lat="45.52041" lon="1.86598">
        <ele>817.8</ele>
        <time>2022-08-04T12:03:07Z</time>
      </trkpt>
      <trkpt lat="45.52038" lon="1.86597">
        <ele>817.8</ele>
        <time>2022-08-04T12:03:09Z</time>
      </trkpt>
      <trkpt lat="45.52035" lon="1.86596">
        <ele>817.9</ele>
        <time>2022-08-04T12:03:11Z</time>
      </trkpt>
      <trkpt lat="45.52032" lon="1.86598">
        <ele>818.4</ele>
        <time>2022-08-04T12:03:13Z</time>
      </trkpt>
      <trkpt lat="45.52027" lon="1.86599">
        <ele>818.8</ele>
        <time>2022-08-04T12:03:15Z</time>
      </trkpt>
      <trkpt lat="45.52024" lon="1.86599">
        <ele>819</ele>
        <time>2022-08-04T12:03:17Z</time>
      </trkpt>
      <trkpt lat="45.52019" lon="1.86599">
        <ele>819.2</ele>
        <time>2022-08-04T12:03:19Z</time>
      </trkpt>
      <trkpt lat="45.52016" lon="1.866">
        <ele>819.6</ele>
        <time>2022-08-04T12:03:21Z</time>
      </trkpt>
      <trkpt lat="45.52012" lon="1.86598">
        <ele>819.7</ele>
        <time>2022-08-04T12:03:23Z</time>
      </trkpt>
      <trkpt lat="45.52008" lon="1.86599">
        <ele>820</ele>
        <time>2022-08-04T12:03:25Z</time>
      </trkpt>
      <trkpt lat="45.52005" lon="1.86598">
        <ele>820</ele>
        <time>2022-08-04T12:03:27Z</time>
      </trkpt>
      <trkpt lat="45.52002" lon="1.86597">
        <ele>820.2</ele>
        <time>2022-08-04T12:03:29Z</time>
      </trkpt>
      <trkpt lat="45.51998" lon="1.86597">
        <ele>820.4</ele>
        <time>2022-08-04T12:03:31Z</time>
      </trkpt>
      <trkpt lat="45.51994" lon="1.86598">
        <ele>820.8</ele>
        <time>2022-08-04T12:03:33Z</time>
      </trkpt>
      <trkpt lat="45.5199" lon="1.86599">
        <ele>821.1</ele>
        <time>2022-08-04T12:03:35Z</time>
      </trkpt>
      <trkpt lat="45.51987" lon="1.86601">
        <ele>821.5</ele>
        <time>2022-08-04T12:03:37Z</time>
      </trkpt>
      <trkpt lat="45.51982" lon="1.86603">
        <ele>821.8</ele>
        <time>2022-08-04T12:03:39Z</time>
      </trkpt>
      <trkpt lat="45.51979" lon="1.86604">
        <ele>822.1</ele>
        <time>2022-08-04T12:03:41Z</time>
      </trkpt>
      <trkpt lat="45.51975" lon="1.86606">
        <ele>822.5</ele>
        <time>2022-08-04T12:03:43Z</time>
      </trkpt>
      <trkpt lat="45.51971" lon="1.86609">
        <ele>822.8</ele>
        <time>2022-08-04T12:03:45Z</time>
      </trkpt>
      <trkpt lat="45.51969" lon="1.86612">
        <ele>823.1</ele>
        <time>2022-08-04T12:03:47Z</time>
      </trkpt>
      <trkpt lat="45.51966" lon="1.86613">
        <ele>823.3</ele>
        <time>2022-08-04T12:03:49Z</time>
      </trkpt>
      <trkpt lat="45.51962" lon="1.86614">
        <ele>823.5</ele>
        <time>2022-08-04T12:03:51Z</time>
      </trkpt>
      <trkpt lat="45.5196" lon="1.86618">
        <ele>823.7</ele>
        <time>2022-08-04T12:03:53Z</time>
      </trkpt>
      <trkpt lat="45.51958" lon="1.86622">
        <ele>823.9</ele>
        <time>2022-08-04T12:03:55Z</time>
      </trkpt>
      <trkpt lat="45.51955" lon="1.86624">
        <ele>824.1</ele>
        <time>2022-08-04T12:03:57Z</time>
      </trkpt>
      <trkpt lat="45.51953" lon="1.8663">
        <ele>824.3</ele>
        <time>2022-08-04T12:03:59Z</time>
      </trkpt>
      <trkpt lat="45.51949" lon="1.86635">
        <ele>824.5</ele>
        <time>2022-08-04T12:04:01Z</time>
      </trkpt>
      <trkpt lat="45.51944" lon="1.86641">
        <ele>824.6</ele>
        <time>2022-08-04T12:04:03Z</time>
      </trkpt>
      <trkpt lat="45.51941" lon="1.86647">
        <ele>824.7</ele>
        <time>2022-08-04T12:04:05Z</time>
      </trkpt>
      <trkpt lat="45.51937" lon="1.86653">
        <ele>824.7</ele>
        <time>2022-08-04T12:04:07Z</time>
      </trkpt>
      <trkpt lat="45.51934" lon="1.86662">
        <ele>824.6</ele>
        <time>2022-08-04T12:04:09Z</time>
      </trkpt>
      <trkpt lat="45.5193" lon="1.86669">
        <ele>824.6</ele>
        <time>2022-08-04T12:04:11Z</time>
      </trkpt>
      <trkpt lat="45.51926" lon="1.86679">
        <ele>824.8</ele>
        <time>2022-08-04T12:04:13Z</time>
      </trkpt>
      <trkpt lat="45.51922" lon="1.8669">
        <ele>824.9</ele>
        <time>2022-08-04T12:04:15Z</time>
      </trkpt>
      <trkpt lat="45.51917" lon="1.86702">
        <ele>824.9</ele>
        <time>2022-08-04T12:04:17Z</time>
      </trkpt>
      <trkpt lat="45.51911" lon="1.86716">
        <ele>824.2</ele>
        <time>2022-08-04T12:04:19Z</time>
      </trkpt>
      <trkpt lat="45.51906" lon="1.8673">
        <ele>823.6</ele>
        <time>2022-08-04T12:04:21Z</time>
      </trkpt>
      <trkpt lat="45.51901" lon="1.86744">
        <ele>822.8</ele>
        <time>2022-08-04T12:04:23Z</time>
      </trkpt>
      <trkpt lat="45.51897" lon="1.8676">
        <ele>822.6</ele>
        <time>2022-08-04T12:04:25Z</time>
      </trkpt>
      <trkpt lat="45.51892" lon="1.86777">
        <ele>822.6</ele>
        <time>2022-08-04T12:04:27Z</time>
      </trkpt>
      <trkpt lat="45.51891" lon="1.86796">
        <ele>823.2</ele>
        <time>2022-08-04T12:04:29Z</time>
      </trkpt>
      <trkpt lat="45.51887" lon="1.86816">
        <ele>823.5</ele>
        <time>2022-08-04T12:04:31Z</time>
      </trkpt>
      <trkpt lat="45.51885" lon="1.86836">
        <ele>824</ele>
        <time>2022-08-04T12:04:33Z</time>
      </trkpt>
      <trkpt lat="45.51881" lon="1.86855">
        <ele>823.9</ele>
        <time>2022-08-04T12:04:35Z</time>
      </trkpt>
      <trkpt lat="45.51879" lon="1.86877">
        <ele>824.3</ele>
        <time>2022-08-04T12:04:37Z</time>
      </trkpt>
      <trkpt lat="45.51875" lon="1.86898">
        <ele>824.3</ele>
        <time>2022-08-04T12:04:39Z</time>
      </trkpt>
      <trkpt lat="45.51867" lon="1.86917">
        <ele>823.5</ele>
        <time>2022-08-04T12:04:41Z</time>
      </trkpt>
      <trkpt lat="45.51857" lon="1.86935">
        <ele>822.6</ele>
        <time>2022-08-04T12:04:43Z</time>
      </trkpt>
      <trkpt lat="45.51842" lon="1.86947">
        <ele>821</ele>
        <time>2022-08-04T12:04:45Z</time>
      </trkpt>
      <trkpt lat="45.51828" lon="1.86955">
        <ele>819.9</ele>
        <time>2022-08-04T12:04:47Z</time>
      </trkpt>
      <trkpt lat="45.51814" lon="1.86957">
        <ele>819.2</ele>
        <time>2022-08-04T12:04:49Z</time>
      </trkpt>
      <trkpt lat="45.518" lon="1.86958">
        <ele>818.5</ele>
        <time>2022-08-04T12:04:51Z</time>
      </trkpt>
      <trkpt lat="45.51786" lon="1.86961">
        <ele>817.9</ele>
        <time>2022-08-04T12:04:53Z</time>
      </trkpt>
      <trkpt lat="45.51772" lon="1.86962">
        <ele>817.2</ele>
        <time>2022-08-04T12:04:55Z</time>
      </trkpt>
      <trkpt lat="45.5176" lon="1.86964">
        <ele>816.6</ele>
        <time>2022-08-04T12:04:57Z</time>
      </trkpt>
      <trkpt lat="45.51748" lon="1.86967">
        <ele>816.2</ele>
        <time>2022-08-04T12:04:59Z</time>
      </trkpt>
      <trkpt lat="45.51737" lon="1.86971">
        <ele>816.1</ele>
        <time>2022-08-04T12:05:01Z</time>
      </trkpt>
      <trkpt lat="45.51726" lon="1.86974">
        <ele>816</ele>
        <time>2022-08-04T12:05:03Z</time>
      </trkpt>
      <trkpt lat="45.51715" lon="1.8698">
        <ele>816.1</ele>
        <time>2022-08-04T12:05:05Z</time>
      </trkpt>
      <trkpt lat="45.51705" lon="1.86985">
        <ele>816.3</ele>
        <time>2022-08-04T12:05:07Z</time>
      </trkpt>
      <trkpt lat="45.51696" lon="1.8699">
        <ele>816.6</ele>
        <time>2022-08-04T12:05:09Z</time>
      </trkpt>
      <trkpt lat="45.51687" lon="1.86996">
        <ele>817</ele>
        <time>2022-08-04T12:05:11Z</time>
      </trkpt>
      <trkpt lat="45.51678" lon="1.86999">
        <ele>817.2</ele>
        <time>2022-08-04T12:05:13Z</time>
      </trkpt>
      <trkpt lat="45.51669" lon="1.87003">
        <ele>817.4</ele>
        <time>2022-08-04T12:05:15Z</time>
      </trkpt>
      <trkpt lat="45.5166" lon="1.87006">
        <ele>817.1</ele>
        <time>2022-08-04T12:05:17Z</time>
      </trkpt>
      <trkpt lat="45.51652" lon="1.87009">
        <ele>816.7</ele>
        <time>2022-08-04T12:05:19Z</time>
      </trkpt>
      <trkpt lat="45.51643" lon="1.87012">
        <ele>816.3</ele>
        <time>2022-08-04T12:05:21Z</time>
      </trkpt>
      <trkpt lat="45.51634" lon="1.87014">
        <ele>815.8</ele>
        <time>2022-08-04T12:05:23Z</time>
      </trkpt>
      <trkpt lat="45.51626" lon="1.87015">
        <ele>815.2</ele>
        <time>2022-08-04T12:05:25Z</time>
      </trkpt>
      <trkpt lat="45.51618" lon="1.87018">
        <ele>814.7</ele>
        <time>2022-08-04T12:05:27Z</time>
      </trkpt>
      <trkpt lat="45.5161" lon="1.87019">
        <ele>814.1</ele>
        <time>2022-08-04T12:05:29Z</time>
      </trkpt>
      <trkpt lat="45.51602" lon="1.87022">
        <ele>813.7</ele>
        <time>2022-08-04T12:05:31Z</time>
      </trkpt>
      <trkpt lat="45.51595" lon="1.87026">
        <ele>813.2</ele>
        <time>2022-08-04T12:05:33Z</time>
      </trkpt>
      <trkpt lat="45.51589" lon="1.87032">
        <ele>813.1</ele>
        <time>2022-08-04T12:05:35Z</time>
      </trkpt>
      <trkpt lat="45.51583" lon="1.8704">
        <ele>812.9</ele>
        <time>2022-08-04T12:05:37Z</time>
      </trkpt>
      <trkpt lat="45.51578" lon="1.87049">
        <ele>813</ele>
        <time>2022-08-04T12:05:39Z</time>
      </trkpt>
      <trkpt lat="45.51575" lon="1.8706">
        <ele>813.3</ele>
        <time>2022-08-04T12:05:41Z</time>
      </trkpt>
      <trkpt lat="45.51575" lon="1.87071">
        <ele>813.8</ele>
        <time>2022-08-04T12:05:43Z</time>
      </trkpt>
      <trkpt lat="45.51575" lon="1.87083">
        <ele>814.4</ele>
        <time>2022-08-04T12:05:45Z</time>
      </trkpt>
      <trkpt lat="45.51575" lon="1.87097">
        <ele>813.7</ele>
        <time>2022-08-04T12:05:47Z</time>
      </trkpt>
      <trkpt lat="45.51577" lon="1.87111">
        <ele>813</ele>
        <time>2022-08-04T12:05:49Z</time>
      </trkpt>
      <trkpt lat="45.51578" lon="1.87128">
        <ele>812.3</ele>
        <time>2022-08-04T12:05:51Z</time>
      </trkpt>
      <trkpt lat="45.51579" lon="1.87145">
        <ele>811.6</ele>
        <time>2022-08-04T12:05:53Z</time>
      </trkpt>
      <trkpt lat="45.51581" lon="1.87162">
        <ele>810.9</ele>
        <time>2022-08-04T12:05:55Z</time>
      </trkpt>
      <trkpt lat="45.51581" lon="1.87182">
        <ele>810.2</ele>
        <time>2022-08-04T12:05:57Z</time>
      </trkpt>
      <trkpt lat="45.51582" lon="1.87201">
        <ele>809.6</ele>
        <time>2022-08-04T12:05:59Z</time>
      </trkpt>
      <trkpt lat="45.51585" lon="1.87218">
        <ele>809.5</ele>
        <time>2022-08-04T12:06:01Z</time>
      </trkpt>
      <trkpt lat="45.51585" lon="1.87238">
        <ele>808.8</ele>
        <time>2022-08-04T12:06:03Z</time>
      </trkpt>
      <trkpt lat="45.51586" lon="1.87257">
        <ele>808.6</ele>
        <time>2022-08-04T12:06:05Z</time>
      </trkpt>
      <trkpt lat="45.51587" lon="1.87274">
        <ele>808.7</ele>
        <time>2022-08-04T12:06:07Z</time>
      </trkpt>
      <trkpt lat="45.51585" lon="1.8729">
        <ele>808.3</ele>
        <time>2022-08-04T12:06:09Z</time>
      </trkpt>
      <trkpt lat="45.51582" lon="1.87307">
        <ele>807.8</ele>
        <time>2022-08-04T12:06:11Z</time>
      </trkpt>
      <trkpt lat="45.51577" lon="1.87324">
        <ele>807.3</ele>
        <time>2022-08-04T12:06:13Z</time>
      </trkpt>
      <trkpt lat="45.51572" lon="1.87339">
        <ele>806.6</ele>
        <time>2022-08-04T12:06:15Z</time>
      </trkpt>
      <trkpt lat="45.51567" lon="1.87352">
        <ele>805.9</ele>
        <time>2022-08-04T12:06:17Z</time>
      </trkpt>
      <trkpt lat="45.51562" lon="1.87363">
        <ele>805.3</ele>
        <time>2022-08-04T12:06:19Z</time>
      </trkpt>
      <trkpt lat="45.51557" lon="1.87371">
        <ele>804.8</ele>
        <time>2022-08-04T12:06:21Z</time>
      </trkpt>
      <trkpt lat="45.51553" lon="1.87378">
        <ele>804.4</ele>
        <time>2022-08-04T12:06:23Z</time>
      </trkpt>
      <trkpt lat="45.5155" lon="1.8738">
        <ele>804.1</ele>
        <time>2022-08-04T12:06:25Z</time>
      </trkpt>
      <trkpt lat="45.51546" lon="1.87382">
        <ele>803.7</ele>
        <time>2022-08-04T12:06:27Z</time>
      </trkpt>
      <trkpt lat="45.51539" lon="1.87384">
        <ele>803.1</ele>
        <time>2022-08-04T12:06:29Z</time>
      </trkpt>
      <trkpt lat="45.51533" lon="1.87385">
        <ele>802.4</ele>
        <time>2022-08-04T12:06:31Z</time>
      </trkpt>
      <trkpt lat="45.51529" lon="1.87386">
        <ele>802.1</ele>
        <time>2022-08-04T12:06:33Z</time>
      </trkpt>
      <trkpt lat="45.51524" lon="1.87389">
        <ele>801.6</ele>
        <time>2022-08-04T12:06:35Z</time>
      </trkpt>
      <trkpt lat="45.51521" lon="1.87392">
        <ele>801.4</ele>
        <time>2022-08-04T12:06:37Z</time>
      </trkpt>
      <trkpt lat="45.5152" lon="1.87393">
        <ele>801.3</ele>
        <time>2022-08-04T12:06:39Z</time>
      </trkpt>
      <trkpt lat="45.5152" lon="1.87392">
        <ele>801.3</ele>
        <time>2022-08-04T12:06:41Z</time>
      </trkpt>
      <trkpt lat="45.5152" lon="1.87393">
        <ele>801.4</ele>
        <time>2022-08-04T12:06:43Z</time>
      </trkpt>
      <trkpt lat="45.51521" lon="1.87392">
        <ele>801.4</ele>
        <time>2022-08-04T12:06:45Z</time>
      </trkpt>
      <trkpt lat="45.51521" lon="1.87392">
        <ele>801.4</ele>
        <time>2022-08-04T12:06:47Z</time>
      </trkpt>
      <trkpt lat="45.51522" lon="1.87382">
        <ele>801.3</ele>
        <time>2022-08-04T14:34:00Z</time>
      </trkpt>
      <trkpt lat="45.51519" lon="1.87384">
        <ele>801.1</ele>
        <time>2022-08-04T14:34:01Z</time>
      </trkpt>
      <trkpt lat="45.51517" lon="1.87379">
        <ele>800.8</ele>
        <time>2022-08-04T14:39:39Z</time>
      </trkpt>
      <trkpt lat="45.51517" lon="1.87377">
        <ele>800.8</ele>
        <time>2022-08-04T14:39:41Z</time>
      </trkpt>
      <trkpt lat="45.51517" lon="1.87376">
        <ele>800.8</ele>
        <time>2022-08-04T14:39:43Z</time>
      </trkpt>
      <trkpt lat="45.51517" lon="1.87377">
        <ele>800.8</ele>
        <time>2022-08-04T14:39:45Z</time>
      </trkpt>
      <trkpt lat="45.51517" lon="1.87374">
        <ele>800.8</ele>
        <time>2022-08-04T14:39:47Z</time>
      </trkpt>
      <trkpt lat="45.51519" lon="1.87372">
        <ele>800.9</ele>
        <time>2022-08-04T14:39:49Z</time>
      </trkpt>
      <trkpt lat="45.51521" lon="1.87372">
        <ele>801.1</ele>
        <time>2022-08-04T14:39:51Z</time>
      </trkpt>
      <trkpt lat="45.51525" lon="1.87372">
        <ele>801.5</ele>
        <time>2022-08-04T14:39:53Z</time>
      </trkpt>
      <trkpt lat="45.51526" lon="1.87376">
        <ele>801.7</ele>
        <time>2022-08-04T14:39:55Z</time>
      </trkpt>
      <trkpt lat="45.51529" lon="1.8738">
        <ele>802</ele>
        <time>2022-08-04T14:39:57Z</time>
      </trkpt>
      <trkpt lat="45.51529" lon="1.87379">
        <ele>802</ele>
        <time>2022-08-04T14:39:59Z</time>
      </trkpt>
      <trkpt lat="45.51529" lon="1.8738">
        <ele>802</ele>
        <time>2022-08-04T14:40:01Z</time>
      </trkpt>
      <trkpt lat="45.51529" lon="1.8738">
        <ele>802</ele>
        <time>2022-08-04T14:40:03Z</time>
      </trkpt>
      <trkpt lat="45.51529" lon="1.8738">
        <ele>802</ele>
        <time>2022-08-04T14:40:05Z</time>
      </trkpt>
      <trkpt lat="45.5154" lon="1.87384">
        <ele>803.1</ele>
        <time>2022-08-04T14:41:47Z</time>
      </trkpt>
      <trkpt lat="45.51543" lon="1.87385">
        <ele>803.4</ele>
        <time>2022-08-04T14:41:49Z</time>
      </trkpt>
      <trkpt lat="45.51546" lon="1.87386">
        <ele>803.7</ele>
        <time>2022-08-04T14:41:51Z</time>
      </trkpt>
      <trkpt lat="45.5155" lon="1.87387">
        <ele>804.1</ele>
        <time>2022-08-04T14:41:53Z</time>
      </trkpt>
      <trkpt lat="45.51553" lon="1.87389">
        <ele>804.4</ele>
        <time>2022-08-04T14:41:55Z</time>
      </trkpt>
      <trkpt lat="45.51555" lon="1.87392">
        <ele>804.6</ele>
        <time>2022-08-04T14:41:57Z</time>
      </trkpt>
      <trkpt lat="45.51557" lon="1.87395">
        <ele>804.8</ele>
        <time>2022-08-04T14:41:59Z</time>
      </trkpt>
      <trkpt lat="45.51557" lon="1.87398">
        <ele>804.8</ele>
        <time>2022-08-04T14:42:01Z</time>
      </trkpt>
      <trkpt lat="45.51558" lon="1.87399">
        <ele>804.9</ele>
        <time>2022-08-04T14:42:03Z</time>
      </trkpt>
      <trkpt lat="45.5156" lon="1.87402">
        <ele>805.1</ele>
        <time>2022-08-04T14:42:05Z</time>
      </trkpt>
      <trkpt lat="45.51561" lon="1.87407">
        <ele>805.1</ele>
        <time>2022-08-04T14:42:07Z</time>
      </trkpt>
      <trkpt lat="45.51561" lon="1.87412">
        <ele>805.1</ele>
        <time>2022-08-04T14:42:09Z</time>
      </trkpt>
      <trkpt lat="45.51562" lon="1.87416">
        <ele>805.2</ele>
        <time>2022-08-04T14:42:11Z</time>
      </trkpt>
      <trkpt lat="45.51564" lon="1.87421">
        <ele>805.1</ele>
        <time>2022-08-04T14:42:13Z</time>
      </trkpt>
      <trkpt lat="45.51566" lon="1.87425">
        <ele>804.9</ele>
        <time>2022-08-04T14:42:15Z</time>
      </trkpt>
      <trkpt lat="45.5157" lon="1.87429">
        <ele>804.9</ele>
        <time>2022-08-04T14:42:17Z</time>
      </trkpt>
      <trkpt lat="45.51573" lon="1.87433">
        <ele>804.9</ele>
        <time>2022-08-04T14:42:19Z</time>
      </trkpt>
      <trkpt lat="45.51575" lon="1.87436">
        <ele>804.8</ele>
        <time>2022-08-04T14:42:21Z</time>
      </trkpt>
      <trkpt lat="45.51576" lon="1.8744">
        <ele>804.6</ele>
        <time>2022-08-04T14:42:23Z</time>
      </trkpt>
      <trkpt lat="45.51578" lon="1.87441">
        <ele>804.6</ele>
        <time>2022-08-04T14:42:25Z</time>
      </trkpt>
      <trkpt lat="45.51581" lon="1.87436">
        <ele>805.2</ele>
        <time>2022-08-04T14:42:27Z</time>
      </trkpt>
      <trkpt lat="45.51579" lon="1.87428">
        <ele>805.7</ele>
        <time>2022-08-04T14:42:29Z</time>
      </trkpt>
      <trkpt lat="45.51574" lon="1.87425">
        <ele>805.6</ele>
        <time>2022-08-04T14:42:31Z</time>
      </trkpt>
      <trkpt lat="45.5157" lon="1.87422">
        <ele>805.4</ele>
        <time>2022-08-04T14:42:33Z</time>
      </trkpt>
      <trkpt lat="45.51567" lon="1.87417">
        <ele>805.6</ele>
        <time>2022-08-04T14:42:35Z</time>
      </trkpt>
      <trkpt lat="45.51564" lon="1.87412">
        <ele>805.4</ele>
        <time>2022-08-04T14:42:37Z</time>
      </trkpt>
      <trkpt lat="45.51561" lon="1.87408">
        <ele>805.1</ele>
        <time>2022-08-04T14:42:39Z</time>
      </trkpt>
      <trkpt lat="45.51559" lon="1.87404">
        <ele>805</ele>
        <time>2022-08-04T14:42:41Z</time>
      </trkpt>
      <trkpt lat="45.51555" lon="1.87399">
        <ele>804.7</ele>
        <time>2022-08-04T14:42:43Z</time>
      </trkpt>
      <trkpt lat="45.51552" lon="1.87399">
        <ele>804.3</ele>
        <time>2022-08-04T14:42:45Z</time>
      </trkpt>
      <trkpt lat="45.5155" lon="1.87399">
        <ele>804.2</ele>
        <time>2022-08-04T14:42:47Z</time>
      </trkpt>
      <trkpt lat="45.5155" lon="1.87399">
        <ele>804.2</ele>
        <time>2022-08-04T14:42:49Z</time>
      </trkpt>
      <trkpt lat="45.5155" lon="1.87396">
        <ele>804.2</ele>
        <time>2022-08-04T14:42:51Z</time>
      </trkpt>
      <trkpt lat="45.51551" lon="1.87397">
        <ele>804.2</ele>
        <time>2022-08-04T14:42:53Z</time>
      </trkpt>
      <trkpt lat="45.51551" lon="1.87397">
        <ele>804.2</ele>
        <time>2022-08-04T14:42:55Z</time>
      </trkpt>
      <trkpt lat="45.51588" lon="1.87448">
        <ele>804.7</ele>
        <time>2022-08-04T14:45:25Z</time>
      </trkpt>
      <trkpt lat="45.51595" lon="1.87452">
        <ele>804.8</ele>
        <time>2022-08-04T14:45:27Z</time>
      </trkpt>
      <trkpt lat="45.51602" lon="1.87458">
        <ele>804.8</ele>
        <time>2022-08-04T14:45:29Z</time>
      </trkpt>
      <trkpt lat="45.5161" lon="1.87464">
        <ele>804.7</ele>
        <time>2022-08-04T14:45:31Z</time>
      </trkpt>
      <trkpt lat="45.51618" lon="1.87471">
        <ele>804.4</ele>
        <time>2022-08-04T14:45:33Z</time>
      </trkpt>
      <trkpt lat="45.51627" lon="1.87478">
        <ele>804.1</ele>
        <time>2022-08-04T14:45:35Z</time>
      </trkpt>
      <trkpt lat="45.51636" lon="1.87486">
        <ele>803.6</ele>
        <time>2022-08-04T14:45:37Z</time>
      </trkpt>
      <trkpt lat="45.51646" lon="1.87493">
        <ele>803.1</ele>
        <time>2022-08-04T14:45:39Z</time>
      </trkpt>
      <trkpt lat="45.51655" lon="1.87502">
        <ele>802.5</ele>
        <time>2022-08-04T14:45:41Z</time>
      </trkpt>
      <trkpt lat="45.51664" lon="1.87513">
        <ele>802.6</ele>
        <time>2022-08-04T14:45:43Z</time>
      </trkpt>
      <trkpt lat="45.51671" lon="1.87527">
        <ele>802.6</ele>
        <time>2022-08-04T14:45:45Z</time>
      </trkpt>
      <trkpt lat="45.51677" lon="1.87542">
        <ele>802.8</ele>
        <time>2022-08-04T14:45:47Z</time>
      </trkpt>
      <trkpt lat="45.51682" lon="1.87557">
        <ele>802.9</ele>
        <time>2022-08-04T14:45:49Z</time>
      </trkpt>
      <trkpt lat="45.51683" lon="1.87574">
        <ele>802.9</ele>
        <time>2022-08-04T14:45:51Z</time>
      </trkpt>
      <trkpt lat="45.51684" lon="1.87589">
        <ele>803.7</ele>
        <time>2022-08-04T14:45:53Z</time>
      </trkpt>
      <trkpt lat="45.51683" lon="1.87602">
        <ele>805.6</ele>
        <time>2022-08-04T14:45:55Z</time>
      </trkpt>
      <trkpt lat="45.51681" lon="1.87613">
        <ele>807</ele>
        <time>2022-08-04T14:45:57Z</time>
      </trkpt>
      <trkpt lat="45.51679" lon="1.87623">
        <ele>808.4</ele>
        <time>2022-08-04T14:45:59Z</time>
      </trkpt>
      <trkpt lat="45.51678" lon="1.87632">
        <ele>809.6</ele>
        <time>2022-08-04T14:46:01Z</time>
      </trkpt>
      <trkpt lat="45.51676" lon="1.8764">
        <ele>810.6</ele>
        <time>2022-08-04T14:46:03Z</time>
      </trkpt>
      <trkpt lat="45.51674" lon="1.87648">
        <ele>811.7</ele>
        <time>2022-08-04T14:46:05Z</time>
      </trkpt>
      <trkpt lat="45.51671" lon="1.87656">
        <ele>812.7</ele>
        <time>2022-08-04T14:46:07Z</time>
      </trkpt>
      <trkpt lat="45.51668" lon="1.87663">
        <ele>813.5</ele>
        <time>2022-08-04T14:46:09Z</time>
      </trkpt>
      <trkpt lat="45.51664" lon="1.87668">
        <ele>814</ele>
        <time>2022-08-04T14:46:11Z</time>
      </trkpt>
      <trkpt lat="45.51661" lon="1.87672">
        <ele>814.1</ele>
        <time>2022-08-04T14:46:13Z</time>
      </trkpt>
      <trkpt lat="45.51657" lon="1.87676">
        <ele>814.1</ele>
        <time>2022-08-04T14:46:15Z</time>
      </trkpt>
      <trkpt lat="45.51653" lon="1.87679">
        <ele>814.2</ele>
        <time>2022-08-04T14:46:17Z</time>
      </trkpt>
      <trkpt lat="45.51648" lon="1.87682">
        <ele>814.2</ele>
        <time>2022-08-04T14:46:19Z</time>
      </trkpt>
      <trkpt lat="45.51643" lon="1.87685">
        <ele>814.1</ele>
        <time>2022-08-04T14:46:21Z</time>
      </trkpt>
      <trkpt lat="45.51638" lon="1.87687">
        <ele>814.1</ele>
        <time>2022-08-04T14:46:23Z</time>
      </trkpt>
      <trkpt lat="45.51634" lon="1.87688">
        <ele>814.1</ele>
        <time>2022-08-04T14:46:25Z</time>
      </trkpt>
      <trkpt lat="45.51629" lon="1.87689">
        <ele>814</ele>
        <time>2022-08-04T14:46:27Z</time>
      </trkpt>
      <trkpt lat="45.51625" lon="1.8769">
        <ele>813.9</ele>
        <time>2022-08-04T14:46:29Z</time>
      </trkpt>
      <trkpt lat="45.51621" lon="1.87691">
        <ele>813.9</ele>
        <time>2022-08-04T14:46:31Z</time>
      </trkpt>
      <trkpt lat="45.51617" lon="1.87693">
        <ele>813.8</ele>
        <time>2022-08-04T14:46:33Z</time>
      </trkpt>
      <trkpt lat="45.51613" lon="1.87694">
        <ele>813.8</ele>
        <time>2022-08-04T14:46:35Z</time>
      </trkpt>
      <trkpt lat="45.51609" lon="1.87695">
        <ele>813.8</ele>
        <time>2022-08-04T14:46:37Z</time>
      </trkpt>
      <trkpt lat="45.51606" lon="1.87696">
        <ele>813.8</ele>
        <time>2022-08-04T14:46:39Z</time>
      </trkpt>
      <trkpt lat="45.51602" lon="1.87698">
        <ele>813.8</ele>
        <time>2022-08-04T14:46:41Z</time>
      </trkpt>
      <trkpt lat="45.51598" lon="1.877">
        <ele>813.8</ele>
        <time>2022-08-04T14:46:43Z</time>
      </trkpt>
      <trkpt lat="45.51595" lon="1.87701">
        <ele>813.8</ele>
        <time>2022-08-04T14:46:45Z</time>
      </trkpt>
      <trkpt lat="45.51591" lon="1.87703">
        <ele>813.8</ele>
        <time>2022-08-04T14:46:47Z</time>
      </trkpt>
      <trkpt lat="45.51588" lon="1.87705">
        <ele>813.9</ele>
        <time>2022-08-04T14:46:49Z</time>
      </trkpt>
      <trkpt lat="45.51584" lon="1.87708">
        <ele>814</ele>
        <time>2022-08-04T14:46:51Z</time>
      </trkpt>
      <trkpt lat="45.51581" lon="1.8771">
        <ele>813.9</ele>
        <time>2022-08-04T14:46:53Z</time>
      </trkpt>
      <trkpt lat="45.51577" lon="1.87713">
        <ele>813.9</ele>
        <time>2022-08-04T14:46:55Z</time>
      </trkpt>
      <trkpt lat="45.51574" lon="1.87716">
        <ele>813.9</ele>
        <time>2022-08-04T14:46:57Z</time>
      </trkpt>
      <trkpt lat="45.51571" lon="1.87719">
        <ele>813.9</ele>
        <time>2022-08-04T14:46:59Z</time>
      </trkpt>
      <trkpt lat="45.51568" lon="1.87722">
        <ele>814</ele>
        <time>2022-08-04T14:47:01Z</time>
      </trkpt>
      <trkpt lat="45.51564" lon="1.87726">
        <ele>814</ele>
        <time>2022-08-04T14:47:03Z</time>
      </trkpt>
      <trkpt lat="45.51561" lon="1.87729">
        <ele>814.1</ele>
        <time>2022-08-04T14:47:05Z</time>
      </trkpt>
      <trkpt lat="45.51558" lon="1.87733">
        <ele>814.2</ele>
        <time>2022-08-04T14:47:07Z</time>
      </trkpt>
      <trkpt lat="45.51555" lon="1.87737">
        <ele>814.4</ele>
        <time>2022-08-04T14:47:09Z</time>
      </trkpt>
      <trkpt lat="45.51552" lon="1.8774">
        <ele>814.5</ele>
        <time>2022-08-04T14:47:11Z</time>
      </trkpt>
      <trkpt lat="45.51549" lon="1.87743">
        <ele>814.7</ele>
        <time>2022-08-04T14:47:13Z</time>
      </trkpt>
      <trkpt lat="45.51547" lon="1.87748">
        <ele>815</ele>
        <time>2022-08-04T14:47:15Z</time>
      </trkpt>
      <trkpt lat="45.51544" lon="1.87751">
        <ele>815.3</ele>
        <time>2022-08-04T14:47:17Z</time>
      </trkpt>
      <trkpt lat="45.5154" lon="1.87755">
        <ele>815.5</ele>
        <time>2022-08-04T14:47:19Z</time>
      </trkpt>
      <trkpt lat="45.51537" lon="1.87758">
        <ele>815.8</ele>
        <time>2022-08-04T14:47:21Z</time>
      </trkpt>
      <trkpt lat="45.51535" lon="1.87763">
        <ele>816.2</ele>
        <time>2022-08-04T14:47:23Z</time>
      </trkpt>
      <trkpt lat="45.51532" lon="1.87766">
        <ele>816.5</ele>
        <time>2022-08-04T14:47:25Z</time>
      </trkpt>
      <trkpt lat="45.51529" lon="1.8777">
        <ele>816.8</ele>
        <time>2022-08-04T14:47:27Z</time>
      </trkpt>
      <trkpt lat="45.51526" lon="1.87773">
        <ele>817.1</ele>
        <time>2022-08-04T14:47:29Z</time>
      </trkpt>
      <trkpt lat="45.51523" lon="1.87776">
        <ele>817.3</ele>
        <time>2022-08-04T14:47:31Z</time>
      </trkpt>
      <trkpt lat="45.5152" lon="1.87779">
        <ele>817.5</ele>
        <time>2022-08-04T14:47:33Z</time>
      </trkpt>
      <trkpt lat="45.51517" lon="1.87782">
        <ele>817.8</ele>
        <time>2022-08-04T14:47:35Z</time>
      </trkpt>
      <trkpt lat="45.51514" lon="1.87785">
        <ele>818</ele>
        <time>2022-08-04T14:47:37Z</time>
      </trkpt>
      <trkpt lat="45.51511" lon="1.87788">
        <ele>818.2</ele>
        <time>2022-08-04T14:47:39Z</time>
      </trkpt>
      <trkpt lat="45.51508" lon="1.87791">
        <ele>818.4</ele>
        <time>2022-08-04T14:47:41Z</time>
      </trkpt>
      <trkpt lat="45.51505" lon="1.87794">
        <ele>818.6</ele>
        <time>2022-08-04T14:47:43Z</time>
      </trkpt>
      <trkpt lat="45.51501" lon="1.87796">
        <ele>818.5</ele>
        <time>2022-08-04T14:47:45Z</time>
      </trkpt>
      <trkpt lat="45.51497" lon="1.87797">
        <ele>818.6</ele>
        <time>2022-08-04T14:47:47Z</time>
      </trkpt>
      <trkpt lat="45.51496" lon="1.878">
        <ele>818.9</ele>
        <time>2022-08-04T14:47:49Z</time>
      </trkpt>
      <trkpt lat="45.51496" lon="1.878">
        <ele>818.9</ele>
        <time>2022-08-04T14:47:51Z</time>
      </trkpt>
      <trkpt lat="45.51496" lon="1.878">
        <ele>818.9</ele>
        <time>2022-08-04T14:47:53Z</time>
      </trkpt>
      <trkpt lat="45.51496" lon="1.878">
        <ele>818.9</ele>
        <time>2022-08-04T14:47:55Z</time>
      </trkpt>
      <trkpt lat="45.51496" lon="1.878">
        <ele>818.9</ele>
        <time>2022-08-04T14:47:57Z</time>
      </trkpt>
      <trkpt lat="45.51496" lon="1.878">
        <ele>818.9</ele>
        <time>2022-08-04T14:47:59Z</time>
      </trkpt>
      <trkpt lat="45.51485" lon="1.87812">
        <ele>819.9</ele>
        <time>2022-08-04T14:48:11Z</time>
      </trkpt>
      <trkpt lat="45.51481" lon="1.87814">
        <ele>820</ele>
        <time>2022-08-04T14:48:13Z</time>
      </trkpt>
      <trkpt lat="45.51478" lon="1.87817">
        <ele>820.2</ele>
        <time>2022-08-04T14:48:15Z</time>
      </trkpt>
      <trkpt lat="45.51474" lon="1.8782">
        <ele>820.4</ele>
        <time>2022-08-04T14:48:17Z</time>
      </trkpt>
      <trkpt lat="45.5147" lon="1.87821">
        <ele>820.4</ele>
        <time>2022-08-04T14:48:19Z</time>
      </trkpt>
      <trkpt lat="45.51466" lon="1.87823">
        <ele>820.4</ele>
        <time>2022-08-04T14:48:21Z</time>
      </trkpt>
      <trkpt lat="45.51462" lon="1.87826">
        <ele>820.5</ele>
        <time>2022-08-04T14:48:23Z</time>
      </trkpt>
      <trkpt lat="45.51458" lon="1.87828">
        <ele>820.5</ele>
        <time>2022-08-04T14:48:25Z</time>
      </trkpt>
      <trkpt lat="45.51455" lon="1.87829">
        <ele>820.5</ele>
        <time>2022-08-04T14:48:27Z</time>
      </trkpt>
      <trkpt lat="45.51451" lon="1.87831">
        <ele>820.5</ele>
        <time>2022-08-04T14:48:29Z</time>
      </trkpt>
      <trkpt lat="45.51448" lon="1.87833">
        <ele>820.4</ele>
        <time>2022-08-04T14:48:31Z</time>
      </trkpt>
      <trkpt lat="45.51444" lon="1.87835">
        <ele>820.4</ele>
        <time>2022-08-04T14:48:33Z</time>
      </trkpt>
      <trkpt lat="45.5144" lon="1.87837">
        <ele>820.5</ele>
        <time>2022-08-04T14:48:35Z</time>
      </trkpt>
      <trkpt lat="45.51436" lon="1.87839">
        <ele>820.5</ele>
        <time>2022-08-04T14:48:37Z</time>
      </trkpt>
      <trkpt lat="45.51431" lon="1.8784">
        <ele>820.4</ele>
        <time>2022-08-04T14:48:39Z</time>
      </trkpt>
      <trkpt lat="45.51428" lon="1.87842">
        <ele>820.5</ele>
        <time>2022-08-04T14:48:41Z</time>
      </trkpt>
      <trkpt lat="45.51424" lon="1.87844">
        <ele>820.4</ele>
        <time>2022-08-04T14:48:43Z</time>
      </trkpt>
      <trkpt lat="45.5142" lon="1.87847">
        <ele>820.4</ele>
        <time>2022-08-04T14:48:45Z</time>
      </trkpt>
      <trkpt lat="45.51416" lon="1.8785">
        <ele>820.7</ele>
        <time>2022-08-04T14:48:47Z</time>
      </trkpt>
      <trkpt lat="45.51412" lon="1.87852">
        <ele>821.1</ele>
        <time>2022-08-04T14:48:49Z</time>
      </trkpt>
      <trkpt lat="45.51408" lon="1.87855">
        <ele>821.6</ele>
        <time>2022-08-04T14:48:51Z</time>
      </trkpt>
      <trkpt lat="45.51405" lon="1.87858">
        <ele>822</ele>
        <time>2022-08-04T14:48:53Z</time>
      </trkpt>
      <trkpt lat="45.51402" lon="1.87862">
        <ele>822.4</ele>
        <time>2022-08-04T14:48:55Z</time>
      </trkpt>
      <trkpt lat="45.514" lon="1.87863">
        <ele>822.6</ele>
        <time>2022-08-04T14:48:57Z</time>
      </trkpt>
      <trkpt lat="45.51396" lon="1.87865">
        <ele>822.8</ele>
        <time>2022-08-04T14:48:59Z</time>
      </trkpt>
      <trkpt lat="45.51393" lon="1.87867">
        <ele>823.1</ele>
        <time>2022-08-04T14:49:01Z</time>
      </trkpt>
      <trkpt lat="45.51391" lon="1.8787">
        <ele>823.3</ele>
        <time>2022-08-04T14:49:03Z</time>
      </trkpt>
      <trkpt lat="45.51388" lon="1.87873">
        <ele>823.6</ele>
        <time>2022-08-04T14:49:05Z</time>
      </trkpt>
      <trkpt lat="45.51385" lon="1.87877">
        <ele>823.8</ele>
        <time>2022-08-04T14:49:07Z</time>
      </trkpt>
      <trkpt lat="45.51381" lon="1.87881">
        <ele>824.1</ele>
        <time>2022-08-04T14:49:09Z</time>
      </trkpt>
      <trkpt lat="45.51377" lon="1.87887">
        <ele>824.4</ele>
        <time>2022-08-04T14:49:11Z</time>
      </trkpt>
      <trkpt lat="45.51374" lon="1.87891">
        <ele>824.6</ele>
        <time>2022-08-04T14:49:13Z</time>
      </trkpt>
      <trkpt lat="45.51371" lon="1.87894">
        <ele>824.7</ele>
        <time>2022-08-04T14:49:15Z</time>
      </trkpt>
      <trkpt lat="45.51367" lon="1.87899">
        <ele>824.8</ele>
        <time>2022-08-04T14:49:17Z</time>
      </trkpt>
      <trkpt lat="45.51364" lon="1.87904">
        <ele>824.8</ele>
        <time>2022-08-04T14:49:19Z</time>
      </trkpt>
      <trkpt lat="45.51361" lon="1.87908">
        <ele>824.9</ele>
        <time>2022-08-04T14:49:21Z</time>
      </trkpt>
      <trkpt lat="45.51359" lon="1.87913">
        <ele>824.9</ele>
        <time>2022-08-04T14:49:23Z</time>
      </trkpt>
      <trkpt lat="45.51356" lon="1.87918">
        <ele>824.8</ele>
        <time>2022-08-04T14:49:25Z</time>
      </trkpt>
      <trkpt lat="45.51355" lon="1.87922">
        <ele>824.8</ele>
        <time>2022-08-04T14:49:27Z</time>
      </trkpt>
      <trkpt lat="45.51354" lon="1.87928">
        <ele>824.7</ele>
        <time>2022-08-04T14:49:29Z</time>
      </trkpt>
      <trkpt lat="45.51353" lon="1.87934">
        <ele>824.6</ele>
        <time>2022-08-04T14:49:31Z</time>
      </trkpt>
      <trkpt lat="45.51353" lon="1.87942">
        <ele>824.6</ele>
        <time>2022-08-04T14:49:33Z</time>
      </trkpt>
      <trkpt lat="45.51351" lon="1.87951">
        <ele>824.5</ele>
        <time>2022-08-04T14:49:35Z</time>
      </trkpt>
      <trkpt lat="45.51351" lon="1.87962">
        <ele>824.4</ele>
        <time>2022-08-04T14:49:37Z</time>
      </trkpt>
      <trkpt lat="45.5135" lon="1.87974">
        <ele>824.2</ele>
        <time>2022-08-04T14:49:39Z</time>
      </trkpt>
      <trkpt lat="45.51349" lon="1.87985">
        <ele>824</ele>
        <time>2022-08-04T14:49:41Z</time>
      </trkpt>
      <trkpt lat="45.51347" lon="1.87997">
        <ele>823.7</ele>
        <time>2022-08-04T14:49:43Z</time>
      </trkpt>
      <trkpt lat="45.51345" lon="1.88008">
        <ele>823.9</ele>
        <time>2022-08-04T14:49:45Z</time>
      </trkpt>
      <trkpt lat="45.51341" lon="1.8802">
        <ele>824.3</ele>
        <time>2022-08-04T14:49:47Z</time>
      </trkpt>
      <trkpt lat="45.51338" lon="1.88031">
        <ele>824.7</ele>
        <time>2022-08-04T14:49:49Z</time>
      </trkpt>
      <trkpt lat="45.51333" lon="1.88042">
        <ele>825</ele>
        <time>2022-08-04T14:49:51Z</time>
      </trkpt>
      <trkpt lat="45.51326" lon="1.88051">
        <ele>824.8</ele>
        <time>2022-08-04T14:49:53Z</time>
      </trkpt>
      <trkpt lat="45.51318" lon="1.88057">
        <ele>824.5</ele>
        <time>2022-08-04T14:49:55Z</time>
      </trkpt>
      <trkpt lat="45.51308" lon="1.88064">
        <ele>824.1</ele>
        <time>2022-08-04T14:49:57Z</time>
      </trkpt>
      <trkpt lat="45.51297" lon="1.8807">
        <ele>823.5</ele>
        <time>2022-08-04T14:49:59Z</time>
      </trkpt>
      <trkpt lat="45.51287" lon="1.88074">
        <ele>822.8</ele>
        <time>2022-08-04T14:50:01Z</time>
      </trkpt>
      <trkpt lat="45.51276" lon="1.88079">
        <ele>822.1</ele>
        <time>2022-08-04T14:50:03Z</time>
      </trkpt>
      <trkpt lat="45.51265" lon="1.88083">
        <ele>821.4</ele>
        <time>2022-08-04T14:50:05Z</time>
      </trkpt>
      <trkpt lat="45.51255" lon="1.88087">
        <ele>820.9</ele>
        <time>2022-08-04T14:50:07Z</time>
      </trkpt>
      <trkpt lat="45.51245" lon="1.88092">
        <ele>820.8</ele>
        <time>2022-08-04T14:50:09Z</time>
      </trkpt>
      <trkpt lat="45.51233" lon="1.88098">
        <ele>821</ele>
        <time>2022-08-04T14:50:11Z</time>
      </trkpt>
      <trkpt lat="45.51222" lon="1.88102">
        <ele>821.1</ele>
        <time>2022-08-04T14:50:13Z</time>
      </trkpt>
      <trkpt lat="45.5121" lon="1.88108">
        <ele>821.5</ele>
        <time>2022-08-04T14:50:15Z</time>
      </trkpt>
      <trkpt lat="45.51199" lon="1.88112">
        <ele>821.6</ele>
        <time>2022-08-04T14:50:17Z</time>
      </trkpt>
      <trkpt lat="45.51187" lon="1.88116">
        <ele>821.9</ele>
        <time>2022-08-04T14:50:19Z</time>
      </trkpt>
      <trkpt lat="45.51176" lon="1.88119">
        <ele>821.8</ele>
        <time>2022-08-04T14:50:21Z</time>
      </trkpt>
      <trkpt lat="45.51164" lon="1.8812">
        <ele>821.7</ele>
        <time>2022-08-04T14:50:23Z</time>
      </trkpt>
      <trkpt lat="45.51153" lon="1.88118">
        <ele>821.8</ele>
        <time>2022-08-04T14:50:25Z</time>
      </trkpt>
      <trkpt lat="45.51141" lon="1.88112">
        <ele>821.3</ele>
        <time>2022-08-04T14:50:27Z</time>
      </trkpt>
      <trkpt lat="45.51131" lon="1.88105">
        <ele>820.6</ele>
        <time>2022-08-04T14:50:29Z</time>
      </trkpt>
      <trkpt lat="45.5112" lon="1.88097">
        <ele>819.6</ele>
        <time>2022-08-04T14:50:31Z</time>
      </trkpt>
      <trkpt lat="45.5111" lon="1.88088">
        <ele>818.8</ele>
        <time>2022-08-04T14:50:33Z</time>
      </trkpt>
      <trkpt lat="45.51099" lon="1.88081">
        <ele>818</ele>
        <time>2022-08-04T14:50:35Z</time>
      </trkpt>
      <trkpt lat="45.51089" lon="1.88073">
        <ele>817.1</ele>
        <time>2022-08-04T14:50:37Z</time>
      </trkpt>
      <trkpt lat="45.51078" lon="1.88067">
        <ele>816.5</ele>
        <time>2022-08-04T14:50:39Z</time>
      </trkpt>
      <trkpt lat="45.51066" lon="1.88061">
        <ele>816.3</ele>
        <time>2022-08-04T14:50:41Z</time>
      </trkpt>
      <trkpt lat="45.51055" lon="1.88056">
        <ele>816.1</ele>
        <time>2022-08-04T14:50:43Z</time>
      </trkpt>
      <trkpt lat="45.51043" lon="1.88052">
        <ele>816.2</ele>
        <time>2022-08-04T14:50:45Z</time>
      </trkpt>
      <trkpt lat="45.51031" lon="1.88049">
        <ele>816.4</ele>
        <time>2022-08-04T14:50:47Z</time>
      </trkpt>
      <trkpt lat="45.51019" lon="1.88047">
        <ele>816.7</ele>
        <time>2022-08-04T14:50:49Z</time>
      </trkpt>
      <trkpt lat="45.51007" lon="1.88047">
        <ele>817.5</ele>
        <time>2022-08-04T14:50:51Z</time>
      </trkpt>
      <trkpt lat="45.50995" lon="1.88046">
        <ele>817.7</ele>
        <time>2022-08-04T14:50:53Z</time>
      </trkpt>
      <trkpt lat="45.50983" lon="1.88046">
        <ele>817.5</ele>
        <time>2022-08-04T14:50:55Z</time>
      </trkpt>
      <trkpt lat="45.50971" lon="1.88046">
        <ele>817.3</ele>
        <time>2022-08-04T14:50:57Z</time>
      </trkpt>
      <trkpt lat="45.50958" lon="1.88046">
        <ele>817.1</ele>
        <time>2022-08-04T14:50:59Z</time>
      </trkpt>
      <trkpt lat="45.50946" lon="1.88046">
        <ele>817</ele>
        <time>2022-08-04T14:51:01Z</time>
      </trkpt>
      <trkpt lat="45.50934" lon="1.88046">
        <ele>816.9</ele>
        <time>2022-08-04T14:51:03Z</time>
      </trkpt>
      <trkpt lat="45.50921" lon="1.88046">
        <ele>816.6</ele>
        <time>2022-08-04T14:51:05Z</time>
      </trkpt>
      <trkpt lat="45.50908" lon="1.88045">
        <ele>817.3</ele>
        <time>2022-08-04T14:51:07Z</time>
      </trkpt>
      <trkpt lat="45.50895" lon="1.88046">
        <ele>818.6</ele>
        <time>2022-08-04T14:51:09Z</time>
      </trkpt>
      <trkpt lat="45.50882" lon="1.88046">
        <ele>819.8</ele>
        <time>2022-08-04T14:51:11Z</time>
      </trkpt>
      <trkpt lat="45.50869" lon="1.88044">
        <ele>820.8</ele>
        <time>2022-08-04T14:51:13Z</time>
      </trkpt>
      <trkpt lat="45.50857" lon="1.88041">
        <ele>821.7</ele>
        <time>2022-08-04T14:51:15Z</time>
      </trkpt>
      <trkpt lat="45.50846" lon="1.88035">
        <ele>822.2</ele>
        <time>2022-08-04T14:51:17Z</time>
      </trkpt>
      <trkpt lat="45.50835" lon="1.88025">
        <ele>822.6</ele>
        <time>2022-08-04T14:51:19Z</time>
      </trkpt>
      <trkpt lat="45.50827" lon="1.88011">
        <ele>822.6</ele>
        <time>2022-08-04T14:51:21Z</time>
      </trkpt>
      <trkpt lat="45.50825" lon="1.87995">
        <ele>821.3</ele>
        <time>2022-08-04T14:51:23Z</time>
      </trkpt>
      <trkpt lat="45.50822" lon="1.8798">
        <ele>819.1</ele>
        <time>2022-08-04T14:51:25Z</time>
      </trkpt>
      <trkpt lat="45.50818" lon="1.87969">
        <ele>817.8</ele>
        <time>2022-08-04T14:51:27Z</time>
      </trkpt>
      <trkpt lat="45.50811" lon="1.87958">
        <ele>816.9</ele>
        <time>2022-08-04T14:51:29Z</time>
      </trkpt>
      <trkpt lat="45.50805" lon="1.87949">
        <ele>816.4</ele>
        <time>2022-08-04T14:51:31Z</time>
      </trkpt>
      <trkpt lat="45.50798" lon="1.87942">
        <ele>816.3</ele>
        <time>2022-08-04T14:51:33Z</time>
      </trkpt>
      <trkpt lat="45.50791" lon="1.87936">
        <ele>816.4</ele>
        <time>2022-08-04T14:51:35Z</time>
      </trkpt>
      <trkpt lat="45.50787" lon="1.87929">
        <ele>816</ele>
        <time>2022-08-04T14:51:37Z</time>
      </trkpt>
      <trkpt lat="45.50779" lon="1.87929">
        <ele>817.2</ele>
        <time>2022-08-04T14:51:39Z</time>
      </trkpt>
      <trkpt lat="45.50771" lon="1.87925">
        <ele>817.8</ele>
        <time>2022-08-04T14:51:41Z</time>
      </trkpt>
      <trkpt lat="45.50763" lon="1.87921">
        <ele>818.5</ele>
        <time>2022-08-04T14:51:43Z</time>
      </trkpt>
      <trkpt lat="45.50756" lon="1.87918">
        <ele>819.2</ele>
        <time>2022-08-04T14:51:45Z</time>
      </trkpt>
      <trkpt lat="45.50749" lon="1.87915">
        <ele>819.6</ele>
        <time>2022-08-04T14:51:47Z</time>
      </trkpt>
      <trkpt lat="45.50742" lon="1.87914">
        <ele>819.7</ele>
        <time>2022-08-04T14:51:49Z</time>
      </trkpt>
      <trkpt lat="45.50735" lon="1.87911">
        <ele>819.4</ele>
        <time>2022-08-04T14:51:51Z</time>
      </trkpt>
      <trkpt lat="45.50728" lon="1.87911">
        <ele>819.9</ele>
        <time>2022-08-04T14:51:53Z</time>
      </trkpt>
      <trkpt lat="45.50721" lon="1.87911">
        <ele>820.6</ele>
        <time>2022-08-04T14:51:55Z</time>
      </trkpt>
      <trkpt lat="45.50713" lon="1.87911">
        <ele>821</ele>
        <time>2022-08-04T14:51:57Z</time>
      </trkpt>
      <trkpt lat="45.50706" lon="1.87911">
        <ele>821.4</ele>
        <time>2022-08-04T14:51:59Z</time>
      </trkpt>
      <trkpt lat="45.50699" lon="1.87911">
        <ele>822</ele>
        <time>2022-08-04T14:52:01Z</time>
      </trkpt>
      <trkpt lat="45.50692" lon="1.87913">
        <ele>822.7</ele>
        <time>2022-08-04T14:52:03Z</time>
      </trkpt>
      <trkpt lat="45.50684" lon="1.87913">
        <ele>823.3</ele>
        <time>2022-08-04T14:52:05Z</time>
      </trkpt>
      <trkpt lat="45.50676" lon="1.87914">
        <ele>824</ele>
        <time>2022-08-04T14:52:07Z</time>
      </trkpt>
      <trkpt lat="45.50667" lon="1.87913">
        <ele>824.4</ele>
        <time>2022-08-04T14:52:09Z</time>
      </trkpt>
      <trkpt lat="45.50661" lon="1.87911">
        <ele>824.4</ele>
        <time>2022-08-04T14:52:11Z</time>
      </trkpt>
      <trkpt lat="45.50654" lon="1.87906">
        <ele>824.3</ele>
        <time>2022-08-04T14:52:13Z</time>
      </trkpt>
      <trkpt lat="45.50646" lon="1.87901">
        <ele>824</ele>
        <time>2022-08-04T14:52:15Z</time>
      </trkpt>
      <trkpt lat="45.5064" lon="1.87894">
        <ele>823.6</ele>
        <time>2022-08-04T14:52:17Z</time>
      </trkpt>
      <trkpt lat="45.50636" lon="1.87886">
        <ele>823</ele>
        <time>2022-08-04T14:52:19Z</time>
      </trkpt>
      <trkpt lat="45.5063" lon="1.87877">
        <ele>822.5</ele>
        <time>2022-08-04T14:52:21Z</time>
      </trkpt>
      <trkpt lat="45.50627" lon="1.87867">
        <ele>821.7</ele>
        <time>2022-08-04T14:52:23Z</time>
      </trkpt>
      <trkpt lat="45.50622" lon="1.87861">
        <ele>821.7</ele>
        <time>2022-08-04T14:52:25Z</time>
      </trkpt>
      <trkpt lat="45.50618" lon="1.8785">
        <ele>821</ele>
        <time>2022-08-04T14:52:27Z</time>
      </trkpt>
      <trkpt lat="45.50613" lon="1.87842">
        <ele>820.8</ele>
        <time>2022-08-04T14:52:29Z</time>
      </trkpt>
      <trkpt lat="45.50609" lon="1.87833">
        <ele>820.6</ele>
        <time>2022-08-04T14:52:31Z</time>
      </trkpt>
      <trkpt lat="45.50605" lon="1.87826">
        <ele>820.2</ele>
        <time>2022-08-04T14:52:33Z</time>
      </trkpt>
      <trkpt lat="45.506" lon="1.87818">
        <ele>820</ele>
        <time>2022-08-04T14:52:35Z</time>
      </trkpt>
      <trkpt lat="45.50595" lon="1.87812">
        <ele>819.9</ele>
        <time>2022-08-04T14:52:37Z</time>
      </trkpt>
      <trkpt lat="45.5059" lon="1.87807">
        <ele>820</ele>
        <time>2022-08-04T14:52:39Z</time>
      </trkpt>
      <trkpt lat="45.50584" lon="1.87802">
        <ele>820.2</ele>
        <time>2022-08-04T14:52:41Z</time>
      </trkpt>
      <trkpt lat="45.50577" lon="1.878">
        <ele>820</ele>
        <time>2022-08-04T14:52:43Z</time>
      </trkpt>
      <trkpt lat="45.50571" lon="1.87799">
        <ele>820</ele>
        <time>2022-08-04T14:52:45Z</time>
      </trkpt>
      <trkpt lat="45.50564" lon="1.87799">
        <ele>820.1</ele>
        <time>2022-08-04T14:52:47Z</time>
      </trkpt>
      <trkpt lat="45.50557" lon="1.87799">
        <ele>820.2</ele>
        <time>2022-08-04T14:52:49Z</time>
      </trkpt>
      <trkpt lat="45.50551" lon="1.878">
        <ele>820.4</ele>
        <time>2022-08-04T14:52:51Z</time>
      </trkpt>
      <trkpt lat="45.50544" lon="1.87802">
        <ele>820.6</ele>
        <time>2022-08-04T14:52:53Z</time>
      </trkpt>
      <trkpt lat="45.50537" lon="1.87804">
        <ele>820.9</ele>
        <time>2022-08-04T14:52:55Z</time>
      </trkpt>
      <trkpt lat="45.5053" lon="1.87806">
        <ele>821.2</ele>
        <time>2022-08-04T14:52:57Z</time>
      </trkpt>
      <trkpt lat="45.50523" lon="1.87808">
        <ele>821.4</ele>
        <time>2022-08-04T14:52:59Z</time>
      </trkpt>
      <trkpt lat="45.50516" lon="1.8781">
        <ele>821.6</ele>
        <time>2022-08-04T14:53:01Z</time>
      </trkpt>
      <trkpt lat="45.50509" lon="1.87812">
        <ele>821.9</ele>
        <time>2022-08-04T14:53:03Z</time>
      </trkpt>
      <trkpt lat="45.50502" lon="1.87813">
        <ele>822.1</ele>
        <time>2022-08-04T14:53:05Z</time>
      </trkpt>
      <trkpt lat="45.50495" lon="1.87815">
        <ele>822.6</ele>
        <time>2022-08-04T14:53:07Z</time>
      </trkpt>
      <trkpt lat="45.50488" lon="1.87816">
        <ele>823.3</ele>
        <time>2022-08-04T14:53:09Z</time>
      </trkpt>
      <trkpt lat="45.5048" lon="1.87817">
        <ele>823.9</ele>
        <time>2022-08-04T14:53:11Z</time>
      </trkpt>
      <trkpt lat="45.50473" lon="1.87816">
        <ele>824.4</ele>
        <time>2022-08-04T14:53:13Z</time>
      </trkpt>
      <trkpt lat="45.50466" lon="1.87816">
        <ele>824.9</ele>
        <time>2022-08-04T14:53:15Z</time>
      </trkpt>
      <trkpt lat="45.50459" lon="1.87814">
        <ele>825.3</ele>
        <time>2022-08-04T14:53:17Z</time>
      </trkpt>
      <trkpt lat="45.50452" lon="1.87813">
        <ele>825.6</ele>
        <time>2022-08-04T14:53:19Z</time>
      </trkpt>
      <trkpt lat="45.50445" lon="1.87811">
        <ele>825.9</ele>
        <time>2022-08-04T14:53:21Z</time>
      </trkpt>
      <trkpt lat="45.50439" lon="1.87809">
        <ele>826.1</ele>
        <time>2022-08-04T14:53:23Z</time>
      </trkpt>
      <trkpt lat="45.50433" lon="1.87807">
        <ele>826.4</ele>
        <time>2022-08-04T14:53:25Z</time>
      </trkpt>
      <trkpt lat="45.50426" lon="1.87806">
        <ele>826.6</ele>
        <time>2022-08-04T14:53:27Z</time>
      </trkpt>
      <trkpt lat="45.50419" lon="1.87804">
        <ele>827</ele>
        <time>2022-08-04T14:53:29Z</time>
      </trkpt>
      <trkpt lat="45.50413" lon="1.87803">
        <ele>827.2</ele>
        <time>2022-08-04T14:53:31Z</time>
      </trkpt>
      <trkpt lat="45.50406" lon="1.87799">
        <ele>827.1</ele>
        <time>2022-08-04T14:53:33Z</time>
      </trkpt>
      <trkpt lat="45.50399" lon="1.87798">
        <ele>827.4</ele>
        <time>2022-08-04T14:53:35Z</time>
      </trkpt>
      <trkpt lat="45.50392" lon="1.87795">
        <ele>827.5</ele>
        <time>2022-08-04T14:53:37Z</time>
      </trkpt>
      <trkpt lat="45.50384" lon="1.87792">
        <ele>827.7</ele>
        <time>2022-08-04T14:53:39Z</time>
      </trkpt>
      <trkpt lat="45.50377" lon="1.87788">
        <ele>827.7</ele>
        <time>2022-08-04T14:53:41Z</time>
      </trkpt>
      <trkpt lat="45.50371" lon="1.87785">
        <ele>827.9</ele>
        <time>2022-08-04T14:53:43Z</time>
      </trkpt>
      <trkpt lat="45.50364" lon="1.87781">
        <ele>828</ele>
        <time>2022-08-04T14:53:45Z</time>
      </trkpt>
      <trkpt lat="45.50358" lon="1.87776">
        <ele>828</ele>
        <time>2022-08-04T14:53:47Z</time>
      </trkpt>
      <trkpt lat="45.50351" lon="1.87772">
        <ele>828.2</ele>
        <time>2022-08-04T14:53:49Z</time>
      </trkpt>
      <trkpt lat="45.50345" lon="1.87767">
        <ele>828.3</ele>
        <time>2022-08-04T14:53:51Z</time>
      </trkpt>
      <trkpt lat="45.50339" lon="1.87763">
        <ele>828.4</ele>
        <time>2022-08-04T14:53:53Z</time>
      </trkpt>
      <trkpt lat="45.50333" lon="1.87758">
        <ele>828.6</ele>
        <time>2022-08-04T14:53:55Z</time>
      </trkpt>
      <trkpt lat="45.50326" lon="1.87754">
        <ele>828.3</ele>
        <time>2022-08-04T14:53:57Z</time>
      </trkpt>
      <trkpt lat="45.5032" lon="1.87751">
        <ele>827.9</ele>
        <time>2022-08-04T14:53:59Z</time>
      </trkpt>
      <trkpt lat="45.50314" lon="1.87748">
        <ele>827.7</ele>
        <time>2022-08-04T14:54:01Z</time>
      </trkpt>
      <trkpt lat="45.50308" lon="1.87745">
        <ele>827.4</ele>
        <time>2022-08-04T14:54:03Z</time>
      </trkpt>
      <trkpt lat="45.50302" lon="1.87743">
        <ele>827.2</ele>
        <time>2022-08-04T14:54:05Z</time>
      </trkpt>
      <trkpt lat="45.50295" lon="1.87742">
        <ele>827</ele>
        <time>2022-08-04T14:54:07Z</time>
      </trkpt>
      <trkpt lat="45.50288" lon="1.87742">
        <ele>826.8</ele>
        <time>2022-08-04T14:54:09Z</time>
      </trkpt>
      <trkpt lat="45.50281" lon="1.87743">
        <ele>826.8</ele>
        <time>2022-08-04T14:54:11Z</time>
      </trkpt>
      <trkpt lat="45.50274" lon="1.87745">
        <ele>826.8</ele>
        <time>2022-08-04T14:54:13Z</time>
      </trkpt>
      <trkpt lat="45.50269" lon="1.87746">
        <ele>826.9</ele>
        <time>2022-08-04T14:54:15Z</time>
      </trkpt>
      <trkpt lat="45.50262" lon="1.87749">
        <ele>827.1</ele>
        <time>2022-08-04T14:54:17Z</time>
      </trkpt>
      <trkpt lat="45.50255" lon="1.87751">
        <ele>827.3</ele>
        <time>2022-08-04T14:54:19Z</time>
      </trkpt>
      <trkpt lat="45.50249" lon="1.87754">
        <ele>827.6</ele>
        <time>2022-08-04T14:54:21Z</time>
      </trkpt>
      <trkpt lat="45.50242" lon="1.87756">
        <ele>828.2</ele>
        <time>2022-08-04T14:54:23Z</time>
      </trkpt>
      <trkpt lat="45.50237" lon="1.87757">
        <ele>828.4</ele>
        <time>2022-08-04T14:54:25Z</time>
      </trkpt>
      <trkpt lat="45.5023" lon="1.8776">
        <ele>828.9</ele>
        <time>2022-08-04T14:54:27Z</time>
      </trkpt>
      <trkpt lat="45.50223" lon="1.8776">
        <ele>829.1</ele>
        <time>2022-08-04T14:54:29Z</time>
      </trkpt>
      <trkpt lat="45.50217" lon="1.8776">
        <ele>829.1</ele>
        <time>2022-08-04T14:54:31Z</time>
      </trkpt>
      <trkpt lat="45.5021" lon="1.87761">
        <ele>829.4</ele>
        <time>2022-08-04T14:54:33Z</time>
      </trkpt>
      <trkpt lat="45.50203" lon="1.87761">
        <ele>829.5</ele>
        <time>2022-08-04T14:54:35Z</time>
      </trkpt>
      <trkpt lat="45.50197" lon="1.87761">
        <ele>829.6</ele>
        <time>2022-08-04T14:54:37Z</time>
      </trkpt>
      <trkpt lat="45.5019" lon="1.87761">
        <ele>829.8</ele>
        <time>2022-08-04T14:54:39Z</time>
      </trkpt>
      <trkpt lat="45.50184" lon="1.87761">
        <ele>829.8</ele>
        <time>2022-08-04T14:54:41Z</time>
      </trkpt>
      <trkpt lat="45.50177" lon="1.87761">
        <ele>830</ele>
        <time>2022-08-04T14:54:43Z</time>
      </trkpt>
      <trkpt lat="45.50171" lon="1.87762">
        <ele>830.2</ele>
        <time>2022-08-04T14:54:45Z</time>
      </trkpt>
      <trkpt lat="45.50165" lon="1.87762">
        <ele>830.4</ele>
        <time>2022-08-04T14:54:47Z</time>
      </trkpt>
      <trkpt lat="45.50158" lon="1.87763">
        <ele>830.9</ele>
        <time>2022-08-04T14:54:49Z</time>
      </trkpt>
      <trkpt lat="45.50153" lon="1.87761">
        <ele>830.9</ele>
        <time>2022-08-04T14:54:51Z</time>
      </trkpt>
      <trkpt lat="45.50147" lon="1.87765">
        <ele>831.8</ele>
        <time>2022-08-04T14:54:53Z</time>
      </trkpt>
      <trkpt lat="45.50142" lon="1.87767">
        <ele>832.5</ele>
        <time>2022-08-04T14:54:55Z</time>
      </trkpt>
      <trkpt lat="45.50135" lon="1.87766">
        <ele>832.7</ele>
        <time>2022-08-04T14:54:57Z</time>
      </trkpt>
      <trkpt lat="45.50129" lon="1.87769">
        <ele>833.6</ele>
        <time>2022-08-04T14:54:59Z</time>
      </trkpt>
      <trkpt lat="45.50122" lon="1.8777">
        <ele>834.1</ele>
        <time>2022-08-04T14:55:01Z</time>
      </trkpt>
      <trkpt lat="45.50115" lon="1.87769">
        <ele>834.3</ele>
        <time>2022-08-04T14:55:03Z</time>
      </trkpt>
      <trkpt lat="45.50109" lon="1.87771">
        <ele>834.9</ele>
        <time>2022-08-04T14:55:05Z</time>
      </trkpt>
      <trkpt lat="45.50103" lon="1.87773">
        <ele>835.6</ele>
        <time>2022-08-04T14:55:07Z</time>
      </trkpt>
      <trkpt lat="45.50098" lon="1.87773">
        <ele>836</ele>
        <time>2022-08-04T14:55:09Z</time>
      </trkpt>
      <trkpt lat="45.50091" lon="1.87775">
        <ele>836.6</ele>
        <time>2022-08-04T14:55:11Z</time>
      </trkpt>
      <trkpt lat="45.50085" lon="1.87776">
        <ele>837.2</ele>
        <time>2022-08-04T14:55:13Z</time>
      </trkpt>
      <trkpt lat="45.5008" lon="1.87777">
        <ele>837.5</ele>
        <time>2022-08-04T14:55:15Z</time>
      </trkpt>
      <trkpt lat="45.50074" lon="1.8778">
        <ele>837.9</ele>
        <time>2022-08-04T14:55:17Z</time>
      </trkpt>
      <trkpt lat="45.50067" lon="1.8778">
        <ele>837.8</ele>
        <time>2022-08-04T14:55:19Z</time>
      </trkpt>
      <trkpt lat="45.50061" lon="1.87781">
        <ele>837.7</ele>
        <time>2022-08-04T14:55:21Z</time>
      </trkpt>
      <trkpt lat="45.50055" lon="1.87781">
        <ele>837.5</ele>
        <time>2022-08-04T14:55:23Z</time>
      </trkpt>
      <trkpt lat="45.50048" lon="1.8778">
        <ele>837.2</ele>
        <time>2022-08-04T14:55:25Z</time>
      </trkpt>
      <trkpt lat="45.50043" lon="1.87782">
        <ele>837.4</ele>
        <time>2022-08-04T14:55:27Z</time>
      </trkpt>
      <trkpt lat="45.50036" lon="1.87782">
        <ele>837.2</ele>
        <time>2022-08-04T14:55:29Z</time>
      </trkpt>
      <trkpt lat="45.5003" lon="1.87785">
        <ele>837.8</ele>
        <time>2022-08-04T14:55:31Z</time>
      </trkpt>
      <trkpt lat="45.50024" lon="1.87787">
        <ele>838.1</ele>
        <time>2022-08-04T14:55:33Z</time>
      </trkpt>
      <trkpt lat="45.50018" lon="1.87791">
        <ele>838.8</ele>
        <time>2022-08-04T14:55:35Z</time>
      </trkpt>
      <trkpt lat="45.50013" lon="1.87795">
        <ele>839.5</ele>
        <time>2022-08-04T14:55:37Z</time>
      </trkpt>
      <trkpt lat="45.50007" lon="1.87799">
        <ele>840.4</ele>
        <time>2022-08-04T14:55:39Z</time>
      </trkpt>
      <trkpt lat="45.50002" lon="1.87803">
        <ele>841.2</ele>
        <time>2022-08-04T14:55:41Z</time>
      </trkpt>
      <trkpt lat="45.49996" lon="1.87806">
        <ele>841.7</ele>
        <time>2022-08-04T14:55:43Z</time>
      </trkpt>
      <trkpt lat="45.49992" lon="1.87807">
        <ele>841.7</ele>
        <time>2022-08-04T14:55:45Z</time>
      </trkpt>
      <trkpt lat="45.49984" lon="1.87813">
        <ele>842.6</ele>
        <time>2022-08-04T14:55:47Z</time>
      </trkpt>
      <trkpt lat="45.4998" lon="1.87815">
        <ele>842.8</ele>
        <time>2022-08-04T14:55:49Z</time>
      </trkpt>
      <trkpt lat="45.49974" lon="1.87821">
        <ele>843.7</ele>
        <time>2022-08-04T14:55:51Z</time>
      </trkpt>
      <trkpt lat="45.49968" lon="1.87825">
        <ele>844.3</ele>
        <time>2022-08-04T14:55:53Z</time>
      </trkpt>
      <trkpt lat="45.49962" lon="1.87827">
        <ele>844.4</ele>
        <time>2022-08-04T14:55:55Z</time>
      </trkpt>
      <trkpt lat="45.49956" lon="1.8783">
        <ele>844.7</ele>
        <time>2022-08-04T14:55:57Z</time>
      </trkpt>
      <trkpt lat="45.4995" lon="1.87832">
        <ele>844.7</ele>
        <time>2022-08-04T14:55:59Z</time>
      </trkpt>
      <trkpt lat="45.49943" lon="1.87834">
        <ele>844.7</ele>
        <time>2022-08-04T14:56:01Z</time>
      </trkpt>
      <trkpt lat="45.49937" lon="1.87834">
        <ele>844.5</ele>
        <time>2022-08-04T14:56:03Z</time>
      </trkpt>
      <trkpt lat="45.49928" lon="1.87834">
        <ele>843.8</ele>
        <time>2022-08-04T14:56:05Z</time>
      </trkpt>
      <trkpt lat="45.4992" lon="1.87836">
        <ele>843.7</ele>
        <time>2022-08-04T14:56:07Z</time>
      </trkpt>
      <trkpt lat="45.49913" lon="1.87835">
        <ele>843.4</ele>
        <time>2022-08-04T14:56:09Z</time>
      </trkpt>
      <trkpt lat="45.49904" lon="1.87834">
        <ele>843.5</ele>
        <time>2022-08-04T14:56:11Z</time>
      </trkpt>
      <trkpt lat="45.49898" lon="1.87831">
        <ele>843</ele>
        <time>2022-08-04T14:56:13Z</time>
      </trkpt>
      <trkpt lat="45.4989" lon="1.87828">
        <ele>842.8</ele>
        <time>2022-08-04T14:56:15Z</time>
      </trkpt>
      <trkpt lat="45.4988" lon="1.87826">
        <ele>842.8</ele>
        <time>2022-08-04T14:56:17Z</time>
      </trkpt>
      <trkpt lat="45.49872" lon="1.87824">
        <ele>842.8</ele>
        <time>2022-08-04T14:56:19Z</time>
      </trkpt>
      <trkpt lat="45.49864" lon="1.87822">
        <ele>842.9</ele>
        <time>2022-08-04T14:56:21Z</time>
      </trkpt>
      <trkpt lat="45.49856" lon="1.87818">
        <ele>842.8</ele>
        <time>2022-08-04T14:56:23Z</time>
      </trkpt>
      <trkpt lat="45.49848" lon="1.87816">
        <ele>842.8</ele>
        <time>2022-08-04T14:56:25Z</time>
      </trkpt>
      <trkpt lat="45.4984" lon="1.87813">
        <ele>843</ele>
        <time>2022-08-04T14:56:27Z</time>
      </trkpt>
      <trkpt lat="45.49832" lon="1.8781">
        <ele>842.9</ele>
        <time>2022-08-04T14:56:29Z</time>
      </trkpt>
      <trkpt lat="45.49824" lon="1.87808">
        <ele>841.9</ele>
        <time>2022-08-04T14:56:31Z</time>
      </trkpt>
      <trkpt lat="45.49816" lon="1.87804">
        <ele>840.8</ele>
        <time>2022-08-04T14:56:33Z</time>
      </trkpt>
      <trkpt lat="45.49808" lon="1.878">
        <ele>839.8</ele>
        <time>2022-08-04T14:56:35Z</time>
      </trkpt>
      <trkpt lat="45.498" lon="1.87797">
        <ele>838.9</ele>
        <time>2022-08-04T14:56:37Z</time>
      </trkpt>
      <trkpt lat="45.49792" lon="1.87794">
        <ele>838.1</ele>
        <time>2022-08-04T14:56:39Z</time>
      </trkpt>
      <trkpt lat="45.49783" lon="1.8779">
        <ele>837.3</ele>
        <time>2022-08-04T14:56:41Z</time>
      </trkpt>
      <trkpt lat="45.49775" lon="1.87786">
        <ele>836.5</ele>
        <time>2022-08-04T14:56:43Z</time>
      </trkpt>
      <trkpt lat="45.49767" lon="1.87783">
        <ele>835.9</ele>
        <time>2022-08-04T14:56:45Z</time>
      </trkpt>
      <trkpt lat="45.4976" lon="1.8778">
        <ele>835.3</ele>
        <time>2022-08-04T14:56:47Z</time>
      </trkpt>
      <trkpt lat="45.49752" lon="1.87779">
        <ele>834.8</ele>
        <time>2022-08-04T14:56:49Z</time>
      </trkpt>
      <trkpt lat="45.49744" lon="1.87778">
        <ele>834.6</ele>
        <time>2022-08-04T14:56:51Z</time>
      </trkpt>
      <trkpt lat="45.49736" lon="1.87778">
        <ele>834.4</ele>
        <time>2022-08-04T14:56:53Z</time>
      </trkpt>
      <trkpt lat="45.49729" lon="1.87779">
        <ele>834.2</ele>
        <time>2022-08-04T14:56:55Z</time>
      </trkpt>
      <trkpt lat="45.4972" lon="1.8778">
        <ele>834</ele>
        <time>2022-08-04T14:56:57Z</time>
      </trkpt>
      <trkpt lat="45.49712" lon="1.87781">
        <ele>833.8</ele>
        <time>2022-08-04T14:56:59Z</time>
      </trkpt>
      <trkpt lat="45.49704" lon="1.87782">
        <ele>833.5</ele>
        <time>2022-08-04T14:57:01Z</time>
      </trkpt>
      <trkpt lat="45.49695" lon="1.87784">
        <ele>833.3</ele>
        <time>2022-08-04T14:57:03Z</time>
      </trkpt>
      <trkpt lat="45.49686" lon="1.87783">
        <ele>833.1</ele>
        <time>2022-08-04T14:57:05Z</time>
      </trkpt>
      <trkpt lat="45.49678" lon="1.87782">
        <ele>833</ele>
        <time>2022-08-04T14:57:07Z</time>
      </trkpt>
      <trkpt lat="45.49668" lon="1.87781">
        <ele>832.8</ele>
        <time>2022-08-04T14:57:09Z</time>
      </trkpt>
      <trkpt lat="45.49659" lon="1.87778">
        <ele>833.1</ele>
        <time>2022-08-04T14:57:11Z</time>
      </trkpt>
      <trkpt lat="45.4965" lon="1.87777">
        <ele>833.3</ele>
        <time>2022-08-04T14:57:13Z</time>
      </trkpt>
      <trkpt lat="45.49641" lon="1.87776">
        <ele>833.4</ele>
        <time>2022-08-04T14:57:15Z</time>
      </trkpt>
      <trkpt lat="45.49632" lon="1.87778">
        <ele>833.4</ele>
        <time>2022-08-04T14:57:17Z</time>
      </trkpt>
      <trkpt lat="45.49623" lon="1.87778">
        <ele>833.5</ele>
        <time>2022-08-04T14:57:19Z</time>
      </trkpt>
      <trkpt lat="45.49614" lon="1.87781">
        <ele>833.4</ele>
        <time>2022-08-04T14:57:21Z</time>
      </trkpt>
      <trkpt lat="45.49604" lon="1.87783">
        <ele>833.3</ele>
        <time>2022-08-04T14:57:23Z</time>
      </trkpt>
      <trkpt lat="45.49596" lon="1.87784">
        <ele>833.2</ele>
        <time>2022-08-04T14:57:25Z</time>
      </trkpt>
      <trkpt lat="45.49587" lon="1.87786">
        <ele>833.1</ele>
        <time>2022-08-04T14:57:27Z</time>
      </trkpt>
      <trkpt lat="45.49578" lon="1.87787">
        <ele>832.7</ele>
        <time>2022-08-04T14:57:29Z</time>
      </trkpt>
      <trkpt lat="45.4957" lon="1.87789">
        <ele>832</ele>
        <time>2022-08-04T14:57:31Z</time>
      </trkpt>
      <trkpt lat="45.49561" lon="1.87789">
        <ele>831.5</ele>
        <time>2022-08-04T14:57:33Z</time>
      </trkpt>
      <trkpt lat="45.49552" lon="1.87787">
        <ele>831.1</ele>
        <time>2022-08-04T14:57:35Z</time>
      </trkpt>
      <trkpt lat="45.49544" lon="1.87781">
        <ele>831.2</ele>
        <time>2022-08-04T14:57:37Z</time>
      </trkpt>
      <trkpt lat="45.49537" lon="1.87772">
        <ele>831.5</ele>
        <time>2022-08-04T14:57:39Z</time>
      </trkpt>
      <trkpt lat="45.49531" lon="1.87762">
        <ele>832.1</ele>
        <time>2022-08-04T14:57:41Z</time>
      </trkpt>
      <trkpt lat="45.49525" lon="1.87751">
        <ele>832.7</ele>
        <time>2022-08-04T14:57:43Z</time>
      </trkpt>
      <trkpt lat="45.4952" lon="1.87739">
        <ele>833</ele>
        <time>2022-08-04T14:57:45Z</time>
      </trkpt>
      <trkpt lat="45.49514" lon="1.87728">
        <ele>833.3</ele>
        <time>2022-08-04T14:57:47Z</time>
      </trkpt>
      <trkpt lat="45.49508" lon="1.87716">
        <ele>833.8</ele>
        <time>2022-08-04T14:57:49Z</time>
      </trkpt>
      <trkpt lat="45.49501" lon="1.87703">
        <ele>834.4</ele>
        <time>2022-08-04T14:57:51Z</time>
      </trkpt>
      <trkpt lat="45.49496" lon="1.87691">
        <ele>835.4</ele>
        <time>2022-08-04T14:57:53Z</time>
      </trkpt>
      <trkpt lat="45.49489" lon="1.87678">
        <ele>836.3</ele>
        <time>2022-08-04T14:57:55Z</time>
      </trkpt>
      <trkpt lat="45.49482" lon="1.87665">
        <ele>837.2</ele>
        <time>2022-08-04T14:57:57Z</time>
      </trkpt>
      <trkpt lat="45.49475" lon="1.87652">
        <ele>837.1</ele>
        <time>2022-08-04T14:57:59Z</time>
      </trkpt>
      <trkpt lat="45.49468" lon="1.87639">
        <ele>836.9</ele>
        <time>2022-08-04T14:58:01Z</time>
      </trkpt>
      <trkpt lat="45.4946" lon="1.87626">
        <ele>836.5</ele>
        <time>2022-08-04T14:58:03Z</time>
      </trkpt>
      <trkpt lat="45.49451" lon="1.87615">
        <ele>836.1</ele>
        <time>2022-08-04T14:58:05Z</time>
      </trkpt>
      <trkpt lat="45.49443" lon="1.87604">
        <ele>835.6</ele>
        <time>2022-08-04T14:58:07Z</time>
      </trkpt>
      <trkpt lat="45.49433" lon="1.87593">
        <ele>835</ele>
        <time>2022-08-04T14:58:09Z</time>
      </trkpt>
      <trkpt lat="45.49424" lon="1.8758">
        <ele>833.9</ele>
        <time>2022-08-04T14:58:11Z</time>
      </trkpt>
      <trkpt lat="45.49415" lon="1.87568">
        <ele>832</ele>
        <time>2022-08-04T14:58:13Z</time>
      </trkpt>
      <trkpt lat="45.49405" lon="1.87557">
        <ele>830.6</ele>
        <time>2022-08-04T14:58:15Z</time>
      </trkpt>
      <trkpt lat="45.49396" lon="1.87544">
        <ele>829.2</ele>
        <time>2022-08-04T14:58:17Z</time>
      </trkpt>
      <trkpt lat="45.49387" lon="1.87532">
        <ele>827.9</ele>
        <time>2022-08-04T14:58:19Z</time>
      </trkpt>
      <trkpt lat="45.49379" lon="1.87519">
        <ele>826.5</ele>
        <time>2022-08-04T14:58:21Z</time>
      </trkpt>
      <trkpt lat="45.49369" lon="1.87508">
        <ele>825.6</ele>
        <time>2022-08-04T14:58:23Z</time>
      </trkpt>
      <trkpt lat="45.49359" lon="1.87498">
        <ele>824.9</ele>
        <time>2022-08-04T14:58:25Z</time>
      </trkpt>
      <trkpt lat="45.49347" lon="1.87493">
        <ele>824.9</ele>
        <time>2022-08-04T14:58:27Z</time>
      </trkpt>
      <trkpt lat="45.49335" lon="1.87492">
        <ele>825.2</ele>
        <time>2022-08-04T14:58:29Z</time>
      </trkpt>
      <trkpt lat="45.49323" lon="1.87494">
        <ele>825.5</ele>
        <time>2022-08-04T14:58:31Z</time>
      </trkpt>
      <trkpt lat="45.49311" lon="1.87496">
        <ele>825.7</ele>
        <time>2022-08-04T14:58:33Z</time>
      </trkpt>
      <trkpt lat="45.49299" lon="1.87499">
        <ele>825.9</ele>
        <time>2022-08-04T14:58:35Z</time>
      </trkpt>
      <trkpt lat="45.49287" lon="1.87503">
        <ele>826.3</ele>
        <time>2022-08-04T14:58:37Z</time>
      </trkpt>
      <trkpt lat="45.49276" lon="1.87507">
        <ele>826.6</ele>
        <time>2022-08-04T14:58:39Z</time>
      </trkpt>
      <trkpt lat="45.49267" lon="1.8751">
        <ele>826.8</ele>
        <time>2022-08-04T14:58:41Z</time>
      </trkpt>
      <trkpt lat="45.49259" lon="1.87501">
        <ele>826.1</ele>
        <time>2022-08-04T14:58:43Z</time>
      </trkpt>
      <trkpt lat="45.49255" lon="1.87484">
        <ele>825.4</ele>
        <time>2022-08-04T14:58:45Z</time>
      </trkpt>
      <trkpt lat="45.49251" lon="1.87466">
        <ele>824.8</ele>
        <time>2022-08-04T14:58:47Z</time>
      </trkpt>
      <trkpt lat="45.49246" lon="1.8745">
        <ele>824.2</ele>
        <time>2022-08-04T14:58:49Z</time>
      </trkpt>
      <trkpt lat="45.49242" lon="1.87434">
        <ele>823.9</ele>
        <time>2022-08-04T14:58:51Z</time>
      </trkpt>
      <trkpt lat="45.49237" lon="1.8742">
        <ele>823.8</ele>
        <time>2022-08-04T14:58:53Z</time>
      </trkpt>
      <trkpt lat="45.49234" lon="1.87407">
        <ele>824.3</ele>
        <time>2022-08-04T14:58:55Z</time>
      </trkpt>
      <trkpt lat="45.49231" lon="1.87394">
        <ele>824.9</ele>
        <time>2022-08-04T14:58:57Z</time>
      </trkpt>
      <trkpt lat="45.49228" lon="1.87382">
        <ele>825.5</ele>
        <time>2022-08-04T14:58:59Z</time>
      </trkpt>
      <trkpt lat="45.49225" lon="1.87371">
        <ele>826</ele>
        <time>2022-08-04T14:59:01Z</time>
      </trkpt>
      <trkpt lat="45.49222" lon="1.8736">
        <ele>826.5</ele>
        <time>2022-08-04T14:59:03Z</time>
      </trkpt>
      <trkpt lat="45.4922" lon="1.8735">
        <ele>826.9</ele>
        <time>2022-08-04T14:59:05Z</time>
      </trkpt>
      <trkpt lat="45.49217" lon="1.8734">
        <ele>827.4</ele>
        <time>2022-08-04T14:59:07Z</time>
      </trkpt>
      <trkpt lat="45.49215" lon="1.8733">
        <ele>828</ele>
        <time>2022-08-04T14:59:09Z</time>
      </trkpt>
      <trkpt lat="45.49213" lon="1.87319">
        <ele>829.2</ele>
        <time>2022-08-04T14:59:11Z</time>
      </trkpt>
      <trkpt lat="45.49212" lon="1.87309">
        <ele>830.2</ele>
        <time>2022-08-04T14:59:13Z</time>
      </trkpt>
      <trkpt lat="45.4921" lon="1.87299">
        <ele>831.2</ele>
        <time>2022-08-04T14:59:15Z</time>
      </trkpt>
      <trkpt lat="45.4921" lon="1.87289">
        <ele>832.2</ele>
        <time>2022-08-04T14:59:17Z</time>
      </trkpt>
      <trkpt lat="45.49209" lon="1.8728">
        <ele>833.1</ele>
        <time>2022-08-04T14:59:19Z</time>
      </trkpt>
      <trkpt lat="45.49209" lon="1.87272">
        <ele>833.9</ele>
        <time>2022-08-04T14:59:21Z</time>
      </trkpt>
      <trkpt lat="45.49208" lon="1.87264">
        <ele>834.7</ele>
        <time>2022-08-04T14:59:23Z</time>
      </trkpt>
      <trkpt lat="45.49208" lon="1.87258">
        <ele>835.3</ele>
        <time>2022-08-04T14:59:25Z</time>
      </trkpt>
      <trkpt lat="45.49208" lon="1.87251">
        <ele>835.9</ele>
        <time>2022-08-04T14:59:27Z</time>
      </trkpt>
      <trkpt lat="45.49207" lon="1.87244">
        <ele>836.3</ele>
        <time>2022-08-04T14:59:29Z</time>
      </trkpt>
      <trkpt lat="45.49207" lon="1.87238">
        <ele>836.5</ele>
        <time>2022-08-04T14:59:31Z</time>
      </trkpt>
      <trkpt lat="45.49206" lon="1.87232">
        <ele>836.8</ele>
        <time>2022-08-04T14:59:33Z</time>
      </trkpt>
      <trkpt lat="45.49206" lon="1.87226">
        <ele>837</ele>
        <time>2022-08-04T14:59:35Z</time>
      </trkpt>
      <trkpt lat="45.49205" lon="1.87221">
        <ele>837.3</ele>
        <time>2022-08-04T14:59:37Z</time>
      </trkpt>
      <trkpt lat="45.49204" lon="1.87215">
        <ele>837.5</ele>
        <time>2022-08-04T14:59:39Z</time>
      </trkpt>
      <trkpt lat="45.49203" lon="1.87209">
        <ele>837.8</ele>
        <time>2022-08-04T14:59:41Z</time>
      </trkpt>
      <trkpt lat="45.49201" lon="1.87204">
        <ele>838.1</ele>
        <time>2022-08-04T14:59:43Z</time>
      </trkpt>
      <trkpt lat="45.492" lon="1.87199">
        <ele>838.4</ele>
        <time>2022-08-04T14:59:45Z</time>
      </trkpt>
      <trkpt lat="45.49198" lon="1.87194">
        <ele>838.7</ele>
        <time>2022-08-04T14:59:47Z</time>
      </trkpt>
      <trkpt lat="45.49195" lon="1.87189">
        <ele>839</ele>
        <time>2022-08-04T14:59:49Z</time>
      </trkpt>
      <trkpt lat="45.49193" lon="1.87184">
        <ele>839.4</ele>
        <time>2022-08-04T14:59:51Z</time>
      </trkpt>
      <trkpt lat="45.4919" lon="1.87179">
        <ele>839.8</ele>
        <time>2022-08-04T14:59:53Z</time>
      </trkpt>
      <trkpt lat="45.49186" lon="1.87174">
        <ele>840.3</ele>
        <time>2022-08-04T14:59:55Z</time>
      </trkpt>
      <trkpt lat="45.49182" lon="1.8717">
        <ele>840.7</ele>
        <time>2022-08-04T14:59:57Z</time>
      </trkpt>
      <trkpt lat="45.49179" lon="1.87165">
        <ele>841.2</ele>
        <time>2022-08-04T14:59:59Z</time>
      </trkpt>
      <trkpt lat="45.49175" lon="1.87161">
        <ele>841.5</ele>
        <time>2022-08-04T15:00:01Z</time>
      </trkpt>
      <trkpt lat="45.49172" lon="1.87157">
        <ele>841.9</ele>
        <time>2022-08-04T15:00:03Z</time>
      </trkpt>
      <trkpt lat="45.49168" lon="1.87152">
        <ele>842.2</ele>
        <time>2022-08-04T15:00:05Z</time>
      </trkpt>
      <trkpt lat="45.49165" lon="1.87148">
        <ele>842.5</ele>
        <time>2022-08-04T15:00:07Z</time>
      </trkpt>
      <trkpt lat="45.49161" lon="1.87144">
        <ele>842.7</ele>
        <time>2022-08-04T15:00:09Z</time>
      </trkpt>
      <trkpt lat="45.49157" lon="1.8714">
        <ele>842.9</ele>
        <time>2022-08-04T15:00:11Z</time>
      </trkpt>
      <trkpt lat="45.49153" lon="1.87137">
        <ele>843.2</ele>
        <time>2022-08-04T15:00:13Z</time>
      </trkpt>
      <trkpt lat="45.49149" lon="1.87133">
        <ele>843.4</ele>
        <time>2022-08-04T15:00:15Z</time>
      </trkpt>
      <trkpt lat="45.49146" lon="1.87129">
        <ele>843.6</ele>
        <time>2022-08-04T15:00:17Z</time>
      </trkpt>
      <trkpt lat="45.49142" lon="1.87125">
        <ele>843.9</ele>
        <time>2022-08-04T15:00:19Z</time>
      </trkpt>
      <trkpt lat="45.49138" lon="1.8712">
        <ele>844.2</ele>
        <time>2022-08-04T15:00:21Z</time>
      </trkpt>
      <trkpt lat="45.49134" lon="1.87116">
        <ele>844.5</ele>
        <time>2022-08-04T15:00:23Z</time>
      </trkpt>
      <trkpt lat="45.49129" lon="1.87111">
        <ele>844.8</ele>
        <time>2022-08-04T15:00:25Z</time>
      </trkpt>
      <trkpt lat="45.49124" lon="1.87107">
        <ele>845.2</ele>
        <time>2022-08-04T15:00:27Z</time>
      </trkpt>
      <trkpt lat="45.4912" lon="1.87102">
        <ele>845.5</ele>
        <time>2022-08-04T15:00:29Z</time>
      </trkpt>
      <trkpt lat="45.49116" lon="1.87098">
        <ele>845.9</ele>
        <time>2022-08-04T15:00:31Z</time>
      </trkpt>
      <trkpt lat="45.49111" lon="1.87093">
        <ele>846.3</ele>
        <time>2022-08-04T15:00:33Z</time>
      </trkpt>
      <trkpt lat="45.49107" lon="1.87088">
        <ele>846.7</ele>
        <time>2022-08-04T15:00:35Z</time>
      </trkpt>
      <trkpt lat="45.49103" lon="1.87083">
        <ele>847.1</ele>
        <time>2022-08-04T15:00:37Z</time>
      </trkpt>
      <trkpt lat="45.49099" lon="1.87079">
        <ele>847.4</ele>
        <time>2022-08-04T15:00:39Z</time>
      </trkpt>
      <trkpt lat="45.49095" lon="1.87073">
        <ele>847.7</ele>
        <time>2022-08-04T15:00:41Z</time>
      </trkpt>
      <trkpt lat="45.49092" lon="1.87067">
        <ele>848</ele>
        <time>2022-08-04T15:00:43Z</time>
      </trkpt>
      <trkpt lat="45.49089" lon="1.8706">
        <ele>848.2</ele>
        <time>2022-08-04T15:00:45Z</time>
      </trkpt>
      <trkpt lat="45.49087" lon="1.87053">
        <ele>848.5</ele>
        <time>2022-08-04T15:00:47Z</time>
      </trkpt>
      <trkpt lat="45.49086" lon="1.87045">
        <ele>848.8</ele>
        <time>2022-08-04T15:00:49Z</time>
      </trkpt>
      <trkpt lat="45.49086" lon="1.87038">
        <ele>848.9</ele>
        <time>2022-08-04T15:00:51Z</time>
      </trkpt>
      <trkpt lat="45.49087" lon="1.8703">
        <ele>849</ele>
        <time>2022-08-04T15:00:53Z</time>
      </trkpt>
      <trkpt lat="45.49089" lon="1.87023">
        <ele>849.1</ele>
        <time>2022-08-04T15:00:55Z</time>
      </trkpt>
      <trkpt lat="45.49091" lon="1.87016">
        <ele>849.2</ele>
        <time>2022-08-04T15:00:57Z</time>
      </trkpt>
      <trkpt lat="45.49093" lon="1.8701">
        <ele>849.2</ele>
        <time>2022-08-04T15:00:59Z</time>
      </trkpt>
      <trkpt lat="45.49097" lon="1.87004">
        <ele>849.1</ele>
        <time>2022-08-04T15:01:01Z</time>
      </trkpt>
      <trkpt lat="45.49099" lon="1.86998">
        <ele>849.1</ele>
        <time>2022-08-04T15:01:03Z</time>
      </trkpt>
      <trkpt lat="45.49102" lon="1.86993">
        <ele>849</ele>
        <time>2022-08-04T15:01:05Z</time>
      </trkpt>
      <trkpt lat="45.49104" lon="1.86987">
        <ele>849</ele>
        <time>2022-08-04T15:01:07Z</time>
      </trkpt>
      <trkpt lat="45.49106" lon="1.86982">
        <ele>849</ele>
        <time>2022-08-04T15:01:09Z</time>
      </trkpt>
      <trkpt lat="45.49108" lon="1.86977">
        <ele>849</ele>
        <time>2022-08-04T15:01:11Z</time>
      </trkpt>
      <trkpt lat="45.4911" lon="1.86972">
        <ele>849</ele>
        <time>2022-08-04T15:01:13Z</time>
      </trkpt>
      <trkpt lat="45.49111" lon="1.86967">
        <ele>849</ele>
        <time>2022-08-04T15:01:15Z</time>
      </trkpt>
      <trkpt lat="45.49112" lon="1.86961">
        <ele>849</ele>
        <time>2022-08-04T15:01:17Z</time>
      </trkpt>
      <trkpt lat="45.49114" lon="1.86955">
        <ele>849</ele>
        <time>2022-08-04T15:01:19Z</time>
      </trkpt>
      <trkpt lat="45.49115" lon="1.8695">
        <ele>849</ele>
        <time>2022-08-04T15:01:21Z</time>
      </trkpt>
      <trkpt lat="45.49116" lon="1.86945">
        <ele>849.1</ele>
        <time>2022-08-04T15:01:23Z</time>
      </trkpt>
      <trkpt lat="45.49116" lon="1.86939">
        <ele>849.2</ele>
        <time>2022-08-04T15:01:25Z</time>
      </trkpt>
      <trkpt lat="45.49117" lon="1.86934">
        <ele>849.2</ele>
        <time>2022-08-04T15:01:27Z</time>
      </trkpt>
      <trkpt lat="45.49117" lon="1.86929">
        <ele>849.3</ele>
        <time>2022-08-04T15:01:29Z</time>
      </trkpt>
      <trkpt lat="45.49117" lon="1.86924">
        <ele>849.5</ele>
        <time>2022-08-04T15:01:31Z</time>
      </trkpt>
      <trkpt lat="45.49116" lon="1.86918">
        <ele>849.6</ele>
        <time>2022-08-04T15:01:33Z</time>
      </trkpt>
      <trkpt lat="45.49116" lon="1.86911">
        <ele>849.5</ele>
        <time>2022-08-04T15:01:35Z</time>
      </trkpt>
      <trkpt lat="45.49116" lon="1.86905">
        <ele>849.3</ele>
        <time>2022-08-04T15:01:37Z</time>
      </trkpt>
      <trkpt lat="45.49114" lon="1.86899">
        <ele>849.2</ele>
        <time>2022-08-04T15:01:39Z</time>
      </trkpt>
      <trkpt lat="45.49112" lon="1.86892">
        <ele>849.1</ele>
        <time>2022-08-04T15:01:41Z</time>
      </trkpt>
      <trkpt lat="45.4911" lon="1.86885">
        <ele>849.1</ele>
        <time>2022-08-04T15:01:43Z</time>
      </trkpt>
      <trkpt lat="45.49108" lon="1.86876">
        <ele>849</ele>
        <time>2022-08-04T15:01:45Z</time>
      </trkpt>
      <trkpt lat="45.49106" lon="1.86867">
        <ele>848.9</ele>
        <time>2022-08-04T15:01:47Z</time>
      </trkpt>
      <trkpt lat="45.49103" lon="1.86858">
        <ele>848.9</ele>
        <time>2022-08-04T15:01:49Z</time>
      </trkpt>
      <trkpt lat="45.49099" lon="1.86849">
        <ele>849</ele>
        <time>2022-08-04T15:01:51Z</time>
      </trkpt>
      <trkpt lat="45.49094" lon="1.8684">
        <ele>849.2</ele>
        <time>2022-08-04T15:01:53Z</time>
      </trkpt>
      <trkpt lat="45.49088" lon="1.86831">
        <ele>849.3</ele>
        <time>2022-08-04T15:01:55Z</time>
      </trkpt>
      <trkpt lat="45.49081" lon="1.86823">
        <ele>848.7</ele>
        <time>2022-08-04T15:01:57Z</time>
      </trkpt>
      <trkpt lat="45.49072" lon="1.86814">
        <ele>847.9</ele>
        <time>2022-08-04T15:01:59Z</time>
      </trkpt>
      <trkpt lat="45.49063" lon="1.86805">
        <ele>847.2</ele>
        <time>2022-08-04T15:02:01Z</time>
      </trkpt>
      <trkpt lat="45.49053" lon="1.86796">
        <ele>846.5</ele>
        <time>2022-08-04T15:02:03Z</time>
      </trkpt>
      <trkpt lat="45.49042" lon="1.86786">
        <ele>845.8</ele>
        <time>2022-08-04T15:02:05Z</time>
      </trkpt>
      <trkpt lat="45.49031" lon="1.86775">
        <ele>845.1</ele>
        <time>2022-08-04T15:02:07Z</time>
      </trkpt>
      <trkpt lat="45.4902" lon="1.86763">
        <ele>844.3</ele>
        <time>2022-08-04T15:02:09Z</time>
      </trkpt>
      <trkpt lat="45.49011" lon="1.86747">
        <ele>843</ele>
        <time>2022-08-04T15:02:11Z</time>
      </trkpt>
      <trkpt lat="45.49004" lon="1.86728">
        <ele>841.6</ele>
        <time>2022-08-04T15:02:13Z</time>
      </trkpt>
      <trkpt lat="45.49" lon="1.86707">
        <ele>839.8</ele>
        <time>2022-08-04T15:02:15Z</time>
      </trkpt>
      <trkpt lat="45.48996" lon="1.86685">
        <ele>837.7</ele>
        <time>2022-08-04T15:02:17Z</time>
      </trkpt>
      <trkpt lat="45.4899" lon="1.86666">
        <ele>835.6</ele>
        <time>2022-08-04T15:02:19Z</time>
      </trkpt>
      <trkpt lat="45.48978" lon="1.86653">
        <ele>834.3</ele>
        <time>2022-08-04T15:02:21Z</time>
      </trkpt>
      <trkpt lat="45.48963" lon="1.86645">
        <ele>833.1</ele>
        <time>2022-08-04T15:02:23Z</time>
      </trkpt>
      <trkpt lat="45.48946" lon="1.86647">
        <ele>832.5</ele>
        <time>2022-08-04T15:02:25Z</time>
      </trkpt>
      <trkpt lat="45.48927" lon="1.86651">
        <ele>832.1</ele>
        <time>2022-08-04T15:02:27Z</time>
      </trkpt>
      <trkpt lat="45.48909" lon="1.86645">
        <ele>830.5</ele>
        <time>2022-08-04T15:02:29Z</time>
      </trkpt>
      <trkpt lat="45.48892" lon="1.86635">
        <ele>828.4</ele>
        <time>2022-08-04T15:02:31Z</time>
      </trkpt>
      <trkpt lat="45.48875" lon="1.86624">
        <ele>826.2</ele>
        <time>2022-08-04T15:02:33Z</time>
      </trkpt>
      <trkpt lat="45.48857" lon="1.86613">
        <ele>824</ele>
        <time>2022-08-04T15:02:35Z</time>
      </trkpt>
      <trkpt lat="45.48838" lon="1.86605">
        <ele>821.9</ele>
        <time>2022-08-04T15:02:37Z</time>
      </trkpt>
      <trkpt lat="45.48819" lon="1.86594">
        <ele>819.7</ele>
        <time>2022-08-04T15:02:39Z</time>
      </trkpt>
      <trkpt lat="45.488" lon="1.86582">
        <ele>817.9</ele>
        <time>2022-08-04T15:02:41Z</time>
      </trkpt>
      <trkpt lat="45.48781" lon="1.86569">
        <ele>816.1</ele>
        <time>2022-08-04T15:02:43Z</time>
      </trkpt>
      <trkpt lat="45.48761" lon="1.86558">
        <ele>814.8</ele>
        <time>2022-08-04T15:02:45Z</time>
      </trkpt>
      <trkpt lat="45.48743" lon="1.86546">
        <ele>814.4</ele>
        <time>2022-08-04T15:02:47Z</time>
      </trkpt>
      <trkpt lat="45.48726" lon="1.86532">
        <ele>815</ele>
        <time>2022-08-04T15:02:49Z</time>
      </trkpt>
      <trkpt lat="45.48711" lon="1.86517">
        <ele>815.5</ele>
        <time>2022-08-04T15:02:51Z</time>
      </trkpt>
      <trkpt lat="45.48698" lon="1.86503">
        <ele>816.1</ele>
        <time>2022-08-04T15:02:53Z</time>
      </trkpt>
      <trkpt lat="45.48685" lon="1.86488">
        <ele>815.8</ele>
        <time>2022-08-04T15:02:55Z</time>
      </trkpt>
      <trkpt lat="45.48672" lon="1.86476">
        <ele>815.3</ele>
        <time>2022-08-04T15:02:57Z</time>
      </trkpt>
      <trkpt lat="45.48658" lon="1.86467">
        <ele>814.4</ele>
        <time>2022-08-04T15:02:59Z</time>
      </trkpt>
      <trkpt lat="45.48643" lon="1.86465">
        <ele>813.2</ele>
        <time>2022-08-04T15:03:01Z</time>
      </trkpt>
      <trkpt lat="45.48628" lon="1.8647">
        <ele>812.9</ele>
        <time>2022-08-04T15:03:03Z</time>
      </trkpt>
      <trkpt lat="45.48613" lon="1.86475">
        <ele>812.6</ele>
        <time>2022-08-04T15:03:05Z</time>
      </trkpt>
      <trkpt lat="45.48598" lon="1.86478">
        <ele>812.2</ele>
        <time>2022-08-04T15:03:07Z</time>
      </trkpt>
      <trkpt lat="45.48582" lon="1.86482">
        <ele>811.5</ele>
        <time>2022-08-04T15:03:09Z</time>
      </trkpt>
      <trkpt lat="45.48565" lon="1.86486">
        <ele>809.2</ele>
        <time>2022-08-04T15:03:11Z</time>
      </trkpt>
      <trkpt lat="45.48552" lon="1.86495">
        <ele>807.7</ele>
        <time>2022-08-04T15:03:13Z</time>
      </trkpt>
      <trkpt lat="45.48543" lon="1.86507">
        <ele>806.5</ele>
        <time>2022-08-04T15:03:15Z</time>
      </trkpt>
      <trkpt lat="45.48536" lon="1.86522">
        <ele>804.9</ele>
        <time>2022-08-04T15:03:17Z</time>
      </trkpt>
      <trkpt lat="45.48526" lon="1.86539">
        <ele>803</ele>
        <time>2022-08-04T15:03:19Z</time>
      </trkpt>
      <trkpt lat="45.48516" lon="1.86555">
        <ele>801.3</ele>
        <time>2022-08-04T15:03:21Z</time>
      </trkpt>
      <trkpt lat="45.48506" lon="1.86574">
        <ele>799.8</ele>
        <time>2022-08-04T15:03:23Z</time>
      </trkpt>
      <trkpt lat="45.48494" lon="1.86592">
        <ele>798</ele>
        <time>2022-08-04T15:03:25Z</time>
      </trkpt>
      <trkpt lat="45.48478" lon="1.86604">
        <ele>796.6</ele>
        <time>2022-08-04T15:03:27Z</time>
      </trkpt>
      <trkpt lat="45.4846" lon="1.86613">
        <ele>795.8</ele>
        <time>2022-08-04T15:03:29Z</time>
      </trkpt>
      <trkpt lat="45.48443" lon="1.86619">
        <ele>795.3</ele>
        <time>2022-08-04T15:03:31Z</time>
      </trkpt>
      <trkpt lat="45.48427" lon="1.86626">
        <ele>795.1</ele>
        <time>2022-08-04T15:03:33Z</time>
      </trkpt>
      <trkpt lat="45.48413" lon="1.86631">
        <ele>795.1</ele>
        <time>2022-08-04T15:03:35Z</time>
      </trkpt>
      <trkpt lat="45.48397" lon="1.86634">
        <ele>795.8</ele>
        <time>2022-08-04T15:03:37Z</time>
      </trkpt>
      <trkpt lat="45.48381" lon="1.86631">
        <ele>796.4</ele>
        <time>2022-08-04T15:03:39Z</time>
      </trkpt>
      <trkpt lat="45.48367" lon="1.86627">
        <ele>797</ele>
        <time>2022-08-04T15:03:41Z</time>
      </trkpt>
      <trkpt lat="45.48354" lon="1.86624">
        <ele>797.7</ele>
        <time>2022-08-04T15:03:43Z</time>
      </trkpt>
      <trkpt lat="45.48342" lon="1.86623">
        <ele>798.2</ele>
        <time>2022-08-04T15:03:45Z</time>
      </trkpt>
      <trkpt lat="45.48333" lon="1.86624">
        <ele>798.6</ele>
        <time>2022-08-04T15:03:47Z</time>
      </trkpt>
      <trkpt lat="45.48325" lon="1.86628">
        <ele>799.8</ele>
        <time>2022-08-04T15:03:49Z</time>
      </trkpt>
      <trkpt lat="45.48319" lon="1.86631">
        <ele>800.7</ele>
        <time>2022-08-04T15:03:51Z</time>
      </trkpt>
      <trkpt lat="45.48314" lon="1.86635">
        <ele>801.5</ele>
        <time>2022-08-04T15:03:53Z</time>
      </trkpt>
      <trkpt lat="45.48309" lon="1.8664">
        <ele>802.1</ele>
        <time>2022-08-04T15:03:55Z</time>
      </trkpt>
      <trkpt lat="45.48305" lon="1.86644">
        <ele>802.7</ele>
        <time>2022-08-04T15:03:57Z</time>
      </trkpt>
      <trkpt lat="45.483" lon="1.86648">
        <ele>803.3</ele>
        <time>2022-08-04T15:03:59Z</time>
      </trkpt>
      <trkpt lat="45.48297" lon="1.86651">
        <ele>803.8</ele>
        <time>2022-08-04T15:04:01Z</time>
      </trkpt>
      <trkpt lat="45.48293" lon="1.86654">
        <ele>804.2</ele>
        <time>2022-08-04T15:04:03Z</time>
      </trkpt>
      <trkpt lat="45.4829" lon="1.86657">
        <ele>804.7</ele>
        <time>2022-08-04T15:04:05Z</time>
      </trkpt>
      <trkpt lat="45.48287" lon="1.8666">
        <ele>805.1</ele>
        <time>2022-08-04T15:04:07Z</time>
      </trkpt>
      <trkpt lat="45.48284" lon="1.86663">
        <ele>805.5</ele>
        <time>2022-08-04T15:04:09Z</time>
      </trkpt>
      <trkpt lat="45.4828" lon="1.86667">
        <ele>805.9</ele>
        <time>2022-08-04T15:04:11Z</time>
      </trkpt>
      <trkpt lat="45.48277" lon="1.86669">
        <ele>806.4</ele>
        <time>2022-08-04T15:04:13Z</time>
      </trkpt>
      <trkpt lat="45.48273" lon="1.86672">
        <ele>806.7</ele>
        <time>2022-08-04T15:04:15Z</time>
      </trkpt>
      <trkpt lat="45.4827" lon="1.86676">
        <ele>807</ele>
        <time>2022-08-04T15:04:17Z</time>
      </trkpt>
      <trkpt lat="45.48267" lon="1.8668">
        <ele>807.3</ele>
        <time>2022-08-04T15:04:19Z</time>
      </trkpt>
      <trkpt lat="45.48264" lon="1.86682">
        <ele>807.6</ele>
        <time>2022-08-04T15:04:21Z</time>
      </trkpt>
      <trkpt lat="45.4826" lon="1.86685">
        <ele>808.1</ele>
        <time>2022-08-04T15:04:23Z</time>
      </trkpt>
      <trkpt lat="45.48256" lon="1.86688">
        <ele>808.5</ele>
        <time>2022-08-04T15:04:25Z</time>
      </trkpt>
      <trkpt lat="45.48252" lon="1.8669">
        <ele>809</ele>
        <time>2022-08-04T15:04:27Z</time>
      </trkpt>
      <trkpt lat="45.48248" lon="1.86692">
        <ele>809.4</ele>
        <time>2022-08-04T15:04:29Z</time>
      </trkpt>
      <trkpt lat="45.48244" lon="1.86695">
        <ele>809.6</ele>
        <time>2022-08-04T15:04:31Z</time>
      </trkpt>
      <trkpt lat="45.48241" lon="1.86696">
        <ele>809.7</ele>
        <time>2022-08-04T15:04:33Z</time>
      </trkpt>
      <trkpt lat="45.48237" lon="1.86697">
        <ele>809.9</ele>
        <time>2022-08-04T15:04:35Z</time>
      </trkpt>
      <trkpt lat="45.48233" lon="1.86697">
        <ele>810.3</ele>
        <time>2022-08-04T15:04:37Z</time>
      </trkpt>
      <trkpt lat="45.48228" lon="1.86698">
        <ele>810.7</ele>
        <time>2022-08-04T15:04:39Z</time>
      </trkpt>
      <trkpt lat="45.48224" lon="1.86698">
        <ele>811.1</ele>
        <time>2022-08-04T15:04:41Z</time>
      </trkpt>
      <trkpt lat="45.48219" lon="1.86698">
        <ele>811.4</ele>
        <time>2022-08-04T15:04:43Z</time>
      </trkpt>
      <trkpt lat="45.48215" lon="1.86699">
        <ele>811.7</ele>
        <time>2022-08-04T15:04:45Z</time>
      </trkpt>
      <trkpt lat="45.48211" lon="1.867">
        <ele>812</ele>
        <time>2022-08-04T15:04:47Z</time>
      </trkpt>
      <trkpt lat="45.48206" lon="1.86701">
        <ele>812.3</ele>
        <time>2022-08-04T15:04:49Z</time>
      </trkpt>
      <trkpt lat="45.48202" lon="1.86702">
        <ele>812.6</ele>
        <time>2022-08-04T15:04:51Z</time>
      </trkpt>
      <trkpt lat="45.48198" lon="1.86705">
        <ele>812.7</ele>
        <time>2022-08-04T15:04:53Z</time>
      </trkpt>
      <trkpt lat="45.48195" lon="1.86706">
        <ele>812.8</ele>
        <time>2022-08-04T15:04:55Z</time>
      </trkpt>
      <trkpt lat="45.48191" lon="1.86709">
        <ele>812.9</ele>
        <time>2022-08-04T15:04:57Z</time>
      </trkpt>
      <trkpt lat="45.48188" lon="1.86712">
        <ele>812.9</ele>
        <time>2022-08-04T15:04:59Z</time>
      </trkpt>
      <trkpt lat="45.48184" lon="1.86715">
        <ele>813</ele>
        <time>2022-08-04T15:05:01Z</time>
      </trkpt>
      <trkpt lat="45.4818" lon="1.86718">
        <ele>813</ele>
        <time>2022-08-04T15:05:03Z</time>
      </trkpt>
      <trkpt lat="45.48176" lon="1.8672">
        <ele>813.2</ele>
        <time>2022-08-04T15:05:05Z</time>
      </trkpt>
      <trkpt lat="45.48172" lon="1.86722">
        <ele>813.3</ele>
        <time>2022-08-04T15:05:07Z</time>
      </trkpt>
      <trkpt lat="45.48169" lon="1.86724">
        <ele>813.3</ele>
        <time>2022-08-04T15:05:09Z</time>
      </trkpt>
      <trkpt lat="45.48165" lon="1.86727">
        <ele>813.2</ele>
        <time>2022-08-04T15:05:11Z</time>
      </trkpt>
      <trkpt lat="45.48161" lon="1.86729">
        <ele>812.9</ele>
        <time>2022-08-04T15:05:13Z</time>
      </trkpt>
      <trkpt lat="45.48156" lon="1.86731">
        <ele>812.7</ele>
        <time>2022-08-04T15:05:15Z</time>
      </trkpt>
      <trkpt lat="45.48152" lon="1.86732">
        <ele>812.5</ele>
        <time>2022-08-04T15:05:17Z</time>
      </trkpt>
      <trkpt lat="45.48148" lon="1.86734">
        <ele>812.3</ele>
        <time>2022-08-04T15:05:19Z</time>
      </trkpt>
      <trkpt lat="45.48144" lon="1.86734">
        <ele>812.2</ele>
        <time>2022-08-04T15:05:21Z</time>
      </trkpt>
      <trkpt lat="45.48139" lon="1.86734">
        <ele>812.1</ele>
        <time>2022-08-04T15:05:23Z</time>
      </trkpt>
      <trkpt lat="45.48135" lon="1.86733">
        <ele>812.2</ele>
        <time>2022-08-04T15:05:25Z</time>
      </trkpt>
      <trkpt lat="45.48131" lon="1.86731">
        <ele>812.2</ele>
        <time>2022-08-04T15:05:27Z</time>
      </trkpt>
      <trkpt lat="45.48126" lon="1.86729">
        <ele>812.3</ele>
        <time>2022-08-04T15:05:29Z</time>
      </trkpt>
      <trkpt lat="45.48123" lon="1.86725">
        <ele>812.5</ele>
        <time>2022-08-04T15:05:31Z</time>
      </trkpt>
      <trkpt lat="45.48119" lon="1.8672">
        <ele>812.6</ele>
        <time>2022-08-04T15:05:33Z</time>
      </trkpt>
      <trkpt lat="45.48116" lon="1.86714">
        <ele>812.9</ele>
        <time>2022-08-04T15:05:35Z</time>
      </trkpt>
      <trkpt lat="45.48113" lon="1.86707">
        <ele>813.1</ele>
        <time>2022-08-04T15:05:37Z</time>
      </trkpt>
      <trkpt lat="45.4811" lon="1.867">
        <ele>813.4</ele>
        <time>2022-08-04T15:05:39Z</time>
      </trkpt>
      <trkpt lat="45.48107" lon="1.86692">
        <ele>813.6</ele>
        <time>2022-08-04T15:05:41Z</time>
      </trkpt>
      <trkpt lat="45.48104" lon="1.86686">
        <ele>813.7</ele>
        <time>2022-08-04T15:05:43Z</time>
      </trkpt>
      <trkpt lat="45.48101" lon="1.86679">
        <ele>813.8</ele>
        <time>2022-08-04T15:05:45Z</time>
      </trkpt>
      <trkpt lat="45.48098" lon="1.86672">
        <ele>813.9</ele>
        <time>2022-08-04T15:05:47Z</time>
      </trkpt>
      <trkpt lat="45.48095" lon="1.86664">
        <ele>813.9</ele>
        <time>2022-08-04T15:05:49Z</time>
      </trkpt>
      <trkpt lat="45.48092" lon="1.86656">
        <ele>813.8</ele>
        <time>2022-08-04T15:05:51Z</time>
      </trkpt>
      <trkpt lat="45.48089" lon="1.86646">
        <ele>813.8</ele>
        <time>2022-08-04T15:05:53Z</time>
      </trkpt>
      <trkpt lat="45.48087" lon="1.86636">
        <ele>813.8</ele>
        <time>2022-08-04T15:05:55Z</time>
      </trkpt>
      <trkpt lat="45.48086" lon="1.86622">
        <ele>813.9</ele>
        <time>2022-08-04T15:05:57Z</time>
      </trkpt>
      <trkpt lat="45.48087" lon="1.86607">
        <ele>814.1</ele>
        <time>2022-08-04T15:05:59Z</time>
      </trkpt>
      <trkpt lat="45.48085" lon="1.86592">
        <ele>814.2</ele>
        <time>2022-08-04T15:06:01Z</time>
      </trkpt>
      <trkpt lat="45.48087" lon="1.86576">
        <ele>814.5</ele>
        <time>2022-08-04T15:06:03Z</time>
      </trkpt>
      <trkpt lat="45.48086" lon="1.86559">
        <ele>814.3</ele>
        <time>2022-08-04T15:06:05Z</time>
      </trkpt>
      <trkpt lat="45.48087" lon="1.86542">
        <ele>814.4</ele>
        <time>2022-08-04T15:06:07Z</time>
      </trkpt>
      <trkpt lat="45.48087" lon="1.86528">
        <ele>814.3</ele>
        <time>2022-08-04T15:06:09Z</time>
      </trkpt>
      <trkpt lat="45.48086" lon="1.86515">
        <ele>814.2</ele>
        <time>2022-08-04T15:06:11Z</time>
      </trkpt>
      <trkpt lat="45.4808" lon="1.86501">
        <ele>813.5</ele>
        <time>2022-08-04T15:06:13Z</time>
      </trkpt>
      <trkpt lat="45.48071" lon="1.86493">
        <ele>811.8</ele>
        <time>2022-08-04T15:06:15Z</time>
      </trkpt>
      <trkpt lat="45.4806" lon="1.86489">
        <ele>810.1</ele>
        <time>2022-08-04T15:06:17Z</time>
      </trkpt>
      <trkpt lat="45.48048" lon="1.86489">
        <ele>808.3</ele>
        <time>2022-08-04T15:06:19Z</time>
      </trkpt>
      <trkpt lat="45.48037" lon="1.8649">
        <ele>806.5</ele>
        <time>2022-08-04T15:06:21Z</time>
      </trkpt>
      <trkpt lat="45.48024" lon="1.86491">
        <ele>804.6</ele>
        <time>2022-08-04T15:06:23Z</time>
      </trkpt>
      <trkpt lat="45.48013" lon="1.86487">
        <ele>802.8</ele>
        <time>2022-08-04T15:06:25Z</time>
      </trkpt>
      <trkpt lat="45.48004" lon="1.86474">
        <ele>801.2</ele>
        <time>2022-08-04T15:06:27Z</time>
      </trkpt>
      <trkpt lat="45.48003" lon="1.86455">
        <ele>800.8</ele>
        <time>2022-08-04T15:06:29Z</time>
      </trkpt>
      <trkpt lat="45.48005" lon="1.86435">
        <ele>800.9</ele>
        <time>2022-08-04T15:06:31Z</time>
      </trkpt>
      <trkpt lat="45.4801" lon="1.86418">
        <ele>801.4</ele>
        <time>2022-08-04T15:06:33Z</time>
      </trkpt>
      <trkpt lat="45.4802" lon="1.86404">
        <ele>802.1</ele>
        <time>2022-08-04T15:06:35Z</time>
      </trkpt>
      <trkpt lat="45.4803" lon="1.86391">
        <ele>802.8</ele>
        <time>2022-08-04T15:06:37Z</time>
      </trkpt>
      <trkpt lat="45.48042" lon="1.86379">
        <ele>804</ele>
        <time>2022-08-04T15:06:39Z</time>
      </trkpt>
      <trkpt lat="45.48052" lon="1.86364">
        <ele>804.6</ele>
        <time>2022-08-04T15:06:41Z</time>
      </trkpt>
      <trkpt lat="45.48061" lon="1.86346">
        <ele>804.9</ele>
        <time>2022-08-04T15:06:43Z</time>
      </trkpt>
      <trkpt lat="45.48067" lon="1.86325">
        <ele>804.9</ele>
        <time>2022-08-04T15:06:45Z</time>
      </trkpt>
      <trkpt lat="45.48065" lon="1.86304">
        <ele>804.4</ele>
        <time>2022-08-04T15:06:47Z</time>
      </trkpt>
      <trkpt lat="45.48058" lon="1.86286">
        <ele>803.2</ele>
        <time>2022-08-04T15:06:49Z</time>
      </trkpt>
      <trkpt lat="45.48047" lon="1.86275">
        <ele>801.7</ele>
        <time>2022-08-04T15:06:51Z</time>
      </trkpt>
      <trkpt lat="45.48034" lon="1.86274">
        <ele>799.9</ele>
        <time>2022-08-04T15:06:53Z</time>
      </trkpt>
      <trkpt lat="45.4802" lon="1.86278">
        <ele>798.2</ele>
        <time>2022-08-04T15:06:55Z</time>
      </trkpt>
      <trkpt lat="45.48006" lon="1.86274">
        <ele>796.3</ele>
        <time>2022-08-04T15:06:57Z</time>
      </trkpt>
      <trkpt lat="45.47994" lon="1.86257">
        <ele>794.6</ele>
        <time>2022-08-04T15:06:59Z</time>
      </trkpt>
      <trkpt lat="45.47991" lon="1.86232">
        <ele>793.8</ele>
        <time>2022-08-04T15:07:01Z</time>
      </trkpt>
      <trkpt lat="45.4799" lon="1.86206">
        <ele>793.1</ele>
        <time>2022-08-04T15:07:03Z</time>
      </trkpt>
      <trkpt lat="45.47994" lon="1.86182">
        <ele>792.6</ele>
        <time>2022-08-04T15:07:05Z</time>
      </trkpt>
      <trkpt lat="45.48002" lon="1.86162">
        <ele>792.3</ele>
        <time>2022-08-04T15:07:07Z</time>
      </trkpt>
      <trkpt lat="45.48011" lon="1.86143">
        <ele>793.3</ele>
        <time>2022-08-04T15:07:09Z</time>
      </trkpt>
      <trkpt lat="45.48018" lon="1.8612">
        <ele>793.9</ele>
        <time>2022-08-04T15:07:11Z</time>
      </trkpt>
      <trkpt lat="45.48021" lon="1.861">
        <ele>793.9</ele>
        <time>2022-08-04T15:07:13Z</time>
      </trkpt>
      <trkpt lat="45.48016" lon="1.86081">
        <ele>793.6</ele>
        <time>2022-08-04T15:07:15Z</time>
      </trkpt>
      <trkpt lat="45.48004" lon="1.8607">
        <ele>793.5</ele>
        <time>2022-08-04T15:07:17Z</time>
      </trkpt>
      <trkpt lat="45.47992" lon="1.86066">
        <ele>794.1</ele>
        <time>2022-08-04T15:07:19Z</time>
      </trkpt>
      <trkpt lat="45.4798" lon="1.86066">
        <ele>795</ele>
        <time>2022-08-04T15:07:21Z</time>
      </trkpt>
      <trkpt lat="45.47971" lon="1.86062">
        <ele>796</ele>
        <time>2022-08-04T15:07:23Z</time>
      </trkpt>
      <trkpt lat="45.47964" lon="1.86053">
        <ele>797.1</ele>
        <time>2022-08-04T15:07:25Z</time>
      </trkpt>
      <trkpt lat="45.4796" lon="1.86043">
        <ele>798.2</ele>
        <time>2022-08-04T15:07:27Z</time>
      </trkpt>
      <trkpt lat="45.4796" lon="1.86035">
        <ele>798.8</ele>
        <time>2022-08-04T15:07:29Z</time>
      </trkpt>
      <trkpt lat="45.47962" lon="1.86026">
        <ele>799.2</ele>
        <time>2022-08-04T15:07:31Z</time>
      </trkpt>
      <trkpt lat="45.47965" lon="1.86021">
        <ele>799.2</ele>
        <time>2022-08-04T15:07:33Z</time>
      </trkpt>
      <trkpt lat="45.47967" lon="1.86017">
        <ele>799.1</ele>
        <time>2022-08-04T15:07:35Z</time>
      </trkpt>
      <trkpt lat="45.4797" lon="1.86012">
        <ele>798.9</ele>
        <time>2022-08-04T15:07:37Z</time>
      </trkpt>
      <trkpt lat="45.47975" lon="1.86009">
        <ele>798.5</ele>
        <time>2022-08-04T15:07:39Z</time>
      </trkpt>
      <trkpt lat="45.47978" lon="1.86004">
        <ele>798.2</ele>
        <time>2022-08-04T15:07:41Z</time>
      </trkpt>
      <trkpt lat="45.47982" lon="1.86">
        <ele>797.8</ele>
        <time>2022-08-04T15:07:43Z</time>
      </trkpt>
      <trkpt lat="45.47986" lon="1.85995">
        <ele>798</ele>
        <time>2022-08-04T15:07:45Z</time>
      </trkpt>
      <trkpt lat="45.47989" lon="1.8599">
        <ele>798.5</ele>
        <time>2022-08-04T15:07:47Z</time>
      </trkpt>
      <trkpt lat="45.47992" lon="1.85985">
        <ele>799</ele>
        <time>2022-08-04T15:07:49Z</time>
      </trkpt>
      <trkpt lat="45.47994" lon="1.8598">
        <ele>799.6</ele>
        <time>2022-08-04T15:07:51Z</time>
      </trkpt>
      <trkpt lat="45.47996" lon="1.85976">
        <ele>800</ele>
        <time>2022-08-04T15:07:53Z</time>
      </trkpt>
      <trkpt lat="45.47999" lon="1.85971">
        <ele>800.4</ele>
        <time>2022-08-04T15:07:55Z</time>
      </trkpt>
      <trkpt lat="45.48002" lon="1.85964">
        <ele>801.4</ele>
        <time>2022-08-04T15:07:57Z</time>
      </trkpt>
      <trkpt lat="45.48005" lon="1.85959">
        <ele>802.2</ele>
        <time>2022-08-04T15:07:59Z</time>
      </trkpt>
      <trkpt lat="45.48008" lon="1.85954">
        <ele>802.9</ele>
        <time>2022-08-04T15:08:01Z</time>
      </trkpt>
      <trkpt lat="45.48011" lon="1.85949">
        <ele>803.7</ele>
        <time>2022-08-04T15:08:03Z</time>
      </trkpt>
      <trkpt lat="45.48014" lon="1.85944">
        <ele>804.3</ele>
        <time>2022-08-04T15:08:05Z</time>
      </trkpt>
      <trkpt lat="45.48017" lon="1.85941">
        <ele>804.7</ele>
        <time>2022-08-04T15:08:07Z</time>
      </trkpt>
      <trkpt lat="45.4802" lon="1.85937">
        <ele>805.2</ele>
        <time>2022-08-04T15:08:09Z</time>
      </trkpt>
      <trkpt lat="45.48023" lon="1.85932">
        <ele>805.7</ele>
        <time>2022-08-04T15:08:11Z</time>
      </trkpt>
      <trkpt lat="45.48026" lon="1.85928">
        <ele>806</ele>
        <time>2022-08-04T15:08:13Z</time>
      </trkpt>
      <trkpt lat="45.4803" lon="1.85924">
        <ele>806.5</ele>
        <time>2022-08-04T15:08:15Z</time>
      </trkpt>
      <trkpt lat="45.48033" lon="1.85919">
        <ele>806.8</ele>
        <time>2022-08-04T15:08:17Z</time>
      </trkpt>
      <trkpt lat="45.48037" lon="1.85915">
        <ele>807.3</ele>
        <time>2022-08-04T15:08:19Z</time>
      </trkpt>
      <trkpt lat="45.4804" lon="1.85912">
        <ele>807.4</ele>
        <time>2022-08-04T15:08:21Z</time>
      </trkpt>
      <trkpt lat="45.48043" lon="1.85908">
        <ele>807.9</ele>
        <time>2022-08-04T15:08:23Z</time>
      </trkpt>
      <trkpt lat="45.48046" lon="1.85904">
        <ele>808.4</ele>
        <time>2022-08-04T15:08:25Z</time>
      </trkpt>
      <trkpt lat="45.48049" lon="1.859">
        <ele>808.8</ele>
        <time>2022-08-04T15:08:27Z</time>
      </trkpt>
      <trkpt lat="45.48053" lon="1.85896">
        <ele>809.1</ele>
        <time>2022-08-04T15:08:29Z</time>
      </trkpt>
      <trkpt lat="45.48056" lon="1.85893">
        <ele>809.4</ele>
        <time>2022-08-04T15:08:31Z</time>
      </trkpt>
      <trkpt lat="45.48059" lon="1.85889">
        <ele>809.7</ele>
        <time>2022-08-04T15:08:33Z</time>
      </trkpt>
      <trkpt lat="45.48063" lon="1.85886">
        <ele>809.8</ele>
        <time>2022-08-04T15:08:35Z</time>
      </trkpt>
      <trkpt lat="45.48067" lon="1.85883">
        <ele>809.9</ele>
        <time>2022-08-04T15:08:37Z</time>
      </trkpt>
      <trkpt lat="45.48071" lon="1.8588">
        <ele>809.9</ele>
        <time>2022-08-04T15:08:39Z</time>
      </trkpt>
      <trkpt lat="45.48075" lon="1.85878">
        <ele>810</ele>
        <time>2022-08-04T15:08:41Z</time>
      </trkpt>
      <trkpt lat="45.48078" lon="1.85875">
        <ele>810.2</ele>
        <time>2022-08-04T15:08:43Z</time>
      </trkpt>
      <trkpt lat="45.48081" lon="1.85872">
        <ele>810.2</ele>
        <time>2022-08-04T15:08:45Z</time>
      </trkpt>
      <trkpt lat="45.48085" lon="1.8587">
        <ele>810.5</ele>
        <time>2022-08-04T15:08:47Z</time>
      </trkpt>
      <trkpt lat="45.48089" lon="1.85867">
        <ele>811.1</ele>
        <time>2022-08-04T15:08:49Z</time>
      </trkpt>
      <trkpt lat="45.48092" lon="1.85865">
        <ele>811.7</ele>
        <time>2022-08-04T15:08:51Z</time>
      </trkpt>
      <trkpt lat="45.48095" lon="1.85862">
        <ele>812.2</ele>
        <time>2022-08-04T15:08:53Z</time>
      </trkpt>
      <trkpt lat="45.48099" lon="1.8586">
        <ele>812.7</ele>
        <time>2022-08-04T15:08:55Z</time>
      </trkpt>
      <trkpt lat="45.48102" lon="1.85858">
        <ele>813.1</ele>
        <time>2022-08-04T15:08:57Z</time>
      </trkpt>
      <trkpt lat="45.48105" lon="1.85856">
        <ele>813.6</ele>
        <time>2022-08-04T15:08:59Z</time>
      </trkpt>
      <trkpt lat="45.48108" lon="1.85853">
        <ele>814</ele>
        <time>2022-08-04T15:09:01Z</time>
      </trkpt>
      <trkpt lat="45.48112" lon="1.85851">
        <ele>814.3</ele>
        <time>2022-08-04T15:09:03Z</time>
      </trkpt>
      <trkpt lat="45.48115" lon="1.85847">
        <ele>814.8</ele>
        <time>2022-08-04T15:09:05Z</time>
      </trkpt>
      <trkpt lat="45.48119" lon="1.85846">
        <ele>815</ele>
        <time>2022-08-04T15:09:07Z</time>
      </trkpt>
      <trkpt lat="45.48122" lon="1.8584">
        <ele>815.5</ele>
        <time>2022-08-04T15:09:09Z</time>
      </trkpt>
      <trkpt lat="45.48125" lon="1.85837">
        <ele>815.7</ele>
        <time>2022-08-04T15:09:11Z</time>
      </trkpt>
      <trkpt lat="45.48128" lon="1.85834">
        <ele>816</ele>
        <time>2022-08-04T15:09:13Z</time>
      </trkpt>
      <trkpt lat="45.48131" lon="1.85831">
        <ele>816.1</ele>
        <time>2022-08-04T15:09:15Z</time>
      </trkpt>
      <trkpt lat="45.48134" lon="1.85828">
        <ele>816.3</ele>
        <time>2022-08-04T15:09:17Z</time>
      </trkpt>
      <trkpt lat="45.48137" lon="1.85825">
        <ele>816.4</ele>
        <time>2022-08-04T15:09:19Z</time>
      </trkpt>
      <trkpt lat="45.48142" lon="1.85822">
        <ele>816.5</ele>
        <time>2022-08-04T15:09:21Z</time>
      </trkpt>
      <trkpt lat="45.48147" lon="1.85819">
        <ele>816.5</ele>
        <time>2022-08-04T15:09:23Z</time>
      </trkpt>
      <trkpt lat="45.48151" lon="1.85815">
        <ele>816.6</ele>
        <time>2022-08-04T15:09:25Z</time>
      </trkpt>
      <trkpt lat="45.48156" lon="1.8581">
        <ele>816.6</ele>
        <time>2022-08-04T15:09:27Z</time>
      </trkpt>
      <trkpt lat="45.48161" lon="1.85804">
        <ele>816.6</ele>
        <time>2022-08-04T15:09:29Z</time>
      </trkpt>
      <trkpt lat="45.48165" lon="1.85795">
        <ele>816.5</ele>
        <time>2022-08-04T15:09:31Z</time>
      </trkpt>
      <trkpt lat="45.4817" lon="1.85784">
        <ele>816.6</ele>
        <time>2022-08-04T15:09:33Z</time>
      </trkpt>
      <trkpt lat="45.48175" lon="1.85772">
        <ele>816.8</ele>
        <time>2022-08-04T15:09:35Z</time>
      </trkpt>
      <trkpt lat="45.48181" lon="1.8576">
        <ele>817</ele>
        <time>2022-08-04T15:09:37Z</time>
      </trkpt>
      <trkpt lat="45.48188" lon="1.85746">
        <ele>817</ele>
        <time>2022-08-04T15:09:39Z</time>
      </trkpt>
      <trkpt lat="45.48197" lon="1.85733">
        <ele>817</ele>
        <time>2022-08-04T15:09:41Z</time>
      </trkpt>
      <trkpt lat="45.48205" lon="1.8572">
        <ele>816.7</ele>
        <time>2022-08-04T15:09:43Z</time>
      </trkpt>
      <trkpt lat="45.48213" lon="1.85706">
        <ele>816.3</ele>
        <time>2022-08-04T15:09:45Z</time>
      </trkpt>
      <trkpt lat="45.48221" lon="1.85696">
        <ele>815.8</ele>
        <time>2022-08-04T15:09:47Z</time>
      </trkpt>
      <trkpt lat="45.48228" lon="1.85683">
        <ele>815</ele>
        <time>2022-08-04T15:09:49Z</time>
      </trkpt>
      <trkpt lat="45.48233" lon="1.85668">
        <ele>814.2</ele>
        <time>2022-08-04T15:09:51Z</time>
      </trkpt>
      <trkpt lat="45.48237" lon="1.85654">
        <ele>814</ele>
        <time>2022-08-04T15:09:53Z</time>
      </trkpt>
      <trkpt lat="45.48237" lon="1.85638">
        <ele>813.9</ele>
        <time>2022-08-04T15:09:55Z</time>
      </trkpt>
      <trkpt lat="45.48236" lon="1.85621">
        <ele>814</ele>
        <time>2022-08-04T15:09:57Z</time>
      </trkpt>
      <trkpt lat="45.48237" lon="1.85604">
        <ele>813.9</ele>
        <time>2022-08-04T15:09:59Z</time>
      </trkpt>
      <trkpt lat="45.48237" lon="1.85588">
        <ele>813.9</ele>
        <time>2022-08-04T15:10:01Z</time>
      </trkpt>
      <trkpt lat="45.48238" lon="1.85572">
        <ele>814.1</ele>
        <time>2022-08-04T15:10:03Z</time>
      </trkpt>
      <trkpt lat="45.48239" lon="1.85558">
        <ele>814.5</ele>
        <time>2022-08-04T15:10:05Z</time>
      </trkpt>
      <trkpt lat="45.48241" lon="1.85543">
        <ele>814.8</ele>
        <time>2022-08-04T15:10:07Z</time>
      </trkpt>
      <trkpt lat="45.48242" lon="1.85531">
        <ele>815.1</ele>
        <time>2022-08-04T15:10:09Z</time>
      </trkpt>
      <trkpt lat="45.48243" lon="1.85519">
        <ele>815.3</ele>
        <time>2022-08-04T15:10:11Z</time>
      </trkpt>
      <trkpt lat="45.48245" lon="1.85506">
        <ele>815.6</ele>
        <time>2022-08-04T15:10:13Z</time>
      </trkpt>
      <trkpt lat="45.48246" lon="1.85495">
        <ele>815.5</ele>
        <time>2022-08-04T15:10:15Z</time>
      </trkpt>
      <trkpt lat="45.48246" lon="1.85484">
        <ele>815</ele>
        <time>2022-08-04T15:10:17Z</time>
      </trkpt>
      <trkpt lat="45.48247" lon="1.85473">
        <ele>814.5</ele>
        <time>2022-08-04T15:10:19Z</time>
      </trkpt>
      <trkpt lat="45.48246" lon="1.85462">
        <ele>814.2</ele>
        <time>2022-08-04T15:10:21Z</time>
      </trkpt>
      <trkpt lat="45.48246" lon="1.85453">
        <ele>813.9</ele>
        <time>2022-08-04T15:10:23Z</time>
      </trkpt>
      <trkpt lat="45.48245" lon="1.85442">
        <ele>813.7</ele>
        <time>2022-08-04T15:10:25Z</time>
      </trkpt>
      <trkpt lat="45.48243" lon="1.85433">
        <ele>813.5</ele>
        <time>2022-08-04T15:10:27Z</time>
      </trkpt>
      <trkpt lat="45.48241" lon="1.85423">
        <ele>813.4</ele>
        <time>2022-08-04T15:10:29Z</time>
      </trkpt>
      <trkpt lat="45.48239" lon="1.85412">
        <ele>813.2</ele>
        <time>2022-08-04T15:10:31Z</time>
      </trkpt>
      <trkpt lat="45.48236" lon="1.85402">
        <ele>812.8</ele>
        <time>2022-08-04T15:10:33Z</time>
      </trkpt>
      <trkpt lat="45.48232" lon="1.85392">
        <ele>812.4</ele>
        <time>2022-08-04T15:10:35Z</time>
      </trkpt>
      <trkpt lat="45.48229" lon="1.85381">
        <ele>812</ele>
        <time>2022-08-04T15:10:37Z</time>
      </trkpt>
      <trkpt lat="45.48223" lon="1.85371">
        <ele>811.9</ele>
        <time>2022-08-04T15:10:39Z</time>
      </trkpt>
      <trkpt lat="45.48218" lon="1.85361">
        <ele>811.7</ele>
        <time>2022-08-04T15:10:41Z</time>
      </trkpt>
      <trkpt lat="45.4821" lon="1.85354">
        <ele>812</ele>
        <time>2022-08-04T15:10:43Z</time>
      </trkpt>
      <trkpt lat="45.48203" lon="1.85347">
        <ele>812.3</ele>
        <time>2022-08-04T15:10:45Z</time>
      </trkpt>
      <trkpt lat="45.48195" lon="1.8534">
        <ele>812.6</ele>
        <time>2022-08-04T15:10:47Z</time>
      </trkpt>
      <trkpt lat="45.48187" lon="1.85335">
        <ele>813</ele>
        <time>2022-08-04T15:10:49Z</time>
      </trkpt>
      <trkpt lat="45.48178" lon="1.85331">
        <ele>813.6</ele>
        <time>2022-08-04T15:10:51Z</time>
      </trkpt>
      <trkpt lat="45.4817" lon="1.85325">
        <ele>814.3</ele>
        <time>2022-08-04T15:10:53Z</time>
      </trkpt>
      <trkpt lat="45.48163" lon="1.85319">
        <ele>815.5</ele>
        <time>2022-08-04T15:10:55Z</time>
      </trkpt>
      <trkpt lat="45.48156" lon="1.85308">
        <ele>816.7</ele>
        <time>2022-08-04T15:10:57Z</time>
      </trkpt>
      <trkpt lat="45.48153" lon="1.85295">
        <ele>817.2</ele>
        <time>2022-08-04T15:10:59Z</time>
      </trkpt>
      <trkpt lat="45.4815" lon="1.85282">
        <ele>817.4</ele>
        <time>2022-08-04T15:11:01Z</time>
      </trkpt>
      <trkpt lat="45.4815" lon="1.85268">
        <ele>817.3</ele>
        <time>2022-08-04T15:11:03Z</time>
      </trkpt>
      <trkpt lat="45.48149" lon="1.85253">
        <ele>817</ele>
        <time>2022-08-04T15:11:05Z</time>
      </trkpt>
      <trkpt lat="45.48148" lon="1.85239">
        <ele>816.8</ele>
        <time>2022-08-04T15:11:07Z</time>
      </trkpt>
      <trkpt lat="45.48147" lon="1.85225">
        <ele>816.8</ele>
        <time>2022-08-04T15:11:09Z</time>
      </trkpt>
      <trkpt lat="45.48146" lon="1.85211">
        <ele>816.5</ele>
        <time>2022-08-04T15:11:11Z</time>
      </trkpt>
      <trkpt lat="45.48145" lon="1.85198">
        <ele>816.4</ele>
        <time>2022-08-04T15:11:13Z</time>
      </trkpt>
      <trkpt lat="45.48145" lon="1.85184">
        <ele>816.1</ele>
        <time>2022-08-04T15:11:15Z</time>
      </trkpt>
      <trkpt lat="45.48143" lon="1.85172">
        <ele>816</ele>
        <time>2022-08-04T15:11:17Z</time>
      </trkpt>
      <trkpt lat="45.48143" lon="1.85161">
        <ele>815.8</ele>
        <time>2022-08-04T15:11:19Z</time>
      </trkpt>
      <trkpt lat="45.48143" lon="1.85152">
        <ele>815.6</ele>
        <time>2022-08-04T15:11:21Z</time>
      </trkpt>
      <trkpt lat="45.48142" lon="1.85144">
        <ele>815.5</ele>
        <time>2022-08-04T15:11:23Z</time>
      </trkpt>
      <trkpt lat="45.48142" lon="1.85134">
        <ele>815.3</ele>
        <time>2022-08-04T15:11:25Z</time>
      </trkpt>
      <trkpt lat="45.48141" lon="1.85124">
        <ele>815.1</ele>
        <time>2022-08-04T15:11:27Z</time>
      </trkpt>
      <trkpt lat="45.48141" lon="1.85116">
        <ele>815</ele>
        <time>2022-08-04T15:11:29Z</time>
      </trkpt>
      <trkpt lat="45.48142" lon="1.85108">
        <ele>814.6</ele>
        <time>2022-08-04T15:11:31Z</time>
      </trkpt>
      <trkpt lat="45.48142" lon="1.851">
        <ele>814.3</ele>
        <time>2022-08-04T15:11:33Z</time>
      </trkpt>
      <trkpt lat="45.48143" lon="1.85094">
        <ele>814</ele>
        <time>2022-08-04T15:11:35Z</time>
      </trkpt>
      <trkpt lat="45.48143" lon="1.85087">
        <ele>813.6</ele>
        <time>2022-08-04T15:11:37Z</time>
      </trkpt>
      <trkpt lat="45.48145" lon="1.85081">
        <ele>813.2</ele>
        <time>2022-08-04T15:11:39Z</time>
      </trkpt>
      <trkpt lat="45.48146" lon="1.85075">
        <ele>813</ele>
        <time>2022-08-04T15:11:41Z</time>
      </trkpt>
      <trkpt lat="45.48146" lon="1.85069">
        <ele>812.9</ele>
        <time>2022-08-04T15:11:43Z</time>
      </trkpt>
      <trkpt lat="45.48147" lon="1.85064">
        <ele>812.7</ele>
        <time>2022-08-04T15:11:45Z</time>
      </trkpt>
      <trkpt lat="45.48148" lon="1.85057">
        <ele>812.6</ele>
        <time>2022-08-04T15:11:47Z</time>
      </trkpt>
      <trkpt lat="45.48149" lon="1.85052">
        <ele>812.3</ele>
        <time>2022-08-04T15:11:49Z</time>
      </trkpt>
      <trkpt lat="45.4815" lon="1.85046">
        <ele>812.1</ele>
        <time>2022-08-04T15:11:51Z</time>
      </trkpt>
      <trkpt lat="45.4815" lon="1.85043">
        <ele>812.1</ele>
        <time>2022-08-04T15:11:53Z</time>
      </trkpt>
      <trkpt lat="45.4815" lon="1.85038">
        <ele>812.1</ele>
        <time>2022-08-04T15:11:55Z</time>
      </trkpt>
      <trkpt lat="45.4815" lon="1.85035">
        <ele>812.1</ele>
        <time>2022-08-04T15:11:57Z</time>
      </trkpt>
      <trkpt lat="45.4815" lon="1.85031">
        <ele>812</ele>
        <time>2022-08-04T15:11:59Z</time>
      </trkpt>
      <trkpt lat="45.48151" lon="1.85031">
        <ele>812</ele>
        <time>2022-08-04T15:12:01Z</time>
      </trkpt>
      <trkpt lat="45.48151" lon="1.8503">
        <ele>811.9</ele>
        <time>2022-08-04T15:12:03Z</time>
      </trkpt>
      <trkpt lat="45.4815" lon="1.85026">
        <ele>812.1</ele>
        <time>2022-08-04T15:12:07Z</time>
      </trkpt>
      <trkpt lat="45.4815" lon="1.85026">
        <ele>812.1</ele>
        <time>2022-08-04T15:12:09Z</time>
      </trkpt>
      <trkpt lat="45.48136" lon="1.85012">
        <ele>814.6</ele>
        <time>2022-08-04T15:29:21Z</time>
      </trkpt>
      <trkpt lat="45.48133" lon="1.85009">
        <ele>815.2</ele>
        <time>2022-08-04T15:29:23Z</time>
      </trkpt>
      <trkpt lat="45.4813" lon="1.85006">
        <ele>815.7</ele>
        <time>2022-08-04T15:29:25Z</time>
      </trkpt>
      <trkpt lat="45.48127" lon="1.85003">
        <ele>816.2</ele>
        <time>2022-08-04T15:29:27Z</time>
      </trkpt>
      <trkpt lat="45.48123" lon="1.85">
        <ele>816.8</ele>
        <time>2022-08-04T15:29:29Z</time>
      </trkpt>
      <trkpt lat="45.48121" lon="1.84996">
        <ele>817.4</ele>
        <time>2022-08-04T15:29:31Z</time>
      </trkpt>
      <trkpt lat="45.48116" lon="1.84994">
        <ele>818.2</ele>
        <time>2022-08-04T15:29:33Z</time>
      </trkpt>
      <trkpt lat="45.48113" lon="1.84989">
        <ele>818.9</ele>
        <time>2022-08-04T15:29:35Z</time>
      </trkpt>
      <trkpt lat="45.4811" lon="1.84985">
        <ele>819.4</ele>
        <time>2022-08-04T15:29:37Z</time>
      </trkpt>
      <trkpt lat="45.48107" lon="1.8498">
        <ele>820</ele>
        <time>2022-08-04T15:29:39Z</time>
      </trkpt>
      <trkpt lat="45.48106" lon="1.84973">
        <ele>820.4</ele>
        <time>2022-08-04T15:29:41Z</time>
      </trkpt>
      <trkpt lat="45.48105" lon="1.84966">
        <ele>820.7</ele>
        <time>2022-08-04T15:29:43Z</time>
      </trkpt>
      <trkpt lat="45.48105" lon="1.84959">
        <ele>820.7</ele>
        <time>2022-08-04T15:29:45Z</time>
      </trkpt>
      <trkpt lat="45.48106" lon="1.84952">
        <ele>820.6</ele>
        <time>2022-08-04T15:29:47Z</time>
      </trkpt>
      <trkpt lat="45.48107" lon="1.84944">
        <ele>820.6</ele>
        <time>2022-08-04T15:29:49Z</time>
      </trkpt>
      <trkpt lat="45.48109" lon="1.84938">
        <ele>820.4</ele>
        <time>2022-08-04T15:29:51Z</time>
      </trkpt>
      <trkpt lat="45.4811" lon="1.8493">
        <ele>820.3</ele>
        <time>2022-08-04T15:29:53Z</time>
      </trkpt>
      <trkpt lat="45.4811" lon="1.84922">
        <ele>820.4</ele>
        <time>2022-08-04T15:29:55Z</time>
      </trkpt>
      <trkpt lat="45.48112" lon="1.84915">
        <ele>820.2</ele>
        <time>2022-08-04T15:29:57Z</time>
      </trkpt>
      <trkpt lat="45.48111" lon="1.84908">
        <ele>820.2</ele>
        <time>2022-08-04T15:29:59Z</time>
      </trkpt>
      <trkpt lat="45.48111" lon="1.84901">
        <ele>820</ele>
        <time>2022-08-04T15:30:01Z</time>
      </trkpt>
      <trkpt lat="45.48113" lon="1.84894">
        <ele>819.6</ele>
        <time>2022-08-04T15:30:03Z</time>
      </trkpt>
      <trkpt lat="45.48113" lon="1.84887">
        <ele>819.4</ele>
        <time>2022-08-04T15:30:05Z</time>
      </trkpt>
      <trkpt lat="45.48113" lon="1.8488">
        <ele>819.3</ele>
        <time>2022-08-04T15:30:07Z</time>
      </trkpt>
      <trkpt lat="45.48112" lon="1.84873">
        <ele>819.1</ele>
        <time>2022-08-04T15:30:09Z</time>
      </trkpt>
      <trkpt lat="45.48111" lon="1.84868">
        <ele>819.2</ele>
        <time>2022-08-04T15:30:11Z</time>
      </trkpt>
      <trkpt lat="45.48108" lon="1.84863">
        <ele>819.3</ele>
        <time>2022-08-04T15:30:13Z</time>
      </trkpt>
      <trkpt lat="45.48106" lon="1.84855">
        <ele>819.3</ele>
        <time>2022-08-04T15:30:15Z</time>
      </trkpt>
      <trkpt lat="45.48103" lon="1.84849">
        <ele>819.4</ele>
        <time>2022-08-04T15:30:17Z</time>
      </trkpt>
      <trkpt lat="45.48098" lon="1.84843">
        <ele>819.5</ele>
        <time>2022-08-04T15:30:19Z</time>
      </trkpt>
      <trkpt lat="45.48093" lon="1.84836">
        <ele>819.5</ele>
        <time>2022-08-04T15:30:21Z</time>
      </trkpt>
      <trkpt lat="45.48087" lon="1.8483">
        <ele>819.6</ele>
        <time>2022-08-04T15:30:23Z</time>
      </trkpt>
      <trkpt lat="45.48083" lon="1.84821">
        <ele>818.9</ele>
        <time>2022-08-04T15:30:25Z</time>
      </trkpt>
      <trkpt lat="45.48078" lon="1.84811">
        <ele>818.7</ele>
        <time>2022-08-04T15:30:27Z</time>
      </trkpt>
      <trkpt lat="45.48071" lon="1.84805">
        <ele>819</ele>
        <time>2022-08-04T15:30:29Z</time>
      </trkpt>
      <trkpt lat="45.48063" lon="1.84795">
        <ele>819</ele>
        <time>2022-08-04T15:30:31Z</time>
      </trkpt>
      <trkpt lat="45.48055" lon="1.84784">
        <ele>818.8</ele>
        <time>2022-08-04T15:30:33Z</time>
      </trkpt>
      <trkpt lat="45.48048" lon="1.84774">
        <ele>818.6</ele>
        <time>2022-08-04T15:30:35Z</time>
      </trkpt>
      <trkpt lat="45.4804" lon="1.84761">
        <ele>818.2</ele>
        <time>2022-08-04T15:30:37Z</time>
      </trkpt>
      <trkpt lat="45.48034" lon="1.84749">
        <ele>817.7</ele>
        <time>2022-08-04T15:30:39Z</time>
      </trkpt>
      <trkpt lat="45.48025" lon="1.84739">
        <ele>817.5</ele>
        <time>2022-08-04T15:30:41Z</time>
      </trkpt>
      <trkpt lat="45.48018" lon="1.8473">
        <ele>817.4</ele>
        <time>2022-08-04T15:30:43Z</time>
      </trkpt>
      <trkpt lat="45.48013" lon="1.84721">
        <ele>816.9</ele>
        <time>2022-08-04T15:30:45Z</time>
      </trkpt>
      <trkpt lat="45.48007" lon="1.84715">
        <ele>816.8</ele>
        <time>2022-08-04T15:30:47Z</time>
      </trkpt>
      <trkpt lat="45.48" lon="1.84711">
        <ele>816.9</ele>
        <time>2022-08-04T15:30:49Z</time>
      </trkpt>
      <trkpt lat="45.47992" lon="1.84712">
        <ele>818.1</ele>
        <time>2022-08-04T15:30:51Z</time>
      </trkpt>
      <trkpt lat="45.47989" lon="1.84718">
        <ele>819.2</ele>
        <time>2022-08-04T15:30:53Z</time>
      </trkpt>
      <trkpt lat="45.47988" lon="1.84725">
        <ele>820.3</ele>
        <time>2022-08-04T15:30:55Z</time>
      </trkpt>
      <trkpt lat="45.47987" lon="1.84734">
        <ele>821.5</ele>
        <time>2022-08-04T15:30:57Z</time>
      </trkpt>
      <trkpt lat="45.47986" lon="1.84741">
        <ele>822.6</ele>
        <time>2022-08-04T15:30:59Z</time>
      </trkpt>
      <trkpt lat="45.47986" lon="1.84747">
        <ele>823.2</ele>
        <time>2022-08-04T15:31:01Z</time>
      </trkpt>
      <trkpt lat="45.47986" lon="1.84752">
        <ele>824</ele>
        <time>2022-08-04T15:31:03Z</time>
      </trkpt>
      <trkpt lat="45.4799" lon="1.84757">
        <ele>823.7</ele>
        <time>2022-08-04T15:31:05Z</time>
      </trkpt>
      <trkpt lat="45.47994" lon="1.84762">
        <ele>823.6</ele>
        <time>2022-08-04T15:31:07Z</time>
      </trkpt>
      <trkpt lat="45.47995" lon="1.84767">
        <ele>823.8</ele>
        <time>2022-08-04T15:31:09Z</time>
      </trkpt>
      <trkpt lat="45.47998" lon="1.84773">
        <ele>823.9</ele>
        <time>2022-08-04T15:31:11Z</time>
      </trkpt>
      <trkpt lat="45.48001" lon="1.84778">
        <ele>823.9</ele>
        <time>2022-08-04T15:31:13Z</time>
      </trkpt>
      <trkpt lat="45.48003" lon="1.84783">
        <ele>824.2</ele>
        <time>2022-08-04T15:31:15Z</time>
      </trkpt>
      <trkpt lat="45.48006" lon="1.84786">
        <ele>824.3</ele>
        <time>2022-08-04T15:31:17Z</time>
      </trkpt>
      <trkpt lat="45.48009" lon="1.84791">
        <ele>824.5</ele>
        <time>2022-08-04T15:31:19Z</time>
      </trkpt>
      <trkpt lat="45.48012" lon="1.84795">
        <ele>824.5</ele>
        <time>2022-08-04T15:31:21Z</time>
      </trkpt>
      <trkpt lat="45.48013" lon="1.848">
        <ele>825</ele>
        <time>2022-08-04T15:31:23Z</time>
      </trkpt>
      <trkpt lat="45.48016" lon="1.84803">
        <ele>824.9</ele>
        <time>2022-08-04T15:31:25Z</time>
      </trkpt>
      <trkpt lat="45.48019" lon="1.84806">
        <ele>825</ele>
        <time>2022-08-04T15:31:27Z</time>
      </trkpt>
      <trkpt lat="45.48021" lon="1.8481">
        <ele>825</ele>
        <time>2022-08-04T15:31:29Z</time>
      </trkpt>
      <trkpt lat="45.48023" lon="1.84814">
        <ele>825.3</ele>
        <time>2022-08-04T15:31:31Z</time>
      </trkpt>
      <trkpt lat="45.48025" lon="1.84817">
        <ele>825.3</ele>
        <time>2022-08-04T15:31:33Z</time>
      </trkpt>
      <trkpt lat="45.48027" lon="1.8482">
        <ele>825.4</ele>
        <time>2022-08-04T15:31:35Z</time>
      </trkpt>
      <trkpt lat="45.48029" lon="1.84823">
        <ele>825.5</ele>
        <time>2022-08-04T15:31:37Z</time>
      </trkpt>
      <trkpt lat="45.4803" lon="1.84827">
        <ele>825.7</ele>
        <time>2022-08-04T15:31:39Z</time>
      </trkpt>
      <trkpt lat="45.48032" lon="1.8483">
        <ele>825.8</ele>
        <time>2022-08-04T15:31:41Z</time>
      </trkpt>
      <trkpt lat="45.48034" lon="1.84833">
        <ele>825.9</ele>
        <time>2022-08-04T15:31:43Z</time>
      </trkpt>
      <trkpt lat="45.48037" lon="1.84835">
        <ele>825.7</ele>
        <time>2022-08-04T15:31:45Z</time>
      </trkpt>
      <trkpt lat="45.48039" lon="1.84839">
        <ele>825.7</ele>
        <time>2022-08-04T15:31:47Z</time>
      </trkpt>
      <trkpt lat="45.48041" lon="1.84842">
        <ele>825.6</ele>
        <time>2022-08-04T15:31:49Z</time>
      </trkpt>
      <trkpt lat="45.48042" lon="1.84846">
        <ele>825.6</ele>
        <time>2022-08-04T15:31:51Z</time>
      </trkpt>
      <trkpt lat="45.48044" lon="1.84851">
        <ele>825.7</ele>
        <time>2022-08-04T15:31:53Z</time>
      </trkpt>
      <trkpt lat="45.48046" lon="1.84853">
        <ele>825.6</ele>
        <time>2022-08-04T15:31:55Z</time>
      </trkpt>
      <trkpt lat="45.48048" lon="1.84857">
        <ele>825.6</ele>
        <time>2022-08-04T15:31:57Z</time>
      </trkpt>
      <trkpt lat="45.48049" lon="1.84861">
        <ele>825.7</ele>
        <time>2022-08-04T15:31:59Z</time>
      </trkpt>
      <trkpt lat="45.4805" lon="1.84866">
        <ele>825.8</ele>
        <time>2022-08-04T15:32:01Z</time>
      </trkpt>
      <trkpt lat="45.48051" lon="1.84871">
        <ele>826</ele>
        <time>2022-08-04T15:32:03Z</time>
      </trkpt>
      <trkpt lat="45.48051" lon="1.84876">
        <ele>826.3</ele>
        <time>2022-08-04T15:32:05Z</time>
      </trkpt>
      <trkpt lat="45.48051" lon="1.84881">
        <ele>826.5</ele>
        <time>2022-08-04T15:32:07Z</time>
      </trkpt>
      <trkpt lat="45.48054" lon="1.84885">
        <ele>826.4</ele>
        <time>2022-08-04T15:32:09Z</time>
      </trkpt>
      <trkpt lat="45.48055" lon="1.8489">
        <ele>826.6</ele>
        <time>2022-08-04T15:32:11Z</time>
      </trkpt>
      <trkpt lat="45.48055" lon="1.84895">
        <ele>826.8</ele>
        <time>2022-08-04T15:32:13Z</time>
      </trkpt>
      <trkpt lat="45.48056" lon="1.84899">
        <ele>827</ele>
        <time>2022-08-04T15:32:15Z</time>
      </trkpt>
      <trkpt lat="45.48056" lon="1.84904">
        <ele>827.2</ele>
        <time>2022-08-04T15:32:17Z</time>
      </trkpt>
      <trkpt lat="45.48057" lon="1.84908">
        <ele>827.4</ele>
        <time>2022-08-04T15:32:19Z</time>
      </trkpt>
      <trkpt lat="45.48057" lon="1.84913">
        <ele>827.7</ele>
        <time>2022-08-04T15:32:21Z</time>
      </trkpt>
      <trkpt lat="45.48057" lon="1.84917">
        <ele>827.8</ele>
        <time>2022-08-04T15:32:23Z</time>
      </trkpt>
      <trkpt lat="45.48058" lon="1.84921">
        <ele>827.8</ele>
        <time>2022-08-04T15:32:25Z</time>
      </trkpt>
      <trkpt lat="45.4806" lon="1.84925">
        <ele>827.7</ele>
        <time>2022-08-04T15:32:27Z</time>
      </trkpt>
      <trkpt lat="45.48058" lon="1.84929">
        <ele>828</ele>
        <time>2022-08-04T15:32:29Z</time>
      </trkpt>
      <trkpt lat="45.48056" lon="1.84932">
        <ele>828.3</ele>
        <time>2022-08-04T15:32:31Z</time>
      </trkpt>
      <trkpt lat="45.48054" lon="1.84934">
        <ele>828.5</ele>
        <time>2022-08-04T15:32:33Z</time>
      </trkpt>
      <trkpt lat="45.48051" lon="1.84938">
        <ele>829.1</ele>
        <time>2022-08-04T15:32:35Z</time>
      </trkpt>
      <trkpt lat="45.48046" lon="1.8494">
        <ele>829.8</ele>
        <time>2022-08-04T15:32:37Z</time>
      </trkpt>
      <trkpt lat="45.48042" lon="1.84941">
        <ele>830.4</ele>
        <time>2022-08-04T15:32:39Z</time>
      </trkpt>
      <trkpt lat="45.48039" lon="1.8494">
        <ele>830.7</ele>
        <time>2022-08-04T15:32:41Z</time>
      </trkpt>
      <trkpt lat="45.48036" lon="1.84937">
        <ele>831</ele>
        <time>2022-08-04T15:32:43Z</time>
      </trkpt>
      <trkpt lat="45.48033" lon="1.84937">
        <ele>831.4</ele>
        <time>2022-08-04T15:32:45Z</time>
      </trkpt>
      <trkpt lat="45.4803" lon="1.84933">
        <ele>831.6</ele>
        <time>2022-08-04T15:32:47Z</time>
      </trkpt>
      <trkpt lat="45.48027" lon="1.8493">
        <ele>831.7</ele>
        <time>2022-08-04T15:32:49Z</time>
      </trkpt>
      <trkpt lat="45.48025" lon="1.84924">
        <ele>831.7</ele>
        <time>2022-08-04T15:32:51Z</time>
      </trkpt>
      <trkpt lat="45.48024" lon="1.84918">
        <ele>831.5</ele>
        <time>2022-08-04T15:32:53Z</time>
      </trkpt>
      <trkpt lat="45.48021" lon="1.84914">
        <ele>831.6</ele>
        <time>2022-08-04T15:32:55Z</time>
      </trkpt>
      <trkpt lat="45.48019" lon="1.84909">
        <ele>831.5</ele>
        <time>2022-08-04T15:32:57Z</time>
      </trkpt>
      <trkpt lat="45.48018" lon="1.84904">
        <ele>831.4</ele>
        <time>2022-08-04T15:32:59Z</time>
      </trkpt>
      <trkpt lat="45.48017" lon="1.84899">
        <ele>831.3</ele>
        <time>2022-08-04T15:33:01Z</time>
      </trkpt>
      <trkpt lat="45.48014" lon="1.84895">
        <ele>831.4</ele>
        <time>2022-08-04T15:33:03Z</time>
      </trkpt>
      <trkpt lat="45.48011" lon="1.8489">
        <ele>831.4</ele>
        <time>2022-08-04T15:33:05Z</time>
      </trkpt>
      <trkpt lat="45.48009" lon="1.84887">
        <ele>831.5</ele>
        <time>2022-08-04T15:33:07Z</time>
      </trkpt>
      <trkpt lat="45.48007" lon="1.8488">
        <ele>831.5</ele>
        <time>2022-08-04T15:33:09Z</time>
      </trkpt>
      <trkpt lat="45.48005" lon="1.84876">
        <ele>831.5</ele>
        <time>2022-08-04T15:33:11Z</time>
      </trkpt>
      <trkpt lat="45.48001" lon="1.84873">
        <ele>831.8</ele>
        <time>2022-08-04T15:33:13Z</time>
      </trkpt>
      <trkpt lat="45.47999" lon="1.8487">
        <ele>832</ele>
        <time>2022-08-04T15:33:15Z</time>
      </trkpt>
      <trkpt lat="45.47996" lon="1.84866">
        <ele>832.5</ele>
        <time>2022-08-04T15:33:17Z</time>
      </trkpt>
      <trkpt lat="45.47992" lon="1.84863">
        <ele>833.1</ele>
        <time>2022-08-04T15:33:19Z</time>
      </trkpt>
      <trkpt lat="45.4799" lon="1.84859">
        <ele>833.4</ele>
        <time>2022-08-04T15:33:21Z</time>
      </trkpt>
      <trkpt lat="45.47987" lon="1.84856">
        <ele>834</ele>
        <time>2022-08-04T15:33:23Z</time>
      </trkpt>
      <trkpt lat="45.47983" lon="1.84853">
        <ele>834.5</ele>
        <time>2022-08-04T15:33:25Z</time>
      </trkpt>
      <trkpt lat="45.4798" lon="1.8485">
        <ele>835</ele>
        <time>2022-08-04T15:33:27Z</time>
      </trkpt>
      <trkpt lat="45.47977" lon="1.84846">
        <ele>835.5</ele>
        <time>2022-08-04T15:33:29Z</time>
      </trkpt>
      <trkpt lat="45.47974" lon="1.84843">
        <ele>835.8</ele>
        <time>2022-08-04T15:33:31Z</time>
      </trkpt>
      <trkpt lat="45.47972" lon="1.84839">
        <ele>836</ele>
        <time>2022-08-04T15:33:33Z</time>
      </trkpt>
      <trkpt lat="45.47969" lon="1.84836">
        <ele>836.5</ele>
        <time>2022-08-04T15:33:35Z</time>
      </trkpt>
      <trkpt lat="45.47966" lon="1.84833">
        <ele>836.9</ele>
        <time>2022-08-04T15:33:37Z</time>
      </trkpt>
      <trkpt lat="45.47964" lon="1.8483">
        <ele>837</ele>
        <time>2022-08-04T15:33:39Z</time>
      </trkpt>
      <trkpt lat="45.47961" lon="1.84826">
        <ele>837.1</ele>
        <time>2022-08-04T15:33:41Z</time>
      </trkpt>
      <trkpt lat="45.47958" lon="1.84823">
        <ele>837.3</ele>
        <time>2022-08-04T15:33:43Z</time>
      </trkpt>
      <trkpt lat="45.47956" lon="1.84821">
        <ele>837.5</ele>
        <time>2022-08-04T15:33:45Z</time>
      </trkpt>
      <trkpt lat="45.47953" lon="1.84818">
        <ele>837.8</ele>
        <time>2022-08-04T15:33:47Z</time>
      </trkpt>
      <trkpt lat="45.4795" lon="1.84815">
        <ele>838.1</ele>
        <time>2022-08-04T15:33:49Z</time>
      </trkpt>
      <trkpt lat="45.47946" lon="1.84812">
        <ele>838.5</ele>
        <time>2022-08-04T15:33:51Z</time>
      </trkpt>
      <trkpt lat="45.47944" lon="1.84809">
        <ele>838.6</ele>
        <time>2022-08-04T15:33:53Z</time>
      </trkpt>
      <trkpt lat="45.47941" lon="1.84807">
        <ele>838.9</ele>
        <time>2022-08-04T15:33:55Z</time>
      </trkpt>
      <trkpt lat="45.47939" lon="1.84804">
        <ele>839</ele>
        <time>2022-08-04T15:33:57Z</time>
      </trkpt>
      <trkpt lat="45.47936" lon="1.848">
        <ele>839.2</ele>
        <time>2022-08-04T15:33:59Z</time>
      </trkpt>
      <trkpt lat="45.47932" lon="1.84797">
        <ele>839.5</ele>
        <time>2022-08-04T15:34:01Z</time>
      </trkpt>
      <trkpt lat="45.4793" lon="1.84793">
        <ele>839.6</ele>
        <time>2022-08-04T15:34:03Z</time>
      </trkpt>
      <trkpt lat="45.47927" lon="1.8479">
        <ele>839.8</ele>
        <time>2022-08-04T15:34:05Z</time>
      </trkpt>
      <trkpt lat="45.47924" lon="1.84786">
        <ele>839.8</ele>
        <time>2022-08-04T15:34:07Z</time>
      </trkpt>
      <trkpt lat="45.47922" lon="1.84781">
        <ele>839.8</ele>
        <time>2022-08-04T15:34:09Z</time>
      </trkpt>
      <trkpt lat="45.47918" lon="1.84779">
        <ele>840.2</ele>
        <time>2022-08-04T15:34:11Z</time>
      </trkpt>
      <trkpt lat="45.47916" lon="1.84777">
        <ele>840.2</ele>
        <time>2022-08-04T15:34:13Z</time>
      </trkpt>
      <trkpt lat="45.47914" lon="1.84775">
        <ele>839.9</ele>
        <time>2022-08-04T15:34:15Z</time>
      </trkpt>
      <trkpt lat="45.47912" lon="1.84774">
        <ele>839.7</ele>
        <time>2022-08-04T15:34:17Z</time>
      </trkpt>
      <trkpt lat="45.4791" lon="1.84775">
        <ele>839.7</ele>
        <time>2022-08-04T15:34:19Z</time>
      </trkpt>
      <trkpt lat="45.47907" lon="1.84775">
        <ele>839.6</ele>
        <time>2022-08-04T15:34:21Z</time>
      </trkpt>
      <trkpt lat="45.47904" lon="1.84774">
        <ele>839.5</ele>
        <time>2022-08-04T15:34:23Z</time>
      </trkpt>
      <trkpt lat="45.47902" lon="1.84775">
        <ele>839.5</ele>
        <time>2022-08-04T15:34:25Z</time>
      </trkpt>
      <trkpt lat="45.47898" lon="1.84776">
        <ele>839.5</ele>
        <time>2022-08-04T15:34:27Z</time>
      </trkpt>
      <trkpt lat="45.47895" lon="1.84776">
        <ele>839.3</ele>
        <time>2022-08-04T15:34:29Z</time>
      </trkpt>
      <trkpt lat="45.47892" lon="1.84777">
        <ele>839.3</ele>
        <time>2022-08-04T15:34:31Z</time>
      </trkpt>
      <trkpt lat="45.4789" lon="1.84777">
        <ele>839.2</ele>
        <time>2022-08-04T15:34:33Z</time>
      </trkpt>
      <trkpt lat="45.47887" lon="1.84778">
        <ele>839.3</ele>
        <time>2022-08-04T15:34:35Z</time>
      </trkpt>
      <trkpt lat="45.47885" lon="1.84779">
        <ele>839.3</ele>
        <time>2022-08-04T15:34:37Z</time>
      </trkpt>
      <trkpt lat="45.47882" lon="1.8478">
        <ele>839.3</ele>
        <time>2022-08-04T15:34:39Z</time>
      </trkpt>
      <trkpt lat="45.47879" lon="1.84782">
        <ele>839.5</ele>
        <time>2022-08-04T15:34:41Z</time>
      </trkpt>
      <trkpt lat="45.47876" lon="1.84782">
        <ele>839.4</ele>
        <time>2022-08-04T15:34:43Z</time>
      </trkpt>
      <trkpt lat="45.47873" lon="1.84782">
        <ele>839.2</ele>
        <time>2022-08-04T15:34:45Z</time>
      </trkpt>
      <trkpt lat="45.4787" lon="1.84784">
        <ele>839.3</ele>
        <time>2022-08-04T15:34:47Z</time>
      </trkpt>
      <trkpt lat="45.47866" lon="1.84785">
        <ele>839.4</ele>
        <time>2022-08-04T15:34:49Z</time>
      </trkpt>
      <trkpt lat="45.47862" lon="1.84786">
        <ele>839.4</ele>
        <time>2022-08-04T15:34:51Z</time>
      </trkpt>
      <trkpt lat="45.47859" lon="1.84788">
        <ele>839.5</ele>
        <time>2022-08-04T15:34:53Z</time>
      </trkpt>
      <trkpt lat="45.47855" lon="1.84789">
        <ele>839.5</ele>
        <time>2022-08-04T15:34:55Z</time>
      </trkpt>
      <trkpt lat="45.47851" lon="1.84792">
        <ele>839.7</ele>
        <time>2022-08-04T15:34:57Z</time>
      </trkpt>
      <trkpt lat="45.47848" lon="1.84795">
        <ele>839.9</ele>
        <time>2022-08-04T15:34:59Z</time>
      </trkpt>
      <trkpt lat="45.47843" lon="1.84798">
        <ele>840.1</ele>
        <time>2022-08-04T15:35:01Z</time>
      </trkpt>
      <trkpt lat="45.47837" lon="1.84801">
        <ele>840.3</ele>
        <time>2022-08-04T15:35:03Z</time>
      </trkpt>
      <trkpt lat="45.47832" lon="1.84805">
        <ele>840.5</ele>
        <time>2022-08-04T15:35:05Z</time>
      </trkpt>
      <trkpt lat="45.47829" lon="1.84811">
        <ele>840.8</ele>
        <time>2022-08-04T15:35:07Z</time>
      </trkpt>
      <trkpt lat="45.47826" lon="1.84817">
        <ele>841.2</ele>
        <time>2022-08-04T15:35:09Z</time>
      </trkpt>
      <trkpt lat="45.47823" lon="1.84823">
        <ele>841.5</ele>
        <time>2022-08-04T15:35:11Z</time>
      </trkpt>
      <trkpt lat="45.47819" lon="1.84829">
        <ele>841.8</ele>
        <time>2022-08-04T15:35:13Z</time>
      </trkpt>
      <trkpt lat="45.47816" lon="1.84834">
        <ele>842</ele>
        <time>2022-08-04T15:35:15Z</time>
      </trkpt>
      <trkpt lat="45.47814" lon="1.84841">
        <ele>842.8</ele>
        <time>2022-08-04T15:35:17Z</time>
      </trkpt>
      <trkpt lat="45.4781" lon="1.84847">
        <ele>843.3</ele>
        <time>2022-08-04T15:35:19Z</time>
      </trkpt>
      <trkpt lat="45.47806" lon="1.84851">
        <ele>843.4</ele>
        <time>2022-08-04T15:35:21Z</time>
      </trkpt>
      <trkpt lat="45.47802" lon="1.84858">
        <ele>844</ele>
        <time>2022-08-04T15:35:23Z</time>
      </trkpt>
      <trkpt lat="45.478" lon="1.84863">
        <ele>844.6</ele>
        <time>2022-08-04T15:35:25Z</time>
      </trkpt>
      <trkpt lat="45.47797" lon="1.84869">
        <ele>845.2</ele>
        <time>2022-08-04T15:35:27Z</time>
      </trkpt>
      <trkpt lat="45.47794" lon="1.84877">
        <ele>846.1</ele>
        <time>2022-08-04T15:35:29Z</time>
      </trkpt>
      <trkpt lat="45.4779" lon="1.84884">
        <ele>846.7</ele>
        <time>2022-08-04T15:35:31Z</time>
      </trkpt>
      <trkpt lat="45.47786" lon="1.8489">
        <ele>847.3</ele>
        <time>2022-08-04T15:35:33Z</time>
      </trkpt>
      <trkpt lat="45.47782" lon="1.84896">
        <ele>847.7</ele>
        <time>2022-08-04T15:35:35Z</time>
      </trkpt>
      <trkpt lat="45.47778" lon="1.84901">
        <ele>848.1</ele>
        <time>2022-08-04T15:35:37Z</time>
      </trkpt>
      <trkpt lat="45.47775" lon="1.84905">
        <ele>848.6</ele>
        <time>2022-08-04T15:35:39Z</time>
      </trkpt>
      <trkpt lat="45.47773" lon="1.84907">
        <ele>848.7</ele>
        <time>2022-08-04T15:35:41Z</time>
      </trkpt>
      <trkpt lat="45.47772" lon="1.8491">
        <ele>849</ele>
        <time>2022-08-04T15:35:43Z</time>
      </trkpt>
      <trkpt lat="45.47767" lon="1.8491">
        <ele>848.6</ele>
        <time>2022-08-04T15:35:45Z</time>
      </trkpt>
      <trkpt lat="45.47763" lon="1.84913">
        <ele>848.7</ele>
        <time>2022-08-04T15:35:47Z</time>
      </trkpt>
      <trkpt lat="45.47754" lon="1.84916">
        <ele>848.3</ele>
        <time>2022-08-04T15:35:49Z</time>
      </trkpt>
      <trkpt lat="45.47747" lon="1.84916">
        <ele>848.1</ele>
        <time>2022-08-04T15:35:51Z</time>
      </trkpt>
      <trkpt lat="45.4774" lon="1.84916">
        <ele>848.7</ele>
        <time>2022-08-04T15:35:53Z</time>
      </trkpt>
      <trkpt lat="45.47732" lon="1.84915">
        <ele>849.2</ele>
        <time>2022-08-04T15:35:55Z</time>
      </trkpt>
      <trkpt lat="45.47725" lon="1.84911">
        <ele>849.1</ele>
        <time>2022-08-04T15:35:57Z</time>
      </trkpt>
      <trkpt lat="45.47719" lon="1.84907">
        <ele>849</ele>
        <time>2022-08-04T15:35:59Z</time>
      </trkpt>
      <trkpt lat="45.47714" lon="1.84902">
        <ele>848.6</ele>
        <time>2022-08-04T15:36:01Z</time>
      </trkpt>
      <trkpt lat="45.4771" lon="1.84897">
        <ele>848.2</ele>
        <time>2022-08-04T15:36:03Z</time>
      </trkpt>
      <trkpt lat="45.47705" lon="1.84893">
        <ele>847.9</ele>
        <time>2022-08-04T15:36:05Z</time>
      </trkpt>
      <trkpt lat="45.477" lon="1.84886">
        <ele>847.3</ele>
        <time>2022-08-04T15:36:07Z</time>
      </trkpt>
      <trkpt lat="45.47695" lon="1.8488">
        <ele>846.8</ele>
        <time>2022-08-04T15:36:09Z</time>
      </trkpt>
      <trkpt lat="45.47691" lon="1.84875">
        <ele>846.2</ele>
        <time>2022-08-04T15:36:11Z</time>
      </trkpt>
      <trkpt lat="45.47686" lon="1.84871">
        <ele>846.1</ele>
        <time>2022-08-04T15:36:13Z</time>
      </trkpt>
      <trkpt lat="45.47681" lon="1.84866">
        <ele>845.8</ele>
        <time>2022-08-04T15:36:15Z</time>
      </trkpt>
      <trkpt lat="45.47678" lon="1.84861">
        <ele>845.3</ele>
        <time>2022-08-04T15:36:17Z</time>
      </trkpt>
      <trkpt lat="45.47675" lon="1.84856">
        <ele>844.9</ele>
        <time>2022-08-04T15:36:19Z</time>
      </trkpt>
      <trkpt lat="45.47671" lon="1.8485">
        <ele>844.3</ele>
        <time>2022-08-04T15:36:21Z</time>
      </trkpt>
      <trkpt lat="45.47667" lon="1.84846">
        <ele>844.1</ele>
        <time>2022-08-04T15:36:23Z</time>
      </trkpt>
      <trkpt lat="45.47663" lon="1.84842">
        <ele>843.7</ele>
        <time>2022-08-04T15:36:25Z</time>
      </trkpt>
      <trkpt lat="45.47658" lon="1.84838">
        <ele>843.5</ele>
        <time>2022-08-04T15:36:27Z</time>
      </trkpt>
      <trkpt lat="45.47654" lon="1.84833">
        <ele>843</ele>
        <time>2022-08-04T15:36:29Z</time>
      </trkpt>
      <trkpt lat="45.47651" lon="1.8483">
        <ele>843.1</ele>
        <time>2022-08-04T15:36:31Z</time>
      </trkpt>
      <trkpt lat="45.47646" lon="1.84824">
        <ele>843.1</ele>
        <time>2022-08-04T15:36:33Z</time>
      </trkpt>
      <trkpt lat="45.47642" lon="1.8482">
        <ele>843.1</ele>
        <time>2022-08-04T15:36:35Z</time>
      </trkpt>
      <trkpt lat="45.47638" lon="1.84814">
        <ele>843</ele>
        <time>2022-08-04T15:36:37Z</time>
      </trkpt>
      <trkpt lat="45.47633" lon="1.84811">
        <ele>843.2</ele>
        <time>2022-08-04T15:36:39Z</time>
      </trkpt>
      <trkpt lat="45.47629" lon="1.84804">
        <ele>843.1</ele>
        <time>2022-08-04T15:36:41Z</time>
      </trkpt>
      <trkpt lat="45.47623" lon="1.848">
        <ele>843.3</ele>
        <time>2022-08-04T15:36:43Z</time>
      </trkpt>
      <trkpt lat="45.47618" lon="1.84795">
        <ele>843.4</ele>
        <time>2022-08-04T15:36:45Z</time>
      </trkpt>
      <trkpt lat="45.47613" lon="1.84792">
        <ele>843.5</ele>
        <time>2022-08-04T15:36:47Z</time>
      </trkpt>
      <trkpt lat="45.47608" lon="1.8479">
        <ele>843.8</ele>
        <time>2022-08-04T15:36:49Z</time>
      </trkpt>
      <trkpt lat="45.47604" lon="1.8479">
        <ele>844.1</ele>
        <time>2022-08-04T15:36:51Z</time>
      </trkpt>
      <trkpt lat="45.47601" lon="1.84789">
        <ele>844.3</ele>
        <time>2022-08-04T15:36:53Z</time>
      </trkpt>
      <trkpt lat="45.47598" lon="1.84791">
        <ele>844.8</ele>
        <time>2022-08-04T15:36:55Z</time>
      </trkpt>
      <trkpt lat="45.47595" lon="1.84794">
        <ele>845.2</ele>
        <time>2022-08-04T15:36:57Z</time>
      </trkpt>
      <trkpt lat="45.47591" lon="1.84797">
        <ele>845.7</ele>
        <time>2022-08-04T15:36:59Z</time>
      </trkpt>
      <trkpt lat="45.47588" lon="1.84799">
        <ele>846.2</ele>
        <time>2022-08-04T15:37:01Z</time>
      </trkpt>
      <trkpt lat="45.47585" lon="1.84802">
        <ele>846.6</ele>
        <time>2022-08-04T15:37:03Z</time>
      </trkpt>
      <trkpt lat="45.47583" lon="1.84806">
        <ele>847</ele>
        <time>2022-08-04T15:37:05Z</time>
      </trkpt>
      <trkpt lat="45.4758" lon="1.8481">
        <ele>847.2</ele>
        <time>2022-08-04T15:37:07Z</time>
      </trkpt>
      <trkpt lat="45.47578" lon="1.84813">
        <ele>847.3</ele>
        <time>2022-08-04T15:37:09Z</time>
      </trkpt>
      <trkpt lat="45.47576" lon="1.84817">
        <ele>847.5</ele>
        <time>2022-08-04T15:37:11Z</time>
      </trkpt>
      <trkpt lat="45.47573" lon="1.84822">
        <ele>847.8</ele>
        <time>2022-08-04T15:37:13Z</time>
      </trkpt>
      <trkpt lat="45.4757" lon="1.84827">
        <ele>847.9</ele>
        <time>2022-08-04T15:37:15Z</time>
      </trkpt>
      <trkpt lat="45.47568" lon="1.8483">
        <ele>848.1</ele>
        <time>2022-08-04T15:37:17Z</time>
      </trkpt>
      <trkpt lat="45.47566" lon="1.84834">
        <ele>848.2</ele>
        <time>2022-08-04T15:37:19Z</time>
      </trkpt>
      <trkpt lat="45.47563" lon="1.84838">
        <ele>848.7</ele>
        <time>2022-08-04T15:37:21Z</time>
      </trkpt>
      <trkpt lat="45.47561" lon="1.84842">
        <ele>849</ele>
        <time>2022-08-04T15:37:23Z</time>
      </trkpt>
      <trkpt lat="45.47559" lon="1.84845">
        <ele>849.4</ele>
        <time>2022-08-04T15:37:25Z</time>
      </trkpt>
      <trkpt lat="45.47558" lon="1.84849">
        <ele>849.7</ele>
        <time>2022-08-04T15:37:27Z</time>
      </trkpt>
      <trkpt lat="45.47555" lon="1.84853">
        <ele>850.1</ele>
        <time>2022-08-04T15:37:29Z</time>
      </trkpt>
      <trkpt lat="45.47552" lon="1.84857">
        <ele>850.4</ele>
        <time>2022-08-04T15:37:31Z</time>
      </trkpt>
      <trkpt lat="45.4755" lon="1.8486">
        <ele>850.7</ele>
        <time>2022-08-04T15:37:33Z</time>
      </trkpt>
      <trkpt lat="45.47549" lon="1.84863">
        <ele>850.9</ele>
        <time>2022-08-04T15:37:35Z</time>
      </trkpt>
      <trkpt lat="45.47546" lon="1.84867">
        <ele>851.2</ele>
        <time>2022-08-04T15:37:37Z</time>
      </trkpt>
      <trkpt lat="45.47545" lon="1.84871">
        <ele>851.6</ele>
        <time>2022-08-04T15:37:39Z</time>
      </trkpt>
      <trkpt lat="45.47543" lon="1.84874">
        <ele>851.8</ele>
        <time>2022-08-04T15:37:41Z</time>
      </trkpt>
      <trkpt lat="45.47541" lon="1.84879">
        <ele>852.1</ele>
        <time>2022-08-04T15:37:43Z</time>
      </trkpt>
      <trkpt lat="45.4754" lon="1.84883">
        <ele>852.5</ele>
        <time>2022-08-04T15:37:45Z</time>
      </trkpt>
      <trkpt lat="45.47537" lon="1.84888">
        <ele>852.8</ele>
        <time>2022-08-04T15:37:47Z</time>
      </trkpt>
      <trkpt lat="45.47535" lon="1.84891">
        <ele>853</ele>
        <time>2022-08-04T15:37:49Z</time>
      </trkpt>
      <trkpt lat="45.47534" lon="1.84894">
        <ele>853.2</ele>
        <time>2022-08-04T15:37:51Z</time>
      </trkpt>
      <trkpt lat="45.47532" lon="1.84898">
        <ele>853.5</ele>
        <time>2022-08-04T15:37:53Z</time>
      </trkpt>
      <trkpt lat="45.47531" lon="1.84901">
        <ele>853.7</ele>
        <time>2022-08-04T15:37:55Z</time>
      </trkpt>
      <trkpt lat="45.4753" lon="1.84906">
        <ele>854.1</ele>
        <time>2022-08-04T15:37:57Z</time>
      </trkpt>
      <trkpt lat="45.47529" lon="1.8491">
        <ele>854.4</ele>
        <time>2022-08-04T15:37:59Z</time>
      </trkpt>
      <trkpt lat="45.47528" lon="1.84913">
        <ele>854.6</ele>
        <time>2022-08-04T15:38:01Z</time>
      </trkpt>
      <trkpt lat="45.47527" lon="1.84918">
        <ele>855</ele>
        <time>2022-08-04T15:38:03Z</time>
      </trkpt>
      <trkpt lat="45.47525" lon="1.84922">
        <ele>855.4</ele>
        <time>2022-08-04T15:38:05Z</time>
      </trkpt>
      <trkpt lat="45.47523" lon="1.84927">
        <ele>855.8</ele>
        <time>2022-08-04T15:38:07Z</time>
      </trkpt>
      <trkpt lat="45.47522" lon="1.84931">
        <ele>856.1</ele>
        <time>2022-08-04T15:38:09Z</time>
      </trkpt>
      <trkpt lat="45.4752" lon="1.84937">
        <ele>856.7</ele>
        <time>2022-08-04T15:38:11Z</time>
      </trkpt>
      <trkpt lat="45.4752" lon="1.84942">
        <ele>857.2</ele>
        <time>2022-08-04T15:38:13Z</time>
      </trkpt>
      <trkpt lat="45.47518" lon="1.84947">
        <ele>857.7</ele>
        <time>2022-08-04T15:38:15Z</time>
      </trkpt>
      <trkpt lat="45.47516" lon="1.84953">
        <ele>858.2</ele>
        <time>2022-08-04T15:38:17Z</time>
      </trkpt>
      <trkpt lat="45.47515" lon="1.84958">
        <ele>858.6</ele>
        <time>2022-08-04T15:38:19Z</time>
      </trkpt>
      <trkpt lat="45.47513" lon="1.84963">
        <ele>859.1</ele>
        <time>2022-08-04T15:38:21Z</time>
      </trkpt>
      <trkpt lat="45.47512" lon="1.84968">
        <ele>859.6</ele>
        <time>2022-08-04T15:38:23Z</time>
      </trkpt>
      <trkpt lat="45.47511" lon="1.84975">
        <ele>860.2</ele>
        <time>2022-08-04T15:38:25Z</time>
      </trkpt>
      <trkpt lat="45.4751" lon="1.8498">
        <ele>860.8</ele>
        <time>2022-08-04T15:38:27Z</time>
      </trkpt>
      <trkpt lat="45.47509" lon="1.84985">
        <ele>861.3</ele>
        <time>2022-08-04T15:38:29Z</time>
      </trkpt>
      <trkpt lat="45.47508" lon="1.8499">
        <ele>861.8</ele>
        <time>2022-08-04T15:38:31Z</time>
      </trkpt>
      <trkpt lat="45.47507" lon="1.84995">
        <ele>862.3</ele>
        <time>2022-08-04T15:38:33Z</time>
      </trkpt>
      <trkpt lat="45.47506" lon="1.85001">
        <ele>862.7</ele>
        <time>2022-08-04T15:38:35Z</time>
      </trkpt>
      <trkpt lat="45.47505" lon="1.85005">
        <ele>863</ele>
        <time>2022-08-04T15:38:37Z</time>
      </trkpt>
      <trkpt lat="45.47503" lon="1.85011">
        <ele>863.3</ele>
        <time>2022-08-04T15:38:39Z</time>
      </trkpt>
      <trkpt lat="45.47502" lon="1.85016">
        <ele>863.6</ele>
        <time>2022-08-04T15:38:41Z</time>
      </trkpt>
      <trkpt lat="45.475" lon="1.8502">
        <ele>863.7</ele>
        <time>2022-08-04T15:38:43Z</time>
      </trkpt>
      <trkpt lat="45.47499" lon="1.85025">
        <ele>864.1</ele>
        <time>2022-08-04T15:38:45Z</time>
      </trkpt>
      <trkpt lat="45.47496" lon="1.8503">
        <ele>864.3</ele>
        <time>2022-08-04T15:38:47Z</time>
      </trkpt>
      <trkpt lat="45.47494" lon="1.85035">
        <ele>864.6</ele>
        <time>2022-08-04T15:38:49Z</time>
      </trkpt>
      <trkpt lat="45.47492" lon="1.8504">
        <ele>864.9</ele>
        <time>2022-08-04T15:38:51Z</time>
      </trkpt>
      <trkpt lat="45.4749" lon="1.85045">
        <ele>865.2</ele>
        <time>2022-08-04T15:38:53Z</time>
      </trkpt>
      <trkpt lat="45.47487" lon="1.85049">
        <ele>865.5</ele>
        <time>2022-08-04T15:38:55Z</time>
      </trkpt>
      <trkpt lat="45.47484" lon="1.85053">
        <ele>865.7</ele>
        <time>2022-08-04T15:38:57Z</time>
      </trkpt>
      <trkpt lat="45.4748" lon="1.85057">
        <ele>865.8</ele>
        <time>2022-08-04T15:38:59Z</time>
      </trkpt>
      <trkpt lat="45.47476" lon="1.8506">
        <ele>865.9</ele>
        <time>2022-08-04T15:39:01Z</time>
      </trkpt>
      <trkpt lat="45.47472" lon="1.85062">
        <ele>866</ele>
        <time>2022-08-04T15:39:03Z</time>
      </trkpt>
      <trkpt lat="45.47468" lon="1.85065">
        <ele>866</ele>
        <time>2022-08-04T15:39:05Z</time>
      </trkpt>
      <trkpt lat="45.47463" lon="1.85066">
        <ele>866</ele>
        <time>2022-08-04T15:39:07Z</time>
      </trkpt>
      <trkpt lat="45.47458" lon="1.85068">
        <ele>865.9</ele>
        <time>2022-08-04T15:39:09Z</time>
      </trkpt>
      <trkpt lat="45.47454" lon="1.85069">
        <ele>865.8</ele>
        <time>2022-08-04T15:39:11Z</time>
      </trkpt>
      <trkpt lat="45.4745" lon="1.85069">
        <ele>865.7</ele>
        <time>2022-08-04T15:39:13Z</time>
      </trkpt>
      <trkpt lat="45.47446" lon="1.85068">
        <ele>865.4</ele>
        <time>2022-08-04T15:39:15Z</time>
      </trkpt>
      <trkpt lat="45.47441" lon="1.85068">
        <ele>865.2</ele>
        <time>2022-08-04T15:39:17Z</time>
      </trkpt>
      <trkpt lat="45.47438" lon="1.85067">
        <ele>864.9</ele>
        <time>2022-08-04T15:39:19Z</time>
      </trkpt>
      <trkpt lat="45.47434" lon="1.85066">
        <ele>864.7</ele>
        <time>2022-08-04T15:39:21Z</time>
      </trkpt>
      <trkpt lat="45.4743" lon="1.85065">
        <ele>864.4</ele>
        <time>2022-08-04T15:39:23Z</time>
      </trkpt>
      <trkpt lat="45.47427" lon="1.85064">
        <ele>864.1</ele>
        <time>2022-08-04T15:39:25Z</time>
      </trkpt>
      <trkpt lat="45.47424" lon="1.85062">
        <ele>863.8</ele>
        <time>2022-08-04T15:39:27Z</time>
      </trkpt>
      <trkpt lat="45.4742" lon="1.85061">
        <ele>863.5</ele>
        <time>2022-08-04T15:39:29Z</time>
      </trkpt>
      <trkpt lat="45.47416" lon="1.85059">
        <ele>863.2</ele>
        <time>2022-08-04T15:39:31Z</time>
      </trkpt>
      <trkpt lat="45.47412" lon="1.85057">
        <ele>863.3</ele>
        <time>2022-08-04T15:39:33Z</time>
      </trkpt>
      <trkpt lat="45.47408" lon="1.85056">
        <ele>863.5</ele>
        <time>2022-08-04T15:39:35Z</time>
      </trkpt>
      <trkpt lat="45.47405" lon="1.85054">
        <ele>863.7</ele>
        <time>2022-08-04T15:39:37Z</time>
      </trkpt>
      <trkpt lat="45.47401" lon="1.85053">
        <ele>863.9</ele>
        <time>2022-08-04T15:39:39Z</time>
      </trkpt>
      <trkpt lat="45.47396" lon="1.85052">
        <ele>864.4</ele>
        <time>2022-08-04T15:39:41Z</time>
      </trkpt>
      <trkpt lat="45.47392" lon="1.85052">
        <ele>864.8</ele>
        <time>2022-08-04T15:39:43Z</time>
      </trkpt>
      <trkpt lat="45.47388" lon="1.85051">
        <ele>865.1</ele>
        <time>2022-08-04T15:39:45Z</time>
      </trkpt>
      <trkpt lat="45.47384" lon="1.85051">
        <ele>865.4</ele>
        <time>2022-08-04T15:39:47Z</time>
      </trkpt>
      <trkpt lat="45.47379" lon="1.85048">
        <ele>865.7</ele>
        <time>2022-08-04T15:39:49Z</time>
      </trkpt>
      <trkpt lat="45.47374" lon="1.85046">
        <ele>865.9</ele>
        <time>2022-08-04T15:39:51Z</time>
      </trkpt>
      <trkpt lat="45.4737" lon="1.85044">
        <ele>866.3</ele>
        <time>2022-08-04T15:39:53Z</time>
      </trkpt>
      <trkpt lat="45.47365" lon="1.85042">
        <ele>866.7</ele>
        <time>2022-08-04T15:39:55Z</time>
      </trkpt>
      <trkpt lat="45.4736" lon="1.8504">
        <ele>867</ele>
        <time>2022-08-04T15:39:57Z</time>
      </trkpt>
      <trkpt lat="45.47356" lon="1.85038">
        <ele>867.2</ele>
        <time>2022-08-04T15:39:59Z</time>
      </trkpt>
      <trkpt lat="45.47353" lon="1.85036">
        <ele>867.5</ele>
        <time>2022-08-04T15:40:01Z</time>
      </trkpt>
      <trkpt lat="45.47348" lon="1.85032">
        <ele>867.6</ele>
        <time>2022-08-04T15:40:03Z</time>
      </trkpt>
      <trkpt lat="45.47343" lon="1.85028">
        <ele>867.8</ele>
        <time>2022-08-04T15:40:05Z</time>
      </trkpt>
      <trkpt lat="45.47341" lon="1.85024">
        <ele>867.8</ele>
        <time>2022-08-04T15:40:07Z</time>
      </trkpt>
      <trkpt lat="45.47338" lon="1.85018">
        <ele>867.7</ele>
        <time>2022-08-04T15:40:09Z</time>
      </trkpt>
      <trkpt lat="45.47337" lon="1.85012">
        <ele>867.4</ele>
        <time>2022-08-04T15:40:11Z</time>
      </trkpt>
      <trkpt lat="45.47335" lon="1.85006">
        <ele>867.2</ele>
        <time>2022-08-04T15:40:13Z</time>
      </trkpt>
      <trkpt lat="45.47334" lon="1.85">
        <ele>866.9</ele>
        <time>2022-08-04T15:40:15Z</time>
      </trkpt>
      <trkpt lat="45.47333" lon="1.84993">
        <ele>867</ele>
        <time>2022-08-04T15:40:17Z</time>
      </trkpt>
      <trkpt lat="45.47332" lon="1.84988">
        <ele>867.2</ele>
        <time>2022-08-04T15:40:19Z</time>
      </trkpt>
      <trkpt lat="45.47331" lon="1.84983">
        <ele>867.3</ele>
        <time>2022-08-04T15:40:21Z</time>
      </trkpt>
      <trkpt lat="45.47329" lon="1.84976">
        <ele>867.5</ele>
        <time>2022-08-04T15:40:23Z</time>
      </trkpt>
      <trkpt lat="45.47328" lon="1.84971">
        <ele>867.6</ele>
        <time>2022-08-04T15:40:25Z</time>
      </trkpt>
      <trkpt lat="45.47327" lon="1.84965">
        <ele>867.8</ele>
        <time>2022-08-04T15:40:27Z</time>
      </trkpt>
      <trkpt lat="45.47326" lon="1.8496">
        <ele>867.9</ele>
        <time>2022-08-04T15:40:29Z</time>
      </trkpt>
      <trkpt lat="45.47325" lon="1.84954">
        <ele>868</ele>
        <time>2022-08-04T15:40:31Z</time>
      </trkpt>
      <trkpt lat="45.47324" lon="1.84949">
        <ele>868</ele>
        <time>2022-08-04T15:40:33Z</time>
      </trkpt>
      <trkpt lat="45.47323" lon="1.84944">
        <ele>868.1</ele>
        <time>2022-08-04T15:40:35Z</time>
      </trkpt>
      <trkpt lat="45.47322" lon="1.84939">
        <ele>868.2</ele>
        <time>2022-08-04T15:40:37Z</time>
      </trkpt>
      <trkpt lat="45.47321" lon="1.84934">
        <ele>868.3</ele>
        <time>2022-08-04T15:40:39Z</time>
      </trkpt>
      <trkpt lat="45.4732" lon="1.84929">
        <ele>868.4</ele>
        <time>2022-08-04T15:40:41Z</time>
      </trkpt>
      <trkpt lat="45.4732" lon="1.84924">
        <ele>868.4</ele>
        <time>2022-08-04T15:40:43Z</time>
      </trkpt>
      <trkpt lat="45.47319" lon="1.84918">
        <ele>868.4</ele>
        <time>2022-08-04T15:40:45Z</time>
      </trkpt>
      <trkpt lat="45.47318" lon="1.84912">
        <ele>868.6</ele>
        <time>2022-08-04T15:40:47Z</time>
      </trkpt>
      <trkpt lat="45.47317" lon="1.84907">
        <ele>868.8</ele>
        <time>2022-08-04T15:40:49Z</time>
      </trkpt>
      <trkpt lat="45.47316" lon="1.84901">
        <ele>869.1</ele>
        <time>2022-08-04T15:40:51Z</time>
      </trkpt>
      <trkpt lat="45.47315" lon="1.84897">
        <ele>869.3</ele>
        <time>2022-08-04T15:40:53Z</time>
      </trkpt>
      <trkpt lat="45.47314" lon="1.84891">
        <ele>869.5</ele>
        <time>2022-08-04T15:40:55Z</time>
      </trkpt>
      <trkpt lat="45.47314" lon="1.84886">
        <ele>869.6</ele>
        <time>2022-08-04T15:40:57Z</time>
      </trkpt>
      <trkpt lat="45.47312" lon="1.84881">
        <ele>869.9</ele>
        <time>2022-08-04T15:40:59Z</time>
      </trkpt>
      <trkpt lat="45.47311" lon="1.84875">
        <ele>870</ele>
        <time>2022-08-04T15:41:01Z</time>
      </trkpt>
      <trkpt lat="45.4731" lon="1.8487">
        <ele>870.2</ele>
        <time>2022-08-04T15:41:03Z</time>
      </trkpt>
      <trkpt lat="45.47309" lon="1.84865">
        <ele>870.3</ele>
        <time>2022-08-04T15:41:05Z</time>
      </trkpt>
      <trkpt lat="45.47308" lon="1.84859">
        <ele>870.5</ele>
        <time>2022-08-04T15:41:07Z</time>
      </trkpt>
      <trkpt lat="45.47307" lon="1.84853">
        <ele>870.6</ele>
        <time>2022-08-04T15:41:09Z</time>
      </trkpt>
      <trkpt lat="45.47305" lon="1.84847">
        <ele>870.7</ele>
        <time>2022-08-04T15:41:11Z</time>
      </trkpt>
      <trkpt lat="45.47304" lon="1.84841">
        <ele>870.8</ele>
        <time>2022-08-04T15:41:13Z</time>
      </trkpt>
      <trkpt lat="45.47303" lon="1.84836">
        <ele>870.8</ele>
        <time>2022-08-04T15:41:15Z</time>
      </trkpt>
      <trkpt lat="45.47302" lon="1.8483">
        <ele>870.9</ele>
        <time>2022-08-04T15:41:17Z</time>
      </trkpt>
      <trkpt lat="45.47301" lon="1.84825">
        <ele>870.9</ele>
        <time>2022-08-04T15:41:19Z</time>
      </trkpt>
      <trkpt lat="45.47299" lon="1.84819">
        <ele>870.9</ele>
        <time>2022-08-04T15:41:21Z</time>
      </trkpt>
      <trkpt lat="45.47298" lon="1.84812">
        <ele>870.9</ele>
        <time>2022-08-04T15:41:23Z</time>
      </trkpt>
      <trkpt lat="45.47297" lon="1.84805">
        <ele>870.9</ele>
        <time>2022-08-04T15:41:25Z</time>
      </trkpt>
      <trkpt lat="45.47295" lon="1.84799">
        <ele>870.9</ele>
        <time>2022-08-04T15:41:27Z</time>
      </trkpt>
      <trkpt lat="45.47295" lon="1.84793">
        <ele>870.9</ele>
        <time>2022-08-04T15:41:29Z</time>
      </trkpt>
      <trkpt lat="45.47293" lon="1.84786">
        <ele>870.9</ele>
        <time>2022-08-04T15:41:31Z</time>
      </trkpt>
      <trkpt lat="45.47291" lon="1.8478">
        <ele>870.9</ele>
        <time>2022-08-04T15:41:33Z</time>
      </trkpt>
      <trkpt lat="45.47289" lon="1.84773">
        <ele>870.9</ele>
        <time>2022-08-04T15:41:35Z</time>
      </trkpt>
      <trkpt lat="45.47287" lon="1.84767">
        <ele>870.9</ele>
        <time>2022-08-04T15:41:37Z</time>
      </trkpt>
      <trkpt lat="45.47286" lon="1.8476">
        <ele>870.8</ele>
        <time>2022-08-04T15:41:39Z</time>
      </trkpt>
      <trkpt lat="45.47284" lon="1.84752">
        <ele>870.8</ele>
        <time>2022-08-04T15:41:41Z</time>
      </trkpt>
      <trkpt lat="45.47282" lon="1.84744">
        <ele>871</ele>
        <time>2022-08-04T15:41:43Z</time>
      </trkpt>
      <trkpt lat="45.47282" lon="1.84736">
        <ele>871.2</ele>
        <time>2022-08-04T15:41:45Z</time>
      </trkpt>
      <trkpt lat="45.47282" lon="1.84728">
        <ele>871.4</ele>
        <time>2022-08-04T15:41:47Z</time>
      </trkpt>
      <trkpt lat="45.47283" lon="1.8472">
        <ele>871.5</ele>
        <time>2022-08-04T15:41:49Z</time>
      </trkpt>
      <trkpt lat="45.47286" lon="1.84714">
        <ele>871.6</ele>
        <time>2022-08-04T15:41:51Z</time>
      </trkpt>
      <trkpt lat="45.47289" lon="1.84708">
        <ele>871.6</ele>
        <time>2022-08-04T15:41:53Z</time>
      </trkpt>
      <trkpt lat="45.47292" lon="1.84703">
        <ele>871.6</ele>
        <time>2022-08-04T15:41:55Z</time>
      </trkpt>
      <trkpt lat="45.47295" lon="1.84699">
        <ele>871.6</ele>
        <time>2022-08-04T15:41:57Z</time>
      </trkpt>
      <trkpt lat="45.47298" lon="1.84695">
        <ele>871.6</ele>
        <time>2022-08-04T15:41:59Z</time>
      </trkpt>
      <trkpt lat="45.473" lon="1.8469">
        <ele>871.6</ele>
        <time>2022-08-04T15:42:01Z</time>
      </trkpt>
      <trkpt lat="45.47303" lon="1.84686">
        <ele>871.6</ele>
        <time>2022-08-04T15:42:03Z</time>
      </trkpt>
      <trkpt lat="45.47306" lon="1.84682">
        <ele>871.6</ele>
        <time>2022-08-04T15:42:05Z</time>
      </trkpt>
      <trkpt lat="45.47309" lon="1.84678">
        <ele>871.6</ele>
        <time>2022-08-04T15:42:07Z</time>
      </trkpt>
      <trkpt lat="45.47311" lon="1.84674">
        <ele>871.6</ele>
        <time>2022-08-04T15:42:09Z</time>
      </trkpt>
      <trkpt lat="45.47313" lon="1.84669">
        <ele>871.7</ele>
        <time>2022-08-04T15:42:11Z</time>
      </trkpt>
      <trkpt lat="45.47315" lon="1.84665">
        <ele>871.8</ele>
        <time>2022-08-04T15:42:13Z</time>
      </trkpt>
      <trkpt lat="45.47317" lon="1.8466">
        <ele>872</ele>
        <time>2022-08-04T15:42:15Z</time>
      </trkpt>
      <trkpt lat="45.47319" lon="1.84655">
        <ele>872.2</ele>
        <time>2022-08-04T15:42:17Z</time>
      </trkpt>
      <trkpt lat="45.4732" lon="1.84651">
        <ele>872.4</ele>
        <time>2022-08-04T15:42:19Z</time>
      </trkpt>
      <trkpt lat="45.47321" lon="1.84647">
        <ele>872.6</ele>
        <time>2022-08-04T15:42:21Z</time>
      </trkpt>
      <trkpt lat="45.47322" lon="1.84642">
        <ele>872.9</ele>
        <time>2022-08-04T15:42:23Z</time>
      </trkpt>
      <trkpt lat="45.47323" lon="1.84637">
        <ele>873.1</ele>
        <time>2022-08-04T15:42:25Z</time>
      </trkpt>
      <trkpt lat="45.47324" lon="1.84632">
        <ele>873.4</ele>
        <time>2022-08-04T15:42:27Z</time>
      </trkpt>
      <trkpt lat="45.47324" lon="1.84628">
        <ele>873.7</ele>
        <time>2022-08-04T15:42:29Z</time>
      </trkpt>
      <trkpt lat="45.47324" lon="1.84623">
        <ele>874</ele>
        <time>2022-08-04T15:42:31Z</time>
      </trkpt>
      <trkpt lat="45.47324" lon="1.84619">
        <ele>874.2</ele>
        <time>2022-08-04T15:42:33Z</time>
      </trkpt>
      <trkpt lat="45.47325" lon="1.84614">
        <ele>874.5</ele>
        <time>2022-08-04T15:42:35Z</time>
      </trkpt>
      <trkpt lat="45.47325" lon="1.84609">
        <ele>874.8</ele>
        <time>2022-08-04T15:42:37Z</time>
      </trkpt>
      <trkpt lat="45.47324" lon="1.84604">
        <ele>875.1</ele>
        <time>2022-08-04T15:42:39Z</time>
      </trkpt>
      <trkpt lat="45.47324" lon="1.846">
        <ele>875.3</ele>
        <time>2022-08-04T15:42:41Z</time>
      </trkpt>
      <trkpt lat="45.47324" lon="1.84595">
        <ele>875.6</ele>
        <time>2022-08-04T15:42:43Z</time>
      </trkpt>
      <trkpt lat="45.47323" lon="1.84591">
        <ele>875.9</ele>
        <time>2022-08-04T15:42:45Z</time>
      </trkpt>
      <trkpt lat="45.47323" lon="1.84586">
        <ele>876.2</ele>
        <time>2022-08-04T15:42:47Z</time>
      </trkpt>
      <trkpt lat="45.47323" lon="1.84581">
        <ele>876.5</ele>
        <time>2022-08-04T15:42:49Z</time>
      </trkpt>
      <trkpt lat="45.47323" lon="1.84577">
        <ele>876.6</ele>
        <time>2022-08-04T15:42:51Z</time>
      </trkpt>
      <trkpt lat="45.47323" lon="1.84572">
        <ele>876.8</ele>
        <time>2022-08-04T15:42:53Z</time>
      </trkpt>
      <trkpt lat="45.47323" lon="1.84567">
        <ele>877</ele>
        <time>2022-08-04T15:42:55Z</time>
      </trkpt>
      <trkpt lat="45.47322" lon="1.84562">
        <ele>877.2</ele>
        <time>2022-08-04T15:42:57Z</time>
      </trkpt>
      <trkpt lat="45.47322" lon="1.84557">
        <ele>877.4</ele>
        <time>2022-08-04T15:42:59Z</time>
      </trkpt>
      <trkpt lat="45.47322" lon="1.84552">
        <ele>877.5</ele>
        <time>2022-08-04T15:43:01Z</time>
      </trkpt>
      <trkpt lat="45.47322" lon="1.84547">
        <ele>877.7</ele>
        <time>2022-08-04T15:43:03Z</time>
      </trkpt>
      <trkpt lat="45.47321" lon="1.84543">
        <ele>877.9</ele>
        <time>2022-08-04T15:43:05Z</time>
      </trkpt>
      <trkpt lat="45.47321" lon="1.84538">
        <ele>878.1</ele>
        <time>2022-08-04T15:43:07Z</time>
      </trkpt>
      <trkpt lat="45.47321" lon="1.84533">
        <ele>878.3</ele>
        <time>2022-08-04T15:43:09Z</time>
      </trkpt>
      <trkpt lat="45.47321" lon="1.84529">
        <ele>878.4</ele>
        <time>2022-08-04T15:43:11Z</time>
      </trkpt>
      <trkpt lat="45.4732" lon="1.84524">
        <ele>878.6</ele>
        <time>2022-08-04T15:43:13Z</time>
      </trkpt>
      <trkpt lat="45.47319" lon="1.8452">
        <ele>878.8</ele>
        <time>2022-08-04T15:43:15Z</time>
      </trkpt>
      <trkpt lat="45.47318" lon="1.84516">
        <ele>879</ele>
        <time>2022-08-04T15:43:17Z</time>
      </trkpt>
      <trkpt lat="45.47317" lon="1.84511">
        <ele>879.2</ele>
        <time>2022-08-04T15:43:19Z</time>
      </trkpt>
      <trkpt lat="45.47315" lon="1.84508">
        <ele>879.4</ele>
        <time>2022-08-04T15:43:21Z</time>
      </trkpt>
      <trkpt lat="45.47314" lon="1.84504">
        <ele>879.6</ele>
        <time>2022-08-04T15:43:23Z</time>
      </trkpt>
      <trkpt lat="45.47312" lon="1.845">
        <ele>879.8</ele>
        <time>2022-08-04T15:43:25Z</time>
      </trkpt>
      <trkpt lat="45.4731" lon="1.84497">
        <ele>880</ele>
        <time>2022-08-04T15:43:27Z</time>
      </trkpt>
      <trkpt lat="45.47308" lon="1.84494">
        <ele>880.2</ele>
        <time>2022-08-04T15:43:29Z</time>
      </trkpt>
      <trkpt lat="45.47305" lon="1.84492">
        <ele>880.4</ele>
        <time>2022-08-04T15:43:31Z</time>
      </trkpt>
      <trkpt lat="45.47303" lon="1.8449">
        <ele>880.6</ele>
        <time>2022-08-04T15:43:33Z</time>
      </trkpt>
      <trkpt lat="45.473" lon="1.84488">
        <ele>880.8</ele>
        <time>2022-08-04T15:43:35Z</time>
      </trkpt>
      <trkpt lat="45.47298" lon="1.84485">
        <ele>881.1</ele>
        <time>2022-08-04T15:43:37Z</time>
      </trkpt>
      <trkpt lat="45.47296" lon="1.84483">
        <ele>881.3</ele>
        <time>2022-08-04T15:43:39Z</time>
      </trkpt>
      <trkpt lat="45.47293" lon="1.84482">
        <ele>881.6</ele>
        <time>2022-08-04T15:43:41Z</time>
      </trkpt>
      <trkpt lat="45.4729" lon="1.8448">
        <ele>881.8</ele>
        <time>2022-08-04T15:43:43Z</time>
      </trkpt>
      <trkpt lat="45.47287" lon="1.84478">
        <ele>882.1</ele>
        <time>2022-08-04T15:43:45Z</time>
      </trkpt>
      <trkpt lat="45.47285" lon="1.84475">
        <ele>882.4</ele>
        <time>2022-08-04T15:43:47Z</time>
      </trkpt>
      <trkpt lat="45.47282" lon="1.84474">
        <ele>882.6</ele>
        <time>2022-08-04T15:43:49Z</time>
      </trkpt>
      <trkpt lat="45.47279" lon="1.84472">
        <ele>882.9</ele>
        <time>2022-08-04T15:43:51Z</time>
      </trkpt>
      <trkpt lat="45.47277" lon="1.8447">
        <ele>883.2</ele>
        <time>2022-08-04T15:43:53Z</time>
      </trkpt>
      <trkpt lat="45.47274" lon="1.84469">
        <ele>883.5</ele>
        <time>2022-08-04T15:43:55Z</time>
      </trkpt>
      <trkpt lat="45.47271" lon="1.84466">
        <ele>883.9</ele>
        <time>2022-08-04T15:43:57Z</time>
      </trkpt>
      <trkpt lat="45.47268" lon="1.84465">
        <ele>884.2</ele>
        <time>2022-08-04T15:43:59Z</time>
      </trkpt>
      <trkpt lat="45.47266" lon="1.84463">
        <ele>884.5</ele>
        <time>2022-08-04T15:44:01Z</time>
      </trkpt>
      <trkpt lat="45.47263" lon="1.84461">
        <ele>884.8</ele>
        <time>2022-08-04T15:44:03Z</time>
      </trkpt>
      <trkpt lat="45.47262" lon="1.84458">
        <ele>885.2</ele>
        <time>2022-08-04T15:44:05Z</time>
      </trkpt>
      <trkpt lat="45.47261" lon="1.84457">
        <ele>885.3</ele>
        <time>2022-08-04T15:44:07Z</time>
      </trkpt>
      <trkpt lat="45.47262" lon="1.84457">
        <ele>885.3</ele>
        <time>2022-08-04T15:44:09Z</time>
      </trkpt>
      <trkpt lat="45.47261" lon="1.84457">
        <ele>885.3</ele>
        <time>2022-08-04T15:44:13Z</time>
      </trkpt>
      <trkpt lat="45.47261" lon="1.84457">
        <ele>885.3</ele>
        <time>2022-08-04T15:44:15Z</time>
      </trkpt>
      <trkpt lat="45.47258" lon="1.84447">
        <ele>886.4</ele>
        <time>2022-08-04T15:46:05Z</time>
      </trkpt>
      <trkpt lat="45.47256" lon="1.84444">
        <ele>886.9</ele>
        <time>2022-08-04T15:46:07Z</time>
      </trkpt>
      <trkpt lat="45.47254" lon="1.8444">
        <ele>887.3</ele>
        <time>2022-08-04T15:46:09Z</time>
      </trkpt>
      <trkpt lat="45.47253" lon="1.84437">
        <ele>887.8</ele>
        <time>2022-08-04T15:46:11Z</time>
      </trkpt>
      <trkpt lat="45.47251" lon="1.84433">
        <ele>888.3</ele>
        <time>2022-08-04T15:46:13Z</time>
      </trkpt>
      <trkpt lat="45.47248" lon="1.84428">
        <ele>888.9</ele>
        <time>2022-08-04T15:46:15Z</time>
      </trkpt>
      <trkpt lat="45.47246" lon="1.84425">
        <ele>889.2</ele>
        <time>2022-08-04T15:46:17Z</time>
      </trkpt>
      <trkpt lat="45.47244" lon="1.84423">
        <ele>889.4</ele>
        <time>2022-08-04T15:46:19Z</time>
      </trkpt>
      <trkpt lat="45.47241" lon="1.84419">
        <ele>889.7</ele>
        <time>2022-08-04T15:46:21Z</time>
      </trkpt>
      <trkpt lat="45.47239" lon="1.84416">
        <ele>890</ele>
        <time>2022-08-04T15:46:23Z</time>
      </trkpt>
      <trkpt lat="45.47237" lon="1.84415">
        <ele>890.1</ele>
        <time>2022-08-04T15:46:25Z</time>
      </trkpt>
      <trkpt lat="45.47235" lon="1.84412">
        <ele>890.4</ele>
        <time>2022-08-04T15:46:27Z</time>
      </trkpt>
      <trkpt lat="45.47236" lon="1.84408">
        <ele>890.7</ele>
        <time>2022-08-04T15:46:29Z</time>
      </trkpt>
      <trkpt lat="45.47236" lon="1.84404">
        <ele>891</ele>
        <time>2022-08-04T15:46:31Z</time>
      </trkpt>
      <trkpt lat="45.47227" lon="1.8437">
        <ele>893.8</ele>
        <time>2022-08-04T15:46:47Z</time>
      </trkpt>
      <trkpt lat="45.47226" lon="1.84366">
        <ele>894.2</ele>
        <time>2022-08-04T15:46:49Z</time>
      </trkpt>
      <trkpt lat="45.47227" lon="1.84362">
        <ele>894.5</ele>
        <time>2022-08-04T15:46:51Z</time>
      </trkpt>
      <trkpt lat="45.47226" lon="1.84358">
        <ele>894.8</ele>
        <time>2022-08-04T15:46:53Z</time>
      </trkpt>
      <trkpt lat="45.47224" lon="1.84354">
        <ele>895.2</ele>
        <time>2022-08-04T15:46:55Z</time>
      </trkpt>
      <trkpt lat="45.47223" lon="1.84351">
        <ele>895.5</ele>
        <time>2022-08-04T15:46:57Z</time>
      </trkpt>
      <trkpt lat="45.47222" lon="1.84347">
        <ele>895.8</ele>
        <time>2022-08-04T15:46:59Z</time>
      </trkpt>
      <trkpt lat="45.47221" lon="1.84344">
        <ele>896.2</ele>
        <time>2022-08-04T15:47:01Z</time>
      </trkpt>
      <trkpt lat="45.47219" lon="1.84341">
        <ele>896.5</ele>
        <time>2022-08-04T15:47:03Z</time>
      </trkpt>
      <trkpt lat="45.47218" lon="1.84337">
        <ele>896.8</ele>
        <time>2022-08-04T15:47:05Z</time>
      </trkpt>
      <trkpt lat="45.47216" lon="1.84335">
        <ele>897.1</ele>
        <time>2022-08-04T15:47:07Z</time>
      </trkpt>
      <trkpt lat="45.47214" lon="1.84332">
        <ele>897.3</ele>
        <time>2022-08-04T15:47:09Z</time>
      </trkpt>
      <trkpt lat="45.47212" lon="1.84329">
        <ele>897.3</ele>
        <time>2022-08-04T15:47:11Z</time>
      </trkpt>
      <trkpt lat="45.4721" lon="1.84326">
        <ele>897.4</ele>
        <time>2022-08-04T15:47:13Z</time>
      </trkpt>
      <trkpt lat="45.47208" lon="1.84323">
        <ele>897.5</ele>
        <time>2022-08-04T15:47:15Z</time>
      </trkpt>
      <trkpt lat="45.47206" lon="1.8432">
        <ele>897.6</ele>
        <time>2022-08-04T15:47:17Z</time>
      </trkpt>
      <trkpt lat="45.47204" lon="1.84317">
        <ele>897.7</ele>
        <time>2022-08-04T15:47:19Z</time>
      </trkpt>
      <trkpt lat="45.47202" lon="1.84315">
        <ele>897.8</ele>
        <time>2022-08-04T15:47:21Z</time>
      </trkpt>
      <trkpt lat="45.472" lon="1.84312">
        <ele>897.9</ele>
        <time>2022-08-04T15:47:23Z</time>
      </trkpt>
      <trkpt lat="45.47198" lon="1.84309">
        <ele>898.1</ele>
        <time>2022-08-04T15:47:25Z</time>
      </trkpt>
      <trkpt lat="45.47196" lon="1.84306">
        <ele>898.2</ele>
        <time>2022-08-04T15:47:27Z</time>
      </trkpt>
      <trkpt lat="45.47193" lon="1.84304">
        <ele>898.4</ele>
        <time>2022-08-04T15:47:29Z</time>
      </trkpt>
      <trkpt lat="45.4719" lon="1.84302">
        <ele>898.6</ele>
        <time>2022-08-04T15:47:31Z</time>
      </trkpt>
      <trkpt lat="45.47188" lon="1.843">
        <ele>898.8</ele>
        <time>2022-08-04T15:47:33Z</time>
      </trkpt>
      <trkpt lat="45.47185" lon="1.84297">
        <ele>899.1</ele>
        <time>2022-08-04T15:47:35Z</time>
      </trkpt>
      <trkpt lat="45.47182" lon="1.84295">
        <ele>899.3</ele>
        <time>2022-08-04T15:47:37Z</time>
      </trkpt>
      <trkpt lat="45.4718" lon="1.84293">
        <ele>899.5</ele>
        <time>2022-08-04T15:47:39Z</time>
      </trkpt>
      <trkpt lat="45.47177" lon="1.8429">
        <ele>899.8</ele>
        <time>2022-08-04T15:47:41Z</time>
      </trkpt>
      <trkpt lat="45.47174" lon="1.84288">
        <ele>900.1</ele>
        <time>2022-08-04T15:47:43Z</time>
      </trkpt>
      <trkpt lat="45.47171" lon="1.84285">
        <ele>900.4</ele>
        <time>2022-08-04T15:47:45Z</time>
      </trkpt>
      <trkpt lat="45.47167" lon="1.84283">
        <ele>900.8</ele>
        <time>2022-08-04T15:47:47Z</time>
      </trkpt>
      <trkpt lat="45.47164" lon="1.8428">
        <ele>900.4</ele>
        <time>2022-08-04T15:47:49Z</time>
      </trkpt>
      <trkpt lat="45.47161" lon="1.84279">
        <ele>900</ele>
        <time>2022-08-04T15:47:51Z</time>
      </trkpt>
      <trkpt lat="45.47158" lon="1.84277">
        <ele>899.6</ele>
        <time>2022-08-04T15:47:53Z</time>
      </trkpt>
      <trkpt lat="45.47156" lon="1.84274">
        <ele>899.4</ele>
        <time>2022-08-04T15:47:55Z</time>
      </trkpt>
      <trkpt lat="45.47155" lon="1.8427">
        <ele>899.2</ele>
        <time>2022-08-04T15:47:57Z</time>
      </trkpt>
      <trkpt lat="45.47153" lon="1.84266">
        <ele>899.1</ele>
        <time>2022-08-04T15:47:59Z</time>
      </trkpt>
      <trkpt lat="45.47151" lon="1.84263">
        <ele>898.9</ele>
        <time>2022-08-04T15:48:01Z</time>
      </trkpt>
      <trkpt lat="45.47149" lon="1.84261">
        <ele>898.5</ele>
        <time>2022-08-04T15:48:03Z</time>
      </trkpt>
      <trkpt lat="45.47146" lon="1.84259">
        <ele>898.2</ele>
        <time>2022-08-04T15:48:05Z</time>
      </trkpt>
      <trkpt lat="45.47144" lon="1.84257">
        <ele>897.9</ele>
        <time>2022-08-04T15:48:07Z</time>
      </trkpt>
      <trkpt lat="45.47141" lon="1.84255">
        <ele>897.5</ele>
        <time>2022-08-04T15:48:09Z</time>
      </trkpt>
      <trkpt lat="45.47139" lon="1.84256">
        <ele>897.1</ele>
        <time>2022-08-04T15:48:11Z</time>
      </trkpt>
      <trkpt lat="45.47136" lon="1.84256">
        <ele>896.7</ele>
        <time>2022-08-04T15:48:13Z</time>
      </trkpt>
      <trkpt lat="45.47135" lon="1.84255">
        <ele>896.6</ele>
        <time>2022-08-04T15:48:15Z</time>
      </trkpt>
      <trkpt lat="45.47136" lon="1.84255">
        <ele>896.6</ele>
        <time>2022-08-04T15:48:17Z</time>
      </trkpt>
      <trkpt lat="45.47136" lon="1.84255">
        <ele>896.6</ele>
        <time>2022-08-04T15:48:19Z</time>
      </trkpt>
      <trkpt lat="45.47136" lon="1.84255">
        <ele>896.6</ele>
        <time>2022-08-04T15:48:21Z</time>
      </trkpt>
      <trkpt lat="45.47136" lon="1.84255">
        <ele>896.7</ele>
        <time>2022-08-04T15:48:23Z</time>
      </trkpt>
      <trkpt lat="45.47145" lon="1.8425">
        <ele>898.4</ele>
        <time>2022-08-04T16:14:43Z</time>
      </trkpt>
      <trkpt lat="45.47146" lon="1.84256">
        <ele>898.3</ele>
        <time>2022-08-04T16:14:45Z</time>
      </trkpt>
      <trkpt lat="45.4715" lon="1.84257">
        <ele>898.9</ele>
        <time>2022-08-04T16:14:47Z</time>
      </trkpt>
      <trkpt lat="45.47153" lon="1.84259">
        <ele>899.4</ele>
        <time>2022-08-04T16:14:49Z</time>
      </trkpt>
      <trkpt lat="45.47157" lon="1.84264">
        <ele>899.8</ele>
        <time>2022-08-04T16:14:51Z</time>
      </trkpt>
      <trkpt lat="45.47159" lon="1.8427">
        <ele>900</ele>
        <time>2022-08-04T16:14:53Z</time>
      </trkpt>
      <trkpt lat="45.47162" lon="1.84273">
        <ele>900.4</ele>
        <time>2022-08-04T16:14:55Z</time>
      </trkpt>
      <trkpt lat="45.47166" lon="1.84278">
        <ele>900.9</ele>
        <time>2022-08-04T16:14:57Z</time>
      </trkpt>
      <trkpt lat="45.47172" lon="1.84282">
        <ele>900.5</ele>
        <time>2022-08-04T16:14:59Z</time>
      </trkpt>
      <trkpt lat="45.47175" lon="1.84285">
        <ele>900.1</ele>
        <time>2022-08-04T16:15:01Z</time>
      </trkpt>
      <trkpt lat="45.47179" lon="1.84288">
        <ele>899.7</ele>
        <time>2022-08-04T16:15:03Z</time>
      </trkpt>
      <trkpt lat="45.47183" lon="1.84291">
        <ele>899.3</ele>
        <time>2022-08-04T16:15:05Z</time>
      </trkpt>
      <trkpt lat="45.47188" lon="1.84296">
        <ele>898.9</ele>
        <time>2022-08-04T16:15:07Z</time>
      </trkpt>
      <trkpt lat="45.47194" lon="1.843">
        <ele>898.4</ele>
        <time>2022-08-04T16:15:09Z</time>
      </trkpt>
      <trkpt lat="45.472" lon="1.84306">
        <ele>898</ele>
        <time>2022-08-04T16:15:11Z</time>
      </trkpt>
      <trkpt lat="45.47206" lon="1.84315">
        <ele>897.6</ele>
        <time>2022-08-04T16:15:13Z</time>
      </trkpt>
      <trkpt lat="45.47212" lon="1.84323">
        <ele>897.3</ele>
        <time>2022-08-04T16:15:15Z</time>
      </trkpt>
      <trkpt lat="45.47217" lon="1.84331">
        <ele>897.2</ele>
        <time>2022-08-04T16:15:17Z</time>
      </trkpt>
      <trkpt lat="45.47222" lon="1.84341">
        <ele>896.4</ele>
        <time>2022-08-04T16:15:19Z</time>
      </trkpt>
      <trkpt lat="45.47225" lon="1.84351">
        <ele>895.5</ele>
        <time>2022-08-04T16:15:21Z</time>
      </trkpt>
      <trkpt lat="45.47227" lon="1.84358">
        <ele>894.8</ele>
        <time>2022-08-04T16:15:23Z</time>
      </trkpt>
      <trkpt lat="45.47229" lon="1.84367">
        <ele>894</ele>
        <time>2022-08-04T16:15:25Z</time>
      </trkpt>
      <trkpt lat="45.47231" lon="1.84377">
        <ele>893.2</ele>
        <time>2022-08-04T16:15:27Z</time>
      </trkpt>
      <trkpt lat="45.47233" lon="1.84385">
        <ele>892.5</ele>
        <time>2022-08-04T16:15:29Z</time>
      </trkpt>
      <trkpt lat="45.47236" lon="1.84395">
        <ele>891.7</ele>
        <time>2022-08-04T16:15:31Z</time>
      </trkpt>
      <trkpt lat="45.47237" lon="1.84404">
        <ele>891</ele>
        <time>2022-08-04T16:15:33Z</time>
      </trkpt>
      <trkpt lat="45.47238" lon="1.84411">
        <ele>890.4</ele>
        <time>2022-08-04T16:15:35Z</time>
      </trkpt>
      <trkpt lat="45.47238" lon="1.84416">
        <ele>890.1</ele>
        <time>2022-08-04T16:15:37Z</time>
      </trkpt>
      <trkpt lat="45.47238" lon="1.84421">
        <ele>889.5</ele>
        <time>2022-08-04T16:15:39Z</time>
      </trkpt>
      <trkpt lat="45.47241" lon="1.84425">
        <ele>889.1</ele>
        <time>2022-08-04T16:15:41Z</time>
      </trkpt>
      <trkpt lat="45.47245" lon="1.84426">
        <ele>889.1</ele>
        <time>2022-08-04T16:15:43Z</time>
      </trkpt>
      <trkpt lat="45.4725" lon="1.8443">
        <ele>888.7</ele>
        <time>2022-08-04T16:15:45Z</time>
      </trkpt>
      <trkpt lat="45.47253" lon="1.84438">
        <ele>887.6</ele>
        <time>2022-08-04T16:15:47Z</time>
      </trkpt>
      <trkpt lat="45.47258" lon="1.84443">
        <ele>886.8</ele>
        <time>2022-08-04T16:15:49Z</time>
      </trkpt>
      <trkpt lat="45.4726" lon="1.84449">
        <ele>886.1</ele>
        <time>2022-08-04T16:15:51Z</time>
      </trkpt>
      <trkpt lat="45.47259" lon="1.84452">
        <ele>885.9</ele>
        <time>2022-08-04T16:15:53Z</time>
      </trkpt>
      <trkpt lat="45.47259" lon="1.8445">
        <ele>886.1</ele>
        <time>2022-08-04T16:15:55Z</time>
      </trkpt>
      <trkpt lat="45.47258" lon="1.8445">
        <ele>886.1</ele>
        <time>2022-08-04T16:15:57Z</time>
      </trkpt>
      <trkpt lat="45.47258" lon="1.8445">
        <ele>886.1</ele>
        <time>2022-08-04T16:15:59Z</time>
      </trkpt>
      <trkpt lat="45.47259" lon="1.84449">
        <ele>886.2</ele>
        <time>2022-08-04T16:16:01Z</time>
      </trkpt>
      <trkpt lat="45.47248" lon="1.84451">
        <ele>886.7</ele>
        <time>2022-08-04T16:16:25Z</time>
      </trkpt>
      <trkpt lat="45.47245" lon="1.8445">
        <ele>886.7</ele>
        <time>2022-08-04T16:16:27Z</time>
      </trkpt>
      <trkpt lat="45.47241" lon="1.84447">
        <ele>886.9</ele>
        <time>2022-08-04T16:16:29Z</time>
      </trkpt>
      <trkpt lat="45.47237" lon="1.84445">
        <ele>887.1</ele>
        <time>2022-08-04T16:16:31Z</time>
      </trkpt>
      <trkpt lat="45.47235" lon="1.84441">
        <ele>887.5</ele>
        <time>2022-08-04T16:16:33Z</time>
      </trkpt>
      <trkpt lat="45.47233" lon="1.84436">
        <ele>888</ele>
        <time>2022-08-04T16:16:35Z</time>
      </trkpt>
      <trkpt lat="45.4723" lon="1.84434">
        <ele>888.2</ele>
        <time>2022-08-04T16:16:37Z</time>
      </trkpt>
      <trkpt lat="45.47228" lon="1.84438">
        <ele>887.6</ele>
        <time>2022-08-04T16:16:39Z</time>
      </trkpt>
      <trkpt lat="45.4723" lon="1.84443">
        <ele>887.2</ele>
        <time>2022-08-04T16:16:41Z</time>
      </trkpt>
      <trkpt lat="45.47236" lon="1.84444">
        <ele>887.2</ele>
        <time>2022-08-04T16:16:43Z</time>
      </trkpt>
      <trkpt lat="45.47242" lon="1.84447">
        <ele>887</ele>
        <time>2022-08-04T16:16:45Z</time>
      </trkpt>
      <trkpt lat="45.47249" lon="1.84451">
        <ele>886.7</ele>
        <time>2022-08-04T16:16:47Z</time>
      </trkpt>
      <trkpt lat="45.47256" lon="1.84454">
        <ele>886</ele>
        <time>2022-08-04T16:16:49Z</time>
      </trkpt>
      <trkpt lat="45.47262" lon="1.84458">
        <ele>885.2</ele>
        <time>2022-08-04T16:16:51Z</time>
      </trkpt>
      <trkpt lat="45.47269" lon="1.84463">
        <ele>884.3</ele>
        <time>2022-08-04T16:16:53Z</time>
      </trkpt>
      <trkpt lat="45.47275" lon="1.84469">
        <ele>883.4</ele>
        <time>2022-08-04T16:16:55Z</time>
      </trkpt>
      <trkpt lat="45.47282" lon="1.84475">
        <ele>882.6</ele>
        <time>2022-08-04T16:16:57Z</time>
      </trkpt>
      <trkpt lat="45.47288" lon="1.8448">
        <ele>881.9</ele>
        <time>2022-08-04T16:16:59Z</time>
      </trkpt>
      <trkpt lat="45.47296" lon="1.84484">
        <ele>881.2</ele>
        <time>2022-08-04T16:17:01Z</time>
      </trkpt>
      <trkpt lat="45.47302" lon="1.8449">
        <ele>880.7</ele>
        <time>2022-08-04T16:17:03Z</time>
      </trkpt>
      <trkpt lat="45.47308" lon="1.84496">
        <ele>880.1</ele>
        <time>2022-08-04T16:17:05Z</time>
      </trkpt>
      <trkpt lat="45.47313" lon="1.84501">
        <ele>879.7</ele>
        <time>2022-08-04T16:17:07Z</time>
      </trkpt>
      <trkpt lat="45.47316" lon="1.84507">
        <ele>879.4</ele>
        <time>2022-08-04T16:17:09Z</time>
      </trkpt>
      <trkpt lat="45.47318" lon="1.84513">
        <ele>879.1</ele>
        <time>2022-08-04T16:17:11Z</time>
      </trkpt>
      <trkpt lat="45.4732" lon="1.84521">
        <ele>878.7</ele>
        <time>2022-08-04T16:17:13Z</time>
      </trkpt>
      <trkpt lat="45.47322" lon="1.84532">
        <ele>878.3</ele>
        <time>2022-08-04T16:17:15Z</time>
      </trkpt>
      <trkpt lat="45.47322" lon="1.84545">
        <ele>877.8</ele>
        <time>2022-08-04T16:17:17Z</time>
      </trkpt>
      <trkpt lat="45.47323" lon="1.8456">
        <ele>877.2</ele>
        <time>2022-08-04T16:17:19Z</time>
      </trkpt>
      <trkpt lat="45.47324" lon="1.84574">
        <ele>876.7</ele>
        <time>2022-08-04T16:17:21Z</time>
      </trkpt>
      <trkpt lat="45.47323" lon="1.8459">
        <ele>876</ele>
        <time>2022-08-04T16:17:23Z</time>
      </trkpt>
      <trkpt lat="45.47323" lon="1.84606">
        <ele>875</ele>
        <time>2022-08-04T16:17:25Z</time>
      </trkpt>
      <trkpt lat="45.47324" lon="1.84624">
        <ele>873.9</ele>
        <time>2022-08-04T16:17:27Z</time>
      </trkpt>
      <trkpt lat="45.47322" lon="1.84643">
        <ele>872.8</ele>
        <time>2022-08-04T16:17:29Z</time>
      </trkpt>
      <trkpt lat="45.47316" lon="1.84663">
        <ele>871.8</ele>
        <time>2022-08-04T16:17:31Z</time>
      </trkpt>
      <trkpt lat="45.47304" lon="1.84682">
        <ele>871.7</ele>
        <time>2022-08-04T16:17:33Z</time>
      </trkpt>
      <trkpt lat="45.47294" lon="1.84696">
        <ele>871.7</ele>
        <time>2022-08-04T16:17:35Z</time>
      </trkpt>
      <trkpt lat="45.47285" lon="1.8471">
        <ele>871.7</ele>
        <time>2022-08-04T16:17:37Z</time>
      </trkpt>
      <trkpt lat="45.47282" lon="1.84724">
        <ele>871.5</ele>
        <time>2022-08-04T16:17:39Z</time>
      </trkpt>
      <trkpt lat="45.47282" lon="1.84737">
        <ele>871.2</ele>
        <time>2022-08-04T16:17:41Z</time>
      </trkpt>
      <trkpt lat="45.47283" lon="1.84747">
        <ele>870.9</ele>
        <time>2022-08-04T16:17:43Z</time>
      </trkpt>
      <trkpt lat="45.47285" lon="1.84756">
        <ele>870.8</ele>
        <time>2022-08-04T16:17:45Z</time>
      </trkpt>
      <trkpt lat="45.47285" lon="1.84762">
        <ele>870.9</ele>
        <time>2022-08-04T16:17:47Z</time>
      </trkpt>
      <trkpt lat="45.47285" lon="1.84762">
        <ele>870.9</ele>
        <time>2022-08-04T16:17:49Z</time>
      </trkpt>
      <trkpt lat="45.47285" lon="1.84763">
        <ele>870.9</ele>
        <time>2022-08-04T16:17:51Z</time>
      </trkpt>
      <trkpt lat="45.47285" lon="1.84764">
        <ele>871</ele>
        <time>2022-08-04T16:17:53Z</time>
      </trkpt>
      <trkpt lat="45.47285" lon="1.84764">
        <ele>871</ele>
        <time>2022-08-04T16:17:55Z</time>
      </trkpt>
      <trkpt lat="45.47285" lon="1.84764">
        <ele>871</ele>
        <time>2022-08-04T16:17:57Z</time>
      </trkpt>
      <trkpt lat="45.47279" lon="1.8478">
        <ele>871.4</ele>
        <time>2022-08-04T16:18:27Z</time>
      </trkpt>
      <trkpt lat="45.47278" lon="1.84786">
        <ele>871.6</ele>
        <time>2022-08-04T16:18:29Z</time>
      </trkpt>
      <trkpt lat="45.47277" lon="1.84793">
        <ele>871.7</ele>
        <time>2022-08-04T16:18:31Z</time>
      </trkpt>
      <trkpt lat="45.47276" lon="1.84799">
        <ele>871.9</ele>
        <time>2022-08-04T16:18:33Z</time>
      </trkpt>
      <trkpt lat="45.47275" lon="1.84805">
        <ele>872</ele>
        <time>2022-08-04T16:18:35Z</time>
      </trkpt>
      <trkpt lat="45.47274" lon="1.84812">
        <ele>872.2</ele>
        <time>2022-08-04T16:18:37Z</time>
      </trkpt>
      <trkpt lat="45.47273" lon="1.84818">
        <ele>872.4</ele>
        <time>2022-08-04T16:18:39Z</time>
      </trkpt>
      <trkpt lat="45.47272" lon="1.84824">
        <ele>872.5</ele>
        <time>2022-08-04T16:18:41Z</time>
      </trkpt>
      <trkpt lat="45.47272" lon="1.8483">
        <ele>872.6</ele>
        <time>2022-08-04T16:18:43Z</time>
      </trkpt>
      <trkpt lat="45.47271" lon="1.84835">
        <ele>872.8</ele>
        <time>2022-08-04T16:18:45Z</time>
      </trkpt>
      <trkpt lat="45.4727" lon="1.8484">
        <ele>873.1</ele>
        <time>2022-08-04T16:18:47Z</time>
      </trkpt>
      <trkpt lat="45.47268" lon="1.84845">
        <ele>873.5</ele>
        <time>2022-08-04T16:18:49Z</time>
      </trkpt>
      <trkpt lat="45.47268" lon="1.84851">
        <ele>873.8</ele>
        <time>2022-08-04T16:18:51Z</time>
      </trkpt>
      <trkpt lat="45.47267" lon="1.84856">
        <ele>874.1</ele>
        <time>2022-08-04T16:18:53Z</time>
      </trkpt>
      <trkpt lat="45.47267" lon="1.84862">
        <ele>874.4</ele>
        <time>2022-08-04T16:18:55Z</time>
      </trkpt>
      <trkpt lat="45.47266" lon="1.84867">
        <ele>874.8</ele>
        <time>2022-08-04T16:18:57Z</time>
      </trkpt>
      <trkpt lat="45.47265" lon="1.84872">
        <ele>875.2</ele>
        <time>2022-08-04T16:18:59Z</time>
      </trkpt>
      <trkpt lat="45.47264" lon="1.84878">
        <ele>875.6</ele>
        <time>2022-08-04T16:19:01Z</time>
      </trkpt>
      <trkpt lat="45.47263" lon="1.84883">
        <ele>876</ele>
        <time>2022-08-04T16:19:03Z</time>
      </trkpt>
      <trkpt lat="45.47262" lon="1.84888">
        <ele>876.3</ele>
        <time>2022-08-04T16:19:05Z</time>
      </trkpt>
      <trkpt lat="45.47261" lon="1.84893">
        <ele>876.8</ele>
        <time>2022-08-04T16:19:07Z</time>
      </trkpt>
      <trkpt lat="45.47261" lon="1.84898">
        <ele>877.1</ele>
        <time>2022-08-04T16:19:09Z</time>
      </trkpt>
      <trkpt lat="45.4726" lon="1.84903">
        <ele>877.5</ele>
        <time>2022-08-04T16:19:11Z</time>
      </trkpt>
      <trkpt lat="45.47259" lon="1.84907">
        <ele>877.9</ele>
        <time>2022-08-04T16:19:13Z</time>
      </trkpt>
      <trkpt lat="45.47258" lon="1.84912">
        <ele>878.3</ele>
        <time>2022-08-04T16:19:15Z</time>
      </trkpt>
      <trkpt lat="45.47257" lon="1.84917">
        <ele>878.8</ele>
        <time>2022-08-04T16:19:17Z</time>
      </trkpt>
      <trkpt lat="45.47256" lon="1.84922">
        <ele>879.2</ele>
        <time>2022-08-04T16:19:19Z</time>
      </trkpt>
      <trkpt lat="45.47256" lon="1.84927">
        <ele>879.5</ele>
        <time>2022-08-04T16:19:21Z</time>
      </trkpt>
      <trkpt lat="45.47255" lon="1.84932">
        <ele>879.8</ele>
        <time>2022-08-04T16:19:23Z</time>
      </trkpt>
      <trkpt lat="45.47255" lon="1.84936">
        <ele>880.1</ele>
        <time>2022-08-04T16:19:25Z</time>
      </trkpt>
      <trkpt lat="45.47254" lon="1.84941">
        <ele>880.5</ele>
        <time>2022-08-04T16:19:27Z</time>
      </trkpt>
      <trkpt lat="45.47253" lon="1.84946">
        <ele>880.9</ele>
        <time>2022-08-04T16:19:29Z</time>
      </trkpt>
      <trkpt lat="45.47252" lon="1.8495">
        <ele>881.3</ele>
        <time>2022-08-04T16:19:31Z</time>
      </trkpt>
      <trkpt lat="45.47252" lon="1.84955">
        <ele>881.6</ele>
        <time>2022-08-04T16:19:33Z</time>
      </trkpt>
      <trkpt lat="45.47251" lon="1.84959">
        <ele>881.9</ele>
        <time>2022-08-04T16:19:35Z</time>
      </trkpt>
      <trkpt lat="45.4725" lon="1.84963">
        <ele>882.2</ele>
        <time>2022-08-04T16:19:37Z</time>
      </trkpt>
      <trkpt lat="45.47249" lon="1.84968">
        <ele>882.4</ele>
        <time>2022-08-04T16:19:39Z</time>
      </trkpt>
      <trkpt lat="45.47248" lon="1.84972">
        <ele>882.7</ele>
        <time>2022-08-04T16:19:41Z</time>
      </trkpt>
      <trkpt lat="45.47248" lon="1.84976">
        <ele>882.9</ele>
        <time>2022-08-04T16:19:43Z</time>
      </trkpt>
      <trkpt lat="45.47248" lon="1.84981">
        <ele>883.1</ele>
        <time>2022-08-04T16:19:45Z</time>
      </trkpt>
      <trkpt lat="45.47247" lon="1.84985">
        <ele>883.3</ele>
        <time>2022-08-04T16:19:47Z</time>
      </trkpt>
      <trkpt lat="45.47246" lon="1.8499">
        <ele>883.6</ele>
        <time>2022-08-04T16:19:49Z</time>
      </trkpt>
      <trkpt lat="45.47245" lon="1.84994">
        <ele>883.8</ele>
        <time>2022-08-04T16:19:51Z</time>
      </trkpt>
      <trkpt lat="45.47245" lon="1.84998">
        <ele>884</ele>
        <time>2022-08-04T16:19:53Z</time>
      </trkpt>
      <trkpt lat="45.47243" lon="1.85002">
        <ele>884.3</ele>
        <time>2022-08-04T16:19:55Z</time>
      </trkpt>
      <trkpt lat="45.47243" lon="1.85007">
        <ele>884.5</ele>
        <time>2022-08-04T16:19:57Z</time>
      </trkpt>
      <trkpt lat="45.47243" lon="1.85011">
        <ele>884.6</ele>
        <time>2022-08-04T16:19:59Z</time>
      </trkpt>
      <trkpt lat="45.47242" lon="1.85016">
        <ele>884.9</ele>
        <time>2022-08-04T16:20:01Z</time>
      </trkpt>
      <trkpt lat="45.47241" lon="1.8502">
        <ele>885.1</ele>
        <time>2022-08-04T16:20:03Z</time>
      </trkpt>
      <trkpt lat="45.4724" lon="1.85023">
        <ele>885.3</ele>
        <time>2022-08-04T16:20:05Z</time>
      </trkpt>
      <trkpt lat="45.4724" lon="1.85027">
        <ele>885.5</ele>
        <time>2022-08-04T16:20:07Z</time>
      </trkpt>
      <trkpt lat="45.47239" lon="1.85032">
        <ele>885.7</ele>
        <time>2022-08-04T16:20:09Z</time>
      </trkpt>
      <trkpt lat="45.47238" lon="1.85036">
        <ele>885.9</ele>
        <time>2022-08-04T16:20:11Z</time>
      </trkpt>
      <trkpt lat="45.47237" lon="1.8504">
        <ele>886.2</ele>
        <time>2022-08-04T16:20:13Z</time>
      </trkpt>
      <trkpt lat="45.47237" lon="1.85045">
        <ele>886.4</ele>
        <time>2022-08-04T16:20:15Z</time>
      </trkpt>
      <trkpt lat="45.47237" lon="1.85049">
        <ele>886.6</ele>
        <time>2022-08-04T16:20:17Z</time>
      </trkpt>
      <trkpt lat="45.47236" lon="1.85052">
        <ele>886.9</ele>
        <time>2022-08-04T16:20:19Z</time>
      </trkpt>
      <trkpt lat="45.47235" lon="1.85056">
        <ele>887.1</ele>
        <time>2022-08-04T16:20:21Z</time>
      </trkpt>
      <trkpt lat="45.47234" lon="1.8506">
        <ele>887.3</ele>
        <time>2022-08-04T16:20:23Z</time>
      </trkpt>
      <trkpt lat="45.47234" lon="1.85064">
        <ele>887.6</ele>
        <time>2022-08-04T16:20:25Z</time>
      </trkpt>
      <trkpt lat="45.47233" lon="1.85068">
        <ele>887.8</ele>
        <time>2022-08-04T16:20:27Z</time>
      </trkpt>
      <trkpt lat="45.47232" lon="1.85072">
        <ele>888.1</ele>
        <time>2022-08-04T16:20:29Z</time>
      </trkpt>
      <trkpt lat="45.47232" lon="1.85076">
        <ele>888.4</ele>
        <time>2022-08-04T16:20:31Z</time>
      </trkpt>
      <trkpt lat="45.47231" lon="1.85079">
        <ele>888.7</ele>
        <time>2022-08-04T16:20:33Z</time>
      </trkpt>
      <trkpt lat="45.4723" lon="1.85084">
        <ele>888.9</ele>
        <time>2022-08-04T16:20:35Z</time>
      </trkpt>
      <trkpt lat="45.4723" lon="1.85088">
        <ele>889</ele>
        <time>2022-08-04T16:20:37Z</time>
      </trkpt>
      <trkpt lat="45.4723" lon="1.85093">
        <ele>889</ele>
        <time>2022-08-04T16:20:39Z</time>
      </trkpt>
      <trkpt lat="45.47231" lon="1.85098">
        <ele>889</ele>
        <time>2022-08-04T16:20:41Z</time>
      </trkpt>
      <trkpt lat="45.47231" lon="1.85103">
        <ele>889</ele>
        <time>2022-08-04T16:20:43Z</time>
      </trkpt>
      <trkpt lat="45.4723" lon="1.85107">
        <ele>889.1</ele>
        <time>2022-08-04T16:20:45Z</time>
      </trkpt>
      <trkpt lat="45.47231" lon="1.85108">
        <ele>889</ele>
        <time>2022-08-04T16:20:47Z</time>
      </trkpt>
      <trkpt lat="45.4723" lon="1.85107">
        <ele>889</ele>
        <time>2022-08-04T16:20:49Z</time>
      </trkpt>
      <trkpt lat="45.4723" lon="1.85107">
        <ele>889</ele>
        <time>2022-08-04T16:20:51Z</time>
      </trkpt>
      <trkpt lat="45.4723" lon="1.85108">
        <ele>889</ele>
        <time>2022-08-04T16:20:53Z</time>
      </trkpt>
      <trkpt lat="45.4723" lon="1.85108">
        <ele>889</ele>
        <time>2022-08-04T16:20:55Z</time>
      </trkpt>
      <trkpt lat="45.47223" lon="1.85128">
        <ele>889.8</ele>
        <time>2022-08-04T16:22:57Z</time>
      </trkpt>
      <trkpt lat="45.47222" lon="1.85135">
        <ele>889.9</ele>
        <time>2022-08-04T16:22:59Z</time>
      </trkpt>
      <trkpt lat="45.47222" lon="1.85142">
        <ele>889.9</ele>
        <time>2022-08-04T16:23:01Z</time>
      </trkpt>
      <trkpt lat="45.47222" lon="1.85149">
        <ele>890</ele>
        <time>2022-08-04T16:23:03Z</time>
      </trkpt>
      <trkpt lat="45.4722" lon="1.85155">
        <ele>890.1</ele>
        <time>2022-08-04T16:23:05Z</time>
      </trkpt>
      <trkpt lat="45.47219" lon="1.85162">
        <ele>890.2</ele>
        <time>2022-08-04T16:23:07Z</time>
      </trkpt>
      <trkpt lat="45.47216" lon="1.85167">
        <ele>890.4</ele>
        <time>2022-08-04T16:23:09Z</time>
      </trkpt>
      <trkpt lat="45.47214" lon="1.85174">
        <ele>890.3</ele>
        <time>2022-08-04T16:23:11Z</time>
      </trkpt>
      <trkpt lat="45.47211" lon="1.85179">
        <ele>890.2</ele>
        <time>2022-08-04T16:23:13Z</time>
      </trkpt>
      <trkpt lat="45.47208" lon="1.85185">
        <ele>890.2</ele>
        <time>2022-08-04T16:23:15Z</time>
      </trkpt>
      <trkpt lat="45.47204" lon="1.85189">
        <ele>890.1</ele>
        <time>2022-08-04T16:23:17Z</time>
      </trkpt>
      <trkpt lat="45.472" lon="1.85193">
        <ele>890.1</ele>
        <time>2022-08-04T16:23:19Z</time>
      </trkpt>
      <trkpt lat="45.47196" lon="1.85196">
        <ele>890.1</ele>
        <time>2022-08-04T16:23:21Z</time>
      </trkpt>
      <trkpt lat="45.47192" lon="1.85198">
        <ele>890.2</ele>
        <time>2022-08-04T16:23:23Z</time>
      </trkpt>
      <trkpt lat="45.47188" lon="1.85199">
        <ele>890.3</ele>
        <time>2022-08-04T16:23:25Z</time>
      </trkpt>
      <trkpt lat="45.47185" lon="1.852">
        <ele>890.4</ele>
        <time>2022-08-04T16:23:27Z</time>
      </trkpt>
      <trkpt lat="45.47182" lon="1.852">
        <ele>890.5</ele>
        <time>2022-08-04T16:23:29Z</time>
      </trkpt>
      <trkpt lat="45.47178" lon="1.85201">
        <ele>890.6</ele>
        <time>2022-08-04T16:23:31Z</time>
      </trkpt>
      <trkpt lat="45.47176" lon="1.85203">
        <ele>890.6</ele>
        <time>2022-08-04T16:23:33Z</time>
      </trkpt>
      <trkpt lat="45.47173" lon="1.85203">
        <ele>890.7</ele>
        <time>2022-08-04T16:23:35Z</time>
      </trkpt>
      <trkpt lat="45.47171" lon="1.85203">
        <ele>890.8</ele>
        <time>2022-08-04T16:23:37Z</time>
      </trkpt>
      <trkpt lat="45.47168" lon="1.85205">
        <ele>890.8</ele>
        <time>2022-08-04T16:23:39Z</time>
      </trkpt>
      <trkpt lat="45.47164" lon="1.85204">
        <ele>890.8</ele>
        <time>2022-08-04T16:23:41Z</time>
      </trkpt>
      <trkpt lat="45.4716" lon="1.85203">
        <ele>890.8</ele>
        <time>2022-08-04T16:23:43Z</time>
      </trkpt>
      <trkpt lat="45.47155" lon="1.85204">
        <ele>890.7</ele>
        <time>2022-08-04T16:23:45Z</time>
      </trkpt>
      <trkpt lat="45.4715" lon="1.85204">
        <ele>890.6</ele>
        <time>2022-08-04T16:23:47Z</time>
      </trkpt>
      <trkpt lat="45.47143" lon="1.85204">
        <ele>890.5</ele>
        <time>2022-08-04T16:23:49Z</time>
      </trkpt>
      <trkpt lat="45.47135" lon="1.85203">
        <ele>890.4</ele>
        <time>2022-08-04T16:23:51Z</time>
      </trkpt>
      <trkpt lat="45.47126" lon="1.85203">
        <ele>890.4</ele>
        <time>2022-08-04T16:23:53Z</time>
      </trkpt>
      <trkpt lat="45.47116" lon="1.85202">
        <ele>890.3</ele>
        <time>2022-08-04T16:23:55Z</time>
      </trkpt>
      <trkpt lat="45.47104" lon="1.85202">
        <ele>890.1</ele>
        <time>2022-08-04T16:23:57Z</time>
      </trkpt>
      <trkpt lat="45.47093" lon="1.85205">
        <ele>889.5</ele>
        <time>2022-08-04T16:23:59Z</time>
      </trkpt>
      <trkpt lat="45.47082" lon="1.85211">
        <ele>888.7</ele>
        <time>2022-08-04T16:24:01Z</time>
      </trkpt>
      <trkpt lat="45.47072" lon="1.85217">
        <ele>888.1</ele>
        <time>2022-08-04T16:24:03Z</time>
      </trkpt>
      <trkpt lat="45.47064" lon="1.85222">
        <ele>887.6</ele>
        <time>2022-08-04T16:24:05Z</time>
      </trkpt>
      <trkpt lat="45.47055" lon="1.85229">
        <ele>887</ele>
        <time>2022-08-04T16:24:07Z</time>
      </trkpt>
      <trkpt lat="45.47046" lon="1.85236">
        <ele>886.3</ele>
        <time>2022-08-04T16:24:09Z</time>
      </trkpt>
      <trkpt lat="45.47037" lon="1.85244">
        <ele>885.7</ele>
        <time>2022-08-04T16:24:11Z</time>
      </trkpt>
      <trkpt lat="45.47026" lon="1.85253">
        <ele>885</ele>
        <time>2022-08-04T16:24:13Z</time>
      </trkpt>
      <trkpt lat="45.47014" lon="1.85261">
        <ele>883.9</ele>
        <time>2022-08-04T16:24:15Z</time>
      </trkpt>
      <trkpt lat="45.47004" lon="1.85268">
        <ele>883.2</ele>
        <time>2022-08-04T16:24:17Z</time>
      </trkpt>
      <trkpt lat="45.46992" lon="1.85273">
        <ele>881.8</ele>
        <time>2022-08-04T16:24:19Z</time>
      </trkpt>
      <trkpt lat="45.46979" lon="1.85276">
        <ele>880.4</ele>
        <time>2022-08-04T16:24:21Z</time>
      </trkpt>
      <trkpt lat="45.46966" lon="1.85277">
        <ele>879.3</ele>
        <time>2022-08-04T16:24:23Z</time>
      </trkpt>
      <trkpt lat="45.46954" lon="1.85276">
        <ele>878.5</ele>
        <time>2022-08-04T16:24:25Z</time>
      </trkpt>
      <trkpt lat="45.46939" lon="1.85272">
        <ele>877.8</ele>
        <time>2022-08-04T16:24:27Z</time>
      </trkpt>
      <trkpt lat="45.46922" lon="1.85265">
        <ele>877.2</ele>
        <time>2022-08-04T16:24:29Z</time>
      </trkpt>
      <trkpt lat="45.46906" lon="1.85258">
        <ele>876.7</ele>
        <time>2022-08-04T16:24:31Z</time>
      </trkpt>
      <trkpt lat="45.46891" lon="1.85257">
        <ele>875.6</ele>
        <time>2022-08-04T16:24:33Z</time>
      </trkpt>
      <trkpt lat="45.46876" lon="1.85261">
        <ele>874.4</ele>
        <time>2022-08-04T16:24:35Z</time>
      </trkpt>
      <trkpt lat="45.46863" lon="1.85265">
        <ele>873.3</ele>
        <time>2022-08-04T16:24:37Z</time>
      </trkpt>
      <trkpt lat="45.4685" lon="1.85268">
        <ele>872.4</ele>
        <time>2022-08-04T16:24:39Z</time>
      </trkpt>
      <trkpt lat="45.4684" lon="1.85271">
        <ele>871.7</ele>
        <time>2022-08-04T16:24:41Z</time>
      </trkpt>
      <trkpt lat="45.46833" lon="1.85274">
        <ele>871</ele>
        <time>2022-08-04T16:24:43Z</time>
      </trkpt>
      <trkpt lat="45.46829" lon="1.8528">
        <ele>870.4</ele>
        <time>2022-08-04T16:24:45Z</time>
      </trkpt>
      <trkpt lat="45.46828" lon="1.85284">
        <ele>870.2</ele>
        <time>2022-08-04T16:24:47Z</time>
      </trkpt>
      <trkpt lat="45.4683" lon="1.85293">
        <ele>870</ele>
        <time>2022-08-04T16:24:49Z</time>
      </trkpt>
      <trkpt lat="45.4683" lon="1.85307">
        <ele>869.7</ele>
        <time>2022-08-04T16:24:51Z</time>
      </trkpt>
      <trkpt lat="45.4683" lon="1.85324">
        <ele>869.1</ele>
        <time>2022-08-04T16:24:53Z</time>
      </trkpt>
      <trkpt lat="45.4683" lon="1.85344">
        <ele>868.8</ele>
        <time>2022-08-04T16:24:55Z</time>
      </trkpt>
      <trkpt lat="45.4683" lon="1.85362">
        <ele>868.9</ele>
        <time>2022-08-04T16:24:57Z</time>
      </trkpt>
      <trkpt lat="45.46837" lon="1.85377">
        <ele>868.9</ele>
        <time>2022-08-04T16:24:59Z</time>
      </trkpt>
      <trkpt lat="45.46848" lon="1.85385">
        <ele>868.6</ele>
        <time>2022-08-04T16:25:01Z</time>
      </trkpt>
      <trkpt lat="45.46861" lon="1.85388">
        <ele>868.2</ele>
        <time>2022-08-04T16:25:03Z</time>
      </trkpt>
      <trkpt lat="45.46875" lon="1.85387">
        <ele>867.7</ele>
        <time>2022-08-04T16:25:05Z</time>
      </trkpt>
      <trkpt lat="45.46891" lon="1.8539">
        <ele>867.1</ele>
        <time>2022-08-04T16:25:07Z</time>
      </trkpt>
      <trkpt lat="45.46906" lon="1.85399">
        <ele>865.9</ele>
        <time>2022-08-04T16:25:09Z</time>
      </trkpt>
      <trkpt lat="45.46922" lon="1.85411">
        <ele>864.5</ele>
        <time>2022-08-04T16:25:11Z</time>
      </trkpt>
      <trkpt lat="45.46938" lon="1.85424">
        <ele>863.5</ele>
        <time>2022-08-04T16:25:13Z</time>
      </trkpt>
      <trkpt lat="45.46954" lon="1.85434">
        <ele>862.8</ele>
        <time>2022-08-04T16:25:15Z</time>
      </trkpt>
      <trkpt lat="45.46972" lon="1.85439">
        <ele>862.1</ele>
        <time>2022-08-04T16:25:17Z</time>
      </trkpt>
      <trkpt lat="45.4699" lon="1.85442">
        <ele>861.4</ele>
        <time>2022-08-04T16:25:19Z</time>
      </trkpt>
      <trkpt lat="45.47009" lon="1.8544">
        <ele>860.6</ele>
        <time>2022-08-04T16:25:21Z</time>
      </trkpt>
      <trkpt lat="45.47027" lon="1.85437">
        <ele>859.4</ele>
        <time>2022-08-04T16:25:23Z</time>
      </trkpt>
      <trkpt lat="45.47043" lon="1.85429">
        <ele>858.7</ele>
        <time>2022-08-04T16:25:25Z</time>
      </trkpt>
      <trkpt lat="45.47059" lon="1.85422">
        <ele>857.7</ele>
        <time>2022-08-04T16:25:27Z</time>
      </trkpt>
      <trkpt lat="45.47074" lon="1.8543">
        <ele>856.1</ele>
        <time>2022-08-04T16:25:29Z</time>
      </trkpt>
      <trkpt lat="45.47084" lon="1.85448">
        <ele>854.6</ele>
        <time>2022-08-04T16:25:31Z</time>
      </trkpt>
      <trkpt lat="45.47093" lon="1.85465">
        <ele>854.2</ele>
        <time>2022-08-04T16:25:33Z</time>
      </trkpt>
      <trkpt lat="45.47095" lon="1.85485">
        <ele>853.1</ele>
        <time>2022-08-04T16:25:35Z</time>
      </trkpt>
      <trkpt lat="45.47086" lon="1.85504">
        <ele>852.3</ele>
        <time>2022-08-04T16:25:37Z</time>
      </trkpt>
      <trkpt lat="45.47077" lon="1.85521">
        <ele>853.5</ele>
        <time>2022-08-04T16:25:39Z</time>
      </trkpt>
      <trkpt lat="45.47067" lon="1.85538">
        <ele>854.7</ele>
        <time>2022-08-04T16:25:41Z</time>
      </trkpt>
      <trkpt lat="45.47058" lon="1.85554">
        <ele>855.6</ele>
        <time>2022-08-04T16:25:43Z</time>
      </trkpt>
      <trkpt lat="45.47046" lon="1.85566">
        <ele>856.1</ele>
        <time>2022-08-04T16:25:45Z</time>
      </trkpt>
      <trkpt lat="45.47037" lon="1.85576">
        <ele>856.3</ele>
        <time>2022-08-04T16:25:47Z</time>
      </trkpt>
      <trkpt lat="45.47028" lon="1.85585">
        <ele>856.6</ele>
        <time>2022-08-04T16:25:49Z</time>
      </trkpt>
      <trkpt lat="45.4702" lon="1.85594">
        <ele>857.5</ele>
        <time>2022-08-04T16:25:51Z</time>
      </trkpt>
      <trkpt lat="45.47012" lon="1.85603">
        <ele>858.4</ele>
        <time>2022-08-04T16:25:53Z</time>
      </trkpt>
      <trkpt lat="45.47005" lon="1.85611">
        <ele>859.2</ele>
        <time>2022-08-04T16:25:55Z</time>
      </trkpt>
      <trkpt lat="45.46999" lon="1.8562">
        <ele>860.1</ele>
        <time>2022-08-04T16:25:57Z</time>
      </trkpt>
      <trkpt lat="45.46994" lon="1.85628">
        <ele>861.5</ele>
        <time>2022-08-04T16:25:59Z</time>
      </trkpt>
      <trkpt lat="45.46988" lon="1.85636">
        <ele>862.9</ele>
        <time>2022-08-04T16:26:01Z</time>
      </trkpt>
      <trkpt lat="45.46983" lon="1.85644">
        <ele>864.1</ele>
        <time>2022-08-04T16:26:03Z</time>
      </trkpt>
      <trkpt lat="45.46979" lon="1.85652">
        <ele>865.1</ele>
        <time>2022-08-04T16:26:05Z</time>
      </trkpt>
      <trkpt lat="45.46975" lon="1.85659">
        <ele>865.9</ele>
        <time>2022-08-04T16:26:07Z</time>
      </trkpt>
      <trkpt lat="45.46971" lon="1.85665">
        <ele>866.6</ele>
        <time>2022-08-04T16:26:09Z</time>
      </trkpt>
      <trkpt lat="45.46968" lon="1.85671">
        <ele>867.3</ele>
        <time>2022-08-04T16:26:11Z</time>
      </trkpt>
      <trkpt lat="45.46965" lon="1.85676">
        <ele>868</ele>
        <time>2022-08-04T16:26:13Z</time>
      </trkpt>
      <trkpt lat="45.46963" lon="1.85681">
        <ele>868.6</ele>
        <time>2022-08-04T16:26:15Z</time>
      </trkpt>
      <trkpt lat="45.4696" lon="1.85686">
        <ele>869.1</ele>
        <time>2022-08-04T16:26:17Z</time>
      </trkpt>
      <trkpt lat="45.46957" lon="1.85692">
        <ele>869.6</ele>
        <time>2022-08-04T16:26:19Z</time>
      </trkpt>
      <trkpt lat="45.46954" lon="1.85697">
        <ele>870.1</ele>
        <time>2022-08-04T16:26:21Z</time>
      </trkpt>
      <trkpt lat="45.46953" lon="1.85703">
        <ele>870.5</ele>
        <time>2022-08-04T16:26:23Z</time>
      </trkpt>
      <trkpt lat="45.4695" lon="1.85708">
        <ele>870.9</ele>
        <time>2022-08-04T16:26:25Z</time>
      </trkpt>
      <trkpt lat="45.46949" lon="1.85713">
        <ele>871.2</ele>
        <time>2022-08-04T16:26:27Z</time>
      </trkpt>
      <trkpt lat="45.46947" lon="1.85718">
        <ele>871.5</ele>
        <time>2022-08-04T16:26:29Z</time>
      </trkpt>
      <trkpt lat="45.46946" lon="1.85723">
        <ele>871.8</ele>
        <time>2022-08-04T16:26:31Z</time>
      </trkpt>
      <trkpt lat="45.46945" lon="1.85729">
        <ele>872.1</ele>
        <time>2022-08-04T16:26:33Z</time>
      </trkpt>
      <trkpt lat="45.46943" lon="1.85734">
        <ele>872.3</ele>
        <time>2022-08-04T16:26:35Z</time>
      </trkpt>
      <trkpt lat="45.46942" lon="1.8574">
        <ele>872.6</ele>
        <time>2022-08-04T16:26:37Z</time>
      </trkpt>
      <trkpt lat="45.46941" lon="1.85745">
        <ele>872.8</ele>
        <time>2022-08-04T16:26:39Z</time>
      </trkpt>
      <trkpt lat="45.4694" lon="1.85749">
        <ele>872.9</ele>
        <time>2022-08-04T16:26:41Z</time>
      </trkpt>
      <trkpt lat="45.4694" lon="1.85754">
        <ele>873.2</ele>
        <time>2022-08-04T16:26:43Z</time>
      </trkpt>
      <trkpt lat="45.46939" lon="1.8576">
        <ele>873.4</ele>
        <time>2022-08-04T16:26:45Z</time>
      </trkpt>
      <trkpt lat="45.46938" lon="1.85766">
        <ele>873.6</ele>
        <time>2022-08-04T16:26:47Z</time>
      </trkpt>
      <trkpt lat="45.46936" lon="1.85771">
        <ele>873.7</ele>
        <time>2022-08-04T16:26:49Z</time>
      </trkpt>
      <trkpt lat="45.46935" lon="1.85776">
        <ele>873.9</ele>
        <time>2022-08-04T16:26:51Z</time>
      </trkpt>
      <trkpt lat="45.46933" lon="1.85781">
        <ele>874.1</ele>
        <time>2022-08-04T16:26:53Z</time>
      </trkpt>
      <trkpt lat="45.46932" lon="1.85786">
        <ele>874.2</ele>
        <time>2022-08-04T16:26:55Z</time>
      </trkpt>
      <trkpt lat="45.46931" lon="1.8579">
        <ele>874.3</ele>
        <time>2022-08-04T16:26:57Z</time>
      </trkpt>
      <trkpt lat="45.46929" lon="1.85795">
        <ele>874.3</ele>
        <time>2022-08-04T16:26:59Z</time>
      </trkpt>
      <trkpt lat="45.46926" lon="1.85799">
        <ele>874.2</ele>
        <time>2022-08-04T16:27:01Z</time>
      </trkpt>
      <trkpt lat="45.46923" lon="1.85803">
        <ele>874.2</ele>
        <time>2022-08-04T16:27:03Z</time>
      </trkpt>
      <trkpt lat="45.4692" lon="1.85808">
        <ele>874.1</ele>
        <time>2022-08-04T16:27:05Z</time>
      </trkpt>
      <trkpt lat="45.46917" lon="1.85813">
        <ele>874</ele>
        <time>2022-08-04T16:27:07Z</time>
      </trkpt>
      <trkpt lat="45.46914" lon="1.85818">
        <ele>874.5</ele>
        <time>2022-08-04T16:27:09Z</time>
      </trkpt>
      <trkpt lat="45.46911" lon="1.85822">
        <ele>875</ele>
        <time>2022-08-04T16:27:11Z</time>
      </trkpt>
      <trkpt lat="45.46908" lon="1.85828">
        <ele>875.5</ele>
        <time>2022-08-04T16:27:13Z</time>
      </trkpt>
      <trkpt lat="45.46905" lon="1.85834">
        <ele>876</ele>
        <time>2022-08-04T16:27:15Z</time>
      </trkpt>
      <trkpt lat="45.46902" lon="1.85839">
        <ele>876.5</ele>
        <time>2022-08-04T16:27:17Z</time>
      </trkpt>
      <trkpt lat="45.469" lon="1.85845">
        <ele>877</ele>
        <time>2022-08-04T16:27:19Z</time>
      </trkpt>
      <trkpt lat="45.46898" lon="1.85851">
        <ele>877.5</ele>
        <time>2022-08-04T16:27:21Z</time>
      </trkpt>
      <trkpt lat="45.46895" lon="1.85856">
        <ele>877.9</ele>
        <time>2022-08-04T16:27:23Z</time>
      </trkpt>
      <trkpt lat="45.46893" lon="1.85862">
        <ele>878.3</ele>
        <time>2022-08-04T16:27:25Z</time>
      </trkpt>
      <trkpt lat="45.46891" lon="1.85868">
        <ele>878.6</ele>
        <time>2022-08-04T16:27:27Z</time>
      </trkpt>
      <trkpt lat="45.4689" lon="1.85874">
        <ele>878.9</ele>
        <time>2022-08-04T16:27:29Z</time>
      </trkpt>
      <trkpt lat="45.46887" lon="1.85879">
        <ele>879.2</ele>
        <time>2022-08-04T16:27:31Z</time>
      </trkpt>
      <trkpt lat="45.46885" lon="1.85884">
        <ele>879.5</ele>
        <time>2022-08-04T16:27:33Z</time>
      </trkpt>
      <trkpt lat="45.46884" lon="1.85891">
        <ele>879.7</ele>
        <time>2022-08-04T16:27:35Z</time>
      </trkpt>
      <trkpt lat="45.46882" lon="1.85896">
        <ele>879.9</ele>
        <time>2022-08-04T16:27:37Z</time>
      </trkpt>
      <trkpt lat="45.4688" lon="1.85901">
        <ele>880.1</ele>
        <time>2022-08-04T16:27:39Z</time>
      </trkpt>
      <trkpt lat="45.46879" lon="1.85907">
        <ele>880.3</ele>
        <time>2022-08-04T16:27:41Z</time>
      </trkpt>
      <trkpt lat="45.46877" lon="1.85912">
        <ele>880.4</ele>
        <time>2022-08-04T16:27:43Z</time>
      </trkpt>
      <trkpt lat="45.46875" lon="1.85917">
        <ele>880.5</ele>
        <time>2022-08-04T16:27:45Z</time>
      </trkpt>
      <trkpt lat="45.46873" lon="1.85923">
        <ele>880.4</ele>
        <time>2022-08-04T16:27:47Z</time>
      </trkpt>
      <trkpt lat="45.46871" lon="1.85928">
        <ele>880.3</ele>
        <time>2022-08-04T16:27:49Z</time>
      </trkpt>
      <trkpt lat="45.46869" lon="1.85933">
        <ele>880.2</ele>
        <time>2022-08-04T16:27:51Z</time>
      </trkpt>
      <trkpt lat="45.46869" lon="1.85937">
        <ele>880.1</ele>
        <time>2022-08-04T16:27:53Z</time>
      </trkpt>
      <trkpt lat="45.46867" lon="1.85941">
        <ele>880</ele>
        <time>2022-08-04T16:27:55Z</time>
      </trkpt>
      <trkpt lat="45.46865" lon="1.85946">
        <ele>879.9</ele>
        <time>2022-08-04T16:27:57Z</time>
      </trkpt>
      <trkpt lat="45.46864" lon="1.8595">
        <ele>879.7</ele>
        <time>2022-08-04T16:27:59Z</time>
      </trkpt>
      <trkpt lat="45.46862" lon="1.85955">
        <ele>879.6</ele>
        <time>2022-08-04T16:28:01Z</time>
      </trkpt>
      <trkpt lat="45.4686" lon="1.85959">
        <ele>879.5</ele>
        <time>2022-08-04T16:28:03Z</time>
      </trkpt>
      <trkpt lat="45.46859" lon="1.85964">
        <ele>879.3</ele>
        <time>2022-08-04T16:28:05Z</time>
      </trkpt>
      <trkpt lat="45.46857" lon="1.85969">
        <ele>879.1</ele>
        <time>2022-08-04T16:28:07Z</time>
      </trkpt>
      <trkpt lat="45.46855" lon="1.85973">
        <ele>878.9</ele>
        <time>2022-08-04T16:28:09Z</time>
      </trkpt>
      <trkpt lat="45.46854" lon="1.85977">
        <ele>878.8</ele>
        <time>2022-08-04T16:28:11Z</time>
      </trkpt>
      <trkpt lat="45.46853" lon="1.85983">
        <ele>878.6</ele>
        <time>2022-08-04T16:28:13Z</time>
      </trkpt>
      <trkpt lat="45.46851" lon="1.85987">
        <ele>878.4</ele>
        <time>2022-08-04T16:28:15Z</time>
      </trkpt>
      <trkpt lat="45.4685" lon="1.85992">
        <ele>878.2</ele>
        <time>2022-08-04T16:28:17Z</time>
      </trkpt>
      <trkpt lat="45.46849" lon="1.85997">
        <ele>878</ele>
        <time>2022-08-04T16:28:19Z</time>
      </trkpt>
      <trkpt lat="45.46848" lon="1.86002">
        <ele>877.7</ele>
        <time>2022-08-04T16:28:21Z</time>
      </trkpt>
      <trkpt lat="45.46847" lon="1.86008">
        <ele>877.1</ele>
        <time>2022-08-04T16:28:23Z</time>
      </trkpt>
      <trkpt lat="45.46847" lon="1.86014">
        <ele>876.6</ele>
        <time>2022-08-04T16:28:25Z</time>
      </trkpt>
      <trkpt lat="45.46847" lon="1.86019">
        <ele>876.2</ele>
        <time>2022-08-04T16:28:27Z</time>
      </trkpt>
      <trkpt lat="45.46846" lon="1.86023">
        <ele>875.9</ele>
        <time>2022-08-04T16:28:29Z</time>
      </trkpt>
      <trkpt lat="45.46846" lon="1.86025">
        <ele>875.7</ele>
        <time>2022-08-04T16:28:31Z</time>
      </trkpt>
      <trkpt lat="45.46847" lon="1.86024">
        <ele>875.8</ele>
        <time>2022-08-04T16:28:33Z</time>
      </trkpt>
      <trkpt lat="45.46846" lon="1.86024">
        <ele>875.7</ele>
        <time>2022-08-04T16:28:35Z</time>
      </trkpt>
      <trkpt lat="45.46846" lon="1.86024">
        <ele>875.7</ele>
        <time>2022-08-04T16:28:37Z</time>
      </trkpt>
      <trkpt lat="45.46845" lon="1.86024">
        <ele>875.7</ele>
        <time>2022-08-04T16:28:39Z</time>
      </trkpt>
      <trkpt lat="45.46843" lon="1.86056">
        <ele>872.9</ele>
        <time>2022-08-04T16:29:57Z</time>
      </trkpt>
      <trkpt lat="45.46843" lon="1.86067">
        <ele>872</ele>
        <time>2022-08-04T16:29:59Z</time>
      </trkpt>
      <trkpt lat="45.46845" lon="1.86078">
        <ele>871.1</ele>
        <time>2022-08-04T16:30:01Z</time>
      </trkpt>
      <trkpt lat="45.46846" lon="1.86091">
        <ele>869.5</ele>
        <time>2022-08-04T16:30:03Z</time>
      </trkpt>
      <trkpt lat="45.46847" lon="1.86104">
        <ele>867</ele>
        <time>2022-08-04T16:30:05Z</time>
      </trkpt>
      <trkpt lat="45.46848" lon="1.86117">
        <ele>864.7</ele>
        <time>2022-08-04T16:30:07Z</time>
      </trkpt>
      <trkpt lat="45.46846" lon="1.86133">
        <ele>861.6</ele>
        <time>2022-08-04T16:30:09Z</time>
      </trkpt>
      <trkpt lat="45.46837" lon="1.8615">
        <ele>858.1</ele>
        <time>2022-08-04T16:30:11Z</time>
      </trkpt>
      <trkpt lat="45.46827" lon="1.86169">
        <ele>855</ele>
        <time>2022-08-04T16:30:13Z</time>
      </trkpt>
      <trkpt lat="45.46817" lon="1.86192">
        <ele>851.6</ele>
        <time>2022-08-04T16:30:15Z</time>
      </trkpt>
      <trkpt lat="45.46804" lon="1.86213">
        <ele>848.8</ele>
        <time>2022-08-04T16:30:17Z</time>
      </trkpt>
      <trkpt lat="45.46792" lon="1.86236">
        <ele>845.6</ele>
        <time>2022-08-04T16:30:19Z</time>
      </trkpt>
      <trkpt lat="45.46781" lon="1.8626">
        <ele>842.6</ele>
        <time>2022-08-04T16:30:21Z</time>
      </trkpt>
      <trkpt lat="45.46766" lon="1.86279">
        <ele>840.9</ele>
        <time>2022-08-04T16:30:23Z</time>
      </trkpt>
      <trkpt lat="45.4675" lon="1.86297">
        <ele>838.7</ele>
        <time>2022-08-04T16:30:25Z</time>
      </trkpt>
      <trkpt lat="45.46734" lon="1.86313">
        <ele>836.2</ele>
        <time>2022-08-04T16:30:27Z</time>
      </trkpt>
      <trkpt lat="45.46719" lon="1.86328">
        <ele>833.6</ele>
        <time>2022-08-04T16:30:29Z</time>
      </trkpt>
      <trkpt lat="45.46705" lon="1.86345">
        <ele>830.8</ele>
        <time>2022-08-04T16:30:31Z</time>
      </trkpt>
      <trkpt lat="45.46697" lon="1.86362">
        <ele>828</ele>
        <time>2022-08-04T16:30:33Z</time>
      </trkpt>
      <trkpt lat="45.46688" lon="1.86383">
        <ele>824.1</ele>
        <time>2022-08-04T16:30:35Z</time>
      </trkpt>
      <trkpt lat="45.4668" lon="1.86406">
        <ele>819.5</ele>
        <time>2022-08-04T16:30:37Z</time>
      </trkpt>
      <trkpt lat="45.46669" lon="1.86426">
        <ele>816.2</ele>
        <time>2022-08-04T16:30:39Z</time>
      </trkpt>
      <trkpt lat="45.46658" lon="1.86442">
        <ele>815.8</ele>
        <time>2022-08-04T16:30:41Z</time>
      </trkpt>
      <trkpt lat="45.46642" lon="1.86448">
        <ele>815.6</ele>
        <time>2022-08-04T16:30:43Z</time>
      </trkpt>
      <trkpt lat="45.46625" lon="1.86452">
        <ele>815.2</ele>
        <time>2022-08-04T16:30:45Z</time>
      </trkpt>
      <trkpt lat="45.46609" lon="1.86462">
        <ele>814.1</ele>
        <time>2022-08-04T16:30:47Z</time>
      </trkpt>
      <trkpt lat="45.46596" lon="1.86471">
        <ele>812.6</ele>
        <time>2022-08-04T16:30:49Z</time>
      </trkpt>
      <trkpt lat="45.46583" lon="1.86482">
        <ele>810.7</ele>
        <time>2022-08-04T16:30:51Z</time>
      </trkpt>
      <trkpt lat="45.46576" lon="1.8649">
        <ele>810.6</ele>
        <time>2022-08-04T16:30:53Z</time>
      </trkpt>
      <trkpt lat="45.46571" lon="1.86497">
        <ele>810.6</ele>
        <time>2022-08-04T16:30:55Z</time>
      </trkpt>
      <trkpt lat="45.46567" lon="1.86504">
        <ele>810.4</ele>
        <time>2022-08-04T16:30:57Z</time>
      </trkpt>
      <trkpt lat="45.46567" lon="1.8651">
        <ele>809.8</ele>
        <time>2022-08-04T16:30:59Z</time>
      </trkpt>
      <trkpt lat="45.46566" lon="1.86514">
        <ele>809.3</ele>
        <time>2022-08-04T16:31:01Z</time>
      </trkpt>
      <trkpt lat="45.46567" lon="1.86518">
        <ele>808.9</ele>
        <time>2022-08-04T16:31:03Z</time>
      </trkpt>
      <trkpt lat="45.46567" lon="1.86518">
        <ele>808.8</ele>
        <time>2022-08-04T16:31:05Z</time>
      </trkpt>
      <trkpt lat="45.46567" lon="1.86518">
        <ele>808.8</ele>
        <time>2022-08-04T16:31:07Z</time>
      </trkpt>
      <trkpt lat="45.46567" lon="1.86518">
        <ele>808.8</ele>
        <time>2022-08-04T16:31:09Z</time>
      </trkpt>
      <trkpt lat="45.46566" lon="1.86518">
        <ele>808.9</ele>
        <time>2022-08-04T16:31:11Z</time>
      </trkpt>
      <trkpt lat="45.46566" lon="1.86518">
        <ele>808.9</ele>
        <time>2022-08-04T16:31:13Z</time>
      </trkpt>
      <trkpt lat="45.46571" lon="1.86565">
        <ele>803.4</ele>
        <time>2022-08-04T16:31:31Z</time>
      </trkpt>
      <trkpt lat="45.46573" lon="1.86587">
        <ele>800.7</ele>
        <time>2022-08-04T16:31:33Z</time>
      </trkpt>
      <trkpt lat="45.46576" lon="1.86608">
        <ele>797.3</ele>
        <time>2022-08-04T16:31:35Z</time>
      </trkpt>
      <trkpt lat="45.46579" lon="1.86626">
        <ele>794.3</ele>
        <time>2022-08-04T16:31:37Z</time>
      </trkpt>
      <trkpt lat="45.46581" lon="1.86642">
        <ele>791.8</ele>
        <time>2022-08-04T16:31:39Z</time>
      </trkpt>
      <trkpt lat="45.46583" lon="1.86658">
        <ele>789.2</ele>
        <time>2022-08-04T16:31:41Z</time>
      </trkpt>
      <trkpt lat="45.46587" lon="1.86677">
        <ele>787.1</ele>
        <time>2022-08-04T16:31:43Z</time>
      </trkpt>
      <trkpt lat="45.46594" lon="1.86694">
        <ele>785.5</ele>
        <time>2022-08-04T16:31:45Z</time>
      </trkpt>
      <trkpt lat="45.46601" lon="1.86711">
        <ele>784.1</ele>
        <time>2022-08-04T16:31:47Z</time>
      </trkpt>
      <trkpt lat="45.46609" lon="1.86728">
        <ele>783.1</ele>
        <time>2022-08-04T16:31:49Z</time>
      </trkpt>
      <trkpt lat="45.46615" lon="1.86747">
        <ele>780.6</ele>
        <time>2022-08-04T16:31:51Z</time>
      </trkpt>
      <trkpt lat="45.46617" lon="1.86765">
        <ele>777.5</ele>
        <time>2022-08-04T16:31:53Z</time>
      </trkpt>
      <trkpt lat="45.46619" lon="1.86784">
        <ele>774.1</ele>
        <time>2022-08-04T16:31:55Z</time>
      </trkpt>
      <trkpt lat="45.46621" lon="1.86801">
        <ele>771.1</ele>
        <time>2022-08-04T16:31:57Z</time>
      </trkpt>
      <trkpt lat="45.46624" lon="1.86815">
        <ele>768.5</ele>
        <time>2022-08-04T16:31:59Z</time>
      </trkpt>
      <trkpt lat="45.46626" lon="1.86828">
        <ele>766.6</ele>
        <time>2022-08-04T16:32:01Z</time>
      </trkpt>
      <trkpt lat="45.46631" lon="1.8684">
        <ele>765.2</ele>
        <time>2022-08-04T16:32:03Z</time>
      </trkpt>
      <trkpt lat="45.46636" lon="1.86851">
        <ele>764.1</ele>
        <time>2022-08-04T16:32:05Z</time>
      </trkpt>
      <trkpt lat="45.46644" lon="1.86861">
        <ele>764</ele>
        <time>2022-08-04T16:32:07Z</time>
      </trkpt>
      <trkpt lat="45.46656" lon="1.86869">
        <ele>765.1</ele>
        <time>2022-08-04T16:32:09Z</time>
      </trkpt>
      <trkpt lat="45.4667" lon="1.86877">
        <ele>766.5</ele>
        <time>2022-08-04T16:32:11Z</time>
      </trkpt>
      <trkpt lat="45.46685" lon="1.86885">
        <ele>766.5</ele>
        <time>2022-08-04T16:32:13Z</time>
      </trkpt>
      <trkpt lat="45.467" lon="1.86892">
        <ele>766.9</ele>
        <time>2022-08-04T16:32:15Z</time>
      </trkpt>
      <trkpt lat="45.46714" lon="1.86903">
        <ele>766.5</ele>
        <time>2022-08-04T16:32:17Z</time>
      </trkpt>
      <trkpt lat="45.46727" lon="1.86913">
        <ele>766.4</ele>
        <time>2022-08-04T16:32:19Z</time>
      </trkpt>
      <trkpt lat="45.46736" lon="1.86923">
        <ele>766.6</ele>
        <time>2022-08-04T16:32:21Z</time>
      </trkpt>
      <trkpt lat="45.46737" lon="1.86941">
        <ele>766</ele>
        <time>2022-08-04T16:32:23Z</time>
      </trkpt>
      <trkpt lat="45.46731" lon="1.86956">
        <ele>764</ele>
        <time>2022-08-04T16:32:25Z</time>
      </trkpt>
      <trkpt lat="45.46724" lon="1.86971">
        <ele>761.3</ele>
        <time>2022-08-04T16:32:27Z</time>
      </trkpt>
      <trkpt lat="45.4672" lon="1.86988">
        <ele>758.5</ele>
        <time>2022-08-04T16:32:29Z</time>
      </trkpt>
      <trkpt lat="45.46715" lon="1.87008">
        <ele>755.5</ele>
        <time>2022-08-04T16:32:31Z</time>
      </trkpt>
      <trkpt lat="45.46705" lon="1.87027">
        <ele>752</ele>
        <time>2022-08-04T16:32:33Z</time>
      </trkpt>
      <trkpt lat="45.46695" lon="1.87045">
        <ele>748.5</ele>
        <time>2022-08-04T16:32:35Z</time>
      </trkpt>
      <trkpt lat="45.46685" lon="1.87061">
        <ele>745.3</ele>
        <time>2022-08-04T16:32:37Z</time>
      </trkpt>
      <trkpt lat="45.46676" lon="1.87077">
        <ele>742.7</ele>
        <time>2022-08-04T16:32:39Z</time>
      </trkpt>
      <trkpt lat="45.46669" lon="1.87096">
        <ele>741</ele>
        <time>2022-08-04T16:32:41Z</time>
      </trkpt>
      <trkpt lat="45.46667" lon="1.87116">
        <ele>740.7</ele>
        <time>2022-08-04T16:32:43Z</time>
      </trkpt>
      <trkpt lat="45.46666" lon="1.87136">
        <ele>740.9</ele>
        <time>2022-08-04T16:32:45Z</time>
      </trkpt>
      <trkpt lat="45.46663" lon="1.87156">
        <ele>740.5</ele>
        <time>2022-08-04T16:32:47Z</time>
      </trkpt>
      <trkpt lat="45.46657" lon="1.87174">
        <ele>738.5</ele>
        <time>2022-08-04T16:32:49Z</time>
      </trkpt>
      <trkpt lat="45.4665" lon="1.87191">
        <ele>735.6</ele>
        <time>2022-08-04T16:32:51Z</time>
      </trkpt>
      <trkpt lat="45.46644" lon="1.87205">
        <ele>733.4</ele>
        <time>2022-08-04T16:32:53Z</time>
      </trkpt>
      <trkpt lat="45.4664" lon="1.87214">
        <ele>731.9</ele>
        <time>2022-08-04T16:32:55Z</time>
      </trkpt>
      <trkpt lat="45.46637" lon="1.87222">
        <ele>730.8</ele>
        <time>2022-08-04T16:32:57Z</time>
      </trkpt>
      <trkpt lat="45.46633" lon="1.87229">
        <ele>729.4</ele>
        <time>2022-08-04T16:32:59Z</time>
      </trkpt>
      <trkpt lat="45.4663" lon="1.87235">
        <ele>728.5</ele>
        <time>2022-08-04T16:33:01Z</time>
      </trkpt>
      <trkpt lat="45.46627" lon="1.87244">
        <ele>727.6</ele>
        <time>2022-08-04T16:33:03Z</time>
      </trkpt>
      <trkpt lat="45.46626" lon="1.87256">
        <ele>726.6</ele>
        <time>2022-08-04T16:33:05Z</time>
      </trkpt>
      <trkpt lat="45.46626" lon="1.87262">
        <ele>725.7</ele>
        <time>2022-08-04T16:33:07Z</time>
      </trkpt>
      <trkpt lat="45.46624" lon="1.87264">
        <ele>725.1</ele>
        <time>2022-08-04T16:33:09Z</time>
      </trkpt>
      <trkpt lat="45.46623" lon="1.87264">
        <ele>724.9</ele>
        <time>2022-08-04T16:33:11Z</time>
      </trkpt>
      <trkpt lat="45.46623" lon="1.87263">
        <ele>724.9</ele>
        <time>2022-08-04T16:33:13Z</time>
      </trkpt>
      <trkpt lat="45.46623" lon="1.87263">
        <ele>724.9</ele>
        <time>2022-08-04T16:33:15Z</time>
      </trkpt>
      <trkpt lat="45.46622" lon="1.87263">
        <ele>724.8</ele>
        <time>2022-08-04T16:33:17Z</time>
      </trkpt>
      <trkpt lat="45.46629" lon="1.87284">
        <ele>723.8</ele>
        <time>2022-08-04T16:33:57Z</time>
      </trkpt>
      <trkpt lat="45.46634" lon="1.87291">
        <ele>723.9</ele>
        <time>2022-08-04T16:33:59Z</time>
      </trkpt>
      <trkpt lat="45.46642" lon="1.87298">
        <ele>724.4</ele>
        <time>2022-08-04T16:34:01Z</time>
      </trkpt>
      <trkpt lat="45.46651" lon="1.87304">
        <ele>725.2</ele>
        <time>2022-08-04T16:34:03Z</time>
      </trkpt>
      <trkpt lat="45.46663" lon="1.8731">
        <ele>726.4</ele>
        <time>2022-08-04T16:34:05Z</time>
      </trkpt>
      <trkpt lat="45.46678" lon="1.87317">
        <ele>725.4</ele>
        <time>2022-08-04T16:34:07Z</time>
      </trkpt>
      <trkpt lat="45.46696" lon="1.87322">
        <ele>723.6</ele>
        <time>2022-08-04T16:34:09Z</time>
      </trkpt>
      <trkpt lat="45.46711" lon="1.87326">
        <ele>721.9</ele>
        <time>2022-08-04T16:34:11Z</time>
      </trkpt>
      <trkpt lat="45.46726" lon="1.87326">
        <ele>721.3</ele>
        <time>2022-08-04T16:34:13Z</time>
      </trkpt>
      <trkpt lat="45.4674" lon="1.8732">
        <ele>722.1</ele>
        <time>2022-08-04T16:34:15Z</time>
      </trkpt>
      <trkpt lat="45.46755" lon="1.87316">
        <ele>722.7</ele>
        <time>2022-08-04T16:34:17Z</time>
      </trkpt>
      <trkpt lat="45.46771" lon="1.87317">
        <ele>721.6</ele>
        <time>2022-08-04T16:34:19Z</time>
      </trkpt>
      <trkpt lat="45.46787" lon="1.87322">
        <ele>719.4</ele>
        <time>2022-08-04T16:34:21Z</time>
      </trkpt>
      <trkpt lat="45.46802" lon="1.87325">
        <ele>718</ele>
        <time>2022-08-04T16:34:23Z</time>
      </trkpt>
      <trkpt lat="45.46817" lon="1.87319">
        <ele>718.8</ele>
        <time>2022-08-04T16:34:25Z</time>
      </trkpt>
      <trkpt lat="45.46831" lon="1.87322">
        <ele>717.4</ele>
        <time>2022-08-04T16:34:27Z</time>
      </trkpt>
      <trkpt lat="45.46838" lon="1.87342">
        <ele>714.5</ele>
        <time>2022-08-04T16:34:29Z</time>
      </trkpt>
      <trkpt lat="45.46839" lon="1.87365">
        <ele>711.9</ele>
        <time>2022-08-04T16:34:31Z</time>
      </trkpt>
      <trkpt lat="45.46836" lon="1.87389">
        <ele>708.8</ele>
        <time>2022-08-04T16:34:33Z</time>
      </trkpt>
      <trkpt lat="45.46834" lon="1.87413">
        <ele>705.5</ele>
        <time>2022-08-04T16:34:35Z</time>
      </trkpt>
      <trkpt lat="45.46836" lon="1.87436">
        <ele>704.4</ele>
        <time>2022-08-04T16:34:37Z</time>
      </trkpt>
      <trkpt lat="45.46833" lon="1.87457">
        <ele>703</ele>
        <time>2022-08-04T16:34:39Z</time>
      </trkpt>
      <trkpt lat="45.46822" lon="1.87478">
        <ele>700.3</ele>
        <time>2022-08-04T16:34:41Z</time>
      </trkpt>
      <trkpt lat="45.46807" lon="1.87495">
        <ele>696.7</ele>
        <time>2022-08-04T16:34:43Z</time>
      </trkpt>
      <trkpt lat="45.46795" lon="1.87513">
        <ele>693.4</ele>
        <time>2022-08-04T16:34:45Z</time>
      </trkpt>
      <trkpt lat="45.46789" lon="1.8753">
        <ele>691.4</ele>
        <time>2022-08-04T16:34:47Z</time>
      </trkpt>
      <trkpt lat="45.46786" lon="1.87548">
        <ele>690</ele>
        <time>2022-08-04T16:34:49Z</time>
      </trkpt>
      <trkpt lat="45.46781" lon="1.87564">
        <ele>688.2</ele>
        <time>2022-08-04T16:34:51Z</time>
      </trkpt>
      <trkpt lat="45.46772" lon="1.87577">
        <ele>686</ele>
        <time>2022-08-04T16:34:53Z</time>
      </trkpt>
      <trkpt lat="45.46761" lon="1.8759">
        <ele>683.4</ele>
        <time>2022-08-04T16:34:55Z</time>
      </trkpt>
      <trkpt lat="45.46754" lon="1.87596">
        <ele>682</ele>
        <time>2022-08-04T16:34:57Z</time>
      </trkpt>
      <trkpt lat="45.46747" lon="1.87602">
        <ele>680.7</ele>
        <time>2022-08-04T16:34:59Z</time>
      </trkpt>
      <trkpt lat="45.46736" lon="1.8761">
        <ele>679.1</ele>
        <time>2022-08-04T16:35:01Z</time>
      </trkpt>
      <trkpt lat="45.46726" lon="1.87618">
        <ele>677.6</ele>
        <time>2022-08-04T16:35:03Z</time>
      </trkpt>
      <trkpt lat="45.46716" lon="1.8763">
        <ele>676.2</ele>
        <time>2022-08-04T16:35:05Z</time>
      </trkpt>
      <trkpt lat="45.46706" lon="1.87648">
        <ele>675</ele>
        <time>2022-08-04T16:35:07Z</time>
      </trkpt>
      <trkpt lat="45.46702" lon="1.87667">
        <ele>674.5</ele>
        <time>2022-08-04T16:35:09Z</time>
      </trkpt>
      <trkpt lat="45.467" lon="1.87685">
        <ele>670.9</ele>
        <time>2022-08-04T16:35:11Z</time>
      </trkpt>
      <trkpt lat="45.46697" lon="1.87698">
        <ele>668.4</ele>
        <time>2022-08-04T16:35:13Z</time>
      </trkpt>
      <trkpt lat="45.4669" lon="1.87709">
        <ele>666.4</ele>
        <time>2022-08-04T16:35:15Z</time>
      </trkpt>
      <trkpt lat="45.46677" lon="1.87709">
        <ele>666.1</ele>
        <time>2022-08-04T16:35:17Z</time>
      </trkpt>
      <trkpt lat="45.46663" lon="1.87699">
        <ele>667</ele>
        <time>2022-08-04T16:35:19Z</time>
      </trkpt>
      <trkpt lat="45.4665" lon="1.87691">
        <ele>666.1</ele>
        <time>2022-08-04T16:35:21Z</time>
      </trkpt>
      <trkpt lat="45.46639" lon="1.87688">
        <ele>664.5</ele>
        <time>2022-08-04T16:35:23Z</time>
      </trkpt>
      <trkpt lat="45.46628" lon="1.87693">
        <ele>662.6</ele>
        <time>2022-08-04T16:35:25Z</time>
      </trkpt>
      <trkpt lat="45.4662" lon="1.87703">
        <ele>661.2</ele>
        <time>2022-08-04T16:35:27Z</time>
      </trkpt>
      <trkpt lat="45.46614" lon="1.87715">
        <ele>660.1</ele>
        <time>2022-08-04T16:35:29Z</time>
      </trkpt>
      <trkpt lat="45.46607" lon="1.87726">
        <ele>659.5</ele>
        <time>2022-08-04T16:35:31Z</time>
      </trkpt>
      <trkpt lat="45.46603" lon="1.87735">
        <ele>659.2</ele>
        <time>2022-08-04T16:35:33Z</time>
      </trkpt>
      <trkpt lat="45.46602" lon="1.87742">
        <ele>659.2</ele>
        <time>2022-08-04T16:35:35Z</time>
      </trkpt>
      <trkpt lat="45.46602" lon="1.87743">
        <ele>659.2</ele>
        <time>2022-08-04T16:35:37Z</time>
      </trkpt>
      <trkpt lat="45.46602" lon="1.87743">
        <ele>659.2</ele>
        <time>2022-08-04T16:35:39Z</time>
      </trkpt>
      <trkpt lat="45.46602" lon="1.87743">
        <ele>659.2</ele>
        <time>2022-08-04T16:35:41Z</time>
      </trkpt>
      <trkpt lat="45.46602" lon="1.87743">
        <ele>659.2</ele>
        <time>2022-08-04T16:35:45Z</time>
      </trkpt>
      <trkpt lat="45.46602" lon="1.87773">
        <ele>656.8</ele>
        <time>2022-08-04T16:35:53Z</time>
      </trkpt>
      <trkpt lat="45.466" lon="1.87787">
        <ele>655.4</ele>
        <time>2022-08-04T16:35:55Z</time>
      </trkpt>
      <trkpt lat="45.46596" lon="1.87804">
        <ele>653.8</ele>
        <time>2022-08-04T16:35:57Z</time>
      </trkpt>
      <trkpt lat="45.46592" lon="1.87823">
        <ele>652.2</ele>
        <time>2022-08-04T16:35:59Z</time>
      </trkpt>
      <trkpt lat="45.46588" lon="1.87845">
        <ele>650.3</ele>
        <time>2022-08-04T16:36:01Z</time>
      </trkpt>
      <trkpt lat="45.46585" lon="1.87867">
        <ele>648.2</ele>
        <time>2022-08-04T16:36:03Z</time>
      </trkpt>
      <trkpt lat="45.4658" lon="1.87889">
        <ele>645.9</ele>
        <time>2022-08-04T16:36:05Z</time>
      </trkpt>
      <trkpt lat="45.46579" lon="1.8791">
        <ele>643.6</ele>
        <time>2022-08-04T16:36:07Z</time>
      </trkpt>
      <trkpt lat="45.46579" lon="1.8793">
        <ele>641.5</ele>
        <time>2022-08-04T16:36:09Z</time>
      </trkpt>
      <trkpt lat="45.46573" lon="1.87951">
        <ele>639.3</ele>
        <time>2022-08-04T16:36:11Z</time>
      </trkpt>
      <trkpt lat="45.46561" lon="1.87969">
        <ele>637.4</ele>
        <time>2022-08-04T16:36:13Z</time>
      </trkpt>
      <trkpt lat="45.46548" lon="1.87984">
        <ele>635.7</ele>
        <time>2022-08-04T16:36:15Z</time>
      </trkpt>
      <trkpt lat="45.46536" lon="1.87998">
        <ele>634.2</ele>
        <time>2022-08-04T16:36:17Z</time>
      </trkpt>
      <trkpt lat="45.46523" lon="1.88007">
        <ele>633.3</ele>
        <time>2022-08-04T16:36:19Z</time>
      </trkpt>
      <trkpt lat="45.46511" lon="1.88011">
        <ele>633</ele>
        <time>2022-08-04T16:36:21Z</time>
      </trkpt>
      <trkpt lat="45.46497" lon="1.8801">
        <ele>632.9</ele>
        <time>2022-08-04T16:36:23Z</time>
      </trkpt>
      <trkpt lat="45.46484" lon="1.88009">
        <ele>632.1</ele>
        <time>2022-08-04T16:36:25Z</time>
      </trkpt>
      <trkpt lat="45.46473" lon="1.88006">
        <ele>631.6</ele>
        <time>2022-08-04T16:36:27Z</time>
      </trkpt>
      <trkpt lat="45.46463" lon="1.88004">
        <ele>631.1</ele>
        <time>2022-08-04T16:36:29Z</time>
      </trkpt>
      <trkpt lat="45.46453" lon="1.88003">
        <ele>630.4</ele>
        <time>2022-08-04T16:36:31Z</time>
      </trkpt>
      <trkpt lat="45.46444" lon="1.88003">
        <ele>629.8</ele>
        <time>2022-08-04T16:36:33Z</time>
      </trkpt>
      <trkpt lat="45.46432" lon="1.88002">
        <ele>629</ele>
        <time>2022-08-04T16:36:35Z</time>
      </trkpt>
      <trkpt lat="45.46419" lon="1.87999">
        <ele>628.3</ele>
        <time>2022-08-04T16:36:37Z</time>
      </trkpt>
      <trkpt lat="45.46406" lon="1.87994">
        <ele>627.6</ele>
        <time>2022-08-04T16:36:39Z</time>
      </trkpt>
      <trkpt lat="45.46392" lon="1.8799">
        <ele>626.8</ele>
        <time>2022-08-04T16:36:41Z</time>
      </trkpt>
      <trkpt lat="45.46377" lon="1.87988">
        <ele>625.9</ele>
        <time>2022-08-04T16:36:43Z</time>
      </trkpt>
      <trkpt lat="45.46366" lon="1.87989">
        <ele>625.1</ele>
        <time>2022-08-04T16:36:45Z</time>
      </trkpt>
      <trkpt lat="45.46355" lon="1.87993">
        <ele>624.3</ele>
        <time>2022-08-04T16:36:47Z</time>
      </trkpt>
      <trkpt lat="45.46347" lon="1.87993">
        <ele>623.8</ele>
        <time>2022-08-04T16:36:49Z</time>
      </trkpt>
      <trkpt lat="45.46333" lon="1.87991">
        <ele>622.8</ele>
        <time>2022-08-04T16:36:51Z</time>
      </trkpt>
      <trkpt lat="45.46308" lon="1.87988">
        <ele>620.8</ele>
        <time>2022-08-04T16:36:53Z</time>
      </trkpt>
      <trkpt lat="45.46299" lon="1.87985">
        <ele>619.9</ele>
        <time>2022-08-04T16:36:55Z</time>
      </trkpt>
      <trkpt lat="45.46291" lon="1.8798">
        <ele>619.2</ele>
        <time>2022-08-04T16:36:57Z</time>
      </trkpt>
      <trkpt lat="45.46285" lon="1.87974">
        <ele>618.6</ele>
        <time>2022-08-04T16:36:59Z</time>
      </trkpt>
      <trkpt lat="45.46278" lon="1.87969">
        <ele>618</ele>
        <time>2022-08-04T16:37:01Z</time>
      </trkpt>
      <trkpt lat="45.46272" lon="1.87966">
        <ele>617.4</ele>
        <time>2022-08-04T16:37:03Z</time>
      </trkpt>
      <trkpt lat="45.46266" lon="1.87965">
        <ele>616.9</ele>
        <time>2022-08-04T16:37:05Z</time>
      </trkpt>
      <trkpt lat="45.46255" lon="1.87962">
        <ele>616</ele>
        <time>2022-08-04T16:37:07Z</time>
      </trkpt>
      <trkpt lat="45.46243" lon="1.87966">
        <ele>615.2</ele>
        <time>2022-08-04T16:37:09Z</time>
      </trkpt>
      <trkpt lat="45.4623" lon="1.8798">
        <ele>614.4</ele>
        <time>2022-08-04T16:37:11Z</time>
      </trkpt>
      <trkpt lat="45.46214" lon="1.87992">
        <ele>613.1</ele>
        <time>2022-08-04T16:37:13Z</time>
      </trkpt>
      <trkpt lat="45.46193" lon="1.88004">
        <ele>611.2</ele>
        <time>2022-08-04T16:37:15Z</time>
      </trkpt>
      <trkpt lat="45.4617" lon="1.88015">
        <ele>609.6</ele>
        <time>2022-08-04T16:37:17Z</time>
      </trkpt>
      <trkpt lat="45.46148" lon="1.88022">
        <ele>610.1</ele>
        <time>2022-08-04T16:37:19Z</time>
      </trkpt>
      <trkpt lat="45.46128" lon="1.88024">
        <ele>610.7</ele>
        <time>2022-08-04T16:37:21Z</time>
      </trkpt>
      <trkpt lat="45.46108" lon="1.8802">
        <ele>611</ele>
        <time>2022-08-04T16:37:23Z</time>
      </trkpt>
      <trkpt lat="45.46091" lon="1.88016">
        <ele>611</ele>
        <time>2022-08-04T16:37:25Z</time>
      </trkpt>
      <trkpt lat="45.46076" lon="1.88015">
        <ele>611.2</ele>
        <time>2022-08-04T16:37:27Z</time>
      </trkpt>
      <trkpt lat="45.46062" lon="1.88016">
        <ele>611.4</ele>
        <time>2022-08-04T16:37:29Z</time>
      </trkpt>
      <trkpt lat="45.4605" lon="1.88017">
        <ele>611.8</ele>
        <time>2022-08-04T16:37:31Z</time>
      </trkpt>
      <trkpt lat="45.4604" lon="1.88018">
        <ele>612.1</ele>
        <time>2022-08-04T16:37:33Z</time>
      </trkpt>
      <trkpt lat="45.46031" lon="1.88018">
        <ele>612.3</ele>
        <time>2022-08-04T16:37:35Z</time>
      </trkpt>
      <trkpt lat="45.46022" lon="1.88019">
        <ele>612.5</ele>
        <time>2022-08-04T16:37:37Z</time>
      </trkpt>
      <trkpt lat="45.46014" lon="1.88019">
        <ele>612.6</ele>
        <time>2022-08-04T16:37:39Z</time>
      </trkpt>
      <trkpt lat="45.46005" lon="1.8802">
        <ele>612.8</ele>
        <time>2022-08-04T16:37:41Z</time>
      </trkpt>
      <trkpt lat="45.45998" lon="1.8802">
        <ele>613</ele>
        <time>2022-08-04T16:37:43Z</time>
      </trkpt>
      <trkpt lat="45.45991" lon="1.8802">
        <ele>613.2</ele>
        <time>2022-08-04T16:37:45Z</time>
      </trkpt>
      <trkpt lat="45.45985" lon="1.88021">
        <ele>613.4</ele>
        <time>2022-08-04T16:37:47Z</time>
      </trkpt>
      <trkpt lat="45.4598" lon="1.88022">
        <ele>613.6</ele>
        <time>2022-08-04T16:37:49Z</time>
      </trkpt>
      <trkpt lat="45.45975" lon="1.88022">
        <ele>613.7</ele>
        <time>2022-08-04T16:37:51Z</time>
      </trkpt>
      <trkpt lat="45.4597" lon="1.88022">
        <ele>613.8</ele>
        <time>2022-08-04T16:37:53Z</time>
      </trkpt>
      <trkpt lat="45.45966" lon="1.88022">
        <ele>613.9</ele>
        <time>2022-08-04T16:37:55Z</time>
      </trkpt>
      <trkpt lat="45.45962" lon="1.88021">
        <ele>613.9</ele>
        <time>2022-08-04T16:37:57Z</time>
      </trkpt>
      <trkpt lat="45.45959" lon="1.88021">
        <ele>614</ele>
        <time>2022-08-04T16:37:59Z</time>
      </trkpt>
      <trkpt lat="45.45955" lon="1.88022">
        <ele>614.2</ele>
        <time>2022-08-04T16:38:01Z</time>
      </trkpt>
      <trkpt lat="45.45952" lon="1.88023">
        <ele>614.4</ele>
        <time>2022-08-04T16:38:03Z</time>
      </trkpt>
      <trkpt lat="45.45949" lon="1.88024">
        <ele>614.5</ele>
        <time>2022-08-04T16:38:05Z</time>
      </trkpt>
      <trkpt lat="45.45946" lon="1.88025">
        <ele>614.7</ele>
        <time>2022-08-04T16:38:07Z</time>
      </trkpt>
      <trkpt lat="45.45943" lon="1.88027">
        <ele>614.9</ele>
        <time>2022-08-04T16:38:09Z</time>
      </trkpt>
      <trkpt lat="45.4594" lon="1.88028">
        <ele>615.1</ele>
        <time>2022-08-04T16:38:11Z</time>
      </trkpt>
      <trkpt lat="45.45937" lon="1.88029">
        <ele>615.3</ele>
        <time>2022-08-04T16:38:13Z</time>
      </trkpt>
      <trkpt lat="45.45935" lon="1.88031">
        <ele>615.5</ele>
        <time>2022-08-04T16:38:15Z</time>
      </trkpt>
      <trkpt lat="45.45933" lon="1.88033">
        <ele>615.8</ele>
        <time>2022-08-04T16:38:17Z</time>
      </trkpt>
      <trkpt lat="45.4593" lon="1.88036">
        <ele>616.1</ele>
        <time>2022-08-04T16:38:19Z</time>
      </trkpt>
      <trkpt lat="45.45928" lon="1.88039">
        <ele>616.4</ele>
        <time>2022-08-04T16:38:21Z</time>
      </trkpt>
      <trkpt lat="45.45926" lon="1.88042">
        <ele>616.8</ele>
        <time>2022-08-04T16:38:23Z</time>
      </trkpt>
      <trkpt lat="45.45925" lon="1.88045">
        <ele>617.1</ele>
        <time>2022-08-04T16:38:25Z</time>
      </trkpt>
      <trkpt lat="45.45923" lon="1.88048">
        <ele>617.4</ele>
        <time>2022-08-04T16:38:27Z</time>
      </trkpt>
      <trkpt lat="45.45922" lon="1.88052">
        <ele>617.8</ele>
        <time>2022-08-04T16:38:29Z</time>
      </trkpt>
      <trkpt lat="45.45921" lon="1.88055">
        <ele>618.2</ele>
        <time>2022-08-04T16:38:31Z</time>
      </trkpt>
      <trkpt lat="45.45921" lon="1.88059">
        <ele>618.6</ele>
        <time>2022-08-04T16:38:33Z</time>
      </trkpt>
      <trkpt lat="45.45921" lon="1.88063">
        <ele>619</ele>
        <time>2022-08-04T16:38:35Z</time>
      </trkpt>
      <trkpt lat="45.45919" lon="1.88067">
        <ele>619.4</ele>
        <time>2022-08-04T16:38:37Z</time>
      </trkpt>
      <trkpt lat="45.45918" lon="1.88071">
        <ele>619.8</ele>
        <time>2022-08-04T16:38:39Z</time>
      </trkpt>
      <trkpt lat="45.45918" lon="1.88075">
        <ele>620.2</ele>
        <time>2022-08-04T16:38:41Z</time>
      </trkpt>
      <trkpt lat="45.45918" lon="1.88079">
        <ele>620.5</ele>
        <time>2022-08-04T16:38:43Z</time>
      </trkpt>
      <trkpt lat="45.45918" lon="1.88083">
        <ele>620.9</ele>
        <time>2022-08-04T16:38:45Z</time>
      </trkpt>
      <trkpt lat="45.45918" lon="1.88087">
        <ele>621.3</ele>
        <time>2022-08-04T16:38:47Z</time>
      </trkpt>
      <trkpt lat="45.45918" lon="1.88091">
        <ele>621.7</ele>
        <time>2022-08-04T16:38:49Z</time>
      </trkpt>
      <trkpt lat="45.45917" lon="1.88095">
        <ele>622.1</ele>
        <time>2022-08-04T16:38:51Z</time>
      </trkpt>
      <trkpt lat="45.45917" lon="1.88098">
        <ele>622.4</ele>
        <time>2022-08-04T16:38:53Z</time>
      </trkpt>
      <trkpt lat="45.45917" lon="1.88102">
        <ele>622.8</ele>
        <time>2022-08-04T16:38:55Z</time>
      </trkpt>
      <trkpt lat="45.45917" lon="1.88105">
        <ele>623.1</ele>
        <time>2022-08-04T16:38:57Z</time>
      </trkpt>
      <trkpt lat="45.45916" lon="1.88109">
        <ele>623.5</ele>
        <time>2022-08-04T16:38:59Z</time>
      </trkpt>
      <trkpt lat="45.45916" lon="1.88113">
        <ele>623.8</ele>
        <time>2022-08-04T16:39:01Z</time>
      </trkpt>
      <trkpt lat="45.45915" lon="1.88115">
        <ele>624</ele>
        <time>2022-08-04T16:39:03Z</time>
      </trkpt>
      <trkpt lat="45.45914" lon="1.88119">
        <ele>624.4</ele>
        <time>2022-08-04T16:39:05Z</time>
      </trkpt>
      <trkpt lat="45.45914" lon="1.88122">
        <ele>624.6</ele>
        <time>2022-08-04T16:39:07Z</time>
      </trkpt>
      <trkpt lat="45.45912" lon="1.88127">
        <ele>625</ele>
        <time>2022-08-04T16:39:09Z</time>
      </trkpt>
      <trkpt lat="45.45911" lon="1.8813">
        <ele>625.3</ele>
        <time>2022-08-04T16:39:11Z</time>
      </trkpt>
      <trkpt lat="45.4591" lon="1.88133">
        <ele>625.5</ele>
        <time>2022-08-04T16:39:13Z</time>
      </trkpt>
      <trkpt lat="45.45909" lon="1.88137">
        <ele>625.8</ele>
        <time>2022-08-04T16:39:15Z</time>
      </trkpt>
      <trkpt lat="45.45908" lon="1.88141">
        <ele>626.2</ele>
        <time>2022-08-04T16:39:17Z</time>
      </trkpt>
      <trkpt lat="45.45907" lon="1.88144">
        <ele>626.4</ele>
        <time>2022-08-04T16:39:19Z</time>
      </trkpt>
      <trkpt lat="45.45906" lon="1.88147">
        <ele>626.6</ele>
        <time>2022-08-04T16:39:21Z</time>
      </trkpt>
      <trkpt lat="45.45905" lon="1.88151">
        <ele>627</ele>
        <time>2022-08-04T16:39:23Z</time>
      </trkpt>
      <trkpt lat="45.45904" lon="1.88153">
        <ele>627.2</ele>
        <time>2022-08-04T16:39:25Z</time>
      </trkpt>
      <trkpt lat="45.45903" lon="1.88157">
        <ele>627.5</ele>
        <time>2022-08-04T16:39:27Z</time>
      </trkpt>
      <trkpt lat="45.45902" lon="1.88161">
        <ele>627.8</ele>
        <time>2022-08-04T16:39:29Z</time>
      </trkpt>
      <trkpt lat="45.459" lon="1.88172">
        <ele>628.5</ele>
        <time>2022-08-04T16:39:31Z</time>
      </trkpt>
      <trkpt lat="45.45899" lon="1.88176">
        <ele>628.8</ele>
        <time>2022-08-04T16:39:33Z</time>
      </trkpt>
      <trkpt lat="45.45898" lon="1.88179">
        <ele>629</ele>
        <time>2022-08-04T16:39:35Z</time>
      </trkpt>
      <trkpt lat="45.45897" lon="1.88184">
        <ele>629.3</ele>
        <time>2022-08-04T16:39:37Z</time>
      </trkpt>
      <trkpt lat="45.45896" lon="1.88188">
        <ele>629.6</ele>
        <time>2022-08-04T16:39:39Z</time>
      </trkpt>
      <trkpt lat="45.45895" lon="1.88193">
        <ele>629.8</ele>
        <time>2022-08-04T16:39:41Z</time>
      </trkpt>
      <trkpt lat="45.45896" lon="1.88196">
        <ele>630.1</ele>
        <time>2022-08-04T16:39:43Z</time>
      </trkpt>
      <trkpt lat="45.45894" lon="1.88201">
        <ele>630.4</ele>
        <time>2022-08-04T16:39:45Z</time>
      </trkpt>
      <trkpt lat="45.45894" lon="1.88206">
        <ele>630.8</ele>
        <time>2022-08-04T16:39:47Z</time>
      </trkpt>
      <trkpt lat="45.45894" lon="1.8821">
        <ele>631.1</ele>
        <time>2022-08-04T16:39:49Z</time>
      </trkpt>
      <trkpt lat="45.45893" lon="1.88217">
        <ele>631.5</ele>
        <time>2022-08-04T16:39:51Z</time>
      </trkpt>
      <trkpt lat="45.45892" lon="1.88222">
        <ele>631.9</ele>
        <time>2022-08-04T16:39:53Z</time>
      </trkpt>
      <trkpt lat="45.4589" lon="1.88226">
        <ele>632.2</ele>
        <time>2022-08-04T16:39:55Z</time>
      </trkpt>
      <trkpt lat="45.4589" lon="1.88231">
        <ele>632.6</ele>
        <time>2022-08-04T16:39:57Z</time>
      </trkpt>
      <trkpt lat="45.45887" lon="1.88236">
        <ele>632.9</ele>
        <time>2022-08-04T16:39:59Z</time>
      </trkpt>
      <trkpt lat="45.45886" lon="1.8824">
        <ele>633.2</ele>
        <time>2022-08-04T16:40:01Z</time>
      </trkpt>
      <trkpt lat="45.45885" lon="1.88245">
        <ele>633.6</ele>
        <time>2022-08-04T16:40:03Z</time>
      </trkpt>
      <trkpt lat="45.45884" lon="1.88249">
        <ele>634</ele>
        <time>2022-08-04T16:40:05Z</time>
      </trkpt>
      <trkpt lat="45.45882" lon="1.88255">
        <ele>634.7</ele>
        <time>2022-08-04T16:40:07Z</time>
      </trkpt>
      <trkpt lat="45.4588" lon="1.88259">
        <ele>635.3</ele>
        <time>2022-08-04T16:40:09Z</time>
      </trkpt>
      <trkpt lat="45.45878" lon="1.88264">
        <ele>636</ele>
        <time>2022-08-04T16:40:11Z</time>
      </trkpt>
      <trkpt lat="45.45875" lon="1.88267">
        <ele>636.6</ele>
        <time>2022-08-04T16:40:13Z</time>
      </trkpt>
      <trkpt lat="45.45872" lon="1.8827">
        <ele>637</ele>
        <time>2022-08-04T16:40:15Z</time>
      </trkpt>
      <trkpt lat="45.45869" lon="1.88273">
        <ele>637.5</ele>
        <time>2022-08-04T16:40:17Z</time>
      </trkpt>
      <trkpt lat="45.45867" lon="1.88276">
        <ele>638</ele>
        <time>2022-08-04T16:40:19Z</time>
      </trkpt>
      <trkpt lat="45.45864" lon="1.88278">
        <ele>638.3</ele>
        <time>2022-08-04T16:40:21Z</time>
      </trkpt>
      <trkpt lat="45.4586" lon="1.88279">
        <ele>638.5</ele>
        <time>2022-08-04T16:40:23Z</time>
      </trkpt>
      <trkpt lat="45.45857" lon="1.88281">
        <ele>638.8</ele>
        <time>2022-08-04T16:40:25Z</time>
      </trkpt>
      <trkpt lat="45.45855" lon="1.88282">
        <ele>639</ele>
        <time>2022-08-04T16:40:27Z</time>
      </trkpt>
      <trkpt lat="45.45852" lon="1.88282">
        <ele>639.1</ele>
        <time>2022-08-04T16:40:29Z</time>
      </trkpt>
      <trkpt lat="45.45848" lon="1.88282">
        <ele>639.1</ele>
        <time>2022-08-04T16:40:31Z</time>
      </trkpt>
      <trkpt lat="45.45845" lon="1.88282">
        <ele>639.2</ele>
        <time>2022-08-04T16:40:33Z</time>
      </trkpt>
      <trkpt lat="45.45843" lon="1.88282">
        <ele>639.2</ele>
        <time>2022-08-04T16:40:35Z</time>
      </trkpt>
      <trkpt lat="45.45839" lon="1.88281">
        <ele>639.2</ele>
        <time>2022-08-04T16:40:37Z</time>
      </trkpt>
      <trkpt lat="45.45836" lon="1.8828">
        <ele>639.1</ele>
        <time>2022-08-04T16:40:39Z</time>
      </trkpt>
      <trkpt lat="45.45832" lon="1.88279">
        <ele>639</ele>
        <time>2022-08-04T16:40:41Z</time>
      </trkpt>
      <trkpt lat="45.45829" lon="1.88279">
        <ele>639.2</ele>
        <time>2022-08-04T16:40:43Z</time>
      </trkpt>
      <trkpt lat="45.45827" lon="1.88278">
        <ele>639.5</ele>
        <time>2022-08-04T16:40:45Z</time>
      </trkpt>
      <trkpt lat="45.45824" lon="1.88278">
        <ele>639.6</ele>
        <time>2022-08-04T16:40:47Z</time>
      </trkpt>
      <trkpt lat="45.4582" lon="1.88277">
        <ele>639.8</ele>
        <time>2022-08-04T16:40:49Z</time>
      </trkpt>
      <trkpt lat="45.45818" lon="1.88276">
        <ele>639.9</ele>
        <time>2022-08-04T16:40:51Z</time>
      </trkpt>
      <trkpt lat="45.45815" lon="1.88274">
        <ele>639.9</ele>
        <time>2022-08-04T16:40:53Z</time>
      </trkpt>
      <trkpt lat="45.45811" lon="1.88272">
        <ele>639.9</ele>
        <time>2022-08-04T16:40:55Z</time>
      </trkpt>
      <trkpt lat="45.45808" lon="1.88271">
        <ele>640.1</ele>
        <time>2022-08-04T16:40:57Z</time>
      </trkpt>
      <trkpt lat="45.45805" lon="1.88271">
        <ele>640.3</ele>
        <time>2022-08-04T16:40:59Z</time>
      </trkpt>
      <trkpt lat="45.45802" lon="1.88271">
        <ele>640.6</ele>
        <time>2022-08-04T16:41:01Z</time>
      </trkpt>
      <trkpt lat="45.45798" lon="1.88269">
        <ele>640.6</ele>
        <time>2022-08-04T16:41:03Z</time>
      </trkpt>
      <trkpt lat="45.45795" lon="1.88269">
        <ele>640.9</ele>
        <time>2022-08-04T16:41:05Z</time>
      </trkpt>
      <trkpt lat="45.45792" lon="1.88268">
        <ele>641.1</ele>
        <time>2022-08-04T16:41:07Z</time>
      </trkpt>
      <trkpt lat="45.45789" lon="1.88268">
        <ele>641.3</ele>
        <time>2022-08-04T16:41:09Z</time>
      </trkpt>
      <trkpt lat="45.45785" lon="1.88268">
        <ele>641.7</ele>
        <time>2022-08-04T16:41:11Z</time>
      </trkpt>
      <trkpt lat="45.45782" lon="1.88268">
        <ele>642.2</ele>
        <time>2022-08-04T16:41:13Z</time>
      </trkpt>
      <trkpt lat="45.45778" lon="1.88269">
        <ele>642.6</ele>
        <time>2022-08-04T16:41:15Z</time>
      </trkpt>
      <trkpt lat="45.45774" lon="1.88268">
        <ele>642.9</ele>
        <time>2022-08-04T16:41:17Z</time>
      </trkpt>
      <trkpt lat="45.4577" lon="1.88268">
        <ele>643.2</ele>
        <time>2022-08-04T16:41:19Z</time>
      </trkpt>
      <trkpt lat="45.45768" lon="1.88268">
        <ele>643.4</ele>
        <time>2022-08-04T16:41:21Z</time>
      </trkpt>
      <trkpt lat="45.45763" lon="1.88267">
        <ele>643.8</ele>
        <time>2022-08-04T16:41:23Z</time>
      </trkpt>
      <trkpt lat="45.45759" lon="1.88266">
        <ele>644</ele>
        <time>2022-08-04T16:41:25Z</time>
      </trkpt>
      <trkpt lat="45.45755" lon="1.88265">
        <ele>644.2</ele>
        <time>2022-08-04T16:41:27Z</time>
      </trkpt>
      <trkpt lat="45.45751" lon="1.88264">
        <ele>644.4</ele>
        <time>2022-08-04T16:41:29Z</time>
      </trkpt>
      <trkpt lat="45.45748" lon="1.88263">
        <ele>644.3</ele>
        <time>2022-08-04T16:41:31Z</time>
      </trkpt>
      <trkpt lat="45.45744" lon="1.88261">
        <ele>644.1</ele>
        <time>2022-08-04T16:41:33Z</time>
      </trkpt>
      <trkpt lat="45.4574" lon="1.88258">
        <ele>643.6</ele>
        <time>2022-08-04T16:41:35Z</time>
      </trkpt>
      <trkpt lat="45.45737" lon="1.88255">
        <ele>643.3</ele>
        <time>2022-08-04T16:41:37Z</time>
      </trkpt>
      <trkpt lat="45.45735" lon="1.88252">
        <ele>642.8</ele>
        <time>2022-08-04T16:41:39Z</time>
      </trkpt>
      <trkpt lat="45.45732" lon="1.8825">
        <ele>642.4</ele>
        <time>2022-08-04T16:41:41Z</time>
      </trkpt>
      <trkpt lat="45.4573" lon="1.88247">
        <ele>642.2</ele>
        <time>2022-08-04T16:41:43Z</time>
      </trkpt>
      <trkpt lat="45.45728" lon="1.88245">
        <ele>642</ele>
        <time>2022-08-04T16:41:45Z</time>
      </trkpt>
      <trkpt lat="45.45725" lon="1.88242">
        <ele>641.7</ele>
        <time>2022-08-04T16:41:47Z</time>
      </trkpt>
      <trkpt lat="45.45722" lon="1.88239">
        <ele>641.4</ele>
        <time>2022-08-04T16:41:49Z</time>
      </trkpt>
      <trkpt lat="45.45719" lon="1.88236">
        <ele>641.1</ele>
        <time>2022-08-04T16:41:51Z</time>
      </trkpt>
      <trkpt lat="45.45716" lon="1.88234">
        <ele>640.9</ele>
        <time>2022-08-04T16:41:53Z</time>
      </trkpt>
      <trkpt lat="45.45713" lon="1.88231">
        <ele>640.7</ele>
        <time>2022-08-04T16:41:55Z</time>
      </trkpt>
      <trkpt lat="45.45708" lon="1.88227">
        <ele>640.2</ele>
        <time>2022-08-04T16:41:57Z</time>
      </trkpt>
      <trkpt lat="45.45704" lon="1.88222">
        <ele>639.7</ele>
        <time>2022-08-04T16:41:59Z</time>
      </trkpt>
      <trkpt lat="45.45699" lon="1.88217">
        <ele>639.2</ele>
        <time>2022-08-04T16:42:01Z</time>
      </trkpt>
      <trkpt lat="45.45694" lon="1.88212">
        <ele>638.6</ele>
        <time>2022-08-04T16:42:03Z</time>
      </trkpt>
      <trkpt lat="45.45689" lon="1.88207">
        <ele>638.1</ele>
        <time>2022-08-04T16:42:05Z</time>
      </trkpt>
      <trkpt lat="45.45684" lon="1.88201">
        <ele>637.4</ele>
        <time>2022-08-04T16:42:07Z</time>
      </trkpt>
      <trkpt lat="45.45678" lon="1.88194">
        <ele>636.5</ele>
        <time>2022-08-04T16:42:09Z</time>
      </trkpt>
      <trkpt lat="45.45671" lon="1.88188">
        <ele>635.8</ele>
        <time>2022-08-04T16:42:11Z</time>
      </trkpt>
      <trkpt lat="45.45665" lon="1.88182">
        <ele>635</ele>
        <time>2022-08-04T16:42:13Z</time>
      </trkpt>
      <trkpt lat="45.4566" lon="1.88176">
        <ele>634.5</ele>
        <time>2022-08-04T16:42:15Z</time>
      </trkpt>
      <trkpt lat="45.45654" lon="1.8817">
        <ele>634.1</ele>
        <time>2022-08-04T16:42:17Z</time>
      </trkpt>
      <trkpt lat="45.45648" lon="1.88164">
        <ele>633.8</ele>
        <time>2022-08-04T16:42:19Z</time>
      </trkpt>
      <trkpt lat="45.45642" lon="1.88158">
        <ele>633.9</ele>
        <time>2022-08-04T16:42:21Z</time>
      </trkpt>
      <trkpt lat="45.45636" lon="1.88152">
        <ele>633.9</ele>
        <time>2022-08-04T16:42:23Z</time>
      </trkpt>
      <trkpt lat="45.4563" lon="1.88148">
        <ele>634</ele>
        <time>2022-08-04T16:42:25Z</time>
      </trkpt>
      <trkpt lat="45.45626" lon="1.88142">
        <ele>633.9</ele>
        <time>2022-08-04T16:42:27Z</time>
      </trkpt>
      <trkpt lat="45.45622" lon="1.88136">
        <ele>633.8</ele>
        <time>2022-08-04T16:42:29Z</time>
      </trkpt>
      <trkpt lat="45.45618" lon="1.88131">
        <ele>633.8</ele>
        <time>2022-08-04T16:42:31Z</time>
      </trkpt>
      <trkpt lat="45.45614" lon="1.88127">
        <ele>633.7</ele>
        <time>2022-08-04T16:42:33Z</time>
      </trkpt>
      <trkpt lat="45.45611" lon="1.88122">
        <ele>633.6</ele>
        <time>2022-08-04T16:42:35Z</time>
      </trkpt>
      <trkpt lat="45.45607" lon="1.8812">
        <ele>633.5</ele>
        <time>2022-08-04T16:42:37Z</time>
      </trkpt>
      <trkpt lat="45.45607" lon="1.88114">
        <ele>633.2</ele>
        <time>2022-08-04T16:42:39Z</time>
      </trkpt>
      <trkpt lat="45.45609" lon="1.88108">
        <ele>632.9</ele>
        <time>2022-08-04T16:42:41Z</time>
      </trkpt>
      <trkpt lat="45.45612" lon="1.88102">
        <ele>632.5</ele>
        <time>2022-08-04T16:42:43Z</time>
      </trkpt>
      <trkpt lat="45.45614" lon="1.88096">
        <ele>632.2</ele>
        <time>2022-08-04T16:42:45Z</time>
      </trkpt>
      <trkpt lat="45.45616" lon="1.88091">
        <ele>632</ele>
        <time>2022-08-04T16:42:47Z</time>
      </trkpt>
      <trkpt lat="45.45617" lon="1.88085">
        <ele>631.7</ele>
        <time>2022-08-04T16:42:49Z</time>
      </trkpt>
      <trkpt lat="45.45618" lon="1.88079">
        <ele>631.4</ele>
        <time>2022-08-04T16:42:51Z</time>
      </trkpt>
      <trkpt lat="45.45618" lon="1.88073">
        <ele>631.3</ele>
        <time>2022-08-04T16:42:53Z</time>
      </trkpt>
      <trkpt lat="45.45618" lon="1.88067">
        <ele>631.1</ele>
        <time>2022-08-04T16:42:55Z</time>
      </trkpt>
      <trkpt lat="45.45618" lon="1.88062">
        <ele>630.9</ele>
        <time>2022-08-04T16:42:57Z</time>
      </trkpt>
      <trkpt lat="45.45618" lon="1.88057">
        <ele>630.8</ele>
        <time>2022-08-04T16:42:59Z</time>
      </trkpt>
      <trkpt lat="45.45619" lon="1.88053">
        <ele>630.6</ele>
        <time>2022-08-04T16:43:01Z</time>
      </trkpt>
      <trkpt lat="45.45619" lon="1.88049">
        <ele>630.5</ele>
        <time>2022-08-04T16:43:03Z</time>
      </trkpt>
      <trkpt lat="45.45621" lon="1.88047">
        <ele>630.4</ele>
        <time>2022-08-04T16:43:05Z</time>
      </trkpt>
      <trkpt lat="45.45623" lon="1.88043">
        <ele>630.3</ele>
        <time>2022-08-04T16:43:07Z</time>
      </trkpt>
      <trkpt lat="45.45624" lon="1.88039">
        <ele>630.2</ele>
        <time>2022-08-04T16:43:09Z</time>
      </trkpt>
      <trkpt lat="45.45626" lon="1.88034">
        <ele>630</ele>
        <time>2022-08-04T16:43:11Z</time>
      </trkpt>
      <trkpt lat="45.45627" lon="1.88032">
        <ele>630</ele>
        <time>2022-08-04T16:43:13Z</time>
      </trkpt>
      <trkpt lat="45.45627" lon="1.88032">
        <ele>629.9</ele>
        <time>2022-08-04T16:43:15Z</time>
      </trkpt>
      <trkpt lat="45.45627" lon="1.88032">
        <ele>630</ele>
        <time>2022-08-04T16:43:17Z</time>
      </trkpt>
      <trkpt lat="45.45626" lon="1.88033">
        <ele>630</ele>
        <time>2022-08-04T16:43:19Z</time>
      </trkpt>
      <trkpt lat="45.45626" lon="1.88035">
        <ele>630</ele>
        <time>2022-08-04T16:43:21Z</time>
      </trkpt>
      <trkpt lat="45.45618" lon="1.88064">
        <ele>631</ele>
        <time>2022-08-04T16:43:45Z</time>
      </trkpt>
      <trkpt lat="45.45618" lon="1.8807">
        <ele>631.2</ele>
        <time>2022-08-04T16:43:47Z</time>
      </trkpt>
      <trkpt lat="45.4562" lon="1.88074">
        <ele>631.3</ele>
        <time>2022-08-04T16:43:49Z</time>
      </trkpt>
      <trkpt lat="45.45623" lon="1.88077">
        <ele>631.3</ele>
        <time>2022-08-04T16:43:51Z</time>
      </trkpt>
      <trkpt lat="45.45628" lon="1.88075">
        <ele>631.2</ele>
        <time>2022-08-04T16:43:53Z</time>
      </trkpt>
      <trkpt lat="45.45632" lon="1.88073">
        <ele>631.1</ele>
        <time>2022-08-04T16:43:55Z</time>
      </trkpt>
      <trkpt lat="45.45636" lon="1.88072">
        <ele>631</ele>
        <time>2022-08-04T16:43:57Z</time>
      </trkpt>
      <trkpt lat="45.45638" lon="1.88068">
        <ele>630.9</ele>
        <time>2022-08-04T16:43:59Z</time>
      </trkpt>
      <trkpt lat="45.45639" lon="1.88061">
        <ele>630.7</ele>
        <time>2022-08-04T16:44:01Z</time>
      </trkpt>
      <trkpt lat="45.45636" lon="1.88055">
        <ele>630.6</ele>
        <time>2022-08-04T16:44:03Z</time>
      </trkpt>
      <trkpt lat="45.45638" lon="1.88054">
        <ele>630.5</ele>
        <time>2022-08-04T16:44:05Z</time>
      </trkpt>
      <trkpt lat="45.45639" lon="1.88053">
        <ele>630.5</ele>
        <time>2022-08-04T16:44:07Z</time>
      </trkpt>
      <trkpt lat="45.45642" lon="1.88051">
        <ele>630.4</ele>
        <time>2022-08-04T16:44:09Z</time>
      </trkpt>
      <trkpt lat="45.45645" lon="1.8805">
        <ele>630.4</ele>
        <time>2022-08-04T16:44:11Z</time>
      </trkpt>
      <trkpt lat="45.45647" lon="1.8805">
        <ele>630.3</ele>
        <time>2022-08-04T16:44:13Z</time>
      </trkpt>
      <trkpt lat="45.45647" lon="1.8805">
        <ele>630.3</ele>
        <time>2022-08-04T16:44:15Z</time>
      </trkpt>
      <trkpt lat="45.45646" lon="1.8805">
        <ele>630.3</ele>
        <time>2022-08-04T16:44:17Z</time>
      </trkpt>
      <trkpt lat="45.45646" lon="1.8805">
        <ele>630.4</ele>
        <time>2022-08-04T16:44:19Z</time>
      </trkpt>
      <trkpt lat="45.45646" lon="1.88051">
        <ele>630.4</ele>
        <time>2022-08-04T16:44:21Z</time>
      </trkpt>
      <trkpt lat="45.45646" lon="1.8805">
        <ele>630.4</ele>
        <time>2022-08-04T16:44:23Z</time>
      </trkpt>
      <trkpt lat="45.45646" lon="1.8805">
        <ele>630.4</ele>
        <time>2022-08-04T16:44:25Z</time>
      </trkpt>
      <trkpt lat="45.45646" lon="1.88051">
        <ele>630.4</ele>
        <time>2022-08-04T16:44:27Z</time>
      </trkpt>
      <trkpt lat="45.45646" lon="1.88051">
        <ele>630.4</ele>
        <time>2022-08-04T16:44:29Z</time>
      </trkpt>
      <trkpt lat="45.45647" lon="1.88052">
        <ele>630.4</ele>
        <time>2022-08-04T16:44:31Z</time>
      </trkpt>
      <trkpt lat="45.45647" lon="1.88052">
        <ele>630.4</ele>
        <time>2022-08-04T16:44:33Z</time>
      </trkpt>
      <trkpt lat="45.45647" lon="1.88052">
        <ele>630.4</ele>
        <time>2022-08-04T16:44:37Z</time>
      </trkpt>
      <trkpt lat="45.45646" lon="1.88052">
        <ele>630.4</ele>
        <time>2022-08-04T16:44:39Z</time>
      </trkpt>
      <trkpt lat="45.45646" lon="1.88052">
        <ele>630.4</ele>
        <time>2022-08-04T16:44:41Z</time>
      </trkpt>
      <trkpt lat="45.45646" lon="1.88053">
        <ele>630.4</ele>
        <time>2022-08-04T16:44:45Z</time>
      </trkpt>
      <trkpt lat="45.45645" lon="1.88053">
        <ele>630.4</ele>
        <time>2022-08-04T16:44:49Z</time>
      </trkpt>
      <trkpt lat="45.45645" lon="1.88053">
        <ele>630.4</ele>
        <time>2022-08-04T16:44:51Z</time>
      </trkpt>
      <trkpt lat="45.45646" lon="1.88053">
        <ele>630.4</ele>
        <time>2022-08-04T16:44:53Z</time>
      </trkpt>
      <trkpt lat="45.45646" lon="1.88053">
        <ele>630.4</ele>
        <time>2022-08-04T16:44:55Z</time>
      </trkpt>
      <trkpt lat="45.45646" lon="1.88053">
        <ele>630.4</ele>
        <time>2022-08-04T16:44:59Z</time>
      </trkpt>
      <trkpt lat="45.45645" lon="1.88054">
        <ele>630.5</ele>
        <time>2022-08-04T16:45:01Z</time>
      </trkpt>
      <trkpt lat="45.45646" lon="1.88054">
        <ele>630.4</ele>
        <time>2022-08-04T16:45:03Z</time>
      </trkpt>
      <trkpt lat="45.45646" lon="1.88054">
        <ele>630.4</ele>
        <time>2022-08-04T16:45:05Z</time>
      </trkpt>
      <trkpt lat="45.45646" lon="1.88053">
        <ele>630.4</ele>
        <time>2022-08-04T16:45:07Z</time>
      </trkpt>
      <trkpt lat="45.45646" lon="1.88053">
        <ele>630.4</ele>
        <time>2022-08-04T16:45:09Z</time>
      </trkpt>
      <trkpt lat="45.45646" lon="1.88053">
        <ele>630.4</ele>
        <time>2022-08-04T16:45:11Z</time>
      </trkpt>
      <trkpt lat="45.45646" lon="1.88053">
        <ele>630.4</ele>
        <time>2022-08-04T16:45:13Z</time>
      </trkpt>
      <trkpt lat="45.45646" lon="1.88053">
        <ele>630.4</ele>
        <time>2022-08-04T16:45:15Z</time>
      </trkpt>
      <trkpt lat="45.45647" lon="1.88053">
        <ele>630.4</ele>
        <time>2022-08-04T16:45:17Z</time>
      </trkpt>
      <trkpt lat="45.45648" lon="1.88057">
        <ele>630.5</ele>
        <time>2022-08-04T16:45:19Z</time>
      </trkpt>
      <trkpt lat="45.45645" lon="1.88059">
        <ele>630.6</ele>
        <time>2022-08-04T16:45:21Z</time>
      </trkpt>
      <trkpt lat="45.45644" lon="1.88062">
        <ele>630.7</ele>
        <time>2022-08-04T16:45:23Z</time>
      </trkpt>
      <trkpt lat="45.4564" lon="1.88064">
        <ele>630.8</ele>
        <time>2022-08-04T16:45:25Z</time>
      </trkpt>
      <trkpt lat="45.45635" lon="1.88068">
        <ele>630.9</ele>
        <time>2022-08-04T16:45:27Z</time>
      </trkpt>
      <trkpt lat="45.45631" lon="1.88071">
        <ele>631.1</ele>
        <time>2022-08-04T16:45:29Z</time>
      </trkpt>
      <trkpt lat="45.45629" lon="1.88069">
        <ele>631</ele>
        <time>2022-08-04T16:45:31Z</time>
      </trkpt>
      <trkpt lat="45.45629" lon="1.88067">
        <ele>631</ele>
        <time>2022-08-04T16:45:33Z</time>
      </trkpt>
      <trkpt lat="45.45629" lon="1.88067">
        <ele>631</ele>
        <time>2022-08-04T16:45:35Z</time>
      </trkpt>
      <trkpt lat="45.45629" lon="1.88067">
        <ele>631</ele>
        <time>2022-08-04T16:45:37Z</time>
      </trkpt>
      <trkpt lat="45.45629" lon="1.88067">
        <ele>631</ele>
        <time>2022-08-04T16:45:39Z</time>
      </trkpt>
      <trkpt lat="45.45629" lon="1.88068">
        <ele>631</ele>
        <time>2022-08-04T16:45:41Z</time>
      </trkpt>
      <trkpt lat="45.45628" lon="1.88068">
        <ele>631</ele>
        <time>2022-08-04T16:45:43Z</time>
      </trkpt>
      <trkpt lat="45.45628" lon="1.88068">
        <ele>631</ele>
        <time>2022-08-04T16:45:45Z</time>
      </trkpt>
      <trkpt lat="45.45628" lon="1.88068">
        <ele>631</ele>
        <time>2022-08-04T16:45:47Z</time>
      </trkpt>
      <trkpt lat="45.45628" lon="1.88068">
        <ele>631</ele>
        <time>2022-08-04T16:45:49Z</time>
      </trkpt>
      <trkpt lat="45.45628" lon="1.88068">
        <ele>631</ele>
        <time>2022-08-04T16:45:51Z</time>
      </trkpt>
      <trkpt lat="45.45628" lon="1.88069">
        <ele>631</ele>
        <time>2022-08-04T16:45:53Z</time>
      </trkpt>
      <trkpt lat="45.45627" lon="1.8807">
        <ele>631.1</ele>
        <time>2022-08-04T16:45:57Z</time>
      </trkpt>
      <trkpt lat="45.45627" lon="1.88069">
        <ele>631</ele>
        <time>2022-08-04T16:45:59Z</time>
      </trkpt>
      <trkpt lat="45.45628" lon="1.88069">
        <ele>631</ele>
        <time>2022-08-04T16:46:01Z</time>
      </trkpt>
      <trkpt lat="45.45627" lon="1.8807">
        <ele>631.1</ele>
        <time>2022-08-04T16:46:03Z</time>
      </trkpt>
      <trkpt lat="45.45627" lon="1.8807">
        <ele>631.1</ele>
        <time>2022-08-04T16:46:05Z</time>
      </trkpt>
      <trkpt lat="45.45627" lon="1.88071">
        <ele>631.1</ele>
        <time>2022-08-04T16:46:07Z</time>
      </trkpt>
      <trkpt lat="45.45626" lon="1.88071">
        <ele>631.1</ele>
        <time>2022-08-04T16:46:09Z</time>
      </trkpt>
      <trkpt lat="45.45626" lon="1.88071">
        <ele>631.1</ele>
        <time>2022-08-04T16:46:11Z</time>
      </trkpt>
      <trkpt lat="45.45625" lon="1.88071">
        <ele>631.1</ele>
        <time>2022-08-04T16:46:13Z</time>
      </trkpt>
      <trkpt lat="45.45625" lon="1.88071">
        <ele>631.1</ele>
        <time>2022-08-04T16:46:15Z</time>
      </trkpt>
      <trkpt lat="45.45625" lon="1.8807">
        <ele>631.1</ele>
        <time>2022-08-04T16:46:17Z</time>
      </trkpt>
      <trkpt lat="45.45625" lon="1.88068">
        <ele>631</ele>
        <time>2022-08-04T16:46:19Z</time>
      </trkpt>
      <trkpt lat="45.45626" lon="1.88067">
        <ele>631</ele>
        <time>2022-08-04T16:46:21Z</time>
      </trkpt>
      <trkpt lat="45.45626" lon="1.88067">
        <ele>631</ele>
        <time>2022-08-04T16:46:23Z</time>
      </trkpt>
      <trkpt lat="45.45626" lon="1.88067">
        <ele>631</ele>
        <time>2022-08-04T16:46:27Z</time>
      </trkpt>
      <trkpt lat="45.45626" lon="1.88067">
        <ele>631</ele>
        <time>2022-08-04T16:46:31Z</time>
      </trkpt>
      <trkpt lat="45.45625" lon="1.88065">
        <ele>630.9</ele>
        <time>2022-08-04T16:46:35Z</time>
      </trkpt>
      <trkpt lat="45.45625" lon="1.88065">
        <ele>630.9</ele>
        <time>2022-08-04T16:46:37Z</time>
      </trkpt>
      <trkpt lat="45.45625" lon="1.88065">
        <ele>630.9</ele>
        <time>2022-08-04T16:46:39Z</time>
      </trkpt>
      <trkpt lat="45.45625" lon="1.88065">
        <ele>631</ele>
        <time>2022-08-04T16:46:41Z</time>
      </trkpt>
      <trkpt lat="45.45625" lon="1.88066">
        <ele>631</ele>
        <time>2022-08-04T16:46:43Z</time>
      </trkpt>
      <trkpt lat="45.45625" lon="1.88066">
        <ele>631</ele>
        <time>2022-08-04T16:46:45Z</time>
      </trkpt>
      <trkpt lat="45.45626" lon="1.88066">
        <ele>631</ele>
        <time>2022-08-04T16:46:47Z</time>
      </trkpt>
      <trkpt lat="45.45627" lon="1.88067">
        <ele>631</ele>
        <time>2022-08-04T16:46:49Z</time>
      </trkpt>
      <trkpt lat="45.45627" lon="1.88069">
        <ele>631</ele>
        <time>2022-08-04T16:46:51Z</time>
      </trkpt>
      <trkpt lat="45.45628" lon="1.88069">
        <ele>631.1</ele>
        <time>2022-08-04T16:46:53Z</time>
      </trkpt>
      <trkpt lat="45.45629" lon="1.88069">
        <ele>631</ele>
        <time>2022-08-04T16:46:55Z</time>
      </trkpt>
      <trkpt lat="45.4563" lon="1.88068">
        <ele>631</ele>
        <time>2022-08-04T16:46:57Z</time>
      </trkpt>
      <trkpt lat="45.45631" lon="1.88067">
        <ele>631</ele>
        <time>2022-08-04T16:46:59Z</time>
      </trkpt>
      <trkpt lat="45.45633" lon="1.88066">
        <ele>630.9</ele>
        <time>2022-08-04T16:47:01Z</time>
      </trkpt>
      <trkpt lat="45.45634" lon="1.88065">
        <ele>630.9</ele>
        <time>2022-08-04T16:47:03Z</time>
      </trkpt>
      <trkpt lat="45.45635" lon="1.88064">
        <ele>630.8</ele>
        <time>2022-08-04T16:47:05Z</time>
      </trkpt>
      <trkpt lat="45.45637" lon="1.88063">
        <ele>630.8</ele>
        <time>2022-08-04T16:47:07Z</time>
      </trkpt>
      <trkpt lat="45.45638" lon="1.88062">
        <ele>630.7</ele>
        <time>2022-08-04T16:47:09Z</time>
      </trkpt>
      <trkpt lat="45.45639" lon="1.88061">
        <ele>630.7</ele>
        <time>2022-08-04T16:47:11Z</time>
      </trkpt>
      <trkpt lat="45.45639" lon="1.88061">
        <ele>630.7</ele>
        <time>2022-08-04T16:47:13Z</time>
      </trkpt>
      <trkpt lat="45.45639" lon="1.88061">
        <ele>630.7</ele>
        <time>2022-08-04T16:47:15Z</time>
      </trkpt>
      <trkpt lat="45.45639" lon="1.88061">
        <ele>630.7</ele>
        <time>2022-08-04T16:47:17Z</time>
      </trkpt>
      <trkpt lat="45.45639" lon="1.88061">
        <ele>630.7</ele>
        <time>2022-08-04T16:47:19Z</time>
      </trkpt>
      <trkpt lat="45.45639" lon="1.88061">
        <ele>630.7</ele>
        <time>2022-08-04T16:47:21Z</time>
      </trkpt>
      <trkpt lat="45.45639" lon="1.88061">
        <ele>630.7</ele>
        <time>2022-08-04T16:47:23Z</time>
      </trkpt>
      <trkpt lat="45.45639" lon="1.88061">
        <ele>630.7</ele>
        <time>2022-08-04T16:47:25Z</time>
      </trkpt>
      <trkpt lat="45.45639" lon="1.8806">
        <ele>630.7</ele>
        <time>2022-08-04T16:47:27Z</time>
      </trkpt>
      <trkpt lat="45.45639" lon="1.88059">
        <ele>630.6</ele>
        <time>2022-08-04T16:47:29Z</time>
      </trkpt>
      <trkpt lat="45.45639" lon="1.88059">
        <ele>630.6</ele>
        <time>2022-08-04T16:47:31Z</time>
      </trkpt>
      <trkpt lat="45.45639" lon="1.88059">
        <ele>630.6</ele>
        <time>2022-08-04T16:47:33Z</time>
      </trkpt>
      <trkpt lat="45.45639" lon="1.88059">
        <ele>630.6</ele>
        <time>2022-08-04T16:47:35Z</time>
      </trkpt>
      <trkpt lat="45.45639" lon="1.88059">
        <ele>630.7</ele>
        <time>2022-08-04T16:47:37Z</time>
      </trkpt>
      <trkpt lat="45.45639" lon="1.88059">
        <ele>630.6</ele>
        <time>2022-08-04T16:47:39Z</time>
      </trkpt>
      <trkpt lat="45.45639" lon="1.88059">
        <ele>630.6</ele>
        <time>2022-08-04T16:47:41Z</time>
      </trkpt>
      <trkpt lat="45.45639" lon="1.88059">
        <ele>630.6</ele>
        <time>2022-08-04T16:47:45Z</time>
      </trkpt>
      <trkpt lat="45.45639" lon="1.88058">
        <ele>630.6</ele>
        <time>2022-08-04T16:47:47Z</time>
      </trkpt>
      <trkpt lat="45.45639" lon="1.88058">
        <ele>630.6</ele>
        <time>2022-08-04T16:47:49Z</time>
      </trkpt>
      <trkpt lat="45.45639" lon="1.88058">
        <ele>630.6</ele>
        <time>2022-08-04T16:47:51Z</time>
      </trkpt>
      <trkpt lat="45.45639" lon="1.88058">
        <ele>630.6</ele>
        <time>2022-08-04T16:47:55Z</time>
      </trkpt>
      <trkpt lat="45.45637" lon="1.88059">
        <ele>630.7</ele>
        <time>2022-08-04T16:47:59Z</time>
      </trkpt>
      <trkpt lat="45.45638" lon="1.88059">
        <ele>630.7</ele>
        <time>2022-08-04T16:48:01Z</time>
      </trkpt>
      <trkpt lat="45.45637" lon="1.88059">
        <ele>630.7</ele>
        <time>2022-08-04T16:48:03Z</time>
      </trkpt>
      <trkpt lat="45.45637" lon="1.88059">
        <ele>630.7</ele>
        <time>2022-08-04T16:48:05Z</time>
      </trkpt>
      <trkpt lat="45.45638" lon="1.88059">
        <ele>630.7</ele>
        <time>2022-08-04T16:48:07Z</time>
      </trkpt>
      <trkpt lat="45.45638" lon="1.88059">
        <ele>630.6</ele>
        <time>2022-08-04T16:48:09Z</time>
      </trkpt>
      <trkpt lat="45.45638" lon="1.88058">
        <ele>630.6</ele>
        <time>2022-08-04T16:48:11Z</time>
      </trkpt>
      <trkpt lat="45.45638" lon="1.88058">
        <ele>630.6</ele>
        <time>2022-08-04T16:48:13Z</time>
      </trkpt>
      <trkpt lat="45.45638" lon="1.88058">
        <ele>630.6</ele>
        <time>2022-08-04T16:48:15Z</time>
      </trkpt>
      <trkpt lat="45.45638" lon="1.88058">
        <ele>630.6</ele>
        <time>2022-08-04T16:48:17Z</time>
      </trkpt>
      <trkpt lat="45.45638" lon="1.88058">
        <ele>630.6</ele>
        <time>2022-08-04T16:48:19Z</time>
      </trkpt>
      <trkpt lat="45.45637" lon="1.88058">
        <ele>630.6</ele>
        <time>2022-08-04T16:48:21Z</time>
      </trkpt>
      <trkpt lat="45.45637" lon="1.88058">
        <ele>630.6</ele>
        <time>2022-08-04T16:48:23Z</time>
      </trkpt>
      <trkpt lat="45.45637" lon="1.88059">
        <ele>630.7</ele>
        <time>2022-08-04T16:48:25Z</time>
      </trkpt>
      <trkpt lat="45.45637" lon="1.88058">
        <ele>630.6</ele>
        <time>2022-08-04T16:48:27Z</time>
      </trkpt>
      <trkpt lat="45.45637" lon="1.88057">
        <ele>630.6</ele>
        <time>2022-08-04T16:48:29Z</time>
      </trkpt>
      <trkpt lat="45.45637" lon="1.88056">
        <ele>630.6</ele>
        <time>2022-08-04T16:48:31Z</time>
      </trkpt>
      <trkpt lat="45.45637" lon="1.88056">
        <ele>630.6</ele>
        <time>2022-08-04T16:48:33Z</time>
      </trkpt>
      <trkpt lat="45.45637" lon="1.88056">
        <ele>630.6</ele>
        <time>2022-08-04T16:48:35Z</time>
      </trkpt>
      <trkpt lat="45.45637" lon="1.88056">
        <ele>630.6</ele>
        <time>2022-08-04T16:48:37Z</time>
      </trkpt>
      <trkpt lat="45.45637" lon="1.88056">
        <ele>630.6</ele>
        <time>2022-08-04T16:48:39Z</time>
      </trkpt>
      <trkpt lat="45.45637" lon="1.88056">
        <ele>630.6</ele>
        <time>2022-08-04T16:48:41Z</time>
      </trkpt>
      <trkpt lat="45.45637" lon="1.88056">
        <ele>630.6</ele>
        <time>2022-08-04T16:48:43Z</time>
      </trkpt>
      <trkpt lat="45.45637" lon="1.88056">
        <ele>630.6</ele>
        <time>2022-08-04T16:48:45Z</time>
      </trkpt>
      <trkpt lat="45.45637" lon="1.88056">
        <ele>630.6</ele>
        <time>2022-08-04T16:48:47Z</time>
      </trkpt>
      <trkpt lat="45.45637" lon="1.88056">
        <ele>630.6</ele>
        <time>2022-08-04T16:48:49Z</time>
      </trkpt>
      <trkpt lat="45.45637" lon="1.88056">
        <ele>630.6</ele>
        <time>2022-08-04T16:48:51Z</time>
      </trkpt>
      <trkpt lat="45.45637" lon="1.88056">
        <ele>630.6</ele>
        <time>2022-08-04T16:48:53Z</time>
      </trkpt>
      <trkpt lat="45.45637" lon="1.88056">
        <ele>630.6</ele>
        <time>2022-08-04T16:48:55Z</time>
      </trkpt>
      <trkpt lat="45.45636" lon="1.88056">
        <ele>630.6</ele>
        <time>2022-08-04T16:48:57Z</time>
      </trkpt>
      <trkpt lat="45.45636" lon="1.88056">
        <ele>630.6</ele>
        <time>2022-08-04T16:48:59Z</time>
      </trkpt>
      <trkpt lat="45.45636" lon="1.88056">
        <ele>630.6</ele>
        <time>2022-08-04T16:49:01Z</time>
      </trkpt>
      <trkpt lat="45.45636" lon="1.88055">
        <ele>630.6</ele>
        <time>2022-08-04T16:49:03Z</time>
      </trkpt>
      <trkpt lat="45.45636" lon="1.88055">
        <ele>630.6</ele>
        <time>2022-08-04T16:49:05Z</time>
      </trkpt>
      <trkpt lat="45.45636" lon="1.88055">
        <ele>630.6</ele>
        <time>2022-08-04T16:49:07Z</time>
      </trkpt>
      <trkpt lat="45.45636" lon="1.88054">
        <ele>630.6</ele>
        <time>2022-08-04T16:49:09Z</time>
      </trkpt>
      <trkpt lat="45.45636" lon="1.88054">
        <ele>630.5</ele>
        <time>2022-08-04T16:49:11Z</time>
      </trkpt>
      <trkpt lat="45.45636" lon="1.88054">
        <ele>630.5</ele>
        <time>2022-08-04T16:49:13Z</time>
      </trkpt>
      <trkpt lat="45.45636" lon="1.88054">
        <ele>630.5</ele>
        <time>2022-08-04T16:49:15Z</time>
      </trkpt>
      <trkpt lat="45.45636" lon="1.88054">
        <ele>630.5</ele>
        <time>2022-08-04T16:49:17Z</time>
      </trkpt>
      <trkpt lat="45.45636" lon="1.88054">
        <ele>630.5</ele>
        <time>2022-08-04T16:49:19Z</time>
      </trkpt>
      <trkpt lat="45.45636" lon="1.88054">
        <ele>630.5</ele>
        <time>2022-08-04T16:49:21Z</time>
      </trkpt>
      <trkpt lat="45.45636" lon="1.88055">
        <ele>630.6</ele>
        <time>2022-08-04T16:49:23Z</time>
      </trkpt>
      <trkpt lat="45.45636" lon="1.88054">
        <ele>630.5</ele>
        <time>2022-08-04T16:49:25Z</time>
      </trkpt>
      <trkpt lat="45.45636" lon="1.88055">
        <ele>630.6</ele>
        <time>2022-08-04T16:49:27Z</time>
      </trkpt>
      <trkpt lat="45.45636" lon="1.88055">
        <ele>630.6</ele>
        <time>2022-08-04T16:49:29Z</time>
      </trkpt>
      <trkpt lat="45.45636" lon="1.88056">
        <ele>630.6</ele>
        <time>2022-08-04T16:49:31Z</time>
      </trkpt>
      <trkpt lat="45.45636" lon="1.88057">
        <ele>630.6</ele>
        <time>2022-08-04T16:49:33Z</time>
      </trkpt>
      <trkpt lat="45.45636" lon="1.88058">
        <ele>630.6</ele>
        <time>2022-08-04T16:49:35Z</time>
      </trkpt>
      <trkpt lat="45.45637" lon="1.88059">
        <ele>630.7</ele>
        <time>2022-08-04T16:49:37Z</time>
      </trkpt>
      <trkpt lat="45.45637" lon="1.88059">
        <ele>630.7</ele>
        <time>2022-08-04T16:49:39Z</time>
      </trkpt>
      <trkpt lat="45.45637" lon="1.8806">
        <ele>630.7</ele>
        <time>2022-08-04T16:49:41Z</time>
      </trkpt>
      <trkpt lat="45.45635" lon="1.88062">
        <ele>630.8</ele>
        <time>2022-08-04T16:49:43Z</time>
      </trkpt>
      <trkpt lat="45.45632" lon="1.88066">
        <ele>630.9</ele>
        <time>2022-08-04T16:49:45Z</time>
      </trkpt>
      <trkpt lat="45.45629" lon="1.88069">
        <ele>631</ele>
        <time>2022-08-04T16:49:47Z</time>
      </trkpt>
      <trkpt lat="45.45625" lon="1.88072">
        <ele>631.2</ele>
        <time>2022-08-04T16:49:49Z</time>
      </trkpt>
      <trkpt lat="45.45621" lon="1.88076">
        <ele>631.3</ele>
        <time>2022-08-04T16:49:51Z</time>
      </trkpt>
      <trkpt lat="45.45618" lon="1.8808">
        <ele>631.5</ele>
        <time>2022-08-04T16:49:53Z</time>
      </trkpt>
      <trkpt lat="45.45615" lon="1.88085">
        <ele>631.7</ele>
        <time>2022-08-04T16:49:55Z</time>
      </trkpt>
      <trkpt lat="45.45612" lon="1.8809">
        <ele>632</ele>
        <time>2022-08-04T16:49:57Z</time>
      </trkpt>
      <trkpt lat="45.4561" lon="1.88095">
        <ele>632.2</ele>
        <time>2022-08-04T16:49:59Z</time>
      </trkpt>
      <trkpt lat="45.45608" lon="1.881">
        <ele>632.5</ele>
        <time>2022-08-04T16:50:01Z</time>
      </trkpt>
      <trkpt lat="45.45606" lon="1.88105">
        <ele>632.8</ele>
        <time>2022-08-04T16:50:03Z</time>
      </trkpt>
      <trkpt lat="45.45604" lon="1.88109">
        <ele>633</ele>
        <time>2022-08-04T16:50:05Z</time>
      </trkpt>
      <trkpt lat="45.45602" lon="1.88113">
        <ele>633.3</ele>
        <time>2022-08-04T16:50:07Z</time>
      </trkpt>
      <trkpt lat="45.45601" lon="1.88117">
        <ele>633.6</ele>
        <time>2022-08-04T16:50:09Z</time>
      </trkpt>
      <trkpt lat="45.45599" lon="1.88121">
        <ele>633.9</ele>
        <time>2022-08-04T16:50:11Z</time>
      </trkpt>
      <trkpt lat="45.45596" lon="1.88125">
        <ele>634.1</ele>
        <time>2022-08-04T16:50:13Z</time>
      </trkpt>
      <trkpt lat="45.45594" lon="1.88128">
        <ele>634.4</ele>
        <time>2022-08-04T16:50:15Z</time>
      </trkpt>
      <trkpt lat="45.4559" lon="1.88132">
        <ele>634.7</ele>
        <time>2022-08-04T16:50:17Z</time>
      </trkpt>
      <trkpt lat="45.45588" lon="1.88136">
        <ele>635</ele>
        <time>2022-08-04T16:50:19Z</time>
      </trkpt>
      <trkpt lat="45.45585" lon="1.88139">
        <ele>635.3</ele>
        <time>2022-08-04T16:50:21Z</time>
      </trkpt>
      <trkpt lat="45.45583" lon="1.88141">
        <ele>635.4</ele>
        <time>2022-08-04T16:50:23Z</time>
      </trkpt>
      <trkpt lat="45.4558" lon="1.88142">
        <ele>635.6</ele>
        <time>2022-08-04T16:50:25Z</time>
      </trkpt>
      <trkpt lat="45.45578" lon="1.88142">
        <ele>635.6</ele>
        <time>2022-08-04T16:50:27Z</time>
      </trkpt>
      <trkpt lat="45.45574" lon="1.88142">
        <ele>635.7</ele>
        <time>2022-08-04T16:50:29Z</time>
      </trkpt>
      <trkpt lat="45.45571" lon="1.88142">
        <ele>635.8</ele>
        <time>2022-08-04T16:50:31Z</time>
      </trkpt>
      <trkpt lat="45.45567" lon="1.88142">
        <ele>635.9</ele>
        <time>2022-08-04T16:50:33Z</time>
      </trkpt>
      <trkpt lat="45.45545" lon="1.88144">
        <ele>636.5</ele>
        <time>2022-08-04T16:50:41Z</time>
      </trkpt>
      <trkpt lat="45.45542" lon="1.88143">
        <ele>636.5</ele>
        <time>2022-08-04T16:50:43Z</time>
      </trkpt>
      <trkpt lat="45.45538" lon="1.88143">
        <ele>636.6</ele>
        <time>2022-08-04T16:50:45Z</time>
      </trkpt>
      <trkpt lat="45.45534" lon="1.88143">
        <ele>636.7</ele>
        <time>2022-08-04T16:50:47Z</time>
      </trkpt>
      <trkpt lat="45.4553" lon="1.88144">
        <ele>636.8</ele>
        <time>2022-08-04T16:50:49Z</time>
      </trkpt>
      <trkpt lat="45.45527" lon="1.88145">
        <ele>637</ele>
        <time>2022-08-04T16:50:51Z</time>
      </trkpt>
      <trkpt lat="45.45523" lon="1.88145">
        <ele>637.1</ele>
        <time>2022-08-04T16:50:53Z</time>
      </trkpt>
      <trkpt lat="45.45519" lon="1.88146">
        <ele>637.3</ele>
        <time>2022-08-04T16:50:55Z</time>
      </trkpt>
      <trkpt lat="45.45517" lon="1.88145">
        <ele>637.3</ele>
        <time>2022-08-04T16:50:57Z</time>
      </trkpt>
      <trkpt lat="45.45515" lon="1.88146">
        <ele>637.4</ele>
        <time>2022-08-04T16:50:59Z</time>
      </trkpt>
      <trkpt lat="45.45512" lon="1.88149">
        <ele>637.7</ele>
        <time>2022-08-04T16:51:01Z</time>
      </trkpt>
      <trkpt lat="45.45509" lon="1.88151">
        <ele>638.1</ele>
        <time>2022-08-04T16:51:03Z</time>
      </trkpt>
      <trkpt lat="45.45504" lon="1.88153">
        <ele>638.4</ele>
        <time>2022-08-04T16:51:05Z</time>
      </trkpt>
      <trkpt lat="45.45501" lon="1.88155">
        <ele>638.7</ele>
        <time>2022-08-04T16:51:07Z</time>
      </trkpt>
      <trkpt lat="45.45499" lon="1.88157">
        <ele>639.1</ele>
        <time>2022-08-04T16:51:09Z</time>
      </trkpt>
      <trkpt lat="45.45496" lon="1.8816">
        <ele>639.7</ele>
        <time>2022-08-04T16:51:11Z</time>
      </trkpt>
      <trkpt lat="45.45492" lon="1.88162">
        <ele>640.3</ele>
        <time>2022-08-04T16:51:13Z</time>
      </trkpt>
      <trkpt lat="45.45489" lon="1.88163">
        <ele>640.7</ele>
        <time>2022-08-04T16:51:15Z</time>
      </trkpt>
      <trkpt lat="45.45485" lon="1.88164">
        <ele>641.1</ele>
        <time>2022-08-04T16:51:17Z</time>
      </trkpt>
      <trkpt lat="45.45482" lon="1.88166">
        <ele>641.6</ele>
        <time>2022-08-04T16:51:19Z</time>
      </trkpt>
      <trkpt lat="45.4548" lon="1.88168">
        <ele>642.1</ele>
        <time>2022-08-04T16:51:21Z</time>
      </trkpt>
      <trkpt lat="45.45476" lon="1.88167">
        <ele>642.3</ele>
        <time>2022-08-04T16:51:23Z</time>
      </trkpt>
      <trkpt lat="45.45473" lon="1.88167">
        <ele>642.7</ele>
        <time>2022-08-04T16:51:25Z</time>
      </trkpt>
      <trkpt lat="45.45469" lon="1.88168">
        <ele>643.1</ele>
        <time>2022-08-04T16:51:27Z</time>
      </trkpt>
      <trkpt lat="45.45466" lon="1.88167">
        <ele>643.4</ele>
        <time>2022-08-04T16:51:29Z</time>
      </trkpt>
      <trkpt lat="45.45462" lon="1.88167">
        <ele>643.6</ele>
        <time>2022-08-04T16:51:31Z</time>
      </trkpt>
      <trkpt lat="45.45459" lon="1.88165">
        <ele>643.8</ele>
        <time>2022-08-04T16:51:33Z</time>
      </trkpt>
      <trkpt lat="45.45455" lon="1.88164">
        <ele>644</ele>
        <time>2022-08-04T16:51:35Z</time>
      </trkpt>
      <trkpt lat="45.45452" lon="1.88163">
        <ele>644.1</ele>
        <time>2022-08-04T16:51:37Z</time>
      </trkpt>
      <trkpt lat="45.45449" lon="1.8816">
        <ele>644</ele>
        <time>2022-08-04T16:51:39Z</time>
      </trkpt>
      <trkpt lat="45.45446" lon="1.88157">
        <ele>643.9</ele>
        <time>2022-08-04T16:51:41Z</time>
      </trkpt>
      <trkpt lat="45.45442" lon="1.88154">
        <ele>643.7</ele>
        <time>2022-08-04T16:51:43Z</time>
      </trkpt>
      <trkpt lat="45.4544" lon="1.8815">
        <ele>643.5</ele>
        <time>2022-08-04T16:51:45Z</time>
      </trkpt>
      <trkpt lat="45.45437" lon="1.88148">
        <ele>643.4</ele>
        <time>2022-08-04T16:51:47Z</time>
      </trkpt>
      <trkpt lat="45.45433" lon="1.88146">
        <ele>643.3</ele>
        <time>2022-08-04T16:51:49Z</time>
      </trkpt>
      <trkpt lat="45.4543" lon="1.88143">
        <ele>643.2</ele>
        <time>2022-08-04T16:51:51Z</time>
      </trkpt>
      <trkpt lat="45.45428" lon="1.8814">
        <ele>643</ele>
        <time>2022-08-04T16:51:53Z</time>
      </trkpt>
      <trkpt lat="45.45425" lon="1.88138">
        <ele>642.9</ele>
        <time>2022-08-04T16:51:55Z</time>
      </trkpt>
      <trkpt lat="45.45423" lon="1.88136">
        <ele>642.8</ele>
        <time>2022-08-04T16:51:57Z</time>
      </trkpt>
      <trkpt lat="45.45422" lon="1.88134">
        <ele>642.5</ele>
        <time>2022-08-04T16:51:59Z</time>
      </trkpt>
      <trkpt lat="45.45422" lon="1.88134">
        <ele>642.5</ele>
        <time>2022-08-04T16:52:01Z</time>
      </trkpt>
      <trkpt lat="45.45422" lon="1.88133">
        <ele>642.4</ele>
        <time>2022-08-04T16:52:03Z</time>
      </trkpt>
      <trkpt lat="45.45422" lon="1.88134">
        <ele>642.4</ele>
        <time>2022-08-04T16:52:05Z</time>
      </trkpt>
      <trkpt lat="45.45422" lon="1.88134">
        <ele>642.4</ele>
        <time>2022-08-04T16:52:07Z</time>
      </trkpt>
      <trkpt lat="45.45415" lon="1.88133">
        <ele>642.9</ele>
        <time>2022-08-04T16:53:19Z</time>
      </trkpt>
      <trkpt lat="45.45411" lon="1.88134">
        <ele>643.2</ele>
        <time>2022-08-04T16:53:21Z</time>
      </trkpt>
      <trkpt lat="45.45406" lon="1.88134">
        <ele>643.4</ele>
        <time>2022-08-04T16:53:23Z</time>
      </trkpt>
      <trkpt lat="45.45402" lon="1.88133">
        <ele>643.5</ele>
        <time>2022-08-04T16:53:25Z</time>
      </trkpt>
      <trkpt lat="45.45397" lon="1.88134">
        <ele>643.9</ele>
        <time>2022-08-04T16:53:27Z</time>
      </trkpt>
      <trkpt lat="45.45393" lon="1.88134">
        <ele>644</ele>
        <time>2022-08-04T16:53:29Z</time>
      </trkpt>
      <trkpt lat="45.45388" lon="1.88134">
        <ele>644.3</ele>
        <time>2022-08-04T16:53:31Z</time>
      </trkpt>
      <trkpt lat="45.45384" lon="1.88134">
        <ele>644.6</ele>
        <time>2022-08-04T16:53:33Z</time>
      </trkpt>
      <trkpt lat="45.4538" lon="1.88134">
        <ele>644.7</ele>
        <time>2022-08-04T16:53:35Z</time>
      </trkpt>
      <trkpt lat="45.45378" lon="1.88136">
        <ele>645.2</ele>
        <time>2022-08-04T16:53:37Z</time>
      </trkpt>
      <trkpt lat="45.45378" lon="1.88138">
        <ele>645.4</ele>
        <time>2022-08-04T16:53:39Z</time>
      </trkpt>
      <trkpt lat="45.45379" lon="1.88138">
        <ele>645.4</ele>
        <time>2022-08-04T16:53:41Z</time>
      </trkpt>
      <trkpt lat="45.4538" lon="1.88138">
        <ele>645.4</ele>
        <time>2022-08-04T16:53:43Z</time>
      </trkpt>
      <trkpt lat="45.45381" lon="1.88139">
        <ele>645.4</ele>
        <time>2022-08-04T16:53:45Z</time>
      </trkpt>
      <trkpt lat="45.45382" lon="1.88139">
        <ele>645.4</ele>
        <time>2022-08-04T16:53:47Z</time>
      </trkpt>
      <trkpt lat="45.45368" lon="1.88131">
        <ele>644.9</ele>
        <time>2022-08-04T17:00:11Z</time>
      </trkpt>
      <trkpt lat="45.45364" lon="1.88131">
        <ele>645.2</ele>
        <time>2022-08-04T17:00:13Z</time>
      </trkpt>
      <trkpt lat="45.45359" lon="1.88132">
        <ele>645.5</ele>
        <time>2022-08-04T17:00:15Z</time>
      </trkpt>
      <trkpt lat="45.45355" lon="1.88132">
        <ele>645.7</ele>
        <time>2022-08-04T17:00:17Z</time>
      </trkpt>
      <trkpt lat="45.45351" lon="1.88132">
        <ele>645.9</ele>
        <time>2022-08-04T17:00:19Z</time>
      </trkpt>
      <trkpt lat="45.45347" lon="1.88133">
        <ele>646.3</ele>
        <time>2022-08-04T17:00:21Z</time>
      </trkpt>
      <trkpt lat="45.45342" lon="1.88133">
        <ele>646.5</ele>
        <time>2022-08-04T17:00:23Z</time>
      </trkpt>
      <trkpt lat="45.45338" lon="1.88135">
        <ele>646.9</ele>
        <time>2022-08-04T17:00:25Z</time>
      </trkpt>
      <trkpt lat="45.45334" lon="1.88136">
        <ele>647.3</ele>
        <time>2022-08-04T17:00:27Z</time>
      </trkpt>
      <trkpt lat="45.4533" lon="1.88138">
        <ele>647.3</ele>
        <time>2022-08-04T17:00:29Z</time>
      </trkpt>
      <trkpt lat="45.45326" lon="1.8814">
        <ele>647.2</ele>
        <time>2022-08-04T17:00:31Z</time>
      </trkpt>
      <trkpt lat="45.45323" lon="1.88144">
        <ele>647.4</ele>
        <time>2022-08-04T17:00:33Z</time>
      </trkpt>
      <trkpt lat="45.4532" lon="1.88148">
        <ele>647.6</ele>
        <time>2022-08-04T17:00:35Z</time>
      </trkpt>
      <trkpt lat="45.45318" lon="1.88153">
        <ele>647.8</ele>
        <time>2022-08-04T17:00:37Z</time>
      </trkpt>
      <trkpt lat="45.45316" lon="1.88158">
        <ele>648.2</ele>
        <time>2022-08-04T17:00:39Z</time>
      </trkpt>
      <trkpt lat="45.45314" lon="1.88164">
        <ele>648.6</ele>
        <time>2022-08-04T17:00:41Z</time>
      </trkpt>
      <trkpt lat="45.45313" lon="1.8817">
        <ele>649.1</ele>
        <time>2022-08-04T17:00:43Z</time>
      </trkpt>
      <trkpt lat="45.45313" lon="1.88176">
        <ele>649.5</ele>
        <time>2022-08-04T17:00:45Z</time>
      </trkpt>
      <trkpt lat="45.45313" lon="1.88182">
        <ele>650</ele>
        <time>2022-08-04T17:00:47Z</time>
      </trkpt>
      <trkpt lat="45.45311" lon="1.88186">
        <ele>650.2</ele>
        <time>2022-08-04T17:00:49Z</time>
      </trkpt>
      <trkpt lat="45.45311" lon="1.88191">
        <ele>650.6</ele>
        <time>2022-08-04T17:00:51Z</time>
      </trkpt>
      <trkpt lat="45.45311" lon="1.88197">
        <ele>651</ele>
        <time>2022-08-04T17:00:53Z</time>
      </trkpt>
      <trkpt lat="45.45311" lon="1.88203">
        <ele>651.6</ele>
        <time>2022-08-04T17:00:55Z</time>
      </trkpt>
      <trkpt lat="45.45312" lon="1.88208">
        <ele>652.1</ele>
        <time>2022-08-04T17:00:57Z</time>
      </trkpt>
      <trkpt lat="45.45313" lon="1.88214">
        <ele>652.6</ele>
        <time>2022-08-04T17:00:59Z</time>
      </trkpt>
      <trkpt lat="45.45314" lon="1.88219">
        <ele>653.1</ele>
        <time>2022-08-04T17:01:01Z</time>
      </trkpt>
      <trkpt lat="45.45314" lon="1.88224">
        <ele>653.6</ele>
        <time>2022-08-04T17:01:03Z</time>
      </trkpt>
      <trkpt lat="45.45315" lon="1.88229">
        <ele>654.1</ele>
        <time>2022-08-04T17:01:05Z</time>
      </trkpt>
      <trkpt lat="45.45316" lon="1.88235">
        <ele>654.7</ele>
        <time>2022-08-04T17:01:07Z</time>
      </trkpt>
      <trkpt lat="45.45317" lon="1.8824">
        <ele>655.2</ele>
        <time>2022-08-04T17:01:09Z</time>
      </trkpt>
      <trkpt lat="45.45317" lon="1.88246">
        <ele>655.7</ele>
        <time>2022-08-04T17:01:11Z</time>
      </trkpt>
      <trkpt lat="45.45318" lon="1.88251">
        <ele>656.3</ele>
        <time>2022-08-04T17:01:13Z</time>
      </trkpt>
      <trkpt lat="45.45318" lon="1.88257">
        <ele>657.2</ele>
        <time>2022-08-04T17:01:15Z</time>
      </trkpt>
      <trkpt lat="45.45318" lon="1.88262">
        <ele>658</ele>
        <time>2022-08-04T17:01:17Z</time>
      </trkpt>
      <trkpt lat="45.45317" lon="1.88267">
        <ele>658.7</ele>
        <time>2022-08-04T17:01:19Z</time>
      </trkpt>
      <trkpt lat="45.45315" lon="1.88272">
        <ele>659.4</ele>
        <time>2022-08-04T17:01:21Z</time>
      </trkpt>
      <trkpt lat="45.45314" lon="1.88277">
        <ele>659.8</ele>
        <time>2022-08-04T17:01:23Z</time>
      </trkpt>
      <trkpt lat="45.45311" lon="1.88281">
        <ele>660.2</ele>
        <time>2022-08-04T17:01:25Z</time>
      </trkpt>
      <trkpt lat="45.45309" lon="1.88285">
        <ele>660.7</ele>
        <time>2022-08-04T17:01:27Z</time>
      </trkpt>
      <trkpt lat="45.45306" lon="1.88289">
        <ele>660.9</ele>
        <time>2022-08-04T17:01:29Z</time>
      </trkpt>
      <trkpt lat="45.45303" lon="1.88293">
        <ele>661.2</ele>
        <time>2022-08-04T17:01:31Z</time>
      </trkpt>
      <trkpt lat="45.453" lon="1.88297">
        <ele>661.4</ele>
        <time>2022-08-04T17:01:33Z</time>
      </trkpt>
      <trkpt lat="45.45297" lon="1.883">
        <ele>661.4</ele>
        <time>2022-08-04T17:01:35Z</time>
      </trkpt>
      <trkpt lat="45.45293" lon="1.88303">
        <ele>661.4</ele>
        <time>2022-08-04T17:01:37Z</time>
      </trkpt>
      <trkpt lat="45.45289" lon="1.88307">
        <ele>661.5</ele>
        <time>2022-08-04T17:01:39Z</time>
      </trkpt>
      <trkpt lat="45.45284" lon="1.88309">
        <ele>661.4</ele>
        <time>2022-08-04T17:01:41Z</time>
      </trkpt>
      <trkpt lat="45.4528" lon="1.88313">
        <ele>661.5</ele>
        <time>2022-08-04T17:01:43Z</time>
      </trkpt>
      <trkpt lat="45.45276" lon="1.88316">
        <ele>661.5</ele>
        <time>2022-08-04T17:01:45Z</time>
      </trkpt>
      <trkpt lat="45.45272" lon="1.8832">
        <ele>661.5</ele>
        <time>2022-08-04T17:01:47Z</time>
      </trkpt>
      <trkpt lat="45.45268" lon="1.88323">
        <ele>661.6</ele>
        <time>2022-08-04T17:01:49Z</time>
      </trkpt>
      <trkpt lat="45.45264" lon="1.88327">
        <ele>661.7</ele>
        <time>2022-08-04T17:01:51Z</time>
      </trkpt>
      <trkpt lat="45.45261" lon="1.88331">
        <ele>661.9</ele>
        <time>2022-08-04T17:01:53Z</time>
      </trkpt>
      <trkpt lat="45.45257" lon="1.88334">
        <ele>661.9</ele>
        <time>2022-08-04T17:01:55Z</time>
      </trkpt>
      <trkpt lat="45.45253" lon="1.88337">
        <ele>661.9</ele>
        <time>2022-08-04T17:01:57Z</time>
      </trkpt>
      <trkpt lat="45.45249" lon="1.88341">
        <ele>662.2</ele>
        <time>2022-08-04T17:01:59Z</time>
      </trkpt>
      <trkpt lat="45.45245" lon="1.88344">
        <ele>662.6</ele>
        <time>2022-08-04T17:02:01Z</time>
      </trkpt>
      <trkpt lat="45.45241" lon="1.88347">
        <ele>663</ele>
        <time>2022-08-04T17:02:03Z</time>
      </trkpt>
      <trkpt lat="45.45237" lon="1.88351">
        <ele>663.4</ele>
        <time>2022-08-04T17:02:05Z</time>
      </trkpt>
      <trkpt lat="45.45233" lon="1.88355">
        <ele>663.9</ele>
        <time>2022-08-04T17:02:07Z</time>
      </trkpt>
      <trkpt lat="45.45228" lon="1.88358">
        <ele>664.1</ele>
        <time>2022-08-04T17:02:09Z</time>
      </trkpt>
      <trkpt lat="45.45224" lon="1.88361">
        <ele>664.5</ele>
        <time>2022-08-04T17:02:11Z</time>
      </trkpt>
      <trkpt lat="45.45219" lon="1.88364">
        <ele>664.9</ele>
        <time>2022-08-04T17:02:13Z</time>
      </trkpt>
      <trkpt lat="45.45214" lon="1.88368">
        <ele>665.2</ele>
        <time>2022-08-04T17:02:15Z</time>
      </trkpt>
      <trkpt lat="45.4521" lon="1.8837">
        <ele>665.5</ele>
        <time>2022-08-04T17:02:17Z</time>
      </trkpt>
      <trkpt lat="45.45205" lon="1.88373">
        <ele>665.8</ele>
        <time>2022-08-04T17:02:19Z</time>
      </trkpt>
      <trkpt lat="45.45201" lon="1.88376">
        <ele>666</ele>
        <time>2022-08-04T17:02:21Z</time>
      </trkpt>
      <trkpt lat="45.45196" lon="1.88378">
        <ele>666.3</ele>
        <time>2022-08-04T17:02:23Z</time>
      </trkpt>
      <trkpt lat="45.45191" lon="1.8838">
        <ele>666.3</ele>
        <time>2022-08-04T17:02:25Z</time>
      </trkpt>
      <trkpt lat="45.45187" lon="1.88382">
        <ele>666.7</ele>
        <time>2022-08-04T17:02:27Z</time>
      </trkpt>
      <trkpt lat="45.45182" lon="1.88385">
        <ele>666.9</ele>
        <time>2022-08-04T17:02:29Z</time>
      </trkpt>
      <trkpt lat="45.45178" lon="1.88387">
        <ele>667</ele>
        <time>2022-08-04T17:02:31Z</time>
      </trkpt>
      <trkpt lat="45.45173" lon="1.88389">
        <ele>667.3</ele>
        <time>2022-08-04T17:02:33Z</time>
      </trkpt>
      <trkpt lat="45.45168" lon="1.88392">
        <ele>667.7</ele>
        <time>2022-08-04T17:02:35Z</time>
      </trkpt>
      <trkpt lat="45.45163" lon="1.88394">
        <ele>667.7</ele>
        <time>2022-08-04T17:02:37Z</time>
      </trkpt>
      <trkpt lat="45.45159" lon="1.88397">
        <ele>667.8</ele>
        <time>2022-08-04T17:02:39Z</time>
      </trkpt>
      <trkpt lat="45.45154" lon="1.88398">
        <ele>667.7</ele>
        <time>2022-08-04T17:02:41Z</time>
      </trkpt>
      <trkpt lat="45.4515" lon="1.884">
        <ele>667.8</ele>
        <time>2022-08-04T17:02:43Z</time>
      </trkpt>
      <trkpt lat="45.45146" lon="1.88402">
        <ele>667.9</ele>
        <time>2022-08-04T17:02:45Z</time>
      </trkpt>
      <trkpt lat="45.45141" lon="1.88403">
        <ele>667.8</ele>
        <time>2022-08-04T17:02:47Z</time>
      </trkpt>
      <trkpt lat="45.45137" lon="1.88405">
        <ele>667.8</ele>
        <time>2022-08-04T17:02:49Z</time>
      </trkpt>
      <trkpt lat="45.45132" lon="1.88408">
        <ele>667.9</ele>
        <time>2022-08-04T17:02:51Z</time>
      </trkpt>
      <trkpt lat="45.45127" lon="1.8841">
        <ele>668</ele>
        <time>2022-08-04T17:02:53Z</time>
      </trkpt>
      <trkpt lat="45.45123" lon="1.88412">
        <ele>668</ele>
        <time>2022-08-04T17:02:55Z</time>
      </trkpt>
      <trkpt lat="45.45118" lon="1.88415">
        <ele>668.2</ele>
        <time>2022-08-04T17:02:57Z</time>
      </trkpt>
      <trkpt lat="45.45114" lon="1.88417">
        <ele>668.2</ele>
        <time>2022-08-04T17:02:59Z</time>
      </trkpt>
      <trkpt lat="45.45109" lon="1.8842">
        <ele>668.2</ele>
        <time>2022-08-04T17:03:01Z</time>
      </trkpt>
      <trkpt lat="45.45104" lon="1.88423">
        <ele>668.3</ele>
        <time>2022-08-04T17:03:03Z</time>
      </trkpt>
      <trkpt lat="45.45099" lon="1.88426">
        <ele>668.4</ele>
        <time>2022-08-04T17:03:05Z</time>
      </trkpt>
      <trkpt lat="45.45094" lon="1.88428">
        <ele>668.4</ele>
        <time>2022-08-04T17:03:07Z</time>
      </trkpt>
      <trkpt lat="45.45089" lon="1.88432">
        <ele>668.6</ele>
        <time>2022-08-04T17:03:09Z</time>
      </trkpt>
      <trkpt lat="45.45085" lon="1.88435">
        <ele>668.8</ele>
        <time>2022-08-04T17:03:11Z</time>
      </trkpt>
      <trkpt lat="45.4508" lon="1.88439">
        <ele>668.6</ele>
        <time>2022-08-04T17:03:13Z</time>
      </trkpt>
      <trkpt lat="45.45075" lon="1.88443">
        <ele>668.4</ele>
        <time>2022-08-04T17:03:15Z</time>
      </trkpt>
      <trkpt lat="45.45071" lon="1.88448">
        <ele>668.4</ele>
        <time>2022-08-04T17:03:17Z</time>
      </trkpt>
      <trkpt lat="45.45067" lon="1.88454">
        <ele>668.4</ele>
        <time>2022-08-04T17:03:19Z</time>
      </trkpt>
      <trkpt lat="45.45062" lon="1.88459">
        <ele>668.4</ele>
        <time>2022-08-04T17:03:21Z</time>
      </trkpt>
      <trkpt lat="45.45057" lon="1.88465">
        <ele>668.2</ele>
        <time>2022-08-04T17:03:23Z</time>
      </trkpt>
      <trkpt lat="45.45052" lon="1.8847">
        <ele>668.1</ele>
        <time>2022-08-04T17:03:25Z</time>
      </trkpt>
      <trkpt lat="45.45047" lon="1.88476">
        <ele>668</ele>
        <time>2022-08-04T17:03:27Z</time>
      </trkpt>
      <trkpt lat="45.45041" lon="1.88482">
        <ele>667.7</ele>
        <time>2022-08-04T17:03:29Z</time>
      </trkpt>
      <trkpt lat="45.45036" lon="1.88488">
        <ele>667.5</ele>
        <time>2022-08-04T17:03:31Z</time>
      </trkpt>
      <trkpt lat="45.4503" lon="1.88496">
        <ele>667.3</ele>
        <time>2022-08-04T17:03:33Z</time>
      </trkpt>
      <trkpt lat="45.45025" lon="1.88501">
        <ele>666.8</ele>
        <time>2022-08-04T17:03:35Z</time>
      </trkpt>
      <trkpt lat="45.45019" lon="1.88506">
        <ele>666.6</ele>
        <time>2022-08-04T17:03:37Z</time>
      </trkpt>
      <trkpt lat="45.45013" lon="1.88511">
        <ele>666.1</ele>
        <time>2022-08-04T17:03:39Z</time>
      </trkpt>
      <trkpt lat="45.45008" lon="1.88517">
        <ele>665.9</ele>
        <time>2022-08-04T17:03:41Z</time>
      </trkpt>
      <trkpt lat="45.45001" lon="1.88522">
        <ele>665.3</ele>
        <time>2022-08-04T17:03:43Z</time>
      </trkpt>
      <trkpt lat="45.44994" lon="1.88527">
        <ele>665.4</ele>
        <time>2022-08-04T17:03:45Z</time>
      </trkpt>
      <trkpt lat="45.44986" lon="1.88532">
        <ele>665.6</ele>
        <time>2022-08-04T17:03:47Z</time>
      </trkpt>
      <trkpt lat="45.44977" lon="1.88537">
        <ele>665.8</ele>
        <time>2022-08-04T17:03:49Z</time>
      </trkpt>
      <trkpt lat="45.44968" lon="1.88543">
        <ele>665.8</ele>
        <time>2022-08-04T17:03:51Z</time>
      </trkpt>
      <trkpt lat="45.44958" lon="1.88548">
        <ele>665.7</ele>
        <time>2022-08-04T17:03:53Z</time>
      </trkpt>
      <trkpt lat="45.44947" lon="1.88554">
        <ele>665.6</ele>
        <time>2022-08-04T17:03:55Z</time>
      </trkpt>
      <trkpt lat="45.44935" lon="1.88559">
        <ele>665.2</ele>
        <time>2022-08-04T17:03:57Z</time>
      </trkpt>
      <trkpt lat="45.44922" lon="1.88566">
        <ele>664.8</ele>
        <time>2022-08-04T17:03:59Z</time>
      </trkpt>
      <trkpt lat="45.44907" lon="1.88573">
        <ele>664.1</ele>
        <time>2022-08-04T17:04:01Z</time>
      </trkpt>
      <trkpt lat="45.44894" lon="1.88578">
        <ele>663.1</ele>
        <time>2022-08-04T17:04:03Z</time>
      </trkpt>
      <trkpt lat="45.44882" lon="1.88584">
        <ele>662.3</ele>
        <time>2022-08-04T17:04:05Z</time>
      </trkpt>
      <trkpt lat="45.44872" lon="1.88589">
        <ele>661.2</ele>
        <time>2022-08-04T17:04:07Z</time>
      </trkpt>
      <trkpt lat="45.44862" lon="1.88593">
        <ele>660.1</ele>
        <time>2022-08-04T17:04:09Z</time>
      </trkpt>
      <trkpt lat="45.44854" lon="1.886">
        <ele>659.3</ele>
        <time>2022-08-04T17:04:11Z</time>
      </trkpt>
      <trkpt lat="45.44851" lon="1.88604">
        <ele>659</ele>
        <time>2022-08-04T17:04:13Z</time>
      </trkpt>
      <trkpt lat="45.44848" lon="1.88606">
        <ele>658.7</ele>
        <time>2022-08-04T17:04:15Z</time>
      </trkpt>
      <trkpt lat="45.44846" lon="1.88609">
        <ele>658.5</ele>
        <time>2022-08-04T17:04:17Z</time>
      </trkpt>
      <trkpt lat="45.44844" lon="1.88613">
        <ele>658.2</ele>
        <time>2022-08-04T17:04:19Z</time>
      </trkpt>
      <trkpt lat="45.44842" lon="1.88618">
        <ele>658.1</ele>
        <time>2022-08-04T17:04:21Z</time>
      </trkpt>
      <trkpt lat="45.44841" lon="1.88624">
        <ele>657.9</ele>
        <time>2022-08-04T17:04:23Z</time>
      </trkpt>
      <trkpt lat="45.44839" lon="1.88631">
        <ele>657.7</ele>
        <time>2022-08-04T17:04:25Z</time>
      </trkpt>
      <trkpt lat="45.44838" lon="1.88639">
        <ele>657.6</ele>
        <time>2022-08-04T17:04:27Z</time>
      </trkpt>
      <trkpt lat="45.44839" lon="1.88646">
        <ele>657.7</ele>
        <time>2022-08-04T17:04:29Z</time>
      </trkpt>
      <trkpt lat="45.44841" lon="1.88652">
        <ele>657.9</ele>
        <time>2022-08-04T17:04:31Z</time>
      </trkpt>
      <trkpt lat="45.44842" lon="1.88658">
        <ele>658.2</ele>
        <time>2022-08-04T17:04:33Z</time>
      </trkpt>
      <trkpt lat="45.44844" lon="1.88663">
        <ele>658.5</ele>
        <time>2022-08-04T17:04:35Z</time>
      </trkpt>
      <trkpt lat="45.44848" lon="1.88667">
        <ele>658.8</ele>
        <time>2022-08-04T17:04:37Z</time>
      </trkpt>
      <trkpt lat="45.4485" lon="1.88669">
        <ele>659</ele>
        <time>2022-08-04T17:04:39Z</time>
      </trkpt>
      <trkpt lat="45.44853" lon="1.88672">
        <ele>659.3</ele>
        <time>2022-08-04T17:04:41Z</time>
      </trkpt>
      <trkpt lat="45.44857" lon="1.88675">
        <ele>659.8</ele>
        <time>2022-08-04T17:04:43Z</time>
      </trkpt>
      <trkpt lat="45.44863" lon="1.88678">
        <ele>660.4</ele>
        <time>2022-08-04T17:04:45Z</time>
      </trkpt>
      <trkpt lat="45.4487" lon="1.88683">
        <ele>661.1</ele>
        <time>2022-08-04T17:04:47Z</time>
      </trkpt>
      <trkpt lat="45.44876" lon="1.88688">
        <ele>661.9</ele>
        <time>2022-08-04T17:04:49Z</time>
      </trkpt>
      <trkpt lat="45.44882" lon="1.88694">
        <ele>662.6</ele>
        <time>2022-08-04T17:04:51Z</time>
      </trkpt>
      <trkpt lat="45.44888" lon="1.88704">
        <ele>663.3</ele>
        <time>2022-08-04T17:04:53Z</time>
      </trkpt>
      <trkpt lat="45.4489" lon="1.88716">
        <ele>663.3</ele>
        <time>2022-08-04T17:04:55Z</time>
      </trkpt>
      <trkpt lat="45.4489" lon="1.8873">
        <ele>663</ele>
        <time>2022-08-04T17:04:57Z</time>
      </trkpt>
      <trkpt lat="45.44886" lon="1.88744">
        <ele>661.8</ele>
        <time>2022-08-04T17:04:59Z</time>
      </trkpt>
      <trkpt lat="45.44881" lon="1.88757">
        <ele>660.9</ele>
        <time>2022-08-04T17:05:01Z</time>
      </trkpt>
      <trkpt lat="45.44876" lon="1.88772">
        <ele>660.1</ele>
        <time>2022-08-04T17:05:03Z</time>
      </trkpt>
      <trkpt lat="45.44871" lon="1.88785">
        <ele>659.6</ele>
        <time>2022-08-04T17:05:05Z</time>
      </trkpt>
      <trkpt lat="45.44866" lon="1.88801">
        <ele>658.9</ele>
        <time>2022-08-04T17:05:07Z</time>
      </trkpt>
      <trkpt lat="45.44861" lon="1.88818">
        <ele>658.3</ele>
        <time>2022-08-04T17:05:09Z</time>
      </trkpt>
      <trkpt lat="45.44856" lon="1.88836">
        <ele>657.7</ele>
        <time>2022-08-04T17:05:11Z</time>
      </trkpt>
      <trkpt lat="45.44848" lon="1.88853">
        <ele>657.5</ele>
        <time>2022-08-04T17:05:13Z</time>
      </trkpt>
      <trkpt lat="45.44838" lon="1.88866">
        <ele>656.7</ele>
        <time>2022-08-04T17:05:15Z</time>
      </trkpt>
      <trkpt lat="45.44826" lon="1.88875">
        <ele>655.5</ele>
        <time>2022-08-04T17:05:17Z</time>
      </trkpt>
      <trkpt lat="45.44812" lon="1.88882">
        <ele>654</ele>
        <time>2022-08-04T17:05:19Z</time>
      </trkpt>
      <trkpt lat="45.448" lon="1.88886">
        <ele>652.6</ele>
        <time>2022-08-04T17:05:21Z</time>
      </trkpt>
      <trkpt lat="45.44796" lon="1.88887">
        <ele>652.2</ele>
        <time>2022-08-04T17:05:23Z</time>
      </trkpt>
      <trkpt lat="45.44798" lon="1.88881">
        <ele>652</ele>
        <time>2022-08-04T17:05:25Z</time>
      </trkpt>
      <trkpt lat="45.44802" lon="1.88875">
        <ele>652.2</ele>
        <time>2022-08-04T17:05:27Z</time>
      </trkpt>
      <trkpt lat="45.44808" lon="1.88871">
        <ele>652.6</ele>
        <time>2022-08-04T17:05:29Z</time>
      </trkpt>
      <trkpt lat="45.44813" lon="1.88867">
        <ele>653</ele>
        <time>2022-08-04T17:05:31Z</time>
      </trkpt>
      <trkpt lat="45.44818" lon="1.88864">
        <ele>653.5</ele>
        <time>2022-08-04T17:05:33Z</time>
      </trkpt>
      <trkpt lat="45.44823" lon="1.88859">
        <ele>653.8</ele>
        <time>2022-08-04T17:05:35Z</time>
      </trkpt>
      <trkpt lat="45.44827" lon="1.88856">
        <ele>654.1</ele>
        <time>2022-08-04T17:05:37Z</time>
      </trkpt>
      <trkpt lat="45.44832" lon="1.88851">
        <ele>654.3</ele>
        <time>2022-08-04T17:05:39Z</time>
      </trkpt>
      <trkpt lat="45.44835" lon="1.88846">
        <ele>654.5</ele>
        <time>2022-08-04T17:05:41Z</time>
      </trkpt>
      <trkpt lat="45.44838" lon="1.88841">
        <ele>654.6</ele>
        <time>2022-08-04T17:05:43Z</time>
      </trkpt>
      <trkpt lat="45.4484" lon="1.88837">
        <ele>654.6</ele>
        <time>2022-08-04T17:05:45Z</time>
      </trkpt>
      <trkpt lat="45.44842" lon="1.88831">
        <ele>654.7</ele>
        <time>2022-08-04T17:05:47Z</time>
      </trkpt>
      <trkpt lat="45.44843" lon="1.88825">
        <ele>654.9</ele>
        <time>2022-08-04T17:05:49Z</time>
      </trkpt>
      <trkpt lat="45.44844" lon="1.88819">
        <ele>654.7</ele>
        <time>2022-08-04T17:05:51Z</time>
      </trkpt>
      <trkpt lat="45.44845" lon="1.88813">
        <ele>654.9</ele>
        <time>2022-08-04T17:05:53Z</time>
      </trkpt>
      <trkpt lat="45.44846" lon="1.88809">
        <ele>655</ele>
        <time>2022-08-04T17:05:55Z</time>
      </trkpt>
      <trkpt lat="45.44847" lon="1.88803">
        <ele>655</ele>
        <time>2022-08-04T17:05:57Z</time>
      </trkpt>
      <trkpt lat="45.44846" lon="1.88798">
        <ele>654.8</ele>
        <time>2022-08-04T17:05:59Z</time>
      </trkpt>
      <trkpt lat="45.44847" lon="1.88796">
        <ele>654.9</ele>
        <time>2022-08-04T17:06:01Z</time>
      </trkpt>
      <trkpt lat="45.44846" lon="1.88796">
        <ele>654.8</ele>
        <time>2022-08-04T17:06:03Z</time>
      </trkpt>
      <trkpt lat="45.44847" lon="1.88796">
        <ele>654.8</ele>
        <time>2022-08-04T17:06:05Z</time>
      </trkpt>
      <trkpt lat="45.44846" lon="1.88796">
        <ele>654.8</ele>
        <time>2022-08-04T17:06:07Z</time>
      </trkpt>
      <trkpt lat="45.44846" lon="1.88796">
        <ele>654.6</ele>
        <time>2022-08-04T17:06:09Z</time>
      </trkpt>
      <trkpt lat="45.4484" lon="1.88838">
        <ele>654.9</ele>
        <time>2022-08-04T17:06:25Z</time>
      </trkpt>
      <trkpt lat="45.44835" lon="1.88846">
        <ele>654.5</ele>
        <time>2022-08-04T17:06:27Z</time>
      </trkpt>
      <trkpt lat="45.44832" lon="1.8885">
        <ele>654.3</ele>
        <time>2022-08-04T17:06:29Z</time>
      </trkpt>
      <trkpt lat="45.44827" lon="1.88855">
        <ele>653.9</ele>
        <time>2022-08-04T17:06:31Z</time>
      </trkpt>
      <trkpt lat="45.44822" lon="1.88859">
        <ele>653.7</ele>
        <time>2022-08-04T17:06:33Z</time>
      </trkpt>
      <trkpt lat="45.44816" lon="1.88864">
        <ele>653.2</ele>
        <time>2022-08-04T17:06:35Z</time>
      </trkpt>
      <trkpt lat="45.44809" lon="1.88868">
        <ele>652.7</ele>
        <time>2022-08-04T17:06:37Z</time>
      </trkpt>
      <trkpt lat="45.44802" lon="1.88874">
        <ele>652.1</ele>
        <time>2022-08-04T17:06:39Z</time>
      </trkpt>
      <trkpt lat="45.44799" lon="1.8888">
        <ele>652</ele>
        <time>2022-08-04T17:06:41Z</time>
      </trkpt>
      <trkpt lat="45.44797" lon="1.88884">
        <ele>652.1</ele>
        <time>2022-08-04T17:06:43Z</time>
      </trkpt>
      <trkpt lat="45.44796" lon="1.88886">
        <ele>652.1</ele>
        <time>2022-08-04T17:06:45Z</time>
      </trkpt>
      <trkpt lat="45.44794" lon="1.88889">
        <ele>651.9</ele>
        <time>2022-08-04T17:06:47Z</time>
      </trkpt>
      <trkpt lat="45.4479" lon="1.88891">
        <ele>651.6</ele>
        <time>2022-08-04T17:06:49Z</time>
      </trkpt>
      <trkpt lat="45.44785" lon="1.88893">
        <ele>651</ele>
        <time>2022-08-04T17:06:51Z</time>
      </trkpt>
      <trkpt lat="45.4478" lon="1.88895">
        <ele>650.4</ele>
        <time>2022-08-04T17:06:53Z</time>
      </trkpt>
      <trkpt lat="45.44774" lon="1.88897">
        <ele>649.6</ele>
        <time>2022-08-04T17:06:55Z</time>
      </trkpt>
      <trkpt lat="45.44766" lon="1.88901">
        <ele>648.7</ele>
        <time>2022-08-04T17:06:57Z</time>
      </trkpt>
      <trkpt lat="45.44758" lon="1.88906">
        <ele>647.7</ele>
        <time>2022-08-04T17:06:59Z</time>
      </trkpt>
      <trkpt lat="45.4475" lon="1.88912">
        <ele>646.8</ele>
        <time>2022-08-04T17:07:01Z</time>
      </trkpt>
      <trkpt lat="45.44742" lon="1.8892">
        <ele>646</ele>
        <time>2022-08-04T17:07:03Z</time>
      </trkpt>
      <trkpt lat="45.44734" lon="1.8893">
        <ele>645.2</ele>
        <time>2022-08-04T17:07:05Z</time>
      </trkpt>
      <trkpt lat="45.44729" lon="1.8894">
        <ele>644.6</ele>
        <time>2022-08-04T17:07:07Z</time>
      </trkpt>
      <trkpt lat="45.44724" lon="1.88951">
        <ele>644.1</ele>
        <time>2022-08-04T17:07:09Z</time>
      </trkpt>
      <trkpt lat="45.44721" lon="1.88964">
        <ele>643.8</ele>
        <time>2022-08-04T17:07:11Z</time>
      </trkpt>
      <trkpt lat="45.4472" lon="1.88977">
        <ele>644</ele>
        <time>2022-08-04T17:07:13Z</time>
      </trkpt>
      <trkpt lat="45.44723" lon="1.8899">
        <ele>644.6</ele>
        <time>2022-08-04T17:07:15Z</time>
      </trkpt>
      <trkpt lat="45.44727" lon="1.89003">
        <ele>645.5</ele>
        <time>2022-08-04T17:07:17Z</time>
      </trkpt>
      <trkpt lat="45.44732" lon="1.89016">
        <ele>646.5</ele>
        <time>2022-08-04T17:07:19Z</time>
      </trkpt>
      <trkpt lat="45.44737" lon="1.89029">
        <ele>647.5</ele>
        <time>2022-08-04T17:07:21Z</time>
      </trkpt>
      <trkpt lat="45.44743" lon="1.89042">
        <ele>648.7</ele>
        <time>2022-08-04T17:07:23Z</time>
      </trkpt>
      <trkpt lat="45.44745" lon="1.89057">
        <ele>649.3</ele>
        <time>2022-08-04T17:07:25Z</time>
      </trkpt>
      <trkpt lat="45.44743" lon="1.89072">
        <ele>649.4</ele>
        <time>2022-08-04T17:07:27Z</time>
      </trkpt>
      <trkpt lat="45.44739" lon="1.89084">
        <ele>648.9</ele>
        <time>2022-08-04T17:07:29Z</time>
      </trkpt>
      <trkpt lat="45.44734" lon="1.89095">
        <ele>648.1</ele>
        <time>2022-08-04T17:07:31Z</time>
      </trkpt>
      <trkpt lat="45.44729" lon="1.89106">
        <ele>647.5</ele>
        <time>2022-08-04T17:07:33Z</time>
      </trkpt>
      <trkpt lat="45.44724" lon="1.89116">
        <ele>647</ele>
        <time>2022-08-04T17:07:35Z</time>
      </trkpt>
      <trkpt lat="45.44719" lon="1.89127">
        <ele>646.4</ele>
        <time>2022-08-04T17:07:37Z</time>
      </trkpt>
      <trkpt lat="45.44715" lon="1.89138">
        <ele>646.1</ele>
        <time>2022-08-04T17:07:39Z</time>
      </trkpt>
      <trkpt lat="45.4471" lon="1.89148">
        <ele>645.5</ele>
        <time>2022-08-04T17:07:41Z</time>
      </trkpt>
      <trkpt lat="45.44705" lon="1.8916">
        <ele>645</ele>
        <time>2022-08-04T17:07:43Z</time>
      </trkpt>
      <trkpt lat="45.447" lon="1.89172">
        <ele>644.1</ele>
        <time>2022-08-04T17:07:45Z</time>
      </trkpt>
      <trkpt lat="45.44694" lon="1.89184">
        <ele>642.5</ele>
        <time>2022-08-04T17:07:47Z</time>
      </trkpt>
      <trkpt lat="45.44689" lon="1.89197">
        <ele>641.1</ele>
        <time>2022-08-04T17:07:49Z</time>
      </trkpt>
      <trkpt lat="45.44683" lon="1.89209">
        <ele>639.5</ele>
        <time>2022-08-04T17:07:51Z</time>
      </trkpt>
      <trkpt lat="45.44677" lon="1.89224">
        <ele>637.8</ele>
        <time>2022-08-04T17:07:53Z</time>
      </trkpt>
      <trkpt lat="45.44671" lon="1.89238">
        <ele>636.2</ele>
        <time>2022-08-04T17:07:55Z</time>
      </trkpt>
      <trkpt lat="45.44665" lon="1.8925">
        <ele>634.8</ele>
        <time>2022-08-04T17:07:57Z</time>
      </trkpt>
      <trkpt lat="45.4466" lon="1.89263">
        <ele>633.6</ele>
        <time>2022-08-04T17:07:59Z</time>
      </trkpt>
      <trkpt lat="45.44654" lon="1.89277">
        <ele>632.5</ele>
        <time>2022-08-04T17:08:01Z</time>
      </trkpt>
      <trkpt lat="45.44648" lon="1.8929">
        <ele>631.5</ele>
        <time>2022-08-04T17:08:03Z</time>
      </trkpt>
      <trkpt lat="45.44642" lon="1.89303">
        <ele>630.5</ele>
        <time>2022-08-04T17:08:05Z</time>
      </trkpt>
      <trkpt lat="45.44634" lon="1.89317">
        <ele>629.6</ele>
        <time>2022-08-04T17:08:07Z</time>
      </trkpt>
      <trkpt lat="45.44625" lon="1.89329">
        <ele>628.6</ele>
        <time>2022-08-04T17:08:09Z</time>
      </trkpt>
      <trkpt lat="45.44615" lon="1.89338">
        <ele>627.8</ele>
        <time>2022-08-04T17:08:11Z</time>
      </trkpt>
      <trkpt lat="45.44603" lon="1.89345">
        <ele>627</ele>
        <time>2022-08-04T17:08:13Z</time>
      </trkpt>
      <trkpt lat="45.44591" lon="1.89352">
        <ele>626.1</ele>
        <time>2022-08-04T17:08:15Z</time>
      </trkpt>
      <trkpt lat="45.4458" lon="1.89359">
        <ele>625.5</ele>
        <time>2022-08-04T17:08:17Z</time>
      </trkpt>
      <trkpt lat="45.44569" lon="1.89365">
        <ele>625</ele>
        <time>2022-08-04T17:08:19Z</time>
      </trkpt>
      <trkpt lat="45.44559" lon="1.89373">
        <ele>624.5</ele>
        <time>2022-08-04T17:08:21Z</time>
      </trkpt>
      <trkpt lat="45.4455" lon="1.89381">
        <ele>624</ele>
        <time>2022-08-04T17:08:23Z</time>
      </trkpt>
      <trkpt lat="45.44542" lon="1.8939">
        <ele>623.3</ele>
        <time>2022-08-04T17:08:25Z</time>
      </trkpt>
      <trkpt lat="45.44536" lon="1.89401">
        <ele>622.7</ele>
        <time>2022-08-04T17:08:27Z</time>
      </trkpt>
      <trkpt lat="45.44531" lon="1.89413">
        <ele>622</ele>
        <time>2022-08-04T17:08:29Z</time>
      </trkpt>
      <trkpt lat="45.44527" lon="1.89423">
        <ele>621.5</ele>
        <time>2022-08-04T17:08:31Z</time>
      </trkpt>
      <trkpt lat="45.44525" lon="1.89433">
        <ele>621</ele>
        <time>2022-08-04T17:08:33Z</time>
      </trkpt>
      <trkpt lat="45.44522" lon="1.89441">
        <ele>620.5</ele>
        <time>2022-08-04T17:08:35Z</time>
      </trkpt>
      <trkpt lat="45.44521" lon="1.89449">
        <ele>620.2</ele>
        <time>2022-08-04T17:08:37Z</time>
      </trkpt>
      <trkpt lat="45.44518" lon="1.89455">
        <ele>619.8</ele>
        <time>2022-08-04T17:08:39Z</time>
      </trkpt>
      <trkpt lat="45.44516" lon="1.89462">
        <ele>619.5</ele>
        <time>2022-08-04T17:08:41Z</time>
      </trkpt>
      <trkpt lat="45.44514" lon="1.89468">
        <ele>619.1</ele>
        <time>2022-08-04T17:08:43Z</time>
      </trkpt>
      <trkpt lat="45.44511" lon="1.89471">
        <ele>618.8</ele>
        <time>2022-08-04T17:08:45Z</time>
      </trkpt>
      <trkpt lat="45.44509" lon="1.8947">
        <ele>618.6</ele>
        <time>2022-08-04T17:08:47Z</time>
      </trkpt>
      <trkpt lat="45.4451" lon="1.8947">
        <ele>618.7</ele>
        <time>2022-08-04T17:08:49Z</time>
      </trkpt>
      <trkpt lat="45.4451" lon="1.8947">
        <ele>618.7</ele>
        <time>2022-08-04T17:08:51Z</time>
      </trkpt>
      <trkpt lat="45.4451" lon="1.8947">
        <ele>618.7</ele>
        <time>2022-08-04T17:08:55Z</time>
      </trkpt>
      <trkpt lat="45.44505" lon="1.89491">
        <ele>617.7</ele>
        <time>2022-08-04T17:09:29Z</time>
      </trkpt>
      <trkpt lat="45.44503" lon="1.89498">
        <ele>617.3</ele>
        <time>2022-08-04T17:09:31Z</time>
      </trkpt>
      <trkpt lat="45.44501" lon="1.89505">
        <ele>617</ele>
        <time>2022-08-04T17:09:33Z</time>
      </trkpt>
      <trkpt lat="45.44499" lon="1.89511">
        <ele>616.8</ele>
        <time>2022-08-04T17:09:35Z</time>
      </trkpt>
      <trkpt lat="45.44496" lon="1.89517">
        <ele>616.7</ele>
        <time>2022-08-04T17:09:37Z</time>
      </trkpt>
      <trkpt lat="45.44495" lon="1.8952">
        <ele>616.7</ele>
        <time>2022-08-04T17:09:39Z</time>
      </trkpt>
      <trkpt lat="45.44492" lon="1.89521">
        <ele>616.6</ele>
        <time>2022-08-04T17:09:41Z</time>
      </trkpt>
      <trkpt lat="45.44489" lon="1.89523">
        <ele>616.5</ele>
        <time>2022-08-04T17:09:43Z</time>
      </trkpt>
      <trkpt lat="45.44485" lon="1.89525">
        <ele>616.4</ele>
        <time>2022-08-04T17:09:45Z</time>
      </trkpt>
      <trkpt lat="45.4448" lon="1.89527">
        <ele>616.3</ele>
        <time>2022-08-04T17:09:47Z</time>
      </trkpt>
      <trkpt lat="45.44475" lon="1.89529">
        <ele>616.2</ele>
        <time>2022-08-04T17:09:49Z</time>
      </trkpt>
      <trkpt lat="45.4447" lon="1.89531">
        <ele>616</ele>
        <time>2022-08-04T17:09:51Z</time>
      </trkpt>
      <trkpt lat="45.44463" lon="1.89534">
        <ele>615.9</ele>
        <time>2022-08-04T17:09:53Z</time>
      </trkpt>
      <trkpt lat="45.44457" lon="1.89536">
        <ele>615.8</ele>
        <time>2022-08-04T17:09:55Z</time>
      </trkpt>
      <trkpt lat="45.4445" lon="1.8954">
        <ele>615.6</ele>
        <time>2022-08-04T17:09:57Z</time>
      </trkpt>
      <trkpt lat="45.44443" lon="1.89544">
        <ele>615.5</ele>
        <time>2022-08-04T17:09:59Z</time>
      </trkpt>
      <trkpt lat="45.44435" lon="1.89548">
        <ele>615.3</ele>
        <time>2022-08-04T17:10:01Z</time>
      </trkpt>
      <trkpt lat="45.44429" lon="1.89551">
        <ele>615.2</ele>
        <time>2022-08-04T17:10:03Z</time>
      </trkpt>
      <trkpt lat="45.44423" lon="1.89555">
        <ele>615.1</ele>
        <time>2022-08-04T17:10:05Z</time>
      </trkpt>
      <trkpt lat="45.44415" lon="1.89558">
        <ele>615</ele>
        <time>2022-08-04T17:10:07Z</time>
      </trkpt>
      <trkpt lat="45.44408" lon="1.89563">
        <ele>614.8</ele>
        <time>2022-08-04T17:10:09Z</time>
      </trkpt>
      <trkpt lat="45.444" lon="1.89566">
        <ele>614.7</ele>
        <time>2022-08-04T17:10:11Z</time>
      </trkpt>
      <trkpt lat="45.44391" lon="1.8957">
        <ele>614.6</ele>
        <time>2022-08-04T17:10:13Z</time>
      </trkpt>
      <trkpt lat="45.44383" lon="1.89574">
        <ele>614.5</ele>
        <time>2022-08-04T17:10:15Z</time>
      </trkpt>
      <trkpt lat="45.44375" lon="1.8958">
        <ele>614.5</ele>
        <time>2022-08-04T17:10:17Z</time>
      </trkpt>
      <trkpt lat="45.44366" lon="1.89584">
        <ele>614.4</ele>
        <time>2022-08-04T17:10:19Z</time>
      </trkpt>
      <trkpt lat="45.44358" lon="1.89588">
        <ele>614.4</ele>
        <time>2022-08-04T17:10:21Z</time>
      </trkpt>
      <trkpt lat="45.44349" lon="1.89592">
        <ele>614.4</ele>
        <time>2022-08-04T17:10:23Z</time>
      </trkpt>
      <trkpt lat="45.44339" lon="1.89595">
        <ele>614.3</ele>
        <time>2022-08-04T17:10:25Z</time>
      </trkpt>
      <trkpt lat="45.44328" lon="1.89598">
        <ele>614</ele>
        <time>2022-08-04T17:10:27Z</time>
      </trkpt>
      <trkpt lat="45.44317" lon="1.896">
        <ele>613.3</ele>
        <time>2022-08-04T17:10:29Z</time>
      </trkpt>
      <trkpt lat="45.44305" lon="1.896">
        <ele>612.6</ele>
        <time>2022-08-04T17:10:31Z</time>
      </trkpt>
      <trkpt lat="45.44294" lon="1.89599">
        <ele>611.8</ele>
        <time>2022-08-04T17:10:33Z</time>
      </trkpt>
      <trkpt lat="45.44288" lon="1.89598">
        <ele>611.4</ele>
        <time>2022-08-04T17:10:35Z</time>
      </trkpt>
      <trkpt lat="45.44286" lon="1.89597">
        <ele>611.2</ele>
        <time>2022-08-04T17:10:37Z</time>
      </trkpt>
      <trkpt lat="45.44286" lon="1.89597">
        <ele>611.2</ele>
        <time>2022-08-04T17:10:39Z</time>
      </trkpt>
      <trkpt lat="45.44286" lon="1.89597">
        <ele>611.2</ele>
        <time>2022-08-04T17:10:41Z</time>
      </trkpt>
      <trkpt lat="45.44284" lon="1.89597">
        <ele>611.1</ele>
        <time>2022-08-04T17:10:43Z</time>
      </trkpt>
      <trkpt lat="45.44284" lon="1.89597">
        <ele>611.1</ele>
        <time>2022-08-04T17:10:45Z</time>
      </trkpt>
      <trkpt lat="45.44268" lon="1.89593">
        <ele>609.8</ele>
        <time>2022-08-04T17:11:21Z</time>
      </trkpt>
      <trkpt lat="45.44265" lon="1.89592">
        <ele>609.6</ele>
        <time>2022-08-04T17:11:23Z</time>
      </trkpt>
      <trkpt lat="45.44261" lon="1.89592">
        <ele>609.3</ele>
        <time>2022-08-04T17:11:25Z</time>
      </trkpt>
      <trkpt lat="45.44256" lon="1.89592">
        <ele>608.9</ele>
        <time>2022-08-04T17:11:27Z</time>
      </trkpt>
      <trkpt lat="45.44251" lon="1.89591">
        <ele>608.5</ele>
        <time>2022-08-04T17:11:29Z</time>
      </trkpt>
      <trkpt lat="45.44246" lon="1.89591">
        <ele>608.5</ele>
        <time>2022-08-04T17:11:31Z</time>
      </trkpt>
      <trkpt lat="45.4424" lon="1.89592">
        <ele>608.6</ele>
        <time>2022-08-04T17:11:33Z</time>
      </trkpt>
      <trkpt lat="45.44234" lon="1.89592">
        <ele>608.6</ele>
        <time>2022-08-04T17:11:35Z</time>
      </trkpt>
      <trkpt lat="45.44227" lon="1.89593">
        <ele>608.7</ele>
        <time>2022-08-04T17:11:37Z</time>
      </trkpt>
      <trkpt lat="45.4422" lon="1.89596">
        <ele>608.8</ele>
        <time>2022-08-04T17:11:39Z</time>
      </trkpt>
      <trkpt lat="45.44213" lon="1.89599">
        <ele>609</ele>
        <time>2022-08-04T17:11:41Z</time>
      </trkpt>
      <trkpt lat="45.44206" lon="1.89602">
        <ele>609.1</ele>
        <time>2022-08-04T17:11:43Z</time>
      </trkpt>
      <trkpt lat="45.442" lon="1.89605">
        <ele>609.1</ele>
        <time>2022-08-04T17:11:45Z</time>
      </trkpt>
      <trkpt lat="45.44193" lon="1.89608">
        <ele>609.2</ele>
        <time>2022-08-04T17:11:47Z</time>
      </trkpt>
      <trkpt lat="45.44186" lon="1.89612">
        <ele>609.2</ele>
        <time>2022-08-04T17:11:49Z</time>
      </trkpt>
      <trkpt lat="45.44179" lon="1.89617">
        <ele>609.2</ele>
        <time>2022-08-04T17:11:51Z</time>
      </trkpt>
      <trkpt lat="45.44172" lon="1.89624">
        <ele>609.1</ele>
        <time>2022-08-04T17:11:53Z</time>
      </trkpt>
      <trkpt lat="45.44165" lon="1.89632">
        <ele>609.1</ele>
        <time>2022-08-04T17:11:55Z</time>
      </trkpt>
      <trkpt lat="45.44159" lon="1.89644">
        <ele>609.7</ele>
        <time>2022-08-04T17:11:57Z</time>
      </trkpt>
      <trkpt lat="45.44153" lon="1.89655">
        <ele>610.3</ele>
        <time>2022-08-04T17:11:59Z</time>
      </trkpt>
      <trkpt lat="45.44147" lon="1.89667">
        <ele>610.8</ele>
        <time>2022-08-04T17:12:01Z</time>
      </trkpt>
      <trkpt lat="45.44142" lon="1.89679">
        <ele>611.5</ele>
        <time>2022-08-04T17:12:03Z</time>
      </trkpt>
      <trkpt lat="45.44137" lon="1.89692">
        <ele>612.2</ele>
        <time>2022-08-04T17:12:05Z</time>
      </trkpt>
      <trkpt lat="45.44132" lon="1.89705">
        <ele>612.9</ele>
        <time>2022-08-04T17:12:07Z</time>
      </trkpt>
      <trkpt lat="45.44129" lon="1.8972">
        <ele>613.4</ele>
        <time>2022-08-04T17:12:09Z</time>
      </trkpt>
      <trkpt lat="45.44128" lon="1.89735">
        <ele>613.9</ele>
        <time>2022-08-04T17:12:11Z</time>
      </trkpt>
      <trkpt lat="45.44129" lon="1.8975">
        <ele>613.9</ele>
        <time>2022-08-04T17:12:13Z</time>
      </trkpt>
      <trkpt lat="45.44132" lon="1.89765">
        <ele>613.9</ele>
        <time>2022-08-04T17:12:15Z</time>
      </trkpt>
      <trkpt lat="45.44135" lon="1.89779">
        <ele>613.9</ele>
        <time>2022-08-04T17:12:17Z</time>
      </trkpt>
      <trkpt lat="45.44136" lon="1.89791">
        <ele>614</ele>
        <time>2022-08-04T17:12:19Z</time>
      </trkpt>
      <trkpt lat="45.44136" lon="1.89799">
        <ele>614.2</ele>
        <time>2022-08-04T17:12:21Z</time>
      </trkpt>
      <trkpt lat="45.44137" lon="1.89809">
        <ele>614.3</ele>
        <time>2022-08-04T17:12:23Z</time>
      </trkpt>
      <trkpt lat="45.44137" lon="1.8982">
        <ele>614.6</ele>
        <time>2022-08-04T17:12:25Z</time>
      </trkpt>
      <trkpt lat="45.44137" lon="1.89833">
        <ele>614.9</ele>
        <time>2022-08-04T17:12:27Z</time>
      </trkpt>
      <trkpt lat="45.44136" lon="1.89846">
        <ele>614.4</ele>
        <time>2022-08-04T17:12:29Z</time>
      </trkpt>
      <trkpt lat="45.44135" lon="1.89859">
        <ele>613.6</ele>
        <time>2022-08-04T17:12:31Z</time>
      </trkpt>
      <trkpt lat="45.44133" lon="1.89873">
        <ele>612.9</ele>
        <time>2022-08-04T17:12:33Z</time>
      </trkpt>
      <trkpt lat="45.44131" lon="1.89886">
        <ele>612.4</ele>
        <time>2022-08-04T17:12:35Z</time>
      </trkpt>
      <trkpt lat="45.4413" lon="1.899">
        <ele>611.6</ele>
        <time>2022-08-04T17:12:37Z</time>
      </trkpt>
      <trkpt lat="45.44129" lon="1.89914">
        <ele>610.8</ele>
        <time>2022-08-04T17:12:39Z</time>
      </trkpt>
      <trkpt lat="45.44128" lon="1.89929">
        <ele>609.2</ele>
        <time>2022-08-04T17:12:41Z</time>
      </trkpt>
      <trkpt lat="45.44129" lon="1.8994">
        <ele>607.8</ele>
        <time>2022-08-04T17:12:43Z</time>
      </trkpt>
      <trkpt lat="45.44128" lon="1.89951">
        <ele>606.6</ele>
        <time>2022-08-04T17:12:45Z</time>
      </trkpt>
      <trkpt lat="45.44127" lon="1.89959">
        <ele>605.7</ele>
        <time>2022-08-04T17:12:47Z</time>
      </trkpt>
      <trkpt lat="45.44126" lon="1.89969">
        <ele>604.7</ele>
        <time>2022-08-04T17:12:49Z</time>
      </trkpt>
      <trkpt lat="45.44125" lon="1.89981">
        <ele>603.3</ele>
        <time>2022-08-04T17:12:51Z</time>
      </trkpt>
      <trkpt lat="45.44122" lon="1.89991">
        <ele>602.3</ele>
        <time>2022-08-04T17:12:53Z</time>
      </trkpt>
      <trkpt lat="45.44119" lon="1.89999">
        <ele>601.7</ele>
        <time>2022-08-04T17:12:55Z</time>
      </trkpt>
      <trkpt lat="45.44115" lon="1.90004">
        <ele>601.7</ele>
        <time>2022-08-04T17:12:57Z</time>
      </trkpt>
      <trkpt lat="45.44111" lon="1.9001">
        <ele>601.6</ele>
        <time>2022-08-04T17:12:59Z</time>
      </trkpt>
      <trkpt lat="45.44106" lon="1.90017">
        <ele>601.5</ele>
        <time>2022-08-04T17:13:01Z</time>
      </trkpt>
      <trkpt lat="45.44101" lon="1.90022">
        <ele>601.5</ele>
        <time>2022-08-04T17:13:03Z</time>
      </trkpt>
      <trkpt lat="45.44097" lon="1.90025">
        <ele>601.6</ele>
        <time>2022-08-04T17:13:05Z</time>
      </trkpt>
      <trkpt lat="45.44092" lon="1.90031">
        <ele>601.4</ele>
        <time>2022-08-04T17:13:07Z</time>
      </trkpt>
      <trkpt lat="45.44087" lon="1.90034">
        <ele>601.4</ele>
        <time>2022-08-04T17:13:09Z</time>
      </trkpt>
      <trkpt lat="45.44082" lon="1.90038">
        <ele>601.3</ele>
        <time>2022-08-04T17:13:11Z</time>
      </trkpt>
      <trkpt lat="45.44078" lon="1.90042">
        <ele>600.7</ele>
        <time>2022-08-04T17:13:13Z</time>
      </trkpt>
      <trkpt lat="45.44076" lon="1.90043">
        <ele>600.5</ele>
        <time>2022-08-04T17:13:15Z</time>
      </trkpt>
      <trkpt lat="45.44075" lon="1.90044">
        <ele>600.4</ele>
        <time>2022-08-04T17:13:17Z</time>
      </trkpt>
      <trkpt lat="45.44075" lon="1.90044">
        <ele>600.4</ele>
        <time>2022-08-04T17:13:19Z</time>
      </trkpt>
      <trkpt lat="45.44075" lon="1.90044">
        <ele>600.4</ele>
        <time>2022-08-04T17:13:21Z</time>
      </trkpt>
      <trkpt lat="45.44075" lon="1.90044">
        <ele>600.4</ele>
        <time>2022-08-04T17:13:23Z</time>
      </trkpt>
      <trkpt lat="45.44049" lon="1.90068">
        <ele>596.8</ele>
        <time>2022-08-04T17:13:51Z</time>
      </trkpt>
      <trkpt lat="45.44043" lon="1.90073">
        <ele>596.1</ele>
        <time>2022-08-04T17:13:53Z</time>
      </trkpt>
      <trkpt lat="45.44038" lon="1.90078">
        <ele>595.4</ele>
        <time>2022-08-04T17:13:55Z</time>
      </trkpt>
      <trkpt lat="45.44031" lon="1.90083">
        <ele>594.6</ele>
        <time>2022-08-04T17:13:57Z</time>
      </trkpt>
      <trkpt lat="45.44024" lon="1.9009">
        <ele>595</ele>
        <time>2022-08-04T17:13:59Z</time>
      </trkpt>
      <trkpt lat="45.44017" lon="1.90095">
        <ele>595.4</ele>
        <time>2022-08-04T17:14:01Z</time>
      </trkpt>
      <trkpt lat="45.44011" lon="1.90101">
        <ele>595.8</ele>
        <time>2022-08-04T17:14:03Z</time>
      </trkpt>
      <trkpt lat="45.44005" lon="1.90106">
        <ele>596.2</ele>
        <time>2022-08-04T17:14:05Z</time>
      </trkpt>
      <trkpt lat="45.43999" lon="1.90111">
        <ele>596.7</ele>
        <time>2022-08-04T17:14:07Z</time>
      </trkpt>
      <trkpt lat="45.43994" lon="1.90116">
        <ele>596.9</ele>
        <time>2022-08-04T17:14:09Z</time>
      </trkpt>
      <trkpt lat="45.43989" lon="1.9012">
        <ele>597.1</ele>
        <time>2022-08-04T17:14:11Z</time>
      </trkpt>
      <trkpt lat="45.43984" lon="1.90125">
        <ele>597.2</ele>
        <time>2022-08-04T17:14:13Z</time>
      </trkpt>
      <trkpt lat="45.43979" lon="1.90129">
        <ele>597.4</ele>
        <time>2022-08-04T17:14:15Z</time>
      </trkpt>
      <trkpt lat="45.43973" lon="1.90134">
        <ele>597.5</ele>
        <time>2022-08-04T17:14:17Z</time>
      </trkpt>
      <trkpt lat="45.43969" lon="1.90138">
        <ele>597.8</ele>
        <time>2022-08-04T17:14:19Z</time>
      </trkpt>
      <trkpt lat="45.43964" lon="1.90142">
        <ele>597.9</ele>
        <time>2022-08-04T17:14:21Z</time>
      </trkpt>
      <trkpt lat="45.4396" lon="1.90146">
        <ele>598</ele>
        <time>2022-08-04T17:14:23Z</time>
      </trkpt>
      <trkpt lat="45.43955" lon="1.9015">
        <ele>598.1</ele>
        <time>2022-08-04T17:14:25Z</time>
      </trkpt>
      <trkpt lat="45.4395" lon="1.90154">
        <ele>598.2</ele>
        <time>2022-08-04T17:14:27Z</time>
      </trkpt>
      <trkpt lat="45.43944" lon="1.90159">
        <ele>598.4</ele>
        <time>2022-08-04T17:14:29Z</time>
      </trkpt>
      <trkpt lat="45.43939" lon="1.90164">
        <ele>598.5</ele>
        <time>2022-08-04T17:14:31Z</time>
      </trkpt>
      <trkpt lat="45.43935" lon="1.90169">
        <ele>598.9</ele>
        <time>2022-08-04T17:14:33Z</time>
      </trkpt>
      <trkpt lat="45.4393" lon="1.90174">
        <ele>599.1</ele>
        <time>2022-08-04T17:14:35Z</time>
      </trkpt>
      <trkpt lat="45.43924" lon="1.90178">
        <ele>599.2</ele>
        <time>2022-08-04T17:14:37Z</time>
      </trkpt>
      <trkpt lat="45.43918" lon="1.90181">
        <ele>599.1</ele>
        <time>2022-08-04T17:14:39Z</time>
      </trkpt>
      <trkpt lat="45.43912" lon="1.90183">
        <ele>599</ele>
        <time>2022-08-04T17:14:41Z</time>
      </trkpt>
      <trkpt lat="45.43905" lon="1.90184">
        <ele>598.8</ele>
        <time>2022-08-04T17:14:43Z</time>
      </trkpt>
      <trkpt lat="45.43898" lon="1.90184">
        <ele>598.3</ele>
        <time>2022-08-04T17:14:45Z</time>
      </trkpt>
      <trkpt lat="45.43891" lon="1.90183">
        <ele>597.8</ele>
        <time>2022-08-04T17:14:47Z</time>
      </trkpt>
      <trkpt lat="45.43884" lon="1.90182">
        <ele>597.1</ele>
        <time>2022-08-04T17:14:49Z</time>
      </trkpt>
      <trkpt lat="45.43876" lon="1.9018">
        <ele>596.4</ele>
        <time>2022-08-04T17:14:51Z</time>
      </trkpt>
      <trkpt lat="45.43869" lon="1.90181">
        <ele>596.1</ele>
        <time>2022-08-04T17:14:53Z</time>
      </trkpt>
      <trkpt lat="45.43863" lon="1.9018">
        <ele>595.6</ele>
        <time>2022-08-04T17:14:55Z</time>
      </trkpt>
      <trkpt lat="45.43856" lon="1.90178">
        <ele>594.9</ele>
        <time>2022-08-04T17:14:57Z</time>
      </trkpt>
      <trkpt lat="45.43849" lon="1.90179">
        <ele>594.6</ele>
        <time>2022-08-04T17:14:59Z</time>
      </trkpt>
      <trkpt lat="45.43841" lon="1.90179">
        <ele>594.1</ele>
        <time>2022-08-04T17:15:01Z</time>
      </trkpt>
      <trkpt lat="45.43833" lon="1.90179">
        <ele>593.6</ele>
        <time>2022-08-04T17:15:03Z</time>
      </trkpt>
      <trkpt lat="45.43824" lon="1.90181">
        <ele>593.1</ele>
        <time>2022-08-04T17:15:05Z</time>
      </trkpt>
      <trkpt lat="45.43816" lon="1.90184">
        <ele>592.8</ele>
        <time>2022-08-04T17:15:07Z</time>
      </trkpt>
      <trkpt lat="45.43808" lon="1.90188">
        <ele>592.4</ele>
        <time>2022-08-04T17:15:09Z</time>
      </trkpt>
      <trkpt lat="45.438" lon="1.90193">
        <ele>592.2</ele>
        <time>2022-08-04T17:15:11Z</time>
      </trkpt>
      <trkpt lat="45.43791" lon="1.90198">
        <ele>592</ele>
        <time>2022-08-04T17:15:13Z</time>
      </trkpt>
      <trkpt lat="45.43782" lon="1.90204">
        <ele>591.8</ele>
        <time>2022-08-04T17:15:15Z</time>
      </trkpt>
      <trkpt lat="45.43774" lon="1.90211">
        <ele>591.7</ele>
        <time>2022-08-04T17:15:17Z</time>
      </trkpt>
      <trkpt lat="45.43766" lon="1.90218">
        <ele>591.7</ele>
        <time>2022-08-04T17:15:19Z</time>
      </trkpt>
      <trkpt lat="45.4376" lon="1.90226">
        <ele>591.9</ele>
        <time>2022-08-04T17:15:21Z</time>
      </trkpt>
      <trkpt lat="45.43754" lon="1.90235">
        <ele>592.1</ele>
        <time>2022-08-04T17:15:23Z</time>
      </trkpt>
      <trkpt lat="45.43747" lon="1.90245">
        <ele>592.1</ele>
        <time>2022-08-04T17:15:25Z</time>
      </trkpt>
      <trkpt lat="45.43741" lon="1.90256">
        <ele>592.6</ele>
        <time>2022-08-04T17:15:27Z</time>
      </trkpt>
      <trkpt lat="45.43734" lon="1.90268">
        <ele>593.3</ele>
        <time>2022-08-04T17:15:29Z</time>
      </trkpt>
      <trkpt lat="45.43727" lon="1.9028">
        <ele>593.8</ele>
        <time>2022-08-04T17:15:31Z</time>
      </trkpt>
      <trkpt lat="45.4372" lon="1.9029">
        <ele>594.1</ele>
        <time>2022-08-04T17:15:33Z</time>
      </trkpt>
      <trkpt lat="45.4371" lon="1.90296">
        <ele>593.4</ele>
        <time>2022-08-04T17:15:35Z</time>
      </trkpt>
      <trkpt lat="45.43699" lon="1.903">
        <ele>592.1</ele>
        <time>2022-08-04T17:15:37Z</time>
      </trkpt>
      <trkpt lat="45.43687" lon="1.90301">
        <ele>590.2</ele>
        <time>2022-08-04T17:15:39Z</time>
      </trkpt>
      <trkpt lat="45.43674" lon="1.903">
        <ele>588.1</ele>
        <time>2022-08-04T17:15:41Z</time>
      </trkpt>
      <trkpt lat="45.43661" lon="1.90299">
        <ele>586.7</ele>
        <time>2022-08-04T17:15:43Z</time>
      </trkpt>
      <trkpt lat="45.43649" lon="1.90298">
        <ele>586.3</ele>
        <time>2022-08-04T17:15:45Z</time>
      </trkpt>
      <trkpt lat="45.43638" lon="1.90297">
        <ele>585.8</ele>
        <time>2022-08-04T17:15:47Z</time>
      </trkpt>
      <trkpt lat="45.43627" lon="1.90295">
        <ele>585.3</ele>
        <time>2022-08-04T17:15:49Z</time>
      </trkpt>
      <trkpt lat="45.43617" lon="1.90295">
        <ele>584.9</ele>
        <time>2022-08-04T17:15:51Z</time>
      </trkpt>
      <trkpt lat="45.43606" lon="1.90294">
        <ele>584.5</ele>
        <time>2022-08-04T17:15:53Z</time>
      </trkpt>
      <trkpt lat="45.43595" lon="1.90293">
        <ele>584.1</ele>
        <time>2022-08-04T17:15:55Z</time>
      </trkpt>
      <trkpt lat="45.43584" lon="1.90293">
        <ele>583.7</ele>
        <time>2022-08-04T17:15:57Z</time>
      </trkpt>
      <trkpt lat="45.43574" lon="1.90295">
        <ele>583.9</ele>
        <time>2022-08-04T17:15:59Z</time>
      </trkpt>
      <trkpt lat="45.43565" lon="1.90301">
        <ele>584.5</ele>
        <time>2022-08-04T17:16:01Z</time>
      </trkpt>
      <trkpt lat="45.43557" lon="1.90309">
        <ele>585</ele>
        <time>2022-08-04T17:16:03Z</time>
      </trkpt>
      <trkpt lat="45.43551" lon="1.90319">
        <ele>585.4</ele>
        <time>2022-08-04T17:16:05Z</time>
      </trkpt>
      <trkpt lat="45.43545" lon="1.90328">
        <ele>585.5</ele>
        <time>2022-08-04T17:16:07Z</time>
      </trkpt>
      <trkpt lat="45.43539" lon="1.90337">
        <ele>585.4</ele>
        <time>2022-08-04T17:16:09Z</time>
      </trkpt>
      <trkpt lat="45.43534" lon="1.90347">
        <ele>585.2</ele>
        <time>2022-08-04T17:16:11Z</time>
      </trkpt>
      <trkpt lat="45.43527" lon="1.90356">
        <ele>584.7</ele>
        <time>2022-08-04T17:16:13Z</time>
      </trkpt>
      <trkpt lat="45.4352" lon="1.90365">
        <ele>584.2</ele>
        <time>2022-08-04T17:16:15Z</time>
      </trkpt>
      <trkpt lat="45.43514" lon="1.90374">
        <ele>583.6</ele>
        <time>2022-08-04T17:16:17Z</time>
      </trkpt>
      <trkpt lat="45.43509" lon="1.90385">
        <ele>583.1</ele>
        <time>2022-08-04T17:16:19Z</time>
      </trkpt>
      <trkpt lat="45.43502" lon="1.90395">
        <ele>582.3</ele>
        <time>2022-08-04T17:16:21Z</time>
      </trkpt>
      <trkpt lat="45.43498" lon="1.90406">
        <ele>581.8</ele>
        <time>2022-08-04T17:16:23Z</time>
      </trkpt>
      <trkpt lat="45.43495" lon="1.90415">
        <ele>581.3</ele>
        <time>2022-08-04T17:16:25Z</time>
      </trkpt>
      <trkpt lat="45.43492" lon="1.90422">
        <ele>581</ele>
        <time>2022-08-04T17:16:27Z</time>
      </trkpt>
      <trkpt lat="45.4349" lon="1.90428">
        <ele>580.8</ele>
        <time>2022-08-04T17:16:29Z</time>
      </trkpt>
      <trkpt lat="45.4349" lon="1.9043">
        <ele>580.7</ele>
        <time>2022-08-04T17:16:31Z</time>
      </trkpt>
      <trkpt lat="45.43489" lon="1.90432">
        <ele>580.6</ele>
        <time>2022-08-04T17:16:33Z</time>
      </trkpt>
      <trkpt lat="45.4349" lon="1.90434">
        <ele>580.8</ele>
        <time>2022-08-04T17:16:35Z</time>
      </trkpt>
      <trkpt lat="45.43492" lon="1.90433">
        <ele>581</ele>
        <time>2022-08-04T17:16:37Z</time>
      </trkpt>
      <trkpt lat="45.43492" lon="1.90433">
        <ele>581</ele>
        <time>2022-08-04T17:16:39Z</time>
      </trkpt>
      <trkpt lat="45.43486" lon="1.90453">
        <ele>580.3</ele>
        <time>2022-08-04T17:16:59Z</time>
      </trkpt>
      <trkpt lat="45.43482" lon="1.90458">
        <ele>580</ele>
        <time>2022-08-04T17:17:01Z</time>
      </trkpt>
      <trkpt lat="45.43479" lon="1.90464">
        <ele>579.6</ele>
        <time>2022-08-04T17:17:03Z</time>
      </trkpt>
      <trkpt lat="45.43475" lon="1.90472">
        <ele>579.3</ele>
        <time>2022-08-04T17:17:05Z</time>
      </trkpt>
      <trkpt lat="45.43471" lon="1.90478">
        <ele>579</ele>
        <time>2022-08-04T17:17:07Z</time>
      </trkpt>
      <trkpt lat="45.43467" lon="1.90481">
        <ele>578.6</ele>
        <time>2022-08-04T17:17:09Z</time>
      </trkpt>
      <trkpt lat="45.43464" lon="1.90485">
        <ele>578.3</ele>
        <time>2022-08-04T17:17:11Z</time>
      </trkpt>
      <trkpt lat="45.43458" lon="1.90492">
        <ele>577.8</ele>
        <time>2022-08-04T17:17:13Z</time>
      </trkpt>
      <trkpt lat="45.43454" lon="1.90496">
        <ele>577.5</ele>
        <time>2022-08-04T17:17:15Z</time>
      </trkpt>
      <trkpt lat="45.43452" lon="1.90502">
        <ele>577.3</ele>
        <time>2022-08-04T17:17:17Z</time>
      </trkpt>
      <trkpt lat="45.4345" lon="1.90508">
        <ele>577.1</ele>
        <time>2022-08-04T17:17:19Z</time>
      </trkpt>
      <trkpt lat="45.43448" lon="1.90514">
        <ele>577</ele>
        <time>2022-08-04T17:17:21Z</time>
      </trkpt>
      <trkpt lat="45.43448" lon="1.9052">
        <ele>576.9</ele>
        <time>2022-08-04T17:17:23Z</time>
      </trkpt>
      <trkpt lat="45.43449" lon="1.90523">
        <ele>577</ele>
        <time>2022-08-04T17:17:25Z</time>
      </trkpt>
      <trkpt lat="45.43449" lon="1.90525">
        <ele>577</ele>
        <time>2022-08-04T17:17:27Z</time>
      </trkpt>
      <trkpt lat="45.43449" lon="1.90525">
        <ele>577</ele>
        <time>2022-08-04T17:17:29Z</time>
      </trkpt>
      <trkpt lat="45.43449" lon="1.90525">
        <ele>577</ele>
        <time>2022-08-04T17:17:31Z</time>
      </trkpt>
      <trkpt lat="45.4345" lon="1.90526">
        <ele>577</ele>
        <time>2022-08-04T17:17:33Z</time>
      </trkpt>
      <trkpt lat="45.4345" lon="1.90527">
        <ele>577</ele>
        <time>2022-08-04T17:17:35Z</time>
      </trkpt>
      <trkpt lat="45.4347" lon="1.90554">
        <ele>577.3</ele>
        <time>2022-08-04T17:24:49Z</time>
      </trkpt>
      <trkpt lat="45.43471" lon="1.90548">
        <ele>577.6</ele>
        <time>2022-08-04T17:24:51Z</time>
      </trkpt>
      <trkpt lat="45.43468" lon="1.90544">
        <ele>577.6</ele>
        <time>2022-08-04T17:24:53Z</time>
      </trkpt>
      <trkpt lat="45.43465" lon="1.9054">
        <ele>577.6</ele>
        <time>2022-08-04T17:24:55Z</time>
      </trkpt>
      <trkpt lat="45.43461" lon="1.90537">
        <ele>577.5</ele>
        <time>2022-08-04T17:24:57Z</time>
      </trkpt>
      <trkpt lat="45.43458" lon="1.90534">
        <ele>577.4</ele>
        <time>2022-08-04T17:24:59Z</time>
      </trkpt>
      <trkpt lat="45.43453" lon="1.90531">
        <ele>577.2</ele>
        <time>2022-08-04T17:25:01Z</time>
      </trkpt>
      <trkpt lat="45.4345" lon="1.90528">
        <ele>577</ele>
        <time>2022-08-04T17:25:03Z</time>
      </trkpt>
      <trkpt lat="45.43447" lon="1.90522">
        <ele>576.8</ele>
        <time>2022-08-04T17:25:05Z</time>
      </trkpt>
      <trkpt lat="45.43446" lon="1.90516">
        <ele>576.8</ele>
        <time>2022-08-04T17:25:07Z</time>
      </trkpt>
      <trkpt lat="45.43447" lon="1.90509">
        <ele>576.9</ele>
        <time>2022-08-04T17:25:09Z</time>
      </trkpt>
      <trkpt lat="45.43448" lon="1.90504">
        <ele>577</ele>
        <time>2022-08-04T17:25:11Z</time>
      </trkpt>
      <trkpt lat="45.4345" lon="1.90499">
        <ele>577.2</ele>
        <time>2022-08-04T17:25:13Z</time>
      </trkpt>
      <trkpt lat="45.43452" lon="1.90495">
        <ele>577.3</ele>
        <time>2022-08-04T17:25:15Z</time>
      </trkpt>
      <trkpt lat="45.43457" lon="1.9049">
        <ele>577.7</ele>
        <time>2022-08-04T17:25:17Z</time>
      </trkpt>
      <trkpt lat="45.4346" lon="1.90486">
        <ele>577.9</ele>
        <time>2022-08-04T17:25:19Z</time>
      </trkpt>
      <trkpt lat="45.43463" lon="1.90482">
        <ele>578.2</ele>
        <time>2022-08-04T17:25:21Z</time>
      </trkpt>
      <trkpt lat="45.43465" lon="1.90479">
        <ele>578.3</ele>
        <time>2022-08-04T17:25:23Z</time>
      </trkpt>
      <trkpt lat="45.43468" lon="1.90474">
        <ele>578.6</ele>
        <time>2022-08-04T17:25:25Z</time>
      </trkpt>
      <trkpt lat="45.43471" lon="1.9047">
        <ele>578.9</ele>
        <time>2022-08-04T17:25:27Z</time>
      </trkpt>
      <trkpt lat="45.43474" lon="1.90465">
        <ele>579.1</ele>
        <time>2022-08-04T17:25:29Z</time>
      </trkpt>
      <trkpt lat="45.43475" lon="1.90461">
        <ele>579.2</ele>
        <time>2022-08-04T17:25:31Z</time>
      </trkpt>
      <trkpt lat="45.43477" lon="1.90458">
        <ele>579.4</ele>
        <time>2022-08-04T17:25:33Z</time>
      </trkpt>
      <trkpt lat="45.4348" lon="1.90453">
        <ele>579.6</ele>
        <time>2022-08-04T17:25:35Z</time>
      </trkpt>
      <trkpt lat="45.43482" lon="1.90449">
        <ele>579.9</ele>
        <time>2022-08-04T17:25:37Z</time>
      </trkpt>
      <trkpt lat="45.43486" lon="1.90446">
        <ele>580.3</ele>
        <time>2022-08-04T17:25:39Z</time>
      </trkpt>
      <trkpt lat="45.43488" lon="1.90443">
        <ele>580.6</ele>
        <time>2022-08-04T17:25:41Z</time>
      </trkpt>
      <trkpt lat="45.43492" lon="1.90439">
        <ele>581</ele>
        <time>2022-08-04T17:25:43Z</time>
      </trkpt>
      <trkpt lat="45.43491" lon="1.90433">
        <ele>580.8</ele>
        <time>2022-08-04T17:25:45Z</time>
      </trkpt>
      <trkpt lat="45.43489" lon="1.90427">
        <ele>580.6</ele>
        <time>2022-08-04T17:25:47Z</time>
      </trkpt>
      <trkpt lat="45.43486" lon="1.90426">
        <ele>580.3</ele>
        <time>2022-08-04T17:25:49Z</time>
      </trkpt>
      <trkpt lat="45.43485" lon="1.90432">
        <ele>580.1</ele>
        <time>2022-08-04T17:25:51Z</time>
      </trkpt>
      <trkpt lat="45.43482" lon="1.9044">
        <ele>579.9</ele>
        <time>2022-08-04T17:25:53Z</time>
      </trkpt>
      <trkpt lat="45.43478" lon="1.90449">
        <ele>579.5</ele>
        <time>2022-08-04T17:25:55Z</time>
      </trkpt>
      <trkpt lat="45.43474" lon="1.90456">
        <ele>579.1</ele>
        <time>2022-08-04T17:25:57Z</time>
      </trkpt>
      <trkpt lat="45.43468" lon="1.90462">
        <ele>578.4</ele>
        <time>2022-08-04T17:25:59Z</time>
      </trkpt>
      <trkpt lat="45.43461" lon="1.90469">
        <ele>577.8</ele>
        <time>2022-08-04T17:26:01Z</time>
      </trkpt>
      <trkpt lat="45.43454" lon="1.90476">
        <ele>577.1</ele>
        <time>2022-08-04T17:26:03Z</time>
      </trkpt>
      <trkpt lat="45.43447" lon="1.90484">
        <ele>576.5</ele>
        <time>2022-08-04T17:26:05Z</time>
      </trkpt>
      <trkpt lat="45.4344" lon="1.90491">
        <ele>576</ele>
        <time>2022-08-04T17:26:07Z</time>
      </trkpt>
      <trkpt lat="45.43432" lon="1.90497">
        <ele>575.3</ele>
        <time>2022-08-04T17:26:09Z</time>
      </trkpt>
      <trkpt lat="45.43424" lon="1.90506">
        <ele>574.8</ele>
        <time>2022-08-04T17:26:11Z</time>
      </trkpt>
      <trkpt lat="45.43416" lon="1.90513">
        <ele>574.4</ele>
        <time>2022-08-04T17:26:13Z</time>
      </trkpt>
      <trkpt lat="45.43412" lon="1.90517">
        <ele>573.8</ele>
        <time>2022-08-04T17:26:15Z</time>
      </trkpt>
      <trkpt lat="45.43408" lon="1.90518">
        <ele>573</ele>
        <time>2022-08-04T17:26:17Z</time>
      </trkpt>
      <trkpt lat="45.43403" lon="1.90524">
        <ele>572.5</ele>
        <time>2022-08-04T17:26:19Z</time>
      </trkpt>
      <trkpt lat="45.43398" lon="1.90532">
        <ele>571.8</ele>
        <time>2022-08-04T17:26:21Z</time>
      </trkpt>
      <trkpt lat="45.4339" lon="1.90539">
        <ele>570.8</ele>
        <time>2022-08-04T17:26:23Z</time>
      </trkpt>
      <trkpt lat="45.43381" lon="1.90547">
        <ele>569.6</ele>
        <time>2022-08-04T17:26:25Z</time>
      </trkpt>
      <trkpt lat="45.43372" lon="1.90556">
        <ele>568.3</ele>
        <time>2022-08-04T17:26:27Z</time>
      </trkpt>
      <trkpt lat="45.43361" lon="1.90565">
        <ele>566.8</ele>
        <time>2022-08-04T17:26:29Z</time>
      </trkpt>
      <trkpt lat="45.43349" lon="1.90574">
        <ele>565.2</ele>
        <time>2022-08-04T17:26:31Z</time>
      </trkpt>
      <trkpt lat="45.43337" lon="1.90583">
        <ele>563.6</ele>
        <time>2022-08-04T17:26:33Z</time>
      </trkpt>
      <trkpt lat="45.43324" lon="1.90592">
        <ele>562.4</ele>
        <time>2022-08-04T17:26:35Z</time>
      </trkpt>
      <trkpt lat="45.43308" lon="1.90601">
        <ele>561</ele>
        <time>2022-08-04T17:26:37Z</time>
      </trkpt>
      <trkpt lat="45.43295" lon="1.90608">
        <ele>559.6</ele>
        <time>2022-08-04T17:26:39Z</time>
      </trkpt>
      <trkpt lat="45.43283" lon="1.90611">
        <ele>558.2</ele>
        <time>2022-08-04T17:26:41Z</time>
      </trkpt>
      <trkpt lat="45.43275" lon="1.90612">
        <ele>557.1</ele>
        <time>2022-08-04T17:26:43Z</time>
      </trkpt>
      <trkpt lat="45.43266" lon="1.90615">
        <ele>556</ele>
        <time>2022-08-04T17:26:45Z</time>
      </trkpt>
      <trkpt lat="45.43256" lon="1.90618">
        <ele>554.7</ele>
        <time>2022-08-04T17:26:47Z</time>
      </trkpt>
      <trkpt lat="45.43246" lon="1.90621">
        <ele>553.8</ele>
        <time>2022-08-04T17:26:49Z</time>
      </trkpt>
      <trkpt lat="45.43237" lon="1.90626">
        <ele>553.5</ele>
        <time>2022-08-04T17:26:51Z</time>
      </trkpt>
      <trkpt lat="45.43228" lon="1.90632">
        <ele>553.3</ele>
        <time>2022-08-04T17:26:53Z</time>
      </trkpt>
      <trkpt lat="45.4322" lon="1.90639">
        <ele>553.1</ele>
        <time>2022-08-04T17:26:55Z</time>
      </trkpt>
      <trkpt lat="45.43214" lon="1.90646">
        <ele>553</ele>
        <time>2022-08-04T17:26:57Z</time>
      </trkpt>
      <trkpt lat="45.43209" lon="1.90655">
        <ele>552.9</ele>
        <time>2022-08-04T17:26:59Z</time>
      </trkpt>
      <trkpt lat="45.43201" lon="1.90664">
        <ele>552.6</ele>
        <time>2022-08-04T17:27:01Z</time>
      </trkpt>
      <trkpt lat="45.43192" lon="1.90672">
        <ele>551.9</ele>
        <time>2022-08-04T17:27:03Z</time>
      </trkpt>
      <trkpt lat="45.43183" lon="1.90679">
        <ele>551.1</ele>
        <time>2022-08-04T17:27:05Z</time>
      </trkpt>
      <trkpt lat="45.43174" lon="1.90686">
        <ele>550.2</ele>
        <time>2022-08-04T17:27:07Z</time>
      </trkpt>
      <trkpt lat="45.43166" lon="1.90692">
        <ele>549.4</ele>
        <time>2022-08-04T17:27:09Z</time>
      </trkpt>
      <trkpt lat="45.43158" lon="1.90695">
        <ele>548.9</ele>
        <time>2022-08-04T17:27:11Z</time>
      </trkpt>
      <trkpt lat="45.43151" lon="1.90694">
        <ele>548.6</ele>
        <time>2022-08-04T17:27:13Z</time>
      </trkpt>
      <trkpt lat="45.43143" lon="1.90692">
        <ele>548.3</ele>
        <time>2022-08-04T17:27:15Z</time>
      </trkpt>
      <trkpt lat="45.43138" lon="1.90686">
        <ele>548.4</ele>
        <time>2022-08-04T17:27:17Z</time>
      </trkpt>
      <trkpt lat="45.43133" lon="1.9068">
        <ele>548.4</ele>
        <time>2022-08-04T17:27:19Z</time>
      </trkpt>
      <trkpt lat="45.43126" lon="1.90671">
        <ele>548.4</ele>
        <time>2022-08-04T17:27:21Z</time>
      </trkpt>
      <trkpt lat="45.43119" lon="1.90662">
        <ele>548.6</ele>
        <time>2022-08-04T17:27:23Z</time>
      </trkpt>
      <trkpt lat="45.43114" lon="1.90654">
        <ele>549.1</ele>
        <time>2022-08-04T17:27:25Z</time>
      </trkpt>
      <trkpt lat="45.43108" lon="1.90649">
        <ele>549.5</ele>
        <time>2022-08-04T17:27:27Z</time>
      </trkpt>
      <trkpt lat="45.43102" lon="1.90641">
        <ele>550.2</ele>
        <time>2022-08-04T17:27:29Z</time>
      </trkpt>
      <trkpt lat="45.43097" lon="1.90635">
        <ele>551</ele>
        <time>2022-08-04T17:27:31Z</time>
      </trkpt>
      <trkpt lat="45.43089" lon="1.90629">
        <ele>551.9</ele>
        <time>2022-08-04T17:27:33Z</time>
      </trkpt>
      <trkpt lat="45.43081" lon="1.90622">
        <ele>553.2</ele>
        <time>2022-08-04T17:27:35Z</time>
      </trkpt>
      <trkpt lat="45.43074" lon="1.90621">
        <ele>554.3</ele>
        <time>2022-08-04T17:27:37Z</time>
      </trkpt>
      <trkpt lat="45.43067" lon="1.90621">
        <ele>555.3</ele>
        <time>2022-08-04T17:27:39Z</time>
      </trkpt>
      <trkpt lat="45.4306" lon="1.90625">
        <ele>555.6</ele>
        <time>2022-08-04T17:27:41Z</time>
      </trkpt>
      <trkpt lat="45.43056" lon="1.90626">
        <ele>555.9</ele>
        <time>2022-08-04T17:27:43Z</time>
      </trkpt>
      <trkpt lat="45.43057" lon="1.90626">
        <ele>555.8</ele>
        <time>2022-08-04T17:27:45Z</time>
      </trkpt>
      <trkpt lat="45.43056" lon="1.90627">
        <ele>555.8</ele>
        <time>2022-08-04T17:27:47Z</time>
      </trkpt>
      <trkpt lat="45.43056" lon="1.90629">
        <ele>555.5</ele>
        <time>2022-08-04T17:27:51Z</time>
      </trkpt>
      <trkpt lat="45.43032" lon="1.90647">
        <ele>555.1</ele>
        <time>2022-08-04T17:28:37Z</time>
      </trkpt>
      <trkpt lat="45.43029" lon="1.90649">
        <ele>555.1</ele>
        <time>2022-08-04T17:28:39Z</time>
      </trkpt>
      <trkpt lat="45.43026" lon="1.90653">
        <ele>554.8</ele>
        <time>2022-08-04T17:28:41Z</time>
      </trkpt>
      <trkpt lat="45.43022" lon="1.90656">
        <ele>554.7</ele>
        <time>2022-08-04T17:28:43Z</time>
      </trkpt>
      <trkpt lat="45.43018" lon="1.90659">
        <ele>554.6</ele>
        <time>2022-08-04T17:28:45Z</time>
      </trkpt>
      <trkpt lat="45.43014" lon="1.90661">
        <ele>554.7</ele>
        <time>2022-08-04T17:28:47Z</time>
      </trkpt>
      <trkpt lat="45.4301" lon="1.90663">
        <ele>554.6</ele>
        <time>2022-08-04T17:28:49Z</time>
      </trkpt>
      <trkpt lat="45.43007" lon="1.90666">
        <ele>554.3</ele>
        <time>2022-08-04T17:28:51Z</time>
      </trkpt>
      <trkpt lat="45.43003" lon="1.90668">
        <ele>554.4</ele>
        <time>2022-08-04T17:28:53Z</time>
      </trkpt>
      <trkpt lat="45.42999" lon="1.90669">
        <ele>554.7</ele>
        <time>2022-08-04T17:28:55Z</time>
      </trkpt>
      <trkpt lat="45.42994" lon="1.90672">
        <ele>554.8</ele>
        <time>2022-08-04T17:28:57Z</time>
      </trkpt>
      <trkpt lat="45.42991" lon="1.90674">
        <ele>555</ele>
        <time>2022-08-04T17:28:59Z</time>
      </trkpt>
      <trkpt lat="45.42987" lon="1.90676">
        <ele>555.3</ele>
        <time>2022-08-04T17:29:01Z</time>
      </trkpt>
      <trkpt lat="45.42982" lon="1.90677">
        <ele>555.7</ele>
        <time>2022-08-04T17:29:03Z</time>
      </trkpt>
      <trkpt lat="45.42977" lon="1.90677">
        <ele>556.4</ele>
        <time>2022-08-04T17:29:05Z</time>
      </trkpt>
      <trkpt lat="45.42973" lon="1.90678">
        <ele>556.9</ele>
        <time>2022-08-04T17:29:07Z</time>
      </trkpt>
      <trkpt lat="45.42969" lon="1.9068">
        <ele>557</ele>
        <time>2022-08-04T17:29:09Z</time>
      </trkpt>
      <trkpt lat="45.42966" lon="1.90683">
        <ele>557.1</ele>
        <time>2022-08-04T17:29:11Z</time>
      </trkpt>
      <trkpt lat="45.42962" lon="1.90685">
        <ele>557.3</ele>
        <time>2022-08-04T17:29:13Z</time>
      </trkpt>
      <trkpt lat="45.42958" lon="1.90687">
        <ele>557.5</ele>
        <time>2022-08-04T17:29:15Z</time>
      </trkpt>
      <trkpt lat="45.42954" lon="1.90688">
        <ele>557.8</ele>
        <time>2022-08-04T17:29:17Z</time>
      </trkpt>
      <trkpt lat="45.4295" lon="1.9069">
        <ele>557.9</ele>
        <time>2022-08-04T17:29:19Z</time>
      </trkpt>
      <trkpt lat="45.42946" lon="1.90693">
        <ele>557.9</ele>
        <time>2022-08-04T17:29:21Z</time>
      </trkpt>
      <trkpt lat="45.42943" lon="1.90695">
        <ele>557.9</ele>
        <time>2022-08-04T17:29:23Z</time>
      </trkpt>
      <trkpt lat="45.4294" lon="1.90698">
        <ele>557.9</ele>
        <time>2022-08-04T17:29:25Z</time>
      </trkpt>
      <trkpt lat="45.42937" lon="1.90701">
        <ele>557.7</ele>
        <time>2022-08-04T17:29:27Z</time>
      </trkpt>
      <trkpt lat="45.42934" lon="1.90704">
        <ele>557.4</ele>
        <time>2022-08-04T17:29:29Z</time>
      </trkpt>
      <trkpt lat="45.42931" lon="1.90707">
        <ele>557.3</ele>
        <time>2022-08-04T17:29:31Z</time>
      </trkpt>
      <trkpt lat="45.42928" lon="1.90712">
        <ele>556.6</ele>
        <time>2022-08-04T17:29:33Z</time>
      </trkpt>
      <trkpt lat="45.42924" lon="1.90716">
        <ele>556.2</ele>
        <time>2022-08-04T17:29:35Z</time>
      </trkpt>
      <trkpt lat="45.42922" lon="1.9072">
        <ele>555.7</ele>
        <time>2022-08-04T17:29:37Z</time>
      </trkpt>
      <trkpt lat="45.4292" lon="1.90725">
        <ele>555</ele>
        <time>2022-08-04T17:29:39Z</time>
      </trkpt>
      <trkpt lat="45.42919" lon="1.90729">
        <ele>554.3</ele>
        <time>2022-08-04T17:29:41Z</time>
      </trkpt>
      <trkpt lat="45.42916" lon="1.90734">
        <ele>553.6</ele>
        <time>2022-08-04T17:29:43Z</time>
      </trkpt>
      <trkpt lat="45.42913" lon="1.90738">
        <ele>553.2</ele>
        <time>2022-08-04T17:29:45Z</time>
      </trkpt>
      <trkpt lat="45.42911" lon="1.90743">
        <ele>552.5</ele>
        <time>2022-08-04T17:29:47Z</time>
      </trkpt>
      <trkpt lat="45.42908" lon="1.90748">
        <ele>551.9</ele>
        <time>2022-08-04T17:29:49Z</time>
      </trkpt>
      <trkpt lat="45.42905" lon="1.90751">
        <ele>551.9</ele>
        <time>2022-08-04T17:29:51Z</time>
      </trkpt>
      <trkpt lat="45.42902" lon="1.90755">
        <ele>552.1</ele>
        <time>2022-08-04T17:29:53Z</time>
      </trkpt>
      <trkpt lat="45.42898" lon="1.90757">
        <ele>552.5</ele>
        <time>2022-08-04T17:29:55Z</time>
      </trkpt>
      <trkpt lat="45.42895" lon="1.9076">
        <ele>552.7</ele>
        <time>2022-08-04T17:29:57Z</time>
      </trkpt>
      <trkpt lat="45.42892" lon="1.90762">
        <ele>553</ele>
        <time>2022-08-04T17:29:59Z</time>
      </trkpt>
      <trkpt lat="45.42889" lon="1.90764">
        <ele>553.4</ele>
        <time>2022-08-04T17:30:01Z</time>
      </trkpt>
      <trkpt lat="45.42886" lon="1.90765">
        <ele>553.8</ele>
        <time>2022-08-04T17:30:03Z</time>
      </trkpt>
      <trkpt lat="45.42879" lon="1.90767">
        <ele>554.5</ele>
        <time>2022-08-04T17:30:05Z</time>
      </trkpt>
      <trkpt lat="45.42874" lon="1.90769">
        <ele>555.1</ele>
        <time>2022-08-04T17:30:07Z</time>
      </trkpt>
      <trkpt lat="45.42868" lon="1.90772">
        <ele>555.6</ele>
        <time>2022-08-04T17:30:09Z</time>
      </trkpt>
      <trkpt lat="45.42862" lon="1.90775">
        <ele>556.1</ele>
        <time>2022-08-04T17:30:11Z</time>
      </trkpt>
      <trkpt lat="45.42857" lon="1.90776">
        <ele>556.7</ele>
        <time>2022-08-04T17:30:13Z</time>
      </trkpt>
      <trkpt lat="45.4285" lon="1.90779">
        <ele>557.2</ele>
        <time>2022-08-04T17:30:15Z</time>
      </trkpt>
      <trkpt lat="45.42845" lon="1.90782">
        <ele>557.5</ele>
        <time>2022-08-04T17:30:17Z</time>
      </trkpt>
      <trkpt lat="45.42839" lon="1.90785">
        <ele>557.8</ele>
        <time>2022-08-04T17:30:19Z</time>
      </trkpt>
      <trkpt lat="45.42833" lon="1.90786">
        <ele>558.4</ele>
        <time>2022-08-04T17:30:21Z</time>
      </trkpt>
      <trkpt lat="45.42827" lon="1.90789">
        <ele>558.1</ele>
        <time>2022-08-04T17:30:23Z</time>
      </trkpt>
      <trkpt lat="45.4282" lon="1.90793">
        <ele>557.8</ele>
        <time>2022-08-04T17:30:25Z</time>
      </trkpt>
      <trkpt lat="45.42813" lon="1.90795">
        <ele>557.5</ele>
        <time>2022-08-04T17:30:27Z</time>
      </trkpt>
      <trkpt lat="45.42807" lon="1.90798">
        <ele>557.2</ele>
        <time>2022-08-04T17:30:29Z</time>
      </trkpt>
      <trkpt lat="45.428" lon="1.90802">
        <ele>556.8</ele>
        <time>2022-08-04T17:30:31Z</time>
      </trkpt>
      <trkpt lat="45.42793" lon="1.90804">
        <ele>556.5</ele>
        <time>2022-08-04T17:30:33Z</time>
      </trkpt>
      <trkpt lat="45.42785" lon="1.90807">
        <ele>556.3</ele>
        <time>2022-08-04T17:30:35Z</time>
      </trkpt>
      <trkpt lat="45.42778" lon="1.90809">
        <ele>556</ele>
        <time>2022-08-04T17:30:37Z</time>
      </trkpt>
      <trkpt lat="45.4277" lon="1.90811">
        <ele>555.8</ele>
        <time>2022-08-04T17:30:39Z</time>
      </trkpt>
      <trkpt lat="45.4276" lon="1.90813">
        <ele>555.6</ele>
        <time>2022-08-04T17:30:41Z</time>
      </trkpt>
      <trkpt lat="45.4275" lon="1.90817">
        <ele>555.2</ele>
        <time>2022-08-04T17:30:43Z</time>
      </trkpt>
      <trkpt lat="45.42739" lon="1.9082">
        <ele>555.5</ele>
        <time>2022-08-04T17:30:45Z</time>
      </trkpt>
      <trkpt lat="45.42728" lon="1.90824">
        <ele>555.4</ele>
        <time>2022-08-04T17:30:47Z</time>
      </trkpt>
      <trkpt lat="45.42717" lon="1.90828">
        <ele>555.4</ele>
        <time>2022-08-04T17:30:49Z</time>
      </trkpt>
      <trkpt lat="45.42707" lon="1.90833">
        <ele>555.1</ele>
        <time>2022-08-04T17:30:51Z</time>
      </trkpt>
      <trkpt lat="45.42696" lon="1.90838">
        <ele>555</ele>
        <time>2022-08-04T17:30:53Z</time>
      </trkpt>
      <trkpt lat="45.42686" lon="1.90843">
        <ele>554.7</ele>
        <time>2022-08-04T17:30:55Z</time>
      </trkpt>
      <trkpt lat="45.42675" lon="1.90847">
        <ele>554.5</ele>
        <time>2022-08-04T17:30:57Z</time>
      </trkpt>
      <trkpt lat="45.42666" lon="1.90851">
        <ele>554.3</ele>
        <time>2022-08-04T17:30:59Z</time>
      </trkpt>
      <trkpt lat="45.42655" lon="1.90852">
        <ele>554.3</ele>
        <time>2022-08-04T17:31:01Z</time>
      </trkpt>
      <trkpt lat="45.42645" lon="1.90851">
        <ele>555</ele>
        <time>2022-08-04T17:31:03Z</time>
      </trkpt>
      <trkpt lat="45.42635" lon="1.90848">
        <ele>556.2</ele>
        <time>2022-08-04T17:31:05Z</time>
      </trkpt>
      <trkpt lat="45.42627" lon="1.90843">
        <ele>557.8</ele>
        <time>2022-08-04T17:31:07Z</time>
      </trkpt>
      <trkpt lat="45.42618" lon="1.90838">
        <ele>559.3</ele>
        <time>2022-08-04T17:31:09Z</time>
      </trkpt>
      <trkpt lat="45.42609" lon="1.90834">
        <ele>560.7</ele>
        <time>2022-08-04T17:31:11Z</time>
      </trkpt>
      <trkpt lat="45.426" lon="1.90832">
        <ele>561.6</ele>
        <time>2022-08-04T17:31:13Z</time>
      </trkpt>
      <trkpt lat="45.42591" lon="1.90832">
        <ele>562</ele>
        <time>2022-08-04T17:31:15Z</time>
      </trkpt>
      <trkpt lat="45.42582" lon="1.90837">
        <ele>561.2</ele>
        <time>2022-08-04T17:31:17Z</time>
      </trkpt>
      <trkpt lat="45.42574" lon="1.90844">
        <ele>560.3</ele>
        <time>2022-08-04T17:31:19Z</time>
      </trkpt>
      <trkpt lat="45.42566" lon="1.90851">
        <ele>559.1</ele>
        <time>2022-08-04T17:31:21Z</time>
      </trkpt>
      <trkpt lat="45.42559" lon="1.9086">
        <ele>557.8</ele>
        <time>2022-08-04T17:31:23Z</time>
      </trkpt>
      <trkpt lat="45.42552" lon="1.90867">
        <ele>556.7</ele>
        <time>2022-08-04T17:31:25Z</time>
      </trkpt>
      <trkpt lat="45.42545" lon="1.90874">
        <ele>555.8</ele>
        <time>2022-08-04T17:31:27Z</time>
      </trkpt>
      <trkpt lat="45.42538" lon="1.90881">
        <ele>555.1</ele>
        <time>2022-08-04T17:31:29Z</time>
      </trkpt>
      <trkpt lat="45.42529" lon="1.90889">
        <ele>554.3</ele>
        <time>2022-08-04T17:31:31Z</time>
      </trkpt>
      <trkpt lat="45.42519" lon="1.90895">
        <ele>554.2</ele>
        <time>2022-08-04T17:31:33Z</time>
      </trkpt>
      <trkpt lat="45.42508" lon="1.90901">
        <ele>554.1</ele>
        <time>2022-08-04T17:31:35Z</time>
      </trkpt>
      <trkpt lat="45.42497" lon="1.90909">
        <ele>554.2</ele>
        <time>2022-08-04T17:31:37Z</time>
      </trkpt>
      <trkpt lat="45.42486" lon="1.90918">
        <ele>555</ele>
        <time>2022-08-04T17:31:39Z</time>
      </trkpt>
      <trkpt lat="45.42476" lon="1.90926">
        <ele>556.1</ele>
        <time>2022-08-04T17:31:41Z</time>
      </trkpt>
      <trkpt lat="45.42465" lon="1.90933">
        <ele>556.9</ele>
        <time>2022-08-04T17:31:43Z</time>
      </trkpt>
      <trkpt lat="45.42458" lon="1.90942">
        <ele>556.7</ele>
        <time>2022-08-04T17:31:45Z</time>
      </trkpt>
      <trkpt lat="45.42454" lon="1.90943">
        <ele>557.2</ele>
        <time>2022-08-04T17:31:47Z</time>
      </trkpt>
      <trkpt lat="45.42451" lon="1.90946">
        <ele>557.1</ele>
        <time>2022-08-04T17:31:49Z</time>
      </trkpt>
      <trkpt lat="45.4245" lon="1.90947">
        <ele>557.2</ele>
        <time>2022-08-04T17:31:51Z</time>
      </trkpt>
      <trkpt lat="45.42446" lon="1.90948">
        <ele>557.5</ele>
        <time>2022-08-04T17:31:53Z</time>
      </trkpt>
      <trkpt lat="45.42444" lon="1.9095">
        <ele>557.5</ele>
        <time>2022-08-04T17:31:55Z</time>
      </trkpt>
      <trkpt lat="45.42442" lon="1.90951">
        <ele>557.7</ele>
        <time>2022-08-04T17:31:57Z</time>
      </trkpt>
      <trkpt lat="45.42419" lon="1.90966">
        <ele>558.1</ele>
        <time>2022-08-04T17:32:45Z</time>
      </trkpt>
      <trkpt lat="45.42414" lon="1.90969">
        <ele>558.1</ele>
        <time>2022-08-04T17:32:47Z</time>
      </trkpt>
      <trkpt lat="45.42408" lon="1.90972">
        <ele>558</ele>
        <time>2022-08-04T17:32:49Z</time>
      </trkpt>
      <trkpt lat="45.42404" lon="1.90974">
        <ele>558.4</ele>
        <time>2022-08-04T17:32:51Z</time>
      </trkpt>
      <trkpt lat="45.42397" lon="1.90979">
        <ele>558.1</ele>
        <time>2022-08-04T17:32:53Z</time>
      </trkpt>
      <trkpt lat="45.42392" lon="1.90983">
        <ele>557.8</ele>
        <time>2022-08-04T17:32:55Z</time>
      </trkpt>
      <trkpt lat="45.42387" lon="1.90986">
        <ele>557.7</ele>
        <time>2022-08-04T17:32:57Z</time>
      </trkpt>
      <trkpt lat="45.42382" lon="1.9099">
        <ele>557.2</ele>
        <time>2022-08-04T17:32:59Z</time>
      </trkpt>
      <trkpt lat="45.42376" lon="1.90995">
        <ele>556.9</ele>
        <time>2022-08-04T17:33:01Z</time>
      </trkpt>
      <trkpt lat="45.4237" lon="1.90998">
        <ele>556.9</ele>
        <time>2022-08-04T17:33:03Z</time>
      </trkpt>
      <trkpt lat="45.42364" lon="1.91001">
        <ele>557</ele>
        <time>2022-08-04T17:33:05Z</time>
      </trkpt>
      <trkpt lat="45.42357" lon="1.91004">
        <ele>557.3</ele>
        <time>2022-08-04T17:33:07Z</time>
      </trkpt>
      <trkpt lat="45.42351" lon="1.91007">
        <ele>557.5</ele>
        <time>2022-08-04T17:33:09Z</time>
      </trkpt>
      <trkpt lat="45.42344" lon="1.91011">
        <ele>557.5</ele>
        <time>2022-08-04T17:33:11Z</time>
      </trkpt>
      <trkpt lat="45.42338" lon="1.91014">
        <ele>557.5</ele>
        <time>2022-08-04T17:33:13Z</time>
      </trkpt>
      <trkpt lat="45.42331" lon="1.91016">
        <ele>557.6</ele>
        <time>2022-08-04T17:33:15Z</time>
      </trkpt>
      <trkpt lat="45.42326" lon="1.91018">
        <ele>557.2</ele>
        <time>2022-08-04T17:33:17Z</time>
      </trkpt>
      <trkpt lat="45.42321" lon="1.91023">
        <ele>556</ele>
        <time>2022-08-04T17:33:19Z</time>
      </trkpt>
      <trkpt lat="45.42316" lon="1.91023">
        <ele>556.2</ele>
        <time>2022-08-04T17:33:21Z</time>
      </trkpt>
      <trkpt lat="45.42312" lon="1.91023">
        <ele>556.4</ele>
        <time>2022-08-04T17:33:23Z</time>
      </trkpt>
      <trkpt lat="45.42307" lon="1.91023">
        <ele>556.5</ele>
        <time>2022-08-04T17:33:25Z</time>
      </trkpt>
      <trkpt lat="45.42303" lon="1.91023">
        <ele>556.6</ele>
        <time>2022-08-04T17:33:27Z</time>
      </trkpt>
      <trkpt lat="45.42302" lon="1.91023">
        <ele>556.6</ele>
        <time>2022-08-04T17:33:29Z</time>
      </trkpt>
      <trkpt lat="45.42301" lon="1.91023">
        <ele>556.7</ele>
        <time>2022-08-04T17:33:31Z</time>
      </trkpt>
      <trkpt lat="45.42301" lon="1.91022">
        <ele>557</ele>
        <time>2022-08-04T17:33:33Z</time>
      </trkpt>
      <trkpt lat="45.42301" lon="1.91018">
        <ele>557.8</ele>
        <time>2022-08-04T17:33:35Z</time>
      </trkpt>
      <trkpt lat="45.42303" lon="1.91017">
        <ele>558.2</ele>
        <time>2022-08-04T17:33:37Z</time>
      </trkpt>
      <trkpt lat="45.42305" lon="1.91015">
        <ele>558.5</ele>
        <time>2022-08-04T17:33:39Z</time>
      </trkpt>
      <trkpt lat="45.42307" lon="1.91014">
        <ele>558.8</ele>
        <time>2022-08-04T17:33:41Z</time>
      </trkpt>
      <trkpt lat="45.42309" lon="1.91013">
        <ele>559.1</ele>
        <time>2022-08-04T17:33:43Z</time>
      </trkpt>
      <trkpt lat="45.4231" lon="1.91011">
        <ele>559.5</ele>
        <time>2022-08-04T17:33:45Z</time>
      </trkpt>
      <trkpt lat="45.42312" lon="1.9101">
        <ele>559.5</ele>
        <time>2022-08-04T17:33:47Z</time>
      </trkpt>
    </trkseg>
      <trkpt lat="45.42338" lon="1.90999">
        <ele>561.5</ele>
        <time>2022-08-05T05:38:40Z</time>
      </trkpt>
      <trkpt lat="45.42328" lon="1.91004">
        <ele>561.1</ele>
        <time>2022-08-05T05:38:41Z</time>
      </trkpt>
      <trkpt lat="45.42329" lon="1.91004">
        <ele>560.9</ele>
        <time>2022-08-05T05:38:43Z</time>
      </trkpt>
      <trkpt lat="45.42329" lon="1.91006">
        <ele>560.4</ele>
        <time>2022-08-05T05:38:45Z</time>
      </trkpt>
      <trkpt lat="45.42326" lon="1.91008">
        <ele>560</ele>
        <time>2022-08-05T05:38:47Z</time>
      </trkpt>
      <trkpt lat="45.42323" lon="1.9101">
        <ele>559.5</ele>
        <time>2022-08-05T05:38:49Z</time>
      </trkpt>
      <trkpt lat="45.42321" lon="1.9101">
        <ele>559.5</ele>
        <time>2022-08-05T05:38:51Z</time>
      </trkpt>
      <trkpt lat="45.42319" lon="1.91012">
        <ele>559</ele>
        <time>2022-08-05T05:38:53Z</time>
      </trkpt>
      <trkpt lat="45.42315" lon="1.91014">
        <ele>558.5</ele>
        <time>2022-08-05T05:38:55Z</time>
      </trkpt>
      <trkpt lat="45.42312" lon="1.91016">
        <ele>558.2</ele>
        <time>2022-08-05T05:38:57Z</time>
      </trkpt>
      <trkpt lat="45.4231" lon="1.91014">
        <ele>558.6</ele>
        <time>2022-08-05T05:38:59Z</time>
      </trkpt>
      <trkpt lat="45.42308" lon="1.91014">
        <ele>558.8</ele>
        <time>2022-08-05T05:39:01Z</time>
      </trkpt>
      <trkpt lat="45.42307" lon="1.91014">
        <ele>558.8</ele>
        <time>2022-08-05T05:39:03Z</time>
      </trkpt>
      <trkpt lat="45.42305" lon="1.91015">
        <ele>558.6</ele>
        <time>2022-08-05T05:39:05Z</time>
      </trkpt>
      <trkpt lat="45.42306" lon="1.91014">
        <ele>558.7</ele>
        <time>2022-08-05T05:39:07Z</time>
      </trkpt>
      <trkpt lat="45.42292" lon="1.91024">
        <ele>556.7</ele>
        <time>2022-08-05T05:39:39Z</time>
      </trkpt>
      <trkpt lat="45.42287" lon="1.91023">
        <ele>557.1</ele>
        <time>2022-08-05T05:39:41Z</time>
      </trkpt>
      <trkpt lat="45.42281" lon="1.91022">
        <ele>557.6</ele>
        <time>2022-08-05T05:39:43Z</time>
      </trkpt>
      <trkpt lat="45.42275" lon="1.91018">
        <ele>558.6</ele>
        <time>2022-08-05T05:39:45Z</time>
      </trkpt>
      <trkpt lat="45.42268" lon="1.91017">
        <ele>559</ele>
        <time>2022-08-05T05:39:47Z</time>
      </trkpt>
      <trkpt lat="45.42261" lon="1.91017">
        <ele>559.2</ele>
        <time>2022-08-05T05:39:49Z</time>
      </trkpt>
      <trkpt lat="45.42254" lon="1.91017">
        <ele>559.3</ele>
        <time>2022-08-05T05:39:51Z</time>
      </trkpt>
      <trkpt lat="45.42245" lon="1.91026">
        <ele>557.8</ele>
        <time>2022-08-05T05:39:53Z</time>
      </trkpt>
      <trkpt lat="45.42238" lon="1.91031">
        <ele>556.8</ele>
        <time>2022-08-05T05:39:55Z</time>
      </trkpt>
      <trkpt lat="45.42229" lon="1.91038">
        <ele>555.4</ele>
        <time>2022-08-05T05:39:57Z</time>
      </trkpt>
      <trkpt lat="45.42218" lon="1.91041">
        <ele>555.1</ele>
        <time>2022-08-05T05:39:59Z</time>
      </trkpt>
      <trkpt lat="45.42207" lon="1.91045">
        <ele>554.5</ele>
        <time>2022-08-05T05:40:01Z</time>
      </trkpt>
      <trkpt lat="45.42194" lon="1.91046">
        <ele>554.4</ele>
        <time>2022-08-05T05:40:03Z</time>
      </trkpt>
      <trkpt lat="45.42179" lon="1.91047">
        <ele>554.5</ele>
        <time>2022-08-05T05:40:05Z</time>
      </trkpt>
      <trkpt lat="45.42165" lon="1.91047">
        <ele>554.5</ele>
        <time>2022-08-05T05:40:07Z</time>
      </trkpt>
      <trkpt lat="45.42151" lon="1.91046">
        <ele>554.9</ele>
        <time>2022-08-05T05:40:09Z</time>
      </trkpt>
      <trkpt lat="45.42136" lon="1.91044">
        <ele>555.4</ele>
        <time>2022-08-05T05:40:11Z</time>
      </trkpt>
      <trkpt lat="45.42122" lon="1.9104">
        <ele>556.4</ele>
        <time>2022-08-05T05:40:13Z</time>
      </trkpt>
      <trkpt lat="45.42107" lon="1.91038">
        <ele>556.9</ele>
        <time>2022-08-05T05:40:15Z</time>
      </trkpt>
      <trkpt lat="45.42094" lon="1.91044">
        <ele>556</ele>
        <time>2022-08-05T05:40:17Z</time>
      </trkpt>
      <trkpt lat="45.4208" lon="1.91053">
        <ele>554.1</ele>
        <time>2022-08-05T05:40:19Z</time>
      </trkpt>
      <trkpt lat="45.42067" lon="1.91064">
        <ele>552.3</ele>
        <time>2022-08-05T05:40:21Z</time>
      </trkpt>
      <trkpt lat="45.4205" lon="1.91065">
        <ele>552.9</ele>
        <time>2022-08-05T05:40:23Z</time>
      </trkpt>
      <trkpt lat="45.42033" lon="1.91064">
        <ele>553.9</ele>
        <time>2022-08-05T05:40:25Z</time>
      </trkpt>
      <trkpt lat="45.42016" lon="1.91071">
        <ele>553.2</ele>
        <time>2022-08-05T05:40:27Z</time>
      </trkpt>
      <trkpt lat="45.42003" lon="1.91082">
        <ele>551.2</ele>
        <time>2022-08-05T05:40:29Z</time>
      </trkpt>
      <trkpt lat="45.41991" lon="1.91088">
        <ele>549.6</ele>
        <time>2022-08-05T05:40:31Z</time>
      </trkpt>
      <trkpt lat="45.4198" lon="1.91089">
        <ele>549</ele>
        <time>2022-08-05T05:40:33Z</time>
      </trkpt>
      <trkpt lat="45.41971" lon="1.91088">
        <ele>548.8</ele>
        <time>2022-08-05T05:40:35Z</time>
      </trkpt>
      <trkpt lat="45.41963" lon="1.91086">
        <ele>549</ele>
        <time>2022-08-05T05:40:37Z</time>
      </trkpt>
      <trkpt lat="45.41956" lon="1.91084">
        <ele>549.3</ele>
        <time>2022-08-05T05:40:39Z</time>
      </trkpt>
      <trkpt lat="45.41948" lon="1.91081">
        <ele>549.5</ele>
        <time>2022-08-05T05:40:41Z</time>
      </trkpt>
      <trkpt lat="45.41942" lon="1.91079">
        <ele>549.5</ele>
        <time>2022-08-05T05:40:43Z</time>
      </trkpt>
      <trkpt lat="45.41936" lon="1.91078">
        <ele>549.5</ele>
        <time>2022-08-05T05:40:45Z</time>
      </trkpt>
      <trkpt lat="45.41931" lon="1.91074">
        <ele>549.9</ele>
        <time>2022-08-05T05:40:47Z</time>
      </trkpt>
      <trkpt lat="45.41925" lon="1.9107">
        <ele>550</ele>
        <time>2022-08-05T05:40:49Z</time>
      </trkpt>
      <trkpt lat="45.41921" lon="1.91066">
        <ele>550.4</ele>
        <time>2022-08-05T05:40:51Z</time>
      </trkpt>
      <trkpt lat="45.41916" lon="1.91062">
        <ele>550.6</ele>
        <time>2022-08-05T05:40:53Z</time>
      </trkpt>
      <trkpt lat="45.41911" lon="1.91058">
        <ele>551.4</ele>
        <time>2022-08-05T05:40:55Z</time>
      </trkpt>
      <trkpt lat="45.41908" lon="1.91054">
        <ele>552.2</ele>
        <time>2022-08-05T05:40:57Z</time>
      </trkpt>
      <trkpt lat="45.41904" lon="1.91051">
        <ele>552.9</ele>
        <time>2022-08-05T05:40:59Z</time>
      </trkpt>
      <trkpt lat="45.419" lon="1.91046">
        <ele>553.9</ele>
        <time>2022-08-05T05:41:01Z</time>
      </trkpt>
      <trkpt lat="45.41895" lon="1.91042">
        <ele>554.9</ele>
        <time>2022-08-05T05:41:03Z</time>
      </trkpt>
      <trkpt lat="45.41891" lon="1.91037">
        <ele>556</ele>
        <time>2022-08-05T05:41:05Z</time>
      </trkpt>
      <trkpt lat="45.41886" lon="1.9103">
        <ele>557.6</ele>
        <time>2022-08-05T05:41:07Z</time>
      </trkpt>
      <trkpt lat="45.4188" lon="1.91023">
        <ele>559.2</ele>
        <time>2022-08-05T05:41:09Z</time>
      </trkpt>
      <trkpt lat="45.41875" lon="1.91016">
        <ele>560.9</ele>
        <time>2022-08-05T05:41:11Z</time>
      </trkpt>
      <trkpt lat="45.41865" lon="1.91018">
        <ele>561.7</ele>
        <time>2022-08-05T05:41:13Z</time>
      </trkpt>
      <trkpt lat="45.41859" lon="1.91022">
        <ele>561.7</ele>
        <time>2022-08-05T05:41:15Z</time>
      </trkpt>
      <trkpt lat="45.41853" lon="1.91028">
        <ele>561.2</ele>
        <time>2022-08-05T05:41:17Z</time>
      </trkpt>
      <trkpt lat="45.41848" lon="1.91035">
        <ele>560.4</ele>
        <time>2022-08-05T05:41:19Z</time>
      </trkpt>
      <trkpt lat="45.41844" lon="1.91039">
        <ele>560</ele>
        <time>2022-08-05T05:41:21Z</time>
      </trkpt>
      <trkpt lat="45.4184" lon="1.91047">
        <ele>558.9</ele>
        <time>2022-08-05T05:41:23Z</time>
      </trkpt>
      <trkpt lat="45.41836" lon="1.91054">
        <ele>557.9</ele>
        <time>2022-08-05T05:41:25Z</time>
      </trkpt>
      <trkpt lat="45.41833" lon="1.91059">
        <ele>557</ele>
        <time>2022-08-05T05:41:27Z</time>
      </trkpt>
      <trkpt lat="45.41829" lon="1.91065">
        <ele>556.5</ele>
        <time>2022-08-05T05:41:29Z</time>
      </trkpt>
      <trkpt lat="45.41825" lon="1.91071">
        <ele>555.9</ele>
        <time>2022-08-05T05:41:31Z</time>
      </trkpt>
      <trkpt lat="45.41822" lon="1.91079">
        <ele>554.9</ele>
        <time>2022-08-05T05:41:33Z</time>
      </trkpt>
      <trkpt lat="45.41818" lon="1.91086">
        <ele>554</ele>
        <time>2022-08-05T05:41:35Z</time>
      </trkpt>
      <trkpt lat="45.41813" lon="1.91092">
        <ele>553.2</ele>
        <time>2022-08-05T05:41:37Z</time>
      </trkpt>
      <trkpt lat="45.41807" lon="1.91099">
        <ele>552.5</ele>
        <time>2022-08-05T05:41:39Z</time>
      </trkpt>
      <trkpt lat="45.41801" lon="1.91102">
        <ele>552.5</ele>
        <time>2022-08-05T05:41:41Z</time>
      </trkpt>
      <trkpt lat="45.41794" lon="1.91108">
        <ele>552.2</ele>
        <time>2022-08-05T05:41:43Z</time>
      </trkpt>
      <trkpt lat="45.41787" lon="1.91112">
        <ele>552.1</ele>
        <time>2022-08-05T05:41:45Z</time>
      </trkpt>
      <trkpt lat="45.4178" lon="1.91117">
        <ele>551.6</ele>
        <time>2022-08-05T05:41:47Z</time>
      </trkpt>
      <trkpt lat="45.41773" lon="1.91122">
        <ele>551.4</ele>
        <time>2022-08-05T05:41:49Z</time>
      </trkpt>
      <trkpt lat="45.41765" lon="1.91126">
        <ele>551.2</ele>
        <time>2022-08-05T05:41:51Z</time>
      </trkpt>
      <trkpt lat="45.41756" lon="1.9113">
        <ele>551.1</ele>
        <time>2022-08-05T05:41:53Z</time>
      </trkpt>
      <trkpt lat="45.41748" lon="1.91136">
        <ele>550.4</ele>
        <time>2022-08-05T05:41:55Z</time>
      </trkpt>
      <trkpt lat="45.4174" lon="1.91141">
        <ele>549.9</ele>
        <time>2022-08-05T05:41:57Z</time>
      </trkpt>
      <trkpt lat="45.41731" lon="1.91147">
        <ele>549.5</ele>
        <time>2022-08-05T05:41:59Z</time>
      </trkpt>
      <trkpt lat="45.41722" lon="1.91155">
        <ele>548.8</ele>
        <time>2022-08-05T05:42:01Z</time>
      </trkpt>
      <trkpt lat="45.41713" lon="1.91162">
        <ele>548.6</ele>
        <time>2022-08-05T05:42:03Z</time>
      </trkpt>
      <trkpt lat="45.41705" lon="1.9117">
        <ele>548.6</ele>
        <time>2022-08-05T05:42:05Z</time>
      </trkpt>
      <trkpt lat="45.41697" lon="1.91178">
        <ele>548.6</ele>
        <time>2022-08-05T05:42:07Z</time>
      </trkpt>
      <trkpt lat="45.41689" lon="1.91188">
        <ele>548.2</ele>
        <time>2022-08-05T05:42:09Z</time>
      </trkpt>
      <trkpt lat="45.41682" lon="1.91196">
        <ele>548.2</ele>
        <time>2022-08-05T05:42:11Z</time>
      </trkpt>
      <trkpt lat="45.41674" lon="1.91204">
        <ele>548.3</ele>
        <time>2022-08-05T05:42:13Z</time>
      </trkpt>
      <trkpt lat="45.41665" lon="1.91212">
        <ele>548.6</ele>
        <time>2022-08-05T05:42:15Z</time>
      </trkpt>
      <trkpt lat="45.41657" lon="1.91219">
        <ele>549</ele>
        <time>2022-08-05T05:42:17Z</time>
      </trkpt>
      <trkpt lat="45.41648" lon="1.91226">
        <ele>549.5</ele>
        <time>2022-08-05T05:42:19Z</time>
      </trkpt>
      <trkpt lat="45.41639" lon="1.91232">
        <ele>550.2</ele>
        <time>2022-08-05T05:42:21Z</time>
      </trkpt>
      <trkpt lat="45.4163" lon="1.9124">
        <ele>550.5</ele>
        <time>2022-08-05T05:42:23Z</time>
      </trkpt>
      <trkpt lat="45.41621" lon="1.91246">
        <ele>551.3</ele>
        <time>2022-08-05T05:42:25Z</time>
      </trkpt>
      <trkpt lat="45.41612" lon="1.91252">
        <ele>551.8</ele>
        <time>2022-08-05T05:42:27Z</time>
      </trkpt>
      <trkpt lat="45.41604" lon="1.91258">
        <ele>551.7</ele>
        <time>2022-08-05T05:42:29Z</time>
      </trkpt>
      <trkpt lat="45.41596" lon="1.91263">
        <ele>551.9</ele>
        <time>2022-08-05T05:42:31Z</time>
      </trkpt>
      <trkpt lat="45.41588" lon="1.91266">
        <ele>552.3</ele>
        <time>2022-08-05T05:42:33Z</time>
      </trkpt>
      <trkpt lat="45.41579" lon="1.9127">
        <ele>552.5</ele>
        <time>2022-08-05T05:42:35Z</time>
      </trkpt>
      <trkpt lat="45.41571" lon="1.91274">
        <ele>551.9</ele>
        <time>2022-08-05T05:42:37Z</time>
      </trkpt>
      <trkpt lat="45.41563" lon="1.91279">
        <ele>551.4</ele>
        <time>2022-08-05T05:42:39Z</time>
      </trkpt>
      <trkpt lat="45.41555" lon="1.91284">
        <ele>550.7</ele>
        <time>2022-08-05T05:42:41Z</time>
      </trkpt>
      <trkpt lat="45.41547" lon="1.91292">
        <ele>549.8</ele>
        <time>2022-08-05T05:42:43Z</time>
      </trkpt>
      <trkpt lat="45.4154" lon="1.91298">
        <ele>549.4</ele>
        <time>2022-08-05T05:42:45Z</time>
      </trkpt>
      <trkpt lat="45.41533" lon="1.91303">
        <ele>549.2</ele>
        <time>2022-08-05T05:42:47Z</time>
      </trkpt>
      <trkpt lat="45.41527" lon="1.91306">
        <ele>549.5</ele>
        <time>2022-08-05T05:42:49Z</time>
      </trkpt>
      <trkpt lat="45.41519" lon="1.91311">
        <ele>549.6</ele>
        <time>2022-08-05T05:42:51Z</time>
      </trkpt>
      <trkpt lat="45.41512" lon="1.91316">
        <ele>549.8</ele>
        <time>2022-08-05T05:42:53Z</time>
      </trkpt>
      <trkpt lat="45.41505" lon="1.91321">
        <ele>549.9</ele>
        <time>2022-08-05T05:42:55Z</time>
      </trkpt>
      <trkpt lat="45.41498" lon="1.91325">
        <ele>550.1</ele>
        <time>2022-08-05T05:42:57Z</time>
      </trkpt>
      <trkpt lat="45.4149" lon="1.9133">
        <ele>548.6</ele>
        <time>2022-08-05T05:42:59Z</time>
      </trkpt>
      <trkpt lat="45.41482" lon="1.9133">
        <ele>547.8</ele>
        <time>2022-08-05T05:43:01Z</time>
      </trkpt>
      <trkpt lat="45.41472" lon="1.9133">
        <ele>546.8</ele>
        <time>2022-08-05T05:43:03Z</time>
      </trkpt>
      <trkpt lat="45.41464" lon="1.91325">
        <ele>546.7</ele>
        <time>2022-08-05T05:43:05Z</time>
      </trkpt>
      <trkpt lat="45.41458" lon="1.91317">
        <ele>547.3</ele>
        <time>2022-08-05T05:43:07Z</time>
      </trkpt>
      <trkpt lat="45.41453" lon="1.91306">
        <ele>548.4</ele>
        <time>2022-08-05T05:43:09Z</time>
      </trkpt>
      <trkpt lat="45.41449" lon="1.91296">
        <ele>549.4</ele>
        <time>2022-08-05T05:43:11Z</time>
      </trkpt>
      <trkpt lat="45.41445" lon="1.91284">
        <ele>550.7</ele>
        <time>2022-08-05T05:43:13Z</time>
      </trkpt>
      <trkpt lat="45.41441" lon="1.91271">
        <ele>552</ele>
        <time>2022-08-05T05:43:15Z</time>
      </trkpt>
      <trkpt lat="45.41436" lon="1.9126">
        <ele>552.9</ele>
        <time>2022-08-05T05:43:17Z</time>
      </trkpt>
      <trkpt lat="45.41429" lon="1.91249">
        <ele>553.5</ele>
        <time>2022-08-05T05:43:19Z</time>
      </trkpt>
      <trkpt lat="45.41419" lon="1.91243">
        <ele>552.6</ele>
        <time>2022-08-05T05:43:21Z</time>
      </trkpt>
      <trkpt lat="45.41409" lon="1.91243">
        <ele>552.7</ele>
        <time>2022-08-05T05:43:23Z</time>
      </trkpt>
      <trkpt lat="45.41401" lon="1.91247">
        <ele>552.7</ele>
        <time>2022-08-05T05:43:25Z</time>
      </trkpt>
      <trkpt lat="45.41396" lon="1.91253">
        <ele>552.4</ele>
        <time>2022-08-05T05:43:27Z</time>
      </trkpt>
      <trkpt lat="45.41392" lon="1.91257">
        <ele>551.9</ele>
        <time>2022-08-05T05:43:29Z</time>
      </trkpt>
      <trkpt lat="45.41389" lon="1.91262">
        <ele>551.3</ele>
        <time>2022-08-05T05:43:31Z</time>
      </trkpt>
      <trkpt lat="45.41387" lon="1.91265">
        <ele>550.9</ele>
        <time>2022-08-05T05:43:33Z</time>
      </trkpt>
      <trkpt lat="45.41386" lon="1.91268">
        <ele>550.5</ele>
        <time>2022-08-05T05:43:35Z</time>
      </trkpt>
      <trkpt lat="45.41382" lon="1.91272">
        <ele>550</ele>
        <time>2022-08-05T05:43:37Z</time>
      </trkpt>
      <trkpt lat="45.4138" lon="1.91273">
        <ele>549.8</ele>
        <time>2022-08-05T05:43:39Z</time>
      </trkpt>
      <trkpt lat="45.41378" lon="1.91276">
        <ele>549.6</ele>
        <time>2022-08-05T05:43:41Z</time>
      </trkpt>
      <trkpt lat="45.41378" lon="1.91276">
        <ele>549.5</ele>
        <time>2022-08-05T05:43:43Z</time>
      </trkpt>
      <trkpt lat="45.41377" lon="1.91277">
        <ele>549.5</ele>
        <time>2022-08-05T05:43:45Z</time>
      </trkpt>
      <trkpt lat="45.41376" lon="1.91277">
        <ele>549.4</ele>
        <time>2022-08-05T05:43:47Z</time>
      </trkpt>
      <trkpt lat="45.41372" lon="1.91278">
        <ele>549.3</ele>
        <time>2022-08-05T05:43:49Z</time>
      </trkpt>
      <trkpt lat="45.41368" lon="1.91284">
        <ele>548.6</ele>
        <time>2022-08-05T05:43:51Z</time>
      </trkpt>
      <trkpt lat="45.41362" lon="1.91294">
        <ele>547.2</ele>
        <time>2022-08-05T05:43:53Z</time>
      </trkpt>
      <trkpt lat="45.41354" lon="1.91307">
        <ele>545.2</ele>
        <time>2022-08-05T05:43:55Z</time>
      </trkpt>
      <trkpt lat="45.41344" lon="1.9132">
        <ele>543.2</ele>
        <time>2022-08-05T05:43:57Z</time>
      </trkpt>
      <trkpt lat="45.41332" lon="1.91332">
        <ele>541.4</ele>
        <time>2022-08-05T05:43:59Z</time>
      </trkpt>
      <trkpt lat="45.4132" lon="1.91346">
        <ele>542.4</ele>
        <time>2022-08-05T05:44:01Z</time>
      </trkpt>
      <trkpt lat="45.41308" lon="1.91362">
        <ele>542.9</ele>
        <time>2022-08-05T05:44:03Z</time>
      </trkpt>
      <trkpt lat="45.41296" lon="1.9138">
        <ele>543.3</ele>
        <time>2022-08-05T05:44:05Z</time>
      </trkpt>
      <trkpt lat="45.41285" lon="1.91396">
        <ele>544.1</ele>
        <time>2022-08-05T05:44:07Z</time>
      </trkpt>
      <trkpt lat="45.41272" lon="1.91413">
        <ele>545.1</ele>
        <time>2022-08-05T05:44:09Z</time>
      </trkpt>
      <trkpt lat="45.41258" lon="1.9143">
        <ele>546.2</ele>
        <time>2022-08-05T05:44:11Z</time>
      </trkpt>
      <trkpt lat="45.41246" lon="1.91448">
        <ele>545.7</ele>
        <time>2022-08-05T05:44:13Z</time>
      </trkpt>
      <trkpt lat="45.41233" lon="1.91465">
        <ele>544.9</ele>
        <time>2022-08-05T05:44:15Z</time>
      </trkpt>
      <trkpt lat="45.41222" lon="1.91485">
        <ele>543.4</ele>
        <time>2022-08-05T05:44:17Z</time>
      </trkpt>
      <trkpt lat="45.41212" lon="1.91505">
        <ele>541.9</ele>
        <time>2022-08-05T05:44:19Z</time>
      </trkpt>
      <trkpt lat="45.41202" lon="1.91526">
        <ele>540.6</ele>
        <time>2022-08-05T05:44:21Z</time>
      </trkpt>
      <trkpt lat="45.41191" lon="1.91544">
        <ele>539.2</ele>
        <time>2022-08-05T05:44:23Z</time>
      </trkpt>
      <trkpt lat="45.41182" lon="1.91564">
        <ele>537</ele>
        <time>2022-08-05T05:44:25Z</time>
      </trkpt>
      <trkpt lat="45.41176" lon="1.91586">
        <ele>534.2</ele>
        <time>2022-08-05T05:44:27Z</time>
      </trkpt>
      <trkpt lat="45.41175" lon="1.91606">
        <ele>532.7</ele>
        <time>2022-08-05T05:44:29Z</time>
      </trkpt>
      <trkpt lat="45.41175" lon="1.91626">
        <ele>531.1</ele>
        <time>2022-08-05T05:44:31Z</time>
      </trkpt>
      <trkpt lat="45.41176" lon="1.91643">
        <ele>529.8</ele>
        <time>2022-08-05T05:44:33Z</time>
      </trkpt>
      <trkpt lat="45.41176" lon="1.91658">
        <ele>528.6</ele>
        <time>2022-08-05T05:44:35Z</time>
      </trkpt>
      <trkpt lat="45.41176" lon="1.91674">
        <ele>527.4</ele>
        <time>2022-08-05T05:44:37Z</time>
      </trkpt>
      <trkpt lat="45.41173" lon="1.9169">
        <ele>526.3</ele>
        <time>2022-08-05T05:44:39Z</time>
      </trkpt>
      <trkpt lat="45.41162" lon="1.91708">
        <ele>524.8</ele>
        <time>2022-08-05T05:44:41Z</time>
      </trkpt>
      <trkpt lat="45.41146" lon="1.91722">
        <ele>523.1</ele>
        <time>2022-08-05T05:44:43Z</time>
      </trkpt>
      <trkpt lat="45.41129" lon="1.91732">
        <ele>521.5</ele>
        <time>2022-08-05T05:44:45Z</time>
      </trkpt>
      <trkpt lat="45.41115" lon="1.91741">
        <ele>520.2</ele>
        <time>2022-08-05T05:44:47Z</time>
      </trkpt>
      <trkpt lat="45.41104" lon="1.91745">
        <ele>519.4</ele>
        <time>2022-08-05T05:44:49Z</time>
      </trkpt>
      <trkpt lat="45.41096" lon="1.9175">
        <ele>518.6</ele>
        <time>2022-08-05T05:44:51Z</time>
      </trkpt>
      <trkpt lat="45.41086" lon="1.91756">
        <ele>518.2</ele>
        <time>2022-08-05T05:44:53Z</time>
      </trkpt>
      <trkpt lat="45.41076" lon="1.91761">
        <ele>518.7</ele>
        <time>2022-08-05T05:44:55Z</time>
      </trkpt>
      <trkpt lat="45.41065" lon="1.91761">
        <ele>519.5</ele>
        <time>2022-08-05T05:44:57Z</time>
      </trkpt>
      <trkpt lat="45.41056" lon="1.91756">
        <ele>520.1</ele>
        <time>2022-08-05T05:44:59Z</time>
      </trkpt>
      <trkpt lat="45.4105" lon="1.91748">
        <ele>520.5</ele>
        <time>2022-08-05T05:45:01Z</time>
      </trkpt>
      <trkpt lat="45.41045" lon="1.91741">
        <ele>521.1</ele>
        <time>2022-08-05T05:45:03Z</time>
      </trkpt>
      <trkpt lat="45.41041" lon="1.91734">
        <ele>521.5</ele>
        <time>2022-08-05T05:45:05Z</time>
      </trkpt>
      <trkpt lat="45.41036" lon="1.9173">
        <ele>521.9</ele>
        <time>2022-08-05T05:45:07Z</time>
      </trkpt>
      <trkpt lat="45.41031" lon="1.91726">
        <ele>522.2</ele>
        <time>2022-08-05T05:45:09Z</time>
      </trkpt>
      <trkpt lat="45.41026" lon="1.91723">
        <ele>522.5</ele>
        <time>2022-08-05T05:45:11Z</time>
      </trkpt>
      <trkpt lat="45.4102" lon="1.91722">
        <ele>522.8</ele>
        <time>2022-08-05T05:45:13Z</time>
      </trkpt>
      <trkpt lat="45.41015" lon="1.91721">
        <ele>523</ele>
        <time>2022-08-05T05:45:15Z</time>
      </trkpt>
      <trkpt lat="45.4101" lon="1.91721">
        <ele>523.2</ele>
        <time>2022-08-05T05:45:17Z</time>
      </trkpt>
      <trkpt lat="45.41005" lon="1.91721">
        <ele>523.5</ele>
        <time>2022-08-05T05:45:19Z</time>
      </trkpt>
      <trkpt lat="45.41" lon="1.9172">
        <ele>523.6</ele>
        <time>2022-08-05T05:45:21Z</time>
      </trkpt>
      <trkpt lat="45.40995" lon="1.91721">
        <ele>523.7</ele>
        <time>2022-08-05T05:45:23Z</time>
      </trkpt>
      <trkpt lat="45.4099" lon="1.91722">
        <ele>523.7</ele>
        <time>2022-08-05T05:45:25Z</time>
      </trkpt>
      <trkpt lat="45.40987" lon="1.91722">
        <ele>523.8</ele>
        <time>2022-08-05T05:45:27Z</time>
      </trkpt>
      <trkpt lat="45.40982" lon="1.91723">
        <ele>523.8</ele>
        <time>2022-08-05T05:45:29Z</time>
      </trkpt>
      <trkpt lat="45.40978" lon="1.91724">
        <ele>523.9</ele>
        <time>2022-08-05T05:45:31Z</time>
      </trkpt>
      <trkpt lat="45.40974" lon="1.91724">
        <ele>523.9</ele>
        <time>2022-08-05T05:45:33Z</time>
      </trkpt>
      <trkpt lat="45.4097" lon="1.91725">
        <ele>524</ele>
        <time>2022-08-05T05:45:35Z</time>
      </trkpt>
      <trkpt lat="45.40965" lon="1.91725">
        <ele>524.1</ele>
        <time>2022-08-05T05:45:37Z</time>
      </trkpt>
      <trkpt lat="45.40961" lon="1.91727">
        <ele>524.2</ele>
        <time>2022-08-05T05:45:39Z</time>
      </trkpt>
      <trkpt lat="45.40957" lon="1.91728">
        <ele>524.3</ele>
        <time>2022-08-05T05:45:41Z</time>
      </trkpt>
      <trkpt lat="45.40953" lon="1.9173">
        <ele>524.5</ele>
        <time>2022-08-05T05:45:43Z</time>
      </trkpt>
      <trkpt lat="45.40948" lon="1.91731">
        <ele>524.6</ele>
        <time>2022-08-05T05:45:45Z</time>
      </trkpt>
      <trkpt lat="45.40945" lon="1.91733">
        <ele>524.8</ele>
        <time>2022-08-05T05:45:47Z</time>
      </trkpt>
      <trkpt lat="45.40941" lon="1.91735">
        <ele>525</ele>
        <time>2022-08-05T05:45:49Z</time>
      </trkpt>
      <trkpt lat="45.40936" lon="1.91737">
        <ele>525.3</ele>
        <time>2022-08-05T05:45:51Z</time>
      </trkpt>
      <trkpt lat="45.40932" lon="1.91738">
        <ele>525.5</ele>
        <time>2022-08-05T05:45:53Z</time>
      </trkpt>
      <trkpt lat="45.40928" lon="1.9174">
        <ele>525.7</ele>
        <time>2022-08-05T05:45:55Z</time>
      </trkpt>
      <trkpt lat="45.40924" lon="1.91741">
        <ele>525.9</ele>
        <time>2022-08-05T05:45:57Z</time>
      </trkpt>
      <trkpt lat="45.4092" lon="1.91743">
        <ele>526.3</ele>
        <time>2022-08-05T05:45:59Z</time>
      </trkpt>
      <trkpt lat="45.40916" lon="1.91746">
        <ele>526.7</ele>
        <time>2022-08-05T05:46:01Z</time>
      </trkpt>
      <trkpt lat="45.40912" lon="1.91747">
        <ele>527.1</ele>
        <time>2022-08-05T05:46:03Z</time>
      </trkpt>
      <trkpt lat="45.40908" lon="1.91749">
        <ele>527.6</ele>
        <time>2022-08-05T05:46:05Z</time>
      </trkpt>
      <trkpt lat="45.40905" lon="1.91751">
        <ele>528.1</ele>
        <time>2022-08-05T05:46:07Z</time>
      </trkpt>
      <trkpt lat="45.40901" lon="1.91753">
        <ele>528.6</ele>
        <time>2022-08-05T05:46:09Z</time>
      </trkpt>
      <trkpt lat="45.40897" lon="1.91754">
        <ele>529.1</ele>
        <time>2022-08-05T05:46:11Z</time>
      </trkpt>
      <trkpt lat="45.40893" lon="1.91756">
        <ele>529.6</ele>
        <time>2022-08-05T05:46:13Z</time>
      </trkpt>
      <trkpt lat="45.40889" lon="1.91757">
        <ele>530.1</ele>
        <time>2022-08-05T05:46:15Z</time>
      </trkpt>
      <trkpt lat="45.40885" lon="1.91759">
        <ele>530.6</ele>
        <time>2022-08-05T05:46:17Z</time>
      </trkpt>
      <trkpt lat="45.40881" lon="1.9176">
        <ele>531</ele>
        <time>2022-08-05T05:46:19Z</time>
      </trkpt>
      <trkpt lat="45.40878" lon="1.91761">
        <ele>531.4</ele>
        <time>2022-08-05T05:46:21Z</time>
      </trkpt>
      <trkpt lat="45.40873" lon="1.9176">
        <ele>531.8</ele>
        <time>2022-08-05T05:46:23Z</time>
      </trkpt>
      <trkpt lat="45.4087" lon="1.9176">
        <ele>532</ele>
        <time>2022-08-05T05:46:25Z</time>
      </trkpt>
      <trkpt lat="45.40866" lon="1.91759">
        <ele>532.3</ele>
        <time>2022-08-05T05:46:27Z</time>
      </trkpt>
      <trkpt lat="45.40862" lon="1.91759">
        <ele>532.5</ele>
        <time>2022-08-05T05:46:29Z</time>
      </trkpt>
      <trkpt lat="45.40859" lon="1.91758">
        <ele>532.8</ele>
        <time>2022-08-05T05:46:31Z</time>
      </trkpt>
      <trkpt lat="45.40855" lon="1.91757">
        <ele>532.9</ele>
        <time>2022-08-05T05:46:33Z</time>
      </trkpt>
      <trkpt lat="45.40851" lon="1.91756">
        <ele>533.2</ele>
        <time>2022-08-05T05:46:35Z</time>
      </trkpt>
      <trkpt lat="45.40848" lon="1.91754">
        <ele>533.3</ele>
        <time>2022-08-05T05:46:37Z</time>
      </trkpt>
      <trkpt lat="45.40844" lon="1.91754">
        <ele>533.6</ele>
        <time>2022-08-05T05:46:39Z</time>
      </trkpt>
      <trkpt lat="45.4084" lon="1.91753">
        <ele>533.8</ele>
        <time>2022-08-05T05:46:41Z</time>
      </trkpt>
      <trkpt lat="45.40836" lon="1.91752">
        <ele>534</ele>
        <time>2022-08-05T05:46:43Z</time>
      </trkpt>
      <trkpt lat="45.40832" lon="1.91752">
        <ele>534.2</ele>
        <time>2022-08-05T05:46:45Z</time>
      </trkpt>
      <trkpt lat="45.40828" lon="1.91751">
        <ele>534.4</ele>
        <time>2022-08-05T05:46:47Z</time>
      </trkpt>
      <trkpt lat="45.40824" lon="1.9175">
        <ele>534.4</ele>
        <time>2022-08-05T05:46:49Z</time>
      </trkpt>
      <trkpt lat="45.4082" lon="1.9175">
        <ele>534.6</ele>
        <time>2022-08-05T05:46:51Z</time>
      </trkpt>
      <trkpt lat="45.40816" lon="1.91748">
        <ele>534.5</ele>
        <time>2022-08-05T05:46:53Z</time>
      </trkpt>
      <trkpt lat="45.40812" lon="1.91748">
        <ele>534.6</ele>
        <time>2022-08-05T05:46:55Z</time>
      </trkpt>
      <trkpt lat="45.40808" lon="1.91747">
        <ele>534.7</ele>
        <time>2022-08-05T05:46:57Z</time>
      </trkpt>
      <trkpt lat="45.40804" lon="1.91747">
        <ele>534.9</ele>
        <time>2022-08-05T05:46:59Z</time>
      </trkpt>
      <trkpt lat="45.40799" lon="1.91748">
        <ele>535.2</ele>
        <time>2022-08-05T05:47:01Z</time>
      </trkpt>
      <trkpt lat="45.40795" lon="1.91746">
        <ele>535.2</ele>
        <time>2022-08-05T05:47:03Z</time>
      </trkpt>
      <trkpt lat="45.40791" lon="1.91747">
        <ele>535.5</ele>
        <time>2022-08-05T05:47:05Z</time>
      </trkpt>
      <trkpt lat="45.40788" lon="1.91746">
        <ele>535.5</ele>
        <time>2022-08-05T05:47:07Z</time>
      </trkpt>
      <trkpt lat="45.40784" lon="1.91745">
        <ele>535.6</ele>
        <time>2022-08-05T05:47:09Z</time>
      </trkpt>
      <trkpt lat="45.4078" lon="1.91745">
        <ele>535.8</ele>
        <time>2022-08-05T05:47:11Z</time>
      </trkpt>
      <trkpt lat="45.40776" lon="1.91745">
        <ele>535.8</ele>
        <time>2022-08-05T05:47:13Z</time>
      </trkpt>
      <trkpt lat="45.40772" lon="1.91745">
        <ele>536.1</ele>
        <time>2022-08-05T05:47:15Z</time>
      </trkpt>
      <trkpt lat="45.40768" lon="1.91746">
        <ele>536.4</ele>
        <time>2022-08-05T05:47:17Z</time>
      </trkpt>
      <trkpt lat="45.40765" lon="1.91746">
        <ele>536.6</ele>
        <time>2022-08-05T05:47:19Z</time>
      </trkpt>
      <trkpt lat="45.40761" lon="1.91745">
        <ele>536.7</ele>
        <time>2022-08-05T05:47:21Z</time>
      </trkpt>
      <trkpt lat="45.40756" lon="1.91745">
        <ele>536.9</ele>
        <time>2022-08-05T05:47:23Z</time>
      </trkpt>
      <trkpt lat="45.40753" lon="1.91746">
        <ele>537.1</ele>
        <time>2022-08-05T05:47:25Z</time>
      </trkpt>
      <trkpt lat="45.40749" lon="1.91746">
        <ele>537.3</ele>
        <time>2022-08-05T05:47:27Z</time>
      </trkpt>
      <trkpt lat="45.40745" lon="1.91747">
        <ele>537.4</ele>
        <time>2022-08-05T05:47:29Z</time>
      </trkpt>
      <trkpt lat="45.40741" lon="1.91748">
        <ele>537.6</ele>
        <time>2022-08-05T05:47:31Z</time>
      </trkpt>
      <trkpt lat="45.40737" lon="1.91748">
        <ele>537.7</ele>
        <time>2022-08-05T05:47:33Z</time>
      </trkpt>
      <trkpt lat="45.40733" lon="1.9175">
        <ele>537.9</ele>
        <time>2022-08-05T05:47:35Z</time>
      </trkpt>
      <trkpt lat="45.4073" lon="1.91752">
        <ele>538.1</ele>
        <time>2022-08-05T05:47:37Z</time>
      </trkpt>
      <trkpt lat="45.40726" lon="1.91754">
        <ele>538.3</ele>
        <time>2022-08-05T05:47:39Z</time>
      </trkpt>
      <trkpt lat="45.40723" lon="1.91756">
        <ele>538.5</ele>
        <time>2022-08-05T05:47:41Z</time>
      </trkpt>
      <trkpt lat="45.4072" lon="1.9176">
        <ele>538.8</ele>
        <time>2022-08-05T05:47:43Z</time>
      </trkpt>
      <trkpt lat="45.40716" lon="1.91762">
        <ele>539</ele>
        <time>2022-08-05T05:47:45Z</time>
      </trkpt>
      <trkpt lat="45.40713" lon="1.91765">
        <ele>539.3</ele>
        <time>2022-08-05T05:47:47Z</time>
      </trkpt>
      <trkpt lat="45.4071" lon="1.91769">
        <ele>539.7</ele>
        <time>2022-08-05T05:47:49Z</time>
      </trkpt>
      <trkpt lat="45.40708" lon="1.91773">
        <ele>540.1</ele>
        <time>2022-08-05T05:47:51Z</time>
      </trkpt>
      <trkpt lat="45.40705" lon="1.91778">
        <ele>540.5</ele>
        <time>2022-08-05T05:47:53Z</time>
      </trkpt>
      <trkpt lat="45.40703" lon="1.91783">
        <ele>541</ele>
        <time>2022-08-05T05:47:55Z</time>
      </trkpt>
      <trkpt lat="45.40702" lon="1.91787">
        <ele>541.4</ele>
        <time>2022-08-05T05:47:57Z</time>
      </trkpt>
      <trkpt lat="45.40701" lon="1.91791">
        <ele>541.9</ele>
        <time>2022-08-05T05:47:59Z</time>
      </trkpt>
      <trkpt lat="45.40699" lon="1.91795">
        <ele>542.3</ele>
        <time>2022-08-05T05:48:01Z</time>
      </trkpt>
      <trkpt lat="45.40697" lon="1.918">
        <ele>542.7</ele>
        <time>2022-08-05T05:48:03Z</time>
      </trkpt>
      <trkpt lat="45.40696" lon="1.91804">
        <ele>543.2</ele>
        <time>2022-08-05T05:48:05Z</time>
      </trkpt>
      <trkpt lat="45.40695" lon="1.91809">
        <ele>543.6</ele>
        <time>2022-08-05T05:48:07Z</time>
      </trkpt>
      <trkpt lat="45.40694" lon="1.91814">
        <ele>544.1</ele>
        <time>2022-08-05T05:48:09Z</time>
      </trkpt>
      <trkpt lat="45.40692" lon="1.91818">
        <ele>544.6</ele>
        <time>2022-08-05T05:48:11Z</time>
      </trkpt>
      <trkpt lat="45.40691" lon="1.91823">
        <ele>545.1</ele>
        <time>2022-08-05T05:48:13Z</time>
      </trkpt>
      <trkpt lat="45.40689" lon="1.91828">
        <ele>545.7</ele>
        <time>2022-08-05T05:48:15Z</time>
      </trkpt>
      <trkpt lat="45.40687" lon="1.91832">
        <ele>546.2</ele>
        <time>2022-08-05T05:48:17Z</time>
      </trkpt>
      <trkpt lat="45.40686" lon="1.91837">
        <ele>546.3</ele>
        <time>2022-08-05T05:48:19Z</time>
      </trkpt>
      <trkpt lat="45.40684" lon="1.91842">
        <ele>546.3</ele>
        <time>2022-08-05T05:48:21Z</time>
      </trkpt>
      <trkpt lat="45.40683" lon="1.91847">
        <ele>546.4</ele>
        <time>2022-08-05T05:48:23Z</time>
      </trkpt>
      <trkpt lat="45.40681" lon="1.91853">
        <ele>546.4</ele>
        <time>2022-08-05T05:48:25Z</time>
      </trkpt>
      <trkpt lat="45.40679" lon="1.91858">
        <ele>546.5</ele>
        <time>2022-08-05T05:48:27Z</time>
      </trkpt>
      <trkpt lat="45.40677" lon="1.91863">
        <ele>546.6</ele>
        <time>2022-08-05T05:48:29Z</time>
      </trkpt>
      <trkpt lat="45.40675" lon="1.91868">
        <ele>546.7</ele>
        <time>2022-08-05T05:48:31Z</time>
      </trkpt>
      <trkpt lat="45.40672" lon="1.91873">
        <ele>546.8</ele>
        <time>2022-08-05T05:48:33Z</time>
      </trkpt>
      <trkpt lat="45.40669" lon="1.91877">
        <ele>546.9</ele>
        <time>2022-08-05T05:48:35Z</time>
      </trkpt>
      <trkpt lat="45.40666" lon="1.91882">
        <ele>547</ele>
        <time>2022-08-05T05:48:37Z</time>
      </trkpt>
      <trkpt lat="45.40663" lon="1.91886">
        <ele>547.4</ele>
        <time>2022-08-05T05:48:39Z</time>
      </trkpt>
      <trkpt lat="45.4066" lon="1.91889">
        <ele>547.8</ele>
        <time>2022-08-05T05:48:41Z</time>
      </trkpt>
      <trkpt lat="45.40657" lon="1.91893">
        <ele>548.2</ele>
        <time>2022-08-05T05:48:43Z</time>
      </trkpt>
      <trkpt lat="45.40654" lon="1.91896">
        <ele>548.6</ele>
        <time>2022-08-05T05:48:45Z</time>
      </trkpt>
      <trkpt lat="45.4065" lon="1.91899">
        <ele>549.1</ele>
        <time>2022-08-05T05:48:47Z</time>
      </trkpt>
      <trkpt lat="45.40647" lon="1.91903">
        <ele>549.5</ele>
        <time>2022-08-05T05:48:49Z</time>
      </trkpt>
      <trkpt lat="45.40644" lon="1.91906">
        <ele>549.9</ele>
        <time>2022-08-05T05:48:51Z</time>
      </trkpt>
      <trkpt lat="45.40641" lon="1.9191">
        <ele>550.4</ele>
        <time>2022-08-05T05:48:53Z</time>
      </trkpt>
      <trkpt lat="45.40638" lon="1.91913">
        <ele>550.8</ele>
        <time>2022-08-05T05:48:55Z</time>
      </trkpt>
      <trkpt lat="45.40635" lon="1.91917">
        <ele>551.2</ele>
        <time>2022-08-05T05:48:57Z</time>
      </trkpt>
      <trkpt lat="45.40632" lon="1.9192">
        <ele>551.4</ele>
        <time>2022-08-05T05:48:59Z</time>
      </trkpt>
      <trkpt lat="45.40629" lon="1.91923">
        <ele>551.7</ele>
        <time>2022-08-05T05:49:01Z</time>
      </trkpt>
      <trkpt lat="45.40626" lon="1.91926">
        <ele>551.9</ele>
        <time>2022-08-05T05:49:03Z</time>
      </trkpt>
      <trkpt lat="45.40623" lon="1.91929">
        <ele>552.1</ele>
        <time>2022-08-05T05:49:05Z</time>
      </trkpt>
      <trkpt lat="45.4062" lon="1.91932">
        <ele>552.3</ele>
        <time>2022-08-05T05:49:07Z</time>
      </trkpt>
      <trkpt lat="45.40618" lon="1.91935">
        <ele>552.5</ele>
        <time>2022-08-05T05:49:09Z</time>
      </trkpt>
      <trkpt lat="45.40615" lon="1.91938">
        <ele>552.6</ele>
        <time>2022-08-05T05:49:11Z</time>
      </trkpt>
      <trkpt lat="45.40612" lon="1.9194">
        <ele>552.9</ele>
        <time>2022-08-05T05:49:13Z</time>
      </trkpt>
      <trkpt lat="45.4061" lon="1.91943">
        <ele>553</ele>
        <time>2022-08-05T05:49:15Z</time>
      </trkpt>
      <trkpt lat="45.40607" lon="1.91946">
        <ele>553.2</ele>
        <time>2022-08-05T05:49:17Z</time>
      </trkpt>
      <trkpt lat="45.40605" lon="1.91949">
        <ele>553.3</ele>
        <time>2022-08-05T05:49:19Z</time>
      </trkpt>
      <trkpt lat="45.40602" lon="1.91951">
        <ele>553.6</ele>
        <time>2022-08-05T05:49:21Z</time>
      </trkpt>
      <trkpt lat="45.406" lon="1.91954">
        <ele>553.7</ele>
        <time>2022-08-05T05:49:23Z</time>
      </trkpt>
      <trkpt lat="45.40597" lon="1.91957">
        <ele>553.8</ele>
        <time>2022-08-05T05:49:25Z</time>
      </trkpt>
      <trkpt lat="45.40595" lon="1.9196">
        <ele>553.9</ele>
        <time>2022-08-05T05:49:27Z</time>
      </trkpt>
      <trkpt lat="45.40592" lon="1.91962">
        <ele>554.1</ele>
        <time>2022-08-05T05:49:29Z</time>
      </trkpt>
      <trkpt lat="45.4059" lon="1.91965">
        <ele>554.3</ele>
        <time>2022-08-05T05:49:31Z</time>
      </trkpt>
      <trkpt lat="45.40587" lon="1.91968">
        <ele>554.4</ele>
        <time>2022-08-05T05:49:33Z</time>
      </trkpt>
      <trkpt lat="45.40585" lon="1.91971">
        <ele>554.5</ele>
        <time>2022-08-05T05:49:35Z</time>
      </trkpt>
      <trkpt lat="45.40583" lon="1.91974">
        <ele>554.6</ele>
        <time>2022-08-05T05:49:37Z</time>
      </trkpt>
      <trkpt lat="45.4058" lon="1.91977">
        <ele>554.5</ele>
        <time>2022-08-05T05:49:39Z</time>
      </trkpt>
      <trkpt lat="45.40577" lon="1.9198">
        <ele>554.4</ele>
        <time>2022-08-05T05:49:41Z</time>
      </trkpt>
      <trkpt lat="45.40574" lon="1.91982">
        <ele>554.4</ele>
        <time>2022-08-05T05:49:43Z</time>
      </trkpt>
      <trkpt lat="45.40571" lon="1.91984">
        <ele>554.4</ele>
        <time>2022-08-05T05:49:45Z</time>
      </trkpt>
      <trkpt lat="45.40567" lon="1.91987">
        <ele>554.4</ele>
        <time>2022-08-05T05:49:47Z</time>
      </trkpt>
      <trkpt lat="45.40564" lon="1.91989">
        <ele>554.4</ele>
        <time>2022-08-05T05:49:49Z</time>
      </trkpt>
      <trkpt lat="45.4056" lon="1.9199">
        <ele>554.4</ele>
        <time>2022-08-05T05:49:51Z</time>
      </trkpt>
      <trkpt lat="45.40556" lon="1.91991">
        <ele>554.5</ele>
        <time>2022-08-05T05:49:53Z</time>
      </trkpt>
      <trkpt lat="45.40553" lon="1.91992">
        <ele>554.5</ele>
        <time>2022-08-05T05:49:55Z</time>
      </trkpt>
      <trkpt lat="45.40548" lon="1.91994">
        <ele>554.6</ele>
        <time>2022-08-05T05:49:57Z</time>
      </trkpt>
      <trkpt lat="45.40544" lon="1.91995">
        <ele>554.7</ele>
        <time>2022-08-05T05:49:59Z</time>
      </trkpt>
      <trkpt lat="45.4054" lon="1.91995">
        <ele>554.8</ele>
        <time>2022-08-05T05:50:01Z</time>
      </trkpt>
      <trkpt lat="45.40536" lon="1.91996">
        <ele>554.9</ele>
        <time>2022-08-05T05:50:03Z</time>
      </trkpt>
      <trkpt lat="45.40532" lon="1.91997">
        <ele>555</ele>
        <time>2022-08-05T05:50:05Z</time>
      </trkpt>
      <trkpt lat="45.40528" lon="1.91998">
        <ele>555.1</ele>
        <time>2022-08-05T05:50:07Z</time>
      </trkpt>
      <trkpt lat="45.40523" lon="1.91999">
        <ele>555.2</ele>
        <time>2022-08-05T05:50:09Z</time>
      </trkpt>
      <trkpt lat="45.40519" lon="1.91999">
        <ele>555.4</ele>
        <time>2022-08-05T05:50:11Z</time>
      </trkpt>
      <trkpt lat="45.40514" lon="1.92">
        <ele>555.5</ele>
        <time>2022-08-05T05:50:13Z</time>
      </trkpt>
      <trkpt lat="45.40509" lon="1.92001">
        <ele>555.6</ele>
        <time>2022-08-05T05:50:15Z</time>
      </trkpt>
      <trkpt lat="45.40505" lon="1.92002">
        <ele>555.7</ele>
        <time>2022-08-05T05:50:17Z</time>
      </trkpt>
      <trkpt lat="45.405" lon="1.92004">
        <ele>555.9</ele>
        <time>2022-08-05T05:50:19Z</time>
      </trkpt>
      <trkpt lat="45.40495" lon="1.92005">
        <ele>556</ele>
        <time>2022-08-05T05:50:21Z</time>
      </trkpt>
      <trkpt lat="45.40491" lon="1.92007">
        <ele>556.1</ele>
        <time>2022-08-05T05:50:23Z</time>
      </trkpt>
      <trkpt lat="45.40486" lon="1.92009">
        <ele>556.3</ele>
        <time>2022-08-05T05:50:25Z</time>
      </trkpt>
      <trkpt lat="45.40482" lon="1.92011">
        <ele>556.4</ele>
        <time>2022-08-05T05:50:27Z</time>
      </trkpt>
      <trkpt lat="45.40478" lon="1.92014">
        <ele>556.6</ele>
        <time>2022-08-05T05:50:29Z</time>
      </trkpt>
      <trkpt lat="45.40474" lon="1.92017">
        <ele>556.7</ele>
        <time>2022-08-05T05:50:31Z</time>
      </trkpt>
      <trkpt lat="45.4047" lon="1.92019">
        <ele>556.9</ele>
        <time>2022-08-05T05:50:33Z</time>
      </trkpt>
      <trkpt lat="45.40466" lon="1.92024">
        <ele>557</ele>
        <time>2022-08-05T05:50:35Z</time>
      </trkpt>
      <trkpt lat="45.40463" lon="1.92028">
        <ele>557.2</ele>
        <time>2022-08-05T05:50:37Z</time>
      </trkpt>
      <trkpt lat="45.4046" lon="1.92033">
        <ele>557.4</ele>
        <time>2022-08-05T05:50:39Z</time>
      </trkpt>
      <trkpt lat="45.40458" lon="1.92039">
        <ele>557.5</ele>
        <time>2022-08-05T05:50:41Z</time>
      </trkpt>
      <trkpt lat="45.40456" lon="1.92044">
        <ele>557.7</ele>
        <time>2022-08-05T05:50:43Z</time>
      </trkpt>
      <trkpt lat="45.40455" lon="1.92051">
        <ele>557.8</ele>
        <time>2022-08-05T05:50:45Z</time>
      </trkpt>
      <trkpt lat="45.40454" lon="1.92056">
        <ele>557.9</ele>
        <time>2022-08-05T05:50:47Z</time>
      </trkpt>
      <trkpt lat="45.40453" lon="1.92061">
        <ele>558</ele>
        <time>2022-08-05T05:50:49Z</time>
      </trkpt>
      <trkpt lat="45.40452" lon="1.92066">
        <ele>558.1</ele>
        <time>2022-08-05T05:50:51Z</time>
      </trkpt>
      <trkpt lat="45.4045" lon="1.92071">
        <ele>558.3</ele>
        <time>2022-08-05T05:50:53Z</time>
      </trkpt>
      <trkpt lat="45.40449" lon="1.92076">
        <ele>558.5</ele>
        <time>2022-08-05T05:50:55Z</time>
      </trkpt>
      <trkpt lat="45.40448" lon="1.9208">
        <ele>558.6</ele>
        <time>2022-08-05T05:50:57Z</time>
      </trkpt>
      <trkpt lat="45.40447" lon="1.92085">
        <ele>558.6</ele>
        <time>2022-08-05T05:50:59Z</time>
      </trkpt>
      <trkpt lat="45.40449" lon="1.92088">
        <ele>558.2</ele>
        <time>2022-08-05T05:51:01Z</time>
      </trkpt>
      <trkpt lat="45.40447" lon="1.9209">
        <ele>558.2</ele>
        <time>2022-08-05T05:51:03Z</time>
      </trkpt>
      <trkpt lat="45.40444" lon="1.92094">
        <ele>558.3</ele>
        <time>2022-08-05T05:51:05Z</time>
      </trkpt>
      <trkpt lat="45.40442" lon="1.92098">
        <ele>558.4</ele>
        <time>2022-08-05T05:51:07Z</time>
      </trkpt>
      <trkpt lat="45.40442" lon="1.921">
        <ele>558.2</ele>
        <time>2022-08-05T05:51:09Z</time>
      </trkpt>
      <trkpt lat="45.40443" lon="1.921">
        <ele>558.2</ele>
        <time>2022-08-05T05:51:11Z</time>
      </trkpt>
      <trkpt lat="45.40443" lon="1.921">
        <ele>558.1</ele>
        <time>2022-08-05T05:51:13Z</time>
      </trkpt>
      <trkpt lat="45.40443" lon="1.921">
        <ele>558.1</ele>
        <time>2022-08-05T05:51:15Z</time>
      </trkpt>
      <trkpt lat="45.40443" lon="1.921">
        <ele>558.1</ele>
        <time>2022-08-05T05:51:17Z</time>
      </trkpt>
      <trkpt lat="45.40432" lon="1.92101">
        <ele>559.2</ele>
        <time>2022-08-05T05:53:07Z</time>
      </trkpt>
      <trkpt lat="45.40428" lon="1.92104">
        <ele>559.3</ele>
        <time>2022-08-05T05:53:09Z</time>
      </trkpt>
      <trkpt lat="45.40425" lon="1.92107">
        <ele>559.4</ele>
        <time>2022-08-05T05:53:11Z</time>
      </trkpt>
      <trkpt lat="45.40422" lon="1.9211">
        <ele>559.6</ele>
        <time>2022-08-05T05:53:13Z</time>
      </trkpt>
      <trkpt lat="45.40419" lon="1.92112">
        <ele>559.8</ele>
        <time>2022-08-05T05:53:15Z</time>
      </trkpt>
      <trkpt lat="45.40415" lon="1.92114">
        <ele>559.8</ele>
        <time>2022-08-05T05:53:17Z</time>
      </trkpt>
      <trkpt lat="45.40411" lon="1.92116">
        <ele>559.8</ele>
        <time>2022-08-05T05:53:19Z</time>
      </trkpt>
      <trkpt lat="45.40408" lon="1.92119">
        <ele>559.7</ele>
        <time>2022-08-05T05:53:21Z</time>
      </trkpt>
      <trkpt lat="45.40404" lon="1.92121">
        <ele>559.6</ele>
        <time>2022-08-05T05:53:23Z</time>
      </trkpt>
      <trkpt lat="45.40401" lon="1.92124">
        <ele>559.5</ele>
        <time>2022-08-05T05:53:25Z</time>
      </trkpt>
      <trkpt lat="45.40398" lon="1.92126">
        <ele>559.5</ele>
        <time>2022-08-05T05:53:27Z</time>
      </trkpt>
      <trkpt lat="45.40394" lon="1.92127">
        <ele>559.5</ele>
        <time>2022-08-05T05:53:29Z</time>
      </trkpt>
      <trkpt lat="45.40389" lon="1.9213">
        <ele>559.5</ele>
        <time>2022-08-05T05:53:31Z</time>
      </trkpt>
      <trkpt lat="45.40385" lon="1.92133">
        <ele>559.5</ele>
        <time>2022-08-05T05:53:33Z</time>
      </trkpt>
      <trkpt lat="45.40381" lon="1.92134">
        <ele>559.5</ele>
        <time>2022-08-05T05:53:35Z</time>
      </trkpt>
      <trkpt lat="45.40377" lon="1.92137">
        <ele>559.6</ele>
        <time>2022-08-05T05:53:37Z</time>
      </trkpt>
      <trkpt lat="45.40373" lon="1.92139">
        <ele>559.6</ele>
        <time>2022-08-05T05:53:39Z</time>
      </trkpt>
      <trkpt lat="45.40369" lon="1.92142">
        <ele>559.6</ele>
        <time>2022-08-05T05:53:41Z</time>
      </trkpt>
      <trkpt lat="45.40365" lon="1.92144">
        <ele>559.6</ele>
        <time>2022-08-05T05:53:43Z</time>
      </trkpt>
      <trkpt lat="45.40361" lon="1.92147">
        <ele>559.6</ele>
        <time>2022-08-05T05:53:45Z</time>
      </trkpt>
      <trkpt lat="45.40357" lon="1.9215">
        <ele>559.7</ele>
        <time>2022-08-05T05:53:47Z</time>
      </trkpt>
      <trkpt lat="45.40353" lon="1.92152">
        <ele>559.7</ele>
        <time>2022-08-05T05:53:49Z</time>
      </trkpt>
      <trkpt lat="45.40349" lon="1.92156">
        <ele>559.7</ele>
        <time>2022-08-05T05:53:51Z</time>
      </trkpt>
      <trkpt lat="45.40346" lon="1.92159">
        <ele>559.7</ele>
        <time>2022-08-05T05:53:53Z</time>
      </trkpt>
      <trkpt lat="45.40343" lon="1.92162">
        <ele>559.7</ele>
        <time>2022-08-05T05:53:55Z</time>
      </trkpt>
      <trkpt lat="45.4034" lon="1.92165">
        <ele>559.8</ele>
        <time>2022-08-05T05:53:57Z</time>
      </trkpt>
      <trkpt lat="45.40337" lon="1.92168">
        <ele>559.8</ele>
        <time>2022-08-05T05:53:59Z</time>
      </trkpt>
      <trkpt lat="45.40334" lon="1.92171">
        <ele>559.8</ele>
        <time>2022-08-05T05:54:01Z</time>
      </trkpt>
      <trkpt lat="45.4033" lon="1.92174">
        <ele>559.7</ele>
        <time>2022-08-05T05:54:03Z</time>
      </trkpt>
      <trkpt lat="45.40327" lon="1.92177">
        <ele>559.7</ele>
        <time>2022-08-05T05:54:05Z</time>
      </trkpt>
      <trkpt lat="45.40325" lon="1.92181">
        <ele>559.6</ele>
        <time>2022-08-05T05:54:07Z</time>
      </trkpt>
      <trkpt lat="45.40322" lon="1.92184">
        <ele>559.6</ele>
        <time>2022-08-05T05:54:09Z</time>
      </trkpt>
      <trkpt lat="45.40319" lon="1.92187">
        <ele>559.6</ele>
        <time>2022-08-05T05:54:11Z</time>
      </trkpt>
      <trkpt lat="45.40317" lon="1.92191">
        <ele>559.5</ele>
        <time>2022-08-05T05:54:13Z</time>
      </trkpt>
      <trkpt lat="45.40314" lon="1.92195">
        <ele>559.5</ele>
        <time>2022-08-05T05:54:15Z</time>
      </trkpt>
      <trkpt lat="45.40311" lon="1.92198">
        <ele>559.6</ele>
        <time>2022-08-05T05:54:17Z</time>
      </trkpt>
      <trkpt lat="45.40308" lon="1.92201">
        <ele>559.6</ele>
        <time>2022-08-05T05:54:19Z</time>
      </trkpt>
      <trkpt lat="45.40304" lon="1.92204">
        <ele>559.7</ele>
        <time>2022-08-05T05:54:21Z</time>
      </trkpt>
      <trkpt lat="45.40301" lon="1.92208">
        <ele>559.7</ele>
        <time>2022-08-05T05:54:23Z</time>
      </trkpt>
      <trkpt lat="45.40298" lon="1.92211">
        <ele>559.9</ele>
        <time>2022-08-05T05:54:25Z</time>
      </trkpt>
      <trkpt lat="45.40294" lon="1.92214">
        <ele>560</ele>
        <time>2022-08-05T05:54:27Z</time>
      </trkpt>
      <trkpt lat="45.4029" lon="1.92217">
        <ele>560.2</ele>
        <time>2022-08-05T05:54:29Z</time>
      </trkpt>
      <trkpt lat="45.40287" lon="1.92219">
        <ele>560.4</ele>
        <time>2022-08-05T05:54:31Z</time>
      </trkpt>
      <trkpt lat="45.40283" lon="1.92223">
        <ele>560.6</ele>
        <time>2022-08-05T05:54:33Z</time>
      </trkpt>
      <trkpt lat="45.40279" lon="1.92225">
        <ele>560.8</ele>
        <time>2022-08-05T05:54:35Z</time>
      </trkpt>
      <trkpt lat="45.40275" lon="1.92228">
        <ele>561</ele>
        <time>2022-08-05T05:54:37Z</time>
      </trkpt>
      <trkpt lat="45.40271" lon="1.92232">
        <ele>561.3</ele>
        <time>2022-08-05T05:54:39Z</time>
      </trkpt>
      <trkpt lat="45.40267" lon="1.92236">
        <ele>561.6</ele>
        <time>2022-08-05T05:54:41Z</time>
      </trkpt>
      <trkpt lat="45.40264" lon="1.9224">
        <ele>561.8</ele>
        <time>2022-08-05T05:54:43Z</time>
      </trkpt>
      <trkpt lat="45.40261" lon="1.92244">
        <ele>562.1</ele>
        <time>2022-08-05T05:54:45Z</time>
      </trkpt>
      <trkpt lat="45.40257" lon="1.92249">
        <ele>562.4</ele>
        <time>2022-08-05T05:54:47Z</time>
      </trkpt>
      <trkpt lat="45.40254" lon="1.92253">
        <ele>562.6</ele>
        <time>2022-08-05T05:54:49Z</time>
      </trkpt>
      <trkpt lat="45.4025" lon="1.92257">
        <ele>562.8</ele>
        <time>2022-08-05T05:54:51Z</time>
      </trkpt>
      <trkpt lat="45.40247" lon="1.92262">
        <ele>562.7</ele>
        <time>2022-08-05T05:54:53Z</time>
      </trkpt>
      <trkpt lat="45.40244" lon="1.92267">
        <ele>562.5</ele>
        <time>2022-08-05T05:54:55Z</time>
      </trkpt>
      <trkpt lat="45.40241" lon="1.92272">
        <ele>562.3</ele>
        <time>2022-08-05T05:54:57Z</time>
      </trkpt>
      <trkpt lat="45.40238" lon="1.92277">
        <ele>562.2</ele>
        <time>2022-08-05T05:54:59Z</time>
      </trkpt>
      <trkpt lat="45.40235" lon="1.92283">
        <ele>562.1</ele>
        <time>2022-08-05T05:55:01Z</time>
      </trkpt>
      <trkpt lat="45.40232" lon="1.92288">
        <ele>562</ele>
        <time>2022-08-05T05:55:03Z</time>
      </trkpt>
      <trkpt lat="45.40229" lon="1.92294">
        <ele>561.8</ele>
        <time>2022-08-05T05:55:05Z</time>
      </trkpt>
      <trkpt lat="45.40226" lon="1.92299">
        <ele>561.8</ele>
        <time>2022-08-05T05:55:07Z</time>
      </trkpt>
      <trkpt lat="45.40223" lon="1.92305">
        <ele>561.7</ele>
        <time>2022-08-05T05:55:09Z</time>
      </trkpt>
      <trkpt lat="45.4022" lon="1.92311">
        <ele>561.6</ele>
        <time>2022-08-05T05:55:11Z</time>
      </trkpt>
      <trkpt lat="45.40217" lon="1.92317">
        <ele>561.6</ele>
        <time>2022-08-05T05:55:13Z</time>
      </trkpt>
      <trkpt lat="45.40214" lon="1.92322">
        <ele>561.5</ele>
        <time>2022-08-05T05:55:15Z</time>
      </trkpt>
      <trkpt lat="45.40211" lon="1.92328">
        <ele>561.5</ele>
        <time>2022-08-05T05:55:17Z</time>
      </trkpt>
      <trkpt lat="45.40208" lon="1.92333">
        <ele>561.5</ele>
        <time>2022-08-05T05:55:19Z</time>
      </trkpt>
      <trkpt lat="45.40205" lon="1.92339">
        <ele>561.7</ele>
        <time>2022-08-05T05:55:21Z</time>
      </trkpt>
      <trkpt lat="45.40203" lon="1.92345">
        <ele>562</ele>
        <time>2022-08-05T05:55:23Z</time>
      </trkpt>
      <trkpt lat="45.402" lon="1.9235">
        <ele>562.3</ele>
        <time>2022-08-05T05:55:25Z</time>
      </trkpt>
      <trkpt lat="45.40197" lon="1.92356">
        <ele>562.5</ele>
        <time>2022-08-05T05:55:27Z</time>
      </trkpt>
      <trkpt lat="45.40193" lon="1.92361">
        <ele>562.8</ele>
        <time>2022-08-05T05:55:29Z</time>
      </trkpt>
      <trkpt lat="45.40191" lon="1.92366">
        <ele>563.1</ele>
        <time>2022-08-05T05:55:31Z</time>
      </trkpt>
      <trkpt lat="45.40188" lon="1.92372">
        <ele>563.4</ele>
        <time>2022-08-05T05:55:33Z</time>
      </trkpt>
      <trkpt lat="45.40185" lon="1.92377">
        <ele>563.6</ele>
        <time>2022-08-05T05:55:35Z</time>
      </trkpt>
      <trkpt lat="45.40182" lon="1.92382">
        <ele>563.9</ele>
        <time>2022-08-05T05:55:37Z</time>
      </trkpt>
      <trkpt lat="45.4018" lon="1.92387">
        <ele>564.2</ele>
        <time>2022-08-05T05:55:39Z</time>
      </trkpt>
      <trkpt lat="45.40177" lon="1.92392">
        <ele>564.5</ele>
        <time>2022-08-05T05:55:41Z</time>
      </trkpt>
      <trkpt lat="45.40174" lon="1.92397">
        <ele>564.8</ele>
        <time>2022-08-05T05:55:43Z</time>
      </trkpt>
      <trkpt lat="45.40171" lon="1.92401">
        <ele>565.1</ele>
        <time>2022-08-05T05:55:45Z</time>
      </trkpt>
      <trkpt lat="45.40169" lon="1.92407">
        <ele>565.4</ele>
        <time>2022-08-05T05:55:47Z</time>
      </trkpt>
      <trkpt lat="45.40166" lon="1.92411">
        <ele>565.7</ele>
        <time>2022-08-05T05:55:49Z</time>
      </trkpt>
      <trkpt lat="45.40164" lon="1.92416">
        <ele>566</ele>
        <time>2022-08-05T05:55:51Z</time>
      </trkpt>
      <trkpt lat="45.40161" lon="1.92421">
        <ele>566.4</ele>
        <time>2022-08-05T05:55:53Z</time>
      </trkpt>
      <trkpt lat="45.40159" lon="1.92426">
        <ele>566.8</ele>
        <time>2022-08-05T05:55:55Z</time>
      </trkpt>
      <trkpt lat="45.40156" lon="1.92431">
        <ele>567.1</ele>
        <time>2022-08-05T05:55:57Z</time>
      </trkpt>
      <trkpt lat="45.40154" lon="1.92436">
        <ele>567.5</ele>
        <time>2022-08-05T05:55:59Z</time>
      </trkpt>
      <trkpt lat="45.40151" lon="1.9244">
        <ele>567.9</ele>
        <time>2022-08-05T05:56:01Z</time>
      </trkpt>
      <trkpt lat="45.40149" lon="1.92445">
        <ele>568.2</ele>
        <time>2022-08-05T05:56:03Z</time>
      </trkpt>
      <trkpt lat="45.40146" lon="1.9245">
        <ele>568.6</ele>
        <time>2022-08-05T05:56:05Z</time>
      </trkpt>
      <trkpt lat="45.40144" lon="1.92454">
        <ele>568.9</ele>
        <time>2022-08-05T05:56:07Z</time>
      </trkpt>
      <trkpt lat="45.40141" lon="1.92459">
        <ele>569.2</ele>
        <time>2022-08-05T05:56:09Z</time>
      </trkpt>
      <trkpt lat="45.40139" lon="1.92464">
        <ele>569.6</ele>
        <time>2022-08-05T05:56:11Z</time>
      </trkpt>
      <trkpt lat="45.40136" lon="1.92467">
        <ele>569.8</ele>
        <time>2022-08-05T05:56:13Z</time>
      </trkpt>
      <trkpt lat="45.40135" lon="1.92472">
        <ele>570.2</ele>
        <time>2022-08-05T05:56:15Z</time>
      </trkpt>
      <trkpt lat="45.40132" lon="1.92477">
        <ele>570.5</ele>
        <time>2022-08-05T05:56:17Z</time>
      </trkpt>
      <trkpt lat="45.40129" lon="1.92481">
        <ele>570.7</ele>
        <time>2022-08-05T05:56:19Z</time>
      </trkpt>
      <trkpt lat="45.40127" lon="1.92485">
        <ele>571</ele>
        <time>2022-08-05T05:56:21Z</time>
      </trkpt>
      <trkpt lat="45.40124" lon="1.92489">
        <ele>571.2</ele>
        <time>2022-08-05T05:56:23Z</time>
      </trkpt>
      <trkpt lat="45.40122" lon="1.92493">
        <ele>571.5</ele>
        <time>2022-08-05T05:56:25Z</time>
      </trkpt>
      <trkpt lat="45.4012" lon="1.92498">
        <ele>571.7</ele>
        <time>2022-08-05T05:56:27Z</time>
      </trkpt>
      <trkpt lat="45.40117" lon="1.92502">
        <ele>572</ele>
        <time>2022-08-05T05:56:29Z</time>
      </trkpt>
      <trkpt lat="45.40115" lon="1.92506">
        <ele>572.3</ele>
        <time>2022-08-05T05:56:31Z</time>
      </trkpt>
      <trkpt lat="45.40113" lon="1.92511">
        <ele>572.6</ele>
        <time>2022-08-05T05:56:33Z</time>
      </trkpt>
      <trkpt lat="45.4011" lon="1.92515">
        <ele>572.8</ele>
        <time>2022-08-05T05:56:35Z</time>
      </trkpt>
      <trkpt lat="45.40108" lon="1.92519">
        <ele>573.1</ele>
        <time>2022-08-05T05:56:37Z</time>
      </trkpt>
      <trkpt lat="45.40107" lon="1.92524">
        <ele>573.4</ele>
        <time>2022-08-05T05:56:39Z</time>
      </trkpt>
      <trkpt lat="45.40105" lon="1.92528">
        <ele>573.7</ele>
        <time>2022-08-05T05:56:41Z</time>
      </trkpt>
      <trkpt lat="45.40104" lon="1.92533">
        <ele>574</ele>
        <time>2022-08-05T05:56:43Z</time>
      </trkpt>
      <trkpt lat="45.40101" lon="1.92537">
        <ele>574.3</ele>
        <time>2022-08-05T05:56:45Z</time>
      </trkpt>
      <trkpt lat="45.401" lon="1.92542">
        <ele>574.6</ele>
        <time>2022-08-05T05:56:47Z</time>
      </trkpt>
      <trkpt lat="45.40099" lon="1.92547">
        <ele>574.9</ele>
        <time>2022-08-05T05:56:49Z</time>
      </trkpt>
      <trkpt lat="45.40097" lon="1.92551">
        <ele>575.2</ele>
        <time>2022-08-05T05:56:51Z</time>
      </trkpt>
      <trkpt lat="45.40095" lon="1.92555">
        <ele>575.4</ele>
        <time>2022-08-05T05:56:53Z</time>
      </trkpt>
      <trkpt lat="45.40093" lon="1.9256">
        <ele>575.7</ele>
        <time>2022-08-05T05:56:55Z</time>
      </trkpt>
      <trkpt lat="45.40091" lon="1.92565">
        <ele>576</ele>
        <time>2022-08-05T05:56:57Z</time>
      </trkpt>
      <trkpt lat="45.40089" lon="1.9257">
        <ele>576.3</ele>
        <time>2022-08-05T05:56:59Z</time>
      </trkpt>
      <trkpt lat="45.40087" lon="1.92575">
        <ele>576.6</ele>
        <time>2022-08-05T05:57:01Z</time>
      </trkpt>
      <trkpt lat="45.40086" lon="1.92579">
        <ele>576.8</ele>
        <time>2022-08-05T05:57:03Z</time>
      </trkpt>
      <trkpt lat="45.40084" lon="1.92583">
        <ele>577</ele>
        <time>2022-08-05T05:57:05Z</time>
      </trkpt>
      <trkpt lat="45.40083" lon="1.92588">
        <ele>577.4</ele>
        <time>2022-08-05T05:57:07Z</time>
      </trkpt>
      <trkpt lat="45.40081" lon="1.92592">
        <ele>577.8</ele>
        <time>2022-08-05T05:57:09Z</time>
      </trkpt>
      <trkpt lat="45.4008" lon="1.92596">
        <ele>578.2</ele>
        <time>2022-08-05T05:57:11Z</time>
      </trkpt>
      <trkpt lat="45.40078" lon="1.926">
        <ele>578.6</ele>
        <time>2022-08-05T05:57:13Z</time>
      </trkpt>
      <trkpt lat="45.40077" lon="1.92605">
        <ele>579</ele>
        <time>2022-08-05T05:57:15Z</time>
      </trkpt>
      <trkpt lat="45.40075" lon="1.92609">
        <ele>579.3</ele>
        <time>2022-08-05T05:57:17Z</time>
      </trkpt>
      <trkpt lat="45.40073" lon="1.92613">
        <ele>579.6</ele>
        <time>2022-08-05T05:57:19Z</time>
      </trkpt>
      <trkpt lat="45.40072" lon="1.92617">
        <ele>579.9</ele>
        <time>2022-08-05T05:57:21Z</time>
      </trkpt>
      <trkpt lat="45.4007" lon="1.92621">
        <ele>580.2</ele>
        <time>2022-08-05T05:57:23Z</time>
      </trkpt>
      <trkpt lat="45.40068" lon="1.92625">
        <ele>580.5</ele>
        <time>2022-08-05T05:57:25Z</time>
      </trkpt>
      <trkpt lat="45.40067" lon="1.9263">
        <ele>580.9</ele>
        <time>2022-08-05T05:57:27Z</time>
      </trkpt>
      <trkpt lat="45.40065" lon="1.92634">
        <ele>581.1</ele>
        <time>2022-08-05T05:57:29Z</time>
      </trkpt>
      <trkpt lat="45.40064" lon="1.92639">
        <ele>581.5</ele>
        <time>2022-08-05T05:57:31Z</time>
      </trkpt>
      <trkpt lat="45.40062" lon="1.92644">
        <ele>581.8</ele>
        <time>2022-08-05T05:57:33Z</time>
      </trkpt>
      <trkpt lat="45.40061" lon="1.92649">
        <ele>582.3</ele>
        <time>2022-08-05T05:57:35Z</time>
      </trkpt>
      <trkpt lat="45.40061" lon="1.92654">
        <ele>582.7</ele>
        <time>2022-08-05T05:57:37Z</time>
      </trkpt>
      <trkpt lat="45.4006" lon="1.92659">
        <ele>583.1</ele>
        <time>2022-08-05T05:57:39Z</time>
      </trkpt>
      <trkpt lat="45.40059" lon="1.92664">
        <ele>583.4</ele>
        <time>2022-08-05T05:57:41Z</time>
      </trkpt>
      <trkpt lat="45.40058" lon="1.92668">
        <ele>583.7</ele>
        <time>2022-08-05T05:57:43Z</time>
      </trkpt>
      <trkpt lat="45.40058" lon="1.92672">
        <ele>584</ele>
        <time>2022-08-05T05:57:45Z</time>
      </trkpt>
      <trkpt lat="45.40058" lon="1.92677">
        <ele>584.3</ele>
        <time>2022-08-05T05:57:47Z</time>
      </trkpt>
      <trkpt lat="45.40058" lon="1.92682">
        <ele>584.6</ele>
        <time>2022-08-05T05:57:49Z</time>
      </trkpt>
      <trkpt lat="45.40058" lon="1.92687">
        <ele>585</ele>
        <time>2022-08-05T05:57:51Z</time>
      </trkpt>
      <trkpt lat="45.40058" lon="1.92692">
        <ele>585.3</ele>
        <time>2022-08-05T05:57:53Z</time>
      </trkpt>
      <trkpt lat="45.40058" lon="1.92696">
        <ele>585.6</ele>
        <time>2022-08-05T05:57:55Z</time>
      </trkpt>
      <trkpt lat="45.40058" lon="1.92701">
        <ele>586</ele>
        <time>2022-08-05T05:57:57Z</time>
      </trkpt>
      <trkpt lat="45.40059" lon="1.92706">
        <ele>586.4</ele>
        <time>2022-08-05T05:57:59Z</time>
      </trkpt>
      <trkpt lat="45.40059" lon="1.92711">
        <ele>586.7</ele>
        <time>2022-08-05T05:58:01Z</time>
      </trkpt>
      <trkpt lat="45.4006" lon="1.92716">
        <ele>587.1</ele>
        <time>2022-08-05T05:58:03Z</time>
      </trkpt>
      <trkpt lat="45.40061" lon="1.92721">
        <ele>587.6</ele>
        <time>2022-08-05T05:58:05Z</time>
      </trkpt>
      <trkpt lat="45.40061" lon="1.92726">
        <ele>587.9</ele>
        <time>2022-08-05T05:58:07Z</time>
      </trkpt>
      <trkpt lat="45.40062" lon="1.92731">
        <ele>588.4</ele>
        <time>2022-08-05T05:58:09Z</time>
      </trkpt>
      <trkpt lat="45.40063" lon="1.92736">
        <ele>588.8</ele>
        <time>2022-08-05T05:58:11Z</time>
      </trkpt>
      <trkpt lat="45.40063" lon="1.9274">
        <ele>589.2</ele>
        <time>2022-08-05T05:58:13Z</time>
      </trkpt>
      <trkpt lat="45.40064" lon="1.92745">
        <ele>589.6</ele>
        <time>2022-08-05T05:58:15Z</time>
      </trkpt>
      <trkpt lat="45.40066" lon="1.9275">
        <ele>590.1</ele>
        <time>2022-08-05T05:58:17Z</time>
      </trkpt>
      <trkpt lat="45.40067" lon="1.92755">
        <ele>590.1</ele>
        <time>2022-08-05T05:58:19Z</time>
      </trkpt>
      <trkpt lat="45.40068" lon="1.9276">
        <ele>590.1</ele>
        <time>2022-08-05T05:58:21Z</time>
      </trkpt>
      <trkpt lat="45.4007" lon="1.92765">
        <ele>590.1</ele>
        <time>2022-08-05T05:58:23Z</time>
      </trkpt>
      <trkpt lat="45.40071" lon="1.9277">
        <ele>590.2</ele>
        <time>2022-08-05T05:58:25Z</time>
      </trkpt>
      <trkpt lat="45.40073" lon="1.92775">
        <ele>590.2</ele>
        <time>2022-08-05T05:58:27Z</time>
      </trkpt>
      <trkpt lat="45.40074" lon="1.9278">
        <ele>590.2</ele>
        <time>2022-08-05T05:58:29Z</time>
      </trkpt>
      <trkpt lat="45.40076" lon="1.92785">
        <ele>590.4</ele>
        <time>2022-08-05T05:58:31Z</time>
      </trkpt>
      <trkpt lat="45.40078" lon="1.92789">
        <ele>590.5</ele>
        <time>2022-08-05T05:58:33Z</time>
      </trkpt>
      <trkpt lat="45.4008" lon="1.92794">
        <ele>590.6</ele>
        <time>2022-08-05T05:58:35Z</time>
      </trkpt>
      <trkpt lat="45.40083" lon="1.92799">
        <ele>590.7</ele>
        <time>2022-08-05T05:58:37Z</time>
      </trkpt>
      <trkpt lat="45.40086" lon="1.92803">
        <ele>590.8</ele>
        <time>2022-08-05T05:58:39Z</time>
      </trkpt>
      <trkpt lat="45.40088" lon="1.92808">
        <ele>590.8</ele>
        <time>2022-08-05T05:58:41Z</time>
      </trkpt>
      <trkpt lat="45.40091" lon="1.92812">
        <ele>590.9</ele>
        <time>2022-08-05T05:58:43Z</time>
      </trkpt>
      <trkpt lat="45.40095" lon="1.92816">
        <ele>591</ele>
        <time>2022-08-05T05:58:45Z</time>
      </trkpt>
      <trkpt lat="45.40098" lon="1.92819">
        <ele>591</ele>
        <time>2022-08-05T05:58:47Z</time>
      </trkpt>
      <trkpt lat="45.401" lon="1.92824">
        <ele>591</ele>
        <time>2022-08-05T05:58:49Z</time>
      </trkpt>
      <trkpt lat="45.40103" lon="1.92829">
        <ele>591</ele>
        <time>2022-08-05T05:58:51Z</time>
      </trkpt>
      <trkpt lat="45.40106" lon="1.92835">
        <ele>591</ele>
        <time>2022-08-05T05:58:53Z</time>
      </trkpt>
      <trkpt lat="45.40109" lon="1.92841">
        <ele>590.9</ele>
        <time>2022-08-05T05:58:55Z</time>
      </trkpt>
      <trkpt lat="45.40112" lon="1.92848">
        <ele>590.7</ele>
        <time>2022-08-05T05:58:57Z</time>
      </trkpt>
      <trkpt lat="45.40115" lon="1.92855">
        <ele>590.4</ele>
        <time>2022-08-05T05:58:59Z</time>
      </trkpt>
      <trkpt lat="45.40117" lon="1.92863">
        <ele>590.1</ele>
        <time>2022-08-05T05:59:01Z</time>
      </trkpt>
      <trkpt lat="45.40119" lon="1.92871">
        <ele>589.8</ele>
        <time>2022-08-05T05:59:03Z</time>
      </trkpt>
      <trkpt lat="45.40122" lon="1.92878">
        <ele>589.5</ele>
        <time>2022-08-05T05:59:05Z</time>
      </trkpt>
      <trkpt lat="45.40124" lon="1.92886">
        <ele>589.1</ele>
        <time>2022-08-05T05:59:07Z</time>
      </trkpt>
      <trkpt lat="45.40126" lon="1.92894">
        <ele>588.7</ele>
        <time>2022-08-05T05:59:09Z</time>
      </trkpt>
      <trkpt lat="45.40127" lon="1.92903">
        <ele>588.3</ele>
        <time>2022-08-05T05:59:11Z</time>
      </trkpt>
      <trkpt lat="45.40128" lon="1.92911">
        <ele>587.9</ele>
        <time>2022-08-05T05:59:13Z</time>
      </trkpt>
      <trkpt lat="45.4013" lon="1.92919">
        <ele>587.6</ele>
        <time>2022-08-05T05:59:15Z</time>
      </trkpt>
      <trkpt lat="45.4013" lon="1.92928">
        <ele>587.5</ele>
        <time>2022-08-05T05:59:17Z</time>
      </trkpt>
      <trkpt lat="45.40131" lon="1.92936">
        <ele>587.5</ele>
        <time>2022-08-05T05:59:19Z</time>
      </trkpt>
      <trkpt lat="45.40131" lon="1.92944">
        <ele>587.5</ele>
        <time>2022-08-05T05:59:21Z</time>
      </trkpt>
      <trkpt lat="45.40131" lon="1.92952">
        <ele>587.5</ele>
        <time>2022-08-05T05:59:23Z</time>
      </trkpt>
      <trkpt lat="45.40132" lon="1.92961">
        <ele>587.5</ele>
        <time>2022-08-05T05:59:25Z</time>
      </trkpt>
      <trkpt lat="45.40132" lon="1.92969">
        <ele>587.5</ele>
        <time>2022-08-05T05:59:27Z</time>
      </trkpt>
      <trkpt lat="45.40131" lon="1.92978">
        <ele>587.5</ele>
        <time>2022-08-05T05:59:29Z</time>
      </trkpt>
      <trkpt lat="45.40131" lon="1.92987">
        <ele>587.4</ele>
        <time>2022-08-05T05:59:31Z</time>
      </trkpt>
      <trkpt lat="45.40131" lon="1.92995">
        <ele>587.4</ele>
        <time>2022-08-05T05:59:33Z</time>
      </trkpt>
      <trkpt lat="45.40131" lon="1.93004">
        <ele>587.5</ele>
        <time>2022-08-05T05:59:35Z</time>
      </trkpt>
      <trkpt lat="45.40131" lon="1.93013">
        <ele>587.8</ele>
        <time>2022-08-05T05:59:37Z</time>
      </trkpt>
      <trkpt lat="45.40131" lon="1.93021">
        <ele>588.1</ele>
        <time>2022-08-05T05:59:39Z</time>
      </trkpt>
      <trkpt lat="45.4013" lon="1.9303">
        <ele>588.4</ele>
        <time>2022-08-05T05:59:41Z</time>
      </trkpt>
      <trkpt lat="45.4013" lon="1.93039">
        <ele>588.6</ele>
        <time>2022-08-05T05:59:43Z</time>
      </trkpt>
      <trkpt lat="45.40129" lon="1.93048">
        <ele>588.9</ele>
        <time>2022-08-05T05:59:45Z</time>
      </trkpt>
      <trkpt lat="45.40127" lon="1.93057">
        <ele>589.2</ele>
        <time>2022-08-05T05:59:47Z</time>
      </trkpt>
      <trkpt lat="45.40125" lon="1.93065">
        <ele>589.4</ele>
        <time>2022-08-05T05:59:49Z</time>
      </trkpt>
      <trkpt lat="45.40122" lon="1.93072">
        <ele>589.7</ele>
        <time>2022-08-05T05:59:51Z</time>
      </trkpt>
      <trkpt lat="45.40119" lon="1.93078">
        <ele>589.9</ele>
        <time>2022-08-05T05:59:53Z</time>
      </trkpt>
      <trkpt lat="45.40115" lon="1.93085">
        <ele>590.1</ele>
        <time>2022-08-05T05:59:55Z</time>
      </trkpt>
      <trkpt lat="45.40111" lon="1.93092">
        <ele>590.3</ele>
        <time>2022-08-05T05:59:57Z</time>
      </trkpt>
      <trkpt lat="45.40108" lon="1.93099">
        <ele>590.5</ele>
        <time>2022-08-05T05:59:59Z</time>
      </trkpt>
      <trkpt lat="45.40104" lon="1.93106">
        <ele>590.8</ele>
        <time>2022-08-05T06:00:01Z</time>
      </trkpt>
      <trkpt lat="45.40101" lon="1.93114">
        <ele>591</ele>
        <time>2022-08-05T06:00:03Z</time>
      </trkpt>
      <trkpt lat="45.40098" lon="1.93122">
        <ele>591.2</ele>
        <time>2022-08-05T06:00:05Z</time>
      </trkpt>
      <trkpt lat="45.40094" lon="1.9313">
        <ele>591.4</ele>
        <time>2022-08-05T06:00:07Z</time>
      </trkpt>
      <trkpt lat="45.40091" lon="1.93139">
        <ele>591.5</ele>
        <time>2022-08-05T06:00:09Z</time>
      </trkpt>
      <trkpt lat="45.40088" lon="1.93147">
        <ele>591.7</ele>
        <time>2022-08-05T06:00:11Z</time>
      </trkpt>
      <trkpt lat="45.40085" lon="1.93155">
        <ele>591.8</ele>
        <time>2022-08-05T06:00:13Z</time>
      </trkpt>
      <trkpt lat="45.40083" lon="1.93164">
        <ele>591.9</ele>
        <time>2022-08-05T06:00:15Z</time>
      </trkpt>
      <trkpt lat="45.40079" lon="1.93171">
        <ele>592.2</ele>
        <time>2022-08-05T06:00:17Z</time>
      </trkpt>
      <trkpt lat="45.40075" lon="1.93179">
        <ele>592.8</ele>
        <time>2022-08-05T06:00:19Z</time>
      </trkpt>
      <trkpt lat="45.40072" lon="1.93186">
        <ele>593.3</ele>
        <time>2022-08-05T06:00:21Z</time>
      </trkpt>
      <trkpt lat="45.40068" lon="1.93192">
        <ele>593.6</ele>
        <time>2022-08-05T06:00:23Z</time>
      </trkpt>
      <trkpt lat="45.40064" lon="1.93197">
        <ele>593.8</ele>
        <time>2022-08-05T06:00:25Z</time>
      </trkpt>
      <trkpt lat="45.4006" lon="1.93201">
        <ele>593.9</ele>
        <time>2022-08-05T06:00:27Z</time>
      </trkpt>
      <trkpt lat="45.40056" lon="1.93206">
        <ele>594</ele>
        <time>2022-08-05T06:00:29Z</time>
      </trkpt>
      <trkpt lat="45.40053" lon="1.93209">
        <ele>594</ele>
        <time>2022-08-05T06:00:31Z</time>
      </trkpt>
      <trkpt lat="45.40049" lon="1.93213">
        <ele>594.1</ele>
        <time>2022-08-05T06:00:33Z</time>
      </trkpt>
      <trkpt lat="45.40046" lon="1.93217">
        <ele>594.1</ele>
        <time>2022-08-05T06:00:35Z</time>
      </trkpt>
      <trkpt lat="45.40044" lon="1.93221">
        <ele>594.2</ele>
        <time>2022-08-05T06:00:37Z</time>
      </trkpt>
      <trkpt lat="45.40043" lon="1.93227">
        <ele>594.6</ele>
        <time>2022-08-05T06:00:39Z</time>
      </trkpt>
      <trkpt lat="45.40042" lon="1.93232">
        <ele>594.9</ele>
        <time>2022-08-05T06:00:41Z</time>
      </trkpt>
      <trkpt lat="45.40043" lon="1.93235">
        <ele>595.1</ele>
        <time>2022-08-05T06:00:43Z</time>
      </trkpt>
      <trkpt lat="45.40044" lon="1.93239">
        <ele>595.5</ele>
        <time>2022-08-05T06:00:45Z</time>
      </trkpt>
      <trkpt lat="45.40043" lon="1.93243">
        <ele>595.7</ele>
        <time>2022-08-05T06:00:47Z</time>
      </trkpt>
      <trkpt lat="45.40044" lon="1.93246">
        <ele>595.9</ele>
        <time>2022-08-05T06:00:49Z</time>
      </trkpt>
      <trkpt lat="45.40045" lon="1.93251">
        <ele>596.4</ele>
        <time>2022-08-05T06:00:51Z</time>
      </trkpt>
      <trkpt lat="45.40047" lon="1.93256">
        <ele>596.9</ele>
        <time>2022-08-05T06:00:53Z</time>
      </trkpt>
      <trkpt lat="45.40052" lon="1.93259">
        <ele>597.5</ele>
        <time>2022-08-05T06:00:55Z</time>
      </trkpt>
      <trkpt lat="45.40058" lon="1.93257">
        <ele>598</ele>
        <time>2022-08-05T06:00:57Z</time>
      </trkpt>
      <trkpt lat="45.40063" lon="1.93255">
        <ele>598.4</ele>
        <time>2022-08-05T06:00:59Z</time>
      </trkpt>
      <trkpt lat="45.40068" lon="1.93253">
        <ele>598.7</ele>
        <time>2022-08-05T06:01:01Z</time>
      </trkpt>
      <trkpt lat="45.40073" lon="1.9325">
        <ele>599</ele>
        <time>2022-08-05T06:01:03Z</time>
      </trkpt>
      <trkpt lat="45.40078" lon="1.93247">
        <ele>599.2</ele>
        <time>2022-08-05T06:01:05Z</time>
      </trkpt>
      <trkpt lat="45.40082" lon="1.93245">
        <ele>599.4</ele>
        <time>2022-08-05T06:01:07Z</time>
      </trkpt>
      <trkpt lat="45.40087" lon="1.93243">
        <ele>599.4</ele>
        <time>2022-08-05T06:01:09Z</time>
      </trkpt>
      <trkpt lat="45.40091" lon="1.93242">
        <ele>599.3</ele>
        <time>2022-08-05T06:01:11Z</time>
      </trkpt>
      <trkpt lat="45.40096" lon="1.93242">
        <ele>599.4</ele>
        <time>2022-08-05T06:01:13Z</time>
      </trkpt>
      <trkpt lat="45.401" lon="1.93242">
        <ele>599.5</ele>
        <time>2022-08-05T06:01:15Z</time>
      </trkpt>
      <trkpt lat="45.40104" lon="1.93243">
        <ele>599.6</ele>
        <time>2022-08-05T06:01:17Z</time>
      </trkpt>
      <trkpt lat="45.40108" lon="1.93242">
        <ele>599.6</ele>
        <time>2022-08-05T06:01:19Z</time>
      </trkpt>
      <trkpt lat="45.40112" lon="1.93243">
        <ele>599.7</ele>
        <time>2022-08-05T06:01:21Z</time>
      </trkpt>
      <trkpt lat="45.40116" lon="1.93244">
        <ele>599.9</ele>
        <time>2022-08-05T06:01:23Z</time>
      </trkpt>
      <trkpt lat="45.4012" lon="1.93245">
        <ele>600</ele>
        <time>2022-08-05T06:01:25Z</time>
      </trkpt>
      <trkpt lat="45.40124" lon="1.93245">
        <ele>600.1</ele>
        <time>2022-08-05T06:01:27Z</time>
      </trkpt>
      <trkpt lat="45.40128" lon="1.93246">
        <ele>600.2</ele>
        <time>2022-08-05T06:01:29Z</time>
      </trkpt>
      <trkpt lat="45.40131" lon="1.93247">
        <ele>600.3</ele>
        <time>2022-08-05T06:01:31Z</time>
      </trkpt>
      <trkpt lat="45.40135" lon="1.93248">
        <ele>600.4</ele>
        <time>2022-08-05T06:01:33Z</time>
      </trkpt>
      <trkpt lat="45.40138" lon="1.93249">
        <ele>600.6</ele>
        <time>2022-08-05T06:01:35Z</time>
      </trkpt>
      <trkpt lat="45.40141" lon="1.93252">
        <ele>600.9</ele>
        <time>2022-08-05T06:01:37Z</time>
      </trkpt>
      <trkpt lat="45.40144" lon="1.93255">
        <ele>601.2</ele>
        <time>2022-08-05T06:01:39Z</time>
      </trkpt>
      <trkpt lat="45.40148" lon="1.93258">
        <ele>601.5</ele>
        <time>2022-08-05T06:01:41Z</time>
      </trkpt>
      <trkpt lat="45.40151" lon="1.9326">
        <ele>601.7</ele>
        <time>2022-08-05T06:01:43Z</time>
      </trkpt>
      <trkpt lat="45.40154" lon="1.93263">
        <ele>602.1</ele>
        <time>2022-08-05T06:01:45Z</time>
      </trkpt>
      <trkpt lat="45.40157" lon="1.93265">
        <ele>602.3</ele>
        <time>2022-08-05T06:01:47Z</time>
      </trkpt>
      <trkpt lat="45.4016" lon="1.9327">
        <ele>602.8</ele>
        <time>2022-08-05T06:01:49Z</time>
      </trkpt>
      <trkpt lat="45.40163" lon="1.93274">
        <ele>603.2</ele>
        <time>2022-08-05T06:01:51Z</time>
      </trkpt>
      <trkpt lat="45.40166" lon="1.93278">
        <ele>603.6</ele>
        <time>2022-08-05T06:01:53Z</time>
      </trkpt>
      <trkpt lat="45.40167" lon="1.93283">
        <ele>604.1</ele>
        <time>2022-08-05T06:01:55Z</time>
      </trkpt>
      <trkpt lat="45.4017" lon="1.93289">
        <ele>604.4</ele>
        <time>2022-08-05T06:01:57Z</time>
      </trkpt>
      <trkpt lat="45.40172" lon="1.93294">
        <ele>604.8</ele>
        <time>2022-08-05T06:01:59Z</time>
      </trkpt>
      <trkpt lat="45.40173" lon="1.933">
        <ele>605.2</ele>
        <time>2022-08-05T06:02:01Z</time>
      </trkpt>
      <trkpt lat="45.40174" lon="1.93305">
        <ele>605.8</ele>
        <time>2022-08-05T06:02:03Z</time>
      </trkpt>
      <trkpt lat="45.40174" lon="1.93311">
        <ele>606.3</ele>
        <time>2022-08-05T06:02:05Z</time>
      </trkpt>
      <trkpt lat="45.40175" lon="1.93317">
        <ele>606.8</ele>
        <time>2022-08-05T06:02:07Z</time>
      </trkpt>
      <trkpt lat="45.40175" lon="1.93323">
        <ele>607.3</ele>
        <time>2022-08-05T06:02:09Z</time>
      </trkpt>
      <trkpt lat="45.40176" lon="1.93328">
        <ele>607.8</ele>
        <time>2022-08-05T06:02:11Z</time>
      </trkpt>
      <trkpt lat="45.40178" lon="1.93333">
        <ele>608.2</ele>
        <time>2022-08-05T06:02:13Z</time>
      </trkpt>
      <trkpt lat="45.4018" lon="1.93338">
        <ele>608.6</ele>
        <time>2022-08-05T06:02:15Z</time>
      </trkpt>
      <trkpt lat="45.40183" lon="1.93343">
        <ele>608.9</ele>
        <time>2022-08-05T06:02:17Z</time>
      </trkpt>
      <trkpt lat="45.40184" lon="1.93347">
        <ele>609.3</ele>
        <time>2022-08-05T06:02:19Z</time>
      </trkpt>
      <trkpt lat="45.40187" lon="1.93351">
        <ele>609.6</ele>
        <time>2022-08-05T06:02:21Z</time>
      </trkpt>
      <trkpt lat="45.4019" lon="1.93355">
        <ele>609.9</ele>
        <time>2022-08-05T06:02:23Z</time>
      </trkpt>
      <trkpt lat="45.40192" lon="1.93357">
        <ele>610</ele>
        <time>2022-08-05T06:02:25Z</time>
      </trkpt>
      <trkpt lat="45.40195" lon="1.93359">
        <ele>610.2</ele>
        <time>2022-08-05T06:02:27Z</time>
      </trkpt>
      <trkpt lat="45.40198" lon="1.93362">
        <ele>610.4</ele>
        <time>2022-08-05T06:02:29Z</time>
      </trkpt>
      <trkpt lat="45.40201" lon="1.93364">
        <ele>610.5</ele>
        <time>2022-08-05T06:02:31Z</time>
      </trkpt>
      <trkpt lat="45.40203" lon="1.93364">
        <ele>610.4</ele>
        <time>2022-08-05T06:02:33Z</time>
      </trkpt>
      <trkpt lat="45.40206" lon="1.93365">
        <ele>610.5</ele>
        <time>2022-08-05T06:02:35Z</time>
      </trkpt>
      <trkpt lat="45.40209" lon="1.93367">
        <ele>610.7</ele>
        <time>2022-08-05T06:02:37Z</time>
      </trkpt>
      <trkpt lat="45.40212" lon="1.93368">
        <ele>610.7</ele>
        <time>2022-08-05T06:02:39Z</time>
      </trkpt>
      <trkpt lat="45.40213" lon="1.9337">
        <ele>610.9</ele>
        <time>2022-08-05T06:02:41Z</time>
      </trkpt>
      <trkpt lat="45.40216" lon="1.93373">
        <ele>611.2</ele>
        <time>2022-08-05T06:02:43Z</time>
      </trkpt>
      <trkpt lat="45.40219" lon="1.93375">
        <ele>611.5</ele>
        <time>2022-08-05T06:02:45Z</time>
      </trkpt>
      <trkpt lat="45.40221" lon="1.93378">
        <ele>611.9</ele>
        <time>2022-08-05T06:02:47Z</time>
      </trkpt>
      <trkpt lat="45.40225" lon="1.93379">
        <ele>611.9</ele>
        <time>2022-08-05T06:02:49Z</time>
      </trkpt>
      <trkpt lat="45.40228" lon="1.9338">
        <ele>612</ele>
        <time>2022-08-05T06:02:51Z</time>
      </trkpt>
      <trkpt lat="45.40231" lon="1.93382">
        <ele>612.3</ele>
        <time>2022-08-05T06:02:53Z</time>
      </trkpt>
      <trkpt lat="45.40234" lon="1.93384">
        <ele>612.5</ele>
        <time>2022-08-05T06:02:55Z</time>
      </trkpt>
      <trkpt lat="45.40237" lon="1.93386">
        <ele>612.7</ele>
        <time>2022-08-05T06:02:57Z</time>
      </trkpt>
      <trkpt lat="45.40241" lon="1.93388">
        <ele>612.9</ele>
        <time>2022-08-05T06:02:59Z</time>
      </trkpt>
      <trkpt lat="45.40244" lon="1.93389">
        <ele>613.1</ele>
        <time>2022-08-05T06:03:01Z</time>
      </trkpt>
      <trkpt lat="45.40247" lon="1.93391">
        <ele>613.4</ele>
        <time>2022-08-05T06:03:03Z</time>
      </trkpt>
      <trkpt lat="45.40251" lon="1.93392">
        <ele>613.5</ele>
        <time>2022-08-05T06:03:05Z</time>
      </trkpt>
      <trkpt lat="45.40255" lon="1.93395">
        <ele>613.3</ele>
        <time>2022-08-05T06:03:07Z</time>
      </trkpt>
      <trkpt lat="45.40258" lon="1.93398">
        <ele>613.5</ele>
        <time>2022-08-05T06:03:09Z</time>
      </trkpt>
      <trkpt lat="45.40262" lon="1.934">
        <ele>613.4</ele>
        <time>2022-08-05T06:03:11Z</time>
      </trkpt>
      <trkpt lat="45.40265" lon="1.93401">
        <ele>613.2</ele>
        <time>2022-08-05T06:03:13Z</time>
      </trkpt>
      <trkpt lat="45.40268" lon="1.93403">
        <ele>613</ele>
        <time>2022-08-05T06:03:15Z</time>
      </trkpt>
      <trkpt lat="45.40271" lon="1.93405">
        <ele>613</ele>
        <time>2022-08-05T06:03:17Z</time>
      </trkpt>
      <trkpt lat="45.40275" lon="1.93408">
        <ele>612.9</ele>
        <time>2022-08-05T06:03:19Z</time>
      </trkpt>
      <trkpt lat="45.40278" lon="1.93409">
        <ele>612.6</ele>
        <time>2022-08-05T06:03:21Z</time>
      </trkpt>
      <trkpt lat="45.40282" lon="1.9341">
        <ele>612.4</ele>
        <time>2022-08-05T06:03:23Z</time>
      </trkpt>
      <trkpt lat="45.40286" lon="1.93414">
        <ele>612.3</ele>
        <time>2022-08-05T06:03:25Z</time>
      </trkpt>
      <trkpt lat="45.4029" lon="1.93416">
        <ele>612.1</ele>
        <time>2022-08-05T06:03:27Z</time>
      </trkpt>
      <trkpt lat="45.40293" lon="1.93419">
        <ele>612</ele>
        <time>2022-08-05T06:03:29Z</time>
      </trkpt>
      <trkpt lat="45.40297" lon="1.93422">
        <ele>611.9</ele>
        <time>2022-08-05T06:03:31Z</time>
      </trkpt>
      <trkpt lat="45.40301" lon="1.93425">
        <ele>611.7</ele>
        <time>2022-08-05T06:03:33Z</time>
      </trkpt>
      <trkpt lat="45.40305" lon="1.93429">
        <ele>611.7</ele>
        <time>2022-08-05T06:03:35Z</time>
      </trkpt>
      <trkpt lat="45.40307" lon="1.93434">
        <ele>611.8</ele>
        <time>2022-08-05T06:03:37Z</time>
      </trkpt>
      <trkpt lat="45.40311" lon="1.93437">
        <ele>611.8</ele>
        <time>2022-08-05T06:03:39Z</time>
      </trkpt>
      <trkpt lat="45.40314" lon="1.93442">
        <ele>612</ele>
        <time>2022-08-05T06:03:41Z</time>
      </trkpt>
      <trkpt lat="45.40316" lon="1.93447">
        <ele>612.4</ele>
        <time>2022-08-05T06:03:43Z</time>
      </trkpt>
      <trkpt lat="45.40318" lon="1.93453">
        <ele>612.8</ele>
        <time>2022-08-05T06:03:45Z</time>
      </trkpt>
      <trkpt lat="45.40319" lon="1.93459">
        <ele>613.4</ele>
        <time>2022-08-05T06:03:47Z</time>
      </trkpt>
      <trkpt lat="45.40321" lon="1.93465">
        <ele>614</ele>
        <time>2022-08-05T06:03:49Z</time>
      </trkpt>
      <trkpt lat="45.40323" lon="1.93471">
        <ele>614.5</ele>
        <time>2022-08-05T06:03:51Z</time>
      </trkpt>
      <trkpt lat="45.40325" lon="1.93477">
        <ele>615</ele>
        <time>2022-08-05T06:03:53Z</time>
      </trkpt>
      <trkpt lat="45.40326" lon="1.93483">
        <ele>615.7</ele>
        <time>2022-08-05T06:03:55Z</time>
      </trkpt>
      <trkpt lat="45.40327" lon="1.93489">
        <ele>616.3</ele>
        <time>2022-08-05T06:03:57Z</time>
      </trkpt>
      <trkpt lat="45.40328" lon="1.93495">
        <ele>616.9</ele>
        <time>2022-08-05T06:03:59Z</time>
      </trkpt>
      <trkpt lat="45.4033" lon="1.935">
        <ele>617.4</ele>
        <time>2022-08-05T06:04:01Z</time>
      </trkpt>
      <trkpt lat="45.40331" lon="1.93506">
        <ele>617.8</ele>
        <time>2022-08-05T06:04:03Z</time>
      </trkpt>
      <trkpt lat="45.40332" lon="1.93512">
        <ele>618.3</ele>
        <time>2022-08-05T06:04:05Z</time>
      </trkpt>
      <trkpt lat="45.40334" lon="1.93518">
        <ele>618.6</ele>
        <time>2022-08-05T06:04:07Z</time>
      </trkpt>
      <trkpt lat="45.40335" lon="1.93523">
        <ele>619.1</ele>
        <time>2022-08-05T06:04:09Z</time>
      </trkpt>
      <trkpt lat="45.40338" lon="1.93528">
        <ele>619.4</ele>
        <time>2022-08-05T06:04:11Z</time>
      </trkpt>
      <trkpt lat="45.40339" lon="1.93534">
        <ele>619.9</ele>
        <time>2022-08-05T06:04:13Z</time>
      </trkpt>
      <trkpt lat="45.40341" lon="1.93539">
        <ele>620.3</ele>
        <time>2022-08-05T06:04:15Z</time>
      </trkpt>
      <trkpt lat="45.40343" lon="1.93544">
        <ele>620.7</ele>
        <time>2022-08-05T06:04:17Z</time>
      </trkpt>
      <trkpt lat="45.40347" lon="1.93548">
        <ele>621</ele>
        <time>2022-08-05T06:04:19Z</time>
      </trkpt>
      <trkpt lat="45.4035" lon="1.93552">
        <ele>621.2</ele>
        <time>2022-08-05T06:04:21Z</time>
      </trkpt>
      <trkpt lat="45.40354" lon="1.93555">
        <ele>621.4</ele>
        <time>2022-08-05T06:04:23Z</time>
      </trkpt>
      <trkpt lat="45.40358" lon="1.93558">
        <ele>621.5</ele>
        <time>2022-08-05T06:04:25Z</time>
      </trkpt>
      <trkpt lat="45.40363" lon="1.93558">
        <ele>621.4</ele>
        <time>2022-08-05T06:04:27Z</time>
      </trkpt>
      <trkpt lat="45.40368" lon="1.93558">
        <ele>621.1</ele>
        <time>2022-08-05T06:04:29Z</time>
      </trkpt>
      <trkpt lat="45.40371" lon="1.93557">
        <ele>620.9</ele>
        <time>2022-08-05T06:04:31Z</time>
      </trkpt>
      <trkpt lat="45.40375" lon="1.93556">
        <ele>620.5</ele>
        <time>2022-08-05T06:04:33Z</time>
      </trkpt>
      <trkpt lat="45.40378" lon="1.93553">
        <ele>620</ele>
        <time>2022-08-05T06:04:35Z</time>
      </trkpt>
      <trkpt lat="45.40382" lon="1.93549">
        <ele>619.4</ele>
        <time>2022-08-05T06:04:37Z</time>
      </trkpt>
      <trkpt lat="45.40386" lon="1.93545">
        <ele>618.7</ele>
        <time>2022-08-05T06:04:39Z</time>
      </trkpt>
      <trkpt lat="45.4039" lon="1.93544">
        <ele>618.2</ele>
        <time>2022-08-05T06:04:41Z</time>
      </trkpt>
      <trkpt lat="45.40395" lon="1.93539">
        <ele>617.3</ele>
        <time>2022-08-05T06:04:43Z</time>
      </trkpt>
      <trkpt lat="45.40399" lon="1.93536">
        <ele>616.7</ele>
        <time>2022-08-05T06:04:45Z</time>
      </trkpt>
      <trkpt lat="45.40404" lon="1.93534">
        <ele>616</ele>
        <time>2022-08-05T06:04:47Z</time>
      </trkpt>
      <trkpt lat="45.40409" lon="1.93532">
        <ele>615.5</ele>
        <time>2022-08-05T06:04:49Z</time>
      </trkpt>
      <trkpt lat="45.40414" lon="1.9353">
        <ele>614.8</ele>
        <time>2022-08-05T06:04:51Z</time>
      </trkpt>
      <trkpt lat="45.4042" lon="1.93529">
        <ele>614.6</ele>
        <time>2022-08-05T06:04:53Z</time>
      </trkpt>
      <trkpt lat="45.40425" lon="1.93529">
        <ele>614.8</ele>
        <time>2022-08-05T06:04:55Z</time>
      </trkpt>
      <trkpt lat="45.40429" lon="1.9353">
        <ele>615</ele>
        <time>2022-08-05T06:04:57Z</time>
      </trkpt>
      <trkpt lat="45.40435" lon="1.93531">
        <ele>615.4</ele>
        <time>2022-08-05T06:04:59Z</time>
      </trkpt>
      <trkpt lat="45.4044" lon="1.93533">
        <ele>615.9</ele>
        <time>2022-08-05T06:05:01Z</time>
      </trkpt>
      <trkpt lat="45.40445" lon="1.93536">
        <ele>616.4</ele>
        <time>2022-08-05T06:05:03Z</time>
      </trkpt>
      <trkpt lat="45.4045" lon="1.93538">
        <ele>616.9</ele>
        <time>2022-08-05T06:05:05Z</time>
      </trkpt>
      <trkpt lat="45.40454" lon="1.9354">
        <ele>617.3</ele>
        <time>2022-08-05T06:05:07Z</time>
      </trkpt>
      <trkpt lat="45.4046" lon="1.93541">
        <ele>617.8</ele>
        <time>2022-08-05T06:05:09Z</time>
      </trkpt>
      <trkpt lat="45.40465" lon="1.93544">
        <ele>618.4</ele>
        <time>2022-08-05T06:05:11Z</time>
      </trkpt>
      <trkpt lat="45.40469" lon="1.93548">
        <ele>619</ele>
        <time>2022-08-05T06:05:13Z</time>
      </trkpt>
      <trkpt lat="45.40475" lon="1.93549">
        <ele>619.4</ele>
        <time>2022-08-05T06:05:15Z</time>
      </trkpt>
      <trkpt lat="45.4048" lon="1.93552">
        <ele>620.1</ele>
        <time>2022-08-05T06:05:17Z</time>
      </trkpt>
      <trkpt lat="45.40484" lon="1.93554">
        <ele>620.6</ele>
        <time>2022-08-05T06:05:19Z</time>
      </trkpt>
      <trkpt lat="45.40489" lon="1.93556">
        <ele>621</ele>
        <time>2022-08-05T06:05:21Z</time>
      </trkpt>
      <trkpt lat="45.40493" lon="1.93557">
        <ele>621.4</ele>
        <time>2022-08-05T06:05:23Z</time>
      </trkpt>
      <trkpt lat="45.40498" lon="1.93559">
        <ele>621.8</ele>
        <time>2022-08-05T06:05:25Z</time>
      </trkpt>
      <trkpt lat="45.40504" lon="1.93561">
        <ele>622.5</ele>
        <time>2022-08-05T06:05:27Z</time>
      </trkpt>
      <trkpt lat="45.40509" lon="1.93563">
        <ele>623.2</ele>
        <time>2022-08-05T06:05:29Z</time>
      </trkpt>
      <trkpt lat="45.40514" lon="1.93566">
        <ele>623.8</ele>
        <time>2022-08-05T06:05:31Z</time>
      </trkpt>
      <trkpt lat="45.40518" lon="1.93569">
        <ele>624.5</ele>
        <time>2022-08-05T06:05:33Z</time>
      </trkpt>
      <trkpt lat="45.40521" lon="1.93573">
        <ele>625.3</ele>
        <time>2022-08-05T06:05:35Z</time>
      </trkpt>
      <trkpt lat="45.40525" lon="1.93577">
        <ele>625.8</ele>
        <time>2022-08-05T06:05:37Z</time>
      </trkpt>
      <trkpt lat="45.40528" lon="1.9358">
        <ele>626.3</ele>
        <time>2022-08-05T06:05:39Z</time>
      </trkpt>
      <trkpt lat="45.4053" lon="1.93585">
        <ele>626.8</ele>
        <time>2022-08-05T06:05:41Z</time>
      </trkpt>
      <trkpt lat="45.40532" lon="1.93589">
        <ele>627.2</ele>
        <time>2022-08-05T06:05:43Z</time>
      </trkpt>
      <trkpt lat="45.40535" lon="1.93593">
        <ele>627.6</ele>
        <time>2022-08-05T06:05:45Z</time>
      </trkpt>
      <trkpt lat="45.40537" lon="1.93597">
        <ele>628</ele>
        <time>2022-08-05T06:05:47Z</time>
      </trkpt>
      <trkpt lat="45.4054" lon="1.936">
        <ele>628.3</ele>
        <time>2022-08-05T06:05:49Z</time>
      </trkpt>
      <trkpt lat="45.40543" lon="1.93604">
        <ele>628.6</ele>
        <time>2022-08-05T06:05:51Z</time>
      </trkpt>
      <trkpt lat="45.40546" lon="1.93607">
        <ele>628.9</ele>
        <time>2022-08-05T06:05:53Z</time>
      </trkpt>
      <trkpt lat="45.4055" lon="1.93609">
        <ele>629</ele>
        <time>2022-08-05T06:05:55Z</time>
      </trkpt>
      <trkpt lat="45.40554" lon="1.93611">
        <ele>629.1</ele>
        <time>2022-08-05T06:05:57Z</time>
      </trkpt>
      <trkpt lat="45.40558" lon="1.93612">
        <ele>629.1</ele>
        <time>2022-08-05T06:05:59Z</time>
      </trkpt>
      <trkpt lat="45.40562" lon="1.93612">
        <ele>629.1</ele>
        <time>2022-08-05T06:06:01Z</time>
      </trkpt>
      <trkpt lat="45.40566" lon="1.9361">
        <ele>629</ele>
        <time>2022-08-05T06:06:03Z</time>
      </trkpt>
      <trkpt lat="45.4057" lon="1.93608">
        <ele>628.9</ele>
        <time>2022-08-05T06:06:05Z</time>
      </trkpt>
      <trkpt lat="45.40573" lon="1.93605">
        <ele>628.8</ele>
        <time>2022-08-05T06:06:07Z</time>
      </trkpt>
      <trkpt lat="45.40577" lon="1.93602">
        <ele>628.6</ele>
        <time>2022-08-05T06:06:09Z</time>
      </trkpt>
      <trkpt lat="45.4058" lon="1.93598">
        <ele>628.5</ele>
        <time>2022-08-05T06:06:11Z</time>
      </trkpt>
      <trkpt lat="45.40582" lon="1.93594">
        <ele>628.4</ele>
        <time>2022-08-05T06:06:13Z</time>
      </trkpt>
      <trkpt lat="45.40585" lon="1.9359">
        <ele>628.4</ele>
        <time>2022-08-05T06:06:15Z</time>
      </trkpt>
      <trkpt lat="45.40588" lon="1.93586">
        <ele>628.6</ele>
        <time>2022-08-05T06:06:17Z</time>
      </trkpt>
      <trkpt lat="45.40589" lon="1.93581">
        <ele>628.7</ele>
        <time>2022-08-05T06:06:19Z</time>
      </trkpt>
      <trkpt lat="45.40592" lon="1.93577">
        <ele>629</ele>
        <time>2022-08-05T06:06:21Z</time>
      </trkpt>
      <trkpt lat="45.40595" lon="1.93573">
        <ele>629.3</ele>
        <time>2022-08-05T06:06:23Z</time>
      </trkpt>
      <trkpt lat="45.40597" lon="1.93568">
        <ele>629.6</ele>
        <time>2022-08-05T06:06:25Z</time>
      </trkpt>
      <trkpt lat="45.40599" lon="1.93563">
        <ele>629.8</ele>
        <time>2022-08-05T06:06:27Z</time>
      </trkpt>
      <trkpt lat="45.40602" lon="1.93559">
        <ele>630.2</ele>
        <time>2022-08-05T06:06:29Z</time>
      </trkpt>
      <trkpt lat="45.40604" lon="1.93555">
        <ele>630.4</ele>
        <time>2022-08-05T06:06:31Z</time>
      </trkpt>
      <trkpt lat="45.40606" lon="1.9355">
        <ele>630.7</ele>
        <time>2022-08-05T06:06:33Z</time>
      </trkpt>
      <trkpt lat="45.40607" lon="1.93545">
        <ele>631</ele>
        <time>2022-08-05T06:06:35Z</time>
      </trkpt>
      <trkpt lat="45.4061" lon="1.93541">
        <ele>631.3</ele>
        <time>2022-08-05T06:06:37Z</time>
      </trkpt>
      <trkpt lat="45.40611" lon="1.93537">
        <ele>631.5</ele>
        <time>2022-08-05T06:06:39Z</time>
      </trkpt>
      <trkpt lat="45.40612" lon="1.93533">
        <ele>631.7</ele>
        <time>2022-08-05T06:06:41Z</time>
      </trkpt>
      <trkpt lat="45.40613" lon="1.93528">
        <ele>631.8</ele>
        <time>2022-08-05T06:06:43Z</time>
      </trkpt>
      <trkpt lat="45.40614" lon="1.93523">
        <ele>632</ele>
        <time>2022-08-05T06:06:45Z</time>
      </trkpt>
      <trkpt lat="45.40615" lon="1.93518">
        <ele>632.1</ele>
        <time>2022-08-05T06:06:47Z</time>
      </trkpt>
      <trkpt lat="45.40615" lon="1.93513">
        <ele>632.2</ele>
        <time>2022-08-05T06:06:49Z</time>
      </trkpt>
      <trkpt lat="45.40616" lon="1.93508">
        <ele>632.4</ele>
        <time>2022-08-05T06:06:51Z</time>
      </trkpt>
      <trkpt lat="45.40616" lon="1.93504">
        <ele>632.5</ele>
        <time>2022-08-05T06:06:53Z</time>
      </trkpt>
      <trkpt lat="45.40617" lon="1.93499">
        <ele>632.6</ele>
        <time>2022-08-05T06:06:55Z</time>
      </trkpt>
      <trkpt lat="45.40618" lon="1.93494">
        <ele>632.3</ele>
        <time>2022-08-05T06:06:57Z</time>
      </trkpt>
      <trkpt lat="45.4062" lon="1.93489">
        <ele>632</ele>
        <time>2022-08-05T06:06:59Z</time>
      </trkpt>
      <trkpt lat="45.40622" lon="1.93485">
        <ele>632</ele>
        <time>2022-08-05T06:07:01Z</time>
      </trkpt>
      <trkpt lat="45.40624" lon="1.93481">
        <ele>631.9</ele>
        <time>2022-08-05T06:07:03Z</time>
      </trkpt>
      <trkpt lat="45.40626" lon="1.93477">
        <ele>631.9</ele>
        <time>2022-08-05T06:07:05Z</time>
      </trkpt>
      <trkpt lat="45.4063" lon="1.93472">
        <ele>631.9</ele>
        <time>2022-08-05T06:07:07Z</time>
      </trkpt>
      <trkpt lat="45.40632" lon="1.9347">
        <ele>632</ele>
        <time>2022-08-05T06:07:09Z</time>
      </trkpt>
      <trkpt lat="45.40635" lon="1.93466">
        <ele>632.2</ele>
        <time>2022-08-05T06:07:11Z</time>
      </trkpt>
      <trkpt lat="45.40638" lon="1.93463">
        <ele>632.3</ele>
        <time>2022-08-05T06:07:13Z</time>
      </trkpt>
      <trkpt lat="45.40642" lon="1.9346">
        <ele>632.4</ele>
        <time>2022-08-05T06:07:15Z</time>
      </trkpt>
      <trkpt lat="45.40645" lon="1.93458">
        <ele>632.7</ele>
        <time>2022-08-05T06:07:17Z</time>
      </trkpt>
      <trkpt lat="45.40649" lon="1.93456">
        <ele>633.1</ele>
        <time>2022-08-05T06:07:19Z</time>
      </trkpt>
      <trkpt lat="45.40652" lon="1.93455">
        <ele>633.4</ele>
        <time>2022-08-05T06:07:21Z</time>
      </trkpt>
      <trkpt lat="45.40655" lon="1.93454">
        <ele>633.8</ele>
        <time>2022-08-05T06:07:23Z</time>
      </trkpt>
      <trkpt lat="45.40659" lon="1.93454">
        <ele>634.3</ele>
        <time>2022-08-05T06:07:25Z</time>
      </trkpt>
      <trkpt lat="45.40662" lon="1.93452">
        <ele>634.7</ele>
        <time>2022-08-05T06:07:27Z</time>
      </trkpt>
      <trkpt lat="45.40666" lon="1.93452">
        <ele>635.1</ele>
        <time>2022-08-05T06:07:29Z</time>
      </trkpt>
      <trkpt lat="45.40669" lon="1.93452">
        <ele>635.2</ele>
        <time>2022-08-05T06:07:31Z</time>
      </trkpt>
      <trkpt lat="45.40671" lon="1.93453">
        <ele>635.2</ele>
        <time>2022-08-05T06:07:33Z</time>
      </trkpt>
      <trkpt lat="45.40674" lon="1.93455">
        <ele>635.3</ele>
        <time>2022-08-05T06:07:35Z</time>
      </trkpt>
      <trkpt lat="45.40678" lon="1.93455">
        <ele>635.3</ele>
        <time>2022-08-05T06:07:37Z</time>
      </trkpt>
      <trkpt lat="45.40682" lon="1.93458">
        <ele>635.5</ele>
        <time>2022-08-05T06:07:39Z</time>
      </trkpt>
      <trkpt lat="45.40686" lon="1.93459">
        <ele>635.5</ele>
        <time>2022-08-05T06:07:41Z</time>
      </trkpt>
      <trkpt lat="45.40689" lon="1.93461">
        <ele>635.7</ele>
        <time>2022-08-05T06:07:43Z</time>
      </trkpt>
      <trkpt lat="45.40692" lon="1.93463">
        <ele>635.8</ele>
        <time>2022-08-05T06:07:45Z</time>
      </trkpt>
      <trkpt lat="45.40695" lon="1.93465">
        <ele>635.9</ele>
        <time>2022-08-05T06:07:47Z</time>
      </trkpt>
      <trkpt lat="45.40699" lon="1.93468">
        <ele>636.1</ele>
        <time>2022-08-05T06:07:49Z</time>
      </trkpt>
      <trkpt lat="45.40701" lon="1.9347">
        <ele>636.3</ele>
        <time>2022-08-05T06:07:51Z</time>
      </trkpt>
      <trkpt lat="45.40705" lon="1.93472">
        <ele>636.5</ele>
        <time>2022-08-05T06:07:53Z</time>
      </trkpt>
      <trkpt lat="45.40708" lon="1.93475">
        <ele>636.6</ele>
        <time>2022-08-05T06:07:55Z</time>
      </trkpt>
      <trkpt lat="45.40712" lon="1.93477">
        <ele>636.7</ele>
        <time>2022-08-05T06:07:57Z</time>
      </trkpt>
      <trkpt lat="45.40716" lon="1.93479">
        <ele>636.9</ele>
        <time>2022-08-05T06:07:59Z</time>
      </trkpt>
      <trkpt lat="45.40719" lon="1.93482">
        <ele>637.1</ele>
        <time>2022-08-05T06:08:01Z</time>
      </trkpt>
      <trkpt lat="45.40723" lon="1.93484">
        <ele>637.2</ele>
        <time>2022-08-05T06:08:03Z</time>
      </trkpt>
      <trkpt lat="45.40726" lon="1.93487">
        <ele>637.4</ele>
        <time>2022-08-05T06:08:05Z</time>
      </trkpt>
      <trkpt lat="45.4073" lon="1.93489">
        <ele>637.5</ele>
        <time>2022-08-05T06:08:07Z</time>
      </trkpt>
      <trkpt lat="45.40733" lon="1.93491">
        <ele>637.7</ele>
        <time>2022-08-05T06:08:09Z</time>
      </trkpt>
      <trkpt lat="45.40736" lon="1.93493">
        <ele>637.8</ele>
        <time>2022-08-05T06:08:11Z</time>
      </trkpt>
      <trkpt lat="45.4074" lon="1.93496">
        <ele>637.9</ele>
        <time>2022-08-05T06:08:13Z</time>
      </trkpt>
      <trkpt lat="45.40743" lon="1.93498">
        <ele>638</ele>
        <time>2022-08-05T06:08:15Z</time>
      </trkpt>
      <trkpt lat="45.40747" lon="1.93501">
        <ele>638.1</ele>
        <time>2022-08-05T06:08:17Z</time>
      </trkpt>
      <trkpt lat="45.4075" lon="1.93502">
        <ele>638.1</ele>
        <time>2022-08-05T06:08:19Z</time>
      </trkpt>
      <trkpt lat="45.40753" lon="1.93505">
        <ele>638.1</ele>
        <time>2022-08-05T06:08:21Z</time>
      </trkpt>
      <trkpt lat="45.40757" lon="1.93507">
        <ele>638.2</ele>
        <time>2022-08-05T06:08:23Z</time>
      </trkpt>
      <trkpt lat="45.4076" lon="1.93508">
        <ele>638.2</ele>
        <time>2022-08-05T06:08:25Z</time>
      </trkpt>
      <trkpt lat="45.40764" lon="1.93511">
        <ele>638.3</ele>
        <time>2022-08-05T06:08:27Z</time>
      </trkpt>
      <trkpt lat="45.40767" lon="1.93513">
        <ele>638.4</ele>
        <time>2022-08-05T06:08:29Z</time>
      </trkpt>
      <trkpt lat="45.4077" lon="1.93515">
        <ele>638.5</ele>
        <time>2022-08-05T06:08:31Z</time>
      </trkpt>
      <trkpt lat="45.40773" lon="1.93518">
        <ele>638.6</ele>
        <time>2022-08-05T06:08:33Z</time>
      </trkpt>
      <trkpt lat="45.40776" lon="1.9352">
        <ele>638.8</ele>
        <time>2022-08-05T06:08:35Z</time>
      </trkpt>
      <trkpt lat="45.40779" lon="1.93522">
        <ele>638.9</ele>
        <time>2022-08-05T06:08:37Z</time>
      </trkpt>
      <trkpt lat="45.40783" lon="1.93524">
        <ele>639</ele>
        <time>2022-08-05T06:08:39Z</time>
      </trkpt>
      <trkpt lat="45.40786" lon="1.93526">
        <ele>639.2</ele>
        <time>2022-08-05T06:08:41Z</time>
      </trkpt>
      <trkpt lat="45.4079" lon="1.93528">
        <ele>639.3</ele>
        <time>2022-08-05T06:08:43Z</time>
      </trkpt>
      <trkpt lat="45.40793" lon="1.9353">
        <ele>639.5</ele>
        <time>2022-08-05T06:08:45Z</time>
      </trkpt>
      <trkpt lat="45.40796" lon="1.93533">
        <ele>639.7</ele>
        <time>2022-08-05T06:08:47Z</time>
      </trkpt>
      <trkpt lat="45.40799" lon="1.93534">
        <ele>639.8</ele>
        <time>2022-08-05T06:08:49Z</time>
      </trkpt>
      <trkpt lat="45.40802" lon="1.93536">
        <ele>640</ele>
        <time>2022-08-05T06:08:51Z</time>
      </trkpt>
      <trkpt lat="45.40805" lon="1.93539">
        <ele>640.3</ele>
        <time>2022-08-05T06:08:53Z</time>
      </trkpt>
      <trkpt lat="45.40808" lon="1.9354">
        <ele>640.4</ele>
        <time>2022-08-05T06:08:55Z</time>
      </trkpt>
      <trkpt lat="45.40811" lon="1.93542">
        <ele>640.6</ele>
        <time>2022-08-05T06:08:57Z</time>
      </trkpt>
      <trkpt lat="45.40814" lon="1.93544">
        <ele>640.9</ele>
        <time>2022-08-05T06:08:59Z</time>
      </trkpt>
      <trkpt lat="45.40817" lon="1.93546">
        <ele>641.1</ele>
        <time>2022-08-05T06:09:01Z</time>
      </trkpt>
      <trkpt lat="45.40821" lon="1.93547">
        <ele>641.3</ele>
        <time>2022-08-05T06:09:03Z</time>
      </trkpt>
      <trkpt lat="45.40824" lon="1.93549">
        <ele>641.5</ele>
        <time>2022-08-05T06:09:05Z</time>
      </trkpt>
      <trkpt lat="45.40827" lon="1.93551">
        <ele>641.7</ele>
        <time>2022-08-05T06:09:07Z</time>
      </trkpt>
      <trkpt lat="45.4083" lon="1.93554">
        <ele>642.1</ele>
        <time>2022-08-05T06:09:09Z</time>
      </trkpt>
      <trkpt lat="45.40833" lon="1.93556">
        <ele>642.4</ele>
        <time>2022-08-05T06:09:11Z</time>
      </trkpt>
      <trkpt lat="45.40836" lon="1.93558">
        <ele>642.6</ele>
        <time>2022-08-05T06:09:13Z</time>
      </trkpt>
      <trkpt lat="45.40839" lon="1.9356">
        <ele>642.9</ele>
        <time>2022-08-05T06:09:15Z</time>
      </trkpt>
      <trkpt lat="45.40843" lon="1.93561">
        <ele>643.1</ele>
        <time>2022-08-05T06:09:17Z</time>
      </trkpt>
      <trkpt lat="45.40846" lon="1.93563">
        <ele>643.3</ele>
        <time>2022-08-05T06:09:19Z</time>
      </trkpt>
      <trkpt lat="45.40849" lon="1.93564">
        <ele>643.5</ele>
        <time>2022-08-05T06:09:21Z</time>
      </trkpt>
      <trkpt lat="45.40852" lon="1.93566">
        <ele>643.8</ele>
        <time>2022-08-05T06:09:23Z</time>
      </trkpt>
      <trkpt lat="45.40855" lon="1.93568">
        <ele>644</ele>
        <time>2022-08-05T06:09:25Z</time>
      </trkpt>
      <trkpt lat="45.40858" lon="1.93569">
        <ele>644.3</ele>
        <time>2022-08-05T06:09:27Z</time>
      </trkpt>
      <trkpt lat="45.40861" lon="1.93572">
        <ele>644.6</ele>
        <time>2022-08-05T06:09:29Z</time>
      </trkpt>
      <trkpt lat="45.40864" lon="1.93575">
        <ele>644.9</ele>
        <time>2022-08-05T06:09:31Z</time>
      </trkpt>
      <trkpt lat="45.40867" lon="1.93577">
        <ele>645.2</ele>
        <time>2022-08-05T06:09:33Z</time>
      </trkpt>
      <trkpt lat="45.4087" lon="1.93579">
        <ele>645.4</ele>
        <time>2022-08-05T06:09:35Z</time>
      </trkpt>
      <trkpt lat="45.40873" lon="1.93581">
        <ele>645.8</ele>
        <time>2022-08-05T06:09:37Z</time>
      </trkpt>
      <trkpt lat="45.40876" lon="1.93583">
        <ele>646</ele>
        <time>2022-08-05T06:09:39Z</time>
      </trkpt>
      <trkpt lat="45.40879" lon="1.93586">
        <ele>646.2</ele>
        <time>2022-08-05T06:09:41Z</time>
      </trkpt>
      <trkpt lat="45.40882" lon="1.93589">
        <ele>646.3</ele>
        <time>2022-08-05T06:09:43Z</time>
      </trkpt>
      <trkpt lat="45.40885" lon="1.93591">
        <ele>646.4</ele>
        <time>2022-08-05T06:09:45Z</time>
      </trkpt>
      <trkpt lat="45.40888" lon="1.93594">
        <ele>646.6</ele>
        <time>2022-08-05T06:09:47Z</time>
      </trkpt>
      <trkpt lat="45.40891" lon="1.93597">
        <ele>646.8</ele>
        <time>2022-08-05T06:09:49Z</time>
      </trkpt>
      <trkpt lat="45.40893" lon="1.936">
        <ele>646.9</ele>
        <time>2022-08-05T06:09:51Z</time>
      </trkpt>
      <trkpt lat="45.40896" lon="1.93602">
        <ele>647.1</ele>
        <time>2022-08-05T06:09:53Z</time>
      </trkpt>
      <trkpt lat="45.40899" lon="1.93606">
        <ele>647.3</ele>
        <time>2022-08-05T06:09:55Z</time>
      </trkpt>
      <trkpt lat="45.40902" lon="1.93608">
        <ele>647.4</ele>
        <time>2022-08-05T06:09:57Z</time>
      </trkpt>
      <trkpt lat="45.40905" lon="1.93611">
        <ele>647.6</ele>
        <time>2022-08-05T06:09:59Z</time>
      </trkpt>
      <trkpt lat="45.40907" lon="1.93613">
        <ele>647.8</ele>
        <time>2022-08-05T06:10:01Z</time>
      </trkpt>
      <trkpt lat="45.4091" lon="1.93616">
        <ele>647.9</ele>
        <time>2022-08-05T06:10:03Z</time>
      </trkpt>
      <trkpt lat="45.40911" lon="1.93619">
        <ele>648.1</ele>
        <time>2022-08-05T06:10:05Z</time>
      </trkpt>
      <trkpt lat="45.40913" lon="1.93621">
        <ele>648.3</ele>
        <time>2022-08-05T06:10:07Z</time>
      </trkpt>
      <trkpt lat="45.40915" lon="1.93624">
        <ele>648.4</ele>
        <time>2022-08-05T06:10:09Z</time>
      </trkpt>
      <trkpt lat="45.40917" lon="1.93625">
        <ele>648.5</ele>
        <time>2022-08-05T06:10:11Z</time>
      </trkpt>
      <trkpt lat="45.40919" lon="1.93626">
        <ele>648.6</ele>
        <time>2022-08-05T06:10:13Z</time>
      </trkpt>
      <trkpt lat="45.40921" lon="1.93629">
        <ele>648.7</ele>
        <time>2022-08-05T06:10:15Z</time>
      </trkpt>
      <trkpt lat="45.40923" lon="1.93631">
        <ele>648.8</ele>
        <time>2022-08-05T06:10:17Z</time>
      </trkpt>
      <trkpt lat="45.40924" lon="1.93635">
        <ele>648.9</ele>
        <time>2022-08-05T06:10:19Z</time>
      </trkpt>
      <trkpt lat="45.40926" lon="1.93638">
        <ele>649</ele>
        <time>2022-08-05T06:10:21Z</time>
      </trkpt>
      <trkpt lat="45.40929" lon="1.9364">
        <ele>649.1</ele>
        <time>2022-08-05T06:10:23Z</time>
      </trkpt>
      <trkpt lat="45.4093" lon="1.93643">
        <ele>649.3</ele>
        <time>2022-08-05T06:10:25Z</time>
      </trkpt>
      <trkpt lat="45.40931" lon="1.93646">
        <ele>649.4</ele>
        <time>2022-08-05T06:10:27Z</time>
      </trkpt>
      <trkpt lat="45.40933" lon="1.93647">
        <ele>649.5</ele>
        <time>2022-08-05T06:10:29Z</time>
      </trkpt>
      <trkpt lat="45.40932" lon="1.93647">
        <ele>649.4</ele>
        <time>2022-08-05T06:10:31Z</time>
      </trkpt>
      <trkpt lat="45.40932" lon="1.93647">
        <ele>649.4</ele>
        <time>2022-08-05T06:10:33Z</time>
      </trkpt>
      <trkpt lat="45.40932" lon="1.93647">
        <ele>649.4</ele>
        <time>2022-08-05T06:10:35Z</time>
      </trkpt>
      <trkpt lat="45.40934" lon="1.93646">
        <ele>649.4</ele>
        <time>2022-08-05T06:10:37Z</time>
      </trkpt>
      <trkpt lat="45.40938" lon="1.93645">
        <ele>649.4</ele>
        <time>2022-08-05T06:50:23Z</time>
      </trkpt>
      <trkpt lat="45.40939" lon="1.93649">
        <ele>649.6</ele>
        <time>2022-08-05T06:50:25Z</time>
      </trkpt>
      <trkpt lat="45.40941" lon="1.93651">
        <ele>649.7</ele>
        <time>2022-08-05T06:50:27Z</time>
      </trkpt>
      <trkpt lat="45.40944" lon="1.93652">
        <ele>649.8</ele>
        <time>2022-08-05T06:50:29Z</time>
      </trkpt>
      <trkpt lat="45.40947" lon="1.93654">
        <ele>649.9</ele>
        <time>2022-08-05T06:50:31Z</time>
      </trkpt>
      <trkpt lat="45.40949" lon="1.93658">
        <ele>650</ele>
        <time>2022-08-05T06:50:33Z</time>
      </trkpt>
      <trkpt lat="45.40951" lon="1.93661">
        <ele>650.2</ele>
        <time>2022-08-05T06:50:35Z</time>
      </trkpt>
      <trkpt lat="45.40953" lon="1.93663">
        <ele>650.3</ele>
        <time>2022-08-05T06:50:37Z</time>
      </trkpt>
      <trkpt lat="45.40955" lon="1.93666">
        <ele>650.4</ele>
        <time>2022-08-05T06:50:39Z</time>
      </trkpt>
      <trkpt lat="45.40958" lon="1.93668">
        <ele>650.5</ele>
        <time>2022-08-05T06:50:41Z</time>
      </trkpt>
      <trkpt lat="45.4096" lon="1.93671">
        <ele>650.6</ele>
        <time>2022-08-05T06:50:43Z</time>
      </trkpt>
      <trkpt lat="45.40963" lon="1.93674">
        <ele>650.6</ele>
        <time>2022-08-05T06:50:45Z</time>
      </trkpt>
      <trkpt lat="45.40965" lon="1.93677">
        <ele>650.7</ele>
        <time>2022-08-05T06:50:47Z</time>
      </trkpt>
      <trkpt lat="45.40967" lon="1.93681">
        <ele>650.7</ele>
        <time>2022-08-05T06:50:49Z</time>
      </trkpt>
      <trkpt lat="45.40969" lon="1.93684">
        <ele>650.8</ele>
        <time>2022-08-05T06:50:51Z</time>
      </trkpt>
      <trkpt lat="45.40971" lon="1.93687">
        <ele>650.9</ele>
        <time>2022-08-05T06:50:53Z</time>
      </trkpt>
      <trkpt lat="45.40973" lon="1.93691">
        <ele>651</ele>
        <time>2022-08-05T06:50:55Z</time>
      </trkpt>
      <trkpt lat="45.40974" lon="1.93695">
        <ele>651.1</ele>
        <time>2022-08-05T06:50:57Z</time>
      </trkpt>
      <trkpt lat="45.40975" lon="1.937">
        <ele>651.1</ele>
        <time>2022-08-05T06:50:59Z</time>
      </trkpt>
      <trkpt lat="45.40978" lon="1.93704">
        <ele>651.3</ele>
        <time>2022-08-05T06:51:01Z</time>
      </trkpt>
      <trkpt lat="45.40979" lon="1.93707">
        <ele>651.4</ele>
        <time>2022-08-05T06:51:03Z</time>
      </trkpt>
      <trkpt lat="45.4098" lon="1.93711">
        <ele>651.4</ele>
        <time>2022-08-05T06:51:05Z</time>
      </trkpt>
      <trkpt lat="45.40981" lon="1.93715">
        <ele>651.6</ele>
        <time>2022-08-05T06:51:07Z</time>
      </trkpt>
      <trkpt lat="45.40982" lon="1.9372">
        <ele>651.7</ele>
        <time>2022-08-05T06:51:09Z</time>
      </trkpt>
      <trkpt lat="45.40983" lon="1.93725">
        <ele>651.8</ele>
        <time>2022-08-05T06:51:11Z</time>
      </trkpt>
      <trkpt lat="45.40984" lon="1.9373">
        <ele>651.9</ele>
        <time>2022-08-05T06:51:13Z</time>
      </trkpt>
      <trkpt lat="45.40984" lon="1.93734">
        <ele>652</ele>
        <time>2022-08-05T06:51:15Z</time>
      </trkpt>
      <trkpt lat="45.40985" lon="1.93738">
        <ele>652.1</ele>
        <time>2022-08-05T06:51:17Z</time>
      </trkpt>
      <trkpt lat="45.40984" lon="1.9374">
        <ele>652</ele>
        <time>2022-08-05T06:51:19Z</time>
      </trkpt>
      <trkpt lat="45.40982" lon="1.93744">
        <ele>652</ele>
        <time>2022-08-05T06:51:21Z</time>
      </trkpt>
      <trkpt lat="45.40981" lon="1.93749">
        <ele>652.1</ele>
        <time>2022-08-05T06:51:23Z</time>
      </trkpt>
      <trkpt lat="45.40979" lon="1.93752">
        <ele>652</ele>
        <time>2022-08-05T06:51:25Z</time>
      </trkpt>
      <trkpt lat="45.40976" lon="1.93757">
        <ele>651.9</ele>
        <time>2022-08-05T06:51:27Z</time>
      </trkpt>
      <trkpt lat="45.40972" lon="1.93761">
        <ele>651.7</ele>
        <time>2022-08-05T06:51:29Z</time>
      </trkpt>
      <trkpt lat="45.40968" lon="1.93765">
        <ele>651.5</ele>
        <time>2022-08-05T06:51:31Z</time>
      </trkpt>
      <trkpt lat="45.40962" lon="1.93765">
        <ele>651.2</ele>
        <time>2022-08-05T06:51:33Z</time>
      </trkpt>
      <trkpt lat="45.40955" lon="1.93761">
        <ele>650.7</ele>
        <time>2022-08-05T06:51:35Z</time>
      </trkpt>
      <trkpt lat="45.40948" lon="1.93756">
        <ele>650.4</ele>
        <time>2022-08-05T06:51:37Z</time>
      </trkpt>
      <trkpt lat="45.40939" lon="1.93752">
        <ele>650</ele>
        <time>2022-08-05T06:51:39Z</time>
      </trkpt>
      <trkpt lat="45.4093" lon="1.93753">
        <ele>649.5</ele>
        <time>2022-08-05T06:51:41Z</time>
      </trkpt>
      <trkpt lat="45.40925" lon="1.93764">
        <ele>649</ele>
        <time>2022-08-05T06:51:43Z</time>
      </trkpt>
      <trkpt lat="45.40923" lon="1.93778">
        <ele>648.5</ele>
        <time>2022-08-05T06:51:45Z</time>
      </trkpt>
      <trkpt lat="45.40924" lon="1.93792">
        <ele>648.1</ele>
        <time>2022-08-05T06:51:47Z</time>
      </trkpt>
      <trkpt lat="45.40925" lon="1.93807">
        <ele>647.7</ele>
        <time>2022-08-05T06:51:49Z</time>
      </trkpt>
      <trkpt lat="45.40925" lon="1.93822">
        <ele>647.2</ele>
        <time>2022-08-05T06:51:51Z</time>
      </trkpt>
      <trkpt lat="45.40924" lon="1.93837">
        <ele>647</ele>
        <time>2022-08-05T06:51:53Z</time>
      </trkpt>
      <trkpt lat="45.40924" lon="1.93852">
        <ele>647.5</ele>
        <time>2022-08-05T06:51:55Z</time>
      </trkpt>
      <trkpt lat="45.40922" lon="1.93865">
        <ele>648</ele>
        <time>2022-08-05T06:51:57Z</time>
      </trkpt>
      <trkpt lat="45.4092" lon="1.93878">
        <ele>648.3</ele>
        <time>2022-08-05T06:51:59Z</time>
      </trkpt>
      <trkpt lat="45.40916" lon="1.93888">
        <ele>648.6</ele>
        <time>2022-08-05T06:52:01Z</time>
      </trkpt>
      <trkpt lat="45.40914" lon="1.93895">
        <ele>648.8</ele>
        <time>2022-08-05T06:52:03Z</time>
      </trkpt>
      <trkpt lat="45.40913" lon="1.939">
        <ele>649</ele>
        <time>2022-08-05T06:52:05Z</time>
      </trkpt>
      <trkpt lat="45.4091" lon="1.93904">
        <ele>649.1</ele>
        <time>2022-08-05T06:52:07Z</time>
      </trkpt>
      <trkpt lat="45.40908" lon="1.93909">
        <ele>649.3</ele>
        <time>2022-08-05T06:52:09Z</time>
      </trkpt>
      <trkpt lat="45.40906" lon="1.93913">
        <ele>649.5</ele>
        <time>2022-08-05T06:52:11Z</time>
      </trkpt>
      <trkpt lat="45.40906" lon="1.93919">
        <ele>649.8</ele>
        <time>2022-08-05T06:52:13Z</time>
      </trkpt>
      <trkpt lat="45.40904" lon="1.93922">
        <ele>650</ele>
        <time>2022-08-05T06:52:15Z</time>
      </trkpt>
      <trkpt lat="45.40901" lon="1.93927">
        <ele>650.2</ele>
        <time>2022-08-05T06:52:17Z</time>
      </trkpt>
      <trkpt lat="45.409" lon="1.9393">
        <ele>650.4</ele>
        <time>2022-08-05T06:52:19Z</time>
      </trkpt>
      <trkpt lat="45.40899" lon="1.93934">
        <ele>650.6</ele>
        <time>2022-08-05T06:52:21Z</time>
      </trkpt>
      <trkpt lat="45.40898" lon="1.93939">
        <ele>650.9</ele>
        <time>2022-08-05T06:52:23Z</time>
      </trkpt>
      <trkpt lat="45.40897" lon="1.93944">
        <ele>651.2</ele>
        <time>2022-08-05T06:52:25Z</time>
      </trkpt>
      <trkpt lat="45.40896" lon="1.93949">
        <ele>651.5</ele>
        <time>2022-08-05T06:52:27Z</time>
      </trkpt>
      <trkpt lat="45.40895" lon="1.93952">
        <ele>651.7</ele>
        <time>2022-08-05T06:52:29Z</time>
      </trkpt>
      <trkpt lat="45.40893" lon="1.93956">
        <ele>651.8</ele>
        <time>2022-08-05T06:52:31Z</time>
      </trkpt>
      <trkpt lat="45.40891" lon="1.93959">
        <ele>652</ele>
        <time>2022-08-05T06:52:33Z</time>
      </trkpt>
      <trkpt lat="45.40889" lon="1.93964">
        <ele>652.2</ele>
        <time>2022-08-05T06:52:35Z</time>
      </trkpt>
      <trkpt lat="45.40888" lon="1.93968">
        <ele>652.4</ele>
        <time>2022-08-05T06:52:37Z</time>
      </trkpt>
      <trkpt lat="45.40886" lon="1.93972">
        <ele>652.6</ele>
        <time>2022-08-05T06:52:39Z</time>
      </trkpt>
      <trkpt lat="45.40884" lon="1.93976">
        <ele>652.8</ele>
        <time>2022-08-05T06:52:41Z</time>
      </trkpt>
      <trkpt lat="45.40883" lon="1.9398">
        <ele>653</ele>
        <time>2022-08-05T06:52:43Z</time>
      </trkpt>
      <trkpt lat="45.40881" lon="1.93983">
        <ele>653.2</ele>
        <time>2022-08-05T06:52:45Z</time>
      </trkpt>
      <trkpt lat="45.40879" lon="1.93987">
        <ele>653.3</ele>
        <time>2022-08-05T06:52:47Z</time>
      </trkpt>
      <trkpt lat="45.40877" lon="1.9399">
        <ele>653.5</ele>
        <time>2022-08-05T06:52:49Z</time>
      </trkpt>
      <trkpt lat="45.40876" lon="1.93994">
        <ele>653.6</ele>
        <time>2022-08-05T06:52:51Z</time>
      </trkpt>
      <trkpt lat="45.40874" lon="1.93998">
        <ele>653.8</ele>
        <time>2022-08-05T06:52:53Z</time>
      </trkpt>
      <trkpt lat="45.40871" lon="1.94002">
        <ele>654.1</ele>
        <time>2022-08-05T06:52:55Z</time>
      </trkpt>
      <trkpt lat="45.40869" lon="1.94006">
        <ele>654.4</ele>
        <time>2022-08-05T06:52:57Z</time>
      </trkpt>
      <trkpt lat="45.40865" lon="1.94009">
        <ele>654.6</ele>
        <time>2022-08-05T06:52:59Z</time>
      </trkpt>
      <trkpt lat="45.40861" lon="1.94012">
        <ele>654.6</ele>
        <time>2022-08-05T06:53:01Z</time>
      </trkpt>
      <trkpt lat="45.40857" lon="1.94015">
        <ele>654.8</ele>
        <time>2022-08-05T06:53:03Z</time>
      </trkpt>
      <trkpt lat="45.40854" lon="1.94017">
        <ele>655</ele>
        <time>2022-08-05T06:53:05Z</time>
      </trkpt>
      <trkpt lat="45.4085" lon="1.94019">
        <ele>655</ele>
        <time>2022-08-05T06:53:07Z</time>
      </trkpt>
      <trkpt lat="45.40846" lon="1.94022">
        <ele>655.2</ele>
        <time>2022-08-05T06:53:09Z</time>
      </trkpt>
      <trkpt lat="45.40842" lon="1.94024">
        <ele>655.3</ele>
        <time>2022-08-05T06:53:11Z</time>
      </trkpt>
      <trkpt lat="45.40838" lon="1.94027">
        <ele>655.4</ele>
        <time>2022-08-05T06:53:13Z</time>
      </trkpt>
      <trkpt lat="45.40834" lon="1.94028">
        <ele>655.4</ele>
        <time>2022-08-05T06:53:15Z</time>
      </trkpt>
      <trkpt lat="45.4083" lon="1.9403">
        <ele>655.7</ele>
        <time>2022-08-05T06:53:17Z</time>
      </trkpt>
      <trkpt lat="45.40825" lon="1.94032">
        <ele>655.9</ele>
        <time>2022-08-05T06:53:19Z</time>
      </trkpt>
      <trkpt lat="45.40821" lon="1.94032">
        <ele>656</ele>
        <time>2022-08-05T06:53:21Z</time>
      </trkpt>
      <trkpt lat="45.40817" lon="1.94032">
        <ele>656</ele>
        <time>2022-08-05T06:53:23Z</time>
      </trkpt>
      <trkpt lat="45.40813" lon="1.94031">
        <ele>656</ele>
        <time>2022-08-05T06:53:25Z</time>
      </trkpt>
      <trkpt lat="45.40808" lon="1.9403">
        <ele>655.9</ele>
        <time>2022-08-05T06:53:27Z</time>
      </trkpt>
      <trkpt lat="45.40804" lon="1.94029">
        <ele>655.8</ele>
        <time>2022-08-05T06:53:29Z</time>
      </trkpt>
      <trkpt lat="45.408" lon="1.94028">
        <ele>655.7</ele>
        <time>2022-08-05T06:53:31Z</time>
      </trkpt>
      <trkpt lat="45.40795" lon="1.94026">
        <ele>655.5</ele>
        <time>2022-08-05T06:53:33Z</time>
      </trkpt>
      <trkpt lat="45.40791" lon="1.94025">
        <ele>655.4</ele>
        <time>2022-08-05T06:53:35Z</time>
      </trkpt>
      <trkpt lat="45.40786" lon="1.94023">
        <ele>655.2</ele>
        <time>2022-08-05T06:53:37Z</time>
      </trkpt>
      <trkpt lat="45.40781" lon="1.94021">
        <ele>655</ele>
        <time>2022-08-05T06:53:39Z</time>
      </trkpt>
      <trkpt lat="45.40776" lon="1.94018">
        <ele>654.7</ele>
        <time>2022-08-05T06:53:41Z</time>
      </trkpt>
      <trkpt lat="45.40771" lon="1.94017">
        <ele>654.5</ele>
        <time>2022-08-05T06:53:43Z</time>
      </trkpt>
      <trkpt lat="45.40766" lon="1.94015">
        <ele>654.2</ele>
        <time>2022-08-05T06:53:45Z</time>
      </trkpt>
      <trkpt lat="45.40761" lon="1.94013">
        <ele>654</ele>
        <time>2022-08-05T06:53:47Z</time>
      </trkpt>
      <trkpt lat="45.40756" lon="1.9401">
        <ele>653.6</ele>
        <time>2022-08-05T06:53:49Z</time>
      </trkpt>
      <trkpt lat="45.40751" lon="1.94008">
        <ele>653.2</ele>
        <time>2022-08-05T06:53:51Z</time>
      </trkpt>
      <trkpt lat="45.40745" lon="1.94005">
        <ele>653</ele>
        <time>2022-08-05T06:53:53Z</time>
      </trkpt>
      <trkpt lat="45.4074" lon="1.94002">
        <ele>652.7</ele>
        <time>2022-08-05T06:53:55Z</time>
      </trkpt>
      <trkpt lat="45.40733" lon="1.93999">
        <ele>652.7</ele>
        <time>2022-08-05T06:53:57Z</time>
      </trkpt>
      <trkpt lat="45.40727" lon="1.93998">
        <ele>652.9</ele>
        <time>2022-08-05T06:53:59Z</time>
      </trkpt>
      <trkpt lat="45.40721" lon="1.93996">
        <ele>653.1</ele>
        <time>2022-08-05T06:54:01Z</time>
      </trkpt>
      <trkpt lat="45.40714" lon="1.93995">
        <ele>653.3</ele>
        <time>2022-08-05T06:54:03Z</time>
      </trkpt>
      <trkpt lat="45.40707" lon="1.93994">
        <ele>653.6</ele>
        <time>2022-08-05T06:54:05Z</time>
      </trkpt>
      <trkpt lat="45.407" lon="1.93995">
        <ele>654</ele>
        <time>2022-08-05T06:54:07Z</time>
      </trkpt>
      <trkpt lat="45.40694" lon="1.93997">
        <ele>654.5</ele>
        <time>2022-08-05T06:54:09Z</time>
      </trkpt>
      <trkpt lat="45.40688" lon="1.93999">
        <ele>654.9</ele>
        <time>2022-08-05T06:54:11Z</time>
      </trkpt>
      <trkpt lat="45.40681" lon="1.94002">
        <ele>655.5</ele>
        <time>2022-08-05T06:54:13Z</time>
      </trkpt>
      <trkpt lat="45.40675" lon="1.94006">
        <ele>656.1</ele>
        <time>2022-08-05T06:54:15Z</time>
      </trkpt>
      <trkpt lat="45.40669" lon="1.9401">
        <ele>656.6</ele>
        <time>2022-08-05T06:54:17Z</time>
      </trkpt>
      <trkpt lat="45.40663" lon="1.94014">
        <ele>657.1</ele>
        <time>2022-08-05T06:54:19Z</time>
      </trkpt>
      <trkpt lat="45.40657" lon="1.94018">
        <ele>657.6</ele>
        <time>2022-08-05T06:54:21Z</time>
      </trkpt>
      <trkpt lat="45.40652" lon="1.94022">
        <ele>658</ele>
        <time>2022-08-05T06:54:23Z</time>
      </trkpt>
      <trkpt lat="45.40647" lon="1.94027">
        <ele>658.4</ele>
        <time>2022-08-05T06:54:25Z</time>
      </trkpt>
      <trkpt lat="45.40641" lon="1.94031">
        <ele>658.7</ele>
        <time>2022-08-05T06:54:27Z</time>
      </trkpt>
      <trkpt lat="45.40636" lon="1.94035">
        <ele>658.9</ele>
        <time>2022-08-05T06:54:29Z</time>
      </trkpt>
      <trkpt lat="45.40631" lon="1.94039">
        <ele>659.1</ele>
        <time>2022-08-05T06:54:31Z</time>
      </trkpt>
      <trkpt lat="45.40625" lon="1.94044">
        <ele>659.3</ele>
        <time>2022-08-05T06:54:33Z</time>
      </trkpt>
      <trkpt lat="45.40619" lon="1.94048">
        <ele>659.4</ele>
        <time>2022-08-05T06:54:35Z</time>
      </trkpt>
      <trkpt lat="45.40612" lon="1.94052">
        <ele>659.5</ele>
        <time>2022-08-05T06:54:37Z</time>
      </trkpt>
      <trkpt lat="45.40606" lon="1.94057">
        <ele>659.5</ele>
        <time>2022-08-05T06:54:39Z</time>
      </trkpt>
      <trkpt lat="45.406" lon="1.94061">
        <ele>659.5</ele>
        <time>2022-08-05T06:54:41Z</time>
      </trkpt>
      <trkpt lat="45.40594" lon="1.94066">
        <ele>659.4</ele>
        <time>2022-08-05T06:54:43Z</time>
      </trkpt>
      <trkpt lat="45.40587" lon="1.9407">
        <ele>659.3</ele>
        <time>2022-08-05T06:54:45Z</time>
      </trkpt>
      <trkpt lat="45.40582" lon="1.94077">
        <ele>658.9</ele>
        <time>2022-08-05T06:54:47Z</time>
      </trkpt>
      <trkpt lat="45.40576" lon="1.94084">
        <ele>658.1</ele>
        <time>2022-08-05T06:54:49Z</time>
      </trkpt>
      <trkpt lat="45.4057" lon="1.94091">
        <ele>657.3</ele>
        <time>2022-08-05T06:54:51Z</time>
      </trkpt>
      <trkpt lat="45.40563" lon="1.94099">
        <ele>656.5</ele>
        <time>2022-08-05T06:54:53Z</time>
      </trkpt>
      <trkpt lat="45.40555" lon="1.94108">
        <ele>655.6</ele>
        <time>2022-08-05T06:54:55Z</time>
      </trkpt>
      <trkpt lat="45.40549" lon="1.94119">
        <ele>654.8</ele>
        <time>2022-08-05T06:54:57Z</time>
      </trkpt>
      <trkpt lat="45.4054" lon="1.94127">
        <ele>653.8</ele>
        <time>2022-08-05T06:54:59Z</time>
      </trkpt>
      <trkpt lat="45.40532" lon="1.94137">
        <ele>652.9</ele>
        <time>2022-08-05T06:55:01Z</time>
      </trkpt>
      <trkpt lat="45.40524" lon="1.94148">
        <ele>651.9</ele>
        <time>2022-08-05T06:55:03Z</time>
      </trkpt>
      <trkpt lat="45.40516" lon="1.94159">
        <ele>650.9</ele>
        <time>2022-08-05T06:55:05Z</time>
      </trkpt>
      <trkpt lat="45.40507" lon="1.9417">
        <ele>650</ele>
        <time>2022-08-05T06:55:07Z</time>
      </trkpt>
      <trkpt lat="45.40498" lon="1.94181">
        <ele>649.6</ele>
        <time>2022-08-05T06:55:09Z</time>
      </trkpt>
      <trkpt lat="45.40487" lon="1.94191">
        <ele>649.3</ele>
        <time>2022-08-05T06:55:11Z</time>
      </trkpt>
      <trkpt lat="45.40479" lon="1.94203">
        <ele>649.2</ele>
        <time>2022-08-05T06:55:13Z</time>
      </trkpt>
      <trkpt lat="45.40469" lon="1.94215">
        <ele>649.2</ele>
        <time>2022-08-05T06:55:15Z</time>
      </trkpt>
      <trkpt lat="45.40459" lon="1.94227">
        <ele>649.3</ele>
        <time>2022-08-05T06:55:17Z</time>
      </trkpt>
      <trkpt lat="45.40449" lon="1.94239">
        <ele>649.5</ele>
        <time>2022-08-05T06:55:19Z</time>
      </trkpt>
      <trkpt lat="45.4044" lon="1.94252">
        <ele>649.7</ele>
        <time>2022-08-05T06:55:21Z</time>
      </trkpt>
      <trkpt lat="45.40428" lon="1.94262">
        <ele>648.9</ele>
        <time>2022-08-05T06:55:23Z</time>
      </trkpt>
      <trkpt lat="45.40416" lon="1.9427">
        <ele>648.2</ele>
        <time>2022-08-05T06:55:25Z</time>
      </trkpt>
      <trkpt lat="45.40402" lon="1.94273">
        <ele>647.7</ele>
        <time>2022-08-05T06:55:27Z</time>
      </trkpt>
      <trkpt lat="45.4039" lon="1.94275">
        <ele>647.2</ele>
        <time>2022-08-05T06:55:29Z</time>
      </trkpt>
      <trkpt lat="45.40375" lon="1.94277">
        <ele>646.7</ele>
        <time>2022-08-05T06:55:31Z</time>
      </trkpt>
      <trkpt lat="45.40362" lon="1.94279">
        <ele>646.1</ele>
        <time>2022-08-05T06:55:33Z</time>
      </trkpt>
      <trkpt lat="45.40347" lon="1.94283">
        <ele>645.6</ele>
        <time>2022-08-05T06:55:35Z</time>
      </trkpt>
      <trkpt lat="45.40334" lon="1.94285">
        <ele>645</ele>
        <time>2022-08-05T06:55:37Z</time>
      </trkpt>
      <trkpt lat="45.40322" lon="1.9429">
        <ele>644.1</ele>
        <time>2022-08-05T06:55:39Z</time>
      </trkpt>
      <trkpt lat="45.40313" lon="1.94298">
        <ele>643.5</ele>
        <time>2022-08-05T06:55:41Z</time>
      </trkpt>
      <trkpt lat="45.40305" lon="1.94307">
        <ele>642.9</ele>
        <time>2022-08-05T06:55:43Z</time>
      </trkpt>
      <trkpt lat="45.40295" lon="1.94314">
        <ele>642.4</ele>
        <time>2022-08-05T06:55:45Z</time>
      </trkpt>
      <trkpt lat="45.40288" lon="1.94322">
        <ele>642</ele>
        <time>2022-08-05T06:55:47Z</time>
      </trkpt>
      <trkpt lat="45.40278" lon="1.94331">
        <ele>641.6</ele>
        <time>2022-08-05T06:55:49Z</time>
      </trkpt>
      <trkpt lat="45.40265" lon="1.94337">
        <ele>640.6</ele>
        <time>2022-08-05T06:55:51Z</time>
      </trkpt>
      <trkpt lat="45.40251" lon="1.94342">
        <ele>639.4</ele>
        <time>2022-08-05T06:55:53Z</time>
      </trkpt>
      <trkpt lat="45.40238" lon="1.9435">
        <ele>637.9</ele>
        <time>2022-08-05T06:55:55Z</time>
      </trkpt>
      <trkpt lat="45.40226" lon="1.94361">
        <ele>636.4</ele>
        <time>2022-08-05T06:55:57Z</time>
      </trkpt>
      <trkpt lat="45.40213" lon="1.94371">
        <ele>635.3</ele>
        <time>2022-08-05T06:55:59Z</time>
      </trkpt>
      <trkpt lat="45.40199" lon="1.94383">
        <ele>634.4</ele>
        <time>2022-08-05T06:56:01Z</time>
      </trkpt>
      <trkpt lat="45.40187" lon="1.94395">
        <ele>634</ele>
        <time>2022-08-05T06:56:03Z</time>
      </trkpt>
      <trkpt lat="45.40175" lon="1.9441">
        <ele>633.9</ele>
        <time>2022-08-05T06:56:05Z</time>
      </trkpt>
      <trkpt lat="45.40166" lon="1.94426">
        <ele>634.2</ele>
        <time>2022-08-05T06:56:07Z</time>
      </trkpt>
      <trkpt lat="45.40157" lon="1.94441">
        <ele>634.7</ele>
        <time>2022-08-05T06:56:09Z</time>
      </trkpt>
      <trkpt lat="45.40148" lon="1.94455">
        <ele>635.3</ele>
        <time>2022-08-05T06:56:11Z</time>
      </trkpt>
      <trkpt lat="45.40139" lon="1.94469">
        <ele>635.8</ele>
        <time>2022-08-05T06:56:13Z</time>
      </trkpt>
      <trkpt lat="45.4013" lon="1.94479">
        <ele>636.3</ele>
        <time>2022-08-05T06:56:15Z</time>
      </trkpt>
      <trkpt lat="45.40121" lon="1.94487">
        <ele>636.7</ele>
        <time>2022-08-05T06:56:17Z</time>
      </trkpt>
      <trkpt lat="45.40109" lon="1.94489">
        <ele>637</ele>
        <time>2022-08-05T06:56:19Z</time>
      </trkpt>
      <trkpt lat="45.401" lon="1.94489">
        <ele>637.2</ele>
        <time>2022-08-05T06:56:21Z</time>
      </trkpt>
      <trkpt lat="45.4009" lon="1.94489">
        <ele>637.4</ele>
        <time>2022-08-05T06:56:23Z</time>
      </trkpt>
      <trkpt lat="45.40081" lon="1.94486">
        <ele>637.6</ele>
        <time>2022-08-05T06:56:25Z</time>
      </trkpt>
      <trkpt lat="45.40072" lon="1.94482">
        <ele>637.6</ele>
        <time>2022-08-05T06:56:27Z</time>
      </trkpt>
      <trkpt lat="45.40063" lon="1.94477">
        <ele>637.7</ele>
        <time>2022-08-05T06:56:29Z</time>
      </trkpt>
      <trkpt lat="45.40055" lon="1.9447">
        <ele>637.6</ele>
        <time>2022-08-05T06:56:31Z</time>
      </trkpt>
      <trkpt lat="45.40047" lon="1.94463">
        <ele>637.6</ele>
        <time>2022-08-05T06:56:33Z</time>
      </trkpt>
      <trkpt lat="45.4004" lon="1.94458">
        <ele>637.5</ele>
        <time>2022-08-05T06:56:35Z</time>
      </trkpt>
      <trkpt lat="45.40032" lon="1.94456">
        <ele>637.6</ele>
        <time>2022-08-05T06:56:37Z</time>
      </trkpt>
      <trkpt lat="45.40025" lon="1.94452">
        <ele>637.7</ele>
        <time>2022-08-05T06:56:39Z</time>
      </trkpt>
      <trkpt lat="45.40017" lon="1.94453">
        <ele>637.9</ele>
        <time>2022-08-05T06:56:41Z</time>
      </trkpt>
      <trkpt lat="45.40009" lon="1.94452">
        <ele>638</ele>
        <time>2022-08-05T06:56:43Z</time>
      </trkpt>
      <trkpt lat="45.40001" lon="1.94453">
        <ele>638.3</ele>
        <time>2022-08-05T06:56:45Z</time>
      </trkpt>
      <trkpt lat="45.39995" lon="1.94454">
        <ele>638.1</ele>
        <time>2022-08-05T06:56:47Z</time>
      </trkpt>
      <trkpt lat="45.39988" lon="1.94454">
        <ele>637.8</ele>
        <time>2022-08-05T06:56:49Z</time>
      </trkpt>
      <trkpt lat="45.39981" lon="1.94455">
        <ele>637.5</ele>
        <time>2022-08-05T06:56:51Z</time>
      </trkpt>
      <trkpt lat="45.39975" lon="1.94455">
        <ele>637.2</ele>
        <time>2022-08-05T06:56:53Z</time>
      </trkpt>
      <trkpt lat="45.39969" lon="1.94457">
        <ele>636.9</ele>
        <time>2022-08-05T06:56:55Z</time>
      </trkpt>
      <trkpt lat="45.39962" lon="1.94458">
        <ele>636.7</ele>
        <time>2022-08-05T06:56:57Z</time>
      </trkpt>
      <trkpt lat="45.39955" lon="1.94459">
        <ele>636.3</ele>
        <time>2022-08-05T06:56:59Z</time>
      </trkpt>
      <trkpt lat="45.39947" lon="1.94461">
        <ele>636.1</ele>
        <time>2022-08-05T06:57:01Z</time>
      </trkpt>
      <trkpt lat="45.39939" lon="1.94461">
        <ele>635.7</ele>
        <time>2022-08-05T06:57:03Z</time>
      </trkpt>
      <trkpt lat="45.39931" lon="1.94463">
        <ele>635.3</ele>
        <time>2022-08-05T06:57:05Z</time>
      </trkpt>
      <trkpt lat="45.39922" lon="1.94466">
        <ele>635</ele>
        <time>2022-08-05T06:57:07Z</time>
      </trkpt>
      <trkpt lat="45.39913" lon="1.94467">
        <ele>634.7</ele>
        <time>2022-08-05T06:57:09Z</time>
      </trkpt>
      <trkpt lat="45.39904" lon="1.94471">
        <ele>634.4</ele>
        <time>2022-08-05T06:57:11Z</time>
      </trkpt>
      <trkpt lat="45.39894" lon="1.94473">
        <ele>634.2</ele>
        <time>2022-08-05T06:57:13Z</time>
      </trkpt>
      <trkpt lat="45.39884" lon="1.94477">
        <ele>633.9</ele>
        <time>2022-08-05T06:57:15Z</time>
      </trkpt>
      <trkpt lat="45.39874" lon="1.94481">
        <ele>633.7</ele>
        <time>2022-08-05T06:57:17Z</time>
      </trkpt>
      <trkpt lat="45.39863" lon="1.94486">
        <ele>633.5</ele>
        <time>2022-08-05T06:57:19Z</time>
      </trkpt>
      <trkpt lat="45.39853" lon="1.9449">
        <ele>633.2</ele>
        <time>2022-08-05T06:57:21Z</time>
      </trkpt>
      <trkpt lat="45.39842" lon="1.94493">
        <ele>633</ele>
        <time>2022-08-05T06:57:23Z</time>
      </trkpt>
      <trkpt lat="45.39831" lon="1.94497">
        <ele>632.8</ele>
        <time>2022-08-05T06:57:25Z</time>
      </trkpt>
      <trkpt lat="45.3982" lon="1.945">
        <ele>632.7</ele>
        <time>2022-08-05T06:57:27Z</time>
      </trkpt>
      <trkpt lat="45.3981" lon="1.94505">
        <ele>632.5</ele>
        <time>2022-08-05T06:57:29Z</time>
      </trkpt>
      <trkpt lat="45.39801" lon="1.94508">
        <ele>632.3</ele>
        <time>2022-08-05T06:57:31Z</time>
      </trkpt>
      <trkpt lat="45.39793" lon="1.94511">
        <ele>632.1</ele>
        <time>2022-08-05T06:57:33Z</time>
      </trkpt>
      <trkpt lat="45.39783" lon="1.94507">
        <ele>631.8</ele>
        <time>2022-08-05T06:57:35Z</time>
      </trkpt>
      <trkpt lat="45.39778" lon="1.94492">
        <ele>631.4</ele>
        <time>2022-08-05T06:57:37Z</time>
      </trkpt>
      <trkpt lat="45.39776" lon="1.94476">
        <ele>630.7</ele>
        <time>2022-08-05T06:57:39Z</time>
      </trkpt>
      <trkpt lat="45.39773" lon="1.94459">
        <ele>629.9</ele>
        <time>2022-08-05T06:57:41Z</time>
      </trkpt>
      <trkpt lat="45.39771" lon="1.9444">
        <ele>629.2</ele>
        <time>2022-08-05T06:57:43Z</time>
      </trkpt>
      <trkpt lat="45.39767" lon="1.94421">
        <ele>628.4</ele>
        <time>2022-08-05T06:57:45Z</time>
      </trkpt>
      <trkpt lat="45.39764" lon="1.944">
        <ele>627</ele>
        <time>2022-08-05T06:57:47Z</time>
      </trkpt>
      <trkpt lat="45.39759" lon="1.94379">
        <ele>625.5</ele>
        <time>2022-08-05T06:57:49Z</time>
      </trkpt>
      <trkpt lat="45.39753" lon="1.94361">
        <ele>624.1</ele>
        <time>2022-08-05T06:57:51Z</time>
      </trkpt>
      <trkpt lat="45.39746" lon="1.94345">
        <ele>623.1</ele>
        <time>2022-08-05T06:57:53Z</time>
      </trkpt>
      <trkpt lat="45.39738" lon="1.94332">
        <ele>622.8</ele>
        <time>2022-08-05T06:57:55Z</time>
      </trkpt>
      <trkpt lat="45.39725" lon="1.94322">
        <ele>622.8</ele>
        <time>2022-08-05T06:57:57Z</time>
      </trkpt>
      <trkpt lat="45.39709" lon="1.94314">
        <ele>622.8</ele>
        <time>2022-08-05T06:57:59Z</time>
      </trkpt>
      <trkpt lat="45.39694" lon="1.94304">
        <ele>622.5</ele>
        <time>2022-08-05T06:58:01Z</time>
      </trkpt>
      <trkpt lat="45.39679" lon="1.94294">
        <ele>621.7</ele>
        <time>2022-08-05T06:58:03Z</time>
      </trkpt>
      <trkpt lat="45.39663" lon="1.94282">
        <ele>620.2</ele>
        <time>2022-08-05T06:58:05Z</time>
      </trkpt>
      <trkpt lat="45.39648" lon="1.94268">
        <ele>617.9</ele>
        <time>2022-08-05T06:58:07Z</time>
      </trkpt>
      <trkpt lat="45.39633" lon="1.94253">
        <ele>615.7</ele>
        <time>2022-08-05T06:58:09Z</time>
      </trkpt>
      <trkpt lat="45.39619" lon="1.94236">
        <ele>614.5</ele>
        <time>2022-08-05T06:58:11Z</time>
      </trkpt>
      <trkpt lat="45.39606" lon="1.94216">
        <ele>613.3</ele>
        <time>2022-08-05T06:58:13Z</time>
      </trkpt>
      <trkpt lat="45.39597" lon="1.94197">
        <ele>612.3</ele>
        <time>2022-08-05T06:58:15Z</time>
      </trkpt>
      <trkpt lat="45.39592" lon="1.94181">
        <ele>611.5</ele>
        <time>2022-08-05T06:58:17Z</time>
      </trkpt>
      <trkpt lat="45.39589" lon="1.94169">
        <ele>610.9</ele>
        <time>2022-08-05T06:58:19Z</time>
      </trkpt>
      <trkpt lat="45.39587" lon="1.94157">
        <ele>610.7</ele>
        <time>2022-08-05T06:58:21Z</time>
      </trkpt>
      <trkpt lat="45.39584" lon="1.94151">
        <ele>610.8</ele>
        <time>2022-08-05T06:58:23Z</time>
      </trkpt>
      <trkpt lat="45.39579" lon="1.94152">
        <ele>610.6</ele>
        <time>2022-08-05T06:58:25Z</time>
      </trkpt>
      <trkpt lat="45.39574" lon="1.94152">
        <ele>610.3</ele>
        <time>2022-08-05T06:58:27Z</time>
      </trkpt>
      <trkpt lat="45.39567" lon="1.94147">
        <ele>609.9</ele>
        <time>2022-08-05T06:58:29Z</time>
      </trkpt>
      <trkpt lat="45.3956" lon="1.94141">
        <ele>609.5</ele>
        <time>2022-08-05T06:58:31Z</time>
      </trkpt>
      <trkpt lat="45.39555" lon="1.94136">
        <ele>609.3</ele>
        <time>2022-08-05T06:58:33Z</time>
      </trkpt>
      <trkpt lat="45.39551" lon="1.94132">
        <ele>609.2</ele>
        <time>2022-08-05T06:58:35Z</time>
      </trkpt>
      <trkpt lat="45.3955" lon="1.9413">
        <ele>609.2</ele>
        <time>2022-08-05T06:58:37Z</time>
      </trkpt>
      <trkpt lat="45.39548" lon="1.9413">
        <ele>609.1</ele>
        <time>2022-08-05T06:58:39Z</time>
      </trkpt>
      <trkpt lat="45.39547" lon="1.94133">
        <ele>609</ele>
        <time>2022-08-05T06:58:41Z</time>
      </trkpt>
      <trkpt lat="45.39548" lon="1.94136">
        <ele>609</ele>
        <time>2022-08-05T06:58:43Z</time>
      </trkpt>
      <trkpt lat="45.39551" lon="1.94136">
        <ele>609.1</ele>
        <time>2022-08-05T06:58:45Z</time>
      </trkpt>
      <trkpt lat="45.39553" lon="1.94137">
        <ele>609.3</ele>
        <time>2022-08-05T06:58:47Z</time>
      </trkpt>
      <trkpt lat="45.39555" lon="1.94139">
        <ele>609.3</ele>
        <time>2022-08-05T06:58:49Z</time>
      </trkpt>
      <trkpt lat="45.39557" lon="1.94141">
        <ele>609.4</ele>
        <time>2022-08-05T06:58:51Z</time>
      </trkpt>
      <trkpt lat="45.3956" lon="1.94143">
        <ele>609.5</ele>
        <time>2022-08-05T06:58:53Z</time>
      </trkpt>
      <trkpt lat="45.39563" lon="1.94145">
        <ele>609.6</ele>
        <time>2022-08-05T06:58:55Z</time>
      </trkpt>
      <trkpt lat="45.39566" lon="1.94148">
        <ele>609.8</ele>
        <time>2022-08-05T06:58:57Z</time>
      </trkpt>
      <trkpt lat="45.39569" lon="1.94151">
        <ele>610</ele>
        <time>2022-08-05T06:58:59Z</time>
      </trkpt>
      <trkpt lat="45.39572" lon="1.94154">
        <ele>610.2</ele>
        <time>2022-08-05T06:59:01Z</time>
      </trkpt>
      <trkpt lat="45.39576" lon="1.94156">
        <ele>610.4</ele>
        <time>2022-08-05T06:59:03Z</time>
      </trkpt>
      <trkpt lat="45.39579" lon="1.94158">
        <ele>610.6</ele>
        <time>2022-08-05T06:59:05Z</time>
      </trkpt>
      <trkpt lat="45.39583" lon="1.94158">
        <ele>610.9</ele>
        <time>2022-08-05T06:59:07Z</time>
      </trkpt>
      <trkpt lat="45.39585" lon="1.94155">
        <ele>610.8</ele>
        <time>2022-08-05T06:59:09Z</time>
      </trkpt>
      <trkpt lat="45.39587" lon="1.94149">
        <ele>610.6</ele>
        <time>2022-08-05T06:59:11Z</time>
      </trkpt>
      <trkpt lat="45.39587" lon="1.9414">
        <ele>610.5</ele>
        <time>2022-08-05T06:59:13Z</time>
      </trkpt>
      <trkpt lat="45.39586" lon="1.9413">
        <ele>610.4</ele>
        <time>2022-08-05T06:59:15Z</time>
      </trkpt>
      <trkpt lat="45.39586" lon="1.9412">
        <ele>610.3</ele>
        <time>2022-08-05T06:59:17Z</time>
      </trkpt>
      <trkpt lat="45.39586" lon="1.94107">
        <ele>610.1</ele>
        <time>2022-08-05T06:59:19Z</time>
      </trkpt>
      <trkpt lat="45.39585" lon="1.94094">
        <ele>610</ele>
        <time>2022-08-05T06:59:21Z</time>
      </trkpt>
      <trkpt lat="45.39586" lon="1.9408">
        <ele>610.1</ele>
        <time>2022-08-05T06:59:23Z</time>
      </trkpt>
      <trkpt lat="45.39589" lon="1.94066">
        <ele>611.5</ele>
        <time>2022-08-05T06:59:25Z</time>
      </trkpt>
      <trkpt lat="45.39593" lon="1.94051">
        <ele>612.8</ele>
        <time>2022-08-05T06:59:27Z</time>
      </trkpt>
      <trkpt lat="45.39599" lon="1.94037">
        <ele>613.8</ele>
        <time>2022-08-05T06:59:29Z</time>
      </trkpt>
      <trkpt lat="45.39607" lon="1.94024">
        <ele>614.5</ele>
        <time>2022-08-05T06:59:31Z</time>
      </trkpt>
      <trkpt lat="45.39618" lon="1.94012">
        <ele>614.9</ele>
        <time>2022-08-05T06:59:33Z</time>
      </trkpt>
      <trkpt lat="45.39629" lon="1.94004">
        <ele>614.8</ele>
        <time>2022-08-05T06:59:35Z</time>
      </trkpt>
      <trkpt lat="45.39641" lon="1.93995">
        <ele>614.5</ele>
        <time>2022-08-05T06:59:37Z</time>
      </trkpt>
      <trkpt lat="45.39653" lon="1.93988">
        <ele>614.2</ele>
        <time>2022-08-05T06:59:39Z</time>
      </trkpt>
      <trkpt lat="45.39666" lon="1.93979">
        <ele>614.1</ele>
        <time>2022-08-05T06:59:41Z</time>
      </trkpt>
      <trkpt lat="45.39679" lon="1.9397">
        <ele>613.6</ele>
        <time>2022-08-05T06:59:43Z</time>
      </trkpt>
      <trkpt lat="45.39692" lon="1.93961">
        <ele>613</ele>
        <time>2022-08-05T06:59:45Z</time>
      </trkpt>
      <trkpt lat="45.39704" lon="1.93952">
        <ele>612.4</ele>
        <time>2022-08-05T06:59:47Z</time>
      </trkpt>
      <trkpt lat="45.39716" lon="1.9394">
        <ele>611.9</ele>
        <time>2022-08-05T06:59:49Z</time>
      </trkpt>
      <trkpt lat="45.39725" lon="1.93924">
        <ele>611.8</ele>
        <time>2022-08-05T06:59:51Z</time>
      </trkpt>
      <trkpt lat="45.39731" lon="1.93905">
        <ele>611.8</ele>
        <time>2022-08-05T06:59:53Z</time>
      </trkpt>
      <trkpt lat="45.39735" lon="1.93886">
        <ele>611.7</ele>
        <time>2022-08-05T06:59:55Z</time>
      </trkpt>
      <trkpt lat="45.3974" lon="1.93865">
        <ele>611.7</ele>
        <time>2022-08-05T06:59:57Z</time>
      </trkpt>
      <trkpt lat="45.39745" lon="1.93845">
        <ele>612</ele>
        <time>2022-08-05T06:59:59Z</time>
      </trkpt>
      <trkpt lat="45.39749" lon="1.93826">
        <ele>611.9</ele>
        <time>2022-08-05T07:00:01Z</time>
      </trkpt>
      <trkpt lat="45.39755" lon="1.93805">
        <ele>610.9</ele>
        <time>2022-08-05T07:00:03Z</time>
      </trkpt>
      <trkpt lat="45.39761" lon="1.93788">
        <ele>609.9</ele>
        <time>2022-08-05T07:00:05Z</time>
      </trkpt>
      <trkpt lat="45.39767" lon="1.93768">
        <ele>608.6</ele>
        <time>2022-08-05T07:00:07Z</time>
      </trkpt>
      <trkpt lat="45.39773" lon="1.93749">
        <ele>607.2</ele>
        <time>2022-08-05T07:00:09Z</time>
      </trkpt>
      <trkpt lat="45.3978" lon="1.93731">
        <ele>606.1</ele>
        <time>2022-08-05T07:00:11Z</time>
      </trkpt>
      <trkpt lat="45.39787" lon="1.93713">
        <ele>605.2</ele>
        <time>2022-08-05T07:00:13Z</time>
      </trkpt>
      <trkpt lat="45.39797" lon="1.93696">
        <ele>604.3</ele>
        <time>2022-08-05T07:00:15Z</time>
      </trkpt>
      <trkpt lat="45.39809" lon="1.93681">
        <ele>603.7</ele>
        <time>2022-08-05T07:00:17Z</time>
      </trkpt>
      <trkpt lat="45.39821" lon="1.9367">
        <ele>603.4</ele>
        <time>2022-08-05T07:00:19Z</time>
      </trkpt>
      <trkpt lat="45.39833" lon="1.93656">
        <ele>604</ele>
        <time>2022-08-05T07:00:21Z</time>
      </trkpt>
      <trkpt lat="45.39844" lon="1.93642">
        <ele>605.6</ele>
        <time>2022-08-05T07:00:23Z</time>
      </trkpt>
      <trkpt lat="45.39855" lon="1.93624">
        <ele>606.8</ele>
        <time>2022-08-05T07:00:25Z</time>
      </trkpt>
      <trkpt lat="45.39863" lon="1.93605">
        <ele>607.4</ele>
        <time>2022-08-05T07:00:27Z</time>
      </trkpt>
      <trkpt lat="45.39869" lon="1.93586">
        <ele>607.5</ele>
        <time>2022-08-05T07:00:29Z</time>
      </trkpt>
      <trkpt lat="45.39874" lon="1.93565">
        <ele>606.2</ele>
        <time>2022-08-05T07:00:31Z</time>
      </trkpt>
      <trkpt lat="45.39879" lon="1.93546">
        <ele>604.5</ele>
        <time>2022-08-05T07:00:33Z</time>
      </trkpt>
      <trkpt lat="45.39883" lon="1.93528">
        <ele>603</ele>
        <time>2022-08-05T07:00:35Z</time>
      </trkpt>
      <trkpt lat="45.39887" lon="1.93511">
        <ele>601.3</ele>
        <time>2022-08-05T07:00:37Z</time>
      </trkpt>
      <trkpt lat="45.39891" lon="1.93495">
        <ele>599.8</ele>
        <time>2022-08-05T07:00:39Z</time>
      </trkpt>
      <trkpt lat="45.39896" lon="1.93479">
        <ele>598.6</ele>
        <time>2022-08-05T07:00:41Z</time>
      </trkpt>
      <trkpt lat="45.399" lon="1.93465">
        <ele>597.6</ele>
        <time>2022-08-05T07:00:43Z</time>
      </trkpt>
      <trkpt lat="45.39906" lon="1.93454">
        <ele>596.4</ele>
        <time>2022-08-05T07:00:45Z</time>
      </trkpt>
      <trkpt lat="45.39914" lon="1.93442">
        <ele>595</ele>
        <time>2022-08-05T07:00:47Z</time>
      </trkpt>
      <trkpt lat="45.39922" lon="1.9343">
        <ele>594.4</ele>
        <time>2022-08-05T07:00:49Z</time>
      </trkpt>
      <trkpt lat="45.39931" lon="1.93418">
        <ele>594.2</ele>
        <time>2022-08-05T07:00:51Z</time>
      </trkpt>
      <trkpt lat="45.39938" lon="1.93407">
        <ele>594.5</ele>
        <time>2022-08-05T07:00:53Z</time>
      </trkpt>
      <trkpt lat="45.39945" lon="1.93396">
        <ele>594.8</ele>
        <time>2022-08-05T07:00:55Z</time>
      </trkpt>
      <trkpt lat="45.39953" lon="1.93385">
        <ele>595.1</ele>
        <time>2022-08-05T07:00:57Z</time>
      </trkpt>
      <trkpt lat="45.39959" lon="1.93375">
        <ele>595.3</ele>
        <time>2022-08-05T07:00:59Z</time>
      </trkpt>
      <trkpt lat="45.39963" lon="1.93364">
        <ele>595.4</ele>
        <time>2022-08-05T07:01:01Z</time>
      </trkpt>
      <trkpt lat="45.39967" lon="1.93356">
        <ele>595.5</ele>
        <time>2022-08-05T07:01:03Z</time>
      </trkpt>
      <trkpt lat="45.39967" lon="1.93347">
        <ele>595.6</ele>
        <time>2022-08-05T07:01:05Z</time>
      </trkpt>
      <trkpt lat="45.39962" lon="1.93342">
        <ele>595.8</ele>
        <time>2022-08-05T07:01:07Z</time>
      </trkpt>
      <trkpt lat="45.39955" lon="1.93339">
        <ele>596</ele>
        <time>2022-08-05T07:01:09Z</time>
      </trkpt>
      <trkpt lat="45.39948" lon="1.93337">
        <ele>596.2</ele>
        <time>2022-08-05T07:01:11Z</time>
      </trkpt>
      <trkpt lat="45.39942" lon="1.93334">
        <ele>596.4</ele>
        <time>2022-08-05T07:01:13Z</time>
      </trkpt>
      <trkpt lat="45.39937" lon="1.93331">
        <ele>596.5</ele>
        <time>2022-08-05T07:01:15Z</time>
      </trkpt>
      <trkpt lat="45.39933" lon="1.93326">
        <ele>596.6</ele>
        <time>2022-08-05T07:01:17Z</time>
      </trkpt>
      <trkpt lat="45.39929" lon="1.93321">
        <ele>596.8</ele>
        <time>2022-08-05T07:01:19Z</time>
      </trkpt>
      <trkpt lat="45.39926" lon="1.93314">
        <ele>596.9</ele>
        <time>2022-08-05T07:01:21Z</time>
      </trkpt>
      <trkpt lat="45.39923" lon="1.93308">
        <ele>597.1</ele>
        <time>2022-08-05T07:01:23Z</time>
      </trkpt>
      <trkpt lat="45.39921" lon="1.93301">
        <ele>597.2</ele>
        <time>2022-08-05T07:01:25Z</time>
      </trkpt>
      <trkpt lat="45.3992" lon="1.93295">
        <ele>597.3</ele>
        <time>2022-08-05T07:01:27Z</time>
      </trkpt>
      <trkpt lat="45.39918" lon="1.93288">
        <ele>597.5</ele>
        <time>2022-08-05T07:01:29Z</time>
      </trkpt>
      <trkpt lat="45.39917" lon="1.93282">
        <ele>597.6</ele>
        <time>2022-08-05T07:01:31Z</time>
      </trkpt>
      <trkpt lat="45.39916" lon="1.93275">
        <ele>597.7</ele>
        <time>2022-08-05T07:01:33Z</time>
      </trkpt>
      <trkpt lat="45.39915" lon="1.9327">
        <ele>597.9</ele>
        <time>2022-08-05T07:01:35Z</time>
      </trkpt>
      <trkpt lat="45.39914" lon="1.93263">
        <ele>598.1</ele>
        <time>2022-08-05T07:01:37Z</time>
      </trkpt>
      <trkpt lat="45.39913" lon="1.93257">
        <ele>598.2</ele>
        <time>2022-08-05T07:01:39Z</time>
      </trkpt>
      <trkpt lat="45.39912" lon="1.9325">
        <ele>598.4</ele>
        <time>2022-08-05T07:01:41Z</time>
      </trkpt>
      <trkpt lat="45.39911" lon="1.93245">
        <ele>598.4</ele>
        <time>2022-08-05T07:01:43Z</time>
      </trkpt>
      <trkpt lat="45.39911" lon="1.93239">
        <ele>598.3</ele>
        <time>2022-08-05T07:01:45Z</time>
      </trkpt>
      <trkpt lat="45.3991" lon="1.93234">
        <ele>598.2</ele>
        <time>2022-08-05T07:01:47Z</time>
      </trkpt>
      <trkpt lat="45.39909" lon="1.93228">
        <ele>598.2</ele>
        <time>2022-08-05T07:01:49Z</time>
      </trkpt>
      <trkpt lat="45.39907" lon="1.93222">
        <ele>598.1</ele>
        <time>2022-08-05T07:01:51Z</time>
      </trkpt>
      <trkpt lat="45.39905" lon="1.93217">
        <ele>598</ele>
        <time>2022-08-05T07:01:53Z</time>
      </trkpt>
      <trkpt lat="45.39902" lon="1.93211">
        <ele>597.9</ele>
        <time>2022-08-05T07:01:55Z</time>
      </trkpt>
      <trkpt lat="45.399" lon="1.93206">
        <ele>597.8</ele>
        <time>2022-08-05T07:01:57Z</time>
      </trkpt>
      <trkpt lat="45.39896" lon="1.93202">
        <ele>597.7</ele>
        <time>2022-08-05T07:01:59Z</time>
      </trkpt>
      <trkpt lat="45.39892" lon="1.93198">
        <ele>597.6</ele>
        <time>2022-08-05T07:02:01Z</time>
      </trkpt>
      <trkpt lat="45.39887" lon="1.93195">
        <ele>597.5</ele>
        <time>2022-08-05T07:02:03Z</time>
      </trkpt>
      <trkpt lat="45.39881" lon="1.93193">
        <ele>597.4</ele>
        <time>2022-08-05T07:02:05Z</time>
      </trkpt>
      <trkpt lat="45.39875" lon="1.93191">
        <ele>597.2</ele>
        <time>2022-08-05T07:02:07Z</time>
      </trkpt>
      <trkpt lat="45.39867" lon="1.9319">
        <ele>597.1</ele>
        <time>2022-08-05T07:02:09Z</time>
      </trkpt>
      <trkpt lat="45.39858" lon="1.9319">
        <ele>597.2</ele>
        <time>2022-08-05T07:02:11Z</time>
      </trkpt>
      <trkpt lat="45.3985" lon="1.93191">
        <ele>597.3</ele>
        <time>2022-08-05T07:02:13Z</time>
      </trkpt>
      <trkpt lat="45.3984" lon="1.93192">
        <ele>597.3</ele>
        <time>2022-08-05T07:02:15Z</time>
      </trkpt>
      <trkpt lat="45.3983" lon="1.93194">
        <ele>597.2</ele>
        <time>2022-08-05T07:02:17Z</time>
      </trkpt>
      <trkpt lat="45.39819" lon="1.93195">
        <ele>596.2</ele>
        <time>2022-08-05T07:02:19Z</time>
      </trkpt>
      <trkpt lat="45.39808" lon="1.93196">
        <ele>595.1</ele>
        <time>2022-08-05T07:02:21Z</time>
      </trkpt>
      <trkpt lat="45.39796" lon="1.93197">
        <ele>594</ele>
        <time>2022-08-05T07:02:23Z</time>
      </trkpt>
      <trkpt lat="45.39784" lon="1.93198">
        <ele>592.8</ele>
        <time>2022-08-05T07:02:25Z</time>
      </trkpt>
      <trkpt lat="45.39772" lon="1.93202">
        <ele>592</ele>
        <time>2022-08-05T07:02:27Z</time>
      </trkpt>
      <trkpt lat="45.39761" lon="1.9321">
        <ele>591.8</ele>
        <time>2022-08-05T07:02:29Z</time>
      </trkpt>
      <trkpt lat="45.39751" lon="1.93221">
        <ele>592.3</ele>
        <time>2022-08-05T07:02:31Z</time>
      </trkpt>
      <trkpt lat="45.39743" lon="1.93236">
        <ele>593.6</ele>
        <time>2022-08-05T07:02:33Z</time>
      </trkpt>
      <trkpt lat="45.39737" lon="1.93256">
        <ele>595</ele>
        <time>2022-08-05T07:02:35Z</time>
      </trkpt>
      <trkpt lat="45.3973" lon="1.93275">
        <ele>595.9</ele>
        <time>2022-08-05T07:02:37Z</time>
      </trkpt>
      <trkpt lat="45.39716" lon="1.93291">
        <ele>595.2</ele>
        <time>2022-08-05T07:02:39Z</time>
      </trkpt>
      <trkpt lat="45.397" lon="1.93301">
        <ele>593.3</ele>
        <time>2022-08-05T07:02:41Z</time>
      </trkpt>
      <trkpt lat="45.39682" lon="1.93304">
        <ele>590.5</ele>
        <time>2022-08-05T07:02:43Z</time>
      </trkpt>
      <trkpt lat="45.39664" lon="1.93299">
        <ele>587.7</ele>
        <time>2022-08-05T07:02:45Z</time>
      </trkpt>
      <trkpt lat="45.39647" lon="1.93293">
        <ele>587.4</ele>
        <time>2022-08-05T07:02:47Z</time>
      </trkpt>
      <trkpt lat="45.39631" lon="1.93286">
        <ele>587.4</ele>
        <time>2022-08-05T07:02:49Z</time>
      </trkpt>
      <trkpt lat="45.39616" lon="1.9328">
        <ele>587.7</ele>
        <time>2022-08-05T07:02:51Z</time>
      </trkpt>
      <trkpt lat="45.39602" lon="1.93276">
        <ele>588.2</ele>
        <time>2022-08-05T07:02:53Z</time>
      </trkpt>
      <trkpt lat="45.3959" lon="1.93275">
        <ele>588.4</ele>
        <time>2022-08-05T07:02:55Z</time>
      </trkpt>
      <trkpt lat="45.3958" lon="1.93277">
        <ele>588.6</ele>
        <time>2022-08-05T07:02:57Z</time>
      </trkpt>
      <trkpt lat="45.3957" lon="1.93278">
        <ele>589</ele>
        <time>2022-08-05T07:02:59Z</time>
      </trkpt>
      <trkpt lat="45.39562" lon="1.9328">
        <ele>589.2</ele>
        <time>2022-08-05T07:03:01Z</time>
      </trkpt>
      <trkpt lat="45.39555" lon="1.93282">
        <ele>589.3</ele>
        <time>2022-08-05T07:03:03Z</time>
      </trkpt>
      <trkpt lat="45.39549" lon="1.93285">
        <ele>589.3</ele>
        <time>2022-08-05T07:03:05Z</time>
      </trkpt>
      <trkpt lat="45.39545" lon="1.93286">
        <ele>589.3</ele>
        <time>2022-08-05T07:03:07Z</time>
      </trkpt>
      <trkpt lat="45.39539" lon="1.93288">
        <ele>589.3</ele>
        <time>2022-08-05T07:03:09Z</time>
      </trkpt>
      <trkpt lat="45.39535" lon="1.93289">
        <ele>589.3</ele>
        <time>2022-08-05T07:03:11Z</time>
      </trkpt>
      <trkpt lat="45.3953" lon="1.93291">
        <ele>589.4</ele>
        <time>2022-08-05T07:03:13Z</time>
      </trkpt>
      <trkpt lat="45.39525" lon="1.93291">
        <ele>589.5</ele>
        <time>2022-08-05T07:03:15Z</time>
      </trkpt>
      <trkpt lat="45.3952" lon="1.93292">
        <ele>589.6</ele>
        <time>2022-08-05T07:03:17Z</time>
      </trkpt>
      <trkpt lat="45.39517" lon="1.93293">
        <ele>589.7</ele>
        <time>2022-08-05T07:03:19Z</time>
      </trkpt>
      <trkpt lat="45.39513" lon="1.93294">
        <ele>589.6</ele>
        <time>2022-08-05T07:03:21Z</time>
      </trkpt>
      <trkpt lat="45.39509" lon="1.93295">
        <ele>589.6</ele>
        <time>2022-08-05T07:03:23Z</time>
      </trkpt>
      <trkpt lat="45.39504" lon="1.93295">
        <ele>589.9</ele>
        <time>2022-08-05T07:03:25Z</time>
      </trkpt>
      <trkpt lat="45.395" lon="1.93293">
        <ele>590.3</ele>
        <time>2022-08-05T07:03:27Z</time>
      </trkpt>
      <trkpt lat="45.39496" lon="1.93291">
        <ele>590.5</ele>
        <time>2022-08-05T07:03:29Z</time>
      </trkpt>
      <trkpt lat="45.39493" lon="1.93289">
        <ele>590.7</ele>
        <time>2022-08-05T07:03:31Z</time>
      </trkpt>
      <trkpt lat="45.39489" lon="1.93286">
        <ele>591</ele>
        <time>2022-08-05T07:03:33Z</time>
      </trkpt>
      <trkpt lat="45.39486" lon="1.93284">
        <ele>591.2</ele>
        <time>2022-08-05T07:03:35Z</time>
      </trkpt>
      <trkpt lat="45.39483" lon="1.93281">
        <ele>591.5</ele>
        <time>2022-08-05T07:03:37Z</time>
      </trkpt>
      <trkpt lat="45.3948" lon="1.93278">
        <ele>591.8</ele>
        <time>2022-08-05T07:03:39Z</time>
      </trkpt>
      <trkpt lat="45.39477" lon="1.93275">
        <ele>592.2</ele>
        <time>2022-08-05T07:03:41Z</time>
      </trkpt>
      <trkpt lat="45.39475" lon="1.93271">
        <ele>592.5</ele>
        <time>2022-08-05T07:03:43Z</time>
      </trkpt>
      <trkpt lat="45.39472" lon="1.93268">
        <ele>592.9</ele>
        <time>2022-08-05T07:03:45Z</time>
      </trkpt>
      <trkpt lat="45.39469" lon="1.93265">
        <ele>593.2</ele>
        <time>2022-08-05T07:03:47Z</time>
      </trkpt>
      <trkpt lat="45.39467" lon="1.93261">
        <ele>593.5</ele>
        <time>2022-08-05T07:03:49Z</time>
      </trkpt>
      <trkpt lat="45.39464" lon="1.93257">
        <ele>593.9</ele>
        <time>2022-08-05T07:03:51Z</time>
      </trkpt>
      <trkpt lat="45.39462" lon="1.93254">
        <ele>594.2</ele>
        <time>2022-08-05T07:03:53Z</time>
      </trkpt>
      <trkpt lat="45.39459" lon="1.93251">
        <ele>594.4</ele>
        <time>2022-08-05T07:03:55Z</time>
      </trkpt>
      <trkpt lat="45.39457" lon="1.93248">
        <ele>594.6</ele>
        <time>2022-08-05T07:03:57Z</time>
      </trkpt>
      <trkpt lat="45.39454" lon="1.93244">
        <ele>594.8</ele>
        <time>2022-08-05T07:03:59Z</time>
      </trkpt>
      <trkpt lat="45.39452" lon="1.93239">
        <ele>595</ele>
        <time>2022-08-05T07:04:01Z</time>
      </trkpt>
      <trkpt lat="45.3945" lon="1.93234">
        <ele>595.2</ele>
        <time>2022-08-05T07:04:03Z</time>
      </trkpt>
      <trkpt lat="45.39449" lon="1.9323">
        <ele>595.5</ele>
        <time>2022-08-05T07:04:05Z</time>
      </trkpt>
      <trkpt lat="45.39447" lon="1.93225">
        <ele>595.7</ele>
        <time>2022-08-05T07:04:07Z</time>
      </trkpt>
      <trkpt lat="45.39447" lon="1.9322">
        <ele>596</ele>
        <time>2022-08-05T07:04:09Z</time>
      </trkpt>
      <trkpt lat="45.39445" lon="1.93215">
        <ele>596.3</ele>
        <time>2022-08-05T07:04:11Z</time>
      </trkpt>
      <trkpt lat="45.39445" lon="1.9321">
        <ele>596.6</ele>
        <time>2022-08-05T07:04:13Z</time>
      </trkpt>
      <trkpt lat="45.39444" lon="1.93205">
        <ele>596.9</ele>
        <time>2022-08-05T07:04:15Z</time>
      </trkpt>
      <trkpt lat="45.39443" lon="1.932">
        <ele>597.2</ele>
        <time>2022-08-05T07:04:17Z</time>
      </trkpt>
      <trkpt lat="45.39442" lon="1.93194">
        <ele>597.5</ele>
        <time>2022-08-05T07:04:19Z</time>
      </trkpt>
      <trkpt lat="45.39442" lon="1.93188">
        <ele>597.8</ele>
        <time>2022-08-05T07:04:21Z</time>
      </trkpt>
      <trkpt lat="45.39441" lon="1.93183">
        <ele>598.1</ele>
        <time>2022-08-05T07:04:23Z</time>
      </trkpt>
      <trkpt lat="45.3944" lon="1.93176">
        <ele>598.4</ele>
        <time>2022-08-05T07:04:25Z</time>
      </trkpt>
      <trkpt lat="45.39439" lon="1.9317">
        <ele>598.7</ele>
        <time>2022-08-05T07:04:27Z</time>
      </trkpt>
      <trkpt lat="45.39438" lon="1.93164">
        <ele>598.9</ele>
        <time>2022-08-05T07:04:29Z</time>
      </trkpt>
      <trkpt lat="45.39437" lon="1.93158">
        <ele>599</ele>
        <time>2022-08-05T07:04:31Z</time>
      </trkpt>
      <trkpt lat="45.39438" lon="1.93152">
        <ele>599.1</ele>
        <time>2022-08-05T07:04:33Z</time>
      </trkpt>
      <trkpt lat="45.39436" lon="1.93146">
        <ele>599.1</ele>
        <time>2022-08-05T07:04:35Z</time>
      </trkpt>
      <trkpt lat="45.39435" lon="1.93139">
        <ele>599.1</ele>
        <time>2022-08-05T07:04:37Z</time>
      </trkpt>
      <trkpt lat="45.39434" lon="1.93133">
        <ele>599.1</ele>
        <time>2022-08-05T07:04:39Z</time>
      </trkpt>
      <trkpt lat="45.39433" lon="1.93128">
        <ele>599.1</ele>
        <time>2022-08-05T07:04:41Z</time>
      </trkpt>
      <trkpt lat="45.39431" lon="1.93123">
        <ele>599</ele>
        <time>2022-08-05T07:04:43Z</time>
      </trkpt>
      <trkpt lat="45.3943" lon="1.93117">
        <ele>598.9</ele>
        <time>2022-08-05T07:04:45Z</time>
      </trkpt>
      <trkpt lat="45.39427" lon="1.93113">
        <ele>598.6</ele>
        <time>2022-08-05T07:04:47Z</time>
      </trkpt>
      <trkpt lat="45.39424" lon="1.93109">
        <ele>598.3</ele>
        <time>2022-08-05T07:04:49Z</time>
      </trkpt>
      <trkpt lat="45.3942" lon="1.93106">
        <ele>597.9</ele>
        <time>2022-08-05T07:04:51Z</time>
      </trkpt>
      <trkpt lat="45.39417" lon="1.93103">
        <ele>597.5</ele>
        <time>2022-08-05T07:04:53Z</time>
      </trkpt>
      <trkpt lat="45.39412" lon="1.93101">
        <ele>597.7</ele>
        <time>2022-08-05T07:04:55Z</time>
      </trkpt>
      <trkpt lat="45.39408" lon="1.931">
        <ele>597.8</ele>
        <time>2022-08-05T07:04:57Z</time>
      </trkpt>
      <trkpt lat="45.39404" lon="1.93099">
        <ele>597.9</ele>
        <time>2022-08-05T07:04:59Z</time>
      </trkpt>
      <trkpt lat="45.394" lon="1.93099">
        <ele>598.1</ele>
        <time>2022-08-05T07:05:01Z</time>
      </trkpt>
      <trkpt lat="45.39395" lon="1.93097">
        <ele>598.2</ele>
        <time>2022-08-05T07:05:03Z</time>
      </trkpt>
      <trkpt lat="45.3939" lon="1.93096">
        <ele>598.3</ele>
        <time>2022-08-05T07:05:05Z</time>
      </trkpt>
      <trkpt lat="45.39385" lon="1.93095">
        <ele>598.4</ele>
        <time>2022-08-05T07:05:07Z</time>
      </trkpt>
      <trkpt lat="45.3938" lon="1.93094">
        <ele>598.5</ele>
        <time>2022-08-05T07:05:09Z</time>
      </trkpt>
      <trkpt lat="45.39375" lon="1.93091">
        <ele>598.6</ele>
        <time>2022-08-05T07:05:11Z</time>
      </trkpt>
      <trkpt lat="45.3937" lon="1.93089">
        <ele>598.7</ele>
        <time>2022-08-05T07:05:13Z</time>
      </trkpt>
      <trkpt lat="45.39365" lon="1.93087">
        <ele>598.7</ele>
        <time>2022-08-05T07:05:15Z</time>
      </trkpt>
      <trkpt lat="45.3936" lon="1.93085">
        <ele>598.7</ele>
        <time>2022-08-05T07:05:17Z</time>
      </trkpt>
      <trkpt lat="45.39354" lon="1.93084">
        <ele>598.8</ele>
        <time>2022-08-05T07:05:19Z</time>
      </trkpt>
      <trkpt lat="45.39349" lon="1.93082">
        <ele>598.7</ele>
        <time>2022-08-05T07:05:21Z</time>
      </trkpt>
      <trkpt lat="45.39344" lon="1.93079">
        <ele>598.6</ele>
        <time>2022-08-05T07:05:23Z</time>
      </trkpt>
      <trkpt lat="45.39338" lon="1.93077">
        <ele>598.5</ele>
        <time>2022-08-05T07:05:25Z</time>
      </trkpt>
      <trkpt lat="45.39333" lon="1.93075">
        <ele>598.3</ele>
        <time>2022-08-05T07:05:27Z</time>
      </trkpt>
      <trkpt lat="45.39326" lon="1.93073">
        <ele>598.1</ele>
        <time>2022-08-05T07:05:29Z</time>
      </trkpt>
      <trkpt lat="45.3932" lon="1.93071">
        <ele>597.8</ele>
        <time>2022-08-05T07:05:31Z</time>
      </trkpt>
      <trkpt lat="45.39314" lon="1.93068">
        <ele>597.5</ele>
        <time>2022-08-05T07:05:33Z</time>
      </trkpt>
      <trkpt lat="45.39308" lon="1.93066">
        <ele>597.2</ele>
        <time>2022-08-05T07:05:35Z</time>
      </trkpt>
      <trkpt lat="45.39301" lon="1.93063">
        <ele>596.9</ele>
        <time>2022-08-05T07:05:37Z</time>
      </trkpt>
      <trkpt lat="45.39294" lon="1.9306">
        <ele>596.6</ele>
        <time>2022-08-05T07:05:39Z</time>
      </trkpt>
      <trkpt lat="45.39287" lon="1.93057">
        <ele>596.2</ele>
        <time>2022-08-05T07:05:41Z</time>
      </trkpt>
      <trkpt lat="45.3928" lon="1.93054">
        <ele>595.9</ele>
        <time>2022-08-05T07:05:43Z</time>
      </trkpt>
      <trkpt lat="45.39273" lon="1.93052">
        <ele>595.7</ele>
        <time>2022-08-05T07:05:45Z</time>
      </trkpt>
      <trkpt lat="45.39266" lon="1.9305">
        <ele>595.4</ele>
        <time>2022-08-05T07:05:47Z</time>
      </trkpt>
      <trkpt lat="45.39259" lon="1.93046">
        <ele>595</ele>
        <time>2022-08-05T07:05:49Z</time>
      </trkpt>
      <trkpt lat="45.39252" lon="1.93043">
        <ele>594.7</ele>
        <time>2022-08-05T07:05:51Z</time>
      </trkpt>
      <trkpt lat="45.39244" lon="1.9304">
        <ele>594.4</ele>
        <time>2022-08-05T07:05:53Z</time>
      </trkpt>
      <trkpt lat="45.39237" lon="1.93037">
        <ele>594.1</ele>
        <time>2022-08-05T07:05:55Z</time>
      </trkpt>
      <trkpt lat="45.39229" lon="1.93035">
        <ele>593.9</ele>
        <time>2022-08-05T07:05:57Z</time>
      </trkpt>
      <trkpt lat="45.3922" lon="1.93032">
        <ele>593.7</ele>
        <time>2022-08-05T07:05:59Z</time>
      </trkpt>
      <trkpt lat="45.39211" lon="1.9303">
        <ele>593.6</ele>
        <time>2022-08-05T07:06:01Z</time>
      </trkpt>
      <trkpt lat="45.39202" lon="1.93027">
        <ele>593.5</ele>
        <time>2022-08-05T07:06:03Z</time>
      </trkpt>
      <trkpt lat="45.39192" lon="1.93025">
        <ele>593.4</ele>
        <time>2022-08-05T07:06:05Z</time>
      </trkpt>
      <trkpt lat="45.39182" lon="1.93022">
        <ele>593.4</ele>
        <time>2022-08-05T07:06:07Z</time>
      </trkpt>
      <trkpt lat="45.39172" lon="1.93019">
        <ele>593.4</ele>
        <time>2022-08-05T07:06:09Z</time>
      </trkpt>
      <trkpt lat="45.39161" lon="1.93016">
        <ele>593.4</ele>
        <time>2022-08-05T07:06:11Z</time>
      </trkpt>
      <trkpt lat="45.3915" lon="1.93013">
        <ele>593.5</ele>
        <time>2022-08-05T07:06:13Z</time>
      </trkpt>
      <trkpt lat="45.39139" lon="1.9301">
        <ele>593.5</ele>
        <time>2022-08-05T07:06:15Z</time>
      </trkpt>
      <trkpt lat="45.39128" lon="1.93007">
        <ele>593.6</ele>
        <time>2022-08-05T07:06:17Z</time>
      </trkpt>
      <trkpt lat="45.39116" lon="1.93003">
        <ele>593.7</ele>
        <time>2022-08-05T07:06:19Z</time>
      </trkpt>
      <trkpt lat="45.39105" lon="1.92999">
        <ele>593.8</ele>
        <time>2022-08-05T07:06:21Z</time>
      </trkpt>
      <trkpt lat="45.39093" lon="1.92991">
        <ele>594.3</ele>
        <time>2022-08-05T07:06:23Z</time>
      </trkpt>
      <trkpt lat="45.39084" lon="1.92983">
        <ele>594.8</ele>
        <time>2022-08-05T07:06:25Z</time>
      </trkpt>
      <trkpt lat="45.39075" lon="1.92973">
        <ele>595.5</ele>
        <time>2022-08-05T07:06:27Z</time>
      </trkpt>
      <trkpt lat="45.39067" lon="1.92964">
        <ele>596.3</ele>
        <time>2022-08-05T07:06:29Z</time>
      </trkpt>
      <trkpt lat="45.3906" lon="1.92953">
        <ele>597.1</ele>
        <time>2022-08-05T07:06:31Z</time>
      </trkpt>
      <trkpt lat="45.39054" lon="1.92943">
        <ele>597.9</ele>
        <time>2022-08-05T07:06:33Z</time>
      </trkpt>
      <trkpt lat="45.39049" lon="1.92933">
        <ele>598.7</ele>
        <time>2022-08-05T07:06:35Z</time>
      </trkpt>
      <trkpt lat="45.39044" lon="1.92924">
        <ele>599.5</ele>
        <time>2022-08-05T07:06:37Z</time>
      </trkpt>
      <trkpt lat="45.39039" lon="1.92915">
        <ele>600.2</ele>
        <time>2022-08-05T07:06:39Z</time>
      </trkpt>
      <trkpt lat="45.39034" lon="1.92907">
        <ele>600.8</ele>
        <time>2022-08-05T07:06:41Z</time>
      </trkpt>
      <trkpt lat="45.39028" lon="1.929">
        <ele>601.3</ele>
        <time>2022-08-05T07:06:43Z</time>
      </trkpt>
      <trkpt lat="45.39024" lon="1.92893">
        <ele>601.7</ele>
        <time>2022-08-05T07:06:45Z</time>
      </trkpt>
      <trkpt lat="45.3902" lon="1.92887">
        <ele>601.9</ele>
        <time>2022-08-05T07:06:47Z</time>
      </trkpt>
      <trkpt lat="45.39015" lon="1.92879">
        <ele>602.1</ele>
        <time>2022-08-05T07:06:49Z</time>
      </trkpt>
      <trkpt lat="45.39011" lon="1.92872">
        <ele>602.2</ele>
        <time>2022-08-05T07:06:51Z</time>
      </trkpt>
      <trkpt lat="45.39006" lon="1.92865">
        <ele>602.2</ele>
        <time>2022-08-05T07:06:53Z</time>
      </trkpt>
      <trkpt lat="45.39002" lon="1.92859">
        <ele>602.1</ele>
        <time>2022-08-05T07:06:55Z</time>
      </trkpt>
      <trkpt lat="45.38998" lon="1.92853">
        <ele>601.9</ele>
        <time>2022-08-05T07:06:57Z</time>
      </trkpt>
      <trkpt lat="45.38994" lon="1.92846">
        <ele>601.5</ele>
        <time>2022-08-05T07:06:59Z</time>
      </trkpt>
      <trkpt lat="45.3899" lon="1.92841">
        <ele>601.1</ele>
        <time>2022-08-05T07:07:01Z</time>
      </trkpt>
      <trkpt lat="45.38985" lon="1.92835">
        <ele>600.7</ele>
        <time>2022-08-05T07:07:03Z</time>
      </trkpt>
      <trkpt lat="45.3898" lon="1.92828">
        <ele>600.6</ele>
        <time>2022-08-05T07:07:05Z</time>
      </trkpt>
      <trkpt lat="45.38975" lon="1.92821">
        <ele>600.6</ele>
        <time>2022-08-05T07:07:07Z</time>
      </trkpt>
      <trkpt lat="45.3897" lon="1.92814">
        <ele>600.5</ele>
        <time>2022-08-05T07:07:09Z</time>
      </trkpt>
      <trkpt lat="45.38964" lon="1.92808">
        <ele>600.4</ele>
        <time>2022-08-05T07:07:11Z</time>
      </trkpt>
      <trkpt lat="45.38959" lon="1.92801">
        <ele>600.3</ele>
        <time>2022-08-05T07:07:13Z</time>
      </trkpt>
      <trkpt lat="45.38952" lon="1.92793">
        <ele>600.2</ele>
        <time>2022-08-05T07:07:15Z</time>
      </trkpt>
      <trkpt lat="45.38946" lon="1.92785">
        <ele>600.2</ele>
        <time>2022-08-05T07:07:17Z</time>
      </trkpt>
      <trkpt lat="45.3894" lon="1.92778">
        <ele>600.1</ele>
        <time>2022-08-05T07:07:19Z</time>
      </trkpt>
      <trkpt lat="45.38934" lon="1.9277">
        <ele>600.1</ele>
        <time>2022-08-05T07:07:21Z</time>
      </trkpt>
      <trkpt lat="45.38928" lon="1.92763">
        <ele>600.1</ele>
        <time>2022-08-05T07:07:23Z</time>
      </trkpt>
      <trkpt lat="45.38921" lon="1.92755">
        <ele>600</ele>
        <time>2022-08-05T07:07:25Z</time>
      </trkpt>
      <trkpt lat="45.38915" lon="1.92748">
        <ele>600</ele>
        <time>2022-08-05T07:07:27Z</time>
      </trkpt>
      <trkpt lat="45.38909" lon="1.9274">
        <ele>600.1</ele>
        <time>2022-08-05T07:07:29Z</time>
      </trkpt>
      <trkpt lat="45.38903" lon="1.92732">
        <ele>600.1</ele>
        <time>2022-08-05T07:07:31Z</time>
      </trkpt>
      <trkpt lat="45.38897" lon="1.92725">
        <ele>600.1</ele>
        <time>2022-08-05T07:07:33Z</time>
      </trkpt>
      <trkpt lat="45.38891" lon="1.92718">
        <ele>600.1</ele>
        <time>2022-08-05T07:07:35Z</time>
      </trkpt>
      <trkpt lat="45.38885" lon="1.9271">
        <ele>600.1</ele>
        <time>2022-08-05T07:07:37Z</time>
      </trkpt>
      <trkpt lat="45.38879" lon="1.92703">
        <ele>600.1</ele>
        <time>2022-08-05T07:07:39Z</time>
      </trkpt>
      <trkpt lat="45.38873" lon="1.92696">
        <ele>600</ele>
        <time>2022-08-05T07:07:41Z</time>
      </trkpt>
      <trkpt lat="45.38867" lon="1.92689">
        <ele>600</ele>
        <time>2022-08-05T07:07:43Z</time>
      </trkpt>
      <trkpt lat="45.3886" lon="1.92682">
        <ele>599.9</ele>
        <time>2022-08-05T07:07:45Z</time>
      </trkpt>
      <trkpt lat="45.38854" lon="1.92673">
        <ele>599.8</ele>
        <time>2022-08-05T07:07:47Z</time>
      </trkpt>
      <trkpt lat="45.38848" lon="1.92665">
        <ele>599.6</ele>
        <time>2022-08-05T07:07:49Z</time>
      </trkpt>
      <trkpt lat="45.38841" lon="1.92657">
        <ele>599</ele>
        <time>2022-08-05T07:07:51Z</time>
      </trkpt>
      <trkpt lat="45.38834" lon="1.92648">
        <ele>598.4</ele>
        <time>2022-08-05T07:07:53Z</time>
      </trkpt>
      <trkpt lat="45.38827" lon="1.92639">
        <ele>598.1</ele>
        <time>2022-08-05T07:07:55Z</time>
      </trkpt>
      <trkpt lat="45.3882" lon="1.92631">
        <ele>598</ele>
        <time>2022-08-05T07:07:57Z</time>
      </trkpt>
      <trkpt lat="45.38813" lon="1.92623">
        <ele>598</ele>
        <time>2022-08-05T07:07:59Z</time>
      </trkpt>
      <trkpt lat="45.38806" lon="1.92616">
        <ele>598.1</ele>
        <time>2022-08-05T07:08:01Z</time>
      </trkpt>
      <trkpt lat="45.38798" lon="1.92609">
        <ele>598.3</ele>
        <time>2022-08-05T07:08:03Z</time>
      </trkpt>
      <trkpt lat="45.3879" lon="1.92604">
        <ele>598.6</ele>
        <time>2022-08-05T07:08:05Z</time>
      </trkpt>
      <trkpt lat="45.38782" lon="1.92599">
        <ele>599</ele>
        <time>2022-08-05T07:08:07Z</time>
      </trkpt>
      <trkpt lat="45.38774" lon="1.92595">
        <ele>599.4</ele>
        <time>2022-08-05T07:08:09Z</time>
      </trkpt>
      <trkpt lat="45.38766" lon="1.9259">
        <ele>599.9</ele>
        <time>2022-08-05T07:08:11Z</time>
      </trkpt>
      <trkpt lat="45.38758" lon="1.92585">
        <ele>600.5</ele>
        <time>2022-08-05T07:08:13Z</time>
      </trkpt>
      <trkpt lat="45.3875" lon="1.92581">
        <ele>600.9</ele>
        <time>2022-08-05T07:08:15Z</time>
      </trkpt>
      <trkpt lat="45.38742" lon="1.92576">
        <ele>600.9</ele>
        <time>2022-08-05T07:08:17Z</time>
      </trkpt>
      <trkpt lat="45.38734" lon="1.92572">
        <ele>601.1</ele>
        <time>2022-08-05T07:08:19Z</time>
      </trkpt>
      <trkpt lat="45.38726" lon="1.92567">
        <ele>601.3</ele>
        <time>2022-08-05T07:08:21Z</time>
      </trkpt>
      <trkpt lat="45.38718" lon="1.92563">
        <ele>601.5</ele>
        <time>2022-08-05T07:08:23Z</time>
      </trkpt>
      <trkpt lat="45.3871" lon="1.92558">
        <ele>601.8</ele>
        <time>2022-08-05T07:08:25Z</time>
      </trkpt>
      <trkpt lat="45.38702" lon="1.92554">
        <ele>602.2</ele>
        <time>2022-08-05T07:08:27Z</time>
      </trkpt>
      <trkpt lat="45.38695" lon="1.9255">
        <ele>602.6</ele>
        <time>2022-08-05T07:08:29Z</time>
      </trkpt>
      <trkpt lat="45.38688" lon="1.92546">
        <ele>603</ele>
        <time>2022-08-05T07:08:31Z</time>
      </trkpt>
      <trkpt lat="45.3868" lon="1.92542">
        <ele>603.5</ele>
        <time>2022-08-05T07:08:33Z</time>
      </trkpt>
      <trkpt lat="45.38673" lon="1.92537">
        <ele>604</ele>
        <time>2022-08-05T07:08:35Z</time>
      </trkpt>
      <trkpt lat="45.38666" lon="1.92533">
        <ele>604.6</ele>
        <time>2022-08-05T07:08:37Z</time>
      </trkpt>
      <trkpt lat="45.3866" lon="1.92529">
        <ele>605.1</ele>
        <time>2022-08-05T07:08:39Z</time>
      </trkpt>
      <trkpt lat="45.38652" lon="1.92526">
        <ele>605.6</ele>
        <time>2022-08-05T07:08:41Z</time>
      </trkpt>
      <trkpt lat="45.38646" lon="1.92522">
        <ele>606</ele>
        <time>2022-08-05T07:08:43Z</time>
      </trkpt>
      <trkpt lat="45.3864" lon="1.92519">
        <ele>606.5</ele>
        <time>2022-08-05T07:08:45Z</time>
      </trkpt>
      <trkpt lat="45.38634" lon="1.92515">
        <ele>607</ele>
        <time>2022-08-05T07:08:47Z</time>
      </trkpt>
      <trkpt lat="45.38628" lon="1.92511">
        <ele>607.5</ele>
        <time>2022-08-05T07:08:49Z</time>
      </trkpt>
      <trkpt lat="45.38622" lon="1.92508">
        <ele>608</ele>
        <time>2022-08-05T07:08:51Z</time>
      </trkpt>
      <trkpt lat="45.38616" lon="1.92504">
        <ele>608.5</ele>
        <time>2022-08-05T07:08:53Z</time>
      </trkpt>
      <trkpt lat="45.3861" lon="1.92501">
        <ele>609</ele>
        <time>2022-08-05T07:08:55Z</time>
      </trkpt>
      <trkpt lat="45.38605" lon="1.92498">
        <ele>609.4</ele>
        <time>2022-08-05T07:08:57Z</time>
      </trkpt>
      <trkpt lat="45.38599" lon="1.92495">
        <ele>609.8</ele>
        <time>2022-08-05T07:08:59Z</time>
      </trkpt>
      <trkpt lat="45.38593" lon="1.92492">
        <ele>610.2</ele>
        <time>2022-08-05T07:09:01Z</time>
      </trkpt>
      <trkpt lat="45.38588" lon="1.92488">
        <ele>610.6</ele>
        <time>2022-08-05T07:09:03Z</time>
      </trkpt>
      <trkpt lat="45.38583" lon="1.92485">
        <ele>611</ele>
        <time>2022-08-05T07:09:05Z</time>
      </trkpt>
      <trkpt lat="45.38577" lon="1.92482">
        <ele>610.7</ele>
        <time>2022-08-05T07:09:07Z</time>
      </trkpt>
      <trkpt lat="45.38572" lon="1.92479">
        <ele>610.4</ele>
        <time>2022-08-05T07:09:09Z</time>
      </trkpt>
      <trkpt lat="45.38567" lon="1.92477">
        <ele>610.1</ele>
        <time>2022-08-05T07:09:11Z</time>
      </trkpt>
      <trkpt lat="45.38561" lon="1.92475">
        <ele>609.9</ele>
        <time>2022-08-05T07:09:13Z</time>
      </trkpt>
      <trkpt lat="45.38556" lon="1.92475">
        <ele>609.6</ele>
        <time>2022-08-05T07:09:15Z</time>
      </trkpt>
      <trkpt lat="45.3855" lon="1.92478">
        <ele>609.2</ele>
        <time>2022-08-05T07:09:17Z</time>
      </trkpt>
      <trkpt lat="45.38544" lon="1.92483">
        <ele>608.8</ele>
        <time>2022-08-05T07:09:19Z</time>
      </trkpt>
      <trkpt lat="45.38538" lon="1.92487">
        <ele>608.2</ele>
        <time>2022-08-05T07:09:21Z</time>
      </trkpt>
      <trkpt lat="45.38531" lon="1.92493">
        <ele>607.5</ele>
        <time>2022-08-05T07:09:23Z</time>
      </trkpt>
      <trkpt lat="45.38525" lon="1.925">
        <ele>606.8</ele>
        <time>2022-08-05T07:09:25Z</time>
      </trkpt>
      <trkpt lat="45.38517" lon="1.92506">
        <ele>606.1</ele>
        <time>2022-08-05T07:09:27Z</time>
      </trkpt>
      <trkpt lat="45.3851" lon="1.92513">
        <ele>605.4</ele>
        <time>2022-08-05T07:09:29Z</time>
      </trkpt>
      <trkpt lat="45.38503" lon="1.9252">
        <ele>604.7</ele>
        <time>2022-08-05T07:09:31Z</time>
      </trkpt>
      <trkpt lat="45.38495" lon="1.92528">
        <ele>604</ele>
        <time>2022-08-05T07:09:33Z</time>
      </trkpt>
      <trkpt lat="45.38487" lon="1.92535">
        <ele>603.4</ele>
        <time>2022-08-05T07:09:35Z</time>
      </trkpt>
      <trkpt lat="45.38478" lon="1.92543">
        <ele>602.8</ele>
        <time>2022-08-05T07:09:37Z</time>
      </trkpt>
      <trkpt lat="45.3847" lon="1.92551">
        <ele>602.2</ele>
        <time>2022-08-05T07:09:39Z</time>
      </trkpt>
      <trkpt lat="45.3846" lon="1.92558">
        <ele>601.5</ele>
        <time>2022-08-05T07:09:41Z</time>
      </trkpt>
      <trkpt lat="45.3845" lon="1.92565">
        <ele>600.9</ele>
        <time>2022-08-05T07:09:43Z</time>
      </trkpt>
      <trkpt lat="45.38439" lon="1.92571">
        <ele>600.3</ele>
        <time>2022-08-05T07:09:45Z</time>
      </trkpt>
      <trkpt lat="45.38427" lon="1.92575">
        <ele>599.6</ele>
        <time>2022-08-05T07:09:47Z</time>
      </trkpt>
      <trkpt lat="45.38414" lon="1.92577">
        <ele>599.3</ele>
        <time>2022-08-05T07:09:49Z</time>
      </trkpt>
      <trkpt lat="45.38401" lon="1.92577">
        <ele>600.2</ele>
        <time>2022-08-05T07:09:51Z</time>
      </trkpt>
      <trkpt lat="45.38389" lon="1.92576">
        <ele>601.2</ele>
        <time>2022-08-05T07:09:53Z</time>
      </trkpt>
      <trkpt lat="45.38374" lon="1.92576">
        <ele>602.2</ele>
        <time>2022-08-05T07:09:55Z</time>
      </trkpt>
      <trkpt lat="45.38359" lon="1.92576">
        <ele>603.4</ele>
        <time>2022-08-05T07:09:57Z</time>
      </trkpt>
      <trkpt lat="45.38345" lon="1.92582">
        <ele>604.2</ele>
        <time>2022-08-05T07:09:59Z</time>
      </trkpt>
      <trkpt lat="45.38333" lon="1.92591">
        <ele>604.4</ele>
        <time>2022-08-05T07:10:01Z</time>
      </trkpt>
      <trkpt lat="45.38323" lon="1.92603">
        <ele>603.7</ele>
        <time>2022-08-05T07:10:03Z</time>
      </trkpt>
      <trkpt lat="45.38313" lon="1.92614">
        <ele>603.2</ele>
        <time>2022-08-05T07:10:05Z</time>
      </trkpt>
      <trkpt lat="45.38303" lon="1.92626">
        <ele>602.7</ele>
        <time>2022-08-05T07:10:07Z</time>
      </trkpt>
      <trkpt lat="45.38294" lon="1.92637">
        <ele>602.2</ele>
        <time>2022-08-05T07:10:09Z</time>
      </trkpt>
      <trkpt lat="45.38285" lon="1.92649">
        <ele>601.7</ele>
        <time>2022-08-05T07:10:11Z</time>
      </trkpt>
      <trkpt lat="45.38275" lon="1.92661">
        <ele>601.2</ele>
        <time>2022-08-05T07:10:13Z</time>
      </trkpt>
      <trkpt lat="45.38266" lon="1.92671">
        <ele>600.9</ele>
        <time>2022-08-05T07:10:15Z</time>
      </trkpt>
      <trkpt lat="45.38255" lon="1.92678">
        <ele>600.8</ele>
        <time>2022-08-05T07:10:17Z</time>
      </trkpt>
      <trkpt lat="45.38243" lon="1.92682">
        <ele>601</ele>
        <time>2022-08-05T07:10:19Z</time>
      </trkpt>
      <trkpt lat="45.38231" lon="1.92681">
        <ele>601.6</ele>
        <time>2022-08-05T07:10:21Z</time>
      </trkpt>
      <trkpt lat="45.38217" lon="1.92679">
        <ele>602.3</ele>
        <time>2022-08-05T07:10:23Z</time>
      </trkpt>
      <trkpt lat="45.38204" lon="1.92681">
        <ele>602.7</ele>
        <time>2022-08-05T07:10:25Z</time>
      </trkpt>
      <trkpt lat="45.38193" lon="1.92689">
        <ele>602.8</ele>
        <time>2022-08-05T07:10:27Z</time>
      </trkpt>
      <trkpt lat="45.38184" lon="1.92704">
        <ele>602.3</ele>
        <time>2022-08-05T07:10:29Z</time>
      </trkpt>
      <trkpt lat="45.38181" lon="1.9272">
        <ele>601.6</ele>
        <time>2022-08-05T07:10:31Z</time>
      </trkpt>
      <trkpt lat="45.38177" lon="1.92734">
        <ele>601</ele>
        <time>2022-08-05T07:10:33Z</time>
      </trkpt>
      <trkpt lat="45.38173" lon="1.92749">
        <ele>600.6</ele>
        <time>2022-08-05T07:10:35Z</time>
      </trkpt>
      <trkpt lat="45.38168" lon="1.92764">
        <ele>600.3</ele>
        <time>2022-08-05T07:10:37Z</time>
      </trkpt>
      <trkpt lat="45.38163" lon="1.92777">
        <ele>600.7</ele>
        <time>2022-08-05T07:10:39Z</time>
      </trkpt>
      <trkpt lat="45.38157" lon="1.92789">
        <ele>601.3</ele>
        <time>2022-08-05T07:10:41Z</time>
      </trkpt>
      <trkpt lat="45.38152" lon="1.92801">
        <ele>601.8</ele>
        <time>2022-08-05T07:10:43Z</time>
      </trkpt>
      <trkpt lat="45.38146" lon="1.92813">
        <ele>602.2</ele>
        <time>2022-08-05T07:10:45Z</time>
      </trkpt>
      <trkpt lat="45.3814" lon="1.92824">
        <ele>602.4</ele>
        <time>2022-08-05T07:10:47Z</time>
      </trkpt>
      <trkpt lat="45.38135" lon="1.92835">
        <ele>602.5</ele>
        <time>2022-08-05T07:10:49Z</time>
      </trkpt>
      <trkpt lat="45.38127" lon="1.92845">
        <ele>602.8</ele>
        <time>2022-08-05T07:10:51Z</time>
      </trkpt>
      <trkpt lat="45.38119" lon="1.92855">
        <ele>602.9</ele>
        <time>2022-08-05T07:10:53Z</time>
      </trkpt>
      <trkpt lat="45.38111" lon="1.92864">
        <ele>602.7</ele>
        <time>2022-08-05T07:10:55Z</time>
      </trkpt>
      <trkpt lat="45.38103" lon="1.92874">
        <ele>602.3</ele>
        <time>2022-08-05T07:10:57Z</time>
      </trkpt>
      <trkpt lat="45.38095" lon="1.92883">
        <ele>601.8</ele>
        <time>2022-08-05T07:10:59Z</time>
      </trkpt>
      <trkpt lat="45.38086" lon="1.92889">
        <ele>601.6</ele>
        <time>2022-08-05T07:11:01Z</time>
      </trkpt>
      <trkpt lat="45.38076" lon="1.92894">
        <ele>601.9</ele>
        <time>2022-08-05T07:11:03Z</time>
      </trkpt>
      <trkpt lat="45.38067" lon="1.92896">
        <ele>602.6</ele>
        <time>2022-08-05T07:11:05Z</time>
      </trkpt>
      <trkpt lat="45.38056" lon="1.92897">
        <ele>603.5</ele>
        <time>2022-08-05T07:11:07Z</time>
      </trkpt>
      <trkpt lat="45.38047" lon="1.92902">
        <ele>603.6</ele>
        <time>2022-08-05T07:11:09Z</time>
      </trkpt>
      <trkpt lat="45.38038" lon="1.92911">
        <ele>603.4</ele>
        <time>2022-08-05T07:11:11Z</time>
      </trkpt>
      <trkpt lat="45.38031" lon="1.92923">
        <ele>602.4</ele>
        <time>2022-08-05T07:11:13Z</time>
      </trkpt>
      <trkpt lat="45.38027" lon="1.92938">
        <ele>600.9</ele>
        <time>2022-08-05T07:11:15Z</time>
      </trkpt>
      <trkpt lat="45.38024" lon="1.92953">
        <ele>599.3</ele>
        <time>2022-08-05T07:11:17Z</time>
      </trkpt>
      <trkpt lat="45.3802" lon="1.92969">
        <ele>597.8</ele>
        <time>2022-08-05T07:11:19Z</time>
      </trkpt>
      <trkpt lat="45.38014" lon="1.92984">
        <ele>597.1</ele>
        <time>2022-08-05T07:11:21Z</time>
      </trkpt>
      <trkpt lat="45.38006" lon="1.92998">
        <ele>597.1</ele>
        <time>2022-08-05T07:11:23Z</time>
      </trkpt>
      <trkpt lat="45.37998" lon="1.9301">
        <ele>597.1</ele>
        <time>2022-08-05T07:11:25Z</time>
      </trkpt>
      <trkpt lat="45.37991" lon="1.93023">
        <ele>596.1</ele>
        <time>2022-08-05T07:11:27Z</time>
      </trkpt>
      <trkpt lat="45.37986" lon="1.93038">
        <ele>594.9</ele>
        <time>2022-08-05T07:11:29Z</time>
      </trkpt>
      <trkpt lat="45.37984" lon="1.93053">
        <ele>593.5</ele>
        <time>2022-08-05T07:11:31Z</time>
      </trkpt>
      <trkpt lat="45.37984" lon="1.93069">
        <ele>592.1</ele>
        <time>2022-08-05T07:11:33Z</time>
      </trkpt>
      <trkpt lat="45.37984" lon="1.93085">
        <ele>590.6</ele>
        <time>2022-08-05T07:11:35Z</time>
      </trkpt>
      <trkpt lat="45.37983" lon="1.93102">
        <ele>588.8</ele>
        <time>2022-08-05T07:11:37Z</time>
      </trkpt>
      <trkpt lat="45.3798" lon="1.93118">
        <ele>587.2</ele>
        <time>2022-08-05T07:11:39Z</time>
      </trkpt>
      <trkpt lat="45.37975" lon="1.93135">
        <ele>585.6</ele>
        <time>2022-08-05T07:11:41Z</time>
      </trkpt>
      <trkpt lat="45.3797" lon="1.93151">
        <ele>584.1</ele>
        <time>2022-08-05T07:11:43Z</time>
      </trkpt>
      <trkpt lat="45.37965" lon="1.93166">
        <ele>582.7</ele>
        <time>2022-08-05T07:11:45Z</time>
      </trkpt>
      <trkpt lat="45.3796" lon="1.93183">
        <ele>583.4</ele>
        <time>2022-08-05T07:11:47Z</time>
      </trkpt>
      <trkpt lat="45.37956" lon="1.932">
        <ele>584.1</ele>
        <time>2022-08-05T07:11:49Z</time>
      </trkpt>
      <trkpt lat="45.37955" lon="1.93218">
        <ele>584.6</ele>
        <time>2022-08-05T07:11:51Z</time>
      </trkpt>
      <trkpt lat="45.37953" lon="1.93236">
        <ele>585.1</ele>
        <time>2022-08-05T07:11:53Z</time>
      </trkpt>
      <trkpt lat="45.37953" lon="1.93254">
        <ele>585.4</ele>
        <time>2022-08-05T07:11:55Z</time>
      </trkpt>
      <trkpt lat="45.37952" lon="1.93272">
        <ele>585.3</ele>
        <time>2022-08-05T07:11:57Z</time>
      </trkpt>
      <trkpt lat="45.3795" lon="1.9329">
        <ele>585.2</ele>
        <time>2022-08-05T07:11:59Z</time>
      </trkpt>
      <trkpt lat="45.3795" lon="1.93309">
        <ele>585.1</ele>
        <time>2022-08-05T07:12:01Z</time>
      </trkpt>
      <trkpt lat="45.37949" lon="1.93327">
        <ele>584.9</ele>
        <time>2022-08-05T07:12:03Z</time>
      </trkpt>
      <trkpt lat="45.37947" lon="1.93347">
        <ele>584</ele>
        <time>2022-08-05T07:12:05Z</time>
      </trkpt>
      <trkpt lat="45.37945" lon="1.93367">
        <ele>582.8</ele>
        <time>2022-08-05T07:12:07Z</time>
      </trkpt>
      <trkpt lat="45.3794" lon="1.93388">
        <ele>581.6</ele>
        <time>2022-08-05T07:12:09Z</time>
      </trkpt>
      <trkpt lat="45.3793" lon="1.93407">
        <ele>580.9</ele>
        <time>2022-08-05T07:12:11Z</time>
      </trkpt>
      <trkpt lat="45.37914" lon="1.93421">
        <ele>580.8</ele>
        <time>2022-08-05T07:12:13Z</time>
      </trkpt>
      <trkpt lat="45.37898" lon="1.93431">
        <ele>579.9</ele>
        <time>2022-08-05T07:12:15Z</time>
      </trkpt>
      <trkpt lat="45.37881" lon="1.93442">
        <ele>579.1</ele>
        <time>2022-08-05T07:12:17Z</time>
      </trkpt>
      <trkpt lat="45.37864" lon="1.93452">
        <ele>578.4</ele>
        <time>2022-08-05T07:12:19Z</time>
      </trkpt>
      <trkpt lat="45.37846" lon="1.93458">
        <ele>577.8</ele>
        <time>2022-08-05T07:12:21Z</time>
      </trkpt>
      <trkpt lat="45.37828" lon="1.93463">
        <ele>577.5</ele>
        <time>2022-08-05T07:12:23Z</time>
      </trkpt>
      <trkpt lat="45.37811" lon="1.93469">
        <ele>577.5</ele>
        <time>2022-08-05T07:12:25Z</time>
      </trkpt>
      <trkpt lat="45.37796" lon="1.93476">
        <ele>577.7</ele>
        <time>2022-08-05T07:12:27Z</time>
      </trkpt>
      <trkpt lat="45.37783" lon="1.93488">
        <ele>578</ele>
        <time>2022-08-05T07:12:29Z</time>
      </trkpt>
      <trkpt lat="45.37771" lon="1.935">
        <ele>578.5</ele>
        <time>2022-08-05T07:12:31Z</time>
      </trkpt>
      <trkpt lat="45.3776" lon="1.93511">
        <ele>579.4</ele>
        <time>2022-08-05T07:12:33Z</time>
      </trkpt>
      <trkpt lat="45.37751" lon="1.93519">
        <ele>580.3</ele>
        <time>2022-08-05T07:12:35Z</time>
      </trkpt>
      <trkpt lat="45.37744" lon="1.93528">
        <ele>581.6</ele>
        <time>2022-08-05T07:12:37Z</time>
      </trkpt>
      <trkpt lat="45.37738" lon="1.93535">
        <ele>582.6</ele>
        <time>2022-08-05T07:12:39Z</time>
      </trkpt>
      <trkpt lat="45.37732" lon="1.9354">
        <ele>583.3</ele>
        <time>2022-08-05T07:12:41Z</time>
      </trkpt>
      <trkpt lat="45.37728" lon="1.93545">
        <ele>583.8</ele>
        <time>2022-08-05T07:12:43Z</time>
      </trkpt>
      <trkpt lat="45.37724" lon="1.9355">
        <ele>584.3</ele>
        <time>2022-08-05T07:12:45Z</time>
      </trkpt>
      <trkpt lat="45.3772" lon="1.93555">
        <ele>584.8</ele>
        <time>2022-08-05T07:12:47Z</time>
      </trkpt>
      <trkpt lat="45.37716" lon="1.93559">
        <ele>585.1</ele>
        <time>2022-08-05T07:12:49Z</time>
      </trkpt>
      <trkpt lat="45.37712" lon="1.93563">
        <ele>585.4</ele>
        <time>2022-08-05T07:12:51Z</time>
      </trkpt>
      <trkpt lat="45.37709" lon="1.93567">
        <ele>585.7</ele>
        <time>2022-08-05T07:12:53Z</time>
      </trkpt>
      <trkpt lat="45.37706" lon="1.9357">
        <ele>585.9</ele>
        <time>2022-08-05T07:12:55Z</time>
      </trkpt>
      <trkpt lat="45.37703" lon="1.93574">
        <ele>586</ele>
        <time>2022-08-05T07:12:57Z</time>
      </trkpt>
      <trkpt lat="45.377" lon="1.93577">
        <ele>586.1</ele>
        <time>2022-08-05T07:12:59Z</time>
      </trkpt>
      <trkpt lat="45.37698" lon="1.93579">
        <ele>586.2</ele>
        <time>2022-08-05T07:13:01Z</time>
      </trkpt>
      <trkpt lat="45.37697" lon="1.93581">
        <ele>586.3</ele>
        <time>2022-08-05T07:13:03Z</time>
      </trkpt>
      <trkpt lat="45.37694" lon="1.93584">
        <ele>586.3</ele>
        <time>2022-08-05T07:13:05Z</time>
      </trkpt>
      <trkpt lat="45.37691" lon="1.93587">
        <ele>586.4</ele>
        <time>2022-08-05T07:13:07Z</time>
      </trkpt>
      <trkpt lat="45.37686" lon="1.93591">
        <ele>586.4</ele>
        <time>2022-08-05T07:13:09Z</time>
      </trkpt>
      <trkpt lat="45.37682" lon="1.93593">
        <ele>586.5</ele>
        <time>2022-08-05T07:13:11Z</time>
      </trkpt>
      <trkpt lat="45.37679" lon="1.93594">
        <ele>586.6</ele>
        <time>2022-08-05T07:13:13Z</time>
      </trkpt>
      <trkpt lat="45.37675" lon="1.93596">
        <ele>586.6</ele>
        <time>2022-08-05T07:13:15Z</time>
      </trkpt>
      <trkpt lat="45.37671" lon="1.93595">
        <ele>586.7</ele>
        <time>2022-08-05T07:13:17Z</time>
      </trkpt>
      <trkpt lat="45.37667" lon="1.93595">
        <ele>586.8</ele>
        <time>2022-08-05T07:13:19Z</time>
      </trkpt>
      <trkpt lat="45.37664" lon="1.93595">
        <ele>587.2</ele>
        <time>2022-08-05T07:13:21Z</time>
      </trkpt>
      <trkpt lat="45.3766" lon="1.93595">
        <ele>587.6</ele>
        <time>2022-08-05T07:13:23Z</time>
      </trkpt>
      <trkpt lat="45.37657" lon="1.93595">
        <ele>587.9</ele>
        <time>2022-08-05T07:13:25Z</time>
      </trkpt>
      <trkpt lat="45.37654" lon="1.93595">
        <ele>588.3</ele>
        <time>2022-08-05T07:13:27Z</time>
      </trkpt>
      <trkpt lat="45.3765" lon="1.93593">
        <ele>588.8</ele>
        <time>2022-08-05T07:13:29Z</time>
      </trkpt>
      <trkpt lat="45.37647" lon="1.9359">
        <ele>589.2</ele>
        <time>2022-08-05T07:13:31Z</time>
      </trkpt>
      <trkpt lat="45.37644" lon="1.93589">
        <ele>589.5</ele>
        <time>2022-08-05T07:13:33Z</time>
      </trkpt>
      <trkpt lat="45.37641" lon="1.9359">
        <ele>589.8</ele>
        <time>2022-08-05T07:13:35Z</time>
      </trkpt>
      <trkpt lat="45.37638" lon="1.93592">
        <ele>590.1</ele>
        <time>2022-08-05T07:13:37Z</time>
      </trkpt>
      <trkpt lat="45.37635" lon="1.93592">
        <ele>590.5</ele>
        <time>2022-08-05T07:13:39Z</time>
      </trkpt>
      <trkpt lat="45.37632" lon="1.93591">
        <ele>590.9</ele>
        <time>2022-08-05T07:13:41Z</time>
      </trkpt>
      <trkpt lat="45.37628" lon="1.93591">
        <ele>591.3</ele>
        <time>2022-08-05T07:13:43Z</time>
      </trkpt>
      <trkpt lat="45.37625" lon="1.93591">
        <ele>591.6</ele>
        <time>2022-08-05T07:13:45Z</time>
      </trkpt>
      <trkpt lat="45.37622" lon="1.93591">
        <ele>592</ele>
        <time>2022-08-05T07:13:47Z</time>
      </trkpt>
      <trkpt lat="45.37618" lon="1.93592">
        <ele>592.4</ele>
        <time>2022-08-05T07:13:49Z</time>
      </trkpt>
      <trkpt lat="45.37615" lon="1.93593">
        <ele>592.8</ele>
        <time>2022-08-05T07:13:51Z</time>
      </trkpt>
      <trkpt lat="45.37612" lon="1.93594">
        <ele>593.1</ele>
        <time>2022-08-05T07:13:53Z</time>
      </trkpt>
      <trkpt lat="45.37609" lon="1.93595">
        <ele>593.4</ele>
        <time>2022-08-05T07:13:55Z</time>
      </trkpt>
      <trkpt lat="45.37605" lon="1.93596">
        <ele>593.6</ele>
        <time>2022-08-05T07:13:57Z</time>
      </trkpt>
      <trkpt lat="45.37602" lon="1.93598">
        <ele>593.9</ele>
        <time>2022-08-05T07:13:59Z</time>
      </trkpt>
      <trkpt lat="45.376" lon="1.93601">
        <ele>594</ele>
        <time>2022-08-05T07:14:01Z</time>
      </trkpt>
      <trkpt lat="45.37597" lon="1.93603">
        <ele>594.2</ele>
        <time>2022-08-05T07:14:03Z</time>
      </trkpt>
      <trkpt lat="45.37593" lon="1.93606">
        <ele>594.3</ele>
        <time>2022-08-05T07:14:05Z</time>
      </trkpt>
      <trkpt lat="45.3759" lon="1.93607">
        <ele>594.6</ele>
        <time>2022-08-05T07:14:07Z</time>
      </trkpt>
      <trkpt lat="45.37587" lon="1.93609">
        <ele>594.7</ele>
        <time>2022-08-05T07:14:09Z</time>
      </trkpt>
      <trkpt lat="45.37586" lon="1.93611">
        <ele>594.7</ele>
        <time>2022-08-05T07:14:11Z</time>
      </trkpt>
      <trkpt lat="45.37583" lon="1.93612">
        <ele>594.9</ele>
        <time>2022-08-05T07:14:13Z</time>
      </trkpt>
      <trkpt lat="45.37581" lon="1.93615">
        <ele>594.9</ele>
        <time>2022-08-05T07:14:15Z</time>
      </trkpt>
      <trkpt lat="45.37578" lon="1.93618">
        <ele>594.9</ele>
        <time>2022-08-05T07:14:17Z</time>
      </trkpt>
      <trkpt lat="45.37576" lon="1.93621">
        <ele>594.9</ele>
        <time>2022-08-05T07:14:19Z</time>
      </trkpt>
      <trkpt lat="45.37573" lon="1.93624">
        <ele>595</ele>
        <time>2022-08-05T07:14:21Z</time>
      </trkpt>
      <trkpt lat="45.37571" lon="1.93627">
        <ele>595</ele>
        <time>2022-08-05T07:14:23Z</time>
      </trkpt>
      <trkpt lat="45.37569" lon="1.93631">
        <ele>595</ele>
        <time>2022-08-05T07:14:25Z</time>
      </trkpt>
      <trkpt lat="45.37567" lon="1.93634">
        <ele>595</ele>
        <time>2022-08-05T07:14:27Z</time>
      </trkpt>
      <trkpt lat="45.37564" lon="1.93636">
        <ele>595.2</ele>
        <time>2022-08-05T07:14:29Z</time>
      </trkpt>
      <trkpt lat="45.37561" lon="1.93639">
        <ele>595.3</ele>
        <time>2022-08-05T07:14:31Z</time>
      </trkpt>
      <trkpt lat="45.37558" lon="1.93641">
        <ele>595.7</ele>
        <time>2022-08-05T07:14:33Z</time>
      </trkpt>
      <trkpt lat="45.37555" lon="1.93642">
        <ele>595.9</ele>
        <time>2022-08-05T07:14:35Z</time>
      </trkpt>
      <trkpt lat="45.37551" lon="1.93644">
        <ele>596.3</ele>
        <time>2022-08-05T07:14:37Z</time>
      </trkpt>
      <trkpt lat="45.37548" lon="1.93644">
        <ele>596.7</ele>
        <time>2022-08-05T07:14:39Z</time>
      </trkpt>
      <trkpt lat="45.37545" lon="1.93644">
        <ele>597</ele>
        <time>2022-08-05T07:14:41Z</time>
      </trkpt>
      <trkpt lat="45.37542" lon="1.93643">
        <ele>597.4</ele>
        <time>2022-08-05T07:14:43Z</time>
      </trkpt>
      <trkpt lat="45.37538" lon="1.93643">
        <ele>597.9</ele>
        <time>2022-08-05T07:14:45Z</time>
      </trkpt>
      <trkpt lat="45.37535" lon="1.93641">
        <ele>598.2</ele>
        <time>2022-08-05T07:14:47Z</time>
      </trkpt>
      <trkpt lat="45.37532" lon="1.93638">
        <ele>598.6</ele>
        <time>2022-08-05T07:14:49Z</time>
      </trkpt>
      <trkpt lat="45.37529" lon="1.93636">
        <ele>598.9</ele>
        <time>2022-08-05T07:14:51Z</time>
      </trkpt>
      <trkpt lat="45.37526" lon="1.93634">
        <ele>599.2</ele>
        <time>2022-08-05T07:14:53Z</time>
      </trkpt>
      <trkpt lat="45.37523" lon="1.93631">
        <ele>599.5</ele>
        <time>2022-08-05T07:14:55Z</time>
      </trkpt>
      <trkpt lat="45.3752" lon="1.93628">
        <ele>599.7</ele>
        <time>2022-08-05T07:14:57Z</time>
      </trkpt>
      <trkpt lat="45.37517" lon="1.93625">
        <ele>600</ele>
        <time>2022-08-05T07:14:59Z</time>
      </trkpt>
      <trkpt lat="45.37515" lon="1.93623">
        <ele>600.2</ele>
        <time>2022-08-05T07:15:01Z</time>
      </trkpt>
      <trkpt lat="45.37512" lon="1.9362">
        <ele>600.3</ele>
        <time>2022-08-05T07:15:03Z</time>
      </trkpt>
      <trkpt lat="45.37509" lon="1.93617">
        <ele>600.5</ele>
        <time>2022-08-05T07:15:05Z</time>
      </trkpt>
      <trkpt lat="45.37506" lon="1.93615">
        <ele>600.7</ele>
        <time>2022-08-05T07:15:07Z</time>
      </trkpt>
      <trkpt lat="45.37503" lon="1.93611">
        <ele>600.8</ele>
        <time>2022-08-05T07:15:09Z</time>
      </trkpt>
      <trkpt lat="45.375" lon="1.93609">
        <ele>600.9</ele>
        <time>2022-08-05T07:15:11Z</time>
      </trkpt>
      <trkpt lat="45.37497" lon="1.93606">
        <ele>601</ele>
        <time>2022-08-05T07:15:13Z</time>
      </trkpt>
      <trkpt lat="45.37494" lon="1.93603">
        <ele>601</ele>
        <time>2022-08-05T07:15:15Z</time>
      </trkpt>
      <trkpt lat="45.37491" lon="1.936">
        <ele>601.1</ele>
        <time>2022-08-05T07:15:17Z</time>
      </trkpt>
      <trkpt lat="45.37488" lon="1.93597">
        <ele>601.2</ele>
        <time>2022-08-05T07:15:19Z</time>
      </trkpt>
      <trkpt lat="45.37486" lon="1.93594">
        <ele>601.3</ele>
        <time>2022-08-05T07:15:21Z</time>
      </trkpt>
      <trkpt lat="45.37483" lon="1.93591">
        <ele>601.4</ele>
        <time>2022-08-05T07:15:23Z</time>
      </trkpt>
      <trkpt lat="45.3748" lon="1.93588">
        <ele>601.5</ele>
        <time>2022-08-05T07:15:25Z</time>
      </trkpt>
      <trkpt lat="45.37477" lon="1.93586">
        <ele>601.7</ele>
        <time>2022-08-05T07:15:27Z</time>
      </trkpt>
      <trkpt lat="45.37474" lon="1.93582">
        <ele>601.9</ele>
        <time>2022-08-05T07:15:29Z</time>
      </trkpt>
      <trkpt lat="45.37471" lon="1.9358">
        <ele>602.2</ele>
        <time>2022-08-05T07:15:31Z</time>
      </trkpt>
      <trkpt lat="45.37469" lon="1.93577">
        <ele>602.5</ele>
        <time>2022-08-05T07:15:33Z</time>
      </trkpt>
      <trkpt lat="45.37466" lon="1.93574">
        <ele>602.9</ele>
        <time>2022-08-05T07:15:35Z</time>
      </trkpt>
      <trkpt lat="45.37463" lon="1.93572">
        <ele>603.2</ele>
        <time>2022-08-05T07:15:37Z</time>
      </trkpt>
      <trkpt lat="45.3746" lon="1.93569">
        <ele>603.5</ele>
        <time>2022-08-05T07:15:39Z</time>
      </trkpt>
      <trkpt lat="45.37457" lon="1.93567">
        <ele>603.8</ele>
        <time>2022-08-05T07:15:41Z</time>
      </trkpt>
      <trkpt lat="45.37455" lon="1.93564">
        <ele>604.1</ele>
        <time>2022-08-05T07:15:43Z</time>
      </trkpt>
      <trkpt lat="45.37452" lon="1.93562">
        <ele>604.4</ele>
        <time>2022-08-05T07:15:45Z</time>
      </trkpt>
      <trkpt lat="45.37449" lon="1.9356">
        <ele>604.7</ele>
        <time>2022-08-05T07:15:47Z</time>
      </trkpt>
      <trkpt lat="45.37447" lon="1.93558">
        <ele>604.9</ele>
        <time>2022-08-05T07:15:49Z</time>
      </trkpt>
      <trkpt lat="45.37444" lon="1.93555">
        <ele>605.2</ele>
        <time>2022-08-05T07:15:51Z</time>
      </trkpt>
      <trkpt lat="45.37441" lon="1.93553">
        <ele>605.6</ele>
        <time>2022-08-05T07:15:53Z</time>
      </trkpt>
      <trkpt lat="45.37438" lon="1.93553">
        <ele>605.8</ele>
        <time>2022-08-05T07:15:55Z</time>
      </trkpt>
      <trkpt lat="45.37435" lon="1.93552">
        <ele>606.1</ele>
        <time>2022-08-05T07:15:57Z</time>
      </trkpt>
      <trkpt lat="45.37432" lon="1.93551">
        <ele>606.4</ele>
        <time>2022-08-05T07:15:59Z</time>
      </trkpt>
      <trkpt lat="45.37429" lon="1.9355">
        <ele>606.6</ele>
        <time>2022-08-05T07:16:01Z</time>
      </trkpt>
      <trkpt lat="45.37425" lon="1.9355">
        <ele>606.9</ele>
        <time>2022-08-05T07:16:03Z</time>
      </trkpt>
      <trkpt lat="45.37422" lon="1.93549">
        <ele>607.3</ele>
        <time>2022-08-05T07:16:05Z</time>
      </trkpt>
      <trkpt lat="45.37418" lon="1.93548">
        <ele>607.6</ele>
        <time>2022-08-05T07:16:07Z</time>
      </trkpt>
      <trkpt lat="45.37414" lon="1.93547">
        <ele>607.9</ele>
        <time>2022-08-05T07:16:09Z</time>
      </trkpt>
      <trkpt lat="45.3741" lon="1.93546">
        <ele>608</ele>
        <time>2022-08-05T07:16:11Z</time>
      </trkpt>
      <trkpt lat="45.37406" lon="1.93546">
        <ele>608.2</ele>
        <time>2022-08-05T07:16:13Z</time>
      </trkpt>
      <trkpt lat="45.37402" lon="1.93545">
        <ele>608.4</ele>
        <time>2022-08-05T07:16:15Z</time>
      </trkpt>
      <trkpt lat="45.37398" lon="1.93544">
        <ele>608.7</ele>
        <time>2022-08-05T07:16:17Z</time>
      </trkpt>
      <trkpt lat="45.37394" lon="1.93543">
        <ele>608.9</ele>
        <time>2022-08-05T07:16:19Z</time>
      </trkpt>
      <trkpt lat="45.3739" lon="1.93543">
        <ele>609.1</ele>
        <time>2022-08-05T07:16:21Z</time>
      </trkpt>
      <trkpt lat="45.37386" lon="1.93541">
        <ele>609.3</ele>
        <time>2022-08-05T07:16:23Z</time>
      </trkpt>
      <trkpt lat="45.37381" lon="1.93541">
        <ele>609.6</ele>
        <time>2022-08-05T07:16:25Z</time>
      </trkpt>
      <trkpt lat="45.37377" lon="1.9354">
        <ele>609.8</ele>
        <time>2022-08-05T07:16:27Z</time>
      </trkpt>
      <trkpt lat="45.37373" lon="1.93539">
        <ele>610</ele>
        <time>2022-08-05T07:16:29Z</time>
      </trkpt>
      <trkpt lat="45.37369" lon="1.93538">
        <ele>610.3</ele>
        <time>2022-08-05T07:16:31Z</time>
      </trkpt>
      <trkpt lat="45.37365" lon="1.93537">
        <ele>610.5</ele>
        <time>2022-08-05T07:16:33Z</time>
      </trkpt>
      <trkpt lat="45.3736" lon="1.93537">
        <ele>610.7</ele>
        <time>2022-08-05T07:16:35Z</time>
      </trkpt>
      <trkpt lat="45.37356" lon="1.93538">
        <ele>610.8</ele>
        <time>2022-08-05T07:16:37Z</time>
      </trkpt>
      <trkpt lat="45.37351" lon="1.93536">
        <ele>611.2</ele>
        <time>2022-08-05T07:16:39Z</time>
      </trkpt>
      <trkpt lat="45.37347" lon="1.93536">
        <ele>611.4</ele>
        <time>2022-08-05T07:16:41Z</time>
      </trkpt>
      <trkpt lat="45.37341" lon="1.93535">
        <ele>611.7</ele>
        <time>2022-08-05T07:16:43Z</time>
      </trkpt>
      <trkpt lat="45.37336" lon="1.93533">
        <ele>612.1</ele>
        <time>2022-08-05T07:16:45Z</time>
      </trkpt>
      <trkpt lat="45.37331" lon="1.93533">
        <ele>612.1</ele>
        <time>2022-08-05T07:16:47Z</time>
      </trkpt>
      <trkpt lat="45.37327" lon="1.93532">
        <ele>611.9</ele>
        <time>2022-08-05T07:16:49Z</time>
      </trkpt>
      <trkpt lat="45.37322" lon="1.93531">
        <ele>611.8</ele>
        <time>2022-08-05T07:16:51Z</time>
      </trkpt>
      <trkpt lat="45.37318" lon="1.93531">
        <ele>611.5</ele>
        <time>2022-08-05T07:16:53Z</time>
      </trkpt>
      <trkpt lat="45.37313" lon="1.9353">
        <ele>611.3</ele>
        <time>2022-08-05T07:16:55Z</time>
      </trkpt>
      <trkpt lat="45.37308" lon="1.93529">
        <ele>611.2</ele>
        <time>2022-08-05T07:16:57Z</time>
      </trkpt>
      <trkpt lat="45.37304" lon="1.93528">
        <ele>611</ele>
        <time>2022-08-05T07:16:59Z</time>
      </trkpt>
      <trkpt lat="45.37299" lon="1.93527">
        <ele>610.8</ele>
        <time>2022-08-05T07:17:01Z</time>
      </trkpt>
      <trkpt lat="45.37294" lon="1.93526">
        <ele>610.7</ele>
        <time>2022-08-05T07:17:03Z</time>
      </trkpt>
      <trkpt lat="45.37289" lon="1.93525">
        <ele>610.5</ele>
        <time>2022-08-05T07:17:05Z</time>
      </trkpt>
      <trkpt lat="45.37284" lon="1.93524">
        <ele>610.3</ele>
        <time>2022-08-05T07:17:07Z</time>
      </trkpt>
      <trkpt lat="45.37279" lon="1.93521">
        <ele>610.3</ele>
        <time>2022-08-05T07:17:09Z</time>
      </trkpt>
      <trkpt lat="45.37274" lon="1.93519">
        <ele>610.2</ele>
        <time>2022-08-05T07:17:11Z</time>
      </trkpt>
      <trkpt lat="45.3727" lon="1.93517">
        <ele>610.2</ele>
        <time>2022-08-05T07:17:13Z</time>
      </trkpt>
      <trkpt lat="45.37265" lon="1.93513">
        <ele>610.3</ele>
        <time>2022-08-05T07:17:15Z</time>
      </trkpt>
      <trkpt lat="45.37259" lon="1.93508">
        <ele>610.6</ele>
        <time>2022-08-05T07:17:17Z</time>
      </trkpt>
      <trkpt lat="45.37255" lon="1.935">
        <ele>611.2</ele>
        <time>2022-08-05T07:17:19Z</time>
      </trkpt>
      <trkpt lat="45.3725" lon="1.93492">
        <ele>611.1</ele>
        <time>2022-08-05T07:17:21Z</time>
      </trkpt>
      <trkpt lat="45.37245" lon="1.93483">
        <ele>610.7</ele>
        <time>2022-08-05T07:17:23Z</time>
      </trkpt>
      <trkpt lat="45.3724" lon="1.93474">
        <ele>610.3</ele>
        <time>2022-08-05T07:17:25Z</time>
      </trkpt>
      <trkpt lat="45.37237" lon="1.93464">
        <ele>610.1</ele>
        <time>2022-08-05T07:17:27Z</time>
      </trkpt>
      <trkpt lat="45.37232" lon="1.93453">
        <ele>609.6</ele>
        <time>2022-08-05T07:17:29Z</time>
      </trkpt>
      <trkpt lat="45.37226" lon="1.93442">
        <ele>609</ele>
        <time>2022-08-05T07:17:31Z</time>
      </trkpt>
      <trkpt lat="45.37219" lon="1.9343">
        <ele>608.3</ele>
        <time>2022-08-05T07:17:33Z</time>
      </trkpt>
      <trkpt lat="45.37213" lon="1.93419">
        <ele>607.6</ele>
        <time>2022-08-05T07:17:35Z</time>
      </trkpt>
      <trkpt lat="45.37206" lon="1.93408">
        <ele>606.2</ele>
        <time>2022-08-05T07:17:37Z</time>
      </trkpt>
      <trkpt lat="45.37199" lon="1.93397">
        <ele>604.8</ele>
        <time>2022-08-05T07:17:39Z</time>
      </trkpt>
      <trkpt lat="45.37193" lon="1.93386">
        <ele>603.4</ele>
        <time>2022-08-05T07:17:41Z</time>
      </trkpt>
      <trkpt lat="45.37187" lon="1.93375">
        <ele>602.3</ele>
        <time>2022-08-05T07:17:43Z</time>
      </trkpt>
      <trkpt lat="45.3718" lon="1.93365">
        <ele>601.2</ele>
        <time>2022-08-05T07:17:45Z</time>
      </trkpt>
      <trkpt lat="45.37173" lon="1.93352">
        <ele>600.1</ele>
        <time>2022-08-05T07:17:47Z</time>
      </trkpt>
      <trkpt lat="45.37168" lon="1.93342">
        <ele>599.3</ele>
        <time>2022-08-05T07:17:49Z</time>
      </trkpt>
      <trkpt lat="45.37165" lon="1.93335">
        <ele>599</ele>
        <time>2022-08-05T07:17:51Z</time>
      </trkpt>
      <trkpt lat="45.37164" lon="1.93333">
        <ele>599</ele>
        <time>2022-08-05T07:17:53Z</time>
      </trkpt>
      <trkpt lat="45.37164" lon="1.93334">
        <ele>599</ele>
        <time>2022-08-05T07:17:55Z</time>
      </trkpt>
      <trkpt lat="45.37164" lon="1.93334">
        <ele>599</ele>
        <time>2022-08-05T07:17:57Z</time>
      </trkpt>
      <trkpt lat="45.37164" lon="1.93334">
        <ele>599</ele>
        <time>2022-08-05T07:17:59Z</time>
      </trkpt>
      <trkpt lat="45.37164" lon="1.93334">
        <ele>599</ele>
        <time>2022-08-05T07:18:01Z</time>
      </trkpt>
      <trkpt lat="45.37164" lon="1.93334">
        <ele>599</ele>
        <time>2022-08-05T07:18:03Z</time>
      </trkpt>
      <trkpt lat="45.37161" lon="1.93329">
        <ele>598.7</ele>
        <time>2022-08-05T07:18:05Z</time>
      </trkpt>
      <trkpt lat="45.37157" lon="1.93324">
        <ele>598.4</ele>
        <time>2022-08-05T07:18:07Z</time>
      </trkpt>
      <trkpt lat="45.37152" lon="1.93317">
        <ele>598</ele>
        <time>2022-08-05T07:18:09Z</time>
      </trkpt>
      <trkpt lat="45.37147" lon="1.93309">
        <ele>597.8</ele>
        <time>2022-08-05T07:18:11Z</time>
      </trkpt>
      <trkpt lat="45.37141" lon="1.933">
        <ele>597.4</ele>
        <time>2022-08-05T07:18:13Z</time>
      </trkpt>
      <trkpt lat="45.37135" lon="1.93289">
        <ele>597.2</ele>
        <time>2022-08-05T07:18:15Z</time>
      </trkpt>
      <trkpt lat="45.37128" lon="1.93277">
        <ele>597.2</ele>
        <time>2022-08-05T07:18:17Z</time>
      </trkpt>
      <trkpt lat="45.3712" lon="1.93263">
        <ele>597.3</ele>
        <time>2022-08-05T07:18:19Z</time>
      </trkpt>
      <trkpt lat="45.37111" lon="1.9325">
        <ele>597.7</ele>
        <time>2022-08-05T07:18:21Z</time>
      </trkpt>
      <trkpt lat="45.37102" lon="1.93236">
        <ele>597.8</ele>
        <time>2022-08-05T07:18:23Z</time>
      </trkpt>
      <trkpt lat="45.37092" lon="1.9322">
        <ele>597.6</ele>
        <time>2022-08-05T07:18:25Z</time>
      </trkpt>
      <trkpt lat="45.37081" lon="1.93204">
        <ele>597.4</ele>
        <time>2022-08-05T07:18:27Z</time>
      </trkpt>
      <trkpt lat="45.3707" lon="1.9319">
        <ele>597.4</ele>
        <time>2022-08-05T07:18:29Z</time>
      </trkpt>
      <trkpt lat="45.37057" lon="1.93177">
        <ele>597.9</ele>
        <time>2022-08-05T07:18:31Z</time>
      </trkpt>
      <trkpt lat="45.37045" lon="1.93167">
        <ele>598.7</ele>
        <time>2022-08-05T07:18:33Z</time>
      </trkpt>
      <trkpt lat="45.37032" lon="1.93157">
        <ele>599.1</ele>
        <time>2022-08-05T07:18:35Z</time>
      </trkpt>
      <trkpt lat="45.37019" lon="1.93147">
        <ele>599.3</ele>
        <time>2022-08-05T07:18:37Z</time>
      </trkpt>
      <trkpt lat="45.37007" lon="1.93138">
        <ele>599.4</ele>
        <time>2022-08-05T07:18:39Z</time>
      </trkpt>
      <trkpt lat="45.36995" lon="1.93129">
        <ele>598.8</ele>
        <time>2022-08-05T07:18:41Z</time>
      </trkpt>
      <trkpt lat="45.36982" lon="1.93122">
        <ele>597.6</ele>
        <time>2022-08-05T07:18:43Z</time>
      </trkpt>
      <trkpt lat="45.36968" lon="1.93114">
        <ele>596.6</ele>
        <time>2022-08-05T07:18:45Z</time>
      </trkpt>
      <trkpt lat="45.36956" lon="1.93109">
        <ele>596</ele>
        <time>2022-08-05T07:18:47Z</time>
      </trkpt>
      <trkpt lat="45.36943" lon="1.93104">
        <ele>595.4</ele>
        <time>2022-08-05T07:18:49Z</time>
      </trkpt>
      <trkpt lat="45.36929" lon="1.93101">
        <ele>595</ele>
        <time>2022-08-05T07:18:51Z</time>
      </trkpt>
      <trkpt lat="45.36914" lon="1.93097">
        <ele>594.9</ele>
        <time>2022-08-05T07:18:53Z</time>
      </trkpt>
      <trkpt lat="45.36901" lon="1.93092">
        <ele>595.9</ele>
        <time>2022-08-05T07:18:55Z</time>
      </trkpt>
      <trkpt lat="45.36888" lon="1.93084">
        <ele>596.8</ele>
        <time>2022-08-05T07:18:57Z</time>
      </trkpt>
      <trkpt lat="45.36876" lon="1.93076">
        <ele>597.2</ele>
        <time>2022-08-05T07:18:59Z</time>
      </trkpt>
      <trkpt lat="45.36864" lon="1.93068">
        <ele>597.4</ele>
        <time>2022-08-05T07:19:01Z</time>
      </trkpt>
      <trkpt lat="45.36854" lon="1.93062">
        <ele>597.4</ele>
        <time>2022-08-05T07:19:03Z</time>
      </trkpt>
      <trkpt lat="45.36846" lon="1.93056">
        <ele>597.4</ele>
        <time>2022-08-05T07:19:05Z</time>
      </trkpt>
      <trkpt lat="45.36839" lon="1.93051">
        <ele>597.4</ele>
        <time>2022-08-05T07:19:07Z</time>
      </trkpt>
      <trkpt lat="45.36832" lon="1.9305">
        <ele>597.6</ele>
        <time>2022-08-05T07:19:09Z</time>
      </trkpt>
      <trkpt lat="45.36825" lon="1.93049">
        <ele>597.6</ele>
        <time>2022-08-05T07:19:11Z</time>
      </trkpt>
      <trkpt lat="45.36818" lon="1.93053">
        <ele>598.1</ele>
        <time>2022-08-05T07:19:13Z</time>
      </trkpt>
      <trkpt lat="45.36811" lon="1.93055">
        <ele>598.4</ele>
        <time>2022-08-05T07:19:15Z</time>
      </trkpt>
      <trkpt lat="45.36804" lon="1.93058">
        <ele>598.9</ele>
        <time>2022-08-05T07:19:17Z</time>
      </trkpt>
      <trkpt lat="45.36796" lon="1.93062">
        <ele>599.3</ele>
        <time>2022-08-05T07:19:19Z</time>
      </trkpt>
      <trkpt lat="45.36789" lon="1.93066">
        <ele>599.7</ele>
        <time>2022-08-05T07:19:21Z</time>
      </trkpt>
      <trkpt lat="45.36783" lon="1.93069">
        <ele>600.1</ele>
        <time>2022-08-05T07:19:23Z</time>
      </trkpt>
      <trkpt lat="45.36775" lon="1.93072">
        <ele>600.2</ele>
        <time>2022-08-05T07:19:25Z</time>
      </trkpt>
      <trkpt lat="45.36768" lon="1.93073">
        <ele>600.3</ele>
        <time>2022-08-05T07:19:27Z</time>
      </trkpt>
      <trkpt lat="45.36761" lon="1.93072">
        <ele>600.3</ele>
        <time>2022-08-05T07:19:29Z</time>
      </trkpt>
      <trkpt lat="45.36754" lon="1.9307">
        <ele>600.1</ele>
        <time>2022-08-05T07:19:31Z</time>
      </trkpt>
      <trkpt lat="45.36748" lon="1.93066">
        <ele>600.2</ele>
        <time>2022-08-05T07:19:33Z</time>
      </trkpt>
      <trkpt lat="45.36742" lon="1.93061">
        <ele>600.9</ele>
        <time>2022-08-05T07:19:35Z</time>
      </trkpt>
      <trkpt lat="45.36738" lon="1.93056">
        <ele>601.4</ele>
        <time>2022-08-05T07:19:37Z</time>
      </trkpt>
      <trkpt lat="45.36734" lon="1.93052">
        <ele>601.9</ele>
        <time>2022-08-05T07:19:39Z</time>
      </trkpt>
      <trkpt lat="45.3673" lon="1.93046">
        <ele>602.1</ele>
        <time>2022-08-05T07:19:41Z</time>
      </trkpt>
      <trkpt lat="45.36727" lon="1.93042">
        <ele>602.4</ele>
        <time>2022-08-05T07:19:43Z</time>
      </trkpt>
      <trkpt lat="45.36723" lon="1.93038">
        <ele>602.8</ele>
        <time>2022-08-05T07:19:45Z</time>
      </trkpt>
      <trkpt lat="45.3672" lon="1.93033">
        <ele>603</ele>
        <time>2022-08-05T07:19:47Z</time>
      </trkpt>
      <trkpt lat="45.36718" lon="1.9303">
        <ele>603.3</ele>
        <time>2022-08-05T07:19:49Z</time>
      </trkpt>
      <trkpt lat="45.36715" lon="1.93028">
        <ele>603.5</ele>
        <time>2022-08-05T07:19:51Z</time>
      </trkpt>
      <trkpt lat="45.36712" lon="1.93025">
        <ele>603.8</ele>
        <time>2022-08-05T07:19:53Z</time>
      </trkpt>
      <trkpt lat="45.36709" lon="1.93022">
        <ele>604.1</ele>
        <time>2022-08-05T07:19:55Z</time>
      </trkpt>
      <trkpt lat="45.36706" lon="1.93018">
        <ele>604.5</ele>
        <time>2022-08-05T07:19:57Z</time>
      </trkpt>
      <trkpt lat="45.36703" lon="1.93015">
        <ele>604.8</ele>
        <time>2022-08-05T07:19:59Z</time>
      </trkpt>
      <trkpt lat="45.36699" lon="1.93013">
        <ele>605.3</ele>
        <time>2022-08-05T07:20:01Z</time>
      </trkpt>
      <trkpt lat="45.36695" lon="1.9301">
        <ele>605.8</ele>
        <time>2022-08-05T07:20:03Z</time>
      </trkpt>
      <trkpt lat="45.36692" lon="1.93008">
        <ele>606.2</ele>
        <time>2022-08-05T07:20:05Z</time>
      </trkpt>
      <trkpt lat="45.36688" lon="1.93006">
        <ele>606.8</ele>
        <time>2022-08-05T07:20:07Z</time>
      </trkpt>
      <trkpt lat="45.36684" lon="1.93005">
        <ele>607.4</ele>
        <time>2022-08-05T07:20:09Z</time>
      </trkpt>
      <trkpt lat="45.3668" lon="1.93003">
        <ele>607.9</ele>
        <time>2022-08-05T07:20:11Z</time>
      </trkpt>
      <trkpt lat="45.36676" lon="1.93003">
        <ele>608.6</ele>
        <time>2022-08-05T07:20:13Z</time>
      </trkpt>
      <trkpt lat="45.36672" lon="1.93001">
        <ele>609.1</ele>
        <time>2022-08-05T07:20:15Z</time>
      </trkpt>
      <trkpt lat="45.36668" lon="1.93">
        <ele>609.7</ele>
        <time>2022-08-05T07:20:17Z</time>
      </trkpt>
      <trkpt lat="45.36664" lon="1.92999">
        <ele>610.1</ele>
        <time>2022-08-05T07:20:19Z</time>
      </trkpt>
      <trkpt lat="45.3666" lon="1.92998">
        <ele>610.3</ele>
        <time>2022-08-05T07:20:21Z</time>
      </trkpt>
      <trkpt lat="45.36656" lon="1.92997">
        <ele>610.4</ele>
        <time>2022-08-05T07:20:23Z</time>
      </trkpt>
      <trkpt lat="45.36651" lon="1.92995">
        <ele>610.6</ele>
        <time>2022-08-05T07:20:25Z</time>
      </trkpt>
      <trkpt lat="45.36648" lon="1.92994">
        <ele>610.7</ele>
        <time>2022-08-05T07:20:27Z</time>
      </trkpt>
      <trkpt lat="45.36644" lon="1.92993">
        <ele>610.9</ele>
        <time>2022-08-05T07:20:29Z</time>
      </trkpt>
      <trkpt lat="45.36639" lon="1.92992">
        <ele>611.1</ele>
        <time>2022-08-05T07:20:31Z</time>
      </trkpt>
      <trkpt lat="45.36636" lon="1.92991">
        <ele>611.2</ele>
        <time>2022-08-05T07:20:33Z</time>
      </trkpt>
      <trkpt lat="45.36631" lon="1.9299">
        <ele>611.4</ele>
        <time>2022-08-05T07:20:35Z</time>
      </trkpt>
      <trkpt lat="45.36627" lon="1.92989">
        <ele>611.6</ele>
        <time>2022-08-05T07:20:37Z</time>
      </trkpt>
      <trkpt lat="45.36623" lon="1.92988">
        <ele>611.7</ele>
        <time>2022-08-05T07:20:39Z</time>
      </trkpt>
      <trkpt lat="45.3662" lon="1.92988">
        <ele>611.9</ele>
        <time>2022-08-05T07:20:41Z</time>
      </trkpt>
      <trkpt lat="45.36616" lon="1.92987">
        <ele>612.1</ele>
        <time>2022-08-05T07:20:43Z</time>
      </trkpt>
      <trkpt lat="45.36613" lon="1.92987">
        <ele>612.2</ele>
        <time>2022-08-05T07:20:45Z</time>
      </trkpt>
      <trkpt lat="45.36609" lon="1.92985">
        <ele>612.3</ele>
        <time>2022-08-05T07:20:47Z</time>
      </trkpt>
      <trkpt lat="45.36606" lon="1.92984">
        <ele>612.5</ele>
        <time>2022-08-05T07:20:49Z</time>
      </trkpt>
      <trkpt lat="45.36602" lon="1.92983">
        <ele>612.6</ele>
        <time>2022-08-05T07:20:51Z</time>
      </trkpt>
      <trkpt lat="45.36599" lon="1.92982">
        <ele>612.8</ele>
        <time>2022-08-05T07:20:53Z</time>
      </trkpt>
      <trkpt lat="45.36595" lon="1.92981">
        <ele>612.9</ele>
        <time>2022-08-05T07:20:55Z</time>
      </trkpt>
      <trkpt lat="45.36591" lon="1.92979">
        <ele>613.1</ele>
        <time>2022-08-05T07:20:57Z</time>
      </trkpt>
      <trkpt lat="45.36587" lon="1.92978">
        <ele>613.3</ele>
        <time>2022-08-05T07:20:59Z</time>
      </trkpt>
      <trkpt lat="45.36583" lon="1.92976">
        <ele>613.4</ele>
        <time>2022-08-05T07:21:01Z</time>
      </trkpt>
      <trkpt lat="45.36578" lon="1.92975">
        <ele>613.3</ele>
        <time>2022-08-05T07:21:03Z</time>
      </trkpt>
      <trkpt lat="45.36574" lon="1.92973">
        <ele>613.2</ele>
        <time>2022-08-05T07:21:05Z</time>
      </trkpt>
      <trkpt lat="45.3657" lon="1.92972">
        <ele>613.1</ele>
        <time>2022-08-05T07:21:07Z</time>
      </trkpt>
      <trkpt lat="45.36565" lon="1.9297">
        <ele>612.9</ele>
        <time>2022-08-05T07:21:09Z</time>
      </trkpt>
      <trkpt lat="45.36561" lon="1.92968">
        <ele>612.8</ele>
        <time>2022-08-05T07:21:11Z</time>
      </trkpt>
      <trkpt lat="45.36557" lon="1.92967">
        <ele>612.8</ele>
        <time>2022-08-05T07:21:13Z</time>
      </trkpt>
      <trkpt lat="45.36553" lon="1.92964">
        <ele>612.7</ele>
        <time>2022-08-05T07:21:15Z</time>
      </trkpt>
      <trkpt lat="45.36549" lon="1.92961">
        <ele>612.6</ele>
        <time>2022-08-05T07:21:17Z</time>
      </trkpt>
      <trkpt lat="45.36545" lon="1.9296">
        <ele>612.5</ele>
        <time>2022-08-05T07:21:19Z</time>
      </trkpt>
      <trkpt lat="45.36542" lon="1.92958">
        <ele>612.5</ele>
        <time>2022-08-05T07:21:21Z</time>
      </trkpt>
      <trkpt lat="45.36538" lon="1.92956">
        <ele>612.5</ele>
        <time>2022-08-05T07:21:23Z</time>
      </trkpt>
      <trkpt lat="45.36534" lon="1.92953">
        <ele>612.4</ele>
        <time>2022-08-05T07:21:25Z</time>
      </trkpt>
      <trkpt lat="45.36531" lon="1.92951">
        <ele>612.4</ele>
        <time>2022-08-05T07:21:27Z</time>
      </trkpt>
      <trkpt lat="45.36527" lon="1.92949">
        <ele>612.4</ele>
        <time>2022-08-05T07:21:29Z</time>
      </trkpt>
      <trkpt lat="45.36523" lon="1.92948">
        <ele>612.4</ele>
        <time>2022-08-05T07:21:31Z</time>
      </trkpt>
      <trkpt lat="45.36519" lon="1.92945">
        <ele>612.4</ele>
        <time>2022-08-05T07:21:33Z</time>
      </trkpt>
      <trkpt lat="45.36515" lon="1.92944">
        <ele>612.4</ele>
        <time>2022-08-05T07:21:35Z</time>
      </trkpt>
      <trkpt lat="45.36511" lon="1.92941">
        <ele>612.4</ele>
        <time>2022-08-05T07:21:37Z</time>
      </trkpt>
      <trkpt lat="45.36506" lon="1.92938">
        <ele>612.5</ele>
        <time>2022-08-05T07:21:39Z</time>
      </trkpt>
      <trkpt lat="45.36501" lon="1.92935">
        <ele>612.5</ele>
        <time>2022-08-05T07:21:41Z</time>
      </trkpt>
      <trkpt lat="45.36496" lon="1.92932">
        <ele>612.4</ele>
        <time>2022-08-05T07:21:43Z</time>
      </trkpt>
      <trkpt lat="45.3649" lon="1.92927">
        <ele>612.1</ele>
        <time>2022-08-05T07:21:45Z</time>
      </trkpt>
      <trkpt lat="45.36484" lon="1.92921">
        <ele>611.8</ele>
        <time>2022-08-05T07:21:47Z</time>
      </trkpt>
      <trkpt lat="45.36479" lon="1.92912">
        <ele>611.4</ele>
        <time>2022-08-05T07:21:49Z</time>
      </trkpt>
      <trkpt lat="45.36473" lon="1.92903">
        <ele>610.7</ele>
        <time>2022-08-05T07:21:51Z</time>
      </trkpt>
      <trkpt lat="45.36468" lon="1.92892">
        <ele>609.9</ele>
        <time>2022-08-05T07:21:53Z</time>
      </trkpt>
      <trkpt lat="45.36462" lon="1.9288">
        <ele>609</ele>
        <time>2022-08-05T07:21:55Z</time>
      </trkpt>
      <trkpt lat="45.36455" lon="1.92866">
        <ele>607.9</ele>
        <time>2022-08-05T07:21:57Z</time>
      </trkpt>
      <trkpt lat="45.36449" lon="1.92852">
        <ele>606.6</ele>
        <time>2022-08-05T07:21:59Z</time>
      </trkpt>
      <trkpt lat="45.36441" lon="1.92837">
        <ele>605.1</ele>
        <time>2022-08-05T07:22:01Z</time>
      </trkpt>
      <trkpt lat="45.36433" lon="1.92822">
        <ele>603.9</ele>
        <time>2022-08-05T07:22:03Z</time>
      </trkpt>
      <trkpt lat="45.36424" lon="1.92805">
        <ele>602.8</ele>
        <time>2022-08-05T07:22:05Z</time>
      </trkpt>
      <trkpt lat="45.36416" lon="1.92787">
        <ele>602</ele>
        <time>2022-08-05T07:22:07Z</time>
      </trkpt>
      <trkpt lat="45.36407" lon="1.9277">
        <ele>601.9</ele>
        <time>2022-08-05T07:22:09Z</time>
      </trkpt>
      <trkpt lat="45.36396" lon="1.92754">
        <ele>602.2</ele>
        <time>2022-08-05T07:22:11Z</time>
      </trkpt>
      <trkpt lat="45.36384" lon="1.92743">
        <ele>603.3</ele>
        <time>2022-08-05T07:22:13Z</time>
      </trkpt>
      <trkpt lat="45.36371" lon="1.92736">
        <ele>604.5</ele>
        <time>2022-08-05T07:22:15Z</time>
      </trkpt>
      <trkpt lat="45.36359" lon="1.92732">
        <ele>605.1</ele>
        <time>2022-08-05T07:22:17Z</time>
      </trkpt>
      <trkpt lat="45.36347" lon="1.92729">
        <ele>605.5</ele>
        <time>2022-08-05T07:22:19Z</time>
      </trkpt>
      <trkpt lat="45.36335" lon="1.92729">
        <ele>605.5</ele>
        <time>2022-08-05T07:22:21Z</time>
      </trkpt>
      <trkpt lat="45.36324" lon="1.92731">
        <ele>606.5</ele>
        <time>2022-08-05T07:22:23Z</time>
      </trkpt>
      <trkpt lat="45.36315" lon="1.92734">
        <ele>607.5</ele>
        <time>2022-08-05T07:22:25Z</time>
      </trkpt>
      <trkpt lat="45.36306" lon="1.92738">
        <ele>608.4</ele>
        <time>2022-08-05T07:22:27Z</time>
      </trkpt>
      <trkpt lat="45.36298" lon="1.92742">
        <ele>609</ele>
        <time>2022-08-05T07:22:29Z</time>
      </trkpt>
      <trkpt lat="45.36291" lon="1.92745">
        <ele>609.6</ele>
        <time>2022-08-05T07:22:31Z</time>
      </trkpt>
      <trkpt lat="45.36285" lon="1.92748">
        <ele>610.2</ele>
        <time>2022-08-05T07:22:33Z</time>
      </trkpt>
      <trkpt lat="45.36279" lon="1.9275">
        <ele>610.9</ele>
        <time>2022-08-05T07:22:35Z</time>
      </trkpt>
      <trkpt lat="45.36273" lon="1.92751">
        <ele>611.5</ele>
        <time>2022-08-05T07:22:37Z</time>
      </trkpt>
      <trkpt lat="45.36267" lon="1.92752">
        <ele>612.3</ele>
        <time>2022-08-05T07:22:39Z</time>
      </trkpt>
      <trkpt lat="45.36261" lon="1.92753">
        <ele>613</ele>
        <time>2022-08-05T07:22:41Z</time>
      </trkpt>
      <trkpt lat="45.36255" lon="1.92754">
        <ele>613.6</ele>
        <time>2022-08-05T07:22:43Z</time>
      </trkpt>
      <trkpt lat="45.36249" lon="1.92754">
        <ele>614.2</ele>
        <time>2022-08-05T07:22:45Z</time>
      </trkpt>
      <trkpt lat="45.36244" lon="1.92754">
        <ele>614</ele>
        <time>2022-08-05T07:22:47Z</time>
      </trkpt>
      <trkpt lat="45.36238" lon="1.92753">
        <ele>613.8</ele>
        <time>2022-08-05T07:22:49Z</time>
      </trkpt>
      <trkpt lat="45.36233" lon="1.92751">
        <ele>613.8</ele>
        <time>2022-08-05T07:22:51Z</time>
      </trkpt>
      <trkpt lat="45.36227" lon="1.92751">
        <ele>613.4</ele>
        <time>2022-08-05T07:22:53Z</time>
      </trkpt>
      <trkpt lat="45.36221" lon="1.92751">
        <ele>613.1</ele>
        <time>2022-08-05T07:22:55Z</time>
      </trkpt>
      <trkpt lat="45.36215" lon="1.92749">
        <ele>613</ele>
        <time>2022-08-05T07:22:57Z</time>
      </trkpt>
      <trkpt lat="45.3621" lon="1.92748">
        <ele>613</ele>
        <time>2022-08-05T07:22:59Z</time>
      </trkpt>
      <trkpt lat="45.36203" lon="1.92746">
        <ele>612.8</ele>
        <time>2022-08-05T07:23:01Z</time>
      </trkpt>
      <trkpt lat="45.36197" lon="1.92745">
        <ele>612.8</ele>
        <time>2022-08-05T07:23:03Z</time>
      </trkpt>
      <trkpt lat="45.36192" lon="1.92743">
        <ele>612.8</ele>
        <time>2022-08-05T07:23:05Z</time>
      </trkpt>
      <trkpt lat="45.36186" lon="1.9274">
        <ele>613</ele>
        <time>2022-08-05T07:23:07Z</time>
      </trkpt>
      <trkpt lat="45.36179" lon="1.92739">
        <ele>612.9</ele>
        <time>2022-08-05T07:23:09Z</time>
      </trkpt>
      <trkpt lat="45.36173" lon="1.92737">
        <ele>612.9</ele>
        <time>2022-08-05T07:23:11Z</time>
      </trkpt>
      <trkpt lat="45.36166" lon="1.92736">
        <ele>612.8</ele>
        <time>2022-08-05T07:23:13Z</time>
      </trkpt>
      <trkpt lat="45.36158" lon="1.92733">
        <ele>612.8</ele>
        <time>2022-08-05T07:23:15Z</time>
      </trkpt>
      <trkpt lat="45.36151" lon="1.92732">
        <ele>612.7</ele>
        <time>2022-08-05T07:23:17Z</time>
      </trkpt>
      <trkpt lat="45.36145" lon="1.92729">
        <ele>612.7</ele>
        <time>2022-08-05T07:23:19Z</time>
      </trkpt>
      <trkpt lat="45.36137" lon="1.92727">
        <ele>612.6</ele>
        <time>2022-08-05T07:23:21Z</time>
      </trkpt>
      <trkpt lat="45.36131" lon="1.92725">
        <ele>612.5</ele>
        <time>2022-08-05T07:23:23Z</time>
      </trkpt>
      <trkpt lat="45.36124" lon="1.92724">
        <ele>612.3</ele>
        <time>2022-08-05T07:23:25Z</time>
      </trkpt>
      <trkpt lat="45.36117" lon="1.92721">
        <ele>612.3</ele>
        <time>2022-08-05T07:23:27Z</time>
      </trkpt>
      <trkpt lat="45.36111" lon="1.9272">
        <ele>612.1</ele>
        <time>2022-08-05T07:23:29Z</time>
      </trkpt>
      <trkpt lat="45.36105" lon="1.92717">
        <ele>612.1</ele>
        <time>2022-08-05T07:23:31Z</time>
      </trkpt>
      <trkpt lat="45.36097" lon="1.92715">
        <ele>611.9</ele>
        <time>2022-08-05T07:23:33Z</time>
      </trkpt>
      <trkpt lat="45.3609" lon="1.92713">
        <ele>611.6</ele>
        <time>2022-08-05T07:23:35Z</time>
      </trkpt>
      <trkpt lat="45.36082" lon="1.92711">
        <ele>611.4</ele>
        <time>2022-08-05T07:23:37Z</time>
      </trkpt>
      <trkpt lat="45.36073" lon="1.92709">
        <ele>611.4</ele>
        <time>2022-08-05T07:23:39Z</time>
      </trkpt>
      <trkpt lat="45.36065" lon="1.92706">
        <ele>611.4</ele>
        <time>2022-08-05T07:23:41Z</time>
      </trkpt>
      <trkpt lat="45.36056" lon="1.92704">
        <ele>611.2</ele>
        <time>2022-08-05T07:23:43Z</time>
      </trkpt>
      <trkpt lat="45.36047" lon="1.92701">
        <ele>611.1</ele>
        <time>2022-08-05T07:23:45Z</time>
      </trkpt>
      <trkpt lat="45.36038" lon="1.92699">
        <ele>610.7</ele>
        <time>2022-08-05T07:23:47Z</time>
      </trkpt>
      <trkpt lat="45.3603" lon="1.92697">
        <ele>610.4</ele>
        <time>2022-08-05T07:23:49Z</time>
      </trkpt>
      <trkpt lat="45.36021" lon="1.92695">
        <ele>610.1</ele>
        <time>2022-08-05T07:23:51Z</time>
      </trkpt>
      <trkpt lat="45.36013" lon="1.92692">
        <ele>609.7</ele>
        <time>2022-08-05T07:23:53Z</time>
      </trkpt>
      <trkpt lat="45.36005" lon="1.9269">
        <ele>609.3</ele>
        <time>2022-08-05T07:23:55Z</time>
      </trkpt>
      <trkpt lat="45.35996" lon="1.92688">
        <ele>608.7</ele>
        <time>2022-08-05T07:23:57Z</time>
      </trkpt>
      <trkpt lat="45.35987" lon="1.92686">
        <ele>608</ele>
        <time>2022-08-05T07:23:59Z</time>
      </trkpt>
      <trkpt lat="45.35976" lon="1.92686">
        <ele>607.2</ele>
        <time>2022-08-05T07:24:01Z</time>
      </trkpt>
      <trkpt lat="45.35965" lon="1.92685">
        <ele>606.4</ele>
        <time>2022-08-05T07:24:03Z</time>
      </trkpt>
      <trkpt lat="45.35953" lon="1.92682">
        <ele>605.4</ele>
        <time>2022-08-05T07:24:05Z</time>
      </trkpt>
      <trkpt lat="45.3594" lon="1.92681">
        <ele>604.3</ele>
        <time>2022-08-05T07:24:07Z</time>
      </trkpt>
      <trkpt lat="45.35925" lon="1.92679">
        <ele>603</ele>
        <time>2022-08-05T07:24:09Z</time>
      </trkpt>
      <trkpt lat="45.35909" lon="1.92678">
        <ele>602</ele>
        <time>2022-08-05T07:24:11Z</time>
      </trkpt>
      <trkpt lat="45.35893" lon="1.92676">
        <ele>601.3</ele>
        <time>2022-08-05T07:24:13Z</time>
      </trkpt>
      <trkpt lat="45.35876" lon="1.92675">
        <ele>600.6</ele>
        <time>2022-08-05T07:24:15Z</time>
      </trkpt>
      <trkpt lat="45.35858" lon="1.92673">
        <ele>599.9</ele>
        <time>2022-08-05T07:24:17Z</time>
      </trkpt>
      <trkpt lat="45.3584" lon="1.92671">
        <ele>599.2</ele>
        <time>2022-08-05T07:24:19Z</time>
      </trkpt>
      <trkpt lat="45.35821" lon="1.9267">
        <ele>598.7</ele>
        <time>2022-08-05T07:24:21Z</time>
      </trkpt>
      <trkpt lat="45.35803" lon="1.9267">
        <ele>598.2</ele>
        <time>2022-08-05T07:24:23Z</time>
      </trkpt>
      <trkpt lat="45.35783" lon="1.92667">
        <ele>597.8</ele>
        <time>2022-08-05T07:24:25Z</time>
      </trkpt>
      <trkpt lat="45.35763" lon="1.92664">
        <ele>597.6</ele>
        <time>2022-08-05T07:24:27Z</time>
      </trkpt>
      <trkpt lat="45.35743" lon="1.92663">
        <ele>596.5</ele>
        <time>2022-08-05T07:24:29Z</time>
      </trkpt>
      <trkpt lat="45.35723" lon="1.92661">
        <ele>594.3</ele>
        <time>2022-08-05T07:24:31Z</time>
      </trkpt>
      <trkpt lat="45.35702" lon="1.92661">
        <ele>591.8</ele>
        <time>2022-08-05T07:24:33Z</time>
      </trkpt>
      <trkpt lat="45.3568" lon="1.92657">
        <ele>589.4</ele>
        <time>2022-08-05T07:24:35Z</time>
      </trkpt>
      <trkpt lat="45.35659" lon="1.92655">
        <ele>587.2</ele>
        <time>2022-08-05T07:24:37Z</time>
      </trkpt>
      <trkpt lat="45.35638" lon="1.92652">
        <ele>584.9</ele>
        <time>2022-08-05T07:24:39Z</time>
      </trkpt>
      <trkpt lat="45.35619" lon="1.9265">
        <ele>582.9</ele>
        <time>2022-08-05T07:24:41Z</time>
      </trkpt>
      <trkpt lat="45.356" lon="1.92648">
        <ele>580.8</ele>
        <time>2022-08-05T07:24:43Z</time>
      </trkpt>
      <trkpt lat="45.3558" lon="1.92647">
        <ele>578.7</ele>
        <time>2022-08-05T07:24:45Z</time>
      </trkpt>
      <trkpt lat="45.35561" lon="1.92651">
        <ele>577.2</ele>
        <time>2022-08-05T07:24:47Z</time>
      </trkpt>
      <trkpt lat="45.35541" lon="1.9266">
        <ele>575.3</ele>
        <time>2022-08-05T07:24:49Z</time>
      </trkpt>
      <trkpt lat="45.35525" lon="1.92676">
        <ele>573.8</ele>
        <time>2022-08-05T07:24:51Z</time>
      </trkpt>
      <trkpt lat="45.35511" lon="1.92698">
        <ele>572.8</ele>
        <time>2022-08-05T07:24:53Z</time>
      </trkpt>
      <trkpt lat="45.35498" lon="1.9272">
        <ele>572</ele>
        <time>2022-08-05T07:24:55Z</time>
      </trkpt>
      <trkpt lat="45.35485" lon="1.9274">
        <ele>572.5</ele>
        <time>2022-08-05T07:24:57Z</time>
      </trkpt>
      <trkpt lat="45.35473" lon="1.92759">
        <ele>573.6</ele>
        <time>2022-08-05T07:24:59Z</time>
      </trkpt>
      <trkpt lat="45.35463" lon="1.92776">
        <ele>575</ele>
        <time>2022-08-05T07:25:01Z</time>
      </trkpt>
      <trkpt lat="45.35454" lon="1.92792">
        <ele>576.5</ele>
        <time>2022-08-05T07:25:03Z</time>
      </trkpt>
      <trkpt lat="45.35445" lon="1.92806">
        <ele>577.8</ele>
        <time>2022-08-05T07:25:05Z</time>
      </trkpt>
      <trkpt lat="45.35437" lon="1.92819">
        <ele>579</ele>
        <time>2022-08-05T07:25:07Z</time>
      </trkpt>
      <trkpt lat="45.3543" lon="1.92831">
        <ele>580.2</ele>
        <time>2022-08-05T07:25:09Z</time>
      </trkpt>
      <trkpt lat="45.35423" lon="1.9284">
        <ele>581.4</ele>
        <time>2022-08-05T07:25:11Z</time>
      </trkpt>
      <trkpt lat="45.35417" lon="1.9285">
        <ele>582.8</ele>
        <time>2022-08-05T07:25:13Z</time>
      </trkpt>
      <trkpt lat="45.35411" lon="1.92859">
        <ele>583.5</ele>
        <time>2022-08-05T07:25:15Z</time>
      </trkpt>
      <trkpt lat="45.35406" lon="1.92867">
        <ele>584.2</ele>
        <time>2022-08-05T07:25:17Z</time>
      </trkpt>
      <trkpt lat="45.35401" lon="1.92876">
        <ele>584.9</ele>
        <time>2022-08-05T07:25:19Z</time>
      </trkpt>
      <trkpt lat="45.35396" lon="1.92883">
        <ele>585.4</ele>
        <time>2022-08-05T07:25:21Z</time>
      </trkpt>
      <trkpt lat="45.35392" lon="1.9289">
        <ele>585.9</ele>
        <time>2022-08-05T07:25:23Z</time>
      </trkpt>
      <trkpt lat="45.35387" lon="1.92898">
        <ele>586.4</ele>
        <time>2022-08-05T07:25:25Z</time>
      </trkpt>
      <trkpt lat="45.35384" lon="1.92906">
        <ele>587</ele>
        <time>2022-08-05T07:25:27Z</time>
      </trkpt>
      <trkpt lat="45.35379" lon="1.92911">
        <ele>587.2</ele>
        <time>2022-08-05T07:25:29Z</time>
      </trkpt>
      <trkpt lat="45.35376" lon="1.92919">
        <ele>587.7</ele>
        <time>2022-08-05T07:25:31Z</time>
      </trkpt>
      <trkpt lat="45.35373" lon="1.92924">
        <ele>587.6</ele>
        <time>2022-08-05T07:25:33Z</time>
      </trkpt>
      <trkpt lat="45.35371" lon="1.9293">
        <ele>587.8</ele>
        <time>2022-08-05T07:25:35Z</time>
      </trkpt>
      <trkpt lat="45.35368" lon="1.92934">
        <ele>587.8</ele>
        <time>2022-08-05T07:25:37Z</time>
      </trkpt>
      <trkpt lat="45.35365" lon="1.92939">
        <ele>587.7</ele>
        <time>2022-08-05T07:25:39Z</time>
      </trkpt>
      <trkpt lat="45.35362" lon="1.92941">
        <ele>587.6</ele>
        <time>2022-08-05T07:25:41Z</time>
      </trkpt>
      <trkpt lat="45.35359" lon="1.92947">
        <ele>587.6</ele>
        <time>2022-08-05T07:25:43Z</time>
      </trkpt>
      <trkpt lat="45.35357" lon="1.92951">
        <ele>587.6</ele>
        <time>2022-08-05T07:25:45Z</time>
      </trkpt>
      <trkpt lat="45.35354" lon="1.92954">
        <ele>587.5</ele>
        <time>2022-08-05T07:25:47Z</time>
      </trkpt>
      <trkpt lat="45.35352" lon="1.92958">
        <ele>587.4</ele>
        <time>2022-08-05T07:25:49Z</time>
      </trkpt>
      <trkpt lat="45.35349" lon="1.92962">
        <ele>587.3</ele>
        <time>2022-08-05T07:25:51Z</time>
      </trkpt>
      <trkpt lat="45.35347" lon="1.92966">
        <ele>587.3</ele>
        <time>2022-08-05T07:25:53Z</time>
      </trkpt>
      <trkpt lat="45.35344" lon="1.92971">
        <ele>587.2</ele>
        <time>2022-08-05T07:25:55Z</time>
      </trkpt>
      <trkpt lat="45.35341" lon="1.92975">
        <ele>587.1</ele>
        <time>2022-08-05T07:25:57Z</time>
      </trkpt>
      <trkpt lat="45.35338" lon="1.92978">
        <ele>586.9</ele>
        <time>2022-08-05T07:25:59Z</time>
      </trkpt>
      <trkpt lat="45.35336" lon="1.92982">
        <ele>586.8</ele>
        <time>2022-08-05T07:26:01Z</time>
      </trkpt>
      <trkpt lat="45.35334" lon="1.92985">
        <ele>586.7</ele>
        <time>2022-08-05T07:26:03Z</time>
      </trkpt>
      <trkpt lat="45.35331" lon="1.92988">
        <ele>586.5</ele>
        <time>2022-08-05T07:26:05Z</time>
      </trkpt>
      <trkpt lat="45.35328" lon="1.92992">
        <ele>586.4</ele>
        <time>2022-08-05T07:26:07Z</time>
      </trkpt>
      <trkpt lat="45.35326" lon="1.92996">
        <ele>586.3</ele>
        <time>2022-08-05T07:26:09Z</time>
      </trkpt>
      <trkpt lat="45.35323" lon="1.93">
        <ele>586.3</ele>
        <time>2022-08-05T07:26:11Z</time>
      </trkpt>
      <trkpt lat="45.3532" lon="1.93003">
        <ele>586</ele>
        <time>2022-08-05T07:26:13Z</time>
      </trkpt>
      <trkpt lat="45.35317" lon="1.93006">
        <ele>585.8</ele>
        <time>2022-08-05T07:26:15Z</time>
      </trkpt>
      <trkpt lat="45.35315" lon="1.9301">
        <ele>585.6</ele>
        <time>2022-08-05T07:26:17Z</time>
      </trkpt>
      <trkpt lat="45.35312" lon="1.93013">
        <ele>585.4</ele>
        <time>2022-08-05T07:26:19Z</time>
      </trkpt>
      <trkpt lat="45.35309" lon="1.93017">
        <ele>585.3</ele>
        <time>2022-08-05T07:26:21Z</time>
      </trkpt>
      <trkpt lat="45.35305" lon="1.9302">
        <ele>585.1</ele>
        <time>2022-08-05T07:26:23Z</time>
      </trkpt>
      <trkpt lat="45.35303" lon="1.93023">
        <ele>584.9</ele>
        <time>2022-08-05T07:26:25Z</time>
      </trkpt>
      <trkpt lat="45.35301" lon="1.93027">
        <ele>584.8</ele>
        <time>2022-08-05T07:26:27Z</time>
      </trkpt>
      <trkpt lat="45.35297" lon="1.93026">
        <ele>584.6</ele>
        <time>2022-08-05T07:26:29Z</time>
      </trkpt>
      <trkpt lat="45.35295" lon="1.93025">
        <ele>584.5</ele>
        <time>2022-08-05T07:26:31Z</time>
      </trkpt>
      <trkpt lat="45.35296" lon="1.93027">
        <ele>584.5</ele>
        <time>2022-08-05T07:26:33Z</time>
      </trkpt>
      <trkpt lat="45.35296" lon="1.93027">
        <ele>584.5</ele>
        <time>2022-08-05T07:26:35Z</time>
      </trkpt>
      <trkpt lat="45.35295" lon="1.93027">
        <ele>584.5</ele>
        <time>2022-08-05T07:26:37Z</time>
      </trkpt>
      <trkpt lat="45.35295" lon="1.93027">
        <ele>584.5</ele>
        <time>2022-08-05T07:26:39Z</time>
      </trkpt>
      <trkpt lat="45.35283" lon="1.93038">
        <ele>584</ele>
        <time>2022-08-05T07:30:55Z</time>
      </trkpt>
      <trkpt lat="45.35278" lon="1.93041">
        <ele>583.8</ele>
        <time>2022-08-05T07:30:57Z</time>
      </trkpt>
      <trkpt lat="45.35273" lon="1.93043">
        <ele>583.6</ele>
        <time>2022-08-05T07:30:59Z</time>
      </trkpt>
      <trkpt lat="45.35267" lon="1.93045">
        <ele>583.4</ele>
        <time>2022-08-05T07:31:01Z</time>
      </trkpt>
      <trkpt lat="45.3526" lon="1.93047">
        <ele>583.2</ele>
        <time>2022-08-05T07:31:03Z</time>
      </trkpt>
      <trkpt lat="45.35253" lon="1.9305">
        <ele>582.9</ele>
        <time>2022-08-05T07:31:05Z</time>
      </trkpt>
      <trkpt lat="45.35246" lon="1.93052">
        <ele>583</ele>
        <time>2022-08-05T07:31:07Z</time>
      </trkpt>
      <trkpt lat="45.35237" lon="1.93052">
        <ele>583.2</ele>
        <time>2022-08-05T07:31:09Z</time>
      </trkpt>
      <trkpt lat="45.35228" lon="1.93053">
        <ele>583.5</ele>
        <time>2022-08-05T07:31:11Z</time>
      </trkpt>
      <trkpt lat="45.35219" lon="1.93054">
        <ele>583.8</ele>
        <time>2022-08-05T07:31:13Z</time>
      </trkpt>
      <trkpt lat="45.35209" lon="1.93051">
        <ele>583.9</ele>
        <time>2022-08-05T07:31:15Z</time>
      </trkpt>
      <trkpt lat="45.35199" lon="1.93051">
        <ele>584.2</ele>
        <time>2022-08-05T07:31:17Z</time>
      </trkpt>
      <trkpt lat="45.3519" lon="1.9305">
        <ele>584.4</ele>
        <time>2022-08-05T07:31:19Z</time>
      </trkpt>
      <trkpt lat="45.35182" lon="1.9305">
        <ele>584.6</ele>
        <time>2022-08-05T07:31:21Z</time>
      </trkpt>
      <trkpt lat="45.35174" lon="1.93049">
        <ele>584.7</ele>
        <time>2022-08-05T07:31:23Z</time>
      </trkpt>
      <trkpt lat="45.35166" lon="1.93047">
        <ele>584.8</ele>
        <time>2022-08-05T07:31:25Z</time>
      </trkpt>
      <trkpt lat="45.35159" lon="1.93045">
        <ele>585.1</ele>
        <time>2022-08-05T07:31:27Z</time>
      </trkpt>
      <trkpt lat="45.35153" lon="1.93044">
        <ele>585.3</ele>
        <time>2022-08-05T07:31:29Z</time>
      </trkpt>
      <trkpt lat="45.35147" lon="1.93043">
        <ele>585.5</ele>
        <time>2022-08-05T07:31:31Z</time>
      </trkpt>
      <trkpt lat="45.35142" lon="1.93041">
        <ele>585.7</ele>
        <time>2022-08-05T07:31:33Z</time>
      </trkpt>
      <trkpt lat="45.35136" lon="1.9304">
        <ele>585.8</ele>
        <time>2022-08-05T07:31:35Z</time>
      </trkpt>
      <trkpt lat="45.35131" lon="1.93037">
        <ele>585.9</ele>
        <time>2022-08-05T07:31:37Z</time>
      </trkpt>
      <trkpt lat="45.35127" lon="1.93034">
        <ele>585.9</ele>
        <time>2022-08-05T07:31:39Z</time>
      </trkpt>
      <trkpt lat="45.35121" lon="1.93034">
        <ele>586.1</ele>
        <time>2022-08-05T07:31:41Z</time>
      </trkpt>
      <trkpt lat="45.35115" lon="1.93031">
        <ele>586.2</ele>
        <time>2022-08-05T07:31:43Z</time>
      </trkpt>
      <trkpt lat="45.35109" lon="1.93028">
        <ele>586.2</ele>
        <time>2022-08-05T07:31:45Z</time>
      </trkpt>
      <trkpt lat="45.35103" lon="1.93024">
        <ele>586.2</ele>
        <time>2022-08-05T07:31:47Z</time>
      </trkpt>
      <trkpt lat="45.35096" lon="1.9302">
        <ele>586.1</ele>
        <time>2022-08-05T07:31:49Z</time>
      </trkpt>
      <trkpt lat="45.35088" lon="1.93015">
        <ele>586.1</ele>
        <time>2022-08-05T07:31:51Z</time>
      </trkpt>
      <trkpt lat="45.35079" lon="1.9301">
        <ele>585.6</ele>
        <time>2022-08-05T07:31:53Z</time>
      </trkpt>
      <trkpt lat="45.35069" lon="1.93007">
        <ele>584.7</ele>
        <time>2022-08-05T07:31:55Z</time>
      </trkpt>
      <trkpt lat="45.35059" lon="1.93007">
        <ele>584</ele>
        <time>2022-08-05T07:31:57Z</time>
      </trkpt>
      <trkpt lat="45.35047" lon="1.93008">
        <ele>583.4</ele>
        <time>2022-08-05T07:31:59Z</time>
      </trkpt>
      <trkpt lat="45.35034" lon="1.9301">
        <ele>582.7</ele>
        <time>2022-08-05T07:32:01Z</time>
      </trkpt>
      <trkpt lat="45.35019" lon="1.93012">
        <ele>581.8</ele>
        <time>2022-08-05T07:32:03Z</time>
      </trkpt>
      <trkpt lat="45.35002" lon="1.93009">
        <ele>580.6</ele>
        <time>2022-08-05T07:32:05Z</time>
      </trkpt>
      <trkpt lat="45.34986" lon="1.93001">
        <ele>579</ele>
        <time>2022-08-05T07:32:07Z</time>
      </trkpt>
      <trkpt lat="45.3497" lon="1.92988">
        <ele>577.6</ele>
        <time>2022-08-05T07:32:09Z</time>
      </trkpt>
      <trkpt lat="45.34954" lon="1.92974">
        <ele>576.2</ele>
        <time>2022-08-05T07:32:11Z</time>
      </trkpt>
      <trkpt lat="45.34938" lon="1.9296">
        <ele>575.2</ele>
        <time>2022-08-05T07:32:13Z</time>
      </trkpt>
      <trkpt lat="45.34922" lon="1.92946">
        <ele>574.2</ele>
        <time>2022-08-05T07:32:15Z</time>
      </trkpt>
      <trkpt lat="45.34906" lon="1.92931">
        <ele>573.7</ele>
        <time>2022-08-05T07:32:17Z</time>
      </trkpt>
      <trkpt lat="45.3489" lon="1.92917">
        <ele>573.4</ele>
        <time>2022-08-05T07:32:19Z</time>
      </trkpt>
      <trkpt lat="45.34875" lon="1.92903">
        <ele>573.8</ele>
        <time>2022-08-05T07:32:21Z</time>
      </trkpt>
      <trkpt lat="45.34859" lon="1.92888">
        <ele>574.4</ele>
        <time>2022-08-05T07:32:23Z</time>
      </trkpt>
      <trkpt lat="45.34843" lon="1.92873">
        <ele>575.2</ele>
        <time>2022-08-05T07:32:25Z</time>
      </trkpt>
      <trkpt lat="45.34827" lon="1.92859">
        <ele>575.6</ele>
        <time>2022-08-05T07:32:27Z</time>
      </trkpt>
      <trkpt lat="45.3481" lon="1.92849">
        <ele>574.8</ele>
        <time>2022-08-05T07:32:29Z</time>
      </trkpt>
      <trkpt lat="45.34793" lon="1.9284">
        <ele>573.7</ele>
        <time>2022-08-05T07:32:31Z</time>
      </trkpt>
      <trkpt lat="45.34777" lon="1.92832">
        <ele>572.7</ele>
        <time>2022-08-05T07:32:33Z</time>
      </trkpt>
      <trkpt lat="45.34762" lon="1.92825">
        <ele>571.7</ele>
        <time>2022-08-05T07:32:35Z</time>
      </trkpt>
      <trkpt lat="45.34747" lon="1.92819">
        <ele>571</ele>
        <time>2022-08-05T07:32:37Z</time>
      </trkpt>
      <trkpt lat="45.34733" lon="1.92812">
        <ele>571.1</ele>
        <time>2022-08-05T07:32:39Z</time>
      </trkpt>
      <trkpt lat="45.3472" lon="1.92807">
        <ele>571.1</ele>
        <time>2022-08-05T07:32:41Z</time>
      </trkpt>
      <trkpt lat="45.34706" lon="1.92805">
        <ele>570.8</ele>
        <time>2022-08-05T07:32:43Z</time>
      </trkpt>
      <trkpt lat="45.34691" lon="1.92806">
        <ele>570.3</ele>
        <time>2022-08-05T07:32:45Z</time>
      </trkpt>
      <trkpt lat="45.34678" lon="1.92813">
        <ele>569.5</ele>
        <time>2022-08-05T07:32:47Z</time>
      </trkpt>
      <trkpt lat="45.34666" lon="1.92821">
        <ele>568.8</ele>
        <time>2022-08-05T07:32:49Z</time>
      </trkpt>
      <trkpt lat="45.34654" lon="1.92829">
        <ele>568.7</ele>
        <time>2022-08-05T07:32:51Z</time>
      </trkpt>
      <trkpt lat="45.34642" lon="1.92838">
        <ele>568.7</ele>
        <time>2022-08-05T07:32:53Z</time>
      </trkpt>
      <trkpt lat="45.34629" lon="1.92844">
        <ele>568.8</ele>
        <time>2022-08-05T07:32:55Z</time>
      </trkpt>
      <trkpt lat="45.34615" lon="1.92849">
        <ele>569.1</ele>
        <time>2022-08-05T07:32:57Z</time>
      </trkpt>
      <trkpt lat="45.34603" lon="1.92853">
        <ele>569.3</ele>
        <time>2022-08-05T07:32:59Z</time>
      </trkpt>
      <trkpt lat="45.34589" lon="1.92855">
        <ele>569.7</ele>
        <time>2022-08-05T07:33:01Z</time>
      </trkpt>
      <trkpt lat="45.34576" lon="1.92857">
        <ele>569.4</ele>
        <time>2022-08-05T07:33:03Z</time>
      </trkpt>
      <trkpt lat="45.34563" lon="1.92856">
        <ele>568.7</ele>
        <time>2022-08-05T07:33:05Z</time>
      </trkpt>
      <trkpt lat="45.34552" lon="1.92855">
        <ele>568.1</ele>
        <time>2022-08-05T07:33:07Z</time>
      </trkpt>
      <trkpt lat="45.34539" lon="1.92851">
        <ele>567.5</ele>
        <time>2022-08-05T07:33:09Z</time>
      </trkpt>
      <trkpt lat="45.34527" lon="1.92846">
        <ele>567.1</ele>
        <time>2022-08-05T07:33:11Z</time>
      </trkpt>
      <trkpt lat="45.34517" lon="1.92838">
        <ele>566.8</ele>
        <time>2022-08-05T07:33:13Z</time>
      </trkpt>
      <trkpt lat="45.34504" lon="1.92834">
        <ele>566.2</ele>
        <time>2022-08-05T07:33:15Z</time>
      </trkpt>
      <trkpt lat="45.34491" lon="1.9284">
        <ele>565.5</ele>
        <time>2022-08-05T07:33:17Z</time>
      </trkpt>
      <trkpt lat="45.34481" lon="1.92852">
        <ele>564.9</ele>
        <time>2022-08-05T07:33:19Z</time>
      </trkpt>
      <trkpt lat="45.34473" lon="1.92864">
        <ele>564.2</ele>
        <time>2022-08-05T07:33:21Z</time>
      </trkpt>
      <trkpt lat="45.34463" lon="1.92874">
        <ele>563.6</ele>
        <time>2022-08-05T07:33:23Z</time>
      </trkpt>
      <trkpt lat="45.34452" lon="1.92883">
        <ele>563</ele>
        <time>2022-08-05T07:33:25Z</time>
      </trkpt>
      <trkpt lat="45.3444" lon="1.9289">
        <ele>562.5</ele>
        <time>2022-08-05T07:33:27Z</time>
      </trkpt>
      <trkpt lat="45.34428" lon="1.92896">
        <ele>562.1</ele>
        <time>2022-08-05T07:33:29Z</time>
      </trkpt>
      <trkpt lat="45.34415" lon="1.929">
        <ele>561.8</ele>
        <time>2022-08-05T07:33:31Z</time>
      </trkpt>
      <trkpt lat="45.34402" lon="1.92904">
        <ele>561.1</ele>
        <time>2022-08-05T07:33:33Z</time>
      </trkpt>
      <trkpt lat="45.3439" lon="1.92908">
        <ele>560.5</ele>
        <time>2022-08-05T07:33:35Z</time>
      </trkpt>
      <trkpt lat="45.34378" lon="1.92911">
        <ele>559.8</ele>
        <time>2022-08-05T07:33:37Z</time>
      </trkpt>
      <trkpt lat="45.34365" lon="1.92914">
        <ele>559.3</ele>
        <time>2022-08-05T07:33:39Z</time>
      </trkpt>
      <trkpt lat="45.34351" lon="1.92915">
        <ele>558.7</ele>
        <time>2022-08-05T07:33:41Z</time>
      </trkpt>
      <trkpt lat="45.34339" lon="1.92916">
        <ele>558.2</ele>
        <time>2022-08-05T07:33:43Z</time>
      </trkpt>
      <trkpt lat="45.34325" lon="1.92916">
        <ele>557.9</ele>
        <time>2022-08-05T07:33:45Z</time>
      </trkpt>
      <trkpt lat="45.34312" lon="1.92917">
        <ele>557.7</ele>
        <time>2022-08-05T07:33:47Z</time>
      </trkpt>
      <trkpt lat="45.343" lon="1.92919">
        <ele>557.5</ele>
        <time>2022-08-05T07:33:49Z</time>
      </trkpt>
      <trkpt lat="45.34287" lon="1.9292">
        <ele>557.3</ele>
        <time>2022-08-05T07:33:51Z</time>
      </trkpt>
      <trkpt lat="45.34273" lon="1.92921">
        <ele>557.1</ele>
        <time>2022-08-05T07:33:53Z</time>
      </trkpt>
      <trkpt lat="45.34259" lon="1.92921">
        <ele>556.9</ele>
        <time>2022-08-05T07:33:55Z</time>
      </trkpt>
      <trkpt lat="45.34245" lon="1.92925">
        <ele>556.5</ele>
        <time>2022-08-05T07:33:57Z</time>
      </trkpt>
      <trkpt lat="45.34232" lon="1.92934">
        <ele>556</ele>
        <time>2022-08-05T07:33:59Z</time>
      </trkpt>
      <trkpt lat="45.34221" lon="1.92945">
        <ele>555.4</ele>
        <time>2022-08-05T07:34:01Z</time>
      </trkpt>
      <trkpt lat="45.3421" lon="1.92956">
        <ele>554.8</ele>
        <time>2022-08-05T07:34:03Z</time>
      </trkpt>
      <trkpt lat="45.34199" lon="1.92967">
        <ele>554.3</ele>
        <time>2022-08-05T07:34:05Z</time>
      </trkpt>
      <trkpt lat="45.3419" lon="1.92976">
        <ele>553.9</ele>
        <time>2022-08-05T07:34:07Z</time>
      </trkpt>
      <trkpt lat="45.34182" lon="1.92984">
        <ele>553.6</ele>
        <time>2022-08-05T07:34:09Z</time>
      </trkpt>
      <trkpt lat="45.34174" lon="1.92991">
        <ele>553.3</ele>
        <time>2022-08-05T07:34:11Z</time>
      </trkpt>
      <trkpt lat="45.34167" lon="1.92998">
        <ele>553.1</ele>
        <time>2022-08-05T07:34:13Z</time>
      </trkpt>
      <trkpt lat="45.34161" lon="1.93004">
        <ele>553</ele>
        <time>2022-08-05T07:34:15Z</time>
      </trkpt>
      <trkpt lat="45.34154" lon="1.93011">
        <ele>553</ele>
        <time>2022-08-05T07:34:17Z</time>
      </trkpt>
      <trkpt lat="45.34149" lon="1.93016">
        <ele>553</ele>
        <time>2022-08-05T07:34:19Z</time>
      </trkpt>
      <trkpt lat="45.34144" lon="1.93019">
        <ele>553</ele>
        <time>2022-08-05T07:34:21Z</time>
      </trkpt>
      <trkpt lat="45.3414" lon="1.93023">
        <ele>553</ele>
        <time>2022-08-05T07:34:23Z</time>
      </trkpt>
      <trkpt lat="45.34136" lon="1.93025">
        <ele>553</ele>
        <time>2022-08-05T07:34:25Z</time>
      </trkpt>
      <trkpt lat="45.34131" lon="1.93027">
        <ele>553</ele>
        <time>2022-08-05T07:34:27Z</time>
      </trkpt>
      <trkpt lat="45.34127" lon="1.93027">
        <ele>553</ele>
        <time>2022-08-05T07:34:29Z</time>
      </trkpt>
      <trkpt lat="45.34126" lon="1.93027">
        <ele>553</ele>
        <time>2022-08-05T07:34:31Z</time>
      </trkpt>
      <trkpt lat="45.34126" lon="1.93027">
        <ele>553</ele>
        <time>2022-08-05T07:34:33Z</time>
      </trkpt>
      <trkpt lat="45.34126" lon="1.93028">
        <ele>553</ele>
        <time>2022-08-05T07:34:35Z</time>
      </trkpt>
      <trkpt lat="45.34126" lon="1.93027">
        <ele>553</ele>
        <time>2022-08-05T07:34:37Z</time>
      </trkpt>
      <trkpt lat="45.34126" lon="1.93027">
        <ele>553</ele>
        <time>2022-08-05T07:34:39Z</time>
      </trkpt>
      <trkpt lat="45.34118" lon="1.93033">
        <ele>553</ele>
        <time>2022-08-05T07:34:47Z</time>
      </trkpt>
      <trkpt lat="45.34114" lon="1.93036">
        <ele>552.9</ele>
        <time>2022-08-05T07:34:49Z</time>
      </trkpt>
      <trkpt lat="45.3411" lon="1.93042">
        <ele>552.8</ele>
        <time>2022-08-05T07:34:51Z</time>
      </trkpt>
      <trkpt lat="45.34108" lon="1.93051">
        <ele>552.7</ele>
        <time>2022-08-05T07:34:53Z</time>
      </trkpt>
      <trkpt lat="45.34103" lon="1.93058">
        <ele>552.5</ele>
        <time>2022-08-05T07:34:55Z</time>
      </trkpt>
      <trkpt lat="45.34098" lon="1.93064">
        <ele>552.4</ele>
        <time>2022-08-05T07:34:57Z</time>
      </trkpt>
      <trkpt lat="45.34092" lon="1.93071">
        <ele>552.3</ele>
        <time>2022-08-05T07:34:59Z</time>
      </trkpt>
      <trkpt lat="45.34086" lon="1.93077">
        <ele>552.2</ele>
        <time>2022-08-05T07:35:01Z</time>
      </trkpt>
      <trkpt lat="45.34079" lon="1.93083">
        <ele>552</ele>
        <time>2022-08-05T07:35:03Z</time>
      </trkpt>
      <trkpt lat="45.34072" lon="1.93089">
        <ele>552</ele>
        <time>2022-08-05T07:35:05Z</time>
      </trkpt>
      <trkpt lat="45.34066" lon="1.93096">
        <ele>552.1</ele>
        <time>2022-08-05T07:35:07Z</time>
      </trkpt>
      <trkpt lat="45.34059" lon="1.93102">
        <ele>552.1</ele>
        <time>2022-08-05T07:35:09Z</time>
      </trkpt>
      <trkpt lat="45.34053" lon="1.93108">
        <ele>552.2</ele>
        <time>2022-08-05T07:35:11Z</time>
      </trkpt>
      <trkpt lat="45.34047" lon="1.93115">
        <ele>552.3</ele>
        <time>2022-08-05T07:35:13Z</time>
      </trkpt>
      <trkpt lat="45.34041" lon="1.9312">
        <ele>552.4</ele>
        <time>2022-08-05T07:35:15Z</time>
      </trkpt>
      <trkpt lat="45.34036" lon="1.93126">
        <ele>552.6</ele>
        <time>2022-08-05T07:35:17Z</time>
      </trkpt>
      <trkpt lat="45.3403" lon="1.93131">
        <ele>552.7</ele>
        <time>2022-08-05T07:35:19Z</time>
      </trkpt>
      <trkpt lat="45.34024" lon="1.93137">
        <ele>552.9</ele>
        <time>2022-08-05T07:35:21Z</time>
      </trkpt>
      <trkpt lat="45.34019" lon="1.93142">
        <ele>553.1</ele>
        <time>2022-08-05T07:35:23Z</time>
      </trkpt>
      <trkpt lat="45.34013" lon="1.93148">
        <ele>553.3</ele>
        <time>2022-08-05T07:35:25Z</time>
      </trkpt>
      <trkpt lat="45.34008" lon="1.93153">
        <ele>553.5</ele>
        <time>2022-08-05T07:35:27Z</time>
      </trkpt>
      <trkpt lat="45.34004" lon="1.93159">
        <ele>553.7</ele>
        <time>2022-08-05T07:35:29Z</time>
      </trkpt>
      <trkpt lat="45.33998" lon="1.93164">
        <ele>553.9</ele>
        <time>2022-08-05T07:35:31Z</time>
      </trkpt>
      <trkpt lat="45.33993" lon="1.9317">
        <ele>553.8</ele>
        <time>2022-08-05T07:35:33Z</time>
      </trkpt>
      <trkpt lat="45.33988" lon="1.93175">
        <ele>553.8</ele>
        <time>2022-08-05T07:35:35Z</time>
      </trkpt>
      <trkpt lat="45.33982" lon="1.93179">
        <ele>553.7</ele>
        <time>2022-08-05T07:35:37Z</time>
      </trkpt>
      <trkpt lat="45.33976" lon="1.93185">
        <ele>553.6</ele>
        <time>2022-08-05T07:35:39Z</time>
      </trkpt>
      <trkpt lat="45.33971" lon="1.9319">
        <ele>553.6</ele>
        <time>2022-08-05T07:35:41Z</time>
      </trkpt>
      <trkpt lat="45.33966" lon="1.93194">
        <ele>553.6</ele>
        <time>2022-08-05T07:35:43Z</time>
      </trkpt>
      <trkpt lat="45.33961" lon="1.93196">
        <ele>553.5</ele>
        <time>2022-08-05T07:35:45Z</time>
      </trkpt>
      <trkpt lat="45.33956" lon="1.93199">
        <ele>553.4</ele>
        <time>2022-08-05T07:35:47Z</time>
      </trkpt>
      <trkpt lat="45.3395" lon="1.93202">
        <ele>553.3</ele>
        <time>2022-08-05T07:35:49Z</time>
      </trkpt>
      <trkpt lat="45.33945" lon="1.93205">
        <ele>553.2</ele>
        <time>2022-08-05T07:35:51Z</time>
      </trkpt>
      <trkpt lat="45.33939" lon="1.93207">
        <ele>553.1</ele>
        <time>2022-08-05T07:35:53Z</time>
      </trkpt>
      <trkpt lat="45.33933" lon="1.93211">
        <ele>553.1</ele>
        <time>2022-08-05T07:35:55Z</time>
      </trkpt>
      <trkpt lat="45.33927" lon="1.93215">
        <ele>553</ele>
        <time>2022-08-05T07:35:57Z</time>
      </trkpt>
      <trkpt lat="45.3392" lon="1.93219">
        <ele>553</ele>
        <time>2022-08-05T07:35:59Z</time>
      </trkpt>
      <trkpt lat="45.33913" lon="1.93225">
        <ele>552.7</ele>
        <time>2022-08-05T07:36:01Z</time>
      </trkpt>
      <trkpt lat="45.33907" lon="1.93233">
        <ele>552.3</ele>
        <time>2022-08-05T07:36:03Z</time>
      </trkpt>
      <trkpt lat="45.339" lon="1.93242">
        <ele>551.9</ele>
        <time>2022-08-05T07:36:05Z</time>
      </trkpt>
      <trkpt lat="45.33895" lon="1.93253">
        <ele>551.2</ele>
        <time>2022-08-05T07:36:07Z</time>
      </trkpt>
      <trkpt lat="45.3389" lon="1.93265">
        <ele>550.1</ele>
        <time>2022-08-05T07:36:09Z</time>
      </trkpt>
      <trkpt lat="45.33886" lon="1.93278">
        <ele>549.2</ele>
        <time>2022-08-05T07:36:11Z</time>
      </trkpt>
      <trkpt lat="45.33882" lon="1.93291">
        <ele>548.3</ele>
        <time>2022-08-05T07:36:13Z</time>
      </trkpt>
      <trkpt lat="45.33879" lon="1.93307">
        <ele>547.6</ele>
        <time>2022-08-05T07:36:15Z</time>
      </trkpt>
      <trkpt lat="45.33877" lon="1.93324">
        <ele>546.9</ele>
        <time>2022-08-05T07:36:17Z</time>
      </trkpt>
      <trkpt lat="45.33874" lon="1.93342">
        <ele>546.2</ele>
        <time>2022-08-05T07:36:19Z</time>
      </trkpt>
      <trkpt lat="45.33872" lon="1.93363">
        <ele>545.4</ele>
        <time>2022-08-05T07:36:21Z</time>
      </trkpt>
      <trkpt lat="45.33868" lon="1.93384">
        <ele>544.6</ele>
        <time>2022-08-05T07:36:23Z</time>
      </trkpt>
      <trkpt lat="45.33862" lon="1.93405">
        <ele>544</ele>
        <time>2022-08-05T07:36:25Z</time>
      </trkpt>
      <trkpt lat="45.33854" lon="1.93425">
        <ele>543.6</ele>
        <time>2022-08-05T07:36:27Z</time>
      </trkpt>
      <trkpt lat="45.33843" lon="1.93444">
        <ele>543.3</ele>
        <time>2022-08-05T07:36:29Z</time>
      </trkpt>
      <trkpt lat="45.33833" lon="1.93464">
        <ele>542.9</ele>
        <time>2022-08-05T07:36:31Z</time>
      </trkpt>
      <trkpt lat="45.33822" lon="1.93485">
        <ele>542.1</ele>
        <time>2022-08-05T07:36:33Z</time>
      </trkpt>
      <trkpt lat="45.33809" lon="1.93506">
        <ele>541.5</ele>
        <time>2022-08-05T07:36:35Z</time>
      </trkpt>
      <trkpt lat="45.33794" lon="1.93524">
        <ele>541.5</ele>
        <time>2022-08-05T07:36:37Z</time>
      </trkpt>
      <trkpt lat="45.33781" lon="1.93543">
        <ele>541.5</ele>
        <time>2022-08-05T07:36:39Z</time>
      </trkpt>
      <trkpt lat="45.33769" lon="1.93561">
        <ele>541.4</ele>
        <time>2022-08-05T07:36:41Z</time>
      </trkpt>
      <trkpt lat="45.33757" lon="1.93579">
        <ele>541.2</ele>
        <time>2022-08-05T07:36:43Z</time>
      </trkpt>
      <trkpt lat="45.33746" lon="1.93595">
        <ele>542.3</ele>
        <time>2022-08-05T07:36:45Z</time>
      </trkpt>
      <trkpt lat="45.33736" lon="1.93608">
        <ele>543.8</ele>
        <time>2022-08-05T07:36:47Z</time>
      </trkpt>
      <trkpt lat="45.33727" lon="1.93618">
        <ele>544.9</ele>
        <time>2022-08-05T07:36:49Z</time>
      </trkpt>
      <trkpt lat="45.33719" lon="1.93625">
        <ele>545.8</ele>
        <time>2022-08-05T07:36:51Z</time>
      </trkpt>
      <trkpt lat="45.33712" lon="1.9363">
        <ele>546.6</ele>
        <time>2022-08-05T07:36:53Z</time>
      </trkpt>
      <trkpt lat="45.33706" lon="1.93634">
        <ele>547.1</ele>
        <time>2022-08-05T07:36:55Z</time>
      </trkpt>
      <trkpt lat="45.337" lon="1.93637">
        <ele>547.6</ele>
        <time>2022-08-05T07:36:57Z</time>
      </trkpt>
      <trkpt lat="45.33696" lon="1.9364">
        <ele>548</ele>
        <time>2022-08-05T07:36:59Z</time>
      </trkpt>
      <trkpt lat="45.33692" lon="1.93642">
        <ele>548.3</ele>
        <time>2022-08-05T07:37:01Z</time>
      </trkpt>
      <trkpt lat="45.33688" lon="1.93644">
        <ele>548.6</ele>
        <time>2022-08-05T07:37:03Z</time>
      </trkpt>
      <trkpt lat="45.33683" lon="1.93646">
        <ele>549</ele>
        <time>2022-08-05T07:37:05Z</time>
      </trkpt>
      <trkpt lat="45.33679" lon="1.93648">
        <ele>549.2</ele>
        <time>2022-08-05T07:37:07Z</time>
      </trkpt>
      <trkpt lat="45.33676" lon="1.9365">
        <ele>549.6</ele>
        <time>2022-08-05T07:37:09Z</time>
      </trkpt>
      <trkpt lat="45.33672" lon="1.93652">
        <ele>550</ele>
        <time>2022-08-05T07:37:11Z</time>
      </trkpt>
      <trkpt lat="45.33669" lon="1.93654">
        <ele>550.3</ele>
        <time>2022-08-05T07:37:13Z</time>
      </trkpt>
      <trkpt lat="45.33665" lon="1.93656">
        <ele>550.6</ele>
        <time>2022-08-05T07:37:15Z</time>
      </trkpt>
      <trkpt lat="45.33661" lon="1.93658">
        <ele>550.9</ele>
        <time>2022-08-05T07:37:17Z</time>
      </trkpt>
      <trkpt lat="45.33659" lon="1.9366">
        <ele>551.2</ele>
        <time>2022-08-05T07:37:19Z</time>
      </trkpt>
      <trkpt lat="45.33654" lon="1.93662">
        <ele>551.5</ele>
        <time>2022-08-05T07:37:21Z</time>
      </trkpt>
      <trkpt lat="45.33651" lon="1.93665">
        <ele>552</ele>
        <time>2022-08-05T07:37:23Z</time>
      </trkpt>
      <trkpt lat="45.33648" lon="1.93668">
        <ele>552.3</ele>
        <time>2022-08-05T07:37:25Z</time>
      </trkpt>
      <trkpt lat="45.33646" lon="1.9367">
        <ele>552.5</ele>
        <time>2022-08-05T07:37:27Z</time>
      </trkpt>
      <trkpt lat="45.33643" lon="1.93674">
        <ele>552.9</ele>
        <time>2022-08-05T07:37:29Z</time>
      </trkpt>
      <trkpt lat="45.3364" lon="1.93675">
        <ele>553</ele>
        <time>2022-08-05T07:37:31Z</time>
      </trkpt>
      <trkpt lat="45.33638" lon="1.93679">
        <ele>553.2</ele>
        <time>2022-08-05T07:37:33Z</time>
      </trkpt>
      <trkpt lat="45.33635" lon="1.93681">
        <ele>553.5</ele>
        <time>2022-08-05T07:37:35Z</time>
      </trkpt>
      <trkpt lat="45.33632" lon="1.93685">
        <ele>553.7</ele>
        <time>2022-08-05T07:37:37Z</time>
      </trkpt>
      <trkpt lat="45.3363" lon="1.93689">
        <ele>554</ele>
        <time>2022-08-05T07:37:39Z</time>
      </trkpt>
      <trkpt lat="45.33627" lon="1.93693">
        <ele>554.3</ele>
        <time>2022-08-05T07:37:41Z</time>
      </trkpt>
      <trkpt lat="45.33625" lon="1.93698">
        <ele>554.5</ele>
        <time>2022-08-05T07:37:43Z</time>
      </trkpt>
      <trkpt lat="45.33624" lon="1.93702">
        <ele>554.8</ele>
        <time>2022-08-05T07:37:45Z</time>
      </trkpt>
      <trkpt lat="45.33624" lon="1.93707">
        <ele>555.1</ele>
        <time>2022-08-05T07:37:47Z</time>
      </trkpt>
      <trkpt lat="45.33623" lon="1.93709">
        <ele>555.3</ele>
        <time>2022-08-05T07:37:49Z</time>
      </trkpt>
      <trkpt lat="45.33622" lon="1.93714">
        <ele>555.6</ele>
        <time>2022-08-05T07:37:51Z</time>
      </trkpt>
      <trkpt lat="45.33621" lon="1.93719">
        <ele>555.9</ele>
        <time>2022-08-05T07:37:53Z</time>
      </trkpt>
      <trkpt lat="45.3362" lon="1.93723">
        <ele>556.1</ele>
        <time>2022-08-05T07:37:55Z</time>
      </trkpt>
      <trkpt lat="45.33618" lon="1.93727">
        <ele>556.3</ele>
        <time>2022-08-05T07:37:57Z</time>
      </trkpt>
      <trkpt lat="45.33617" lon="1.93731">
        <ele>556.5</ele>
        <time>2022-08-05T07:37:59Z</time>
      </trkpt>
      <trkpt lat="45.33614" lon="1.93734">
        <ele>556.6</ele>
        <time>2022-08-05T07:38:01Z</time>
      </trkpt>
      <trkpt lat="45.33613" lon="1.93739">
        <ele>556.8</ele>
        <time>2022-08-05T07:38:03Z</time>
      </trkpt>
      <trkpt lat="45.33611" lon="1.93744">
        <ele>557</ele>
        <time>2022-08-05T07:38:05Z</time>
      </trkpt>
      <trkpt lat="45.33611" lon="1.93748">
        <ele>557.2</ele>
        <time>2022-08-05T07:38:07Z</time>
      </trkpt>
      <trkpt lat="45.3361" lon="1.93752">
        <ele>557.4</ele>
        <time>2022-08-05T07:38:09Z</time>
      </trkpt>
      <trkpt lat="45.3361" lon="1.93756">
        <ele>557.7</ele>
        <time>2022-08-05T07:38:11Z</time>
      </trkpt>
      <trkpt lat="45.33608" lon="1.9376">
        <ele>557.8</ele>
        <time>2022-08-05T07:38:13Z</time>
      </trkpt>
      <trkpt lat="45.33608" lon="1.93765">
        <ele>558.2</ele>
        <time>2022-08-05T07:38:15Z</time>
      </trkpt>
      <trkpt lat="45.33608" lon="1.9377">
        <ele>558.5</ele>
        <time>2022-08-05T07:38:17Z</time>
      </trkpt>
      <trkpt lat="45.33607" lon="1.93775">
        <ele>558.8</ele>
        <time>2022-08-05T07:38:19Z</time>
      </trkpt>
      <trkpt lat="45.33607" lon="1.9378">
        <ele>559.1</ele>
        <time>2022-08-05T07:38:21Z</time>
      </trkpt>
      <trkpt lat="45.33606" lon="1.93784">
        <ele>559.3</ele>
        <time>2022-08-05T07:38:23Z</time>
      </trkpt>
      <trkpt lat="45.33606" lon="1.93789">
        <ele>559.6</ele>
        <time>2022-08-05T07:38:25Z</time>
      </trkpt>
      <trkpt lat="45.33607" lon="1.93793">
        <ele>559.9</ele>
        <time>2022-08-05T07:38:27Z</time>
      </trkpt>
      <trkpt lat="45.33607" lon="1.93798">
        <ele>560.2</ele>
        <time>2022-08-05T07:38:29Z</time>
      </trkpt>
      <trkpt lat="45.33607" lon="1.93802">
        <ele>560.5</ele>
        <time>2022-08-05T07:38:31Z</time>
      </trkpt>
      <trkpt lat="45.33607" lon="1.93807">
        <ele>560.9</ele>
        <time>2022-08-05T07:38:33Z</time>
      </trkpt>
      <trkpt lat="45.33607" lon="1.93811">
        <ele>561.1</ele>
        <time>2022-08-05T07:38:35Z</time>
      </trkpt>
      <trkpt lat="45.33607" lon="1.93816">
        <ele>561.5</ele>
        <time>2022-08-05T07:38:37Z</time>
      </trkpt>
      <trkpt lat="45.33607" lon="1.93821">
        <ele>561.8</ele>
        <time>2022-08-05T07:38:39Z</time>
      </trkpt>
      <trkpt lat="45.33607" lon="1.93826">
        <ele>562.1</ele>
        <time>2022-08-05T07:38:41Z</time>
      </trkpt>
      <trkpt lat="45.33607" lon="1.9383">
        <ele>562.4</ele>
        <time>2022-08-05T07:38:43Z</time>
      </trkpt>
      <trkpt lat="45.33606" lon="1.93835">
        <ele>562.6</ele>
        <time>2022-08-05T07:38:45Z</time>
      </trkpt>
      <trkpt lat="45.33606" lon="1.9384">
        <ele>562.7</ele>
        <time>2022-08-05T07:38:47Z</time>
      </trkpt>
      <trkpt lat="45.33605" lon="1.93845">
        <ele>562.7</ele>
        <time>2022-08-05T07:38:49Z</time>
      </trkpt>
      <trkpt lat="45.33603" lon="1.93849">
        <ele>562.8</ele>
        <time>2022-08-05T07:38:51Z</time>
      </trkpt>
      <trkpt lat="45.33602" lon="1.93854">
        <ele>562.8</ele>
        <time>2022-08-05T07:38:53Z</time>
      </trkpt>
      <trkpt lat="45.33601" lon="1.93858">
        <ele>562.9</ele>
        <time>2022-08-05T07:38:55Z</time>
      </trkpt>
      <trkpt lat="45.33599" lon="1.93863">
        <ele>562.9</ele>
        <time>2022-08-05T07:38:57Z</time>
      </trkpt>
      <trkpt lat="45.33597" lon="1.93867">
        <ele>563</ele>
        <time>2022-08-05T07:38:59Z</time>
      </trkpt>
      <trkpt lat="45.33595" lon="1.93871">
        <ele>563.1</ele>
        <time>2022-08-05T07:39:01Z</time>
      </trkpt>
      <trkpt lat="45.33593" lon="1.93875">
        <ele>563.1</ele>
        <time>2022-08-05T07:39:03Z</time>
      </trkpt>
      <trkpt lat="45.3359" lon="1.93879">
        <ele>563.2</ele>
        <time>2022-08-05T07:39:05Z</time>
      </trkpt>
      <trkpt lat="45.33588" lon="1.93883">
        <ele>563.2</ele>
        <time>2022-08-05T07:39:07Z</time>
      </trkpt>
      <trkpt lat="45.33586" lon="1.93887">
        <ele>563.3</ele>
        <time>2022-08-05T07:39:09Z</time>
      </trkpt>
      <trkpt lat="45.33584" lon="1.9389">
        <ele>563.4</ele>
        <time>2022-08-05T07:39:11Z</time>
      </trkpt>
      <trkpt lat="45.33581" lon="1.93893">
        <ele>563.5</ele>
        <time>2022-08-05T07:39:13Z</time>
      </trkpt>
      <trkpt lat="45.33579" lon="1.93897">
        <ele>563.7</ele>
        <time>2022-08-05T07:39:15Z</time>
      </trkpt>
      <trkpt lat="45.33576" lon="1.93901">
        <ele>563.9</ele>
        <time>2022-08-05T07:39:17Z</time>
      </trkpt>
      <trkpt lat="45.33574" lon="1.93905">
        <ele>564.1</ele>
        <time>2022-08-05T07:39:19Z</time>
      </trkpt>
      <trkpt lat="45.33571" lon="1.93909">
        <ele>564.3</ele>
        <time>2022-08-05T07:39:21Z</time>
      </trkpt>
      <trkpt lat="45.33569" lon="1.93912">
        <ele>564.4</ele>
        <time>2022-08-05T07:39:23Z</time>
      </trkpt>
      <trkpt lat="45.33566" lon="1.93916">
        <ele>564.6</ele>
        <time>2022-08-05T07:39:25Z</time>
      </trkpt>
      <trkpt lat="45.33564" lon="1.9392">
        <ele>564.8</ele>
        <time>2022-08-05T07:39:27Z</time>
      </trkpt>
      <trkpt lat="45.33561" lon="1.93924">
        <ele>564.9</ele>
        <time>2022-08-05T07:39:29Z</time>
      </trkpt>
      <trkpt lat="45.33558" lon="1.93928">
        <ele>565.1</ele>
        <time>2022-08-05T07:39:31Z</time>
      </trkpt>
      <trkpt lat="45.33556" lon="1.93932">
        <ele>565.2</ele>
        <time>2022-08-05T07:39:33Z</time>
      </trkpt>
      <trkpt lat="45.33553" lon="1.93936">
        <ele>565.4</ele>
        <time>2022-08-05T07:39:35Z</time>
      </trkpt>
      <trkpt lat="45.33551" lon="1.9394">
        <ele>565.5</ele>
        <time>2022-08-05T07:39:37Z</time>
      </trkpt>
      <trkpt lat="45.33548" lon="1.93945">
        <ele>565.6</ele>
        <time>2022-08-05T07:39:39Z</time>
      </trkpt>
      <trkpt lat="45.33546" lon="1.9395">
        <ele>565.6</ele>
        <time>2022-08-05T07:39:41Z</time>
      </trkpt>
      <trkpt lat="45.33544" lon="1.93955">
        <ele>565.7</ele>
        <time>2022-08-05T07:39:43Z</time>
      </trkpt>
      <trkpt lat="45.33542" lon="1.93962">
        <ele>565.8</ele>
        <time>2022-08-05T07:39:45Z</time>
      </trkpt>
      <trkpt lat="45.3354" lon="1.93968">
        <ele>565.8</ele>
        <time>2022-08-05T07:39:47Z</time>
      </trkpt>
      <trkpt lat="45.33539" lon="1.93976">
        <ele>565.8</ele>
        <time>2022-08-05T07:39:49Z</time>
      </trkpt>
      <trkpt lat="45.33537" lon="1.93982">
        <ele>565.8</ele>
        <time>2022-08-05T07:39:51Z</time>
      </trkpt>
      <trkpt lat="45.33535" lon="1.9399">
        <ele>565.8</ele>
        <time>2022-08-05T07:39:53Z</time>
      </trkpt>
      <trkpt lat="45.33533" lon="1.93998">
        <ele>565.8</ele>
        <time>2022-08-05T07:39:55Z</time>
      </trkpt>
      <trkpt lat="45.3353" lon="1.94006">
        <ele>565.6</ele>
        <time>2022-08-05T07:39:57Z</time>
      </trkpt>
      <trkpt lat="45.33527" lon="1.94016">
        <ele>565.2</ele>
        <time>2022-08-05T07:39:59Z</time>
      </trkpt>
      <trkpt lat="45.33524" lon="1.94028">
        <ele>564.7</ele>
        <time>2022-08-05T07:40:01Z</time>
      </trkpt>
      <trkpt lat="45.33521" lon="1.9404">
        <ele>564.2</ele>
        <time>2022-08-05T07:40:03Z</time>
      </trkpt>
      <trkpt lat="45.33517" lon="1.94053">
        <ele>563.5</ele>
        <time>2022-08-05T07:40:05Z</time>
      </trkpt>
      <trkpt lat="45.33513" lon="1.94067">
        <ele>562.7</ele>
        <time>2022-08-05T07:40:07Z</time>
      </trkpt>
      <trkpt lat="45.3351" lon="1.94081">
        <ele>561.9</ele>
        <time>2022-08-05T07:40:09Z</time>
      </trkpt>
      <trkpt lat="45.33509" lon="1.94097">
        <ele>561.1</ele>
        <time>2022-08-05T07:40:11Z</time>
      </trkpt>
      <trkpt lat="45.3351" lon="1.94112">
        <ele>560.4</ele>
        <time>2022-08-05T07:40:13Z</time>
      </trkpt>
      <trkpt lat="45.33514" lon="1.94125">
        <ele>559.9</ele>
        <time>2022-08-05T07:40:15Z</time>
      </trkpt>
      <trkpt lat="45.33519" lon="1.94137">
        <ele>559.4</ele>
        <time>2022-08-05T07:40:17Z</time>
      </trkpt>
      <trkpt lat="45.33524" lon="1.94152">
        <ele>558.8</ele>
        <time>2022-08-05T07:40:19Z</time>
      </trkpt>
      <trkpt lat="45.33529" lon="1.94168">
        <ele>558.1</ele>
        <time>2022-08-05T07:40:21Z</time>
      </trkpt>
      <trkpt lat="45.33536" lon="1.94182">
        <ele>558.2</ele>
        <time>2022-08-05T07:40:23Z</time>
      </trkpt>
      <trkpt lat="45.33541" lon="1.94196">
        <ele>558.3</ele>
        <time>2022-08-05T07:40:25Z</time>
      </trkpt>
      <trkpt lat="45.33544" lon="1.94209">
        <ele>558.3</ele>
        <time>2022-08-05T07:40:27Z</time>
      </trkpt>
      <trkpt lat="45.33548" lon="1.9422">
        <ele>558.3</ele>
        <time>2022-08-05T07:40:29Z</time>
      </trkpt>
      <trkpt lat="45.33552" lon="1.9423">
        <ele>558.2</ele>
        <time>2022-08-05T07:40:31Z</time>
      </trkpt>
      <trkpt lat="45.33555" lon="1.9424">
        <ele>558.1</ele>
        <time>2022-08-05T07:40:33Z</time>
      </trkpt>
      <trkpt lat="45.33557" lon="1.9425">
        <ele>558</ele>
        <time>2022-08-05T07:40:35Z</time>
      </trkpt>
      <trkpt lat="45.33559" lon="1.94258">
        <ele>558.2</ele>
        <time>2022-08-05T07:40:37Z</time>
      </trkpt>
      <trkpt lat="45.33561" lon="1.94266">
        <ele>558.5</ele>
        <time>2022-08-05T07:40:39Z</time>
      </trkpt>
      <trkpt lat="45.33562" lon="1.94274">
        <ele>558.7</ele>
        <time>2022-08-05T07:40:41Z</time>
      </trkpt>
      <trkpt lat="45.33563" lon="1.94281">
        <ele>558.9</ele>
        <time>2022-08-05T07:40:43Z</time>
      </trkpt>
      <trkpt lat="45.33564" lon="1.94289">
        <ele>559.2</ele>
        <time>2022-08-05T07:40:45Z</time>
      </trkpt>
      <trkpt lat="45.33564" lon="1.94297">
        <ele>559.4</ele>
        <time>2022-08-05T07:40:47Z</time>
      </trkpt>
      <trkpt lat="45.33563" lon="1.94304">
        <ele>559.6</ele>
        <time>2022-08-05T07:40:49Z</time>
      </trkpt>
      <trkpt lat="45.33562" lon="1.94311">
        <ele>559.8</ele>
        <time>2022-08-05T07:40:51Z</time>
      </trkpt>
      <trkpt lat="45.3356" lon="1.94318">
        <ele>560.1</ele>
        <time>2022-08-05T07:40:53Z</time>
      </trkpt>
      <trkpt lat="45.33558" lon="1.94324">
        <ele>560.3</ele>
        <time>2022-08-05T07:40:55Z</time>
      </trkpt>
      <trkpt lat="45.33555" lon="1.94331">
        <ele>560.6</ele>
        <time>2022-08-05T07:40:57Z</time>
      </trkpt>
      <trkpt lat="45.33553" lon="1.94337">
        <ele>560.8</ele>
        <time>2022-08-05T07:40:59Z</time>
      </trkpt>
      <trkpt lat="45.33551" lon="1.94343">
        <ele>561.1</ele>
        <time>2022-08-05T07:41:01Z</time>
      </trkpt>
      <trkpt lat="45.33549" lon="1.94349">
        <ele>561.3</ele>
        <time>2022-08-05T07:41:03Z</time>
      </trkpt>
      <trkpt lat="45.33547" lon="1.94355">
        <ele>561.5</ele>
        <time>2022-08-05T07:41:05Z</time>
      </trkpt>
      <trkpt lat="45.33545" lon="1.94361">
        <ele>561.7</ele>
        <time>2022-08-05T07:41:07Z</time>
      </trkpt>
      <trkpt lat="45.33543" lon="1.94368">
        <ele>562</ele>
        <time>2022-08-05T07:41:09Z</time>
      </trkpt>
      <trkpt lat="45.3354" lon="1.94374">
        <ele>562.3</ele>
        <time>2022-08-05T07:41:11Z</time>
      </trkpt>
      <trkpt lat="45.33538" lon="1.94381">
        <ele>562.5</ele>
        <time>2022-08-05T07:41:13Z</time>
      </trkpt>
      <trkpt lat="45.33537" lon="1.94387">
        <ele>562.8</ele>
        <time>2022-08-05T07:41:15Z</time>
      </trkpt>
      <trkpt lat="45.33535" lon="1.94393">
        <ele>563</ele>
        <time>2022-08-05T07:41:17Z</time>
      </trkpt>
      <trkpt lat="45.33534" lon="1.94399">
        <ele>563.2</ele>
        <time>2022-08-05T07:41:19Z</time>
      </trkpt>
      <trkpt lat="45.33532" lon="1.94405">
        <ele>563.5</ele>
        <time>2022-08-05T07:41:21Z</time>
      </trkpt>
      <trkpt lat="45.3353" lon="1.94411">
        <ele>563.7</ele>
        <time>2022-08-05T07:41:23Z</time>
      </trkpt>
      <trkpt lat="45.33529" lon="1.94417">
        <ele>563.9</ele>
        <time>2022-08-05T07:41:25Z</time>
      </trkpt>
      <trkpt lat="45.33527" lon="1.94422">
        <ele>564.3</ele>
        <time>2022-08-05T07:41:27Z</time>
      </trkpt>
      <trkpt lat="45.33526" lon="1.94428">
        <ele>564.6</ele>
        <time>2022-08-05T07:41:29Z</time>
      </trkpt>
      <trkpt lat="45.33524" lon="1.94434">
        <ele>565</ele>
        <time>2022-08-05T07:41:31Z</time>
      </trkpt>
      <trkpt lat="45.33522" lon="1.94439">
        <ele>565.3</ele>
        <time>2022-08-05T07:41:33Z</time>
      </trkpt>
      <trkpt lat="45.3352" lon="1.94445">
        <ele>565.6</ele>
        <time>2022-08-05T07:41:35Z</time>
      </trkpt>
      <trkpt lat="45.33518" lon="1.94451">
        <ele>566</ele>
        <time>2022-08-05T07:41:37Z</time>
      </trkpt>
      <trkpt lat="45.33516" lon="1.94456">
        <ele>566.3</ele>
        <time>2022-08-05T07:41:39Z</time>
      </trkpt>
      <trkpt lat="45.33514" lon="1.94462">
        <ele>566.7</ele>
        <time>2022-08-05T07:41:41Z</time>
      </trkpt>
      <trkpt lat="45.33513" lon="1.94468">
        <ele>567</ele>
        <time>2022-08-05T07:41:43Z</time>
      </trkpt>
      <trkpt lat="45.33512" lon="1.94473">
        <ele>567.3</ele>
        <time>2022-08-05T07:41:45Z</time>
      </trkpt>
      <trkpt lat="45.3351" lon="1.94479">
        <ele>567.6</ele>
        <time>2022-08-05T07:41:47Z</time>
      </trkpt>
      <trkpt lat="45.33508" lon="1.94486">
        <ele>568</ele>
        <time>2022-08-05T07:41:49Z</time>
      </trkpt>
      <trkpt lat="45.33506" lon="1.94491">
        <ele>568.4</ele>
        <time>2022-08-05T07:41:51Z</time>
      </trkpt>
      <trkpt lat="45.33504" lon="1.94497">
        <ele>568.7</ele>
        <time>2022-08-05T07:41:53Z</time>
      </trkpt>
      <trkpt lat="45.33503" lon="1.94504">
        <ele>569</ele>
        <time>2022-08-05T07:41:55Z</time>
      </trkpt>
      <trkpt lat="45.335" lon="1.94509">
        <ele>569.3</ele>
        <time>2022-08-05T07:41:57Z</time>
      </trkpt>
      <trkpt lat="45.33499" lon="1.94516">
        <ele>569.6</ele>
        <time>2022-08-05T07:41:59Z</time>
      </trkpt>
      <trkpt lat="45.33497" lon="1.94523">
        <ele>569.8</ele>
        <time>2022-08-05T07:42:01Z</time>
      </trkpt>
      <trkpt lat="45.33496" lon="1.9453">
        <ele>570</ele>
        <time>2022-08-05T07:42:03Z</time>
      </trkpt>
      <trkpt lat="45.33494" lon="1.94536">
        <ele>570.2</ele>
        <time>2022-08-05T07:42:05Z</time>
      </trkpt>
      <trkpt lat="45.33492" lon="1.94543">
        <ele>570.4</ele>
        <time>2022-08-05T07:42:07Z</time>
      </trkpt>
      <trkpt lat="45.33491" lon="1.94549">
        <ele>570.6</ele>
        <time>2022-08-05T07:42:09Z</time>
      </trkpt>
      <trkpt lat="45.33489" lon="1.94555">
        <ele>570.7</ele>
        <time>2022-08-05T07:42:11Z</time>
      </trkpt>
      <trkpt lat="45.33487" lon="1.94562">
        <ele>570.9</ele>
        <time>2022-08-05T07:42:13Z</time>
      </trkpt>
      <trkpt lat="45.33485" lon="1.94567">
        <ele>571</ele>
        <time>2022-08-05T07:42:15Z</time>
      </trkpt>
      <trkpt lat="45.33484" lon="1.94573">
        <ele>571.1</ele>
        <time>2022-08-05T07:42:17Z</time>
      </trkpt>
      <trkpt lat="45.33482" lon="1.94579">
        <ele>571.2</ele>
        <time>2022-08-05T07:42:19Z</time>
      </trkpt>
      <trkpt lat="45.3348" lon="1.94585">
        <ele>571.2</ele>
        <time>2022-08-05T07:42:21Z</time>
      </trkpt>
      <trkpt lat="45.33479" lon="1.94594">
        <ele>570.7</ele>
        <time>2022-08-05T07:42:23Z</time>
      </trkpt>
      <trkpt lat="45.33477" lon="1.94605">
        <ele>570.1</ele>
        <time>2022-08-05T07:42:25Z</time>
      </trkpt>
      <trkpt lat="45.33474" lon="1.94616">
        <ele>569.5</ele>
        <time>2022-08-05T07:42:27Z</time>
      </trkpt>
      <trkpt lat="45.33472" lon="1.94627">
        <ele>568.9</ele>
        <time>2022-08-05T07:42:29Z</time>
      </trkpt>
      <trkpt lat="45.3347" lon="1.94639">
        <ele>568.3</ele>
        <time>2022-08-05T07:42:31Z</time>
      </trkpt>
      <trkpt lat="45.33468" lon="1.94652">
        <ele>567.6</ele>
        <time>2022-08-05T07:42:33Z</time>
      </trkpt>
      <trkpt lat="45.33465" lon="1.94662">
        <ele>567</ele>
        <time>2022-08-05T07:42:35Z</time>
      </trkpt>
      <trkpt lat="45.33464" lon="1.94674">
        <ele>566</ele>
        <time>2022-08-05T07:42:37Z</time>
      </trkpt>
      <trkpt lat="45.33462" lon="1.94688">
        <ele>564.8</ele>
        <time>2022-08-05T07:42:39Z</time>
      </trkpt>
      <trkpt lat="45.3346" lon="1.94699">
        <ele>563.8</ele>
        <time>2022-08-05T07:42:41Z</time>
      </trkpt>
      <trkpt lat="45.33459" lon="1.94708">
        <ele>563.1</ele>
        <time>2022-08-05T07:42:43Z</time>
      </trkpt>
      <trkpt lat="45.33458" lon="1.94713">
        <ele>562.6</ele>
        <time>2022-08-05T07:42:45Z</time>
      </trkpt>
      <trkpt lat="45.33456" lon="1.94715">
        <ele>562.4</ele>
        <time>2022-08-05T07:42:47Z</time>
      </trkpt>
      <trkpt lat="45.33455" lon="1.94718">
        <ele>562.1</ele>
        <time>2022-08-05T07:42:49Z</time>
      </trkpt>
      <trkpt lat="45.33455" lon="1.94718">
        <ele>562.1</ele>
        <time>2022-08-05T07:42:51Z</time>
      </trkpt>
      <trkpt lat="45.33454" lon="1.94718">
        <ele>562.1</ele>
        <time>2022-08-05T07:42:53Z</time>
      </trkpt>
      <trkpt lat="45.33454" lon="1.94718">
        <ele>562.1</ele>
        <time>2022-08-05T07:42:57Z</time>
      </trkpt>
      <trkpt lat="45.33453" lon="1.94748">
        <ele>559.7</ele>
        <time>2022-08-05T07:44:51Z</time>
      </trkpt>
      <trkpt lat="45.33452" lon="1.94758">
        <ele>559.3</ele>
        <time>2022-08-05T07:44:53Z</time>
      </trkpt>
      <trkpt lat="45.33452" lon="1.94769">
        <ele>558.9</ele>
        <time>2022-08-05T07:44:55Z</time>
      </trkpt>
      <trkpt lat="45.33454" lon="1.94782">
        <ele>558.4</ele>
        <time>2022-08-05T07:44:57Z</time>
      </trkpt>
      <trkpt lat="45.33458" lon="1.94796">
        <ele>557.8</ele>
        <time>2022-08-05T07:44:59Z</time>
      </trkpt>
      <trkpt lat="45.33466" lon="1.94811">
        <ele>557.3</ele>
        <time>2022-08-05T07:45:01Z</time>
      </trkpt>
      <trkpt lat="45.33472" lon="1.94832">
        <ele>556.7</ele>
        <time>2022-08-05T07:45:03Z</time>
      </trkpt>
      <trkpt lat="45.33474" lon="1.94857">
        <ele>559.2</ele>
        <time>2022-08-05T07:45:05Z</time>
      </trkpt>
      <trkpt lat="45.33471" lon="1.94882">
        <ele>561.7</ele>
        <time>2022-08-05T07:45:07Z</time>
      </trkpt>
      <trkpt lat="45.33463" lon="1.94903">
        <ele>562.9</ele>
        <time>2022-08-05T07:45:09Z</time>
      </trkpt>
      <trkpt lat="45.33453" lon="1.94918">
        <ele>563.1</ele>
        <time>2022-08-05T07:45:11Z</time>
      </trkpt>
      <trkpt lat="45.33445" lon="1.94931">
        <ele>563.8</ele>
        <time>2022-08-05T07:45:13Z</time>
      </trkpt>
      <trkpt lat="45.33438" lon="1.94941">
        <ele>564.2</ele>
        <time>2022-08-05T07:45:15Z</time>
      </trkpt>
      <trkpt lat="45.3343" lon="1.9495">
        <ele>564.5</ele>
        <time>2022-08-05T07:45:17Z</time>
      </trkpt>
      <trkpt lat="45.33425" lon="1.94959">
        <ele>564.9</ele>
        <time>2022-08-05T07:45:19Z</time>
      </trkpt>
      <trkpt lat="45.33421" lon="1.94966">
        <ele>565.2</ele>
        <time>2022-08-05T07:45:21Z</time>
      </trkpt>
      <trkpt lat="45.33417" lon="1.94974">
        <ele>565.7</ele>
        <time>2022-08-05T07:45:23Z</time>
      </trkpt>
      <trkpt lat="45.33413" lon="1.94981">
        <ele>566.3</ele>
        <time>2022-08-05T07:45:25Z</time>
      </trkpt>
      <trkpt lat="45.33411" lon="1.94987">
        <ele>566.9</ele>
        <time>2022-08-05T07:45:27Z</time>
      </trkpt>
      <trkpt lat="45.33407" lon="1.94997">
        <ele>567.9</ele>
        <time>2022-08-05T07:45:29Z</time>
      </trkpt>
      <trkpt lat="45.33405" lon="1.95004">
        <ele>568.3</ele>
        <time>2022-08-05T07:45:31Z</time>
      </trkpt>
      <trkpt lat="45.33402" lon="1.9501">
        <ele>568.7</ele>
        <time>2022-08-05T07:45:33Z</time>
      </trkpt>
      <trkpt lat="45.33399" lon="1.95016">
        <ele>569</ele>
        <time>2022-08-05T07:45:35Z</time>
      </trkpt>
      <trkpt lat="45.33398" lon="1.95023">
        <ele>569.5</ele>
        <time>2022-08-05T07:45:37Z</time>
      </trkpt>
      <trkpt lat="45.33396" lon="1.95029">
        <ele>569.9</ele>
        <time>2022-08-05T07:45:39Z</time>
      </trkpt>
      <trkpt lat="45.33392" lon="1.95035">
        <ele>570.1</ele>
        <time>2022-08-05T07:45:41Z</time>
      </trkpt>
      <trkpt lat="45.33391" lon="1.9504">
        <ele>570.5</ele>
        <time>2022-08-05T07:45:43Z</time>
      </trkpt>
      <trkpt lat="45.33389" lon="1.95045">
        <ele>570.6</ele>
        <time>2022-08-05T07:45:45Z</time>
      </trkpt>
      <trkpt lat="45.33386" lon="1.95052">
        <ele>571</ele>
        <time>2022-08-05T07:45:47Z</time>
      </trkpt>
      <trkpt lat="45.33383" lon="1.95058">
        <ele>571.2</ele>
        <time>2022-08-05T07:45:49Z</time>
      </trkpt>
      <trkpt lat="45.33382" lon="1.95062">
        <ele>571.5</ele>
        <time>2022-08-05T07:45:51Z</time>
      </trkpt>
      <trkpt lat="45.33381" lon="1.95067">
        <ele>571.7</ele>
        <time>2022-08-05T07:45:53Z</time>
      </trkpt>
      <trkpt lat="45.33378" lon="1.95072">
        <ele>571.9</ele>
        <time>2022-08-05T07:45:55Z</time>
      </trkpt>
      <trkpt lat="45.33377" lon="1.95077">
        <ele>572.2</ele>
        <time>2022-08-05T07:45:57Z</time>
      </trkpt>
      <trkpt lat="45.33374" lon="1.95082">
        <ele>572.3</ele>
        <time>2022-08-05T07:45:59Z</time>
      </trkpt>
      <trkpt lat="45.33373" lon="1.95087">
        <ele>572.4</ele>
        <time>2022-08-05T07:46:01Z</time>
      </trkpt>
      <trkpt lat="45.33371" lon="1.95092">
        <ele>572.5</ele>
        <time>2022-08-05T07:46:03Z</time>
      </trkpt>
      <trkpt lat="45.33369" lon="1.95097">
        <ele>572.5</ele>
        <time>2022-08-05T07:46:05Z</time>
      </trkpt>
      <trkpt lat="45.33367" lon="1.95101">
        <ele>572.5</ele>
        <time>2022-08-05T07:46:07Z</time>
      </trkpt>
      <trkpt lat="45.33365" lon="1.95106">
        <ele>572.5</ele>
        <time>2022-08-05T07:46:09Z</time>
      </trkpt>
      <trkpt lat="45.33363" lon="1.9511">
        <ele>572.4</ele>
        <time>2022-08-05T07:46:11Z</time>
      </trkpt>
      <trkpt lat="45.3336" lon="1.95113">
        <ele>572.3</ele>
        <time>2022-08-05T07:46:13Z</time>
      </trkpt>
      <trkpt lat="45.33358" lon="1.95116">
        <ele>572.3</ele>
        <time>2022-08-05T07:46:15Z</time>
      </trkpt>
      <trkpt lat="45.33355" lon="1.95119">
        <ele>572.1</ele>
        <time>2022-08-05T07:46:17Z</time>
      </trkpt>
      <trkpt lat="45.33351" lon="1.95122">
        <ele>572</ele>
        <time>2022-08-05T07:46:19Z</time>
      </trkpt>
      <trkpt lat="45.33349" lon="1.95124">
        <ele>571.9</ele>
        <time>2022-08-05T07:46:21Z</time>
      </trkpt>
      <trkpt lat="45.33345" lon="1.95126">
        <ele>571.7</ele>
        <time>2022-08-05T07:46:23Z</time>
      </trkpt>
      <trkpt lat="45.33342" lon="1.95129">
        <ele>571.5</ele>
        <time>2022-08-05T07:46:25Z</time>
      </trkpt>
      <trkpt lat="45.33338" lon="1.95131">
        <ele>571.3</ele>
        <time>2022-08-05T07:46:27Z</time>
      </trkpt>
      <trkpt lat="45.33335" lon="1.95133">
        <ele>571.1</ele>
        <time>2022-08-05T07:46:29Z</time>
      </trkpt>
      <trkpt lat="45.33331" lon="1.95135">
        <ele>571.2</ele>
        <time>2022-08-05T07:46:31Z</time>
      </trkpt>
      <trkpt lat="45.33327" lon="1.95134">
        <ele>571.6</ele>
        <time>2022-08-05T07:46:33Z</time>
      </trkpt>
      <trkpt lat="45.33323" lon="1.95135">
        <ele>571.9</ele>
        <time>2022-08-05T07:46:35Z</time>
      </trkpt>
      <trkpt lat="45.3332" lon="1.95135">
        <ele>572.2</ele>
        <time>2022-08-05T07:46:37Z</time>
      </trkpt>
      <trkpt lat="45.33317" lon="1.95136">
        <ele>572.5</ele>
        <time>2022-08-05T07:46:39Z</time>
      </trkpt>
      <trkpt lat="45.33313" lon="1.95137">
        <ele>572.9</ele>
        <time>2022-08-05T07:46:41Z</time>
      </trkpt>
      <trkpt lat="45.33309" lon="1.95137">
        <ele>573.2</ele>
        <time>2022-08-05T07:46:43Z</time>
      </trkpt>
      <trkpt lat="45.33305" lon="1.95136">
        <ele>573.5</ele>
        <time>2022-08-05T07:46:45Z</time>
      </trkpt>
      <trkpt lat="45.33302" lon="1.95137">
        <ele>573.8</ele>
        <time>2022-08-05T07:46:47Z</time>
      </trkpt>
      <trkpt lat="45.33299" lon="1.95137">
        <ele>574.1</ele>
        <time>2022-08-05T07:46:49Z</time>
      </trkpt>
      <trkpt lat="45.33295" lon="1.95138">
        <ele>574.5</ele>
        <time>2022-08-05T07:46:51Z</time>
      </trkpt>
      <trkpt lat="45.33291" lon="1.95138">
        <ele>574.8</ele>
        <time>2022-08-05T07:46:53Z</time>
      </trkpt>
      <trkpt lat="45.33288" lon="1.95139">
        <ele>575.2</ele>
        <time>2022-08-05T07:46:55Z</time>
      </trkpt>
      <trkpt lat="45.33285" lon="1.9514">
        <ele>575.5</ele>
        <time>2022-08-05T07:46:57Z</time>
      </trkpt>
      <trkpt lat="45.33282" lon="1.95141">
        <ele>575.8</ele>
        <time>2022-08-05T07:46:59Z</time>
      </trkpt>
      <trkpt lat="45.33278" lon="1.95141">
        <ele>576.2</ele>
        <time>2022-08-05T07:47:01Z</time>
      </trkpt>
      <trkpt lat="45.33275" lon="1.95141">
        <ele>576.4</ele>
        <time>2022-08-05T07:47:03Z</time>
      </trkpt>
      <trkpt lat="45.33271" lon="1.9514">
        <ele>576.7</ele>
        <time>2022-08-05T07:47:05Z</time>
      </trkpt>
      <trkpt lat="45.33268" lon="1.95141">
        <ele>577</ele>
        <time>2022-08-05T07:47:07Z</time>
      </trkpt>
      <trkpt lat="45.33265" lon="1.95141">
        <ele>577.3</ele>
        <time>2022-08-05T07:47:09Z</time>
      </trkpt>
      <trkpt lat="45.33261" lon="1.95141">
        <ele>577.6</ele>
        <time>2022-08-05T07:47:11Z</time>
      </trkpt>
      <trkpt lat="45.33258" lon="1.95142">
        <ele>577.9</ele>
        <time>2022-08-05T07:47:13Z</time>
      </trkpt>
      <trkpt lat="45.33255" lon="1.95141">
        <ele>578.1</ele>
        <time>2022-08-05T07:47:15Z</time>
      </trkpt>
      <trkpt lat="45.33252" lon="1.95141">
        <ele>578.4</ele>
        <time>2022-08-05T07:47:17Z</time>
      </trkpt>
      <trkpt lat="45.33249" lon="1.95144">
        <ele>578.8</ele>
        <time>2022-08-05T07:47:19Z</time>
      </trkpt>
      <trkpt lat="45.33244" lon="1.95142">
        <ele>578.8</ele>
        <time>2022-08-05T07:47:21Z</time>
      </trkpt>
      <trkpt lat="45.3324" lon="1.95142">
        <ele>578.9</ele>
        <time>2022-08-05T07:47:23Z</time>
      </trkpt>
      <trkpt lat="45.33237" lon="1.95143">
        <ele>579.1</ele>
        <time>2022-08-05T07:47:25Z</time>
      </trkpt>
      <trkpt lat="45.33233" lon="1.95142">
        <ele>579.1</ele>
        <time>2022-08-05T07:47:27Z</time>
      </trkpt>
      <trkpt lat="45.3323" lon="1.95141">
        <ele>579.2</ele>
        <time>2022-08-05T07:47:29Z</time>
      </trkpt>
      <trkpt lat="45.33227" lon="1.95142">
        <ele>579.3</ele>
        <time>2022-08-05T07:47:31Z</time>
      </trkpt>
      <trkpt lat="45.33225" lon="1.95145">
        <ele>579.6</ele>
        <time>2022-08-05T07:47:33Z</time>
      </trkpt>
      <trkpt lat="45.33222" lon="1.95147">
        <ele>579.8</ele>
        <time>2022-08-05T07:47:35Z</time>
      </trkpt>
      <trkpt lat="45.33219" lon="1.95149">
        <ele>580.1</ele>
        <time>2022-08-05T07:47:37Z</time>
      </trkpt>
      <trkpt lat="45.33216" lon="1.95151">
        <ele>580.3</ele>
        <time>2022-08-05T07:47:39Z</time>
      </trkpt>
      <trkpt lat="45.33213" lon="1.95153">
        <ele>580.5</ele>
        <time>2022-08-05T07:47:41Z</time>
      </trkpt>
      <trkpt lat="45.33211" lon="1.95156">
        <ele>580.7</ele>
        <time>2022-08-05T07:47:43Z</time>
      </trkpt>
      <trkpt lat="45.33209" lon="1.95159">
        <ele>581</ele>
        <time>2022-08-05T07:47:45Z</time>
      </trkpt>
      <trkpt lat="45.33207" lon="1.95162">
        <ele>581.2</ele>
        <time>2022-08-05T07:47:47Z</time>
      </trkpt>
      <trkpt lat="45.33205" lon="1.95165">
        <ele>581.5</ele>
        <time>2022-08-05T07:47:49Z</time>
      </trkpt>
      <trkpt lat="45.33203" lon="1.95169">
        <ele>581.7</ele>
        <time>2022-08-05T07:47:51Z</time>
      </trkpt>
      <trkpt lat="45.33202" lon="1.95172">
        <ele>581.9</ele>
        <time>2022-08-05T07:47:53Z</time>
      </trkpt>
      <trkpt lat="45.332" lon="1.95176">
        <ele>582.1</ele>
        <time>2022-08-05T07:47:55Z</time>
      </trkpt>
      <trkpt lat="45.33199" lon="1.95179">
        <ele>582.3</ele>
        <time>2022-08-05T07:47:57Z</time>
      </trkpt>
      <trkpt lat="45.33198" lon="1.95183">
        <ele>582.5</ele>
        <time>2022-08-05T07:47:59Z</time>
      </trkpt>
      <trkpt lat="45.33198" lon="1.95186">
        <ele>582.7</ele>
        <time>2022-08-05T07:48:01Z</time>
      </trkpt>
      <trkpt lat="45.33198" lon="1.9519">
        <ele>582.9</ele>
        <time>2022-08-05T07:48:03Z</time>
      </trkpt>
      <trkpt lat="45.33199" lon="1.95195">
        <ele>583.1</ele>
        <time>2022-08-05T07:48:05Z</time>
      </trkpt>
      <trkpt lat="45.33198" lon="1.95199">
        <ele>583.3</ele>
        <time>2022-08-05T07:48:07Z</time>
      </trkpt>
      <trkpt lat="45.33198" lon="1.95204">
        <ele>583.6</ele>
        <time>2022-08-05T07:48:09Z</time>
      </trkpt>
      <trkpt lat="45.33198" lon="1.95208">
        <ele>583.8</ele>
        <time>2022-08-05T07:48:11Z</time>
      </trkpt>
      <trkpt lat="45.33198" lon="1.95212">
        <ele>584</ele>
        <time>2022-08-05T07:48:13Z</time>
      </trkpt>
      <trkpt lat="45.33198" lon="1.95217">
        <ele>584.3</ele>
        <time>2022-08-05T07:48:15Z</time>
      </trkpt>
      <trkpt lat="45.33199" lon="1.95221">
        <ele>584.5</ele>
        <time>2022-08-05T07:48:17Z</time>
      </trkpt>
      <trkpt lat="45.33199" lon="1.95226">
        <ele>584.7</ele>
        <time>2022-08-05T07:48:19Z</time>
      </trkpt>
      <trkpt lat="45.332" lon="1.9523">
        <ele>584.9</ele>
        <time>2022-08-05T07:48:21Z</time>
      </trkpt>
      <trkpt lat="45.33199" lon="1.95234">
        <ele>585.2</ele>
        <time>2022-08-05T07:48:23Z</time>
      </trkpt>
      <trkpt lat="45.33199" lon="1.95239">
        <ele>585.4</ele>
        <time>2022-08-05T07:48:25Z</time>
      </trkpt>
      <trkpt lat="45.33199" lon="1.95243">
        <ele>585.6</ele>
        <time>2022-08-05T07:48:27Z</time>
      </trkpt>
      <trkpt lat="45.33199" lon="1.95247">
        <ele>585.8</ele>
        <time>2022-08-05T07:48:29Z</time>
      </trkpt>
      <trkpt lat="45.33198" lon="1.95252">
        <ele>585.8</ele>
        <time>2022-08-05T07:48:31Z</time>
      </trkpt>
      <trkpt lat="45.33197" lon="1.95256">
        <ele>585.5</ele>
        <time>2022-08-05T07:48:33Z</time>
      </trkpt>
      <trkpt lat="45.33195" lon="1.9526">
        <ele>585.2</ele>
        <time>2022-08-05T07:48:35Z</time>
      </trkpt>
      <trkpt lat="45.33194" lon="1.95263">
        <ele>584.9</ele>
        <time>2022-08-05T07:48:37Z</time>
      </trkpt>
      <trkpt lat="45.33192" lon="1.95267">
        <ele>584.7</ele>
        <time>2022-08-05T07:48:39Z</time>
      </trkpt>
      <trkpt lat="45.33189" lon="1.9527">
        <ele>584.5</ele>
        <time>2022-08-05T07:48:41Z</time>
      </trkpt>
      <trkpt lat="45.33187" lon="1.95273">
        <ele>584.3</ele>
        <time>2022-08-05T07:48:43Z</time>
      </trkpt>
      <trkpt lat="45.33184" lon="1.95276">
        <ele>584.1</ele>
        <time>2022-08-05T07:48:45Z</time>
      </trkpt>
      <trkpt lat="45.33181" lon="1.95279">
        <ele>584</ele>
        <time>2022-08-05T07:48:47Z</time>
      </trkpt>
      <trkpt lat="45.33179" lon="1.95282">
        <ele>583.8</ele>
        <time>2022-08-05T07:48:49Z</time>
      </trkpt>
      <trkpt lat="45.33175" lon="1.95285">
        <ele>583.7</ele>
        <time>2022-08-05T07:48:51Z</time>
      </trkpt>
      <trkpt lat="45.33172" lon="1.95287">
        <ele>583.6</ele>
        <time>2022-08-05T07:48:53Z</time>
      </trkpt>
      <trkpt lat="45.33169" lon="1.9529">
        <ele>583.5</ele>
        <time>2022-08-05T07:48:55Z</time>
      </trkpt>
      <trkpt lat="45.33165" lon="1.95291">
        <ele>583.6</ele>
        <time>2022-08-05T07:48:57Z</time>
      </trkpt>
      <trkpt lat="45.33161" lon="1.95293">
        <ele>583.7</ele>
        <time>2022-08-05T07:48:59Z</time>
      </trkpt>
      <trkpt lat="45.33157" lon="1.95294">
        <ele>583.8</ele>
        <time>2022-08-05T07:49:01Z</time>
      </trkpt>
      <trkpt lat="45.33153" lon="1.95296">
        <ele>583.9</ele>
        <time>2022-08-05T07:49:03Z</time>
      </trkpt>
      <trkpt lat="45.33149" lon="1.95297">
        <ele>584</ele>
        <time>2022-08-05T07:49:05Z</time>
      </trkpt>
      <trkpt lat="45.33146" lon="1.95299">
        <ele>584</ele>
        <time>2022-08-05T07:49:07Z</time>
      </trkpt>
      <trkpt lat="45.33142" lon="1.953">
        <ele>584.2</ele>
        <time>2022-08-05T07:49:09Z</time>
      </trkpt>
      <trkpt lat="45.33137" lon="1.953">
        <ele>584.4</ele>
        <time>2022-08-05T07:49:11Z</time>
      </trkpt>
      <trkpt lat="45.33132" lon="1.95303">
        <ele>584.6</ele>
        <time>2022-08-05T07:49:13Z</time>
      </trkpt>
      <trkpt lat="45.33127" lon="1.95305">
        <ele>584.7</ele>
        <time>2022-08-05T07:49:15Z</time>
      </trkpt>
      <trkpt lat="45.33123" lon="1.95307">
        <ele>584.9</ele>
        <time>2022-08-05T07:49:17Z</time>
      </trkpt>
      <trkpt lat="45.33117" lon="1.95309">
        <ele>585.2</ele>
        <time>2022-08-05T07:49:19Z</time>
      </trkpt>
      <trkpt lat="45.33112" lon="1.9531">
        <ele>585.4</ele>
        <time>2022-08-05T07:49:21Z</time>
      </trkpt>
      <trkpt lat="45.33107" lon="1.95313">
        <ele>585.6</ele>
        <time>2022-08-05T07:49:23Z</time>
      </trkpt>
      <trkpt lat="45.33103" lon="1.95315">
        <ele>585.9</ele>
        <time>2022-08-05T07:49:25Z</time>
      </trkpt>
      <trkpt lat="45.33098" lon="1.95315">
        <ele>586.2</ele>
        <time>2022-08-05T07:49:27Z</time>
      </trkpt>
      <trkpt lat="45.33093" lon="1.95316">
        <ele>586.4</ele>
        <time>2022-08-05T07:49:29Z</time>
      </trkpt>
      <trkpt lat="45.33089" lon="1.95317">
        <ele>586.6</ele>
        <time>2022-08-05T07:49:31Z</time>
      </trkpt>
      <trkpt lat="45.33085" lon="1.95317">
        <ele>586.9</ele>
        <time>2022-08-05T07:49:33Z</time>
      </trkpt>
      <trkpt lat="45.33081" lon="1.95318">
        <ele>587.1</ele>
        <time>2022-08-05T07:49:35Z</time>
      </trkpt>
      <trkpt lat="45.33077" lon="1.95318">
        <ele>587.4</ele>
        <time>2022-08-05T07:49:37Z</time>
      </trkpt>
      <trkpt lat="45.33073" lon="1.95318">
        <ele>587.6</ele>
        <time>2022-08-05T07:49:39Z</time>
      </trkpt>
      <trkpt lat="45.33069" lon="1.95317">
        <ele>587.9</ele>
        <time>2022-08-05T07:49:41Z</time>
      </trkpt>
      <trkpt lat="45.33065" lon="1.95317">
        <ele>588.1</ele>
        <time>2022-08-05T07:49:43Z</time>
      </trkpt>
      <trkpt lat="45.33061" lon="1.95316">
        <ele>588.3</ele>
        <time>2022-08-05T07:49:45Z</time>
      </trkpt>
      <trkpt lat="45.33057" lon="1.95316">
        <ele>588.6</ele>
        <time>2022-08-05T07:49:47Z</time>
      </trkpt>
      <trkpt lat="45.33053" lon="1.95315">
        <ele>588.8</ele>
        <time>2022-08-05T07:49:49Z</time>
      </trkpt>
      <trkpt lat="45.33049" lon="1.95314">
        <ele>589</ele>
        <time>2022-08-05T07:49:51Z</time>
      </trkpt>
      <trkpt lat="45.33046" lon="1.95313">
        <ele>589.3</ele>
        <time>2022-08-05T07:49:53Z</time>
      </trkpt>
      <trkpt lat="45.33042" lon="1.95312">
        <ele>589.5</ele>
        <time>2022-08-05T07:49:55Z</time>
      </trkpt>
      <trkpt lat="45.33038" lon="1.9531">
        <ele>589.7</ele>
        <time>2022-08-05T07:49:57Z</time>
      </trkpt>
      <trkpt lat="45.33034" lon="1.95309">
        <ele>590</ele>
        <time>2022-08-05T07:49:59Z</time>
      </trkpt>
      <trkpt lat="45.3303" lon="1.95307">
        <ele>590.2</ele>
        <time>2022-08-05T07:50:01Z</time>
      </trkpt>
      <trkpt lat="45.33026" lon="1.95307">
        <ele>590.4</ele>
        <time>2022-08-05T07:50:03Z</time>
      </trkpt>
      <trkpt lat="45.33023" lon="1.95304">
        <ele>590.6</ele>
        <time>2022-08-05T07:50:05Z</time>
      </trkpt>
      <trkpt lat="45.33019" lon="1.95304">
        <ele>590.9</ele>
        <time>2022-08-05T07:50:07Z</time>
      </trkpt>
      <trkpt lat="45.33015" lon="1.95302">
        <ele>591.1</ele>
        <time>2022-08-05T07:50:09Z</time>
      </trkpt>
      <trkpt lat="45.33012" lon="1.953">
        <ele>591.3</ele>
        <time>2022-08-05T07:50:11Z</time>
      </trkpt>
      <trkpt lat="45.33008" lon="1.95299">
        <ele>591.5</ele>
        <time>2022-08-05T07:50:13Z</time>
      </trkpt>
      <trkpt lat="45.33004" lon="1.95298">
        <ele>591.8</ele>
        <time>2022-08-05T07:50:15Z</time>
      </trkpt>
      <trkpt lat="45.33" lon="1.95297">
        <ele>592</ele>
        <time>2022-08-05T07:50:17Z</time>
      </trkpt>
      <trkpt lat="45.32996" lon="1.95297">
        <ele>592</ele>
        <time>2022-08-05T07:50:19Z</time>
      </trkpt>
      <trkpt lat="45.32993" lon="1.95296">
        <ele>592</ele>
        <time>2022-08-05T07:50:21Z</time>
      </trkpt>
      <trkpt lat="45.3299" lon="1.95297">
        <ele>592.1</ele>
        <time>2022-08-05T07:50:23Z</time>
      </trkpt>
      <trkpt lat="45.32986" lon="1.95297">
        <ele>592.1</ele>
        <time>2022-08-05T07:50:25Z</time>
      </trkpt>
      <trkpt lat="45.32983" lon="1.95297">
        <ele>592.1</ele>
        <time>2022-08-05T07:50:27Z</time>
      </trkpt>
      <trkpt lat="45.32978" lon="1.95296">
        <ele>592.1</ele>
        <time>2022-08-05T07:50:29Z</time>
      </trkpt>
      <trkpt lat="45.32974" lon="1.95295">
        <ele>592.1</ele>
        <time>2022-08-05T07:50:31Z</time>
      </trkpt>
      <trkpt lat="45.3297" lon="1.95295">
        <ele>592.2</ele>
        <time>2022-08-05T07:50:33Z</time>
      </trkpt>
      <trkpt lat="45.32966" lon="1.95295">
        <ele>592.2</ele>
        <time>2022-08-05T07:50:35Z</time>
      </trkpt>
      <trkpt lat="45.32961" lon="1.95297">
        <ele>592.2</ele>
        <time>2022-08-05T07:50:37Z</time>
      </trkpt>
      <trkpt lat="45.32956" lon="1.95296">
        <ele>592.2</ele>
        <time>2022-08-05T07:50:39Z</time>
      </trkpt>
      <trkpt lat="45.32952" lon="1.95296">
        <ele>592.3</ele>
        <time>2022-08-05T07:50:41Z</time>
      </trkpt>
      <trkpt lat="45.32947" lon="1.95297">
        <ele>592.3</ele>
        <time>2022-08-05T07:50:43Z</time>
      </trkpt>
      <trkpt lat="45.32943" lon="1.95298">
        <ele>592.3</ele>
        <time>2022-08-05T07:50:45Z</time>
      </trkpt>
      <trkpt lat="45.32938" lon="1.953">
        <ele>592.3</ele>
        <time>2022-08-05T07:50:47Z</time>
      </trkpt>
      <trkpt lat="45.32934" lon="1.95302">
        <ele>592.3</ele>
        <time>2022-08-05T07:50:49Z</time>
      </trkpt>
      <trkpt lat="45.32929" lon="1.95304">
        <ele>592.3</ele>
        <time>2022-08-05T07:50:51Z</time>
      </trkpt>
      <trkpt lat="45.32924" lon="1.95306">
        <ele>592.3</ele>
        <time>2022-08-05T07:50:53Z</time>
      </trkpt>
      <trkpt lat="45.32918" lon="1.95308">
        <ele>592.3</ele>
        <time>2022-08-05T07:50:55Z</time>
      </trkpt>
      <trkpt lat="45.32913" lon="1.9531">
        <ele>592.9</ele>
        <time>2022-08-05T07:50:57Z</time>
      </trkpt>
      <trkpt lat="45.32907" lon="1.95311">
        <ele>593.8</ele>
        <time>2022-08-05T07:50:59Z</time>
      </trkpt>
      <trkpt lat="45.32902" lon="1.95313">
        <ele>594.6</ele>
        <time>2022-08-05T07:51:01Z</time>
      </trkpt>
      <trkpt lat="45.32897" lon="1.95315">
        <ele>595.3</ele>
        <time>2022-08-05T07:51:03Z</time>
      </trkpt>
      <trkpt lat="45.32892" lon="1.95317">
        <ele>596.1</ele>
        <time>2022-08-05T07:51:05Z</time>
      </trkpt>
      <trkpt lat="45.32887" lon="1.9532">
        <ele>596.9</ele>
        <time>2022-08-05T07:51:07Z</time>
      </trkpt>
      <trkpt lat="45.32882" lon="1.95324">
        <ele>597.7</ele>
        <time>2022-08-05T07:51:09Z</time>
      </trkpt>
      <trkpt lat="45.32877" lon="1.95328">
        <ele>598.3</ele>
        <time>2022-08-05T07:51:11Z</time>
      </trkpt>
      <trkpt lat="45.32874" lon="1.95333">
        <ele>598.6</ele>
        <time>2022-08-05T07:51:13Z</time>
      </trkpt>
      <trkpt lat="45.32872" lon="1.9534">
        <ele>598.4</ele>
        <time>2022-08-05T07:51:15Z</time>
      </trkpt>
      <trkpt lat="45.3287" lon="1.95346">
        <ele>598.3</ele>
        <time>2022-08-05T07:51:17Z</time>
      </trkpt>
      <trkpt lat="45.32868" lon="1.95352">
        <ele>598.1</ele>
        <time>2022-08-05T07:51:19Z</time>
      </trkpt>
      <trkpt lat="45.32867" lon="1.95357">
        <ele>597.9</ele>
        <time>2022-08-05T07:51:21Z</time>
      </trkpt>
      <trkpt lat="45.32865" lon="1.9536">
        <ele>597.8</ele>
        <time>2022-08-05T07:51:23Z</time>
      </trkpt>
      <trkpt lat="45.32864" lon="1.95367">
        <ele>597.4</ele>
        <time>2022-08-05T07:51:25Z</time>
      </trkpt>
      <trkpt lat="45.3286" lon="1.95371">
        <ele>597.5</ele>
        <time>2022-08-05T07:51:27Z</time>
      </trkpt>
      <trkpt lat="45.32856" lon="1.95376">
        <ele>597.5</ele>
        <time>2022-08-05T07:51:29Z</time>
      </trkpt>
      <trkpt lat="45.32852" lon="1.95381">
        <ele>597.4</ele>
        <time>2022-08-05T07:51:31Z</time>
      </trkpt>
      <trkpt lat="45.32848" lon="1.95385">
        <ele>597.3</ele>
        <time>2022-08-05T07:51:33Z</time>
      </trkpt>
      <trkpt lat="45.32844" lon="1.95389">
        <ele>597.3</ele>
        <time>2022-08-05T07:51:35Z</time>
      </trkpt>
      <trkpt lat="45.3284" lon="1.95393">
        <ele>597.3</ele>
        <time>2022-08-05T07:51:37Z</time>
      </trkpt>
      <trkpt lat="45.32835" lon="1.95395">
        <ele>597.5</ele>
        <time>2022-08-05T07:51:39Z</time>
      </trkpt>
      <trkpt lat="45.3283" lon="1.95398">
        <ele>597.4</ele>
        <time>2022-08-05T07:51:41Z</time>
      </trkpt>
      <trkpt lat="45.32825" lon="1.954">
        <ele>597.4</ele>
        <time>2022-08-05T07:51:43Z</time>
      </trkpt>
      <trkpt lat="45.3282" lon="1.95401">
        <ele>597.5</ele>
        <time>2022-08-05T07:51:45Z</time>
      </trkpt>
      <trkpt lat="45.32814" lon="1.95402">
        <ele>597.6</ele>
        <time>2022-08-05T07:51:47Z</time>
      </trkpt>
      <trkpt lat="45.32808" lon="1.95401">
        <ele>598</ele>
        <time>2022-08-05T07:51:49Z</time>
      </trkpt>
      <trkpt lat="45.32802" lon="1.95399">
        <ele>598.6</ele>
        <time>2022-08-05T07:51:51Z</time>
      </trkpt>
      <trkpt lat="45.32797" lon="1.95396">
        <ele>599.3</ele>
        <time>2022-08-05T07:51:53Z</time>
      </trkpt>
      <trkpt lat="45.32792" lon="1.95393">
        <ele>600</ele>
        <time>2022-08-05T07:51:55Z</time>
      </trkpt>
      <trkpt lat="45.32787" lon="1.95389">
        <ele>600.8</ele>
        <time>2022-08-05T07:51:57Z</time>
      </trkpt>
      <trkpt lat="45.32783" lon="1.95384">
        <ele>601.7</ele>
        <time>2022-08-05T07:51:59Z</time>
      </trkpt>
      <trkpt lat="45.32778" lon="1.95381">
        <ele>602.5</ele>
        <time>2022-08-05T07:52:01Z</time>
      </trkpt>
      <trkpt lat="45.32773" lon="1.95377">
        <ele>603.3</ele>
        <time>2022-08-05T07:52:03Z</time>
      </trkpt>
      <trkpt lat="45.32768" lon="1.95374">
        <ele>604.1</ele>
        <time>2022-08-05T07:52:05Z</time>
      </trkpt>
      <trkpt lat="45.32762" lon="1.95372">
        <ele>604.7</ele>
        <time>2022-08-05T07:52:07Z</time>
      </trkpt>
      <trkpt lat="45.32757" lon="1.95372">
        <ele>605</ele>
        <time>2022-08-05T07:52:09Z</time>
      </trkpt>
      <trkpt lat="45.32751" lon="1.95374">
        <ele>605.1</ele>
        <time>2022-08-05T07:52:11Z</time>
      </trkpt>
      <trkpt lat="45.32746" lon="1.95378">
        <ele>604.9</ele>
        <time>2022-08-05T07:52:13Z</time>
      </trkpt>
      <trkpt lat="45.32742" lon="1.95383">
        <ele>604.2</ele>
        <time>2022-08-05T07:52:15Z</time>
      </trkpt>
      <trkpt lat="45.32737" lon="1.95389">
        <ele>603.6</ele>
        <time>2022-08-05T07:52:17Z</time>
      </trkpt>
      <trkpt lat="45.32733" lon="1.95395">
        <ele>602.9</ele>
        <time>2022-08-05T07:52:19Z</time>
      </trkpt>
      <trkpt lat="45.32728" lon="1.95402">
        <ele>602.2</ele>
        <time>2022-08-05T07:52:21Z</time>
      </trkpt>
      <trkpt lat="45.32722" lon="1.95407">
        <ele>601.6</ele>
        <time>2022-08-05T07:52:23Z</time>
      </trkpt>
      <trkpt lat="45.32716" lon="1.95412">
        <ele>601.2</ele>
        <time>2022-08-05T07:52:25Z</time>
      </trkpt>
      <trkpt lat="45.32709" lon="1.95416">
        <ele>601</ele>
        <time>2022-08-05T07:52:27Z</time>
      </trkpt>
      <trkpt lat="45.32701" lon="1.95418">
        <ele>601.3</ele>
        <time>2022-08-05T07:52:29Z</time>
      </trkpt>
      <trkpt lat="45.32694" lon="1.95419">
        <ele>601.8</ele>
        <time>2022-08-05T07:52:31Z</time>
      </trkpt>
      <trkpt lat="45.32687" lon="1.95418">
        <ele>602.4</ele>
        <time>2022-08-05T07:52:33Z</time>
      </trkpt>
      <trkpt lat="45.3268" lon="1.95419">
        <ele>602.8</ele>
        <time>2022-08-05T07:52:35Z</time>
      </trkpt>
      <trkpt lat="45.32672" lon="1.95419">
        <ele>603.4</ele>
        <time>2022-08-05T07:52:37Z</time>
      </trkpt>
      <trkpt lat="45.32664" lon="1.95419">
        <ele>603.9</ele>
        <time>2022-08-05T07:52:39Z</time>
      </trkpt>
      <trkpt lat="45.32656" lon="1.95419">
        <ele>604.4</ele>
        <time>2022-08-05T07:52:41Z</time>
      </trkpt>
      <trkpt lat="45.32649" lon="1.95419">
        <ele>605</ele>
        <time>2022-08-05T07:52:43Z</time>
      </trkpt>
      <trkpt lat="45.32641" lon="1.9542">
        <ele>605.4</ele>
        <time>2022-08-05T07:52:45Z</time>
      </trkpt>
      <trkpt lat="45.32634" lon="1.95423">
        <ele>605.5</ele>
        <time>2022-08-05T07:52:47Z</time>
      </trkpt>
      <trkpt lat="45.32626" lon="1.95426">
        <ele>605.6</ele>
        <time>2022-08-05T07:52:49Z</time>
      </trkpt>
      <trkpt lat="45.32619" lon="1.95432">
        <ele>605.1</ele>
        <time>2022-08-05T07:52:51Z</time>
      </trkpt>
      <trkpt lat="45.32612" lon="1.9544">
        <ele>604.4</ele>
        <time>2022-08-05T07:52:53Z</time>
      </trkpt>
      <trkpt lat="45.32606" lon="1.95446">
        <ele>604.1</ele>
        <time>2022-08-05T07:52:55Z</time>
      </trkpt>
      <trkpt lat="45.32599" lon="1.95453">
        <ele>603.4</ele>
        <time>2022-08-05T07:52:57Z</time>
      </trkpt>
      <trkpt lat="45.32591" lon="1.95457">
        <ele>603.3</ele>
        <time>2022-08-05T07:52:59Z</time>
      </trkpt>
      <trkpt lat="45.32583" lon="1.95458">
        <ele>603.6</ele>
        <time>2022-08-05T07:53:01Z</time>
      </trkpt>
      <trkpt lat="45.32574" lon="1.95458">
        <ele>603.4</ele>
        <time>2022-08-05T07:53:03Z</time>
      </trkpt>
      <trkpt lat="45.32566" lon="1.95458">
        <ele>603.3</ele>
        <time>2022-08-05T07:53:05Z</time>
      </trkpt>
      <trkpt lat="45.32557" lon="1.95457">
        <ele>603.4</ele>
        <time>2022-08-05T07:53:07Z</time>
      </trkpt>
      <trkpt lat="45.32549" lon="1.95457">
        <ele>603.3</ele>
        <time>2022-08-05T07:53:09Z</time>
      </trkpt>
      <trkpt lat="45.32541" lon="1.95455">
        <ele>603.5</ele>
        <time>2022-08-05T07:53:11Z</time>
      </trkpt>
      <trkpt lat="45.32533" lon="1.95454">
        <ele>603.4</ele>
        <time>2022-08-05T07:53:13Z</time>
      </trkpt>
      <trkpt lat="45.32524" lon="1.95453">
        <ele>603.4</ele>
        <time>2022-08-05T07:53:15Z</time>
      </trkpt>
      <trkpt lat="45.32516" lon="1.95451">
        <ele>603.4</ele>
        <time>2022-08-05T07:53:17Z</time>
      </trkpt>
      <trkpt lat="45.32509" lon="1.95449">
        <ele>603.5</ele>
        <time>2022-08-05T07:53:19Z</time>
      </trkpt>
      <trkpt lat="45.325" lon="1.95447">
        <ele>603.5</ele>
        <time>2022-08-05T07:53:21Z</time>
      </trkpt>
      <trkpt lat="45.32493" lon="1.95442">
        <ele>603.9</ele>
        <time>2022-08-05T07:53:23Z</time>
      </trkpt>
      <trkpt lat="45.32485" lon="1.95439">
        <ele>604.1</ele>
        <time>2022-08-05T07:53:25Z</time>
      </trkpt>
      <trkpt lat="45.32477" lon="1.95436">
        <ele>604.3</ele>
        <time>2022-08-05T07:53:27Z</time>
      </trkpt>
      <trkpt lat="45.32468" lon="1.95435">
        <ele>604.5</ele>
        <time>2022-08-05T07:53:29Z</time>
      </trkpt>
      <trkpt lat="45.3246" lon="1.95434">
        <ele>604.5</ele>
        <time>2022-08-05T07:53:31Z</time>
      </trkpt>
      <trkpt lat="45.32452" lon="1.95435">
        <ele>604.5</ele>
        <time>2022-08-05T07:53:33Z</time>
      </trkpt>
      <trkpt lat="45.32443" lon="1.95436">
        <ele>604.3</ele>
        <time>2022-08-05T07:53:35Z</time>
      </trkpt>
      <trkpt lat="45.32436" lon="1.9544">
        <ele>604</ele>
        <time>2022-08-05T07:53:37Z</time>
      </trkpt>
      <trkpt lat="45.32428" lon="1.95446">
        <ele>603.5</ele>
        <time>2022-08-05T07:53:39Z</time>
      </trkpt>
      <trkpt lat="45.3242" lon="1.95451">
        <ele>603.1</ele>
        <time>2022-08-05T07:53:41Z</time>
      </trkpt>
      <trkpt lat="45.32412" lon="1.95456">
        <ele>602.7</ele>
        <time>2022-08-05T07:53:43Z</time>
      </trkpt>
      <trkpt lat="45.32404" lon="1.95458">
        <ele>602.3</ele>
        <time>2022-08-05T07:53:45Z</time>
      </trkpt>
      <trkpt lat="45.32395" lon="1.95459">
        <ele>602.2</ele>
        <time>2022-08-05T07:53:47Z</time>
      </trkpt>
      <trkpt lat="45.32386" lon="1.95457">
        <ele>602.3</ele>
        <time>2022-08-05T07:53:49Z</time>
      </trkpt>
      <trkpt lat="45.32376" lon="1.95454">
        <ele>602.5</ele>
        <time>2022-08-05T07:53:51Z</time>
      </trkpt>
      <trkpt lat="45.32367" lon="1.95449">
        <ele>602.9</ele>
        <time>2022-08-05T07:53:53Z</time>
      </trkpt>
      <trkpt lat="45.32357" lon="1.95445">
        <ele>603.4</ele>
        <time>2022-08-05T07:53:55Z</time>
      </trkpt>
      <trkpt lat="45.32347" lon="1.95441">
        <ele>603.8</ele>
        <time>2022-08-05T07:53:57Z</time>
      </trkpt>
      <trkpt lat="45.32336" lon="1.95438">
        <ele>604.2</ele>
        <time>2022-08-05T07:53:59Z</time>
      </trkpt>
      <trkpt lat="45.32325" lon="1.95438">
        <ele>604.4</ele>
        <time>2022-08-05T07:54:01Z</time>
      </trkpt>
      <trkpt lat="45.32315" lon="1.95441">
        <ele>604.2</ele>
        <time>2022-08-05T07:54:03Z</time>
      </trkpt>
      <trkpt lat="45.32305" lon="1.95445">
        <ele>603.8</ele>
        <time>2022-08-05T07:54:05Z</time>
      </trkpt>
      <trkpt lat="45.32295" lon="1.95448">
        <ele>603.6</ele>
        <time>2022-08-05T07:54:07Z</time>
      </trkpt>
      <trkpt lat="45.32285" lon="1.95452">
        <ele>603.3</ele>
        <time>2022-08-05T07:54:09Z</time>
      </trkpt>
      <trkpt lat="45.32275" lon="1.95455">
        <ele>603</ele>
        <time>2022-08-05T07:54:11Z</time>
      </trkpt>
      <trkpt lat="45.32266" lon="1.95457">
        <ele>602.9</ele>
        <time>2022-08-05T07:54:13Z</time>
      </trkpt>
      <trkpt lat="45.32256" lon="1.95456">
        <ele>603.2</ele>
        <time>2022-08-05T07:54:15Z</time>
      </trkpt>
      <trkpt lat="45.32247" lon="1.95453">
        <ele>603.8</ele>
        <time>2022-08-05T07:54:17Z</time>
      </trkpt>
      <trkpt lat="45.32238" lon="1.95449">
        <ele>604.3</ele>
        <time>2022-08-05T07:54:19Z</time>
      </trkpt>
      <trkpt lat="45.32228" lon="1.95446">
        <ele>604.7</ele>
        <time>2022-08-05T07:54:21Z</time>
      </trkpt>
      <trkpt lat="45.32218" lon="1.95443">
        <ele>605</ele>
        <time>2022-08-05T07:54:23Z</time>
      </trkpt>
      <trkpt lat="45.32209" lon="1.95441">
        <ele>605.3</ele>
        <time>2022-08-05T07:54:25Z</time>
      </trkpt>
      <trkpt lat="45.32199" lon="1.9544">
        <ele>605.4</ele>
        <time>2022-08-05T07:54:27Z</time>
      </trkpt>
      <trkpt lat="45.32188" lon="1.9544">
        <ele>605.4</ele>
        <time>2022-08-05T07:54:29Z</time>
      </trkpt>
      <trkpt lat="45.32178" lon="1.9544">
        <ele>605.4</ele>
        <time>2022-08-05T07:54:31Z</time>
      </trkpt>
      <trkpt lat="45.32168" lon="1.95441">
        <ele>605.2</ele>
        <time>2022-08-05T07:54:33Z</time>
      </trkpt>
      <trkpt lat="45.32157" lon="1.95441">
        <ele>605.3</ele>
        <time>2022-08-05T07:54:35Z</time>
      </trkpt>
      <trkpt lat="45.32147" lon="1.95442">
        <ele>605.3</ele>
        <time>2022-08-05T07:54:37Z</time>
      </trkpt>
      <trkpt lat="45.32137" lon="1.95444">
        <ele>605.2</ele>
        <time>2022-08-05T07:54:39Z</time>
      </trkpt>
      <trkpt lat="45.32128" lon="1.95442">
        <ele>605.7</ele>
        <time>2022-08-05T07:54:41Z</time>
      </trkpt>
      <trkpt lat="45.32119" lon="1.95439">
        <ele>606.3</ele>
        <time>2022-08-05T07:54:43Z</time>
      </trkpt>
      <trkpt lat="45.3211" lon="1.95437">
        <ele>606.6</ele>
        <time>2022-08-05T07:54:45Z</time>
      </trkpt>
      <trkpt lat="45.32102" lon="1.95435">
        <ele>607.1</ele>
        <time>2022-08-05T07:54:47Z</time>
      </trkpt>
      <trkpt lat="45.32093" lon="1.95434">
        <ele>607.4</ele>
        <time>2022-08-05T07:54:49Z</time>
      </trkpt>
      <trkpt lat="45.32084" lon="1.95433">
        <ele>607.6</ele>
        <time>2022-08-05T07:54:51Z</time>
      </trkpt>
      <trkpt lat="45.32076" lon="1.95435">
        <ele>607.1</ele>
        <time>2022-08-05T07:54:53Z</time>
      </trkpt>
      <trkpt lat="45.32068" lon="1.95437">
        <ele>606.7</ele>
        <time>2022-08-05T07:54:55Z</time>
      </trkpt>
      <trkpt lat="45.32059" lon="1.95438">
        <ele>606.1</ele>
        <time>2022-08-05T07:54:57Z</time>
      </trkpt>
      <trkpt lat="45.3205" lon="1.9544">
        <ele>605.7</ele>
        <time>2022-08-05T07:54:59Z</time>
      </trkpt>
      <trkpt lat="45.32041" lon="1.9544">
        <ele>605.4</ele>
        <time>2022-08-05T07:55:01Z</time>
      </trkpt>
      <trkpt lat="45.32032" lon="1.9544">
        <ele>605</ele>
        <time>2022-08-05T07:55:03Z</time>
      </trkpt>
      <trkpt lat="45.32024" lon="1.9544">
        <ele>604.9</ele>
        <time>2022-08-05T07:55:05Z</time>
      </trkpt>
      <trkpt lat="45.32015" lon="1.95438">
        <ele>604.8</ele>
        <time>2022-08-05T07:55:07Z</time>
      </trkpt>
      <trkpt lat="45.32006" lon="1.95436">
        <ele>605</ele>
        <time>2022-08-05T07:55:09Z</time>
      </trkpt>
      <trkpt lat="45.31997" lon="1.95434">
        <ele>604.9</ele>
        <time>2022-08-05T07:55:11Z</time>
      </trkpt>
      <trkpt lat="45.31987" lon="1.95433">
        <ele>604.6</ele>
        <time>2022-08-05T07:55:13Z</time>
      </trkpt>
      <trkpt lat="45.31976" lon="1.95432">
        <ele>604.2</ele>
        <time>2022-08-05T07:55:15Z</time>
      </trkpt>
      <trkpt lat="45.31966" lon="1.95432">
        <ele>603.7</ele>
        <time>2022-08-05T07:55:17Z</time>
      </trkpt>
      <trkpt lat="45.31956" lon="1.95432">
        <ele>603.1</ele>
        <time>2022-08-05T07:55:19Z</time>
      </trkpt>
      <trkpt lat="45.31945" lon="1.95433">
        <ele>602.4</ele>
        <time>2022-08-05T07:55:21Z</time>
      </trkpt>
      <trkpt lat="45.31934" lon="1.95434">
        <ele>601.8</ele>
        <time>2022-08-05T07:55:23Z</time>
      </trkpt>
      <trkpt lat="45.31924" lon="1.95435">
        <ele>601.1</ele>
        <time>2022-08-05T07:55:25Z</time>
      </trkpt>
      <trkpt lat="45.31913" lon="1.95434">
        <ele>600.7</ele>
        <time>2022-08-05T07:55:27Z</time>
      </trkpt>
      <trkpt lat="45.31902" lon="1.9543">
        <ele>600.5</ele>
        <time>2022-08-05T07:55:29Z</time>
      </trkpt>
      <trkpt lat="45.31892" lon="1.95426">
        <ele>600.5</ele>
        <time>2022-08-05T07:55:31Z</time>
      </trkpt>
      <trkpt lat="45.31883" lon="1.95419">
        <ele>600.7</ele>
        <time>2022-08-05T07:55:33Z</time>
      </trkpt>
      <trkpt lat="45.31873" lon="1.95413">
        <ele>600.8</ele>
        <time>2022-08-05T07:55:35Z</time>
      </trkpt>
      <trkpt lat="45.31863" lon="1.95409">
        <ele>600.7</ele>
        <time>2022-08-05T07:55:37Z</time>
      </trkpt>
      <trkpt lat="45.31853" lon="1.95405">
        <ele>600.5</ele>
        <time>2022-08-05T07:55:39Z</time>
      </trkpt>
      <trkpt lat="45.31843" lon="1.95403">
        <ele>600.3</ele>
        <time>2022-08-05T07:55:41Z</time>
      </trkpt>
      <trkpt lat="45.31833" lon="1.95402">
        <ele>599.7</ele>
        <time>2022-08-05T07:55:43Z</time>
      </trkpt>
      <trkpt lat="45.31825" lon="1.95401">
        <ele>598.9</ele>
        <time>2022-08-05T07:55:45Z</time>
      </trkpt>
      <trkpt lat="45.31815" lon="1.95399">
        <ele>597.9</ele>
        <time>2022-08-05T07:55:47Z</time>
      </trkpt>
      <trkpt lat="45.31805" lon="1.95397">
        <ele>597</ele>
        <time>2022-08-05T07:55:49Z</time>
      </trkpt>
      <trkpt lat="45.31796" lon="1.95395">
        <ele>596.3</ele>
        <time>2022-08-05T07:55:51Z</time>
      </trkpt>
      <trkpt lat="45.31786" lon="1.95392">
        <ele>595.5</ele>
        <time>2022-08-05T07:55:53Z</time>
      </trkpt>
      <trkpt lat="45.31776" lon="1.95388">
        <ele>594.6</ele>
        <time>2022-08-05T07:55:55Z</time>
      </trkpt>
      <trkpt lat="45.31766" lon="1.95379">
        <ele>594</ele>
        <time>2022-08-05T07:55:57Z</time>
      </trkpt>
      <trkpt lat="45.31756" lon="1.9537">
        <ele>593.3</ele>
        <time>2022-08-05T07:55:59Z</time>
      </trkpt>
      <trkpt lat="45.31747" lon="1.95356">
        <ele>592.9</ele>
        <time>2022-08-05T07:56:01Z</time>
      </trkpt>
      <trkpt lat="45.31738" lon="1.95344">
        <ele>592.6</ele>
        <time>2022-08-05T07:56:03Z</time>
      </trkpt>
      <trkpt lat="45.31731" lon="1.95331">
        <ele>592.5</ele>
        <time>2022-08-05T07:56:05Z</time>
      </trkpt>
      <trkpt lat="45.31724" lon="1.95316">
        <ele>593.2</ele>
        <time>2022-08-05T07:56:07Z</time>
      </trkpt>
      <trkpt lat="45.3172" lon="1.95302">
        <ele>594.2</ele>
        <time>2022-08-05T07:56:09Z</time>
      </trkpt>
      <trkpt lat="45.31712" lon="1.95291">
        <ele>594.2</ele>
        <time>2022-08-05T07:56:11Z</time>
      </trkpt>
      <trkpt lat="45.31703" lon="1.95286">
        <ele>593.2</ele>
        <time>2022-08-05T07:56:13Z</time>
      </trkpt>
      <trkpt lat="45.31697" lon="1.95281">
        <ele>592.8</ele>
        <time>2022-08-05T07:56:15Z</time>
      </trkpt>
      <trkpt lat="45.3169" lon="1.95279">
        <ele>591.9</ele>
        <time>2022-08-05T07:56:17Z</time>
      </trkpt>
      <trkpt lat="45.31683" lon="1.95276">
        <ele>591.2</ele>
        <time>2022-08-05T07:56:19Z</time>
      </trkpt>
      <trkpt lat="45.31676" lon="1.95274">
        <ele>590.2</ele>
        <time>2022-08-05T07:56:21Z</time>
      </trkpt>
      <trkpt lat="45.31668" lon="1.95274">
        <ele>588.9</ele>
        <time>2022-08-05T07:56:23Z</time>
      </trkpt>
      <trkpt lat="45.31657" lon="1.95273">
        <ele>587.8</ele>
        <time>2022-08-05T07:56:25Z</time>
      </trkpt>
      <trkpt lat="45.31644" lon="1.95272">
        <ele>586.4</ele>
        <time>2022-08-05T07:56:27Z</time>
      </trkpt>
      <trkpt lat="45.31629" lon="1.95274">
        <ele>584.6</ele>
        <time>2022-08-05T07:56:29Z</time>
      </trkpt>
      <trkpt lat="45.31613" lon="1.95278">
        <ele>582.7</ele>
        <time>2022-08-05T07:56:31Z</time>
      </trkpt>
      <trkpt lat="45.31598" lon="1.95283">
        <ele>580.9</ele>
        <time>2022-08-05T07:56:33Z</time>
      </trkpt>
      <trkpt lat="45.31586" lon="1.9529">
        <ele>579.4</ele>
        <time>2022-08-05T07:56:35Z</time>
      </trkpt>
      <trkpt lat="45.3157" lon="1.95279">
        <ele>579.3</ele>
        <time>2022-08-05T07:56:37Z</time>
      </trkpt>
      <trkpt lat="45.31556" lon="1.95263">
        <ele>579.8</ele>
        <time>2022-08-05T07:56:39Z</time>
      </trkpt>
      <trkpt lat="45.31541" lon="1.95248">
        <ele>580</ele>
        <time>2022-08-05T07:56:41Z</time>
      </trkpt>
      <trkpt lat="45.31528" lon="1.95231">
        <ele>579.7</ele>
        <time>2022-08-05T07:56:43Z</time>
      </trkpt>
      <trkpt lat="45.31513" lon="1.95213">
        <ele>579.1</ele>
        <time>2022-08-05T07:56:45Z</time>
      </trkpt>
      <trkpt lat="45.31498" lon="1.95196">
        <ele>578.4</ele>
        <time>2022-08-05T07:56:47Z</time>
      </trkpt>
      <trkpt lat="45.31482" lon="1.9518">
        <ele>578.8</ele>
        <time>2022-08-05T07:56:49Z</time>
      </trkpt>
      <trkpt lat="45.31466" lon="1.95173">
        <ele>579.6</ele>
        <time>2022-08-05T07:56:51Z</time>
      </trkpt>
      <trkpt lat="45.3145" lon="1.95179">
        <ele>580</ele>
        <time>2022-08-05T07:56:53Z</time>
      </trkpt>
      <trkpt lat="45.31438" lon="1.95192">
        <ele>579.9</ele>
        <time>2022-08-05T07:56:55Z</time>
      </trkpt>
      <trkpt lat="45.31426" lon="1.95203">
        <ele>579.7</ele>
        <time>2022-08-05T07:56:57Z</time>
      </trkpt>
      <trkpt lat="45.31413" lon="1.95212">
        <ele>579.2</ele>
        <time>2022-08-05T07:56:59Z</time>
      </trkpt>
      <trkpt lat="45.314" lon="1.95221">
        <ele>578.3</ele>
        <time>2022-08-05T07:57:01Z</time>
      </trkpt>
      <trkpt lat="45.31388" lon="1.95227">
        <ele>577.6</ele>
        <time>2022-08-05T07:57:03Z</time>
      </trkpt>
      <trkpt lat="45.31376" lon="1.95232">
        <ele>577</ele>
        <time>2022-08-05T07:57:05Z</time>
      </trkpt>
      <trkpt lat="45.31364" lon="1.95237">
        <ele>576.4</ele>
        <time>2022-08-05T07:57:07Z</time>
      </trkpt>
      <trkpt lat="45.31353" lon="1.95244">
        <ele>575.8</ele>
        <time>2022-08-05T07:57:09Z</time>
      </trkpt>
      <trkpt lat="45.31342" lon="1.95249">
        <ele>575.2</ele>
        <time>2022-08-05T07:57:11Z</time>
      </trkpt>
      <trkpt lat="45.3133" lon="1.95256">
        <ele>574.6</ele>
        <time>2022-08-05T07:57:13Z</time>
      </trkpt>
      <trkpt lat="45.31318" lon="1.95262">
        <ele>573.6</ele>
        <time>2022-08-05T07:57:15Z</time>
      </trkpt>
      <trkpt lat="45.31303" lon="1.95271">
        <ele>572.5</ele>
        <time>2022-08-05T07:57:17Z</time>
      </trkpt>
      <trkpt lat="45.31287" lon="1.95279">
        <ele>571.6</ele>
        <time>2022-08-05T07:57:19Z</time>
      </trkpt>
      <trkpt lat="45.31276" lon="1.95282">
        <ele>571</ele>
        <time>2022-08-05T07:57:21Z</time>
      </trkpt>
      <trkpt lat="45.31261" lon="1.95285">
        <ele>570.3</ele>
        <time>2022-08-05T07:57:23Z</time>
      </trkpt>
      <trkpt lat="45.31246" lon="1.95288">
        <ele>570</ele>
        <time>2022-08-05T07:57:25Z</time>
      </trkpt>
      <trkpt lat="45.31234" lon="1.9529">
        <ele>570.2</ele>
        <time>2022-08-05T07:57:27Z</time>
      </trkpt>
      <trkpt lat="45.31221" lon="1.95291">
        <ele>570.3</ele>
        <time>2022-08-05T07:57:29Z</time>
      </trkpt>
      <trkpt lat="45.3121" lon="1.95293">
        <ele>570.5</ele>
        <time>2022-08-05T07:57:31Z</time>
      </trkpt>
      <trkpt lat="45.312" lon="1.95295">
        <ele>570.7</ele>
        <time>2022-08-05T07:57:33Z</time>
      </trkpt>
      <trkpt lat="45.31194" lon="1.95298">
        <ele>570.8</ele>
        <time>2022-08-05T07:57:35Z</time>
      </trkpt>
      <trkpt lat="45.3119" lon="1.953">
        <ele>570.9</ele>
        <time>2022-08-05T07:57:37Z</time>
      </trkpt>
      <trkpt lat="45.31172" lon="1.95297">
        <ele>571.1</ele>
        <time>2022-08-05T07:57:39Z</time>
      </trkpt>
      <trkpt lat="45.31164" lon="1.95299">
        <ele>571.2</ele>
        <time>2022-08-05T07:57:41Z</time>
      </trkpt>
      <trkpt lat="45.31157" lon="1.953">
        <ele>571.2</ele>
        <time>2022-08-05T07:57:43Z</time>
      </trkpt>
      <trkpt lat="45.3115" lon="1.953">
        <ele>571.2</ele>
        <time>2022-08-05T07:57:45Z</time>
      </trkpt>
      <trkpt lat="45.31144" lon="1.95302">
        <ele>571.2</ele>
        <time>2022-08-05T07:57:47Z</time>
      </trkpt>
      <trkpt lat="45.31137" lon="1.95304">
        <ele>571.2</ele>
        <time>2022-08-05T07:57:49Z</time>
      </trkpt>
      <trkpt lat="45.31131" lon="1.95306">
        <ele>571.2</ele>
        <time>2022-08-05T07:57:51Z</time>
      </trkpt>
      <trkpt lat="45.31124" lon="1.9531">
        <ele>571.2</ele>
        <time>2022-08-05T07:57:53Z</time>
      </trkpt>
      <trkpt lat="45.31118" lon="1.95316">
        <ele>571.2</ele>
        <time>2022-08-05T07:57:55Z</time>
      </trkpt>
      <trkpt lat="45.31112" lon="1.95325">
        <ele>571.3</ele>
        <time>2022-08-05T07:57:57Z</time>
      </trkpt>
      <trkpt lat="45.31106" lon="1.95333">
        <ele>571.3</ele>
        <time>2022-08-05T07:57:59Z</time>
      </trkpt>
      <trkpt lat="45.31101" lon="1.95342">
        <ele>571.1</ele>
        <time>2022-08-05T07:58:01Z</time>
      </trkpt>
      <trkpt lat="45.31096" lon="1.95353">
        <ele>571</ele>
        <time>2022-08-05T07:58:03Z</time>
      </trkpt>
      <trkpt lat="45.3109" lon="1.95363">
        <ele>570.9</ele>
        <time>2022-08-05T07:58:05Z</time>
      </trkpt>
      <trkpt lat="45.31086" lon="1.95372">
        <ele>571</ele>
        <time>2022-08-05T07:58:07Z</time>
      </trkpt>
      <trkpt lat="45.31082" lon="1.95382">
        <ele>571</ele>
        <time>2022-08-05T07:58:09Z</time>
      </trkpt>
      <trkpt lat="45.31079" lon="1.95392">
        <ele>570.9</ele>
        <time>2022-08-05T07:58:11Z</time>
      </trkpt>
      <trkpt lat="45.31074" lon="1.95402">
        <ele>570.8</ele>
        <time>2022-08-05T07:58:13Z</time>
      </trkpt>
      <trkpt lat="45.31072" lon="1.95412">
        <ele>570.7</ele>
        <time>2022-08-05T07:58:15Z</time>
      </trkpt>
      <trkpt lat="45.31069" lon="1.95421">
        <ele>570.8</ele>
        <time>2022-08-05T07:58:17Z</time>
      </trkpt>
      <trkpt lat="45.31066" lon="1.9543">
        <ele>570.9</ele>
        <time>2022-08-05T07:58:19Z</time>
      </trkpt>
      <trkpt lat="45.31064" lon="1.95438">
        <ele>571.1</ele>
        <time>2022-08-05T07:58:21Z</time>
      </trkpt>
      <trkpt lat="45.3106" lon="1.95447">
        <ele>571.2</ele>
        <time>2022-08-05T07:58:23Z</time>
      </trkpt>
      <trkpt lat="45.31058" lon="1.95455">
        <ele>571.3</ele>
        <time>2022-08-05T07:58:25Z</time>
      </trkpt>
      <trkpt lat="45.31056" lon="1.95463">
        <ele>571.5</ele>
        <time>2022-08-05T07:58:27Z</time>
      </trkpt>
      <trkpt lat="45.31052" lon="1.95471">
        <ele>571.6</ele>
        <time>2022-08-05T07:58:29Z</time>
      </trkpt>
      <trkpt lat="45.31049" lon="1.95478">
        <ele>571.7</ele>
        <time>2022-08-05T07:58:31Z</time>
      </trkpt>
      <trkpt lat="45.31045" lon="1.95485">
        <ele>571.7</ele>
        <time>2022-08-05T07:58:33Z</time>
      </trkpt>
      <trkpt lat="45.31041" lon="1.95491">
        <ele>571.8</ele>
        <time>2022-08-05T07:58:35Z</time>
      </trkpt>
      <trkpt lat="45.31034" lon="1.95496">
        <ele>571.7</ele>
        <time>2022-08-05T07:58:37Z</time>
      </trkpt>
      <trkpt lat="45.31028" lon="1.95501">
        <ele>571.7</ele>
        <time>2022-08-05T07:58:39Z</time>
      </trkpt>
      <trkpt lat="45.31021" lon="1.95503">
        <ele>571.5</ele>
        <time>2022-08-05T07:58:41Z</time>
      </trkpt>
      <trkpt lat="45.31016" lon="1.95508">
        <ele>571.5</ele>
        <time>2022-08-05T07:58:43Z</time>
      </trkpt>
      <trkpt lat="45.31009" lon="1.95508">
        <ele>571.4</ele>
        <time>2022-08-05T07:58:45Z</time>
      </trkpt>
      <trkpt lat="45.31003" lon="1.95511">
        <ele>571.3</ele>
        <time>2022-08-05T07:58:47Z</time>
      </trkpt>
      <trkpt lat="45.30997" lon="1.95515">
        <ele>571.3</ele>
        <time>2022-08-05T07:58:49Z</time>
      </trkpt>
      <trkpt lat="45.3099" lon="1.95519">
        <ele>571.4</ele>
        <time>2022-08-05T07:58:51Z</time>
      </trkpt>
      <trkpt lat="45.30983" lon="1.95523">
        <ele>571.5</ele>
        <time>2022-08-05T07:58:53Z</time>
      </trkpt>
      <trkpt lat="45.30977" lon="1.95527">
        <ele>571.6</ele>
        <time>2022-08-05T07:58:55Z</time>
      </trkpt>
      <trkpt lat="45.30971" lon="1.95529">
        <ele>571.7</ele>
        <time>2022-08-05T07:58:57Z</time>
      </trkpt>
      <trkpt lat="45.30964" lon="1.95533">
        <ele>572</ele>
        <time>2022-08-05T07:58:59Z</time>
      </trkpt>
      <trkpt lat="45.30959" lon="1.95537">
        <ele>572.2</ele>
        <time>2022-08-05T07:59:01Z</time>
      </trkpt>
      <trkpt lat="45.30952" lon="1.9554">
        <ele>572.4</ele>
        <time>2022-08-05T07:59:03Z</time>
      </trkpt>
      <trkpt lat="45.30946" lon="1.95541">
        <ele>572.6</ele>
        <time>2022-08-05T07:59:05Z</time>
      </trkpt>
      <trkpt lat="45.3094" lon="1.95546">
        <ele>573.1</ele>
        <time>2022-08-05T07:59:07Z</time>
      </trkpt>
      <trkpt lat="45.30934" lon="1.95548">
        <ele>573.3</ele>
        <time>2022-08-05T07:59:09Z</time>
      </trkpt>
      <trkpt lat="45.30927" lon="1.95551">
        <ele>573.7</ele>
        <time>2022-08-05T07:59:11Z</time>
      </trkpt>
      <trkpt lat="45.30921" lon="1.95552">
        <ele>573.9</ele>
        <time>2022-08-05T07:59:13Z</time>
      </trkpt>
      <trkpt lat="45.30913" lon="1.95551">
        <ele>573.8</ele>
        <time>2022-08-05T07:59:15Z</time>
      </trkpt>
      <trkpt lat="45.30906" lon="1.9555">
        <ele>573.6</ele>
        <time>2022-08-05T07:59:17Z</time>
      </trkpt>
      <trkpt lat="45.30899" lon="1.95548">
        <ele>573.2</ele>
        <time>2022-08-05T07:59:19Z</time>
      </trkpt>
      <trkpt lat="45.3089" lon="1.95547">
        <ele>572.9</ele>
        <time>2022-08-05T07:59:21Z</time>
      </trkpt>
      <trkpt lat="45.30882" lon="1.95547">
        <ele>572.8</ele>
        <time>2022-08-05T07:59:23Z</time>
      </trkpt>
      <trkpt lat="45.30873" lon="1.95545">
        <ele>572.4</ele>
        <time>2022-08-05T07:59:25Z</time>
      </trkpt>
      <trkpt lat="45.30864" lon="1.95543">
        <ele>572.1</ele>
        <time>2022-08-05T07:59:27Z</time>
      </trkpt>
      <trkpt lat="45.30854" lon="1.95543">
        <ele>571.9</ele>
        <time>2022-08-05T07:59:29Z</time>
      </trkpt>
      <trkpt lat="45.30844" lon="1.95545">
        <ele>571.8</ele>
        <time>2022-08-05T07:59:31Z</time>
      </trkpt>
      <trkpt lat="45.30833" lon="1.95549">
        <ele>571.7</ele>
        <time>2022-08-05T07:59:33Z</time>
      </trkpt>
      <trkpt lat="45.30823" lon="1.95554">
        <ele>571.9</ele>
        <time>2022-08-05T07:59:35Z</time>
      </trkpt>
      <trkpt lat="45.30812" lon="1.9556">
        <ele>572</ele>
        <time>2022-08-05T07:59:37Z</time>
      </trkpt>
      <trkpt lat="45.30803" lon="1.95569">
        <ele>572.2</ele>
        <time>2022-08-05T07:59:39Z</time>
      </trkpt>
      <trkpt lat="45.30792" lon="1.95577">
        <ele>572.3</ele>
        <time>2022-08-05T07:59:41Z</time>
      </trkpt>
      <trkpt lat="45.30782" lon="1.95585">
        <ele>572.4</ele>
        <time>2022-08-05T07:59:43Z</time>
      </trkpt>
      <trkpt lat="45.30771" lon="1.9559">
        <ele>572.1</ele>
        <time>2022-08-05T07:59:45Z</time>
      </trkpt>
      <trkpt lat="45.30759" lon="1.95595">
        <ele>571.9</ele>
        <time>2022-08-05T07:59:47Z</time>
      </trkpt>
      <trkpt lat="45.30749" lon="1.95596">
        <ele>571.7</ele>
        <time>2022-08-05T07:59:49Z</time>
      </trkpt>
      <trkpt lat="45.3074" lon="1.956">
        <ele>571.4</ele>
        <time>2022-08-05T07:59:51Z</time>
      </trkpt>
      <trkpt lat="45.3073" lon="1.95601">
        <ele>571.2</ele>
        <time>2022-08-05T07:59:53Z</time>
      </trkpt>
      <trkpt lat="45.30722" lon="1.95605">
        <ele>571.1</ele>
        <time>2022-08-05T07:59:55Z</time>
      </trkpt>
      <trkpt lat="45.30713" lon="1.9561">
        <ele>570.9</ele>
        <time>2022-08-05T07:59:57Z</time>
      </trkpt>
      <trkpt lat="45.30706" lon="1.95615">
        <ele>570.8</ele>
        <time>2022-08-05T07:59:59Z</time>
      </trkpt>
      <trkpt lat="45.307" lon="1.95624">
        <ele>570.7</ele>
        <time>2022-08-05T08:00:01Z</time>
      </trkpt>
      <trkpt lat="45.30697" lon="1.95634">
        <ele>570.7</ele>
        <time>2022-08-05T08:00:03Z</time>
      </trkpt>
      <trkpt lat="45.30696" lon="1.95645">
        <ele>570.7</ele>
        <time>2022-08-05T08:00:05Z</time>
      </trkpt>
      <trkpt lat="45.30695" lon="1.95656">
        <ele>570.7</ele>
        <time>2022-08-05T08:00:07Z</time>
      </trkpt>
      <trkpt lat="45.30695" lon="1.95668">
        <ele>570.6</ele>
        <time>2022-08-05T08:00:09Z</time>
      </trkpt>
      <trkpt lat="45.30694" lon="1.9568">
        <ele>570.5</ele>
        <time>2022-08-05T08:00:11Z</time>
      </trkpt>
      <trkpt lat="45.30694" lon="1.95691">
        <ele>570.3</ele>
        <time>2022-08-05T08:00:13Z</time>
      </trkpt>
      <trkpt lat="45.30694" lon="1.95702">
        <ele>570.1</ele>
        <time>2022-08-05T08:00:15Z</time>
      </trkpt>
      <trkpt lat="45.30694" lon="1.95712">
        <ele>570</ele>
        <time>2022-08-05T08:00:17Z</time>
      </trkpt>
      <trkpt lat="45.30693" lon="1.95722">
        <ele>569.8</ele>
        <time>2022-08-05T08:00:19Z</time>
      </trkpt>
      <trkpt lat="45.30693" lon="1.9573">
        <ele>569.7</ele>
        <time>2022-08-05T08:00:21Z</time>
      </trkpt>
      <trkpt lat="45.30693" lon="1.95737">
        <ele>569.6</ele>
        <time>2022-08-05T08:00:23Z</time>
      </trkpt>
      <trkpt lat="45.3069" lon="1.95741">
        <ele>569.6</ele>
        <time>2022-08-05T08:00:25Z</time>
      </trkpt>
      <trkpt lat="45.30688" lon="1.95744">
        <ele>569.6</ele>
        <time>2022-08-05T08:00:27Z</time>
      </trkpt>
      <trkpt lat="45.30688" lon="1.95744">
        <ele>569.6</ele>
        <time>2022-08-05T08:00:29Z</time>
      </trkpt>
      <trkpt lat="45.30688" lon="1.95743">
        <ele>569.6</ele>
        <time>2022-08-05T08:00:31Z</time>
      </trkpt>
      <trkpt lat="45.3069" lon="1.95743">
        <ele>569.6</ele>
        <time>2022-08-05T08:00:33Z</time>
      </trkpt>
      <trkpt lat="45.30689" lon="1.95742">
        <ele>569.6</ele>
        <time>2022-08-05T08:00:35Z</time>
      </trkpt>
      <trkpt lat="45.30697" lon="1.9576">
        <ele>569</ele>
        <time>2022-08-05T08:05:31Z</time>
      </trkpt>
      <trkpt lat="45.30698" lon="1.95769">
        <ele>568.7</ele>
        <time>2022-08-05T08:05:33Z</time>
      </trkpt>
      <trkpt lat="45.30697" lon="1.95777">
        <ele>568.5</ele>
        <time>2022-08-05T08:05:35Z</time>
      </trkpt>
      <trkpt lat="45.30695" lon="1.95787">
        <ele>568.3</ele>
        <time>2022-08-05T08:05:37Z</time>
      </trkpt>
      <trkpt lat="45.30691" lon="1.958">
        <ele>568.1</ele>
        <time>2022-08-05T08:05:39Z</time>
      </trkpt>
      <trkpt lat="45.30685" lon="1.95812">
        <ele>567.9</ele>
        <time>2022-08-05T08:05:41Z</time>
      </trkpt>
      <trkpt lat="45.3068" lon="1.95826">
        <ele>567.7</ele>
        <time>2022-08-05T08:05:43Z</time>
      </trkpt>
      <trkpt lat="45.30674" lon="1.95839">
        <ele>567.6</ele>
        <time>2022-08-05T08:05:45Z</time>
      </trkpt>
      <trkpt lat="45.30667" lon="1.95851">
        <ele>567.6</ele>
        <time>2022-08-05T08:05:47Z</time>
      </trkpt>
      <trkpt lat="45.30658" lon="1.95863">
        <ele>566.8</ele>
        <time>2022-08-05T08:05:49Z</time>
      </trkpt>
      <trkpt lat="45.30647" lon="1.95867">
        <ele>566.2</ele>
        <time>2022-08-05T08:05:51Z</time>
      </trkpt>
      <trkpt lat="45.30635" lon="1.95867">
        <ele>565.6</ele>
        <time>2022-08-05T08:05:53Z</time>
      </trkpt>
      <trkpt lat="45.30624" lon="1.95869">
        <ele>565.1</ele>
        <time>2022-08-05T08:05:55Z</time>
      </trkpt>
      <trkpt lat="45.30612" lon="1.95871">
        <ele>564.6</ele>
        <time>2022-08-05T08:05:57Z</time>
      </trkpt>
      <trkpt lat="45.306" lon="1.95872">
        <ele>564.1</ele>
        <time>2022-08-05T08:05:59Z</time>
      </trkpt>
      <trkpt lat="45.30588" lon="1.95876">
        <ele>563.7</ele>
        <time>2022-08-05T08:06:01Z</time>
      </trkpt>
      <trkpt lat="45.30575" lon="1.95877">
        <ele>563.3</ele>
        <time>2022-08-05T08:06:03Z</time>
      </trkpt>
      <trkpt lat="45.30564" lon="1.95878">
        <ele>563.1</ele>
        <time>2022-08-05T08:06:05Z</time>
      </trkpt>
      <trkpt lat="45.30554" lon="1.95879">
        <ele>562.8</ele>
        <time>2022-08-05T08:06:07Z</time>
      </trkpt>
      <trkpt lat="45.30544" lon="1.9588">
        <ele>562.6</ele>
        <time>2022-08-05T08:06:09Z</time>
      </trkpt>
      <trkpt lat="45.30535" lon="1.95881">
        <ele>562.4</ele>
        <time>2022-08-05T08:06:11Z</time>
      </trkpt>
      <trkpt lat="45.30524" lon="1.95883">
        <ele>562.1</ele>
        <time>2022-08-05T08:06:13Z</time>
      </trkpt>
      <trkpt lat="45.30512" lon="1.95884">
        <ele>561.8</ele>
        <time>2022-08-05T08:06:15Z</time>
      </trkpt>
      <trkpt lat="45.30499" lon="1.95888">
        <ele>561.6</ele>
        <time>2022-08-05T08:06:17Z</time>
      </trkpt>
      <trkpt lat="45.30487" lon="1.95895">
        <ele>561.9</ele>
        <time>2022-08-05T08:06:19Z</time>
      </trkpt>
      <trkpt lat="45.30475" lon="1.9591">
        <ele>562.6</ele>
        <time>2022-08-05T08:06:21Z</time>
      </trkpt>
      <trkpt lat="45.30464" lon="1.95929">
        <ele>562.7</ele>
        <time>2022-08-05T08:06:23Z</time>
      </trkpt>
      <trkpt lat="45.30452" lon="1.95948">
        <ele>562.6</ele>
        <time>2022-08-05T08:06:25Z</time>
      </trkpt>
      <trkpt lat="45.30441" lon="1.95966">
        <ele>562.7</ele>
        <time>2022-08-05T08:06:27Z</time>
      </trkpt>
      <trkpt lat="45.3043" lon="1.95983">
        <ele>563.1</ele>
        <time>2022-08-05T08:06:29Z</time>
      </trkpt>
      <trkpt lat="45.30422" lon="1.95998">
        <ele>563.7</ele>
        <time>2022-08-05T08:06:31Z</time>
      </trkpt>
      <trkpt lat="45.30414" lon="1.96013">
        <ele>563.6</ele>
        <time>2022-08-05T08:06:33Z</time>
      </trkpt>
      <trkpt lat="45.30405" lon="1.96024">
        <ele>563.5</ele>
        <time>2022-08-05T08:06:35Z</time>
      </trkpt>
      <trkpt lat="45.30397" lon="1.96038">
        <ele>563.1</ele>
        <time>2022-08-05T08:06:37Z</time>
      </trkpt>
      <trkpt lat="45.3039" lon="1.96048">
        <ele>562.9</ele>
        <time>2022-08-05T08:06:39Z</time>
      </trkpt>
      <trkpt lat="45.30383" lon="1.9606">
        <ele>562.6</ele>
        <time>2022-08-05T08:06:41Z</time>
      </trkpt>
      <trkpt lat="45.30378" lon="1.96069">
        <ele>562.3</ele>
        <time>2022-08-05T08:06:43Z</time>
      </trkpt>
      <trkpt lat="45.30373" lon="1.96076">
        <ele>562</ele>
        <time>2022-08-05T08:06:45Z</time>
      </trkpt>
      <trkpt lat="45.30368" lon="1.96084">
        <ele>561.7</ele>
        <time>2022-08-05T08:06:47Z</time>
      </trkpt>
      <trkpt lat="45.30364" lon="1.96091">
        <ele>561.4</ele>
        <time>2022-08-05T08:06:49Z</time>
      </trkpt>
      <trkpt lat="45.3036" lon="1.96099">
        <ele>561.2</ele>
        <time>2022-08-05T08:06:51Z</time>
      </trkpt>
      <trkpt lat="45.30356" lon="1.96107">
        <ele>560.9</ele>
        <time>2022-08-05T08:06:53Z</time>
      </trkpt>
      <trkpt lat="45.30346" lon="1.96116">
        <ele>560.6</ele>
        <time>2022-08-05T08:06:55Z</time>
      </trkpt>
      <trkpt lat="45.30338" lon="1.96126">
        <ele>560.3</ele>
        <time>2022-08-05T08:06:57Z</time>
      </trkpt>
      <trkpt lat="45.30331" lon="1.96135">
        <ele>559.9</ele>
        <time>2022-08-05T08:06:59Z</time>
      </trkpt>
      <trkpt lat="45.30322" lon="1.9614">
        <ele>559.8</ele>
        <time>2022-08-05T08:07:01Z</time>
      </trkpt>
      <trkpt lat="45.30312" lon="1.96143">
        <ele>559.9</ele>
        <time>2022-08-05T08:07:03Z</time>
      </trkpt>
      <trkpt lat="45.30302" lon="1.9614">
        <ele>560.2</ele>
        <time>2022-08-05T08:07:05Z</time>
      </trkpt>
      <trkpt lat="45.30293" lon="1.96134">
        <ele>560.8</ele>
        <time>2022-08-05T08:07:07Z</time>
      </trkpt>
      <trkpt lat="45.30283" lon="1.96126">
        <ele>561.3</ele>
        <time>2022-08-05T08:07:09Z</time>
      </trkpt>
      <trkpt lat="45.30274" lon="1.96119">
        <ele>561.8</ele>
        <time>2022-08-05T08:07:11Z</time>
      </trkpt>
      <trkpt lat="45.30265" lon="1.96111">
        <ele>562.4</ele>
        <time>2022-08-05T08:07:13Z</time>
      </trkpt>
      <trkpt lat="45.30256" lon="1.96104">
        <ele>562.9</ele>
        <time>2022-08-05T08:07:15Z</time>
      </trkpt>
      <trkpt lat="45.30247" lon="1.96099">
        <ele>563.6</ele>
        <time>2022-08-05T08:07:17Z</time>
      </trkpt>
      <trkpt lat="45.30237" lon="1.96096">
        <ele>564.6</ele>
        <time>2022-08-05T08:07:19Z</time>
      </trkpt>
      <trkpt lat="45.30232" lon="1.96095">
        <ele>565.2</ele>
        <time>2022-08-05T08:07:21Z</time>
      </trkpt>
      <trkpt lat="45.30231" lon="1.96099">
        <ele>565.1</ele>
        <time>2022-08-05T08:07:23Z</time>
      </trkpt>
      <trkpt lat="45.30235" lon="1.96109">
        <ele>564.2</ele>
        <time>2022-08-05T08:07:25Z</time>
      </trkpt>
      <trkpt lat="45.30242" lon="1.96116">
        <ele>563.2</ele>
        <time>2022-08-05T08:07:27Z</time>
      </trkpt>
      <trkpt lat="45.30248" lon="1.96124">
        <ele>562.2</ele>
        <time>2022-08-05T08:07:29Z</time>
      </trkpt>
      <trkpt lat="45.30247" lon="1.9613">
        <ele>562</ele>
        <time>2022-08-05T08:07:31Z</time>
      </trkpt>
      <trkpt lat="45.30243" lon="1.96121">
        <ele>562.9</ele>
        <time>2022-08-05T08:07:33Z</time>
      </trkpt>
      <trkpt lat="45.30232" lon="1.96109">
        <ele>564.5</ele>
        <time>2022-08-05T08:07:35Z</time>
      </trkpt>
      <trkpt lat="45.3023" lon="1.96108">
        <ele>564.7</ele>
        <time>2022-08-05T08:07:37Z</time>
      </trkpt>
      <trkpt lat="45.30228" lon="1.96107">
        <ele>564.9</ele>
        <time>2022-08-05T08:07:39Z</time>
      </trkpt>
      <trkpt lat="45.30225" lon="1.96109">
        <ele>565.2</ele>
        <time>2022-08-05T08:07:41Z</time>
      </trkpt>
      <trkpt lat="45.30222" lon="1.96111">
        <ele>565.4</ele>
        <time>2022-08-05T08:07:43Z</time>
      </trkpt>
      <trkpt lat="45.30207" lon="1.96139">
        <ele>565.5</ele>
        <time>2022-08-05T08:07:53Z</time>
      </trkpt>
      <trkpt lat="45.30204" lon="1.96147">
        <ele>565.3</ele>
        <time>2022-08-05T08:07:55Z</time>
      </trkpt>
      <trkpt lat="45.30199" lon="1.96154">
        <ele>565.5</ele>
        <time>2022-08-05T08:07:57Z</time>
      </trkpt>
      <trkpt lat="45.30195" lon="1.96159">
        <ele>565.7</ele>
        <time>2022-08-05T08:07:59Z</time>
      </trkpt>
      <trkpt lat="45.3019" lon="1.96165">
        <ele>565.9</ele>
        <time>2022-08-05T08:08:01Z</time>
      </trkpt>
      <trkpt lat="45.30184" lon="1.96168">
        <ele>566.3</ele>
        <time>2022-08-05T08:08:03Z</time>
      </trkpt>
      <trkpt lat="45.3018" lon="1.9617">
        <ele>566.7</ele>
        <time>2022-08-05T08:08:05Z</time>
      </trkpt>
      <trkpt lat="45.30176" lon="1.96172">
        <ele>567</ele>
        <time>2022-08-05T08:08:07Z</time>
      </trkpt>
      <trkpt lat="45.30173" lon="1.96174">
        <ele>567.3</ele>
        <time>2022-08-05T08:08:09Z</time>
      </trkpt>
      <trkpt lat="45.30169" lon="1.96177">
        <ele>567.6</ele>
        <time>2022-08-05T08:08:11Z</time>
      </trkpt>
      <trkpt lat="45.30166" lon="1.96178">
        <ele>567.9</ele>
        <time>2022-08-05T08:08:13Z</time>
      </trkpt>
      <trkpt lat="45.30162" lon="1.9618">
        <ele>568.1</ele>
        <time>2022-08-05T08:08:15Z</time>
      </trkpt>
      <trkpt lat="45.30159" lon="1.96182">
        <ele>568.3</ele>
        <time>2022-08-05T08:08:17Z</time>
      </trkpt>
      <trkpt lat="45.30154" lon="1.96182">
        <ele>568.5</ele>
        <time>2022-08-05T08:08:19Z</time>
      </trkpt>
      <trkpt lat="45.30151" lon="1.96184">
        <ele>568.7</ele>
        <time>2022-08-05T08:08:21Z</time>
      </trkpt>
      <trkpt lat="45.30146" lon="1.96185">
        <ele>569</ele>
        <time>2022-08-05T08:08:23Z</time>
      </trkpt>
      <trkpt lat="45.30143" lon="1.96187">
        <ele>569.1</ele>
        <time>2022-08-05T08:08:25Z</time>
      </trkpt>
      <trkpt lat="45.3014" lon="1.9619">
        <ele>569.2</ele>
        <time>2022-08-05T08:08:27Z</time>
      </trkpt>
      <trkpt lat="45.30137" lon="1.96193">
        <ele>569.3</ele>
        <time>2022-08-05T08:08:29Z</time>
      </trkpt>
      <trkpt lat="45.30133" lon="1.96195">
        <ele>569.5</ele>
        <time>2022-08-05T08:08:31Z</time>
      </trkpt>
      <trkpt lat="45.3013" lon="1.96198">
        <ele>569.7</ele>
        <time>2022-08-05T08:08:33Z</time>
      </trkpt>
      <trkpt lat="45.30127" lon="1.96202">
        <ele>569.8</ele>
        <time>2022-08-05T08:08:35Z</time>
      </trkpt>
      <trkpt lat="45.30122" lon="1.96205">
        <ele>570</ele>
        <time>2022-08-05T08:08:37Z</time>
      </trkpt>
      <trkpt lat="45.30118" lon="1.96209">
        <ele>570.1</ele>
        <time>2022-08-05T08:08:39Z</time>
      </trkpt>
      <trkpt lat="45.30115" lon="1.96211">
        <ele>570.2</ele>
        <time>2022-08-05T08:08:41Z</time>
      </trkpt>
      <trkpt lat="45.30112" lon="1.96212">
        <ele>570.4</ele>
        <time>2022-08-05T08:08:43Z</time>
      </trkpt>
      <trkpt lat="45.30108" lon="1.96213">
        <ele>570.5</ele>
        <time>2022-08-05T08:08:45Z</time>
      </trkpt>
      <trkpt lat="45.30106" lon="1.96215">
        <ele>570.6</ele>
        <time>2022-08-05T08:08:47Z</time>
      </trkpt>
      <trkpt lat="45.30103" lon="1.96215">
        <ele>570.8</ele>
        <time>2022-08-05T08:08:49Z</time>
      </trkpt>
      <trkpt lat="45.30099" lon="1.96216">
        <ele>571</ele>
        <time>2022-08-05T08:08:51Z</time>
      </trkpt>
      <trkpt lat="45.30095" lon="1.96217">
        <ele>571.2</ele>
        <time>2022-08-05T08:08:53Z</time>
      </trkpt>
      <trkpt lat="45.30077" lon="1.96213">
        <ele>571.9</ele>
        <time>2022-08-05T08:09:03Z</time>
      </trkpt>
      <trkpt lat="45.30073" lon="1.96214">
        <ele>571.9</ele>
        <time>2022-08-05T08:09:05Z</time>
      </trkpt>
      <trkpt lat="45.30069" lon="1.96213">
        <ele>572</ele>
        <time>2022-08-05T08:09:07Z</time>
      </trkpt>
      <trkpt lat="45.30064" lon="1.96213">
        <ele>572</ele>
        <time>2022-08-05T08:09:09Z</time>
      </trkpt>
      <trkpt lat="45.3006" lon="1.96213">
        <ele>572</ele>
        <time>2022-08-05T08:09:11Z</time>
      </trkpt>
      <trkpt lat="45.30055" lon="1.96212">
        <ele>572.1</ele>
        <time>2022-08-05T08:09:13Z</time>
      </trkpt>
      <trkpt lat="45.3005" lon="1.96213">
        <ele>572.1</ele>
        <time>2022-08-05T08:09:15Z</time>
      </trkpt>
      <trkpt lat="45.30045" lon="1.96211">
        <ele>572.2</ele>
        <time>2022-08-05T08:09:17Z</time>
      </trkpt>
      <trkpt lat="45.30039" lon="1.9621">
        <ele>572.2</ele>
        <time>2022-08-05T08:09:19Z</time>
      </trkpt>
      <trkpt lat="45.30033" lon="1.96208">
        <ele>572.3</ele>
        <time>2022-08-05T08:09:21Z</time>
      </trkpt>
      <trkpt lat="45.30027" lon="1.96207">
        <ele>572.4</ele>
        <time>2022-08-05T08:09:23Z</time>
      </trkpt>
      <trkpt lat="45.30021" lon="1.96206">
        <ele>572.4</ele>
        <time>2022-08-05T08:09:25Z</time>
      </trkpt>
      <trkpt lat="45.30014" lon="1.96204">
        <ele>572.5</ele>
        <time>2022-08-05T08:09:27Z</time>
      </trkpt>
      <trkpt lat="45.30009" lon="1.96201">
        <ele>572.5</ele>
        <time>2022-08-05T08:09:29Z</time>
      </trkpt>
      <trkpt lat="45.30003" lon="1.962">
        <ele>572.6</ele>
        <time>2022-08-05T08:09:31Z</time>
      </trkpt>
      <trkpt lat="45.29998" lon="1.96198">
        <ele>572.7</ele>
        <time>2022-08-05T08:09:33Z</time>
      </trkpt>
      <trkpt lat="45.29994" lon="1.96196">
        <ele>572.8</ele>
        <time>2022-08-05T08:09:35Z</time>
      </trkpt>
      <trkpt lat="45.29989" lon="1.96194">
        <ele>573</ele>
        <time>2022-08-05T08:09:37Z</time>
      </trkpt>
      <trkpt lat="45.29984" lon="1.96192">
        <ele>573.1</ele>
        <time>2022-08-05T08:09:39Z</time>
      </trkpt>
      <trkpt lat="45.2998" lon="1.96189">
        <ele>573.3</ele>
        <time>2022-08-05T08:09:41Z</time>
      </trkpt>
      <trkpt lat="45.29978" lon="1.96183">
        <ele>573.4</ele>
        <time>2022-08-05T08:09:43Z</time>
      </trkpt>
      <trkpt lat="45.29978" lon="1.96178">
        <ele>573.4</ele>
        <time>2022-08-05T08:09:45Z</time>
      </trkpt>
      <trkpt lat="45.29978" lon="1.96176">
        <ele>573.4</ele>
        <time>2022-08-05T08:09:47Z</time>
      </trkpt>
      <trkpt lat="45.29978" lon="1.96175">
        <ele>573.4</ele>
        <time>2022-08-05T08:09:49Z</time>
      </trkpt>
      <trkpt lat="45.29978" lon="1.96175">
        <ele>573.5</ele>
        <time>2022-08-05T08:09:51Z</time>
      </trkpt>
      <trkpt lat="45.29978" lon="1.96175">
        <ele>573.5</ele>
        <time>2022-08-05T08:09:53Z</time>
      </trkpt>
      <trkpt lat="45.29973" lon="1.96142">
        <ele>574.1</ele>
        <time>2022-08-05T08:10:51Z</time>
      </trkpt>
      <trkpt lat="45.29973" lon="1.96135">
        <ele>574.3</ele>
        <time>2022-08-05T08:10:53Z</time>
      </trkpt>
      <trkpt lat="45.29973" lon="1.96127">
        <ele>574.4</ele>
        <time>2022-08-05T08:10:55Z</time>
      </trkpt>
      <trkpt lat="45.29973" lon="1.9612">
        <ele>574.6</ele>
        <time>2022-08-05T08:10:57Z</time>
      </trkpt>
      <trkpt lat="45.29973" lon="1.96113">
        <ele>574.7</ele>
        <time>2022-08-05T08:10:59Z</time>
      </trkpt>
      <trkpt lat="45.29972" lon="1.96106">
        <ele>574.9</ele>
        <time>2022-08-05T08:11:01Z</time>
      </trkpt>
      <trkpt lat="45.29972" lon="1.96097">
        <ele>575.1</ele>
        <time>2022-08-05T08:11:03Z</time>
      </trkpt>
      <trkpt lat="45.29972" lon="1.96089">
        <ele>575.2</ele>
        <time>2022-08-05T08:11:05Z</time>
      </trkpt>
      <trkpt lat="45.29973" lon="1.96082">
        <ele>575.4</ele>
        <time>2022-08-05T08:11:07Z</time>
      </trkpt>
      <trkpt lat="45.29972" lon="1.96075">
        <ele>575.7</ele>
        <time>2022-08-05T08:11:09Z</time>
      </trkpt>
      <trkpt lat="45.29972" lon="1.96068">
        <ele>576</ele>
        <time>2022-08-05T08:11:11Z</time>
      </trkpt>
      <trkpt lat="45.29972" lon="1.9606">
        <ele>576.3</ele>
        <time>2022-08-05T08:11:13Z</time>
      </trkpt>
      <trkpt lat="45.29971" lon="1.96055">
        <ele>576.6</ele>
        <time>2022-08-05T08:11:15Z</time>
      </trkpt>
      <trkpt lat="45.29971" lon="1.96045">
        <ele>576.9</ele>
        <time>2022-08-05T08:11:17Z</time>
      </trkpt>
      <trkpt lat="45.29971" lon="1.96037">
        <ele>577.2</ele>
        <time>2022-08-05T08:11:19Z</time>
      </trkpt>
      <trkpt lat="45.29971" lon="1.9603">
        <ele>577.5</ele>
        <time>2022-08-05T08:11:21Z</time>
      </trkpt>
      <trkpt lat="45.29972" lon="1.96023">
        <ele>577.8</ele>
        <time>2022-08-05T08:11:23Z</time>
      </trkpt>
      <trkpt lat="45.29972" lon="1.96016">
        <ele>578</ele>
        <time>2022-08-05T08:11:25Z</time>
      </trkpt>
      <trkpt lat="45.29973" lon="1.96009">
        <ele>578.3</ele>
        <time>2022-08-05T08:11:27Z</time>
      </trkpt>
      <trkpt lat="45.29974" lon="1.96003">
        <ele>578.4</ele>
        <time>2022-08-05T08:11:29Z</time>
      </trkpt>
      <trkpt lat="45.29975" lon="1.95998">
        <ele>578.5</ele>
        <time>2022-08-05T08:11:31Z</time>
      </trkpt>
      <trkpt lat="45.29976" lon="1.95992">
        <ele>578.5</ele>
        <time>2022-08-05T08:11:33Z</time>
      </trkpt>
      <trkpt lat="45.29976" lon="1.95987">
        <ele>578.6</ele>
        <time>2022-08-05T08:11:35Z</time>
      </trkpt>
      <trkpt lat="45.29977" lon="1.95981">
        <ele>578.6</ele>
        <time>2022-08-05T08:11:37Z</time>
      </trkpt>
      <trkpt lat="45.29978" lon="1.95975">
        <ele>578.6</ele>
        <time>2022-08-05T08:11:39Z</time>
      </trkpt>
      <trkpt lat="45.29978" lon="1.9597">
        <ele>578.7</ele>
        <time>2022-08-05T08:11:41Z</time>
      </trkpt>
      <trkpt lat="45.29978" lon="1.95965">
        <ele>578.7</ele>
        <time>2022-08-05T08:11:43Z</time>
      </trkpt>
      <trkpt lat="45.29978" lon="1.95961">
        <ele>578.8</ele>
        <time>2022-08-05T08:11:45Z</time>
      </trkpt>
      <trkpt lat="45.29977" lon="1.95956">
        <ele>578.8</ele>
        <time>2022-08-05T08:11:47Z</time>
      </trkpt>
      <trkpt lat="45.29976" lon="1.95952">
        <ele>578.9</ele>
        <time>2022-08-05T08:11:49Z</time>
      </trkpt>
      <trkpt lat="45.29974" lon="1.95947">
        <ele>579</ele>
        <time>2022-08-05T08:11:51Z</time>
      </trkpt>
      <trkpt lat="45.29973" lon="1.95944">
        <ele>579.1</ele>
        <time>2022-08-05T08:11:53Z</time>
      </trkpt>
      <trkpt lat="45.2997" lon="1.9594">
        <ele>579.2</ele>
        <time>2022-08-05T08:11:55Z</time>
      </trkpt>
      <trkpt lat="45.29967" lon="1.95937">
        <ele>579.3</ele>
        <time>2022-08-05T08:11:57Z</time>
      </trkpt>
      <trkpt lat="45.29963" lon="1.95934">
        <ele>579.4</ele>
        <time>2022-08-05T08:11:59Z</time>
      </trkpt>
      <trkpt lat="45.29959" lon="1.95933">
        <ele>579.5</ele>
        <time>2022-08-05T08:12:01Z</time>
      </trkpt>
      <trkpt lat="45.29954" lon="1.95931">
        <ele>579.6</ele>
        <time>2022-08-05T08:12:03Z</time>
      </trkpt>
      <trkpt lat="45.2995" lon="1.95928">
        <ele>579.7</ele>
        <time>2022-08-05T08:12:05Z</time>
      </trkpt>
      <trkpt lat="45.29945" lon="1.95927">
        <ele>579.7</ele>
        <time>2022-08-05T08:12:07Z</time>
      </trkpt>
      <trkpt lat="45.29941" lon="1.95925">
        <ele>579.8</ele>
        <time>2022-08-05T08:12:09Z</time>
      </trkpt>
      <trkpt lat="45.29936" lon="1.95923">
        <ele>579.8</ele>
        <time>2022-08-05T08:12:11Z</time>
      </trkpt>
      <trkpt lat="45.29931" lon="1.9592">
        <ele>579.9</ele>
        <time>2022-08-05T08:12:13Z</time>
      </trkpt>
      <trkpt lat="45.29925" lon="1.95918">
        <ele>579.9</ele>
        <time>2022-08-05T08:12:15Z</time>
      </trkpt>
      <trkpt lat="45.2992" lon="1.95915">
        <ele>579.9</ele>
        <time>2022-08-05T08:12:17Z</time>
      </trkpt>
      <trkpt lat="45.29914" lon="1.95911">
        <ele>579.9</ele>
        <time>2022-08-05T08:12:19Z</time>
      </trkpt>
      <trkpt lat="45.29909" lon="1.95908">
        <ele>580</ele>
        <time>2022-08-05T08:12:21Z</time>
      </trkpt>
      <trkpt lat="45.29903" lon="1.95905">
        <ele>580</ele>
        <time>2022-08-05T08:12:23Z</time>
      </trkpt>
      <trkpt lat="45.29897" lon="1.95901">
        <ele>580</ele>
        <time>2022-08-05T08:12:25Z</time>
      </trkpt>
      <trkpt lat="45.29891" lon="1.95897">
        <ele>580</ele>
        <time>2022-08-05T08:12:27Z</time>
      </trkpt>
      <trkpt lat="45.29885" lon="1.95892">
        <ele>580</ele>
        <time>2022-08-05T08:12:29Z</time>
      </trkpt>
      <trkpt lat="45.29878" lon="1.95888">
        <ele>579.9</ele>
        <time>2022-08-05T08:12:31Z</time>
      </trkpt>
      <trkpt lat="45.2987" lon="1.95883">
        <ele>579.8</ele>
        <time>2022-08-05T08:12:33Z</time>
      </trkpt>
      <trkpt lat="45.29863" lon="1.95876">
        <ele>579.7</ele>
        <time>2022-08-05T08:12:35Z</time>
      </trkpt>
      <trkpt lat="45.29855" lon="1.95867">
        <ele>579.4</ele>
        <time>2022-08-05T08:12:37Z</time>
      </trkpt>
      <trkpt lat="45.29848" lon="1.95859">
        <ele>579.1</ele>
        <time>2022-08-05T08:12:39Z</time>
      </trkpt>
      <trkpt lat="45.29843" lon="1.95849">
        <ele>578.7</ele>
        <time>2022-08-05T08:12:41Z</time>
      </trkpt>
      <trkpt lat="45.29837" lon="1.9584">
        <ele>578.3</ele>
        <time>2022-08-05T08:12:43Z</time>
      </trkpt>
      <trkpt lat="45.29832" lon="1.95832">
        <ele>578.2</ele>
        <time>2022-08-05T08:12:45Z</time>
      </trkpt>
      <trkpt lat="45.29827" lon="1.95825">
        <ele>578.5</ele>
        <time>2022-08-05T08:12:47Z</time>
      </trkpt>
      <trkpt lat="45.29823" lon="1.95819">
        <ele>578.8</ele>
        <time>2022-08-05T08:12:49Z</time>
      </trkpt>
      <trkpt lat="45.29819" lon="1.95812">
        <ele>579.1</ele>
        <time>2022-08-05T08:12:51Z</time>
      </trkpt>
      <trkpt lat="45.29814" lon="1.95807">
        <ele>579.5</ele>
        <time>2022-08-05T08:12:53Z</time>
      </trkpt>
      <trkpt lat="45.29809" lon="1.95802">
        <ele>579.9</ele>
        <time>2022-08-05T08:12:55Z</time>
      </trkpt>
      <trkpt lat="45.29804" lon="1.95797">
        <ele>580.3</ele>
        <time>2022-08-05T08:12:57Z</time>
      </trkpt>
      <trkpt lat="45.29798" lon="1.95792">
        <ele>580.7</ele>
        <time>2022-08-05T08:12:59Z</time>
      </trkpt>
      <trkpt lat="45.29794" lon="1.95788">
        <ele>580.9</ele>
        <time>2022-08-05T08:13:01Z</time>
      </trkpt>
      <trkpt lat="45.29789" lon="1.95784">
        <ele>581.2</ele>
        <time>2022-08-05T08:13:03Z</time>
      </trkpt>
      <trkpt lat="45.29784" lon="1.95775">
        <ele>581.4</ele>
        <time>2022-08-05T08:13:05Z</time>
      </trkpt>
      <trkpt lat="45.29779" lon="1.95763">
        <ele>581.4</ele>
        <time>2022-08-05T08:13:07Z</time>
      </trkpt>
      <trkpt lat="45.29777" lon="1.95764">
        <ele>581.6</ele>
        <time>2022-08-05T08:13:09Z</time>
      </trkpt>
      <trkpt lat="45.29774" lon="1.95759">
        <ele>581.6</ele>
        <time>2022-08-05T08:13:11Z</time>
      </trkpt>
      <trkpt lat="45.29771" lon="1.95752">
        <ele>581.5</ele>
        <time>2022-08-05T08:13:13Z</time>
      </trkpt>
      <trkpt lat="45.29769" lon="1.95746">
        <ele>581.8</ele>
        <time>2022-08-05T08:13:15Z</time>
      </trkpt>
      <trkpt lat="45.29767" lon="1.95739">
        <ele>582.3</ele>
        <time>2022-08-05T08:13:17Z</time>
      </trkpt>
      <trkpt lat="45.29764" lon="1.95733">
        <ele>582.8</ele>
        <time>2022-08-05T08:13:19Z</time>
      </trkpt>
      <trkpt lat="45.29761" lon="1.95729">
        <ele>583.3</ele>
        <time>2022-08-05T08:13:21Z</time>
      </trkpt>
      <trkpt lat="45.29759" lon="1.95723">
        <ele>583.8</ele>
        <time>2022-08-05T08:13:23Z</time>
      </trkpt>
      <trkpt lat="45.29758" lon="1.95717">
        <ele>584.3</ele>
        <time>2022-08-05T08:13:25Z</time>
      </trkpt>
      <trkpt lat="45.29757" lon="1.95711">
        <ele>584.7</ele>
        <time>2022-08-05T08:13:27Z</time>
      </trkpt>
      <trkpt lat="45.29756" lon="1.95706">
        <ele>585.1</ele>
        <time>2022-08-05T08:13:29Z</time>
      </trkpt>
      <trkpt lat="45.29754" lon="1.95702">
        <ele>585.5</ele>
        <time>2022-08-05T08:13:31Z</time>
      </trkpt>
      <trkpt lat="45.29752" lon="1.95696">
        <ele>586</ele>
        <time>2022-08-05T08:13:33Z</time>
      </trkpt>
      <trkpt lat="45.29752" lon="1.95692">
        <ele>586.3</ele>
        <time>2022-08-05T08:13:35Z</time>
      </trkpt>
      <trkpt lat="45.29751" lon="1.95686">
        <ele>586.7</ele>
        <time>2022-08-05T08:13:37Z</time>
      </trkpt>
      <trkpt lat="45.2975" lon="1.95681">
        <ele>587.1</ele>
        <time>2022-08-05T08:13:39Z</time>
      </trkpt>
      <trkpt lat="45.29749" lon="1.95676">
        <ele>587.4</ele>
        <time>2022-08-05T08:13:41Z</time>
      </trkpt>
      <trkpt lat="45.29747" lon="1.95671">
        <ele>587.5</ele>
        <time>2022-08-05T08:13:43Z</time>
      </trkpt>
      <trkpt lat="45.29745" lon="1.95666">
        <ele>587.6</ele>
        <time>2022-08-05T08:13:45Z</time>
      </trkpt>
      <trkpt lat="45.29744" lon="1.95659">
        <ele>587.9</ele>
        <time>2022-08-05T08:13:47Z</time>
      </trkpt>
      <trkpt lat="45.29743" lon="1.95654">
        <ele>588</ele>
        <time>2022-08-05T08:13:49Z</time>
      </trkpt>
      <trkpt lat="45.29741" lon="1.9565">
        <ele>588</ele>
        <time>2022-08-05T08:13:51Z</time>
      </trkpt>
      <trkpt lat="45.29739" lon="1.95645">
        <ele>588.1</ele>
        <time>2022-08-05T08:13:53Z</time>
      </trkpt>
      <trkpt lat="45.29738" lon="1.9564">
        <ele>588.2</ele>
        <time>2022-08-05T08:13:55Z</time>
      </trkpt>
      <trkpt lat="45.29737" lon="1.95636">
        <ele>588.3</ele>
        <time>2022-08-05T08:13:57Z</time>
      </trkpt>
      <trkpt lat="45.29736" lon="1.95633">
        <ele>588.3</ele>
        <time>2022-08-05T08:13:59Z</time>
      </trkpt>
      <trkpt lat="45.29734" lon="1.95628">
        <ele>588.4</ele>
        <time>2022-08-05T08:14:01Z</time>
      </trkpt>
      <trkpt lat="45.29732" lon="1.95624">
        <ele>588.5</ele>
        <time>2022-08-05T08:14:03Z</time>
      </trkpt>
      <trkpt lat="45.2973" lon="1.9562">
        <ele>588.4</ele>
        <time>2022-08-05T08:14:05Z</time>
      </trkpt>
      <trkpt lat="45.29728" lon="1.95616">
        <ele>588.4</ele>
        <time>2022-08-05T08:14:07Z</time>
      </trkpt>
      <trkpt lat="45.29725" lon="1.95611">
        <ele>588.4</ele>
        <time>2022-08-05T08:14:09Z</time>
      </trkpt>
      <trkpt lat="45.29724" lon="1.95607">
        <ele>588.4</ele>
        <time>2022-08-05T08:14:11Z</time>
      </trkpt>
      <trkpt lat="45.29721" lon="1.95603">
        <ele>588.4</ele>
        <time>2022-08-05T08:14:13Z</time>
      </trkpt>
      <trkpt lat="45.29719" lon="1.95598">
        <ele>588.4</ele>
        <time>2022-08-05T08:14:15Z</time>
      </trkpt>
      <trkpt lat="45.29717" lon="1.95595">
        <ele>588.3</ele>
        <time>2022-08-05T08:14:17Z</time>
      </trkpt>
      <trkpt lat="45.29715" lon="1.9559">
        <ele>588.3</ele>
        <time>2022-08-05T08:14:19Z</time>
      </trkpt>
      <trkpt lat="45.29712" lon="1.95585">
        <ele>588.3</ele>
        <time>2022-08-05T08:14:21Z</time>
      </trkpt>
      <trkpt lat="45.29709" lon="1.95581">
        <ele>588.1</ele>
        <time>2022-08-05T08:14:23Z</time>
      </trkpt>
      <trkpt lat="45.29707" lon="1.95576">
        <ele>587.8</ele>
        <time>2022-08-05T08:14:25Z</time>
      </trkpt>
      <trkpt lat="45.29703" lon="1.95571">
        <ele>587.4</ele>
        <time>2022-08-05T08:14:27Z</time>
      </trkpt>
      <trkpt lat="45.297" lon="1.95565">
        <ele>587.1</ele>
        <time>2022-08-05T08:14:29Z</time>
      </trkpt>
      <trkpt lat="45.29696" lon="1.95558">
        <ele>586.6</ele>
        <time>2022-08-05T08:14:31Z</time>
      </trkpt>
      <trkpt lat="45.29691" lon="1.9555">
        <ele>586.1</ele>
        <time>2022-08-05T08:14:33Z</time>
      </trkpt>
      <trkpt lat="45.29685" lon="1.95542">
        <ele>585.4</ele>
        <time>2022-08-05T08:14:35Z</time>
      </trkpt>
      <trkpt lat="45.29681" lon="1.95535">
        <ele>584.9</ele>
        <time>2022-08-05T08:14:37Z</time>
      </trkpt>
      <trkpt lat="45.29675" lon="1.95525">
        <ele>584.2</ele>
        <time>2022-08-05T08:14:39Z</time>
      </trkpt>
      <trkpt lat="45.29667" lon="1.95514">
        <ele>583.2</ele>
        <time>2022-08-05T08:14:41Z</time>
      </trkpt>
      <trkpt lat="45.29656" lon="1.95503">
        <ele>583.4</ele>
        <time>2022-08-05T08:14:43Z</time>
      </trkpt>
      <trkpt lat="45.29644" lon="1.95492">
        <ele>584</ele>
        <time>2022-08-05T08:14:45Z</time>
      </trkpt>
      <trkpt lat="45.2963" lon="1.95484">
        <ele>584.5</ele>
        <time>2022-08-05T08:14:47Z</time>
      </trkpt>
      <trkpt lat="45.29615" lon="1.95478">
        <ele>584.8</ele>
        <time>2022-08-05T08:14:49Z</time>
      </trkpt>
      <trkpt lat="45.296" lon="1.95473">
        <ele>585.1</ele>
        <time>2022-08-05T08:14:51Z</time>
      </trkpt>
      <trkpt lat="45.29586" lon="1.95464">
        <ele>585.1</ele>
        <time>2022-08-05T08:14:53Z</time>
      </trkpt>
      <trkpt lat="45.29577" lon="1.9545">
        <ele>585.1</ele>
        <time>2022-08-05T08:14:55Z</time>
      </trkpt>
      <trkpt lat="45.29573" lon="1.95436">
        <ele>584.9</ele>
        <time>2022-08-05T08:14:57Z</time>
      </trkpt>
      <trkpt lat="45.29572" lon="1.95423">
        <ele>584.7</ele>
        <time>2022-08-05T08:14:59Z</time>
      </trkpt>
      <trkpt lat="45.29569" lon="1.95411">
        <ele>584.5</ele>
        <time>2022-08-05T08:15:01Z</time>
      </trkpt>
      <trkpt lat="45.29565" lon="1.95403">
        <ele>584.4</ele>
        <time>2022-08-05T08:15:03Z</time>
      </trkpt>
      <trkpt lat="45.29562" lon="1.95396">
        <ele>584.3</ele>
        <time>2022-08-05T08:15:05Z</time>
      </trkpt>
      <trkpt lat="45.29557" lon="1.95388">
        <ele>584.2</ele>
        <time>2022-08-05T08:15:07Z</time>
      </trkpt>
      <trkpt lat="45.29552" lon="1.95382">
        <ele>584.2</ele>
        <time>2022-08-05T08:15:09Z</time>
      </trkpt>
      <trkpt lat="45.29545" lon="1.95377">
        <ele>584.2</ele>
        <time>2022-08-05T08:15:11Z</time>
      </trkpt>
      <trkpt lat="45.29538" lon="1.95372">
        <ele>584.3</ele>
        <time>2022-08-05T08:15:13Z</time>
      </trkpt>
      <trkpt lat="45.29531" lon="1.95368">
        <ele>584.3</ele>
        <time>2022-08-05T08:15:15Z</time>
      </trkpt>
      <trkpt lat="45.29524" lon="1.95366">
        <ele>584.3</ele>
        <time>2022-08-05T08:15:17Z</time>
      </trkpt>
      <trkpt lat="45.2952" lon="1.95364">
        <ele>584.3</ele>
        <time>2022-08-05T08:15:19Z</time>
      </trkpt>
      <trkpt lat="45.29521" lon="1.95364">
        <ele>584.3</ele>
        <time>2022-08-05T08:15:21Z</time>
      </trkpt>
      <trkpt lat="45.29522" lon="1.95364">
        <ele>584.3</ele>
        <time>2022-08-05T08:15:23Z</time>
      </trkpt>
      <trkpt lat="45.29522" lon="1.95364">
        <ele>584.3</ele>
        <time>2022-08-05T08:15:25Z</time>
      </trkpt>
      <trkpt lat="45.29522" lon="1.95364">
        <ele>584.3</ele>
        <time>2022-08-05T08:15:27Z</time>
      </trkpt>
      <trkpt lat="45.29522" lon="1.95364">
        <ele>584.3</ele>
        <time>2022-08-05T08:15:29Z</time>
      </trkpt>
      <trkpt lat="45.29511" lon="1.95363">
        <ele>584.5</ele>
        <time>2022-08-05T08:16:13Z</time>
      </trkpt>
      <trkpt lat="45.29504" lon="1.95362">
        <ele>584.6</ele>
        <time>2022-08-05T08:16:15Z</time>
      </trkpt>
      <trkpt lat="45.29497" lon="1.95359">
        <ele>584.4</ele>
        <time>2022-08-05T08:16:17Z</time>
      </trkpt>
      <trkpt lat="45.29489" lon="1.95355">
        <ele>583.9</ele>
        <time>2022-08-05T08:16:19Z</time>
      </trkpt>
      <trkpt lat="45.29482" lon="1.9535">
        <ele>583.2</ele>
        <time>2022-08-05T08:16:21Z</time>
      </trkpt>
      <trkpt lat="45.29474" lon="1.95343">
        <ele>582.6</ele>
        <time>2022-08-05T08:16:23Z</time>
      </trkpt>
      <trkpt lat="45.29467" lon="1.95336">
        <ele>581.9</ele>
        <time>2022-08-05T08:16:25Z</time>
      </trkpt>
      <trkpt lat="45.29458" lon="1.95329">
        <ele>581.2</ele>
        <time>2022-08-05T08:16:27Z</time>
      </trkpt>
      <trkpt lat="45.29449" lon="1.95321">
        <ele>580.3</ele>
        <time>2022-08-05T08:16:29Z</time>
      </trkpt>
      <trkpt lat="45.29439" lon="1.95312">
        <ele>579.6</ele>
        <time>2022-08-05T08:16:31Z</time>
      </trkpt>
      <trkpt lat="45.29428" lon="1.95301">
        <ele>578.9</ele>
        <time>2022-08-05T08:16:33Z</time>
      </trkpt>
      <trkpt lat="45.29416" lon="1.95289">
        <ele>578.3</ele>
        <time>2022-08-05T08:16:35Z</time>
      </trkpt>
      <trkpt lat="45.29403" lon="1.95276">
        <ele>577</ele>
        <time>2022-08-05T08:16:37Z</time>
      </trkpt>
      <trkpt lat="45.2939" lon="1.95265">
        <ele>575.8</ele>
        <time>2022-08-05T08:16:39Z</time>
      </trkpt>
      <trkpt lat="45.29377" lon="1.95255">
        <ele>574.7</ele>
        <time>2022-08-05T08:16:41Z</time>
      </trkpt>
      <trkpt lat="45.29365" lon="1.95246">
        <ele>573.7</ele>
        <time>2022-08-05T08:16:43Z</time>
      </trkpt>
      <trkpt lat="45.29354" lon="1.95238">
        <ele>572.6</ele>
        <time>2022-08-05T08:16:45Z</time>
      </trkpt>
      <trkpt lat="45.29344" lon="1.9523">
        <ele>571.7</ele>
        <time>2022-08-05T08:16:47Z</time>
      </trkpt>
      <trkpt lat="45.29335" lon="1.95224">
        <ele>571.1</ele>
        <time>2022-08-05T08:16:49Z</time>
      </trkpt>
      <trkpt lat="45.29326" lon="1.95216">
        <ele>570.6</ele>
        <time>2022-08-05T08:16:51Z</time>
      </trkpt>
      <trkpt lat="45.29319" lon="1.95207">
        <ele>570.3</ele>
        <time>2022-08-05T08:16:53Z</time>
      </trkpt>
      <trkpt lat="45.29315" lon="1.95197">
        <ele>570.1</ele>
        <time>2022-08-05T08:16:55Z</time>
      </trkpt>
      <trkpt lat="45.29314" lon="1.95189">
        <ele>569.9</ele>
        <time>2022-08-05T08:16:57Z</time>
      </trkpt>
      <trkpt lat="45.29313" lon="1.95182">
        <ele>569.8</ele>
        <time>2022-08-05T08:16:59Z</time>
      </trkpt>
      <trkpt lat="45.29311" lon="1.95176">
        <ele>569.7</ele>
        <time>2022-08-05T08:17:01Z</time>
      </trkpt>
      <trkpt lat="45.29311" lon="1.95167">
        <ele>569.5</ele>
        <time>2022-08-05T08:17:03Z</time>
      </trkpt>
      <trkpt lat="45.29311" lon="1.95159">
        <ele>568.9</ele>
        <time>2022-08-05T08:17:05Z</time>
      </trkpt>
      <trkpt lat="45.29311" lon="1.95153">
        <ele>568.5</ele>
        <time>2022-08-05T08:17:07Z</time>
      </trkpt>
      <trkpt lat="45.29314" lon="1.9515">
        <ele>568.1</ele>
        <time>2022-08-05T08:17:09Z</time>
      </trkpt>
      <trkpt lat="45.29319" lon="1.95147">
        <ele>567.8</ele>
        <time>2022-08-05T08:17:11Z</time>
      </trkpt>
      <trkpt lat="45.29324" lon="1.95142">
        <ele>567.2</ele>
        <time>2022-08-05T08:17:13Z</time>
      </trkpt>
      <trkpt lat="45.29329" lon="1.95137">
        <ele>566.6</ele>
        <time>2022-08-05T08:17:15Z</time>
      </trkpt>
      <trkpt lat="45.29334" lon="1.95131">
        <ele>566</ele>
        <time>2022-08-05T08:17:17Z</time>
      </trkpt>
      <trkpt lat="45.29338" lon="1.95124">
        <ele>565.7</ele>
        <time>2022-08-05T08:17:19Z</time>
      </trkpt>
      <trkpt lat="45.29341" lon="1.95117">
        <ele>565.4</ele>
        <time>2022-08-05T08:17:21Z</time>
      </trkpt>
      <trkpt lat="45.29343" lon="1.9511">
        <ele>565.1</ele>
        <time>2022-08-05T08:17:23Z</time>
      </trkpt>
      <trkpt lat="45.29346" lon="1.95104">
        <ele>564.9</ele>
        <time>2022-08-05T08:17:25Z</time>
      </trkpt>
      <trkpt lat="45.2935" lon="1.95099">
        <ele>565</ele>
        <time>2022-08-05T08:17:27Z</time>
      </trkpt>
      <trkpt lat="45.29355" lon="1.95098">
        <ele>565.4</ele>
        <time>2022-08-05T08:17:29Z</time>
      </trkpt>
      <trkpt lat="45.2936" lon="1.95101">
        <ele>566</ele>
        <time>2022-08-05T08:17:31Z</time>
      </trkpt>
      <trkpt lat="45.29365" lon="1.95105">
        <ele>566.6</ele>
        <time>2022-08-05T08:17:33Z</time>
      </trkpt>
      <trkpt lat="45.29368" lon="1.95109">
        <ele>567.1</ele>
        <time>2022-08-05T08:17:35Z</time>
      </trkpt>
      <trkpt lat="45.29372" lon="1.95112">
        <ele>567.5</ele>
        <time>2022-08-05T08:17:37Z</time>
      </trkpt>
      <trkpt lat="45.29377" lon="1.95115">
        <ele>567.9</ele>
        <time>2022-08-05T08:17:39Z</time>
      </trkpt>
      <trkpt lat="45.29381" lon="1.95119">
        <ele>568.2</ele>
        <time>2022-08-05T08:17:41Z</time>
      </trkpt>
      <trkpt lat="45.29385" lon="1.95122">
        <ele>568.6</ele>
        <time>2022-08-05T08:17:43Z</time>
      </trkpt>
      <trkpt lat="45.29389" lon="1.95126">
        <ele>568.9</ele>
        <time>2022-08-05T08:17:45Z</time>
      </trkpt>
      <trkpt lat="45.29394" lon="1.95129">
        <ele>569.1</ele>
        <time>2022-08-05T08:17:47Z</time>
      </trkpt>
      <trkpt lat="45.29395" lon="1.95136">
        <ele>569.1</ele>
        <time>2022-08-05T08:17:49Z</time>
      </trkpt>
      <trkpt lat="45.29392" lon="1.95143">
        <ele>569</ele>
        <time>2022-08-05T08:17:51Z</time>
      </trkpt>
      <trkpt lat="45.2939" lon="1.95148">
        <ele>568.9</ele>
        <time>2022-08-05T08:17:53Z</time>
      </trkpt>
      <trkpt lat="45.29388" lon="1.95154">
        <ele>568.9</ele>
        <time>2022-08-05T08:17:55Z</time>
      </trkpt>
      <trkpt lat="45.29386" lon="1.9516">
        <ele>568.9</ele>
        <time>2022-08-05T08:17:57Z</time>
      </trkpt>
      <trkpt lat="45.29383" lon="1.95165">
        <ele>569</ele>
        <time>2022-08-05T08:17:59Z</time>
      </trkpt>
      <trkpt lat="45.29379" lon="1.95169">
        <ele>569.2</ele>
        <time>2022-08-05T08:18:01Z</time>
      </trkpt>
      <trkpt lat="45.29374" lon="1.95167">
        <ele>569</ele>
        <time>2022-08-05T08:18:03Z</time>
      </trkpt>
      <trkpt lat="45.2937" lon="1.95162">
        <ele>568.9</ele>
        <time>2022-08-05T08:18:05Z</time>
      </trkpt>
      <trkpt lat="45.29367" lon="1.95157">
        <ele>568.7</ele>
        <time>2022-08-05T08:18:07Z</time>
      </trkpt>
      <trkpt lat="45.29365" lon="1.95155">
        <ele>568.6</ele>
        <time>2022-08-05T08:18:09Z</time>
      </trkpt>
      <trkpt lat="45.29365" lon="1.95155">
        <ele>568.6</ele>
        <time>2022-08-05T08:18:11Z</time>
      </trkpt>
      <trkpt lat="45.29365" lon="1.95155">
        <ele>568.6</ele>
        <time>2022-08-05T08:18:13Z</time>
      </trkpt>
      <trkpt lat="45.29365" lon="1.95155">
        <ele>568.5</ele>
        <time>2022-08-05T08:18:15Z</time>
      </trkpt>
      <trkpt lat="45.29365" lon="1.95154">
        <ele>568.5</ele>
        <time>2022-08-05T08:18:17Z</time>
      </trkpt>
      <trkpt lat="45.2935" lon="1.95145">
        <ele>567.7</ele>
        <time>2022-08-05T08:22:43Z</time>
      </trkpt>
      <trkpt lat="45.29346" lon="1.95142">
        <ele>567.4</ele>
        <time>2022-08-05T08:22:45Z</time>
      </trkpt>
      <trkpt lat="45.29343" lon="1.9514">
        <ele>567.1</ele>
        <time>2022-08-05T08:22:47Z</time>
      </trkpt>
      <trkpt lat="45.29339" lon="1.95139">
        <ele>566.9</ele>
        <time>2022-08-05T08:22:49Z</time>
      </trkpt>
      <trkpt lat="45.29335" lon="1.95139">
        <ele>566.7</ele>
        <time>2022-08-05T08:22:51Z</time>
      </trkpt>
      <trkpt lat="45.29331" lon="1.95138">
        <ele>566.7</ele>
        <time>2022-08-05T08:22:53Z</time>
      </trkpt>
      <trkpt lat="45.29327" lon="1.95138">
        <ele>566.8</ele>
        <time>2022-08-05T08:22:55Z</time>
      </trkpt>
      <trkpt lat="45.29324" lon="1.95143">
        <ele>567.3</ele>
        <time>2022-08-05T08:22:57Z</time>
      </trkpt>
      <trkpt lat="45.29321" lon="1.95146">
        <ele>567.6</ele>
        <time>2022-08-05T08:22:59Z</time>
      </trkpt>
      <trkpt lat="45.29317" lon="1.95147">
        <ele>567.8</ele>
        <time>2022-08-05T08:23:01Z</time>
      </trkpt>
      <trkpt lat="45.29315" lon="1.95147">
        <ele>567.8</ele>
        <time>2022-08-05T08:23:03Z</time>
      </trkpt>
      <trkpt lat="45.29314" lon="1.95147">
        <ele>567.9</ele>
        <time>2022-08-05T08:23:05Z</time>
      </trkpt>
      <trkpt lat="45.29314" lon="1.95147">
        <ele>567.8</ele>
        <time>2022-08-05T08:23:07Z</time>
      </trkpt>
      <trkpt lat="45.29312" lon="1.95147">
        <ele>567.9</ele>
        <time>2022-08-05T08:23:09Z</time>
      </trkpt>
      <trkpt lat="45.29311" lon="1.95146">
        <ele>567.9</ele>
        <time>2022-08-05T08:23:11Z</time>
      </trkpt>
      <trkpt lat="45.29295" lon="1.9511">
        <ele>565.5</ele>
        <time>2022-08-05T08:23:39Z</time>
      </trkpt>
      <trkpt lat="45.29291" lon="1.95102">
        <ele>565</ele>
        <time>2022-08-05T08:23:41Z</time>
      </trkpt>
      <trkpt lat="45.29287" lon="1.95095">
        <ele>564.6</ele>
        <time>2022-08-05T08:23:43Z</time>
      </trkpt>
      <trkpt lat="45.29283" lon="1.95089">
        <ele>564.2</ele>
        <time>2022-08-05T08:23:45Z</time>
      </trkpt>
      <trkpt lat="45.29277" lon="1.95081">
        <ele>563.8</ele>
        <time>2022-08-05T08:23:47Z</time>
      </trkpt>
      <trkpt lat="45.29271" lon="1.95076">
        <ele>563.7</ele>
        <time>2022-08-05T08:23:49Z</time>
      </trkpt>
      <trkpt lat="45.29263" lon="1.95072">
        <ele>563.6</ele>
        <time>2022-08-05T08:23:51Z</time>
      </trkpt>
      <trkpt lat="45.29255" lon="1.95069">
        <ele>563.5</ele>
        <time>2022-08-05T08:23:53Z</time>
      </trkpt>
      <trkpt lat="45.29248" lon="1.95064">
        <ele>563.2</ele>
        <time>2022-08-05T08:23:55Z</time>
      </trkpt>
      <trkpt lat="45.29242" lon="1.95064">
        <ele>563.1</ele>
        <time>2022-08-05T08:23:57Z</time>
      </trkpt>
      <trkpt lat="45.29235" lon="1.95061">
        <ele>562.9</ele>
        <time>2022-08-05T08:23:59Z</time>
      </trkpt>
      <trkpt lat="45.29227" lon="1.95061">
        <ele>562.9</ele>
        <time>2022-08-05T08:24:01Z</time>
      </trkpt>
      <trkpt lat="45.29221" lon="1.95061">
        <ele>562.9</ele>
        <time>2022-08-05T08:24:03Z</time>
      </trkpt>
      <trkpt lat="45.29214" lon="1.95058">
        <ele>562.8</ele>
        <time>2022-08-05T08:24:05Z</time>
      </trkpt>
      <trkpt lat="45.29209" lon="1.95054">
        <ele>562.6</ele>
        <time>2022-08-05T08:24:07Z</time>
      </trkpt>
      <trkpt lat="45.29206" lon="1.95047">
        <ele>562.3</ele>
        <time>2022-08-05T08:24:09Z</time>
      </trkpt>
      <trkpt lat="45.29204" lon="1.95042">
        <ele>562.1</ele>
        <time>2022-08-05T08:24:11Z</time>
      </trkpt>
      <trkpt lat="45.29201" lon="1.95037">
        <ele>562</ele>
        <time>2022-08-05T08:24:13Z</time>
      </trkpt>
      <trkpt lat="45.292" lon="1.95035">
        <ele>561.9</ele>
        <time>2022-08-05T08:24:15Z</time>
      </trkpt>
      <trkpt lat="45.29197" lon="1.95034">
        <ele>562</ele>
        <time>2022-08-05T08:24:17Z</time>
      </trkpt>
      <trkpt lat="45.29193" lon="1.95034">
        <ele>562.1</ele>
        <time>2022-08-05T08:24:19Z</time>
      </trkpt>
      <trkpt lat="45.2919" lon="1.95037">
        <ele>562.3</ele>
        <time>2022-08-05T08:24:21Z</time>
      </trkpt>
      <trkpt lat="45.29188" lon="1.95039">
        <ele>562.4</ele>
        <time>2022-08-05T08:24:23Z</time>
      </trkpt>
      <trkpt lat="45.28365" lon="1.96961">
        <ele>558.6</ele>
        <time>2022-08-05T10:07:33Z</time>
      </trkpt>
      <trkpt lat="45.2836" lon="1.96965">
        <ele>558.6</ele>
        <time>2022-08-05T10:07:34Z</time>
      </trkpt>
      <trkpt lat="45.28338" lon="1.96987">
        <ele>558.7</ele>
        <time>2022-08-05T10:07:40Z</time>
      </trkpt>
      <trkpt lat="45.28332" lon="1.96995">
        <ele>558.8</ele>
        <time>2022-08-05T10:07:42Z</time>
      </trkpt>
      <trkpt lat="45.28326" lon="1.97009">
        <ele>559.2</ele>
        <time>2022-08-05T10:07:44Z</time>
      </trkpt>
      <trkpt lat="45.2832" lon="1.97015">
        <ele>559.4</ele>
        <time>2022-08-05T10:07:46Z</time>
      </trkpt>
      <trkpt lat="45.28316" lon="1.97021">
        <ele>559.5</ele>
        <time>2022-08-05T10:07:48Z</time>
      </trkpt>
      <trkpt lat="45.2831" lon="1.97026">
        <ele>559.6</ele>
        <time>2022-08-05T10:07:50Z</time>
      </trkpt>
      <trkpt lat="45.28308" lon="1.97035">
        <ele>559.8</ele>
        <time>2022-08-05T10:07:52Z</time>
      </trkpt>
      <trkpt lat="45.28303" lon="1.97042">
        <ele>560</ele>
        <time>2022-08-05T10:07:54Z</time>
      </trkpt>
      <trkpt lat="45.28299" lon="1.97049">
        <ele>560.2</ele>
        <time>2022-08-05T10:07:56Z</time>
      </trkpt>
      <trkpt lat="45.28295" lon="1.97058">
        <ele>560.4</ele>
        <time>2022-08-05T10:07:58Z</time>
      </trkpt>
      <trkpt lat="45.28291" lon="1.97066">
        <ele>560.6</ele>
        <time>2022-08-05T10:08:00Z</time>
      </trkpt>
      <trkpt lat="45.28287" lon="1.97075">
        <ele>560.8</ele>
        <time>2022-08-05T10:08:02Z</time>
      </trkpt>
      <trkpt lat="45.28283" lon="1.97086">
        <ele>561</ele>
        <time>2022-08-05T10:08:04Z</time>
      </trkpt>
      <trkpt lat="45.28278" lon="1.97095">
        <ele>561</ele>
        <time>2022-08-05T10:08:06Z</time>
      </trkpt>
      <trkpt lat="45.28274" lon="1.97105">
        <ele>561.1</ele>
        <time>2022-08-05T10:08:08Z</time>
      </trkpt>
      <trkpt lat="45.28269" lon="1.97116">
        <ele>561.2</ele>
        <time>2022-08-05T10:08:10Z</time>
      </trkpt>
      <trkpt lat="45.28265" lon="1.97127">
        <ele>561.3</ele>
        <time>2022-08-05T10:08:12Z</time>
      </trkpt>
      <trkpt lat="45.28261" lon="1.97138">
        <ele>561.5</ele>
        <time>2022-08-05T10:08:14Z</time>
      </trkpt>
      <trkpt lat="45.28258" lon="1.97148">
        <ele>561.6</ele>
        <time>2022-08-05T10:08:16Z</time>
      </trkpt>
      <trkpt lat="45.28254" lon="1.97159">
        <ele>561.8</ele>
        <time>2022-08-05T10:08:18Z</time>
      </trkpt>
      <trkpt lat="45.2825" lon="1.97169">
        <ele>562.1</ele>
        <time>2022-08-05T10:08:20Z</time>
      </trkpt>
      <trkpt lat="45.28247" lon="1.97181">
        <ele>562.2</ele>
        <time>2022-08-05T10:08:22Z</time>
      </trkpt>
      <trkpt lat="45.28244" lon="1.97191">
        <ele>562.3</ele>
        <time>2022-08-05T10:08:24Z</time>
      </trkpt>
      <trkpt lat="45.2824" lon="1.97202">
        <ele>562.3</ele>
        <time>2022-08-05T10:08:26Z</time>
      </trkpt>
      <trkpt lat="45.28237" lon="1.97212">
        <ele>562.4</ele>
        <time>2022-08-05T10:08:28Z</time>
      </trkpt>
      <trkpt lat="45.28233" lon="1.97222">
        <ele>562.4</ele>
        <time>2022-08-05T10:08:30Z</time>
      </trkpt>
      <trkpt lat="45.2823" lon="1.97232">
        <ele>562.4</ele>
        <time>2022-08-05T10:08:32Z</time>
      </trkpt>
      <trkpt lat="45.28226" lon="1.97243">
        <ele>562.5</ele>
        <time>2022-08-05T10:08:34Z</time>
      </trkpt>
      <trkpt lat="45.28223" lon="1.97254">
        <ele>562.4</ele>
        <time>2022-08-05T10:08:36Z</time>
      </trkpt>
      <trkpt lat="45.28219" lon="1.97266">
        <ele>562.2</ele>
        <time>2022-08-05T10:08:38Z</time>
      </trkpt>
      <trkpt lat="45.28215" lon="1.97277">
        <ele>562</ele>
        <time>2022-08-05T10:08:40Z</time>
      </trkpt>
      <trkpt lat="45.28211" lon="1.97289">
        <ele>561.7</ele>
        <time>2022-08-05T10:08:42Z</time>
      </trkpt>
      <trkpt lat="45.28207" lon="1.97301">
        <ele>561.4</ele>
        <time>2022-08-05T10:08:44Z</time>
      </trkpt>
      <trkpt lat="45.28202" lon="1.97314">
        <ele>561</ele>
        <time>2022-08-05T10:08:46Z</time>
      </trkpt>
      <trkpt lat="45.28198" lon="1.97327">
        <ele>560.7</ele>
        <time>2022-08-05T10:08:48Z</time>
      </trkpt>
      <trkpt lat="45.28194" lon="1.97339">
        <ele>560.3</ele>
        <time>2022-08-05T10:08:50Z</time>
      </trkpt>
      <trkpt lat="45.28189" lon="1.97352">
        <ele>560.2</ele>
        <time>2022-08-05T10:08:52Z</time>
      </trkpt>
      <trkpt lat="45.28185" lon="1.97364">
        <ele>560.2</ele>
        <time>2022-08-05T10:08:54Z</time>
      </trkpt>
      <trkpt lat="45.28181" lon="1.97375">
        <ele>560.4</ele>
        <time>2022-08-05T10:08:56Z</time>
      </trkpt>
      <trkpt lat="45.28178" lon="1.97385">
        <ele>560.6</ele>
        <time>2022-08-05T10:08:58Z</time>
      </trkpt>
      <trkpt lat="45.28174" lon="1.97394">
        <ele>560.9</ele>
        <time>2022-08-05T10:09:00Z</time>
      </trkpt>
      <trkpt lat="45.28171" lon="1.97403">
        <ele>561.3</ele>
        <time>2022-08-05T10:09:02Z</time>
      </trkpt>
      <trkpt lat="45.28169" lon="1.9741">
        <ele>561.6</ele>
        <time>2022-08-05T10:09:04Z</time>
      </trkpt>
      <trkpt lat="45.28167" lon="1.97418">
        <ele>562</ele>
        <time>2022-08-05T10:09:06Z</time>
      </trkpt>
      <trkpt lat="45.28164" lon="1.97425">
        <ele>561.9</ele>
        <time>2022-08-05T10:09:08Z</time>
      </trkpt>
      <trkpt lat="45.28162" lon="1.97432">
        <ele>561.9</ele>
        <time>2022-08-05T10:09:10Z</time>
      </trkpt>
      <trkpt lat="45.2816" lon="1.97439">
        <ele>561.9</ele>
        <time>2022-08-05T10:09:12Z</time>
      </trkpt>
      <trkpt lat="45.28159" lon="1.97448">
        <ele>561.9</ele>
        <time>2022-08-05T10:09:14Z</time>
      </trkpt>
      <trkpt lat="45.28156" lon="1.97456">
        <ele>561.9</ele>
        <time>2022-08-05T10:09:16Z</time>
      </trkpt>
      <trkpt lat="45.28154" lon="1.97465">
        <ele>561.9</ele>
        <time>2022-08-05T10:09:18Z</time>
      </trkpt>
      <trkpt lat="45.28151" lon="1.97473">
        <ele>561.9</ele>
        <time>2022-08-05T10:09:20Z</time>
      </trkpt>
      <trkpt lat="45.28149" lon="1.97483">
        <ele>562</ele>
        <time>2022-08-05T10:09:22Z</time>
      </trkpt>
      <trkpt lat="45.28146" lon="1.97493">
        <ele>562.1</ele>
        <time>2022-08-05T10:09:24Z</time>
      </trkpt>
      <trkpt lat="45.28142" lon="1.97503">
        <ele>562.2</ele>
        <time>2022-08-05T10:09:26Z</time>
      </trkpt>
      <trkpt lat="45.28139" lon="1.97514">
        <ele>562.2</ele>
        <time>2022-08-05T10:09:28Z</time>
      </trkpt>
      <trkpt lat="45.28135" lon="1.97525">
        <ele>562.2</ele>
        <time>2022-08-05T10:09:30Z</time>
      </trkpt>
      <trkpt lat="45.28131" lon="1.97535">
        <ele>562.1</ele>
        <time>2022-08-05T10:09:32Z</time>
      </trkpt>
      <trkpt lat="45.28128" lon="1.97546">
        <ele>562.1</ele>
        <time>2022-08-05T10:09:34Z</time>
      </trkpt>
      <trkpt lat="45.28123" lon="1.97558">
        <ele>562.1</ele>
        <time>2022-08-05T10:09:36Z</time>
      </trkpt>
      <trkpt lat="45.28118" lon="1.97571">
        <ele>562.1</ele>
        <time>2022-08-05T10:09:38Z</time>
      </trkpt>
      <trkpt lat="45.28113" lon="1.97585">
        <ele>562</ele>
        <time>2022-08-05T10:09:40Z</time>
      </trkpt>
      <trkpt lat="45.28107" lon="1.97599">
        <ele>561.7</ele>
        <time>2022-08-05T10:09:42Z</time>
      </trkpt>
      <trkpt lat="45.28098" lon="1.97611">
        <ele>561.4</ele>
        <time>2022-08-05T10:09:44Z</time>
      </trkpt>
      <trkpt lat="45.28089" lon="1.9762">
        <ele>561.1</ele>
        <time>2022-08-05T10:09:46Z</time>
      </trkpt>
      <trkpt lat="45.2808" lon="1.97627">
        <ele>560.9</ele>
        <time>2022-08-05T10:09:48Z</time>
      </trkpt>
      <trkpt lat="45.2807" lon="1.97635">
        <ele>560.6</ele>
        <time>2022-08-05T10:09:50Z</time>
      </trkpt>
      <trkpt lat="45.28061" lon="1.97641">
        <ele>560.3</ele>
        <time>2022-08-05T10:09:52Z</time>
      </trkpt>
      <trkpt lat="45.28051" lon="1.97649">
        <ele>559.9</ele>
        <time>2022-08-05T10:09:54Z</time>
      </trkpt>
      <trkpt lat="45.28043" lon="1.97654">
        <ele>559.6</ele>
        <time>2022-08-05T10:09:56Z</time>
      </trkpt>
      <trkpt lat="45.28037" lon="1.97656">
        <ele>559.4</ele>
        <time>2022-08-05T10:09:58Z</time>
      </trkpt>
      <trkpt lat="45.2803" lon="1.97658">
        <ele>559.1</ele>
        <time>2022-08-05T10:10:00Z</time>
      </trkpt>
      <trkpt lat="45.28023" lon="1.97659">
        <ele>558.9</ele>
        <time>2022-08-05T10:10:02Z</time>
      </trkpt>
      <trkpt lat="45.28015" lon="1.97659">
        <ele>558.6</ele>
        <time>2022-08-05T10:10:04Z</time>
      </trkpt>
      <trkpt lat="45.28007" lon="1.9766">
        <ele>558.3</ele>
        <time>2022-08-05T10:10:06Z</time>
      </trkpt>
      <trkpt lat="45.27999" lon="1.97661">
        <ele>558.1</ele>
        <time>2022-08-05T10:10:08Z</time>
      </trkpt>
      <trkpt lat="45.27991" lon="1.97662">
        <ele>557.9</ele>
        <time>2022-08-05T10:10:10Z</time>
      </trkpt>
      <trkpt lat="45.27985" lon="1.97661">
        <ele>557.9</ele>
        <time>2022-08-05T10:10:12Z</time>
      </trkpt>
      <trkpt lat="45.27978" lon="1.97661">
        <ele>557.8</ele>
        <time>2022-08-05T10:10:14Z</time>
      </trkpt>
      <trkpt lat="45.27973" lon="1.97661">
        <ele>557.7</ele>
        <time>2022-08-05T10:10:16Z</time>
      </trkpt>
      <trkpt lat="45.27969" lon="1.97661">
        <ele>557.6</ele>
        <time>2022-08-05T10:10:18Z</time>
      </trkpt>
      <trkpt lat="45.27967" lon="1.97661">
        <ele>557.6</ele>
        <time>2022-08-05T10:10:20Z</time>
      </trkpt>
      <trkpt lat="45.27967" lon="1.97661">
        <ele>557.6</ele>
        <time>2022-08-05T10:10:22Z</time>
      </trkpt>
      <trkpt lat="45.27967" lon="1.97661">
        <ele>557.6</ele>
        <time>2022-08-05T10:10:24Z</time>
      </trkpt>
      <trkpt lat="45.27967" lon="1.97661">
        <ele>557.6</ele>
        <time>2022-08-05T10:10:26Z</time>
      </trkpt>
      <trkpt lat="45.27952" lon="1.97651">
        <ele>557.4</ele>
        <time>2022-08-05T10:10:58Z</time>
      </trkpt>
      <trkpt lat="45.27949" lon="1.97644">
        <ele>557.3</ele>
        <time>2022-08-05T10:11:00Z</time>
      </trkpt>
      <trkpt lat="45.27946" lon="1.97636">
        <ele>557.2</ele>
        <time>2022-08-05T10:11:02Z</time>
      </trkpt>
      <trkpt lat="45.27943" lon="1.97627">
        <ele>557.1</ele>
        <time>2022-08-05T10:11:04Z</time>
      </trkpt>
      <trkpt lat="45.2794" lon="1.97616">
        <ele>557</ele>
        <time>2022-08-05T10:11:06Z</time>
      </trkpt>
      <trkpt lat="45.27937" lon="1.97606">
        <ele>556.9</ele>
        <time>2022-08-05T10:11:08Z</time>
      </trkpt>
      <trkpt lat="45.27933" lon="1.97594">
        <ele>556.7</ele>
        <time>2022-08-05T10:11:10Z</time>
      </trkpt>
      <trkpt lat="45.2793" lon="1.97581">
        <ele>556.4</ele>
        <time>2022-08-05T10:11:12Z</time>
      </trkpt>
      <trkpt lat="45.27926" lon="1.9757">
        <ele>556</ele>
        <time>2022-08-05T10:11:14Z</time>
      </trkpt>
      <trkpt lat="45.27923" lon="1.9756">
        <ele>555.6</ele>
        <time>2022-08-05T10:11:16Z</time>
      </trkpt>
      <trkpt lat="45.2792" lon="1.97551">
        <ele>555.3</ele>
        <time>2022-08-05T10:11:18Z</time>
      </trkpt>
      <trkpt lat="45.27917" lon="1.97542">
        <ele>555</ele>
        <time>2022-08-05T10:11:20Z</time>
      </trkpt>
      <trkpt lat="45.27913" lon="1.97533">
        <ele>554.7</ele>
        <time>2022-08-05T10:11:22Z</time>
      </trkpt>
      <trkpt lat="45.27913" lon="1.9753">
        <ele>554.6</ele>
        <time>2022-08-05T10:11:24Z</time>
      </trkpt>
      <trkpt lat="45.27913" lon="1.9753">
        <ele>554.6</ele>
        <time>2022-08-05T10:11:26Z</time>
      </trkpt>
      <trkpt lat="45.27913" lon="1.9753">
        <ele>554.6</ele>
        <time>2022-08-05T10:11:28Z</time>
      </trkpt>
      <trkpt lat="45.27913" lon="1.97528">
        <ele>554.6</ele>
        <time>2022-08-05T10:11:30Z</time>
      </trkpt>
      <trkpt lat="45.27912" lon="1.97522">
        <ele>554.4</ele>
        <time>2022-08-05T10:11:32Z</time>
      </trkpt>
      <trkpt lat="45.27909" lon="1.97514">
        <ele>554.1</ele>
        <time>2022-08-05T10:11:34Z</time>
      </trkpt>
      <trkpt lat="45.27907" lon="1.97505">
        <ele>553.8</ele>
        <time>2022-08-05T10:11:36Z</time>
      </trkpt>
      <trkpt lat="45.27904" lon="1.97496">
        <ele>553.4</ele>
        <time>2022-08-05T10:11:38Z</time>
      </trkpt>
      <trkpt lat="45.27901" lon="1.97485">
        <ele>553.1</ele>
        <time>2022-08-05T10:11:40Z</time>
      </trkpt>
      <trkpt lat="45.27898" lon="1.97474">
        <ele>552.7</ele>
        <time>2022-08-05T10:11:42Z</time>
      </trkpt>
      <trkpt lat="45.27893" lon="1.97462">
        <ele>552.3</ele>
        <time>2022-08-05T10:11:44Z</time>
      </trkpt>
      <trkpt lat="45.2789" lon="1.97449">
        <ele>551.8</ele>
        <time>2022-08-05T10:11:46Z</time>
      </trkpt>
      <trkpt lat="45.27886" lon="1.97437">
        <ele>551.4</ele>
        <time>2022-08-05T10:11:48Z</time>
      </trkpt>
      <trkpt lat="45.27882" lon="1.97424">
        <ele>550.9</ele>
        <time>2022-08-05T10:11:50Z</time>
      </trkpt>
      <trkpt lat="45.27878" lon="1.97409">
        <ele>550.7</ele>
        <time>2022-08-05T10:11:52Z</time>
      </trkpt>
      <trkpt lat="45.27874" lon="1.97397">
        <ele>550.6</ele>
        <time>2022-08-05T10:11:54Z</time>
      </trkpt>
      <trkpt lat="45.2787" lon="1.97385">
        <ele>550.6</ele>
        <time>2022-08-05T10:11:56Z</time>
      </trkpt>
      <trkpt lat="45.27866" lon="1.97373">
        <ele>550.6</ele>
        <time>2022-08-05T10:11:58Z</time>
      </trkpt>
      <trkpt lat="45.27863" lon="1.9736">
        <ele>550.7</ele>
        <time>2022-08-05T10:12:00Z</time>
      </trkpt>
      <trkpt lat="45.2786" lon="1.9735">
        <ele>550.8</ele>
        <time>2022-08-05T10:12:02Z</time>
      </trkpt>
      <trkpt lat="45.27856" lon="1.9734">
        <ele>550.9</ele>
        <time>2022-08-05T10:12:04Z</time>
      </trkpt>
      <trkpt lat="45.27854" lon="1.97329">
        <ele>550.9</ele>
        <time>2022-08-05T10:12:06Z</time>
      </trkpt>
      <trkpt lat="45.2785" lon="1.97319">
        <ele>550.8</ele>
        <time>2022-08-05T10:12:08Z</time>
      </trkpt>
      <trkpt lat="45.27847" lon="1.97308">
        <ele>550.6</ele>
        <time>2022-08-05T10:12:10Z</time>
      </trkpt>
      <trkpt lat="45.27844" lon="1.97296">
        <ele>550.5</ele>
        <time>2022-08-05T10:12:12Z</time>
      </trkpt>
      <trkpt lat="45.2784" lon="1.97285">
        <ele>550.4</ele>
        <time>2022-08-05T10:12:14Z</time>
      </trkpt>
      <trkpt lat="45.27837" lon="1.97272">
        <ele>550.2</ele>
        <time>2022-08-05T10:12:16Z</time>
      </trkpt>
      <trkpt lat="45.27833" lon="1.9726">
        <ele>550.1</ele>
        <time>2022-08-05T10:12:18Z</time>
      </trkpt>
      <trkpt lat="45.27828" lon="1.97247">
        <ele>549.5</ele>
        <time>2022-08-05T10:12:20Z</time>
      </trkpt>
      <trkpt lat="45.27823" lon="1.97234">
        <ele>548.5</ele>
        <time>2022-08-05T10:12:22Z</time>
      </trkpt>
      <trkpt lat="45.27819" lon="1.97224">
        <ele>547.7</ele>
        <time>2022-08-05T10:12:24Z</time>
      </trkpt>
      <trkpt lat="45.27816" lon="1.97217">
        <ele>547.1</ele>
        <time>2022-08-05T10:12:26Z</time>
      </trkpt>
      <trkpt lat="45.27811" lon="1.97213">
        <ele>546.7</ele>
        <time>2022-08-05T10:12:28Z</time>
      </trkpt>
      <trkpt lat="45.27804" lon="1.97214">
        <ele>546.4</ele>
        <time>2022-08-05T10:12:30Z</time>
      </trkpt>
      <trkpt lat="45.27798" lon="1.97216">
        <ele>546.2</ele>
        <time>2022-08-05T10:12:32Z</time>
      </trkpt>
      <trkpt lat="45.27791" lon="1.97218">
        <ele>546</ele>
        <time>2022-08-05T10:12:34Z</time>
      </trkpt>
      <trkpt lat="45.27785" lon="1.9722">
        <ele>545.7</ele>
        <time>2022-08-05T10:12:36Z</time>
      </trkpt>
      <trkpt lat="45.27778" lon="1.97224">
        <ele>545.6</ele>
        <time>2022-08-05T10:12:38Z</time>
      </trkpt>
      <trkpt lat="45.27773" lon="1.97229">
        <ele>545.5</ele>
        <time>2022-08-05T10:12:40Z</time>
      </trkpt>
      <trkpt lat="45.27766" lon="1.97235">
        <ele>545.3</ele>
        <time>2022-08-05T10:12:42Z</time>
      </trkpt>
      <trkpt lat="45.27757" lon="1.97241">
        <ele>545</ele>
        <time>2022-08-05T10:12:44Z</time>
      </trkpt>
      <trkpt lat="45.27748" lon="1.97248">
        <ele>544.8</ele>
        <time>2022-08-05T10:12:46Z</time>
      </trkpt>
      <trkpt lat="45.27739" lon="1.97255">
        <ele>544.6</ele>
        <time>2022-08-05T10:12:48Z</time>
      </trkpt>
      <trkpt lat="45.27731" lon="1.97263">
        <ele>544.4</ele>
        <time>2022-08-05T10:12:50Z</time>
      </trkpt>
      <trkpt lat="45.27723" lon="1.97273">
        <ele>544.3</ele>
        <time>2022-08-05T10:12:52Z</time>
      </trkpt>
      <trkpt lat="45.27715" lon="1.97282">
        <ele>544.2</ele>
        <time>2022-08-05T10:12:54Z</time>
      </trkpt>
      <trkpt lat="45.27708" lon="1.9729">
        <ele>544.2</ele>
        <time>2022-08-05T10:12:56Z</time>
      </trkpt>
      <trkpt lat="45.27702" lon="1.97295">
        <ele>544.2</ele>
        <time>2022-08-05T10:12:58Z</time>
      </trkpt>
      <trkpt lat="45.27694" lon="1.973">
        <ele>544.2</ele>
        <time>2022-08-05T10:13:00Z</time>
      </trkpt>
      <trkpt lat="45.27688" lon="1.97305">
        <ele>544.2</ele>
        <time>2022-08-05T10:13:02Z</time>
      </trkpt>
      <trkpt lat="45.27682" lon="1.97308">
        <ele>544.2</ele>
        <time>2022-08-05T10:13:04Z</time>
      </trkpt>
      <trkpt lat="45.27676" lon="1.97313">
        <ele>544.4</ele>
        <time>2022-08-05T10:13:06Z</time>
      </trkpt>
      <trkpt lat="45.27671" lon="1.97317">
        <ele>544.4</ele>
        <time>2022-08-05T10:13:08Z</time>
      </trkpt>
      <trkpt lat="45.27665" lon="1.97322">
        <ele>544.4</ele>
        <time>2022-08-05T10:13:10Z</time>
      </trkpt>
      <trkpt lat="45.27659" lon="1.97326">
        <ele>544</ele>
        <time>2022-08-05T10:13:12Z</time>
      </trkpt>
      <trkpt lat="45.27653" lon="1.97329">
        <ele>543.5</ele>
        <time>2022-08-05T10:13:14Z</time>
      </trkpt>
      <trkpt lat="45.27647" lon="1.97331">
        <ele>543</ele>
        <time>2022-08-05T10:13:16Z</time>
      </trkpt>
      <trkpt lat="45.27641" lon="1.97336">
        <ele>542.5</ele>
        <time>2022-08-05T10:13:18Z</time>
      </trkpt>
      <trkpt lat="45.27635" lon="1.97342">
        <ele>541.9</ele>
        <time>2022-08-05T10:13:20Z</time>
      </trkpt>
      <trkpt lat="45.27628" lon="1.9735">
        <ele>541.3</ele>
        <time>2022-08-05T10:13:22Z</time>
      </trkpt>
      <trkpt lat="45.27621" lon="1.97361">
        <ele>540.7</ele>
        <time>2022-08-05T10:13:24Z</time>
      </trkpt>
      <trkpt lat="45.27619" lon="1.97377">
        <ele>540.5</ele>
        <time>2022-08-05T10:13:26Z</time>
      </trkpt>
      <trkpt lat="45.27618" lon="1.97398">
        <ele>540.5</ele>
        <time>2022-08-05T10:13:28Z</time>
      </trkpt>
      <trkpt lat="45.27615" lon="1.97416">
        <ele>540.3</ele>
        <time>2022-08-05T10:13:30Z</time>
      </trkpt>
      <trkpt lat="45.27613" lon="1.97435">
        <ele>540.2</ele>
        <time>2022-08-05T10:13:32Z</time>
      </trkpt>
      <trkpt lat="45.27606" lon="1.97452">
        <ele>540</ele>
        <time>2022-08-05T10:13:34Z</time>
      </trkpt>
      <trkpt lat="45.27593" lon="1.97462">
        <ele>539.5</ele>
        <time>2022-08-05T10:13:36Z</time>
      </trkpt>
      <trkpt lat="45.27576" lon="1.97462">
        <ele>539.2</ele>
        <time>2022-08-05T10:13:38Z</time>
      </trkpt>
      <trkpt lat="45.27562" lon="1.9746">
        <ele>539.3</ele>
        <time>2022-08-05T10:13:40Z</time>
      </trkpt>
      <trkpt lat="45.27547" lon="1.97461">
        <ele>539.6</ele>
        <time>2022-08-05T10:13:42Z</time>
      </trkpt>
      <trkpt lat="45.27533" lon="1.97464">
        <ele>540</ele>
        <time>2022-08-05T10:13:44Z</time>
      </trkpt>
      <trkpt lat="45.27518" lon="1.97467">
        <ele>540.5</ele>
        <time>2022-08-05T10:13:46Z</time>
      </trkpt>
      <trkpt lat="45.27502" lon="1.97464">
        <ele>540.5</ele>
        <time>2022-08-05T10:13:48Z</time>
      </trkpt>
      <trkpt lat="45.27488" lon="1.97458">
        <ele>540.3</ele>
        <time>2022-08-05T10:13:50Z</time>
      </trkpt>
      <trkpt lat="45.27476" lon="1.97451">
        <ele>539.9</ele>
        <time>2022-08-05T10:13:52Z</time>
      </trkpt>
      <trkpt lat="45.27464" lon="1.97447">
        <ele>539.9</ele>
        <time>2022-08-05T10:13:54Z</time>
      </trkpt>
      <trkpt lat="45.27453" lon="1.97447">
        <ele>540.2</ele>
        <time>2022-08-05T10:13:56Z</time>
      </trkpt>
      <trkpt lat="45.27443" lon="1.97451">
        <ele>540.7</ele>
        <time>2022-08-05T10:13:58Z</time>
      </trkpt>
      <trkpt lat="45.27433" lon="1.97455">
        <ele>541.3</ele>
        <time>2022-08-05T10:14:00Z</time>
      </trkpt>
      <trkpt lat="45.27425" lon="1.97461">
        <ele>542</ele>
        <time>2022-08-05T10:14:02Z</time>
      </trkpt>
      <trkpt lat="45.27419" lon="1.97469">
        <ele>542.7</ele>
        <time>2022-08-05T10:14:04Z</time>
      </trkpt>
      <trkpt lat="45.27413" lon="1.97477">
        <ele>543.3</ele>
        <time>2022-08-05T10:14:06Z</time>
      </trkpt>
      <trkpt lat="45.27406" lon="1.97483">
        <ele>543.6</ele>
        <time>2022-08-05T10:14:08Z</time>
      </trkpt>
      <trkpt lat="45.274" lon="1.97491">
        <ele>543.9</ele>
        <time>2022-08-05T10:14:10Z</time>
      </trkpt>
      <trkpt lat="45.27393" lon="1.97498">
        <ele>544.1</ele>
        <time>2022-08-05T10:14:12Z</time>
      </trkpt>
      <trkpt lat="45.27387" lon="1.97506">
        <ele>544.8</ele>
        <time>2022-08-05T10:14:14Z</time>
      </trkpt>
      <trkpt lat="45.2738" lon="1.97512">
        <ele>545.4</ele>
        <time>2022-08-05T10:14:16Z</time>
      </trkpt>
      <trkpt lat="45.27373" lon="1.97518">
        <ele>546.1</ele>
        <time>2022-08-05T10:14:18Z</time>
      </trkpt>
      <trkpt lat="45.27367" lon="1.97523">
        <ele>546.5</ele>
        <time>2022-08-05T10:14:20Z</time>
      </trkpt>
      <trkpt lat="45.2736" lon="1.97528">
        <ele>546.8</ele>
        <time>2022-08-05T10:14:22Z</time>
      </trkpt>
      <trkpt lat="45.27354" lon="1.97532">
        <ele>547.2</ele>
        <time>2022-08-05T10:14:24Z</time>
      </trkpt>
      <trkpt lat="45.27348" lon="1.97537">
        <ele>547.5</ele>
        <time>2022-08-05T10:14:26Z</time>
      </trkpt>
      <trkpt lat="45.27342" lon="1.97541">
        <ele>547.8</ele>
        <time>2022-08-05T10:14:28Z</time>
      </trkpt>
      <trkpt lat="45.27336" lon="1.97544">
        <ele>548</ele>
        <time>2022-08-05T10:14:30Z</time>
      </trkpt>
      <trkpt lat="45.27331" lon="1.97544">
        <ele>547.7</ele>
        <time>2022-08-05T10:14:32Z</time>
      </trkpt>
      <trkpt lat="45.27325" lon="1.97551">
        <ele>548.2</ele>
        <time>2022-08-05T10:14:34Z</time>
      </trkpt>
      <trkpt lat="45.27319" lon="1.97554">
        <ele>548.4</ele>
        <time>2022-08-05T10:14:36Z</time>
      </trkpt>
      <trkpt lat="45.27314" lon="1.9756">
        <ele>548.6</ele>
        <time>2022-08-05T10:14:38Z</time>
      </trkpt>
      <trkpt lat="45.27309" lon="1.97566">
        <ele>548.9</ele>
        <time>2022-08-05T10:14:40Z</time>
      </trkpt>
      <trkpt lat="45.27304" lon="1.97571">
        <ele>549</ele>
        <time>2022-08-05T10:14:42Z</time>
      </trkpt>
      <trkpt lat="45.27299" lon="1.97577">
        <ele>549.1</ele>
        <time>2022-08-05T10:14:44Z</time>
      </trkpt>
      <trkpt lat="45.27296" lon="1.97582">
        <ele>549.3</ele>
        <time>2022-08-05T10:14:46Z</time>
      </trkpt>
      <trkpt lat="45.27292" lon="1.97588">
        <ele>549.3</ele>
        <time>2022-08-05T10:14:48Z</time>
      </trkpt>
      <trkpt lat="45.27288" lon="1.97593">
        <ele>549.3</ele>
        <time>2022-08-05T10:14:50Z</time>
      </trkpt>
      <trkpt lat="45.27284" lon="1.97597">
        <ele>549.1</ele>
        <time>2022-08-05T10:14:52Z</time>
      </trkpt>
      <trkpt lat="45.2728" lon="1.97602">
        <ele>549.1</ele>
        <time>2022-08-05T10:14:54Z</time>
      </trkpt>
      <trkpt lat="45.27277" lon="1.97607">
        <ele>549</ele>
        <time>2022-08-05T10:14:56Z</time>
      </trkpt>
      <trkpt lat="45.27273" lon="1.97613">
        <ele>548.8</ele>
        <time>2022-08-05T10:14:58Z</time>
      </trkpt>
      <trkpt lat="45.27269" lon="1.97618">
        <ele>548.7</ele>
        <time>2022-08-05T10:15:00Z</time>
      </trkpt>
      <trkpt lat="45.27266" lon="1.97622">
        <ele>548.5</ele>
        <time>2022-08-05T10:15:02Z</time>
      </trkpt>
      <trkpt lat="45.27262" lon="1.97628">
        <ele>548.2</ele>
        <time>2022-08-05T10:15:04Z</time>
      </trkpt>
      <trkpt lat="45.27258" lon="1.97633">
        <ele>547.9</ele>
        <time>2022-08-05T10:15:06Z</time>
      </trkpt>
      <trkpt lat="45.27254" lon="1.97639">
        <ele>547.5</ele>
        <time>2022-08-05T10:15:08Z</time>
      </trkpt>
      <trkpt lat="45.27249" lon="1.97644">
        <ele>547.2</ele>
        <time>2022-08-05T10:15:10Z</time>
      </trkpt>
      <trkpt lat="45.27245" lon="1.97649">
        <ele>547.2</ele>
        <time>2022-08-05T10:15:12Z</time>
      </trkpt>
      <trkpt lat="45.27239" lon="1.97654">
        <ele>547.2</ele>
        <time>2022-08-05T10:15:14Z</time>
      </trkpt>
      <trkpt lat="45.27235" lon="1.97659">
        <ele>547.2</ele>
        <time>2022-08-05T10:15:16Z</time>
      </trkpt>
      <trkpt lat="45.2723" lon="1.97662">
        <ele>547.1</ele>
        <time>2022-08-05T10:15:18Z</time>
      </trkpt>
      <trkpt lat="45.27225" lon="1.97666">
        <ele>547.1</ele>
        <time>2022-08-05T10:15:20Z</time>
      </trkpt>
      <trkpt lat="45.27219" lon="1.9767">
        <ele>547.1</ele>
        <time>2022-08-05T10:15:22Z</time>
      </trkpt>
      <trkpt lat="45.27214" lon="1.97673">
        <ele>547.2</ele>
        <time>2022-08-05T10:15:24Z</time>
      </trkpt>
      <trkpt lat="45.27209" lon="1.97676">
        <ele>547.2</ele>
        <time>2022-08-05T10:15:26Z</time>
      </trkpt>
      <trkpt lat="45.27203" lon="1.97678">
        <ele>547.1</ele>
        <time>2022-08-05T10:15:28Z</time>
      </trkpt>
      <trkpt lat="45.27198" lon="1.9768">
        <ele>547</ele>
        <time>2022-08-05T10:15:30Z</time>
      </trkpt>
      <trkpt lat="45.27192" lon="1.97682">
        <ele>546.9</ele>
        <time>2022-08-05T10:15:32Z</time>
      </trkpt>
      <trkpt lat="45.27187" lon="1.97683">
        <ele>546.7</ele>
        <time>2022-08-05T10:15:34Z</time>
      </trkpt>
      <trkpt lat="45.27181" lon="1.97682">
        <ele>546.4</ele>
        <time>2022-08-05T10:15:36Z</time>
      </trkpt>
      <trkpt lat="45.27175" lon="1.97681">
        <ele>546</ele>
        <time>2022-08-05T10:15:38Z</time>
      </trkpt>
      <trkpt lat="45.27169" lon="1.97678">
        <ele>545.7</ele>
        <time>2022-08-05T10:15:40Z</time>
      </trkpt>
      <trkpt lat="45.27164" lon="1.97681">
        <ele>545.8</ele>
        <time>2022-08-05T10:15:42Z</time>
      </trkpt>
      <trkpt lat="45.27157" lon="1.97682">
        <ele>546.1</ele>
        <time>2022-08-05T10:15:44Z</time>
      </trkpt>
      <trkpt lat="45.27151" lon="1.97682">
        <ele>546.4</ele>
        <time>2022-08-05T10:15:46Z</time>
      </trkpt>
      <trkpt lat="45.27144" lon="1.97685">
        <ele>546.7</ele>
        <time>2022-08-05T10:15:48Z</time>
      </trkpt>
      <trkpt lat="45.27137" lon="1.97687">
        <ele>547.1</ele>
        <time>2022-08-05T10:15:50Z</time>
      </trkpt>
      <trkpt lat="45.27131" lon="1.9769">
        <ele>547.5</ele>
        <time>2022-08-05T10:15:52Z</time>
      </trkpt>
      <trkpt lat="45.27124" lon="1.97692">
        <ele>547.9</ele>
        <time>2022-08-05T10:15:54Z</time>
      </trkpt>
      <trkpt lat="45.27117" lon="1.97695">
        <ele>548.4</ele>
        <time>2022-08-05T10:15:56Z</time>
      </trkpt>
      <trkpt lat="45.27111" lon="1.97698">
        <ele>548.8</ele>
        <time>2022-08-05T10:15:58Z</time>
      </trkpt>
      <trkpt lat="45.27104" lon="1.97702">
        <ele>549.2</ele>
        <time>2022-08-05T10:16:00Z</time>
      </trkpt>
      <trkpt lat="45.27098" lon="1.97704">
        <ele>549.6</ele>
        <time>2022-08-05T10:16:02Z</time>
      </trkpt>
      <trkpt lat="45.27092" lon="1.97706">
        <ele>550</ele>
        <time>2022-08-05T10:16:04Z</time>
      </trkpt>
      <trkpt lat="45.27086" lon="1.97709">
        <ele>550.4</ele>
        <time>2022-08-05T10:16:06Z</time>
      </trkpt>
      <trkpt lat="45.2708" lon="1.97712">
        <ele>550.8</ele>
        <time>2022-08-05T10:16:08Z</time>
      </trkpt>
      <trkpt lat="45.27073" lon="1.97714">
        <ele>551.1</ele>
        <time>2022-08-05T10:16:10Z</time>
      </trkpt>
      <trkpt lat="45.27068" lon="1.97717">
        <ele>551.3</ele>
        <time>2022-08-05T10:16:12Z</time>
      </trkpt>
      <trkpt lat="45.27062" lon="1.9772">
        <ele>551.6</ele>
        <time>2022-08-05T10:16:14Z</time>
      </trkpt>
      <trkpt lat="45.27056" lon="1.97722">
        <ele>551.8</ele>
        <time>2022-08-05T10:16:16Z</time>
      </trkpt>
      <trkpt lat="45.2705" lon="1.97725">
        <ele>552</ele>
        <time>2022-08-05T10:16:18Z</time>
      </trkpt>
      <trkpt lat="45.27045" lon="1.97728">
        <ele>552.2</ele>
        <time>2022-08-05T10:16:20Z</time>
      </trkpt>
      <trkpt lat="45.27039" lon="1.9773">
        <ele>552.3</ele>
        <time>2022-08-05T10:16:22Z</time>
      </trkpt>
      <trkpt lat="45.27033" lon="1.97732">
        <ele>552.5</ele>
        <time>2022-08-05T10:16:24Z</time>
      </trkpt>
      <trkpt lat="45.27027" lon="1.97734">
        <ele>552.6</ele>
        <time>2022-08-05T10:16:26Z</time>
      </trkpt>
      <trkpt lat="45.27021" lon="1.97736">
        <ele>552.7</ele>
        <time>2022-08-05T10:16:28Z</time>
      </trkpt>
      <trkpt lat="45.27015" lon="1.97739">
        <ele>552.8</ele>
        <time>2022-08-05T10:16:30Z</time>
      </trkpt>
      <trkpt lat="45.27008" lon="1.9774">
        <ele>552.8</ele>
        <time>2022-08-05T10:16:32Z</time>
      </trkpt>
      <trkpt lat="45.27001" lon="1.97742">
        <ele>552.9</ele>
        <time>2022-08-05T10:16:34Z</time>
      </trkpt>
      <trkpt lat="45.26994" lon="1.97744">
        <ele>552.7</ele>
        <time>2022-08-05T10:16:36Z</time>
      </trkpt>
      <trkpt lat="45.26985" lon="1.97745">
        <ele>552.4</ele>
        <time>2022-08-05T10:16:38Z</time>
      </trkpt>
      <trkpt lat="45.26977" lon="1.97748">
        <ele>552.1</ele>
        <time>2022-08-05T10:16:40Z</time>
      </trkpt>
      <trkpt lat="45.26967" lon="1.9775">
        <ele>551.8</ele>
        <time>2022-08-05T10:16:42Z</time>
      </trkpt>
      <trkpt lat="45.26958" lon="1.97753">
        <ele>551.7</ele>
        <time>2022-08-05T10:16:44Z</time>
      </trkpt>
      <trkpt lat="45.26948" lon="1.97756">
        <ele>551.6</ele>
        <time>2022-08-05T10:16:46Z</time>
      </trkpt>
      <trkpt lat="45.26938" lon="1.9776">
        <ele>551.5</ele>
        <time>2022-08-05T10:16:48Z</time>
      </trkpt>
      <trkpt lat="45.26928" lon="1.97762">
        <ele>551.4</ele>
        <time>2022-08-05T10:16:50Z</time>
      </trkpt>
      <trkpt lat="45.26918" lon="1.97766">
        <ele>551.3</ele>
        <time>2022-08-05T10:16:52Z</time>
      </trkpt>
      <trkpt lat="45.26907" lon="1.97768">
        <ele>552.2</ele>
        <time>2022-08-05T10:16:54Z</time>
      </trkpt>
      <trkpt lat="45.26898" lon="1.9777">
        <ele>553.1</ele>
        <time>2022-08-05T10:16:56Z</time>
      </trkpt>
      <trkpt lat="45.26888" lon="1.97773">
        <ele>554</ele>
        <time>2022-08-05T10:16:58Z</time>
      </trkpt>
      <trkpt lat="45.26879" lon="1.97774">
        <ele>554.8</ele>
        <time>2022-08-05T10:17:00Z</time>
      </trkpt>
      <trkpt lat="45.2687" lon="1.97775">
        <ele>555.5</ele>
        <time>2022-08-05T10:17:02Z</time>
      </trkpt>
      <trkpt lat="45.26862" lon="1.97775">
        <ele>556.1</ele>
        <time>2022-08-05T10:17:04Z</time>
      </trkpt>
      <trkpt lat="45.26854" lon="1.97775">
        <ele>556.7</ele>
        <time>2022-08-05T10:17:06Z</time>
      </trkpt>
      <trkpt lat="45.26846" lon="1.97774">
        <ele>557.2</ele>
        <time>2022-08-05T10:17:08Z</time>
      </trkpt>
      <trkpt lat="45.26838" lon="1.97774">
        <ele>557.8</ele>
        <time>2022-08-05T10:17:10Z</time>
      </trkpt>
      <trkpt lat="45.26831" lon="1.97774">
        <ele>558.2</ele>
        <time>2022-08-05T10:17:12Z</time>
      </trkpt>
      <trkpt lat="45.26824" lon="1.97774">
        <ele>558.1</ele>
        <time>2022-08-05T10:17:14Z</time>
      </trkpt>
      <trkpt lat="45.26816" lon="1.97773">
        <ele>558.1</ele>
        <time>2022-08-05T10:17:16Z</time>
      </trkpt>
      <trkpt lat="45.26809" lon="1.97772">
        <ele>558.1</ele>
        <time>2022-08-05T10:17:18Z</time>
      </trkpt>
      <trkpt lat="45.26801" lon="1.97772">
        <ele>558.1</ele>
        <time>2022-08-05T10:17:20Z</time>
      </trkpt>
      <trkpt lat="45.26792" lon="1.97773">
        <ele>558.2</ele>
        <time>2022-08-05T10:17:22Z</time>
      </trkpt>
      <trkpt lat="45.26785" lon="1.97772">
        <ele>558.2</ele>
        <time>2022-08-05T10:17:24Z</time>
      </trkpt>
      <trkpt lat="45.26777" lon="1.97772">
        <ele>558.2</ele>
        <time>2022-08-05T10:17:26Z</time>
      </trkpt>
      <trkpt lat="45.26768" lon="1.97771">
        <ele>558.2</ele>
        <time>2022-08-05T10:17:28Z</time>
      </trkpt>
      <trkpt lat="45.2676" lon="1.97769">
        <ele>558.2</ele>
        <time>2022-08-05T10:17:30Z</time>
      </trkpt>
      <trkpt lat="45.26751" lon="1.97768">
        <ele>558.2</ele>
        <time>2022-08-05T10:17:32Z</time>
      </trkpt>
      <trkpt lat="45.26742" lon="1.97766">
        <ele>557.7</ele>
        <time>2022-08-05T10:17:34Z</time>
      </trkpt>
      <trkpt lat="45.26732" lon="1.97764">
        <ele>557.2</ele>
        <time>2022-08-05T10:17:36Z</time>
      </trkpt>
      <trkpt lat="45.26722" lon="1.97763">
        <ele>556.6</ele>
        <time>2022-08-05T10:17:38Z</time>
      </trkpt>
      <trkpt lat="45.26711" lon="1.97762">
        <ele>555.9</ele>
        <time>2022-08-05T10:17:40Z</time>
      </trkpt>
      <trkpt lat="45.26699" lon="1.97761">
        <ele>555.2</ele>
        <time>2022-08-05T10:17:42Z</time>
      </trkpt>
      <trkpt lat="45.26687" lon="1.97759">
        <ele>554.5</ele>
        <time>2022-08-05T10:17:44Z</time>
      </trkpt>
      <trkpt lat="45.26674" lon="1.97755">
        <ele>553.6</ele>
        <time>2022-08-05T10:17:46Z</time>
      </trkpt>
      <trkpt lat="45.26662" lon="1.97752">
        <ele>553</ele>
        <time>2022-08-05T10:17:48Z</time>
      </trkpt>
      <trkpt lat="45.26648" lon="1.97748">
        <ele>552.8</ele>
        <time>2022-08-05T10:17:50Z</time>
      </trkpt>
      <trkpt lat="45.26634" lon="1.97744">
        <ele>552.6</ele>
        <time>2022-08-05T10:17:52Z</time>
      </trkpt>
      <trkpt lat="45.26619" lon="1.9774">
        <ele>552.4</ele>
        <time>2022-08-05T10:17:54Z</time>
      </trkpt>
      <trkpt lat="45.26605" lon="1.97735">
        <ele>552.2</ele>
        <time>2022-08-05T10:17:56Z</time>
      </trkpt>
      <trkpt lat="45.26591" lon="1.97731">
        <ele>551.9</ele>
        <time>2022-08-05T10:17:58Z</time>
      </trkpt>
      <trkpt lat="45.26575" lon="1.97727">
        <ele>551.5</ele>
        <time>2022-08-05T10:18:00Z</time>
      </trkpt>
      <trkpt lat="45.2656" lon="1.97723">
        <ele>551</ele>
        <time>2022-08-05T10:18:02Z</time>
      </trkpt>
      <trkpt lat="45.26544" lon="1.97719">
        <ele>550.6</ele>
        <time>2022-08-05T10:18:04Z</time>
      </trkpt>
      <trkpt lat="45.26529" lon="1.97717">
        <ele>550.2</ele>
        <time>2022-08-05T10:18:06Z</time>
      </trkpt>
      <trkpt lat="45.26514" lon="1.97715">
        <ele>549.8</ele>
        <time>2022-08-05T10:18:08Z</time>
      </trkpt>
      <trkpt lat="45.265" lon="1.97713">
        <ele>549.4</ele>
        <time>2022-08-05T10:18:10Z</time>
      </trkpt>
      <trkpt lat="45.26486" lon="1.97711">
        <ele>549.3</ele>
        <time>2022-08-05T10:18:12Z</time>
      </trkpt>
      <trkpt lat="45.26473" lon="1.9771">
        <ele>549.1</ele>
        <time>2022-08-05T10:18:14Z</time>
      </trkpt>
      <trkpt lat="45.26461" lon="1.97708">
        <ele>549</ele>
        <time>2022-08-05T10:18:16Z</time>
      </trkpt>
      <trkpt lat="45.26449" lon="1.97706">
        <ele>548.9</ele>
        <time>2022-08-05T10:18:18Z</time>
      </trkpt>
      <trkpt lat="45.26438" lon="1.97706">
        <ele>548.8</ele>
        <time>2022-08-05T10:18:20Z</time>
      </trkpt>
      <trkpt lat="45.26427" lon="1.97705">
        <ele>548.7</ele>
        <time>2022-08-05T10:18:22Z</time>
      </trkpt>
      <trkpt lat="45.26417" lon="1.97703">
        <ele>548.7</ele>
        <time>2022-08-05T10:18:24Z</time>
      </trkpt>
      <trkpt lat="45.26407" lon="1.97703">
        <ele>548.5</ele>
        <time>2022-08-05T10:18:26Z</time>
      </trkpt>
      <trkpt lat="45.26397" lon="1.977">
        <ele>548.3</ele>
        <time>2022-08-05T10:18:28Z</time>
      </trkpt>
      <trkpt lat="45.26388" lon="1.977">
        <ele>548</ele>
        <time>2022-08-05T10:18:30Z</time>
      </trkpt>
      <trkpt lat="45.2638" lon="1.97698">
        <ele>547.9</ele>
        <time>2022-08-05T10:18:32Z</time>
      </trkpt>
      <trkpt lat="45.26372" lon="1.97698">
        <ele>547.7</ele>
        <time>2022-08-05T10:18:34Z</time>
      </trkpt>
      <trkpt lat="45.26364" lon="1.97698">
        <ele>547.5</ele>
        <time>2022-08-05T10:18:36Z</time>
      </trkpt>
      <trkpt lat="45.26356" lon="1.97697">
        <ele>547.3</ele>
        <time>2022-08-05T10:18:38Z</time>
      </trkpt>
      <trkpt lat="45.26348" lon="1.97695">
        <ele>547.1</ele>
        <time>2022-08-05T10:18:40Z</time>
      </trkpt>
      <trkpt lat="45.26341" lon="1.97694">
        <ele>546.9</ele>
        <time>2022-08-05T10:18:42Z</time>
      </trkpt>
      <trkpt lat="45.26334" lon="1.97693">
        <ele>546.7</ele>
        <time>2022-08-05T10:18:44Z</time>
      </trkpt>
      <trkpt lat="45.26325" lon="1.97693">
        <ele>546.2</ele>
        <time>2022-08-05T10:18:46Z</time>
      </trkpt>
      <trkpt lat="45.26317" lon="1.97691">
        <ele>545.8</ele>
        <time>2022-08-05T10:18:48Z</time>
      </trkpt>
      <trkpt lat="45.26308" lon="1.9769">
        <ele>545.3</ele>
        <time>2022-08-05T10:18:50Z</time>
      </trkpt>
      <trkpt lat="45.26297" lon="1.9769">
        <ele>544.8</ele>
        <time>2022-08-05T10:18:52Z</time>
      </trkpt>
      <trkpt lat="45.26286" lon="1.97689">
        <ele>544.1</ele>
        <time>2022-08-05T10:18:54Z</time>
      </trkpt>
      <trkpt lat="45.26273" lon="1.97687">
        <ele>543.5</ele>
        <time>2022-08-05T10:18:56Z</time>
      </trkpt>
      <trkpt lat="45.26261" lon="1.97686">
        <ele>542.9</ele>
        <time>2022-08-05T10:18:58Z</time>
      </trkpt>
      <trkpt lat="45.26248" lon="1.97685">
        <ele>542.1</ele>
        <time>2022-08-05T10:19:00Z</time>
      </trkpt>
      <trkpt lat="45.26234" lon="1.97685">
        <ele>540.6</ele>
        <time>2022-08-05T10:19:02Z</time>
      </trkpt>
      <trkpt lat="45.2622" lon="1.97684">
        <ele>539.1</ele>
        <time>2022-08-05T10:19:04Z</time>
      </trkpt>
      <trkpt lat="45.26206" lon="1.9769">
        <ele>537.5</ele>
        <time>2022-08-05T10:19:06Z</time>
      </trkpt>
      <trkpt lat="45.26192" lon="1.977">
        <ele>536</ele>
        <time>2022-08-05T10:19:08Z</time>
      </trkpt>
      <trkpt lat="45.26179" lon="1.97715">
        <ele>534.7</ele>
        <time>2022-08-05T10:19:10Z</time>
      </trkpt>
      <trkpt lat="45.26165" lon="1.97727">
        <ele>533.7</ele>
        <time>2022-08-05T10:19:12Z</time>
      </trkpt>
      <trkpt lat="45.26151" lon="1.97742">
        <ele>533.3</ele>
        <time>2022-08-05T10:19:14Z</time>
      </trkpt>
      <trkpt lat="45.26136" lon="1.97758">
        <ele>532.6</ele>
        <time>2022-08-05T10:19:16Z</time>
      </trkpt>
      <trkpt lat="45.26121" lon="1.97773">
        <ele>531.5</ele>
        <time>2022-08-05T10:19:18Z</time>
      </trkpt>
      <trkpt lat="45.26105" lon="1.97789">
        <ele>530.6</ele>
        <time>2022-08-05T10:19:20Z</time>
      </trkpt>
      <trkpt lat="45.26089" lon="1.97806">
        <ele>529.8</ele>
        <time>2022-08-05T10:19:22Z</time>
      </trkpt>
      <trkpt lat="45.26073" lon="1.97822">
        <ele>529.9</ele>
        <time>2022-08-05T10:19:24Z</time>
      </trkpt>
      <trkpt lat="45.26056" lon="1.97838">
        <ele>530.7</ele>
        <time>2022-08-05T10:19:26Z</time>
      </trkpt>
      <trkpt lat="45.26039" lon="1.97855">
        <ele>530.9</ele>
        <time>2022-08-05T10:19:28Z</time>
      </trkpt>
      <trkpt lat="45.26023" lon="1.97874">
        <ele>530.8</ele>
        <time>2022-08-05T10:19:30Z</time>
      </trkpt>
      <trkpt lat="45.26006" lon="1.9789">
        <ele>530.7</ele>
        <time>2022-08-05T10:19:32Z</time>
      </trkpt>
      <trkpt lat="45.25989" lon="1.97904">
        <ele>529.6</ele>
        <time>2022-08-05T10:19:34Z</time>
      </trkpt>
      <trkpt lat="45.25972" lon="1.97923">
        <ele>528.2</ele>
        <time>2022-08-05T10:19:36Z</time>
      </trkpt>
      <trkpt lat="45.25955" lon="1.97936">
        <ele>526.8</ele>
        <time>2022-08-05T10:19:38Z</time>
      </trkpt>
      <trkpt lat="45.25938" lon="1.97954">
        <ele>525.1</ele>
        <time>2022-08-05T10:19:40Z</time>
      </trkpt>
      <trkpt lat="45.2592" lon="1.9797">
        <ele>523.5</ele>
        <time>2022-08-05T10:19:42Z</time>
      </trkpt>
      <trkpt lat="45.25901" lon="1.97982">
        <ele>522.6</ele>
        <time>2022-08-05T10:19:44Z</time>
      </trkpt>
      <trkpt lat="45.25882" lon="1.97992">
        <ele>522.3</ele>
        <time>2022-08-05T10:19:46Z</time>
      </trkpt>
      <trkpt lat="45.25862" lon="1.97999">
        <ele>522.3</ele>
        <time>2022-08-05T10:19:48Z</time>
      </trkpt>
      <trkpt lat="45.25843" lon="1.9801">
        <ele>522.3</ele>
        <time>2022-08-05T10:19:50Z</time>
      </trkpt>
      <trkpt lat="45.25824" lon="1.98017">
        <ele>521.8</ele>
        <time>2022-08-05T10:19:52Z</time>
      </trkpt>
      <trkpt lat="45.25806" lon="1.98026">
        <ele>520.7</ele>
        <time>2022-08-05T10:19:54Z</time>
      </trkpt>
      <trkpt lat="45.25788" lon="1.98032">
        <ele>520</ele>
        <time>2022-08-05T10:19:56Z</time>
      </trkpt>
      <trkpt lat="45.2577" lon="1.98042">
        <ele>519.5</ele>
        <time>2022-08-05T10:19:58Z</time>
      </trkpt>
      <trkpt lat="45.25753" lon="1.98049">
        <ele>519.2</ele>
        <time>2022-08-05T10:20:00Z</time>
      </trkpt>
      <trkpt lat="45.25737" lon="1.98057">
        <ele>518.6</ele>
        <time>2022-08-05T10:20:02Z</time>
      </trkpt>
      <trkpt lat="45.25722" lon="1.98063">
        <ele>517.8</ele>
        <time>2022-08-05T10:20:04Z</time>
      </trkpt>
      <trkpt lat="45.2571" lon="1.98069">
        <ele>517</ele>
        <time>2022-08-05T10:20:06Z</time>
      </trkpt>
      <trkpt lat="45.25701" lon="1.98075">
        <ele>516.5</ele>
        <time>2022-08-05T10:20:08Z</time>
      </trkpt>
      <trkpt lat="45.25699" lon="1.98074">
        <ele>516.3</ele>
        <time>2022-08-05T10:20:10Z</time>
      </trkpt>
      <trkpt lat="45.25699" lon="1.98073">
        <ele>516.3</ele>
        <time>2022-08-05T10:20:12Z</time>
      </trkpt>
      <trkpt lat="45.25699" lon="1.98072">
        <ele>516.3</ele>
        <time>2022-08-05T10:20:14Z</time>
      </trkpt>
      <trkpt lat="45.25698" lon="1.98071">
        <ele>516.3</ele>
        <time>2022-08-05T10:20:18Z</time>
      </trkpt>
      <trkpt lat="45.25701" lon="1.98054">
        <ele>516.4</ele>
        <time>2022-08-05T10:20:52Z</time>
      </trkpt>
      <trkpt lat="45.25705" lon="1.9805">
        <ele>516.6</ele>
        <time>2022-08-05T10:20:54Z</time>
      </trkpt>
      <trkpt lat="45.25708" lon="1.98047">
        <ele>516.8</ele>
        <time>2022-08-05T10:20:56Z</time>
      </trkpt>
      <trkpt lat="45.2571" lon="1.98044">
        <ele>516.9</ele>
        <time>2022-08-05T10:20:58Z</time>
      </trkpt>
      <trkpt lat="45.25713" lon="1.98039">
        <ele>517</ele>
        <time>2022-08-05T10:21:00Z</time>
      </trkpt>
      <trkpt lat="45.25716" lon="1.98034">
        <ele>517.1</ele>
        <time>2022-08-05T10:21:02Z</time>
      </trkpt>
      <trkpt lat="45.25719" lon="1.98029">
        <ele>517.2</ele>
        <time>2022-08-05T10:21:04Z</time>
      </trkpt>
      <trkpt lat="45.25718" lon="1.98025">
        <ele>517.1</ele>
        <time>2022-08-05T10:21:06Z</time>
      </trkpt>
      <trkpt lat="45.25718" lon="1.98019">
        <ele>517.1</ele>
        <time>2022-08-05T10:21:08Z</time>
      </trkpt>
      <trkpt lat="45.2572" lon="1.98013">
        <ele>517</ele>
        <time>2022-08-05T10:21:10Z</time>
      </trkpt>
      <trkpt lat="45.25721" lon="1.98007">
        <ele>517</ele>
        <time>2022-08-05T10:21:12Z</time>
      </trkpt>
      <trkpt lat="45.25721" lon="1.98001">
        <ele>517</ele>
        <time>2022-08-05T10:21:14Z</time>
      </trkpt>
      <trkpt lat="45.25721" lon="1.97996">
        <ele>517</ele>
        <time>2022-08-05T10:21:16Z</time>
      </trkpt>
      <trkpt lat="45.25719" lon="1.97989">
        <ele>517.1</ele>
        <time>2022-08-05T10:21:18Z</time>
      </trkpt>
      <trkpt lat="45.25719" lon="1.97985">
        <ele>517.1</ele>
        <time>2022-08-05T10:21:20Z</time>
      </trkpt>
      <trkpt lat="45.25717" lon="1.97983">
        <ele>517.1</ele>
        <time>2022-08-05T10:21:22Z</time>
      </trkpt>
      <trkpt lat="45.25717" lon="1.97983">
        <ele>517.1</ele>
        <time>2022-08-05T10:21:24Z</time>
      </trkpt>
      <trkpt lat="45.25717" lon="1.97982">
        <ele>517.1</ele>
        <time>2022-08-05T10:21:26Z</time>
      </trkpt>
      <trkpt lat="45.25718" lon="1.97984">
        <ele>517.1</ele>
        <time>2022-08-05T10:21:28Z</time>
      </trkpt>
      <trkpt lat="45.25718" lon="1.97984">
        <ele>517.1</ele>
        <time>2022-08-05T10:21:30Z</time>
      </trkpt>
      <trkpt lat="45.25744" lon="1.97995">
        <ele>517.9</ele>
        <time>2022-08-05T12:55:14Z</time>
      </trkpt>
      <trkpt lat="45.25745" lon="1.97996">
        <ele>517.9</ele>
        <time>2022-08-05T12:55:15Z</time>
      </trkpt>
      <trkpt lat="45.25697" lon="1.98001">
        <ele>516.1</ele>
        <time>2022-08-05T13:04:36Z</time>
      </trkpt>
      <trkpt lat="45.2572" lon="1.9801">
        <ele>517</ele>
        <time>2022-08-05T13:04:38Z</time>
      </trkpt>
      <trkpt lat="45.25716" lon="1.98011">
        <ele>516.9</ele>
        <time>2022-08-05T13:05:26Z</time>
      </trkpt>
      <trkpt lat="45.25714" lon="1.98014">
        <ele>516.8</ele>
        <time>2022-08-05T13:05:28Z</time>
      </trkpt>
      <trkpt lat="45.25712" lon="1.98019">
        <ele>516.8</ele>
        <time>2022-08-05T13:05:30Z</time>
      </trkpt>
      <trkpt lat="45.25712" lon="1.98023">
        <ele>516.8</ele>
        <time>2022-08-05T13:05:32Z</time>
      </trkpt>
      <trkpt lat="45.25714" lon="1.98025">
        <ele>516.9</ele>
        <time>2022-08-05T13:05:34Z</time>
      </trkpt>
      <trkpt lat="45.25714" lon="1.98028">
        <ele>516.9</ele>
        <time>2022-08-05T13:05:36Z</time>
      </trkpt>
      <trkpt lat="45.25715" lon="1.9803">
        <ele>517</ele>
        <time>2022-08-05T13:05:38Z</time>
      </trkpt>
      <trkpt lat="45.25714" lon="1.98032">
        <ele>517</ele>
        <time>2022-08-05T13:05:40Z</time>
      </trkpt>
      <trkpt lat="45.25713" lon="1.98036">
        <ele>517</ele>
        <time>2022-08-05T13:05:42Z</time>
      </trkpt>
      <trkpt lat="45.25712" lon="1.98038">
        <ele>516.9</ele>
        <time>2022-08-05T13:05:44Z</time>
      </trkpt>
      <trkpt lat="45.25711" lon="1.9804">
        <ele>516.9</ele>
        <time>2022-08-05T13:05:46Z</time>
      </trkpt>
      <trkpt lat="45.25712" lon="1.98041">
        <ele>516.9</ele>
        <time>2022-08-05T13:05:48Z</time>
      </trkpt>
      <trkpt lat="45.25711" lon="1.98041">
        <ele>516.9</ele>
        <time>2022-08-05T13:05:50Z</time>
      </trkpt>
      <trkpt lat="45.25711" lon="1.9804">
        <ele>516.9</ele>
        <time>2022-08-05T13:05:52Z</time>
      </trkpt>
      <trkpt lat="45.25698" lon="1.98078">
        <ele>516.3</ele>
        <time>2022-08-05T13:06:20Z</time>
      </trkpt>
      <trkpt lat="45.25695" lon="1.98081">
        <ele>516</ele>
        <time>2022-08-05T13:06:22Z</time>
      </trkpt>
      <trkpt lat="45.25689" lon="1.98084">
        <ele>515.6</ele>
        <time>2022-08-05T13:06:24Z</time>
      </trkpt>
      <trkpt lat="45.25684" lon="1.98087">
        <ele>515.4</ele>
        <time>2022-08-05T13:06:26Z</time>
      </trkpt>
      <trkpt lat="45.25677" lon="1.98091">
        <ele>515.1</ele>
        <time>2022-08-05T13:06:28Z</time>
      </trkpt>
      <trkpt lat="45.2567" lon="1.98096">
        <ele>514.8</ele>
        <time>2022-08-05T13:06:30Z</time>
      </trkpt>
      <trkpt lat="45.25662" lon="1.98099">
        <ele>515.1</ele>
        <time>2022-08-05T13:06:32Z</time>
      </trkpt>
      <trkpt lat="45.25653" lon="1.98105">
        <ele>516</ele>
        <time>2022-08-05T13:06:34Z</time>
      </trkpt>
      <trkpt lat="45.25644" lon="1.98109">
        <ele>516.9</ele>
        <time>2022-08-05T13:06:36Z</time>
      </trkpt>
      <trkpt lat="45.25635" lon="1.98111">
        <ele>517.7</ele>
        <time>2022-08-05T13:06:38Z</time>
      </trkpt>
      <trkpt lat="45.25627" lon="1.98112">
        <ele>518.5</ele>
        <time>2022-08-05T13:06:40Z</time>
      </trkpt>
      <trkpt lat="45.25618" lon="1.98114">
        <ele>519.2</ele>
        <time>2022-08-05T13:06:42Z</time>
      </trkpt>
      <trkpt lat="45.25611" lon="1.98114">
        <ele>519.8</ele>
        <time>2022-08-05T13:06:44Z</time>
      </trkpt>
      <trkpt lat="45.25603" lon="1.98112">
        <ele>520.3</ele>
        <time>2022-08-05T13:06:46Z</time>
      </trkpt>
      <trkpt lat="45.25594" lon="1.98107">
        <ele>520.5</ele>
        <time>2022-08-05T13:06:48Z</time>
      </trkpt>
      <trkpt lat="45.25588" lon="1.98099">
        <ele>520.2</ele>
        <time>2022-08-05T13:06:50Z</time>
      </trkpt>
      <trkpt lat="45.25582" lon="1.98091">
        <ele>519.7</ele>
        <time>2022-08-05T13:06:52Z</time>
      </trkpt>
      <trkpt lat="45.25579" lon="1.98083">
        <ele>519.2</ele>
        <time>2022-08-05T13:06:54Z</time>
      </trkpt>
      <trkpt lat="45.25575" lon="1.98076">
        <ele>519.2</ele>
        <time>2022-08-05T13:06:56Z</time>
      </trkpt>
      <trkpt lat="45.2557" lon="1.98071">
        <ele>519.2</ele>
        <time>2022-08-05T13:06:58Z</time>
      </trkpt>
      <trkpt lat="45.25565" lon="1.98064">
        <ele>519.3</ele>
        <time>2022-08-05T13:07:00Z</time>
      </trkpt>
      <trkpt lat="45.25559" lon="1.98061">
        <ele>519.5</ele>
        <time>2022-08-05T13:07:02Z</time>
      </trkpt>
      <trkpt lat="45.25554" lon="1.98056">
        <ele>519.7</ele>
        <time>2022-08-05T13:07:04Z</time>
      </trkpt>
      <trkpt lat="45.2555" lon="1.98053">
        <ele>519.8</ele>
        <time>2022-08-05T13:07:06Z</time>
      </trkpt>
      <trkpt lat="45.25545" lon="1.9805">
        <ele>520.1</ele>
        <time>2022-08-05T13:07:08Z</time>
      </trkpt>
      <trkpt lat="45.25539" lon="1.98048">
        <ele>520.5</ele>
        <time>2022-08-05T13:07:10Z</time>
      </trkpt>
      <trkpt lat="45.25533" lon="1.98048">
        <ele>520.8</ele>
        <time>2022-08-05T13:07:12Z</time>
      </trkpt>
      <trkpt lat="45.25528" lon="1.98046">
        <ele>521.2</ele>
        <time>2022-08-05T13:07:14Z</time>
      </trkpt>
      <trkpt lat="45.25522" lon="1.98046">
        <ele>521.5</ele>
        <time>2022-08-05T13:07:16Z</time>
      </trkpt>
      <trkpt lat="45.25516" lon="1.98047">
        <ele>522</ele>
        <time>2022-08-05T13:07:18Z</time>
      </trkpt>
      <trkpt lat="45.25511" lon="1.98048">
        <ele>522.4</ele>
        <time>2022-08-05T13:07:20Z</time>
      </trkpt>
      <trkpt lat="45.25505" lon="1.98049">
        <ele>522.8</ele>
        <time>2022-08-05T13:07:22Z</time>
      </trkpt>
      <trkpt lat="45.255" lon="1.98051">
        <ele>523.2</ele>
        <time>2022-08-05T13:07:24Z</time>
      </trkpt>
      <trkpt lat="45.25495" lon="1.98051">
        <ele>523.1</ele>
        <time>2022-08-05T13:07:26Z</time>
      </trkpt>
      <trkpt lat="45.2549" lon="1.98053">
        <ele>523.1</ele>
        <time>2022-08-05T13:07:28Z</time>
      </trkpt>
      <trkpt lat="45.25484" lon="1.98054">
        <ele>523</ele>
        <time>2022-08-05T13:07:30Z</time>
      </trkpt>
      <trkpt lat="45.25479" lon="1.98056">
        <ele>522.9</ele>
        <time>2022-08-05T13:07:32Z</time>
      </trkpt>
      <trkpt lat="45.25474" lon="1.98056">
        <ele>522.8</ele>
        <time>2022-08-05T13:07:34Z</time>
      </trkpt>
      <trkpt lat="45.25469" lon="1.98058">
        <ele>522.7</ele>
        <time>2022-08-05T13:07:36Z</time>
      </trkpt>
      <trkpt lat="45.25464" lon="1.98059">
        <ele>522.6</ele>
        <time>2022-08-05T13:07:38Z</time>
      </trkpt>
      <trkpt lat="45.25458" lon="1.9806">
        <ele>522.5</ele>
        <time>2022-08-05T13:07:40Z</time>
      </trkpt>
      <trkpt lat="45.25452" lon="1.98062">
        <ele>522.4</ele>
        <time>2022-08-05T13:07:42Z</time>
      </trkpt>
      <trkpt lat="45.25447" lon="1.98064">
        <ele>522.2</ele>
        <time>2022-08-05T13:07:44Z</time>
      </trkpt>
      <trkpt lat="45.2544" lon="1.98066">
        <ele>522</ele>
        <time>2022-08-05T13:07:46Z</time>
      </trkpt>
      <trkpt lat="45.25434" lon="1.98066">
        <ele>521.9</ele>
        <time>2022-08-05T13:07:48Z</time>
      </trkpt>
      <trkpt lat="45.25427" lon="1.98069">
        <ele>521.6</ele>
        <time>2022-08-05T13:07:50Z</time>
      </trkpt>
      <trkpt lat="45.25421" lon="1.9807">
        <ele>521.4</ele>
        <time>2022-08-05T13:07:52Z</time>
      </trkpt>
      <trkpt lat="45.25414" lon="1.98071">
        <ele>521.4</ele>
        <time>2022-08-05T13:07:54Z</time>
      </trkpt>
      <trkpt lat="45.25408" lon="1.98074">
        <ele>521.6</ele>
        <time>2022-08-05T13:07:56Z</time>
      </trkpt>
      <trkpt lat="45.25401" lon="1.98075">
        <ele>521.9</ele>
        <time>2022-08-05T13:07:58Z</time>
      </trkpt>
      <trkpt lat="45.25394" lon="1.98077">
        <ele>522.1</ele>
        <time>2022-08-05T13:08:00Z</time>
      </trkpt>
      <trkpt lat="45.25386" lon="1.98078">
        <ele>522.3</ele>
        <time>2022-08-05T13:08:02Z</time>
      </trkpt>
      <trkpt lat="45.25379" lon="1.98081">
        <ele>522.5</ele>
        <time>2022-08-05T13:08:04Z</time>
      </trkpt>
      <trkpt lat="45.25372" lon="1.98084">
        <ele>522.6</ele>
        <time>2022-08-05T13:08:06Z</time>
      </trkpt>
      <trkpt lat="45.25363" lon="1.98085">
        <ele>522.9</ele>
        <time>2022-08-05T13:08:08Z</time>
      </trkpt>
      <trkpt lat="45.25354" lon="1.98088">
        <ele>523</ele>
        <time>2022-08-05T13:08:10Z</time>
      </trkpt>
      <trkpt lat="45.25345" lon="1.98092">
        <ele>523</ele>
        <time>2022-08-05T13:08:12Z</time>
      </trkpt>
      <trkpt lat="45.25335" lon="1.98098">
        <ele>522.8</ele>
        <time>2022-08-05T13:08:14Z</time>
      </trkpt>
      <trkpt lat="45.25328" lon="1.98104">
        <ele>522.8</ele>
        <time>2022-08-05T13:08:16Z</time>
      </trkpt>
      <trkpt lat="45.25319" lon="1.98112">
        <ele>523.1</ele>
        <time>2022-08-05T13:08:18Z</time>
      </trkpt>
      <trkpt lat="45.2531" lon="1.98122">
        <ele>523.1</ele>
        <time>2022-08-05T13:08:20Z</time>
      </trkpt>
      <trkpt lat="45.253" lon="1.98134">
        <ele>522.7</ele>
        <time>2022-08-05T13:08:22Z</time>
      </trkpt>
      <trkpt lat="45.25292" lon="1.98144">
        <ele>522.2</ele>
        <time>2022-08-05T13:08:24Z</time>
      </trkpt>
      <trkpt lat="45.25284" lon="1.98155">
        <ele>521.4</ele>
        <time>2022-08-05T13:08:26Z</time>
      </trkpt>
      <trkpt lat="45.25274" lon="1.98168">
        <ele>520.5</ele>
        <time>2022-08-05T13:08:28Z</time>
      </trkpt>
      <trkpt lat="45.25264" lon="1.9818">
        <ele>520.2</ele>
        <time>2022-08-05T13:08:30Z</time>
      </trkpt>
      <trkpt lat="45.25253" lon="1.98191">
        <ele>519.6</ele>
        <time>2022-08-05T13:08:32Z</time>
      </trkpt>
      <trkpt lat="45.25242" lon="1.98205">
        <ele>519.9</ele>
        <time>2022-08-05T13:08:34Z</time>
      </trkpt>
      <trkpt lat="45.25232" lon="1.98216">
        <ele>520.2</ele>
        <time>2022-08-05T13:08:36Z</time>
      </trkpt>
      <trkpt lat="45.25223" lon="1.9823">
        <ele>520</ele>
        <time>2022-08-05T13:08:38Z</time>
      </trkpt>
      <trkpt lat="45.25215" lon="1.98244">
        <ele>519.4</ele>
        <time>2022-08-05T13:08:40Z</time>
      </trkpt>
      <trkpt lat="45.25208" lon="1.98259">
        <ele>519</ele>
        <time>2022-08-05T13:08:42Z</time>
      </trkpt>
      <trkpt lat="45.25197" lon="1.98271">
        <ele>519</ele>
        <time>2022-08-05T13:08:44Z</time>
      </trkpt>
      <trkpt lat="45.25186" lon="1.98284">
        <ele>518.5</ele>
        <time>2022-08-05T13:08:46Z</time>
      </trkpt>
      <trkpt lat="45.25174" lon="1.98296">
        <ele>517.5</ele>
        <time>2022-08-05T13:08:48Z</time>
      </trkpt>
      <trkpt lat="45.25161" lon="1.98305">
        <ele>517</ele>
        <time>2022-08-05T13:08:50Z</time>
      </trkpt>
      <trkpt lat="45.25148" lon="1.98314">
        <ele>517.1</ele>
        <time>2022-08-05T13:08:52Z</time>
      </trkpt>
      <trkpt lat="45.25134" lon="1.98323">
        <ele>517.1</ele>
        <time>2022-08-05T13:08:54Z</time>
      </trkpt>
      <trkpt lat="45.25119" lon="1.9833">
        <ele>517.3</ele>
        <time>2022-08-05T13:08:56Z</time>
      </trkpt>
      <trkpt lat="45.25105" lon="1.98339">
        <ele>516.8</ele>
        <time>2022-08-05T13:08:58Z</time>
      </trkpt>
      <trkpt lat="45.25091" lon="1.98347">
        <ele>516.4</ele>
        <time>2022-08-05T13:09:00Z</time>
      </trkpt>
      <trkpt lat="45.25076" lon="1.98356">
        <ele>515</ele>
        <time>2022-08-05T13:09:02Z</time>
      </trkpt>
      <trkpt lat="45.25063" lon="1.98365">
        <ele>512.9</ele>
        <time>2022-08-05T13:09:04Z</time>
      </trkpt>
      <trkpt lat="45.2505" lon="1.98373">
        <ele>511.1</ele>
        <time>2022-08-05T13:09:06Z</time>
      </trkpt>
      <trkpt lat="45.25036" lon="1.98379">
        <ele>509.7</ele>
        <time>2022-08-05T13:09:08Z</time>
      </trkpt>
      <trkpt lat="45.25021" lon="1.98383">
        <ele>508.9</ele>
        <time>2022-08-05T13:09:10Z</time>
      </trkpt>
      <trkpt lat="45.25007" lon="1.98384">
        <ele>508.6</ele>
        <time>2022-08-05T13:09:12Z</time>
      </trkpt>
      <trkpt lat="45.24994" lon="1.98383">
        <ele>509.1</ele>
        <time>2022-08-05T13:09:14Z</time>
      </trkpt>
      <trkpt lat="45.24981" lon="1.98382">
        <ele>510.3</ele>
        <time>2022-08-05T13:09:16Z</time>
      </trkpt>
      <trkpt lat="45.24969" lon="1.98383">
        <ele>510.8</ele>
        <time>2022-08-05T13:09:18Z</time>
      </trkpt>
      <trkpt lat="45.24957" lon="1.98384">
        <ele>511.1</ele>
        <time>2022-08-05T13:09:20Z</time>
      </trkpt>
      <trkpt lat="45.24946" lon="1.98386">
        <ele>511.4</ele>
        <time>2022-08-05T13:09:22Z</time>
      </trkpt>
      <trkpt lat="45.24935" lon="1.98388">
        <ele>511.6</ele>
        <time>2022-08-05T13:09:24Z</time>
      </trkpt>
      <trkpt lat="45.24925" lon="1.98391">
        <ele>511.7</ele>
        <time>2022-08-05T13:09:26Z</time>
      </trkpt>
      <trkpt lat="45.24915" lon="1.98397">
        <ele>511.2</ele>
        <time>2022-08-05T13:09:28Z</time>
      </trkpt>
      <trkpt lat="45.24906" lon="1.98405">
        <ele>509.6</ele>
        <time>2022-08-05T13:09:30Z</time>
      </trkpt>
      <trkpt lat="45.24897" lon="1.98412">
        <ele>508.2</ele>
        <time>2022-08-05T13:09:32Z</time>
      </trkpt>
      <trkpt lat="45.24888" lon="1.98418">
        <ele>507</ele>
        <time>2022-08-05T13:09:34Z</time>
      </trkpt>
      <trkpt lat="45.24879" lon="1.98423">
        <ele>506</ele>
        <time>2022-08-05T13:09:36Z</time>
      </trkpt>
      <trkpt lat="45.24869" lon="1.98427">
        <ele>505.2</ele>
        <time>2022-08-05T13:09:38Z</time>
      </trkpt>
      <trkpt lat="45.24859" lon="1.98429">
        <ele>504.9</ele>
        <time>2022-08-05T13:09:40Z</time>
      </trkpt>
      <trkpt lat="45.2485" lon="1.9843">
        <ele>504.8</ele>
        <time>2022-08-05T13:09:42Z</time>
      </trkpt>
      <trkpt lat="45.24841" lon="1.98429">
        <ele>504.8</ele>
        <time>2022-08-05T13:09:44Z</time>
      </trkpt>
      <trkpt lat="45.24832" lon="1.98428">
        <ele>504.8</ele>
        <time>2022-08-05T13:09:46Z</time>
      </trkpt>
      <trkpt lat="45.24824" lon="1.98421">
        <ele>504.6</ele>
        <time>2022-08-05T13:09:48Z</time>
      </trkpt>
      <trkpt lat="45.24819" lon="1.98412">
        <ele>504.7</ele>
        <time>2022-08-05T13:09:50Z</time>
      </trkpt>
      <trkpt lat="45.24814" lon="1.98401">
        <ele>504.5</ele>
        <time>2022-08-05T13:09:52Z</time>
      </trkpt>
      <trkpt lat="45.24811" lon="1.98388">
        <ele>504.7</ele>
        <time>2022-08-05T13:09:54Z</time>
      </trkpt>
      <trkpt lat="45.24809" lon="1.98376">
        <ele>504.8</ele>
        <time>2022-08-05T13:09:56Z</time>
      </trkpt>
      <trkpt lat="45.24806" lon="1.98362">
        <ele>504.9</ele>
        <time>2022-08-05T13:09:58Z</time>
      </trkpt>
      <trkpt lat="45.24804" lon="1.98347">
        <ele>505</ele>
        <time>2022-08-05T13:10:00Z</time>
      </trkpt>
      <trkpt lat="45.24802" lon="1.98331">
        <ele>504.9</ele>
        <time>2022-08-05T13:10:02Z</time>
      </trkpt>
      <trkpt lat="45.24798" lon="1.98316">
        <ele>504.5</ele>
        <time>2022-08-05T13:10:04Z</time>
      </trkpt>
      <trkpt lat="45.24789" lon="1.98302">
        <ele>503.3</ele>
        <time>2022-08-05T13:10:06Z</time>
      </trkpt>
      <trkpt lat="45.24778" lon="1.9829">
        <ele>501.6</ele>
        <time>2022-08-05T13:10:08Z</time>
      </trkpt>
      <trkpt lat="45.24765" lon="1.98279">
        <ele>499.6</ele>
        <time>2022-08-05T13:10:10Z</time>
      </trkpt>
      <trkpt lat="45.24751" lon="1.98268">
        <ele>497.5</ele>
        <time>2022-08-05T13:10:12Z</time>
      </trkpt>
      <trkpt lat="45.24735" lon="1.98257">
        <ele>498.6</ele>
        <time>2022-08-05T13:10:14Z</time>
      </trkpt>
      <trkpt lat="45.24721" lon="1.98247">
        <ele>500.1</ele>
        <time>2022-08-05T13:10:16Z</time>
      </trkpt>
      <trkpt lat="45.24707" lon="1.98242">
        <ele>501.5</ele>
        <time>2022-08-05T13:10:18Z</time>
      </trkpt>
      <trkpt lat="45.24696" lon="1.9824">
        <ele>502.3</ele>
        <time>2022-08-05T13:10:20Z</time>
      </trkpt>
      <trkpt lat="45.24685" lon="1.98241">
        <ele>502.7</ele>
        <time>2022-08-05T13:10:22Z</time>
      </trkpt>
      <trkpt lat="45.24676" lon="1.98244">
        <ele>503</ele>
        <time>2022-08-05T13:10:24Z</time>
      </trkpt>
      <trkpt lat="45.24668" lon="1.98249">
        <ele>503</ele>
        <time>2022-08-05T13:10:26Z</time>
      </trkpt>
      <trkpt lat="45.24661" lon="1.98253">
        <ele>503.4</ele>
        <time>2022-08-05T13:10:28Z</time>
      </trkpt>
      <trkpt lat="45.24656" lon="1.98257">
        <ele>503.7</ele>
        <time>2022-08-05T13:10:30Z</time>
      </trkpt>
      <trkpt lat="45.24652" lon="1.98261">
        <ele>503.8</ele>
        <time>2022-08-05T13:10:32Z</time>
      </trkpt>
      <trkpt lat="45.24648" lon="1.98266">
        <ele>503.9</ele>
        <time>2022-08-05T13:10:34Z</time>
      </trkpt>
      <trkpt lat="45.24646" lon="1.9827">
        <ele>503.9</ele>
        <time>2022-08-05T13:10:36Z</time>
      </trkpt>
      <trkpt lat="45.24644" lon="1.98273">
        <ele>503.8</ele>
        <time>2022-08-05T13:10:38Z</time>
      </trkpt>
      <trkpt lat="45.24641" lon="1.98277">
        <ele>503.8</ele>
        <time>2022-08-05T13:10:40Z</time>
      </trkpt>
      <trkpt lat="45.2464" lon="1.9828">
        <ele>503.7</ele>
        <time>2022-08-05T13:10:42Z</time>
      </trkpt>
      <trkpt lat="45.24638" lon="1.98285">
        <ele>503.6</ele>
        <time>2022-08-05T13:10:44Z</time>
      </trkpt>
      <trkpt lat="45.24637" lon="1.98287">
        <ele>503.5</ele>
        <time>2022-08-05T13:10:46Z</time>
      </trkpt>
      <trkpt lat="45.24636" lon="1.98292">
        <ele>503.3</ele>
        <time>2022-08-05T13:10:48Z</time>
      </trkpt>
      <trkpt lat="45.24634" lon="1.98296">
        <ele>503.2</ele>
        <time>2022-08-05T13:10:50Z</time>
      </trkpt>
      <trkpt lat="45.24631" lon="1.98299">
        <ele>503.1</ele>
        <time>2022-08-05T13:10:52Z</time>
      </trkpt>
      <trkpt lat="45.24628" lon="1.98303">
        <ele>503.1</ele>
        <time>2022-08-05T13:10:54Z</time>
      </trkpt>
      <trkpt lat="45.24626" lon="1.98306">
        <ele>503</ele>
        <time>2022-08-05T13:10:56Z</time>
      </trkpt>
      <trkpt lat="45.24623" lon="1.98309">
        <ele>503.1</ele>
        <time>2022-08-05T13:10:58Z</time>
      </trkpt>
      <trkpt lat="45.2462" lon="1.98312">
        <ele>503.1</ele>
        <time>2022-08-05T13:11:00Z</time>
      </trkpt>
      <trkpt lat="45.24616" lon="1.98314">
        <ele>503.2</ele>
        <time>2022-08-05T13:11:02Z</time>
      </trkpt>
      <trkpt lat="45.24613" lon="1.98316">
        <ele>503.3</ele>
        <time>2022-08-05T13:11:04Z</time>
      </trkpt>
      <trkpt lat="45.2461" lon="1.98319">
        <ele>503.3</ele>
        <time>2022-08-05T13:11:06Z</time>
      </trkpt>
      <trkpt lat="45.24607" lon="1.98322">
        <ele>503.2</ele>
        <time>2022-08-05T13:11:08Z</time>
      </trkpt>
      <trkpt lat="45.24604" lon="1.98322">
        <ele>503.5</ele>
        <time>2022-08-05T13:11:10Z</time>
      </trkpt>
      <trkpt lat="45.24601" lon="1.98321">
        <ele>503.8</ele>
        <time>2022-08-05T13:11:12Z</time>
      </trkpt>
      <trkpt lat="45.24599" lon="1.98322">
        <ele>503.9</ele>
        <time>2022-08-05T13:11:14Z</time>
      </trkpt>
      <trkpt lat="45.24596" lon="1.98323">
        <ele>504</ele>
        <time>2022-08-05T13:11:16Z</time>
      </trkpt>
      <trkpt lat="45.24595" lon="1.98324">
        <ele>504</ele>
        <time>2022-08-05T13:11:18Z</time>
      </trkpt>
      <trkpt lat="45.24595" lon="1.98325">
        <ele>504</ele>
        <time>2022-08-05T13:11:20Z</time>
      </trkpt>
      <trkpt lat="45.24595" lon="1.98325">
        <ele>504</ele>
        <time>2022-08-05T13:11:22Z</time>
      </trkpt>
      <trkpt lat="45.24581" lon="1.98323">
        <ele>505</ele>
        <time>2022-08-05T13:12:00Z</time>
      </trkpt>
      <trkpt lat="45.24576" lon="1.9832">
        <ele>505.3</ele>
        <time>2022-08-05T13:12:02Z</time>
      </trkpt>
      <trkpt lat="45.24572" lon="1.98317">
        <ele>505.5</ele>
        <time>2022-08-05T13:12:04Z</time>
      </trkpt>
      <trkpt lat="45.24568" lon="1.98316">
        <ele>505.6</ele>
        <time>2022-08-05T13:12:06Z</time>
      </trkpt>
      <trkpt lat="45.24564" lon="1.98316">
        <ele>505.6</ele>
        <time>2022-08-05T13:12:08Z</time>
      </trkpt>
      <trkpt lat="45.24559" lon="1.98317">
        <ele>505.4</ele>
        <time>2022-08-05T13:12:10Z</time>
      </trkpt>
      <trkpt lat="45.24555" lon="1.98318">
        <ele>505.4</ele>
        <time>2022-08-05T13:12:12Z</time>
      </trkpt>
      <trkpt lat="45.24551" lon="1.98318">
        <ele>505.3</ele>
        <time>2022-08-05T13:12:14Z</time>
      </trkpt>
      <trkpt lat="45.24547" lon="1.98319">
        <ele>505.3</ele>
        <time>2022-08-05T13:12:16Z</time>
      </trkpt>
      <trkpt lat="45.24544" lon="1.98319">
        <ele>505.2</ele>
        <time>2022-08-05T13:12:18Z</time>
      </trkpt>
      <trkpt lat="45.24542" lon="1.98319">
        <ele>505.2</ele>
        <time>2022-08-05T13:12:20Z</time>
      </trkpt>
      <trkpt lat="45.24542" lon="1.98319">
        <ele>505.2</ele>
        <time>2022-08-05T13:12:22Z</time>
      </trkpt>
      <trkpt lat="45.24541" lon="1.98319">
        <ele>505.2</ele>
        <time>2022-08-05T13:12:24Z</time>
      </trkpt>
      <trkpt lat="45.24541" lon="1.9832">
        <ele>505.1</ele>
        <time>2022-08-05T13:12:26Z</time>
      </trkpt>
      <trkpt lat="45.24541" lon="1.9832">
        <ele>505.1</ele>
        <time>2022-08-05T13:12:28Z</time>
      </trkpt>
      <trkpt lat="45.24569" lon="1.98311">
        <ele>506</ele>
        <time>2022-08-05T13:17:10Z</time>
      </trkpt>
      <trkpt lat="45.24564" lon="1.98313">
        <ele>505.9</ele>
        <time>2022-08-05T13:17:12Z</time>
      </trkpt>
      <trkpt lat="45.24559" lon="1.98313">
        <ele>505.8</ele>
        <time>2022-08-05T13:17:14Z</time>
      </trkpt>
      <trkpt lat="45.24554" lon="1.98314">
        <ele>505.7</ele>
        <time>2022-08-05T13:17:16Z</time>
      </trkpt>
      <trkpt lat="45.24548" lon="1.98315">
        <ele>505.6</ele>
        <time>2022-08-05T13:17:18Z</time>
      </trkpt>
      <trkpt lat="45.24542" lon="1.98316">
        <ele>505.5</ele>
        <time>2022-08-05T13:17:20Z</time>
      </trkpt>
      <trkpt lat="45.24536" lon="1.98316">
        <ele>505.4</ele>
        <time>2022-08-05T13:17:22Z</time>
      </trkpt>
      <trkpt lat="45.24531" lon="1.98317">
        <ele>505.3</ele>
        <time>2022-08-05T13:17:24Z</time>
      </trkpt>
      <trkpt lat="45.24525" lon="1.98318">
        <ele>505.2</ele>
        <time>2022-08-05T13:17:26Z</time>
      </trkpt>
      <trkpt lat="45.2452" lon="1.9832">
        <ele>505.1</ele>
        <time>2022-08-05T13:17:28Z</time>
      </trkpt>
      <trkpt lat="45.24514" lon="1.98321">
        <ele>504.9</ele>
        <time>2022-08-05T13:17:30Z</time>
      </trkpt>
      <trkpt lat="45.24509" lon="1.98322">
        <ele>504.9</ele>
        <time>2022-08-05T13:17:32Z</time>
      </trkpt>
      <trkpt lat="45.24504" lon="1.98322">
        <ele>504.8</ele>
        <time>2022-08-05T13:17:34Z</time>
      </trkpt>
      <trkpt lat="45.24498" lon="1.98323">
        <ele>504.7</ele>
        <time>2022-08-05T13:17:36Z</time>
      </trkpt>
      <trkpt lat="45.24492" lon="1.98324">
        <ele>504.5</ele>
        <time>2022-08-05T13:17:38Z</time>
      </trkpt>
      <trkpt lat="45.24486" lon="1.98324">
        <ele>504.3</ele>
        <time>2022-08-05T13:17:40Z</time>
      </trkpt>
      <trkpt lat="45.24481" lon="1.98325">
        <ele>504.2</ele>
        <time>2022-08-05T13:17:42Z</time>
      </trkpt>
      <trkpt lat="45.24475" lon="1.98324">
        <ele>504</ele>
        <time>2022-08-05T13:17:44Z</time>
      </trkpt>
      <trkpt lat="45.24469" lon="1.98321">
        <ele>503.9</ele>
        <time>2022-08-05T13:17:46Z</time>
      </trkpt>
      <trkpt lat="45.24463" lon="1.98318">
        <ele>503.9</ele>
        <time>2022-08-05T13:17:48Z</time>
      </trkpt>
      <trkpt lat="45.24459" lon="1.98312">
        <ele>503.8</ele>
        <time>2022-08-05T13:17:50Z</time>
      </trkpt>
      <trkpt lat="45.24454" lon="1.98307">
        <ele>503.6</ele>
        <time>2022-08-05T13:17:52Z</time>
      </trkpt>
      <trkpt lat="45.24452" lon="1.98298">
        <ele>503.5</ele>
        <time>2022-08-05T13:17:54Z</time>
      </trkpt>
      <trkpt lat="45.2445" lon="1.98289">
        <ele>503.4</ele>
        <time>2022-08-05T13:17:56Z</time>
      </trkpt>
      <trkpt lat="45.24449" lon="1.98278">
        <ele>503.3</ele>
        <time>2022-08-05T13:17:58Z</time>
      </trkpt>
      <trkpt lat="45.24451" lon="1.98267">
        <ele>503.5</ele>
        <time>2022-08-05T13:18:00Z</time>
      </trkpt>
      <trkpt lat="45.24455" lon="1.98255">
        <ele>504.1</ele>
        <time>2022-08-05T13:18:02Z</time>
      </trkpt>
      <trkpt lat="45.24461" lon="1.98243">
        <ele>504.7</ele>
        <time>2022-08-05T13:18:04Z</time>
      </trkpt>
      <trkpt lat="45.24466" lon="1.98231">
        <ele>505.3</ele>
        <time>2022-08-05T13:18:06Z</time>
      </trkpt>
      <trkpt lat="45.2447" lon="1.98217">
        <ele>505.5</ele>
        <time>2022-08-05T13:18:08Z</time>
      </trkpt>
      <trkpt lat="45.2447" lon="1.98202">
        <ele>505.4</ele>
        <time>2022-08-05T13:18:10Z</time>
      </trkpt>
      <trkpt lat="45.2447" lon="1.98186">
        <ele>505.2</ele>
        <time>2022-08-05T13:18:12Z</time>
      </trkpt>
      <trkpt lat="45.24469" lon="1.98169">
        <ele>504.9</ele>
        <time>2022-08-05T13:18:14Z</time>
      </trkpt>
      <trkpt lat="45.24469" lon="1.98151">
        <ele>504.5</ele>
        <time>2022-08-05T13:18:16Z</time>
      </trkpt>
      <trkpt lat="45.2447" lon="1.98133">
        <ele>504.3</ele>
        <time>2022-08-05T13:18:18Z</time>
      </trkpt>
      <trkpt lat="45.24471" lon="1.98115">
        <ele>504.1</ele>
        <time>2022-08-05T13:18:20Z</time>
      </trkpt>
      <trkpt lat="45.24474" lon="1.98097">
        <ele>504.1</ele>
        <time>2022-08-05T13:18:22Z</time>
      </trkpt>
      <trkpt lat="45.24477" lon="1.98076">
        <ele>503.8</ele>
        <time>2022-08-05T13:18:24Z</time>
      </trkpt>
      <trkpt lat="45.2448" lon="1.98056">
        <ele>503.1</ele>
        <time>2022-08-05T13:18:26Z</time>
      </trkpt>
      <trkpt lat="45.24485" lon="1.98038">
        <ele>502.7</ele>
        <time>2022-08-05T13:18:28Z</time>
      </trkpt>
      <trkpt lat="45.2449" lon="1.9802">
        <ele>502.1</ele>
        <time>2022-08-05T13:18:30Z</time>
      </trkpt>
      <trkpt lat="45.24495" lon="1.98001">
        <ele>501.6</ele>
        <time>2022-08-05T13:18:32Z</time>
      </trkpt>
      <trkpt lat="45.24501" lon="1.97981">
        <ele>502</ele>
        <time>2022-08-05T13:18:34Z</time>
      </trkpt>
      <trkpt lat="45.24507" lon="1.97962">
        <ele>502.5</ele>
        <time>2022-08-05T13:18:36Z</time>
      </trkpt>
      <trkpt lat="45.2451" lon="1.97944">
        <ele>502.9</ele>
        <time>2022-08-05T13:18:38Z</time>
      </trkpt>
      <trkpt lat="45.2451" lon="1.97926">
        <ele>502.5</ele>
        <time>2022-08-05T13:18:40Z</time>
      </trkpt>
      <trkpt lat="45.24502" lon="1.97908">
        <ele>501.5</ele>
        <time>2022-08-05T13:18:42Z</time>
      </trkpt>
      <trkpt lat="45.24489" lon="1.979">
        <ele>500.3</ele>
        <time>2022-08-05T13:18:44Z</time>
      </trkpt>
      <trkpt lat="45.24474" lon="1.97894">
        <ele>498.9</ele>
        <time>2022-08-05T13:18:46Z</time>
      </trkpt>
      <trkpt lat="45.2446" lon="1.97887">
        <ele>497.5</ele>
        <time>2022-08-05T13:18:48Z</time>
      </trkpt>
      <trkpt lat="45.24446" lon="1.97873">
        <ele>496.2</ele>
        <time>2022-08-05T13:18:50Z</time>
      </trkpt>
      <trkpt lat="45.24436" lon="1.97854">
        <ele>495.3</ele>
        <time>2022-08-05T13:18:52Z</time>
      </trkpt>
      <trkpt lat="45.24433" lon="1.97829">
        <ele>494.9</ele>
        <time>2022-08-05T13:18:54Z</time>
      </trkpt>
      <trkpt lat="45.24433" lon="1.97803">
        <ele>494.6</ele>
        <time>2022-08-05T13:18:56Z</time>
      </trkpt>
      <trkpt lat="45.24434" lon="1.97777">
        <ele>494.3</ele>
        <time>2022-08-05T13:18:58Z</time>
      </trkpt>
      <trkpt lat="45.24433" lon="1.97751">
        <ele>494</ele>
        <time>2022-08-05T13:19:00Z</time>
      </trkpt>
      <trkpt lat="45.24434" lon="1.97727">
        <ele>493.5</ele>
        <time>2022-08-05T13:19:02Z</time>
      </trkpt>
      <trkpt lat="45.24434" lon="1.97705">
        <ele>493</ele>
        <time>2022-08-05T13:19:04Z</time>
      </trkpt>
      <trkpt lat="45.24432" lon="1.97685">
        <ele>492.3</ele>
        <time>2022-08-05T13:19:06Z</time>
      </trkpt>
      <trkpt lat="45.24421" lon="1.97673">
        <ele>491.3</ele>
        <time>2022-08-05T13:19:08Z</time>
      </trkpt>
      <trkpt lat="45.24408" lon="1.9767">
        <ele>491.7</ele>
        <time>2022-08-05T13:19:10Z</time>
      </trkpt>
      <trkpt lat="45.24396" lon="1.97677">
        <ele>492.6</ele>
        <time>2022-08-05T13:19:12Z</time>
      </trkpt>
      <trkpt lat="45.24386" lon="1.97689">
        <ele>493.5</ele>
        <time>2022-08-05T13:19:14Z</time>
      </trkpt>
      <trkpt lat="45.24382" lon="1.97704">
        <ele>493.9</ele>
        <time>2022-08-05T13:19:16Z</time>
      </trkpt>
      <trkpt lat="45.24381" lon="1.97719">
        <ele>494.2</ele>
        <time>2022-08-05T13:19:18Z</time>
      </trkpt>
      <trkpt lat="45.24382" lon="1.97729">
        <ele>494.3</ele>
        <time>2022-08-05T13:19:20Z</time>
      </trkpt>
      <trkpt lat="45.24382" lon="1.9774">
        <ele>494.4</ele>
        <time>2022-08-05T13:19:22Z</time>
      </trkpt>
      <trkpt lat="45.24381" lon="1.9775">
        <ele>494.5</ele>
        <time>2022-08-05T13:19:24Z</time>
      </trkpt>
      <trkpt lat="45.24381" lon="1.97759">
        <ele>494.6</ele>
        <time>2022-08-05T13:19:26Z</time>
      </trkpt>
      <trkpt lat="45.2438" lon="1.97767">
        <ele>494.7</ele>
        <time>2022-08-05T13:19:28Z</time>
      </trkpt>
      <trkpt lat="45.24379" lon="1.97773">
        <ele>494.7</ele>
        <time>2022-08-05T13:19:30Z</time>
      </trkpt>
      <trkpt lat="45.24378" lon="1.9778">
        <ele>494.8</ele>
        <time>2022-08-05T13:19:32Z</time>
      </trkpt>
      <trkpt lat="45.24377" lon="1.97787">
        <ele>494.9</ele>
        <time>2022-08-05T13:19:34Z</time>
      </trkpt>
      <trkpt lat="45.24374" lon="1.97793">
        <ele>495</ele>
        <time>2022-08-05T13:19:36Z</time>
      </trkpt>
      <trkpt lat="45.24371" lon="1.97798">
        <ele>495.2</ele>
        <time>2022-08-05T13:19:38Z</time>
      </trkpt>
      <trkpt lat="45.2437" lon="1.97805">
        <ele>495.3</ele>
        <time>2022-08-05T13:19:40Z</time>
      </trkpt>
      <trkpt lat="45.24369" lon="1.97809">
        <ele>495.4</ele>
        <time>2022-08-05T13:19:42Z</time>
      </trkpt>
      <trkpt lat="45.24367" lon="1.97813">
        <ele>495.4</ele>
        <time>2022-08-05T13:19:44Z</time>
      </trkpt>
      <trkpt lat="45.24365" lon="1.97819">
        <ele>495.5</ele>
        <time>2022-08-05T13:19:46Z</time>
      </trkpt>
      <trkpt lat="45.24362" lon="1.97826">
        <ele>495.7</ele>
        <time>2022-08-05T13:19:48Z</time>
      </trkpt>
      <trkpt lat="45.24359" lon="1.97829">
        <ele>495.8</ele>
        <time>2022-08-05T13:19:50Z</time>
      </trkpt>
      <trkpt lat="45.24356" lon="1.97833">
        <ele>495.9</ele>
        <time>2022-08-05T13:19:52Z</time>
      </trkpt>
      <trkpt lat="45.24352" lon="1.97837">
        <ele>495.9</ele>
        <time>2022-08-05T13:19:54Z</time>
      </trkpt>
      <trkpt lat="45.24348" lon="1.97839">
        <ele>496</ele>
        <time>2022-08-05T13:19:56Z</time>
      </trkpt>
      <trkpt lat="45.24346" lon="1.97844">
        <ele>496</ele>
        <time>2022-08-05T13:19:58Z</time>
      </trkpt>
      <trkpt lat="45.24342" lon="1.97848">
        <ele>495.9</ele>
        <time>2022-08-05T13:20:00Z</time>
      </trkpt>
      <trkpt lat="45.24339" lon="1.97851">
        <ele>496</ele>
        <time>2022-08-05T13:20:02Z</time>
      </trkpt>
      <trkpt lat="45.24335" lon="1.97853">
        <ele>496</ele>
        <time>2022-08-05T13:20:04Z</time>
      </trkpt>
      <trkpt lat="45.24332" lon="1.97857">
        <ele>496.1</ele>
        <time>2022-08-05T13:20:06Z</time>
      </trkpt>
      <trkpt lat="45.24329" lon="1.9786">
        <ele>496.5</ele>
        <time>2022-08-05T13:20:08Z</time>
      </trkpt>
      <trkpt lat="45.24326" lon="1.97864">
        <ele>496.8</ele>
        <time>2022-08-05T13:20:10Z</time>
      </trkpt>
      <trkpt lat="45.24323" lon="1.97867">
        <ele>497.3</ele>
        <time>2022-08-05T13:20:12Z</time>
      </trkpt>
      <trkpt lat="45.24319" lon="1.9787">
        <ele>497.7</ele>
        <time>2022-08-05T13:20:14Z</time>
      </trkpt>
      <trkpt lat="45.24316" lon="1.97874">
        <ele>498.2</ele>
        <time>2022-08-05T13:20:16Z</time>
      </trkpt>
      <trkpt lat="45.24312" lon="1.97879">
        <ele>498.6</ele>
        <time>2022-08-05T13:20:18Z</time>
      </trkpt>
      <trkpt lat="45.24309" lon="1.97882">
        <ele>499.2</ele>
        <time>2022-08-05T13:20:20Z</time>
      </trkpt>
      <trkpt lat="45.24306" lon="1.97887">
        <ele>499.6</ele>
        <time>2022-08-05T13:20:22Z</time>
      </trkpt>
      <trkpt lat="45.24303" lon="1.97892">
        <ele>499.9</ele>
        <time>2022-08-05T13:20:24Z</time>
      </trkpt>
      <trkpt lat="45.24301" lon="1.97896">
        <ele>500.2</ele>
        <time>2022-08-05T13:20:26Z</time>
      </trkpt>
      <trkpt lat="45.24299" lon="1.97901">
        <ele>500.5</ele>
        <time>2022-08-05T13:20:28Z</time>
      </trkpt>
      <trkpt lat="45.24297" lon="1.97906">
        <ele>500.6</ele>
        <time>2022-08-05T13:20:30Z</time>
      </trkpt>
      <trkpt lat="45.24296" lon="1.97911">
        <ele>500.8</ele>
        <time>2022-08-05T13:20:32Z</time>
      </trkpt>
      <trkpt lat="45.24294" lon="1.97915">
        <ele>501</ele>
        <time>2022-08-05T13:20:34Z</time>
      </trkpt>
      <trkpt lat="45.24292" lon="1.97919">
        <ele>501.1</ele>
        <time>2022-08-05T13:20:36Z</time>
      </trkpt>
      <trkpt lat="45.24291" lon="1.97923">
        <ele>500.9</ele>
        <time>2022-08-05T13:20:38Z</time>
      </trkpt>
      <trkpt lat="45.2429" lon="1.97929">
        <ele>500.4</ele>
        <time>2022-08-05T13:20:40Z</time>
      </trkpt>
      <trkpt lat="45.24289" lon="1.97934">
        <ele>500</ele>
        <time>2022-08-05T13:20:42Z</time>
      </trkpt>
      <trkpt lat="45.24287" lon="1.97938">
        <ele>499.8</ele>
        <time>2022-08-05T13:20:44Z</time>
      </trkpt>
      <trkpt lat="45.24285" lon="1.97942">
        <ele>499.6</ele>
        <time>2022-08-05T13:20:46Z</time>
      </trkpt>
      <trkpt lat="45.24284" lon="1.97947">
        <ele>499.4</ele>
        <time>2022-08-05T13:20:48Z</time>
      </trkpt>
      <trkpt lat="45.24282" lon="1.97951">
        <ele>499.2</ele>
        <time>2022-08-05T13:20:50Z</time>
      </trkpt>
      <trkpt lat="45.2428" lon="1.97955">
        <ele>499.1</ele>
        <time>2022-08-05T13:20:52Z</time>
      </trkpt>
      <trkpt lat="45.24277" lon="1.97958">
        <ele>499.2</ele>
        <time>2022-08-05T13:20:54Z</time>
      </trkpt>
      <trkpt lat="45.24274" lon="1.97962">
        <ele>499.3</ele>
        <time>2022-08-05T13:20:56Z</time>
      </trkpt>
      <trkpt lat="45.24271" lon="1.97965">
        <ele>499.4</ele>
        <time>2022-08-05T13:20:58Z</time>
      </trkpt>
      <trkpt lat="45.24268" lon="1.97967">
        <ele>499.7</ele>
        <time>2022-08-05T13:21:00Z</time>
      </trkpt>
      <trkpt lat="45.24265" lon="1.97969">
        <ele>499.9</ele>
        <time>2022-08-05T13:21:02Z</time>
      </trkpt>
      <trkpt lat="45.24261" lon="1.97972">
        <ele>500.1</ele>
        <time>2022-08-05T13:21:04Z</time>
      </trkpt>
      <trkpt lat="45.24257" lon="1.97973">
        <ele>500.6</ele>
        <time>2022-08-05T13:21:06Z</time>
      </trkpt>
      <trkpt lat="45.24254" lon="1.97975">
        <ele>501</ele>
        <time>2022-08-05T13:21:08Z</time>
      </trkpt>
      <trkpt lat="45.24251" lon="1.97976">
        <ele>501.2</ele>
        <time>2022-08-05T13:21:10Z</time>
      </trkpt>
      <trkpt lat="45.24247" lon="1.97978">
        <ele>501.2</ele>
        <time>2022-08-05T13:21:12Z</time>
      </trkpt>
      <trkpt lat="45.24244" lon="1.97979">
        <ele>501.1</ele>
        <time>2022-08-05T13:21:14Z</time>
      </trkpt>
      <trkpt lat="45.2424" lon="1.97981">
        <ele>501</ele>
        <time>2022-08-05T13:21:16Z</time>
      </trkpt>
      <trkpt lat="45.24237" lon="1.97981">
        <ele>501</ele>
        <time>2022-08-05T13:21:18Z</time>
      </trkpt>
      <trkpt lat="45.24233" lon="1.97983">
        <ele>500.9</ele>
        <time>2022-08-05T13:21:20Z</time>
      </trkpt>
      <trkpt lat="45.2423" lon="1.97984">
        <ele>500.9</ele>
        <time>2022-08-05T13:21:22Z</time>
      </trkpt>
      <trkpt lat="45.24226" lon="1.97984">
        <ele>500.9</ele>
        <time>2022-08-05T13:21:24Z</time>
      </trkpt>
      <trkpt lat="45.24223" lon="1.97984">
        <ele>501</ele>
        <time>2022-08-05T13:21:26Z</time>
      </trkpt>
      <trkpt lat="45.24219" lon="1.97984">
        <ele>501</ele>
        <time>2022-08-05T13:21:28Z</time>
      </trkpt>
      <trkpt lat="45.24216" lon="1.97983">
        <ele>501.3</ele>
        <time>2022-08-05T13:21:30Z</time>
      </trkpt>
      <trkpt lat="45.24213" lon="1.97982">
        <ele>501.5</ele>
        <time>2022-08-05T13:21:32Z</time>
      </trkpt>
      <trkpt lat="45.24209" lon="1.9798">
        <ele>501.8</ele>
        <time>2022-08-05T13:21:34Z</time>
      </trkpt>
      <trkpt lat="45.24206" lon="1.9798">
        <ele>501.9</ele>
        <time>2022-08-05T13:21:36Z</time>
      </trkpt>
      <trkpt lat="45.24203" lon="1.97978">
        <ele>502.1</ele>
        <time>2022-08-05T13:21:38Z</time>
      </trkpt>
      <trkpt lat="45.242" lon="1.97975">
        <ele>502.4</ele>
        <time>2022-08-05T13:21:40Z</time>
      </trkpt>
      <trkpt lat="45.24197" lon="1.97973">
        <ele>502.8</ele>
        <time>2022-08-05T13:21:42Z</time>
      </trkpt>
      <trkpt lat="45.24194" lon="1.97969">
        <ele>503.2</ele>
        <time>2022-08-05T13:21:44Z</time>
      </trkpt>
      <trkpt lat="45.2419" lon="1.97967">
        <ele>503.5</ele>
        <time>2022-08-05T13:21:46Z</time>
      </trkpt>
      <trkpt lat="45.24187" lon="1.97964">
        <ele>503.8</ele>
        <time>2022-08-05T13:21:48Z</time>
      </trkpt>
      <trkpt lat="45.24184" lon="1.97961">
        <ele>504.1</ele>
        <time>2022-08-05T13:21:50Z</time>
      </trkpt>
      <trkpt lat="45.24181" lon="1.97958">
        <ele>504.5</ele>
        <time>2022-08-05T13:21:52Z</time>
      </trkpt>
      <trkpt lat="45.24178" lon="1.97954">
        <ele>504.8</ele>
        <time>2022-08-05T13:21:54Z</time>
      </trkpt>
      <trkpt lat="45.24175" lon="1.97952">
        <ele>505</ele>
        <time>2022-08-05T13:21:56Z</time>
      </trkpt>
      <trkpt lat="45.24171" lon="1.97949">
        <ele>505.3</ele>
        <time>2022-08-05T13:21:58Z</time>
      </trkpt>
      <trkpt lat="45.24168" lon="1.97946">
        <ele>505.6</ele>
        <time>2022-08-05T13:22:00Z</time>
      </trkpt>
      <trkpt lat="45.24165" lon="1.97943">
        <ele>505.8</ele>
        <time>2022-08-05T13:22:02Z</time>
      </trkpt>
      <trkpt lat="45.24162" lon="1.9794">
        <ele>506</ele>
        <time>2022-08-05T13:22:04Z</time>
      </trkpt>
      <trkpt lat="45.24158" lon="1.97935">
        <ele>506.3</ele>
        <time>2022-08-05T13:22:06Z</time>
      </trkpt>
      <trkpt lat="45.24154" lon="1.97933">
        <ele>506.5</ele>
        <time>2022-08-05T13:22:08Z</time>
      </trkpt>
      <trkpt lat="45.24151" lon="1.97928">
        <ele>506.8</ele>
        <time>2022-08-05T13:22:10Z</time>
      </trkpt>
      <trkpt lat="45.24148" lon="1.97926">
        <ele>507</ele>
        <time>2022-08-05T13:22:12Z</time>
      </trkpt>
      <trkpt lat="45.24145" lon="1.97923">
        <ele>507.2</ele>
        <time>2022-08-05T13:22:14Z</time>
      </trkpt>
      <trkpt lat="45.24141" lon="1.9792">
        <ele>507.4</ele>
        <time>2022-08-05T13:22:16Z</time>
      </trkpt>
      <trkpt lat="45.24138" lon="1.97917">
        <ele>507.7</ele>
        <time>2022-08-05T13:22:18Z</time>
      </trkpt>
      <trkpt lat="45.24134" lon="1.97913">
        <ele>507.7</ele>
        <time>2022-08-05T13:22:20Z</time>
      </trkpt>
      <trkpt lat="45.2413" lon="1.9791">
        <ele>507.8</ele>
        <time>2022-08-05T13:22:22Z</time>
      </trkpt>
      <trkpt lat="45.24126" lon="1.97906">
        <ele>507.9</ele>
        <time>2022-08-05T13:22:24Z</time>
      </trkpt>
      <trkpt lat="45.24122" lon="1.97903">
        <ele>508.1</ele>
        <time>2022-08-05T13:22:26Z</time>
      </trkpt>
      <trkpt lat="45.24119" lon="1.979">
        <ele>508.2</ele>
        <time>2022-08-05T13:22:28Z</time>
      </trkpt>
      <trkpt lat="45.24115" lon="1.97896">
        <ele>508.3</ele>
        <time>2022-08-05T13:22:30Z</time>
      </trkpt>
      <trkpt lat="45.24111" lon="1.97893">
        <ele>508.5</ele>
        <time>2022-08-05T13:22:32Z</time>
      </trkpt>
      <trkpt lat="45.24108" lon="1.9789">
        <ele>508.6</ele>
        <time>2022-08-05T13:22:34Z</time>
      </trkpt>
      <trkpt lat="45.24105" lon="1.97886">
        <ele>508.8</ele>
        <time>2022-08-05T13:22:36Z</time>
      </trkpt>
      <trkpt lat="45.24101" lon="1.97883">
        <ele>509</ele>
        <time>2022-08-05T13:22:38Z</time>
      </trkpt>
      <trkpt lat="45.24098" lon="1.9788">
        <ele>509.1</ele>
        <time>2022-08-05T13:22:40Z</time>
      </trkpt>
      <trkpt lat="45.24095" lon="1.97876">
        <ele>509.4</ele>
        <time>2022-08-05T13:22:42Z</time>
      </trkpt>
      <trkpt lat="45.24092" lon="1.97874">
        <ele>509.5</ele>
        <time>2022-08-05T13:22:44Z</time>
      </trkpt>
      <trkpt lat="45.24089" lon="1.97871">
        <ele>509.7</ele>
        <time>2022-08-05T13:22:46Z</time>
      </trkpt>
      <trkpt lat="45.24085" lon="1.97868">
        <ele>509.9</ele>
        <time>2022-08-05T13:22:48Z</time>
      </trkpt>
      <trkpt lat="45.24082" lon="1.97865">
        <ele>510.1</ele>
        <time>2022-08-05T13:22:50Z</time>
      </trkpt>
      <trkpt lat="45.24079" lon="1.97862">
        <ele>510.1</ele>
        <time>2022-08-05T13:22:52Z</time>
      </trkpt>
      <trkpt lat="45.24075" lon="1.97859">
        <ele>510.1</ele>
        <time>2022-08-05T13:22:54Z</time>
      </trkpt>
      <trkpt lat="45.24072" lon="1.97855">
        <ele>510.2</ele>
        <time>2022-08-05T13:22:56Z</time>
      </trkpt>
      <trkpt lat="45.24068" lon="1.97852">
        <ele>510.3</ele>
        <time>2022-08-05T13:22:58Z</time>
      </trkpt>
      <trkpt lat="45.24065" lon="1.97849">
        <ele>510.4</ele>
        <time>2022-08-05T13:23:00Z</time>
      </trkpt>
      <trkpt lat="45.24062" lon="1.97846">
        <ele>510.4</ele>
        <time>2022-08-05T13:23:02Z</time>
      </trkpt>
      <trkpt lat="45.24058" lon="1.97842">
        <ele>510.5</ele>
        <time>2022-08-05T13:23:04Z</time>
      </trkpt>
      <trkpt lat="45.24055" lon="1.97839">
        <ele>510.6</ele>
        <time>2022-08-05T13:23:06Z</time>
      </trkpt>
      <trkpt lat="45.24051" lon="1.97836">
        <ele>510.7</ele>
        <time>2022-08-05T13:23:08Z</time>
      </trkpt>
      <trkpt lat="45.24047" lon="1.97832">
        <ele>510.8</ele>
        <time>2022-08-05T13:23:10Z</time>
      </trkpt>
      <trkpt lat="45.24044" lon="1.97828">
        <ele>510.9</ele>
        <time>2022-08-05T13:23:12Z</time>
      </trkpt>
      <trkpt lat="45.24041" lon="1.97824">
        <ele>511.1</ele>
        <time>2022-08-05T13:23:14Z</time>
      </trkpt>
      <trkpt lat="45.24038" lon="1.9782">
        <ele>511.3</ele>
        <time>2022-08-05T13:23:16Z</time>
      </trkpt>
      <trkpt lat="45.24035" lon="1.97815">
        <ele>511.6</ele>
        <time>2022-08-05T13:23:18Z</time>
      </trkpt>
      <trkpt lat="45.24032" lon="1.9781">
        <ele>511.9</ele>
        <time>2022-08-05T13:23:20Z</time>
      </trkpt>
      <trkpt lat="45.2403" lon="1.97804">
        <ele>512.3</ele>
        <time>2022-08-05T13:23:22Z</time>
      </trkpt>
      <trkpt lat="45.24028" lon="1.97798">
        <ele>512.8</ele>
        <time>2022-08-05T13:23:24Z</time>
      </trkpt>
      <trkpt lat="45.24026" lon="1.97791">
        <ele>513.4</ele>
        <time>2022-08-05T13:23:26Z</time>
      </trkpt>
      <trkpt lat="45.24024" lon="1.97784">
        <ele>514</ele>
        <time>2022-08-05T13:23:28Z</time>
      </trkpt>
      <trkpt lat="45.24022" lon="1.97777">
        <ele>514.6</ele>
        <time>2022-08-05T13:23:30Z</time>
      </trkpt>
      <trkpt lat="45.2402" lon="1.9777">
        <ele>515.3</ele>
        <time>2022-08-05T13:23:32Z</time>
      </trkpt>
      <trkpt lat="45.24015" lon="1.97764">
        <ele>516</ele>
        <time>2022-08-05T13:23:34Z</time>
      </trkpt>
      <trkpt lat="45.24011" lon="1.97757">
        <ele>516.8</ele>
        <time>2022-08-05T13:23:36Z</time>
      </trkpt>
      <trkpt lat="45.24006" lon="1.97752">
        <ele>517.5</ele>
        <time>2022-08-05T13:23:38Z</time>
      </trkpt>
      <trkpt lat="45.24001" lon="1.97749">
        <ele>518</ele>
        <time>2022-08-05T13:23:40Z</time>
      </trkpt>
      <trkpt lat="45.23995" lon="1.97747">
        <ele>518.3</ele>
        <time>2022-08-05T13:23:42Z</time>
      </trkpt>
      <trkpt lat="45.2399" lon="1.97745">
        <ele>518.7</ele>
        <time>2022-08-05T13:23:44Z</time>
      </trkpt>
      <trkpt lat="45.23984" lon="1.97744">
        <ele>519</ele>
        <time>2022-08-05T13:23:46Z</time>
      </trkpt>
      <trkpt lat="45.23979" lon="1.97744">
        <ele>519.4</ele>
        <time>2022-08-05T13:23:48Z</time>
      </trkpt>
      <trkpt lat="45.23973" lon="1.97743">
        <ele>519.7</ele>
        <time>2022-08-05T13:23:50Z</time>
      </trkpt>
      <trkpt lat="45.23967" lon="1.97743">
        <ele>520.1</ele>
        <time>2022-08-05T13:23:52Z</time>
      </trkpt>
      <trkpt lat="45.23961" lon="1.97742">
        <ele>520.4</ele>
        <time>2022-08-05T13:23:54Z</time>
      </trkpt>
      <trkpt lat="45.23957" lon="1.97741">
        <ele>520.7</ele>
        <time>2022-08-05T13:23:56Z</time>
      </trkpt>
      <trkpt lat="45.23951" lon="1.97741">
        <ele>521</ele>
        <time>2022-08-05T13:23:58Z</time>
      </trkpt>
      <trkpt lat="45.23945" lon="1.9774">
        <ele>521.4</ele>
        <time>2022-08-05T13:24:00Z</time>
      </trkpt>
      <trkpt lat="45.2394" lon="1.97739">
        <ele>521.7</ele>
        <time>2022-08-05T13:24:02Z</time>
      </trkpt>
      <trkpt lat="45.23935" lon="1.97739">
        <ele>522</ele>
        <time>2022-08-05T13:24:04Z</time>
      </trkpt>
      <trkpt lat="45.23929" lon="1.97739">
        <ele>522.3</ele>
        <time>2022-08-05T13:24:06Z</time>
      </trkpt>
      <trkpt lat="45.23924" lon="1.97738">
        <ele>522.6</ele>
        <time>2022-08-05T13:24:08Z</time>
      </trkpt>
      <trkpt lat="45.23918" lon="1.97738">
        <ele>522.9</ele>
        <time>2022-08-05T13:24:10Z</time>
      </trkpt>
      <trkpt lat="45.23913" lon="1.97738">
        <ele>523.1</ele>
        <time>2022-08-05T13:24:12Z</time>
      </trkpt>
      <trkpt lat="45.23908" lon="1.97737">
        <ele>523.2</ele>
        <time>2022-08-05T13:24:14Z</time>
      </trkpt>
      <trkpt lat="45.23903" lon="1.97737">
        <ele>523.3</ele>
        <time>2022-08-05T13:24:16Z</time>
      </trkpt>
      <trkpt lat="45.23897" lon="1.97736">
        <ele>523.5</ele>
        <time>2022-08-05T13:24:18Z</time>
      </trkpt>
      <trkpt lat="45.23891" lon="1.97738">
        <ele>523.6</ele>
        <time>2022-08-05T13:24:20Z</time>
      </trkpt>
      <trkpt lat="45.23887" lon="1.97738">
        <ele>523.7</ele>
        <time>2022-08-05T13:24:22Z</time>
      </trkpt>
      <trkpt lat="45.23881" lon="1.97738">
        <ele>523.9</ele>
        <time>2022-08-05T13:24:24Z</time>
      </trkpt>
      <trkpt lat="45.23876" lon="1.97738">
        <ele>524</ele>
        <time>2022-08-05T13:24:26Z</time>
      </trkpt>
      <trkpt lat="45.2387" lon="1.9774">
        <ele>524.1</ele>
        <time>2022-08-05T13:24:28Z</time>
      </trkpt>
      <trkpt lat="45.23864" lon="1.9774">
        <ele>524.3</ele>
        <time>2022-08-05T13:24:30Z</time>
      </trkpt>
      <trkpt lat="45.23858" lon="1.97741">
        <ele>524.4</ele>
        <time>2022-08-05T13:24:32Z</time>
      </trkpt>
      <trkpt lat="45.23853" lon="1.97741">
        <ele>524.5</ele>
        <time>2022-08-05T13:24:34Z</time>
      </trkpt>
      <trkpt lat="45.23847" lon="1.97741">
        <ele>524.7</ele>
        <time>2022-08-05T13:24:36Z</time>
      </trkpt>
      <trkpt lat="45.23842" lon="1.97741">
        <ele>524.8</ele>
        <time>2022-08-05T13:24:38Z</time>
      </trkpt>
      <trkpt lat="45.23837" lon="1.97741">
        <ele>524.9</ele>
        <time>2022-08-05T13:24:40Z</time>
      </trkpt>
      <trkpt lat="45.23831" lon="1.97741">
        <ele>525</ele>
        <time>2022-08-05T13:24:42Z</time>
      </trkpt>
      <trkpt lat="45.23826" lon="1.97742">
        <ele>525</ele>
        <time>2022-08-05T13:24:44Z</time>
      </trkpt>
      <trkpt lat="45.2382" lon="1.97742">
        <ele>525.1</ele>
        <time>2022-08-05T13:24:46Z</time>
      </trkpt>
      <trkpt lat="45.23815" lon="1.97743">
        <ele>525.1</ele>
        <time>2022-08-05T13:24:48Z</time>
      </trkpt>
      <trkpt lat="45.2381" lon="1.97743">
        <ele>525.1</ele>
        <time>2022-08-05T13:24:50Z</time>
      </trkpt>
      <trkpt lat="45.23805" lon="1.97743">
        <ele>525.1</ele>
        <time>2022-08-05T13:24:52Z</time>
      </trkpt>
      <trkpt lat="45.23799" lon="1.97743">
        <ele>525.1</ele>
        <time>2022-08-05T13:24:54Z</time>
      </trkpt>
      <trkpt lat="45.23795" lon="1.97743">
        <ele>525.2</ele>
        <time>2022-08-05T13:24:56Z</time>
      </trkpt>
      <trkpt lat="45.23789" lon="1.97742">
        <ele>525.2</ele>
        <time>2022-08-05T13:24:58Z</time>
      </trkpt>
      <trkpt lat="45.23783" lon="1.97743">
        <ele>525.2</ele>
        <time>2022-08-05T13:25:00Z</time>
      </trkpt>
      <trkpt lat="45.23777" lon="1.97744">
        <ele>525.2</ele>
        <time>2022-08-05T13:25:02Z</time>
      </trkpt>
      <trkpt lat="45.23772" lon="1.97745">
        <ele>525.2</ele>
        <time>2022-08-05T13:25:04Z</time>
      </trkpt>
      <trkpt lat="45.23766" lon="1.97745">
        <ele>525.2</ele>
        <time>2022-08-05T13:25:06Z</time>
      </trkpt>
      <trkpt lat="45.2376" lon="1.97746">
        <ele>525.2</ele>
        <time>2022-08-05T13:25:08Z</time>
      </trkpt>
      <trkpt lat="45.23755" lon="1.97746">
        <ele>525.2</ele>
        <time>2022-08-05T13:25:10Z</time>
      </trkpt>
      <trkpt lat="45.2375" lon="1.97746">
        <ele>525.2</ele>
        <time>2022-08-05T13:25:12Z</time>
      </trkpt>
      <trkpt lat="45.23743" lon="1.97747">
        <ele>524.7</ele>
        <time>2022-08-05T13:25:14Z</time>
      </trkpt>
      <trkpt lat="45.23736" lon="1.97748">
        <ele>524.3</ele>
        <time>2022-08-05T13:25:16Z</time>
      </trkpt>
      <trkpt lat="45.23728" lon="1.9775">
        <ele>523.7</ele>
        <time>2022-08-05T13:25:18Z</time>
      </trkpt>
      <trkpt lat="45.2372" lon="1.97751">
        <ele>523.2</ele>
        <time>2022-08-05T13:25:20Z</time>
      </trkpt>
      <trkpt lat="45.23711" lon="1.9775">
        <ele>522.7</ele>
        <time>2022-08-05T13:25:22Z</time>
      </trkpt>
      <trkpt lat="45.23702" lon="1.97751">
        <ele>522.1</ele>
        <time>2022-08-05T13:25:24Z</time>
      </trkpt>
      <trkpt lat="45.23694" lon="1.97753">
        <ele>521.6</ele>
        <time>2022-08-05T13:25:26Z</time>
      </trkpt>
      <trkpt lat="45.23685" lon="1.97756">
        <ele>521</ele>
        <time>2022-08-05T13:25:28Z</time>
      </trkpt>
      <trkpt lat="45.23677" lon="1.97757">
        <ele>520.5</ele>
        <time>2022-08-05T13:25:30Z</time>
      </trkpt>
      <trkpt lat="45.23668" lon="1.97761">
        <ele>519.9</ele>
        <time>2022-08-05T13:25:32Z</time>
      </trkpt>
      <trkpt lat="45.23658" lon="1.97765">
        <ele>520.3</ele>
        <time>2022-08-05T13:25:34Z</time>
      </trkpt>
      <trkpt lat="45.23649" lon="1.9777">
        <ele>520.6</ele>
        <time>2022-08-05T13:25:36Z</time>
      </trkpt>
      <trkpt lat="45.23639" lon="1.97776">
        <ele>520.9</ele>
        <time>2022-08-05T13:25:38Z</time>
      </trkpt>
      <trkpt lat="45.23629" lon="1.97782">
        <ele>521.2</ele>
        <time>2022-08-05T13:25:40Z</time>
      </trkpt>
      <trkpt lat="45.2362" lon="1.97789">
        <ele>521.3</ele>
        <time>2022-08-05T13:25:42Z</time>
      </trkpt>
      <trkpt lat="45.23609" lon="1.97795">
        <ele>521.4</ele>
        <time>2022-08-05T13:25:44Z</time>
      </trkpt>
      <trkpt lat="45.23598" lon="1.97803">
        <ele>521.4</ele>
        <time>2022-08-05T13:25:46Z</time>
      </trkpt>
      <trkpt lat="45.23588" lon="1.97811">
        <ele>521.2</ele>
        <time>2022-08-05T13:25:48Z</time>
      </trkpt>
      <trkpt lat="45.23577" lon="1.97818">
        <ele>521.1</ele>
        <time>2022-08-05T13:25:50Z</time>
      </trkpt>
      <trkpt lat="45.23566" lon="1.97826">
        <ele>521.1</ele>
        <time>2022-08-05T13:25:52Z</time>
      </trkpt>
      <trkpt lat="45.23554" lon="1.97837">
        <ele>521.1</ele>
        <time>2022-08-05T13:25:54Z</time>
      </trkpt>
      <trkpt lat="45.23541" lon="1.97848">
        <ele>520.9</ele>
        <time>2022-08-05T13:25:56Z</time>
      </trkpt>
      <trkpt lat="45.23527" lon="1.9786">
        <ele>520.4</ele>
        <time>2022-08-05T13:25:58Z</time>
      </trkpt>
      <trkpt lat="45.23513" lon="1.97872">
        <ele>519.9</ele>
        <time>2022-08-05T13:26:00Z</time>
      </trkpt>
      <trkpt lat="45.23499" lon="1.97883">
        <ele>519.2</ele>
        <time>2022-08-05T13:26:02Z</time>
      </trkpt>
      <trkpt lat="45.23484" lon="1.97893">
        <ele>517.6</ele>
        <time>2022-08-05T13:26:04Z</time>
      </trkpt>
      <trkpt lat="45.23468" lon="1.979">
        <ele>516.5</ele>
        <time>2022-08-05T13:26:06Z</time>
      </trkpt>
      <trkpt lat="45.23452" lon="1.97907">
        <ele>515.6</ele>
        <time>2022-08-05T13:26:08Z</time>
      </trkpt>
      <trkpt lat="45.23436" lon="1.97913">
        <ele>514.7</ele>
        <time>2022-08-05T13:26:10Z</time>
      </trkpt>
      <trkpt lat="45.2342" lon="1.9792">
        <ele>514</ele>
        <time>2022-08-05T13:26:12Z</time>
      </trkpt>
      <trkpt lat="45.23403" lon="1.97926">
        <ele>512.6</ele>
        <time>2022-08-05T13:26:14Z</time>
      </trkpt>
      <trkpt lat="45.23386" lon="1.97933">
        <ele>510.9</ele>
        <time>2022-08-05T13:26:16Z</time>
      </trkpt>
      <trkpt lat="45.23368" lon="1.97939">
        <ele>509.3</ele>
        <time>2022-08-05T13:26:18Z</time>
      </trkpt>
      <trkpt lat="45.2335" lon="1.97945">
        <ele>507.7</ele>
        <time>2022-08-05T13:26:20Z</time>
      </trkpt>
      <trkpt lat="45.23331" lon="1.97948">
        <ele>506.1</ele>
        <time>2022-08-05T13:26:22Z</time>
      </trkpt>
      <trkpt lat="45.23312" lon="1.97948">
        <ele>504.8</ele>
        <time>2022-08-05T13:26:24Z</time>
      </trkpt>
      <trkpt lat="45.23292" lon="1.97948">
        <ele>503.4</ele>
        <time>2022-08-05T13:26:26Z</time>
      </trkpt>
      <trkpt lat="45.23272" lon="1.97946">
        <ele>502.1</ele>
        <time>2022-08-05T13:26:28Z</time>
      </trkpt>
      <trkpt lat="45.23252" lon="1.97937">
        <ele>501.1</ele>
        <time>2022-08-05T13:26:30Z</time>
      </trkpt>
      <trkpt lat="45.23233" lon="1.97925">
        <ele>500.1</ele>
        <time>2022-08-05T13:26:32Z</time>
      </trkpt>
      <trkpt lat="45.23215" lon="1.97911">
        <ele>498.7</ele>
        <time>2022-08-05T13:26:34Z</time>
      </trkpt>
      <trkpt lat="45.23196" lon="1.97898">
        <ele>497.3</ele>
        <time>2022-08-05T13:26:36Z</time>
      </trkpt>
      <trkpt lat="45.23178" lon="1.97885">
        <ele>496.3</ele>
        <time>2022-08-05T13:26:38Z</time>
      </trkpt>
      <trkpt lat="45.2316" lon="1.97873">
        <ele>496.1</ele>
        <time>2022-08-05T13:26:40Z</time>
      </trkpt>
      <trkpt lat="45.23142" lon="1.97861">
        <ele>496.5</ele>
        <time>2022-08-05T13:26:42Z</time>
      </trkpt>
      <trkpt lat="45.23122" lon="1.97855">
        <ele>496.6</ele>
        <time>2022-08-05T13:26:44Z</time>
      </trkpt>
      <trkpt lat="45.23102" lon="1.97855">
        <ele>496.4</ele>
        <time>2022-08-05T13:26:46Z</time>
      </trkpt>
      <trkpt lat="45.23083" lon="1.97861">
        <ele>496</ele>
        <time>2022-08-05T13:26:48Z</time>
      </trkpt>
      <trkpt lat="45.23065" lon="1.97869">
        <ele>495.9</ele>
        <time>2022-08-05T13:26:50Z</time>
      </trkpt>
      <trkpt lat="45.23047" lon="1.97878">
        <ele>495.9</ele>
        <time>2022-08-05T13:26:52Z</time>
      </trkpt>
      <trkpt lat="45.2303" lon="1.97885">
        <ele>496.1</ele>
        <time>2022-08-05T13:26:54Z</time>
      </trkpt>
      <trkpt lat="45.23015" lon="1.97893">
        <ele>496.4</ele>
        <time>2022-08-05T13:26:56Z</time>
      </trkpt>
      <trkpt lat="45.22999" lon="1.97901">
        <ele>496.8</ele>
        <time>2022-08-05T13:26:58Z</time>
      </trkpt>
      <trkpt lat="45.22984" lon="1.9791">
        <ele>496.7</ele>
        <time>2022-08-05T13:27:00Z</time>
      </trkpt>
      <trkpt lat="45.22969" lon="1.97921">
        <ele>496.6</ele>
        <time>2022-08-05T13:27:02Z</time>
      </trkpt>
      <trkpt lat="45.22956" lon="1.97934">
        <ele>496.4</ele>
        <time>2022-08-05T13:27:04Z</time>
      </trkpt>
      <trkpt lat="45.22942" lon="1.97945">
        <ele>496.3</ele>
        <time>2022-08-05T13:27:06Z</time>
      </trkpt>
      <trkpt lat="45.22929" lon="1.97955">
        <ele>496.4</ele>
        <time>2022-08-05T13:27:08Z</time>
      </trkpt>
      <trkpt lat="45.22914" lon="1.97961">
        <ele>496.4</ele>
        <time>2022-08-05T13:27:10Z</time>
      </trkpt>
      <trkpt lat="45.22899" lon="1.97965">
        <ele>496</ele>
        <time>2022-08-05T13:27:12Z</time>
      </trkpt>
      <trkpt lat="45.22885" lon="1.97964">
        <ele>495.4</ele>
        <time>2022-08-05T13:27:14Z</time>
      </trkpt>
      <trkpt lat="45.2287" lon="1.97965">
        <ele>494.9</ele>
        <time>2022-08-05T13:27:16Z</time>
      </trkpt>
      <trkpt lat="45.22856" lon="1.97966">
        <ele>494.4</ele>
        <time>2022-08-05T13:27:18Z</time>
      </trkpt>
      <trkpt lat="45.22842" lon="1.97967">
        <ele>493.9</ele>
        <time>2022-08-05T13:27:20Z</time>
      </trkpt>
      <trkpt lat="45.22828" lon="1.97968">
        <ele>493.7</ele>
        <time>2022-08-05T13:27:22Z</time>
      </trkpt>
      <trkpt lat="45.22814" lon="1.97969">
        <ele>494.1</ele>
        <time>2022-08-05T13:27:24Z</time>
      </trkpt>
      <trkpt lat="45.228" lon="1.97969">
        <ele>494.4</ele>
        <time>2022-08-05T13:27:26Z</time>
      </trkpt>
      <trkpt lat="45.22786" lon="1.97972">
        <ele>494.6</ele>
        <time>2022-08-05T13:27:28Z</time>
      </trkpt>
      <trkpt lat="45.22775" lon="1.97971">
        <ele>494.9</ele>
        <time>2022-08-05T13:27:30Z</time>
      </trkpt>
      <trkpt lat="45.22768" lon="1.97971">
        <ele>495</ele>
        <time>2022-08-05T13:27:32Z</time>
      </trkpt>
      <trkpt lat="45.22761" lon="1.97971">
        <ele>495.2</ele>
        <time>2022-08-05T13:27:34Z</time>
      </trkpt>
      <trkpt lat="45.22756" lon="1.97969">
        <ele>495.4</ele>
        <time>2022-08-05T13:27:36Z</time>
      </trkpt>
      <trkpt lat="45.22749" lon="1.97968">
        <ele>495.5</ele>
        <time>2022-08-05T13:27:38Z</time>
      </trkpt>
      <trkpt lat="45.22746" lon="1.97966">
        <ele>495.6</ele>
        <time>2022-08-05T13:27:40Z</time>
      </trkpt>
      <trkpt lat="45.22745" lon="1.97964">
        <ele>495.7</ele>
        <time>2022-08-05T13:27:42Z</time>
      </trkpt>
      <trkpt lat="45.22744" lon="1.97964">
        <ele>495.7</ele>
        <time>2022-08-05T13:27:44Z</time>
      </trkpt>
      <trkpt lat="45.22743" lon="1.97964">
        <ele>495.7</ele>
        <time>2022-08-05T13:27:46Z</time>
      </trkpt>
      <trkpt lat="45.22743" lon="1.97965">
        <ele>495.6</ele>
        <time>2022-08-05T13:27:48Z</time>
      </trkpt>
      <trkpt lat="45.22742" lon="1.97966">
        <ele>495.6</ele>
        <time>2022-08-05T13:27:50Z</time>
      </trkpt>
      <trkpt lat="45.22714" lon="1.97957">
        <ele>495.9</ele>
        <time>2022-08-05T13:28:32Z</time>
      </trkpt>
      <trkpt lat="45.22708" lon="1.97951">
        <ele>496</ele>
        <time>2022-08-05T13:28:34Z</time>
      </trkpt>
      <trkpt lat="45.22703" lon="1.97944">
        <ele>496.3</ele>
        <time>2022-08-05T13:28:36Z</time>
      </trkpt>
      <trkpt lat="45.22698" lon="1.97938">
        <ele>496.5</ele>
        <time>2022-08-05T13:28:38Z</time>
      </trkpt>
      <trkpt lat="45.22693" lon="1.97932">
        <ele>496.7</ele>
        <time>2022-08-05T13:28:40Z</time>
      </trkpt>
      <trkpt lat="45.22687" lon="1.97926">
        <ele>496.9</ele>
        <time>2022-08-05T13:28:42Z</time>
      </trkpt>
      <trkpt lat="45.22681" lon="1.97921">
        <ele>497</ele>
        <time>2022-08-05T13:28:44Z</time>
      </trkpt>
      <trkpt lat="45.22676" lon="1.97914">
        <ele>497.1</ele>
        <time>2022-08-05T13:28:46Z</time>
      </trkpt>
      <trkpt lat="45.2267" lon="1.97908">
        <ele>496.9</ele>
        <time>2022-08-05T13:28:48Z</time>
      </trkpt>
      <trkpt lat="45.22663" lon="1.97903">
        <ele>496.9</ele>
        <time>2022-08-05T13:28:50Z</time>
      </trkpt>
      <trkpt lat="45.22656" lon="1.979">
        <ele>497.1</ele>
        <time>2022-08-05T13:28:52Z</time>
      </trkpt>
      <trkpt lat="45.22649" lon="1.97898">
        <ele>497.2</ele>
        <time>2022-08-05T13:28:54Z</time>
      </trkpt>
      <trkpt lat="45.22641" lon="1.97898">
        <ele>497.3</ele>
        <time>2022-08-05T13:28:56Z</time>
      </trkpt>
      <trkpt lat="45.22634" lon="1.97898">
        <ele>497.5</ele>
        <time>2022-08-05T13:28:58Z</time>
      </trkpt>
      <trkpt lat="45.22627" lon="1.97899">
        <ele>497.7</ele>
        <time>2022-08-05T13:29:00Z</time>
      </trkpt>
      <trkpt lat="45.22619" lon="1.97901">
        <ele>498</ele>
        <time>2022-08-05T13:29:02Z</time>
      </trkpt>
      <trkpt lat="45.22611" lon="1.97903">
        <ele>498.3</ele>
        <time>2022-08-05T13:29:04Z</time>
      </trkpt>
      <trkpt lat="45.22604" lon="1.97905">
        <ele>498.6</ele>
        <time>2022-08-05T13:29:06Z</time>
      </trkpt>
      <trkpt lat="45.22597" lon="1.97905">
        <ele>498.8</ele>
        <time>2022-08-05T13:29:08Z</time>
      </trkpt>
      <trkpt lat="45.22589" lon="1.97905">
        <ele>499</ele>
        <time>2022-08-05T13:29:10Z</time>
      </trkpt>
      <trkpt lat="45.22582" lon="1.97905">
        <ele>499.2</ele>
        <time>2022-08-05T13:29:12Z</time>
      </trkpt>
      <trkpt lat="45.22574" lon="1.97907">
        <ele>499.5</ele>
        <time>2022-08-05T13:29:14Z</time>
      </trkpt>
      <trkpt lat="45.22565" lon="1.97906">
        <ele>499.6</ele>
        <time>2022-08-05T13:29:16Z</time>
      </trkpt>
      <trkpt lat="45.22557" lon="1.97906">
        <ele>499.8</ele>
        <time>2022-08-05T13:29:18Z</time>
      </trkpt>
      <trkpt lat="45.22549" lon="1.97906">
        <ele>499.9</ele>
        <time>2022-08-05T13:29:20Z</time>
      </trkpt>
      <trkpt lat="45.22542" lon="1.97903">
        <ele>499.9</ele>
        <time>2022-08-05T13:29:22Z</time>
      </trkpt>
      <trkpt lat="45.22534" lon="1.97901">
        <ele>499.8</ele>
        <time>2022-08-05T13:29:24Z</time>
      </trkpt>
      <trkpt lat="45.22526" lon="1.97898">
        <ele>499.7</ele>
        <time>2022-08-05T13:29:26Z</time>
      </trkpt>
      <trkpt lat="45.22519" lon="1.97897">
        <ele>499.7</ele>
        <time>2022-08-05T13:29:28Z</time>
      </trkpt>
      <trkpt lat="45.2251" lon="1.97895">
        <ele>499.8</ele>
        <time>2022-08-05T13:29:30Z</time>
      </trkpt>
      <trkpt lat="45.22503" lon="1.97893">
        <ele>499.7</ele>
        <time>2022-08-05T13:29:32Z</time>
      </trkpt>
      <trkpt lat="45.22495" lon="1.97891">
        <ele>499.9</ele>
        <time>2022-08-05T13:29:34Z</time>
      </trkpt>
      <trkpt lat="45.22487" lon="1.97888">
        <ele>500.1</ele>
        <time>2022-08-05T13:29:36Z</time>
      </trkpt>
      <trkpt lat="45.22479" lon="1.97885">
        <ele>500.4</ele>
        <time>2022-08-05T13:29:38Z</time>
      </trkpt>
      <trkpt lat="45.22471" lon="1.97881">
        <ele>500.6</ele>
        <time>2022-08-05T13:29:40Z</time>
      </trkpt>
      <trkpt lat="45.22463" lon="1.97873">
        <ele>500.5</ele>
        <time>2022-08-05T13:29:42Z</time>
      </trkpt>
      <trkpt lat="45.22457" lon="1.97865">
        <ele>500.3</ele>
        <time>2022-08-05T13:29:44Z</time>
      </trkpt>
      <trkpt lat="45.22451" lon="1.97856">
        <ele>500.3</ele>
        <time>2022-08-05T13:29:46Z</time>
      </trkpt>
      <trkpt lat="45.22446" lon="1.97848">
        <ele>500.1</ele>
        <time>2022-08-05T13:29:48Z</time>
      </trkpt>
      <trkpt lat="45.2244" lon="1.97839">
        <ele>500.2</ele>
        <time>2022-08-05T13:29:50Z</time>
      </trkpt>
      <trkpt lat="45.22433" lon="1.97831">
        <ele>500.2</ele>
        <time>2022-08-05T13:29:52Z</time>
      </trkpt>
      <trkpt lat="45.22427" lon="1.97821">
        <ele>499.9</ele>
        <time>2022-08-05T13:29:54Z</time>
      </trkpt>
      <trkpt lat="45.2242" lon="1.97814">
        <ele>499.8</ele>
        <time>2022-08-05T13:29:56Z</time>
      </trkpt>
      <trkpt lat="45.22413" lon="1.97806">
        <ele>499.4</ele>
        <time>2022-08-05T13:29:58Z</time>
      </trkpt>
      <trkpt lat="45.22406" lon="1.97798">
        <ele>498.7</ele>
        <time>2022-08-05T13:30:00Z</time>
      </trkpt>
      <trkpt lat="45.22399" lon="1.9779">
        <ele>498.1</ele>
        <time>2022-08-05T13:30:02Z</time>
      </trkpt>
      <trkpt lat="45.22392" lon="1.97783">
        <ele>497.5</ele>
        <time>2022-08-05T13:30:04Z</time>
      </trkpt>
      <trkpt lat="45.22384" lon="1.97778">
        <ele>497.1</ele>
        <time>2022-08-05T13:30:06Z</time>
      </trkpt>
      <trkpt lat="45.22377" lon="1.97772">
        <ele>496.6</ele>
        <time>2022-08-05T13:30:08Z</time>
      </trkpt>
      <trkpt lat="45.22368" lon="1.97768">
        <ele>496.3</ele>
        <time>2022-08-05T13:30:10Z</time>
      </trkpt>
      <trkpt lat="45.22359" lon="1.97766">
        <ele>496.2</ele>
        <time>2022-08-05T13:30:12Z</time>
      </trkpt>
      <trkpt lat="45.22349" lon="1.97767">
        <ele>496.4</ele>
        <time>2022-08-05T13:30:14Z</time>
      </trkpt>
      <trkpt lat="45.22338" lon="1.97773">
        <ele>497.2</ele>
        <time>2022-08-05T13:30:16Z</time>
      </trkpt>
      <trkpt lat="45.22327" lon="1.97777">
        <ele>497</ele>
        <time>2022-08-05T13:30:18Z</time>
      </trkpt>
      <trkpt lat="45.22317" lon="1.97781">
        <ele>496.4</ele>
        <time>2022-08-05T13:30:20Z</time>
      </trkpt>
      <trkpt lat="45.22306" lon="1.97785">
        <ele>495.7</ele>
        <time>2022-08-05T13:30:22Z</time>
      </trkpt>
      <trkpt lat="45.22294" lon="1.97789">
        <ele>495</ele>
        <time>2022-08-05T13:30:24Z</time>
      </trkpt>
      <trkpt lat="45.22283" lon="1.97795">
        <ele>494.5</ele>
        <time>2022-08-05T13:30:26Z</time>
      </trkpt>
      <trkpt lat="45.2227" lon="1.978">
        <ele>493.9</ele>
        <time>2022-08-05T13:30:28Z</time>
      </trkpt>
      <trkpt lat="45.22258" lon="1.97809">
        <ele>493.8</ele>
        <time>2022-08-05T13:30:30Z</time>
      </trkpt>
      <trkpt lat="45.22248" lon="1.97817">
        <ele>493.6</ele>
        <time>2022-08-05T13:30:32Z</time>
      </trkpt>
      <trkpt lat="45.22237" lon="1.97824">
        <ele>493.1</ele>
        <time>2022-08-05T13:30:34Z</time>
      </trkpt>
      <trkpt lat="45.22227" lon="1.97834">
        <ele>492.8</ele>
        <time>2022-08-05T13:30:36Z</time>
      </trkpt>
      <trkpt lat="45.22217" lon="1.97843">
        <ele>492.1</ele>
        <time>2022-08-05T13:30:38Z</time>
      </trkpt>
      <trkpt lat="45.22208" lon="1.97851">
        <ele>491.5</ele>
        <time>2022-08-05T13:30:40Z</time>
      </trkpt>
      <trkpt lat="45.22203" lon="1.97856">
        <ele>491.2</ele>
        <time>2022-08-05T13:30:42Z</time>
      </trkpt>
      <trkpt lat="45.222" lon="1.97855">
        <ele>490.7</ele>
        <time>2022-08-05T13:30:44Z</time>
      </trkpt>
      <trkpt lat="45.22196" lon="1.97855">
        <ele>490</ele>
        <time>2022-08-05T13:30:46Z</time>
      </trkpt>
      <trkpt lat="45.22192" lon="1.97859">
        <ele>489.7</ele>
        <time>2022-08-05T13:30:48Z</time>
      </trkpt>
      <trkpt lat="45.22188" lon="1.97865">
        <ele>489.7</ele>
        <time>2022-08-05T13:30:50Z</time>
      </trkpt>
      <trkpt lat="45.22183" lon="1.97871">
        <ele>489.5</ele>
        <time>2022-08-05T13:30:52Z</time>
      </trkpt>
      <trkpt lat="45.22177" lon="1.97878">
        <ele>489.3</ele>
        <time>2022-08-05T13:30:54Z</time>
      </trkpt>
      <trkpt lat="45.22171" lon="1.97886">
        <ele>489.1</ele>
        <time>2022-08-05T13:30:56Z</time>
      </trkpt>
      <trkpt lat="45.22165" lon="1.97889">
        <ele>488.5</ele>
        <time>2022-08-05T13:30:58Z</time>
      </trkpt>
      <trkpt lat="45.22159" lon="1.97893">
        <ele>488.2</ele>
        <time>2022-08-05T13:31:00Z</time>
      </trkpt>
      <trkpt lat="45.22154" lon="1.97898">
        <ele>488</ele>
        <time>2022-08-05T13:31:02Z</time>
      </trkpt>
      <trkpt lat="45.22147" lon="1.97903">
        <ele>487.7</ele>
        <time>2022-08-05T13:31:04Z</time>
      </trkpt>
      <trkpt lat="45.2214" lon="1.97908">
        <ele>487.2</ele>
        <time>2022-08-05T13:31:06Z</time>
      </trkpt>
      <trkpt lat="45.22132" lon="1.97913">
        <ele>486.6</ele>
        <time>2022-08-05T13:31:08Z</time>
      </trkpt>
      <trkpt lat="45.22124" lon="1.97917">
        <ele>485.9</ele>
        <time>2022-08-05T13:31:10Z</time>
      </trkpt>
      <trkpt lat="45.22113" lon="1.97917">
        <ele>484.6</ele>
        <time>2022-08-05T13:31:12Z</time>
      </trkpt>
      <trkpt lat="45.22103" lon="1.97914">
        <ele>483.3</ele>
        <time>2022-08-05T13:31:14Z</time>
      </trkpt>
      <trkpt lat="45.22094" lon="1.9791">
        <ele>482.1</ele>
        <time>2022-08-05T13:31:16Z</time>
      </trkpt>
      <trkpt lat="45.22084" lon="1.97906">
        <ele>480.8</ele>
        <time>2022-08-05T13:31:18Z</time>
      </trkpt>
      <trkpt lat="45.22076" lon="1.97903">
        <ele>480.3</ele>
        <time>2022-08-05T13:31:20Z</time>
      </trkpt>
      <trkpt lat="45.22067" lon="1.979">
        <ele>479.8</ele>
        <time>2022-08-05T13:31:22Z</time>
      </trkpt>
      <trkpt lat="45.22058" lon="1.97896">
        <ele>479.2</ele>
        <time>2022-08-05T13:31:24Z</time>
      </trkpt>
      <trkpt lat="45.2205" lon="1.97892">
        <ele>478.7</ele>
        <time>2022-08-05T13:31:26Z</time>
      </trkpt>
      <trkpt lat="45.22041" lon="1.97886">
        <ele>478.3</ele>
        <time>2022-08-05T13:31:28Z</time>
      </trkpt>
      <trkpt lat="45.22033" lon="1.97877">
        <ele>477.9</ele>
        <time>2022-08-05T13:31:30Z</time>
      </trkpt>
      <trkpt lat="45.22027" lon="1.97869">
        <ele>477.6</ele>
        <time>2022-08-05T13:31:32Z</time>
      </trkpt>
      <trkpt lat="45.22022" lon="1.97859">
        <ele>477.5</ele>
        <time>2022-08-05T13:31:34Z</time>
      </trkpt>
      <trkpt lat="45.22018" lon="1.97849">
        <ele>477.4</ele>
        <time>2022-08-05T13:31:36Z</time>
      </trkpt>
      <trkpt lat="45.22016" lon="1.97839">
        <ele>477.4</ele>
        <time>2022-08-05T13:31:38Z</time>
      </trkpt>
      <trkpt lat="45.22014" lon="1.97828">
        <ele>477.2</ele>
        <time>2022-08-05T13:31:40Z</time>
      </trkpt>
      <trkpt lat="45.22014" lon="1.97819">
        <ele>477</ele>
        <time>2022-08-05T13:31:42Z</time>
      </trkpt>
      <trkpt lat="45.22014" lon="1.97808">
        <ele>476.8</ele>
        <time>2022-08-05T13:31:44Z</time>
      </trkpt>
      <trkpt lat="45.22015" lon="1.97801">
        <ele>476.7</ele>
        <time>2022-08-05T13:31:46Z</time>
      </trkpt>
      <trkpt lat="45.22017" lon="1.97796">
        <ele>476.6</ele>
        <time>2022-08-05T13:31:48Z</time>
      </trkpt>
      <trkpt lat="45.22017" lon="1.97797">
        <ele>476.6</ele>
        <time>2022-08-05T13:31:50Z</time>
      </trkpt>
      <trkpt lat="45.22017" lon="1.97797">
        <ele>476.6</ele>
        <time>2022-08-05T13:31:52Z</time>
      </trkpt>
      <trkpt lat="45.22017" lon="1.97797">
        <ele>476.6</ele>
        <time>2022-08-05T13:31:54Z</time>
      </trkpt>
      <trkpt lat="45.22017" lon="1.97797">
        <ele>476.6</ele>
        <time>2022-08-05T13:31:56Z</time>
      </trkpt>
      <trkpt lat="45.22017" lon="1.97797">
        <ele>476.6</ele>
        <time>2022-08-05T13:31:58Z</time>
      </trkpt>
      <trkpt lat="45.22021" lon="1.9778">
        <ele>476.2</ele>
        <time>2022-08-05T13:32:12Z</time>
      </trkpt>
      <trkpt lat="45.22024" lon="1.97773">
        <ele>476</ele>
        <time>2022-08-05T13:32:14Z</time>
      </trkpt>
      <trkpt lat="45.22028" lon="1.97765">
        <ele>475.8</ele>
        <time>2022-08-05T13:32:16Z</time>
      </trkpt>
      <trkpt lat="45.22033" lon="1.97758">
        <ele>475.5</ele>
        <time>2022-08-05T13:32:18Z</time>
      </trkpt>
      <trkpt lat="45.22038" lon="1.97749">
        <ele>475.1</ele>
        <time>2022-08-05T13:32:20Z</time>
      </trkpt>
      <trkpt lat="45.22043" lon="1.97741">
        <ele>474.7</ele>
        <time>2022-08-05T13:32:22Z</time>
      </trkpt>
      <trkpt lat="45.2205" lon="1.97731">
        <ele>474.4</ele>
        <time>2022-08-05T13:32:24Z</time>
      </trkpt>
      <trkpt lat="45.22057" lon="1.9772">
        <ele>474.1</ele>
        <time>2022-08-05T13:32:26Z</time>
      </trkpt>
      <trkpt lat="45.22064" lon="1.97708">
        <ele>473.7</ele>
        <time>2022-08-05T13:32:28Z</time>
      </trkpt>
      <trkpt lat="45.22073" lon="1.97695">
        <ele>473.4</ele>
        <time>2022-08-05T13:32:30Z</time>
      </trkpt>
      <trkpt lat="45.22081" lon="1.97682">
        <ele>473.2</ele>
        <time>2022-08-05T13:32:32Z</time>
      </trkpt>
      <trkpt lat="45.22089" lon="1.97669">
        <ele>472.9</ele>
        <time>2022-08-05T13:32:34Z</time>
      </trkpt>
      <trkpt lat="45.22097" lon="1.97654">
        <ele>472</ele>
        <time>2022-08-05T13:32:36Z</time>
      </trkpt>
      <trkpt lat="45.22101" lon="1.97636">
        <ele>471.1</ele>
        <time>2022-08-05T13:32:38Z</time>
      </trkpt>
      <trkpt lat="45.22101" lon="1.97617">
        <ele>470.1</ele>
        <time>2022-08-05T13:32:40Z</time>
      </trkpt>
      <trkpt lat="45.22097" lon="1.97598">
        <ele>469.1</ele>
        <time>2022-08-05T13:32:42Z</time>
      </trkpt>
      <trkpt lat="45.22089" lon="1.97581">
        <ele>467.9</ele>
        <time>2022-08-05T13:32:44Z</time>
      </trkpt>
      <trkpt lat="45.22077" lon="1.97569">
        <ele>466.2</ele>
        <time>2022-08-05T13:32:46Z</time>
      </trkpt>
      <trkpt lat="45.22062" lon="1.97563">
        <ele>465.1</ele>
        <time>2022-08-05T13:32:48Z</time>
      </trkpt>
      <trkpt lat="45.22045" lon="1.97558">
        <ele>464.2</ele>
        <time>2022-08-05T13:32:50Z</time>
      </trkpt>
      <trkpt lat="45.22029" lon="1.97552">
        <ele>463.2</ele>
        <time>2022-08-05T13:32:52Z</time>
      </trkpt>
      <trkpt lat="45.22014" lon="1.97545">
        <ele>462.1</ele>
        <time>2022-08-05T13:32:54Z</time>
      </trkpt>
      <trkpt lat="45.22001" lon="1.97529">
        <ele>460.1</ele>
        <time>2022-08-05T13:32:56Z</time>
      </trkpt>
      <trkpt lat="45.21994" lon="1.97506">
        <ele>457.3</ele>
        <time>2022-08-05T13:32:58Z</time>
      </trkpt>
      <trkpt lat="45.21993" lon="1.97481">
        <ele>455.6</ele>
        <time>2022-08-05T13:33:00Z</time>
      </trkpt>
      <trkpt lat="45.21999" lon="1.97458">
        <ele>454.9</ele>
        <time>2022-08-05T13:33:02Z</time>
      </trkpt>
      <trkpt lat="45.22012" lon="1.9744">
        <ele>454.8</ele>
        <time>2022-08-05T13:33:04Z</time>
      </trkpt>
      <trkpt lat="45.22026" lon="1.97424">
        <ele>455.1</ele>
        <time>2022-08-05T13:33:06Z</time>
      </trkpt>
      <trkpt lat="45.2204" lon="1.97409">
        <ele>456.2</ele>
        <time>2022-08-05T13:33:08Z</time>
      </trkpt>
      <trkpt lat="45.22042" lon="1.97388">
        <ele>457.5</ele>
        <time>2022-08-05T13:33:10Z</time>
      </trkpt>
      <trkpt lat="45.22035" lon="1.97373">
        <ele>457.2</ele>
        <time>2022-08-05T13:33:12Z</time>
      </trkpt>
      <trkpt lat="45.22031" lon="1.9736">
        <ele>457</ele>
        <time>2022-08-05T13:33:14Z</time>
      </trkpt>
      <trkpt lat="45.22024" lon="1.9735">
        <ele>456.2</ele>
        <time>2022-08-05T13:33:16Z</time>
      </trkpt>
      <trkpt lat="45.22021" lon="1.9734">
        <ele>455.8</ele>
        <time>2022-08-05T13:33:18Z</time>
      </trkpt>
      <trkpt lat="45.22019" lon="1.9733">
        <ele>455.7</ele>
        <time>2022-08-05T13:33:20Z</time>
      </trkpt>
      <trkpt lat="45.22018" lon="1.97321">
        <ele>456</ele>
        <time>2022-08-05T13:33:22Z</time>
      </trkpt>
      <trkpt lat="45.22018" lon="1.97312">
        <ele>456.5</ele>
        <time>2022-08-05T13:33:24Z</time>
      </trkpt>
      <trkpt lat="45.22019" lon="1.97304">
        <ele>457.2</ele>
        <time>2022-08-05T13:33:26Z</time>
      </trkpt>
      <trkpt lat="45.22021" lon="1.97296">
        <ele>457.8</ele>
        <time>2022-08-05T13:33:28Z</time>
      </trkpt>
      <trkpt lat="45.22022" lon="1.97288">
        <ele>458.3</ele>
        <time>2022-08-05T13:33:30Z</time>
      </trkpt>
      <trkpt lat="45.22022" lon="1.97281">
        <ele>458.8</ele>
        <time>2022-08-05T13:33:32Z</time>
      </trkpt>
      <trkpt lat="45.22023" lon="1.97273">
        <ele>459.2</ele>
        <time>2022-08-05T13:33:34Z</time>
      </trkpt>
      <trkpt lat="45.22023" lon="1.97266">
        <ele>459.6</ele>
        <time>2022-08-05T13:33:36Z</time>
      </trkpt>
      <trkpt lat="45.22023" lon="1.97259">
        <ele>459.9</ele>
        <time>2022-08-05T13:33:38Z</time>
      </trkpt>
      <trkpt lat="45.22023" lon="1.97252">
        <ele>460.2</ele>
        <time>2022-08-05T13:33:40Z</time>
      </trkpt>
      <trkpt lat="45.22023" lon="1.97245">
        <ele>460.7</ele>
        <time>2022-08-05T13:33:42Z</time>
      </trkpt>
      <trkpt lat="45.22023" lon="1.97239">
        <ele>461.2</ele>
        <time>2022-08-05T13:33:44Z</time>
      </trkpt>
      <trkpt lat="45.22024" lon="1.97232">
        <ele>461.6</ele>
        <time>2022-08-05T13:33:46Z</time>
      </trkpt>
      <trkpt lat="45.22023" lon="1.97225">
        <ele>462</ele>
        <time>2022-08-05T13:33:48Z</time>
      </trkpt>
      <trkpt lat="45.22023" lon="1.97219">
        <ele>462.5</ele>
        <time>2022-08-05T13:33:50Z</time>
      </trkpt>
      <trkpt lat="45.22022" lon="1.97213">
        <ele>462.9</ele>
        <time>2022-08-05T13:33:52Z</time>
      </trkpt>
      <trkpt lat="45.22021" lon="1.97206">
        <ele>463.2</ele>
        <time>2022-08-05T13:33:54Z</time>
      </trkpt>
      <trkpt lat="45.2202" lon="1.972">
        <ele>463.5</ele>
        <time>2022-08-05T13:33:56Z</time>
      </trkpt>
      <trkpt lat="45.22019" lon="1.97195">
        <ele>463.8</ele>
        <time>2022-08-05T13:33:58Z</time>
      </trkpt>
      <trkpt lat="45.22018" lon="1.9719">
        <ele>464.1</ele>
        <time>2022-08-05T13:34:00Z</time>
      </trkpt>
      <trkpt lat="45.22018" lon="1.97186">
        <ele>464.4</ele>
        <time>2022-08-05T13:34:02Z</time>
      </trkpt>
      <trkpt lat="45.22017" lon="1.97181">
        <ele>464.7</ele>
        <time>2022-08-05T13:34:04Z</time>
      </trkpt>
      <trkpt lat="45.22015" lon="1.97177">
        <ele>464.9</ele>
        <time>2022-08-05T13:34:06Z</time>
      </trkpt>
      <trkpt lat="45.22013" lon="1.97174">
        <ele>465.1</ele>
        <time>2022-08-05T13:34:08Z</time>
      </trkpt>
      <trkpt lat="45.2201" lon="1.9717">
        <ele>465.2</ele>
        <time>2022-08-05T13:34:10Z</time>
      </trkpt>
      <trkpt lat="45.22009" lon="1.97166">
        <ele>465.5</ele>
        <time>2022-08-05T13:34:12Z</time>
      </trkpt>
      <trkpt lat="45.22008" lon="1.97161">
        <ele>465.6</ele>
        <time>2022-08-05T13:34:14Z</time>
      </trkpt>
      <trkpt lat="45.22004" lon="1.97155">
        <ele>465.7</ele>
        <time>2022-08-05T13:34:16Z</time>
      </trkpt>
      <trkpt lat="45.22002" lon="1.97147">
        <ele>466</ele>
        <time>2022-08-05T13:34:18Z</time>
      </trkpt>
      <trkpt lat="45.22001" lon="1.97142">
        <ele>466.2</ele>
        <time>2022-08-05T13:34:20Z</time>
      </trkpt>
      <trkpt lat="45.21999" lon="1.97136">
        <ele>466.5</ele>
        <time>2022-08-05T13:34:22Z</time>
      </trkpt>
      <trkpt lat="45.21998" lon="1.97131">
        <ele>466.9</ele>
        <time>2022-08-05T13:34:24Z</time>
      </trkpt>
      <trkpt lat="45.21996" lon="1.97125">
        <ele>467.3</ele>
        <time>2022-08-05T13:34:26Z</time>
      </trkpt>
      <trkpt lat="45.21996" lon="1.97119">
        <ele>467.6</ele>
        <time>2022-08-05T13:34:28Z</time>
      </trkpt>
      <trkpt lat="45.21994" lon="1.97112">
        <ele>468</ele>
        <time>2022-08-05T13:34:30Z</time>
      </trkpt>
      <trkpt lat="45.21992" lon="1.97109">
        <ele>468.3</ele>
        <time>2022-08-05T13:34:32Z</time>
      </trkpt>
      <trkpt lat="45.21991" lon="1.97104">
        <ele>468.6</ele>
        <time>2022-08-05T13:34:34Z</time>
      </trkpt>
      <trkpt lat="45.2199" lon="1.97099">
        <ele>468.9</ele>
        <time>2022-08-05T13:34:36Z</time>
      </trkpt>
      <trkpt lat="45.21988" lon="1.97092">
        <ele>469.3</ele>
        <time>2022-08-05T13:34:38Z</time>
      </trkpt>
      <trkpt lat="45.21987" lon="1.97088">
        <ele>469.6</ele>
        <time>2022-08-05T13:34:40Z</time>
      </trkpt>
      <trkpt lat="45.21984" lon="1.97085">
        <ele>469.9</ele>
        <time>2022-08-05T13:34:42Z</time>
      </trkpt>
      <trkpt lat="45.2198" lon="1.97084">
        <ele>470.2</ele>
        <time>2022-08-05T13:34:44Z</time>
      </trkpt>
      <trkpt lat="45.21974" lon="1.97083">
        <ele>470.5</ele>
        <time>2022-08-05T13:34:46Z</time>
      </trkpt>
      <trkpt lat="45.2197" lon="1.97083">
        <ele>470.8</ele>
        <time>2022-08-05T13:34:48Z</time>
      </trkpt>
      <trkpt lat="45.21965" lon="1.97084">
        <ele>471.1</ele>
        <time>2022-08-05T13:34:50Z</time>
      </trkpt>
      <trkpt lat="45.21961" lon="1.97085">
        <ele>471.2</ele>
        <time>2022-08-05T13:34:52Z</time>
      </trkpt>
      <trkpt lat="45.21957" lon="1.97086">
        <ele>471.4</ele>
        <time>2022-08-05T13:34:54Z</time>
      </trkpt>
      <trkpt lat="45.21955" lon="1.97087">
        <ele>471.5</ele>
        <time>2022-08-05T13:34:56Z</time>
      </trkpt>
      <trkpt lat="45.2195" lon="1.97088">
        <ele>471.8</ele>
        <time>2022-08-05T13:34:58Z</time>
      </trkpt>
      <trkpt lat="45.21945" lon="1.97091">
        <ele>472</ele>
        <time>2022-08-05T13:35:00Z</time>
      </trkpt>
      <trkpt lat="45.21941" lon="1.97093">
        <ele>472.2</ele>
        <time>2022-08-05T13:35:02Z</time>
      </trkpt>
      <trkpt lat="45.21936" lon="1.97099">
        <ele>472.4</ele>
        <time>2022-08-05T13:35:04Z</time>
      </trkpt>
      <trkpt lat="45.21931" lon="1.97102">
        <ele>472.6</ele>
        <time>2022-08-05T13:35:06Z</time>
      </trkpt>
      <trkpt lat="45.21928" lon="1.97104">
        <ele>472.8</ele>
        <time>2022-08-05T13:35:08Z</time>
      </trkpt>
      <trkpt lat="45.21923" lon="1.97104">
        <ele>473.1</ele>
        <time>2022-08-05T13:35:10Z</time>
      </trkpt>
      <trkpt lat="45.21919" lon="1.97105">
        <ele>473.3</ele>
        <time>2022-08-05T13:35:12Z</time>
      </trkpt>
      <trkpt lat="45.21915" lon="1.97105">
        <ele>473.6</ele>
        <time>2022-08-05T13:35:14Z</time>
      </trkpt>
      <trkpt lat="45.21912" lon="1.97106">
        <ele>473.8</ele>
        <time>2022-08-05T13:35:16Z</time>
      </trkpt>
      <trkpt lat="45.21909" lon="1.97107">
        <ele>474.1</ele>
        <time>2022-08-05T13:35:18Z</time>
      </trkpt>
      <trkpt lat="45.21905" lon="1.97109">
        <ele>474.3</ele>
        <time>2022-08-05T13:35:20Z</time>
      </trkpt>
      <trkpt lat="45.21902" lon="1.97112">
        <ele>474.5</ele>
        <time>2022-08-05T13:35:22Z</time>
      </trkpt>
      <trkpt lat="45.21897" lon="1.97114">
        <ele>474.8</ele>
        <time>2022-08-05T13:35:24Z</time>
      </trkpt>
      <trkpt lat="45.21895" lon="1.97113">
        <ele>475</ele>
        <time>2022-08-05T13:35:26Z</time>
      </trkpt>
      <trkpt lat="45.21892" lon="1.97115">
        <ele>475.2</ele>
        <time>2022-08-05T13:35:28Z</time>
      </trkpt>
      <trkpt lat="45.21889" lon="1.97115">
        <ele>475.4</ele>
        <time>2022-08-05T13:35:30Z</time>
      </trkpt>
      <trkpt lat="45.21885" lon="1.97116">
        <ele>475.6</ele>
        <time>2022-08-05T13:35:32Z</time>
      </trkpt>
      <trkpt lat="45.21882" lon="1.97117">
        <ele>475.8</ele>
        <time>2022-08-05T13:35:34Z</time>
      </trkpt>
      <trkpt lat="45.21878" lon="1.97118">
        <ele>476.1</ele>
        <time>2022-08-05T13:35:36Z</time>
      </trkpt>
      <trkpt lat="45.21874" lon="1.9712">
        <ele>476.3</ele>
        <time>2022-08-05T13:35:38Z</time>
      </trkpt>
      <trkpt lat="45.21871" lon="1.97121">
        <ele>476.5</ele>
        <time>2022-08-05T13:35:40Z</time>
      </trkpt>
      <trkpt lat="45.21867" lon="1.97122">
        <ele>476.7</ele>
        <time>2022-08-05T13:35:42Z</time>
      </trkpt>
      <trkpt lat="45.21864" lon="1.97123">
        <ele>476.9</ele>
        <time>2022-08-05T13:35:44Z</time>
      </trkpt>
      <trkpt lat="45.21861" lon="1.97124">
        <ele>477.1</ele>
        <time>2022-08-05T13:35:46Z</time>
      </trkpt>
      <trkpt lat="45.21858" lon="1.97125">
        <ele>477.3</ele>
        <time>2022-08-05T13:35:48Z</time>
      </trkpt>
      <trkpt lat="45.21855" lon="1.97124">
        <ele>477.5</ele>
        <time>2022-08-05T13:35:50Z</time>
      </trkpt>
      <trkpt lat="45.21851" lon="1.97124">
        <ele>477.8</ele>
        <time>2022-08-05T13:35:52Z</time>
      </trkpt>
      <trkpt lat="45.21848" lon="1.97123">
        <ele>478</ele>
        <time>2022-08-05T13:35:54Z</time>
      </trkpt>
      <trkpt lat="45.21845" lon="1.97122">
        <ele>478.3</ele>
        <time>2022-08-05T13:35:56Z</time>
      </trkpt>
      <trkpt lat="45.21842" lon="1.97121">
        <ele>478.6</ele>
        <time>2022-08-05T13:35:58Z</time>
      </trkpt>
      <trkpt lat="45.21839" lon="1.9712">
        <ele>478.9</ele>
        <time>2022-08-05T13:36:00Z</time>
      </trkpt>
      <trkpt lat="45.21836" lon="1.97118">
        <ele>479.3</ele>
        <time>2022-08-05T13:36:02Z</time>
      </trkpt>
      <trkpt lat="45.21833" lon="1.97116">
        <ele>479.7</ele>
        <time>2022-08-05T13:36:04Z</time>
      </trkpt>
      <trkpt lat="45.2183" lon="1.97113">
        <ele>480</ele>
        <time>2022-08-05T13:36:06Z</time>
      </trkpt>
      <trkpt lat="45.21827" lon="1.97111">
        <ele>480.4</ele>
        <time>2022-08-05T13:36:08Z</time>
      </trkpt>
      <trkpt lat="45.21824" lon="1.97108">
        <ele>480.6</ele>
        <time>2022-08-05T13:36:10Z</time>
      </trkpt>
      <trkpt lat="45.21821" lon="1.97106">
        <ele>480.9</ele>
        <time>2022-08-05T13:36:12Z</time>
      </trkpt>
      <trkpt lat="45.21819" lon="1.97104">
        <ele>481.2</ele>
        <time>2022-08-05T13:36:14Z</time>
      </trkpt>
      <trkpt lat="45.21816" lon="1.97103">
        <ele>481.4</ele>
        <time>2022-08-05T13:36:16Z</time>
      </trkpt>
      <trkpt lat="45.21813" lon="1.971">
        <ele>481.7</ele>
        <time>2022-08-05T13:36:18Z</time>
      </trkpt>
      <trkpt lat="45.21811" lon="1.97097">
        <ele>482</ele>
        <time>2022-08-05T13:36:20Z</time>
      </trkpt>
      <trkpt lat="45.21808" lon="1.97094">
        <ele>482.3</ele>
        <time>2022-08-05T13:36:22Z</time>
      </trkpt>
      <trkpt lat="45.21806" lon="1.97091">
        <ele>482.6</ele>
        <time>2022-08-05T13:36:24Z</time>
      </trkpt>
      <trkpt lat="45.21803" lon="1.97088">
        <ele>482.9</ele>
        <time>2022-08-05T13:36:26Z</time>
      </trkpt>
      <trkpt lat="45.21801" lon="1.97085">
        <ele>483.1</ele>
        <time>2022-08-05T13:36:28Z</time>
      </trkpt>
      <trkpt lat="45.21797" lon="1.97083">
        <ele>483.3</ele>
        <time>2022-08-05T13:36:30Z</time>
      </trkpt>
      <trkpt lat="45.21794" lon="1.9708">
        <ele>483.5</ele>
        <time>2022-08-05T13:36:32Z</time>
      </trkpt>
      <trkpt lat="45.21791" lon="1.97078">
        <ele>483.7</ele>
        <time>2022-08-05T13:36:34Z</time>
      </trkpt>
      <trkpt lat="45.21789" lon="1.97074">
        <ele>483.9</ele>
        <time>2022-08-05T13:36:36Z</time>
      </trkpt>
      <trkpt lat="45.21786" lon="1.97072">
        <ele>484.1</ele>
        <time>2022-08-05T13:36:38Z</time>
      </trkpt>
      <trkpt lat="45.21783" lon="1.97069">
        <ele>484.3</ele>
        <time>2022-08-05T13:36:40Z</time>
      </trkpt>
      <trkpt lat="45.2178" lon="1.97067">
        <ele>484.4</ele>
        <time>2022-08-05T13:36:42Z</time>
      </trkpt>
      <trkpt lat="45.21778" lon="1.97065">
        <ele>484.6</ele>
        <time>2022-08-05T13:36:44Z</time>
      </trkpt>
      <trkpt lat="45.21775" lon="1.97062">
        <ele>484.8</ele>
        <time>2022-08-05T13:36:46Z</time>
      </trkpt>
      <trkpt lat="45.21772" lon="1.97059">
        <ele>484.9</ele>
        <time>2022-08-05T13:36:48Z</time>
      </trkpt>
      <trkpt lat="45.21769" lon="1.97056">
        <ele>485.1</ele>
        <time>2022-08-05T13:36:50Z</time>
      </trkpt>
      <trkpt lat="45.21766" lon="1.97053">
        <ele>485.3</ele>
        <time>2022-08-05T13:36:52Z</time>
      </trkpt>
      <trkpt lat="45.21763" lon="1.97051">
        <ele>485.5</ele>
        <time>2022-08-05T13:36:54Z</time>
      </trkpt>
      <trkpt lat="45.2176" lon="1.97047">
        <ele>485.6</ele>
        <time>2022-08-05T13:36:56Z</time>
      </trkpt>
      <trkpt lat="45.21757" lon="1.97044">
        <ele>485.8</ele>
        <time>2022-08-05T13:36:58Z</time>
      </trkpt>
      <trkpt lat="45.21753" lon="1.9704">
        <ele>486</ele>
        <time>2022-08-05T13:37:00Z</time>
      </trkpt>
      <trkpt lat="45.2175" lon="1.97037">
        <ele>486.1</ele>
        <time>2022-08-05T13:37:02Z</time>
      </trkpt>
      <trkpt lat="45.21746" lon="1.97032">
        <ele>486.3</ele>
        <time>2022-08-05T13:37:04Z</time>
      </trkpt>
      <trkpt lat="45.21743" lon="1.97028">
        <ele>486.5</ele>
        <time>2022-08-05T13:37:06Z</time>
      </trkpt>
      <trkpt lat="45.21739" lon="1.97025">
        <ele>486.6</ele>
        <time>2022-08-05T13:37:08Z</time>
      </trkpt>
      <trkpt lat="45.21734" lon="1.97022">
        <ele>486.8</ele>
        <time>2022-08-05T13:37:10Z</time>
      </trkpt>
      <trkpt lat="45.21729" lon="1.97018">
        <ele>487</ele>
        <time>2022-08-05T13:37:12Z</time>
      </trkpt>
      <trkpt lat="45.21724" lon="1.97014">
        <ele>487.2</ele>
        <time>2022-08-05T13:37:14Z</time>
      </trkpt>
      <trkpt lat="45.21719" lon="1.97011">
        <ele>487.4</ele>
        <time>2022-08-05T13:37:16Z</time>
      </trkpt>
      <trkpt lat="45.21712" lon="1.97009">
        <ele>487.7</ele>
        <time>2022-08-05T13:37:18Z</time>
      </trkpt>
      <trkpt lat="45.21706" lon="1.97006">
        <ele>487.9</ele>
        <time>2022-08-05T13:37:20Z</time>
      </trkpt>
      <trkpt lat="45.21699" lon="1.97004">
        <ele>488.1</ele>
        <time>2022-08-05T13:37:22Z</time>
      </trkpt>
      <trkpt lat="45.21691" lon="1.97003">
        <ele>488.3</ele>
        <time>2022-08-05T13:37:24Z</time>
      </trkpt>
      <trkpt lat="45.21684" lon="1.97001">
        <ele>488.5</ele>
        <time>2022-08-05T13:37:26Z</time>
      </trkpt>
      <trkpt lat="45.21676" lon="1.97001">
        <ele>488.7</ele>
        <time>2022-08-05T13:37:28Z</time>
      </trkpt>
      <trkpt lat="45.21669" lon="1.97001">
        <ele>488.9</ele>
        <time>2022-08-05T13:37:30Z</time>
      </trkpt>
      <trkpt lat="45.21662" lon="1.97001">
        <ele>489</ele>
        <time>2022-08-05T13:37:32Z</time>
      </trkpt>
      <trkpt lat="45.21655" lon="1.97001">
        <ele>489</ele>
        <time>2022-08-05T13:37:34Z</time>
      </trkpt>
      <trkpt lat="45.21648" lon="1.97002">
        <ele>488.9</ele>
        <time>2022-08-05T13:37:36Z</time>
      </trkpt>
      <trkpt lat="45.21641" lon="1.97001">
        <ele>489</ele>
        <time>2022-08-05T13:37:38Z</time>
      </trkpt>
      <trkpt lat="45.21635" lon="1.97004">
        <ele>488.7</ele>
        <time>2022-08-05T13:37:40Z</time>
      </trkpt>
      <trkpt lat="45.21627" lon="1.97005">
        <ele>488.6</ele>
        <time>2022-08-05T13:37:42Z</time>
      </trkpt>
      <trkpt lat="45.21622" lon="1.97005">
        <ele>488.6</ele>
        <time>2022-08-05T13:37:44Z</time>
      </trkpt>
      <trkpt lat="45.21615" lon="1.97004">
        <ele>488.6</ele>
        <time>2022-08-05T13:37:46Z</time>
      </trkpt>
      <trkpt lat="45.21608" lon="1.97007">
        <ele>488.2</ele>
        <time>2022-08-05T13:37:48Z</time>
      </trkpt>
      <trkpt lat="45.21602" lon="1.97006">
        <ele>488.3</ele>
        <time>2022-08-05T13:37:50Z</time>
      </trkpt>
      <trkpt lat="45.21596" lon="1.97006">
        <ele>488.2</ele>
        <time>2022-08-05T13:37:52Z</time>
      </trkpt>
      <trkpt lat="45.2159" lon="1.97005">
        <ele>488.4</ele>
        <time>2022-08-05T13:37:54Z</time>
      </trkpt>
      <trkpt lat="45.21583" lon="1.97005">
        <ele>488.2</ele>
        <time>2022-08-05T13:37:56Z</time>
      </trkpt>
      <trkpt lat="45.21577" lon="1.97004">
        <ele>488.1</ele>
        <time>2022-08-05T13:37:58Z</time>
      </trkpt>
      <trkpt lat="45.21571" lon="1.97003">
        <ele>488</ele>
        <time>2022-08-05T13:38:00Z</time>
      </trkpt>
      <trkpt lat="45.21565" lon="1.97003">
        <ele>487.7</ele>
        <time>2022-08-05T13:38:02Z</time>
      </trkpt>
      <trkpt lat="45.21559" lon="1.97001">
        <ele>487.6</ele>
        <time>2022-08-05T13:38:04Z</time>
      </trkpt>
      <trkpt lat="45.21553" lon="1.97">
        <ele>487.6</ele>
        <time>2022-08-05T13:38:06Z</time>
      </trkpt>
      <trkpt lat="45.21547" lon="1.96998">
        <ele>487.7</ele>
        <time>2022-08-05T13:38:08Z</time>
      </trkpt>
      <trkpt lat="45.21541" lon="1.96996">
        <ele>487.8</ele>
        <time>2022-08-05T13:38:10Z</time>
      </trkpt>
      <trkpt lat="45.21536" lon="1.96991">
        <ele>488.3</ele>
        <time>2022-08-05T13:38:12Z</time>
      </trkpt>
      <trkpt lat="45.2153" lon="1.96988">
        <ele>488.5</ele>
        <time>2022-08-05T13:38:14Z</time>
      </trkpt>
      <trkpt lat="45.21524" lon="1.96986">
        <ele>488.6</ele>
        <time>2022-08-05T13:38:16Z</time>
      </trkpt>
      <trkpt lat="45.21519" lon="1.96982">
        <ele>488.9</ele>
        <time>2022-08-05T13:38:18Z</time>
      </trkpt>
      <trkpt lat="45.21514" lon="1.96979">
        <ele>489.2</ele>
        <time>2022-08-05T13:38:20Z</time>
      </trkpt>
      <trkpt lat="45.21509" lon="1.96975">
        <ele>489.5</ele>
        <time>2022-08-05T13:38:22Z</time>
      </trkpt>
      <trkpt lat="45.21503" lon="1.96971">
        <ele>489.7</ele>
        <time>2022-08-05T13:38:24Z</time>
      </trkpt>
      <trkpt lat="45.21499" lon="1.96967">
        <ele>490.1</ele>
        <time>2022-08-05T13:38:26Z</time>
      </trkpt>
      <trkpt lat="45.21493" lon="1.96963">
        <ele>490.1</ele>
        <time>2022-08-05T13:38:28Z</time>
      </trkpt>
      <trkpt lat="45.21489" lon="1.96959">
        <ele>490.3</ele>
        <time>2022-08-05T13:38:30Z</time>
      </trkpt>
      <trkpt lat="45.21484" lon="1.96956">
        <ele>490.3</ele>
        <time>2022-08-05T13:38:32Z</time>
      </trkpt>
      <trkpt lat="45.21479" lon="1.96951">
        <ele>490.4</ele>
        <time>2022-08-05T13:38:34Z</time>
      </trkpt>
      <trkpt lat="45.21474" lon="1.96946">
        <ele>490.5</ele>
        <time>2022-08-05T13:38:36Z</time>
      </trkpt>
      <trkpt lat="45.2147" lon="1.96939">
        <ele>490.6</ele>
        <time>2022-08-05T13:38:38Z</time>
      </trkpt>
      <trkpt lat="45.21466" lon="1.96933">
        <ele>490.7</ele>
        <time>2022-08-05T13:38:40Z</time>
      </trkpt>
      <trkpt lat="45.21462" lon="1.96926">
        <ele>490.7</ele>
        <time>2022-08-05T13:38:42Z</time>
      </trkpt>
      <trkpt lat="45.21458" lon="1.96919">
        <ele>490.7</ele>
        <time>2022-08-05T13:38:44Z</time>
      </trkpt>
      <trkpt lat="45.21453" lon="1.96911">
        <ele>490.8</ele>
        <time>2022-08-05T13:38:46Z</time>
      </trkpt>
      <trkpt lat="45.21449" lon="1.96902">
        <ele>490.9</ele>
        <time>2022-08-05T13:38:48Z</time>
      </trkpt>
      <trkpt lat="45.21444" lon="1.96895">
        <ele>490.8</ele>
        <time>2022-08-05T13:38:50Z</time>
      </trkpt>
      <trkpt lat="45.21439" lon="1.96888">
        <ele>490.7</ele>
        <time>2022-08-05T13:38:52Z</time>
      </trkpt>
      <trkpt lat="45.21433" lon="1.96881">
        <ele>490.4</ele>
        <time>2022-08-05T13:38:54Z</time>
      </trkpt>
      <trkpt lat="45.21428" lon="1.96875">
        <ele>490</ele>
        <time>2022-08-05T13:38:56Z</time>
      </trkpt>
      <trkpt lat="45.21423" lon="1.96869">
        <ele>489.7</ele>
        <time>2022-08-05T13:38:58Z</time>
      </trkpt>
      <trkpt lat="45.21416" lon="1.96863">
        <ele>489.1</ele>
        <time>2022-08-05T13:39:00Z</time>
      </trkpt>
      <trkpt lat="45.2141" lon="1.96857">
        <ele>489.5</ele>
        <time>2022-08-05T13:39:02Z</time>
      </trkpt>
      <trkpt lat="45.21404" lon="1.96852">
        <ele>489.7</ele>
        <time>2022-08-05T13:39:04Z</time>
      </trkpt>
      <trkpt lat="45.21397" lon="1.96848">
        <ele>489.8</ele>
        <time>2022-08-05T13:39:06Z</time>
      </trkpt>
      <trkpt lat="45.2139" lon="1.96843">
        <ele>489.9</ele>
        <time>2022-08-05T13:39:08Z</time>
      </trkpt>
      <trkpt lat="45.21383" lon="1.9684">
        <ele>489.7</ele>
        <time>2022-08-05T13:39:10Z</time>
      </trkpt>
      <trkpt lat="45.21376" lon="1.96837">
        <ele>489.5</ele>
        <time>2022-08-05T13:39:12Z</time>
      </trkpt>
      <trkpt lat="45.2137" lon="1.96833">
        <ele>489.2</ele>
        <time>2022-08-05T13:39:14Z</time>
      </trkpt>
      <trkpt lat="45.21362" lon="1.96831">
        <ele>488.8</ele>
        <time>2022-08-05T13:39:16Z</time>
      </trkpt>
      <trkpt lat="45.21355" lon="1.96828">
        <ele>488.4</ele>
        <time>2022-08-05T13:39:18Z</time>
      </trkpt>
      <trkpt lat="45.21347" lon="1.96826">
        <ele>487.9</ele>
        <time>2022-08-05T13:39:20Z</time>
      </trkpt>
      <trkpt lat="45.21339" lon="1.96823">
        <ele>487.3</ele>
        <time>2022-08-05T13:39:22Z</time>
      </trkpt>
      <trkpt lat="45.21331" lon="1.96818">
        <ele>486.8</ele>
        <time>2022-08-05T13:39:24Z</time>
      </trkpt>
      <trkpt lat="45.21322" lon="1.96815">
        <ele>486.5</ele>
        <time>2022-08-05T13:39:26Z</time>
      </trkpt>
      <trkpt lat="45.21312" lon="1.96811">
        <ele>486.3</ele>
        <time>2022-08-05T13:39:28Z</time>
      </trkpt>
      <trkpt lat="45.21302" lon="1.96807">
        <ele>486</ele>
        <time>2022-08-05T13:39:30Z</time>
      </trkpt>
      <trkpt lat="45.21293" lon="1.96803">
        <ele>485.8</ele>
        <time>2022-08-05T13:39:32Z</time>
      </trkpt>
      <trkpt lat="45.21284" lon="1.96799">
        <ele>485.6</ele>
        <time>2022-08-05T13:39:34Z</time>
      </trkpt>
      <trkpt lat="45.21275" lon="1.96796">
        <ele>485.5</ele>
        <time>2022-08-05T13:39:36Z</time>
      </trkpt>
      <trkpt lat="45.21266" lon="1.96792">
        <ele>485.3</ele>
        <time>2022-08-05T13:39:38Z</time>
      </trkpt>
      <trkpt lat="45.21259" lon="1.96788">
        <ele>485.1</ele>
        <time>2022-08-05T13:39:40Z</time>
      </trkpt>
      <trkpt lat="45.21251" lon="1.96785">
        <ele>485</ele>
        <time>2022-08-05T13:39:42Z</time>
      </trkpt>
      <trkpt lat="45.21243" lon="1.96781">
        <ele>485</ele>
        <time>2022-08-05T13:39:44Z</time>
      </trkpt>
      <trkpt lat="45.21235" lon="1.96779">
        <ele>485.1</ele>
        <time>2022-08-05T13:39:46Z</time>
      </trkpt>
      <trkpt lat="45.21228" lon="1.96775">
        <ele>485.1</ele>
        <time>2022-08-05T13:39:48Z</time>
      </trkpt>
      <trkpt lat="45.21221" lon="1.96771">
        <ele>485.2</ele>
        <time>2022-08-05T13:39:50Z</time>
      </trkpt>
      <trkpt lat="45.21214" lon="1.96766">
        <ele>485.3</ele>
        <time>2022-08-05T13:39:52Z</time>
      </trkpt>
      <trkpt lat="45.21207" lon="1.96761">
        <ele>485.4</ele>
        <time>2022-08-05T13:39:54Z</time>
      </trkpt>
      <trkpt lat="45.21201" lon="1.96756">
        <ele>485.5</ele>
        <time>2022-08-05T13:39:56Z</time>
      </trkpt>
      <trkpt lat="45.21195" lon="1.9675">
        <ele>485.7</ele>
        <time>2022-08-05T13:39:58Z</time>
      </trkpt>
      <trkpt lat="45.21189" lon="1.96744">
        <ele>485.8</ele>
        <time>2022-08-05T13:40:00Z</time>
      </trkpt>
      <trkpt lat="45.21184" lon="1.96738">
        <ele>485.9</ele>
        <time>2022-08-05T13:40:02Z</time>
      </trkpt>
      <trkpt lat="45.21179" lon="1.96732">
        <ele>485.9</ele>
        <time>2022-08-05T13:40:04Z</time>
      </trkpt>
      <trkpt lat="45.21174" lon="1.96724">
        <ele>486</ele>
        <time>2022-08-05T13:40:06Z</time>
      </trkpt>
      <trkpt lat="45.21168" lon="1.96717">
        <ele>486</ele>
        <time>2022-08-05T13:40:08Z</time>
      </trkpt>
      <trkpt lat="45.21162" lon="1.96708">
        <ele>485.7</ele>
        <time>2022-08-05T13:40:10Z</time>
      </trkpt>
      <trkpt lat="45.21154" lon="1.967">
        <ele>485.2</ele>
        <time>2022-08-05T13:40:12Z</time>
      </trkpt>
      <trkpt lat="45.21145" lon="1.96692">
        <ele>484.7</ele>
        <time>2022-08-05T13:40:14Z</time>
      </trkpt>
      <trkpt lat="45.21135" lon="1.96685">
        <ele>484.1</ele>
        <time>2022-08-05T13:40:16Z</time>
      </trkpt>
      <trkpt lat="45.21122" lon="1.96678">
        <ele>483.3</ele>
        <time>2022-08-05T13:40:18Z</time>
      </trkpt>
      <trkpt lat="45.21109" lon="1.96672">
        <ele>482.5</ele>
        <time>2022-08-05T13:40:20Z</time>
      </trkpt>
      <trkpt lat="45.21095" lon="1.96665">
        <ele>481.8</ele>
        <time>2022-08-05T13:40:22Z</time>
      </trkpt>
      <trkpt lat="45.2108" lon="1.96657">
        <ele>481.2</ele>
        <time>2022-08-05T13:40:24Z</time>
      </trkpt>
      <trkpt lat="45.21065" lon="1.96651">
        <ele>480.5</ele>
        <time>2022-08-05T13:40:26Z</time>
      </trkpt>
      <trkpt lat="45.21048" lon="1.96645">
        <ele>479.5</ele>
        <time>2022-08-05T13:40:28Z</time>
      </trkpt>
      <trkpt lat="45.21031" lon="1.96639">
        <ele>478.4</ele>
        <time>2022-08-05T13:40:30Z</time>
      </trkpt>
      <trkpt lat="45.21015" lon="1.96635">
        <ele>477.1</ele>
        <time>2022-08-05T13:40:32Z</time>
      </trkpt>
      <trkpt lat="45.20996" lon="1.96632">
        <ele>475.9</ele>
        <time>2022-08-05T13:40:34Z</time>
      </trkpt>
      <trkpt lat="45.20979" lon="1.96629">
        <ele>475.4</ele>
        <time>2022-08-05T13:40:36Z</time>
      </trkpt>
      <trkpt lat="45.2096" lon="1.96628">
        <ele>474.9</ele>
        <time>2022-08-05T13:40:38Z</time>
      </trkpt>
      <trkpt lat="45.20941" lon="1.96628">
        <ele>474.3</ele>
        <time>2022-08-05T13:40:40Z</time>
      </trkpt>
      <trkpt lat="45.20921" lon="1.96627">
        <ele>473.7</ele>
        <time>2022-08-05T13:40:42Z</time>
      </trkpt>
      <trkpt lat="45.20901" lon="1.96627">
        <ele>473.5</ele>
        <time>2022-08-05T13:40:44Z</time>
      </trkpt>
      <trkpt lat="45.20879" lon="1.96626">
        <ele>473.3</ele>
        <time>2022-08-05T13:40:46Z</time>
      </trkpt>
      <trkpt lat="45.20857" lon="1.96626">
        <ele>473.2</ele>
        <time>2022-08-05T13:40:48Z</time>
      </trkpt>
      <trkpt lat="45.20834" lon="1.96625">
        <ele>473</ele>
        <time>2022-08-05T13:40:50Z</time>
      </trkpt>
      <trkpt lat="45.2081" lon="1.96624">
        <ele>473</ele>
        <time>2022-08-05T13:40:52Z</time>
      </trkpt>
      <trkpt lat="45.20784" lon="1.96625">
        <ele>473</ele>
        <time>2022-08-05T13:40:54Z</time>
      </trkpt>
      <trkpt lat="45.20758" lon="1.96624">
        <ele>473</ele>
        <time>2022-08-05T13:40:56Z</time>
      </trkpt>
      <trkpt lat="45.20731" lon="1.96624">
        <ele>471.1</ele>
        <time>2022-08-05T13:40:58Z</time>
      </trkpt>
      <trkpt lat="45.20703" lon="1.96623">
        <ele>468.3</ele>
        <time>2022-08-05T13:41:00Z</time>
      </trkpt>
      <trkpt lat="45.20675" lon="1.96622">
        <ele>465.6</ele>
        <time>2022-08-05T13:41:02Z</time>
      </trkpt>
      <trkpt lat="45.20649" lon="1.96622">
        <ele>465.4</ele>
        <time>2022-08-05T13:41:04Z</time>
      </trkpt>
      <trkpt lat="45.20625" lon="1.96623">
        <ele>466.1</ele>
        <time>2022-08-05T13:41:06Z</time>
      </trkpt>
      <trkpt lat="45.20603" lon="1.96623">
        <ele>466.8</ele>
        <time>2022-08-05T13:41:08Z</time>
      </trkpt>
      <trkpt lat="45.20585" lon="1.96622">
        <ele>467.5</ele>
        <time>2022-08-05T13:41:10Z</time>
      </trkpt>
      <trkpt lat="45.20569" lon="1.9662">
        <ele>467</ele>
        <time>2022-08-05T13:41:12Z</time>
      </trkpt>
      <trkpt lat="45.20555" lon="1.96616">
        <ele>466.5</ele>
        <time>2022-08-05T13:41:14Z</time>
      </trkpt>
      <trkpt lat="45.20544" lon="1.96609">
        <ele>466.1</ele>
        <time>2022-08-05T13:41:16Z</time>
      </trkpt>
      <trkpt lat="45.20536" lon="1.96603">
        <ele>465.7</ele>
        <time>2022-08-05T13:41:18Z</time>
      </trkpt>
      <trkpt lat="45.20529" lon="1.96594">
        <ele>465.4</ele>
        <time>2022-08-05T13:41:20Z</time>
      </trkpt>
      <trkpt lat="45.20525" lon="1.96587">
        <ele>465.2</ele>
        <time>2022-08-05T13:41:22Z</time>
      </trkpt>
      <trkpt lat="45.2052" lon="1.9658">
        <ele>465.1</ele>
        <time>2022-08-05T13:41:24Z</time>
      </trkpt>
      <trkpt lat="45.20517" lon="1.96574">
        <ele>465.3</ele>
        <time>2022-08-05T13:41:26Z</time>
      </trkpt>
      <trkpt lat="45.20513" lon="1.96567">
        <ele>465.5</ele>
        <time>2022-08-05T13:41:28Z</time>
      </trkpt>
      <trkpt lat="45.2051" lon="1.9656">
        <ele>465.6</ele>
        <time>2022-08-05T13:41:30Z</time>
      </trkpt>
      <trkpt lat="45.20506" lon="1.96553">
        <ele>465.6</ele>
        <time>2022-08-05T13:41:32Z</time>
      </trkpt>
      <trkpt lat="45.20504" lon="1.96547">
        <ele>465.6</ele>
        <time>2022-08-05T13:41:34Z</time>
      </trkpt>
      <trkpt lat="45.20502" lon="1.96541">
        <ele>465.7</ele>
        <time>2022-08-05T13:41:36Z</time>
      </trkpt>
      <trkpt lat="45.205" lon="1.96534">
        <ele>465.8</ele>
        <time>2022-08-05T13:41:38Z</time>
      </trkpt>
      <trkpt lat="45.20499" lon="1.96527">
        <ele>465.9</ele>
        <time>2022-08-05T13:41:40Z</time>
      </trkpt>
      <trkpt lat="45.20498" lon="1.9652">
        <ele>466.1</ele>
        <time>2022-08-05T13:41:42Z</time>
      </trkpt>
      <trkpt lat="45.20496" lon="1.96513">
        <ele>466.4</ele>
        <time>2022-08-05T13:41:44Z</time>
      </trkpt>
      <trkpt lat="45.20496" lon="1.96505">
        <ele>466.6</ele>
        <time>2022-08-05T13:41:46Z</time>
      </trkpt>
      <trkpt lat="45.20495" lon="1.96498">
        <ele>466.9</ele>
        <time>2022-08-05T13:41:48Z</time>
      </trkpt>
      <trkpt lat="45.20495" lon="1.9649">
        <ele>467.2</ele>
        <time>2022-08-05T13:41:50Z</time>
      </trkpt>
      <trkpt lat="45.20494" lon="1.96482">
        <ele>467.6</ele>
        <time>2022-08-05T13:41:52Z</time>
      </trkpt>
      <trkpt lat="45.20494" lon="1.96474">
        <ele>467.9</ele>
        <time>2022-08-05T13:41:54Z</time>
      </trkpt>
      <trkpt lat="45.20493" lon="1.96466">
        <ele>468.3</ele>
        <time>2022-08-05T13:41:56Z</time>
      </trkpt>
      <trkpt lat="45.20493" lon="1.96458">
        <ele>468.7</ele>
        <time>2022-08-05T13:41:58Z</time>
      </trkpt>
      <trkpt lat="45.20492" lon="1.96449">
        <ele>469.1</ele>
        <time>2022-08-05T13:42:00Z</time>
      </trkpt>
      <trkpt lat="45.20492" lon="1.96442">
        <ele>469.4</ele>
        <time>2022-08-05T13:42:02Z</time>
      </trkpt>
      <trkpt lat="45.20491" lon="1.96434">
        <ele>469.8</ele>
        <time>2022-08-05T13:42:04Z</time>
      </trkpt>
      <trkpt lat="45.20491" lon="1.96426">
        <ele>470.1</ele>
        <time>2022-08-05T13:42:06Z</time>
      </trkpt>
      <trkpt lat="45.2049" lon="1.96418">
        <ele>470.4</ele>
        <time>2022-08-05T13:42:08Z</time>
      </trkpt>
      <trkpt lat="45.2049" lon="1.96411">
        <ele>470.9</ele>
        <time>2022-08-05T13:42:10Z</time>
      </trkpt>
      <trkpt lat="45.20489" lon="1.96403">
        <ele>471.3</ele>
        <time>2022-08-05T13:42:12Z</time>
      </trkpt>
      <trkpt lat="45.20489" lon="1.96395">
        <ele>471.8</ele>
        <time>2022-08-05T13:42:14Z</time>
      </trkpt>
      <trkpt lat="45.20488" lon="1.96387">
        <ele>472.3</ele>
        <time>2022-08-05T13:42:16Z</time>
      </trkpt>
      <trkpt lat="45.20488" lon="1.96379">
        <ele>472.8</ele>
        <time>2022-08-05T13:42:18Z</time>
      </trkpt>
      <trkpt lat="45.20487" lon="1.9637">
        <ele>473.4</ele>
        <time>2022-08-05T13:42:20Z</time>
      </trkpt>
      <trkpt lat="45.20486" lon="1.9636">
        <ele>473.9</ele>
        <time>2022-08-05T13:42:22Z</time>
      </trkpt>
      <trkpt lat="45.20485" lon="1.96349">
        <ele>474.6</ele>
        <time>2022-08-05T13:42:24Z</time>
      </trkpt>
      <trkpt lat="45.20484" lon="1.96336">
        <ele>475.4</ele>
        <time>2022-08-05T13:42:26Z</time>
      </trkpt>
      <trkpt lat="45.20483" lon="1.96321">
        <ele>474.9</ele>
        <time>2022-08-05T13:42:28Z</time>
      </trkpt>
      <trkpt lat="45.20482" lon="1.96303">
        <ele>473.7</ele>
        <time>2022-08-05T13:42:30Z</time>
      </trkpt>
      <trkpt lat="45.20481" lon="1.96284">
        <ele>472.5</ele>
        <time>2022-08-05T13:42:32Z</time>
      </trkpt>
      <trkpt lat="45.20483" lon="1.96262">
        <ele>471.2</ele>
        <time>2022-08-05T13:42:34Z</time>
      </trkpt>
      <trkpt lat="45.20486" lon="1.9624">
        <ele>470.2</ele>
        <time>2022-08-05T13:42:36Z</time>
      </trkpt>
      <trkpt lat="45.20491" lon="1.96221">
        <ele>469.8</ele>
        <time>2022-08-05T13:42:38Z</time>
      </trkpt>
      <trkpt lat="45.20494" lon="1.96202">
        <ele>469.4</ele>
        <time>2022-08-05T13:42:40Z</time>
      </trkpt>
      <trkpt lat="45.20496" lon="1.96182">
        <ele>469.2</ele>
        <time>2022-08-05T13:42:42Z</time>
      </trkpt>
      <trkpt lat="45.20498" lon="1.96164">
        <ele>469.3</ele>
        <time>2022-08-05T13:42:44Z</time>
      </trkpt>
      <trkpt lat="45.20497" lon="1.96147">
        <ele>471.3</ele>
        <time>2022-08-05T13:42:46Z</time>
      </trkpt>
      <trkpt lat="45.20492" lon="1.96132">
        <ele>472.9</ele>
        <time>2022-08-05T13:42:48Z</time>
      </trkpt>
      <trkpt lat="45.20482" lon="1.96124">
        <ele>473.4</ele>
        <time>2022-08-05T13:42:50Z</time>
      </trkpt>
      <trkpt lat="45.2047" lon="1.96121">
        <ele>473.1</ele>
        <time>2022-08-05T13:42:52Z</time>
      </trkpt>
      <trkpt lat="45.20459" lon="1.96122">
        <ele>472.6</ele>
        <time>2022-08-05T13:42:54Z</time>
      </trkpt>
      <trkpt lat="45.20446" lon="1.96127">
        <ele>471.5</ele>
        <time>2022-08-05T13:42:56Z</time>
      </trkpt>
      <trkpt lat="45.20435" lon="1.9613">
        <ele>470.9</ele>
        <time>2022-08-05T13:42:58Z</time>
      </trkpt>
      <trkpt lat="45.20423" lon="1.96134">
        <ele>470.2</ele>
        <time>2022-08-05T13:43:00Z</time>
      </trkpt>
      <trkpt lat="45.2041" lon="1.96137">
        <ele>470</ele>
        <time>2022-08-05T13:43:02Z</time>
      </trkpt>
      <trkpt lat="45.20396" lon="1.96139">
        <ele>470.3</ele>
        <time>2022-08-05T13:43:04Z</time>
      </trkpt>
      <trkpt lat="45.20383" lon="1.96133">
        <ele>471.1</ele>
        <time>2022-08-05T13:43:06Z</time>
      </trkpt>
      <trkpt lat="45.20369" lon="1.96126">
        <ele>472.1</ele>
        <time>2022-08-05T13:43:08Z</time>
      </trkpt>
      <trkpt lat="45.20354" lon="1.96123">
        <ele>473</ele>
        <time>2022-08-05T13:43:10Z</time>
      </trkpt>
      <trkpt lat="45.2034" lon="1.96128">
        <ele>472.9</ele>
        <time>2022-08-05T13:43:12Z</time>
      </trkpt>
      <trkpt lat="45.20328" lon="1.96143">
        <ele>472.1</ele>
        <time>2022-08-05T13:43:14Z</time>
      </trkpt>
      <trkpt lat="45.20317" lon="1.9616">
        <ele>471.6</ele>
        <time>2022-08-05T13:43:16Z</time>
      </trkpt>
      <trkpt lat="45.20309" lon="1.96178">
        <ele>471.3</ele>
        <time>2022-08-05T13:43:18Z</time>
      </trkpt>
      <trkpt lat="45.203" lon="1.96192">
        <ele>471.8</ele>
        <time>2022-08-05T13:43:20Z</time>
      </trkpt>
      <trkpt lat="45.20292" lon="1.96211">
        <ele>472.2</ele>
        <time>2022-08-05T13:43:22Z</time>
      </trkpt>
      <trkpt lat="45.20288" lon="1.96229">
        <ele>471.9</ele>
        <time>2022-08-05T13:43:24Z</time>
      </trkpt>
      <trkpt lat="45.20285" lon="1.96247">
        <ele>471.8</ele>
        <time>2022-08-05T13:43:26Z</time>
      </trkpt>
      <trkpt lat="45.20284" lon="1.96265">
        <ele>470.8</ele>
        <time>2022-08-05T13:43:28Z</time>
      </trkpt>
      <trkpt lat="45.20279" lon="1.96282">
        <ele>470.3</ele>
        <time>2022-08-05T13:43:30Z</time>
      </trkpt>
      <trkpt lat="45.20275" lon="1.96298">
        <ele>469.8</ele>
        <time>2022-08-05T13:43:32Z</time>
      </trkpt>
      <trkpt lat="45.2027" lon="1.96314">
        <ele>469.3</ele>
        <time>2022-08-05T13:43:34Z</time>
      </trkpt>
      <trkpt lat="45.20263" lon="1.96328">
        <ele>468.9</ele>
        <time>2022-08-05T13:43:36Z</time>
      </trkpt>
      <trkpt lat="45.20255" lon="1.9634">
        <ele>468.3</ele>
        <time>2022-08-05T13:43:38Z</time>
      </trkpt>
      <trkpt lat="45.20244" lon="1.96349">
        <ele>467.5</ele>
        <time>2022-08-05T13:43:40Z</time>
      </trkpt>
      <trkpt lat="45.20233" lon="1.96358">
        <ele>466.4</ele>
        <time>2022-08-05T13:43:42Z</time>
      </trkpt>
      <trkpt lat="45.20221" lon="1.96363">
        <ele>465.7</ele>
        <time>2022-08-05T13:43:44Z</time>
      </trkpt>
      <trkpt lat="45.20208" lon="1.9637">
        <ele>464.8</ele>
        <time>2022-08-05T13:43:46Z</time>
      </trkpt>
      <trkpt lat="45.20193" lon="1.9638">
        <ele>463.4</ele>
        <time>2022-08-05T13:43:48Z</time>
      </trkpt>
      <trkpt lat="45.20179" lon="1.96389">
        <ele>462.1</ele>
        <time>2022-08-05T13:43:50Z</time>
      </trkpt>
      <trkpt lat="45.20166" lon="1.96391">
        <ele>461.8</ele>
        <time>2022-08-05T13:43:52Z</time>
      </trkpt>
      <trkpt lat="45.20154" lon="1.96391">
        <ele>460.7</ele>
        <time>2022-08-05T13:43:54Z</time>
      </trkpt>
      <trkpt lat="45.20145" lon="1.9639">
        <ele>460.1</ele>
        <time>2022-08-05T13:43:56Z</time>
      </trkpt>
      <trkpt lat="45.20138" lon="1.9639">
        <ele>459.3</ele>
        <time>2022-08-05T13:43:58Z</time>
      </trkpt>
      <trkpt lat="45.2013" lon="1.9639">
        <ele>458.6</ele>
        <time>2022-08-05T13:44:00Z</time>
      </trkpt>
      <trkpt lat="45.20122" lon="1.96389">
        <ele>458</ele>
        <time>2022-08-05T13:44:02Z</time>
      </trkpt>
      <trkpt lat="45.20116" lon="1.96388">
        <ele>457.7</ele>
        <time>2022-08-05T13:44:04Z</time>
      </trkpt>
      <trkpt lat="45.2011" lon="1.96386">
        <ele>457.3</ele>
        <time>2022-08-05T13:44:06Z</time>
      </trkpt>
      <trkpt lat="45.20105" lon="1.96382">
        <ele>457.4</ele>
        <time>2022-08-05T13:44:08Z</time>
      </trkpt>
      <trkpt lat="45.20101" lon="1.96377">
        <ele>457.6</ele>
        <time>2022-08-05T13:44:10Z</time>
      </trkpt>
      <trkpt lat="45.20097" lon="1.96373">
        <ele>457.7</ele>
        <time>2022-08-05T13:44:12Z</time>
      </trkpt>
      <trkpt lat="45.20093" lon="1.96369">
        <ele>457.9</ele>
        <time>2022-08-05T13:44:14Z</time>
      </trkpt>
      <trkpt lat="45.2009" lon="1.96362">
        <ele>458.3</ele>
        <time>2022-08-05T13:44:16Z</time>
      </trkpt>
      <trkpt lat="45.20087" lon="1.96358">
        <ele>458.5</ele>
        <time>2022-08-05T13:44:18Z</time>
      </trkpt>
      <trkpt lat="45.20083" lon="1.96351">
        <ele>458.8</ele>
        <time>2022-08-05T13:44:20Z</time>
      </trkpt>
      <trkpt lat="45.20079" lon="1.96344">
        <ele>459.8</ele>
        <time>2022-08-05T13:44:22Z</time>
      </trkpt>
      <trkpt lat="45.20074" lon="1.96336">
        <ele>460.9</ele>
        <time>2022-08-05T13:44:24Z</time>
      </trkpt>
      <trkpt lat="45.20069" lon="1.96325">
        <ele>462.6</ele>
        <time>2022-08-05T13:44:26Z</time>
      </trkpt>
      <trkpt lat="45.20061" lon="1.96315">
        <ele>464.5</ele>
        <time>2022-08-05T13:44:28Z</time>
      </trkpt>
      <trkpt lat="45.20051" lon="1.9631">
        <ele>465.6</ele>
        <time>2022-08-05T13:44:30Z</time>
      </trkpt>
      <trkpt lat="45.2004" lon="1.96312">
        <ele>465.8</ele>
        <time>2022-08-05T13:44:32Z</time>
      </trkpt>
      <trkpt lat="45.20028" lon="1.9632">
        <ele>464.7</ele>
        <time>2022-08-05T13:44:34Z</time>
      </trkpt>
      <trkpt lat="45.20016" lon="1.96329">
        <ele>463.5</ele>
        <time>2022-08-05T13:44:36Z</time>
      </trkpt>
      <trkpt lat="45.20005" lon="1.96337">
        <ele>462.4</ele>
        <time>2022-08-05T13:44:38Z</time>
      </trkpt>
      <trkpt lat="45.19994" lon="1.96345">
        <ele>462.1</ele>
        <time>2022-08-05T13:44:40Z</time>
      </trkpt>
      <trkpt lat="45.19982" lon="1.96356">
        <ele>461.9</ele>
        <time>2022-08-05T13:44:42Z</time>
      </trkpt>
      <trkpt lat="45.19973" lon="1.96369">
        <ele>461.4</ele>
        <time>2022-08-05T13:44:44Z</time>
      </trkpt>
      <trkpt lat="45.19966" lon="1.96385">
        <ele>460.4</ele>
        <time>2022-08-05T13:44:46Z</time>
      </trkpt>
      <trkpt lat="45.19963" lon="1.964">
        <ele>459.1</ele>
        <time>2022-08-05T13:44:48Z</time>
      </trkpt>
      <trkpt lat="45.19959" lon="1.96412">
        <ele>458.4</ele>
        <time>2022-08-05T13:44:50Z</time>
      </trkpt>
      <trkpt lat="45.19958" lon="1.96423">
        <ele>458</ele>
        <time>2022-08-05T13:44:52Z</time>
      </trkpt>
      <trkpt lat="45.19958" lon="1.96434">
        <ele>457.8</ele>
        <time>2022-08-05T13:44:54Z</time>
      </trkpt>
      <trkpt lat="45.1996" lon="1.96446">
        <ele>457.5</ele>
        <time>2022-08-05T13:44:56Z</time>
      </trkpt>
      <trkpt lat="45.19959" lon="1.96457">
        <ele>457.4</ele>
        <time>2022-08-05T13:44:58Z</time>
      </trkpt>
      <trkpt lat="45.1996" lon="1.96465">
        <ele>457.2</ele>
        <time>2022-08-05T13:45:00Z</time>
      </trkpt>
      <trkpt lat="45.1996" lon="1.96475">
        <ele>457.1</ele>
        <time>2022-08-05T13:45:02Z</time>
      </trkpt>
      <trkpt lat="45.19959" lon="1.96487">
        <ele>457.1</ele>
        <time>2022-08-05T13:45:04Z</time>
      </trkpt>
      <trkpt lat="45.19957" lon="1.96498">
        <ele>457.1</ele>
        <time>2022-08-05T13:45:06Z</time>
      </trkpt>
      <trkpt lat="45.19954" lon="1.96508">
        <ele>456.3</ele>
        <time>2022-08-05T13:45:08Z</time>
      </trkpt>
      <trkpt lat="45.19949" lon="1.96519">
        <ele>455.3</ele>
        <time>2022-08-05T13:45:10Z</time>
      </trkpt>
      <trkpt lat="45.19943" lon="1.96529">
        <ele>454.4</ele>
        <time>2022-08-05T13:45:12Z</time>
      </trkpt>
      <trkpt lat="45.19937" lon="1.96537">
        <ele>453.8</ele>
        <time>2022-08-05T13:45:14Z</time>
      </trkpt>
      <trkpt lat="45.19931" lon="1.96544">
        <ele>453.4</ele>
        <time>2022-08-05T13:45:16Z</time>
      </trkpt>
      <trkpt lat="45.19924" lon="1.9655">
        <ele>453.2</ele>
        <time>2022-08-05T13:45:18Z</time>
      </trkpt>
      <trkpt lat="45.19916" lon="1.96557">
        <ele>452.8</ele>
        <time>2022-08-05T13:45:20Z</time>
      </trkpt>
      <trkpt lat="45.19907" lon="1.96564">
        <ele>451.9</ele>
        <time>2022-08-05T13:45:22Z</time>
      </trkpt>
      <trkpt lat="45.19896" lon="1.96572">
        <ele>450.8</ele>
        <time>2022-08-05T13:45:24Z</time>
      </trkpt>
      <trkpt lat="45.19885" lon="1.96582">
        <ele>449.6</ele>
        <time>2022-08-05T13:45:26Z</time>
      </trkpt>
      <trkpt lat="45.19874" lon="1.96593">
        <ele>448.6</ele>
        <time>2022-08-05T13:45:28Z</time>
      </trkpt>
      <trkpt lat="45.19864" lon="1.96607">
        <ele>447.4</ele>
        <time>2022-08-05T13:45:30Z</time>
      </trkpt>
      <trkpt lat="45.19857" lon="1.96627">
        <ele>445.8</ele>
        <time>2022-08-05T13:45:32Z</time>
      </trkpt>
      <trkpt lat="45.1985" lon="1.96645">
        <ele>444.3</ele>
        <time>2022-08-05T13:45:34Z</time>
      </trkpt>
      <trkpt lat="45.19844" lon="1.96664">
        <ele>442.8</ele>
        <time>2022-08-05T13:45:36Z</time>
      </trkpt>
      <trkpt lat="45.19836" lon="1.96683">
        <ele>440.7</ele>
        <time>2022-08-05T13:45:38Z</time>
      </trkpt>
      <trkpt lat="45.19824" lon="1.96695">
        <ele>439.8</ele>
        <time>2022-08-05T13:45:40Z</time>
      </trkpt>
      <trkpt lat="45.19809" lon="1.96703">
        <ele>439.9</ele>
        <time>2022-08-05T13:45:42Z</time>
      </trkpt>
      <trkpt lat="45.19793" lon="1.96706">
        <ele>440.6</ele>
        <time>2022-08-05T13:45:44Z</time>
      </trkpt>
      <trkpt lat="45.19778" lon="1.96709">
        <ele>441.4</ele>
        <time>2022-08-05T13:45:46Z</time>
      </trkpt>
      <trkpt lat="45.19763" lon="1.96716">
        <ele>442.1</ele>
        <time>2022-08-05T13:45:48Z</time>
      </trkpt>
      <trkpt lat="45.1975" lon="1.96721">
        <ele>442.7</ele>
        <time>2022-08-05T13:45:50Z</time>
      </trkpt>
      <trkpt lat="45.19741" lon="1.96732">
        <ele>442.8</ele>
        <time>2022-08-05T13:45:52Z</time>
      </trkpt>
      <trkpt lat="45.19737" lon="1.96748">
        <ele>442.2</ele>
        <time>2022-08-05T13:45:54Z</time>
      </trkpt>
      <trkpt lat="45.19742" lon="1.96771">
        <ele>441.2</ele>
        <time>2022-08-05T13:45:56Z</time>
      </trkpt>
      <trkpt lat="45.1975" lon="1.96793">
        <ele>439.9</ele>
        <time>2022-08-05T13:45:58Z</time>
      </trkpt>
      <trkpt lat="45.19758" lon="1.96816">
        <ele>437.6</ele>
        <time>2022-08-05T13:46:00Z</time>
      </trkpt>
      <trkpt lat="45.19759" lon="1.96843">
        <ele>435.3</ele>
        <time>2022-08-05T13:46:02Z</time>
      </trkpt>
      <trkpt lat="45.19752" lon="1.96864">
        <ele>434.3</ele>
        <time>2022-08-05T13:46:04Z</time>
      </trkpt>
      <trkpt lat="45.19746" lon="1.96882">
        <ele>433</ele>
        <time>2022-08-05T13:46:06Z</time>
      </trkpt>
      <trkpt lat="45.19739" lon="1.96896">
        <ele>431.7</ele>
        <time>2022-08-05T13:46:08Z</time>
      </trkpt>
      <trkpt lat="45.19731" lon="1.96902">
        <ele>431.5</ele>
        <time>2022-08-05T13:46:10Z</time>
      </trkpt>
      <trkpt lat="45.19726" lon="1.96906">
        <ele>431.5</ele>
        <time>2022-08-05T13:46:12Z</time>
      </trkpt>
      <trkpt lat="45.1972" lon="1.96908">
        <ele>431.7</ele>
        <time>2022-08-05T13:46:14Z</time>
      </trkpt>
      <trkpt lat="45.19716" lon="1.96911">
        <ele>431.8</ele>
        <time>2022-08-05T13:46:16Z</time>
      </trkpt>
      <trkpt lat="45.1971" lon="1.96912">
        <ele>432</ele>
        <time>2022-08-05T13:46:18Z</time>
      </trkpt>
      <trkpt lat="45.19705" lon="1.96913">
        <ele>432.4</ele>
        <time>2022-08-05T13:46:20Z</time>
      </trkpt>
      <trkpt lat="45.19699" lon="1.96914">
        <ele>432.7</ele>
        <time>2022-08-05T13:46:22Z</time>
      </trkpt>
      <trkpt lat="45.19694" lon="1.96915">
        <ele>432.9</ele>
        <time>2022-08-05T13:46:24Z</time>
      </trkpt>
      <trkpt lat="45.19689" lon="1.96917">
        <ele>433.1</ele>
        <time>2022-08-05T13:46:26Z</time>
      </trkpt>
      <trkpt lat="45.19684" lon="1.96919">
        <ele>433.3</ele>
        <time>2022-08-05T13:46:28Z</time>
      </trkpt>
      <trkpt lat="45.19679" lon="1.9692">
        <ele>433.5</ele>
        <time>2022-08-05T13:46:30Z</time>
      </trkpt>
      <trkpt lat="45.19674" lon="1.96922">
        <ele>433.7</ele>
        <time>2022-08-05T13:46:32Z</time>
      </trkpt>
      <trkpt lat="45.19669" lon="1.96923">
        <ele>434</ele>
        <time>2022-08-05T13:46:34Z</time>
      </trkpt>
      <trkpt lat="45.19664" lon="1.96924">
        <ele>434</ele>
        <time>2022-08-05T13:46:36Z</time>
      </trkpt>
      <trkpt lat="45.19659" lon="1.96926">
        <ele>433.8</ele>
        <time>2022-08-05T13:46:38Z</time>
      </trkpt>
      <trkpt lat="45.19654" lon="1.96927">
        <ele>433.6</ele>
        <time>2022-08-05T13:46:40Z</time>
      </trkpt>
      <trkpt lat="45.19649" lon="1.96928">
        <ele>433.4</ele>
        <time>2022-08-05T13:46:42Z</time>
      </trkpt>
      <trkpt lat="45.19644" lon="1.96929">
        <ele>433.3</ele>
        <time>2022-08-05T13:46:44Z</time>
      </trkpt>
      <trkpt lat="45.19639" lon="1.9693">
        <ele>433.2</ele>
        <time>2022-08-05T13:46:46Z</time>
      </trkpt>
      <trkpt lat="45.19634" lon="1.96931">
        <ele>433.1</ele>
        <time>2022-08-05T13:46:48Z</time>
      </trkpt>
      <trkpt lat="45.19629" lon="1.96933">
        <ele>432.8</ele>
        <time>2022-08-05T13:46:50Z</time>
      </trkpt>
      <trkpt lat="45.19625" lon="1.96933">
        <ele>432.8</ele>
        <time>2022-08-05T13:46:52Z</time>
      </trkpt>
      <trkpt lat="45.19621" lon="1.96933">
        <ele>432.8</ele>
        <time>2022-08-05T13:46:54Z</time>
      </trkpt>
      <trkpt lat="45.19617" lon="1.96932">
        <ele>433</ele>
        <time>2022-08-05T13:46:56Z</time>
      </trkpt>
      <trkpt lat="45.19613" lon="1.96931">
        <ele>433</ele>
        <time>2022-08-05T13:46:58Z</time>
      </trkpt>
      <trkpt lat="45.19608" lon="1.96931">
        <ele>433</ele>
        <time>2022-08-05T13:47:00Z</time>
      </trkpt>
      <trkpt lat="45.19604" lon="1.96931">
        <ele>433</ele>
        <time>2022-08-05T13:47:02Z</time>
      </trkpt>
      <trkpt lat="45.196" lon="1.96931">
        <ele>433</ele>
        <time>2022-08-05T13:47:04Z</time>
      </trkpt>
      <trkpt lat="45.19596" lon="1.96932">
        <ele>432.9</ele>
        <time>2022-08-05T13:47:06Z</time>
      </trkpt>
      <trkpt lat="45.19592" lon="1.96931">
        <ele>433</ele>
        <time>2022-08-05T13:47:08Z</time>
      </trkpt>
      <trkpt lat="45.19588" lon="1.96931">
        <ele>433</ele>
        <time>2022-08-05T13:47:10Z</time>
      </trkpt>
      <trkpt lat="45.19584" lon="1.96931">
        <ele>432.9</ele>
        <time>2022-08-05T13:47:12Z</time>
      </trkpt>
      <trkpt lat="45.1958" lon="1.96931">
        <ele>432.9</ele>
        <time>2022-08-05T13:47:14Z</time>
      </trkpt>
      <trkpt lat="45.19576" lon="1.96931">
        <ele>432.8</ele>
        <time>2022-08-05T13:47:16Z</time>
      </trkpt>
      <trkpt lat="45.19571" lon="1.96932">
        <ele>432.7</ele>
        <time>2022-08-05T13:47:18Z</time>
      </trkpt>
      <trkpt lat="45.19567" lon="1.96933">
        <ele>432.6</ele>
        <time>2022-08-05T13:47:20Z</time>
      </trkpt>
      <trkpt lat="45.19562" lon="1.96934">
        <ele>432.5</ele>
        <time>2022-08-05T13:47:22Z</time>
      </trkpt>
      <trkpt lat="45.19557" lon="1.96934">
        <ele>432.5</ele>
        <time>2022-08-05T13:47:24Z</time>
      </trkpt>
      <trkpt lat="45.19552" lon="1.96933">
        <ele>432.5</ele>
        <time>2022-08-05T13:47:26Z</time>
      </trkpt>
      <trkpt lat="45.19549" lon="1.96932">
        <ele>432.4</ele>
        <time>2022-08-05T13:47:28Z</time>
      </trkpt>
      <trkpt lat="45.19546" lon="1.96932">
        <ele>432.5</ele>
        <time>2022-08-05T13:47:30Z</time>
      </trkpt>
      <trkpt lat="45.19544" lon="1.96933">
        <ele>432.4</ele>
        <time>2022-08-05T13:47:32Z</time>
      </trkpt>
      <trkpt lat="45.19539" lon="1.96934">
        <ele>432.2</ele>
        <time>2022-08-05T13:47:34Z</time>
      </trkpt>
      <trkpt lat="45.19536" lon="1.96934">
        <ele>432.2</ele>
        <time>2022-08-05T13:47:36Z</time>
      </trkpt>
      <trkpt lat="45.19536" lon="1.96937">
        <ele>432</ele>
        <time>2022-08-05T13:47:38Z</time>
      </trkpt>
      <trkpt lat="45.19537" lon="1.9694">
        <ele>431.8</ele>
        <time>2022-08-05T13:47:40Z</time>
      </trkpt>
      <trkpt lat="45.19537" lon="1.9694">
        <ele>431.8</ele>
        <time>2022-08-05T13:47:42Z</time>
      </trkpt>
      <trkpt lat="45.19537" lon="1.96939">
        <ele>431.8</ele>
        <time>2022-08-05T13:47:44Z</time>
      </trkpt>
      <trkpt lat="45.19549" lon="1.96925">
        <ele>433</ele>
        <time>2022-08-05T13:49:00Z</time>
      </trkpt>
      <trkpt lat="45.19549" lon="1.96926">
        <ele>432.9</ele>
        <time>2022-08-05T13:49:02Z</time>
      </trkpt>
      <trkpt lat="45.19547" lon="1.96926">
        <ele>432.9</ele>
        <time>2022-08-05T13:49:04Z</time>
      </trkpt>
      <trkpt lat="45.19544" lon="1.96927">
        <ele>432.8</ele>
        <time>2022-08-05T13:49:06Z</time>
      </trkpt>
      <trkpt lat="45.1954" lon="1.96929">
        <ele>432.6</ele>
        <time>2022-08-05T13:49:08Z</time>
      </trkpt>
      <trkpt lat="45.19537" lon="1.96929">
        <ele>432.6</ele>
        <time>2022-08-05T13:49:10Z</time>
      </trkpt>
      <trkpt lat="45.19533" lon="1.96928">
        <ele>432.6</ele>
        <time>2022-08-05T13:49:12Z</time>
      </trkpt>
      <trkpt lat="45.19531" lon="1.96926">
        <ele>432.7</ele>
        <time>2022-08-05T13:49:14Z</time>
      </trkpt>
      <trkpt lat="45.19529" lon="1.96922">
        <ele>433</ele>
        <time>2022-08-05T13:49:16Z</time>
      </trkpt>
      <trkpt lat="45.19527" lon="1.96918">
        <ele>433.2</ele>
        <time>2022-08-05T13:49:18Z</time>
      </trkpt>
      <trkpt lat="45.19526" lon="1.96917">
        <ele>433.3</ele>
        <time>2022-08-05T13:49:20Z</time>
      </trkpt>
      <trkpt lat="45.19526" lon="1.96917">
        <ele>433.3</ele>
        <time>2022-08-05T13:49:22Z</time>
      </trkpt>
      <trkpt lat="45.19526" lon="1.96918">
        <ele>433.2</ele>
        <time>2022-08-05T13:49:24Z</time>
      </trkpt>
      <trkpt lat="45.19527" lon="1.96918">
        <ele>433.2</ele>
        <time>2022-08-05T13:49:26Z</time>
      </trkpt>
      <trkpt lat="45.19578" lon="1.96906">
        <ele>435</ele>
        <time>2022-08-05T13:50:26Z</time>
      </trkpt>
      <trkpt lat="45.19586" lon="1.96912">
        <ele>434.5</ele>
        <time>2022-08-05T13:50:28Z</time>
      </trkpt>
      <trkpt lat="45.19595" lon="1.96916">
        <ele>434.2</ele>
        <time>2022-08-05T13:50:30Z</time>
      </trkpt>
      <trkpt lat="45.196" lon="1.9692">
        <ele>434</ele>
        <time>2022-08-05T13:50:32Z</time>
      </trkpt>
      <trkpt lat="45.19601" lon="1.96924">
        <ele>433.6</ele>
        <time>2022-08-05T13:50:34Z</time>
      </trkpt>
      <trkpt lat="45.19594" lon="1.96929">
        <ele>433.1</ele>
        <time>2022-08-05T13:50:36Z</time>
      </trkpt>
      <trkpt lat="45.19588" lon="1.96929">
        <ele>433.2</ele>
        <time>2022-08-05T13:50:38Z</time>
      </trkpt>
      <trkpt lat="45.19582" lon="1.9693">
        <ele>433.1</ele>
        <time>2022-08-05T13:50:40Z</time>
      </trkpt>
      <trkpt lat="45.19576" lon="1.9693">
        <ele>433</ele>
        <time>2022-08-05T13:50:42Z</time>
      </trkpt>
      <trkpt lat="45.19569" lon="1.9693">
        <ele>432.8</ele>
        <time>2022-08-05T13:50:44Z</time>
      </trkpt>
      <trkpt lat="45.19564" lon="1.96931">
        <ele>432.8</ele>
        <time>2022-08-05T13:50:46Z</time>
      </trkpt>
      <trkpt lat="45.19558" lon="1.96932">
        <ele>432.6</ele>
        <time>2022-08-05T13:50:48Z</time>
      </trkpt>
      <trkpt lat="45.19553" lon="1.96935">
        <ele>432.3</ele>
        <time>2022-08-05T13:50:50Z</time>
      </trkpt>
      <trkpt lat="45.19549" lon="1.96941">
        <ele>431.9</ele>
        <time>2022-08-05T13:50:52Z</time>
      </trkpt>
      <trkpt lat="45.19546" lon="1.96941">
        <ele>431.8</ele>
        <time>2022-08-05T13:50:54Z</time>
      </trkpt>
      <trkpt lat="45.19546" lon="1.96942">
        <ele>431.8</ele>
        <time>2022-08-05T13:50:56Z</time>
      </trkpt>
      <trkpt lat="45.19546" lon="1.96941">
        <ele>431.8</ele>
        <time>2022-08-05T13:50:58Z</time>
      </trkpt>
      <trkpt lat="45.19545" lon="1.96942">
        <ele>431.7</ele>
        <time>2022-08-05T13:51:02Z</time>
      </trkpt>
      <trkpt lat="45.19544" lon="1.96941">
        <ele>431.7</ele>
        <time>2022-08-05T13:51:04Z</time>
      </trkpt>
      <trkpt lat="45.1955" lon="1.96917">
        <ele>433.6</ele>
        <time>2022-08-05T13:51:36Z</time>
      </trkpt>
      <trkpt lat="45.19552" lon="1.96911">
        <ele>434.1</ele>
        <time>2022-08-05T13:51:38Z</time>
      </trkpt>
      <trkpt lat="45.19554" lon="1.96906">
        <ele>434.6</ele>
        <time>2022-08-05T13:51:40Z</time>
      </trkpt>
      <trkpt lat="45.19555" lon="1.96902">
        <ele>435.1</ele>
        <time>2022-08-05T13:51:42Z</time>
      </trkpt>
      <trkpt lat="45.19557" lon="1.96899">
        <ele>435.4</ele>
        <time>2022-08-05T13:51:44Z</time>
      </trkpt>
      <trkpt lat="45.19558" lon="1.96895">
        <ele>435.8</ele>
        <time>2022-08-05T13:51:46Z</time>
      </trkpt>
      <trkpt lat="45.19559" lon="1.96891">
        <ele>436.2</ele>
        <time>2022-08-05T13:51:48Z</time>
      </trkpt>
      <trkpt lat="45.1956" lon="1.96886">
        <ele>436.7</ele>
        <time>2022-08-05T13:51:50Z</time>
      </trkpt>
      <trkpt lat="45.19561" lon="1.96881">
        <ele>437.2</ele>
        <time>2022-08-05T13:51:52Z</time>
      </trkpt>
      <trkpt lat="45.19561" lon="1.96877">
        <ele>437.7</ele>
        <time>2022-08-05T13:51:54Z</time>
      </trkpt>
      <trkpt lat="45.19561" lon="1.96872">
        <ele>438.1</ele>
        <time>2022-08-05T13:51:56Z</time>
      </trkpt>
      <trkpt lat="45.19563" lon="1.96868">
        <ele>438.6</ele>
        <time>2022-08-05T13:51:58Z</time>
      </trkpt>
      <trkpt lat="45.19564" lon="1.96864">
        <ele>439</ele>
        <time>2022-08-05T13:52:00Z</time>
      </trkpt>
      <trkpt lat="45.19565" lon="1.96861">
        <ele>439.4</ele>
        <time>2022-08-05T13:52:02Z</time>
      </trkpt>
      <trkpt lat="45.19567" lon="1.96856">
        <ele>439.9</ele>
        <time>2022-08-05T13:52:04Z</time>
      </trkpt>
      <trkpt lat="45.19568" lon="1.96852">
        <ele>440.4</ele>
        <time>2022-08-05T13:52:06Z</time>
      </trkpt>
      <trkpt lat="45.19569" lon="1.96848">
        <ele>440.9</ele>
        <time>2022-08-05T13:52:08Z</time>
      </trkpt>
      <trkpt lat="45.1957" lon="1.96843">
        <ele>441.3</ele>
        <time>2022-08-05T13:52:10Z</time>
      </trkpt>
      <trkpt lat="45.1957" lon="1.96839">
        <ele>441.8</ele>
        <time>2022-08-05T13:52:12Z</time>
      </trkpt>
      <trkpt lat="45.19571" lon="1.96834">
        <ele>442.3</ele>
        <time>2022-08-05T13:52:14Z</time>
      </trkpt>
      <trkpt lat="45.19573" lon="1.9683">
        <ele>442.7</ele>
        <time>2022-08-05T13:52:16Z</time>
      </trkpt>
      <trkpt lat="45.19575" lon="1.96827">
        <ele>443.1</ele>
        <time>2022-08-05T13:52:18Z</time>
      </trkpt>
      <trkpt lat="45.19577" lon="1.96823">
        <ele>443.5</ele>
        <time>2022-08-05T13:52:20Z</time>
      </trkpt>
      <trkpt lat="45.19579" lon="1.9682">
        <ele>443.8</ele>
        <time>2022-08-05T13:52:22Z</time>
      </trkpt>
      <trkpt lat="45.19581" lon="1.96816">
        <ele>444.2</ele>
        <time>2022-08-05T13:52:24Z</time>
      </trkpt>
      <trkpt lat="45.19583" lon="1.96812">
        <ele>444.5</ele>
        <time>2022-08-05T13:52:26Z</time>
      </trkpt>
      <trkpt lat="45.19585" lon="1.96808">
        <ele>444.9</ele>
        <time>2022-08-05T13:52:28Z</time>
      </trkpt>
      <trkpt lat="45.19587" lon="1.96804">
        <ele>445.2</ele>
        <time>2022-08-05T13:52:30Z</time>
      </trkpt>
      <trkpt lat="45.19587" lon="1.968">
        <ele>445.5</ele>
        <time>2022-08-05T13:52:32Z</time>
      </trkpt>
      <trkpt lat="45.19589" lon="1.96796">
        <ele>445.9</ele>
        <time>2022-08-05T13:52:34Z</time>
      </trkpt>
      <trkpt lat="45.19591" lon="1.96793">
        <ele>446.2</ele>
        <time>2022-08-05T13:52:36Z</time>
      </trkpt>
      <trkpt lat="45.19592" lon="1.96789">
        <ele>446.4</ele>
        <time>2022-08-05T13:52:38Z</time>
      </trkpt>
      <trkpt lat="45.19593" lon="1.96786">
        <ele>446.7</ele>
        <time>2022-08-05T13:52:40Z</time>
      </trkpt>
      <trkpt lat="45.19595" lon="1.96782">
        <ele>446.9</ele>
        <time>2022-08-05T13:52:42Z</time>
      </trkpt>
      <trkpt lat="45.19596" lon="1.96779">
        <ele>447.1</ele>
        <time>2022-08-05T13:52:44Z</time>
      </trkpt>
      <trkpt lat="45.19596" lon="1.96775">
        <ele>447.4</ele>
        <time>2022-08-05T13:52:46Z</time>
      </trkpt>
      <trkpt lat="45.19595" lon="1.96771">
        <ele>447.6</ele>
        <time>2022-08-05T13:52:48Z</time>
      </trkpt>
      <trkpt lat="45.19594" lon="1.96767">
        <ele>447.8</ele>
        <time>2022-08-05T13:52:50Z</time>
      </trkpt>
      <trkpt lat="45.19592" lon="1.96764">
        <ele>448</ele>
        <time>2022-08-05T13:52:52Z</time>
      </trkpt>
      <trkpt lat="45.19591" lon="1.96761">
        <ele>448.2</ele>
        <time>2022-08-05T13:52:54Z</time>
      </trkpt>
      <trkpt lat="45.19589" lon="1.96759">
        <ele>448.3</ele>
        <time>2022-08-05T13:52:56Z</time>
      </trkpt>
      <trkpt lat="45.19587" lon="1.96757">
        <ele>448.5</ele>
        <time>2022-08-05T13:52:58Z</time>
      </trkpt>
      <trkpt lat="45.19586" lon="1.96756">
        <ele>448.6</ele>
        <time>2022-08-05T13:53:00Z</time>
      </trkpt>
      <trkpt lat="45.19587" lon="1.96757">
        <ele>448.5</ele>
        <time>2022-08-05T13:53:02Z</time>
      </trkpt>
      <trkpt lat="45.19587" lon="1.96757">
        <ele>448.5</ele>
        <time>2022-08-05T13:53:04Z</time>
      </trkpt>
      <trkpt lat="45.19587" lon="1.96756">
        <ele>448.5</ele>
        <time>2022-08-05T13:53:06Z</time>
      </trkpt>
      <trkpt lat="45.19587" lon="1.96757">
        <ele>448.5</ele>
        <time>2022-08-05T13:53:08Z</time>
      </trkpt>
      <trkpt lat="45.19565" lon="1.96727">
        <ele>450.9</ele>
        <time>2022-08-05T13:56:34Z</time>
      </trkpt>
      <trkpt lat="45.19562" lon="1.96724">
        <ele>451.2</ele>
        <time>2022-08-05T13:56:36Z</time>
      </trkpt>
      <trkpt lat="45.1956" lon="1.96722">
        <ele>451.4</ele>
        <time>2022-08-05T13:56:38Z</time>
      </trkpt>
      <trkpt lat="45.19559" lon="1.96718">
        <ele>451.7</ele>
        <time>2022-08-05T13:56:40Z</time>
      </trkpt>
      <trkpt lat="45.19558" lon="1.96714">
        <ele>452</ele>
        <time>2022-08-05T13:56:42Z</time>
      </trkpt>
      <trkpt lat="45.19558" lon="1.9671">
        <ele>452.4</ele>
        <time>2022-08-05T13:56:44Z</time>
      </trkpt>
      <trkpt lat="45.19557" lon="1.96706">
        <ele>452.7</ele>
        <time>2022-08-05T13:56:46Z</time>
      </trkpt>
      <trkpt lat="45.19556" lon="1.96703">
        <ele>452.9</ele>
        <time>2022-08-05T13:56:48Z</time>
      </trkpt>
      <trkpt lat="45.19556" lon="1.96698">
        <ele>453.2</ele>
        <time>2022-08-05T13:56:50Z</time>
      </trkpt>
      <trkpt lat="45.19555" lon="1.96694">
        <ele>453.6</ele>
        <time>2022-08-05T13:56:52Z</time>
      </trkpt>
      <trkpt lat="45.19555" lon="1.9669">
        <ele>454</ele>
        <time>2022-08-05T13:56:54Z</time>
      </trkpt>
      <trkpt lat="45.19554" lon="1.96684">
        <ele>454.4</ele>
        <time>2022-08-05T13:56:56Z</time>
      </trkpt>
      <trkpt lat="45.19554" lon="1.9668">
        <ele>454.7</ele>
        <time>2022-08-05T13:56:58Z</time>
      </trkpt>
      <trkpt lat="45.19554" lon="1.96677">
        <ele>454.9</ele>
        <time>2022-08-05T13:57:00Z</time>
      </trkpt>
      <trkpt lat="45.19554" lon="1.96673">
        <ele>455.2</ele>
        <time>2022-08-05T13:57:02Z</time>
      </trkpt>
      <trkpt lat="45.19554" lon="1.96669">
        <ele>455.5</ele>
        <time>2022-08-05T13:57:04Z</time>
      </trkpt>
      <trkpt lat="45.19555" lon="1.96664">
        <ele>455.8</ele>
        <time>2022-08-05T13:57:06Z</time>
      </trkpt>
      <trkpt lat="45.19555" lon="1.9666">
        <ele>456</ele>
        <time>2022-08-05T13:57:08Z</time>
      </trkpt>
      <trkpt lat="45.19557" lon="1.9664">
        <ele>456.8</ele>
        <time>2022-08-05T13:57:18Z</time>
      </trkpt>
      <trkpt lat="45.19558" lon="1.96636">
        <ele>457</ele>
        <time>2022-08-05T13:57:20Z</time>
      </trkpt>
      <trkpt lat="45.19558" lon="1.96632">
        <ele>457.2</ele>
        <time>2022-08-05T13:57:22Z</time>
      </trkpt>
      <trkpt lat="45.19559" lon="1.96628">
        <ele>457.4</ele>
        <time>2022-08-05T13:57:24Z</time>
      </trkpt>
      <trkpt lat="45.19559" lon="1.96624">
        <ele>457.6</ele>
        <time>2022-08-05T13:57:26Z</time>
      </trkpt>
      <trkpt lat="45.19559" lon="1.96619">
        <ele>457.9</ele>
        <time>2022-08-05T13:57:28Z</time>
      </trkpt>
      <trkpt lat="45.19561" lon="1.96615">
        <ele>458.1</ele>
        <time>2022-08-05T13:57:30Z</time>
      </trkpt>
      <trkpt lat="45.19561" lon="1.9661">
        <ele>458.3</ele>
        <time>2022-08-05T13:57:32Z</time>
      </trkpt>
      <trkpt lat="45.19563" lon="1.96606">
        <ele>458.6</ele>
        <time>2022-08-05T13:57:34Z</time>
      </trkpt>
      <trkpt lat="45.19564" lon="1.96602">
        <ele>458.9</ele>
        <time>2022-08-05T13:57:36Z</time>
      </trkpt>
      <trkpt lat="45.19565" lon="1.96599">
        <ele>459.1</ele>
        <time>2022-08-05T13:57:38Z</time>
      </trkpt>
      <trkpt lat="45.19567" lon="1.96595">
        <ele>459.4</ele>
        <time>2022-08-05T13:57:40Z</time>
      </trkpt>
      <trkpt lat="45.19569" lon="1.96592">
        <ele>459.7</ele>
        <time>2022-08-05T13:57:42Z</time>
      </trkpt>
      <trkpt lat="45.19571" lon="1.96588">
        <ele>460</ele>
        <time>2022-08-05T13:57:44Z</time>
      </trkpt>
      <trkpt lat="45.19573" lon="1.96584">
        <ele>460.3</ele>
        <time>2022-08-05T13:57:46Z</time>
      </trkpt>
      <trkpt lat="45.19575" lon="1.96581">
        <ele>460.5</ele>
        <time>2022-08-05T13:57:48Z</time>
      </trkpt>
      <trkpt lat="45.19576" lon="1.96577">
        <ele>460.7</ele>
        <time>2022-08-05T13:57:50Z</time>
      </trkpt>
      <trkpt lat="45.19579" lon="1.96573">
        <ele>460.9</ele>
        <time>2022-08-05T13:57:52Z</time>
      </trkpt>
      <trkpt lat="45.19581" lon="1.9657">
        <ele>461.2</ele>
        <time>2022-08-05T13:57:54Z</time>
      </trkpt>
      <trkpt lat="45.19583" lon="1.96566">
        <ele>461.4</ele>
        <time>2022-08-05T13:57:56Z</time>
      </trkpt>
      <trkpt lat="45.19585" lon="1.96563">
        <ele>461.5</ele>
        <time>2022-08-05T13:57:58Z</time>
      </trkpt>
      <trkpt lat="45.19588" lon="1.96559">
        <ele>461.6</ele>
        <time>2022-08-05T13:58:00Z</time>
      </trkpt>
      <trkpt lat="45.19591" lon="1.96556">
        <ele>461.8</ele>
        <time>2022-08-05T13:58:02Z</time>
      </trkpt>
      <trkpt lat="45.19593" lon="1.96553">
        <ele>461.9</ele>
        <time>2022-08-05T13:58:04Z</time>
      </trkpt>
      <trkpt lat="45.19596" lon="1.96549">
        <ele>462.1</ele>
        <time>2022-08-05T13:58:06Z</time>
      </trkpt>
      <trkpt lat="45.19597" lon="1.96546">
        <ele>462.2</ele>
        <time>2022-08-05T13:58:08Z</time>
      </trkpt>
      <trkpt lat="45.196" lon="1.96543">
        <ele>462.4</ele>
        <time>2022-08-05T13:58:10Z</time>
      </trkpt>
      <trkpt lat="45.19602" lon="1.9654">
        <ele>462.5</ele>
        <time>2022-08-05T13:58:12Z</time>
      </trkpt>
      <trkpt lat="45.19605" lon="1.96536">
        <ele>462.7</ele>
        <time>2022-08-05T13:58:14Z</time>
      </trkpt>
      <trkpt lat="45.19607" lon="1.96533">
        <ele>462.9</ele>
        <time>2022-08-05T13:58:16Z</time>
      </trkpt>
      <trkpt lat="45.19609" lon="1.96529">
        <ele>463.1</ele>
        <time>2022-08-05T13:58:18Z</time>
      </trkpt>
      <trkpt lat="45.19611" lon="1.96525">
        <ele>463.3</ele>
        <time>2022-08-05T13:58:20Z</time>
      </trkpt>
      <trkpt lat="45.19613" lon="1.96521">
        <ele>463.6</ele>
        <time>2022-08-05T13:58:22Z</time>
      </trkpt>
      <trkpt lat="45.19616" lon="1.96517">
        <ele>463.8</ele>
        <time>2022-08-05T13:58:24Z</time>
      </trkpt>
      <trkpt lat="45.19617" lon="1.96513">
        <ele>464.1</ele>
        <time>2022-08-05T13:58:26Z</time>
      </trkpt>
      <trkpt lat="45.1962" lon="1.9651">
        <ele>464.3</ele>
        <time>2022-08-05T13:58:28Z</time>
      </trkpt>
      <trkpt lat="45.19622" lon="1.96505">
        <ele>464.6</ele>
        <time>2022-08-05T13:58:30Z</time>
      </trkpt>
      <trkpt lat="45.19623" lon="1.965">
        <ele>464.9</ele>
        <time>2022-08-05T13:58:32Z</time>
      </trkpt>
      <trkpt lat="45.19625" lon="1.96495">
        <ele>465</ele>
        <time>2022-08-05T13:58:34Z</time>
      </trkpt>
      <trkpt lat="45.19627" lon="1.96489">
        <ele>465.2</ele>
        <time>2022-08-05T13:58:36Z</time>
      </trkpt>
      <trkpt lat="45.19629" lon="1.96483">
        <ele>465.3</ele>
        <time>2022-08-05T13:58:38Z</time>
      </trkpt>
      <trkpt lat="45.19631" lon="1.96477">
        <ele>465.4</ele>
        <time>2022-08-05T13:58:40Z</time>
      </trkpt>
      <trkpt lat="45.19633" lon="1.96471">
        <ele>465.6</ele>
        <time>2022-08-05T13:58:42Z</time>
      </trkpt>
      <trkpt lat="45.19635" lon="1.96464">
        <ele>465.7</ele>
        <time>2022-08-05T13:58:44Z</time>
      </trkpt>
      <trkpt lat="45.19637" lon="1.96458">
        <ele>465.9</ele>
        <time>2022-08-05T13:58:46Z</time>
      </trkpt>
      <trkpt lat="45.19639" lon="1.96451">
        <ele>466</ele>
        <time>2022-08-05T13:58:48Z</time>
      </trkpt>
      <trkpt lat="45.19641" lon="1.96444">
        <ele>466.2</ele>
        <time>2022-08-05T13:58:50Z</time>
      </trkpt>
      <trkpt lat="45.19643" lon="1.96437">
        <ele>466.4</ele>
        <time>2022-08-05T13:58:52Z</time>
      </trkpt>
      <trkpt lat="45.19646" lon="1.9643">
        <ele>466.6</ele>
        <time>2022-08-05T13:58:54Z</time>
      </trkpt>
      <trkpt lat="45.19648" lon="1.96423">
        <ele>466.8</ele>
        <time>2022-08-05T13:58:56Z</time>
      </trkpt>
      <trkpt lat="45.19651" lon="1.96415">
        <ele>467.1</ele>
        <time>2022-08-05T13:58:58Z</time>
      </trkpt>
      <trkpt lat="45.19655" lon="1.96408">
        <ele>467.1</ele>
        <time>2022-08-05T13:59:00Z</time>
      </trkpt>
      <trkpt lat="45.19658" lon="1.964">
        <ele>467.3</ele>
        <time>2022-08-05T13:59:02Z</time>
      </trkpt>
      <trkpt lat="45.19663" lon="1.96393">
        <ele>467.4</ele>
        <time>2022-08-05T13:59:04Z</time>
      </trkpt>
      <trkpt lat="45.19668" lon="1.96386">
        <ele>467.6</ele>
        <time>2022-08-05T13:59:06Z</time>
      </trkpt>
      <trkpt lat="45.19671" lon="1.96378">
        <ele>467.6</ele>
        <time>2022-08-05T13:59:08Z</time>
      </trkpt>
      <trkpt lat="45.19668" lon="1.9637">
        <ele>467.4</ele>
        <time>2022-08-05T13:59:10Z</time>
      </trkpt>
      <trkpt lat="45.19665" lon="1.96362">
        <ele>467.2</ele>
        <time>2022-08-05T13:59:12Z</time>
      </trkpt>
      <trkpt lat="45.19664" lon="1.96351">
        <ele>467</ele>
        <time>2022-08-05T13:59:14Z</time>
      </trkpt>
      <trkpt lat="45.19664" lon="1.96339">
        <ele>466.9</ele>
        <time>2022-08-05T13:59:16Z</time>
      </trkpt>
      <trkpt lat="45.19664" lon="1.96325">
        <ele>466.7</ele>
        <time>2022-08-05T13:59:18Z</time>
      </trkpt>
      <trkpt lat="45.19665" lon="1.96311">
        <ele>466.5</ele>
        <time>2022-08-05T13:59:20Z</time>
      </trkpt>
      <trkpt lat="45.19663" lon="1.96296">
        <ele>466.1</ele>
        <time>2022-08-05T13:59:22Z</time>
      </trkpt>
      <trkpt lat="45.19661" lon="1.96282">
        <ele>465.7</ele>
        <time>2022-08-05T13:59:24Z</time>
      </trkpt>
      <trkpt lat="45.19659" lon="1.96267">
        <ele>465</ele>
        <time>2022-08-05T13:59:26Z</time>
      </trkpt>
      <trkpt lat="45.19656" lon="1.9625">
        <ele>464.2</ele>
        <time>2022-08-05T13:59:28Z</time>
      </trkpt>
      <trkpt lat="45.19652" lon="1.96234">
        <ele>463.7</ele>
        <time>2022-08-05T13:59:30Z</time>
      </trkpt>
      <trkpt lat="45.19649" lon="1.96219">
        <ele>463.2</ele>
        <time>2022-08-05T13:59:32Z</time>
      </trkpt>
      <trkpt lat="45.19646" lon="1.96204">
        <ele>462.8</ele>
        <time>2022-08-05T13:59:34Z</time>
      </trkpt>
      <trkpt lat="45.19643" lon="1.96188">
        <ele>462.5</ele>
        <time>2022-08-05T13:59:36Z</time>
      </trkpt>
      <trkpt lat="45.1964" lon="1.96172">
        <ele>462.1</ele>
        <time>2022-08-05T13:59:38Z</time>
      </trkpt>
      <trkpt lat="45.19637" lon="1.96157">
        <ele>461.5</ele>
        <time>2022-08-05T13:59:40Z</time>
      </trkpt>
      <trkpt lat="45.19633" lon="1.96141">
        <ele>460.7</ele>
        <time>2022-08-05T13:59:42Z</time>
      </trkpt>
      <trkpt lat="45.1963" lon="1.96125">
        <ele>460.1</ele>
        <time>2022-08-05T13:59:44Z</time>
      </trkpt>
      <trkpt lat="45.19627" lon="1.96109">
        <ele>459.5</ele>
        <time>2022-08-05T13:59:46Z</time>
      </trkpt>
      <trkpt lat="45.19623" lon="1.96091">
        <ele>459</ele>
        <time>2022-08-05T13:59:48Z</time>
      </trkpt>
      <trkpt lat="45.19623" lon="1.96071">
        <ele>458</ele>
        <time>2022-08-05T13:59:50Z</time>
      </trkpt>
      <trkpt lat="45.19624" lon="1.96051">
        <ele>456.8</ele>
        <time>2022-08-05T13:59:52Z</time>
      </trkpt>
      <trkpt lat="45.19627" lon="1.96031">
        <ele>455.7</ele>
        <time>2022-08-05T13:59:54Z</time>
      </trkpt>
      <trkpt lat="45.19629" lon="1.96011">
        <ele>454.4</ele>
        <time>2022-08-05T13:59:56Z</time>
      </trkpt>
      <trkpt lat="45.19633" lon="1.9599">
        <ele>454</ele>
        <time>2022-08-05T13:59:58Z</time>
      </trkpt>
      <trkpt lat="45.19635" lon="1.95969">
        <ele>454.5</ele>
        <time>2022-08-05T14:00:00Z</time>
      </trkpt>
      <trkpt lat="45.19637" lon="1.95948">
        <ele>455</ele>
        <time>2022-08-05T14:00:02Z</time>
      </trkpt>
      <trkpt lat="45.19639" lon="1.95927">
        <ele>455.5</ele>
        <time>2022-08-05T14:00:04Z</time>
      </trkpt>
      <trkpt lat="45.19642" lon="1.95907">
        <ele>456.3</ele>
        <time>2022-08-05T14:00:06Z</time>
      </trkpt>
      <trkpt lat="45.19644" lon="1.95888">
        <ele>457.6</ele>
        <time>2022-08-05T14:00:08Z</time>
      </trkpt>
      <trkpt lat="45.19644" lon="1.95872">
        <ele>458.5</ele>
        <time>2022-08-05T14:00:10Z</time>
      </trkpt>
      <trkpt lat="45.19643" lon="1.95858">
        <ele>459.4</ele>
        <time>2022-08-05T14:00:12Z</time>
      </trkpt>
      <trkpt lat="45.1964" lon="1.95847">
        <ele>460.1</ele>
        <time>2022-08-05T14:00:14Z</time>
      </trkpt>
      <trkpt lat="45.19639" lon="1.95837">
        <ele>460.7</ele>
        <time>2022-08-05T14:00:16Z</time>
      </trkpt>
      <trkpt lat="45.19636" lon="1.9583">
        <ele>461.1</ele>
        <time>2022-08-05T14:00:18Z</time>
      </trkpt>
      <trkpt lat="45.19635" lon="1.95822">
        <ele>461.4</ele>
        <time>2022-08-05T14:00:20Z</time>
      </trkpt>
      <trkpt lat="45.19633" lon="1.95816">
        <ele>461.6</ele>
        <time>2022-08-05T14:00:22Z</time>
      </trkpt>
      <trkpt lat="45.19631" lon="1.95809">
        <ele>461.8</ele>
        <time>2022-08-05T14:00:24Z</time>
      </trkpt>
      <trkpt lat="45.1963" lon="1.95803">
        <ele>461.9</ele>
        <time>2022-08-05T14:00:26Z</time>
      </trkpt>
      <trkpt lat="45.19629" lon="1.958">
        <ele>462</ele>
        <time>2022-08-05T14:00:28Z</time>
      </trkpt>
      <trkpt lat="45.19627" lon="1.95796">
        <ele>462.1</ele>
        <time>2022-08-05T14:00:30Z</time>
      </trkpt>
      <trkpt lat="45.19626" lon="1.95792">
        <ele>462.3</ele>
        <time>2022-08-05T14:00:32Z</time>
      </trkpt>
      <trkpt lat="45.19625" lon="1.95788">
        <ele>462.4</ele>
        <time>2022-08-05T14:00:34Z</time>
      </trkpt>
      <trkpt lat="45.19623" lon="1.95785">
        <ele>462.4</ele>
        <time>2022-08-05T14:00:36Z</time>
      </trkpt>
      <trkpt lat="45.19621" lon="1.95781">
        <ele>462.5</ele>
        <time>2022-08-05T14:00:38Z</time>
      </trkpt>
      <trkpt lat="45.1962" lon="1.95778">
        <ele>462.6</ele>
        <time>2022-08-05T14:00:40Z</time>
      </trkpt>
      <trkpt lat="45.19619" lon="1.95774">
        <ele>462.7</ele>
        <time>2022-08-05T14:00:42Z</time>
      </trkpt>
      <trkpt lat="45.19621" lon="1.9577">
        <ele>462.9</ele>
        <time>2022-08-05T14:00:44Z</time>
      </trkpt>
      <trkpt lat="45.19619" lon="1.95767">
        <ele>462.9</ele>
        <time>2022-08-05T14:00:46Z</time>
      </trkpt>
      <trkpt lat="45.19617" lon="1.95767">
        <ele>462.9</ele>
        <time>2022-08-05T14:00:48Z</time>
      </trkpt>
      <trkpt lat="45.19617" lon="1.95768">
        <ele>462.9</ele>
        <time>2022-08-05T14:00:50Z</time>
      </trkpt>
      <trkpt lat="45.19618" lon="1.95768">
        <ele>462.9</ele>
        <time>2022-08-05T14:00:52Z</time>
      </trkpt>
      <trkpt lat="45.19617" lon="1.95768">
        <ele>462.9</ele>
        <time>2022-08-05T14:00:54Z</time>
      </trkpt>
      <trkpt lat="45.19617" lon="1.95768">
        <ele>462.9</ele>
        <time>2022-08-05T14:00:56Z</time>
      </trkpt>
      <trkpt lat="45.19617" lon="1.95767">
        <ele>462.9</ele>
        <time>2022-08-05T14:00:58Z</time>
      </trkpt>
      <trkpt lat="45.19604" lon="1.95758">
        <ele>463</ele>
        <time>2022-08-05T14:02:38Z</time>
      </trkpt>
      <trkpt lat="45.196" lon="1.95755">
        <ele>463.1</ele>
        <time>2022-08-05T14:02:40Z</time>
      </trkpt>
      <trkpt lat="45.19597" lon="1.95752">
        <ele>463.1</ele>
        <time>2022-08-05T14:02:42Z</time>
      </trkpt>
      <trkpt lat="45.19593" lon="1.9575">
        <ele>463.1</ele>
        <time>2022-08-05T14:02:44Z</time>
      </trkpt>
      <trkpt lat="45.19589" lon="1.95748">
        <ele>463.2</ele>
        <time>2022-08-05T14:02:46Z</time>
      </trkpt>
      <trkpt lat="45.19586" lon="1.95747">
        <ele>463.2</ele>
        <time>2022-08-05T14:02:48Z</time>
      </trkpt>
      <trkpt lat="45.19583" lon="1.95745">
        <ele>463.2</ele>
        <time>2022-08-05T14:02:50Z</time>
      </trkpt>
      <trkpt lat="45.19579" lon="1.95744">
        <ele>463.1</ele>
        <time>2022-08-05T14:02:52Z</time>
      </trkpt>
      <trkpt lat="45.19576" lon="1.95743">
        <ele>463</ele>
        <time>2022-08-05T14:02:54Z</time>
      </trkpt>
      <trkpt lat="45.19572" lon="1.95741">
        <ele>462.9</ele>
        <time>2022-08-05T14:02:56Z</time>
      </trkpt>
      <trkpt lat="45.19568" lon="1.95737">
        <ele>462.9</ele>
        <time>2022-08-05T14:02:58Z</time>
      </trkpt>
      <trkpt lat="45.19563" lon="1.95735">
        <ele>462.7</ele>
        <time>2022-08-05T14:03:00Z</time>
      </trkpt>
      <trkpt lat="45.19557" lon="1.95732">
        <ele>462.5</ele>
        <time>2022-08-05T14:03:02Z</time>
      </trkpt>
      <trkpt lat="45.1955" lon="1.95729">
        <ele>462.3</ele>
        <time>2022-08-05T14:03:04Z</time>
      </trkpt>
      <trkpt lat="45.19543" lon="1.95725">
        <ele>462.1</ele>
        <time>2022-08-05T14:03:06Z</time>
      </trkpt>
      <trkpt lat="45.19536" lon="1.9572">
        <ele>462</ele>
        <time>2022-08-05T14:03:08Z</time>
      </trkpt>
      <trkpt lat="45.19529" lon="1.95712">
        <ele>461.9</ele>
        <time>2022-08-05T14:03:10Z</time>
      </trkpt>
      <trkpt lat="45.1952" lon="1.95701">
        <ele>461.9</ele>
        <time>2022-08-05T14:03:12Z</time>
      </trkpt>
      <trkpt lat="45.19512" lon="1.95687">
        <ele>462</ele>
        <time>2022-08-05T14:03:14Z</time>
      </trkpt>
      <trkpt lat="45.19501" lon="1.95676">
        <ele>461.8</ele>
        <time>2022-08-05T14:03:16Z</time>
      </trkpt>
      <trkpt lat="45.19488" lon="1.95669">
        <ele>462</ele>
        <time>2022-08-05T14:03:18Z</time>
      </trkpt>
      <trkpt lat="45.19472" lon="1.9567">
        <ele>462.1</ele>
        <time>2022-08-05T14:03:20Z</time>
      </trkpt>
      <trkpt lat="45.19458" lon="1.95679">
        <ele>462.8</ele>
        <time>2022-08-05T14:03:22Z</time>
      </trkpt>
      <trkpt lat="45.19446" lon="1.95691">
        <ele>464.1</ele>
        <time>2022-08-05T14:03:24Z</time>
      </trkpt>
      <trkpt lat="45.19435" lon="1.95697">
        <ele>465.4</ele>
        <time>2022-08-05T14:03:26Z</time>
      </trkpt>
      <trkpt lat="45.19425" lon="1.95699">
        <ele>466.4</ele>
        <time>2022-08-05T14:03:28Z</time>
      </trkpt>
      <trkpt lat="45.19417" lon="1.95698">
        <ele>466.9</ele>
        <time>2022-08-05T14:03:30Z</time>
      </trkpt>
      <trkpt lat="45.1941" lon="1.95697">
        <ele>467.4</ele>
        <time>2022-08-05T14:03:32Z</time>
      </trkpt>
      <trkpt lat="45.19404" lon="1.95697">
        <ele>467.8</ele>
        <time>2022-08-05T14:03:34Z</time>
      </trkpt>
      <trkpt lat="45.19399" lon="1.95697">
        <ele>468.3</ele>
        <time>2022-08-05T14:03:36Z</time>
      </trkpt>
      <trkpt lat="45.19397" lon="1.95697">
        <ele>468.5</ele>
        <time>2022-08-05T14:03:38Z</time>
      </trkpt>
      <trkpt lat="45.19397" lon="1.95697">
        <ele>468.5</ele>
        <time>2022-08-05T14:03:40Z</time>
      </trkpt>
      <trkpt lat="45.19397" lon="1.95698">
        <ele>468.6</ele>
        <time>2022-08-05T14:03:42Z</time>
      </trkpt>
      <trkpt lat="45.19395" lon="1.95698">
        <ele>468.8</ele>
        <time>2022-08-05T14:03:44Z</time>
      </trkpt>
      <trkpt lat="45.19391" lon="1.957">
        <ele>469.3</ele>
        <time>2022-08-05T14:03:46Z</time>
      </trkpt>
      <trkpt lat="45.19387" lon="1.95701">
        <ele>469.7</ele>
        <time>2022-08-05T14:03:48Z</time>
      </trkpt>
      <trkpt lat="45.19384" lon="1.95703">
        <ele>470.1</ele>
        <time>2022-08-05T14:03:50Z</time>
      </trkpt>
      <trkpt lat="45.19381" lon="1.95704">
        <ele>470.5</ele>
        <time>2022-08-05T14:03:52Z</time>
      </trkpt>
      <trkpt lat="45.19377" lon="1.95707">
        <ele>471</ele>
        <time>2022-08-05T14:03:54Z</time>
      </trkpt>
      <trkpt lat="45.19374" lon="1.95709">
        <ele>471.4</ele>
        <time>2022-08-05T14:03:56Z</time>
      </trkpt>
      <trkpt lat="45.19371" lon="1.95712">
        <ele>471.8</ele>
        <time>2022-08-05T14:03:58Z</time>
      </trkpt>
      <trkpt lat="45.19367" lon="1.95715">
        <ele>472.2</ele>
        <time>2022-08-05T14:04:00Z</time>
      </trkpt>
      <trkpt lat="45.19365" lon="1.95718">
        <ele>472.5</ele>
        <time>2022-08-05T14:04:02Z</time>
      </trkpt>
      <trkpt lat="45.19362" lon="1.9572">
        <ele>472.7</ele>
        <time>2022-08-05T14:04:04Z</time>
      </trkpt>
      <trkpt lat="45.19361" lon="1.95723">
        <ele>472.9</ele>
        <time>2022-08-05T14:04:06Z</time>
      </trkpt>
      <trkpt lat="45.19357" lon="1.95725">
        <ele>473.2</ele>
        <time>2022-08-05T14:04:08Z</time>
      </trkpt>
      <trkpt lat="45.19355" lon="1.95728">
        <ele>473.4</ele>
        <time>2022-08-05T14:04:10Z</time>
      </trkpt>
      <trkpt lat="45.19353" lon="1.95731">
        <ele>473.5</ele>
        <time>2022-08-05T14:04:12Z</time>
      </trkpt>
      <trkpt lat="45.19351" lon="1.95733">
        <ele>473.6</ele>
        <time>2022-08-05T14:04:14Z</time>
      </trkpt>
      <trkpt lat="45.19348" lon="1.95736">
        <ele>473.8</ele>
        <time>2022-08-05T14:04:16Z</time>
      </trkpt>
      <trkpt lat="45.19346" lon="1.95739">
        <ele>473.9</ele>
        <time>2022-08-05T14:04:18Z</time>
      </trkpt>
      <trkpt lat="45.19342" lon="1.95741">
        <ele>474</ele>
        <time>2022-08-05T14:04:20Z</time>
      </trkpt>
      <trkpt lat="45.19339" lon="1.95743">
        <ele>474</ele>
        <time>2022-08-05T14:04:22Z</time>
      </trkpt>
      <trkpt lat="45.19335" lon="1.95744">
        <ele>474</ele>
        <time>2022-08-05T14:04:24Z</time>
      </trkpt>
      <trkpt lat="45.19332" lon="1.95744">
        <ele>474.1</ele>
        <time>2022-08-05T14:04:26Z</time>
      </trkpt>
      <trkpt lat="45.19328" lon="1.95744">
        <ele>474.4</ele>
        <time>2022-08-05T14:04:28Z</time>
      </trkpt>
      <trkpt lat="45.19325" lon="1.95743">
        <ele>474.7</ele>
        <time>2022-08-05T14:04:30Z</time>
      </trkpt>
      <trkpt lat="45.19321" lon="1.95743">
        <ele>475</ele>
        <time>2022-08-05T14:04:32Z</time>
      </trkpt>
      <trkpt lat="45.19317" lon="1.95742">
        <ele>475.3</ele>
        <time>2022-08-05T14:04:34Z</time>
      </trkpt>
      <trkpt lat="45.19314" lon="1.95741">
        <ele>475.7</ele>
        <time>2022-08-05T14:04:36Z</time>
      </trkpt>
      <trkpt lat="45.19311" lon="1.95739">
        <ele>476</ele>
        <time>2022-08-05T14:04:38Z</time>
      </trkpt>
      <trkpt lat="45.19307" lon="1.95738">
        <ele>476.4</ele>
        <time>2022-08-05T14:04:40Z</time>
      </trkpt>
      <trkpt lat="45.19304" lon="1.95736">
        <ele>476.8</ele>
        <time>2022-08-05T14:04:42Z</time>
      </trkpt>
      <trkpt lat="45.193" lon="1.95736">
        <ele>477.1</ele>
        <time>2022-08-05T14:04:44Z</time>
      </trkpt>
      <trkpt lat="45.19297" lon="1.95734">
        <ele>477.6</ele>
        <time>2022-08-05T14:04:46Z</time>
      </trkpt>
      <trkpt lat="45.19293" lon="1.95733">
        <ele>478</ele>
        <time>2022-08-05T14:04:48Z</time>
      </trkpt>
      <trkpt lat="45.1929" lon="1.95731">
        <ele>478.4</ele>
        <time>2022-08-05T14:04:50Z</time>
      </trkpt>
      <trkpt lat="45.19287" lon="1.9573">
        <ele>478.7</ele>
        <time>2022-08-05T14:04:52Z</time>
      </trkpt>
      <trkpt lat="45.19284" lon="1.95729">
        <ele>479.2</ele>
        <time>2022-08-05T14:04:54Z</time>
      </trkpt>
      <trkpt lat="45.19281" lon="1.95728">
        <ele>479.5</ele>
        <time>2022-08-05T14:04:56Z</time>
      </trkpt>
      <trkpt lat="45.19278" lon="1.95727">
        <ele>480</ele>
        <time>2022-08-05T14:04:58Z</time>
      </trkpt>
      <trkpt lat="45.19275" lon="1.95727">
        <ele>480.3</ele>
        <time>2022-08-05T14:05:00Z</time>
      </trkpt>
      <trkpt lat="45.19272" lon="1.95725">
        <ele>480.8</ele>
        <time>2022-08-05T14:05:02Z</time>
      </trkpt>
      <trkpt lat="45.19269" lon="1.95724">
        <ele>481.2</ele>
        <time>2022-08-05T14:05:04Z</time>
      </trkpt>
      <trkpt lat="45.19267" lon="1.95723">
        <ele>481.6</ele>
        <time>2022-08-05T14:05:06Z</time>
      </trkpt>
      <trkpt lat="45.19263" lon="1.95723">
        <ele>482</ele>
        <time>2022-08-05T14:05:08Z</time>
      </trkpt>
      <trkpt lat="45.19261" lon="1.95722">
        <ele>482.5</ele>
        <time>2022-08-05T14:05:10Z</time>
      </trkpt>
      <trkpt lat="45.19258" lon="1.95722">
        <ele>482.8</ele>
        <time>2022-08-05T14:05:12Z</time>
      </trkpt>
      <trkpt lat="45.19254" lon="1.95722">
        <ele>483.2</ele>
        <time>2022-08-05T14:05:14Z</time>
      </trkpt>
      <trkpt lat="45.19251" lon="1.95722">
        <ele>483.6</ele>
        <time>2022-08-05T14:05:16Z</time>
      </trkpt>
      <trkpt lat="45.19248" lon="1.95721">
        <ele>484.1</ele>
        <time>2022-08-05T14:05:18Z</time>
      </trkpt>
      <trkpt lat="45.19245" lon="1.95721">
        <ele>484.5</ele>
        <time>2022-08-05T14:05:20Z</time>
      </trkpt>
      <trkpt lat="45.19242" lon="1.95722">
        <ele>484.9</ele>
        <time>2022-08-05T14:05:22Z</time>
      </trkpt>
      <trkpt lat="45.19239" lon="1.95724">
        <ele>485.1</ele>
        <time>2022-08-05T14:05:24Z</time>
      </trkpt>
      <trkpt lat="45.19236" lon="1.95726">
        <ele>485.3</ele>
        <time>2022-08-05T14:05:26Z</time>
      </trkpt>
      <trkpt lat="45.19233" lon="1.95726">
        <ele>485.7</ele>
        <time>2022-08-05T14:05:28Z</time>
      </trkpt>
      <trkpt lat="45.19231" lon="1.95727">
        <ele>486</ele>
        <time>2022-08-05T14:05:30Z</time>
      </trkpt>
      <trkpt lat="45.19228" lon="1.95728">
        <ele>486.3</ele>
        <time>2022-08-05T14:05:32Z</time>
      </trkpt>
      <trkpt lat="45.19225" lon="1.95729">
        <ele>486.6</ele>
        <time>2022-08-05T14:05:34Z</time>
      </trkpt>
      <trkpt lat="45.19221" lon="1.95731">
        <ele>486.9</ele>
        <time>2022-08-05T14:05:36Z</time>
      </trkpt>
      <trkpt lat="45.19219" lon="1.95732">
        <ele>487.2</ele>
        <time>2022-08-05T14:05:38Z</time>
      </trkpt>
      <trkpt lat="45.19216" lon="1.95733">
        <ele>487.4</ele>
        <time>2022-08-05T14:05:40Z</time>
      </trkpt>
      <trkpt lat="45.19213" lon="1.95735">
        <ele>487.6</ele>
        <time>2022-08-05T14:05:42Z</time>
      </trkpt>
      <trkpt lat="45.1921" lon="1.95736">
        <ele>487.9</ele>
        <time>2022-08-05T14:05:44Z</time>
      </trkpt>
      <trkpt lat="45.19207" lon="1.95737">
        <ele>488.1</ele>
        <time>2022-08-05T14:05:46Z</time>
      </trkpt>
      <trkpt lat="45.19204" lon="1.95738">
        <ele>488.4</ele>
        <time>2022-08-05T14:05:48Z</time>
      </trkpt>
      <trkpt lat="45.19201" lon="1.9574">
        <ele>488.6</ele>
        <time>2022-08-05T14:05:50Z</time>
      </trkpt>
      <trkpt lat="45.19198" lon="1.95741">
        <ele>488.8</ele>
        <time>2022-08-05T14:05:52Z</time>
      </trkpt>
      <trkpt lat="45.19195" lon="1.95743">
        <ele>489</ele>
        <time>2022-08-05T14:05:54Z</time>
      </trkpt>
      <trkpt lat="45.19193" lon="1.95744">
        <ele>489.2</ele>
        <time>2022-08-05T14:05:56Z</time>
      </trkpt>
      <trkpt lat="45.19189" lon="1.95746">
        <ele>489.4</ele>
        <time>2022-08-05T14:05:58Z</time>
      </trkpt>
      <trkpt lat="45.19187" lon="1.95747">
        <ele>489.6</ele>
        <time>2022-08-05T14:06:00Z</time>
      </trkpt>
      <trkpt lat="45.19183" lon="1.95748">
        <ele>489.9</ele>
        <time>2022-08-05T14:06:02Z</time>
      </trkpt>
      <trkpt lat="45.1918" lon="1.95748">
        <ele>490.3</ele>
        <time>2022-08-05T14:06:04Z</time>
      </trkpt>
      <trkpt lat="45.19177" lon="1.9575">
        <ele>490.5</ele>
        <time>2022-08-05T14:06:06Z</time>
      </trkpt>
      <trkpt lat="45.19174" lon="1.95752">
        <ele>490.7</ele>
        <time>2022-08-05T14:06:08Z</time>
      </trkpt>
      <trkpt lat="45.19171" lon="1.95753">
        <ele>491.1</ele>
        <time>2022-08-05T14:06:10Z</time>
      </trkpt>
      <trkpt lat="45.19168" lon="1.95753">
        <ele>491.5</ele>
        <time>2022-08-05T14:06:12Z</time>
      </trkpt>
      <trkpt lat="45.19164" lon="1.95754">
        <ele>491.5</ele>
        <time>2022-08-05T14:06:14Z</time>
      </trkpt>
      <trkpt lat="45.19161" lon="1.95755">
        <ele>491.4</ele>
        <time>2022-08-05T14:06:16Z</time>
      </trkpt>
      <trkpt lat="45.19158" lon="1.95754">
        <ele>491.4</ele>
        <time>2022-08-05T14:06:18Z</time>
      </trkpt>
      <trkpt lat="45.19154" lon="1.95754">
        <ele>491.4</ele>
        <time>2022-08-05T14:06:20Z</time>
      </trkpt>
      <trkpt lat="45.19151" lon="1.95755">
        <ele>491.3</ele>
        <time>2022-08-05T14:06:22Z</time>
      </trkpt>
      <trkpt lat="45.19147" lon="1.95754">
        <ele>491.3</ele>
        <time>2022-08-05T14:06:24Z</time>
      </trkpt>
      <trkpt lat="45.19144" lon="1.95753">
        <ele>491.4</ele>
        <time>2022-08-05T14:06:26Z</time>
      </trkpt>
      <trkpt lat="45.1914" lon="1.95753">
        <ele>491.3</ele>
        <time>2022-08-05T14:06:28Z</time>
      </trkpt>
      <trkpt lat="45.19136" lon="1.95752">
        <ele>491.4</ele>
        <time>2022-08-05T14:06:30Z</time>
      </trkpt>
      <trkpt lat="45.19132" lon="1.95751">
        <ele>491.5</ele>
        <time>2022-08-05T14:06:32Z</time>
      </trkpt>
      <trkpt lat="45.19129" lon="1.9575">
        <ele>491.5</ele>
        <time>2022-08-05T14:06:34Z</time>
      </trkpt>
      <trkpt lat="45.19125" lon="1.95749">
        <ele>491.7</ele>
        <time>2022-08-05T14:06:36Z</time>
      </trkpt>
      <trkpt lat="45.19123" lon="1.95747">
        <ele>491.9</ele>
        <time>2022-08-05T14:06:38Z</time>
      </trkpt>
      <trkpt lat="45.19119" lon="1.95746">
        <ele>492.1</ele>
        <time>2022-08-05T14:06:40Z</time>
      </trkpt>
      <trkpt lat="45.19115" lon="1.95743">
        <ele>492.5</ele>
        <time>2022-08-05T14:06:42Z</time>
      </trkpt>
      <trkpt lat="45.19111" lon="1.95741">
        <ele>492.8</ele>
        <time>2022-08-05T14:06:44Z</time>
      </trkpt>
      <trkpt lat="45.19108" lon="1.95739">
        <ele>493</ele>
        <time>2022-08-05T14:06:46Z</time>
      </trkpt>
      <trkpt lat="45.19104" lon="1.95738">
        <ele>493.2</ele>
        <time>2022-08-05T14:06:48Z</time>
      </trkpt>
      <trkpt lat="45.191" lon="1.95736">
        <ele>493.5</ele>
        <time>2022-08-05T14:06:50Z</time>
      </trkpt>
      <trkpt lat="45.19097" lon="1.95734">
        <ele>493.7</ele>
        <time>2022-08-05T14:06:52Z</time>
      </trkpt>
      <trkpt lat="45.19093" lon="1.95732">
        <ele>493.9</ele>
        <time>2022-08-05T14:06:54Z</time>
      </trkpt>
      <trkpt lat="45.19089" lon="1.9573">
        <ele>494.2</ele>
        <time>2022-08-05T14:06:56Z</time>
      </trkpt>
      <trkpt lat="45.19086" lon="1.95729">
        <ele>494.4</ele>
        <time>2022-08-05T14:06:58Z</time>
      </trkpt>
      <trkpt lat="45.19082" lon="1.95727">
        <ele>494.6</ele>
        <time>2022-08-05T14:07:00Z</time>
      </trkpt>
      <trkpt lat="45.19079" lon="1.95727">
        <ele>494.4</ele>
        <time>2022-08-05T14:07:02Z</time>
      </trkpt>
      <trkpt lat="45.19071" lon="1.95725">
        <ele>494.5</ele>
        <time>2022-08-05T14:07:04Z</time>
      </trkpt>
      <trkpt lat="45.19069" lon="1.95722">
        <ele>494.8</ele>
        <time>2022-08-05T14:07:06Z</time>
      </trkpt>
      <trkpt lat="45.19066" lon="1.9572">
        <ele>495</ele>
        <time>2022-08-05T14:07:08Z</time>
      </trkpt>
      <trkpt lat="45.19064" lon="1.95717">
        <ele>495.4</ele>
        <time>2022-08-05T14:07:10Z</time>
      </trkpt>
      <trkpt lat="45.1906" lon="1.95715">
        <ele>495.4</ele>
        <time>2022-08-05T14:07:12Z</time>
      </trkpt>
      <trkpt lat="45.19057" lon="1.95712">
        <ele>495.7</ele>
        <time>2022-08-05T14:07:14Z</time>
      </trkpt>
      <trkpt lat="45.19054" lon="1.95709">
        <ele>495.8</ele>
        <time>2022-08-05T14:07:16Z</time>
      </trkpt>
      <trkpt lat="45.19052" lon="1.95706">
        <ele>496.1</ele>
        <time>2022-08-05T14:07:18Z</time>
      </trkpt>
      <trkpt lat="45.19049" lon="1.95703">
        <ele>496.2</ele>
        <time>2022-08-05T14:07:20Z</time>
      </trkpt>
      <trkpt lat="45.19046" lon="1.957">
        <ele>496.3</ele>
        <time>2022-08-05T14:07:22Z</time>
      </trkpt>
      <trkpt lat="45.19043" lon="1.95698">
        <ele>496.4</ele>
        <time>2022-08-05T14:07:24Z</time>
      </trkpt>
      <trkpt lat="45.1904" lon="1.95696">
        <ele>496.4</ele>
        <time>2022-08-05T14:07:26Z</time>
      </trkpt>
      <trkpt lat="45.19037" lon="1.95693">
        <ele>496.4</ele>
        <time>2022-08-05T14:07:28Z</time>
      </trkpt>
      <trkpt lat="45.19034" lon="1.9569">
        <ele>496.5</ele>
        <time>2022-08-05T14:07:30Z</time>
      </trkpt>
      <trkpt lat="45.19031" lon="1.95687">
        <ele>496.6</ele>
        <time>2022-08-05T14:07:32Z</time>
      </trkpt>
      <trkpt lat="45.19028" lon="1.95683">
        <ele>496.6</ele>
        <time>2022-08-05T14:07:34Z</time>
      </trkpt>
      <trkpt lat="45.19025" lon="1.95679">
        <ele>496.7</ele>
        <time>2022-08-05T14:07:36Z</time>
      </trkpt>
      <trkpt lat="45.19021" lon="1.95676">
        <ele>496.6</ele>
        <time>2022-08-05T14:07:38Z</time>
      </trkpt>
      <trkpt lat="45.19017" lon="1.95671">
        <ele>496.5</ele>
        <time>2022-08-05T14:07:40Z</time>
      </trkpt>
      <trkpt lat="45.19013" lon="1.95667">
        <ele>496.4</ele>
        <time>2022-08-05T14:07:42Z</time>
      </trkpt>
      <trkpt lat="45.19009" lon="1.95663">
        <ele>495.9</ele>
        <time>2022-08-05T14:07:44Z</time>
      </trkpt>
      <trkpt lat="45.19004" lon="1.95658">
        <ele>495.3</ele>
        <time>2022-08-05T14:07:46Z</time>
      </trkpt>
      <trkpt lat="45.18997" lon="1.95651">
        <ele>494.5</ele>
        <time>2022-08-05T14:07:48Z</time>
      </trkpt>
      <trkpt lat="45.1899" lon="1.95645">
        <ele>493.5</ele>
        <time>2022-08-05T14:07:50Z</time>
      </trkpt>
      <trkpt lat="45.18981" lon="1.95637">
        <ele>492.3</ele>
        <time>2022-08-05T14:07:52Z</time>
      </trkpt>
      <trkpt lat="45.18972" lon="1.95627">
        <ele>491.1</ele>
        <time>2022-08-05T14:07:54Z</time>
      </trkpt>
      <trkpt lat="45.18962" lon="1.95617">
        <ele>489.9</ele>
        <time>2022-08-05T14:07:56Z</time>
      </trkpt>
      <trkpt lat="45.18953" lon="1.95609">
        <ele>488.9</ele>
        <time>2022-08-05T14:07:58Z</time>
      </trkpt>
      <trkpt lat="45.18943" lon="1.95599">
        <ele>487.8</ele>
        <time>2022-08-05T14:08:00Z</time>
      </trkpt>
      <trkpt lat="45.18934" lon="1.95589">
        <ele>486.8</ele>
        <time>2022-08-05T14:08:02Z</time>
      </trkpt>
      <trkpt lat="45.18925" lon="1.95579">
        <ele>485.9</ele>
        <time>2022-08-05T14:08:04Z</time>
      </trkpt>
      <trkpt lat="45.18916" lon="1.95567">
        <ele>485</ele>
        <time>2022-08-05T14:08:06Z</time>
      </trkpt>
      <trkpt lat="45.1891" lon="1.95551">
        <ele>484.3</ele>
        <time>2022-08-05T14:08:08Z</time>
      </trkpt>
      <trkpt lat="45.18907" lon="1.95534">
        <ele>483.9</ele>
        <time>2022-08-05T14:08:10Z</time>
      </trkpt>
      <trkpt lat="45.18906" lon="1.95519">
        <ele>483.7</ele>
        <time>2022-08-05T14:08:12Z</time>
      </trkpt>
      <trkpt lat="45.18905" lon="1.95503">
        <ele>483.5</ele>
        <time>2022-08-05T14:08:14Z</time>
      </trkpt>
      <trkpt lat="45.18905" lon="1.95487">
        <ele>483.1</ele>
        <time>2022-08-05T14:08:16Z</time>
      </trkpt>
      <trkpt lat="45.18906" lon="1.9547">
        <ele>482.9</ele>
        <time>2022-08-05T14:08:18Z</time>
      </trkpt>
      <trkpt lat="45.18906" lon="1.95453">
        <ele>482.6</ele>
        <time>2022-08-05T14:08:20Z</time>
      </trkpt>
      <trkpt lat="45.18904" lon="1.95438">
        <ele>482</ele>
        <time>2022-08-05T14:08:22Z</time>
      </trkpt>
      <trkpt lat="45.18899" lon="1.95423">
        <ele>481</ele>
        <time>2022-08-05T14:08:24Z</time>
      </trkpt>
      <trkpt lat="45.18889" lon="1.95411">
        <ele>479.9</ele>
        <time>2022-08-05T14:08:26Z</time>
      </trkpt>
      <trkpt lat="45.18878" lon="1.95401">
        <ele>478.8</ele>
        <time>2022-08-05T14:08:28Z</time>
      </trkpt>
      <trkpt lat="45.18864" lon="1.95392">
        <ele>477.5</ele>
        <time>2022-08-05T14:08:30Z</time>
      </trkpt>
      <trkpt lat="45.18851" lon="1.95382">
        <ele>476.3</ele>
        <time>2022-08-05T14:08:32Z</time>
      </trkpt>
      <trkpt lat="45.18837" lon="1.95372">
        <ele>475</ele>
        <time>2022-08-05T14:08:34Z</time>
      </trkpt>
      <trkpt lat="45.18822" lon="1.95361">
        <ele>473.6</ele>
        <time>2022-08-05T14:08:36Z</time>
      </trkpt>
      <trkpt lat="45.18806" lon="1.95349">
        <ele>472</ele>
        <time>2022-08-05T14:08:38Z</time>
      </trkpt>
      <trkpt lat="45.18789" lon="1.95337">
        <ele>470</ele>
        <time>2022-08-05T14:08:40Z</time>
      </trkpt>
      <trkpt lat="45.18769" lon="1.95323">
        <ele>468</ele>
        <time>2022-08-05T14:08:42Z</time>
      </trkpt>
      <trkpt lat="45.18749" lon="1.95309">
        <ele>466.4</ele>
        <time>2022-08-05T14:08:44Z</time>
      </trkpt>
      <trkpt lat="45.18728" lon="1.95294">
        <ele>465.4</ele>
        <time>2022-08-05T14:08:46Z</time>
      </trkpt>
      <trkpt lat="45.18708" lon="1.95278">
        <ele>464.6</ele>
        <time>2022-08-05T14:08:48Z</time>
      </trkpt>
      <trkpt lat="45.18687" lon="1.95264">
        <ele>463.7</ele>
        <time>2022-08-05T14:08:50Z</time>
      </trkpt>
      <trkpt lat="45.18668" lon="1.95251">
        <ele>463.1</ele>
        <time>2022-08-05T14:08:52Z</time>
      </trkpt>
      <trkpt lat="45.1865" lon="1.95238">
        <ele>462.7</ele>
        <time>2022-08-05T14:08:54Z</time>
      </trkpt>
      <trkpt lat="45.18633" lon="1.95226">
        <ele>462.6</ele>
        <time>2022-08-05T14:08:56Z</time>
      </trkpt>
      <trkpt lat="45.18619" lon="1.95215">
        <ele>462.6</ele>
        <time>2022-08-05T14:08:58Z</time>
      </trkpt>
      <trkpt lat="45.18608" lon="1.95207">
        <ele>462.7</ele>
        <time>2022-08-05T14:09:00Z</time>
      </trkpt>
      <trkpt lat="45.18599" lon="1.952">
        <ele>462.8</ele>
        <time>2022-08-05T14:09:02Z</time>
      </trkpt>
      <trkpt lat="45.18597" lon="1.95194">
        <ele>462.9</ele>
        <time>2022-08-05T14:09:04Z</time>
      </trkpt>
      <trkpt lat="45.18596" lon="1.95193">
        <ele>463</ele>
        <time>2022-08-05T14:09:06Z</time>
      </trkpt>
      <trkpt lat="45.18578" lon="1.95185">
        <ele>462.9</ele>
        <time>2022-08-05T14:09:08Z</time>
      </trkpt>
      <trkpt lat="45.18574" lon="1.95182">
        <ele>462.9</ele>
        <time>2022-08-05T14:09:10Z</time>
      </trkpt>
      <trkpt lat="45.18571" lon="1.95178">
        <ele>462.9</ele>
        <time>2022-08-05T14:09:12Z</time>
      </trkpt>
      <trkpt lat="45.18568" lon="1.95172">
        <ele>463</ele>
        <time>2022-08-05T14:09:14Z</time>
      </trkpt>
      <trkpt lat="45.18567" lon="1.95165">
        <ele>463.1</ele>
        <time>2022-08-05T14:09:16Z</time>
      </trkpt>
      <trkpt lat="45.18566" lon="1.9516">
        <ele>462.8</ele>
        <time>2022-08-05T14:09:18Z</time>
      </trkpt>
      <trkpt lat="45.18562" lon="1.95159">
        <ele>462.6</ele>
        <time>2022-08-05T14:09:20Z</time>
      </trkpt>
      <trkpt lat="45.18558" lon="1.95163">
        <ele>462.6</ele>
        <time>2022-08-05T14:09:22Z</time>
      </trkpt>
      <trkpt lat="45.18555" lon="1.95164">
        <ele>462.5</ele>
        <time>2022-08-05T14:09:24Z</time>
      </trkpt>
      <trkpt lat="45.18552" lon="1.95165">
        <ele>462.4</ele>
        <time>2022-08-05T14:09:26Z</time>
      </trkpt>
      <trkpt lat="45.18548" lon="1.95165">
        <ele>462.2</ele>
        <time>2022-08-05T14:09:28Z</time>
      </trkpt>
      <trkpt lat="45.18543" lon="1.95164">
        <ele>462</ele>
        <time>2022-08-05T14:09:30Z</time>
      </trkpt>
      <trkpt lat="45.1854" lon="1.9516">
        <ele>461.6</ele>
        <time>2022-08-05T14:09:32Z</time>
      </trkpt>
      <trkpt lat="45.18536" lon="1.95157">
        <ele>461.3</ele>
        <time>2022-08-05T14:09:34Z</time>
      </trkpt>
      <trkpt lat="45.18534" lon="1.95158">
        <ele>461.2</ele>
        <time>2022-08-05T14:09:36Z</time>
      </trkpt>
      <trkpt lat="45.18534" lon="1.95158">
        <ele>461.2</ele>
        <time>2022-08-05T14:09:38Z</time>
      </trkpt>
      <trkpt lat="45.18534" lon="1.95158">
        <ele>461.2</ele>
        <time>2022-08-05T14:09:40Z</time>
      </trkpt>
      <trkpt lat="45.18534" lon="1.95158">
        <ele>461.2</ele>
        <time>2022-08-05T14:09:42Z</time>
      </trkpt>
      <trkpt lat="45.18534" lon="1.95158">
        <ele>461.2</ele>
        <time>2022-08-05T14:09:44Z</time>
      </trkpt>
      <trkpt lat="45.18546" lon="1.95164">
        <ele>462.1</ele>
        <time>2022-08-05T14:10:30Z</time>
      </trkpt>
      <trkpt lat="45.18549" lon="1.95164">
        <ele>462.2</ele>
        <time>2022-08-05T14:10:32Z</time>
      </trkpt>
      <trkpt lat="45.18552" lon="1.95165">
        <ele>462.4</ele>
        <time>2022-08-05T14:10:34Z</time>
      </trkpt>
      <trkpt lat="45.18556" lon="1.95167">
        <ele>462.7</ele>
        <time>2022-08-05T14:10:36Z</time>
      </trkpt>
      <trkpt lat="45.18559" lon="1.95167">
        <ele>462.8</ele>
        <time>2022-08-05T14:10:38Z</time>
      </trkpt>
      <trkpt lat="45.18563" lon="1.95165">
        <ele>463</ele>
        <time>2022-08-05T14:10:40Z</time>
      </trkpt>
      <trkpt lat="45.18566" lon="1.95161">
        <ele>462.9</ele>
        <time>2022-08-05T14:10:42Z</time>
      </trkpt>
      <trkpt lat="45.18568" lon="1.95152">
        <ele>462.6</ele>
        <time>2022-08-05T14:10:44Z</time>
      </trkpt>
      <trkpt lat="45.1857" lon="1.95143">
        <ele>462.3</ele>
        <time>2022-08-05T14:10:46Z</time>
      </trkpt>
      <trkpt lat="45.18574" lon="1.95133">
        <ele>461.9</ele>
        <time>2022-08-05T14:10:48Z</time>
      </trkpt>
      <trkpt lat="45.18577" lon="1.95122">
        <ele>461.5</ele>
        <time>2022-08-05T14:10:50Z</time>
      </trkpt>
      <trkpt lat="45.18579" lon="1.9511">
        <ele>461.1</ele>
        <time>2022-08-05T14:10:52Z</time>
      </trkpt>
      <trkpt lat="45.1858" lon="1.95097">
        <ele>460.5</ele>
        <time>2022-08-05T14:10:54Z</time>
      </trkpt>
      <trkpt lat="45.18582" lon="1.95084">
        <ele>460</ele>
        <time>2022-08-05T14:10:56Z</time>
      </trkpt>
      <trkpt lat="45.18583" lon="1.95072">
        <ele>459.4</ele>
        <time>2022-08-05T14:10:58Z</time>
      </trkpt>
      <trkpt lat="45.18583" lon="1.95061">
        <ele>458.9</ele>
        <time>2022-08-05T14:11:00Z</time>
      </trkpt>
      <trkpt lat="45.18581" lon="1.95048">
        <ele>458.2</ele>
        <time>2022-08-05T14:11:02Z</time>
      </trkpt>
      <trkpt lat="45.1858" lon="1.95038">
        <ele>457.7</ele>
        <time>2022-08-05T14:11:04Z</time>
      </trkpt>
      <trkpt lat="45.18579" lon="1.95018">
        <ele>456.7</ele>
        <time>2022-08-05T14:11:06Z</time>
      </trkpt>
      <trkpt lat="45.18574" lon="1.94999">
        <ele>455.7</ele>
        <time>2022-08-05T14:11:08Z</time>
      </trkpt>
      <trkpt lat="45.18572" lon="1.94997">
        <ele>455.5</ele>
        <time>2022-08-05T14:11:10Z</time>
      </trkpt>
      <trkpt lat="45.1857" lon="1.94986">
        <ele>454.8</ele>
        <time>2022-08-05T14:11:12Z</time>
      </trkpt>
      <trkpt lat="45.18566" lon="1.94975">
        <ele>454</ele>
        <time>2022-08-05T14:11:14Z</time>
      </trkpt>
      <trkpt lat="45.18563" lon="1.94963">
        <ele>453.2</ele>
        <time>2022-08-05T14:11:16Z</time>
      </trkpt>
      <trkpt lat="45.18561" lon="1.94948">
        <ele>452.2</ele>
        <time>2022-08-05T14:11:18Z</time>
      </trkpt>
      <trkpt lat="45.1856" lon="1.94932">
        <ele>451.2</ele>
        <time>2022-08-05T14:11:20Z</time>
      </trkpt>
      <trkpt lat="45.1856" lon="1.94916">
        <ele>450.3</ele>
        <time>2022-08-05T14:11:22Z</time>
      </trkpt>
      <trkpt lat="45.18561" lon="1.94903">
        <ele>449.9</ele>
        <time>2022-08-05T14:11:24Z</time>
      </trkpt>
      <trkpt lat="45.18565" lon="1.94889">
        <ele>449.5</ele>
        <time>2022-08-05T14:11:26Z</time>
      </trkpt>
      <trkpt lat="45.18569" lon="1.94874">
        <ele>449.2</ele>
        <time>2022-08-05T14:11:28Z</time>
      </trkpt>
      <trkpt lat="45.18574" lon="1.9486">
        <ele>449</ele>
        <time>2022-08-05T14:11:30Z</time>
      </trkpt>
      <trkpt lat="45.1858" lon="1.94843">
        <ele>449</ele>
        <time>2022-08-05T14:11:32Z</time>
      </trkpt>
      <trkpt lat="45.18585" lon="1.94827">
        <ele>448.1</ele>
        <time>2022-08-05T14:11:34Z</time>
      </trkpt>
      <trkpt lat="45.18587" lon="1.94807">
        <ele>445.3</ele>
        <time>2022-08-05T14:11:36Z</time>
      </trkpt>
      <trkpt lat="45.18586" lon="1.94788">
        <ele>443.3</ele>
        <time>2022-08-05T14:11:38Z</time>
      </trkpt>
      <trkpt lat="45.18581" lon="1.94774">
        <ele>441.7</ele>
        <time>2022-08-05T14:11:40Z</time>
      </trkpt>
      <trkpt lat="45.18573" lon="1.94763">
        <ele>439.9</ele>
        <time>2022-08-05T14:11:42Z</time>
      </trkpt>
      <trkpt lat="45.18561" lon="1.94756">
        <ele>438.2</ele>
        <time>2022-08-05T14:11:44Z</time>
      </trkpt>
      <trkpt lat="45.18547" lon="1.94754">
        <ele>436.9</ele>
        <time>2022-08-05T14:11:46Z</time>
      </trkpt>
      <trkpt lat="45.18533" lon="1.94757">
        <ele>436.4</ele>
        <time>2022-08-05T14:11:48Z</time>
      </trkpt>
      <trkpt lat="45.18522" lon="1.94763">
        <ele>436.4</ele>
        <time>2022-08-05T14:11:50Z</time>
      </trkpt>
      <trkpt lat="45.1851" lon="1.94771">
        <ele>436.7</ele>
        <time>2022-08-05T14:11:52Z</time>
      </trkpt>
      <trkpt lat="45.18499" lon="1.94781">
        <ele>437.3</ele>
        <time>2022-08-05T14:11:54Z</time>
      </trkpt>
      <trkpt lat="45.18491" lon="1.9479">
        <ele>436.9</ele>
        <time>2022-08-05T14:11:56Z</time>
      </trkpt>
      <trkpt lat="45.18483" lon="1.94801">
        <ele>436.8</ele>
        <time>2022-08-05T14:11:58Z</time>
      </trkpt>
      <trkpt lat="45.18479" lon="1.94809">
        <ele>436.8</ele>
        <time>2022-08-05T14:12:00Z</time>
      </trkpt>
      <trkpt lat="45.18476" lon="1.94812">
        <ele>436.5</ele>
        <time>2022-08-05T14:12:02Z</time>
      </trkpt>
      <trkpt lat="45.18474" lon="1.94815">
        <ele>436.4</ele>
        <time>2022-08-05T14:12:04Z</time>
      </trkpt>
      <trkpt lat="45.18471" lon="1.94818">
        <ele>436.2</ele>
        <time>2022-08-05T14:12:06Z</time>
      </trkpt>
      <trkpt lat="45.18467" lon="1.94821">
        <ele>435.6</ele>
        <time>2022-08-05T14:12:08Z</time>
      </trkpt>
      <trkpt lat="45.18462" lon="1.94826">
        <ele>435</ele>
        <time>2022-08-05T14:12:10Z</time>
      </trkpt>
      <trkpt lat="45.18459" lon="1.94835">
        <ele>435.2</ele>
        <time>2022-08-05T14:12:12Z</time>
      </trkpt>
      <trkpt lat="45.18454" lon="1.94842">
        <ele>434.8</ele>
        <time>2022-08-05T14:12:14Z</time>
      </trkpt>
      <trkpt lat="45.18448" lon="1.94852">
        <ele>434.3</ele>
        <time>2022-08-05T14:12:16Z</time>
      </trkpt>
      <trkpt lat="45.18442" lon="1.94862">
        <ele>433.8</ele>
        <time>2022-08-05T14:12:18Z</time>
      </trkpt>
      <trkpt lat="45.18436" lon="1.94875">
        <ele>433.8</ele>
        <time>2022-08-05T14:12:20Z</time>
      </trkpt>
      <trkpt lat="45.18428" lon="1.94886">
        <ele>433.2</ele>
        <time>2022-08-05T14:12:22Z</time>
      </trkpt>
      <trkpt lat="45.18414" lon="1.94893">
        <ele>431.2</ele>
        <time>2022-08-05T14:12:24Z</time>
      </trkpt>
      <trkpt lat="45.18399" lon="1.94892">
        <ele>429.6</ele>
        <time>2022-08-05T14:12:26Z</time>
      </trkpt>
      <trkpt lat="45.18383" lon="1.94893">
        <ele>428.2</ele>
        <time>2022-08-05T14:12:28Z</time>
      </trkpt>
      <trkpt lat="45.18368" lon="1.94901">
        <ele>427.6</ele>
        <time>2022-08-05T14:12:30Z</time>
      </trkpt>
      <trkpt lat="45.18352" lon="1.94911">
        <ele>427.1</ele>
        <time>2022-08-05T14:12:32Z</time>
      </trkpt>
      <trkpt lat="45.18337" lon="1.94917">
        <ele>426.4</ele>
        <time>2022-08-05T14:12:34Z</time>
      </trkpt>
      <trkpt lat="45.18321" lon="1.9492">
        <ele>425.6</ele>
        <time>2022-08-05T14:12:36Z</time>
      </trkpt>
      <trkpt lat="45.18305" lon="1.94921">
        <ele>424.7</ele>
        <time>2022-08-05T14:12:38Z</time>
      </trkpt>
      <trkpt lat="45.1829" lon="1.9492">
        <ele>423.7</ele>
        <time>2022-08-05T14:12:40Z</time>
      </trkpt>
      <trkpt lat="45.18277" lon="1.94912">
        <ele>422.2</ele>
        <time>2022-08-05T14:12:42Z</time>
      </trkpt>
      <trkpt lat="45.18266" lon="1.94897">
        <ele>420.4</ele>
        <time>2022-08-05T14:12:44Z</time>
      </trkpt>
      <trkpt lat="45.18259" lon="1.9488">
        <ele>418.7</ele>
        <time>2022-08-05T14:12:46Z</time>
      </trkpt>
      <trkpt lat="45.18255" lon="1.94859">
        <ele>417</ele>
        <time>2022-08-05T14:12:48Z</time>
      </trkpt>
      <trkpt lat="45.18251" lon="1.94841">
        <ele>415.6</ele>
        <time>2022-08-05T14:12:50Z</time>
      </trkpt>
      <trkpt lat="45.18243" lon="1.94825">
        <ele>416.1</ele>
        <time>2022-08-05T14:12:52Z</time>
      </trkpt>
      <trkpt lat="45.18227" lon="1.94813">
        <ele>417.7</ele>
        <time>2022-08-05T14:12:54Z</time>
      </trkpt>
      <trkpt lat="45.18212" lon="1.94805">
        <ele>418.7</ele>
        <time>2022-08-05T14:12:56Z</time>
      </trkpt>
      <trkpt lat="45.18198" lon="1.94804">
        <ele>418.8</ele>
        <time>2022-08-05T14:12:58Z</time>
      </trkpt>
      <trkpt lat="45.18185" lon="1.94809">
        <ele>417.7</ele>
        <time>2022-08-05T14:13:00Z</time>
      </trkpt>
      <trkpt lat="45.18176" lon="1.94826">
        <ele>414.5</ele>
        <time>2022-08-05T14:13:02Z</time>
      </trkpt>
      <trkpt lat="45.18171" lon="1.94841">
        <ele>412.8</ele>
        <time>2022-08-05T14:13:04Z</time>
      </trkpt>
      <trkpt lat="45.1816" lon="1.94849">
        <ele>413.6</ele>
        <time>2022-08-05T14:13:06Z</time>
      </trkpt>
      <trkpt lat="45.18157" lon="1.9486">
        <ele>413.4</ele>
        <time>2022-08-05T14:13:08Z</time>
      </trkpt>
      <trkpt lat="45.18157" lon="1.94875">
        <ele>412.5</ele>
        <time>2022-08-05T14:13:10Z</time>
      </trkpt>
      <trkpt lat="45.18156" lon="1.94892">
        <ele>411.5</ele>
        <time>2022-08-05T14:13:12Z</time>
      </trkpt>
      <trkpt lat="45.18155" lon="1.94909">
        <ele>410.4</ele>
        <time>2022-08-05T14:13:14Z</time>
      </trkpt>
      <trkpt lat="45.1815" lon="1.94925">
        <ele>410.1</ele>
        <time>2022-08-05T14:13:16Z</time>
      </trkpt>
      <trkpt lat="45.18139" lon="1.94935">
        <ele>410.2</ele>
        <time>2022-08-05T14:13:18Z</time>
      </trkpt>
      <trkpt lat="45.18125" lon="1.94939">
        <ele>410.1</ele>
        <time>2022-08-05T14:13:20Z</time>
      </trkpt>
      <trkpt lat="45.18112" lon="1.94942">
        <ele>409.8</ele>
        <time>2022-08-05T14:13:22Z</time>
      </trkpt>
      <trkpt lat="45.181" lon="1.94944">
        <ele>409.5</ele>
        <time>2022-08-05T14:13:24Z</time>
      </trkpt>
      <trkpt lat="45.18084" lon="1.94948">
        <ele>408.6</ele>
        <time>2022-08-05T14:13:26Z</time>
      </trkpt>
      <trkpt lat="45.18073" lon="1.94951">
        <ele>408.5</ele>
        <time>2022-08-05T14:13:28Z</time>
      </trkpt>
      <trkpt lat="45.18067" lon="1.94954">
        <ele>408.3</ele>
        <time>2022-08-05T14:13:30Z</time>
      </trkpt>
      <trkpt lat="45.18059" lon="1.94958">
        <ele>407.9</ele>
        <time>2022-08-05T14:13:32Z</time>
      </trkpt>
      <trkpt lat="45.1805" lon="1.94961">
        <ele>407.3</ele>
        <time>2022-08-05T14:13:34Z</time>
      </trkpt>
      <trkpt lat="45.18042" lon="1.94967">
        <ele>406.2</ele>
        <time>2022-08-05T14:13:36Z</time>
      </trkpt>
      <trkpt lat="45.18033" lon="1.94974">
        <ele>404.5</ele>
        <time>2022-08-05T14:13:38Z</time>
      </trkpt>
      <trkpt lat="45.18023" lon="1.9498">
        <ele>403</ele>
        <time>2022-08-05T14:13:40Z</time>
      </trkpt>
      <trkpt lat="45.18012" lon="1.94987">
        <ele>401.1</ele>
        <time>2022-08-05T14:13:42Z</time>
      </trkpt>
      <trkpt lat="45.17998" lon="1.94989">
        <ele>401</ele>
        <time>2022-08-05T14:13:44Z</time>
      </trkpt>
      <trkpt lat="45.17983" lon="1.94988">
        <ele>403.4</ele>
        <time>2022-08-05T14:13:46Z</time>
      </trkpt>
      <trkpt lat="45.17969" lon="1.94988">
        <ele>405.6</ele>
        <time>2022-08-05T14:13:48Z</time>
      </trkpt>
      <trkpt lat="45.17956" lon="1.94989">
        <ele>407.1</ele>
        <time>2022-08-05T14:13:50Z</time>
      </trkpt>
      <trkpt lat="45.17943" lon="1.9499">
        <ele>409</ele>
        <time>2022-08-05T14:13:52Z</time>
      </trkpt>
      <trkpt lat="45.1793" lon="1.94997">
        <ele>408.8</ele>
        <time>2022-08-05T14:13:54Z</time>
      </trkpt>
      <trkpt lat="45.17922" lon="1.9501">
        <ele>406</ele>
        <time>2022-08-05T14:13:56Z</time>
      </trkpt>
      <trkpt lat="45.17916" lon="1.95033">
        <ele>399.5</ele>
        <time>2022-08-05T14:13:58Z</time>
      </trkpt>
      <trkpt lat="45.17907" lon="1.95053">
        <ele>395.6</ele>
        <time>2022-08-05T14:14:00Z</time>
      </trkpt>
      <trkpt lat="45.17892" lon="1.95067">
        <ele>395.2</ele>
        <time>2022-08-05T14:14:02Z</time>
      </trkpt>
      <trkpt lat="45.17875" lon="1.95078">
        <ele>397.1</ele>
        <time>2022-08-05T14:14:04Z</time>
      </trkpt>
      <trkpt lat="45.1786" lon="1.95096">
        <ele>396.2</ele>
        <time>2022-08-05T14:14:06Z</time>
      </trkpt>
      <trkpt lat="45.17848" lon="1.95119">
        <ele>392.5</ele>
        <time>2022-08-05T14:14:08Z</time>
      </trkpt>
      <trkpt lat="45.17834" lon="1.95138">
        <ele>389.4</ele>
        <time>2022-08-05T14:14:10Z</time>
      </trkpt>
      <trkpt lat="45.1782" lon="1.95159">
        <ele>387.8</ele>
        <time>2022-08-05T14:14:12Z</time>
      </trkpt>
      <trkpt lat="45.17806" lon="1.95179">
        <ele>388.4</ele>
        <time>2022-08-05T14:14:14Z</time>
      </trkpt>
      <trkpt lat="45.17795" lon="1.95194">
        <ele>389.9</ele>
        <time>2022-08-05T14:14:16Z</time>
      </trkpt>
      <trkpt lat="45.1779" lon="1.95209">
        <ele>389.3</ele>
        <time>2022-08-05T14:14:18Z</time>
      </trkpt>
      <trkpt lat="45.17788" lon="1.95231">
        <ele>385.3</ele>
        <time>2022-08-05T14:14:20Z</time>
      </trkpt>
      <trkpt lat="45.17796" lon="1.95255">
        <ele>378</ele>
        <time>2022-08-05T14:14:22Z</time>
      </trkpt>
      <trkpt lat="45.17797" lon="1.95279">
        <ele>376.4</ele>
        <time>2022-08-05T14:14:24Z</time>
      </trkpt>
      <trkpt lat="45.17793" lon="1.95303">
        <ele>376.9</ele>
        <time>2022-08-05T14:14:26Z</time>
      </trkpt>
      <trkpt lat="45.17786" lon="1.9532">
        <ele>378.4</ele>
        <time>2022-08-05T14:14:28Z</time>
      </trkpt>
      <trkpt lat="45.17785" lon="1.95337">
        <ele>378.5</ele>
        <time>2022-08-05T14:14:30Z</time>
      </trkpt>
      <trkpt lat="45.17796" lon="1.95357">
        <ele>378.4</ele>
        <time>2022-08-05T14:14:32Z</time>
      </trkpt>
      <trkpt lat="45.1781" lon="1.95367">
        <ele>375.9</ele>
        <time>2022-08-05T14:14:34Z</time>
      </trkpt>
      <trkpt lat="45.17825" lon="1.9538">
        <ele>374.1</ele>
        <time>2022-08-05T14:14:36Z</time>
      </trkpt>
      <trkpt lat="45.17839" lon="1.95397">
        <ele>372.6</ele>
        <time>2022-08-05T14:14:38Z</time>
      </trkpt>
      <trkpt lat="45.17851" lon="1.95418">
        <ele>370.8</ele>
        <time>2022-08-05T14:14:40Z</time>
      </trkpt>
      <trkpt lat="45.17862" lon="1.95443">
        <ele>367.8</ele>
        <time>2022-08-05T14:14:42Z</time>
      </trkpt>
      <trkpt lat="45.17871" lon="1.95466">
        <ele>364.8</ele>
        <time>2022-08-05T14:14:44Z</time>
      </trkpt>
      <trkpt lat="45.1788" lon="1.95488">
        <ele>360.9</ele>
        <time>2022-08-05T14:14:46Z</time>
      </trkpt>
      <trkpt lat="45.17884" lon="1.95508">
        <ele>357.8</ele>
        <time>2022-08-05T14:14:48Z</time>
      </trkpt>
      <trkpt lat="45.17882" lon="1.95525">
        <ele>356.1</ele>
        <time>2022-08-05T14:14:50Z</time>
      </trkpt>
      <trkpt lat="45.17877" lon="1.95542">
        <ele>356.4</ele>
        <time>2022-08-05T14:14:52Z</time>
      </trkpt>
      <trkpt lat="45.17872" lon="1.95561">
        <ele>355.7</ele>
        <time>2022-08-05T14:14:54Z</time>
      </trkpt>
      <trkpt lat="45.17866" lon="1.95583">
        <ele>354.7</ele>
        <time>2022-08-05T14:14:56Z</time>
      </trkpt>
      <trkpt lat="45.17858" lon="1.95597">
        <ele>354.1</ele>
        <time>2022-08-05T14:14:58Z</time>
      </trkpt>
      <trkpt lat="45.17845" lon="1.95607">
        <ele>356.2</ele>
        <time>2022-08-05T14:15:00Z</time>
      </trkpt>
      <trkpt lat="45.17832" lon="1.95617">
        <ele>358</ele>
        <time>2022-08-05T14:15:02Z</time>
      </trkpt>
      <trkpt lat="45.1782" lon="1.95633">
        <ele>356.9</ele>
        <time>2022-08-05T14:15:04Z</time>
      </trkpt>
      <trkpt lat="45.1781" lon="1.95649">
        <ele>355.3</ele>
        <time>2022-08-05T14:15:06Z</time>
      </trkpt>
      <trkpt lat="45.17801" lon="1.95665">
        <ele>353.2</ele>
        <time>2022-08-05T14:15:08Z</time>
      </trkpt>
      <trkpt lat="45.17791" lon="1.95681">
        <ele>351.6</ele>
        <time>2022-08-05T14:15:10Z</time>
      </trkpt>
      <trkpt lat="45.17779" lon="1.9569">
        <ele>352.7</ele>
        <time>2022-08-05T14:15:12Z</time>
      </trkpt>
      <trkpt lat="45.17764" lon="1.95692">
        <ele>358.1</ele>
        <time>2022-08-05T14:15:14Z</time>
      </trkpt>
      <trkpt lat="45.17749" lon="1.95685">
        <ele>366.5</ele>
        <time>2022-08-05T14:15:16Z</time>
      </trkpt>
      <trkpt lat="45.17738" lon="1.95672">
        <ele>373.8</ele>
        <time>2022-08-05T14:15:18Z</time>
      </trkpt>
      <trkpt lat="45.1772" lon="1.95767">
        <ele>340.7</ele>
        <time>2022-08-05T14:15:20Z</time>
      </trkpt>
      <trkpt lat="45.17706" lon="1.95782">
        <ele>339.1</ele>
        <time>2022-08-05T14:15:22Z</time>
      </trkpt>
      <trkpt lat="45.17691" lon="1.95798">
        <ele>337.6</ele>
        <time>2022-08-05T14:15:24Z</time>
      </trkpt>
      <trkpt lat="45.17675" lon="1.9581">
        <ele>337.5</ele>
        <time>2022-08-05T14:15:26Z</time>
      </trkpt>
      <trkpt lat="45.17657" lon="1.95819">
        <ele>336.6</ele>
        <time>2022-08-05T14:15:28Z</time>
      </trkpt>
      <trkpt lat="45.17638" lon="1.95829">
        <ele>334.3</ele>
        <time>2022-08-05T14:15:30Z</time>
      </trkpt>
      <trkpt lat="45.17623" lon="1.95841">
        <ele>331.9</ele>
        <time>2022-08-05T14:15:32Z</time>
      </trkpt>
      <trkpt lat="45.17612" lon="1.9586">
        <ele>327.8</ele>
        <time>2022-08-05T14:15:34Z</time>
      </trkpt>
      <trkpt lat="45.17602" lon="1.95881">
        <ele>323.6</ele>
        <time>2022-08-05T14:15:36Z</time>
      </trkpt>
      <trkpt lat="45.17592" lon="1.95901">
        <ele>320.1</ele>
        <time>2022-08-05T14:15:38Z</time>
      </trkpt>
      <trkpt lat="45.17583" lon="1.95916">
        <ele>318</ele>
        <time>2022-08-05T14:15:40Z</time>
      </trkpt>
      <trkpt lat="45.17569" lon="1.95918">
        <ele>314.3</ele>
        <time>2022-08-05T14:15:42Z</time>
      </trkpt>
      <trkpt lat="45.17552" lon="1.95916">
        <ele>311.8</ele>
        <time>2022-08-05T14:15:44Z</time>
      </trkpt>
      <trkpt lat="45.17538" lon="1.9591">
        <ele>310</ele>
        <time>2022-08-05T14:15:46Z</time>
      </trkpt>
      <trkpt lat="45.17528" lon="1.95894">
        <ele>310.8</ele>
        <time>2022-08-05T14:15:48Z</time>
      </trkpt>
      <trkpt lat="45.1752" lon="1.95874">
        <ele>312.6</ele>
        <time>2022-08-05T14:15:50Z</time>
      </trkpt>
      <trkpt lat="45.17518" lon="1.9585">
        <ele>316.1</ele>
        <time>2022-08-05T14:15:52Z</time>
      </trkpt>
      <trkpt lat="45.17517" lon="1.95828">
        <ele>319.5</ele>
        <time>2022-08-05T14:15:54Z</time>
      </trkpt>
      <trkpt lat="45.17511" lon="1.95806">
        <ele>321.4</ele>
        <time>2022-08-05T14:15:56Z</time>
      </trkpt>
      <trkpt lat="45.17498" lon="1.95785">
        <ele>320.8</ele>
        <time>2022-08-05T14:15:58Z</time>
      </trkpt>
      <trkpt lat="45.17485" lon="1.95764">
        <ele>317.9</ele>
        <time>2022-08-05T14:16:00Z</time>
      </trkpt>
      <trkpt lat="45.17476" lon="1.95741">
        <ele>317.6</ele>
        <time>2022-08-05T14:16:02Z</time>
      </trkpt>
      <trkpt lat="45.17468" lon="1.95718">
        <ele>319.9</ele>
        <time>2022-08-05T14:16:04Z</time>
      </trkpt>
      <trkpt lat="45.1746" lon="1.95695">
        <ele>322.1</ele>
        <time>2022-08-05T14:16:06Z</time>
      </trkpt>
      <trkpt lat="45.17447" lon="1.95674">
        <ele>321.7</ele>
        <time>2022-08-05T14:16:08Z</time>
      </trkpt>
      <trkpt lat="45.17432" lon="1.95656">
        <ele>320</ele>
        <time>2022-08-05T14:16:10Z</time>
      </trkpt>
      <trkpt lat="45.17417" lon="1.95639">
        <ele>319</ele>
        <time>2022-08-05T14:16:12Z</time>
      </trkpt>
      <trkpt lat="45.17401" lon="1.95622">
        <ele>318.7</ele>
        <time>2022-08-05T14:16:14Z</time>
      </trkpt>
      <trkpt lat="45.17385" lon="1.95607">
        <ele>317.2</ele>
        <time>2022-08-05T14:16:16Z</time>
      </trkpt>
      <trkpt lat="45.17368" lon="1.95596">
        <ele>314.6</ele>
        <time>2022-08-05T14:16:18Z</time>
      </trkpt>
      <trkpt lat="45.17351" lon="1.95586">
        <ele>311.1</ele>
        <time>2022-08-05T14:16:20Z</time>
      </trkpt>
      <trkpt lat="45.17331" lon="1.95582">
        <ele>304.4</ele>
        <time>2022-08-05T14:16:22Z</time>
      </trkpt>
      <trkpt lat="45.17314" lon="1.95581">
        <ele>299.1</ele>
        <time>2022-08-05T14:16:24Z</time>
      </trkpt>
      <trkpt lat="45.17301" lon="1.95574">
        <ele>295.2</ele>
        <time>2022-08-05T14:16:26Z</time>
      </trkpt>
      <trkpt lat="45.17293" lon="1.95561">
        <ele>293</ele>
        <time>2022-08-05T14:16:28Z</time>
      </trkpt>
      <trkpt lat="45.1729" lon="1.95543">
        <ele>292.9</ele>
        <time>2022-08-05T14:16:30Z</time>
      </trkpt>
      <trkpt lat="45.17293" lon="1.9552">
        <ele>295.3</ele>
        <time>2022-08-05T14:16:32Z</time>
      </trkpt>
      <trkpt lat="45.17297" lon="1.955">
        <ele>298.5</ele>
        <time>2022-08-05T14:16:34Z</time>
      </trkpt>
      <trkpt lat="45.17305" lon="1.95477">
        <ele>301</ele>
        <time>2022-08-05T14:16:36Z</time>
      </trkpt>
      <trkpt lat="45.17313" lon="1.95455">
        <ele>303.9</ele>
        <time>2022-08-05T14:16:38Z</time>
      </trkpt>
      <trkpt lat="45.17319" lon="1.95437">
        <ele>306.1</ele>
        <time>2022-08-05T14:16:40Z</time>
      </trkpt>
      <trkpt lat="45.17315" lon="1.95415">
        <ele>303.5</ele>
        <time>2022-08-05T14:16:42Z</time>
      </trkpt>
      <trkpt lat="45.17307" lon="1.95396">
        <ele>301.9</ele>
        <time>2022-08-05T14:16:44Z</time>
      </trkpt>
      <trkpt lat="45.17301" lon="1.95375">
        <ele>301.4</ele>
        <time>2022-08-05T14:16:46Z</time>
      </trkpt>
      <trkpt lat="45.17298" lon="1.9535">
        <ele>302.8</ele>
        <time>2022-08-05T14:16:48Z</time>
      </trkpt>
      <trkpt lat="45.17297" lon="1.95326">
        <ele>305.8</ele>
        <time>2022-08-05T14:16:50Z</time>
      </trkpt>
      <trkpt lat="45.1729" lon="1.95308">
        <ele>307.3</ele>
        <time>2022-08-05T14:16:52Z</time>
      </trkpt>
      <trkpt lat="45.1727" lon="1.95293">
        <ele>300.5</ele>
        <time>2022-08-05T14:16:54Z</time>
      </trkpt>
      <trkpt lat="45.17256" lon="1.95275">
        <ele>298.8</ele>
        <time>2022-08-05T14:16:56Z</time>
      </trkpt>
      <trkpt lat="45.17241" lon="1.95256">
        <ele>298.4</ele>
        <time>2022-08-05T14:16:58Z</time>
      </trkpt>
      <trkpt lat="45.17225" lon="1.95242">
        <ele>299</ele>
        <time>2022-08-05T14:17:00Z</time>
      </trkpt>
      <trkpt lat="45.17206" lon="1.95235">
        <ele>296.5</ele>
        <time>2022-08-05T14:17:02Z</time>
      </trkpt>
      <trkpt lat="45.17189" lon="1.95218">
        <ele>298.6</ele>
        <time>2022-08-05T14:17:04Z</time>
      </trkpt>
      <trkpt lat="45.17168" lon="1.95214">
        <ele>294.5</ele>
        <time>2022-08-05T14:17:06Z</time>
      </trkpt>
      <trkpt lat="45.17147" lon="1.95211">
        <ele>294.2</ele>
        <time>2022-08-05T14:17:08Z</time>
      </trkpt>
      <trkpt lat="45.17127" lon="1.95209">
        <ele>294</ele>
        <time>2022-08-05T14:17:10Z</time>
      </trkpt>
      <trkpt lat="45.17109" lon="1.95209">
        <ele>293.1</ele>
        <time>2022-08-05T14:17:12Z</time>
      </trkpt>
      <trkpt lat="45.1709" lon="1.95214">
        <ele>290.5</ele>
        <time>2022-08-05T14:17:14Z</time>
      </trkpt>
      <trkpt lat="45.17075" lon="1.95228">
        <ele>285.5</ele>
        <time>2022-08-05T14:17:16Z</time>
      </trkpt>
      <trkpt lat="45.17064" lon="1.95243">
        <ele>281.4</ele>
        <time>2022-08-05T14:17:18Z</time>
      </trkpt>
      <trkpt lat="45.17052" lon="1.95261">
        <ele>278.3</ele>
        <time>2022-08-05T14:17:20Z</time>
      </trkpt>
      <trkpt lat="45.17043" lon="1.95279">
        <ele>275.8</ele>
        <time>2022-08-05T14:17:22Z</time>
      </trkpt>
      <trkpt lat="45.17031" lon="1.95295">
        <ele>273.8</ele>
        <time>2022-08-05T14:17:24Z</time>
      </trkpt>
      <trkpt lat="45.17016" lon="1.95306">
        <ele>273.2</ele>
        <time>2022-08-05T14:17:26Z</time>
      </trkpt>
      <trkpt lat="45.17004" lon="1.95316">
        <ele>272.6</ele>
        <time>2022-08-05T14:17:28Z</time>
      </trkpt>
      <trkpt lat="45.16995" lon="1.9533">
        <ele>270</ele>
        <time>2022-08-05T14:17:30Z</time>
      </trkpt>
      <trkpt lat="45.16986" lon="1.95343">
        <ele>267.9</ele>
        <time>2022-08-05T14:17:32Z</time>
      </trkpt>
      <trkpt lat="45.16978" lon="1.95357">
        <ele>266.4</ele>
        <time>2022-08-05T14:17:34Z</time>
      </trkpt>
      <trkpt lat="45.16969" lon="1.95369">
        <ele>265</ele>
        <time>2022-08-05T14:17:36Z</time>
      </trkpt>
      <trkpt lat="45.16958" lon="1.95372">
        <ele>264.1</ele>
        <time>2022-08-05T14:17:38Z</time>
      </trkpt>
      <trkpt lat="45.16947" lon="1.95364">
        <ele>263.5</ele>
        <time>2022-08-05T14:17:40Z</time>
      </trkpt>
      <trkpt lat="45.16937" lon="1.95358">
        <ele>262.7</ele>
        <time>2022-08-05T14:17:42Z</time>
      </trkpt>
      <trkpt lat="45.16926" lon="1.95347">
        <ele>261.9</ele>
        <time>2022-08-05T14:17:44Z</time>
      </trkpt>
      <trkpt lat="45.1692" lon="1.95334">
        <ele>261.3</ele>
        <time>2022-08-05T14:17:46Z</time>
      </trkpt>
      <trkpt lat="45.16913" lon="1.95318">
        <ele>260.8</ele>
        <time>2022-08-05T14:17:48Z</time>
      </trkpt>
      <trkpt lat="45.16911" lon="1.953">
        <ele>260.6</ele>
        <time>2022-08-05T14:17:50Z</time>
      </trkpt>
      <trkpt lat="45.16913" lon="1.95285">
        <ele>260.7</ele>
        <time>2022-08-05T14:17:52Z</time>
      </trkpt>
      <trkpt lat="45.16908" lon="1.95266">
        <ele>260.2</ele>
        <time>2022-08-05T14:17:54Z</time>
      </trkpt>
      <trkpt lat="45.16906" lon="1.95249">
        <ele>259.9</ele>
        <time>2022-08-05T14:17:56Z</time>
      </trkpt>
      <trkpt lat="45.16903" lon="1.95232">
        <ele>258.7</ele>
        <time>2022-08-05T14:17:58Z</time>
      </trkpt>
      <trkpt lat="45.16899" lon="1.95216">
        <ele>257.6</ele>
        <time>2022-08-05T14:18:00Z</time>
      </trkpt>
      <trkpt lat="45.16895" lon="1.95199">
        <ele>256.3</ele>
        <time>2022-08-05T14:18:02Z</time>
      </trkpt>
      <trkpt lat="45.16891" lon="1.95179">
        <ele>254.9</ele>
        <time>2022-08-05T14:18:04Z</time>
      </trkpt>
      <trkpt lat="45.16894" lon="1.95164">
        <ele>254.6</ele>
        <time>2022-08-05T14:18:06Z</time>
      </trkpt>
      <trkpt lat="45.16889" lon="1.95149">
        <ele>254.3</ele>
        <time>2022-08-05T14:18:08Z</time>
      </trkpt>
      <trkpt lat="45.16881" lon="1.95134">
        <ele>253.9</ele>
        <time>2022-08-05T14:18:10Z</time>
      </trkpt>
      <trkpt lat="45.16871" lon="1.95119">
        <ele>253.7</ele>
        <time>2022-08-05T14:18:12Z</time>
      </trkpt>
      <trkpt lat="45.16859" lon="1.95102">
        <ele>253.7</ele>
        <time>2022-08-05T14:18:14Z</time>
      </trkpt>
      <trkpt lat="45.16849" lon="1.95089">
        <ele>254</ele>
        <time>2022-08-05T14:18:16Z</time>
      </trkpt>
      <trkpt lat="45.1684" lon="1.95078">
        <ele>255.3</ele>
        <time>2022-08-05T14:18:18Z</time>
      </trkpt>
      <trkpt lat="45.1683" lon="1.95071">
        <ele>257.4</ele>
        <time>2022-08-05T14:18:20Z</time>
      </trkpt>
      <trkpt lat="45.16822" lon="1.95066">
        <ele>260</ele>
        <time>2022-08-05T14:18:22Z</time>
      </trkpt>
      <trkpt lat="45.16815" lon="1.95064">
        <ele>261.7</ele>
        <time>2022-08-05T14:18:24Z</time>
      </trkpt>
      <trkpt lat="45.1681" lon="1.95062">
        <ele>263</ele>
        <time>2022-08-05T14:18:26Z</time>
      </trkpt>
      <trkpt lat="45.16805" lon="1.95061">
        <ele>264.1</ele>
        <time>2022-08-05T14:18:28Z</time>
      </trkpt>
      <trkpt lat="45.16801" lon="1.95061">
        <ele>264.8</ele>
        <time>2022-08-05T14:18:30Z</time>
      </trkpt>
      <trkpt lat="45.16796" lon="1.95061">
        <ele>265.7</ele>
        <time>2022-08-05T14:18:32Z</time>
      </trkpt>
      <trkpt lat="45.16792" lon="1.95059">
        <ele>266.9</ele>
        <time>2022-08-05T14:18:34Z</time>
      </trkpt>
      <trkpt lat="45.16788" lon="1.9506">
        <ele>267.6</ele>
        <time>2022-08-05T14:18:36Z</time>
      </trkpt>
      <trkpt lat="45.16781" lon="1.95061">
        <ele>268.4</ele>
        <time>2022-08-05T14:18:38Z</time>
      </trkpt>
      <trkpt lat="45.16777" lon="1.95061">
        <ele>269</ele>
        <time>2022-08-05T14:18:40Z</time>
      </trkpt>
      <trkpt lat="45.16773" lon="1.95062">
        <ele>269.4</ele>
        <time>2022-08-05T14:18:42Z</time>
      </trkpt>
      <trkpt lat="45.16769" lon="1.95063">
        <ele>269.6</ele>
        <time>2022-08-05T14:18:44Z</time>
      </trkpt>
      <trkpt lat="45.16766" lon="1.95065">
        <ele>269.4</ele>
        <time>2022-08-05T14:18:46Z</time>
      </trkpt>
      <trkpt lat="45.16762" lon="1.95067">
        <ele>269.3</ele>
        <time>2022-08-05T14:18:48Z</time>
      </trkpt>
      <trkpt lat="45.16758" lon="1.95069">
        <ele>269.4</ele>
        <time>2022-08-05T14:18:50Z</time>
      </trkpt>
      <trkpt lat="45.16755" lon="1.95071">
        <ele>269</ele>
        <time>2022-08-05T14:18:52Z</time>
      </trkpt>
      <trkpt lat="45.16751" lon="1.95076">
        <ele>267.6</ele>
        <time>2022-08-05T14:18:54Z</time>
      </trkpt>
      <trkpt lat="45.16748" lon="1.95081">
        <ele>267.2</ele>
        <time>2022-08-05T14:18:56Z</time>
      </trkpt>
      <trkpt lat="45.16743" lon="1.95085">
        <ele>268.1</ele>
        <time>2022-08-05T14:18:58Z</time>
      </trkpt>
      <trkpt lat="45.16736" lon="1.95092">
        <ele>269.6</ele>
        <time>2022-08-05T14:19:00Z</time>
      </trkpt>
      <trkpt lat="45.1673" lon="1.95097">
        <ele>271.5</ele>
        <time>2022-08-05T14:19:02Z</time>
      </trkpt>
      <trkpt lat="45.16724" lon="1.95101">
        <ele>272.8</ele>
        <time>2022-08-05T14:19:04Z</time>
      </trkpt>
      <trkpt lat="45.16718" lon="1.95108">
        <ele>274.1</ele>
        <time>2022-08-05T14:19:06Z</time>
      </trkpt>
      <trkpt lat="45.16712" lon="1.95115">
        <ele>275.3</ele>
        <time>2022-08-05T14:19:08Z</time>
      </trkpt>
      <trkpt lat="45.16707" lon="1.95122">
        <ele>276</ele>
        <time>2022-08-05T14:19:10Z</time>
      </trkpt>
      <trkpt lat="45.16702" lon="1.95128">
        <ele>276.9</ele>
        <time>2022-08-05T14:19:12Z</time>
      </trkpt>
      <trkpt lat="45.16696" lon="1.95137">
        <ele>277.9</ele>
        <time>2022-08-05T14:19:14Z</time>
      </trkpt>
      <trkpt lat="45.16689" lon="1.95147">
        <ele>278.3</ele>
        <time>2022-08-05T14:19:16Z</time>
      </trkpt>
      <trkpt lat="45.16684" lon="1.95158">
        <ele>278.5</ele>
        <time>2022-08-05T14:19:18Z</time>
      </trkpt>
      <trkpt lat="45.16675" lon="1.95165">
        <ele>280.6</ele>
        <time>2022-08-05T14:19:20Z</time>
      </trkpt>
      <trkpt lat="45.16674" lon="1.95177">
        <ele>279.2</ele>
        <time>2022-08-05T14:19:22Z</time>
      </trkpt>
      <trkpt lat="45.16674" lon="1.9519">
        <ele>277.1</ele>
        <time>2022-08-05T14:19:24Z</time>
      </trkpt>
      <trkpt lat="45.16677" lon="1.95208">
        <ele>273.7</ele>
        <time>2022-08-05T14:19:26Z</time>
      </trkpt>
      <trkpt lat="45.16679" lon="1.95228">
        <ele>270.4</ele>
        <time>2022-08-05T14:19:28Z</time>
      </trkpt>
      <trkpt lat="45.16681" lon="1.95249">
        <ele>267.1</ele>
        <time>2022-08-05T14:19:30Z</time>
      </trkpt>
      <trkpt lat="45.16684" lon="1.95271">
        <ele>264.3</ele>
        <time>2022-08-05T14:19:32Z</time>
      </trkpt>
      <trkpt lat="45.16685" lon="1.95294">
        <ele>262.1</ele>
        <time>2022-08-05T14:19:34Z</time>
      </trkpt>
      <trkpt lat="45.16685" lon="1.95314">
        <ele>260.5</ele>
        <time>2022-08-05T14:19:36Z</time>
      </trkpt>
      <trkpt lat="45.16686" lon="1.95335">
        <ele>258.6</ele>
        <time>2022-08-05T14:19:38Z</time>
      </trkpt>
      <trkpt lat="45.16684" lon="1.95355">
        <ele>257.7</ele>
        <time>2022-08-05T14:19:40Z</time>
      </trkpt>
      <trkpt lat="45.16684" lon="1.95374">
        <ele>256.5</ele>
        <time>2022-08-05T14:19:42Z</time>
      </trkpt>
      <trkpt lat="45.16684" lon="1.95393">
        <ele>255.3</ele>
        <time>2022-08-05T14:19:44Z</time>
      </trkpt>
      <trkpt lat="45.16684" lon="1.95412">
        <ele>254.1</ele>
        <time>2022-08-05T14:19:46Z</time>
      </trkpt>
      <trkpt lat="45.16682" lon="1.9543">
        <ele>254</ele>
        <time>2022-08-05T14:19:48Z</time>
      </trkpt>
      <trkpt lat="45.16681" lon="1.95448">
        <ele>254.2</ele>
        <time>2022-08-05T14:19:50Z</time>
      </trkpt>
      <trkpt lat="45.16676" lon="1.95465">
        <ele>253.8</ele>
        <time>2022-08-05T14:19:52Z</time>
      </trkpt>
      <trkpt lat="45.16665" lon="1.95478">
        <ele>252.5</ele>
        <time>2022-08-05T14:19:54Z</time>
      </trkpt>
      <trkpt lat="45.1665" lon="1.9548">
        <ele>252.6</ele>
        <time>2022-08-05T14:19:56Z</time>
      </trkpt>
      <trkpt lat="45.16635" lon="1.95478">
        <ele>252.8</ele>
        <time>2022-08-05T14:19:58Z</time>
      </trkpt>
      <trkpt lat="45.16622" lon="1.95471">
        <ele>253</ele>
        <time>2022-08-05T14:20:00Z</time>
      </trkpt>
      <trkpt lat="45.16611" lon="1.95462">
        <ele>253.3</ele>
        <time>2022-08-05T14:20:02Z</time>
      </trkpt>
      <trkpt lat="45.16601" lon="1.95451">
        <ele>253.5</ele>
        <time>2022-08-05T14:20:04Z</time>
      </trkpt>
      <trkpt lat="45.1659" lon="1.95441">
        <ele>253.7</ele>
        <time>2022-08-05T14:20:06Z</time>
      </trkpt>
      <trkpt lat="45.16582" lon="1.95428">
        <ele>253.8</ele>
        <time>2022-08-05T14:20:08Z</time>
      </trkpt>
      <trkpt lat="45.16578" lon="1.95419">
        <ele>253.7</ele>
        <time>2022-08-05T14:20:10Z</time>
      </trkpt>
      <trkpt lat="45.16568" lon="1.95402">
        <ele>254.9</ele>
        <time>2022-08-05T14:20:12Z</time>
      </trkpt>
      <trkpt lat="45.16558" lon="1.95391">
        <ele>255.4</ele>
        <time>2022-08-05T14:20:14Z</time>
      </trkpt>
      <trkpt lat="45.16552" lon="1.95377">
        <ele>256.2</ele>
        <time>2022-08-05T14:20:16Z</time>
      </trkpt>
      <trkpt lat="45.16546" lon="1.95361">
        <ele>256.7</ele>
        <time>2022-08-05T14:20:18Z</time>
      </trkpt>
      <trkpt lat="45.1654" lon="1.95348">
        <ele>256.6</ele>
        <time>2022-08-05T14:20:20Z</time>
      </trkpt>
      <trkpt lat="45.16532" lon="1.95336">
        <ele>255.6</ele>
        <time>2022-08-05T14:20:22Z</time>
      </trkpt>
      <trkpt lat="45.16526" lon="1.95323">
        <ele>254.4</ele>
        <time>2022-08-05T14:20:24Z</time>
      </trkpt>
      <trkpt lat="45.16522" lon="1.9531">
        <ele>253.6</ele>
        <time>2022-08-05T14:20:26Z</time>
      </trkpt>
      <trkpt lat="45.1652" lon="1.95294">
        <ele>253</ele>
        <time>2022-08-05T14:20:28Z</time>
      </trkpt>
      <trkpt lat="45.1652" lon="1.95283">
        <ele>253.1</ele>
        <time>2022-08-05T14:20:30Z</time>
      </trkpt>
      <trkpt lat="45.16519" lon="1.95268">
        <ele>253.1</ele>
        <time>2022-08-05T14:20:32Z</time>
      </trkpt>
      <trkpt lat="45.16519" lon="1.95252">
        <ele>253.3</ele>
        <time>2022-08-05T14:20:34Z</time>
      </trkpt>
      <trkpt lat="45.1652" lon="1.95238">
        <ele>253.6</ele>
        <time>2022-08-05T14:20:36Z</time>
      </trkpt>
      <trkpt lat="45.16519" lon="1.95223">
        <ele>253.9</ele>
        <time>2022-08-05T14:20:38Z</time>
      </trkpt>
      <trkpt lat="45.1652" lon="1.95209">
        <ele>254.7</ele>
        <time>2022-08-05T14:20:40Z</time>
      </trkpt>
      <trkpt lat="45.1652" lon="1.95198">
        <ele>254.9</ele>
        <time>2022-08-05T14:20:42Z</time>
      </trkpt>
      <trkpt lat="45.16518" lon="1.95184">
        <ele>254.4</ele>
        <time>2022-08-05T14:20:44Z</time>
      </trkpt>
      <trkpt lat="45.16517" lon="1.9517">
        <ele>254.1</ele>
        <time>2022-08-05T14:20:46Z</time>
      </trkpt>
      <trkpt lat="45.16516" lon="1.95157">
        <ele>255.7</ele>
        <time>2022-08-05T14:20:48Z</time>
      </trkpt>
      <trkpt lat="45.16514" lon="1.95144">
        <ele>257.1</ele>
        <time>2022-08-05T14:20:50Z</time>
      </trkpt>
      <trkpt lat="45.16511" lon="1.95134">
        <ele>257.9</ele>
        <time>2022-08-05T14:20:52Z</time>
      </trkpt>
      <trkpt lat="45.16507" lon="1.95124">
        <ele>258.2</ele>
        <time>2022-08-05T14:20:54Z</time>
      </trkpt>
      <trkpt lat="45.16503" lon="1.95116">
        <ele>258.1</ele>
        <time>2022-08-05T14:20:56Z</time>
      </trkpt>
      <trkpt lat="45.16497" lon="1.95108">
        <ele>258</ele>
        <time>2022-08-05T14:20:58Z</time>
      </trkpt>
      <trkpt lat="45.16492" lon="1.95103">
        <ele>258.7</ele>
        <time>2022-08-05T14:21:00Z</time>
      </trkpt>
      <trkpt lat="45.16485" lon="1.95099">
        <ele>259.1</ele>
        <time>2022-08-05T14:21:02Z</time>
      </trkpt>
      <trkpt lat="45.16479" lon="1.95095">
        <ele>259.4</ele>
        <time>2022-08-05T14:21:04Z</time>
      </trkpt>
      <trkpt lat="45.16473" lon="1.95091">
        <ele>259.8</ele>
        <time>2022-08-05T14:21:06Z</time>
      </trkpt>
      <trkpt lat="45.16465" lon="1.95089">
        <ele>259.9</ele>
        <time>2022-08-05T14:21:08Z</time>
      </trkpt>
      <trkpt lat="45.16457" lon="1.95086">
        <ele>259.8</ele>
        <time>2022-08-05T14:21:10Z</time>
      </trkpt>
      <trkpt lat="45.16448" lon="1.95085">
        <ele>259.6</ele>
        <time>2022-08-05T14:21:12Z</time>
      </trkpt>
      <trkpt lat="45.1644" lon="1.95083">
        <ele>259.8</ele>
        <time>2022-08-05T14:21:14Z</time>
      </trkpt>
      <trkpt lat="45.16431" lon="1.95083">
        <ele>258.9</ele>
        <time>2022-08-05T14:21:16Z</time>
      </trkpt>
      <trkpt lat="45.16422" lon="1.95083">
        <ele>258.6</ele>
        <time>2022-08-05T14:21:18Z</time>
      </trkpt>
      <trkpt lat="45.16414" lon="1.95086">
        <ele>258.1</ele>
        <time>2022-08-05T14:21:20Z</time>
      </trkpt>
      <trkpt lat="45.16405" lon="1.95092">
        <ele>259.5</ele>
        <time>2022-08-05T14:21:22Z</time>
      </trkpt>
      <trkpt lat="45.16398" lon="1.95091">
        <ele>261.7</ele>
        <time>2022-08-05T14:21:24Z</time>
      </trkpt>
      <trkpt lat="45.1639" lon="1.95099">
        <ele>262.1</ele>
        <time>2022-08-05T14:21:26Z</time>
      </trkpt>
      <trkpt lat="45.16383" lon="1.95101">
        <ele>263</ele>
        <time>2022-08-05T14:21:28Z</time>
      </trkpt>
      <trkpt lat="45.16374" lon="1.95112">
        <ele>262.6</ele>
        <time>2022-08-05T14:21:30Z</time>
      </trkpt>
      <trkpt lat="45.16368" lon="1.95118">
        <ele>262</ele>
        <time>2022-08-05T14:21:32Z</time>
      </trkpt>
      <trkpt lat="45.16362" lon="1.95123">
        <ele>262</ele>
        <time>2022-08-05T14:21:34Z</time>
      </trkpt>
      <trkpt lat="45.16356" lon="1.95134">
        <ele>259.8</ele>
        <time>2022-08-05T14:21:36Z</time>
      </trkpt>
      <trkpt lat="45.16351" lon="1.95144">
        <ele>257.5</ele>
        <time>2022-08-05T14:21:38Z</time>
      </trkpt>
      <trkpt lat="45.16343" lon="1.95155">
        <ele>254.9</ele>
        <time>2022-08-05T14:21:40Z</time>
      </trkpt>
      <trkpt lat="45.16338" lon="1.95168">
        <ele>251.2</ele>
        <time>2022-08-05T14:21:42Z</time>
      </trkpt>
      <trkpt lat="45.16329" lon="1.95181">
        <ele>251.2</ele>
        <time>2022-08-05T14:21:44Z</time>
      </trkpt>
      <trkpt lat="45.16319" lon="1.95193">
        <ele>251.2</ele>
        <time>2022-08-05T14:21:46Z</time>
      </trkpt>
      <trkpt lat="45.16308" lon="1.95201">
        <ele>251.4</ele>
        <time>2022-08-05T14:21:48Z</time>
      </trkpt>
      <trkpt lat="45.16297" lon="1.95208">
        <ele>251.2</ele>
        <time>2022-08-05T14:21:50Z</time>
      </trkpt>
      <trkpt lat="45.16286" lon="1.95214">
        <ele>251</ele>
        <time>2022-08-05T14:21:52Z</time>
      </trkpt>
      <trkpt lat="45.16276" lon="1.95222">
        <ele>249.7</ele>
        <time>2022-08-05T14:21:54Z</time>
      </trkpt>
      <trkpt lat="45.16266" lon="1.95229">
        <ele>248.2</ele>
        <time>2022-08-05T14:21:56Z</time>
      </trkpt>
      <trkpt lat="45.16256" lon="1.95237">
        <ele>246.4</ele>
        <time>2022-08-05T14:21:58Z</time>
      </trkpt>
      <trkpt lat="45.16247" lon="1.95242">
        <ele>244.9</ele>
        <time>2022-08-05T14:22:00Z</time>
      </trkpt>
      <trkpt lat="45.16239" lon="1.95245">
        <ele>244.4</ele>
        <time>2022-08-05T14:22:02Z</time>
      </trkpt>
      <trkpt lat="45.1623" lon="1.95249">
        <ele>243.3</ele>
        <time>2022-08-05T14:22:04Z</time>
      </trkpt>
      <trkpt lat="45.16222" lon="1.95254">
        <ele>243.5</ele>
        <time>2022-08-05T14:22:06Z</time>
      </trkpt>
      <trkpt lat="45.16214" lon="1.9526">
        <ele>243.5</ele>
        <time>2022-08-05T14:22:08Z</time>
      </trkpt>
      <trkpt lat="45.16207" lon="1.95266">
        <ele>243.2</ele>
        <time>2022-08-05T14:22:10Z</time>
      </trkpt>
      <trkpt lat="45.162" lon="1.95272">
        <ele>242.7</ele>
        <time>2022-08-05T14:22:12Z</time>
      </trkpt>
      <trkpt lat="45.16193" lon="1.95278">
        <ele>242.1</ele>
        <time>2022-08-05T14:22:14Z</time>
      </trkpt>
      <trkpt lat="45.16186" lon="1.95285">
        <ele>240.9</ele>
        <time>2022-08-05T14:22:16Z</time>
      </trkpt>
      <trkpt lat="45.1618" lon="1.95289">
        <ele>240.1</ele>
        <time>2022-08-05T14:22:18Z</time>
      </trkpt>
      <trkpt lat="45.16173" lon="1.95295">
        <ele>238.7</ele>
        <time>2022-08-05T14:22:20Z</time>
      </trkpt>
      <trkpt lat="45.16167" lon="1.95302">
        <ele>237</ele>
        <time>2022-08-05T14:22:22Z</time>
      </trkpt>
      <trkpt lat="45.1616" lon="1.95306">
        <ele>236.8</ele>
        <time>2022-08-05T14:22:24Z</time>
      </trkpt>
      <trkpt lat="45.16153" lon="1.95308">
        <ele>236.9</ele>
        <time>2022-08-05T14:22:26Z</time>
      </trkpt>
      <trkpt lat="45.16146" lon="1.95308">
        <ele>237.4</ele>
        <time>2022-08-05T14:22:28Z</time>
      </trkpt>
      <trkpt lat="45.1614" lon="1.95308">
        <ele>237.9</ele>
        <time>2022-08-05T14:22:30Z</time>
      </trkpt>
      <trkpt lat="45.16133" lon="1.9531">
        <ele>238</ele>
        <time>2022-08-05T14:22:32Z</time>
      </trkpt>
      <trkpt lat="45.16127" lon="1.9531">
        <ele>238.4</ele>
        <time>2022-08-05T14:22:34Z</time>
      </trkpt>
      <trkpt lat="45.16121" lon="1.95314">
        <ele>238.1</ele>
        <time>2022-08-05T14:22:36Z</time>
      </trkpt>
      <trkpt lat="45.16115" lon="1.95316">
        <ele>238.1</ele>
        <time>2022-08-05T14:22:38Z</time>
      </trkpt>
      <trkpt lat="45.16108" lon="1.95319">
        <ele>238.1</ele>
        <time>2022-08-05T14:22:40Z</time>
      </trkpt>
      <trkpt lat="45.16104" lon="1.95323">
        <ele>237.6</ele>
        <time>2022-08-05T14:22:42Z</time>
      </trkpt>
      <trkpt lat="45.161" lon="1.9533">
        <ele>236.4</ele>
        <time>2022-08-05T14:22:44Z</time>
      </trkpt>
      <trkpt lat="45.16099" lon="1.95337">
        <ele>235.7</ele>
        <time>2022-08-05T14:22:46Z</time>
      </trkpt>
      <trkpt lat="45.16101" lon="1.95348">
        <ele>235</ele>
        <time>2022-08-05T14:22:48Z</time>
      </trkpt>
      <trkpt lat="45.16105" lon="1.95358">
        <ele>234.5</ele>
        <time>2022-08-05T14:22:50Z</time>
      </trkpt>
      <trkpt lat="45.16108" lon="1.95366">
        <ele>234.1</ele>
        <time>2022-08-05T14:22:52Z</time>
      </trkpt>
      <trkpt lat="45.16112" lon="1.95382">
        <ele>233.7</ele>
        <time>2022-08-05T14:22:54Z</time>
      </trkpt>
      <trkpt lat="45.16113" lon="1.95379">
        <ele>233.8</ele>
        <time>2022-08-05T14:22:56Z</time>
      </trkpt>
      <trkpt lat="45.16114" lon="1.95384">
        <ele>233.7</ele>
        <time>2022-08-05T14:22:58Z</time>
      </trkpt>
      <trkpt lat="45.16116" lon="1.95389">
        <ele>233.7</ele>
        <time>2022-08-05T14:23:00Z</time>
      </trkpt>
      <trkpt lat="45.16117" lon="1.95392">
        <ele>233.6</ele>
        <time>2022-08-05T14:23:02Z</time>
      </trkpt>
      <trkpt lat="45.16117" lon="1.95391">
        <ele>233.6</ele>
        <time>2022-08-05T14:23:04Z</time>
      </trkpt>
      <trkpt lat="45.16117" lon="1.95391">
        <ele>233.6</ele>
        <time>2022-08-05T14:23:06Z</time>
      </trkpt>
      <trkpt lat="45.16117" lon="1.95391">
        <ele>233.7</ele>
        <time>2022-08-05T14:23:08Z</time>
      </trkpt>
      <trkpt lat="45.16117" lon="1.9539">
        <ele>233.7</ele>
        <time>2022-08-05T14:23:10Z</time>
      </trkpt>
      <trkpt lat="45.16119" lon="1.95426">
        <ele>235.2</ele>
        <time>2022-08-05T14:25:16Z</time>
      </trkpt>
      <trkpt lat="45.16112" lon="1.95431">
        <ele>235.1</ele>
        <time>2022-08-05T14:25:18Z</time>
      </trkpt>
      <trkpt lat="45.16105" lon="1.95436">
        <ele>235</ele>
        <time>2022-08-05T14:25:20Z</time>
      </trkpt>
      <trkpt lat="45.16099" lon="1.95442">
        <ele>235</ele>
        <time>2022-08-05T14:25:22Z</time>
      </trkpt>
      <trkpt lat="45.16094" lon="1.95447">
        <ele>234.7</ele>
        <time>2022-08-05T14:25:24Z</time>
      </trkpt>
      <trkpt lat="45.16087" lon="1.95452">
        <ele>234.2</ele>
        <time>2022-08-05T14:25:26Z</time>
      </trkpt>
      <trkpt lat="45.16081" lon="1.95457">
        <ele>233.9</ele>
        <time>2022-08-05T14:25:28Z</time>
      </trkpt>
      <trkpt lat="45.16075" lon="1.95463">
        <ele>234.1</ele>
        <time>2022-08-05T14:25:30Z</time>
      </trkpt>
      <trkpt lat="45.16069" lon="1.95465">
        <ele>234</ele>
        <time>2022-08-05T14:25:32Z</time>
      </trkpt>
      <trkpt lat="45.16062" lon="1.95466">
        <ele>233.8</ele>
        <time>2022-08-05T14:25:34Z</time>
      </trkpt>
      <trkpt lat="45.16055" lon="1.95472">
        <ele>233.8</ele>
        <time>2022-08-05T14:25:36Z</time>
      </trkpt>
      <trkpt lat="45.16047" lon="1.95478">
        <ele>233.5</ele>
        <time>2022-08-05T14:25:38Z</time>
      </trkpt>
      <trkpt lat="45.16039" lon="1.95481">
        <ele>233</ele>
        <time>2022-08-05T14:25:40Z</time>
      </trkpt>
      <trkpt lat="45.16031" lon="1.95485">
        <ele>232.4</ele>
        <time>2022-08-05T14:25:42Z</time>
      </trkpt>
      <trkpt lat="45.16023" lon="1.95488">
        <ele>231.7</ele>
        <time>2022-08-05T14:25:44Z</time>
      </trkpt>
      <trkpt lat="45.16014" lon="1.95493">
        <ele>230.8</ele>
        <time>2022-08-05T14:25:46Z</time>
      </trkpt>
      <trkpt lat="45.16006" lon="1.95498">
        <ele>229.7</ele>
        <time>2022-08-05T14:25:48Z</time>
      </trkpt>
      <trkpt lat="45.15996" lon="1.95501">
        <ele>229.3</ele>
        <time>2022-08-05T14:25:50Z</time>
      </trkpt>
      <trkpt lat="45.15986" lon="1.95504">
        <ele>230</ele>
        <time>2022-08-05T14:25:52Z</time>
      </trkpt>
      <trkpt lat="45.15977" lon="1.95508">
        <ele>230.6</ele>
        <time>2022-08-05T14:25:54Z</time>
      </trkpt>
      <trkpt lat="45.15968" lon="1.95512">
        <ele>231.1</ele>
        <time>2022-08-05T14:25:56Z</time>
      </trkpt>
      <trkpt lat="45.15959" lon="1.95513">
        <ele>231.5</ele>
        <time>2022-08-05T14:25:58Z</time>
      </trkpt>
      <trkpt lat="45.1595" lon="1.95517">
        <ele>231.7</ele>
        <time>2022-08-05T14:26:00Z</time>
      </trkpt>
      <trkpt lat="45.15942" lon="1.9552">
        <ele>231.9</ele>
        <time>2022-08-05T14:26:02Z</time>
      </trkpt>
      <trkpt lat="45.15934" lon="1.95522">
        <ele>232</ele>
        <time>2022-08-05T14:26:04Z</time>
      </trkpt>
      <trkpt lat="45.15925" lon="1.95526">
        <ele>232</ele>
        <time>2022-08-05T14:26:06Z</time>
      </trkpt>
      <trkpt lat="45.15917" lon="1.95529">
        <ele>231.9</ele>
        <time>2022-08-05T14:26:08Z</time>
      </trkpt>
      <trkpt lat="45.15908" lon="1.95531">
        <ele>232</ele>
        <time>2022-08-05T14:26:10Z</time>
      </trkpt>
      <trkpt lat="45.159" lon="1.95534">
        <ele>231.9</ele>
        <time>2022-08-05T14:26:12Z</time>
      </trkpt>
      <trkpt lat="45.15891" lon="1.95535">
        <ele>231.9</ele>
        <time>2022-08-05T14:26:14Z</time>
      </trkpt>
      <trkpt lat="45.15882" lon="1.95537">
        <ele>232</ele>
        <time>2022-08-05T14:26:16Z</time>
      </trkpt>
      <trkpt lat="45.15873" lon="1.95538">
        <ele>232</ele>
        <time>2022-08-05T14:26:18Z</time>
      </trkpt>
      <trkpt lat="45.15864" lon="1.9554">
        <ele>231.8</ele>
        <time>2022-08-05T14:26:20Z</time>
      </trkpt>
      <trkpt lat="45.15855" lon="1.95542">
        <ele>231.8</ele>
        <time>2022-08-05T14:26:22Z</time>
      </trkpt>
      <trkpt lat="45.15846" lon="1.95543">
        <ele>231.6</ele>
        <time>2022-08-05T14:26:24Z</time>
      </trkpt>
      <trkpt lat="45.15837" lon="1.95545">
        <ele>231.5</ele>
        <time>2022-08-05T14:26:26Z</time>
      </trkpt>
      <trkpt lat="45.15828" lon="1.95547">
        <ele>231</ele>
        <time>2022-08-05T14:26:28Z</time>
      </trkpt>
      <trkpt lat="45.15819" lon="1.95548">
        <ele>230.7</ele>
        <time>2022-08-05T14:26:30Z</time>
      </trkpt>
      <trkpt lat="45.1581" lon="1.95549">
        <ele>230.4</ele>
        <time>2022-08-05T14:26:32Z</time>
      </trkpt>
      <trkpt lat="45.15801" lon="1.95551">
        <ele>230</ele>
        <time>2022-08-05T14:26:34Z</time>
      </trkpt>
      <trkpt lat="45.15792" lon="1.95553">
        <ele>229.7</ele>
        <time>2022-08-05T14:26:36Z</time>
      </trkpt>
      <trkpt lat="45.15783" lon="1.95555">
        <ele>229.4</ele>
        <time>2022-08-05T14:26:38Z</time>
      </trkpt>
      <trkpt lat="45.15774" lon="1.95557">
        <ele>229</ele>
        <time>2022-08-05T14:26:40Z</time>
      </trkpt>
      <trkpt lat="45.15765" lon="1.95559">
        <ele>228.8</ele>
        <time>2022-08-05T14:26:42Z</time>
      </trkpt>
      <trkpt lat="45.15756" lon="1.95561">
        <ele>228.6</ele>
        <time>2022-08-05T14:26:44Z</time>
      </trkpt>
      <trkpt lat="45.15747" lon="1.95562">
        <ele>228.6</ele>
        <time>2022-08-05T14:26:46Z</time>
      </trkpt>
      <trkpt lat="45.15739" lon="1.95564">
        <ele>228.7</ele>
        <time>2022-08-05T14:26:48Z</time>
      </trkpt>
      <trkpt lat="45.1573" lon="1.95566">
        <ele>228.9</ele>
        <time>2022-08-05T14:26:50Z</time>
      </trkpt>
      <trkpt lat="45.15722" lon="1.95568">
        <ele>229.2</ele>
        <time>2022-08-05T14:26:52Z</time>
      </trkpt>
      <trkpt lat="45.15714" lon="1.9557">
        <ele>229.5</ele>
        <time>2022-08-05T14:26:54Z</time>
      </trkpt>
      <trkpt lat="45.15705" lon="1.95571">
        <ele>229.8</ele>
        <time>2022-08-05T14:26:56Z</time>
      </trkpt>
      <trkpt lat="45.15696" lon="1.95572">
        <ele>230.2</ele>
        <time>2022-08-05T14:26:58Z</time>
      </trkpt>
      <trkpt lat="45.15689" lon="1.95573">
        <ele>230.5</ele>
        <time>2022-08-05T14:27:00Z</time>
      </trkpt>
      <trkpt lat="45.15681" lon="1.95573">
        <ele>230.9</ele>
        <time>2022-08-05T14:27:02Z</time>
      </trkpt>
      <trkpt lat="45.15674" lon="1.95574">
        <ele>231.2</ele>
        <time>2022-08-05T14:27:04Z</time>
      </trkpt>
      <trkpt lat="45.15667" lon="1.95574">
        <ele>231.5</ele>
        <time>2022-08-05T14:27:06Z</time>
      </trkpt>
      <trkpt lat="45.1566" lon="1.95574">
        <ele>232.3</ele>
        <time>2022-08-05T14:27:08Z</time>
      </trkpt>
      <trkpt lat="45.15651" lon="1.95575">
        <ele>233.3</ele>
        <time>2022-08-05T14:27:10Z</time>
      </trkpt>
      <trkpt lat="45.15642" lon="1.95575">
        <ele>234.3</ele>
        <time>2022-08-05T14:27:12Z</time>
      </trkpt>
      <trkpt lat="45.15634" lon="1.95576">
        <ele>235.3</ele>
        <time>2022-08-05T14:27:14Z</time>
      </trkpt>
      <trkpt lat="45.15627" lon="1.95576">
        <ele>236.1</ele>
        <time>2022-08-05T14:27:16Z</time>
      </trkpt>
      <trkpt lat="45.15619" lon="1.95577">
        <ele>237.1</ele>
        <time>2022-08-05T14:27:18Z</time>
      </trkpt>
      <trkpt lat="45.15611" lon="1.95576">
        <ele>237.9</ele>
        <time>2022-08-05T14:27:20Z</time>
      </trkpt>
      <trkpt lat="45.15606" lon="1.95576">
        <ele>238.5</ele>
        <time>2022-08-05T14:27:22Z</time>
      </trkpt>
      <trkpt lat="45.15599" lon="1.95573">
        <ele>239</ele>
        <time>2022-08-05T14:27:24Z</time>
      </trkpt>
      <trkpt lat="45.15591" lon="1.95572">
        <ele>239.6</ele>
        <time>2022-08-05T14:27:26Z</time>
      </trkpt>
      <trkpt lat="45.15583" lon="1.95571">
        <ele>240.4</ele>
        <time>2022-08-05T14:27:28Z</time>
      </trkpt>
      <trkpt lat="45.15576" lon="1.95571">
        <ele>242.7</ele>
        <time>2022-08-05T14:27:30Z</time>
      </trkpt>
      <trkpt lat="45.15568" lon="1.95569">
        <ele>244.9</ele>
        <time>2022-08-05T14:27:32Z</time>
      </trkpt>
      <trkpt lat="45.15562" lon="1.95565">
        <ele>246.6</ele>
        <time>2022-08-05T14:27:34Z</time>
      </trkpt>
      <trkpt lat="45.15556" lon="1.9556">
        <ele>247.6</ele>
        <time>2022-08-05T14:27:36Z</time>
      </trkpt>
      <trkpt lat="45.15549" lon="1.95557">
        <ele>249</ele>
        <time>2022-08-05T14:27:38Z</time>
      </trkpt>
      <trkpt lat="45.15544" lon="1.95552">
        <ele>249.7</ele>
        <time>2022-08-05T14:27:40Z</time>
      </trkpt>
      <trkpt lat="45.15539" lon="1.95546">
        <ele>249.7</ele>
        <time>2022-08-05T14:27:42Z</time>
      </trkpt>
      <trkpt lat="45.15534" lon="1.95539">
        <ele>249.9</ele>
        <time>2022-08-05T14:27:44Z</time>
      </trkpt>
      <trkpt lat="45.15529" lon="1.95532">
        <ele>249.9</ele>
        <time>2022-08-05T14:27:46Z</time>
      </trkpt>
      <trkpt lat="45.15526" lon="1.95525">
        <ele>249.1</ele>
        <time>2022-08-05T14:27:48Z</time>
      </trkpt>
      <trkpt lat="45.15522" lon="1.95516">
        <ele>248.1</ele>
        <time>2022-08-05T14:27:50Z</time>
      </trkpt>
      <trkpt lat="45.15517" lon="1.95509">
        <ele>247.5</ele>
        <time>2022-08-05T14:27:52Z</time>
      </trkpt>
      <trkpt lat="45.15513" lon="1.95501">
        <ele>246.5</ele>
        <time>2022-08-05T14:27:54Z</time>
      </trkpt>
      <trkpt lat="45.15509" lon="1.95495">
        <ele>246.2</ele>
        <time>2022-08-05T14:27:56Z</time>
      </trkpt>
      <trkpt lat="45.15504" lon="1.95487">
        <ele>245.8</ele>
        <time>2022-08-05T14:27:58Z</time>
      </trkpt>
      <trkpt lat="45.15498" lon="1.95479">
        <ele>245.2</ele>
        <time>2022-08-05T14:28:00Z</time>
      </trkpt>
      <trkpt lat="45.15493" lon="1.95469">
        <ele>244.3</ele>
        <time>2022-08-05T14:28:02Z</time>
      </trkpt>
      <trkpt lat="45.15486" lon="1.95459">
        <ele>243.2</ele>
        <time>2022-08-05T14:28:04Z</time>
      </trkpt>
      <trkpt lat="45.15479" lon="1.95447">
        <ele>241.8</ele>
        <time>2022-08-05T14:28:06Z</time>
      </trkpt>
      <trkpt lat="45.15471" lon="1.95436">
        <ele>240.5</ele>
        <time>2022-08-05T14:28:08Z</time>
      </trkpt>
      <trkpt lat="45.15464" lon="1.95423">
        <ele>238.8</ele>
        <time>2022-08-05T14:28:10Z</time>
      </trkpt>
      <trkpt lat="45.15456" lon="1.95411">
        <ele>237.6</ele>
        <time>2022-08-05T14:28:12Z</time>
      </trkpt>
      <trkpt lat="45.15448" lon="1.95398">
        <ele>236.6</ele>
        <time>2022-08-05T14:28:14Z</time>
      </trkpt>
      <trkpt lat="45.15439" lon="1.95385">
        <ele>235.3</ele>
        <time>2022-08-05T14:28:16Z</time>
      </trkpt>
      <trkpt lat="45.15431" lon="1.95373">
        <ele>233.8</ele>
        <time>2022-08-05T14:28:18Z</time>
      </trkpt>
      <trkpt lat="45.15422" lon="1.95363">
        <ele>232.5</ele>
        <time>2022-08-05T14:28:20Z</time>
      </trkpt>
      <trkpt lat="45.15411" lon="1.95359">
        <ele>231.9</ele>
        <time>2022-08-05T14:28:22Z</time>
      </trkpt>
      <trkpt lat="45.15401" lon="1.95357">
        <ele>231.5</ele>
        <time>2022-08-05T14:28:24Z</time>
      </trkpt>
      <trkpt lat="45.15392" lon="1.95355">
        <ele>231.1</ele>
        <time>2022-08-05T14:28:26Z</time>
      </trkpt>
      <trkpt lat="45.15383" lon="1.95354">
        <ele>230.8</ele>
        <time>2022-08-05T14:28:28Z</time>
      </trkpt>
      <trkpt lat="45.15375" lon="1.95352">
        <ele>230.6</ele>
        <time>2022-08-05T14:28:30Z</time>
      </trkpt>
      <trkpt lat="45.15367" lon="1.95349">
        <ele>230.2</ele>
        <time>2022-08-05T14:28:32Z</time>
      </trkpt>
      <trkpt lat="45.1536" lon="1.95347">
        <ele>229.9</ele>
        <time>2022-08-05T14:28:34Z</time>
      </trkpt>
      <trkpt lat="45.15353" lon="1.95345">
        <ele>229.8</ele>
        <time>2022-08-05T14:28:36Z</time>
      </trkpt>
      <trkpt lat="45.15347" lon="1.95342">
        <ele>229.5</ele>
        <time>2022-08-05T14:28:38Z</time>
      </trkpt>
      <trkpt lat="45.15341" lon="1.95339">
        <ele>229.4</ele>
        <time>2022-08-05T14:28:40Z</time>
      </trkpt>
      <trkpt lat="45.15335" lon="1.95337">
        <ele>229.3</ele>
        <time>2022-08-05T14:28:42Z</time>
      </trkpt>
      <trkpt lat="45.15329" lon="1.95335">
        <ele>229.2</ele>
        <time>2022-08-05T14:28:44Z</time>
      </trkpt>
      <trkpt lat="45.15323" lon="1.95333">
        <ele>229.1</ele>
        <time>2022-08-05T14:28:46Z</time>
      </trkpt>
      <trkpt lat="45.15317" lon="1.9533">
        <ele>229</ele>
        <time>2022-08-05T14:28:48Z</time>
      </trkpt>
      <trkpt lat="45.15312" lon="1.95327">
        <ele>228.8</ele>
        <time>2022-08-05T14:28:50Z</time>
      </trkpt>
      <trkpt lat="45.15306" lon="1.95326">
        <ele>228.8</ele>
        <time>2022-08-05T14:28:52Z</time>
      </trkpt>
      <trkpt lat="45.153" lon="1.95323">
        <ele>228.7</ele>
        <time>2022-08-05T14:28:54Z</time>
      </trkpt>
      <trkpt lat="45.15293" lon="1.95322">
        <ele>228.7</ele>
        <time>2022-08-05T14:28:56Z</time>
      </trkpt>
      <trkpt lat="45.15287" lon="1.95322">
        <ele>228.7</ele>
        <time>2022-08-05T14:28:58Z</time>
      </trkpt>
      <trkpt lat="45.15281" lon="1.95322">
        <ele>228.8</ele>
        <time>2022-08-05T14:29:00Z</time>
      </trkpt>
      <trkpt lat="45.15276" lon="1.95322">
        <ele>228.9</ele>
        <time>2022-08-05T14:29:02Z</time>
      </trkpt>
      <trkpt lat="45.1527" lon="1.95321">
        <ele>228.9</ele>
        <time>2022-08-05T14:29:04Z</time>
      </trkpt>
      <trkpt lat="45.15264" lon="1.95321">
        <ele>229</ele>
        <time>2022-08-05T14:29:06Z</time>
      </trkpt>
      <trkpt lat="45.15258" lon="1.95322">
        <ele>229.1</ele>
        <time>2022-08-05T14:29:08Z</time>
      </trkpt>
      <trkpt lat="45.15252" lon="1.95323">
        <ele>229.2</ele>
        <time>2022-08-05T14:29:10Z</time>
      </trkpt>
      <trkpt lat="45.15246" lon="1.95324">
        <ele>229.5</ele>
        <time>2022-08-05T14:29:12Z</time>
      </trkpt>
      <trkpt lat="45.1524" lon="1.95324">
        <ele>229.8</ele>
        <time>2022-08-05T14:29:14Z</time>
      </trkpt>
      <trkpt lat="45.15234" lon="1.95325">
        <ele>230.1</ele>
        <time>2022-08-05T14:29:16Z</time>
      </trkpt>
      <trkpt lat="45.15229" lon="1.95325">
        <ele>230.4</ele>
        <time>2022-08-05T14:29:18Z</time>
      </trkpt>
      <trkpt lat="45.15222" lon="1.95325">
        <ele>230.7</ele>
        <time>2022-08-05T14:29:20Z</time>
      </trkpt>
      <trkpt lat="45.15217" lon="1.95326">
        <ele>231</ele>
        <time>2022-08-05T14:29:22Z</time>
      </trkpt>
      <trkpt lat="45.15211" lon="1.95326">
        <ele>231.3</ele>
        <time>2022-08-05T14:29:24Z</time>
      </trkpt>
      <trkpt lat="45.15205" lon="1.95326">
        <ele>231.6</ele>
        <time>2022-08-05T14:29:26Z</time>
      </trkpt>
      <trkpt lat="45.152" lon="1.95328">
        <ele>231.9</ele>
        <time>2022-08-05T14:29:28Z</time>
      </trkpt>
      <trkpt lat="45.15194" lon="1.95328">
        <ele>232.2</ele>
        <time>2022-08-05T14:29:30Z</time>
      </trkpt>
      <trkpt lat="45.15188" lon="1.95329">
        <ele>232.6</ele>
        <time>2022-08-05T14:29:32Z</time>
      </trkpt>
      <trkpt lat="45.15183" lon="1.95329">
        <ele>232.8</ele>
        <time>2022-08-05T14:29:34Z</time>
      </trkpt>
      <trkpt lat="45.15177" lon="1.95328">
        <ele>233</ele>
        <time>2022-08-05T14:29:36Z</time>
      </trkpt>
      <trkpt lat="45.15172" lon="1.95322">
        <ele>232.8</ele>
        <time>2022-08-05T14:29:38Z</time>
      </trkpt>
      <trkpt lat="45.15168" lon="1.95314">
        <ele>232.3</ele>
        <time>2022-08-05T14:29:40Z</time>
      </trkpt>
      <trkpt lat="45.15164" lon="1.95306">
        <ele>231.6</ele>
        <time>2022-08-05T14:29:42Z</time>
      </trkpt>
      <trkpt lat="45.15157" lon="1.953">
        <ele>230.9</ele>
        <time>2022-08-05T14:29:44Z</time>
      </trkpt>
      <trkpt lat="45.15148" lon="1.95299">
        <ele>230.6</ele>
        <time>2022-08-05T14:29:46Z</time>
      </trkpt>
      <trkpt lat="45.15139" lon="1.95299">
        <ele>230.4</ele>
        <time>2022-08-05T14:29:48Z</time>
      </trkpt>
      <trkpt lat="45.15128" lon="1.95299">
        <ele>230.1</ele>
        <time>2022-08-05T14:29:50Z</time>
      </trkpt>
      <trkpt lat="45.15116" lon="1.953">
        <ele>229.9</ele>
        <time>2022-08-05T14:29:52Z</time>
      </trkpt>
      <trkpt lat="45.15104" lon="1.95301">
        <ele>229.6</ele>
        <time>2022-08-05T14:29:54Z</time>
      </trkpt>
      <trkpt lat="45.15092" lon="1.95302">
        <ele>229.4</ele>
        <time>2022-08-05T14:29:56Z</time>
      </trkpt>
      <trkpt lat="45.1508" lon="1.95304">
        <ele>229.2</ele>
        <time>2022-08-05T14:29:58Z</time>
      </trkpt>
      <trkpt lat="45.1507" lon="1.95307">
        <ele>229.2</ele>
        <time>2022-08-05T14:30:00Z</time>
      </trkpt>
      <trkpt lat="45.1506" lon="1.95312">
        <ele>229.4</ele>
        <time>2022-08-05T14:30:02Z</time>
      </trkpt>
      <trkpt lat="45.15052" lon="1.95317">
        <ele>229.6</ele>
        <time>2022-08-05T14:30:04Z</time>
      </trkpt>
      <trkpt lat="45.15042" lon="1.95323">
        <ele>229.8</ele>
        <time>2022-08-05T14:30:06Z</time>
      </trkpt>
      <trkpt lat="45.15033" lon="1.95328">
        <ele>230</ele>
        <time>2022-08-05T14:30:08Z</time>
      </trkpt>
      <trkpt lat="45.15025" lon="1.95334">
        <ele>230.3</ele>
        <time>2022-08-05T14:30:10Z</time>
      </trkpt>
      <trkpt lat="45.15016" lon="1.95338">
        <ele>230.6</ele>
        <time>2022-08-05T14:30:12Z</time>
      </trkpt>
      <trkpt lat="45.15006" lon="1.95339">
        <ele>230.6</ele>
        <time>2022-08-05T14:30:14Z</time>
      </trkpt>
      <trkpt lat="45.14994" lon="1.9534">
        <ele>230.5</ele>
        <time>2022-08-05T14:30:16Z</time>
      </trkpt>
      <trkpt lat="45.14983" lon="1.95337">
        <ele>230.3</ele>
        <time>2022-08-05T14:30:18Z</time>
      </trkpt>
      <trkpt lat="45.14973" lon="1.95334">
        <ele>230.1</ele>
        <time>2022-08-05T14:30:20Z</time>
      </trkpt>
      <trkpt lat="45.14963" lon="1.95332">
        <ele>229.9</ele>
        <time>2022-08-05T14:30:22Z</time>
      </trkpt>
      <trkpt lat="45.14954" lon="1.95332">
        <ele>230</ele>
        <time>2022-08-05T14:30:24Z</time>
      </trkpt>
      <trkpt lat="45.14945" lon="1.95333">
        <ele>230</ele>
        <time>2022-08-05T14:30:26Z</time>
      </trkpt>
      <trkpt lat="45.14936" lon="1.95336">
        <ele>230.2</ele>
        <time>2022-08-05T14:30:28Z</time>
      </trkpt>
      <trkpt lat="45.14928" lon="1.95338">
        <ele>230.4</ele>
        <time>2022-08-05T14:30:30Z</time>
      </trkpt>
      <trkpt lat="45.14921" lon="1.95341">
        <ele>230.5</ele>
        <time>2022-08-05T14:30:32Z</time>
      </trkpt>
      <trkpt lat="45.14914" lon="1.95343">
        <ele>230.6</ele>
        <time>2022-08-05T14:30:34Z</time>
      </trkpt>
      <trkpt lat="45.14907" lon="1.95346">
        <ele>230.5</ele>
        <time>2022-08-05T14:30:36Z</time>
      </trkpt>
      <trkpt lat="45.14901" lon="1.95349">
        <ele>230.5</ele>
        <time>2022-08-05T14:30:38Z</time>
      </trkpt>
      <trkpt lat="45.14895" lon="1.95352">
        <ele>230.4</ele>
        <time>2022-08-05T14:30:40Z</time>
      </trkpt>
      <trkpt lat="45.14889" lon="1.95356">
        <ele>230.5</ele>
        <time>2022-08-05T14:30:42Z</time>
      </trkpt>
      <trkpt lat="45.14882" lon="1.9536">
        <ele>230.5</ele>
        <time>2022-08-05T14:30:44Z</time>
      </trkpt>
      <trkpt lat="45.14874" lon="1.95364">
        <ele>230.5</ele>
        <time>2022-08-05T14:30:46Z</time>
      </trkpt>
      <trkpt lat="45.14866" lon="1.95369">
        <ele>230.7</ele>
        <time>2022-08-05T14:30:48Z</time>
      </trkpt>
      <trkpt lat="45.14857" lon="1.95374">
        <ele>230.8</ele>
        <time>2022-08-05T14:30:50Z</time>
      </trkpt>
      <trkpt lat="45.14845" lon="1.95382">
        <ele>231.1</ele>
        <time>2022-08-05T14:30:52Z</time>
      </trkpt>
      <trkpt lat="45.14833" lon="1.95387">
        <ele>231.1</ele>
        <time>2022-08-05T14:30:54Z</time>
      </trkpt>
      <trkpt lat="45.14821" lon="1.95392">
        <ele>231</ele>
        <time>2022-08-05T14:30:56Z</time>
      </trkpt>
      <trkpt lat="45.14806" lon="1.95399">
        <ele>230.8</ele>
        <time>2022-08-05T14:30:58Z</time>
      </trkpt>
      <trkpt lat="45.14792" lon="1.95403">
        <ele>230.5</ele>
        <time>2022-08-05T14:31:00Z</time>
      </trkpt>
      <trkpt lat="45.14776" lon="1.954">
        <ele>229.4</ele>
        <time>2022-08-05T14:31:02Z</time>
      </trkpt>
      <trkpt lat="45.1476" lon="1.954">
        <ele>228.5</ele>
        <time>2022-08-05T14:31:04Z</time>
      </trkpt>
      <trkpt lat="45.14742" lon="1.95403">
        <ele>227.5</ele>
        <time>2022-08-05T14:31:06Z</time>
      </trkpt>
      <trkpt lat="45.14724" lon="1.9541">
        <ele>226.3</ele>
        <time>2022-08-05T14:31:08Z</time>
      </trkpt>
      <trkpt lat="45.14707" lon="1.9542">
        <ele>225.6</ele>
        <time>2022-08-05T14:31:10Z</time>
      </trkpt>
      <trkpt lat="45.14687" lon="1.95425">
        <ele>224.1</ele>
        <time>2022-08-05T14:31:12Z</time>
      </trkpt>
      <trkpt lat="45.14666" lon="1.95431">
        <ele>222.6</ele>
        <time>2022-08-05T14:31:14Z</time>
      </trkpt>
      <trkpt lat="45.14644" lon="1.95427">
        <ele>220.3</ele>
        <time>2022-08-05T14:31:16Z</time>
      </trkpt>
      <trkpt lat="45.14622" lon="1.95425">
        <ele>218.5</ele>
        <time>2022-08-05T14:31:18Z</time>
      </trkpt>
      <trkpt lat="45.14602" lon="1.95423">
        <ele>217</ele>
        <time>2022-08-05T14:31:20Z</time>
      </trkpt>
      <trkpt lat="45.14583" lon="1.95423">
        <ele>215.7</ele>
        <time>2022-08-05T14:31:22Z</time>
      </trkpt>
      <trkpt lat="45.14565" lon="1.95425">
        <ele>216.1</ele>
        <time>2022-08-05T14:31:24Z</time>
      </trkpt>
      <trkpt lat="45.14549" lon="1.95428">
        <ele>216.4</ele>
        <time>2022-08-05T14:31:26Z</time>
      </trkpt>
      <trkpt lat="45.14534" lon="1.9543">
        <ele>216.8</ele>
        <time>2022-08-05T14:31:28Z</time>
      </trkpt>
      <trkpt lat="45.1452" lon="1.95433">
        <ele>217.1</ele>
        <time>2022-08-05T14:31:30Z</time>
      </trkpt>
      <trkpt lat="45.14507" lon="1.95435">
        <ele>217.3</ele>
        <time>2022-08-05T14:31:32Z</time>
      </trkpt>
      <trkpt lat="45.14495" lon="1.95437">
        <ele>217.4</ele>
        <time>2022-08-05T14:31:34Z</time>
      </trkpt>
      <trkpt lat="45.14484" lon="1.9544">
        <ele>217.6</ele>
        <time>2022-08-05T14:31:36Z</time>
      </trkpt>
      <trkpt lat="45.14474" lon="1.95443">
        <ele>217.7</ele>
        <time>2022-08-05T14:31:38Z</time>
      </trkpt>
      <trkpt lat="45.14465" lon="1.95448">
        <ele>217.9</ele>
        <time>2022-08-05T14:31:40Z</time>
      </trkpt>
      <trkpt lat="45.14457" lon="1.95453">
        <ele>218.1</ele>
        <time>2022-08-05T14:31:42Z</time>
      </trkpt>
      <trkpt lat="45.1445" lon="1.95458">
        <ele>218.4</ele>
        <time>2022-08-05T14:31:44Z</time>
      </trkpt>
      <trkpt lat="45.14442" lon="1.95462">
        <ele>218.5</ele>
        <time>2022-08-05T14:31:46Z</time>
      </trkpt>
      <trkpt lat="45.14434" lon="1.95466">
        <ele>218.6</ele>
        <time>2022-08-05T14:31:48Z</time>
      </trkpt>
      <trkpt lat="45.14426" lon="1.95471">
        <ele>218.8</ele>
        <time>2022-08-05T14:31:50Z</time>
      </trkpt>
      <trkpt lat="45.14417" lon="1.95476">
        <ele>218.9</ele>
        <time>2022-08-05T14:31:52Z</time>
      </trkpt>
      <trkpt lat="45.14408" lon="1.95482">
        <ele>219.1</ele>
        <time>2022-08-05T14:31:54Z</time>
      </trkpt>
      <trkpt lat="45.14398" lon="1.9549">
        <ele>219.5</ele>
        <time>2022-08-05T14:31:56Z</time>
      </trkpt>
      <trkpt lat="45.14389" lon="1.95499">
        <ele>220</ele>
        <time>2022-08-05T14:31:58Z</time>
      </trkpt>
      <trkpt lat="45.1438" lon="1.95509">
        <ele>221.7</ele>
        <time>2022-08-05T14:32:00Z</time>
      </trkpt>
      <trkpt lat="45.1437" lon="1.95518">
        <ele>223.6</ele>
        <time>2022-08-05T14:32:02Z</time>
      </trkpt>
      <trkpt lat="45.14358" lon="1.95523">
        <ele>224.5</ele>
        <time>2022-08-05T14:32:04Z</time>
      </trkpt>
      <trkpt lat="45.14346" lon="1.95525">
        <ele>225</ele>
        <time>2022-08-05T14:32:06Z</time>
      </trkpt>
      <trkpt lat="45.14334" lon="1.95525">
        <ele>225.1</ele>
        <time>2022-08-05T14:32:08Z</time>
      </trkpt>
      <trkpt lat="45.14323" lon="1.95526">
        <ele>226.5</ele>
        <time>2022-08-05T14:32:10Z</time>
      </trkpt>
      <trkpt lat="45.14313" lon="1.95526">
        <ele>227.6</ele>
        <time>2022-08-05T14:32:12Z</time>
      </trkpt>
      <trkpt lat="45.14302" lon="1.95525">
        <ele>228.8</ele>
        <time>2022-08-05T14:32:14Z</time>
      </trkpt>
      <trkpt lat="45.14294" lon="1.95526">
        <ele>229.9</ele>
        <time>2022-08-05T14:32:16Z</time>
      </trkpt>
      <trkpt lat="45.14287" lon="1.95525">
        <ele>230.4</ele>
        <time>2022-08-05T14:32:18Z</time>
      </trkpt>
      <trkpt lat="45.14279" lon="1.95524">
        <ele>231.1</ele>
        <time>2022-08-05T14:32:20Z</time>
      </trkpt>
      <trkpt lat="45.14273" lon="1.95528">
        <ele>232.7</ele>
        <time>2022-08-05T14:32:22Z</time>
      </trkpt>
      <trkpt lat="45.14266" lon="1.95525">
        <ele>232.8</ele>
        <time>2022-08-05T14:32:24Z</time>
      </trkpt>
      <trkpt lat="45.14258" lon="1.95524">
        <ele>233.6</ele>
        <time>2022-08-05T14:32:26Z</time>
      </trkpt>
      <trkpt lat="45.1425" lon="1.95523">
        <ele>234.4</ele>
        <time>2022-08-05T14:32:28Z</time>
      </trkpt>
      <trkpt lat="45.14243" lon="1.95521">
        <ele>235</ele>
        <time>2022-08-05T14:32:30Z</time>
      </trkpt>
      <trkpt lat="45.14237" lon="1.95519">
        <ele>235.6</ele>
        <time>2022-08-05T14:32:32Z</time>
      </trkpt>
      <trkpt lat="45.14231" lon="1.95516">
        <ele>236.2</ele>
        <time>2022-08-05T14:32:34Z</time>
      </trkpt>
      <trkpt lat="45.14225" lon="1.95515">
        <ele>236.9</ele>
        <time>2022-08-05T14:32:36Z</time>
      </trkpt>
      <trkpt lat="45.14219" lon="1.95514">
        <ele>237.8</ele>
        <time>2022-08-05T14:32:38Z</time>
      </trkpt>
      <trkpt lat="45.14214" lon="1.95512">
        <ele>238.1</ele>
        <time>2022-08-05T14:32:40Z</time>
      </trkpt>
      <trkpt lat="45.14209" lon="1.95507">
        <ele>237.8</ele>
        <time>2022-08-05T14:32:42Z</time>
      </trkpt>
      <trkpt lat="45.14204" lon="1.95506">
        <ele>238.2</ele>
        <time>2022-08-05T14:32:44Z</time>
      </trkpt>
      <trkpt lat="45.14198" lon="1.95501">
        <ele>237.9</ele>
        <time>2022-08-05T14:32:46Z</time>
      </trkpt>
      <trkpt lat="45.14193" lon="1.95493">
        <ele>236.9</ele>
        <time>2022-08-05T14:32:48Z</time>
      </trkpt>
      <trkpt lat="45.14187" lon="1.95484">
        <ele>235.4</ele>
        <time>2022-08-05T14:32:50Z</time>
      </trkpt>
      <trkpt lat="45.1418" lon="1.95474">
        <ele>233.8</ele>
        <time>2022-08-05T14:32:52Z</time>
      </trkpt>
      <trkpt lat="45.14174" lon="1.95463">
        <ele>231.4</ele>
        <time>2022-08-05T14:32:54Z</time>
      </trkpt>
      <trkpt lat="45.14165" lon="1.95454">
        <ele>230</ele>
        <time>2022-08-05T14:32:56Z</time>
      </trkpt>
      <trkpt lat="45.14155" lon="1.95446">
        <ele>229.8</ele>
        <time>2022-08-05T14:32:58Z</time>
      </trkpt>
      <trkpt lat="45.14144" lon="1.95439">
        <ele>230.1</ele>
        <time>2022-08-05T14:33:00Z</time>
      </trkpt>
      <trkpt lat="45.14134" lon="1.95429">
        <ele>229.6</ele>
        <time>2022-08-05T14:33:02Z</time>
      </trkpt>
      <trkpt lat="45.14124" lon="1.9542">
        <ele>229.1</ele>
        <time>2022-08-05T14:33:04Z</time>
      </trkpt>
      <trkpt lat="45.14115" lon="1.95408">
        <ele>228.9</ele>
        <time>2022-08-05T14:33:06Z</time>
      </trkpt>
      <trkpt lat="45.14105" lon="1.95397">
        <ele>229.4</ele>
        <time>2022-08-05T14:33:08Z</time>
      </trkpt>
      <trkpt lat="45.14093" lon="1.95388">
        <ele>230.1</ele>
        <time>2022-08-05T14:33:10Z</time>
      </trkpt>
      <trkpt lat="45.14084" lon="1.95379">
        <ele>230.1</ele>
        <time>2022-08-05T14:33:12Z</time>
      </trkpt>
      <trkpt lat="45.14072" lon="1.95373">
        <ele>229.7</ele>
        <time>2022-08-05T14:33:14Z</time>
      </trkpt>
      <trkpt lat="45.14062" lon="1.95368">
        <ele>229.1</ele>
        <time>2022-08-05T14:33:16Z</time>
      </trkpt>
      <trkpt lat="45.14051" lon="1.95363">
        <ele>228.7</ele>
        <time>2022-08-05T14:33:18Z</time>
      </trkpt>
      <trkpt lat="45.1404" lon="1.95358">
        <ele>228.2</ele>
        <time>2022-08-05T14:33:20Z</time>
      </trkpt>
      <trkpt lat="45.14028" lon="1.95352">
        <ele>227.3</ele>
        <time>2022-08-05T14:33:22Z</time>
      </trkpt>
      <trkpt lat="45.14017" lon="1.95349">
        <ele>226.9</ele>
        <time>2022-08-05T14:33:24Z</time>
      </trkpt>
      <trkpt lat="45.14006" lon="1.95345">
        <ele>226.4</ele>
        <time>2022-08-05T14:33:26Z</time>
      </trkpt>
      <trkpt lat="45.13996" lon="1.9534">
        <ele>226.2</ele>
        <time>2022-08-05T14:33:28Z</time>
      </trkpt>
      <trkpt lat="45.13985" lon="1.95337">
        <ele>227</ele>
        <time>2022-08-05T14:33:30Z</time>
      </trkpt>
      <trkpt lat="45.13973" lon="1.95332">
        <ele>227.4</ele>
        <time>2022-08-05T14:33:32Z</time>
      </trkpt>
      <trkpt lat="45.13964" lon="1.95328">
        <ele>228</ele>
        <time>2022-08-05T14:33:34Z</time>
      </trkpt>
      <trkpt lat="45.13954" lon="1.95325">
        <ele>228.6</ele>
        <time>2022-08-05T14:33:36Z</time>
      </trkpt>
      <trkpt lat="45.13945" lon="1.95321">
        <ele>229.2</ele>
        <time>2022-08-05T14:33:38Z</time>
      </trkpt>
      <trkpt lat="45.13934" lon="1.95317">
        <ele>229.5</ele>
        <time>2022-08-05T14:33:40Z</time>
      </trkpt>
      <trkpt lat="45.13924" lon="1.95313">
        <ele>229.5</ele>
        <time>2022-08-05T14:33:42Z</time>
      </trkpt>
      <trkpt lat="45.13914" lon="1.95308">
        <ele>229.4</ele>
        <time>2022-08-05T14:33:44Z</time>
      </trkpt>
      <trkpt lat="45.13903" lon="1.95306">
        <ele>231.3</ele>
        <time>2022-08-05T14:33:46Z</time>
      </trkpt>
      <trkpt lat="45.13895" lon="1.95301">
        <ele>231.8</ele>
        <time>2022-08-05T14:33:48Z</time>
      </trkpt>
      <trkpt lat="45.13885" lon="1.95298">
        <ele>233</ele>
        <time>2022-08-05T14:33:50Z</time>
      </trkpt>
      <trkpt lat="45.13876" lon="1.95293">
        <ele>233.6</ele>
        <time>2022-08-05T14:33:52Z</time>
      </trkpt>
      <trkpt lat="45.13867" lon="1.95287">
        <ele>233.8</ele>
        <time>2022-08-05T14:33:54Z</time>
      </trkpt>
      <trkpt lat="45.13859" lon="1.9528">
        <ele>233.6</ele>
        <time>2022-08-05T14:33:56Z</time>
      </trkpt>
      <trkpt lat="45.13849" lon="1.95271">
        <ele>232.9</ele>
        <time>2022-08-05T14:33:58Z</time>
      </trkpt>
      <trkpt lat="45.13841" lon="1.95262">
        <ele>232</ele>
        <time>2022-08-05T14:34:00Z</time>
      </trkpt>
      <trkpt lat="45.13834" lon="1.95253">
        <ele>230.9</ele>
        <time>2022-08-05T14:34:02Z</time>
      </trkpt>
      <trkpt lat="45.13827" lon="1.95245">
        <ele>232.6</ele>
        <time>2022-08-05T14:34:04Z</time>
      </trkpt>
      <trkpt lat="45.13818" lon="1.95236">
        <ele>235.2</ele>
        <time>2022-08-05T14:34:06Z</time>
      </trkpt>
      <trkpt lat="45.13813" lon="1.95225">
        <ele>236</ele>
        <time>2022-08-05T14:34:08Z</time>
      </trkpt>
      <trkpt lat="45.13808" lon="1.95215">
        <ele>236.4</ele>
        <time>2022-08-05T14:34:10Z</time>
      </trkpt>
      <trkpt lat="45.13801" lon="1.95203">
        <ele>237.3</ele>
        <time>2022-08-05T14:34:12Z</time>
      </trkpt>
      <trkpt lat="45.13796" lon="1.95193">
        <ele>237.5</ele>
        <time>2022-08-05T14:34:14Z</time>
      </trkpt>
      <trkpt lat="45.13791" lon="1.95182">
        <ele>237.5</ele>
        <time>2022-08-05T14:34:16Z</time>
      </trkpt>
      <trkpt lat="45.13788" lon="1.95172">
        <ele>236.5</ele>
        <time>2022-08-05T14:34:18Z</time>
      </trkpt>
      <trkpt lat="45.13785" lon="1.95159">
        <ele>235.6</ele>
        <time>2022-08-05T14:34:20Z</time>
      </trkpt>
      <trkpt lat="45.13781" lon="1.95148">
        <ele>235.1</ele>
        <time>2022-08-05T14:34:22Z</time>
      </trkpt>
      <trkpt lat="45.13777" lon="1.95139">
        <ele>234.7</ele>
        <time>2022-08-05T14:34:24Z</time>
      </trkpt>
      <trkpt lat="45.13775" lon="1.95129">
        <ele>233.8</ele>
        <time>2022-08-05T14:34:26Z</time>
      </trkpt>
      <trkpt lat="45.1377" lon="1.95118">
        <ele>232.9</ele>
        <time>2022-08-05T14:34:28Z</time>
      </trkpt>
      <trkpt lat="45.13765" lon="1.95108">
        <ele>232.1</ele>
        <time>2022-08-05T14:34:30Z</time>
      </trkpt>
      <trkpt lat="45.1376" lon="1.95097">
        <ele>230.6</ele>
        <time>2022-08-05T14:34:32Z</time>
      </trkpt>
      <trkpt lat="45.13754" lon="1.95087">
        <ele>229.2</ele>
        <time>2022-08-05T14:34:34Z</time>
      </trkpt>
      <trkpt lat="45.13749" lon="1.95076">
        <ele>228.5</ele>
        <time>2022-08-05T14:34:36Z</time>
      </trkpt>
      <trkpt lat="45.13743" lon="1.95064">
        <ele>229.4</ele>
        <time>2022-08-05T14:34:38Z</time>
      </trkpt>
      <trkpt lat="45.13737" lon="1.95053">
        <ele>230.3</ele>
        <time>2022-08-05T14:34:40Z</time>
      </trkpt>
      <trkpt lat="45.13731" lon="1.9504">
        <ele>231</ele>
        <time>2022-08-05T14:34:42Z</time>
      </trkpt>
      <trkpt lat="45.13725" lon="1.95028">
        <ele>231.6</ele>
        <time>2022-08-05T14:34:44Z</time>
      </trkpt>
      <trkpt lat="45.13719" lon="1.95016">
        <ele>231.7</ele>
        <time>2022-08-05T14:34:46Z</time>
      </trkpt>
      <trkpt lat="45.13712" lon="1.95004">
        <ele>232.8</ele>
        <time>2022-08-05T14:34:48Z</time>
      </trkpt>
      <trkpt lat="45.13706" lon="1.94992">
        <ele>233.2</ele>
        <time>2022-08-05T14:34:50Z</time>
      </trkpt>
      <trkpt lat="45.137" lon="1.94981">
        <ele>233.8</ele>
        <time>2022-08-05T14:34:52Z</time>
      </trkpt>
      <trkpt lat="45.13694" lon="1.9497">
        <ele>233.9</ele>
        <time>2022-08-05T14:34:54Z</time>
      </trkpt>
      <trkpt lat="45.13689" lon="1.94957">
        <ele>233.2</ele>
        <time>2022-08-05T14:34:56Z</time>
      </trkpt>
      <trkpt lat="45.13684" lon="1.94945">
        <ele>231.8</ele>
        <time>2022-08-05T14:34:58Z</time>
      </trkpt>
      <trkpt lat="45.13679" lon="1.94933">
        <ele>230.6</ele>
        <time>2022-08-05T14:35:00Z</time>
      </trkpt>
      <trkpt lat="45.13675" lon="1.94922">
        <ele>228.9</ele>
        <time>2022-08-05T14:35:02Z</time>
      </trkpt>
      <trkpt lat="45.1367" lon="1.94912">
        <ele>227.6</ele>
        <time>2022-08-05T14:35:04Z</time>
      </trkpt>
      <trkpt lat="45.13666" lon="1.94901">
        <ele>226.6</ele>
        <time>2022-08-05T14:35:06Z</time>
      </trkpt>
      <trkpt lat="45.1366" lon="1.94892">
        <ele>226.2</ele>
        <time>2022-08-05T14:35:08Z</time>
      </trkpt>
      <trkpt lat="45.13653" lon="1.94885">
        <ele>225.8</ele>
        <time>2022-08-05T14:35:10Z</time>
      </trkpt>
      <trkpt lat="45.13648" lon="1.94877">
        <ele>225</ele>
        <time>2022-08-05T14:35:12Z</time>
      </trkpt>
      <trkpt lat="45.13642" lon="1.94869">
        <ele>224.3</ele>
        <time>2022-08-05T14:35:14Z</time>
      </trkpt>
      <trkpt lat="45.13635" lon="1.94861">
        <ele>223.5</ele>
        <time>2022-08-05T14:35:16Z</time>
      </trkpt>
      <trkpt lat="45.13629" lon="1.94855">
        <ele>222.7</ele>
        <time>2022-08-05T14:35:18Z</time>
      </trkpt>
      <trkpt lat="45.13621" lon="1.9485">
        <ele>222.3</ele>
        <time>2022-08-05T14:35:20Z</time>
      </trkpt>
      <trkpt lat="45.13613" lon="1.94846">
        <ele>222.2</ele>
        <time>2022-08-05T14:35:22Z</time>
      </trkpt>
      <trkpt lat="45.13605" lon="1.94843">
        <ele>222.1</ele>
        <time>2022-08-05T14:35:24Z</time>
      </trkpt>
      <trkpt lat="45.13599" lon="1.9484">
        <ele>221.9</ele>
        <time>2022-08-05T14:35:26Z</time>
      </trkpt>
      <trkpt lat="45.13593" lon="1.9484">
        <ele>222.4</ele>
        <time>2022-08-05T14:35:28Z</time>
      </trkpt>
      <trkpt lat="45.13587" lon="1.9484">
        <ele>222.9</ele>
        <time>2022-08-05T14:35:30Z</time>
      </trkpt>
      <trkpt lat="45.13579" lon="1.94841">
        <ele>223</ele>
        <time>2022-08-05T14:35:32Z</time>
      </trkpt>
      <trkpt lat="45.13572" lon="1.94842">
        <ele>222.7</ele>
        <time>2022-08-05T14:35:34Z</time>
      </trkpt>
      <trkpt lat="45.13564" lon="1.94844">
        <ele>222.5</ele>
        <time>2022-08-05T14:35:36Z</time>
      </trkpt>
      <trkpt lat="45.13556" lon="1.94848">
        <ele>222.8</ele>
        <time>2022-08-05T14:35:38Z</time>
      </trkpt>
      <trkpt lat="45.13548" lon="1.94853">
        <ele>223.1</ele>
        <time>2022-08-05T14:35:40Z</time>
      </trkpt>
      <trkpt lat="45.1354" lon="1.94867">
        <ele>226</ele>
        <time>2022-08-05T14:35:42Z</time>
      </trkpt>
      <trkpt lat="45.13531" lon="1.94866">
        <ele>224.4</ele>
        <time>2022-08-05T14:35:44Z</time>
      </trkpt>
      <trkpt lat="45.1352" lon="1.94869">
        <ele>224</ele>
        <time>2022-08-05T14:35:46Z</time>
      </trkpt>
      <trkpt lat="45.13509" lon="1.94872">
        <ele>223.3</ele>
        <time>2022-08-05T14:35:48Z</time>
      </trkpt>
      <trkpt lat="45.135" lon="1.94878">
        <ele>223</ele>
        <time>2022-08-05T14:35:50Z</time>
      </trkpt>
      <trkpt lat="45.13489" lon="1.9488">
        <ele>221.8</ele>
        <time>2022-08-05T14:35:52Z</time>
      </trkpt>
      <trkpt lat="45.13477" lon="1.94885">
        <ele>220.9</ele>
        <time>2022-08-05T14:35:54Z</time>
      </trkpt>
      <trkpt lat="45.13466" lon="1.94891">
        <ele>219.9</ele>
        <time>2022-08-05T14:35:56Z</time>
      </trkpt>
      <trkpt lat="45.13457" lon="1.94899">
        <ele>219.3</ele>
        <time>2022-08-05T14:35:58Z</time>
      </trkpt>
      <trkpt lat="45.13447" lon="1.94911">
        <ele>218.9</ele>
        <time>2022-08-05T14:36:00Z</time>
      </trkpt>
      <trkpt lat="45.13439" lon="1.94925">
        <ele>218.8</ele>
        <time>2022-08-05T14:36:02Z</time>
      </trkpt>
      <trkpt lat="45.13432" lon="1.94938">
        <ele>218.5</ele>
        <time>2022-08-05T14:36:04Z</time>
      </trkpt>
      <trkpt lat="45.13425" lon="1.94953">
        <ele>217.8</ele>
        <time>2022-08-05T14:36:06Z</time>
      </trkpt>
      <trkpt lat="45.13419" lon="1.94969">
        <ele>216.9</ele>
        <time>2022-08-05T14:36:08Z</time>
      </trkpt>
      <trkpt lat="45.13414" lon="1.94986">
        <ele>217</ele>
        <time>2022-08-05T14:36:10Z</time>
      </trkpt>
      <trkpt lat="45.13409" lon="1.95005">
        <ele>218</ele>
        <time>2022-08-05T14:36:12Z</time>
      </trkpt>
      <trkpt lat="45.13403" lon="1.95025">
        <ele>220</ele>
        <time>2022-08-05T14:36:14Z</time>
      </trkpt>
      <trkpt lat="45.13396" lon="1.95046">
        <ele>221.4</ele>
        <time>2022-08-05T14:36:16Z</time>
      </trkpt>
      <trkpt lat="45.13388" lon="1.95067">
        <ele>222</ele>
        <time>2022-08-05T14:36:18Z</time>
      </trkpt>
      <trkpt lat="45.13375" lon="1.95084">
        <ele>220.2</ele>
        <time>2022-08-05T14:36:20Z</time>
      </trkpt>
      <trkpt lat="45.13359" lon="1.95089">
        <ele>216.4</ele>
        <time>2022-08-05T14:36:22Z</time>
      </trkpt>
      <trkpt lat="45.13344" lon="1.95092">
        <ele>212.6</ele>
        <time>2022-08-05T14:36:24Z</time>
      </trkpt>
      <trkpt lat="45.1333" lon="1.95095">
        <ele>210</ele>
        <time>2022-08-05T14:36:26Z</time>
      </trkpt>
      <trkpt lat="45.13319" lon="1.95099">
        <ele>210.6</ele>
        <time>2022-08-05T14:36:28Z</time>
      </trkpt>
      <trkpt lat="45.13309" lon="1.95101">
        <ele>211.1</ele>
        <time>2022-08-05T14:36:30Z</time>
      </trkpt>
      <trkpt lat="45.13298" lon="1.95104">
        <ele>211.5</ele>
        <time>2022-08-05T14:36:32Z</time>
      </trkpt>
      <trkpt lat="45.13288" lon="1.95108">
        <ele>211.7</ele>
        <time>2022-08-05T14:36:34Z</time>
      </trkpt>
      <trkpt lat="45.13277" lon="1.9511">
        <ele>211.9</ele>
        <time>2022-08-05T14:36:36Z</time>
      </trkpt>
      <trkpt lat="45.13266" lon="1.95114">
        <ele>212</ele>
        <time>2022-08-05T14:36:38Z</time>
      </trkpt>
      <trkpt lat="45.13255" lon="1.95119">
        <ele>211.8</ele>
        <time>2022-08-05T14:36:40Z</time>
      </trkpt>
      <trkpt lat="45.13245" lon="1.95125">
        <ele>212.2</ele>
        <time>2022-08-05T14:36:42Z</time>
      </trkpt>
      <trkpt lat="45.13237" lon="1.95134">
        <ele>212.7</ele>
        <time>2022-08-05T14:36:44Z</time>
      </trkpt>
      <trkpt lat="45.13229" lon="1.95142">
        <ele>213</ele>
        <time>2022-08-05T14:36:46Z</time>
      </trkpt>
      <trkpt lat="45.13222" lon="1.95152">
        <ele>212.9</ele>
        <time>2022-08-05T14:36:48Z</time>
      </trkpt>
      <trkpt lat="45.13215" lon="1.95163">
        <ele>212.4</ele>
        <time>2022-08-05T14:36:50Z</time>
      </trkpt>
      <trkpt lat="45.13204" lon="1.95167">
        <ele>212.9</ele>
        <time>2022-08-05T14:36:52Z</time>
      </trkpt>
      <trkpt lat="45.13194" lon="1.95172">
        <ele>213.8</ele>
        <time>2022-08-05T14:36:54Z</time>
      </trkpt>
      <trkpt lat="45.13184" lon="1.95173">
        <ele>214.8</ele>
        <time>2022-08-05T14:36:56Z</time>
      </trkpt>
      <trkpt lat="45.13176" lon="1.95176">
        <ele>215.6</ele>
        <time>2022-08-05T14:36:58Z</time>
      </trkpt>
      <trkpt lat="45.13167" lon="1.95179">
        <ele>216.5</ele>
        <time>2022-08-05T14:37:00Z</time>
      </trkpt>
      <trkpt lat="45.1316" lon="1.9518">
        <ele>217.2</ele>
        <time>2022-08-05T14:37:02Z</time>
      </trkpt>
      <trkpt lat="45.13153" lon="1.95183">
        <ele>218</ele>
        <time>2022-08-05T14:37:04Z</time>
      </trkpt>
      <trkpt lat="45.13147" lon="1.95186">
        <ele>218.7</ele>
        <time>2022-08-05T14:37:06Z</time>
      </trkpt>
      <trkpt lat="45.13141" lon="1.95189">
        <ele>219.4</ele>
        <time>2022-08-05T14:37:08Z</time>
      </trkpt>
      <trkpt lat="45.13137" lon="1.95192">
        <ele>220</ele>
        <time>2022-08-05T14:37:10Z</time>
      </trkpt>
      <trkpt lat="45.13134" lon="1.95197">
        <ele>220.7</ele>
        <time>2022-08-05T14:37:12Z</time>
      </trkpt>
      <trkpt lat="45.1313" lon="1.95201">
        <ele>221.3</ele>
        <time>2022-08-05T14:37:14Z</time>
      </trkpt>
      <trkpt lat="45.13126" lon="1.95204">
        <ele>222.1</ele>
        <time>2022-08-05T14:37:16Z</time>
      </trkpt>
      <trkpt lat="45.13122" lon="1.95208">
        <ele>222.8</ele>
        <time>2022-08-05T14:37:18Z</time>
      </trkpt>
      <trkpt lat="45.13118" lon="1.95211">
        <ele>223.4</ele>
        <time>2022-08-05T14:37:20Z</time>
      </trkpt>
      <trkpt lat="45.13117" lon="1.95214">
        <ele>223.8</ele>
        <time>2022-08-05T14:37:22Z</time>
      </trkpt>
      <trkpt lat="45.13112" lon="1.95219">
        <ele>224.9</ele>
        <time>2022-08-05T14:37:24Z</time>
      </trkpt>
      <trkpt lat="45.13107" lon="1.95224">
        <ele>225.9</ele>
        <time>2022-08-05T14:37:26Z</time>
      </trkpt>
      <trkpt lat="45.13103" lon="1.95227">
        <ele>226.8</ele>
        <time>2022-08-05T14:37:28Z</time>
      </trkpt>
      <trkpt lat="45.131" lon="1.9523">
        <ele>227.5</ele>
        <time>2022-08-05T14:37:30Z</time>
      </trkpt>
      <trkpt lat="45.13095" lon="1.95233">
        <ele>228.4</ele>
        <time>2022-08-05T14:37:32Z</time>
      </trkpt>
      <trkpt lat="45.13091" lon="1.95235">
        <ele>229.2</ele>
        <time>2022-08-05T14:37:34Z</time>
      </trkpt>
      <trkpt lat="45.13085" lon="1.95237">
        <ele>230.2</ele>
        <time>2022-08-05T14:37:36Z</time>
      </trkpt>
      <trkpt lat="45.1308" lon="1.95237">
        <ele>230.8</ele>
        <time>2022-08-05T14:37:38Z</time>
      </trkpt>
      <trkpt lat="45.13074" lon="1.95239">
        <ele>231.6</ele>
        <time>2022-08-05T14:37:40Z</time>
      </trkpt>
      <trkpt lat="45.13071" lon="1.95238">
        <ele>232</ele>
        <time>2022-08-05T14:37:42Z</time>
      </trkpt>
      <trkpt lat="45.13067" lon="1.95239">
        <ele>232.5</ele>
        <time>2022-08-05T14:37:44Z</time>
      </trkpt>
      <trkpt lat="45.13062" lon="1.9524">
        <ele>233.2</ele>
        <time>2022-08-05T14:37:46Z</time>
      </trkpt>
      <trkpt lat="45.13057" lon="1.95238">
        <ele>233.5</ele>
        <time>2022-08-05T14:37:48Z</time>
      </trkpt>
      <trkpt lat="45.13052" lon="1.95237">
        <ele>233.8</ele>
        <time>2022-08-05T14:37:50Z</time>
      </trkpt>
      <trkpt lat="45.13048" lon="1.95235">
        <ele>234.1</ele>
        <time>2022-08-05T14:37:52Z</time>
      </trkpt>
      <trkpt lat="45.13043" lon="1.95233">
        <ele>234.3</ele>
        <time>2022-08-05T14:37:54Z</time>
      </trkpt>
      <trkpt lat="45.13039" lon="1.95231">
        <ele>234.5</ele>
        <time>2022-08-05T14:37:56Z</time>
      </trkpt>
      <trkpt lat="45.13034" lon="1.9523">
        <ele>234.8</ele>
        <time>2022-08-05T14:37:58Z</time>
      </trkpt>
      <trkpt lat="45.1303" lon="1.95228">
        <ele>235</ele>
        <time>2022-08-05T14:38:00Z</time>
      </trkpt>
      <trkpt lat="45.13026" lon="1.95225">
        <ele>234.9</ele>
        <time>2022-08-05T14:38:02Z</time>
      </trkpt>
      <trkpt lat="45.13021" lon="1.95224">
        <ele>235.1</ele>
        <time>2022-08-05T14:38:04Z</time>
      </trkpt>
      <trkpt lat="45.13018" lon="1.95221">
        <ele>235</ele>
        <time>2022-08-05T14:38:06Z</time>
      </trkpt>
      <trkpt lat="45.13016" lon="1.95218">
        <ele>234.7</ele>
        <time>2022-08-05T14:38:08Z</time>
      </trkpt>
      <trkpt lat="45.13011" lon="1.95218">
        <ele>235.2</ele>
        <time>2022-08-05T14:38:10Z</time>
      </trkpt>
      <trkpt lat="45.13008" lon="1.95215">
        <ele>235</ele>
        <time>2022-08-05T14:38:12Z</time>
      </trkpt>
      <trkpt lat="45.13005" lon="1.95215">
        <ele>235.1</ele>
        <time>2022-08-05T14:38:14Z</time>
      </trkpt>
      <trkpt lat="45.1298" lon="1.95198">
        <ele>234.6</ele>
        <time>2022-08-05T14:38:26Z</time>
      </trkpt>
      <trkpt lat="45.12977" lon="1.95195">
        <ele>234.4</ele>
        <time>2022-08-05T14:38:28Z</time>
      </trkpt>
      <trkpt lat="45.12972" lon="1.95193">
        <ele>234.6</ele>
        <time>2022-08-05T14:38:30Z</time>
      </trkpt>
      <trkpt lat="45.12968" lon="1.95191">
        <ele>234.5</ele>
        <time>2022-08-05T14:38:32Z</time>
      </trkpt>
      <trkpt lat="45.12965" lon="1.95188">
        <ele>234.5</ele>
        <time>2022-08-05T14:38:34Z</time>
      </trkpt>
      <trkpt lat="45.12961" lon="1.95186">
        <ele>234.5</ele>
        <time>2022-08-05T14:38:36Z</time>
      </trkpt>
      <trkpt lat="45.12957" lon="1.95185">
        <ele>234.7</ele>
        <time>2022-08-05T14:38:38Z</time>
      </trkpt>
      <trkpt lat="45.12954" lon="1.95183">
        <ele>234.8</ele>
        <time>2022-08-05T14:38:40Z</time>
      </trkpt>
      <trkpt lat="45.1295" lon="1.95183">
        <ele>235.2</ele>
        <time>2022-08-05T14:38:42Z</time>
      </trkpt>
      <trkpt lat="45.12945" lon="1.95182">
        <ele>235.5</ele>
        <time>2022-08-05T14:38:44Z</time>
      </trkpt>
      <trkpt lat="45.12941" lon="1.95182">
        <ele>235.9</ele>
        <time>2022-08-05T14:38:46Z</time>
      </trkpt>
      <trkpt lat="45.12939" lon="1.95181">
        <ele>235.9</ele>
        <time>2022-08-05T14:38:48Z</time>
      </trkpt>
      <trkpt lat="45.12936" lon="1.95181">
        <ele>236.2</ele>
        <time>2022-08-05T14:38:50Z</time>
      </trkpt>
      <trkpt lat="45.12932" lon="1.95181">
        <ele>236.7</ele>
        <time>2022-08-05T14:38:52Z</time>
      </trkpt>
      <trkpt lat="45.12928" lon="1.95181">
        <ele>237.1</ele>
        <time>2022-08-05T14:38:54Z</time>
      </trkpt>
      <trkpt lat="45.12924" lon="1.9518">
        <ele>237.3</ele>
        <time>2022-08-05T14:38:56Z</time>
      </trkpt>
      <trkpt lat="45.12921" lon="1.9518">
        <ele>237.6</ele>
        <time>2022-08-05T14:38:58Z</time>
      </trkpt>
      <trkpt lat="45.12917" lon="1.95179">
        <ele>237.9</ele>
        <time>2022-08-05T14:39:00Z</time>
      </trkpt>
      <trkpt lat="45.12914" lon="1.95178">
        <ele>238.7</ele>
        <time>2022-08-05T14:39:02Z</time>
      </trkpt>
      <trkpt lat="45.1291" lon="1.95177">
        <ele>239.6</ele>
        <time>2022-08-05T14:39:04Z</time>
      </trkpt>
      <trkpt lat="45.12906" lon="1.95176">
        <ele>240.5</ele>
        <time>2022-08-05T14:39:06Z</time>
      </trkpt>
      <trkpt lat="45.12903" lon="1.95174">
        <ele>241.1</ele>
        <time>2022-08-05T14:39:08Z</time>
      </trkpt>
      <trkpt lat="45.12899" lon="1.95173">
        <ele>242.1</ele>
        <time>2022-08-05T14:39:10Z</time>
      </trkpt>
      <trkpt lat="45.12895" lon="1.95171">
        <ele>242.9</ele>
        <time>2022-08-05T14:39:12Z</time>
      </trkpt>
      <trkpt lat="45.12891" lon="1.9517">
        <ele>244</ele>
        <time>2022-08-05T14:39:14Z</time>
      </trkpt>
      <trkpt lat="45.12887" lon="1.95167">
        <ele>245</ele>
        <time>2022-08-05T14:39:16Z</time>
      </trkpt>
      <trkpt lat="45.12883" lon="1.95165">
        <ele>245.8</ele>
        <time>2022-08-05T14:39:18Z</time>
      </trkpt>
      <trkpt lat="45.1288" lon="1.95163">
        <ele>246.5</ele>
        <time>2022-08-05T14:39:20Z</time>
      </trkpt>
      <trkpt lat="45.12876" lon="1.9516">
        <ele>247.2</ele>
        <time>2022-08-05T14:39:22Z</time>
      </trkpt>
      <trkpt lat="45.12873" lon="1.95156">
        <ele>247.5</ele>
        <time>2022-08-05T14:39:24Z</time>
      </trkpt>
      <trkpt lat="45.1287" lon="1.95153">
        <ele>247.8</ele>
        <time>2022-08-05T14:39:26Z</time>
      </trkpt>
      <trkpt lat="45.12866" lon="1.95151">
        <ele>248.5</ele>
        <time>2022-08-05T14:39:28Z</time>
      </trkpt>
      <trkpt lat="45.12863" lon="1.95148">
        <ele>248.5</ele>
        <time>2022-08-05T14:39:30Z</time>
      </trkpt>
      <trkpt lat="45.12859" lon="1.95145">
        <ele>249</ele>
        <time>2022-08-05T14:39:32Z</time>
      </trkpt>
      <trkpt lat="45.12856" lon="1.95142">
        <ele>249.2</ele>
        <time>2022-08-05T14:39:34Z</time>
      </trkpt>
      <trkpt lat="45.12852" lon="1.95139">
        <ele>249.4</ele>
        <time>2022-08-05T14:39:36Z</time>
      </trkpt>
      <trkpt lat="45.12849" lon="1.95136">
        <ele>249.2</ele>
        <time>2022-08-05T14:39:38Z</time>
      </trkpt>
      <trkpt lat="45.12845" lon="1.95133">
        <ele>249.4</ele>
        <time>2022-08-05T14:39:40Z</time>
      </trkpt>
      <trkpt lat="45.12842" lon="1.95129">
        <ele>249.1</ele>
        <time>2022-08-05T14:39:42Z</time>
      </trkpt>
      <trkpt lat="45.12839" lon="1.95126">
        <ele>248.8</ele>
        <time>2022-08-05T14:39:44Z</time>
      </trkpt>
      <trkpt lat="45.12836" lon="1.95123">
        <ele>248.7</ele>
        <time>2022-08-05T14:39:46Z</time>
      </trkpt>
      <trkpt lat="45.12833" lon="1.9512">
        <ele>248.3</ele>
        <time>2022-08-05T14:39:48Z</time>
      </trkpt>
      <trkpt lat="45.1283" lon="1.95117">
        <ele>248.5</ele>
        <time>2022-08-05T14:39:50Z</time>
      </trkpt>
      <trkpt lat="45.12827" lon="1.95115">
        <ele>249</ele>
        <time>2022-08-05T14:39:52Z</time>
      </trkpt>
      <trkpt lat="45.12824" lon="1.95111">
        <ele>248.9</ele>
        <time>2022-08-05T14:39:54Z</time>
      </trkpt>
      <trkpt lat="45.12821" lon="1.95109">
        <ele>249</ele>
        <time>2022-08-05T14:39:56Z</time>
      </trkpt>
      <trkpt lat="45.12818" lon="1.95107">
        <ele>249.5</ele>
        <time>2022-08-05T14:39:58Z</time>
      </trkpt>
      <trkpt lat="45.12816" lon="1.95104">
        <ele>249.7</ele>
        <time>2022-08-05T14:40:00Z</time>
      </trkpt>
      <trkpt lat="45.12814" lon="1.95102">
        <ele>249.6</ele>
        <time>2022-08-05T14:40:02Z</time>
      </trkpt>
      <trkpt lat="45.12811" lon="1.95099">
        <ele>249.8</ele>
        <time>2022-08-05T14:40:04Z</time>
      </trkpt>
      <trkpt lat="45.12808" lon="1.95097">
        <ele>250.2</ele>
        <time>2022-08-05T14:40:06Z</time>
      </trkpt>
      <trkpt lat="45.12805" lon="1.95096">
        <ele>251.1</ele>
        <time>2022-08-05T14:40:08Z</time>
      </trkpt>
      <trkpt lat="45.12802" lon="1.95093">
        <ele>251.5</ele>
        <time>2022-08-05T14:40:10Z</time>
      </trkpt>
      <trkpt lat="45.12799" lon="1.95092">
        <ele>252</ele>
        <time>2022-08-05T14:40:12Z</time>
      </trkpt>
      <trkpt lat="45.12797" lon="1.9509">
        <ele>252.4</ele>
        <time>2022-08-05T14:40:14Z</time>
      </trkpt>
      <trkpt lat="45.12794" lon="1.95088">
        <ele>253.1</ele>
        <time>2022-08-05T14:40:16Z</time>
      </trkpt>
      <trkpt lat="45.12791" lon="1.95087">
        <ele>253.9</ele>
        <time>2022-08-05T14:40:18Z</time>
      </trkpt>
      <trkpt lat="45.12787" lon="1.95086">
        <ele>254.7</ele>
        <time>2022-08-05T14:40:20Z</time>
      </trkpt>
      <trkpt lat="45.12783" lon="1.95084">
        <ele>255.5</ele>
        <time>2022-08-05T14:40:22Z</time>
      </trkpt>
      <trkpt lat="45.1278" lon="1.95081">
        <ele>256.3</ele>
        <time>2022-08-05T14:40:24Z</time>
      </trkpt>
      <trkpt lat="45.12777" lon="1.95079">
        <ele>256.8</ele>
        <time>2022-08-05T14:40:26Z</time>
      </trkpt>
      <trkpt lat="45.12773" lon="1.95075">
        <ele>257.4</ele>
        <time>2022-08-05T14:40:28Z</time>
      </trkpt>
      <trkpt lat="45.1277" lon="1.95073">
        <ele>258</ele>
        <time>2022-08-05T14:40:30Z</time>
      </trkpt>
      <trkpt lat="45.12766" lon="1.95068">
        <ele>258.5</ele>
        <time>2022-08-05T14:40:32Z</time>
      </trkpt>
      <trkpt lat="45.12765" lon="1.95064">
        <ele>258.1</ele>
        <time>2022-08-05T14:40:34Z</time>
      </trkpt>
      <trkpt lat="45.12763" lon="1.95058">
        <ele>257.6</ele>
        <time>2022-08-05T14:40:36Z</time>
      </trkpt>
      <trkpt lat="45.1276" lon="1.95051">
        <ele>257.1</ele>
        <time>2022-08-05T14:40:38Z</time>
      </trkpt>
      <trkpt lat="45.12759" lon="1.95046">
        <ele>256.4</ele>
        <time>2022-08-05T14:40:40Z</time>
      </trkpt>
      <trkpt lat="45.12757" lon="1.9504">
        <ele>255.7</ele>
        <time>2022-08-05T14:40:42Z</time>
      </trkpt>
      <trkpt lat="45.12756" lon="1.95035">
        <ele>255.1</ele>
        <time>2022-08-05T14:40:44Z</time>
      </trkpt>
      <trkpt lat="45.12754" lon="1.95031">
        <ele>254.6</ele>
        <time>2022-08-05T14:40:46Z</time>
      </trkpt>
      <trkpt lat="45.12752" lon="1.95025">
        <ele>253.9</ele>
        <time>2022-08-05T14:40:48Z</time>
      </trkpt>
      <trkpt lat="45.12751" lon="1.95019">
        <ele>253</ele>
        <time>2022-08-05T14:40:50Z</time>
      </trkpt>
      <trkpt lat="45.12749" lon="1.95014">
        <ele>252.3</ele>
        <time>2022-08-05T14:40:52Z</time>
      </trkpt>
      <trkpt lat="45.12748" lon="1.95008">
        <ele>251.5</ele>
        <time>2022-08-05T14:40:54Z</time>
      </trkpt>
      <trkpt lat="45.12746" lon="1.95002">
        <ele>250.8</ele>
        <time>2022-08-05T14:40:56Z</time>
      </trkpt>
      <trkpt lat="45.12746" lon="1.94995">
        <ele>249.6</ele>
        <time>2022-08-05T14:40:58Z</time>
      </trkpt>
      <trkpt lat="45.12745" lon="1.94989">
        <ele>249.1</ele>
        <time>2022-08-05T14:41:00Z</time>
      </trkpt>
      <trkpt lat="45.12745" lon="1.94985">
        <ele>248.3</ele>
        <time>2022-08-05T14:41:02Z</time>
      </trkpt>
      <trkpt lat="45.12745" lon="1.94978">
        <ele>247.5</ele>
        <time>2022-08-05T14:41:04Z</time>
      </trkpt>
      <trkpt lat="45.12745" lon="1.94971">
        <ele>246.5</ele>
        <time>2022-08-05T14:41:06Z</time>
      </trkpt>
      <trkpt lat="45.12744" lon="1.94965">
        <ele>245.8</ele>
        <time>2022-08-05T14:41:08Z</time>
      </trkpt>
      <trkpt lat="45.12744" lon="1.94958">
        <ele>245</ele>
        <time>2022-08-05T14:41:10Z</time>
      </trkpt>
      <trkpt lat="45.12742" lon="1.94952">
        <ele>244.7</ele>
        <time>2022-08-05T14:41:12Z</time>
      </trkpt>
      <trkpt lat="45.1274" lon="1.94947">
        <ele>244.6</ele>
        <time>2022-08-05T14:41:14Z</time>
      </trkpt>
      <trkpt lat="45.12737" lon="1.94941">
        <ele>244.8</ele>
        <time>2022-08-05T14:41:16Z</time>
      </trkpt>
      <trkpt lat="45.12735" lon="1.94938">
        <ele>245</ele>
        <time>2022-08-05T14:41:18Z</time>
      </trkpt>
      <trkpt lat="45.12731" lon="1.94934">
        <ele>245.5</ele>
        <time>2022-08-05T14:41:20Z</time>
      </trkpt>
      <trkpt lat="45.12728" lon="1.9493">
        <ele>245.9</ele>
        <time>2022-08-05T14:41:22Z</time>
      </trkpt>
      <trkpt lat="45.12724" lon="1.94926">
        <ele>246.7</ele>
        <time>2022-08-05T14:41:24Z</time>
      </trkpt>
      <trkpt lat="45.12721" lon="1.94923">
        <ele>247.2</ele>
        <time>2022-08-05T14:41:26Z</time>
      </trkpt>
      <trkpt lat="45.12718" lon="1.9492">
        <ele>248.1</ele>
        <time>2022-08-05T14:41:28Z</time>
      </trkpt>
      <trkpt lat="45.12714" lon="1.94918">
        <ele>248.8</ele>
        <time>2022-08-05T14:41:30Z</time>
      </trkpt>
      <trkpt lat="45.1271" lon="1.94915">
        <ele>249.9</ele>
        <time>2022-08-05T14:41:32Z</time>
      </trkpt>
      <trkpt lat="45.12707" lon="1.94911">
        <ele>250.7</ele>
        <time>2022-08-05T14:41:34Z</time>
      </trkpt>
      <trkpt lat="45.12704" lon="1.94907">
        <ele>251.4</ele>
        <time>2022-08-05T14:41:36Z</time>
      </trkpt>
      <trkpt lat="45.12702" lon="1.94903">
        <ele>252</ele>
        <time>2022-08-05T14:41:38Z</time>
      </trkpt>
      <trkpt lat="45.12699" lon="1.949">
        <ele>252.6</ele>
        <time>2022-08-05T14:41:40Z</time>
      </trkpt>
      <trkpt lat="45.12697" lon="1.94895">
        <ele>253.1</ele>
        <time>2022-08-05T14:41:42Z</time>
      </trkpt>
      <trkpt lat="45.12697" lon="1.9489">
        <ele>253.1</ele>
        <time>2022-08-05T14:41:44Z</time>
      </trkpt>
      <trkpt lat="45.12695" lon="1.94886">
        <ele>253.4</ele>
        <time>2022-08-05T14:41:46Z</time>
      </trkpt>
      <trkpt lat="45.12693" lon="1.94883">
        <ele>253.7</ele>
        <time>2022-08-05T14:41:48Z</time>
      </trkpt>
      <trkpt lat="45.12692" lon="1.94878">
        <ele>253.9</ele>
        <time>2022-08-05T14:41:50Z</time>
      </trkpt>
      <trkpt lat="45.1269" lon="1.94873">
        <ele>254.2</ele>
        <time>2022-08-05T14:41:52Z</time>
      </trkpt>
      <trkpt lat="45.12687" lon="1.94867">
        <ele>254.8</ele>
        <time>2022-08-05T14:41:54Z</time>
      </trkpt>
      <trkpt lat="45.12684" lon="1.94864">
        <ele>255.4</ele>
        <time>2022-08-05T14:41:56Z</time>
      </trkpt>
      <trkpt lat="45.12681" lon="1.94859">
        <ele>255.8</ele>
        <time>2022-08-05T14:41:58Z</time>
      </trkpt>
      <trkpt lat="45.12679" lon="1.94854">
        <ele>256.3</ele>
        <time>2022-08-05T14:42:00Z</time>
      </trkpt>
      <trkpt lat="45.12675" lon="1.94852">
        <ele>257</ele>
        <time>2022-08-05T14:42:02Z</time>
      </trkpt>
      <trkpt lat="45.12672" lon="1.9485">
        <ele>257.6</ele>
        <time>2022-08-05T14:42:04Z</time>
      </trkpt>
      <trkpt lat="45.12669" lon="1.94848">
        <ele>258.4</ele>
        <time>2022-08-05T14:42:06Z</time>
      </trkpt>
      <trkpt lat="45.12666" lon="1.94846">
        <ele>259</ele>
        <time>2022-08-05T14:42:08Z</time>
      </trkpt>
      <trkpt lat="45.12663" lon="1.94845">
        <ele>259.6</ele>
        <time>2022-08-05T14:42:10Z</time>
      </trkpt>
      <trkpt lat="45.1266" lon="1.94843">
        <ele>260.1</ele>
        <time>2022-08-05T14:42:12Z</time>
      </trkpt>
      <trkpt lat="45.12657" lon="1.94841">
        <ele>260.9</ele>
        <time>2022-08-05T14:42:14Z</time>
      </trkpt>
      <trkpt lat="45.12654" lon="1.94841">
        <ele>261.5</ele>
        <time>2022-08-05T14:42:16Z</time>
      </trkpt>
      <trkpt lat="45.1265" lon="1.94839">
        <ele>262.3</ele>
        <time>2022-08-05T14:42:18Z</time>
      </trkpt>
      <trkpt lat="45.12647" lon="1.94837">
        <ele>262.8</ele>
        <time>2022-08-05T14:42:20Z</time>
      </trkpt>
      <trkpt lat="45.12644" lon="1.94834">
        <ele>263.4</ele>
        <time>2022-08-05T14:42:22Z</time>
      </trkpt>
      <trkpt lat="45.12642" lon="1.94829">
        <ele>263.9</ele>
        <time>2022-08-05T14:42:24Z</time>
      </trkpt>
      <trkpt lat="45.12642" lon="1.94822">
        <ele>263.9</ele>
        <time>2022-08-05T14:42:26Z</time>
      </trkpt>
      <trkpt lat="45.12642" lon="1.94816">
        <ele>263.8</ele>
        <time>2022-08-05T14:42:28Z</time>
      </trkpt>
      <trkpt lat="45.12646" lon="1.94809">
        <ele>263</ele>
        <time>2022-08-05T14:42:30Z</time>
      </trkpt>
      <trkpt lat="45.12649" lon="1.94804">
        <ele>262.3</ele>
        <time>2022-08-05T14:42:32Z</time>
      </trkpt>
      <trkpt lat="45.12653" lon="1.94799">
        <ele>261.6</ele>
        <time>2022-08-05T14:42:34Z</time>
      </trkpt>
      <trkpt lat="45.12656" lon="1.94794">
        <ele>260.9</ele>
        <time>2022-08-05T14:42:36Z</time>
      </trkpt>
      <trkpt lat="45.12659" lon="1.94789">
        <ele>260.2</ele>
        <time>2022-08-05T14:42:38Z</time>
      </trkpt>
      <trkpt lat="45.12663" lon="1.94784">
        <ele>259.5</ele>
        <time>2022-08-05T14:42:40Z</time>
      </trkpt>
      <trkpt lat="45.12664" lon="1.94778">
        <ele>259.2</ele>
        <time>2022-08-05T14:42:42Z</time>
      </trkpt>
      <trkpt lat="45.12665" lon="1.94773">
        <ele>259</ele>
        <time>2022-08-05T14:42:44Z</time>
      </trkpt>
      <trkpt lat="45.12666" lon="1.94769">
        <ele>258.9</ele>
        <time>2022-08-05T14:42:46Z</time>
      </trkpt>
      <trkpt lat="45.12666" lon="1.94765">
        <ele>259.1</ele>
        <time>2022-08-05T14:42:48Z</time>
      </trkpt>
      <trkpt lat="45.12664" lon="1.94761">
        <ele>259.4</ele>
        <time>2022-08-05T14:42:50Z</time>
      </trkpt>
      <trkpt lat="45.12663" lon="1.94757">
        <ele>259.7</ele>
        <time>2022-08-05T14:42:52Z</time>
      </trkpt>
      <trkpt lat="45.1266" lon="1.94753">
        <ele>260.3</ele>
        <time>2022-08-05T14:42:54Z</time>
      </trkpt>
      <trkpt lat="45.12658" lon="1.94749">
        <ele>260.7</ele>
        <time>2022-08-05T14:42:56Z</time>
      </trkpt>
      <trkpt lat="45.12656" lon="1.94745">
        <ele>260.8</ele>
        <time>2022-08-05T14:42:58Z</time>
      </trkpt>
      <trkpt lat="45.12653" lon="1.94741">
        <ele>261</ele>
        <time>2022-08-05T14:43:00Z</time>
      </trkpt>
      <trkpt lat="45.1265" lon="1.94738">
        <ele>261.3</ele>
        <time>2022-08-05T14:43:02Z</time>
      </trkpt>
      <trkpt lat="45.12648" lon="1.94734">
        <ele>261.3</ele>
        <time>2022-08-05T14:43:04Z</time>
      </trkpt>
      <trkpt lat="45.12646" lon="1.9473">
        <ele>261.5</ele>
        <time>2022-08-05T14:43:06Z</time>
      </trkpt>
      <trkpt lat="45.12643" lon="1.94728">
        <ele>261.8</ele>
        <time>2022-08-05T14:43:08Z</time>
      </trkpt>
      <trkpt lat="45.1264" lon="1.94724">
        <ele>262</ele>
        <time>2022-08-05T14:43:10Z</time>
      </trkpt>
      <trkpt lat="45.12638" lon="1.94722">
        <ele>262.2</ele>
        <time>2022-08-05T14:43:12Z</time>
      </trkpt>
      <trkpt lat="45.12635" lon="1.94718">
        <ele>262.6</ele>
        <time>2022-08-05T14:43:14Z</time>
      </trkpt>
      <trkpt lat="45.12632" lon="1.94715">
        <ele>262.9</ele>
        <time>2022-08-05T14:43:16Z</time>
      </trkpt>
      <trkpt lat="45.12628" lon="1.94714">
        <ele>263.5</ele>
        <time>2022-08-05T14:43:18Z</time>
      </trkpt>
      <trkpt lat="45.12624" lon="1.94714">
        <ele>264.2</ele>
        <time>2022-08-05T14:43:20Z</time>
      </trkpt>
      <trkpt lat="45.12621" lon="1.94712">
        <ele>264.6</ele>
        <time>2022-08-05T14:43:22Z</time>
      </trkpt>
      <trkpt lat="45.12618" lon="1.94711">
        <ele>265.2</ele>
        <time>2022-08-05T14:43:24Z</time>
      </trkpt>
      <trkpt lat="45.12615" lon="1.94711">
        <ele>265.7</ele>
        <time>2022-08-05T14:43:26Z</time>
      </trkpt>
      <trkpt lat="45.12611" lon="1.9471">
        <ele>266.2</ele>
        <time>2022-08-05T14:43:28Z</time>
      </trkpt>
      <trkpt lat="45.12609" lon="1.94709">
        <ele>266.7</ele>
        <time>2022-08-05T14:43:30Z</time>
      </trkpt>
      <trkpt lat="45.12606" lon="1.9471">
        <ele>267.4</ele>
        <time>2022-08-05T14:43:32Z</time>
      </trkpt>
      <trkpt lat="45.12602" lon="1.94709">
        <ele>267.9</ele>
        <time>2022-08-05T14:43:34Z</time>
      </trkpt>
      <trkpt lat="45.12599" lon="1.94709">
        <ele>268.5</ele>
        <time>2022-08-05T14:43:36Z</time>
      </trkpt>
      <trkpt lat="45.12597" lon="1.9471">
        <ele>269.1</ele>
        <time>2022-08-05T14:43:38Z</time>
      </trkpt>
      <trkpt lat="45.12593" lon="1.94709">
        <ele>269.6</ele>
        <time>2022-08-05T14:43:40Z</time>
      </trkpt>
      <trkpt lat="45.12591" lon="1.94708">
        <ele>270.1</ele>
        <time>2022-08-05T14:43:42Z</time>
      </trkpt>
      <trkpt lat="45.12587" lon="1.94707">
        <ele>270.6</ele>
        <time>2022-08-05T14:43:44Z</time>
      </trkpt>
      <trkpt lat="45.12584" lon="1.94705">
        <ele>271</ele>
        <time>2022-08-05T14:43:46Z</time>
      </trkpt>
      <trkpt lat="45.12581" lon="1.94704">
        <ele>271.6</ele>
        <time>2022-08-05T14:43:48Z</time>
      </trkpt>
      <trkpt lat="45.12578" lon="1.94702">
        <ele>272</ele>
        <time>2022-08-05T14:43:50Z</time>
      </trkpt>
      <trkpt lat="45.12576" lon="1.947">
        <ele>272.4</ele>
        <time>2022-08-05T14:43:52Z</time>
      </trkpt>
      <trkpt lat="45.12572" lon="1.94699">
        <ele>273.1</ele>
        <time>2022-08-05T14:43:54Z</time>
      </trkpt>
      <trkpt lat="45.12569" lon="1.94698">
        <ele>273.8</ele>
        <time>2022-08-05T14:43:56Z</time>
      </trkpt>
      <trkpt lat="45.12567" lon="1.94697">
        <ele>274.3</ele>
        <time>2022-08-05T14:43:58Z</time>
      </trkpt>
      <trkpt lat="45.12564" lon="1.94695">
        <ele>274.7</ele>
        <time>2022-08-05T14:44:00Z</time>
      </trkpt>
      <trkpt lat="45.1256" lon="1.94694">
        <ele>275.4</ele>
        <time>2022-08-05T14:44:02Z</time>
      </trkpt>
      <trkpt lat="45.12557" lon="1.94693">
        <ele>276.2</ele>
        <time>2022-08-05T14:44:04Z</time>
      </trkpt>
      <trkpt lat="45.12554" lon="1.94693">
        <ele>276.9</ele>
        <time>2022-08-05T14:44:06Z</time>
      </trkpt>
      <trkpt lat="45.1255" lon="1.94692">
        <ele>277.6</ele>
        <time>2022-08-05T14:44:08Z</time>
      </trkpt>
      <trkpt lat="45.12546" lon="1.94693">
        <ele>278.6</ele>
        <time>2022-08-05T14:44:10Z</time>
      </trkpt>
      <trkpt lat="45.12543" lon="1.94693">
        <ele>279.4</ele>
        <time>2022-08-05T14:44:12Z</time>
      </trkpt>
      <trkpt lat="45.12539" lon="1.94694">
        <ele>280.3</ele>
        <time>2022-08-05T14:44:14Z</time>
      </trkpt>
      <trkpt lat="45.12536" lon="1.94695">
        <ele>281.4</ele>
        <time>2022-08-05T14:44:16Z</time>
      </trkpt>
      <trkpt lat="45.12533" lon="1.94696">
        <ele>282.1</ele>
        <time>2022-08-05T14:44:18Z</time>
      </trkpt>
      <trkpt lat="45.12529" lon="1.94696">
        <ele>283</ele>
        <time>2022-08-05T14:44:20Z</time>
      </trkpt>
      <trkpt lat="45.12526" lon="1.94695">
        <ele>283.7</ele>
        <time>2022-08-05T14:44:22Z</time>
      </trkpt>
      <trkpt lat="45.12523" lon="1.94696">
        <ele>284.4</ele>
        <time>2022-08-05T14:44:24Z</time>
      </trkpt>
      <trkpt lat="45.1252" lon="1.94696">
        <ele>285.2</ele>
        <time>2022-08-05T14:44:26Z</time>
      </trkpt>
      <trkpt lat="45.12517" lon="1.94695">
        <ele>285.6</ele>
        <time>2022-08-05T14:44:28Z</time>
      </trkpt>
      <trkpt lat="45.12517" lon="1.94695">
        <ele>285.8</ele>
        <time>2022-08-05T14:44:30Z</time>
      </trkpt>
      <trkpt lat="45.12517" lon="1.94695">
        <ele>285.6</ele>
        <time>2022-08-05T14:44:32Z</time>
      </trkpt>
      <trkpt lat="45.12516" lon="1.94692">
        <ele>285.5</ele>
        <time>2022-08-05T14:44:34Z</time>
      </trkpt>
      <trkpt lat="45.12517" lon="1.94692">
        <ele>285.4</ele>
        <time>2022-08-05T14:44:36Z</time>
      </trkpt>
      <trkpt lat="45.12546" lon="1.94688">
        <ele>278.1</ele>
        <time>2022-08-05T14:48:12Z</time>
      </trkpt>
      <trkpt lat="45.12556" lon="1.94688">
        <ele>275.8</ele>
        <time>2022-08-05T14:48:14Z</time>
      </trkpt>
      <trkpt lat="45.12567" lon="1.94689">
        <ele>273.2</ele>
        <time>2022-08-05T14:48:16Z</time>
      </trkpt>
      <trkpt lat="45.1258" lon="1.94694">
        <ele>270.7</ele>
        <time>2022-08-05T14:48:18Z</time>
      </trkpt>
      <trkpt lat="45.1259" lon="1.94699">
        <ele>269.2</ele>
        <time>2022-08-05T14:48:20Z</time>
      </trkpt>
      <trkpt lat="45.12602" lon="1.94702">
        <ele>267.3</ele>
        <time>2022-08-05T14:48:22Z</time>
      </trkpt>
      <trkpt lat="45.12612" lon="1.94703">
        <ele>265.5</ele>
        <time>2022-08-05T14:48:24Z</time>
      </trkpt>
      <trkpt lat="45.12619" lon="1.94702">
        <ele>263.9</ele>
        <time>2022-08-05T14:48:26Z</time>
      </trkpt>
      <trkpt lat="45.12625" lon="1.94705">
        <ele>263.2</ele>
        <time>2022-08-05T14:48:28Z</time>
      </trkpt>
      <trkpt lat="45.12626" lon="1.94704">
        <ele>263</ele>
        <time>2022-08-05T14:48:30Z</time>
      </trkpt>
      <trkpt lat="45.12626" lon="1.947">
        <ele>262.5</ele>
        <time>2022-08-05T14:48:32Z</time>
      </trkpt>
      <trkpt lat="45.12623" lon="1.947">
        <ele>263</ele>
        <time>2022-08-05T14:48:34Z</time>
      </trkpt>
      <trkpt lat="45.12619" lon="1.94701">
        <ele>264</ele>
        <time>2022-08-05T14:48:36Z</time>
      </trkpt>
      <trkpt lat="45.12615" lon="1.94703">
        <ele>264.9</ele>
        <time>2022-08-05T14:48:38Z</time>
      </trkpt>
      <trkpt lat="45.12611" lon="1.94703">
        <ele>265.7</ele>
        <time>2022-08-05T14:48:40Z</time>
      </trkpt>
      <trkpt lat="45.12606" lon="1.94703">
        <ele>266.5</ele>
        <time>2022-08-05T14:48:42Z</time>
      </trkpt>
      <trkpt lat="45.12602" lon="1.94705">
        <ele>267.5</ele>
        <time>2022-08-05T14:48:44Z</time>
      </trkpt>
      <trkpt lat="45.12598" lon="1.94703">
        <ele>268.1</ele>
        <time>2022-08-05T14:48:46Z</time>
      </trkpt>
      <trkpt lat="45.12594" lon="1.94703">
        <ele>268.8</ele>
        <time>2022-08-05T14:48:48Z</time>
      </trkpt>
      <trkpt lat="45.12591" lon="1.94702">
        <ele>269.3</ele>
        <time>2022-08-05T14:48:50Z</time>
      </trkpt>
      <trkpt lat="45.12587" lon="1.94701">
        <ele>270</ele>
        <time>2022-08-05T14:48:52Z</time>
      </trkpt>
      <trkpt lat="45.12584" lon="1.947">
        <ele>270.5</ele>
        <time>2022-08-05T14:48:54Z</time>
      </trkpt>
      <trkpt lat="45.1258" lon="1.94699">
        <ele>271.2</ele>
        <time>2022-08-05T14:48:56Z</time>
      </trkpt>
      <trkpt lat="45.12577" lon="1.94697">
        <ele>271.9</ele>
        <time>2022-08-05T14:48:58Z</time>
      </trkpt>
      <trkpt lat="45.12573" lon="1.94697">
        <ele>272.6</ele>
        <time>2022-08-05T14:49:00Z</time>
      </trkpt>
      <trkpt lat="45.1257" lon="1.94696">
        <ele>273.2</ele>
        <time>2022-08-05T14:49:02Z</time>
      </trkpt>
      <trkpt lat="45.12567" lon="1.94694">
        <ele>274</ele>
        <time>2022-08-05T14:49:04Z</time>
      </trkpt>
      <trkpt lat="45.12563" lon="1.94695">
        <ele>274.8</ele>
        <time>2022-08-05T14:49:06Z</time>
      </trkpt>
      <trkpt lat="45.1256" lon="1.94695">
        <ele>275.6</ele>
        <time>2022-08-05T14:49:08Z</time>
      </trkpt>
      <trkpt lat="45.12556" lon="1.94694">
        <ele>276.4</ele>
        <time>2022-08-05T14:49:10Z</time>
      </trkpt>
      <trkpt lat="45.12553" lon="1.94694">
        <ele>277.1</ele>
        <time>2022-08-05T14:49:12Z</time>
      </trkpt>
      <trkpt lat="45.1255" lon="1.94695">
        <ele>277.9</ele>
        <time>2022-08-05T14:49:14Z</time>
      </trkpt>
      <trkpt lat="45.12547" lon="1.94695">
        <ele>278.7</ele>
        <time>2022-08-05T14:49:16Z</time>
      </trkpt>
      <trkpt lat="45.12544" lon="1.94695">
        <ele>279.5</ele>
        <time>2022-08-05T14:49:18Z</time>
      </trkpt>
      <trkpt lat="45.1254" lon="1.94696">
        <ele>280.3</ele>
        <time>2022-08-05T14:49:20Z</time>
      </trkpt>
      <trkpt lat="45.12537" lon="1.94696">
        <ele>281.1</ele>
        <time>2022-08-05T14:49:22Z</time>
      </trkpt>
      <trkpt lat="45.12533" lon="1.94696">
        <ele>281.9</ele>
        <time>2022-08-05T14:49:24Z</time>
      </trkpt>
      <trkpt lat="45.1253" lon="1.94697">
        <ele>282.8</ele>
        <time>2022-08-05T14:49:26Z</time>
      </trkpt>
      <trkpt lat="45.12527" lon="1.94697">
        <ele>283.6</ele>
        <time>2022-08-05T14:49:28Z</time>
      </trkpt>
      <trkpt lat="45.12524" lon="1.94697">
        <ele>284.4</ele>
        <time>2022-08-05T14:49:30Z</time>
      </trkpt>
      <trkpt lat="45.12521" lon="1.94696">
        <ele>285</ele>
        <time>2022-08-05T14:49:32Z</time>
      </trkpt>
      <trkpt lat="45.12518" lon="1.94695">
        <ele>285.3</ele>
        <time>2022-08-05T14:49:34Z</time>
      </trkpt>
      <trkpt lat="45.12518" lon="1.94693">
        <ele>285.2</ele>
        <time>2022-08-05T14:49:36Z</time>
      </trkpt>
      <trkpt lat="45.12519" lon="1.94693">
        <ele>285.1</ele>
        <time>2022-08-05T14:49:38Z</time>
      </trkpt>
      <trkpt lat="45.12519" lon="1.94693">
        <ele>285.1</ele>
        <time>2022-08-05T14:49:40Z</time>
      </trkpt>
      <trkpt lat="45.12506" lon="1.94682">
        <ele>286.7</ele>
        <time>2022-08-05T14:50:56Z</time>
      </trkpt>
      <trkpt lat="45.12505" lon="1.94675">
        <ele>285.9</ele>
        <time>2022-08-05T14:50:58Z</time>
      </trkpt>
      <trkpt lat="45.12506" lon="1.94666">
        <ele>284.8</ele>
        <time>2022-08-05T14:51:00Z</time>
      </trkpt>
      <trkpt lat="45.12507" lon="1.9466">
        <ele>284.7</ele>
        <time>2022-08-05T14:51:02Z</time>
      </trkpt>
      <trkpt lat="45.12509" lon="1.94655">
        <ele>284.4</ele>
        <time>2022-08-05T14:51:04Z</time>
      </trkpt>
      <trkpt lat="45.12513" lon="1.94649">
        <ele>283.8</ele>
        <time>2022-08-05T14:51:06Z</time>
      </trkpt>
      <trkpt lat="45.12516" lon="1.94645">
        <ele>283.3</ele>
        <time>2022-08-05T14:51:08Z</time>
      </trkpt>
      <trkpt lat="45.12519" lon="1.9464">
        <ele>282.7</ele>
        <time>2022-08-05T14:51:10Z</time>
      </trkpt>
      <trkpt lat="45.12522" lon="1.94635">
        <ele>282.1</ele>
        <time>2022-08-05T14:51:12Z</time>
      </trkpt>
      <trkpt lat="45.12525" lon="1.94631">
        <ele>281.6</ele>
        <time>2022-08-05T14:51:14Z</time>
      </trkpt>
      <trkpt lat="45.12526" lon="1.94625">
        <ele>281.3</ele>
        <time>2022-08-05T14:51:16Z</time>
      </trkpt>
      <trkpt lat="45.12528" lon="1.94621">
        <ele>281.1</ele>
        <time>2022-08-05T14:51:18Z</time>
      </trkpt>
      <trkpt lat="45.12528" lon="1.94616">
        <ele>281.3</ele>
        <time>2022-08-05T14:51:20Z</time>
      </trkpt>
      <trkpt lat="45.12526" lon="1.94611">
        <ele>281.9</ele>
        <time>2022-08-05T14:51:22Z</time>
      </trkpt>
      <trkpt lat="45.12525" lon="1.94605">
        <ele>282.3</ele>
        <time>2022-08-05T14:51:24Z</time>
      </trkpt>
      <trkpt lat="45.12523" lon="1.946">
        <ele>283</ele>
        <time>2022-08-05T14:51:26Z</time>
      </trkpt>
      <trkpt lat="45.12521" lon="1.94595">
        <ele>283.9</ele>
        <time>2022-08-05T14:51:28Z</time>
      </trkpt>
      <trkpt lat="45.12519" lon="1.94592">
        <ele>284.5</ele>
        <time>2022-08-05T14:51:30Z</time>
      </trkpt>
      <trkpt lat="45.12515" lon="1.94589">
        <ele>285.6</ele>
        <time>2022-08-05T14:51:32Z</time>
      </trkpt>
      <trkpt lat="45.12511" lon="1.94589">
        <ele>286.7</ele>
        <time>2022-08-05T14:51:34Z</time>
      </trkpt>
      <trkpt lat="45.12509" lon="1.94586">
        <ele>287.3</ele>
        <time>2022-08-05T14:51:36Z</time>
      </trkpt>
      <trkpt lat="45.12506" lon="1.94584">
        <ele>288.2</ele>
        <time>2022-08-05T14:51:38Z</time>
      </trkpt>
      <trkpt lat="45.12504" lon="1.94582">
        <ele>289.2</ele>
        <time>2022-08-05T14:51:40Z</time>
      </trkpt>
      <trkpt lat="45.12501" lon="1.94579">
        <ele>290.2</ele>
        <time>2022-08-05T14:51:42Z</time>
      </trkpt>
      <trkpt lat="45.12497" lon="1.94576">
        <ele>291.8</ele>
        <time>2022-08-05T14:51:44Z</time>
      </trkpt>
      <trkpt lat="45.12494" lon="1.94575">
        <ele>293.2</ele>
        <time>2022-08-05T14:51:46Z</time>
      </trkpt>
      <trkpt lat="45.12494" lon="1.94569">
        <ele>294</ele>
        <time>2022-08-05T14:51:48Z</time>
      </trkpt>
      <trkpt lat="45.12493" lon="1.94564">
        <ele>294.7</ele>
        <time>2022-08-05T14:51:50Z</time>
      </trkpt>
      <trkpt lat="45.12496" lon="1.94558">
        <ele>294.5</ele>
        <time>2022-08-05T14:51:52Z</time>
      </trkpt>
      <trkpt lat="45.12498" lon="1.94552">
        <ele>294.1</ele>
        <time>2022-08-05T14:51:54Z</time>
      </trkpt>
      <trkpt lat="45.12501" lon="1.94548">
        <ele>293.4</ele>
        <time>2022-08-05T14:51:56Z</time>
      </trkpt>
      <trkpt lat="45.12505" lon="1.94545">
        <ele>292.8</ele>
        <time>2022-08-05T14:51:58Z</time>
      </trkpt>
      <trkpt lat="45.12508" lon="1.94542">
        <ele>292.3</ele>
        <time>2022-08-05T14:52:00Z</time>
      </trkpt>
      <trkpt lat="45.12512" lon="1.94541">
        <ele>291.2</ele>
        <time>2022-08-05T14:52:02Z</time>
      </trkpt>
      <trkpt lat="45.12515" lon="1.94541">
        <ele>290.4</ele>
        <time>2022-08-05T14:52:04Z</time>
      </trkpt>
      <trkpt lat="45.1252" lon="1.9454">
        <ele>289</ele>
        <time>2022-08-05T14:52:06Z</time>
      </trkpt>
      <trkpt lat="45.12525" lon="1.94539">
        <ele>287.8</ele>
        <time>2022-08-05T14:52:08Z</time>
      </trkpt>
      <trkpt lat="45.12529" lon="1.9454">
        <ele>286.6</ele>
        <time>2022-08-05T14:52:10Z</time>
      </trkpt>
      <trkpt lat="45.12533" lon="1.94539">
        <ele>285.4</ele>
        <time>2022-08-05T14:52:12Z</time>
      </trkpt>
      <trkpt lat="45.12537" lon="1.94538">
        <ele>284.5</ele>
        <time>2022-08-05T14:52:14Z</time>
      </trkpt>
      <trkpt lat="45.1254" lon="1.94537">
        <ele>283.7</ele>
        <time>2022-08-05T14:52:16Z</time>
      </trkpt>
      <trkpt lat="45.12543" lon="1.94535">
        <ele>282.9</ele>
        <time>2022-08-05T14:52:18Z</time>
      </trkpt>
      <trkpt lat="45.12546" lon="1.94532">
        <ele>282.5</ele>
        <time>2022-08-05T14:52:20Z</time>
      </trkpt>
      <trkpt lat="45.12549" lon="1.94528">
        <ele>282</ele>
        <time>2022-08-05T14:52:22Z</time>
      </trkpt>
      <trkpt lat="45.12552" lon="1.94525">
        <ele>281.6</ele>
        <time>2022-08-05T14:52:24Z</time>
      </trkpt>
      <trkpt lat="45.12553" lon="1.94522">
        <ele>281.6</ele>
        <time>2022-08-05T14:52:26Z</time>
      </trkpt>
      <trkpt lat="45.12555" lon="1.94517">
        <ele>281.5</ele>
        <time>2022-08-05T14:52:28Z</time>
      </trkpt>
      <trkpt lat="45.12556" lon="1.94512">
        <ele>281.7</ele>
        <time>2022-08-05T14:52:30Z</time>
      </trkpt>
      <trkpt lat="45.12558" lon="1.94506">
        <ele>281.8</ele>
        <time>2022-08-05T14:52:32Z</time>
      </trkpt>
      <trkpt lat="45.12558" lon="1.94501">
        <ele>282</ele>
        <time>2022-08-05T14:52:34Z</time>
      </trkpt>
      <trkpt lat="45.12559" lon="1.94496">
        <ele>281.8</ele>
        <time>2022-08-05T14:52:36Z</time>
      </trkpt>
      <trkpt lat="45.1256" lon="1.9449">
        <ele>281.4</ele>
        <time>2022-08-05T14:52:38Z</time>
      </trkpt>
      <trkpt lat="45.1256" lon="1.94484">
        <ele>281.4</ele>
        <time>2022-08-05T14:52:40Z</time>
      </trkpt>
      <trkpt lat="45.1256" lon="1.94479">
        <ele>281.2</ele>
        <time>2022-08-05T14:52:42Z</time>
      </trkpt>
      <trkpt lat="45.12558" lon="1.94473">
        <ele>281.5</ele>
        <time>2022-08-05T14:52:44Z</time>
      </trkpt>
      <trkpt lat="45.12558" lon="1.94469">
        <ele>281.6</ele>
        <time>2022-08-05T14:52:46Z</time>
      </trkpt>
      <trkpt lat="45.12557" lon="1.94464">
        <ele>281.6</ele>
        <time>2022-08-05T14:52:48Z</time>
      </trkpt>
      <trkpt lat="45.12555" lon="1.9446">
        <ele>282.2</ele>
        <time>2022-08-05T14:52:50Z</time>
      </trkpt>
      <trkpt lat="45.12553" lon="1.94455">
        <ele>282.8</ele>
        <time>2022-08-05T14:52:52Z</time>
      </trkpt>
      <trkpt lat="45.12551" lon="1.9445">
        <ele>283.4</ele>
        <time>2022-08-05T14:52:54Z</time>
      </trkpt>
      <trkpt lat="45.1255" lon="1.94446">
        <ele>283.9</ele>
        <time>2022-08-05T14:52:56Z</time>
      </trkpt>
      <trkpt lat="45.12547" lon="1.94443">
        <ele>284.8</ele>
        <time>2022-08-05T14:52:58Z</time>
      </trkpt>
      <trkpt lat="45.12544" lon="1.94441">
        <ele>285.7</ele>
        <time>2022-08-05T14:53:00Z</time>
      </trkpt>
      <trkpt lat="45.12542" lon="1.94438">
        <ele>286.4</ele>
        <time>2022-08-05T14:53:02Z</time>
      </trkpt>
      <trkpt lat="45.1254" lon="1.94435">
        <ele>287.4</ele>
        <time>2022-08-05T14:53:04Z</time>
      </trkpt>
      <trkpt lat="45.12536" lon="1.94431">
        <ele>288.7</ele>
        <time>2022-08-05T14:53:06Z</time>
      </trkpt>
      <trkpt lat="45.12533" lon="1.94428">
        <ele>289.7</ele>
        <time>2022-08-05T14:53:08Z</time>
      </trkpt>
      <trkpt lat="45.1253" lon="1.94425">
        <ele>290.9</ele>
        <time>2022-08-05T14:53:10Z</time>
      </trkpt>
      <trkpt lat="45.12527" lon="1.94423">
        <ele>292.2</ele>
        <time>2022-08-05T14:53:12Z</time>
      </trkpt>
      <trkpt lat="45.12525" lon="1.9442">
        <ele>293.2</ele>
        <time>2022-08-05T14:53:14Z</time>
      </trkpt>
      <trkpt lat="45.12522" lon="1.94418">
        <ele>294.2</ele>
        <time>2022-08-05T14:53:16Z</time>
      </trkpt>
      <trkpt lat="45.12519" lon="1.94414">
        <ele>295.4</ele>
        <time>2022-08-05T14:53:18Z</time>
      </trkpt>
      <trkpt lat="45.12517" lon="1.94411">
        <ele>296.2</ele>
        <time>2022-08-05T14:53:20Z</time>
      </trkpt>
      <trkpt lat="45.12514" lon="1.94409">
        <ele>297.5</ele>
        <time>2022-08-05T14:53:22Z</time>
      </trkpt>
      <trkpt lat="45.12511" lon="1.94407">
        <ele>298.5</ele>
        <time>2022-08-05T14:53:24Z</time>
      </trkpt>
      <trkpt lat="45.12508" lon="1.94404">
        <ele>299.7</ele>
        <time>2022-08-05T14:53:26Z</time>
      </trkpt>
      <trkpt lat="45.12506" lon="1.944">
        <ele>300.5</ele>
        <time>2022-08-05T14:53:28Z</time>
      </trkpt>
      <trkpt lat="45.12502" lon="1.94397">
        <ele>301.7</ele>
        <time>2022-08-05T14:53:30Z</time>
      </trkpt>
      <trkpt lat="45.125" lon="1.94394">
        <ele>302.4</ele>
        <time>2022-08-05T14:53:32Z</time>
      </trkpt>
      <trkpt lat="45.12497" lon="1.94391">
        <ele>303.3</ele>
        <time>2022-08-05T14:53:34Z</time>
      </trkpt>
      <trkpt lat="45.12495" lon="1.94386">
        <ele>303.9</ele>
        <time>2022-08-05T14:53:36Z</time>
      </trkpt>
      <trkpt lat="45.12493" lon="1.94383">
        <ele>304.6</ele>
        <time>2022-08-05T14:53:38Z</time>
      </trkpt>
      <trkpt lat="45.1249" lon="1.94378">
        <ele>305.4</ele>
        <time>2022-08-05T14:53:40Z</time>
      </trkpt>
      <trkpt lat="45.12488" lon="1.94373">
        <ele>306</ele>
        <time>2022-08-05T14:53:42Z</time>
      </trkpt>
      <trkpt lat="45.12487" lon="1.94369">
        <ele>306.2</ele>
        <time>2022-08-05T14:53:44Z</time>
      </trkpt>
      <trkpt lat="45.12486" lon="1.94362">
        <ele>306.4</ele>
        <time>2022-08-05T14:53:46Z</time>
      </trkpt>
      <trkpt lat="45.12484" lon="1.94356">
        <ele>307</ele>
        <time>2022-08-05T14:53:48Z</time>
      </trkpt>
      <trkpt lat="45.12484" lon="1.9435">
        <ele>306.9</ele>
        <time>2022-08-05T14:53:50Z</time>
      </trkpt>
      <trkpt lat="45.12483" lon="1.94344">
        <ele>307.2</ele>
        <time>2022-08-05T14:53:52Z</time>
      </trkpt>
      <trkpt lat="45.12482" lon="1.9434">
        <ele>307.3</ele>
        <time>2022-08-05T14:53:54Z</time>
      </trkpt>
      <trkpt lat="45.12482" lon="1.94335">
        <ele>307.4</ele>
        <time>2022-08-05T14:53:56Z</time>
      </trkpt>
      <trkpt lat="45.12481" lon="1.94328">
        <ele>307.8</ele>
        <time>2022-08-05T14:53:58Z</time>
      </trkpt>
      <trkpt lat="45.12482" lon="1.94322">
        <ele>308.1</ele>
        <time>2022-08-05T14:54:00Z</time>
      </trkpt>
      <trkpt lat="45.12482" lon="1.94316">
        <ele>308.5</ele>
        <time>2022-08-05T14:54:02Z</time>
      </trkpt>
      <trkpt lat="45.12484" lon="1.94309">
        <ele>308.4</ele>
        <time>2022-08-05T14:54:04Z</time>
      </trkpt>
      <trkpt lat="45.12486" lon="1.94305">
        <ele>308</ele>
        <time>2022-08-05T14:54:06Z</time>
      </trkpt>
      <trkpt lat="45.12489" lon="1.94299">
        <ele>307.5</ele>
        <time>2022-08-05T14:54:08Z</time>
      </trkpt>
      <trkpt lat="45.12491" lon="1.94296">
        <ele>307.2</ele>
        <time>2022-08-05T14:54:10Z</time>
      </trkpt>
      <trkpt lat="45.12492" lon="1.94291">
        <ele>307.2</ele>
        <time>2022-08-05T14:54:12Z</time>
      </trkpt>
      <trkpt lat="45.12492" lon="1.94289">
        <ele>307.4</ele>
        <time>2022-08-05T14:54:14Z</time>
      </trkpt>
      <trkpt lat="45.12495" lon="1.94286">
        <ele>306.9</ele>
        <time>2022-08-05T14:54:16Z</time>
      </trkpt>
      <trkpt lat="45.12499" lon="1.94283">
        <ele>306.1</ele>
        <time>2022-08-05T14:54:18Z</time>
      </trkpt>
      <trkpt lat="45.12502" lon="1.9428">
        <ele>305.5</ele>
        <time>2022-08-05T14:54:20Z</time>
      </trkpt>
      <trkpt lat="45.12506" lon="1.94277">
        <ele>304.9</ele>
        <time>2022-08-05T14:54:22Z</time>
      </trkpt>
      <trkpt lat="45.12509" lon="1.94274">
        <ele>304.2</ele>
        <time>2022-08-05T14:54:24Z</time>
      </trkpt>
      <trkpt lat="45.12511" lon="1.94271">
        <ele>304.1</ele>
        <time>2022-08-05T14:54:26Z</time>
      </trkpt>
      <trkpt lat="45.12515" lon="1.94269">
        <ele>303.2</ele>
        <time>2022-08-05T14:54:28Z</time>
      </trkpt>
      <trkpt lat="45.12517" lon="1.94267">
        <ele>302.8</ele>
        <time>2022-08-05T14:54:30Z</time>
      </trkpt>
      <trkpt lat="45.12521" lon="1.94265">
        <ele>302.2</ele>
        <time>2022-08-05T14:54:32Z</time>
      </trkpt>
      <trkpt lat="45.12523" lon="1.94262">
        <ele>301.9</ele>
        <time>2022-08-05T14:54:34Z</time>
      </trkpt>
      <trkpt lat="45.12525" lon="1.9426">
        <ele>301.6</ele>
        <time>2022-08-05T14:54:36Z</time>
      </trkpt>
      <trkpt lat="45.12529" lon="1.94257">
        <ele>300.8</ele>
        <time>2022-08-05T14:54:38Z</time>
      </trkpt>
      <trkpt lat="45.12532" lon="1.94253">
        <ele>300.6</ele>
        <time>2022-08-05T14:54:40Z</time>
      </trkpt>
      <trkpt lat="45.12535" lon="1.94251">
        <ele>300</ele>
        <time>2022-08-05T14:54:42Z</time>
      </trkpt>
      <trkpt lat="45.12537" lon="1.94247">
        <ele>300.1</ele>
        <time>2022-08-05T14:54:44Z</time>
      </trkpt>
      <trkpt lat="45.12539" lon="1.94244">
        <ele>299.7</ele>
        <time>2022-08-05T14:54:46Z</time>
      </trkpt>
      <trkpt lat="45.12542" lon="1.94241">
        <ele>299.3</ele>
        <time>2022-08-05T14:54:48Z</time>
      </trkpt>
      <trkpt lat="45.12545" lon="1.94237">
        <ele>299.1</ele>
        <time>2022-08-05T14:54:50Z</time>
      </trkpt>
      <trkpt lat="45.12547" lon="1.94233">
        <ele>298.9</ele>
        <time>2022-08-05T14:54:52Z</time>
      </trkpt>
      <trkpt lat="45.12549" lon="1.9423">
        <ele>298.8</ele>
        <time>2022-08-05T14:54:54Z</time>
      </trkpt>
      <trkpt lat="45.12551" lon="1.94226">
        <ele>298.6</ele>
        <time>2022-08-05T14:54:56Z</time>
      </trkpt>
      <trkpt lat="45.12553" lon="1.94222">
        <ele>298.5</ele>
        <time>2022-08-05T14:54:58Z</time>
      </trkpt>
      <trkpt lat="45.12554" lon="1.94218">
        <ele>298.7</ele>
        <time>2022-08-05T14:55:00Z</time>
      </trkpt>
      <trkpt lat="45.12556" lon="1.94214">
        <ele>298.7</ele>
        <time>2022-08-05T14:55:02Z</time>
      </trkpt>
      <trkpt lat="45.12558" lon="1.94209">
        <ele>298.6</ele>
        <time>2022-08-05T14:55:04Z</time>
      </trkpt>
      <trkpt lat="45.12559" lon="1.94205">
        <ele>298.7</ele>
        <time>2022-08-05T14:55:06Z</time>
      </trkpt>
      <trkpt lat="45.1256" lon="1.942">
        <ele>299</ele>
        <time>2022-08-05T14:55:08Z</time>
      </trkpt>
      <trkpt lat="45.12561" lon="1.94197">
        <ele>298.9</ele>
        <time>2022-08-05T14:55:10Z</time>
      </trkpt>
      <trkpt lat="45.12562" lon="1.94192">
        <ele>299.2</ele>
        <time>2022-08-05T14:55:12Z</time>
      </trkpt>
      <trkpt lat="45.12563" lon="1.94187">
        <ele>299.4</ele>
        <time>2022-08-05T14:55:14Z</time>
      </trkpt>
      <trkpt lat="45.12565" lon="1.94183">
        <ele>299.4</ele>
        <time>2022-08-05T14:55:16Z</time>
      </trkpt>
      <trkpt lat="45.12565" lon="1.94179">
        <ele>299.7</ele>
        <time>2022-08-05T14:55:18Z</time>
      </trkpt>
      <trkpt lat="45.12566" lon="1.94174">
        <ele>300.1</ele>
        <time>2022-08-05T14:55:20Z</time>
      </trkpt>
      <trkpt lat="45.12565" lon="1.94169">
        <ele>300.7</ele>
        <time>2022-08-05T14:55:22Z</time>
      </trkpt>
      <trkpt lat="45.12565" lon="1.94165">
        <ele>301</ele>
        <time>2022-08-05T14:55:24Z</time>
      </trkpt>
      <trkpt lat="45.12564" lon="1.9416">
        <ele>301</ele>
        <time>2022-08-05T14:55:26Z</time>
      </trkpt>
      <trkpt lat="45.12563" lon="1.94156">
        <ele>301</ele>
        <time>2022-08-05T14:55:28Z</time>
      </trkpt>
      <trkpt lat="45.12562" lon="1.94151">
        <ele>301.1</ele>
        <time>2022-08-05T14:55:30Z</time>
      </trkpt>
      <trkpt lat="45.1256" lon="1.94147">
        <ele>301.5</ele>
        <time>2022-08-05T14:55:32Z</time>
      </trkpt>
      <trkpt lat="45.12559" lon="1.94143">
        <ele>301.5</ele>
        <time>2022-08-05T14:55:34Z</time>
      </trkpt>
      <trkpt lat="45.12558" lon="1.9414">
        <ele>301.7</ele>
        <time>2022-08-05T14:55:36Z</time>
      </trkpt>
      <trkpt lat="45.12556" lon="1.94136">
        <ele>302.2</ele>
        <time>2022-08-05T14:55:38Z</time>
      </trkpt>
      <trkpt lat="45.12554" lon="1.94132">
        <ele>302.5</ele>
        <time>2022-08-05T14:55:40Z</time>
      </trkpt>
      <trkpt lat="45.12552" lon="1.94129">
        <ele>303</ele>
        <time>2022-08-05T14:55:42Z</time>
      </trkpt>
      <trkpt lat="45.12549" lon="1.94127">
        <ele>303.5</ele>
        <time>2022-08-05T14:55:44Z</time>
      </trkpt>
      <trkpt lat="45.12547" lon="1.94124">
        <ele>304</ele>
        <time>2022-08-05T14:55:46Z</time>
      </trkpt>
      <trkpt lat="45.12545" lon="1.94121">
        <ele>304.5</ele>
        <time>2022-08-05T14:55:48Z</time>
      </trkpt>
      <trkpt lat="45.12542" lon="1.94118">
        <ele>305.1</ele>
        <time>2022-08-05T14:55:50Z</time>
      </trkpt>
      <trkpt lat="45.12539" lon="1.94115">
        <ele>305.6</ele>
        <time>2022-08-05T14:55:52Z</time>
      </trkpt>
      <trkpt lat="45.12537" lon="1.94112">
        <ele>306.1</ele>
        <time>2022-08-05T14:55:54Z</time>
      </trkpt>
      <trkpt lat="45.12534" lon="1.94108">
        <ele>306.8</ele>
        <time>2022-08-05T14:55:56Z</time>
      </trkpt>
      <trkpt lat="45.12532" lon="1.94105">
        <ele>307.4</ele>
        <time>2022-08-05T14:55:58Z</time>
      </trkpt>
      <trkpt lat="45.12529" lon="1.94103">
        <ele>307.9</ele>
        <time>2022-08-05T14:56:00Z</time>
      </trkpt>
      <trkpt lat="45.12527" lon="1.941">
        <ele>308.4</ele>
        <time>2022-08-05T14:56:02Z</time>
      </trkpt>
      <trkpt lat="45.12524" lon="1.94098">
        <ele>309.2</ele>
        <time>2022-08-05T14:56:04Z</time>
      </trkpt>
      <trkpt lat="45.12522" lon="1.94097">
        <ele>309.6</ele>
        <time>2022-08-05T14:56:06Z</time>
      </trkpt>
      <trkpt lat="45.12519" lon="1.94096">
        <ele>310.3</ele>
        <time>2022-08-05T14:56:08Z</time>
      </trkpt>
      <trkpt lat="45.12516" lon="1.94095">
        <ele>311.1</ele>
        <time>2022-08-05T14:56:10Z</time>
      </trkpt>
      <trkpt lat="45.12513" lon="1.94094">
        <ele>311.8</ele>
        <time>2022-08-05T14:56:12Z</time>
      </trkpt>
      <trkpt lat="45.1251" lon="1.94092">
        <ele>312.5</ele>
        <time>2022-08-05T14:56:14Z</time>
      </trkpt>
      <trkpt lat="45.12508" lon="1.9409">
        <ele>313.3</ele>
        <time>2022-08-05T14:56:16Z</time>
      </trkpt>
      <trkpt lat="45.12505" lon="1.94089">
        <ele>314</ele>
        <time>2022-08-05T14:56:18Z</time>
      </trkpt>
      <trkpt lat="45.12502" lon="1.94088">
        <ele>314.7</ele>
        <time>2022-08-05T14:56:20Z</time>
      </trkpt>
      <trkpt lat="45.12499" lon="1.94086">
        <ele>315.1</ele>
        <time>2022-08-05T14:56:22Z</time>
      </trkpt>
      <trkpt lat="45.12496" lon="1.94084">
        <ele>315.1</ele>
        <time>2022-08-05T14:56:24Z</time>
      </trkpt>
      <trkpt lat="45.12494" lon="1.94081">
        <ele>314.9</ele>
        <time>2022-08-05T14:56:26Z</time>
      </trkpt>
      <trkpt lat="45.12492" lon="1.94079">
        <ele>314.8</ele>
        <time>2022-08-05T14:56:28Z</time>
      </trkpt>
      <trkpt lat="45.12489" lon="1.94077">
        <ele>314.7</ele>
        <time>2022-08-05T14:56:30Z</time>
      </trkpt>
      <trkpt lat="45.12487" lon="1.94073">
        <ele>314.6</ele>
        <time>2022-08-05T14:56:32Z</time>
      </trkpt>
      <trkpt lat="45.12484" lon="1.94071">
        <ele>314.6</ele>
        <time>2022-08-05T14:56:34Z</time>
      </trkpt>
      <trkpt lat="45.12482" lon="1.94069">
        <ele>314.5</ele>
        <time>2022-08-05T14:56:36Z</time>
      </trkpt>
      <trkpt lat="45.12479" lon="1.94066">
        <ele>314.5</ele>
        <time>2022-08-05T14:56:38Z</time>
      </trkpt>
      <trkpt lat="45.12476" lon="1.94064">
        <ele>314.5</ele>
        <time>2022-08-05T14:56:40Z</time>
      </trkpt>
      <trkpt lat="45.12473" lon="1.94062">
        <ele>314.5</ele>
        <time>2022-08-05T14:56:42Z</time>
      </trkpt>
      <trkpt lat="45.1247" lon="1.94058">
        <ele>314.6</ele>
        <time>2022-08-05T14:56:44Z</time>
      </trkpt>
      <trkpt lat="45.12467" lon="1.94056">
        <ele>314.7</ele>
        <time>2022-08-05T14:56:46Z</time>
      </trkpt>
      <trkpt lat="45.12464" lon="1.94053">
        <ele>314.7</ele>
        <time>2022-08-05T14:56:48Z</time>
      </trkpt>
      <trkpt lat="45.12462" lon="1.94051">
        <ele>314.8</ele>
        <time>2022-08-05T14:56:50Z</time>
      </trkpt>
      <trkpt lat="45.12462" lon="1.94051">
        <ele>314.8</ele>
        <time>2022-08-05T14:56:52Z</time>
      </trkpt>
      <trkpt lat="45.12462" lon="1.94049">
        <ele>314.8</ele>
        <time>2022-08-05T14:56:54Z</time>
      </trkpt>
      <trkpt lat="45.12462" lon="1.94049">
        <ele>314.8</ele>
        <time>2022-08-05T14:56:56Z</time>
      </trkpt>
      <trkpt lat="45.12453" lon="1.94044">
        <ele>315.3</ele>
        <time>2022-08-05T15:00:28Z</time>
      </trkpt>
      <trkpt lat="45.12451" lon="1.94043">
        <ele>315.4</ele>
        <time>2022-08-05T15:00:30Z</time>
      </trkpt>
      <trkpt lat="45.12447" lon="1.94044">
        <ele>315.6</ele>
        <time>2022-08-05T15:00:32Z</time>
      </trkpt>
      <trkpt lat="45.12442" lon="1.94043">
        <ele>315.9</ele>
        <time>2022-08-05T15:00:34Z</time>
      </trkpt>
      <trkpt lat="45.12436" lon="1.94044">
        <ele>316.3</ele>
        <time>2022-08-05T15:00:36Z</time>
      </trkpt>
      <trkpt lat="45.12429" lon="1.94048">
        <ele>316.5</ele>
        <time>2022-08-05T15:00:38Z</time>
      </trkpt>
      <trkpt lat="45.12421" lon="1.94056">
        <ele>316.5</ele>
        <time>2022-08-05T15:00:40Z</time>
      </trkpt>
      <trkpt lat="45.12415" lon="1.94065">
        <ele>315.7</ele>
        <time>2022-08-05T15:00:42Z</time>
      </trkpt>
      <trkpt lat="45.12407" lon="1.94076">
        <ele>313.2</ele>
        <time>2022-08-05T15:00:44Z</time>
      </trkpt>
      <trkpt lat="45.124" lon="1.94089">
        <ele>311.1</ele>
        <time>2022-08-05T15:00:46Z</time>
      </trkpt>
      <trkpt lat="45.12392" lon="1.94104">
        <ele>309.9</ele>
        <time>2022-08-05T15:00:48Z</time>
      </trkpt>
      <trkpt lat="45.12387" lon="1.9412">
        <ele>308.9</ele>
        <time>2022-08-05T15:00:50Z</time>
      </trkpt>
      <trkpt lat="45.12382" lon="1.94139">
        <ele>308.3</ele>
        <time>2022-08-05T15:00:52Z</time>
      </trkpt>
      <trkpt lat="45.12376" lon="1.94159">
        <ele>306.5</ele>
        <time>2022-08-05T15:00:54Z</time>
      </trkpt>
      <trkpt lat="45.12364" lon="1.94175">
        <ele>303.7</ele>
        <time>2022-08-05T15:00:56Z</time>
      </trkpt>
      <trkpt lat="45.12349" lon="1.94188">
        <ele>300.6</ele>
        <time>2022-08-05T15:00:58Z</time>
      </trkpt>
      <trkpt lat="45.12336" lon="1.94201">
        <ele>298.7</ele>
        <time>2022-08-05T15:01:00Z</time>
      </trkpt>
      <trkpt lat="45.12324" lon="1.9422">
        <ele>300</ele>
        <time>2022-08-05T15:01:02Z</time>
      </trkpt>
      <trkpt lat="45.12316" lon="1.94243">
        <ele>302.6</ele>
        <time>2022-08-05T15:01:04Z</time>
      </trkpt>
      <trkpt lat="45.12308" lon="1.94262">
        <ele>304.6</ele>
        <time>2022-08-05T15:01:06Z</time>
      </trkpt>
      <trkpt lat="45.12293" lon="1.94275">
        <ele>304.3</ele>
        <time>2022-08-05T15:01:08Z</time>
      </trkpt>
      <trkpt lat="45.12276" lon="1.94278">
        <ele>301.7</ele>
        <time>2022-08-05T15:01:10Z</time>
      </trkpt>
      <trkpt lat="45.12261" lon="1.94269">
        <ele>296.3</ele>
        <time>2022-08-05T15:01:12Z</time>
      </trkpt>
      <trkpt lat="45.12246" lon="1.9427">
        <ele>294.3</ele>
        <time>2022-08-05T15:01:14Z</time>
      </trkpt>
      <trkpt lat="45.1223" lon="1.94278">
        <ele>295.7</ele>
        <time>2022-08-05T15:01:16Z</time>
      </trkpt>
      <trkpt lat="45.12216" lon="1.94291">
        <ele>299.2</ele>
        <time>2022-08-05T15:01:18Z</time>
      </trkpt>
      <trkpt lat="45.122" lon="1.94304">
        <ele>302.8</ele>
        <time>2022-08-05T15:01:20Z</time>
      </trkpt>
      <trkpt lat="45.12183" lon="1.94316">
        <ele>305.8</ele>
        <time>2022-08-05T15:01:22Z</time>
      </trkpt>
      <trkpt lat="45.12165" lon="1.94321">
        <ele>306.9</ele>
        <time>2022-08-05T15:01:24Z</time>
      </trkpt>
      <trkpt lat="45.12151" lon="1.94313">
        <ele>305</ele>
        <time>2022-08-05T15:01:26Z</time>
      </trkpt>
      <trkpt lat="45.12143" lon="1.94291">
        <ele>297.5</ele>
        <time>2022-08-05T15:01:28Z</time>
      </trkpt>
      <trkpt lat="45.12136" lon="1.94274">
        <ele>291.5</ele>
        <time>2022-08-05T15:01:30Z</time>
      </trkpt>
      <trkpt lat="45.12122" lon="1.9426">
        <ele>287</ele>
        <time>2022-08-05T15:01:32Z</time>
      </trkpt>
      <trkpt lat="45.12107" lon="1.94255">
        <ele>285.2</ele>
        <time>2022-08-05T15:01:34Z</time>
      </trkpt>
      <trkpt lat="45.12091" lon="1.9425">
        <ele>283.9</ele>
        <time>2022-08-05T15:01:36Z</time>
      </trkpt>
      <trkpt lat="45.12073" lon="1.94245">
        <ele>281.9</ele>
        <time>2022-08-05T15:01:38Z</time>
      </trkpt>
      <trkpt lat="45.12054" lon="1.94244">
        <ele>279.4</ele>
        <time>2022-08-05T15:01:40Z</time>
      </trkpt>
      <trkpt lat="45.12034" lon="1.94245">
        <ele>277.5</ele>
        <time>2022-08-05T15:01:42Z</time>
      </trkpt>
      <trkpt lat="45.12014" lon="1.94252">
        <ele>277.6</ele>
        <time>2022-08-05T15:01:44Z</time>
      </trkpt>
      <trkpt lat="45.11996" lon="1.9426">
        <ele>278.7</ele>
        <time>2022-08-05T15:01:46Z</time>
      </trkpt>
      <trkpt lat="45.11976" lon="1.94266">
        <ele>277.6</ele>
        <time>2022-08-05T15:01:48Z</time>
      </trkpt>
      <trkpt lat="45.11957" lon="1.94274">
        <ele>277.6</ele>
        <time>2022-08-05T15:01:50Z</time>
      </trkpt>
      <trkpt lat="45.11936" lon="1.94279">
        <ele>276</ele>
        <time>2022-08-05T15:01:52Z</time>
      </trkpt>
      <trkpt lat="45.11915" lon="1.94281">
        <ele>273</ele>
        <time>2022-08-05T15:01:54Z</time>
      </trkpt>
      <trkpt lat="45.11894" lon="1.94285">
        <ele>271.2</ele>
        <time>2022-08-05T15:01:56Z</time>
      </trkpt>
      <trkpt lat="45.11874" lon="1.94293">
        <ele>271.6</ele>
        <time>2022-08-05T15:01:58Z</time>
      </trkpt>
      <trkpt lat="45.11856" lon="1.94302">
        <ele>272.2</ele>
        <time>2022-08-05T15:02:00Z</time>
      </trkpt>
      <trkpt lat="45.11836" lon="1.94302">
        <ele>268.4</ele>
        <time>2022-08-05T15:02:02Z</time>
      </trkpt>
      <trkpt lat="45.11816" lon="1.943">
        <ele>264.5</ele>
        <time>2022-08-05T15:02:04Z</time>
      </trkpt>
      <trkpt lat="45.11796" lon="1.94304">
        <ele>262.6</ele>
        <time>2022-08-05T15:02:06Z</time>
      </trkpt>
      <trkpt lat="45.11778" lon="1.94314">
        <ele>262.2</ele>
        <time>2022-08-05T15:02:08Z</time>
      </trkpt>
      <trkpt lat="45.1176" lon="1.94321">
        <ele>260.2</ele>
        <time>2022-08-05T15:02:10Z</time>
      </trkpt>
      <trkpt lat="45.11747" lon="1.94327">
        <ele>258.5</ele>
        <time>2022-08-05T15:02:12Z</time>
      </trkpt>
      <trkpt lat="45.11736" lon="1.94342">
        <ele>255.7</ele>
        <time>2022-08-05T15:02:14Z</time>
      </trkpt>
      <trkpt lat="45.11735" lon="1.94363">
        <ele>254.9</ele>
        <time>2022-08-05T15:02:16Z</time>
      </trkpt>
      <trkpt lat="45.11739" lon="1.94385">
        <ele>255.6</ele>
        <time>2022-08-05T15:02:18Z</time>
      </trkpt>
      <trkpt lat="45.11746" lon="1.94406">
        <ele>257.2</ele>
        <time>2022-08-05T15:02:20Z</time>
      </trkpt>
      <trkpt lat="45.11756" lon="1.94427">
        <ele>258.3</ele>
        <time>2022-08-05T15:02:22Z</time>
      </trkpt>
      <trkpt lat="45.11766" lon="1.94447">
        <ele>258.7</ele>
        <time>2022-08-05T15:02:24Z</time>
      </trkpt>
      <trkpt lat="45.11775" lon="1.9447">
        <ele>258.4</ele>
        <time>2022-08-05T15:02:26Z</time>
      </trkpt>
      <trkpt lat="45.11785" lon="1.94493">
        <ele>258.1</ele>
        <time>2022-08-05T15:02:28Z</time>
      </trkpt>
      <trkpt lat="45.11795" lon="1.94514">
        <ele>259.3</ele>
        <time>2022-08-05T15:02:30Z</time>
      </trkpt>
      <trkpt lat="45.11807" lon="1.94535">
        <ele>260.8</ele>
        <time>2022-08-05T15:02:32Z</time>
      </trkpt>
      <trkpt lat="45.11818" lon="1.94556">
        <ele>261</ele>
        <time>2022-08-05T15:02:34Z</time>
      </trkpt>
      <trkpt lat="45.11825" lon="1.94579">
        <ele>259</ele>
        <time>2022-08-05T15:02:36Z</time>
      </trkpt>
      <trkpt lat="45.1182" lon="1.94603">
        <ele>257.1</ele>
        <time>2022-08-05T15:02:38Z</time>
      </trkpt>
      <trkpt lat="45.11805" lon="1.94612">
        <ele>255.2</ele>
        <time>2022-08-05T15:02:40Z</time>
      </trkpt>
      <trkpt lat="45.11789" lon="1.94604">
        <ele>252.8</ele>
        <time>2022-08-05T15:02:42Z</time>
      </trkpt>
      <trkpt lat="45.1177" lon="1.94595">
        <ele>249.2</ele>
        <time>2022-08-05T15:02:44Z</time>
      </trkpt>
      <trkpt lat="45.11757" lon="1.94583">
        <ele>245.3</ele>
        <time>2022-08-05T15:02:46Z</time>
      </trkpt>
      <trkpt lat="45.1174" lon="1.94582">
        <ele>244.8</ele>
        <time>2022-08-05T15:02:48Z</time>
      </trkpt>
      <trkpt lat="45.11724" lon="1.94586">
        <ele>246.7</ele>
        <time>2022-08-05T15:02:50Z</time>
      </trkpt>
      <trkpt lat="45.11707" lon="1.94588">
        <ele>248.4</ele>
        <time>2022-08-05T15:02:52Z</time>
      </trkpt>
      <trkpt lat="45.11693" lon="1.94578">
        <ele>248.1</ele>
        <time>2022-08-05T15:02:54Z</time>
      </trkpt>
      <trkpt lat="45.11686" lon="1.94554">
        <ele>245.4</ele>
        <time>2022-08-05T15:02:56Z</time>
      </trkpt>
      <trkpt lat="45.11679" lon="1.94531">
        <ele>241.9</ele>
        <time>2022-08-05T15:02:58Z</time>
      </trkpt>
      <trkpt lat="45.11669" lon="1.9451">
        <ele>238</ele>
        <time>2022-08-05T15:03:00Z</time>
      </trkpt>
      <trkpt lat="45.11656" lon="1.9449">
        <ele>236.4</ele>
        <time>2022-08-05T15:03:02Z</time>
      </trkpt>
      <trkpt lat="45.11644" lon="1.94471">
        <ele>235.5</ele>
        <time>2022-08-05T15:03:04Z</time>
      </trkpt>
      <trkpt lat="45.11629" lon="1.94454">
        <ele>233.8</ele>
        <time>2022-08-05T15:03:06Z</time>
      </trkpt>
      <trkpt lat="45.11615" lon="1.94437">
        <ele>230.7</ele>
        <time>2022-08-05T15:03:08Z</time>
      </trkpt>
      <trkpt lat="45.11602" lon="1.94422">
        <ele>227.1</ele>
        <time>2022-08-05T15:03:10Z</time>
      </trkpt>
      <trkpt lat="45.11587" lon="1.94413">
        <ele>224</ele>
        <time>2022-08-05T15:03:12Z</time>
      </trkpt>
      <trkpt lat="45.1157" lon="1.94413">
        <ele>222.1</ele>
        <time>2022-08-05T15:03:14Z</time>
      </trkpt>
      <trkpt lat="45.11553" lon="1.94422">
        <ele>221.7</ele>
        <time>2022-08-05T15:03:16Z</time>
      </trkpt>
      <trkpt lat="45.11536" lon="1.94433">
        <ele>222.8</ele>
        <time>2022-08-05T15:03:18Z</time>
      </trkpt>
      <trkpt lat="45.11519" lon="1.94443">
        <ele>223.5</ele>
        <time>2022-08-05T15:03:20Z</time>
      </trkpt>
      <trkpt lat="45.11502" lon="1.94452">
        <ele>224.2</ele>
        <time>2022-08-05T15:03:22Z</time>
      </trkpt>
      <trkpt lat="45.11483" lon="1.9446">
        <ele>225.4</ele>
        <time>2022-08-05T15:03:24Z</time>
      </trkpt>
      <trkpt lat="45.11464" lon="1.94462">
        <ele>224.5</ele>
        <time>2022-08-05T15:03:26Z</time>
      </trkpt>
      <trkpt lat="45.11445" lon="1.94462">
        <ele>223.2</ele>
        <time>2022-08-05T15:03:28Z</time>
      </trkpt>
      <trkpt lat="45.11425" lon="1.9446">
        <ele>221.6</ele>
        <time>2022-08-05T15:03:30Z</time>
      </trkpt>
      <trkpt lat="45.11405" lon="1.94456">
        <ele>218.8</ele>
        <time>2022-08-05T15:03:32Z</time>
      </trkpt>
      <trkpt lat="45.11385" lon="1.94451">
        <ele>215.7</ele>
        <time>2022-08-05T15:03:34Z</time>
      </trkpt>
      <trkpt lat="45.11364" lon="1.94443">
        <ele>212.3</ele>
        <time>2022-08-05T15:03:36Z</time>
      </trkpt>
      <trkpt lat="45.11344" lon="1.94437">
        <ele>209.4</ele>
        <time>2022-08-05T15:03:38Z</time>
      </trkpt>
      <trkpt lat="45.11324" lon="1.94431">
        <ele>207.6</ele>
        <time>2022-08-05T15:03:40Z</time>
      </trkpt>
      <trkpt lat="45.11304" lon="1.94424">
        <ele>206.3</ele>
        <time>2022-08-05T15:03:42Z</time>
      </trkpt>
      <trkpt lat="45.11285" lon="1.9442">
        <ele>205.2</ele>
        <time>2022-08-05T15:03:44Z</time>
      </trkpt>
      <trkpt lat="45.11267" lon="1.94418">
        <ele>204.6</ele>
        <time>2022-08-05T15:03:46Z</time>
      </trkpt>
      <trkpt lat="45.1125" lon="1.94418">
        <ele>204.3</ele>
        <time>2022-08-05T15:03:48Z</time>
      </trkpt>
      <trkpt lat="45.11233" lon="1.94417">
        <ele>203.8</ele>
        <time>2022-08-05T15:03:50Z</time>
      </trkpt>
      <trkpt lat="45.11217" lon="1.94416">
        <ele>203.6</ele>
        <time>2022-08-05T15:03:52Z</time>
      </trkpt>
      <trkpt lat="45.11201" lon="1.94416">
        <ele>203.4</ele>
        <time>2022-08-05T15:03:54Z</time>
      </trkpt>
      <trkpt lat="45.11186" lon="1.94415">
        <ele>203.2</ele>
        <time>2022-08-05T15:03:56Z</time>
      </trkpt>
      <trkpt lat="45.1117" lon="1.94415">
        <ele>203</ele>
        <time>2022-08-05T15:03:58Z</time>
      </trkpt>
      <trkpt lat="45.11155" lon="1.94416">
        <ele>203</ele>
        <time>2022-08-05T15:04:00Z</time>
      </trkpt>
      <trkpt lat="45.11137" lon="1.94416">
        <ele>203</ele>
        <time>2022-08-05T15:04:02Z</time>
      </trkpt>
      <trkpt lat="45.1112" lon="1.94412">
        <ele>202.8</ele>
        <time>2022-08-05T15:04:04Z</time>
      </trkpt>
      <trkpt lat="45.11103" lon="1.94405">
        <ele>202.3</ele>
        <time>2022-08-05T15:04:06Z</time>
      </trkpt>
      <trkpt lat="45.11085" lon="1.94399">
        <ele>201.7</ele>
        <time>2022-08-05T15:04:08Z</time>
      </trkpt>
      <trkpt lat="45.11067" lon="1.94393">
        <ele>202.1</ele>
        <time>2022-08-05T15:04:10Z</time>
      </trkpt>
      <trkpt lat="45.11048" lon="1.94388">
        <ele>202.6</ele>
        <time>2022-08-05T15:04:12Z</time>
      </trkpt>
      <trkpt lat="45.11031" lon="1.94384">
        <ele>203.1</ele>
        <time>2022-08-05T15:04:14Z</time>
      </trkpt>
      <trkpt lat="45.11013" lon="1.94381">
        <ele>203.6</ele>
        <time>2022-08-05T15:04:16Z</time>
      </trkpt>
      <trkpt lat="45.10997" lon="1.94379">
        <ele>204.1</ele>
        <time>2022-08-05T15:04:18Z</time>
      </trkpt>
      <trkpt lat="45.10983" lon="1.94377">
        <ele>204.9</ele>
        <time>2022-08-05T15:04:20Z</time>
      </trkpt>
      <trkpt lat="45.10968" lon="1.94376">
        <ele>205.8</ele>
        <time>2022-08-05T15:04:22Z</time>
      </trkpt>
      <trkpt lat="45.10954" lon="1.94375">
        <ele>206.6</ele>
        <time>2022-08-05T15:04:24Z</time>
      </trkpt>
      <trkpt lat="45.10939" lon="1.94376">
        <ele>207.7</ele>
        <time>2022-08-05T15:04:26Z</time>
      </trkpt>
      <trkpt lat="45.10925" lon="1.94376">
        <ele>208.8</ele>
        <time>2022-08-05T15:04:28Z</time>
      </trkpt>
      <trkpt lat="45.10912" lon="1.94376">
        <ele>208.9</ele>
        <time>2022-08-05T15:04:30Z</time>
      </trkpt>
      <trkpt lat="45.109" lon="1.94377">
        <ele>208.4</ele>
        <time>2022-08-05T15:04:32Z</time>
      </trkpt>
      <trkpt lat="45.10887" lon="1.94377">
        <ele>207.5</ele>
        <time>2022-08-05T15:04:34Z</time>
      </trkpt>
      <trkpt lat="45.10876" lon="1.94382">
        <ele>207.8</ele>
        <time>2022-08-05T15:04:36Z</time>
      </trkpt>
      <trkpt lat="45.10862" lon="1.94382">
        <ele>207</ele>
        <time>2022-08-05T15:04:38Z</time>
      </trkpt>
      <trkpt lat="45.10848" lon="1.94381">
        <ele>205.7</ele>
        <time>2022-08-05T15:04:40Z</time>
      </trkpt>
      <trkpt lat="45.1084" lon="1.94394">
        <ele>207.8</ele>
        <time>2022-08-05T15:04:42Z</time>
      </trkpt>
      <trkpt lat="45.10829" lon="1.944">
        <ele>208.5</ele>
        <time>2022-08-05T15:04:44Z</time>
      </trkpt>
      <trkpt lat="45.10815" lon="1.94404">
        <ele>208.7</ele>
        <time>2022-08-05T15:04:46Z</time>
      </trkpt>
      <trkpt lat="45.10803" lon="1.9441">
        <ele>209</ele>
        <time>2022-08-05T15:04:48Z</time>
      </trkpt>
      <trkpt lat="45.1079" lon="1.94414">
        <ele>209</ele>
        <time>2022-08-05T15:04:50Z</time>
      </trkpt>
      <trkpt lat="45.10778" lon="1.94418">
        <ele>208.9</ele>
        <time>2022-08-05T15:04:52Z</time>
      </trkpt>
      <trkpt lat="45.10766" lon="1.94421">
        <ele>209.5</ele>
        <time>2022-08-05T15:04:54Z</time>
      </trkpt>
      <trkpt lat="45.10753" lon="1.94424">
        <ele>209.5</ele>
        <time>2022-08-05T15:04:56Z</time>
      </trkpt>
      <trkpt lat="45.10741" lon="1.94428">
        <ele>209.5</ele>
        <time>2022-08-05T15:04:58Z</time>
      </trkpt>
      <trkpt lat="45.10729" lon="1.94431">
        <ele>208.6</ele>
        <time>2022-08-05T15:05:00Z</time>
      </trkpt>
      <trkpt lat="45.10716" lon="1.94433">
        <ele>207.4</ele>
        <time>2022-08-05T15:05:02Z</time>
      </trkpt>
      <trkpt lat="45.10704" lon="1.94439">
        <ele>207.1</ele>
        <time>2022-08-05T15:05:04Z</time>
      </trkpt>
      <trkpt lat="45.10691" lon="1.9444">
        <ele>205.6</ele>
        <time>2022-08-05T15:05:06Z</time>
      </trkpt>
      <trkpt lat="45.10677" lon="1.94439">
        <ele>203.2</ele>
        <time>2022-08-05T15:05:08Z</time>
      </trkpt>
      <trkpt lat="45.10662" lon="1.94435">
        <ele>200.3</ele>
        <time>2022-08-05T15:05:10Z</time>
      </trkpt>
      <trkpt lat="45.10646" lon="1.94433">
        <ele>198.2</ele>
        <time>2022-08-05T15:05:12Z</time>
      </trkpt>
      <trkpt lat="45.10627" lon="1.94436">
        <ele>197.1</ele>
        <time>2022-08-05T15:05:14Z</time>
      </trkpt>
      <trkpt lat="45.10605" lon="1.94445">
        <ele>195.6</ele>
        <time>2022-08-05T15:05:16Z</time>
      </trkpt>
      <trkpt lat="45.10607" lon="1.94418">
        <ele>193.3</ele>
        <time>2022-08-05T15:05:18Z</time>
      </trkpt>
      <trkpt lat="45.10594" lon="1.94413">
        <ele>192.4</ele>
        <time>2022-08-05T15:05:20Z</time>
      </trkpt>
      <trkpt lat="45.10583" lon="1.94406">
        <ele>191.7</ele>
        <time>2022-08-05T15:05:22Z</time>
      </trkpt>
      <trkpt lat="45.10572" lon="1.944">
        <ele>191.1</ele>
        <time>2022-08-05T15:05:24Z</time>
      </trkpt>
      <trkpt lat="45.10562" lon="1.94393">
        <ele>190.5</ele>
        <time>2022-08-05T15:05:26Z</time>
      </trkpt>
      <trkpt lat="45.10553" lon="1.94385">
        <ele>190.1</ele>
        <time>2022-08-05T15:05:28Z</time>
      </trkpt>
      <trkpt lat="45.10543" lon="1.94378">
        <ele>189.8</ele>
        <time>2022-08-05T15:05:30Z</time>
      </trkpt>
      <trkpt lat="45.10534" lon="1.9437">
        <ele>189.6</ele>
        <time>2022-08-05T15:05:32Z</time>
      </trkpt>
      <trkpt lat="45.10526" lon="1.94364">
        <ele>189.5</ele>
        <time>2022-08-05T15:05:34Z</time>
      </trkpt>
      <trkpt lat="45.10517" lon="1.94357">
        <ele>189.4</ele>
        <time>2022-08-05T15:05:36Z</time>
      </trkpt>
      <trkpt lat="45.10509" lon="1.94351">
        <ele>189.5</ele>
        <time>2022-08-05T15:05:38Z</time>
      </trkpt>
      <trkpt lat="45.10501" lon="1.94346">
        <ele>189.6</ele>
        <time>2022-08-05T15:05:40Z</time>
      </trkpt>
      <trkpt lat="45.10493" lon="1.94341">
        <ele>189.7</ele>
        <time>2022-08-05T15:05:42Z</time>
      </trkpt>
      <trkpt lat="45.10487" lon="1.94335">
        <ele>189.8</ele>
        <time>2022-08-05T15:05:44Z</time>
      </trkpt>
      <trkpt lat="45.10479" lon="1.9433">
        <ele>189.8</ele>
        <time>2022-08-05T15:05:46Z</time>
      </trkpt>
      <trkpt lat="45.10471" lon="1.94326">
        <ele>189.6</ele>
        <time>2022-08-05T15:05:48Z</time>
      </trkpt>
      <trkpt lat="45.10464" lon="1.94324">
        <ele>189.6</ele>
        <time>2022-08-05T15:05:50Z</time>
      </trkpt>
      <trkpt lat="45.10456" lon="1.94323">
        <ele>189.5</ele>
        <time>2022-08-05T15:05:52Z</time>
      </trkpt>
      <trkpt lat="45.10447" lon="1.94323">
        <ele>189.4</ele>
        <time>2022-08-05T15:05:54Z</time>
      </trkpt>
      <trkpt lat="45.1044" lon="1.94322">
        <ele>189.3</ele>
        <time>2022-08-05T15:05:56Z</time>
      </trkpt>
      <trkpt lat="45.10432" lon="1.94322">
        <ele>189.2</ele>
        <time>2022-08-05T15:05:58Z</time>
      </trkpt>
      <trkpt lat="45.10424" lon="1.94323">
        <ele>189.1</ele>
        <time>2022-08-05T15:06:00Z</time>
      </trkpt>
      <trkpt lat="45.10416" lon="1.94324">
        <ele>189</ele>
        <time>2022-08-05T15:06:02Z</time>
      </trkpt>
      <trkpt lat="45.10408" lon="1.94325">
        <ele>189</ele>
        <time>2022-08-05T15:06:04Z</time>
      </trkpt>
      <trkpt lat="45.104" lon="1.94326">
        <ele>189</ele>
        <time>2022-08-05T15:06:06Z</time>
      </trkpt>
      <trkpt lat="45.10392" lon="1.94328">
        <ele>189</ele>
        <time>2022-08-05T15:06:08Z</time>
      </trkpt>
      <trkpt lat="45.10385" lon="1.94329">
        <ele>189</ele>
        <time>2022-08-05T15:06:10Z</time>
      </trkpt>
      <trkpt lat="45.10377" lon="1.94331">
        <ele>189</ele>
        <time>2022-08-05T15:06:12Z</time>
      </trkpt>
      <trkpt lat="45.10369" lon="1.94331">
        <ele>189</ele>
        <time>2022-08-05T15:06:14Z</time>
      </trkpt>
      <trkpt lat="45.10362" lon="1.94332">
        <ele>189</ele>
        <time>2022-08-05T15:06:16Z</time>
      </trkpt>
      <trkpt lat="45.10354" lon="1.94334">
        <ele>189</ele>
        <time>2022-08-05T15:06:18Z</time>
      </trkpt>
      <trkpt lat="45.10346" lon="1.94334">
        <ele>189</ele>
        <time>2022-08-05T15:06:20Z</time>
      </trkpt>
      <trkpt lat="45.1034" lon="1.94336">
        <ele>189</ele>
        <time>2022-08-05T15:06:22Z</time>
      </trkpt>
      <trkpt lat="45.10335" lon="1.94334">
        <ele>189</ele>
        <time>2022-08-05T15:06:24Z</time>
      </trkpt>
      <trkpt lat="45.1033" lon="1.94334">
        <ele>188.9</ele>
        <time>2022-08-05T15:06:26Z</time>
      </trkpt>
      <trkpt lat="45.10325" lon="1.94333">
        <ele>188.8</ele>
        <time>2022-08-05T15:06:28Z</time>
      </trkpt>
      <trkpt lat="45.10321" lon="1.94332">
        <ele>188.7</ele>
        <time>2022-08-05T15:06:30Z</time>
      </trkpt>
      <trkpt lat="45.10318" lon="1.9433">
        <ele>188.6</ele>
        <time>2022-08-05T15:06:32Z</time>
      </trkpt>
      <trkpt lat="45.10315" lon="1.94327">
        <ele>188.6</ele>
        <time>2022-08-05T15:06:34Z</time>
      </trkpt>
      <trkpt lat="45.10313" lon="1.94323">
        <ele>188.5</ele>
        <time>2022-08-05T15:06:36Z</time>
      </trkpt>
      <trkpt lat="45.1031" lon="1.94316">
        <ele>188.5</ele>
        <time>2022-08-05T15:06:38Z</time>
      </trkpt>
      <trkpt lat="45.10307" lon="1.94308">
        <ele>188.5</ele>
        <time>2022-08-05T15:06:40Z</time>
      </trkpt>
      <trkpt lat="45.10303" lon="1.943">
        <ele>188.4</ele>
        <time>2022-08-05T15:06:42Z</time>
      </trkpt>
      <trkpt lat="45.10299" lon="1.94292">
        <ele>188.4</ele>
        <time>2022-08-05T15:06:44Z</time>
      </trkpt>
      <trkpt lat="45.10294" lon="1.94285">
        <ele>188.3</ele>
        <time>2022-08-05T15:06:46Z</time>
      </trkpt>
      <trkpt lat="45.10289" lon="1.94278">
        <ele>188.3</ele>
        <time>2022-08-05T15:06:48Z</time>
      </trkpt>
      <trkpt lat="45.10283" lon="1.94271">
        <ele>188.3</ele>
        <time>2022-08-05T15:06:50Z</time>
      </trkpt>
      <trkpt lat="45.10278" lon="1.94264">
        <ele>188.2</ele>
        <time>2022-08-05T15:06:52Z</time>
      </trkpt>
      <trkpt lat="45.10273" lon="1.94257">
        <ele>188.2</ele>
        <time>2022-08-05T15:06:54Z</time>
      </trkpt>
      <trkpt lat="45.10267" lon="1.94249">
        <ele>188.2</ele>
        <time>2022-08-05T15:06:56Z</time>
      </trkpt>
      <trkpt lat="45.10262" lon="1.94242">
        <ele>188.1</ele>
        <time>2022-08-05T15:06:58Z</time>
      </trkpt>
      <trkpt lat="45.10257" lon="1.94234">
        <ele>188.1</ele>
        <time>2022-08-05T15:07:00Z</time>
      </trkpt>
      <trkpt lat="45.10252" lon="1.94227">
        <ele>188</ele>
        <time>2022-08-05T15:07:02Z</time>
      </trkpt>
      <trkpt lat="45.10247" lon="1.94219">
        <ele>187.9</ele>
        <time>2022-08-05T15:07:04Z</time>
      </trkpt>
      <trkpt lat="45.10242" lon="1.9421">
        <ele>187.9</ele>
        <time>2022-08-05T15:07:06Z</time>
      </trkpt>
      <trkpt lat="45.10237" lon="1.94202">
        <ele>187.8</ele>
        <time>2022-08-05T15:07:08Z</time>
      </trkpt>
      <trkpt lat="45.10233" lon="1.94194">
        <ele>187.8</ele>
        <time>2022-08-05T15:07:10Z</time>
      </trkpt>
      <trkpt lat="45.10228" lon="1.94186">
        <ele>187.8</ele>
        <time>2022-08-05T15:07:12Z</time>
      </trkpt>
      <trkpt lat="45.10223" lon="1.94178">
        <ele>187.9</ele>
        <time>2022-08-05T15:07:14Z</time>
      </trkpt>
      <trkpt lat="45.10218" lon="1.9417">
        <ele>188</ele>
        <time>2022-08-05T15:07:16Z</time>
      </trkpt>
      <trkpt lat="45.10213" lon="1.94163">
        <ele>188.1</ele>
        <time>2022-08-05T15:07:18Z</time>
      </trkpt>
      <trkpt lat="45.1021" lon="1.94154">
        <ele>188.3</ele>
        <time>2022-08-05T15:07:20Z</time>
      </trkpt>
      <trkpt lat="45.10205" lon="1.94147">
        <ele>188.5</ele>
        <time>2022-08-05T15:07:22Z</time>
      </trkpt>
      <trkpt lat="45.10201" lon="1.9414">
        <ele>188.7</ele>
        <time>2022-08-05T15:07:24Z</time>
      </trkpt>
      <trkpt lat="45.10196" lon="1.94132">
        <ele>188.9</ele>
        <time>2022-08-05T15:07:26Z</time>
      </trkpt>
      <trkpt lat="45.10191" lon="1.94126">
        <ele>189.2</ele>
        <time>2022-08-05T15:07:28Z</time>
      </trkpt>
      <trkpt lat="45.10186" lon="1.9412">
        <ele>189.4</ele>
        <time>2022-08-05T15:07:30Z</time>
      </trkpt>
      <trkpt lat="45.1018" lon="1.94115">
        <ele>189.7</ele>
        <time>2022-08-05T15:07:32Z</time>
      </trkpt>
      <trkpt lat="45.10174" lon="1.9411">
        <ele>189.9</ele>
        <time>2022-08-05T15:07:34Z</time>
      </trkpt>
      <trkpt lat="45.10168" lon="1.94106">
        <ele>190.2</ele>
        <time>2022-08-05T15:07:36Z</time>
      </trkpt>
      <trkpt lat="45.10161" lon="1.94104">
        <ele>190.1</ele>
        <time>2022-08-05T15:07:38Z</time>
      </trkpt>
      <trkpt lat="45.10153" lon="1.94102">
        <ele>189.9</ele>
        <time>2022-08-05T15:07:40Z</time>
      </trkpt>
      <trkpt lat="45.10146" lon="1.941">
        <ele>189.8</ele>
        <time>2022-08-05T15:07:42Z</time>
      </trkpt>
      <trkpt lat="45.10138" lon="1.94099">
        <ele>189.6</ele>
        <time>2022-08-05T15:07:44Z</time>
      </trkpt>
      <trkpt lat="45.10131" lon="1.94097">
        <ele>189.5</ele>
        <time>2022-08-05T15:07:46Z</time>
      </trkpt>
      <trkpt lat="45.10123" lon="1.94095">
        <ele>189.4</ele>
        <time>2022-08-05T15:07:48Z</time>
      </trkpt>
      <trkpt lat="45.10116" lon="1.94092">
        <ele>189.3</ele>
        <time>2022-08-05T15:07:50Z</time>
      </trkpt>
      <trkpt lat="45.10108" lon="1.94089">
        <ele>189.3</ele>
        <time>2022-08-05T15:07:52Z</time>
      </trkpt>
      <trkpt lat="45.10101" lon="1.94086">
        <ele>189.3</ele>
        <time>2022-08-05T15:07:54Z</time>
      </trkpt>
      <trkpt lat="45.10094" lon="1.94082">
        <ele>189.3</ele>
        <time>2022-08-05T15:07:56Z</time>
      </trkpt>
      <trkpt lat="45.10086" lon="1.94078">
        <ele>189.1</ele>
        <time>2022-08-05T15:07:58Z</time>
      </trkpt>
      <trkpt lat="45.10079" lon="1.94074">
        <ele>189.1</ele>
        <time>2022-08-05T15:08:00Z</time>
      </trkpt>
      <trkpt lat="45.10071" lon="1.9407">
        <ele>189.1</ele>
        <time>2022-08-05T15:08:02Z</time>
      </trkpt>
      <trkpt lat="45.10063" lon="1.94066">
        <ele>189.2</ele>
        <time>2022-08-05T15:08:04Z</time>
      </trkpt>
      <trkpt lat="45.10055" lon="1.94062">
        <ele>189.2</ele>
        <time>2022-08-05T15:08:06Z</time>
      </trkpt>
      <trkpt lat="45.10047" lon="1.94058">
        <ele>189.2</ele>
        <time>2022-08-05T15:08:08Z</time>
      </trkpt>
      <trkpt lat="45.1004" lon="1.94053">
        <ele>189.2</ele>
        <time>2022-08-05T15:08:10Z</time>
      </trkpt>
      <trkpt lat="45.10031" lon="1.9405">
        <ele>189.2</ele>
        <time>2022-08-05T15:08:12Z</time>
      </trkpt>
      <trkpt lat="45.10023" lon="1.94046">
        <ele>189.1</ele>
        <time>2022-08-05T15:08:14Z</time>
      </trkpt>
      <trkpt lat="45.10015" lon="1.94041">
        <ele>189.1</ele>
        <time>2022-08-05T15:08:16Z</time>
      </trkpt>
      <trkpt lat="45.10006" lon="1.94037">
        <ele>189</ele>
        <time>2022-08-05T15:08:18Z</time>
      </trkpt>
      <trkpt lat="45.09998" lon="1.94033">
        <ele>189</ele>
        <time>2022-08-05T15:08:20Z</time>
      </trkpt>
      <trkpt lat="45.0999" lon="1.94029">
        <ele>189</ele>
        <time>2022-08-05T15:08:22Z</time>
      </trkpt>
      <trkpt lat="45.09983" lon="1.94026">
        <ele>189.1</ele>
        <time>2022-08-05T15:08:24Z</time>
      </trkpt>
      <trkpt lat="45.09976" lon="1.94023">
        <ele>189.1</ele>
        <time>2022-08-05T15:08:26Z</time>
      </trkpt>
      <trkpt lat="45.09969" lon="1.9402">
        <ele>189.1</ele>
        <time>2022-08-05T15:08:28Z</time>
      </trkpt>
      <trkpt lat="45.09962" lon="1.94017">
        <ele>189.1</ele>
        <time>2022-08-05T15:08:30Z</time>
      </trkpt>
      <trkpt lat="45.09956" lon="1.94014">
        <ele>189.1</ele>
        <time>2022-08-05T15:08:32Z</time>
      </trkpt>
      <trkpt lat="45.09951" lon="1.94012">
        <ele>189.1</ele>
        <time>2022-08-05T15:08:34Z</time>
      </trkpt>
      <trkpt lat="45.09948" lon="1.94012">
        <ele>189.1</ele>
        <time>2022-08-05T15:08:36Z</time>
      </trkpt>
      <trkpt lat="45.0995" lon="1.94019">
        <ele>189.1</ele>
        <time>2022-08-05T15:08:38Z</time>
      </trkpt>
      <trkpt lat="45.09954" lon="1.94021">
        <ele>189.1</ele>
        <time>2022-08-05T15:08:40Z</time>
      </trkpt>
      <trkpt lat="45.09958" lon="1.94026">
        <ele>189.2</ele>
        <time>2022-08-05T15:08:42Z</time>
      </trkpt>
      <trkpt lat="45.09957" lon="1.94036">
        <ele>189.2</ele>
        <time>2022-08-05T15:08:44Z</time>
      </trkpt>
      <trkpt lat="45.09953" lon="1.94043">
        <ele>189.3</ele>
        <time>2022-08-05T15:08:46Z</time>
      </trkpt>
      <trkpt lat="45.0995" lon="1.94051">
        <ele>189.4</ele>
        <time>2022-08-05T15:08:48Z</time>
      </trkpt>
      <trkpt lat="45.09948" lon="1.9406">
        <ele>189.4</ele>
        <time>2022-08-05T15:08:50Z</time>
      </trkpt>
      <trkpt lat="45.09948" lon="1.94069">
        <ele>189.5</ele>
        <time>2022-08-05T15:08:52Z</time>
      </trkpt>
      <trkpt lat="45.09948" lon="1.94079">
        <ele>189.6</ele>
        <time>2022-08-05T15:08:54Z</time>
      </trkpt>
      <trkpt lat="45.09948" lon="1.94088">
        <ele>189.6</ele>
        <time>2022-08-05T15:08:56Z</time>
      </trkpt>
      <trkpt lat="45.0995" lon="1.94095">
        <ele>189.4</ele>
        <time>2022-08-05T15:08:58Z</time>
      </trkpt>
      <trkpt lat="45.09951" lon="1.94104">
        <ele>189.3</ele>
        <time>2022-08-05T15:09:00Z</time>
      </trkpt>
      <trkpt lat="45.0995" lon="1.94107">
        <ele>189.3</ele>
        <time>2022-08-05T15:09:02Z</time>
      </trkpt>
      <trkpt lat="45.0995" lon="1.94109">
        <ele>189.2</ele>
        <time>2022-08-05T15:09:04Z</time>
      </trkpt>
      <trkpt lat="45.09951" lon="1.94109">
        <ele>189.2</ele>
        <time>2022-08-05T15:09:06Z</time>
      </trkpt>
      <trkpt lat="45.09951" lon="1.94109">
        <ele>189.2</ele>
        <time>2022-08-05T15:09:08Z</time>
      </trkpt>
      <trkpt lat="45.09949" lon="1.9411">
        <ele>189.2</ele>
        <time>2022-08-05T15:09:10Z</time>
      </trkpt>
      <trkpt lat="45.09968" lon="1.9411">
        <ele>188.8</ele>
        <time>2022-08-05T15:11:52Z</time>
      </trkpt>
      <trkpt lat="45.09964" lon="1.94114">
        <ele>188.8</ele>
        <time>2022-08-05T15:11:53Z</time>
      </trkpt>
      <trkpt lat="45.09949" lon="1.94097">
        <ele>189.4</ele>
        <time>2022-08-05T15:13:03Z</time>
      </trkpt>
      <trkpt lat="45.09948" lon="1.94091">
        <ele>189.5</ele>
        <time>2022-08-05T15:13:05Z</time>
      </trkpt>
      <trkpt lat="45.09945" lon="1.94086">
        <ele>189.6</ele>
        <time>2022-08-05T15:13:07Z</time>
      </trkpt>
      <trkpt lat="45.09946" lon="1.9408">
        <ele>189.6</ele>
        <time>2022-08-05T15:13:09Z</time>
      </trkpt>
      <trkpt lat="45.09948" lon="1.94073">
        <ele>189.5</ele>
        <time>2022-08-05T15:13:11Z</time>
      </trkpt>
      <trkpt lat="45.09949" lon="1.94066">
        <ele>189.5</ele>
        <time>2022-08-05T15:13:13Z</time>
      </trkpt>
      <trkpt lat="45.09951" lon="1.94058">
        <ele>189.4</ele>
        <time>2022-08-05T15:13:15Z</time>
      </trkpt>
      <trkpt lat="45.09952" lon="1.94051">
        <ele>189.4</ele>
        <time>2022-08-05T15:13:17Z</time>
      </trkpt>
      <trkpt lat="45.09953" lon="1.94044">
        <ele>189.3</ele>
        <time>2022-08-05T15:13:19Z</time>
      </trkpt>
      <trkpt lat="45.09955" lon="1.94039">
        <ele>189.3</ele>
        <time>2022-08-05T15:13:21Z</time>
      </trkpt>
      <trkpt lat="45.09957" lon="1.94036">
        <ele>189.2</ele>
        <time>2022-08-05T15:13:23Z</time>
      </trkpt>
      <trkpt lat="45.09959" lon="1.94033">
        <ele>189.2</ele>
        <time>2022-08-05T15:13:25Z</time>
      </trkpt>
      <trkpt lat="45.0996" lon="1.94031">
        <ele>189.2</ele>
        <time>2022-08-05T15:13:27Z</time>
      </trkpt>
      <trkpt lat="45.0996" lon="1.94027">
        <ele>189.2</ele>
        <time>2022-08-05T15:13:29Z</time>
      </trkpt>
      <trkpt lat="45.0996" lon="1.94025">
        <ele>189.1</ele>
        <time>2022-08-05T15:13:31Z</time>
      </trkpt>
      <trkpt lat="45.0996" lon="1.94026">
        <ele>189.1</ele>
        <time>2022-08-05T15:13:33Z</time>
      </trkpt>
      <trkpt lat="45.0996" lon="1.94026">
        <ele>189.1</ele>
        <time>2022-08-05T15:13:35Z</time>
      </trkpt>
      <trkpt lat="45.0996" lon="1.94026">
        <ele>189.1</ele>
        <time>2022-08-05T15:13:37Z</time>
      </trkpt>
      <trkpt lat="45.0996" lon="1.94026">
        <ele>189.1</ele>
        <time>2022-08-05T15:13:39Z</time>
      </trkpt>
      <trkpt lat="45.0995" lon="1.9401">
        <ele>189.1</ele>
        <time>2022-08-05T15:13:49Z</time>
      </trkpt>
      <trkpt lat="45.09943" lon="1.94007">
        <ele>189.1</ele>
        <time>2022-08-05T15:13:51Z</time>
      </trkpt>
      <trkpt lat="45.09935" lon="1.94004">
        <ele>189</ele>
        <time>2022-08-05T15:13:53Z</time>
      </trkpt>
      <trkpt lat="45.09928" lon="1.94002">
        <ele>189</ele>
        <time>2022-08-05T15:13:55Z</time>
      </trkpt>
      <trkpt lat="45.09921" lon="1.93998">
        <ele>189</ele>
        <time>2022-08-05T15:13:57Z</time>
      </trkpt>
      <trkpt lat="45.09913" lon="1.93996">
        <ele>189</ele>
        <time>2022-08-05T15:13:59Z</time>
      </trkpt>
      <trkpt lat="45.09905" lon="1.93993">
        <ele>189.1</ele>
        <time>2022-08-05T15:14:01Z</time>
      </trkpt>
      <trkpt lat="45.09897" lon="1.93989">
        <ele>189.2</ele>
        <time>2022-08-05T15:14:03Z</time>
      </trkpt>
      <trkpt lat="45.09889" lon="1.93986">
        <ele>189.3</ele>
        <time>2022-08-05T15:14:05Z</time>
      </trkpt>
      <trkpt lat="45.09881" lon="1.93983">
        <ele>189.4</ele>
        <time>2022-08-05T15:14:07Z</time>
      </trkpt>
      <trkpt lat="45.09874" lon="1.9398">
        <ele>189.5</ele>
        <time>2022-08-05T15:14:09Z</time>
      </trkpt>
      <trkpt lat="45.09866" lon="1.93977">
        <ele>189.6</ele>
        <time>2022-08-05T15:14:11Z</time>
      </trkpt>
      <trkpt lat="45.09858" lon="1.93973">
        <ele>189.7</ele>
        <time>2022-08-05T15:14:13Z</time>
      </trkpt>
      <trkpt lat="45.0985" lon="1.93969">
        <ele>189.8</ele>
        <time>2022-08-05T15:14:15Z</time>
      </trkpt>
      <trkpt lat="45.09843" lon="1.93964">
        <ele>189.9</ele>
        <time>2022-08-05T15:14:17Z</time>
      </trkpt>
      <trkpt lat="45.09835" lon="1.9396">
        <ele>190</ele>
        <time>2022-08-05T15:14:19Z</time>
      </trkpt>
      <trkpt lat="45.09827" lon="1.93956">
        <ele>190</ele>
        <time>2022-08-05T15:14:21Z</time>
      </trkpt>
      <trkpt lat="45.0982" lon="1.93951">
        <ele>190.1</ele>
        <time>2022-08-05T15:14:23Z</time>
      </trkpt>
      <trkpt lat="45.09812" lon="1.93947">
        <ele>190.2</ele>
        <time>2022-08-05T15:14:25Z</time>
      </trkpt>
      <trkpt lat="45.09804" lon="1.93943">
        <ele>190.4</ele>
        <time>2022-08-05T15:14:27Z</time>
      </trkpt>
      <trkpt lat="45.09797" lon="1.93938">
        <ele>190.5</ele>
        <time>2022-08-05T15:14:29Z</time>
      </trkpt>
      <trkpt lat="45.09789" lon="1.93934">
        <ele>190.7</ele>
        <time>2022-08-05T15:14:31Z</time>
      </trkpt>
      <trkpt lat="45.09781" lon="1.9393">
        <ele>191</ele>
        <time>2022-08-05T15:14:33Z</time>
      </trkpt>
      <trkpt lat="45.09773" lon="1.93926">
        <ele>191.2</ele>
        <time>2022-08-05T15:14:35Z</time>
      </trkpt>
      <trkpt lat="45.09765" lon="1.93922">
        <ele>191.5</ele>
        <time>2022-08-05T15:14:37Z</time>
      </trkpt>
      <trkpt lat="45.09757" lon="1.93918">
        <ele>191.8</ele>
        <time>2022-08-05T15:14:39Z</time>
      </trkpt>
      <trkpt lat="45.09749" lon="1.93915">
        <ele>192</ele>
        <time>2022-08-05T15:14:41Z</time>
      </trkpt>
      <trkpt lat="45.0974" lon="1.93912">
        <ele>191.9</ele>
        <time>2022-08-05T15:14:43Z</time>
      </trkpt>
      <trkpt lat="45.09732" lon="1.93909">
        <ele>191.9</ele>
        <time>2022-08-05T15:14:45Z</time>
      </trkpt>
      <trkpt lat="45.09724" lon="1.93905">
        <ele>191.9</ele>
        <time>2022-08-05T15:14:47Z</time>
      </trkpt>
      <trkpt lat="45.09716" lon="1.93902">
        <ele>191.8</ele>
        <time>2022-08-05T15:14:49Z</time>
      </trkpt>
      <trkpt lat="45.09708" lon="1.939">
        <ele>191.8</ele>
        <time>2022-08-05T15:14:51Z</time>
      </trkpt>
      <trkpt lat="45.09699" lon="1.93896">
        <ele>191.8</ele>
        <time>2022-08-05T15:14:53Z</time>
      </trkpt>
      <trkpt lat="45.09691" lon="1.93894">
        <ele>191.7</ele>
        <time>2022-08-05T15:14:55Z</time>
      </trkpt>
      <trkpt lat="45.09683" lon="1.93892">
        <ele>191.7</ele>
        <time>2022-08-05T15:14:57Z</time>
      </trkpt>
      <trkpt lat="45.09675" lon="1.9389">
        <ele>191.7</ele>
        <time>2022-08-05T15:14:59Z</time>
      </trkpt>
      <trkpt lat="45.09668" lon="1.93888">
        <ele>191.7</ele>
        <time>2022-08-05T15:15:01Z</time>
      </trkpt>
      <trkpt lat="45.0966" lon="1.93886">
        <ele>191.7</ele>
        <time>2022-08-05T15:15:03Z</time>
      </trkpt>
      <trkpt lat="45.09652" lon="1.93883">
        <ele>191.7</ele>
        <time>2022-08-05T15:15:05Z</time>
      </trkpt>
      <trkpt lat="45.09644" lon="1.93881">
        <ele>191.8</ele>
        <time>2022-08-05T15:15:07Z</time>
      </trkpt>
      <trkpt lat="45.09635" lon="1.93879">
        <ele>191.9</ele>
        <time>2022-08-05T15:15:09Z</time>
      </trkpt>
      <trkpt lat="45.09627" lon="1.93876">
        <ele>192</ele>
        <time>2022-08-05T15:15:11Z</time>
      </trkpt>
      <trkpt lat="45.0962" lon="1.93875">
        <ele>192.1</ele>
        <time>2022-08-05T15:15:13Z</time>
      </trkpt>
      <trkpt lat="45.09612" lon="1.93872">
        <ele>192.2</ele>
        <time>2022-08-05T15:15:15Z</time>
      </trkpt>
      <trkpt lat="45.09605" lon="1.9387">
        <ele>192.3</ele>
        <time>2022-08-05T15:15:17Z</time>
      </trkpt>
      <trkpt lat="45.09598" lon="1.93868">
        <ele>192.4</ele>
        <time>2022-08-05T15:15:19Z</time>
      </trkpt>
      <trkpt lat="45.09591" lon="1.93866">
        <ele>192.5</ele>
        <time>2022-08-05T15:15:21Z</time>
      </trkpt>
      <trkpt lat="45.09584" lon="1.93864">
        <ele>192.6</ele>
        <time>2022-08-05T15:15:23Z</time>
      </trkpt>
      <trkpt lat="45.09578" lon="1.93862">
        <ele>192.7</ele>
        <time>2022-08-05T15:15:25Z</time>
      </trkpt>
      <trkpt lat="45.09571" lon="1.9386">
        <ele>192.7</ele>
        <time>2022-08-05T15:15:27Z</time>
      </trkpt>
      <trkpt lat="45.09564" lon="1.93857">
        <ele>192.7</ele>
        <time>2022-08-05T15:15:29Z</time>
      </trkpt>
      <trkpt lat="45.09558" lon="1.93855">
        <ele>192.7</ele>
        <time>2022-08-05T15:15:31Z</time>
      </trkpt>
      <trkpt lat="45.09551" lon="1.93854">
        <ele>192.8</ele>
        <time>2022-08-05T15:15:33Z</time>
      </trkpt>
      <trkpt lat="45.09545" lon="1.93852">
        <ele>192.8</ele>
        <time>2022-08-05T15:15:35Z</time>
      </trkpt>
      <trkpt lat="45.0954" lon="1.93851">
        <ele>192.8</ele>
        <time>2022-08-05T15:15:37Z</time>
      </trkpt>
      <trkpt lat="45.09535" lon="1.93849">
        <ele>192.8</ele>
        <time>2022-08-05T15:15:39Z</time>
      </trkpt>
      <trkpt lat="45.0953" lon="1.93846">
        <ele>192.8</ele>
        <time>2022-08-05T15:15:41Z</time>
      </trkpt>
      <trkpt lat="45.09526" lon="1.93842">
        <ele>192.9</ele>
        <time>2022-08-05T15:15:43Z</time>
      </trkpt>
      <trkpt lat="45.09522" lon="1.93837">
        <ele>193</ele>
        <time>2022-08-05T15:15:45Z</time>
      </trkpt>
      <trkpt lat="45.09517" lon="1.93835">
        <ele>193</ele>
        <time>2022-08-05T15:15:47Z</time>
      </trkpt>
      <trkpt lat="45.09512" lon="1.93837">
        <ele>193</ele>
        <time>2022-08-05T15:15:49Z</time>
      </trkpt>
      <trkpt lat="45.09506" lon="1.93841">
        <ele>192.9</ele>
        <time>2022-08-05T15:15:51Z</time>
      </trkpt>
      <trkpt lat="45.09499" lon="1.93845">
        <ele>192.9</ele>
        <time>2022-08-05T15:15:53Z</time>
      </trkpt>
      <trkpt lat="45.09492" lon="1.93844">
        <ele>192.8</ele>
        <time>2022-08-05T15:15:55Z</time>
      </trkpt>
      <trkpt lat="45.09485" lon="1.93843">
        <ele>192.7</ele>
        <time>2022-08-05T15:15:57Z</time>
      </trkpt>
      <trkpt lat="45.09478" lon="1.93842">
        <ele>192.6</ele>
        <time>2022-08-05T15:15:59Z</time>
      </trkpt>
      <trkpt lat="45.09471" lon="1.93841">
        <ele>192.6</ele>
        <time>2022-08-05T15:16:01Z</time>
      </trkpt>
      <trkpt lat="45.09464" lon="1.9384">
        <ele>192.5</ele>
        <time>2022-08-05T15:16:03Z</time>
      </trkpt>
      <trkpt lat="45.09457" lon="1.93839">
        <ele>192.4</ele>
        <time>2022-08-05T15:16:05Z</time>
      </trkpt>
      <trkpt lat="45.09449" lon="1.93838">
        <ele>192.3</ele>
        <time>2022-08-05T15:16:07Z</time>
      </trkpt>
      <trkpt lat="45.09442" lon="1.93836">
        <ele>192.3</ele>
        <time>2022-08-05T15:16:09Z</time>
      </trkpt>
      <trkpt lat="45.09434" lon="1.93835">
        <ele>192.2</ele>
        <time>2022-08-05T15:16:11Z</time>
      </trkpt>
      <trkpt lat="45.09427" lon="1.93834">
        <ele>192.1</ele>
        <time>2022-08-05T15:16:13Z</time>
      </trkpt>
      <trkpt lat="45.09419" lon="1.93831">
        <ele>192.1</ele>
        <time>2022-08-05T15:16:15Z</time>
      </trkpt>
      <trkpt lat="45.09411" lon="1.9383">
        <ele>192.2</ele>
        <time>2022-08-05T15:16:17Z</time>
      </trkpt>
      <trkpt lat="45.09403" lon="1.93829">
        <ele>192.4</ele>
        <time>2022-08-05T15:16:19Z</time>
      </trkpt>
      <trkpt lat="45.09396" lon="1.93827">
        <ele>192.6</ele>
        <time>2022-08-05T15:16:21Z</time>
      </trkpt>
      <trkpt lat="45.09389" lon="1.93825">
        <ele>192.8</ele>
        <time>2022-08-05T15:16:23Z</time>
      </trkpt>
      <trkpt lat="45.09382" lon="1.93825">
        <ele>192.9</ele>
        <time>2022-08-05T15:16:25Z</time>
      </trkpt>
      <trkpt lat="45.09376" lon="1.93823">
        <ele>193.1</ele>
        <time>2022-08-05T15:16:27Z</time>
      </trkpt>
      <trkpt lat="45.09373" lon="1.93818">
        <ele>193.2</ele>
        <time>2022-08-05T15:16:29Z</time>
      </trkpt>
      <trkpt lat="45.09371" lon="1.93816">
        <ele>193.3</ele>
        <time>2022-08-05T15:16:31Z</time>
      </trkpt>
      <trkpt lat="45.09369" lon="1.93816">
        <ele>193.4</ele>
        <time>2022-08-05T15:16:33Z</time>
      </trkpt>
      <trkpt lat="45.09368" lon="1.9382">
        <ele>193.3</ele>
        <time>2022-08-05T15:16:35Z</time>
      </trkpt>
      <trkpt lat="45.09367" lon="1.93827">
        <ele>193.3</ele>
        <time>2022-08-05T15:16:37Z</time>
      </trkpt>
      <trkpt lat="45.09364" lon="1.93832">
        <ele>193.3</ele>
        <time>2022-08-05T15:16:39Z</time>
      </trkpt>
      <trkpt lat="45.09362" lon="1.93839">
        <ele>193.2</ele>
        <time>2022-08-05T15:16:41Z</time>
      </trkpt>
      <trkpt lat="45.0936" lon="1.93845">
        <ele>193.1</ele>
        <time>2022-08-05T15:16:43Z</time>
      </trkpt>
      <trkpt lat="45.09357" lon="1.93853">
        <ele>193</ele>
        <time>2022-08-05T15:16:45Z</time>
      </trkpt>
      <trkpt lat="45.09352" lon="1.9386">
        <ele>193</ele>
        <time>2022-08-05T15:16:47Z</time>
      </trkpt>
      <trkpt lat="45.09348" lon="1.93865">
        <ele>193</ele>
        <time>2022-08-05T15:16:49Z</time>
      </trkpt>
      <trkpt lat="45.09343" lon="1.93869">
        <ele>193</ele>
        <time>2022-08-05T15:16:51Z</time>
      </trkpt>
      <trkpt lat="45.09339" lon="1.93874">
        <ele>192.9</ele>
        <time>2022-08-05T15:16:53Z</time>
      </trkpt>
      <trkpt lat="45.09333" lon="1.93878">
        <ele>192.9</ele>
        <time>2022-08-05T15:16:55Z</time>
      </trkpt>
      <trkpt lat="45.09328" lon="1.93883">
        <ele>192.7</ele>
        <time>2022-08-05T15:16:57Z</time>
      </trkpt>
      <trkpt lat="45.09322" lon="1.93889">
        <ele>192.4</ele>
        <time>2022-08-05T15:16:59Z</time>
      </trkpt>
      <trkpt lat="45.09318" lon="1.93896">
        <ele>192</ele>
        <time>2022-08-05T15:17:01Z</time>
      </trkpt>
      <trkpt lat="45.09312" lon="1.93899">
        <ele>191.8</ele>
        <time>2022-08-05T15:17:03Z</time>
      </trkpt>
      <trkpt lat="45.09307" lon="1.93902">
        <ele>191.5</ele>
        <time>2022-08-05T15:17:05Z</time>
      </trkpt>
      <trkpt lat="45.09303" lon="1.93905">
        <ele>191.3</ele>
        <time>2022-08-05T15:17:07Z</time>
      </trkpt>
      <trkpt lat="45.09301" lon="1.93906">
        <ele>191.2</ele>
        <time>2022-08-05T15:17:09Z</time>
      </trkpt>
      <trkpt lat="45.09299" lon="1.93905">
        <ele>191.1</ele>
        <time>2022-08-05T15:17:11Z</time>
      </trkpt>
      <trkpt lat="45.09296" lon="1.93907">
        <ele>191</ele>
        <time>2022-08-05T15:17:13Z</time>
      </trkpt>
      <trkpt lat="45.09294" lon="1.9391">
        <ele>190.8</ele>
        <time>2022-08-05T15:17:15Z</time>
      </trkpt>
      <trkpt lat="45.0929" lon="1.93914">
        <ele>190.6</ele>
        <time>2022-08-05T15:17:17Z</time>
      </trkpt>
      <trkpt lat="45.09284" lon="1.93916">
        <ele>190.3</ele>
        <time>2022-08-05T15:17:19Z</time>
      </trkpt>
      <trkpt lat="45.09282" lon="1.9392">
        <ele>190</ele>
        <time>2022-08-05T15:17:21Z</time>
      </trkpt>
      <trkpt lat="45.09284" lon="1.93924">
        <ele>189.9</ele>
        <time>2022-08-05T15:17:23Z</time>
      </trkpt>
      <trkpt lat="45.09284" lon="1.93923">
        <ele>190</ele>
        <time>2022-08-05T15:17:25Z</time>
      </trkpt>
      <trkpt lat="45.09284" lon="1.93921">
        <ele>190.1</ele>
        <time>2022-08-05T15:17:27Z</time>
      </trkpt>
      <trkpt lat="45.09284" lon="1.9392">
        <ele>190.1</ele>
        <time>2022-08-05T15:17:29Z</time>
      </trkpt>
      <trkpt lat="45.09285" lon="1.93919">
        <ele>190.1</ele>
        <time>2022-08-05T15:17:31Z</time>
      </trkpt>
      <trkpt lat="45.09285" lon="1.93919">
        <ele>190.2</ele>
        <time>2022-08-05T15:17:33Z</time>
      </trkpt>
      <trkpt lat="45.09283" lon="1.93937">
        <ele>189.4</ele>
        <time>2022-08-05T16:15:33Z</time>
      </trkpt>
      <trkpt lat="45.09293" lon="1.93929">
        <ele>190.1</ele>
        <time>2022-08-05T16:15:34Z</time>
      </trkpt>
      <trkpt lat="45.09304" lon="1.93936">
        <ele>190.3</ele>
        <time>2022-08-05T16:16:00Z</time>
      </trkpt>
      <trkpt lat="45.09306" lon="1.93941">
        <ele>190.2</ele>
        <time>2022-08-05T16:16:02Z</time>
      </trkpt>
      <trkpt lat="45.09308" lon="1.93948">
        <ele>190.1</ele>
        <time>2022-08-05T16:16:04Z</time>
      </trkpt>
      <trkpt lat="45.09312" lon="1.93952">
        <ele>190.1</ele>
        <time>2022-08-05T16:16:06Z</time>
      </trkpt>
      <trkpt lat="45.09312" lon="1.9396">
        <ele>189.9</ele>
        <time>2022-08-05T16:16:08Z</time>
      </trkpt>
      <trkpt lat="45.09313" lon="1.93968">
        <ele>189.7</ele>
        <time>2022-08-05T16:16:10Z</time>
      </trkpt>
      <trkpt lat="45.09314" lon="1.93977">
        <ele>189.5</ele>
        <time>2022-08-05T16:16:12Z</time>
      </trkpt>
      <trkpt lat="45.09316" lon="1.93984">
        <ele>189.4</ele>
        <time>2022-08-05T16:16:14Z</time>
      </trkpt>
      <trkpt lat="45.09317" lon="1.93991">
        <ele>189.2</ele>
        <time>2022-08-05T16:16:16Z</time>
      </trkpt>
      <trkpt lat="45.09318" lon="1.93995">
        <ele>189.2</ele>
        <time>2022-08-05T16:16:18Z</time>
      </trkpt>
      <trkpt lat="45.09318" lon="1.93997">
        <ele>189.2</ele>
        <time>2022-08-05T16:16:20Z</time>
      </trkpt>
      <trkpt lat="45.09319" lon="1.93999">
        <ele>189.2</ele>
        <time>2022-08-05T16:16:22Z</time>
      </trkpt>
      <trkpt lat="45.0932" lon="1.93998">
        <ele>189.2</ele>
        <time>2022-08-05T16:16:24Z</time>
      </trkpt>
      <trkpt lat="45.0932" lon="1.93998">
        <ele>189.2</ele>
        <time>2022-08-05T16:16:26Z</time>
      </trkpt>
      <trkpt lat="45.09319" lon="1.93998">
        <ele>189.2</ele>
        <time>2022-08-05T16:16:28Z</time>
      </trkpt>
      <trkpt lat="45.09319" lon="1.93999">
        <ele>189.1</ele>
        <time>2022-08-05T16:16:30Z</time>
      </trkpt>
      <trkpt lat="45.09304" lon="1.93893">
        <ele>191.7</ele>
        <time>2022-08-05T16:19:02Z</time>
      </trkpt>
      <trkpt lat="45.09308" lon="1.93889">
        <ele>192</ele>
        <time>2022-08-05T16:19:04Z</time>
      </trkpt>
      <trkpt lat="45.09313" lon="1.93884">
        <ele>192.2</ele>
        <time>2022-08-05T16:19:06Z</time>
      </trkpt>
      <trkpt lat="45.09318" lon="1.93881">
        <ele>192.5</ele>
        <time>2022-08-05T16:19:08Z</time>
      </trkpt>
      <trkpt lat="45.09323" lon="1.93876">
        <ele>192.7</ele>
        <time>2022-08-05T16:19:10Z</time>
      </trkpt>
      <trkpt lat="45.0933" lon="1.93872">
        <ele>193</ele>
        <time>2022-08-05T16:19:12Z</time>
      </trkpt>
      <trkpt lat="45.09335" lon="1.93867">
        <ele>193.2</ele>
        <time>2022-08-05T16:19:14Z</time>
      </trkpt>
      <trkpt lat="45.0934" lon="1.93864">
        <ele>193.1</ele>
        <time>2022-08-05T16:19:16Z</time>
      </trkpt>
      <trkpt lat="45.09345" lon="1.9386">
        <ele>193.1</ele>
        <time>2022-08-05T16:19:18Z</time>
      </trkpt>
      <trkpt lat="45.0935" lon="1.93854">
        <ele>193.2</ele>
        <time>2022-08-05T16:19:20Z</time>
      </trkpt>
      <trkpt lat="45.09354" lon="1.93848">
        <ele>193.2</ele>
        <time>2022-08-05T16:19:22Z</time>
      </trkpt>
      <trkpt lat="45.09358" lon="1.9384">
        <ele>193.3</ele>
        <time>2022-08-05T16:19:24Z</time>
      </trkpt>
      <trkpt lat="45.09361" lon="1.93831">
        <ele>193.4</ele>
        <time>2022-08-05T16:19:26Z</time>
      </trkpt>
      <trkpt lat="45.09364" lon="1.93824">
        <ele>193.4</ele>
        <time>2022-08-05T16:19:28Z</time>
      </trkpt>
      <trkpt lat="45.09372" lon="1.9382">
        <ele>193.2</ele>
        <time>2022-08-05T16:19:30Z</time>
      </trkpt>
      <trkpt lat="45.0938" lon="1.93824">
        <ele>193</ele>
        <time>2022-08-05T16:19:32Z</time>
      </trkpt>
      <trkpt lat="45.09385" lon="1.93824">
        <ele>192.9</ele>
        <time>2022-08-05T16:19:34Z</time>
      </trkpt>
      <trkpt lat="45.09392" lon="1.93826">
        <ele>192.7</ele>
        <time>2022-08-05T16:19:36Z</time>
      </trkpt>
      <trkpt lat="45.094" lon="1.93829">
        <ele>192.5</ele>
        <time>2022-08-05T16:19:38Z</time>
      </trkpt>
      <trkpt lat="45.09406" lon="1.93829">
        <ele>192.3</ele>
        <time>2022-08-05T16:19:40Z</time>
      </trkpt>
      <trkpt lat="45.09412" lon="1.9383">
        <ele>192.1</ele>
        <time>2022-08-05T16:19:42Z</time>
      </trkpt>
      <trkpt lat="45.09419" lon="1.93832">
        <ele>192</ele>
        <time>2022-08-05T16:19:44Z</time>
      </trkpt>
      <trkpt lat="45.09426" lon="1.93833">
        <ele>192.1</ele>
        <time>2022-08-05T16:19:46Z</time>
      </trkpt>
      <trkpt lat="45.09432" lon="1.93835">
        <ele>192.2</ele>
        <time>2022-08-05T16:19:48Z</time>
      </trkpt>
      <trkpt lat="45.09439" lon="1.93837">
        <ele>192.2</ele>
        <time>2022-08-05T16:19:50Z</time>
      </trkpt>
      <trkpt lat="45.09446" lon="1.93838">
        <ele>192.3</ele>
        <time>2022-08-05T16:19:52Z</time>
      </trkpt>
      <trkpt lat="45.09453" lon="1.9384">
        <ele>192.4</ele>
        <time>2022-08-05T16:19:54Z</time>
      </trkpt>
      <trkpt lat="45.0946" lon="1.9384">
        <ele>192.4</ele>
        <time>2022-08-05T16:19:56Z</time>
      </trkpt>
      <trkpt lat="45.09467" lon="1.93842">
        <ele>192.5</ele>
        <time>2022-08-05T16:19:58Z</time>
      </trkpt>
      <trkpt lat="45.09474" lon="1.93843">
        <ele>192.6</ele>
        <time>2022-08-05T16:20:00Z</time>
      </trkpt>
      <trkpt lat="45.0948" lon="1.93844">
        <ele>192.6</ele>
        <time>2022-08-05T16:20:02Z</time>
      </trkpt>
      <trkpt lat="45.09487" lon="1.93845">
        <ele>192.7</ele>
        <time>2022-08-05T16:20:04Z</time>
      </trkpt>
      <trkpt lat="45.09494" lon="1.93846">
        <ele>192.8</ele>
        <time>2022-08-05T16:20:06Z</time>
      </trkpt>
      <trkpt lat="45.09499" lon="1.93847">
        <ele>192.8</ele>
        <time>2022-08-05T16:20:08Z</time>
      </trkpt>
      <trkpt lat="45.09505" lon="1.93851">
        <ele>192.8</ele>
        <time>2022-08-05T16:20:10Z</time>
      </trkpt>
      <trkpt lat="45.09512" lon="1.93854">
        <ele>192.8</ele>
        <time>2022-08-05T16:20:12Z</time>
      </trkpt>
      <trkpt lat="45.09518" lon="1.9385">
        <ele>192.8</ele>
        <time>2022-08-05T16:20:14Z</time>
      </trkpt>
      <trkpt lat="45.09522" lon="1.93845">
        <ele>192.9</ele>
        <time>2022-08-05T16:20:16Z</time>
      </trkpt>
      <trkpt lat="45.09524" lon="1.93836">
        <ele>193</ele>
        <time>2022-08-05T16:20:18Z</time>
      </trkpt>
      <trkpt lat="45.09526" lon="1.93827">
        <ele>193</ele>
        <time>2022-08-05T16:20:20Z</time>
      </trkpt>
      <trkpt lat="45.09528" lon="1.93817">
        <ele>193</ele>
        <time>2022-08-05T16:20:22Z</time>
      </trkpt>
      <trkpt lat="45.09531" lon="1.93809">
        <ele>193</ele>
        <time>2022-08-05T16:20:24Z</time>
      </trkpt>
      <trkpt lat="45.09535" lon="1.93804">
        <ele>193</ele>
        <time>2022-08-05T16:20:26Z</time>
      </trkpt>
      <trkpt lat="45.09536" lon="1.93799">
        <ele>193</ele>
        <time>2022-08-05T16:20:28Z</time>
      </trkpt>
      <trkpt lat="45.09536" lon="1.93799">
        <ele>193</ele>
        <time>2022-08-05T16:20:30Z</time>
      </trkpt>
      <trkpt lat="45.09536" lon="1.93799">
        <ele>193</ele>
        <time>2022-08-05T16:20:32Z</time>
      </trkpt>
      <trkpt lat="45.09535" lon="1.93798">
        <ele>193</ele>
        <time>2022-08-05T16:20:34Z</time>
      </trkpt>
      <trkpt lat="45.09532" lon="1.93796">
        <ele>193</ele>
        <time>2022-08-05T16:20:36Z</time>
      </trkpt>
      <trkpt lat="45.09528" lon="1.93797">
        <ele>193</ele>
        <time>2022-08-05T16:20:38Z</time>
      </trkpt>
      <trkpt lat="45.09524" lon="1.93801">
        <ele>193</ele>
        <time>2022-08-05T16:20:40Z</time>
      </trkpt>
      <trkpt lat="45.09518" lon="1.938">
        <ele>193</ele>
        <time>2022-08-05T16:20:42Z</time>
      </trkpt>
      <trkpt lat="45.09513" lon="1.93793">
        <ele>193</ele>
        <time>2022-08-05T16:20:44Z</time>
      </trkpt>
      <trkpt lat="45.09507" lon="1.93788">
        <ele>193</ele>
        <time>2022-08-05T16:20:46Z</time>
      </trkpt>
      <trkpt lat="45.09505" lon="1.93785">
        <ele>193</ele>
        <time>2022-08-05T16:20:48Z</time>
      </trkpt>
      <trkpt lat="45.09504" lon="1.93785">
        <ele>193</ele>
        <time>2022-08-05T16:20:50Z</time>
      </trkpt>
      <trkpt lat="45.09504" lon="1.93785">
        <ele>193</ele>
        <time>2022-08-05T16:20:52Z</time>
      </trkpt>
      <trkpt lat="45.09504" lon="1.93785">
        <ele>193</ele>
        <time>2022-08-05T16:20:54Z</time>
      </trkpt>
      <trkpt lat="45.09504" lon="1.93786">
        <ele>193</ele>
        <time>2022-08-05T16:20:56Z</time>
      </trkpt>
      <trkpt lat="45.09504" lon="1.93786">
        <ele>193</ele>
        <time>2022-08-05T16:20:58Z</time>
      </trkpt>
      <trkpt lat="45.09532" lon="1.93796">
        <ele>193</ele>
        <time>2022-08-05T16:46:16Z</time>
      </trkpt>
      <trkpt lat="45.09536" lon="1.93788">
        <ele>193</ele>
        <time>2022-08-05T16:46:18Z</time>
      </trkpt>
      <trkpt lat="45.09539" lon="1.9378">
        <ele>193</ele>
        <time>2022-08-05T16:46:20Z</time>
      </trkpt>
      <trkpt lat="45.09542" lon="1.93772">
        <ele>193</ele>
        <time>2022-08-05T16:46:22Z</time>
      </trkpt>
      <trkpt lat="45.09544" lon="1.93763">
        <ele>193</ele>
        <time>2022-08-05T16:46:24Z</time>
      </trkpt>
      <trkpt lat="45.09547" lon="1.93755">
        <ele>193</ele>
        <time>2022-08-05T16:46:26Z</time>
      </trkpt>
      <trkpt lat="45.0955" lon="1.93746">
        <ele>193</ele>
        <time>2022-08-05T16:46:28Z</time>
      </trkpt>
      <trkpt lat="45.09553" lon="1.93737">
        <ele>193.2</ele>
        <time>2022-08-05T16:46:30Z</time>
      </trkpt>
      <trkpt lat="45.09556" lon="1.93728">
        <ele>193.3</ele>
        <time>2022-08-05T16:46:32Z</time>
      </trkpt>
      <trkpt lat="45.0956" lon="1.93719">
        <ele>193.4</ele>
        <time>2022-08-05T16:46:34Z</time>
      </trkpt>
      <trkpt lat="45.09563" lon="1.93709">
        <ele>193.5</ele>
        <time>2022-08-05T16:46:36Z</time>
      </trkpt>
      <trkpt lat="45.09566" lon="1.93699">
        <ele>193.6</ele>
        <time>2022-08-05T16:46:38Z</time>
      </trkpt>
      <trkpt lat="45.09569" lon="1.93689">
        <ele>193.7</ele>
        <time>2022-08-05T16:46:40Z</time>
      </trkpt>
      <trkpt lat="45.09573" lon="1.93678">
        <ele>193.9</ele>
        <time>2022-08-05T16:46:42Z</time>
      </trkpt>
      <trkpt lat="45.09577" lon="1.93665">
        <ele>193.9</ele>
        <time>2022-08-05T16:46:44Z</time>
      </trkpt>
      <trkpt lat="45.09582" lon="1.93651">
        <ele>193.3</ele>
        <time>2022-08-05T16:46:46Z</time>
      </trkpt>
      <trkpt lat="45.09584" lon="1.93636">
        <ele>192.5</ele>
        <time>2022-08-05T16:46:48Z</time>
      </trkpt>
      <trkpt lat="45.09584" lon="1.9362">
        <ele>191.7</ele>
        <time>2022-08-05T16:46:50Z</time>
      </trkpt>
      <trkpt lat="45.0958" lon="1.93604">
        <ele>191</ele>
        <time>2022-08-05T16:46:52Z</time>
      </trkpt>
      <trkpt lat="45.09575" lon="1.9359">
        <ele>190.3</ele>
        <time>2022-08-05T16:46:54Z</time>
      </trkpt>
      <trkpt lat="45.09568" lon="1.93577">
        <ele>189.8</ele>
        <time>2022-08-05T16:46:56Z</time>
      </trkpt>
      <trkpt lat="45.09558" lon="1.93566">
        <ele>189.3</ele>
        <time>2022-08-05T16:46:58Z</time>
      </trkpt>
      <trkpt lat="45.09551" lon="1.93556">
        <ele>188.9</ele>
        <time>2022-08-05T16:47:00Z</time>
      </trkpt>
      <trkpt lat="45.09546" lon="1.93548">
        <ele>188.5</ele>
        <time>2022-08-05T16:47:02Z</time>
      </trkpt>
      <trkpt lat="45.09541" lon="1.93542">
        <ele>188.2</ele>
        <time>2022-08-05T16:47:04Z</time>
      </trkpt>
      <trkpt lat="45.09536" lon="1.93532">
        <ele>187.8</ele>
        <time>2022-08-05T16:47:06Z</time>
      </trkpt>
      <trkpt lat="45.0953" lon="1.93523">
        <ele>187.3</ele>
        <time>2022-08-05T16:47:08Z</time>
      </trkpt>
      <trkpt lat="45.09523" lon="1.93513">
        <ele>186.9</ele>
        <time>2022-08-05T16:47:10Z</time>
      </trkpt>
      <trkpt lat="45.09517" lon="1.93504">
        <ele>186.4</ele>
        <time>2022-08-05T16:47:12Z</time>
      </trkpt>
      <trkpt lat="45.09512" lon="1.93493">
        <ele>186.1</ele>
        <time>2022-08-05T16:47:14Z</time>
      </trkpt>
      <trkpt lat="45.09507" lon="1.93481">
        <ele>186.1</ele>
        <time>2022-08-05T16:47:16Z</time>
      </trkpt>
      <trkpt lat="45.09503" lon="1.93469">
        <ele>186</ele>
        <time>2022-08-05T16:47:18Z</time>
      </trkpt>
      <trkpt lat="45.09501" lon="1.93456">
        <ele>186</ele>
        <time>2022-08-05T16:47:20Z</time>
      </trkpt>
      <trkpt lat="45.09499" lon="1.93442">
        <ele>186</ele>
        <time>2022-08-05T16:47:22Z</time>
      </trkpt>
      <trkpt lat="45.09497" lon="1.93429">
        <ele>186</ele>
        <time>2022-08-05T16:47:24Z</time>
      </trkpt>
      <trkpt lat="45.09495" lon="1.93416">
        <ele>186</ele>
        <time>2022-08-05T16:47:26Z</time>
      </trkpt>
      <trkpt lat="45.09494" lon="1.93403">
        <ele>186.1</ele>
        <time>2022-08-05T16:47:28Z</time>
      </trkpt>
      <trkpt lat="45.09492" lon="1.93391">
        <ele>186.3</ele>
        <time>2022-08-05T16:47:30Z</time>
      </trkpt>
      <trkpt lat="45.0949" lon="1.93379">
        <ele>186.4</ele>
        <time>2022-08-05T16:47:32Z</time>
      </trkpt>
      <trkpt lat="45.09489" lon="1.93369">
        <ele>186.5</ele>
        <time>2022-08-05T16:47:34Z</time>
      </trkpt>
      <trkpt lat="45.09487" lon="1.93359">
        <ele>186.6</ele>
        <time>2022-08-05T16:47:36Z</time>
      </trkpt>
      <trkpt lat="45.09485" lon="1.9335">
        <ele>186.7</ele>
        <time>2022-08-05T16:47:38Z</time>
      </trkpt>
      <trkpt lat="45.09483" lon="1.93338">
        <ele>186.7</ele>
        <time>2022-08-05T16:47:40Z</time>
      </trkpt>
      <trkpt lat="45.09481" lon="1.93326">
        <ele>186.8</ele>
        <time>2022-08-05T16:47:42Z</time>
      </trkpt>
      <trkpt lat="45.09476" lon="1.93315">
        <ele>186.8</ele>
        <time>2022-08-05T16:47:44Z</time>
      </trkpt>
      <trkpt lat="45.09471" lon="1.93306">
        <ele>186.8</ele>
        <time>2022-08-05T16:47:46Z</time>
      </trkpt>
      <trkpt lat="45.09464" lon="1.93298">
        <ele>186.7</ele>
        <time>2022-08-05T16:47:48Z</time>
      </trkpt>
      <trkpt lat="45.09457" lon="1.93292">
        <ele>186.7</ele>
        <time>2022-08-05T16:47:50Z</time>
      </trkpt>
      <trkpt lat="45.0945" lon="1.93288">
        <ele>186.7</ele>
        <time>2022-08-05T16:47:52Z</time>
      </trkpt>
      <trkpt lat="45.09442" lon="1.93285">
        <ele>186.7</ele>
        <time>2022-08-05T16:47:54Z</time>
      </trkpt>
      <trkpt lat="45.09433" lon="1.93282">
        <ele>186.7</ele>
        <time>2022-08-05T16:47:56Z</time>
      </trkpt>
      <trkpt lat="45.09424" lon="1.93279">
        <ele>186.7</ele>
        <time>2022-08-05T16:47:58Z</time>
      </trkpt>
      <trkpt lat="45.09415" lon="1.93275">
        <ele>186.7</ele>
        <time>2022-08-05T16:48:00Z</time>
      </trkpt>
      <trkpt lat="45.09406" lon="1.93272">
        <ele>186.7</ele>
        <time>2022-08-05T16:48:02Z</time>
      </trkpt>
      <trkpt lat="45.09397" lon="1.93269">
        <ele>186.8</ele>
        <time>2022-08-05T16:48:04Z</time>
      </trkpt>
      <trkpt lat="45.09388" lon="1.93266">
        <ele>186.8</ele>
        <time>2022-08-05T16:48:06Z</time>
      </trkpt>
      <trkpt lat="45.0938" lon="1.93263">
        <ele>186.8</ele>
        <time>2022-08-05T16:48:08Z</time>
      </trkpt>
      <trkpt lat="45.09369" lon="1.93268">
        <ele>186.8</ele>
        <time>2022-08-05T16:48:10Z</time>
      </trkpt>
      <trkpt lat="45.09362" lon="1.93266">
        <ele>186.8</ele>
        <time>2022-08-05T16:48:12Z</time>
      </trkpt>
      <trkpt lat="45.09356" lon="1.93262">
        <ele>186.9</ele>
        <time>2022-08-05T16:48:14Z</time>
      </trkpt>
      <trkpt lat="45.0935" lon="1.9326">
        <ele>186.9</ele>
        <time>2022-08-05T16:48:16Z</time>
      </trkpt>
      <trkpt lat="45.09345" lon="1.93256">
        <ele>186.9</ele>
        <time>2022-08-05T16:48:18Z</time>
      </trkpt>
      <trkpt lat="45.09342" lon="1.93255">
        <ele>186.9</ele>
        <time>2022-08-05T16:48:20Z</time>
      </trkpt>
      <trkpt lat="45.0934" lon="1.93254">
        <ele>187</ele>
        <time>2022-08-05T16:48:22Z</time>
      </trkpt>
      <trkpt lat="45.09337" lon="1.93254">
        <ele>187</ele>
        <time>2022-08-05T16:48:24Z</time>
      </trkpt>
      <trkpt lat="45.09333" lon="1.93251">
        <ele>187</ele>
        <time>2022-08-05T16:48:26Z</time>
      </trkpt>
      <trkpt lat="45.09331" lon="1.93247">
        <ele>186.9</ele>
        <time>2022-08-05T16:48:28Z</time>
      </trkpt>
      <trkpt lat="45.09329" lon="1.93244">
        <ele>186.9</ele>
        <time>2022-08-05T16:48:30Z</time>
      </trkpt>
      <trkpt lat="45.09325" lon="1.93245">
        <ele>186.8</ele>
        <time>2022-08-05T16:48:32Z</time>
      </trkpt>
      <trkpt lat="45.0932" lon="1.93245">
        <ele>186.8</ele>
        <time>2022-08-05T16:48:34Z</time>
      </trkpt>
      <trkpt lat="45.09315" lon="1.93243">
        <ele>186.7</ele>
        <time>2022-08-05T16:48:36Z</time>
      </trkpt>
      <trkpt lat="45.09308" lon="1.9324">
        <ele>186.6</ele>
        <time>2022-08-05T16:48:38Z</time>
      </trkpt>
      <trkpt lat="45.09301" lon="1.93238">
        <ele>186.5</ele>
        <time>2022-08-05T16:48:40Z</time>
      </trkpt>
      <trkpt lat="45.09294" lon="1.93235">
        <ele>186.4</ele>
        <time>2022-08-05T16:48:42Z</time>
      </trkpt>
      <trkpt lat="45.09287" lon="1.93232">
        <ele>186.2</ele>
        <time>2022-08-05T16:48:44Z</time>
      </trkpt>
      <trkpt lat="45.09281" lon="1.93229">
        <ele>186.1</ele>
        <time>2022-08-05T16:48:46Z</time>
      </trkpt>
      <trkpt lat="45.09274" lon="1.93224">
        <ele>186</ele>
        <time>2022-08-05T16:48:48Z</time>
      </trkpt>
      <trkpt lat="45.09268" lon="1.9322">
        <ele>185.9</ele>
        <time>2022-08-05T16:48:50Z</time>
      </trkpt>
      <trkpt lat="45.09262" lon="1.93216">
        <ele>185.7</ele>
        <time>2022-08-05T16:48:52Z</time>
      </trkpt>
      <trkpt lat="45.09255" lon="1.93211">
        <ele>185.6</ele>
        <time>2022-08-05T16:48:54Z</time>
      </trkpt>
      <trkpt lat="45.09249" lon="1.93206">
        <ele>185.5</ele>
        <time>2022-08-05T16:48:56Z</time>
      </trkpt>
      <trkpt lat="45.09242" lon="1.93201">
        <ele>185.4</ele>
        <time>2022-08-05T16:48:58Z</time>
      </trkpt>
      <trkpt lat="45.09238" lon="1.93194">
        <ele>185.3</ele>
        <time>2022-08-05T16:49:00Z</time>
      </trkpt>
      <trkpt lat="45.09238" lon="1.93184">
        <ele>185.2</ele>
        <time>2022-08-05T16:49:02Z</time>
      </trkpt>
      <trkpt lat="45.09238" lon="1.93174">
        <ele>185.1</ele>
        <time>2022-08-05T16:49:04Z</time>
      </trkpt>
      <trkpt lat="45.09236" lon="1.93166">
        <ele>185</ele>
        <time>2022-08-05T16:49:06Z</time>
      </trkpt>
      <trkpt lat="45.09233" lon="1.93158">
        <ele>185</ele>
        <time>2022-08-05T16:49:08Z</time>
      </trkpt>
      <trkpt lat="45.09228" lon="1.93152">
        <ele>185</ele>
        <time>2022-08-05T16:49:10Z</time>
      </trkpt>
      <trkpt lat="45.09224" lon="1.93147">
        <ele>185</ele>
        <time>2022-08-05T16:49:12Z</time>
      </trkpt>
      <trkpt lat="45.09221" lon="1.93145">
        <ele>185</ele>
        <time>2022-08-05T16:49:14Z</time>
      </trkpt>
      <trkpt lat="45.09217" lon="1.93143">
        <ele>185</ele>
        <time>2022-08-05T16:49:16Z</time>
      </trkpt>
      <trkpt lat="45.09213" lon="1.93142">
        <ele>185</ele>
        <time>2022-08-05T16:49:18Z</time>
      </trkpt>
      <trkpt lat="45.0921" lon="1.93138">
        <ele>185</ele>
        <time>2022-08-05T16:49:20Z</time>
      </trkpt>
      <trkpt lat="45.09209" lon="1.93132">
        <ele>185</ele>
        <time>2022-08-05T16:49:22Z</time>
      </trkpt>
      <trkpt lat="45.09207" lon="1.93125">
        <ele>185</ele>
        <time>2022-08-05T16:49:24Z</time>
      </trkpt>
      <trkpt lat="45.09205" lon="1.93118">
        <ele>185</ele>
        <time>2022-08-05T16:49:26Z</time>
      </trkpt>
      <trkpt lat="45.09203" lon="1.9311">
        <ele>185</ele>
        <time>2022-08-05T16:49:28Z</time>
      </trkpt>
      <trkpt lat="45.09201" lon="1.93102">
        <ele>185</ele>
        <time>2022-08-05T16:49:30Z</time>
      </trkpt>
      <trkpt lat="45.09199" lon="1.93095">
        <ele>185</ele>
        <time>2022-08-05T16:49:32Z</time>
      </trkpt>
      <trkpt lat="45.09196" lon="1.93092">
        <ele>185</ele>
        <time>2022-08-05T16:49:34Z</time>
      </trkpt>
      <trkpt lat="45.0919" lon="1.93091">
        <ele>185</ele>
        <time>2022-08-05T16:49:36Z</time>
      </trkpt>
      <trkpt lat="45.09188" lon="1.93089">
        <ele>185</ele>
        <time>2022-08-05T16:49:38Z</time>
      </trkpt>
      <trkpt lat="45.09185" lon="1.93092">
        <ele>185</ele>
        <time>2022-08-05T16:49:40Z</time>
      </trkpt>
      <trkpt lat="45.09181" lon="1.93094">
        <ele>185</ele>
        <time>2022-08-05T16:49:42Z</time>
      </trkpt>
      <trkpt lat="45.09176" lon="1.93097">
        <ele>185</ele>
        <time>2022-08-05T16:49:44Z</time>
      </trkpt>
      <trkpt lat="45.09173" lon="1.93096">
        <ele>185</ele>
        <time>2022-08-05T16:49:46Z</time>
      </trkpt>
      <trkpt lat="45.09173" lon="1.93097">
        <ele>185</ele>
        <time>2022-08-05T16:49:48Z</time>
      </trkpt>
      <trkpt lat="45.09173" lon="1.93097">
        <ele>185</ele>
        <time>2022-08-05T16:49:50Z</time>
      </trkpt>
      <trkpt lat="45.09173" lon="1.93097">
        <ele>185</ele>
        <time>2022-08-05T16:49:52Z</time>
      </trkpt>
      <trkpt lat="45.09173" lon="1.93098">
        <ele>185</ele>
        <time>2022-08-05T16:49:54Z</time>
      </trkpt>
      <trkpt lat="45.09173" lon="1.93098">
        <ele>185</ele>
        <time>2022-08-05T16:49:56Z</time>
      </trkpt>
      <trkpt lat="45.0921" lon="1.93054">
        <ele>185.5</ele>
        <time>2022-08-05T16:50:50Z</time>
      </trkpt>
      <trkpt lat="45.09224" lon="1.93027">
        <ele>186.1</ele>
        <time>2022-08-05T16:51:40Z</time>
      </trkpt>
      <trkpt lat="45.09203" lon="1.93035">
        <ele>185.8</ele>
        <time>2022-08-05T16:52:59Z</time>
      </trkpt>
      <trkpt lat="45.09157" lon="1.93112">
        <ele>184.9</ele>
        <time>2022-08-05T16:57:14Z</time>
      </trkpt>
      <trkpt lat="45.09155" lon="1.93118">
        <ele>184.9</ele>
        <time>2022-08-05T16:57:16Z</time>
      </trkpt>
      <trkpt lat="45.09153" lon="1.93119">
        <ele>184.9</ele>
        <time>2022-08-05T16:57:18Z</time>
      </trkpt>
      <trkpt lat="45.09153" lon="1.93127">
        <ele>184.8</ele>
        <time>2022-08-05T16:57:20Z</time>
      </trkpt>
      <trkpt lat="45.09158" lon="1.93135">
        <ele>184.9</ele>
        <time>2022-08-05T16:57:22Z</time>
      </trkpt>
      <trkpt lat="45.09164" lon="1.93141">
        <ele>185</ele>
        <time>2022-08-05T16:57:24Z</time>
      </trkpt>
      <trkpt lat="45.09169" lon="1.93146">
        <ele>185</ele>
        <time>2022-08-05T16:57:26Z</time>
      </trkpt>
      <trkpt lat="45.09176" lon="1.93151">
        <ele>185</ele>
        <time>2022-08-05T16:57:28Z</time>
      </trkpt>
      <trkpt lat="45.09182" lon="1.93155">
        <ele>185</ele>
        <time>2022-08-05T16:57:30Z</time>
      </trkpt>
      <trkpt lat="45.09189" lon="1.93159">
        <ele>185</ele>
        <time>2022-08-05T16:57:32Z</time>
      </trkpt>
      <trkpt lat="45.09195" lon="1.93164">
        <ele>185</ele>
        <time>2022-08-05T16:57:34Z</time>
      </trkpt>
      <trkpt lat="45.09199" lon="1.93171">
        <ele>185.1</ele>
        <time>2022-08-05T16:57:36Z</time>
      </trkpt>
      <trkpt lat="45.092" lon="1.9318">
        <ele>185.2</ele>
        <time>2022-08-05T16:57:38Z</time>
      </trkpt>
      <trkpt lat="45.09197" lon="1.93188">
        <ele>185.3</ele>
        <time>2022-08-05T16:57:40Z</time>
      </trkpt>
      <trkpt lat="45.09193" lon="1.93191">
        <ele>185.3</ele>
        <time>2022-08-05T16:57:42Z</time>
      </trkpt>
      <trkpt lat="45.09186" lon="1.93197">
        <ele>185.4</ele>
        <time>2022-08-05T16:57:44Z</time>
      </trkpt>
      <trkpt lat="45.09181" lon="1.93201">
        <ele>185.4</ele>
        <time>2022-08-05T16:57:46Z</time>
      </trkpt>
      <trkpt lat="45.09177" lon="1.93204">
        <ele>185.4</ele>
        <time>2022-08-05T16:57:48Z</time>
      </trkpt>
      <trkpt lat="45.09174" lon="1.93206">
        <ele>185.5</ele>
        <time>2022-08-05T16:57:50Z</time>
      </trkpt>
      <trkpt lat="45.09173" lon="1.93207">
        <ele>185.5</ele>
        <time>2022-08-05T16:57:52Z</time>
      </trkpt>
      <trkpt lat="45.09173" lon="1.93207">
        <ele>185.5</ele>
        <time>2022-08-05T16:57:54Z</time>
      </trkpt>
      <trkpt lat="45.09173" lon="1.9321">
        <ele>185.5</ele>
        <time>2022-08-05T16:57:56Z</time>
      </trkpt>
      <trkpt lat="45.09174" lon="1.93215">
        <ele>185.6</ele>
        <time>2022-08-05T16:57:58Z</time>
      </trkpt>
      <trkpt lat="45.0918" lon="1.93216">
        <ele>185.6</ele>
        <time>2022-08-05T16:58:00Z</time>
      </trkpt>
      <trkpt lat="45.09187" lon="1.9321">
        <ele>185.5</ele>
        <time>2022-08-05T16:58:02Z</time>
      </trkpt>
      <trkpt lat="45.09191" lon="1.93209">
        <ele>185.5</ele>
        <time>2022-08-05T16:58:04Z</time>
      </trkpt>
      <trkpt lat="45.09192" lon="1.93214">
        <ele>185.6</ele>
        <time>2022-08-05T16:58:06Z</time>
      </trkpt>
      <trkpt lat="45.09193" lon="1.9322">
        <ele>185.6</ele>
        <time>2022-08-05T16:58:08Z</time>
      </trkpt>
      <trkpt lat="45.09192" lon="1.93225">
        <ele>185.7</ele>
        <time>2022-08-05T16:58:10Z</time>
      </trkpt>
      <trkpt lat="45.09191" lon="1.93232">
        <ele>185.8</ele>
        <time>2022-08-05T16:58:12Z</time>
      </trkpt>
      <trkpt lat="45.09194" lon="1.93236">
        <ele>185.8</ele>
        <time>2022-08-05T16:58:14Z</time>
      </trkpt>
      <trkpt lat="45.09195" lon="1.9324">
        <ele>185.9</ele>
        <time>2022-08-05T16:58:16Z</time>
      </trkpt>
      <trkpt lat="45.09195" lon="1.93243">
        <ele>185.9</ele>
        <time>2022-08-05T16:58:18Z</time>
      </trkpt>
      <trkpt lat="45.09198" lon="1.93245">
        <ele>185.9</ele>
        <time>2022-08-05T16:58:20Z</time>
      </trkpt>
      <trkpt lat="45.09199" lon="1.93249">
        <ele>186</ele>
        <time>2022-08-05T16:58:22Z</time>
      </trkpt>
      <trkpt lat="45.09198" lon="1.93252">
        <ele>186</ele>
        <time>2022-08-05T16:58:24Z</time>
      </trkpt>
      <trkpt lat="45.09194" lon="1.93257">
        <ele>185.9</ele>
        <time>2022-08-05T16:58:26Z</time>
      </trkpt>
      <trkpt lat="45.0919" lon="1.93261">
        <ele>185.9</ele>
        <time>2022-08-05T16:58:28Z</time>
      </trkpt>
      <trkpt lat="45.09185" lon="1.93265">
        <ele>185.9</ele>
        <time>2022-08-05T16:58:30Z</time>
      </trkpt>
      <trkpt lat="45.0918" lon="1.93268">
        <ele>185.8</ele>
        <time>2022-08-05T16:58:32Z</time>
      </trkpt>
      <trkpt lat="45.09177" lon="1.93271">
        <ele>185.8</ele>
        <time>2022-08-05T16:58:34Z</time>
      </trkpt>
      <trkpt lat="45.09175" lon="1.93276">
        <ele>185.7</ele>
        <time>2022-08-05T16:58:36Z</time>
      </trkpt>
      <trkpt lat="45.09179" lon="1.93283">
        <ele>185.7</ele>
        <time>2022-08-05T16:58:38Z</time>
      </trkpt>
      <trkpt lat="45.0918" lon="1.93289">
        <ele>185.6</ele>
        <time>2022-08-05T16:58:40Z</time>
      </trkpt>
      <trkpt lat="45.09177" lon="1.93289">
        <ele>185.6</ele>
        <time>2022-08-05T16:58:42Z</time>
      </trkpt>
      <trkpt lat="45.09174" lon="1.93286">
        <ele>185.6</ele>
        <time>2022-08-05T16:58:44Z</time>
      </trkpt>
      <trkpt lat="45.09174" lon="1.93284">
        <ele>185.6</ele>
        <time>2022-08-05T16:58:46Z</time>
      </trkpt>
      <trkpt lat="45.09174" lon="1.93282">
        <ele>185.6</ele>
        <time>2022-08-05T16:58:48Z</time>
      </trkpt>
      <trkpt lat="45.09175" lon="1.93279">
        <ele>185.7</ele>
        <time>2022-08-05T16:58:50Z</time>
      </trkpt>
      <trkpt lat="45.09173" lon="1.93278">
        <ele>185.7</ele>
        <time>2022-08-05T16:58:52Z</time>
      </trkpt>
      <trkpt lat="45.09174" lon="1.93278">
        <ele>185.7</ele>
        <time>2022-08-05T16:58:54Z</time>
      </trkpt>
      <trkpt lat="45.09178" lon="1.93288">
        <ele>185.6</ele>
        <time>2022-08-05T17:03:30Z</time>
      </trkpt>
      <trkpt lat="45.09181" lon="1.93292">
        <ele>185.6</ele>
        <time>2022-08-05T17:03:32Z</time>
      </trkpt>
      <trkpt lat="45.09186" lon="1.93292">
        <ele>185.6</ele>
        <time>2022-08-05T17:03:34Z</time>
      </trkpt>
      <trkpt lat="45.09192" lon="1.9329">
        <ele>185.7</ele>
        <time>2022-08-05T17:03:36Z</time>
      </trkpt>
      <trkpt lat="45.09198" lon="1.93286">
        <ele>185.7</ele>
        <time>2022-08-05T17:03:38Z</time>
      </trkpt>
      <trkpt lat="45.09203" lon="1.93281">
        <ele>185.8</ele>
        <time>2022-08-05T17:03:40Z</time>
      </trkpt>
      <trkpt lat="45.09208" lon="1.93276">
        <ele>185.8</ele>
        <time>2022-08-05T17:03:42Z</time>
      </trkpt>
      <trkpt lat="45.09213" lon="1.9327">
        <ele>185.9</ele>
        <time>2022-08-05T17:03:44Z</time>
      </trkpt>
      <trkpt lat="45.09218" lon="1.93265">
        <ele>185.9</ele>
        <time>2022-08-05T17:03:46Z</time>
      </trkpt>
      <trkpt lat="45.09223" lon="1.9326">
        <ele>186</ele>
        <time>2022-08-05T17:03:48Z</time>
      </trkpt>
      <trkpt lat="45.09228" lon="1.93255">
        <ele>186</ele>
        <time>2022-08-05T17:03:50Z</time>
      </trkpt>
      <trkpt lat="45.09233" lon="1.9325">
        <ele>186</ele>
        <time>2022-08-05T17:03:52Z</time>
      </trkpt>
      <trkpt lat="45.09238" lon="1.93246">
        <ele>186</ele>
        <time>2022-08-05T17:03:54Z</time>
      </trkpt>
      <trkpt lat="45.09244" lon="1.93241">
        <ele>185.9</ele>
        <time>2022-08-05T17:03:56Z</time>
      </trkpt>
      <trkpt lat="45.09248" lon="1.93236">
        <ele>185.8</ele>
        <time>2022-08-05T17:03:58Z</time>
      </trkpt>
      <trkpt lat="45.09254" lon="1.93233">
        <ele>185.8</ele>
        <time>2022-08-05T17:04:00Z</time>
      </trkpt>
      <trkpt lat="45.09259" lon="1.9323">
        <ele>185.9</ele>
        <time>2022-08-05T17:04:02Z</time>
      </trkpt>
      <trkpt lat="45.09261" lon="1.93225">
        <ele>185.8</ele>
        <time>2022-08-05T17:04:04Z</time>
      </trkpt>
      <trkpt lat="45.09263" lon="1.93221">
        <ele>185.8</ele>
        <time>2022-08-05T17:04:06Z</time>
      </trkpt>
      <trkpt lat="45.09261" lon="1.93212">
        <ele>185.7</ele>
        <time>2022-08-05T17:04:08Z</time>
      </trkpt>
      <trkpt lat="45.09256" lon="1.93206">
        <ele>185.5</ele>
        <time>2022-08-05T17:04:10Z</time>
      </trkpt>
      <trkpt lat="45.09251" lon="1.93202">
        <ele>185.4</ele>
        <time>2022-08-05T17:04:12Z</time>
      </trkpt>
      <trkpt lat="45.09245" lon="1.93199">
        <ele>185.4</ele>
        <time>2022-08-05T17:04:14Z</time>
      </trkpt>
      <trkpt lat="45.09242" lon="1.93196">
        <ele>185.3</ele>
        <time>2022-08-05T17:04:16Z</time>
      </trkpt>
      <trkpt lat="45.09239" lon="1.93191">
        <ele>185.3</ele>
        <time>2022-08-05T17:04:18Z</time>
      </trkpt>
      <trkpt lat="45.09238" lon="1.93183">
        <ele>185.2</ele>
        <time>2022-08-05T17:04:20Z</time>
      </trkpt>
      <trkpt lat="45.09239" lon="1.93173">
        <ele>185.1</ele>
        <time>2022-08-05T17:04:22Z</time>
      </trkpt>
      <trkpt lat="45.09238" lon="1.93164">
        <ele>185</ele>
        <time>2022-08-05T17:04:24Z</time>
      </trkpt>
      <trkpt lat="45.09233" lon="1.93155">
        <ele>185</ele>
        <time>2022-08-05T17:04:26Z</time>
      </trkpt>
      <trkpt lat="45.09227" lon="1.9315">
        <ele>185</ele>
        <time>2022-08-05T17:04:28Z</time>
      </trkpt>
      <trkpt lat="45.09219" lon="1.93149">
        <ele>185</ele>
        <time>2022-08-05T17:04:30Z</time>
      </trkpt>
      <trkpt lat="45.09212" lon="1.9315">
        <ele>185</ele>
        <time>2022-08-05T17:04:32Z</time>
      </trkpt>
      <trkpt lat="45.09205" lon="1.93152">
        <ele>185</ele>
        <time>2022-08-05T17:04:34Z</time>
      </trkpt>
      <trkpt lat="45.092" lon="1.93149">
        <ele>185</ele>
        <time>2022-08-05T17:04:36Z</time>
      </trkpt>
      <trkpt lat="45.09195" lon="1.93148">
        <ele>185</ele>
        <time>2022-08-05T17:04:38Z</time>
      </trkpt>
      <trkpt lat="45.09192" lon="1.93147">
        <ele>185</ele>
        <time>2022-08-05T17:04:40Z</time>
      </trkpt>
      <trkpt lat="45.09193" lon="1.93148">
        <ele>185</ele>
        <time>2022-08-05T17:04:42Z</time>
      </trkpt>
      <trkpt lat="45.09193" lon="1.93148">
        <ele>185</ele>
        <time>2022-08-05T17:04:44Z</time>
      </trkpt>
      <trkpt lat="45.0919" lon="1.93148">
        <ele>185</ele>
        <time>2022-08-05T17:04:46Z</time>
      </trkpt>
      <trkpt lat="45.09185" lon="1.93146">
        <ele>185</ele>
        <time>2022-08-05T17:04:48Z</time>
      </trkpt>
      <trkpt lat="45.0918" lon="1.93144">
        <ele>185</ele>
        <time>2022-08-05T17:04:50Z</time>
      </trkpt>
      <trkpt lat="45.09174" lon="1.9314">
        <ele>185</ele>
        <time>2022-08-05T17:04:52Z</time>
      </trkpt>
      <trkpt lat="45.09169" lon="1.93135">
        <ele>185</ele>
        <time>2022-08-05T17:04:54Z</time>
      </trkpt>
      <trkpt lat="45.09163" lon="1.93129">
        <ele>185</ele>
        <time>2022-08-05T17:04:56Z</time>
      </trkpt>
      <trkpt lat="45.09158" lon="1.93121">
        <ele>184.9</ele>
        <time>2022-08-05T17:04:58Z</time>
      </trkpt>
      <trkpt lat="45.09152" lon="1.93114">
        <ele>184.9</ele>
        <time>2022-08-05T17:05:00Z</time>
      </trkpt>
      <trkpt lat="45.09147" lon="1.93106">
        <ele>184.9</ele>
        <time>2022-08-05T17:05:02Z</time>
      </trkpt>
      <trkpt lat="45.09141" lon="1.93097">
        <ele>184.9</ele>
        <time>2022-08-05T17:05:04Z</time>
      </trkpt>
      <trkpt lat="45.09135" lon="1.93089">
        <ele>184.9</ele>
        <time>2022-08-05T17:05:06Z</time>
      </trkpt>
      <trkpt lat="45.09129" lon="1.9308">
        <ele>185</ele>
        <time>2022-08-05T17:05:08Z</time>
      </trkpt>
      <trkpt lat="45.09123" lon="1.93072">
        <ele>185.1</ele>
        <time>2022-08-05T17:05:10Z</time>
      </trkpt>
      <trkpt lat="45.09117" lon="1.93062">
        <ele>185.3</ele>
        <time>2022-08-05T17:05:12Z</time>
      </trkpt>
      <trkpt lat="45.0911" lon="1.93053">
        <ele>185.4</ele>
        <time>2022-08-05T17:05:14Z</time>
      </trkpt>
      <trkpt lat="45.09104" lon="1.93044">
        <ele>185.5</ele>
        <time>2022-08-05T17:05:16Z</time>
      </trkpt>
      <trkpt lat="45.09098" lon="1.93034">
        <ele>185.6</ele>
        <time>2022-08-05T17:05:18Z</time>
      </trkpt>
      <trkpt lat="45.09091" lon="1.93025">
        <ele>185.7</ele>
        <time>2022-08-05T17:05:20Z</time>
      </trkpt>
      <trkpt lat="45.09084" lon="1.93017">
        <ele>185.8</ele>
        <time>2022-08-05T17:05:22Z</time>
      </trkpt>
      <trkpt lat="45.09077" lon="1.93008">
        <ele>185.6</ele>
        <time>2022-08-05T17:05:24Z</time>
      </trkpt>
      <trkpt lat="45.0907" lon="1.92999">
        <ele>185.3</ele>
        <time>2022-08-05T17:05:26Z</time>
      </trkpt>
      <trkpt lat="45.09063" lon="1.92991">
        <ele>184.6</ele>
        <time>2022-08-05T17:05:28Z</time>
      </trkpt>
      <trkpt lat="45.09055" lon="1.92983">
        <ele>184</ele>
        <time>2022-08-05T17:05:30Z</time>
      </trkpt>
      <trkpt lat="45.09048" lon="1.92975">
        <ele>183.5</ele>
        <time>2022-08-05T17:05:32Z</time>
      </trkpt>
      <trkpt lat="45.0904" lon="1.92968">
        <ele>183</ele>
        <time>2022-08-05T17:05:34Z</time>
      </trkpt>
      <trkpt lat="45.09033" lon="1.9296">
        <ele>182.5</ele>
        <time>2022-08-05T17:05:36Z</time>
      </trkpt>
      <trkpt lat="45.09025" lon="1.92953">
        <ele>182.1</ele>
        <time>2022-08-05T17:05:38Z</time>
      </trkpt>
      <trkpt lat="45.09017" lon="1.92945">
        <ele>181.8</ele>
        <time>2022-08-05T17:05:40Z</time>
      </trkpt>
      <trkpt lat="45.09009" lon="1.92937">
        <ele>181.4</ele>
        <time>2022-08-05T17:05:42Z</time>
      </trkpt>
      <trkpt lat="45.09001" lon="1.9293">
        <ele>181.2</ele>
        <time>2022-08-05T17:05:44Z</time>
      </trkpt>
      <trkpt lat="45.08993" lon="1.92921">
        <ele>180.8</ele>
        <time>2022-08-05T17:05:46Z</time>
      </trkpt>
      <trkpt lat="45.08984" lon="1.92912">
        <ele>180.4</ele>
        <time>2022-08-05T17:05:48Z</time>
      </trkpt>
      <trkpt lat="45.08975" lon="1.92903">
        <ele>179.9</ele>
        <time>2022-08-05T17:05:50Z</time>
      </trkpt>
      <trkpt lat="45.08966" lon="1.92893">
        <ele>179.4</ele>
        <time>2022-08-05T17:05:52Z</time>
      </trkpt>
      <trkpt lat="45.08957" lon="1.92882">
        <ele>178.8</ele>
        <time>2022-08-05T17:05:54Z</time>
      </trkpt>
      <trkpt lat="45.08948" lon="1.9287">
        <ele>178.2</ele>
        <time>2022-08-05T17:05:56Z</time>
      </trkpt>
      <trkpt lat="45.0894" lon="1.92856">
        <ele>177.6</ele>
        <time>2022-08-05T17:05:58Z</time>
      </trkpt>
      <trkpt lat="45.08933" lon="1.9284">
        <ele>176.9</ele>
        <time>2022-08-05T17:06:00Z</time>
      </trkpt>
      <trkpt lat="45.08925" lon="1.92822">
        <ele>176.7</ele>
        <time>2022-08-05T17:06:02Z</time>
      </trkpt>
      <trkpt lat="45.08918" lon="1.92802">
        <ele>176.8</ele>
        <time>2022-08-05T17:06:04Z</time>
      </trkpt>
      <trkpt lat="45.0891" lon="1.92783">
        <ele>177.2</ele>
        <time>2022-08-05T17:06:06Z</time>
      </trkpt>
      <trkpt lat="45.08899" lon="1.92765">
        <ele>177.5</ele>
        <time>2022-08-05T17:06:08Z</time>
      </trkpt>
      <trkpt lat="45.08887" lon="1.92751">
        <ele>177.6</ele>
        <time>2022-08-05T17:06:10Z</time>
      </trkpt>
      <trkpt lat="45.08874" lon="1.9274">
        <ele>178</ele>
        <time>2022-08-05T17:06:12Z</time>
      </trkpt>
      <trkpt lat="45.08862" lon="1.92731">
        <ele>178.6</ele>
        <time>2022-08-05T17:06:14Z</time>
      </trkpt>
      <trkpt lat="45.0885" lon="1.92723">
        <ele>179.4</ele>
        <time>2022-08-05T17:06:16Z</time>
      </trkpt>
      <trkpt lat="45.0884" lon="1.92715">
        <ele>180.3</ele>
        <time>2022-08-05T17:06:18Z</time>
      </trkpt>
      <trkpt lat="45.0883" lon="1.92708">
        <ele>181.4</ele>
        <time>2022-08-05T17:06:20Z</time>
      </trkpt>
      <trkpt lat="45.08822" lon="1.92701">
        <ele>183</ele>
        <time>2022-08-05T17:06:22Z</time>
      </trkpt>
      <trkpt lat="45.08814" lon="1.92696">
        <ele>184.7</ele>
        <time>2022-08-05T17:06:24Z</time>
      </trkpt>
      <trkpt lat="45.08807" lon="1.92691">
        <ele>186.3</ele>
        <time>2022-08-05T17:06:26Z</time>
      </trkpt>
      <trkpt lat="45.08799" lon="1.92687">
        <ele>187.9</ele>
        <time>2022-08-05T17:06:28Z</time>
      </trkpt>
      <trkpt lat="45.08792" lon="1.92687">
        <ele>188.9</ele>
        <time>2022-08-05T17:06:30Z</time>
      </trkpt>
      <trkpt lat="45.08785" lon="1.92688">
        <ele>189.7</ele>
        <time>2022-08-05T17:06:32Z</time>
      </trkpt>
      <trkpt lat="45.08778" lon="1.9269">
        <ele>190.3</ele>
        <time>2022-08-05T17:06:34Z</time>
      </trkpt>
      <trkpt lat="45.08771" lon="1.92694">
        <ele>190.4</ele>
        <time>2022-08-05T17:06:36Z</time>
      </trkpt>
      <trkpt lat="45.08765" lon="1.92697">
        <ele>190.4</ele>
        <time>2022-08-05T17:06:38Z</time>
      </trkpt>
      <trkpt lat="45.08759" lon="1.92701">
        <ele>190.4</ele>
        <time>2022-08-05T17:06:40Z</time>
      </trkpt>
      <trkpt lat="45.08753" lon="1.92704">
        <ele>190.3</ele>
        <time>2022-08-05T17:06:42Z</time>
      </trkpt>
      <trkpt lat="45.08745" lon="1.92707">
        <ele>190.7</ele>
        <time>2022-08-05T17:06:44Z</time>
      </trkpt>
      <trkpt lat="45.08738" lon="1.9271">
        <ele>191</ele>
        <time>2022-08-05T17:06:46Z</time>
      </trkpt>
      <trkpt lat="45.08732" lon="1.92713">
        <ele>191.3</ele>
        <time>2022-08-05T17:06:48Z</time>
      </trkpt>
      <trkpt lat="45.08725" lon="1.92716">
        <ele>191.6</ele>
        <time>2022-08-05T17:06:50Z</time>
      </trkpt>
      <trkpt lat="45.08718" lon="1.92719">
        <ele>191.8</ele>
        <time>2022-08-05T17:06:52Z</time>
      </trkpt>
      <trkpt lat="45.0871" lon="1.92722">
        <ele>192.2</ele>
        <time>2022-08-05T17:06:54Z</time>
      </trkpt>
      <trkpt lat="45.08704" lon="1.92725">
        <ele>192.2</ele>
        <time>2022-08-05T17:06:56Z</time>
      </trkpt>
      <trkpt lat="45.08697" lon="1.92727">
        <ele>192.5</ele>
        <time>2022-08-05T17:06:58Z</time>
      </trkpt>
      <trkpt lat="45.0869" lon="1.92729">
        <ele>192.7</ele>
        <time>2022-08-05T17:07:00Z</time>
      </trkpt>
      <trkpt lat="45.08682" lon="1.92733">
        <ele>192.4</ele>
        <time>2022-08-05T17:07:02Z</time>
      </trkpt>
      <trkpt lat="45.08673" lon="1.92736">
        <ele>192.7</ele>
        <time>2022-08-05T17:07:04Z</time>
      </trkpt>
      <trkpt lat="45.08665" lon="1.92738">
        <ele>192.9</ele>
        <time>2022-08-05T17:07:06Z</time>
      </trkpt>
      <trkpt lat="45.08657" lon="1.92741">
        <ele>193.4</ele>
        <time>2022-08-05T17:07:08Z</time>
      </trkpt>
      <trkpt lat="45.08648" lon="1.92743">
        <ele>194</ele>
        <time>2022-08-05T17:07:10Z</time>
      </trkpt>
      <trkpt lat="45.08639" lon="1.92745">
        <ele>194.5</ele>
        <time>2022-08-05T17:07:12Z</time>
      </trkpt>
      <trkpt lat="45.0863" lon="1.92748">
        <ele>195</ele>
        <time>2022-08-05T17:07:14Z</time>
      </trkpt>
      <trkpt lat="45.0862" lon="1.92751">
        <ele>195.5</ele>
        <time>2022-08-05T17:07:16Z</time>
      </trkpt>
      <trkpt lat="45.08611" lon="1.92754">
        <ele>196.5</ele>
        <time>2022-08-05T17:07:18Z</time>
      </trkpt>
      <trkpt lat="45.08601" lon="1.92756">
        <ele>197.4</ele>
        <time>2022-08-05T17:07:20Z</time>
      </trkpt>
      <trkpt lat="45.08589" lon="1.92761">
        <ele>198.1</ele>
        <time>2022-08-05T17:07:22Z</time>
      </trkpt>
      <trkpt lat="45.08577" lon="1.92764">
        <ele>197.9</ele>
        <time>2022-08-05T17:07:24Z</time>
      </trkpt>
      <trkpt lat="45.08565" lon="1.92769">
        <ele>196.7</ele>
        <time>2022-08-05T17:07:26Z</time>
      </trkpt>
      <trkpt lat="45.08553" lon="1.92772">
        <ele>196</ele>
        <time>2022-08-05T17:07:28Z</time>
      </trkpt>
      <trkpt lat="45.0854" lon="1.92774">
        <ele>195.3</ele>
        <time>2022-08-05T17:07:30Z</time>
      </trkpt>
      <trkpt lat="45.08527" lon="1.92778">
        <ele>194.4</ele>
        <time>2022-08-05T17:07:32Z</time>
      </trkpt>
      <trkpt lat="45.08514" lon="1.92781">
        <ele>193.6</ele>
        <time>2022-08-05T17:07:34Z</time>
      </trkpt>
      <trkpt lat="45.08502" lon="1.92784">
        <ele>192.9</ele>
        <time>2022-08-05T17:07:36Z</time>
      </trkpt>
      <trkpt lat="45.08487" lon="1.92791">
        <ele>191.5</ele>
        <time>2022-08-05T17:07:38Z</time>
      </trkpt>
      <trkpt lat="45.08474" lon="1.92795">
        <ele>190.9</ele>
        <time>2022-08-05T17:07:40Z</time>
      </trkpt>
      <trkpt lat="45.08461" lon="1.928">
        <ele>189.9</ele>
        <time>2022-08-05T17:07:42Z</time>
      </trkpt>
      <trkpt lat="45.08449" lon="1.92806">
        <ele>189.2</ele>
        <time>2022-08-05T17:07:44Z</time>
      </trkpt>
      <trkpt lat="45.08437" lon="1.9281">
        <ele>188.6</ele>
        <time>2022-08-05T17:07:46Z</time>
      </trkpt>
      <trkpt lat="45.08425" lon="1.92815">
        <ele>188.1</ele>
        <time>2022-08-05T17:07:48Z</time>
      </trkpt>
      <trkpt lat="45.08414" lon="1.9282">
        <ele>188.2</ele>
        <time>2022-08-05T17:07:50Z</time>
      </trkpt>
      <trkpt lat="45.08403" lon="1.92826">
        <ele>189.8</ele>
        <time>2022-08-05T17:07:52Z</time>
      </trkpt>
      <trkpt lat="45.08394" lon="1.92832">
        <ele>191.4</ele>
        <time>2022-08-05T17:07:54Z</time>
      </trkpt>
      <trkpt lat="45.08383" lon="1.92838">
        <ele>193.2</ele>
        <time>2022-08-05T17:07:56Z</time>
      </trkpt>
      <trkpt lat="45.08373" lon="1.92845">
        <ele>194.5</ele>
        <time>2022-08-05T17:07:58Z</time>
      </trkpt>
      <trkpt lat="45.08367" lon="1.92848">
        <ele>195.4</ele>
        <time>2022-08-05T17:08:00Z</time>
      </trkpt>
      <trkpt lat="45.08358" lon="1.92857">
        <ele>195.7</ele>
        <time>2022-08-05T17:08:02Z</time>
      </trkpt>
      <trkpt lat="45.0835" lon="1.92865">
        <ele>195.7</ele>
        <time>2022-08-05T17:08:04Z</time>
      </trkpt>
      <trkpt lat="45.0834" lon="1.92871">
        <ele>196.4</ele>
        <time>2022-08-05T17:08:06Z</time>
      </trkpt>
      <trkpt lat="45.08332" lon="1.92877">
        <ele>196.1</ele>
        <time>2022-08-05T17:08:08Z</time>
      </trkpt>
      <trkpt lat="45.08322" lon="1.92882">
        <ele>195.4</ele>
        <time>2022-08-05T17:08:10Z</time>
      </trkpt>
      <trkpt lat="45.08314" lon="1.92887">
        <ele>194.8</ele>
        <time>2022-08-05T17:08:12Z</time>
      </trkpt>
      <trkpt lat="45.08304" lon="1.9289">
        <ele>194.4</ele>
        <time>2022-08-05T17:08:14Z</time>
      </trkpt>
      <trkpt lat="45.08297" lon="1.92893">
        <ele>193.9</ele>
        <time>2022-08-05T17:08:16Z</time>
      </trkpt>
      <trkpt lat="45.08289" lon="1.92896">
        <ele>193.2</ele>
        <time>2022-08-05T17:08:18Z</time>
      </trkpt>
      <trkpt lat="45.0828" lon="1.92897">
        <ele>193.1</ele>
        <time>2022-08-05T17:08:20Z</time>
      </trkpt>
      <trkpt lat="45.08272" lon="1.92899">
        <ele>192.8</ele>
        <time>2022-08-05T17:08:22Z</time>
      </trkpt>
      <trkpt lat="45.08262" lon="1.92902">
        <ele>192.4</ele>
        <time>2022-08-05T17:08:24Z</time>
      </trkpt>
      <trkpt lat="45.08253" lon="1.92904">
        <ele>191.7</ele>
        <time>2022-08-05T17:08:26Z</time>
      </trkpt>
      <trkpt lat="45.08243" lon="1.92907">
        <ele>190.9</ele>
        <time>2022-08-05T17:08:28Z</time>
      </trkpt>
      <trkpt lat="45.08233" lon="1.92909">
        <ele>190.6</ele>
        <time>2022-08-05T17:08:30Z</time>
      </trkpt>
      <trkpt lat="45.08222" lon="1.92911">
        <ele>189.8</ele>
        <time>2022-08-05T17:08:32Z</time>
      </trkpt>
      <trkpt lat="45.08211" lon="1.92913">
        <ele>189.5</ele>
        <time>2022-08-05T17:08:34Z</time>
      </trkpt>
      <trkpt lat="45.082" lon="1.92915">
        <ele>189</ele>
        <time>2022-08-05T17:08:36Z</time>
      </trkpt>
      <trkpt lat="45.0819" lon="1.92916">
        <ele>188.6</ele>
        <time>2022-08-05T17:08:38Z</time>
      </trkpt>
      <trkpt lat="45.08179" lon="1.92917">
        <ele>188.6</ele>
        <time>2022-08-05T17:08:40Z</time>
      </trkpt>
      <trkpt lat="45.08168" lon="1.92919">
        <ele>188.7</ele>
        <time>2022-08-05T17:08:42Z</time>
      </trkpt>
      <trkpt lat="45.08156" lon="1.92923">
        <ele>188.5</ele>
        <time>2022-08-05T17:08:44Z</time>
      </trkpt>
      <trkpt lat="45.08145" lon="1.92925">
        <ele>188.4</ele>
        <time>2022-08-05T17:08:46Z</time>
      </trkpt>
      <trkpt lat="45.08134" lon="1.92928">
        <ele>188.3</ele>
        <time>2022-08-05T17:08:48Z</time>
      </trkpt>
      <trkpt lat="45.08123" lon="1.92932">
        <ele>188.1</ele>
        <time>2022-08-05T17:08:50Z</time>
      </trkpt>
      <trkpt lat="45.08112" lon="1.92935">
        <ele>187.8</ele>
        <time>2022-08-05T17:08:52Z</time>
      </trkpt>
      <trkpt lat="45.08101" lon="1.92938">
        <ele>187.6</ele>
        <time>2022-08-05T17:08:54Z</time>
      </trkpt>
      <trkpt lat="45.08091" lon="1.92941">
        <ele>187.4</ele>
        <time>2022-08-05T17:08:56Z</time>
      </trkpt>
      <trkpt lat="45.08081" lon="1.92944">
        <ele>187.2</ele>
        <time>2022-08-05T17:08:58Z</time>
      </trkpt>
      <trkpt lat="45.08071" lon="1.92947">
        <ele>187.6</ele>
        <time>2022-08-05T17:09:00Z</time>
      </trkpt>
      <trkpt lat="45.08062" lon="1.9295">
        <ele>187.9</ele>
        <time>2022-08-05T17:09:02Z</time>
      </trkpt>
      <trkpt lat="45.08053" lon="1.92955">
        <ele>188</ele>
        <time>2022-08-05T17:09:04Z</time>
      </trkpt>
      <trkpt lat="45.08044" lon="1.92958">
        <ele>188.1</ele>
        <time>2022-08-05T17:09:06Z</time>
      </trkpt>
      <trkpt lat="45.08035" lon="1.92964">
        <ele>187.9</ele>
        <time>2022-08-05T17:09:08Z</time>
      </trkpt>
      <trkpt lat="45.08026" lon="1.9297">
        <ele>187.5</ele>
        <time>2022-08-05T17:09:10Z</time>
      </trkpt>
      <trkpt lat="45.08017" lon="1.92976">
        <ele>187.1</ele>
        <time>2022-08-05T17:09:12Z</time>
      </trkpt>
      <trkpt lat="45.08008" lon="1.92982">
        <ele>186.8</ele>
        <time>2022-08-05T17:09:14Z</time>
      </trkpt>
      <trkpt lat="45.07999" lon="1.92989">
        <ele>186.3</ele>
        <time>2022-08-05T17:09:16Z</time>
      </trkpt>
      <trkpt lat="45.0799" lon="1.92995">
        <ele>186.6</ele>
        <time>2022-08-05T17:09:18Z</time>
      </trkpt>
      <trkpt lat="45.07982" lon="1.93001">
        <ele>186.9</ele>
        <time>2022-08-05T17:09:20Z</time>
      </trkpt>
      <trkpt lat="45.07974" lon="1.93006">
        <ele>187.5</ele>
        <time>2022-08-05T17:09:22Z</time>
      </trkpt>
      <trkpt lat="45.07966" lon="1.93012">
        <ele>188</ele>
        <time>2022-08-05T17:09:24Z</time>
      </trkpt>
      <trkpt lat="45.07958" lon="1.93016">
        <ele>188.6</ele>
        <time>2022-08-05T17:09:26Z</time>
      </trkpt>
      <trkpt lat="45.0795" lon="1.93021">
        <ele>189</ele>
        <time>2022-08-05T17:09:28Z</time>
      </trkpt>
      <trkpt lat="45.07942" lon="1.93024">
        <ele>189.5</ele>
        <time>2022-08-05T17:09:30Z</time>
      </trkpt>
      <trkpt lat="45.07933" lon="1.93028">
        <ele>190</ele>
        <time>2022-08-05T17:09:32Z</time>
      </trkpt>
      <trkpt lat="45.07925" lon="1.93031">
        <ele>190.4</ele>
        <time>2022-08-05T17:09:34Z</time>
      </trkpt>
      <trkpt lat="45.07916" lon="1.93033">
        <ele>190.9</ele>
        <time>2022-08-05T17:09:36Z</time>
      </trkpt>
      <trkpt lat="45.07907" lon="1.93036">
        <ele>190.3</ele>
        <time>2022-08-05T17:09:38Z</time>
      </trkpt>
      <trkpt lat="45.07898" lon="1.93038">
        <ele>189.8</ele>
        <time>2022-08-05T17:09:40Z</time>
      </trkpt>
      <trkpt lat="45.07889" lon="1.9304">
        <ele>189.3</ele>
        <time>2022-08-05T17:09:42Z</time>
      </trkpt>
      <trkpt lat="45.0788" lon="1.93042">
        <ele>188.9</ele>
        <time>2022-08-05T17:09:44Z</time>
      </trkpt>
      <trkpt lat="45.07872" lon="1.93044">
        <ele>188.4</ele>
        <time>2022-08-05T17:09:46Z</time>
      </trkpt>
      <trkpt lat="45.07864" lon="1.93046">
        <ele>188.1</ele>
        <time>2022-08-05T17:09:48Z</time>
      </trkpt>
      <trkpt lat="45.07856" lon="1.93047">
        <ele>187.9</ele>
        <time>2022-08-05T17:09:50Z</time>
      </trkpt>
      <trkpt lat="45.07847" lon="1.93047">
        <ele>187.8</ele>
        <time>2022-08-05T17:09:52Z</time>
      </trkpt>
      <trkpt lat="45.07839" lon="1.93049">
        <ele>187.5</ele>
        <time>2022-08-05T17:09:54Z</time>
      </trkpt>
      <trkpt lat="45.07831" lon="1.9305">
        <ele>187.1</ele>
        <time>2022-08-05T17:09:56Z</time>
      </trkpt>
      <trkpt lat="45.07822" lon="1.93051">
        <ele>186.6</ele>
        <time>2022-08-05T17:09:58Z</time>
      </trkpt>
      <trkpt lat="45.07814" lon="1.93051">
        <ele>186.3</ele>
        <time>2022-08-05T17:10:00Z</time>
      </trkpt>
      <trkpt lat="45.07806" lon="1.93052">
        <ele>185.9</ele>
        <time>2022-08-05T17:10:02Z</time>
      </trkpt>
      <trkpt lat="45.07798" lon="1.93053">
        <ele>185.4</ele>
        <time>2022-08-05T17:10:04Z</time>
      </trkpt>
      <trkpt lat="45.07789" lon="1.93054">
        <ele>185</ele>
        <time>2022-08-05T17:10:06Z</time>
      </trkpt>
      <trkpt lat="45.07781" lon="1.93055">
        <ele>184.6</ele>
        <time>2022-08-05T17:10:08Z</time>
      </trkpt>
      <trkpt lat="45.07772" lon="1.93056">
        <ele>184.3</ele>
        <time>2022-08-05T17:10:10Z</time>
      </trkpt>
      <trkpt lat="45.07764" lon="1.93056">
        <ele>184</ele>
        <time>2022-08-05T17:10:12Z</time>
      </trkpt>
      <trkpt lat="45.07755" lon="1.93056">
        <ele>183.8</ele>
        <time>2022-08-05T17:10:14Z</time>
      </trkpt>
      <trkpt lat="45.07747" lon="1.93056">
        <ele>183.3</ele>
        <time>2022-08-05T17:10:16Z</time>
      </trkpt>
      <trkpt lat="45.07739" lon="1.93053">
        <ele>182.8</ele>
        <time>2022-08-05T17:10:18Z</time>
      </trkpt>
      <trkpt lat="45.07732" lon="1.93048">
        <ele>182.3</ele>
        <time>2022-08-05T17:10:20Z</time>
      </trkpt>
      <trkpt lat="45.07725" lon="1.93041">
        <ele>182</ele>
        <time>2022-08-05T17:10:22Z</time>
      </trkpt>
      <trkpt lat="45.0772" lon="1.93032">
        <ele>181.8</ele>
        <time>2022-08-05T17:10:24Z</time>
      </trkpt>
      <trkpt lat="45.07717" lon="1.93022">
        <ele>182</ele>
        <time>2022-08-05T17:10:26Z</time>
      </trkpt>
      <trkpt lat="45.07716" lon="1.93011">
        <ele>182.4</ele>
        <time>2022-08-05T17:10:28Z</time>
      </trkpt>
      <trkpt lat="45.07715" lon="1.92999">
        <ele>182.8</ele>
        <time>2022-08-05T17:10:30Z</time>
      </trkpt>
      <trkpt lat="45.07715" lon="1.92987">
        <ele>183.1</ele>
        <time>2022-08-05T17:10:32Z</time>
      </trkpt>
      <trkpt lat="45.07716" lon="1.92974">
        <ele>183.5</ele>
        <time>2022-08-05T17:10:34Z</time>
      </trkpt>
      <trkpt lat="45.07717" lon="1.92961">
        <ele>183.9</ele>
        <time>2022-08-05T17:10:36Z</time>
      </trkpt>
      <trkpt lat="45.07717" lon="1.92949">
        <ele>184.1</ele>
        <time>2022-08-05T17:10:38Z</time>
      </trkpt>
      <trkpt lat="45.07718" lon="1.92937">
        <ele>184.5</ele>
        <time>2022-08-05T17:10:40Z</time>
      </trkpt>
      <trkpt lat="45.07719" lon="1.92925">
        <ele>184.9</ele>
        <time>2022-08-05T17:10:42Z</time>
      </trkpt>
      <trkpt lat="45.0772" lon="1.92913">
        <ele>185.1</ele>
        <time>2022-08-05T17:10:44Z</time>
      </trkpt>
      <trkpt lat="45.0772" lon="1.92901">
        <ele>185.3</ele>
        <time>2022-08-05T17:10:46Z</time>
      </trkpt>
      <trkpt lat="45.07721" lon="1.92889">
        <ele>185.5</ele>
        <time>2022-08-05T17:10:48Z</time>
      </trkpt>
      <trkpt lat="45.07721" lon="1.92876">
        <ele>185.7</ele>
        <time>2022-08-05T17:10:50Z</time>
      </trkpt>
      <trkpt lat="45.07722" lon="1.92864">
        <ele>185.9</ele>
        <time>2022-08-05T17:10:52Z</time>
      </trkpt>
      <trkpt lat="45.07722" lon="1.92851">
        <ele>186.1</ele>
        <time>2022-08-05T17:10:54Z</time>
      </trkpt>
      <trkpt lat="45.07723" lon="1.92839">
        <ele>186.3</ele>
        <time>2022-08-05T17:10:56Z</time>
      </trkpt>
      <trkpt lat="45.07723" lon="1.92826">
        <ele>186.4</ele>
        <time>2022-08-05T17:10:58Z</time>
      </trkpt>
      <trkpt lat="45.07724" lon="1.92814">
        <ele>186.3</ele>
        <time>2022-08-05T17:11:00Z</time>
      </trkpt>
      <trkpt lat="45.07725" lon="1.92802">
        <ele>186.3</ele>
        <time>2022-08-05T17:11:02Z</time>
      </trkpt>
      <trkpt lat="45.07726" lon="1.9279">
        <ele>186.3</ele>
        <time>2022-08-05T17:11:04Z</time>
      </trkpt>
      <trkpt lat="45.07726" lon="1.92779">
        <ele>186.3</ele>
        <time>2022-08-05T17:11:06Z</time>
      </trkpt>
      <trkpt lat="45.07727" lon="1.92768">
        <ele>186.3</ele>
        <time>2022-08-05T17:11:08Z</time>
      </trkpt>
      <trkpt lat="45.07727" lon="1.92757">
        <ele>186.3</ele>
        <time>2022-08-05T17:11:10Z</time>
      </trkpt>
      <trkpt lat="45.07728" lon="1.92746">
        <ele>186.3</ele>
        <time>2022-08-05T17:11:12Z</time>
      </trkpt>
      <trkpt lat="45.07729" lon="1.92734">
        <ele>186</ele>
        <time>2022-08-05T17:11:14Z</time>
      </trkpt>
      <trkpt lat="45.07729" lon="1.92723">
        <ele>185.8</ele>
        <time>2022-08-05T17:11:16Z</time>
      </trkpt>
      <trkpt lat="45.0773" lon="1.9271">
        <ele>185.6</ele>
        <time>2022-08-05T17:11:18Z</time>
      </trkpt>
      <trkpt lat="45.07733" lon="1.92698">
        <ele>185.7</ele>
        <time>2022-08-05T17:11:20Z</time>
      </trkpt>
      <trkpt lat="45.07737" lon="1.92685">
        <ele>185.9</ele>
        <time>2022-08-05T17:11:22Z</time>
      </trkpt>
      <trkpt lat="45.07742" lon="1.92672">
        <ele>186.1</ele>
        <time>2022-08-05T17:11:24Z</time>
      </trkpt>
      <trkpt lat="45.07747" lon="1.92658">
        <ele>186.3</ele>
        <time>2022-08-05T17:11:26Z</time>
      </trkpt>
      <trkpt lat="45.07753" lon="1.92644">
        <ele>187.2</ele>
        <time>2022-08-05T17:11:28Z</time>
      </trkpt>
      <trkpt lat="45.07759" lon="1.92629">
        <ele>189.1</ele>
        <time>2022-08-05T17:11:30Z</time>
      </trkpt>
      <trkpt lat="45.07766" lon="1.92614">
        <ele>191.2</ele>
        <time>2022-08-05T17:11:32Z</time>
      </trkpt>
      <trkpt lat="45.07773" lon="1.92599">
        <ele>193</ele>
        <time>2022-08-05T17:11:34Z</time>
      </trkpt>
      <trkpt lat="45.07779" lon="1.92582">
        <ele>194.3</ele>
        <time>2022-08-05T17:11:36Z</time>
      </trkpt>
      <trkpt lat="45.07786" lon="1.92566">
        <ele>195.4</ele>
        <time>2022-08-05T17:11:38Z</time>
      </trkpt>
      <trkpt lat="45.07791" lon="1.92549">
        <ele>195.9</ele>
        <time>2022-08-05T17:11:40Z</time>
      </trkpt>
      <trkpt lat="45.07795" lon="1.92531">
        <ele>195.8</ele>
        <time>2022-08-05T17:11:42Z</time>
      </trkpt>
      <trkpt lat="45.07798" lon="1.92512">
        <ele>195</ele>
        <time>2022-08-05T17:11:44Z</time>
      </trkpt>
      <trkpt lat="45.078" lon="1.92493">
        <ele>193.8</ele>
        <time>2022-08-05T17:11:46Z</time>
      </trkpt>
      <trkpt lat="45.07801" lon="1.92474">
        <ele>192.5</ele>
        <time>2022-08-05T17:11:48Z</time>
      </trkpt>
      <trkpt lat="45.07804" lon="1.92454">
        <ele>191.5</ele>
        <time>2022-08-05T17:11:50Z</time>
      </trkpt>
      <trkpt lat="45.0781" lon="1.92435">
        <ele>191.3</ele>
        <time>2022-08-05T17:11:52Z</time>
      </trkpt>
      <trkpt lat="45.07816" lon="1.92418">
        <ele>191</ele>
        <time>2022-08-05T17:11:54Z</time>
      </trkpt>
      <trkpt lat="45.07821" lon="1.924">
        <ele>191.4</ele>
        <time>2022-08-05T17:11:56Z</time>
      </trkpt>
      <trkpt lat="45.07826" lon="1.92383">
        <ele>191.9</ele>
        <time>2022-08-05T17:11:58Z</time>
      </trkpt>
      <trkpt lat="45.07829" lon="1.92366">
        <ele>191.9</ele>
        <time>2022-08-05T17:12:00Z</time>
      </trkpt>
      <trkpt lat="45.07832" lon="1.92348">
        <ele>191.5</ele>
        <time>2022-08-05T17:12:02Z</time>
      </trkpt>
      <trkpt lat="45.07834" lon="1.92331">
        <ele>191.2</ele>
        <time>2022-08-05T17:12:04Z</time>
      </trkpt>
      <trkpt lat="45.07834" lon="1.92313">
        <ele>191.2</ele>
        <time>2022-08-05T17:12:06Z</time>
      </trkpt>
      <trkpt lat="45.07835" lon="1.92296">
        <ele>191.3</ele>
        <time>2022-08-05T17:12:08Z</time>
      </trkpt>
      <trkpt lat="45.07835" lon="1.92279">
        <ele>191.2</ele>
        <time>2022-08-05T17:12:10Z</time>
      </trkpt>
      <trkpt lat="45.07834" lon="1.92263">
        <ele>190.5</ele>
        <time>2022-08-05T17:12:12Z</time>
      </trkpt>
      <trkpt lat="45.07832" lon="1.92247">
        <ele>189.9</ele>
        <time>2022-08-05T17:12:14Z</time>
      </trkpt>
      <trkpt lat="45.07831" lon="1.92232">
        <ele>190</ele>
        <time>2022-08-05T17:12:16Z</time>
      </trkpt>
      <trkpt lat="45.07829" lon="1.92217">
        <ele>189.9</ele>
        <time>2022-08-05T17:12:18Z</time>
      </trkpt>
      <trkpt lat="45.07828" lon="1.92206">
        <ele>189.9</ele>
        <time>2022-08-05T17:12:20Z</time>
      </trkpt>
      <trkpt lat="45.0783" lon="1.92203">
        <ele>190.4</ele>
        <time>2022-08-05T17:12:22Z</time>
      </trkpt>
      <trkpt lat="45.0783" lon="1.92203">
        <ele>190.4</ele>
        <time>2022-08-05T17:12:24Z</time>
      </trkpt>
      <trkpt lat="45.0783" lon="1.92202">
        <ele>190.4</ele>
        <time>2022-08-05T17:12:26Z</time>
      </trkpt>
      <trkpt lat="45.0783" lon="1.92202">
        <ele>190.5</ele>
        <time>2022-08-05T17:12:28Z</time>
      </trkpt>
      <trkpt lat="45.0783" lon="1.92201">
        <ele>190.4</ele>
        <time>2022-08-05T17:12:30Z</time>
      </trkpt>
      <trkpt lat="45.0783" lon="1.92201">
        <ele>190.4</ele>
        <time>2022-08-05T17:12:32Z</time>
      </trkpt>
      <trkpt lat="45.07826" lon="1.92188">
        <ele>189.7</ele>
        <time>2022-08-05T17:20:28Z</time>
      </trkpt>
      <trkpt lat="45.07824" lon="1.9218">
        <ele>189.6</ele>
        <time>2022-08-05T17:20:30Z</time>
      </trkpt>
      <trkpt lat="45.07823" lon="1.92172">
        <ele>189.5</ele>
        <time>2022-08-05T17:20:32Z</time>
      </trkpt>
      <trkpt lat="45.07821" lon="1.92162">
        <ele>189.5</ele>
        <time>2022-08-05T17:20:34Z</time>
      </trkpt>
      <trkpt lat="45.07818" lon="1.92152">
        <ele>189.7</ele>
        <time>2022-08-05T17:20:36Z</time>
      </trkpt>
      <trkpt lat="45.07817" lon="1.92141">
        <ele>190.1</ele>
        <time>2022-08-05T17:20:38Z</time>
      </trkpt>
      <trkpt lat="45.07815" lon="1.92131">
        <ele>190.4</ele>
        <time>2022-08-05T17:20:40Z</time>
      </trkpt>
      <trkpt lat="45.07812" lon="1.92119">
        <ele>190.6</ele>
        <time>2022-08-05T17:20:42Z</time>
      </trkpt>
      <trkpt lat="45.0781" lon="1.92108">
        <ele>190.8</ele>
        <time>2022-08-05T17:20:44Z</time>
      </trkpt>
      <trkpt lat="45.07808" lon="1.92096">
        <ele>191.3</ele>
        <time>2022-08-05T17:20:46Z</time>
      </trkpt>
      <trkpt lat="45.07806" lon="1.92084">
        <ele>191.4</ele>
        <time>2022-08-05T17:20:48Z</time>
      </trkpt>
      <trkpt lat="45.07804" lon="1.92072">
        <ele>191.4</ele>
        <time>2022-08-05T17:20:50Z</time>
      </trkpt>
      <trkpt lat="45.07801" lon="1.92059">
        <ele>191.3</ele>
        <time>2022-08-05T17:20:52Z</time>
      </trkpt>
      <trkpt lat="45.07799" lon="1.92047">
        <ele>191.3</ele>
        <time>2022-08-05T17:20:54Z</time>
      </trkpt>
      <trkpt lat="45.07798" lon="1.92034">
        <ele>191.3</ele>
        <time>2022-08-05T17:20:56Z</time>
      </trkpt>
      <trkpt lat="45.07797" lon="1.92021">
        <ele>191.6</ele>
        <time>2022-08-05T17:20:58Z</time>
      </trkpt>
      <trkpt lat="45.07797" lon="1.92008">
        <ele>192.1</ele>
        <time>2022-08-05T17:21:00Z</time>
      </trkpt>
      <trkpt lat="45.07798" lon="1.91995">
        <ele>192.6</ele>
        <time>2022-08-05T17:21:02Z</time>
      </trkpt>
      <trkpt lat="45.07798" lon="1.91983">
        <ele>192.5</ele>
        <time>2022-08-05T17:21:04Z</time>
      </trkpt>
      <trkpt lat="45.078" lon="1.9197">
        <ele>192.7</ele>
        <time>2022-08-05T17:21:06Z</time>
      </trkpt>
      <trkpt lat="45.078" lon="1.91958">
        <ele>192.6</ele>
        <time>2022-08-05T17:21:08Z</time>
      </trkpt>
      <trkpt lat="45.07801" lon="1.91947">
        <ele>192.3</ele>
        <time>2022-08-05T17:21:10Z</time>
      </trkpt>
      <trkpt lat="45.078" lon="1.91935">
        <ele>191.8</ele>
        <time>2022-08-05T17:21:12Z</time>
      </trkpt>
      <trkpt lat="45.078" lon="1.91924">
        <ele>191.4</ele>
        <time>2022-08-05T17:21:14Z</time>
      </trkpt>
      <trkpt lat="45.07799" lon="1.91913">
        <ele>191.1</ele>
        <time>2022-08-05T17:21:16Z</time>
      </trkpt>
      <trkpt lat="45.07798" lon="1.91902">
        <ele>191.4</ele>
        <time>2022-08-05T17:21:18Z</time>
      </trkpt>
      <trkpt lat="45.07797" lon="1.91891">
        <ele>191.6</ele>
        <time>2022-08-05T17:21:20Z</time>
      </trkpt>
      <trkpt lat="45.07796" lon="1.9188">
        <ele>191.7</ele>
        <time>2022-08-05T17:21:22Z</time>
      </trkpt>
      <trkpt lat="45.07794" lon="1.9187">
        <ele>191.5</ele>
        <time>2022-08-05T17:21:24Z</time>
      </trkpt>
      <trkpt lat="45.07793" lon="1.91859">
        <ele>191.8</ele>
        <time>2022-08-05T17:21:26Z</time>
      </trkpt>
      <trkpt lat="45.07792" lon="1.91848">
        <ele>191.8</ele>
        <time>2022-08-05T17:21:28Z</time>
      </trkpt>
      <trkpt lat="45.0779" lon="1.91837">
        <ele>191.7</ele>
        <time>2022-08-05T17:21:30Z</time>
      </trkpt>
      <trkpt lat="45.0779" lon="1.91826">
        <ele>192.3</ele>
        <time>2022-08-05T17:21:32Z</time>
      </trkpt>
      <trkpt lat="45.07788" lon="1.91815">
        <ele>192.3</ele>
        <time>2022-08-05T17:21:34Z</time>
      </trkpt>
      <trkpt lat="45.07788" lon="1.91804">
        <ele>192.7</ele>
        <time>2022-08-05T17:21:36Z</time>
      </trkpt>
      <trkpt lat="45.07787" lon="1.91793">
        <ele>192.7</ele>
        <time>2022-08-05T17:21:38Z</time>
      </trkpt>
      <trkpt lat="45.07786" lon="1.91782">
        <ele>192.8</ele>
        <time>2022-08-05T17:21:40Z</time>
      </trkpt>
      <trkpt lat="45.07784" lon="1.91772">
        <ele>192.6</ele>
        <time>2022-08-05T17:21:42Z</time>
      </trkpt>
      <trkpt lat="45.07782" lon="1.91762">
        <ele>192.2</ele>
        <time>2022-08-05T17:21:44Z</time>
      </trkpt>
      <trkpt lat="45.0778" lon="1.91751">
        <ele>191.7</ele>
        <time>2022-08-05T17:21:46Z</time>
      </trkpt>
      <trkpt lat="45.07779" lon="1.91739">
        <ele>191.9</ele>
        <time>2022-08-05T17:21:48Z</time>
      </trkpt>
      <trkpt lat="45.07776" lon="1.91728">
        <ele>191.6</ele>
        <time>2022-08-05T17:21:50Z</time>
      </trkpt>
      <trkpt lat="45.07774" lon="1.91716">
        <ele>191.3</ele>
        <time>2022-08-05T17:21:52Z</time>
      </trkpt>
      <trkpt lat="45.07772" lon="1.91703">
        <ele>191.3</ele>
        <time>2022-08-05T17:21:54Z</time>
      </trkpt>
      <trkpt lat="45.07768" lon="1.9169">
        <ele>190.2</ele>
        <time>2022-08-05T17:21:56Z</time>
      </trkpt>
      <trkpt lat="45.07765" lon="1.91676">
        <ele>189.1</ele>
        <time>2022-08-05T17:21:58Z</time>
      </trkpt>
      <trkpt lat="45.07761" lon="1.91662">
        <ele>187.7</ele>
        <time>2022-08-05T17:22:00Z</time>
      </trkpt>
      <trkpt lat="45.07758" lon="1.91649">
        <ele>186.2</ele>
        <time>2022-08-05T17:22:02Z</time>
      </trkpt>
      <trkpt lat="45.07754" lon="1.91635">
        <ele>184.6</ele>
        <time>2022-08-05T17:22:04Z</time>
      </trkpt>
      <trkpt lat="45.07751" lon="1.91621">
        <ele>183.2</ele>
        <time>2022-08-05T17:22:06Z</time>
      </trkpt>
      <trkpt lat="45.07747" lon="1.91607">
        <ele>183.2</ele>
        <time>2022-08-05T17:22:08Z</time>
      </trkpt>
      <trkpt lat="45.07744" lon="1.91592">
        <ele>183.5</ele>
        <time>2022-08-05T17:22:10Z</time>
      </trkpt>
      <trkpt lat="45.07741" lon="1.91578">
        <ele>184</ele>
        <time>2022-08-05T17:22:12Z</time>
      </trkpt>
      <trkpt lat="45.07739" lon="1.91563">
        <ele>184.9</ele>
        <time>2022-08-05T17:22:14Z</time>
      </trkpt>
      <trkpt lat="45.07737" lon="1.91548">
        <ele>185.7</ele>
        <time>2022-08-05T17:22:16Z</time>
      </trkpt>
      <trkpt lat="45.07736" lon="1.91534">
        <ele>186.6</ele>
        <time>2022-08-05T17:22:18Z</time>
      </trkpt>
      <trkpt lat="45.07734" lon="1.91519">
        <ele>187.3</ele>
        <time>2022-08-05T17:22:20Z</time>
      </trkpt>
      <trkpt lat="45.07732" lon="1.91505">
        <ele>187.6</ele>
        <time>2022-08-05T17:22:22Z</time>
      </trkpt>
      <trkpt lat="45.07729" lon="1.91491">
        <ele>187.4</ele>
        <time>2022-08-05T17:22:24Z</time>
      </trkpt>
      <trkpt lat="45.07726" lon="1.91477">
        <ele>186.8</ele>
        <time>2022-08-05T17:22:26Z</time>
      </trkpt>
      <trkpt lat="45.07722" lon="1.91462">
        <ele>186.1</ele>
        <time>2022-08-05T17:22:28Z</time>
      </trkpt>
      <trkpt lat="45.07719" lon="1.91448">
        <ele>185.5</ele>
        <time>2022-08-05T17:22:30Z</time>
      </trkpt>
      <trkpt lat="45.07717" lon="1.91434">
        <ele>185</ele>
        <time>2022-08-05T17:22:32Z</time>
      </trkpt>
      <trkpt lat="45.07714" lon="1.91421">
        <ele>184.3</ele>
        <time>2022-08-05T17:22:34Z</time>
      </trkpt>
      <trkpt lat="45.07712" lon="1.91407">
        <ele>184.6</ele>
        <time>2022-08-05T17:22:36Z</time>
      </trkpt>
      <trkpt lat="45.0771" lon="1.91394">
        <ele>185.1</ele>
        <time>2022-08-05T17:22:38Z</time>
      </trkpt>
      <trkpt lat="45.07708" lon="1.91382">
        <ele>185.4</ele>
        <time>2022-08-05T17:22:40Z</time>
      </trkpt>
      <trkpt lat="45.07706" lon="1.91369">
        <ele>185.7</ele>
        <time>2022-08-05T17:22:42Z</time>
      </trkpt>
      <trkpt lat="45.07704" lon="1.91357">
        <ele>186</ele>
        <time>2022-08-05T17:22:44Z</time>
      </trkpt>
      <trkpt lat="45.07702" lon="1.91345">
        <ele>186.3</ele>
        <time>2022-08-05T17:22:46Z</time>
      </trkpt>
      <trkpt lat="45.077" lon="1.91333">
        <ele>186.2</ele>
        <time>2022-08-05T17:22:48Z</time>
      </trkpt>
      <trkpt lat="45.07698" lon="1.91321">
        <ele>185.4</ele>
        <time>2022-08-05T17:22:50Z</time>
      </trkpt>
      <trkpt lat="45.07696" lon="1.91309">
        <ele>184.8</ele>
        <time>2022-08-05T17:22:52Z</time>
      </trkpt>
      <trkpt lat="45.07696" lon="1.91297">
        <ele>184.4</ele>
        <time>2022-08-05T17:22:54Z</time>
      </trkpt>
      <trkpt lat="45.07695" lon="1.91284">
        <ele>184.1</ele>
        <time>2022-08-05T17:22:56Z</time>
      </trkpt>
      <trkpt lat="45.07696" lon="1.91272">
        <ele>184.2</ele>
        <time>2022-08-05T17:22:58Z</time>
      </trkpt>
      <trkpt lat="45.07696" lon="1.9126">
        <ele>183.9</ele>
        <time>2022-08-05T17:23:00Z</time>
      </trkpt>
      <trkpt lat="45.07696" lon="1.91248">
        <ele>183.9</ele>
        <time>2022-08-05T17:23:02Z</time>
      </trkpt>
      <trkpt lat="45.07696" lon="1.91237">
        <ele>184.1</ele>
        <time>2022-08-05T17:23:04Z</time>
      </trkpt>
      <trkpt lat="45.07697" lon="1.91226">
        <ele>184.3</ele>
        <time>2022-08-05T17:23:06Z</time>
      </trkpt>
      <trkpt lat="45.07696" lon="1.91215">
        <ele>184.1</ele>
        <time>2022-08-05T17:23:08Z</time>
      </trkpt>
      <trkpt lat="45.07691" lon="1.91206">
        <ele>182</ele>
        <time>2022-08-05T17:23:10Z</time>
      </trkpt>
      <trkpt lat="45.07682" lon="1.91207">
        <ele>178.2</ele>
        <time>2022-08-05T17:23:12Z</time>
      </trkpt>
      <trkpt lat="45.07673" lon="1.91211">
        <ele>174.4</ele>
        <time>2022-08-05T17:23:14Z</time>
      </trkpt>
      <trkpt lat="45.07664" lon="1.91214">
        <ele>171.9</ele>
        <time>2022-08-05T17:23:16Z</time>
      </trkpt>
      <trkpt lat="45.07657" lon="1.91217">
        <ele>171.8</ele>
        <time>2022-08-05T17:23:18Z</time>
      </trkpt>
      <trkpt lat="45.0765" lon="1.91219">
        <ele>171.9</ele>
        <time>2022-08-05T17:23:20Z</time>
      </trkpt>
      <trkpt lat="45.07643" lon="1.91221">
        <ele>171.9</ele>
        <time>2022-08-05T17:23:22Z</time>
      </trkpt>
      <trkpt lat="45.07636" lon="1.91223">
        <ele>171.9</ele>
        <time>2022-08-05T17:23:24Z</time>
      </trkpt>
      <trkpt lat="45.0763" lon="1.91225">
        <ele>172</ele>
        <time>2022-08-05T17:23:26Z</time>
      </trkpt>
      <trkpt lat="45.07624" lon="1.91227">
        <ele>172</ele>
        <time>2022-08-05T17:23:28Z</time>
      </trkpt>
      <trkpt lat="45.07618" lon="1.91229">
        <ele>172.1</ele>
        <time>2022-08-05T17:23:30Z</time>
      </trkpt>
      <trkpt lat="45.07612" lon="1.9123">
        <ele>172.2</ele>
        <time>2022-08-05T17:23:32Z</time>
      </trkpt>
      <trkpt lat="45.07606" lon="1.91232">
        <ele>172.3</ele>
        <time>2022-08-05T17:23:34Z</time>
      </trkpt>
      <trkpt lat="45.07601" lon="1.91234">
        <ele>172.4</ele>
        <time>2022-08-05T17:23:36Z</time>
      </trkpt>
      <trkpt lat="45.07594" lon="1.91236">
        <ele>172.5</ele>
        <time>2022-08-05T17:23:38Z</time>
      </trkpt>
      <trkpt lat="45.07588" lon="1.91238">
        <ele>172.6</ele>
        <time>2022-08-05T17:23:40Z</time>
      </trkpt>
      <trkpt lat="45.07581" lon="1.9124">
        <ele>172.8</ele>
        <time>2022-08-05T17:23:42Z</time>
      </trkpt>
      <trkpt lat="45.07574" lon="1.91242">
        <ele>173.1</ele>
        <time>2022-08-05T17:23:44Z</time>
      </trkpt>
      <trkpt lat="45.07566" lon="1.91245">
        <ele>173.3</ele>
        <time>2022-08-05T17:23:46Z</time>
      </trkpt>
      <trkpt lat="45.07558" lon="1.91247">
        <ele>173.5</ele>
        <time>2022-08-05T17:23:48Z</time>
      </trkpt>
      <trkpt lat="45.07551" lon="1.91249">
        <ele>173.8</ele>
        <time>2022-08-05T17:23:50Z</time>
      </trkpt>
      <trkpt lat="45.07543" lon="1.9125">
        <ele>174</ele>
        <time>2022-08-05T17:23:52Z</time>
      </trkpt>
      <trkpt lat="45.07539" lon="1.91242">
        <ele>174</ele>
        <time>2022-08-05T17:23:54Z</time>
      </trkpt>
      <trkpt lat="45.07537" lon="1.91233">
        <ele>173.9</ele>
        <time>2022-08-05T17:23:56Z</time>
      </trkpt>
      <trkpt lat="45.07536" lon="1.91225">
        <ele>173.9</ele>
        <time>2022-08-05T17:23:58Z</time>
      </trkpt>
      <trkpt lat="45.07534" lon="1.91217">
        <ele>173.9</ele>
        <time>2022-08-05T17:24:00Z</time>
      </trkpt>
      <trkpt lat="45.07532" lon="1.91209">
        <ele>173.8</ele>
        <time>2022-08-05T17:24:02Z</time>
      </trkpt>
      <trkpt lat="45.07531" lon="1.91201">
        <ele>173.8</ele>
        <time>2022-08-05T17:24:04Z</time>
      </trkpt>
      <trkpt lat="45.07529" lon="1.91192">
        <ele>173.8</ele>
        <time>2022-08-05T17:24:06Z</time>
      </trkpt>
      <trkpt lat="45.07526" lon="1.91182">
        <ele>173.9</ele>
        <time>2022-08-05T17:24:08Z</time>
      </trkpt>
      <trkpt lat="45.07524" lon="1.91172">
        <ele>173.9</ele>
        <time>2022-08-05T17:24:10Z</time>
      </trkpt>
      <trkpt lat="45.07521" lon="1.91163">
        <ele>173.9</ele>
        <time>2022-08-05T17:24:12Z</time>
      </trkpt>
      <trkpt lat="45.07518" lon="1.91153">
        <ele>173.8</ele>
        <time>2022-08-05T17:24:14Z</time>
      </trkpt>
      <trkpt lat="45.07515" lon="1.91143">
        <ele>173.7</ele>
        <time>2022-08-05T17:24:16Z</time>
      </trkpt>
      <trkpt lat="45.07512" lon="1.91133">
        <ele>173.6</ele>
        <time>2022-08-05T17:24:18Z</time>
      </trkpt>
      <trkpt lat="45.0751" lon="1.91122">
        <ele>173.4</ele>
        <time>2022-08-05T17:24:20Z</time>
      </trkpt>
      <trkpt lat="45.07507" lon="1.9111">
        <ele>173.2</ele>
        <time>2022-08-05T17:24:22Z</time>
      </trkpt>
      <trkpt lat="45.07505" lon="1.91098">
        <ele>173</ele>
        <time>2022-08-05T17:24:24Z</time>
      </trkpt>
      <trkpt lat="45.07503" lon="1.91086">
        <ele>172.9</ele>
        <time>2022-08-05T17:24:26Z</time>
      </trkpt>
      <trkpt lat="45.07499" lon="1.91074">
        <ele>172.8</ele>
        <time>2022-08-05T17:24:28Z</time>
      </trkpt>
      <trkpt lat="45.07495" lon="1.91062">
        <ele>172.6</ele>
        <time>2022-08-05T17:24:30Z</time>
      </trkpt>
      <trkpt lat="45.07492" lon="1.9105">
        <ele>172.4</ele>
        <time>2022-08-05T17:24:32Z</time>
      </trkpt>
      <trkpt lat="45.07489" lon="1.91038">
        <ele>172.2</ele>
        <time>2022-08-05T17:24:34Z</time>
      </trkpt>
      <trkpt lat="45.07487" lon="1.91026">
        <ele>172</ele>
        <time>2022-08-05T17:24:36Z</time>
      </trkpt>
      <trkpt lat="45.07483" lon="1.91015">
        <ele>171.9</ele>
        <time>2022-08-05T17:24:38Z</time>
      </trkpt>
      <trkpt lat="45.0748" lon="1.91004">
        <ele>171.8</ele>
        <time>2022-08-05T17:24:40Z</time>
      </trkpt>
      <trkpt lat="45.07476" lon="1.90993">
        <ele>171.8</ele>
        <time>2022-08-05T17:24:42Z</time>
      </trkpt>
      <trkpt lat="45.07473" lon="1.90982">
        <ele>171.7</ele>
        <time>2022-08-05T17:24:44Z</time>
      </trkpt>
      <trkpt lat="45.07471" lon="1.9097">
        <ele>171.6</ele>
        <time>2022-08-05T17:24:46Z</time>
      </trkpt>
      <trkpt lat="45.07469" lon="1.9096">
        <ele>171.5</ele>
        <time>2022-08-05T17:24:48Z</time>
      </trkpt>
      <trkpt lat="45.07466" lon="1.9095">
        <ele>171.5</ele>
        <time>2022-08-05T17:24:50Z</time>
      </trkpt>
      <trkpt lat="45.07464" lon="1.9094">
        <ele>171.5</ele>
        <time>2022-08-05T17:24:52Z</time>
      </trkpt>
      <trkpt lat="45.0746" lon="1.9093">
        <ele>171.6</ele>
        <time>2022-08-05T17:24:54Z</time>
      </trkpt>
      <trkpt lat="45.07456" lon="1.90922">
        <ele>171.7</ele>
        <time>2022-08-05T17:24:56Z</time>
      </trkpt>
      <trkpt lat="45.07453" lon="1.90913">
        <ele>171.7</ele>
        <time>2022-08-05T17:24:58Z</time>
      </trkpt>
      <trkpt lat="45.07451" lon="1.90906">
        <ele>171.6</ele>
        <time>2022-08-05T17:25:00Z</time>
      </trkpt>
      <trkpt lat="45.07449" lon="1.90897">
        <ele>171.5</ele>
        <time>2022-08-05T17:25:02Z</time>
      </trkpt>
      <trkpt lat="45.07447" lon="1.90889">
        <ele>171.4</ele>
        <time>2022-08-05T17:25:04Z</time>
      </trkpt>
      <trkpt lat="45.07447" lon="1.90882">
        <ele>171.2</ele>
        <time>2022-08-05T17:25:06Z</time>
      </trkpt>
      <trkpt lat="45.07446" lon="1.90876">
        <ele>171.1</ele>
        <time>2022-08-05T17:25:08Z</time>
      </trkpt>
      <trkpt lat="45.07445" lon="1.90872">
        <ele>171.1</ele>
        <time>2022-08-05T17:25:10Z</time>
      </trkpt>
      <trkpt lat="45.07444" lon="1.90867">
        <ele>171</ele>
        <time>2022-08-05T17:25:12Z</time>
      </trkpt>
      <trkpt lat="45.07442" lon="1.90867">
        <ele>171.1</ele>
        <time>2022-08-05T17:25:14Z</time>
      </trkpt>
      <trkpt lat="45.07443" lon="1.90867">
        <ele>171.1</ele>
        <time>2022-08-05T17:25:16Z</time>
      </trkpt>
      <trkpt lat="45.07442" lon="1.90868">
        <ele>171.1</ele>
        <time>2022-08-05T17:25:18Z</time>
      </trkpt>
      <trkpt lat="45.07442" lon="1.90867">
        <ele>171.1</ele>
        <time>2022-08-05T17:25:20Z</time>
      </trkpt>
      <trkpt lat="45.07425" lon="1.90871">
        <ele>172.3</ele>
        <time>2022-08-05T17:25:50Z</time>
      </trkpt>
      <trkpt lat="45.07421" lon="1.90873">
        <ele>172.7</ele>
        <time>2022-08-05T17:25:52Z</time>
      </trkpt>
      <trkpt lat="45.07416" lon="1.90876">
        <ele>173</ele>
        <time>2022-08-05T17:25:54Z</time>
      </trkpt>
      <trkpt lat="45.0741" lon="1.90877">
        <ele>173</ele>
        <time>2022-08-05T17:25:56Z</time>
      </trkpt>
      <trkpt lat="45.07404" lon="1.90879">
        <ele>173</ele>
        <time>2022-08-05T17:25:58Z</time>
      </trkpt>
      <trkpt lat="45.07399" lon="1.9088">
        <ele>173</ele>
        <time>2022-08-05T17:26:00Z</time>
      </trkpt>
      <trkpt lat="45.07393" lon="1.90882">
        <ele>173</ele>
        <time>2022-08-05T17:26:02Z</time>
      </trkpt>
      <trkpt lat="45.07389" lon="1.90884">
        <ele>173</ele>
        <time>2022-08-05T17:26:04Z</time>
      </trkpt>
      <trkpt lat="45.07385" lon="1.90884">
        <ele>173</ele>
        <time>2022-08-05T17:26:06Z</time>
      </trkpt>
      <trkpt lat="45.07382" lon="1.90882">
        <ele>172.9</ele>
        <time>2022-08-05T17:26:08Z</time>
      </trkpt>
      <trkpt lat="45.07379" lon="1.90878">
        <ele>172.8</ele>
        <time>2022-08-05T17:26:10Z</time>
      </trkpt>
      <trkpt lat="45.07375" lon="1.90873">
        <ele>172.7</ele>
        <time>2022-08-05T17:26:12Z</time>
      </trkpt>
      <trkpt lat="45.07371" lon="1.90869">
        <ele>172.6</ele>
        <time>2022-08-05T17:26:14Z</time>
      </trkpt>
      <trkpt lat="45.07368" lon="1.90865">
        <ele>172.5</ele>
        <time>2022-08-05T17:26:16Z</time>
      </trkpt>
      <trkpt lat="45.07363" lon="1.90859">
        <ele>172.4</ele>
        <time>2022-08-05T17:26:18Z</time>
      </trkpt>
      <trkpt lat="45.07358" lon="1.90854">
        <ele>172.3</ele>
        <time>2022-08-05T17:26:20Z</time>
      </trkpt>
      <trkpt lat="45.07354" lon="1.90848">
        <ele>172.2</ele>
        <time>2022-08-05T17:26:22Z</time>
      </trkpt>
      <trkpt lat="45.07349" lon="1.90843">
        <ele>172.1</ele>
        <time>2022-08-05T17:26:24Z</time>
      </trkpt>
      <trkpt lat="45.07343" lon="1.90837">
        <ele>172</ele>
        <time>2022-08-05T17:26:26Z</time>
      </trkpt>
      <trkpt lat="45.07339" lon="1.90831">
        <ele>172</ele>
        <time>2022-08-05T17:26:28Z</time>
      </trkpt>
      <trkpt lat="45.07333" lon="1.90825">
        <ele>172</ele>
        <time>2022-08-05T17:26:30Z</time>
      </trkpt>
      <trkpt lat="45.07329" lon="1.9082">
        <ele>172.1</ele>
        <time>2022-08-05T17:26:32Z</time>
      </trkpt>
      <trkpt lat="45.07324" lon="1.90815">
        <ele>172.2</ele>
        <time>2022-08-05T17:26:34Z</time>
      </trkpt>
      <trkpt lat="45.07319" lon="1.9081">
        <ele>172.3</ele>
        <time>2022-08-05T17:26:36Z</time>
      </trkpt>
      <trkpt lat="45.07315" lon="1.90804">
        <ele>172.4</ele>
        <time>2022-08-05T17:26:38Z</time>
      </trkpt>
      <trkpt lat="45.0731" lon="1.90798">
        <ele>172.4</ele>
        <time>2022-08-05T17:26:40Z</time>
      </trkpt>
      <trkpt lat="45.07305" lon="1.90794">
        <ele>172.5</ele>
        <time>2022-08-05T17:26:42Z</time>
      </trkpt>
      <trkpt lat="45.073" lon="1.90788">
        <ele>172.6</ele>
        <time>2022-08-05T17:26:44Z</time>
      </trkpt>
      <trkpt lat="45.07296" lon="1.90783">
        <ele>172.6</ele>
        <time>2022-08-05T17:26:46Z</time>
      </trkpt>
      <trkpt lat="45.07292" lon="1.90778">
        <ele>172.7</ele>
        <time>2022-08-05T17:26:48Z</time>
      </trkpt>
      <trkpt lat="45.07288" lon="1.90773">
        <ele>172.7</ele>
        <time>2022-08-05T17:26:50Z</time>
      </trkpt>
      <trkpt lat="45.07283" lon="1.90767">
        <ele>172.7</ele>
        <time>2022-08-05T17:26:52Z</time>
      </trkpt>
      <trkpt lat="45.07279" lon="1.90763">
        <ele>172.8</ele>
        <time>2022-08-05T17:26:54Z</time>
      </trkpt>
      <trkpt lat="45.07275" lon="1.90759">
        <ele>172.8</ele>
        <time>2022-08-05T17:26:56Z</time>
      </trkpt>
      <trkpt lat="45.07272" lon="1.90755">
        <ele>172.8</ele>
        <time>2022-08-05T17:26:58Z</time>
      </trkpt>
      <trkpt lat="45.07269" lon="1.90751">
        <ele>172.8</ele>
        <time>2022-08-05T17:27:00Z</time>
      </trkpt>
      <trkpt lat="45.07265" lon="1.90747">
        <ele>172.8</ele>
        <time>2022-08-05T17:27:02Z</time>
      </trkpt>
      <trkpt lat="45.0726" lon="1.90742">
        <ele>172.8</ele>
        <time>2022-08-05T17:27:04Z</time>
      </trkpt>
      <trkpt lat="45.07256" lon="1.90739">
        <ele>172.8</ele>
        <time>2022-08-05T17:27:06Z</time>
      </trkpt>
      <trkpt lat="45.07252" lon="1.90735">
        <ele>172.8</ele>
        <time>2022-08-05T17:27:08Z</time>
      </trkpt>
      <trkpt lat="45.07248" lon="1.90731">
        <ele>172.8</ele>
        <time>2022-08-05T17:27:10Z</time>
      </trkpt>
      <trkpt lat="45.07246" lon="1.9073">
        <ele>172.7</ele>
        <time>2022-08-05T17:27:12Z</time>
      </trkpt>
      <trkpt lat="45.07244" lon="1.90728">
        <ele>172.7</ele>
        <time>2022-08-05T17:27:14Z</time>
      </trkpt>
      <trkpt lat="45.0724" lon="1.90726">
        <ele>172.6</ele>
        <time>2022-08-05T17:27:16Z</time>
      </trkpt>
      <trkpt lat="45.07237" lon="1.90724">
        <ele>172.6</ele>
        <time>2022-08-05T17:27:18Z</time>
      </trkpt>
      <trkpt lat="45.07234" lon="1.90723">
        <ele>172.5</ele>
        <time>2022-08-05T17:27:20Z</time>
      </trkpt>
      <trkpt lat="45.07232" lon="1.9072">
        <ele>172.5</ele>
        <time>2022-08-05T17:27:22Z</time>
      </trkpt>
      <trkpt lat="45.07228" lon="1.90719">
        <ele>172.4</ele>
        <time>2022-08-05T17:27:24Z</time>
      </trkpt>
      <trkpt lat="45.07224" lon="1.90716">
        <ele>172.3</ele>
        <time>2022-08-05T17:27:26Z</time>
      </trkpt>
      <trkpt lat="45.07219" lon="1.90715">
        <ele>172.3</ele>
        <time>2022-08-05T17:27:28Z</time>
      </trkpt>
      <trkpt lat="45.07215" lon="1.90713">
        <ele>172.2</ele>
        <time>2022-08-05T17:27:30Z</time>
      </trkpt>
      <trkpt lat="45.07211" lon="1.90711">
        <ele>172.1</ele>
        <time>2022-08-05T17:27:32Z</time>
      </trkpt>
      <trkpt lat="45.07207" lon="1.90709">
        <ele>172</ele>
        <time>2022-08-05T17:27:34Z</time>
      </trkpt>
      <trkpt lat="45.07202" lon="1.90708">
        <ele>171.9</ele>
        <time>2022-08-05T17:27:36Z</time>
      </trkpt>
      <trkpt lat="45.07198" lon="1.90707">
        <ele>171.8</ele>
        <time>2022-08-05T17:27:38Z</time>
      </trkpt>
      <trkpt lat="45.07193" lon="1.90705">
        <ele>171.7</ele>
        <time>2022-08-05T17:27:40Z</time>
      </trkpt>
      <trkpt lat="45.07188" lon="1.90704">
        <ele>171.6</ele>
        <time>2022-08-05T17:27:42Z</time>
      </trkpt>
      <trkpt lat="45.07183" lon="1.90702">
        <ele>171.5</ele>
        <time>2022-08-05T17:27:44Z</time>
      </trkpt>
      <trkpt lat="45.07179" lon="1.90701">
        <ele>171.4</ele>
        <time>2022-08-05T17:27:46Z</time>
      </trkpt>
      <trkpt lat="45.07176" lon="1.90699">
        <ele>171.3</ele>
        <time>2022-08-05T17:27:48Z</time>
      </trkpt>
      <trkpt lat="45.07173" lon="1.90698">
        <ele>171.2</ele>
        <time>2022-08-05T17:27:50Z</time>
      </trkpt>
      <trkpt lat="45.07169" lon="1.90696">
        <ele>171.1</ele>
        <time>2022-08-05T17:27:52Z</time>
      </trkpt>
      <trkpt lat="45.07165" lon="1.90695">
        <ele>171.1</ele>
        <time>2022-08-05T17:27:54Z</time>
      </trkpt>
      <trkpt lat="45.07162" lon="1.90694">
        <ele>171.1</ele>
        <time>2022-08-05T17:27:56Z</time>
      </trkpt>
      <trkpt lat="45.07162" lon="1.90694">
        <ele>171.1</ele>
        <time>2022-08-05T17:27:58Z</time>
      </trkpt>
      <trkpt lat="45.07162" lon="1.90694">
        <ele>171.1</ele>
        <time>2022-08-05T17:28:00Z</time>
      </trkpt>
      <trkpt lat="45.07161" lon="1.90693">
        <ele>171.1</ele>
        <time>2022-08-05T17:28:02Z</time>
      </trkpt>
      <trkpt lat="45.07158" lon="1.90691">
        <ele>171.1</ele>
        <time>2022-08-05T17:28:04Z</time>
      </trkpt>
      <trkpt lat="45.07153" lon="1.9069">
        <ele>171.2</ele>
        <time>2022-08-05T17:28:06Z</time>
      </trkpt>
      <trkpt lat="45.07148" lon="1.90688">
        <ele>171.3</ele>
        <time>2022-08-05T17:28:08Z</time>
      </trkpt>
      <trkpt lat="45.07145" lon="1.90687">
        <ele>171.3</ele>
        <time>2022-08-05T17:28:10Z</time>
      </trkpt>
      <trkpt lat="45.07144" lon="1.90684">
        <ele>171.3</ele>
        <time>2022-08-05T17:28:12Z</time>
      </trkpt>
      <trkpt lat="45.07145" lon="1.90685">
        <ele>171.3</ele>
        <time>2022-08-05T17:28:14Z</time>
      </trkpt>
      <trkpt lat="45.07145" lon="1.90685">
        <ele>171.3</ele>
        <time>2022-08-05T17:28:16Z</time>
      </trkpt>
      <trkpt lat="45.07145" lon="1.90685">
        <ele>171.3</ele>
        <time>2022-08-05T17:28:18Z</time>
      </trkpt>
      <trkpt lat="45.07145" lon="1.90685">
        <ele>171.3</ele>
        <time>2022-08-05T17:28:20Z</time>
      </trkpt>
      <trkpt lat="45.07186" lon="1.90704">
        <ele>171.6</ele>
        <time>2022-08-05T17:30:56Z</time>
      </trkpt>
      <trkpt lat="45.07191" lon="1.90705">
        <ele>171.7</ele>
        <time>2022-08-05T17:30:58Z</time>
      </trkpt>
      <trkpt lat="45.07195" lon="1.90707">
        <ele>171.8</ele>
        <time>2022-08-05T17:31:00Z</time>
      </trkpt>
      <trkpt lat="45.07201" lon="1.90709">
        <ele>171.9</ele>
        <time>2022-08-05T17:31:02Z</time>
      </trkpt>
      <trkpt lat="45.07206" lon="1.90711">
        <ele>172</ele>
        <time>2022-08-05T17:31:04Z</time>
      </trkpt>
      <trkpt lat="45.0721" lon="1.90712">
        <ele>172.1</ele>
        <time>2022-08-05T17:31:06Z</time>
      </trkpt>
      <trkpt lat="45.07214" lon="1.90714">
        <ele>172.2</ele>
        <time>2022-08-05T17:31:08Z</time>
      </trkpt>
      <trkpt lat="45.07217" lon="1.90714">
        <ele>172.2</ele>
        <time>2022-08-05T17:31:10Z</time>
      </trkpt>
      <trkpt lat="45.0722" lon="1.90714">
        <ele>172.3</ele>
        <time>2022-08-05T17:31:12Z</time>
      </trkpt>
      <trkpt lat="45.07222" lon="1.90716">
        <ele>172.3</ele>
        <time>2022-08-05T17:31:14Z</time>
      </trkpt>
      <trkpt lat="45.07221" lon="1.90715">
        <ele>172.3</ele>
        <time>2022-08-05T17:31:16Z</time>
      </trkpt>
      <trkpt lat="45.07222" lon="1.90715">
        <ele>172.3</ele>
        <time>2022-08-05T17:31:18Z</time>
      </trkpt>
      <trkpt lat="45.07222" lon="1.90715">
        <ele>172.3</ele>
        <time>2022-08-05T17:31:20Z</time>
      </trkpt>
      <trkpt lat="45.07222" lon="1.90716">
        <ele>172.3</ele>
        <time>2022-08-05T17:31:22Z</time>
      </trkpt>
      <trkpt lat="45.07221" lon="1.90715">
        <ele>172.3</ele>
        <time>2022-08-05T17:31:24Z</time>
      </trkpt>
      <trkpt lat="45.07221" lon="1.90701">
        <ele>172</ele>
        <time>2022-08-05T17:41:00Z</time>
      </trkpt>
      <trkpt lat="45.07222" lon="1.90698">
        <ele>172</ele>
        <time>2022-08-05T17:41:02Z</time>
      </trkpt>
      <trkpt lat="45.07223" lon="1.90695">
        <ele>171.9</ele>
        <time>2022-08-05T17:41:04Z</time>
      </trkpt>
      <trkpt lat="45.07224" lon="1.90693">
        <ele>171.9</ele>
        <time>2022-08-05T17:41:06Z</time>
      </trkpt>
      <trkpt lat="45.07225" lon="1.90689">
        <ele>171.8</ele>
        <time>2022-08-05T17:41:08Z</time>
      </trkpt>
      <trkpt lat="45.07225" lon="1.90686">
        <ele>171.8</ele>
        <time>2022-08-05T17:41:10Z</time>
      </trkpt>
      <trkpt lat="45.07226" lon="1.90684">
        <ele>171.7</ele>
        <time>2022-08-05T17:41:12Z</time>
      </trkpt>
      <trkpt lat="45.07226" lon="1.90681">
        <ele>171.7</ele>
        <time>2022-08-05T17:41:14Z</time>
      </trkpt>
      <trkpt lat="45.07227" lon="1.90678">
        <ele>171.7</ele>
        <time>2022-08-05T17:41:16Z</time>
      </trkpt>
      <trkpt lat="45.07227" lon="1.90676">
        <ele>171.6</ele>
        <time>2022-08-05T17:41:18Z</time>
      </trkpt>
      <trkpt lat="45.07228" lon="1.90673">
        <ele>171.6</ele>
        <time>2022-08-05T17:41:20Z</time>
      </trkpt>
      <trkpt lat="45.07228" lon="1.9067">
        <ele>171.5</ele>
        <time>2022-08-05T17:41:22Z</time>
      </trkpt>
      <trkpt lat="45.07229" lon="1.90667">
        <ele>171.5</ele>
        <time>2022-08-05T17:41:24Z</time>
      </trkpt>
      <trkpt lat="45.07229" lon="1.90664">
        <ele>171.5</ele>
        <time>2022-08-05T17:41:26Z</time>
      </trkpt>
      <trkpt lat="45.0723" lon="1.90661">
        <ele>171.5</ele>
        <time>2022-08-05T17:41:28Z</time>
      </trkpt>
      <trkpt lat="45.07231" lon="1.90658">
        <ele>171.6</ele>
        <time>2022-08-05T17:41:30Z</time>
      </trkpt>
      <trkpt lat="45.07231" lon="1.90655">
        <ele>171.6</ele>
        <time>2022-08-05T17:41:32Z</time>
      </trkpt>
      <trkpt lat="45.07232" lon="1.90652">
        <ele>171.6</ele>
        <time>2022-08-05T17:41:34Z</time>
      </trkpt>
      <trkpt lat="45.07232" lon="1.90649">
        <ele>171.6</ele>
        <time>2022-08-05T17:41:36Z</time>
      </trkpt>
      <trkpt lat="45.07233" lon="1.90646">
        <ele>171.7</ele>
        <time>2022-08-05T17:41:38Z</time>
      </trkpt>
      <trkpt lat="45.07233" lon="1.90643">
        <ele>171.7</ele>
        <time>2022-08-05T17:41:40Z</time>
      </trkpt>
      <trkpt lat="45.07234" lon="1.9064">
        <ele>171.8</ele>
        <time>2022-08-05T17:41:42Z</time>
      </trkpt>
      <trkpt lat="45.07235" lon="1.90637">
        <ele>171.8</ele>
        <time>2022-08-05T17:41:44Z</time>
      </trkpt>
      <trkpt lat="45.07236" lon="1.90634">
        <ele>171.8</ele>
        <time>2022-08-05T17:41:46Z</time>
      </trkpt>
      <trkpt lat="45.07236" lon="1.90631">
        <ele>171.9</ele>
        <time>2022-08-05T17:41:48Z</time>
      </trkpt>
      <trkpt lat="45.07237" lon="1.90628">
        <ele>171.9</ele>
        <time>2022-08-05T17:41:50Z</time>
      </trkpt>
      <trkpt lat="45.07237" lon="1.90624">
        <ele>172</ele>
        <time>2022-08-05T17:41:52Z</time>
      </trkpt>
      <trkpt lat="45.07238" lon="1.90622">
        <ele>172</ele>
        <time>2022-08-05T17:41:54Z</time>
      </trkpt>
      <trkpt lat="45.07239" lon="1.90619">
        <ele>172.1</ele>
        <time>2022-08-05T17:41:56Z</time>
      </trkpt>
      <trkpt lat="45.0724" lon="1.90616">
        <ele>172.1</ele>
        <time>2022-08-05T17:41:58Z</time>
      </trkpt>
      <trkpt lat="45.0724" lon="1.90613">
        <ele>172.2</ele>
        <time>2022-08-05T17:42:00Z</time>
      </trkpt>
      <trkpt lat="45.07241" lon="1.9061">
        <ele>172.2</ele>
        <time>2022-08-05T17:42:02Z</time>
      </trkpt>
      <trkpt lat="45.07241" lon="1.90607">
        <ele>172.3</ele>
        <time>2022-08-05T17:42:04Z</time>
      </trkpt>
      <trkpt lat="45.07242" lon="1.90604">
        <ele>172.3</ele>
        <time>2022-08-05T17:42:06Z</time>
      </trkpt>
      <trkpt lat="45.07243" lon="1.90601">
        <ele>172.4</ele>
        <time>2022-08-05T17:42:08Z</time>
      </trkpt>
      <trkpt lat="45.07243" lon="1.90598">
        <ele>172.5</ele>
        <time>2022-08-05T17:42:10Z</time>
      </trkpt>
      <trkpt lat="45.07244" lon="1.90595">
        <ele>172.5</ele>
        <time>2022-08-05T17:42:12Z</time>
      </trkpt>
      <trkpt lat="45.07244" lon="1.90592">
        <ele>172.6</ele>
        <time>2022-08-05T17:42:14Z</time>
      </trkpt>
      <trkpt lat="45.07245" lon="1.90589">
        <ele>172.6</ele>
        <time>2022-08-05T17:42:16Z</time>
      </trkpt>
      <trkpt lat="45.07245" lon="1.90586">
        <ele>172.7</ele>
        <time>2022-08-05T17:42:18Z</time>
      </trkpt>
      <trkpt lat="45.07246" lon="1.90583">
        <ele>172.7</ele>
        <time>2022-08-05T17:42:20Z</time>
      </trkpt>
      <trkpt lat="45.07246" lon="1.9058">
        <ele>172.6</ele>
        <time>2022-08-05T17:42:22Z</time>
      </trkpt>
      <trkpt lat="45.07246" lon="1.90577">
        <ele>172.5</ele>
        <time>2022-08-05T17:42:24Z</time>
      </trkpt>
      <trkpt lat="45.07247" lon="1.90574">
        <ele>172.4</ele>
        <time>2022-08-05T17:42:26Z</time>
      </trkpt>
      <trkpt lat="45.07247" lon="1.90571">
        <ele>172.3</ele>
        <time>2022-08-05T17:42:28Z</time>
      </trkpt>
      <trkpt lat="45.07248" lon="1.90568">
        <ele>172.2</ele>
        <time>2022-08-05T17:42:30Z</time>
      </trkpt>
      <trkpt lat="45.07249" lon="1.90566">
        <ele>172.1</ele>
        <time>2022-08-05T17:42:32Z</time>
      </trkpt>
      <trkpt lat="45.07249" lon="1.90563">
        <ele>172</ele>
        <time>2022-08-05T17:42:34Z</time>
      </trkpt>
      <trkpt lat="45.0725" lon="1.9056">
        <ele>171.9</ele>
        <time>2022-08-05T17:42:36Z</time>
      </trkpt>
      <trkpt lat="45.07251" lon="1.90557">
        <ele>171.7</ele>
        <time>2022-08-05T17:42:38Z</time>
      </trkpt>
      <trkpt lat="45.07251" lon="1.90554">
        <ele>171.6</ele>
        <time>2022-08-05T17:42:40Z</time>
      </trkpt>
      <trkpt lat="45.07252" lon="1.90551">
        <ele>171.5</ele>
        <time>2022-08-05T17:42:42Z</time>
      </trkpt>
      <trkpt lat="45.07253" lon="1.90549">
        <ele>171.3</ele>
        <time>2022-08-05T17:42:44Z</time>
      </trkpt>
      <trkpt lat="45.07253" lon="1.90548">
        <ele>171.3</ele>
        <time>2022-08-05T17:42:46Z</time>
      </trkpt>
      <trkpt lat="45.07254" lon="1.90546">
        <ele>171.2</ele>
        <time>2022-08-05T17:42:48Z</time>
      </trkpt>
      <trkpt lat="45.07254" lon="1.90546">
        <ele>171.2</ele>
        <time>2022-08-05T17:42:50Z</time>
      </trkpt>
      <trkpt lat="45.07254" lon="1.90546">
        <ele>171.2</ele>
        <time>2022-08-05T17:42:52Z</time>
      </trkpt>
    </trkseg>
      <trkpt lat="45.07228" lon="1.90724">
        <ele>172.5</ele>
        <time>2022-08-06T05:57:56Z</time>
      </trkpt>
      <trkpt lat="45.07234" lon="1.90724">
        <ele>172.6</ele>
        <time>2022-08-06T05:58:48Z</time>
      </trkpt>
      <trkpt lat="45.07237" lon="1.90725">
        <ele>172.6</ele>
        <time>2022-08-06T05:58:50Z</time>
      </trkpt>
      <trkpt lat="45.0724" lon="1.90727">
        <ele>172.7</ele>
        <time>2022-08-06T05:58:52Z</time>
      </trkpt>
      <trkpt lat="45.07242" lon="1.90728">
        <ele>172.7</ele>
        <time>2022-08-06T05:58:54Z</time>
      </trkpt>
      <trkpt lat="45.07246" lon="1.90732">
        <ele>172.8</ele>
        <time>2022-08-06T05:58:56Z</time>
      </trkpt>
      <trkpt lat="45.0725" lon="1.90734">
        <ele>172.8</ele>
        <time>2022-08-06T05:58:58Z</time>
      </trkpt>
      <trkpt lat="45.07254" lon="1.90737">
        <ele>172.8</ele>
        <time>2022-08-06T05:59:00Z</time>
      </trkpt>
      <trkpt lat="45.07258" lon="1.90742">
        <ele>172.8</ele>
        <time>2022-08-06T05:59:02Z</time>
      </trkpt>
      <trkpt lat="45.07262" lon="1.90744">
        <ele>172.8</ele>
        <time>2022-08-06T05:59:04Z</time>
      </trkpt>
      <trkpt lat="45.07266" lon="1.90748">
        <ele>172.8</ele>
        <time>2022-08-06T05:59:06Z</time>
      </trkpt>
      <trkpt lat="45.0727" lon="1.90752">
        <ele>172.8</ele>
        <time>2022-08-06T05:59:08Z</time>
      </trkpt>
      <trkpt lat="45.07273" lon="1.90756">
        <ele>172.8</ele>
        <time>2022-08-06T05:59:10Z</time>
      </trkpt>
      <trkpt lat="45.07277" lon="1.9076">
        <ele>172.8</ele>
        <time>2022-08-06T05:59:12Z</time>
      </trkpt>
      <trkpt lat="45.0728" lon="1.90764">
        <ele>172.7</ele>
        <time>2022-08-06T05:59:14Z</time>
      </trkpt>
      <trkpt lat="45.07283" lon="1.90767">
        <ele>172.7</ele>
        <time>2022-08-06T05:59:16Z</time>
      </trkpt>
      <trkpt lat="45.07286" lon="1.9077">
        <ele>172.7</ele>
        <time>2022-08-06T05:59:18Z</time>
      </trkpt>
      <trkpt lat="45.07287" lon="1.90773">
        <ele>172.7</ele>
        <time>2022-08-06T05:59:20Z</time>
      </trkpt>
      <trkpt lat="45.07291" lon="1.90777">
        <ele>172.7</ele>
        <time>2022-08-06T05:59:22Z</time>
      </trkpt>
      <trkpt lat="45.07294" lon="1.9078">
        <ele>172.6</ele>
        <time>2022-08-06T05:59:24Z</time>
      </trkpt>
      <trkpt lat="45.07297" lon="1.90784">
        <ele>172.6</ele>
        <time>2022-08-06T05:59:26Z</time>
      </trkpt>
      <trkpt lat="45.073" lon="1.90787">
        <ele>172.6</ele>
        <time>2022-08-06T05:59:28Z</time>
      </trkpt>
      <trkpt lat="45.07304" lon="1.90791">
        <ele>172.5</ele>
        <time>2022-08-06T05:59:30Z</time>
      </trkpt>
      <trkpt lat="45.07307" lon="1.90794">
        <ele>172.5</ele>
        <time>2022-08-06T05:59:32Z</time>
      </trkpt>
      <trkpt lat="45.0731" lon="1.90798">
        <ele>172.4</ele>
        <time>2022-08-06T05:59:34Z</time>
      </trkpt>
      <trkpt lat="45.07313" lon="1.90801">
        <ele>172.4</ele>
        <time>2022-08-06T05:59:36Z</time>
      </trkpt>
      <trkpt lat="45.07316" lon="1.90805">
        <ele>172.3</ele>
        <time>2022-08-06T05:59:38Z</time>
      </trkpt>
      <trkpt lat="45.0732" lon="1.90809">
        <ele>172.3</ele>
        <time>2022-08-06T05:59:40Z</time>
      </trkpt>
      <trkpt lat="45.07324" lon="1.90813">
        <ele>172.2</ele>
        <time>2022-08-06T05:59:42Z</time>
      </trkpt>
      <trkpt lat="45.07327" lon="1.90817">
        <ele>172.1</ele>
        <time>2022-08-06T05:59:44Z</time>
      </trkpt>
      <trkpt lat="45.07331" lon="1.90822">
        <ele>172</ele>
        <time>2022-08-06T05:59:46Z</time>
      </trkpt>
      <trkpt lat="45.07336" lon="1.90826">
        <ele>172</ele>
        <time>2022-08-06T05:59:48Z</time>
      </trkpt>
      <trkpt lat="45.0734" lon="1.90831">
        <ele>172</ele>
        <time>2022-08-06T05:59:50Z</time>
      </trkpt>
      <trkpt lat="45.07344" lon="1.90836">
        <ele>172</ele>
        <time>2022-08-06T05:59:52Z</time>
      </trkpt>
      <trkpt lat="45.07348" lon="1.9084">
        <ele>172.1</ele>
        <time>2022-08-06T05:59:54Z</time>
      </trkpt>
      <trkpt lat="45.07352" lon="1.90845">
        <ele>172.2</ele>
        <time>2022-08-06T05:59:56Z</time>
      </trkpt>
      <trkpt lat="45.07356" lon="1.9085">
        <ele>172.2</ele>
        <time>2022-08-06T05:59:58Z</time>
      </trkpt>
      <trkpt lat="45.07359" lon="1.90854">
        <ele>172.3</ele>
        <time>2022-08-06T06:00:00Z</time>
      </trkpt>
      <trkpt lat="45.07363" lon="1.90858">
        <ele>172.4</ele>
        <time>2022-08-06T06:00:02Z</time>
      </trkpt>
      <trkpt lat="45.07367" lon="1.90862">
        <ele>172.5</ele>
        <time>2022-08-06T06:00:04Z</time>
      </trkpt>
      <trkpt lat="45.07371" lon="1.90868">
        <ele>172.6</ele>
        <time>2022-08-06T06:00:06Z</time>
      </trkpt>
      <trkpt lat="45.07375" lon="1.90873">
        <ele>172.7</ele>
        <time>2022-08-06T06:00:08Z</time>
      </trkpt>
      <trkpt lat="45.0738" lon="1.90877">
        <ele>172.8</ele>
        <time>2022-08-06T06:00:10Z</time>
      </trkpt>
      <trkpt lat="45.07383" lon="1.90881">
        <ele>172.9</ele>
        <time>2022-08-06T06:00:12Z</time>
      </trkpt>
      <trkpt lat="45.07386" lon="1.90882">
        <ele>173</ele>
        <time>2022-08-06T06:00:14Z</time>
      </trkpt>
      <trkpt lat="45.07391" lon="1.90883">
        <ele>173</ele>
        <time>2022-08-06T06:00:16Z</time>
      </trkpt>
      <trkpt lat="45.07397" lon="1.90881">
        <ele>173</ele>
        <time>2022-08-06T06:00:18Z</time>
      </trkpt>
      <trkpt lat="45.07404" lon="1.90877">
        <ele>173</ele>
        <time>2022-08-06T06:00:20Z</time>
      </trkpt>
      <trkpt lat="45.0741" lon="1.90875">
        <ele>173</ele>
        <time>2022-08-06T06:00:22Z</time>
      </trkpt>
      <trkpt lat="45.07416" lon="1.90873">
        <ele>173</ele>
        <time>2022-08-06T06:00:24Z</time>
      </trkpt>
      <trkpt lat="45.07422" lon="1.90871">
        <ele>172.6</ele>
        <time>2022-08-06T06:00:26Z</time>
      </trkpt>
      <trkpt lat="45.07428" lon="1.90868">
        <ele>172.1</ele>
        <time>2022-08-06T06:00:28Z</time>
      </trkpt>
      <trkpt lat="45.07434" lon="1.90866">
        <ele>171.6</ele>
        <time>2022-08-06T06:00:30Z</time>
      </trkpt>
      <trkpt lat="45.0744" lon="1.90867">
        <ele>171.3</ele>
        <time>2022-08-06T06:00:32Z</time>
      </trkpt>
      <trkpt lat="45.07445" lon="1.90872">
        <ele>171</ele>
        <time>2022-08-06T06:00:34Z</time>
      </trkpt>
      <trkpt lat="45.07447" lon="1.9088">
        <ele>171.1</ele>
        <time>2022-08-06T06:00:36Z</time>
      </trkpt>
      <trkpt lat="45.07449" lon="1.90886">
        <ele>171.2</ele>
        <time>2022-08-06T06:00:38Z</time>
      </trkpt>
      <trkpt lat="45.07451" lon="1.90894">
        <ele>171.3</ele>
        <time>2022-08-06T06:00:40Z</time>
      </trkpt>
      <trkpt lat="45.07453" lon="1.90902">
        <ele>171.4</ele>
        <time>2022-08-06T06:00:42Z</time>
      </trkpt>
      <trkpt lat="45.07453" lon="1.9091">
        <ele>171.7</ele>
        <time>2022-08-06T06:00:44Z</time>
      </trkpt>
      <trkpt lat="45.07455" lon="1.90918">
        <ele>171.7</ele>
        <time>2022-08-06T06:00:46Z</time>
      </trkpt>
      <trkpt lat="45.07459" lon="1.90925">
        <ele>171.6</ele>
        <time>2022-08-06T06:00:48Z</time>
      </trkpt>
      <trkpt lat="45.07461" lon="1.90932">
        <ele>171.5</ele>
        <time>2022-08-06T06:00:50Z</time>
      </trkpt>
      <trkpt lat="45.07465" lon="1.90939">
        <ele>171.4</ele>
        <time>2022-08-06T06:00:52Z</time>
      </trkpt>
      <trkpt lat="45.07467" lon="1.90946">
        <ele>171.4</ele>
        <time>2022-08-06T06:00:54Z</time>
      </trkpt>
      <trkpt lat="45.07469" lon="1.90955">
        <ele>171.5</ele>
        <time>2022-08-06T06:00:56Z</time>
      </trkpt>
      <trkpt lat="45.07471" lon="1.90962">
        <ele>171.5</ele>
        <time>2022-08-06T06:00:58Z</time>
      </trkpt>
      <trkpt lat="45.07472" lon="1.90971">
        <ele>171.5</ele>
        <time>2022-08-06T06:01:00Z</time>
      </trkpt>
      <trkpt lat="45.07474" lon="1.9098">
        <ele>171.6</ele>
        <time>2022-08-06T06:01:02Z</time>
      </trkpt>
      <trkpt lat="45.07476" lon="1.90988">
        <ele>171.7</ele>
        <time>2022-08-06T06:01:04Z</time>
      </trkpt>
      <trkpt lat="45.07478" lon="1.90996">
        <ele>171.7</ele>
        <time>2022-08-06T06:01:06Z</time>
      </trkpt>
      <trkpt lat="45.07479" lon="1.91005">
        <ele>171.9</ele>
        <time>2022-08-06T06:01:08Z</time>
      </trkpt>
      <trkpt lat="45.07481" lon="1.91013">
        <ele>171.9</ele>
        <time>2022-08-06T06:01:10Z</time>
      </trkpt>
      <trkpt lat="45.07483" lon="1.9102">
        <ele>172</ele>
        <time>2022-08-06T06:01:12Z</time>
      </trkpt>
      <trkpt lat="45.07486" lon="1.91028">
        <ele>172.1</ele>
        <time>2022-08-06T06:01:14Z</time>
      </trkpt>
      <trkpt lat="45.07487" lon="1.91035">
        <ele>172.2</ele>
        <time>2022-08-06T06:01:16Z</time>
      </trkpt>
      <trkpt lat="45.0749" lon="1.91042">
        <ele>172.3</ele>
        <time>2022-08-06T06:01:18Z</time>
      </trkpt>
      <trkpt lat="45.07492" lon="1.91049">
        <ele>172.4</ele>
        <time>2022-08-06T06:01:20Z</time>
      </trkpt>
      <trkpt lat="45.07493" lon="1.91055">
        <ele>172.5</ele>
        <time>2022-08-06T06:01:22Z</time>
      </trkpt>
      <trkpt lat="45.07495" lon="1.91062">
        <ele>172.6</ele>
        <time>2022-08-06T06:01:24Z</time>
      </trkpt>
      <trkpt lat="45.07498" lon="1.91069">
        <ele>172.7</ele>
        <time>2022-08-06T06:01:26Z</time>
      </trkpt>
      <trkpt lat="45.075" lon="1.91077">
        <ele>172.8</ele>
        <time>2022-08-06T06:01:28Z</time>
      </trkpt>
      <trkpt lat="45.07502" lon="1.91085">
        <ele>172.9</ele>
        <time>2022-08-06T06:01:30Z</time>
      </trkpt>
      <trkpt lat="45.07505" lon="1.91093">
        <ele>173</ele>
        <time>2022-08-06T06:01:32Z</time>
      </trkpt>
      <trkpt lat="45.07506" lon="1.91101">
        <ele>173</ele>
        <time>2022-08-06T06:01:34Z</time>
      </trkpt>
      <trkpt lat="45.07508" lon="1.91108">
        <ele>173.2</ele>
        <time>2022-08-06T06:01:36Z</time>
      </trkpt>
      <trkpt lat="45.07509" lon="1.91116">
        <ele>173.3</ele>
        <time>2022-08-06T06:01:38Z</time>
      </trkpt>
      <trkpt lat="45.07511" lon="1.91124">
        <ele>173.4</ele>
        <time>2022-08-06T06:01:40Z</time>
      </trkpt>
      <trkpt lat="45.07513" lon="1.91132">
        <ele>173.5</ele>
        <time>2022-08-06T06:01:42Z</time>
      </trkpt>
      <trkpt lat="45.07515" lon="1.9114">
        <ele>173.6</ele>
        <time>2022-08-06T06:01:44Z</time>
      </trkpt>
      <trkpt lat="45.07518" lon="1.91147">
        <ele>173.6</ele>
        <time>2022-08-06T06:01:46Z</time>
      </trkpt>
      <trkpt lat="45.0752" lon="1.91155">
        <ele>173.7</ele>
        <time>2022-08-06T06:01:48Z</time>
      </trkpt>
      <trkpt lat="45.07522" lon="1.91163">
        <ele>173.8</ele>
        <time>2022-08-06T06:01:50Z</time>
      </trkpt>
      <trkpt lat="45.07524" lon="1.91171">
        <ele>173.9</ele>
        <time>2022-08-06T06:01:52Z</time>
      </trkpt>
      <trkpt lat="45.07526" lon="1.91179">
        <ele>173.9</ele>
        <time>2022-08-06T06:01:54Z</time>
      </trkpt>
      <trkpt lat="45.07528" lon="1.91187">
        <ele>173.8</ele>
        <time>2022-08-06T06:01:56Z</time>
      </trkpt>
      <trkpt lat="45.0753" lon="1.91196">
        <ele>173.8</ele>
        <time>2022-08-06T06:01:58Z</time>
      </trkpt>
      <trkpt lat="45.07532" lon="1.91204">
        <ele>173.8</ele>
        <time>2022-08-06T06:02:00Z</time>
      </trkpt>
      <trkpt lat="45.07534" lon="1.91211">
        <ele>173.8</ele>
        <time>2022-08-06T06:02:02Z</time>
      </trkpt>
      <trkpt lat="45.07536" lon="1.91217">
        <ele>173.8</ele>
        <time>2022-08-06T06:02:04Z</time>
      </trkpt>
      <trkpt lat="45.07537" lon="1.91222">
        <ele>173.8</ele>
        <time>2022-08-06T06:02:06Z</time>
      </trkpt>
      <trkpt lat="45.0754" lon="1.9123">
        <ele>173.8</ele>
        <time>2022-08-06T06:02:08Z</time>
      </trkpt>
      <trkpt lat="45.0754" lon="1.91237">
        <ele>173.9</ele>
        <time>2022-08-06T06:02:10Z</time>
      </trkpt>
      <trkpt lat="45.0754" lon="1.91246">
        <ele>174</ele>
        <time>2022-08-06T06:02:12Z</time>
      </trkpt>
      <trkpt lat="45.07536" lon="1.91255">
        <ele>174.2</ele>
        <time>2022-08-06T06:02:14Z</time>
      </trkpt>
      <trkpt lat="45.0753" lon="1.91257">
        <ele>174.4</ele>
        <time>2022-08-06T06:02:16Z</time>
      </trkpt>
      <trkpt lat="45.07526" lon="1.91263">
        <ele>174.6</ele>
        <time>2022-08-06T06:02:18Z</time>
      </trkpt>
      <trkpt lat="45.07522" lon="1.91268">
        <ele>174.7</ele>
        <time>2022-08-06T06:02:20Z</time>
      </trkpt>
      <trkpt lat="45.07519" lon="1.91271">
        <ele>174.9</ele>
        <time>2022-08-06T06:02:22Z</time>
      </trkpt>
      <trkpt lat="45.07517" lon="1.91275">
        <ele>175</ele>
        <time>2022-08-06T06:02:24Z</time>
      </trkpt>
      <trkpt lat="45.07514" lon="1.9128">
        <ele>175.1</ele>
        <time>2022-08-06T06:02:26Z</time>
      </trkpt>
      <trkpt lat="45.07511" lon="1.91285">
        <ele>175.2</ele>
        <time>2022-08-06T06:02:28Z</time>
      </trkpt>
      <trkpt lat="45.07508" lon="1.91289">
        <ele>175.3</ele>
        <time>2022-08-06T06:02:30Z</time>
      </trkpt>
      <trkpt lat="45.07506" lon="1.91294">
        <ele>175.4</ele>
        <time>2022-08-06T06:02:32Z</time>
      </trkpt>
      <trkpt lat="45.07503" lon="1.91298">
        <ele>175.5</ele>
        <time>2022-08-06T06:02:34Z</time>
      </trkpt>
      <trkpt lat="45.075" lon="1.91301">
        <ele>175.6</ele>
        <time>2022-08-06T06:02:36Z</time>
      </trkpt>
      <trkpt lat="45.07496" lon="1.91306">
        <ele>175.6</ele>
        <time>2022-08-06T06:02:38Z</time>
      </trkpt>
      <trkpt lat="45.07493" lon="1.91311">
        <ele>175.6</ele>
        <time>2022-08-06T06:02:40Z</time>
      </trkpt>
      <trkpt lat="45.07488" lon="1.91315">
        <ele>175.6</ele>
        <time>2022-08-06T06:02:42Z</time>
      </trkpt>
      <trkpt lat="45.07483" lon="1.91319">
        <ele>175.5</ele>
        <time>2022-08-06T06:02:44Z</time>
      </trkpt>
      <trkpt lat="45.07478" lon="1.91323">
        <ele>175.4</ele>
        <time>2022-08-06T06:02:46Z</time>
      </trkpt>
      <trkpt lat="45.07472" lon="1.91327">
        <ele>175.3</ele>
        <time>2022-08-06T06:02:48Z</time>
      </trkpt>
      <trkpt lat="45.07466" lon="1.91331">
        <ele>175.2</ele>
        <time>2022-08-06T06:02:50Z</time>
      </trkpt>
      <trkpt lat="45.0746" lon="1.91334">
        <ele>175</ele>
        <time>2022-08-06T06:02:52Z</time>
      </trkpt>
      <trkpt lat="45.07454" lon="1.91336">
        <ele>174.9</ele>
        <time>2022-08-06T06:02:54Z</time>
      </trkpt>
      <trkpt lat="45.07447" lon="1.91337">
        <ele>174.7</ele>
        <time>2022-08-06T06:02:56Z</time>
      </trkpt>
      <trkpt lat="45.07441" lon="1.91339">
        <ele>174.5</ele>
        <time>2022-08-06T06:02:58Z</time>
      </trkpt>
      <trkpt lat="45.07434" lon="1.91341">
        <ele>174.3</ele>
        <time>2022-08-06T06:03:00Z</time>
      </trkpt>
      <trkpt lat="45.07427" lon="1.91341">
        <ele>174.2</ele>
        <time>2022-08-06T06:03:02Z</time>
      </trkpt>
      <trkpt lat="45.07419" lon="1.91342">
        <ele>173.9</ele>
        <time>2022-08-06T06:03:04Z</time>
      </trkpt>
      <trkpt lat="45.07412" lon="1.91344">
        <ele>173.9</ele>
        <time>2022-08-06T06:03:06Z</time>
      </trkpt>
      <trkpt lat="45.07404" lon="1.91345">
        <ele>173.9</ele>
        <time>2022-08-06T06:03:08Z</time>
      </trkpt>
      <trkpt lat="45.07397" lon="1.91347">
        <ele>174</ele>
        <time>2022-08-06T06:03:10Z</time>
      </trkpt>
      <trkpt lat="45.07389" lon="1.91348">
        <ele>174.1</ele>
        <time>2022-08-06T06:03:12Z</time>
      </trkpt>
      <trkpt lat="45.07381" lon="1.91349">
        <ele>174.1</ele>
        <time>2022-08-06T06:03:14Z</time>
      </trkpt>
      <trkpt lat="45.07374" lon="1.9135">
        <ele>174.2</ele>
        <time>2022-08-06T06:03:16Z</time>
      </trkpt>
      <trkpt lat="45.07366" lon="1.91352">
        <ele>174.3</ele>
        <time>2022-08-06T06:03:18Z</time>
      </trkpt>
      <trkpt lat="45.07358" lon="1.91353">
        <ele>174.4</ele>
        <time>2022-08-06T06:03:20Z</time>
      </trkpt>
      <trkpt lat="45.0735" lon="1.91354">
        <ele>174.5</ele>
        <time>2022-08-06T06:03:22Z</time>
      </trkpt>
      <trkpt lat="45.07342" lon="1.91355">
        <ele>174.7</ele>
        <time>2022-08-06T06:03:24Z</time>
      </trkpt>
      <trkpt lat="45.07334" lon="1.91356">
        <ele>174.8</ele>
        <time>2022-08-06T06:03:26Z</time>
      </trkpt>
      <trkpt lat="45.07326" lon="1.91357">
        <ele>175.2</ele>
        <time>2022-08-06T06:03:28Z</time>
      </trkpt>
      <trkpt lat="45.07319" lon="1.91359">
        <ele>175.8</ele>
        <time>2022-08-06T06:03:30Z</time>
      </trkpt>
      <trkpt lat="45.07311" lon="1.9136">
        <ele>176.3</ele>
        <time>2022-08-06T06:03:32Z</time>
      </trkpt>
      <trkpt lat="45.07302" lon="1.91361">
        <ele>176.8</ele>
        <time>2022-08-06T06:03:34Z</time>
      </trkpt>
      <trkpt lat="45.07294" lon="1.91362">
        <ele>177.4</ele>
        <time>2022-08-06T06:03:36Z</time>
      </trkpt>
      <trkpt lat="45.07286" lon="1.91363">
        <ele>177.9</ele>
        <time>2022-08-06T06:03:38Z</time>
      </trkpt>
      <trkpt lat="45.07279" lon="1.91364">
        <ele>178.5</ele>
        <time>2022-08-06T06:03:40Z</time>
      </trkpt>
      <trkpt lat="45.07272" lon="1.91364">
        <ele>179</ele>
        <time>2022-08-06T06:03:42Z</time>
      </trkpt>
      <trkpt lat="45.07265" lon="1.91364">
        <ele>179.4</ele>
        <time>2022-08-06T06:03:44Z</time>
      </trkpt>
      <trkpt lat="45.07258" lon="1.91364">
        <ele>179.8</ele>
        <time>2022-08-06T06:03:46Z</time>
      </trkpt>
      <trkpt lat="45.07253" lon="1.91365">
        <ele>180.2</ele>
        <time>2022-08-06T06:03:48Z</time>
      </trkpt>
      <trkpt lat="45.07247" lon="1.91364">
        <ele>180.3</ele>
        <time>2022-08-06T06:03:50Z</time>
      </trkpt>
      <trkpt lat="45.0724" lon="1.91364">
        <ele>180.4</ele>
        <time>2022-08-06T06:03:52Z</time>
      </trkpt>
      <trkpt lat="45.07235" lon="1.91364">
        <ele>180.5</ele>
        <time>2022-08-06T06:03:54Z</time>
      </trkpt>
      <trkpt lat="45.07229" lon="1.91364">
        <ele>180.5</ele>
        <time>2022-08-06T06:03:56Z</time>
      </trkpt>
      <trkpt lat="45.07223" lon="1.91364">
        <ele>180.6</ele>
        <time>2022-08-06T06:03:58Z</time>
      </trkpt>
      <trkpt lat="45.07217" lon="1.91364">
        <ele>180.7</ele>
        <time>2022-08-06T06:04:00Z</time>
      </trkpt>
      <trkpt lat="45.07212" lon="1.91364">
        <ele>180.7</ele>
        <time>2022-08-06T06:04:02Z</time>
      </trkpt>
      <trkpt lat="45.07206" lon="1.91364">
        <ele>180.8</ele>
        <time>2022-08-06T06:04:04Z</time>
      </trkpt>
      <trkpt lat="45.07201" lon="1.91364">
        <ele>180.9</ele>
        <time>2022-08-06T06:04:06Z</time>
      </trkpt>
      <trkpt lat="45.07196" lon="1.91365">
        <ele>180.9</ele>
        <time>2022-08-06T06:04:08Z</time>
      </trkpt>
      <trkpt lat="45.0719" lon="1.91365">
        <ele>181</ele>
        <time>2022-08-06T06:04:10Z</time>
      </trkpt>
      <trkpt lat="45.07185" lon="1.91365">
        <ele>181.1</ele>
        <time>2022-08-06T06:04:12Z</time>
      </trkpt>
      <trkpt lat="45.07181" lon="1.91365">
        <ele>181.1</ele>
        <time>2022-08-06T06:04:14Z</time>
      </trkpt>
      <trkpt lat="45.07177" lon="1.91365">
        <ele>181.2</ele>
        <time>2022-08-06T06:04:16Z</time>
      </trkpt>
      <trkpt lat="45.07172" lon="1.91364">
        <ele>181.2</ele>
        <time>2022-08-06T06:04:18Z</time>
      </trkpt>
      <trkpt lat="45.07168" lon="1.91364">
        <ele>181.2</ele>
        <time>2022-08-06T06:04:20Z</time>
      </trkpt>
      <trkpt lat="45.07164" lon="1.91364">
        <ele>181.1</ele>
        <time>2022-08-06T06:04:22Z</time>
      </trkpt>
      <trkpt lat="45.07159" lon="1.91364">
        <ele>181</ele>
        <time>2022-08-06T06:04:24Z</time>
      </trkpt>
      <trkpt lat="45.07155" lon="1.91364">
        <ele>180.9</ele>
        <time>2022-08-06T06:04:26Z</time>
      </trkpt>
      <trkpt lat="45.07151" lon="1.91364">
        <ele>180.8</ele>
        <time>2022-08-06T06:04:28Z</time>
      </trkpt>
      <trkpt lat="45.07148" lon="1.91364">
        <ele>180.7</ele>
        <time>2022-08-06T06:04:30Z</time>
      </trkpt>
      <trkpt lat="45.07144" lon="1.91364">
        <ele>180.6</ele>
        <time>2022-08-06T06:04:32Z</time>
      </trkpt>
      <trkpt lat="45.0714" lon="1.91364">
        <ele>180.4</ele>
        <time>2022-08-06T06:04:34Z</time>
      </trkpt>
      <trkpt lat="45.07135" lon="1.91364">
        <ele>180.3</ele>
        <time>2022-08-06T06:04:36Z</time>
      </trkpt>
      <trkpt lat="45.07131" lon="1.91364">
        <ele>180.2</ele>
        <time>2022-08-06T06:04:38Z</time>
      </trkpt>
      <trkpt lat="45.07127" lon="1.91364">
        <ele>180.1</ele>
        <time>2022-08-06T06:04:40Z</time>
      </trkpt>
      <trkpt lat="45.07123" lon="1.91364">
        <ele>179.9</ele>
        <time>2022-08-06T06:04:42Z</time>
      </trkpt>
      <trkpt lat="45.07119" lon="1.91364">
        <ele>179.8</ele>
        <time>2022-08-06T06:04:44Z</time>
      </trkpt>
      <trkpt lat="45.07114" lon="1.91364">
        <ele>179.7</ele>
        <time>2022-08-06T06:04:46Z</time>
      </trkpt>
      <trkpt lat="45.07109" lon="1.91364">
        <ele>179.6</ele>
        <time>2022-08-06T06:04:48Z</time>
      </trkpt>
      <trkpt lat="45.07104" lon="1.91365">
        <ele>179.5</ele>
        <time>2022-08-06T06:04:50Z</time>
      </trkpt>
      <trkpt lat="45.07098" lon="1.91366">
        <ele>179.4</ele>
        <time>2022-08-06T06:04:52Z</time>
      </trkpt>
      <trkpt lat="45.07092" lon="1.91367">
        <ele>179.2</ele>
        <time>2022-08-06T06:04:54Z</time>
      </trkpt>
      <trkpt lat="45.07085" lon="1.91367">
        <ele>179.1</ele>
        <time>2022-08-06T06:04:56Z</time>
      </trkpt>
      <trkpt lat="45.07079" lon="1.91368">
        <ele>179.1</ele>
        <time>2022-08-06T06:04:58Z</time>
      </trkpt>
      <trkpt lat="45.07072" lon="1.91369">
        <ele>179.2</ele>
        <time>2022-08-06T06:05:00Z</time>
      </trkpt>
      <trkpt lat="45.07064" lon="1.9137">
        <ele>179.3</ele>
        <time>2022-08-06T06:05:02Z</time>
      </trkpt>
      <trkpt lat="45.07057" lon="1.91371">
        <ele>179.4</ele>
        <time>2022-08-06T06:05:04Z</time>
      </trkpt>
      <trkpt lat="45.07049" lon="1.91373">
        <ele>179.6</ele>
        <time>2022-08-06T06:05:06Z</time>
      </trkpt>
      <trkpt lat="45.07041" lon="1.91375">
        <ele>179.7</ele>
        <time>2022-08-06T06:05:08Z</time>
      </trkpt>
      <trkpt lat="45.07034" lon="1.91377">
        <ele>179.9</ele>
        <time>2022-08-06T06:05:10Z</time>
      </trkpt>
      <trkpt lat="45.07025" lon="1.9138">
        <ele>180.2</ele>
        <time>2022-08-06T06:05:12Z</time>
      </trkpt>
      <trkpt lat="45.07018" lon="1.91382">
        <ele>180.4</ele>
        <time>2022-08-06T06:05:14Z</time>
      </trkpt>
      <trkpt lat="45.0701" lon="1.91384">
        <ele>180.6</ele>
        <time>2022-08-06T06:05:16Z</time>
      </trkpt>
      <trkpt lat="45.07002" lon="1.91387">
        <ele>180.8</ele>
        <time>2022-08-06T06:05:18Z</time>
      </trkpt>
      <trkpt lat="45.06994" lon="1.91389">
        <ele>180.8</ele>
        <time>2022-08-06T06:05:20Z</time>
      </trkpt>
      <trkpt lat="45.06986" lon="1.91392">
        <ele>180.7</ele>
        <time>2022-08-06T06:05:22Z</time>
      </trkpt>
      <trkpt lat="45.06978" lon="1.91395">
        <ele>180.6</ele>
        <time>2022-08-06T06:05:24Z</time>
      </trkpt>
      <trkpt lat="45.0697" lon="1.91398">
        <ele>180.5</ele>
        <time>2022-08-06T06:05:26Z</time>
      </trkpt>
      <trkpt lat="45.06962" lon="1.91401">
        <ele>180.3</ele>
        <time>2022-08-06T06:05:28Z</time>
      </trkpt>
      <trkpt lat="45.06954" lon="1.91403">
        <ele>180.1</ele>
        <time>2022-08-06T06:05:30Z</time>
      </trkpt>
      <trkpt lat="45.06946" lon="1.91406">
        <ele>179.9</ele>
        <time>2022-08-06T06:05:32Z</time>
      </trkpt>
      <trkpt lat="45.06938" lon="1.91409">
        <ele>179.7</ele>
        <time>2022-08-06T06:05:34Z</time>
      </trkpt>
      <trkpt lat="45.06929" lon="1.91413">
        <ele>179.5</ele>
        <time>2022-08-06T06:05:36Z</time>
      </trkpt>
      <trkpt lat="45.06919" lon="1.91417">
        <ele>179.1</ele>
        <time>2022-08-06T06:05:38Z</time>
      </trkpt>
      <trkpt lat="45.06908" lon="1.91422">
        <ele>178.5</ele>
        <time>2022-08-06T06:05:40Z</time>
      </trkpt>
      <trkpt lat="45.06895" lon="1.91428">
        <ele>177.9</ele>
        <time>2022-08-06T06:05:42Z</time>
      </trkpt>
      <trkpt lat="45.06882" lon="1.91435">
        <ele>177.3</ele>
        <time>2022-08-06T06:05:44Z</time>
      </trkpt>
      <trkpt lat="45.06868" lon="1.91444">
        <ele>176.8</ele>
        <time>2022-08-06T06:05:46Z</time>
      </trkpt>
      <trkpt lat="45.06855" lon="1.91455">
        <ele>176.5</ele>
        <time>2022-08-06T06:05:48Z</time>
      </trkpt>
      <trkpt lat="45.06842" lon="1.91468">
        <ele>176.3</ele>
        <time>2022-08-06T06:05:50Z</time>
      </trkpt>
      <trkpt lat="45.0683" lon="1.91482">
        <ele>176.2</ele>
        <time>2022-08-06T06:05:52Z</time>
      </trkpt>
      <trkpt lat="45.06817" lon="1.91497">
        <ele>176.3</ele>
        <time>2022-08-06T06:05:54Z</time>
      </trkpt>
      <trkpt lat="45.06805" lon="1.91511">
        <ele>176.3</ele>
        <time>2022-08-06T06:05:56Z</time>
      </trkpt>
      <trkpt lat="45.06794" lon="1.91523">
        <ele>176.3</ele>
        <time>2022-08-06T06:05:58Z</time>
      </trkpt>
      <trkpt lat="45.06783" lon="1.91535">
        <ele>176.3</ele>
        <time>2022-08-06T06:06:00Z</time>
      </trkpt>
      <trkpt lat="45.06774" lon="1.91546">
        <ele>176.3</ele>
        <time>2022-08-06T06:06:02Z</time>
      </trkpt>
      <trkpt lat="45.06765" lon="1.91557">
        <ele>176.5</ele>
        <time>2022-08-06T06:06:04Z</time>
      </trkpt>
      <trkpt lat="45.06756" lon="1.91567">
        <ele>176.6</ele>
        <time>2022-08-06T06:06:06Z</time>
      </trkpt>
      <trkpt lat="45.06747" lon="1.91576">
        <ele>176.7</ele>
        <time>2022-08-06T06:06:08Z</time>
      </trkpt>
      <trkpt lat="45.06738" lon="1.91585">
        <ele>176.9</ele>
        <time>2022-08-06T06:06:10Z</time>
      </trkpt>
      <trkpt lat="45.0673" lon="1.91594">
        <ele>177</ele>
        <time>2022-08-06T06:06:12Z</time>
      </trkpt>
      <trkpt lat="45.06722" lon="1.91602">
        <ele>177.1</ele>
        <time>2022-08-06T06:06:14Z</time>
      </trkpt>
      <trkpt lat="45.06715" lon="1.91611">
        <ele>177.2</ele>
        <time>2022-08-06T06:06:16Z</time>
      </trkpt>
      <trkpt lat="45.06707" lon="1.9162">
        <ele>177.4</ele>
        <time>2022-08-06T06:06:18Z</time>
      </trkpt>
      <trkpt lat="45.067" lon="1.91629">
        <ele>177.5</ele>
        <time>2022-08-06T06:06:20Z</time>
      </trkpt>
      <trkpt lat="45.06693" lon="1.91636">
        <ele>177.6</ele>
        <time>2022-08-06T06:06:22Z</time>
      </trkpt>
      <trkpt lat="45.06685" lon="1.91644">
        <ele>177.7</ele>
        <time>2022-08-06T06:06:24Z</time>
      </trkpt>
      <trkpt lat="45.06678" lon="1.91652">
        <ele>177.8</ele>
        <time>2022-08-06T06:06:26Z</time>
      </trkpt>
      <trkpt lat="45.06671" lon="1.91659">
        <ele>177.9</ele>
        <time>2022-08-06T06:06:28Z</time>
      </trkpt>
      <trkpt lat="45.06664" lon="1.91666">
        <ele>178</ele>
        <time>2022-08-06T06:06:30Z</time>
      </trkpt>
      <trkpt lat="45.06656" lon="1.91672">
        <ele>178.2</ele>
        <time>2022-08-06T06:06:32Z</time>
      </trkpt>
      <trkpt lat="45.06649" lon="1.91678">
        <ele>178.5</ele>
        <time>2022-08-06T06:06:34Z</time>
      </trkpt>
      <trkpt lat="45.06641" lon="1.91683">
        <ele>178.6</ele>
        <time>2022-08-06T06:06:36Z</time>
      </trkpt>
      <trkpt lat="45.06634" lon="1.91688">
        <ele>178.8</ele>
        <time>2022-08-06T06:06:38Z</time>
      </trkpt>
      <trkpt lat="45.06626" lon="1.91694">
        <ele>179</ele>
        <time>2022-08-06T06:06:40Z</time>
      </trkpt>
      <trkpt lat="45.06619" lon="1.917">
        <ele>179.1</ele>
        <time>2022-08-06T06:06:42Z</time>
      </trkpt>
      <trkpt lat="45.06612" lon="1.91708">
        <ele>179.3</ele>
        <time>2022-08-06T06:06:44Z</time>
      </trkpt>
      <trkpt lat="45.06607" lon="1.91716">
        <ele>179.5</ele>
        <time>2022-08-06T06:06:46Z</time>
      </trkpt>
      <trkpt lat="45.06601" lon="1.91724">
        <ele>179.6</ele>
        <time>2022-08-06T06:06:48Z</time>
      </trkpt>
      <trkpt lat="45.06596" lon="1.91733">
        <ele>179.8</ele>
        <time>2022-08-06T06:06:50Z</time>
      </trkpt>
      <trkpt lat="45.06591" lon="1.91741">
        <ele>179.9</ele>
        <time>2022-08-06T06:06:52Z</time>
      </trkpt>
      <trkpt lat="45.06585" lon="1.91749">
        <ele>180</ele>
        <time>2022-08-06T06:06:54Z</time>
      </trkpt>
      <trkpt lat="45.0658" lon="1.91756">
        <ele>179.9</ele>
        <time>2022-08-06T06:06:56Z</time>
      </trkpt>
      <trkpt lat="45.06575" lon="1.91762">
        <ele>179.8</ele>
        <time>2022-08-06T06:06:58Z</time>
      </trkpt>
      <trkpt lat="45.0657" lon="1.91768">
        <ele>179.6</ele>
        <time>2022-08-06T06:07:00Z</time>
      </trkpt>
      <trkpt lat="45.06565" lon="1.91773">
        <ele>179.5</ele>
        <time>2022-08-06T06:07:02Z</time>
      </trkpt>
      <trkpt lat="45.06558" lon="1.91778">
        <ele>179.2</ele>
        <time>2022-08-06T06:07:04Z</time>
      </trkpt>
      <trkpt lat="45.06553" lon="1.91784">
        <ele>179.1</ele>
        <time>2022-08-06T06:07:06Z</time>
      </trkpt>
      <trkpt lat="45.06547" lon="1.91789">
        <ele>178.9</ele>
        <time>2022-08-06T06:07:08Z</time>
      </trkpt>
      <trkpt lat="45.06542" lon="1.91795">
        <ele>178.8</ele>
        <time>2022-08-06T06:07:10Z</time>
      </trkpt>
      <trkpt lat="45.06537" lon="1.91801">
        <ele>178.7</ele>
        <time>2022-08-06T06:07:12Z</time>
      </trkpt>
      <trkpt lat="45.06533" lon="1.91806">
        <ele>178.7</ele>
        <time>2022-08-06T06:07:14Z</time>
      </trkpt>
      <trkpt lat="45.06528" lon="1.91812">
        <ele>178.6</ele>
        <time>2022-08-06T06:07:16Z</time>
      </trkpt>
      <trkpt lat="45.06523" lon="1.91818">
        <ele>178.5</ele>
        <time>2022-08-06T06:07:18Z</time>
      </trkpt>
      <trkpt lat="45.06518" lon="1.91823">
        <ele>178.4</ele>
        <time>2022-08-06T06:07:20Z</time>
      </trkpt>
      <trkpt lat="45.06513" lon="1.91829">
        <ele>178.4</ele>
        <time>2022-08-06T06:07:22Z</time>
      </trkpt>
      <trkpt lat="45.06509" lon="1.91835">
        <ele>178.4</ele>
        <time>2022-08-06T06:07:24Z</time>
      </trkpt>
      <trkpt lat="45.06504" lon="1.91842">
        <ele>178.4</ele>
        <time>2022-08-06T06:07:26Z</time>
      </trkpt>
      <trkpt lat="45.06499" lon="1.91847">
        <ele>178.5</ele>
        <time>2022-08-06T06:07:28Z</time>
      </trkpt>
      <trkpt lat="45.06494" lon="1.91854">
        <ele>178.7</ele>
        <time>2022-08-06T06:07:30Z</time>
      </trkpt>
      <trkpt lat="45.0649" lon="1.9186">
        <ele>179</ele>
        <time>2022-08-06T06:07:32Z</time>
      </trkpt>
      <trkpt lat="45.06486" lon="1.91867">
        <ele>179.2</ele>
        <time>2022-08-06T06:07:34Z</time>
      </trkpt>
      <trkpt lat="45.06482" lon="1.91873">
        <ele>179.4</ele>
        <time>2022-08-06T06:07:36Z</time>
      </trkpt>
      <trkpt lat="45.06478" lon="1.91881">
        <ele>179.7</ele>
        <time>2022-08-06T06:07:38Z</time>
      </trkpt>
      <trkpt lat="45.06475" lon="1.91888">
        <ele>180</ele>
        <time>2022-08-06T06:07:40Z</time>
      </trkpt>
      <trkpt lat="45.06471" lon="1.91894">
        <ele>180.2</ele>
        <time>2022-08-06T06:07:42Z</time>
      </trkpt>
      <trkpt lat="45.06468" lon="1.91901">
        <ele>180.4</ele>
        <time>2022-08-06T06:07:44Z</time>
      </trkpt>
      <trkpt lat="45.06465" lon="1.91908">
        <ele>180.7</ele>
        <time>2022-08-06T06:07:46Z</time>
      </trkpt>
      <trkpt lat="45.06462" lon="1.91916">
        <ele>181</ele>
        <time>2022-08-06T06:07:48Z</time>
      </trkpt>
      <trkpt lat="45.06459" lon="1.91923">
        <ele>181.3</ele>
        <time>2022-08-06T06:07:50Z</time>
      </trkpt>
      <trkpt lat="45.06456" lon="1.91929">
        <ele>181.6</ele>
        <time>2022-08-06T06:07:52Z</time>
      </trkpt>
      <trkpt lat="45.06454" lon="1.91937">
        <ele>182</ele>
        <time>2022-08-06T06:07:54Z</time>
      </trkpt>
      <trkpt lat="45.06451" lon="1.91944">
        <ele>182.4</ele>
        <time>2022-08-06T06:07:56Z</time>
      </trkpt>
      <trkpt lat="45.06449" lon="1.91951">
        <ele>182.8</ele>
        <time>2022-08-06T06:07:58Z</time>
      </trkpt>
      <trkpt lat="45.06447" lon="1.91958">
        <ele>183.3</ele>
        <time>2022-08-06T06:08:00Z</time>
      </trkpt>
      <trkpt lat="45.06445" lon="1.91965">
        <ele>183.7</ele>
        <time>2022-08-06T06:08:02Z</time>
      </trkpt>
      <trkpt lat="45.06443" lon="1.91972">
        <ele>184.1</ele>
        <time>2022-08-06T06:08:04Z</time>
      </trkpt>
      <trkpt lat="45.06441" lon="1.91978">
        <ele>184.5</ele>
        <time>2022-08-06T06:08:06Z</time>
      </trkpt>
      <trkpt lat="45.0644" lon="1.91981">
        <ele>184.8</ele>
        <time>2022-08-06T06:08:08Z</time>
      </trkpt>
      <trkpt lat="45.06438" lon="1.91982">
        <ele>184.9</ele>
        <time>2022-08-06T06:08:10Z</time>
      </trkpt>
      <trkpt lat="45.06437" lon="1.91983">
        <ele>185</ele>
        <time>2022-08-06T06:08:12Z</time>
      </trkpt>
      <trkpt lat="45.06437" lon="1.91984">
        <ele>185.1</ele>
        <time>2022-08-06T06:08:14Z</time>
      </trkpt>
      <trkpt lat="45.06436" lon="1.91984">
        <ele>185.1</ele>
        <time>2022-08-06T06:08:16Z</time>
      </trkpt>
      <trkpt lat="45.06436" lon="1.91984">
        <ele>185.1</ele>
        <time>2022-08-06T06:08:18Z</time>
      </trkpt>
      <trkpt lat="45.0641" lon="1.91971">
        <ele>185</ele>
        <time>2022-08-06T06:08:34Z</time>
      </trkpt>
      <trkpt lat="45.06401" lon="1.91965">
        <ele>184.7</ele>
        <time>2022-08-06T06:08:36Z</time>
      </trkpt>
      <trkpt lat="45.06391" lon="1.91961">
        <ele>184.5</ele>
        <time>2022-08-06T06:08:38Z</time>
      </trkpt>
      <trkpt lat="45.06381" lon="1.91957">
        <ele>184.3</ele>
        <time>2022-08-06T06:08:40Z</time>
      </trkpt>
      <trkpt lat="45.06369" lon="1.91954">
        <ele>184.2</ele>
        <time>2022-08-06T06:08:42Z</time>
      </trkpt>
      <trkpt lat="45.06358" lon="1.91951">
        <ele>184</ele>
        <time>2022-08-06T06:08:44Z</time>
      </trkpt>
      <trkpt lat="45.06347" lon="1.91948">
        <ele>183.9</ele>
        <time>2022-08-06T06:08:46Z</time>
      </trkpt>
      <trkpt lat="45.06335" lon="1.91944">
        <ele>183.6</ele>
        <time>2022-08-06T06:08:48Z</time>
      </trkpt>
      <trkpt lat="45.06324" lon="1.91942">
        <ele>184.9</ele>
        <time>2022-08-06T06:08:50Z</time>
      </trkpt>
      <trkpt lat="45.06312" lon="1.91939">
        <ele>186.3</ele>
        <time>2022-08-06T06:08:52Z</time>
      </trkpt>
      <trkpt lat="45.063" lon="1.91936">
        <ele>187.7</ele>
        <time>2022-08-06T06:08:54Z</time>
      </trkpt>
      <trkpt lat="45.06289" lon="1.91933">
        <ele>188.9</ele>
        <time>2022-08-06T06:08:56Z</time>
      </trkpt>
      <trkpt lat="45.06278" lon="1.91928">
        <ele>189.5</ele>
        <time>2022-08-06T06:08:58Z</time>
      </trkpt>
      <trkpt lat="45.06267" lon="1.91922">
        <ele>189.9</ele>
        <time>2022-08-06T06:09:00Z</time>
      </trkpt>
      <trkpt lat="45.06256" lon="1.91914">
        <ele>189.9</ele>
        <time>2022-08-06T06:09:02Z</time>
      </trkpt>
      <trkpt lat="45.06246" lon="1.91906">
        <ele>190.7</ele>
        <time>2022-08-06T06:09:04Z</time>
      </trkpt>
      <trkpt lat="45.06235" lon="1.91896">
        <ele>192.4</ele>
        <time>2022-08-06T06:09:06Z</time>
      </trkpt>
      <trkpt lat="45.06226" lon="1.91885">
        <ele>193.3</ele>
        <time>2022-08-06T06:09:08Z</time>
      </trkpt>
      <trkpt lat="45.06216" lon="1.91872">
        <ele>193.6</ele>
        <time>2022-08-06T06:09:10Z</time>
      </trkpt>
      <trkpt lat="45.06208" lon="1.9186">
        <ele>193.3</ele>
        <time>2022-08-06T06:09:12Z</time>
      </trkpt>
      <trkpt lat="45.06202" lon="1.91855">
        <ele>193.8</ele>
        <time>2022-08-06T06:09:14Z</time>
      </trkpt>
      <trkpt lat="45.06201" lon="1.91859">
        <ele>195</ele>
        <time>2022-08-06T06:09:16Z</time>
      </trkpt>
      <trkpt lat="45.06201" lon="1.91861">
        <ele>195.3</ele>
        <time>2022-08-06T06:09:18Z</time>
      </trkpt>
      <trkpt lat="45.06201" lon="1.91861">
        <ele>195.4</ele>
        <time>2022-08-06T06:09:20Z</time>
      </trkpt>
      <trkpt lat="45.06201" lon="1.91861">
        <ele>195.2</ele>
        <time>2022-08-06T06:09:22Z</time>
      </trkpt>
      <trkpt lat="45.06201" lon="1.91861">
        <ele>195.3</ele>
        <time>2022-08-06T06:09:24Z</time>
      </trkpt>
      <trkpt lat="45.06196" lon="1.9184">
        <ele>191.6</ele>
        <time>2022-08-06T06:10:32Z</time>
      </trkpt>
      <trkpt lat="45.06191" lon="1.91833">
        <ele>191.2</ele>
        <time>2022-08-06T06:10:34Z</time>
      </trkpt>
      <trkpt lat="45.06185" lon="1.91825">
        <ele>190.6</ele>
        <time>2022-08-06T06:10:36Z</time>
      </trkpt>
      <trkpt lat="45.06179" lon="1.91818">
        <ele>190.1</ele>
        <time>2022-08-06T06:10:38Z</time>
      </trkpt>
      <trkpt lat="45.06173" lon="1.91811">
        <ele>189.4</ele>
        <time>2022-08-06T06:10:40Z</time>
      </trkpt>
      <trkpt lat="45.06167" lon="1.91802">
        <ele>188</ele>
        <time>2022-08-06T06:10:42Z</time>
      </trkpt>
      <trkpt lat="45.0616" lon="1.91794">
        <ele>186.3</ele>
        <time>2022-08-06T06:10:44Z</time>
      </trkpt>
      <trkpt lat="45.06152" lon="1.91784">
        <ele>184.2</ele>
        <time>2022-08-06T06:10:46Z</time>
      </trkpt>
      <trkpt lat="45.06142" lon="1.91774">
        <ele>182.1</ele>
        <time>2022-08-06T06:10:48Z</time>
      </trkpt>
      <trkpt lat="45.06133" lon="1.91763">
        <ele>179.8</ele>
        <time>2022-08-06T06:10:50Z</time>
      </trkpt>
      <trkpt lat="45.06122" lon="1.91753">
        <ele>177.7</ele>
        <time>2022-08-06T06:10:52Z</time>
      </trkpt>
      <trkpt lat="45.0611" lon="1.91744">
        <ele>177.1</ele>
        <time>2022-08-06T06:10:54Z</time>
      </trkpt>
      <trkpt lat="45.06096" lon="1.91735">
        <ele>177</ele>
        <time>2022-08-06T06:10:56Z</time>
      </trkpt>
      <trkpt lat="45.06082" lon="1.91726">
        <ele>176.7</ele>
        <time>2022-08-06T06:10:58Z</time>
      </trkpt>
      <trkpt lat="45.06067" lon="1.91716">
        <ele>177.1</ele>
        <time>2022-08-06T06:11:00Z</time>
      </trkpt>
      <trkpt lat="45.06052" lon="1.91706">
        <ele>177.7</ele>
        <time>2022-08-06T06:11:02Z</time>
      </trkpt>
      <trkpt lat="45.06036" lon="1.91696">
        <ele>178.6</ele>
        <time>2022-08-06T06:11:04Z</time>
      </trkpt>
      <trkpt lat="45.06024" lon="1.91683">
        <ele>178.9</ele>
        <time>2022-08-06T06:11:06Z</time>
      </trkpt>
      <trkpt lat="45.06014" lon="1.9167">
        <ele>179.1</ele>
        <time>2022-08-06T06:11:08Z</time>
      </trkpt>
      <trkpt lat="45.06002" lon="1.91658">
        <ele>179.7</ele>
        <time>2022-08-06T06:11:10Z</time>
      </trkpt>
      <trkpt lat="45.05992" lon="1.91646">
        <ele>181.4</ele>
        <time>2022-08-06T06:11:12Z</time>
      </trkpt>
      <trkpt lat="45.05981" lon="1.91634">
        <ele>183.1</ele>
        <time>2022-08-06T06:11:14Z</time>
      </trkpt>
      <trkpt lat="45.05971" lon="1.91621">
        <ele>184</ele>
        <time>2022-08-06T06:11:16Z</time>
      </trkpt>
      <trkpt lat="45.0596" lon="1.91611">
        <ele>185</ele>
        <time>2022-08-06T06:11:18Z</time>
      </trkpt>
      <trkpt lat="45.05951" lon="1.91599">
        <ele>184.9</ele>
        <time>2022-08-06T06:11:20Z</time>
      </trkpt>
      <trkpt lat="45.05942" lon="1.91588">
        <ele>184.6</ele>
        <time>2022-08-06T06:11:22Z</time>
      </trkpt>
      <trkpt lat="45.05932" lon="1.91581">
        <ele>185.2</ele>
        <time>2022-08-06T06:11:24Z</time>
      </trkpt>
      <trkpt lat="45.05921" lon="1.91575">
        <ele>185.8</ele>
        <time>2022-08-06T06:11:26Z</time>
      </trkpt>
      <trkpt lat="45.0591" lon="1.9157">
        <ele>186.8</ele>
        <time>2022-08-06T06:11:28Z</time>
      </trkpt>
      <trkpt lat="45.05899" lon="1.91564">
        <ele>187.2</ele>
        <time>2022-08-06T06:11:30Z</time>
      </trkpt>
      <trkpt lat="45.05888" lon="1.91559">
        <ele>187.5</ele>
        <time>2022-08-06T06:11:32Z</time>
      </trkpt>
      <trkpt lat="45.05876" lon="1.91554">
        <ele>188</ele>
        <time>2022-08-06T06:11:34Z</time>
      </trkpt>
      <trkpt lat="45.05866" lon="1.91551">
        <ele>188.5</ele>
        <time>2022-08-06T06:11:36Z</time>
      </trkpt>
      <trkpt lat="45.05855" lon="1.91547">
        <ele>188.8</ele>
        <time>2022-08-06T06:11:38Z</time>
      </trkpt>
      <trkpt lat="45.05846" lon="1.91542">
        <ele>188.2</ele>
        <time>2022-08-06T06:11:40Z</time>
      </trkpt>
      <trkpt lat="45.05837" lon="1.91539">
        <ele>188.4</ele>
        <time>2022-08-06T06:11:42Z</time>
      </trkpt>
      <trkpt lat="45.05829" lon="1.91535">
        <ele>187.7</ele>
        <time>2022-08-06T06:11:44Z</time>
      </trkpt>
      <trkpt lat="45.05821" lon="1.91531">
        <ele>186.6</ele>
        <time>2022-08-06T06:11:46Z</time>
      </trkpt>
      <trkpt lat="45.05812" lon="1.91529">
        <ele>186.6</ele>
        <time>2022-08-06T06:11:48Z</time>
      </trkpt>
      <trkpt lat="45.05805" lon="1.91525">
        <ele>185.7</ele>
        <time>2022-08-06T06:11:50Z</time>
      </trkpt>
      <trkpt lat="45.05798" lon="1.91522">
        <ele>185</ele>
        <time>2022-08-06T06:11:52Z</time>
      </trkpt>
      <trkpt lat="45.0579" lon="1.91521">
        <ele>184.9</ele>
        <time>2022-08-06T06:11:54Z</time>
      </trkpt>
      <trkpt lat="45.05782" lon="1.91519">
        <ele>184.9</ele>
        <time>2022-08-06T06:11:56Z</time>
      </trkpt>
      <trkpt lat="45.05776" lon="1.91517">
        <ele>184.6</ele>
        <time>2022-08-06T06:11:58Z</time>
      </trkpt>
      <trkpt lat="45.05769" lon="1.91516">
        <ele>184.4</ele>
        <time>2022-08-06T06:12:00Z</time>
      </trkpt>
      <trkpt lat="45.05761" lon="1.91513">
        <ele>184.1</ele>
        <time>2022-08-06T06:12:02Z</time>
      </trkpt>
      <trkpt lat="45.05755" lon="1.91513">
        <ele>184.4</ele>
        <time>2022-08-06T06:12:04Z</time>
      </trkpt>
      <trkpt lat="45.05748" lon="1.9151">
        <ele>183.7</ele>
        <time>2022-08-06T06:12:06Z</time>
      </trkpt>
      <trkpt lat="45.05741" lon="1.91507">
        <ele>183.6</ele>
        <time>2022-08-06T06:12:08Z</time>
      </trkpt>
      <trkpt lat="45.05733" lon="1.91504">
        <ele>183.6</ele>
        <time>2022-08-06T06:12:10Z</time>
      </trkpt>
      <trkpt lat="45.05726" lon="1.915">
        <ele>182.9</ele>
        <time>2022-08-06T06:12:12Z</time>
      </trkpt>
      <trkpt lat="45.05719" lon="1.91495">
        <ele>183.1</ele>
        <time>2022-08-06T06:12:14Z</time>
      </trkpt>
      <trkpt lat="45.05713" lon="1.91491">
        <ele>183.2</ele>
        <time>2022-08-06T06:12:16Z</time>
      </trkpt>
      <trkpt lat="45.05707" lon="1.91487">
        <ele>183.4</ele>
        <time>2022-08-06T06:12:18Z</time>
      </trkpt>
      <trkpt lat="45.05701" lon="1.91483">
        <ele>183.3</ele>
        <time>2022-08-06T06:12:20Z</time>
      </trkpt>
      <trkpt lat="45.05695" lon="1.9148">
        <ele>183.4</ele>
        <time>2022-08-06T06:12:22Z</time>
      </trkpt>
      <trkpt lat="45.05688" lon="1.91476">
        <ele>183.4</ele>
        <time>2022-08-06T06:12:24Z</time>
      </trkpt>
      <trkpt lat="45.05681" lon="1.91474">
        <ele>183.8</ele>
        <time>2022-08-06T06:12:26Z</time>
      </trkpt>
      <trkpt lat="45.05674" lon="1.9147">
        <ele>183.8</ele>
        <time>2022-08-06T06:12:28Z</time>
      </trkpt>
      <trkpt lat="45.05667" lon="1.91468">
        <ele>184.1</ele>
        <time>2022-08-06T06:12:30Z</time>
      </trkpt>
      <trkpt lat="45.05661" lon="1.91466">
        <ele>184.4</ele>
        <time>2022-08-06T06:12:32Z</time>
      </trkpt>
      <trkpt lat="45.05654" lon="1.91462">
        <ele>184.2</ele>
        <time>2022-08-06T06:12:34Z</time>
      </trkpt>
      <trkpt lat="45.05648" lon="1.9146">
        <ele>184.7</ele>
        <time>2022-08-06T06:12:36Z</time>
      </trkpt>
      <trkpt lat="45.05641" lon="1.91457">
        <ele>184.5</ele>
        <time>2022-08-06T06:12:38Z</time>
      </trkpt>
      <trkpt lat="45.05635" lon="1.91454">
        <ele>184.5</ele>
        <time>2022-08-06T06:12:40Z</time>
      </trkpt>
      <trkpt lat="45.05627" lon="1.91451">
        <ele>184.8</ele>
        <time>2022-08-06T06:12:42Z</time>
      </trkpt>
      <trkpt lat="45.0562" lon="1.91449">
        <ele>184.8</ele>
        <time>2022-08-06T06:12:44Z</time>
      </trkpt>
      <trkpt lat="45.05612" lon="1.91446">
        <ele>185</ele>
        <time>2022-08-06T06:12:46Z</time>
      </trkpt>
      <trkpt lat="45.05605" lon="1.91443">
        <ele>185</ele>
        <time>2022-08-06T06:12:48Z</time>
      </trkpt>
      <trkpt lat="45.05598" lon="1.91441">
        <ele>185</ele>
        <time>2022-08-06T06:12:50Z</time>
      </trkpt>
      <trkpt lat="45.0559" lon="1.91438">
        <ele>184.9</ele>
        <time>2022-08-06T06:12:52Z</time>
      </trkpt>
      <trkpt lat="45.05583" lon="1.91435">
        <ele>184.8</ele>
        <time>2022-08-06T06:12:54Z</time>
      </trkpt>
      <trkpt lat="45.05577" lon="1.91431">
        <ele>183.6</ele>
        <time>2022-08-06T06:12:56Z</time>
      </trkpt>
      <trkpt lat="45.05569" lon="1.91429">
        <ele>183</ele>
        <time>2022-08-06T06:12:58Z</time>
      </trkpt>
      <trkpt lat="45.05562" lon="1.91428">
        <ele>182.9</ele>
        <time>2022-08-06T06:13:00Z</time>
      </trkpt>
      <trkpt lat="45.05554" lon="1.91426">
        <ele>182.7</ele>
        <time>2022-08-06T06:13:02Z</time>
      </trkpt>
      <trkpt lat="45.05546" lon="1.91425">
        <ele>182.6</ele>
        <time>2022-08-06T06:13:04Z</time>
      </trkpt>
      <trkpt lat="45.05539" lon="1.91426">
        <ele>183.1</ele>
        <time>2022-08-06T06:13:06Z</time>
      </trkpt>
      <trkpt lat="45.05532" lon="1.91425">
        <ele>183.1</ele>
        <time>2022-08-06T06:13:08Z</time>
      </trkpt>
      <trkpt lat="45.05524" lon="1.91424">
        <ele>183.3</ele>
        <time>2022-08-06T06:13:10Z</time>
      </trkpt>
      <trkpt lat="45.05517" lon="1.91425">
        <ele>183.8</ele>
        <time>2022-08-06T06:13:12Z</time>
      </trkpt>
      <trkpt lat="45.05509" lon="1.91424">
        <ele>183.8</ele>
        <time>2022-08-06T06:13:14Z</time>
      </trkpt>
      <trkpt lat="45.05501" lon="1.91423">
        <ele>183.9</ele>
        <time>2022-08-06T06:13:16Z</time>
      </trkpt>
      <trkpt lat="45.05494" lon="1.91422">
        <ele>184.1</ele>
        <time>2022-08-06T06:13:18Z</time>
      </trkpt>
      <trkpt lat="45.05487" lon="1.9142">
        <ele>183.7</ele>
        <time>2022-08-06T06:13:20Z</time>
      </trkpt>
      <trkpt lat="45.05479" lon="1.91418">
        <ele>183.6</ele>
        <time>2022-08-06T06:13:22Z</time>
      </trkpt>
      <trkpt lat="45.05471" lon="1.91415">
        <ele>183.5</ele>
        <time>2022-08-06T06:13:24Z</time>
      </trkpt>
      <trkpt lat="45.05463" lon="1.91413">
        <ele>183.5</ele>
        <time>2022-08-06T06:13:26Z</time>
      </trkpt>
      <trkpt lat="45.05456" lon="1.9141">
        <ele>183.3</ele>
        <time>2022-08-06T06:13:28Z</time>
      </trkpt>
      <trkpt lat="45.05448" lon="1.91408">
        <ele>183.3</ele>
        <time>2022-08-06T06:13:30Z</time>
      </trkpt>
      <trkpt lat="45.05439" lon="1.91406">
        <ele>183.2</ele>
        <time>2022-08-06T06:13:32Z</time>
      </trkpt>
      <trkpt lat="45.05432" lon="1.91403">
        <ele>183</ele>
        <time>2022-08-06T06:13:34Z</time>
      </trkpt>
      <trkpt lat="45.05424" lon="1.91401">
        <ele>183.1</ele>
        <time>2022-08-06T06:13:36Z</time>
      </trkpt>
      <trkpt lat="45.05416" lon="1.91398">
        <ele>182.9</ele>
        <time>2022-08-06T06:13:38Z</time>
      </trkpt>
      <trkpt lat="45.05408" lon="1.91397">
        <ele>183</ele>
        <time>2022-08-06T06:13:40Z</time>
      </trkpt>
      <trkpt lat="45.05401" lon="1.91394">
        <ele>182.9</ele>
        <time>2022-08-06T06:13:42Z</time>
      </trkpt>
      <trkpt lat="45.05394" lon="1.91393">
        <ele>183.1</ele>
        <time>2022-08-06T06:13:44Z</time>
      </trkpt>
      <trkpt lat="45.05387" lon="1.91391">
        <ele>183.1</ele>
        <time>2022-08-06T06:13:46Z</time>
      </trkpt>
      <trkpt lat="45.05379" lon="1.91389">
        <ele>183.2</ele>
        <time>2022-08-06T06:13:48Z</time>
      </trkpt>
      <trkpt lat="45.05372" lon="1.91387">
        <ele>183.1</ele>
        <time>2022-08-06T06:13:50Z</time>
      </trkpt>
      <trkpt lat="45.05364" lon="1.91386">
        <ele>183.3</ele>
        <time>2022-08-06T06:13:52Z</time>
      </trkpt>
      <trkpt lat="45.05357" lon="1.91383">
        <ele>183</ele>
        <time>2022-08-06T06:13:54Z</time>
      </trkpt>
      <trkpt lat="45.05349" lon="1.91381">
        <ele>183</ele>
        <time>2022-08-06T06:13:56Z</time>
      </trkpt>
      <trkpt lat="45.05341" lon="1.91379">
        <ele>183</ele>
        <time>2022-08-06T06:13:58Z</time>
      </trkpt>
      <trkpt lat="45.05334" lon="1.91377">
        <ele>182.9</ele>
        <time>2022-08-06T06:14:00Z</time>
      </trkpt>
      <trkpt lat="45.05327" lon="1.91375">
        <ele>182.7</ele>
        <time>2022-08-06T06:14:02Z</time>
      </trkpt>
      <trkpt lat="45.05319" lon="1.91373">
        <ele>182.5</ele>
        <time>2022-08-06T06:14:04Z</time>
      </trkpt>
      <trkpt lat="45.05312" lon="1.9137">
        <ele>182.2</ele>
        <time>2022-08-06T06:14:06Z</time>
      </trkpt>
      <trkpt lat="45.05304" lon="1.91369">
        <ele>182.1</ele>
        <time>2022-08-06T06:14:08Z</time>
      </trkpt>
      <trkpt lat="45.05296" lon="1.91366">
        <ele>181.9</ele>
        <time>2022-08-06T06:14:10Z</time>
      </trkpt>
      <trkpt lat="45.05287" lon="1.91364">
        <ele>181.7</ele>
        <time>2022-08-06T06:14:12Z</time>
      </trkpt>
      <trkpt lat="45.05278" lon="1.91362">
        <ele>181.7</ele>
        <time>2022-08-06T06:14:14Z</time>
      </trkpt>
      <trkpt lat="45.05269" lon="1.91359">
        <ele>181.3</ele>
        <time>2022-08-06T06:14:16Z</time>
      </trkpt>
      <trkpt lat="45.05259" lon="1.91356">
        <ele>181.2</ele>
        <time>2022-08-06T06:14:18Z</time>
      </trkpt>
      <trkpt lat="45.0525" lon="1.91354">
        <ele>181.2</ele>
        <time>2022-08-06T06:14:20Z</time>
      </trkpt>
      <trkpt lat="45.05242" lon="1.91352">
        <ele>181.3</ele>
        <time>2022-08-06T06:14:22Z</time>
      </trkpt>
      <trkpt lat="45.05232" lon="1.91349">
        <ele>181.3</ele>
        <time>2022-08-06T06:14:24Z</time>
      </trkpt>
      <trkpt lat="45.05223" lon="1.91346">
        <ele>181.3</ele>
        <time>2022-08-06T06:14:26Z</time>
      </trkpt>
      <trkpt lat="45.05213" lon="1.91342">
        <ele>181.2</ele>
        <time>2022-08-06T06:14:28Z</time>
      </trkpt>
      <trkpt lat="45.05204" lon="1.9134">
        <ele>181.4</ele>
        <time>2022-08-06T06:14:30Z</time>
      </trkpt>
      <trkpt lat="45.05196" lon="1.91338">
        <ele>181.6</ele>
        <time>2022-08-06T06:14:32Z</time>
      </trkpt>
      <trkpt lat="45.0519" lon="1.91336">
        <ele>181.7</ele>
        <time>2022-08-06T06:14:34Z</time>
      </trkpt>
      <trkpt lat="45.05183" lon="1.91334">
        <ele>181.9</ele>
        <time>2022-08-06T06:14:36Z</time>
      </trkpt>
      <trkpt lat="45.05178" lon="1.91332">
        <ele>182</ele>
        <time>2022-08-06T06:14:38Z</time>
      </trkpt>
      <trkpt lat="45.05173" lon="1.9133">
        <ele>182.1</ele>
        <time>2022-08-06T06:14:40Z</time>
      </trkpt>
      <trkpt lat="45.05168" lon="1.9133">
        <ele>182.4</ele>
        <time>2022-08-06T06:14:42Z</time>
      </trkpt>
      <trkpt lat="45.05163" lon="1.91329">
        <ele>182.4</ele>
        <time>2022-08-06T06:14:44Z</time>
      </trkpt>
      <trkpt lat="45.05158" lon="1.91326">
        <ele>182</ele>
        <time>2022-08-06T06:14:46Z</time>
      </trkpt>
      <trkpt lat="45.05154" lon="1.91325">
        <ele>181.9</ele>
        <time>2022-08-06T06:14:48Z</time>
      </trkpt>
      <trkpt lat="45.0515" lon="1.91324">
        <ele>181.7</ele>
        <time>2022-08-06T06:14:50Z</time>
      </trkpt>
      <trkpt lat="45.05145" lon="1.91322">
        <ele>181.6</ele>
        <time>2022-08-06T06:14:52Z</time>
      </trkpt>
      <trkpt lat="45.0514" lon="1.91321">
        <ele>181.5</ele>
        <time>2022-08-06T06:14:54Z</time>
      </trkpt>
      <trkpt lat="45.05136" lon="1.9132">
        <ele>181.4</ele>
        <time>2022-08-06T06:14:56Z</time>
      </trkpt>
      <trkpt lat="45.05131" lon="1.91319">
        <ele>181.3</ele>
        <time>2022-08-06T06:14:58Z</time>
      </trkpt>
      <trkpt lat="45.05126" lon="1.91317">
        <ele>181.1</ele>
        <time>2022-08-06T06:15:00Z</time>
      </trkpt>
      <trkpt lat="45.05122" lon="1.91316">
        <ele>181.1</ele>
        <time>2022-08-06T06:15:02Z</time>
      </trkpt>
      <trkpt lat="45.05118" lon="1.91316">
        <ele>181.1</ele>
        <time>2022-08-06T06:15:04Z</time>
      </trkpt>
      <trkpt lat="45.05114" lon="1.91315">
        <ele>181.1</ele>
        <time>2022-08-06T06:15:06Z</time>
      </trkpt>
      <trkpt lat="45.0511" lon="1.91314">
        <ele>181</ele>
        <time>2022-08-06T06:15:08Z</time>
      </trkpt>
      <trkpt lat="45.05106" lon="1.91313">
        <ele>180.9</ele>
        <time>2022-08-06T06:15:10Z</time>
      </trkpt>
      <trkpt lat="45.05101" lon="1.91311">
        <ele>180.8</ele>
        <time>2022-08-06T06:15:12Z</time>
      </trkpt>
      <trkpt lat="45.05097" lon="1.9131">
        <ele>180.6</ele>
        <time>2022-08-06T06:15:14Z</time>
      </trkpt>
      <trkpt lat="45.05093" lon="1.91309">
        <ele>180.6</ele>
        <time>2022-08-06T06:15:16Z</time>
      </trkpt>
      <trkpt lat="45.05089" lon="1.91308">
        <ele>180.5</ele>
        <time>2022-08-06T06:15:18Z</time>
      </trkpt>
      <trkpt lat="45.05085" lon="1.91307">
        <ele>180.5</ele>
        <time>2022-08-06T06:15:20Z</time>
      </trkpt>
      <trkpt lat="45.05081" lon="1.91305">
        <ele>180.4</ele>
        <time>2022-08-06T06:15:22Z</time>
      </trkpt>
      <trkpt lat="45.05078" lon="1.91304">
        <ele>180.5</ele>
        <time>2022-08-06T06:15:24Z</time>
      </trkpt>
      <trkpt lat="45.05073" lon="1.91303">
        <ele>180.6</ele>
        <time>2022-08-06T06:15:26Z</time>
      </trkpt>
      <trkpt lat="45.05069" lon="1.91301">
        <ele>180.6</ele>
        <time>2022-08-06T06:15:28Z</time>
      </trkpt>
      <trkpt lat="45.05065" lon="1.91301">
        <ele>180.8</ele>
        <time>2022-08-06T06:15:30Z</time>
      </trkpt>
      <trkpt lat="45.05061" lon="1.913">
        <ele>180.9</ele>
        <time>2022-08-06T06:15:32Z</time>
      </trkpt>
      <trkpt lat="45.05058" lon="1.91299">
        <ele>181</ele>
        <time>2022-08-06T06:15:34Z</time>
      </trkpt>
      <trkpt lat="45.05054" lon="1.91297">
        <ele>181</ele>
        <time>2022-08-06T06:15:36Z</time>
      </trkpt>
      <trkpt lat="45.0505" lon="1.91296">
        <ele>181.1</ele>
        <time>2022-08-06T06:15:38Z</time>
      </trkpt>
      <trkpt lat="45.05046" lon="1.91295">
        <ele>181.2</ele>
        <time>2022-08-06T06:15:40Z</time>
      </trkpt>
      <trkpt lat="45.05042" lon="1.91294">
        <ele>181.3</ele>
        <time>2022-08-06T06:15:42Z</time>
      </trkpt>
      <trkpt lat="45.05039" lon="1.91293">
        <ele>181.4</ele>
        <time>2022-08-06T06:15:44Z</time>
      </trkpt>
      <trkpt lat="45.05035" lon="1.91292">
        <ele>181.4</ele>
        <time>2022-08-06T06:15:46Z</time>
      </trkpt>
      <trkpt lat="45.05032" lon="1.9129">
        <ele>181.4</ele>
        <time>2022-08-06T06:15:48Z</time>
      </trkpt>
      <trkpt lat="45.05028" lon="1.91289">
        <ele>181.5</ele>
        <time>2022-08-06T06:15:50Z</time>
      </trkpt>
      <trkpt lat="45.05025" lon="1.91288">
        <ele>181.6</ele>
        <time>2022-08-06T06:15:52Z</time>
      </trkpt>
      <trkpt lat="45.05021" lon="1.91288">
        <ele>181.7</ele>
        <time>2022-08-06T06:15:54Z</time>
      </trkpt>
      <trkpt lat="45.05018" lon="1.91287">
        <ele>181.9</ele>
        <time>2022-08-06T06:15:56Z</time>
      </trkpt>
      <trkpt lat="45.05015" lon="1.91287">
        <ele>182</ele>
        <time>2022-08-06T06:15:58Z</time>
      </trkpt>
      <trkpt lat="45.05011" lon="1.91287">
        <ele>182.2</ele>
        <time>2022-08-06T06:16:00Z</time>
      </trkpt>
      <trkpt lat="45.05007" lon="1.91287">
        <ele>182.5</ele>
        <time>2022-08-06T06:16:02Z</time>
      </trkpt>
      <trkpt lat="45.05003" lon="1.91288">
        <ele>182.8</ele>
        <time>2022-08-06T06:16:04Z</time>
      </trkpt>
      <trkpt lat="45.04999" lon="1.91288">
        <ele>183</ele>
        <time>2022-08-06T06:16:06Z</time>
      </trkpt>
      <trkpt lat="45.04994" lon="1.91289">
        <ele>182.9</ele>
        <time>2022-08-06T06:16:08Z</time>
      </trkpt>
      <trkpt lat="45.04989" lon="1.91289">
        <ele>182.7</ele>
        <time>2022-08-06T06:16:10Z</time>
      </trkpt>
      <trkpt lat="45.04983" lon="1.91289">
        <ele>182.7</ele>
        <time>2022-08-06T06:16:12Z</time>
      </trkpt>
      <trkpt lat="45.04977" lon="1.9129">
        <ele>182.7</ele>
        <time>2022-08-06T06:16:14Z</time>
      </trkpt>
      <trkpt lat="45.04972" lon="1.91292">
        <ele>182.7</ele>
        <time>2022-08-06T06:16:16Z</time>
      </trkpt>
      <trkpt lat="45.04966" lon="1.91293">
        <ele>182.6</ele>
        <time>2022-08-06T06:16:18Z</time>
      </trkpt>
      <trkpt lat="45.0496" lon="1.91294">
        <ele>182.6</ele>
        <time>2022-08-06T06:16:20Z</time>
      </trkpt>
      <trkpt lat="45.04954" lon="1.91296">
        <ele>182.6</ele>
        <time>2022-08-06T06:16:22Z</time>
      </trkpt>
      <trkpt lat="45.04947" lon="1.91297">
        <ele>182.6</ele>
        <time>2022-08-06T06:16:24Z</time>
      </trkpt>
      <trkpt lat="45.0494" lon="1.91298">
        <ele>182.5</ele>
        <time>2022-08-06T06:16:26Z</time>
      </trkpt>
      <trkpt lat="45.04932" lon="1.91299">
        <ele>182.4</ele>
        <time>2022-08-06T06:16:28Z</time>
      </trkpt>
      <trkpt lat="45.04925" lon="1.91301">
        <ele>182.3</ele>
        <time>2022-08-06T06:16:30Z</time>
      </trkpt>
      <trkpt lat="45.04918" lon="1.91302">
        <ele>182.3</ele>
        <time>2022-08-06T06:16:32Z</time>
      </trkpt>
      <trkpt lat="45.0491" lon="1.91303">
        <ele>182.3</ele>
        <time>2022-08-06T06:16:34Z</time>
      </trkpt>
      <trkpt lat="45.04903" lon="1.91305">
        <ele>182.3</ele>
        <time>2022-08-06T06:16:36Z</time>
      </trkpt>
      <trkpt lat="45.04895" lon="1.91307">
        <ele>182.3</ele>
        <time>2022-08-06T06:16:38Z</time>
      </trkpt>
      <trkpt lat="45.04887" lon="1.91308">
        <ele>182.3</ele>
        <time>2022-08-06T06:16:40Z</time>
      </trkpt>
      <trkpt lat="45.04879" lon="1.91309">
        <ele>182.3</ele>
        <time>2022-08-06T06:16:42Z</time>
      </trkpt>
      <trkpt lat="45.04871" lon="1.91311">
        <ele>182.2</ele>
        <time>2022-08-06T06:16:44Z</time>
      </trkpt>
      <trkpt lat="45.04862" lon="1.91313">
        <ele>182.2</ele>
        <time>2022-08-06T06:16:46Z</time>
      </trkpt>
      <trkpt lat="45.04852" lon="1.91315">
        <ele>182.1</ele>
        <time>2022-08-06T06:16:48Z</time>
      </trkpt>
      <trkpt lat="45.04842" lon="1.91316">
        <ele>182</ele>
        <time>2022-08-06T06:16:50Z</time>
      </trkpt>
      <trkpt lat="45.04832" lon="1.91317">
        <ele>181.9</ele>
        <time>2022-08-06T06:16:52Z</time>
      </trkpt>
      <trkpt lat="45.04821" lon="1.91318">
        <ele>182.7</ele>
        <time>2022-08-06T06:16:54Z</time>
      </trkpt>
      <trkpt lat="45.04811" lon="1.91317">
        <ele>183.3</ele>
        <time>2022-08-06T06:16:56Z</time>
      </trkpt>
      <trkpt lat="45.04801" lon="1.91313">
        <ele>183.8</ele>
        <time>2022-08-06T06:16:58Z</time>
      </trkpt>
      <trkpt lat="45.04791" lon="1.91308">
        <ele>184.2</ele>
        <time>2022-08-06T06:17:00Z</time>
      </trkpt>
      <trkpt lat="45.04782" lon="1.913">
        <ele>184.4</ele>
        <time>2022-08-06T06:17:02Z</time>
      </trkpt>
      <trkpt lat="45.04774" lon="1.9129">
        <ele>184.6</ele>
        <time>2022-08-06T06:17:04Z</time>
      </trkpt>
      <trkpt lat="45.04767" lon="1.91279">
        <ele>184.6</ele>
        <time>2022-08-06T06:17:06Z</time>
      </trkpt>
      <trkpt lat="45.04761" lon="1.91267">
        <ele>184.6</ele>
        <time>2022-08-06T06:17:08Z</time>
      </trkpt>
      <trkpt lat="45.04755" lon="1.91254">
        <ele>184.7</ele>
        <time>2022-08-06T06:17:10Z</time>
      </trkpt>
      <trkpt lat="45.0475" lon="1.91243">
        <ele>184.4</ele>
        <time>2022-08-06T06:17:12Z</time>
      </trkpt>
      <trkpt lat="45.04744" lon="1.9123">
        <ele>183.6</ele>
        <time>2022-08-06T06:17:14Z</time>
      </trkpt>
      <trkpt lat="45.04738" lon="1.91218">
        <ele>182.8</ele>
        <time>2022-08-06T06:17:16Z</time>
      </trkpt>
      <trkpt lat="45.04732" lon="1.91205">
        <ele>182.1</ele>
        <time>2022-08-06T06:17:18Z</time>
      </trkpt>
      <trkpt lat="45.04726" lon="1.91193">
        <ele>181.4</ele>
        <time>2022-08-06T06:17:20Z</time>
      </trkpt>
      <trkpt lat="45.0472" lon="1.9118">
        <ele>180.8</ele>
        <time>2022-08-06T06:17:22Z</time>
      </trkpt>
      <trkpt lat="45.04714" lon="1.91167">
        <ele>180.2</ele>
        <time>2022-08-06T06:17:24Z</time>
      </trkpt>
      <trkpt lat="45.04708" lon="1.91155">
        <ele>179.8</ele>
        <time>2022-08-06T06:17:26Z</time>
      </trkpt>
      <trkpt lat="45.04703" lon="1.91143">
        <ele>179.3</ele>
        <time>2022-08-06T06:17:28Z</time>
      </trkpt>
      <trkpt lat="45.04698" lon="1.9113">
        <ele>178.9</ele>
        <time>2022-08-06T06:17:30Z</time>
      </trkpt>
      <trkpt lat="45.04692" lon="1.91118">
        <ele>178.6</ele>
        <time>2022-08-06T06:17:32Z</time>
      </trkpt>
      <trkpt lat="45.04685" lon="1.91104">
        <ele>178.4</ele>
        <time>2022-08-06T06:17:34Z</time>
      </trkpt>
      <trkpt lat="45.0468" lon="1.91087">
        <ele>177.9</ele>
        <time>2022-08-06T06:17:36Z</time>
      </trkpt>
      <trkpt lat="45.04676" lon="1.91069">
        <ele>178</ele>
        <time>2022-08-06T06:17:38Z</time>
      </trkpt>
      <trkpt lat="45.04675" lon="1.9105">
        <ele>178</ele>
        <time>2022-08-06T06:17:40Z</time>
      </trkpt>
      <trkpt lat="45.04676" lon="1.91031">
        <ele>177.8</ele>
        <time>2022-08-06T06:17:42Z</time>
      </trkpt>
      <trkpt lat="45.04677" lon="1.91012">
        <ele>177.6</ele>
        <time>2022-08-06T06:17:44Z</time>
      </trkpt>
      <trkpt lat="45.04677" lon="1.90992">
        <ele>177.5</ele>
        <time>2022-08-06T06:17:46Z</time>
      </trkpt>
      <trkpt lat="45.04677" lon="1.90972">
        <ele>177.4</ele>
        <time>2022-08-06T06:17:48Z</time>
      </trkpt>
      <trkpt lat="45.04677" lon="1.90952">
        <ele>177.4</ele>
        <time>2022-08-06T06:17:50Z</time>
      </trkpt>
      <trkpt lat="45.04677" lon="1.90932">
        <ele>177.3</ele>
        <time>2022-08-06T06:17:52Z</time>
      </trkpt>
      <trkpt lat="45.04677" lon="1.90914">
        <ele>177</ele>
        <time>2022-08-06T06:17:54Z</time>
      </trkpt>
      <trkpt lat="45.04678" lon="1.90895">
        <ele>176</ele>
        <time>2022-08-06T06:17:56Z</time>
      </trkpt>
      <trkpt lat="45.04675" lon="1.90878">
        <ele>175.4</ele>
        <time>2022-08-06T06:17:58Z</time>
      </trkpt>
      <trkpt lat="45.0467" lon="1.9086">
        <ele>175.2</ele>
        <time>2022-08-06T06:18:00Z</time>
      </trkpt>
      <trkpt lat="45.04661" lon="1.90844">
        <ele>175.7</ele>
        <time>2022-08-06T06:18:02Z</time>
      </trkpt>
      <trkpt lat="45.04653" lon="1.90828">
        <ele>175.7</ele>
        <time>2022-08-06T06:18:04Z</time>
      </trkpt>
      <trkpt lat="45.04644" lon="1.90811">
        <ele>174.9</ele>
        <time>2022-08-06T06:18:06Z</time>
      </trkpt>
      <trkpt lat="45.04637" lon="1.90793">
        <ele>173.5</ele>
        <time>2022-08-06T06:18:08Z</time>
      </trkpt>
      <trkpt lat="45.04628" lon="1.90776">
        <ele>171.8</ele>
        <time>2022-08-06T06:18:10Z</time>
      </trkpt>
      <trkpt lat="45.04619" lon="1.90759">
        <ele>169.8</ele>
        <time>2022-08-06T06:18:12Z</time>
      </trkpt>
      <trkpt lat="45.0461" lon="1.90741">
        <ele>168.4</ele>
        <time>2022-08-06T06:18:14Z</time>
      </trkpt>
      <trkpt lat="45.04602" lon="1.90723">
        <ele>167.9</ele>
        <time>2022-08-06T06:18:16Z</time>
      </trkpt>
      <trkpt lat="45.04593" lon="1.90705">
        <ele>167.2</ele>
        <time>2022-08-06T06:18:18Z</time>
      </trkpt>
      <trkpt lat="45.04585" lon="1.90688">
        <ele>166.3</ele>
        <time>2022-08-06T06:18:20Z</time>
      </trkpt>
      <trkpt lat="45.04576" lon="1.90672">
        <ele>167.4</ele>
        <time>2022-08-06T06:18:22Z</time>
      </trkpt>
      <trkpt lat="45.0457" lon="1.90657">
        <ele>169.4</ele>
        <time>2022-08-06T06:18:24Z</time>
      </trkpt>
      <trkpt lat="45.04563" lon="1.90643">
        <ele>171.3</ele>
        <time>2022-08-06T06:18:26Z</time>
      </trkpt>
      <trkpt lat="45.04556" lon="1.90629">
        <ele>173</ele>
        <time>2022-08-06T06:18:28Z</time>
      </trkpt>
      <trkpt lat="45.04551" lon="1.90616">
        <ele>174.4</ele>
        <time>2022-08-06T06:18:30Z</time>
      </trkpt>
      <trkpt lat="45.04545" lon="1.90604">
        <ele>175.7</ele>
        <time>2022-08-06T06:18:32Z</time>
      </trkpt>
      <trkpt lat="45.0454" lon="1.90592">
        <ele>176.8</ele>
        <time>2022-08-06T06:18:34Z</time>
      </trkpt>
      <trkpt lat="45.04534" lon="1.90582">
        <ele>177.7</ele>
        <time>2022-08-06T06:18:36Z</time>
      </trkpt>
      <trkpt lat="45.04529" lon="1.90572">
        <ele>177.7</ele>
        <time>2022-08-06T06:18:38Z</time>
      </trkpt>
      <trkpt lat="45.0452" lon="1.90563">
        <ele>177.9</ele>
        <time>2022-08-06T06:18:40Z</time>
      </trkpt>
      <trkpt lat="45.0451" lon="1.90553">
        <ele>177.9</ele>
        <time>2022-08-06T06:18:42Z</time>
      </trkpt>
      <trkpt lat="45.04508" lon="1.90546">
        <ele>176.8</ele>
        <time>2022-08-06T06:18:44Z</time>
      </trkpt>
      <trkpt lat="45.04501" lon="1.90538">
        <ele>175.9</ele>
        <time>2022-08-06T06:18:46Z</time>
      </trkpt>
      <trkpt lat="45.04495" lon="1.90531">
        <ele>176.8</ele>
        <time>2022-08-06T06:18:48Z</time>
      </trkpt>
      <trkpt lat="45.04488" lon="1.90525">
        <ele>178.9</ele>
        <time>2022-08-06T06:18:50Z</time>
      </trkpt>
      <trkpt lat="45.0448" lon="1.90519">
        <ele>181.5</ele>
        <time>2022-08-06T06:18:52Z</time>
      </trkpt>
      <trkpt lat="45.04472" lon="1.90512">
        <ele>183.2</ele>
        <time>2022-08-06T06:18:54Z</time>
      </trkpt>
      <trkpt lat="45.04465" lon="1.90505">
        <ele>185.2</ele>
        <time>2022-08-06T06:18:56Z</time>
      </trkpt>
      <trkpt lat="45.04458" lon="1.90497">
        <ele>186.7</ele>
        <time>2022-08-06T06:18:58Z</time>
      </trkpt>
      <trkpt lat="45.0445" lon="1.90489">
        <ele>188.7</ele>
        <time>2022-08-06T06:19:00Z</time>
      </trkpt>
      <trkpt lat="45.04444" lon="1.90481">
        <ele>189.4</ele>
        <time>2022-08-06T06:19:02Z</time>
      </trkpt>
      <trkpt lat="45.04437" lon="1.90473">
        <ele>190.3</ele>
        <time>2022-08-06T06:19:04Z</time>
      </trkpt>
      <trkpt lat="45.04431" lon="1.90464">
        <ele>190.2</ele>
        <time>2022-08-06T06:19:06Z</time>
      </trkpt>
      <trkpt lat="45.04424" lon="1.90454">
        <ele>189.4</ele>
        <time>2022-08-06T06:19:08Z</time>
      </trkpt>
      <trkpt lat="45.04417" lon="1.90445">
        <ele>188.5</ele>
        <time>2022-08-06T06:19:10Z</time>
      </trkpt>
      <trkpt lat="45.04409" lon="1.90436">
        <ele>190</ele>
        <time>2022-08-06T06:19:12Z</time>
      </trkpt>
      <trkpt lat="45.04406" lon="1.90426">
        <ele>188.1</ele>
        <time>2022-08-06T06:19:14Z</time>
      </trkpt>
      <trkpt lat="45.044" lon="1.90416">
        <ele>188.3</ele>
        <time>2022-08-06T06:19:16Z</time>
      </trkpt>
      <trkpt lat="45.04394" lon="1.90405">
        <ele>189.7</ele>
        <time>2022-08-06T06:19:18Z</time>
      </trkpt>
      <trkpt lat="45.0439" lon="1.90397">
        <ele>190.5</ele>
        <time>2022-08-06T06:19:20Z</time>
      </trkpt>
      <trkpt lat="45.04383" lon="1.90387">
        <ele>191.9</ele>
        <time>2022-08-06T06:19:22Z</time>
      </trkpt>
      <trkpt lat="45.04376" lon="1.90379">
        <ele>193.6</ele>
        <time>2022-08-06T06:19:24Z</time>
      </trkpt>
      <trkpt lat="45.04372" lon="1.90369">
        <ele>193.1</ele>
        <time>2022-08-06T06:19:26Z</time>
      </trkpt>
      <trkpt lat="45.04368" lon="1.90358">
        <ele>192.5</ele>
        <time>2022-08-06T06:19:28Z</time>
      </trkpt>
      <trkpt lat="45.04361" lon="1.90348">
        <ele>192.9</ele>
        <time>2022-08-06T06:19:30Z</time>
      </trkpt>
      <trkpt lat="45.04355" lon="1.90339">
        <ele>192.6</ele>
        <time>2022-08-06T06:19:32Z</time>
      </trkpt>
      <trkpt lat="45.0435" lon="1.90328">
        <ele>191.9</ele>
        <time>2022-08-06T06:19:34Z</time>
      </trkpt>
      <trkpt lat="45.04345" lon="1.90318">
        <ele>191.5</ele>
        <time>2022-08-06T06:19:36Z</time>
      </trkpt>
      <trkpt lat="45.0434" lon="1.90307">
        <ele>190.5</ele>
        <time>2022-08-06T06:19:38Z</time>
      </trkpt>
      <trkpt lat="45.04335" lon="1.90299">
        <ele>189.8</ele>
        <time>2022-08-06T06:19:40Z</time>
      </trkpt>
      <trkpt lat="45.0433" lon="1.90289">
        <ele>190</ele>
        <time>2022-08-06T06:19:42Z</time>
      </trkpt>
      <trkpt lat="45.04325" lon="1.9028">
        <ele>190.6</ele>
        <time>2022-08-06T06:19:44Z</time>
      </trkpt>
      <trkpt lat="45.04319" lon="1.90272">
        <ele>192.4</ele>
        <time>2022-08-06T06:19:46Z</time>
      </trkpt>
      <trkpt lat="45.04317" lon="1.90263">
        <ele>191.4</ele>
        <time>2022-08-06T06:19:48Z</time>
      </trkpt>
      <trkpt lat="45.04312" lon="1.90255">
        <ele>192.9</ele>
        <time>2022-08-06T06:19:50Z</time>
      </trkpt>
      <trkpt lat="45.04308" lon="1.90248">
        <ele>193.2</ele>
        <time>2022-08-06T06:19:52Z</time>
      </trkpt>
      <trkpt lat="45.04303" lon="1.9024">
        <ele>194.9</ele>
        <time>2022-08-06T06:19:54Z</time>
      </trkpt>
      <trkpt lat="45.043" lon="1.90234">
        <ele>195.4</ele>
        <time>2022-08-06T06:19:56Z</time>
      </trkpt>
      <trkpt lat="45.04297" lon="1.90226">
        <ele>195.6</ele>
        <time>2022-08-06T06:19:58Z</time>
      </trkpt>
      <trkpt lat="45.04293" lon="1.90216">
        <ele>195.9</ele>
        <time>2022-08-06T06:20:00Z</time>
      </trkpt>
      <trkpt lat="45.0429" lon="1.90207">
        <ele>195.6</ele>
        <time>2022-08-06T06:20:02Z</time>
      </trkpt>
      <trkpt lat="45.04287" lon="1.90199">
        <ele>195.3</ele>
        <time>2022-08-06T06:20:04Z</time>
      </trkpt>
      <trkpt lat="45.04283" lon="1.90189">
        <ele>195.2</ele>
        <time>2022-08-06T06:20:06Z</time>
      </trkpt>
      <trkpt lat="45.04285" lon="1.90175">
        <ele>191.1</ele>
        <time>2022-08-06T06:20:08Z</time>
      </trkpt>
      <trkpt lat="45.04278" lon="1.90169">
        <ele>193.2</ele>
        <time>2022-08-06T06:20:10Z</time>
      </trkpt>
      <trkpt lat="45.04273" lon="1.90157">
        <ele>192.7</ele>
        <time>2022-08-06T06:20:12Z</time>
      </trkpt>
      <trkpt lat="45.0427" lon="1.90145">
        <ele>190.2</ele>
        <time>2022-08-06T06:20:14Z</time>
      </trkpt>
      <trkpt lat="45.04267" lon="1.90133">
        <ele>188.1</ele>
        <time>2022-08-06T06:20:16Z</time>
      </trkpt>
      <trkpt lat="45.04263" lon="1.90122">
        <ele>185.8</ele>
        <time>2022-08-06T06:20:18Z</time>
      </trkpt>
      <trkpt lat="45.04259" lon="1.90109">
        <ele>183.1</ele>
        <time>2022-08-06T06:20:20Z</time>
      </trkpt>
      <trkpt lat="45.04255" lon="1.90094">
        <ele>179</ele>
        <time>2022-08-06T06:20:22Z</time>
      </trkpt>
      <trkpt lat="45.04251" lon="1.90078">
        <ele>175.5</ele>
        <time>2022-08-06T06:20:24Z</time>
      </trkpt>
      <trkpt lat="45.04246" lon="1.90063">
        <ele>174.9</ele>
        <time>2022-08-06T06:20:26Z</time>
      </trkpt>
      <trkpt lat="45.0424" lon="1.90047">
        <ele>174.7</ele>
        <time>2022-08-06T06:20:28Z</time>
      </trkpt>
      <trkpt lat="45.04234" lon="1.9003">
        <ele>174.6</ele>
        <time>2022-08-06T06:20:30Z</time>
      </trkpt>
      <trkpt lat="45.04231" lon="1.90012">
        <ele>174.2</ele>
        <time>2022-08-06T06:20:32Z</time>
      </trkpt>
      <trkpt lat="45.04231" lon="1.89993">
        <ele>174.1</ele>
        <time>2022-08-06T06:20:34Z</time>
      </trkpt>
      <trkpt lat="45.04232" lon="1.89978">
        <ele>175.2</ele>
        <time>2022-08-06T06:20:36Z</time>
      </trkpt>
      <trkpt lat="45.04233" lon="1.89962">
        <ele>176.5</ele>
        <time>2022-08-06T06:20:38Z</time>
      </trkpt>
      <trkpt lat="45.04233" lon="1.89947">
        <ele>177.7</ele>
        <time>2022-08-06T06:20:40Z</time>
      </trkpt>
      <trkpt lat="45.04233" lon="1.89931">
        <ele>179</ele>
        <time>2022-08-06T06:20:42Z</time>
      </trkpt>
      <trkpt lat="45.04234" lon="1.89916">
        <ele>180.2</ele>
        <time>2022-08-06T06:20:44Z</time>
      </trkpt>
      <trkpt lat="45.04234" lon="1.89902">
        <ele>183.1</ele>
        <time>2022-08-06T06:20:46Z</time>
      </trkpt>
      <trkpt lat="45.04234" lon="1.89887">
        <ele>185.7</ele>
        <time>2022-08-06T06:20:48Z</time>
      </trkpt>
      <trkpt lat="45.04235" lon="1.89873">
        <ele>187.7</ele>
        <time>2022-08-06T06:20:50Z</time>
      </trkpt>
      <trkpt lat="45.04237" lon="1.89859">
        <ele>189.2</ele>
        <time>2022-08-06T06:20:52Z</time>
      </trkpt>
      <trkpt lat="45.04239" lon="1.89845">
        <ele>190.2</ele>
        <time>2022-08-06T06:20:54Z</time>
      </trkpt>
      <trkpt lat="45.04242" lon="1.89832">
        <ele>190.3</ele>
        <time>2022-08-06T06:20:56Z</time>
      </trkpt>
      <trkpt lat="45.04247" lon="1.8982">
        <ele>189.2</ele>
        <time>2022-08-06T06:20:58Z</time>
      </trkpt>
      <trkpt lat="45.04252" lon="1.8981">
        <ele>188.7</ele>
        <time>2022-08-06T06:21:00Z</time>
      </trkpt>
      <trkpt lat="45.04256" lon="1.89799">
        <ele>189.7</ele>
        <time>2022-08-06T06:21:02Z</time>
      </trkpt>
      <trkpt lat="45.0426" lon="1.89788">
        <ele>190.5</ele>
        <time>2022-08-06T06:21:04Z</time>
      </trkpt>
      <trkpt lat="45.04264" lon="1.89779">
        <ele>190.6</ele>
        <time>2022-08-06T06:21:06Z</time>
      </trkpt>
      <trkpt lat="45.04268" lon="1.89769">
        <ele>190.8</ele>
        <time>2022-08-06T06:21:08Z</time>
      </trkpt>
      <trkpt lat="45.04271" lon="1.89759">
        <ele>191</ele>
        <time>2022-08-06T06:21:10Z</time>
      </trkpt>
      <trkpt lat="45.04275" lon="1.8975">
        <ele>190.9</ele>
        <time>2022-08-06T06:21:12Z</time>
      </trkpt>
      <trkpt lat="45.04277" lon="1.89739">
        <ele>191.8</ele>
        <time>2022-08-06T06:21:14Z</time>
      </trkpt>
      <trkpt lat="45.04279" lon="1.89728">
        <ele>192.9</ele>
        <time>2022-08-06T06:21:16Z</time>
      </trkpt>
      <trkpt lat="45.04281" lon="1.89716">
        <ele>194.2</ele>
        <time>2022-08-06T06:21:18Z</time>
      </trkpt>
      <trkpt lat="45.04282" lon="1.89704">
        <ele>195.4</ele>
        <time>2022-08-06T06:21:20Z</time>
      </trkpt>
      <trkpt lat="45.04285" lon="1.89693">
        <ele>195.9</ele>
        <time>2022-08-06T06:21:22Z</time>
      </trkpt>
      <trkpt lat="45.04287" lon="1.89682">
        <ele>196.7</ele>
        <time>2022-08-06T06:21:24Z</time>
      </trkpt>
      <trkpt lat="45.04289" lon="1.89672">
        <ele>196.7</ele>
        <time>2022-08-06T06:21:26Z</time>
      </trkpt>
      <trkpt lat="45.04292" lon="1.89661">
        <ele>197.3</ele>
        <time>2022-08-06T06:21:28Z</time>
      </trkpt>
      <trkpt lat="45.04296" lon="1.89652">
        <ele>196.2</ele>
        <time>2022-08-06T06:21:30Z</time>
      </trkpt>
      <trkpt lat="45.04299" lon="1.89641">
        <ele>196.8</ele>
        <time>2022-08-06T06:21:32Z</time>
      </trkpt>
      <trkpt lat="45.04304" lon="1.89632">
        <ele>195.1</ele>
        <time>2022-08-06T06:21:34Z</time>
      </trkpt>
      <trkpt lat="45.04309" lon="1.89623">
        <ele>193.3</ele>
        <time>2022-08-06T06:21:36Z</time>
      </trkpt>
      <trkpt lat="45.04314" lon="1.89613">
        <ele>191.1</ele>
        <time>2022-08-06T06:21:38Z</time>
      </trkpt>
      <trkpt lat="45.04319" lon="1.89604">
        <ele>189</ele>
        <time>2022-08-06T06:21:40Z</time>
      </trkpt>
      <trkpt lat="45.04325" lon="1.89593">
        <ele>186.6</ele>
        <time>2022-08-06T06:21:42Z</time>
      </trkpt>
      <trkpt lat="45.04331" lon="1.89582">
        <ele>183.6</ele>
        <time>2022-08-06T06:21:44Z</time>
      </trkpt>
      <trkpt lat="45.04336" lon="1.8957">
        <ele>184.5</ele>
        <time>2022-08-06T06:21:46Z</time>
      </trkpt>
      <trkpt lat="45.04342" lon="1.89559">
        <ele>186.2</ele>
        <time>2022-08-06T06:21:48Z</time>
      </trkpt>
      <trkpt lat="45.0435" lon="1.89547">
        <ele>187.5</ele>
        <time>2022-08-06T06:21:50Z</time>
      </trkpt>
      <trkpt lat="45.04357" lon="1.89533">
        <ele>188.4</ele>
        <time>2022-08-06T06:21:52Z</time>
      </trkpt>
      <trkpt lat="45.04364" lon="1.89519">
        <ele>188.8</ele>
        <time>2022-08-06T06:21:54Z</time>
      </trkpt>
      <trkpt lat="45.04371" lon="1.89507">
        <ele>188.1</ele>
        <time>2022-08-06T06:21:56Z</time>
      </trkpt>
      <trkpt lat="45.04378" lon="1.89494">
        <ele>187.4</ele>
        <time>2022-08-06T06:21:58Z</time>
      </trkpt>
      <trkpt lat="45.04382" lon="1.89481">
        <ele>189</ele>
        <time>2022-08-06T06:22:00Z</time>
      </trkpt>
      <trkpt lat="45.04392" lon="1.89468">
        <ele>186.4</ele>
        <time>2022-08-06T06:22:02Z</time>
      </trkpt>
      <trkpt lat="45.04399" lon="1.89456">
        <ele>185.3</ele>
        <time>2022-08-06T06:22:04Z</time>
      </trkpt>
      <trkpt lat="45.04406" lon="1.89445">
        <ele>184</ele>
        <time>2022-08-06T06:22:06Z</time>
      </trkpt>
      <trkpt lat="45.04412" lon="1.89432">
        <ele>182.8</ele>
        <time>2022-08-06T06:22:08Z</time>
      </trkpt>
      <trkpt lat="45.04418" lon="1.89419">
        <ele>182</ele>
        <time>2022-08-06T06:22:10Z</time>
      </trkpt>
      <trkpt lat="45.04425" lon="1.89408">
        <ele>183.7</ele>
        <time>2022-08-06T06:22:12Z</time>
      </trkpt>
      <trkpt lat="45.04431" lon="1.89396">
        <ele>185.6</ele>
        <time>2022-08-06T06:22:14Z</time>
      </trkpt>
      <trkpt lat="45.04438" lon="1.89385">
        <ele>186.4</ele>
        <time>2022-08-06T06:22:16Z</time>
      </trkpt>
      <trkpt lat="45.04444" lon="1.89375">
        <ele>186.8</ele>
        <time>2022-08-06T06:22:18Z</time>
      </trkpt>
      <trkpt lat="45.04449" lon="1.89364">
        <ele>186.9</ele>
        <time>2022-08-06T06:22:20Z</time>
      </trkpt>
      <trkpt lat="45.04455" lon="1.89353">
        <ele>186.6</ele>
        <time>2022-08-06T06:22:22Z</time>
      </trkpt>
      <trkpt lat="45.04461" lon="1.89343">
        <ele>185.7</ele>
        <time>2022-08-06T06:22:24Z</time>
      </trkpt>
      <trkpt lat="45.04465" lon="1.89333">
        <ele>185</ele>
        <time>2022-08-06T06:22:26Z</time>
      </trkpt>
      <trkpt lat="45.0447" lon="1.89323">
        <ele>183.3</ele>
        <time>2022-08-06T06:22:28Z</time>
      </trkpt>
      <trkpt lat="45.04476" lon="1.89314">
        <ele>181.3</ele>
        <time>2022-08-06T06:22:30Z</time>
      </trkpt>
      <trkpt lat="45.04478" lon="1.89304">
        <ele>181.1</ele>
        <time>2022-08-06T06:22:32Z</time>
      </trkpt>
      <trkpt lat="45.04481" lon="1.89294">
        <ele>180.4</ele>
        <time>2022-08-06T06:22:34Z</time>
      </trkpt>
      <trkpt lat="45.04483" lon="1.89284">
        <ele>180.4</ele>
        <time>2022-08-06T06:22:36Z</time>
      </trkpt>
      <trkpt lat="45.04484" lon="1.89274">
        <ele>180.5</ele>
        <time>2022-08-06T06:22:38Z</time>
      </trkpt>
      <trkpt lat="45.04485" lon="1.89264">
        <ele>180.7</ele>
        <time>2022-08-06T06:22:40Z</time>
      </trkpt>
      <trkpt lat="45.04485" lon="1.89255">
        <ele>181.6</ele>
        <time>2022-08-06T06:22:42Z</time>
      </trkpt>
      <trkpt lat="45.04485" lon="1.89246">
        <ele>182.1</ele>
        <time>2022-08-06T06:22:44Z</time>
      </trkpt>
      <trkpt lat="45.04486" lon="1.89238">
        <ele>181.4</ele>
        <time>2022-08-06T06:22:46Z</time>
      </trkpt>
      <trkpt lat="45.04486" lon="1.8923">
        <ele>181.5</ele>
        <time>2022-08-06T06:22:48Z</time>
      </trkpt>
      <trkpt lat="45.04487" lon="1.89222">
        <ele>181.4</ele>
        <time>2022-08-06T06:22:50Z</time>
      </trkpt>
      <trkpt lat="45.04487" lon="1.89214">
        <ele>181.1</ele>
        <time>2022-08-06T06:22:52Z</time>
      </trkpt>
      <trkpt lat="45.04487" lon="1.89207">
        <ele>181</ele>
        <time>2022-08-06T06:22:54Z</time>
      </trkpt>
      <trkpt lat="45.04487" lon="1.89199">
        <ele>181.1</ele>
        <time>2022-08-06T06:22:56Z</time>
      </trkpt>
      <trkpt lat="45.04487" lon="1.89191">
        <ele>181</ele>
        <time>2022-08-06T06:22:58Z</time>
      </trkpt>
      <trkpt lat="45.04487" lon="1.89183">
        <ele>181</ele>
        <time>2022-08-06T06:23:00Z</time>
      </trkpt>
      <trkpt lat="45.04488" lon="1.89177">
        <ele>180.9</ele>
        <time>2022-08-06T06:23:02Z</time>
      </trkpt>
      <trkpt lat="45.04488" lon="1.89169">
        <ele>180.8</ele>
        <time>2022-08-06T06:23:04Z</time>
      </trkpt>
      <trkpt lat="45.04487" lon="1.89163">
        <ele>180.9</ele>
        <time>2022-08-06T06:23:06Z</time>
      </trkpt>
      <trkpt lat="45.04487" lon="1.89156">
        <ele>180.4</ele>
        <time>2022-08-06T06:23:08Z</time>
      </trkpt>
      <trkpt lat="45.04486" lon="1.89149">
        <ele>179.9</ele>
        <time>2022-08-06T06:23:10Z</time>
      </trkpt>
      <trkpt lat="45.04486" lon="1.89141">
        <ele>179.1</ele>
        <time>2022-08-06T06:23:12Z</time>
      </trkpt>
      <trkpt lat="45.04486" lon="1.89132">
        <ele>178.1</ele>
        <time>2022-08-06T06:23:14Z</time>
      </trkpt>
      <trkpt lat="45.04486" lon="1.89123">
        <ele>177.6</ele>
        <time>2022-08-06T06:23:16Z</time>
      </trkpt>
      <trkpt lat="45.04485" lon="1.89113">
        <ele>176.7</ele>
        <time>2022-08-06T06:23:18Z</time>
      </trkpt>
      <trkpt lat="45.04485" lon="1.89103">
        <ele>175.6</ele>
        <time>2022-08-06T06:23:20Z</time>
      </trkpt>
      <trkpt lat="45.04484" lon="1.89092">
        <ele>174.7</ele>
        <time>2022-08-06T06:23:22Z</time>
      </trkpt>
      <trkpt lat="45.04484" lon="1.89082">
        <ele>173.8</ele>
        <time>2022-08-06T06:23:24Z</time>
      </trkpt>
      <trkpt lat="45.04482" lon="1.8907">
        <ele>173.6</ele>
        <time>2022-08-06T06:23:26Z</time>
      </trkpt>
      <trkpt lat="45.0448" lon="1.89067">
        <ele>173.8</ele>
        <time>2022-08-06T06:23:28Z</time>
      </trkpt>
      <trkpt lat="45.04476" lon="1.89066">
        <ele>174.5</ele>
        <time>2022-08-06T06:23:30Z</time>
      </trkpt>
      <trkpt lat="45.04472" lon="1.8907">
        <ele>175.2</ele>
        <time>2022-08-06T06:23:32Z</time>
      </trkpt>
      <trkpt lat="45.04469" lon="1.89067">
        <ele>175.6</ele>
        <time>2022-08-06T06:23:34Z</time>
      </trkpt>
      <trkpt lat="45.04471" lon="1.89052">
        <ele>174.4</ele>
        <time>2022-08-06T06:23:36Z</time>
      </trkpt>
      <trkpt lat="45.04474" lon="1.89022">
        <ele>172.3</ele>
        <time>2022-08-06T06:23:38Z</time>
      </trkpt>
      <trkpt lat="45.04474" lon="1.89004">
        <ele>171.3</ele>
        <time>2022-08-06T06:23:40Z</time>
      </trkpt>
      <trkpt lat="45.04471" lon="1.8899">
        <ele>171.1</ele>
        <time>2022-08-06T06:23:42Z</time>
      </trkpt>
      <trkpt lat="45.04471" lon="1.88964">
        <ele>170.3</ele>
        <time>2022-08-06T06:23:44Z</time>
      </trkpt>
      <trkpt lat="45.04463" lon="1.88949">
        <ele>170.8</ele>
        <time>2022-08-06T06:23:46Z</time>
      </trkpt>
      <trkpt lat="45.04455" lon="1.88932">
        <ele>171.5</ele>
        <time>2022-08-06T06:23:48Z</time>
      </trkpt>
      <trkpt lat="45.04446" lon="1.88914">
        <ele>172.3</ele>
        <time>2022-08-06T06:23:50Z</time>
      </trkpt>
      <trkpt lat="45.04436" lon="1.88897">
        <ele>172.9</ele>
        <time>2022-08-06T06:23:52Z</time>
      </trkpt>
      <trkpt lat="45.04426" lon="1.88878">
        <ele>173.3</ele>
        <time>2022-08-06T06:23:54Z</time>
      </trkpt>
      <trkpt lat="45.04416" lon="1.8886">
        <ele>173.7</ele>
        <time>2022-08-06T06:23:56Z</time>
      </trkpt>
      <trkpt lat="45.04407" lon="1.88844">
        <ele>175.1</ele>
        <time>2022-08-06T06:23:58Z</time>
      </trkpt>
      <trkpt lat="45.044" lon="1.8883">
        <ele>176.6</ele>
        <time>2022-08-06T06:24:00Z</time>
      </trkpt>
      <trkpt lat="45.04393" lon="1.88818">
        <ele>177.8</ele>
        <time>2022-08-06T06:24:02Z</time>
      </trkpt>
      <trkpt lat="45.04387" lon="1.88805">
        <ele>178.6</ele>
        <time>2022-08-06T06:24:04Z</time>
      </trkpt>
      <trkpt lat="45.04384" lon="1.88792">
        <ele>178.8</ele>
        <time>2022-08-06T06:24:06Z</time>
      </trkpt>
      <trkpt lat="45.0438" lon="1.8878">
        <ele>179.3</ele>
        <time>2022-08-06T06:24:08Z</time>
      </trkpt>
      <trkpt lat="45.04377" lon="1.88768">
        <ele>179.6</ele>
        <time>2022-08-06T06:24:10Z</time>
      </trkpt>
      <trkpt lat="45.04374" lon="1.88756">
        <ele>179.6</ele>
        <time>2022-08-06T06:24:12Z</time>
      </trkpt>
      <trkpt lat="45.04371" lon="1.88745">
        <ele>179.8</ele>
        <time>2022-08-06T06:24:14Z</time>
      </trkpt>
      <trkpt lat="45.04369" lon="1.88734">
        <ele>179.9</ele>
        <time>2022-08-06T06:24:16Z</time>
      </trkpt>
      <trkpt lat="45.04366" lon="1.88722">
        <ele>180.1</ele>
        <time>2022-08-06T06:24:18Z</time>
      </trkpt>
      <trkpt lat="45.04362" lon="1.88712">
        <ele>180.5</ele>
        <time>2022-08-06T06:24:20Z</time>
      </trkpt>
      <trkpt lat="45.0436" lon="1.887">
        <ele>180.6</ele>
        <time>2022-08-06T06:24:22Z</time>
      </trkpt>
      <trkpt lat="45.04357" lon="1.88688">
        <ele>180.6</ele>
        <time>2022-08-06T06:24:24Z</time>
      </trkpt>
      <trkpt lat="45.04354" lon="1.88676">
        <ele>180.8</ele>
        <time>2022-08-06T06:24:26Z</time>
      </trkpt>
      <trkpt lat="45.0435" lon="1.88664">
        <ele>181.1</ele>
        <time>2022-08-06T06:24:28Z</time>
      </trkpt>
      <trkpt lat="45.04346" lon="1.88654">
        <ele>181.8</ele>
        <time>2022-08-06T06:24:30Z</time>
      </trkpt>
      <trkpt lat="45.04345" lon="1.88641">
        <ele>182</ele>
        <time>2022-08-06T06:24:32Z</time>
      </trkpt>
      <trkpt lat="45.04344" lon="1.8863">
        <ele>182</ele>
        <time>2022-08-06T06:24:34Z</time>
      </trkpt>
      <trkpt lat="45.04342" lon="1.88619">
        <ele>182.4</ele>
        <time>2022-08-06T06:24:36Z</time>
      </trkpt>
      <trkpt lat="45.04342" lon="1.88608">
        <ele>182.4</ele>
        <time>2022-08-06T06:24:38Z</time>
      </trkpt>
      <trkpt lat="45.04341" lon="1.88597">
        <ele>182.2</ele>
        <time>2022-08-06T06:24:40Z</time>
      </trkpt>
      <trkpt lat="45.04341" lon="1.88587">
        <ele>182.1</ele>
        <time>2022-08-06T06:24:42Z</time>
      </trkpt>
      <trkpt lat="45.04341" lon="1.88578">
        <ele>182.4</ele>
        <time>2022-08-06T06:24:44Z</time>
      </trkpt>
      <trkpt lat="45.04341" lon="1.88567">
        <ele>183.2</ele>
        <time>2022-08-06T06:24:46Z</time>
      </trkpt>
      <trkpt lat="45.04342" lon="1.88558">
        <ele>183.6</ele>
        <time>2022-08-06T06:24:48Z</time>
      </trkpt>
      <trkpt lat="45.04343" lon="1.8855">
        <ele>183.8</ele>
        <time>2022-08-06T06:24:50Z</time>
      </trkpt>
      <trkpt lat="45.04343" lon="1.88541">
        <ele>184.3</ele>
        <time>2022-08-06T06:24:52Z</time>
      </trkpt>
      <trkpt lat="45.04344" lon="1.88532">
        <ele>184.8</ele>
        <time>2022-08-06T06:24:54Z</time>
      </trkpt>
      <trkpt lat="45.04344" lon="1.88523">
        <ele>185.2</ele>
        <time>2022-08-06T06:24:56Z</time>
      </trkpt>
      <trkpt lat="45.04344" lon="1.88514">
        <ele>185.6</ele>
        <time>2022-08-06T06:24:58Z</time>
      </trkpt>
      <trkpt lat="45.04345" lon="1.88506">
        <ele>186.1</ele>
        <time>2022-08-06T06:25:00Z</time>
      </trkpt>
      <trkpt lat="45.04347" lon="1.88497">
        <ele>185.7</ele>
        <time>2022-08-06T06:25:02Z</time>
      </trkpt>
      <trkpt lat="45.04347" lon="1.8849">
        <ele>185.7</ele>
        <time>2022-08-06T06:25:04Z</time>
      </trkpt>
      <trkpt lat="45.04346" lon="1.88482">
        <ele>185.7</ele>
        <time>2022-08-06T06:25:06Z</time>
      </trkpt>
      <trkpt lat="45.04347" lon="1.88474">
        <ele>185.5</ele>
        <time>2022-08-06T06:25:08Z</time>
      </trkpt>
      <trkpt lat="45.04347" lon="1.88466">
        <ele>185.4</ele>
        <time>2022-08-06T06:25:10Z</time>
      </trkpt>
      <trkpt lat="45.04347" lon="1.88457">
        <ele>185.1</ele>
        <time>2022-08-06T06:25:12Z</time>
      </trkpt>
      <trkpt lat="45.04349" lon="1.8845">
        <ele>184.3</ele>
        <time>2022-08-06T06:25:14Z</time>
      </trkpt>
      <trkpt lat="45.04349" lon="1.88441">
        <ele>184.2</ele>
        <time>2022-08-06T06:25:16Z</time>
      </trkpt>
      <trkpt lat="45.0435" lon="1.88432">
        <ele>183.8</ele>
        <time>2022-08-06T06:25:18Z</time>
      </trkpt>
      <trkpt lat="45.0435" lon="1.88423">
        <ele>183.8</ele>
        <time>2022-08-06T06:25:20Z</time>
      </trkpt>
      <trkpt lat="45.04351" lon="1.88412">
        <ele>183.3</ele>
        <time>2022-08-06T06:25:22Z</time>
      </trkpt>
      <trkpt lat="45.04351" lon="1.88401">
        <ele>183.8</ele>
        <time>2022-08-06T06:25:24Z</time>
      </trkpt>
      <trkpt lat="45.04352" lon="1.88389">
        <ele>183.6</ele>
        <time>2022-08-06T06:25:26Z</time>
      </trkpt>
      <trkpt lat="45.04352" lon="1.88379">
        <ele>183.9</ele>
        <time>2022-08-06T06:25:28Z</time>
      </trkpt>
      <trkpt lat="45.04354" lon="1.88369">
        <ele>183.7</ele>
        <time>2022-08-06T06:25:30Z</time>
      </trkpt>
      <trkpt lat="45.04354" lon="1.88359">
        <ele>184</ele>
        <time>2022-08-06T06:25:32Z</time>
      </trkpt>
      <trkpt lat="45.04354" lon="1.88349">
        <ele>184</ele>
        <time>2022-08-06T06:25:34Z</time>
      </trkpt>
      <trkpt lat="45.04355" lon="1.88339">
        <ele>184.1</ele>
        <time>2022-08-06T06:25:36Z</time>
      </trkpt>
      <trkpt lat="45.04355" lon="1.88328">
        <ele>184.4</ele>
        <time>2022-08-06T06:25:38Z</time>
      </trkpt>
      <trkpt lat="45.04356" lon="1.88317">
        <ele>184.8</ele>
        <time>2022-08-06T06:25:40Z</time>
      </trkpt>
      <trkpt lat="45.04356" lon="1.88307">
        <ele>185.2</ele>
        <time>2022-08-06T06:25:42Z</time>
      </trkpt>
      <trkpt lat="45.04357" lon="1.88295">
        <ele>185.5</ele>
        <time>2022-08-06T06:25:44Z</time>
      </trkpt>
      <trkpt lat="45.04357" lon="1.88285">
        <ele>185.8</ele>
        <time>2022-08-06T06:25:46Z</time>
      </trkpt>
      <trkpt lat="45.04358" lon="1.88274">
        <ele>186.1</ele>
        <time>2022-08-06T06:25:48Z</time>
      </trkpt>
      <trkpt lat="45.04359" lon="1.88263">
        <ele>186.2</ele>
        <time>2022-08-06T06:25:50Z</time>
      </trkpt>
      <trkpt lat="45.0436" lon="1.88252">
        <ele>186.5</ele>
        <time>2022-08-06T06:25:52Z</time>
      </trkpt>
      <trkpt lat="45.0436" lon="1.88241">
        <ele>187.2</ele>
        <time>2022-08-06T06:25:54Z</time>
      </trkpt>
      <trkpt lat="45.04362" lon="1.8823">
        <ele>187.2</ele>
        <time>2022-08-06T06:25:56Z</time>
      </trkpt>
      <trkpt lat="45.04363" lon="1.88218">
        <ele>187.4</ele>
        <time>2022-08-06T06:25:58Z</time>
      </trkpt>
      <trkpt lat="45.04365" lon="1.88206">
        <ele>187.1</ele>
        <time>2022-08-06T06:26:00Z</time>
      </trkpt>
      <trkpt lat="45.04367" lon="1.88194">
        <ele>187.2</ele>
        <time>2022-08-06T06:26:02Z</time>
      </trkpt>
      <trkpt lat="45.0437" lon="1.88183">
        <ele>186.5</ele>
        <time>2022-08-06T06:26:04Z</time>
      </trkpt>
      <trkpt lat="45.04372" lon="1.88171">
        <ele>186.2</ele>
        <time>2022-08-06T06:26:06Z</time>
      </trkpt>
      <trkpt lat="45.04376" lon="1.88159">
        <ele>185.9</ele>
        <time>2022-08-06T06:26:08Z</time>
      </trkpt>
      <trkpt lat="45.04379" lon="1.88146">
        <ele>185.9</ele>
        <time>2022-08-06T06:26:10Z</time>
      </trkpt>
      <trkpt lat="45.04383" lon="1.88136">
        <ele>185.3</ele>
        <time>2022-08-06T06:26:12Z</time>
      </trkpt>
      <trkpt lat="45.04385" lon="1.88124">
        <ele>186.1</ele>
        <time>2022-08-06T06:26:14Z</time>
      </trkpt>
      <trkpt lat="45.04389" lon="1.88112">
        <ele>185.7</ele>
        <time>2022-08-06T06:26:16Z</time>
      </trkpt>
      <trkpt lat="45.04392" lon="1.88099">
        <ele>185.5</ele>
        <time>2022-08-06T06:26:18Z</time>
      </trkpt>
      <trkpt lat="45.04396" lon="1.88086">
        <ele>185.3</ele>
        <time>2022-08-06T06:26:20Z</time>
      </trkpt>
      <trkpt lat="45.044" lon="1.88072">
        <ele>185.9</ele>
        <time>2022-08-06T06:26:22Z</time>
      </trkpt>
      <trkpt lat="45.04404" lon="1.88057">
        <ele>187</ele>
        <time>2022-08-06T06:26:24Z</time>
      </trkpt>
      <trkpt lat="45.04408" lon="1.88042">
        <ele>187.4</ele>
        <time>2022-08-06T06:26:26Z</time>
      </trkpt>
      <trkpt lat="45.04412" lon="1.88028">
        <ele>187.5</ele>
        <time>2022-08-06T06:26:28Z</time>
      </trkpt>
      <trkpt lat="45.04417" lon="1.88015">
        <ele>187.1</ele>
        <time>2022-08-06T06:26:30Z</time>
      </trkpt>
      <trkpt lat="45.04422" lon="1.88002">
        <ele>187.4</ele>
        <time>2022-08-06T06:26:32Z</time>
      </trkpt>
      <trkpt lat="45.04427" lon="1.87991">
        <ele>187</ele>
        <time>2022-08-06T06:26:34Z</time>
      </trkpt>
      <trkpt lat="45.04432" lon="1.87979">
        <ele>186.5</ele>
        <time>2022-08-06T06:26:36Z</time>
      </trkpt>
      <trkpt lat="45.04436" lon="1.87967">
        <ele>185.9</ele>
        <time>2022-08-06T06:26:38Z</time>
      </trkpt>
      <trkpt lat="45.0444" lon="1.87956">
        <ele>185.1</ele>
        <time>2022-08-06T06:26:40Z</time>
      </trkpt>
      <trkpt lat="45.04444" lon="1.87946">
        <ele>184.2</ele>
        <time>2022-08-06T06:26:42Z</time>
      </trkpt>
      <trkpt lat="45.04448" lon="1.87935">
        <ele>183.7</ele>
        <time>2022-08-06T06:26:44Z</time>
      </trkpt>
      <trkpt lat="45.04451" lon="1.87924">
        <ele>183.3</ele>
        <time>2022-08-06T06:26:46Z</time>
      </trkpt>
      <trkpt lat="45.04453" lon="1.87913">
        <ele>182.6</ele>
        <time>2022-08-06T06:26:48Z</time>
      </trkpt>
      <trkpt lat="45.04456" lon="1.87902">
        <ele>181.4</ele>
        <time>2022-08-06T06:26:50Z</time>
      </trkpt>
      <trkpt lat="45.04458" lon="1.8789">
        <ele>180.7</ele>
        <time>2022-08-06T06:26:52Z</time>
      </trkpt>
      <trkpt lat="45.04457" lon="1.87878">
        <ele>180.9</ele>
        <time>2022-08-06T06:26:54Z</time>
      </trkpt>
      <trkpt lat="45.04458" lon="1.87865">
        <ele>180.9</ele>
        <time>2022-08-06T06:26:56Z</time>
      </trkpt>
      <trkpt lat="45.04458" lon="1.87852">
        <ele>181.1</ele>
        <time>2022-08-06T06:26:58Z</time>
      </trkpt>
      <trkpt lat="45.04457" lon="1.8784">
        <ele>181.3</ele>
        <time>2022-08-06T06:27:00Z</time>
      </trkpt>
      <trkpt lat="45.04457" lon="1.87828">
        <ele>181.4</ele>
        <time>2022-08-06T06:27:02Z</time>
      </trkpt>
      <trkpt lat="45.04457" lon="1.87817">
        <ele>180.7</ele>
        <time>2022-08-06T06:27:04Z</time>
      </trkpt>
      <trkpt lat="45.04457" lon="1.87805">
        <ele>179.9</ele>
        <time>2022-08-06T06:27:06Z</time>
      </trkpt>
      <trkpt lat="45.04457" lon="1.87795">
        <ele>179.5</ele>
        <time>2022-08-06T06:27:08Z</time>
      </trkpt>
      <trkpt lat="45.04456" lon="1.87785">
        <ele>179.2</ele>
        <time>2022-08-06T06:27:10Z</time>
      </trkpt>
      <trkpt lat="45.04454" lon="1.87776">
        <ele>179.7</ele>
        <time>2022-08-06T06:27:12Z</time>
      </trkpt>
      <trkpt lat="45.04452" lon="1.87767">
        <ele>179.9</ele>
        <time>2022-08-06T06:27:14Z</time>
      </trkpt>
      <trkpt lat="45.04449" lon="1.87757">
        <ele>180.1</ele>
        <time>2022-08-06T06:27:16Z</time>
      </trkpt>
      <trkpt lat="45.04446" lon="1.87748">
        <ele>180.7</ele>
        <time>2022-08-06T06:27:18Z</time>
      </trkpt>
      <trkpt lat="45.04443" lon="1.87738">
        <ele>180.6</ele>
        <time>2022-08-06T06:27:20Z</time>
      </trkpt>
      <trkpt lat="45.0444" lon="1.87729">
        <ele>180.5</ele>
        <time>2022-08-06T06:27:22Z</time>
      </trkpt>
      <trkpt lat="45.04438" lon="1.87719">
        <ele>180.3</ele>
        <time>2022-08-06T06:27:24Z</time>
      </trkpt>
      <trkpt lat="45.04436" lon="1.87709">
        <ele>179.8</ele>
        <time>2022-08-06T06:27:26Z</time>
      </trkpt>
      <trkpt lat="45.04432" lon="1.87699">
        <ele>179.6</ele>
        <time>2022-08-06T06:27:28Z</time>
      </trkpt>
      <trkpt lat="45.0443" lon="1.87689">
        <ele>179.1</ele>
        <time>2022-08-06T06:27:30Z</time>
      </trkpt>
      <trkpt lat="45.04427" lon="1.8768">
        <ele>178.6</ele>
        <time>2022-08-06T06:27:32Z</time>
      </trkpt>
      <trkpt lat="45.04424" lon="1.8767">
        <ele>178</ele>
        <time>2022-08-06T06:27:34Z</time>
      </trkpt>
      <trkpt lat="45.04422" lon="1.87659">
        <ele>177.1</ele>
        <time>2022-08-06T06:27:36Z</time>
      </trkpt>
      <trkpt lat="45.0442" lon="1.87649">
        <ele>176.3</ele>
        <time>2022-08-06T06:27:38Z</time>
      </trkpt>
      <trkpt lat="45.04417" lon="1.87639">
        <ele>175.6</ele>
        <time>2022-08-06T06:27:40Z</time>
      </trkpt>
      <trkpt lat="45.04414" lon="1.87628">
        <ele>175.8</ele>
        <time>2022-08-06T06:27:42Z</time>
      </trkpt>
      <trkpt lat="45.04411" lon="1.87618">
        <ele>176.2</ele>
        <time>2022-08-06T06:27:44Z</time>
      </trkpt>
      <trkpt lat="45.04408" lon="1.87607">
        <ele>176.4</ele>
        <time>2022-08-06T06:27:46Z</time>
      </trkpt>
      <trkpt lat="45.04405" lon="1.87597">
        <ele>176.5</ele>
        <time>2022-08-06T06:27:48Z</time>
      </trkpt>
      <trkpt lat="45.04402" lon="1.87587">
        <ele>176.8</ele>
        <time>2022-08-06T06:27:50Z</time>
      </trkpt>
      <trkpt lat="45.04399" lon="1.87576">
        <ele>177.4</ele>
        <time>2022-08-06T06:27:52Z</time>
      </trkpt>
      <trkpt lat="45.04396" lon="1.87566">
        <ele>178.1</ele>
        <time>2022-08-06T06:27:54Z</time>
      </trkpt>
      <trkpt lat="45.04393" lon="1.87555">
        <ele>178.7</ele>
        <time>2022-08-06T06:27:56Z</time>
      </trkpt>
      <trkpt lat="45.0439" lon="1.87544">
        <ele>178.9</ele>
        <time>2022-08-06T06:27:58Z</time>
      </trkpt>
      <trkpt lat="45.04387" lon="1.87534">
        <ele>179.2</ele>
        <time>2022-08-06T06:28:00Z</time>
      </trkpt>
      <trkpt lat="45.04384" lon="1.87523">
        <ele>179.4</ele>
        <time>2022-08-06T06:28:02Z</time>
      </trkpt>
      <trkpt lat="45.04381" lon="1.87513">
        <ele>179.7</ele>
        <time>2022-08-06T06:28:04Z</time>
      </trkpt>
      <trkpt lat="45.04378" lon="1.87501">
        <ele>179.5</ele>
        <time>2022-08-06T06:28:06Z</time>
      </trkpt>
      <trkpt lat="45.04375" lon="1.87489">
        <ele>179.2</ele>
        <time>2022-08-06T06:28:08Z</time>
      </trkpt>
      <trkpt lat="45.04371" lon="1.87477">
        <ele>179</ele>
        <time>2022-08-06T06:28:10Z</time>
      </trkpt>
      <trkpt lat="45.04367" lon="1.87464">
        <ele>178.5</ele>
        <time>2022-08-06T06:28:12Z</time>
      </trkpt>
      <trkpt lat="45.04363" lon="1.87451">
        <ele>177.6</ele>
        <time>2022-08-06T06:28:14Z</time>
      </trkpt>
      <trkpt lat="45.0436" lon="1.87437">
        <ele>176.2</ele>
        <time>2022-08-06T06:28:16Z</time>
      </trkpt>
      <trkpt lat="45.04356" lon="1.87423">
        <ele>174.8</ele>
        <time>2022-08-06T06:28:18Z</time>
      </trkpt>
      <trkpt lat="45.04352" lon="1.87409">
        <ele>173.7</ele>
        <time>2022-08-06T06:28:20Z</time>
      </trkpt>
      <trkpt lat="45.04348" lon="1.87395">
        <ele>172.8</ele>
        <time>2022-08-06T06:28:22Z</time>
      </trkpt>
      <trkpt lat="45.04344" lon="1.87379">
        <ele>171.6</ele>
        <time>2022-08-06T06:28:24Z</time>
      </trkpt>
      <trkpt lat="45.0434" lon="1.87363">
        <ele>170.3</ele>
        <time>2022-08-06T06:28:26Z</time>
      </trkpt>
      <trkpt lat="45.04337" lon="1.87349">
        <ele>168.7</ele>
        <time>2022-08-06T06:28:28Z</time>
      </trkpt>
      <trkpt lat="45.04333" lon="1.87334">
        <ele>167.1</ele>
        <time>2022-08-06T06:28:30Z</time>
      </trkpt>
      <trkpt lat="45.04329" lon="1.87319">
        <ele>167.2</ele>
        <time>2022-08-06T06:28:32Z</time>
      </trkpt>
      <trkpt lat="45.04324" lon="1.87304">
        <ele>167.4</ele>
        <time>2022-08-06T06:28:34Z</time>
      </trkpt>
      <trkpt lat="45.04321" lon="1.8729">
        <ele>167</ele>
        <time>2022-08-06T06:28:36Z</time>
      </trkpt>
      <trkpt lat="45.04317" lon="1.87276">
        <ele>166.5</ele>
        <time>2022-08-06T06:28:38Z</time>
      </trkpt>
      <trkpt lat="45.04313" lon="1.87262">
        <ele>165.7</ele>
        <time>2022-08-06T06:28:40Z</time>
      </trkpt>
      <trkpt lat="45.04309" lon="1.87248">
        <ele>164.8</ele>
        <time>2022-08-06T06:28:42Z</time>
      </trkpt>
      <trkpt lat="45.04305" lon="1.87235">
        <ele>164.7</ele>
        <time>2022-08-06T06:28:44Z</time>
      </trkpt>
      <trkpt lat="45.04303" lon="1.87221">
        <ele>164.5</ele>
        <time>2022-08-06T06:28:46Z</time>
      </trkpt>
      <trkpt lat="45.04299" lon="1.87207">
        <ele>164.2</ele>
        <time>2022-08-06T06:28:48Z</time>
      </trkpt>
      <trkpt lat="45.04295" lon="1.87194">
        <ele>164</ele>
        <time>2022-08-06T06:28:50Z</time>
      </trkpt>
      <trkpt lat="45.04291" lon="1.87182">
        <ele>163.8</ele>
        <time>2022-08-06T06:28:52Z</time>
      </trkpt>
      <trkpt lat="45.04289" lon="1.87167">
        <ele>163.2</ele>
        <time>2022-08-06T06:28:54Z</time>
      </trkpt>
      <trkpt lat="45.04285" lon="1.87154">
        <ele>163.3</ele>
        <time>2022-08-06T06:28:56Z</time>
      </trkpt>
      <trkpt lat="45.04282" lon="1.87143">
        <ele>163.3</ele>
        <time>2022-08-06T06:28:58Z</time>
      </trkpt>
      <trkpt lat="45.04279" lon="1.87133">
        <ele>163.4</ele>
        <time>2022-08-06T06:29:00Z</time>
      </trkpt>
      <trkpt lat="45.04276" lon="1.87121">
        <ele>163.4</ele>
        <time>2022-08-06T06:29:02Z</time>
      </trkpt>
      <trkpt lat="45.04274" lon="1.8711">
        <ele>163.3</ele>
        <time>2022-08-06T06:29:04Z</time>
      </trkpt>
      <trkpt lat="45.04272" lon="1.871">
        <ele>163.2</ele>
        <time>2022-08-06T06:29:06Z</time>
      </trkpt>
      <trkpt lat="45.0427" lon="1.87089">
        <ele>163.1</ele>
        <time>2022-08-06T06:29:08Z</time>
      </trkpt>
      <trkpt lat="45.04268" lon="1.87078">
        <ele>163.3</ele>
        <time>2022-08-06T06:29:10Z</time>
      </trkpt>
      <trkpt lat="45.04267" lon="1.87066">
        <ele>163.8</ele>
        <time>2022-08-06T06:29:12Z</time>
      </trkpt>
      <trkpt lat="45.04267" lon="1.87055">
        <ele>164.2</ele>
        <time>2022-08-06T06:29:14Z</time>
      </trkpt>
      <trkpt lat="45.04266" lon="1.87043">
        <ele>164.7</ele>
        <time>2022-08-06T06:29:16Z</time>
      </trkpt>
      <trkpt lat="45.04265" lon="1.87031">
        <ele>165.2</ele>
        <time>2022-08-06T06:29:18Z</time>
      </trkpt>
      <trkpt lat="45.04265" lon="1.87019">
        <ele>165.7</ele>
        <time>2022-08-06T06:29:20Z</time>
      </trkpt>
      <trkpt lat="45.04263" lon="1.87009">
        <ele>166.2</ele>
        <time>2022-08-06T06:29:22Z</time>
      </trkpt>
      <trkpt lat="45.04264" lon="1.86997">
        <ele>166.9</ele>
        <time>2022-08-06T06:29:24Z</time>
      </trkpt>
      <trkpt lat="45.04263" lon="1.86985">
        <ele>168.8</ele>
        <time>2022-08-06T06:29:26Z</time>
      </trkpt>
      <trkpt lat="45.04262" lon="1.86973">
        <ele>170.5</ele>
        <time>2022-08-06T06:29:28Z</time>
      </trkpt>
      <trkpt lat="45.04262" lon="1.86962">
        <ele>172.2</ele>
        <time>2022-08-06T06:29:30Z</time>
      </trkpt>
      <trkpt lat="45.04261" lon="1.8695">
        <ele>174.1</ele>
        <time>2022-08-06T06:29:32Z</time>
      </trkpt>
      <trkpt lat="45.04261" lon="1.86937">
        <ele>176</ele>
        <time>2022-08-06T06:29:34Z</time>
      </trkpt>
      <trkpt lat="45.04261" lon="1.86925">
        <ele>177.7</ele>
        <time>2022-08-06T06:29:36Z</time>
      </trkpt>
      <trkpt lat="45.04263" lon="1.86913">
        <ele>179.7</ele>
        <time>2022-08-06T06:29:38Z</time>
      </trkpt>
      <trkpt lat="45.04265" lon="1.86902">
        <ele>182.4</ele>
        <time>2022-08-06T06:29:40Z</time>
      </trkpt>
      <trkpt lat="45.04271" lon="1.86893">
        <ele>183.2</ele>
        <time>2022-08-06T06:29:42Z</time>
      </trkpt>
      <trkpt lat="45.04275" lon="1.86883">
        <ele>184.8</ele>
        <time>2022-08-06T06:29:44Z</time>
      </trkpt>
      <trkpt lat="45.04281" lon="1.86873">
        <ele>185.2</ele>
        <time>2022-08-06T06:29:46Z</time>
      </trkpt>
      <trkpt lat="45.04286" lon="1.86864">
        <ele>185.6</ele>
        <time>2022-08-06T06:29:48Z</time>
      </trkpt>
      <trkpt lat="45.04291" lon="1.86855">
        <ele>185.8</ele>
        <time>2022-08-06T06:29:50Z</time>
      </trkpt>
      <trkpt lat="45.04296" lon="1.86847">
        <ele>185.4</ele>
        <time>2022-08-06T06:29:52Z</time>
      </trkpt>
      <trkpt lat="45.04301" lon="1.86838">
        <ele>184.6</ele>
        <time>2022-08-06T06:29:54Z</time>
      </trkpt>
      <trkpt lat="45.04306" lon="1.86829">
        <ele>184.5</ele>
        <time>2022-08-06T06:29:56Z</time>
      </trkpt>
      <trkpt lat="45.04312" lon="1.86821">
        <ele>184.5</ele>
        <time>2022-08-06T06:29:58Z</time>
      </trkpt>
      <trkpt lat="45.04318" lon="1.86811">
        <ele>184.7</ele>
        <time>2022-08-06T06:30:00Z</time>
      </trkpt>
      <trkpt lat="45.04324" lon="1.86802">
        <ele>184.4</ele>
        <time>2022-08-06T06:30:02Z</time>
      </trkpt>
      <trkpt lat="45.0433" lon="1.86794">
        <ele>183.9</ele>
        <time>2022-08-06T06:30:04Z</time>
      </trkpt>
      <trkpt lat="45.04337" lon="1.86785">
        <ele>184.3</ele>
        <time>2022-08-06T06:30:06Z</time>
      </trkpt>
      <trkpt lat="45.04343" lon="1.86777">
        <ele>185.5</ele>
        <time>2022-08-06T06:30:08Z</time>
      </trkpt>
      <trkpt lat="45.04349" lon="1.86769">
        <ele>186.2</ele>
        <time>2022-08-06T06:30:10Z</time>
      </trkpt>
      <trkpt lat="45.04356" lon="1.86762">
        <ele>186.5</ele>
        <time>2022-08-06T06:30:12Z</time>
      </trkpt>
      <trkpt lat="45.04362" lon="1.86754">
        <ele>187.1</ele>
        <time>2022-08-06T06:30:14Z</time>
      </trkpt>
      <trkpt lat="45.04369" lon="1.86747">
        <ele>187.1</ele>
        <time>2022-08-06T06:30:16Z</time>
      </trkpt>
      <trkpt lat="45.04377" lon="1.86742">
        <ele>187.2</ele>
        <time>2022-08-06T06:30:18Z</time>
      </trkpt>
      <trkpt lat="45.04383" lon="1.86735">
        <ele>188.7</ele>
        <time>2022-08-06T06:30:20Z</time>
      </trkpt>
      <trkpt lat="45.04391" lon="1.86729">
        <ele>188.7</ele>
        <time>2022-08-06T06:30:22Z</time>
      </trkpt>
      <trkpt lat="45.04398" lon="1.86723">
        <ele>189</ele>
        <time>2022-08-06T06:30:24Z</time>
      </trkpt>
      <trkpt lat="45.04406" lon="1.86718">
        <ele>188.5</ele>
        <time>2022-08-06T06:30:26Z</time>
      </trkpt>
      <trkpt lat="45.04414" lon="1.86713">
        <ele>188.2</ele>
        <time>2022-08-06T06:30:28Z</time>
      </trkpt>
      <trkpt lat="45.04423" lon="1.86705">
        <ele>189.3</ele>
        <time>2022-08-06T06:30:30Z</time>
      </trkpt>
      <trkpt lat="45.04431" lon="1.867">
        <ele>189.6</ele>
        <time>2022-08-06T06:30:32Z</time>
      </trkpt>
      <trkpt lat="45.04441" lon="1.86696">
        <ele>188.8</ele>
        <time>2022-08-06T06:30:34Z</time>
      </trkpt>
      <trkpt lat="45.04451" lon="1.86697">
        <ele>186.3</ele>
        <time>2022-08-06T06:30:36Z</time>
      </trkpt>
      <trkpt lat="45.04458" lon="1.86693">
        <ele>186.1</ele>
        <time>2022-08-06T06:30:38Z</time>
      </trkpt>
      <trkpt lat="45.04467" lon="1.8669">
        <ele>185.3</ele>
        <time>2022-08-06T06:30:40Z</time>
      </trkpt>
      <trkpt lat="45.04476" lon="1.86686">
        <ele>184.4</ele>
        <time>2022-08-06T06:30:42Z</time>
      </trkpt>
      <trkpt lat="45.04485" lon="1.86682">
        <ele>183.3</ele>
        <time>2022-08-06T06:30:44Z</time>
      </trkpt>
      <trkpt lat="45.04495" lon="1.86678">
        <ele>182.2</ele>
        <time>2022-08-06T06:30:46Z</time>
      </trkpt>
      <trkpt lat="45.04505" lon="1.86674">
        <ele>181.1</ele>
        <time>2022-08-06T06:30:48Z</time>
      </trkpt>
      <trkpt lat="45.04514" lon="1.8667">
        <ele>179.9</ele>
        <time>2022-08-06T06:30:50Z</time>
      </trkpt>
      <trkpt lat="45.04524" lon="1.86665">
        <ele>178.9</ele>
        <time>2022-08-06T06:30:52Z</time>
      </trkpt>
      <trkpt lat="45.04534" lon="1.86658">
        <ele>178.6</ele>
        <time>2022-08-06T06:30:54Z</time>
      </trkpt>
      <trkpt lat="45.04542" lon="1.86649">
        <ele>178.9</ele>
        <time>2022-08-06T06:30:56Z</time>
      </trkpt>
      <trkpt lat="45.04552" lon="1.86642">
        <ele>177.9</ele>
        <time>2022-08-06T06:30:58Z</time>
      </trkpt>
      <trkpt lat="45.04562" lon="1.86633">
        <ele>176.7</ele>
        <time>2022-08-06T06:31:00Z</time>
      </trkpt>
      <trkpt lat="45.0457" lon="1.86623">
        <ele>175.5</ele>
        <time>2022-08-06T06:31:02Z</time>
      </trkpt>
      <trkpt lat="45.04578" lon="1.86613">
        <ele>174.1</ele>
        <time>2022-08-06T06:31:04Z</time>
      </trkpt>
      <trkpt lat="45.04586" lon="1.86603">
        <ele>172.9</ele>
        <time>2022-08-06T06:31:06Z</time>
      </trkpt>
      <trkpt lat="45.04595" lon="1.86596">
        <ele>172.2</ele>
        <time>2022-08-06T06:31:08Z</time>
      </trkpt>
      <trkpt lat="45.046" lon="1.86584">
        <ele>172.6</ele>
        <time>2022-08-06T06:31:10Z</time>
      </trkpt>
      <trkpt lat="45.04604" lon="1.86571">
        <ele>171.5</ele>
        <time>2022-08-06T06:31:12Z</time>
      </trkpt>
      <trkpt lat="45.04606" lon="1.86559">
        <ele>170.7</ele>
        <time>2022-08-06T06:31:14Z</time>
      </trkpt>
      <trkpt lat="45.04609" lon="1.86548">
        <ele>170</ele>
        <time>2022-08-06T06:31:16Z</time>
      </trkpt>
      <trkpt lat="45.0461" lon="1.86537">
        <ele>169.4</ele>
        <time>2022-08-06T06:31:18Z</time>
      </trkpt>
      <trkpt lat="45.04612" lon="1.86527">
        <ele>168.8</ele>
        <time>2022-08-06T06:31:20Z</time>
      </trkpt>
      <trkpt lat="45.04614" lon="1.86518">
        <ele>168.2</ele>
        <time>2022-08-06T06:31:22Z</time>
      </trkpt>
      <trkpt lat="45.04616" lon="1.8651">
        <ele>167.6</ele>
        <time>2022-08-06T06:31:24Z</time>
      </trkpt>
      <trkpt lat="45.04617" lon="1.86502">
        <ele>167.1</ele>
        <time>2022-08-06T06:31:26Z</time>
      </trkpt>
      <trkpt lat="45.04618" lon="1.8651">
        <ele>167.3</ele>
        <time>2022-08-06T06:31:28Z</time>
      </trkpt>
      <trkpt lat="45.04618" lon="1.8651">
        <ele>167.3</ele>
        <time>2022-08-06T06:31:30Z</time>
      </trkpt>
      <trkpt lat="45.04618" lon="1.8651">
        <ele>167.2</ele>
        <time>2022-08-06T06:31:34Z</time>
      </trkpt>
      <trkpt lat="45.04618" lon="1.8651">
        <ele>167.1</ele>
        <time>2022-08-06T06:31:36Z</time>
      </trkpt>
      <trkpt lat="45.04619" lon="1.86489">
        <ele>166.4</ele>
        <time>2022-08-06T06:32:44Z</time>
      </trkpt>
      <trkpt lat="45.0462" lon="1.86482">
        <ele>165.9</ele>
        <time>2022-08-06T06:32:46Z</time>
      </trkpt>
      <trkpt lat="45.04622" lon="1.86474">
        <ele>165.4</ele>
        <time>2022-08-06T06:32:48Z</time>
      </trkpt>
      <trkpt lat="45.04623" lon="1.86465">
        <ele>165</ele>
        <time>2022-08-06T06:32:50Z</time>
      </trkpt>
      <trkpt lat="45.04624" lon="1.86457">
        <ele>164.6</ele>
        <time>2022-08-06T06:32:52Z</time>
      </trkpt>
      <trkpt lat="45.04626" lon="1.86448">
        <ele>164.1</ele>
        <time>2022-08-06T06:32:54Z</time>
      </trkpt>
      <trkpt lat="45.04627" lon="1.86439">
        <ele>163.7</ele>
        <time>2022-08-06T06:32:56Z</time>
      </trkpt>
      <trkpt lat="45.04629" lon="1.86429">
        <ele>163.3</ele>
        <time>2022-08-06T06:32:58Z</time>
      </trkpt>
      <trkpt lat="45.0463" lon="1.8642">
        <ele>163</ele>
        <time>2022-08-06T06:33:00Z</time>
      </trkpt>
      <trkpt lat="45.0463" lon="1.8641">
        <ele>162.9</ele>
        <time>2022-08-06T06:33:02Z</time>
      </trkpt>
      <trkpt lat="45.0463" lon="1.864">
        <ele>163</ele>
        <time>2022-08-06T06:33:04Z</time>
      </trkpt>
      <trkpt lat="45.0463" lon="1.8639">
        <ele>163</ele>
        <time>2022-08-06T06:33:06Z</time>
      </trkpt>
      <trkpt lat="45.04629" lon="1.86379">
        <ele>163.2</ele>
        <time>2022-08-06T06:33:08Z</time>
      </trkpt>
      <trkpt lat="45.04627" lon="1.86368">
        <ele>163.6</ele>
        <time>2022-08-06T06:33:10Z</time>
      </trkpt>
      <trkpt lat="45.04623" lon="1.86358">
        <ele>164</ele>
        <time>2022-08-06T06:33:12Z</time>
      </trkpt>
      <trkpt lat="45.04619" lon="1.86346">
        <ele>164.6</ele>
        <time>2022-08-06T06:33:14Z</time>
      </trkpt>
      <trkpt lat="45.04613" lon="1.86335">
        <ele>165.2</ele>
        <time>2022-08-06T06:33:16Z</time>
      </trkpt>
      <trkpt lat="45.04606" lon="1.86326">
        <ele>165.5</ele>
        <time>2022-08-06T06:33:18Z</time>
      </trkpt>
      <trkpt lat="45.04598" lon="1.86317">
        <ele>165.7</ele>
        <time>2022-08-06T06:33:20Z</time>
      </trkpt>
      <trkpt lat="45.0459" lon="1.86308">
        <ele>165.9</ele>
        <time>2022-08-06T06:33:22Z</time>
      </trkpt>
      <trkpt lat="45.04581" lon="1.863">
        <ele>166.2</ele>
        <time>2022-08-06T06:33:24Z</time>
      </trkpt>
      <trkpt lat="45.04571" lon="1.86294">
        <ele>166.4</ele>
        <time>2022-08-06T06:33:26Z</time>
      </trkpt>
      <trkpt lat="45.04563" lon="1.86288">
        <ele>166.6</ele>
        <time>2022-08-06T06:33:28Z</time>
      </trkpt>
      <trkpt lat="45.04555" lon="1.86282">
        <ele>166.8</ele>
        <time>2022-08-06T06:33:30Z</time>
      </trkpt>
      <trkpt lat="45.04547" lon="1.86276">
        <ele>166.9</ele>
        <time>2022-08-06T06:33:32Z</time>
      </trkpt>
      <trkpt lat="45.04538" lon="1.86269">
        <ele>167</ele>
        <time>2022-08-06T06:33:34Z</time>
      </trkpt>
      <trkpt lat="45.0453" lon="1.86264">
        <ele>167.2</ele>
        <time>2022-08-06T06:33:36Z</time>
      </trkpt>
      <trkpt lat="45.04521" lon="1.86258">
        <ele>167.3</ele>
        <time>2022-08-06T06:33:38Z</time>
      </trkpt>
      <trkpt lat="45.04513" lon="1.86251">
        <ele>167.3</ele>
        <time>2022-08-06T06:33:40Z</time>
      </trkpt>
      <trkpt lat="45.04505" lon="1.86245">
        <ele>167.3</ele>
        <time>2022-08-06T06:33:42Z</time>
      </trkpt>
      <trkpt lat="45.04496" lon="1.86239">
        <ele>167</ele>
        <time>2022-08-06T06:33:44Z</time>
      </trkpt>
      <trkpt lat="45.04489" lon="1.86233">
        <ele>166.7</ele>
        <time>2022-08-06T06:33:46Z</time>
      </trkpt>
      <trkpt lat="45.04481" lon="1.86228">
        <ele>166.3</ele>
        <time>2022-08-06T06:33:48Z</time>
      </trkpt>
      <trkpt lat="45.04473" lon="1.86222">
        <ele>166</ele>
        <time>2022-08-06T06:33:50Z</time>
      </trkpt>
      <trkpt lat="45.04465" lon="1.86216">
        <ele>165.6</ele>
        <time>2022-08-06T06:33:52Z</time>
      </trkpt>
      <trkpt lat="45.04456" lon="1.8621">
        <ele>165.2</ele>
        <time>2022-08-06T06:33:54Z</time>
      </trkpt>
      <trkpt lat="45.04448" lon="1.86204">
        <ele>164.8</ele>
        <time>2022-08-06T06:33:56Z</time>
      </trkpt>
      <trkpt lat="45.0444" lon="1.86198">
        <ele>164.4</ele>
        <time>2022-08-06T06:33:58Z</time>
      </trkpt>
      <trkpt lat="45.04432" lon="1.86192">
        <ele>164.1</ele>
        <time>2022-08-06T06:34:00Z</time>
      </trkpt>
      <trkpt lat="45.04424" lon="1.86187">
        <ele>163.8</ele>
        <time>2022-08-06T06:34:02Z</time>
      </trkpt>
      <trkpt lat="45.04417" lon="1.8618">
        <ele>163.3</ele>
        <time>2022-08-06T06:34:04Z</time>
      </trkpt>
      <trkpt lat="45.04408" lon="1.86175">
        <ele>163.4</ele>
        <time>2022-08-06T06:34:06Z</time>
      </trkpt>
      <trkpt lat="45.04401" lon="1.86169">
        <ele>163.4</ele>
        <time>2022-08-06T06:34:08Z</time>
      </trkpt>
      <trkpt lat="45.04393" lon="1.86164">
        <ele>163.5</ele>
        <time>2022-08-06T06:34:10Z</time>
      </trkpt>
      <trkpt lat="45.04385" lon="1.86159">
        <ele>163.5</ele>
        <time>2022-08-06T06:34:12Z</time>
      </trkpt>
      <trkpt lat="45.04377" lon="1.86153">
        <ele>163.5</ele>
        <time>2022-08-06T06:34:14Z</time>
      </trkpt>
      <trkpt lat="45.04369" lon="1.86147">
        <ele>163.3</ele>
        <time>2022-08-06T06:34:16Z</time>
      </trkpt>
      <trkpt lat="45.04361" lon="1.86142">
        <ele>163.1</ele>
        <time>2022-08-06T06:34:18Z</time>
      </trkpt>
      <trkpt lat="45.04353" lon="1.86137">
        <ele>162.9</ele>
        <time>2022-08-06T06:34:20Z</time>
      </trkpt>
      <trkpt lat="45.04345" lon="1.86132">
        <ele>162.5</ele>
        <time>2022-08-06T06:34:22Z</time>
      </trkpt>
      <trkpt lat="45.04337" lon="1.86126">
        <ele>162.1</ele>
        <time>2022-08-06T06:34:24Z</time>
      </trkpt>
      <trkpt lat="45.04329" lon="1.86122">
        <ele>162.8</ele>
        <time>2022-08-06T06:34:26Z</time>
      </trkpt>
      <trkpt lat="45.0432" lon="1.86117">
        <ele>164.1</ele>
        <time>2022-08-06T06:34:28Z</time>
      </trkpt>
      <trkpt lat="45.04312" lon="1.86112">
        <ele>165.5</ele>
        <time>2022-08-06T06:34:30Z</time>
      </trkpt>
      <trkpt lat="45.04303" lon="1.86107">
        <ele>166.8</ele>
        <time>2022-08-06T06:34:32Z</time>
      </trkpt>
      <trkpt lat="45.04294" lon="1.86102">
        <ele>168.1</ele>
        <time>2022-08-06T06:34:34Z</time>
      </trkpt>
      <trkpt lat="45.04285" lon="1.86096">
        <ele>169.2</ele>
        <time>2022-08-06T06:34:36Z</time>
      </trkpt>
      <trkpt lat="45.04275" lon="1.86091">
        <ele>170.4</ele>
        <time>2022-08-06T06:34:38Z</time>
      </trkpt>
      <trkpt lat="45.04266" lon="1.86086">
        <ele>171.2</ele>
        <time>2022-08-06T06:34:40Z</time>
      </trkpt>
      <trkpt lat="45.04256" lon="1.8608">
        <ele>172.2</ele>
        <time>2022-08-06T06:34:42Z</time>
      </trkpt>
      <trkpt lat="45.04247" lon="1.86074">
        <ele>173.9</ele>
        <time>2022-08-06T06:34:44Z</time>
      </trkpt>
      <trkpt lat="45.04238" lon="1.86065">
        <ele>176.7</ele>
        <time>2022-08-06T06:34:46Z</time>
      </trkpt>
      <trkpt lat="45.04229" lon="1.86056">
        <ele>179.2</ele>
        <time>2022-08-06T06:34:48Z</time>
      </trkpt>
      <trkpt lat="45.04222" lon="1.86048">
        <ele>180.9</ele>
        <time>2022-08-06T06:34:50Z</time>
      </trkpt>
      <trkpt lat="45.04215" lon="1.86037">
        <ele>181.1</ele>
        <time>2022-08-06T06:34:52Z</time>
      </trkpt>
      <trkpt lat="45.04211" lon="1.86025">
        <ele>180.1</ele>
        <time>2022-08-06T06:34:54Z</time>
      </trkpt>
      <trkpt lat="45.04202" lon="1.86016">
        <ele>181.1</ele>
        <time>2022-08-06T06:34:56Z</time>
      </trkpt>
      <trkpt lat="45.04195" lon="1.86004">
        <ele>180.3</ele>
        <time>2022-08-06T06:34:58Z</time>
      </trkpt>
      <trkpt lat="45.04188" lon="1.85993">
        <ele>180.2</ele>
        <time>2022-08-06T06:35:00Z</time>
      </trkpt>
      <trkpt lat="45.04183" lon="1.8598">
        <ele>179.7</ele>
        <time>2022-08-06T06:35:02Z</time>
      </trkpt>
      <trkpt lat="45.04175" lon="1.8597">
        <ele>179.7</ele>
        <time>2022-08-06T06:35:04Z</time>
      </trkpt>
      <trkpt lat="45.0417" lon="1.85959">
        <ele>178.4</ele>
        <time>2022-08-06T06:35:06Z</time>
      </trkpt>
      <trkpt lat="45.04163" lon="1.85947">
        <ele>178.5</ele>
        <time>2022-08-06T06:35:08Z</time>
      </trkpt>
      <trkpt lat="45.04156" lon="1.85935">
        <ele>179.6</ele>
        <time>2022-08-06T06:35:10Z</time>
      </trkpt>
      <trkpt lat="45.04152" lon="1.85922">
        <ele>179.2</ele>
        <time>2022-08-06T06:35:12Z</time>
      </trkpt>
      <trkpt lat="45.04144" lon="1.85911">
        <ele>182</ele>
        <time>2022-08-06T06:35:14Z</time>
      </trkpt>
      <trkpt lat="45.04137" lon="1.85898">
        <ele>184.3</ele>
        <time>2022-08-06T06:35:16Z</time>
      </trkpt>
      <trkpt lat="45.04133" lon="1.85886">
        <ele>184.8</ele>
        <time>2022-08-06T06:35:18Z</time>
      </trkpt>
      <trkpt lat="45.04128" lon="1.85873">
        <ele>185.7</ele>
        <time>2022-08-06T06:35:20Z</time>
      </trkpt>
      <trkpt lat="45.04125" lon="1.85859">
        <ele>184.8</ele>
        <time>2022-08-06T06:35:22Z</time>
      </trkpt>
      <trkpt lat="45.04123" lon="1.85845">
        <ele>183.6</ele>
        <time>2022-08-06T06:35:24Z</time>
      </trkpt>
      <trkpt lat="45.04118" lon="1.85831">
        <ele>183.5</ele>
        <time>2022-08-06T06:35:26Z</time>
      </trkpt>
      <trkpt lat="45.04115" lon="1.85817">
        <ele>183.7</ele>
        <time>2022-08-06T06:35:28Z</time>
      </trkpt>
      <trkpt lat="45.04111" lon="1.85803">
        <ele>183.8</ele>
        <time>2022-08-06T06:35:30Z</time>
      </trkpt>
      <trkpt lat="45.04107" lon="1.8579">
        <ele>184.1</ele>
        <time>2022-08-06T06:35:32Z</time>
      </trkpt>
      <trkpt lat="45.04103" lon="1.85777">
        <ele>184</ele>
        <time>2022-08-06T06:35:34Z</time>
      </trkpt>
      <trkpt lat="45.04101" lon="1.85765">
        <ele>183.4</ele>
        <time>2022-08-06T06:35:36Z</time>
      </trkpt>
      <trkpt lat="45.04099" lon="1.85751">
        <ele>182.5</ele>
        <time>2022-08-06T06:35:38Z</time>
      </trkpt>
      <trkpt lat="45.04096" lon="1.85738">
        <ele>181.8</ele>
        <time>2022-08-06T06:35:40Z</time>
      </trkpt>
      <trkpt lat="45.04094" lon="1.85726">
        <ele>180.7</ele>
        <time>2022-08-06T06:35:42Z</time>
      </trkpt>
      <trkpt lat="45.04091" lon="1.85714">
        <ele>179.8</ele>
        <time>2022-08-06T06:35:44Z</time>
      </trkpt>
      <trkpt lat="45.0409" lon="1.857">
        <ele>178.4</ele>
        <time>2022-08-06T06:35:46Z</time>
      </trkpt>
      <trkpt lat="45.04087" lon="1.8569">
        <ele>177.7</ele>
        <time>2022-08-06T06:35:48Z</time>
      </trkpt>
      <trkpt lat="45.04085" lon="1.85679">
        <ele>176.6</ele>
        <time>2022-08-06T06:35:50Z</time>
      </trkpt>
      <trkpt lat="45.04083" lon="1.85669">
        <ele>175.8</ele>
        <time>2022-08-06T06:35:52Z</time>
      </trkpt>
      <trkpt lat="45.0408" lon="1.85658">
        <ele>176.2</ele>
        <time>2022-08-06T06:35:54Z</time>
      </trkpt>
      <trkpt lat="45.04078" lon="1.85646">
        <ele>176.6</ele>
        <time>2022-08-06T06:35:56Z</time>
      </trkpt>
      <trkpt lat="45.04075" lon="1.85633">
        <ele>177.5</ele>
        <time>2022-08-06T06:35:58Z</time>
      </trkpt>
      <trkpt lat="45.04072" lon="1.85621">
        <ele>178.1</ele>
        <time>2022-08-06T06:36:00Z</time>
      </trkpt>
      <trkpt lat="45.04068" lon="1.8561">
        <ele>179.6</ele>
        <time>2022-08-06T06:36:02Z</time>
      </trkpt>
      <trkpt lat="45.04066" lon="1.85598">
        <ele>180</ele>
        <time>2022-08-06T06:36:04Z</time>
      </trkpt>
      <trkpt lat="45.04064" lon="1.85586">
        <ele>180.2</ele>
        <time>2022-08-06T06:36:06Z</time>
      </trkpt>
      <trkpt lat="45.04061" lon="1.85572">
        <ele>180</ele>
        <time>2022-08-06T06:36:08Z</time>
      </trkpt>
      <trkpt lat="45.04057" lon="1.85559">
        <ele>180.6</ele>
        <time>2022-08-06T06:36:10Z</time>
      </trkpt>
      <trkpt lat="45.04055" lon="1.85545">
        <ele>180</ele>
        <time>2022-08-06T06:36:12Z</time>
      </trkpt>
      <trkpt lat="45.04052" lon="1.85532">
        <ele>179.5</ele>
        <time>2022-08-06T06:36:14Z</time>
      </trkpt>
      <trkpt lat="45.0405" lon="1.85519">
        <ele>178.2</ele>
        <time>2022-08-06T06:36:16Z</time>
      </trkpt>
      <trkpt lat="45.04046" lon="1.85507">
        <ele>177.9</ele>
        <time>2022-08-06T06:36:18Z</time>
      </trkpt>
      <trkpt lat="45.0404" lon="1.85493">
        <ele>178.2</ele>
        <time>2022-08-06T06:36:20Z</time>
      </trkpt>
      <trkpt lat="45.04036" lon="1.85482">
        <ele>178.1</ele>
        <time>2022-08-06T06:36:22Z</time>
      </trkpt>
      <trkpt lat="45.0403" lon="1.85471">
        <ele>178.5</ele>
        <time>2022-08-06T06:36:24Z</time>
      </trkpt>
      <trkpt lat="45.04026" lon="1.8546">
        <ele>178.1</ele>
        <time>2022-08-06T06:36:26Z</time>
      </trkpt>
      <trkpt lat="45.0402" lon="1.85451">
        <ele>178.1</ele>
        <time>2022-08-06T06:36:28Z</time>
      </trkpt>
      <trkpt lat="45.04015" lon="1.85442">
        <ele>177.7</ele>
        <time>2022-08-06T06:36:30Z</time>
      </trkpt>
      <trkpt lat="45.0401" lon="1.85434">
        <ele>177.4</ele>
        <time>2022-08-06T06:36:32Z</time>
      </trkpt>
      <trkpt lat="45.04006" lon="1.85425">
        <ele>176.4</ele>
        <time>2022-08-06T06:36:34Z</time>
      </trkpt>
      <trkpt lat="45.04001" lon="1.85415">
        <ele>175.5</ele>
        <time>2022-08-06T06:36:36Z</time>
      </trkpt>
      <trkpt lat="45.03999" lon="1.85407">
        <ele>175.5</ele>
        <time>2022-08-06T06:36:38Z</time>
      </trkpt>
      <trkpt lat="45.03996" lon="1.854">
        <ele>175.9</ele>
        <time>2022-08-06T06:36:40Z</time>
      </trkpt>
      <trkpt lat="45.03991" lon="1.8539">
        <ele>176.5</ele>
        <time>2022-08-06T06:36:42Z</time>
      </trkpt>
      <trkpt lat="45.03989" lon="1.8538">
        <ele>176.4</ele>
        <time>2022-08-06T06:36:44Z</time>
      </trkpt>
      <trkpt lat="45.03984" lon="1.85372">
        <ele>177</ele>
        <time>2022-08-06T06:36:46Z</time>
      </trkpt>
      <trkpt lat="45.03981" lon="1.85362">
        <ele>176.7</ele>
        <time>2022-08-06T06:36:48Z</time>
      </trkpt>
      <trkpt lat="45.03977" lon="1.85354">
        <ele>177.3</ele>
        <time>2022-08-06T06:36:50Z</time>
      </trkpt>
      <trkpt lat="45.03971" lon="1.85347">
        <ele>177.9</ele>
        <time>2022-08-06T06:36:52Z</time>
      </trkpt>
      <trkpt lat="45.03967" lon="1.85338">
        <ele>177.9</ele>
        <time>2022-08-06T06:36:54Z</time>
      </trkpt>
      <trkpt lat="45.03963" lon="1.8533">
        <ele>178.2</ele>
        <time>2022-08-06T06:36:56Z</time>
      </trkpt>
      <trkpt lat="45.03958" lon="1.85322">
        <ele>178.6</ele>
        <time>2022-08-06T06:36:58Z</time>
      </trkpt>
      <trkpt lat="45.03954" lon="1.8531">
        <ele>178.4</ele>
        <time>2022-08-06T06:37:00Z</time>
      </trkpt>
      <trkpt lat="45.03953" lon="1.85299">
        <ele>177.5</ele>
        <time>2022-08-06T06:37:02Z</time>
      </trkpt>
      <trkpt lat="45.03949" lon="1.85289">
        <ele>177.3</ele>
        <time>2022-08-06T06:37:04Z</time>
      </trkpt>
      <trkpt lat="45.03944" lon="1.85278">
        <ele>177.2</ele>
        <time>2022-08-06T06:37:06Z</time>
      </trkpt>
      <trkpt lat="45.03941" lon="1.85269">
        <ele>176.6</ele>
        <time>2022-08-06T06:37:08Z</time>
      </trkpt>
      <trkpt lat="45.03936" lon="1.8526">
        <ele>176.7</ele>
        <time>2022-08-06T06:37:10Z</time>
      </trkpt>
      <trkpt lat="45.03932" lon="1.85252">
        <ele>176.6</ele>
        <time>2022-08-06T06:37:12Z</time>
      </trkpt>
      <trkpt lat="45.03928" lon="1.85244">
        <ele>176.4</ele>
        <time>2022-08-06T06:37:14Z</time>
      </trkpt>
      <trkpt lat="45.03924" lon="1.85234">
        <ele>175.7</ele>
        <time>2022-08-06T06:37:16Z</time>
      </trkpt>
      <trkpt lat="45.0392" lon="1.85226">
        <ele>175.3</ele>
        <time>2022-08-06T06:37:18Z</time>
      </trkpt>
      <trkpt lat="45.03915" lon="1.85217">
        <ele>175.3</ele>
        <time>2022-08-06T06:37:20Z</time>
      </trkpt>
      <trkpt lat="45.03909" lon="1.85207">
        <ele>175.9</ele>
        <time>2022-08-06T06:37:22Z</time>
      </trkpt>
      <trkpt lat="45.03903" lon="1.852">
        <ele>176.7</ele>
        <time>2022-08-06T06:37:24Z</time>
      </trkpt>
      <trkpt lat="45.03897" lon="1.8519">
        <ele>177.2</ele>
        <time>2022-08-06T06:37:26Z</time>
      </trkpt>
      <trkpt lat="45.03891" lon="1.85181">
        <ele>177.2</ele>
        <time>2022-08-06T06:37:28Z</time>
      </trkpt>
      <trkpt lat="45.03887" lon="1.85175">
        <ele>177.6</ele>
        <time>2022-08-06T06:37:30Z</time>
      </trkpt>
      <trkpt lat="45.03883" lon="1.85168">
        <ele>177.7</ele>
        <time>2022-08-06T06:37:32Z</time>
      </trkpt>
      <trkpt lat="45.03878" lon="1.85161">
        <ele>178.2</ele>
        <time>2022-08-06T06:37:34Z</time>
      </trkpt>
      <trkpt lat="45.03875" lon="1.85157">
        <ele>178.6</ele>
        <time>2022-08-06T06:37:36Z</time>
      </trkpt>
      <trkpt lat="45.03871" lon="1.8515">
        <ele>179</ele>
        <time>2022-08-06T06:37:38Z</time>
      </trkpt>
      <trkpt lat="45.03865" lon="1.85143">
        <ele>179.7</ele>
        <time>2022-08-06T06:37:40Z</time>
      </trkpt>
      <trkpt lat="45.0386" lon="1.85137">
        <ele>180.1</ele>
        <time>2022-08-06T06:37:42Z</time>
      </trkpt>
      <trkpt lat="45.03856" lon="1.8513">
        <ele>180.1</ele>
        <time>2022-08-06T06:37:44Z</time>
      </trkpt>
      <trkpt lat="45.03852" lon="1.85124">
        <ele>180.2</ele>
        <time>2022-08-06T06:37:46Z</time>
      </trkpt>
      <trkpt lat="45.03848" lon="1.85118">
        <ele>180.2</ele>
        <time>2022-08-06T06:37:48Z</time>
      </trkpt>
      <trkpt lat="45.03844" lon="1.85111">
        <ele>179.8</ele>
        <time>2022-08-06T06:37:50Z</time>
      </trkpt>
      <trkpt lat="45.03839" lon="1.85104">
        <ele>179.8</ele>
        <time>2022-08-06T06:37:52Z</time>
      </trkpt>
      <trkpt lat="45.03835" lon="1.85099">
        <ele>179.8</ele>
        <time>2022-08-06T06:37:54Z</time>
      </trkpt>
      <trkpt lat="45.03831" lon="1.85093">
        <ele>180.4</ele>
        <time>2022-08-06T06:37:56Z</time>
      </trkpt>
      <trkpt lat="45.03827" lon="1.85086">
        <ele>180.9</ele>
        <time>2022-08-06T06:37:58Z</time>
      </trkpt>
      <trkpt lat="45.03822" lon="1.85078">
        <ele>182.1</ele>
        <time>2022-08-06T06:38:00Z</time>
      </trkpt>
      <trkpt lat="45.03818" lon="1.85071">
        <ele>183.5</ele>
        <time>2022-08-06T06:38:02Z</time>
      </trkpt>
      <trkpt lat="45.03814" lon="1.85063">
        <ele>184.5</ele>
        <time>2022-08-06T06:38:04Z</time>
      </trkpt>
      <trkpt lat="45.03811" lon="1.85055">
        <ele>184.9</ele>
        <time>2022-08-06T06:38:06Z</time>
      </trkpt>
      <trkpt lat="45.03806" lon="1.85047">
        <ele>186.2</ele>
        <time>2022-08-06T06:38:08Z</time>
      </trkpt>
      <trkpt lat="45.03802" lon="1.85037">
        <ele>186.9</ele>
        <time>2022-08-06T06:38:10Z</time>
      </trkpt>
      <trkpt lat="45.03798" lon="1.85027">
        <ele>187</ele>
        <time>2022-08-06T06:38:12Z</time>
      </trkpt>
      <trkpt lat="45.03795" lon="1.85018">
        <ele>187.2</ele>
        <time>2022-08-06T06:38:14Z</time>
      </trkpt>
      <trkpt lat="45.03792" lon="1.85009">
        <ele>187.2</ele>
        <time>2022-08-06T06:38:16Z</time>
      </trkpt>
      <trkpt lat="45.03789" lon="1.84999">
        <ele>187.2</ele>
        <time>2022-08-06T06:38:18Z</time>
      </trkpt>
      <trkpt lat="45.03786" lon="1.84988">
        <ele>187.7</ele>
        <time>2022-08-06T06:38:20Z</time>
      </trkpt>
      <trkpt lat="45.03782" lon="1.84976">
        <ele>188.3</ele>
        <time>2022-08-06T06:38:22Z</time>
      </trkpt>
      <trkpt lat="45.03779" lon="1.84964">
        <ele>188.3</ele>
        <time>2022-08-06T06:38:24Z</time>
      </trkpt>
      <trkpt lat="45.03777" lon="1.84951">
        <ele>187.8</ele>
        <time>2022-08-06T06:38:26Z</time>
      </trkpt>
      <trkpt lat="45.03774" lon="1.84937">
        <ele>187.4</ele>
        <time>2022-08-06T06:38:28Z</time>
      </trkpt>
      <trkpt lat="45.03773" lon="1.84922">
        <ele>186.4</ele>
        <time>2022-08-06T06:38:30Z</time>
      </trkpt>
      <trkpt lat="45.0377" lon="1.84907">
        <ele>185.5</ele>
        <time>2022-08-06T06:38:32Z</time>
      </trkpt>
      <trkpt lat="45.03768" lon="1.84895">
        <ele>184.8</ele>
        <time>2022-08-06T06:38:34Z</time>
      </trkpt>
      <trkpt lat="45.03765" lon="1.84882">
        <ele>183.9</ele>
        <time>2022-08-06T06:38:36Z</time>
      </trkpt>
      <trkpt lat="45.03763" lon="1.8487">
        <ele>183.1</ele>
        <time>2022-08-06T06:38:38Z</time>
      </trkpt>
      <trkpt lat="45.0376" lon="1.84856">
        <ele>182</ele>
        <time>2022-08-06T06:38:40Z</time>
      </trkpt>
      <trkpt lat="45.03756" lon="1.84842">
        <ele>181</ele>
        <time>2022-08-06T06:38:42Z</time>
      </trkpt>
      <trkpt lat="45.03753" lon="1.84828">
        <ele>179.6</ele>
        <time>2022-08-06T06:38:44Z</time>
      </trkpt>
      <trkpt lat="45.0375" lon="1.84813">
        <ele>178</ele>
        <time>2022-08-06T06:38:46Z</time>
      </trkpt>
      <trkpt lat="45.03747" lon="1.84798">
        <ele>177.3</ele>
        <time>2022-08-06T06:38:48Z</time>
      </trkpt>
      <trkpt lat="45.03745" lon="1.84784">
        <ele>176.5</ele>
        <time>2022-08-06T06:38:50Z</time>
      </trkpt>
      <trkpt lat="45.03743" lon="1.8477">
        <ele>175.5</ele>
        <time>2022-08-06T06:38:52Z</time>
      </trkpt>
      <trkpt lat="45.03739" lon="1.84757">
        <ele>175</ele>
        <time>2022-08-06T06:38:54Z</time>
      </trkpt>
      <trkpt lat="45.03733" lon="1.84743">
        <ele>175.9</ele>
        <time>2022-08-06T06:38:56Z</time>
      </trkpt>
      <trkpt lat="45.03728" lon="1.84728">
        <ele>176.2</ele>
        <time>2022-08-06T06:38:58Z</time>
      </trkpt>
      <trkpt lat="45.03725" lon="1.84712">
        <ele>175.3</ele>
        <time>2022-08-06T06:39:00Z</time>
      </trkpt>
      <trkpt lat="45.03721" lon="1.84699">
        <ele>174.6</ele>
        <time>2022-08-06T06:39:02Z</time>
      </trkpt>
      <trkpt lat="45.03715" lon="1.84685">
        <ele>173.8</ele>
        <time>2022-08-06T06:39:04Z</time>
      </trkpt>
      <trkpt lat="45.03711" lon="1.84671">
        <ele>172.2</ele>
        <time>2022-08-06T06:39:06Z</time>
      </trkpt>
      <trkpt lat="45.03707" lon="1.84658">
        <ele>171.3</ele>
        <time>2022-08-06T06:39:08Z</time>
      </trkpt>
      <trkpt lat="45.03704" lon="1.84643">
        <ele>170.4</ele>
        <time>2022-08-06T06:39:10Z</time>
      </trkpt>
      <trkpt lat="45.037" lon="1.8463">
        <ele>169.7</ele>
        <time>2022-08-06T06:39:12Z</time>
      </trkpt>
      <trkpt lat="45.03695" lon="1.84617">
        <ele>168.7</ele>
        <time>2022-08-06T06:39:14Z</time>
      </trkpt>
      <trkpt lat="45.03689" lon="1.84605">
        <ele>167.8</ele>
        <time>2022-08-06T06:39:16Z</time>
      </trkpt>
      <trkpt lat="45.03682" lon="1.84593">
        <ele>166.8</ele>
        <time>2022-08-06T06:39:18Z</time>
      </trkpt>
      <trkpt lat="45.03675" lon="1.84584">
        <ele>165.8</ele>
        <time>2022-08-06T06:39:20Z</time>
      </trkpt>
      <trkpt lat="45.03668" lon="1.84575">
        <ele>165.8</ele>
        <time>2022-08-06T06:39:22Z</time>
      </trkpt>
      <trkpt lat="45.0366" lon="1.84567">
        <ele>165.9</ele>
        <time>2022-08-06T06:39:24Z</time>
      </trkpt>
      <trkpt lat="45.03653" lon="1.8456">
        <ele>166.1</ele>
        <time>2022-08-06T06:39:26Z</time>
      </trkpt>
      <trkpt lat="45.03646" lon="1.84554">
        <ele>166.2</ele>
        <time>2022-08-06T06:39:28Z</time>
      </trkpt>
      <trkpt lat="45.03639" lon="1.84549">
        <ele>166.3</ele>
        <time>2022-08-06T06:39:30Z</time>
      </trkpt>
      <trkpt lat="45.03631" lon="1.84546">
        <ele>166.5</ele>
        <time>2022-08-06T06:39:32Z</time>
      </trkpt>
      <trkpt lat="45.03623" lon="1.84545">
        <ele>166.7</ele>
        <time>2022-08-06T06:39:34Z</time>
      </trkpt>
      <trkpt lat="45.03614" lon="1.84543">
        <ele>167</ele>
        <time>2022-08-06T06:39:36Z</time>
      </trkpt>
      <trkpt lat="45.03605" lon="1.84541">
        <ele>167.2</ele>
        <time>2022-08-06T06:39:38Z</time>
      </trkpt>
      <trkpt lat="45.03597" lon="1.8454">
        <ele>167.4</ele>
        <time>2022-08-06T06:39:40Z</time>
      </trkpt>
      <trkpt lat="45.03589" lon="1.84541">
        <ele>167.8</ele>
        <time>2022-08-06T06:39:42Z</time>
      </trkpt>
      <trkpt lat="45.03581" lon="1.84541">
        <ele>167.9</ele>
        <time>2022-08-06T06:39:44Z</time>
      </trkpt>
      <trkpt lat="45.03573" lon="1.8454">
        <ele>167.6</ele>
        <time>2022-08-06T06:39:46Z</time>
      </trkpt>
      <trkpt lat="45.03565" lon="1.84539">
        <ele>167.2</ele>
        <time>2022-08-06T06:39:48Z</time>
      </trkpt>
      <trkpt lat="45.03556" lon="1.84538">
        <ele>166.9</ele>
        <time>2022-08-06T06:39:50Z</time>
      </trkpt>
      <trkpt lat="45.03549" lon="1.84537">
        <ele>166.6</ele>
        <time>2022-08-06T06:39:52Z</time>
      </trkpt>
      <trkpt lat="45.03541" lon="1.84537">
        <ele>166.3</ele>
        <time>2022-08-06T06:39:54Z</time>
      </trkpt>
      <trkpt lat="45.03532" lon="1.84536">
        <ele>165.9</ele>
        <time>2022-08-06T06:39:56Z</time>
      </trkpt>
      <trkpt lat="45.03524" lon="1.84535">
        <ele>165.6</ele>
        <time>2022-08-06T06:39:58Z</time>
      </trkpt>
      <trkpt lat="45.03516" lon="1.84535">
        <ele>165.3</ele>
        <time>2022-08-06T06:40:00Z</time>
      </trkpt>
      <trkpt lat="45.03507" lon="1.84534">
        <ele>164.9</ele>
        <time>2022-08-06T06:40:02Z</time>
      </trkpt>
      <trkpt lat="45.03499" lon="1.84533">
        <ele>164.5</ele>
        <time>2022-08-06T06:40:04Z</time>
      </trkpt>
      <trkpt lat="45.03489" lon="1.84533">
        <ele>163.7</ele>
        <time>2022-08-06T06:40:06Z</time>
      </trkpt>
      <trkpt lat="45.03479" lon="1.84534">
        <ele>163.1</ele>
        <time>2022-08-06T06:40:08Z</time>
      </trkpt>
      <trkpt lat="45.03468" lon="1.84536">
        <ele>162.5</ele>
        <time>2022-08-06T06:40:10Z</time>
      </trkpt>
      <trkpt lat="45.03455" lon="1.8454">
        <ele>161.8</ele>
        <time>2022-08-06T06:40:12Z</time>
      </trkpt>
      <trkpt lat="45.0344" lon="1.84544">
        <ele>161</ele>
        <time>2022-08-06T06:40:14Z</time>
      </trkpt>
      <trkpt lat="45.03426" lon="1.84548">
        <ele>160.2</ele>
        <time>2022-08-06T06:40:16Z</time>
      </trkpt>
      <trkpt lat="45.0341" lon="1.84553">
        <ele>159.4</ele>
        <time>2022-08-06T06:40:18Z</time>
      </trkpt>
      <trkpt lat="45.03394" lon="1.84558">
        <ele>158.8</ele>
        <time>2022-08-06T06:40:20Z</time>
      </trkpt>
      <trkpt lat="45.0338" lon="1.84567">
        <ele>158.4</ele>
        <time>2022-08-06T06:40:22Z</time>
      </trkpt>
      <trkpt lat="45.03368" lon="1.8458">
        <ele>158.3</ele>
        <time>2022-08-06T06:40:24Z</time>
      </trkpt>
      <trkpt lat="45.03358" lon="1.84593">
        <ele>158.8</ele>
        <time>2022-08-06T06:40:26Z</time>
      </trkpt>
      <trkpt lat="45.03348" lon="1.84606">
        <ele>159.6</ele>
        <time>2022-08-06T06:40:28Z</time>
      </trkpt>
      <trkpt lat="45.03341" lon="1.84619">
        <ele>160.4</ele>
        <time>2022-08-06T06:40:30Z</time>
      </trkpt>
      <trkpt lat="45.03334" lon="1.8463">
        <ele>161.1</ele>
        <time>2022-08-06T06:40:32Z</time>
      </trkpt>
      <trkpt lat="45.03325" lon="1.84643">
        <ele>161.7</ele>
        <time>2022-08-06T06:40:34Z</time>
      </trkpt>
      <trkpt lat="45.03318" lon="1.84653">
        <ele>162.1</ele>
        <time>2022-08-06T06:40:36Z</time>
      </trkpt>
      <trkpt lat="45.03312" lon="1.84662">
        <ele>162.3</ele>
        <time>2022-08-06T06:40:38Z</time>
      </trkpt>
      <trkpt lat="45.03306" lon="1.84671">
        <ele>162.2</ele>
        <time>2022-08-06T06:40:40Z</time>
      </trkpt>
      <trkpt lat="45.03301" lon="1.84679">
        <ele>162.1</ele>
        <time>2022-08-06T06:40:42Z</time>
      </trkpt>
      <trkpt lat="45.03296" lon="1.84687">
        <ele>161.9</ele>
        <time>2022-08-06T06:40:44Z</time>
      </trkpt>
      <trkpt lat="45.03291" lon="1.84694">
        <ele>161.7</ele>
        <time>2022-08-06T06:40:46Z</time>
      </trkpt>
      <trkpt lat="45.03287" lon="1.84701">
        <ele>161.7</ele>
        <time>2022-08-06T06:40:48Z</time>
      </trkpt>
      <trkpt lat="45.03283" lon="1.84709">
        <ele>161.6</ele>
        <time>2022-08-06T06:40:50Z</time>
      </trkpt>
      <trkpt lat="45.03278" lon="1.84717">
        <ele>161.5</ele>
        <time>2022-08-06T06:40:52Z</time>
      </trkpt>
      <trkpt lat="45.03274" lon="1.84724">
        <ele>161.3</ele>
        <time>2022-08-06T06:40:54Z</time>
      </trkpt>
      <trkpt lat="45.03269" lon="1.8473">
        <ele>161.1</ele>
        <time>2022-08-06T06:40:56Z</time>
      </trkpt>
      <trkpt lat="45.03265" lon="1.84736">
        <ele>161</ele>
        <time>2022-08-06T06:40:58Z</time>
      </trkpt>
      <trkpt lat="45.03261" lon="1.84742">
        <ele>160.8</ele>
        <time>2022-08-06T06:41:00Z</time>
      </trkpt>
      <trkpt lat="45.03256" lon="1.84749">
        <ele>160.6</ele>
        <time>2022-08-06T06:41:02Z</time>
      </trkpt>
      <trkpt lat="45.03251" lon="1.84756">
        <ele>160.6</ele>
        <time>2022-08-06T06:41:04Z</time>
      </trkpt>
      <trkpt lat="45.03246" lon="1.84762">
        <ele>160.9</ele>
        <time>2022-08-06T06:41:06Z</time>
      </trkpt>
      <trkpt lat="45.0324" lon="1.84769">
        <ele>161</ele>
        <time>2022-08-06T06:41:08Z</time>
      </trkpt>
      <trkpt lat="45.03233" lon="1.84776">
        <ele>161.1</ele>
        <time>2022-08-06T06:41:10Z</time>
      </trkpt>
      <trkpt lat="45.03227" lon="1.84783">
        <ele>161.1</ele>
        <time>2022-08-06T06:41:12Z</time>
      </trkpt>
      <trkpt lat="45.03221" lon="1.84789">
        <ele>161.1</ele>
        <time>2022-08-06T06:41:14Z</time>
      </trkpt>
      <trkpt lat="45.03216" lon="1.84795">
        <ele>161</ele>
        <time>2022-08-06T06:41:16Z</time>
      </trkpt>
      <trkpt lat="45.03211" lon="1.84802">
        <ele>160.9</ele>
        <time>2022-08-06T06:41:18Z</time>
      </trkpt>
      <trkpt lat="45.03206" lon="1.84809">
        <ele>160.8</ele>
        <time>2022-08-06T06:41:20Z</time>
      </trkpt>
      <trkpt lat="45.03202" lon="1.84816">
        <ele>160.8</ele>
        <time>2022-08-06T06:41:22Z</time>
      </trkpt>
      <trkpt lat="45.03197" lon="1.84824">
        <ele>160.5</ele>
        <time>2022-08-06T06:41:24Z</time>
      </trkpt>
      <trkpt lat="45.03191" lon="1.84832">
        <ele>160.2</ele>
        <time>2022-08-06T06:41:26Z</time>
      </trkpt>
      <trkpt lat="45.03187" lon="1.8484">
        <ele>160.3</ele>
        <time>2022-08-06T06:41:28Z</time>
      </trkpt>
      <trkpt lat="45.0318" lon="1.84848">
        <ele>160.1</ele>
        <time>2022-08-06T06:41:30Z</time>
      </trkpt>
      <trkpt lat="45.03175" lon="1.84856">
        <ele>160.1</ele>
        <time>2022-08-06T06:41:32Z</time>
      </trkpt>
      <trkpt lat="45.0317" lon="1.84865">
        <ele>160.2</ele>
        <time>2022-08-06T06:41:34Z</time>
      </trkpt>
      <trkpt lat="45.03164" lon="1.84873">
        <ele>160.3</ele>
        <time>2022-08-06T06:41:36Z</time>
      </trkpt>
      <trkpt lat="45.03159" lon="1.84882">
        <ele>160.7</ele>
        <time>2022-08-06T06:41:38Z</time>
      </trkpt>
      <trkpt lat="45.03152" lon="1.84891">
        <ele>161</ele>
        <time>2022-08-06T06:41:40Z</time>
      </trkpt>
      <trkpt lat="45.03147" lon="1.849">
        <ele>161.3</ele>
        <time>2022-08-06T06:41:42Z</time>
      </trkpt>
      <trkpt lat="45.03141" lon="1.8491">
        <ele>161.4</ele>
        <time>2022-08-06T06:41:44Z</time>
      </trkpt>
      <trkpt lat="45.03135" lon="1.84919">
        <ele>161.6</ele>
        <time>2022-08-06T06:41:46Z</time>
      </trkpt>
      <trkpt lat="45.03129" lon="1.84928">
        <ele>162.3</ele>
        <time>2022-08-06T06:41:48Z</time>
      </trkpt>
      <trkpt lat="45.03123" lon="1.84937">
        <ele>163</ele>
        <time>2022-08-06T06:41:50Z</time>
      </trkpt>
      <trkpt lat="45.03118" lon="1.84946">
        <ele>163.6</ele>
        <time>2022-08-06T06:41:52Z</time>
      </trkpt>
      <trkpt lat="45.03112" lon="1.84955">
        <ele>164.1</ele>
        <time>2022-08-06T06:41:54Z</time>
      </trkpt>
      <trkpt lat="45.03106" lon="1.84964">
        <ele>164.4</ele>
        <time>2022-08-06T06:41:56Z</time>
      </trkpt>
      <trkpt lat="45.03101" lon="1.84973">
        <ele>164.7</ele>
        <time>2022-08-06T06:41:58Z</time>
      </trkpt>
      <trkpt lat="45.03096" lon="1.84981">
        <ele>164.9</ele>
        <time>2022-08-06T06:42:00Z</time>
      </trkpt>
      <trkpt lat="45.0309" lon="1.8499">
        <ele>165</ele>
        <time>2022-08-06T06:42:02Z</time>
      </trkpt>
      <trkpt lat="45.03084" lon="1.84998">
        <ele>164.9</ele>
        <time>2022-08-06T06:42:04Z</time>
      </trkpt>
      <trkpt lat="45.03078" lon="1.85006">
        <ele>166.3</ele>
        <time>2022-08-06T06:42:06Z</time>
      </trkpt>
      <trkpt lat="45.03072" lon="1.85013">
        <ele>167.6</ele>
        <time>2022-08-06T06:42:08Z</time>
      </trkpt>
      <trkpt lat="45.03066" lon="1.8502">
        <ele>169</ele>
        <time>2022-08-06T06:42:10Z</time>
      </trkpt>
      <trkpt lat="45.03059" lon="1.85027">
        <ele>169.9</ele>
        <time>2022-08-06T06:42:12Z</time>
      </trkpt>
      <trkpt lat="45.03053" lon="1.85034">
        <ele>170.7</ele>
        <time>2022-08-06T06:42:14Z</time>
      </trkpt>
      <trkpt lat="45.03047" lon="1.8504">
        <ele>171.2</ele>
        <time>2022-08-06T06:42:16Z</time>
      </trkpt>
      <trkpt lat="45.03041" lon="1.85047">
        <ele>171.8</ele>
        <time>2022-08-06T06:42:18Z</time>
      </trkpt>
      <trkpt lat="45.03034" lon="1.85053">
        <ele>172</ele>
        <time>2022-08-06T06:42:20Z</time>
      </trkpt>
      <trkpt lat="45.03029" lon="1.85059">
        <ele>172.2</ele>
        <time>2022-08-06T06:42:22Z</time>
      </trkpt>
      <trkpt lat="45.03023" lon="1.85064">
        <ele>172</ele>
        <time>2022-08-06T06:42:24Z</time>
      </trkpt>
      <trkpt lat="45.03017" lon="1.8507">
        <ele>171.8</ele>
        <time>2022-08-06T06:42:26Z</time>
      </trkpt>
      <trkpt lat="45.03011" lon="1.85076">
        <ele>171.5</ele>
        <time>2022-08-06T06:42:28Z</time>
      </trkpt>
      <trkpt lat="45.03005" lon="1.85081">
        <ele>170.9</ele>
        <time>2022-08-06T06:42:30Z</time>
      </trkpt>
      <trkpt lat="45.02999" lon="1.85086">
        <ele>170.9</ele>
        <time>2022-08-06T06:42:32Z</time>
      </trkpt>
      <trkpt lat="45.02992" lon="1.8509">
        <ele>171.8</ele>
        <time>2022-08-06T06:42:34Z</time>
      </trkpt>
      <trkpt lat="45.02985" lon="1.85096">
        <ele>173.1</ele>
        <time>2022-08-06T06:42:36Z</time>
      </trkpt>
      <trkpt lat="45.02977" lon="1.85101">
        <ele>174</ele>
        <time>2022-08-06T06:42:38Z</time>
      </trkpt>
      <trkpt lat="45.02969" lon="1.85106">
        <ele>174.9</ele>
        <time>2022-08-06T06:42:40Z</time>
      </trkpt>
      <trkpt lat="45.0296" lon="1.85112">
        <ele>176</ele>
        <time>2022-08-06T06:42:42Z</time>
      </trkpt>
      <trkpt lat="45.02951" lon="1.85119">
        <ele>177.3</ele>
        <time>2022-08-06T06:42:44Z</time>
      </trkpt>
      <trkpt lat="45.02943" lon="1.85124">
        <ele>177.7</ele>
        <time>2022-08-06T06:42:46Z</time>
      </trkpt>
      <trkpt lat="45.02934" lon="1.85129">
        <ele>178.2</ele>
        <time>2022-08-06T06:42:48Z</time>
      </trkpt>
      <trkpt lat="45.02924" lon="1.85133">
        <ele>178.2</ele>
        <time>2022-08-06T06:42:50Z</time>
      </trkpt>
      <trkpt lat="45.02915" lon="1.85136">
        <ele>178.1</ele>
        <time>2022-08-06T06:42:52Z</time>
      </trkpt>
      <trkpt lat="45.02906" lon="1.85139">
        <ele>178.5</ele>
        <time>2022-08-06T06:42:54Z</time>
      </trkpt>
      <trkpt lat="45.02897" lon="1.85141">
        <ele>178.5</ele>
        <time>2022-08-06T06:42:56Z</time>
      </trkpt>
      <trkpt lat="45.02888" lon="1.85143">
        <ele>178.6</ele>
        <time>2022-08-06T06:42:58Z</time>
      </trkpt>
      <trkpt lat="45.02879" lon="1.85145">
        <ele>178.8</ele>
        <time>2022-08-06T06:43:00Z</time>
      </trkpt>
      <trkpt lat="45.0287" lon="1.85147">
        <ele>178.9</ele>
        <time>2022-08-06T06:43:02Z</time>
      </trkpt>
      <trkpt lat="45.02861" lon="1.8515">
        <ele>179.5</ele>
        <time>2022-08-06T06:43:04Z</time>
      </trkpt>
      <trkpt lat="45.02852" lon="1.85152">
        <ele>179.5</ele>
        <time>2022-08-06T06:43:06Z</time>
      </trkpt>
      <trkpt lat="45.02841" lon="1.85155">
        <ele>179.8</ele>
        <time>2022-08-06T06:43:08Z</time>
      </trkpt>
      <trkpt lat="45.02831" lon="1.85153">
        <ele>179.1</ele>
        <time>2022-08-06T06:43:10Z</time>
      </trkpt>
      <trkpt lat="45.02821" lon="1.85152">
        <ele>179.8</ele>
        <time>2022-08-06T06:43:12Z</time>
      </trkpt>
      <trkpt lat="45.02811" lon="1.85147">
        <ele>179.1</ele>
        <time>2022-08-06T06:43:14Z</time>
      </trkpt>
      <trkpt lat="45.02801" lon="1.85141">
        <ele>178.4</ele>
        <time>2022-08-06T06:43:16Z</time>
      </trkpt>
      <trkpt lat="45.02792" lon="1.85136">
        <ele>177.8</ele>
        <time>2022-08-06T06:43:18Z</time>
      </trkpt>
      <trkpt lat="45.02782" lon="1.85131">
        <ele>177.1</ele>
        <time>2022-08-06T06:43:20Z</time>
      </trkpt>
      <trkpt lat="45.02772" lon="1.85125">
        <ele>176.3</ele>
        <time>2022-08-06T06:43:22Z</time>
      </trkpt>
      <trkpt lat="45.02762" lon="1.8512">
        <ele>175.8</ele>
        <time>2022-08-06T06:43:24Z</time>
      </trkpt>
      <trkpt lat="45.02753" lon="1.85114">
        <ele>174.8</ele>
        <time>2022-08-06T06:43:26Z</time>
      </trkpt>
      <trkpt lat="45.02743" lon="1.8511">
        <ele>174.6</ele>
        <time>2022-08-06T06:43:28Z</time>
      </trkpt>
      <trkpt lat="45.02732" lon="1.85102">
        <ele>173.4</ele>
        <time>2022-08-06T06:43:30Z</time>
      </trkpt>
      <trkpt lat="45.02722" lon="1.85096">
        <ele>172.9</ele>
        <time>2022-08-06T06:43:32Z</time>
      </trkpt>
      <trkpt lat="45.02712" lon="1.8509">
        <ele>172.4</ele>
        <time>2022-08-06T06:43:34Z</time>
      </trkpt>
      <trkpt lat="45.02702" lon="1.85083">
        <ele>171.8</ele>
        <time>2022-08-06T06:43:36Z</time>
      </trkpt>
      <trkpt lat="45.02692" lon="1.85078">
        <ele>172</ele>
        <time>2022-08-06T06:43:38Z</time>
      </trkpt>
      <trkpt lat="45.02683" lon="1.85073">
        <ele>172.4</ele>
        <time>2022-08-06T06:43:40Z</time>
      </trkpt>
      <trkpt lat="45.02674" lon="1.85069">
        <ele>172.5</ele>
        <time>2022-08-06T06:43:42Z</time>
      </trkpt>
      <trkpt lat="45.02666" lon="1.85062">
        <ele>172.4</ele>
        <time>2022-08-06T06:43:44Z</time>
      </trkpt>
      <trkpt lat="45.02657" lon="1.85054">
        <ele>174.2</ele>
        <time>2022-08-06T06:43:46Z</time>
      </trkpt>
      <trkpt lat="45.02649" lon="1.85047">
        <ele>175.5</ele>
        <time>2022-08-06T06:43:48Z</time>
      </trkpt>
      <trkpt lat="45.02642" lon="1.85037">
        <ele>176.1</ele>
        <time>2022-08-06T06:43:50Z</time>
      </trkpt>
      <trkpt lat="45.02635" lon="1.85027">
        <ele>176.4</ele>
        <time>2022-08-06T06:43:52Z</time>
      </trkpt>
      <trkpt lat="45.02629" lon="1.85018">
        <ele>176.6</ele>
        <time>2022-08-06T06:43:54Z</time>
      </trkpt>
      <trkpt lat="45.02621" lon="1.85005">
        <ele>176.4</ele>
        <time>2022-08-06T06:43:56Z</time>
      </trkpt>
      <trkpt lat="45.02614" lon="1.84992">
        <ele>176</ele>
        <time>2022-08-06T06:43:58Z</time>
      </trkpt>
      <trkpt lat="45.02606" lon="1.84978">
        <ele>175</ele>
        <time>2022-08-06T06:44:00Z</time>
      </trkpt>
      <trkpt lat="45.02598" lon="1.84964">
        <ele>173.8</ele>
        <time>2022-08-06T06:44:02Z</time>
      </trkpt>
      <trkpt lat="45.02589" lon="1.84951">
        <ele>172.3</ele>
        <time>2022-08-06T06:44:04Z</time>
      </trkpt>
      <trkpt lat="45.02581" lon="1.84936">
        <ele>170.7</ele>
        <time>2022-08-06T06:44:06Z</time>
      </trkpt>
      <trkpt lat="45.02573" lon="1.84924">
        <ele>171.6</ele>
        <time>2022-08-06T06:44:08Z</time>
      </trkpt>
      <trkpt lat="45.02565" lon="1.84913">
        <ele>172.9</ele>
        <time>2022-08-06T06:44:10Z</time>
      </trkpt>
      <trkpt lat="45.02557" lon="1.849">
        <ele>174.4</ele>
        <time>2022-08-06T06:44:12Z</time>
      </trkpt>
      <trkpt lat="45.02548" lon="1.8489">
        <ele>176.7</ele>
        <time>2022-08-06T06:44:14Z</time>
      </trkpt>
      <trkpt lat="45.02538" lon="1.84882">
        <ele>179.4</ele>
        <time>2022-08-06T06:44:16Z</time>
      </trkpt>
      <trkpt lat="45.02528" lon="1.84877">
        <ele>181.9</ele>
        <time>2022-08-06T06:44:18Z</time>
      </trkpt>
      <trkpt lat="45.02522" lon="1.84871">
        <ele>183.1</ele>
        <time>2022-08-06T06:44:20Z</time>
      </trkpt>
      <trkpt lat="45.02515" lon="1.84864">
        <ele>183.5</ele>
        <time>2022-08-06T06:44:22Z</time>
      </trkpt>
      <trkpt lat="45.0251" lon="1.84856">
        <ele>183.2</ele>
        <time>2022-08-06T06:44:24Z</time>
      </trkpt>
      <trkpt lat="45.02503" lon="1.84849">
        <ele>183</ele>
        <time>2022-08-06T06:44:26Z</time>
      </trkpt>
      <trkpt lat="45.02498" lon="1.84842">
        <ele>182.8</ele>
        <time>2022-08-06T06:44:28Z</time>
      </trkpt>
      <trkpt lat="45.02493" lon="1.84834">
        <ele>182.6</ele>
        <time>2022-08-06T06:44:30Z</time>
      </trkpt>
      <trkpt lat="45.02487" lon="1.84827">
        <ele>183.6</ele>
        <time>2022-08-06T06:44:32Z</time>
      </trkpt>
      <trkpt lat="45.02482" lon="1.8482">
        <ele>184.5</ele>
        <time>2022-08-06T06:44:34Z</time>
      </trkpt>
      <trkpt lat="45.02477" lon="1.84813">
        <ele>184.9</ele>
        <time>2022-08-06T06:44:36Z</time>
      </trkpt>
      <trkpt lat="45.02472" lon="1.84802">
        <ele>184.4</ele>
        <time>2022-08-06T06:44:38Z</time>
      </trkpt>
      <trkpt lat="45.02468" lon="1.84791">
        <ele>183</ele>
        <time>2022-08-06T06:44:40Z</time>
      </trkpt>
      <trkpt lat="45.02465" lon="1.84781">
        <ele>181.5</ele>
        <time>2022-08-06T06:44:42Z</time>
      </trkpt>
      <trkpt lat="45.0246" lon="1.84772">
        <ele>180.9</ele>
        <time>2022-08-06T06:44:44Z</time>
      </trkpt>
      <trkpt lat="45.02453" lon="1.84767">
        <ele>181.7</ele>
        <time>2022-08-06T06:44:46Z</time>
      </trkpt>
      <trkpt lat="45.02447" lon="1.8476">
        <ele>181.6</ele>
        <time>2022-08-06T06:44:48Z</time>
      </trkpt>
      <trkpt lat="45.02441" lon="1.84753">
        <ele>181.3</ele>
        <time>2022-08-06T06:44:50Z</time>
      </trkpt>
      <trkpt lat="45.02433" lon="1.84746">
        <ele>182</ele>
        <time>2022-08-06T06:44:52Z</time>
      </trkpt>
      <trkpt lat="45.02426" lon="1.84739">
        <ele>182.1</ele>
        <time>2022-08-06T06:44:54Z</time>
      </trkpt>
      <trkpt lat="45.0242" lon="1.8473">
        <ele>181.7</ele>
        <time>2022-08-06T06:44:56Z</time>
      </trkpt>
      <trkpt lat="45.0241" lon="1.84724">
        <ele>185.8</ele>
        <time>2022-08-06T06:44:58Z</time>
      </trkpt>
      <trkpt lat="45.02403" lon="1.84717">
        <ele>187.8</ele>
        <time>2022-08-06T06:45:00Z</time>
      </trkpt>
      <trkpt lat="45.02398" lon="1.84708">
        <ele>189.6</ele>
        <time>2022-08-06T06:45:02Z</time>
      </trkpt>
      <trkpt lat="45.02391" lon="1.847">
        <ele>192</ele>
        <time>2022-08-06T06:45:04Z</time>
      </trkpt>
      <trkpt lat="45.02386" lon="1.84687">
        <ele>193</ele>
        <time>2022-08-06T06:45:06Z</time>
      </trkpt>
      <trkpt lat="45.0238" lon="1.84674">
        <ele>194.1</ele>
        <time>2022-08-06T06:45:08Z</time>
      </trkpt>
      <trkpt lat="45.02377" lon="1.8466">
        <ele>193.8</ele>
        <time>2022-08-06T06:45:10Z</time>
      </trkpt>
      <trkpt lat="45.02372" lon="1.84647">
        <ele>195</ele>
        <time>2022-08-06T06:45:12Z</time>
      </trkpt>
      <trkpt lat="45.02368" lon="1.84634">
        <ele>195.4</ele>
        <time>2022-08-06T06:45:14Z</time>
      </trkpt>
      <trkpt lat="45.02366" lon="1.84625">
        <ele>195.3</ele>
        <time>2022-08-06T06:45:16Z</time>
      </trkpt>
      <trkpt lat="45.02365" lon="1.84616">
        <ele>194.3</ele>
        <time>2022-08-06T06:45:18Z</time>
      </trkpt>
      <trkpt lat="45.02365" lon="1.84615">
        <ele>194.2</ele>
        <time>2022-08-06T06:45:20Z</time>
      </trkpt>
      <trkpt lat="45.02365" lon="1.84616">
        <ele>194.5</ele>
        <time>2022-08-06T06:45:22Z</time>
      </trkpt>
      <trkpt lat="45.02364" lon="1.84616">
        <ele>194.5</ele>
        <time>2022-08-06T06:45:24Z</time>
      </trkpt>
      <trkpt lat="45.02364" lon="1.84616">
        <ele>194.6</ele>
        <time>2022-08-06T06:45:26Z</time>
      </trkpt>
      <trkpt lat="45.02364" lon="1.84616">
        <ele>195</ele>
        <time>2022-08-06T06:45:28Z</time>
      </trkpt>
      <trkpt lat="45.02349" lon="1.84597">
        <ele>200.1</ele>
        <time>2022-08-06T06:47:34Z</time>
      </trkpt>
      <trkpt lat="45.02347" lon="1.8459">
        <ele>199.3</ele>
        <time>2022-08-06T06:47:36Z</time>
      </trkpt>
      <trkpt lat="45.02345" lon="1.84581">
        <ele>198.7</ele>
        <time>2022-08-06T06:47:38Z</time>
      </trkpt>
      <trkpt lat="45.02344" lon="1.84573">
        <ele>197.7</ele>
        <time>2022-08-06T06:47:40Z</time>
      </trkpt>
      <trkpt lat="45.02343" lon="1.84564">
        <ele>196.6</ele>
        <time>2022-08-06T06:47:42Z</time>
      </trkpt>
      <trkpt lat="45.02343" lon="1.84557">
        <ele>195.6</ele>
        <time>2022-08-06T06:47:44Z</time>
      </trkpt>
      <trkpt lat="45.02341" lon="1.84549">
        <ele>195</ele>
        <time>2022-08-06T06:47:46Z</time>
      </trkpt>
      <trkpt lat="45.02341" lon="1.84542">
        <ele>193.9</ele>
        <time>2022-08-06T06:47:48Z</time>
      </trkpt>
      <trkpt lat="45.0234" lon="1.84535">
        <ele>193.1</ele>
        <time>2022-08-06T06:47:50Z</time>
      </trkpt>
      <trkpt lat="45.0234" lon="1.84529">
        <ele>192.3</ele>
        <time>2022-08-06T06:47:52Z</time>
      </trkpt>
      <trkpt lat="45.02339" lon="1.84523">
        <ele>191.7</ele>
        <time>2022-08-06T06:47:54Z</time>
      </trkpt>
      <trkpt lat="45.02338" lon="1.84517">
        <ele>190.9</ele>
        <time>2022-08-06T06:47:56Z</time>
      </trkpt>
      <trkpt lat="45.02337" lon="1.84512">
        <ele>190.7</ele>
        <time>2022-08-06T06:47:58Z</time>
      </trkpt>
      <trkpt lat="45.02336" lon="1.84506">
        <ele>189.9</ele>
        <time>2022-08-06T06:48:00Z</time>
      </trkpt>
      <trkpt lat="45.02336" lon="1.845">
        <ele>189.1</ele>
        <time>2022-08-06T06:48:02Z</time>
      </trkpt>
      <trkpt lat="45.02335" lon="1.84495">
        <ele>188.5</ele>
        <time>2022-08-06T06:48:04Z</time>
      </trkpt>
      <trkpt lat="45.02334" lon="1.84489">
        <ele>188</ele>
        <time>2022-08-06T06:48:06Z</time>
      </trkpt>
      <trkpt lat="45.02334" lon="1.84483">
        <ele>187.5</ele>
        <time>2022-08-06T06:48:08Z</time>
      </trkpt>
      <trkpt lat="45.02333" lon="1.84477">
        <ele>187</ele>
        <time>2022-08-06T06:48:10Z</time>
      </trkpt>
      <trkpt lat="45.02332" lon="1.84472">
        <ele>186.8</ele>
        <time>2022-08-06T06:48:12Z</time>
      </trkpt>
      <trkpt lat="45.02331" lon="1.84466">
        <ele>186.3</ele>
        <time>2022-08-06T06:48:14Z</time>
      </trkpt>
      <trkpt lat="45.02331" lon="1.84461">
        <ele>186</ele>
        <time>2022-08-06T06:48:16Z</time>
      </trkpt>
      <trkpt lat="45.0233" lon="1.84455">
        <ele>185.5</ele>
        <time>2022-08-06T06:48:18Z</time>
      </trkpt>
      <trkpt lat="45.0233" lon="1.84449">
        <ele>185.1</ele>
        <time>2022-08-06T06:48:20Z</time>
      </trkpt>
      <trkpt lat="45.02329" lon="1.84444">
        <ele>184.5</ele>
        <time>2022-08-06T06:48:22Z</time>
      </trkpt>
      <trkpt lat="45.02329" lon="1.84438">
        <ele>183.7</ele>
        <time>2022-08-06T06:48:24Z</time>
      </trkpt>
      <trkpt lat="45.02329" lon="1.84433">
        <ele>182.8</ele>
        <time>2022-08-06T06:48:26Z</time>
      </trkpt>
      <trkpt lat="45.02329" lon="1.84428">
        <ele>182.6</ele>
        <time>2022-08-06T06:48:28Z</time>
      </trkpt>
      <trkpt lat="45.02328" lon="1.84423">
        <ele>182.5</ele>
        <time>2022-08-06T06:48:30Z</time>
      </trkpt>
      <trkpt lat="45.02326" lon="1.84417">
        <ele>182.5</ele>
        <time>2022-08-06T06:48:32Z</time>
      </trkpt>
      <trkpt lat="45.02325" lon="1.84411">
        <ele>182.5</ele>
        <time>2022-08-06T06:48:34Z</time>
      </trkpt>
      <trkpt lat="45.02325" lon="1.84408">
        <ele>182.6</ele>
        <time>2022-08-06T06:48:36Z</time>
      </trkpt>
      <trkpt lat="45.02323" lon="1.84407">
        <ele>183.4</ele>
        <time>2022-08-06T06:48:38Z</time>
      </trkpt>
      <trkpt lat="45.02322" lon="1.84408">
        <ele>184.2</ele>
        <time>2022-08-06T06:48:40Z</time>
      </trkpt>
      <trkpt lat="45.02322" lon="1.84411">
        <ele>184.5</ele>
        <time>2022-08-06T06:48:42Z</time>
      </trkpt>
      <trkpt lat="45.02324" lon="1.84415">
        <ele>183.9</ele>
        <time>2022-08-06T06:48:44Z</time>
      </trkpt>
      <trkpt lat="45.0233" lon="1.84422">
        <ele>180.5</ele>
        <time>2022-08-06T06:48:48Z</time>
      </trkpt>
      <trkpt lat="45.02335" lon="1.84424">
        <ele>178.4</ele>
        <time>2022-08-06T06:48:50Z</time>
      </trkpt>
      <trkpt lat="45.0234" lon="1.84424">
        <ele>177</ele>
        <time>2022-08-06T06:48:52Z</time>
      </trkpt>
      <trkpt lat="45.02344" lon="1.84423">
        <ele>175.4</ele>
        <time>2022-08-06T06:48:54Z</time>
      </trkpt>
      <trkpt lat="45.02348" lon="1.84422">
        <ele>174</ele>
        <time>2022-08-06T06:48:56Z</time>
      </trkpt>
      <trkpt lat="45.02352" lon="1.84421">
        <ele>172.5</ele>
        <time>2022-08-06T06:48:58Z</time>
      </trkpt>
      <trkpt lat="45.02356" lon="1.8442">
        <ele>171.1</ele>
        <time>2022-08-06T06:49:00Z</time>
      </trkpt>
      <trkpt lat="45.02359" lon="1.84419">
        <ele>169.8</ele>
        <time>2022-08-06T06:49:02Z</time>
      </trkpt>
      <trkpt lat="45.02363" lon="1.84417">
        <ele>168.5</ele>
        <time>2022-08-06T06:49:04Z</time>
      </trkpt>
      <trkpt lat="45.02367" lon="1.84416">
        <ele>167.1</ele>
        <time>2022-08-06T06:49:06Z</time>
      </trkpt>
      <trkpt lat="45.02371" lon="1.84415">
        <ele>165.8</ele>
        <time>2022-08-06T06:49:08Z</time>
      </trkpt>
      <trkpt lat="45.02375" lon="1.84413">
        <ele>164.5</ele>
        <time>2022-08-06T06:49:10Z</time>
      </trkpt>
      <trkpt lat="45.02378" lon="1.84413">
        <ele>163.3</ele>
        <time>2022-08-06T06:49:12Z</time>
      </trkpt>
      <trkpt lat="45.0238" lon="1.84413">
        <ele>162.6</ele>
        <time>2022-08-06T06:49:14Z</time>
      </trkpt>
      <trkpt lat="45.02381" lon="1.84413">
        <ele>162.5</ele>
        <time>2022-08-06T06:49:16Z</time>
      </trkpt>
      <trkpt lat="45.02382" lon="1.84413">
        <ele>162.2</ele>
        <time>2022-08-06T06:49:18Z</time>
      </trkpt>
      <trkpt lat="45.02383" lon="1.84412">
        <ele>161.9</ele>
        <time>2022-08-06T06:49:20Z</time>
      </trkpt>
      <trkpt lat="45.02383" lon="1.84413">
        <ele>161.7</ele>
        <time>2022-08-06T06:49:22Z</time>
      </trkpt>
      <trkpt lat="45.02383" lon="1.84413">
        <ele>161.7</ele>
        <time>2022-08-06T06:49:24Z</time>
      </trkpt>
      <trkpt lat="45.02383" lon="1.84412">
        <ele>161.6</ele>
        <time>2022-08-06T06:49:26Z</time>
      </trkpt>
      <trkpt lat="45.02384" lon="1.84412">
        <ele>161.4</ele>
        <time>2022-08-06T06:49:28Z</time>
      </trkpt>
      <trkpt lat="45.02384" lon="1.84412">
        <ele>161.4</ele>
        <time>2022-08-06T06:49:30Z</time>
      </trkpt>
      <trkpt lat="45.02384" lon="1.84412">
        <ele>161.5</ele>
        <time>2022-08-06T06:49:32Z</time>
      </trkpt>
      <trkpt lat="45.02384" lon="1.84412">
        <ele>161.5</ele>
        <time>2022-08-06T06:49:34Z</time>
      </trkpt>
      <trkpt lat="45.02383" lon="1.84412">
        <ele>161.6</ele>
        <time>2022-08-06T06:49:36Z</time>
      </trkpt>
      <trkpt lat="45.02383" lon="1.84412">
        <ele>161.6</ele>
        <time>2022-08-06T06:49:38Z</time>
      </trkpt>
      <trkpt lat="45.02383" lon="1.84412">
        <ele>161.7</ele>
        <time>2022-08-06T06:49:40Z</time>
      </trkpt>
      <trkpt lat="45.02383" lon="1.84412">
        <ele>161.8</ele>
        <time>2022-08-06T06:49:42Z</time>
      </trkpt>
      <trkpt lat="45.02383" lon="1.84412">
        <ele>161.8</ele>
        <time>2022-08-06T06:49:44Z</time>
      </trkpt>
      <trkpt lat="45.02383" lon="1.84412">
        <ele>161.8</ele>
        <time>2022-08-06T06:49:48Z</time>
      </trkpt>
      <trkpt lat="45.02383" lon="1.84412">
        <ele>161.7</ele>
        <time>2022-08-06T06:49:52Z</time>
      </trkpt>
      <trkpt lat="45.02383" lon="1.84412">
        <ele>161.7</ele>
        <time>2022-08-06T06:49:54Z</time>
      </trkpt>
      <trkpt lat="45.02383" lon="1.84412">
        <ele>161.6</ele>
        <time>2022-08-06T06:49:56Z</time>
      </trkpt>
      <trkpt lat="45.02384" lon="1.84411">
        <ele>161.5</ele>
        <time>2022-08-06T06:50:00Z</time>
      </trkpt>
      <trkpt lat="45.02384" lon="1.84411">
        <ele>161.5</ele>
        <time>2022-08-06T06:50:02Z</time>
      </trkpt>
      <trkpt lat="45.02384" lon="1.84411">
        <ele>161.4</ele>
        <time>2022-08-06T06:50:04Z</time>
      </trkpt>
      <trkpt lat="45.02384" lon="1.84411">
        <ele>161.3</ele>
        <time>2022-08-06T06:50:08Z</time>
      </trkpt>
      <trkpt lat="45.02384" lon="1.84411">
        <ele>161.4</ele>
        <time>2022-08-06T06:50:10Z</time>
      </trkpt>
      <trkpt lat="45.02384" lon="1.84411">
        <ele>161.4</ele>
        <time>2022-08-06T06:50:12Z</time>
      </trkpt>
      <trkpt lat="45.02384" lon="1.84411">
        <ele>161.4</ele>
        <time>2022-08-06T06:50:14Z</time>
      </trkpt>
      <trkpt lat="45.02384" lon="1.84411">
        <ele>161.5</ele>
        <time>2022-08-06T06:50:16Z</time>
      </trkpt>
      <trkpt lat="45.02384" lon="1.84411">
        <ele>161.5</ele>
        <time>2022-08-06T06:50:18Z</time>
      </trkpt>
      <trkpt lat="45.02384" lon="1.84411">
        <ele>161.5</ele>
        <time>2022-08-06T06:50:22Z</time>
      </trkpt>
      <trkpt lat="45.02384" lon="1.84411">
        <ele>161.5</ele>
        <time>2022-08-06T06:50:26Z</time>
      </trkpt>
      <trkpt lat="45.02383" lon="1.84412">
        <ele>161.6</ele>
        <time>2022-08-06T06:50:30Z</time>
      </trkpt>
      <trkpt lat="45.02383" lon="1.84412">
        <ele>161.6</ele>
        <time>2022-08-06T06:50:32Z</time>
      </trkpt>
      <trkpt lat="45.02383" lon="1.84412">
        <ele>161.7</ele>
        <time>2022-08-06T06:50:34Z</time>
      </trkpt>
      <trkpt lat="45.02383" lon="1.84412">
        <ele>161.7</ele>
        <time>2022-08-06T06:50:36Z</time>
      </trkpt>
      <trkpt lat="45.02383" lon="1.84412">
        <ele>161.7</ele>
        <time>2022-08-06T06:50:38Z</time>
      </trkpt>
      <trkpt lat="45.02383" lon="1.84412">
        <ele>161.7</ele>
        <time>2022-08-06T06:50:40Z</time>
      </trkpt>
      <trkpt lat="45.02383" lon="1.84412">
        <ele>161.7</ele>
        <time>2022-08-06T06:50:42Z</time>
      </trkpt>
      <trkpt lat="45.02383" lon="1.84412">
        <ele>161.7</ele>
        <time>2022-08-06T06:50:44Z</time>
      </trkpt>
      <trkpt lat="45.02383" lon="1.84412">
        <ele>161.7</ele>
        <time>2022-08-06T06:50:46Z</time>
      </trkpt>
      <trkpt lat="45.02383" lon="1.84412">
        <ele>161.7</ele>
        <time>2022-08-06T06:50:48Z</time>
      </trkpt>
      <trkpt lat="45.02384" lon="1.84412">
        <ele>161.5</ele>
        <time>2022-08-06T06:50:50Z</time>
      </trkpt>
      <trkpt lat="45.02384" lon="1.84412">
        <ele>161.6</ele>
        <time>2022-08-06T06:50:52Z</time>
      </trkpt>
      <trkpt lat="45.02383" lon="1.84412">
        <ele>161.6</ele>
        <time>2022-08-06T06:50:54Z</time>
      </trkpt>
      <trkpt lat="45.02383" lon="1.84412">
        <ele>161.8</ele>
        <time>2022-08-06T06:50:56Z</time>
      </trkpt>
      <trkpt lat="45.02383" lon="1.84412">
        <ele>161.8</ele>
        <time>2022-08-06T06:50:58Z</time>
      </trkpt>
      <trkpt lat="45.02383" lon="1.84412">
        <ele>161.8</ele>
        <time>2022-08-06T06:51:00Z</time>
      </trkpt>
      <trkpt lat="45.02383" lon="1.84412">
        <ele>161.7</ele>
        <time>2022-08-06T06:51:02Z</time>
      </trkpt>
      <trkpt lat="45.02383" lon="1.84412">
        <ele>161.6</ele>
        <time>2022-08-06T06:51:04Z</time>
      </trkpt>
      <trkpt lat="45.02383" lon="1.84411">
        <ele>161.6</ele>
        <time>2022-08-06T06:51:06Z</time>
      </trkpt>
      <trkpt lat="45.02383" lon="1.84411">
        <ele>161.7</ele>
        <time>2022-08-06T06:51:08Z</time>
      </trkpt>
      <trkpt lat="45.02384" lon="1.84411">
        <ele>161.5</ele>
        <time>2022-08-06T06:51:10Z</time>
      </trkpt>
      <trkpt lat="45.02384" lon="1.84411">
        <ele>161.4</ele>
        <time>2022-08-06T06:51:12Z</time>
      </trkpt>
      <trkpt lat="45.02384" lon="1.8441">
        <ele>161.5</ele>
        <time>2022-08-06T06:51:14Z</time>
      </trkpt>
      <trkpt lat="45.02383" lon="1.84411">
        <ele>161.5</ele>
        <time>2022-08-06T06:51:16Z</time>
      </trkpt>
      <trkpt lat="45.02384" lon="1.84411">
        <ele>161.5</ele>
        <time>2022-08-06T06:51:18Z</time>
      </trkpt>
      <trkpt lat="45.02383" lon="1.8441">
        <ele>161.6</ele>
        <time>2022-08-06T06:51:20Z</time>
      </trkpt>
      <trkpt lat="45.02383" lon="1.84411">
        <ele>161.6</ele>
        <time>2022-08-06T06:51:22Z</time>
      </trkpt>
      <trkpt lat="45.02383" lon="1.8441">
        <ele>161.6</ele>
        <time>2022-08-06T06:51:24Z</time>
      </trkpt>
      <trkpt lat="45.02383" lon="1.8441">
        <ele>161.6</ele>
        <time>2022-08-06T06:51:26Z</time>
      </trkpt>
      <trkpt lat="45.02383" lon="1.8441">
        <ele>161.7</ele>
        <time>2022-08-06T06:51:28Z</time>
      </trkpt>
      <trkpt lat="45.02383" lon="1.84411">
        <ele>161.8</ele>
        <time>2022-08-06T06:51:30Z</time>
      </trkpt>
      <trkpt lat="45.02383" lon="1.84411">
        <ele>161.8</ele>
        <time>2022-08-06T06:51:32Z</time>
      </trkpt>
      <trkpt lat="45.02383" lon="1.84411">
        <ele>161.7</ele>
        <time>2022-08-06T06:51:34Z</time>
      </trkpt>
      <trkpt lat="45.02383" lon="1.84411">
        <ele>161.8</ele>
        <time>2022-08-06T06:51:36Z</time>
      </trkpt>
      <trkpt lat="45.02382" lon="1.84411">
        <ele>161.9</ele>
        <time>2022-08-06T06:51:38Z</time>
      </trkpt>
      <trkpt lat="45.02383" lon="1.84411">
        <ele>161.8</ele>
        <time>2022-08-06T06:51:40Z</time>
      </trkpt>
      <trkpt lat="45.02382" lon="1.84412">
        <ele>162</ele>
        <time>2022-08-06T06:51:42Z</time>
      </trkpt>
      <trkpt lat="45.02382" lon="1.84412">
        <ele>161.9</ele>
        <time>2022-08-06T06:51:44Z</time>
      </trkpt>
      <trkpt lat="45.02382" lon="1.84412">
        <ele>161.9</ele>
        <time>2022-08-06T06:51:46Z</time>
      </trkpt>
      <trkpt lat="45.02382" lon="1.84412">
        <ele>161.9</ele>
        <time>2022-08-06T06:51:48Z</time>
      </trkpt>
      <trkpt lat="45.02382" lon="1.84412">
        <ele>162</ele>
        <time>2022-08-06T06:51:50Z</time>
      </trkpt>
      <trkpt lat="45.02382" lon="1.84412">
        <ele>161.9</ele>
        <time>2022-08-06T06:51:52Z</time>
      </trkpt>
      <trkpt lat="45.02383" lon="1.84412">
        <ele>161.7</ele>
        <time>2022-08-06T06:51:54Z</time>
      </trkpt>
      <trkpt lat="45.02383" lon="1.84411">
        <ele>161.6</ele>
        <time>2022-08-06T06:51:56Z</time>
      </trkpt>
      <trkpt lat="45.02385" lon="1.8441">
        <ele>161</ele>
        <time>2022-08-06T06:51:58Z</time>
      </trkpt>
      <trkpt lat="45.02388" lon="1.84408">
        <ele>160</ele>
        <time>2022-08-06T06:52:00Z</time>
      </trkpt>
      <trkpt lat="45.02392" lon="1.84408">
        <ele>158.7</ele>
        <time>2022-08-06T06:52:02Z</time>
      </trkpt>
      <trkpt lat="45.02397" lon="1.84407">
        <ele>157.1</ele>
        <time>2022-08-06T06:52:04Z</time>
      </trkpt>
      <trkpt lat="45.02405" lon="1.84404">
        <ele>154.7</ele>
        <time>2022-08-06T06:52:06Z</time>
      </trkpt>
      <trkpt lat="45.02412" lon="1.84402">
        <ele>152.6</ele>
        <time>2022-08-06T06:52:08Z</time>
      </trkpt>
      <trkpt lat="45.02419" lon="1.84401">
        <ele>151.5</ele>
        <time>2022-08-06T06:52:10Z</time>
      </trkpt>
      <trkpt lat="45.02427" lon="1.84398">
        <ele>152.2</ele>
        <time>2022-08-06T06:52:12Z</time>
      </trkpt>
      <trkpt lat="45.02434" lon="1.84395">
        <ele>153.1</ele>
        <time>2022-08-06T06:52:14Z</time>
      </trkpt>
      <trkpt lat="45.02442" lon="1.84393">
        <ele>154</ele>
        <time>2022-08-06T06:52:16Z</time>
      </trkpt>
      <trkpt lat="45.02449" lon="1.84392">
        <ele>154.8</ele>
        <time>2022-08-06T06:52:18Z</time>
      </trkpt>
      <trkpt lat="45.02456" lon="1.8439">
        <ele>155.5</ele>
        <time>2022-08-06T06:52:20Z</time>
      </trkpt>
      <trkpt lat="45.02461" lon="1.84389">
        <ele>156.1</ele>
        <time>2022-08-06T06:52:22Z</time>
      </trkpt>
      <trkpt lat="45.02463" lon="1.84388">
        <ele>156.3</ele>
        <time>2022-08-06T06:52:24Z</time>
      </trkpt>
      <trkpt lat="45.02463" lon="1.84386">
        <ele>156.5</ele>
        <time>2022-08-06T06:52:26Z</time>
      </trkpt>
      <trkpt lat="45.02461" lon="1.84387">
        <ele>156.2</ele>
        <time>2022-08-06T06:52:28Z</time>
      </trkpt>
      <trkpt lat="45.02461" lon="1.84388">
        <ele>156.2</ele>
        <time>2022-08-06T06:52:30Z</time>
      </trkpt>
      <trkpt lat="45.02461" lon="1.84389">
        <ele>156.1</ele>
        <time>2022-08-06T06:52:32Z</time>
      </trkpt>
      <trkpt lat="45.0247" lon="1.84386">
        <ele>157.2</ele>
        <time>2022-08-06T06:53:42Z</time>
      </trkpt>
      <trkpt lat="45.02476" lon="1.84384">
        <ele>158</ele>
        <time>2022-08-06T06:53:44Z</time>
      </trkpt>
      <trkpt lat="45.02482" lon="1.84381">
        <ele>158.7</ele>
        <time>2022-08-06T06:53:46Z</time>
      </trkpt>
      <trkpt lat="45.02488" lon="1.8438">
        <ele>159.4</ele>
        <time>2022-08-06T06:53:48Z</time>
      </trkpt>
      <trkpt lat="45.02494" lon="1.84378">
        <ele>160.2</ele>
        <time>2022-08-06T06:53:50Z</time>
      </trkpt>
      <trkpt lat="45.025" lon="1.84376">
        <ele>161</ele>
        <time>2022-08-06T06:53:52Z</time>
      </trkpt>
      <trkpt lat="45.02506" lon="1.84375">
        <ele>161.6</ele>
        <time>2022-08-06T06:53:54Z</time>
      </trkpt>
      <trkpt lat="45.02512" lon="1.84373">
        <ele>162.3</ele>
        <time>2022-08-06T06:53:56Z</time>
      </trkpt>
      <trkpt lat="45.02517" lon="1.84371">
        <ele>162.9</ele>
        <time>2022-08-06T06:53:58Z</time>
      </trkpt>
      <trkpt lat="45.02522" lon="1.8437">
        <ele>163.5</ele>
        <time>2022-08-06T06:54:00Z</time>
      </trkpt>
      <trkpt lat="45.02528" lon="1.84369">
        <ele>164</ele>
        <time>2022-08-06T06:54:02Z</time>
      </trkpt>
      <trkpt lat="45.02533" lon="1.84367">
        <ele>164.6</ele>
        <time>2022-08-06T06:54:04Z</time>
      </trkpt>
      <trkpt lat="45.02538" lon="1.84365">
        <ele>165.2</ele>
        <time>2022-08-06T06:54:06Z</time>
      </trkpt>
      <trkpt lat="45.02543" lon="1.84364">
        <ele>165.7</ele>
        <time>2022-08-06T06:54:08Z</time>
      </trkpt>
      <trkpt lat="45.02548" lon="1.84363">
        <ele>166.2</ele>
        <time>2022-08-06T06:54:10Z</time>
      </trkpt>
      <trkpt lat="45.02552" lon="1.84363">
        <ele>166.6</ele>
        <time>2022-08-06T06:54:12Z</time>
      </trkpt>
      <trkpt lat="45.02557" lon="1.84363">
        <ele>167.1</ele>
        <time>2022-08-06T06:54:14Z</time>
      </trkpt>
      <trkpt lat="45.02561" lon="1.84363">
        <ele>167.5</ele>
        <time>2022-08-06T06:54:16Z</time>
      </trkpt>
      <trkpt lat="45.02563" lon="1.8436">
        <ele>167.8</ele>
        <time>2022-08-06T06:54:18Z</time>
      </trkpt>
      <trkpt lat="45.02564" lon="1.84354">
        <ele>167.9</ele>
        <time>2022-08-06T06:54:20Z</time>
      </trkpt>
      <trkpt lat="45.02561" lon="1.84351">
        <ele>167.7</ele>
        <time>2022-08-06T06:54:22Z</time>
      </trkpt>
      <trkpt lat="45.02559" lon="1.84354">
        <ele>167.5</ele>
        <time>2022-08-06T06:54:24Z</time>
      </trkpt>
      <trkpt lat="45.02557" lon="1.84356">
        <ele>167.3</ele>
        <time>2022-08-06T06:54:26Z</time>
      </trkpt>
      <trkpt lat="45.02557" lon="1.84356">
        <ele>167.2</ele>
        <time>2022-08-06T06:54:28Z</time>
      </trkpt>
      <trkpt lat="45.02557" lon="1.84356">
        <ele>167.2</ele>
        <time>2022-08-06T06:54:30Z</time>
      </trkpt>
      <trkpt lat="45.02557" lon="1.84357">
        <ele>167.2</ele>
        <time>2022-08-06T06:54:32Z</time>
      </trkpt>
      <trkpt lat="45.02535" lon="1.84359">
        <ele>165.1</ele>
        <time>2022-08-06T06:55:08Z</time>
      </trkpt>
      <trkpt lat="45.02527" lon="1.84362">
        <ele>164.2</ele>
        <time>2022-08-06T06:55:10Z</time>
      </trkpt>
      <trkpt lat="45.02517" lon="1.84365">
        <ele>163.1</ele>
        <time>2022-08-06T06:55:12Z</time>
      </trkpt>
      <trkpt lat="45.02506" lon="1.84368">
        <ele>161.9</ele>
        <time>2022-08-06T06:55:14Z</time>
      </trkpt>
      <trkpt lat="45.02495" lon="1.84372">
        <ele>160.5</ele>
        <time>2022-08-06T06:55:16Z</time>
      </trkpt>
      <trkpt lat="45.02482" lon="1.84377">
        <ele>158.9</ele>
        <time>2022-08-06T06:55:18Z</time>
      </trkpt>
      <trkpt lat="45.02468" lon="1.84381">
        <ele>157.2</ele>
        <time>2022-08-06T06:55:20Z</time>
      </trkpt>
      <trkpt lat="45.02454" lon="1.84385">
        <ele>155.5</ele>
        <time>2022-08-06T06:55:22Z</time>
      </trkpt>
      <trkpt lat="45.0244" lon="1.84389">
        <ele>153.9</ele>
        <time>2022-08-06T06:55:24Z</time>
      </trkpt>
      <trkpt lat="45.02429" lon="1.84392">
        <ele>152.6</ele>
        <time>2022-08-06T06:55:26Z</time>
      </trkpt>
      <trkpt lat="45.02419" lon="1.84395">
        <ele>151.5</ele>
        <time>2022-08-06T06:55:28Z</time>
      </trkpt>
      <trkpt lat="45.02411" lon="1.84397">
        <ele>153</ele>
        <time>2022-08-06T06:55:30Z</time>
      </trkpt>
      <trkpt lat="45.024" lon="1.84401">
        <ele>156.2</ele>
        <time>2022-08-06T06:55:32Z</time>
      </trkpt>
      <trkpt lat="45.0239" lon="1.84404">
        <ele>159.2</ele>
        <time>2022-08-06T06:55:34Z</time>
      </trkpt>
      <trkpt lat="45.02382" lon="1.84406">
        <ele>161.9</ele>
        <time>2022-08-06T06:55:36Z</time>
      </trkpt>
      <trkpt lat="45.02374" lon="1.8441">
        <ele>164.4</ele>
        <time>2022-08-06T06:55:38Z</time>
      </trkpt>
      <trkpt lat="45.02366" lon="1.84412">
        <ele>167.2</ele>
        <time>2022-08-06T06:55:40Z</time>
      </trkpt>
      <trkpt lat="45.02357" lon="1.84414">
        <ele>170.1</ele>
        <time>2022-08-06T06:55:42Z</time>
      </trkpt>
      <trkpt lat="45.02348" lon="1.84416">
        <ele>173.2</ele>
        <time>2022-08-06T06:55:44Z</time>
      </trkpt>
      <trkpt lat="45.02341" lon="1.84419">
        <ele>175.8</ele>
        <time>2022-08-06T06:55:46Z</time>
      </trkpt>
      <trkpt lat="45.02335" lon="1.84419">
        <ele>177.8</ele>
        <time>2022-08-06T06:55:48Z</time>
      </trkpt>
      <trkpt lat="45.02332" lon="1.84416">
        <ele>178.6</ele>
        <time>2022-08-06T06:55:50Z</time>
      </trkpt>
      <trkpt lat="45.02333" lon="1.84416">
        <ele>178.1</ele>
        <time>2022-08-06T06:55:52Z</time>
      </trkpt>
      <trkpt lat="45.02333" lon="1.84416">
        <ele>178.1</ele>
        <time>2022-08-06T06:55:54Z</time>
      </trkpt>
      <trkpt lat="45.02333" lon="1.84416">
        <ele>178</ele>
        <time>2022-08-06T06:55:56Z</time>
      </trkpt>
      <trkpt lat="45.02334" lon="1.84416">
        <ele>177.9</ele>
        <time>2022-08-06T06:55:58Z</time>
      </trkpt>
      <trkpt lat="45.02418" lon="1.84401">
        <ele>151.4</ele>
        <time>2022-08-06T06:58:20Z</time>
      </trkpt>
      <trkpt lat="45.02427" lon="1.84398">
        <ele>152.3</ele>
        <time>2022-08-06T06:58:22Z</time>
      </trkpt>
      <trkpt lat="45.02436" lon="1.84395">
        <ele>153.3</ele>
        <time>2022-08-06T06:58:24Z</time>
      </trkpt>
      <trkpt lat="45.02445" lon="1.84393">
        <ele>154.3</ele>
        <time>2022-08-06T06:58:26Z</time>
      </trkpt>
      <trkpt lat="45.02453" lon="1.8439">
        <ele>155.3</ele>
        <time>2022-08-06T06:58:28Z</time>
      </trkpt>
      <trkpt lat="45.0246" lon="1.84388">
        <ele>156</ele>
        <time>2022-08-06T06:58:30Z</time>
      </trkpt>
      <trkpt lat="45.02466" lon="1.84386">
        <ele>156.8</ele>
        <time>2022-08-06T06:58:32Z</time>
      </trkpt>
      <trkpt lat="45.02477" lon="1.84383">
        <ele>158.1</ele>
        <time>2022-08-06T06:58:34Z</time>
      </trkpt>
      <trkpt lat="45.02484" lon="1.84381">
        <ele>159</ele>
        <time>2022-08-06T06:58:36Z</time>
      </trkpt>
      <trkpt lat="45.02491" lon="1.84379">
        <ele>159.8</ele>
        <time>2022-08-06T06:58:38Z</time>
      </trkpt>
      <trkpt lat="45.02497" lon="1.84377">
        <ele>160.6</ele>
        <time>2022-08-06T06:58:40Z</time>
      </trkpt>
      <trkpt lat="45.02503" lon="1.84375">
        <ele>161.3</ele>
        <time>2022-08-06T06:58:42Z</time>
      </trkpt>
      <trkpt lat="45.02509" lon="1.84374">
        <ele>162</ele>
        <time>2022-08-06T06:58:44Z</time>
      </trkpt>
      <trkpt lat="45.02514" lon="1.84371">
        <ele>162.6</ele>
        <time>2022-08-06T06:58:46Z</time>
      </trkpt>
      <trkpt lat="45.02519" lon="1.8437">
        <ele>163.2</ele>
        <time>2022-08-06T06:58:48Z</time>
      </trkpt>
      <trkpt lat="45.02524" lon="1.84369">
        <ele>163.7</ele>
        <time>2022-08-06T06:58:50Z</time>
      </trkpt>
      <trkpt lat="45.02528" lon="1.84367">
        <ele>164.2</ele>
        <time>2022-08-06T06:58:52Z</time>
      </trkpt>
      <trkpt lat="45.02533" lon="1.84366">
        <ele>164.7</ele>
        <time>2022-08-06T06:58:54Z</time>
      </trkpt>
      <trkpt lat="45.02538" lon="1.84365">
        <ele>165.2</ele>
        <time>2022-08-06T06:58:56Z</time>
      </trkpt>
      <trkpt lat="45.02543" lon="1.84365">
        <ele>165.7</ele>
        <time>2022-08-06T06:58:58Z</time>
      </trkpt>
      <trkpt lat="45.02547" lon="1.84364">
        <ele>166.1</ele>
        <time>2022-08-06T06:59:00Z</time>
      </trkpt>
      <trkpt lat="45.02552" lon="1.84364">
        <ele>166.6</ele>
        <time>2022-08-06T06:59:02Z</time>
      </trkpt>
      <trkpt lat="45.02556" lon="1.84364">
        <ele>166.9</ele>
        <time>2022-08-06T06:59:04Z</time>
      </trkpt>
      <trkpt lat="45.02559" lon="1.84365">
        <ele>167.2</ele>
        <time>2022-08-06T06:59:06Z</time>
      </trkpt>
      <trkpt lat="45.02562" lon="1.84364">
        <ele>167.5</ele>
        <time>2022-08-06T06:59:08Z</time>
      </trkpt>
      <trkpt lat="45.02564" lon="1.8436">
        <ele>167.9</ele>
        <time>2022-08-06T06:59:10Z</time>
      </trkpt>
      <trkpt lat="45.02564" lon="1.84354">
        <ele>167.9</ele>
        <time>2022-08-06T06:59:12Z</time>
      </trkpt>
      <trkpt lat="45.02559" lon="1.8435">
        <ele>167.5</ele>
        <time>2022-08-06T06:59:14Z</time>
      </trkpt>
      <trkpt lat="45.02552" lon="1.84353">
        <ele>166.9</ele>
        <time>2022-08-06T06:59:16Z</time>
      </trkpt>
      <trkpt lat="45.02545" lon="1.84358">
        <ele>166.1</ele>
        <time>2022-08-06T06:59:18Z</time>
      </trkpt>
      <trkpt lat="45.02538" lon="1.84361">
        <ele>165.3</ele>
        <time>2022-08-06T06:59:20Z</time>
      </trkpt>
      <trkpt lat="45.02529" lon="1.84364">
        <ele>164.3</ele>
        <time>2022-08-06T06:59:22Z</time>
      </trkpt>
      <trkpt lat="45.02519" lon="1.84366">
        <ele>163.3</ele>
        <time>2022-08-06T06:59:24Z</time>
      </trkpt>
      <trkpt lat="45.02508" lon="1.84369">
        <ele>162.1</ele>
        <time>2022-08-06T06:59:26Z</time>
      </trkpt>
      <trkpt lat="45.02496" lon="1.84373">
        <ele>160.6</ele>
        <time>2022-08-06T06:59:28Z</time>
      </trkpt>
      <trkpt lat="45.02484" lon="1.84377">
        <ele>159.1</ele>
        <time>2022-08-06T06:59:30Z</time>
      </trkpt>
      <trkpt lat="45.02471" lon="1.84381">
        <ele>157.5</ele>
        <time>2022-08-06T06:59:32Z</time>
      </trkpt>
      <trkpt lat="45.02458" lon="1.84385">
        <ele>155.9</ele>
        <time>2022-08-06T06:59:34Z</time>
      </trkpt>
      <trkpt lat="45.02446" lon="1.84388">
        <ele>154.5</ele>
        <time>2022-08-06T06:59:36Z</time>
      </trkpt>
      <trkpt lat="45.02434" lon="1.84391">
        <ele>153.2</ele>
        <time>2022-08-06T06:59:38Z</time>
      </trkpt>
      <trkpt lat="45.02422" lon="1.84394">
        <ele>151.8</ele>
        <time>2022-08-06T06:59:40Z</time>
      </trkpt>
      <trkpt lat="45.02412" lon="1.84397">
        <ele>152.7</ele>
        <time>2022-08-06T06:59:42Z</time>
      </trkpt>
      <trkpt lat="45.02402" lon="1.84399">
        <ele>155.7</ele>
        <time>2022-08-06T06:59:44Z</time>
      </trkpt>
      <trkpt lat="45.02398" lon="1.84401">
        <ele>156.8</ele>
        <time>2022-08-06T06:59:46Z</time>
      </trkpt>
      <trkpt lat="45.02392" lon="1.84404">
        <ele>158.7</ele>
        <time>2022-08-06T06:59:48Z</time>
      </trkpt>
      <trkpt lat="45.02386" lon="1.84409">
        <ele>160.6</ele>
        <time>2022-08-06T06:59:50Z</time>
      </trkpt>
      <trkpt lat="45.02381" lon="1.84413">
        <ele>162.5</ele>
        <time>2022-08-06T06:59:52Z</time>
      </trkpt>
      <trkpt lat="45.02374" lon="1.84414">
        <ele>164.7</ele>
        <time>2022-08-06T06:59:54Z</time>
      </trkpt>
      <trkpt lat="45.02366" lon="1.84413">
        <ele>167.1</ele>
        <time>2022-08-06T06:59:56Z</time>
      </trkpt>
      <trkpt lat="45.02358" lon="1.84413">
        <ele>169.6</ele>
        <time>2022-08-06T06:59:58Z</time>
      </trkpt>
      <trkpt lat="45.0235" lon="1.84416">
        <ele>172.5</ele>
        <time>2022-08-06T07:00:00Z</time>
      </trkpt>
      <trkpt lat="45.02342" lon="1.84419">
        <ele>175.5</ele>
        <time>2022-08-06T07:00:02Z</time>
      </trkpt>
      <trkpt lat="45.02336" lon="1.8442">
        <ele>177.6</ele>
        <time>2022-08-06T07:00:04Z</time>
      </trkpt>
      <trkpt lat="45.02331" lon="1.84418">
        <ele>179.4</ele>
        <time>2022-08-06T07:00:06Z</time>
      </trkpt>
      <trkpt lat="45.02331" lon="1.84417">
        <ele>179.5</ele>
        <time>2022-08-06T07:00:08Z</time>
      </trkpt>
      <trkpt lat="45.02331" lon="1.84417">
        <ele>179.5</ele>
        <time>2022-08-06T07:00:10Z</time>
      </trkpt>
      <trkpt lat="45.02331" lon="1.84416">
        <ele>179.3</ele>
        <time>2022-08-06T07:00:12Z</time>
      </trkpt>
      <trkpt lat="45.02331" lon="1.84416">
        <ele>179.2</ele>
        <time>2022-08-06T07:00:14Z</time>
      </trkpt>
      <trkpt lat="45.02331" lon="1.84415">
        <ele>179.1</ele>
        <time>2022-08-06T07:00:16Z</time>
      </trkpt>
      <trkpt lat="45.02322" lon="1.84401">
        <ele>183.1</ele>
        <time>2022-08-06T07:01:02Z</time>
      </trkpt>
      <trkpt lat="45.02321" lon="1.84389">
        <ele>182.3</ele>
        <time>2022-08-06T07:01:04Z</time>
      </trkpt>
      <trkpt lat="45.0232" lon="1.84375">
        <ele>181.6</ele>
        <time>2022-08-06T07:01:06Z</time>
      </trkpt>
      <trkpt lat="45.02319" lon="1.84361">
        <ele>180.5</ele>
        <time>2022-08-06T07:01:08Z</time>
      </trkpt>
      <trkpt lat="45.02317" lon="1.84345">
        <ele>179.6</ele>
        <time>2022-08-06T07:01:10Z</time>
      </trkpt>
      <trkpt lat="45.02315" lon="1.84329">
        <ele>179</ele>
        <time>2022-08-06T07:01:12Z</time>
      </trkpt>
      <trkpt lat="45.02311" lon="1.84313">
        <ele>178.7</ele>
        <time>2022-08-06T07:01:14Z</time>
      </trkpt>
      <trkpt lat="45.02307" lon="1.84296">
        <ele>178.4</ele>
        <time>2022-08-06T07:01:16Z</time>
      </trkpt>
      <trkpt lat="45.02303" lon="1.84278">
        <ele>177.7</ele>
        <time>2022-08-06T07:01:18Z</time>
      </trkpt>
      <trkpt lat="45.023" lon="1.8426">
        <ele>176.3</ele>
        <time>2022-08-06T07:01:20Z</time>
      </trkpt>
      <trkpt lat="45.02296" lon="1.84242">
        <ele>175.3</ele>
        <time>2022-08-06T07:01:22Z</time>
      </trkpt>
      <trkpt lat="45.02292" lon="1.84223">
        <ele>174.1</ele>
        <time>2022-08-06T07:01:24Z</time>
      </trkpt>
      <trkpt lat="45.02289" lon="1.84205">
        <ele>172.5</ele>
        <time>2022-08-06T07:01:26Z</time>
      </trkpt>
      <trkpt lat="45.02285" lon="1.84187">
        <ele>170.7</ele>
        <time>2022-08-06T07:01:28Z</time>
      </trkpt>
      <trkpt lat="45.02281" lon="1.84169">
        <ele>168.5</ele>
        <time>2022-08-06T07:01:30Z</time>
      </trkpt>
      <trkpt lat="45.02276" lon="1.84154">
        <ele>167.5</ele>
        <time>2022-08-06T07:01:32Z</time>
      </trkpt>
      <trkpt lat="45.02271" lon="1.84141">
        <ele>167</ele>
        <time>2022-08-06T07:01:34Z</time>
      </trkpt>
      <trkpt lat="45.02264" lon="1.8413">
        <ele>166.5</ele>
        <time>2022-08-06T07:01:36Z</time>
      </trkpt>
      <trkpt lat="45.02259" lon="1.84122">
        <ele>166.3</ele>
        <time>2022-08-06T07:01:38Z</time>
      </trkpt>
      <trkpt lat="45.02254" lon="1.84116">
        <ele>166.1</ele>
        <time>2022-08-06T07:01:40Z</time>
      </trkpt>
      <trkpt lat="45.02249" lon="1.8411">
        <ele>165.9</ele>
        <time>2022-08-06T07:01:42Z</time>
      </trkpt>
      <trkpt lat="45.02244" lon="1.84106">
        <ele>165.4</ele>
        <time>2022-08-06T07:01:44Z</time>
      </trkpt>
      <trkpt lat="45.0224" lon="1.84102">
        <ele>165.1</ele>
        <time>2022-08-06T07:01:46Z</time>
      </trkpt>
      <trkpt lat="45.02235" lon="1.84099">
        <ele>165</ele>
        <time>2022-08-06T07:01:48Z</time>
      </trkpt>
      <trkpt lat="45.0223" lon="1.84097">
        <ele>165.1</ele>
        <time>2022-08-06T07:01:50Z</time>
      </trkpt>
      <trkpt lat="45.02225" lon="1.84095">
        <ele>165.3</ele>
        <time>2022-08-06T07:01:52Z</time>
      </trkpt>
      <trkpt lat="45.02221" lon="1.84093">
        <ele>165.2</ele>
        <time>2022-08-06T07:01:54Z</time>
      </trkpt>
      <trkpt lat="45.02217" lon="1.84091">
        <ele>165.3</ele>
        <time>2022-08-06T07:01:56Z</time>
      </trkpt>
      <trkpt lat="45.02213" lon="1.8409">
        <ele>165.5</ele>
        <time>2022-08-06T07:01:58Z</time>
      </trkpt>
      <trkpt lat="45.0221" lon="1.84088">
        <ele>165.6</ele>
        <time>2022-08-06T07:02:00Z</time>
      </trkpt>
      <trkpt lat="45.02205" lon="1.84086">
        <ele>165.7</ele>
        <time>2022-08-06T07:02:02Z</time>
      </trkpt>
      <trkpt lat="45.02202" lon="1.84084">
        <ele>165.7</ele>
        <time>2022-08-06T07:02:04Z</time>
      </trkpt>
      <trkpt lat="45.02198" lon="1.84082">
        <ele>165.9</ele>
        <time>2022-08-06T07:02:06Z</time>
      </trkpt>
      <trkpt lat="45.02194" lon="1.84081">
        <ele>166.2</ele>
        <time>2022-08-06T07:02:08Z</time>
      </trkpt>
      <trkpt lat="45.0219" lon="1.84079">
        <ele>166.4</ele>
        <time>2022-08-06T07:02:10Z</time>
      </trkpt>
      <trkpt lat="45.02186" lon="1.84078">
        <ele>166.6</ele>
        <time>2022-08-06T07:02:12Z</time>
      </trkpt>
      <trkpt lat="45.02182" lon="1.84076">
        <ele>166.9</ele>
        <time>2022-08-06T07:02:14Z</time>
      </trkpt>
      <trkpt lat="45.02178" lon="1.84074">
        <ele>167.1</ele>
        <time>2022-08-06T07:02:16Z</time>
      </trkpt>
      <trkpt lat="45.02174" lon="1.84072">
        <ele>167.3</ele>
        <time>2022-08-06T07:02:18Z</time>
      </trkpt>
      <trkpt lat="45.0217" lon="1.8407">
        <ele>167.4</ele>
        <time>2022-08-06T07:02:20Z</time>
      </trkpt>
      <trkpt lat="45.02166" lon="1.84068">
        <ele>167.5</ele>
        <time>2022-08-06T07:02:22Z</time>
      </trkpt>
      <trkpt lat="45.02162" lon="1.84067">
        <ele>167.4</ele>
        <time>2022-08-06T07:02:24Z</time>
      </trkpt>
      <trkpt lat="45.02159" lon="1.84066">
        <ele>167.2</ele>
        <time>2022-08-06T07:02:26Z</time>
      </trkpt>
      <trkpt lat="45.02156" lon="1.84064">
        <ele>167.1</ele>
        <time>2022-08-06T07:02:28Z</time>
      </trkpt>
      <trkpt lat="45.02153" lon="1.84063">
        <ele>166.9</ele>
        <time>2022-08-06T07:02:30Z</time>
      </trkpt>
      <trkpt lat="45.02149" lon="1.84062">
        <ele>166.8</ele>
        <time>2022-08-06T07:02:32Z</time>
      </trkpt>
      <trkpt lat="45.02145" lon="1.84061">
        <ele>166.7</ele>
        <time>2022-08-06T07:02:34Z</time>
      </trkpt>
      <trkpt lat="45.02141" lon="1.8406">
        <ele>166.6</ele>
        <time>2022-08-06T07:02:36Z</time>
      </trkpt>
      <trkpt lat="45.02138" lon="1.84059">
        <ele>166.5</ele>
        <time>2022-08-06T07:02:38Z</time>
      </trkpt>
      <trkpt lat="45.02134" lon="1.84059">
        <ele>166.5</ele>
        <time>2022-08-06T07:02:40Z</time>
      </trkpt>
      <trkpt lat="45.0213" lon="1.84059">
        <ele>166.5</ele>
        <time>2022-08-06T07:02:42Z</time>
      </trkpt>
      <trkpt lat="45.02127" lon="1.84059">
        <ele>166.4</ele>
        <time>2022-08-06T07:02:44Z</time>
      </trkpt>
      <trkpt lat="45.02123" lon="1.8406">
        <ele>166.5</ele>
        <time>2022-08-06T07:02:46Z</time>
      </trkpt>
      <trkpt lat="45.02119" lon="1.84063">
        <ele>166.7</ele>
        <time>2022-08-06T07:02:48Z</time>
      </trkpt>
      <trkpt lat="45.02116" lon="1.84066">
        <ele>166.9</ele>
        <time>2022-08-06T07:02:50Z</time>
      </trkpt>
      <trkpt lat="45.02113" lon="1.84068">
        <ele>167.1</ele>
        <time>2022-08-06T07:02:52Z</time>
      </trkpt>
      <trkpt lat="45.02111" lon="1.84072">
        <ele>167.4</ele>
        <time>2022-08-06T07:02:54Z</time>
      </trkpt>
      <trkpt lat="45.02108" lon="1.84076">
        <ele>167.7</ele>
        <time>2022-08-06T07:02:56Z</time>
      </trkpt>
      <trkpt lat="45.02106" lon="1.84079">
        <ele>168</ele>
        <time>2022-08-06T07:02:58Z</time>
      </trkpt>
      <trkpt lat="45.02104" lon="1.84084">
        <ele>168.3</ele>
        <time>2022-08-06T07:03:00Z</time>
      </trkpt>
      <trkpt lat="45.02102" lon="1.84089">
        <ele>168.5</ele>
        <time>2022-08-06T07:03:02Z</time>
      </trkpt>
      <trkpt lat="45.02102" lon="1.84093">
        <ele>168.7</ele>
        <time>2022-08-06T07:03:04Z</time>
      </trkpt>
      <trkpt lat="45.02101" lon="1.84098">
        <ele>169</ele>
        <time>2022-08-06T07:03:06Z</time>
      </trkpt>
      <trkpt lat="45.02101" lon="1.84103">
        <ele>169.2</ele>
        <time>2022-08-06T07:03:08Z</time>
      </trkpt>
      <trkpt lat="45.021" lon="1.84108">
        <ele>169.4</ele>
        <time>2022-08-06T07:03:10Z</time>
      </trkpt>
      <trkpt lat="45.021" lon="1.84112">
        <ele>169.7</ele>
        <time>2022-08-06T07:03:12Z</time>
      </trkpt>
      <trkpt lat="45.02101" lon="1.84117">
        <ele>170</ele>
        <time>2022-08-06T07:03:14Z</time>
      </trkpt>
      <trkpt lat="45.02101" lon="1.84123">
        <ele>170.2</ele>
        <time>2022-08-06T07:03:16Z</time>
      </trkpt>
      <trkpt lat="45.02102" lon="1.84128">
        <ele>170.5</ele>
        <time>2022-08-06T07:03:18Z</time>
      </trkpt>
      <trkpt lat="45.02101" lon="1.84133">
        <ele>170.8</ele>
        <time>2022-08-06T07:03:20Z</time>
      </trkpt>
      <trkpt lat="45.021" lon="1.84138">
        <ele>170.9</ele>
        <time>2022-08-06T07:03:22Z</time>
      </trkpt>
      <trkpt lat="45.02097" lon="1.84142">
        <ele>171</ele>
        <time>2022-08-06T07:03:24Z</time>
      </trkpt>
      <trkpt lat="45.02094" lon="1.84145">
        <ele>170.9</ele>
        <time>2022-08-06T07:03:26Z</time>
      </trkpt>
      <trkpt lat="45.02091" lon="1.84148">
        <ele>170.9</ele>
        <time>2022-08-06T07:03:28Z</time>
      </trkpt>
      <trkpt lat="45.02088" lon="1.84152">
        <ele>170.8</ele>
        <time>2022-08-06T07:03:30Z</time>
      </trkpt>
      <trkpt lat="45.02084" lon="1.84155">
        <ele>170.6</ele>
        <time>2022-08-06T07:03:32Z</time>
      </trkpt>
      <trkpt lat="45.0208" lon="1.84159">
        <ele>170.5</ele>
        <time>2022-08-06T07:03:34Z</time>
      </trkpt>
      <trkpt lat="45.02075" lon="1.84162">
        <ele>170.3</ele>
        <time>2022-08-06T07:03:36Z</time>
      </trkpt>
      <trkpt lat="45.0207" lon="1.84166">
        <ele>170</ele>
        <time>2022-08-06T07:03:38Z</time>
      </trkpt>
      <trkpt lat="45.02065" lon="1.84169">
        <ele>169.9</ele>
        <time>2022-08-06T07:03:40Z</time>
      </trkpt>
      <trkpt lat="45.02061" lon="1.84173">
        <ele>169.9</ele>
        <time>2022-08-06T07:03:42Z</time>
      </trkpt>
      <trkpt lat="45.02057" lon="1.84176">
        <ele>169.8</ele>
        <time>2022-08-06T07:03:44Z</time>
      </trkpt>
      <trkpt lat="45.02055" lon="1.84179">
        <ele>169.7</ele>
        <time>2022-08-06T07:03:46Z</time>
      </trkpt>
      <trkpt lat="45.02053" lon="1.8418">
        <ele>169.6</ele>
        <time>2022-08-06T07:03:48Z</time>
      </trkpt>
      <trkpt lat="45.02051" lon="1.84181">
        <ele>169.6</ele>
        <time>2022-08-06T07:03:50Z</time>
      </trkpt>
      <trkpt lat="45.02052" lon="1.84181">
        <ele>169.6</ele>
        <time>2022-08-06T07:03:52Z</time>
      </trkpt>
      <trkpt lat="45.02051" lon="1.84182">
        <ele>169.6</ele>
        <time>2022-08-06T07:03:54Z</time>
      </trkpt>
      <trkpt lat="45.02051" lon="1.84182">
        <ele>169.6</ele>
        <time>2022-08-06T07:03:56Z</time>
      </trkpt>
      <trkpt lat="45.02033" lon="1.842">
        <ele>168.7</ele>
        <time>2022-08-06T07:04:22Z</time>
      </trkpt>
      <trkpt lat="45.02026" lon="1.84209">
        <ele>168.2</ele>
        <time>2022-08-06T07:04:24Z</time>
      </trkpt>
      <trkpt lat="45.02019" lon="1.8422">
        <ele>167.5</ele>
        <time>2022-08-06T07:04:26Z</time>
      </trkpt>
      <trkpt lat="45.02012" lon="1.84235">
        <ele>166.9</ele>
        <time>2022-08-06T07:04:28Z</time>
      </trkpt>
      <trkpt lat="45.02006" lon="1.84252">
        <ele>166.2</ele>
        <time>2022-08-06T07:04:30Z</time>
      </trkpt>
      <trkpt lat="45.02" lon="1.84269">
        <ele>166.5</ele>
        <time>2022-08-06T07:04:32Z</time>
      </trkpt>
      <trkpt lat="45.01993" lon="1.84286">
        <ele>166.6</ele>
        <time>2022-08-06T07:04:34Z</time>
      </trkpt>
      <trkpt lat="45.01985" lon="1.84301">
        <ele>166</ele>
        <time>2022-08-06T07:04:36Z</time>
      </trkpt>
      <trkpt lat="45.01976" lon="1.84314">
        <ele>164.9</ele>
        <time>2022-08-06T07:04:38Z</time>
      </trkpt>
      <trkpt lat="45.01968" lon="1.84326">
        <ele>163.5</ele>
        <time>2022-08-06T07:04:40Z</time>
      </trkpt>
      <trkpt lat="45.01961" lon="1.84336">
        <ele>162.4</ele>
        <time>2022-08-06T07:04:42Z</time>
      </trkpt>
      <trkpt lat="45.01956" lon="1.84347">
        <ele>161.9</ele>
        <time>2022-08-06T07:04:44Z</time>
      </trkpt>
      <trkpt lat="45.01952" lon="1.84362">
        <ele>161.9</ele>
        <time>2022-08-06T07:04:46Z</time>
      </trkpt>
      <trkpt lat="45.0195" lon="1.8438">
        <ele>162.5</ele>
        <time>2022-08-06T07:04:48Z</time>
      </trkpt>
      <trkpt lat="45.01949" lon="1.844">
        <ele>163.7</ele>
        <time>2022-08-06T07:04:50Z</time>
      </trkpt>
      <trkpt lat="45.01949" lon="1.8442">
        <ele>164.9</ele>
        <time>2022-08-06T07:04:52Z</time>
      </trkpt>
      <trkpt lat="45.01948" lon="1.8444">
        <ele>165.3</ele>
        <time>2022-08-06T07:04:54Z</time>
      </trkpt>
      <trkpt lat="45.01948" lon="1.84459">
        <ele>165.8</ele>
        <time>2022-08-06T07:04:56Z</time>
      </trkpt>
      <trkpt lat="45.01946" lon="1.84477">
        <ele>165.6</ele>
        <time>2022-08-06T07:04:58Z</time>
      </trkpt>
      <trkpt lat="45.01943" lon="1.84494">
        <ele>165.2</ele>
        <time>2022-08-06T07:05:00Z</time>
      </trkpt>
      <trkpt lat="45.01941" lon="1.84511">
        <ele>165.8</ele>
        <time>2022-08-06T07:05:02Z</time>
      </trkpt>
      <trkpt lat="45.01936" lon="1.84526">
        <ele>166.2</ele>
        <time>2022-08-06T07:05:04Z</time>
      </trkpt>
      <trkpt lat="45.0193" lon="1.84541">
        <ele>166.4</ele>
        <time>2022-08-06T07:05:06Z</time>
      </trkpt>
      <trkpt lat="45.01923" lon="1.84555">
        <ele>166.1</ele>
        <time>2022-08-06T07:05:08Z</time>
      </trkpt>
      <trkpt lat="45.01916" lon="1.84568">
        <ele>165.8</ele>
        <time>2022-08-06T07:05:10Z</time>
      </trkpt>
      <trkpt lat="45.01908" lon="1.84582">
        <ele>166.2</ele>
        <time>2022-08-06T07:05:12Z</time>
      </trkpt>
      <trkpt lat="45.01908" lon="1.84593">
        <ele>167.4</ele>
        <time>2022-08-06T07:05:14Z</time>
      </trkpt>
      <trkpt lat="45.01903" lon="1.84604">
        <ele>167.9</ele>
        <time>2022-08-06T07:05:16Z</time>
      </trkpt>
      <trkpt lat="45.01899" lon="1.84615">
        <ele>168.1</ele>
        <time>2022-08-06T07:05:18Z</time>
      </trkpt>
      <trkpt lat="45.01895" lon="1.84625">
        <ele>168.3</ele>
        <time>2022-08-06T07:05:20Z</time>
      </trkpt>
      <trkpt lat="45.01891" lon="1.84634">
        <ele>168.4</ele>
        <time>2022-08-06T07:05:22Z</time>
      </trkpt>
      <trkpt lat="45.01888" lon="1.84643">
        <ele>168.5</ele>
        <time>2022-08-06T07:05:24Z</time>
      </trkpt>
      <trkpt lat="45.01885" lon="1.84652">
        <ele>168.3</ele>
        <time>2022-08-06T07:05:26Z</time>
      </trkpt>
      <trkpt lat="45.01881" lon="1.84659">
        <ele>168.1</ele>
        <time>2022-08-06T07:05:28Z</time>
      </trkpt>
      <trkpt lat="45.01878" lon="1.84668">
        <ele>168</ele>
        <time>2022-08-06T07:05:30Z</time>
      </trkpt>
      <trkpt lat="45.01875" lon="1.84676">
        <ele>168</ele>
        <time>2022-08-06T07:05:32Z</time>
      </trkpt>
      <trkpt lat="45.01871" lon="1.84684">
        <ele>168</ele>
        <time>2022-08-06T07:05:34Z</time>
      </trkpt>
      <trkpt lat="45.01868" lon="1.84692">
        <ele>168.1</ele>
        <time>2022-08-06T07:05:36Z</time>
      </trkpt>
      <trkpt lat="45.01865" lon="1.847">
        <ele>168.3</ele>
        <time>2022-08-06T07:05:38Z</time>
      </trkpt>
      <trkpt lat="45.01862" lon="1.84707">
        <ele>168.4</ele>
        <time>2022-08-06T07:05:40Z</time>
      </trkpt>
      <trkpt lat="45.01859" lon="1.84713">
        <ele>168.5</ele>
        <time>2022-08-06T07:05:42Z</time>
      </trkpt>
      <trkpt lat="45.01856" lon="1.84719">
        <ele>168.5</ele>
        <time>2022-08-06T07:05:44Z</time>
      </trkpt>
      <trkpt lat="45.01854" lon="1.84725">
        <ele>168.7</ele>
        <time>2022-08-06T07:05:46Z</time>
      </trkpt>
      <trkpt lat="45.01851" lon="1.84731">
        <ele>168.8</ele>
        <time>2022-08-06T07:05:48Z</time>
      </trkpt>
      <trkpt lat="45.01849" lon="1.84735">
        <ele>168.8</ele>
        <time>2022-08-06T07:05:50Z</time>
      </trkpt>
      <trkpt lat="45.01846" lon="1.84741">
        <ele>168.9</ele>
        <time>2022-08-06T07:05:52Z</time>
      </trkpt>
      <trkpt lat="45.01843" lon="1.84746">
        <ele>168.8</ele>
        <time>2022-08-06T07:05:54Z</time>
      </trkpt>
      <trkpt lat="45.01841" lon="1.8475">
        <ele>168.9</ele>
        <time>2022-08-06T07:05:56Z</time>
      </trkpt>
      <trkpt lat="45.01838" lon="1.84755">
        <ele>169.5</ele>
        <time>2022-08-06T07:05:58Z</time>
      </trkpt>
      <trkpt lat="45.01835" lon="1.8476">
        <ele>169.9</ele>
        <time>2022-08-06T07:06:00Z</time>
      </trkpt>
      <trkpt lat="45.01832" lon="1.84765">
        <ele>170.6</ele>
        <time>2022-08-06T07:06:02Z</time>
      </trkpt>
      <trkpt lat="45.01828" lon="1.8477">
        <ele>171.2</ele>
        <time>2022-08-06T07:06:04Z</time>
      </trkpt>
      <trkpt lat="45.01826" lon="1.84775">
        <ele>171.8</ele>
        <time>2022-08-06T07:06:06Z</time>
      </trkpt>
      <trkpt lat="45.01822" lon="1.8478">
        <ele>172.4</ele>
        <time>2022-08-06T07:06:08Z</time>
      </trkpt>
      <trkpt lat="45.01819" lon="1.84785">
        <ele>173</ele>
        <time>2022-08-06T07:06:10Z</time>
      </trkpt>
      <trkpt lat="45.01816" lon="1.8479">
        <ele>173.5</ele>
        <time>2022-08-06T07:06:12Z</time>
      </trkpt>
      <trkpt lat="45.01812" lon="1.84797">
        <ele>174.2</ele>
        <time>2022-08-06T07:06:14Z</time>
      </trkpt>
      <trkpt lat="45.01808" lon="1.84802">
        <ele>174.5</ele>
        <time>2022-08-06T07:06:16Z</time>
      </trkpt>
      <trkpt lat="45.01802" lon="1.84808">
        <ele>174.6</ele>
        <time>2022-08-06T07:06:18Z</time>
      </trkpt>
      <trkpt lat="45.01796" lon="1.84815">
        <ele>174.7</ele>
        <time>2022-08-06T07:06:20Z</time>
      </trkpt>
      <trkpt lat="45.0179" lon="1.84821">
        <ele>174.6</ele>
        <time>2022-08-06T07:06:22Z</time>
      </trkpt>
      <trkpt lat="45.01784" lon="1.84826">
        <ele>174</ele>
        <time>2022-08-06T07:06:24Z</time>
      </trkpt>
      <trkpt lat="45.01776" lon="1.84832">
        <ele>173.3</ele>
        <time>2022-08-06T07:06:26Z</time>
      </trkpt>
      <trkpt lat="45.01769" lon="1.84837">
        <ele>172.7</ele>
        <time>2022-08-06T07:06:28Z</time>
      </trkpt>
      <trkpt lat="45.01761" lon="1.84842">
        <ele>172.1</ele>
        <time>2022-08-06T07:06:30Z</time>
      </trkpt>
      <trkpt lat="45.01754" lon="1.84848">
        <ele>171.8</ele>
        <time>2022-08-06T07:06:32Z</time>
      </trkpt>
      <trkpt lat="45.01746" lon="1.84854">
        <ele>171.9</ele>
        <time>2022-08-06T07:06:34Z</time>
      </trkpt>
      <trkpt lat="45.01737" lon="1.8486">
        <ele>172.4</ele>
        <time>2022-08-06T07:06:36Z</time>
      </trkpt>
      <trkpt lat="45.01728" lon="1.84867">
        <ele>172.7</ele>
        <time>2022-08-06T07:06:38Z</time>
      </trkpt>
      <trkpt lat="45.01719" lon="1.84873">
        <ele>172.8</ele>
        <time>2022-08-06T07:06:40Z</time>
      </trkpt>
      <trkpt lat="45.0171" lon="1.84879">
        <ele>172.8</ele>
        <time>2022-08-06T07:06:42Z</time>
      </trkpt>
      <trkpt lat="45.017" lon="1.84884">
        <ele>172.5</ele>
        <time>2022-08-06T07:06:44Z</time>
      </trkpt>
      <trkpt lat="45.0169" lon="1.8489">
        <ele>171.9</ele>
        <time>2022-08-06T07:06:46Z</time>
      </trkpt>
      <trkpt lat="45.01679" lon="1.84895">
        <ele>171.3</ele>
        <time>2022-08-06T07:06:48Z</time>
      </trkpt>
      <trkpt lat="45.01668" lon="1.849">
        <ele>170.4</ele>
        <time>2022-08-06T07:06:50Z</time>
      </trkpt>
      <trkpt lat="45.01657" lon="1.84906">
        <ele>169.7</ele>
        <time>2022-08-06T07:06:52Z</time>
      </trkpt>
      <trkpt lat="45.01647" lon="1.84914">
        <ele>169.3</ele>
        <time>2022-08-06T07:06:54Z</time>
      </trkpt>
      <trkpt lat="45.01636" lon="1.84924">
        <ele>169.7</ele>
        <time>2022-08-06T07:06:56Z</time>
      </trkpt>
      <trkpt lat="45.01626" lon="1.84935">
        <ele>170.5</ele>
        <time>2022-08-06T07:06:58Z</time>
      </trkpt>
      <trkpt lat="45.01616" lon="1.84946">
        <ele>171.3</ele>
        <time>2022-08-06T07:07:00Z</time>
      </trkpt>
      <trkpt lat="45.01606" lon="1.84957">
        <ele>172.2</ele>
        <time>2022-08-06T07:07:02Z</time>
      </trkpt>
      <trkpt lat="45.01595" lon="1.84968">
        <ele>172.9</ele>
        <time>2022-08-06T07:07:04Z</time>
      </trkpt>
      <trkpt lat="45.01583" lon="1.84981">
        <ele>173.7</ele>
        <time>2022-08-06T07:07:06Z</time>
      </trkpt>
      <trkpt lat="45.0157" lon="1.84993">
        <ele>173.3</ele>
        <time>2022-08-06T07:07:08Z</time>
      </trkpt>
      <trkpt lat="45.0156" lon="1.85002">
        <ele>172.1</ele>
        <time>2022-08-06T07:07:10Z</time>
      </trkpt>
      <trkpt lat="45.01555" lon="1.8501">
        <ele>172.6</ele>
        <time>2022-08-06T07:07:12Z</time>
      </trkpt>
      <trkpt lat="45.01546" lon="1.85019">
        <ele>172</ele>
        <time>2022-08-06T07:07:14Z</time>
      </trkpt>
      <trkpt lat="45.01537" lon="1.8503">
        <ele>171.2</ele>
        <time>2022-08-06T07:07:16Z</time>
      </trkpt>
      <trkpt lat="45.01529" lon="1.8504">
        <ele>170.7</ele>
        <time>2022-08-06T07:07:18Z</time>
      </trkpt>
      <trkpt lat="45.0152" lon="1.85049">
        <ele>169.5</ele>
        <time>2022-08-06T07:07:20Z</time>
      </trkpt>
      <trkpt lat="45.01513" lon="1.85059">
        <ele>168.6</ele>
        <time>2022-08-06T07:07:22Z</time>
      </trkpt>
      <trkpt lat="45.01507" lon="1.8507">
        <ele>168.3</ele>
        <time>2022-08-06T07:07:24Z</time>
      </trkpt>
      <trkpt lat="45.01501" lon="1.85079">
        <ele>167.7</ele>
        <time>2022-08-06T07:07:26Z</time>
      </trkpt>
      <trkpt lat="45.01497" lon="1.85089">
        <ele>168.8</ele>
        <time>2022-08-06T07:07:28Z</time>
      </trkpt>
      <trkpt lat="45.01495" lon="1.85095">
        <ele>169.9</ele>
        <time>2022-08-06T07:07:30Z</time>
      </trkpt>
      <trkpt lat="45.0149" lon="1.85105">
        <ele>171.2</ele>
        <time>2022-08-06T07:07:32Z</time>
      </trkpt>
      <trkpt lat="45.01485" lon="1.85113">
        <ele>172</ele>
        <time>2022-08-06T07:07:34Z</time>
      </trkpt>
      <trkpt lat="45.0148" lon="1.85122">
        <ele>172.7</ele>
        <time>2022-08-06T07:07:36Z</time>
      </trkpt>
      <trkpt lat="45.01473" lon="1.85133">
        <ele>173</ele>
        <time>2022-08-06T07:07:38Z</time>
      </trkpt>
      <trkpt lat="45.01467" lon="1.85153">
        <ele>174.9</ele>
        <time>2022-08-06T07:07:40Z</time>
      </trkpt>
      <trkpt lat="45.01459" lon="1.85167">
        <ele>174.6</ele>
        <time>2022-08-06T07:07:42Z</time>
      </trkpt>
      <trkpt lat="45.01453" lon="1.85176">
        <ele>174.9</ele>
        <time>2022-08-06T07:07:44Z</time>
      </trkpt>
      <trkpt lat="45.01448" lon="1.85185">
        <ele>175.7</ele>
        <time>2022-08-06T07:07:46Z</time>
      </trkpt>
      <trkpt lat="45.01443" lon="1.85194">
        <ele>176.1</ele>
        <time>2022-08-06T07:07:48Z</time>
      </trkpt>
      <trkpt lat="45.01436" lon="1.85201">
        <ele>176.2</ele>
        <time>2022-08-06T07:07:50Z</time>
      </trkpt>
      <trkpt lat="45.0143" lon="1.85209">
        <ele>176.3</ele>
        <time>2022-08-06T07:07:52Z</time>
      </trkpt>
      <trkpt lat="45.01423" lon="1.85216">
        <ele>175.8</ele>
        <time>2022-08-06T07:07:54Z</time>
      </trkpt>
      <trkpt lat="45.01414" lon="1.85221">
        <ele>174.9</ele>
        <time>2022-08-06T07:07:56Z</time>
      </trkpt>
      <trkpt lat="45.01407" lon="1.85226">
        <ele>174.6</ele>
        <time>2022-08-06T07:07:58Z</time>
      </trkpt>
      <trkpt lat="45.01399" lon="1.85232">
        <ele>174.2</ele>
        <time>2022-08-06T07:08:00Z</time>
      </trkpt>
      <trkpt lat="45.0139" lon="1.85238">
        <ele>173.1</ele>
        <time>2022-08-06T07:08:02Z</time>
      </trkpt>
      <trkpt lat="45.01382" lon="1.85245">
        <ele>172</ele>
        <time>2022-08-06T07:08:04Z</time>
      </trkpt>
      <trkpt lat="45.01374" lon="1.85252">
        <ele>171.2</ele>
        <time>2022-08-06T07:08:06Z</time>
      </trkpt>
      <trkpt lat="45.01366" lon="1.85259">
        <ele>170.8</ele>
        <time>2022-08-06T07:08:08Z</time>
      </trkpt>
      <trkpt lat="45.01358" lon="1.85265">
        <ele>170</ele>
        <time>2022-08-06T07:08:10Z</time>
      </trkpt>
      <trkpt lat="45.01348" lon="1.8527">
        <ele>168.3</ele>
        <time>2022-08-06T07:08:12Z</time>
      </trkpt>
      <trkpt lat="45.01339" lon="1.85276">
        <ele>167</ele>
        <time>2022-08-06T07:08:14Z</time>
      </trkpt>
      <trkpt lat="45.01332" lon="1.85282">
        <ele>166.8</ele>
        <time>2022-08-06T07:08:16Z</time>
      </trkpt>
      <trkpt lat="45.01327" lon="1.8529">
        <ele>167.9</ele>
        <time>2022-08-06T07:08:18Z</time>
      </trkpt>
      <trkpt lat="45.01323" lon="1.85297">
        <ele>169</ele>
        <time>2022-08-06T07:08:20Z</time>
      </trkpt>
      <trkpt lat="45.0132" lon="1.85304">
        <ele>170.1</ele>
        <time>2022-08-06T07:08:22Z</time>
      </trkpt>
      <trkpt lat="45.01318" lon="1.8531">
        <ele>171.2</ele>
        <time>2022-08-06T07:08:24Z</time>
      </trkpt>
      <trkpt lat="45.01317" lon="1.85317">
        <ele>172.4</ele>
        <time>2022-08-06T07:08:26Z</time>
      </trkpt>
      <trkpt lat="45.01315" lon="1.85324">
        <ele>173.8</ele>
        <time>2022-08-06T07:08:28Z</time>
      </trkpt>
      <trkpt lat="45.01314" lon="1.8533">
        <ele>174.8</ele>
        <time>2022-08-06T07:08:30Z</time>
      </trkpt>
      <trkpt lat="45.01312" lon="1.85335">
        <ele>175.7</ele>
        <time>2022-08-06T07:08:32Z</time>
      </trkpt>
      <trkpt lat="45.01311" lon="1.85341">
        <ele>176.6</ele>
        <time>2022-08-06T07:08:34Z</time>
      </trkpt>
      <trkpt lat="45.01309" lon="1.85346">
        <ele>177.2</ele>
        <time>2022-08-06T07:08:36Z</time>
      </trkpt>
      <trkpt lat="45.01307" lon="1.85352">
        <ele>177.8</ele>
        <time>2022-08-06T07:08:38Z</time>
      </trkpt>
      <trkpt lat="45.01304" lon="1.85356">
        <ele>178.1</ele>
        <time>2022-08-06T07:08:40Z</time>
      </trkpt>
      <trkpt lat="45.01301" lon="1.85361">
        <ele>178.3</ele>
        <time>2022-08-06T07:08:42Z</time>
      </trkpt>
      <trkpt lat="45.01297" lon="1.85366">
        <ele>178.1</ele>
        <time>2022-08-06T07:08:44Z</time>
      </trkpt>
      <trkpt lat="45.01294" lon="1.8537">
        <ele>178.4</ele>
        <time>2022-08-06T07:08:46Z</time>
      </trkpt>
      <trkpt lat="45.01292" lon="1.85377">
        <ele>179.2</ele>
        <time>2022-08-06T07:08:48Z</time>
      </trkpt>
      <trkpt lat="45.01288" lon="1.85382">
        <ele>179.4</ele>
        <time>2022-08-06T07:08:50Z</time>
      </trkpt>
      <trkpt lat="45.01285" lon="1.85388">
        <ele>179.4</ele>
        <time>2022-08-06T07:08:52Z</time>
      </trkpt>
      <trkpt lat="45.0128" lon="1.85394">
        <ele>179.3</ele>
        <time>2022-08-06T07:08:54Z</time>
      </trkpt>
      <trkpt lat="45.01275" lon="1.85401">
        <ele>179.2</ele>
        <time>2022-08-06T07:08:56Z</time>
      </trkpt>
      <trkpt lat="45.01269" lon="1.85408">
        <ele>178.9</ele>
        <time>2022-08-06T07:08:58Z</time>
      </trkpt>
      <trkpt lat="45.01261" lon="1.85415">
        <ele>178.1</ele>
        <time>2022-08-06T07:09:00Z</time>
      </trkpt>
      <trkpt lat="45.01251" lon="1.8542">
        <ele>175.9</ele>
        <time>2022-08-06T07:09:02Z</time>
      </trkpt>
      <trkpt lat="45.01241" lon="1.85424">
        <ele>176.5</ele>
        <time>2022-08-06T07:09:04Z</time>
      </trkpt>
      <trkpt lat="45.0123" lon="1.85423">
        <ele>176.9</ele>
        <time>2022-08-06T07:09:06Z</time>
      </trkpt>
      <trkpt lat="45.01219" lon="1.85422">
        <ele>177.2</ele>
        <time>2022-08-06T07:09:08Z</time>
      </trkpt>
      <trkpt lat="45.01209" lon="1.85419">
        <ele>177</ele>
        <time>2022-08-06T07:09:10Z</time>
      </trkpt>
      <trkpt lat="45.01198" lon="1.85417">
        <ele>176.9</ele>
        <time>2022-08-06T07:09:12Z</time>
      </trkpt>
      <trkpt lat="45.01188" lon="1.85413">
        <ele>176.3</ele>
        <time>2022-08-06T07:09:14Z</time>
      </trkpt>
      <trkpt lat="45.01177" lon="1.85411">
        <ele>175.9</ele>
        <time>2022-08-06T07:09:16Z</time>
      </trkpt>
      <trkpt lat="45.01167" lon="1.85407">
        <ele>175</ele>
        <time>2022-08-06T07:09:18Z</time>
      </trkpt>
      <trkpt lat="45.01155" lon="1.85405">
        <ele>174.6</ele>
        <time>2022-08-06T07:09:20Z</time>
      </trkpt>
      <trkpt lat="45.01144" lon="1.85402">
        <ele>173.8</ele>
        <time>2022-08-06T07:09:22Z</time>
      </trkpt>
      <trkpt lat="45.01132" lon="1.85398">
        <ele>172.8</ele>
        <time>2022-08-06T07:09:24Z</time>
      </trkpt>
      <trkpt lat="45.0112" lon="1.85394">
        <ele>171.9</ele>
        <time>2022-08-06T07:09:26Z</time>
      </trkpt>
      <trkpt lat="45.01108" lon="1.85391">
        <ele>171.1</ele>
        <time>2022-08-06T07:09:28Z</time>
      </trkpt>
      <trkpt lat="45.01096" lon="1.85389">
        <ele>170.8</ele>
        <time>2022-08-06T07:09:30Z</time>
      </trkpt>
      <trkpt lat="45.01084" lon="1.85386">
        <ele>170.4</ele>
        <time>2022-08-06T07:09:32Z</time>
      </trkpt>
      <trkpt lat="45.01072" lon="1.85385">
        <ele>169.7</ele>
        <time>2022-08-06T07:09:34Z</time>
      </trkpt>
      <trkpt lat="45.01061" lon="1.85386">
        <ele>169.5</ele>
        <time>2022-08-06T07:09:36Z</time>
      </trkpt>
      <trkpt lat="45.01046" lon="1.85387">
        <ele>169.3</ele>
        <time>2022-08-06T07:09:38Z</time>
      </trkpt>
      <trkpt lat="45.01035" lon="1.85389">
        <ele>169.2</ele>
        <time>2022-08-06T07:09:40Z</time>
      </trkpt>
      <trkpt lat="45.01023" lon="1.8539">
        <ele>169</ele>
        <time>2022-08-06T07:09:42Z</time>
      </trkpt>
      <trkpt lat="45.01012" lon="1.8539">
        <ele>168.6</ele>
        <time>2022-08-06T07:09:44Z</time>
      </trkpt>
      <trkpt lat="45.01" lon="1.85393">
        <ele>168.9</ele>
        <time>2022-08-06T07:09:46Z</time>
      </trkpt>
      <trkpt lat="45.00988" lon="1.85395">
        <ele>169</ele>
        <time>2022-08-06T07:09:48Z</time>
      </trkpt>
      <trkpt lat="45.00977" lon="1.85398">
        <ele>169.3</ele>
        <time>2022-08-06T07:09:50Z</time>
      </trkpt>
      <trkpt lat="45.00968" lon="1.85399">
        <ele>169.1</ele>
        <time>2022-08-06T07:09:52Z</time>
      </trkpt>
      <trkpt lat="45.00956" lon="1.85401">
        <ele>169.1</ele>
        <time>2022-08-06T07:09:54Z</time>
      </trkpt>
      <trkpt lat="45.00946" lon="1.85401">
        <ele>168.7</ele>
        <time>2022-08-06T07:09:56Z</time>
      </trkpt>
      <trkpt lat="45.00935" lon="1.85402">
        <ele>168.7</ele>
        <time>2022-08-06T07:09:58Z</time>
      </trkpt>
      <trkpt lat="45.00923" lon="1.85405">
        <ele>168.8</ele>
        <time>2022-08-06T07:10:00Z</time>
      </trkpt>
      <trkpt lat="45.00912" lon="1.85405">
        <ele>168.6</ele>
        <time>2022-08-06T07:10:02Z</time>
      </trkpt>
      <trkpt lat="45.009" lon="1.85406">
        <ele>169.2</ele>
        <time>2022-08-06T07:10:04Z</time>
      </trkpt>
      <trkpt lat="45.0089" lon="1.85405">
        <ele>169.1</ele>
        <time>2022-08-06T07:10:06Z</time>
      </trkpt>
      <trkpt lat="45.00881" lon="1.85402">
        <ele>168.7</ele>
        <time>2022-08-06T07:10:08Z</time>
      </trkpt>
      <trkpt lat="45.00871" lon="1.85401">
        <ele>168.6</ele>
        <time>2022-08-06T07:10:10Z</time>
      </trkpt>
      <trkpt lat="45.00863" lon="1.85404">
        <ele>169.3</ele>
        <time>2022-08-06T07:10:12Z</time>
      </trkpt>
      <trkpt lat="45.00854" lon="1.85404">
        <ele>169.4</ele>
        <time>2022-08-06T07:10:14Z</time>
      </trkpt>
      <trkpt lat="45.00845" lon="1.85403">
        <ele>169.3</ele>
        <time>2022-08-06T07:10:16Z</time>
      </trkpt>
      <trkpt lat="45.00836" lon="1.85403">
        <ele>169.5</ele>
        <time>2022-08-06T07:10:18Z</time>
      </trkpt>
      <trkpt lat="45.00827" lon="1.85403">
        <ele>169.4</ele>
        <time>2022-08-06T07:10:20Z</time>
      </trkpt>
      <trkpt lat="45.00818" lon="1.85403">
        <ele>169.2</ele>
        <time>2022-08-06T07:10:22Z</time>
      </trkpt>
      <trkpt lat="45.00809" lon="1.85404">
        <ele>169.3</ele>
        <time>2022-08-06T07:10:24Z</time>
      </trkpt>
      <trkpt lat="45.008" lon="1.85404">
        <ele>169.3</ele>
        <time>2022-08-06T07:10:26Z</time>
      </trkpt>
      <trkpt lat="45.00791" lon="1.85404">
        <ele>169</ele>
        <time>2022-08-06T07:10:28Z</time>
      </trkpt>
      <trkpt lat="45.00782" lon="1.85404">
        <ele>169</ele>
        <time>2022-08-06T07:10:30Z</time>
      </trkpt>
      <trkpt lat="45.00774" lon="1.85404">
        <ele>168.8</ele>
        <time>2022-08-06T07:10:32Z</time>
      </trkpt>
      <trkpt lat="45.00765" lon="1.85404">
        <ele>168.4</ele>
        <time>2022-08-06T07:10:34Z</time>
      </trkpt>
      <trkpt lat="45.00756" lon="1.85404">
        <ele>168.5</ele>
        <time>2022-08-06T07:10:36Z</time>
      </trkpt>
      <trkpt lat="45.00747" lon="1.85405">
        <ele>168.4</ele>
        <time>2022-08-06T07:10:38Z</time>
      </trkpt>
      <trkpt lat="45.00738" lon="1.85404">
        <ele>168.1</ele>
        <time>2022-08-06T07:10:40Z</time>
      </trkpt>
      <trkpt lat="45.00729" lon="1.85405">
        <ele>168.3</ele>
        <time>2022-08-06T07:10:42Z</time>
      </trkpt>
      <trkpt lat="45.00721" lon="1.85404">
        <ele>168.2</ele>
        <time>2022-08-06T07:10:44Z</time>
      </trkpt>
      <trkpt lat="45.00712" lon="1.85404">
        <ele>168.2</ele>
        <time>2022-08-06T07:10:46Z</time>
      </trkpt>
      <trkpt lat="45.00704" lon="1.85404">
        <ele>168.2</ele>
        <time>2022-08-06T07:10:48Z</time>
      </trkpt>
      <trkpt lat="45.00695" lon="1.85403">
        <ele>167.9</ele>
        <time>2022-08-06T07:10:50Z</time>
      </trkpt>
      <trkpt lat="45.00687" lon="1.85403">
        <ele>167.9</ele>
        <time>2022-08-06T07:10:52Z</time>
      </trkpt>
      <trkpt lat="45.00679" lon="1.85402">
        <ele>167.6</ele>
        <time>2022-08-06T07:10:54Z</time>
      </trkpt>
      <trkpt lat="45.0067" lon="1.85401">
        <ele>167.4</ele>
        <time>2022-08-06T07:10:56Z</time>
      </trkpt>
      <trkpt lat="45.00661" lon="1.854">
        <ele>167.4</ele>
        <time>2022-08-06T07:10:58Z</time>
      </trkpt>
      <trkpt lat="45.00653" lon="1.85399">
        <ele>167.4</ele>
        <time>2022-08-06T07:11:00Z</time>
      </trkpt>
      <trkpt lat="45.00644" lon="1.85397">
        <ele>167.2</ele>
        <time>2022-08-06T07:11:02Z</time>
      </trkpt>
      <trkpt lat="45.00636" lon="1.85397">
        <ele>167.2</ele>
        <time>2022-08-06T07:11:04Z</time>
      </trkpt>
      <trkpt lat="45.00628" lon="1.85395">
        <ele>167.1</ele>
        <time>2022-08-06T07:11:06Z</time>
      </trkpt>
      <trkpt lat="45.0062" lon="1.85393">
        <ele>166.9</ele>
        <time>2022-08-06T07:11:08Z</time>
      </trkpt>
      <trkpt lat="45.00612" lon="1.85392">
        <ele>166.8</ele>
        <time>2022-08-06T07:11:10Z</time>
      </trkpt>
      <trkpt lat="45.00603" lon="1.85389">
        <ele>166.3</ele>
        <time>2022-08-06T07:11:12Z</time>
      </trkpt>
      <trkpt lat="45.00595" lon="1.85388">
        <ele>166.2</ele>
        <time>2022-08-06T07:11:14Z</time>
      </trkpt>
      <trkpt lat="45.00587" lon="1.85387">
        <ele>166</ele>
        <time>2022-08-06T07:11:16Z</time>
      </trkpt>
      <trkpt lat="45.00579" lon="1.85385">
        <ele>166.4</ele>
        <time>2022-08-06T07:11:18Z</time>
      </trkpt>
      <trkpt lat="45.0057" lon="1.85384">
        <ele>167.5</ele>
        <time>2022-08-06T07:11:20Z</time>
      </trkpt>
      <trkpt lat="45.00563" lon="1.85382">
        <ele>168.3</ele>
        <time>2022-08-06T07:11:22Z</time>
      </trkpt>
      <trkpt lat="45.00555" lon="1.85381">
        <ele>169.3</ele>
        <time>2022-08-06T07:11:24Z</time>
      </trkpt>
      <trkpt lat="45.00547" lon="1.85379">
        <ele>170.4</ele>
        <time>2022-08-06T07:11:26Z</time>
      </trkpt>
      <trkpt lat="45.00539" lon="1.85376">
        <ele>171.2</ele>
        <time>2022-08-06T07:11:28Z</time>
      </trkpt>
      <trkpt lat="45.00531" lon="1.85372">
        <ele>171.9</ele>
        <time>2022-08-06T07:11:30Z</time>
      </trkpt>
      <trkpt lat="45.00522" lon="1.85366">
        <ele>172.6</ele>
        <time>2022-08-06T07:11:32Z</time>
      </trkpt>
      <trkpt lat="45.00513" lon="1.85359">
        <ele>172.9</ele>
        <time>2022-08-06T07:11:34Z</time>
      </trkpt>
      <trkpt lat="45.00505" lon="1.85347">
        <ele>172.9</ele>
        <time>2022-08-06T07:11:36Z</time>
      </trkpt>
      <trkpt lat="45.00496" lon="1.85333">
        <ele>173.7</ele>
        <time>2022-08-06T07:11:38Z</time>
      </trkpt>
      <trkpt lat="45.0049" lon="1.85316">
        <ele>172.2</ele>
        <time>2022-08-06T07:11:40Z</time>
      </trkpt>
      <trkpt lat="45.00483" lon="1.85299">
        <ele>171</ele>
        <time>2022-08-06T07:11:42Z</time>
      </trkpt>
      <trkpt lat="45.00472" lon="1.8528">
        <ele>169.7</ele>
        <time>2022-08-06T07:11:44Z</time>
      </trkpt>
      <trkpt lat="45.00461" lon="1.85263">
        <ele>168</ele>
        <time>2022-08-06T07:11:46Z</time>
      </trkpt>
      <trkpt lat="45.00447" lon="1.85251">
        <ele>167.9</ele>
        <time>2022-08-06T07:11:48Z</time>
      </trkpt>
      <trkpt lat="45.00434" lon="1.85238">
        <ele>167.6</ele>
        <time>2022-08-06T07:11:50Z</time>
      </trkpt>
      <trkpt lat="45.00421" lon="1.85226">
        <ele>167.3</ele>
        <time>2022-08-06T07:11:52Z</time>
      </trkpt>
      <trkpt lat="45.00409" lon="1.85213">
        <ele>166.3</ele>
        <time>2022-08-06T07:11:54Z</time>
      </trkpt>
      <trkpt lat="45.00398" lon="1.85201">
        <ele>166</ele>
        <time>2022-08-06T07:11:56Z</time>
      </trkpt>
      <trkpt lat="45.00388" lon="1.85186">
        <ele>165.4</ele>
        <time>2022-08-06T07:11:58Z</time>
      </trkpt>
      <trkpt lat="45.00378" lon="1.85172">
        <ele>165.2</ele>
        <time>2022-08-06T07:12:00Z</time>
      </trkpt>
      <trkpt lat="45.00368" lon="1.85158">
        <ele>166</ele>
        <time>2022-08-06T07:12:02Z</time>
      </trkpt>
      <trkpt lat="45.00358" lon="1.85142">
        <ele>167.2</ele>
        <time>2022-08-06T07:12:04Z</time>
      </trkpt>
      <trkpt lat="45.00349" lon="1.85124">
        <ele>167.4</ele>
        <time>2022-08-06T07:12:06Z</time>
      </trkpt>
      <trkpt lat="45.00346" lon="1.85104">
        <ele>165.8</ele>
        <time>2022-08-06T07:12:08Z</time>
      </trkpt>
      <trkpt lat="45.00344" lon="1.85084">
        <ele>163.7</ele>
        <time>2022-08-06T07:12:10Z</time>
      </trkpt>
      <trkpt lat="45.00343" lon="1.85066">
        <ele>160.9</ele>
        <time>2022-08-06T07:12:12Z</time>
      </trkpt>
      <trkpt lat="45.0034" lon="1.85049">
        <ele>158.8</ele>
        <time>2022-08-06T07:12:14Z</time>
      </trkpt>
      <trkpt lat="45.0033" lon="1.85037">
        <ele>159.6</ele>
        <time>2022-08-06T07:12:16Z</time>
      </trkpt>
      <trkpt lat="45.00321" lon="1.85026">
        <ele>163.6</ele>
        <time>2022-08-06T07:12:18Z</time>
      </trkpt>
      <trkpt lat="45.00312" lon="1.85015">
        <ele>166.6</ele>
        <time>2022-08-06T07:12:20Z</time>
      </trkpt>
      <trkpt lat="45.00305" lon="1.85004">
        <ele>168.3</ele>
        <time>2022-08-06T07:12:22Z</time>
      </trkpt>
      <trkpt lat="45.00297" lon="1.84995">
        <ele>170.5</ele>
        <time>2022-08-06T07:12:24Z</time>
      </trkpt>
      <trkpt lat="45.00291" lon="1.84984">
        <ele>171.1</ele>
        <time>2022-08-06T07:12:26Z</time>
      </trkpt>
      <trkpt lat="45.00285" lon="1.84975">
        <ele>171.6</ele>
        <time>2022-08-06T07:12:28Z</time>
      </trkpt>
      <trkpt lat="45.00279" lon="1.84966">
        <ele>172.1</ele>
        <time>2022-08-06T07:12:30Z</time>
      </trkpt>
      <trkpt lat="45.00273" lon="1.84958">
        <ele>171.9</ele>
        <time>2022-08-06T07:12:32Z</time>
      </trkpt>
      <trkpt lat="45.00269" lon="1.8495">
        <ele>170.8</ele>
        <time>2022-08-06T07:12:34Z</time>
      </trkpt>
      <trkpt lat="45.00265" lon="1.84943">
        <ele>169.9</ele>
        <time>2022-08-06T07:12:36Z</time>
      </trkpt>
      <trkpt lat="45.00261" lon="1.84938">
        <ele>169.4</ele>
        <time>2022-08-06T07:12:38Z</time>
      </trkpt>
      <trkpt lat="45.00255" lon="1.84931">
        <ele>168.6</ele>
        <time>2022-08-06T07:12:40Z</time>
      </trkpt>
      <trkpt lat="45.00249" lon="1.84925">
        <ele>167.7</ele>
        <time>2022-08-06T07:12:42Z</time>
      </trkpt>
      <trkpt lat="45.00244" lon="1.84919">
        <ele>167</ele>
        <time>2022-08-06T07:12:44Z</time>
      </trkpt>
      <trkpt lat="45.00238" lon="1.84914">
        <ele>167.7</ele>
        <time>2022-08-06T07:12:46Z</time>
      </trkpt>
      <trkpt lat="45.00232" lon="1.84909">
        <ele>168.6</ele>
        <time>2022-08-06T07:12:48Z</time>
      </trkpt>
      <trkpt lat="45.00227" lon="1.84905">
        <ele>169.3</ele>
        <time>2022-08-06T07:12:50Z</time>
      </trkpt>
      <trkpt lat="45.00221" lon="1.849">
        <ele>170</ele>
        <time>2022-08-06T07:12:52Z</time>
      </trkpt>
      <trkpt lat="45.00216" lon="1.84896">
        <ele>170.8</ele>
        <time>2022-08-06T07:12:54Z</time>
      </trkpt>
      <trkpt lat="45.0021" lon="1.84891">
        <ele>171.1</ele>
        <time>2022-08-06T07:12:56Z</time>
      </trkpt>
      <trkpt lat="45.00206" lon="1.84887">
        <ele>171.4</ele>
        <time>2022-08-06T07:12:58Z</time>
      </trkpt>
      <trkpt lat="45.00201" lon="1.84881">
        <ele>171.1</ele>
        <time>2022-08-06T07:13:00Z</time>
      </trkpt>
      <trkpt lat="45.00196" lon="1.84877">
        <ele>171.4</ele>
        <time>2022-08-06T07:13:02Z</time>
      </trkpt>
      <trkpt lat="45.0019" lon="1.84872">
        <ele>171.5</ele>
        <time>2022-08-06T07:13:04Z</time>
      </trkpt>
      <trkpt lat="45.00186" lon="1.84868">
        <ele>171.2</ele>
        <time>2022-08-06T07:13:06Z</time>
      </trkpt>
      <trkpt lat="45.00181" lon="1.84862">
        <ele>170.7</ele>
        <time>2022-08-06T07:13:08Z</time>
      </trkpt>
      <trkpt lat="45.00176" lon="1.8486">
        <ele>171</ele>
        <time>2022-08-06T07:13:10Z</time>
      </trkpt>
      <trkpt lat="45.0017" lon="1.84857">
        <ele>171.3</ele>
        <time>2022-08-06T07:13:12Z</time>
      </trkpt>
      <trkpt lat="45.00164" lon="1.84855">
        <ele>171.6</ele>
        <time>2022-08-06T07:13:14Z</time>
      </trkpt>
      <trkpt lat="45.0016" lon="1.84852">
        <ele>171.4</ele>
        <time>2022-08-06T07:13:16Z</time>
      </trkpt>
      <trkpt lat="45.00153" lon="1.8485">
        <ele>171.9</ele>
        <time>2022-08-06T07:13:18Z</time>
      </trkpt>
      <trkpt lat="45.00146" lon="1.84848">
        <ele>172.7</ele>
        <time>2022-08-06T07:13:20Z</time>
      </trkpt>
      <trkpt lat="45.00139" lon="1.84847">
        <ele>173.7</ele>
        <time>2022-08-06T07:13:22Z</time>
      </trkpt>
      <trkpt lat="45.00132" lon="1.84845">
        <ele>174.4</ele>
        <time>2022-08-06T07:13:24Z</time>
      </trkpt>
      <trkpt lat="45.00127" lon="1.84836">
        <ele>173.7</ele>
        <time>2022-08-06T07:13:26Z</time>
      </trkpt>
      <trkpt lat="45.00123" lon="1.84821">
        <ele>173.4</ele>
        <time>2022-08-06T07:13:28Z</time>
      </trkpt>
      <trkpt lat="45.00123" lon="1.84807">
        <ele>172.7</ele>
        <time>2022-08-06T07:13:30Z</time>
      </trkpt>
      <trkpt lat="45.00124" lon="1.84794">
        <ele>171.9</ele>
        <time>2022-08-06T07:13:32Z</time>
      </trkpt>
      <trkpt lat="45.00124" lon="1.84781">
        <ele>171.2</ele>
        <time>2022-08-06T07:13:34Z</time>
      </trkpt>
      <trkpt lat="45.00124" lon="1.84767">
        <ele>170.6</ele>
        <time>2022-08-06T07:13:36Z</time>
      </trkpt>
      <trkpt lat="45.00123" lon="1.84754">
        <ele>170.3</ele>
        <time>2022-08-06T07:13:38Z</time>
      </trkpt>
      <trkpt lat="45.00123" lon="1.84742">
        <ele>170.8</ele>
        <time>2022-08-06T07:13:40Z</time>
      </trkpt>
      <trkpt lat="45.00122" lon="1.84729">
        <ele>171.7</ele>
        <time>2022-08-06T07:13:42Z</time>
      </trkpt>
      <trkpt lat="45.00121" lon="1.84716">
        <ele>172.6</ele>
        <time>2022-08-06T07:13:44Z</time>
      </trkpt>
      <trkpt lat="45.00122" lon="1.84703">
        <ele>172.9</ele>
        <time>2022-08-06T07:13:46Z</time>
      </trkpt>
      <trkpt lat="45.00122" lon="1.84691">
        <ele>173.3</ele>
        <time>2022-08-06T07:13:48Z</time>
      </trkpt>
      <trkpt lat="45.00123" lon="1.84678">
        <ele>173.3</ele>
        <time>2022-08-06T07:13:50Z</time>
      </trkpt>
      <trkpt lat="45.00123" lon="1.84664">
        <ele>173.6</ele>
        <time>2022-08-06T07:13:52Z</time>
      </trkpt>
      <trkpt lat="45.00123" lon="1.8465">
        <ele>172.6</ele>
        <time>2022-08-06T07:13:54Z</time>
      </trkpt>
      <trkpt lat="45.00122" lon="1.84635">
        <ele>171.8</ele>
        <time>2022-08-06T07:13:56Z</time>
      </trkpt>
      <trkpt lat="45.00121" lon="1.8462">
        <ele>170.7</ele>
        <time>2022-08-06T07:13:58Z</time>
      </trkpt>
      <trkpt lat="45.00121" lon="1.84606">
        <ele>169.8</ele>
        <time>2022-08-06T07:14:00Z</time>
      </trkpt>
      <trkpt lat="45.00122" lon="1.8459">
        <ele>168</ele>
        <time>2022-08-06T07:14:02Z</time>
      </trkpt>
      <trkpt lat="45.0012" lon="1.84576">
        <ele>167.6</ele>
        <time>2022-08-06T07:14:04Z</time>
      </trkpt>
      <trkpt lat="45.00115" lon="1.84562">
        <ele>167.7</ele>
        <time>2022-08-06T07:14:06Z</time>
      </trkpt>
      <trkpt lat="45.00107" lon="1.84549">
        <ele>168.7</ele>
        <time>2022-08-06T07:14:08Z</time>
      </trkpt>
      <trkpt lat="45.00099" lon="1.84535">
        <ele>169</ele>
        <time>2022-08-06T07:14:10Z</time>
      </trkpt>
      <trkpt lat="45.00089" lon="1.84526">
        <ele>170.2</ele>
        <time>2022-08-06T07:14:12Z</time>
      </trkpt>
      <trkpt lat="45.00081" lon="1.84513">
        <ele>170.8</ele>
        <time>2022-08-06T07:14:14Z</time>
      </trkpt>
      <trkpt lat="45.00074" lon="1.84497">
        <ele>171.3</ele>
        <time>2022-08-06T07:14:16Z</time>
      </trkpt>
      <trkpt lat="45.00069" lon="1.84483">
        <ele>171.6</ele>
        <time>2022-08-06T07:14:18Z</time>
      </trkpt>
      <trkpt lat="45.00062" lon="1.8447">
        <ele>172.5</ele>
        <time>2022-08-06T07:14:20Z</time>
      </trkpt>
      <trkpt lat="45.00056" lon="1.84457">
        <ele>172.5</ele>
        <time>2022-08-06T07:14:22Z</time>
      </trkpt>
      <trkpt lat="45.00051" lon="1.84445">
        <ele>172.6</ele>
        <time>2022-08-06T07:14:24Z</time>
      </trkpt>
      <trkpt lat="45.00043" lon="1.84434">
        <ele>173.3</ele>
        <time>2022-08-06T07:14:26Z</time>
      </trkpt>
      <trkpt lat="45.00038" lon="1.84422">
        <ele>172.6</ele>
        <time>2022-08-06T07:14:28Z</time>
      </trkpt>
      <trkpt lat="45.00032" lon="1.84411">
        <ele>172.6</ele>
        <time>2022-08-06T07:14:30Z</time>
      </trkpt>
      <trkpt lat="45.00027" lon="1.84399">
        <ele>172.6</ele>
        <time>2022-08-06T07:14:32Z</time>
      </trkpt>
      <trkpt lat="45.00024" lon="1.84389">
        <ele>171.8</ele>
        <time>2022-08-06T07:14:34Z</time>
      </trkpt>
      <trkpt lat="45.0002" lon="1.84377">
        <ele>171</ele>
        <time>2022-08-06T07:14:36Z</time>
      </trkpt>
      <trkpt lat="45.00014" lon="1.84366">
        <ele>170.6</ele>
        <time>2022-08-06T07:14:38Z</time>
      </trkpt>
      <trkpt lat="45.00009" lon="1.84356">
        <ele>169.6</ele>
        <time>2022-08-06T07:14:40Z</time>
      </trkpt>
      <trkpt lat="45.00004" lon="1.84343">
        <ele>168.3</ele>
        <time>2022-08-06T07:14:42Z</time>
      </trkpt>
      <trkpt lat="44.99999" lon="1.84332">
        <ele>167</ele>
        <time>2022-08-06T07:14:44Z</time>
      </trkpt>
      <trkpt lat="44.99994" lon="1.84322">
        <ele>167</ele>
        <time>2022-08-06T07:14:46Z</time>
      </trkpt>
      <trkpt lat="44.99989" lon="1.8431">
        <ele>167</ele>
        <time>2022-08-06T07:14:48Z</time>
      </trkpt>
      <trkpt lat="44.99984" lon="1.843">
        <ele>167</ele>
        <time>2022-08-06T07:14:50Z</time>
      </trkpt>
      <trkpt lat="44.99978" lon="1.84287">
        <ele>157</ele>
        <time>2022-08-06T07:14:52Z</time>
      </trkpt>
      <trkpt lat="44.99973" lon="1.84274">
        <ele>157</ele>
        <time>2022-08-06T07:14:54Z</time>
      </trkpt>
      <trkpt lat="44.99967" lon="1.84263">
        <ele>157</ele>
        <time>2022-08-06T07:14:56Z</time>
      </trkpt>
      <trkpt lat="44.99962" lon="1.8425">
        <ele>157</ele>
        <time>2022-08-06T07:14:58Z</time>
      </trkpt>
      <trkpt lat="44.99956" lon="1.84238">
        <ele>187</ele>
        <time>2022-08-06T07:15:00Z</time>
      </trkpt>
      <trkpt lat="44.99951" lon="1.84226">
        <ele>187</ele>
        <time>2022-08-06T07:15:02Z</time>
      </trkpt>
      <trkpt lat="44.99946" lon="1.84214">
        <ele>187</ele>
        <time>2022-08-06T07:15:04Z</time>
      </trkpt>
      <trkpt lat="44.9994" lon="1.84202">
        <ele>169</ele>
        <time>2022-08-06T07:15:06Z</time>
      </trkpt>
      <trkpt lat="44.99936" lon="1.84189">
        <ele>169</ele>
        <time>2022-08-06T07:15:08Z</time>
      </trkpt>
      <trkpt lat="44.9993" lon="1.84178">
        <ele>169</ele>
        <time>2022-08-06T07:15:10Z</time>
      </trkpt>
      <trkpt lat="44.99925" lon="1.84168">
        <ele>169</ele>
        <time>2022-08-06T07:15:12Z</time>
      </trkpt>
      <trkpt lat="44.9992" lon="1.84156">
        <ele>169</ele>
        <time>2022-08-06T07:15:14Z</time>
      </trkpt>
      <trkpt lat="44.99916" lon="1.84144">
        <ele>165.7</ele>
        <time>2022-08-06T07:15:16Z</time>
      </trkpt>
      <trkpt lat="44.9991" lon="1.84133">
        <ele>165.6</ele>
        <time>2022-08-06T07:15:18Z</time>
      </trkpt>
      <trkpt lat="44.99905" lon="1.84122">
        <ele>165.1</ele>
        <time>2022-08-06T07:15:20Z</time>
      </trkpt>
      <trkpt lat="44.999" lon="1.84111">
        <ele>164.1</ele>
        <time>2022-08-06T07:15:22Z</time>
      </trkpt>
      <trkpt lat="44.99895" lon="1.841">
        <ele>163</ele>
        <time>2022-08-06T07:15:24Z</time>
      </trkpt>
      <trkpt lat="44.9989" lon="1.84089">
        <ele>161.5</ele>
        <time>2022-08-06T07:15:26Z</time>
      </trkpt>
      <trkpt lat="44.99885" lon="1.84078">
        <ele>160.4</ele>
        <time>2022-08-06T07:15:28Z</time>
      </trkpt>
      <trkpt lat="44.9988" lon="1.84068">
        <ele>160</ele>
        <time>2022-08-06T07:15:30Z</time>
      </trkpt>
      <trkpt lat="44.99875" lon="1.84059">
        <ele>159.5</ele>
        <time>2022-08-06T07:15:32Z</time>
      </trkpt>
      <trkpt lat="44.9987" lon="1.84049">
        <ele>158.9</ele>
        <time>2022-08-06T07:15:34Z</time>
      </trkpt>
      <trkpt lat="44.99865" lon="1.84039">
        <ele>158</ele>
        <time>2022-08-06T07:15:36Z</time>
      </trkpt>
      <trkpt lat="44.9986" lon="1.84029">
        <ele>156.9</ele>
        <time>2022-08-06T07:15:38Z</time>
      </trkpt>
      <trkpt lat="44.99856" lon="1.8402">
        <ele>155.7</ele>
        <time>2022-08-06T07:15:40Z</time>
      </trkpt>
      <trkpt lat="44.99851" lon="1.8401">
        <ele>154.4</ele>
        <time>2022-08-06T07:15:42Z</time>
      </trkpt>
      <trkpt lat="44.99845" lon="1.84">
        <ele>152.9</ele>
        <time>2022-08-06T07:15:44Z</time>
      </trkpt>
      <trkpt lat="44.9984" lon="1.8399">
        <ele>152.7</ele>
        <time>2022-08-06T07:15:46Z</time>
      </trkpt>
      <trkpt lat="44.99834" lon="1.8398">
        <ele>152.5</ele>
        <time>2022-08-06T07:15:48Z</time>
      </trkpt>
      <trkpt lat="44.99828" lon="1.83971">
        <ele>152.4</ele>
        <time>2022-08-06T07:15:50Z</time>
      </trkpt>
      <trkpt lat="44.99821" lon="1.83963">
        <ele>152.4</ele>
        <time>2022-08-06T07:15:52Z</time>
      </trkpt>
      <trkpt lat="44.99814" lon="1.83954">
        <ele>152.2</ele>
        <time>2022-08-06T07:15:54Z</time>
      </trkpt>
      <trkpt lat="44.99807" lon="1.83945">
        <ele>152</ele>
        <time>2022-08-06T07:15:56Z</time>
      </trkpt>
      <trkpt lat="44.998" lon="1.83937">
        <ele>151.8</ele>
        <time>2022-08-06T07:15:58Z</time>
      </trkpt>
      <trkpt lat="44.99792" lon="1.83929">
        <ele>151.5</ele>
        <time>2022-08-06T07:16:00Z</time>
      </trkpt>
      <trkpt lat="44.99784" lon="1.83922">
        <ele>151.2</ele>
        <time>2022-08-06T07:16:02Z</time>
      </trkpt>
      <trkpt lat="44.99776" lon="1.83915">
        <ele>151</ele>
        <time>2022-08-06T07:16:04Z</time>
      </trkpt>
      <trkpt lat="44.99768" lon="1.83908">
        <ele>151</ele>
        <time>2022-08-06T07:16:06Z</time>
      </trkpt>
      <trkpt lat="44.9976" lon="1.83902">
        <ele>151</ele>
        <time>2022-08-06T07:16:08Z</time>
      </trkpt>
      <trkpt lat="44.99753" lon="1.83896">
        <ele>151</ele>
        <time>2022-08-06T07:16:10Z</time>
      </trkpt>
      <trkpt lat="44.99745" lon="1.8389">
        <ele>151.2</ele>
        <time>2022-08-06T07:16:12Z</time>
      </trkpt>
      <trkpt lat="44.99737" lon="1.83884">
        <ele>151.5</ele>
        <time>2022-08-06T07:16:14Z</time>
      </trkpt>
      <trkpt lat="44.99729" lon="1.83879">
        <ele>151.8</ele>
        <time>2022-08-06T07:16:16Z</time>
      </trkpt>
      <trkpt lat="44.99722" lon="1.83874">
        <ele>152</ele>
        <time>2022-08-06T07:16:18Z</time>
      </trkpt>
      <trkpt lat="44.99715" lon="1.83868">
        <ele>152.1</ele>
        <time>2022-08-06T07:16:20Z</time>
      </trkpt>
      <trkpt lat="44.99708" lon="1.83863">
        <ele>152.2</ele>
        <time>2022-08-06T07:16:22Z</time>
      </trkpt>
      <trkpt lat="44.997" lon="1.83858">
        <ele>152.3</ele>
        <time>2022-08-06T07:16:24Z</time>
      </trkpt>
      <trkpt lat="44.99692" lon="1.83853">
        <ele>152.3</ele>
        <time>2022-08-06T07:16:26Z</time>
      </trkpt>
      <trkpt lat="44.99685" lon="1.83849">
        <ele>152.4</ele>
        <time>2022-08-06T07:16:28Z</time>
      </trkpt>
      <trkpt lat="44.99677" lon="1.83844">
        <ele>152.3</ele>
        <time>2022-08-06T07:16:30Z</time>
      </trkpt>
      <trkpt lat="44.9967" lon="1.83839">
        <ele>152.2</ele>
        <time>2022-08-06T07:16:32Z</time>
      </trkpt>
      <trkpt lat="44.99662" lon="1.83834">
        <ele>152.5</ele>
        <time>2022-08-06T07:16:34Z</time>
      </trkpt>
      <trkpt lat="44.99655" lon="1.8383">
        <ele>153.2</ele>
        <time>2022-08-06T07:16:36Z</time>
      </trkpt>
      <trkpt lat="44.99648" lon="1.83825">
        <ele>153.8</ele>
        <time>2022-08-06T07:16:38Z</time>
      </trkpt>
      <trkpt lat="44.9964" lon="1.8382">
        <ele>154.4</ele>
        <time>2022-08-06T07:16:40Z</time>
      </trkpt>
      <trkpt lat="44.99633" lon="1.83815">
        <ele>154.9</ele>
        <time>2022-08-06T07:16:42Z</time>
      </trkpt>
      <trkpt lat="44.99626" lon="1.8381">
        <ele>155.3</ele>
        <time>2022-08-06T07:16:44Z</time>
      </trkpt>
      <trkpt lat="44.99619" lon="1.83805">
        <ele>155.7</ele>
        <time>2022-08-06T07:16:46Z</time>
      </trkpt>
      <trkpt lat="44.99612" lon="1.838">
        <ele>156</ele>
        <time>2022-08-06T07:16:48Z</time>
      </trkpt>
      <trkpt lat="44.99605" lon="1.83795">
        <ele>156.2</ele>
        <time>2022-08-06T07:16:50Z</time>
      </trkpt>
      <trkpt lat="44.99598" lon="1.83788">
        <ele>156.2</ele>
        <time>2022-08-06T07:16:52Z</time>
      </trkpt>
      <trkpt lat="44.99591" lon="1.83782">
        <ele>156.2</ele>
        <time>2022-08-06T07:16:54Z</time>
      </trkpt>
      <trkpt lat="44.99584" lon="1.83776">
        <ele>156.1</ele>
        <time>2022-08-06T07:16:56Z</time>
      </trkpt>
      <trkpt lat="44.99577" lon="1.83769">
        <ele>155.9</ele>
        <time>2022-08-06T07:16:58Z</time>
      </trkpt>
      <trkpt lat="44.9957" lon="1.83762">
        <ele>155.6</ele>
        <time>2022-08-06T07:17:00Z</time>
      </trkpt>
      <trkpt lat="44.99562" lon="1.83756">
        <ele>155.3</ele>
        <time>2022-08-06T07:17:02Z</time>
      </trkpt>
      <trkpt lat="44.99554" lon="1.83748">
        <ele>155</ele>
        <time>2022-08-06T07:17:04Z</time>
      </trkpt>
      <trkpt lat="44.99547" lon="1.83741">
        <ele>154.8</ele>
        <time>2022-08-06T07:17:06Z</time>
      </trkpt>
      <trkpt lat="44.99539" lon="1.83734">
        <ele>154.7</ele>
        <time>2022-08-06T07:17:08Z</time>
      </trkpt>
      <trkpt lat="44.9953" lon="1.83726">
        <ele>154.5</ele>
        <time>2022-08-06T07:17:10Z</time>
      </trkpt>
      <trkpt lat="44.99522" lon="1.8372">
        <ele>154.3</ele>
        <time>2022-08-06T07:17:12Z</time>
      </trkpt>
      <trkpt lat="44.99514" lon="1.83711">
        <ele>153.9</ele>
        <time>2022-08-06T07:17:14Z</time>
      </trkpt>
      <trkpt lat="44.99504" lon="1.83703">
        <ele>153.6</ele>
        <time>2022-08-06T07:17:16Z</time>
      </trkpt>
      <trkpt lat="44.99495" lon="1.83694">
        <ele>153.5</ele>
        <time>2022-08-06T07:17:18Z</time>
      </trkpt>
      <trkpt lat="44.99486" lon="1.83687">
        <ele>153.8</ele>
        <time>2022-08-06T07:17:20Z</time>
      </trkpt>
      <trkpt lat="44.99477" lon="1.83679">
        <ele>153.9</ele>
        <time>2022-08-06T07:17:22Z</time>
      </trkpt>
      <trkpt lat="44.99469" lon="1.8367">
        <ele>153.6</ele>
        <time>2022-08-06T07:17:24Z</time>
      </trkpt>
      <trkpt lat="44.9946" lon="1.83662">
        <ele>153.7</ele>
        <time>2022-08-06T07:17:26Z</time>
      </trkpt>
      <trkpt lat="44.99451" lon="1.83654">
        <ele>154</ele>
        <time>2022-08-06T07:17:28Z</time>
      </trkpt>
      <trkpt lat="44.99443" lon="1.83646">
        <ele>154.1</ele>
        <time>2022-08-06T07:17:30Z</time>
      </trkpt>
      <trkpt lat="44.99434" lon="1.83639">
        <ele>154.2</ele>
        <time>2022-08-06T07:17:32Z</time>
      </trkpt>
      <trkpt lat="44.99425" lon="1.8363">
        <ele>154</ele>
        <time>2022-08-06T07:17:34Z</time>
      </trkpt>
      <trkpt lat="44.99417" lon="1.83622">
        <ele>153.8</ele>
        <time>2022-08-06T07:17:36Z</time>
      </trkpt>
      <trkpt lat="44.99408" lon="1.83614">
        <ele>154.1</ele>
        <time>2022-08-06T07:17:38Z</time>
      </trkpt>
      <trkpt lat="44.99399" lon="1.83606">
        <ele>154.1</ele>
        <time>2022-08-06T07:17:40Z</time>
      </trkpt>
      <trkpt lat="44.9939" lon="1.83599">
        <ele>154.1</ele>
        <time>2022-08-06T07:17:42Z</time>
      </trkpt>
      <trkpt lat="44.99381" lon="1.83593">
        <ele>153.9</ele>
        <time>2022-08-06T07:17:44Z</time>
      </trkpt>
      <trkpt lat="44.99372" lon="1.83586">
        <ele>153.6</ele>
        <time>2022-08-06T07:17:46Z</time>
      </trkpt>
      <trkpt lat="44.99363" lon="1.8358">
        <ele>153.4</ele>
        <time>2022-08-06T07:17:48Z</time>
      </trkpt>
      <trkpt lat="44.99354" lon="1.83575">
        <ele>153.6</ele>
        <time>2022-08-06T07:17:50Z</time>
      </trkpt>
      <trkpt lat="44.99345" lon="1.8357">
        <ele>153.8</ele>
        <time>2022-08-06T07:17:52Z</time>
      </trkpt>
      <trkpt lat="44.99335" lon="1.83566">
        <ele>153.9</ele>
        <time>2022-08-06T07:17:54Z</time>
      </trkpt>
      <trkpt lat="44.99326" lon="1.83562">
        <ele>153.9</ele>
        <time>2022-08-06T07:17:56Z</time>
      </trkpt>
      <trkpt lat="44.99317" lon="1.83558">
        <ele>153.8</ele>
        <time>2022-08-06T07:17:58Z</time>
      </trkpt>
      <trkpt lat="44.99308" lon="1.83555">
        <ele>153.8</ele>
        <time>2022-08-06T07:18:00Z</time>
      </trkpt>
      <trkpt lat="44.993" lon="1.83553">
        <ele>153.8</ele>
        <time>2022-08-06T07:18:02Z</time>
      </trkpt>
      <trkpt lat="44.99291" lon="1.83551">
        <ele>153.8</ele>
        <time>2022-08-06T07:18:04Z</time>
      </trkpt>
      <trkpt lat="44.99282" lon="1.8355">
        <ele>153.9</ele>
        <time>2022-08-06T07:18:06Z</time>
      </trkpt>
      <trkpt lat="44.99274" lon="1.8355">
        <ele>154</ele>
        <time>2022-08-06T07:18:08Z</time>
      </trkpt>
      <trkpt lat="44.99264" lon="1.83551">
        <ele>154.3</ele>
        <time>2022-08-06T07:18:10Z</time>
      </trkpt>
      <trkpt lat="44.99256" lon="1.83553">
        <ele>154.6</ele>
        <time>2022-08-06T07:18:12Z</time>
      </trkpt>
      <trkpt lat="44.99248" lon="1.83555">
        <ele>154.9</ele>
        <time>2022-08-06T07:18:14Z</time>
      </trkpt>
      <trkpt lat="44.9924" lon="1.83558">
        <ele>154.9</ele>
        <time>2022-08-06T07:18:16Z</time>
      </trkpt>
      <trkpt lat="44.99232" lon="1.8356">
        <ele>154.8</ele>
        <time>2022-08-06T07:18:18Z</time>
      </trkpt>
      <trkpt lat="44.99225" lon="1.83563">
        <ele>154.6</ele>
        <time>2022-08-06T07:18:20Z</time>
      </trkpt>
      <trkpt lat="44.99217" lon="1.83566">
        <ele>154.6</ele>
        <time>2022-08-06T07:18:22Z</time>
      </trkpt>
      <trkpt lat="44.99211" lon="1.83569">
        <ele>154.5</ele>
        <time>2022-08-06T07:18:24Z</time>
      </trkpt>
      <trkpt lat="44.99204" lon="1.83572">
        <ele>154.4</ele>
        <time>2022-08-06T07:18:26Z</time>
      </trkpt>
      <trkpt lat="44.99198" lon="1.83575">
        <ele>154.3</ele>
        <time>2022-08-06T07:18:28Z</time>
      </trkpt>
      <trkpt lat="44.99191" lon="1.83579">
        <ele>154.2</ele>
        <time>2022-08-06T07:18:30Z</time>
      </trkpt>
      <trkpt lat="44.99184" lon="1.83582">
        <ele>154</ele>
        <time>2022-08-06T07:18:32Z</time>
      </trkpt>
      <trkpt lat="44.99177" lon="1.83584">
        <ele>153.7</ele>
        <time>2022-08-06T07:18:34Z</time>
      </trkpt>
      <trkpt lat="44.99171" lon="1.83587">
        <ele>153.8</ele>
        <time>2022-08-06T07:18:36Z</time>
      </trkpt>
      <trkpt lat="44.99163" lon="1.8359">
        <ele>154</ele>
        <time>2022-08-06T07:18:38Z</time>
      </trkpt>
      <trkpt lat="44.99156" lon="1.83592">
        <ele>154.2</ele>
        <time>2022-08-06T07:18:40Z</time>
      </trkpt>
      <trkpt lat="44.9915" lon="1.83595">
        <ele>154.5</ele>
        <time>2022-08-06T07:18:42Z</time>
      </trkpt>
      <trkpt lat="44.99144" lon="1.83597">
        <ele>154.7</ele>
        <time>2022-08-06T07:18:44Z</time>
      </trkpt>
      <trkpt lat="44.99137" lon="1.836">
        <ele>155</ele>
        <time>2022-08-06T07:18:46Z</time>
      </trkpt>
      <trkpt lat="44.99131" lon="1.83603">
        <ele>155.2</ele>
        <time>2022-08-06T07:18:48Z</time>
      </trkpt>
      <trkpt lat="44.99124" lon="1.83606">
        <ele>155.4</ele>
        <time>2022-08-06T07:18:50Z</time>
      </trkpt>
      <trkpt lat="44.99118" lon="1.83608">
        <ele>155.6</ele>
        <time>2022-08-06T07:18:52Z</time>
      </trkpt>
      <trkpt lat="44.99112" lon="1.83611">
        <ele>155.8</ele>
        <time>2022-08-06T07:18:54Z</time>
      </trkpt>
      <trkpt lat="44.99106" lon="1.83613">
        <ele>155.9</ele>
        <time>2022-08-06T07:18:56Z</time>
      </trkpt>
      <trkpt lat="44.991" lon="1.83615">
        <ele>155.9</ele>
        <time>2022-08-06T07:18:58Z</time>
      </trkpt>
      <trkpt lat="44.99094" lon="1.83618">
        <ele>156.1</ele>
        <time>2022-08-06T07:19:00Z</time>
      </trkpt>
      <trkpt lat="44.99089" lon="1.83621">
        <ele>156.3</ele>
        <time>2022-08-06T07:19:02Z</time>
      </trkpt>
      <trkpt lat="44.99083" lon="1.83624">
        <ele>156.4</ele>
        <time>2022-08-06T07:19:04Z</time>
      </trkpt>
      <trkpt lat="44.99077" lon="1.83627">
        <ele>156.5</ele>
        <time>2022-08-06T07:19:06Z</time>
      </trkpt>
      <trkpt lat="44.99071" lon="1.83629">
        <ele>156.4</ele>
        <time>2022-08-06T07:19:08Z</time>
      </trkpt>
      <trkpt lat="44.99065" lon="1.83632">
        <ele>156.5</ele>
        <time>2022-08-06T07:19:10Z</time>
      </trkpt>
      <trkpt lat="44.99059" lon="1.83635">
        <ele>156.7</ele>
        <time>2022-08-06T07:19:12Z</time>
      </trkpt>
      <trkpt lat="44.99053" lon="1.83639">
        <ele>156.8</ele>
        <time>2022-08-06T07:19:14Z</time>
      </trkpt>
      <trkpt lat="44.99047" lon="1.83643">
        <ele>156.9</ele>
        <time>2022-08-06T07:19:16Z</time>
      </trkpt>
      <trkpt lat="44.99042" lon="1.83647">
        <ele>157.1</ele>
        <time>2022-08-06T07:19:18Z</time>
      </trkpt>
      <trkpt lat="44.99036" lon="1.83652">
        <ele>157.3</ele>
        <time>2022-08-06T07:19:20Z</time>
      </trkpt>
      <trkpt lat="44.99031" lon="1.83657">
        <ele>157.6</ele>
        <time>2022-08-06T07:19:22Z</time>
      </trkpt>
      <trkpt lat="44.99026" lon="1.83662">
        <ele>157.8</ele>
        <time>2022-08-06T07:19:24Z</time>
      </trkpt>
      <trkpt lat="44.9902" lon="1.83667">
        <ele>158</ele>
        <time>2022-08-06T07:19:26Z</time>
      </trkpt>
      <trkpt lat="44.99015" lon="1.83672">
        <ele>158.3</ele>
        <time>2022-08-06T07:19:28Z</time>
      </trkpt>
      <trkpt lat="44.9901" lon="1.83678">
        <ele>158.6</ele>
        <time>2022-08-06T07:19:30Z</time>
      </trkpt>
      <trkpt lat="44.99005" lon="1.83684">
        <ele>158.9</ele>
        <time>2022-08-06T07:19:32Z</time>
      </trkpt>
      <trkpt lat="44.99" lon="1.83689">
        <ele>159.2</ele>
        <time>2022-08-06T07:19:34Z</time>
      </trkpt>
      <trkpt lat="44.98995" lon="1.83696">
        <ele>159.4</ele>
        <time>2022-08-06T07:19:36Z</time>
      </trkpt>
      <trkpt lat="44.98989" lon="1.83701">
        <ele>159.5</ele>
        <time>2022-08-06T07:19:38Z</time>
      </trkpt>
      <trkpt lat="44.98985" lon="1.83707">
        <ele>159.6</ele>
        <time>2022-08-06T07:19:40Z</time>
      </trkpt>
      <trkpt lat="44.9898" lon="1.83713">
        <ele>159.8</ele>
        <time>2022-08-06T07:19:42Z</time>
      </trkpt>
      <trkpt lat="44.98975" lon="1.8372">
        <ele>159.8</ele>
        <time>2022-08-06T07:19:44Z</time>
      </trkpt>
      <trkpt lat="44.9897" lon="1.83725">
        <ele>159.8</ele>
        <time>2022-08-06T07:19:46Z</time>
      </trkpt>
      <trkpt lat="44.98965" lon="1.8373">
        <ele>159.8</ele>
        <time>2022-08-06T07:19:48Z</time>
      </trkpt>
      <trkpt lat="44.98961" lon="1.83736">
        <ele>159.7</ele>
        <time>2022-08-06T07:19:50Z</time>
      </trkpt>
      <trkpt lat="44.98955" lon="1.83739">
        <ele>159.4</ele>
        <time>2022-08-06T07:19:52Z</time>
      </trkpt>
      <trkpt lat="44.98948" lon="1.83739">
        <ele>158.7</ele>
        <time>2022-08-06T07:19:54Z</time>
      </trkpt>
      <trkpt lat="44.98946" lon="1.83737">
        <ele>158.3</ele>
        <time>2022-08-06T07:19:56Z</time>
      </trkpt>
      <trkpt lat="44.98946" lon="1.83737">
        <ele>158.4</ele>
        <time>2022-08-06T07:19:58Z</time>
      </trkpt>
      <trkpt lat="44.98946" lon="1.83738">
        <ele>158.3</ele>
        <time>2022-08-06T07:20:00Z</time>
      </trkpt>
      <trkpt lat="44.98945" lon="1.83738">
        <ele>158.3</ele>
        <time>2022-08-06T07:20:02Z</time>
      </trkpt>
      <trkpt lat="44.98946" lon="1.83738">
        <ele>158.4</ele>
        <time>2022-08-06T07:20:04Z</time>
      </trkpt>
      <trkpt lat="44.98931" lon="1.83773">
        <ele>159</ele>
        <time>2022-08-06T07:20:36Z</time>
      </trkpt>
      <trkpt lat="44.98926" lon="1.83777">
        <ele>158.9</ele>
        <time>2022-08-06T07:20:38Z</time>
      </trkpt>
      <trkpt lat="44.98922" lon="1.83782">
        <ele>158.8</ele>
        <time>2022-08-06T07:20:40Z</time>
      </trkpt>
      <trkpt lat="44.98917" lon="1.83787">
        <ele>158.7</ele>
        <time>2022-08-06T07:20:42Z</time>
      </trkpt>
      <trkpt lat="44.98913" lon="1.83792">
        <ele>158.8</ele>
        <time>2022-08-06T07:20:44Z</time>
      </trkpt>
      <trkpt lat="44.98909" lon="1.83798">
        <ele>159</ele>
        <time>2022-08-06T07:20:46Z</time>
      </trkpt>
      <trkpt lat="44.98905" lon="1.83804">
        <ele>159.2</ele>
        <time>2022-08-06T07:20:48Z</time>
      </trkpt>
      <trkpt lat="44.98901" lon="1.8381">
        <ele>159.3</ele>
        <time>2022-08-06T07:20:50Z</time>
      </trkpt>
      <trkpt lat="44.98897" lon="1.83817">
        <ele>159.5</ele>
        <time>2022-08-06T07:20:52Z</time>
      </trkpt>
      <trkpt lat="44.98893" lon="1.83825">
        <ele>159.8</ele>
        <time>2022-08-06T07:20:54Z</time>
      </trkpt>
      <trkpt lat="44.9889" lon="1.83832">
        <ele>160</ele>
        <time>2022-08-06T07:20:56Z</time>
      </trkpt>
      <trkpt lat="44.98887" lon="1.8384">
        <ele>160.1</ele>
        <time>2022-08-06T07:20:58Z</time>
      </trkpt>
      <trkpt lat="44.98884" lon="1.83849">
        <ele>160.2</ele>
        <time>2022-08-06T07:21:00Z</time>
      </trkpt>
      <trkpt lat="44.98881" lon="1.83857">
        <ele>160.3</ele>
        <time>2022-08-06T07:21:02Z</time>
      </trkpt>
      <trkpt lat="44.9888" lon="1.83867">
        <ele>160.5</ele>
        <time>2022-08-06T07:21:04Z</time>
      </trkpt>
      <trkpt lat="44.98878" lon="1.83877">
        <ele>160.8</ele>
        <time>2022-08-06T07:21:06Z</time>
      </trkpt>
      <trkpt lat="44.98878" lon="1.83887">
        <ele>161.1</ele>
        <time>2022-08-06T07:21:08Z</time>
      </trkpt>
      <trkpt lat="44.98877" lon="1.83897">
        <ele>161.5</ele>
        <time>2022-08-06T07:21:10Z</time>
      </trkpt>
      <trkpt lat="44.98878" lon="1.83907">
        <ele>161.8</ele>
        <time>2022-08-06T07:21:12Z</time>
      </trkpt>
      <trkpt lat="44.98878" lon="1.83917">
        <ele>162.2</ele>
        <time>2022-08-06T07:21:14Z</time>
      </trkpt>
      <trkpt lat="44.98879" lon="1.83927">
        <ele>162.2</ele>
        <time>2022-08-06T07:21:16Z</time>
      </trkpt>
      <trkpt lat="44.98879" lon="1.83938">
        <ele>162</ele>
        <time>2022-08-06T07:21:18Z</time>
      </trkpt>
      <trkpt lat="44.9888" lon="1.83948">
        <ele>161.9</ele>
        <time>2022-08-06T07:21:20Z</time>
      </trkpt>
      <trkpt lat="44.9888" lon="1.83959">
        <ele>161.8</ele>
        <time>2022-08-06T07:21:22Z</time>
      </trkpt>
      <trkpt lat="44.98881" lon="1.8397">
        <ele>161.7</ele>
        <time>2022-08-06T07:21:24Z</time>
      </trkpt>
      <trkpt lat="44.98881" lon="1.83982">
        <ele>161.5</ele>
        <time>2022-08-06T07:21:26Z</time>
      </trkpt>
      <trkpt lat="44.98882" lon="1.83993">
        <ele>161.4</ele>
        <time>2022-08-06T07:21:28Z</time>
      </trkpt>
      <trkpt lat="44.98882" lon="1.84005">
        <ele>161.3</ele>
        <time>2022-08-06T07:21:30Z</time>
      </trkpt>
      <trkpt lat="44.98883" lon="1.84016">
        <ele>161.3</ele>
        <time>2022-08-06T07:21:32Z</time>
      </trkpt>
      <trkpt lat="44.98883" lon="1.84029">
        <ele>161.2</ele>
        <time>2022-08-06T07:21:34Z</time>
      </trkpt>
      <trkpt lat="44.98884" lon="1.84041">
        <ele>161.1</ele>
        <time>2022-08-06T07:21:36Z</time>
      </trkpt>
      <trkpt lat="44.98884" lon="1.84054">
        <ele>161</ele>
        <time>2022-08-06T07:21:38Z</time>
      </trkpt>
      <trkpt lat="44.98884" lon="1.84068">
        <ele>160.9</ele>
        <time>2022-08-06T07:21:40Z</time>
      </trkpt>
      <trkpt lat="44.98885" lon="1.84082">
        <ele>160.9</ele>
        <time>2022-08-06T07:21:42Z</time>
      </trkpt>
      <trkpt lat="44.98885" lon="1.84096">
        <ele>161</ele>
        <time>2022-08-06T07:21:44Z</time>
      </trkpt>
      <trkpt lat="44.98886" lon="1.84112">
        <ele>161.3</ele>
        <time>2022-08-06T07:21:46Z</time>
      </trkpt>
      <trkpt lat="44.98887" lon="1.84127">
        <ele>161.6</ele>
        <time>2022-08-06T07:21:48Z</time>
      </trkpt>
      <trkpt lat="44.98888" lon="1.84143">
        <ele>161.9</ele>
        <time>2022-08-06T07:21:50Z</time>
      </trkpt>
      <trkpt lat="44.98888" lon="1.84158">
        <ele>162.2</ele>
        <time>2022-08-06T07:21:52Z</time>
      </trkpt>
      <trkpt lat="44.98889" lon="1.84174">
        <ele>162.1</ele>
        <time>2022-08-06T07:21:54Z</time>
      </trkpt>
      <trkpt lat="44.9889" lon="1.8419">
        <ele>161.8</ele>
        <time>2022-08-06T07:21:56Z</time>
      </trkpt>
      <trkpt lat="44.98891" lon="1.84206">
        <ele>161.4</ele>
        <time>2022-08-06T07:21:58Z</time>
      </trkpt>
      <trkpt lat="44.98891" lon="1.84221">
        <ele>161</ele>
        <time>2022-08-06T07:22:00Z</time>
      </trkpt>
      <trkpt lat="44.98892" lon="1.84236">
        <ele>160.6</ele>
        <time>2022-08-06T07:22:02Z</time>
      </trkpt>
      <trkpt lat="44.98892" lon="1.8425">
        <ele>160.2</ele>
        <time>2022-08-06T07:22:04Z</time>
      </trkpt>
      <trkpt lat="44.98892" lon="1.84262">
        <ele>160.6</ele>
        <time>2022-08-06T07:22:06Z</time>
      </trkpt>
      <trkpt lat="44.98892" lon="1.84274">
        <ele>160.9</ele>
        <time>2022-08-06T07:22:08Z</time>
      </trkpt>
      <trkpt lat="44.98893" lon="1.84285">
        <ele>161.3</ele>
        <time>2022-08-06T07:22:10Z</time>
      </trkpt>
      <trkpt lat="44.98893" lon="1.84296">
        <ele>161.6</ele>
        <time>2022-08-06T07:22:12Z</time>
      </trkpt>
      <trkpt lat="44.98893" lon="1.84306">
        <ele>161.9</ele>
        <time>2022-08-06T07:22:14Z</time>
      </trkpt>
      <trkpt lat="44.98894" lon="1.84316">
        <ele>162.1</ele>
        <time>2022-08-06T07:22:16Z</time>
      </trkpt>
      <trkpt lat="44.98894" lon="1.84326">
        <ele>162.5</ele>
        <time>2022-08-06T07:22:18Z</time>
      </trkpt>
      <trkpt lat="44.98894" lon="1.84336">
        <ele>162.7</ele>
        <time>2022-08-06T07:22:20Z</time>
      </trkpt>
      <trkpt lat="44.98894" lon="1.84345">
        <ele>162.8</ele>
        <time>2022-08-06T07:22:22Z</time>
      </trkpt>
      <trkpt lat="44.98894" lon="1.84354">
        <ele>163</ele>
        <time>2022-08-06T07:22:24Z</time>
      </trkpt>
      <trkpt lat="44.98895" lon="1.84363">
        <ele>163.2</ele>
        <time>2022-08-06T07:22:26Z</time>
      </trkpt>
      <trkpt lat="44.98896" lon="1.84372">
        <ele>163.3</ele>
        <time>2022-08-06T07:22:28Z</time>
      </trkpt>
      <trkpt lat="44.98896" lon="1.84381">
        <ele>163.5</ele>
        <time>2022-08-06T07:22:30Z</time>
      </trkpt>
      <trkpt lat="44.98896" lon="1.8439">
        <ele>163.6</ele>
        <time>2022-08-06T07:22:32Z</time>
      </trkpt>
      <trkpt lat="44.98896" lon="1.844">
        <ele>163.8</ele>
        <time>2022-08-06T07:22:34Z</time>
      </trkpt>
      <trkpt lat="44.98897" lon="1.84409">
        <ele>163.9</ele>
        <time>2022-08-06T07:22:36Z</time>
      </trkpt>
      <trkpt lat="44.98897" lon="1.84418">
        <ele>164.1</ele>
        <time>2022-08-06T07:22:38Z</time>
      </trkpt>
      <trkpt lat="44.98898" lon="1.84428">
        <ele>164.1</ele>
        <time>2022-08-06T07:22:40Z</time>
      </trkpt>
      <trkpt lat="44.98898" lon="1.84437">
        <ele>164.2</ele>
        <time>2022-08-06T07:22:42Z</time>
      </trkpt>
      <trkpt lat="44.98899" lon="1.84446">
        <ele>164.2</ele>
        <time>2022-08-06T07:22:44Z</time>
      </trkpt>
      <trkpt lat="44.98899" lon="1.84455">
        <ele>164.2</ele>
        <time>2022-08-06T07:22:46Z</time>
      </trkpt>
      <trkpt lat="44.98899" lon="1.84464">
        <ele>164.3</ele>
        <time>2022-08-06T07:22:48Z</time>
      </trkpt>
      <trkpt lat="44.989" lon="1.84473">
        <ele>164.3</ele>
        <time>2022-08-06T07:22:50Z</time>
      </trkpt>
      <trkpt lat="44.989" lon="1.84482">
        <ele>164.4</ele>
        <time>2022-08-06T07:22:52Z</time>
      </trkpt>
      <trkpt lat="44.98901" lon="1.84491">
        <ele>164.4</ele>
        <time>2022-08-06T07:22:54Z</time>
      </trkpt>
      <trkpt lat="44.98901" lon="1.845">
        <ele>164.4</ele>
        <time>2022-08-06T07:22:56Z</time>
      </trkpt>
      <trkpt lat="44.98901" lon="1.84508">
        <ele>164.7</ele>
        <time>2022-08-06T07:22:58Z</time>
      </trkpt>
      <trkpt lat="44.98901" lon="1.84516">
        <ele>165</ele>
        <time>2022-08-06T07:23:00Z</time>
      </trkpt>
      <trkpt lat="44.98902" lon="1.84525">
        <ele>165.3</ele>
        <time>2022-08-06T07:23:02Z</time>
      </trkpt>
      <trkpt lat="44.98902" lon="1.84533">
        <ele>165.6</ele>
        <time>2022-08-06T07:23:04Z</time>
      </trkpt>
      <trkpt lat="44.98902" lon="1.84541">
        <ele>166</ele>
        <time>2022-08-06T07:23:06Z</time>
      </trkpt>
      <trkpt lat="44.98902" lon="1.8455">
        <ele>166.3</ele>
        <time>2022-08-06T07:23:08Z</time>
      </trkpt>
      <trkpt lat="44.98903" lon="1.84558">
        <ele>166.6</ele>
        <time>2022-08-06T07:23:10Z</time>
      </trkpt>
      <trkpt lat="44.98903" lon="1.84567">
        <ele>166.9</ele>
        <time>2022-08-06T07:23:12Z</time>
      </trkpt>
      <trkpt lat="44.98903" lon="1.84575">
        <ele>167.2</ele>
        <time>2022-08-06T07:23:14Z</time>
      </trkpt>
      <trkpt lat="44.98903" lon="1.84584">
        <ele>167.5</ele>
        <time>2022-08-06T07:23:16Z</time>
      </trkpt>
      <trkpt lat="44.98904" lon="1.84592">
        <ele>167.8</ele>
        <time>2022-08-06T07:23:18Z</time>
      </trkpt>
      <trkpt lat="44.98904" lon="1.84599">
        <ele>168.1</ele>
        <time>2022-08-06T07:23:20Z</time>
      </trkpt>
      <trkpt lat="44.98904" lon="1.84607">
        <ele>168.3</ele>
        <time>2022-08-06T07:23:22Z</time>
      </trkpt>
      <trkpt lat="44.98904" lon="1.84615">
        <ele>168.6</ele>
        <time>2022-08-06T07:23:24Z</time>
      </trkpt>
      <trkpt lat="44.98904" lon="1.84623">
        <ele>168.9</ele>
        <time>2022-08-06T07:23:26Z</time>
      </trkpt>
      <trkpt lat="44.98905" lon="1.84632">
        <ele>169.1</ele>
        <time>2022-08-06T07:23:28Z</time>
      </trkpt>
      <trkpt lat="44.98905" lon="1.8464">
        <ele>169.4</ele>
        <time>2022-08-06T07:23:30Z</time>
      </trkpt>
      <trkpt lat="44.98906" lon="1.84648">
        <ele>169.7</ele>
        <time>2022-08-06T07:23:32Z</time>
      </trkpt>
      <trkpt lat="44.98906" lon="1.84656">
        <ele>170</ele>
        <time>2022-08-06T07:23:34Z</time>
      </trkpt>
      <trkpt lat="44.98907" lon="1.84664">
        <ele>170.3</ele>
        <time>2022-08-06T07:23:36Z</time>
      </trkpt>
      <trkpt lat="44.98907" lon="1.84673">
        <ele>170.5</ele>
        <time>2022-08-06T07:23:38Z</time>
      </trkpt>
      <trkpt lat="44.98907" lon="1.84683">
        <ele>170.6</ele>
        <time>2022-08-06T07:23:40Z</time>
      </trkpt>
      <trkpt lat="44.98908" lon="1.84692">
        <ele>170.7</ele>
        <time>2022-08-06T07:23:42Z</time>
      </trkpt>
      <trkpt lat="44.98908" lon="1.84701">
        <ele>170.9</ele>
        <time>2022-08-06T07:23:44Z</time>
      </trkpt>
      <trkpt lat="44.98908" lon="1.8471">
        <ele>171</ele>
        <time>2022-08-06T07:23:46Z</time>
      </trkpt>
      <trkpt lat="44.98909" lon="1.8472">
        <ele>171.1</ele>
        <time>2022-08-06T07:23:48Z</time>
      </trkpt>
      <trkpt lat="44.9891" lon="1.84729">
        <ele>171.3</ele>
        <time>2022-08-06T07:23:50Z</time>
      </trkpt>
      <trkpt lat="44.9891" lon="1.84739">
        <ele>171.4</ele>
        <time>2022-08-06T07:23:52Z</time>
      </trkpt>
      <trkpt lat="44.98911" lon="1.84748">
        <ele>171.5</ele>
        <time>2022-08-06T07:23:54Z</time>
      </trkpt>
      <trkpt lat="44.98911" lon="1.84758">
        <ele>171.9</ele>
        <time>2022-08-06T07:23:56Z</time>
      </trkpt>
      <trkpt lat="44.98911" lon="1.84768">
        <ele>172.4</ele>
        <time>2022-08-06T07:23:58Z</time>
      </trkpt>
      <trkpt lat="44.98911" lon="1.84777">
        <ele>172.9</ele>
        <time>2022-08-06T07:24:00Z</time>
      </trkpt>
      <trkpt lat="44.98912" lon="1.84786">
        <ele>173.4</ele>
        <time>2022-08-06T07:24:02Z</time>
      </trkpt>
      <trkpt lat="44.98912" lon="1.84796">
        <ele>173.8</ele>
        <time>2022-08-06T07:24:04Z</time>
      </trkpt>
      <trkpt lat="44.98913" lon="1.84805">
        <ele>174.3</ele>
        <time>2022-08-06T07:24:06Z</time>
      </trkpt>
      <trkpt lat="44.98913" lon="1.84814">
        <ele>174.7</ele>
        <time>2022-08-06T07:24:08Z</time>
      </trkpt>
      <trkpt lat="44.98913" lon="1.84823">
        <ele>175.1</ele>
        <time>2022-08-06T07:24:10Z</time>
      </trkpt>
      <trkpt lat="44.98913" lon="1.84832">
        <ele>175.6</ele>
        <time>2022-08-06T07:24:12Z</time>
      </trkpt>
      <trkpt lat="44.98914" lon="1.8484">
        <ele>176.4</ele>
        <time>2022-08-06T07:24:14Z</time>
      </trkpt>
      <trkpt lat="44.98914" lon="1.84848">
        <ele>177.2</ele>
        <time>2022-08-06T07:24:16Z</time>
      </trkpt>
      <trkpt lat="44.98915" lon="1.84856">
        <ele>178.1</ele>
        <time>2022-08-06T07:24:18Z</time>
      </trkpt>
      <trkpt lat="44.98915" lon="1.84865">
        <ele>178.9</ele>
        <time>2022-08-06T07:24:20Z</time>
      </trkpt>
      <trkpt lat="44.98915" lon="1.84873">
        <ele>179.6</ele>
        <time>2022-08-06T07:24:22Z</time>
      </trkpt>
      <trkpt lat="44.98915" lon="1.8488">
        <ele>180.4</ele>
        <time>2022-08-06T07:24:24Z</time>
      </trkpt>
      <trkpt lat="44.98914" lon="1.84888">
        <ele>181</ele>
        <time>2022-08-06T07:24:26Z</time>
      </trkpt>
      <trkpt lat="44.98912" lon="1.84896">
        <ele>181.7</ele>
        <time>2022-08-06T07:24:28Z</time>
      </trkpt>
      <trkpt lat="44.9891" lon="1.84903">
        <ele>182.3</ele>
        <time>2022-08-06T07:24:30Z</time>
      </trkpt>
      <trkpt lat="44.98907" lon="1.8491">
        <ele>182.8</ele>
        <time>2022-08-06T07:24:32Z</time>
      </trkpt>
      <trkpt lat="44.98904" lon="1.84917">
        <ele>183.4</ele>
        <time>2022-08-06T07:24:34Z</time>
      </trkpt>
      <trkpt lat="44.98901" lon="1.84922">
        <ele>183.8</ele>
        <time>2022-08-06T07:24:36Z</time>
      </trkpt>
      <trkpt lat="44.98898" lon="1.84928">
        <ele>184.3</ele>
        <time>2022-08-06T07:24:38Z</time>
      </trkpt>
      <trkpt lat="44.98895" lon="1.84935">
        <ele>185</ele>
        <time>2022-08-06T07:24:40Z</time>
      </trkpt>
      <trkpt lat="44.98892" lon="1.84942">
        <ele>185.6</ele>
        <time>2022-08-06T07:24:42Z</time>
      </trkpt>
      <trkpt lat="44.98888" lon="1.84949">
        <ele>186.2</ele>
        <time>2022-08-06T07:24:44Z</time>
      </trkpt>
      <trkpt lat="44.98884" lon="1.84955">
        <ele>186.8</ele>
        <time>2022-08-06T07:24:46Z</time>
      </trkpt>
      <trkpt lat="44.9888" lon="1.84961">
        <ele>187.4</ele>
        <time>2022-08-06T07:24:48Z</time>
      </trkpt>
      <trkpt lat="44.98877" lon="1.84967">
        <ele>187.9</ele>
        <time>2022-08-06T07:24:50Z</time>
      </trkpt>
      <trkpt lat="44.98874" lon="1.84973">
        <ele>188.5</ele>
        <time>2022-08-06T07:24:52Z</time>
      </trkpt>
      <trkpt lat="44.98869" lon="1.84978">
        <ele>188.9</ele>
        <time>2022-08-06T07:24:54Z</time>
      </trkpt>
      <trkpt lat="44.98865" lon="1.84982">
        <ele>189.3</ele>
        <time>2022-08-06T07:24:56Z</time>
      </trkpt>
      <trkpt lat="44.9886" lon="1.84985">
        <ele>189.4</ele>
        <time>2022-08-06T07:24:58Z</time>
      </trkpt>
      <trkpt lat="44.98855" lon="1.8499">
        <ele>189.7</ele>
        <time>2022-08-06T07:25:00Z</time>
      </trkpt>
      <trkpt lat="44.9885" lon="1.84993">
        <ele>189.8</ele>
        <time>2022-08-06T07:25:02Z</time>
      </trkpt>
      <trkpt lat="44.98843" lon="1.84995">
        <ele>189.8</ele>
        <time>2022-08-06T07:25:04Z</time>
      </trkpt>
      <trkpt lat="44.98837" lon="1.84995">
        <ele>189.5</ele>
        <time>2022-08-06T07:25:06Z</time>
      </trkpt>
      <trkpt lat="44.98831" lon="1.84997">
        <ele>189.3</ele>
        <time>2022-08-06T07:25:08Z</time>
      </trkpt>
      <trkpt lat="44.98822" lon="1.84997">
        <ele>188.5</ele>
        <time>2022-08-06T07:25:10Z</time>
      </trkpt>
      <trkpt lat="44.98813" lon="1.84996">
        <ele>187.6</ele>
        <time>2022-08-06T07:25:12Z</time>
      </trkpt>
      <trkpt lat="44.98804" lon="1.84995">
        <ele>186.7</ele>
        <time>2022-08-06T07:25:14Z</time>
      </trkpt>
      <trkpt lat="44.98794" lon="1.84994">
        <ele>185.6</ele>
        <time>2022-08-06T07:25:16Z</time>
      </trkpt>
      <trkpt lat="44.98783" lon="1.84992">
        <ele>184.5</ele>
        <time>2022-08-06T07:25:18Z</time>
      </trkpt>
      <trkpt lat="44.98772" lon="1.8499">
        <ele>183.5</ele>
        <time>2022-08-06T07:25:20Z</time>
      </trkpt>
      <trkpt lat="44.9876" lon="1.84988">
        <ele>182.4</ele>
        <time>2022-08-06T07:25:22Z</time>
      </trkpt>
      <trkpt lat="44.98747" lon="1.84988">
        <ele>181.2</ele>
        <time>2022-08-06T07:25:24Z</time>
      </trkpt>
      <trkpt lat="44.98735" lon="1.84989">
        <ele>179.3</ele>
        <time>2022-08-06T07:25:26Z</time>
      </trkpt>
      <trkpt lat="44.98723" lon="1.84994">
        <ele>177.5</ele>
        <time>2022-08-06T07:25:28Z</time>
      </trkpt>
      <trkpt lat="44.98712" lon="1.85003">
        <ele>176.4</ele>
        <time>2022-08-06T07:25:30Z</time>
      </trkpt>
      <trkpt lat="44.98701" lon="1.85012">
        <ele>175.9</ele>
        <time>2022-08-06T07:25:32Z</time>
      </trkpt>
      <trkpt lat="44.9869" lon="1.85022">
        <ele>175.5</ele>
        <time>2022-08-06T07:25:34Z</time>
      </trkpt>
      <trkpt lat="44.98678" lon="1.85032">
        <ele>174.9</ele>
        <time>2022-08-06T07:25:36Z</time>
      </trkpt>
      <trkpt lat="44.98666" lon="1.85043">
        <ele>174.2</ele>
        <time>2022-08-06T07:25:38Z</time>
      </trkpt>
      <trkpt lat="44.98654" lon="1.85056">
        <ele>174.1</ele>
        <time>2022-08-06T07:25:40Z</time>
      </trkpt>
      <trkpt lat="44.98641" lon="1.8507">
        <ele>173.9</ele>
        <time>2022-08-06T07:25:42Z</time>
      </trkpt>
      <trkpt lat="44.98627" lon="1.85085">
        <ele>173.5</ele>
        <time>2022-08-06T07:25:44Z</time>
      </trkpt>
      <trkpt lat="44.98613" lon="1.851">
        <ele>173</ele>
        <time>2022-08-06T07:25:46Z</time>
      </trkpt>
      <trkpt lat="44.986" lon="1.85114">
        <ele>172.1</ele>
        <time>2022-08-06T07:25:48Z</time>
      </trkpt>
      <trkpt lat="44.98587" lon="1.85128">
        <ele>170.4</ele>
        <time>2022-08-06T07:25:50Z</time>
      </trkpt>
      <trkpt lat="44.98572" lon="1.85143">
        <ele>169.6</ele>
        <time>2022-08-06T07:25:52Z</time>
      </trkpt>
      <trkpt lat="44.98557" lon="1.85156">
        <ele>169.1</ele>
        <time>2022-08-06T07:25:54Z</time>
      </trkpt>
      <trkpt lat="44.98538" lon="1.85163">
        <ele>168</ele>
        <time>2022-08-06T07:25:56Z</time>
      </trkpt>
      <trkpt lat="44.9852" lon="1.85159">
        <ele>166.2</ele>
        <time>2022-08-06T07:25:58Z</time>
      </trkpt>
      <trkpt lat="44.98504" lon="1.8515">
        <ele>164.3</ele>
        <time>2022-08-06T07:26:00Z</time>
      </trkpt>
      <trkpt lat="44.9849" lon="1.85134">
        <ele>163.1</ele>
        <time>2022-08-06T07:26:02Z</time>
      </trkpt>
      <trkpt lat="44.98478" lon="1.85118">
        <ele>162</ele>
        <time>2022-08-06T07:26:04Z</time>
      </trkpt>
      <trkpt lat="44.98467" lon="1.851">
        <ele>160.8</ele>
        <time>2022-08-06T07:26:06Z</time>
      </trkpt>
      <trkpt lat="44.98457" lon="1.85084">
        <ele>159.6</ele>
        <time>2022-08-06T07:26:08Z</time>
      </trkpt>
      <trkpt lat="44.98451" lon="1.85072">
        <ele>159.1</ele>
        <time>2022-08-06T07:26:10Z</time>
      </trkpt>
      <trkpt lat="44.98446" lon="1.85064">
        <ele>158.9</ele>
        <time>2022-08-06T07:26:12Z</time>
      </trkpt>
      <trkpt lat="44.9844" lon="1.85055">
        <ele>158.6</ele>
        <time>2022-08-06T07:26:14Z</time>
      </trkpt>
      <trkpt lat="44.98435" lon="1.85046">
        <ele>158.3</ele>
        <time>2022-08-06T07:26:16Z</time>
      </trkpt>
      <trkpt lat="44.98431" lon="1.8504">
        <ele>158.1</ele>
        <time>2022-08-06T07:26:18Z</time>
      </trkpt>
      <trkpt lat="44.98428" lon="1.85035">
        <ele>158</ele>
        <time>2022-08-06T07:26:20Z</time>
      </trkpt>
      <trkpt lat="44.98425" lon="1.85031">
        <ele>157.8</ele>
        <time>2022-08-06T07:26:22Z</time>
      </trkpt>
      <trkpt lat="44.98422" lon="1.85026">
        <ele>157.7</ele>
        <time>2022-08-06T07:26:24Z</time>
      </trkpt>
      <trkpt lat="44.98419" lon="1.85022">
        <ele>157.5</ele>
        <time>2022-08-06T07:26:26Z</time>
      </trkpt>
      <trkpt lat="44.98415" lon="1.85016">
        <ele>157.4</ele>
        <time>2022-08-06T07:26:28Z</time>
      </trkpt>
      <trkpt lat="44.98411" lon="1.85012">
        <ele>157.2</ele>
        <time>2022-08-06T07:26:30Z</time>
      </trkpt>
      <trkpt lat="44.98406" lon="1.85007">
        <ele>156.9</ele>
        <time>2022-08-06T07:26:32Z</time>
      </trkpt>
      <trkpt lat="44.98401" lon="1.85003">
        <ele>156.5</ele>
        <time>2022-08-06T07:26:34Z</time>
      </trkpt>
      <trkpt lat="44.98395" lon="1.84998">
        <ele>156.1</ele>
        <time>2022-08-06T07:26:36Z</time>
      </trkpt>
      <trkpt lat="44.98389" lon="1.84994">
        <ele>155.6</ele>
        <time>2022-08-06T07:26:38Z</time>
      </trkpt>
      <trkpt lat="44.98383" lon="1.84992">
        <ele>155.2</ele>
        <time>2022-08-06T07:26:40Z</time>
      </trkpt>
      <trkpt lat="44.98375" lon="1.84989">
        <ele>154.7</ele>
        <time>2022-08-06T07:26:42Z</time>
      </trkpt>
      <trkpt lat="44.98366" lon="1.84986">
        <ele>154.1</ele>
        <time>2022-08-06T07:26:44Z</time>
      </trkpt>
      <trkpt lat="44.98356" lon="1.84983">
        <ele>153.5</ele>
        <time>2022-08-06T07:26:46Z</time>
      </trkpt>
      <trkpt lat="44.98347" lon="1.84979">
        <ele>152.8</ele>
        <time>2022-08-06T07:26:48Z</time>
      </trkpt>
      <trkpt lat="44.98336" lon="1.84975">
        <ele>152</ele>
        <time>2022-08-06T07:26:50Z</time>
      </trkpt>
      <trkpt lat="44.98326" lon="1.84972">
        <ele>151.6</ele>
        <time>2022-08-06T07:26:52Z</time>
      </trkpt>
      <trkpt lat="44.98315" lon="1.84966">
        <ele>151.1</ele>
        <time>2022-08-06T07:26:54Z</time>
      </trkpt>
      <trkpt lat="44.98304" lon="1.84963">
        <ele>150.7</ele>
        <time>2022-08-06T07:26:56Z</time>
      </trkpt>
      <trkpt lat="44.98293" lon="1.84959">
        <ele>150.3</ele>
        <time>2022-08-06T07:26:58Z</time>
      </trkpt>
      <trkpt lat="44.98281" lon="1.84954">
        <ele>149.8</ele>
        <time>2022-08-06T07:27:00Z</time>
      </trkpt>
      <trkpt lat="44.98269" lon="1.8495">
        <ele>149.4</ele>
        <time>2022-08-06T07:27:02Z</time>
      </trkpt>
      <trkpt lat="44.98256" lon="1.84946">
        <ele>148.8</ele>
        <time>2022-08-06T07:27:04Z</time>
      </trkpt>
      <trkpt lat="44.98243" lon="1.84942">
        <ele>148.5</ele>
        <time>2022-08-06T07:27:06Z</time>
      </trkpt>
      <trkpt lat="44.98229" lon="1.84937">
        <ele>148.4</ele>
        <time>2022-08-06T07:27:08Z</time>
      </trkpt>
      <trkpt lat="44.98217" lon="1.84932">
        <ele>148.4</ele>
        <time>2022-08-06T07:27:10Z</time>
      </trkpt>
      <trkpt lat="44.98207" lon="1.84928">
        <ele>148.3</ele>
        <time>2022-08-06T07:27:12Z</time>
      </trkpt>
      <trkpt lat="44.982" lon="1.84925">
        <ele>148.4</ele>
        <time>2022-08-06T07:27:14Z</time>
      </trkpt>
      <trkpt lat="44.98195" lon="1.84922">
        <ele>148.3</ele>
        <time>2022-08-06T07:27:16Z</time>
      </trkpt>
      <trkpt lat="44.98193" lon="1.84918">
        <ele>148.1</ele>
        <time>2022-08-06T07:27:18Z</time>
      </trkpt>
      <trkpt lat="44.98193" lon="1.84914">
        <ele>147.9</ele>
        <time>2022-08-06T07:27:20Z</time>
      </trkpt>
      <trkpt lat="44.98193" lon="1.84913">
        <ele>147.9</ele>
        <time>2022-08-06T07:27:22Z</time>
      </trkpt>
      <trkpt lat="44.98193" lon="1.84913">
        <ele>147.9</ele>
        <time>2022-08-06T07:27:24Z</time>
      </trkpt>
      <trkpt lat="44.98193" lon="1.84912">
        <ele>147.8</ele>
        <time>2022-08-06T07:27:26Z</time>
      </trkpt>
      <trkpt lat="44.98192" lon="1.84912">
        <ele>147.8</ele>
        <time>2022-08-06T07:27:28Z</time>
      </trkpt>
      <trkpt lat="44.9818" lon="1.84909">
        <ele>148.1</ele>
        <time>2022-08-06T07:28:06Z</time>
      </trkpt>
      <trkpt lat="44.98173" lon="1.84909">
        <ele>148.3</ele>
        <time>2022-08-06T07:28:08Z</time>
      </trkpt>
      <trkpt lat="44.98166" lon="1.84909">
        <ele>148.5</ele>
        <time>2022-08-06T07:28:10Z</time>
      </trkpt>
      <trkpt lat="44.98158" lon="1.84907">
        <ele>148.9</ele>
        <time>2022-08-06T07:28:12Z</time>
      </trkpt>
      <trkpt lat="44.9815" lon="1.84903">
        <ele>149</ele>
        <time>2022-08-06T07:28:14Z</time>
      </trkpt>
      <trkpt lat="44.98141" lon="1.84898">
        <ele>149.1</ele>
        <time>2022-08-06T07:28:16Z</time>
      </trkpt>
      <trkpt lat="44.98132" lon="1.84892">
        <ele>149</ele>
        <time>2022-08-06T07:28:18Z</time>
      </trkpt>
      <trkpt lat="44.98122" lon="1.84887">
        <ele>148.9</ele>
        <time>2022-08-06T07:28:20Z</time>
      </trkpt>
      <trkpt lat="44.98111" lon="1.84881">
        <ele>148.8</ele>
        <time>2022-08-06T07:28:22Z</time>
      </trkpt>
      <trkpt lat="44.981" lon="1.84874">
        <ele>148.4</ele>
        <time>2022-08-06T07:28:24Z</time>
      </trkpt>
      <trkpt lat="44.98089" lon="1.84868">
        <ele>148.1</ele>
        <time>2022-08-06T07:28:26Z</time>
      </trkpt>
      <trkpt lat="44.98077" lon="1.84862">
        <ele>147.7</ele>
        <time>2022-08-06T07:28:28Z</time>
      </trkpt>
      <trkpt lat="44.98066" lon="1.84856">
        <ele>147.5</ele>
        <time>2022-08-06T07:28:30Z</time>
      </trkpt>
      <trkpt lat="44.98056" lon="1.84849">
        <ele>147</ele>
        <time>2022-08-06T07:28:32Z</time>
      </trkpt>
      <trkpt lat="44.98046" lon="1.84843">
        <ele>146.7</ele>
        <time>2022-08-06T07:28:34Z</time>
      </trkpt>
      <trkpt lat="44.98035" lon="1.84837">
        <ele>146.3</ele>
        <time>2022-08-06T07:28:36Z</time>
      </trkpt>
      <trkpt lat="44.98025" lon="1.84831">
        <ele>146</ele>
        <time>2022-08-06T07:28:38Z</time>
      </trkpt>
      <trkpt lat="44.98015" lon="1.84824">
        <ele>146.1</ele>
        <time>2022-08-06T07:28:40Z</time>
      </trkpt>
      <trkpt lat="44.98005" lon="1.84818">
        <ele>146.1</ele>
        <time>2022-08-06T07:28:42Z</time>
      </trkpt>
      <trkpt lat="44.97995" lon="1.84811">
        <ele>146.6</ele>
        <time>2022-08-06T07:28:44Z</time>
      </trkpt>
      <trkpt lat="44.97986" lon="1.84804">
        <ele>147.7</ele>
        <time>2022-08-06T07:28:46Z</time>
      </trkpt>
      <trkpt lat="44.97978" lon="1.84798">
        <ele>148.7</ele>
        <time>2022-08-06T07:28:48Z</time>
      </trkpt>
      <trkpt lat="44.9797" lon="1.84791">
        <ele>149.7</ele>
        <time>2022-08-06T07:28:50Z</time>
      </trkpt>
      <trkpt lat="44.97964" lon="1.84785">
        <ele>150.3</ele>
        <time>2022-08-06T07:28:52Z</time>
      </trkpt>
      <trkpt lat="44.9796" lon="1.84782">
        <ele>150.8</ele>
        <time>2022-08-06T07:28:54Z</time>
      </trkpt>
      <trkpt lat="44.97958" lon="1.84779">
        <ele>151.1</ele>
        <time>2022-08-06T07:28:56Z</time>
      </trkpt>
      <trkpt lat="44.97955" lon="1.84775">
        <ele>151.4</ele>
        <time>2022-08-06T07:28:58Z</time>
      </trkpt>
      <trkpt lat="44.97952" lon="1.84771">
        <ele>151.7</ele>
        <time>2022-08-06T07:29:00Z</time>
      </trkpt>
      <trkpt lat="44.9795" lon="1.84767">
        <ele>152</ele>
        <time>2022-08-06T07:29:02Z</time>
      </trkpt>
      <trkpt lat="44.97947" lon="1.84764">
        <ele>152.3</ele>
        <time>2022-08-06T07:29:04Z</time>
      </trkpt>
      <trkpt lat="44.97945" lon="1.8476">
        <ele>152.5</ele>
        <time>2022-08-06T07:29:06Z</time>
      </trkpt>
      <trkpt lat="44.97943" lon="1.84755">
        <ele>152.7</ele>
        <time>2022-08-06T07:29:08Z</time>
      </trkpt>
      <trkpt lat="44.9794" lon="1.84753">
        <ele>153.1</ele>
        <time>2022-08-06T07:29:10Z</time>
      </trkpt>
      <trkpt lat="44.97937" lon="1.8476">
        <ele>153.9</ele>
        <time>2022-08-06T07:29:12Z</time>
      </trkpt>
      <trkpt lat="44.97937" lon="1.84766">
        <ele>154</ele>
        <time>2022-08-06T07:29:14Z</time>
      </trkpt>
      <trkpt lat="44.9794" lon="1.84773">
        <ele>153.8</ele>
        <time>2022-08-06T07:29:16Z</time>
      </trkpt>
      <trkpt lat="44.97943" lon="1.84776">
        <ele>153.4</ele>
        <time>2022-08-06T07:29:18Z</time>
      </trkpt>
      <trkpt lat="44.97944" lon="1.8478">
        <ele>153.4</ele>
        <time>2022-08-06T07:29:20Z</time>
      </trkpt>
      <trkpt lat="44.97945" lon="1.84783">
        <ele>153.3</ele>
        <time>2022-08-06T07:29:22Z</time>
      </trkpt>
      <trkpt lat="44.97946" lon="1.84785">
        <ele>153.1</ele>
        <time>2022-08-06T07:29:24Z</time>
      </trkpt>
      <trkpt lat="44.97947" lon="1.84787">
        <ele>153.1</ele>
        <time>2022-08-06T07:29:26Z</time>
      </trkpt>
      <trkpt lat="44.97947" lon="1.84788">
        <ele>153.1</ele>
        <time>2022-08-06T07:29:28Z</time>
      </trkpt>
      <trkpt lat="44.97948" lon="1.8479">
        <ele>153.1</ele>
        <time>2022-08-06T07:29:30Z</time>
      </trkpt>
      <trkpt lat="44.97948" lon="1.84792">
        <ele>153.1</ele>
        <time>2022-08-06T07:29:32Z</time>
      </trkpt>
      <trkpt lat="44.97963" lon="1.84797">
        <ele>150.9</ele>
        <time>2022-08-06T07:35:00Z</time>
      </trkpt>
      <trkpt lat="44.97965" lon="1.84795">
        <ele>150.6</ele>
        <time>2022-08-06T07:35:02Z</time>
      </trkpt>
      <trkpt lat="44.97967" lon="1.84794">
        <ele>150.3</ele>
        <time>2022-08-06T07:35:04Z</time>
      </trkpt>
      <trkpt lat="44.97968" lon="1.84792">
        <ele>149.9</ele>
        <time>2022-08-06T07:35:06Z</time>
      </trkpt>
      <trkpt lat="44.97971" lon="1.84789">
        <ele>149.4</ele>
        <time>2022-08-06T07:35:08Z</time>
      </trkpt>
      <trkpt lat="44.97969" lon="1.84781">
        <ele>149.3</ele>
        <time>2022-08-06T07:35:10Z</time>
      </trkpt>
      <trkpt lat="44.97964" lon="1.84776">
        <ele>150</ele>
        <time>2022-08-06T07:35:12Z</time>
      </trkpt>
      <trkpt lat="44.97959" lon="1.84771">
        <ele>150.6</ele>
        <time>2022-08-06T07:35:14Z</time>
      </trkpt>
      <trkpt lat="44.97955" lon="1.84765">
        <ele>151.1</ele>
        <time>2022-08-06T07:35:16Z</time>
      </trkpt>
      <trkpt lat="44.97952" lon="1.84759">
        <ele>151.4</ele>
        <time>2022-08-06T07:35:18Z</time>
      </trkpt>
      <trkpt lat="44.97948" lon="1.84754">
        <ele>151.9</ele>
        <time>2022-08-06T07:35:20Z</time>
      </trkpt>
      <trkpt lat="44.97944" lon="1.84748">
        <ele>152.3</ele>
        <time>2022-08-06T07:35:22Z</time>
      </trkpt>
      <trkpt lat="44.97941" lon="1.84742">
        <ele>152.8</ele>
        <time>2022-08-06T07:35:24Z</time>
      </trkpt>
      <trkpt lat="44.97938" lon="1.84737">
        <ele>153.2</ele>
        <time>2022-08-06T07:35:26Z</time>
      </trkpt>
      <trkpt lat="44.97936" lon="1.84732">
        <ele>153.5</ele>
        <time>2022-08-06T07:35:28Z</time>
      </trkpt>
      <trkpt lat="44.97933" lon="1.84727">
        <ele>153.9</ele>
        <time>2022-08-06T07:35:30Z</time>
      </trkpt>
      <trkpt lat="44.9793" lon="1.84722">
        <ele>154.2</ele>
        <time>2022-08-06T07:35:32Z</time>
      </trkpt>
      <trkpt lat="44.97927" lon="1.84718">
        <ele>154.6</ele>
        <time>2022-08-06T07:35:34Z</time>
      </trkpt>
      <trkpt lat="44.97925" lon="1.84713">
        <ele>154.9</ele>
        <time>2022-08-06T07:35:36Z</time>
      </trkpt>
      <trkpt lat="44.97923" lon="1.84708">
        <ele>155.1</ele>
        <time>2022-08-06T07:35:38Z</time>
      </trkpt>
      <trkpt lat="44.9792" lon="1.84702">
        <ele>155.3</ele>
        <time>2022-08-06T07:35:40Z</time>
      </trkpt>
      <trkpt lat="44.97919" lon="1.84696">
        <ele>155.3</ele>
        <time>2022-08-06T07:35:42Z</time>
      </trkpt>
      <trkpt lat="44.9792" lon="1.84689">
        <ele>155.1</ele>
        <time>2022-08-06T07:35:44Z</time>
      </trkpt>
      <trkpt lat="44.97919" lon="1.84684">
        <ele>155</ele>
        <time>2022-08-06T07:35:46Z</time>
      </trkpt>
      <trkpt lat="44.9792" lon="1.84677">
        <ele>154.8</ele>
        <time>2022-08-06T07:35:48Z</time>
      </trkpt>
      <trkpt lat="44.97919" lon="1.8467">
        <ele>154.7</ele>
        <time>2022-08-06T07:35:50Z</time>
      </trkpt>
      <trkpt lat="44.97919" lon="1.84665">
        <ele>154.6</ele>
        <time>2022-08-06T07:35:52Z</time>
      </trkpt>
      <trkpt lat="44.9792" lon="1.84659">
        <ele>154.4</ele>
        <time>2022-08-06T07:35:54Z</time>
      </trkpt>
      <trkpt lat="44.97919" lon="1.84653">
        <ele>154.4</ele>
        <time>2022-08-06T07:35:56Z</time>
      </trkpt>
      <trkpt lat="44.97918" lon="1.84647">
        <ele>154.4</ele>
        <time>2022-08-06T07:35:58Z</time>
      </trkpt>
      <trkpt lat="44.97915" lon="1.84642">
        <ele>155</ele>
        <time>2022-08-06T07:36:00Z</time>
      </trkpt>
      <trkpt lat="44.97913" lon="1.84638">
        <ele>155.9</ele>
        <time>2022-08-06T07:36:02Z</time>
      </trkpt>
      <trkpt lat="44.97911" lon="1.84633">
        <ele>157</ele>
        <time>2022-08-06T07:36:04Z</time>
      </trkpt>
      <trkpt lat="44.97908" lon="1.8463">
        <ele>158.1</ele>
        <time>2022-08-06T07:36:06Z</time>
      </trkpt>
      <trkpt lat="44.97906" lon="1.84628">
        <ele>159</ele>
        <time>2022-08-06T07:36:08Z</time>
      </trkpt>
      <trkpt lat="44.97903" lon="1.84626">
        <ele>160.4</ele>
        <time>2022-08-06T07:36:10Z</time>
      </trkpt>
      <trkpt lat="44.979" lon="1.84624">
        <ele>161.5</ele>
        <time>2022-08-06T07:36:12Z</time>
      </trkpt>
      <trkpt lat="44.97898" lon="1.8462">
        <ele>162.3</ele>
        <time>2022-08-06T07:36:14Z</time>
      </trkpt>
      <trkpt lat="44.97896" lon="1.84616">
        <ele>163.3</ele>
        <time>2022-08-06T07:36:16Z</time>
      </trkpt>
      <trkpt lat="44.97895" lon="1.84608">
        <ele>163.7</ele>
        <time>2022-08-06T07:36:18Z</time>
      </trkpt>
      <trkpt lat="44.97894" lon="1.846">
        <ele>163.7</ele>
        <time>2022-08-06T07:36:20Z</time>
      </trkpt>
      <trkpt lat="44.97894" lon="1.84593">
        <ele>163.9</ele>
        <time>2022-08-06T07:36:22Z</time>
      </trkpt>
      <trkpt lat="44.97895" lon="1.84582">
        <ele>162.9</ele>
        <time>2022-08-06T07:36:24Z</time>
      </trkpt>
      <trkpt lat="44.97896" lon="1.84572">
        <ele>161.7</ele>
        <time>2022-08-06T07:36:26Z</time>
      </trkpt>
      <trkpt lat="44.97895" lon="1.8456">
        <ele>160.7</ele>
        <time>2022-08-06T07:36:28Z</time>
      </trkpt>
      <trkpt lat="44.97894" lon="1.84549">
        <ele>159.9</ele>
        <time>2022-08-06T07:36:30Z</time>
      </trkpt>
      <trkpt lat="44.97894" lon="1.84539">
        <ele>158.8</ele>
        <time>2022-08-06T07:36:32Z</time>
      </trkpt>
      <trkpt lat="44.97891" lon="1.84528">
        <ele>158.5</ele>
        <time>2022-08-06T07:36:34Z</time>
      </trkpt>
      <trkpt lat="44.97889" lon="1.84517">
        <ele>158</ele>
        <time>2022-08-06T07:36:36Z</time>
      </trkpt>
      <trkpt lat="44.97885" lon="1.84507">
        <ele>157.9</ele>
        <time>2022-08-06T07:36:38Z</time>
      </trkpt>
      <trkpt lat="44.97882" lon="1.84497">
        <ele>157.5</ele>
        <time>2022-08-06T07:36:40Z</time>
      </trkpt>
      <trkpt lat="44.97878" lon="1.84487">
        <ele>157</ele>
        <time>2022-08-06T07:36:42Z</time>
      </trkpt>
      <trkpt lat="44.97872" lon="1.84477">
        <ele>156.8</ele>
        <time>2022-08-06T07:36:44Z</time>
      </trkpt>
      <trkpt lat="44.97866" lon="1.84469">
        <ele>156.6</ele>
        <time>2022-08-06T07:36:46Z</time>
      </trkpt>
      <trkpt lat="44.97859" lon="1.84462">
        <ele>156.4</ele>
        <time>2022-08-06T07:36:48Z</time>
      </trkpt>
      <trkpt lat="44.97851" lon="1.84453">
        <ele>155.8</ele>
        <time>2022-08-06T07:36:50Z</time>
      </trkpt>
      <trkpt lat="44.97844" lon="1.84447">
        <ele>155.3</ele>
        <time>2022-08-06T07:36:52Z</time>
      </trkpt>
      <trkpt lat="44.97834" lon="1.8444">
        <ele>154.8</ele>
        <time>2022-08-06T07:36:54Z</time>
      </trkpt>
      <trkpt lat="44.97825" lon="1.84437">
        <ele>153.4</ele>
        <time>2022-08-06T07:36:56Z</time>
      </trkpt>
      <trkpt lat="44.97816" lon="1.84435">
        <ele>152.4</ele>
        <time>2022-08-06T07:36:58Z</time>
      </trkpt>
      <trkpt lat="44.97806" lon="1.84434">
        <ele>152</ele>
        <time>2022-08-06T07:37:00Z</time>
      </trkpt>
      <trkpt lat="44.97796" lon="1.84434">
        <ele>151.6</ele>
        <time>2022-08-06T07:37:02Z</time>
      </trkpt>
      <trkpt lat="44.97788" lon="1.84436">
        <ele>151.7</ele>
        <time>2022-08-06T07:37:04Z</time>
      </trkpt>
      <trkpt lat="44.9778" lon="1.84437">
        <ele>151.5</ele>
        <time>2022-08-06T07:37:06Z</time>
      </trkpt>
      <trkpt lat="44.97772" lon="1.84438">
        <ele>151.4</ele>
        <time>2022-08-06T07:37:08Z</time>
      </trkpt>
      <trkpt lat="44.97766" lon="1.84439">
        <ele>151.3</ele>
        <time>2022-08-06T07:37:10Z</time>
      </trkpt>
      <trkpt lat="44.9776" lon="1.84441">
        <ele>151.4</ele>
        <time>2022-08-06T07:37:12Z</time>
      </trkpt>
      <trkpt lat="44.97754" lon="1.84442">
        <ele>151.3</ele>
        <time>2022-08-06T07:37:14Z</time>
      </trkpt>
      <trkpt lat="44.97747" lon="1.84443">
        <ele>151</ele>
        <time>2022-08-06T07:37:16Z</time>
      </trkpt>
      <trkpt lat="44.97741" lon="1.84445">
        <ele>151.1</ele>
        <time>2022-08-06T07:37:18Z</time>
      </trkpt>
      <trkpt lat="44.97736" lon="1.84446">
        <ele>150.7</ele>
        <time>2022-08-06T07:37:20Z</time>
      </trkpt>
      <trkpt lat="44.97731" lon="1.84447">
        <ele>150.5</ele>
        <time>2022-08-06T07:37:22Z</time>
      </trkpt>
      <trkpt lat="44.97726" lon="1.84447">
        <ele>150.1</ele>
        <time>2022-08-06T07:37:24Z</time>
      </trkpt>
      <trkpt lat="44.97725" lon="1.84449">
        <ele>150.2</ele>
        <time>2022-08-06T07:37:26Z</time>
      </trkpt>
      <trkpt lat="44.97724" lon="1.84449">
        <ele>150.2</ele>
        <time>2022-08-06T07:37:28Z</time>
      </trkpt>
      <trkpt lat="44.97724" lon="1.84449">
        <ele>150.2</ele>
        <time>2022-08-06T07:37:30Z</time>
      </trkpt>
      <trkpt lat="44.97724" lon="1.84449">
        <ele>150.2</ele>
        <time>2022-08-06T07:37:34Z</time>
      </trkpt>
      <trkpt lat="44.97721" lon="1.84449">
        <ele>149.9</ele>
        <time>2022-08-06T07:37:36Z</time>
      </trkpt>
      <trkpt lat="44.97718" lon="1.84452">
        <ele>150.1</ele>
        <time>2022-08-06T07:37:38Z</time>
      </trkpt>
      <trkpt lat="44.97717" lon="1.84457">
        <ele>150.8</ele>
        <time>2022-08-06T07:37:40Z</time>
      </trkpt>
      <trkpt lat="44.97715" lon="1.84468">
        <ele>152</ele>
        <time>2022-08-06T07:37:42Z</time>
      </trkpt>
      <trkpt lat="44.97712" lon="1.84477">
        <ele>153</ele>
        <time>2022-08-06T07:37:44Z</time>
      </trkpt>
      <trkpt lat="44.97708" lon="1.84486">
        <ele>153.7</ele>
        <time>2022-08-06T07:37:46Z</time>
      </trkpt>
      <trkpt lat="44.97706" lon="1.84497">
        <ele>154.7</ele>
        <time>2022-08-06T07:37:48Z</time>
      </trkpt>
      <trkpt lat="44.97701" lon="1.84506">
        <ele>155</ele>
        <time>2022-08-06T07:37:50Z</time>
      </trkpt>
      <trkpt lat="44.97696" lon="1.84514">
        <ele>155</ele>
        <time>2022-08-06T07:37:52Z</time>
      </trkpt>
      <trkpt lat="44.97691" lon="1.8452">
        <ele>154.6</ele>
        <time>2022-08-06T07:37:54Z</time>
      </trkpt>
      <trkpt lat="44.97685" lon="1.84526">
        <ele>154.1</ele>
        <time>2022-08-06T07:37:56Z</time>
      </trkpt>
      <trkpt lat="44.9768" lon="1.84534">
        <ele>153.7</ele>
        <time>2022-08-06T07:37:58Z</time>
      </trkpt>
      <trkpt lat="44.97675" lon="1.8454">
        <ele>153</ele>
        <time>2022-08-06T07:38:00Z</time>
      </trkpt>
      <trkpt lat="44.97669" lon="1.84547">
        <ele>152.1</ele>
        <time>2022-08-06T07:38:02Z</time>
      </trkpt>
      <trkpt lat="44.97664" lon="1.84553">
        <ele>151.6</ele>
        <time>2022-08-06T07:38:04Z</time>
      </trkpt>
      <trkpt lat="44.97659" lon="1.8456">
        <ele>151.8</ele>
        <time>2022-08-06T07:38:06Z</time>
      </trkpt>
      <trkpt lat="44.97654" lon="1.84566">
        <ele>151.9</ele>
        <time>2022-08-06T07:38:08Z</time>
      </trkpt>
      <trkpt lat="44.97648" lon="1.84573">
        <ele>152</ele>
        <time>2022-08-06T07:38:10Z</time>
      </trkpt>
      <trkpt lat="44.97642" lon="1.8458">
        <ele>152</ele>
        <time>2022-08-06T07:38:12Z</time>
      </trkpt>
      <trkpt lat="44.97637" lon="1.84587">
        <ele>152.4</ele>
        <time>2022-08-06T07:38:14Z</time>
      </trkpt>
      <trkpt lat="44.97631" lon="1.84594">
        <ele>153</ele>
        <time>2022-08-06T07:38:16Z</time>
      </trkpt>
      <trkpt lat="44.97626" lon="1.84601">
        <ele>153.4</ele>
        <time>2022-08-06T07:38:18Z</time>
      </trkpt>
      <trkpt lat="44.9762" lon="1.84607">
        <ele>153.8</ele>
        <time>2022-08-06T07:38:20Z</time>
      </trkpt>
      <trkpt lat="44.97614" lon="1.84614">
        <ele>154.1</ele>
        <time>2022-08-06T07:38:22Z</time>
      </trkpt>
      <trkpt lat="44.97609" lon="1.84621">
        <ele>154.3</ele>
        <time>2022-08-06T07:38:24Z</time>
      </trkpt>
      <trkpt lat="44.97603" lon="1.84628">
        <ele>154.4</ele>
        <time>2022-08-06T07:38:26Z</time>
      </trkpt>
      <trkpt lat="44.97597" lon="1.84635">
        <ele>154.3</ele>
        <time>2022-08-06T07:38:28Z</time>
      </trkpt>
      <trkpt lat="44.97592" lon="1.84643">
        <ele>154.2</ele>
        <time>2022-08-06T07:38:30Z</time>
      </trkpt>
      <trkpt lat="44.97586" lon="1.8465">
        <ele>154</ele>
        <time>2022-08-06T07:38:32Z</time>
      </trkpt>
      <trkpt lat="44.9758" lon="1.84658">
        <ele>153.9</ele>
        <time>2022-08-06T07:38:34Z</time>
      </trkpt>
      <trkpt lat="44.97574" lon="1.84664">
        <ele>153.8</ele>
        <time>2022-08-06T07:38:36Z</time>
      </trkpt>
      <trkpt lat="44.97568" lon="1.84673">
        <ele>153.9</ele>
        <time>2022-08-06T07:38:38Z</time>
      </trkpt>
      <trkpt lat="44.97561" lon="1.84681">
        <ele>153.9</ele>
        <time>2022-08-06T07:38:40Z</time>
      </trkpt>
      <trkpt lat="44.97555" lon="1.84689">
        <ele>153.9</ele>
        <time>2022-08-06T07:38:42Z</time>
      </trkpt>
      <trkpt lat="44.97548" lon="1.84697">
        <ele>153.8</ele>
        <time>2022-08-06T07:38:44Z</time>
      </trkpt>
      <trkpt lat="44.97542" lon="1.84706">
        <ele>153.5</ele>
        <time>2022-08-06T07:38:46Z</time>
      </trkpt>
      <trkpt lat="44.97535" lon="1.84714">
        <ele>153.2</ele>
        <time>2022-08-06T07:38:48Z</time>
      </trkpt>
      <trkpt lat="44.9753" lon="1.8472">
        <ele>153</ele>
        <time>2022-08-06T07:38:50Z</time>
      </trkpt>
      <trkpt lat="44.97526" lon="1.84726">
        <ele>152.8</ele>
        <time>2022-08-06T07:38:52Z</time>
      </trkpt>
      <trkpt lat="44.97523" lon="1.8473">
        <ele>152.6</ele>
        <time>2022-08-06T07:38:54Z</time>
      </trkpt>
      <trkpt lat="44.9752" lon="1.84734">
        <ele>152.3</ele>
        <time>2022-08-06T07:38:56Z</time>
      </trkpt>
      <trkpt lat="44.97516" lon="1.84739">
        <ele>152</ele>
        <time>2022-08-06T07:38:58Z</time>
      </trkpt>
      <trkpt lat="44.97511" lon="1.84746">
        <ele>151.6</ele>
        <time>2022-08-06T07:39:00Z</time>
      </trkpt>
      <trkpt lat="44.97505" lon="1.84753">
        <ele>150.9</ele>
        <time>2022-08-06T07:39:02Z</time>
      </trkpt>
      <trkpt lat="44.97499" lon="1.84759">
        <ele>150.3</ele>
        <time>2022-08-06T07:39:04Z</time>
      </trkpt>
      <trkpt lat="44.97492" lon="1.84768">
        <ele>150.2</ele>
        <time>2022-08-06T07:39:06Z</time>
      </trkpt>
      <trkpt lat="44.97486" lon="1.84776">
        <ele>150.2</ele>
        <time>2022-08-06T07:39:08Z</time>
      </trkpt>
      <trkpt lat="44.97479" lon="1.84785">
        <ele>150</ele>
        <time>2022-08-06T07:39:10Z</time>
      </trkpt>
      <trkpt lat="44.97472" lon="1.84794">
        <ele>149.9</ele>
        <time>2022-08-06T07:39:12Z</time>
      </trkpt>
      <trkpt lat="44.97464" lon="1.84803">
        <ele>149.7</ele>
        <time>2022-08-06T07:39:14Z</time>
      </trkpt>
      <trkpt lat="44.97457" lon="1.84813">
        <ele>149.4</ele>
        <time>2022-08-06T07:39:16Z</time>
      </trkpt>
      <trkpt lat="44.97449" lon="1.84823">
        <ele>149.1</ele>
        <time>2022-08-06T07:39:18Z</time>
      </trkpt>
      <trkpt lat="44.97441" lon="1.84832">
        <ele>148.7</ele>
        <time>2022-08-06T07:39:20Z</time>
      </trkpt>
      <trkpt lat="44.97434" lon="1.84842">
        <ele>148.4</ele>
        <time>2022-08-06T07:39:22Z</time>
      </trkpt>
      <trkpt lat="44.97426" lon="1.84851">
        <ele>148.1</ele>
        <time>2022-08-06T07:39:24Z</time>
      </trkpt>
      <trkpt lat="44.97419" lon="1.84861">
        <ele>147.8</ele>
        <time>2022-08-06T07:39:26Z</time>
      </trkpt>
      <trkpt lat="44.97411" lon="1.84871">
        <ele>147.7</ele>
        <time>2022-08-06T07:39:28Z</time>
      </trkpt>
      <trkpt lat="44.97403" lon="1.84882">
        <ele>147.8</ele>
        <time>2022-08-06T07:39:30Z</time>
      </trkpt>
      <trkpt lat="44.97397" lon="1.84892">
        <ele>147.9</ele>
        <time>2022-08-06T07:39:32Z</time>
      </trkpt>
      <trkpt lat="44.97388" lon="1.84903">
        <ele>147.9</ele>
        <time>2022-08-06T07:39:34Z</time>
      </trkpt>
      <trkpt lat="44.97381" lon="1.84912">
        <ele>148</ele>
        <time>2022-08-06T07:39:36Z</time>
      </trkpt>
      <trkpt lat="44.97374" lon="1.84919">
        <ele>148</ele>
        <time>2022-08-06T07:39:38Z</time>
      </trkpt>
      <trkpt lat="44.9737" lon="1.84924">
        <ele>148</ele>
        <time>2022-08-06T07:39:40Z</time>
      </trkpt>
      <trkpt lat="44.97367" lon="1.84929">
        <ele>148</ele>
        <time>2022-08-06T07:39:42Z</time>
      </trkpt>
      <trkpt lat="44.97365" lon="1.84932">
        <ele>147.9</ele>
        <time>2022-08-06T07:39:44Z</time>
      </trkpt>
      <trkpt lat="44.97363" lon="1.84934">
        <ele>147.9</ele>
        <time>2022-08-06T07:39:46Z</time>
      </trkpt>
      <trkpt lat="44.97362" lon="1.84936">
        <ele>147.8</ele>
        <time>2022-08-06T07:39:48Z</time>
      </trkpt>
      <trkpt lat="44.97361" lon="1.84938">
        <ele>147.8</ele>
        <time>2022-08-06T07:39:50Z</time>
      </trkpt>
      <trkpt lat="44.97359" lon="1.84939">
        <ele>147.8</ele>
        <time>2022-08-06T07:39:52Z</time>
      </trkpt>
      <trkpt lat="44.97358" lon="1.84942">
        <ele>147.8</ele>
        <time>2022-08-06T07:39:54Z</time>
      </trkpt>
      <trkpt lat="44.97361" lon="1.84946">
        <ele>147.9</ele>
        <time>2022-08-06T07:39:56Z</time>
      </trkpt>
      <trkpt lat="44.97368" lon="1.84944">
        <ele>148.2</ele>
        <time>2022-08-06T07:39:58Z</time>
      </trkpt>
      <trkpt lat="44.97373" lon="1.84946">
        <ele>148.4</ele>
        <time>2022-08-06T07:40:00Z</time>
      </trkpt>
      <trkpt lat="44.97375" lon="1.84951">
        <ele>148.6</ele>
        <time>2022-08-06T07:40:02Z</time>
      </trkpt>
      <trkpt lat="44.97378" lon="1.84956">
        <ele>148.8</ele>
        <time>2022-08-06T07:40:04Z</time>
      </trkpt>
      <trkpt lat="44.97381" lon="1.84956">
        <ele>149</ele>
        <time>2022-08-06T07:40:06Z</time>
      </trkpt>
      <trkpt lat="44.97382" lon="1.84956">
        <ele>149.1</ele>
        <time>2022-08-06T07:40:08Z</time>
      </trkpt>
      <trkpt lat="44.97381" lon="1.84959">
        <ele>149.1</ele>
        <time>2022-08-06T07:40:10Z</time>
      </trkpt>
      <trkpt lat="44.97382" lon="1.84962">
        <ele>149.2</ele>
        <time>2022-08-06T07:40:12Z</time>
      </trkpt>
      <trkpt lat="44.97382" lon="1.84962">
        <ele>149.2</ele>
        <time>2022-08-06T07:40:14Z</time>
      </trkpt>
      <trkpt lat="44.97382" lon="1.84962">
        <ele>149.2</ele>
        <time>2022-08-06T07:40:16Z</time>
      </trkpt>
      <trkpt lat="44.97383" lon="1.84964">
        <ele>149.3</ele>
        <time>2022-08-06T07:40:18Z</time>
      </trkpt>
      <trkpt lat="44.97383" lon="1.84965">
        <ele>149.3</ele>
        <time>2022-08-06T07:40:20Z</time>
      </trkpt>
      <trkpt lat="44.97374" lon="1.85003">
        <ele>149.6</ele>
        <time>2022-08-06T07:44:03Z</time>
      </trkpt>
      <trkpt lat="44.97386" lon="1.84982">
        <ele>149.9</ele>
        <time>2022-08-06T07:44:05Z</time>
      </trkpt>
      <trkpt lat="44.9738" lon="1.84957">
        <ele>149</ele>
        <time>2022-08-06T07:44:23Z</time>
      </trkpt>
      <trkpt lat="44.97378" lon="1.84951">
        <ele>148.8</ele>
        <time>2022-08-06T07:44:25Z</time>
      </trkpt>
      <trkpt lat="44.97375" lon="1.84946">
        <ele>148.5</ele>
        <time>2022-08-06T07:44:27Z</time>
      </trkpt>
      <trkpt lat="44.97372" lon="1.84939">
        <ele>148.3</ele>
        <time>2022-08-06T07:44:29Z</time>
      </trkpt>
      <trkpt lat="44.97371" lon="1.84935">
        <ele>148.2</ele>
        <time>2022-08-06T07:44:31Z</time>
      </trkpt>
      <trkpt lat="44.97372" lon="1.84931">
        <ele>148.1</ele>
        <time>2022-08-06T07:44:33Z</time>
      </trkpt>
      <trkpt lat="44.97372" lon="1.84932">
        <ele>148.2</ele>
        <time>2022-08-06T07:44:35Z</time>
      </trkpt>
      <trkpt lat="44.97372" lon="1.84929">
        <ele>148.1</ele>
        <time>2022-08-06T07:44:37Z</time>
      </trkpt>
      <trkpt lat="44.97374" lon="1.84924">
        <ele>148.1</ele>
        <time>2022-08-06T07:44:39Z</time>
      </trkpt>
      <trkpt lat="44.97379" lon="1.84918">
        <ele>148.1</ele>
        <time>2022-08-06T07:44:41Z</time>
      </trkpt>
      <trkpt lat="44.97385" lon="1.8491">
        <ele>148.1</ele>
        <time>2022-08-06T07:44:43Z</time>
      </trkpt>
      <trkpt lat="44.9739" lon="1.84906">
        <ele>148.1</ele>
        <time>2022-08-06T07:44:45Z</time>
      </trkpt>
      <trkpt lat="44.97396" lon="1.84899">
        <ele>148</ele>
        <time>2022-08-06T07:44:47Z</time>
      </trkpt>
      <trkpt lat="44.97402" lon="1.84893">
        <ele>148</ele>
        <time>2022-08-06T07:44:49Z</time>
      </trkpt>
      <trkpt lat="44.97407" lon="1.84886">
        <ele>148</ele>
        <time>2022-08-06T07:44:51Z</time>
      </trkpt>
      <trkpt lat="44.97413" lon="1.8488">
        <ele>148</ele>
        <time>2022-08-06T07:44:53Z</time>
      </trkpt>
      <trkpt lat="44.97419" lon="1.84873">
        <ele>148.1</ele>
        <time>2022-08-06T07:44:55Z</time>
      </trkpt>
      <trkpt lat="44.97424" lon="1.84866">
        <ele>148.4</ele>
        <time>2022-08-06T07:44:57Z</time>
      </trkpt>
      <trkpt lat="44.9743" lon="1.84858">
        <ele>148.6</ele>
        <time>2022-08-06T07:44:59Z</time>
      </trkpt>
      <trkpt lat="44.97435" lon="1.84852">
        <ele>148.8</ele>
        <time>2022-08-06T07:45:01Z</time>
      </trkpt>
      <trkpt lat="44.9744" lon="1.84845">
        <ele>149</ele>
        <time>2022-08-06T07:45:03Z</time>
      </trkpt>
      <trkpt lat="44.97445" lon="1.84838">
        <ele>149.2</ele>
        <time>2022-08-06T07:45:05Z</time>
      </trkpt>
      <trkpt lat="44.9745" lon="1.84831">
        <ele>149.4</ele>
        <time>2022-08-06T07:45:07Z</time>
      </trkpt>
      <trkpt lat="44.97455" lon="1.84823">
        <ele>149.5</ele>
        <time>2022-08-06T07:45:09Z</time>
      </trkpt>
      <trkpt lat="44.9746" lon="1.84816">
        <ele>149.7</ele>
        <time>2022-08-06T07:45:11Z</time>
      </trkpt>
      <trkpt lat="44.97466" lon="1.84809">
        <ele>149.9</ele>
        <time>2022-08-06T07:45:13Z</time>
      </trkpt>
      <trkpt lat="44.97471" lon="1.84802">
        <ele>150</ele>
        <time>2022-08-06T07:45:15Z</time>
      </trkpt>
      <trkpt lat="44.97477" lon="1.84795">
        <ele>150.2</ele>
        <time>2022-08-06T07:45:17Z</time>
      </trkpt>
      <trkpt lat="44.97482" lon="1.84788">
        <ele>150.3</ele>
        <time>2022-08-06T07:45:19Z</time>
      </trkpt>
      <trkpt lat="44.97488" lon="1.84781">
        <ele>150.4</ele>
        <time>2022-08-06T07:45:21Z</time>
      </trkpt>
      <trkpt lat="44.97493" lon="1.84774">
        <ele>150.5</ele>
        <time>2022-08-06T07:45:23Z</time>
      </trkpt>
      <trkpt lat="44.97499" lon="1.84768">
        <ele>150.6</ele>
        <time>2022-08-06T07:45:25Z</time>
      </trkpt>
      <trkpt lat="44.97504" lon="1.84761">
        <ele>151.1</ele>
        <time>2022-08-06T07:45:27Z</time>
      </trkpt>
      <trkpt lat="44.97509" lon="1.84754">
        <ele>151.7</ele>
        <time>2022-08-06T07:45:29Z</time>
      </trkpt>
      <trkpt lat="44.97514" lon="1.84747">
        <ele>152.2</ele>
        <time>2022-08-06T07:45:31Z</time>
      </trkpt>
      <trkpt lat="44.9752" lon="1.84739">
        <ele>152.7</ele>
        <time>2022-08-06T07:45:33Z</time>
      </trkpt>
      <trkpt lat="44.97527" lon="1.84733">
        <ele>153.3</ele>
        <time>2022-08-06T07:45:35Z</time>
      </trkpt>
      <trkpt lat="44.97532" lon="1.84726">
        <ele>153.7</ele>
        <time>2022-08-06T07:45:37Z</time>
      </trkpt>
      <trkpt lat="44.97538" lon="1.84718">
        <ele>154</ele>
        <time>2022-08-06T07:45:39Z</time>
      </trkpt>
      <trkpt lat="44.97544" lon="1.84711">
        <ele>154.3</ele>
        <time>2022-08-06T07:45:41Z</time>
      </trkpt>
      <trkpt lat="44.97549" lon="1.84703">
        <ele>154.4</ele>
        <time>2022-08-06T07:45:43Z</time>
      </trkpt>
      <trkpt lat="44.97555" lon="1.84695">
        <ele>154.4</ele>
        <time>2022-08-06T07:45:45Z</time>
      </trkpt>
      <trkpt lat="44.97561" lon="1.84687">
        <ele>154.4</ele>
        <time>2022-08-06T07:45:47Z</time>
      </trkpt>
      <trkpt lat="44.97566" lon="1.8468">
        <ele>154.4</ele>
        <time>2022-08-06T07:45:49Z</time>
      </trkpt>
      <trkpt lat="44.97572" lon="1.84673">
        <ele>154.3</ele>
        <time>2022-08-06T07:45:51Z</time>
      </trkpt>
      <trkpt lat="44.97577" lon="1.84666">
        <ele>154.3</ele>
        <time>2022-08-06T07:45:53Z</time>
      </trkpt>
      <trkpt lat="44.97583" lon="1.84658">
        <ele>154.3</ele>
        <time>2022-08-06T07:45:55Z</time>
      </trkpt>
      <trkpt lat="44.97588" lon="1.84652">
        <ele>154.6</ele>
        <time>2022-08-06T07:45:57Z</time>
      </trkpt>
      <trkpt lat="44.97594" lon="1.84644">
        <ele>154.8</ele>
        <time>2022-08-06T07:45:59Z</time>
      </trkpt>
      <trkpt lat="44.976" lon="1.84636">
        <ele>154.8</ele>
        <time>2022-08-06T07:46:01Z</time>
      </trkpt>
      <trkpt lat="44.97607" lon="1.84628">
        <ele>154.8</ele>
        <time>2022-08-06T07:46:03Z</time>
      </trkpt>
      <trkpt lat="44.97614" lon="1.84619">
        <ele>154.6</ele>
        <time>2022-08-06T07:46:05Z</time>
      </trkpt>
      <trkpt lat="44.97621" lon="1.8461">
        <ele>154.2</ele>
        <time>2022-08-06T07:46:07Z</time>
      </trkpt>
      <trkpt lat="44.97628" lon="1.84601">
        <ele>153.7</ele>
        <time>2022-08-06T07:46:09Z</time>
      </trkpt>
      <trkpt lat="44.97635" lon="1.84592">
        <ele>153</ele>
        <time>2022-08-06T07:46:11Z</time>
      </trkpt>
      <trkpt lat="44.97642" lon="1.84583">
        <ele>152.2</ele>
        <time>2022-08-06T07:46:13Z</time>
      </trkpt>
      <trkpt lat="44.9765" lon="1.84574">
        <ele>152.1</ele>
        <time>2022-08-06T07:46:15Z</time>
      </trkpt>
      <trkpt lat="44.97657" lon="1.84564">
        <ele>152</ele>
        <time>2022-08-06T07:46:17Z</time>
      </trkpt>
      <trkpt lat="44.97665" lon="1.84555">
        <ele>151.8</ele>
        <time>2022-08-06T07:46:19Z</time>
      </trkpt>
      <trkpt lat="44.97672" lon="1.84545">
        <ele>152.6</ele>
        <time>2022-08-06T07:46:21Z</time>
      </trkpt>
      <trkpt lat="44.97679" lon="1.84536">
        <ele>153.8</ele>
        <time>2022-08-06T07:46:23Z</time>
      </trkpt>
      <trkpt lat="44.97687" lon="1.84526">
        <ele>154.5</ele>
        <time>2022-08-06T07:46:25Z</time>
      </trkpt>
      <trkpt lat="44.97695" lon="1.84516">
        <ele>155.2</ele>
        <time>2022-08-06T07:46:27Z</time>
      </trkpt>
      <trkpt lat="44.97703" lon="1.84505">
        <ele>155.3</ele>
        <time>2022-08-06T07:46:29Z</time>
      </trkpt>
      <trkpt lat="44.9771" lon="1.84494">
        <ele>155.1</ele>
        <time>2022-08-06T07:46:31Z</time>
      </trkpt>
      <trkpt lat="44.97717" lon="1.84482">
        <ele>154.5</ele>
        <time>2022-08-06T07:46:33Z</time>
      </trkpt>
      <trkpt lat="44.97721" lon="1.84468">
        <ele>152.9</ele>
        <time>2022-08-06T07:46:35Z</time>
      </trkpt>
      <trkpt lat="44.97724" lon="1.84453">
        <ele>150.9</ele>
        <time>2022-08-06T07:46:37Z</time>
      </trkpt>
      <trkpt lat="44.97727" lon="1.84438">
        <ele>148.7</ele>
        <time>2022-08-06T07:46:39Z</time>
      </trkpt>
      <trkpt lat="44.97729" lon="1.84422">
        <ele>146.2</ele>
        <time>2022-08-06T07:46:41Z</time>
      </trkpt>
      <trkpt lat="44.9773" lon="1.84407">
        <ele>144.8</ele>
        <time>2022-08-06T07:46:43Z</time>
      </trkpt>
      <trkpt lat="44.97731" lon="1.84391">
        <ele>144.1</ele>
        <time>2022-08-06T07:46:45Z</time>
      </trkpt>
      <trkpt lat="44.97732" lon="1.84377">
        <ele>143.5</ele>
        <time>2022-08-06T07:46:47Z</time>
      </trkpt>
      <trkpt lat="44.97733" lon="1.84364">
        <ele>142.9</ele>
        <time>2022-08-06T07:46:49Z</time>
      </trkpt>
      <trkpt lat="44.97735" lon="1.84352">
        <ele>142.3</ele>
        <time>2022-08-06T07:46:51Z</time>
      </trkpt>
      <trkpt lat="44.97736" lon="1.84339">
        <ele>141.6</ele>
        <time>2022-08-06T07:46:53Z</time>
      </trkpt>
      <trkpt lat="44.97737" lon="1.84326">
        <ele>141.2</ele>
        <time>2022-08-06T07:46:55Z</time>
      </trkpt>
      <trkpt lat="44.97738" lon="1.84314">
        <ele>141</ele>
        <time>2022-08-06T07:46:57Z</time>
      </trkpt>
      <trkpt lat="44.97739" lon="1.84301">
        <ele>140.8</ele>
        <time>2022-08-06T07:46:59Z</time>
      </trkpt>
      <trkpt lat="44.9774" lon="1.84288">
        <ele>140.6</ele>
        <time>2022-08-06T07:47:01Z</time>
      </trkpt>
      <trkpt lat="44.97741" lon="1.84275">
        <ele>140.4</ele>
        <time>2022-08-06T07:47:03Z</time>
      </trkpt>
      <trkpt lat="44.97742" lon="1.84262">
        <ele>140.2</ele>
        <time>2022-08-06T07:47:05Z</time>
      </trkpt>
      <trkpt lat="44.97744" lon="1.84248">
        <ele>140.2</ele>
        <time>2022-08-06T07:47:07Z</time>
      </trkpt>
      <trkpt lat="44.97745" lon="1.84234">
        <ele>140.6</ele>
        <time>2022-08-06T07:47:09Z</time>
      </trkpt>
      <trkpt lat="44.97746" lon="1.8422">
        <ele>141.1</ele>
        <time>2022-08-06T07:47:11Z</time>
      </trkpt>
      <trkpt lat="44.97747" lon="1.84206">
        <ele>141.6</ele>
        <time>2022-08-06T07:47:13Z</time>
      </trkpt>
      <trkpt lat="44.97749" lon="1.84191">
        <ele>142.1</ele>
        <time>2022-08-06T07:47:15Z</time>
      </trkpt>
      <trkpt lat="44.9775" lon="1.84177">
        <ele>142.6</ele>
        <time>2022-08-06T07:47:17Z</time>
      </trkpt>
      <trkpt lat="44.97751" lon="1.84163">
        <ele>143.2</ele>
        <time>2022-08-06T07:47:19Z</time>
      </trkpt>
      <trkpt lat="44.97753" lon="1.84149">
        <ele>143.8</ele>
        <time>2022-08-06T07:47:21Z</time>
      </trkpt>
      <trkpt lat="44.97754" lon="1.84135">
        <ele>144.5</ele>
        <time>2022-08-06T07:47:23Z</time>
      </trkpt>
      <trkpt lat="44.97755" lon="1.84123">
        <ele>145</ele>
        <time>2022-08-06T07:47:25Z</time>
      </trkpt>
      <trkpt lat="44.97756" lon="1.84111">
        <ele>145.6</ele>
        <time>2022-08-06T07:47:27Z</time>
      </trkpt>
      <trkpt lat="44.97757" lon="1.84099">
        <ele>146.2</ele>
        <time>2022-08-06T07:47:29Z</time>
      </trkpt>
      <trkpt lat="44.97758" lon="1.84087">
        <ele>146.7</ele>
        <time>2022-08-06T07:47:31Z</time>
      </trkpt>
      <trkpt lat="44.97759" lon="1.84077">
        <ele>147</ele>
        <time>2022-08-06T07:47:33Z</time>
      </trkpt>
      <trkpt lat="44.9776" lon="1.84066">
        <ele>147.1</ele>
        <time>2022-08-06T07:47:35Z</time>
      </trkpt>
      <trkpt lat="44.97761" lon="1.84056">
        <ele>147.3</ele>
        <time>2022-08-06T07:47:37Z</time>
      </trkpt>
      <trkpt lat="44.97762" lon="1.84045">
        <ele>147.4</ele>
        <time>2022-08-06T07:47:39Z</time>
      </trkpt>
      <trkpt lat="44.97763" lon="1.84035">
        <ele>147.6</ele>
        <time>2022-08-06T07:47:41Z</time>
      </trkpt>
      <trkpt lat="44.97764" lon="1.84025">
        <ele>147.8</ele>
        <time>2022-08-06T07:47:43Z</time>
      </trkpt>
      <trkpt lat="44.97765" lon="1.84016">
        <ele>147.9</ele>
        <time>2022-08-06T07:47:45Z</time>
      </trkpt>
      <trkpt lat="44.97766" lon="1.84007">
        <ele>148.1</ele>
        <time>2022-08-06T07:47:47Z</time>
      </trkpt>
      <trkpt lat="44.97767" lon="1.83997">
        <ele>148.3</ele>
        <time>2022-08-06T07:47:49Z</time>
      </trkpt>
      <trkpt lat="44.97768" lon="1.83988">
        <ele>148.6</ele>
        <time>2022-08-06T07:47:51Z</time>
      </trkpt>
      <trkpt lat="44.97771" lon="1.83979">
        <ele>148.9</ele>
        <time>2022-08-06T07:47:53Z</time>
      </trkpt>
      <trkpt lat="44.97773" lon="1.8397">
        <ele>149.2</ele>
        <time>2022-08-06T07:47:55Z</time>
      </trkpt>
      <trkpt lat="44.97776" lon="1.83962">
        <ele>149.4</ele>
        <time>2022-08-06T07:47:57Z</time>
      </trkpt>
      <trkpt lat="44.97779" lon="1.83954">
        <ele>149.6</ele>
        <time>2022-08-06T07:47:59Z</time>
      </trkpt>
      <trkpt lat="44.97783" lon="1.83948">
        <ele>149.8</ele>
        <time>2022-08-06T07:48:01Z</time>
      </trkpt>
      <trkpt lat="44.97785" lon="1.83942">
        <ele>149.9</ele>
        <time>2022-08-06T07:48:03Z</time>
      </trkpt>
      <trkpt lat="44.97788" lon="1.83939">
        <ele>150</ele>
        <time>2022-08-06T07:48:05Z</time>
      </trkpt>
      <trkpt lat="44.97791" lon="1.83942">
        <ele>149.9</ele>
        <time>2022-08-06T07:48:07Z</time>
      </trkpt>
      <trkpt lat="44.97794" lon="1.83949">
        <ele>149.7</ele>
        <time>2022-08-06T07:48:09Z</time>
      </trkpt>
      <trkpt lat="44.97796" lon="1.83957">
        <ele>149.5</ele>
        <time>2022-08-06T07:48:11Z</time>
      </trkpt>
      <trkpt lat="44.97798" lon="1.83964">
        <ele>149.4</ele>
        <time>2022-08-06T07:48:13Z</time>
      </trkpt>
      <trkpt lat="44.97801" lon="1.83971">
        <ele>149.2</ele>
        <time>2022-08-06T07:48:15Z</time>
      </trkpt>
      <trkpt lat="44.97804" lon="1.83977">
        <ele>149.1</ele>
        <time>2022-08-06T07:48:17Z</time>
      </trkpt>
      <trkpt lat="44.97807" lon="1.83982">
        <ele>149</ele>
        <time>2022-08-06T07:48:19Z</time>
      </trkpt>
      <trkpt lat="44.97809" lon="1.83987">
        <ele>149</ele>
        <time>2022-08-06T07:48:21Z</time>
      </trkpt>
      <trkpt lat="44.97811" lon="1.83993">
        <ele>148.9</ele>
        <time>2022-08-06T07:48:23Z</time>
      </trkpt>
      <trkpt lat="44.97814" lon="1.83998">
        <ele>148.8</ele>
        <time>2022-08-06T07:48:25Z</time>
      </trkpt>
      <trkpt lat="44.97817" lon="1.84002">
        <ele>148.8</ele>
        <time>2022-08-06T07:48:27Z</time>
      </trkpt>
      <trkpt lat="44.97819" lon="1.84003">
        <ele>148.7</ele>
        <time>2022-08-06T07:48:29Z</time>
      </trkpt>
      <trkpt lat="44.97823" lon="1.84005">
        <ele>148.7</ele>
        <time>2022-08-06T07:48:31Z</time>
      </trkpt>
      <trkpt lat="44.97825" lon="1.84008">
        <ele>148.6</ele>
        <time>2022-08-06T07:48:33Z</time>
      </trkpt>
      <trkpt lat="44.97825" lon="1.84002">
        <ele>148.8</ele>
        <time>2022-08-06T07:48:35Z</time>
      </trkpt>
      <trkpt lat="44.97829" lon="1.84004">
        <ele>148.8</ele>
        <time>2022-08-06T07:48:37Z</time>
      </trkpt>
      <trkpt lat="44.97834" lon="1.84009">
        <ele>148.7</ele>
        <time>2022-08-06T07:48:39Z</time>
      </trkpt>
      <trkpt lat="44.97838" lon="1.84015">
        <ele>148.4</ele>
        <time>2022-08-06T07:48:41Z</time>
      </trkpt>
      <trkpt lat="44.97842" lon="1.84023">
        <ele>148</ele>
        <time>2022-08-06T07:48:43Z</time>
      </trkpt>
      <trkpt lat="44.97847" lon="1.84027">
        <ele>147.7</ele>
        <time>2022-08-06T07:48:45Z</time>
      </trkpt>
      <trkpt lat="44.97851" lon="1.84033">
        <ele>147.5</ele>
        <time>2022-08-06T07:48:47Z</time>
      </trkpt>
      <trkpt lat="44.97853" lon="1.84039">
        <ele>147.3</ele>
        <time>2022-08-06T07:48:49Z</time>
      </trkpt>
      <trkpt lat="44.97854" lon="1.84039">
        <ele>147.2</ele>
        <time>2022-08-06T07:48:51Z</time>
      </trkpt>
      <trkpt lat="44.97857" lon="1.84035">
        <ele>147.3</ele>
        <time>2022-08-06T07:48:53Z</time>
      </trkpt>
      <trkpt lat="44.97862" lon="1.84032">
        <ele>147.3</ele>
        <time>2022-08-06T07:48:55Z</time>
      </trkpt>
      <trkpt lat="44.97866" lon="1.84028">
        <ele>147.3</ele>
        <time>2022-08-06T07:48:57Z</time>
      </trkpt>
      <trkpt lat="44.97871" lon="1.84024">
        <ele>147.4</ele>
        <time>2022-08-06T07:48:59Z</time>
      </trkpt>
      <trkpt lat="44.97875" lon="1.8402">
        <ele>147.4</ele>
        <time>2022-08-06T07:49:01Z</time>
      </trkpt>
      <trkpt lat="44.97879" lon="1.84016">
        <ele>147.4</ele>
        <time>2022-08-06T07:49:03Z</time>
      </trkpt>
      <trkpt lat="44.97883" lon="1.84012">
        <ele>147.5</ele>
        <time>2022-08-06T07:49:05Z</time>
      </trkpt>
      <trkpt lat="44.97887" lon="1.84004">
        <ele>147.6</ele>
        <time>2022-08-06T07:49:07Z</time>
      </trkpt>
      <trkpt lat="44.97892" lon="1.83999">
        <ele>147.6</ele>
        <time>2022-08-06T07:49:09Z</time>
      </trkpt>
      <trkpt lat="44.97894" lon="1.83995">
        <ele>147.7</ele>
        <time>2022-08-06T07:49:11Z</time>
      </trkpt>
      <trkpt lat="44.979" lon="1.8399">
        <ele>147.9</ele>
        <time>2022-08-06T07:49:13Z</time>
      </trkpt>
      <trkpt lat="44.97904" lon="1.83984">
        <ele>148.1</ele>
        <time>2022-08-06T07:49:15Z</time>
      </trkpt>
      <trkpt lat="44.97905" lon="1.8398">
        <ele>148.4</ele>
        <time>2022-08-06T07:49:17Z</time>
      </trkpt>
      <trkpt lat="44.97908" lon="1.83976">
        <ele>148.6</ele>
        <time>2022-08-06T07:49:19Z</time>
      </trkpt>
      <trkpt lat="44.97912" lon="1.83974">
        <ele>148.6</ele>
        <time>2022-08-06T07:49:21Z</time>
      </trkpt>
      <trkpt lat="44.97916" lon="1.83973">
        <ele>148.6</ele>
        <time>2022-08-06T07:49:23Z</time>
      </trkpt>
      <trkpt lat="44.9792" lon="1.8397">
        <ele>148.7</ele>
        <time>2022-08-06T07:49:25Z</time>
      </trkpt>
      <trkpt lat="44.97921" lon="1.83968">
        <ele>148.8</ele>
        <time>2022-08-06T07:49:27Z</time>
      </trkpt>
      <trkpt lat="44.97922" lon="1.83968">
        <ele>148.7</ele>
        <time>2022-08-06T07:49:29Z</time>
      </trkpt>
      <trkpt lat="44.97924" lon="1.83965">
        <ele>148.9</ele>
        <time>2022-08-06T07:49:31Z</time>
      </trkpt>
      <trkpt lat="44.97926" lon="1.8396">
        <ele>149.1</ele>
        <time>2022-08-06T07:49:33Z</time>
      </trkpt>
      <trkpt lat="44.97925" lon="1.83956">
        <ele>149.4</ele>
        <time>2022-08-06T07:49:35Z</time>
      </trkpt>
      <trkpt lat="44.97927" lon="1.8395">
        <ele>149.7</ele>
        <time>2022-08-06T07:49:37Z</time>
      </trkpt>
      <trkpt lat="44.97928" lon="1.83946">
        <ele>149.9</ele>
        <time>2022-08-06T07:49:39Z</time>
      </trkpt>
      <trkpt lat="44.97928" lon="1.83945">
        <ele>149.9</ele>
        <time>2022-08-06T07:49:41Z</time>
      </trkpt>
      <trkpt lat="44.9793" lon="1.83939">
        <ele>150.2</ele>
        <time>2022-08-06T07:49:43Z</time>
      </trkpt>
      <trkpt lat="44.97929" lon="1.83933">
        <ele>150.6</ele>
        <time>2022-08-06T07:49:45Z</time>
      </trkpt>
      <trkpt lat="44.97927" lon="1.83928">
        <ele>150.9</ele>
        <time>2022-08-06T07:49:47Z</time>
      </trkpt>
      <trkpt lat="44.97928" lon="1.83923">
        <ele>151.2</ele>
        <time>2022-08-06T07:49:49Z</time>
      </trkpt>
      <trkpt lat="44.97929" lon="1.83917">
        <ele>151.6</ele>
        <time>2022-08-06T07:49:51Z</time>
      </trkpt>
      <trkpt lat="44.97928" lon="1.8391">
        <ele>151.7</ele>
        <time>2022-08-06T07:49:53Z</time>
      </trkpt>
      <trkpt lat="44.97927" lon="1.83905">
        <ele>151.9</ele>
        <time>2022-08-06T07:49:55Z</time>
      </trkpt>
      <trkpt lat="44.97927" lon="1.83902">
        <ele>152</ele>
        <time>2022-08-06T07:49:57Z</time>
      </trkpt>
      <trkpt lat="44.97923" lon="1.83901">
        <ele>152.1</ele>
        <time>2022-08-06T07:49:59Z</time>
      </trkpt>
      <trkpt lat="44.97921" lon="1.83895">
        <ele>152.3</ele>
        <time>2022-08-06T07:50:01Z</time>
      </trkpt>
      <trkpt lat="44.97917" lon="1.83891">
        <ele>152.6</ele>
        <time>2022-08-06T07:50:03Z</time>
      </trkpt>
      <trkpt lat="44.97915" lon="1.83887">
        <ele>152.7</ele>
        <time>2022-08-06T07:50:05Z</time>
      </trkpt>
      <trkpt lat="44.97914" lon="1.83883">
        <ele>152.7</ele>
        <time>2022-08-06T07:50:07Z</time>
      </trkpt>
      <trkpt lat="44.97911" lon="1.83878">
        <ele>152.8</ele>
        <time>2022-08-06T07:50:09Z</time>
      </trkpt>
      <trkpt lat="44.9791" lon="1.83874">
        <ele>152.8</ele>
        <time>2022-08-06T07:50:11Z</time>
      </trkpt>
      <trkpt lat="44.97909" lon="1.8387">
        <ele>152.9</ele>
        <time>2022-08-06T07:50:13Z</time>
      </trkpt>
      <trkpt lat="44.97906" lon="1.83866">
        <ele>152.9</ele>
        <time>2022-08-06T07:50:15Z</time>
      </trkpt>
      <trkpt lat="44.97904" lon="1.83862">
        <ele>152.9</ele>
        <time>2022-08-06T07:50:17Z</time>
      </trkpt>
      <trkpt lat="44.97904" lon="1.83856">
        <ele>153</ele>
        <time>2022-08-06T07:50:19Z</time>
      </trkpt>
      <trkpt lat="44.97906" lon="1.83851">
        <ele>153.2</ele>
        <time>2022-08-06T07:50:21Z</time>
      </trkpt>
      <trkpt lat="44.97908" lon="1.83846">
        <ele>153.4</ele>
        <time>2022-08-06T07:50:23Z</time>
      </trkpt>
      <trkpt lat="44.97908" lon="1.83843">
        <ele>153.5</ele>
        <time>2022-08-06T07:50:25Z</time>
      </trkpt>
      <trkpt lat="44.97911" lon="1.83838">
        <ele>153.7</ele>
        <time>2022-08-06T07:50:27Z</time>
      </trkpt>
      <trkpt lat="44.97914" lon="1.83835">
        <ele>153.9</ele>
        <time>2022-08-06T07:50:29Z</time>
      </trkpt>
      <trkpt lat="44.97916" lon="1.83832">
        <ele>154</ele>
        <time>2022-08-06T07:50:31Z</time>
      </trkpt>
      <trkpt lat="44.97915" lon="1.83831">
        <ele>154</ele>
        <time>2022-08-06T07:50:33Z</time>
      </trkpt>
      <trkpt lat="44.97915" lon="1.83831">
        <ele>154</ele>
        <time>2022-08-06T07:50:35Z</time>
      </trkpt>
      <trkpt lat="44.97915" lon="1.83831">
        <ele>154</ele>
        <time>2022-08-06T07:50:39Z</time>
      </trkpt>
      <trkpt lat="44.97915" lon="1.83831">
        <ele>154</ele>
        <time>2022-08-06T07:50:41Z</time>
      </trkpt>
      <trkpt lat="44.97924" lon="1.83834">
        <ele>153.6</ele>
        <time>2022-08-06T07:51:56Z</time>
      </trkpt>
      <trkpt lat="44.97924" lon="1.83835">
        <ele>153.6</ele>
        <time>2022-08-06T07:51:58Z</time>
      </trkpt>
      <trkpt lat="44.97903" lon="1.83827">
        <ele>153.6</ele>
        <time>2022-08-06T08:35:56Z</time>
      </trkpt>
      <trkpt lat="44.97915" lon="1.83848">
        <ele>153.6</ele>
        <time>2022-08-06T08:38:52Z</time>
      </trkpt>
      <trkpt lat="44.97919" lon="1.83856">
        <ele>153.4</ele>
        <time>2022-08-06T08:38:54Z</time>
      </trkpt>
      <trkpt lat="44.97925" lon="1.83861">
        <ele>152.9</ele>
        <time>2022-08-06T08:38:56Z</time>
      </trkpt>
      <trkpt lat="44.9793" lon="1.83868">
        <ele>152.6</ele>
        <time>2022-08-06T08:38:58Z</time>
      </trkpt>
      <trkpt lat="44.97934" lon="1.83871">
        <ele>152.4</ele>
        <time>2022-08-06T08:39:00Z</time>
      </trkpt>
      <trkpt lat="44.97936" lon="1.83871">
        <ele>152.3</ele>
        <time>2022-08-06T08:39:02Z</time>
      </trkpt>
      <trkpt lat="44.9794" lon="1.83873">
        <ele>152.1</ele>
        <time>2022-08-06T08:39:04Z</time>
      </trkpt>
      <trkpt lat="44.97943" lon="1.83876">
        <ele>151.9</ele>
        <time>2022-08-06T08:39:06Z</time>
      </trkpt>
      <trkpt lat="44.97948" lon="1.83874">
        <ele>151.7</ele>
        <time>2022-08-06T08:39:08Z</time>
      </trkpt>
      <trkpt lat="44.97952" lon="1.8387">
        <ele>151.6</ele>
        <time>2022-08-06T08:39:10Z</time>
      </trkpt>
      <trkpt lat="44.97958" lon="1.83873">
        <ele>151.3</ele>
        <time>2022-08-06T08:39:12Z</time>
      </trkpt>
      <trkpt lat="44.97964" lon="1.83879">
        <ele>150.9</ele>
        <time>2022-08-06T08:39:14Z</time>
      </trkpt>
      <trkpt lat="44.9797" lon="1.83884">
        <ele>150.6</ele>
        <time>2022-08-06T08:39:16Z</time>
      </trkpt>
      <trkpt lat="44.97975" lon="1.83889">
        <ele>150.3</ele>
        <time>2022-08-06T08:39:18Z</time>
      </trkpt>
      <trkpt lat="44.97979" lon="1.83889">
        <ele>150.2</ele>
        <time>2022-08-06T08:39:20Z</time>
      </trkpt>
      <trkpt lat="44.97983" lon="1.83888">
        <ele>150</ele>
        <time>2022-08-06T08:39:22Z</time>
      </trkpt>
      <trkpt lat="44.97988" lon="1.83888">
        <ele>149.8</ele>
        <time>2022-08-06T08:39:24Z</time>
      </trkpt>
      <trkpt lat="44.97991" lon="1.8389">
        <ele>149.7</ele>
        <time>2022-08-06T08:39:26Z</time>
      </trkpt>
      <trkpt lat="44.97995" lon="1.83891">
        <ele>149.5</ele>
        <time>2022-08-06T08:39:28Z</time>
      </trkpt>
      <trkpt lat="44.97999" lon="1.83894">
        <ele>149.3</ele>
        <time>2022-08-06T08:39:30Z</time>
      </trkpt>
      <trkpt lat="44.98003" lon="1.83894">
        <ele>149.1</ele>
        <time>2022-08-06T08:39:32Z</time>
      </trkpt>
      <trkpt lat="44.98006" lon="1.83894">
        <ele>148.8</ele>
        <time>2022-08-06T08:39:34Z</time>
      </trkpt>
      <trkpt lat="44.9801" lon="1.83896">
        <ele>148.6</ele>
        <time>2022-08-06T08:39:36Z</time>
      </trkpt>
      <trkpt lat="44.98014" lon="1.83893">
        <ele>148.3</ele>
        <time>2022-08-06T08:39:38Z</time>
      </trkpt>
      <trkpt lat="44.98017" lon="1.83888">
        <ele>148.2</ele>
        <time>2022-08-06T08:39:40Z</time>
      </trkpt>
      <trkpt lat="44.98019" lon="1.83885">
        <ele>148.1</ele>
        <time>2022-08-06T08:39:42Z</time>
      </trkpt>
      <trkpt lat="44.98023" lon="1.83883">
        <ele>147.9</ele>
        <time>2022-08-06T08:39:44Z</time>
      </trkpt>
      <trkpt lat="44.98025" lon="1.8388">
        <ele>147.7</ele>
        <time>2022-08-06T08:39:46Z</time>
      </trkpt>
      <trkpt lat="44.98028" lon="1.83879">
        <ele>147.6</ele>
        <time>2022-08-06T08:39:48Z</time>
      </trkpt>
      <trkpt lat="44.9803" lon="1.83878">
        <ele>147.5</ele>
        <time>2022-08-06T08:39:50Z</time>
      </trkpt>
      <trkpt lat="44.98033" lon="1.83879">
        <ele>147.3</ele>
        <time>2022-08-06T08:39:52Z</time>
      </trkpt>
      <trkpt lat="44.98036" lon="1.83883">
        <ele>147</ele>
        <time>2022-08-06T08:39:54Z</time>
      </trkpt>
      <trkpt lat="44.9804" lon="1.83883">
        <ele>146.7</ele>
        <time>2022-08-06T08:39:56Z</time>
      </trkpt>
      <trkpt lat="44.98045" lon="1.83885">
        <ele>146.3</ele>
        <time>2022-08-06T08:39:58Z</time>
      </trkpt>
      <trkpt lat="44.98046" lon="1.83886">
        <ele>146.2</ele>
        <time>2022-08-06T08:40:00Z</time>
      </trkpt>
      <trkpt lat="44.98047" lon="1.83885">
        <ele>146.2</ele>
        <time>2022-08-06T08:40:02Z</time>
      </trkpt>
      <trkpt lat="44.98048" lon="1.83886">
        <ele>146.1</ele>
        <time>2022-08-06T08:40:04Z</time>
      </trkpt>
      <trkpt lat="44.98052" lon="1.83886">
        <ele>145.9</ele>
        <time>2022-08-06T08:40:06Z</time>
      </trkpt>
      <trkpt lat="44.98056" lon="1.83887">
        <ele>145.6</ele>
        <time>2022-08-06T08:40:08Z</time>
      </trkpt>
      <trkpt lat="44.98059" lon="1.83887">
        <ele>145.4</ele>
        <time>2022-08-06T08:40:10Z</time>
      </trkpt>
      <trkpt lat="44.98063" lon="1.83886">
        <ele>145.1</ele>
        <time>2022-08-06T08:40:12Z</time>
      </trkpt>
      <trkpt lat="44.98065" lon="1.83884">
        <ele>145</ele>
        <time>2022-08-06T08:40:14Z</time>
      </trkpt>
      <trkpt lat="44.98066" lon="1.83879">
        <ele>145.1</ele>
        <time>2022-08-06T08:40:16Z</time>
      </trkpt>
      <trkpt lat="44.98067" lon="1.83883">
        <ele>144.9</ele>
        <time>2022-08-06T08:40:18Z</time>
      </trkpt>
      <trkpt lat="44.9807" lon="1.83882">
        <ele>144.7</ele>
        <time>2022-08-06T08:40:20Z</time>
      </trkpt>
      <trkpt lat="44.98075" lon="1.8388">
        <ele>144.5</ele>
        <time>2022-08-06T08:40:22Z</time>
      </trkpt>
      <trkpt lat="44.98076" lon="1.8388">
        <ele>144.4</ele>
        <time>2022-08-06T08:40:24Z</time>
      </trkpt>
      <trkpt lat="44.98076" lon="1.83881">
        <ele>144.3</ele>
        <time>2022-08-06T08:40:26Z</time>
      </trkpt>
      <trkpt lat="44.98076" lon="1.83882">
        <ele>144.3</ele>
        <time>2022-08-06T08:40:28Z</time>
      </trkpt>
      <trkpt lat="44.98076" lon="1.83881">
        <ele>144.3</ele>
        <time>2022-08-06T08:40:30Z</time>
      </trkpt>
      <trkpt lat="44.98075" lon="1.83882">
        <ele>144.4</ele>
        <time>2022-08-06T08:40:32Z</time>
      </trkpt>
      <trkpt lat="44.98068" lon="1.83863">
        <ele>145.2</ele>
        <time>2022-08-06T08:40:44Z</time>
      </trkpt>
      <trkpt lat="44.98069" lon="1.83856">
        <ele>145.4</ele>
        <time>2022-08-06T08:40:46Z</time>
      </trkpt>
      <trkpt lat="44.9807" lon="1.8385">
        <ele>145.4</ele>
        <time>2022-08-06T08:40:48Z</time>
      </trkpt>
      <trkpt lat="44.98073" lon="1.83843">
        <ele>145.4</ele>
        <time>2022-08-06T08:40:50Z</time>
      </trkpt>
      <trkpt lat="44.98073" lon="1.83836">
        <ele>145.5</ele>
        <time>2022-08-06T08:40:52Z</time>
      </trkpt>
      <trkpt lat="44.98074" lon="1.83829">
        <ele>145.6</ele>
        <time>2022-08-06T08:40:54Z</time>
      </trkpt>
      <trkpt lat="44.98077" lon="1.83822">
        <ele>145.7</ele>
        <time>2022-08-06T08:40:56Z</time>
      </trkpt>
      <trkpt lat="44.98078" lon="1.83816">
        <ele>145.7</ele>
        <time>2022-08-06T08:40:58Z</time>
      </trkpt>
      <trkpt lat="44.9808" lon="1.83809">
        <ele>145.8</ele>
        <time>2022-08-06T08:41:00Z</time>
      </trkpt>
      <trkpt lat="44.98083" lon="1.83804">
        <ele>145.8</ele>
        <time>2022-08-06T08:41:02Z</time>
      </trkpt>
      <trkpt lat="44.98085" lon="1.83798">
        <ele>145.8</ele>
        <time>2022-08-06T08:41:04Z</time>
      </trkpt>
      <trkpt lat="44.98087" lon="1.83793">
        <ele>145.8</ele>
        <time>2022-08-06T08:41:06Z</time>
      </trkpt>
      <trkpt lat="44.98089" lon="1.83788">
        <ele>145.9</ele>
        <time>2022-08-06T08:41:08Z</time>
      </trkpt>
      <trkpt lat="44.98091" lon="1.83783">
        <ele>146</ele>
        <time>2022-08-06T08:41:10Z</time>
      </trkpt>
      <trkpt lat="44.98094" lon="1.83777">
        <ele>146</ele>
        <time>2022-08-06T08:41:12Z</time>
      </trkpt>
      <trkpt lat="44.98096" lon="1.83771">
        <ele>146.1</ele>
        <time>2022-08-06T08:41:14Z</time>
      </trkpt>
      <trkpt lat="44.98097" lon="1.83764">
        <ele>146.2</ele>
        <time>2022-08-06T08:41:16Z</time>
      </trkpt>
      <trkpt lat="44.98099" lon="1.83757">
        <ele>146.3</ele>
        <time>2022-08-06T08:41:18Z</time>
      </trkpt>
      <trkpt lat="44.98099" lon="1.8375">
        <ele>146.4</ele>
        <time>2022-08-06T08:41:20Z</time>
      </trkpt>
      <trkpt lat="44.981" lon="1.83744">
        <ele>146.6</ele>
        <time>2022-08-06T08:41:22Z</time>
      </trkpt>
      <trkpt lat="44.98099" lon="1.83737">
        <ele>146.9</ele>
        <time>2022-08-06T08:41:24Z</time>
      </trkpt>
      <trkpt lat="44.98097" lon="1.83731">
        <ele>147.3</ele>
        <time>2022-08-06T08:41:26Z</time>
      </trkpt>
      <trkpt lat="44.98099" lon="1.83724">
        <ele>147.5</ele>
        <time>2022-08-06T08:41:28Z</time>
      </trkpt>
      <trkpt lat="44.981" lon="1.83716">
        <ele>147.7</ele>
        <time>2022-08-06T08:41:30Z</time>
      </trkpt>
      <trkpt lat="44.98101" lon="1.83709">
        <ele>147.9</ele>
        <time>2022-08-06T08:41:32Z</time>
      </trkpt>
      <trkpt lat="44.98104" lon="1.83704">
        <ele>147.9</ele>
        <time>2022-08-06T08:41:34Z</time>
      </trkpt>
      <trkpt lat="44.98107" lon="1.83699">
        <ele>147.9</ele>
        <time>2022-08-06T08:41:36Z</time>
      </trkpt>
      <trkpt lat="44.98109" lon="1.83692">
        <ele>148</ele>
        <time>2022-08-06T08:41:38Z</time>
      </trkpt>
      <trkpt lat="44.98111" lon="1.83686">
        <ele>148.1</ele>
        <time>2022-08-06T08:41:40Z</time>
      </trkpt>
      <trkpt lat="44.98114" lon="1.83681">
        <ele>148</ele>
        <time>2022-08-06T08:41:42Z</time>
      </trkpt>
      <trkpt lat="44.98117" lon="1.83678">
        <ele>147.8</ele>
        <time>2022-08-06T08:41:44Z</time>
      </trkpt>
      <trkpt lat="44.9812" lon="1.83673">
        <ele>147.7</ele>
        <time>2022-08-06T08:41:46Z</time>
      </trkpt>
      <trkpt lat="44.98123" lon="1.83669">
        <ele>147.6</ele>
        <time>2022-08-06T08:41:48Z</time>
      </trkpt>
      <trkpt lat="44.98126" lon="1.83664">
        <ele>147.6</ele>
        <time>2022-08-06T08:41:50Z</time>
      </trkpt>
      <trkpt lat="44.98127" lon="1.83659">
        <ele>147.9</ele>
        <time>2022-08-06T08:41:52Z</time>
      </trkpt>
      <trkpt lat="44.9813" lon="1.83654">
        <ele>148</ele>
        <time>2022-08-06T08:41:54Z</time>
      </trkpt>
      <trkpt lat="44.98134" lon="1.8365">
        <ele>147.9</ele>
        <time>2022-08-06T08:41:56Z</time>
      </trkpt>
      <trkpt lat="44.98137" lon="1.83646">
        <ele>147.8</ele>
        <time>2022-08-06T08:41:58Z</time>
      </trkpt>
      <trkpt lat="44.98141" lon="1.83641">
        <ele>147.6</ele>
        <time>2022-08-06T08:42:00Z</time>
      </trkpt>
      <trkpt lat="44.98145" lon="1.83636">
        <ele>147.4</ele>
        <time>2022-08-06T08:42:02Z</time>
      </trkpt>
      <trkpt lat="44.98147" lon="1.8363">
        <ele>147.5</ele>
        <time>2022-08-06T08:42:04Z</time>
      </trkpt>
      <trkpt lat="44.98153" lon="1.83628">
        <ele>146.8</ele>
        <time>2022-08-06T08:42:06Z</time>
      </trkpt>
      <trkpt lat="44.98157" lon="1.83625">
        <ele>146.3</ele>
        <time>2022-08-06T08:42:08Z</time>
      </trkpt>
      <trkpt lat="44.9816" lon="1.83625">
        <ele>146</ele>
        <time>2022-08-06T08:42:10Z</time>
      </trkpt>
      <trkpt lat="44.98164" lon="1.83622">
        <ele>145.4</ele>
        <time>2022-08-06T08:42:12Z</time>
      </trkpt>
      <trkpt lat="44.98169" lon="1.83622">
        <ele>145.1</ele>
        <time>2022-08-06T08:42:14Z</time>
      </trkpt>
      <trkpt lat="44.98171" lon="1.8362">
        <ele>145.1</ele>
        <time>2022-08-06T08:42:16Z</time>
      </trkpt>
      <trkpt lat="44.98173" lon="1.83619">
        <ele>145.1</ele>
        <time>2022-08-06T08:42:18Z</time>
      </trkpt>
      <trkpt lat="44.98175" lon="1.83619">
        <ele>145.1</ele>
        <time>2022-08-06T08:42:20Z</time>
      </trkpt>
      <trkpt lat="44.98179" lon="1.83619">
        <ele>145.1</ele>
        <time>2022-08-06T08:42:22Z</time>
      </trkpt>
      <trkpt lat="44.98182" lon="1.8362">
        <ele>145.1</ele>
        <time>2022-08-06T08:42:24Z</time>
      </trkpt>
      <trkpt lat="44.98184" lon="1.83622">
        <ele>145.1</ele>
        <time>2022-08-06T08:42:26Z</time>
      </trkpt>
      <trkpt lat="44.98188" lon="1.83624">
        <ele>145</ele>
        <time>2022-08-06T08:42:28Z</time>
      </trkpt>
      <trkpt lat="44.9819" lon="1.83626">
        <ele>145</ele>
        <time>2022-08-06T08:42:30Z</time>
      </trkpt>
      <trkpt lat="44.98192" lon="1.83627">
        <ele>144.9</ele>
        <time>2022-08-06T08:42:32Z</time>
      </trkpt>
      <trkpt lat="44.98194" lon="1.83626">
        <ele>145</ele>
        <time>2022-08-06T08:42:34Z</time>
      </trkpt>
      <trkpt lat="44.98196" lon="1.83626">
        <ele>145</ele>
        <time>2022-08-06T08:42:36Z</time>
      </trkpt>
      <trkpt lat="44.98199" lon="1.83624">
        <ele>145</ele>
        <time>2022-08-06T08:42:38Z</time>
      </trkpt>
      <trkpt lat="44.98203" lon="1.83623">
        <ele>145.1</ele>
        <time>2022-08-06T08:42:40Z</time>
      </trkpt>
      <trkpt lat="44.98207" lon="1.83628">
        <ele>144.9</ele>
        <time>2022-08-06T08:42:42Z</time>
      </trkpt>
      <trkpt lat="44.98212" lon="1.83634">
        <ele>144.8</ele>
        <time>2022-08-06T08:42:44Z</time>
      </trkpt>
      <trkpt lat="44.98214" lon="1.83639">
        <ele>144.7</ele>
        <time>2022-08-06T08:42:46Z</time>
      </trkpt>
      <trkpt lat="44.98216" lon="1.83643">
        <ele>144.6</ele>
        <time>2022-08-06T08:42:48Z</time>
      </trkpt>
      <trkpt lat="44.98216" lon="1.83649">
        <ele>144.4</ele>
        <time>2022-08-06T08:42:50Z</time>
      </trkpt>
      <trkpt lat="44.98216" lon="1.83655">
        <ele>144.3</ele>
        <time>2022-08-06T08:42:52Z</time>
      </trkpt>
      <trkpt lat="44.98216" lon="1.83661">
        <ele>144.1</ele>
        <time>2022-08-06T08:42:54Z</time>
      </trkpt>
      <trkpt lat="44.98216" lon="1.83667">
        <ele>144</ele>
        <time>2022-08-06T08:42:56Z</time>
      </trkpt>
      <trkpt lat="44.98217" lon="1.8367">
        <ele>144</ele>
        <time>2022-08-06T08:42:58Z</time>
      </trkpt>
      <trkpt lat="44.98219" lon="1.83676">
        <ele>144</ele>
        <time>2022-08-06T08:43:00Z</time>
      </trkpt>
      <trkpt lat="44.9822" lon="1.83682">
        <ele>144</ele>
        <time>2022-08-06T08:43:02Z</time>
      </trkpt>
      <trkpt lat="44.98221" lon="1.83687">
        <ele>144</ele>
        <time>2022-08-06T08:43:04Z</time>
      </trkpt>
      <trkpt lat="44.98221" lon="1.83692">
        <ele>144</ele>
        <time>2022-08-06T08:43:06Z</time>
      </trkpt>
      <trkpt lat="44.98222" lon="1.83698">
        <ele>144</ele>
        <time>2022-08-06T08:43:08Z</time>
      </trkpt>
      <trkpt lat="44.98221" lon="1.83702">
        <ele>144</ele>
        <time>2022-08-06T08:43:10Z</time>
      </trkpt>
      <trkpt lat="44.9822" lon="1.83708">
        <ele>144</ele>
        <time>2022-08-06T08:43:12Z</time>
      </trkpt>
      <trkpt lat="44.98217" lon="1.83713">
        <ele>144</ele>
        <time>2022-08-06T08:43:14Z</time>
      </trkpt>
      <trkpt lat="44.98215" lon="1.83718">
        <ele>144</ele>
        <time>2022-08-06T08:43:16Z</time>
      </trkpt>
      <trkpt lat="44.98213" lon="1.83723">
        <ele>144</ele>
        <time>2022-08-06T08:43:18Z</time>
      </trkpt>
      <trkpt lat="44.98209" lon="1.83726">
        <ele>144</ele>
        <time>2022-08-06T08:43:20Z</time>
      </trkpt>
      <trkpt lat="44.98206" lon="1.8373">
        <ele>144</ele>
        <time>2022-08-06T08:43:22Z</time>
      </trkpt>
      <trkpt lat="44.98204" lon="1.83737">
        <ele>144</ele>
        <time>2022-08-06T08:43:24Z</time>
      </trkpt>
      <trkpt lat="44.98202" lon="1.8374">
        <ele>144</ele>
        <time>2022-08-06T08:43:26Z</time>
      </trkpt>
      <trkpt lat="44.98201" lon="1.83744">
        <ele>144</ele>
        <time>2022-08-06T08:43:28Z</time>
      </trkpt>
      <trkpt lat="44.982" lon="1.83748">
        <ele>144</ele>
        <time>2022-08-06T08:43:30Z</time>
      </trkpt>
      <trkpt lat="44.982" lon="1.8375">
        <ele>144</ele>
        <time>2022-08-06T08:43:32Z</time>
      </trkpt>
      <trkpt lat="44.982" lon="1.83749">
        <ele>144</ele>
        <time>2022-08-06T08:43:34Z</time>
      </trkpt>
      <trkpt lat="44.982" lon="1.83749">
        <ele>144</ele>
        <time>2022-08-06T08:43:38Z</time>
      </trkpt>
      <trkpt lat="44.98201" lon="1.83753">
        <ele>143.9</ele>
        <time>2022-08-06T08:43:40Z</time>
      </trkpt>
      <trkpt lat="44.982" lon="1.83757">
        <ele>143.8</ele>
        <time>2022-08-06T08:43:42Z</time>
      </trkpt>
      <trkpt lat="44.98199" lon="1.83758">
        <ele>143.8</ele>
        <time>2022-08-06T08:43:44Z</time>
      </trkpt>
      <trkpt lat="44.98199" lon="1.83757">
        <ele>143.8</ele>
        <time>2022-08-06T08:43:46Z</time>
      </trkpt>
      <trkpt lat="44.98199" lon="1.83758">
        <ele>143.8</ele>
        <time>2022-08-06T08:43:48Z</time>
      </trkpt>
      <trkpt lat="44.98199" lon="1.83757">
        <ele>143.8</ele>
        <time>2022-08-06T08:43:50Z</time>
      </trkpt>
      <trkpt lat="44.98192" lon="1.83775">
        <ele>143.5</ele>
        <time>2022-08-06T08:44:26Z</time>
      </trkpt>
      <trkpt lat="44.98191" lon="1.83782">
        <ele>143.4</ele>
        <time>2022-08-06T08:44:28Z</time>
      </trkpt>
      <trkpt lat="44.98189" lon="1.83788">
        <ele>143.3</ele>
        <time>2022-08-06T08:44:30Z</time>
      </trkpt>
      <trkpt lat="44.98187" lon="1.83793">
        <ele>143.2</ele>
        <time>2022-08-06T08:44:32Z</time>
      </trkpt>
      <trkpt lat="44.98184" lon="1.838">
        <ele>143.2</ele>
        <time>2022-08-06T08:44:34Z</time>
      </trkpt>
      <trkpt lat="44.98182" lon="1.83806">
        <ele>143.1</ele>
        <time>2022-08-06T08:44:36Z</time>
      </trkpt>
      <trkpt lat="44.98179" lon="1.83811">
        <ele>143.1</ele>
        <time>2022-08-06T08:44:38Z</time>
      </trkpt>
      <trkpt lat="44.98176" lon="1.83817">
        <ele>143</ele>
        <time>2022-08-06T08:44:40Z</time>
      </trkpt>
      <trkpt lat="44.98173" lon="1.83823">
        <ele>143</ele>
        <time>2022-08-06T08:44:42Z</time>
      </trkpt>
      <trkpt lat="44.98171" lon="1.83828">
        <ele>143</ele>
        <time>2022-08-06T08:44:44Z</time>
      </trkpt>
      <trkpt lat="44.98168" lon="1.83832">
        <ele>143</ele>
        <time>2022-08-06T08:44:46Z</time>
      </trkpt>
      <trkpt lat="44.98167" lon="1.83835">
        <ele>143</ele>
        <time>2022-08-06T08:44:48Z</time>
      </trkpt>
      <trkpt lat="44.98168" lon="1.83834">
        <ele>143</ele>
        <time>2022-08-06T08:44:50Z</time>
      </trkpt>
      <trkpt lat="44.98168" lon="1.83834">
        <ele>143</ele>
        <time>2022-08-06T08:44:52Z</time>
      </trkpt>
      <trkpt lat="44.98168" lon="1.83834">
        <ele>143</ele>
        <time>2022-08-06T08:44:56Z</time>
      </trkpt>
      <trkpt lat="44.98173" lon="1.83848">
        <ele>143</ele>
        <time>2022-08-06T08:47:34Z</time>
      </trkpt>
      <trkpt lat="44.98174" lon="1.8385">
        <ele>143</ele>
        <time>2022-08-06T08:47:36Z</time>
      </trkpt>
      <trkpt lat="44.98176" lon="1.83852">
        <ele>143</ele>
        <time>2022-08-06T08:47:38Z</time>
      </trkpt>
      <trkpt lat="44.98178" lon="1.83854">
        <ele>143</ele>
        <time>2022-08-06T08:47:40Z</time>
      </trkpt>
      <trkpt lat="44.98179" lon="1.83856">
        <ele>143</ele>
        <time>2022-08-06T08:47:42Z</time>
      </trkpt>
      <trkpt lat="44.98181" lon="1.83858">
        <ele>143</ele>
        <time>2022-08-06T08:47:44Z</time>
      </trkpt>
      <trkpt lat="44.98182" lon="1.83859">
        <ele>143</ele>
        <time>2022-08-06T08:47:46Z</time>
      </trkpt>
      <trkpt lat="44.98185" lon="1.83858">
        <ele>142.9</ele>
        <time>2022-08-06T08:47:48Z</time>
      </trkpt>
      <trkpt lat="44.98188" lon="1.83858">
        <ele>142.9</ele>
        <time>2022-08-06T08:47:50Z</time>
      </trkpt>
      <trkpt lat="44.9819" lon="1.83857">
        <ele>142.8</ele>
        <time>2022-08-06T08:47:52Z</time>
      </trkpt>
      <trkpt lat="44.98193" lon="1.83857">
        <ele>142.7</ele>
        <time>2022-08-06T08:47:54Z</time>
      </trkpt>
      <trkpt lat="44.98195" lon="1.83856">
        <ele>142.7</ele>
        <time>2022-08-06T08:47:56Z</time>
      </trkpt>
      <trkpt lat="44.98197" lon="1.83856">
        <ele>142.6</ele>
        <time>2022-08-06T08:47:58Z</time>
      </trkpt>
      <trkpt lat="44.982" lon="1.83856">
        <ele>142.6</ele>
        <time>2022-08-06T08:48:00Z</time>
      </trkpt>
      <trkpt lat="44.98202" lon="1.83856">
        <ele>142.5</ele>
        <time>2022-08-06T08:48:02Z</time>
      </trkpt>
      <trkpt lat="44.98204" lon="1.83855">
        <ele>142.5</ele>
        <time>2022-08-06T08:48:04Z</time>
      </trkpt>
      <trkpt lat="44.98206" lon="1.83855">
        <ele>142.4</ele>
        <time>2022-08-06T08:48:06Z</time>
      </trkpt>
      <trkpt lat="44.98207" lon="1.83854">
        <ele>142.4</ele>
        <time>2022-08-06T08:48:08Z</time>
      </trkpt>
      <trkpt lat="44.9821" lon="1.83854">
        <ele>142.3</ele>
        <time>2022-08-06T08:48:10Z</time>
      </trkpt>
      <trkpt lat="44.98212" lon="1.83853">
        <ele>142.3</ele>
        <time>2022-08-06T08:48:12Z</time>
      </trkpt>
      <trkpt lat="44.98214" lon="1.83853">
        <ele>142.2</ele>
        <time>2022-08-06T08:48:14Z</time>
      </trkpt>
      <trkpt lat="44.98216" lon="1.83852">
        <ele>142.2</ele>
        <time>2022-08-06T08:48:16Z</time>
      </trkpt>
      <trkpt lat="44.98218" lon="1.83852">
        <ele>142.1</ele>
        <time>2022-08-06T08:48:18Z</time>
      </trkpt>
      <trkpt lat="44.9822" lon="1.83852">
        <ele>142.1</ele>
        <time>2022-08-06T08:48:20Z</time>
      </trkpt>
      <trkpt lat="44.98222" lon="1.83851">
        <ele>142</ele>
        <time>2022-08-06T08:48:22Z</time>
      </trkpt>
      <trkpt lat="44.98225" lon="1.83851">
        <ele>142</ele>
        <time>2022-08-06T08:48:24Z</time>
      </trkpt>
      <trkpt lat="44.98227" lon="1.8385">
        <ele>141.9</ele>
        <time>2022-08-06T08:48:26Z</time>
      </trkpt>
      <trkpt lat="44.98229" lon="1.8385">
        <ele>141.9</ele>
        <time>2022-08-06T08:48:28Z</time>
      </trkpt>
      <trkpt lat="44.98231" lon="1.83849">
        <ele>141.8</ele>
        <time>2022-08-06T08:48:30Z</time>
      </trkpt>
      <trkpt lat="44.98233" lon="1.83849">
        <ele>141.7</ele>
        <time>2022-08-06T08:48:32Z</time>
      </trkpt>
      <trkpt lat="44.98235" lon="1.83848">
        <ele>141.7</ele>
        <time>2022-08-06T08:48:34Z</time>
      </trkpt>
      <trkpt lat="44.98237" lon="1.83848">
        <ele>141.6</ele>
        <time>2022-08-06T08:48:36Z</time>
      </trkpt>
      <trkpt lat="44.98239" lon="1.83847">
        <ele>141.6</ele>
        <time>2022-08-06T08:48:38Z</time>
      </trkpt>
      <trkpt lat="44.98242" lon="1.83847">
        <ele>141.5</ele>
        <time>2022-08-06T08:48:40Z</time>
      </trkpt>
      <trkpt lat="44.98244" lon="1.83847">
        <ele>141.5</ele>
        <time>2022-08-06T08:48:42Z</time>
      </trkpt>
      <trkpt lat="44.98246" lon="1.83847">
        <ele>141.4</ele>
        <time>2022-08-06T08:48:44Z</time>
      </trkpt>
      <trkpt lat="44.98248" lon="1.83846">
        <ele>141.3</ele>
        <time>2022-08-06T08:48:46Z</time>
      </trkpt>
      <trkpt lat="44.9825" lon="1.83846">
        <ele>141.3</ele>
        <time>2022-08-06T08:48:48Z</time>
      </trkpt>
      <trkpt lat="44.98252" lon="1.83845">
        <ele>141.4</ele>
        <time>2022-08-06T08:48:50Z</time>
      </trkpt>
      <trkpt lat="44.98255" lon="1.83845">
        <ele>141.5</ele>
        <time>2022-08-06T08:48:52Z</time>
      </trkpt>
      <trkpt lat="44.98257" lon="1.83845">
        <ele>141.7</ele>
        <time>2022-08-06T08:48:54Z</time>
      </trkpt>
      <trkpt lat="44.98259" lon="1.83844">
        <ele>141.8</ele>
        <time>2022-08-06T08:48:56Z</time>
      </trkpt>
      <trkpt lat="44.98261" lon="1.83843">
        <ele>141.9</ele>
        <time>2022-08-06T08:48:58Z</time>
      </trkpt>
      <trkpt lat="44.98264" lon="1.83843">
        <ele>142</ele>
        <time>2022-08-06T08:49:00Z</time>
      </trkpt>
      <trkpt lat="44.98266" lon="1.83843">
        <ele>142.1</ele>
        <time>2022-08-06T08:49:02Z</time>
      </trkpt>
      <trkpt lat="44.98268" lon="1.83842">
        <ele>142.3</ele>
        <time>2022-08-06T08:49:04Z</time>
      </trkpt>
      <trkpt lat="44.98269" lon="1.83842">
        <ele>142.3</ele>
        <time>2022-08-06T08:49:06Z</time>
      </trkpt>
      <trkpt lat="44.98272" lon="1.83842">
        <ele>142.5</ele>
        <time>2022-08-06T08:49:08Z</time>
      </trkpt>
      <trkpt lat="44.98275" lon="1.83841">
        <ele>142.6</ele>
        <time>2022-08-06T08:49:10Z</time>
      </trkpt>
      <trkpt lat="44.98277" lon="1.83841">
        <ele>142.7</ele>
        <time>2022-08-06T08:49:12Z</time>
      </trkpt>
      <trkpt lat="44.98279" lon="1.83841">
        <ele>142.9</ele>
        <time>2022-08-06T08:49:14Z</time>
      </trkpt>
      <trkpt lat="44.98282" lon="1.8384">
        <ele>143</ele>
        <time>2022-08-06T08:49:16Z</time>
      </trkpt>
      <trkpt lat="44.98284" lon="1.8384">
        <ele>143.1</ele>
        <time>2022-08-06T08:49:18Z</time>
      </trkpt>
      <trkpt lat="44.98286" lon="1.83839">
        <ele>143.2</ele>
        <time>2022-08-06T08:49:20Z</time>
      </trkpt>
      <trkpt lat="44.98288" lon="1.83839">
        <ele>143.4</ele>
        <time>2022-08-06T08:49:22Z</time>
      </trkpt>
      <trkpt lat="44.9829" lon="1.83838">
        <ele>143.5</ele>
        <time>2022-08-06T08:49:24Z</time>
      </trkpt>
      <trkpt lat="44.98293" lon="1.83838">
        <ele>143.6</ele>
        <time>2022-08-06T08:49:26Z</time>
      </trkpt>
      <trkpt lat="44.98294" lon="1.83838">
        <ele>143.7</ele>
        <time>2022-08-06T08:49:28Z</time>
      </trkpt>
      <trkpt lat="44.98297" lon="1.83837">
        <ele>143.8</ele>
        <time>2022-08-06T08:49:30Z</time>
      </trkpt>
      <trkpt lat="44.98297" lon="1.83834">
        <ele>143.8</ele>
        <time>2022-08-06T08:49:32Z</time>
      </trkpt>
      <trkpt lat="44.98297" lon="1.83835">
        <ele>143.8</ele>
        <time>2022-08-06T08:49:34Z</time>
      </trkpt>
      <trkpt lat="44.98297" lon="1.83834">
        <ele>143.8</ele>
        <time>2022-08-06T08:49:36Z</time>
      </trkpt>
      <trkpt lat="44.98296" lon="1.83834">
        <ele>143.8</ele>
        <time>2022-08-06T08:49:38Z</time>
      </trkpt>
      <trkpt lat="44.98297" lon="1.83834">
        <ele>143.8</ele>
        <time>2022-08-06T08:49:40Z</time>
      </trkpt>
      <trkpt lat="44.98309" lon="1.83788">
        <ele>145</ele>
        <time>2022-08-06T08:50:36Z</time>
      </trkpt>
      <trkpt lat="44.98311" lon="1.83781">
        <ele>145.2</ele>
        <time>2022-08-06T08:50:38Z</time>
      </trkpt>
      <trkpt lat="44.98313" lon="1.83775">
        <ele>145.3</ele>
        <time>2022-08-06T08:50:40Z</time>
      </trkpt>
      <trkpt lat="44.98314" lon="1.8377">
        <ele>145.4</ele>
        <time>2022-08-06T08:50:42Z</time>
      </trkpt>
      <trkpt lat="44.98317" lon="1.83765">
        <ele>145.5</ele>
        <time>2022-08-06T08:50:44Z</time>
      </trkpt>
      <trkpt lat="44.98317" lon="1.8376">
        <ele>145.5</ele>
        <time>2022-08-06T08:50:46Z</time>
      </trkpt>
      <trkpt lat="44.98317" lon="1.83753">
        <ele>145.6</ele>
        <time>2022-08-06T08:50:48Z</time>
      </trkpt>
      <trkpt lat="44.98316" lon="1.83746">
        <ele>145.6</ele>
        <time>2022-08-06T08:50:50Z</time>
      </trkpt>
      <trkpt lat="44.98314" lon="1.83737">
        <ele>145.5</ele>
        <time>2022-08-06T08:50:52Z</time>
      </trkpt>
      <trkpt lat="44.98313" lon="1.83729">
        <ele>145.5</ele>
        <time>2022-08-06T08:50:54Z</time>
      </trkpt>
      <trkpt lat="44.9831" lon="1.83722">
        <ele>145.4</ele>
        <time>2022-08-06T08:50:56Z</time>
      </trkpt>
      <trkpt lat="44.9831" lon="1.83715">
        <ele>145.4</ele>
        <time>2022-08-06T08:50:58Z</time>
      </trkpt>
      <trkpt lat="44.98309" lon="1.83709">
        <ele>145.4</ele>
        <time>2022-08-06T08:51:00Z</time>
      </trkpt>
      <trkpt lat="44.98308" lon="1.83703">
        <ele>145.4</ele>
        <time>2022-08-06T08:51:02Z</time>
      </trkpt>
      <trkpt lat="44.98309" lon="1.83696">
        <ele>145.4</ele>
        <time>2022-08-06T08:51:04Z</time>
      </trkpt>
      <trkpt lat="44.98309" lon="1.83691">
        <ele>145.4</ele>
        <time>2022-08-06T08:51:06Z</time>
      </trkpt>
      <trkpt lat="44.98309" lon="1.83687">
        <ele>145.4</ele>
        <time>2022-08-06T08:51:08Z</time>
      </trkpt>
      <trkpt lat="44.98309" lon="1.83679">
        <ele>145.4</ele>
        <time>2022-08-06T08:51:10Z</time>
      </trkpt>
      <trkpt lat="44.98309" lon="1.83675">
        <ele>145.4</ele>
        <time>2022-08-06T08:51:12Z</time>
      </trkpt>
      <trkpt lat="44.9831" lon="1.83669">
        <ele>145.4</ele>
        <time>2022-08-06T08:51:14Z</time>
      </trkpt>
      <trkpt lat="44.98312" lon="1.83665">
        <ele>145.5</ele>
        <time>2022-08-06T08:51:16Z</time>
      </trkpt>
      <trkpt lat="44.98316" lon="1.83663">
        <ele>145.6</ele>
        <time>2022-08-06T08:51:18Z</time>
      </trkpt>
      <trkpt lat="44.98318" lon="1.83659">
        <ele>145.7</ele>
        <time>2022-08-06T08:51:20Z</time>
      </trkpt>
      <trkpt lat="44.9832" lon="1.83654">
        <ele>145.7</ele>
        <time>2022-08-06T08:51:22Z</time>
      </trkpt>
      <trkpt lat="44.9832" lon="1.8365">
        <ele>145.7</ele>
        <time>2022-08-06T08:51:24Z</time>
      </trkpt>
      <trkpt lat="44.9832" lon="1.83646">
        <ele>145.8</ele>
        <time>2022-08-06T08:51:26Z</time>
      </trkpt>
      <trkpt lat="44.98321" lon="1.83642">
        <ele>145.8</ele>
        <time>2022-08-06T08:51:28Z</time>
      </trkpt>
      <trkpt lat="44.9832" lon="1.83638">
        <ele>145.8</ele>
        <time>2022-08-06T08:51:30Z</time>
      </trkpt>
      <trkpt lat="44.9832" lon="1.8363">
        <ele>145.8</ele>
        <time>2022-08-06T08:51:32Z</time>
      </trkpt>
      <trkpt lat="44.9832" lon="1.83625">
        <ele>145.8</ele>
        <time>2022-08-06T08:51:34Z</time>
      </trkpt>
      <trkpt lat="44.9832" lon="1.83621">
        <ele>145.9</ele>
        <time>2022-08-06T08:51:36Z</time>
      </trkpt>
      <trkpt lat="44.9832" lon="1.83615">
        <ele>145.9</ele>
        <time>2022-08-06T08:51:38Z</time>
      </trkpt>
      <trkpt lat="44.9832" lon="1.83609">
        <ele>145.9</ele>
        <time>2022-08-06T08:51:40Z</time>
      </trkpt>
      <trkpt lat="44.98319" lon="1.83604">
        <ele>145.9</ele>
        <time>2022-08-06T08:51:42Z</time>
      </trkpt>
      <trkpt lat="44.98318" lon="1.836">
        <ele>145.9</ele>
        <time>2022-08-06T08:51:44Z</time>
      </trkpt>
      <trkpt lat="44.9832" lon="1.83595">
        <ele>146</ele>
        <time>2022-08-06T08:51:46Z</time>
      </trkpt>
      <trkpt lat="44.9832" lon="1.83592">
        <ele>146</ele>
        <time>2022-08-06T08:51:48Z</time>
      </trkpt>
      <trkpt lat="44.98319" lon="1.83591">
        <ele>146</ele>
        <time>2022-08-06T08:51:50Z</time>
      </trkpt>
      <trkpt lat="44.98319" lon="1.83591">
        <ele>146</ele>
        <time>2022-08-06T08:51:52Z</time>
      </trkpt>
      <trkpt lat="44.98319" lon="1.8359">
        <ele>146</ele>
        <time>2022-08-06T08:51:54Z</time>
      </trkpt>
      <trkpt lat="44.98319" lon="1.8359">
        <ele>146</ele>
        <time>2022-08-06T08:51:56Z</time>
      </trkpt>
      <trkpt lat="44.98331" lon="1.83542">
        <ele>145</ele>
        <time>2022-08-06T08:53:45Z</time>
      </trkpt>
      <trkpt lat="44.9833" lon="1.83544">
        <ele>145.1</ele>
        <time>2022-08-06T08:53:46Z</time>
      </trkpt>
      <trkpt lat="44.98316" lon="1.83583">
        <ele>146</ele>
        <time>2022-08-06T09:41:05Z</time>
      </trkpt>
      <trkpt lat="44.98316" lon="1.83583">
        <ele>146</ele>
        <time>2022-08-06T09:41:07Z</time>
      </trkpt>
      <trkpt lat="44.98329" lon="1.83586">
        <ele>146</ele>
        <time>2022-08-06T09:42:24Z</time>
      </trkpt>
      <trkpt lat="44.9833" lon="1.83591">
        <ele>146</ele>
        <time>2022-08-06T09:42:26Z</time>
      </trkpt>
      <trkpt lat="44.98329" lon="1.83596">
        <ele>146</ele>
        <time>2022-08-06T09:42:28Z</time>
      </trkpt>
      <trkpt lat="44.98329" lon="1.83597">
        <ele>146</ele>
        <time>2022-08-06T09:42:30Z</time>
      </trkpt>
      <trkpt lat="44.98329" lon="1.83601">
        <ele>146</ele>
        <time>2022-08-06T09:42:32Z</time>
      </trkpt>
      <trkpt lat="44.9833" lon="1.83604">
        <ele>146</ele>
        <time>2022-08-06T09:42:34Z</time>
      </trkpt>
      <trkpt lat="44.98331" lon="1.83606">
        <ele>146</ele>
        <time>2022-08-06T09:42:36Z</time>
      </trkpt>
      <trkpt lat="44.98331" lon="1.83609">
        <ele>146</ele>
        <time>2022-08-06T09:42:38Z</time>
      </trkpt>
      <trkpt lat="44.98332" lon="1.83608">
        <ele>146</ele>
        <time>2022-08-06T09:42:40Z</time>
      </trkpt>
      <trkpt lat="44.98331" lon="1.83607">
        <ele>146</ele>
        <time>2022-08-06T09:42:42Z</time>
      </trkpt>
      <trkpt lat="44.98332" lon="1.83606">
        <ele>146</ele>
        <time>2022-08-06T09:42:44Z</time>
      </trkpt>
      <trkpt lat="44.98333" lon="1.83609">
        <ele>146</ele>
        <time>2022-08-06T09:42:46Z</time>
      </trkpt>
      <trkpt lat="44.98334" lon="1.83614">
        <ele>146</ele>
        <time>2022-08-06T09:42:48Z</time>
      </trkpt>
      <trkpt lat="44.98334" lon="1.8362">
        <ele>146</ele>
        <time>2022-08-06T09:42:50Z</time>
      </trkpt>
      <trkpt lat="44.98334" lon="1.8363">
        <ele>146</ele>
        <time>2022-08-06T09:42:53Z</time>
      </trkpt>
      <trkpt lat="44.98335" lon="1.83637">
        <ele>145.9</ele>
        <time>2022-08-06T09:42:55Z</time>
      </trkpt>
      <trkpt lat="44.98334" lon="1.83643">
        <ele>146</ele>
        <time>2022-08-06T09:42:57Z</time>
      </trkpt>
      <trkpt lat="44.98334" lon="1.8365">
        <ele>146</ele>
        <time>2022-08-06T09:42:59Z</time>
      </trkpt>
      <trkpt lat="44.98334" lon="1.83658">
        <ele>146</ele>
        <time>2022-08-06T09:43:01Z</time>
      </trkpt>
      <trkpt lat="44.98334" lon="1.83666">
        <ele>146</ele>
        <time>2022-08-06T09:43:03Z</time>
      </trkpt>
      <trkpt lat="44.98334" lon="1.83674">
        <ele>146</ele>
        <time>2022-08-06T09:43:05Z</time>
      </trkpt>
      <trkpt lat="44.98332" lon="1.83681">
        <ele>146</ele>
        <time>2022-08-06T09:43:07Z</time>
      </trkpt>
      <trkpt lat="44.98332" lon="1.83689">
        <ele>146</ele>
        <time>2022-08-06T09:43:09Z</time>
      </trkpt>
      <trkpt lat="44.98332" lon="1.83697">
        <ele>146</ele>
        <time>2022-08-06T09:43:11Z</time>
      </trkpt>
      <trkpt lat="44.98332" lon="1.83704">
        <ele>146</ele>
        <time>2022-08-06T09:43:13Z</time>
      </trkpt>
      <trkpt lat="44.98332" lon="1.83708">
        <ele>146</ele>
        <time>2022-08-06T09:43:14Z</time>
      </trkpt>
      <trkpt lat="44.98333" lon="1.83715">
        <ele>146</ele>
        <time>2022-08-06T09:43:16Z</time>
      </trkpt>
      <trkpt lat="44.98334" lon="1.83722">
        <ele>146</ele>
        <time>2022-08-06T09:43:18Z</time>
      </trkpt>
      <trkpt lat="44.98336" lon="1.83729">
        <ele>146</ele>
        <time>2022-08-06T09:43:20Z</time>
      </trkpt>
      <trkpt lat="44.98337" lon="1.83735">
        <ele>145.9</ele>
        <time>2022-08-06T09:43:22Z</time>
      </trkpt>
      <trkpt lat="44.98338" lon="1.83746">
        <ele>145.9</ele>
        <time>2022-08-06T09:43:25Z</time>
      </trkpt>
      <trkpt lat="44.98337" lon="1.83754">
        <ele>146</ele>
        <time>2022-08-06T09:43:27Z</time>
      </trkpt>
      <trkpt lat="44.98335" lon="1.83761">
        <ele>146</ele>
        <time>2022-08-06T09:43:29Z</time>
      </trkpt>
      <trkpt lat="44.98332" lon="1.8377">
        <ele>146</ele>
        <time>2022-08-06T09:43:31Z</time>
      </trkpt>
      <trkpt lat="44.98331" lon="1.83778">
        <ele>145.9</ele>
        <time>2022-08-06T09:43:33Z</time>
      </trkpt>
      <trkpt lat="44.98328" lon="1.83786">
        <ele>145.8</ele>
        <time>2022-08-06T09:43:35Z</time>
      </trkpt>
      <trkpt lat="44.98326" lon="1.83793">
        <ele>145.7</ele>
        <time>2022-08-06T09:43:37Z</time>
      </trkpt>
      <trkpt lat="44.98325" lon="1.83799">
        <ele>145.6</ele>
        <time>2022-08-06T09:43:39Z</time>
      </trkpt>
      <trkpt lat="44.98322" lon="1.83806">
        <ele>145.4</ele>
        <time>2022-08-06T09:43:41Z</time>
      </trkpt>
      <trkpt lat="44.98318" lon="1.83811">
        <ele>145.2</ele>
        <time>2022-08-06T09:43:43Z</time>
      </trkpt>
      <trkpt lat="44.98317" lon="1.83817">
        <ele>145.1</ele>
        <time>2022-08-06T09:43:45Z</time>
      </trkpt>
      <trkpt lat="44.98317" lon="1.8382">
        <ele>145.1</ele>
        <time>2022-08-06T09:43:47Z</time>
      </trkpt>
      <trkpt lat="44.98321" lon="1.83821">
        <ele>145.3</ele>
        <time>2022-08-06T09:43:49Z</time>
      </trkpt>
      <trkpt lat="44.98324" lon="1.83818">
        <ele>145.5</ele>
        <time>2022-08-06T09:43:51Z</time>
      </trkpt>
      <trkpt lat="44.98326" lon="1.83813">
        <ele>145.6</ele>
        <time>2022-08-06T09:43:53Z</time>
      </trkpt>
      <trkpt lat="44.98326" lon="1.83807">
        <ele>145.6</ele>
        <time>2022-08-06T09:43:55Z</time>
      </trkpt>
      <trkpt lat="44.98325" lon="1.83806">
        <ele>145.6</ele>
        <time>2022-08-06T09:43:57Z</time>
      </trkpt>
      <trkpt lat="44.98325" lon="1.83806">
        <ele>145.6</ele>
        <time>2022-08-06T09:43:59Z</time>
      </trkpt>
      <trkpt lat="44.98324" lon="1.83806">
        <ele>145.5</ele>
        <time>2022-08-06T09:44:01Z</time>
      </trkpt>
      <trkpt lat="44.98321" lon="1.83807">
        <ele>145.4</ele>
        <time>2022-08-06T09:44:03Z</time>
      </trkpt>
      <trkpt lat="44.98318" lon="1.83809">
        <ele>145.2</ele>
        <time>2022-08-06T09:44:05Z</time>
      </trkpt>
      <trkpt lat="44.98315" lon="1.83814">
        <ele>145.1</ele>
        <time>2022-08-06T09:44:07Z</time>
      </trkpt>
      <trkpt lat="44.98312" lon="1.83821">
        <ele>144.8</ele>
        <time>2022-08-06T09:44:09Z</time>
      </trkpt>
      <trkpt lat="44.9831" lon="1.83826">
        <ele>144.7</ele>
        <time>2022-08-06T09:44:11Z</time>
      </trkpt>
      <trkpt lat="44.98307" lon="1.8383">
        <ele>144.5</ele>
        <time>2022-08-06T09:44:13Z</time>
      </trkpt>
      <trkpt lat="44.98303" lon="1.83832">
        <ele>144.2</ele>
        <time>2022-08-06T09:44:15Z</time>
      </trkpt>
      <trkpt lat="44.983" lon="1.83831">
        <ele>144</ele>
        <time>2022-08-06T09:44:17Z</time>
      </trkpt>
      <trkpt lat="44.98297" lon="1.83833">
        <ele>143.8</ele>
        <time>2022-08-06T09:44:19Z</time>
      </trkpt>
      <trkpt lat="44.98297" lon="1.83834">
        <ele>143.8</ele>
        <time>2022-08-06T09:44:21Z</time>
      </trkpt>
      <trkpt lat="44.98296" lon="1.83835">
        <ele>143.8</ele>
        <time>2022-08-06T09:44:23Z</time>
      </trkpt>
      <trkpt lat="44.98295" lon="1.83837">
        <ele>143.8</ele>
        <time>2022-08-06T09:44:25Z</time>
      </trkpt>
      <trkpt lat="44.98294" lon="1.83839">
        <ele>143.7</ele>
        <time>2022-08-06T09:44:27Z</time>
      </trkpt>
      <trkpt lat="44.98293" lon="1.83839">
        <ele>143.6</ele>
        <time>2022-08-06T09:44:29Z</time>
      </trkpt>
      <trkpt lat="44.9829" lon="1.8384">
        <ele>143.5</ele>
        <time>2022-08-06T09:44:31Z</time>
      </trkpt>
      <trkpt lat="44.98288" lon="1.8384">
        <ele>143.4</ele>
        <time>2022-08-06T09:44:33Z</time>
      </trkpt>
      <trkpt lat="44.98285" lon="1.8384">
        <ele>143.2</ele>
        <time>2022-08-06T09:44:35Z</time>
      </trkpt>
      <trkpt lat="44.98283" lon="1.83841">
        <ele>143.1</ele>
        <time>2022-08-06T09:44:37Z</time>
      </trkpt>
      <trkpt lat="44.98281" lon="1.83842">
        <ele>143</ele>
        <time>2022-08-06T09:44:39Z</time>
      </trkpt>
      <trkpt lat="44.98279" lon="1.83842">
        <ele>142.9</ele>
        <time>2022-08-06T09:44:41Z</time>
      </trkpt>
      <trkpt lat="44.98277" lon="1.83843">
        <ele>142.8</ele>
        <time>2022-08-06T09:44:43Z</time>
      </trkpt>
      <trkpt lat="44.98275" lon="1.83843">
        <ele>142.7</ele>
        <time>2022-08-06T09:44:45Z</time>
      </trkpt>
      <trkpt lat="44.98274" lon="1.83843">
        <ele>142.6</ele>
        <time>2022-08-06T09:44:47Z</time>
      </trkpt>
      <trkpt lat="44.98272" lon="1.83843">
        <ele>142.5</ele>
        <time>2022-08-06T09:44:49Z</time>
      </trkpt>
      <trkpt lat="44.9827" lon="1.83844">
        <ele>142.4</ele>
        <time>2022-08-06T09:44:51Z</time>
      </trkpt>
      <trkpt lat="44.98268" lon="1.83844">
        <ele>142.3</ele>
        <time>2022-08-06T09:44:53Z</time>
      </trkpt>
      <trkpt lat="44.98265" lon="1.83845">
        <ele>142.2</ele>
        <time>2022-08-06T09:44:55Z</time>
      </trkpt>
      <trkpt lat="44.98263" lon="1.83844">
        <ele>142</ele>
        <time>2022-08-06T09:44:59Z</time>
      </trkpt>
      <trkpt lat="44.98263" lon="1.83844">
        <ele>142</ele>
        <time>2022-08-06T09:45:01Z</time>
      </trkpt>
      <trkpt lat="44.98263" lon="1.83844">
        <ele>142</ele>
        <time>2022-08-06T09:45:03Z</time>
      </trkpt>
      <trkpt lat="44.98263" lon="1.83844">
        <ele>142</ele>
        <time>2022-08-06T09:45:05Z</time>
      </trkpt>
      <trkpt lat="44.98261" lon="1.83845">
        <ele>141.9</ele>
        <time>2022-08-06T09:45:07Z</time>
      </trkpt>
      <trkpt lat="44.98259" lon="1.83845">
        <ele>141.8</ele>
        <time>2022-08-06T09:45:09Z</time>
      </trkpt>
      <trkpt lat="44.98258" lon="1.83846">
        <ele>141.7</ele>
        <time>2022-08-06T09:45:11Z</time>
      </trkpt>
      <trkpt lat="44.98257" lon="1.83846">
        <ele>141.7</ele>
        <time>2022-08-06T09:45:13Z</time>
      </trkpt>
      <trkpt lat="44.98255" lon="1.83846">
        <ele>141.6</ele>
        <time>2022-08-06T09:45:15Z</time>
      </trkpt>
      <trkpt lat="44.98253" lon="1.83847">
        <ele>141.5</ele>
        <time>2022-08-06T09:45:17Z</time>
      </trkpt>
      <trkpt lat="44.98252" lon="1.83847">
        <ele>141.4</ele>
        <time>2022-08-06T09:45:19Z</time>
      </trkpt>
      <trkpt lat="44.9825" lon="1.83848">
        <ele>141.3</ele>
        <time>2022-08-06T09:45:21Z</time>
      </trkpt>
      <trkpt lat="44.98248" lon="1.83848">
        <ele>141.4</ele>
        <time>2022-08-06T09:45:23Z</time>
      </trkpt>
      <trkpt lat="44.98246" lon="1.83848">
        <ele>141.4</ele>
        <time>2022-08-06T09:45:25Z</time>
      </trkpt>
      <trkpt lat="44.98244" lon="1.83849">
        <ele>141.5</ele>
        <time>2022-08-06T09:45:27Z</time>
      </trkpt>
      <trkpt lat="44.98242" lon="1.83849">
        <ele>141.6</ele>
        <time>2022-08-06T09:45:29Z</time>
      </trkpt>
      <trkpt lat="44.9824" lon="1.8385">
        <ele>141.6</ele>
        <time>2022-08-06T09:45:31Z</time>
      </trkpt>
      <trkpt lat="44.98238" lon="1.8385">
        <ele>141.7</ele>
        <time>2022-08-06T09:45:33Z</time>
      </trkpt>
      <trkpt lat="44.98237" lon="1.83851">
        <ele>141.7</ele>
        <time>2022-08-06T09:45:35Z</time>
      </trkpt>
      <trkpt lat="44.98235" lon="1.83851">
        <ele>141.7</ele>
        <time>2022-08-06T09:45:37Z</time>
      </trkpt>
      <trkpt lat="44.98233" lon="1.83851">
        <ele>141.8</ele>
        <time>2022-08-06T09:45:39Z</time>
      </trkpt>
      <trkpt lat="44.98232" lon="1.83851">
        <ele>141.8</ele>
        <time>2022-08-06T09:45:41Z</time>
      </trkpt>
      <trkpt lat="44.98229" lon="1.83852">
        <ele>141.9</ele>
        <time>2022-08-06T09:45:43Z</time>
      </trkpt>
      <trkpt lat="44.98227" lon="1.83852">
        <ele>141.9</ele>
        <time>2022-08-06T09:45:45Z</time>
      </trkpt>
      <trkpt lat="44.98225" lon="1.83853">
        <ele>142</ele>
        <time>2022-08-06T09:45:47Z</time>
      </trkpt>
      <trkpt lat="44.98223" lon="1.83854">
        <ele>142</ele>
        <time>2022-08-06T09:45:49Z</time>
      </trkpt>
      <trkpt lat="44.98221" lon="1.83854">
        <ele>142.1</ele>
        <time>2022-08-06T09:45:51Z</time>
      </trkpt>
      <trkpt lat="44.98219" lon="1.83855">
        <ele>142.2</ele>
        <time>2022-08-06T09:45:53Z</time>
      </trkpt>
      <trkpt lat="44.98217" lon="1.83855">
        <ele>142.2</ele>
        <time>2022-08-06T09:45:55Z</time>
      </trkpt>
      <trkpt lat="44.98215" lon="1.83855">
        <ele>142.3</ele>
        <time>2022-08-06T09:45:57Z</time>
      </trkpt>
      <trkpt lat="44.98213" lon="1.83856">
        <ele>142.3</ele>
        <time>2022-08-06T09:45:59Z</time>
      </trkpt>
      <trkpt lat="44.98211" lon="1.83856">
        <ele>142.4</ele>
        <time>2022-08-06T09:46:01Z</time>
      </trkpt>
      <trkpt lat="44.98209" lon="1.83857">
        <ele>142.4</ele>
        <time>2022-08-06T09:46:03Z</time>
      </trkpt>
      <trkpt lat="44.98207" lon="1.83857">
        <ele>142.5</ele>
        <time>2022-08-06T09:46:05Z</time>
      </trkpt>
      <trkpt lat="44.98205" lon="1.83857">
        <ele>142.5</ele>
        <time>2022-08-06T09:46:07Z</time>
      </trkpt>
      <trkpt lat="44.98203" lon="1.83858">
        <ele>142.5</ele>
        <time>2022-08-06T09:46:09Z</time>
      </trkpt>
      <trkpt lat="44.98201" lon="1.83858">
        <ele>142.6</ele>
        <time>2022-08-06T09:46:11Z</time>
      </trkpt>
      <trkpt lat="44.98199" lon="1.83859">
        <ele>142.6</ele>
        <time>2022-08-06T09:46:13Z</time>
      </trkpt>
      <trkpt lat="44.98197" lon="1.83859">
        <ele>142.7</ele>
        <time>2022-08-06T09:46:15Z</time>
      </trkpt>
      <trkpt lat="44.98195" lon="1.83859">
        <ele>142.7</ele>
        <time>2022-08-06T09:46:17Z</time>
      </trkpt>
      <trkpt lat="44.98193" lon="1.8386">
        <ele>142.8</ele>
        <time>2022-08-06T09:46:19Z</time>
      </trkpt>
      <trkpt lat="44.98191" lon="1.8386">
        <ele>142.8</ele>
        <time>2022-08-06T09:46:21Z</time>
      </trkpt>
      <trkpt lat="44.98188" lon="1.83861">
        <ele>142.9</ele>
        <time>2022-08-06T09:46:23Z</time>
      </trkpt>
      <trkpt lat="44.98186" lon="1.83861">
        <ele>142.9</ele>
        <time>2022-08-06T09:46:25Z</time>
      </trkpt>
      <trkpt lat="44.98184" lon="1.83861">
        <ele>143</ele>
        <time>2022-08-06T09:46:27Z</time>
      </trkpt>
      <trkpt lat="44.98183" lon="1.8386">
        <ele>143</ele>
        <time>2022-08-06T09:46:29Z</time>
      </trkpt>
      <trkpt lat="44.98181" lon="1.83858">
        <ele>143</ele>
        <time>2022-08-06T09:46:31Z</time>
      </trkpt>
      <trkpt lat="44.98181" lon="1.83857">
        <ele>143</ele>
        <time>2022-08-06T09:46:33Z</time>
      </trkpt>
      <trkpt lat="44.98181" lon="1.83856">
        <ele>143</ele>
        <time>2022-08-06T09:46:35Z</time>
      </trkpt>
      <trkpt lat="44.9818" lon="1.83856">
        <ele>143</ele>
        <time>2022-08-06T09:46:37Z</time>
      </trkpt>
      <trkpt lat="44.98179" lon="1.83855">
        <ele>143</ele>
        <time>2022-08-06T09:46:39Z</time>
      </trkpt>
      <trkpt lat="44.98177" lon="1.83853">
        <ele>143</ele>
        <time>2022-08-06T09:46:41Z</time>
      </trkpt>
      <trkpt lat="44.98176" lon="1.83851">
        <ele>143</ele>
        <time>2022-08-06T09:46:43Z</time>
      </trkpt>
      <trkpt lat="44.98174" lon="1.83849">
        <ele>143</ele>
        <time>2022-08-06T09:46:45Z</time>
      </trkpt>
      <trkpt lat="44.98172" lon="1.83846">
        <ele>143</ele>
        <time>2022-08-06T09:46:47Z</time>
      </trkpt>
      <trkpt lat="44.98171" lon="1.83844">
        <ele>143</ele>
        <time>2022-08-06T09:46:49Z</time>
      </trkpt>
      <trkpt lat="44.98169" lon="1.83842">
        <ele>143.1</ele>
        <time>2022-08-06T09:46:51Z</time>
      </trkpt>
      <trkpt lat="44.98167" lon="1.8384">
        <ele>143.1</ele>
        <time>2022-08-06T09:46:53Z</time>
      </trkpt>
      <trkpt lat="44.98165" lon="1.83838">
        <ele>143.1</ele>
        <time>2022-08-06T09:46:55Z</time>
      </trkpt>
      <trkpt lat="44.98152" lon="1.8385">
        <ele>143.4</ele>
        <time>2022-08-06T09:50:21Z</time>
      </trkpt>
      <trkpt lat="44.98148" lon="1.83848">
        <ele>143.5</ele>
        <time>2022-08-06T09:50:23Z</time>
      </trkpt>
      <trkpt lat="44.98146" lon="1.83845">
        <ele>143.5</ele>
        <time>2022-08-06T09:50:25Z</time>
      </trkpt>
      <trkpt lat="44.98143" lon="1.83846">
        <ele>143.6</ele>
        <time>2022-08-06T09:50:27Z</time>
      </trkpt>
      <trkpt lat="44.9814" lon="1.83848">
        <ele>143.7</ele>
        <time>2022-08-06T09:50:29Z</time>
      </trkpt>
      <trkpt lat="44.98137" lon="1.83849">
        <ele>143.7</ele>
        <time>2022-08-06T09:50:31Z</time>
      </trkpt>
      <trkpt lat="44.98134" lon="1.8385">
        <ele>143.7</ele>
        <time>2022-08-06T09:50:33Z</time>
      </trkpt>
      <trkpt lat="44.98132" lon="1.8385">
        <ele>143.8</ele>
        <time>2022-08-06T09:50:35Z</time>
      </trkpt>
      <trkpt lat="44.98129" lon="1.83852">
        <ele>143.8</ele>
        <time>2022-08-06T09:50:37Z</time>
      </trkpt>
      <trkpt lat="44.98127" lon="1.83853">
        <ele>143.8</ele>
        <time>2022-08-06T09:50:39Z</time>
      </trkpt>
      <trkpt lat="44.98127" lon="1.83851">
        <ele>143.9</ele>
        <time>2022-08-06T09:50:41Z</time>
      </trkpt>
      <trkpt lat="44.98127" lon="1.8385">
        <ele>143.9</ele>
        <time>2022-08-06T09:50:43Z</time>
      </trkpt>
      <trkpt lat="44.98127" lon="1.8385">
        <ele>143.9</ele>
        <time>2022-08-06T09:50:45Z</time>
      </trkpt>
      <trkpt lat="44.98127" lon="1.8385">
        <ele>143.9</ele>
        <time>2022-08-06T09:50:47Z</time>
      </trkpt>
      <trkpt lat="44.98126" lon="1.8385">
        <ele>143.9</ele>
        <time>2022-08-06T09:50:49Z</time>
      </trkpt>
      <trkpt lat="44.98111" lon="1.83868">
        <ele>143.9</ele>
        <time>2022-08-06T09:52:51Z</time>
      </trkpt>
      <trkpt lat="44.98106" lon="1.83872">
        <ele>143.9</ele>
        <time>2022-08-06T09:52:53Z</time>
      </trkpt>
      <trkpt lat="44.981" lon="1.83875">
        <ele>143.9</ele>
        <time>2022-08-06T09:52:55Z</time>
      </trkpt>
      <trkpt lat="44.98093" lon="1.83878">
        <ele>143.9</ele>
        <time>2022-08-06T09:52:57Z</time>
      </trkpt>
      <trkpt lat="44.98087" lon="1.83881">
        <ele>143.9</ele>
        <time>2022-08-06T09:52:59Z</time>
      </trkpt>
      <trkpt lat="44.9808" lon="1.83882">
        <ele>144.1</ele>
        <time>2022-08-06T09:53:01Z</time>
      </trkpt>
      <trkpt lat="44.98073" lon="1.83883">
        <ele>144.5</ele>
        <time>2022-08-06T09:53:03Z</time>
      </trkpt>
      <trkpt lat="44.98069" lon="1.83885">
        <ele>144.7</ele>
        <time>2022-08-06T09:53:05Z</time>
      </trkpt>
      <trkpt lat="44.98064" lon="1.83887">
        <ele>145.1</ele>
        <time>2022-08-06T09:53:07Z</time>
      </trkpt>
      <trkpt lat="44.98058" lon="1.83891">
        <ele>145.3</ele>
        <time>2022-08-06T09:53:09Z</time>
      </trkpt>
      <trkpt lat="44.98054" lon="1.83889">
        <ele>145.7</ele>
        <time>2022-08-06T09:53:11Z</time>
      </trkpt>
      <trkpt lat="44.9805" lon="1.83888">
        <ele>145.9</ele>
        <time>2022-08-06T09:53:13Z</time>
      </trkpt>
      <trkpt lat="44.98048" lon="1.83887">
        <ele>146.1</ele>
        <time>2022-08-06T09:53:15Z</time>
      </trkpt>
      <trkpt lat="44.98044" lon="1.83886">
        <ele>146.4</ele>
        <time>2022-08-06T09:53:17Z</time>
      </trkpt>
      <trkpt lat="44.98043" lon="1.83886">
        <ele>146.5</ele>
        <time>2022-08-06T09:53:19Z</time>
      </trkpt>
      <trkpt lat="44.98042" lon="1.83885">
        <ele>146.5</ele>
        <time>2022-08-06T09:53:21Z</time>
      </trkpt>
      <trkpt lat="44.98042" lon="1.83885">
        <ele>146.5</ele>
        <time>2022-08-06T09:53:23Z</time>
      </trkpt>
      <trkpt lat="44.98021" lon="1.83888">
        <ele>147.9</ele>
        <time>2022-08-06T09:53:41Z</time>
      </trkpt>
      <trkpt lat="44.98018" lon="1.83893">
        <ele>148.1</ele>
        <time>2022-08-06T09:53:43Z</time>
      </trkpt>
      <trkpt lat="44.98015" lon="1.83899">
        <ele>148.2</ele>
        <time>2022-08-06T09:53:45Z</time>
      </trkpt>
      <trkpt lat="44.9801" lon="1.839">
        <ele>148.5</ele>
        <time>2022-08-06T09:53:47Z</time>
      </trkpt>
      <trkpt lat="44.98006" lon="1.83896">
        <ele>148.8</ele>
        <time>2022-08-06T09:53:49Z</time>
      </trkpt>
      <trkpt lat="44.98001" lon="1.83895">
        <ele>149.2</ele>
        <time>2022-08-06T09:53:51Z</time>
      </trkpt>
      <trkpt lat="44.97996" lon="1.83895">
        <ele>149.4</ele>
        <time>2022-08-06T09:53:53Z</time>
      </trkpt>
      <trkpt lat="44.9799" lon="1.83896">
        <ele>149.7</ele>
        <time>2022-08-06T09:53:55Z</time>
      </trkpt>
      <trkpt lat="44.97984" lon="1.83897">
        <ele>149.9</ele>
        <time>2022-08-06T09:53:57Z</time>
      </trkpt>
      <trkpt lat="44.9798" lon="1.83898">
        <ele>150</ele>
        <time>2022-08-06T09:53:59Z</time>
      </trkpt>
      <trkpt lat="44.97974" lon="1.83895">
        <ele>150.3</ele>
        <time>2022-08-06T09:54:01Z</time>
      </trkpt>
      <trkpt lat="44.9797" lon="1.83895">
        <ele>150.4</ele>
        <time>2022-08-06T09:54:03Z</time>
      </trkpt>
      <trkpt lat="44.97964" lon="1.83894">
        <ele>150.7</ele>
        <time>2022-08-06T09:54:05Z</time>
      </trkpt>
      <trkpt lat="44.97959" lon="1.8389">
        <ele>150.9</ele>
        <time>2022-08-06T09:54:07Z</time>
      </trkpt>
      <trkpt lat="44.97955" lon="1.8389">
        <ele>151.1</ele>
        <time>2022-08-06T09:54:09Z</time>
      </trkpt>
      <trkpt lat="44.97951" lon="1.83889">
        <ele>151.3</ele>
        <time>2022-08-06T09:54:11Z</time>
      </trkpt>
      <trkpt lat="44.97949" lon="1.83887">
        <ele>151.4</ele>
        <time>2022-08-06T09:54:13Z</time>
      </trkpt>
      <trkpt lat="44.97945" lon="1.83886">
        <ele>151.6</ele>
        <time>2022-08-06T09:54:15Z</time>
      </trkpt>
      <trkpt lat="44.97941" lon="1.83886">
        <ele>151.8</ele>
        <time>2022-08-06T09:54:17Z</time>
      </trkpt>
      <trkpt lat="44.97937" lon="1.83883">
        <ele>152</ele>
        <time>2022-08-06T09:54:19Z</time>
      </trkpt>
      <trkpt lat="44.97934" lon="1.83879">
        <ele>152.2</ele>
        <time>2022-08-06T09:54:21Z</time>
      </trkpt>
      <trkpt lat="44.97929" lon="1.83876">
        <ele>152.5</ele>
        <time>2022-08-06T09:54:23Z</time>
      </trkpt>
      <trkpt lat="44.97925" lon="1.83872">
        <ele>152.7</ele>
        <time>2022-08-06T09:54:25Z</time>
      </trkpt>
      <trkpt lat="44.97925" lon="1.83866">
        <ele>152.9</ele>
        <time>2022-08-06T09:54:27Z</time>
      </trkpt>
      <trkpt lat="44.97923" lon="1.83863">
        <ele>153</ele>
        <time>2022-08-06T09:54:29Z</time>
      </trkpt>
      <trkpt lat="44.97922" lon="1.83859">
        <ele>153.1</ele>
        <time>2022-08-06T09:54:31Z</time>
      </trkpt>
      <trkpt lat="44.97922" lon="1.83851">
        <ele>153.3</ele>
        <time>2022-08-06T09:54:33Z</time>
      </trkpt>
      <trkpt lat="44.97918" lon="1.83845">
        <ele>153.6</ele>
        <time>2022-08-06T09:54:35Z</time>
      </trkpt>
      <trkpt lat="44.97918" lon="1.83841">
        <ele>153.8</ele>
        <time>2022-08-06T09:54:37Z</time>
      </trkpt>
      <trkpt lat="44.97908" lon="1.83787">
        <ele>154.2</ele>
        <time>2022-08-06T09:56:45Z</time>
      </trkpt>
      <trkpt lat="44.97909" lon="1.83785">
        <ele>154.3</ele>
        <time>2022-08-06T09:56:47Z</time>
      </trkpt>
      <trkpt lat="44.97905" lon="1.83781">
        <ele>154.2</ele>
        <time>2022-08-06T09:56:49Z</time>
      </trkpt>
      <trkpt lat="44.97903" lon="1.83779">
        <ele>154.2</ele>
        <time>2022-08-06T09:56:51Z</time>
      </trkpt>
      <trkpt lat="44.97899" lon="1.83776">
        <ele>154.1</ele>
        <time>2022-08-06T09:56:53Z</time>
      </trkpt>
      <trkpt lat="44.97897" lon="1.83771">
        <ele>154</ele>
        <time>2022-08-06T09:56:55Z</time>
      </trkpt>
      <trkpt lat="44.97892" lon="1.83769">
        <ele>153.9</ele>
        <time>2022-08-06T09:56:57Z</time>
      </trkpt>
      <trkpt lat="44.97887" lon="1.83767">
        <ele>153.7</ele>
        <time>2022-08-06T09:56:59Z</time>
      </trkpt>
      <trkpt lat="44.97883" lon="1.83764">
        <ele>153.6</ele>
        <time>2022-08-06T09:57:01Z</time>
      </trkpt>
      <trkpt lat="44.97881" lon="1.83762">
        <ele>153.6</ele>
        <time>2022-08-06T09:57:03Z</time>
      </trkpt>
      <trkpt lat="44.97878" lon="1.8376">
        <ele>153.5</ele>
        <time>2022-08-06T09:57:05Z</time>
      </trkpt>
      <trkpt lat="44.97876" lon="1.83761">
        <ele>153.4</ele>
        <time>2022-08-06T09:57:07Z</time>
      </trkpt>
      <trkpt lat="44.9787" lon="1.83761">
        <ele>153.2</ele>
        <time>2022-08-06T09:57:09Z</time>
      </trkpt>
      <trkpt lat="44.97869" lon="1.83767">
        <ele>153.1</ele>
        <time>2022-08-06T09:57:11Z</time>
      </trkpt>
      <trkpt lat="44.97865" lon="1.83774">
        <ele>152.9</ele>
        <time>2022-08-06T09:57:13Z</time>
      </trkpt>
      <trkpt lat="44.97864" lon="1.8378">
        <ele>152.7</ele>
        <time>2022-08-06T09:57:15Z</time>
      </trkpt>
      <trkpt lat="44.97861" lon="1.83787">
        <ele>152.6</ele>
        <time>2022-08-06T09:57:17Z</time>
      </trkpt>
      <trkpt lat="44.97858" lon="1.83793">
        <ele>152.4</ele>
        <time>2022-08-06T09:57:19Z</time>
      </trkpt>
      <trkpt lat="44.97854" lon="1.83799">
        <ele>152.2</ele>
        <time>2022-08-06T09:57:21Z</time>
      </trkpt>
      <trkpt lat="44.9785" lon="1.83804">
        <ele>152</ele>
        <time>2022-08-06T09:57:23Z</time>
      </trkpt>
      <trkpt lat="44.97847" lon="1.83811">
        <ele>151.8</ele>
        <time>2022-08-06T09:57:25Z</time>
      </trkpt>
      <trkpt lat="44.97844" lon="1.83816">
        <ele>151.6</ele>
        <time>2022-08-06T09:57:27Z</time>
      </trkpt>
      <trkpt lat="44.97842" lon="1.83819">
        <ele>151.5</ele>
        <time>2022-08-06T09:57:29Z</time>
      </trkpt>
      <trkpt lat="44.9784" lon="1.83824">
        <ele>151.3</ele>
        <time>2022-08-06T09:57:31Z</time>
      </trkpt>
      <trkpt lat="44.97841" lon="1.83823">
        <ele>151.4</ele>
        <time>2022-08-06T09:57:33Z</time>
      </trkpt>
      <trkpt lat="44.97839" lon="1.83825">
        <ele>151.3</ele>
        <time>2022-08-06T09:57:35Z</time>
      </trkpt>
      <trkpt lat="44.9784" lon="1.83826">
        <ele>151.3</ele>
        <time>2022-08-06T09:57:37Z</time>
      </trkpt>
      <trkpt lat="44.9784" lon="1.83826">
        <ele>151.3</ele>
        <time>2022-08-06T09:57:39Z</time>
      </trkpt>
      <trkpt lat="44.9784" lon="1.83827">
        <ele>151.3</ele>
        <time>2022-08-06T09:57:41Z</time>
      </trkpt>
      <trkpt lat="44.97829" lon="1.83831">
        <ele>151</ele>
        <time>2022-08-06T09:58:07Z</time>
      </trkpt>
      <trkpt lat="44.97822" lon="1.83829">
        <ele>151</ele>
        <time>2022-08-06T09:58:09Z</time>
      </trkpt>
      <trkpt lat="44.97817" lon="1.83831">
        <ele>151</ele>
        <time>2022-08-06T09:58:11Z</time>
      </trkpt>
      <trkpt lat="44.97812" lon="1.83833">
        <ele>151</ele>
        <time>2022-08-06T09:58:13Z</time>
      </trkpt>
      <trkpt lat="44.97807" lon="1.83836">
        <ele>151</ele>
        <time>2022-08-06T09:58:15Z</time>
      </trkpt>
      <trkpt lat="44.97801" lon="1.83839">
        <ele>151</ele>
        <time>2022-08-06T09:58:17Z</time>
      </trkpt>
      <trkpt lat="44.97795" lon="1.83838">
        <ele>151</ele>
        <time>2022-08-06T09:58:19Z</time>
      </trkpt>
      <trkpt lat="44.97788" lon="1.83843">
        <ele>150.9</ele>
        <time>2022-08-06T09:58:21Z</time>
      </trkpt>
      <trkpt lat="44.97781" lon="1.83848">
        <ele>150.9</ele>
        <time>2022-08-06T09:58:23Z</time>
      </trkpt>
      <trkpt lat="44.97774" lon="1.83852">
        <ele>150.9</ele>
        <time>2022-08-06T09:58:25Z</time>
      </trkpt>
      <trkpt lat="44.97767" lon="1.83857">
        <ele>150.9</ele>
        <time>2022-08-06T09:58:27Z</time>
      </trkpt>
      <trkpt lat="44.97759" lon="1.83862">
        <ele>151</ele>
        <time>2022-08-06T09:58:29Z</time>
      </trkpt>
      <trkpt lat="44.97752" lon="1.83866">
        <ele>151</ele>
        <time>2022-08-06T09:58:31Z</time>
      </trkpt>
      <trkpt lat="44.97743" lon="1.8387">
        <ele>151</ele>
        <time>2022-08-06T09:58:33Z</time>
      </trkpt>
      <trkpt lat="44.97735" lon="1.83876">
        <ele>151</ele>
        <time>2022-08-06T09:58:35Z</time>
      </trkpt>
      <trkpt lat="44.97729" lon="1.83878">
        <ele>151</ele>
        <time>2022-08-06T09:58:37Z</time>
      </trkpt>
      <trkpt lat="44.97719" lon="1.83886">
        <ele>151</ele>
        <time>2022-08-06T09:58:39Z</time>
      </trkpt>
      <trkpt lat="44.97711" lon="1.8389">
        <ele>151</ele>
        <time>2022-08-06T09:58:41Z</time>
      </trkpt>
      <trkpt lat="44.97703" lon="1.83895">
        <ele>151</ele>
        <time>2022-08-06T09:58:43Z</time>
      </trkpt>
      <trkpt lat="44.97694" lon="1.839">
        <ele>151</ele>
        <time>2022-08-06T09:58:45Z</time>
      </trkpt>
      <trkpt lat="44.97686" lon="1.83906">
        <ele>151</ele>
        <time>2022-08-06T09:58:47Z</time>
      </trkpt>
      <trkpt lat="44.97677" lon="1.83911">
        <ele>151</ele>
        <time>2022-08-06T09:58:49Z</time>
      </trkpt>
      <trkpt lat="44.97669" lon="1.83916">
        <ele>151</ele>
        <time>2022-08-06T09:58:51Z</time>
      </trkpt>
      <trkpt lat="44.97661" lon="1.8392">
        <ele>150.8</ele>
        <time>2022-08-06T09:58:53Z</time>
      </trkpt>
      <trkpt lat="44.97652" lon="1.83926">
        <ele>150.5</ele>
        <time>2022-08-06T09:58:55Z</time>
      </trkpt>
      <trkpt lat="44.97644" lon="1.83931">
        <ele>150.3</ele>
        <time>2022-08-06T09:58:57Z</time>
      </trkpt>
      <trkpt lat="44.97635" lon="1.83936">
        <ele>150.1</ele>
        <time>2022-08-06T09:58:59Z</time>
      </trkpt>
      <trkpt lat="44.97627" lon="1.83941">
        <ele>149.9</ele>
        <time>2022-08-06T09:59:01Z</time>
      </trkpt>
      <trkpt lat="44.97619" lon="1.83946">
        <ele>149.8</ele>
        <time>2022-08-06T09:59:03Z</time>
      </trkpt>
      <trkpt lat="44.97611" lon="1.8395">
        <ele>149.7</ele>
        <time>2022-08-06T09:59:05Z</time>
      </trkpt>
      <trkpt lat="44.97602" lon="1.83955">
        <ele>149.6</ele>
        <time>2022-08-06T09:59:07Z</time>
      </trkpt>
      <trkpt lat="44.97594" lon="1.83959">
        <ele>149.5</ele>
        <time>2022-08-06T09:59:09Z</time>
      </trkpt>
      <trkpt lat="44.97586" lon="1.83964">
        <ele>149.4</ele>
        <time>2022-08-06T09:59:11Z</time>
      </trkpt>
      <trkpt lat="44.97577" lon="1.83969">
        <ele>149.7</ele>
        <time>2022-08-06T09:59:13Z</time>
      </trkpt>
      <trkpt lat="44.97569" lon="1.83975">
        <ele>150</ele>
        <time>2022-08-06T09:59:15Z</time>
      </trkpt>
      <trkpt lat="44.9756" lon="1.83979">
        <ele>150.2</ele>
        <time>2022-08-06T09:59:17Z</time>
      </trkpt>
      <trkpt lat="44.97552" lon="1.83984">
        <ele>150.2</ele>
        <time>2022-08-06T09:59:19Z</time>
      </trkpt>
      <trkpt lat="44.97543" lon="1.8399">
        <ele>150.1</ele>
        <time>2022-08-06T09:59:21Z</time>
      </trkpt>
      <trkpt lat="44.97535" lon="1.83994">
        <ele>150</ele>
        <time>2022-08-06T09:59:23Z</time>
      </trkpt>
      <trkpt lat="44.97526" lon="1.83998">
        <ele>149.8</ele>
        <time>2022-08-06T09:59:25Z</time>
      </trkpt>
      <trkpt lat="44.97518" lon="1.84003">
        <ele>149.6</ele>
        <time>2022-08-06T09:59:27Z</time>
      </trkpt>
      <trkpt lat="44.9751" lon="1.84009">
        <ele>149.4</ele>
        <time>2022-08-06T09:59:29Z</time>
      </trkpt>
      <trkpt lat="44.97501" lon="1.84014">
        <ele>149.2</ele>
        <time>2022-08-06T09:59:31Z</time>
      </trkpt>
      <trkpt lat="44.97493" lon="1.84018">
        <ele>150.5</ele>
        <time>2022-08-06T09:59:33Z</time>
      </trkpt>
      <trkpt lat="44.97485" lon="1.84024">
        <ele>151.7</ele>
        <time>2022-08-06T09:59:35Z</time>
      </trkpt>
      <trkpt lat="44.97477" lon="1.84029">
        <ele>152.7</ele>
        <time>2022-08-06T09:59:37Z</time>
      </trkpt>
      <trkpt lat="44.97469" lon="1.84034">
        <ele>153.7</ele>
        <time>2022-08-06T09:59:39Z</time>
      </trkpt>
      <trkpt lat="44.9746" lon="1.84039">
        <ele>154.5</ele>
        <time>2022-08-06T09:59:41Z</time>
      </trkpt>
      <trkpt lat="44.97452" lon="1.84043">
        <ele>155.3</ele>
        <time>2022-08-06T09:59:43Z</time>
      </trkpt>
      <trkpt lat="44.97444" lon="1.84047">
        <ele>155.8</ele>
        <time>2022-08-06T09:59:45Z</time>
      </trkpt>
      <trkpt lat="44.97436" lon="1.84053">
        <ele>155.9</ele>
        <time>2022-08-06T09:59:47Z</time>
      </trkpt>
      <trkpt lat="44.97427" lon="1.84058">
        <ele>155.9</ele>
        <time>2022-08-06T09:59:49Z</time>
      </trkpt>
      <trkpt lat="44.97419" lon="1.84064">
        <ele>155.7</ele>
        <time>2022-08-06T09:59:51Z</time>
      </trkpt>
      <trkpt lat="44.97411" lon="1.84068">
        <ele>156.3</ele>
        <time>2022-08-06T09:59:53Z</time>
      </trkpt>
      <trkpt lat="44.97404" lon="1.84073">
        <ele>157.1</ele>
        <time>2022-08-06T09:59:55Z</time>
      </trkpt>
      <trkpt lat="44.97396" lon="1.84077">
        <ele>158</ele>
        <time>2022-08-06T09:59:57Z</time>
      </trkpt>
      <trkpt lat="44.97388" lon="1.84082">
        <ele>158.7</ele>
        <time>2022-08-06T09:59:59Z</time>
      </trkpt>
      <trkpt lat="44.97381" lon="1.84087">
        <ele>159.4</ele>
        <time>2022-08-06T10:00:01Z</time>
      </trkpt>
      <trkpt lat="44.97374" lon="1.8409">
        <ele>160.5</ele>
        <time>2022-08-06T10:00:03Z</time>
      </trkpt>
      <trkpt lat="44.97367" lon="1.84095">
        <ele>161.1</ele>
        <time>2022-08-06T10:00:05Z</time>
      </trkpt>
      <trkpt lat="44.97361" lon="1.841">
        <ele>161.5</ele>
        <time>2022-08-06T10:00:07Z</time>
      </trkpt>
      <trkpt lat="44.97355" lon="1.84104">
        <ele>162</ele>
        <time>2022-08-06T10:00:09Z</time>
      </trkpt>
      <trkpt lat="44.97347" lon="1.84108">
        <ele>162.4</ele>
        <time>2022-08-06T10:00:11Z</time>
      </trkpt>
      <trkpt lat="44.9734" lon="1.84113">
        <ele>162.4</ele>
        <time>2022-08-06T10:00:13Z</time>
      </trkpt>
      <trkpt lat="44.97333" lon="1.84119">
        <ele>162.2</ele>
        <time>2022-08-06T10:00:15Z</time>
      </trkpt>
      <trkpt lat="44.97326" lon="1.84125">
        <ele>163.5</ele>
        <time>2022-08-06T10:00:17Z</time>
      </trkpt>
      <trkpt lat="44.97319" lon="1.8413">
        <ele>164.6</ele>
        <time>2022-08-06T10:00:19Z</time>
      </trkpt>
      <trkpt lat="44.97313" lon="1.8414">
        <ele>164.2</ele>
        <time>2022-08-06T10:00:21Z</time>
      </trkpt>
      <trkpt lat="44.97307" lon="1.84148">
        <ele>164.1</ele>
        <time>2022-08-06T10:00:23Z</time>
      </trkpt>
      <trkpt lat="44.97301" lon="1.84157">
        <ele>163.6</ele>
        <time>2022-08-06T10:00:25Z</time>
      </trkpt>
      <trkpt lat="44.97295" lon="1.84167">
        <ele>162.8</ele>
        <time>2022-08-06T10:00:27Z</time>
      </trkpt>
      <trkpt lat="44.97289" lon="1.84177">
        <ele>162.6</ele>
        <time>2022-08-06T10:00:29Z</time>
      </trkpt>
      <trkpt lat="44.97283" lon="1.84189">
        <ele>161.6</ele>
        <time>2022-08-06T10:00:31Z</time>
      </trkpt>
      <trkpt lat="44.97276" lon="1.84201">
        <ele>160.7</ele>
        <time>2022-08-06T10:00:33Z</time>
      </trkpt>
      <trkpt lat="44.97268" lon="1.84212">
        <ele>159.8</ele>
        <time>2022-08-06T10:00:35Z</time>
      </trkpt>
      <trkpt lat="44.97261" lon="1.84222">
        <ele>158.6</ele>
        <time>2022-08-06T10:00:37Z</time>
      </trkpt>
      <trkpt lat="44.97254" lon="1.84233">
        <ele>156.6</ele>
        <time>2022-08-06T10:00:39Z</time>
      </trkpt>
      <trkpt lat="44.97248" lon="1.84244">
        <ele>154.8</ele>
        <time>2022-08-06T10:00:41Z</time>
      </trkpt>
      <trkpt lat="44.9724" lon="1.84255">
        <ele>155.5</ele>
        <time>2022-08-06T10:00:43Z</time>
      </trkpt>
      <trkpt lat="44.97233" lon="1.84265">
        <ele>156.8</ele>
        <time>2022-08-06T10:00:45Z</time>
      </trkpt>
      <trkpt lat="44.97226" lon="1.84276">
        <ele>157.8</ele>
        <time>2022-08-06T10:00:47Z</time>
      </trkpt>
      <trkpt lat="44.97219" lon="1.84287">
        <ele>158.3</ele>
        <time>2022-08-06T10:00:49Z</time>
      </trkpt>
      <trkpt lat="44.97212" lon="1.84299">
        <ele>158.3</ele>
        <time>2022-08-06T10:00:51Z</time>
      </trkpt>
      <trkpt lat="44.97204" lon="1.8431">
        <ele>158.2</ele>
        <time>2022-08-06T10:00:53Z</time>
      </trkpt>
      <trkpt lat="44.97196" lon="1.84322">
        <ele>157.5</ele>
        <time>2022-08-06T10:00:55Z</time>
      </trkpt>
      <trkpt lat="44.9719" lon="1.84332">
        <ele>156.7</ele>
        <time>2022-08-06T10:00:57Z</time>
      </trkpt>
      <trkpt lat="44.97182" lon="1.84341">
        <ele>156.9</ele>
        <time>2022-08-06T10:00:59Z</time>
      </trkpt>
      <trkpt lat="44.97175" lon="1.84348">
        <ele>157.5</ele>
        <time>2022-08-06T10:01:01Z</time>
      </trkpt>
      <trkpt lat="44.97167" lon="1.84358">
        <ele>157.4</ele>
        <time>2022-08-06T10:01:03Z</time>
      </trkpt>
      <trkpt lat="44.9716" lon="1.84367">
        <ele>157.5</ele>
        <time>2022-08-06T10:01:05Z</time>
      </trkpt>
      <trkpt lat="44.97153" lon="1.84377">
        <ele>157</ele>
        <time>2022-08-06T10:01:07Z</time>
      </trkpt>
      <trkpt lat="44.97145" lon="1.84387">
        <ele>156.1</ele>
        <time>2022-08-06T10:01:09Z</time>
      </trkpt>
      <trkpt lat="44.97138" lon="1.84399">
        <ele>154.7</ele>
        <time>2022-08-06T10:01:11Z</time>
      </trkpt>
      <trkpt lat="44.9713" lon="1.84405">
        <ele>154.4</ele>
        <time>2022-08-06T10:01:13Z</time>
      </trkpt>
      <trkpt lat="44.97123" lon="1.84413">
        <ele>153.3</ele>
        <time>2022-08-06T10:01:15Z</time>
      </trkpt>
      <trkpt lat="44.97116" lon="1.84421">
        <ele>152.7</ele>
        <time>2022-08-06T10:01:17Z</time>
      </trkpt>
      <trkpt lat="44.97107" lon="1.84429">
        <ele>152.7</ele>
        <time>2022-08-06T10:01:19Z</time>
      </trkpt>
      <trkpt lat="44.97099" lon="1.84434">
        <ele>152.8</ele>
        <time>2022-08-06T10:01:21Z</time>
      </trkpt>
      <trkpt lat="44.97089" lon="1.84438">
        <ele>153.3</ele>
        <time>2022-08-06T10:01:23Z</time>
      </trkpt>
      <trkpt lat="44.97079" lon="1.84441">
        <ele>153.6</ele>
        <time>2022-08-06T10:01:25Z</time>
      </trkpt>
      <trkpt lat="44.97069" lon="1.84441">
        <ele>154.1</ele>
        <time>2022-08-06T10:01:27Z</time>
      </trkpt>
      <trkpt lat="44.97059" lon="1.84443">
        <ele>154.2</ele>
        <time>2022-08-06T10:01:29Z</time>
      </trkpt>
      <trkpt lat="44.97049" lon="1.84442">
        <ele>154.7</ele>
        <time>2022-08-06T10:01:31Z</time>
      </trkpt>
      <trkpt lat="44.9704" lon="1.84444">
        <ele>154.8</ele>
        <time>2022-08-06T10:01:33Z</time>
      </trkpt>
      <trkpt lat="44.97032" lon="1.84448">
        <ele>154.6</ele>
        <time>2022-08-06T10:01:35Z</time>
      </trkpt>
      <trkpt lat="44.97023" lon="1.8445">
        <ele>154.5</ele>
        <time>2022-08-06T10:01:37Z</time>
      </trkpt>
      <trkpt lat="44.97014" lon="1.84454">
        <ele>154.3</ele>
        <time>2022-08-06T10:01:39Z</time>
      </trkpt>
      <trkpt lat="44.97005" lon="1.84458">
        <ele>154</ele>
        <time>2022-08-06T10:01:41Z</time>
      </trkpt>
      <trkpt lat="44.96996" lon="1.84465">
        <ele>153.3</ele>
        <time>2022-08-06T10:01:43Z</time>
      </trkpt>
      <trkpt lat="44.96987" lon="1.84473">
        <ele>152.8</ele>
        <time>2022-08-06T10:01:45Z</time>
      </trkpt>
      <trkpt lat="44.9698" lon="1.8448">
        <ele>152.2</ele>
        <time>2022-08-06T10:01:47Z</time>
      </trkpt>
      <trkpt lat="44.96973" lon="1.84489">
        <ele>151.2</ele>
        <time>2022-08-06T10:01:49Z</time>
      </trkpt>
      <trkpt lat="44.96966" lon="1.84499">
        <ele>150</ele>
        <time>2022-08-06T10:01:51Z</time>
      </trkpt>
      <trkpt lat="44.96959" lon="1.84509">
        <ele>149.6</ele>
        <time>2022-08-06T10:01:53Z</time>
      </trkpt>
      <trkpt lat="44.96951" lon="1.84517">
        <ele>149.3</ele>
        <time>2022-08-06T10:01:55Z</time>
      </trkpt>
      <trkpt lat="44.96941" lon="1.84524">
        <ele>149.3</ele>
        <time>2022-08-06T10:01:57Z</time>
      </trkpt>
      <trkpt lat="44.96932" lon="1.8453">
        <ele>149.3</ele>
        <time>2022-08-06T10:01:59Z</time>
      </trkpt>
      <trkpt lat="44.96921" lon="1.84536">
        <ele>149.4</ele>
        <time>2022-08-06T10:02:01Z</time>
      </trkpt>
      <trkpt lat="44.9691" lon="1.8454">
        <ele>149.3</ele>
        <time>2022-08-06T10:02:03Z</time>
      </trkpt>
      <trkpt lat="44.96899" lon="1.84542">
        <ele>149.3</ele>
        <time>2022-08-06T10:02:05Z</time>
      </trkpt>
      <trkpt lat="44.96889" lon="1.84544">
        <ele>149.2</ele>
        <time>2022-08-06T10:02:07Z</time>
      </trkpt>
      <trkpt lat="44.96878" lon="1.84546">
        <ele>149.1</ele>
        <time>2022-08-06T10:02:09Z</time>
      </trkpt>
      <trkpt lat="44.96867" lon="1.84549">
        <ele>148.9</ele>
        <time>2022-08-06T10:02:11Z</time>
      </trkpt>
      <trkpt lat="44.96857" lon="1.84551">
        <ele>148.7</ele>
        <time>2022-08-06T10:02:13Z</time>
      </trkpt>
      <trkpt lat="44.96847" lon="1.84553">
        <ele>148.6</ele>
        <time>2022-08-06T10:02:15Z</time>
      </trkpt>
      <trkpt lat="44.96837" lon="1.84555">
        <ele>148.4</ele>
        <time>2022-08-06T10:02:17Z</time>
      </trkpt>
      <trkpt lat="44.96828" lon="1.84557">
        <ele>148.5</ele>
        <time>2022-08-06T10:02:19Z</time>
      </trkpt>
      <trkpt lat="44.96818" lon="1.84559">
        <ele>149</ele>
        <time>2022-08-06T10:02:21Z</time>
      </trkpt>
      <trkpt lat="44.96808" lon="1.84562">
        <ele>149.4</ele>
        <time>2022-08-06T10:02:23Z</time>
      </trkpt>
      <trkpt lat="44.96799" lon="1.84565">
        <ele>149.5</ele>
        <time>2022-08-06T10:02:25Z</time>
      </trkpt>
      <trkpt lat="44.9679" lon="1.84567">
        <ele>149.8</ele>
        <time>2022-08-06T10:02:27Z</time>
      </trkpt>
      <trkpt lat="44.96781" lon="1.8457">
        <ele>150.1</ele>
        <time>2022-08-06T10:02:29Z</time>
      </trkpt>
      <trkpt lat="44.96772" lon="1.84573">
        <ele>150.2</ele>
        <time>2022-08-06T10:02:31Z</time>
      </trkpt>
      <trkpt lat="44.96764" lon="1.84578">
        <ele>150</ele>
        <time>2022-08-06T10:02:33Z</time>
      </trkpt>
      <trkpt lat="44.96755" lon="1.84583">
        <ele>149.7</ele>
        <time>2022-08-06T10:02:35Z</time>
      </trkpt>
      <trkpt lat="44.96747" lon="1.84588">
        <ele>150.6</ele>
        <time>2022-08-06T10:02:37Z</time>
      </trkpt>
      <trkpt lat="44.96739" lon="1.84594">
        <ele>152.6</ele>
        <time>2022-08-06T10:02:39Z</time>
      </trkpt>
      <trkpt lat="44.96731" lon="1.846">
        <ele>154.2</ele>
        <time>2022-08-06T10:02:41Z</time>
      </trkpt>
      <trkpt lat="44.96723" lon="1.84607">
        <ele>155.5</ele>
        <time>2022-08-06T10:02:43Z</time>
      </trkpt>
      <trkpt lat="44.96715" lon="1.84613">
        <ele>156.4</ele>
        <time>2022-08-06T10:02:45Z</time>
      </trkpt>
      <trkpt lat="44.96707" lon="1.84619">
        <ele>157.3</ele>
        <time>2022-08-06T10:02:47Z</time>
      </trkpt>
      <trkpt lat="44.96699" lon="1.84626">
        <ele>157.7</ele>
        <time>2022-08-06T10:02:49Z</time>
      </trkpt>
      <trkpt lat="44.9669" lon="1.84631">
        <ele>158.2</ele>
        <time>2022-08-06T10:02:51Z</time>
      </trkpt>
      <trkpt lat="44.96682" lon="1.84639">
        <ele>157.8</ele>
        <time>2022-08-06T10:02:53Z</time>
      </trkpt>
      <trkpt lat="44.96675" lon="1.84645">
        <ele>157.3</ele>
        <time>2022-08-06T10:02:55Z</time>
      </trkpt>
      <trkpt lat="44.96666" lon="1.84652">
        <ele>156.7</ele>
        <time>2022-08-06T10:02:57Z</time>
      </trkpt>
      <trkpt lat="44.96658" lon="1.84658">
        <ele>155.6</ele>
        <time>2022-08-06T10:02:59Z</time>
      </trkpt>
      <trkpt lat="44.9665" lon="1.84666">
        <ele>153.8</ele>
        <time>2022-08-06T10:03:01Z</time>
      </trkpt>
      <trkpt lat="44.96641" lon="1.84672">
        <ele>153.6</ele>
        <time>2022-08-06T10:03:03Z</time>
      </trkpt>
      <trkpt lat="44.96633" lon="1.84678">
        <ele>153.5</ele>
        <time>2022-08-06T10:03:05Z</time>
      </trkpt>
      <trkpt lat="44.96624" lon="1.84683">
        <ele>153.4</ele>
        <time>2022-08-06T10:03:07Z</time>
      </trkpt>
      <trkpt lat="44.96613" lon="1.84686">
        <ele>153.8</ele>
        <time>2022-08-06T10:03:09Z</time>
      </trkpt>
      <trkpt lat="44.96603" lon="1.84688">
        <ele>154.2</ele>
        <time>2022-08-06T10:03:11Z</time>
      </trkpt>
      <trkpt lat="44.96592" lon="1.8469">
        <ele>154.5</ele>
        <time>2022-08-06T10:03:13Z</time>
      </trkpt>
      <trkpt lat="44.96582" lon="1.84691">
        <ele>155.1</ele>
        <time>2022-08-06T10:03:15Z</time>
      </trkpt>
      <trkpt lat="44.96572" lon="1.84692">
        <ele>155.5</ele>
        <time>2022-08-06T10:03:17Z</time>
      </trkpt>
      <trkpt lat="44.96561" lon="1.84693">
        <ele>155.9</ele>
        <time>2022-08-06T10:03:19Z</time>
      </trkpt>
      <trkpt lat="44.9655" lon="1.84693">
        <ele>156.4</ele>
        <time>2022-08-06T10:03:21Z</time>
      </trkpt>
      <trkpt lat="44.96539" lon="1.84695">
        <ele>156.7</ele>
        <time>2022-08-06T10:03:23Z</time>
      </trkpt>
      <trkpt lat="44.96527" lon="1.84696">
        <ele>156.9</ele>
        <time>2022-08-06T10:03:25Z</time>
      </trkpt>
      <trkpt lat="44.96517" lon="1.84697">
        <ele>157.4</ele>
        <time>2022-08-06T10:03:27Z</time>
      </trkpt>
      <trkpt lat="44.96505" lon="1.84698">
        <ele>157.6</ele>
        <time>2022-08-06T10:03:29Z</time>
      </trkpt>
      <trkpt lat="44.96494" lon="1.847">
        <ele>157.9</ele>
        <time>2022-08-06T10:03:31Z</time>
      </trkpt>
      <trkpt lat="44.96484" lon="1.84701">
        <ele>158.3</ele>
        <time>2022-08-06T10:03:33Z</time>
      </trkpt>
      <trkpt lat="44.96473" lon="1.84702">
        <ele>158.5</ele>
        <time>2022-08-06T10:03:35Z</time>
      </trkpt>
      <trkpt lat="44.96463" lon="1.84704">
        <ele>158.8</ele>
        <time>2022-08-06T10:03:37Z</time>
      </trkpt>
      <trkpt lat="44.96453" lon="1.84706">
        <ele>158.7</ele>
        <time>2022-08-06T10:03:39Z</time>
      </trkpt>
      <trkpt lat="44.96442" lon="1.84709">
        <ele>158.6</ele>
        <time>2022-08-06T10:03:41Z</time>
      </trkpt>
      <trkpt lat="44.96432" lon="1.84712">
        <ele>158.4</ele>
        <time>2022-08-06T10:03:43Z</time>
      </trkpt>
      <trkpt lat="44.96421" lon="1.84716">
        <ele>158.1</ele>
        <time>2022-08-06T10:03:45Z</time>
      </trkpt>
      <trkpt lat="44.96411" lon="1.8472">
        <ele>157.9</ele>
        <time>2022-08-06T10:03:47Z</time>
      </trkpt>
      <trkpt lat="44.964" lon="1.84725">
        <ele>157.9</ele>
        <time>2022-08-06T10:03:49Z</time>
      </trkpt>
      <trkpt lat="44.96389" lon="1.84728">
        <ele>158.2</ele>
        <time>2022-08-06T10:03:51Z</time>
      </trkpt>
      <trkpt lat="44.96378" lon="1.84732">
        <ele>158.3</ele>
        <time>2022-08-06T10:03:53Z</time>
      </trkpt>
      <trkpt lat="44.96368" lon="1.84735">
        <ele>158.4</ele>
        <time>2022-08-06T10:03:55Z</time>
      </trkpt>
      <trkpt lat="44.96358" lon="1.84736">
        <ele>159</ele>
        <time>2022-08-06T10:03:57Z</time>
      </trkpt>
      <trkpt lat="44.96348" lon="1.84738">
        <ele>159.2</ele>
        <time>2022-08-06T10:03:59Z</time>
      </trkpt>
      <trkpt lat="44.96338" lon="1.84741">
        <ele>159.4</ele>
        <time>2022-08-06T10:04:01Z</time>
      </trkpt>
      <trkpt lat="44.96328" lon="1.84742">
        <ele>159.1</ele>
        <time>2022-08-06T10:04:03Z</time>
      </trkpt>
      <trkpt lat="44.96318" lon="1.84744">
        <ele>158.4</ele>
        <time>2022-08-06T10:04:05Z</time>
      </trkpt>
      <trkpt lat="44.96309" lon="1.84745">
        <ele>157.9</ele>
        <time>2022-08-06T10:04:07Z</time>
      </trkpt>
      <trkpt lat="44.96299" lon="1.84747">
        <ele>156.8</ele>
        <time>2022-08-06T10:04:09Z</time>
      </trkpt>
      <trkpt lat="44.96288" lon="1.84749">
        <ele>156.1</ele>
        <time>2022-08-06T10:04:11Z</time>
      </trkpt>
      <trkpt lat="44.96278" lon="1.84749">
        <ele>155.6</ele>
        <time>2022-08-06T10:04:13Z</time>
      </trkpt>
      <trkpt lat="44.96269" lon="1.8475">
        <ele>155.3</ele>
        <time>2022-08-06T10:04:15Z</time>
      </trkpt>
      <trkpt lat="44.96259" lon="1.84751">
        <ele>155</ele>
        <time>2022-08-06T10:04:17Z</time>
      </trkpt>
      <trkpt lat="44.96249" lon="1.84752">
        <ele>154.8</ele>
        <time>2022-08-06T10:04:19Z</time>
      </trkpt>
      <trkpt lat="44.96239" lon="1.84751">
        <ele>155.5</ele>
        <time>2022-08-06T10:04:21Z</time>
      </trkpt>
      <trkpt lat="44.96229" lon="1.84752">
        <ele>156</ele>
        <time>2022-08-06T10:04:23Z</time>
      </trkpt>
      <trkpt lat="44.96219" lon="1.84753">
        <ele>156.4</ele>
        <time>2022-08-06T10:04:25Z</time>
      </trkpt>
      <trkpt lat="44.96209" lon="1.84753">
        <ele>156.9</ele>
        <time>2022-08-06T10:04:27Z</time>
      </trkpt>
      <trkpt lat="44.96199" lon="1.84754">
        <ele>157.3</ele>
        <time>2022-08-06T10:04:29Z</time>
      </trkpt>
      <trkpt lat="44.96189" lon="1.84757">
        <ele>157.5</ele>
        <time>2022-08-06T10:04:31Z</time>
      </trkpt>
      <trkpt lat="44.96179" lon="1.8476">
        <ele>157.4</ele>
        <time>2022-08-06T10:04:33Z</time>
      </trkpt>
      <trkpt lat="44.9617" lon="1.84764">
        <ele>157.2</ele>
        <time>2022-08-06T10:04:35Z</time>
      </trkpt>
      <trkpt lat="44.9616" lon="1.84769">
        <ele>157.6</ele>
        <time>2022-08-06T10:04:37Z</time>
      </trkpt>
      <trkpt lat="44.9615" lon="1.84774">
        <ele>158.5</ele>
        <time>2022-08-06T10:04:39Z</time>
      </trkpt>
      <trkpt lat="44.9614" lon="1.8478">
        <ele>158.9</ele>
        <time>2022-08-06T10:04:41Z</time>
      </trkpt>
      <trkpt lat="44.9613" lon="1.84785">
        <ele>159.4</ele>
        <time>2022-08-06T10:04:43Z</time>
      </trkpt>
      <trkpt lat="44.9612" lon="1.84792">
        <ele>159.4</ele>
        <time>2022-08-06T10:04:45Z</time>
      </trkpt>
      <trkpt lat="44.96109" lon="1.84798">
        <ele>159.2</ele>
        <time>2022-08-06T10:04:47Z</time>
      </trkpt>
      <trkpt lat="44.96099" lon="1.84803">
        <ele>159.1</ele>
        <time>2022-08-06T10:04:49Z</time>
      </trkpt>
      <trkpt lat="44.96088" lon="1.84808">
        <ele>158.8</ele>
        <time>2022-08-06T10:04:51Z</time>
      </trkpt>
      <trkpt lat="44.96079" lon="1.84814">
        <ele>158.1</ele>
        <time>2022-08-06T10:04:53Z</time>
      </trkpt>
      <trkpt lat="44.96068" lon="1.84819">
        <ele>158</ele>
        <time>2022-08-06T10:04:55Z</time>
      </trkpt>
      <trkpt lat="44.96058" lon="1.84825">
        <ele>157.4</ele>
        <time>2022-08-06T10:04:57Z</time>
      </trkpt>
      <trkpt lat="44.96049" lon="1.84832">
        <ele>156.9</ele>
        <time>2022-08-06T10:04:59Z</time>
      </trkpt>
      <trkpt lat="44.96039" lon="1.84837">
        <ele>157.1</ele>
        <time>2022-08-06T10:05:01Z</time>
      </trkpt>
      <trkpt lat="44.96029" lon="1.84843">
        <ele>157</ele>
        <time>2022-08-06T10:05:03Z</time>
      </trkpt>
      <trkpt lat="44.9602" lon="1.84851">
        <ele>156.3</ele>
        <time>2022-08-06T10:05:05Z</time>
      </trkpt>
      <trkpt lat="44.9601" lon="1.84857">
        <ele>156</ele>
        <time>2022-08-06T10:05:07Z</time>
      </trkpt>
      <trkpt lat="44.95999" lon="1.8486">
        <ele>156.5</ele>
        <time>2022-08-06T10:05:09Z</time>
      </trkpt>
      <trkpt lat="44.95989" lon="1.84867">
        <ele>155.6</ele>
        <time>2022-08-06T10:05:11Z</time>
      </trkpt>
      <trkpt lat="44.95979" lon="1.84873">
        <ele>155.2</ele>
        <time>2022-08-06T10:05:13Z</time>
      </trkpt>
      <trkpt lat="44.95968" lon="1.84878">
        <ele>154.5</ele>
        <time>2022-08-06T10:05:15Z</time>
      </trkpt>
      <trkpt lat="44.95959" lon="1.84887">
        <ele>153.2</ele>
        <time>2022-08-06T10:05:17Z</time>
      </trkpt>
      <trkpt lat="44.95948" lon="1.84893">
        <ele>152.4</ele>
        <time>2022-08-06T10:05:19Z</time>
      </trkpt>
      <trkpt lat="44.95938" lon="1.84897">
        <ele>152.3</ele>
        <time>2022-08-06T10:05:21Z</time>
      </trkpt>
      <trkpt lat="44.95928" lon="1.84905">
        <ele>150.7</ele>
        <time>2022-08-06T10:05:23Z</time>
      </trkpt>
      <trkpt lat="44.95918" lon="1.8491">
        <ele>150.1</ele>
        <time>2022-08-06T10:05:25Z</time>
      </trkpt>
      <trkpt lat="44.95908" lon="1.84916">
        <ele>149.8</ele>
        <time>2022-08-06T10:05:27Z</time>
      </trkpt>
      <trkpt lat="44.95899" lon="1.84922">
        <ele>150.8</ele>
        <time>2022-08-06T10:05:29Z</time>
      </trkpt>
      <trkpt lat="44.9589" lon="1.84933">
        <ele>151</ele>
        <time>2022-08-06T10:05:31Z</time>
      </trkpt>
      <trkpt lat="44.95879" lon="1.84942">
        <ele>151.4</ele>
        <time>2022-08-06T10:05:33Z</time>
      </trkpt>
      <trkpt lat="44.95869" lon="1.8495">
        <ele>151.7</ele>
        <time>2022-08-06T10:05:35Z</time>
      </trkpt>
      <trkpt lat="44.9586" lon="1.84954">
        <ele>152.4</ele>
        <time>2022-08-06T10:05:37Z</time>
      </trkpt>
      <trkpt lat="44.95849" lon="1.84963">
        <ele>152.4</ele>
        <time>2022-08-06T10:05:39Z</time>
      </trkpt>
      <trkpt lat="44.95839" lon="1.84967">
        <ele>153.3</ele>
        <time>2022-08-06T10:05:41Z</time>
      </trkpt>
      <trkpt lat="44.95829" lon="1.84969">
        <ele>153.5</ele>
        <time>2022-08-06T10:05:43Z</time>
      </trkpt>
      <trkpt lat="44.95817" lon="1.84974">
        <ele>152.2</ele>
        <time>2022-08-06T10:05:45Z</time>
      </trkpt>
      <trkpt lat="44.95807" lon="1.84975">
        <ele>151.6</ele>
        <time>2022-08-06T10:05:47Z</time>
      </trkpt>
      <trkpt lat="44.95797" lon="1.84976">
        <ele>151.2</ele>
        <time>2022-08-06T10:05:49Z</time>
      </trkpt>
      <trkpt lat="44.95786" lon="1.84975">
        <ele>151.2</ele>
        <time>2022-08-06T10:05:51Z</time>
      </trkpt>
      <trkpt lat="44.95776" lon="1.84973">
        <ele>151.1</ele>
        <time>2022-08-06T10:05:53Z</time>
      </trkpt>
      <trkpt lat="44.95766" lon="1.84972">
        <ele>151.2</ele>
        <time>2022-08-06T10:05:55Z</time>
      </trkpt>
      <trkpt lat="44.95757" lon="1.84969">
        <ele>151.6</ele>
        <time>2022-08-06T10:05:57Z</time>
      </trkpt>
      <trkpt lat="44.95748" lon="1.84966">
        <ele>151.8</ele>
        <time>2022-08-06T10:05:59Z</time>
      </trkpt>
      <trkpt lat="44.95738" lon="1.84965">
        <ele>151.8</ele>
        <time>2022-08-06T10:06:01Z</time>
      </trkpt>
      <trkpt lat="44.95729" lon="1.84962">
        <ele>151.9</ele>
        <time>2022-08-06T10:06:03Z</time>
      </trkpt>
      <trkpt lat="44.9572" lon="1.84959">
        <ele>152.2</ele>
        <time>2022-08-06T10:06:05Z</time>
      </trkpt>
      <trkpt lat="44.9571" lon="1.84957">
        <ele>152.3</ele>
        <time>2022-08-06T10:06:07Z</time>
      </trkpt>
      <trkpt lat="44.95701" lon="1.84955">
        <ele>152.4</ele>
        <time>2022-08-06T10:06:09Z</time>
      </trkpt>
      <trkpt lat="44.95692" lon="1.84953">
        <ele>152.5</ele>
        <time>2022-08-06T10:06:11Z</time>
      </trkpt>
      <trkpt lat="44.95683" lon="1.84951">
        <ele>152.4</ele>
        <time>2022-08-06T10:06:13Z</time>
      </trkpt>
      <trkpt lat="44.95674" lon="1.84949">
        <ele>152.4</ele>
        <time>2022-08-06T10:06:15Z</time>
      </trkpt>
      <trkpt lat="44.95665" lon="1.84947">
        <ele>152.6</ele>
        <time>2022-08-06T10:06:17Z</time>
      </trkpt>
      <trkpt lat="44.95656" lon="1.84945">
        <ele>153.2</ele>
        <time>2022-08-06T10:06:19Z</time>
      </trkpt>
      <trkpt lat="44.95647" lon="1.84944">
        <ele>153.9</ele>
        <time>2022-08-06T10:06:21Z</time>
      </trkpt>
      <trkpt lat="44.95638" lon="1.84943">
        <ele>154.4</ele>
        <time>2022-08-06T10:06:23Z</time>
      </trkpt>
      <trkpt lat="44.95628" lon="1.84943">
        <ele>154.7</ele>
        <time>2022-08-06T10:06:25Z</time>
      </trkpt>
      <trkpt lat="44.95619" lon="1.84943">
        <ele>154.9</ele>
        <time>2022-08-06T10:06:27Z</time>
      </trkpt>
      <trkpt lat="44.9561" lon="1.84945">
        <ele>155</ele>
        <time>2022-08-06T10:06:29Z</time>
      </trkpt>
      <trkpt lat="44.95601" lon="1.84948">
        <ele>154.7</ele>
        <time>2022-08-06T10:06:31Z</time>
      </trkpt>
      <trkpt lat="44.95592" lon="1.84951">
        <ele>154.3</ele>
        <time>2022-08-06T10:06:33Z</time>
      </trkpt>
      <trkpt lat="44.95582" lon="1.84954">
        <ele>153.9</ele>
        <time>2022-08-06T10:06:35Z</time>
      </trkpt>
      <trkpt lat="44.95573" lon="1.84958">
        <ele>153.1</ele>
        <time>2022-08-06T10:06:37Z</time>
      </trkpt>
      <trkpt lat="44.95563" lon="1.84961">
        <ele>152.5</ele>
        <time>2022-08-06T10:06:39Z</time>
      </trkpt>
      <trkpt lat="44.95553" lon="1.84965">
        <ele>151.6</ele>
        <time>2022-08-06T10:06:41Z</time>
      </trkpt>
      <trkpt lat="44.95543" lon="1.84969">
        <ele>150.9</ele>
        <time>2022-08-06T10:06:43Z</time>
      </trkpt>
      <trkpt lat="44.95533" lon="1.84972">
        <ele>150.2</ele>
        <time>2022-08-06T10:06:45Z</time>
      </trkpt>
      <trkpt lat="44.95523" lon="1.84976">
        <ele>149.5</ele>
        <time>2022-08-06T10:06:47Z</time>
      </trkpt>
      <trkpt lat="44.95514" lon="1.84978">
        <ele>149</ele>
        <time>2022-08-06T10:06:49Z</time>
      </trkpt>
      <trkpt lat="44.95507" lon="1.84981">
        <ele>148.3</ele>
        <time>2022-08-06T10:06:51Z</time>
      </trkpt>
      <trkpt lat="44.95499" lon="1.84987">
        <ele>147</ele>
        <time>2022-08-06T10:06:53Z</time>
      </trkpt>
      <trkpt lat="44.95491" lon="1.84991">
        <ele>145.9</ele>
        <time>2022-08-06T10:06:55Z</time>
      </trkpt>
      <trkpt lat="44.95482" lon="1.84996">
        <ele>144.7</ele>
        <time>2022-08-06T10:06:57Z</time>
      </trkpt>
      <trkpt lat="44.95473" lon="1.85">
        <ele>143.8</ele>
        <time>2022-08-06T10:06:59Z</time>
      </trkpt>
      <trkpt lat="44.95464" lon="1.85003">
        <ele>143.5</ele>
        <time>2022-08-06T10:07:01Z</time>
      </trkpt>
      <trkpt lat="44.95456" lon="1.85007">
        <ele>143.4</ele>
        <time>2022-08-06T10:07:03Z</time>
      </trkpt>
      <trkpt lat="44.95447" lon="1.8501">
        <ele>143.4</ele>
        <time>2022-08-06T10:07:05Z</time>
      </trkpt>
      <trkpt lat="44.95438" lon="1.85013">
        <ele>143.3</ele>
        <time>2022-08-06T10:07:07Z</time>
      </trkpt>
      <trkpt lat="44.9543" lon="1.85016">
        <ele>143.3</ele>
        <time>2022-08-06T10:07:09Z</time>
      </trkpt>
      <trkpt lat="44.95421" lon="1.8502">
        <ele>143.3</ele>
        <time>2022-08-06T10:07:11Z</time>
      </trkpt>
      <trkpt lat="44.95414" lon="1.85023">
        <ele>143.2</ele>
        <time>2022-08-06T10:07:13Z</time>
      </trkpt>
      <trkpt lat="44.95408" lon="1.85025">
        <ele>143.1</ele>
        <time>2022-08-06T10:07:15Z</time>
      </trkpt>
      <trkpt lat="44.95404" lon="1.85027">
        <ele>143</ele>
        <time>2022-08-06T10:07:17Z</time>
      </trkpt>
      <trkpt lat="44.95399" lon="1.85028">
        <ele>142.9</ele>
        <time>2022-08-06T10:07:19Z</time>
      </trkpt>
      <trkpt lat="44.95395" lon="1.85029">
        <ele>142.8</ele>
        <time>2022-08-06T10:07:21Z</time>
      </trkpt>
      <trkpt lat="44.95394" lon="1.8503">
        <ele>142.8</ele>
        <time>2022-08-06T10:07:23Z</time>
      </trkpt>
      <trkpt lat="44.95393" lon="1.8503">
        <ele>142.8</ele>
        <time>2022-08-06T10:07:25Z</time>
      </trkpt>
      <trkpt lat="44.95393" lon="1.8503">
        <ele>142.8</ele>
        <time>2022-08-06T10:07:27Z</time>
      </trkpt>
      <trkpt lat="44.95393" lon="1.8503">
        <ele>142.8</ele>
        <time>2022-08-06T10:07:29Z</time>
      </trkpt>
      <trkpt lat="44.95393" lon="1.8503">
        <ele>142.8</ele>
        <time>2022-08-06T10:07:31Z</time>
      </trkpt>
      <trkpt lat="44.95393" lon="1.8503">
        <ele>142.8</ele>
        <time>2022-08-06T10:07:33Z</time>
      </trkpt>
      <trkpt lat="44.95393" lon="1.8503">
        <ele>142.8</ele>
        <time>2022-08-06T10:07:35Z</time>
      </trkpt>
      <trkpt lat="44.95393" lon="1.8503">
        <ele>142.8</ele>
        <time>2022-08-06T10:07:37Z</time>
      </trkpt>
      <trkpt lat="44.95393" lon="1.85029">
        <ele>142.8</ele>
        <time>2022-08-06T10:07:39Z</time>
      </trkpt>
      <trkpt lat="44.95393" lon="1.85029">
        <ele>142.8</ele>
        <time>2022-08-06T10:07:41Z</time>
      </trkpt>
      <trkpt lat="44.95392" lon="1.85029">
        <ele>142.8</ele>
        <time>2022-08-06T10:07:43Z</time>
      </trkpt>
      <trkpt lat="44.95392" lon="1.8503">
        <ele>142.8</ele>
        <time>2022-08-06T10:07:45Z</time>
      </trkpt>
      <trkpt lat="44.95392" lon="1.85032">
        <ele>142.8</ele>
        <time>2022-08-06T10:07:47Z</time>
      </trkpt>
      <trkpt lat="44.95392" lon="1.85032">
        <ele>142.8</ele>
        <time>2022-08-06T10:07:49Z</time>
      </trkpt>
      <trkpt lat="44.95392" lon="1.85033">
        <ele>142.8</ele>
        <time>2022-08-06T10:07:51Z</time>
      </trkpt>
      <trkpt lat="44.95393" lon="1.85033">
        <ele>142.8</ele>
        <time>2022-08-06T10:07:53Z</time>
      </trkpt>
      <trkpt lat="44.95393" lon="1.85032">
        <ele>142.8</ele>
        <time>2022-08-06T10:07:55Z</time>
      </trkpt>
      <trkpt lat="44.95392" lon="1.85032">
        <ele>142.8</ele>
        <time>2022-08-06T10:07:57Z</time>
      </trkpt>
      <trkpt lat="44.95393" lon="1.85032">
        <ele>142.8</ele>
        <time>2022-08-06T10:07:59Z</time>
      </trkpt>
      <trkpt lat="44.95394" lon="1.85032">
        <ele>142.8</ele>
        <time>2022-08-06T10:08:01Z</time>
      </trkpt>
      <trkpt lat="44.95396" lon="1.8503">
        <ele>142.9</ele>
        <time>2022-08-06T10:08:03Z</time>
      </trkpt>
      <trkpt lat="44.95398" lon="1.85029">
        <ele>142.9</ele>
        <time>2022-08-06T10:08:05Z</time>
      </trkpt>
      <trkpt lat="44.954" lon="1.85028">
        <ele>142.9</ele>
        <time>2022-08-06T10:08:07Z</time>
      </trkpt>
      <trkpt lat="44.95404" lon="1.85027">
        <ele>143</ele>
        <time>2022-08-06T10:08:09Z</time>
      </trkpt>
      <trkpt lat="44.95408" lon="1.85025">
        <ele>143.1</ele>
        <time>2022-08-06T10:08:11Z</time>
      </trkpt>
      <trkpt lat="44.95412" lon="1.85023">
        <ele>143.2</ele>
        <time>2022-08-06T10:08:13Z</time>
      </trkpt>
      <trkpt lat="44.95417" lon="1.8502">
        <ele>143.2</ele>
        <time>2022-08-06T10:08:15Z</time>
      </trkpt>
      <trkpt lat="44.95421" lon="1.85019">
        <ele>143.2</ele>
        <time>2022-08-06T10:08:17Z</time>
      </trkpt>
      <trkpt lat="44.95426" lon="1.85017">
        <ele>143.3</ele>
        <time>2022-08-06T10:08:19Z</time>
      </trkpt>
      <trkpt lat="44.95431" lon="1.85015">
        <ele>143.3</ele>
        <time>2022-08-06T10:08:21Z</time>
      </trkpt>
      <trkpt lat="44.95435" lon="1.85014">
        <ele>143.3</ele>
        <time>2022-08-06T10:08:23Z</time>
      </trkpt>
      <trkpt lat="44.9544" lon="1.85012">
        <ele>143.3</ele>
        <time>2022-08-06T10:08:25Z</time>
      </trkpt>
      <trkpt lat="44.95445" lon="1.85009">
        <ele>143.3</ele>
        <time>2022-08-06T10:08:27Z</time>
      </trkpt>
      <trkpt lat="44.9545" lon="1.85008">
        <ele>143.4</ele>
        <time>2022-08-06T10:08:29Z</time>
      </trkpt>
      <trkpt lat="44.95456" lon="1.85005">
        <ele>143.4</ele>
        <time>2022-08-06T10:08:31Z</time>
      </trkpt>
      <trkpt lat="44.95461" lon="1.85003">
        <ele>143.5</ele>
        <time>2022-08-06T10:08:33Z</time>
      </trkpt>
      <trkpt lat="44.95466" lon="1.85001">
        <ele>143.6</ele>
        <time>2022-08-06T10:08:35Z</time>
      </trkpt>
      <trkpt lat="44.95472" lon="1.84998">
        <ele>143.9</ele>
        <time>2022-08-06T10:08:37Z</time>
      </trkpt>
      <trkpt lat="44.95477" lon="1.84996">
        <ele>144.5</ele>
        <time>2022-08-06T10:08:39Z</time>
      </trkpt>
      <trkpt lat="44.95482" lon="1.84994">
        <ele>145.1</ele>
        <time>2022-08-06T10:08:41Z</time>
      </trkpt>
      <trkpt lat="44.95487" lon="1.84992">
        <ele>145.5</ele>
        <time>2022-08-06T10:08:43Z</time>
      </trkpt>
      <trkpt lat="44.95491" lon="1.8499">
        <ele>146.1</ele>
        <time>2022-08-06T10:08:45Z</time>
      </trkpt>
      <trkpt lat="44.95494" lon="1.84986">
        <ele>147.1</ele>
        <time>2022-08-06T10:08:47Z</time>
      </trkpt>
      <trkpt lat="44.95495" lon="1.84979">
        <ele>148.6</ele>
        <time>2022-08-06T10:08:49Z</time>
      </trkpt>
      <trkpt lat="44.9549" lon="1.84974">
        <ele>149.5</ele>
        <time>2022-08-06T10:08:51Z</time>
      </trkpt>
      <trkpt lat="44.95483" lon="1.84974">
        <ele>149.2</ele>
        <time>2022-08-06T10:08:53Z</time>
      </trkpt>
      <trkpt lat="44.95476" lon="1.84971">
        <ele>149.3</ele>
        <time>2022-08-06T10:08:55Z</time>
      </trkpt>
      <trkpt lat="44.95467" lon="1.84969">
        <ele>149.4</ele>
        <time>2022-08-06T10:08:57Z</time>
      </trkpt>
      <trkpt lat="44.95458" lon="1.84967">
        <ele>149.2</ele>
        <time>2022-08-06T10:08:59Z</time>
      </trkpt>
      <trkpt lat="44.95449" lon="1.84966">
        <ele>149</ele>
        <time>2022-08-06T10:09:01Z</time>
      </trkpt>
      <trkpt lat="44.95439" lon="1.84962">
        <ele>148.9</ele>
        <time>2022-08-06T10:09:03Z</time>
      </trkpt>
      <trkpt lat="44.95429" lon="1.8496">
        <ele>148.6</ele>
        <time>2022-08-06T10:09:05Z</time>
      </trkpt>
      <trkpt lat="44.95419" lon="1.84958">
        <ele>148.2</ele>
        <time>2022-08-06T10:09:07Z</time>
      </trkpt>
      <trkpt lat="44.95409" lon="1.84956">
        <ele>147.9</ele>
        <time>2022-08-06T10:09:09Z</time>
      </trkpt>
      <trkpt lat="44.95398" lon="1.84953">
        <ele>147.6</ele>
        <time>2022-08-06T10:09:11Z</time>
      </trkpt>
      <trkpt lat="44.95388" lon="1.8495">
        <ele>147.3</ele>
        <time>2022-08-06T10:09:13Z</time>
      </trkpt>
      <trkpt lat="44.95377" lon="1.84947">
        <ele>146.9</ele>
        <time>2022-08-06T10:09:15Z</time>
      </trkpt>
      <trkpt lat="44.95366" lon="1.84943">
        <ele>146.5</ele>
        <time>2022-08-06T10:09:17Z</time>
      </trkpt>
      <trkpt lat="44.95354" lon="1.8494">
        <ele>146</ele>
        <time>2022-08-06T10:09:19Z</time>
      </trkpt>
      <trkpt lat="44.95343" lon="1.84935">
        <ele>145.6</ele>
        <time>2022-08-06T10:09:21Z</time>
      </trkpt>
      <trkpt lat="44.95332" lon="1.84927">
        <ele>145.3</ele>
        <time>2022-08-06T10:09:23Z</time>
      </trkpt>
      <trkpt lat="44.95321" lon="1.84918">
        <ele>145.1</ele>
        <time>2022-08-06T10:09:25Z</time>
      </trkpt>
      <trkpt lat="44.9531" lon="1.8491">
        <ele>145.4</ele>
        <time>2022-08-06T10:09:27Z</time>
      </trkpt>
      <trkpt lat="44.95299" lon="1.84901">
        <ele>145.8</ele>
        <time>2022-08-06T10:09:29Z</time>
      </trkpt>
      <trkpt lat="44.95287" lon="1.84892">
        <ele>146.1</ele>
        <time>2022-08-06T10:09:31Z</time>
      </trkpt>
      <trkpt lat="44.95275" lon="1.84884">
        <ele>146.1</ele>
        <time>2022-08-06T10:09:33Z</time>
      </trkpt>
      <trkpt lat="44.95264" lon="1.84875">
        <ele>146</ele>
        <time>2022-08-06T10:09:35Z</time>
      </trkpt>
      <trkpt lat="44.95252" lon="1.84867">
        <ele>145.6</ele>
        <time>2022-08-06T10:09:37Z</time>
      </trkpt>
      <trkpt lat="44.9524" lon="1.84858">
        <ele>145.5</ele>
        <time>2022-08-06T10:09:39Z</time>
      </trkpt>
      <trkpt lat="44.95229" lon="1.84849">
        <ele>145.3</ele>
        <time>2022-08-06T10:09:41Z</time>
      </trkpt>
      <trkpt lat="44.95218" lon="1.84841">
        <ele>145</ele>
        <time>2022-08-06T10:09:43Z</time>
      </trkpt>
      <trkpt lat="44.95207" lon="1.84828">
        <ele>144.7</ele>
        <time>2022-08-06T10:09:45Z</time>
      </trkpt>
      <trkpt lat="44.95197" lon="1.84816">
        <ele>144.3</ele>
        <time>2022-08-06T10:09:47Z</time>
      </trkpt>
      <trkpt lat="44.95188" lon="1.84803">
        <ele>143.8</ele>
        <time>2022-08-06T10:09:49Z</time>
      </trkpt>
      <trkpt lat="44.95179" lon="1.84789">
        <ele>143.1</ele>
        <time>2022-08-06T10:09:51Z</time>
      </trkpt>
      <trkpt lat="44.95171" lon="1.84774">
        <ele>142.2</ele>
        <time>2022-08-06T10:09:53Z</time>
      </trkpt>
      <trkpt lat="44.95164" lon="1.84759">
        <ele>141.6</ele>
        <time>2022-08-06T10:09:55Z</time>
      </trkpt>
      <trkpt lat="44.95158" lon="1.84742">
        <ele>141.6</ele>
        <time>2022-08-06T10:09:57Z</time>
      </trkpt>
      <trkpt lat="44.95155" lon="1.84724">
        <ele>141.4</ele>
        <time>2022-08-06T10:09:59Z</time>
      </trkpt>
      <trkpt lat="44.95153" lon="1.84706">
        <ele>141.2</ele>
        <time>2022-08-06T10:10:01Z</time>
      </trkpt>
      <trkpt lat="44.95151" lon="1.84687">
        <ele>141.1</ele>
        <time>2022-08-06T10:10:03Z</time>
      </trkpt>
      <trkpt lat="44.95149" lon="1.84669">
        <ele>140.9</ele>
        <time>2022-08-06T10:10:05Z</time>
      </trkpt>
      <trkpt lat="44.95146" lon="1.8465">
        <ele>140.3</ele>
        <time>2022-08-06T10:10:07Z</time>
      </trkpt>
      <trkpt lat="44.95144" lon="1.84632">
        <ele>139.6</ele>
        <time>2022-08-06T10:10:09Z</time>
      </trkpt>
      <trkpt lat="44.95142" lon="1.84615">
        <ele>139</ele>
        <time>2022-08-06T10:10:11Z</time>
      </trkpt>
      <trkpt lat="44.95139" lon="1.84597">
        <ele>138.4</ele>
        <time>2022-08-06T10:10:13Z</time>
      </trkpt>
      <trkpt lat="44.95137" lon="1.84579">
        <ele>137.9</ele>
        <time>2022-08-06T10:10:15Z</time>
      </trkpt>
      <trkpt lat="44.95135" lon="1.84561">
        <ele>137.8</ele>
        <time>2022-08-06T10:10:17Z</time>
      </trkpt>
      <trkpt lat="44.95133" lon="1.84543">
        <ele>137.7</ele>
        <time>2022-08-06T10:10:19Z</time>
      </trkpt>
      <trkpt lat="44.95131" lon="1.84526">
        <ele>137.6</ele>
        <time>2022-08-06T10:10:21Z</time>
      </trkpt>
      <trkpt lat="44.95129" lon="1.84508">
        <ele>137.6</ele>
        <time>2022-08-06T10:10:23Z</time>
      </trkpt>
      <trkpt lat="44.95127" lon="1.84491">
        <ele>137.6</ele>
        <time>2022-08-06T10:10:25Z</time>
      </trkpt>
      <trkpt lat="44.95125" lon="1.84473">
        <ele>137.7</ele>
        <time>2022-08-06T10:10:27Z</time>
      </trkpt>
      <trkpt lat="44.95122" lon="1.84457">
        <ele>137.7</ele>
        <time>2022-08-06T10:10:29Z</time>
      </trkpt>
      <trkpt lat="44.95121" lon="1.84442">
        <ele>137.8</ele>
        <time>2022-08-06T10:10:31Z</time>
      </trkpt>
      <trkpt lat="44.9512" lon="1.84434">
        <ele>137.9</ele>
        <time>2022-08-06T10:10:32Z</time>
      </trkpt>
      <trkpt lat="44.95118" lon="1.84418">
        <ele>138</ele>
        <time>2022-08-06T10:10:34Z</time>
      </trkpt>
      <trkpt lat="44.95115" lon="1.84394">
        <ele>138.1</ele>
        <time>2022-08-06T10:10:37Z</time>
      </trkpt>
      <trkpt lat="44.95113" lon="1.84378">
        <ele>138.2</ele>
        <time>2022-08-06T10:10:39Z</time>
      </trkpt>
      <trkpt lat="44.95112" lon="1.84362">
        <ele>138.2</ele>
        <time>2022-08-06T10:10:41Z</time>
      </trkpt>
      <trkpt lat="44.95109" lon="1.84346">
        <ele>138.3</ele>
        <time>2022-08-06T10:10:43Z</time>
      </trkpt>
      <trkpt lat="44.95107" lon="1.84329">
        <ele>138.2</ele>
        <time>2022-08-06T10:10:45Z</time>
      </trkpt>
      <trkpt lat="44.95105" lon="1.84314">
        <ele>138</ele>
        <time>2022-08-06T10:10:47Z</time>
      </trkpt>
      <trkpt lat="44.95104" lon="1.84298">
        <ele>137.8</ele>
        <time>2022-08-06T10:10:49Z</time>
      </trkpt>
      <trkpt lat="44.95102" lon="1.84283">
        <ele>137.6</ele>
        <time>2022-08-06T10:10:51Z</time>
      </trkpt>
      <trkpt lat="44.951" lon="1.84269">
        <ele>137.4</ele>
        <time>2022-08-06T10:10:53Z</time>
      </trkpt>
      <trkpt lat="44.95098" lon="1.84254">
        <ele>137.2</ele>
        <time>2022-08-06T10:10:55Z</time>
      </trkpt>
      <trkpt lat="44.95096" lon="1.84239">
        <ele>137.1</ele>
        <time>2022-08-06T10:10:57Z</time>
      </trkpt>
      <trkpt lat="44.95095" lon="1.84223">
        <ele>137.1</ele>
        <time>2022-08-06T10:10:59Z</time>
      </trkpt>
      <trkpt lat="44.95093" lon="1.84207">
        <ele>137.1</ele>
        <time>2022-08-06T10:11:01Z</time>
      </trkpt>
      <trkpt lat="44.9509" lon="1.84192">
        <ele>137</ele>
        <time>2022-08-06T10:11:03Z</time>
      </trkpt>
      <trkpt lat="44.95088" lon="1.84176">
        <ele>137</ele>
        <time>2022-08-06T10:11:05Z</time>
      </trkpt>
      <trkpt lat="44.95086" lon="1.8416">
        <ele>137</ele>
        <time>2022-08-06T10:11:07Z</time>
      </trkpt>
      <trkpt lat="44.95084" lon="1.84144">
        <ele>137</ele>
        <time>2022-08-06T10:11:09Z</time>
      </trkpt>
      <trkpt lat="44.95082" lon="1.84129">
        <ele>137</ele>
        <time>2022-08-06T10:11:11Z</time>
      </trkpt>
      <trkpt lat="44.9508" lon="1.84113">
        <ele>137</ele>
        <time>2022-08-06T10:11:13Z</time>
      </trkpt>
      <trkpt lat="44.95078" lon="1.84097">
        <ele>137</ele>
        <time>2022-08-06T10:11:15Z</time>
      </trkpt>
      <trkpt lat="44.95076" lon="1.84082">
        <ele>137</ele>
        <time>2022-08-06T10:11:17Z</time>
      </trkpt>
      <trkpt lat="44.95075" lon="1.84065">
        <ele>136.8</ele>
        <time>2022-08-06T10:11:19Z</time>
      </trkpt>
      <trkpt lat="44.95073" lon="1.84049">
        <ele>136.6</ele>
        <time>2022-08-06T10:11:21Z</time>
      </trkpt>
      <trkpt lat="44.9507" lon="1.84034">
        <ele>136.5</ele>
        <time>2022-08-06T10:11:23Z</time>
      </trkpt>
      <trkpt lat="44.95068" lon="1.84018">
        <ele>136.4</ele>
        <time>2022-08-06T10:11:25Z</time>
      </trkpt>
      <trkpt lat="44.95066" lon="1.84002">
        <ele>136.2</ele>
        <time>2022-08-06T10:11:27Z</time>
      </trkpt>
      <trkpt lat="44.95064" lon="1.83986">
        <ele>136.2</ele>
        <time>2022-08-06T10:11:29Z</time>
      </trkpt>
      <trkpt lat="44.95062" lon="1.8397">
        <ele>136.3</ele>
        <time>2022-08-06T10:11:31Z</time>
      </trkpt>
      <trkpt lat="44.9506" lon="1.83954">
        <ele>136.3</ele>
        <time>2022-08-06T10:11:33Z</time>
      </trkpt>
      <trkpt lat="44.95058" lon="1.83938">
        <ele>136.3</ele>
        <time>2022-08-06T10:11:35Z</time>
      </trkpt>
      <trkpt lat="44.95056" lon="1.83922">
        <ele>136.3</ele>
        <time>2022-08-06T10:11:37Z</time>
      </trkpt>
      <trkpt lat="44.95054" lon="1.83906">
        <ele>136.2</ele>
        <time>2022-08-06T10:11:39Z</time>
      </trkpt>
      <trkpt lat="44.95052" lon="1.83891">
        <ele>136.1</ele>
        <time>2022-08-06T10:11:41Z</time>
      </trkpt>
      <trkpt lat="44.9505" lon="1.83876">
        <ele>135.9</ele>
        <time>2022-08-06T10:11:43Z</time>
      </trkpt>
      <trkpt lat="44.95048" lon="1.8386">
        <ele>135.7</ele>
        <time>2022-08-06T10:11:45Z</time>
      </trkpt>
      <trkpt lat="44.95046" lon="1.83845">
        <ele>135.6</ele>
        <time>2022-08-06T10:11:47Z</time>
      </trkpt>
      <trkpt lat="44.95045" lon="1.83829">
        <ele>135.5</ele>
        <time>2022-08-06T10:11:49Z</time>
      </trkpt>
      <trkpt lat="44.95043" lon="1.83813">
        <ele>135.6</ele>
        <time>2022-08-06T10:11:51Z</time>
      </trkpt>
      <trkpt lat="44.95041" lon="1.83799">
        <ele>135.7</ele>
        <time>2022-08-06T10:11:53Z</time>
      </trkpt>
      <trkpt lat="44.95039" lon="1.83783">
        <ele>135.8</ele>
        <time>2022-08-06T10:11:55Z</time>
      </trkpt>
      <trkpt lat="44.95037" lon="1.83768">
        <ele>135.9</ele>
        <time>2022-08-06T10:11:57Z</time>
      </trkpt>
      <trkpt lat="44.95035" lon="1.83753">
        <ele>136</ele>
        <time>2022-08-06T10:11:59Z</time>
      </trkpt>
      <trkpt lat="44.95034" lon="1.83738">
        <ele>135.9</ele>
        <time>2022-08-06T10:12:01Z</time>
      </trkpt>
      <trkpt lat="44.95032" lon="1.83723">
        <ele>135.9</ele>
        <time>2022-08-06T10:12:03Z</time>
      </trkpt>
      <trkpt lat="44.95029" lon="1.83709">
        <ele>135.8</ele>
        <time>2022-08-06T10:12:05Z</time>
      </trkpt>
      <trkpt lat="44.95027" lon="1.83694">
        <ele>135.8</ele>
        <time>2022-08-06T10:12:07Z</time>
      </trkpt>
      <trkpt lat="44.95026" lon="1.83681">
        <ele>135.7</ele>
        <time>2022-08-06T10:12:09Z</time>
      </trkpt>
      <trkpt lat="44.95024" lon="1.83667">
        <ele>135.7</ele>
        <time>2022-08-06T10:12:11Z</time>
      </trkpt>
      <trkpt lat="44.95022" lon="1.83653">
        <ele>136.4</ele>
        <time>2022-08-06T10:12:13Z</time>
      </trkpt>
      <trkpt lat="44.95021" lon="1.8364">
        <ele>137</ele>
        <time>2022-08-06T10:12:15Z</time>
      </trkpt>
      <trkpt lat="44.95019" lon="1.83627">
        <ele>137.5</ele>
        <time>2022-08-06T10:12:17Z</time>
      </trkpt>
      <trkpt lat="44.95018" lon="1.83614">
        <ele>138</ele>
        <time>2022-08-06T10:12:19Z</time>
      </trkpt>
      <trkpt lat="44.95016" lon="1.83602">
        <ele>138.4</ele>
        <time>2022-08-06T10:12:21Z</time>
      </trkpt>
      <trkpt lat="44.95015" lon="1.8359">
        <ele>138.8</ele>
        <time>2022-08-06T10:12:23Z</time>
      </trkpt>
      <trkpt lat="44.95013" lon="1.83577">
        <ele>140.2</ele>
        <time>2022-08-06T10:12:25Z</time>
      </trkpt>
      <trkpt lat="44.95011" lon="1.83565">
        <ele>142.5</ele>
        <time>2022-08-06T10:12:27Z</time>
      </trkpt>
      <trkpt lat="44.95009" lon="1.83553">
        <ele>144.8</ele>
        <time>2022-08-06T10:12:29Z</time>
      </trkpt>
      <trkpt lat="44.95005" lon="1.83541">
        <ele>146.8</ele>
        <time>2022-08-06T10:12:31Z</time>
      </trkpt>
      <trkpt lat="44.95" lon="1.8353">
        <ele>148.2</ele>
        <time>2022-08-06T10:12:33Z</time>
      </trkpt>
      <trkpt lat="44.94993" lon="1.83519">
        <ele>149.5</ele>
        <time>2022-08-06T10:12:35Z</time>
      </trkpt>
      <trkpt lat="44.94986" lon="1.8351">
        <ele>150.3</ele>
        <time>2022-08-06T10:12:37Z</time>
      </trkpt>
      <trkpt lat="44.94977" lon="1.83502">
        <ele>150.4</ele>
        <time>2022-08-06T10:12:39Z</time>
      </trkpt>
      <trkpt lat="44.94967" lon="1.83495">
        <ele>151</ele>
        <time>2022-08-06T10:12:41Z</time>
      </trkpt>
      <trkpt lat="44.94958" lon="1.83486">
        <ele>152.4</ele>
        <time>2022-08-06T10:12:43Z</time>
      </trkpt>
      <trkpt lat="44.94949" lon="1.83478">
        <ele>153.6</ele>
        <time>2022-08-06T10:12:45Z</time>
      </trkpt>
      <trkpt lat="44.9494" lon="1.8347">
        <ele>155</ele>
        <time>2022-08-06T10:12:47Z</time>
      </trkpt>
      <trkpt lat="44.9493" lon="1.83463">
        <ele>156.2</ele>
        <time>2022-08-06T10:12:49Z</time>
      </trkpt>
      <trkpt lat="44.9492" lon="1.83456">
        <ele>157.4</ele>
        <time>2022-08-06T10:12:51Z</time>
      </trkpt>
      <trkpt lat="44.94911" lon="1.83449">
        <ele>158.3</ele>
        <time>2022-08-06T10:12:53Z</time>
      </trkpt>
      <trkpt lat="44.94901" lon="1.83442">
        <ele>158.7</ele>
        <time>2022-08-06T10:12:55Z</time>
      </trkpt>
      <trkpt lat="44.9489" lon="1.83436">
        <ele>158.4</ele>
        <time>2022-08-06T10:12:57Z</time>
      </trkpt>
      <trkpt lat="44.9488" lon="1.8343">
        <ele>158.1</ele>
        <time>2022-08-06T10:12:59Z</time>
      </trkpt>
      <trkpt lat="44.9487" lon="1.83422">
        <ele>157.7</ele>
        <time>2022-08-06T10:13:01Z</time>
      </trkpt>
      <trkpt lat="44.94861" lon="1.83416">
        <ele>156.8</ele>
        <time>2022-08-06T10:13:03Z</time>
      </trkpt>
      <trkpt lat="44.9485" lon="1.83408">
        <ele>156.3</ele>
        <time>2022-08-06T10:13:05Z</time>
      </trkpt>
      <trkpt lat="44.9484" lon="1.83401">
        <ele>155.8</ele>
        <time>2022-08-06T10:13:07Z</time>
      </trkpt>
      <trkpt lat="44.9483" lon="1.83394">
        <ele>155.4</ele>
        <time>2022-08-06T10:13:09Z</time>
      </trkpt>
      <trkpt lat="44.9482" lon="1.83387">
        <ele>154.9</ele>
        <time>2022-08-06T10:13:11Z</time>
      </trkpt>
      <trkpt lat="44.9481" lon="1.83381">
        <ele>154.2</ele>
        <time>2022-08-06T10:13:13Z</time>
      </trkpt>
      <trkpt lat="44.94801" lon="1.83374">
        <ele>153.6</ele>
        <time>2022-08-06T10:13:15Z</time>
      </trkpt>
      <trkpt lat="44.94792" lon="1.83367">
        <ele>152.9</ele>
        <time>2022-08-06T10:13:17Z</time>
      </trkpt>
      <trkpt lat="44.94783" lon="1.83359">
        <ele>152</ele>
        <time>2022-08-06T10:13:19Z</time>
      </trkpt>
      <trkpt lat="44.94774" lon="1.83352">
        <ele>150.7</ele>
        <time>2022-08-06T10:13:21Z</time>
      </trkpt>
      <trkpt lat="44.94766" lon="1.83342">
        <ele>149.7</ele>
        <time>2022-08-06T10:13:23Z</time>
      </trkpt>
      <trkpt lat="44.94758" lon="1.83332">
        <ele>148.7</ele>
        <time>2022-08-06T10:13:25Z</time>
      </trkpt>
      <trkpt lat="44.9475" lon="1.83322">
        <ele>148.6</ele>
        <time>2022-08-06T10:13:27Z</time>
      </trkpt>
      <trkpt lat="44.94742" lon="1.83311">
        <ele>149.6</ele>
        <time>2022-08-06T10:13:29Z</time>
      </trkpt>
      <trkpt lat="44.94734" lon="1.83301">
        <ele>150.3</ele>
        <time>2022-08-06T10:13:31Z</time>
      </trkpt>
      <trkpt lat="44.94726" lon="1.8329">
        <ele>151</ele>
        <time>2022-08-06T10:13:33Z</time>
      </trkpt>
      <trkpt lat="44.94719" lon="1.83277">
        <ele>151.6</ele>
        <time>2022-08-06T10:13:35Z</time>
      </trkpt>
      <trkpt lat="44.94712" lon="1.83265">
        <ele>152.1</ele>
        <time>2022-08-06T10:13:37Z</time>
      </trkpt>
      <trkpt lat="44.94706" lon="1.83252">
        <ele>152.5</ele>
        <time>2022-08-06T10:13:39Z</time>
      </trkpt>
      <trkpt lat="44.94699" lon="1.83239">
        <ele>152.3</ele>
        <time>2022-08-06T10:13:41Z</time>
      </trkpt>
      <trkpt lat="44.94692" lon="1.83227">
        <ele>152.1</ele>
        <time>2022-08-06T10:13:43Z</time>
      </trkpt>
      <trkpt lat="44.94685" lon="1.83214">
        <ele>151.7</ele>
        <time>2022-08-06T10:13:45Z</time>
      </trkpt>
      <trkpt lat="44.94678" lon="1.83202">
        <ele>151.2</ele>
        <time>2022-08-06T10:13:47Z</time>
      </trkpt>
      <trkpt lat="44.94672" lon="1.8319">
        <ele>150.9</ele>
        <time>2022-08-06T10:13:49Z</time>
      </trkpt>
      <trkpt lat="44.94665" lon="1.83177">
        <ele>150.6</ele>
        <time>2022-08-06T10:13:51Z</time>
      </trkpt>
      <trkpt lat="44.94659" lon="1.83164">
        <ele>151</ele>
        <time>2022-08-06T10:13:53Z</time>
      </trkpt>
      <trkpt lat="44.94653" lon="1.83151">
        <ele>150.9</ele>
        <time>2022-08-06T10:13:55Z</time>
      </trkpt>
      <trkpt lat="44.94648" lon="1.83138">
        <ele>150.7</ele>
        <time>2022-08-06T10:13:57Z</time>
      </trkpt>
      <trkpt lat="44.94642" lon="1.83125">
        <ele>150.6</ele>
        <time>2022-08-06T10:13:59Z</time>
      </trkpt>
      <trkpt lat="44.94637" lon="1.83114">
        <ele>150.4</ele>
        <time>2022-08-06T10:14:01Z</time>
      </trkpt>
      <trkpt lat="44.94631" lon="1.83102">
        <ele>150.3</ele>
        <time>2022-08-06T10:14:03Z</time>
      </trkpt>
      <trkpt lat="44.94624" lon="1.83091">
        <ele>149.9</ele>
        <time>2022-08-06T10:14:05Z</time>
      </trkpt>
      <trkpt lat="44.94616" lon="1.83082">
        <ele>149.5</ele>
        <time>2022-08-06T10:14:07Z</time>
      </trkpt>
      <trkpt lat="44.94606" lon="1.83076">
        <ele>149.2</ele>
        <time>2022-08-06T10:14:09Z</time>
      </trkpt>
      <trkpt lat="44.94596" lon="1.8307">
        <ele>149.1</ele>
        <time>2022-08-06T10:14:11Z</time>
      </trkpt>
      <trkpt lat="44.94587" lon="1.83066">
        <ele>148.9</ele>
        <time>2022-08-06T10:14:13Z</time>
      </trkpt>
      <trkpt lat="44.94577" lon="1.83064">
        <ele>148.9</ele>
        <time>2022-08-06T10:14:15Z</time>
      </trkpt>
      <trkpt lat="44.94566" lon="1.83061">
        <ele>149.2</ele>
        <time>2022-08-06T10:14:17Z</time>
      </trkpt>
      <trkpt lat="44.94557" lon="1.83058">
        <ele>149.9</ele>
        <time>2022-08-06T10:14:19Z</time>
      </trkpt>
      <trkpt lat="44.94548" lon="1.83056">
        <ele>150.2</ele>
        <time>2022-08-06T10:14:21Z</time>
      </trkpt>
      <trkpt lat="44.94539" lon="1.83055">
        <ele>150.5</ele>
        <time>2022-08-06T10:14:23Z</time>
      </trkpt>
      <trkpt lat="44.94531" lon="1.83053">
        <ele>151</ele>
        <time>2022-08-06T10:14:25Z</time>
      </trkpt>
      <trkpt lat="44.94523" lon="1.83052">
        <ele>151.3</ele>
        <time>2022-08-06T10:14:27Z</time>
      </trkpt>
      <trkpt lat="44.94516" lon="1.8305">
        <ele>151.8</ele>
        <time>2022-08-06T10:14:29Z</time>
      </trkpt>
      <trkpt lat="44.9451" lon="1.8305">
        <ele>152.1</ele>
        <time>2022-08-06T10:14:31Z</time>
      </trkpt>
      <trkpt lat="44.94504" lon="1.83049">
        <ele>152.4</ele>
        <time>2022-08-06T10:14:33Z</time>
      </trkpt>
      <trkpt lat="44.94499" lon="1.83047">
        <ele>153</ele>
        <time>2022-08-06T10:14:35Z</time>
      </trkpt>
      <trkpt lat="44.94493" lon="1.83046">
        <ele>153.3</ele>
        <time>2022-08-06T10:14:37Z</time>
      </trkpt>
      <trkpt lat="44.94488" lon="1.83046">
        <ele>153.5</ele>
        <time>2022-08-06T10:14:39Z</time>
      </trkpt>
      <trkpt lat="44.94483" lon="1.83044">
        <ele>153.9</ele>
        <time>2022-08-06T10:14:41Z</time>
      </trkpt>
      <trkpt lat="44.94478" lon="1.83043">
        <ele>154.4</ele>
        <time>2022-08-06T10:14:43Z</time>
      </trkpt>
      <trkpt lat="44.94474" lon="1.83041">
        <ele>154.8</ele>
        <time>2022-08-06T10:14:45Z</time>
      </trkpt>
      <trkpt lat="44.94469" lon="1.8304">
        <ele>155.3</ele>
        <time>2022-08-06T10:14:47Z</time>
      </trkpt>
      <trkpt lat="44.94465" lon="1.83039">
        <ele>155.6</ele>
        <time>2022-08-06T10:14:49Z</time>
      </trkpt>
      <trkpt lat="44.9446" lon="1.83037">
        <ele>156</ele>
        <time>2022-08-06T10:14:51Z</time>
      </trkpt>
      <trkpt lat="44.94455" lon="1.83038">
        <ele>155.9</ele>
        <time>2022-08-06T10:14:53Z</time>
      </trkpt>
      <trkpt lat="44.94451" lon="1.83036">
        <ele>156.2</ele>
        <time>2022-08-06T10:14:55Z</time>
      </trkpt>
      <trkpt lat="44.94448" lon="1.83036">
        <ele>156.5</ele>
        <time>2022-08-06T10:14:57Z</time>
      </trkpt>
      <trkpt lat="44.94444" lon="1.83035">
        <ele>156.7</ele>
        <time>2022-08-06T10:14:59Z</time>
      </trkpt>
      <trkpt lat="44.9444" lon="1.83035">
        <ele>156.6</ele>
        <time>2022-08-06T10:15:01Z</time>
      </trkpt>
      <trkpt lat="44.94436" lon="1.83034">
        <ele>156.8</ele>
        <time>2022-08-06T10:15:03Z</time>
      </trkpt>
      <trkpt lat="44.94432" lon="1.83033">
        <ele>157</ele>
        <time>2022-08-06T10:15:05Z</time>
      </trkpt>
      <trkpt lat="44.94428" lon="1.83033">
        <ele>156.9</ele>
        <time>2022-08-06T10:15:07Z</time>
      </trkpt>
      <trkpt lat="44.94425" lon="1.83032">
        <ele>157.2</ele>
        <time>2022-08-06T10:15:09Z</time>
      </trkpt>
      <trkpt lat="44.94421" lon="1.83032">
        <ele>157.3</ele>
        <time>2022-08-06T10:15:11Z</time>
      </trkpt>
      <trkpt lat="44.94417" lon="1.83032">
        <ele>157.3</ele>
        <time>2022-08-06T10:15:13Z</time>
      </trkpt>
      <trkpt lat="44.94414" lon="1.8303">
        <ele>157.5</ele>
        <time>2022-08-06T10:15:15Z</time>
      </trkpt>
      <trkpt lat="44.9441" lon="1.83029">
        <ele>157.3</ele>
        <time>2022-08-06T10:15:17Z</time>
      </trkpt>
      <trkpt lat="44.94407" lon="1.83029">
        <ele>157.1</ele>
        <time>2022-08-06T10:15:19Z</time>
      </trkpt>
      <trkpt lat="44.94403" lon="1.83028">
        <ele>157</ele>
        <time>2022-08-06T10:15:21Z</time>
      </trkpt>
      <trkpt lat="44.94399" lon="1.83027">
        <ele>156.8</ele>
        <time>2022-08-06T10:15:23Z</time>
      </trkpt>
      <trkpt lat="44.94396" lon="1.83025">
        <ele>156.7</ele>
        <time>2022-08-06T10:15:25Z</time>
      </trkpt>
      <trkpt lat="44.94393" lon="1.83025">
        <ele>156.4</ele>
        <time>2022-08-06T10:15:27Z</time>
      </trkpt>
      <trkpt lat="44.94389" lon="1.83023">
        <ele>156.3</ele>
        <time>2022-08-06T10:15:29Z</time>
      </trkpt>
      <trkpt lat="44.94386" lon="1.83022">
        <ele>156.2</ele>
        <time>2022-08-06T10:15:31Z</time>
      </trkpt>
      <trkpt lat="44.94382" lon="1.83021">
        <ele>156</ele>
        <time>2022-08-06T10:15:33Z</time>
      </trkpt>
      <trkpt lat="44.94379" lon="1.83018">
        <ele>156</ele>
        <time>2022-08-06T10:15:35Z</time>
      </trkpt>
      <trkpt lat="44.94376" lon="1.83017">
        <ele>155.8</ele>
        <time>2022-08-06T10:15:37Z</time>
      </trkpt>
      <trkpt lat="44.94372" lon="1.83015">
        <ele>155.7</ele>
        <time>2022-08-06T10:15:39Z</time>
      </trkpt>
      <trkpt lat="44.94368" lon="1.83013">
        <ele>155.7</ele>
        <time>2022-08-06T10:15:41Z</time>
      </trkpt>
      <trkpt lat="44.94365" lon="1.83011">
        <ele>155.5</ele>
        <time>2022-08-06T10:15:43Z</time>
      </trkpt>
      <trkpt lat="44.94362" lon="1.83009">
        <ele>155.5</ele>
        <time>2022-08-06T10:15:45Z</time>
      </trkpt>
      <trkpt lat="44.94359" lon="1.83007">
        <ele>155.4</ele>
        <time>2022-08-06T10:15:47Z</time>
      </trkpt>
      <trkpt lat="44.94356" lon="1.83004">
        <ele>155.4</ele>
        <time>2022-08-06T10:15:49Z</time>
      </trkpt>
      <trkpt lat="44.94352" lon="1.83002">
        <ele>155.3</ele>
        <time>2022-08-06T10:15:51Z</time>
      </trkpt>
      <trkpt lat="44.94349" lon="1.83">
        <ele>155.2</ele>
        <time>2022-08-06T10:15:53Z</time>
      </trkpt>
      <trkpt lat="44.94347" lon="1.82997">
        <ele>155.3</ele>
        <time>2022-08-06T10:15:55Z</time>
      </trkpt>
      <trkpt lat="44.94344" lon="1.82994">
        <ele>155.4</ele>
        <time>2022-08-06T10:15:57Z</time>
      </trkpt>
      <trkpt lat="44.94341" lon="1.82991">
        <ele>155.6</ele>
        <time>2022-08-06T10:15:59Z</time>
      </trkpt>
      <trkpt lat="44.94338" lon="1.82988">
        <ele>155.8</ele>
        <time>2022-08-06T10:16:01Z</time>
      </trkpt>
      <trkpt lat="44.94335" lon="1.82985">
        <ele>155.9</ele>
        <time>2022-08-06T10:16:03Z</time>
      </trkpt>
      <trkpt lat="44.94332" lon="1.82983">
        <ele>156</ele>
        <time>2022-08-06T10:16:05Z</time>
      </trkpt>
      <trkpt lat="44.94328" lon="1.82981">
        <ele>156.5</ele>
        <time>2022-08-06T10:16:07Z</time>
      </trkpt>
      <trkpt lat="44.94325" lon="1.82978">
        <ele>156.8</ele>
        <time>2022-08-06T10:16:09Z</time>
      </trkpt>
      <trkpt lat="44.94322" lon="1.82976">
        <ele>157.2</ele>
        <time>2022-08-06T10:16:11Z</time>
      </trkpt>
      <trkpt lat="44.94318" lon="1.82973">
        <ele>157.6</ele>
        <time>2022-08-06T10:16:13Z</time>
      </trkpt>
      <trkpt lat="44.94315" lon="1.82971">
        <ele>158.1</ele>
        <time>2022-08-06T10:16:15Z</time>
      </trkpt>
      <trkpt lat="44.94311" lon="1.82968">
        <ele>158.5</ele>
        <time>2022-08-06T10:16:17Z</time>
      </trkpt>
      <trkpt lat="44.94307" lon="1.82966">
        <ele>158.5</ele>
        <time>2022-08-06T10:16:19Z</time>
      </trkpt>
      <trkpt lat="44.94302" lon="1.82964">
        <ele>158.9</ele>
        <time>2022-08-06T10:16:21Z</time>
      </trkpt>
      <trkpt lat="44.94297" lon="1.82962">
        <ele>158.8</ele>
        <time>2022-08-06T10:16:23Z</time>
      </trkpt>
      <trkpt lat="44.94292" lon="1.82961">
        <ele>158.8</ele>
        <time>2022-08-06T10:16:25Z</time>
      </trkpt>
      <trkpt lat="44.94286" lon="1.8296">
        <ele>158.5</ele>
        <time>2022-08-06T10:16:27Z</time>
      </trkpt>
      <trkpt lat="44.94278" lon="1.82961">
        <ele>157.9</ele>
        <time>2022-08-06T10:16:29Z</time>
      </trkpt>
      <trkpt lat="44.94269" lon="1.82961">
        <ele>157.3</ele>
        <time>2022-08-06T10:16:31Z</time>
      </trkpt>
      <trkpt lat="44.94259" lon="1.82962">
        <ele>156.2</ele>
        <time>2022-08-06T10:16:33Z</time>
      </trkpt>
      <trkpt lat="44.94248" lon="1.82963">
        <ele>155.1</ele>
        <time>2022-08-06T10:16:35Z</time>
      </trkpt>
      <trkpt lat="44.94235" lon="1.82964">
        <ele>153.7</ele>
        <time>2022-08-06T10:16:37Z</time>
      </trkpt>
      <trkpt lat="44.94222" lon="1.82965">
        <ele>152</ele>
        <time>2022-08-06T10:16:39Z</time>
      </trkpt>
      <trkpt lat="44.94208" lon="1.82965">
        <ele>150.6</ele>
        <time>2022-08-06T10:16:41Z</time>
      </trkpt>
      <trkpt lat="44.94194" lon="1.82963">
        <ele>149.4</ele>
        <time>2022-08-06T10:16:43Z</time>
      </trkpt>
      <trkpt lat="44.94179" lon="1.82959">
        <ele>148.3</ele>
        <time>2022-08-06T10:16:45Z</time>
      </trkpt>
      <trkpt lat="44.94165" lon="1.82953">
        <ele>147.3</ele>
        <time>2022-08-06T10:16:47Z</time>
      </trkpt>
      <trkpt lat="44.94152" lon="1.82946">
        <ele>146.3</ele>
        <time>2022-08-06T10:16:49Z</time>
      </trkpt>
      <trkpt lat="44.94141" lon="1.8294">
        <ele>145.4</ele>
        <time>2022-08-06T10:16:51Z</time>
      </trkpt>
      <trkpt lat="44.94131" lon="1.82934">
        <ele>144.6</ele>
        <time>2022-08-06T10:16:53Z</time>
      </trkpt>
      <trkpt lat="44.94123" lon="1.82927">
        <ele>143.9</ele>
        <time>2022-08-06T10:16:55Z</time>
      </trkpt>
      <trkpt lat="44.94117" lon="1.82918">
        <ele>143.4</ele>
        <time>2022-08-06T10:16:57Z</time>
      </trkpt>
      <trkpt lat="44.94112" lon="1.82911">
        <ele>143.4</ele>
        <time>2022-08-06T10:16:59Z</time>
      </trkpt>
      <trkpt lat="44.94107" lon="1.82902">
        <ele>143.7</ele>
        <time>2022-08-06T10:17:01Z</time>
      </trkpt>
      <trkpt lat="44.941" lon="1.82891">
        <ele>144.1</ele>
        <time>2022-08-06T10:17:03Z</time>
      </trkpt>
      <trkpt lat="44.94091" lon="1.8288">
        <ele>144.4</ele>
        <time>2022-08-06T10:17:05Z</time>
      </trkpt>
      <trkpt lat="44.9408" lon="1.82869">
        <ele>145.1</ele>
        <time>2022-08-06T10:17:07Z</time>
      </trkpt>
      <trkpt lat="44.94068" lon="1.82859">
        <ele>145.6</ele>
        <time>2022-08-06T10:17:09Z</time>
      </trkpt>
      <trkpt lat="44.94057" lon="1.82848">
        <ele>146</ele>
        <time>2022-08-06T10:17:11Z</time>
      </trkpt>
      <trkpt lat="44.94046" lon="1.82837">
        <ele>146.5</ele>
        <time>2022-08-06T10:17:13Z</time>
      </trkpt>
      <trkpt lat="44.94036" lon="1.82827">
        <ele>147.4</ele>
        <time>2022-08-06T10:17:15Z</time>
      </trkpt>
      <trkpt lat="44.94026" lon="1.82816">
        <ele>149.1</ele>
        <time>2022-08-06T10:17:17Z</time>
      </trkpt>
      <trkpt lat="44.94016" lon="1.82806">
        <ele>150.8</ele>
        <time>2022-08-06T10:17:19Z</time>
      </trkpt>
      <trkpt lat="44.94007" lon="1.82798">
        <ele>152.3</ele>
        <time>2022-08-06T10:17:21Z</time>
      </trkpt>
      <trkpt lat="44.93997" lon="1.82791">
        <ele>153.4</ele>
        <time>2022-08-06T10:17:23Z</time>
      </trkpt>
      <trkpt lat="44.93987" lon="1.82785">
        <ele>153.8</ele>
        <time>2022-08-06T10:17:25Z</time>
      </trkpt>
      <trkpt lat="44.93977" lon="1.82781">
        <ele>153.9</ele>
        <time>2022-08-06T10:17:27Z</time>
      </trkpt>
      <trkpt lat="44.93967" lon="1.82775">
        <ele>154.2</ele>
        <time>2022-08-06T10:17:29Z</time>
      </trkpt>
      <trkpt lat="44.93957" lon="1.8277">
        <ele>154.3</ele>
        <time>2022-08-06T10:17:31Z</time>
      </trkpt>
      <trkpt lat="44.93947" lon="1.82766">
        <ele>154.2</ele>
        <time>2022-08-06T10:17:33Z</time>
      </trkpt>
      <trkpt lat="44.93937" lon="1.82761">
        <ele>154.2</ele>
        <time>2022-08-06T10:17:35Z</time>
      </trkpt>
      <trkpt lat="44.93928" lon="1.82753">
        <ele>154.6</ele>
        <time>2022-08-06T10:17:37Z</time>
      </trkpt>
      <trkpt lat="44.93919" lon="1.82746">
        <ele>155.5</ele>
        <time>2022-08-06T10:17:39Z</time>
      </trkpt>
      <trkpt lat="44.9391" lon="1.82738">
        <ele>156.2</ele>
        <time>2022-08-06T10:17:41Z</time>
      </trkpt>
      <trkpt lat="44.93901" lon="1.82729">
        <ele>156.9</ele>
        <time>2022-08-06T10:17:43Z</time>
      </trkpt>
      <trkpt lat="44.93892" lon="1.8272">
        <ele>157.3</ele>
        <time>2022-08-06T10:17:45Z</time>
      </trkpt>
      <trkpt lat="44.93883" lon="1.82711">
        <ele>157.6</ele>
        <time>2022-08-06T10:17:47Z</time>
      </trkpt>
      <trkpt lat="44.93874" lon="1.82702">
        <ele>158.1</ele>
        <time>2022-08-06T10:17:49Z</time>
      </trkpt>
      <trkpt lat="44.93866" lon="1.82693">
        <ele>158.2</ele>
        <time>2022-08-06T10:17:51Z</time>
      </trkpt>
      <trkpt lat="44.93857" lon="1.82684">
        <ele>158.3</ele>
        <time>2022-08-06T10:17:53Z</time>
      </trkpt>
      <trkpt lat="44.93848" lon="1.82673">
        <ele>158.5</ele>
        <time>2022-08-06T10:17:55Z</time>
      </trkpt>
      <trkpt lat="44.93839" lon="1.82665">
        <ele>157.8</ele>
        <time>2022-08-06T10:17:57Z</time>
      </trkpt>
      <trkpt lat="44.9383" lon="1.82656">
        <ele>156.1</ele>
        <time>2022-08-06T10:17:59Z</time>
      </trkpt>
      <trkpt lat="44.93822" lon="1.82647">
        <ele>154.9</ele>
        <time>2022-08-06T10:18:01Z</time>
      </trkpt>
      <trkpt lat="44.93813" lon="1.82638">
        <ele>153.6</ele>
        <time>2022-08-06T10:18:03Z</time>
      </trkpt>
      <trkpt lat="44.93805" lon="1.8263">
        <ele>152.3</ele>
        <time>2022-08-06T10:18:05Z</time>
      </trkpt>
      <trkpt lat="44.93796" lon="1.8262">
        <ele>151.1</ele>
        <time>2022-08-06T10:18:07Z</time>
      </trkpt>
      <trkpt lat="44.93788" lon="1.82612">
        <ele>149.8</ele>
        <time>2022-08-06T10:18:09Z</time>
      </trkpt>
      <trkpt lat="44.93779" lon="1.82604">
        <ele>148.3</ele>
        <time>2022-08-06T10:18:11Z</time>
      </trkpt>
      <trkpt lat="44.93771" lon="1.82595">
        <ele>146.9</ele>
        <time>2022-08-06T10:18:13Z</time>
      </trkpt>
      <trkpt lat="44.93763" lon="1.82587">
        <ele>145.6</ele>
        <time>2022-08-06T10:18:15Z</time>
      </trkpt>
      <trkpt lat="44.93755" lon="1.8258">
        <ele>144.1</ele>
        <time>2022-08-06T10:18:17Z</time>
      </trkpt>
      <trkpt lat="44.93748" lon="1.82571">
        <ele>142.7</ele>
        <time>2022-08-06T10:18:19Z</time>
      </trkpt>
      <trkpt lat="44.9374" lon="1.82563">
        <ele>142.1</ele>
        <time>2022-08-06T10:18:21Z</time>
      </trkpt>
      <trkpt lat="44.93733" lon="1.82555">
        <ele>141.7</ele>
        <time>2022-08-06T10:18:23Z</time>
      </trkpt>
      <trkpt lat="44.93726" lon="1.82547">
        <ele>141.2</ele>
        <time>2022-08-06T10:18:25Z</time>
      </trkpt>
      <trkpt lat="44.93719" lon="1.82539">
        <ele>140.8</ele>
        <time>2022-08-06T10:18:27Z</time>
      </trkpt>
      <trkpt lat="44.93713" lon="1.82532">
        <ele>140.5</ele>
        <time>2022-08-06T10:18:29Z</time>
      </trkpt>
      <trkpt lat="44.93705" lon="1.82524">
        <ele>140.2</ele>
        <time>2022-08-06T10:18:31Z</time>
      </trkpt>
      <trkpt lat="44.93699" lon="1.82517">
        <ele>140</ele>
        <time>2022-08-06T10:18:33Z</time>
      </trkpt>
      <trkpt lat="44.93693" lon="1.82509">
        <ele>139.8</ele>
        <time>2022-08-06T10:18:35Z</time>
      </trkpt>
      <trkpt lat="44.93686" lon="1.82503">
        <ele>139.6</ele>
        <time>2022-08-06T10:18:37Z</time>
      </trkpt>
      <trkpt lat="44.93679" lon="1.82497">
        <ele>139.4</ele>
        <time>2022-08-06T10:18:39Z</time>
      </trkpt>
      <trkpt lat="44.93671" lon="1.82491">
        <ele>139.1</ele>
        <time>2022-08-06T10:18:41Z</time>
      </trkpt>
      <trkpt lat="44.93662" lon="1.82486">
        <ele>138.8</ele>
        <time>2022-08-06T10:18:43Z</time>
      </trkpt>
      <trkpt lat="44.93653" lon="1.82481">
        <ele>138.4</ele>
        <time>2022-08-06T10:18:45Z</time>
      </trkpt>
      <trkpt lat="44.93644" lon="1.82475">
        <ele>137.9</ele>
        <time>2022-08-06T10:18:47Z</time>
      </trkpt>
      <trkpt lat="44.93635" lon="1.82469">
        <ele>137.5</ele>
        <time>2022-08-06T10:18:49Z</time>
      </trkpt>
      <trkpt lat="44.93625" lon="1.82463">
        <ele>137</ele>
        <time>2022-08-06T10:18:51Z</time>
      </trkpt>
      <trkpt lat="44.93615" lon="1.82456">
        <ele>136.5</ele>
        <time>2022-08-06T10:18:53Z</time>
      </trkpt>
      <trkpt lat="44.93605" lon="1.8245">
        <ele>136</ele>
        <time>2022-08-06T10:18:55Z</time>
      </trkpt>
      <trkpt lat="44.93594" lon="1.82443">
        <ele>135.5</ele>
        <time>2022-08-06T10:18:57Z</time>
      </trkpt>
      <trkpt lat="44.93583" lon="1.82436">
        <ele>135</ele>
        <time>2022-08-06T10:18:59Z</time>
      </trkpt>
      <trkpt lat="44.93572" lon="1.82429">
        <ele>134.6</ele>
        <time>2022-08-06T10:19:01Z</time>
      </trkpt>
      <trkpt lat="44.93562" lon="1.82423">
        <ele>134.2</ele>
        <time>2022-08-06T10:19:03Z</time>
      </trkpt>
      <trkpt lat="44.93552" lon="1.82416">
        <ele>133.9</ele>
        <time>2022-08-06T10:19:05Z</time>
      </trkpt>
      <trkpt lat="44.93541" lon="1.82409">
        <ele>133.7</ele>
        <time>2022-08-06T10:19:07Z</time>
      </trkpt>
      <trkpt lat="44.9353" lon="1.82402">
        <ele>133.5</ele>
        <time>2022-08-06T10:19:09Z</time>
      </trkpt>
      <trkpt lat="44.9352" lon="1.82395">
        <ele>133.2</ele>
        <time>2022-08-06T10:19:11Z</time>
      </trkpt>
      <trkpt lat="44.9351" lon="1.82387">
        <ele>133.1</ele>
        <time>2022-08-06T10:19:13Z</time>
      </trkpt>
      <trkpt lat="44.935" lon="1.82379">
        <ele>132.9</ele>
        <time>2022-08-06T10:19:15Z</time>
      </trkpt>
      <trkpt lat="44.93491" lon="1.8237">
        <ele>133.1</ele>
        <time>2022-08-06T10:19:17Z</time>
      </trkpt>
      <trkpt lat="44.93482" lon="1.8236">
        <ele>133.2</ele>
        <time>2022-08-06T10:19:19Z</time>
      </trkpt>
      <trkpt lat="44.93473" lon="1.82349">
        <ele>133.4</ele>
        <time>2022-08-06T10:19:21Z</time>
      </trkpt>
      <trkpt lat="44.93463" lon="1.82339">
        <ele>133.5</ele>
        <time>2022-08-06T10:19:23Z</time>
      </trkpt>
      <trkpt lat="44.93454" lon="1.82328">
        <ele>133.7</ele>
        <time>2022-08-06T10:19:25Z</time>
      </trkpt>
      <trkpt lat="44.93445" lon="1.82318">
        <ele>134</ele>
        <time>2022-08-06T10:19:27Z</time>
      </trkpt>
      <trkpt lat="44.93436" lon="1.82307">
        <ele>134.1</ele>
        <time>2022-08-06T10:19:29Z</time>
      </trkpt>
      <trkpt lat="44.93427" lon="1.82297">
        <ele>134.2</ele>
        <time>2022-08-06T10:19:31Z</time>
      </trkpt>
      <trkpt lat="44.93418" lon="1.82287">
        <ele>134.1</ele>
        <time>2022-08-06T10:19:33Z</time>
      </trkpt>
      <trkpt lat="44.93409" lon="1.82277">
        <ele>134.2</ele>
        <time>2022-08-06T10:19:35Z</time>
      </trkpt>
      <trkpt lat="44.93402" lon="1.8227">
        <ele>134.1</ele>
        <time>2022-08-06T10:19:36Z</time>
      </trkpt>
      <trkpt lat="44.93391" lon="1.82257">
        <ele>134</ele>
        <time>2022-08-06T10:19:39Z</time>
      </trkpt>
      <trkpt lat="44.93381" lon="1.82247">
        <ele>133.9</ele>
        <time>2022-08-06T10:19:41Z</time>
      </trkpt>
      <trkpt lat="44.93372" lon="1.82237">
        <ele>134.2</ele>
        <time>2022-08-06T10:19:43Z</time>
      </trkpt>
      <trkpt lat="44.93363" lon="1.82227">
        <ele>134.2</ele>
        <time>2022-08-06T10:19:45Z</time>
      </trkpt>
      <trkpt lat="44.93353" lon="1.82217">
        <ele>134</ele>
        <time>2022-08-06T10:19:47Z</time>
      </trkpt>
      <trkpt lat="44.93345" lon="1.82207">
        <ele>133.5</ele>
        <time>2022-08-06T10:19:49Z</time>
      </trkpt>
      <trkpt lat="44.93336" lon="1.82198">
        <ele>132.9</ele>
        <time>2022-08-06T10:19:51Z</time>
      </trkpt>
      <trkpt lat="44.93327" lon="1.82189">
        <ele>132.6</ele>
        <time>2022-08-06T10:19:53Z</time>
      </trkpt>
      <trkpt lat="44.93319" lon="1.8218">
        <ele>132.5</ele>
        <time>2022-08-06T10:19:55Z</time>
      </trkpt>
      <trkpt lat="44.93311" lon="1.82171">
        <ele>132.4</ele>
        <time>2022-08-06T10:19:57Z</time>
      </trkpt>
      <trkpt lat="44.93303" lon="1.82161">
        <ele>132.7</ele>
        <time>2022-08-06T10:19:59Z</time>
      </trkpt>
      <trkpt lat="44.93295" lon="1.82152">
        <ele>133</ele>
        <time>2022-08-06T10:20:01Z</time>
      </trkpt>
      <trkpt lat="44.93287" lon="1.82143">
        <ele>133.2</ele>
        <time>2022-08-06T10:20:03Z</time>
      </trkpt>
      <trkpt lat="44.93279" lon="1.82133">
        <ele>133.2</ele>
        <time>2022-08-06T10:20:05Z</time>
      </trkpt>
      <trkpt lat="44.93271" lon="1.82124">
        <ele>133</ele>
        <time>2022-08-06T10:20:07Z</time>
      </trkpt>
      <trkpt lat="44.93264" lon="1.82114">
        <ele>132.8</ele>
        <time>2022-08-06T10:20:09Z</time>
      </trkpt>
      <trkpt lat="44.93257" lon="1.82103">
        <ele>132.4</ele>
        <time>2022-08-06T10:20:11Z</time>
      </trkpt>
      <trkpt lat="44.9325" lon="1.82092">
        <ele>131.9</ele>
        <time>2022-08-06T10:20:13Z</time>
      </trkpt>
      <trkpt lat="44.93244" lon="1.82081">
        <ele>132.1</ele>
        <time>2022-08-06T10:20:15Z</time>
      </trkpt>
      <trkpt lat="44.93237" lon="1.82069">
        <ele>132.8</ele>
        <time>2022-08-06T10:20:17Z</time>
      </trkpt>
      <trkpt lat="44.93231" lon="1.82058">
        <ele>133.4</ele>
        <time>2022-08-06T10:20:19Z</time>
      </trkpt>
      <trkpt lat="44.93226" lon="1.82046">
        <ele>133.9</ele>
        <time>2022-08-06T10:20:21Z</time>
      </trkpt>
      <trkpt lat="44.93221" lon="1.82033">
        <ele>134.5</ele>
        <time>2022-08-06T10:20:23Z</time>
      </trkpt>
      <trkpt lat="44.93216" lon="1.82021">
        <ele>134.9</ele>
        <time>2022-08-06T10:20:25Z</time>
      </trkpt>
      <trkpt lat="44.93211" lon="1.82009">
        <ele>135.2</ele>
        <time>2022-08-06T10:20:27Z</time>
      </trkpt>
      <trkpt lat="44.93207" lon="1.81997">
        <ele>135.5</ele>
        <time>2022-08-06T10:20:29Z</time>
      </trkpt>
      <trkpt lat="44.93202" lon="1.81985">
        <ele>135.5</ele>
        <time>2022-08-06T10:20:31Z</time>
      </trkpt>
      <trkpt lat="44.93198" lon="1.81973">
        <ele>135.4</ele>
        <time>2022-08-06T10:20:33Z</time>
      </trkpt>
      <trkpt lat="44.93194" lon="1.81962">
        <ele>135.3</ele>
        <time>2022-08-06T10:20:35Z</time>
      </trkpt>
      <trkpt lat="44.9319" lon="1.8195">
        <ele>135.1</ele>
        <time>2022-08-06T10:20:37Z</time>
      </trkpt>
      <trkpt lat="44.93187" lon="1.81938">
        <ele>135</ele>
        <time>2022-08-06T10:20:39Z</time>
      </trkpt>
      <trkpt lat="44.93185" lon="1.81926">
        <ele>134.9</ele>
        <time>2022-08-06T10:20:41Z</time>
      </trkpt>
      <trkpt lat="44.93183" lon="1.81913">
        <ele>134.8</ele>
        <time>2022-08-06T10:20:43Z</time>
      </trkpt>
      <trkpt lat="44.93182" lon="1.819">
        <ele>135</ele>
        <time>2022-08-06T10:20:45Z</time>
      </trkpt>
      <trkpt lat="44.93182" lon="1.81888">
        <ele>135.3</ele>
        <time>2022-08-06T10:20:47Z</time>
      </trkpt>
      <trkpt lat="44.93182" lon="1.81876">
        <ele>135.6</ele>
        <time>2022-08-06T10:20:49Z</time>
      </trkpt>
      <trkpt lat="44.93182" lon="1.81864">
        <ele>136</ele>
        <time>2022-08-06T10:20:51Z</time>
      </trkpt>
      <trkpt lat="44.93183" lon="1.81852">
        <ele>136.5</ele>
        <time>2022-08-06T10:20:53Z</time>
      </trkpt>
      <trkpt lat="44.93184" lon="1.81841">
        <ele>137</ele>
        <time>2022-08-06T10:20:55Z</time>
      </trkpt>
      <trkpt lat="44.93186" lon="1.81829">
        <ele>137.5</ele>
        <time>2022-08-06T10:20:57Z</time>
      </trkpt>
      <trkpt lat="44.93187" lon="1.81817">
        <ele>138</ele>
        <time>2022-08-06T10:20:59Z</time>
      </trkpt>
      <trkpt lat="44.93189" lon="1.81805">
        <ele>138.6</ele>
        <time>2022-08-06T10:21:01Z</time>
      </trkpt>
      <trkpt lat="44.9319" lon="1.81794">
        <ele>139</ele>
        <time>2022-08-06T10:21:03Z</time>
      </trkpt>
      <trkpt lat="44.93191" lon="1.81782">
        <ele>139.4</ele>
        <time>2022-08-06T10:21:05Z</time>
      </trkpt>
      <trkpt lat="44.93192" lon="1.8177">
        <ele>139.9</ele>
        <time>2022-08-06T10:21:07Z</time>
      </trkpt>
      <trkpt lat="44.93194" lon="1.81758">
        <ele>140.4</ele>
        <time>2022-08-06T10:21:09Z</time>
      </trkpt>
      <trkpt lat="44.93195" lon="1.81747">
        <ele>140.8</ele>
        <time>2022-08-06T10:21:11Z</time>
      </trkpt>
      <trkpt lat="44.93197" lon="1.81735">
        <ele>141</ele>
        <time>2022-08-06T10:21:13Z</time>
      </trkpt>
      <trkpt lat="44.93198" lon="1.81723">
        <ele>141.2</ele>
        <time>2022-08-06T10:21:15Z</time>
      </trkpt>
      <trkpt lat="44.93199" lon="1.81711">
        <ele>141.3</ele>
        <time>2022-08-06T10:21:17Z</time>
      </trkpt>
      <trkpt lat="44.932" lon="1.81699">
        <ele>141.4</ele>
        <time>2022-08-06T10:21:19Z</time>
      </trkpt>
      <trkpt lat="44.93201" lon="1.81687">
        <ele>141.4</ele>
        <time>2022-08-06T10:21:21Z</time>
      </trkpt>
      <trkpt lat="44.932" lon="1.81675">
        <ele>141.2</ele>
        <time>2022-08-06T10:21:23Z</time>
      </trkpt>
      <trkpt lat="44.93198" lon="1.81663">
        <ele>141.1</ele>
        <time>2022-08-06T10:21:25Z</time>
      </trkpt>
      <trkpt lat="44.93195" lon="1.81651">
        <ele>141.2</ele>
        <time>2022-08-06T10:21:27Z</time>
      </trkpt>
      <trkpt lat="44.93191" lon="1.8164">
        <ele>141.2</ele>
        <time>2022-08-06T10:21:29Z</time>
      </trkpt>
      <trkpt lat="44.93187" lon="1.81629">
        <ele>141.2</ele>
        <time>2022-08-06T10:21:31Z</time>
      </trkpt>
      <trkpt lat="44.93182" lon="1.81619">
        <ele>141.1</ele>
        <time>2022-08-06T10:21:33Z</time>
      </trkpt>
      <trkpt lat="44.93177" lon="1.81609">
        <ele>141</ele>
        <time>2022-08-06T10:21:35Z</time>
      </trkpt>
      <trkpt lat="44.93172" lon="1.81599">
        <ele>140.9</ele>
        <time>2022-08-06T10:21:37Z</time>
      </trkpt>
      <trkpt lat="44.93167" lon="1.8159">
        <ele>140.8</ele>
        <time>2022-08-06T10:21:39Z</time>
      </trkpt>
      <trkpt lat="44.93162" lon="1.8158">
        <ele>140.5</ele>
        <time>2022-08-06T10:21:41Z</time>
      </trkpt>
      <trkpt lat="44.93158" lon="1.8157">
        <ele>140.1</ele>
        <time>2022-08-06T10:21:43Z</time>
      </trkpt>
      <trkpt lat="44.93153" lon="1.8156">
        <ele>139.6</ele>
        <time>2022-08-06T10:21:45Z</time>
      </trkpt>
      <trkpt lat="44.93148" lon="1.8155">
        <ele>139.1</ele>
        <time>2022-08-06T10:21:47Z</time>
      </trkpt>
      <trkpt lat="44.93143" lon="1.8154">
        <ele>138.8</ele>
        <time>2022-08-06T10:21:49Z</time>
      </trkpt>
      <trkpt lat="44.93138" lon="1.81531">
        <ele>138.3</ele>
        <time>2022-08-06T10:21:51Z</time>
      </trkpt>
      <trkpt lat="44.93134" lon="1.81522">
        <ele>138</ele>
        <time>2022-08-06T10:21:53Z</time>
      </trkpt>
      <trkpt lat="44.93129" lon="1.81513">
        <ele>137.7</ele>
        <time>2022-08-06T10:21:55Z</time>
      </trkpt>
      <trkpt lat="44.93125" lon="1.81504">
        <ele>137.5</ele>
        <time>2022-08-06T10:21:57Z</time>
      </trkpt>
      <trkpt lat="44.93121" lon="1.81495">
        <ele>137.4</ele>
        <time>2022-08-06T10:21:59Z</time>
      </trkpt>
      <trkpt lat="44.93116" lon="1.81486">
        <ele>137.4</ele>
        <time>2022-08-06T10:22:01Z</time>
      </trkpt>
      <trkpt lat="44.93111" lon="1.81478">
        <ele>137.4</ele>
        <time>2022-08-06T10:22:03Z</time>
      </trkpt>
      <trkpt lat="44.93109" lon="1.81467">
        <ele>137.8</ele>
        <time>2022-08-06T10:22:05Z</time>
      </trkpt>
      <trkpt lat="44.93105" lon="1.81458">
        <ele>137.9</ele>
        <time>2022-08-06T10:22:07Z</time>
      </trkpt>
      <trkpt lat="44.93101" lon="1.81449">
        <ele>137.9</ele>
        <time>2022-08-06T10:22:09Z</time>
      </trkpt>
      <trkpt lat="44.93096" lon="1.81441">
        <ele>137.9</ele>
        <time>2022-08-06T10:22:11Z</time>
      </trkpt>
      <trkpt lat="44.93091" lon="1.81432">
        <ele>137.9</ele>
        <time>2022-08-06T10:22:13Z</time>
      </trkpt>
      <trkpt lat="44.93087" lon="1.81423">
        <ele>138</ele>
        <time>2022-08-06T10:22:15Z</time>
      </trkpt>
      <trkpt lat="44.93083" lon="1.81414">
        <ele>138.2</ele>
        <time>2022-08-06T10:22:17Z</time>
      </trkpt>
      <trkpt lat="44.93079" lon="1.81405">
        <ele>138.5</ele>
        <time>2022-08-06T10:22:19Z</time>
      </trkpt>
      <trkpt lat="44.93075" lon="1.81395">
        <ele>138.8</ele>
        <time>2022-08-06T10:22:21Z</time>
      </trkpt>
      <trkpt lat="44.93072" lon="1.81386">
        <ele>139.2</ele>
        <time>2022-08-06T10:22:23Z</time>
      </trkpt>
      <trkpt lat="44.93068" lon="1.81376">
        <ele>139.5</ele>
        <time>2022-08-06T10:22:25Z</time>
      </trkpt>
      <trkpt lat="44.93065" lon="1.81366">
        <ele>139.8</ele>
        <time>2022-08-06T10:22:27Z</time>
      </trkpt>
      <trkpt lat="44.93063" lon="1.81356">
        <ele>140.2</ele>
        <time>2022-08-06T10:22:29Z</time>
      </trkpt>
      <trkpt lat="44.9306" lon="1.81346">
        <ele>140.4</ele>
        <time>2022-08-06T10:22:31Z</time>
      </trkpt>
      <trkpt lat="44.93057" lon="1.81336">
        <ele>140.7</ele>
        <time>2022-08-06T10:22:33Z</time>
      </trkpt>
      <trkpt lat="44.93055" lon="1.81326">
        <ele>140.7</ele>
        <time>2022-08-06T10:22:35Z</time>
      </trkpt>
      <trkpt lat="44.93052" lon="1.81316">
        <ele>140.7</ele>
        <time>2022-08-06T10:22:37Z</time>
      </trkpt>
      <trkpt lat="44.9305" lon="1.81307">
        <ele>140.7</ele>
        <time>2022-08-06T10:22:39Z</time>
      </trkpt>
      <trkpt lat="44.93048" lon="1.81296">
        <ele>140.8</ele>
        <time>2022-08-06T10:22:41Z</time>
      </trkpt>
      <trkpt lat="44.93048" lon="1.81286">
        <ele>141</ele>
        <time>2022-08-06T10:22:43Z</time>
      </trkpt>
      <trkpt lat="44.93046" lon="1.81276">
        <ele>141.2</ele>
        <time>2022-08-06T10:22:45Z</time>
      </trkpt>
      <trkpt lat="44.93046" lon="1.81266">
        <ele>141.4</ele>
        <time>2022-08-06T10:22:47Z</time>
      </trkpt>
      <trkpt lat="44.93045" lon="1.81257">
        <ele>141.6</ele>
        <time>2022-08-06T10:22:49Z</time>
      </trkpt>
      <trkpt lat="44.93045" lon="1.81247">
        <ele>141.7</ele>
        <time>2022-08-06T10:22:51Z</time>
      </trkpt>
      <trkpt lat="44.93044" lon="1.81237">
        <ele>141.6</ele>
        <time>2022-08-06T10:22:53Z</time>
      </trkpt>
      <trkpt lat="44.93044" lon="1.81227">
        <ele>141.5</ele>
        <time>2022-08-06T10:22:55Z</time>
      </trkpt>
      <trkpt lat="44.93044" lon="1.81216">
        <ele>141.5</ele>
        <time>2022-08-06T10:22:57Z</time>
      </trkpt>
      <trkpt lat="44.93044" lon="1.81205">
        <ele>141.4</ele>
        <time>2022-08-06T10:22:59Z</time>
      </trkpt>
      <trkpt lat="44.93044" lon="1.81193">
        <ele>141.3</ele>
        <time>2022-08-06T10:23:01Z</time>
      </trkpt>
      <trkpt lat="44.93043" lon="1.81181">
        <ele>141.2</ele>
        <time>2022-08-06T10:23:03Z</time>
      </trkpt>
      <trkpt lat="44.93043" lon="1.81168">
        <ele>141.1</ele>
        <time>2022-08-06T10:23:05Z</time>
      </trkpt>
      <trkpt lat="44.93043" lon="1.81155">
        <ele>141.1</ele>
        <time>2022-08-06T10:23:07Z</time>
      </trkpt>
      <trkpt lat="44.93042" lon="1.81142">
        <ele>141.2</ele>
        <time>2022-08-06T10:23:09Z</time>
      </trkpt>
      <trkpt lat="44.93042" lon="1.81129">
        <ele>141.3</ele>
        <time>2022-08-06T10:23:11Z</time>
      </trkpt>
      <trkpt lat="44.93042" lon="1.81115">
        <ele>141.4</ele>
        <time>2022-08-06T10:23:13Z</time>
      </trkpt>
      <trkpt lat="44.93042" lon="1.81101">
        <ele>141.4</ele>
        <time>2022-08-06T10:23:15Z</time>
      </trkpt>
      <trkpt lat="44.93042" lon="1.81087">
        <ele>141.5</ele>
        <time>2022-08-06T10:23:17Z</time>
      </trkpt>
      <trkpt lat="44.93042" lon="1.81073">
        <ele>141.6</ele>
        <time>2022-08-06T10:23:19Z</time>
      </trkpt>
      <trkpt lat="44.93041" lon="1.81059">
        <ele>141.6</ele>
        <time>2022-08-06T10:23:21Z</time>
      </trkpt>
      <trkpt lat="44.93041" lon="1.81044">
        <ele>141.7</ele>
        <time>2022-08-06T10:23:23Z</time>
      </trkpt>
      <trkpt lat="44.93041" lon="1.81028">
        <ele>141.8</ele>
        <time>2022-08-06T10:23:25Z</time>
      </trkpt>
      <trkpt lat="44.93041" lon="1.81014">
        <ele>141.9</ele>
        <time>2022-08-06T10:23:27Z</time>
      </trkpt>
      <trkpt lat="44.93041" lon="1.81">
        <ele>142</ele>
        <time>2022-08-06T10:23:29Z</time>
      </trkpt>
      <trkpt lat="44.9304" lon="1.80986">
        <ele>141.8</ele>
        <time>2022-08-06T10:23:31Z</time>
      </trkpt>
      <trkpt lat="44.93039" lon="1.80971">
        <ele>141.6</ele>
        <time>2022-08-06T10:23:33Z</time>
      </trkpt>
      <trkpt lat="44.93038" lon="1.80957">
        <ele>141.4</ele>
        <time>2022-08-06T10:23:35Z</time>
      </trkpt>
      <trkpt lat="44.93034" lon="1.80944">
        <ele>141.1</ele>
        <time>2022-08-06T10:23:37Z</time>
      </trkpt>
      <trkpt lat="44.93029" lon="1.80932">
        <ele>140.8</ele>
        <time>2022-08-06T10:23:39Z</time>
      </trkpt>
      <trkpt lat="44.93021" lon="1.80921">
        <ele>140.5</ele>
        <time>2022-08-06T10:23:41Z</time>
      </trkpt>
      <trkpt lat="44.93014" lon="1.8091">
        <ele>140.4</ele>
        <time>2022-08-06T10:23:43Z</time>
      </trkpt>
      <trkpt lat="44.93006" lon="1.809">
        <ele>140.3</ele>
        <time>2022-08-06T10:23:45Z</time>
      </trkpt>
      <trkpt lat="44.92998" lon="1.8089">
        <ele>140.3</ele>
        <time>2022-08-06T10:23:47Z</time>
      </trkpt>
      <trkpt lat="44.9299" lon="1.80879">
        <ele>140.3</ele>
        <time>2022-08-06T10:23:49Z</time>
      </trkpt>
      <trkpt lat="44.92983" lon="1.8087">
        <ele>140.3</ele>
        <time>2022-08-06T10:23:51Z</time>
      </trkpt>
      <trkpt lat="44.92976" lon="1.8086">
        <ele>140.3</ele>
        <time>2022-08-06T10:23:53Z</time>
      </trkpt>
      <trkpt lat="44.92969" lon="1.80851">
        <ele>140.3</ele>
        <time>2022-08-06T10:23:55Z</time>
      </trkpt>
      <trkpt lat="44.92962" lon="1.80842">
        <ele>140.4</ele>
        <time>2022-08-06T10:23:57Z</time>
      </trkpt>
      <trkpt lat="44.92956" lon="1.80834">
        <ele>140.5</ele>
        <time>2022-08-06T10:23:59Z</time>
      </trkpt>
      <trkpt lat="44.9295" lon="1.80826">
        <ele>140.8</ele>
        <time>2022-08-06T10:24:01Z</time>
      </trkpt>
      <trkpt lat="44.92944" lon="1.80819">
        <ele>141.1</ele>
        <time>2022-08-06T10:24:03Z</time>
      </trkpt>
      <trkpt lat="44.92939" lon="1.80812">
        <ele>141.3</ele>
        <time>2022-08-06T10:24:05Z</time>
      </trkpt>
      <trkpt lat="44.92935" lon="1.80808">
        <ele>141.5</ele>
        <time>2022-08-06T10:24:07Z</time>
      </trkpt>
      <trkpt lat="44.92929" lon="1.8081">
        <ele>141.3</ele>
        <time>2022-08-06T10:24:09Z</time>
      </trkpt>
      <trkpt lat="44.92923" lon="1.80815">
        <ele>141</ele>
        <time>2022-08-06T10:24:11Z</time>
      </trkpt>
      <trkpt lat="44.92915" lon="1.80814">
        <ele>140.9</ele>
        <time>2022-08-06T10:24:13Z</time>
      </trkpt>
      <trkpt lat="44.92907" lon="1.80811">
        <ele>140.8</ele>
        <time>2022-08-06T10:24:15Z</time>
      </trkpt>
      <trkpt lat="44.92899" lon="1.80806">
        <ele>140.9</ele>
        <time>2022-08-06T10:24:17Z</time>
      </trkpt>
      <trkpt lat="44.92891" lon="1.80801">
        <ele>140.9</ele>
        <time>2022-08-06T10:24:19Z</time>
      </trkpt>
      <trkpt lat="44.92884" lon="1.80796">
        <ele>141</ele>
        <time>2022-08-06T10:24:21Z</time>
      </trkpt>
      <trkpt lat="44.92875" lon="1.80795">
        <ele>140.9</ele>
        <time>2022-08-06T10:24:23Z</time>
      </trkpt>
      <trkpt lat="44.92866" lon="1.80799">
        <ele>140.5</ele>
        <time>2022-08-06T10:24:25Z</time>
      </trkpt>
      <trkpt lat="44.9286" lon="1.80808">
        <ele>139.8</ele>
        <time>2022-08-06T10:24:27Z</time>
      </trkpt>
      <trkpt lat="44.92856" lon="1.8082">
        <ele>139.2</ele>
        <time>2022-08-06T10:24:29Z</time>
      </trkpt>
      <trkpt lat="44.92851" lon="1.8083">
        <ele>138.6</ele>
        <time>2022-08-06T10:24:31Z</time>
      </trkpt>
      <trkpt lat="44.92846" lon="1.80841">
        <ele>138.2</ele>
        <time>2022-08-06T10:24:33Z</time>
      </trkpt>
      <trkpt lat="44.92842" lon="1.80851">
        <ele>138</ele>
        <time>2022-08-06T10:24:35Z</time>
      </trkpt>
      <trkpt lat="44.92839" lon="1.80861">
        <ele>137.8</ele>
        <time>2022-08-06T10:24:37Z</time>
      </trkpt>
      <trkpt lat="44.92841" lon="1.80864">
        <ele>137.8</ele>
        <time>2022-08-06T10:24:39Z</time>
      </trkpt>
      <trkpt lat="44.92841" lon="1.80865">
        <ele>137.8</ele>
        <time>2022-08-06T10:24:41Z</time>
      </trkpt>
      <trkpt lat="44.9284" lon="1.80865">
        <ele>137.8</ele>
        <time>2022-08-06T10:24:43Z</time>
      </trkpt>
      <trkpt lat="44.9284" lon="1.80865">
        <ele>137.8</ele>
        <time>2022-08-06T10:24:45Z</time>
      </trkpt>
      <trkpt lat="44.92841" lon="1.80865">
        <ele>137.8</ele>
        <time>2022-08-06T10:24:47Z</time>
      </trkpt>
      <trkpt lat="44.92886" lon="1.808">
        <ele>140.9</ele>
        <time>2022-08-06T10:30:21Z</time>
      </trkpt>
      <trkpt lat="44.92892" lon="1.80803">
        <ele>140.8</ele>
        <time>2022-08-06T10:30:23Z</time>
      </trkpt>
      <trkpt lat="44.92897" lon="1.80806">
        <ele>140.8</ele>
        <time>2022-08-06T10:30:25Z</time>
      </trkpt>
      <trkpt lat="44.92903" lon="1.8081">
        <ele>140.8</ele>
        <time>2022-08-06T10:30:27Z</time>
      </trkpt>
      <trkpt lat="44.92908" lon="1.80812">
        <ele>140.8</ele>
        <time>2022-08-06T10:30:29Z</time>
      </trkpt>
      <trkpt lat="44.92914" lon="1.80815">
        <ele>140.8</ele>
        <time>2022-08-06T10:30:31Z</time>
      </trkpt>
      <trkpt lat="44.92919" lon="1.80816">
        <ele>140.9</ele>
        <time>2022-08-06T10:30:33Z</time>
      </trkpt>
      <trkpt lat="44.92924" lon="1.80816">
        <ele>141</ele>
        <time>2022-08-06T10:30:35Z</time>
      </trkpt>
      <trkpt lat="44.92929" lon="1.80814">
        <ele>141.1</ele>
        <time>2022-08-06T10:30:37Z</time>
      </trkpt>
      <trkpt lat="44.92932" lon="1.80811">
        <ele>141.3</ele>
        <time>2022-08-06T10:30:39Z</time>
      </trkpt>
      <trkpt lat="44.92934" lon="1.80807">
        <ele>141.5</ele>
        <time>2022-08-06T10:30:41Z</time>
      </trkpt>
      <trkpt lat="44.92933" lon="1.80799">
        <ele>141.9</ele>
        <time>2022-08-06T10:30:43Z</time>
      </trkpt>
      <trkpt lat="44.92928" lon="1.80794">
        <ele>142.1</ele>
        <time>2022-08-06T10:30:45Z</time>
      </trkpt>
      <trkpt lat="44.92924" lon="1.80789">
        <ele>142.3</ele>
        <time>2022-08-06T10:30:47Z</time>
      </trkpt>
      <trkpt lat="44.92921" lon="1.80783">
        <ele>142.5</ele>
        <time>2022-08-06T10:30:49Z</time>
      </trkpt>
      <trkpt lat="44.92918" lon="1.80777">
        <ele>142.7</ele>
        <time>2022-08-06T10:30:51Z</time>
      </trkpt>
      <trkpt lat="44.92915" lon="1.80772">
        <ele>142.9</ele>
        <time>2022-08-06T10:30:53Z</time>
      </trkpt>
      <trkpt lat="44.92913" lon="1.80766">
        <ele>143.1</ele>
        <time>2022-08-06T10:30:55Z</time>
      </trkpt>
      <trkpt lat="44.92911" lon="1.8076">
        <ele>143.4</ele>
        <time>2022-08-06T10:30:57Z</time>
      </trkpt>
      <trkpt lat="44.92909" lon="1.80754">
        <ele>143.6</ele>
        <time>2022-08-06T10:30:59Z</time>
      </trkpt>
      <trkpt lat="44.92908" lon="1.80748">
        <ele>144</ele>
        <time>2022-08-06T10:31:01Z</time>
      </trkpt>
      <trkpt lat="44.92907" lon="1.80742">
        <ele>144.4</ele>
        <time>2022-08-06T10:31:03Z</time>
      </trkpt>
      <trkpt lat="44.92906" lon="1.80736">
        <ele>144.9</ele>
        <time>2022-08-06T10:31:05Z</time>
      </trkpt>
      <trkpt lat="44.92906" lon="1.8073">
        <ele>145.4</ele>
        <time>2022-08-06T10:31:07Z</time>
      </trkpt>
      <trkpt lat="44.92905" lon="1.80724">
        <ele>145.9</ele>
        <time>2022-08-06T10:31:09Z</time>
      </trkpt>
      <trkpt lat="44.92904" lon="1.80718">
        <ele>146.3</ele>
        <time>2022-08-06T10:31:11Z</time>
      </trkpt>
      <trkpt lat="44.92904" lon="1.80712">
        <ele>146.8</ele>
        <time>2022-08-06T10:31:13Z</time>
      </trkpt>
      <trkpt lat="44.92904" lon="1.80706">
        <ele>147.3</ele>
        <time>2022-08-06T10:31:15Z</time>
      </trkpt>
      <trkpt lat="44.92903" lon="1.807">
        <ele>147.8</ele>
        <time>2022-08-06T10:31:17Z</time>
      </trkpt>
      <trkpt lat="44.92903" lon="1.80694">
        <ele>148.3</ele>
        <time>2022-08-06T10:31:19Z</time>
      </trkpt>
      <trkpt lat="44.92902" lon="1.80688">
        <ele>148.8</ele>
        <time>2022-08-06T10:31:21Z</time>
      </trkpt>
      <trkpt lat="44.92902" lon="1.80682">
        <ele>149.2</ele>
        <time>2022-08-06T10:31:23Z</time>
      </trkpt>
      <trkpt lat="44.92901" lon="1.80676">
        <ele>149.7</ele>
        <time>2022-08-06T10:31:25Z</time>
      </trkpt>
      <trkpt lat="44.92901" lon="1.8067">
        <ele>150.2</ele>
        <time>2022-08-06T10:31:27Z</time>
      </trkpt>
      <trkpt lat="44.92901" lon="1.80664">
        <ele>150.6</ele>
        <time>2022-08-06T10:31:29Z</time>
      </trkpt>
      <trkpt lat="44.929" lon="1.80658">
        <ele>150.8</ele>
        <time>2022-08-06T10:31:31Z</time>
      </trkpt>
      <trkpt lat="44.92899" lon="1.80652">
        <ele>151.1</ele>
        <time>2022-08-06T10:31:33Z</time>
      </trkpt>
      <trkpt lat="44.92898" lon="1.80647">
        <ele>151.4</ele>
        <time>2022-08-06T10:31:35Z</time>
      </trkpt>
      <trkpt lat="44.92897" lon="1.80641">
        <ele>151.7</ele>
        <time>2022-08-06T10:31:37Z</time>
      </trkpt>
      <trkpt lat="44.92895" lon="1.80635">
        <ele>151.9</ele>
        <time>2022-08-06T10:31:39Z</time>
      </trkpt>
      <trkpt lat="44.92893" lon="1.8063">
        <ele>152.2</ele>
        <time>2022-08-06T10:31:41Z</time>
      </trkpt>
      <trkpt lat="44.92891" lon="1.80625">
        <ele>152.4</ele>
        <time>2022-08-06T10:31:43Z</time>
      </trkpt>
      <trkpt lat="44.92888" lon="1.8062">
        <ele>152.6</ele>
        <time>2022-08-06T10:31:45Z</time>
      </trkpt>
      <trkpt lat="44.92885" lon="1.80616">
        <ele>152.8</ele>
        <time>2022-08-06T10:31:47Z</time>
      </trkpt>
      <trkpt lat="44.92882" lon="1.80611">
        <ele>153</ele>
        <time>2022-08-06T10:31:49Z</time>
      </trkpt>
      <trkpt lat="44.92878" lon="1.80607">
        <ele>153.1</ele>
        <time>2022-08-06T10:31:51Z</time>
      </trkpt>
      <trkpt lat="44.92875" lon="1.80603">
        <ele>153.3</ele>
        <time>2022-08-06T10:31:53Z</time>
      </trkpt>
      <trkpt lat="44.92871" lon="1.806">
        <ele>153.5</ele>
        <time>2022-08-06T10:31:55Z</time>
      </trkpt>
      <trkpt lat="44.92866" lon="1.80597">
        <ele>153.6</ele>
        <time>2022-08-06T10:31:57Z</time>
      </trkpt>
      <trkpt lat="44.92862" lon="1.80593">
        <ele>153.7</ele>
        <time>2022-08-06T10:31:59Z</time>
      </trkpt>
      <trkpt lat="44.92858" lon="1.8059">
        <ele>153.9</ele>
        <time>2022-08-06T10:32:01Z</time>
      </trkpt>
      <trkpt lat="44.92854" lon="1.80587">
        <ele>154</ele>
        <time>2022-08-06T10:32:03Z</time>
      </trkpt>
      <trkpt lat="44.9285" lon="1.80584">
        <ele>154.2</ele>
        <time>2022-08-06T10:32:05Z</time>
      </trkpt>
      <trkpt lat="44.92846" lon="1.80581">
        <ele>154.3</ele>
        <time>2022-08-06T10:32:07Z</time>
      </trkpt>
      <trkpt lat="44.92842" lon="1.80578">
        <ele>154.6</ele>
        <time>2022-08-06T10:32:09Z</time>
      </trkpt>
      <trkpt lat="44.92837" lon="1.80575">
        <ele>154.7</ele>
        <time>2022-08-06T10:32:11Z</time>
      </trkpt>
      <trkpt lat="44.92834" lon="1.80572">
        <ele>155</ele>
        <time>2022-08-06T10:32:13Z</time>
      </trkpt>
      <trkpt lat="44.92829" lon="1.80569">
        <ele>155</ele>
        <time>2022-08-06T10:32:15Z</time>
      </trkpt>
      <trkpt lat="44.92825" lon="1.80566">
        <ele>155.1</ele>
        <time>2022-08-06T10:32:17Z</time>
      </trkpt>
      <trkpt lat="44.92821" lon="1.80562">
        <ele>155.2</ele>
        <time>2022-08-06T10:32:19Z</time>
      </trkpt>
      <trkpt lat="44.92818" lon="1.80559">
        <ele>155.4</ele>
        <time>2022-08-06T10:32:21Z</time>
      </trkpt>
      <trkpt lat="44.92813" lon="1.80556">
        <ele>155.4</ele>
        <time>2022-08-06T10:32:23Z</time>
      </trkpt>
      <trkpt lat="44.9281" lon="1.80553">
        <ele>155.6</ele>
        <time>2022-08-06T10:32:25Z</time>
      </trkpt>
      <trkpt lat="44.92806" lon="1.8055">
        <ele>155.7</ele>
        <time>2022-08-06T10:32:27Z</time>
      </trkpt>
      <trkpt lat="44.92803" lon="1.80547">
        <ele>155.9</ele>
        <time>2022-08-06T10:32:29Z</time>
      </trkpt>
      <trkpt lat="44.92798" lon="1.80544">
        <ele>156</ele>
        <time>2022-08-06T10:32:31Z</time>
      </trkpt>
      <trkpt lat="44.92794" lon="1.80541">
        <ele>156.1</ele>
        <time>2022-08-06T10:32:33Z</time>
      </trkpt>
      <trkpt lat="44.9279" lon="1.80538">
        <ele>156.4</ele>
        <time>2022-08-06T10:32:35Z</time>
      </trkpt>
      <trkpt lat="44.92786" lon="1.80535">
        <ele>156.6</ele>
        <time>2022-08-06T10:32:37Z</time>
      </trkpt>
      <trkpt lat="44.92782" lon="1.80532">
        <ele>156.8</ele>
        <time>2022-08-06T10:32:39Z</time>
      </trkpt>
      <trkpt lat="44.92778" lon="1.80528">
        <ele>157.1</ele>
        <time>2022-08-06T10:32:41Z</time>
      </trkpt>
      <trkpt lat="44.92774" lon="1.80525">
        <ele>157.4</ele>
        <time>2022-08-06T10:32:43Z</time>
      </trkpt>
      <trkpt lat="44.9277" lon="1.80522">
        <ele>157.7</ele>
        <time>2022-08-06T10:32:45Z</time>
      </trkpt>
      <trkpt lat="44.92767" lon="1.80518">
        <ele>157.9</ele>
        <time>2022-08-06T10:32:47Z</time>
      </trkpt>
      <trkpt lat="44.92763" lon="1.80515">
        <ele>158.3</ele>
        <time>2022-08-06T10:32:49Z</time>
      </trkpt>
      <trkpt lat="44.92759" lon="1.80512">
        <ele>158.6</ele>
        <time>2022-08-06T10:32:51Z</time>
      </trkpt>
      <trkpt lat="44.92755" lon="1.80508">
        <ele>159</ele>
        <time>2022-08-06T10:32:53Z</time>
      </trkpt>
      <trkpt lat="44.92752" lon="1.80505">
        <ele>159.4</ele>
        <time>2022-08-06T10:32:55Z</time>
      </trkpt>
      <trkpt lat="44.92749" lon="1.80501">
        <ele>159.6</ele>
        <time>2022-08-06T10:32:57Z</time>
      </trkpt>
      <trkpt lat="44.92745" lon="1.80497">
        <ele>159.5</ele>
        <time>2022-08-06T10:32:59Z</time>
      </trkpt>
      <trkpt lat="44.92741" lon="1.80493">
        <ele>159.3</ele>
        <time>2022-08-06T10:33:01Z</time>
      </trkpt>
      <trkpt lat="44.92738" lon="1.80491">
        <ele>159.1</ele>
        <time>2022-08-06T10:33:03Z</time>
      </trkpt>
      <trkpt lat="44.92735" lon="1.80487">
        <ele>159</ele>
        <time>2022-08-06T10:33:05Z</time>
      </trkpt>
      <trkpt lat="44.92731" lon="1.80483">
        <ele>159</ele>
        <time>2022-08-06T10:33:07Z</time>
      </trkpt>
      <trkpt lat="44.92726" lon="1.80477">
        <ele>158.8</ele>
        <time>2022-08-06T10:33:09Z</time>
      </trkpt>
      <trkpt lat="44.92722" lon="1.80472">
        <ele>158.7</ele>
        <time>2022-08-06T10:33:11Z</time>
      </trkpt>
      <trkpt lat="44.92718" lon="1.80468">
        <ele>158.7</ele>
        <time>2022-08-06T10:33:13Z</time>
      </trkpt>
      <trkpt lat="44.92715" lon="1.80463">
        <ele>158.7</ele>
        <time>2022-08-06T10:33:15Z</time>
      </trkpt>
      <trkpt lat="44.92711" lon="1.80458">
        <ele>158.8</ele>
        <time>2022-08-06T10:33:17Z</time>
      </trkpt>
      <trkpt lat="44.92709" lon="1.80454">
        <ele>158.8</ele>
        <time>2022-08-06T10:33:19Z</time>
      </trkpt>
      <trkpt lat="44.92706" lon="1.8045">
        <ele>158.9</ele>
        <time>2022-08-06T10:33:21Z</time>
      </trkpt>
      <trkpt lat="44.92703" lon="1.80445">
        <ele>159</ele>
        <time>2022-08-06T10:33:23Z</time>
      </trkpt>
      <trkpt lat="44.92698" lon="1.80437">
        <ele>159.2</ele>
        <time>2022-08-06T10:33:25Z</time>
      </trkpt>
      <trkpt lat="44.92695" lon="1.80432">
        <ele>159.4</ele>
        <time>2022-08-06T10:33:27Z</time>
      </trkpt>
      <trkpt lat="44.92692" lon="1.80426">
        <ele>159.8</ele>
        <time>2022-08-06T10:33:29Z</time>
      </trkpt>
      <trkpt lat="44.92689" lon="1.8042">
        <ele>160.1</ele>
        <time>2022-08-06T10:33:31Z</time>
      </trkpt>
      <trkpt lat="44.92685" lon="1.80415">
        <ele>160.3</ele>
        <time>2022-08-06T10:33:33Z</time>
      </trkpt>
      <trkpt lat="44.92682" lon="1.80408">
        <ele>160.9</ele>
        <time>2022-08-06T10:33:35Z</time>
      </trkpt>
      <trkpt lat="44.92678" lon="1.80401">
        <ele>161.5</ele>
        <time>2022-08-06T10:33:37Z</time>
      </trkpt>
      <trkpt lat="44.92674" lon="1.80393">
        <ele>162.3</ele>
        <time>2022-08-06T10:33:39Z</time>
      </trkpt>
      <trkpt lat="44.9267" lon="1.80384">
        <ele>163.1</ele>
        <time>2022-08-06T10:33:41Z</time>
      </trkpt>
      <trkpt lat="44.92666" lon="1.80375">
        <ele>163.9</ele>
        <time>2022-08-06T10:33:43Z</time>
      </trkpt>
      <trkpt lat="44.92662" lon="1.80365">
        <ele>164.4</ele>
        <time>2022-08-06T10:33:45Z</time>
      </trkpt>
      <trkpt lat="44.92657" lon="1.80356">
        <ele>164.6</ele>
        <time>2022-08-06T10:33:47Z</time>
      </trkpt>
      <trkpt lat="44.92652" lon="1.80346">
        <ele>164.7</ele>
        <time>2022-08-06T10:33:49Z</time>
      </trkpt>
      <trkpt lat="44.92647" lon="1.80336">
        <ele>164.9</ele>
        <time>2022-08-06T10:33:51Z</time>
      </trkpt>
      <trkpt lat="44.92642" lon="1.80326">
        <ele>164.9</ele>
        <time>2022-08-06T10:33:53Z</time>
      </trkpt>
      <trkpt lat="44.92637" lon="1.80315">
        <ele>165</ele>
        <time>2022-08-06T10:33:55Z</time>
      </trkpt>
      <trkpt lat="44.92631" lon="1.80305">
        <ele>164.9</ele>
        <time>2022-08-06T10:33:57Z</time>
      </trkpt>
      <trkpt lat="44.92626" lon="1.80294">
        <ele>165.2</ele>
        <time>2022-08-06T10:33:59Z</time>
      </trkpt>
      <trkpt lat="44.9262" lon="1.80284">
        <ele>165.3</ele>
        <time>2022-08-06T10:34:01Z</time>
      </trkpt>
      <trkpt lat="44.92615" lon="1.80273">
        <ele>165.6</ele>
        <time>2022-08-06T10:34:03Z</time>
      </trkpt>
      <trkpt lat="44.92609" lon="1.80263">
        <ele>165.7</ele>
        <time>2022-08-06T10:34:05Z</time>
      </trkpt>
      <trkpt lat="44.92602" lon="1.80255">
        <ele>165.4</ele>
        <time>2022-08-06T10:34:07Z</time>
      </trkpt>
      <trkpt lat="44.92594" lon="1.80248">
        <ele>164.7</ele>
        <time>2022-08-06T10:34:09Z</time>
      </trkpt>
      <trkpt lat="44.92586" lon="1.80241">
        <ele>164</ele>
        <time>2022-08-06T10:34:11Z</time>
      </trkpt>
      <trkpt lat="44.92576" lon="1.80236">
        <ele>162.9</ele>
        <time>2022-08-06T10:34:13Z</time>
      </trkpt>
      <trkpt lat="44.92567" lon="1.8023">
        <ele>162.1</ele>
        <time>2022-08-06T10:34:15Z</time>
      </trkpt>
      <trkpt lat="44.92558" lon="1.80223">
        <ele>161.4</ele>
        <time>2022-08-06T10:34:17Z</time>
      </trkpt>
      <trkpt lat="44.9255" lon="1.80215">
        <ele>160.9</ele>
        <time>2022-08-06T10:34:19Z</time>
      </trkpt>
      <trkpt lat="44.92542" lon="1.80206">
        <ele>160.7</ele>
        <time>2022-08-06T10:34:21Z</time>
      </trkpt>
      <trkpt lat="44.92536" lon="1.80198">
        <ele>160.6</ele>
        <time>2022-08-06T10:34:23Z</time>
      </trkpt>
      <trkpt lat="44.92529" lon="1.80191">
        <ele>160.4</ele>
        <time>2022-08-06T10:34:25Z</time>
      </trkpt>
      <trkpt lat="44.92523" lon="1.80182">
        <ele>160.4</ele>
        <time>2022-08-06T10:34:27Z</time>
      </trkpt>
      <trkpt lat="44.92517" lon="1.80175">
        <ele>160.4</ele>
        <time>2022-08-06T10:34:29Z</time>
      </trkpt>
      <trkpt lat="44.92512" lon="1.80167">
        <ele>160.4</ele>
        <time>2022-08-06T10:34:31Z</time>
      </trkpt>
      <trkpt lat="44.92505" lon="1.8016">
        <ele>160.1</ele>
        <time>2022-08-06T10:34:33Z</time>
      </trkpt>
      <trkpt lat="44.925" lon="1.80154">
        <ele>159.8</ele>
        <time>2022-08-06T10:34:35Z</time>
      </trkpt>
      <trkpt lat="44.92494" lon="1.80147">
        <ele>159.8</ele>
        <time>2022-08-06T10:34:37Z</time>
      </trkpt>
      <trkpt lat="44.92488" lon="1.80141">
        <ele>159.7</ele>
        <time>2022-08-06T10:34:39Z</time>
      </trkpt>
      <trkpt lat="44.92481" lon="1.80136">
        <ele>159.3</ele>
        <time>2022-08-06T10:34:41Z</time>
      </trkpt>
      <trkpt lat="44.92475" lon="1.80133">
        <ele>158.9</ele>
        <time>2022-08-06T10:34:43Z</time>
      </trkpt>
      <trkpt lat="44.92471" lon="1.8013">
        <ele>158.8</ele>
        <time>2022-08-06T10:34:45Z</time>
      </trkpt>
      <trkpt lat="44.92466" lon="1.80126">
        <ele>158.5</ele>
        <time>2022-08-06T10:34:47Z</time>
      </trkpt>
      <trkpt lat="44.9246" lon="1.80122">
        <ele>158.2</ele>
        <time>2022-08-06T10:34:49Z</time>
      </trkpt>
      <trkpt lat="44.92453" lon="1.80117">
        <ele>158</ele>
        <time>2022-08-06T10:34:51Z</time>
      </trkpt>
      <trkpt lat="44.92446" lon="1.8011">
        <ele>158</ele>
        <time>2022-08-06T10:34:53Z</time>
      </trkpt>
      <trkpt lat="44.92439" lon="1.80102">
        <ele>158.1</ele>
        <time>2022-08-06T10:34:55Z</time>
      </trkpt>
      <trkpt lat="44.92431" lon="1.80093">
        <ele>158.5</ele>
        <time>2022-08-06T10:34:57Z</time>
      </trkpt>
      <trkpt lat="44.92423" lon="1.80083">
        <ele>159</ele>
        <time>2022-08-06T10:34:59Z</time>
      </trkpt>
      <trkpt lat="44.92416" lon="1.80073">
        <ele>158.5</ele>
        <time>2022-08-06T10:35:01Z</time>
      </trkpt>
      <trkpt lat="44.92407" lon="1.80063">
        <ele>157.9</ele>
        <time>2022-08-06T10:35:03Z</time>
      </trkpt>
      <trkpt lat="44.92399" lon="1.80053">
        <ele>157.4</ele>
        <time>2022-08-06T10:35:05Z</time>
      </trkpt>
      <trkpt lat="44.9239" lon="1.80042">
        <ele>156.9</ele>
        <time>2022-08-06T10:35:07Z</time>
      </trkpt>
      <trkpt lat="44.92381" lon="1.80031">
        <ele>156.3</ele>
        <time>2022-08-06T10:35:09Z</time>
      </trkpt>
      <trkpt lat="44.92373" lon="1.8002">
        <ele>155.9</ele>
        <time>2022-08-06T10:35:11Z</time>
      </trkpt>
      <trkpt lat="44.92363" lon="1.80008">
        <ele>155.4</ele>
        <time>2022-08-06T10:35:13Z</time>
      </trkpt>
      <trkpt lat="44.92353" lon="1.79996">
        <ele>154.8</ele>
        <time>2022-08-06T10:35:15Z</time>
      </trkpt>
      <trkpt lat="44.92343" lon="1.79984">
        <ele>153.8</ele>
        <time>2022-08-06T10:35:17Z</time>
      </trkpt>
      <trkpt lat="44.92332" lon="1.79974">
        <ele>152.9</ele>
        <time>2022-08-06T10:35:19Z</time>
      </trkpt>
      <trkpt lat="44.92318" lon="1.79966">
        <ele>152.4</ele>
        <time>2022-08-06T10:35:21Z</time>
      </trkpt>
      <trkpt lat="44.92304" lon="1.79962">
        <ele>151.8</ele>
        <time>2022-08-06T10:35:23Z</time>
      </trkpt>
      <trkpt lat="44.9229" lon="1.79959">
        <ele>151.1</ele>
        <time>2022-08-06T10:35:25Z</time>
      </trkpt>
      <trkpt lat="44.92276" lon="1.79955">
        <ele>150.5</ele>
        <time>2022-08-06T10:35:27Z</time>
      </trkpt>
      <trkpt lat="44.9226" lon="1.79952">
        <ele>149.8</ele>
        <time>2022-08-06T10:35:29Z</time>
      </trkpt>
      <trkpt lat="44.92245" lon="1.79949">
        <ele>149.2</ele>
        <time>2022-08-06T10:35:31Z</time>
      </trkpt>
      <trkpt lat="44.92228" lon="1.79946">
        <ele>148.7</ele>
        <time>2022-08-06T10:35:33Z</time>
      </trkpt>
      <trkpt lat="44.92212" lon="1.79942">
        <ele>148.3</ele>
        <time>2022-08-06T10:35:35Z</time>
      </trkpt>
      <trkpt lat="44.92196" lon="1.79938">
        <ele>147.8</ele>
        <time>2022-08-06T10:35:37Z</time>
      </trkpt>
      <trkpt lat="44.9218" lon="1.79936">
        <ele>147.4</ele>
        <time>2022-08-06T10:35:39Z</time>
      </trkpt>
      <trkpt lat="44.92164" lon="1.79936">
        <ele>146.7</ele>
        <time>2022-08-06T10:35:41Z</time>
      </trkpt>
      <trkpt lat="44.92148" lon="1.79938">
        <ele>145.1</ele>
        <time>2022-08-06T10:35:43Z</time>
      </trkpt>
      <trkpt lat="44.92132" lon="1.7994">
        <ele>143.7</ele>
        <time>2022-08-06T10:35:45Z</time>
      </trkpt>
      <trkpt lat="44.92116" lon="1.79943">
        <ele>142.1</ele>
        <time>2022-08-06T10:35:47Z</time>
      </trkpt>
      <trkpt lat="44.92101" lon="1.79946">
        <ele>140.8</ele>
        <time>2022-08-06T10:35:49Z</time>
      </trkpt>
      <trkpt lat="44.92088" lon="1.79948">
        <ele>139.5</ele>
        <time>2022-08-06T10:35:51Z</time>
      </trkpt>
      <trkpt lat="44.92075" lon="1.79947">
        <ele>138.6</ele>
        <time>2022-08-06T10:35:53Z</time>
      </trkpt>
      <trkpt lat="44.92064" lon="1.79941">
        <ele>138.1</ele>
        <time>2022-08-06T10:35:55Z</time>
      </trkpt>
      <trkpt lat="44.92055" lon="1.79932">
        <ele>137.9</ele>
        <time>2022-08-06T10:35:57Z</time>
      </trkpt>
      <trkpt lat="44.92047" lon="1.79916">
        <ele>138</ele>
        <time>2022-08-06T10:35:59Z</time>
      </trkpt>
      <trkpt lat="44.92042" lon="1.79897">
        <ele>138</ele>
        <time>2022-08-06T10:36:01Z</time>
      </trkpt>
      <trkpt lat="44.92036" lon="1.79877">
        <ele>137.9</ele>
        <time>2022-08-06T10:36:03Z</time>
      </trkpt>
      <trkpt lat="44.92028" lon="1.79858">
        <ele>137.5</ele>
        <time>2022-08-06T10:36:05Z</time>
      </trkpt>
      <trkpt lat="44.92017" lon="1.79839">
        <ele>136.8</ele>
        <time>2022-08-06T10:36:07Z</time>
      </trkpt>
      <trkpt lat="44.92007" lon="1.79821">
        <ele>136.2</ele>
        <time>2022-08-06T10:36:09Z</time>
      </trkpt>
      <trkpt lat="44.91998" lon="1.79802">
        <ele>136</ele>
        <time>2022-08-06T10:36:11Z</time>
      </trkpt>
      <trkpt lat="44.91991" lon="1.79782">
        <ele>136.3</ele>
        <time>2022-08-06T10:36:13Z</time>
      </trkpt>
      <trkpt lat="44.91985" lon="1.79765">
        <ele>136.4</ele>
        <time>2022-08-06T10:36:15Z</time>
      </trkpt>
      <trkpt lat="44.9198" lon="1.79747">
        <ele>136.4</ele>
        <time>2022-08-06T10:36:17Z</time>
      </trkpt>
      <trkpt lat="44.91974" lon="1.79731">
        <ele>136.4</ele>
        <time>2022-08-06T10:36:19Z</time>
      </trkpt>
      <trkpt lat="44.9197" lon="1.79716">
        <ele>136.4</ele>
        <time>2022-08-06T10:36:21Z</time>
      </trkpt>
      <trkpt lat="44.91966" lon="1.79701">
        <ele>136.4</ele>
        <time>2022-08-06T10:36:23Z</time>
      </trkpt>
      <trkpt lat="44.91962" lon="1.79687">
        <ele>136.4</ele>
        <time>2022-08-06T10:36:25Z</time>
      </trkpt>
      <trkpt lat="44.91957" lon="1.79673">
        <ele>136.3</ele>
        <time>2022-08-06T10:36:27Z</time>
      </trkpt>
      <trkpt lat="44.91952" lon="1.79662">
        <ele>136</ele>
        <time>2022-08-06T10:36:29Z</time>
      </trkpt>
      <trkpt lat="44.91947" lon="1.79657">
        <ele>135.7</ele>
        <time>2022-08-06T10:36:31Z</time>
      </trkpt>
      <trkpt lat="44.91944" lon="1.79652">
        <ele>135.5</ele>
        <time>2022-08-06T10:36:33Z</time>
      </trkpt>
      <trkpt lat="44.91943" lon="1.79651">
        <ele>135.5</ele>
        <time>2022-08-06T10:36:35Z</time>
      </trkpt>
      <trkpt lat="44.91943" lon="1.7965">
        <ele>135.5</ele>
        <time>2022-08-06T10:36:37Z</time>
      </trkpt>
      <trkpt lat="44.91943" lon="1.7965">
        <ele>135.5</ele>
        <time>2022-08-06T10:36:39Z</time>
      </trkpt>
      <trkpt lat="44.91943" lon="1.79648">
        <ele>135.5</ele>
        <time>2022-08-06T10:36:41Z</time>
      </trkpt>
      <trkpt lat="44.91943" lon="1.79648">
        <ele>135.6</ele>
        <time>2022-08-06T10:36:43Z</time>
      </trkpt>
      <trkpt lat="44.9193" lon="1.79662">
        <ele>133.5</ele>
        <time>2022-08-06T10:38:25Z</time>
      </trkpt>
      <trkpt lat="44.91925" lon="1.7967">
        <ele>132.9</ele>
        <time>2022-08-06T10:38:27Z</time>
      </trkpt>
      <trkpt lat="44.91921" lon="1.79677">
        <ele>132.4</ele>
        <time>2022-08-06T10:38:29Z</time>
      </trkpt>
      <trkpt lat="44.91916" lon="1.79683">
        <ele>131.8</ele>
        <time>2022-08-06T10:38:31Z</time>
      </trkpt>
      <trkpt lat="44.91913" lon="1.79688">
        <ele>131.7</ele>
        <time>2022-08-06T10:38:33Z</time>
      </trkpt>
      <trkpt lat="44.91911" lon="1.79689">
        <ele>131.7</ele>
        <time>2022-08-06T10:38:35Z</time>
      </trkpt>
      <trkpt lat="44.9191" lon="1.79689">
        <ele>131.7</ele>
        <time>2022-08-06T10:38:37Z</time>
      </trkpt>
      <trkpt lat="44.9191" lon="1.79689">
        <ele>131.6</ele>
        <time>2022-08-06T10:38:39Z</time>
      </trkpt>
      <trkpt lat="44.91909" lon="1.79689">
        <ele>131.6</ele>
        <time>2022-08-06T10:38:41Z</time>
      </trkpt>
      <trkpt lat="44.91908" lon="1.7969">
        <ele>131.6</ele>
        <time>2022-08-06T10:38:43Z</time>
      </trkpt>
      <trkpt lat="44.91903" lon="1.79692">
        <ele>131.5</ele>
        <time>2022-08-06T10:38:45Z</time>
      </trkpt>
      <trkpt lat="44.91898" lon="1.79695">
        <ele>131.4</ele>
        <time>2022-08-06T10:38:47Z</time>
      </trkpt>
      <trkpt lat="44.91892" lon="1.79699">
        <ele>131.3</ele>
        <time>2022-08-06T10:38:49Z</time>
      </trkpt>
      <trkpt lat="44.91888" lon="1.79708">
        <ele>131.2</ele>
        <time>2022-08-06T10:38:51Z</time>
      </trkpt>
      <trkpt lat="44.91884" lon="1.79719">
        <ele>131</ele>
        <time>2022-08-06T10:38:53Z</time>
      </trkpt>
      <trkpt lat="44.91885" lon="1.7973">
        <ele>130.9</ele>
        <time>2022-08-06T10:38:55Z</time>
      </trkpt>
      <trkpt lat="44.9189" lon="1.7974">
        <ele>130.8</ele>
        <time>2022-08-06T10:38:57Z</time>
      </trkpt>
      <trkpt lat="44.91896" lon="1.79748">
        <ele>130.8</ele>
        <time>2022-08-06T10:38:59Z</time>
      </trkpt>
      <trkpt lat="44.91904" lon="1.79752">
        <ele>130.9</ele>
        <time>2022-08-06T10:39:01Z</time>
      </trkpt>
      <trkpt lat="44.91912" lon="1.79752">
        <ele>131</ele>
        <time>2022-08-06T10:39:03Z</time>
      </trkpt>
      <trkpt lat="44.9192" lon="1.79751">
        <ele>131.3</ele>
        <time>2022-08-06T10:39:05Z</time>
      </trkpt>
      <trkpt lat="44.91927" lon="1.79754">
        <ele>131.9</ele>
        <time>2022-08-06T10:39:07Z</time>
      </trkpt>
      <trkpt lat="44.91935" lon="1.79761">
        <ele>132.6</ele>
        <time>2022-08-06T10:39:09Z</time>
      </trkpt>
      <trkpt lat="44.91943" lon="1.79767">
        <ele>133.1</ele>
        <time>2022-08-06T10:39:11Z</time>
      </trkpt>
      <trkpt lat="44.91951" lon="1.79774">
        <ele>133.7</ele>
        <time>2022-08-06T10:39:13Z</time>
      </trkpt>
      <trkpt lat="44.91958" lon="1.79782">
        <ele>134.1</ele>
        <time>2022-08-06T10:39:15Z</time>
      </trkpt>
      <trkpt lat="44.91966" lon="1.7979">
        <ele>134.5</ele>
        <time>2022-08-06T10:39:17Z</time>
      </trkpt>
      <trkpt lat="44.91973" lon="1.798">
        <ele>134.7</ele>
        <time>2022-08-06T10:39:19Z</time>
      </trkpt>
      <trkpt lat="44.9198" lon="1.7981">
        <ele>134.8</ele>
        <time>2022-08-06T10:39:21Z</time>
      </trkpt>
      <trkpt lat="44.91986" lon="1.79819">
        <ele>134.9</ele>
        <time>2022-08-06T10:39:23Z</time>
      </trkpt>
      <trkpt lat="44.91992" lon="1.79829">
        <ele>134.8</ele>
        <time>2022-08-06T10:39:25Z</time>
      </trkpt>
      <trkpt lat="44.91998" lon="1.7984">
        <ele>134.8</ele>
        <time>2022-08-06T10:39:27Z</time>
      </trkpt>
      <trkpt lat="44.92003" lon="1.7985">
        <ele>135.1</ele>
        <time>2022-08-06T10:39:29Z</time>
      </trkpt>
      <trkpt lat="44.92008" lon="1.79861">
        <ele>135.4</ele>
        <time>2022-08-06T10:39:31Z</time>
      </trkpt>
      <trkpt lat="44.92013" lon="1.79871">
        <ele>135.8</ele>
        <time>2022-08-06T10:39:33Z</time>
      </trkpt>
      <trkpt lat="44.92016" lon="1.79882">
        <ele>135.9</ele>
        <time>2022-08-06T10:39:35Z</time>
      </trkpt>
      <trkpt lat="44.9202" lon="1.79893">
        <ele>136.1</ele>
        <time>2022-08-06T10:39:37Z</time>
      </trkpt>
      <trkpt lat="44.92024" lon="1.79904">
        <ele>136.2</ele>
        <time>2022-08-06T10:39:39Z</time>
      </trkpt>
      <trkpt lat="44.92027" lon="1.79916">
        <ele>136.3</ele>
        <time>2022-08-06T10:39:41Z</time>
      </trkpt>
      <trkpt lat="44.9203" lon="1.79928">
        <ele>136.1</ele>
        <time>2022-08-06T10:39:43Z</time>
      </trkpt>
      <trkpt lat="44.92032" lon="1.7994">
        <ele>135.8</ele>
        <time>2022-08-06T10:39:45Z</time>
      </trkpt>
      <trkpt lat="44.92034" lon="1.79952">
        <ele>135.5</ele>
        <time>2022-08-06T10:39:47Z</time>
      </trkpt>
      <trkpt lat="44.92036" lon="1.79964">
        <ele>135.2</ele>
        <time>2022-08-06T10:39:49Z</time>
      </trkpt>
      <trkpt lat="44.92038" lon="1.79976">
        <ele>134.8</ele>
        <time>2022-08-06T10:39:51Z</time>
      </trkpt>
      <trkpt lat="44.9204" lon="1.79988">
        <ele>134.4</ele>
        <time>2022-08-06T10:39:53Z</time>
      </trkpt>
      <trkpt lat="44.92041" lon="1.8">
        <ele>134</ele>
        <time>2022-08-06T10:39:55Z</time>
      </trkpt>
      <trkpt lat="44.92043" lon="1.80011">
        <ele>133.5</ele>
        <time>2022-08-06T10:39:57Z</time>
      </trkpt>
      <trkpt lat="44.92045" lon="1.80022">
        <ele>133</ele>
        <time>2022-08-06T10:39:59Z</time>
      </trkpt>
      <trkpt lat="44.92047" lon="1.80034">
        <ele>132.5</ele>
        <time>2022-08-06T10:40:01Z</time>
      </trkpt>
      <trkpt lat="44.92049" lon="1.80046">
        <ele>131.9</ele>
        <time>2022-08-06T10:40:03Z</time>
      </trkpt>
      <trkpt lat="44.9205" lon="1.80057">
        <ele>131.2</ele>
        <time>2022-08-06T10:40:05Z</time>
      </trkpt>
      <trkpt lat="44.92052" lon="1.80069">
        <ele>130.6</ele>
        <time>2022-08-06T10:40:07Z</time>
      </trkpt>
      <trkpt lat="44.92053" lon="1.8008">
        <ele>129.9</ele>
        <time>2022-08-06T10:40:09Z</time>
      </trkpt>
      <trkpt lat="44.92055" lon="1.80092">
        <ele>129.9</ele>
        <time>2022-08-06T10:40:11Z</time>
      </trkpt>
      <trkpt lat="44.92057" lon="1.80105">
        <ele>130.1</ele>
        <time>2022-08-06T10:40:13Z</time>
      </trkpt>
      <trkpt lat="44.92058" lon="1.80117">
        <ele>130.4</ele>
        <time>2022-08-06T10:40:15Z</time>
      </trkpt>
      <trkpt lat="44.9206" lon="1.80129">
        <ele>130.7</ele>
        <time>2022-08-06T10:40:17Z</time>
      </trkpt>
      <trkpt lat="44.92062" lon="1.80142">
        <ele>130.9</ele>
        <time>2022-08-06T10:40:19Z</time>
      </trkpt>
      <trkpt lat="44.92064" lon="1.80156">
        <ele>131.2</ele>
        <time>2022-08-06T10:40:21Z</time>
      </trkpt>
      <trkpt lat="44.92066" lon="1.80171">
        <ele>131.5</ele>
        <time>2022-08-06T10:40:23Z</time>
      </trkpt>
      <trkpt lat="44.92069" lon="1.80186">
        <ele>131.7</ele>
        <time>2022-08-06T10:40:25Z</time>
      </trkpt>
      <trkpt lat="44.92071" lon="1.80202">
        <ele>132</ele>
        <time>2022-08-06T10:40:27Z</time>
      </trkpt>
      <trkpt lat="44.92073" lon="1.80218">
        <ele>132.3</ele>
        <time>2022-08-06T10:40:29Z</time>
      </trkpt>
      <trkpt lat="44.92076" lon="1.80235">
        <ele>132.6</ele>
        <time>2022-08-06T10:40:31Z</time>
      </trkpt>
      <trkpt lat="44.92078" lon="1.80252">
        <ele>132.9</ele>
        <time>2022-08-06T10:40:33Z</time>
      </trkpt>
      <trkpt lat="44.9208" lon="1.80268">
        <ele>132.5</ele>
        <time>2022-08-06T10:40:35Z</time>
      </trkpt>
      <trkpt lat="44.92083" lon="1.80284">
        <ele>132.2</ele>
        <time>2022-08-06T10:40:37Z</time>
      </trkpt>
      <trkpt lat="44.92085" lon="1.80301">
        <ele>131.8</ele>
        <time>2022-08-06T10:40:39Z</time>
      </trkpt>
      <trkpt lat="44.92087" lon="1.80317">
        <ele>131.3</ele>
        <time>2022-08-06T10:40:41Z</time>
      </trkpt>
      <trkpt lat="44.9209" lon="1.80333">
        <ele>130.9</ele>
        <time>2022-08-06T10:40:43Z</time>
      </trkpt>
      <trkpt lat="44.92091" lon="1.80348">
        <ele>130.9</ele>
        <time>2022-08-06T10:40:45Z</time>
      </trkpt>
      <trkpt lat="44.92094" lon="1.80364">
        <ele>130.9</ele>
        <time>2022-08-06T10:40:47Z</time>
      </trkpt>
      <trkpt lat="44.92096" lon="1.80379">
        <ele>130.9</ele>
        <time>2022-08-06T10:40:49Z</time>
      </trkpt>
      <trkpt lat="44.92098" lon="1.80394">
        <ele>130.8</ele>
        <time>2022-08-06T10:40:51Z</time>
      </trkpt>
      <trkpt lat="44.921" lon="1.8041">
        <ele>130.8</ele>
        <time>2022-08-06T10:40:53Z</time>
      </trkpt>
      <trkpt lat="44.92102" lon="1.80425">
        <ele>130.9</ele>
        <time>2022-08-06T10:40:55Z</time>
      </trkpt>
      <trkpt lat="44.92104" lon="1.8044">
        <ele>131</ele>
        <time>2022-08-06T10:40:57Z</time>
      </trkpt>
      <trkpt lat="44.92107" lon="1.80455">
        <ele>131.1</ele>
        <time>2022-08-06T10:40:59Z</time>
      </trkpt>
      <trkpt lat="44.92109" lon="1.8047">
        <ele>131.1</ele>
        <time>2022-08-06T10:41:01Z</time>
      </trkpt>
      <trkpt lat="44.92111" lon="1.80485">
        <ele>131.2</ele>
        <time>2022-08-06T10:41:03Z</time>
      </trkpt>
      <trkpt lat="44.92113" lon="1.805">
        <ele>131.3</ele>
        <time>2022-08-06T10:41:05Z</time>
      </trkpt>
      <trkpt lat="44.92115" lon="1.80515">
        <ele>131.5</ele>
        <time>2022-08-06T10:41:07Z</time>
      </trkpt>
      <trkpt lat="44.92117" lon="1.80531">
        <ele>131.7</ele>
        <time>2022-08-06T10:41:09Z</time>
      </trkpt>
      <trkpt lat="44.92119" lon="1.80545">
        <ele>131.9</ele>
        <time>2022-08-06T10:41:11Z</time>
      </trkpt>
      <trkpt lat="44.92121" lon="1.8056">
        <ele>132.1</ele>
        <time>2022-08-06T10:41:13Z</time>
      </trkpt>
      <trkpt lat="44.92123" lon="1.80575">
        <ele>132.4</ele>
        <time>2022-08-06T10:41:15Z</time>
      </trkpt>
      <trkpt lat="44.92125" lon="1.8059">
        <ele>132.5</ele>
        <time>2022-08-06T10:41:17Z</time>
      </trkpt>
      <trkpt lat="44.92126" lon="1.80605">
        <ele>132.6</ele>
        <time>2022-08-06T10:41:19Z</time>
      </trkpt>
      <trkpt lat="44.92128" lon="1.80619">
        <ele>132.7</ele>
        <time>2022-08-06T10:41:21Z</time>
      </trkpt>
      <trkpt lat="44.92129" lon="1.80635">
        <ele>132.8</ele>
        <time>2022-08-06T10:41:23Z</time>
      </trkpt>
      <trkpt lat="44.9213" lon="1.8065">
        <ele>132.9</ele>
        <time>2022-08-06T10:41:25Z</time>
      </trkpt>
      <trkpt lat="44.92131" lon="1.80664">
        <ele>133</ele>
        <time>2022-08-06T10:41:27Z</time>
      </trkpt>
      <trkpt lat="44.92132" lon="1.80678">
        <ele>132.9</ele>
        <time>2022-08-06T10:41:29Z</time>
      </trkpt>
      <trkpt lat="44.92132" lon="1.80693">
        <ele>132.7</ele>
        <time>2022-08-06T10:41:31Z</time>
      </trkpt>
      <trkpt lat="44.92133" lon="1.80708">
        <ele>132.5</ele>
        <time>2022-08-06T10:41:33Z</time>
      </trkpt>
      <trkpt lat="44.92133" lon="1.80724">
        <ele>132.3</ele>
        <time>2022-08-06T10:41:35Z</time>
      </trkpt>
      <trkpt lat="44.92131" lon="1.80734">
        <ele>132.2</ele>
        <time>2022-08-06T10:41:37Z</time>
      </trkpt>
      <trkpt lat="44.92128" lon="1.80739">
        <ele>132.1</ele>
        <time>2022-08-06T10:41:39Z</time>
      </trkpt>
      <trkpt lat="44.92124" lon="1.80744">
        <ele>132.1</ele>
        <time>2022-08-06T10:41:41Z</time>
      </trkpt>
      <trkpt lat="44.92119" lon="1.80747">
        <ele>132</ele>
        <time>2022-08-06T10:41:43Z</time>
      </trkpt>
      <trkpt lat="44.92114" lon="1.8075">
        <ele>132</ele>
        <time>2022-08-06T10:41:45Z</time>
      </trkpt>
      <trkpt lat="44.92109" lon="1.80755">
        <ele>132</ele>
        <time>2022-08-06T10:41:47Z</time>
      </trkpt>
      <trkpt lat="44.92103" lon="1.80762">
        <ele>132</ele>
        <time>2022-08-06T10:41:49Z</time>
      </trkpt>
      <trkpt lat="44.92096" lon="1.80767">
        <ele>132</ele>
        <time>2022-08-06T10:41:51Z</time>
      </trkpt>
      <trkpt lat="44.92089" lon="1.80772">
        <ele>132</ele>
        <time>2022-08-06T10:41:53Z</time>
      </trkpt>
      <trkpt lat="44.92081" lon="1.80779">
        <ele>132</ele>
        <time>2022-08-06T10:41:55Z</time>
      </trkpt>
      <trkpt lat="44.92074" lon="1.80785">
        <ele>131.9</ele>
        <time>2022-08-06T10:41:57Z</time>
      </trkpt>
      <trkpt lat="44.92066" lon="1.80791">
        <ele>131.9</ele>
        <time>2022-08-06T10:41:59Z</time>
      </trkpt>
      <trkpt lat="44.92058" lon="1.80797">
        <ele>131.9</ele>
        <time>2022-08-06T10:42:01Z</time>
      </trkpt>
      <trkpt lat="44.92051" lon="1.80803">
        <ele>131.9</ele>
        <time>2022-08-06T10:42:03Z</time>
      </trkpt>
      <trkpt lat="44.92043" lon="1.80809">
        <ele>131.9</ele>
        <time>2022-08-06T10:42:05Z</time>
      </trkpt>
      <trkpt lat="44.92035" lon="1.80815">
        <ele>131.9</ele>
        <time>2022-08-06T10:42:07Z</time>
      </trkpt>
      <trkpt lat="44.92028" lon="1.80821">
        <ele>131.9</ele>
        <time>2022-08-06T10:42:09Z</time>
      </trkpt>
      <trkpt lat="44.9202" lon="1.80827">
        <ele>131.9</ele>
        <time>2022-08-06T10:42:11Z</time>
      </trkpt>
      <trkpt lat="44.92013" lon="1.80833">
        <ele>132</ele>
        <time>2022-08-06T10:42:13Z</time>
      </trkpt>
      <trkpt lat="44.92005" lon="1.80839">
        <ele>132</ele>
        <time>2022-08-06T10:42:15Z</time>
      </trkpt>
      <trkpt lat="44.91998" lon="1.80844">
        <ele>132</ele>
        <time>2022-08-06T10:42:17Z</time>
      </trkpt>
      <trkpt lat="44.91991" lon="1.80851">
        <ele>132.1</ele>
        <time>2022-08-06T10:42:19Z</time>
      </trkpt>
      <trkpt lat="44.91984" lon="1.80857">
        <ele>132.2</ele>
        <time>2022-08-06T10:42:21Z</time>
      </trkpt>
      <trkpt lat="44.91976" lon="1.80862">
        <ele>132.3</ele>
        <time>2022-08-06T10:42:23Z</time>
      </trkpt>
      <trkpt lat="44.91969" lon="1.80868">
        <ele>132.4</ele>
        <time>2022-08-06T10:42:25Z</time>
      </trkpt>
      <trkpt lat="44.91962" lon="1.80874">
        <ele>132.5</ele>
        <time>2022-08-06T10:42:27Z</time>
      </trkpt>
      <trkpt lat="44.91955" lon="1.80879">
        <ele>132.5</ele>
        <time>2022-08-06T10:42:29Z</time>
      </trkpt>
      <trkpt lat="44.91948" lon="1.80885">
        <ele>132.6</ele>
        <time>2022-08-06T10:42:31Z</time>
      </trkpt>
      <trkpt lat="44.91941" lon="1.8089">
        <ele>132.7</ele>
        <time>2022-08-06T10:42:33Z</time>
      </trkpt>
      <trkpt lat="44.91933" lon="1.80897">
        <ele>132.8</ele>
        <time>2022-08-06T10:42:35Z</time>
      </trkpt>
      <trkpt lat="44.91926" lon="1.80902">
        <ele>132.9</ele>
        <time>2022-08-06T10:42:37Z</time>
      </trkpt>
      <trkpt lat="44.91918" lon="1.80908">
        <ele>133</ele>
        <time>2022-08-06T10:42:39Z</time>
      </trkpt>
      <trkpt lat="44.91911" lon="1.80914">
        <ele>133</ele>
        <time>2022-08-06T10:42:41Z</time>
      </trkpt>
      <trkpt lat="44.91904" lon="1.8092">
        <ele>133</ele>
        <time>2022-08-06T10:42:43Z</time>
      </trkpt>
      <trkpt lat="44.91897" lon="1.80925">
        <ele>133</ele>
        <time>2022-08-06T10:42:45Z</time>
      </trkpt>
      <trkpt lat="44.9189" lon="1.80932">
        <ele>133.1</ele>
        <time>2022-08-06T10:42:47Z</time>
      </trkpt>
      <trkpt lat="44.91883" lon="1.80938">
        <ele>133.1</ele>
        <time>2022-08-06T10:42:49Z</time>
      </trkpt>
      <trkpt lat="44.91876" lon="1.80944">
        <ele>133.2</ele>
        <time>2022-08-06T10:42:51Z</time>
      </trkpt>
      <trkpt lat="44.9187" lon="1.80951">
        <ele>133.2</ele>
        <time>2022-08-06T10:42:53Z</time>
      </trkpt>
      <trkpt lat="44.91864" lon="1.80957">
        <ele>133.3</ele>
        <time>2022-08-06T10:42:55Z</time>
      </trkpt>
      <trkpt lat="44.91858" lon="1.80964">
        <ele>133.4</ele>
        <time>2022-08-06T10:42:57Z</time>
      </trkpt>
      <trkpt lat="44.91851" lon="1.80972">
        <ele>133.5</ele>
        <time>2022-08-06T10:42:59Z</time>
      </trkpt>
      <trkpt lat="44.91844" lon="1.8098">
        <ele>133.7</ele>
        <time>2022-08-06T10:43:01Z</time>
      </trkpt>
      <trkpt lat="44.91838" lon="1.80988">
        <ele>133.8</ele>
        <time>2022-08-06T10:43:03Z</time>
      </trkpt>
      <trkpt lat="44.91832" lon="1.80995">
        <ele>134</ele>
        <time>2022-08-06T10:43:05Z</time>
      </trkpt>
      <trkpt lat="44.91826" lon="1.81003">
        <ele>134.2</ele>
        <time>2022-08-06T10:43:07Z</time>
      </trkpt>
      <trkpt lat="44.91819" lon="1.8101">
        <ele>134.3</ele>
        <time>2022-08-06T10:43:09Z</time>
      </trkpt>
      <trkpt lat="44.91812" lon="1.81018">
        <ele>134.5</ele>
        <time>2022-08-06T10:43:11Z</time>
      </trkpt>
      <trkpt lat="44.91805" lon="1.81026">
        <ele>134.6</ele>
        <time>2022-08-06T10:43:13Z</time>
      </trkpt>
      <trkpt lat="44.91798" lon="1.81034">
        <ele>134.7</ele>
        <time>2022-08-06T10:43:15Z</time>
      </trkpt>
      <trkpt lat="44.91792" lon="1.81042">
        <ele>134.7</ele>
        <time>2022-08-06T10:43:17Z</time>
      </trkpt>
      <trkpt lat="44.91785" lon="1.8105">
        <ele>134.8</ele>
        <time>2022-08-06T10:43:19Z</time>
      </trkpt>
      <trkpt lat="44.91778" lon="1.81059">
        <ele>134.9</ele>
        <time>2022-08-06T10:43:21Z</time>
      </trkpt>
      <trkpt lat="44.9177" lon="1.81067">
        <ele>134.9</ele>
        <time>2022-08-06T10:43:23Z</time>
      </trkpt>
      <trkpt lat="44.91764" lon="1.81076">
        <ele>134.9</ele>
        <time>2022-08-06T10:43:25Z</time>
      </trkpt>
      <trkpt lat="44.91757" lon="1.81085">
        <ele>134.9</ele>
        <time>2022-08-06T10:43:27Z</time>
      </trkpt>
      <trkpt lat="44.91749" lon="1.81093">
        <ele>134.7</ele>
        <time>2022-08-06T10:43:29Z</time>
      </trkpt>
      <trkpt lat="44.91741" lon="1.81102">
        <ele>134.4</ele>
        <time>2022-08-06T10:43:31Z</time>
      </trkpt>
      <trkpt lat="44.91734" lon="1.81111">
        <ele>134.1</ele>
        <time>2022-08-06T10:43:33Z</time>
      </trkpt>
      <trkpt lat="44.91727" lon="1.81119">
        <ele>133.8</ele>
        <time>2022-08-06T10:43:35Z</time>
      </trkpt>
      <trkpt lat="44.9172" lon="1.81126">
        <ele>133.6</ele>
        <time>2022-08-06T10:43:37Z</time>
      </trkpt>
      <trkpt lat="44.91714" lon="1.81134">
        <ele>133.4</ele>
        <time>2022-08-06T10:43:39Z</time>
      </trkpt>
      <trkpt lat="44.91709" lon="1.8114">
        <ele>133.3</ele>
        <time>2022-08-06T10:43:41Z</time>
      </trkpt>
      <trkpt lat="44.91706" lon="1.81147">
        <ele>133.2</ele>
        <time>2022-08-06T10:43:43Z</time>
      </trkpt>
      <trkpt lat="44.91709" lon="1.81155">
        <ele>133.1</ele>
        <time>2022-08-06T10:43:45Z</time>
      </trkpt>
      <trkpt lat="44.91713" lon="1.81161">
        <ele>133.1</ele>
        <time>2022-08-06T10:43:47Z</time>
      </trkpt>
      <trkpt lat="44.91718" lon="1.81166">
        <ele>133</ele>
        <time>2022-08-06T10:43:49Z</time>
      </trkpt>
      <trkpt lat="44.91723" lon="1.81172">
        <ele>132.9</ele>
        <time>2022-08-06T10:43:51Z</time>
      </trkpt>
      <trkpt lat="44.91729" lon="1.81176">
        <ele>132.9</ele>
        <time>2022-08-06T10:43:53Z</time>
      </trkpt>
      <trkpt lat="44.91734" lon="1.81182">
        <ele>132.8</ele>
        <time>2022-08-06T10:43:55Z</time>
      </trkpt>
      <trkpt lat="44.91739" lon="1.81187">
        <ele>132.7</ele>
        <time>2022-08-06T10:43:57Z</time>
      </trkpt>
      <trkpt lat="44.91744" lon="1.81194">
        <ele>132.6</ele>
        <time>2022-08-06T10:43:59Z</time>
      </trkpt>
      <trkpt lat="44.91751" lon="1.812">
        <ele>132.6</ele>
        <time>2022-08-06T10:44:01Z</time>
      </trkpt>
      <trkpt lat="44.91757" lon="1.81207">
        <ele>132.5</ele>
        <time>2022-08-06T10:44:03Z</time>
      </trkpt>
      <trkpt lat="44.91763" lon="1.81214">
        <ele>132.4</ele>
        <time>2022-08-06T10:44:05Z</time>
      </trkpt>
      <trkpt lat="44.9177" lon="1.81221">
        <ele>132.3</ele>
        <time>2022-08-06T10:44:07Z</time>
      </trkpt>
      <trkpt lat="44.91776" lon="1.81229">
        <ele>132.3</ele>
        <time>2022-08-06T10:44:09Z</time>
      </trkpt>
      <trkpt lat="44.91783" lon="1.81237">
        <ele>132.2</ele>
        <time>2022-08-06T10:44:11Z</time>
      </trkpt>
      <trkpt lat="44.91789" lon="1.81245">
        <ele>132.1</ele>
        <time>2022-08-06T10:44:13Z</time>
      </trkpt>
      <trkpt lat="44.91796" lon="1.81253">
        <ele>132</ele>
        <time>2022-08-06T10:44:15Z</time>
      </trkpt>
      <trkpt lat="44.91801" lon="1.81262">
        <ele>131.9</ele>
        <time>2022-08-06T10:44:17Z</time>
      </trkpt>
      <trkpt lat="44.91806" lon="1.81272">
        <ele>131.9</ele>
        <time>2022-08-06T10:44:19Z</time>
      </trkpt>
      <trkpt lat="44.9181" lon="1.81283">
        <ele>131.9</ele>
        <time>2022-08-06T10:44:21Z</time>
      </trkpt>
      <trkpt lat="44.91814" lon="1.81294">
        <ele>131.9</ele>
        <time>2022-08-06T10:44:23Z</time>
      </trkpt>
      <trkpt lat="44.91817" lon="1.81305">
        <ele>131.9</ele>
        <time>2022-08-06T10:44:25Z</time>
      </trkpt>
      <trkpt lat="44.91821" lon="1.81317">
        <ele>131.9</ele>
        <time>2022-08-06T10:44:27Z</time>
      </trkpt>
      <trkpt lat="44.91824" lon="1.81328">
        <ele>131.9</ele>
        <time>2022-08-06T10:44:29Z</time>
      </trkpt>
      <trkpt lat="44.91828" lon="1.81339">
        <ele>132</ele>
        <time>2022-08-06T10:44:31Z</time>
      </trkpt>
      <trkpt lat="44.91832" lon="1.81349">
        <ele>132.2</ele>
        <time>2022-08-06T10:44:33Z</time>
      </trkpt>
      <trkpt lat="44.91836" lon="1.81358">
        <ele>132.3</ele>
        <time>2022-08-06T10:44:35Z</time>
      </trkpt>
      <trkpt lat="44.91842" lon="1.81367">
        <ele>132.5</ele>
        <time>2022-08-06T10:44:37Z</time>
      </trkpt>
      <trkpt lat="44.91848" lon="1.81374">
        <ele>132.7</ele>
        <time>2022-08-06T10:44:39Z</time>
      </trkpt>
      <trkpt lat="44.91853" lon="1.81382">
        <ele>132.8</ele>
        <time>2022-08-06T10:44:41Z</time>
      </trkpt>
      <trkpt lat="44.9186" lon="1.8139">
        <ele>133</ele>
        <time>2022-08-06T10:44:43Z</time>
      </trkpt>
      <trkpt lat="44.91864" lon="1.81399">
        <ele>133.2</ele>
        <time>2022-08-06T10:44:45Z</time>
      </trkpt>
      <trkpt lat="44.91869" lon="1.81408">
        <ele>133.3</ele>
        <time>2022-08-06T10:44:47Z</time>
      </trkpt>
      <trkpt lat="44.91872" lon="1.81418">
        <ele>133.5</ele>
        <time>2022-08-06T10:44:49Z</time>
      </trkpt>
      <trkpt lat="44.91875" lon="1.81428">
        <ele>133.4</ele>
        <time>2022-08-06T10:44:51Z</time>
      </trkpt>
      <trkpt lat="44.91878" lon="1.81438">
        <ele>133.3</ele>
        <time>2022-08-06T10:44:53Z</time>
      </trkpt>
      <trkpt lat="44.91881" lon="1.81449">
        <ele>133.2</ele>
        <time>2022-08-06T10:44:55Z</time>
      </trkpt>
      <trkpt lat="44.91884" lon="1.81459">
        <ele>133.1</ele>
        <time>2022-08-06T10:44:57Z</time>
      </trkpt>
      <trkpt lat="44.91888" lon="1.81469">
        <ele>133</ele>
        <time>2022-08-06T10:44:59Z</time>
      </trkpt>
      <trkpt lat="44.91891" lon="1.81479">
        <ele>132.9</ele>
        <time>2022-08-06T10:45:01Z</time>
      </trkpt>
      <trkpt lat="44.91894" lon="1.8149">
        <ele>132.9</ele>
        <time>2022-08-06T10:45:03Z</time>
      </trkpt>
      <trkpt lat="44.91898" lon="1.815">
        <ele>132.8</ele>
        <time>2022-08-06T10:45:05Z</time>
      </trkpt>
      <trkpt lat="44.91902" lon="1.81511">
        <ele>132.7</ele>
        <time>2022-08-06T10:45:07Z</time>
      </trkpt>
      <trkpt lat="44.91906" lon="1.81521">
        <ele>132.7</ele>
        <time>2022-08-06T10:45:09Z</time>
      </trkpt>
      <trkpt lat="44.9191" lon="1.81531">
        <ele>132.6</ele>
        <time>2022-08-06T10:45:11Z</time>
      </trkpt>
      <trkpt lat="44.91914" lon="1.81542">
        <ele>132.5</ele>
        <time>2022-08-06T10:45:13Z</time>
      </trkpt>
      <trkpt lat="44.91919" lon="1.81552">
        <ele>132.4</ele>
        <time>2022-08-06T10:45:15Z</time>
      </trkpt>
      <trkpt lat="44.91923" lon="1.81563">
        <ele>132.3</ele>
        <time>2022-08-06T10:45:17Z</time>
      </trkpt>
      <trkpt lat="44.91927" lon="1.81574">
        <ele>132.2</ele>
        <time>2022-08-06T10:45:19Z</time>
      </trkpt>
      <trkpt lat="44.91932" lon="1.81585">
        <ele>132.2</ele>
        <time>2022-08-06T10:45:21Z</time>
      </trkpt>
      <trkpt lat="44.91936" lon="1.81596">
        <ele>132.1</ele>
        <time>2022-08-06T10:45:23Z</time>
      </trkpt>
      <trkpt lat="44.91942" lon="1.81609">
        <ele>132.1</ele>
        <time>2022-08-06T10:45:25Z</time>
      </trkpt>
      <trkpt lat="44.91945" lon="1.81618">
        <ele>132.1</ele>
        <time>2022-08-06T10:45:27Z</time>
      </trkpt>
      <trkpt lat="44.9195" lon="1.81628">
        <ele>132.1</ele>
        <time>2022-08-06T10:45:29Z</time>
      </trkpt>
      <trkpt lat="44.91955" lon="1.8164">
        <ele>132.1</ele>
        <time>2022-08-06T10:45:31Z</time>
      </trkpt>
      <trkpt lat="44.9196" lon="1.8165">
        <ele>132.1</ele>
        <time>2022-08-06T10:45:33Z</time>
      </trkpt>
      <trkpt lat="44.91966" lon="1.81659">
        <ele>132.2</ele>
        <time>2022-08-06T10:45:35Z</time>
      </trkpt>
      <trkpt lat="44.9197" lon="1.81668">
        <ele>132.3</ele>
        <time>2022-08-06T10:45:37Z</time>
      </trkpt>
      <trkpt lat="44.91975" lon="1.81677">
        <ele>132.4</ele>
        <time>2022-08-06T10:45:39Z</time>
      </trkpt>
      <trkpt lat="44.91981" lon="1.81685">
        <ele>132.5</ele>
        <time>2022-08-06T10:45:41Z</time>
      </trkpt>
      <trkpt lat="44.91987" lon="1.81691">
        <ele>132.7</ele>
        <time>2022-08-06T10:45:43Z</time>
      </trkpt>
      <trkpt lat="44.91994" lon="1.81697">
        <ele>132.9</ele>
        <time>2022-08-06T10:45:45Z</time>
      </trkpt>
      <trkpt lat="44.92001" lon="1.81703">
        <ele>133</ele>
        <time>2022-08-06T10:45:47Z</time>
      </trkpt>
      <trkpt lat="44.92008" lon="1.81709">
        <ele>133.1</ele>
        <time>2022-08-06T10:45:49Z</time>
      </trkpt>
      <trkpt lat="44.92015" lon="1.81715">
        <ele>133.3</ele>
        <time>2022-08-06T10:45:51Z</time>
      </trkpt>
      <trkpt lat="44.92022" lon="1.81721">
        <ele>133.4</ele>
        <time>2022-08-06T10:45:53Z</time>
      </trkpt>
      <trkpt lat="44.9203" lon="1.81726">
        <ele>133.5</ele>
        <time>2022-08-06T10:45:55Z</time>
      </trkpt>
      <trkpt lat="44.92037" lon="1.81731">
        <ele>133.5</ele>
        <time>2022-08-06T10:45:57Z</time>
      </trkpt>
      <trkpt lat="44.92044" lon="1.81737">
        <ele>133.6</ele>
        <time>2022-08-06T10:45:59Z</time>
      </trkpt>
      <trkpt lat="44.92051" lon="1.81743">
        <ele>133.7</ele>
        <time>2022-08-06T10:46:01Z</time>
      </trkpt>
      <trkpt lat="44.92058" lon="1.81749">
        <ele>133.7</ele>
        <time>2022-08-06T10:46:03Z</time>
      </trkpt>
      <trkpt lat="44.92065" lon="1.81756">
        <ele>133.8</ele>
        <time>2022-08-06T10:46:05Z</time>
      </trkpt>
      <trkpt lat="44.92072" lon="1.81762">
        <ele>133.8</ele>
        <time>2022-08-06T10:46:07Z</time>
      </trkpt>
      <trkpt lat="44.92079" lon="1.81768">
        <ele>133.9</ele>
        <time>2022-08-06T10:46:09Z</time>
      </trkpt>
      <trkpt lat="44.92086" lon="1.81774">
        <ele>134</ele>
        <time>2022-08-06T10:46:11Z</time>
      </trkpt>
      <trkpt lat="44.92094" lon="1.8178">
        <ele>134</ele>
        <time>2022-08-06T10:46:13Z</time>
      </trkpt>
      <trkpt lat="44.92101" lon="1.81786">
        <ele>134</ele>
        <time>2022-08-06T10:46:15Z</time>
      </trkpt>
      <trkpt lat="44.92108" lon="1.81792">
        <ele>134</ele>
        <time>2022-08-06T10:46:17Z</time>
      </trkpt>
      <trkpt lat="44.92115" lon="1.81797">
        <ele>134</ele>
        <time>2022-08-06T10:46:19Z</time>
      </trkpt>
      <trkpt lat="44.92122" lon="1.81803">
        <ele>134</ele>
        <time>2022-08-06T10:46:21Z</time>
      </trkpt>
      <trkpt lat="44.92129" lon="1.81809">
        <ele>134</ele>
        <time>2022-08-06T10:46:23Z</time>
      </trkpt>
      <trkpt lat="44.92135" lon="1.81814">
        <ele>134</ele>
        <time>2022-08-06T10:46:25Z</time>
      </trkpt>
      <trkpt lat="44.92142" lon="1.81821">
        <ele>134</ele>
        <time>2022-08-06T10:46:27Z</time>
      </trkpt>
      <trkpt lat="44.92148" lon="1.81827">
        <ele>134</ele>
        <time>2022-08-06T10:46:29Z</time>
      </trkpt>
      <trkpt lat="44.92154" lon="1.81834">
        <ele>134</ele>
        <time>2022-08-06T10:46:31Z</time>
      </trkpt>
      <trkpt lat="44.92161" lon="1.81841">
        <ele>134</ele>
        <time>2022-08-06T10:46:33Z</time>
      </trkpt>
      <trkpt lat="44.92166" lon="1.81848">
        <ele>134</ele>
        <time>2022-08-06T10:46:35Z</time>
      </trkpt>
      <trkpt lat="44.92172" lon="1.81855">
        <ele>134.1</ele>
        <time>2022-08-06T10:46:37Z</time>
      </trkpt>
      <trkpt lat="44.92178" lon="1.81861">
        <ele>134.1</ele>
        <time>2022-08-06T10:46:39Z</time>
      </trkpt>
      <trkpt lat="44.92184" lon="1.81868">
        <ele>134.1</ele>
        <time>2022-08-06T10:46:41Z</time>
      </trkpt>
      <trkpt lat="44.9219" lon="1.81875">
        <ele>134.1</ele>
        <time>2022-08-06T10:46:43Z</time>
      </trkpt>
      <trkpt lat="44.92194" lon="1.81881">
        <ele>134.1</ele>
        <time>2022-08-06T10:46:45Z</time>
      </trkpt>
      <trkpt lat="44.92198" lon="1.81886">
        <ele>134.1</ele>
        <time>2022-08-06T10:46:47Z</time>
      </trkpt>
      <trkpt lat="44.92201" lon="1.8189">
        <ele>134.1</ele>
        <time>2022-08-06T10:46:49Z</time>
      </trkpt>
      <trkpt lat="44.92203" lon="1.81893">
        <ele>134.1</ele>
        <time>2022-08-06T10:46:51Z</time>
      </trkpt>
      <trkpt lat="44.92203" lon="1.81893">
        <ele>134.1</ele>
        <time>2022-08-06T10:46:53Z</time>
      </trkpt>
      <trkpt lat="44.92203" lon="1.81894">
        <ele>134.1</ele>
        <time>2022-08-06T10:46:55Z</time>
      </trkpt>
      <trkpt lat="44.92203" lon="1.81893">
        <ele>134.1</ele>
        <time>2022-08-06T10:46:57Z</time>
      </trkpt>
      <trkpt lat="44.92203" lon="1.81893">
        <ele>134.1</ele>
        <time>2022-08-06T10:46:59Z</time>
      </trkpt>
      <trkpt lat="44.92207" lon="1.81916">
        <ele>134</ele>
        <time>2022-08-06T10:47:53Z</time>
      </trkpt>
      <trkpt lat="44.92208" lon="1.81925">
        <ele>134.1</ele>
        <time>2022-08-06T10:47:55Z</time>
      </trkpt>
      <trkpt lat="44.92208" lon="1.81935">
        <ele>134.2</ele>
        <time>2022-08-06T10:47:57Z</time>
      </trkpt>
      <trkpt lat="44.9221" lon="1.81946">
        <ele>134.3</ele>
        <time>2022-08-06T10:47:59Z</time>
      </trkpt>
      <trkpt lat="44.9221" lon="1.81958">
        <ele>134.5</ele>
        <time>2022-08-06T10:48:01Z</time>
      </trkpt>
      <trkpt lat="44.92211" lon="1.81969">
        <ele>134.6</ele>
        <time>2022-08-06T10:48:03Z</time>
      </trkpt>
      <trkpt lat="44.92212" lon="1.81981">
        <ele>134.8</ele>
        <time>2022-08-06T10:48:05Z</time>
      </trkpt>
      <trkpt lat="44.92212" lon="1.81993">
        <ele>134.9</ele>
        <time>2022-08-06T10:48:07Z</time>
      </trkpt>
      <trkpt lat="44.92213" lon="1.82005">
        <ele>134.9</ele>
        <time>2022-08-06T10:48:09Z</time>
      </trkpt>
      <trkpt lat="44.92214" lon="1.82018">
        <ele>134.8</ele>
        <time>2022-08-06T10:48:11Z</time>
      </trkpt>
      <trkpt lat="44.92215" lon="1.8203">
        <ele>134.6</ele>
        <time>2022-08-06T10:48:13Z</time>
      </trkpt>
      <trkpt lat="44.92215" lon="1.82042">
        <ele>134.5</ele>
        <time>2022-08-06T10:48:15Z</time>
      </trkpt>
      <trkpt lat="44.92216" lon="1.82054">
        <ele>134.4</ele>
        <time>2022-08-06T10:48:17Z</time>
      </trkpt>
      <trkpt lat="44.92216" lon="1.82066">
        <ele>134.2</ele>
        <time>2022-08-06T10:48:19Z</time>
      </trkpt>
      <trkpt lat="44.92217" lon="1.82078">
        <ele>134.1</ele>
        <time>2022-08-06T10:48:21Z</time>
      </trkpt>
      <trkpt lat="44.92218" lon="1.8209">
        <ele>134</ele>
        <time>2022-08-06T10:48:23Z</time>
      </trkpt>
      <trkpt lat="44.92219" lon="1.82101">
        <ele>133.9</ele>
        <time>2022-08-06T10:48:25Z</time>
      </trkpt>
      <trkpt lat="44.92219" lon="1.82112">
        <ele>133.9</ele>
        <time>2022-08-06T10:48:27Z</time>
      </trkpt>
      <trkpt lat="44.92217" lon="1.82123">
        <ele>133.8</ele>
        <time>2022-08-06T10:48:29Z</time>
      </trkpt>
      <trkpt lat="44.92213" lon="1.82135">
        <ele>133.7</ele>
        <time>2022-08-06T10:48:31Z</time>
      </trkpt>
      <trkpt lat="44.92208" lon="1.82147">
        <ele>133.6</ele>
        <time>2022-08-06T10:48:33Z</time>
      </trkpt>
      <trkpt lat="44.92203" lon="1.82159">
        <ele>133.5</ele>
        <time>2022-08-06T10:48:35Z</time>
      </trkpt>
      <trkpt lat="44.92198" lon="1.82169">
        <ele>133.4</ele>
        <time>2022-08-06T10:48:37Z</time>
      </trkpt>
      <trkpt lat="44.92193" lon="1.82178">
        <ele>133.3</ele>
        <time>2022-08-06T10:48:39Z</time>
      </trkpt>
      <trkpt lat="44.92188" lon="1.82188">
        <ele>133.2</ele>
        <time>2022-08-06T10:48:41Z</time>
      </trkpt>
      <trkpt lat="44.92183" lon="1.82197">
        <ele>133.1</ele>
        <time>2022-08-06T10:48:43Z</time>
      </trkpt>
      <trkpt lat="44.92178" lon="1.82205">
        <ele>133.1</ele>
        <time>2022-08-06T10:48:45Z</time>
      </trkpt>
      <trkpt lat="44.92172" lon="1.82214">
        <ele>133</ele>
        <time>2022-08-06T10:48:47Z</time>
      </trkpt>
      <trkpt lat="44.92167" lon="1.82223">
        <ele>133</ele>
        <time>2022-08-06T10:48:49Z</time>
      </trkpt>
      <trkpt lat="44.92163" lon="1.82234">
        <ele>133</ele>
        <time>2022-08-06T10:48:51Z</time>
      </trkpt>
      <trkpt lat="44.92165" lon="1.82246">
        <ele>133</ele>
        <time>2022-08-06T10:48:53Z</time>
      </trkpt>
      <trkpt lat="44.92168" lon="1.82258">
        <ele>133</ele>
        <time>2022-08-06T10:48:55Z</time>
      </trkpt>
      <trkpt lat="44.92171" lon="1.8227">
        <ele>133</ele>
        <time>2022-08-06T10:48:57Z</time>
      </trkpt>
      <trkpt lat="44.92174" lon="1.82281">
        <ele>133</ele>
        <time>2022-08-06T10:48:59Z</time>
      </trkpt>
      <trkpt lat="44.92176" lon="1.82293">
        <ele>133.1</ele>
        <time>2022-08-06T10:49:01Z</time>
      </trkpt>
      <trkpt lat="44.92179" lon="1.82305">
        <ele>133.1</ele>
        <time>2022-08-06T10:49:03Z</time>
      </trkpt>
      <trkpt lat="44.92182" lon="1.82317">
        <ele>133.1</ele>
        <time>2022-08-06T10:49:05Z</time>
      </trkpt>
      <trkpt lat="44.92184" lon="1.8233">
        <ele>133.2</ele>
        <time>2022-08-06T10:49:07Z</time>
      </trkpt>
      <trkpt lat="44.92187" lon="1.82343">
        <ele>133.3</ele>
        <time>2022-08-06T10:49:09Z</time>
      </trkpt>
      <trkpt lat="44.92189" lon="1.82357">
        <ele>133.3</ele>
        <time>2022-08-06T10:49:11Z</time>
      </trkpt>
      <trkpt lat="44.92191" lon="1.8237">
        <ele>133.4</ele>
        <time>2022-08-06T10:49:13Z</time>
      </trkpt>
      <trkpt lat="44.92193" lon="1.82384">
        <ele>133.5</ele>
        <time>2022-08-06T10:49:15Z</time>
      </trkpt>
      <trkpt lat="44.92195" lon="1.82399">
        <ele>133.6</ele>
        <time>2022-08-06T10:49:17Z</time>
      </trkpt>
      <trkpt lat="44.92198" lon="1.82412">
        <ele>133.7</ele>
        <time>2022-08-06T10:49:19Z</time>
      </trkpt>
      <trkpt lat="44.92201" lon="1.82425">
        <ele>133.7</ele>
        <time>2022-08-06T10:49:21Z</time>
      </trkpt>
      <trkpt lat="44.92204" lon="1.82437">
        <ele>133.7</ele>
        <time>2022-08-06T10:49:23Z</time>
      </trkpt>
      <trkpt lat="44.92208" lon="1.82449">
        <ele>133.6</ele>
        <time>2022-08-06T10:49:25Z</time>
      </trkpt>
      <trkpt lat="44.92212" lon="1.82461">
        <ele>133.6</ele>
        <time>2022-08-06T10:49:27Z</time>
      </trkpt>
      <trkpt lat="44.92216" lon="1.82472">
        <ele>133.5</ele>
        <time>2022-08-06T10:49:29Z</time>
      </trkpt>
      <trkpt lat="44.9222" lon="1.82483">
        <ele>133.5</ele>
        <time>2022-08-06T10:49:31Z</time>
      </trkpt>
      <trkpt lat="44.92225" lon="1.82493">
        <ele>133.5</ele>
        <time>2022-08-06T10:49:33Z</time>
      </trkpt>
      <trkpt lat="44.92228" lon="1.82504">
        <ele>133.5</ele>
        <time>2022-08-06T10:49:35Z</time>
      </trkpt>
      <trkpt lat="44.92232" lon="1.82513">
        <ele>133.6</ele>
        <time>2022-08-06T10:49:37Z</time>
      </trkpt>
      <trkpt lat="44.92235" lon="1.82522">
        <ele>133.7</ele>
        <time>2022-08-06T10:49:39Z</time>
      </trkpt>
      <trkpt lat="44.92237" lon="1.8253">
        <ele>133.7</ele>
        <time>2022-08-06T10:49:41Z</time>
      </trkpt>
      <trkpt lat="44.9224" lon="1.82538">
        <ele>133.8</ele>
        <time>2022-08-06T10:49:43Z</time>
      </trkpt>
      <trkpt lat="44.92243" lon="1.82546">
        <ele>133.9</ele>
        <time>2022-08-06T10:49:45Z</time>
      </trkpt>
      <trkpt lat="44.92246" lon="1.82552">
        <ele>133.9</ele>
        <time>2022-08-06T10:49:47Z</time>
      </trkpt>
      <trkpt lat="44.92247" lon="1.82561">
        <ele>134</ele>
        <time>2022-08-06T10:49:49Z</time>
      </trkpt>
      <trkpt lat="44.92248" lon="1.8257">
        <ele>134</ele>
        <time>2022-08-06T10:49:51Z</time>
      </trkpt>
      <trkpt lat="44.92248" lon="1.82581">
        <ele>134</ele>
        <time>2022-08-06T10:49:53Z</time>
      </trkpt>
      <trkpt lat="44.92249" lon="1.82593">
        <ele>134</ele>
        <time>2022-08-06T10:49:55Z</time>
      </trkpt>
      <trkpt lat="44.9225" lon="1.82604">
        <ele>134</ele>
        <time>2022-08-06T10:49:57Z</time>
      </trkpt>
      <trkpt lat="44.9225" lon="1.82617">
        <ele>134</ele>
        <time>2022-08-06T10:49:59Z</time>
      </trkpt>
      <trkpt lat="44.92251" lon="1.82629">
        <ele>134</ele>
        <time>2022-08-06T10:50:01Z</time>
      </trkpt>
      <trkpt lat="44.92251" lon="1.82641">
        <ele>134</ele>
        <time>2022-08-06T10:50:03Z</time>
      </trkpt>
      <trkpt lat="44.92252" lon="1.82654">
        <ele>134</ele>
        <time>2022-08-06T10:50:05Z</time>
      </trkpt>
      <trkpt lat="44.92252" lon="1.82666">
        <ele>134.1</ele>
        <time>2022-08-06T10:50:07Z</time>
      </trkpt>
      <trkpt lat="44.92253" lon="1.82679">
        <ele>134.1</ele>
        <time>2022-08-06T10:50:09Z</time>
      </trkpt>
      <trkpt lat="44.92253" lon="1.82691">
        <ele>134.1</ele>
        <time>2022-08-06T10:50:11Z</time>
      </trkpt>
      <trkpt lat="44.92254" lon="1.82704">
        <ele>134.1</ele>
        <time>2022-08-06T10:50:13Z</time>
      </trkpt>
      <trkpt lat="44.92253" lon="1.82717">
        <ele>134.1</ele>
        <time>2022-08-06T10:50:15Z</time>
      </trkpt>
      <trkpt lat="44.92254" lon="1.82729">
        <ele>134.1</ele>
        <time>2022-08-06T10:50:17Z</time>
      </trkpt>
      <trkpt lat="44.92254" lon="1.82742">
        <ele>134.1</ele>
        <time>2022-08-06T10:50:19Z</time>
      </trkpt>
      <trkpt lat="44.92254" lon="1.82754">
        <ele>134.2</ele>
        <time>2022-08-06T10:50:21Z</time>
      </trkpt>
      <trkpt lat="44.92255" lon="1.82766">
        <ele>134.3</ele>
        <time>2022-08-06T10:50:23Z</time>
      </trkpt>
      <trkpt lat="44.92254" lon="1.82778">
        <ele>134.4</ele>
        <time>2022-08-06T10:50:25Z</time>
      </trkpt>
      <trkpt lat="44.92254" lon="1.82789">
        <ele>134.5</ele>
        <time>2022-08-06T10:50:27Z</time>
      </trkpt>
      <trkpt lat="44.9225" lon="1.82798">
        <ele>134.6</ele>
        <time>2022-08-06T10:50:29Z</time>
      </trkpt>
      <trkpt lat="44.92246" lon="1.82798">
        <ele>134.5</ele>
        <time>2022-08-06T10:50:30Z</time>
      </trkpt>
      <trkpt lat="44.92235" lon="1.82794">
        <ele>134.2</ele>
        <time>2022-08-06T10:50:33Z</time>
      </trkpt>
      <trkpt lat="44.92228" lon="1.82792">
        <ele>134</ele>
        <time>2022-08-06T10:50:35Z</time>
      </trkpt>
      <trkpt lat="44.9222" lon="1.82787">
        <ele>133.7</ele>
        <time>2022-08-06T10:50:37Z</time>
      </trkpt>
      <trkpt lat="44.9221" lon="1.82779">
        <ele>133.4</ele>
        <time>2022-08-06T10:50:39Z</time>
      </trkpt>
      <trkpt lat="44.92199" lon="1.8277">
        <ele>133</ele>
        <time>2022-08-06T10:50:41Z</time>
      </trkpt>
      <trkpt lat="44.92189" lon="1.8276">
        <ele>132.7</ele>
        <time>2022-08-06T10:50:43Z</time>
      </trkpt>
      <trkpt lat="44.92181" lon="1.82756">
        <ele>132.4</ele>
        <time>2022-08-06T10:50:45Z</time>
      </trkpt>
      <trkpt lat="44.92173" lon="1.82751">
        <ele>132.1</ele>
        <time>2022-08-06T10:50:47Z</time>
      </trkpt>
      <trkpt lat="44.92164" lon="1.82749">
        <ele>132</ele>
        <time>2022-08-06T10:50:49Z</time>
      </trkpt>
      <trkpt lat="44.92156" lon="1.82749">
        <ele>132.2</ele>
        <time>2022-08-06T10:50:51Z</time>
      </trkpt>
      <trkpt lat="44.92148" lon="1.82748">
        <ele>132.4</ele>
        <time>2022-08-06T10:50:53Z</time>
      </trkpt>
      <trkpt lat="44.9214" lon="1.82748">
        <ele>132.6</ele>
        <time>2022-08-06T10:50:55Z</time>
      </trkpt>
      <trkpt lat="44.92131" lon="1.82749">
        <ele>132.8</ele>
        <time>2022-08-06T10:50:57Z</time>
      </trkpt>
      <trkpt lat="44.92124" lon="1.82749">
        <ele>133</ele>
        <time>2022-08-06T10:50:59Z</time>
      </trkpt>
      <trkpt lat="44.92116" lon="1.82751">
        <ele>133.2</ele>
        <time>2022-08-06T10:51:01Z</time>
      </trkpt>
      <trkpt lat="44.92108" lon="1.82754">
        <ele>133.4</ele>
        <time>2022-08-06T10:51:03Z</time>
      </trkpt>
      <trkpt lat="44.92101" lon="1.82758">
        <ele>133.6</ele>
        <time>2022-08-06T10:51:05Z</time>
      </trkpt>
      <trkpt lat="44.92094" lon="1.82761">
        <ele>133.8</ele>
        <time>2022-08-06T10:51:07Z</time>
      </trkpt>
      <trkpt lat="44.92089" lon="1.82769">
        <ele>133.9</ele>
        <time>2022-08-06T10:51:09Z</time>
      </trkpt>
      <trkpt lat="44.92087" lon="1.82778">
        <ele>133.9</ele>
        <time>2022-08-06T10:51:11Z</time>
      </trkpt>
      <trkpt lat="44.92084" lon="1.82788">
        <ele>134</ele>
        <time>2022-08-06T10:51:13Z</time>
      </trkpt>
      <trkpt lat="44.92081" lon="1.82797">
        <ele>134</ele>
        <time>2022-08-06T10:51:15Z</time>
      </trkpt>
      <trkpt lat="44.92079" lon="1.82806">
        <ele>133.9</ele>
        <time>2022-08-06T10:51:17Z</time>
      </trkpt>
      <trkpt lat="44.92077" lon="1.82817">
        <ele>133.9</ele>
        <time>2022-08-06T10:51:19Z</time>
      </trkpt>
      <trkpt lat="44.92075" lon="1.82827">
        <ele>133.9</ele>
        <time>2022-08-06T10:51:21Z</time>
      </trkpt>
      <trkpt lat="44.92073" lon="1.82837">
        <ele>133.8</ele>
        <time>2022-08-06T10:51:23Z</time>
      </trkpt>
      <trkpt lat="44.92071" lon="1.82847">
        <ele>133.7</ele>
        <time>2022-08-06T10:51:25Z</time>
      </trkpt>
      <trkpt lat="44.92067" lon="1.82857">
        <ele>133.5</ele>
        <time>2022-08-06T10:51:27Z</time>
      </trkpt>
      <trkpt lat="44.92062" lon="1.82865">
        <ele>133.4</ele>
        <time>2022-08-06T10:51:29Z</time>
      </trkpt>
      <trkpt lat="44.92057" lon="1.82874">
        <ele>133.2</ele>
        <time>2022-08-06T10:51:31Z</time>
      </trkpt>
      <trkpt lat="44.92053" lon="1.82883">
        <ele>133</ele>
        <time>2022-08-06T10:51:33Z</time>
      </trkpt>
      <trkpt lat="44.92048" lon="1.82891">
        <ele>132.9</ele>
        <time>2022-08-06T10:51:35Z</time>
      </trkpt>
      <trkpt lat="44.92043" lon="1.82899">
        <ele>132.7</ele>
        <time>2022-08-06T10:51:37Z</time>
      </trkpt>
      <trkpt lat="44.92038" lon="1.82906">
        <ele>132.6</ele>
        <time>2022-08-06T10:51:39Z</time>
      </trkpt>
      <trkpt lat="44.92032" lon="1.82911">
        <ele>132.4</ele>
        <time>2022-08-06T10:51:41Z</time>
      </trkpt>
      <trkpt lat="44.92026" lon="1.82917">
        <ele>132.3</ele>
        <time>2022-08-06T10:51:43Z</time>
      </trkpt>
      <trkpt lat="44.92021" lon="1.82923">
        <ele>132.3</ele>
        <time>2022-08-06T10:51:45Z</time>
      </trkpt>
      <trkpt lat="44.92015" lon="1.82928">
        <ele>132.2</ele>
        <time>2022-08-06T10:51:47Z</time>
      </trkpt>
      <trkpt lat="44.92009" lon="1.82933">
        <ele>132.1</ele>
        <time>2022-08-06T10:51:49Z</time>
      </trkpt>
      <trkpt lat="44.92003" lon="1.82937">
        <ele>132</ele>
        <time>2022-08-06T10:51:51Z</time>
      </trkpt>
      <trkpt lat="44.91998" lon="1.82941">
        <ele>132</ele>
        <time>2022-08-06T10:51:53Z</time>
      </trkpt>
      <trkpt lat="44.91991" lon="1.82946">
        <ele>132</ele>
        <time>2022-08-06T10:51:55Z</time>
      </trkpt>
      <trkpt lat="44.91986" lon="1.8295">
        <ele>131.9</ele>
        <time>2022-08-06T10:51:57Z</time>
      </trkpt>
      <trkpt lat="44.9198" lon="1.82955">
        <ele>131.9</ele>
        <time>2022-08-06T10:51:59Z</time>
      </trkpt>
      <trkpt lat="44.91974" lon="1.8296">
        <ele>131.8</ele>
        <time>2022-08-06T10:52:01Z</time>
      </trkpt>
      <trkpt lat="44.91967" lon="1.82965">
        <ele>131.8</ele>
        <time>2022-08-06T10:52:03Z</time>
      </trkpt>
      <trkpt lat="44.9196" lon="1.82969">
        <ele>131.7</ele>
        <time>2022-08-06T10:52:05Z</time>
      </trkpt>
      <trkpt lat="44.91953" lon="1.82974">
        <ele>131.6</ele>
        <time>2022-08-06T10:52:07Z</time>
      </trkpt>
      <trkpt lat="44.91947" lon="1.82979">
        <ele>131.5</ele>
        <time>2022-08-06T10:52:09Z</time>
      </trkpt>
      <trkpt lat="44.9194" lon="1.82982">
        <ele>131.4</ele>
        <time>2022-08-06T10:52:11Z</time>
      </trkpt>
      <trkpt lat="44.91933" lon="1.82985">
        <ele>131.3</ele>
        <time>2022-08-06T10:52:13Z</time>
      </trkpt>
      <trkpt lat="44.91926" lon="1.82991">
        <ele>131.2</ele>
        <time>2022-08-06T10:52:15Z</time>
      </trkpt>
      <trkpt lat="44.91919" lon="1.82997">
        <ele>131.1</ele>
        <time>2022-08-06T10:52:17Z</time>
      </trkpt>
      <trkpt lat="44.91911" lon="1.83003">
        <ele>131.2</ele>
        <time>2022-08-06T10:52:19Z</time>
      </trkpt>
      <trkpt lat="44.91905" lon="1.83009">
        <ele>131.6</ele>
        <time>2022-08-06T10:52:21Z</time>
      </trkpt>
      <trkpt lat="44.91899" lon="1.83014">
        <ele>132</ele>
        <time>2022-08-06T10:52:23Z</time>
      </trkpt>
      <trkpt lat="44.91894" lon="1.83019">
        <ele>132.3</ele>
        <time>2022-08-06T10:52:25Z</time>
      </trkpt>
      <trkpt lat="44.91887" lon="1.83025">
        <ele>132.7</ele>
        <time>2022-08-06T10:52:27Z</time>
      </trkpt>
      <trkpt lat="44.91881" lon="1.83033">
        <ele>133</ele>
        <time>2022-08-06T10:52:29Z</time>
      </trkpt>
      <trkpt lat="44.91874" lon="1.83039">
        <ele>133.4</ele>
        <time>2022-08-06T10:52:31Z</time>
      </trkpt>
      <trkpt lat="44.91871" lon="1.83042">
        <ele>133.5</ele>
        <time>2022-08-06T10:52:32Z</time>
      </trkpt>
      <trkpt lat="44.91865" lon="1.83048">
        <ele>133.8</ele>
        <time>2022-08-06T10:52:34Z</time>
      </trkpt>
      <trkpt lat="44.91856" lon="1.83059">
        <ele>134.2</ele>
        <time>2022-08-06T10:52:37Z</time>
      </trkpt>
      <trkpt lat="44.9185" lon="1.83066">
        <ele>134.5</ele>
        <time>2022-08-06T10:52:39Z</time>
      </trkpt>
      <trkpt lat="44.91844" lon="1.83072">
        <ele>134.7</ele>
        <time>2022-08-06T10:52:41Z</time>
      </trkpt>
      <trkpt lat="44.91838" lon="1.83078">
        <ele>134.8</ele>
        <time>2022-08-06T10:52:43Z</time>
      </trkpt>
      <trkpt lat="44.91833" lon="1.83085">
        <ele>135</ele>
        <time>2022-08-06T10:52:45Z</time>
      </trkpt>
      <trkpt lat="44.91827" lon="1.83091">
        <ele>134.8</ele>
        <time>2022-08-06T10:52:47Z</time>
      </trkpt>
      <trkpt lat="44.91821" lon="1.83097">
        <ele>134.6</ele>
        <time>2022-08-06T10:52:49Z</time>
      </trkpt>
      <trkpt lat="44.91816" lon="1.83103">
        <ele>134.4</ele>
        <time>2022-08-06T10:52:51Z</time>
      </trkpt>
      <trkpt lat="44.91812" lon="1.83109">
        <ele>134.3</ele>
        <time>2022-08-06T10:52:53Z</time>
      </trkpt>
      <trkpt lat="44.91808" lon="1.83115">
        <ele>134.1</ele>
        <time>2022-08-06T10:52:55Z</time>
      </trkpt>
      <trkpt lat="44.91802" lon="1.8312">
        <ele>134</ele>
        <time>2022-08-06T10:52:57Z</time>
      </trkpt>
      <trkpt lat="44.91797" lon="1.83125">
        <ele>133.8</ele>
        <time>2022-08-06T10:52:59Z</time>
      </trkpt>
      <trkpt lat="44.91793" lon="1.83133">
        <ele>133.7</ele>
        <time>2022-08-06T10:53:01Z</time>
      </trkpt>
      <trkpt lat="44.91789" lon="1.83139">
        <ele>133.6</ele>
        <time>2022-08-06T10:53:03Z</time>
      </trkpt>
      <trkpt lat="44.91785" lon="1.83148">
        <ele>133.5</ele>
        <time>2022-08-06T10:53:05Z</time>
      </trkpt>
      <trkpt lat="44.91782" lon="1.83155">
        <ele>133.4</ele>
        <time>2022-08-06T10:53:07Z</time>
      </trkpt>
      <trkpt lat="44.91778" lon="1.83162">
        <ele>133.3</ele>
        <time>2022-08-06T10:53:09Z</time>
      </trkpt>
      <trkpt lat="44.91774" lon="1.8317">
        <ele>133.2</ele>
        <time>2022-08-06T10:53:11Z</time>
      </trkpt>
      <trkpt lat="44.91771" lon="1.83174">
        <ele>133.2</ele>
        <time>2022-08-06T10:53:13Z</time>
      </trkpt>
      <trkpt lat="44.9177" lon="1.8318">
        <ele>133.1</ele>
        <time>2022-08-06T10:53:15Z</time>
      </trkpt>
      <trkpt lat="44.91769" lon="1.83185">
        <ele>133</ele>
        <time>2022-08-06T10:53:17Z</time>
      </trkpt>
      <trkpt lat="44.91767" lon="1.83191">
        <ele>132.9</ele>
        <time>2022-08-06T10:53:19Z</time>
      </trkpt>
      <trkpt lat="44.91766" lon="1.83199">
        <ele>132.8</ele>
        <time>2022-08-06T10:53:21Z</time>
      </trkpt>
      <trkpt lat="44.91764" lon="1.83207">
        <ele>132.7</ele>
        <time>2022-08-06T10:53:23Z</time>
      </trkpt>
      <trkpt lat="44.91761" lon="1.83215">
        <ele>132.6</ele>
        <time>2022-08-06T10:53:25Z</time>
      </trkpt>
      <trkpt lat="44.91757" lon="1.83221">
        <ele>132.4</ele>
        <time>2022-08-06T10:53:27Z</time>
      </trkpt>
      <trkpt lat="44.91753" lon="1.83228">
        <ele>132.3</ele>
        <time>2022-08-06T10:53:29Z</time>
      </trkpt>
      <trkpt lat="44.9175" lon="1.83235">
        <ele>132.2</ele>
        <time>2022-08-06T10:53:31Z</time>
      </trkpt>
      <trkpt lat="44.91746" lon="1.83241">
        <ele>132.1</ele>
        <time>2022-08-06T10:53:33Z</time>
      </trkpt>
      <trkpt lat="44.91742" lon="1.83248">
        <ele>132.1</ele>
        <time>2022-08-06T10:53:35Z</time>
      </trkpt>
      <trkpt lat="44.91739" lon="1.83254">
        <ele>132.1</ele>
        <time>2022-08-06T10:53:37Z</time>
      </trkpt>
      <trkpt lat="44.91736" lon="1.8326">
        <ele>132.2</ele>
        <time>2022-08-06T10:53:39Z</time>
      </trkpt>
      <trkpt lat="44.91732" lon="1.83267">
        <ele>132.3</ele>
        <time>2022-08-06T10:53:41Z</time>
      </trkpt>
      <trkpt lat="44.91728" lon="1.83273">
        <ele>132.3</ele>
        <time>2022-08-06T10:53:43Z</time>
      </trkpt>
      <trkpt lat="44.91723" lon="1.8328">
        <ele>132.4</ele>
        <time>2022-08-06T10:53:45Z</time>
      </trkpt>
      <trkpt lat="44.9172" lon="1.83288">
        <ele>132.5</ele>
        <time>2022-08-06T10:53:47Z</time>
      </trkpt>
      <trkpt lat="44.91716" lon="1.83295">
        <ele>132.6</ele>
        <time>2022-08-06T10:53:49Z</time>
      </trkpt>
      <trkpt lat="44.91712" lon="1.83302">
        <ele>132.7</ele>
        <time>2022-08-06T10:53:51Z</time>
      </trkpt>
      <trkpt lat="44.91707" lon="1.83309">
        <ele>132.9</ele>
        <time>2022-08-06T10:53:53Z</time>
      </trkpt>
      <trkpt lat="44.91704" lon="1.83315">
        <ele>133</ele>
        <time>2022-08-06T10:53:55Z</time>
      </trkpt>
      <trkpt lat="44.91699" lon="1.83321">
        <ele>133.1</ele>
        <time>2022-08-06T10:53:57Z</time>
      </trkpt>
      <trkpt lat="44.91697" lon="1.83329">
        <ele>133.2</ele>
        <time>2022-08-06T10:53:59Z</time>
      </trkpt>
      <trkpt lat="44.91698" lon="1.83338">
        <ele>133.3</ele>
        <time>2022-08-06T10:54:01Z</time>
      </trkpt>
      <trkpt lat="44.91701" lon="1.83346">
        <ele>133.4</ele>
        <time>2022-08-06T10:54:03Z</time>
      </trkpt>
      <trkpt lat="44.91704" lon="1.83353">
        <ele>133.4</ele>
        <time>2022-08-06T10:54:05Z</time>
      </trkpt>
      <trkpt lat="44.91707" lon="1.83361">
        <ele>133.5</ele>
        <time>2022-08-06T10:54:07Z</time>
      </trkpt>
      <trkpt lat="44.9171" lon="1.83371">
        <ele>133.6</ele>
        <time>2022-08-06T10:54:09Z</time>
      </trkpt>
      <trkpt lat="44.91712" lon="1.8338">
        <ele>133.8</ele>
        <time>2022-08-06T10:54:11Z</time>
      </trkpt>
      <trkpt lat="44.91714" lon="1.8339">
        <ele>133.9</ele>
        <time>2022-08-06T10:54:13Z</time>
      </trkpt>
      <trkpt lat="44.91715" lon="1.834">
        <ele>134.1</ele>
        <time>2022-08-06T10:54:15Z</time>
      </trkpt>
      <trkpt lat="44.91716" lon="1.83409">
        <ele>134.3</ele>
        <time>2022-08-06T10:54:17Z</time>
      </trkpt>
      <trkpt lat="44.91717" lon="1.8342">
        <ele>134.4</ele>
        <time>2022-08-06T10:54:19Z</time>
      </trkpt>
      <trkpt lat="44.91717" lon="1.8343">
        <ele>134.5</ele>
        <time>2022-08-06T10:54:21Z</time>
      </trkpt>
      <trkpt lat="44.91718" lon="1.83441">
        <ele>134.6</ele>
        <time>2022-08-06T10:54:23Z</time>
      </trkpt>
      <trkpt lat="44.91718" lon="1.83452">
        <ele>134.6</ele>
        <time>2022-08-06T10:54:25Z</time>
      </trkpt>
      <trkpt lat="44.91719" lon="1.83463">
        <ele>134.7</ele>
        <time>2022-08-06T10:54:27Z</time>
      </trkpt>
      <trkpt lat="44.91719" lon="1.83473">
        <ele>134.8</ele>
        <time>2022-08-06T10:54:29Z</time>
      </trkpt>
      <trkpt lat="44.9172" lon="1.83484">
        <ele>134.9</ele>
        <time>2022-08-06T10:54:31Z</time>
      </trkpt>
      <trkpt lat="44.9172" lon="1.83495">
        <ele>135</ele>
        <time>2022-08-06T10:54:33Z</time>
      </trkpt>
      <trkpt lat="44.9172" lon="1.83505">
        <ele>134.9</ele>
        <time>2022-08-06T10:54:35Z</time>
      </trkpt>
      <trkpt lat="44.9172" lon="1.83515">
        <ele>134.8</ele>
        <time>2022-08-06T10:54:37Z</time>
      </trkpt>
      <trkpt lat="44.9172" lon="1.83523">
        <ele>134.7</ele>
        <time>2022-08-06T10:54:39Z</time>
      </trkpt>
      <trkpt lat="44.91719" lon="1.83532">
        <ele>134.6</ele>
        <time>2022-08-06T10:54:41Z</time>
      </trkpt>
      <trkpt lat="44.91719" lon="1.83543">
        <ele>134.5</ele>
        <time>2022-08-06T10:54:43Z</time>
      </trkpt>
      <trkpt lat="44.91718" lon="1.83553">
        <ele>134.4</ele>
        <time>2022-08-06T10:54:45Z</time>
      </trkpt>
      <trkpt lat="44.91716" lon="1.83563">
        <ele>134.2</ele>
        <time>2022-08-06T10:54:47Z</time>
      </trkpt>
      <trkpt lat="44.91713" lon="1.83573">
        <ele>134.1</ele>
        <time>2022-08-06T10:54:49Z</time>
      </trkpt>
      <trkpt lat="44.9171" lon="1.83583">
        <ele>134</ele>
        <time>2022-08-06T10:54:51Z</time>
      </trkpt>
      <trkpt lat="44.91707" lon="1.83592">
        <ele>134</ele>
        <time>2022-08-06T10:54:53Z</time>
      </trkpt>
      <trkpt lat="44.91704" lon="1.83601">
        <ele>134.1</ele>
        <time>2022-08-06T10:54:55Z</time>
      </trkpt>
      <trkpt lat="44.91701" lon="1.83612">
        <ele>134.1</ele>
        <time>2022-08-06T10:54:57Z</time>
      </trkpt>
      <trkpt lat="44.917" lon="1.83623">
        <ele>134.2</ele>
        <time>2022-08-06T10:54:59Z</time>
      </trkpt>
      <trkpt lat="44.91699" lon="1.83633">
        <ele>134.2</ele>
        <time>2022-08-06T10:55:01Z</time>
      </trkpt>
      <trkpt lat="44.91697" lon="1.83643">
        <ele>134.3</ele>
        <time>2022-08-06T10:55:03Z</time>
      </trkpt>
      <trkpt lat="44.91694" lon="1.83653">
        <ele>134.3</ele>
        <time>2022-08-06T10:55:05Z</time>
      </trkpt>
      <trkpt lat="44.91691" lon="1.83662">
        <ele>134.3</ele>
        <time>2022-08-06T10:55:07Z</time>
      </trkpt>
      <trkpt lat="44.91688" lon="1.83671">
        <ele>134.3</ele>
        <time>2022-08-06T10:55:09Z</time>
      </trkpt>
      <trkpt lat="44.91686" lon="1.8368">
        <ele>134.3</ele>
        <time>2022-08-06T10:55:11Z</time>
      </trkpt>
      <trkpt lat="44.91683" lon="1.83689">
        <ele>134.4</ele>
        <time>2022-08-06T10:55:13Z</time>
      </trkpt>
      <trkpt lat="44.9168" lon="1.83698">
        <ele>134.4</ele>
        <time>2022-08-06T10:55:15Z</time>
      </trkpt>
      <trkpt lat="44.91678" lon="1.83706">
        <ele>134.5</ele>
        <time>2022-08-06T10:55:17Z</time>
      </trkpt>
      <trkpt lat="44.91673" lon="1.83713">
        <ele>134.5</ele>
        <time>2022-08-06T10:55:19Z</time>
      </trkpt>
      <trkpt lat="44.9167" lon="1.83722">
        <ele>134.6</ele>
        <time>2022-08-06T10:55:21Z</time>
      </trkpt>
      <trkpt lat="44.91667" lon="1.8373">
        <ele>134.8</ele>
        <time>2022-08-06T10:55:23Z</time>
      </trkpt>
      <trkpt lat="44.91667" lon="1.83738">
        <ele>134.8</ele>
        <time>2022-08-06T10:55:25Z</time>
      </trkpt>
      <trkpt lat="44.91667" lon="1.83742">
        <ele>134.9</ele>
        <time>2022-08-06T10:55:27Z</time>
      </trkpt>
      <trkpt lat="44.91668" lon="1.83749">
        <ele>135</ele>
        <time>2022-08-06T10:55:29Z</time>
      </trkpt>
      <trkpt lat="44.9167" lon="1.83758">
        <ele>135</ele>
        <time>2022-08-06T10:55:31Z</time>
      </trkpt>
      <trkpt lat="44.91671" lon="1.83765">
        <ele>135</ele>
        <time>2022-08-06T10:55:33Z</time>
      </trkpt>
      <trkpt lat="44.91672" lon="1.83773">
        <ele>134.9</ele>
        <time>2022-08-06T10:55:35Z</time>
      </trkpt>
      <trkpt lat="44.91672" lon="1.8378">
        <ele>134.9</ele>
        <time>2022-08-06T10:55:37Z</time>
      </trkpt>
      <trkpt lat="44.91671" lon="1.83784">
        <ele>134.9</ele>
        <time>2022-08-06T10:55:39Z</time>
      </trkpt>
      <trkpt lat="44.91671" lon="1.83788">
        <ele>134.9</ele>
        <time>2022-08-06T10:55:41Z</time>
      </trkpt>
      <trkpt lat="44.91671" lon="1.83788">
        <ele>135</ele>
        <time>2022-08-06T10:55:43Z</time>
      </trkpt>
      <trkpt lat="44.91671" lon="1.8379">
        <ele>134.9</ele>
        <time>2022-08-06T10:55:45Z</time>
      </trkpt>
      <trkpt lat="44.91671" lon="1.83789">
        <ele>134.9</ele>
        <time>2022-08-06T10:55:47Z</time>
      </trkpt>
      <trkpt lat="44.91671" lon="1.83789">
        <ele>134.9</ele>
        <time>2022-08-06T10:55:49Z</time>
      </trkpt>
      <trkpt lat="44.91671" lon="1.8379">
        <ele>134.9</ele>
        <time>2022-08-06T10:55:51Z</time>
      </trkpt>
      <trkpt lat="44.91682" lon="1.83803">
        <ele>134.8</ele>
        <time>2022-08-06T10:56:29Z</time>
      </trkpt>
      <trkpt lat="44.9169" lon="1.83808">
        <ele>134.7</ele>
        <time>2022-08-06T10:56:31Z</time>
      </trkpt>
      <trkpt lat="44.91698" lon="1.83814">
        <ele>134.6</ele>
        <time>2022-08-06T10:56:33Z</time>
      </trkpt>
      <trkpt lat="44.91705" lon="1.83822">
        <ele>134.5</ele>
        <time>2022-08-06T10:56:35Z</time>
      </trkpt>
      <trkpt lat="44.91712" lon="1.83833">
        <ele>134.5</ele>
        <time>2022-08-06T10:56:37Z</time>
      </trkpt>
      <trkpt lat="44.91718" lon="1.83846">
        <ele>134.5</ele>
        <time>2022-08-06T10:56:39Z</time>
      </trkpt>
      <trkpt lat="44.91723" lon="1.83859">
        <ele>134.5</ele>
        <time>2022-08-06T10:56:41Z</time>
      </trkpt>
      <trkpt lat="44.91728" lon="1.83873">
        <ele>134.6</ele>
        <time>2022-08-06T10:56:43Z</time>
      </trkpt>
      <trkpt lat="44.91733" lon="1.83886">
        <ele>134.7</ele>
        <time>2022-08-06T10:56:45Z</time>
      </trkpt>
      <trkpt lat="44.91739" lon="1.83899">
        <ele>134.8</ele>
        <time>2022-08-06T10:56:47Z</time>
      </trkpt>
      <trkpt lat="44.91744" lon="1.83911">
        <ele>134.9</ele>
        <time>2022-08-06T10:56:49Z</time>
      </trkpt>
      <trkpt lat="44.91751" lon="1.83922">
        <ele>135.1</ele>
        <time>2022-08-06T10:56:51Z</time>
      </trkpt>
      <trkpt lat="44.91758" lon="1.83932">
        <ele>135.3</ele>
        <time>2022-08-06T10:56:53Z</time>
      </trkpt>
      <trkpt lat="44.91764" lon="1.83941">
        <ele>135.4</ele>
        <time>2022-08-06T10:56:55Z</time>
      </trkpt>
      <trkpt lat="44.91772" lon="1.83949">
        <ele>135.5</ele>
        <time>2022-08-06T10:56:57Z</time>
      </trkpt>
      <trkpt lat="44.91781" lon="1.83957">
        <ele>135.6</ele>
        <time>2022-08-06T10:56:59Z</time>
      </trkpt>
      <trkpt lat="44.9179" lon="1.83963">
        <ele>135.6</ele>
        <time>2022-08-06T10:57:01Z</time>
      </trkpt>
      <trkpt lat="44.91799" lon="1.8397">
        <ele>135.7</ele>
        <time>2022-08-06T10:57:03Z</time>
      </trkpt>
      <trkpt lat="44.91809" lon="1.83977">
        <ele>135.7</ele>
        <time>2022-08-06T10:57:05Z</time>
      </trkpt>
      <trkpt lat="44.91818" lon="1.83984">
        <ele>135.8</ele>
        <time>2022-08-06T10:57:07Z</time>
      </trkpt>
      <trkpt lat="44.91827" lon="1.8399">
        <ele>135.8</ele>
        <time>2022-08-06T10:57:09Z</time>
      </trkpt>
      <trkpt lat="44.91836" lon="1.83996">
        <ele>135.9</ele>
        <time>2022-08-06T10:57:11Z</time>
      </trkpt>
      <trkpt lat="44.91845" lon="1.84003">
        <ele>135.9</ele>
        <time>2022-08-06T10:57:13Z</time>
      </trkpt>
      <trkpt lat="44.91855" lon="1.84009">
        <ele>135.8</ele>
        <time>2022-08-06T10:57:15Z</time>
      </trkpt>
      <trkpt lat="44.91864" lon="1.84015">
        <ele>135.7</ele>
        <time>2022-08-06T10:57:17Z</time>
      </trkpt>
      <trkpt lat="44.91873" lon="1.84021">
        <ele>135.7</ele>
        <time>2022-08-06T10:57:19Z</time>
      </trkpt>
      <trkpt lat="44.91882" lon="1.84027">
        <ele>135.5</ele>
        <time>2022-08-06T10:57:21Z</time>
      </trkpt>
      <trkpt lat="44.91892" lon="1.84034">
        <ele>135.4</ele>
        <time>2022-08-06T10:57:23Z</time>
      </trkpt>
      <trkpt lat="44.91901" lon="1.84039">
        <ele>135.3</ele>
        <time>2022-08-06T10:57:25Z</time>
      </trkpt>
      <trkpt lat="44.9191" lon="1.84045">
        <ele>135.1</ele>
        <time>2022-08-06T10:57:27Z</time>
      </trkpt>
      <trkpt lat="44.91919" lon="1.84051">
        <ele>135</ele>
        <time>2022-08-06T10:57:29Z</time>
      </trkpt>
      <trkpt lat="44.91928" lon="1.84056">
        <ele>135.2</ele>
        <time>2022-08-06T10:57:31Z</time>
      </trkpt>
      <trkpt lat="44.91937" lon="1.84062">
        <ele>135.4</ele>
        <time>2022-08-06T10:57:33Z</time>
      </trkpt>
      <trkpt lat="44.91946" lon="1.84068">
        <ele>135.6</ele>
        <time>2022-08-06T10:57:35Z</time>
      </trkpt>
      <trkpt lat="44.91955" lon="1.84075">
        <ele>135.9</ele>
        <time>2022-08-06T10:57:37Z</time>
      </trkpt>
      <trkpt lat="44.91964" lon="1.84081">
        <ele>136.1</ele>
        <time>2022-08-06T10:57:39Z</time>
      </trkpt>
      <trkpt lat="44.91973" lon="1.84086">
        <ele>136.4</ele>
        <time>2022-08-06T10:57:41Z</time>
      </trkpt>
      <trkpt lat="44.91982" lon="1.84092">
        <ele>136.6</ele>
        <time>2022-08-06T10:57:43Z</time>
      </trkpt>
      <trkpt lat="44.91991" lon="1.84098">
        <ele>136.8</ele>
        <time>2022-08-06T10:57:45Z</time>
      </trkpt>
      <trkpt lat="44.91999" lon="1.84104">
        <ele>137</ele>
        <time>2022-08-06T10:57:47Z</time>
      </trkpt>
      <trkpt lat="44.92007" lon="1.84109">
        <ele>137</ele>
        <time>2022-08-06T10:57:49Z</time>
      </trkpt>
      <trkpt lat="44.92015" lon="1.84115">
        <ele>137</ele>
        <time>2022-08-06T10:57:51Z</time>
      </trkpt>
      <trkpt lat="44.92023" lon="1.8412">
        <ele>137</ele>
        <time>2022-08-06T10:57:53Z</time>
      </trkpt>
      <trkpt lat="44.9203" lon="1.84125">
        <ele>137</ele>
        <time>2022-08-06T10:57:55Z</time>
      </trkpt>
      <trkpt lat="44.92038" lon="1.8413">
        <ele>137</ele>
        <time>2022-08-06T10:57:57Z</time>
      </trkpt>
      <trkpt lat="44.92045" lon="1.84135">
        <ele>137</ele>
        <time>2022-08-06T10:57:59Z</time>
      </trkpt>
      <trkpt lat="44.92052" lon="1.84139">
        <ele>137</ele>
        <time>2022-08-06T10:58:01Z</time>
      </trkpt>
      <trkpt lat="44.9206" lon="1.84144">
        <ele>137</ele>
        <time>2022-08-06T10:58:03Z</time>
      </trkpt>
      <trkpt lat="44.92067" lon="1.84149">
        <ele>137</ele>
        <time>2022-08-06T10:58:05Z</time>
      </trkpt>
      <trkpt lat="44.92074" lon="1.84154">
        <ele>137</ele>
        <time>2022-08-06T10:58:07Z</time>
      </trkpt>
      <trkpt lat="44.92082" lon="1.84159">
        <ele>137</ele>
        <time>2022-08-06T10:58:09Z</time>
      </trkpt>
      <trkpt lat="44.92089" lon="1.84163">
        <ele>137</ele>
        <time>2022-08-06T10:58:11Z</time>
      </trkpt>
      <trkpt lat="44.92097" lon="1.84169">
        <ele>137</ele>
        <time>2022-08-06T10:58:13Z</time>
      </trkpt>
      <trkpt lat="44.92104" lon="1.84174">
        <ele>136.9</ele>
        <time>2022-08-06T10:58:15Z</time>
      </trkpt>
      <trkpt lat="44.92111" lon="1.84179">
        <ele>136.9</ele>
        <time>2022-08-06T10:58:17Z</time>
      </trkpt>
      <trkpt lat="44.92119" lon="1.84184">
        <ele>136.8</ele>
        <time>2022-08-06T10:58:19Z</time>
      </trkpt>
      <trkpt lat="44.92127" lon="1.84189">
        <ele>136.7</ele>
        <time>2022-08-06T10:58:21Z</time>
      </trkpt>
      <trkpt lat="44.92135" lon="1.84193">
        <ele>136.7</ele>
        <time>2022-08-06T10:58:23Z</time>
      </trkpt>
      <trkpt lat="44.92143" lon="1.84199">
        <ele>136.6</ele>
        <time>2022-08-06T10:58:25Z</time>
      </trkpt>
      <trkpt lat="44.92151" lon="1.84204">
        <ele>136.6</ele>
        <time>2022-08-06T10:58:27Z</time>
      </trkpt>
      <trkpt lat="44.92159" lon="1.8421">
        <ele>136.5</ele>
        <time>2022-08-06T10:58:29Z</time>
      </trkpt>
      <trkpt lat="44.92167" lon="1.84215">
        <ele>136.4</ele>
        <time>2022-08-06T10:58:31Z</time>
      </trkpt>
      <trkpt lat="44.92176" lon="1.8422">
        <ele>136.5</ele>
        <time>2022-08-06T10:58:33Z</time>
      </trkpt>
      <trkpt lat="44.92184" lon="1.84225">
        <ele>136.5</ele>
        <time>2022-08-06T10:58:35Z</time>
      </trkpt>
      <trkpt lat="44.92192" lon="1.8423">
        <ele>136.6</ele>
        <time>2022-08-06T10:58:37Z</time>
      </trkpt>
      <trkpt lat="44.92199" lon="1.84237">
        <ele>136.8</ele>
        <time>2022-08-06T10:58:39Z</time>
      </trkpt>
      <trkpt lat="44.92207" lon="1.84244">
        <ele>136.9</ele>
        <time>2022-08-06T10:58:41Z</time>
      </trkpt>
      <trkpt lat="44.92214" lon="1.84253">
        <ele>137.2</ele>
        <time>2022-08-06T10:58:43Z</time>
      </trkpt>
      <trkpt lat="44.9222" lon="1.84262">
        <ele>137.4</ele>
        <time>2022-08-06T10:58:45Z</time>
      </trkpt>
      <trkpt lat="44.92225" lon="1.84271">
        <ele>137.7</ele>
        <time>2022-08-06T10:58:47Z</time>
      </trkpt>
      <trkpt lat="44.92229" lon="1.8428">
        <ele>137.9</ele>
        <time>2022-08-06T10:58:49Z</time>
      </trkpt>
      <trkpt lat="44.9223" lon="1.84292">
        <ele>138</ele>
        <time>2022-08-06T10:58:51Z</time>
      </trkpt>
      <trkpt lat="44.92233" lon="1.84305">
        <ele>138.2</ele>
        <time>2022-08-06T10:58:53Z</time>
      </trkpt>
      <trkpt lat="44.92239" lon="1.84314">
        <ele>138.5</ele>
        <time>2022-08-06T10:58:55Z</time>
      </trkpt>
      <trkpt lat="44.92246" lon="1.84321">
        <ele>138.8</ele>
        <time>2022-08-06T10:58:57Z</time>
      </trkpt>
      <trkpt lat="44.92252" lon="1.84325">
        <ele>138.9</ele>
        <time>2022-08-06T10:58:59Z</time>
      </trkpt>
      <trkpt lat="44.9226" lon="1.84321">
        <ele>138.9</ele>
        <time>2022-08-06T10:59:01Z</time>
      </trkpt>
      <trkpt lat="44.92263" lon="1.84314">
        <ele>138.8</ele>
        <time>2022-08-06T10:59:03Z</time>
      </trkpt>
      <trkpt lat="44.92266" lon="1.84306">
        <ele>138.7</ele>
        <time>2022-08-06T10:59:05Z</time>
      </trkpt>
      <trkpt lat="44.92272" lon="1.84301">
        <ele>138.7</ele>
        <time>2022-08-06T10:59:07Z</time>
      </trkpt>
      <trkpt lat="44.9228" lon="1.84302">
        <ele>138.8</ele>
        <time>2022-08-06T10:59:09Z</time>
      </trkpt>
      <trkpt lat="44.92287" lon="1.84303">
        <ele>138.8</ele>
        <time>2022-08-06T10:59:11Z</time>
      </trkpt>
      <trkpt lat="44.92295" lon="1.84304">
        <ele>138.8</ele>
        <time>2022-08-06T10:59:13Z</time>
      </trkpt>
      <trkpt lat="44.92302" lon="1.84305">
        <ele>138.9</ele>
        <time>2022-08-06T10:59:15Z</time>
      </trkpt>
      <trkpt lat="44.92308" lon="1.84307">
        <ele>138.9</ele>
        <time>2022-08-06T10:59:17Z</time>
      </trkpt>
      <trkpt lat="44.92314" lon="1.8431">
        <ele>138.9</ele>
        <time>2022-08-06T10:59:19Z</time>
      </trkpt>
      <trkpt lat="44.92321" lon="1.84314">
        <ele>139</ele>
        <time>2022-08-06T10:59:21Z</time>
      </trkpt>
      <trkpt lat="44.92327" lon="1.84318">
        <ele>139</ele>
        <time>2022-08-06T10:59:23Z</time>
      </trkpt>
      <trkpt lat="44.92333" lon="1.84322">
        <ele>139</ele>
        <time>2022-08-06T10:59:25Z</time>
      </trkpt>
      <trkpt lat="44.92338" lon="1.84326">
        <ele>139.1</ele>
        <time>2022-08-06T10:59:27Z</time>
      </trkpt>
      <trkpt lat="44.92343" lon="1.84329">
        <ele>139.1</ele>
        <time>2022-08-06T10:59:29Z</time>
      </trkpt>
      <trkpt lat="44.92347" lon="1.84333">
        <ele>139.2</ele>
        <time>2022-08-06T10:59:31Z</time>
      </trkpt>
      <trkpt lat="44.92352" lon="1.84336">
        <ele>139.2</ele>
        <time>2022-08-06T10:59:33Z</time>
      </trkpt>
      <trkpt lat="44.92358" lon="1.84339">
        <ele>139.3</ele>
        <time>2022-08-06T10:59:35Z</time>
      </trkpt>
      <trkpt lat="44.92363" lon="1.84343">
        <ele>139.3</ele>
        <time>2022-08-06T10:59:37Z</time>
      </trkpt>
      <trkpt lat="44.92368" lon="1.84347">
        <ele>139.3</ele>
        <time>2022-08-06T10:59:39Z</time>
      </trkpt>
      <trkpt lat="44.92369" lon="1.84355">
        <ele>139.3</ele>
        <time>2022-08-06T10:59:41Z</time>
      </trkpt>
      <trkpt lat="44.92369" lon="1.84363">
        <ele>139.2</ele>
        <time>2022-08-06T10:59:43Z</time>
      </trkpt>
      <trkpt lat="44.92369" lon="1.84372">
        <ele>139.2</ele>
        <time>2022-08-06T10:59:45Z</time>
      </trkpt>
      <trkpt lat="44.92371" lon="1.8438">
        <ele>139.1</ele>
        <time>2022-08-06T10:59:47Z</time>
      </trkpt>
      <trkpt lat="44.92371" lon="1.84387">
        <ele>139.1</ele>
        <time>2022-08-06T10:59:49Z</time>
      </trkpt>
      <trkpt lat="44.92373" lon="1.84394">
        <ele>139.1</ele>
        <time>2022-08-06T10:59:51Z</time>
      </trkpt>
      <trkpt lat="44.92375" lon="1.84399">
        <ele>139.1</ele>
        <time>2022-08-06T10:59:53Z</time>
      </trkpt>
      <trkpt lat="44.92377" lon="1.84405">
        <ele>139.1</ele>
        <time>2022-08-06T10:59:55Z</time>
      </trkpt>
      <trkpt lat="44.9238" lon="1.84409">
        <ele>139.2</ele>
        <time>2022-08-06T10:59:57Z</time>
      </trkpt>
      <trkpt lat="44.9238" lon="1.84414">
        <ele>139.1</ele>
        <time>2022-08-06T10:59:59Z</time>
      </trkpt>
      <trkpt lat="44.9238" lon="1.84411">
        <ele>139.2</ele>
        <time>2022-08-06T11:00:01Z</time>
      </trkpt>
      <trkpt lat="44.9238" lon="1.84413">
        <ele>139.1</ele>
        <time>2022-08-06T11:00:03Z</time>
      </trkpt>
      <trkpt lat="44.9238" lon="1.84413">
        <ele>139.1</ele>
        <time>2022-08-06T11:00:05Z</time>
      </trkpt>
      <trkpt lat="44.9238" lon="1.84413">
        <ele>139.1</ele>
        <time>2022-08-06T11:00:07Z</time>
      </trkpt>
      <trkpt lat="44.9238" lon="1.84413">
        <ele>139.1</ele>
        <time>2022-08-06T11:00:09Z</time>
      </trkpt>
      <trkpt lat="44.9238" lon="1.84413">
        <ele>139.1</ele>
        <time>2022-08-06T11:00:11Z</time>
      </trkpt>
      <trkpt lat="44.9238" lon="1.84413">
        <ele>139.1</ele>
        <time>2022-08-06T11:08:31Z</time>
      </trkpt>
      <trkpt lat="44.92383" lon="1.84415">
        <ele>139.2</ele>
        <time>2022-08-06T11:08:32Z</time>
      </trkpt>
      <trkpt lat="44.92399" lon="1.8441">
        <ele>139.6</ele>
        <time>2022-08-06T11:09:42Z</time>
      </trkpt>
      <trkpt lat="44.92404" lon="1.84406">
        <ele>139.7</ele>
        <time>2022-08-06T11:09:44Z</time>
      </trkpt>
      <trkpt lat="44.9241" lon="1.84401">
        <ele>139.8</ele>
        <time>2022-08-06T11:09:46Z</time>
      </trkpt>
      <trkpt lat="44.92415" lon="1.84396">
        <ele>140</ele>
        <time>2022-08-06T11:09:48Z</time>
      </trkpt>
      <trkpt lat="44.92418" lon="1.8439">
        <ele>140</ele>
        <time>2022-08-06T11:09:50Z</time>
      </trkpt>
      <trkpt lat="44.9242" lon="1.84385">
        <ele>140</ele>
        <time>2022-08-06T11:09:52Z</time>
      </trkpt>
      <trkpt lat="44.9242" lon="1.84383">
        <ele>140</ele>
        <time>2022-08-06T11:09:54Z</time>
      </trkpt>
      <trkpt lat="44.92423" lon="1.8438">
        <ele>140</ele>
        <time>2022-08-06T11:09:56Z</time>
      </trkpt>
      <trkpt lat="44.92426" lon="1.84377">
        <ele>139.9</ele>
        <time>2022-08-06T11:09:58Z</time>
      </trkpt>
      <trkpt lat="44.92429" lon="1.84373">
        <ele>139.9</ele>
        <time>2022-08-06T11:10:00Z</time>
      </trkpt>
      <trkpt lat="44.92431" lon="1.84367">
        <ele>139.9</ele>
        <time>2022-08-06T11:10:02Z</time>
      </trkpt>
      <trkpt lat="44.92433" lon="1.84361">
        <ele>139.9</ele>
        <time>2022-08-06T11:10:04Z</time>
      </trkpt>
      <trkpt lat="44.92435" lon="1.84356">
        <ele>139.8</ele>
        <time>2022-08-06T11:10:06Z</time>
      </trkpt>
      <trkpt lat="44.92438" lon="1.8435">
        <ele>139.8</ele>
        <time>2022-08-06T11:10:08Z</time>
      </trkpt>
      <trkpt lat="44.92442" lon="1.84346">
        <ele>139.7</ele>
        <time>2022-08-06T11:10:10Z</time>
      </trkpt>
      <trkpt lat="44.92446" lon="1.84342">
        <ele>139.7</ele>
        <time>2022-08-06T11:10:12Z</time>
      </trkpt>
      <trkpt lat="44.92449" lon="1.84338">
        <ele>139.6</ele>
        <time>2022-08-06T11:10:14Z</time>
      </trkpt>
      <trkpt lat="44.92452" lon="1.84335">
        <ele>139.6</ele>
        <time>2022-08-06T11:10:16Z</time>
      </trkpt>
      <trkpt lat="44.92452" lon="1.8433">
        <ele>139.6</ele>
        <time>2022-08-06T11:10:18Z</time>
      </trkpt>
      <trkpt lat="44.92454" lon="1.84324">
        <ele>139.6</ele>
        <time>2022-08-06T11:10:20Z</time>
      </trkpt>
      <trkpt lat="44.92459" lon="1.8432">
        <ele>139.6</ele>
        <time>2022-08-06T11:10:22Z</time>
      </trkpt>
      <trkpt lat="44.92464" lon="1.84316">
        <ele>139.7</ele>
        <time>2022-08-06T11:10:24Z</time>
      </trkpt>
      <trkpt lat="44.92465" lon="1.84312">
        <ele>139.7</ele>
        <time>2022-08-06T11:10:26Z</time>
      </trkpt>
      <trkpt lat="44.92469" lon="1.84308">
        <ele>139.8</ele>
        <time>2022-08-06T11:10:28Z</time>
      </trkpt>
      <trkpt lat="44.92471" lon="1.84304">
        <ele>139.8</ele>
        <time>2022-08-06T11:10:30Z</time>
      </trkpt>
      <trkpt lat="44.92471" lon="1.84299">
        <ele>139.9</ele>
        <time>2022-08-06T11:10:32Z</time>
      </trkpt>
      <trkpt lat="44.92467" lon="1.84295">
        <ele>140</ele>
        <time>2022-08-06T11:10:34Z</time>
      </trkpt>
      <trkpt lat="44.92465" lon="1.8429">
        <ele>140</ele>
        <time>2022-08-06T11:10:36Z</time>
      </trkpt>
      <trkpt lat="44.92467" lon="1.84288">
        <ele>140</ele>
        <time>2022-08-06T11:10:38Z</time>
      </trkpt>
      <trkpt lat="44.92467" lon="1.84286">
        <ele>140.1</ele>
        <time>2022-08-06T11:10:40Z</time>
      </trkpt>
      <trkpt lat="44.92467" lon="1.84279">
        <ele>140.2</ele>
        <time>2022-08-06T11:10:42Z</time>
      </trkpt>
      <trkpt lat="44.92467" lon="1.84273">
        <ele>140.3</ele>
        <time>2022-08-06T11:10:44Z</time>
      </trkpt>
      <trkpt lat="44.92469" lon="1.84264">
        <ele>140.4</ele>
        <time>2022-08-06T11:10:46Z</time>
      </trkpt>
      <trkpt lat="44.9247" lon="1.8426">
        <ele>140.5</ele>
        <time>2022-08-06T11:10:48Z</time>
      </trkpt>
      <trkpt lat="44.92469" lon="1.84258">
        <ele>140.5</ele>
        <time>2022-08-06T11:10:50Z</time>
      </trkpt>
      <trkpt lat="44.92468" lon="1.84259">
        <ele>140.5</ele>
        <time>2022-08-06T11:10:52Z</time>
      </trkpt>
      <trkpt lat="44.92467" lon="1.84264">
        <ele>140.4</ele>
        <time>2022-08-06T11:10:54Z</time>
      </trkpt>
      <trkpt lat="44.92466" lon="1.84265">
        <ele>140.4</ele>
        <time>2022-08-06T11:10:56Z</time>
      </trkpt>
      <trkpt lat="44.92454" lon="1.84243">
        <ele>140.4</ele>
        <time>2022-08-06T11:50:45Z</time>
      </trkpt>
      <trkpt lat="44.92453" lon="1.84244">
        <ele>140.4</ele>
        <time>2022-08-06T11:50:46Z</time>
      </trkpt>
      <trkpt lat="44.92438" lon="1.8427">
        <ele>140.1</ele>
        <time>2022-08-06T11:51:00Z</time>
      </trkpt>
      <trkpt lat="44.92435" lon="1.84276">
        <ele>140.1</ele>
        <time>2022-08-06T11:51:02Z</time>
      </trkpt>
      <trkpt lat="44.92431" lon="1.84282">
        <ele>140</ele>
        <time>2022-08-06T11:51:04Z</time>
      </trkpt>
      <trkpt lat="44.92428" lon="1.84288">
        <ele>140</ele>
        <time>2022-08-06T11:51:06Z</time>
      </trkpt>
      <trkpt lat="44.92424" lon="1.84293">
        <ele>140</ele>
        <time>2022-08-06T11:51:08Z</time>
      </trkpt>
      <trkpt lat="44.92421" lon="1.84299">
        <ele>140</ele>
        <time>2022-08-06T11:51:10Z</time>
      </trkpt>
      <trkpt lat="44.92418" lon="1.84303">
        <ele>140</ele>
        <time>2022-08-06T11:51:12Z</time>
      </trkpt>
      <trkpt lat="44.92414" lon="1.84308">
        <ele>140</ele>
        <time>2022-08-06T11:51:14Z</time>
      </trkpt>
      <trkpt lat="44.92411" lon="1.84315">
        <ele>139.9</ele>
        <time>2022-08-06T11:51:16Z</time>
      </trkpt>
      <trkpt lat="44.92406" lon="1.84319">
        <ele>139.9</ele>
        <time>2022-08-06T11:51:18Z</time>
      </trkpt>
      <trkpt lat="44.92401" lon="1.84325">
        <ele>139.8</ele>
        <time>2022-08-06T11:51:20Z</time>
      </trkpt>
      <trkpt lat="44.92397" lon="1.84332">
        <ele>139.8</ele>
        <time>2022-08-06T11:51:22Z</time>
      </trkpt>
      <trkpt lat="44.92395" lon="1.8434">
        <ele>139.7</ele>
        <time>2022-08-06T11:51:24Z</time>
      </trkpt>
      <trkpt lat="44.92391" lon="1.84344">
        <ele>139.6</ele>
        <time>2022-08-06T11:51:26Z</time>
      </trkpt>
      <trkpt lat="44.92386" lon="1.84346">
        <ele>139.6</ele>
        <time>2022-08-06T11:51:28Z</time>
      </trkpt>
      <trkpt lat="44.9238" lon="1.84342">
        <ele>139.5</ele>
        <time>2022-08-06T11:51:30Z</time>
      </trkpt>
      <trkpt lat="44.92374" lon="1.84338">
        <ele>139.5</ele>
        <time>2022-08-06T11:51:32Z</time>
      </trkpt>
      <trkpt lat="44.92367" lon="1.84332">
        <ele>139.4</ele>
        <time>2022-08-06T11:51:34Z</time>
      </trkpt>
      <trkpt lat="44.9236" lon="1.84328">
        <ele>139.3</ele>
        <time>2022-08-06T11:51:36Z</time>
      </trkpt>
      <trkpt lat="44.92353" lon="1.84323">
        <ele>139.2</ele>
        <time>2022-08-06T11:51:38Z</time>
      </trkpt>
      <trkpt lat="44.92345" lon="1.84319">
        <ele>139.1</ele>
        <time>2022-08-06T11:51:40Z</time>
      </trkpt>
      <trkpt lat="44.92338" lon="1.84314">
        <ele>139.1</ele>
        <time>2022-08-06T11:51:42Z</time>
      </trkpt>
      <trkpt lat="44.92331" lon="1.84309">
        <ele>139</ele>
        <time>2022-08-06T11:51:44Z</time>
      </trkpt>
      <trkpt lat="44.92323" lon="1.84304">
        <ele>139</ele>
        <time>2022-08-06T11:51:46Z</time>
      </trkpt>
      <trkpt lat="44.92316" lon="1.84299">
        <ele>138.9</ele>
        <time>2022-08-06T11:51:48Z</time>
      </trkpt>
      <trkpt lat="44.92311" lon="1.84293">
        <ele>138.9</ele>
        <time>2022-08-06T11:51:50Z</time>
      </trkpt>
      <trkpt lat="44.9231" lon="1.84284">
        <ele>138.8</ele>
        <time>2022-08-06T11:51:52Z</time>
      </trkpt>
      <trkpt lat="44.92304" lon="1.84279">
        <ele>138.8</ele>
        <time>2022-08-06T11:51:54Z</time>
      </trkpt>
      <trkpt lat="44.923" lon="1.84286">
        <ele>138.8</ele>
        <time>2022-08-06T11:51:56Z</time>
      </trkpt>
      <trkpt lat="44.92296" lon="1.84292">
        <ele>138.8</ele>
        <time>2022-08-06T11:51:58Z</time>
      </trkpt>
      <trkpt lat="44.92289" lon="1.84292">
        <ele>138.7</ele>
        <time>2022-08-06T11:52:00Z</time>
      </trkpt>
      <trkpt lat="44.92283" lon="1.84289">
        <ele>138.7</ele>
        <time>2022-08-06T11:52:02Z</time>
      </trkpt>
      <trkpt lat="44.92275" lon="1.84286">
        <ele>138.6</ele>
        <time>2022-08-06T11:52:04Z</time>
      </trkpt>
      <trkpt lat="44.92267" lon="1.84282">
        <ele>138.5</ele>
        <time>2022-08-06T11:52:06Z</time>
      </trkpt>
      <trkpt lat="44.92264" lon="1.84275">
        <ele>138.4</ele>
        <time>2022-08-06T11:52:08Z</time>
      </trkpt>
      <trkpt lat="44.92263" lon="1.84269">
        <ele>138.3</ele>
        <time>2022-08-06T11:52:10Z</time>
      </trkpt>
      <trkpt lat="44.92261" lon="1.84263">
        <ele>138.3</ele>
        <time>2022-08-06T11:52:12Z</time>
      </trkpt>
      <trkpt lat="44.92256" lon="1.84261">
        <ele>138.2</ele>
        <time>2022-08-06T11:52:14Z</time>
      </trkpt>
      <trkpt lat="44.92251" lon="1.84259">
        <ele>138.1</ele>
        <time>2022-08-06T11:52:16Z</time>
      </trkpt>
      <trkpt lat="44.92247" lon="1.84262">
        <ele>138.1</ele>
        <time>2022-08-06T11:52:18Z</time>
      </trkpt>
      <trkpt lat="44.92243" lon="1.84265">
        <ele>138</ele>
        <time>2022-08-06T11:52:20Z</time>
      </trkpt>
      <trkpt lat="44.92238" lon="1.84265">
        <ele>137.9</ele>
        <time>2022-08-06T11:52:22Z</time>
      </trkpt>
      <trkpt lat="44.92232" lon="1.84259">
        <ele>137.7</ele>
        <time>2022-08-06T11:52:24Z</time>
      </trkpt>
      <trkpt lat="44.92226" lon="1.84252">
        <ele>137.4</ele>
        <time>2022-08-06T11:52:26Z</time>
      </trkpt>
      <trkpt lat="44.92219" lon="1.84245">
        <ele>137.2</ele>
        <time>2022-08-06T11:52:28Z</time>
      </trkpt>
      <trkpt lat="44.92213" lon="1.84237">
        <ele>137</ele>
        <time>2022-08-06T11:52:30Z</time>
      </trkpt>
      <trkpt lat="44.92207" lon="1.8423">
        <ele>136.9</ele>
        <time>2022-08-06T11:52:32Z</time>
      </trkpt>
      <trkpt lat="44.922" lon="1.84224">
        <ele>136.7</ele>
        <time>2022-08-06T11:52:34Z</time>
      </trkpt>
      <trkpt lat="44.92193" lon="1.84219">
        <ele>136.6</ele>
        <time>2022-08-06T11:52:36Z</time>
      </trkpt>
      <trkpt lat="44.92185" lon="1.84214">
        <ele>136.6</ele>
        <time>2022-08-06T11:52:38Z</time>
      </trkpt>
      <trkpt lat="44.92177" lon="1.84209">
        <ele>136.6</ele>
        <time>2022-08-06T11:52:40Z</time>
      </trkpt>
      <trkpt lat="44.92169" lon="1.84204">
        <ele>136.6</ele>
        <time>2022-08-06T11:52:42Z</time>
      </trkpt>
      <trkpt lat="44.92162" lon="1.84199">
        <ele>136.6</ele>
        <time>2022-08-06T11:52:44Z</time>
      </trkpt>
      <trkpt lat="44.92154" lon="1.84194">
        <ele>136.7</ele>
        <time>2022-08-06T11:52:46Z</time>
      </trkpt>
      <trkpt lat="44.92146" lon="1.84189">
        <ele>136.7</ele>
        <time>2022-08-06T11:52:48Z</time>
      </trkpt>
      <trkpt lat="44.92138" lon="1.84184">
        <ele>136.8</ele>
        <time>2022-08-06T11:52:50Z</time>
      </trkpt>
      <trkpt lat="44.9213" lon="1.84178">
        <ele>136.9</ele>
        <time>2022-08-06T11:52:52Z</time>
      </trkpt>
      <trkpt lat="44.92122" lon="1.84173">
        <ele>136.9</ele>
        <time>2022-08-06T11:52:54Z</time>
      </trkpt>
      <trkpt lat="44.92114" lon="1.84168">
        <ele>137</ele>
        <time>2022-08-06T11:52:56Z</time>
      </trkpt>
      <trkpt lat="44.92106" lon="1.84163">
        <ele>137</ele>
        <time>2022-08-06T11:52:58Z</time>
      </trkpt>
      <trkpt lat="44.92098" lon="1.84157">
        <ele>137</ele>
        <time>2022-08-06T11:53:00Z</time>
      </trkpt>
      <trkpt lat="44.92089" lon="1.84152">
        <ele>137</ele>
        <time>2022-08-06T11:53:02Z</time>
      </trkpt>
      <trkpt lat="44.92081" lon="1.84146">
        <ele>137</ele>
        <time>2022-08-06T11:53:04Z</time>
      </trkpt>
      <trkpt lat="44.92072" lon="1.8414">
        <ele>137</ele>
        <time>2022-08-06T11:53:06Z</time>
      </trkpt>
      <trkpt lat="44.92064" lon="1.84135">
        <ele>137</ele>
        <time>2022-08-06T11:53:08Z</time>
      </trkpt>
      <trkpt lat="44.92055" lon="1.84129">
        <ele>137</ele>
        <time>2022-08-06T11:53:10Z</time>
      </trkpt>
      <trkpt lat="44.92046" lon="1.84123">
        <ele>137</ele>
        <time>2022-08-06T11:53:12Z</time>
      </trkpt>
      <trkpt lat="44.92037" lon="1.84116">
        <ele>137</ele>
        <time>2022-08-06T11:53:14Z</time>
      </trkpt>
      <trkpt lat="44.92028" lon="1.8411">
        <ele>137</ele>
        <time>2022-08-06T11:53:16Z</time>
      </trkpt>
      <trkpt lat="44.92018" lon="1.84105">
        <ele>137</ele>
        <time>2022-08-06T11:53:18Z</time>
      </trkpt>
      <trkpt lat="44.92009" lon="1.84099">
        <ele>137</ele>
        <time>2022-08-06T11:53:20Z</time>
      </trkpt>
      <trkpt lat="44.92" lon="1.84093">
        <ele>137</ele>
        <time>2022-08-06T11:53:22Z</time>
      </trkpt>
      <trkpt lat="44.91991" lon="1.84087">
        <ele>136.8</ele>
        <time>2022-08-06T11:53:24Z</time>
      </trkpt>
      <trkpt lat="44.91982" lon="1.84081">
        <ele>136.5</ele>
        <time>2022-08-06T11:53:26Z</time>
      </trkpt>
      <trkpt lat="44.91973" lon="1.84075">
        <ele>136.3</ele>
        <time>2022-08-06T11:53:28Z</time>
      </trkpt>
      <trkpt lat="44.91963" lon="1.84069">
        <ele>136</ele>
        <time>2022-08-06T11:53:30Z</time>
      </trkpt>
      <trkpt lat="44.91954" lon="1.84063">
        <ele>135.8</ele>
        <time>2022-08-06T11:53:32Z</time>
      </trkpt>
      <trkpt lat="44.91945" lon="1.84056">
        <ele>135.6</ele>
        <time>2022-08-06T11:53:34Z</time>
      </trkpt>
      <trkpt lat="44.91936" lon="1.8405">
        <ele>135.4</ele>
        <time>2022-08-06T11:53:36Z</time>
      </trkpt>
      <trkpt lat="44.91927" lon="1.84044">
        <ele>135.2</ele>
        <time>2022-08-06T11:53:38Z</time>
      </trkpt>
      <trkpt lat="44.91918" lon="1.84038">
        <ele>135</ele>
        <time>2022-08-06T11:53:40Z</time>
      </trkpt>
      <trkpt lat="44.91909" lon="1.84032">
        <ele>135.1</ele>
        <time>2022-08-06T11:53:42Z</time>
      </trkpt>
      <trkpt lat="44.919" lon="1.84026">
        <ele>135.3</ele>
        <time>2022-08-06T11:53:44Z</time>
      </trkpt>
      <trkpt lat="44.91892" lon="1.8402">
        <ele>135.4</ele>
        <time>2022-08-06T11:53:46Z</time>
      </trkpt>
      <trkpt lat="44.91883" lon="1.84014">
        <ele>135.5</ele>
        <time>2022-08-06T11:53:48Z</time>
      </trkpt>
      <trkpt lat="44.91875" lon="1.84009">
        <ele>135.6</ele>
        <time>2022-08-06T11:53:50Z</time>
      </trkpt>
      <trkpt lat="44.91866" lon="1.84004">
        <ele>135.6</ele>
        <time>2022-08-06T11:53:52Z</time>
      </trkpt>
      <trkpt lat="44.91858" lon="1.83998">
        <ele>135.7</ele>
        <time>2022-08-06T11:53:54Z</time>
      </trkpt>
      <trkpt lat="44.9185" lon="1.83993">
        <ele>135.6</ele>
        <time>2022-08-06T11:53:56Z</time>
      </trkpt>
      <trkpt lat="44.91842" lon="1.83987">
        <ele>135.6</ele>
        <time>2022-08-06T11:53:58Z</time>
      </trkpt>
      <trkpt lat="44.91833" lon="1.83981">
        <ele>135.6</ele>
        <time>2022-08-06T11:54:00Z</time>
      </trkpt>
      <trkpt lat="44.91825" lon="1.83975">
        <ele>135.5</ele>
        <time>2022-08-06T11:54:02Z</time>
      </trkpt>
      <trkpt lat="44.91816" lon="1.83969">
        <ele>135.5</ele>
        <time>2022-08-06T11:54:04Z</time>
      </trkpt>
      <trkpt lat="44.91808" lon="1.83963">
        <ele>135.4</ele>
        <time>2022-08-06T11:54:06Z</time>
      </trkpt>
      <trkpt lat="44.918" lon="1.83957">
        <ele>135.4</ele>
        <time>2022-08-06T11:54:08Z</time>
      </trkpt>
      <trkpt lat="44.91792" lon="1.83951">
        <ele>135.3</ele>
        <time>2022-08-06T11:54:10Z</time>
      </trkpt>
      <trkpt lat="44.91783" lon="1.83945">
        <ele>135.3</ele>
        <time>2022-08-06T11:54:12Z</time>
      </trkpt>
      <trkpt lat="44.91776" lon="1.83938">
        <ele>135.2</ele>
        <time>2022-08-06T11:54:14Z</time>
      </trkpt>
      <trkpt lat="44.91768" lon="1.83929">
        <ele>135.1</ele>
        <time>2022-08-06T11:54:16Z</time>
      </trkpt>
      <trkpt lat="44.91762" lon="1.83919">
        <ele>134.9</ele>
        <time>2022-08-06T11:54:18Z</time>
      </trkpt>
      <trkpt lat="44.91755" lon="1.8391">
        <ele>134.9</ele>
        <time>2022-08-06T11:54:20Z</time>
      </trkpt>
      <trkpt lat="44.91749" lon="1.83899">
        <ele>134.8</ele>
        <time>2022-08-06T11:54:22Z</time>
      </trkpt>
      <trkpt lat="44.91744" lon="1.83889">
        <ele>134.7</ele>
        <time>2022-08-06T11:54:24Z</time>
      </trkpt>
      <trkpt lat="44.91739" lon="1.83879">
        <ele>134.6</ele>
        <time>2022-08-06T11:54:26Z</time>
      </trkpt>
      <trkpt lat="44.91734" lon="1.83869">
        <ele>134.5</ele>
        <time>2022-08-06T11:54:28Z</time>
      </trkpt>
      <trkpt lat="44.9173" lon="1.83859">
        <ele>134.5</ele>
        <time>2022-08-06T11:54:30Z</time>
      </trkpt>
      <trkpt lat="44.91725" lon="1.83849">
        <ele>134.4</ele>
        <time>2022-08-06T11:54:32Z</time>
      </trkpt>
      <trkpt lat="44.91721" lon="1.8384">
        <ele>134.4</ele>
        <time>2022-08-06T11:54:34Z</time>
      </trkpt>
      <trkpt lat="44.91716" lon="1.83832">
        <ele>134.4</ele>
        <time>2022-08-06T11:54:36Z</time>
      </trkpt>
      <trkpt lat="44.91712" lon="1.83822">
        <ele>134.5</ele>
        <time>2022-08-06T11:54:38Z</time>
      </trkpt>
      <trkpt lat="44.91708" lon="1.83813">
        <ele>134.5</ele>
        <time>2022-08-06T11:54:40Z</time>
      </trkpt>
      <trkpt lat="44.91707" lon="1.83802">
        <ele>134.5</ele>
        <time>2022-08-06T11:54:42Z</time>
      </trkpt>
      <trkpt lat="44.91706" lon="1.83791">
        <ele>134.5</ele>
        <time>2022-08-06T11:54:44Z</time>
      </trkpt>
      <trkpt lat="44.91701" lon="1.83782">
        <ele>134.6</ele>
        <time>2022-08-06T11:54:46Z</time>
      </trkpt>
      <trkpt lat="44.91694" lon="1.8378">
        <ele>134.7</ele>
        <time>2022-08-06T11:54:48Z</time>
      </trkpt>
      <trkpt lat="44.91687" lon="1.83783">
        <ele>134.8</ele>
        <time>2022-08-06T11:54:50Z</time>
      </trkpt>
      <trkpt lat="44.91681" lon="1.83787">
        <ele>134.8</ele>
        <time>2022-08-06T11:54:52Z</time>
      </trkpt>
      <trkpt lat="44.91674" lon="1.83788">
        <ele>134.9</ele>
        <time>2022-08-06T11:54:54Z</time>
      </trkpt>
      <trkpt lat="44.91671" lon="1.83781">
        <ele>135</ele>
        <time>2022-08-06T11:54:56Z</time>
      </trkpt>
      <trkpt lat="44.91669" lon="1.83772">
        <ele>135</ele>
        <time>2022-08-06T11:54:58Z</time>
      </trkpt>
      <trkpt lat="44.91668" lon="1.83763">
        <ele>135</ele>
        <time>2022-08-06T11:55:00Z</time>
      </trkpt>
      <trkpt lat="44.91667" lon="1.83755">
        <ele>135</ele>
        <time>2022-08-06T11:55:02Z</time>
      </trkpt>
      <trkpt lat="44.91666" lon="1.83744">
        <ele>134.9</ele>
        <time>2022-08-06T11:55:04Z</time>
      </trkpt>
      <trkpt lat="44.91666" lon="1.83735">
        <ele>134.8</ele>
        <time>2022-08-06T11:55:06Z</time>
      </trkpt>
      <trkpt lat="44.91665" lon="1.83725">
        <ele>134.7</ele>
        <time>2022-08-06T11:55:08Z</time>
      </trkpt>
      <trkpt lat="44.9166" lon="1.83719">
        <ele>134.8</ele>
        <time>2022-08-06T11:55:10Z</time>
      </trkpt>
      <trkpt lat="44.91654" lon="1.83715">
        <ele>134.8</ele>
        <time>2022-08-06T11:55:12Z</time>
      </trkpt>
      <trkpt lat="44.9165" lon="1.83711">
        <ele>134.8</ele>
        <time>2022-08-06T11:55:14Z</time>
      </trkpt>
      <trkpt lat="44.91649" lon="1.83706">
        <ele>134.8</ele>
        <time>2022-08-06T11:55:16Z</time>
      </trkpt>
      <trkpt lat="44.91645" lon="1.83702">
        <ele>134.8</ele>
        <time>2022-08-06T11:55:18Z</time>
      </trkpt>
      <trkpt lat="44.91641" lon="1.83702">
        <ele>134.9</ele>
        <time>2022-08-06T11:55:20Z</time>
      </trkpt>
      <trkpt lat="44.91638" lon="1.83702">
        <ele>134.9</ele>
        <time>2022-08-06T11:55:22Z</time>
      </trkpt>
      <trkpt lat="44.91635" lon="1.83703">
        <ele>135</ele>
        <time>2022-08-06T11:55:24Z</time>
      </trkpt>
      <trkpt lat="44.91631" lon="1.83703">
        <ele>135.1</ele>
        <time>2022-08-06T11:55:26Z</time>
      </trkpt>
      <trkpt lat="44.91627" lon="1.83699">
        <ele>135</ele>
        <time>2022-08-06T11:55:28Z</time>
      </trkpt>
      <trkpt lat="44.91626" lon="1.83694">
        <ele>135</ele>
        <time>2022-08-06T11:55:30Z</time>
      </trkpt>
      <trkpt lat="44.91624" lon="1.8369">
        <ele>134.9</ele>
        <time>2022-08-06T11:55:32Z</time>
      </trkpt>
      <trkpt lat="44.91619" lon="1.83688">
        <ele>135</ele>
        <time>2022-08-06T11:55:34Z</time>
      </trkpt>
      <trkpt lat="44.91613" lon="1.83686">
        <ele>135</ele>
        <time>2022-08-06T11:55:36Z</time>
      </trkpt>
      <trkpt lat="44.91609" lon="1.83684">
        <ele>135.1</ele>
        <time>2022-08-06T11:55:38Z</time>
      </trkpt>
      <trkpt lat="44.91604" lon="1.83681">
        <ele>135.1</ele>
        <time>2022-08-06T11:55:40Z</time>
      </trkpt>
      <trkpt lat="44.91599" lon="1.83679">
        <ele>135.1</ele>
        <time>2022-08-06T11:55:42Z</time>
      </trkpt>
      <trkpt lat="44.91595" lon="1.83677">
        <ele>135.1</ele>
        <time>2022-08-06T11:55:44Z</time>
      </trkpt>
      <trkpt lat="44.9159" lon="1.83674">
        <ele>135.1</ele>
        <time>2022-08-06T11:55:46Z</time>
      </trkpt>
      <trkpt lat="44.91585" lon="1.8367">
        <ele>135.1</ele>
        <time>2022-08-06T11:55:48Z</time>
      </trkpt>
      <trkpt lat="44.91581" lon="1.83666">
        <ele>135</ele>
        <time>2022-08-06T11:55:50Z</time>
      </trkpt>
      <trkpt lat="44.91577" lon="1.83662">
        <ele>135.1</ele>
        <time>2022-08-06T11:55:52Z</time>
      </trkpt>
      <trkpt lat="44.91573" lon="1.83658">
        <ele>135.1</ele>
        <time>2022-08-06T11:55:54Z</time>
      </trkpt>
      <trkpt lat="44.91569" lon="1.83654">
        <ele>135.1</ele>
        <time>2022-08-06T11:55:56Z</time>
      </trkpt>
      <trkpt lat="44.91566" lon="1.8365">
        <ele>135.1</ele>
        <time>2022-08-06T11:55:58Z</time>
      </trkpt>
      <trkpt lat="44.91563" lon="1.83647">
        <ele>135.1</ele>
        <time>2022-08-06T11:56:00Z</time>
      </trkpt>
      <trkpt lat="44.91562" lon="1.83642">
        <ele>135.1</ele>
        <time>2022-08-06T11:56:02Z</time>
      </trkpt>
      <trkpt lat="44.91561" lon="1.83637">
        <ele>135.1</ele>
        <time>2022-08-06T11:56:04Z</time>
      </trkpt>
      <trkpt lat="44.91559" lon="1.83631">
        <ele>135</ele>
        <time>2022-08-06T11:56:06Z</time>
      </trkpt>
      <trkpt lat="44.91558" lon="1.83626">
        <ele>135</ele>
        <time>2022-08-06T11:56:08Z</time>
      </trkpt>
      <trkpt lat="44.91558" lon="1.8362">
        <ele>135</ele>
        <time>2022-08-06T11:56:10Z</time>
      </trkpt>
      <trkpt lat="44.91558" lon="1.83615">
        <ele>134.9</ele>
        <time>2022-08-06T11:56:12Z</time>
      </trkpt>
      <trkpt lat="44.9156" lon="1.83609">
        <ele>134.9</ele>
        <time>2022-08-06T11:56:14Z</time>
      </trkpt>
      <trkpt lat="44.9156" lon="1.83603">
        <ele>134.9</ele>
        <time>2022-08-06T11:56:16Z</time>
      </trkpt>
      <trkpt lat="44.91561" lon="1.83597">
        <ele>134.8</ele>
        <time>2022-08-06T11:56:18Z</time>
      </trkpt>
      <trkpt lat="44.91562" lon="1.83592">
        <ele>134.8</ele>
        <time>2022-08-06T11:56:20Z</time>
      </trkpt>
      <trkpt lat="44.91562" lon="1.83584">
        <ele>134.8</ele>
        <time>2022-08-06T11:56:22Z</time>
      </trkpt>
      <trkpt lat="44.91562" lon="1.83577">
        <ele>134.8</ele>
        <time>2022-08-06T11:56:24Z</time>
      </trkpt>
      <trkpt lat="44.91562" lon="1.8357">
        <ele>134.9</ele>
        <time>2022-08-06T11:56:26Z</time>
      </trkpt>
      <trkpt lat="44.91563" lon="1.83563">
        <ele>134.9</ele>
        <time>2022-08-06T11:56:28Z</time>
      </trkpt>
      <trkpt lat="44.91564" lon="1.83556">
        <ele>135</ele>
        <time>2022-08-06T11:56:30Z</time>
      </trkpt>
      <trkpt lat="44.91568" lon="1.83553">
        <ele>135.1</ele>
        <time>2022-08-06T11:56:32Z</time>
      </trkpt>
      <trkpt lat="44.91571" lon="1.83552">
        <ele>135.2</ele>
        <time>2022-08-06T11:56:34Z</time>
      </trkpt>
      <trkpt lat="44.91574" lon="1.83553">
        <ele>135.2</ele>
        <time>2022-08-06T11:56:36Z</time>
      </trkpt>
      <trkpt lat="44.91575" lon="1.83554">
        <ele>135.2</ele>
        <time>2022-08-06T11:56:38Z</time>
      </trkpt>
      <trkpt lat="44.91575" lon="1.83555">
        <ele>135.2</ele>
        <time>2022-08-06T11:56:40Z</time>
      </trkpt>
      <trkpt lat="44.91575" lon="1.83555">
        <ele>135.2</ele>
        <time>2022-08-06T11:56:42Z</time>
      </trkpt>
      <trkpt lat="44.91575" lon="1.83555">
        <ele>135.2</ele>
        <time>2022-08-06T11:56:46Z</time>
      </trkpt>
      <trkpt lat="44.91577" lon="1.83549">
        <ele>135.3</ele>
        <time>2022-08-06T12:50:57Z</time>
      </trkpt>
      <trkpt lat="44.91577" lon="1.83549">
        <ele>135.3</ele>
        <time>2022-08-06T12:50:58Z</time>
      </trkpt>
      <trkpt lat="44.91566" lon="1.83559">
        <ele>135</ele>
        <time>2022-08-06T12:51:10Z</time>
      </trkpt>
      <trkpt lat="44.91562" lon="1.83564">
        <ele>134.9</ele>
        <time>2022-08-06T12:51:12Z</time>
      </trkpt>
      <trkpt lat="44.91561" lon="1.83572">
        <ele>134.8</ele>
        <time>2022-08-06T12:51:14Z</time>
      </trkpt>
      <trkpt lat="44.91561" lon="1.8358">
        <ele>134.8</ele>
        <time>2022-08-06T12:51:16Z</time>
      </trkpt>
      <trkpt lat="44.91561" lon="1.83587">
        <ele>134.8</ele>
        <time>2022-08-06T12:51:18Z</time>
      </trkpt>
      <trkpt lat="44.91561" lon="1.83594">
        <ele>134.8</ele>
        <time>2022-08-06T12:51:20Z</time>
      </trkpt>
      <trkpt lat="44.91561" lon="1.83601">
        <ele>134.8</ele>
        <time>2022-08-06T12:51:22Z</time>
      </trkpt>
      <trkpt lat="44.91561" lon="1.83608">
        <ele>134.9</ele>
        <time>2022-08-06T12:51:24Z</time>
      </trkpt>
      <trkpt lat="44.9156" lon="1.83615">
        <ele>134.9</ele>
        <time>2022-08-06T12:51:26Z</time>
      </trkpt>
      <trkpt lat="44.91559" lon="1.83623">
        <ele>135</ele>
        <time>2022-08-06T12:51:28Z</time>
      </trkpt>
      <trkpt lat="44.91559" lon="1.8363">
        <ele>135</ele>
        <time>2022-08-06T12:51:30Z</time>
      </trkpt>
      <trkpt lat="44.91561" lon="1.83639">
        <ele>135.1</ele>
        <time>2022-08-06T12:51:32Z</time>
      </trkpt>
      <trkpt lat="44.91565" lon="1.83647">
        <ele>135.1</ele>
        <time>2022-08-06T12:51:34Z</time>
      </trkpt>
      <trkpt lat="44.91569" lon="1.83654">
        <ele>135.1</ele>
        <time>2022-08-06T12:51:36Z</time>
      </trkpt>
      <trkpt lat="44.91575" lon="1.8366">
        <ele>135.1</ele>
        <time>2022-08-06T12:51:38Z</time>
      </trkpt>
      <trkpt lat="44.91581" lon="1.83665">
        <ele>135</ele>
        <time>2022-08-06T12:51:40Z</time>
      </trkpt>
      <trkpt lat="44.91587" lon="1.83669">
        <ele>135</ele>
        <time>2022-08-06T12:51:42Z</time>
      </trkpt>
      <trkpt lat="44.91593" lon="1.83673">
        <ele>135</ele>
        <time>2022-08-06T12:51:44Z</time>
      </trkpt>
      <trkpt lat="44.91597" lon="1.83675">
        <ele>135</ele>
        <time>2022-08-06T12:51:46Z</time>
      </trkpt>
      <trkpt lat="44.916" lon="1.83677">
        <ele>135</ele>
        <time>2022-08-06T12:51:48Z</time>
      </trkpt>
      <trkpt lat="44.91603" lon="1.83679">
        <ele>135</ele>
        <time>2022-08-06T12:51:50Z</time>
      </trkpt>
      <trkpt lat="44.91603" lon="1.83678">
        <ele>135</ele>
        <time>2022-08-06T12:51:52Z</time>
      </trkpt>
      <trkpt lat="44.91603" lon="1.83678">
        <ele>135</ele>
        <time>2022-08-06T12:51:54Z</time>
      </trkpt>
      <trkpt lat="44.91604" lon="1.83678">
        <ele>135</ele>
        <time>2022-08-06T12:51:56Z</time>
      </trkpt>
      <trkpt lat="44.91604" lon="1.83678">
        <ele>135</ele>
        <time>2022-08-06T12:51:58Z</time>
      </trkpt>
      <trkpt lat="44.91617" lon="1.83685">
        <ele>134.9</ele>
        <time>2022-08-06T12:53:24Z</time>
      </trkpt>
      <trkpt lat="44.91622" lon="1.83688">
        <ele>134.9</ele>
        <time>2022-08-06T12:53:26Z</time>
      </trkpt>
      <trkpt lat="44.91626" lon="1.83689">
        <ele>134.9</ele>
        <time>2022-08-06T12:53:28Z</time>
      </trkpt>
      <trkpt lat="44.91628" lon="1.83692">
        <ele>134.9</ele>
        <time>2022-08-06T12:53:30Z</time>
      </trkpt>
      <trkpt lat="44.9163" lon="1.83698">
        <ele>135</ele>
        <time>2022-08-06T12:53:32Z</time>
      </trkpt>
      <trkpt lat="44.91633" lon="1.837">
        <ele>135</ele>
        <time>2022-08-06T12:53:34Z</time>
      </trkpt>
      <trkpt lat="44.91636" lon="1.837">
        <ele>134.9</ele>
        <time>2022-08-06T12:53:36Z</time>
      </trkpt>
      <trkpt lat="44.91638" lon="1.83702">
        <ele>134.9</ele>
        <time>2022-08-06T12:53:38Z</time>
      </trkpt>
      <trkpt lat="44.9164" lon="1.83706">
        <ele>134.9</ele>
        <time>2022-08-06T12:53:40Z</time>
      </trkpt>
      <trkpt lat="44.91643" lon="1.83708">
        <ele>134.9</ele>
        <time>2022-08-06T12:53:42Z</time>
      </trkpt>
      <trkpt lat="44.91646" lon="1.8371">
        <ele>134.9</ele>
        <time>2022-08-06T12:53:44Z</time>
      </trkpt>
      <trkpt lat="44.9165" lon="1.83713">
        <ele>134.9</ele>
        <time>2022-08-06T12:53:46Z</time>
      </trkpt>
      <trkpt lat="44.91653" lon="1.83714">
        <ele>134.8</ele>
        <time>2022-08-06T12:53:48Z</time>
      </trkpt>
      <trkpt lat="44.91657" lon="1.83713">
        <ele>134.7</ele>
        <time>2022-08-06T12:53:50Z</time>
      </trkpt>
      <trkpt lat="44.91661" lon="1.83716">
        <ele>134.7</ele>
        <time>2022-08-06T12:53:52Z</time>
      </trkpt>
      <trkpt lat="44.91664" lon="1.8372">
        <ele>134.7</ele>
        <time>2022-08-06T12:53:54Z</time>
      </trkpt>
      <trkpt lat="44.91666" lon="1.83725">
        <ele>134.7</ele>
        <time>2022-08-06T12:53:56Z</time>
      </trkpt>
      <trkpt lat="44.91667" lon="1.83731">
        <ele>134.8</ele>
        <time>2022-08-06T12:53:58Z</time>
      </trkpt>
      <trkpt lat="44.91667" lon="1.83737">
        <ele>134.8</ele>
        <time>2022-08-06T12:54:00Z</time>
      </trkpt>
      <trkpt lat="44.91668" lon="1.83743">
        <ele>134.9</ele>
        <time>2022-08-06T12:54:02Z</time>
      </trkpt>
      <trkpt lat="44.91668" lon="1.83748">
        <ele>135</ele>
        <time>2022-08-06T12:54:04Z</time>
      </trkpt>
      <trkpt lat="44.91669" lon="1.83754">
        <ele>135</ele>
        <time>2022-08-06T12:54:06Z</time>
      </trkpt>
      <trkpt lat="44.9167" lon="1.83759">
        <ele>135</ele>
        <time>2022-08-06T12:54:08Z</time>
      </trkpt>
      <trkpt lat="44.9167" lon="1.83765">
        <ele>135</ele>
        <time>2022-08-06T12:54:10Z</time>
      </trkpt>
      <trkpt lat="44.91672" lon="1.83769">
        <ele>134.9</ele>
        <time>2022-08-06T12:54:12Z</time>
      </trkpt>
      <trkpt lat="44.91671" lon="1.83773">
        <ele>134.9</ele>
        <time>2022-08-06T12:54:14Z</time>
      </trkpt>
      <trkpt lat="44.91671" lon="1.83778">
        <ele>134.9</ele>
        <time>2022-08-06T12:54:16Z</time>
      </trkpt>
      <trkpt lat="44.91671" lon="1.83782">
        <ele>135</ele>
        <time>2022-08-06T12:54:18Z</time>
      </trkpt>
      <trkpt lat="44.9167" lon="1.83786">
        <ele>135</ele>
        <time>2022-08-06T12:54:20Z</time>
      </trkpt>
      <trkpt lat="44.91669" lon="1.83789">
        <ele>135</ele>
        <time>2022-08-06T12:54:22Z</time>
      </trkpt>
      <trkpt lat="44.91669" lon="1.8379">
        <ele>135</ele>
        <time>2022-08-06T12:54:24Z</time>
      </trkpt>
      <trkpt lat="44.91669" lon="1.8379">
        <ele>135</ele>
        <time>2022-08-06T12:54:26Z</time>
      </trkpt>
      <trkpt lat="44.91669" lon="1.8379">
        <ele>135</ele>
        <time>2022-08-06T12:54:28Z</time>
      </trkpt>
      <trkpt lat="44.91668" lon="1.8379">
        <ele>135</ele>
        <time>2022-08-06T12:54:30Z</time>
      </trkpt>
      <trkpt lat="44.91668" lon="1.8379">
        <ele>135</ele>
        <time>2022-08-06T12:54:32Z</time>
      </trkpt>
      <trkpt lat="44.91656" lon="1.83802">
        <ele>135.3</ele>
        <time>2022-08-06T12:55:00Z</time>
      </trkpt>
      <trkpt lat="44.91651" lon="1.83806">
        <ele>135.5</ele>
        <time>2022-08-06T12:55:02Z</time>
      </trkpt>
      <trkpt lat="44.91647" lon="1.83809">
        <ele>135.7</ele>
        <time>2022-08-06T12:55:04Z</time>
      </trkpt>
      <trkpt lat="44.91641" lon="1.83814">
        <ele>135.8</ele>
        <time>2022-08-06T12:55:06Z</time>
      </trkpt>
      <trkpt lat="44.91636" lon="1.83818">
        <ele>136</ele>
        <time>2022-08-06T12:55:08Z</time>
      </trkpt>
      <trkpt lat="44.9163" lon="1.83823">
        <ele>136.3</ele>
        <time>2022-08-06T12:55:10Z</time>
      </trkpt>
      <trkpt lat="44.91625" lon="1.83828">
        <ele>136.5</ele>
        <time>2022-08-06T12:55:12Z</time>
      </trkpt>
      <trkpt lat="44.91618" lon="1.83833">
        <ele>136.7</ele>
        <time>2022-08-06T12:55:14Z</time>
      </trkpt>
      <trkpt lat="44.91612" lon="1.83838">
        <ele>137</ele>
        <time>2022-08-06T12:55:16Z</time>
      </trkpt>
      <trkpt lat="44.91605" lon="1.83843">
        <ele>137.2</ele>
        <time>2022-08-06T12:55:18Z</time>
      </trkpt>
      <trkpt lat="44.91599" lon="1.83849">
        <ele>137.4</ele>
        <time>2022-08-06T12:55:20Z</time>
      </trkpt>
      <trkpt lat="44.91592" lon="1.83854">
        <ele>137.7</ele>
        <time>2022-08-06T12:55:22Z</time>
      </trkpt>
      <trkpt lat="44.91586" lon="1.83859">
        <ele>137.9</ele>
        <time>2022-08-06T12:55:24Z</time>
      </trkpt>
      <trkpt lat="44.91579" lon="1.83866">
        <ele>138</ele>
        <time>2022-08-06T12:55:26Z</time>
      </trkpt>
      <trkpt lat="44.91572" lon="1.83871">
        <ele>138.1</ele>
        <time>2022-08-06T12:55:28Z</time>
      </trkpt>
      <trkpt lat="44.91564" lon="1.83876">
        <ele>138.1</ele>
        <time>2022-08-06T12:55:30Z</time>
      </trkpt>
      <trkpt lat="44.91557" lon="1.83883">
        <ele>138.1</ele>
        <time>2022-08-06T12:55:32Z</time>
      </trkpt>
      <trkpt lat="44.9155" lon="1.83887">
        <ele>138.1</ele>
        <time>2022-08-06T12:55:34Z</time>
      </trkpt>
      <trkpt lat="44.91545" lon="1.83892">
        <ele>138.1</ele>
        <time>2022-08-06T12:55:36Z</time>
      </trkpt>
      <trkpt lat="44.91539" lon="1.83898">
        <ele>138.1</ele>
        <time>2022-08-06T12:55:38Z</time>
      </trkpt>
      <trkpt lat="44.91533" lon="1.83902">
        <ele>138.1</ele>
        <time>2022-08-06T12:55:40Z</time>
      </trkpt>
      <trkpt lat="44.91527" lon="1.83906">
        <ele>138.1</ele>
        <time>2022-08-06T12:55:42Z</time>
      </trkpt>
      <trkpt lat="44.91523" lon="1.8391">
        <ele>138.1</ele>
        <time>2022-08-06T12:55:44Z</time>
      </trkpt>
      <trkpt lat="44.91518" lon="1.83913">
        <ele>138</ele>
        <time>2022-08-06T12:55:46Z</time>
      </trkpt>
      <trkpt lat="44.91516" lon="1.83913">
        <ele>138</ele>
        <time>2022-08-06T12:55:48Z</time>
      </trkpt>
      <trkpt lat="44.91516" lon="1.83914">
        <ele>138</ele>
        <time>2022-08-06T12:55:50Z</time>
      </trkpt>
      <trkpt lat="44.91516" lon="1.83914">
        <ele>138</ele>
        <time>2022-08-06T12:55:52Z</time>
      </trkpt>
      <trkpt lat="44.91516" lon="1.83914">
        <ele>138</ele>
        <time>2022-08-06T12:55:54Z</time>
      </trkpt>
      <trkpt lat="44.91514" lon="1.83916">
        <ele>138</ele>
        <time>2022-08-06T12:55:56Z</time>
      </trkpt>
      <trkpt lat="44.91499" lon="1.83928">
        <ele>137.9</ele>
        <time>2022-08-06T12:56:28Z</time>
      </trkpt>
      <trkpt lat="44.91494" lon="1.83933">
        <ele>137.8</ele>
        <time>2022-08-06T12:56:30Z</time>
      </trkpt>
      <trkpt lat="44.91489" lon="1.83937">
        <ele>137.7</ele>
        <time>2022-08-06T12:56:32Z</time>
      </trkpt>
      <trkpt lat="44.91483" lon="1.83937">
        <ele>137.7</ele>
        <time>2022-08-06T12:56:34Z</time>
      </trkpt>
      <trkpt lat="44.91479" lon="1.83928">
        <ele>137.7</ele>
        <time>2022-08-06T12:56:36Z</time>
      </trkpt>
      <trkpt lat="44.91475" lon="1.8392">
        <ele>137.7</ele>
        <time>2022-08-06T12:56:38Z</time>
      </trkpt>
      <trkpt lat="44.9147" lon="1.83912">
        <ele>137.7</ele>
        <time>2022-08-06T12:56:40Z</time>
      </trkpt>
      <trkpt lat="44.91467" lon="1.83906">
        <ele>137.7</ele>
        <time>2022-08-06T12:56:42Z</time>
      </trkpt>
      <trkpt lat="44.91464" lon="1.83899">
        <ele>137.7</ele>
        <time>2022-08-06T12:56:44Z</time>
      </trkpt>
      <trkpt lat="44.9146" lon="1.83891">
        <ele>137.7</ele>
        <time>2022-08-06T12:56:46Z</time>
      </trkpt>
      <trkpt lat="44.91456" lon="1.83884">
        <ele>137.7</ele>
        <time>2022-08-06T12:56:48Z</time>
      </trkpt>
      <trkpt lat="44.91452" lon="1.83877">
        <ele>137.6</ele>
        <time>2022-08-06T12:56:50Z</time>
      </trkpt>
      <trkpt lat="44.91449" lon="1.83869">
        <ele>137.6</ele>
        <time>2022-08-06T12:56:52Z</time>
      </trkpt>
      <trkpt lat="44.91447" lon="1.83859">
        <ele>137.6</ele>
        <time>2022-08-06T12:56:54Z</time>
      </trkpt>
      <trkpt lat="44.91444" lon="1.83851">
        <ele>137.6</ele>
        <time>2022-08-06T12:56:56Z</time>
      </trkpt>
      <trkpt lat="44.9144" lon="1.83842">
        <ele>137.5</ele>
        <time>2022-08-06T12:56:58Z</time>
      </trkpt>
      <trkpt lat="44.91436" lon="1.83833">
        <ele>137.5</ele>
        <time>2022-08-06T12:57:00Z</time>
      </trkpt>
      <trkpt lat="44.91433" lon="1.83824">
        <ele>137.4</ele>
        <time>2022-08-06T12:57:02Z</time>
      </trkpt>
      <trkpt lat="44.91428" lon="1.83816">
        <ele>137.3</ele>
        <time>2022-08-06T12:57:04Z</time>
      </trkpt>
      <trkpt lat="44.91424" lon="1.83807">
        <ele>137.2</ele>
        <time>2022-08-06T12:57:06Z</time>
      </trkpt>
      <trkpt lat="44.9142" lon="1.83798">
        <ele>137.1</ele>
        <time>2022-08-06T12:57:08Z</time>
      </trkpt>
      <trkpt lat="44.91416" lon="1.83789">
        <ele>137</ele>
        <time>2022-08-06T12:57:10Z</time>
      </trkpt>
      <trkpt lat="44.91412" lon="1.83779">
        <ele>136.9</ele>
        <time>2022-08-06T12:57:12Z</time>
      </trkpt>
      <trkpt lat="44.91408" lon="1.8377">
        <ele>136.9</ele>
        <time>2022-08-06T12:57:14Z</time>
      </trkpt>
      <trkpt lat="44.91403" lon="1.83762">
        <ele>136.8</ele>
        <time>2022-08-06T12:57:16Z</time>
      </trkpt>
      <trkpt lat="44.91399" lon="1.83753">
        <ele>136.8</ele>
        <time>2022-08-06T12:57:18Z</time>
      </trkpt>
      <trkpt lat="44.91396" lon="1.83744">
        <ele>136.7</ele>
        <time>2022-08-06T12:57:20Z</time>
      </trkpt>
      <trkpt lat="44.91392" lon="1.83736">
        <ele>136.7</ele>
        <time>2022-08-06T12:57:22Z</time>
      </trkpt>
      <trkpt lat="44.91389" lon="1.83728">
        <ele>136.7</ele>
        <time>2022-08-06T12:57:24Z</time>
      </trkpt>
      <trkpt lat="44.91385" lon="1.8372">
        <ele>136.6</ele>
        <time>2022-08-06T12:57:26Z</time>
      </trkpt>
      <trkpt lat="44.91381" lon="1.83714">
        <ele>136.6</ele>
        <time>2022-08-06T12:57:28Z</time>
      </trkpt>
      <trkpt lat="44.91379" lon="1.83709">
        <ele>136.5</ele>
        <time>2022-08-06T12:57:30Z</time>
      </trkpt>
      <trkpt lat="44.91377" lon="1.83707">
        <ele>136.5</ele>
        <time>2022-08-06T12:57:32Z</time>
      </trkpt>
      <trkpt lat="44.91376" lon="1.83701">
        <ele>136.5</ele>
        <time>2022-08-06T12:57:34Z</time>
      </trkpt>
      <trkpt lat="44.91377" lon="1.83693">
        <ele>136.5</ele>
        <time>2022-08-06T12:57:36Z</time>
      </trkpt>
      <trkpt lat="44.91377" lon="1.83685">
        <ele>136.5</ele>
        <time>2022-08-06T12:57:38Z</time>
      </trkpt>
      <trkpt lat="44.91376" lon="1.83676">
        <ele>136.5</ele>
        <time>2022-08-06T12:57:40Z</time>
      </trkpt>
      <trkpt lat="44.91375" lon="1.83667">
        <ele>136.5</ele>
        <time>2022-08-06T12:57:42Z</time>
      </trkpt>
      <trkpt lat="44.91374" lon="1.83658">
        <ele>136.4</ele>
        <time>2022-08-06T12:57:44Z</time>
      </trkpt>
      <trkpt lat="44.91372" lon="1.83649">
        <ele>136.4</ele>
        <time>2022-08-06T12:57:46Z</time>
      </trkpt>
      <trkpt lat="44.91371" lon="1.8364">
        <ele>136.3</ele>
        <time>2022-08-06T12:57:48Z</time>
      </trkpt>
      <trkpt lat="44.91369" lon="1.83631">
        <ele>136.2</ele>
        <time>2022-08-06T12:57:50Z</time>
      </trkpt>
      <trkpt lat="44.91367" lon="1.83622">
        <ele>136.2</ele>
        <time>2022-08-06T12:57:52Z</time>
      </trkpt>
      <trkpt lat="44.91364" lon="1.83613">
        <ele>136.1</ele>
        <time>2022-08-06T12:57:54Z</time>
      </trkpt>
      <trkpt lat="44.91361" lon="1.83603">
        <ele>136.1</ele>
        <time>2022-08-06T12:57:56Z</time>
      </trkpt>
      <trkpt lat="44.91359" lon="1.83594">
        <ele>136</ele>
        <time>2022-08-06T12:57:58Z</time>
      </trkpt>
      <trkpt lat="44.91357" lon="1.83584">
        <ele>136</ele>
        <time>2022-08-06T12:58:00Z</time>
      </trkpt>
      <trkpt lat="44.91354" lon="1.83575">
        <ele>136.2</ele>
        <time>2022-08-06T12:58:02Z</time>
      </trkpt>
      <trkpt lat="44.91351" lon="1.83565">
        <ele>136.4</ele>
        <time>2022-08-06T12:58:04Z</time>
      </trkpt>
      <trkpt lat="44.91349" lon="1.83554">
        <ele>136.6</ele>
        <time>2022-08-06T12:58:06Z</time>
      </trkpt>
      <trkpt lat="44.91347" lon="1.83544">
        <ele>136.8</ele>
        <time>2022-08-06T12:58:08Z</time>
      </trkpt>
      <trkpt lat="44.91344" lon="1.83533">
        <ele>137.1</ele>
        <time>2022-08-06T12:58:10Z</time>
      </trkpt>
      <trkpt lat="44.91342" lon="1.8352">
        <ele>137.4</ele>
        <time>2022-08-06T12:58:12Z</time>
      </trkpt>
      <trkpt lat="44.9134" lon="1.83507">
        <ele>137.7</ele>
        <time>2022-08-06T12:58:14Z</time>
      </trkpt>
      <trkpt lat="44.91339" lon="1.83494">
        <ele>137.9</ele>
        <time>2022-08-06T12:58:16Z</time>
      </trkpt>
      <trkpt lat="44.91339" lon="1.83481">
        <ele>137.9</ele>
        <time>2022-08-06T12:58:18Z</time>
      </trkpt>
      <trkpt lat="44.91339" lon="1.83467">
        <ele>137.9</ele>
        <time>2022-08-06T12:58:20Z</time>
      </trkpt>
      <trkpt lat="44.91338" lon="1.83453">
        <ele>137.9</ele>
        <time>2022-08-06T12:58:22Z</time>
      </trkpt>
      <trkpt lat="44.91335" lon="1.83441">
        <ele>138</ele>
        <time>2022-08-06T12:58:24Z</time>
      </trkpt>
      <trkpt lat="44.91331" lon="1.8343">
        <ele>138</ele>
        <time>2022-08-06T12:58:26Z</time>
      </trkpt>
      <trkpt lat="44.91325" lon="1.8342">
        <ele>138</ele>
        <time>2022-08-06T12:58:28Z</time>
      </trkpt>
      <trkpt lat="44.9132" lon="1.83411">
        <ele>137.9</ele>
        <time>2022-08-06T12:58:30Z</time>
      </trkpt>
      <trkpt lat="44.91315" lon="1.83402">
        <ele>137.7</ele>
        <time>2022-08-06T12:58:32Z</time>
      </trkpt>
      <trkpt lat="44.91309" lon="1.83393">
        <ele>137.5</ele>
        <time>2022-08-06T12:58:34Z</time>
      </trkpt>
      <trkpt lat="44.91305" lon="1.83385">
        <ele>137.4</ele>
        <time>2022-08-06T12:58:36Z</time>
      </trkpt>
      <trkpt lat="44.913" lon="1.83377">
        <ele>137.2</ele>
        <time>2022-08-06T12:58:38Z</time>
      </trkpt>
      <trkpt lat="44.91296" lon="1.8337">
        <ele>137.1</ele>
        <time>2022-08-06T12:58:40Z</time>
      </trkpt>
      <trkpt lat="44.91291" lon="1.83362">
        <ele>137</ele>
        <time>2022-08-06T12:58:42Z</time>
      </trkpt>
      <trkpt lat="44.91286" lon="1.83353">
        <ele>136.9</ele>
        <time>2022-08-06T12:58:44Z</time>
      </trkpt>
      <trkpt lat="44.91281" lon="1.83343">
        <ele>136.8</ele>
        <time>2022-08-06T12:58:46Z</time>
      </trkpt>
      <trkpt lat="44.91274" lon="1.83332">
        <ele>136.7</ele>
        <time>2022-08-06T12:58:48Z</time>
      </trkpt>
      <trkpt lat="44.91268" lon="1.83322">
        <ele>136.5</ele>
        <time>2022-08-06T12:58:50Z</time>
      </trkpt>
      <trkpt lat="44.91262" lon="1.8331">
        <ele>136.2</ele>
        <time>2022-08-06T12:58:52Z</time>
      </trkpt>
      <trkpt lat="44.91256" lon="1.83299">
        <ele>136.1</ele>
        <time>2022-08-06T12:58:54Z</time>
      </trkpt>
      <trkpt lat="44.91251" lon="1.83289">
        <ele>135.9</ele>
        <time>2022-08-06T12:58:56Z</time>
      </trkpt>
      <trkpt lat="44.91246" lon="1.83278">
        <ele>135.7</ele>
        <time>2022-08-06T12:58:58Z</time>
      </trkpt>
      <trkpt lat="44.9124" lon="1.83267">
        <ele>135.5</ele>
        <time>2022-08-06T12:59:00Z</time>
      </trkpt>
      <trkpt lat="44.91235" lon="1.83256">
        <ele>135.3</ele>
        <time>2022-08-06T12:59:02Z</time>
      </trkpt>
      <trkpt lat="44.91229" lon="1.83246">
        <ele>135.2</ele>
        <time>2022-08-06T12:59:04Z</time>
      </trkpt>
      <trkpt lat="44.91224" lon="1.83234">
        <ele>135</ele>
        <time>2022-08-06T12:59:06Z</time>
      </trkpt>
      <trkpt lat="44.91219" lon="1.83223">
        <ele>134.9</ele>
        <time>2022-08-06T12:59:08Z</time>
      </trkpt>
      <trkpt lat="44.91214" lon="1.83212">
        <ele>134.7</ele>
        <time>2022-08-06T12:59:10Z</time>
      </trkpt>
      <trkpt lat="44.9121" lon="1.83201">
        <ele>134.6</ele>
        <time>2022-08-06T12:59:12Z</time>
      </trkpt>
      <trkpt lat="44.91206" lon="1.8319">
        <ele>134.5</ele>
        <time>2022-08-06T12:59:14Z</time>
      </trkpt>
      <trkpt lat="44.91202" lon="1.83179">
        <ele>134.4</ele>
        <time>2022-08-06T12:59:16Z</time>
      </trkpt>
      <trkpt lat="44.91197" lon="1.83167">
        <ele>134.3</ele>
        <time>2022-08-06T12:59:18Z</time>
      </trkpt>
      <trkpt lat="44.91193" lon="1.83155">
        <ele>134.3</ele>
        <time>2022-08-06T12:59:20Z</time>
      </trkpt>
      <trkpt lat="44.9119" lon="1.83143">
        <ele>134.4</ele>
        <time>2022-08-06T12:59:22Z</time>
      </trkpt>
      <trkpt lat="44.91186" lon="1.83131">
        <ele>134.4</ele>
        <time>2022-08-06T12:59:24Z</time>
      </trkpt>
      <trkpt lat="44.91183" lon="1.8312">
        <ele>134.5</ele>
        <time>2022-08-06T12:59:26Z</time>
      </trkpt>
      <trkpt lat="44.91182" lon="1.83108">
        <ele>134.5</ele>
        <time>2022-08-06T12:59:28Z</time>
      </trkpt>
      <trkpt lat="44.9118" lon="1.83096">
        <ele>134.6</ele>
        <time>2022-08-06T12:59:30Z</time>
      </trkpt>
      <trkpt lat="44.91177" lon="1.83084">
        <ele>134.6</ele>
        <time>2022-08-06T12:59:32Z</time>
      </trkpt>
      <trkpt lat="44.91174" lon="1.83073">
        <ele>134.9</ele>
        <time>2022-08-06T12:59:34Z</time>
      </trkpt>
      <trkpt lat="44.9117" lon="1.83062">
        <ele>135.1</ele>
        <time>2022-08-06T12:59:36Z</time>
      </trkpt>
      <trkpt lat="44.91167" lon="1.83051">
        <ele>135.4</ele>
        <time>2022-08-06T12:59:38Z</time>
      </trkpt>
      <trkpt lat="44.91163" lon="1.83041">
        <ele>135.5</ele>
        <time>2022-08-06T12:59:40Z</time>
      </trkpt>
      <trkpt lat="44.9116" lon="1.8303">
        <ele>135.6</ele>
        <time>2022-08-06T12:59:42Z</time>
      </trkpt>
      <trkpt lat="44.91156" lon="1.83019">
        <ele>135.6</ele>
        <time>2022-08-06T12:59:44Z</time>
      </trkpt>
      <trkpt lat="44.91152" lon="1.8301">
        <ele>135.7</ele>
        <time>2022-08-06T12:59:46Z</time>
      </trkpt>
      <trkpt lat="44.91149" lon="1.83">
        <ele>135.8</ele>
        <time>2022-08-06T12:59:48Z</time>
      </trkpt>
      <trkpt lat="44.91145" lon="1.8299">
        <ele>135.6</ele>
        <time>2022-08-06T12:59:50Z</time>
      </trkpt>
      <trkpt lat="44.9114" lon="1.8298">
        <ele>135.4</ele>
        <time>2022-08-06T12:59:52Z</time>
      </trkpt>
      <trkpt lat="44.91136" lon="1.8297">
        <ele>135.3</ele>
        <time>2022-08-06T12:59:54Z</time>
      </trkpt>
      <trkpt lat="44.91131" lon="1.82961">
        <ele>135.2</ele>
        <time>2022-08-06T12:59:56Z</time>
      </trkpt>
      <trkpt lat="44.91127" lon="1.82951">
        <ele>135.2</ele>
        <time>2022-08-06T12:59:58Z</time>
      </trkpt>
      <trkpt lat="44.91123" lon="1.82942">
        <ele>135.2</ele>
        <time>2022-08-06T13:00:00Z</time>
      </trkpt>
      <trkpt lat="44.91119" lon="1.82932">
        <ele>135.2</ele>
        <time>2022-08-06T13:00:02Z</time>
      </trkpt>
      <trkpt lat="44.91114" lon="1.82922">
        <ele>135.3</ele>
        <time>2022-08-06T13:00:04Z</time>
      </trkpt>
      <trkpt lat="44.91109" lon="1.82911">
        <ele>135.3</ele>
        <time>2022-08-06T13:00:06Z</time>
      </trkpt>
      <trkpt lat="44.91104" lon="1.82902">
        <ele>135.3</ele>
        <time>2022-08-06T13:00:08Z</time>
      </trkpt>
      <trkpt lat="44.91099" lon="1.82891">
        <ele>135.3</ele>
        <time>2022-08-06T13:00:10Z</time>
      </trkpt>
      <trkpt lat="44.91094" lon="1.8288">
        <ele>135.3</ele>
        <time>2022-08-06T13:00:12Z</time>
      </trkpt>
      <trkpt lat="44.91089" lon="1.82869">
        <ele>135.3</ele>
        <time>2022-08-06T13:00:14Z</time>
      </trkpt>
      <trkpt lat="44.91084" lon="1.82859">
        <ele>135.3</ele>
        <time>2022-08-06T13:00:16Z</time>
      </trkpt>
      <trkpt lat="44.9108" lon="1.82847">
        <ele>135.2</ele>
        <time>2022-08-06T13:00:18Z</time>
      </trkpt>
      <trkpt lat="44.91075" lon="1.82836">
        <ele>135</ele>
        <time>2022-08-06T13:00:20Z</time>
      </trkpt>
      <trkpt lat="44.91071" lon="1.82825">
        <ele>134.9</ele>
        <time>2022-08-06T13:00:22Z</time>
      </trkpt>
      <trkpt lat="44.91067" lon="1.82814">
        <ele>134.7</ele>
        <time>2022-08-06T13:00:24Z</time>
      </trkpt>
      <trkpt lat="44.91064" lon="1.82803">
        <ele>134.6</ele>
        <time>2022-08-06T13:00:26Z</time>
      </trkpt>
      <trkpt lat="44.9106" lon="1.82792">
        <ele>134.4</ele>
        <time>2022-08-06T13:00:28Z</time>
      </trkpt>
      <trkpt lat="44.91057" lon="1.82781">
        <ele>134.2</ele>
        <time>2022-08-06T13:00:30Z</time>
      </trkpt>
      <trkpt lat="44.91053" lon="1.8277">
        <ele>134</ele>
        <time>2022-08-06T13:00:32Z</time>
      </trkpt>
      <trkpt lat="44.91049" lon="1.82758">
        <ele>133.7</ele>
        <time>2022-08-06T13:00:34Z</time>
      </trkpt>
      <trkpt lat="44.91046" lon="1.82746">
        <ele>133.6</ele>
        <time>2022-08-06T13:00:36Z</time>
      </trkpt>
      <trkpt lat="44.91043" lon="1.82735">
        <ele>133.7</ele>
        <time>2022-08-06T13:00:38Z</time>
      </trkpt>
      <trkpt lat="44.91039" lon="1.82724">
        <ele>133.8</ele>
        <time>2022-08-06T13:00:40Z</time>
      </trkpt>
      <trkpt lat="44.91036" lon="1.82712">
        <ele>133.9</ele>
        <time>2022-08-06T13:00:42Z</time>
      </trkpt>
      <trkpt lat="44.91032" lon="1.82701">
        <ele>134</ele>
        <time>2022-08-06T13:00:44Z</time>
      </trkpt>
      <trkpt lat="44.91029" lon="1.8269">
        <ele>134.1</ele>
        <time>2022-08-06T13:00:46Z</time>
      </trkpt>
      <trkpt lat="44.91026" lon="1.82678">
        <ele>134.2</ele>
        <time>2022-08-06T13:00:48Z</time>
      </trkpt>
      <trkpt lat="44.91023" lon="1.82667">
        <ele>134.3</ele>
        <time>2022-08-06T13:00:50Z</time>
      </trkpt>
      <trkpt lat="44.9102" lon="1.82655">
        <ele>134.3</ele>
        <time>2022-08-06T13:00:52Z</time>
      </trkpt>
      <trkpt lat="44.91018" lon="1.82645">
        <ele>134.4</ele>
        <time>2022-08-06T13:00:54Z</time>
      </trkpt>
      <trkpt lat="44.91016" lon="1.82635">
        <ele>134.5</ele>
        <time>2022-08-06T13:00:56Z</time>
      </trkpt>
      <trkpt lat="44.91014" lon="1.82623">
        <ele>134.6</ele>
        <time>2022-08-06T13:00:58Z</time>
      </trkpt>
      <trkpt lat="44.91012" lon="1.82613">
        <ele>134.7</ele>
        <time>2022-08-06T13:01:00Z</time>
      </trkpt>
      <trkpt lat="44.9101" lon="1.82603">
        <ele>134.8</ele>
        <time>2022-08-06T13:01:02Z</time>
      </trkpt>
      <trkpt lat="44.91009" lon="1.82594">
        <ele>134.9</ele>
        <time>2022-08-06T13:01:04Z</time>
      </trkpt>
      <trkpt lat="44.91008" lon="1.82586">
        <ele>135</ele>
        <time>2022-08-06T13:01:06Z</time>
      </trkpt>
      <trkpt lat="44.91007" lon="1.82577">
        <ele>135</ele>
        <time>2022-08-06T13:01:08Z</time>
      </trkpt>
      <trkpt lat="44.91005" lon="1.82569">
        <ele>135</ele>
        <time>2022-08-06T13:01:10Z</time>
      </trkpt>
      <trkpt lat="44.91003" lon="1.82561">
        <ele>135</ele>
        <time>2022-08-06T13:01:12Z</time>
      </trkpt>
      <trkpt lat="44.91002" lon="1.82553">
        <ele>135</ele>
        <time>2022-08-06T13:01:14Z</time>
      </trkpt>
      <trkpt lat="44.91" lon="1.82544">
        <ele>135</ele>
        <time>2022-08-06T13:01:16Z</time>
      </trkpt>
      <trkpt lat="44.90998" lon="1.82535">
        <ele>134.9</ele>
        <time>2022-08-06T13:01:18Z</time>
      </trkpt>
      <trkpt lat="44.90995" lon="1.82526">
        <ele>134.9</ele>
        <time>2022-08-06T13:01:20Z</time>
      </trkpt>
      <trkpt lat="44.90992" lon="1.82517">
        <ele>134.8</ele>
        <time>2022-08-06T13:01:22Z</time>
      </trkpt>
      <trkpt lat="44.9099" lon="1.82507">
        <ele>134.8</ele>
        <time>2022-08-06T13:01:24Z</time>
      </trkpt>
      <trkpt lat="44.90987" lon="1.82498">
        <ele>134.7</ele>
        <time>2022-08-06T13:01:26Z</time>
      </trkpt>
      <trkpt lat="44.90984" lon="1.82488">
        <ele>134.5</ele>
        <time>2022-08-06T13:01:28Z</time>
      </trkpt>
      <trkpt lat="44.90981" lon="1.82479">
        <ele>134.4</ele>
        <time>2022-08-06T13:01:30Z</time>
      </trkpt>
      <trkpt lat="44.90978" lon="1.82469">
        <ele>134.3</ele>
        <time>2022-08-06T13:01:32Z</time>
      </trkpt>
      <trkpt lat="44.90976" lon="1.82459">
        <ele>134.2</ele>
        <time>2022-08-06T13:01:34Z</time>
      </trkpt>
      <trkpt lat="44.90972" lon="1.82449">
        <ele>134.1</ele>
        <time>2022-08-06T13:01:36Z</time>
      </trkpt>
      <trkpt lat="44.90969" lon="1.82439">
        <ele>134.1</ele>
        <time>2022-08-06T13:01:38Z</time>
      </trkpt>
      <trkpt lat="44.90965" lon="1.82428">
        <ele>134</ele>
        <time>2022-08-06T13:01:40Z</time>
      </trkpt>
      <trkpt lat="44.90962" lon="1.82417">
        <ele>134</ele>
        <time>2022-08-06T13:01:42Z</time>
      </trkpt>
      <trkpt lat="44.90958" lon="1.82408">
        <ele>133.9</ele>
        <time>2022-08-06T13:01:44Z</time>
      </trkpt>
      <trkpt lat="44.90955" lon="1.82397">
        <ele>133.8</ele>
        <time>2022-08-06T13:01:46Z</time>
      </trkpt>
      <trkpt lat="44.90951" lon="1.82386">
        <ele>133.6</ele>
        <time>2022-08-06T13:01:48Z</time>
      </trkpt>
      <trkpt lat="44.90947" lon="1.82375">
        <ele>133.5</ele>
        <time>2022-08-06T13:01:50Z</time>
      </trkpt>
      <trkpt lat="44.90943" lon="1.82365">
        <ele>133.4</ele>
        <time>2022-08-06T13:01:52Z</time>
      </trkpt>
      <trkpt lat="44.90939" lon="1.82354">
        <ele>133.3</ele>
        <time>2022-08-06T13:01:54Z</time>
      </trkpt>
      <trkpt lat="44.90935" lon="1.82345">
        <ele>133.1</ele>
        <time>2022-08-06T13:01:56Z</time>
      </trkpt>
      <trkpt lat="44.90933" lon="1.82338">
        <ele>133.1</ele>
        <time>2022-08-06T13:01:58Z</time>
      </trkpt>
      <trkpt lat="44.90928" lon="1.82331">
        <ele>133</ele>
        <time>2022-08-06T13:02:00Z</time>
      </trkpt>
      <trkpt lat="44.90923" lon="1.82327">
        <ele>132.9</ele>
        <time>2022-08-06T13:02:02Z</time>
      </trkpt>
      <trkpt lat="44.90915" lon="1.82328">
        <ele>132.9</ele>
        <time>2022-08-06T13:02:04Z</time>
      </trkpt>
      <trkpt lat="44.90909" lon="1.82333">
        <ele>132.9</ele>
        <time>2022-08-06T13:02:06Z</time>
      </trkpt>
      <trkpt lat="44.90904" lon="1.82341">
        <ele>132.9</ele>
        <time>2022-08-06T13:02:08Z</time>
      </trkpt>
      <trkpt lat="44.909" lon="1.82349">
        <ele>133</ele>
        <time>2022-08-06T13:02:10Z</time>
      </trkpt>
      <trkpt lat="44.90895" lon="1.82355">
        <ele>133</ele>
        <time>2022-08-06T13:02:12Z</time>
      </trkpt>
      <trkpt lat="44.90889" lon="1.82363">
        <ele>133</ele>
        <time>2022-08-06T13:02:14Z</time>
      </trkpt>
      <trkpt lat="44.90885" lon="1.8237">
        <ele>133.1</ele>
        <time>2022-08-06T13:02:16Z</time>
      </trkpt>
      <trkpt lat="44.9088" lon="1.82378">
        <ele>133.1</ele>
        <time>2022-08-06T13:02:18Z</time>
      </trkpt>
      <trkpt lat="44.90875" lon="1.82385">
        <ele>133.1</ele>
        <time>2022-08-06T13:02:20Z</time>
      </trkpt>
      <trkpt lat="44.90871" lon="1.82392">
        <ele>133.2</ele>
        <time>2022-08-06T13:02:22Z</time>
      </trkpt>
      <trkpt lat="44.90866" lon="1.824">
        <ele>133.2</ele>
        <time>2022-08-06T13:02:24Z</time>
      </trkpt>
      <trkpt lat="44.90861" lon="1.82407">
        <ele>133.2</ele>
        <time>2022-08-06T13:02:26Z</time>
      </trkpt>
      <trkpt lat="44.90857" lon="1.82414">
        <ele>133.3</ele>
        <time>2022-08-06T13:02:28Z</time>
      </trkpt>
      <trkpt lat="44.90852" lon="1.82422">
        <ele>133.2</ele>
        <time>2022-08-06T13:02:30Z</time>
      </trkpt>
      <trkpt lat="44.90847" lon="1.82429">
        <ele>133.1</ele>
        <time>2022-08-06T13:02:32Z</time>
      </trkpt>
      <trkpt lat="44.90843" lon="1.82437">
        <ele>133.1</ele>
        <time>2022-08-06T13:02:34Z</time>
      </trkpt>
      <trkpt lat="44.90838" lon="1.82444">
        <ele>133</ele>
        <time>2022-08-06T13:02:36Z</time>
      </trkpt>
      <trkpt lat="44.90833" lon="1.82452">
        <ele>133</ele>
        <time>2022-08-06T13:02:38Z</time>
      </trkpt>
      <trkpt lat="44.90828" lon="1.8246">
        <ele>133</ele>
        <time>2022-08-06T13:02:40Z</time>
      </trkpt>
      <trkpt lat="44.90822" lon="1.82468">
        <ele>133.1</ele>
        <time>2022-08-06T13:02:42Z</time>
      </trkpt>
      <trkpt lat="44.90817" lon="1.82477">
        <ele>133.2</ele>
        <time>2022-08-06T13:02:44Z</time>
      </trkpt>
      <trkpt lat="44.90812" lon="1.82486">
        <ele>133.4</ele>
        <time>2022-08-06T13:02:46Z</time>
      </trkpt>
      <trkpt lat="44.90806" lon="1.82495">
        <ele>133.6</ele>
        <time>2022-08-06T13:02:48Z</time>
      </trkpt>
      <trkpt lat="44.90801" lon="1.82504">
        <ele>133.7</ele>
        <time>2022-08-06T13:02:50Z</time>
      </trkpt>
      <trkpt lat="44.90795" lon="1.82514">
        <ele>133.8</ele>
        <time>2022-08-06T13:02:52Z</time>
      </trkpt>
      <trkpt lat="44.9079" lon="1.82523">
        <ele>133.8</ele>
        <time>2022-08-06T13:02:54Z</time>
      </trkpt>
      <trkpt lat="44.90784" lon="1.82533">
        <ele>133.8</ele>
        <time>2022-08-06T13:02:56Z</time>
      </trkpt>
      <trkpt lat="44.90779" lon="1.82542">
        <ele>133.8</ele>
        <time>2022-08-06T13:02:58Z</time>
      </trkpt>
      <trkpt lat="44.90773" lon="1.82551">
        <ele>133.8</ele>
        <time>2022-08-06T13:03:00Z</time>
      </trkpt>
      <trkpt lat="44.90769" lon="1.8256">
        <ele>133.8</ele>
        <time>2022-08-06T13:03:02Z</time>
      </trkpt>
      <trkpt lat="44.90763" lon="1.82567">
        <ele>133.9</ele>
        <time>2022-08-06T13:03:04Z</time>
      </trkpt>
      <trkpt lat="44.90757" lon="1.82575">
        <ele>133.9</ele>
        <time>2022-08-06T13:03:06Z</time>
      </trkpt>
      <trkpt lat="44.90752" lon="1.82583">
        <ele>133.9</ele>
        <time>2022-08-06T13:03:08Z</time>
      </trkpt>
      <trkpt lat="44.90747" lon="1.82592">
        <ele>134.1</ele>
        <time>2022-08-06T13:03:10Z</time>
      </trkpt>
      <trkpt lat="44.90742" lon="1.82601">
        <ele>134.1</ele>
        <time>2022-08-06T13:03:12Z</time>
      </trkpt>
      <trkpt lat="44.90738" lon="1.8261">
        <ele>134.2</ele>
        <time>2022-08-06T13:03:14Z</time>
      </trkpt>
      <trkpt lat="44.90734" lon="1.82619">
        <ele>134.2</ele>
        <time>2022-08-06T13:03:16Z</time>
      </trkpt>
      <trkpt lat="44.90729" lon="1.82628">
        <ele>134.3</ele>
        <time>2022-08-06T13:03:18Z</time>
      </trkpt>
      <trkpt lat="44.90725" lon="1.82636">
        <ele>134.3</ele>
        <time>2022-08-06T13:03:20Z</time>
      </trkpt>
      <trkpt lat="44.90721" lon="1.82646">
        <ele>134.4</ele>
        <time>2022-08-06T13:03:22Z</time>
      </trkpt>
      <trkpt lat="44.90717" lon="1.82654">
        <ele>134.4</ele>
        <time>2022-08-06T13:03:24Z</time>
      </trkpt>
      <trkpt lat="44.90712" lon="1.82663">
        <ele>134.5</ele>
        <time>2022-08-06T13:03:26Z</time>
      </trkpt>
      <trkpt lat="44.90708" lon="1.82672">
        <ele>134.5</ele>
        <time>2022-08-06T13:03:28Z</time>
      </trkpt>
      <trkpt lat="44.90704" lon="1.82682">
        <ele>134.4</ele>
        <time>2022-08-06T13:03:30Z</time>
      </trkpt>
      <trkpt lat="44.90699" lon="1.82692">
        <ele>134.4</ele>
        <time>2022-08-06T13:03:32Z</time>
      </trkpt>
      <trkpt lat="44.90695" lon="1.82702">
        <ele>134.3</ele>
        <time>2022-08-06T13:03:34Z</time>
      </trkpt>
      <trkpt lat="44.90691" lon="1.82712">
        <ele>134.3</ele>
        <time>2022-08-06T13:03:36Z</time>
      </trkpt>
      <trkpt lat="44.90686" lon="1.82722">
        <ele>134.2</ele>
        <time>2022-08-06T13:03:38Z</time>
      </trkpt>
      <trkpt lat="44.90682" lon="1.82733">
        <ele>134.2</ele>
        <time>2022-08-06T13:03:40Z</time>
      </trkpt>
      <trkpt lat="44.90678" lon="1.82743">
        <ele>134.1</ele>
        <time>2022-08-06T13:03:42Z</time>
      </trkpt>
      <trkpt lat="44.90674" lon="1.82754">
        <ele>134.1</ele>
        <time>2022-08-06T13:03:44Z</time>
      </trkpt>
      <trkpt lat="44.90671" lon="1.82766">
        <ele>134</ele>
        <time>2022-08-06T13:03:46Z</time>
      </trkpt>
      <trkpt lat="44.90667" lon="1.82777">
        <ele>134</ele>
        <time>2022-08-06T13:03:48Z</time>
      </trkpt>
      <trkpt lat="44.90664" lon="1.82787">
        <ele>134</ele>
        <time>2022-08-06T13:03:50Z</time>
      </trkpt>
      <trkpt lat="44.90661" lon="1.82797">
        <ele>133.9</ele>
        <time>2022-08-06T13:03:52Z</time>
      </trkpt>
      <trkpt lat="44.90658" lon="1.82804">
        <ele>133.9</ele>
        <time>2022-08-06T13:03:54Z</time>
      </trkpt>
      <trkpt lat="44.90656" lon="1.82806">
        <ele>133.9</ele>
        <time>2022-08-06T13:03:56Z</time>
      </trkpt>
      <trkpt lat="44.90657" lon="1.82805">
        <ele>133.9</ele>
        <time>2022-08-06T13:03:58Z</time>
      </trkpt>
      <trkpt lat="44.90657" lon="1.82805">
        <ele>133.9</ele>
        <time>2022-08-06T13:04:00Z</time>
      </trkpt>
      <trkpt lat="44.90657" lon="1.82806">
        <ele>133.9</ele>
        <time>2022-08-06T13:04:02Z</time>
      </trkpt>
      <trkpt lat="44.90651" lon="1.82835">
        <ele>133.8</ele>
        <time>2022-08-06T13:05:32Z</time>
      </trkpt>
      <trkpt lat="44.9065" lon="1.82844">
        <ele>133.9</ele>
        <time>2022-08-06T13:05:34Z</time>
      </trkpt>
      <trkpt lat="44.90649" lon="1.82852">
        <ele>134</ele>
        <time>2022-08-06T13:05:36Z</time>
      </trkpt>
      <trkpt lat="44.90647" lon="1.82861">
        <ele>134</ele>
        <time>2022-08-06T13:05:38Z</time>
      </trkpt>
      <trkpt lat="44.90646" lon="1.82869">
        <ele>134.1</ele>
        <time>2022-08-06T13:05:40Z</time>
      </trkpt>
      <trkpt lat="44.90644" lon="1.82878">
        <ele>134.1</ele>
        <time>2022-08-06T13:05:42Z</time>
      </trkpt>
      <trkpt lat="44.90643" lon="1.82889">
        <ele>134.2</ele>
        <time>2022-08-06T13:05:44Z</time>
      </trkpt>
      <trkpt lat="44.90641" lon="1.82898">
        <ele>134.2</ele>
        <time>2022-08-06T13:05:46Z</time>
      </trkpt>
      <trkpt lat="44.90639" lon="1.82907">
        <ele>134.3</ele>
        <time>2022-08-06T13:05:48Z</time>
      </trkpt>
      <trkpt lat="44.90637" lon="1.82917">
        <ele>134.3</ele>
        <time>2022-08-06T13:05:50Z</time>
      </trkpt>
      <trkpt lat="44.90636" lon="1.82926">
        <ele>134.3</ele>
        <time>2022-08-06T13:05:52Z</time>
      </trkpt>
      <trkpt lat="44.90634" lon="1.82936">
        <ele>134.3</ele>
        <time>2022-08-06T13:05:54Z</time>
      </trkpt>
      <trkpt lat="44.90633" lon="1.82944">
        <ele>134.3</ele>
        <time>2022-08-06T13:05:56Z</time>
      </trkpt>
      <trkpt lat="44.90631" lon="1.82952">
        <ele>134.3</ele>
        <time>2022-08-06T13:05:58Z</time>
      </trkpt>
      <trkpt lat="44.90631" lon="1.82959">
        <ele>134.4</ele>
        <time>2022-08-06T13:06:00Z</time>
      </trkpt>
      <trkpt lat="44.9063" lon="1.82962">
        <ele>134.4</ele>
        <time>2022-08-06T13:06:02Z</time>
      </trkpt>
      <trkpt lat="44.9063" lon="1.82961">
        <ele>134.4</ele>
        <time>2022-08-06T13:06:04Z</time>
      </trkpt>
      <trkpt lat="44.9063" lon="1.82962">
        <ele>134.4</ele>
        <time>2022-08-06T13:06:06Z</time>
      </trkpt>
      <trkpt lat="44.9063" lon="1.82962">
        <ele>134.4</ele>
        <time>2022-08-06T13:06:08Z</time>
      </trkpt>
      <trkpt lat="44.9063" lon="1.82962">
        <ele>134.4</ele>
        <time>2022-08-06T13:06:10Z</time>
      </trkpt>
      <trkpt lat="44.9063" lon="1.82962">
        <ele>134.4</ele>
        <time>2022-08-06T13:06:12Z</time>
      </trkpt>
      <trkpt lat="44.9063" lon="1.82984">
        <ele>134.5</ele>
        <time>2022-08-06T13:06:26Z</time>
      </trkpt>
      <trkpt lat="44.90628" lon="1.82992">
        <ele>134.5</ele>
        <time>2022-08-06T13:06:28Z</time>
      </trkpt>
      <trkpt lat="44.90625" lon="1.83">
        <ele>134.5</ele>
        <time>2022-08-06T13:06:30Z</time>
      </trkpt>
      <trkpt lat="44.9062" lon="1.83006">
        <ele>134.4</ele>
        <time>2022-08-06T13:06:32Z</time>
      </trkpt>
      <trkpt lat="44.90615" lon="1.83012">
        <ele>134.4</ele>
        <time>2022-08-06T13:06:34Z</time>
      </trkpt>
      <trkpt lat="44.90609" lon="1.83016">
        <ele>134.3</ele>
        <time>2022-08-06T13:06:36Z</time>
      </trkpt>
      <trkpt lat="44.90604" lon="1.8302">
        <ele>134.2</ele>
        <time>2022-08-06T13:06:38Z</time>
      </trkpt>
      <trkpt lat="44.90597" lon="1.83025">
        <ele>134.2</ele>
        <time>2022-08-06T13:06:40Z</time>
      </trkpt>
      <trkpt lat="44.90592" lon="1.8303">
        <ele>134.1</ele>
        <time>2022-08-06T13:06:42Z</time>
      </trkpt>
      <trkpt lat="44.90586" lon="1.83033">
        <ele>134</ele>
        <time>2022-08-06T13:06:44Z</time>
      </trkpt>
      <trkpt lat="44.9058" lon="1.83038">
        <ele>134</ele>
        <time>2022-08-06T13:06:46Z</time>
      </trkpt>
      <trkpt lat="44.90575" lon="1.83042">
        <ele>134.1</ele>
        <time>2022-08-06T13:06:48Z</time>
      </trkpt>
      <trkpt lat="44.90569" lon="1.83046">
        <ele>134.2</ele>
        <time>2022-08-06T13:06:50Z</time>
      </trkpt>
      <trkpt lat="44.90563" lon="1.8305">
        <ele>134.2</ele>
        <time>2022-08-06T13:06:52Z</time>
      </trkpt>
      <trkpt lat="44.90558" lon="1.83055">
        <ele>134.3</ele>
        <time>2022-08-06T13:06:54Z</time>
      </trkpt>
      <trkpt lat="44.90552" lon="1.8306">
        <ele>134.4</ele>
        <time>2022-08-06T13:06:56Z</time>
      </trkpt>
      <trkpt lat="44.90546" lon="1.83065">
        <ele>134.4</ele>
        <time>2022-08-06T13:06:58Z</time>
      </trkpt>
      <trkpt lat="44.9054" lon="1.83067">
        <ele>134.5</ele>
        <time>2022-08-06T13:07:00Z</time>
      </trkpt>
      <trkpt lat="44.90534" lon="1.83072">
        <ele>134.6</ele>
        <time>2022-08-06T13:07:02Z</time>
      </trkpt>
      <trkpt lat="44.90528" lon="1.83077">
        <ele>134.7</ele>
        <time>2022-08-06T13:07:04Z</time>
      </trkpt>
      <trkpt lat="44.90523" lon="1.83077">
        <ele>134.7</ele>
        <time>2022-08-06T13:07:06Z</time>
      </trkpt>
      <trkpt lat="44.90517" lon="1.83077">
        <ele>134.8</ele>
        <time>2022-08-06T13:07:08Z</time>
      </trkpt>
      <trkpt lat="44.90513" lon="1.83077">
        <ele>134.8</ele>
        <time>2022-08-06T13:07:10Z</time>
      </trkpt>
      <trkpt lat="44.90509" lon="1.83076">
        <ele>134.9</ele>
        <time>2022-08-06T13:07:12Z</time>
      </trkpt>
      <trkpt lat="44.90505" lon="1.83076">
        <ele>134.9</ele>
        <time>2022-08-06T13:07:14Z</time>
      </trkpt>
      <trkpt lat="44.90501" lon="1.83075">
        <ele>135</ele>
        <time>2022-08-06T13:07:16Z</time>
      </trkpt>
      <trkpt lat="44.90498" lon="1.83075">
        <ele>135</ele>
        <time>2022-08-06T13:07:18Z</time>
      </trkpt>
      <trkpt lat="44.90493" lon="1.83075">
        <ele>135</ele>
        <time>2022-08-06T13:07:20Z</time>
      </trkpt>
      <trkpt lat="44.90487" lon="1.83076">
        <ele>135</ele>
        <time>2022-08-06T13:07:22Z</time>
      </trkpt>
      <trkpt lat="44.90482" lon="1.83078">
        <ele>135</ele>
        <time>2022-08-06T13:07:24Z</time>
      </trkpt>
      <trkpt lat="44.90476" lon="1.83081">
        <ele>135</ele>
        <time>2022-08-06T13:07:26Z</time>
      </trkpt>
      <trkpt lat="44.9047" lon="1.83083">
        <ele>135</ele>
        <time>2022-08-06T13:07:28Z</time>
      </trkpt>
      <trkpt lat="44.90465" lon="1.83085">
        <ele>135</ele>
        <time>2022-08-06T13:07:30Z</time>
      </trkpt>
      <trkpt lat="44.9046" lon="1.83089">
        <ele>135</ele>
        <time>2022-08-06T13:07:32Z</time>
      </trkpt>
      <trkpt lat="44.90454" lon="1.83088">
        <ele>135</ele>
        <time>2022-08-06T13:07:34Z</time>
      </trkpt>
      <trkpt lat="44.90448" lon="1.83086">
        <ele>135</ele>
        <time>2022-08-06T13:07:36Z</time>
      </trkpt>
      <trkpt lat="44.90442" lon="1.83084">
        <ele>135</ele>
        <time>2022-08-06T13:07:38Z</time>
      </trkpt>
      <trkpt lat="44.90436" lon="1.83081">
        <ele>135</ele>
        <time>2022-08-06T13:07:40Z</time>
      </trkpt>
      <trkpt lat="44.9043" lon="1.83079">
        <ele>135</ele>
        <time>2022-08-06T13:07:42Z</time>
      </trkpt>
      <trkpt lat="44.90424" lon="1.8308">
        <ele>135</ele>
        <time>2022-08-06T13:07:44Z</time>
      </trkpt>
      <trkpt lat="44.90418" lon="1.8308">
        <ele>135</ele>
        <time>2022-08-06T13:07:46Z</time>
      </trkpt>
      <trkpt lat="44.90415" lon="1.83083">
        <ele>135</ele>
        <time>2022-08-06T13:07:48Z</time>
      </trkpt>
      <trkpt lat="44.90412" lon="1.83085">
        <ele>134.9</ele>
        <time>2022-08-06T13:07:50Z</time>
      </trkpt>
      <trkpt lat="44.90411" lon="1.83088">
        <ele>134.9</ele>
        <time>2022-08-06T13:07:52Z</time>
      </trkpt>
      <trkpt lat="44.90413" lon="1.83089">
        <ele>135</ele>
        <time>2022-08-06T13:07:54Z</time>
      </trkpt>
      <trkpt lat="44.90417" lon="1.83087">
        <ele>135</ele>
        <time>2022-08-06T13:07:56Z</time>
      </trkpt>
      <trkpt lat="44.90421" lon="1.83084">
        <ele>135</ele>
        <time>2022-08-06T13:07:58Z</time>
      </trkpt>
      <trkpt lat="44.90425" lon="1.83081">
        <ele>135</ele>
        <time>2022-08-06T13:08:00Z</time>
      </trkpt>
      <trkpt lat="44.90429" lon="1.8308">
        <ele>135</ele>
        <time>2022-08-06T13:08:02Z</time>
      </trkpt>
      <trkpt lat="44.90433" lon="1.83076">
        <ele>134.9</ele>
        <time>2022-08-06T13:08:04Z</time>
      </trkpt>
      <trkpt lat="44.90436" lon="1.83072">
        <ele>134.9</ele>
        <time>2022-08-06T13:08:06Z</time>
      </trkpt>
      <trkpt lat="44.90438" lon="1.83068">
        <ele>134.9</ele>
        <time>2022-08-06T13:08:08Z</time>
      </trkpt>
      <trkpt lat="44.9044" lon="1.83063">
        <ele>134.8</ele>
        <time>2022-08-06T13:08:10Z</time>
      </trkpt>
      <trkpt lat="44.90442" lon="1.83062">
        <ele>134.8</ele>
        <time>2022-08-06T13:08:12Z</time>
      </trkpt>
      <trkpt lat="44.90442" lon="1.83062">
        <ele>134.8</ele>
        <time>2022-08-06T13:08:14Z</time>
      </trkpt>
      <trkpt lat="44.90441" lon="1.83062">
        <ele>134.8</ele>
        <time>2022-08-06T13:08:16Z</time>
      </trkpt>
      <trkpt lat="44.90441" lon="1.83062">
        <ele>134.8</ele>
        <time>2022-08-06T13:08:18Z</time>
      </trkpt>
      <trkpt lat="44.90399" lon="1.83109">
        <ele>134.9</ele>
        <time>2022-08-06T13:12:46Z</time>
      </trkpt>
      <trkpt lat="44.90395" lon="1.83116">
        <ele>134.9</ele>
        <time>2022-08-06T13:12:48Z</time>
      </trkpt>
      <trkpt lat="44.90393" lon="1.83123">
        <ele>135</ele>
        <time>2022-08-06T13:12:50Z</time>
      </trkpt>
      <trkpt lat="44.9039" lon="1.83129">
        <ele>135</ele>
        <time>2022-08-06T13:12:52Z</time>
      </trkpt>
      <trkpt lat="44.90386" lon="1.83136">
        <ele>135.1</ele>
        <time>2022-08-06T13:12:54Z</time>
      </trkpt>
      <trkpt lat="44.90383" lon="1.83143">
        <ele>135.2</ele>
        <time>2022-08-06T13:12:56Z</time>
      </trkpt>
      <trkpt lat="44.9038" lon="1.83149">
        <ele>135.3</ele>
        <time>2022-08-06T13:12:58Z</time>
      </trkpt>
      <trkpt lat="44.90377" lon="1.83155">
        <ele>135.3</ele>
        <time>2022-08-06T13:13:00Z</time>
      </trkpt>
      <trkpt lat="44.90374" lon="1.83162">
        <ele>135.5</ele>
        <time>2022-08-06T13:13:02Z</time>
      </trkpt>
      <trkpt lat="44.90371" lon="1.83167">
        <ele>135.6</ele>
        <time>2022-08-06T13:13:04Z</time>
      </trkpt>
      <trkpt lat="44.90367" lon="1.83172">
        <ele>135.7</ele>
        <time>2022-08-06T13:13:06Z</time>
      </trkpt>
      <trkpt lat="44.90363" lon="1.83177">
        <ele>136</ele>
        <time>2022-08-06T13:13:08Z</time>
      </trkpt>
      <trkpt lat="44.90359" lon="1.83181">
        <ele>136.2</ele>
        <time>2022-08-06T13:13:10Z</time>
      </trkpt>
      <trkpt lat="44.90356" lon="1.83186">
        <ele>136.4</ele>
        <time>2022-08-06T13:13:12Z</time>
      </trkpt>
      <trkpt lat="44.90353" lon="1.8319">
        <ele>136.6</ele>
        <time>2022-08-06T13:13:14Z</time>
      </trkpt>
      <trkpt lat="44.9035" lon="1.83194">
        <ele>136.9</ele>
        <time>2022-08-06T13:13:16Z</time>
      </trkpt>
      <trkpt lat="44.90346" lon="1.83198">
        <ele>137.1</ele>
        <time>2022-08-06T13:13:18Z</time>
      </trkpt>
      <trkpt lat="44.90343" lon="1.83202">
        <ele>137.4</ele>
        <time>2022-08-06T13:13:20Z</time>
      </trkpt>
      <trkpt lat="44.90339" lon="1.83207">
        <ele>137.7</ele>
        <time>2022-08-06T13:13:22Z</time>
      </trkpt>
      <trkpt lat="44.90336" lon="1.83211">
        <ele>138</ele>
        <time>2022-08-06T13:13:24Z</time>
      </trkpt>
      <trkpt lat="44.90333" lon="1.83216">
        <ele>138.4</ele>
        <time>2022-08-06T13:13:26Z</time>
      </trkpt>
      <trkpt lat="44.9033" lon="1.8322">
        <ele>138.8</ele>
        <time>2022-08-06T13:13:28Z</time>
      </trkpt>
      <trkpt lat="44.90327" lon="1.83223">
        <ele>139.2</ele>
        <time>2022-08-06T13:13:30Z</time>
      </trkpt>
      <trkpt lat="44.90324" lon="1.83227">
        <ele>139.6</ele>
        <time>2022-08-06T13:13:32Z</time>
      </trkpt>
      <trkpt lat="44.90321" lon="1.83232">
        <ele>140</ele>
        <time>2022-08-06T13:13:34Z</time>
      </trkpt>
      <trkpt lat="44.90319" lon="1.83235">
        <ele>140.4</ele>
        <time>2022-08-06T13:13:36Z</time>
      </trkpt>
      <trkpt lat="44.90316" lon="1.8324">
        <ele>140.7</ele>
        <time>2022-08-06T13:13:38Z</time>
      </trkpt>
      <trkpt lat="44.90313" lon="1.83243">
        <ele>141.1</ele>
        <time>2022-08-06T13:13:40Z</time>
      </trkpt>
      <trkpt lat="44.90311" lon="1.83248">
        <ele>141.5</ele>
        <time>2022-08-06T13:13:42Z</time>
      </trkpt>
      <trkpt lat="44.90308" lon="1.83252">
        <ele>142.1</ele>
        <time>2022-08-06T13:13:44Z</time>
      </trkpt>
      <trkpt lat="44.90306" lon="1.83256">
        <ele>142.8</ele>
        <time>2022-08-06T13:13:46Z</time>
      </trkpt>
      <trkpt lat="44.90303" lon="1.83259">
        <ele>143.5</ele>
        <time>2022-08-06T13:13:48Z</time>
      </trkpt>
      <trkpt lat="44.90301" lon="1.83262">
        <ele>144.1</ele>
        <time>2022-08-06T13:13:50Z</time>
      </trkpt>
      <trkpt lat="44.90298" lon="1.83265">
        <ele>144.8</ele>
        <time>2022-08-06T13:13:52Z</time>
      </trkpt>
      <trkpt lat="44.90295" lon="1.83268">
        <ele>145.5</ele>
        <time>2022-08-06T13:13:54Z</time>
      </trkpt>
      <trkpt lat="44.90292" lon="1.8327">
        <ele>146.1</ele>
        <time>2022-08-06T13:13:56Z</time>
      </trkpt>
      <trkpt lat="44.90289" lon="1.83272">
        <ele>146.7</ele>
        <time>2022-08-06T13:13:58Z</time>
      </trkpt>
      <trkpt lat="44.90287" lon="1.83274">
        <ele>147.2</ele>
        <time>2022-08-06T13:14:00Z</time>
      </trkpt>
      <trkpt lat="44.90284" lon="1.83275">
        <ele>147.6</ele>
        <time>2022-08-06T13:14:02Z</time>
      </trkpt>
      <trkpt lat="44.90281" lon="1.83276">
        <ele>148</ele>
        <time>2022-08-06T13:14:04Z</time>
      </trkpt>
      <trkpt lat="44.90279" lon="1.83276">
        <ele>148.4</ele>
        <time>2022-08-06T13:14:06Z</time>
      </trkpt>
      <trkpt lat="44.90276" lon="1.83277">
        <ele>148.8</ele>
        <time>2022-08-06T13:14:08Z</time>
      </trkpt>
      <trkpt lat="44.90273" lon="1.83278">
        <ele>149.2</ele>
        <time>2022-08-06T13:14:10Z</time>
      </trkpt>
      <trkpt lat="44.9027" lon="1.83279">
        <ele>149.7</ele>
        <time>2022-08-06T13:14:12Z</time>
      </trkpt>
      <trkpt lat="44.90267" lon="1.8328">
        <ele>150</ele>
        <time>2022-08-06T13:14:14Z</time>
      </trkpt>
      <trkpt lat="44.90264" lon="1.83281">
        <ele>150.5</ele>
        <time>2022-08-06T13:14:16Z</time>
      </trkpt>
      <trkpt lat="44.90261" lon="1.83282">
        <ele>150.9</ele>
        <time>2022-08-06T13:14:18Z</time>
      </trkpt>
      <trkpt lat="44.90259" lon="1.83282">
        <ele>151.3</ele>
        <time>2022-08-06T13:14:20Z</time>
      </trkpt>
      <trkpt lat="44.90256" lon="1.83283">
        <ele>151.6</ele>
        <time>2022-08-06T13:14:22Z</time>
      </trkpt>
      <trkpt lat="44.90254" lon="1.83284">
        <ele>152.1</ele>
        <time>2022-08-06T13:14:24Z</time>
      </trkpt>
      <trkpt lat="44.90251" lon="1.83285">
        <ele>152.5</ele>
        <time>2022-08-06T13:14:26Z</time>
      </trkpt>
      <trkpt lat="44.90248" lon="1.83286">
        <ele>153.3</ele>
        <time>2022-08-06T13:14:28Z</time>
      </trkpt>
      <trkpt lat="44.90246" lon="1.83287">
        <ele>154.3</ele>
        <time>2022-08-06T13:14:30Z</time>
      </trkpt>
      <trkpt lat="44.90243" lon="1.83288">
        <ele>155.1</ele>
        <time>2022-08-06T13:14:32Z</time>
      </trkpt>
      <trkpt lat="44.90241" lon="1.83288">
        <ele>155.9</ele>
        <time>2022-08-06T13:14:34Z</time>
      </trkpt>
      <trkpt lat="44.90238" lon="1.83289">
        <ele>156.6</ele>
        <time>2022-08-06T13:14:36Z</time>
      </trkpt>
      <trkpt lat="44.90236" lon="1.83289">
        <ele>157.4</ele>
        <time>2022-08-06T13:14:38Z</time>
      </trkpt>
      <trkpt lat="44.90234" lon="1.83289">
        <ele>158</ele>
        <time>2022-08-06T13:14:40Z</time>
      </trkpt>
      <trkpt lat="44.90231" lon="1.83291">
        <ele>158.9</ele>
        <time>2022-08-06T13:14:42Z</time>
      </trkpt>
      <trkpt lat="44.90229" lon="1.83292">
        <ele>159.7</ele>
        <time>2022-08-06T13:14:44Z</time>
      </trkpt>
      <trkpt lat="44.90226" lon="1.83293">
        <ele>160.6</ele>
        <time>2022-08-06T13:14:46Z</time>
      </trkpt>
      <trkpt lat="44.90224" lon="1.83294">
        <ele>161.4</ele>
        <time>2022-08-06T13:14:48Z</time>
      </trkpt>
      <trkpt lat="44.90222" lon="1.83295">
        <ele>162.1</ele>
        <time>2022-08-06T13:14:50Z</time>
      </trkpt>
      <trkpt lat="44.90219" lon="1.83296">
        <ele>162.8</ele>
        <time>2022-08-06T13:14:52Z</time>
      </trkpt>
      <trkpt lat="44.90217" lon="1.83296">
        <ele>163.4</ele>
        <time>2022-08-06T13:14:54Z</time>
      </trkpt>
      <trkpt lat="44.90214" lon="1.83297">
        <ele>164.2</ele>
        <time>2022-08-06T13:14:56Z</time>
      </trkpt>
      <trkpt lat="44.90212" lon="1.83297">
        <ele>164.9</ele>
        <time>2022-08-06T13:14:58Z</time>
      </trkpt>
      <trkpt lat="44.90209" lon="1.83297">
        <ele>165.6</ele>
        <time>2022-08-06T13:15:00Z</time>
      </trkpt>
      <trkpt lat="44.90206" lon="1.83297">
        <ele>166.3</ele>
        <time>2022-08-06T13:15:02Z</time>
      </trkpt>
      <trkpt lat="44.90204" lon="1.83296">
        <ele>166.9</ele>
        <time>2022-08-06T13:15:04Z</time>
      </trkpt>
      <trkpt lat="44.90202" lon="1.83295">
        <ele>167.3</ele>
        <time>2022-08-06T13:15:06Z</time>
      </trkpt>
      <trkpt lat="44.90199" lon="1.83293">
        <ele>167.8</ele>
        <time>2022-08-06T13:15:08Z</time>
      </trkpt>
      <trkpt lat="44.90197" lon="1.83291">
        <ele>168.3</ele>
        <time>2022-08-06T13:15:10Z</time>
      </trkpt>
      <trkpt lat="44.90195" lon="1.83289">
        <ele>168.7</ele>
        <time>2022-08-06T13:15:12Z</time>
      </trkpt>
      <trkpt lat="44.90193" lon="1.83286">
        <ele>169.1</ele>
        <time>2022-08-06T13:15:14Z</time>
      </trkpt>
      <trkpt lat="44.90191" lon="1.83283">
        <ele>169.4</ele>
        <time>2022-08-06T13:15:16Z</time>
      </trkpt>
      <trkpt lat="44.9019" lon="1.83279">
        <ele>169.5</ele>
        <time>2022-08-06T13:15:18Z</time>
      </trkpt>
      <trkpt lat="44.90189" lon="1.83276">
        <ele>169.6</ele>
        <time>2022-08-06T13:15:20Z</time>
      </trkpt>
      <trkpt lat="44.90188" lon="1.83272">
        <ele>169.6</ele>
        <time>2022-08-06T13:15:22Z</time>
      </trkpt>
      <trkpt lat="44.90187" lon="1.83268">
        <ele>169.5</ele>
        <time>2022-08-06T13:15:24Z</time>
      </trkpt>
      <trkpt lat="44.90187" lon="1.83265">
        <ele>169.4</ele>
        <time>2022-08-06T13:15:26Z</time>
      </trkpt>
      <trkpt lat="44.90187" lon="1.83261">
        <ele>169.2</ele>
        <time>2022-08-06T13:15:28Z</time>
      </trkpt>
      <trkpt lat="44.90187" lon="1.83258">
        <ele>169</ele>
        <time>2022-08-06T13:15:30Z</time>
      </trkpt>
      <trkpt lat="44.90187" lon="1.83254">
        <ele>168.9</ele>
        <time>2022-08-06T13:15:32Z</time>
      </trkpt>
      <trkpt lat="44.90187" lon="1.8325">
        <ele>168.7</ele>
        <time>2022-08-06T13:15:34Z</time>
      </trkpt>
      <trkpt lat="44.90187" lon="1.83246">
        <ele>168.8</ele>
        <time>2022-08-06T13:15:36Z</time>
      </trkpt>
      <trkpt lat="44.90187" lon="1.83242">
        <ele>168.7</ele>
        <time>2022-08-06T13:15:38Z</time>
      </trkpt>
      <trkpt lat="44.90186" lon="1.83239">
        <ele>168.8</ele>
        <time>2022-08-06T13:15:40Z</time>
      </trkpt>
      <trkpt lat="44.90186" lon="1.83236">
        <ele>169</ele>
        <time>2022-08-06T13:15:42Z</time>
      </trkpt>
      <trkpt lat="44.90185" lon="1.83232">
        <ele>169.2</ele>
        <time>2022-08-06T13:15:44Z</time>
      </trkpt>
      <trkpt lat="44.90186" lon="1.83228">
        <ele>169</ele>
        <time>2022-08-06T13:15:46Z</time>
      </trkpt>
      <trkpt lat="44.90185" lon="1.83225">
        <ele>169.1</ele>
        <time>2022-08-06T13:15:48Z</time>
      </trkpt>
      <trkpt lat="44.90184" lon="1.83221">
        <ele>169.5</ele>
        <time>2022-08-06T13:15:50Z</time>
      </trkpt>
      <trkpt lat="44.90183" lon="1.83218">
        <ele>169.8</ele>
        <time>2022-08-06T13:15:52Z</time>
      </trkpt>
      <trkpt lat="44.90183" lon="1.83215">
        <ele>170</ele>
        <time>2022-08-06T13:15:54Z</time>
      </trkpt>
      <trkpt lat="44.90182" lon="1.83211">
        <ele>170.3</ele>
        <time>2022-08-06T13:15:56Z</time>
      </trkpt>
      <trkpt lat="44.90181" lon="1.83208">
        <ele>170.5</ele>
        <time>2022-08-06T13:15:58Z</time>
      </trkpt>
      <trkpt lat="44.9018" lon="1.83205">
        <ele>170.9</ele>
        <time>2022-08-06T13:16:00Z</time>
      </trkpt>
      <trkpt lat="44.90178" lon="1.83201">
        <ele>171.5</ele>
        <time>2022-08-06T13:16:02Z</time>
      </trkpt>
      <trkpt lat="44.90178" lon="1.83198">
        <ele>171.7</ele>
        <time>2022-08-06T13:16:04Z</time>
      </trkpt>
      <trkpt lat="44.90177" lon="1.83195">
        <ele>171.8</ele>
        <time>2022-08-06T13:16:06Z</time>
      </trkpt>
      <trkpt lat="44.90176" lon="1.83192">
        <ele>172.3</ele>
        <time>2022-08-06T13:16:08Z</time>
      </trkpt>
      <trkpt lat="44.90175" lon="1.8319">
        <ele>172.5</ele>
        <time>2022-08-06T13:16:10Z</time>
      </trkpt>
      <trkpt lat="44.90175" lon="1.83186">
        <ele>172.9</ele>
        <time>2022-08-06T13:16:12Z</time>
      </trkpt>
      <trkpt lat="44.90174" lon="1.83183">
        <ele>173.2</ele>
        <time>2022-08-06T13:16:14Z</time>
      </trkpt>
      <trkpt lat="44.90173" lon="1.83179">
        <ele>173.6</ele>
        <time>2022-08-06T13:16:16Z</time>
      </trkpt>
      <trkpt lat="44.90172" lon="1.83175">
        <ele>174</ele>
        <time>2022-08-06T13:16:18Z</time>
      </trkpt>
      <trkpt lat="44.90171" lon="1.83172">
        <ele>174.3</ele>
        <time>2022-08-06T13:16:20Z</time>
      </trkpt>
      <trkpt lat="44.9017" lon="1.83169">
        <ele>174.7</ele>
        <time>2022-08-06T13:16:22Z</time>
      </trkpt>
      <trkpt lat="44.90169" lon="1.83166">
        <ele>174.9</ele>
        <time>2022-08-06T13:16:24Z</time>
      </trkpt>
      <trkpt lat="44.90168" lon="1.83163">
        <ele>175.2</ele>
        <time>2022-08-06T13:16:26Z</time>
      </trkpt>
      <trkpt lat="44.90168" lon="1.8316">
        <ele>175.3</ele>
        <time>2022-08-06T13:16:28Z</time>
      </trkpt>
      <trkpt lat="44.90167" lon="1.83157">
        <ele>175.4</ele>
        <time>2022-08-06T13:16:30Z</time>
      </trkpt>
      <trkpt lat="44.90166" lon="1.83153">
        <ele>175.7</ele>
        <time>2022-08-06T13:16:32Z</time>
      </trkpt>
      <trkpt lat="44.90165" lon="1.8315">
        <ele>176.6</ele>
        <time>2022-08-06T13:16:34Z</time>
      </trkpt>
      <trkpt lat="44.90164" lon="1.83147">
        <ele>176.9</ele>
        <time>2022-08-06T13:16:36Z</time>
      </trkpt>
      <trkpt lat="44.90163" lon="1.83144">
        <ele>177.5</ele>
        <time>2022-08-06T13:16:38Z</time>
      </trkpt>
      <trkpt lat="44.90162" lon="1.83141">
        <ele>177.8</ele>
        <time>2022-08-06T13:16:40Z</time>
      </trkpt>
      <trkpt lat="44.90161" lon="1.83137">
        <ele>178.5</ele>
        <time>2022-08-06T13:16:42Z</time>
      </trkpt>
      <trkpt lat="44.9016" lon="1.83134">
        <ele>178.9</ele>
        <time>2022-08-06T13:16:44Z</time>
      </trkpt>
      <trkpt lat="44.90159" lon="1.8313">
        <ele>179.3</ele>
        <time>2022-08-06T13:16:46Z</time>
      </trkpt>
      <trkpt lat="44.90158" lon="1.83127">
        <ele>179.9</ele>
        <time>2022-08-06T13:16:48Z</time>
      </trkpt>
      <trkpt lat="44.90157" lon="1.83124">
        <ele>180.7</ele>
        <time>2022-08-06T13:16:50Z</time>
      </trkpt>
      <trkpt lat="44.90155" lon="1.83121">
        <ele>181.3</ele>
        <time>2022-08-06T13:16:52Z</time>
      </trkpt>
      <trkpt lat="44.90154" lon="1.83117">
        <ele>182.1</ele>
        <time>2022-08-06T13:16:54Z</time>
      </trkpt>
      <trkpt lat="44.90153" lon="1.83116">
        <ele>182.4</ele>
        <time>2022-08-06T13:16:56Z</time>
      </trkpt>
      <trkpt lat="44.90153" lon="1.83112">
        <ele>182.8</ele>
        <time>2022-08-06T13:16:58Z</time>
      </trkpt>
      <trkpt lat="44.90152" lon="1.83109">
        <ele>183.2</ele>
        <time>2022-08-06T13:17:00Z</time>
      </trkpt>
      <trkpt lat="44.9015" lon="1.83105">
        <ele>184.1</ele>
        <time>2022-08-06T13:17:02Z</time>
      </trkpt>
      <trkpt lat="44.90149" lon="1.83102">
        <ele>184.5</ele>
        <time>2022-08-06T13:17:04Z</time>
      </trkpt>
      <trkpt lat="44.90148" lon="1.83099">
        <ele>185.1</ele>
        <time>2022-08-06T13:17:06Z</time>
      </trkpt>
      <trkpt lat="44.90147" lon="1.83095">
        <ele>185.4</ele>
        <time>2022-08-06T13:17:08Z</time>
      </trkpt>
      <trkpt lat="44.90146" lon="1.83092">
        <ele>186.4</ele>
        <time>2022-08-06T13:17:10Z</time>
      </trkpt>
      <trkpt lat="44.90145" lon="1.83089">
        <ele>186.8</ele>
        <time>2022-08-06T13:17:12Z</time>
      </trkpt>
      <trkpt lat="44.90144" lon="1.83086">
        <ele>187</ele>
        <time>2022-08-06T13:17:14Z</time>
      </trkpt>
      <trkpt lat="44.90144" lon="1.83083">
        <ele>187.2</ele>
        <time>2022-08-06T13:17:16Z</time>
      </trkpt>
      <trkpt lat="44.90143" lon="1.83079">
        <ele>187</ele>
        <time>2022-08-06T13:17:18Z</time>
      </trkpt>
      <trkpt lat="44.90142" lon="1.83075">
        <ele>187.5</ele>
        <time>2022-08-06T13:17:20Z</time>
      </trkpt>
      <trkpt lat="44.9014" lon="1.83073">
        <ele>188.1</ele>
        <time>2022-08-06T13:17:22Z</time>
      </trkpt>
      <trkpt lat="44.9014" lon="1.83069">
        <ele>188.1</ele>
        <time>2022-08-06T13:17:24Z</time>
      </trkpt>
      <trkpt lat="44.90139" lon="1.83066">
        <ele>188.5</ele>
        <time>2022-08-06T13:17:26Z</time>
      </trkpt>
      <trkpt lat="44.90137" lon="1.83063">
        <ele>189.2</ele>
        <time>2022-08-06T13:17:28Z</time>
      </trkpt>
      <trkpt lat="44.90136" lon="1.83059">
        <ele>189.4</ele>
        <time>2022-08-06T13:17:30Z</time>
      </trkpt>
      <trkpt lat="44.90135" lon="1.83055">
        <ele>189.8</ele>
        <time>2022-08-06T13:17:32Z</time>
      </trkpt>
      <trkpt lat="44.90133" lon="1.83053">
        <ele>190.5</ele>
        <time>2022-08-06T13:17:34Z</time>
      </trkpt>
      <trkpt lat="44.90132" lon="1.83049">
        <ele>190.9</ele>
        <time>2022-08-06T13:17:36Z</time>
      </trkpt>
      <trkpt lat="44.90131" lon="1.83046">
        <ele>191.2</ele>
        <time>2022-08-06T13:17:38Z</time>
      </trkpt>
      <trkpt lat="44.9013" lon="1.83044">
        <ele>191.6</ele>
        <time>2022-08-06T13:17:40Z</time>
      </trkpt>
      <trkpt lat="44.90128" lon="1.83041">
        <ele>192.7</ele>
        <time>2022-08-06T13:17:42Z</time>
      </trkpt>
      <trkpt lat="44.90127" lon="1.83038">
        <ele>192.9</ele>
        <time>2022-08-06T13:17:44Z</time>
      </trkpt>
      <trkpt lat="44.90125" lon="1.83034">
        <ele>193.4</ele>
        <time>2022-08-06T13:17:46Z</time>
      </trkpt>
      <trkpt lat="44.90124" lon="1.83032">
        <ele>194</ele>
        <time>2022-08-06T13:17:48Z</time>
      </trkpt>
      <trkpt lat="44.90123" lon="1.83029">
        <ele>194.3</ele>
        <time>2022-08-06T13:17:50Z</time>
      </trkpt>
      <trkpt lat="44.90121" lon="1.83026">
        <ele>195.2</ele>
        <time>2022-08-06T13:17:52Z</time>
      </trkpt>
      <trkpt lat="44.9012" lon="1.83024">
        <ele>195.5</ele>
        <time>2022-08-06T13:17:54Z</time>
      </trkpt>
      <trkpt lat="44.90118" lon="1.8302">
        <ele>195.9</ele>
        <time>2022-08-06T13:17:56Z</time>
      </trkpt>
      <trkpt lat="44.90117" lon="1.83018">
        <ele>196.4</ele>
        <time>2022-08-06T13:17:58Z</time>
      </trkpt>
      <trkpt lat="44.90116" lon="1.83016">
        <ele>196.7</ele>
        <time>2022-08-06T13:18:00Z</time>
      </trkpt>
      <trkpt lat="44.90115" lon="1.83012">
        <ele>197.1</ele>
        <time>2022-08-06T13:18:02Z</time>
      </trkpt>
      <trkpt lat="44.90113" lon="1.83009">
        <ele>197.5</ele>
        <time>2022-08-06T13:18:04Z</time>
      </trkpt>
      <trkpt lat="44.90112" lon="1.83007">
        <ele>198</ele>
        <time>2022-08-06T13:18:06Z</time>
      </trkpt>
      <trkpt lat="44.9011" lon="1.83003">
        <ele>198.6</ele>
        <time>2022-08-06T13:18:08Z</time>
      </trkpt>
      <trkpt lat="44.90109" lon="1.83001">
        <ele>199.2</ele>
        <time>2022-08-06T13:18:10Z</time>
      </trkpt>
      <trkpt lat="44.90107" lon="1.82997">
        <ele>199.5</ele>
        <time>2022-08-06T13:18:12Z</time>
      </trkpt>
      <trkpt lat="44.90106" lon="1.82993">
        <ele>199.6</ele>
        <time>2022-08-06T13:18:14Z</time>
      </trkpt>
      <trkpt lat="44.90105" lon="1.8299">
        <ele>199.7</ele>
        <time>2022-08-06T13:18:16Z</time>
      </trkpt>
      <trkpt lat="44.90104" lon="1.82987">
        <ele>199.9</ele>
        <time>2022-08-06T13:18:18Z</time>
      </trkpt>
      <trkpt lat="44.90103" lon="1.82983">
        <ele>200</ele>
        <time>2022-08-06T13:18:20Z</time>
      </trkpt>
      <trkpt lat="44.90101" lon="1.8298">
        <ele>200.2</ele>
        <time>2022-08-06T13:18:22Z</time>
      </trkpt>
      <trkpt lat="44.901" lon="1.82977">
        <ele>200.6</ele>
        <time>2022-08-06T13:18:24Z</time>
      </trkpt>
      <trkpt lat="44.90099" lon="1.82973">
        <ele>200.4</ele>
        <time>2022-08-06T13:18:26Z</time>
      </trkpt>
      <trkpt lat="44.90098" lon="1.82969">
        <ele>200.1</ele>
        <time>2022-08-06T13:18:28Z</time>
      </trkpt>
      <trkpt lat="44.90097" lon="1.82965">
        <ele>200.2</ele>
        <time>2022-08-06T13:18:30Z</time>
      </trkpt>
      <trkpt lat="44.90096" lon="1.82961">
        <ele>200.4</ele>
        <time>2022-08-06T13:18:32Z</time>
      </trkpt>
      <trkpt lat="44.90095" lon="1.82958">
        <ele>200.6</ele>
        <time>2022-08-06T13:18:34Z</time>
      </trkpt>
      <trkpt lat="44.90093" lon="1.82954">
        <ele>200.7</ele>
        <time>2022-08-06T13:18:36Z</time>
      </trkpt>
      <trkpt lat="44.90092" lon="1.82951">
        <ele>201</ele>
        <time>2022-08-06T13:18:38Z</time>
      </trkpt>
      <trkpt lat="44.90091" lon="1.82948">
        <ele>200.9</ele>
        <time>2022-08-06T13:18:40Z</time>
      </trkpt>
      <trkpt lat="44.9009" lon="1.82944">
        <ele>200.9</ele>
        <time>2022-08-06T13:18:42Z</time>
      </trkpt>
      <trkpt lat="44.90088" lon="1.82941">
        <ele>201.4</ele>
        <time>2022-08-06T13:18:44Z</time>
      </trkpt>
      <trkpt lat="44.90087" lon="1.82938">
        <ele>201.4</ele>
        <time>2022-08-06T13:18:46Z</time>
      </trkpt>
      <trkpt lat="44.90086" lon="1.82934">
        <ele>201.7</ele>
        <time>2022-08-06T13:18:48Z</time>
      </trkpt>
      <trkpt lat="44.90085" lon="1.82931">
        <ele>201.8</ele>
        <time>2022-08-06T13:18:50Z</time>
      </trkpt>
      <trkpt lat="44.90083" lon="1.82929">
        <ele>202.1</ele>
        <time>2022-08-06T13:18:52Z</time>
      </trkpt>
      <trkpt lat="44.90081" lon="1.82926">
        <ele>202.2</ele>
        <time>2022-08-06T13:18:54Z</time>
      </trkpt>
      <trkpt lat="44.9008" lon="1.82922">
        <ele>202</ele>
        <time>2022-08-06T13:18:56Z</time>
      </trkpt>
      <trkpt lat="44.90079" lon="1.8292">
        <ele>202.1</ele>
        <time>2022-08-06T13:18:58Z</time>
      </trkpt>
      <trkpt lat="44.90077" lon="1.82916">
        <ele>202.1</ele>
        <time>2022-08-06T13:19:00Z</time>
      </trkpt>
      <trkpt lat="44.90075" lon="1.82913">
        <ele>202.1</ele>
        <time>2022-08-06T13:19:02Z</time>
      </trkpt>
      <trkpt lat="44.90074" lon="1.82909">
        <ele>201.9</ele>
        <time>2022-08-06T13:19:04Z</time>
      </trkpt>
      <trkpt lat="44.90073" lon="1.82906">
        <ele>201.7</ele>
        <time>2022-08-06T13:19:06Z</time>
      </trkpt>
      <trkpt lat="44.90071" lon="1.82904">
        <ele>201.7</ele>
        <time>2022-08-06T13:19:08Z</time>
      </trkpt>
      <trkpt lat="44.90069" lon="1.82901">
        <ele>201.8</ele>
        <time>2022-08-06T13:19:10Z</time>
      </trkpt>
      <trkpt lat="44.90068" lon="1.82898">
        <ele>201.6</ele>
        <time>2022-08-06T13:19:12Z</time>
      </trkpt>
      <trkpt lat="44.90066" lon="1.82896">
        <ele>201.8</ele>
        <time>2022-08-06T13:19:14Z</time>
      </trkpt>
      <trkpt lat="44.90065" lon="1.82893">
        <ele>201.6</ele>
        <time>2022-08-06T13:19:16Z</time>
      </trkpt>
      <trkpt lat="44.90063" lon="1.8289">
        <ele>201.7</ele>
        <time>2022-08-06T13:19:18Z</time>
      </trkpt>
      <trkpt lat="44.90062" lon="1.82888">
        <ele>201.9</ele>
        <time>2022-08-06T13:19:20Z</time>
      </trkpt>
      <trkpt lat="44.9006" lon="1.82885">
        <ele>201.8</ele>
        <time>2022-08-06T13:19:22Z</time>
      </trkpt>
      <trkpt lat="44.90058" lon="1.82882">
        <ele>202</ele>
        <time>2022-08-06T13:19:24Z</time>
      </trkpt>
      <trkpt lat="44.90058" lon="1.82879">
        <ele>201.7</ele>
        <time>2022-08-06T13:19:26Z</time>
      </trkpt>
      <trkpt lat="44.90055" lon="1.82876">
        <ele>202</ele>
        <time>2022-08-06T13:19:28Z</time>
      </trkpt>
      <trkpt lat="44.90053" lon="1.82874">
        <ele>202.3</ele>
        <time>2022-08-06T13:19:30Z</time>
      </trkpt>
      <trkpt lat="44.90051" lon="1.82871">
        <ele>202.5</ele>
        <time>2022-08-06T13:19:32Z</time>
      </trkpt>
      <trkpt lat="44.9005" lon="1.82868">
        <ele>202.5</ele>
        <time>2022-08-06T13:19:34Z</time>
      </trkpt>
      <trkpt lat="44.90048" lon="1.82865">
        <ele>202.6</ele>
        <time>2022-08-06T13:19:36Z</time>
      </trkpt>
      <trkpt lat="44.90046" lon="1.82862">
        <ele>202.8</ele>
        <time>2022-08-06T13:19:38Z</time>
      </trkpt>
      <trkpt lat="44.90045" lon="1.8286">
        <ele>202.9</ele>
        <time>2022-08-06T13:19:40Z</time>
      </trkpt>
      <trkpt lat="44.90043" lon="1.82857">
        <ele>203</ele>
        <time>2022-08-06T13:19:42Z</time>
      </trkpt>
      <trkpt lat="44.90042" lon="1.82854">
        <ele>203</ele>
        <time>2022-08-06T13:19:44Z</time>
      </trkpt>
      <trkpt lat="44.90039" lon="1.82852">
        <ele>203.6</ele>
        <time>2022-08-06T13:19:46Z</time>
      </trkpt>
      <trkpt lat="44.90038" lon="1.82849">
        <ele>203.4</ele>
        <time>2022-08-06T13:19:48Z</time>
      </trkpt>
      <trkpt lat="44.90037" lon="1.82846">
        <ele>203.3</ele>
        <time>2022-08-06T13:19:50Z</time>
      </trkpt>
      <trkpt lat="44.90036" lon="1.82844">
        <ele>203.4</ele>
        <time>2022-08-06T13:19:52Z</time>
      </trkpt>
      <trkpt lat="44.90034" lon="1.82841">
        <ele>203.4</ele>
        <time>2022-08-06T13:19:54Z</time>
      </trkpt>
      <trkpt lat="44.90033" lon="1.82838">
        <ele>203.4</ele>
        <time>2022-08-06T13:19:56Z</time>
      </trkpt>
      <trkpt lat="44.90032" lon="1.82834">
        <ele>203.3</ele>
        <time>2022-08-06T13:19:58Z</time>
      </trkpt>
      <trkpt lat="44.90031" lon="1.8283">
        <ele>203.1</ele>
        <time>2022-08-06T13:20:00Z</time>
      </trkpt>
      <trkpt lat="44.9003" lon="1.82827">
        <ele>203</ele>
        <time>2022-08-06T13:20:02Z</time>
      </trkpt>
      <trkpt lat="44.90029" lon="1.82823">
        <ele>202.9</ele>
        <time>2022-08-06T13:20:04Z</time>
      </trkpt>
      <trkpt lat="44.90027" lon="1.8282">
        <ele>202.8</ele>
        <time>2022-08-06T13:20:06Z</time>
      </trkpt>
      <trkpt lat="44.90026" lon="1.82816">
        <ele>202.9</ele>
        <time>2022-08-06T13:20:08Z</time>
      </trkpt>
      <trkpt lat="44.90025" lon="1.82813">
        <ele>203</ele>
        <time>2022-08-06T13:20:10Z</time>
      </trkpt>
      <trkpt lat="44.90023" lon="1.8281">
        <ele>203.1</ele>
        <time>2022-08-06T13:20:12Z</time>
      </trkpt>
      <trkpt lat="44.90021" lon="1.82807">
        <ele>203.6</ele>
        <time>2022-08-06T13:20:14Z</time>
      </trkpt>
      <trkpt lat="44.9002" lon="1.82803">
        <ele>203.5</ele>
        <time>2022-08-06T13:20:16Z</time>
      </trkpt>
      <trkpt lat="44.90018" lon="1.82799">
        <ele>203.4</ele>
        <time>2022-08-06T13:20:18Z</time>
      </trkpt>
      <trkpt lat="44.90017" lon="1.82796">
        <ele>203.6</ele>
        <time>2022-08-06T13:20:20Z</time>
      </trkpt>
      <trkpt lat="44.90014" lon="1.82794">
        <ele>204.2</ele>
        <time>2022-08-06T13:20:22Z</time>
      </trkpt>
      <trkpt lat="44.90014" lon="1.8279">
        <ele>203.9</ele>
        <time>2022-08-06T13:20:24Z</time>
      </trkpt>
      <trkpt lat="44.90014" lon="1.82787">
        <ele>203.5</ele>
        <time>2022-08-06T13:20:26Z</time>
      </trkpt>
      <trkpt lat="44.90012" lon="1.82784">
        <ele>203.5</ele>
        <time>2022-08-06T13:20:28Z</time>
      </trkpt>
      <trkpt lat="44.90011" lon="1.82781">
        <ele>203.6</ele>
        <time>2022-08-06T13:20:30Z</time>
      </trkpt>
      <trkpt lat="44.9001" lon="1.82778">
        <ele>203.6</ele>
        <time>2022-08-06T13:20:32Z</time>
      </trkpt>
      <trkpt lat="44.90009" lon="1.82775">
        <ele>203.5</ele>
        <time>2022-08-06T13:20:34Z</time>
      </trkpt>
      <trkpt lat="44.90007" lon="1.82771">
        <ele>203.6</ele>
        <time>2022-08-06T13:20:36Z</time>
      </trkpt>
      <trkpt lat="44.90006" lon="1.82768">
        <ele>203.6</ele>
        <time>2022-08-06T13:20:38Z</time>
      </trkpt>
      <trkpt lat="44.90004" lon="1.82764">
        <ele>203.7</ele>
        <time>2022-08-06T13:20:40Z</time>
      </trkpt>
      <trkpt lat="44.90003" lon="1.82761">
        <ele>203.7</ele>
        <time>2022-08-06T13:20:42Z</time>
      </trkpt>
      <trkpt lat="44.90001" lon="1.82758">
        <ele>204</ele>
        <time>2022-08-06T13:20:44Z</time>
      </trkpt>
      <trkpt lat="44.89999" lon="1.82755">
        <ele>203.8</ele>
        <time>2022-08-06T13:20:46Z</time>
      </trkpt>
      <trkpt lat="44.89999" lon="1.82751">
        <ele>203.2</ele>
        <time>2022-08-06T13:20:48Z</time>
      </trkpt>
      <trkpt lat="44.89998" lon="1.82749">
        <ele>202.9</ele>
        <time>2022-08-06T13:20:50Z</time>
      </trkpt>
      <trkpt lat="44.89996" lon="1.82745">
        <ele>202.8</ele>
        <time>2022-08-06T13:20:52Z</time>
      </trkpt>
      <trkpt lat="44.89994" lon="1.82742">
        <ele>202.6</ele>
        <time>2022-08-06T13:20:54Z</time>
      </trkpt>
      <trkpt lat="44.89993" lon="1.82739">
        <ele>202.5</ele>
        <time>2022-08-06T13:20:56Z</time>
      </trkpt>
      <trkpt lat="44.8999" lon="1.82737">
        <ele>202.5</ele>
        <time>2022-08-06T13:20:58Z</time>
      </trkpt>
      <trkpt lat="44.89987" lon="1.82737">
        <ele>202.5</ele>
        <time>2022-08-06T13:21:00Z</time>
      </trkpt>
      <trkpt lat="44.89985" lon="1.82735">
        <ele>202.5</ele>
        <time>2022-08-06T13:21:02Z</time>
      </trkpt>
      <trkpt lat="44.89983" lon="1.82735">
        <ele>202.6</ele>
        <time>2022-08-06T13:21:04Z</time>
      </trkpt>
      <trkpt lat="44.8998" lon="1.82734">
        <ele>202.6</ele>
        <time>2022-08-06T13:21:06Z</time>
      </trkpt>
      <trkpt lat="44.89978" lon="1.82735">
        <ele>202.7</ele>
        <time>2022-08-06T13:21:08Z</time>
      </trkpt>
      <trkpt lat="44.89976" lon="1.82736">
        <ele>202.7</ele>
        <time>2022-08-06T13:21:10Z</time>
      </trkpt>
      <trkpt lat="44.89973" lon="1.82737">
        <ele>202.8</ele>
        <time>2022-08-06T13:21:12Z</time>
      </trkpt>
      <trkpt lat="44.8997" lon="1.82738">
        <ele>202.8</ele>
        <time>2022-08-06T13:21:14Z</time>
      </trkpt>
      <trkpt lat="44.89967" lon="1.82739">
        <ele>202.8</ele>
        <time>2022-08-06T13:21:16Z</time>
      </trkpt>
      <trkpt lat="44.89965" lon="1.82739">
        <ele>202.8</ele>
        <time>2022-08-06T13:21:18Z</time>
      </trkpt>
      <trkpt lat="44.89963" lon="1.8274">
        <ele>202.8</ele>
        <time>2022-08-06T13:21:20Z</time>
      </trkpt>
      <trkpt lat="44.8996" lon="1.82742">
        <ele>202.8</ele>
        <time>2022-08-06T13:21:22Z</time>
      </trkpt>
      <trkpt lat="44.89958" lon="1.82741">
        <ele>202.8</ele>
        <time>2022-08-06T13:21:24Z</time>
      </trkpt>
      <trkpt lat="44.89955" lon="1.8274">
        <ele>202.9</ele>
        <time>2022-08-06T13:21:26Z</time>
      </trkpt>
      <trkpt lat="44.89953" lon="1.82738">
        <ele>203</ele>
        <time>2022-08-06T13:21:28Z</time>
      </trkpt>
      <trkpt lat="44.89952" lon="1.82735">
        <ele>203.2</ele>
        <time>2022-08-06T13:21:30Z</time>
      </trkpt>
      <trkpt lat="44.8995" lon="1.82733">
        <ele>203.3</ele>
        <time>2022-08-06T13:21:32Z</time>
      </trkpt>
      <trkpt lat="44.89949" lon="1.8273">
        <ele>203.5</ele>
        <time>2022-08-06T13:21:34Z</time>
      </trkpt>
      <trkpt lat="44.89948" lon="1.82727">
        <ele>203.7</ele>
        <time>2022-08-06T13:21:36Z</time>
      </trkpt>
      <trkpt lat="44.89945" lon="1.82726">
        <ele>203.8</ele>
        <time>2022-08-06T13:21:38Z</time>
      </trkpt>
      <trkpt lat="44.89944" lon="1.82723">
        <ele>204.1</ele>
        <time>2022-08-06T13:21:40Z</time>
      </trkpt>
      <trkpt lat="44.89942" lon="1.82719">
        <ele>204.4</ele>
        <time>2022-08-06T13:21:42Z</time>
      </trkpt>
      <trkpt lat="44.89941" lon="1.82717">
        <ele>204.6</ele>
        <time>2022-08-06T13:21:44Z</time>
      </trkpt>
      <trkpt lat="44.89941" lon="1.82713">
        <ele>204.9</ele>
        <time>2022-08-06T13:21:46Z</time>
      </trkpt>
      <trkpt lat="44.89942" lon="1.8271">
        <ele>205.1</ele>
        <time>2022-08-06T13:21:48Z</time>
      </trkpt>
      <trkpt lat="44.89943" lon="1.82706">
        <ele>205.2</ele>
        <time>2022-08-06T13:21:50Z</time>
      </trkpt>
      <trkpt lat="44.89944" lon="1.82703">
        <ele>205.4</ele>
        <time>2022-08-06T13:21:52Z</time>
      </trkpt>
      <trkpt lat="44.89944" lon="1.827">
        <ele>205.6</ele>
        <time>2022-08-06T13:21:54Z</time>
      </trkpt>
      <trkpt lat="44.89943" lon="1.82697">
        <ele>205.8</ele>
        <time>2022-08-06T13:21:56Z</time>
      </trkpt>
      <trkpt lat="44.89943" lon="1.82693">
        <ele>206.1</ele>
        <time>2022-08-06T13:21:58Z</time>
      </trkpt>
      <trkpt lat="44.89943" lon="1.82689">
        <ele>206.4</ele>
        <time>2022-08-06T13:22:00Z</time>
      </trkpt>
      <trkpt lat="44.89943" lon="1.82686">
        <ele>206.6</ele>
        <time>2022-08-06T13:22:02Z</time>
      </trkpt>
      <trkpt lat="44.89943" lon="1.82682">
        <ele>206.9</ele>
        <time>2022-08-06T13:22:04Z</time>
      </trkpt>
      <trkpt lat="44.89942" lon="1.82679">
        <ele>207.2</ele>
        <time>2022-08-06T13:22:06Z</time>
      </trkpt>
      <trkpt lat="44.8994" lon="1.82676">
        <ele>207.7</ele>
        <time>2022-08-06T13:22:08Z</time>
      </trkpt>
      <trkpt lat="44.89937" lon="1.82674">
        <ele>208.3</ele>
        <time>2022-08-06T13:22:10Z</time>
      </trkpt>
      <trkpt lat="44.89934" lon="1.82672">
        <ele>208.8</ele>
        <time>2022-08-06T13:22:12Z</time>
      </trkpt>
      <trkpt lat="44.89932" lon="1.8267">
        <ele>209.3</ele>
        <time>2022-08-06T13:22:14Z</time>
      </trkpt>
      <trkpt lat="44.89929" lon="1.82668">
        <ele>209.9</ele>
        <time>2022-08-06T13:22:16Z</time>
      </trkpt>
      <trkpt lat="44.89927" lon="1.82667">
        <ele>210.5</ele>
        <time>2022-08-06T13:22:18Z</time>
      </trkpt>
      <trkpt lat="44.89924" lon="1.82665">
        <ele>211.1</ele>
        <time>2022-08-06T13:22:20Z</time>
      </trkpt>
      <trkpt lat="44.89922" lon="1.82663">
        <ele>211.7</ele>
        <time>2022-08-06T13:22:22Z</time>
      </trkpt>
      <trkpt lat="44.89919" lon="1.82661">
        <ele>212.3</ele>
        <time>2022-08-06T13:22:24Z</time>
      </trkpt>
      <trkpt lat="44.89916" lon="1.8266">
        <ele>212.8</ele>
        <time>2022-08-06T13:22:26Z</time>
      </trkpt>
      <trkpt lat="44.89914" lon="1.82659">
        <ele>212.7</ele>
        <time>2022-08-06T13:22:28Z</time>
      </trkpt>
      <trkpt lat="44.89911" lon="1.82658">
        <ele>212.4</ele>
        <time>2022-08-06T13:22:30Z</time>
      </trkpt>
      <trkpt lat="44.89908" lon="1.82658">
        <ele>212.1</ele>
        <time>2022-08-06T13:22:32Z</time>
      </trkpt>
      <trkpt lat="44.89905" lon="1.82656">
        <ele>211.9</ele>
        <time>2022-08-06T13:22:34Z</time>
      </trkpt>
      <trkpt lat="44.89903" lon="1.82654">
        <ele>211.7</ele>
        <time>2022-08-06T13:22:36Z</time>
      </trkpt>
      <trkpt lat="44.899" lon="1.82653">
        <ele>211.5</ele>
        <time>2022-08-06T13:22:38Z</time>
      </trkpt>
      <trkpt lat="44.89897" lon="1.82651">
        <ele>211.2</ele>
        <time>2022-08-06T13:22:40Z</time>
      </trkpt>
      <trkpt lat="44.89893" lon="1.8265">
        <ele>210.9</ele>
        <time>2022-08-06T13:22:42Z</time>
      </trkpt>
      <trkpt lat="44.8989" lon="1.82648">
        <ele>210.7</ele>
        <time>2022-08-06T13:22:44Z</time>
      </trkpt>
      <trkpt lat="44.89887" lon="1.82646">
        <ele>210.4</ele>
        <time>2022-08-06T13:22:46Z</time>
      </trkpt>
      <trkpt lat="44.89883" lon="1.82643">
        <ele>210.2</ele>
        <time>2022-08-06T13:22:48Z</time>
      </trkpt>
      <trkpt lat="44.8988" lon="1.82641">
        <ele>209.9</ele>
        <time>2022-08-06T13:22:50Z</time>
      </trkpt>
      <trkpt lat="44.89875" lon="1.8264">
        <ele>209.4</ele>
        <time>2022-08-06T13:22:52Z</time>
      </trkpt>
      <trkpt lat="44.89871" lon="1.82637">
        <ele>209</ele>
        <time>2022-08-06T13:22:54Z</time>
      </trkpt>
      <trkpt lat="44.89868" lon="1.82636">
        <ele>208.8</ele>
        <time>2022-08-06T13:22:56Z</time>
      </trkpt>
      <trkpt lat="44.89864" lon="1.82633">
        <ele>208.6</ele>
        <time>2022-08-06T13:22:58Z</time>
      </trkpt>
      <trkpt lat="44.89862" lon="1.82629">
        <ele>208.6</ele>
        <time>2022-08-06T13:23:00Z</time>
      </trkpt>
      <trkpt lat="44.8986" lon="1.82626">
        <ele>208.7</ele>
        <time>2022-08-06T13:23:02Z</time>
      </trkpt>
      <trkpt lat="44.89858" lon="1.82622">
        <ele>208.9</ele>
        <time>2022-08-06T13:23:04Z</time>
      </trkpt>
      <trkpt lat="44.89857" lon="1.8262">
        <ele>208.9</ele>
        <time>2022-08-06T13:23:06Z</time>
      </trkpt>
      <trkpt lat="44.89855" lon="1.82617">
        <ele>208.9</ele>
        <time>2022-08-06T13:23:08Z</time>
      </trkpt>
      <trkpt lat="44.89854" lon="1.82614">
        <ele>209</ele>
        <time>2022-08-06T13:23:10Z</time>
      </trkpt>
      <trkpt lat="44.89851" lon="1.82611">
        <ele>209.1</ele>
        <time>2022-08-06T13:23:12Z</time>
      </trkpt>
      <trkpt lat="44.89851" lon="1.82609">
        <ele>209.1</ele>
        <time>2022-08-06T13:23:14Z</time>
      </trkpt>
      <trkpt lat="44.89849" lon="1.82606">
        <ele>209.3</ele>
        <time>2022-08-06T13:23:16Z</time>
      </trkpt>
      <trkpt lat="44.89848" lon="1.82602">
        <ele>209.5</ele>
        <time>2022-08-06T13:23:18Z</time>
      </trkpt>
      <trkpt lat="44.89846" lon="1.82599">
        <ele>209.6</ele>
        <time>2022-08-06T13:23:20Z</time>
      </trkpt>
      <trkpt lat="44.89845" lon="1.82594">
        <ele>209.9</ele>
        <time>2022-08-06T13:23:22Z</time>
      </trkpt>
      <trkpt lat="44.89845" lon="1.8259">
        <ele>210.3</ele>
        <time>2022-08-06T13:23:24Z</time>
      </trkpt>
      <trkpt lat="44.89844" lon="1.82587">
        <ele>210.6</ele>
        <time>2022-08-06T13:23:26Z</time>
      </trkpt>
      <trkpt lat="44.89844" lon="1.82583">
        <ele>210.9</ele>
        <time>2022-08-06T13:23:28Z</time>
      </trkpt>
      <trkpt lat="44.89845" lon="1.82579">
        <ele>210.8</ele>
        <time>2022-08-06T13:23:30Z</time>
      </trkpt>
      <trkpt lat="44.89845" lon="1.82575">
        <ele>210.5</ele>
        <time>2022-08-06T13:23:32Z</time>
      </trkpt>
      <trkpt lat="44.89846" lon="1.82571">
        <ele>210.4</ele>
        <time>2022-08-06T13:23:34Z</time>
      </trkpt>
      <trkpt lat="44.89847" lon="1.82567">
        <ele>210.3</ele>
        <time>2022-08-06T13:23:36Z</time>
      </trkpt>
      <trkpt lat="44.89847" lon="1.82563">
        <ele>210</ele>
        <time>2022-08-06T13:23:38Z</time>
      </trkpt>
      <trkpt lat="44.89844" lon="1.8256">
        <ele>209.4</ele>
        <time>2022-08-06T13:23:40Z</time>
      </trkpt>
      <trkpt lat="44.89841" lon="1.82558">
        <ele>208.8</ele>
        <time>2022-08-06T13:23:42Z</time>
      </trkpt>
      <trkpt lat="44.89839" lon="1.82557">
        <ele>208.3</ele>
        <time>2022-08-06T13:23:44Z</time>
      </trkpt>
      <trkpt lat="44.89837" lon="1.82555">
        <ele>207.9</ele>
        <time>2022-08-06T13:23:46Z</time>
      </trkpt>
      <trkpt lat="44.89836" lon="1.82555">
        <ele>207.7</ele>
        <time>2022-08-06T13:23:48Z</time>
      </trkpt>
      <trkpt lat="44.89836" lon="1.82555">
        <ele>207.7</ele>
        <time>2022-08-06T13:23:50Z</time>
      </trkpt>
      <trkpt lat="44.89836" lon="1.82556">
        <ele>207.7</ele>
        <time>2022-08-06T13:23:52Z</time>
      </trkpt>
      <trkpt lat="44.89836" lon="1.82556">
        <ele>207.7</ele>
        <time>2022-08-06T13:23:54Z</time>
      </trkpt>
      <trkpt lat="44.89835" lon="1.82557">
        <ele>207.7</ele>
        <time>2022-08-06T13:23:56Z</time>
      </trkpt>
      <trkpt lat="44.89835" lon="1.82558">
        <ele>207.7</ele>
        <time>2022-08-06T13:23:58Z</time>
      </trkpt>
      <trkpt lat="44.89835" lon="1.82559">
        <ele>207.8</ele>
        <time>2022-08-06T13:24:00Z</time>
      </trkpt>
      <trkpt lat="44.89834" lon="1.82562">
        <ele>207.9</ele>
        <time>2022-08-06T13:24:02Z</time>
      </trkpt>
      <trkpt lat="44.89835" lon="1.82565">
        <ele>208.1</ele>
        <time>2022-08-06T13:24:04Z</time>
      </trkpt>
      <trkpt lat="44.89834" lon="1.82567">
        <ele>208.2</ele>
        <time>2022-08-06T13:24:06Z</time>
      </trkpt>
      <trkpt lat="44.89834" lon="1.82568">
        <ele>208.2</ele>
        <time>2022-08-06T13:24:08Z</time>
      </trkpt>
      <trkpt lat="44.89834" lon="1.8257">
        <ele>208.3</ele>
        <time>2022-08-06T13:24:10Z</time>
      </trkpt>
      <trkpt lat="44.89834" lon="1.82573">
        <ele>208.4</ele>
        <time>2022-08-06T13:24:12Z</time>
      </trkpt>
      <trkpt lat="44.89834" lon="1.82575">
        <ele>208.6</ele>
        <time>2022-08-06T13:24:14Z</time>
      </trkpt>
      <trkpt lat="44.89834" lon="1.82578">
        <ele>208.8</ele>
        <time>2022-08-06T13:24:16Z</time>
      </trkpt>
      <trkpt lat="44.89835" lon="1.82579">
        <ele>209</ele>
        <time>2022-08-06T13:24:18Z</time>
      </trkpt>
      <trkpt lat="44.89835" lon="1.82581">
        <ele>209.1</ele>
        <time>2022-08-06T13:24:20Z</time>
      </trkpt>
      <trkpt lat="44.89835" lon="1.82581">
        <ele>209.2</ele>
        <time>2022-08-06T13:24:22Z</time>
      </trkpt>
      <trkpt lat="44.89836" lon="1.82581">
        <ele>209.3</ele>
        <time>2022-08-06T13:24:24Z</time>
      </trkpt>
      <trkpt lat="44.89836" lon="1.82582">
        <ele>209.4</ele>
        <time>2022-08-06T13:24:26Z</time>
      </trkpt>
      <trkpt lat="44.89836" lon="1.82582">
        <ele>209.4</ele>
        <time>2022-08-06T13:24:28Z</time>
      </trkpt>
      <trkpt lat="44.89836" lon="1.82582">
        <ele>209.4</ele>
        <time>2022-08-06T13:24:30Z</time>
      </trkpt>
      <trkpt lat="44.89836" lon="1.82582">
        <ele>209.5</ele>
        <time>2022-08-06T13:24:32Z</time>
      </trkpt>
      <trkpt lat="44.89836" lon="1.82582">
        <ele>209.5</ele>
        <time>2022-08-06T13:24:34Z</time>
      </trkpt>
      <trkpt lat="44.89836" lon="1.82582">
        <ele>209.5</ele>
        <time>2022-08-06T13:24:36Z</time>
      </trkpt>
      <trkpt lat="44.89837" lon="1.82582">
        <ele>209.5</ele>
        <time>2022-08-06T13:24:38Z</time>
      </trkpt>
      <trkpt lat="44.89836" lon="1.82582">
        <ele>209.5</ele>
        <time>2022-08-06T13:24:40Z</time>
      </trkpt>
      <trkpt lat="44.89836" lon="1.82582">
        <ele>209.5</ele>
        <time>2022-08-06T13:24:42Z</time>
      </trkpt>
      <trkpt lat="44.89836" lon="1.82582">
        <ele>209.5</ele>
        <time>2022-08-06T13:24:44Z</time>
      </trkpt>
      <trkpt lat="44.89836" lon="1.82582">
        <ele>209.5</ele>
        <time>2022-08-06T13:24:46Z</time>
      </trkpt>
      <trkpt lat="44.89836" lon="1.82582">
        <ele>209.4</ele>
        <time>2022-08-06T13:24:48Z</time>
      </trkpt>
      <trkpt lat="44.89836" lon="1.82583">
        <ele>209.4</ele>
        <time>2022-08-06T13:24:50Z</time>
      </trkpt>
      <trkpt lat="44.89836" lon="1.82583">
        <ele>209.4</ele>
        <time>2022-08-06T13:24:52Z</time>
      </trkpt>
      <trkpt lat="44.89836" lon="1.82583">
        <ele>209.4</ele>
        <time>2022-08-06T13:24:56Z</time>
      </trkpt>
      <trkpt lat="44.89836" lon="1.82583">
        <ele>209.4</ele>
        <time>2022-08-06T13:25:00Z</time>
      </trkpt>
      <trkpt lat="44.89836" lon="1.82583">
        <ele>209.4</ele>
        <time>2022-08-06T13:25:04Z</time>
      </trkpt>
      <trkpt lat="44.89836" lon="1.82583">
        <ele>209.4</ele>
        <time>2022-08-06T13:25:06Z</time>
      </trkpt>
      <trkpt lat="44.89836" lon="1.82583">
        <ele>209.4</ele>
        <time>2022-08-06T13:25:08Z</time>
      </trkpt>
      <trkpt lat="44.89836" lon="1.82583">
        <ele>209.4</ele>
        <time>2022-08-06T13:25:10Z</time>
      </trkpt>
      <trkpt lat="44.89836" lon="1.82583">
        <ele>209.4</ele>
        <time>2022-08-06T13:25:14Z</time>
      </trkpt>
      <trkpt lat="44.89836" lon="1.82583">
        <ele>209.4</ele>
        <time>2022-08-06T13:25:16Z</time>
      </trkpt>
      <trkpt lat="44.89836" lon="1.82583">
        <ele>209.4</ele>
        <time>2022-08-06T13:25:18Z</time>
      </trkpt>
      <trkpt lat="44.89836" lon="1.82583">
        <ele>209.4</ele>
        <time>2022-08-06T13:25:22Z</time>
      </trkpt>
      <trkpt lat="44.89836" lon="1.82583">
        <ele>209.4</ele>
        <time>2022-08-06T13:25:26Z</time>
      </trkpt>
      <trkpt lat="44.89836" lon="1.82583">
        <ele>209.4</ele>
        <time>2022-08-06T13:25:30Z</time>
      </trkpt>
      <trkpt lat="44.89836" lon="1.82583">
        <ele>209.4</ele>
        <time>2022-08-06T13:25:34Z</time>
      </trkpt>
      <trkpt lat="44.89836" lon="1.82583">
        <ele>209.4</ele>
        <time>2022-08-06T13:25:38Z</time>
      </trkpt>
      <trkpt lat="44.89836" lon="1.82583">
        <ele>209.4</ele>
        <time>2022-08-06T13:25:42Z</time>
      </trkpt>
      <trkpt lat="44.89836" lon="1.82583">
        <ele>209.4</ele>
        <time>2022-08-06T13:25:46Z</time>
      </trkpt>
      <trkpt lat="44.89836" lon="1.82583">
        <ele>209.4</ele>
        <time>2022-08-06T13:25:50Z</time>
      </trkpt>
      <trkpt lat="44.89836" lon="1.82583">
        <ele>209.4</ele>
        <time>2022-08-06T13:25:54Z</time>
      </trkpt>
      <trkpt lat="44.89836" lon="1.82583">
        <ele>209.4</ele>
        <time>2022-08-06T13:25:58Z</time>
      </trkpt>
      <trkpt lat="44.89836" lon="1.82583">
        <ele>209.4</ele>
        <time>2022-08-06T13:26:02Z</time>
      </trkpt>
      <trkpt lat="44.89836" lon="1.82583">
        <ele>209.4</ele>
        <time>2022-08-06T13:26:06Z</time>
      </trkpt>
      <trkpt lat="44.89836" lon="1.82583">
        <ele>209.4</ele>
        <time>2022-08-06T13:26:10Z</time>
      </trkpt>
      <trkpt lat="44.89836" lon="1.82583">
        <ele>209.4</ele>
        <time>2022-08-06T13:26:14Z</time>
      </trkpt>
      <trkpt lat="44.89836" lon="1.82583">
        <ele>209.4</ele>
        <time>2022-08-06T13:26:18Z</time>
      </trkpt>
      <trkpt lat="44.89836" lon="1.82583">
        <ele>209.4</ele>
        <time>2022-08-06T13:26:22Z</time>
      </trkpt>
      <trkpt lat="44.89836" lon="1.82583">
        <ele>209.4</ele>
        <time>2022-08-06T13:26:26Z</time>
      </trkpt>
      <trkpt lat="44.89836" lon="1.82583">
        <ele>209.4</ele>
        <time>2022-08-06T13:26:30Z</time>
      </trkpt>
      <trkpt lat="44.89836" lon="1.82583">
        <ele>209.4</ele>
        <time>2022-08-06T13:26:34Z</time>
      </trkpt>
      <trkpt lat="44.89836" lon="1.82583">
        <ele>209.4</ele>
        <time>2022-08-06T13:26:38Z</time>
      </trkpt>
      <trkpt lat="44.89836" lon="1.82583">
        <ele>209.4</ele>
        <time>2022-08-06T13:26:42Z</time>
      </trkpt>
      <trkpt lat="44.89836" lon="1.82583">
        <ele>209.4</ele>
        <time>2022-08-06T13:26:46Z</time>
      </trkpt>
      <trkpt lat="44.89836" lon="1.82583">
        <ele>209.4</ele>
        <time>2022-08-06T13:26:50Z</time>
      </trkpt>
      <trkpt lat="44.89836" lon="1.82583">
        <ele>209.4</ele>
        <time>2022-08-06T13:26:54Z</time>
      </trkpt>
      <trkpt lat="44.89836" lon="1.82583">
        <ele>209.4</ele>
        <time>2022-08-06T13:26:58Z</time>
      </trkpt>
      <trkpt lat="44.89836" lon="1.82583">
        <ele>209.4</ele>
        <time>2022-08-06T13:27:02Z</time>
      </trkpt>
      <trkpt lat="44.89836" lon="1.82583">
        <ele>209.4</ele>
        <time>2022-08-06T13:27:06Z</time>
      </trkpt>
      <trkpt lat="44.89836" lon="1.82583">
        <ele>209.4</ele>
        <time>2022-08-06T13:27:10Z</time>
      </trkpt>
      <trkpt lat="44.89836" lon="1.82583">
        <ele>209.4</ele>
        <time>2022-08-06T13:27:14Z</time>
      </trkpt>
      <trkpt lat="44.89836" lon="1.82583">
        <ele>209.4</ele>
        <time>2022-08-06T13:27:18Z</time>
      </trkpt>
      <trkpt lat="44.89836" lon="1.82583">
        <ele>209.4</ele>
        <time>2022-08-06T13:27:22Z</time>
      </trkpt>
      <trkpt lat="44.89836" lon="1.82583">
        <ele>209.4</ele>
        <time>2022-08-06T13:27:26Z</time>
      </trkpt>
      <trkpt lat="44.89836" lon="1.82583">
        <ele>209.4</ele>
        <time>2022-08-06T13:27:30Z</time>
      </trkpt>
      <trkpt lat="44.89836" lon="1.82583">
        <ele>209.4</ele>
        <time>2022-08-06T13:27:34Z</time>
      </trkpt>
      <trkpt lat="44.89836" lon="1.82583">
        <ele>209.4</ele>
        <time>2022-08-06T13:27:38Z</time>
      </trkpt>
      <trkpt lat="44.89836" lon="1.82583">
        <ele>209.4</ele>
        <time>2022-08-06T13:27:42Z</time>
      </trkpt>
      <trkpt lat="44.89836" lon="1.82583">
        <ele>209.4</ele>
        <time>2022-08-06T13:27:46Z</time>
      </trkpt>
      <trkpt lat="44.89836" lon="1.82583">
        <ele>209.4</ele>
        <time>2022-08-06T13:27:50Z</time>
      </trkpt>
      <trkpt lat="44.89836" lon="1.82583">
        <ele>209.4</ele>
        <time>2022-08-06T13:27:54Z</time>
      </trkpt>
      <trkpt lat="44.89836" lon="1.82583">
        <ele>209.4</ele>
        <time>2022-08-06T13:27:58Z</time>
      </trkpt>
      <trkpt lat="44.89836" lon="1.82583">
        <ele>209.4</ele>
        <time>2022-08-06T13:28:02Z</time>
      </trkpt>
      <trkpt lat="44.89836" lon="1.82583">
        <ele>209.4</ele>
        <time>2022-08-06T13:28:06Z</time>
      </trkpt>
      <trkpt lat="44.89836" lon="1.82583">
        <ele>209.4</ele>
        <time>2022-08-06T13:28:10Z</time>
      </trkpt>
      <trkpt lat="44.89836" lon="1.82583">
        <ele>209.4</ele>
        <time>2022-08-06T13:28:14Z</time>
      </trkpt>
      <trkpt lat="44.89836" lon="1.82583">
        <ele>209.4</ele>
        <time>2022-08-06T13:28:18Z</time>
      </trkpt>
      <trkpt lat="44.89836" lon="1.82583">
        <ele>209.4</ele>
        <time>2022-08-06T13:28:22Z</time>
      </trkpt>
      <trkpt lat="44.89836" lon="1.82583">
        <ele>209.4</ele>
        <time>2022-08-06T13:28:26Z</time>
      </trkpt>
      <trkpt lat="44.89836" lon="1.82583">
        <ele>209.4</ele>
        <time>2022-08-06T13:28:30Z</time>
      </trkpt>
      <trkpt lat="44.89836" lon="1.82583">
        <ele>209.4</ele>
        <time>2022-08-06T13:28:34Z</time>
      </trkpt>
      <trkpt lat="44.89836" lon="1.82583">
        <ele>209.4</ele>
        <time>2022-08-06T13:28:38Z</time>
      </trkpt>
      <trkpt lat="44.89836" lon="1.82583">
        <ele>209.4</ele>
        <time>2022-08-06T13:28:42Z</time>
      </trkpt>
      <trkpt lat="44.89836" lon="1.82583">
        <ele>209.4</ele>
        <time>2022-08-06T13:28:46Z</time>
      </trkpt>
      <trkpt lat="44.89836" lon="1.82583">
        <ele>209.4</ele>
        <time>2022-08-06T13:28:50Z</time>
      </trkpt>
      <trkpt lat="44.89836" lon="1.82583">
        <ele>209.4</ele>
        <time>2022-08-06T13:28:54Z</time>
      </trkpt>
      <trkpt lat="44.89836" lon="1.82583">
        <ele>209.4</ele>
        <time>2022-08-06T13:28:58Z</time>
      </trkpt>
      <trkpt lat="44.89836" lon="1.82583">
        <ele>209.4</ele>
        <time>2022-08-06T13:29:02Z</time>
      </trkpt>
      <trkpt lat="44.89836" lon="1.82583">
        <ele>209.4</ele>
        <time>2022-08-06T13:29:06Z</time>
      </trkpt>
      <trkpt lat="44.89836" lon="1.82583">
        <ele>209.4</ele>
        <time>2022-08-06T13:29:10Z</time>
      </trkpt>
      <trkpt lat="44.89836" lon="1.82583">
        <ele>209.4</ele>
        <time>2022-08-06T13:29:14Z</time>
      </trkpt>
      <trkpt lat="44.89836" lon="1.82583">
        <ele>209.4</ele>
        <time>2022-08-06T13:29:18Z</time>
      </trkpt>
      <trkpt lat="44.89836" lon="1.82583">
        <ele>209.4</ele>
        <time>2022-08-06T13:29:22Z</time>
      </trkpt>
      <trkpt lat="44.89836" lon="1.82583">
        <ele>209.4</ele>
        <time>2022-08-06T13:29:26Z</time>
      </trkpt>
      <trkpt lat="44.89836" lon="1.82583">
        <ele>209.4</ele>
        <time>2022-08-06T13:29:30Z</time>
      </trkpt>
      <trkpt lat="44.89836" lon="1.82583">
        <ele>209.4</ele>
        <time>2022-08-06T13:29:34Z</time>
      </trkpt>
      <trkpt lat="44.89836" lon="1.82583">
        <ele>209.4</ele>
        <time>2022-08-06T13:29:38Z</time>
      </trkpt>
      <trkpt lat="44.89836" lon="1.82583">
        <ele>209.4</ele>
        <time>2022-08-06T13:29:42Z</time>
      </trkpt>
      <trkpt lat="44.89836" lon="1.82583">
        <ele>209.4</ele>
        <time>2022-08-06T13:29:46Z</time>
      </trkpt>
      <trkpt lat="44.89836" lon="1.82583">
        <ele>209.4</ele>
        <time>2022-08-06T13:29:50Z</time>
      </trkpt>
      <trkpt lat="44.89836" lon="1.82583">
        <ele>209.4</ele>
        <time>2022-08-06T13:29:54Z</time>
      </trkpt>
      <trkpt lat="44.89836" lon="1.82583">
        <ele>209.4</ele>
        <time>2022-08-06T13:29:58Z</time>
      </trkpt>
      <trkpt lat="44.89836" lon="1.82583">
        <ele>209.4</ele>
        <time>2022-08-06T13:30:02Z</time>
      </trkpt>
      <trkpt lat="44.89836" lon="1.82583">
        <ele>209.4</ele>
        <time>2022-08-06T13:30:06Z</time>
      </trkpt>
      <trkpt lat="44.89836" lon="1.82583">
        <ele>209.4</ele>
        <time>2022-08-06T13:30:10Z</time>
      </trkpt>
      <trkpt lat="44.89836" lon="1.82583">
        <ele>209.4</ele>
        <time>2022-08-06T13:30:14Z</time>
      </trkpt>
      <trkpt lat="44.89836" lon="1.82583">
        <ele>209.4</ele>
        <time>2022-08-06T13:30:18Z</time>
      </trkpt>
      <trkpt lat="44.89836" lon="1.82583">
        <ele>209.4</ele>
        <time>2022-08-06T13:30:22Z</time>
      </trkpt>
      <trkpt lat="44.89836" lon="1.82583">
        <ele>209.4</ele>
        <time>2022-08-06T13:30:26Z</time>
      </trkpt>
      <trkpt lat="44.89836" lon="1.82583">
        <ele>209.4</ele>
        <time>2022-08-06T13:30:30Z</time>
      </trkpt>
      <trkpt lat="44.89836" lon="1.82583">
        <ele>209.4</ele>
        <time>2022-08-06T13:30:34Z</time>
      </trkpt>
      <trkpt lat="44.89836" lon="1.82583">
        <ele>209.4</ele>
        <time>2022-08-06T13:30:38Z</time>
      </trkpt>
      <trkpt lat="44.89836" lon="1.82583">
        <ele>209.4</ele>
        <time>2022-08-06T13:30:42Z</time>
      </trkpt>
      <trkpt lat="44.89836" lon="1.82583">
        <ele>209.4</ele>
        <time>2022-08-06T13:30:46Z</time>
      </trkpt>
      <trkpt lat="44.89836" lon="1.82583">
        <ele>209.4</ele>
        <time>2022-08-06T13:30:50Z</time>
      </trkpt>
      <trkpt lat="44.89836" lon="1.82583">
        <ele>209.4</ele>
        <time>2022-08-06T13:30:54Z</time>
      </trkpt>
      <trkpt lat="44.89836" lon="1.82583">
        <ele>209.4</ele>
        <time>2022-08-06T13:30:58Z</time>
      </trkpt>
      <trkpt lat="44.89836" lon="1.82583">
        <ele>209.4</ele>
        <time>2022-08-06T13:31:02Z</time>
      </trkpt>
      <trkpt lat="44.89836" lon="1.82583">
        <ele>209.4</ele>
        <time>2022-08-06T13:31:06Z</time>
      </trkpt>
      <trkpt lat="44.89836" lon="1.82583">
        <ele>209.4</ele>
        <time>2022-08-06T13:31:10Z</time>
      </trkpt>
      <trkpt lat="44.89836" lon="1.82583">
        <ele>209.4</ele>
        <time>2022-08-06T13:31:14Z</time>
      </trkpt>
      <trkpt lat="44.89836" lon="1.82583">
        <ele>209.4</ele>
        <time>2022-08-06T13:31:18Z</time>
      </trkpt>
      <trkpt lat="44.89836" lon="1.82583">
        <ele>209.4</ele>
        <time>2022-08-06T13:31:22Z</time>
      </trkpt>
      <trkpt lat="44.89836" lon="1.82583">
        <ele>209.4</ele>
        <time>2022-08-06T13:31:26Z</time>
      </trkpt>
      <trkpt lat="44.89836" lon="1.82583">
        <ele>209.4</ele>
        <time>2022-08-06T13:31:30Z</time>
      </trkpt>
      <trkpt lat="44.89836" lon="1.82583">
        <ele>209.4</ele>
        <time>2022-08-06T13:31:34Z</time>
      </trkpt>
      <trkpt lat="44.89836" lon="1.82583">
        <ele>209.4</ele>
        <time>2022-08-06T13:31:38Z</time>
      </trkpt>
      <trkpt lat="44.89836" lon="1.82583">
        <ele>209.4</ele>
        <time>2022-08-06T13:31:42Z</time>
      </trkpt>
      <trkpt lat="44.89836" lon="1.82583">
        <ele>209.4</ele>
        <time>2022-08-06T13:31:46Z</time>
      </trkpt>
      <trkpt lat="44.89836" lon="1.82583">
        <ele>209.4</ele>
        <time>2022-08-06T13:31:50Z</time>
      </trkpt>
      <trkpt lat="44.89836" lon="1.82583">
        <ele>209.4</ele>
        <time>2022-08-06T13:31:54Z</time>
      </trkpt>
      <trkpt lat="44.89836" lon="1.82583">
        <ele>209.4</ele>
        <time>2022-08-06T13:31:58Z</time>
      </trkpt>
      <trkpt lat="44.89836" lon="1.82583">
        <ele>209.4</ele>
        <time>2022-08-06T13:32:02Z</time>
      </trkpt>
      <trkpt lat="44.89836" lon="1.82583">
        <ele>209.4</ele>
        <time>2022-08-06T13:32:06Z</time>
      </trkpt>
      <trkpt lat="44.89836" lon="1.82583">
        <ele>209.4</ele>
        <time>2022-08-06T13:32:10Z</time>
      </trkpt>
      <trkpt lat="44.89836" lon="1.82583">
        <ele>209.4</ele>
        <time>2022-08-06T13:32:14Z</time>
      </trkpt>
      <trkpt lat="44.89836" lon="1.82583">
        <ele>209.4</ele>
        <time>2022-08-06T13:32:18Z</time>
      </trkpt>
      <trkpt lat="44.89836" lon="1.82583">
        <ele>209.4</ele>
        <time>2022-08-06T13:32:22Z</time>
      </trkpt>
      <trkpt lat="44.89836" lon="1.82583">
        <ele>209.4</ele>
        <time>2022-08-06T13:32:26Z</time>
      </trkpt>
      <trkpt lat="44.89836" lon="1.82583">
        <ele>209.4</ele>
        <time>2022-08-06T13:32:30Z</time>
      </trkpt>
      <trkpt lat="44.89836" lon="1.82583">
        <ele>209.4</ele>
        <time>2022-08-06T13:32:34Z</time>
      </trkpt>
      <trkpt lat="44.89836" lon="1.82583">
        <ele>209.4</ele>
        <time>2022-08-06T13:32:38Z</time>
      </trkpt>
      <trkpt lat="44.89836" lon="1.82583">
        <ele>209.4</ele>
        <time>2022-08-06T13:32:42Z</time>
      </trkpt>
      <trkpt lat="44.89836" lon="1.82583">
        <ele>209.4</ele>
        <time>2022-08-06T13:32:46Z</time>
      </trkpt>
      <trkpt lat="44.89836" lon="1.82583">
        <ele>209.4</ele>
        <time>2022-08-06T13:32:50Z</time>
      </trkpt>
      <trkpt lat="44.89836" lon="1.82583">
        <ele>209.4</ele>
        <time>2022-08-06T13:32:54Z</time>
      </trkpt>
      <trkpt lat="44.89836" lon="1.82583">
        <ele>209.4</ele>
        <time>2022-08-06T13:32:58Z</time>
      </trkpt>
      <trkpt lat="44.89836" lon="1.82583">
        <ele>209.4</ele>
        <time>2022-08-06T13:33:02Z</time>
      </trkpt>
      <trkpt lat="44.89836" lon="1.82583">
        <ele>209.4</ele>
        <time>2022-08-06T13:33:06Z</time>
      </trkpt>
      <trkpt lat="44.89836" lon="1.82583">
        <ele>209.4</ele>
        <time>2022-08-06T13:33:10Z</time>
      </trkpt>
      <trkpt lat="44.89836" lon="1.82583">
        <ele>209.4</ele>
        <time>2022-08-06T13:33:14Z</time>
      </trkpt>
      <trkpt lat="44.89836" lon="1.82583">
        <ele>209.4</ele>
        <time>2022-08-06T13:33:18Z</time>
      </trkpt>
      <trkpt lat="44.89836" lon="1.82583">
        <ele>209.4</ele>
        <time>2022-08-06T13:33:22Z</time>
      </trkpt>
      <trkpt lat="44.89836" lon="1.82583">
        <ele>209.4</ele>
        <time>2022-08-06T13:33:26Z</time>
      </trkpt>
      <trkpt lat="44.89836" lon="1.82579">
        <ele>209.2</ele>
        <time>2022-08-06T13:33:30Z</time>
      </trkpt>
      <trkpt lat="44.89836" lon="1.82579">
        <ele>209.2</ele>
        <time>2022-08-06T13:33:32Z</time>
      </trkpt>
      <trkpt lat="44.89836" lon="1.82579">
        <ele>209.2</ele>
        <time>2022-08-06T13:33:36Z</time>
      </trkpt>
      <trkpt lat="44.89836" lon="1.82579">
        <ele>209.2</ele>
        <time>2022-08-06T13:33:40Z</time>
      </trkpt>
      <trkpt lat="44.89836" lon="1.82579">
        <ele>209.2</ele>
        <time>2022-08-06T13:33:44Z</time>
      </trkpt>
      <trkpt lat="44.89836" lon="1.82579">
        <ele>209.2</ele>
        <time>2022-08-06T13:33:48Z</time>
      </trkpt>
      <trkpt lat="44.89836" lon="1.82579">
        <ele>209.2</ele>
        <time>2022-08-06T13:33:52Z</time>
      </trkpt>
      <trkpt lat="44.89836" lon="1.82579">
        <ele>209.2</ele>
        <time>2022-08-06T13:33:56Z</time>
      </trkpt>
      <trkpt lat="44.89836" lon="1.82579">
        <ele>209.2</ele>
        <time>2022-08-06T13:34:00Z</time>
      </trkpt>
      <trkpt lat="44.89836" lon="1.82579">
        <ele>209.2</ele>
        <time>2022-08-06T13:34:04Z</time>
      </trkpt>
      <trkpt lat="44.89836" lon="1.82579">
        <ele>209.2</ele>
        <time>2022-08-06T13:34:08Z</time>
      </trkpt>
      <trkpt lat="44.89836" lon="1.82579">
        <ele>209.2</ele>
        <time>2022-08-06T13:34:12Z</time>
      </trkpt>
      <trkpt lat="44.89836" lon="1.82579">
        <ele>209.2</ele>
        <time>2022-08-06T13:34:16Z</time>
      </trkpt>
      <trkpt lat="44.89836" lon="1.82579">
        <ele>209.2</ele>
        <time>2022-08-06T13:34:20Z</time>
      </trkpt>
      <trkpt lat="44.89836" lon="1.82579">
        <ele>209.2</ele>
        <time>2022-08-06T13:34:24Z</time>
      </trkpt>
      <trkpt lat="44.89836" lon="1.82579">
        <ele>209.2</ele>
        <time>2022-08-06T13:34:28Z</time>
      </trkpt>
      <trkpt lat="44.89836" lon="1.82579">
        <ele>209.2</ele>
        <time>2022-08-06T13:34:32Z</time>
      </trkpt>
      <trkpt lat="44.89836" lon="1.82579">
        <ele>209.2</ele>
        <time>2022-08-06T13:34:36Z</time>
      </trkpt>
      <trkpt lat="44.89836" lon="1.82579">
        <ele>209.2</ele>
        <time>2022-08-06T13:34:40Z</time>
      </trkpt>
      <trkpt lat="44.89836" lon="1.82579">
        <ele>209.2</ele>
        <time>2022-08-06T13:34:44Z</time>
      </trkpt>
      <trkpt lat="44.89836" lon="1.82579">
        <ele>209.2</ele>
        <time>2022-08-06T13:34:48Z</time>
      </trkpt>
      <trkpt lat="44.89836" lon="1.82579">
        <ele>209.2</ele>
        <time>2022-08-06T13:34:52Z</time>
      </trkpt>
      <trkpt lat="44.89836" lon="1.82579">
        <ele>209.2</ele>
        <time>2022-08-06T13:34:56Z</time>
      </trkpt>
      <trkpt lat="44.89836" lon="1.82579">
        <ele>209.2</ele>
        <time>2022-08-06T13:35:00Z</time>
      </trkpt>
      <trkpt lat="44.89836" lon="1.82579">
        <ele>209.2</ele>
        <time>2022-08-06T13:35:04Z</time>
      </trkpt>
      <trkpt lat="44.89836" lon="1.82579">
        <ele>209.2</ele>
        <time>2022-08-06T13:35:08Z</time>
      </trkpt>
      <trkpt lat="44.89836" lon="1.82579">
        <ele>209.2</ele>
        <time>2022-08-06T13:35:12Z</time>
      </trkpt>
      <trkpt lat="44.89836" lon="1.82579">
        <ele>209.2</ele>
        <time>2022-08-06T13:35:16Z</time>
      </trkpt>
      <trkpt lat="44.89835" lon="1.8258">
        <ele>209</ele>
        <time>2022-08-06T13:35:20Z</time>
      </trkpt>
      <trkpt lat="44.89835" lon="1.8258">
        <ele>209</ele>
        <time>2022-08-06T13:35:22Z</time>
      </trkpt>
      <trkpt lat="44.89835" lon="1.8258">
        <ele>209.1</ele>
        <time>2022-08-06T13:35:24Z</time>
      </trkpt>
      <trkpt lat="44.89835" lon="1.8258">
        <ele>209.1</ele>
        <time>2022-08-06T13:35:26Z</time>
      </trkpt>
      <trkpt lat="44.89835" lon="1.8258">
        <ele>209.1</ele>
        <time>2022-08-06T13:35:28Z</time>
      </trkpt>
      <trkpt lat="44.89835" lon="1.8258">
        <ele>209.1</ele>
        <time>2022-08-06T13:35:32Z</time>
      </trkpt>
      <trkpt lat="44.89835" lon="1.8258">
        <ele>209.1</ele>
        <time>2022-08-06T13:35:36Z</time>
      </trkpt>
      <trkpt lat="44.89835" lon="1.8258">
        <ele>209.1</ele>
        <time>2022-08-06T13:35:40Z</time>
      </trkpt>
      <trkpt lat="44.89835" lon="1.8258">
        <ele>209.1</ele>
        <time>2022-08-06T13:35:44Z</time>
      </trkpt>
      <trkpt lat="44.89835" lon="1.8258">
        <ele>209.1</ele>
        <time>2022-08-06T13:35:48Z</time>
      </trkpt>
      <trkpt lat="44.89835" lon="1.8258">
        <ele>209.1</ele>
        <time>2022-08-06T13:35:52Z</time>
      </trkpt>
      <trkpt lat="44.89835" lon="1.8258">
        <ele>209.1</ele>
        <time>2022-08-06T13:35:56Z</time>
      </trkpt>
      <trkpt lat="44.89835" lon="1.8258">
        <ele>209.1</ele>
        <time>2022-08-06T13:36:00Z</time>
      </trkpt>
      <trkpt lat="44.89835" lon="1.8258">
        <ele>209.1</ele>
        <time>2022-08-06T13:36:04Z</time>
      </trkpt>
      <trkpt lat="44.89835" lon="1.8258">
        <ele>209.1</ele>
        <time>2022-08-06T13:36:08Z</time>
      </trkpt>
      <trkpt lat="44.89835" lon="1.8258">
        <ele>209.1</ele>
        <time>2022-08-06T13:36:12Z</time>
      </trkpt>
      <trkpt lat="44.89835" lon="1.8258">
        <ele>209.1</ele>
        <time>2022-08-06T13:36:16Z</time>
      </trkpt>
      <trkpt lat="44.89835" lon="1.8258">
        <ele>209.1</ele>
        <time>2022-08-06T13:36:20Z</time>
      </trkpt>
      <trkpt lat="44.89835" lon="1.8258">
        <ele>209.1</ele>
        <time>2022-08-06T13:36:24Z</time>
      </trkpt>
      <trkpt lat="44.89835" lon="1.8258">
        <ele>209.1</ele>
        <time>2022-08-06T13:36:28Z</time>
      </trkpt>
      <trkpt lat="44.89835" lon="1.8258">
        <ele>209.1</ele>
        <time>2022-08-06T13:36:32Z</time>
      </trkpt>
      <trkpt lat="44.89835" lon="1.8258">
        <ele>209.1</ele>
        <time>2022-08-06T13:36:36Z</time>
      </trkpt>
      <trkpt lat="44.89835" lon="1.8258">
        <ele>209.1</ele>
        <time>2022-08-06T13:36:40Z</time>
      </trkpt>
      <trkpt lat="44.89835" lon="1.8258">
        <ele>209.1</ele>
        <time>2022-08-06T13:36:44Z</time>
      </trkpt>
      <trkpt lat="44.89835" lon="1.8258">
        <ele>209.1</ele>
        <time>2022-08-06T13:36:48Z</time>
      </trkpt>
      <trkpt lat="44.89835" lon="1.8258">
        <ele>209.1</ele>
        <time>2022-08-06T13:36:52Z</time>
      </trkpt>
      <trkpt lat="44.89835" lon="1.8258">
        <ele>209.1</ele>
        <time>2022-08-06T13:36:56Z</time>
      </trkpt>
      <trkpt lat="44.89835" lon="1.8258">
        <ele>209.1</ele>
        <time>2022-08-06T13:37:00Z</time>
      </trkpt>
      <trkpt lat="44.89835" lon="1.8258">
        <ele>209.1</ele>
        <time>2022-08-06T13:37:04Z</time>
      </trkpt>
      <trkpt lat="44.89835" lon="1.8258">
        <ele>209.1</ele>
        <time>2022-08-06T13:37:08Z</time>
      </trkpt>
      <trkpt lat="44.89835" lon="1.8258">
        <ele>209.1</ele>
        <time>2022-08-06T13:37:12Z</time>
      </trkpt>
      <trkpt lat="44.89835" lon="1.8258">
        <ele>209.1</ele>
        <time>2022-08-06T13:37:16Z</time>
      </trkpt>
      <trkpt lat="44.89835" lon="1.8258">
        <ele>209.1</ele>
        <time>2022-08-06T13:37:20Z</time>
      </trkpt>
      <trkpt lat="44.89835" lon="1.8258">
        <ele>209.1</ele>
        <time>2022-08-06T13:37:24Z</time>
      </trkpt>
      <trkpt lat="44.89835" lon="1.8258">
        <ele>209.1</ele>
        <time>2022-08-06T13:37:28Z</time>
      </trkpt>
      <trkpt lat="44.89835" lon="1.8258">
        <ele>209.1</ele>
        <time>2022-08-06T13:37:32Z</time>
      </trkpt>
      <trkpt lat="44.89835" lon="1.8258">
        <ele>209.1</ele>
        <time>2022-08-06T13:37:36Z</time>
      </trkpt>
      <trkpt lat="44.89835" lon="1.8258">
        <ele>209.1</ele>
        <time>2022-08-06T13:37:40Z</time>
      </trkpt>
      <trkpt lat="44.89835" lon="1.8258">
        <ele>209.1</ele>
        <time>2022-08-06T13:37:44Z</time>
      </trkpt>
      <trkpt lat="44.89835" lon="1.8258">
        <ele>209.1</ele>
        <time>2022-08-06T13:37:48Z</time>
      </trkpt>
      <trkpt lat="44.89835" lon="1.8258">
        <ele>209.1</ele>
        <time>2022-08-06T13:37:52Z</time>
      </trkpt>
      <trkpt lat="44.89835" lon="1.8258">
        <ele>209.1</ele>
        <time>2022-08-06T13:37:56Z</time>
      </trkpt>
      <trkpt lat="44.89835" lon="1.8258">
        <ele>209.1</ele>
        <time>2022-08-06T13:38:00Z</time>
      </trkpt>
      <trkpt lat="44.89835" lon="1.8258">
        <ele>209.1</ele>
        <time>2022-08-06T13:38:04Z</time>
      </trkpt>
      <trkpt lat="44.89835" lon="1.8258">
        <ele>209.1</ele>
        <time>2022-08-06T13:38:08Z</time>
      </trkpt>
      <trkpt lat="44.89835" lon="1.8258">
        <ele>209.1</ele>
        <time>2022-08-06T13:38:12Z</time>
      </trkpt>
      <trkpt lat="44.89835" lon="1.8258">
        <ele>209.1</ele>
        <time>2022-08-06T13:38:16Z</time>
      </trkpt>
      <trkpt lat="44.89835" lon="1.8258">
        <ele>209.1</ele>
        <time>2022-08-06T13:38:20Z</time>
      </trkpt>
      <trkpt lat="44.89835" lon="1.8258">
        <ele>209.1</ele>
        <time>2022-08-06T13:38:24Z</time>
      </trkpt>
      <trkpt lat="44.89835" lon="1.8258">
        <ele>209.1</ele>
        <time>2022-08-06T13:38:28Z</time>
      </trkpt>
      <trkpt lat="44.89835" lon="1.8258">
        <ele>209.1</ele>
        <time>2022-08-06T13:38:32Z</time>
      </trkpt>
      <trkpt lat="44.89835" lon="1.8258">
        <ele>209.1</ele>
        <time>2022-08-06T13:38:36Z</time>
      </trkpt>
      <trkpt lat="44.89835" lon="1.8258">
        <ele>209.1</ele>
        <time>2022-08-06T13:38:40Z</time>
      </trkpt>
      <trkpt lat="44.89835" lon="1.8258">
        <ele>209.1</ele>
        <time>2022-08-06T13:38:44Z</time>
      </trkpt>
      <trkpt lat="44.89835" lon="1.8258">
        <ele>209.1</ele>
        <time>2022-08-06T13:38:48Z</time>
      </trkpt>
      <trkpt lat="44.89835" lon="1.8258">
        <ele>209.1</ele>
        <time>2022-08-06T13:38:52Z</time>
      </trkpt>
      <trkpt lat="44.89835" lon="1.8258">
        <ele>209.1</ele>
        <time>2022-08-06T13:38:56Z</time>
      </trkpt>
      <trkpt lat="44.89835" lon="1.8258">
        <ele>209.1</ele>
        <time>2022-08-06T13:39:00Z</time>
      </trkpt>
      <trkpt lat="44.89835" lon="1.8258">
        <ele>209.1</ele>
        <time>2022-08-06T13:39:04Z</time>
      </trkpt>
      <trkpt lat="44.89835" lon="1.8258">
        <ele>209.1</ele>
        <time>2022-08-06T13:39:08Z</time>
      </trkpt>
      <trkpt lat="44.89835" lon="1.8258">
        <ele>209.1</ele>
        <time>2022-08-06T13:39:12Z</time>
      </trkpt>
      <trkpt lat="44.89835" lon="1.8258">
        <ele>209.1</ele>
        <time>2022-08-06T13:39:16Z</time>
      </trkpt>
      <trkpt lat="44.89835" lon="1.8258">
        <ele>209.1</ele>
        <time>2022-08-06T13:39:20Z</time>
      </trkpt>
      <trkpt lat="44.89835" lon="1.8258">
        <ele>209.1</ele>
        <time>2022-08-06T13:39:24Z</time>
      </trkpt>
      <trkpt lat="44.89835" lon="1.8258">
        <ele>209.1</ele>
        <time>2022-08-06T13:39:28Z</time>
      </trkpt>
      <trkpt lat="44.89835" lon="1.8258">
        <ele>209.1</ele>
        <time>2022-08-06T13:39:32Z</time>
      </trkpt>
      <trkpt lat="44.89835" lon="1.8258">
        <ele>209.1</ele>
        <time>2022-08-06T13:39:36Z</time>
      </trkpt>
      <trkpt lat="44.89835" lon="1.8258">
        <ele>209.1</ele>
        <time>2022-08-06T13:39:40Z</time>
      </trkpt>
      <trkpt lat="44.89835" lon="1.8258">
        <ele>209.1</ele>
        <time>2022-08-06T13:39:44Z</time>
      </trkpt>
      <trkpt lat="44.89835" lon="1.8258">
        <ele>209.1</ele>
        <time>2022-08-06T13:39:48Z</time>
      </trkpt>
      <trkpt lat="44.89835" lon="1.8258">
        <ele>209.1</ele>
        <time>2022-08-06T13:39:52Z</time>
      </trkpt>
      <trkpt lat="44.89835" lon="1.8258">
        <ele>209.1</ele>
        <time>2022-08-06T13:39:56Z</time>
      </trkpt>
      <trkpt lat="44.89835" lon="1.8258">
        <ele>209.1</ele>
        <time>2022-08-06T13:40:00Z</time>
      </trkpt>
      <trkpt lat="44.89835" lon="1.8258">
        <ele>209.1</ele>
        <time>2022-08-06T13:40:04Z</time>
      </trkpt>
      <trkpt lat="44.89835" lon="1.8258">
        <ele>209.1</ele>
        <time>2022-08-06T13:40:08Z</time>
      </trkpt>
      <trkpt lat="44.89835" lon="1.8258">
        <ele>209.1</ele>
        <time>2022-08-06T13:40:12Z</time>
      </trkpt>
      <trkpt lat="44.89835" lon="1.8258">
        <ele>209.1</ele>
        <time>2022-08-06T13:40:16Z</time>
      </trkpt>
      <trkpt lat="44.89835" lon="1.8258">
        <ele>209.1</ele>
        <time>2022-08-06T13:40:20Z</time>
      </trkpt>
      <trkpt lat="44.89835" lon="1.8258">
        <ele>209.1</ele>
        <time>2022-08-06T13:40:24Z</time>
      </trkpt>
      <trkpt lat="44.89835" lon="1.8258">
        <ele>209.1</ele>
        <time>2022-08-06T13:40:28Z</time>
      </trkpt>
      <trkpt lat="44.89835" lon="1.8258">
        <ele>209.1</ele>
        <time>2022-08-06T13:40:32Z</time>
      </trkpt>
      <trkpt lat="44.89835" lon="1.8258">
        <ele>209.1</ele>
        <time>2022-08-06T13:40:36Z</time>
      </trkpt>
      <trkpt lat="44.89835" lon="1.8258">
        <ele>209.1</ele>
        <time>2022-08-06T13:40:40Z</time>
      </trkpt>
      <trkpt lat="44.89835" lon="1.8258">
        <ele>209.1</ele>
        <time>2022-08-06T13:40:44Z</time>
      </trkpt>
      <trkpt lat="44.89835" lon="1.8258">
        <ele>209.1</ele>
        <time>2022-08-06T13:40:48Z</time>
      </trkpt>
      <trkpt lat="44.89835" lon="1.8258">
        <ele>209.1</ele>
        <time>2022-08-06T13:40:52Z</time>
      </trkpt>
      <trkpt lat="44.89835" lon="1.8258">
        <ele>209.1</ele>
        <time>2022-08-06T13:40:56Z</time>
      </trkpt>
      <trkpt lat="44.89835" lon="1.8258">
        <ele>209.1</ele>
        <time>2022-08-06T13:41:00Z</time>
      </trkpt>
      <trkpt lat="44.89835" lon="1.8258">
        <ele>209.1</ele>
        <time>2022-08-06T13:41:04Z</time>
      </trkpt>
      <trkpt lat="44.89835" lon="1.8258">
        <ele>209.1</ele>
        <time>2022-08-06T13:41:08Z</time>
      </trkpt>
      <trkpt lat="44.89835" lon="1.8258">
        <ele>209.1</ele>
        <time>2022-08-06T13:41:12Z</time>
      </trkpt>
      <trkpt lat="44.89835" lon="1.8258">
        <ele>209.1</ele>
        <time>2022-08-06T13:41:16Z</time>
      </trkpt>
      <trkpt lat="44.89835" lon="1.8258">
        <ele>209.1</ele>
        <time>2022-08-06T13:41:20Z</time>
      </trkpt>
      <trkpt lat="44.89835" lon="1.8258">
        <ele>209.1</ele>
        <time>2022-08-06T13:41:24Z</time>
      </trkpt>
      <trkpt lat="44.89835" lon="1.8258">
        <ele>209.1</ele>
        <time>2022-08-06T13:41:28Z</time>
      </trkpt>
      <trkpt lat="44.89835" lon="1.8258">
        <ele>209.1</ele>
        <time>2022-08-06T13:41:32Z</time>
      </trkpt>
      <trkpt lat="44.89835" lon="1.8258">
        <ele>209.1</ele>
        <time>2022-08-06T13:41:36Z</time>
      </trkpt>
      <trkpt lat="44.89835" lon="1.8258">
        <ele>209.1</ele>
        <time>2022-08-06T13:41:40Z</time>
      </trkpt>
      <trkpt lat="44.89835" lon="1.8258">
        <ele>209.1</ele>
        <time>2022-08-06T13:41:44Z</time>
      </trkpt>
      <trkpt lat="44.89835" lon="1.8258">
        <ele>209.1</ele>
        <time>2022-08-06T13:41:48Z</time>
      </trkpt>
      <trkpt lat="44.89835" lon="1.8258">
        <ele>209.1</ele>
        <time>2022-08-06T13:41:52Z</time>
      </trkpt>
      <trkpt lat="44.89835" lon="1.8258">
        <ele>209.1</ele>
        <time>2022-08-06T13:41:56Z</time>
      </trkpt>
      <trkpt lat="44.89835" lon="1.8258">
        <ele>209.1</ele>
        <time>2022-08-06T13:42:00Z</time>
      </trkpt>
      <trkpt lat="44.89835" lon="1.8258">
        <ele>209.1</ele>
        <time>2022-08-06T13:42:04Z</time>
      </trkpt>
      <trkpt lat="44.89835" lon="1.8258">
        <ele>209.1</ele>
        <time>2022-08-06T13:42:08Z</time>
      </trkpt>
      <trkpt lat="44.89835" lon="1.8258">
        <ele>209.1</ele>
        <time>2022-08-06T13:42:12Z</time>
      </trkpt>
      <trkpt lat="44.89835" lon="1.8258">
        <ele>209.1</ele>
        <time>2022-08-06T13:42:16Z</time>
      </trkpt>
      <trkpt lat="44.89835" lon="1.8258">
        <ele>209.1</ele>
        <time>2022-08-06T13:42:20Z</time>
      </trkpt>
      <trkpt lat="44.89835" lon="1.8258">
        <ele>209.1</ele>
        <time>2022-08-06T13:42:24Z</time>
      </trkpt>
      <trkpt lat="44.89835" lon="1.8258">
        <ele>209.1</ele>
        <time>2022-08-06T13:42:28Z</time>
      </trkpt>
      <trkpt lat="44.89835" lon="1.8258">
        <ele>209.1</ele>
        <time>2022-08-06T13:42:32Z</time>
      </trkpt>
      <trkpt lat="44.89835" lon="1.8258">
        <ele>209.1</ele>
        <time>2022-08-06T13:42:36Z</time>
      </trkpt>
      <trkpt lat="44.89835" lon="1.8258">
        <ele>209.1</ele>
        <time>2022-08-06T13:42:40Z</time>
      </trkpt>
      <trkpt lat="44.89835" lon="1.8258">
        <ele>209.1</ele>
        <time>2022-08-06T13:42:44Z</time>
      </trkpt>
      <trkpt lat="44.89835" lon="1.8258">
        <ele>209.1</ele>
        <time>2022-08-06T13:42:48Z</time>
      </trkpt>
      <trkpt lat="44.89835" lon="1.8258">
        <ele>209.1</ele>
        <time>2022-08-06T13:42:52Z</time>
      </trkpt>
      <trkpt lat="44.89835" lon="1.8258">
        <ele>209.1</ele>
        <time>2022-08-06T13:42:56Z</time>
      </trkpt>
      <trkpt lat="44.89835" lon="1.8258">
        <ele>209.1</ele>
        <time>2022-08-06T13:43:00Z</time>
      </trkpt>
      <trkpt lat="44.89835" lon="1.8258">
        <ele>209.1</ele>
        <time>2022-08-06T13:43:04Z</time>
      </trkpt>
      <trkpt lat="44.89835" lon="1.8258">
        <ele>209.1</ele>
        <time>2022-08-06T13:43:08Z</time>
      </trkpt>
      <trkpt lat="44.89835" lon="1.8258">
        <ele>209.1</ele>
        <time>2022-08-06T13:43:12Z</time>
      </trkpt>
      <trkpt lat="44.89835" lon="1.8258">
        <ele>209.1</ele>
        <time>2022-08-06T13:43:16Z</time>
      </trkpt>
      <trkpt lat="44.89835" lon="1.8258">
        <ele>209.1</ele>
        <time>2022-08-06T13:43:20Z</time>
      </trkpt>
      <trkpt lat="44.89835" lon="1.8258">
        <ele>209.1</ele>
        <time>2022-08-06T13:43:24Z</time>
      </trkpt>
      <trkpt lat="44.89835" lon="1.8258">
        <ele>209.1</ele>
        <time>2022-08-06T13:43:28Z</time>
      </trkpt>
      <trkpt lat="44.89835" lon="1.8258">
        <ele>209.1</ele>
        <time>2022-08-06T13:43:32Z</time>
      </trkpt>
      <trkpt lat="44.89835" lon="1.8258">
        <ele>209.1</ele>
        <time>2022-08-06T13:43:36Z</time>
      </trkpt>
      <trkpt lat="44.89835" lon="1.8258">
        <ele>209.1</ele>
        <time>2022-08-06T13:43:40Z</time>
      </trkpt>
      <trkpt lat="44.89835" lon="1.8258">
        <ele>209.1</ele>
        <time>2022-08-06T13:43:44Z</time>
      </trkpt>
      <trkpt lat="44.89835" lon="1.8258">
        <ele>209.1</ele>
        <time>2022-08-06T13:43:48Z</time>
      </trkpt>
      <trkpt lat="44.89835" lon="1.8258">
        <ele>209.1</ele>
        <time>2022-08-06T13:43:52Z</time>
      </trkpt>
      <trkpt lat="44.89835" lon="1.8258">
        <ele>209.1</ele>
        <time>2022-08-06T13:43:56Z</time>
      </trkpt>
      <trkpt lat="44.89835" lon="1.8258">
        <ele>209.1</ele>
        <time>2022-08-06T13:44:00Z</time>
      </trkpt>
      <trkpt lat="44.89835" lon="1.8258">
        <ele>209.1</ele>
        <time>2022-08-06T13:44:04Z</time>
      </trkpt>
      <trkpt lat="44.89835" lon="1.8258">
        <ele>209.1</ele>
        <time>2022-08-06T13:44:08Z</time>
      </trkpt>
      <trkpt lat="44.89835" lon="1.8258">
        <ele>209.1</ele>
        <time>2022-08-06T13:44:12Z</time>
      </trkpt>
      <trkpt lat="44.89835" lon="1.8258">
        <ele>209.1</ele>
        <time>2022-08-06T13:44:16Z</time>
      </trkpt>
      <trkpt lat="44.89835" lon="1.8258">
        <ele>209.1</ele>
        <time>2022-08-06T13:44:20Z</time>
      </trkpt>
      <trkpt lat="44.89835" lon="1.8258">
        <ele>209.1</ele>
        <time>2022-08-06T13:44:24Z</time>
      </trkpt>
      <trkpt lat="44.89835" lon="1.8258">
        <ele>209.1</ele>
        <time>2022-08-06T13:44:28Z</time>
      </trkpt>
      <trkpt lat="44.89835" lon="1.8258">
        <ele>209.1</ele>
        <time>2022-08-06T13:44:32Z</time>
      </trkpt>
      <trkpt lat="44.89835" lon="1.8258">
        <ele>209.1</ele>
        <time>2022-08-06T13:44:36Z</time>
      </trkpt>
      <trkpt lat="44.89835" lon="1.8258">
        <ele>209.1</ele>
        <time>2022-08-06T13:44:40Z</time>
      </trkpt>
      <trkpt lat="44.89835" lon="1.8258">
        <ele>209.1</ele>
        <time>2022-08-06T13:44:44Z</time>
      </trkpt>
      <trkpt lat="44.89835" lon="1.8258">
        <ele>209.1</ele>
        <time>2022-08-06T13:44:48Z</time>
      </trkpt>
      <trkpt lat="44.89835" lon="1.8258">
        <ele>209.1</ele>
        <time>2022-08-06T13:44:52Z</time>
      </trkpt>
      <trkpt lat="44.89835" lon="1.8258">
        <ele>209.1</ele>
        <time>2022-08-06T13:44:56Z</time>
      </trkpt>
      <trkpt lat="44.89835" lon="1.8258">
        <ele>209.1</ele>
        <time>2022-08-06T13:45:00Z</time>
      </trkpt>
      <trkpt lat="44.89835" lon="1.8258">
        <ele>209.1</ele>
        <time>2022-08-06T13:45:04Z</time>
      </trkpt>
      <trkpt lat="44.89835" lon="1.8258">
        <ele>209.1</ele>
        <time>2022-08-06T13:45:08Z</time>
      </trkpt>
      <trkpt lat="44.89835" lon="1.8258">
        <ele>209.1</ele>
        <time>2022-08-06T13:45:12Z</time>
      </trkpt>
      <trkpt lat="44.89835" lon="1.8258">
        <ele>209.1</ele>
        <time>2022-08-06T13:45:16Z</time>
      </trkpt>
      <trkpt lat="44.89835" lon="1.8258">
        <ele>209.1</ele>
        <time>2022-08-06T13:45:20Z</time>
      </trkpt>
      <trkpt lat="44.89835" lon="1.8258">
        <ele>209.1</ele>
        <time>2022-08-06T13:45:24Z</time>
      </trkpt>
      <trkpt lat="44.89835" lon="1.8258">
        <ele>209.1</ele>
        <time>2022-08-06T13:45:28Z</time>
      </trkpt>
      <trkpt lat="44.89835" lon="1.8258">
        <ele>209.1</ele>
        <time>2022-08-06T13:45:32Z</time>
      </trkpt>
      <trkpt lat="44.89835" lon="1.8258">
        <ele>209.1</ele>
        <time>2022-08-06T13:45:36Z</time>
      </trkpt>
      <trkpt lat="44.89835" lon="1.8258">
        <ele>209.1</ele>
        <time>2022-08-06T13:45:40Z</time>
      </trkpt>
      <trkpt lat="44.89835" lon="1.8258">
        <ele>209.1</ele>
        <time>2022-08-06T13:45:44Z</time>
      </trkpt>
      <trkpt lat="44.89835" lon="1.8258">
        <ele>209.1</ele>
        <time>2022-08-06T13:45:48Z</time>
      </trkpt>
      <trkpt lat="44.89835" lon="1.8258">
        <ele>209.1</ele>
        <time>2022-08-06T13:45:52Z</time>
      </trkpt>
      <trkpt lat="44.89835" lon="1.8258">
        <ele>209.1</ele>
        <time>2022-08-06T13:45:56Z</time>
      </trkpt>
      <trkpt lat="44.89835" lon="1.8258">
        <ele>209.1</ele>
        <time>2022-08-06T13:46:00Z</time>
      </trkpt>
      <trkpt lat="44.89835" lon="1.8258">
        <ele>209.1</ele>
        <time>2022-08-06T13:46:04Z</time>
      </trkpt>
      <trkpt lat="44.89835" lon="1.8258">
        <ele>209.1</ele>
        <time>2022-08-06T13:46:08Z</time>
      </trkpt>
      <trkpt lat="44.89835" lon="1.8258">
        <ele>209.1</ele>
        <time>2022-08-06T13:46:12Z</time>
      </trkpt>
      <trkpt lat="44.89835" lon="1.8258">
        <ele>209.1</ele>
        <time>2022-08-06T13:46:16Z</time>
      </trkpt>
      <trkpt lat="44.89835" lon="1.8258">
        <ele>209.1</ele>
        <time>2022-08-06T13:46:20Z</time>
      </trkpt>
      <trkpt lat="44.89835" lon="1.8258">
        <ele>209.1</ele>
        <time>2022-08-06T13:46:24Z</time>
      </trkpt>
      <trkpt lat="44.89835" lon="1.8258">
        <ele>209.1</ele>
        <time>2022-08-06T13:46:28Z</time>
      </trkpt>
      <trkpt lat="44.89835" lon="1.8258">
        <ele>209.1</ele>
        <time>2022-08-06T13:46:32Z</time>
      </trkpt>
      <trkpt lat="44.89835" lon="1.8258">
        <ele>209.1</ele>
        <time>2022-08-06T13:46:36Z</time>
      </trkpt>
      <trkpt lat="44.89835" lon="1.8258">
        <ele>209.1</ele>
        <time>2022-08-06T13:46:40Z</time>
      </trkpt>
      <trkpt lat="44.89835" lon="1.8258">
        <ele>209.1</ele>
        <time>2022-08-06T13:46:44Z</time>
      </trkpt>
      <trkpt lat="44.89835" lon="1.8258">
        <ele>209.1</ele>
        <time>2022-08-06T13:46:48Z</time>
      </trkpt>
      <trkpt lat="44.89835" lon="1.8258">
        <ele>209.1</ele>
        <time>2022-08-06T13:46:52Z</time>
      </trkpt>
      <trkpt lat="44.89835" lon="1.8258">
        <ele>209.1</ele>
        <time>2022-08-06T13:46:56Z</time>
      </trkpt>
      <trkpt lat="44.89835" lon="1.8258">
        <ele>209.1</ele>
        <time>2022-08-06T13:47:00Z</time>
      </trkpt>
      <trkpt lat="44.89835" lon="1.8258">
        <ele>209.1</ele>
        <time>2022-08-06T13:47:04Z</time>
      </trkpt>
      <trkpt lat="44.89835" lon="1.8258">
        <ele>209.1</ele>
        <time>2022-08-06T13:47:08Z</time>
      </trkpt>
      <trkpt lat="44.89835" lon="1.8258">
        <ele>209.1</ele>
        <time>2022-08-06T13:47:12Z</time>
      </trkpt>
      <trkpt lat="44.89835" lon="1.8258">
        <ele>209.1</ele>
        <time>2022-08-06T13:47:16Z</time>
      </trkpt>
      <trkpt lat="44.89835" lon="1.8258">
        <ele>209.1</ele>
        <time>2022-08-06T13:47:20Z</time>
      </trkpt>
      <trkpt lat="44.89835" lon="1.8258">
        <ele>209.1</ele>
        <time>2022-08-06T13:47:24Z</time>
      </trkpt>
      <trkpt lat="44.89835" lon="1.8258">
        <ele>209.1</ele>
        <time>2022-08-06T13:47:28Z</time>
      </trkpt>
      <trkpt lat="44.89835" lon="1.8258">
        <ele>209.1</ele>
        <time>2022-08-06T13:47:32Z</time>
      </trkpt>
      <trkpt lat="44.89835" lon="1.8258">
        <ele>209.1</ele>
        <time>2022-08-06T13:47:36Z</time>
      </trkpt>
      <trkpt lat="44.89835" lon="1.82579">
        <ele>209.1</ele>
        <time>2022-08-06T13:47:40Z</time>
      </trkpt>
      <trkpt lat="44.89833" lon="1.82578">
        <ele>208.7</ele>
        <time>2022-08-06T13:47:42Z</time>
      </trkpt>
      <trkpt lat="44.89835" lon="1.82579">
        <ele>209</ele>
        <time>2022-08-06T13:47:44Z</time>
      </trkpt>
      <trkpt lat="44.89835" lon="1.82579">
        <ele>209</ele>
        <time>2022-08-06T13:47:46Z</time>
      </trkpt>
      <trkpt lat="44.89835" lon="1.82579">
        <ele>209</ele>
        <time>2022-08-06T13:47:48Z</time>
      </trkpt>
      <trkpt lat="44.89835" lon="1.82579">
        <ele>209</ele>
        <time>2022-08-06T13:47:50Z</time>
      </trkpt>
      <trkpt lat="44.89835" lon="1.82579">
        <ele>209</ele>
        <time>2022-08-06T13:47:52Z</time>
      </trkpt>
      <trkpt lat="44.89835" lon="1.82579">
        <ele>209</ele>
        <time>2022-08-06T13:47:54Z</time>
      </trkpt>
      <trkpt lat="44.89835" lon="1.82579">
        <ele>209.1</ele>
        <time>2022-08-06T13:47:58Z</time>
      </trkpt>
      <trkpt lat="44.89835" lon="1.82579">
        <ele>209.1</ele>
        <time>2022-08-06T13:48:00Z</time>
      </trkpt>
      <trkpt lat="44.89835" lon="1.82579">
        <ele>209.1</ele>
        <time>2022-08-06T13:48:02Z</time>
      </trkpt>
      <trkpt lat="44.89835" lon="1.82579">
        <ele>209.1</ele>
        <time>2022-08-06T13:48:04Z</time>
      </trkpt>
      <trkpt lat="44.89835" lon="1.82579">
        <ele>209.1</ele>
        <time>2022-08-06T13:48:06Z</time>
      </trkpt>
      <trkpt lat="44.89835" lon="1.82579">
        <ele>209.1</ele>
        <time>2022-08-06T13:48:08Z</time>
      </trkpt>
      <trkpt lat="44.89835" lon="1.82579">
        <ele>209.1</ele>
        <time>2022-08-06T13:48:10Z</time>
      </trkpt>
      <trkpt lat="44.89835" lon="1.82579">
        <ele>209</ele>
        <time>2022-08-06T13:48:12Z</time>
      </trkpt>
      <trkpt lat="44.89835" lon="1.82579">
        <ele>209.1</ele>
        <time>2022-08-06T13:48:14Z</time>
      </trkpt>
      <trkpt lat="44.89835" lon="1.82579">
        <ele>209.1</ele>
        <time>2022-08-06T13:48:16Z</time>
      </trkpt>
      <trkpt lat="44.89835" lon="1.82579">
        <ele>209</ele>
        <time>2022-08-06T13:48:18Z</time>
      </trkpt>
      <trkpt lat="44.89835" lon="1.82579">
        <ele>209</ele>
        <time>2022-08-06T13:48:20Z</time>
      </trkpt>
      <trkpt lat="44.89835" lon="1.82579">
        <ele>209</ele>
        <time>2022-08-06T13:48:22Z</time>
      </trkpt>
      <trkpt lat="44.89835" lon="1.82579">
        <ele>209</ele>
        <time>2022-08-06T13:48:24Z</time>
      </trkpt>
      <trkpt lat="44.89835" lon="1.82579">
        <ele>209</ele>
        <time>2022-08-06T13:48:26Z</time>
      </trkpt>
      <trkpt lat="44.89835" lon="1.82579">
        <ele>209</ele>
        <time>2022-08-06T13:48:28Z</time>
      </trkpt>
      <trkpt lat="44.89835" lon="1.82579">
        <ele>209</ele>
        <time>2022-08-06T13:48:30Z</time>
      </trkpt>
      <trkpt lat="44.89835" lon="1.82579">
        <ele>209</ele>
        <time>2022-08-06T13:48:32Z</time>
      </trkpt>
      <trkpt lat="44.89835" lon="1.82579">
        <ele>209</ele>
        <time>2022-08-06T13:48:34Z</time>
      </trkpt>
      <trkpt lat="44.89835" lon="1.82579">
        <ele>209</ele>
        <time>2022-08-06T13:48:36Z</time>
      </trkpt>
      <trkpt lat="44.89835" lon="1.82579">
        <ele>209</ele>
        <time>2022-08-06T13:48:38Z</time>
      </trkpt>
      <trkpt lat="44.89835" lon="1.82579">
        <ele>209.1</ele>
        <time>2022-08-06T13:48:40Z</time>
      </trkpt>
      <trkpt lat="44.89835" lon="1.82579">
        <ele>209.1</ele>
        <time>2022-08-06T13:48:42Z</time>
      </trkpt>
      <trkpt lat="44.89835" lon="1.82579">
        <ele>209.1</ele>
        <time>2022-08-06T13:48:44Z</time>
      </trkpt>
      <trkpt lat="44.89835" lon="1.82579">
        <ele>209.1</ele>
        <time>2022-08-06T13:48:46Z</time>
      </trkpt>
      <trkpt lat="44.89835" lon="1.8258">
        <ele>209.1</ele>
        <time>2022-08-06T13:48:48Z</time>
      </trkpt>
      <trkpt lat="44.89836" lon="1.8258">
        <ele>209.2</ele>
        <time>2022-08-06T13:48:50Z</time>
      </trkpt>
      <trkpt lat="44.89836" lon="1.8258">
        <ele>209.2</ele>
        <time>2022-08-06T13:48:52Z</time>
      </trkpt>
      <trkpt lat="44.89836" lon="1.82579">
        <ele>209.2</ele>
        <time>2022-08-06T13:48:54Z</time>
      </trkpt>
      <trkpt lat="44.89836" lon="1.82579">
        <ele>209.2</ele>
        <time>2022-08-06T13:48:56Z</time>
      </trkpt>
      <trkpt lat="44.89836" lon="1.82579">
        <ele>209.2</ele>
        <time>2022-08-06T13:48:58Z</time>
      </trkpt>
      <trkpt lat="44.89836" lon="1.82579">
        <ele>209.3</ele>
        <time>2022-08-06T13:49:00Z</time>
      </trkpt>
      <trkpt lat="44.89836" lon="1.82579">
        <ele>209.2</ele>
        <time>2022-08-06T13:49:02Z</time>
      </trkpt>
      <trkpt lat="44.89836" lon="1.8258">
        <ele>209.2</ele>
        <time>2022-08-06T13:49:04Z</time>
      </trkpt>
      <trkpt lat="44.89835" lon="1.8258">
        <ele>209.2</ele>
        <time>2022-08-06T13:49:06Z</time>
      </trkpt>
      <trkpt lat="44.89835" lon="1.8258">
        <ele>209.1</ele>
        <time>2022-08-06T13:49:08Z</time>
      </trkpt>
      <trkpt lat="44.89835" lon="1.8258">
        <ele>209.1</ele>
        <time>2022-08-06T13:49:10Z</time>
      </trkpt>
      <trkpt lat="44.89835" lon="1.8258">
        <ele>209.1</ele>
        <time>2022-08-06T13:49:12Z</time>
      </trkpt>
      <trkpt lat="44.89835" lon="1.8258">
        <ele>209.1</ele>
        <time>2022-08-06T13:49:14Z</time>
      </trkpt>
      <trkpt lat="44.89835" lon="1.8258">
        <ele>209.1</ele>
        <time>2022-08-06T13:49:16Z</time>
      </trkpt>
      <trkpt lat="44.89835" lon="1.82581">
        <ele>209.2</ele>
        <time>2022-08-06T13:49:18Z</time>
      </trkpt>
      <trkpt lat="44.89835" lon="1.8258">
        <ele>209.1</ele>
        <time>2022-08-06T13:49:20Z</time>
      </trkpt>
      <trkpt lat="44.89835" lon="1.8258">
        <ele>209.2</ele>
        <time>2022-08-06T13:49:22Z</time>
      </trkpt>
      <trkpt lat="44.89836" lon="1.8258">
        <ele>209.2</ele>
        <time>2022-08-06T13:49:24Z</time>
      </trkpt>
      <trkpt lat="44.89836" lon="1.8258">
        <ele>209.2</ele>
        <time>2022-08-06T13:49:26Z</time>
      </trkpt>
      <trkpt lat="44.89836" lon="1.8258">
        <ele>209.2</ele>
        <time>2022-08-06T13:49:28Z</time>
      </trkpt>
      <trkpt lat="44.89835" lon="1.8258">
        <ele>209.1</ele>
        <time>2022-08-06T13:49:30Z</time>
      </trkpt>
      <trkpt lat="44.89835" lon="1.8258">
        <ele>209.2</ele>
        <time>2022-08-06T13:49:32Z</time>
      </trkpt>
      <trkpt lat="44.89836" lon="1.8258">
        <ele>209.2</ele>
        <time>2022-08-06T13:49:34Z</time>
      </trkpt>
      <trkpt lat="44.89836" lon="1.8258">
        <ele>209.2</ele>
        <time>2022-08-06T13:49:38Z</time>
      </trkpt>
      <trkpt lat="44.89836" lon="1.8258">
        <ele>209.2</ele>
        <time>2022-08-06T13:49:42Z</time>
      </trkpt>
      <trkpt lat="44.89836" lon="1.8258">
        <ele>209.2</ele>
        <time>2022-08-06T13:49:46Z</time>
      </trkpt>
      <trkpt lat="44.89836" lon="1.8258">
        <ele>209.2</ele>
        <time>2022-08-06T13:49:50Z</time>
      </trkpt>
      <trkpt lat="44.89836" lon="1.8258">
        <ele>209.2</ele>
        <time>2022-08-06T13:49:54Z</time>
      </trkpt>
      <trkpt lat="44.89836" lon="1.8258">
        <ele>209.2</ele>
        <time>2022-08-06T13:49:58Z</time>
      </trkpt>
      <trkpt lat="44.89836" lon="1.8258">
        <ele>209.2</ele>
        <time>2022-08-06T13:50:02Z</time>
      </trkpt>
      <trkpt lat="44.89836" lon="1.8258">
        <ele>209.2</ele>
        <time>2022-08-06T13:50:06Z</time>
      </trkpt>
      <trkpt lat="44.89836" lon="1.8258">
        <ele>209.2</ele>
        <time>2022-08-06T13:50:10Z</time>
      </trkpt>
      <trkpt lat="44.89836" lon="1.8258">
        <ele>209.2</ele>
        <time>2022-08-06T13:50:14Z</time>
      </trkpt>
      <trkpt lat="44.89836" lon="1.8258">
        <ele>209.2</ele>
        <time>2022-08-06T13:50:18Z</time>
      </trkpt>
      <trkpt lat="44.89836" lon="1.8258">
        <ele>209.2</ele>
        <time>2022-08-06T13:50:22Z</time>
      </trkpt>
      <trkpt lat="44.89836" lon="1.8258">
        <ele>209.2</ele>
        <time>2022-08-06T13:50:26Z</time>
      </trkpt>
      <trkpt lat="44.89836" lon="1.8258">
        <ele>209.2</ele>
        <time>2022-08-06T13:50:30Z</time>
      </trkpt>
      <trkpt lat="44.89836" lon="1.8258">
        <ele>209.2</ele>
        <time>2022-08-06T13:50:34Z</time>
      </trkpt>
      <trkpt lat="44.89836" lon="1.8258">
        <ele>209.2</ele>
        <time>2022-08-06T13:50:38Z</time>
      </trkpt>
      <trkpt lat="44.89836" lon="1.8258">
        <ele>209.2</ele>
        <time>2022-08-06T13:50:42Z</time>
      </trkpt>
      <trkpt lat="44.89836" lon="1.8258">
        <ele>209.2</ele>
        <time>2022-08-06T13:50:46Z</time>
      </trkpt>
      <trkpt lat="44.89836" lon="1.8258">
        <ele>209.2</ele>
        <time>2022-08-06T13:50:50Z</time>
      </trkpt>
      <trkpt lat="44.89836" lon="1.8258">
        <ele>209.2</ele>
        <time>2022-08-06T13:50:54Z</time>
      </trkpt>
      <trkpt lat="44.89836" lon="1.8258">
        <ele>209.2</ele>
        <time>2022-08-06T13:50:58Z</time>
      </trkpt>
      <trkpt lat="44.89836" lon="1.8258">
        <ele>209.2</ele>
        <time>2022-08-06T13:51:02Z</time>
      </trkpt>
      <trkpt lat="44.89836" lon="1.8258">
        <ele>209.2</ele>
        <time>2022-08-06T13:51:06Z</time>
      </trkpt>
      <trkpt lat="44.89836" lon="1.8258">
        <ele>209.2</ele>
        <time>2022-08-06T13:51:10Z</time>
      </trkpt>
      <trkpt lat="44.89836" lon="1.8258">
        <ele>209.2</ele>
        <time>2022-08-06T13:51:14Z</time>
      </trkpt>
      <trkpt lat="44.89836" lon="1.8258">
        <ele>209.2</ele>
        <time>2022-08-06T13:51:18Z</time>
      </trkpt>
      <trkpt lat="44.89836" lon="1.8258">
        <ele>209.2</ele>
        <time>2022-08-06T13:51:22Z</time>
      </trkpt>
      <trkpt lat="44.89836" lon="1.8258">
        <ele>209.2</ele>
        <time>2022-08-06T13:51:26Z</time>
      </trkpt>
      <trkpt lat="44.89836" lon="1.8258">
        <ele>209.2</ele>
        <time>2022-08-06T13:51:30Z</time>
      </trkpt>
      <trkpt lat="44.89836" lon="1.8258">
        <ele>209.2</ele>
        <time>2022-08-06T13:51:34Z</time>
      </trkpt>
      <trkpt lat="44.89836" lon="1.8258">
        <ele>209.2</ele>
        <time>2022-08-06T13:51:38Z</time>
      </trkpt>
      <trkpt lat="44.89836" lon="1.8258">
        <ele>209.2</ele>
        <time>2022-08-06T13:51:42Z</time>
      </trkpt>
      <trkpt lat="44.89836" lon="1.8258">
        <ele>209.2</ele>
        <time>2022-08-06T13:51:46Z</time>
      </trkpt>
      <trkpt lat="44.89836" lon="1.8258">
        <ele>209.2</ele>
        <time>2022-08-06T13:51:50Z</time>
      </trkpt>
      <trkpt lat="44.89836" lon="1.8258">
        <ele>209.2</ele>
        <time>2022-08-06T13:51:54Z</time>
      </trkpt>
      <trkpt lat="44.89836" lon="1.8258">
        <ele>209.2</ele>
        <time>2022-08-06T13:51:58Z</time>
      </trkpt>
      <trkpt lat="44.89836" lon="1.8258">
        <ele>209.2</ele>
        <time>2022-08-06T13:52:02Z</time>
      </trkpt>
      <trkpt lat="44.89836" lon="1.8258">
        <ele>209.2</ele>
        <time>2022-08-06T13:52:06Z</time>
      </trkpt>
      <trkpt lat="44.89836" lon="1.8258">
        <ele>209.2</ele>
        <time>2022-08-06T13:52:10Z</time>
      </trkpt>
      <trkpt lat="44.89836" lon="1.8258">
        <ele>209.2</ele>
        <time>2022-08-06T13:52:14Z</time>
      </trkpt>
      <trkpt lat="44.89836" lon="1.8258">
        <ele>209.2</ele>
        <time>2022-08-06T13:52:18Z</time>
      </trkpt>
      <trkpt lat="44.89836" lon="1.8258">
        <ele>209.2</ele>
        <time>2022-08-06T13:52:22Z</time>
      </trkpt>
      <trkpt lat="44.89836" lon="1.8258">
        <ele>209.2</ele>
        <time>2022-08-06T13:52:26Z</time>
      </trkpt>
      <trkpt lat="44.89836" lon="1.8258">
        <ele>209.2</ele>
        <time>2022-08-06T13:52:30Z</time>
      </trkpt>
      <trkpt lat="44.89836" lon="1.8258">
        <ele>209.2</ele>
        <time>2022-08-06T13:52:34Z</time>
      </trkpt>
      <trkpt lat="44.89836" lon="1.82579">
        <ele>209.3</ele>
        <time>2022-08-06T13:52:38Z</time>
      </trkpt>
      <trkpt lat="44.89837" lon="1.82579">
        <ele>209.3</ele>
        <time>2022-08-06T13:52:40Z</time>
      </trkpt>
      <trkpt lat="44.89836" lon="1.82579">
        <ele>209.1</ele>
        <time>2022-08-06T13:52:42Z</time>
      </trkpt>
      <trkpt lat="44.89836" lon="1.82579">
        <ele>209.2</ele>
        <time>2022-08-06T13:52:44Z</time>
      </trkpt>
      <trkpt lat="44.89836" lon="1.82578">
        <ele>209.1</ele>
        <time>2022-08-06T13:52:46Z</time>
      </trkpt>
      <trkpt lat="44.89836" lon="1.82578">
        <ele>209.1</ele>
        <time>2022-08-06T13:52:48Z</time>
      </trkpt>
      <trkpt lat="44.89836" lon="1.82578">
        <ele>209.1</ele>
        <time>2022-08-06T13:52:50Z</time>
      </trkpt>
      <trkpt lat="44.89835" lon="1.82577">
        <ele>209</ele>
        <time>2022-08-06T13:52:54Z</time>
      </trkpt>
      <trkpt lat="44.89835" lon="1.82577">
        <ele>209</ele>
        <time>2022-08-06T13:52:56Z</time>
      </trkpt>
      <trkpt lat="44.89836" lon="1.82577">
        <ele>209.1</ele>
        <time>2022-08-06T13:52:58Z</time>
      </trkpt>
      <trkpt lat="44.89836" lon="1.82578">
        <ele>209.1</ele>
        <time>2022-08-06T13:53:00Z</time>
      </trkpt>
      <trkpt lat="44.89835" lon="1.82578">
        <ele>209</ele>
        <time>2022-08-06T13:53:02Z</time>
      </trkpt>
      <trkpt lat="44.89835" lon="1.82578">
        <ele>209</ele>
        <time>2022-08-06T13:53:04Z</time>
      </trkpt>
      <trkpt lat="44.89835" lon="1.82578">
        <ele>209</ele>
        <time>2022-08-06T13:53:06Z</time>
      </trkpt>
      <trkpt lat="44.89835" lon="1.82578">
        <ele>208.9</ele>
        <time>2022-08-06T13:53:08Z</time>
      </trkpt>
      <trkpt lat="44.89835" lon="1.82578">
        <ele>208.9</ele>
        <time>2022-08-06T13:53:10Z</time>
      </trkpt>
      <trkpt lat="44.89835" lon="1.82579">
        <ele>208.9</ele>
        <time>2022-08-06T13:53:12Z</time>
      </trkpt>
      <trkpt lat="44.89834" lon="1.82579">
        <ele>208.9</ele>
        <time>2022-08-06T13:53:14Z</time>
      </trkpt>
      <trkpt lat="44.89834" lon="1.82579">
        <ele>208.9</ele>
        <time>2022-08-06T13:53:16Z</time>
      </trkpt>
      <trkpt lat="44.89835" lon="1.82579">
        <ele>208.9</ele>
        <time>2022-08-06T13:53:18Z</time>
      </trkpt>
      <trkpt lat="44.89834" lon="1.82579">
        <ele>208.9</ele>
        <time>2022-08-06T13:53:20Z</time>
      </trkpt>
      <trkpt lat="44.89834" lon="1.82579">
        <ele>209</ele>
        <time>2022-08-06T13:53:22Z</time>
      </trkpt>
      <trkpt lat="44.89835" lon="1.82579">
        <ele>209</ele>
        <time>2022-08-06T13:53:24Z</time>
      </trkpt>
      <trkpt lat="44.89834" lon="1.82579">
        <ele>208.9</ele>
        <time>2022-08-06T13:53:26Z</time>
      </trkpt>
      <trkpt lat="44.89834" lon="1.82578">
        <ele>208.8</ele>
        <time>2022-08-06T13:53:28Z</time>
      </trkpt>
      <trkpt lat="44.89834" lon="1.82578">
        <ele>208.8</ele>
        <time>2022-08-06T13:53:30Z</time>
      </trkpt>
      <trkpt lat="44.89834" lon="1.82577">
        <ele>208.8</ele>
        <time>2022-08-06T13:53:32Z</time>
      </trkpt>
      <trkpt lat="44.89834" lon="1.82577">
        <ele>208.8</ele>
        <time>2022-08-06T13:53:34Z</time>
      </trkpt>
      <trkpt lat="44.89834" lon="1.82577">
        <ele>208.8</ele>
        <time>2022-08-06T13:53:36Z</time>
      </trkpt>
      <trkpt lat="44.89835" lon="1.82576">
        <ele>208.8</ele>
        <time>2022-08-06T13:53:38Z</time>
      </trkpt>
      <trkpt lat="44.89835" lon="1.82576">
        <ele>208.8</ele>
        <time>2022-08-06T13:53:40Z</time>
      </trkpt>
      <trkpt lat="44.89835" lon="1.82576">
        <ele>208.8</ele>
        <time>2022-08-06T13:53:42Z</time>
      </trkpt>
      <trkpt lat="44.89834" lon="1.82576">
        <ele>208.8</ele>
        <time>2022-08-06T13:53:44Z</time>
      </trkpt>
      <trkpt lat="44.89835" lon="1.82576">
        <ele>208.8</ele>
        <time>2022-08-06T13:53:46Z</time>
      </trkpt>
      <trkpt lat="44.89834" lon="1.82577">
        <ele>208.7</ele>
        <time>2022-08-06T13:53:48Z</time>
      </trkpt>
      <trkpt lat="44.89834" lon="1.82578">
        <ele>208.8</ele>
        <time>2022-08-06T13:53:50Z</time>
      </trkpt>
      <trkpt lat="44.89834" lon="1.82578">
        <ele>208.7</ele>
        <time>2022-08-06T13:53:52Z</time>
      </trkpt>
      <trkpt lat="44.89834" lon="1.82578">
        <ele>208.8</ele>
        <time>2022-08-06T13:53:54Z</time>
      </trkpt>
      <trkpt lat="44.89834" lon="1.82578">
        <ele>208.8</ele>
        <time>2022-08-06T13:53:56Z</time>
      </trkpt>
      <trkpt lat="44.89834" lon="1.82577">
        <ele>208.8</ele>
        <time>2022-08-06T13:53:58Z</time>
      </trkpt>
      <trkpt lat="44.89835" lon="1.82577">
        <ele>208.9</ele>
        <time>2022-08-06T13:54:00Z</time>
      </trkpt>
      <trkpt lat="44.89835" lon="1.82577">
        <ele>209</ele>
        <time>2022-08-06T13:54:02Z</time>
      </trkpt>
      <trkpt lat="44.89835" lon="1.82577">
        <ele>208.9</ele>
        <time>2022-08-06T13:54:04Z</time>
      </trkpt>
      <trkpt lat="44.89835" lon="1.82577">
        <ele>208.9</ele>
        <time>2022-08-06T13:54:06Z</time>
      </trkpt>
      <trkpt lat="44.89835" lon="1.82577">
        <ele>208.9</ele>
        <time>2022-08-06T13:54:10Z</time>
      </trkpt>
      <trkpt lat="44.89835" lon="1.82577">
        <ele>208.9</ele>
        <time>2022-08-06T13:54:14Z</time>
      </trkpt>
      <trkpt lat="44.89835" lon="1.82577">
        <ele>208.9</ele>
        <time>2022-08-06T13:54:16Z</time>
      </trkpt>
      <trkpt lat="44.89835" lon="1.82578">
        <ele>208.9</ele>
        <time>2022-08-06T13:54:18Z</time>
      </trkpt>
      <trkpt lat="44.89835" lon="1.82578">
        <ele>208.9</ele>
        <time>2022-08-06T13:54:20Z</time>
      </trkpt>
      <trkpt lat="44.89835" lon="1.82577">
        <ele>208.9</ele>
        <time>2022-08-06T13:54:22Z</time>
      </trkpt>
      <trkpt lat="44.89835" lon="1.82577">
        <ele>208.9</ele>
        <time>2022-08-06T13:54:24Z</time>
      </trkpt>
      <trkpt lat="44.89835" lon="1.82577">
        <ele>208.9</ele>
        <time>2022-08-06T13:54:28Z</time>
      </trkpt>
      <trkpt lat="44.89834" lon="1.82577">
        <ele>208.8</ele>
        <time>2022-08-06T13:54:32Z</time>
      </trkpt>
      <trkpt lat="44.89835" lon="1.82577">
        <ele>208.9</ele>
        <time>2022-08-06T13:54:36Z</time>
      </trkpt>
      <trkpt lat="44.89836" lon="1.82576">
        <ele>209</ele>
        <time>2022-08-06T13:54:38Z</time>
      </trkpt>
      <trkpt lat="44.89837" lon="1.82574">
        <ele>209.1</ele>
        <time>2022-08-06T13:54:40Z</time>
      </trkpt>
      <trkpt lat="44.89839" lon="1.82573">
        <ele>209.3</ele>
        <time>2022-08-06T13:54:42Z</time>
      </trkpt>
      <trkpt lat="44.8984" lon="1.82571">
        <ele>209.4</ele>
        <time>2022-08-06T13:54:44Z</time>
      </trkpt>
      <trkpt lat="44.89841" lon="1.82568">
        <ele>209.3</ele>
        <time>2022-08-06T13:54:46Z</time>
      </trkpt>
      <trkpt lat="44.89841" lon="1.82567">
        <ele>209.4</ele>
        <time>2022-08-06T13:54:48Z</time>
      </trkpt>
      <trkpt lat="44.89843" lon="1.82565">
        <ele>209.5</ele>
        <time>2022-08-06T13:54:50Z</time>
      </trkpt>
      <trkpt lat="44.89844" lon="1.82564">
        <ele>209.6</ele>
        <time>2022-08-06T13:54:52Z</time>
      </trkpt>
      <trkpt lat="44.89845" lon="1.82562">
        <ele>209.7</ele>
        <time>2022-08-06T13:54:54Z</time>
      </trkpt>
      <trkpt lat="44.89846" lon="1.82561">
        <ele>209.8</ele>
        <time>2022-08-06T13:54:56Z</time>
      </trkpt>
      <trkpt lat="44.89848" lon="1.8256">
        <ele>210</ele>
        <time>2022-08-06T13:54:58Z</time>
      </trkpt>
      <trkpt lat="44.89849" lon="1.82559">
        <ele>210.1</ele>
        <time>2022-08-06T13:55:00Z</time>
      </trkpt>
      <trkpt lat="44.8985" lon="1.82561">
        <ele>210.4</ele>
        <time>2022-08-06T13:55:02Z</time>
      </trkpt>
      <trkpt lat="44.89851" lon="1.82563">
        <ele>210.8</ele>
        <time>2022-08-06T13:55:04Z</time>
      </trkpt>
      <trkpt lat="44.89851" lon="1.82566">
        <ele>210.9</ele>
        <time>2022-08-06T13:55:06Z</time>
      </trkpt>
      <trkpt lat="44.89852" lon="1.82568">
        <ele>211.2</ele>
        <time>2022-08-06T13:55:08Z</time>
      </trkpt>
      <trkpt lat="44.89852" lon="1.82571">
        <ele>211.5</ele>
        <time>2022-08-06T13:55:10Z</time>
      </trkpt>
      <trkpt lat="44.89852" lon="1.82573">
        <ele>211.6</ele>
        <time>2022-08-06T13:55:12Z</time>
      </trkpt>
      <trkpt lat="44.89852" lon="1.82575">
        <ele>211.8</ele>
        <time>2022-08-06T13:55:14Z</time>
      </trkpt>
      <trkpt lat="44.89853" lon="1.82576">
        <ele>212</ele>
        <time>2022-08-06T13:55:16Z</time>
      </trkpt>
      <trkpt lat="44.89854" lon="1.82579">
        <ele>212.3</ele>
        <time>2022-08-06T13:55:18Z</time>
      </trkpt>
      <trkpt lat="44.89854" lon="1.82581">
        <ele>212.5</ele>
        <time>2022-08-06T13:55:20Z</time>
      </trkpt>
      <trkpt lat="44.89854" lon="1.82583">
        <ele>212.8</ele>
        <time>2022-08-06T13:55:22Z</time>
      </trkpt>
      <trkpt lat="44.89855" lon="1.82585">
        <ele>212.8</ele>
        <time>2022-08-06T13:55:24Z</time>
      </trkpt>
      <trkpt lat="44.89856" lon="1.82586">
        <ele>212.7</ele>
        <time>2022-08-06T13:55:26Z</time>
      </trkpt>
      <trkpt lat="44.89856" lon="1.82587">
        <ele>212.7</ele>
        <time>2022-08-06T13:55:28Z</time>
      </trkpt>
      <trkpt lat="44.89857" lon="1.82589">
        <ele>212.5</ele>
        <time>2022-08-06T13:55:30Z</time>
      </trkpt>
      <trkpt lat="44.89857" lon="1.8259">
        <ele>212.4</ele>
        <time>2022-08-06T13:55:32Z</time>
      </trkpt>
      <trkpt lat="44.89856" lon="1.82591">
        <ele>212.2</ele>
        <time>2022-08-06T13:55:34Z</time>
      </trkpt>
      <trkpt lat="44.89856" lon="1.82592">
        <ele>212.1</ele>
        <time>2022-08-06T13:55:36Z</time>
      </trkpt>
      <trkpt lat="44.89856" lon="1.82592">
        <ele>212.1</ele>
        <time>2022-08-06T13:55:38Z</time>
      </trkpt>
      <trkpt lat="44.89856" lon="1.82592">
        <ele>212</ele>
        <time>2022-08-06T13:55:40Z</time>
      </trkpt>
      <trkpt lat="44.89856" lon="1.82593">
        <ele>212</ele>
        <time>2022-08-06T13:55:42Z</time>
      </trkpt>
      <trkpt lat="44.89856" lon="1.82594">
        <ele>211.8</ele>
        <time>2022-08-06T13:55:44Z</time>
      </trkpt>
      <trkpt lat="44.89856" lon="1.82594">
        <ele>211.7</ele>
        <time>2022-08-06T13:55:46Z</time>
      </trkpt>
      <trkpt lat="44.89855" lon="1.82593">
        <ele>211.8</ele>
        <time>2022-08-06T13:55:48Z</time>
      </trkpt>
      <trkpt lat="44.89856" lon="1.82593">
        <ele>212</ele>
        <time>2022-08-06T13:55:50Z</time>
      </trkpt>
      <trkpt lat="44.89857" lon="1.82592">
        <ele>212.2</ele>
        <time>2022-08-06T13:55:52Z</time>
      </trkpt>
      <trkpt lat="44.89857" lon="1.82592">
        <ele>212.2</ele>
        <time>2022-08-06T13:55:54Z</time>
      </trkpt>
      <trkpt lat="44.89857" lon="1.82592">
        <ele>212.3</ele>
        <time>2022-08-06T13:55:56Z</time>
      </trkpt>
      <trkpt lat="44.89855" lon="1.82595">
        <ele>211.5</ele>
        <time>2022-08-06T13:55:58Z</time>
      </trkpt>
      <trkpt lat="44.89853" lon="1.82595">
        <ele>211.2</ele>
        <time>2022-08-06T13:56:00Z</time>
      </trkpt>
      <trkpt lat="44.89852" lon="1.82595">
        <ele>211.1</ele>
        <time>2022-08-06T13:56:02Z</time>
      </trkpt>
      <trkpt lat="44.89853" lon="1.82596">
        <ele>211</ele>
        <time>2022-08-06T13:56:04Z</time>
      </trkpt>
      <trkpt lat="44.89853" lon="1.82595">
        <ele>211.3</ele>
        <time>2022-08-06T13:56:06Z</time>
      </trkpt>
      <trkpt lat="44.89853" lon="1.82595">
        <ele>211.3</ele>
        <time>2022-08-06T13:56:10Z</time>
      </trkpt>
      <trkpt lat="44.89851" lon="1.82592">
        <ele>211.2</ele>
        <time>2022-08-06T13:56:12Z</time>
      </trkpt>
      <trkpt lat="44.89853" lon="1.82588">
        <ele>212</ele>
        <time>2022-08-06T13:56:14Z</time>
      </trkpt>
      <trkpt lat="44.89854" lon="1.82588">
        <ele>212.2</ele>
        <time>2022-08-06T13:56:16Z</time>
      </trkpt>
      <trkpt lat="44.89854" lon="1.82594">
        <ele>211.4</ele>
        <time>2022-08-06T13:56:18Z</time>
      </trkpt>
      <trkpt lat="44.89859" lon="1.82596">
        <ele>212.1</ele>
        <time>2022-08-06T13:56:20Z</time>
      </trkpt>
      <trkpt lat="44.8986" lon="1.82594">
        <ele>212.5</ele>
        <time>2022-08-06T13:56:22Z</time>
      </trkpt>
      <trkpt lat="44.89861" lon="1.82594">
        <ele>212.8</ele>
        <time>2022-08-06T13:56:24Z</time>
      </trkpt>
      <trkpt lat="44.89862" lon="1.82593">
        <ele>213.1</ele>
        <time>2022-08-06T13:56:26Z</time>
      </trkpt>
      <trkpt lat="44.89864" lon="1.82592">
        <ele>213.4</ele>
        <time>2022-08-06T13:56:28Z</time>
      </trkpt>
      <trkpt lat="44.89865" lon="1.8259">
        <ele>213.8</ele>
        <time>2022-08-06T13:56:30Z</time>
      </trkpt>
      <trkpt lat="44.89865" lon="1.8259">
        <ele>213.9</ele>
        <time>2022-08-06T13:56:32Z</time>
      </trkpt>
      <trkpt lat="44.89866" lon="1.82591">
        <ele>213.9</ele>
        <time>2022-08-06T13:56:34Z</time>
      </trkpt>
      <trkpt lat="44.89872" lon="1.82581">
        <ele>215.7</ele>
        <time>2022-08-06T13:56:36Z</time>
      </trkpt>
      <trkpt lat="44.89875" lon="1.82579">
        <ele>216</ele>
        <time>2022-08-06T13:56:38Z</time>
      </trkpt>
      <trkpt lat="44.8988" lon="1.82578">
        <ele>216.8</ele>
        <time>2022-08-06T13:56:40Z</time>
      </trkpt>
      <trkpt lat="44.89873" lon="1.82582">
        <ele>216</ele>
        <time>2022-08-06T13:56:42Z</time>
      </trkpt>
      <trkpt lat="44.89866" lon="1.82588">
        <ele>214.3</ele>
        <time>2022-08-06T13:56:44Z</time>
      </trkpt>
      <trkpt lat="44.89865" lon="1.8259">
        <ele>213.9</ele>
        <time>2022-08-06T13:56:46Z</time>
      </trkpt>
      <trkpt lat="44.89862" lon="1.82592">
        <ele>213.1</ele>
        <time>2022-08-06T13:56:48Z</time>
      </trkpt>
      <trkpt lat="44.89862" lon="1.82593">
        <ele>213</ele>
        <time>2022-08-06T13:56:50Z</time>
      </trkpt>
      <trkpt lat="44.8986" lon="1.82594">
        <ele>212.6</ele>
        <time>2022-08-06T13:56:52Z</time>
      </trkpt>
      <trkpt lat="44.89861" lon="1.82593">
        <ele>212.8</ele>
        <time>2022-08-06T13:56:54Z</time>
      </trkpt>
      <trkpt lat="44.89862" lon="1.82593">
        <ele>213</ele>
        <time>2022-08-06T13:56:56Z</time>
      </trkpt>
      <trkpt lat="44.89862" lon="1.82593">
        <ele>213</ele>
        <time>2022-08-06T13:56:58Z</time>
      </trkpt>
      <trkpt lat="44.89864" lon="1.82589">
        <ele>213.8</ele>
        <time>2022-08-06T13:57:02Z</time>
      </trkpt>
      <trkpt lat="44.89864" lon="1.82589">
        <ele>213.9</ele>
        <time>2022-08-06T13:57:06Z</time>
      </trkpt>
      <trkpt lat="44.89865" lon="1.82587">
        <ele>214.2</ele>
        <time>2022-08-06T13:57:08Z</time>
      </trkpt>
      <trkpt lat="44.89865" lon="1.82587">
        <ele>214.2</ele>
        <time>2022-08-06T13:57:10Z</time>
      </trkpt>
      <trkpt lat="44.89864" lon="1.82589">
        <ele>213.8</ele>
        <time>2022-08-06T13:57:12Z</time>
      </trkpt>
      <trkpt lat="44.89864" lon="1.82591">
        <ele>213.7</ele>
        <time>2022-08-06T13:57:14Z</time>
      </trkpt>
      <trkpt lat="44.89866" lon="1.82591">
        <ele>213.9</ele>
        <time>2022-08-06T13:57:16Z</time>
      </trkpt>
      <trkpt lat="44.89863" lon="1.82592">
        <ele>213.3</ele>
        <time>2022-08-06T13:57:18Z</time>
      </trkpt>
      <trkpt lat="44.89863" lon="1.82593">
        <ele>213.1</ele>
        <time>2022-08-06T13:57:20Z</time>
      </trkpt>
      <trkpt lat="44.89861" lon="1.82593">
        <ele>212.8</ele>
        <time>2022-08-06T13:57:22Z</time>
      </trkpt>
      <trkpt lat="44.89862" lon="1.82592">
        <ele>213.1</ele>
        <time>2022-08-06T13:57:24Z</time>
      </trkpt>
      <trkpt lat="44.89863" lon="1.82592">
        <ele>213.2</ele>
        <time>2022-08-06T13:57:26Z</time>
      </trkpt>
      <trkpt lat="44.8986" lon="1.82594">
        <ele>212.6</ele>
        <time>2022-08-06T13:57:28Z</time>
      </trkpt>
      <trkpt lat="44.8986" lon="1.82593">
        <ele>212.7</ele>
        <time>2022-08-06T13:57:30Z</time>
      </trkpt>
      <trkpt lat="44.8986" lon="1.82593">
        <ele>212.7</ele>
        <time>2022-08-06T13:57:34Z</time>
      </trkpt>
      <trkpt lat="44.8986" lon="1.82593">
        <ele>212.7</ele>
        <time>2022-08-06T13:57:36Z</time>
      </trkpt>
      <trkpt lat="44.89861" lon="1.82593">
        <ele>212.7</ele>
        <time>2022-08-06T13:57:38Z</time>
      </trkpt>
      <trkpt lat="44.89862" lon="1.82592">
        <ele>213</ele>
        <time>2022-08-06T13:57:40Z</time>
      </trkpt>
      <trkpt lat="44.89862" lon="1.82592">
        <ele>213</ele>
        <time>2022-08-06T13:57:42Z</time>
      </trkpt>
      <trkpt lat="44.89861" lon="1.82593">
        <ele>212.9</ele>
        <time>2022-08-06T13:57:44Z</time>
      </trkpt>
      <trkpt lat="44.89862" lon="1.82593">
        <ele>213</ele>
        <time>2022-08-06T13:57:46Z</time>
      </trkpt>
      <trkpt lat="44.89862" lon="1.82595">
        <ele>212.7</ele>
        <time>2022-08-06T13:57:48Z</time>
      </trkpt>
      <trkpt lat="44.89863" lon="1.82596">
        <ele>212.9</ele>
        <time>2022-08-06T13:57:50Z</time>
      </trkpt>
      <trkpt lat="44.8986" lon="1.82599">
        <ele>212</ele>
        <time>2022-08-06T13:57:52Z</time>
      </trkpt>
      <trkpt lat="44.8986" lon="1.826">
        <ele>211.9</ele>
        <time>2022-08-06T13:57:54Z</time>
      </trkpt>
      <trkpt lat="44.89862" lon="1.82601">
        <ele>211.9</ele>
        <time>2022-08-06T13:57:56Z</time>
      </trkpt>
      <trkpt lat="44.89862" lon="1.82601">
        <ele>212</ele>
        <time>2022-08-06T13:57:58Z</time>
      </trkpt>
      <trkpt lat="44.89865" lon="1.82602">
        <ele>212.4</ele>
        <time>2022-08-06T13:58:00Z</time>
      </trkpt>
      <trkpt lat="44.89867" lon="1.82603">
        <ele>212.6</ele>
        <time>2022-08-06T13:58:02Z</time>
      </trkpt>
      <trkpt lat="44.89868" lon="1.82604">
        <ele>212.8</ele>
        <time>2022-08-06T13:58:04Z</time>
      </trkpt>
      <trkpt lat="44.8987" lon="1.82605">
        <ele>213</ele>
        <time>2022-08-06T13:58:06Z</time>
      </trkpt>
      <trkpt lat="44.89872" lon="1.82605">
        <ele>213.3</ele>
        <time>2022-08-06T13:58:08Z</time>
      </trkpt>
      <trkpt lat="44.89874" lon="1.82605">
        <ele>213.7</ele>
        <time>2022-08-06T13:58:10Z</time>
      </trkpt>
      <trkpt lat="44.89876" lon="1.82606">
        <ele>213.7</ele>
        <time>2022-08-06T13:58:12Z</time>
      </trkpt>
      <trkpt lat="44.89877" lon="1.82607">
        <ele>213.8</ele>
        <time>2022-08-06T13:58:14Z</time>
      </trkpt>
      <trkpt lat="44.89879" lon="1.82609">
        <ele>214</ele>
        <time>2022-08-06T13:58:16Z</time>
      </trkpt>
      <trkpt lat="44.8988" lon="1.8261">
        <ele>213.9</ele>
        <time>2022-08-06T13:58:18Z</time>
      </trkpt>
      <trkpt lat="44.89881" lon="1.82612">
        <ele>213.8</ele>
        <time>2022-08-06T13:58:20Z</time>
      </trkpt>
      <trkpt lat="44.89882" lon="1.82613">
        <ele>213.9</ele>
        <time>2022-08-06T13:58:22Z</time>
      </trkpt>
      <trkpt lat="44.89884" lon="1.82614">
        <ele>214.2</ele>
        <time>2022-08-06T13:58:24Z</time>
      </trkpt>
      <trkpt lat="44.89886" lon="1.82614">
        <ele>214.4</ele>
        <time>2022-08-06T13:58:26Z</time>
      </trkpt>
      <trkpt lat="44.89887" lon="1.82614">
        <ele>214.6</ele>
        <time>2022-08-06T13:58:28Z</time>
      </trkpt>
      <trkpt lat="44.89889" lon="1.82615">
        <ele>214.8</ele>
        <time>2022-08-06T13:58:30Z</time>
      </trkpt>
      <trkpt lat="44.8989" lon="1.82616">
        <ele>214.8</ele>
        <time>2022-08-06T13:58:32Z</time>
      </trkpt>
      <trkpt lat="44.89891" lon="1.82617">
        <ele>215</ele>
        <time>2022-08-06T13:58:34Z</time>
      </trkpt>
      <trkpt lat="44.89892" lon="1.82618">
        <ele>215.1</ele>
        <time>2022-08-06T13:58:36Z</time>
      </trkpt>
      <trkpt lat="44.89894" lon="1.82618">
        <ele>215.3</ele>
        <time>2022-08-06T13:58:38Z</time>
      </trkpt>
      <trkpt lat="44.89895" lon="1.8262">
        <ele>215.2</ele>
        <time>2022-08-06T13:58:40Z</time>
      </trkpt>
      <trkpt lat="44.89897" lon="1.82621">
        <ele>215.3</ele>
        <time>2022-08-06T13:58:42Z</time>
      </trkpt>
      <trkpt lat="44.89898" lon="1.82622">
        <ele>215.3</ele>
        <time>2022-08-06T13:58:44Z</time>
      </trkpt>
      <trkpt lat="44.89898" lon="1.82624">
        <ele>215.2</ele>
        <time>2022-08-06T13:58:46Z</time>
      </trkpt>
      <trkpt lat="44.89898" lon="1.82626">
        <ele>214.8</ele>
        <time>2022-08-06T13:58:48Z</time>
      </trkpt>
      <trkpt lat="44.89899" lon="1.82626">
        <ele>214.9</ele>
        <time>2022-08-06T13:58:50Z</time>
      </trkpt>
      <trkpt lat="44.899" lon="1.82627">
        <ele>215</ele>
        <time>2022-08-06T13:58:52Z</time>
      </trkpt>
      <trkpt lat="44.899" lon="1.82628">
        <ele>215</ele>
        <time>2022-08-06T13:58:54Z</time>
      </trkpt>
      <trkpt lat="44.89901" lon="1.82627">
        <ele>215.1</ele>
        <time>2022-08-06T13:58:56Z</time>
      </trkpt>
      <trkpt lat="44.899" lon="1.82628">
        <ele>214.9</ele>
        <time>2022-08-06T13:58:58Z</time>
      </trkpt>
      <trkpt lat="44.89902" lon="1.8263">
        <ele>215</ele>
        <time>2022-08-06T13:59:00Z</time>
      </trkpt>
      <trkpt lat="44.89903" lon="1.82631">
        <ele>215</ele>
        <time>2022-08-06T13:59:02Z</time>
      </trkpt>
      <trkpt lat="44.89902" lon="1.82631">
        <ele>214.8</ele>
        <time>2022-08-06T13:59:04Z</time>
      </trkpt>
      <trkpt lat="44.89901" lon="1.82632">
        <ele>214.6</ele>
        <time>2022-08-06T13:59:06Z</time>
      </trkpt>
      <trkpt lat="44.89902" lon="1.82633">
        <ele>214.5</ele>
        <time>2022-08-06T13:59:08Z</time>
      </trkpt>
      <trkpt lat="44.89902" lon="1.82634">
        <ele>214.4</ele>
        <time>2022-08-06T13:59:10Z</time>
      </trkpt>
      <trkpt lat="44.89902" lon="1.82634">
        <ele>214.3</ele>
        <time>2022-08-06T13:59:12Z</time>
      </trkpt>
      <trkpt lat="44.89902" lon="1.82634">
        <ele>214.4</ele>
        <time>2022-08-06T13:59:14Z</time>
      </trkpt>
      <trkpt lat="44.89902" lon="1.82633">
        <ele>214.4</ele>
        <time>2022-08-06T13:59:16Z</time>
      </trkpt>
      <trkpt lat="44.89901" lon="1.82632">
        <ele>214.5</ele>
        <time>2022-08-06T13:59:18Z</time>
      </trkpt>
      <trkpt lat="44.89901" lon="1.82632">
        <ele>214.5</ele>
        <time>2022-08-06T13:59:20Z</time>
      </trkpt>
      <trkpt lat="44.899" lon="1.8263">
        <ele>214.7</ele>
        <time>2022-08-06T13:59:22Z</time>
      </trkpt>
      <trkpt lat="44.89899" lon="1.82628">
        <ele>214.7</ele>
        <time>2022-08-06T13:59:24Z</time>
      </trkpt>
      <trkpt lat="44.89898" lon="1.82627">
        <ele>214.7</ele>
        <time>2022-08-06T13:59:26Z</time>
      </trkpt>
      <trkpt lat="44.89898" lon="1.82626">
        <ele>214.9</ele>
        <time>2022-08-06T13:59:28Z</time>
      </trkpt>
      <trkpt lat="44.89898" lon="1.82626">
        <ele>214.9</ele>
        <time>2022-08-06T13:59:30Z</time>
      </trkpt>
      <trkpt lat="44.89899" lon="1.82627">
        <ele>214.8</ele>
        <time>2022-08-06T13:59:32Z</time>
      </trkpt>
      <trkpt lat="44.899" lon="1.82628">
        <ele>214.9</ele>
        <time>2022-08-06T13:59:34Z</time>
      </trkpt>
      <trkpt lat="44.89898" lon="1.82627">
        <ele>214.8</ele>
        <time>2022-08-06T13:59:36Z</time>
      </trkpt>
      <trkpt lat="44.89898" lon="1.82626">
        <ele>214.9</ele>
        <time>2022-08-06T13:59:38Z</time>
      </trkpt>
      <trkpt lat="44.89899" lon="1.82626">
        <ele>215</ele>
        <time>2022-08-06T13:59:40Z</time>
      </trkpt>
      <trkpt lat="44.89899" lon="1.82627">
        <ele>214.8</ele>
        <time>2022-08-06T13:59:42Z</time>
      </trkpt>
      <trkpt lat="44.899" lon="1.82627">
        <ele>214.9</ele>
        <time>2022-08-06T13:59:44Z</time>
      </trkpt>
      <trkpt lat="44.89899" lon="1.82628">
        <ele>214.7</ele>
        <time>2022-08-06T13:59:46Z</time>
      </trkpt>
      <trkpt lat="44.89899" lon="1.82626">
        <ele>215</ele>
        <time>2022-08-06T13:59:48Z</time>
      </trkpt>
      <trkpt lat="44.89899" lon="1.82626">
        <ele>214.9</ele>
        <time>2022-08-06T13:59:50Z</time>
      </trkpt>
      <trkpt lat="44.89899" lon="1.82626">
        <ele>214.9</ele>
        <time>2022-08-06T13:59:52Z</time>
      </trkpt>
      <trkpt lat="44.899" lon="1.82625">
        <ele>215.3</ele>
        <time>2022-08-06T13:59:54Z</time>
      </trkpt>
      <trkpt lat="44.89901" lon="1.82626">
        <ele>215.2</ele>
        <time>2022-08-06T13:59:56Z</time>
      </trkpt>
      <trkpt lat="44.89903" lon="1.82626">
        <ele>215.6</ele>
        <time>2022-08-06T13:59:58Z</time>
      </trkpt>
      <trkpt lat="44.89903" lon="1.82627">
        <ele>215.4</ele>
        <time>2022-08-06T14:00:00Z</time>
      </trkpt>
      <trkpt lat="44.89903" lon="1.82627">
        <ele>215.4</ele>
        <time>2022-08-06T14:00:02Z</time>
      </trkpt>
      <trkpt lat="44.89904" lon="1.82627">
        <ele>215.7</ele>
        <time>2022-08-06T14:00:04Z</time>
      </trkpt>
      <trkpt lat="44.89905" lon="1.82628">
        <ele>215.7</ele>
        <time>2022-08-06T14:00:06Z</time>
      </trkpt>
      <trkpt lat="44.89907" lon="1.82628">
        <ele>216</ele>
        <time>2022-08-06T14:00:08Z</time>
      </trkpt>
      <trkpt lat="44.89908" lon="1.82628">
        <ele>216.3</ele>
        <time>2022-08-06T14:00:10Z</time>
      </trkpt>
      <trkpt lat="44.89909" lon="1.82625">
        <ele>216.7</ele>
        <time>2022-08-06T14:00:12Z</time>
      </trkpt>
      <trkpt lat="44.8991" lon="1.82624">
        <ele>216.9</ele>
        <time>2022-08-06T14:00:14Z</time>
      </trkpt>
      <trkpt lat="44.89911" lon="1.82622">
        <ele>217.6</ele>
        <time>2022-08-06T14:00:16Z</time>
      </trkpt>
      <trkpt lat="44.89912" lon="1.82622">
        <ele>217.7</ele>
        <time>2022-08-06T14:00:18Z</time>
      </trkpt>
      <trkpt lat="44.89915" lon="1.82621">
        <ele>218.3</ele>
        <time>2022-08-06T14:00:20Z</time>
      </trkpt>
      <trkpt lat="44.89917" lon="1.82621">
        <ele>218.6</ele>
        <time>2022-08-06T14:00:22Z</time>
      </trkpt>
      <trkpt lat="44.89917" lon="1.82621">
        <ele>218.4</ele>
        <time>2022-08-06T14:00:24Z</time>
      </trkpt>
      <trkpt lat="44.89919" lon="1.82621">
        <ele>217.9</ele>
        <time>2022-08-06T14:00:26Z</time>
      </trkpt>
      <trkpt lat="44.89921" lon="1.82622">
        <ele>217.4</ele>
        <time>2022-08-06T14:00:28Z</time>
      </trkpt>
      <trkpt lat="44.8984" lon="1.82586">
        <ele>209.8</ele>
        <time>2022-08-06T15:25:12Z</time>
      </trkpt>
      <trkpt lat="44.89839" lon="1.82586">
        <ele>209.8</ele>
        <time>2022-08-06T15:25:14Z</time>
      </trkpt>
      <trkpt lat="44.89832" lon="1.82571">
        <ele>208</ele>
        <time>2022-08-06T15:25:40Z</time>
      </trkpt>
      <trkpt lat="44.89835" lon="1.82567">
        <ele>208.2</ele>
        <time>2022-08-06T15:25:42Z</time>
      </trkpt>
      <trkpt lat="44.89835" lon="1.82562">
        <ele>208</ele>
        <time>2022-08-06T15:25:44Z</time>
      </trkpt>
      <trkpt lat="44.89835" lon="1.82555">
        <ele>207.5</ele>
        <time>2022-08-06T15:25:46Z</time>
      </trkpt>
      <trkpt lat="44.89839" lon="1.82551">
        <ele>207.9</ele>
        <time>2022-08-06T15:25:48Z</time>
      </trkpt>
      <trkpt lat="44.89843" lon="1.8255">
        <ele>208.5</ele>
        <time>2022-08-06T15:25:50Z</time>
      </trkpt>
      <trkpt lat="44.89846" lon="1.82553">
        <ele>209.2</ele>
        <time>2022-08-06T15:25:52Z</time>
      </trkpt>
      <trkpt lat="44.89847" lon="1.82559">
        <ele>209.7</ele>
        <time>2022-08-06T15:25:54Z</time>
      </trkpt>
      <trkpt lat="44.89845" lon="1.82562">
        <ele>209.7</ele>
        <time>2022-08-06T15:25:56Z</time>
      </trkpt>
      <trkpt lat="44.89844" lon="1.82566">
        <ele>209.8</ele>
        <time>2022-08-06T15:25:58Z</time>
      </trkpt>
      <trkpt lat="44.89844" lon="1.8257">
        <ele>209.9</ele>
        <time>2022-08-06T15:26:00Z</time>
      </trkpt>
      <trkpt lat="44.89844" lon="1.82573">
        <ele>210.2</ele>
        <time>2022-08-06T15:26:02Z</time>
      </trkpt>
      <trkpt lat="44.89844" lon="1.82576">
        <ele>210.5</ele>
        <time>2022-08-06T15:26:04Z</time>
      </trkpt>
      <trkpt lat="44.89844" lon="1.8258">
        <ele>210.8</ele>
        <time>2022-08-06T15:26:06Z</time>
      </trkpt>
      <trkpt lat="44.89844" lon="1.82584">
        <ele>210.9</ele>
        <time>2022-08-06T15:26:08Z</time>
      </trkpt>
      <trkpt lat="44.89844" lon="1.82588">
        <ele>210.5</ele>
        <time>2022-08-06T15:26:10Z</time>
      </trkpt>
      <trkpt lat="44.89845" lon="1.82592">
        <ele>210.2</ele>
        <time>2022-08-06T15:26:12Z</time>
      </trkpt>
      <trkpt lat="44.89847" lon="1.82597">
        <ele>209.9</ele>
        <time>2022-08-06T15:26:14Z</time>
      </trkpt>
      <trkpt lat="44.89848" lon="1.82601">
        <ele>209.7</ele>
        <time>2022-08-06T15:26:16Z</time>
      </trkpt>
      <trkpt lat="44.89851" lon="1.82606">
        <ele>209.7</ele>
        <time>2022-08-06T15:26:18Z</time>
      </trkpt>
      <trkpt lat="44.89854" lon="1.8261">
        <ele>209.6</ele>
        <time>2022-08-06T15:26:20Z</time>
      </trkpt>
      <trkpt lat="44.89856" lon="1.82615">
        <ele>209.3</ele>
        <time>2022-08-06T15:26:22Z</time>
      </trkpt>
      <trkpt lat="44.89858" lon="1.82619">
        <ele>209.2</ele>
        <time>2022-08-06T15:26:24Z</time>
      </trkpt>
      <trkpt lat="44.89861" lon="1.82623">
        <ele>209.2</ele>
        <time>2022-08-06T15:26:26Z</time>
      </trkpt>
      <trkpt lat="44.89863" lon="1.82628">
        <ele>209</ele>
        <time>2022-08-06T15:26:28Z</time>
      </trkpt>
      <trkpt lat="44.89865" lon="1.82633">
        <ele>208.6</ele>
        <time>2022-08-06T15:26:30Z</time>
      </trkpt>
      <trkpt lat="44.89868" lon="1.82638">
        <ele>208.5</ele>
        <time>2022-08-06T15:26:32Z</time>
      </trkpt>
      <trkpt lat="44.89873" lon="1.82641">
        <ele>208.8</ele>
        <time>2022-08-06T15:26:34Z</time>
      </trkpt>
      <trkpt lat="44.89878" lon="1.82642">
        <ele>209.5</ele>
        <time>2022-08-06T15:26:36Z</time>
      </trkpt>
      <trkpt lat="44.89883" lon="1.82645">
        <ele>210</ele>
        <time>2022-08-06T15:26:38Z</time>
      </trkpt>
      <trkpt lat="44.89886" lon="1.82646">
        <ele>210.2</ele>
        <time>2022-08-06T15:26:40Z</time>
      </trkpt>
      <trkpt lat="44.8989" lon="1.82648">
        <ele>210.6</ele>
        <time>2022-08-06T15:26:42Z</time>
      </trkpt>
      <trkpt lat="44.89893" lon="1.82649">
        <ele>210.9</ele>
        <time>2022-08-06T15:26:44Z</time>
      </trkpt>
      <trkpt lat="44.89897" lon="1.82651">
        <ele>211.2</ele>
        <time>2022-08-06T15:26:46Z</time>
      </trkpt>
      <trkpt lat="44.899" lon="1.82653">
        <ele>211.5</ele>
        <time>2022-08-06T15:26:48Z</time>
      </trkpt>
      <trkpt lat="44.89904" lon="1.82656">
        <ele>211.8</ele>
        <time>2022-08-06T15:26:50Z</time>
      </trkpt>
      <trkpt lat="44.89909" lon="1.82658">
        <ele>212.2</ele>
        <time>2022-08-06T15:26:52Z</time>
      </trkpt>
      <trkpt lat="44.89913" lon="1.82659">
        <ele>212.6</ele>
        <time>2022-08-06T15:26:54Z</time>
      </trkpt>
      <trkpt lat="44.89917" lon="1.82662">
        <ele>212.7</ele>
        <time>2022-08-06T15:26:56Z</time>
      </trkpt>
      <trkpt lat="44.89921" lon="1.82665">
        <ele>211.5</ele>
        <time>2022-08-06T15:26:58Z</time>
      </trkpt>
      <trkpt lat="44.89925" lon="1.82668">
        <ele>210.5</ele>
        <time>2022-08-06T15:27:00Z</time>
      </trkpt>
      <trkpt lat="44.8993" lon="1.8267">
        <ele>209.6</ele>
        <time>2022-08-06T15:27:02Z</time>
      </trkpt>
      <trkpt lat="44.89935" lon="1.82673">
        <ele>208.7</ele>
        <time>2022-08-06T15:27:04Z</time>
      </trkpt>
      <trkpt lat="44.89939" lon="1.82678">
        <ele>207.7</ele>
        <time>2022-08-06T15:27:06Z</time>
      </trkpt>
      <trkpt lat="44.89942" lon="1.82684">
        <ele>206.9</ele>
        <time>2022-08-06T15:27:08Z</time>
      </trkpt>
      <trkpt lat="44.89944" lon="1.8269">
        <ele>206.2</ele>
        <time>2022-08-06T15:27:10Z</time>
      </trkpt>
      <trkpt lat="44.89944" lon="1.82698">
        <ele>205.7</ele>
        <time>2022-08-06T15:27:12Z</time>
      </trkpt>
      <trkpt lat="44.89943" lon="1.82705">
        <ele>205.4</ele>
        <time>2022-08-06T15:27:14Z</time>
      </trkpt>
      <trkpt lat="44.89941" lon="1.82712">
        <ele>205</ele>
        <time>2022-08-06T15:27:16Z</time>
      </trkpt>
      <trkpt lat="44.89941" lon="1.82719">
        <ele>204.5</ele>
        <time>2022-08-06T15:27:18Z</time>
      </trkpt>
      <trkpt lat="44.89942" lon="1.82724">
        <ele>204.1</ele>
        <time>2022-08-06T15:27:20Z</time>
      </trkpt>
      <trkpt lat="44.89947" lon="1.82729">
        <ele>203.6</ele>
        <time>2022-08-06T15:27:22Z</time>
      </trkpt>
      <trkpt lat="44.89951" lon="1.82733">
        <ele>203.3</ele>
        <time>2022-08-06T15:27:24Z</time>
      </trkpt>
      <trkpt lat="44.8995" lon="1.82738">
        <ele>203</ele>
        <time>2022-08-06T15:27:26Z</time>
      </trkpt>
      <trkpt lat="44.89949" lon="1.82738">
        <ele>203</ele>
        <time>2022-08-06T15:27:28Z</time>
      </trkpt>
      <trkpt lat="44.89949" lon="1.82738">
        <ele>203</ele>
        <time>2022-08-06T15:27:30Z</time>
      </trkpt>
      <trkpt lat="44.89949" lon="1.82739">
        <ele>203</ele>
        <time>2022-08-06T15:27:32Z</time>
      </trkpt>
      <trkpt lat="44.89949" lon="1.82739">
        <ele>203</ele>
        <time>2022-08-06T15:27:34Z</time>
      </trkpt>
      <trkpt lat="44.89948" lon="1.82739">
        <ele>203</ele>
        <time>2022-08-06T15:27:36Z</time>
      </trkpt>
      <trkpt lat="44.89937" lon="1.82735">
        <ele>203.4</ele>
        <time>2022-08-06T15:27:44Z</time>
      </trkpt>
      <trkpt lat="44.89933" lon="1.8273">
        <ele>203.9</ele>
        <time>2022-08-06T15:27:46Z</time>
      </trkpt>
      <trkpt lat="44.89927" lon="1.82726">
        <ele>204.5</ele>
        <time>2022-08-06T15:27:48Z</time>
      </trkpt>
      <trkpt lat="44.8992" lon="1.82723">
        <ele>205.1</ele>
        <time>2022-08-06T15:27:50Z</time>
      </trkpt>
      <trkpt lat="44.89912" lon="1.82718">
        <ele>204.9</ele>
        <time>2022-08-06T15:27:52Z</time>
      </trkpt>
      <trkpt lat="44.89904" lon="1.82714">
        <ele>204</ele>
        <time>2022-08-06T15:27:54Z</time>
      </trkpt>
      <trkpt lat="44.89895" lon="1.8271">
        <ele>203.1</ele>
        <time>2022-08-06T15:27:56Z</time>
      </trkpt>
      <trkpt lat="44.89886" lon="1.82705">
        <ele>202.1</ele>
        <time>2022-08-06T15:27:58Z</time>
      </trkpt>
      <trkpt lat="44.89876" lon="1.827">
        <ele>201.3</ele>
        <time>2022-08-06T15:28:00Z</time>
      </trkpt>
      <trkpt lat="44.89866" lon="1.82695">
        <ele>200.4</ele>
        <time>2022-08-06T15:28:02Z</time>
      </trkpt>
      <trkpt lat="44.89855" lon="1.82687">
        <ele>199.8</ele>
        <time>2022-08-06T15:28:04Z</time>
      </trkpt>
      <trkpt lat="44.89845" lon="1.82678">
        <ele>199.8</ele>
        <time>2022-08-06T15:28:06Z</time>
      </trkpt>
      <trkpt lat="44.89834" lon="1.82668">
        <ele>200</ele>
        <time>2022-08-06T15:28:08Z</time>
      </trkpt>
      <trkpt lat="44.89824" lon="1.8266">
        <ele>198.3</ele>
        <time>2022-08-06T15:28:10Z</time>
      </trkpt>
      <trkpt lat="44.89815" lon="1.8265">
        <ele>196.9</ele>
        <time>2022-08-06T15:28:12Z</time>
      </trkpt>
      <trkpt lat="44.89806" lon="1.8264">
        <ele>195.6</ele>
        <time>2022-08-06T15:28:14Z</time>
      </trkpt>
      <trkpt lat="44.89799" lon="1.82629">
        <ele>194.9</ele>
        <time>2022-08-06T15:28:16Z</time>
      </trkpt>
      <trkpt lat="44.89792" lon="1.82617">
        <ele>194.3</ele>
        <time>2022-08-06T15:28:18Z</time>
      </trkpt>
      <trkpt lat="44.89786" lon="1.82606">
        <ele>193.7</ele>
        <time>2022-08-06T15:28:20Z</time>
      </trkpt>
      <trkpt lat="44.89782" lon="1.82594">
        <ele>193.8</ele>
        <time>2022-08-06T15:28:22Z</time>
      </trkpt>
      <trkpt lat="44.89776" lon="1.82581">
        <ele>193.3</ele>
        <time>2022-08-06T15:28:24Z</time>
      </trkpt>
      <trkpt lat="44.89772" lon="1.82568">
        <ele>191.7</ele>
        <time>2022-08-06T15:28:26Z</time>
      </trkpt>
      <trkpt lat="44.89767" lon="1.82552">
        <ele>190.4</ele>
        <time>2022-08-06T15:28:28Z</time>
      </trkpt>
      <trkpt lat="44.89765" lon="1.82535">
        <ele>189.6</ele>
        <time>2022-08-06T15:28:30Z</time>
      </trkpt>
      <trkpt lat="44.89764" lon="1.82519">
        <ele>189.2</ele>
        <time>2022-08-06T15:28:32Z</time>
      </trkpt>
      <trkpt lat="44.89762" lon="1.82504">
        <ele>188.6</ele>
        <time>2022-08-06T15:28:34Z</time>
      </trkpt>
      <trkpt lat="44.8976" lon="1.82487">
        <ele>187.1</ele>
        <time>2022-08-06T15:28:36Z</time>
      </trkpt>
      <trkpt lat="44.8976" lon="1.82468">
        <ele>185.6</ele>
        <time>2022-08-06T15:28:38Z</time>
      </trkpt>
      <trkpt lat="44.89761" lon="1.82448">
        <ele>184.1</ele>
        <time>2022-08-06T15:28:40Z</time>
      </trkpt>
      <trkpt lat="44.89763" lon="1.82428">
        <ele>182.9</ele>
        <time>2022-08-06T15:28:42Z</time>
      </trkpt>
      <trkpt lat="44.89768" lon="1.82408">
        <ele>181.9</ele>
        <time>2022-08-06T15:28:44Z</time>
      </trkpt>
      <trkpt lat="44.89774" lon="1.8239">
        <ele>181.3</ele>
        <time>2022-08-06T15:28:46Z</time>
      </trkpt>
      <trkpt lat="44.8978" lon="1.82372">
        <ele>180.5</ele>
        <time>2022-08-06T15:28:48Z</time>
      </trkpt>
      <trkpt lat="44.89785" lon="1.82354">
        <ele>179.6</ele>
        <time>2022-08-06T15:28:50Z</time>
      </trkpt>
      <trkpt lat="44.89791" lon="1.82335">
        <ele>178.6</ele>
        <time>2022-08-06T15:28:52Z</time>
      </trkpt>
      <trkpt lat="44.89796" lon="1.82316">
        <ele>177.8</ele>
        <time>2022-08-06T15:28:54Z</time>
      </trkpt>
      <trkpt lat="44.89802" lon="1.82297">
        <ele>177.1</ele>
        <time>2022-08-06T15:28:56Z</time>
      </trkpt>
      <trkpt lat="44.89809" lon="1.82279">
        <ele>176.7</ele>
        <time>2022-08-06T15:28:58Z</time>
      </trkpt>
      <trkpt lat="44.89816" lon="1.82263">
        <ele>176.3</ele>
        <time>2022-08-06T15:29:00Z</time>
      </trkpt>
      <trkpt lat="44.89824" lon="1.82247">
        <ele>175.9</ele>
        <time>2022-08-06T15:29:02Z</time>
      </trkpt>
      <trkpt lat="44.89831" lon="1.82232">
        <ele>175.3</ele>
        <time>2022-08-06T15:29:04Z</time>
      </trkpt>
      <trkpt lat="44.89839" lon="1.82216">
        <ele>174.2</ele>
        <time>2022-08-06T15:29:06Z</time>
      </trkpt>
      <trkpt lat="44.89848" lon="1.822">
        <ele>172.8</ele>
        <time>2022-08-06T15:29:08Z</time>
      </trkpt>
      <trkpt lat="44.89855" lon="1.82181">
        <ele>171.2</ele>
        <time>2022-08-06T15:29:10Z</time>
      </trkpt>
      <trkpt lat="44.89864" lon="1.82165">
        <ele>169.9</ele>
        <time>2022-08-06T15:29:12Z</time>
      </trkpt>
      <trkpt lat="44.89871" lon="1.82148">
        <ele>168.8</ele>
        <time>2022-08-06T15:29:14Z</time>
      </trkpt>
      <trkpt lat="44.89879" lon="1.82131">
        <ele>167.7</ele>
        <time>2022-08-06T15:29:16Z</time>
      </trkpt>
      <trkpt lat="44.89886" lon="1.82114">
        <ele>166.6</ele>
        <time>2022-08-06T15:29:18Z</time>
      </trkpt>
      <trkpt lat="44.89894" lon="1.82095">
        <ele>165.5</ele>
        <time>2022-08-06T15:29:20Z</time>
      </trkpt>
      <trkpt lat="44.89902" lon="1.82076">
        <ele>164.6</ele>
        <time>2022-08-06T15:29:22Z</time>
      </trkpt>
      <trkpt lat="44.89909" lon="1.82056">
        <ele>163.9</ele>
        <time>2022-08-06T15:29:24Z</time>
      </trkpt>
      <trkpt lat="44.89914" lon="1.82037">
        <ele>163.3</ele>
        <time>2022-08-06T15:29:26Z</time>
      </trkpt>
      <trkpt lat="44.89918" lon="1.82017">
        <ele>162.5</ele>
        <time>2022-08-06T15:29:28Z</time>
      </trkpt>
      <trkpt lat="44.89919" lon="1.81996">
        <ele>161.7</ele>
        <time>2022-08-06T15:29:30Z</time>
      </trkpt>
      <trkpt lat="44.89917" lon="1.81977">
        <ele>160.9</ele>
        <time>2022-08-06T15:29:32Z</time>
      </trkpt>
      <trkpt lat="44.89911" lon="1.81959">
        <ele>160</ele>
        <time>2022-08-06T15:29:34Z</time>
      </trkpt>
      <trkpt lat="44.89904" lon="1.81941">
        <ele>159.2</ele>
        <time>2022-08-06T15:29:36Z</time>
      </trkpt>
      <trkpt lat="44.89896" lon="1.81923">
        <ele>158.5</ele>
        <time>2022-08-06T15:29:38Z</time>
      </trkpt>
      <trkpt lat="44.8989" lon="1.81905">
        <ele>157.6</ele>
        <time>2022-08-06T15:29:40Z</time>
      </trkpt>
      <trkpt lat="44.89885" lon="1.81885">
        <ele>156.4</ele>
        <time>2022-08-06T15:29:42Z</time>
      </trkpt>
      <trkpt lat="44.89882" lon="1.81865">
        <ele>155.1</ele>
        <time>2022-08-06T15:29:44Z</time>
      </trkpt>
      <trkpt lat="44.8988" lon="1.81844">
        <ele>153.8</ele>
        <time>2022-08-06T15:29:46Z</time>
      </trkpt>
      <trkpt lat="44.89881" lon="1.81823">
        <ele>152.4</ele>
        <time>2022-08-06T15:29:48Z</time>
      </trkpt>
      <trkpt lat="44.89881" lon="1.81802">
        <ele>151.1</ele>
        <time>2022-08-06T15:29:50Z</time>
      </trkpt>
      <trkpt lat="44.89882" lon="1.81782">
        <ele>149.7</ele>
        <time>2022-08-06T15:29:52Z</time>
      </trkpt>
      <trkpt lat="44.89882" lon="1.81761">
        <ele>148.3</ele>
        <time>2022-08-06T15:29:54Z</time>
      </trkpt>
      <trkpt lat="44.89879" lon="1.81742">
        <ele>147.3</ele>
        <time>2022-08-06T15:29:56Z</time>
      </trkpt>
      <trkpt lat="44.89875" lon="1.81722">
        <ele>146.8</ele>
        <time>2022-08-06T15:29:58Z</time>
      </trkpt>
      <trkpt lat="44.8987" lon="1.81705">
        <ele>146.4</ele>
        <time>2022-08-06T15:30:00Z</time>
      </trkpt>
      <trkpt lat="44.89866" lon="1.81689">
        <ele>146.1</ele>
        <time>2022-08-06T15:30:02Z</time>
      </trkpt>
      <trkpt lat="44.89858" lon="1.81676">
        <ele>145.9</ele>
        <time>2022-08-06T15:30:04Z</time>
      </trkpt>
      <trkpt lat="44.89851" lon="1.81663">
        <ele>145.7</ele>
        <time>2022-08-06T15:30:06Z</time>
      </trkpt>
      <trkpt lat="44.89845" lon="1.8165">
        <ele>145.3</ele>
        <time>2022-08-06T15:30:08Z</time>
      </trkpt>
      <trkpt lat="44.89839" lon="1.81638">
        <ele>144.9</ele>
        <time>2022-08-06T15:30:10Z</time>
      </trkpt>
      <trkpt lat="44.89834" lon="1.81625">
        <ele>144.5</ele>
        <time>2022-08-06T15:30:12Z</time>
      </trkpt>
      <trkpt lat="44.89827" lon="1.81612">
        <ele>144</ele>
        <time>2022-08-06T15:30:14Z</time>
      </trkpt>
      <trkpt lat="44.89821" lon="1.81602">
        <ele>143.6</ele>
        <time>2022-08-06T15:30:16Z</time>
      </trkpt>
      <trkpt lat="44.89816" lon="1.8159">
        <ele>143.2</ele>
        <time>2022-08-06T15:30:18Z</time>
      </trkpt>
      <trkpt lat="44.8981" lon="1.81578">
        <ele>142.9</ele>
        <time>2022-08-06T15:30:20Z</time>
      </trkpt>
      <trkpt lat="44.89804" lon="1.81566">
        <ele>142.6</ele>
        <time>2022-08-06T15:30:22Z</time>
      </trkpt>
      <trkpt lat="44.89799" lon="1.81553">
        <ele>142.4</ele>
        <time>2022-08-06T15:30:24Z</time>
      </trkpt>
      <trkpt lat="44.89793" lon="1.81542">
        <ele>142.2</ele>
        <time>2022-08-06T15:30:26Z</time>
      </trkpt>
      <trkpt lat="44.89789" lon="1.81531">
        <ele>142.1</ele>
        <time>2022-08-06T15:30:28Z</time>
      </trkpt>
      <trkpt lat="44.89785" lon="1.81522">
        <ele>142</ele>
        <time>2022-08-06T15:30:30Z</time>
      </trkpt>
      <trkpt lat="44.8978" lon="1.81514">
        <ele>141.9</ele>
        <time>2022-08-06T15:30:32Z</time>
      </trkpt>
      <trkpt lat="44.89774" lon="1.81508">
        <ele>141.8</ele>
        <time>2022-08-06T15:30:34Z</time>
      </trkpt>
      <trkpt lat="44.89771" lon="1.81501">
        <ele>141.8</ele>
        <time>2022-08-06T15:30:36Z</time>
      </trkpt>
      <trkpt lat="44.89769" lon="1.81492">
        <ele>141.6</ele>
        <time>2022-08-06T15:30:38Z</time>
      </trkpt>
      <trkpt lat="44.89767" lon="1.81483">
        <ele>141.4</ele>
        <time>2022-08-06T15:30:40Z</time>
      </trkpt>
      <trkpt lat="44.89767" lon="1.81474">
        <ele>141.2</ele>
        <time>2022-08-06T15:30:42Z</time>
      </trkpt>
      <trkpt lat="44.89767" lon="1.81466">
        <ele>141</ele>
        <time>2022-08-06T15:30:44Z</time>
      </trkpt>
      <trkpt lat="44.89766" lon="1.81457">
        <ele>140.8</ele>
        <time>2022-08-06T15:30:46Z</time>
      </trkpt>
      <trkpt lat="44.89767" lon="1.81453">
        <ele>140.7</ele>
        <time>2022-08-06T15:30:48Z</time>
      </trkpt>
      <trkpt lat="44.89768" lon="1.81452">
        <ele>140.6</ele>
        <time>2022-08-06T15:30:50Z</time>
      </trkpt>
      <trkpt lat="44.89768" lon="1.81452">
        <ele>140.6</ele>
        <time>2022-08-06T15:30:52Z</time>
      </trkpt>
      <trkpt lat="44.89768" lon="1.81452">
        <ele>140.6</ele>
        <time>2022-08-06T15:30:54Z</time>
      </trkpt>
      <trkpt lat="44.89768" lon="1.81452">
        <ele>140.6</ele>
        <time>2022-08-06T15:30:56Z</time>
      </trkpt>
      <trkpt lat="44.89768" lon="1.81451">
        <ele>140.6</ele>
        <time>2022-08-06T15:30:58Z</time>
      </trkpt>
      <trkpt lat="44.89781" lon="1.8142">
        <ele>139.7</ele>
        <time>2022-08-06T15:32:10Z</time>
      </trkpt>
      <trkpt lat="44.89787" lon="1.81415">
        <ele>139.5</ele>
        <time>2022-08-06T15:32:12Z</time>
      </trkpt>
      <trkpt lat="44.89792" lon="1.81411">
        <ele>139.2</ele>
        <time>2022-08-06T15:32:14Z</time>
      </trkpt>
      <trkpt lat="44.89796" lon="1.81407">
        <ele>139.1</ele>
        <time>2022-08-06T15:32:16Z</time>
      </trkpt>
      <trkpt lat="44.89802" lon="1.81403">
        <ele>138.8</ele>
        <time>2022-08-06T15:32:18Z</time>
      </trkpt>
      <trkpt lat="44.8981" lon="1.81398">
        <ele>138.5</ele>
        <time>2022-08-06T15:32:20Z</time>
      </trkpt>
      <trkpt lat="44.89818" lon="1.81393">
        <ele>138.3</ele>
        <time>2022-08-06T15:32:22Z</time>
      </trkpt>
      <trkpt lat="44.89827" lon="1.81387">
        <ele>138</ele>
        <time>2022-08-06T15:32:24Z</time>
      </trkpt>
      <trkpt lat="44.89835" lon="1.81382">
        <ele>137.7</ele>
        <time>2022-08-06T15:32:26Z</time>
      </trkpt>
      <trkpt lat="44.89842" lon="1.81377">
        <ele>137.2</ele>
        <time>2022-08-06T15:32:28Z</time>
      </trkpt>
      <trkpt lat="44.89851" lon="1.81369">
        <ele>136.5</ele>
        <time>2022-08-06T15:32:30Z</time>
      </trkpt>
      <trkpt lat="44.89857" lon="1.81362">
        <ele>136</ele>
        <time>2022-08-06T15:32:32Z</time>
      </trkpt>
      <trkpt lat="44.89862" lon="1.81354">
        <ele>135.5</ele>
        <time>2022-08-06T15:32:34Z</time>
      </trkpt>
      <trkpt lat="44.89867" lon="1.81348">
        <ele>135</ele>
        <time>2022-08-06T15:32:36Z</time>
      </trkpt>
      <trkpt lat="44.89872" lon="1.8134">
        <ele>134.4</ele>
        <time>2022-08-06T15:32:38Z</time>
      </trkpt>
      <trkpt lat="44.89876" lon="1.8133">
        <ele>134</ele>
        <time>2022-08-06T15:32:40Z</time>
      </trkpt>
      <trkpt lat="44.89879" lon="1.81322">
        <ele>133.8</ele>
        <time>2022-08-06T15:32:42Z</time>
      </trkpt>
      <trkpt lat="44.89883" lon="1.81313">
        <ele>133.7</ele>
        <time>2022-08-06T15:32:44Z</time>
      </trkpt>
      <trkpt lat="44.89887" lon="1.81303">
        <ele>133.6</ele>
        <time>2022-08-06T15:32:46Z</time>
      </trkpt>
      <trkpt lat="44.89892" lon="1.81294">
        <ele>133.6</ele>
        <time>2022-08-06T15:32:48Z</time>
      </trkpt>
      <trkpt lat="44.89896" lon="1.81285">
        <ele>133.6</ele>
        <time>2022-08-06T15:32:50Z</time>
      </trkpt>
      <trkpt lat="44.89897" lon="1.81278">
        <ele>133.6</ele>
        <time>2022-08-06T15:32:52Z</time>
      </trkpt>
      <trkpt lat="44.89901" lon="1.81272">
        <ele>133.7</ele>
        <time>2022-08-06T15:32:54Z</time>
      </trkpt>
      <trkpt lat="44.89905" lon="1.81267">
        <ele>133.7</ele>
        <time>2022-08-06T15:32:56Z</time>
      </trkpt>
      <trkpt lat="44.89908" lon="1.81263">
        <ele>133.8</ele>
        <time>2022-08-06T15:32:58Z</time>
      </trkpt>
      <trkpt lat="44.89911" lon="1.81258">
        <ele>133.8</ele>
        <time>2022-08-06T15:33:00Z</time>
      </trkpt>
      <trkpt lat="44.89915" lon="1.81252">
        <ele>134</ele>
        <time>2022-08-06T15:33:02Z</time>
      </trkpt>
      <trkpt lat="44.8992" lon="1.81248">
        <ele>133.9</ele>
        <time>2022-08-06T15:33:04Z</time>
      </trkpt>
      <trkpt lat="44.89925" lon="1.81246">
        <ele>133.8</ele>
        <time>2022-08-06T15:33:06Z</time>
      </trkpt>
      <trkpt lat="44.89931" lon="1.81242">
        <ele>133.6</ele>
        <time>2022-08-06T15:33:08Z</time>
      </trkpt>
      <trkpt lat="44.89936" lon="1.81238">
        <ele>133.5</ele>
        <time>2022-08-06T15:33:10Z</time>
      </trkpt>
      <trkpt lat="44.89942" lon="1.81234">
        <ele>133.3</ele>
        <time>2022-08-06T15:33:12Z</time>
      </trkpt>
      <trkpt lat="44.89945" lon="1.81227">
        <ele>133.2</ele>
        <time>2022-08-06T15:33:14Z</time>
      </trkpt>
      <trkpt lat="44.89947" lon="1.81218">
        <ele>133.1</ele>
        <time>2022-08-06T15:33:16Z</time>
      </trkpt>
      <trkpt lat="44.89947" lon="1.81209">
        <ele>133.1</ele>
        <time>2022-08-06T15:33:18Z</time>
      </trkpt>
      <trkpt lat="44.89948" lon="1.81201">
        <ele>133</ele>
        <time>2022-08-06T15:33:20Z</time>
      </trkpt>
      <trkpt lat="44.89949" lon="1.81195">
        <ele>133</ele>
        <time>2022-08-06T15:33:22Z</time>
      </trkpt>
      <trkpt lat="44.89951" lon="1.81188">
        <ele>132.9</ele>
        <time>2022-08-06T15:33:24Z</time>
      </trkpt>
      <trkpt lat="44.89953" lon="1.8118">
        <ele>132.8</ele>
        <time>2022-08-06T15:33:26Z</time>
      </trkpt>
      <trkpt lat="44.89955" lon="1.81172">
        <ele>132.6</ele>
        <time>2022-08-06T15:33:28Z</time>
      </trkpt>
      <trkpt lat="44.89957" lon="1.81165">
        <ele>132.5</ele>
        <time>2022-08-06T15:33:30Z</time>
      </trkpt>
      <trkpt lat="44.89956" lon="1.81158">
        <ele>132.3</ele>
        <time>2022-08-06T15:33:32Z</time>
      </trkpt>
      <trkpt lat="44.89955" lon="1.81152">
        <ele>132.2</ele>
        <time>2022-08-06T15:33:34Z</time>
      </trkpt>
      <trkpt lat="44.89954" lon="1.81144">
        <ele>132</ele>
        <time>2022-08-06T15:33:36Z</time>
      </trkpt>
      <trkpt lat="44.89952" lon="1.81136">
        <ele>131.8</ele>
        <time>2022-08-06T15:33:38Z</time>
      </trkpt>
      <trkpt lat="44.8995" lon="1.81127">
        <ele>131.6</ele>
        <time>2022-08-06T15:33:40Z</time>
      </trkpt>
      <trkpt lat="44.89948" lon="1.81118">
        <ele>131.3</ele>
        <time>2022-08-06T15:33:42Z</time>
      </trkpt>
      <trkpt lat="44.89945" lon="1.81108">
        <ele>131.1</ele>
        <time>2022-08-06T15:33:44Z</time>
      </trkpt>
      <trkpt lat="44.89943" lon="1.81097">
        <ele>130.8</ele>
        <time>2022-08-06T15:33:46Z</time>
      </trkpt>
      <trkpt lat="44.8994" lon="1.81088">
        <ele>130.6</ele>
        <time>2022-08-06T15:33:48Z</time>
      </trkpt>
      <trkpt lat="44.89938" lon="1.81077">
        <ele>130.5</ele>
        <time>2022-08-06T15:33:50Z</time>
      </trkpt>
      <trkpt lat="44.89935" lon="1.81066">
        <ele>130.6</ele>
        <time>2022-08-06T15:33:52Z</time>
      </trkpt>
      <trkpt lat="44.89933" lon="1.81055">
        <ele>130.7</ele>
        <time>2022-08-06T15:33:54Z</time>
      </trkpt>
      <trkpt lat="44.89931" lon="1.81045">
        <ele>130.8</ele>
        <time>2022-08-06T15:33:56Z</time>
      </trkpt>
      <trkpt lat="44.89928" lon="1.81034">
        <ele>130.9</ele>
        <time>2022-08-06T15:33:58Z</time>
      </trkpt>
      <trkpt lat="44.89926" lon="1.81023">
        <ele>130.9</ele>
        <time>2022-08-06T15:34:00Z</time>
      </trkpt>
      <trkpt lat="44.89924" lon="1.81011">
        <ele>131</ele>
        <time>2022-08-06T15:34:02Z</time>
      </trkpt>
      <trkpt lat="44.89922" lon="1.81">
        <ele>131</ele>
        <time>2022-08-06T15:34:04Z</time>
      </trkpt>
      <trkpt lat="44.8992" lon="1.80988">
        <ele>131</ele>
        <time>2022-08-06T15:34:06Z</time>
      </trkpt>
      <trkpt lat="44.89918" lon="1.80976">
        <ele>131</ele>
        <time>2022-08-06T15:34:08Z</time>
      </trkpt>
      <trkpt lat="44.89917" lon="1.80963">
        <ele>131</ele>
        <time>2022-08-06T15:34:10Z</time>
      </trkpt>
      <trkpt lat="44.89915" lon="1.80951">
        <ele>131</ele>
        <time>2022-08-06T15:34:12Z</time>
      </trkpt>
      <trkpt lat="44.89912" lon="1.80939">
        <ele>130.9</ele>
        <time>2022-08-06T15:34:14Z</time>
      </trkpt>
      <trkpt lat="44.89911" lon="1.80928">
        <ele>130.8</ele>
        <time>2022-08-06T15:34:16Z</time>
      </trkpt>
      <trkpt lat="44.89907" lon="1.80915">
        <ele>130.7</ele>
        <time>2022-08-06T15:34:18Z</time>
      </trkpt>
      <trkpt lat="44.89907" lon="1.80904">
        <ele>130.7</ele>
        <time>2022-08-06T15:34:20Z</time>
      </trkpt>
      <trkpt lat="44.89905" lon="1.80892">
        <ele>130.6</ele>
        <time>2022-08-06T15:34:22Z</time>
      </trkpt>
      <trkpt lat="44.89903" lon="1.8088">
        <ele>130.6</ele>
        <time>2022-08-06T15:34:24Z</time>
      </trkpt>
      <trkpt lat="44.89902" lon="1.80868">
        <ele>130.6</ele>
        <time>2022-08-06T15:34:26Z</time>
      </trkpt>
      <trkpt lat="44.899" lon="1.80855">
        <ele>130.5</ele>
        <time>2022-08-06T15:34:28Z</time>
      </trkpt>
      <trkpt lat="44.89899" lon="1.80843">
        <ele>130.6</ele>
        <time>2022-08-06T15:34:30Z</time>
      </trkpt>
      <trkpt lat="44.89898" lon="1.8083">
        <ele>130.5</ele>
        <time>2022-08-06T15:34:32Z</time>
      </trkpt>
      <trkpt lat="44.89897" lon="1.80818">
        <ele>130.5</ele>
        <time>2022-08-06T15:34:34Z</time>
      </trkpt>
      <trkpt lat="44.89897" lon="1.80805">
        <ele>130.4</ele>
        <time>2022-08-06T15:34:36Z</time>
      </trkpt>
      <trkpt lat="44.89897" lon="1.80792">
        <ele>130.4</ele>
        <time>2022-08-06T15:34:38Z</time>
      </trkpt>
      <trkpt lat="44.89897" lon="1.80779">
        <ele>130.3</ele>
        <time>2022-08-06T15:34:40Z</time>
      </trkpt>
      <trkpt lat="44.89897" lon="1.80767">
        <ele>130.3</ele>
        <time>2022-08-06T15:34:42Z</time>
      </trkpt>
      <trkpt lat="44.89898" lon="1.80754">
        <ele>130.2</ele>
        <time>2022-08-06T15:34:44Z</time>
      </trkpt>
      <trkpt lat="44.89898" lon="1.80742">
        <ele>130.1</ele>
        <time>2022-08-06T15:34:46Z</time>
      </trkpt>
      <trkpt lat="44.89899" lon="1.80729">
        <ele>129.9</ele>
        <time>2022-08-06T15:34:48Z</time>
      </trkpt>
      <trkpt lat="44.899" lon="1.80716">
        <ele>129.7</ele>
        <time>2022-08-06T15:34:50Z</time>
      </trkpt>
      <trkpt lat="44.89901" lon="1.80703">
        <ele>129.5</ele>
        <time>2022-08-06T15:34:52Z</time>
      </trkpt>
      <trkpt lat="44.89903" lon="1.8069">
        <ele>129.3</ele>
        <time>2022-08-06T15:34:54Z</time>
      </trkpt>
      <trkpt lat="44.89906" lon="1.80677">
        <ele>129.1</ele>
        <time>2022-08-06T15:34:56Z</time>
      </trkpt>
      <trkpt lat="44.89908" lon="1.80665">
        <ele>129</ele>
        <time>2022-08-06T15:34:58Z</time>
      </trkpt>
      <trkpt lat="44.89911" lon="1.80652">
        <ele>129</ele>
        <time>2022-08-06T15:35:00Z</time>
      </trkpt>
      <trkpt lat="44.89914" lon="1.8064">
        <ele>129</ele>
        <time>2022-08-06T15:35:02Z</time>
      </trkpt>
      <trkpt lat="44.89917" lon="1.80627">
        <ele>129</ele>
        <time>2022-08-06T15:35:04Z</time>
      </trkpt>
      <trkpt lat="44.8992" lon="1.80615">
        <ele>129.1</ele>
        <time>2022-08-06T15:35:06Z</time>
      </trkpt>
      <trkpt lat="44.89923" lon="1.80603">
        <ele>129.1</ele>
        <time>2022-08-06T15:35:08Z</time>
      </trkpt>
      <trkpt lat="44.89927" lon="1.80591">
        <ele>129.1</ele>
        <time>2022-08-06T15:35:10Z</time>
      </trkpt>
      <trkpt lat="44.89929" lon="1.80578">
        <ele>129.2</ele>
        <time>2022-08-06T15:35:12Z</time>
      </trkpt>
      <trkpt lat="44.89929" lon="1.80564">
        <ele>129.4</ele>
        <time>2022-08-06T15:35:14Z</time>
      </trkpt>
      <trkpt lat="44.89928" lon="1.80551">
        <ele>129.5</ele>
        <time>2022-08-06T15:35:16Z</time>
      </trkpt>
      <trkpt lat="44.89926" lon="1.80539">
        <ele>129.6</ele>
        <time>2022-08-06T15:35:18Z</time>
      </trkpt>
      <trkpt lat="44.89924" lon="1.80526">
        <ele>129.8</ele>
        <time>2022-08-06T15:35:20Z</time>
      </trkpt>
      <trkpt lat="44.89923" lon="1.80514">
        <ele>129.9</ele>
        <time>2022-08-06T15:35:22Z</time>
      </trkpt>
      <trkpt lat="44.89922" lon="1.80501">
        <ele>130</ele>
        <time>2022-08-06T15:35:24Z</time>
      </trkpt>
      <trkpt lat="44.8992" lon="1.80488">
        <ele>130</ele>
        <time>2022-08-06T15:35:26Z</time>
      </trkpt>
      <trkpt lat="44.89919" lon="1.80475">
        <ele>130</ele>
        <time>2022-08-06T15:35:28Z</time>
      </trkpt>
      <trkpt lat="44.89919" lon="1.80462">
        <ele>130</ele>
        <time>2022-08-06T15:35:30Z</time>
      </trkpt>
      <trkpt lat="44.8992" lon="1.80449">
        <ele>130.1</ele>
        <time>2022-08-06T15:35:32Z</time>
      </trkpt>
      <trkpt lat="44.89922" lon="1.80437">
        <ele>130.1</ele>
        <time>2022-08-06T15:35:34Z</time>
      </trkpt>
      <trkpt lat="44.89923" lon="1.80424">
        <ele>130.1</ele>
        <time>2022-08-06T15:35:36Z</time>
      </trkpt>
      <trkpt lat="44.89923" lon="1.80412">
        <ele>130.1</ele>
        <time>2022-08-06T15:35:38Z</time>
      </trkpt>
      <trkpt lat="44.89924" lon="1.80399">
        <ele>130</ele>
        <time>2022-08-06T15:35:40Z</time>
      </trkpt>
      <trkpt lat="44.89924" lon="1.80386">
        <ele>129.8</ele>
        <time>2022-08-06T15:35:42Z</time>
      </trkpt>
      <trkpt lat="44.89923" lon="1.80374">
        <ele>129.7</ele>
        <time>2022-08-06T15:35:44Z</time>
      </trkpt>
      <trkpt lat="44.89923" lon="1.80362">
        <ele>129.5</ele>
        <time>2022-08-06T15:35:46Z</time>
      </trkpt>
      <trkpt lat="44.89922" lon="1.80349">
        <ele>129.3</ele>
        <time>2022-08-06T15:35:48Z</time>
      </trkpt>
      <trkpt lat="44.89923" lon="1.80336">
        <ele>129.2</ele>
        <time>2022-08-06T15:35:50Z</time>
      </trkpt>
      <trkpt lat="44.89922" lon="1.80323">
        <ele>129.1</ele>
        <time>2022-08-06T15:35:52Z</time>
      </trkpt>
      <trkpt lat="44.89922" lon="1.80309">
        <ele>129.1</ele>
        <time>2022-08-06T15:35:54Z</time>
      </trkpt>
      <trkpt lat="44.89922" lon="1.80296">
        <ele>129</ele>
        <time>2022-08-06T15:35:56Z</time>
      </trkpt>
      <trkpt lat="44.89922" lon="1.80282">
        <ele>129</ele>
        <time>2022-08-06T15:35:58Z</time>
      </trkpt>
      <trkpt lat="44.89921" lon="1.80269">
        <ele>129</ele>
        <time>2022-08-06T15:36:00Z</time>
      </trkpt>
      <trkpt lat="44.89921" lon="1.80256">
        <ele>129</ele>
        <time>2022-08-06T15:36:02Z</time>
      </trkpt>
      <trkpt lat="44.89921" lon="1.80243">
        <ele>128.9</ele>
        <time>2022-08-06T15:36:04Z</time>
      </trkpt>
      <trkpt lat="44.8992" lon="1.80231">
        <ele>128.9</ele>
        <time>2022-08-06T15:36:06Z</time>
      </trkpt>
      <trkpt lat="44.8992" lon="1.80218">
        <ele>128.9</ele>
        <time>2022-08-06T15:36:08Z</time>
      </trkpt>
      <trkpt lat="44.89919" lon="1.80205">
        <ele>129</ele>
        <time>2022-08-06T15:36:10Z</time>
      </trkpt>
      <trkpt lat="44.89919" lon="1.80193">
        <ele>128.9</ele>
        <time>2022-08-06T15:36:12Z</time>
      </trkpt>
      <trkpt lat="44.89919" lon="1.8018">
        <ele>128.9</ele>
        <time>2022-08-06T15:36:14Z</time>
      </trkpt>
      <trkpt lat="44.89919" lon="1.80166">
        <ele>129</ele>
        <time>2022-08-06T15:36:16Z</time>
      </trkpt>
      <trkpt lat="44.89919" lon="1.80154">
        <ele>129.1</ele>
        <time>2022-08-06T15:36:18Z</time>
      </trkpt>
      <trkpt lat="44.89918" lon="1.80142">
        <ele>129.2</ele>
        <time>2022-08-06T15:36:20Z</time>
      </trkpt>
      <trkpt lat="44.89918" lon="1.8013">
        <ele>129.4</ele>
        <time>2022-08-06T15:36:22Z</time>
      </trkpt>
      <trkpt lat="44.89917" lon="1.80117">
        <ele>129.6</ele>
        <time>2022-08-06T15:36:24Z</time>
      </trkpt>
      <trkpt lat="44.89916" lon="1.80104">
        <ele>129.7</ele>
        <time>2022-08-06T15:36:26Z</time>
      </trkpt>
      <trkpt lat="44.89915" lon="1.80092">
        <ele>129.9</ele>
        <time>2022-08-06T15:36:28Z</time>
      </trkpt>
      <trkpt lat="44.89913" lon="1.80079">
        <ele>129.9</ele>
        <time>2022-08-06T15:36:30Z</time>
      </trkpt>
      <trkpt lat="44.89911" lon="1.80067">
        <ele>129.8</ele>
        <time>2022-08-06T15:36:32Z</time>
      </trkpt>
      <trkpt lat="44.89909" lon="1.80054">
        <ele>129.6</ele>
        <time>2022-08-06T15:36:34Z</time>
      </trkpt>
      <trkpt lat="44.89906" lon="1.80043">
        <ele>129.5</ele>
        <time>2022-08-06T15:36:36Z</time>
      </trkpt>
      <trkpt lat="44.89903" lon="1.80032">
        <ele>129.4</ele>
        <time>2022-08-06T15:36:38Z</time>
      </trkpt>
      <trkpt lat="44.89899" lon="1.80021">
        <ele>129.4</ele>
        <time>2022-08-06T15:36:40Z</time>
      </trkpt>
      <trkpt lat="44.89895" lon="1.8001">
        <ele>129.3</ele>
        <time>2022-08-06T15:36:42Z</time>
      </trkpt>
      <trkpt lat="44.8989" lon="1.8">
        <ele>129.3</ele>
        <time>2022-08-06T15:36:44Z</time>
      </trkpt>
      <trkpt lat="44.89884" lon="1.7999">
        <ele>129.3</ele>
        <time>2022-08-06T15:36:46Z</time>
      </trkpt>
      <trkpt lat="44.89878" lon="1.7998">
        <ele>129.3</ele>
        <time>2022-08-06T15:36:48Z</time>
      </trkpt>
      <trkpt lat="44.89872" lon="1.79971">
        <ele>129.4</ele>
        <time>2022-08-06T15:36:50Z</time>
      </trkpt>
      <trkpt lat="44.89866" lon="1.79961">
        <ele>129.4</ele>
        <time>2022-08-06T15:36:52Z</time>
      </trkpt>
      <trkpt lat="44.8986" lon="1.79953">
        <ele>129.5</ele>
        <time>2022-08-06T15:36:54Z</time>
      </trkpt>
      <trkpt lat="44.89854" lon="1.79943">
        <ele>129.6</ele>
        <time>2022-08-06T15:36:56Z</time>
      </trkpt>
      <trkpt lat="44.89849" lon="1.79933">
        <ele>129.7</ele>
        <time>2022-08-06T15:36:58Z</time>
      </trkpt>
      <trkpt lat="44.89843" lon="1.79924">
        <ele>129.8</ele>
        <time>2022-08-06T15:37:00Z</time>
      </trkpt>
      <trkpt lat="44.89837" lon="1.79915">
        <ele>129.9</ele>
        <time>2022-08-06T15:37:02Z</time>
      </trkpt>
      <trkpt lat="44.89832" lon="1.79905">
        <ele>129.7</ele>
        <time>2022-08-06T15:37:04Z</time>
      </trkpt>
      <trkpt lat="44.89827" lon="1.79896">
        <ele>129.4</ele>
        <time>2022-08-06T15:37:06Z</time>
      </trkpt>
      <trkpt lat="44.89821" lon="1.79887">
        <ele>129.2</ele>
        <time>2022-08-06T15:37:08Z</time>
      </trkpt>
      <trkpt lat="44.89815" lon="1.79877">
        <ele>128.9</ele>
        <time>2022-08-06T15:37:10Z</time>
      </trkpt>
      <trkpt lat="44.89809" lon="1.79868">
        <ele>128.8</ele>
        <time>2022-08-06T15:37:12Z</time>
      </trkpt>
      <trkpt lat="44.89803" lon="1.79858">
        <ele>128.6</ele>
        <time>2022-08-06T15:37:14Z</time>
      </trkpt>
      <trkpt lat="44.89797" lon="1.79849">
        <ele>128.6</ele>
        <time>2022-08-06T15:37:16Z</time>
      </trkpt>
      <trkpt lat="44.89791" lon="1.7984">
        <ele>128.5</ele>
        <time>2022-08-06T15:37:18Z</time>
      </trkpt>
      <trkpt lat="44.89785" lon="1.7983">
        <ele>128.5</ele>
        <time>2022-08-06T15:37:20Z</time>
      </trkpt>
      <trkpt lat="44.89779" lon="1.7982">
        <ele>128.5</ele>
        <time>2022-08-06T15:37:22Z</time>
      </trkpt>
      <trkpt lat="44.89772" lon="1.7981">
        <ele>128.5</ele>
        <time>2022-08-06T15:37:24Z</time>
      </trkpt>
      <trkpt lat="44.89766" lon="1.79801">
        <ele>128.6</ele>
        <time>2022-08-06T15:37:26Z</time>
      </trkpt>
      <trkpt lat="44.8976" lon="1.79792">
        <ele>128.7</ele>
        <time>2022-08-06T15:37:28Z</time>
      </trkpt>
      <trkpt lat="44.89754" lon="1.79782">
        <ele>128.9</ele>
        <time>2022-08-06T15:37:30Z</time>
      </trkpt>
      <trkpt lat="44.89748" lon="1.79772">
        <ele>129</ele>
        <time>2022-08-06T15:37:32Z</time>
      </trkpt>
      <trkpt lat="44.89742" lon="1.79763">
        <ele>128.8</ele>
        <time>2022-08-06T15:37:34Z</time>
      </trkpt>
      <trkpt lat="44.89737" lon="1.79755">
        <ele>128.7</ele>
        <time>2022-08-06T15:37:36Z</time>
      </trkpt>
      <trkpt lat="44.89733" lon="1.79749">
        <ele>128.6</ele>
        <time>2022-08-06T15:37:38Z</time>
      </trkpt>
      <trkpt lat="44.89731" lon="1.79745">
        <ele>128.5</ele>
        <time>2022-08-06T15:37:40Z</time>
      </trkpt>
      <trkpt lat="44.89731" lon="1.79745">
        <ele>128.5</ele>
        <time>2022-08-06T15:37:42Z</time>
      </trkpt>
      <trkpt lat="44.89731" lon="1.79746">
        <ele>128.5</ele>
        <time>2022-08-06T15:37:44Z</time>
      </trkpt>
      <trkpt lat="44.89731" lon="1.79745">
        <ele>128.5</ele>
        <time>2022-08-06T15:37:46Z</time>
      </trkpt>
      <trkpt lat="44.89731" lon="1.79745">
        <ele>128.4</ele>
        <time>2022-08-06T15:37:48Z</time>
      </trkpt>
      <trkpt lat="44.89731" lon="1.79745">
        <ele>128.4</ele>
        <time>2022-08-06T15:37:50Z</time>
      </trkpt>
      <trkpt lat="44.89716" lon="1.79725">
        <ele>127.8</ele>
        <time>2022-08-06T15:39:42Z</time>
      </trkpt>
      <trkpt lat="44.89712" lon="1.79717">
        <ele>127.7</ele>
        <time>2022-08-06T15:39:44Z</time>
      </trkpt>
      <trkpt lat="44.89706" lon="1.79709">
        <ele>127.5</ele>
        <time>2022-08-06T15:39:46Z</time>
      </trkpt>
      <trkpt lat="44.89701" lon="1.79701">
        <ele>127.3</ele>
        <time>2022-08-06T15:39:48Z</time>
      </trkpt>
      <trkpt lat="44.89695" lon="1.79693">
        <ele>127.2</ele>
        <time>2022-08-06T15:39:50Z</time>
      </trkpt>
      <trkpt lat="44.89689" lon="1.79685">
        <ele>127.1</ele>
        <time>2022-08-06T15:39:52Z</time>
      </trkpt>
      <trkpt lat="44.89683" lon="1.79677">
        <ele>127</ele>
        <time>2022-08-06T15:39:54Z</time>
      </trkpt>
      <trkpt lat="44.89678" lon="1.79668">
        <ele>127</ele>
        <time>2022-08-06T15:39:56Z</time>
      </trkpt>
      <trkpt lat="44.89672" lon="1.7966">
        <ele>126.9</ele>
        <time>2022-08-06T15:39:58Z</time>
      </trkpt>
      <trkpt lat="44.89666" lon="1.79651">
        <ele>126.8</ele>
        <time>2022-08-06T15:40:00Z</time>
      </trkpt>
      <trkpt lat="44.8966" lon="1.79641">
        <ele>126.8</ele>
        <time>2022-08-06T15:40:02Z</time>
      </trkpt>
      <trkpt lat="44.89654" lon="1.79631">
        <ele>126.8</ele>
        <time>2022-08-06T15:40:04Z</time>
      </trkpt>
      <trkpt lat="44.89647" lon="1.79622">
        <ele>126.8</ele>
        <time>2022-08-06T15:40:06Z</time>
      </trkpt>
      <trkpt lat="44.89641" lon="1.79613">
        <ele>126.9</ele>
        <time>2022-08-06T15:40:08Z</time>
      </trkpt>
      <trkpt lat="44.89634" lon="1.79603">
        <ele>126.9</ele>
        <time>2022-08-06T15:40:10Z</time>
      </trkpt>
      <trkpt lat="44.89628" lon="1.79592">
        <ele>127</ele>
        <time>2022-08-06T15:40:12Z</time>
      </trkpt>
      <trkpt lat="44.89621" lon="1.79582">
        <ele>127.1</ele>
        <time>2022-08-06T15:40:14Z</time>
      </trkpt>
      <trkpt lat="44.89615" lon="1.79572">
        <ele>127.2</ele>
        <time>2022-08-06T15:40:16Z</time>
      </trkpt>
      <trkpt lat="44.89608" lon="1.79562">
        <ele>127.3</ele>
        <time>2022-08-06T15:40:18Z</time>
      </trkpt>
      <trkpt lat="44.89601" lon="1.79553">
        <ele>127.4</ele>
        <time>2022-08-06T15:40:20Z</time>
      </trkpt>
      <trkpt lat="44.89597" lon="1.79541">
        <ele>127.3</ele>
        <time>2022-08-06T15:40:22Z</time>
      </trkpt>
      <trkpt lat="44.89595" lon="1.79528">
        <ele>127.2</ele>
        <time>2022-08-06T15:40:24Z</time>
      </trkpt>
      <trkpt lat="44.89598" lon="1.79514">
        <ele>127.1</ele>
        <time>2022-08-06T15:40:26Z</time>
      </trkpt>
      <trkpt lat="44.89602" lon="1.79501">
        <ele>127</ele>
        <time>2022-08-06T15:40:28Z</time>
      </trkpt>
      <trkpt lat="44.89606" lon="1.79489">
        <ele>127.1</ele>
        <time>2022-08-06T15:40:30Z</time>
      </trkpt>
      <trkpt lat="44.8961" lon="1.79476">
        <ele>127.1</ele>
        <time>2022-08-06T15:40:32Z</time>
      </trkpt>
      <trkpt lat="44.89614" lon="1.79462">
        <ele>127.1</ele>
        <time>2022-08-06T15:40:34Z</time>
      </trkpt>
      <trkpt lat="44.89618" lon="1.79449">
        <ele>127.1</ele>
        <time>2022-08-06T15:40:36Z</time>
      </trkpt>
      <trkpt lat="44.89623" lon="1.79436">
        <ele>127</ele>
        <time>2022-08-06T15:40:38Z</time>
      </trkpt>
      <trkpt lat="44.89628" lon="1.79422">
        <ele>126.9</ele>
        <time>2022-08-06T15:40:40Z</time>
      </trkpt>
      <trkpt lat="44.89634" lon="1.7941">
        <ele>126.8</ele>
        <time>2022-08-06T15:40:42Z</time>
      </trkpt>
      <trkpt lat="44.89642" lon="1.794">
        <ele>126.6</ele>
        <time>2022-08-06T15:40:44Z</time>
      </trkpt>
      <trkpt lat="44.89651" lon="1.79391">
        <ele>126.5</ele>
        <time>2022-08-06T15:40:46Z</time>
      </trkpt>
      <trkpt lat="44.8966" lon="1.79383">
        <ele>126.5</ele>
        <time>2022-08-06T15:40:48Z</time>
      </trkpt>
      <trkpt lat="44.89669" lon="1.79376">
        <ele>126.5</ele>
        <time>2022-08-06T15:40:50Z</time>
      </trkpt>
      <trkpt lat="44.89677" lon="1.79368">
        <ele>126.6</ele>
        <time>2022-08-06T15:40:52Z</time>
      </trkpt>
      <trkpt lat="44.89686" lon="1.7936">
        <ele>126.8</ele>
        <time>2022-08-06T15:40:54Z</time>
      </trkpt>
      <trkpt lat="44.89694" lon="1.79352">
        <ele>126.8</ele>
        <time>2022-08-06T15:40:56Z</time>
      </trkpt>
      <trkpt lat="44.89701" lon="1.79343">
        <ele>126.9</ele>
        <time>2022-08-06T15:40:58Z</time>
      </trkpt>
      <trkpt lat="44.89709" lon="1.79335">
        <ele>127</ele>
        <time>2022-08-06T15:41:00Z</time>
      </trkpt>
      <trkpt lat="44.89715" lon="1.79325">
        <ele>127.1</ele>
        <time>2022-08-06T15:41:02Z</time>
      </trkpt>
      <trkpt lat="44.89718" lon="1.79314">
        <ele>127.2</ele>
        <time>2022-08-06T15:41:04Z</time>
      </trkpt>
      <trkpt lat="44.8972" lon="1.79304">
        <ele>127.3</ele>
        <time>2022-08-06T15:41:06Z</time>
      </trkpt>
      <trkpt lat="44.89722" lon="1.79294">
        <ele>127.3</ele>
        <time>2022-08-06T15:41:08Z</time>
      </trkpt>
      <trkpt lat="44.89725" lon="1.79285">
        <ele>127.3</ele>
        <time>2022-08-06T15:41:10Z</time>
      </trkpt>
      <trkpt lat="44.8973" lon="1.79276">
        <ele>127.3</ele>
        <time>2022-08-06T15:41:12Z</time>
      </trkpt>
      <trkpt lat="44.89733" lon="1.79268">
        <ele>127.3</ele>
        <time>2022-08-06T15:41:14Z</time>
      </trkpt>
      <trkpt lat="44.89735" lon="1.79259">
        <ele>127.3</ele>
        <time>2022-08-06T15:41:16Z</time>
      </trkpt>
      <trkpt lat="44.89733" lon="1.7925">
        <ele>127.4</ele>
        <time>2022-08-06T15:41:18Z</time>
      </trkpt>
      <trkpt lat="44.89731" lon="1.79241">
        <ele>127.4</ele>
        <time>2022-08-06T15:41:20Z</time>
      </trkpt>
      <trkpt lat="44.89727" lon="1.79232">
        <ele>127.4</ele>
        <time>2022-08-06T15:41:22Z</time>
      </trkpt>
      <trkpt lat="44.89722" lon="1.79221">
        <ele>127.4</ele>
        <time>2022-08-06T15:41:24Z</time>
      </trkpt>
      <trkpt lat="44.89717" lon="1.7921">
        <ele>127.4</ele>
        <time>2022-08-06T15:41:26Z</time>
      </trkpt>
      <trkpt lat="44.89712" lon="1.79199">
        <ele>127.4</ele>
        <time>2022-08-06T15:41:28Z</time>
      </trkpt>
      <trkpt lat="44.89706" lon="1.79187">
        <ele>127.3</ele>
        <time>2022-08-06T15:41:30Z</time>
      </trkpt>
      <trkpt lat="44.89698" lon="1.79178">
        <ele>127.2</ele>
        <time>2022-08-06T15:41:32Z</time>
      </trkpt>
      <trkpt lat="44.8969" lon="1.79169">
        <ele>127</ele>
        <time>2022-08-06T15:41:34Z</time>
      </trkpt>
      <trkpt lat="44.89682" lon="1.79161">
        <ele>127</ele>
        <time>2022-08-06T15:41:36Z</time>
      </trkpt>
      <trkpt lat="44.89672" lon="1.79153">
        <ele>127</ele>
        <time>2022-08-06T15:41:38Z</time>
      </trkpt>
      <trkpt lat="44.89664" lon="1.79144">
        <ele>127</ele>
        <time>2022-08-06T15:41:40Z</time>
      </trkpt>
      <trkpt lat="44.89655" lon="1.79136">
        <ele>127.1</ele>
        <time>2022-08-06T15:41:42Z</time>
      </trkpt>
      <trkpt lat="44.89646" lon="1.79128">
        <ele>127.2</ele>
        <time>2022-08-06T15:41:44Z</time>
      </trkpt>
      <trkpt lat="44.89638" lon="1.79119">
        <ele>127.3</ele>
        <time>2022-08-06T15:41:46Z</time>
      </trkpt>
      <trkpt lat="44.8963" lon="1.7911">
        <ele>127.4</ele>
        <time>2022-08-06T15:41:48Z</time>
      </trkpt>
      <trkpt lat="44.89623" lon="1.791">
        <ele>127.5</ele>
        <time>2022-08-06T15:41:50Z</time>
      </trkpt>
      <trkpt lat="44.89617" lon="1.79088">
        <ele>127.6</ele>
        <time>2022-08-06T15:41:52Z</time>
      </trkpt>
      <trkpt lat="44.89612" lon="1.79076">
        <ele>127.6</ele>
        <time>2022-08-06T15:41:54Z</time>
      </trkpt>
      <trkpt lat="44.89607" lon="1.79064">
        <ele>127.6</ele>
        <time>2022-08-06T15:41:56Z</time>
      </trkpt>
      <trkpt lat="44.89604" lon="1.79052">
        <ele>127.6</ele>
        <time>2022-08-06T15:41:58Z</time>
      </trkpt>
      <trkpt lat="44.89602" lon="1.79038">
        <ele>127.5</ele>
        <time>2022-08-06T15:42:00Z</time>
      </trkpt>
      <trkpt lat="44.896" lon="1.79024">
        <ele>127.4</ele>
        <time>2022-08-06T15:42:02Z</time>
      </trkpt>
      <trkpt lat="44.89598" lon="1.7901">
        <ele>127.3</ele>
        <time>2022-08-06T15:42:04Z</time>
      </trkpt>
      <trkpt lat="44.89596" lon="1.78997">
        <ele>127.2</ele>
        <time>2022-08-06T15:42:06Z</time>
      </trkpt>
      <trkpt lat="44.89594" lon="1.78984">
        <ele>127.1</ele>
        <time>2022-08-06T15:42:08Z</time>
      </trkpt>
      <trkpt lat="44.89591" lon="1.7897">
        <ele>127.1</ele>
        <time>2022-08-06T15:42:10Z</time>
      </trkpt>
      <trkpt lat="44.89587" lon="1.78957">
        <ele>127</ele>
        <time>2022-08-06T15:42:12Z</time>
      </trkpt>
      <trkpt lat="44.89583" lon="1.78946">
        <ele>127</ele>
        <time>2022-08-06T15:42:14Z</time>
      </trkpt>
      <trkpt lat="44.89578" lon="1.78935">
        <ele>126.9</ele>
        <time>2022-08-06T15:42:16Z</time>
      </trkpt>
      <trkpt lat="44.89573" lon="1.78923">
        <ele>126.8</ele>
        <time>2022-08-06T15:42:18Z</time>
      </trkpt>
      <trkpt lat="44.89569" lon="1.78912">
        <ele>126.6</ele>
        <time>2022-08-06T15:42:20Z</time>
      </trkpt>
      <trkpt lat="44.89564" lon="1.789">
        <ele>126.4</ele>
        <time>2022-08-06T15:42:22Z</time>
      </trkpt>
      <trkpt lat="44.89559" lon="1.78888">
        <ele>126.3</ele>
        <time>2022-08-06T15:42:24Z</time>
      </trkpt>
      <trkpt lat="44.89553" lon="1.78877">
        <ele>126.1</ele>
        <time>2022-08-06T15:42:26Z</time>
      </trkpt>
      <trkpt lat="44.89548" lon="1.78865">
        <ele>126.1</ele>
        <time>2022-08-06T15:42:28Z</time>
      </trkpt>
      <trkpt lat="44.89543" lon="1.78854">
        <ele>126</ele>
        <time>2022-08-06T15:42:30Z</time>
      </trkpt>
      <trkpt lat="44.89539" lon="1.78844">
        <ele>126</ele>
        <time>2022-08-06T15:42:32Z</time>
      </trkpt>
      <trkpt lat="44.89534" lon="1.78834">
        <ele>126</ele>
        <time>2022-08-06T15:42:34Z</time>
      </trkpt>
      <trkpt lat="44.8953" lon="1.78824">
        <ele>126.1</ele>
        <time>2022-08-06T15:42:36Z</time>
      </trkpt>
      <trkpt lat="44.89524" lon="1.78815">
        <ele>126.2</ele>
        <time>2022-08-06T15:42:38Z</time>
      </trkpt>
      <trkpt lat="44.89518" lon="1.78805">
        <ele>126.3</ele>
        <time>2022-08-06T15:42:40Z</time>
      </trkpt>
      <trkpt lat="44.89511" lon="1.78796">
        <ele>126.4</ele>
        <time>2022-08-06T15:42:42Z</time>
      </trkpt>
      <trkpt lat="44.89503" lon="1.78789">
        <ele>126.5</ele>
        <time>2022-08-06T15:42:44Z</time>
      </trkpt>
      <trkpt lat="44.89496" lon="1.78783">
        <ele>126.7</ele>
        <time>2022-08-06T15:42:46Z</time>
      </trkpt>
      <trkpt lat="44.89489" lon="1.78776">
        <ele>126.9</ele>
        <time>2022-08-06T15:42:48Z</time>
      </trkpt>
      <trkpt lat="44.89482" lon="1.78769">
        <ele>127.1</ele>
        <time>2022-08-06T15:42:50Z</time>
      </trkpt>
      <trkpt lat="44.89474" lon="1.78762">
        <ele>127.3</ele>
        <time>2022-08-06T15:42:52Z</time>
      </trkpt>
      <trkpt lat="44.89467" lon="1.78756">
        <ele>127.4</ele>
        <time>2022-08-06T15:42:54Z</time>
      </trkpt>
      <trkpt lat="44.8946" lon="1.78749">
        <ele>127.5</ele>
        <time>2022-08-06T15:42:56Z</time>
      </trkpt>
      <trkpt lat="44.89454" lon="1.78743">
        <ele>127.6</ele>
        <time>2022-08-06T15:42:58Z</time>
      </trkpt>
      <trkpt lat="44.89448" lon="1.78736">
        <ele>127.6</ele>
        <time>2022-08-06T15:43:00Z</time>
      </trkpt>
      <trkpt lat="44.89441" lon="1.78729">
        <ele>127.7</ele>
        <time>2022-08-06T15:43:02Z</time>
      </trkpt>
      <trkpt lat="44.89435" lon="1.78723">
        <ele>127.8</ele>
        <time>2022-08-06T15:43:04Z</time>
      </trkpt>
      <trkpt lat="44.89429" lon="1.78716">
        <ele>127.9</ele>
        <time>2022-08-06T15:43:06Z</time>
      </trkpt>
      <trkpt lat="44.89423" lon="1.78709">
        <ele>127.9</ele>
        <time>2022-08-06T15:43:08Z</time>
      </trkpt>
      <trkpt lat="44.89417" lon="1.78702">
        <ele>128</ele>
        <time>2022-08-06T15:43:10Z</time>
      </trkpt>
      <trkpt lat="44.89411" lon="1.78696">
        <ele>128.3</ele>
        <time>2022-08-06T15:43:12Z</time>
      </trkpt>
      <trkpt lat="44.89405" lon="1.78689">
        <ele>128.6</ele>
        <time>2022-08-06T15:43:14Z</time>
      </trkpt>
      <trkpt lat="44.894" lon="1.78685">
        <ele>128.8</ele>
        <time>2022-08-06T15:43:16Z</time>
      </trkpt>
      <trkpt lat="44.89394" lon="1.78681">
        <ele>129</ele>
        <time>2022-08-06T15:43:18Z</time>
      </trkpt>
      <trkpt lat="44.89389" lon="1.78679">
        <ele>129.2</ele>
        <time>2022-08-06T15:43:20Z</time>
      </trkpt>
      <trkpt lat="44.89383" lon="1.78676">
        <ele>129.4</ele>
        <time>2022-08-06T15:43:22Z</time>
      </trkpt>
      <trkpt lat="44.89377" lon="1.78673">
        <ele>129.6</ele>
        <time>2022-08-06T15:43:24Z</time>
      </trkpt>
      <trkpt lat="44.89371" lon="1.7867">
        <ele>129.7</ele>
        <time>2022-08-06T15:43:26Z</time>
      </trkpt>
      <trkpt lat="44.89365" lon="1.78665">
        <ele>129.8</ele>
        <time>2022-08-06T15:43:28Z</time>
      </trkpt>
      <trkpt lat="44.89359" lon="1.78662">
        <ele>130</ele>
        <time>2022-08-06T15:43:30Z</time>
      </trkpt>
      <trkpt lat="44.89353" lon="1.78659">
        <ele>130.2</ele>
        <time>2022-08-06T15:43:32Z</time>
      </trkpt>
      <trkpt lat="44.89347" lon="1.78655">
        <ele>130.5</ele>
        <time>2022-08-06T15:43:34Z</time>
      </trkpt>
      <trkpt lat="44.89341" lon="1.78652">
        <ele>130.7</ele>
        <time>2022-08-06T15:43:36Z</time>
      </trkpt>
      <trkpt lat="44.89336" lon="1.7865">
        <ele>130.9</ele>
        <time>2022-08-06T15:43:38Z</time>
      </trkpt>
      <trkpt lat="44.89331" lon="1.78648">
        <ele>131.2</ele>
        <time>2022-08-06T15:43:40Z</time>
      </trkpt>
      <trkpt lat="44.89329" lon="1.78644">
        <ele>131.5</ele>
        <time>2022-08-06T15:43:42Z</time>
      </trkpt>
      <trkpt lat="44.89327" lon="1.78637">
        <ele>131.7</ele>
        <time>2022-08-06T15:43:44Z</time>
      </trkpt>
      <trkpt lat="44.89328" lon="1.78627">
        <ele>131.7</ele>
        <time>2022-08-06T15:43:46Z</time>
      </trkpt>
      <trkpt lat="44.89328" lon="1.78617">
        <ele>131.7</ele>
        <time>2022-08-06T15:43:48Z</time>
      </trkpt>
      <trkpt lat="44.89327" lon="1.78607">
        <ele>131.8</ele>
        <time>2022-08-06T15:43:50Z</time>
      </trkpt>
      <trkpt lat="44.89327" lon="1.78597">
        <ele>131.9</ele>
        <time>2022-08-06T15:43:52Z</time>
      </trkpt>
      <trkpt lat="44.89327" lon="1.78586">
        <ele>132</ele>
        <time>2022-08-06T15:43:54Z</time>
      </trkpt>
      <trkpt lat="44.89326" lon="1.78576">
        <ele>132.4</ele>
        <time>2022-08-06T15:43:56Z</time>
      </trkpt>
      <trkpt lat="44.89326" lon="1.78566">
        <ele>132.6</ele>
        <time>2022-08-06T15:43:58Z</time>
      </trkpt>
      <trkpt lat="44.89326" lon="1.78555">
        <ele>133.1</ele>
        <time>2022-08-06T15:44:00Z</time>
      </trkpt>
      <trkpt lat="44.89326" lon="1.78545">
        <ele>133.5</ele>
        <time>2022-08-06T15:44:02Z</time>
      </trkpt>
      <trkpt lat="44.89326" lon="1.78535">
        <ele>133.9</ele>
        <time>2022-08-06T15:44:04Z</time>
      </trkpt>
      <trkpt lat="44.89325" lon="1.78523">
        <ele>134.3</ele>
        <time>2022-08-06T15:44:06Z</time>
      </trkpt>
      <trkpt lat="44.89325" lon="1.78512">
        <ele>134.9</ele>
        <time>2022-08-06T15:44:08Z</time>
      </trkpt>
      <trkpt lat="44.89324" lon="1.78501">
        <ele>135.5</ele>
        <time>2022-08-06T15:44:10Z</time>
      </trkpt>
      <trkpt lat="44.89324" lon="1.78489">
        <ele>136</ele>
        <time>2022-08-06T15:44:12Z</time>
      </trkpt>
      <trkpt lat="44.89324" lon="1.78478">
        <ele>136.5</ele>
        <time>2022-08-06T15:44:14Z</time>
      </trkpt>
      <trkpt lat="44.89324" lon="1.78466">
        <ele>137</ele>
        <time>2022-08-06T15:44:16Z</time>
      </trkpt>
      <trkpt lat="44.89324" lon="1.78453">
        <ele>137.5</ele>
        <time>2022-08-06T15:44:18Z</time>
      </trkpt>
      <trkpt lat="44.89324" lon="1.78441">
        <ele>138</ele>
        <time>2022-08-06T15:44:20Z</time>
      </trkpt>
      <trkpt lat="44.89325" lon="1.7843">
        <ele>138.4</ele>
        <time>2022-08-06T15:44:22Z</time>
      </trkpt>
      <trkpt lat="44.89325" lon="1.78418">
        <ele>138.8</ele>
        <time>2022-08-06T15:44:24Z</time>
      </trkpt>
      <trkpt lat="44.89325" lon="1.78407">
        <ele>139.1</ele>
        <time>2022-08-06T15:44:26Z</time>
      </trkpt>
      <trkpt lat="44.89326" lon="1.78395">
        <ele>139.5</ele>
        <time>2022-08-06T15:44:28Z</time>
      </trkpt>
      <trkpt lat="44.89326" lon="1.78383">
        <ele>139.8</ele>
        <time>2022-08-06T15:44:30Z</time>
      </trkpt>
      <trkpt lat="44.89327" lon="1.78371">
        <ele>140.1</ele>
        <time>2022-08-06T15:44:32Z</time>
      </trkpt>
      <trkpt lat="44.89327" lon="1.78359">
        <ele>140.3</ele>
        <time>2022-08-06T15:44:34Z</time>
      </trkpt>
      <trkpt lat="44.89328" lon="1.78346">
        <ele>140.6</ele>
        <time>2022-08-06T15:44:36Z</time>
      </trkpt>
      <trkpt lat="44.89329" lon="1.78333">
        <ele>140.8</ele>
        <time>2022-08-06T15:44:38Z</time>
      </trkpt>
      <trkpt lat="44.8933" lon="1.78321">
        <ele>140.7</ele>
        <time>2022-08-06T15:44:40Z</time>
      </trkpt>
      <trkpt lat="44.8933" lon="1.78308">
        <ele>140.7</ele>
        <time>2022-08-06T15:44:42Z</time>
      </trkpt>
      <trkpt lat="44.89331" lon="1.78295">
        <ele>140.7</ele>
        <time>2022-08-06T15:44:44Z</time>
      </trkpt>
      <trkpt lat="44.89332" lon="1.78282">
        <ele>140.7</ele>
        <time>2022-08-06T15:44:46Z</time>
      </trkpt>
      <trkpt lat="44.89333" lon="1.78269">
        <ele>140.7</ele>
        <time>2022-08-06T15:44:48Z</time>
      </trkpt>
      <trkpt lat="44.89334" lon="1.78256">
        <ele>140.8</ele>
        <time>2022-08-06T15:44:50Z</time>
      </trkpt>
      <trkpt lat="44.89334" lon="1.78242">
        <ele>140.8</ele>
        <time>2022-08-06T15:44:52Z</time>
      </trkpt>
      <trkpt lat="44.89335" lon="1.78229">
        <ele>140.6</ele>
        <time>2022-08-06T15:44:54Z</time>
      </trkpt>
      <trkpt lat="44.89336" lon="1.78216">
        <ele>140.5</ele>
        <time>2022-08-06T15:44:56Z</time>
      </trkpt>
      <trkpt lat="44.89337" lon="1.78204">
        <ele>140.3</ele>
        <time>2022-08-06T15:44:58Z</time>
      </trkpt>
      <trkpt lat="44.89338" lon="1.78192">
        <ele>140.1</ele>
        <time>2022-08-06T15:45:00Z</time>
      </trkpt>
      <trkpt lat="44.89339" lon="1.78179">
        <ele>140</ele>
        <time>2022-08-06T15:45:02Z</time>
      </trkpt>
      <trkpt lat="44.89339" lon="1.78168">
        <ele>140</ele>
        <time>2022-08-06T15:45:04Z</time>
      </trkpt>
      <trkpt lat="44.8934" lon="1.78156">
        <ele>140.2</ele>
        <time>2022-08-06T15:45:06Z</time>
      </trkpt>
      <trkpt lat="44.89342" lon="1.78145">
        <ele>140.4</ele>
        <time>2022-08-06T15:45:08Z</time>
      </trkpt>
      <trkpt lat="44.89342" lon="1.78134">
        <ele>140.8</ele>
        <time>2022-08-06T15:45:10Z</time>
      </trkpt>
      <trkpt lat="44.89343" lon="1.78125">
        <ele>141.1</ele>
        <time>2022-08-06T15:45:12Z</time>
      </trkpt>
      <trkpt lat="44.89343" lon="1.78115">
        <ele>141.5</ele>
        <time>2022-08-06T15:45:14Z</time>
      </trkpt>
      <trkpt lat="44.89343" lon="1.78105">
        <ele>141.9</ele>
        <time>2022-08-06T15:45:16Z</time>
      </trkpt>
      <trkpt lat="44.89344" lon="1.78093">
        <ele>142.2</ele>
        <time>2022-08-06T15:45:18Z</time>
      </trkpt>
      <trkpt lat="44.89345" lon="1.78084">
        <ele>142.5</ele>
        <time>2022-08-06T15:45:20Z</time>
      </trkpt>
      <trkpt lat="44.89346" lon="1.78074">
        <ele>142</ele>
        <time>2022-08-06T15:45:22Z</time>
      </trkpt>
      <trkpt lat="44.89346" lon="1.78065">
        <ele>141.8</ele>
        <time>2022-08-06T15:45:24Z</time>
      </trkpt>
      <trkpt lat="44.89347" lon="1.78056">
        <ele>141.4</ele>
        <time>2022-08-06T15:45:26Z</time>
      </trkpt>
      <trkpt lat="44.89347" lon="1.78047">
        <ele>141.1</ele>
        <time>2022-08-06T15:45:28Z</time>
      </trkpt>
      <trkpt lat="44.89348" lon="1.78038">
        <ele>140.7</ele>
        <time>2022-08-06T15:45:30Z</time>
      </trkpt>
      <trkpt lat="44.89349" lon="1.78028">
        <ele>140.4</ele>
        <time>2022-08-06T15:45:32Z</time>
      </trkpt>
      <trkpt lat="44.89349" lon="1.7802">
        <ele>140</ele>
        <time>2022-08-06T15:45:34Z</time>
      </trkpt>
      <trkpt lat="44.8935" lon="1.7801">
        <ele>139.6</ele>
        <time>2022-08-06T15:45:36Z</time>
      </trkpt>
      <trkpt lat="44.89351" lon="1.78002">
        <ele>139.2</ele>
        <time>2022-08-06T15:45:38Z</time>
      </trkpt>
      <trkpt lat="44.89351" lon="1.77993">
        <ele>139.2</ele>
        <time>2022-08-06T15:45:40Z</time>
      </trkpt>
      <trkpt lat="44.89351" lon="1.77984">
        <ele>139.1</ele>
        <time>2022-08-06T15:45:42Z</time>
      </trkpt>
      <trkpt lat="44.89352" lon="1.77975">
        <ele>139</ele>
        <time>2022-08-06T15:45:44Z</time>
      </trkpt>
      <trkpt lat="44.89353" lon="1.77966">
        <ele>138.9</ele>
        <time>2022-08-06T15:45:46Z</time>
      </trkpt>
      <trkpt lat="44.89354" lon="1.77956">
        <ele>138.7</ele>
        <time>2022-08-06T15:45:48Z</time>
      </trkpt>
      <trkpt lat="44.89355" lon="1.77946">
        <ele>138.5</ele>
        <time>2022-08-06T15:45:50Z</time>
      </trkpt>
      <trkpt lat="44.89357" lon="1.77935">
        <ele>138.1</ele>
        <time>2022-08-06T15:45:52Z</time>
      </trkpt>
      <trkpt lat="44.89358" lon="1.77924">
        <ele>137.9</ele>
        <time>2022-08-06T15:45:54Z</time>
      </trkpt>
      <trkpt lat="44.8936" lon="1.77914">
        <ele>137.7</ele>
        <time>2022-08-06T15:45:56Z</time>
      </trkpt>
      <trkpt lat="44.89363" lon="1.77902">
        <ele>137.8</ele>
        <time>2022-08-06T15:45:58Z</time>
      </trkpt>
      <trkpt lat="44.89365" lon="1.7789">
        <ele>138</ele>
        <time>2022-08-06T15:46:00Z</time>
      </trkpt>
      <trkpt lat="44.89367" lon="1.77879">
        <ele>138.1</ele>
        <time>2022-08-06T15:46:02Z</time>
      </trkpt>
      <trkpt lat="44.8937" lon="1.77868">
        <ele>138.1</ele>
        <time>2022-08-06T15:46:04Z</time>
      </trkpt>
      <trkpt lat="44.89373" lon="1.77855">
        <ele>138</ele>
        <time>2022-08-06T15:46:06Z</time>
      </trkpt>
      <trkpt lat="44.89376" lon="1.77843">
        <ele>137.8</ele>
        <time>2022-08-06T15:46:08Z</time>
      </trkpt>
      <trkpt lat="44.8938" lon="1.77831">
        <ele>137.7</ele>
        <time>2022-08-06T15:46:10Z</time>
      </trkpt>
      <trkpt lat="44.89384" lon="1.77817">
        <ele>138.4</ele>
        <time>2022-08-06T15:46:12Z</time>
      </trkpt>
      <trkpt lat="44.89388" lon="1.77803">
        <ele>139</ele>
        <time>2022-08-06T15:46:14Z</time>
      </trkpt>
      <trkpt lat="44.89392" lon="1.77789">
        <ele>139.6</ele>
        <time>2022-08-06T15:46:16Z</time>
      </trkpt>
      <trkpt lat="44.89395" lon="1.77776">
        <ele>140</ele>
        <time>2022-08-06T15:46:18Z</time>
      </trkpt>
      <trkpt lat="44.89399" lon="1.77762">
        <ele>140.1</ele>
        <time>2022-08-06T15:46:20Z</time>
      </trkpt>
      <trkpt lat="44.89402" lon="1.77747">
        <ele>140.3</ele>
        <time>2022-08-06T15:46:22Z</time>
      </trkpt>
      <trkpt lat="44.89407" lon="1.77732">
        <ele>140.9</ele>
        <time>2022-08-06T15:46:24Z</time>
      </trkpt>
      <trkpt lat="44.89412" lon="1.77717">
        <ele>141.1</ele>
        <time>2022-08-06T15:46:26Z</time>
      </trkpt>
      <trkpt lat="44.89416" lon="1.77701">
        <ele>141.3</ele>
        <time>2022-08-06T15:46:28Z</time>
      </trkpt>
      <trkpt lat="44.8942" lon="1.77687">
        <ele>142.4</ele>
        <time>2022-08-06T15:46:30Z</time>
      </trkpt>
      <trkpt lat="44.89425" lon="1.77671">
        <ele>143.6</ele>
        <time>2022-08-06T15:46:32Z</time>
      </trkpt>
      <trkpt lat="44.8943" lon="1.77656">
        <ele>144.6</ele>
        <time>2022-08-06T15:46:34Z</time>
      </trkpt>
      <trkpt lat="44.89434" lon="1.77641">
        <ele>146</ele>
        <time>2022-08-06T15:46:36Z</time>
      </trkpt>
      <trkpt lat="44.89438" lon="1.77626">
        <ele>147</ele>
        <time>2022-08-06T15:46:38Z</time>
      </trkpt>
      <trkpt lat="44.89443" lon="1.77611">
        <ele>147.3</ele>
        <time>2022-08-06T15:46:40Z</time>
      </trkpt>
      <trkpt lat="44.89448" lon="1.77595">
        <ele>147.5</ele>
        <time>2022-08-06T15:46:42Z</time>
      </trkpt>
      <trkpt lat="44.89453" lon="1.77581">
        <ele>147.3</ele>
        <time>2022-08-06T15:46:44Z</time>
      </trkpt>
      <trkpt lat="44.89459" lon="1.77566">
        <ele>147.2</ele>
        <time>2022-08-06T15:46:46Z</time>
      </trkpt>
      <trkpt lat="44.89464" lon="1.77551">
        <ele>146.9</ele>
        <time>2022-08-06T15:46:48Z</time>
      </trkpt>
      <trkpt lat="44.89468" lon="1.77537">
        <ele>146.7</ele>
        <time>2022-08-06T15:46:50Z</time>
      </trkpt>
      <trkpt lat="44.89472" lon="1.77522">
        <ele>146.6</ele>
        <time>2022-08-06T15:46:52Z</time>
      </trkpt>
      <trkpt lat="44.89477" lon="1.77509">
        <ele>145.5</ele>
        <time>2022-08-06T15:46:54Z</time>
      </trkpt>
      <trkpt lat="44.89482" lon="1.77497">
        <ele>143.9</ele>
        <time>2022-08-06T15:46:56Z</time>
      </trkpt>
      <trkpt lat="44.89489" lon="1.77485">
        <ele>142.1</ele>
        <time>2022-08-06T15:46:58Z</time>
      </trkpt>
      <trkpt lat="44.89495" lon="1.77472">
        <ele>140.5</ele>
        <time>2022-08-06T15:47:00Z</time>
      </trkpt>
      <trkpt lat="44.89501" lon="1.77465">
        <ele>139</ele>
        <time>2022-08-06T15:47:02Z</time>
      </trkpt>
      <trkpt lat="44.89502" lon="1.77465">
        <ele>138.6</ele>
        <time>2022-08-06T15:47:04Z</time>
      </trkpt>
      <trkpt lat="44.89503" lon="1.77464">
        <ele>138.6</ele>
        <time>2022-08-06T15:47:06Z</time>
      </trkpt>
      <trkpt lat="44.89504" lon="1.77464">
        <ele>138.5</ele>
        <time>2022-08-06T15:47:08Z</time>
      </trkpt>
      <trkpt lat="44.89504" lon="1.77464">
        <ele>138.5</ele>
        <time>2022-08-06T15:47:10Z</time>
      </trkpt>
      <trkpt lat="44.89505" lon="1.77463">
        <ele>138.4</ele>
        <time>2022-08-06T15:47:12Z</time>
      </trkpt>
      <trkpt lat="44.89521" lon="1.77432">
        <ele>138.8</ele>
        <time>2022-08-06T15:47:40Z</time>
      </trkpt>
      <trkpt lat="44.89525" lon="1.77426">
        <ele>138.4</ele>
        <time>2022-08-06T15:47:42Z</time>
      </trkpt>
      <trkpt lat="44.89529" lon="1.77418">
        <ele>138.2</ele>
        <time>2022-08-06T15:47:44Z</time>
      </trkpt>
      <trkpt lat="44.89534" lon="1.7741">
        <ele>137.8</ele>
        <time>2022-08-06T15:47:46Z</time>
      </trkpt>
      <trkpt lat="44.89538" lon="1.77401">
        <ele>137.5</ele>
        <time>2022-08-06T15:47:48Z</time>
      </trkpt>
      <trkpt lat="44.89541" lon="1.77393">
        <ele>137.3</ele>
        <time>2022-08-06T15:47:50Z</time>
      </trkpt>
      <trkpt lat="44.89546" lon="1.77382">
        <ele>137.1</ele>
        <time>2022-08-06T15:47:52Z</time>
      </trkpt>
      <trkpt lat="44.8955" lon="1.77371">
        <ele>136.9</ele>
        <time>2022-08-06T15:47:54Z</time>
      </trkpt>
      <trkpt lat="44.89554" lon="1.77361">
        <ele>136.8</ele>
        <time>2022-08-06T15:47:56Z</time>
      </trkpt>
      <trkpt lat="44.89557" lon="1.7735">
        <ele>136.6</ele>
        <time>2022-08-06T15:47:58Z</time>
      </trkpt>
      <trkpt lat="44.89561" lon="1.77339">
        <ele>136.6</ele>
        <time>2022-08-06T15:48:00Z</time>
      </trkpt>
      <trkpt lat="44.89563" lon="1.77327">
        <ele>136.7</ele>
        <time>2022-08-06T15:48:02Z</time>
      </trkpt>
      <trkpt lat="44.89566" lon="1.77316">
        <ele>136.8</ele>
        <time>2022-08-06T15:48:04Z</time>
      </trkpt>
      <trkpt lat="44.89567" lon="1.77304">
        <ele>137.2</ele>
        <time>2022-08-06T15:48:06Z</time>
      </trkpt>
      <trkpt lat="44.89569" lon="1.77292">
        <ele>137.5</ele>
        <time>2022-08-06T15:48:08Z</time>
      </trkpt>
      <trkpt lat="44.8957" lon="1.7728">
        <ele>137.9</ele>
        <time>2022-08-06T15:48:10Z</time>
      </trkpt>
      <trkpt lat="44.8957" lon="1.77268">
        <ele>138.3</ele>
        <time>2022-08-06T15:48:12Z</time>
      </trkpt>
      <trkpt lat="44.89571" lon="1.77256">
        <ele>139.1</ele>
        <time>2022-08-06T15:48:14Z</time>
      </trkpt>
      <trkpt lat="44.8957" lon="1.77244">
        <ele>139.8</ele>
        <time>2022-08-06T15:48:16Z</time>
      </trkpt>
      <trkpt lat="44.89569" lon="1.77232">
        <ele>140.7</ele>
        <time>2022-08-06T15:48:18Z</time>
      </trkpt>
      <trkpt lat="44.89569" lon="1.77219">
        <ele>141.1</ele>
        <time>2022-08-06T15:48:20Z</time>
      </trkpt>
      <trkpt lat="44.89569" lon="1.77207">
        <ele>141.5</ele>
        <time>2022-08-06T15:48:22Z</time>
      </trkpt>
      <trkpt lat="44.89569" lon="1.77195">
        <ele>142.2</ele>
        <time>2022-08-06T15:48:24Z</time>
      </trkpt>
      <trkpt lat="44.89569" lon="1.77182">
        <ele>142.8</ele>
        <time>2022-08-06T15:48:26Z</time>
      </trkpt>
      <trkpt lat="44.89568" lon="1.77169">
        <ele>143.4</ele>
        <time>2022-08-06T15:48:28Z</time>
      </trkpt>
      <trkpt lat="44.89569" lon="1.77157">
        <ele>143.5</ele>
        <time>2022-08-06T15:48:30Z</time>
      </trkpt>
      <trkpt lat="44.8957" lon="1.77144">
        <ele>143.5</ele>
        <time>2022-08-06T15:48:32Z</time>
      </trkpt>
      <trkpt lat="44.89571" lon="1.77131">
        <ele>143.5</ele>
        <time>2022-08-06T15:48:34Z</time>
      </trkpt>
      <trkpt lat="44.89572" lon="1.77117">
        <ele>143.1</ele>
        <time>2022-08-06T15:48:36Z</time>
      </trkpt>
      <trkpt lat="44.89574" lon="1.77103">
        <ele>142.1</ele>
        <time>2022-08-06T15:48:38Z</time>
      </trkpt>
      <trkpt lat="44.89576" lon="1.7709">
        <ele>141.3</ele>
        <time>2022-08-06T15:48:40Z</time>
      </trkpt>
      <trkpt lat="44.89579" lon="1.77077">
        <ele>139.9</ele>
        <time>2022-08-06T15:48:42Z</time>
      </trkpt>
      <trkpt lat="44.89583" lon="1.77064">
        <ele>138.1</ele>
        <time>2022-08-06T15:48:44Z</time>
      </trkpt>
      <trkpt lat="44.89587" lon="1.77051">
        <ele>138.4</ele>
        <time>2022-08-06T15:48:46Z</time>
      </trkpt>
      <trkpt lat="44.89589" lon="1.77038">
        <ele>139.2</ele>
        <time>2022-08-06T15:48:48Z</time>
      </trkpt>
      <trkpt lat="44.89592" lon="1.77025">
        <ele>139.7</ele>
        <time>2022-08-06T15:48:50Z</time>
      </trkpt>
      <trkpt lat="44.89596" lon="1.77011">
        <ele>139.9</ele>
        <time>2022-08-06T15:48:52Z</time>
      </trkpt>
      <trkpt lat="44.89599" lon="1.76997">
        <ele>140.3</ele>
        <time>2022-08-06T15:48:54Z</time>
      </trkpt>
      <trkpt lat="44.89602" lon="1.76984">
        <ele>141</ele>
        <time>2022-08-06T15:48:56Z</time>
      </trkpt>
      <trkpt lat="44.89605" lon="1.7697">
        <ele>141.6</ele>
        <time>2022-08-06T15:48:58Z</time>
      </trkpt>
      <trkpt lat="44.89609" lon="1.76957">
        <ele>142.1</ele>
        <time>2022-08-06T15:49:00Z</time>
      </trkpt>
      <trkpt lat="44.89612" lon="1.76943">
        <ele>142.5</ele>
        <time>2022-08-06T15:49:02Z</time>
      </trkpt>
      <trkpt lat="44.89616" lon="1.76929">
        <ele>142.5</ele>
        <time>2022-08-06T15:49:04Z</time>
      </trkpt>
      <trkpt lat="44.89619" lon="1.76915">
        <ele>142.8</ele>
        <time>2022-08-06T15:49:06Z</time>
      </trkpt>
      <trkpt lat="44.89623" lon="1.76901">
        <ele>143.4</ele>
        <time>2022-08-06T15:49:08Z</time>
      </trkpt>
      <trkpt lat="44.89626" lon="1.76886">
        <ele>144.3</ele>
        <time>2022-08-06T15:49:10Z</time>
      </trkpt>
      <trkpt lat="44.89629" lon="1.76872">
        <ele>144.5</ele>
        <time>2022-08-06T15:49:12Z</time>
      </trkpt>
      <trkpt lat="44.89633" lon="1.76857">
        <ele>144.9</ele>
        <time>2022-08-06T15:49:14Z</time>
      </trkpt>
      <trkpt lat="44.89636" lon="1.76842">
        <ele>144.9</ele>
        <time>2022-08-06T15:49:16Z</time>
      </trkpt>
      <trkpt lat="44.89639" lon="1.76828">
        <ele>145</ele>
        <time>2022-08-06T15:49:18Z</time>
      </trkpt>
      <trkpt lat="44.89642" lon="1.76814">
        <ele>144.9</ele>
        <time>2022-08-06T15:49:20Z</time>
      </trkpt>
      <trkpt lat="44.89645" lon="1.768">
        <ele>144.7</ele>
        <time>2022-08-06T15:49:22Z</time>
      </trkpt>
      <trkpt lat="44.89649" lon="1.76786">
        <ele>143.7</ele>
        <time>2022-08-06T15:49:24Z</time>
      </trkpt>
      <trkpt lat="44.89653" lon="1.76771">
        <ele>142.2</ele>
        <time>2022-08-06T15:49:26Z</time>
      </trkpt>
      <trkpt lat="44.89658" lon="1.76756">
        <ele>140.8</ele>
        <time>2022-08-06T15:49:28Z</time>
      </trkpt>
      <trkpt lat="44.89662" lon="1.76741">
        <ele>139.9</ele>
        <time>2022-08-06T15:49:30Z</time>
      </trkpt>
      <trkpt lat="44.89666" lon="1.76727">
        <ele>138.9</ele>
        <time>2022-08-06T15:49:32Z</time>
      </trkpt>
      <trkpt lat="44.8967" lon="1.76714">
        <ele>139.6</ele>
        <time>2022-08-06T15:49:34Z</time>
      </trkpt>
      <trkpt lat="44.89675" lon="1.76701">
        <ele>140</ele>
        <time>2022-08-06T15:49:36Z</time>
      </trkpt>
      <trkpt lat="44.89679" lon="1.76687">
        <ele>140.3</ele>
        <time>2022-08-06T15:49:38Z</time>
      </trkpt>
      <trkpt lat="44.89684" lon="1.76674">
        <ele>140.3</ele>
        <time>2022-08-06T15:49:40Z</time>
      </trkpt>
      <trkpt lat="44.89688" lon="1.76661">
        <ele>141.1</ele>
        <time>2022-08-06T15:49:42Z</time>
      </trkpt>
      <trkpt lat="44.89693" lon="1.76649">
        <ele>142.5</ele>
        <time>2022-08-06T15:49:44Z</time>
      </trkpt>
      <trkpt lat="44.89697" lon="1.76636">
        <ele>143.8</ele>
        <time>2022-08-06T15:49:46Z</time>
      </trkpt>
      <trkpt lat="44.89701" lon="1.76624">
        <ele>145</ele>
        <time>2022-08-06T15:49:48Z</time>
      </trkpt>
      <trkpt lat="44.89705" lon="1.76612">
        <ele>145.5</ele>
        <time>2022-08-06T15:49:50Z</time>
      </trkpt>
      <trkpt lat="44.8971" lon="1.76601">
        <ele>145.7</ele>
        <time>2022-08-06T15:49:52Z</time>
      </trkpt>
      <trkpt lat="44.89713" lon="1.76589">
        <ele>146</ele>
        <time>2022-08-06T15:49:54Z</time>
      </trkpt>
      <trkpt lat="44.89717" lon="1.76578">
        <ele>146.1</ele>
        <time>2022-08-06T15:49:56Z</time>
      </trkpt>
      <trkpt lat="44.89721" lon="1.76566">
        <ele>145.9</ele>
        <time>2022-08-06T15:49:58Z</time>
      </trkpt>
      <trkpt lat="44.89725" lon="1.76555">
        <ele>145.6</ele>
        <time>2022-08-06T15:50:00Z</time>
      </trkpt>
      <trkpt lat="44.89729" lon="1.76544">
        <ele>145.4</ele>
        <time>2022-08-06T15:50:02Z</time>
      </trkpt>
      <trkpt lat="44.89734" lon="1.76532">
        <ele>145</ele>
        <time>2022-08-06T15:50:04Z</time>
      </trkpt>
      <trkpt lat="44.89737" lon="1.76524">
        <ele>144.9</ele>
        <time>2022-08-06T15:50:06Z</time>
      </trkpt>
      <trkpt lat="44.89741" lon="1.76512">
        <ele>144.7</ele>
        <time>2022-08-06T15:50:08Z</time>
      </trkpt>
      <trkpt lat="44.89745" lon="1.76501">
        <ele>144.3</ele>
        <time>2022-08-06T15:50:10Z</time>
      </trkpt>
      <trkpt lat="44.89749" lon="1.76491">
        <ele>143.2</ele>
        <time>2022-08-06T15:50:12Z</time>
      </trkpt>
      <trkpt lat="44.89752" lon="1.7648">
        <ele>143.1</ele>
        <time>2022-08-06T15:50:14Z</time>
      </trkpt>
      <trkpt lat="44.89756" lon="1.76469">
        <ele>143.1</ele>
        <time>2022-08-06T15:50:16Z</time>
      </trkpt>
      <trkpt lat="44.89759" lon="1.76458">
        <ele>143.2</ele>
        <time>2022-08-06T15:50:18Z</time>
      </trkpt>
      <trkpt lat="44.89762" lon="1.76447">
        <ele>143.3</ele>
        <time>2022-08-06T15:50:20Z</time>
      </trkpt>
      <trkpt lat="44.89763" lon="1.76435">
        <ele>143.6</ele>
        <time>2022-08-06T15:50:22Z</time>
      </trkpt>
      <trkpt lat="44.89765" lon="1.76423">
        <ele>143.9</ele>
        <time>2022-08-06T15:50:24Z</time>
      </trkpt>
      <trkpt lat="44.89766" lon="1.76411">
        <ele>143.8</ele>
        <time>2022-08-06T15:50:26Z</time>
      </trkpt>
      <trkpt lat="44.89767" lon="1.76399">
        <ele>142.9</ele>
        <time>2022-08-06T15:50:28Z</time>
      </trkpt>
      <trkpt lat="44.89767" lon="1.76385">
        <ele>142.1</ele>
        <time>2022-08-06T15:50:30Z</time>
      </trkpt>
      <trkpt lat="44.89769" lon="1.7637">
        <ele>140.8</ele>
        <time>2022-08-06T15:50:32Z</time>
      </trkpt>
      <trkpt lat="44.89768" lon="1.76356">
        <ele>140.3</ele>
        <time>2022-08-06T15:50:34Z</time>
      </trkpt>
      <trkpt lat="44.89769" lon="1.76342">
        <ele>139.3</ele>
        <time>2022-08-06T15:50:36Z</time>
      </trkpt>
      <trkpt lat="44.8977" lon="1.76328">
        <ele>138.3</ele>
        <time>2022-08-06T15:50:38Z</time>
      </trkpt>
      <trkpt lat="44.89771" lon="1.76315">
        <ele>137</ele>
        <time>2022-08-06T15:50:40Z</time>
      </trkpt>
      <trkpt lat="44.89772" lon="1.76301">
        <ele>135.8</ele>
        <time>2022-08-06T15:50:42Z</time>
      </trkpt>
      <trkpt lat="44.89772" lon="1.76288">
        <ele>134.8</ele>
        <time>2022-08-06T15:50:44Z</time>
      </trkpt>
      <trkpt lat="44.89773" lon="1.76275">
        <ele>133.7</ele>
        <time>2022-08-06T15:50:46Z</time>
      </trkpt>
      <trkpt lat="44.89773" lon="1.76263">
        <ele>132.8</ele>
        <time>2022-08-06T15:50:48Z</time>
      </trkpt>
      <trkpt lat="44.89773" lon="1.7625">
        <ele>131.8</ele>
        <time>2022-08-06T15:50:50Z</time>
      </trkpt>
      <trkpt lat="44.89772" lon="1.76238">
        <ele>132.6</ele>
        <time>2022-08-06T15:50:52Z</time>
      </trkpt>
      <trkpt lat="44.89773" lon="1.76224">
        <ele>133.2</ele>
        <time>2022-08-06T15:50:54Z</time>
      </trkpt>
      <trkpt lat="44.89775" lon="1.76213">
        <ele>133.6</ele>
        <time>2022-08-06T15:50:56Z</time>
      </trkpt>
      <trkpt lat="44.8978" lon="1.76202">
        <ele>133.5</ele>
        <time>2022-08-06T15:50:58Z</time>
      </trkpt>
      <trkpt lat="44.89783" lon="1.76191">
        <ele>133.7</ele>
        <time>2022-08-06T15:51:00Z</time>
      </trkpt>
      <trkpt lat="44.89785" lon="1.7618">
        <ele>134</ele>
        <time>2022-08-06T15:51:02Z</time>
      </trkpt>
      <trkpt lat="44.89787" lon="1.76168">
        <ele>134.1</ele>
        <time>2022-08-06T15:51:04Z</time>
      </trkpt>
      <trkpt lat="44.8979" lon="1.76157">
        <ele>136</ele>
        <time>2022-08-06T15:51:06Z</time>
      </trkpt>
      <trkpt lat="44.89794" lon="1.76145">
        <ele>138.2</ele>
        <time>2022-08-06T15:51:08Z</time>
      </trkpt>
      <trkpt lat="44.89798" lon="1.76133">
        <ele>140</ele>
        <time>2022-08-06T15:51:10Z</time>
      </trkpt>
      <trkpt lat="44.89801" lon="1.76121">
        <ele>141.7</ele>
        <time>2022-08-06T15:51:12Z</time>
      </trkpt>
      <trkpt lat="44.89805" lon="1.76109">
        <ele>143.2</ele>
        <time>2022-08-06T15:51:14Z</time>
      </trkpt>
      <trkpt lat="44.89811" lon="1.76099">
        <ele>144.1</ele>
        <time>2022-08-06T15:51:16Z</time>
      </trkpt>
      <trkpt lat="44.89816" lon="1.76089">
        <ele>144.7</ele>
        <time>2022-08-06T15:51:18Z</time>
      </trkpt>
      <trkpt lat="44.89822" lon="1.76079">
        <ele>145.4</ele>
        <time>2022-08-06T15:51:20Z</time>
      </trkpt>
      <trkpt lat="44.89828" lon="1.76069">
        <ele>146.4</ele>
        <time>2022-08-06T15:51:22Z</time>
      </trkpt>
      <trkpt lat="44.89834" lon="1.7606">
        <ele>147.5</ele>
        <time>2022-08-06T15:51:24Z</time>
      </trkpt>
      <trkpt lat="44.89841" lon="1.76049">
        <ele>148.7</ele>
        <time>2022-08-06T15:51:26Z</time>
      </trkpt>
      <trkpt lat="44.89848" lon="1.76039">
        <ele>149.5</ele>
        <time>2022-08-06T15:51:28Z</time>
      </trkpt>
      <trkpt lat="44.89853" lon="1.76028">
        <ele>150.4</ele>
        <time>2022-08-06T15:51:30Z</time>
      </trkpt>
      <trkpt lat="44.8986" lon="1.76017">
        <ele>150.5</ele>
        <time>2022-08-06T15:51:32Z</time>
      </trkpt>
      <trkpt lat="44.89867" lon="1.76007">
        <ele>150.1</ele>
        <time>2022-08-06T15:51:34Z</time>
      </trkpt>
      <trkpt lat="44.89873" lon="1.75996">
        <ele>149.3</ele>
        <time>2022-08-06T15:51:36Z</time>
      </trkpt>
      <trkpt lat="44.8988" lon="1.75985">
        <ele>148.5</ele>
        <time>2022-08-06T15:51:38Z</time>
      </trkpt>
      <trkpt lat="44.89887" lon="1.75973">
        <ele>147.3</ele>
        <time>2022-08-06T15:51:40Z</time>
      </trkpt>
      <trkpt lat="44.89892" lon="1.75961">
        <ele>146.5</ele>
        <time>2022-08-06T15:51:42Z</time>
      </trkpt>
      <trkpt lat="44.89898" lon="1.75949">
        <ele>145.3</ele>
        <time>2022-08-06T15:51:44Z</time>
      </trkpt>
      <trkpt lat="44.89903" lon="1.75938">
        <ele>143.8</ele>
        <time>2022-08-06T15:51:46Z</time>
      </trkpt>
      <trkpt lat="44.89907" lon="1.75927">
        <ele>143.3</ele>
        <time>2022-08-06T15:51:48Z</time>
      </trkpt>
      <trkpt lat="44.89912" lon="1.75915">
        <ele>141.7</ele>
        <time>2022-08-06T15:51:50Z</time>
      </trkpt>
      <trkpt lat="44.89917" lon="1.75903">
        <ele>140.9</ele>
        <time>2022-08-06T15:51:52Z</time>
      </trkpt>
      <trkpt lat="44.89921" lon="1.75892">
        <ele>141.6</ele>
        <time>2022-08-06T15:51:54Z</time>
      </trkpt>
      <trkpt lat="44.89927" lon="1.7588">
        <ele>141.9</ele>
        <time>2022-08-06T15:51:56Z</time>
      </trkpt>
      <trkpt lat="44.89931" lon="1.75869">
        <ele>142.2</ele>
        <time>2022-08-06T15:51:58Z</time>
      </trkpt>
      <trkpt lat="44.89935" lon="1.75856">
        <ele>142.5</ele>
        <time>2022-08-06T15:52:00Z</time>
      </trkpt>
      <trkpt lat="44.8994" lon="1.75845">
        <ele>142.7</ele>
        <time>2022-08-06T15:52:02Z</time>
      </trkpt>
      <trkpt lat="44.89944" lon="1.75832">
        <ele>142.9</ele>
        <time>2022-08-06T15:52:04Z</time>
      </trkpt>
      <trkpt lat="44.89948" lon="1.75818">
        <ele>144</ele>
        <time>2022-08-06T15:52:06Z</time>
      </trkpt>
      <trkpt lat="44.89952" lon="1.75806">
        <ele>144.8</ele>
        <time>2022-08-06T15:52:08Z</time>
      </trkpt>
      <trkpt lat="44.89958" lon="1.75792">
        <ele>144.9</ele>
        <time>2022-08-06T15:52:10Z</time>
      </trkpt>
      <trkpt lat="44.89963" lon="1.75779">
        <ele>144.8</ele>
        <time>2022-08-06T15:52:12Z</time>
      </trkpt>
      <trkpt lat="44.89968" lon="1.75766">
        <ele>144.4</ele>
        <time>2022-08-06T15:52:14Z</time>
      </trkpt>
      <trkpt lat="44.89972" lon="1.75753">
        <ele>143.9</ele>
        <time>2022-08-06T15:52:16Z</time>
      </trkpt>
      <trkpt lat="44.89978" lon="1.75739">
        <ele>143.3</ele>
        <time>2022-08-06T15:52:18Z</time>
      </trkpt>
      <trkpt lat="44.89983" lon="1.75725">
        <ele>142.6</ele>
        <time>2022-08-06T15:52:20Z</time>
      </trkpt>
      <trkpt lat="44.89988" lon="1.75712">
        <ele>141.9</ele>
        <time>2022-08-06T15:52:22Z</time>
      </trkpt>
      <trkpt lat="44.89994" lon="1.75697">
        <ele>140.6</ele>
        <time>2022-08-06T15:52:24Z</time>
      </trkpt>
      <trkpt lat="44.9" lon="1.75683">
        <ele>138.9</ele>
        <time>2022-08-06T15:52:26Z</time>
      </trkpt>
      <trkpt lat="44.90007" lon="1.75669">
        <ele>139.6</ele>
        <time>2022-08-06T15:52:28Z</time>
      </trkpt>
      <trkpt lat="44.90014" lon="1.75656">
        <ele>141.1</ele>
        <time>2022-08-06T15:52:30Z</time>
      </trkpt>
      <trkpt lat="44.90022" lon="1.75644">
        <ele>142</ele>
        <time>2022-08-06T15:52:32Z</time>
      </trkpt>
      <trkpt lat="44.9003" lon="1.75634">
        <ele>142</ele>
        <time>2022-08-06T15:52:34Z</time>
      </trkpt>
      <trkpt lat="44.90038" lon="1.75625">
        <ele>141.5</ele>
        <time>2022-08-06T15:52:36Z</time>
      </trkpt>
      <trkpt lat="44.90046" lon="1.75614">
        <ele>140.9</ele>
        <time>2022-08-06T15:52:38Z</time>
      </trkpt>
      <trkpt lat="44.90053" lon="1.75603">
        <ele>140.1</ele>
        <time>2022-08-06T15:52:40Z</time>
      </trkpt>
      <trkpt lat="44.9006" lon="1.75591">
        <ele>139.2</ele>
        <time>2022-08-06T15:52:42Z</time>
      </trkpt>
      <trkpt lat="44.90067" lon="1.7558">
        <ele>137.9</ele>
        <time>2022-08-06T15:52:44Z</time>
      </trkpt>
      <trkpt lat="44.90073" lon="1.75569">
        <ele>137</ele>
        <time>2022-08-06T15:52:46Z</time>
      </trkpt>
      <trkpt lat="44.90078" lon="1.75557">
        <ele>136.4</ele>
        <time>2022-08-06T15:52:48Z</time>
      </trkpt>
      <trkpt lat="44.90084" lon="1.75545">
        <ele>135.6</ele>
        <time>2022-08-06T15:52:50Z</time>
      </trkpt>
      <trkpt lat="44.90089" lon="1.75534">
        <ele>136.1</ele>
        <time>2022-08-06T15:52:52Z</time>
      </trkpt>
      <trkpt lat="44.90093" lon="1.75522">
        <ele>136.8</ele>
        <time>2022-08-06T15:52:54Z</time>
      </trkpt>
      <trkpt lat="44.90097" lon="1.75509">
        <ele>137.4</ele>
        <time>2022-08-06T15:52:56Z</time>
      </trkpt>
      <trkpt lat="44.90101" lon="1.75498">
        <ele>138</ele>
        <time>2022-08-06T15:52:58Z</time>
      </trkpt>
      <trkpt lat="44.90104" lon="1.75485">
        <ele>138.7</ele>
        <time>2022-08-06T15:53:00Z</time>
      </trkpt>
      <trkpt lat="44.90107" lon="1.75473">
        <ele>139.4</ele>
        <time>2022-08-06T15:53:02Z</time>
      </trkpt>
      <trkpt lat="44.9011" lon="1.75459">
        <ele>140.1</ele>
        <time>2022-08-06T15:53:04Z</time>
      </trkpt>
      <trkpt lat="44.90113" lon="1.75446">
        <ele>140.8</ele>
        <time>2022-08-06T15:53:06Z</time>
      </trkpt>
      <trkpt lat="44.90115" lon="1.75433">
        <ele>141.5</ele>
        <time>2022-08-06T15:53:08Z</time>
      </trkpt>
      <trkpt lat="44.90119" lon="1.75419">
        <ele>141.7</ele>
        <time>2022-08-06T15:53:10Z</time>
      </trkpt>
      <trkpt lat="44.90122" lon="1.75406">
        <ele>141</ele>
        <time>2022-08-06T15:53:12Z</time>
      </trkpt>
      <trkpt lat="44.90125" lon="1.75393">
        <ele>140.4</ele>
        <time>2022-08-06T15:53:14Z</time>
      </trkpt>
      <trkpt lat="44.9013" lon="1.75379">
        <ele>139.4</ele>
        <time>2022-08-06T15:53:16Z</time>
      </trkpt>
      <trkpt lat="44.90133" lon="1.75366">
        <ele>138.6</ele>
        <time>2022-08-06T15:53:18Z</time>
      </trkpt>
      <trkpt lat="44.90137" lon="1.75353">
        <ele>137.7</ele>
        <time>2022-08-06T15:53:20Z</time>
      </trkpt>
      <trkpt lat="44.90141" lon="1.75341">
        <ele>136.7</ele>
        <time>2022-08-06T15:53:22Z</time>
      </trkpt>
      <trkpt lat="44.90145" lon="1.75328">
        <ele>135.5</ele>
        <time>2022-08-06T15:53:24Z</time>
      </trkpt>
      <trkpt lat="44.9015" lon="1.75315">
        <ele>133.7</ele>
        <time>2022-08-06T15:53:26Z</time>
      </trkpt>
      <trkpt lat="44.90156" lon="1.75302">
        <ele>132</ele>
        <time>2022-08-06T15:53:28Z</time>
      </trkpt>
      <trkpt lat="44.9016" lon="1.7529">
        <ele>130.6</ele>
        <time>2022-08-06T15:53:30Z</time>
      </trkpt>
      <trkpt lat="44.90165" lon="1.75278">
        <ele>129.3</ele>
        <time>2022-08-06T15:53:32Z</time>
      </trkpt>
      <trkpt lat="44.9017" lon="1.75265">
        <ele>128.8</ele>
        <time>2022-08-06T15:53:34Z</time>
      </trkpt>
      <trkpt lat="44.90174" lon="1.75253">
        <ele>128.6</ele>
        <time>2022-08-06T15:53:36Z</time>
      </trkpt>
      <trkpt lat="44.90178" lon="1.75241">
        <ele>128.3</ele>
        <time>2022-08-06T15:53:38Z</time>
      </trkpt>
      <trkpt lat="44.90183" lon="1.7523">
        <ele>128</ele>
        <time>2022-08-06T15:53:40Z</time>
      </trkpt>
      <trkpt lat="44.90188" lon="1.75218">
        <ele>127.7</ele>
        <time>2022-08-06T15:53:42Z</time>
      </trkpt>
      <trkpt lat="44.90193" lon="1.75206">
        <ele>127.6</ele>
        <time>2022-08-06T15:53:44Z</time>
      </trkpt>
      <trkpt lat="44.90197" lon="1.75194">
        <ele>127.5</ele>
        <time>2022-08-06T15:53:46Z</time>
      </trkpt>
      <trkpt lat="44.90202" lon="1.75181">
        <ele>127.5</ele>
        <time>2022-08-06T15:53:48Z</time>
      </trkpt>
      <trkpt lat="44.90207" lon="1.75169">
        <ele>127.5</ele>
        <time>2022-08-06T15:53:50Z</time>
      </trkpt>
      <trkpt lat="44.90211" lon="1.75157">
        <ele>127.9</ele>
        <time>2022-08-06T15:53:52Z</time>
      </trkpt>
      <trkpt lat="44.90217" lon="1.75144">
        <ele>128.3</ele>
        <time>2022-08-06T15:53:54Z</time>
      </trkpt>
      <trkpt lat="44.90222" lon="1.75131">
        <ele>128.5</ele>
        <time>2022-08-06T15:53:56Z</time>
      </trkpt>
      <trkpt lat="44.90226" lon="1.75117">
        <ele>128.6</ele>
        <time>2022-08-06T15:53:58Z</time>
      </trkpt>
      <trkpt lat="44.9023" lon="1.75104">
        <ele>128.7</ele>
        <time>2022-08-06T15:54:00Z</time>
      </trkpt>
      <trkpt lat="44.90236" lon="1.7509">
        <ele>128.4</ele>
        <time>2022-08-06T15:54:02Z</time>
      </trkpt>
      <trkpt lat="44.90241" lon="1.75077">
        <ele>128.4</ele>
        <time>2022-08-06T15:54:04Z</time>
      </trkpt>
      <trkpt lat="44.90246" lon="1.75063">
        <ele>128.5</ele>
        <time>2022-08-06T15:54:06Z</time>
      </trkpt>
      <trkpt lat="44.90251" lon="1.7505">
        <ele>128.5</ele>
        <time>2022-08-06T15:54:08Z</time>
      </trkpt>
      <trkpt lat="44.90257" lon="1.75037">
        <ele>128.6</ele>
        <time>2022-08-06T15:54:10Z</time>
      </trkpt>
      <trkpt lat="44.90262" lon="1.75023">
        <ele>128.7</ele>
        <time>2022-08-06T15:54:12Z</time>
      </trkpt>
      <trkpt lat="44.90267" lon="1.7501">
        <ele>128.7</ele>
        <time>2022-08-06T15:54:14Z</time>
      </trkpt>
      <trkpt lat="44.90272" lon="1.74996">
        <ele>129</ele>
        <time>2022-08-06T15:54:16Z</time>
      </trkpt>
      <trkpt lat="44.90277" lon="1.74983">
        <ele>129.8</ele>
        <time>2022-08-06T15:54:18Z</time>
      </trkpt>
      <trkpt lat="44.90283" lon="1.7497">
        <ele>130.5</ele>
        <time>2022-08-06T15:54:20Z</time>
      </trkpt>
      <trkpt lat="44.90288" lon="1.74958">
        <ele>131</ele>
        <time>2022-08-06T15:54:22Z</time>
      </trkpt>
      <trkpt lat="44.90294" lon="1.74945">
        <ele>131.4</ele>
        <time>2022-08-06T15:54:24Z</time>
      </trkpt>
      <trkpt lat="44.903" lon="1.74933">
        <ele>131.7</ele>
        <time>2022-08-06T15:54:26Z</time>
      </trkpt>
      <trkpt lat="44.90305" lon="1.74921">
        <ele>131.9</ele>
        <time>2022-08-06T15:54:28Z</time>
      </trkpt>
      <trkpt lat="44.90312" lon="1.7491">
        <ele>132.9</ele>
        <time>2022-08-06T15:54:30Z</time>
      </trkpt>
      <trkpt lat="44.90319" lon="1.74899">
        <ele>133.9</ele>
        <time>2022-08-06T15:54:32Z</time>
      </trkpt>
      <trkpt lat="44.90325" lon="1.74889">
        <ele>134.6</ele>
        <time>2022-08-06T15:54:34Z</time>
      </trkpt>
      <trkpt lat="44.90332" lon="1.7488">
        <ele>134.8</ele>
        <time>2022-08-06T15:54:36Z</time>
      </trkpt>
      <trkpt lat="44.90339" lon="1.7487">
        <ele>135.5</ele>
        <time>2022-08-06T15:54:38Z</time>
      </trkpt>
      <trkpt lat="44.90346" lon="1.74861">
        <ele>136</ele>
        <time>2022-08-06T15:54:40Z</time>
      </trkpt>
      <trkpt lat="44.90353" lon="1.74851">
        <ele>136.4</ele>
        <time>2022-08-06T15:54:42Z</time>
      </trkpt>
      <trkpt lat="44.9036" lon="1.7484">
        <ele>136.6</ele>
        <time>2022-08-06T15:54:44Z</time>
      </trkpt>
      <trkpt lat="44.90366" lon="1.74831">
        <ele>136.9</ele>
        <time>2022-08-06T15:54:46Z</time>
      </trkpt>
      <trkpt lat="44.90372" lon="1.74821">
        <ele>138.1</ele>
        <time>2022-08-06T15:54:48Z</time>
      </trkpt>
      <trkpt lat="44.9038" lon="1.7481">
        <ele>139</ele>
        <time>2022-08-06T15:54:50Z</time>
      </trkpt>
      <trkpt lat="44.90386" lon="1.74801">
        <ele>139.7</ele>
        <time>2022-08-06T15:54:52Z</time>
      </trkpt>
      <trkpt lat="44.90394" lon="1.74791">
        <ele>139.8</ele>
        <time>2022-08-06T15:54:54Z</time>
      </trkpt>
      <trkpt lat="44.90401" lon="1.7478">
        <ele>140</ele>
        <time>2022-08-06T15:54:56Z</time>
      </trkpt>
      <trkpt lat="44.90408" lon="1.74771">
        <ele>139.7</ele>
        <time>2022-08-06T15:54:58Z</time>
      </trkpt>
      <trkpt lat="44.90417" lon="1.7476">
        <ele>139.2</ele>
        <time>2022-08-06T15:55:00Z</time>
      </trkpt>
      <trkpt lat="44.90424" lon="1.7475">
        <ele>139.7</ele>
        <time>2022-08-06T15:55:02Z</time>
      </trkpt>
      <trkpt lat="44.90432" lon="1.74739">
        <ele>141.5</ele>
        <time>2022-08-06T15:55:04Z</time>
      </trkpt>
      <trkpt lat="44.9044" lon="1.74728">
        <ele>143.3</ele>
        <time>2022-08-06T15:55:06Z</time>
      </trkpt>
      <trkpt lat="44.90448" lon="1.74718">
        <ele>144.2</ele>
        <time>2022-08-06T15:55:08Z</time>
      </trkpt>
      <trkpt lat="44.90456" lon="1.74709">
        <ele>144.4</ele>
        <time>2022-08-06T15:55:10Z</time>
      </trkpt>
      <trkpt lat="44.90465" lon="1.747">
        <ele>144.4</ele>
        <time>2022-08-06T15:55:12Z</time>
      </trkpt>
      <trkpt lat="44.90472" lon="1.74692">
        <ele>144.1</ele>
        <time>2022-08-06T15:55:14Z</time>
      </trkpt>
      <trkpt lat="44.90481" lon="1.74684">
        <ele>143.1</ele>
        <time>2022-08-06T15:55:16Z</time>
      </trkpt>
      <trkpt lat="44.90489" lon="1.74676">
        <ele>142</ele>
        <time>2022-08-06T15:55:18Z</time>
      </trkpt>
      <trkpt lat="44.90497" lon="1.7467">
        <ele>140.3</ele>
        <time>2022-08-06T15:55:20Z</time>
      </trkpt>
      <trkpt lat="44.90505" lon="1.74664">
        <ele>140.6</ele>
        <time>2022-08-06T15:55:22Z</time>
      </trkpt>
      <trkpt lat="44.90512" lon="1.74656">
        <ele>142.3</ele>
        <time>2022-08-06T15:55:24Z</time>
      </trkpt>
      <trkpt lat="44.90521" lon="1.74652">
        <ele>142.7</ele>
        <time>2022-08-06T15:55:26Z</time>
      </trkpt>
      <trkpt lat="44.90529" lon="1.74646">
        <ele>143.6</ele>
        <time>2022-08-06T15:55:28Z</time>
      </trkpt>
      <trkpt lat="44.90536" lon="1.74641">
        <ele>144</ele>
        <time>2022-08-06T15:55:30Z</time>
      </trkpt>
      <trkpt lat="44.90544" lon="1.74634">
        <ele>144.4</ele>
        <time>2022-08-06T15:55:32Z</time>
      </trkpt>
      <trkpt lat="44.90553" lon="1.74629">
        <ele>144.3</ele>
        <time>2022-08-06T15:55:34Z</time>
      </trkpt>
      <trkpt lat="44.90561" lon="1.74622">
        <ele>144.4</ele>
        <time>2022-08-06T15:55:36Z</time>
      </trkpt>
      <trkpt lat="44.90572" lon="1.74614">
        <ele>144.1</ele>
        <time>2022-08-06T15:55:38Z</time>
      </trkpt>
      <trkpt lat="44.9058" lon="1.74607">
        <ele>143.8</ele>
        <time>2022-08-06T15:55:40Z</time>
      </trkpt>
      <trkpt lat="44.9059" lon="1.74599">
        <ele>143.1</ele>
        <time>2022-08-06T15:55:42Z</time>
      </trkpt>
      <trkpt lat="44.90601" lon="1.74591">
        <ele>142.1</ele>
        <time>2022-08-06T15:55:44Z</time>
      </trkpt>
      <trkpt lat="44.9061" lon="1.74583">
        <ele>141.2</ele>
        <time>2022-08-06T15:55:46Z</time>
      </trkpt>
      <trkpt lat="44.9062" lon="1.74576">
        <ele>140.6</ele>
        <time>2022-08-06T15:55:48Z</time>
      </trkpt>
      <trkpt lat="44.90628" lon="1.7457">
        <ele>140</ele>
        <time>2022-08-06T15:55:50Z</time>
      </trkpt>
      <trkpt lat="44.9064" lon="1.74562">
        <ele>139.4</ele>
        <time>2022-08-06T15:55:52Z</time>
      </trkpt>
      <trkpt lat="44.90649" lon="1.74554">
        <ele>138.8</ele>
        <time>2022-08-06T15:55:54Z</time>
      </trkpt>
      <trkpt lat="44.90658" lon="1.74547">
        <ele>137.7</ele>
        <time>2022-08-06T15:55:56Z</time>
      </trkpt>
      <trkpt lat="44.90669" lon="1.74539">
        <ele>136.8</ele>
        <time>2022-08-06T15:55:58Z</time>
      </trkpt>
      <trkpt lat="44.90678" lon="1.74533">
        <ele>136.9</ele>
        <time>2022-08-06T15:56:00Z</time>
      </trkpt>
      <trkpt lat="44.90688" lon="1.74526">
        <ele>136.9</ele>
        <time>2022-08-06T15:56:02Z</time>
      </trkpt>
      <trkpt lat="44.90698" lon="1.74518">
        <ele>136.8</ele>
        <time>2022-08-06T15:56:04Z</time>
      </trkpt>
      <trkpt lat="44.90708" lon="1.7451">
        <ele>136.2</ele>
        <time>2022-08-06T15:56:06Z</time>
      </trkpt>
      <trkpt lat="44.90717" lon="1.74503">
        <ele>135.5</ele>
        <time>2022-08-06T15:56:08Z</time>
      </trkpt>
      <trkpt lat="44.90727" lon="1.74497">
        <ele>134.7</ele>
        <time>2022-08-06T15:56:10Z</time>
      </trkpt>
      <trkpt lat="44.90735" lon="1.74489">
        <ele>134.1</ele>
        <time>2022-08-06T15:56:12Z</time>
      </trkpt>
      <trkpt lat="44.90744" lon="1.74481">
        <ele>133.3</ele>
        <time>2022-08-06T15:56:14Z</time>
      </trkpt>
      <trkpt lat="44.90753" lon="1.74475">
        <ele>132.5</ele>
        <time>2022-08-06T15:56:16Z</time>
      </trkpt>
      <trkpt lat="44.9076" lon="1.74466">
        <ele>132.9</ele>
        <time>2022-08-06T15:56:18Z</time>
      </trkpt>
      <trkpt lat="44.90768" lon="1.74458">
        <ele>132.9</ele>
        <time>2022-08-06T15:56:20Z</time>
      </trkpt>
      <trkpt lat="44.90775" lon="1.74448">
        <ele>133</ele>
        <time>2022-08-06T15:56:22Z</time>
      </trkpt>
      <trkpt lat="44.90782" lon="1.74439">
        <ele>132.8</ele>
        <time>2022-08-06T15:56:24Z</time>
      </trkpt>
      <trkpt lat="44.90789" lon="1.7443">
        <ele>132.6</ele>
        <time>2022-08-06T15:56:26Z</time>
      </trkpt>
      <trkpt lat="44.90795" lon="1.7442">
        <ele>132.3</ele>
        <time>2022-08-06T15:56:28Z</time>
      </trkpt>
      <trkpt lat="44.90801" lon="1.74409">
        <ele>132.6</ele>
        <time>2022-08-06T15:56:30Z</time>
      </trkpt>
      <trkpt lat="44.90808" lon="1.74398">
        <ele>132.9</ele>
        <time>2022-08-06T15:56:32Z</time>
      </trkpt>
      <trkpt lat="44.90814" lon="1.74387">
        <ele>133.2</ele>
        <time>2022-08-06T15:56:34Z</time>
      </trkpt>
      <trkpt lat="44.90819" lon="1.74376">
        <ele>133.4</ele>
        <time>2022-08-06T15:56:36Z</time>
      </trkpt>
      <trkpt lat="44.90825" lon="1.74364">
        <ele>133.2</ele>
        <time>2022-08-06T15:56:38Z</time>
      </trkpt>
      <trkpt lat="44.90831" lon="1.74353">
        <ele>132.8</ele>
        <time>2022-08-06T15:56:40Z</time>
      </trkpt>
      <trkpt lat="44.90837" lon="1.74342">
        <ele>133</ele>
        <time>2022-08-06T15:56:42Z</time>
      </trkpt>
      <trkpt lat="44.90843" lon="1.74332">
        <ele>133.6</ele>
        <time>2022-08-06T15:56:44Z</time>
      </trkpt>
      <trkpt lat="44.90849" lon="1.74322">
        <ele>135.1</ele>
        <time>2022-08-06T15:56:46Z</time>
      </trkpt>
      <trkpt lat="44.90854" lon="1.74312">
        <ele>136.4</ele>
        <time>2022-08-06T15:56:48Z</time>
      </trkpt>
      <trkpt lat="44.9086" lon="1.74301">
        <ele>137.5</ele>
        <time>2022-08-06T15:56:50Z</time>
      </trkpt>
      <trkpt lat="44.90865" lon="1.74291">
        <ele>138.2</ele>
        <time>2022-08-06T15:56:52Z</time>
      </trkpt>
      <trkpt lat="44.90871" lon="1.74281">
        <ele>138.5</ele>
        <time>2022-08-06T15:56:54Z</time>
      </trkpt>
      <trkpt lat="44.90876" lon="1.74271">
        <ele>138.6</ele>
        <time>2022-08-06T15:56:56Z</time>
      </trkpt>
      <trkpt lat="44.90881" lon="1.74261">
        <ele>138.6</ele>
        <time>2022-08-06T15:56:58Z</time>
      </trkpt>
      <trkpt lat="44.90887" lon="1.74251">
        <ele>137.8</ele>
        <time>2022-08-06T15:57:00Z</time>
      </trkpt>
      <trkpt lat="44.90892" lon="1.74242">
        <ele>137.6</ele>
        <time>2022-08-06T15:57:02Z</time>
      </trkpt>
      <trkpt lat="44.90897" lon="1.74231">
        <ele>137.3</ele>
        <time>2022-08-06T15:57:04Z</time>
      </trkpt>
      <trkpt lat="44.90903" lon="1.74221">
        <ele>136.7</ele>
        <time>2022-08-06T15:57:06Z</time>
      </trkpt>
      <trkpt lat="44.90908" lon="1.74209">
        <ele>136</ele>
        <time>2022-08-06T15:57:08Z</time>
      </trkpt>
      <trkpt lat="44.90914" lon="1.74199">
        <ele>134.9</ele>
        <time>2022-08-06T15:57:10Z</time>
      </trkpt>
      <trkpt lat="44.9092" lon="1.74188">
        <ele>134.5</ele>
        <time>2022-08-06T15:57:12Z</time>
      </trkpt>
      <trkpt lat="44.90925" lon="1.74178">
        <ele>134.7</ele>
        <time>2022-08-06T15:57:14Z</time>
      </trkpt>
      <trkpt lat="44.90931" lon="1.74167">
        <ele>134.7</ele>
        <time>2022-08-06T15:57:16Z</time>
      </trkpt>
      <trkpt lat="44.90937" lon="1.74156">
        <ele>134.9</ele>
        <time>2022-08-06T15:57:18Z</time>
      </trkpt>
      <trkpt lat="44.90942" lon="1.74145">
        <ele>134.9</ele>
        <time>2022-08-06T15:57:20Z</time>
      </trkpt>
      <trkpt lat="44.90948" lon="1.74135">
        <ele>134.7</ele>
        <time>2022-08-06T15:57:22Z</time>
      </trkpt>
      <trkpt lat="44.90953" lon="1.74124">
        <ele>134.4</ele>
        <time>2022-08-06T15:57:24Z</time>
      </trkpt>
      <trkpt lat="44.90959" lon="1.74114">
        <ele>133.9</ele>
        <time>2022-08-06T15:57:26Z</time>
      </trkpt>
      <trkpt lat="44.90965" lon="1.74104">
        <ele>133.1</ele>
        <time>2022-08-06T15:57:28Z</time>
      </trkpt>
      <trkpt lat="44.90971" lon="1.74095">
        <ele>132.1</ele>
        <time>2022-08-06T15:57:30Z</time>
      </trkpt>
      <trkpt lat="44.90978" lon="1.74086">
        <ele>130.8</ele>
        <time>2022-08-06T15:57:32Z</time>
      </trkpt>
      <trkpt lat="44.90985" lon="1.74077">
        <ele>129.7</ele>
        <time>2022-08-06T15:57:34Z</time>
      </trkpt>
      <trkpt lat="44.90993" lon="1.74068">
        <ele>128.7</ele>
        <time>2022-08-06T15:57:36Z</time>
      </trkpt>
      <trkpt lat="44.91" lon="1.7406">
        <ele>127.8</ele>
        <time>2022-08-06T15:57:38Z</time>
      </trkpt>
      <trkpt lat="44.91008" lon="1.74053">
        <ele>128.4</ele>
        <time>2022-08-06T15:57:40Z</time>
      </trkpt>
      <trkpt lat="44.91016" lon="1.74046">
        <ele>128.8</ele>
        <time>2022-08-06T15:57:42Z</time>
      </trkpt>
      <trkpt lat="44.91025" lon="1.7404">
        <ele>129</ele>
        <time>2022-08-06T15:57:44Z</time>
      </trkpt>
      <trkpt lat="44.91033" lon="1.74034">
        <ele>129.2</ele>
        <time>2022-08-06T15:57:46Z</time>
      </trkpt>
      <trkpt lat="44.91042" lon="1.74029">
        <ele>129.2</ele>
        <time>2022-08-06T15:57:48Z</time>
      </trkpt>
      <trkpt lat="44.91051" lon="1.74024">
        <ele>129.2</ele>
        <time>2022-08-06T15:57:50Z</time>
      </trkpt>
      <trkpt lat="44.91059" lon="1.74018">
        <ele>129.2</ele>
        <time>2022-08-06T15:57:52Z</time>
      </trkpt>
      <trkpt lat="44.91067" lon="1.74013">
        <ele>129.1</ele>
        <time>2022-08-06T15:57:54Z</time>
      </trkpt>
      <trkpt lat="44.91076" lon="1.74008">
        <ele>128.9</ele>
        <time>2022-08-06T15:57:56Z</time>
      </trkpt>
      <trkpt lat="44.91084" lon="1.74003">
        <ele>128.8</ele>
        <time>2022-08-06T15:57:58Z</time>
      </trkpt>
      <trkpt lat="44.91092" lon="1.73998">
        <ele>128.9</ele>
        <time>2022-08-06T15:58:00Z</time>
      </trkpt>
      <trkpt lat="44.911" lon="1.73993">
        <ele>129.1</ele>
        <time>2022-08-06T15:58:02Z</time>
      </trkpt>
      <trkpt lat="44.91108" lon="1.73989">
        <ele>129.2</ele>
        <time>2022-08-06T15:58:04Z</time>
      </trkpt>
      <trkpt lat="44.91116" lon="1.73983">
        <ele>129.2</ele>
        <time>2022-08-06T15:58:06Z</time>
      </trkpt>
      <trkpt lat="44.91123" lon="1.73978">
        <ele>129.3</ele>
        <time>2022-08-06T15:58:08Z</time>
      </trkpt>
      <trkpt lat="44.91131" lon="1.73973">
        <ele>129.2</ele>
        <time>2022-08-06T15:58:10Z</time>
      </trkpt>
      <trkpt lat="44.91139" lon="1.73968">
        <ele>129.1</ele>
        <time>2022-08-06T15:58:12Z</time>
      </trkpt>
      <trkpt lat="44.91148" lon="1.73962">
        <ele>128.9</ele>
        <time>2022-08-06T15:58:14Z</time>
      </trkpt>
      <trkpt lat="44.91156" lon="1.73957">
        <ele>128.6</ele>
        <time>2022-08-06T15:58:16Z</time>
      </trkpt>
      <trkpt lat="44.91166" lon="1.73951">
        <ele>128.3</ele>
        <time>2022-08-06T15:58:18Z</time>
      </trkpt>
      <trkpt lat="44.91175" lon="1.73944">
        <ele>128.1</ele>
        <time>2022-08-06T15:58:20Z</time>
      </trkpt>
      <trkpt lat="44.91185" lon="1.73938">
        <ele>127.9</ele>
        <time>2022-08-06T15:58:22Z</time>
      </trkpt>
      <trkpt lat="44.91195" lon="1.73932">
        <ele>127.7</ele>
        <time>2022-08-06T15:58:24Z</time>
      </trkpt>
      <trkpt lat="44.91205" lon="1.73924">
        <ele>127.5</ele>
        <time>2022-08-06T15:58:26Z</time>
      </trkpt>
      <trkpt lat="44.91216" lon="1.73918">
        <ele>127.2</ele>
        <time>2022-08-06T15:58:28Z</time>
      </trkpt>
      <trkpt lat="44.91227" lon="1.73911">
        <ele>126.8</ele>
        <time>2022-08-06T15:58:30Z</time>
      </trkpt>
      <trkpt lat="44.91238" lon="1.73903">
        <ele>126.3</ele>
        <time>2022-08-06T15:58:32Z</time>
      </trkpt>
      <trkpt lat="44.91249" lon="1.73896">
        <ele>125.8</ele>
        <time>2022-08-06T15:58:34Z</time>
      </trkpt>
      <trkpt lat="44.9126" lon="1.73889">
        <ele>125.2</ele>
        <time>2022-08-06T15:58:36Z</time>
      </trkpt>
      <trkpt lat="44.9127" lon="1.73882">
        <ele>124.7</ele>
        <time>2022-08-06T15:58:38Z</time>
      </trkpt>
      <trkpt lat="44.91281" lon="1.73875">
        <ele>124.4</ele>
        <time>2022-08-06T15:58:40Z</time>
      </trkpt>
      <trkpt lat="44.91291" lon="1.73867">
        <ele>124.2</ele>
        <time>2022-08-06T15:58:42Z</time>
      </trkpt>
      <trkpt lat="44.91302" lon="1.7386">
        <ele>124.1</ele>
        <time>2022-08-06T15:58:44Z</time>
      </trkpt>
      <trkpt lat="44.91313" lon="1.73853">
        <ele>124.2</ele>
        <time>2022-08-06T15:58:46Z</time>
      </trkpt>
      <trkpt lat="44.91322" lon="1.73847">
        <ele>124.3</ele>
        <time>2022-08-06T15:58:48Z</time>
      </trkpt>
      <trkpt lat="44.91329" lon="1.73844">
        <ele>124.4</ele>
        <time>2022-08-06T15:58:50Z</time>
      </trkpt>
      <trkpt lat="44.91336" lon="1.73841">
        <ele>124.5</ele>
        <time>2022-08-06T15:58:52Z</time>
      </trkpt>
      <trkpt lat="44.91341" lon="1.73841">
        <ele>124.6</ele>
        <time>2022-08-06T15:58:54Z</time>
      </trkpt>
      <trkpt lat="44.91342" lon="1.73841">
        <ele>124.6</ele>
        <time>2022-08-06T15:58:56Z</time>
      </trkpt>
      <trkpt lat="44.91342" lon="1.73841">
        <ele>124.6</ele>
        <time>2022-08-06T15:58:58Z</time>
      </trkpt>
      <trkpt lat="44.91342" lon="1.73841">
        <ele>124.6</ele>
        <time>2022-08-06T15:59:00Z</time>
      </trkpt>
      <trkpt lat="44.91342" lon="1.7384">
        <ele>124.6</ele>
        <time>2022-08-06T15:59:02Z</time>
      </trkpt>
      <trkpt lat="44.91343" lon="1.7384">
        <ele>124.6</ele>
        <time>2022-08-06T15:59:04Z</time>
      </trkpt>
      <trkpt lat="44.91359" lon="1.73824">
        <ele>126.6</ele>
        <time>2022-08-06T15:59:12Z</time>
      </trkpt>
      <trkpt lat="44.91364" lon="1.73821">
        <ele>127.2</ele>
        <time>2022-08-06T15:59:14Z</time>
      </trkpt>
      <trkpt lat="44.91369" lon="1.73817">
        <ele>127.7</ele>
        <time>2022-08-06T15:59:16Z</time>
      </trkpt>
      <trkpt lat="44.91375" lon="1.73815">
        <ele>128.2</ele>
        <time>2022-08-06T15:59:18Z</time>
      </trkpt>
      <trkpt lat="44.91381" lon="1.7381">
        <ele>128.9</ele>
        <time>2022-08-06T15:59:20Z</time>
      </trkpt>
      <trkpt lat="44.91388" lon="1.73807">
        <ele>129.3</ele>
        <time>2022-08-06T15:59:22Z</time>
      </trkpt>
      <trkpt lat="44.91394" lon="1.73804">
        <ele>129.8</ele>
        <time>2022-08-06T15:59:24Z</time>
      </trkpt>
      <trkpt lat="44.914" lon="1.738">
        <ele>130.3</ele>
        <time>2022-08-06T15:59:26Z</time>
      </trkpt>
      <trkpt lat="44.91406" lon="1.73798">
        <ele>130.7</ele>
        <time>2022-08-06T15:59:28Z</time>
      </trkpt>
      <trkpt lat="44.91412" lon="1.73794">
        <ele>131.1</ele>
        <time>2022-08-06T15:59:30Z</time>
      </trkpt>
      <trkpt lat="44.91419" lon="1.73791">
        <ele>131.6</ele>
        <time>2022-08-06T15:59:32Z</time>
      </trkpt>
      <trkpt lat="44.91427" lon="1.73788">
        <ele>132.1</ele>
        <time>2022-08-06T15:59:34Z</time>
      </trkpt>
      <trkpt lat="44.91433" lon="1.73787">
        <ele>132.3</ele>
        <time>2022-08-06T15:59:36Z</time>
      </trkpt>
      <trkpt lat="44.91441" lon="1.73785">
        <ele>132.6</ele>
        <time>2022-08-06T15:59:38Z</time>
      </trkpt>
      <trkpt lat="44.91448" lon="1.73784">
        <ele>132.8</ele>
        <time>2022-08-06T15:59:40Z</time>
      </trkpt>
      <trkpt lat="44.91454" lon="1.73783">
        <ele>133</ele>
        <time>2022-08-06T15:59:42Z</time>
      </trkpt>
      <trkpt lat="44.91461" lon="1.73782">
        <ele>133.1</ele>
        <time>2022-08-06T15:59:44Z</time>
      </trkpt>
      <trkpt lat="44.91468" lon="1.73781">
        <ele>133.2</ele>
        <time>2022-08-06T15:59:46Z</time>
      </trkpt>
      <trkpt lat="44.91474" lon="1.7378">
        <ele>133.4</ele>
        <time>2022-08-06T15:59:48Z</time>
      </trkpt>
      <trkpt lat="44.91481" lon="1.73777">
        <ele>133.7</ele>
        <time>2022-08-06T15:59:50Z</time>
      </trkpt>
      <trkpt lat="44.91487" lon="1.73775">
        <ele>134</ele>
        <time>2022-08-06T15:59:52Z</time>
      </trkpt>
      <trkpt lat="44.91494" lon="1.73772">
        <ele>134.4</ele>
        <time>2022-08-06T15:59:54Z</time>
      </trkpt>
      <trkpt lat="44.915" lon="1.73769">
        <ele>134.8</ele>
        <time>2022-08-06T15:59:56Z</time>
      </trkpt>
      <trkpt lat="44.91507" lon="1.73765">
        <ele>134.4</ele>
        <time>2022-08-06T15:59:58Z</time>
      </trkpt>
      <trkpt lat="44.91513" lon="1.73761">
        <ele>134.2</ele>
        <time>2022-08-06T16:00:00Z</time>
      </trkpt>
      <trkpt lat="44.91519" lon="1.73757">
        <ele>134</ele>
        <time>2022-08-06T16:00:02Z</time>
      </trkpt>
      <trkpt lat="44.91525" lon="1.73751">
        <ele>133.9</ele>
        <time>2022-08-06T16:00:04Z</time>
      </trkpt>
      <trkpt lat="44.91531" lon="1.73747">
        <ele>133.8</ele>
        <time>2022-08-06T16:00:06Z</time>
      </trkpt>
      <trkpt lat="44.91537" lon="1.73743">
        <ele>133.6</ele>
        <time>2022-08-06T16:00:08Z</time>
      </trkpt>
      <trkpt lat="44.91541" lon="1.73737">
        <ele>133.9</ele>
        <time>2022-08-06T16:00:10Z</time>
      </trkpt>
      <trkpt lat="44.91547" lon="1.73732">
        <ele>133.9</ele>
        <time>2022-08-06T16:00:12Z</time>
      </trkpt>
      <trkpt lat="44.91552" lon="1.73727">
        <ele>134.1</ele>
        <time>2022-08-06T16:00:14Z</time>
      </trkpt>
      <trkpt lat="44.91557" lon="1.73723">
        <ele>134.2</ele>
        <time>2022-08-06T16:00:16Z</time>
      </trkpt>
      <trkpt lat="44.91562" lon="1.7372">
        <ele>134</ele>
        <time>2022-08-06T16:00:18Z</time>
      </trkpt>
      <trkpt lat="44.91568" lon="1.73715">
        <ele>134.2</ele>
        <time>2022-08-06T16:00:20Z</time>
      </trkpt>
      <trkpt lat="44.91573" lon="1.7371">
        <ele>134.4</ele>
        <time>2022-08-06T16:00:22Z</time>
      </trkpt>
      <trkpt lat="44.91578" lon="1.73706">
        <ele>134.5</ele>
        <time>2022-08-06T16:00:24Z</time>
      </trkpt>
      <trkpt lat="44.91583" lon="1.73702">
        <ele>134.6</ele>
        <time>2022-08-06T16:00:26Z</time>
      </trkpt>
      <trkpt lat="44.91588" lon="1.73697">
        <ele>134.7</ele>
        <time>2022-08-06T16:00:28Z</time>
      </trkpt>
      <trkpt lat="44.91594" lon="1.73693">
        <ele>134.9</ele>
        <time>2022-08-06T16:00:30Z</time>
      </trkpt>
      <trkpt lat="44.91598" lon="1.73689">
        <ele>134.9</ele>
        <time>2022-08-06T16:00:32Z</time>
      </trkpt>
      <trkpt lat="44.91603" lon="1.73684">
        <ele>135.1</ele>
        <time>2022-08-06T16:00:34Z</time>
      </trkpt>
      <trkpt lat="44.9161" lon="1.73681">
        <ele>134.9</ele>
        <time>2022-08-06T16:00:36Z</time>
      </trkpt>
      <trkpt lat="44.91614" lon="1.73677">
        <ele>135</ele>
        <time>2022-08-06T16:00:38Z</time>
      </trkpt>
      <trkpt lat="44.91619" lon="1.73673">
        <ele>134.8</ele>
        <time>2022-08-06T16:00:40Z</time>
      </trkpt>
      <trkpt lat="44.91625" lon="1.73669">
        <ele>134.7</ele>
        <time>2022-08-06T16:00:42Z</time>
      </trkpt>
      <trkpt lat="44.9163" lon="1.73665">
        <ele>134.5</ele>
        <time>2022-08-06T16:00:44Z</time>
      </trkpt>
      <trkpt lat="44.91635" lon="1.73662">
        <ele>134.5</ele>
        <time>2022-08-06T16:00:46Z</time>
      </trkpt>
      <trkpt lat="44.91639" lon="1.73657">
        <ele>134.5</ele>
        <time>2022-08-06T16:00:48Z</time>
      </trkpt>
      <trkpt lat="44.91644" lon="1.73652">
        <ele>134.4</ele>
        <time>2022-08-06T16:00:50Z</time>
      </trkpt>
      <trkpt lat="44.91648" lon="1.73647">
        <ele>134.5</ele>
        <time>2022-08-06T16:00:52Z</time>
      </trkpt>
      <trkpt lat="44.91652" lon="1.73642">
        <ele>134.7</ele>
        <time>2022-08-06T16:00:54Z</time>
      </trkpt>
      <trkpt lat="44.91656" lon="1.73636">
        <ele>134.9</ele>
        <time>2022-08-06T16:00:56Z</time>
      </trkpt>
      <trkpt lat="44.9166" lon="1.73631">
        <ele>135</ele>
        <time>2022-08-06T16:00:58Z</time>
      </trkpt>
      <trkpt lat="44.91665" lon="1.73626">
        <ele>135.1</ele>
        <time>2022-08-06T16:01:00Z</time>
      </trkpt>
      <trkpt lat="44.91669" lon="1.73621">
        <ele>135.1</ele>
        <time>2022-08-06T16:01:02Z</time>
      </trkpt>
      <trkpt lat="44.91673" lon="1.73616">
        <ele>135.1</ele>
        <time>2022-08-06T16:01:04Z</time>
      </trkpt>
      <trkpt lat="44.91678" lon="1.73611">
        <ele>135</ele>
        <time>2022-08-06T16:01:06Z</time>
      </trkpt>
      <trkpt lat="44.91681" lon="1.73606">
        <ele>134.9</ele>
        <time>2022-08-06T16:01:08Z</time>
      </trkpt>
      <trkpt lat="44.91685" lon="1.73601">
        <ele>134.7</ele>
        <time>2022-08-06T16:01:10Z</time>
      </trkpt>
      <trkpt lat="44.91689" lon="1.73596">
        <ele>134.6</ele>
        <time>2022-08-06T16:01:12Z</time>
      </trkpt>
      <trkpt lat="44.91693" lon="1.7359">
        <ele>134.3</ele>
        <time>2022-08-06T16:01:14Z</time>
      </trkpt>
      <trkpt lat="44.91696" lon="1.73585">
        <ele>134.2</ele>
        <time>2022-08-06T16:01:16Z</time>
      </trkpt>
      <trkpt lat="44.91699" lon="1.73579">
        <ele>134.1</ele>
        <time>2022-08-06T16:01:18Z</time>
      </trkpt>
      <trkpt lat="44.91702" lon="1.73572">
        <ele>134</ele>
        <time>2022-08-06T16:01:20Z</time>
      </trkpt>
      <trkpt lat="44.91704" lon="1.73565">
        <ele>134.2</ele>
        <time>2022-08-06T16:01:22Z</time>
      </trkpt>
      <trkpt lat="44.91706" lon="1.73557">
        <ele>134.5</ele>
        <time>2022-08-06T16:01:24Z</time>
      </trkpt>
      <trkpt lat="44.91707" lon="1.7355">
        <ele>134.8</ele>
        <time>2022-08-06T16:01:26Z</time>
      </trkpt>
      <trkpt lat="44.91708" lon="1.73544">
        <ele>135.1</ele>
        <time>2022-08-06T16:01:28Z</time>
      </trkpt>
      <trkpt lat="44.91709" lon="1.73536">
        <ele>135.6</ele>
        <time>2022-08-06T16:01:30Z</time>
      </trkpt>
      <trkpt lat="44.91709" lon="1.73529">
        <ele>136</ele>
        <time>2022-08-06T16:01:32Z</time>
      </trkpt>
      <trkpt lat="44.9171" lon="1.73521">
        <ele>136.6</ele>
        <time>2022-08-06T16:01:34Z</time>
      </trkpt>
      <trkpt lat="44.9171" lon="1.73514">
        <ele>137.1</ele>
        <time>2022-08-06T16:01:36Z</time>
      </trkpt>
      <trkpt lat="44.9171" lon="1.73507">
        <ele>137.7</ele>
        <time>2022-08-06T16:01:38Z</time>
      </trkpt>
      <trkpt lat="44.9171" lon="1.73499">
        <ele>138.3</ele>
        <time>2022-08-06T16:01:40Z</time>
      </trkpt>
      <trkpt lat="44.91709" lon="1.73491">
        <ele>138.7</ele>
        <time>2022-08-06T16:01:42Z</time>
      </trkpt>
      <trkpt lat="44.91709" lon="1.73483">
        <ele>139</ele>
        <time>2022-08-06T16:01:44Z</time>
      </trkpt>
      <trkpt lat="44.91709" lon="1.73476">
        <ele>139.3</ele>
        <time>2022-08-06T16:01:46Z</time>
      </trkpt>
      <trkpt lat="44.91707" lon="1.73469">
        <ele>139.8</ele>
        <time>2022-08-06T16:01:48Z</time>
      </trkpt>
      <trkpt lat="44.91708" lon="1.73462">
        <ele>139.9</ele>
        <time>2022-08-06T16:01:50Z</time>
      </trkpt>
      <trkpt lat="44.91709" lon="1.73457">
        <ele>139.9</ele>
        <time>2022-08-06T16:01:52Z</time>
      </trkpt>
      <trkpt lat="44.91711" lon="1.73452">
        <ele>139.9</ele>
        <time>2022-08-06T16:01:54Z</time>
      </trkpt>
      <trkpt lat="44.91713" lon="1.73448">
        <ele>139.7</ele>
        <time>2022-08-06T16:01:56Z</time>
      </trkpt>
      <trkpt lat="44.91715" lon="1.73441">
        <ele>139.7</ele>
        <time>2022-08-06T16:01:58Z</time>
      </trkpt>
      <trkpt lat="44.91714" lon="1.73435">
        <ele>140</ele>
        <time>2022-08-06T16:02:00Z</time>
      </trkpt>
      <trkpt lat="44.91712" lon="1.73432">
        <ele>140.4</ele>
        <time>2022-08-06T16:02:02Z</time>
      </trkpt>
      <trkpt lat="44.91709" lon="1.73432">
        <ele>140.8</ele>
        <time>2022-08-06T16:02:04Z</time>
      </trkpt>
      <trkpt lat="44.9171" lon="1.73432">
        <ele>140.7</ele>
        <time>2022-08-06T16:02:06Z</time>
      </trkpt>
      <trkpt lat="44.9171" lon="1.73433">
        <ele>140.7</ele>
        <time>2022-08-06T16:02:08Z</time>
      </trkpt>
      <trkpt lat="44.9171" lon="1.73434">
        <ele>140.6</ele>
        <time>2022-08-06T16:02:10Z</time>
      </trkpt>
      <trkpt lat="44.91711" lon="1.73435">
        <ele>140.5</ele>
        <time>2022-08-06T16:02:12Z</time>
      </trkpt>
      <trkpt lat="44.91724" lon="1.73419">
        <ele>139.3</ele>
        <time>2022-08-06T16:05:22Z</time>
      </trkpt>
      <trkpt lat="44.91726" lon="1.73412">
        <ele>139.3</ele>
        <time>2022-08-06T16:05:24Z</time>
      </trkpt>
      <trkpt lat="44.91728" lon="1.73405">
        <ele>139.1</ele>
        <time>2022-08-06T16:05:26Z</time>
      </trkpt>
      <trkpt lat="44.9173" lon="1.73399">
        <ele>139</ele>
        <time>2022-08-06T16:05:28Z</time>
      </trkpt>
      <trkpt lat="44.91732" lon="1.73392">
        <ele>138.9</ele>
        <time>2022-08-06T16:05:30Z</time>
      </trkpt>
      <trkpt lat="44.91733" lon="1.73385">
        <ele>138.8</ele>
        <time>2022-08-06T16:05:32Z</time>
      </trkpt>
      <trkpt lat="44.91735" lon="1.73379">
        <ele>138.8</ele>
        <time>2022-08-06T16:05:34Z</time>
      </trkpt>
      <trkpt lat="44.91736" lon="1.73372">
        <ele>138.7</ele>
        <time>2022-08-06T16:05:36Z</time>
      </trkpt>
      <trkpt lat="44.91737" lon="1.73365">
        <ele>138.7</ele>
        <time>2022-08-06T16:05:38Z</time>
      </trkpt>
      <trkpt lat="44.91738" lon="1.73358">
        <ele>138.8</ele>
        <time>2022-08-06T16:05:40Z</time>
      </trkpt>
      <trkpt lat="44.91739" lon="1.73352">
        <ele>138.8</ele>
        <time>2022-08-06T16:05:42Z</time>
      </trkpt>
      <trkpt lat="44.91739" lon="1.73346">
        <ele>138.9</ele>
        <time>2022-08-06T16:05:44Z</time>
      </trkpt>
      <trkpt lat="44.91738" lon="1.7334">
        <ele>139.1</ele>
        <time>2022-08-06T16:05:46Z</time>
      </trkpt>
      <trkpt lat="44.91739" lon="1.73334">
        <ele>139.2</ele>
        <time>2022-08-06T16:05:48Z</time>
      </trkpt>
      <trkpt lat="44.9174" lon="1.73329">
        <ele>139.3</ele>
        <time>2022-08-06T16:05:50Z</time>
      </trkpt>
      <trkpt lat="44.9174" lon="1.73324">
        <ele>139.6</ele>
        <time>2022-08-06T16:05:52Z</time>
      </trkpt>
      <trkpt lat="44.91739" lon="1.73319">
        <ele>140</ele>
        <time>2022-08-06T16:05:54Z</time>
      </trkpt>
      <trkpt lat="44.91738" lon="1.73313">
        <ele>140.3</ele>
        <time>2022-08-06T16:05:56Z</time>
      </trkpt>
      <trkpt lat="44.91738" lon="1.73308">
        <ele>140.7</ele>
        <time>2022-08-06T16:05:58Z</time>
      </trkpt>
      <trkpt lat="44.91738" lon="1.73303">
        <ele>141</ele>
        <time>2022-08-06T16:06:00Z</time>
      </trkpt>
      <trkpt lat="44.91737" lon="1.73296">
        <ele>141.4</ele>
        <time>2022-08-06T16:06:02Z</time>
      </trkpt>
      <trkpt lat="44.91736" lon="1.73289">
        <ele>141.8</ele>
        <time>2022-08-06T16:06:04Z</time>
      </trkpt>
      <trkpt lat="44.91736" lon="1.73283">
        <ele>142.2</ele>
        <time>2022-08-06T16:06:06Z</time>
      </trkpt>
      <trkpt lat="44.91733" lon="1.73278">
        <ele>142.7</ele>
        <time>2022-08-06T16:06:08Z</time>
      </trkpt>
      <trkpt lat="44.91728" lon="1.73276">
        <ele>143.3</ele>
        <time>2022-08-06T16:06:10Z</time>
      </trkpt>
      <trkpt lat="44.91724" lon="1.73275">
        <ele>143.7</ele>
        <time>2022-08-06T16:06:12Z</time>
      </trkpt>
      <trkpt lat="44.91719" lon="1.73274">
        <ele>144.1</ele>
        <time>2022-08-06T16:06:14Z</time>
      </trkpt>
      <trkpt lat="44.91715" lon="1.73275">
        <ele>144.4</ele>
        <time>2022-08-06T16:06:16Z</time>
      </trkpt>
      <trkpt lat="44.91711" lon="1.73275">
        <ele>144.8</ele>
        <time>2022-08-06T16:06:18Z</time>
      </trkpt>
      <trkpt lat="44.91707" lon="1.73275">
        <ele>145.1</ele>
        <time>2022-08-06T16:06:20Z</time>
      </trkpt>
      <trkpt lat="44.91703" lon="1.73275">
        <ele>145.4</ele>
        <time>2022-08-06T16:06:22Z</time>
      </trkpt>
      <trkpt lat="44.91699" lon="1.73276">
        <ele>145.7</ele>
        <time>2022-08-06T16:06:24Z</time>
      </trkpt>
      <trkpt lat="44.91695" lon="1.73278">
        <ele>145.9</ele>
        <time>2022-08-06T16:06:26Z</time>
      </trkpt>
      <trkpt lat="44.91692" lon="1.73281">
        <ele>146.1</ele>
        <time>2022-08-06T16:06:28Z</time>
      </trkpt>
      <trkpt lat="44.91689" lon="1.73286">
        <ele>146.2</ele>
        <time>2022-08-06T16:06:30Z</time>
      </trkpt>
      <trkpt lat="44.91687" lon="1.73293">
        <ele>146.2</ele>
        <time>2022-08-06T16:06:32Z</time>
      </trkpt>
      <trkpt lat="44.91685" lon="1.73301">
        <ele>146.1</ele>
        <time>2022-08-06T16:06:34Z</time>
      </trkpt>
      <trkpt lat="44.91683" lon="1.7331">
        <ele>146</ele>
        <time>2022-08-06T16:06:36Z</time>
      </trkpt>
      <trkpt lat="44.91681" lon="1.73318">
        <ele>145.9</ele>
        <time>2022-08-06T16:06:38Z</time>
      </trkpt>
      <trkpt lat="44.91679" lon="1.73326">
        <ele>145.9</ele>
        <time>2022-08-06T16:06:40Z</time>
      </trkpt>
      <trkpt lat="44.91678" lon="1.73335">
        <ele>145.8</ele>
        <time>2022-08-06T16:06:42Z</time>
      </trkpt>
      <trkpt lat="44.91678" lon="1.73343">
        <ele>145.8</ele>
        <time>2022-08-06T16:06:44Z</time>
      </trkpt>
      <trkpt lat="44.91678" lon="1.73351">
        <ele>145.7</ele>
        <time>2022-08-06T16:06:46Z</time>
      </trkpt>
      <trkpt lat="44.91678" lon="1.7336">
        <ele>145.7</ele>
        <time>2022-08-06T16:06:48Z</time>
      </trkpt>
      <trkpt lat="44.91678" lon="1.73368">
        <ele>145.7</ele>
        <time>2022-08-06T16:06:50Z</time>
      </trkpt>
      <trkpt lat="44.91679" lon="1.73376">
        <ele>145.5</ele>
        <time>2022-08-06T16:06:52Z</time>
      </trkpt>
      <trkpt lat="44.91679" lon="1.73384">
        <ele>145.5</ele>
        <time>2022-08-06T16:06:54Z</time>
      </trkpt>
      <trkpt lat="44.91679" lon="1.73391">
        <ele>145.4</ele>
        <time>2022-08-06T16:06:56Z</time>
      </trkpt>
      <trkpt lat="44.91678" lon="1.73398">
        <ele>145.5</ele>
        <time>2022-08-06T16:06:58Z</time>
      </trkpt>
      <trkpt lat="44.91678" lon="1.73406">
        <ele>145.6</ele>
        <time>2022-08-06T16:07:00Z</time>
      </trkpt>
      <trkpt lat="44.91677" lon="1.73415">
        <ele>145.6</ele>
        <time>2022-08-06T16:07:02Z</time>
      </trkpt>
      <trkpt lat="44.91675" lon="1.73425">
        <ele>145.8</ele>
        <time>2022-08-06T16:07:04Z</time>
      </trkpt>
      <trkpt lat="44.91671" lon="1.73435">
        <ele>146.1</ele>
        <time>2022-08-06T16:07:06Z</time>
      </trkpt>
      <trkpt lat="44.91669" lon="1.73447">
        <ele>146.3</ele>
        <time>2022-08-06T16:07:08Z</time>
      </trkpt>
      <trkpt lat="44.91666" lon="1.73458">
        <ele>146.5</ele>
        <time>2022-08-06T16:07:10Z</time>
      </trkpt>
      <trkpt lat="44.91664" lon="1.73471">
        <ele>146.7</ele>
        <time>2022-08-06T16:07:12Z</time>
      </trkpt>
      <trkpt lat="44.91661" lon="1.73482">
        <ele>146.8</ele>
        <time>2022-08-06T16:07:14Z</time>
      </trkpt>
      <trkpt lat="44.91658" lon="1.73494">
        <ele>146.9</ele>
        <time>2022-08-06T16:07:16Z</time>
      </trkpt>
      <trkpt lat="44.91656" lon="1.73505">
        <ele>146.7</ele>
        <time>2022-08-06T16:07:18Z</time>
      </trkpt>
      <trkpt lat="44.91653" lon="1.73516">
        <ele>146.2</ele>
        <time>2022-08-06T16:07:20Z</time>
      </trkpt>
      <trkpt lat="44.91651" lon="1.73527">
        <ele>145.6</ele>
        <time>2022-08-06T16:07:22Z</time>
      </trkpt>
      <trkpt lat="44.91648" lon="1.73538">
        <ele>145.3</ele>
        <time>2022-08-06T16:07:24Z</time>
      </trkpt>
      <trkpt lat="44.91645" lon="1.73548">
        <ele>144.9</ele>
        <time>2022-08-06T16:07:26Z</time>
      </trkpt>
      <trkpt lat="44.91642" lon="1.73556">
        <ele>144.7</ele>
        <time>2022-08-06T16:07:28Z</time>
      </trkpt>
      <trkpt lat="44.91639" lon="1.73564">
        <ele>144.5</ele>
        <time>2022-08-06T16:07:30Z</time>
      </trkpt>
      <trkpt lat="44.91636" lon="1.73571">
        <ele>144.5</ele>
        <time>2022-08-06T16:07:32Z</time>
      </trkpt>
      <trkpt lat="44.91632" lon="1.73578">
        <ele>144.5</ele>
        <time>2022-08-06T16:07:34Z</time>
      </trkpt>
      <trkpt lat="44.91628" lon="1.73583">
        <ele>144.6</ele>
        <time>2022-08-06T16:07:36Z</time>
      </trkpt>
      <trkpt lat="44.91625" lon="1.73588">
        <ele>144.4</ele>
        <time>2022-08-06T16:07:38Z</time>
      </trkpt>
      <trkpt lat="44.91622" lon="1.73593">
        <ele>144.1</ele>
        <time>2022-08-06T16:07:40Z</time>
      </trkpt>
      <trkpt lat="44.9162" lon="1.73596">
        <ele>144.1</ele>
        <time>2022-08-06T16:07:42Z</time>
      </trkpt>
      <trkpt lat="44.91619" lon="1.73597">
        <ele>144</ele>
        <time>2022-08-06T16:07:44Z</time>
      </trkpt>
      <trkpt lat="44.91619" lon="1.73598">
        <ele>143.9</ele>
        <time>2022-08-06T16:07:46Z</time>
      </trkpt>
      <trkpt lat="44.91619" lon="1.736">
        <ele>143.7</ele>
        <time>2022-08-06T16:07:48Z</time>
      </trkpt>
      <trkpt lat="44.9162" lon="1.736">
        <ele>143.6</ele>
        <time>2022-08-06T16:07:50Z</time>
      </trkpt>
      <trkpt lat="44.91622" lon="1.73599">
        <ele>143.5</ele>
        <time>2022-08-06T16:07:52Z</time>
      </trkpt>
      <trkpt lat="44.91614" lon="1.73579">
        <ele>146.5</ele>
        <time>2022-08-06T16:08:06Z</time>
      </trkpt>
      <trkpt lat="44.91613" lon="1.73576">
        <ele>146.9</ele>
        <time>2022-08-06T16:08:08Z</time>
      </trkpt>
      <trkpt lat="44.91611" lon="1.73571">
        <ele>147.4</ele>
        <time>2022-08-06T16:08:10Z</time>
      </trkpt>
      <trkpt lat="44.91608" lon="1.73569">
        <ele>147.8</ele>
        <time>2022-08-06T16:08:12Z</time>
      </trkpt>
      <trkpt lat="44.91606" lon="1.73567">
        <ele>148.2</ele>
        <time>2022-08-06T16:08:14Z</time>
      </trkpt>
      <trkpt lat="44.91604" lon="1.73565">
        <ele>148.6</ele>
        <time>2022-08-06T16:08:16Z</time>
      </trkpt>
      <trkpt lat="44.91601" lon="1.73563">
        <ele>149</ele>
        <time>2022-08-06T16:08:18Z</time>
      </trkpt>
      <trkpt lat="44.91597" lon="1.73564">
        <ele>149.3</ele>
        <time>2022-08-06T16:08:20Z</time>
      </trkpt>
      <trkpt lat="44.91594" lon="1.73567">
        <ele>149.5</ele>
        <time>2022-08-06T16:08:22Z</time>
      </trkpt>
      <trkpt lat="44.91591" lon="1.73569">
        <ele>149.8</ele>
        <time>2022-08-06T16:08:24Z</time>
      </trkpt>
      <trkpt lat="44.91587" lon="1.73571">
        <ele>150.1</ele>
        <time>2022-08-06T16:08:26Z</time>
      </trkpt>
      <trkpt lat="44.91584" lon="1.73573">
        <ele>150.5</ele>
        <time>2022-08-06T16:08:28Z</time>
      </trkpt>
      <trkpt lat="44.9158" lon="1.73575">
        <ele>150.9</ele>
        <time>2022-08-06T16:08:30Z</time>
      </trkpt>
      <trkpt lat="44.91577" lon="1.73578">
        <ele>151.1</ele>
        <time>2022-08-06T16:08:32Z</time>
      </trkpt>
      <trkpt lat="44.91574" lon="1.73582">
        <ele>151.3</ele>
        <time>2022-08-06T16:08:34Z</time>
      </trkpt>
      <trkpt lat="44.9157" lon="1.73586">
        <ele>151.4</ele>
        <time>2022-08-06T16:08:36Z</time>
      </trkpt>
      <trkpt lat="44.91567" lon="1.7359">
        <ele>151.3</ele>
        <time>2022-08-06T16:08:38Z</time>
      </trkpt>
      <trkpt lat="44.91563" lon="1.73594">
        <ele>151.3</ele>
        <time>2022-08-06T16:08:40Z</time>
      </trkpt>
      <trkpt lat="44.9156" lon="1.73597">
        <ele>151.3</ele>
        <time>2022-08-06T16:08:42Z</time>
      </trkpt>
      <trkpt lat="44.91557" lon="1.73598">
        <ele>151.5</ele>
        <time>2022-08-06T16:08:44Z</time>
      </trkpt>
      <trkpt lat="44.91558" lon="1.73598">
        <ele>151.4</ele>
        <time>2022-08-06T16:08:46Z</time>
      </trkpt>
      <trkpt lat="44.91558" lon="1.73598">
        <ele>151.4</ele>
        <time>2022-08-06T16:08:48Z</time>
      </trkpt>
      <trkpt lat="44.91558" lon="1.73598">
        <ele>151.4</ele>
        <time>2022-08-06T16:08:50Z</time>
      </trkpt>
      <trkpt lat="44.91558" lon="1.73598">
        <ele>151.4</ele>
        <time>2022-08-06T16:08:52Z</time>
      </trkpt>
      <trkpt lat="44.91558" lon="1.73598">
        <ele>151.4</ele>
        <time>2022-08-06T16:08:54Z</time>
      </trkpt>
      <trkpt lat="44.91587" lon="1.73567">
        <ele>150.3</ele>
        <time>2022-08-06T16:14:56Z</time>
      </trkpt>
      <trkpt lat="44.9159" lon="1.73566">
        <ele>150</ele>
        <time>2022-08-06T16:14:58Z</time>
      </trkpt>
      <trkpt lat="44.91593" lon="1.73566">
        <ele>149.8</ele>
        <time>2022-08-06T16:15:00Z</time>
      </trkpt>
      <trkpt lat="44.91597" lon="1.73564">
        <ele>149.4</ele>
        <time>2022-08-06T16:15:02Z</time>
      </trkpt>
      <trkpt lat="44.91601" lon="1.73563">
        <ele>149</ele>
        <time>2022-08-06T16:15:04Z</time>
      </trkpt>
      <trkpt lat="44.91604" lon="1.73566">
        <ele>148.5</ele>
        <time>2022-08-06T16:15:06Z</time>
      </trkpt>
      <trkpt lat="44.91609" lon="1.7357">
        <ele>147.7</ele>
        <time>2022-08-06T16:15:08Z</time>
      </trkpt>
      <trkpt lat="44.91613" lon="1.73578">
        <ele>146.7</ele>
        <time>2022-08-06T16:15:10Z</time>
      </trkpt>
      <trkpt lat="44.91618" lon="1.73584">
        <ele>145.8</ele>
        <time>2022-08-06T16:15:12Z</time>
      </trkpt>
      <trkpt lat="44.91624" lon="1.73586">
        <ele>144.8</ele>
        <time>2022-08-06T16:15:14Z</time>
      </trkpt>
      <trkpt lat="44.91628" lon="1.73584">
        <ele>144.5</ele>
        <time>2022-08-06T16:15:16Z</time>
      </trkpt>
      <trkpt lat="44.91631" lon="1.73577">
        <ele>144.6</ele>
        <time>2022-08-06T16:15:18Z</time>
      </trkpt>
      <trkpt lat="44.91635" lon="1.73571">
        <ele>144.6</ele>
        <time>2022-08-06T16:15:20Z</time>
      </trkpt>
      <trkpt lat="44.91638" lon="1.73565">
        <ele>144.6</ele>
        <time>2022-08-06T16:15:22Z</time>
      </trkpt>
      <trkpt lat="44.91642" lon="1.73557">
        <ele>144.7</ele>
        <time>2022-08-06T16:15:24Z</time>
      </trkpt>
      <trkpt lat="44.91646" lon="1.73547">
        <ele>144.9</ele>
        <time>2022-08-06T16:15:26Z</time>
      </trkpt>
      <trkpt lat="44.91649" lon="1.73537">
        <ele>145.3</ele>
        <time>2022-08-06T16:15:28Z</time>
      </trkpt>
      <trkpt lat="44.91651" lon="1.73525">
        <ele>145.8</ele>
        <time>2022-08-06T16:15:30Z</time>
      </trkpt>
      <trkpt lat="44.91653" lon="1.73513">
        <ele>146.3</ele>
        <time>2022-08-06T16:15:32Z</time>
      </trkpt>
      <trkpt lat="44.91657" lon="1.73502">
        <ele>146.7</ele>
        <time>2022-08-06T16:15:34Z</time>
      </trkpt>
      <trkpt lat="44.9166" lon="1.73491">
        <ele>146.8</ele>
        <time>2022-08-06T16:15:36Z</time>
      </trkpt>
      <trkpt lat="44.91661" lon="1.73482">
        <ele>146.8</ele>
        <time>2022-08-06T16:15:38Z</time>
      </trkpt>
      <trkpt lat="44.91663" lon="1.73473">
        <ele>146.7</ele>
        <time>2022-08-06T16:15:40Z</time>
      </trkpt>
      <trkpt lat="44.91665" lon="1.73465">
        <ele>146.6</ele>
        <time>2022-08-06T16:15:42Z</time>
      </trkpt>
      <trkpt lat="44.91668" lon="1.73456">
        <ele>146.4</ele>
        <time>2022-08-06T16:15:44Z</time>
      </trkpt>
      <trkpt lat="44.9167" lon="1.73448">
        <ele>146.1</ele>
        <time>2022-08-06T16:15:46Z</time>
      </trkpt>
      <trkpt lat="44.91671" lon="1.73443">
        <ele>146.1</ele>
        <time>2022-08-06T16:15:48Z</time>
      </trkpt>
      <trkpt lat="44.91672" lon="1.73435">
        <ele>146.1</ele>
        <time>2022-08-06T16:15:50Z</time>
      </trkpt>
      <trkpt lat="44.91672" lon="1.73428">
        <ele>146.1</ele>
        <time>2022-08-06T16:15:52Z</time>
      </trkpt>
      <trkpt lat="44.91676" lon="1.7342">
        <ele>145.8</ele>
        <time>2022-08-06T16:15:54Z</time>
      </trkpt>
      <trkpt lat="44.91678" lon="1.73411">
        <ele>145.6</ele>
        <time>2022-08-06T16:15:56Z</time>
      </trkpt>
      <trkpt lat="44.91679" lon="1.73402">
        <ele>145.5</ele>
        <time>2022-08-06T16:15:58Z</time>
      </trkpt>
      <trkpt lat="44.91679" lon="1.73393">
        <ele>145.4</ele>
        <time>2022-08-06T16:16:00Z</time>
      </trkpt>
      <trkpt lat="44.9168" lon="1.73384">
        <ele>145.4</ele>
        <time>2022-08-06T16:16:02Z</time>
      </trkpt>
      <trkpt lat="44.91679" lon="1.73374">
        <ele>145.5</ele>
        <time>2022-08-06T16:16:04Z</time>
      </trkpt>
      <trkpt lat="44.91679" lon="1.73364">
        <ele>145.6</ele>
        <time>2022-08-06T16:16:06Z</time>
      </trkpt>
      <trkpt lat="44.91679" lon="1.73351">
        <ele>145.6</ele>
        <time>2022-08-06T16:16:08Z</time>
      </trkpt>
      <trkpt lat="44.9168" lon="1.73339">
        <ele>145.5</ele>
        <time>2022-08-06T16:16:10Z</time>
      </trkpt>
      <trkpt lat="44.91682" lon="1.73327">
        <ele>145.5</ele>
        <time>2022-08-06T16:16:12Z</time>
      </trkpt>
      <trkpt lat="44.91683" lon="1.73315">
        <ele>145.8</ele>
        <time>2022-08-06T16:16:14Z</time>
      </trkpt>
      <trkpt lat="44.91685" lon="1.73304">
        <ele>145.9</ele>
        <time>2022-08-06T16:16:16Z</time>
      </trkpt>
      <trkpt lat="44.91688" lon="1.73294">
        <ele>146</ele>
        <time>2022-08-06T16:16:18Z</time>
      </trkpt>
      <trkpt lat="44.91691" lon="1.73285">
        <ele>146.1</ele>
        <time>2022-08-06T16:16:20Z</time>
      </trkpt>
      <trkpt lat="44.91694" lon="1.73278">
        <ele>146</ele>
        <time>2022-08-06T16:16:22Z</time>
      </trkpt>
      <trkpt lat="44.917" lon="1.73275">
        <ele>145.7</ele>
        <time>2022-08-06T16:16:24Z</time>
      </trkpt>
      <trkpt lat="44.91707" lon="1.73275">
        <ele>145.1</ele>
        <time>2022-08-06T16:16:26Z</time>
      </trkpt>
      <trkpt lat="44.91714" lon="1.73277">
        <ele>144.4</ele>
        <time>2022-08-06T16:16:28Z</time>
      </trkpt>
      <trkpt lat="44.91722" lon="1.73277">
        <ele>143.8</ele>
        <time>2022-08-06T16:16:30Z</time>
      </trkpt>
      <trkpt lat="44.91727" lon="1.73278">
        <ele>143.2</ele>
        <time>2022-08-06T16:16:32Z</time>
      </trkpt>
      <trkpt lat="44.9173" lon="1.7328">
        <ele>142.9</ele>
        <time>2022-08-06T16:16:34Z</time>
      </trkpt>
      <trkpt lat="44.91733" lon="1.73283">
        <ele>142.4</ele>
        <time>2022-08-06T16:16:36Z</time>
      </trkpt>
      <trkpt lat="44.91734" lon="1.73291">
        <ele>142</ele>
        <time>2022-08-06T16:16:38Z</time>
      </trkpt>
      <trkpt lat="44.91735" lon="1.733">
        <ele>141.5</ele>
        <time>2022-08-06T16:16:40Z</time>
      </trkpt>
      <trkpt lat="44.91735" lon="1.73309">
        <ele>140.9</ele>
        <time>2022-08-06T16:16:42Z</time>
      </trkpt>
      <trkpt lat="44.91736" lon="1.73319">
        <ele>140.3</ele>
        <time>2022-08-06T16:16:44Z</time>
      </trkpt>
      <trkpt lat="44.91736" lon="1.73329">
        <ele>139.8</ele>
        <time>2022-08-06T16:16:46Z</time>
      </trkpt>
      <trkpt lat="44.91736" lon="1.73339">
        <ele>139.4</ele>
        <time>2022-08-06T16:16:48Z</time>
      </trkpt>
      <trkpt lat="44.91735" lon="1.73349">
        <ele>139.3</ele>
        <time>2022-08-06T16:16:50Z</time>
      </trkpt>
      <trkpt lat="44.91734" lon="1.73359">
        <ele>139.2</ele>
        <time>2022-08-06T16:16:52Z</time>
      </trkpt>
      <trkpt lat="44.91733" lon="1.7337">
        <ele>139.1</ele>
        <time>2022-08-06T16:16:54Z</time>
      </trkpt>
      <trkpt lat="44.9173" lon="1.73381">
        <ele>139.2</ele>
        <time>2022-08-06T16:16:56Z</time>
      </trkpt>
      <trkpt lat="44.91727" lon="1.73393">
        <ele>139.4</ele>
        <time>2022-08-06T16:16:58Z</time>
      </trkpt>
      <trkpt lat="44.91723" lon="1.73404">
        <ele>139.8</ele>
        <time>2022-08-06T16:17:00Z</time>
      </trkpt>
      <trkpt lat="44.91719" lon="1.73415">
        <ele>140.1</ele>
        <time>2022-08-06T16:17:02Z</time>
      </trkpt>
      <trkpt lat="44.91715" lon="1.73426">
        <ele>140.2</ele>
        <time>2022-08-06T16:17:04Z</time>
      </trkpt>
      <trkpt lat="44.91711" lon="1.73435">
        <ele>140.4</ele>
        <time>2022-08-06T16:17:06Z</time>
      </trkpt>
      <trkpt lat="44.9171" lon="1.73442">
        <ele>140.3</ele>
        <time>2022-08-06T16:17:08Z</time>
      </trkpt>
      <trkpt lat="44.91712" lon="1.73449">
        <ele>139.8</ele>
        <time>2022-08-06T16:17:10Z</time>
      </trkpt>
      <trkpt lat="44.91718" lon="1.73449">
        <ele>138.8</ele>
        <time>2022-08-06T16:17:12Z</time>
      </trkpt>
      <trkpt lat="44.91723" lon="1.73444">
        <ele>138.4</ele>
        <time>2022-08-06T16:17:14Z</time>
      </trkpt>
      <trkpt lat="44.91727" lon="1.73437">
        <ele>138</ele>
        <time>2022-08-06T16:17:16Z</time>
      </trkpt>
      <trkpt lat="44.91732" lon="1.7343">
        <ele>137.7</ele>
        <time>2022-08-06T16:17:18Z</time>
      </trkpt>
      <trkpt lat="44.91737" lon="1.7342">
        <ele>137.5</ele>
        <time>2022-08-06T16:17:20Z</time>
      </trkpt>
      <trkpt lat="44.91743" lon="1.73412">
        <ele>137</ele>
        <time>2022-08-06T16:17:22Z</time>
      </trkpt>
      <trkpt lat="44.9175" lon="1.73406">
        <ele>136.3</ele>
        <time>2022-08-06T16:17:24Z</time>
      </trkpt>
      <trkpt lat="44.91755" lon="1.73397">
        <ele>135.9</ele>
        <time>2022-08-06T16:17:26Z</time>
      </trkpt>
      <trkpt lat="44.91761" lon="1.7339">
        <ele>135.6</ele>
        <time>2022-08-06T16:17:28Z</time>
      </trkpt>
      <trkpt lat="44.91766" lon="1.73382">
        <ele>135.4</ele>
        <time>2022-08-06T16:17:30Z</time>
      </trkpt>
      <trkpt lat="44.91772" lon="1.73374">
        <ele>135.3</ele>
        <time>2022-08-06T16:17:32Z</time>
      </trkpt>
      <trkpt lat="44.91778" lon="1.73367">
        <ele>135.3</ele>
        <time>2022-08-06T16:17:34Z</time>
      </trkpt>
      <trkpt lat="44.91786" lon="1.7336">
        <ele>135.2</ele>
        <time>2022-08-06T16:17:36Z</time>
      </trkpt>
      <trkpt lat="44.91794" lon="1.73356">
        <ele>135.1</ele>
        <time>2022-08-06T16:17:38Z</time>
      </trkpt>
      <trkpt lat="44.91802" lon="1.73352">
        <ele>135.1</ele>
        <time>2022-08-06T16:17:40Z</time>
      </trkpt>
      <trkpt lat="44.9181" lon="1.73349">
        <ele>135</ele>
        <time>2022-08-06T16:17:42Z</time>
      </trkpt>
      <trkpt lat="44.91817" lon="1.73344">
        <ele>135.2</ele>
        <time>2022-08-06T16:17:44Z</time>
      </trkpt>
      <trkpt lat="44.91824" lon="1.7334">
        <ele>135.5</ele>
        <time>2022-08-06T16:17:46Z</time>
      </trkpt>
      <trkpt lat="44.91831" lon="1.73333">
        <ele>136.1</ele>
        <time>2022-08-06T16:17:48Z</time>
      </trkpt>
      <trkpt lat="44.91837" lon="1.73329">
        <ele>135.8</ele>
        <time>2022-08-06T16:17:50Z</time>
      </trkpt>
      <trkpt lat="44.91843" lon="1.73323">
        <ele>135.4</ele>
        <time>2022-08-06T16:17:52Z</time>
      </trkpt>
      <trkpt lat="44.91848" lon="1.73318">
        <ele>135.2</ele>
        <time>2022-08-06T16:17:54Z</time>
      </trkpt>
      <trkpt lat="44.91853" lon="1.73312">
        <ele>135</ele>
        <time>2022-08-06T16:17:56Z</time>
      </trkpt>
      <trkpt lat="44.91859" lon="1.73307">
        <ele>134.7</ele>
        <time>2022-08-06T16:17:58Z</time>
      </trkpt>
      <trkpt lat="44.91865" lon="1.733">
        <ele>134.5</ele>
        <time>2022-08-06T16:18:00Z</time>
      </trkpt>
      <trkpt lat="44.91869" lon="1.73293">
        <ele>134.6</ele>
        <time>2022-08-06T16:18:02Z</time>
      </trkpt>
      <trkpt lat="44.91873" lon="1.73286">
        <ele>134.7</ele>
        <time>2022-08-06T16:18:04Z</time>
      </trkpt>
      <trkpt lat="44.91878" lon="1.73278">
        <ele>134.8</ele>
        <time>2022-08-06T16:18:06Z</time>
      </trkpt>
      <trkpt lat="44.91882" lon="1.73271">
        <ele>134.9</ele>
        <time>2022-08-06T16:18:08Z</time>
      </trkpt>
      <trkpt lat="44.91887" lon="1.73264">
        <ele>135</ele>
        <time>2022-08-06T16:18:10Z</time>
      </trkpt>
      <trkpt lat="44.91891" lon="1.73257">
        <ele>135.1</ele>
        <time>2022-08-06T16:18:12Z</time>
      </trkpt>
      <trkpt lat="44.91894" lon="1.73251">
        <ele>135.4</ele>
        <time>2022-08-06T16:18:14Z</time>
      </trkpt>
      <trkpt lat="44.91898" lon="1.73245">
        <ele>135</ele>
        <time>2022-08-06T16:18:16Z</time>
      </trkpt>
      <trkpt lat="44.91901" lon="1.73239">
        <ele>134.6</ele>
        <time>2022-08-06T16:18:18Z</time>
      </trkpt>
      <trkpt lat="44.91904" lon="1.73234">
        <ele>134.3</ele>
        <time>2022-08-06T16:18:20Z</time>
      </trkpt>
      <trkpt lat="44.91907" lon="1.73228">
        <ele>134</ele>
        <time>2022-08-06T16:18:22Z</time>
      </trkpt>
      <trkpt lat="44.91909" lon="1.73222">
        <ele>133.8</ele>
        <time>2022-08-06T16:18:24Z</time>
      </trkpt>
      <trkpt lat="44.9191" lon="1.73216">
        <ele>133.7</ele>
        <time>2022-08-06T16:18:26Z</time>
      </trkpt>
      <trkpt lat="44.9191" lon="1.73209">
        <ele>133.7</ele>
        <time>2022-08-06T16:18:28Z</time>
      </trkpt>
      <trkpt lat="44.91908" lon="1.73203">
        <ele>133.8</ele>
        <time>2022-08-06T16:18:30Z</time>
      </trkpt>
      <trkpt lat="44.91908" lon="1.73199">
        <ele>133.8</ele>
        <time>2022-08-06T16:18:32Z</time>
      </trkpt>
      <trkpt lat="44.91907" lon="1.73195">
        <ele>133.9</ele>
        <time>2022-08-06T16:18:34Z</time>
      </trkpt>
      <trkpt lat="44.91907" lon="1.73192">
        <ele>133.9</ele>
        <time>2022-08-06T16:18:36Z</time>
      </trkpt>
      <trkpt lat="44.91907" lon="1.73192">
        <ele>133.8</ele>
        <time>2022-08-06T16:18:38Z</time>
      </trkpt>
      <trkpt lat="44.91907" lon="1.73192">
        <ele>133.8</ele>
        <time>2022-08-06T16:18:40Z</time>
      </trkpt>
      <trkpt lat="44.91908" lon="1.73192">
        <ele>133.8</ele>
        <time>2022-08-06T16:18:42Z</time>
      </trkpt>
      <trkpt lat="44.91908" lon="1.73192">
        <ele>133.8</ele>
        <time>2022-08-06T16:18:44Z</time>
      </trkpt>
      <trkpt lat="44.91907" lon="1.73191">
        <ele>133.8</ele>
        <time>2022-08-06T16:18:46Z</time>
      </trkpt>
      <trkpt lat="44.91907" lon="1.73191">
        <ele>133.8</ele>
        <time>2022-08-06T16:18:50Z</time>
      </trkpt>
      <trkpt lat="44.91906" lon="1.7319">
        <ele>134</ele>
        <time>2022-08-06T16:18:52Z</time>
      </trkpt>
      <trkpt lat="44.91906" lon="1.73193">
        <ele>134</ele>
        <time>2022-08-06T16:18:54Z</time>
      </trkpt>
      <trkpt lat="44.91908" lon="1.73198">
        <ele>133.8</ele>
        <time>2022-08-06T16:18:56Z</time>
      </trkpt>
      <trkpt lat="44.91909" lon="1.73202">
        <ele>133.7</ele>
        <time>2022-08-06T16:18:58Z</time>
      </trkpt>
      <trkpt lat="44.91909" lon="1.73206">
        <ele>133.7</ele>
        <time>2022-08-06T16:19:00Z</time>
      </trkpt>
      <trkpt lat="44.91913" lon="1.73208">
        <ele>133.4</ele>
        <time>2022-08-06T16:19:02Z</time>
      </trkpt>
      <trkpt lat="44.91914" lon="1.7321">
        <ele>133.2</ele>
        <time>2022-08-06T16:19:04Z</time>
      </trkpt>
      <trkpt lat="44.91914" lon="1.73209">
        <ele>133.3</ele>
        <time>2022-08-06T16:19:06Z</time>
      </trkpt>
      <trkpt lat="44.91914" lon="1.7321">
        <ele>133.3</ele>
        <time>2022-08-06T16:19:08Z</time>
      </trkpt>
      <trkpt lat="44.91914" lon="1.7321">
        <ele>133.3</ele>
        <time>2022-08-06T16:19:10Z</time>
      </trkpt>
      <trkpt lat="44.91915" lon="1.73212">
        <ele>133.1</ele>
        <time>2022-08-06T16:19:12Z</time>
      </trkpt>
      <trkpt lat="44.91915" lon="1.73214">
        <ele>133.2</ele>
        <time>2022-08-06T16:19:14Z</time>
      </trkpt>
      <trkpt lat="44.91907" lon="1.73197">
        <ele>133.9</ele>
        <time>2022-08-06T16:30:06Z</time>
      </trkpt>
      <trkpt lat="44.91908" lon="1.73193">
        <ele>133.8</ele>
        <time>2022-08-06T16:30:08Z</time>
      </trkpt>
      <trkpt lat="44.91908" lon="1.73188">
        <ele>133.8</ele>
        <time>2022-08-06T16:30:10Z</time>
      </trkpt>
      <trkpt lat="44.91909" lon="1.73185">
        <ele>133.7</ele>
        <time>2022-08-06T16:30:12Z</time>
      </trkpt>
      <trkpt lat="44.91911" lon="1.73181">
        <ele>133.5</ele>
        <time>2022-08-06T16:30:14Z</time>
      </trkpt>
      <trkpt lat="44.91914" lon="1.73175">
        <ele>133.3</ele>
        <time>2022-08-06T16:30:16Z</time>
      </trkpt>
      <trkpt lat="44.91916" lon="1.73169">
        <ele>133</ele>
        <time>2022-08-06T16:30:18Z</time>
      </trkpt>
      <trkpt lat="44.91919" lon="1.73163">
        <ele>133</ele>
        <time>2022-08-06T16:30:20Z</time>
      </trkpt>
      <trkpt lat="44.91921" lon="1.73156">
        <ele>133.2</ele>
        <time>2022-08-06T16:30:22Z</time>
      </trkpt>
      <trkpt lat="44.91924" lon="1.73148">
        <ele>133.4</ele>
        <time>2022-08-06T16:30:24Z</time>
      </trkpt>
      <trkpt lat="44.91927" lon="1.73141">
        <ele>133.6</ele>
        <time>2022-08-06T16:30:26Z</time>
      </trkpt>
      <trkpt lat="44.9193" lon="1.73135">
        <ele>133.7</ele>
        <time>2022-08-06T16:30:28Z</time>
      </trkpt>
      <trkpt lat="44.91932" lon="1.73127">
        <ele>133.9</ele>
        <time>2022-08-06T16:30:30Z</time>
      </trkpt>
      <trkpt lat="44.91937" lon="1.73121">
        <ele>134</ele>
        <time>2022-08-06T16:30:32Z</time>
      </trkpt>
      <trkpt lat="44.91943" lon="1.73116">
        <ele>133.7</ele>
        <time>2022-08-06T16:30:34Z</time>
      </trkpt>
      <trkpt lat="44.9195" lon="1.7311">
        <ele>133.4</ele>
        <time>2022-08-06T16:30:36Z</time>
      </trkpt>
      <trkpt lat="44.91958" lon="1.73106">
        <ele>133</ele>
        <time>2022-08-06T16:30:38Z</time>
      </trkpt>
      <trkpt lat="44.91967" lon="1.73098">
        <ele>132.8</ele>
        <time>2022-08-06T16:30:40Z</time>
      </trkpt>
      <trkpt lat="44.91976" lon="1.7309">
        <ele>132.5</ele>
        <time>2022-08-06T16:30:42Z</time>
      </trkpt>
      <trkpt lat="44.91986" lon="1.73081">
        <ele>132.4</ele>
        <time>2022-08-06T16:30:44Z</time>
      </trkpt>
      <trkpt lat="44.91996" lon="1.7307">
        <ele>132.6</ele>
        <time>2022-08-06T16:30:46Z</time>
      </trkpt>
      <trkpt lat="44.92003" lon="1.73055">
        <ele>133.2</ele>
        <time>2022-08-06T16:30:48Z</time>
      </trkpt>
      <trkpt lat="44.92009" lon="1.73037">
        <ele>134</ele>
        <time>2022-08-06T16:30:50Z</time>
      </trkpt>
      <trkpt lat="44.92016" lon="1.73021">
        <ele>134.2</ele>
        <time>2022-08-06T16:30:52Z</time>
      </trkpt>
      <trkpt lat="44.92023" lon="1.73004">
        <ele>134.3</ele>
        <time>2022-08-06T16:30:54Z</time>
      </trkpt>
      <trkpt lat="44.92029" lon="1.72986">
        <ele>134.4</ele>
        <time>2022-08-06T16:30:56Z</time>
      </trkpt>
      <trkpt lat="44.92036" lon="1.72969">
        <ele>134</ele>
        <time>2022-08-06T16:30:58Z</time>
      </trkpt>
      <trkpt lat="44.92043" lon="1.72951">
        <ele>133.6</ele>
        <time>2022-08-06T16:31:00Z</time>
      </trkpt>
      <trkpt lat="44.92051" lon="1.72932">
        <ele>133</ele>
        <time>2022-08-06T16:31:02Z</time>
      </trkpt>
      <trkpt lat="44.92059" lon="1.72913">
        <ele>132.3</ele>
        <time>2022-08-06T16:31:04Z</time>
      </trkpt>
      <trkpt lat="44.92069" lon="1.72898">
        <ele>131.9</ele>
        <time>2022-08-06T16:31:06Z</time>
      </trkpt>
      <trkpt lat="44.92079" lon="1.72885">
        <ele>131.6</ele>
        <time>2022-08-06T16:31:08Z</time>
      </trkpt>
      <trkpt lat="44.92086" lon="1.7287">
        <ele>132.3</ele>
        <time>2022-08-06T16:31:10Z</time>
      </trkpt>
      <trkpt lat="44.92093" lon="1.72855">
        <ele>133.1</ele>
        <time>2022-08-06T16:31:12Z</time>
      </trkpt>
      <trkpt lat="44.921" lon="1.72841">
        <ele>133.6</ele>
        <time>2022-08-06T16:31:14Z</time>
      </trkpt>
      <trkpt lat="44.92107" lon="1.72827">
        <ele>133.3</ele>
        <time>2022-08-06T16:31:16Z</time>
      </trkpt>
      <trkpt lat="44.92113" lon="1.72814">
        <ele>132.8</ele>
        <time>2022-08-06T16:31:18Z</time>
      </trkpt>
      <trkpt lat="44.92118" lon="1.72801">
        <ele>132.4</ele>
        <time>2022-08-06T16:31:20Z</time>
      </trkpt>
      <trkpt lat="44.92123" lon="1.72788">
        <ele>132.1</ele>
        <time>2022-08-06T16:31:22Z</time>
      </trkpt>
      <trkpt lat="44.92131" lon="1.72778">
        <ele>131.1</ele>
        <time>2022-08-06T16:31:24Z</time>
      </trkpt>
      <trkpt lat="44.92138" lon="1.72767">
        <ele>130.3</ele>
        <time>2022-08-06T16:31:26Z</time>
      </trkpt>
      <trkpt lat="44.92141" lon="1.72756">
        <ele>130.2</ele>
        <time>2022-08-06T16:31:28Z</time>
      </trkpt>
      <trkpt lat="44.92146" lon="1.72746">
        <ele>129.7</ele>
        <time>2022-08-06T16:31:30Z</time>
      </trkpt>
      <trkpt lat="44.92152" lon="1.72736">
        <ele>129.3</ele>
        <time>2022-08-06T16:31:32Z</time>
      </trkpt>
      <trkpt lat="44.92158" lon="1.72725">
        <ele>129.1</ele>
        <time>2022-08-06T16:31:34Z</time>
      </trkpt>
      <trkpt lat="44.92164" lon="1.72715">
        <ele>129</ele>
        <time>2022-08-06T16:31:36Z</time>
      </trkpt>
      <trkpt lat="44.92168" lon="1.72705">
        <ele>129.3</ele>
        <time>2022-08-06T16:31:38Z</time>
      </trkpt>
      <trkpt lat="44.92172" lon="1.72695">
        <ele>129.9</ele>
        <time>2022-08-06T16:31:40Z</time>
      </trkpt>
      <trkpt lat="44.92176" lon="1.72686">
        <ele>130.4</ele>
        <time>2022-08-06T16:31:42Z</time>
      </trkpt>
      <trkpt lat="44.9218" lon="1.72675">
        <ele>130.9</ele>
        <time>2022-08-06T16:31:44Z</time>
      </trkpt>
      <trkpt lat="44.92185" lon="1.72666">
        <ele>131.3</ele>
        <time>2022-08-06T16:31:46Z</time>
      </trkpt>
      <trkpt lat="44.92188" lon="1.72657">
        <ele>131.6</ele>
        <time>2022-08-06T16:31:48Z</time>
      </trkpt>
      <trkpt lat="44.92193" lon="1.72647">
        <ele>131.9</ele>
        <time>2022-08-06T16:31:50Z</time>
      </trkpt>
      <trkpt lat="44.92198" lon="1.72638">
        <ele>132.1</ele>
        <time>2022-08-06T16:31:52Z</time>
      </trkpt>
      <trkpt lat="44.92201" lon="1.72628">
        <ele>132.3</ele>
        <time>2022-08-06T16:31:54Z</time>
      </trkpt>
      <trkpt lat="44.92205" lon="1.72618">
        <ele>132.5</ele>
        <time>2022-08-06T16:31:56Z</time>
      </trkpt>
      <trkpt lat="44.9221" lon="1.72609">
        <ele>132.6</ele>
        <time>2022-08-06T16:31:58Z</time>
      </trkpt>
      <trkpt lat="44.92215" lon="1.72601">
        <ele>132.5</ele>
        <time>2022-08-06T16:32:00Z</time>
      </trkpt>
      <trkpt lat="44.9222" lon="1.72593">
        <ele>132.4</ele>
        <time>2022-08-06T16:32:02Z</time>
      </trkpt>
      <trkpt lat="44.92226" lon="1.72585">
        <ele>132.1</ele>
        <time>2022-08-06T16:32:04Z</time>
      </trkpt>
      <trkpt lat="44.92231" lon="1.72578">
        <ele>132.4</ele>
        <time>2022-08-06T16:32:06Z</time>
      </trkpt>
      <trkpt lat="44.92236" lon="1.72571">
        <ele>132.9</ele>
        <time>2022-08-06T16:32:08Z</time>
      </trkpt>
      <trkpt lat="44.92241" lon="1.72563">
        <ele>133.9</ele>
        <time>2022-08-06T16:32:10Z</time>
      </trkpt>
      <trkpt lat="44.92247" lon="1.72556">
        <ele>134.5</ele>
        <time>2022-08-06T16:32:12Z</time>
      </trkpt>
      <trkpt lat="44.92253" lon="1.72549">
        <ele>135.2</ele>
        <time>2022-08-06T16:32:14Z</time>
      </trkpt>
      <trkpt lat="44.92259" lon="1.72541">
        <ele>135.8</ele>
        <time>2022-08-06T16:32:16Z</time>
      </trkpt>
      <trkpt lat="44.92264" lon="1.72533">
        <ele>136.5</ele>
        <time>2022-08-06T16:32:18Z</time>
      </trkpt>
      <trkpt lat="44.9227" lon="1.72526">
        <ele>136.9</ele>
        <time>2022-08-06T16:32:20Z</time>
      </trkpt>
      <trkpt lat="44.92276" lon="1.72518">
        <ele>137</ele>
        <time>2022-08-06T16:32:22Z</time>
      </trkpt>
      <trkpt lat="44.92282" lon="1.7251">
        <ele>137.2</ele>
        <time>2022-08-06T16:32:24Z</time>
      </trkpt>
      <trkpt lat="44.92287" lon="1.72502">
        <ele>137.1</ele>
        <time>2022-08-06T16:32:26Z</time>
      </trkpt>
      <trkpt lat="44.92293" lon="1.72495">
        <ele>137.2</ele>
        <time>2022-08-06T16:32:28Z</time>
      </trkpt>
      <trkpt lat="44.92299" lon="1.72487">
        <ele>137.7</ele>
        <time>2022-08-06T16:32:30Z</time>
      </trkpt>
      <trkpt lat="44.92305" lon="1.72479">
        <ele>138.2</ele>
        <time>2022-08-06T16:32:32Z</time>
      </trkpt>
      <trkpt lat="44.92313" lon="1.72471">
        <ele>137.9</ele>
        <time>2022-08-06T16:32:34Z</time>
      </trkpt>
      <trkpt lat="44.9232" lon="1.72463">
        <ele>137.8</ele>
        <time>2022-08-06T16:32:36Z</time>
      </trkpt>
      <trkpt lat="44.92328" lon="1.72456">
        <ele>137.4</ele>
        <time>2022-08-06T16:32:38Z</time>
      </trkpt>
      <trkpt lat="44.92334" lon="1.72447">
        <ele>137.4</ele>
        <time>2022-08-06T16:32:40Z</time>
      </trkpt>
      <trkpt lat="44.92342" lon="1.7244">
        <ele>137.4</ele>
        <time>2022-08-06T16:32:42Z</time>
      </trkpt>
      <trkpt lat="44.9235" lon="1.72432">
        <ele>137.3</ele>
        <time>2022-08-06T16:32:44Z</time>
      </trkpt>
      <trkpt lat="44.92358" lon="1.72424">
        <ele>136.8</ele>
        <time>2022-08-06T16:32:46Z</time>
      </trkpt>
      <trkpt lat="44.92365" lon="1.72417">
        <ele>136.2</ele>
        <time>2022-08-06T16:32:48Z</time>
      </trkpt>
      <trkpt lat="44.92373" lon="1.72409">
        <ele>135.9</ele>
        <time>2022-08-06T16:32:50Z</time>
      </trkpt>
      <trkpt lat="44.92381" lon="1.72402">
        <ele>135.5</ele>
        <time>2022-08-06T16:32:52Z</time>
      </trkpt>
      <trkpt lat="44.92389" lon="1.72394">
        <ele>135.1</ele>
        <time>2022-08-06T16:32:54Z</time>
      </trkpt>
      <trkpt lat="44.92396" lon="1.72386">
        <ele>134.4</ele>
        <time>2022-08-06T16:32:56Z</time>
      </trkpt>
      <trkpt lat="44.92404" lon="1.72377">
        <ele>133.8</ele>
        <time>2022-08-06T16:32:58Z</time>
      </trkpt>
      <trkpt lat="44.9241" lon="1.72368">
        <ele>133.3</ele>
        <time>2022-08-06T16:33:00Z</time>
      </trkpt>
      <trkpt lat="44.92417" lon="1.7236">
        <ele>132.5</ele>
        <time>2022-08-06T16:33:02Z</time>
      </trkpt>
      <trkpt lat="44.92424" lon="1.72351">
        <ele>132.8</ele>
        <time>2022-08-06T16:33:04Z</time>
      </trkpt>
      <trkpt lat="44.9243" lon="1.72341">
        <ele>133</ele>
        <time>2022-08-06T16:33:06Z</time>
      </trkpt>
      <trkpt lat="44.92437" lon="1.72333">
        <ele>132.7</ele>
        <time>2022-08-06T16:33:08Z</time>
      </trkpt>
      <trkpt lat="44.92443" lon="1.72324">
        <ele>133.2</ele>
        <time>2022-08-06T16:33:10Z</time>
      </trkpt>
      <trkpt lat="44.92449" lon="1.72315">
        <ele>133.6</ele>
        <time>2022-08-06T16:33:12Z</time>
      </trkpt>
      <trkpt lat="44.92455" lon="1.72307">
        <ele>133.6</ele>
        <time>2022-08-06T16:33:14Z</time>
      </trkpt>
      <trkpt lat="44.9246" lon="1.72298">
        <ele>133.6</ele>
        <time>2022-08-06T16:33:16Z</time>
      </trkpt>
      <trkpt lat="44.92466" lon="1.72289">
        <ele>133.2</ele>
        <time>2022-08-06T16:33:18Z</time>
      </trkpt>
      <trkpt lat="44.92473" lon="1.7228">
        <ele>132.4</ele>
        <time>2022-08-06T16:33:20Z</time>
      </trkpt>
      <trkpt lat="44.92479" lon="1.7227">
        <ele>131.4</ele>
        <time>2022-08-06T16:33:22Z</time>
      </trkpt>
      <trkpt lat="44.92485" lon="1.7226">
        <ele>129.9</ele>
        <time>2022-08-06T16:33:24Z</time>
      </trkpt>
      <trkpt lat="44.92492" lon="1.7225">
        <ele>128.1</ele>
        <time>2022-08-06T16:33:26Z</time>
      </trkpt>
      <trkpt lat="44.92499" lon="1.72238">
        <ele>128.4</ele>
        <time>2022-08-06T16:33:28Z</time>
      </trkpt>
      <trkpt lat="44.92506" lon="1.72227">
        <ele>130.2</ele>
        <time>2022-08-06T16:33:30Z</time>
      </trkpt>
      <trkpt lat="44.92513" lon="1.72216">
        <ele>132</ele>
        <time>2022-08-06T16:33:32Z</time>
      </trkpt>
      <trkpt lat="44.9252" lon="1.72204">
        <ele>133.3</ele>
        <time>2022-08-06T16:33:34Z</time>
      </trkpt>
      <trkpt lat="44.92526" lon="1.72191">
        <ele>134.5</ele>
        <time>2022-08-06T16:33:36Z</time>
      </trkpt>
      <trkpt lat="44.92532" lon="1.72179">
        <ele>135.2</ele>
        <time>2022-08-06T16:33:38Z</time>
      </trkpt>
      <trkpt lat="44.92538" lon="1.72165">
        <ele>135.4</ele>
        <time>2022-08-06T16:33:40Z</time>
      </trkpt>
      <trkpt lat="44.92542" lon="1.72151">
        <ele>136</ele>
        <time>2022-08-06T16:33:42Z</time>
      </trkpt>
      <trkpt lat="44.92547" lon="1.72137">
        <ele>136.5</ele>
        <time>2022-08-06T16:33:44Z</time>
      </trkpt>
      <trkpt lat="44.9255" lon="1.72124">
        <ele>136.8</ele>
        <time>2022-08-06T16:33:46Z</time>
      </trkpt>
      <trkpt lat="44.92554" lon="1.7211">
        <ele>137</ele>
        <time>2022-08-06T16:33:48Z</time>
      </trkpt>
      <trkpt lat="44.92557" lon="1.72095">
        <ele>137.6</ele>
        <time>2022-08-06T16:33:50Z</time>
      </trkpt>
      <trkpt lat="44.92561" lon="1.72081">
        <ele>137.2</ele>
        <time>2022-08-06T16:33:52Z</time>
      </trkpt>
      <trkpt lat="44.92565" lon="1.72066">
        <ele>137</ele>
        <time>2022-08-06T16:33:54Z</time>
      </trkpt>
      <trkpt lat="44.92569" lon="1.72051">
        <ele>136.8</ele>
        <time>2022-08-06T16:33:56Z</time>
      </trkpt>
      <trkpt lat="44.92573" lon="1.72037">
        <ele>136.2</ele>
        <time>2022-08-06T16:33:58Z</time>
      </trkpt>
      <trkpt lat="44.92578" lon="1.72022">
        <ele>135.7</ele>
        <time>2022-08-06T16:34:00Z</time>
      </trkpt>
      <trkpt lat="44.92583" lon="1.72007">
        <ele>135.2</ele>
        <time>2022-08-06T16:34:02Z</time>
      </trkpt>
      <trkpt lat="44.92588" lon="1.71992">
        <ele>135.2</ele>
        <time>2022-08-06T16:34:04Z</time>
      </trkpt>
      <trkpt lat="44.92592" lon="1.71978">
        <ele>134.8</ele>
        <time>2022-08-06T16:34:06Z</time>
      </trkpt>
      <trkpt lat="44.92597" lon="1.71964">
        <ele>134.3</ele>
        <time>2022-08-06T16:34:08Z</time>
      </trkpt>
      <trkpt lat="44.92601" lon="1.71951">
        <ele>133.9</ele>
        <time>2022-08-06T16:34:10Z</time>
      </trkpt>
      <trkpt lat="44.92605" lon="1.71937">
        <ele>133.6</ele>
        <time>2022-08-06T16:34:12Z</time>
      </trkpt>
      <trkpt lat="44.92608" lon="1.71925">
        <ele>133.3</ele>
        <time>2022-08-06T16:34:14Z</time>
      </trkpt>
      <trkpt lat="44.92612" lon="1.71912">
        <ele>132.8</ele>
        <time>2022-08-06T16:34:16Z</time>
      </trkpt>
      <trkpt lat="44.92615" lon="1.71899">
        <ele>132.4</ele>
        <time>2022-08-06T16:34:18Z</time>
      </trkpt>
      <trkpt lat="44.92618" lon="1.71886">
        <ele>131.8</ele>
        <time>2022-08-06T16:34:20Z</time>
      </trkpt>
      <trkpt lat="44.92619" lon="1.71873">
        <ele>131.5</ele>
        <time>2022-08-06T16:34:22Z</time>
      </trkpt>
      <trkpt lat="44.92622" lon="1.71862">
        <ele>131</ele>
        <time>2022-08-06T16:34:24Z</time>
      </trkpt>
      <trkpt lat="44.92624" lon="1.71851">
        <ele>130.5</ele>
        <time>2022-08-06T16:34:26Z</time>
      </trkpt>
      <trkpt lat="44.92627" lon="1.7184">
        <ele>130.1</ele>
        <time>2022-08-06T16:34:28Z</time>
      </trkpt>
      <trkpt lat="44.92628" lon="1.71829">
        <ele>129.9</ele>
        <time>2022-08-06T16:34:30Z</time>
      </trkpt>
      <trkpt lat="44.92631" lon="1.71818">
        <ele>129.8</ele>
        <time>2022-08-06T16:34:32Z</time>
      </trkpt>
      <trkpt lat="44.92634" lon="1.71806">
        <ele>129.7</ele>
        <time>2022-08-06T16:34:34Z</time>
      </trkpt>
      <trkpt lat="44.92635" lon="1.71795">
        <ele>129.7</ele>
        <time>2022-08-06T16:34:36Z</time>
      </trkpt>
      <trkpt lat="44.92638" lon="1.71785">
        <ele>129.4</ele>
        <time>2022-08-06T16:34:38Z</time>
      </trkpt>
      <trkpt lat="44.92639" lon="1.71774">
        <ele>129.3</ele>
        <time>2022-08-06T16:34:40Z</time>
      </trkpt>
      <trkpt lat="44.92642" lon="1.71762">
        <ele>128.8</ele>
        <time>2022-08-06T16:34:42Z</time>
      </trkpt>
      <trkpt lat="44.92645" lon="1.71751">
        <ele>128.1</ele>
        <time>2022-08-06T16:34:44Z</time>
      </trkpt>
      <trkpt lat="44.92649" lon="1.7174">
        <ele>128.3</ele>
        <time>2022-08-06T16:34:46Z</time>
      </trkpt>
      <trkpt lat="44.92653" lon="1.7173">
        <ele>128.3</ele>
        <time>2022-08-06T16:34:48Z</time>
      </trkpt>
      <trkpt lat="44.92658" lon="1.7172">
        <ele>128</ele>
        <time>2022-08-06T16:34:50Z</time>
      </trkpt>
      <trkpt lat="44.92663" lon="1.71711">
        <ele>127.5</ele>
        <time>2022-08-06T16:34:52Z</time>
      </trkpt>
      <trkpt lat="44.92668" lon="1.71702">
        <ele>127.2</ele>
        <time>2022-08-06T16:34:54Z</time>
      </trkpt>
      <trkpt lat="44.92673" lon="1.71693">
        <ele>128</ele>
        <time>2022-08-06T16:34:56Z</time>
      </trkpt>
      <trkpt lat="44.92677" lon="1.71684">
        <ele>128.7</ele>
        <time>2022-08-06T16:34:58Z</time>
      </trkpt>
      <trkpt lat="44.92682" lon="1.71675">
        <ele>129.3</ele>
        <time>2022-08-06T16:35:00Z</time>
      </trkpt>
      <trkpt lat="44.92688" lon="1.71665">
        <ele>129.8</ele>
        <time>2022-08-06T16:35:02Z</time>
      </trkpt>
      <trkpt lat="44.92693" lon="1.71655">
        <ele>131</ele>
        <time>2022-08-06T16:35:04Z</time>
      </trkpt>
      <trkpt lat="44.92698" lon="1.71646">
        <ele>132</ele>
        <time>2022-08-06T16:35:06Z</time>
      </trkpt>
      <trkpt lat="44.92703" lon="1.71636">
        <ele>132.7</ele>
        <time>2022-08-06T16:35:08Z</time>
      </trkpt>
      <trkpt lat="44.92708" lon="1.71626">
        <ele>133.3</ele>
        <time>2022-08-06T16:35:10Z</time>
      </trkpt>
      <trkpt lat="44.92714" lon="1.71617">
        <ele>133.5</ele>
        <time>2022-08-06T16:35:12Z</time>
      </trkpt>
      <trkpt lat="44.92719" lon="1.71608">
        <ele>133.3</ele>
        <time>2022-08-06T16:35:14Z</time>
      </trkpt>
      <trkpt lat="44.92725" lon="1.71599">
        <ele>132.8</ele>
        <time>2022-08-06T16:35:16Z</time>
      </trkpt>
      <trkpt lat="44.92731" lon="1.71591">
        <ele>132</ele>
        <time>2022-08-06T16:35:18Z</time>
      </trkpt>
      <trkpt lat="44.92738" lon="1.71583">
        <ele>130.6</ele>
        <time>2022-08-06T16:35:20Z</time>
      </trkpt>
      <trkpt lat="44.92745" lon="1.71576">
        <ele>130.8</ele>
        <time>2022-08-06T16:35:22Z</time>
      </trkpt>
      <trkpt lat="44.92751" lon="1.71568">
        <ele>131</ele>
        <time>2022-08-06T16:35:24Z</time>
      </trkpt>
      <trkpt lat="44.92757" lon="1.71561">
        <ele>131.9</ele>
        <time>2022-08-06T16:35:26Z</time>
      </trkpt>
      <trkpt lat="44.92763" lon="1.71553">
        <ele>132.7</ele>
        <time>2022-08-06T16:35:28Z</time>
      </trkpt>
      <trkpt lat="44.9277" lon="1.71545">
        <ele>133.3</ele>
        <time>2022-08-06T16:35:30Z</time>
      </trkpt>
      <trkpt lat="44.92776" lon="1.71537">
        <ele>133.8</ele>
        <time>2022-08-06T16:35:32Z</time>
      </trkpt>
      <trkpt lat="44.92782" lon="1.71529">
        <ele>134.2</ele>
        <time>2022-08-06T16:35:34Z</time>
      </trkpt>
      <trkpt lat="44.92789" lon="1.71521">
        <ele>134</ele>
        <time>2022-08-06T16:35:36Z</time>
      </trkpt>
      <trkpt lat="44.92795" lon="1.71513">
        <ele>133.8</ele>
        <time>2022-08-06T16:35:38Z</time>
      </trkpt>
      <trkpt lat="44.92802" lon="1.71505">
        <ele>133.3</ele>
        <time>2022-08-06T16:35:40Z</time>
      </trkpt>
      <trkpt lat="44.92808" lon="1.71497">
        <ele>133.1</ele>
        <time>2022-08-06T16:35:42Z</time>
      </trkpt>
      <trkpt lat="44.92815" lon="1.71489">
        <ele>133.6</ele>
        <time>2022-08-06T16:35:44Z</time>
      </trkpt>
      <trkpt lat="44.92821" lon="1.71482">
        <ele>133.8</ele>
        <time>2022-08-06T16:35:46Z</time>
      </trkpt>
      <trkpt lat="44.92827" lon="1.71474">
        <ele>134</ele>
        <time>2022-08-06T16:35:48Z</time>
      </trkpt>
      <trkpt lat="44.92833" lon="1.71466">
        <ele>134.2</ele>
        <time>2022-08-06T16:35:50Z</time>
      </trkpt>
      <trkpt lat="44.92839" lon="1.71457">
        <ele>135.2</ele>
        <time>2022-08-06T16:35:52Z</time>
      </trkpt>
      <trkpt lat="44.92845" lon="1.71448">
        <ele>135.9</ele>
        <time>2022-08-06T16:35:54Z</time>
      </trkpt>
      <trkpt lat="44.92851" lon="1.71438">
        <ele>136.4</ele>
        <time>2022-08-06T16:35:56Z</time>
      </trkpt>
      <trkpt lat="44.92857" lon="1.7143">
        <ele>136.4</ele>
        <time>2022-08-06T16:35:58Z</time>
      </trkpt>
      <trkpt lat="44.92863" lon="1.71421">
        <ele>136.1</ele>
        <time>2022-08-06T16:36:00Z</time>
      </trkpt>
      <trkpt lat="44.9287" lon="1.71413">
        <ele>135.7</ele>
        <time>2022-08-06T16:36:02Z</time>
      </trkpt>
      <trkpt lat="44.92878" lon="1.71405">
        <ele>135.4</ele>
        <time>2022-08-06T16:36:04Z</time>
      </trkpt>
      <trkpt lat="44.92886" lon="1.71396">
        <ele>134.8</ele>
        <time>2022-08-06T16:36:06Z</time>
      </trkpt>
      <trkpt lat="44.92894" lon="1.71387">
        <ele>133.6</ele>
        <time>2022-08-06T16:36:08Z</time>
      </trkpt>
      <trkpt lat="44.92902" lon="1.71379">
        <ele>132.5</ele>
        <time>2022-08-06T16:36:10Z</time>
      </trkpt>
      <trkpt lat="44.9291" lon="1.71371">
        <ele>130.8</ele>
        <time>2022-08-06T16:36:12Z</time>
      </trkpt>
      <trkpt lat="44.92918" lon="1.71362">
        <ele>129.4</ele>
        <time>2022-08-06T16:36:14Z</time>
      </trkpt>
      <trkpt lat="44.92925" lon="1.71353">
        <ele>130</ele>
        <time>2022-08-06T16:36:16Z</time>
      </trkpt>
      <trkpt lat="44.92932" lon="1.71344">
        <ele>130.4</ele>
        <time>2022-08-06T16:36:18Z</time>
      </trkpt>
      <trkpt lat="44.92938" lon="1.71335">
        <ele>130.6</ele>
        <time>2022-08-06T16:36:20Z</time>
      </trkpt>
      <trkpt lat="44.92946" lon="1.71327">
        <ele>131.6</ele>
        <time>2022-08-06T16:36:22Z</time>
      </trkpt>
      <trkpt lat="44.92954" lon="1.71319">
        <ele>132.3</ele>
        <time>2022-08-06T16:36:24Z</time>
      </trkpt>
      <trkpt lat="44.92962" lon="1.71311">
        <ele>132.5</ele>
        <time>2022-08-06T16:36:26Z</time>
      </trkpt>
      <trkpt lat="44.92971" lon="1.71304">
        <ele>132.3</ele>
        <time>2022-08-06T16:36:28Z</time>
      </trkpt>
      <trkpt lat="44.92981" lon="1.71297">
        <ele>131.6</ele>
        <time>2022-08-06T16:36:30Z</time>
      </trkpt>
      <trkpt lat="44.9299" lon="1.7129">
        <ele>130.7</ele>
        <time>2022-08-06T16:36:32Z</time>
      </trkpt>
      <trkpt lat="44.92999" lon="1.71283">
        <ele>129.7</ele>
        <time>2022-08-06T16:36:34Z</time>
      </trkpt>
      <trkpt lat="44.93006" lon="1.71275">
        <ele>130.1</ele>
        <time>2022-08-06T16:36:36Z</time>
      </trkpt>
      <trkpt lat="44.93014" lon="1.71268">
        <ele>130.3</ele>
        <time>2022-08-06T16:36:38Z</time>
      </trkpt>
      <trkpt lat="44.93022" lon="1.7126">
        <ele>130.4</ele>
        <time>2022-08-06T16:36:40Z</time>
      </trkpt>
      <trkpt lat="44.9303" lon="1.71253">
        <ele>130.3</ele>
        <time>2022-08-06T16:36:42Z</time>
      </trkpt>
      <trkpt lat="44.93035" lon="1.71243">
        <ele>131.1</ele>
        <time>2022-08-06T16:36:44Z</time>
      </trkpt>
      <trkpt lat="44.93042" lon="1.71235">
        <ele>131.2</ele>
        <time>2022-08-06T16:36:46Z</time>
      </trkpt>
      <trkpt lat="44.93048" lon="1.71228">
        <ele>131.1</ele>
        <time>2022-08-06T16:36:48Z</time>
      </trkpt>
      <trkpt lat="44.93056" lon="1.71221">
        <ele>130.6</ele>
        <time>2022-08-06T16:36:50Z</time>
      </trkpt>
      <trkpt lat="44.93061" lon="1.71215">
        <ele>130</ele>
        <time>2022-08-06T16:36:52Z</time>
      </trkpt>
      <trkpt lat="44.93067" lon="1.71208">
        <ele>129.3</ele>
        <time>2022-08-06T16:36:54Z</time>
      </trkpt>
      <trkpt lat="44.93073" lon="1.71201">
        <ele>128.7</ele>
        <time>2022-08-06T16:36:56Z</time>
      </trkpt>
      <trkpt lat="44.93079" lon="1.71193">
        <ele>127.7</ele>
        <time>2022-08-06T16:36:58Z</time>
      </trkpt>
      <trkpt lat="44.93085" lon="1.71185">
        <ele>127.2</ele>
        <time>2022-08-06T16:37:00Z</time>
      </trkpt>
      <trkpt lat="44.93091" lon="1.71175">
        <ele>127.5</ele>
        <time>2022-08-06T16:37:02Z</time>
      </trkpt>
      <trkpt lat="44.93097" lon="1.71166">
        <ele>127.8</ele>
        <time>2022-08-06T16:37:04Z</time>
      </trkpt>
      <trkpt lat="44.93103" lon="1.71155">
        <ele>128.7</ele>
        <time>2022-08-06T16:37:06Z</time>
      </trkpt>
      <trkpt lat="44.9311" lon="1.71144">
        <ele>129.4</ele>
        <time>2022-08-06T16:37:08Z</time>
      </trkpt>
      <trkpt lat="44.93117" lon="1.71132">
        <ele>130.1</ele>
        <time>2022-08-06T16:37:10Z</time>
      </trkpt>
      <trkpt lat="44.93124" lon="1.7112">
        <ele>130.7</ele>
        <time>2022-08-06T16:37:12Z</time>
      </trkpt>
      <trkpt lat="44.93132" lon="1.71107">
        <ele>131.2</ele>
        <time>2022-08-06T16:37:14Z</time>
      </trkpt>
      <trkpt lat="44.93139" lon="1.71093">
        <ele>131.6</ele>
        <time>2022-08-06T16:37:16Z</time>
      </trkpt>
      <trkpt lat="44.93147" lon="1.71082">
        <ele>131.7</ele>
        <time>2022-08-06T16:37:18Z</time>
      </trkpt>
      <trkpt lat="44.93154" lon="1.71068">
        <ele>132.8</ele>
        <time>2022-08-06T16:37:20Z</time>
      </trkpt>
      <trkpt lat="44.93161" lon="1.71056">
        <ele>133.3</ele>
        <time>2022-08-06T16:37:22Z</time>
      </trkpt>
      <trkpt lat="44.93167" lon="1.71044">
        <ele>133.6</ele>
        <time>2022-08-06T16:37:24Z</time>
      </trkpt>
      <trkpt lat="44.93177" lon="1.71033">
        <ele>133.3</ele>
        <time>2022-08-06T16:37:26Z</time>
      </trkpt>
      <trkpt lat="44.93186" lon="1.71022">
        <ele>132.9</ele>
        <time>2022-08-06T16:37:28Z</time>
      </trkpt>
      <trkpt lat="44.93194" lon="1.71012">
        <ele>132.2</ele>
        <time>2022-08-06T16:37:30Z</time>
      </trkpt>
      <trkpt lat="44.93203" lon="1.71003">
        <ele>131</ele>
        <time>2022-08-06T16:37:32Z</time>
      </trkpt>
      <trkpt lat="44.93212" lon="1.70994">
        <ele>130</ele>
        <time>2022-08-06T16:37:34Z</time>
      </trkpt>
      <trkpt lat="44.93221" lon="1.70987">
        <ele>128.6</ele>
        <time>2022-08-06T16:37:36Z</time>
      </trkpt>
      <trkpt lat="44.93229" lon="1.70979">
        <ele>127.3</ele>
        <time>2022-08-06T16:37:38Z</time>
      </trkpt>
      <trkpt lat="44.93237" lon="1.70971">
        <ele>126.2</ele>
        <time>2022-08-06T16:37:40Z</time>
      </trkpt>
      <trkpt lat="44.93243" lon="1.70961">
        <ele>125.5</ele>
        <time>2022-08-06T16:37:42Z</time>
      </trkpt>
      <trkpt lat="44.93249" lon="1.70951">
        <ele>124.9</ele>
        <time>2022-08-06T16:37:44Z</time>
      </trkpt>
      <trkpt lat="44.93254" lon="1.70941">
        <ele>125.2</ele>
        <time>2022-08-06T16:37:46Z</time>
      </trkpt>
      <trkpt lat="44.93257" lon="1.7093">
        <ele>125.7</ele>
        <time>2022-08-06T16:37:48Z</time>
      </trkpt>
      <trkpt lat="44.9326" lon="1.7092">
        <ele>126.1</ele>
        <time>2022-08-06T16:37:50Z</time>
      </trkpt>
      <trkpt lat="44.93263" lon="1.70908">
        <ele>126.2</ele>
        <time>2022-08-06T16:37:52Z</time>
      </trkpt>
      <trkpt lat="44.93265" lon="1.70898">
        <ele>126.3</ele>
        <time>2022-08-06T16:37:54Z</time>
      </trkpt>
      <trkpt lat="44.93266" lon="1.70887">
        <ele>126.7</ele>
        <time>2022-08-06T16:37:56Z</time>
      </trkpt>
      <trkpt lat="44.93269" lon="1.70877">
        <ele>126.8</ele>
        <time>2022-08-06T16:37:58Z</time>
      </trkpt>
      <trkpt lat="44.9327" lon="1.70864">
        <ele>127.3</ele>
        <time>2022-08-06T16:38:00Z</time>
      </trkpt>
      <trkpt lat="44.9327" lon="1.70854">
        <ele>127.9</ele>
        <time>2022-08-06T16:38:02Z</time>
      </trkpt>
      <trkpt lat="44.93269" lon="1.70844">
        <ele>128.6</ele>
        <time>2022-08-06T16:38:04Z</time>
      </trkpt>
      <trkpt lat="44.93268" lon="1.70834">
        <ele>129.4</ele>
        <time>2022-08-06T16:38:06Z</time>
      </trkpt>
      <trkpt lat="44.93267" lon="1.70823">
        <ele>130.5</ele>
        <time>2022-08-06T16:38:08Z</time>
      </trkpt>
      <trkpt lat="44.93266" lon="1.70813">
        <ele>131.4</ele>
        <time>2022-08-06T16:38:10Z</time>
      </trkpt>
      <trkpt lat="44.93266" lon="1.70801">
        <ele>132.3</ele>
        <time>2022-08-06T16:38:12Z</time>
      </trkpt>
      <trkpt lat="44.93268" lon="1.70789">
        <ele>132.8</ele>
        <time>2022-08-06T16:38:14Z</time>
      </trkpt>
      <trkpt lat="44.9327" lon="1.70778">
        <ele>133.2</ele>
        <time>2022-08-06T16:38:16Z</time>
      </trkpt>
      <trkpt lat="44.93272" lon="1.70768">
        <ele>133.4</ele>
        <time>2022-08-06T16:38:18Z</time>
      </trkpt>
      <trkpt lat="44.93274" lon="1.70759">
        <ele>133.6</ele>
        <time>2022-08-06T16:38:20Z</time>
      </trkpt>
      <trkpt lat="44.93277" lon="1.70749">
        <ele>133.3</ele>
        <time>2022-08-06T16:38:22Z</time>
      </trkpt>
      <trkpt lat="44.9328" lon="1.70739">
        <ele>133.9</ele>
        <time>2022-08-06T16:38:24Z</time>
      </trkpt>
      <trkpt lat="44.93282" lon="1.7073">
        <ele>134.6</ele>
        <time>2022-08-06T16:38:26Z</time>
      </trkpt>
      <trkpt lat="44.93284" lon="1.7072">
        <ele>134.9</ele>
        <time>2022-08-06T16:38:28Z</time>
      </trkpt>
      <trkpt lat="44.93286" lon="1.70711">
        <ele>135.4</ele>
        <time>2022-08-06T16:38:30Z</time>
      </trkpt>
      <trkpt lat="44.93289" lon="1.70701">
        <ele>135.7</ele>
        <time>2022-08-06T16:38:32Z</time>
      </trkpt>
      <trkpt lat="44.93291" lon="1.70691">
        <ele>136.1</ele>
        <time>2022-08-06T16:38:34Z</time>
      </trkpt>
      <trkpt lat="44.93295" lon="1.70681">
        <ele>136.1</ele>
        <time>2022-08-06T16:38:36Z</time>
      </trkpt>
      <trkpt lat="44.93298" lon="1.7067">
        <ele>135.9</ele>
        <time>2022-08-06T16:38:38Z</time>
      </trkpt>
      <trkpt lat="44.93302" lon="1.7066">
        <ele>135.7</ele>
        <time>2022-08-06T16:38:40Z</time>
      </trkpt>
      <trkpt lat="44.93306" lon="1.70649">
        <ele>135.2</ele>
        <time>2022-08-06T16:38:42Z</time>
      </trkpt>
      <trkpt lat="44.93311" lon="1.70639">
        <ele>134.2</ele>
        <time>2022-08-06T16:38:44Z</time>
      </trkpt>
      <trkpt lat="44.93315" lon="1.70629">
        <ele>133.8</ele>
        <time>2022-08-06T16:38:46Z</time>
      </trkpt>
      <trkpt lat="44.9332" lon="1.70619">
        <ele>132.6</ele>
        <time>2022-08-06T16:38:48Z</time>
      </trkpt>
      <trkpt lat="44.93325" lon="1.70609">
        <ele>131.2</ele>
        <time>2022-08-06T16:38:50Z</time>
      </trkpt>
      <trkpt lat="44.93331" lon="1.70598">
        <ele>129.8</ele>
        <time>2022-08-06T16:38:52Z</time>
      </trkpt>
      <trkpt lat="44.93336" lon="1.70587">
        <ele>129.2</ele>
        <time>2022-08-06T16:38:54Z</time>
      </trkpt>
      <trkpt lat="44.93341" lon="1.70575">
        <ele>129.7</ele>
        <time>2022-08-06T16:38:56Z</time>
      </trkpt>
      <trkpt lat="44.93345" lon="1.70563">
        <ele>130.5</ele>
        <time>2022-08-06T16:38:58Z</time>
      </trkpt>
      <trkpt lat="44.93344" lon="1.7055">
        <ele>132</ele>
        <time>2022-08-06T16:39:00Z</time>
      </trkpt>
      <trkpt lat="44.93345" lon="1.70536">
        <ele>133.2</ele>
        <time>2022-08-06T16:39:02Z</time>
      </trkpt>
      <trkpt lat="44.93346" lon="1.70523">
        <ele>134.5</ele>
        <time>2022-08-06T16:39:04Z</time>
      </trkpt>
      <trkpt lat="44.93346" lon="1.70509">
        <ele>135.9</ele>
        <time>2022-08-06T16:39:06Z</time>
      </trkpt>
      <trkpt lat="44.93347" lon="1.70496">
        <ele>136.8</ele>
        <time>2022-08-06T16:39:08Z</time>
      </trkpt>
      <trkpt lat="44.93348" lon="1.70483">
        <ele>136.9</ele>
        <time>2022-08-06T16:39:10Z</time>
      </trkpt>
      <trkpt lat="44.9335" lon="1.7047">
        <ele>136.6</ele>
        <time>2022-08-06T16:39:12Z</time>
      </trkpt>
      <trkpt lat="44.93351" lon="1.70458">
        <ele>136.6</ele>
        <time>2022-08-06T16:39:14Z</time>
      </trkpt>
      <trkpt lat="44.93353" lon="1.70447">
        <ele>136.4</ele>
        <time>2022-08-06T16:39:16Z</time>
      </trkpt>
      <trkpt lat="44.93354" lon="1.70436">
        <ele>136.5</ele>
        <time>2022-08-06T16:39:18Z</time>
      </trkpt>
      <trkpt lat="44.93355" lon="1.70426">
        <ele>136.4</ele>
        <time>2022-08-06T16:39:20Z</time>
      </trkpt>
      <trkpt lat="44.93357" lon="1.70416">
        <ele>135.9</ele>
        <time>2022-08-06T16:39:22Z</time>
      </trkpt>
      <trkpt lat="44.93359" lon="1.70407">
        <ele>135.6</ele>
        <time>2022-08-06T16:39:24Z</time>
      </trkpt>
      <trkpt lat="44.9336" lon="1.70397">
        <ele>135.5</ele>
        <time>2022-08-06T16:39:26Z</time>
      </trkpt>
      <trkpt lat="44.93363" lon="1.70387">
        <ele>134.9</ele>
        <time>2022-08-06T16:39:28Z</time>
      </trkpt>
      <trkpt lat="44.93364" lon="1.70377">
        <ele>134.9</ele>
        <time>2022-08-06T16:39:30Z</time>
      </trkpt>
      <trkpt lat="44.93366" lon="1.70368">
        <ele>134.6</ele>
        <time>2022-08-06T16:39:32Z</time>
      </trkpt>
      <trkpt lat="44.93367" lon="1.70359">
        <ele>134.4</ele>
        <time>2022-08-06T16:39:34Z</time>
      </trkpt>
      <trkpt lat="44.93369" lon="1.7035">
        <ele>134</ele>
        <time>2022-08-06T16:39:36Z</time>
      </trkpt>
      <trkpt lat="44.93371" lon="1.70342">
        <ele>133.6</ele>
        <time>2022-08-06T16:39:38Z</time>
      </trkpt>
      <trkpt lat="44.93371" lon="1.70333">
        <ele>134</ele>
        <time>2022-08-06T16:39:40Z</time>
      </trkpt>
      <trkpt lat="44.93372" lon="1.70326">
        <ele>133.3</ele>
        <time>2022-08-06T16:39:42Z</time>
      </trkpt>
      <trkpt lat="44.93374" lon="1.70316">
        <ele>132.7</ele>
        <time>2022-08-06T16:39:44Z</time>
      </trkpt>
      <trkpt lat="44.93373" lon="1.70307">
        <ele>132.8</ele>
        <time>2022-08-06T16:39:46Z</time>
      </trkpt>
      <trkpt lat="44.93373" lon="1.70298">
        <ele>132.6</ele>
        <time>2022-08-06T16:39:48Z</time>
      </trkpt>
      <trkpt lat="44.93373" lon="1.70285">
        <ele>132.7</ele>
        <time>2022-08-06T16:39:50Z</time>
      </trkpt>
      <trkpt lat="44.93372" lon="1.70275">
        <ele>133</ele>
        <time>2022-08-06T16:39:52Z</time>
      </trkpt>
      <trkpt lat="44.93371" lon="1.70264">
        <ele>133.1</ele>
        <time>2022-08-06T16:39:54Z</time>
      </trkpt>
      <trkpt lat="44.93371" lon="1.7025">
        <ele>132.8</ele>
        <time>2022-08-06T16:39:56Z</time>
      </trkpt>
      <trkpt lat="44.9337" lon="1.70238">
        <ele>132.8</ele>
        <time>2022-08-06T16:39:58Z</time>
      </trkpt>
      <trkpt lat="44.93371" lon="1.70225">
        <ele>132.3</ele>
        <time>2022-08-06T16:40:00Z</time>
      </trkpt>
      <trkpt lat="44.93371" lon="1.70213">
        <ele>132</ele>
        <time>2022-08-06T16:40:02Z</time>
      </trkpt>
      <trkpt lat="44.9337" lon="1.70202">
        <ele>132</ele>
        <time>2022-08-06T16:40:04Z</time>
      </trkpt>
      <trkpt lat="44.9337" lon="1.70191">
        <ele>131.4</ele>
        <time>2022-08-06T16:40:06Z</time>
      </trkpt>
      <trkpt lat="44.9337" lon="1.70178">
        <ele>131.3</ele>
        <time>2022-08-06T16:40:08Z</time>
      </trkpt>
      <trkpt lat="44.93369" lon="1.70169">
        <ele>131.5</ele>
        <time>2022-08-06T16:40:10Z</time>
      </trkpt>
      <trkpt lat="44.93368" lon="1.70164">
        <ele>131.6</ele>
        <time>2022-08-06T16:40:12Z</time>
      </trkpt>
      <trkpt lat="44.93366" lon="1.70156">
        <ele>132.1</ele>
        <time>2022-08-06T16:40:14Z</time>
      </trkpt>
      <trkpt lat="44.93365" lon="1.70148">
        <ele>132.6</ele>
        <time>2022-08-06T16:40:16Z</time>
      </trkpt>
      <trkpt lat="44.93363" lon="1.7014">
        <ele>133</ele>
        <time>2022-08-06T16:40:18Z</time>
      </trkpt>
      <trkpt lat="44.93361" lon="1.70131">
        <ele>133.5</ele>
        <time>2022-08-06T16:40:20Z</time>
      </trkpt>
      <trkpt lat="44.93359" lon="1.70122">
        <ele>133.6</ele>
        <time>2022-08-06T16:40:22Z</time>
      </trkpt>
      <trkpt lat="44.93358" lon="1.70112">
        <ele>133.8</ele>
        <time>2022-08-06T16:40:24Z</time>
      </trkpt>
      <trkpt lat="44.93356" lon="1.70102">
        <ele>134</ele>
        <time>2022-08-06T16:40:26Z</time>
      </trkpt>
      <trkpt lat="44.93355" lon="1.70091">
        <ele>134.1</ele>
        <time>2022-08-06T16:40:28Z</time>
      </trkpt>
      <trkpt lat="44.93354" lon="1.70081">
        <ele>134</ele>
        <time>2022-08-06T16:40:30Z</time>
      </trkpt>
      <trkpt lat="44.93353" lon="1.70071">
        <ele>133.7</ele>
        <time>2022-08-06T16:40:32Z</time>
      </trkpt>
      <trkpt lat="44.93352" lon="1.70061">
        <ele>133.5</ele>
        <time>2022-08-06T16:40:34Z</time>
      </trkpt>
      <trkpt lat="44.9335" lon="1.70051">
        <ele>133.2</ele>
        <time>2022-08-06T16:40:36Z</time>
      </trkpt>
      <trkpt lat="44.9335" lon="1.7004">
        <ele>132.7</ele>
        <time>2022-08-06T16:40:38Z</time>
      </trkpt>
      <trkpt lat="44.93349" lon="1.7003">
        <ele>132.5</ele>
        <time>2022-08-06T16:40:40Z</time>
      </trkpt>
      <trkpt lat="44.93347" lon="1.7002">
        <ele>132.1</ele>
        <time>2022-08-06T16:40:42Z</time>
      </trkpt>
      <trkpt lat="44.93346" lon="1.7001">
        <ele>131.8</ele>
        <time>2022-08-06T16:40:44Z</time>
      </trkpt>
      <trkpt lat="44.93345" lon="1.69999">
        <ele>131.4</ele>
        <time>2022-08-06T16:40:46Z</time>
      </trkpt>
      <trkpt lat="44.93344" lon="1.69988">
        <ele>130.9</ele>
        <time>2022-08-06T16:40:48Z</time>
      </trkpt>
      <trkpt lat="44.93343" lon="1.69978">
        <ele>130.5</ele>
        <time>2022-08-06T16:40:50Z</time>
      </trkpt>
      <trkpt lat="44.93342" lon="1.69967">
        <ele>129.9</ele>
        <time>2022-08-06T16:40:52Z</time>
      </trkpt>
      <trkpt lat="44.93341" lon="1.69955">
        <ele>129.4</ele>
        <time>2022-08-06T16:40:54Z</time>
      </trkpt>
      <trkpt lat="44.93339" lon="1.69943">
        <ele>128.9</ele>
        <time>2022-08-06T16:40:56Z</time>
      </trkpt>
      <trkpt lat="44.93338" lon="1.69931">
        <ele>128.2</ele>
        <time>2022-08-06T16:40:58Z</time>
      </trkpt>
      <trkpt lat="44.93338" lon="1.69918">
        <ele>127.4</ele>
        <time>2022-08-06T16:41:00Z</time>
      </trkpt>
      <trkpt lat="44.93338" lon="1.69906">
        <ele>127.6</ele>
        <time>2022-08-06T16:41:02Z</time>
      </trkpt>
      <trkpt lat="44.93338" lon="1.69893">
        <ele>127.9</ele>
        <time>2022-08-06T16:41:04Z</time>
      </trkpt>
      <trkpt lat="44.93339" lon="1.69881">
        <ele>128</ele>
        <time>2022-08-06T16:41:06Z</time>
      </trkpt>
      <trkpt lat="44.93339" lon="1.69868">
        <ele>128.3</ele>
        <time>2022-08-06T16:41:08Z</time>
      </trkpt>
      <trkpt lat="44.93339" lon="1.69857">
        <ele>128.4</ele>
        <time>2022-08-06T16:41:10Z</time>
      </trkpt>
      <trkpt lat="44.9334" lon="1.69842">
        <ele>128.6</ele>
        <time>2022-08-06T16:41:12Z</time>
      </trkpt>
      <trkpt lat="44.93341" lon="1.6983">
        <ele>128.8</ele>
        <time>2022-08-06T16:41:14Z</time>
      </trkpt>
      <trkpt lat="44.93341" lon="1.69818">
        <ele>129.1</ele>
        <time>2022-08-06T16:41:16Z</time>
      </trkpt>
      <trkpt lat="44.93342" lon="1.69806">
        <ele>129.2</ele>
        <time>2022-08-06T16:41:18Z</time>
      </trkpt>
      <trkpt lat="44.93343" lon="1.69795">
        <ele>129.3</ele>
        <time>2022-08-06T16:41:20Z</time>
      </trkpt>
      <trkpt lat="44.93343" lon="1.69785">
        <ele>129.5</ele>
        <time>2022-08-06T16:41:22Z</time>
      </trkpt>
      <trkpt lat="44.93343" lon="1.69775">
        <ele>129.7</ele>
        <time>2022-08-06T16:41:24Z</time>
      </trkpt>
      <trkpt lat="44.93344" lon="1.69763">
        <ele>129.9</ele>
        <time>2022-08-06T16:41:26Z</time>
      </trkpt>
      <trkpt lat="44.93344" lon="1.69753">
        <ele>130.1</ele>
        <time>2022-08-06T16:41:28Z</time>
      </trkpt>
      <trkpt lat="44.93345" lon="1.69742">
        <ele>129.9</ele>
        <time>2022-08-06T16:41:30Z</time>
      </trkpt>
      <trkpt lat="44.93345" lon="1.69732">
        <ele>129.5</ele>
        <time>2022-08-06T16:41:32Z</time>
      </trkpt>
      <trkpt lat="44.93345" lon="1.69722">
        <ele>129.3</ele>
        <time>2022-08-06T16:41:34Z</time>
      </trkpt>
      <trkpt lat="44.93345" lon="1.69711">
        <ele>128.9</ele>
        <time>2022-08-06T16:41:36Z</time>
      </trkpt>
      <trkpt lat="44.93345" lon="1.69701">
        <ele>128.6</ele>
        <time>2022-08-06T16:41:38Z</time>
      </trkpt>
      <trkpt lat="44.93345" lon="1.69689">
        <ele>128.2</ele>
        <time>2022-08-06T16:41:40Z</time>
      </trkpt>
      <trkpt lat="44.93345" lon="1.69677">
        <ele>127.9</ele>
        <time>2022-08-06T16:41:42Z</time>
      </trkpt>
      <trkpt lat="44.93345" lon="1.69665">
        <ele>127.5</ele>
        <time>2022-08-06T16:41:44Z</time>
      </trkpt>
      <trkpt lat="44.93346" lon="1.69654">
        <ele>127.1</ele>
        <time>2022-08-06T16:41:46Z</time>
      </trkpt>
      <trkpt lat="44.93347" lon="1.69643">
        <ele>126.8</ele>
        <time>2022-08-06T16:41:48Z</time>
      </trkpt>
      <trkpt lat="44.93347" lon="1.69631">
        <ele>126.4</ele>
        <time>2022-08-06T16:41:50Z</time>
      </trkpt>
      <trkpt lat="44.93346" lon="1.6962">
        <ele>126.3</ele>
        <time>2022-08-06T16:41:52Z</time>
      </trkpt>
      <trkpt lat="44.93346" lon="1.69611">
        <ele>126.1</ele>
        <time>2022-08-06T16:41:54Z</time>
      </trkpt>
      <trkpt lat="44.93345" lon="1.69602">
        <ele>125.9</ele>
        <time>2022-08-06T16:41:56Z</time>
      </trkpt>
      <trkpt lat="44.93343" lon="1.69592">
        <ele>126</ele>
        <time>2022-08-06T16:41:58Z</time>
      </trkpt>
      <trkpt lat="44.93343" lon="1.69583">
        <ele>125.7</ele>
        <time>2022-08-06T16:42:00Z</time>
      </trkpt>
      <trkpt lat="44.93341" lon="1.69573">
        <ele>125.5</ele>
        <time>2022-08-06T16:42:02Z</time>
      </trkpt>
      <trkpt lat="44.9334" lon="1.69563">
        <ele>125.2</ele>
        <time>2022-08-06T16:42:04Z</time>
      </trkpt>
      <trkpt lat="44.93338" lon="1.69554">
        <ele>125.1</ele>
        <time>2022-08-06T16:42:06Z</time>
      </trkpt>
      <trkpt lat="44.93337" lon="1.69544">
        <ele>124.7</ele>
        <time>2022-08-06T16:42:08Z</time>
      </trkpt>
      <trkpt lat="44.93335" lon="1.69534">
        <ele>124.5</ele>
        <time>2022-08-06T16:42:10Z</time>
      </trkpt>
      <trkpt lat="44.93333" lon="1.69525">
        <ele>124.4</ele>
        <time>2022-08-06T16:42:12Z</time>
      </trkpt>
      <trkpt lat="44.93331" lon="1.69515">
        <ele>124.4</ele>
        <time>2022-08-06T16:42:14Z</time>
      </trkpt>
      <trkpt lat="44.93329" lon="1.69504">
        <ele>124.4</ele>
        <time>2022-08-06T16:42:16Z</time>
      </trkpt>
      <trkpt lat="44.93327" lon="1.69495">
        <ele>124.3</ele>
        <time>2022-08-06T16:42:18Z</time>
      </trkpt>
      <trkpt lat="44.93325" lon="1.69485">
        <ele>124.5</ele>
        <time>2022-08-06T16:42:20Z</time>
      </trkpt>
      <trkpt lat="44.93322" lon="1.69476">
        <ele>124.6</ele>
        <time>2022-08-06T16:42:22Z</time>
      </trkpt>
      <trkpt lat="44.9332" lon="1.69466">
        <ele>124.7</ele>
        <time>2022-08-06T16:42:24Z</time>
      </trkpt>
      <trkpt lat="44.93317" lon="1.69457">
        <ele>124.9</ele>
        <time>2022-08-06T16:42:26Z</time>
      </trkpt>
      <trkpt lat="44.93313" lon="1.69449">
        <ele>125.2</ele>
        <time>2022-08-06T16:42:28Z</time>
      </trkpt>
      <trkpt lat="44.9331" lon="1.6944">
        <ele>125.5</ele>
        <time>2022-08-06T16:42:30Z</time>
      </trkpt>
      <trkpt lat="44.93306" lon="1.69432">
        <ele>125.9</ele>
        <time>2022-08-06T16:42:32Z</time>
      </trkpt>
      <trkpt lat="44.93306" lon="1.69428">
        <ele>125.5</ele>
        <time>2022-08-06T16:42:34Z</time>
      </trkpt>
      <trkpt lat="44.93309" lon="1.69425">
        <ele>124.8</ele>
        <time>2022-08-06T16:42:36Z</time>
      </trkpt>
      <trkpt lat="44.93309" lon="1.69426">
        <ele>124.8</ele>
        <time>2022-08-06T16:42:38Z</time>
      </trkpt>
      <trkpt lat="44.93309" lon="1.69425">
        <ele>124.8</ele>
        <time>2022-08-06T16:42:40Z</time>
      </trkpt>
      <trkpt lat="44.93309" lon="1.69425">
        <ele>124.7</ele>
        <time>2022-08-06T16:42:42Z</time>
      </trkpt>
      <trkpt lat="44.93309" lon="1.69425">
        <ele>124.7</ele>
        <time>2022-08-06T16:42:44Z</time>
      </trkpt>
      <trkpt lat="44.93309" lon="1.69425">
        <ele>124.8</ele>
        <time>2022-08-06T16:42:46Z</time>
      </trkpt>
      <trkpt lat="44.93299" lon="1.69417">
        <ele>126.4</ele>
        <time>2022-08-06T16:43:02Z</time>
      </trkpt>
      <trkpt lat="44.93296" lon="1.69412">
        <ele>126.9</ele>
        <time>2022-08-06T16:43:04Z</time>
      </trkpt>
      <trkpt lat="44.93293" lon="1.69406">
        <ele>127.3</ele>
        <time>2022-08-06T16:43:06Z</time>
      </trkpt>
      <trkpt lat="44.9329" lon="1.694">
        <ele>127.7</ele>
        <time>2022-08-06T16:43:08Z</time>
      </trkpt>
      <trkpt lat="44.93287" lon="1.69394">
        <ele>128</ele>
        <time>2022-08-06T16:43:10Z</time>
      </trkpt>
      <trkpt lat="44.93284" lon="1.69389">
        <ele>128.3</ele>
        <time>2022-08-06T16:43:12Z</time>
      </trkpt>
      <trkpt lat="44.93281" lon="1.69383">
        <ele>128.5</ele>
        <time>2022-08-06T16:43:14Z</time>
      </trkpt>
      <trkpt lat="44.93278" lon="1.69376">
        <ele>128.6</ele>
        <time>2022-08-06T16:43:16Z</time>
      </trkpt>
      <trkpt lat="44.93276" lon="1.6937">
        <ele>128.7</ele>
        <time>2022-08-06T16:43:18Z</time>
      </trkpt>
      <trkpt lat="44.93273" lon="1.69363">
        <ele>128.6</ele>
        <time>2022-08-06T16:43:20Z</time>
      </trkpt>
      <trkpt lat="44.9327" lon="1.69357">
        <ele>128.6</ele>
        <time>2022-08-06T16:43:22Z</time>
      </trkpt>
      <trkpt lat="44.93267" lon="1.6935">
        <ele>128.5</ele>
        <time>2022-08-06T16:43:24Z</time>
      </trkpt>
      <trkpt lat="44.93265" lon="1.69342">
        <ele>128.2</ele>
        <time>2022-08-06T16:43:26Z</time>
      </trkpt>
      <trkpt lat="44.93262" lon="1.69335">
        <ele>128</ele>
        <time>2022-08-06T16:43:28Z</time>
      </trkpt>
      <trkpt lat="44.93259" lon="1.69327">
        <ele>127.6</ele>
        <time>2022-08-06T16:43:30Z</time>
      </trkpt>
      <trkpt lat="44.93256" lon="1.69318">
        <ele>127.1</ele>
        <time>2022-08-06T16:43:32Z</time>
      </trkpt>
      <trkpt lat="44.93254" lon="1.69312">
        <ele>126.7</ele>
        <time>2022-08-06T16:43:34Z</time>
      </trkpt>
      <trkpt lat="44.9325" lon="1.69305">
        <ele>126.2</ele>
        <time>2022-08-06T16:43:36Z</time>
      </trkpt>
      <trkpt lat="44.93246" lon="1.69297">
        <ele>126.4</ele>
        <time>2022-08-06T16:43:38Z</time>
      </trkpt>
      <trkpt lat="44.93243" lon="1.69286">
        <ele>126.3</ele>
        <time>2022-08-06T16:43:40Z</time>
      </trkpt>
      <trkpt lat="44.93239" lon="1.69275">
        <ele>126.1</ele>
        <time>2022-08-06T16:43:42Z</time>
      </trkpt>
      <trkpt lat="44.93236" lon="1.69262">
        <ele>125.7</ele>
        <time>2022-08-06T16:43:44Z</time>
      </trkpt>
      <trkpt lat="44.93231" lon="1.69249">
        <ele>125.4</ele>
        <time>2022-08-06T16:43:46Z</time>
      </trkpt>
      <trkpt lat="44.93227" lon="1.69236">
        <ele>125.7</ele>
        <time>2022-08-06T16:43:48Z</time>
      </trkpt>
      <trkpt lat="44.93223" lon="1.69224">
        <ele>125.9</ele>
        <time>2022-08-06T16:43:50Z</time>
      </trkpt>
      <trkpt lat="44.9322" lon="1.69213">
        <ele>126</ele>
        <time>2022-08-06T16:43:52Z</time>
      </trkpt>
      <trkpt lat="44.93216" lon="1.69204">
        <ele>126.1</ele>
        <time>2022-08-06T16:43:54Z</time>
      </trkpt>
      <trkpt lat="44.93213" lon="1.69195">
        <ele>126.2</ele>
        <time>2022-08-06T16:43:56Z</time>
      </trkpt>
      <trkpt lat="44.9321" lon="1.69188">
        <ele>126.2</ele>
        <time>2022-08-06T16:43:58Z</time>
      </trkpt>
      <trkpt lat="44.93207" lon="1.69179">
        <ele>126.1</ele>
        <time>2022-08-06T16:44:00Z</time>
      </trkpt>
      <trkpt lat="44.93205" lon="1.69171">
        <ele>126</ele>
        <time>2022-08-06T16:44:02Z</time>
      </trkpt>
      <trkpt lat="44.93202" lon="1.69164">
        <ele>126</ele>
        <time>2022-08-06T16:44:04Z</time>
      </trkpt>
      <trkpt lat="44.932" lon="1.69158">
        <ele>126.3</ele>
        <time>2022-08-06T16:44:06Z</time>
      </trkpt>
      <trkpt lat="44.93198" lon="1.69152">
        <ele>126.6</ele>
        <time>2022-08-06T16:44:08Z</time>
      </trkpt>
      <trkpt lat="44.93196" lon="1.69146">
        <ele>126.8</ele>
        <time>2022-08-06T16:44:10Z</time>
      </trkpt>
      <trkpt lat="44.93194" lon="1.6914">
        <ele>127.1</ele>
        <time>2022-08-06T16:44:12Z</time>
      </trkpt>
      <trkpt lat="44.93192" lon="1.69134">
        <ele>127.4</ele>
        <time>2022-08-06T16:44:14Z</time>
      </trkpt>
      <trkpt lat="44.9319" lon="1.69129">
        <ele>127.6</ele>
        <time>2022-08-06T16:44:16Z</time>
      </trkpt>
      <trkpt lat="44.93188" lon="1.69123">
        <ele>127.9</ele>
        <time>2022-08-06T16:44:18Z</time>
      </trkpt>
      <trkpt lat="44.93187" lon="1.69117">
        <ele>128.2</ele>
        <time>2022-08-06T16:44:20Z</time>
      </trkpt>
      <trkpt lat="44.93185" lon="1.69111">
        <ele>128.6</ele>
        <time>2022-08-06T16:44:22Z</time>
      </trkpt>
      <trkpt lat="44.93182" lon="1.69106">
        <ele>128.9</ele>
        <time>2022-08-06T16:44:24Z</time>
      </trkpt>
      <trkpt lat="44.93181" lon="1.69102">
        <ele>129.2</ele>
        <time>2022-08-06T16:44:26Z</time>
      </trkpt>
      <trkpt lat="44.9318" lon="1.69097">
        <ele>129.5</ele>
        <time>2022-08-06T16:44:28Z</time>
      </trkpt>
      <trkpt lat="44.93178" lon="1.69092">
        <ele>129.7</ele>
        <time>2022-08-06T16:44:30Z</time>
      </trkpt>
      <trkpt lat="44.93177" lon="1.69087">
        <ele>130</ele>
        <time>2022-08-06T16:44:32Z</time>
      </trkpt>
      <trkpt lat="44.93174" lon="1.69082">
        <ele>130.4</ele>
        <time>2022-08-06T16:44:34Z</time>
      </trkpt>
      <trkpt lat="44.93173" lon="1.69079">
        <ele>130.6</ele>
        <time>2022-08-06T16:44:36Z</time>
      </trkpt>
      <trkpt lat="44.93172" lon="1.69074">
        <ele>130.7</ele>
        <time>2022-08-06T16:44:38Z</time>
      </trkpt>
      <trkpt lat="44.93171" lon="1.6907">
        <ele>130.8</ele>
        <time>2022-08-06T16:44:40Z</time>
      </trkpt>
      <trkpt lat="44.9317" lon="1.69066">
        <ele>131</ele>
        <time>2022-08-06T16:44:42Z</time>
      </trkpt>
      <trkpt lat="44.93168" lon="1.69062">
        <ele>131.1</ele>
        <time>2022-08-06T16:44:44Z</time>
      </trkpt>
      <trkpt lat="44.93167" lon="1.6906">
        <ele>131.4</ele>
        <time>2022-08-06T16:44:46Z</time>
      </trkpt>
      <trkpt lat="44.93165" lon="1.69056">
        <ele>131.7</ele>
        <time>2022-08-06T16:44:48Z</time>
      </trkpt>
      <trkpt lat="44.93163" lon="1.69051">
        <ele>132</ele>
        <time>2022-08-06T16:44:50Z</time>
      </trkpt>
      <trkpt lat="44.93161" lon="1.69047">
        <ele>132.3</ele>
        <time>2022-08-06T16:44:52Z</time>
      </trkpt>
      <trkpt lat="44.9316" lon="1.69043">
        <ele>132.5</ele>
        <time>2022-08-06T16:44:54Z</time>
      </trkpt>
      <trkpt lat="44.93159" lon="1.69039">
        <ele>132.6</ele>
        <time>2022-08-06T16:44:56Z</time>
      </trkpt>
      <trkpt lat="44.93158" lon="1.69034">
        <ele>132.7</ele>
        <time>2022-08-06T16:44:58Z</time>
      </trkpt>
      <trkpt lat="44.93156" lon="1.6903">
        <ele>132.9</ele>
        <time>2022-08-06T16:45:00Z</time>
      </trkpt>
      <trkpt lat="44.93154" lon="1.69026">
        <ele>133.2</ele>
        <time>2022-08-06T16:45:02Z</time>
      </trkpt>
      <trkpt lat="44.93153" lon="1.69022">
        <ele>133.4</ele>
        <time>2022-08-06T16:45:04Z</time>
      </trkpt>
      <trkpt lat="44.93152" lon="1.69017">
        <ele>133.5</ele>
        <time>2022-08-06T16:45:06Z</time>
      </trkpt>
      <trkpt lat="44.93151" lon="1.69013">
        <ele>133.6</ele>
        <time>2022-08-06T16:45:08Z</time>
      </trkpt>
      <trkpt lat="44.93149" lon="1.69008">
        <ele>133.8</ele>
        <time>2022-08-06T16:45:10Z</time>
      </trkpt>
      <trkpt lat="44.93148" lon="1.69003">
        <ele>134</ele>
        <time>2022-08-06T16:45:12Z</time>
      </trkpt>
      <trkpt lat="44.93146" lon="1.68998">
        <ele>134.1</ele>
        <time>2022-08-06T16:45:14Z</time>
      </trkpt>
      <trkpt lat="44.93144" lon="1.68994">
        <ele>134.3</ele>
        <time>2022-08-06T16:45:16Z</time>
      </trkpt>
      <trkpt lat="44.93142" lon="1.6899">
        <ele>134.5</ele>
        <time>2022-08-06T16:45:18Z</time>
      </trkpt>
      <trkpt lat="44.9314" lon="1.68986">
        <ele>134.7</ele>
        <time>2022-08-06T16:45:20Z</time>
      </trkpt>
      <trkpt lat="44.93138" lon="1.68982">
        <ele>134.9</ele>
        <time>2022-08-06T16:45:22Z</time>
      </trkpt>
      <trkpt lat="44.93136" lon="1.68977">
        <ele>134.9</ele>
        <time>2022-08-06T16:45:24Z</time>
      </trkpt>
      <trkpt lat="44.93135" lon="1.68972">
        <ele>135</ele>
        <time>2022-08-06T16:45:26Z</time>
      </trkpt>
      <trkpt lat="44.93133" lon="1.68967">
        <ele>135</ele>
        <time>2022-08-06T16:45:28Z</time>
      </trkpt>
      <trkpt lat="44.93131" lon="1.68963">
        <ele>135.2</ele>
        <time>2022-08-06T16:45:30Z</time>
      </trkpt>
      <trkpt lat="44.93129" lon="1.68958">
        <ele>135.4</ele>
        <time>2022-08-06T16:45:32Z</time>
      </trkpt>
      <trkpt lat="44.93128" lon="1.68954">
        <ele>135.4</ele>
        <time>2022-08-06T16:45:34Z</time>
      </trkpt>
      <trkpt lat="44.93126" lon="1.68949">
        <ele>135.5</ele>
        <time>2022-08-06T16:45:36Z</time>
      </trkpt>
      <trkpt lat="44.93124" lon="1.68945">
        <ele>135.7</ele>
        <time>2022-08-06T16:45:38Z</time>
      </trkpt>
      <trkpt lat="44.93122" lon="1.6894">
        <ele>135.9</ele>
        <time>2022-08-06T16:45:40Z</time>
      </trkpt>
      <trkpt lat="44.93121" lon="1.68935">
        <ele>135.9</ele>
        <time>2022-08-06T16:45:42Z</time>
      </trkpt>
      <trkpt lat="44.93119" lon="1.68929">
        <ele>135.9</ele>
        <time>2022-08-06T16:45:44Z</time>
      </trkpt>
      <trkpt lat="44.93117" lon="1.68924">
        <ele>136.1</ele>
        <time>2022-08-06T16:45:46Z</time>
      </trkpt>
      <trkpt lat="44.93115" lon="1.68918">
        <ele>136.3</ele>
        <time>2022-08-06T16:45:48Z</time>
      </trkpt>
      <trkpt lat="44.93112" lon="1.68912">
        <ele>136.4</ele>
        <time>2022-08-06T16:45:50Z</time>
      </trkpt>
      <trkpt lat="44.9311" lon="1.68906">
        <ele>136.5</ele>
        <time>2022-08-06T16:45:52Z</time>
      </trkpt>
      <trkpt lat="44.93108" lon="1.68899">
        <ele>136.5</ele>
        <time>2022-08-06T16:45:54Z</time>
      </trkpt>
      <trkpt lat="44.93106" lon="1.68891">
        <ele>136.3</ele>
        <time>2022-08-06T16:45:56Z</time>
      </trkpt>
      <trkpt lat="44.93103" lon="1.68882">
        <ele>136.3</ele>
        <time>2022-08-06T16:45:58Z</time>
      </trkpt>
      <trkpt lat="44.931" lon="1.68872">
        <ele>136.2</ele>
        <time>2022-08-06T16:46:00Z</time>
      </trkpt>
      <trkpt lat="44.93097" lon="1.68862">
        <ele>136</ele>
        <time>2022-08-06T16:46:02Z</time>
      </trkpt>
      <trkpt lat="44.93093" lon="1.68852">
        <ele>135.9</ele>
        <time>2022-08-06T16:46:04Z</time>
      </trkpt>
      <trkpt lat="44.93088" lon="1.68843">
        <ele>136</ele>
        <time>2022-08-06T16:46:06Z</time>
      </trkpt>
      <trkpt lat="44.93083" lon="1.68832">
        <ele>135.9</ele>
        <time>2022-08-06T16:46:08Z</time>
      </trkpt>
      <trkpt lat="44.93077" lon="1.68822">
        <ele>135.7</ele>
        <time>2022-08-06T16:46:10Z</time>
      </trkpt>
      <trkpt lat="44.93072" lon="1.68812">
        <ele>135.4</ele>
        <time>2022-08-06T16:46:12Z</time>
      </trkpt>
      <trkpt lat="44.93069" lon="1.68806">
        <ele>135.2</ele>
        <time>2022-08-06T16:46:14Z</time>
      </trkpt>
      <trkpt lat="44.93065" lon="1.688">
        <ele>135.1</ele>
        <time>2022-08-06T16:46:16Z</time>
      </trkpt>
      <trkpt lat="44.93062" lon="1.68794">
        <ele>135</ele>
        <time>2022-08-06T16:46:18Z</time>
      </trkpt>
      <trkpt lat="44.93058" lon="1.68788">
        <ele>134.9</ele>
        <time>2022-08-06T16:46:20Z</time>
      </trkpt>
      <trkpt lat="44.93054" lon="1.68782">
        <ele>134.8</ele>
        <time>2022-08-06T16:46:22Z</time>
      </trkpt>
      <trkpt lat="44.93049" lon="1.68777">
        <ele>135</ele>
        <time>2022-08-06T16:46:24Z</time>
      </trkpt>
      <trkpt lat="44.93046" lon="1.6877">
        <ele>134.5</ele>
        <time>2022-08-06T16:46:26Z</time>
      </trkpt>
      <trkpt lat="44.93044" lon="1.68764">
        <ele>134.2</ele>
        <time>2022-08-06T16:46:28Z</time>
      </trkpt>
      <trkpt lat="44.93041" lon="1.68761">
        <ele>134.2</ele>
        <time>2022-08-06T16:46:30Z</time>
      </trkpt>
      <trkpt lat="44.93039" lon="1.68757">
        <ele>134.1</ele>
        <time>2022-08-06T16:46:32Z</time>
      </trkpt>
      <trkpt lat="44.93036" lon="1.68753">
        <ele>134</ele>
        <time>2022-08-06T16:46:34Z</time>
      </trkpt>
      <trkpt lat="44.93032" lon="1.68747">
        <ele>133.9</ele>
        <time>2022-08-06T16:46:36Z</time>
      </trkpt>
      <trkpt lat="44.93029" lon="1.6874">
        <ele>134</ele>
        <time>2022-08-06T16:46:38Z</time>
      </trkpt>
      <trkpt lat="44.93024" lon="1.68734">
        <ele>134.3</ele>
        <time>2022-08-06T16:46:40Z</time>
      </trkpt>
      <trkpt lat="44.93019" lon="1.68726">
        <ele>134.6</ele>
        <time>2022-08-06T16:46:42Z</time>
      </trkpt>
      <trkpt lat="44.93014" lon="1.68716">
        <ele>134.6</ele>
        <time>2022-08-06T16:46:44Z</time>
      </trkpt>
      <trkpt lat="44.93008" lon="1.68705">
        <ele>134.4</ele>
        <time>2022-08-06T16:46:46Z</time>
      </trkpt>
      <trkpt lat="44.93002" lon="1.68691">
        <ele>134.1</ele>
        <time>2022-08-06T16:46:48Z</time>
      </trkpt>
      <trkpt lat="44.92995" lon="1.68677">
        <ele>133.8</ele>
        <time>2022-08-06T16:46:50Z</time>
      </trkpt>
      <trkpt lat="44.92988" lon="1.68661">
        <ele>133.1</ele>
        <time>2022-08-06T16:46:52Z</time>
      </trkpt>
      <trkpt lat="44.9298" lon="1.68644">
        <ele>132.5</ele>
        <time>2022-08-06T16:46:54Z</time>
      </trkpt>
      <trkpt lat="44.92971" lon="1.68627">
        <ele>131.8</ele>
        <time>2022-08-06T16:46:56Z</time>
      </trkpt>
      <trkpt lat="44.92961" lon="1.68609">
        <ele>131</ele>
        <time>2022-08-06T16:46:58Z</time>
      </trkpt>
      <trkpt lat="44.92953" lon="1.6859">
        <ele>130</ele>
        <time>2022-08-06T16:47:00Z</time>
      </trkpt>
      <trkpt lat="44.92944" lon="1.68572">
        <ele>130.2</ele>
        <time>2022-08-06T16:47:02Z</time>
      </trkpt>
      <trkpt lat="44.92936" lon="1.68552">
        <ele>130.9</ele>
        <time>2022-08-06T16:47:04Z</time>
      </trkpt>
      <trkpt lat="44.92927" lon="1.68533">
        <ele>131.6</ele>
        <time>2022-08-06T16:47:06Z</time>
      </trkpt>
      <trkpt lat="44.92918" lon="1.68513">
        <ele>132.2</ele>
        <time>2022-08-06T16:47:08Z</time>
      </trkpt>
      <trkpt lat="44.92909" lon="1.68494">
        <ele>134.4</ele>
        <time>2022-08-06T16:47:10Z</time>
      </trkpt>
      <trkpt lat="44.92903" lon="1.68476">
        <ele>135.7</ele>
        <time>2022-08-06T16:47:12Z</time>
      </trkpt>
      <trkpt lat="44.92897" lon="1.68458">
        <ele>136.7</ele>
        <time>2022-08-06T16:47:14Z</time>
      </trkpt>
      <trkpt lat="44.92891" lon="1.68441">
        <ele>137.6</ele>
        <time>2022-08-06T16:47:16Z</time>
      </trkpt>
      <trkpt lat="44.92885" lon="1.68424">
        <ele>138.2</ele>
        <time>2022-08-06T16:47:18Z</time>
      </trkpt>
      <trkpt lat="44.92881" lon="1.68408">
        <ele>138.6</ele>
        <time>2022-08-06T16:47:20Z</time>
      </trkpt>
      <trkpt lat="44.92877" lon="1.68392">
        <ele>139.2</ele>
        <time>2022-08-06T16:47:22Z</time>
      </trkpt>
      <trkpt lat="44.92874" lon="1.68376">
        <ele>139.7</ele>
        <time>2022-08-06T16:47:24Z</time>
      </trkpt>
      <trkpt lat="44.92871" lon="1.6836">
        <ele>139.9</ele>
        <time>2022-08-06T16:47:26Z</time>
      </trkpt>
      <trkpt lat="44.92869" lon="1.68343">
        <ele>140.2</ele>
        <time>2022-08-06T16:47:28Z</time>
      </trkpt>
      <trkpt lat="44.92866" lon="1.68328">
        <ele>140.4</ele>
        <time>2022-08-06T16:47:30Z</time>
      </trkpt>
      <trkpt lat="44.92863" lon="1.68313">
        <ele>140.3</ele>
        <time>2022-08-06T16:47:32Z</time>
      </trkpt>
      <trkpt lat="44.92859" lon="1.68298">
        <ele>140.5</ele>
        <time>2022-08-06T16:47:34Z</time>
      </trkpt>
      <trkpt lat="44.92855" lon="1.68283">
        <ele>140.8</ele>
        <time>2022-08-06T16:47:36Z</time>
      </trkpt>
      <trkpt lat="44.92852" lon="1.68269">
        <ele>141.1</ele>
        <time>2022-08-06T16:47:38Z</time>
      </trkpt>
      <trkpt lat="44.92849" lon="1.68255">
        <ele>141.2</ele>
        <time>2022-08-06T16:47:40Z</time>
      </trkpt>
      <trkpt lat="44.92846" lon="1.68241">
        <ele>140.9</ele>
        <time>2022-08-06T16:47:42Z</time>
      </trkpt>
      <trkpt lat="44.92844" lon="1.68227">
        <ele>140.3</ele>
        <time>2022-08-06T16:47:44Z</time>
      </trkpt>
      <trkpt lat="44.92841" lon="1.68213">
        <ele>139.6</ele>
        <time>2022-08-06T16:47:46Z</time>
      </trkpt>
      <trkpt lat="44.92839" lon="1.68199">
        <ele>138.6</ele>
        <time>2022-08-06T16:47:48Z</time>
      </trkpt>
      <trkpt lat="44.92837" lon="1.68185">
        <ele>137.5</ele>
        <time>2022-08-06T16:47:50Z</time>
      </trkpt>
      <trkpt lat="44.92835" lon="1.68171">
        <ele>136.2</ele>
        <time>2022-08-06T16:47:52Z</time>
      </trkpt>
      <trkpt lat="44.92833" lon="1.68157">
        <ele>136.1</ele>
        <time>2022-08-06T16:47:54Z</time>
      </trkpt>
      <trkpt lat="44.9283" lon="1.68144">
        <ele>137.2</ele>
        <time>2022-08-06T16:47:56Z</time>
      </trkpt>
      <trkpt lat="44.92828" lon="1.68132">
        <ele>138.1</ele>
        <time>2022-08-06T16:47:58Z</time>
      </trkpt>
      <trkpt lat="44.92826" lon="1.68119">
        <ele>138.6</ele>
        <time>2022-08-06T16:48:00Z</time>
      </trkpt>
      <trkpt lat="44.92825" lon="1.68105">
        <ele>138.8</ele>
        <time>2022-08-06T16:48:02Z</time>
      </trkpt>
      <trkpt lat="44.92824" lon="1.68092">
        <ele>138.8</ele>
        <time>2022-08-06T16:48:04Z</time>
      </trkpt>
      <trkpt lat="44.92822" lon="1.68079">
        <ele>138.9</ele>
        <time>2022-08-06T16:48:06Z</time>
      </trkpt>
      <trkpt lat="44.92821" lon="1.68066">
        <ele>138.2</ele>
        <time>2022-08-06T16:48:08Z</time>
      </trkpt>
      <trkpt lat="44.92819" lon="1.68053">
        <ele>138.1</ele>
        <time>2022-08-06T16:48:10Z</time>
      </trkpt>
      <trkpt lat="44.92819" lon="1.68039">
        <ele>137.2</ele>
        <time>2022-08-06T16:48:12Z</time>
      </trkpt>
      <trkpt lat="44.92818" lon="1.68026">
        <ele>136.2</ele>
        <time>2022-08-06T16:48:14Z</time>
      </trkpt>
      <trkpt lat="44.92817" lon="1.68015">
        <ele>135.5</ele>
        <time>2022-08-06T16:48:16Z</time>
      </trkpt>
      <trkpt lat="44.92817" lon="1.6801">
        <ele>134.9</ele>
        <time>2022-08-06T16:48:18Z</time>
      </trkpt>
      <trkpt lat="44.92818" lon="1.68008">
        <ele>134.3</ele>
        <time>2022-08-06T16:48:20Z</time>
      </trkpt>
      <trkpt lat="44.92819" lon="1.68007">
        <ele>134.1</ele>
        <time>2022-08-06T16:48:22Z</time>
      </trkpt>
      <trkpt lat="44.92819" lon="1.68007">
        <ele>134</ele>
        <time>2022-08-06T16:48:24Z</time>
      </trkpt>
      <trkpt lat="44.92819" lon="1.68007">
        <ele>133.9</ele>
        <time>2022-08-06T16:48:26Z</time>
      </trkpt>
      <trkpt lat="44.92819" lon="1.68007">
        <ele>133.8</ele>
        <time>2022-08-06T16:48:28Z</time>
      </trkpt>
      <trkpt lat="44.9282" lon="1.67986">
        <ele>131.6</ele>
        <time>2022-08-06T16:54:58Z</time>
      </trkpt>
      <trkpt lat="44.92818" lon="1.67978">
        <ele>131.4</ele>
        <time>2022-08-06T16:55:00Z</time>
      </trkpt>
      <trkpt lat="44.92814" lon="1.6797">
        <ele>131.6</ele>
        <time>2022-08-06T16:55:02Z</time>
      </trkpt>
      <trkpt lat="44.92813" lon="1.67962">
        <ele>131</ele>
        <time>2022-08-06T16:55:04Z</time>
      </trkpt>
      <trkpt lat="44.92814" lon="1.67956">
        <ele>130.1</ele>
        <time>2022-08-06T16:55:06Z</time>
      </trkpt>
      <trkpt lat="44.92813" lon="1.6795">
        <ele>129.6</ele>
        <time>2022-08-06T16:55:08Z</time>
      </trkpt>
      <trkpt lat="44.92816" lon="1.67946">
        <ele>128.6</ele>
        <time>2022-08-06T16:55:10Z</time>
      </trkpt>
      <trkpt lat="44.92818" lon="1.67939">
        <ele>127.5</ele>
        <time>2022-08-06T16:55:12Z</time>
      </trkpt>
      <trkpt lat="44.92819" lon="1.67929">
        <ele>126.2</ele>
        <time>2022-08-06T16:55:14Z</time>
      </trkpt>
      <trkpt lat="44.92818" lon="1.67918">
        <ele>125.2</ele>
        <time>2022-08-06T16:55:16Z</time>
      </trkpt>
      <trkpt lat="44.9282" lon="1.6791">
        <ele>124.4</ele>
        <time>2022-08-06T16:55:18Z</time>
      </trkpt>
      <trkpt lat="44.9282" lon="1.67903">
        <ele>124.3</ele>
        <time>2022-08-06T16:55:20Z</time>
      </trkpt>
      <trkpt lat="44.92821" lon="1.67896">
        <ele>123.9</ele>
        <time>2022-08-06T16:55:22Z</time>
      </trkpt>
      <trkpt lat="44.92823" lon="1.67891">
        <ele>123.4</ele>
        <time>2022-08-06T16:55:24Z</time>
      </trkpt>
      <trkpt lat="44.92823" lon="1.67887">
        <ele>123.2</ele>
        <time>2022-08-06T16:55:26Z</time>
      </trkpt>
      <trkpt lat="44.92823" lon="1.67887">
        <ele>123.2</ele>
        <time>2022-08-06T16:55:28Z</time>
      </trkpt>
      <trkpt lat="44.92823" lon="1.67886">
        <ele>123.2</ele>
        <time>2022-08-06T16:55:30Z</time>
      </trkpt>
      <trkpt lat="44.92824" lon="1.67886">
        <ele>123.1</ele>
        <time>2022-08-06T16:55:32Z</time>
      </trkpt>
      <trkpt lat="44.92824" lon="1.67884">
        <ele>123</ele>
        <time>2022-08-06T16:55:34Z</time>
      </trkpt>
      <trkpt lat="44.92825" lon="1.67883">
        <ele>122.8</ele>
        <time>2022-08-06T16:55:36Z</time>
      </trkpt>
      <trkpt lat="44.92814" lon="1.67864">
        <ele>123.7</ele>
        <time>2022-08-06T16:55:52Z</time>
      </trkpt>
      <trkpt lat="44.92813" lon="1.6786">
        <ele>123.6</ele>
        <time>2022-08-06T16:55:54Z</time>
      </trkpt>
      <trkpt lat="44.92812" lon="1.67855">
        <ele>123.6</ele>
        <time>2022-08-06T16:55:56Z</time>
      </trkpt>
      <trkpt lat="44.92809" lon="1.67848">
        <ele>123.4</ele>
        <time>2022-08-06T16:55:58Z</time>
      </trkpt>
      <trkpt lat="44.92808" lon="1.67842">
        <ele>123.2</ele>
        <time>2022-08-06T16:56:00Z</time>
      </trkpt>
      <trkpt lat="44.92808" lon="1.67836">
        <ele>123</ele>
        <time>2022-08-06T16:56:02Z</time>
      </trkpt>
      <trkpt lat="44.92805" lon="1.67831">
        <ele>122.9</ele>
        <time>2022-08-06T16:56:04Z</time>
      </trkpt>
      <trkpt lat="44.92803" lon="1.67826">
        <ele>122.9</ele>
        <time>2022-08-06T16:56:06Z</time>
      </trkpt>
      <trkpt lat="44.92801" lon="1.67822">
        <ele>122.9</ele>
        <time>2022-08-06T16:56:08Z</time>
      </trkpt>
      <trkpt lat="44.928" lon="1.67816">
        <ele>122.7</ele>
        <time>2022-08-06T16:56:10Z</time>
      </trkpt>
      <trkpt lat="44.92797" lon="1.67813">
        <ele>122.7</ele>
        <time>2022-08-06T16:56:12Z</time>
      </trkpt>
      <trkpt lat="44.92795" lon="1.6781">
        <ele>122.7</ele>
        <time>2022-08-06T16:56:14Z</time>
      </trkpt>
      <trkpt lat="44.92793" lon="1.67806">
        <ele>122.6</ele>
        <time>2022-08-06T16:56:16Z</time>
      </trkpt>
      <trkpt lat="44.92792" lon="1.67803">
        <ele>122.6</ele>
        <time>2022-08-06T16:56:18Z</time>
      </trkpt>
      <trkpt lat="44.92792" lon="1.67803">
        <ele>122.5</ele>
        <time>2022-08-06T16:56:20Z</time>
      </trkpt>
      <trkpt lat="44.92792" lon="1.67803">
        <ele>122.5</ele>
        <time>2022-08-06T16:56:22Z</time>
      </trkpt>
      <trkpt lat="44.92792" lon="1.67804">
        <ele>122.6</ele>
        <time>2022-08-06T16:56:24Z</time>
      </trkpt>
      <trkpt lat="44.92792" lon="1.67804">
        <ele>122.6</ele>
        <time>2022-08-06T16:56:26Z</time>
      </trkpt>
      <trkpt lat="44.92793" lon="1.67805">
        <ele>122.6</ele>
        <time>2022-08-06T16:56:28Z</time>
      </trkpt>
      <trkpt lat="44.92809" lon="1.67837">
        <ele>122.9</ele>
        <time>2022-08-06T16:56:44Z</time>
      </trkpt>
      <trkpt lat="44.92811" lon="1.67844">
        <ele>123.1</ele>
        <time>2022-08-06T16:56:46Z</time>
      </trkpt>
      <trkpt lat="44.92813" lon="1.67852">
        <ele>123.3</ele>
        <time>2022-08-06T16:56:48Z</time>
      </trkpt>
      <trkpt lat="44.92815" lon="1.67858">
        <ele>123.3</ele>
        <time>2022-08-06T16:56:50Z</time>
      </trkpt>
      <trkpt lat="44.92817" lon="1.67863">
        <ele>123.3</ele>
        <time>2022-08-06T16:56:52Z</time>
      </trkpt>
      <trkpt lat="44.92818" lon="1.67869">
        <ele>123.4</ele>
        <time>2022-08-06T16:56:54Z</time>
      </trkpt>
      <trkpt lat="44.9282" lon="1.67874">
        <ele>123.3</ele>
        <time>2022-08-06T16:56:56Z</time>
      </trkpt>
      <trkpt lat="44.92824" lon="1.67881">
        <ele>122.9</ele>
        <time>2022-08-06T16:56:58Z</time>
      </trkpt>
      <trkpt lat="44.92829" lon="1.67883">
        <ele>122.3</ele>
        <time>2022-08-06T16:57:00Z</time>
      </trkpt>
      <trkpt lat="44.92833" lon="1.67884">
        <ele>121.6</ele>
        <time>2022-08-06T16:57:02Z</time>
      </trkpt>
      <trkpt lat="44.92837" lon="1.67885">
        <ele>121.5</ele>
        <time>2022-08-06T16:57:04Z</time>
      </trkpt>
      <trkpt lat="44.9284" lon="1.67886">
        <ele>121.5</ele>
        <time>2022-08-06T16:57:06Z</time>
      </trkpt>
      <trkpt lat="44.92843" lon="1.67889">
        <ele>121.4</ele>
        <time>2022-08-06T16:57:08Z</time>
      </trkpt>
      <trkpt lat="44.92846" lon="1.67893">
        <ele>121.4</ele>
        <time>2022-08-06T16:57:10Z</time>
      </trkpt>
      <trkpt lat="44.92849" lon="1.67897">
        <ele>121.3</ele>
        <time>2022-08-06T16:57:12Z</time>
      </trkpt>
      <trkpt lat="44.92853" lon="1.67906">
        <ele>121.2</ele>
        <time>2022-08-06T16:57:14Z</time>
      </trkpt>
      <trkpt lat="44.92857" lon="1.67912">
        <ele>121.1</ele>
        <time>2022-08-06T16:57:16Z</time>
      </trkpt>
      <trkpt lat="44.92861" lon="1.67917">
        <ele>121</ele>
        <time>2022-08-06T16:57:18Z</time>
      </trkpt>
      <trkpt lat="44.92863" lon="1.67923">
        <ele>121.3</ele>
        <time>2022-08-06T16:57:20Z</time>
      </trkpt>
      <trkpt lat="44.92866" lon="1.67927">
        <ele>121.3</ele>
        <time>2022-08-06T16:57:22Z</time>
      </trkpt>
      <trkpt lat="44.9287" lon="1.67931">
        <ele>121.4</ele>
        <time>2022-08-06T16:57:24Z</time>
      </trkpt>
      <trkpt lat="44.92873" lon="1.67934">
        <ele>121.4</ele>
        <time>2022-08-06T16:57:26Z</time>
      </trkpt>
      <trkpt lat="44.92876" lon="1.67937">
        <ele>121.3</ele>
        <time>2022-08-06T16:57:28Z</time>
      </trkpt>
      <trkpt lat="44.92879" lon="1.6794">
        <ele>121.3</ele>
        <time>2022-08-06T16:57:30Z</time>
      </trkpt>
      <trkpt lat="44.92883" lon="1.67943">
        <ele>121.1</ele>
        <time>2022-08-06T16:57:32Z</time>
      </trkpt>
      <trkpt lat="44.92886" lon="1.6795">
        <ele>121.1</ele>
        <time>2022-08-06T16:57:34Z</time>
      </trkpt>
      <trkpt lat="44.9289" lon="1.6795">
        <ele>120.9</ele>
        <time>2022-08-06T16:57:36Z</time>
      </trkpt>
      <trkpt lat="44.92893" lon="1.67948">
        <ele>120.6</ele>
        <time>2022-08-06T16:57:38Z</time>
      </trkpt>
      <trkpt lat="44.92896" lon="1.67946">
        <ele>120.4</ele>
        <time>2022-08-06T16:57:40Z</time>
      </trkpt>
      <trkpt lat="44.92899" lon="1.67943">
        <ele>120.1</ele>
        <time>2022-08-06T16:57:42Z</time>
      </trkpt>
      <trkpt lat="44.929" lon="1.67943">
        <ele>120.1</ele>
        <time>2022-08-06T16:57:44Z</time>
      </trkpt>
      <trkpt lat="44.929" lon="1.67943">
        <ele>120</ele>
        <time>2022-08-06T16:57:46Z</time>
      </trkpt>
      <trkpt lat="44.929" lon="1.67943">
        <ele>120</ele>
        <time>2022-08-06T16:57:48Z</time>
      </trkpt>
      <trkpt lat="44.92901" lon="1.67944">
        <ele>120</ele>
        <time>2022-08-06T16:57:50Z</time>
      </trkpt>
      <trkpt lat="44.92901" lon="1.67944">
        <ele>120</ele>
        <time>2022-08-06T16:57:52Z</time>
      </trkpt>
      <trkpt lat="44.92912" lon="1.67943">
        <ele>119.3</ele>
        <time>2022-08-06T16:58:52Z</time>
      </trkpt>
      <trkpt lat="44.92916" lon="1.67944">
        <ele>119</ele>
        <time>2022-08-06T16:58:54Z</time>
      </trkpt>
      <trkpt lat="44.92921" lon="1.67943">
        <ele>118.8</ele>
        <time>2022-08-06T16:58:56Z</time>
      </trkpt>
      <trkpt lat="44.92925" lon="1.67942">
        <ele>118.5</ele>
        <time>2022-08-06T16:58:58Z</time>
      </trkpt>
      <trkpt lat="44.9293" lon="1.67942">
        <ele>118.2</ele>
        <time>2022-08-06T16:59:00Z</time>
      </trkpt>
      <trkpt lat="44.92935" lon="1.67942">
        <ele>118</ele>
        <time>2022-08-06T16:59:02Z</time>
      </trkpt>
      <trkpt lat="44.9294" lon="1.67942">
        <ele>117.7</ele>
        <time>2022-08-06T16:59:04Z</time>
      </trkpt>
      <trkpt lat="44.92945" lon="1.67942">
        <ele>117.5</ele>
        <time>2022-08-06T16:59:06Z</time>
      </trkpt>
      <trkpt lat="44.92949" lon="1.6794">
        <ele>117.2</ele>
        <time>2022-08-06T16:59:08Z</time>
      </trkpt>
      <trkpt lat="44.92954" lon="1.67938">
        <ele>117</ele>
        <time>2022-08-06T16:59:10Z</time>
      </trkpt>
      <trkpt lat="44.92959" lon="1.67937">
        <ele>116.7</ele>
        <time>2022-08-06T16:59:12Z</time>
      </trkpt>
      <trkpt lat="44.92963" lon="1.67935">
        <ele>116.5</ele>
        <time>2022-08-06T16:59:14Z</time>
      </trkpt>
      <trkpt lat="44.92967" lon="1.67934">
        <ele>116.3</ele>
        <time>2022-08-06T16:59:16Z</time>
      </trkpt>
      <trkpt lat="44.92971" lon="1.67933">
        <ele>116.1</ele>
        <time>2022-08-06T16:59:18Z</time>
      </trkpt>
      <trkpt lat="44.92974" lon="1.67933">
        <ele>116</ele>
        <time>2022-08-06T16:59:20Z</time>
      </trkpt>
      <trkpt lat="44.92978" lon="1.67933">
        <ele>115.8</ele>
        <time>2022-08-06T16:59:22Z</time>
      </trkpt>
      <trkpt lat="44.92982" lon="1.67933">
        <ele>115.6</ele>
        <time>2022-08-06T16:59:24Z</time>
      </trkpt>
      <trkpt lat="44.92985" lon="1.67935">
        <ele>115.3</ele>
        <time>2022-08-06T16:59:26Z</time>
      </trkpt>
      <trkpt lat="44.92989" lon="1.67938">
        <ele>115.1</ele>
        <time>2022-08-06T16:59:28Z</time>
      </trkpt>
      <trkpt lat="44.92993" lon="1.6794">
        <ele>114.8</ele>
        <time>2022-08-06T16:59:30Z</time>
      </trkpt>
      <trkpt lat="44.92996" lon="1.67942">
        <ele>114.6</ele>
        <time>2022-08-06T16:59:32Z</time>
      </trkpt>
      <trkpt lat="44.92999" lon="1.67945">
        <ele>114.4</ele>
        <time>2022-08-06T16:59:34Z</time>
      </trkpt>
      <trkpt lat="44.93001" lon="1.67949">
        <ele>114.2</ele>
        <time>2022-08-06T16:59:36Z</time>
      </trkpt>
      <trkpt lat="44.93004" lon="1.6795">
        <ele>114.2</ele>
        <time>2022-08-06T16:59:38Z</time>
      </trkpt>
      <trkpt lat="44.93008" lon="1.67951">
        <ele>114.3</ele>
        <time>2022-08-06T16:59:40Z</time>
      </trkpt>
      <trkpt lat="44.93011" lon="1.67951">
        <ele>114.3</ele>
        <time>2022-08-06T16:59:42Z</time>
      </trkpt>
      <trkpt lat="44.93014" lon="1.67951">
        <ele>114.4</ele>
        <time>2022-08-06T16:59:44Z</time>
      </trkpt>
      <trkpt lat="44.93018" lon="1.67949">
        <ele>114.4</ele>
        <time>2022-08-06T16:59:46Z</time>
      </trkpt>
      <trkpt lat="44.93021" lon="1.67946">
        <ele>114.5</ele>
        <time>2022-08-06T16:59:48Z</time>
      </trkpt>
      <trkpt lat="44.93022" lon="1.67943">
        <ele>114.5</ele>
        <time>2022-08-06T16:59:50Z</time>
      </trkpt>
      <trkpt lat="44.93023" lon="1.67938">
        <ele>114.6</ele>
        <time>2022-08-06T16:59:52Z</time>
      </trkpt>
      <trkpt lat="44.93024" lon="1.67934">
        <ele>114.6</ele>
        <time>2022-08-06T16:59:54Z</time>
      </trkpt>
      <trkpt lat="44.93023" lon="1.6793">
        <ele>114.6</ele>
        <time>2022-08-06T16:59:56Z</time>
      </trkpt>
      <trkpt lat="44.93021" lon="1.67926">
        <ele>114.7</ele>
        <time>2022-08-06T16:59:58Z</time>
      </trkpt>
      <trkpt lat="44.93018" lon="1.67925">
        <ele>114.7</ele>
        <time>2022-08-06T17:00:00Z</time>
      </trkpt>
      <trkpt lat="44.93016" lon="1.67924">
        <ele>114.7</ele>
        <time>2022-08-06T17:00:02Z</time>
      </trkpt>
      <trkpt lat="44.93014" lon="1.67923">
        <ele>114.7</ele>
        <time>2022-08-06T17:00:04Z</time>
      </trkpt>
      <trkpt lat="44.93015" lon="1.67923">
        <ele>114.7</ele>
        <time>2022-08-06T17:00:06Z</time>
      </trkpt>
      <trkpt lat="44.93015" lon="1.67923">
        <ele>114.7</ele>
        <time>2022-08-06T17:00:08Z</time>
      </trkpt>
      <trkpt lat="44.93015" lon="1.67924">
        <ele>114.7</ele>
        <time>2022-08-06T17:00:10Z</time>
      </trkpt>
      <trkpt lat="44.93015" lon="1.67924">
        <ele>114.7</ele>
        <time>2022-08-06T17:00:12Z</time>
      </trkpt>
    </trkseg>
      <trkpt lat="44.93013" lon="1.67931">
        <ele>114.6</ele>
        <time>2022-08-07T06:12:30Z</time>
      </trkpt>
      <trkpt lat="44.93012" lon="1.67934">
        <ele>114.6</ele>
        <time>2022-08-07T06:12:31Z</time>
      </trkpt>
      <trkpt lat="44.93023" lon="1.6794">
        <ele>114.5</ele>
        <time>2022-08-07T06:13:13Z</time>
      </trkpt>
      <trkpt lat="44.93023" lon="1.67944">
        <ele>114.5</ele>
        <time>2022-08-07T06:13:15Z</time>
      </trkpt>
      <trkpt lat="44.93021" lon="1.67947">
        <ele>114.5</ele>
        <time>2022-08-07T06:13:17Z</time>
      </trkpt>
      <trkpt lat="44.93017" lon="1.67948">
        <ele>114.4</ele>
        <time>2022-08-07T06:13:19Z</time>
      </trkpt>
      <trkpt lat="44.93014" lon="1.67948">
        <ele>114.4</ele>
        <time>2022-08-07T06:13:21Z</time>
      </trkpt>
      <trkpt lat="44.93011" lon="1.67948">
        <ele>114.4</ele>
        <time>2022-08-07T06:13:23Z</time>
      </trkpt>
      <trkpt lat="44.93007" lon="1.67947">
        <ele>114.3</ele>
        <time>2022-08-07T06:13:25Z</time>
      </trkpt>
      <trkpt lat="44.93004" lon="1.67947">
        <ele>114.3</ele>
        <time>2022-08-07T06:13:27Z</time>
      </trkpt>
      <trkpt lat="44.93" lon="1.67947">
        <ele>114.3</ele>
        <time>2022-08-07T06:13:29Z</time>
      </trkpt>
      <trkpt lat="44.92997" lon="1.67947">
        <ele>114.5</ele>
        <time>2022-08-07T06:13:31Z</time>
      </trkpt>
      <trkpt lat="44.92994" lon="1.67947">
        <ele>114.6</ele>
        <time>2022-08-07T06:13:33Z</time>
      </trkpt>
      <trkpt lat="44.9299" lon="1.67947">
        <ele>114.8</ele>
        <time>2022-08-07T06:13:35Z</time>
      </trkpt>
      <trkpt lat="44.92986" lon="1.67948">
        <ele>115</ele>
        <time>2022-08-07T06:13:37Z</time>
      </trkpt>
      <trkpt lat="44.92982" lon="1.67947">
        <ele>115.3</ele>
        <time>2022-08-07T06:13:39Z</time>
      </trkpt>
      <trkpt lat="44.92978" lon="1.67946">
        <ele>115.5</ele>
        <time>2022-08-07T06:13:41Z</time>
      </trkpt>
      <trkpt lat="44.92975" lon="1.67944">
        <ele>115.7</ele>
        <time>2022-08-07T06:13:43Z</time>
      </trkpt>
      <trkpt lat="44.92972" lon="1.67942">
        <ele>116</ele>
        <time>2022-08-07T06:13:45Z</time>
      </trkpt>
      <trkpt lat="44.92968" lon="1.67941">
        <ele>116.2</ele>
        <time>2022-08-07T06:13:47Z</time>
      </trkpt>
      <trkpt lat="44.92965" lon="1.67939">
        <ele>116.4</ele>
        <time>2022-08-07T06:13:49Z</time>
      </trkpt>
      <trkpt lat="44.9296" lon="1.67938">
        <ele>116.7</ele>
        <time>2022-08-07T06:13:51Z</time>
      </trkpt>
      <trkpt lat="44.92956" lon="1.67937">
        <ele>116.9</ele>
        <time>2022-08-07T06:13:53Z</time>
      </trkpt>
      <trkpt lat="44.92952" lon="1.67935">
        <ele>117.1</ele>
        <time>2022-08-07T06:13:55Z</time>
      </trkpt>
      <trkpt lat="44.92948" lon="1.67934">
        <ele>117.3</ele>
        <time>2022-08-07T06:13:57Z</time>
      </trkpt>
      <trkpt lat="44.92944" lon="1.67934">
        <ele>117.6</ele>
        <time>2022-08-07T06:13:59Z</time>
      </trkpt>
      <trkpt lat="44.9294" lon="1.67933">
        <ele>117.8</ele>
        <time>2022-08-07T06:14:01Z</time>
      </trkpt>
      <trkpt lat="44.92936" lon="1.67932">
        <ele>118</ele>
        <time>2022-08-07T06:14:03Z</time>
      </trkpt>
      <trkpt lat="44.92932" lon="1.67932">
        <ele>118.2</ele>
        <time>2022-08-07T06:14:05Z</time>
      </trkpt>
      <trkpt lat="44.92928" lon="1.67934">
        <ele>118.4</ele>
        <time>2022-08-07T06:14:07Z</time>
      </trkpt>
      <trkpt lat="44.92924" lon="1.67936">
        <ele>118.6</ele>
        <time>2022-08-07T06:14:09Z</time>
      </trkpt>
      <trkpt lat="44.9292" lon="1.67937">
        <ele>118.8</ele>
        <time>2022-08-07T06:14:11Z</time>
      </trkpt>
      <trkpt lat="44.92916" lon="1.67937">
        <ele>119</ele>
        <time>2022-08-07T06:14:13Z</time>
      </trkpt>
      <trkpt lat="44.92912" lon="1.67938">
        <ele>119.2</ele>
        <time>2022-08-07T06:14:15Z</time>
      </trkpt>
      <trkpt lat="44.92908" lon="1.67939">
        <ele>119.5</ele>
        <time>2022-08-07T06:14:17Z</time>
      </trkpt>
      <trkpt lat="44.92905" lon="1.67939">
        <ele>119.7</ele>
        <time>2022-08-07T06:14:19Z</time>
      </trkpt>
      <trkpt lat="44.92903" lon="1.67939">
        <ele>119.8</ele>
        <time>2022-08-07T06:14:21Z</time>
      </trkpt>
      <trkpt lat="44.929" lon="1.67942">
        <ele>120</ele>
        <time>2022-08-07T06:14:23Z</time>
      </trkpt>
      <trkpt lat="44.92897" lon="1.67944">
        <ele>120.2</ele>
        <time>2022-08-07T06:14:25Z</time>
      </trkpt>
      <trkpt lat="44.92895" lon="1.67946">
        <ele>120.4</ele>
        <time>2022-08-07T06:14:27Z</time>
      </trkpt>
      <trkpt lat="44.92891" lon="1.67948">
        <ele>120.7</ele>
        <time>2022-08-07T06:14:29Z</time>
      </trkpt>
      <trkpt lat="44.92887" lon="1.67949">
        <ele>121</ele>
        <time>2022-08-07T06:14:31Z</time>
      </trkpt>
      <trkpt lat="44.92883" lon="1.67947">
        <ele>121.2</ele>
        <time>2022-08-07T06:14:33Z</time>
      </trkpt>
      <trkpt lat="44.9288" lon="1.67942">
        <ele>121.3</ele>
        <time>2022-08-07T06:14:35Z</time>
      </trkpt>
      <trkpt lat="44.92877" lon="1.67939">
        <ele>121.3</ele>
        <time>2022-08-07T06:14:37Z</time>
      </trkpt>
      <trkpt lat="44.92874" lon="1.67935">
        <ele>121.3</ele>
        <time>2022-08-07T06:14:39Z</time>
      </trkpt>
      <trkpt lat="44.92871" lon="1.67931">
        <ele>121.3</ele>
        <time>2022-08-07T06:14:41Z</time>
      </trkpt>
      <trkpt lat="44.92868" lon="1.67928">
        <ele>121.3</ele>
        <time>2022-08-07T06:14:43Z</time>
      </trkpt>
      <trkpt lat="44.92865" lon="1.67923">
        <ele>121.2</ele>
        <time>2022-08-07T06:14:45Z</time>
      </trkpt>
      <trkpt lat="44.92862" lon="1.67918">
        <ele>121.1</ele>
        <time>2022-08-07T06:14:47Z</time>
      </trkpt>
      <trkpt lat="44.92858" lon="1.67911">
        <ele>121.1</ele>
        <time>2022-08-07T06:14:49Z</time>
      </trkpt>
      <trkpt lat="44.92854" lon="1.67904">
        <ele>121.2</ele>
        <time>2022-08-07T06:14:51Z</time>
      </trkpt>
      <trkpt lat="44.92852" lon="1.67902">
        <ele>121.3</ele>
        <time>2022-08-07T06:14:53Z</time>
      </trkpt>
      <trkpt lat="44.9285" lon="1.67896">
        <ele>121.3</ele>
        <time>2022-08-07T06:14:55Z</time>
      </trkpt>
      <trkpt lat="44.92847" lon="1.67893">
        <ele>121.4</ele>
        <time>2022-08-07T06:14:57Z</time>
      </trkpt>
      <trkpt lat="44.92844" lon="1.67891">
        <ele>121.4</ele>
        <time>2022-08-07T06:14:59Z</time>
      </trkpt>
      <trkpt lat="44.92842" lon="1.67889">
        <ele>121.5</ele>
        <time>2022-08-07T06:15:01Z</time>
      </trkpt>
      <trkpt lat="44.92839" lon="1.67886">
        <ele>121.5</ele>
        <time>2022-08-07T06:15:03Z</time>
      </trkpt>
      <trkpt lat="44.92833" lon="1.67883">
        <ele>121.6</ele>
        <time>2022-08-07T06:15:05Z</time>
      </trkpt>
      <trkpt lat="44.92827" lon="1.67883">
        <ele>122.5</ele>
        <time>2022-08-07T06:15:07Z</time>
      </trkpt>
      <trkpt lat="44.92823" lon="1.6789">
        <ele>123.4</ele>
        <time>2022-08-07T06:15:09Z</time>
      </trkpt>
      <trkpt lat="44.92822" lon="1.67898">
        <ele>123.7</ele>
        <time>2022-08-07T06:15:11Z</time>
      </trkpt>
      <trkpt lat="44.92823" lon="1.67904">
        <ele>123.8</ele>
        <time>2022-08-07T06:15:13Z</time>
      </trkpt>
      <trkpt lat="44.92822" lon="1.6791">
        <ele>124</ele>
        <time>2022-08-07T06:15:15Z</time>
      </trkpt>
      <trkpt lat="44.92821" lon="1.67917">
        <ele>124.6</ele>
        <time>2022-08-07T06:15:17Z</time>
      </trkpt>
      <trkpt lat="44.9282" lon="1.67926">
        <ele>125.8</ele>
        <time>2022-08-07T06:15:19Z</time>
      </trkpt>
      <trkpt lat="44.92818" lon="1.67935">
        <ele>126.9</ele>
        <time>2022-08-07T06:15:21Z</time>
      </trkpt>
      <trkpt lat="44.92817" lon="1.6794">
        <ele>127.8</ele>
        <time>2022-08-07T06:15:23Z</time>
      </trkpt>
      <trkpt lat="44.92816" lon="1.67943">
        <ele>128.3</ele>
        <time>2022-08-07T06:15:25Z</time>
      </trkpt>
      <trkpt lat="44.92815" lon="1.67947">
        <ele>129</ele>
        <time>2022-08-07T06:15:27Z</time>
      </trkpt>
      <trkpt lat="44.92814" lon="1.67949">
        <ele>129.3</ele>
        <time>2022-08-07T06:15:29Z</time>
      </trkpt>
      <trkpt lat="44.92813" lon="1.67952">
        <ele>129.9</ele>
        <time>2022-08-07T06:15:31Z</time>
      </trkpt>
      <trkpt lat="44.92813" lon="1.67954">
        <ele>130</ele>
        <time>2022-08-07T06:15:33Z</time>
      </trkpt>
      <trkpt lat="44.92813" lon="1.67957">
        <ele>130.5</ele>
        <time>2022-08-07T06:15:35Z</time>
      </trkpt>
      <trkpt lat="44.92812" lon="1.6796">
        <ele>131</ele>
        <time>2022-08-07T06:15:37Z</time>
      </trkpt>
      <trkpt lat="44.92813" lon="1.67963">
        <ele>131.3</ele>
        <time>2022-08-07T06:15:39Z</time>
      </trkpt>
      <trkpt lat="44.92813" lon="1.67966">
        <ele>131.5</ele>
        <time>2022-08-07T06:15:41Z</time>
      </trkpt>
      <trkpt lat="44.92814" lon="1.6797">
        <ele>131.5</ele>
        <time>2022-08-07T06:15:43Z</time>
      </trkpt>
      <trkpt lat="44.92816" lon="1.67975">
        <ele>131.6</ele>
        <time>2022-08-07T06:15:45Z</time>
      </trkpt>
      <trkpt lat="44.92818" lon="1.67981">
        <ele>131.5</ele>
        <time>2022-08-07T06:15:47Z</time>
      </trkpt>
      <trkpt lat="44.92819" lon="1.67984">
        <ele>131.8</ele>
        <time>2022-08-07T06:15:49Z</time>
      </trkpt>
      <trkpt lat="44.9282" lon="1.6799">
        <ele>132</ele>
        <time>2022-08-07T06:15:51Z</time>
      </trkpt>
      <trkpt lat="44.9282" lon="1.67993">
        <ele>132.5</ele>
        <time>2022-08-07T06:15:53Z</time>
      </trkpt>
      <trkpt lat="44.92819" lon="1.67996">
        <ele>132.9</ele>
        <time>2022-08-07T06:15:55Z</time>
      </trkpt>
      <trkpt lat="44.92819" lon="1.67999">
        <ele>133.1</ele>
        <time>2022-08-07T06:15:57Z</time>
      </trkpt>
      <trkpt lat="44.92819" lon="1.68002">
        <ele>133.5</ele>
        <time>2022-08-07T06:15:59Z</time>
      </trkpt>
      <trkpt lat="44.92817" lon="1.68004">
        <ele>134.2</ele>
        <time>2022-08-07T06:16:01Z</time>
      </trkpt>
      <trkpt lat="44.92815" lon="1.68004">
        <ele>134.9</ele>
        <time>2022-08-07T06:16:03Z</time>
      </trkpt>
      <trkpt lat="44.92814" lon="1.68003">
        <ele>135.1</ele>
        <time>2022-08-07T06:16:05Z</time>
      </trkpt>
      <trkpt lat="44.92814" lon="1.68">
        <ele>134.9</ele>
        <time>2022-08-07T06:16:07Z</time>
      </trkpt>
      <trkpt lat="44.92814" lon="1.67998">
        <ele>134.7</ele>
        <time>2022-08-07T06:16:09Z</time>
      </trkpt>
      <trkpt lat="44.92813" lon="1.67996">
        <ele>134.6</ele>
        <time>2022-08-07T06:16:11Z</time>
      </trkpt>
      <trkpt lat="44.92813" lon="1.67994">
        <ele>134.4</ele>
        <time>2022-08-07T06:16:13Z</time>
      </trkpt>
      <trkpt lat="44.92813" lon="1.67994">
        <ele>134.5</ele>
        <time>2022-08-07T06:16:15Z</time>
      </trkpt>
      <trkpt lat="44.92812" lon="1.67994">
        <ele>134.6</ele>
        <time>2022-08-07T06:16:17Z</time>
      </trkpt>
      <trkpt lat="44.92812" lon="1.67994">
        <ele>134.6</ele>
        <time>2022-08-07T06:16:19Z</time>
      </trkpt>
      <trkpt lat="44.92812" lon="1.67994">
        <ele>134.7</ele>
        <time>2022-08-07T06:16:21Z</time>
      </trkpt>
      <trkpt lat="44.92812" lon="1.67994">
        <ele>134.7</ele>
        <time>2022-08-07T06:16:23Z</time>
      </trkpt>
      <trkpt lat="44.92812" lon="1.67993">
        <ele>134.8</ele>
        <time>2022-08-07T06:16:25Z</time>
      </trkpt>
      <trkpt lat="44.92811" lon="1.67993">
        <ele>134.9</ele>
        <time>2022-08-07T06:16:27Z</time>
      </trkpt>
      <trkpt lat="44.92811" lon="1.67993">
        <ele>135</ele>
        <time>2022-08-07T06:16:29Z</time>
      </trkpt>
      <trkpt lat="44.92811" lon="1.67993">
        <ele>135</ele>
        <time>2022-08-07T06:16:31Z</time>
      </trkpt>
      <trkpt lat="44.92811" lon="1.67992">
        <ele>135</ele>
        <time>2022-08-07T06:16:33Z</time>
      </trkpt>
      <trkpt lat="44.9281" lon="1.67992">
        <ele>135</ele>
        <time>2022-08-07T06:16:35Z</time>
      </trkpt>
      <trkpt lat="44.9281" lon="1.67992">
        <ele>135.1</ele>
        <time>2022-08-07T06:16:37Z</time>
      </trkpt>
      <trkpt lat="44.9281" lon="1.67992">
        <ele>135</ele>
        <time>2022-08-07T06:16:39Z</time>
      </trkpt>
      <trkpt lat="44.9281" lon="1.67992">
        <ele>135.1</ele>
        <time>2022-08-07T06:16:41Z</time>
      </trkpt>
      <trkpt lat="44.9281" lon="1.67992">
        <ele>135.1</ele>
        <time>2022-08-07T06:16:43Z</time>
      </trkpt>
      <trkpt lat="44.9281" lon="1.67993">
        <ele>135.2</ele>
        <time>2022-08-07T06:16:45Z</time>
      </trkpt>
      <trkpt lat="44.9281" lon="1.67993">
        <ele>135.2</ele>
        <time>2022-08-07T06:16:47Z</time>
      </trkpt>
      <trkpt lat="44.9281" lon="1.67993">
        <ele>135.2</ele>
        <time>2022-08-07T06:16:49Z</time>
      </trkpt>
      <trkpt lat="44.92811" lon="1.67993">
        <ele>135</ele>
        <time>2022-08-07T06:16:51Z</time>
      </trkpt>
      <trkpt lat="44.92811" lon="1.67993">
        <ele>135</ele>
        <time>2022-08-07T06:16:53Z</time>
      </trkpt>
      <trkpt lat="44.92811" lon="1.67992">
        <ele>135</ele>
        <time>2022-08-07T06:16:55Z</time>
      </trkpt>
      <trkpt lat="44.92811" lon="1.67993">
        <ele>135</ele>
        <time>2022-08-07T06:16:57Z</time>
      </trkpt>
      <trkpt lat="44.92811" lon="1.67992">
        <ele>135</ele>
        <time>2022-08-07T06:16:59Z</time>
      </trkpt>
      <trkpt lat="44.92811" lon="1.67991">
        <ele>134.8</ele>
        <time>2022-08-07T06:17:01Z</time>
      </trkpt>
      <trkpt lat="44.92811" lon="1.6799">
        <ele>134.5</ele>
        <time>2022-08-07T06:17:03Z</time>
      </trkpt>
      <trkpt lat="44.92811" lon="1.67989">
        <ele>134.5</ele>
        <time>2022-08-07T06:17:05Z</time>
      </trkpt>
      <trkpt lat="44.92811" lon="1.67989">
        <ele>134.6</ele>
        <time>2022-08-07T06:17:07Z</time>
      </trkpt>
      <trkpt lat="44.92811" lon="1.67988">
        <ele>134.5</ele>
        <time>2022-08-07T06:17:09Z</time>
      </trkpt>
      <trkpt lat="44.92811" lon="1.67988">
        <ele>134.5</ele>
        <time>2022-08-07T06:17:11Z</time>
      </trkpt>
      <trkpt lat="44.92811" lon="1.67989">
        <ele>134.5</ele>
        <time>2022-08-07T06:17:13Z</time>
      </trkpt>
      <trkpt lat="44.92811" lon="1.67989">
        <ele>134.6</ele>
        <time>2022-08-07T06:17:15Z</time>
      </trkpt>
      <trkpt lat="44.9281" lon="1.67989">
        <ele>134.7</ele>
        <time>2022-08-07T06:17:17Z</time>
      </trkpt>
      <trkpt lat="44.9281" lon="1.67989">
        <ele>134.7</ele>
        <time>2022-08-07T06:17:19Z</time>
      </trkpt>
      <trkpt lat="44.9281" lon="1.67989">
        <ele>134.7</ele>
        <time>2022-08-07T06:17:21Z</time>
      </trkpt>
      <trkpt lat="44.9281" lon="1.67989">
        <ele>134.7</ele>
        <time>2022-08-07T06:17:23Z</time>
      </trkpt>
      <trkpt lat="44.9281" lon="1.67988">
        <ele>134.8</ele>
        <time>2022-08-07T06:17:25Z</time>
      </trkpt>
      <trkpt lat="44.92808" lon="1.67986">
        <ele>134.9</ele>
        <time>2022-08-07T06:17:27Z</time>
      </trkpt>
      <trkpt lat="44.92807" lon="1.67982">
        <ele>134.7</ele>
        <time>2022-08-07T06:17:29Z</time>
      </trkpt>
      <trkpt lat="44.92806" lon="1.67978">
        <ele>134.7</ele>
        <time>2022-08-07T06:17:31Z</time>
      </trkpt>
      <trkpt lat="44.92804" lon="1.67973">
        <ele>134.6</ele>
        <time>2022-08-07T06:17:33Z</time>
      </trkpt>
      <trkpt lat="44.92802" lon="1.67968">
        <ele>134.5</ele>
        <time>2022-08-07T06:17:35Z</time>
      </trkpt>
      <trkpt lat="44.92799" lon="1.67963">
        <ele>134.6</ele>
        <time>2022-08-07T06:17:37Z</time>
      </trkpt>
      <trkpt lat="44.92796" lon="1.67958">
        <ele>134.7</ele>
        <time>2022-08-07T06:17:39Z</time>
      </trkpt>
      <trkpt lat="44.92795" lon="1.67952">
        <ele>134.4</ele>
        <time>2022-08-07T06:17:41Z</time>
      </trkpt>
      <trkpt lat="44.92792" lon="1.67947">
        <ele>134.4</ele>
        <time>2022-08-07T06:17:43Z</time>
      </trkpt>
      <trkpt lat="44.9279" lon="1.67942">
        <ele>134.3</ele>
        <time>2022-08-07T06:17:45Z</time>
      </trkpt>
      <trkpt lat="44.92787" lon="1.67935">
        <ele>134.1</ele>
        <time>2022-08-07T06:17:47Z</time>
      </trkpt>
      <trkpt lat="44.92784" lon="1.6793">
        <ele>133.9</ele>
        <time>2022-08-07T06:17:49Z</time>
      </trkpt>
      <trkpt lat="44.92782" lon="1.67925">
        <ele>133.6</ele>
        <time>2022-08-07T06:17:51Z</time>
      </trkpt>
      <trkpt lat="44.92779" lon="1.67918">
        <ele>133.3</ele>
        <time>2022-08-07T06:17:53Z</time>
      </trkpt>
      <trkpt lat="44.92776" lon="1.67911">
        <ele>133.2</ele>
        <time>2022-08-07T06:17:55Z</time>
      </trkpt>
      <trkpt lat="44.92773" lon="1.67905">
        <ele>133</ele>
        <time>2022-08-07T06:17:57Z</time>
      </trkpt>
      <trkpt lat="44.9277" lon="1.67899">
        <ele>133</ele>
        <time>2022-08-07T06:17:59Z</time>
      </trkpt>
      <trkpt lat="44.92767" lon="1.67893">
        <ele>132.8</ele>
        <time>2022-08-07T06:18:01Z</time>
      </trkpt>
      <trkpt lat="44.92764" lon="1.67886">
        <ele>132.4</ele>
        <time>2022-08-07T06:18:03Z</time>
      </trkpt>
      <trkpt lat="44.9276" lon="1.6788">
        <ele>132.2</ele>
        <time>2022-08-07T06:18:05Z</time>
      </trkpt>
      <trkpt lat="44.92757" lon="1.67874">
        <ele>131.9</ele>
        <time>2022-08-07T06:18:07Z</time>
      </trkpt>
      <trkpt lat="44.92755" lon="1.67869">
        <ele>131.5</ele>
        <time>2022-08-07T06:18:09Z</time>
      </trkpt>
      <trkpt lat="44.92753" lon="1.67865">
        <ele>131.1</ele>
        <time>2022-08-07T06:18:11Z</time>
      </trkpt>
      <trkpt lat="44.9275" lon="1.67858">
        <ele>130.6</ele>
        <time>2022-08-07T06:18:13Z</time>
      </trkpt>
      <trkpt lat="44.92747" lon="1.67853">
        <ele>130.4</ele>
        <time>2022-08-07T06:18:15Z</time>
      </trkpt>
      <trkpt lat="44.92745" lon="1.67847">
        <ele>130.1</ele>
        <time>2022-08-07T06:18:17Z</time>
      </trkpt>
      <trkpt lat="44.92743" lon="1.67842">
        <ele>129.8</ele>
        <time>2022-08-07T06:18:19Z</time>
      </trkpt>
      <trkpt lat="44.92741" lon="1.67838">
        <ele>129.6</ele>
        <time>2022-08-07T06:18:21Z</time>
      </trkpt>
      <trkpt lat="44.92738" lon="1.67832">
        <ele>129.3</ele>
        <time>2022-08-07T06:18:23Z</time>
      </trkpt>
      <trkpt lat="44.92735" lon="1.67825">
        <ele>129.3</ele>
        <time>2022-08-07T06:18:25Z</time>
      </trkpt>
      <trkpt lat="44.92733" lon="1.67818">
        <ele>129.1</ele>
        <time>2022-08-07T06:18:27Z</time>
      </trkpt>
      <trkpt lat="44.9273" lon="1.67811">
        <ele>129</ele>
        <time>2022-08-07T06:18:29Z</time>
      </trkpt>
      <trkpt lat="44.92728" lon="1.67803">
        <ele>128.8</ele>
        <time>2022-08-07T06:18:31Z</time>
      </trkpt>
      <trkpt lat="44.92724" lon="1.67796">
        <ele>128.8</ele>
        <time>2022-08-07T06:18:33Z</time>
      </trkpt>
      <trkpt lat="44.92721" lon="1.6779">
        <ele>128.7</ele>
        <time>2022-08-07T06:18:35Z</time>
      </trkpt>
      <trkpt lat="44.92718" lon="1.67783">
        <ele>128.4</ele>
        <time>2022-08-07T06:18:37Z</time>
      </trkpt>
      <trkpt lat="44.92716" lon="1.67776">
        <ele>128.2</ele>
        <time>2022-08-07T06:18:39Z</time>
      </trkpt>
      <trkpt lat="44.92714" lon="1.67768">
        <ele>127.7</ele>
        <time>2022-08-07T06:18:41Z</time>
      </trkpt>
      <trkpt lat="44.92712" lon="1.6776">
        <ele>127.1</ele>
        <time>2022-08-07T06:18:43Z</time>
      </trkpt>
      <trkpt lat="44.92709" lon="1.67751">
        <ele>126.6</ele>
        <time>2022-08-07T06:18:45Z</time>
      </trkpt>
      <trkpt lat="44.92706" lon="1.67743">
        <ele>126.2</ele>
        <time>2022-08-07T06:18:47Z</time>
      </trkpt>
      <trkpt lat="44.92704" lon="1.67736">
        <ele>125.9</ele>
        <time>2022-08-07T06:18:49Z</time>
      </trkpt>
      <trkpt lat="44.92701" lon="1.67728">
        <ele>125.5</ele>
        <time>2022-08-07T06:18:51Z</time>
      </trkpt>
      <trkpt lat="44.92699" lon="1.67721">
        <ele>125.3</ele>
        <time>2022-08-07T06:18:53Z</time>
      </trkpt>
      <trkpt lat="44.92696" lon="1.67714">
        <ele>124.9</ele>
        <time>2022-08-07T06:18:55Z</time>
      </trkpt>
      <trkpt lat="44.92695" lon="1.67707">
        <ele>124.5</ele>
        <time>2022-08-07T06:18:57Z</time>
      </trkpt>
      <trkpt lat="44.92693" lon="1.677">
        <ele>124.2</ele>
        <time>2022-08-07T06:18:59Z</time>
      </trkpt>
      <trkpt lat="44.9269" lon="1.67693">
        <ele>123.8</ele>
        <time>2022-08-07T06:19:01Z</time>
      </trkpt>
      <trkpt lat="44.92688" lon="1.67686">
        <ele>123.4</ele>
        <time>2022-08-07T06:19:03Z</time>
      </trkpt>
      <trkpt lat="44.92672" lon="1.6764">
        <ele>122.8</ele>
        <time>2022-08-07T06:19:13Z</time>
      </trkpt>
      <trkpt lat="44.9267" lon="1.67631">
        <ele>122.8</ele>
        <time>2022-08-07T06:19:15Z</time>
      </trkpt>
      <trkpt lat="44.92667" lon="1.67623">
        <ele>122.9</ele>
        <time>2022-08-07T06:19:17Z</time>
      </trkpt>
      <trkpt lat="44.92665" lon="1.67614">
        <ele>123.4</ele>
        <time>2022-08-07T06:19:19Z</time>
      </trkpt>
      <trkpt lat="44.92662" lon="1.67604">
        <ele>124.2</ele>
        <time>2022-08-07T06:19:21Z</time>
      </trkpt>
      <trkpt lat="44.9266" lon="1.67594">
        <ele>125</ele>
        <time>2022-08-07T06:19:23Z</time>
      </trkpt>
      <trkpt lat="44.92659" lon="1.67583">
        <ele>125.2</ele>
        <time>2022-08-07T06:19:25Z</time>
      </trkpt>
      <trkpt lat="44.92659" lon="1.67571">
        <ele>125.6</ele>
        <time>2022-08-07T06:19:27Z</time>
      </trkpt>
      <trkpt lat="44.92659" lon="1.6756">
        <ele>125.8</ele>
        <time>2022-08-07T06:19:29Z</time>
      </trkpt>
      <trkpt lat="44.9266" lon="1.67549">
        <ele>125.8</ele>
        <time>2022-08-07T06:19:31Z</time>
      </trkpt>
      <trkpt lat="44.92662" lon="1.67538">
        <ele>125.4</ele>
        <time>2022-08-07T06:19:33Z</time>
      </trkpt>
      <trkpt lat="44.92664" lon="1.67527">
        <ele>124.9</ele>
        <time>2022-08-07T06:19:35Z</time>
      </trkpt>
      <trkpt lat="44.92666" lon="1.67517">
        <ele>124.6</ele>
        <time>2022-08-07T06:19:37Z</time>
      </trkpt>
      <trkpt lat="44.92668" lon="1.67506">
        <ele>124.6</ele>
        <time>2022-08-07T06:19:39Z</time>
      </trkpt>
      <trkpt lat="44.92671" lon="1.67495">
        <ele>124.7</ele>
        <time>2022-08-07T06:19:41Z</time>
      </trkpt>
      <trkpt lat="44.92672" lon="1.67484">
        <ele>124.8</ele>
        <time>2022-08-07T06:19:43Z</time>
      </trkpt>
      <trkpt lat="44.92673" lon="1.67473">
        <ele>125.2</ele>
        <time>2022-08-07T06:19:45Z</time>
      </trkpt>
      <trkpt lat="44.92673" lon="1.67462">
        <ele>125.5</ele>
        <time>2022-08-07T06:19:47Z</time>
      </trkpt>
      <trkpt lat="44.92672" lon="1.67451">
        <ele>126</ele>
        <time>2022-08-07T06:19:49Z</time>
      </trkpt>
      <trkpt lat="44.92669" lon="1.6744">
        <ele>126.7</ele>
        <time>2022-08-07T06:19:51Z</time>
      </trkpt>
      <trkpt lat="44.92667" lon="1.67429">
        <ele>127.5</ele>
        <time>2022-08-07T06:19:53Z</time>
      </trkpt>
      <trkpt lat="44.92665" lon="1.67417">
        <ele>128.6</ele>
        <time>2022-08-07T06:19:55Z</time>
      </trkpt>
      <trkpt lat="44.92663" lon="1.67407">
        <ele>129.2</ele>
        <time>2022-08-07T06:19:57Z</time>
      </trkpt>
      <trkpt lat="44.92661" lon="1.67395">
        <ele>129.6</ele>
        <time>2022-08-07T06:19:59Z</time>
      </trkpt>
      <trkpt lat="44.9266" lon="1.67383">
        <ele>129.9</ele>
        <time>2022-08-07T06:20:01Z</time>
      </trkpt>
      <trkpt lat="44.9266" lon="1.67372">
        <ele>129.9</ele>
        <time>2022-08-07T06:20:03Z</time>
      </trkpt>
      <trkpt lat="44.92661" lon="1.67362">
        <ele>129.4</ele>
        <time>2022-08-07T06:20:05Z</time>
      </trkpt>
      <trkpt lat="44.92662" lon="1.6735">
        <ele>129.1</ele>
        <time>2022-08-07T06:20:07Z</time>
      </trkpt>
      <trkpt lat="44.92663" lon="1.67337">
        <ele>128.6</ele>
        <time>2022-08-07T06:20:09Z</time>
      </trkpt>
      <trkpt lat="44.92663" lon="1.67326">
        <ele>128.5</ele>
        <time>2022-08-07T06:20:11Z</time>
      </trkpt>
      <trkpt lat="44.92664" lon="1.67315">
        <ele>128.7</ele>
        <time>2022-08-07T06:20:13Z</time>
      </trkpt>
      <trkpt lat="44.92664" lon="1.67304">
        <ele>128.7</ele>
        <time>2022-08-07T06:20:15Z</time>
      </trkpt>
      <trkpt lat="44.92665" lon="1.67294">
        <ele>128.5</ele>
        <time>2022-08-07T06:20:17Z</time>
      </trkpt>
      <trkpt lat="44.92666" lon="1.67283">
        <ele>128.3</ele>
        <time>2022-08-07T06:20:19Z</time>
      </trkpt>
      <trkpt lat="44.92667" lon="1.67273">
        <ele>128.4</ele>
        <time>2022-08-07T06:20:21Z</time>
      </trkpt>
      <trkpt lat="44.92668" lon="1.67262">
        <ele>128.5</ele>
        <time>2022-08-07T06:20:23Z</time>
      </trkpt>
      <trkpt lat="44.92668" lon="1.67252">
        <ele>128.6</ele>
        <time>2022-08-07T06:20:25Z</time>
      </trkpt>
      <trkpt lat="44.92669" lon="1.67242">
        <ele>128.9</ele>
        <time>2022-08-07T06:20:27Z</time>
      </trkpt>
      <trkpt lat="44.9267" lon="1.67233">
        <ele>129</ele>
        <time>2022-08-07T06:20:29Z</time>
      </trkpt>
      <trkpt lat="44.9267" lon="1.67223">
        <ele>129.3</ele>
        <time>2022-08-07T06:20:31Z</time>
      </trkpt>
      <trkpt lat="44.9267" lon="1.67214">
        <ele>129.6</ele>
        <time>2022-08-07T06:20:33Z</time>
      </trkpt>
      <trkpt lat="44.92671" lon="1.67203">
        <ele>129.7</ele>
        <time>2022-08-07T06:20:35Z</time>
      </trkpt>
      <trkpt lat="44.92672" lon="1.67193">
        <ele>129.8</ele>
        <time>2022-08-07T06:20:37Z</time>
      </trkpt>
      <trkpt lat="44.92672" lon="1.67185">
        <ele>130</ele>
        <time>2022-08-07T06:20:39Z</time>
      </trkpt>
      <trkpt lat="44.92674" lon="1.67175">
        <ele>130</ele>
        <time>2022-08-07T06:20:41Z</time>
      </trkpt>
      <trkpt lat="44.92674" lon="1.67165">
        <ele>130.2</ele>
        <time>2022-08-07T06:20:43Z</time>
      </trkpt>
      <trkpt lat="44.92675" lon="1.67155">
        <ele>129.1</ele>
        <time>2022-08-07T06:20:45Z</time>
      </trkpt>
      <trkpt lat="44.92675" lon="1.67146">
        <ele>128.3</ele>
        <time>2022-08-07T06:20:47Z</time>
      </trkpt>
      <trkpt lat="44.92675" lon="1.67137">
        <ele>127.4</ele>
        <time>2022-08-07T06:20:49Z</time>
      </trkpt>
      <trkpt lat="44.92674" lon="1.67127">
        <ele>126.7</ele>
        <time>2022-08-07T06:20:51Z</time>
      </trkpt>
      <trkpt lat="44.92674" lon="1.67116">
        <ele>125.9</ele>
        <time>2022-08-07T06:20:53Z</time>
      </trkpt>
      <trkpt lat="44.92672" lon="1.67107">
        <ele>125.4</ele>
        <time>2022-08-07T06:20:55Z</time>
      </trkpt>
      <trkpt lat="44.92669" lon="1.67098">
        <ele>125</ele>
        <time>2022-08-07T06:20:57Z</time>
      </trkpt>
      <trkpt lat="44.92667" lon="1.67089">
        <ele>124.5</ele>
        <time>2022-08-07T06:20:59Z</time>
      </trkpt>
      <trkpt lat="44.92663" lon="1.6708">
        <ele>124.9</ele>
        <time>2022-08-07T06:21:01Z</time>
      </trkpt>
      <trkpt lat="44.9266" lon="1.67073">
        <ele>125.4</ele>
        <time>2022-08-07T06:21:03Z</time>
      </trkpt>
      <trkpt lat="44.92656" lon="1.67065">
        <ele>126.1</ele>
        <time>2022-08-07T06:21:05Z</time>
      </trkpt>
      <trkpt lat="44.92654" lon="1.67061">
        <ele>126.3</ele>
        <time>2022-08-07T06:21:07Z</time>
      </trkpt>
      <trkpt lat="44.92652" lon="1.67058">
        <ele>126.9</ele>
        <time>2022-08-07T06:21:09Z</time>
      </trkpt>
      <trkpt lat="44.9265" lon="1.67063">
        <ele>127.5</ele>
        <time>2022-08-07T06:21:11Z</time>
      </trkpt>
      <trkpt lat="44.92653" lon="1.67067">
        <ele>127</ele>
        <time>2022-08-07T06:21:13Z</time>
      </trkpt>
      <trkpt lat="44.92654" lon="1.67071">
        <ele>127.1</ele>
        <time>2022-08-07T06:21:15Z</time>
      </trkpt>
      <trkpt lat="44.92655" lon="1.67074">
        <ele>127</ele>
        <time>2022-08-07T06:21:17Z</time>
      </trkpt>
      <trkpt lat="44.92656" lon="1.67073">
        <ele>126.7</ele>
        <time>2022-08-07T06:21:19Z</time>
      </trkpt>
      <trkpt lat="44.92656" lon="1.67073">
        <ele>126.6</ele>
        <time>2022-08-07T06:21:21Z</time>
      </trkpt>
      <trkpt lat="44.92656" lon="1.67073">
        <ele>126.6</ele>
        <time>2022-08-07T06:21:23Z</time>
      </trkpt>
      <trkpt lat="44.92678" lon="1.67058">
        <ele>121.5</ele>
        <time>2022-08-07T06:23:39Z</time>
      </trkpt>
      <trkpt lat="44.92683" lon="1.67055">
        <ele>120.6</ele>
        <time>2022-08-07T06:23:41Z</time>
      </trkpt>
      <trkpt lat="44.92688" lon="1.67052">
        <ele>120</ele>
        <time>2022-08-07T06:23:43Z</time>
      </trkpt>
      <trkpt lat="44.92692" lon="1.67049">
        <ele>119.4</ele>
        <time>2022-08-07T06:23:45Z</time>
      </trkpt>
      <trkpt lat="44.92697" lon="1.67046">
        <ele>118.8</ele>
        <time>2022-08-07T06:23:47Z</time>
      </trkpt>
      <trkpt lat="44.92703" lon="1.67043">
        <ele>118.1</ele>
        <time>2022-08-07T06:23:49Z</time>
      </trkpt>
      <trkpt lat="44.92708" lon="1.6704">
        <ele>117.6</ele>
        <time>2022-08-07T06:23:51Z</time>
      </trkpt>
      <trkpt lat="44.92713" lon="1.67037">
        <ele>117</ele>
        <time>2022-08-07T06:23:53Z</time>
      </trkpt>
      <trkpt lat="44.92718" lon="1.67033">
        <ele>116.5</ele>
        <time>2022-08-07T06:23:55Z</time>
      </trkpt>
      <trkpt lat="44.92723" lon="1.67029">
        <ele>115.9</ele>
        <time>2022-08-07T06:23:57Z</time>
      </trkpt>
      <trkpt lat="44.92728" lon="1.67027">
        <ele>115.4</ele>
        <time>2022-08-07T06:23:59Z</time>
      </trkpt>
      <trkpt lat="44.92733" lon="1.67024">
        <ele>115</ele>
        <time>2022-08-07T06:24:01Z</time>
      </trkpt>
      <trkpt lat="44.92739" lon="1.6702">
        <ele>114.5</ele>
        <time>2022-08-07T06:24:03Z</time>
      </trkpt>
      <trkpt lat="44.92743" lon="1.67017">
        <ele>114.2</ele>
        <time>2022-08-07T06:24:05Z</time>
      </trkpt>
      <trkpt lat="44.92749" lon="1.67014">
        <ele>113.7</ele>
        <time>2022-08-07T06:24:07Z</time>
      </trkpt>
      <trkpt lat="44.92754" lon="1.6701">
        <ele>113.8</ele>
        <time>2022-08-07T06:24:09Z</time>
      </trkpt>
      <trkpt lat="44.92759" lon="1.67007">
        <ele>114</ele>
        <time>2022-08-07T06:24:11Z</time>
      </trkpt>
      <trkpt lat="44.92764" lon="1.67004">
        <ele>114.1</ele>
        <time>2022-08-07T06:24:13Z</time>
      </trkpt>
      <trkpt lat="44.9277" lon="1.67001">
        <ele>114.2</ele>
        <time>2022-08-07T06:24:15Z</time>
      </trkpt>
      <trkpt lat="44.92775" lon="1.66997">
        <ele>114.3</ele>
        <time>2022-08-07T06:24:17Z</time>
      </trkpt>
      <trkpt lat="44.9278" lon="1.66993">
        <ele>114.4</ele>
        <time>2022-08-07T06:24:19Z</time>
      </trkpt>
      <trkpt lat="44.92785" lon="1.6699">
        <ele>114.5</ele>
        <time>2022-08-07T06:24:21Z</time>
      </trkpt>
      <trkpt lat="44.92791" lon="1.66987">
        <ele>114.6</ele>
        <time>2022-08-07T06:24:23Z</time>
      </trkpt>
      <trkpt lat="44.92795" lon="1.66985">
        <ele>114.6</ele>
        <time>2022-08-07T06:24:25Z</time>
      </trkpt>
      <trkpt lat="44.92802" lon="1.66984">
        <ele>114.8</ele>
        <time>2022-08-07T06:24:27Z</time>
      </trkpt>
      <trkpt lat="44.92808" lon="1.66982">
        <ele>114.8</ele>
        <time>2022-08-07T06:24:29Z</time>
      </trkpt>
      <trkpt lat="44.92811" lon="1.66979">
        <ele>114.9</ele>
        <time>2022-08-07T06:24:31Z</time>
      </trkpt>
      <trkpt lat="44.92811" lon="1.66975">
        <ele>114.9</ele>
        <time>2022-08-07T06:24:33Z</time>
      </trkpt>
      <trkpt lat="44.92807" lon="1.66974">
        <ele>114.9</ele>
        <time>2022-08-07T06:24:35Z</time>
      </trkpt>
      <trkpt lat="44.92807" lon="1.66974">
        <ele>114.9</ele>
        <time>2022-08-07T06:24:37Z</time>
      </trkpt>
      <trkpt lat="44.92807" lon="1.66974">
        <ele>114.9</ele>
        <time>2022-08-07T06:24:39Z</time>
      </trkpt>
      <trkpt lat="44.92807" lon="1.66974">
        <ele>114.9</ele>
        <time>2022-08-07T06:24:41Z</time>
      </trkpt>
      <trkpt lat="44.92807" lon="1.66974">
        <ele>114.9</ele>
        <time>2022-08-07T06:24:43Z</time>
      </trkpt>
      <trkpt lat="44.92793" lon="1.66982">
        <ele>114.6</ele>
        <time>2022-08-07T06:25:05Z</time>
      </trkpt>
      <trkpt lat="44.9279" lon="1.66986">
        <ele>114.6</ele>
        <time>2022-08-07T06:25:07Z</time>
      </trkpt>
      <trkpt lat="44.92787" lon="1.66988">
        <ele>114.5</ele>
        <time>2022-08-07T06:25:09Z</time>
      </trkpt>
      <trkpt lat="44.92782" lon="1.6699">
        <ele>114.4</ele>
        <time>2022-08-07T06:25:11Z</time>
      </trkpt>
      <trkpt lat="44.92778" lon="1.66993">
        <ele>114.4</ele>
        <time>2022-08-07T06:25:13Z</time>
      </trkpt>
      <trkpt lat="44.92773" lon="1.66996">
        <ele>114.3</ele>
        <time>2022-08-07T06:25:15Z</time>
      </trkpt>
      <trkpt lat="44.92769" lon="1.66999">
        <ele>114.2</ele>
        <time>2022-08-07T06:25:17Z</time>
      </trkpt>
      <trkpt lat="44.92765" lon="1.67002">
        <ele>114.1</ele>
        <time>2022-08-07T06:25:19Z</time>
      </trkpt>
      <trkpt lat="44.9276" lon="1.67005">
        <ele>114</ele>
        <time>2022-08-07T06:25:21Z</time>
      </trkpt>
      <trkpt lat="44.92756" lon="1.67007">
        <ele>113.9</ele>
        <time>2022-08-07T06:25:23Z</time>
      </trkpt>
      <trkpt lat="44.92751" lon="1.6701">
        <ele>113.8</ele>
        <time>2022-08-07T06:25:25Z</time>
      </trkpt>
      <trkpt lat="44.92747" lon="1.67013">
        <ele>113.9</ele>
        <time>2022-08-07T06:25:27Z</time>
      </trkpt>
      <trkpt lat="44.92742" lon="1.67016">
        <ele>114.3</ele>
        <time>2022-08-07T06:25:29Z</time>
      </trkpt>
      <trkpt lat="44.92738" lon="1.67019">
        <ele>114.6</ele>
        <time>2022-08-07T06:25:31Z</time>
      </trkpt>
      <trkpt lat="44.92732" lon="1.67022">
        <ele>115.1</ele>
        <time>2022-08-07T06:25:33Z</time>
      </trkpt>
      <trkpt lat="44.92728" lon="1.67025">
        <ele>115.5</ele>
        <time>2022-08-07T06:25:35Z</time>
      </trkpt>
      <trkpt lat="44.92723" lon="1.67028">
        <ele>115.9</ele>
        <time>2022-08-07T06:25:37Z</time>
      </trkpt>
      <trkpt lat="44.92718" lon="1.67031">
        <ele>116.4</ele>
        <time>2022-08-07T06:25:39Z</time>
      </trkpt>
      <trkpt lat="44.92714" lon="1.67035">
        <ele>116.9</ele>
        <time>2022-08-07T06:25:41Z</time>
      </trkpt>
      <trkpt lat="44.92708" lon="1.67038">
        <ele>117.4</ele>
        <time>2022-08-07T06:25:43Z</time>
      </trkpt>
      <trkpt lat="44.92703" lon="1.67041">
        <ele>118</ele>
        <time>2022-08-07T06:25:45Z</time>
      </trkpt>
      <trkpt lat="44.92698" lon="1.67045">
        <ele>118.7</ele>
        <time>2022-08-07T06:25:47Z</time>
      </trkpt>
      <trkpt lat="44.92693" lon="1.67048">
        <ele>119.4</ele>
        <time>2022-08-07T06:25:49Z</time>
      </trkpt>
      <trkpt lat="44.92688" lon="1.67052">
        <ele>120</ele>
        <time>2022-08-07T06:25:51Z</time>
      </trkpt>
      <trkpt lat="44.92682" lon="1.67055">
        <ele>120.9</ele>
        <time>2022-08-07T06:25:53Z</time>
      </trkpt>
      <trkpt lat="44.92676" lon="1.67058">
        <ele>121.6</ele>
        <time>2022-08-07T06:25:55Z</time>
      </trkpt>
      <trkpt lat="44.92671" lon="1.67061">
        <ele>122.4</ele>
        <time>2022-08-07T06:25:57Z</time>
      </trkpt>
      <trkpt lat="44.92666" lon="1.67062">
        <ele>123.2</ele>
        <time>2022-08-07T06:25:59Z</time>
      </trkpt>
      <trkpt lat="44.9266" lon="1.67062">
        <ele>124.7</ele>
        <time>2022-08-07T06:26:01Z</time>
      </trkpt>
      <trkpt lat="44.92656" lon="1.67059">
        <ele>125.8</ele>
        <time>2022-08-07T06:26:03Z</time>
      </trkpt>
      <trkpt lat="44.92654" lon="1.67058">
        <ele>126.3</ele>
        <time>2022-08-07T06:26:05Z</time>
      </trkpt>
      <trkpt lat="44.92654" lon="1.67058">
        <ele>126.1</ele>
        <time>2022-08-07T06:26:07Z</time>
      </trkpt>
      <trkpt lat="44.92654" lon="1.67058">
        <ele>126.1</ele>
        <time>2022-08-07T06:26:09Z</time>
      </trkpt>
      <trkpt lat="44.92654" lon="1.67058">
        <ele>126.3</ele>
        <time>2022-08-07T06:26:11Z</time>
      </trkpt>
      <trkpt lat="44.92653" lon="1.67058">
        <ele>126.5</ele>
        <time>2022-08-07T06:26:13Z</time>
      </trkpt>
      <trkpt lat="44.9264" lon="1.67037">
        <ele>128.3</ele>
        <time>2022-08-07T06:27:23Z</time>
      </trkpt>
      <trkpt lat="44.92637" lon="1.6703">
        <ele>128.5</ele>
        <time>2022-08-07T06:27:25Z</time>
      </trkpt>
      <trkpt lat="44.92633" lon="1.67023">
        <ele>128.9</ele>
        <time>2022-08-07T06:27:27Z</time>
      </trkpt>
      <trkpt lat="44.9263" lon="1.67015">
        <ele>129</ele>
        <time>2022-08-07T06:27:29Z</time>
      </trkpt>
      <trkpt lat="44.92626" lon="1.67008">
        <ele>129.1</ele>
        <time>2022-08-07T06:27:31Z</time>
      </trkpt>
      <trkpt lat="44.92622" lon="1.67001">
        <ele>129.3</ele>
        <time>2022-08-07T06:27:33Z</time>
      </trkpt>
      <trkpt lat="44.92618" lon="1.66995">
        <ele>129.2</ele>
        <time>2022-08-07T06:27:35Z</time>
      </trkpt>
      <trkpt lat="44.92612" lon="1.66988">
        <ele>129.3</ele>
        <time>2022-08-07T06:27:37Z</time>
      </trkpt>
      <trkpt lat="44.92607" lon="1.66981">
        <ele>129.1</ele>
        <time>2022-08-07T06:27:39Z</time>
      </trkpt>
      <trkpt lat="44.92602" lon="1.66975">
        <ele>128.9</ele>
        <time>2022-08-07T06:27:41Z</time>
      </trkpt>
      <trkpt lat="44.92595" lon="1.6697">
        <ele>128.8</ele>
        <time>2022-08-07T06:27:43Z</time>
      </trkpt>
      <trkpt lat="44.92589" lon="1.66964">
        <ele>128.5</ele>
        <time>2022-08-07T06:27:45Z</time>
      </trkpt>
      <trkpt lat="44.92582" lon="1.66959">
        <ele>128.4</ele>
        <time>2022-08-07T06:27:47Z</time>
      </trkpt>
      <trkpt lat="44.92576" lon="1.66953">
        <ele>128.7</ele>
        <time>2022-08-07T06:27:49Z</time>
      </trkpt>
      <trkpt lat="44.92569" lon="1.66945">
        <ele>128.7</ele>
        <time>2022-08-07T06:27:51Z</time>
      </trkpt>
      <trkpt lat="44.92563" lon="1.66939">
        <ele>128.7</ele>
        <time>2022-08-07T06:27:53Z</time>
      </trkpt>
      <trkpt lat="44.92557" lon="1.66932">
        <ele>128.5</ele>
        <time>2022-08-07T06:27:55Z</time>
      </trkpt>
      <trkpt lat="44.92552" lon="1.66925">
        <ele>128.4</ele>
        <time>2022-08-07T06:27:57Z</time>
      </trkpt>
      <trkpt lat="44.92545" lon="1.66919">
        <ele>128.6</ele>
        <time>2022-08-07T06:27:59Z</time>
      </trkpt>
      <trkpt lat="44.92538" lon="1.66913">
        <ele>129.3</ele>
        <time>2022-08-07T06:28:01Z</time>
      </trkpt>
      <trkpt lat="44.92531" lon="1.66908">
        <ele>130</ele>
        <time>2022-08-07T06:28:03Z</time>
      </trkpt>
      <trkpt lat="44.92525" lon="1.669">
        <ele>129.9</ele>
        <time>2022-08-07T06:28:05Z</time>
      </trkpt>
      <trkpt lat="44.92518" lon="1.66894">
        <ele>130.2</ele>
        <time>2022-08-07T06:28:07Z</time>
      </trkpt>
      <trkpt lat="44.9251" lon="1.66886">
        <ele>130.2</ele>
        <time>2022-08-07T06:28:09Z</time>
      </trkpt>
      <trkpt lat="44.92505" lon="1.66877">
        <ele>129.1</ele>
        <time>2022-08-07T06:28:11Z</time>
      </trkpt>
      <trkpt lat="44.92499" lon="1.66868">
        <ele>128.4</ele>
        <time>2022-08-07T06:28:13Z</time>
      </trkpt>
      <trkpt lat="44.92492" lon="1.66857">
        <ele>129.7</ele>
        <time>2022-08-07T06:28:15Z</time>
      </trkpt>
      <trkpt lat="44.92486" lon="1.66844">
        <ele>129.7</ele>
        <time>2022-08-07T06:28:17Z</time>
      </trkpt>
      <trkpt lat="44.92479" lon="1.66833">
        <ele>130.1</ele>
        <time>2022-08-07T06:28:19Z</time>
      </trkpt>
      <trkpt lat="44.92471" lon="1.6682">
        <ele>131.2</ele>
        <time>2022-08-07T06:28:21Z</time>
      </trkpt>
      <trkpt lat="44.92464" lon="1.66808">
        <ele>131.1</ele>
        <time>2022-08-07T06:28:23Z</time>
      </trkpt>
      <trkpt lat="44.92458" lon="1.66795">
        <ele>130.1</ele>
        <time>2022-08-07T06:28:25Z</time>
      </trkpt>
      <trkpt lat="44.92452" lon="1.66783">
        <ele>128.6</ele>
        <time>2022-08-07T06:28:27Z</time>
      </trkpt>
      <trkpt lat="44.92446" lon="1.66771">
        <ele>126.5</ele>
        <time>2022-08-07T06:28:29Z</time>
      </trkpt>
      <trkpt lat="44.92439" lon="1.66758">
        <ele>123.9</ele>
        <time>2022-08-07T06:28:31Z</time>
      </trkpt>
      <trkpt lat="44.92433" lon="1.66746">
        <ele>121.8</ele>
        <time>2022-08-07T06:28:33Z</time>
      </trkpt>
      <trkpt lat="44.92427" lon="1.66734">
        <ele>122.2</ele>
        <time>2022-08-07T06:28:35Z</time>
      </trkpt>
      <trkpt lat="44.92422" lon="1.66723">
        <ele>122.5</ele>
        <time>2022-08-07T06:28:37Z</time>
      </trkpt>
      <trkpt lat="44.92416" lon="1.6671">
        <ele>123.2</ele>
        <time>2022-08-07T06:28:39Z</time>
      </trkpt>
      <trkpt lat="44.9241" lon="1.66699">
        <ele>127.8</ele>
        <time>2022-08-07T06:28:41Z</time>
      </trkpt>
      <trkpt lat="44.92404" lon="1.66687">
        <ele>132.2</ele>
        <time>2022-08-07T06:28:43Z</time>
      </trkpt>
      <trkpt lat="44.92397" lon="1.66674">
        <ele>136.4</ele>
        <time>2022-08-07T06:28:45Z</time>
      </trkpt>
      <trkpt lat="44.92391" lon="1.66663">
        <ele>139.7</ele>
        <time>2022-08-07T06:28:47Z</time>
      </trkpt>
      <trkpt lat="44.92385" lon="1.6665">
        <ele>141.8</ele>
        <time>2022-08-07T06:28:49Z</time>
      </trkpt>
      <trkpt lat="44.9238" lon="1.66637">
        <ele>142.7</ele>
        <time>2022-08-07T06:28:51Z</time>
      </trkpt>
      <trkpt lat="44.92375" lon="1.66625">
        <ele>143.9</ele>
        <time>2022-08-07T06:28:53Z</time>
      </trkpt>
      <trkpt lat="44.92371" lon="1.66612">
        <ele>143.7</ele>
        <time>2022-08-07T06:28:55Z</time>
      </trkpt>
      <trkpt lat="44.92365" lon="1.666">
        <ele>144</ele>
        <time>2022-08-07T06:28:57Z</time>
      </trkpt>
      <trkpt lat="44.92361" lon="1.66588">
        <ele>143.2</ele>
        <time>2022-08-07T06:28:59Z</time>
      </trkpt>
      <trkpt lat="44.92357" lon="1.66577">
        <ele>142.5</ele>
        <time>2022-08-07T06:29:01Z</time>
      </trkpt>
      <trkpt lat="44.92352" lon="1.66564">
        <ele>141.8</ele>
        <time>2022-08-07T06:29:03Z</time>
      </trkpt>
      <trkpt lat="44.92347" lon="1.66552">
        <ele>140.4</ele>
        <time>2022-08-07T06:29:05Z</time>
      </trkpt>
      <trkpt lat="44.92343" lon="1.66539">
        <ele>138.6</ele>
        <time>2022-08-07T06:29:07Z</time>
      </trkpt>
      <trkpt lat="44.92339" lon="1.66526">
        <ele>136.3</ele>
        <time>2022-08-07T06:29:09Z</time>
      </trkpt>
      <trkpt lat="44.92335" lon="1.66514">
        <ele>133.8</ele>
        <time>2022-08-07T06:29:11Z</time>
      </trkpt>
      <trkpt lat="44.92331" lon="1.665">
        <ele>131.3</ele>
        <time>2022-08-07T06:29:13Z</time>
      </trkpt>
      <trkpt lat="44.92327" lon="1.66487">
        <ele>131.7</ele>
        <time>2022-08-07T06:29:15Z</time>
      </trkpt>
      <trkpt lat="44.92323" lon="1.66476">
        <ele>131.7</ele>
        <time>2022-08-07T06:29:17Z</time>
      </trkpt>
      <trkpt lat="44.92317" lon="1.66464">
        <ele>132.3</ele>
        <time>2022-08-07T06:29:19Z</time>
      </trkpt>
      <trkpt lat="44.92312" lon="1.66452">
        <ele>132.7</ele>
        <time>2022-08-07T06:29:21Z</time>
      </trkpt>
      <trkpt lat="44.92305" lon="1.66441">
        <ele>133.2</ele>
        <time>2022-08-07T06:29:23Z</time>
      </trkpt>
      <trkpt lat="44.92298" lon="1.66431">
        <ele>134</ele>
        <time>2022-08-07T06:29:25Z</time>
      </trkpt>
      <trkpt lat="44.92293" lon="1.66421">
        <ele>133.6</ele>
        <time>2022-08-07T06:29:27Z</time>
      </trkpt>
      <trkpt lat="44.92285" lon="1.6641">
        <ele>134.5</ele>
        <time>2022-08-07T06:29:29Z</time>
      </trkpt>
      <trkpt lat="44.92278" lon="1.664">
        <ele>135</ele>
        <time>2022-08-07T06:29:31Z</time>
      </trkpt>
      <trkpt lat="44.92271" lon="1.66389">
        <ele>134.8</ele>
        <time>2022-08-07T06:29:33Z</time>
      </trkpt>
      <trkpt lat="44.92263" lon="1.66381">
        <ele>135</ele>
        <time>2022-08-07T06:29:35Z</time>
      </trkpt>
      <trkpt lat="44.92255" lon="1.66371">
        <ele>134.4</ele>
        <time>2022-08-07T06:29:37Z</time>
      </trkpt>
      <trkpt lat="44.92247" lon="1.66361">
        <ele>133.8</ele>
        <time>2022-08-07T06:29:39Z</time>
      </trkpt>
      <trkpt lat="44.9224" lon="1.66351">
        <ele>133.3</ele>
        <time>2022-08-07T06:29:41Z</time>
      </trkpt>
      <trkpt lat="44.92232" lon="1.66342">
        <ele>133.6</ele>
        <time>2022-08-07T06:29:43Z</time>
      </trkpt>
      <trkpt lat="44.92225" lon="1.66333">
        <ele>134.1</ele>
        <time>2022-08-07T06:29:45Z</time>
      </trkpt>
      <trkpt lat="44.92218" lon="1.66323">
        <ele>135.3</ele>
        <time>2022-08-07T06:29:47Z</time>
      </trkpt>
      <trkpt lat="44.92211" lon="1.66314">
        <ele>136.2</ele>
        <time>2022-08-07T06:29:49Z</time>
      </trkpt>
      <trkpt lat="44.92203" lon="1.66305">
        <ele>137.1</ele>
        <time>2022-08-07T06:29:51Z</time>
      </trkpt>
      <trkpt lat="44.92195" lon="1.66295">
        <ele>137.7</ele>
        <time>2022-08-07T06:29:53Z</time>
      </trkpt>
      <trkpt lat="44.92186" lon="1.66285">
        <ele>137.7</ele>
        <time>2022-08-07T06:29:55Z</time>
      </trkpt>
      <trkpt lat="44.92178" lon="1.66272">
        <ele>136.4</ele>
        <time>2022-08-07T06:29:57Z</time>
      </trkpt>
      <trkpt lat="44.92171" lon="1.6626">
        <ele>134.9</ele>
        <time>2022-08-07T06:29:59Z</time>
      </trkpt>
      <trkpt lat="44.92163" lon="1.66246">
        <ele>133.3</ele>
        <time>2022-08-07T06:30:01Z</time>
      </trkpt>
      <trkpt lat="44.92155" lon="1.66232">
        <ele>132.3</ele>
        <time>2022-08-07T06:30:03Z</time>
      </trkpt>
      <trkpt lat="44.92148" lon="1.66217">
        <ele>130.4</ele>
        <time>2022-08-07T06:30:05Z</time>
      </trkpt>
      <trkpt lat="44.92141" lon="1.66204">
        <ele>128.8</ele>
        <time>2022-08-07T06:30:07Z</time>
      </trkpt>
      <trkpt lat="44.92133" lon="1.66193">
        <ele>127.5</ele>
        <time>2022-08-07T06:30:09Z</time>
      </trkpt>
      <trkpt lat="44.92123" lon="1.66182">
        <ele>126</ele>
        <time>2022-08-07T06:30:11Z</time>
      </trkpt>
      <trkpt lat="44.92114" lon="1.66171">
        <ele>124.6</ele>
        <time>2022-08-07T06:30:13Z</time>
      </trkpt>
      <trkpt lat="44.92103" lon="1.66163">
        <ele>124.4</ele>
        <time>2022-08-07T06:30:15Z</time>
      </trkpt>
      <trkpt lat="44.92092" lon="1.66156">
        <ele>125.1</ele>
        <time>2022-08-07T06:30:17Z</time>
      </trkpt>
      <trkpt lat="44.92081" lon="1.66151">
        <ele>125.6</ele>
        <time>2022-08-07T06:30:19Z</time>
      </trkpt>
      <trkpt lat="44.92071" lon="1.66146">
        <ele>125.2</ele>
        <time>2022-08-07T06:30:21Z</time>
      </trkpt>
      <trkpt lat="44.92061" lon="1.66144">
        <ele>125.3</ele>
        <time>2022-08-07T06:30:23Z</time>
      </trkpt>
      <trkpt lat="44.92053" lon="1.66141">
        <ele>125.3</ele>
        <time>2022-08-07T06:30:25Z</time>
      </trkpt>
      <trkpt lat="44.92045" lon="1.66139">
        <ele>125.3</ele>
        <time>2022-08-07T06:30:27Z</time>
      </trkpt>
      <trkpt lat="44.92037" lon="1.66135">
        <ele>125.3</ele>
        <time>2022-08-07T06:30:29Z</time>
      </trkpt>
      <trkpt lat="44.9203" lon="1.6613">
        <ele>125.1</ele>
        <time>2022-08-07T06:30:31Z</time>
      </trkpt>
      <trkpt lat="44.92025" lon="1.66123">
        <ele>124.9</ele>
        <time>2022-08-07T06:30:33Z</time>
      </trkpt>
      <trkpt lat="44.92019" lon="1.66118">
        <ele>124.8</ele>
        <time>2022-08-07T06:30:35Z</time>
      </trkpt>
      <trkpt lat="44.92011" lon="1.6612">
        <ele>125.4</ele>
        <time>2022-08-07T06:30:37Z</time>
      </trkpt>
      <trkpt lat="44.92006" lon="1.66122">
        <ele>125.9</ele>
        <time>2022-08-07T06:30:39Z</time>
      </trkpt>
      <trkpt lat="44.92002" lon="1.66123">
        <ele>126.2</ele>
        <time>2022-08-07T06:30:41Z</time>
      </trkpt>
      <trkpt lat="44.92003" lon="1.66123">
        <ele>126.2</ele>
        <time>2022-08-07T06:30:43Z</time>
      </trkpt>
      <trkpt lat="44.92003" lon="1.66123">
        <ele>126.2</ele>
        <time>2022-08-07T06:30:45Z</time>
      </trkpt>
      <trkpt lat="44.92003" lon="1.66123">
        <ele>126.2</ele>
        <time>2022-08-07T06:30:49Z</time>
      </trkpt>
      <trkpt lat="44.92014" lon="1.66113">
        <ele>124.8</ele>
        <time>2022-08-07T06:31:05Z</time>
      </trkpt>
      <trkpt lat="44.92014" lon="1.66101">
        <ele>123.9</ele>
        <time>2022-08-07T06:31:07Z</time>
      </trkpt>
      <trkpt lat="44.92011" lon="1.66088">
        <ele>123.2</ele>
        <time>2022-08-07T06:31:09Z</time>
      </trkpt>
      <trkpt lat="44.92008" lon="1.66073">
        <ele>122.9</ele>
        <time>2022-08-07T06:31:11Z</time>
      </trkpt>
      <trkpt lat="44.92004" lon="1.66057">
        <ele>123</ele>
        <time>2022-08-07T06:31:13Z</time>
      </trkpt>
      <trkpt lat="44.92" lon="1.6604">
        <ele>123</ele>
        <time>2022-08-07T06:31:15Z</time>
      </trkpt>
      <trkpt lat="44.91996" lon="1.66024">
        <ele>123.7</ele>
        <time>2022-08-07T06:31:17Z</time>
      </trkpt>
      <trkpt lat="44.91992" lon="1.66008">
        <ele>124.5</ele>
        <time>2022-08-07T06:31:19Z</time>
      </trkpt>
      <trkpt lat="44.91987" lon="1.65995">
        <ele>125.4</ele>
        <time>2022-08-07T06:31:21Z</time>
      </trkpt>
      <trkpt lat="44.91981" lon="1.65983">
        <ele>126.3</ele>
        <time>2022-08-07T06:31:23Z</time>
      </trkpt>
      <trkpt lat="44.91976" lon="1.65972">
        <ele>126.9</ele>
        <time>2022-08-07T06:31:25Z</time>
      </trkpt>
      <trkpt lat="44.91969" lon="1.65964">
        <ele>128</ele>
        <time>2022-08-07T06:31:27Z</time>
      </trkpt>
      <trkpt lat="44.91964" lon="1.65956">
        <ele>128.6</ele>
        <time>2022-08-07T06:31:29Z</time>
      </trkpt>
      <trkpt lat="44.9196" lon="1.65947">
        <ele>128.6</ele>
        <time>2022-08-07T06:31:31Z</time>
      </trkpt>
      <trkpt lat="44.91957" lon="1.65939">
        <ele>128.6</ele>
        <time>2022-08-07T06:31:33Z</time>
      </trkpt>
      <trkpt lat="44.91954" lon="1.65933">
        <ele>128.8</ele>
        <time>2022-08-07T06:31:35Z</time>
      </trkpt>
      <trkpt lat="44.9195" lon="1.65927">
        <ele>129</ele>
        <time>2022-08-07T06:31:37Z</time>
      </trkpt>
      <trkpt lat="44.91946" lon="1.65922">
        <ele>129.2</ele>
        <time>2022-08-07T06:31:39Z</time>
      </trkpt>
      <trkpt lat="44.91944" lon="1.65915">
        <ele>129</ele>
        <time>2022-08-07T06:31:41Z</time>
      </trkpt>
      <trkpt lat="44.91939" lon="1.65909">
        <ele>129.4</ele>
        <time>2022-08-07T06:31:43Z</time>
      </trkpt>
      <trkpt lat="44.91936" lon="1.65902">
        <ele>129.4</ele>
        <time>2022-08-07T06:31:45Z</time>
      </trkpt>
      <trkpt lat="44.91932" lon="1.65894">
        <ele>129.4</ele>
        <time>2022-08-07T06:31:47Z</time>
      </trkpt>
      <trkpt lat="44.91928" lon="1.65886">
        <ele>129.3</ele>
        <time>2022-08-07T06:31:49Z</time>
      </trkpt>
      <trkpt lat="44.91924" lon="1.65879">
        <ele>129.1</ele>
        <time>2022-08-07T06:31:51Z</time>
      </trkpt>
      <trkpt lat="44.91919" lon="1.65872">
        <ele>129.2</ele>
        <time>2022-08-07T06:31:53Z</time>
      </trkpt>
      <trkpt lat="44.91917" lon="1.65865">
        <ele>128.8</ele>
        <time>2022-08-07T06:31:55Z</time>
      </trkpt>
      <trkpt lat="44.91914" lon="1.65858">
        <ele>128.4</ele>
        <time>2022-08-07T06:31:57Z</time>
      </trkpt>
      <trkpt lat="44.91911" lon="1.65853">
        <ele>128.3</ele>
        <time>2022-08-07T06:31:59Z</time>
      </trkpt>
      <trkpt lat="44.91908" lon="1.65846">
        <ele>128</ele>
        <time>2022-08-07T06:32:01Z</time>
      </trkpt>
      <trkpt lat="44.91906" lon="1.6584">
        <ele>127.9</ele>
        <time>2022-08-07T06:32:03Z</time>
      </trkpt>
      <trkpt lat="44.91903" lon="1.65836">
        <ele>127.8</ele>
        <time>2022-08-07T06:32:05Z</time>
      </trkpt>
      <trkpt lat="44.91901" lon="1.65831">
        <ele>127.8</ele>
        <time>2022-08-07T06:32:07Z</time>
      </trkpt>
      <trkpt lat="44.91899" lon="1.65826">
        <ele>128.1</ele>
        <time>2022-08-07T06:32:09Z</time>
      </trkpt>
      <trkpt lat="44.91897" lon="1.65821">
        <ele>128.3</ele>
        <time>2022-08-07T06:32:11Z</time>
      </trkpt>
      <trkpt lat="44.91895" lon="1.65817">
        <ele>128.5</ele>
        <time>2022-08-07T06:32:13Z</time>
      </trkpt>
      <trkpt lat="44.91893" lon="1.65812">
        <ele>128.8</ele>
        <time>2022-08-07T06:32:15Z</time>
      </trkpt>
      <trkpt lat="44.91891" lon="1.65808">
        <ele>129.1</ele>
        <time>2022-08-07T06:32:17Z</time>
      </trkpt>
      <trkpt lat="44.91889" lon="1.65804">
        <ele>129.3</ele>
        <time>2022-08-07T06:32:19Z</time>
      </trkpt>
      <trkpt lat="44.91887" lon="1.65799">
        <ele>129.4</ele>
        <time>2022-08-07T06:32:21Z</time>
      </trkpt>
      <trkpt lat="44.91885" lon="1.65795">
        <ele>129.6</ele>
        <time>2022-08-07T06:32:23Z</time>
      </trkpt>
      <trkpt lat="44.91883" lon="1.65791">
        <ele>129.7</ele>
        <time>2022-08-07T06:32:25Z</time>
      </trkpt>
      <trkpt lat="44.91881" lon="1.65786">
        <ele>129.9</ele>
        <time>2022-08-07T06:32:27Z</time>
      </trkpt>
      <trkpt lat="44.91879" lon="1.65781">
        <ele>130</ele>
        <time>2022-08-07T06:32:29Z</time>
      </trkpt>
      <trkpt lat="44.91878" lon="1.65776">
        <ele>130.2</ele>
        <time>2022-08-07T06:32:31Z</time>
      </trkpt>
      <trkpt lat="44.91875" lon="1.65772">
        <ele>130.4</ele>
        <time>2022-08-07T06:32:33Z</time>
      </trkpt>
      <trkpt lat="44.91873" lon="1.65766">
        <ele>130.5</ele>
        <time>2022-08-07T06:32:35Z</time>
      </trkpt>
      <trkpt lat="44.91871" lon="1.65761">
        <ele>130.6</ele>
        <time>2022-08-07T06:32:37Z</time>
      </trkpt>
      <trkpt lat="44.91869" lon="1.65756">
        <ele>130.8</ele>
        <time>2022-08-07T06:32:39Z</time>
      </trkpt>
      <trkpt lat="44.91866" lon="1.6575">
        <ele>130.9</ele>
        <time>2022-08-07T06:32:41Z</time>
      </trkpt>
      <trkpt lat="44.91864" lon="1.65744">
        <ele>131.2</ele>
        <time>2022-08-07T06:32:43Z</time>
      </trkpt>
      <trkpt lat="44.91862" lon="1.65739">
        <ele>131.5</ele>
        <time>2022-08-07T06:32:45Z</time>
      </trkpt>
      <trkpt lat="44.91859" lon="1.65733">
        <ele>131.8</ele>
        <time>2022-08-07T06:32:47Z</time>
      </trkpt>
      <trkpt lat="44.91856" lon="1.65727">
        <ele>132.1</ele>
        <time>2022-08-07T06:32:49Z</time>
      </trkpt>
      <trkpt lat="44.91854" lon="1.65722">
        <ele>132.3</ele>
        <time>2022-08-07T06:32:51Z</time>
      </trkpt>
      <trkpt lat="44.91851" lon="1.65718">
        <ele>132.5</ele>
        <time>2022-08-07T06:32:53Z</time>
      </trkpt>
      <trkpt lat="44.91849" lon="1.65713">
        <ele>132.6</ele>
        <time>2022-08-07T06:32:55Z</time>
      </trkpt>
      <trkpt lat="44.91846" lon="1.65708">
        <ele>132.7</ele>
        <time>2022-08-07T06:32:57Z</time>
      </trkpt>
      <trkpt lat="44.91844" lon="1.65704">
        <ele>132.9</ele>
        <time>2022-08-07T06:32:59Z</time>
      </trkpt>
      <trkpt lat="44.9184" lon="1.65699">
        <ele>133</ele>
        <time>2022-08-07T06:33:01Z</time>
      </trkpt>
      <trkpt lat="44.91835" lon="1.65696">
        <ele>133.2</ele>
        <time>2022-08-07T06:33:03Z</time>
      </trkpt>
      <trkpt lat="44.91832" lon="1.6569">
        <ele>133.3</ele>
        <time>2022-08-07T06:33:05Z</time>
      </trkpt>
      <trkpt lat="44.91828" lon="1.65685">
        <ele>133.3</ele>
        <time>2022-08-07T06:33:07Z</time>
      </trkpt>
      <trkpt lat="44.91825" lon="1.65679">
        <ele>133.3</ele>
        <time>2022-08-07T06:33:09Z</time>
      </trkpt>
      <trkpt lat="44.91821" lon="1.65675">
        <ele>133.4</ele>
        <time>2022-08-07T06:33:11Z</time>
      </trkpt>
      <trkpt lat="44.91817" lon="1.6567">
        <ele>133.4</ele>
        <time>2022-08-07T06:33:13Z</time>
      </trkpt>
      <trkpt lat="44.91813" lon="1.65666">
        <ele>133.4</ele>
        <time>2022-08-07T06:33:15Z</time>
      </trkpt>
      <trkpt lat="44.91809" lon="1.65661">
        <ele>133.6</ele>
        <time>2022-08-07T06:33:17Z</time>
      </trkpt>
      <trkpt lat="44.91806" lon="1.65657">
        <ele>133.8</ele>
        <time>2022-08-07T06:33:19Z</time>
      </trkpt>
      <trkpt lat="44.91802" lon="1.65652">
        <ele>133.9</ele>
        <time>2022-08-07T06:33:21Z</time>
      </trkpt>
      <trkpt lat="44.91798" lon="1.65648">
        <ele>134</ele>
        <time>2022-08-07T06:33:23Z</time>
      </trkpt>
      <trkpt lat="44.91794" lon="1.65643">
        <ele>134</ele>
        <time>2022-08-07T06:33:25Z</time>
      </trkpt>
      <trkpt lat="44.9179" lon="1.65639">
        <ele>134.1</ele>
        <time>2022-08-07T06:33:27Z</time>
      </trkpt>
      <trkpt lat="44.91786" lon="1.65635">
        <ele>134.1</ele>
        <time>2022-08-07T06:33:29Z</time>
      </trkpt>
      <trkpt lat="44.91783" lon="1.6563">
        <ele>134.1</ele>
        <time>2022-08-07T06:33:31Z</time>
      </trkpt>
      <trkpt lat="44.91779" lon="1.65626">
        <ele>134</ele>
        <time>2022-08-07T06:33:33Z</time>
      </trkpt>
      <trkpt lat="44.91775" lon="1.65622">
        <ele>133.9</ele>
        <time>2022-08-07T06:33:35Z</time>
      </trkpt>
      <trkpt lat="44.91772" lon="1.65618">
        <ele>133.9</ele>
        <time>2022-08-07T06:33:37Z</time>
      </trkpt>
      <trkpt lat="44.91768" lon="1.65615">
        <ele>133.8</ele>
        <time>2022-08-07T06:33:39Z</time>
      </trkpt>
      <trkpt lat="44.91764" lon="1.65611">
        <ele>133.6</ele>
        <time>2022-08-07T06:33:41Z</time>
      </trkpt>
      <trkpt lat="44.9176" lon="1.65606">
        <ele>133.4</ele>
        <time>2022-08-07T06:33:43Z</time>
      </trkpt>
      <trkpt lat="44.91755" lon="1.65601">
        <ele>133.2</ele>
        <time>2022-08-07T06:33:45Z</time>
      </trkpt>
      <trkpt lat="44.91751" lon="1.65596">
        <ele>132.9</ele>
        <time>2022-08-07T06:33:47Z</time>
      </trkpt>
      <trkpt lat="44.91747" lon="1.65592">
        <ele>132.8</ele>
        <time>2022-08-07T06:33:49Z</time>
      </trkpt>
      <trkpt lat="44.91743" lon="1.65587">
        <ele>132.8</ele>
        <time>2022-08-07T06:33:51Z</time>
      </trkpt>
      <trkpt lat="44.91739" lon="1.65583">
        <ele>132.8</ele>
        <time>2022-08-07T06:33:53Z</time>
      </trkpt>
      <trkpt lat="44.91735" lon="1.65578">
        <ele>132.9</ele>
        <time>2022-08-07T06:33:55Z</time>
      </trkpt>
      <trkpt lat="44.91731" lon="1.65573">
        <ele>133</ele>
        <time>2022-08-07T06:33:57Z</time>
      </trkpt>
      <trkpt lat="44.91728" lon="1.65569">
        <ele>133.2</ele>
        <time>2022-08-07T06:33:59Z</time>
      </trkpt>
      <trkpt lat="44.91724" lon="1.65565">
        <ele>133.3</ele>
        <time>2022-08-07T06:34:01Z</time>
      </trkpt>
      <trkpt lat="44.9172" lon="1.65562">
        <ele>133.4</ele>
        <time>2022-08-07T06:34:03Z</time>
      </trkpt>
      <trkpt lat="44.91716" lon="1.65557">
        <ele>133.6</ele>
        <time>2022-08-07T06:34:05Z</time>
      </trkpt>
      <trkpt lat="44.91712" lon="1.65555">
        <ele>133.8</ele>
        <time>2022-08-07T06:34:07Z</time>
      </trkpt>
      <trkpt lat="44.91708" lon="1.65553">
        <ele>134.1</ele>
        <time>2022-08-07T06:34:09Z</time>
      </trkpt>
      <trkpt lat="44.91703" lon="1.65551">
        <ele>134.4</ele>
        <time>2022-08-07T06:34:11Z</time>
      </trkpt>
      <trkpt lat="44.91699" lon="1.65549">
        <ele>134.7</ele>
        <time>2022-08-07T06:34:13Z</time>
      </trkpt>
      <trkpt lat="44.91695" lon="1.65548">
        <ele>135</ele>
        <time>2022-08-07T06:34:15Z</time>
      </trkpt>
      <trkpt lat="44.9169" lon="1.65547">
        <ele>135.3</ele>
        <time>2022-08-07T06:34:17Z</time>
      </trkpt>
      <trkpt lat="44.91686" lon="1.65547">
        <ele>135.6</ele>
        <time>2022-08-07T06:34:19Z</time>
      </trkpt>
      <trkpt lat="44.91683" lon="1.65545">
        <ele>135.8</ele>
        <time>2022-08-07T06:34:21Z</time>
      </trkpt>
      <trkpt lat="44.91679" lon="1.65544">
        <ele>136.1</ele>
        <time>2022-08-07T06:34:23Z</time>
      </trkpt>
      <trkpt lat="44.91674" lon="1.65544">
        <ele>136.4</ele>
        <time>2022-08-07T06:34:25Z</time>
      </trkpt>
      <trkpt lat="44.9167" lon="1.65542">
        <ele>136.7</ele>
        <time>2022-08-07T06:34:27Z</time>
      </trkpt>
      <trkpt lat="44.91667" lon="1.6554">
        <ele>137</ele>
        <time>2022-08-07T06:34:29Z</time>
      </trkpt>
      <trkpt lat="44.91662" lon="1.65538">
        <ele>137</ele>
        <time>2022-08-07T06:34:31Z</time>
      </trkpt>
      <trkpt lat="44.91657" lon="1.65536">
        <ele>137</ele>
        <time>2022-08-07T06:34:33Z</time>
      </trkpt>
      <trkpt lat="44.91652" lon="1.65532">
        <ele>137.1</ele>
        <time>2022-08-07T06:34:35Z</time>
      </trkpt>
      <trkpt lat="44.91647" lon="1.65529">
        <ele>137.1</ele>
        <time>2022-08-07T06:34:37Z</time>
      </trkpt>
      <trkpt lat="44.91641" lon="1.65526">
        <ele>137.2</ele>
        <time>2022-08-07T06:34:39Z</time>
      </trkpt>
      <trkpt lat="44.91634" lon="1.65524">
        <ele>137.3</ele>
        <time>2022-08-07T06:34:41Z</time>
      </trkpt>
      <trkpt lat="44.91627" lon="1.65522">
        <ele>137.4</ele>
        <time>2022-08-07T06:34:43Z</time>
      </trkpt>
      <trkpt lat="44.91622" lon="1.65519">
        <ele>137.4</ele>
        <time>2022-08-07T06:34:45Z</time>
      </trkpt>
      <trkpt lat="44.91616" lon="1.65515">
        <ele>137.5</ele>
        <time>2022-08-07T06:34:47Z</time>
      </trkpt>
      <trkpt lat="44.91611" lon="1.65513">
        <ele>137.5</ele>
        <time>2022-08-07T06:34:49Z</time>
      </trkpt>
      <trkpt lat="44.91606" lon="1.6551">
        <ele>137.6</ele>
        <time>2022-08-07T06:34:51Z</time>
      </trkpt>
      <trkpt lat="44.91599" lon="1.65507">
        <ele>137.7</ele>
        <time>2022-08-07T06:34:53Z</time>
      </trkpt>
      <trkpt lat="44.91594" lon="1.65504">
        <ele>137.8</ele>
        <time>2022-08-07T06:34:55Z</time>
      </trkpt>
      <trkpt lat="44.91588" lon="1.65501">
        <ele>137.9</ele>
        <time>2022-08-07T06:34:57Z</time>
      </trkpt>
      <trkpt lat="44.91582" lon="1.65497">
        <ele>138</ele>
        <time>2022-08-07T06:34:59Z</time>
      </trkpt>
      <trkpt lat="44.91575" lon="1.65493">
        <ele>138.2</ele>
        <time>2022-08-07T06:35:01Z</time>
      </trkpt>
      <trkpt lat="44.91568" lon="1.65491">
        <ele>138.4</ele>
        <time>2022-08-07T06:35:03Z</time>
      </trkpt>
      <trkpt lat="44.91562" lon="1.65488">
        <ele>138.6</ele>
        <time>2022-08-07T06:35:05Z</time>
      </trkpt>
      <trkpt lat="44.91556" lon="1.65485">
        <ele>138.8</ele>
        <time>2022-08-07T06:35:07Z</time>
      </trkpt>
      <trkpt lat="44.9155" lon="1.65483">
        <ele>139.1</ele>
        <time>2022-08-07T06:35:09Z</time>
      </trkpt>
      <trkpt lat="44.91545" lon="1.65479">
        <ele>139.2</ele>
        <time>2022-08-07T06:35:11Z</time>
      </trkpt>
      <trkpt lat="44.9154" lon="1.65477">
        <ele>139.4</ele>
        <time>2022-08-07T06:35:13Z</time>
      </trkpt>
      <trkpt lat="44.91535" lon="1.65476">
        <ele>139.6</ele>
        <time>2022-08-07T06:35:15Z</time>
      </trkpt>
      <trkpt lat="44.9153" lon="1.65478">
        <ele>139.9</ele>
        <time>2022-08-07T06:35:17Z</time>
      </trkpt>
      <trkpt lat="44.91527" lon="1.65481">
        <ele>140.2</ele>
        <time>2022-08-07T06:35:19Z</time>
      </trkpt>
      <trkpt lat="44.91524" lon="1.65484">
        <ele>140.4</ele>
        <time>2022-08-07T06:35:21Z</time>
      </trkpt>
      <trkpt lat="44.91523" lon="1.65487">
        <ele>140.6</ele>
        <time>2022-08-07T06:35:23Z</time>
      </trkpt>
      <trkpt lat="44.91525" lon="1.6549">
        <ele>140.5</ele>
        <time>2022-08-07T06:35:25Z</time>
      </trkpt>
      <trkpt lat="44.91528" lon="1.6549">
        <ele>140.3</ele>
        <time>2022-08-07T06:35:27Z</time>
      </trkpt>
      <trkpt lat="44.91532" lon="1.65487">
        <ele>140.1</ele>
        <time>2022-08-07T06:35:29Z</time>
      </trkpt>
      <trkpt lat="44.91533" lon="1.65481">
        <ele>139.9</ele>
        <time>2022-08-07T06:35:31Z</time>
      </trkpt>
      <trkpt lat="44.91536" lon="1.65477">
        <ele>139.6</ele>
        <time>2022-08-07T06:35:33Z</time>
      </trkpt>
      <trkpt lat="44.91541" lon="1.65473">
        <ele>139.2</ele>
        <time>2022-08-07T06:35:35Z</time>
      </trkpt>
      <trkpt lat="44.91543" lon="1.65469">
        <ele>139</ele>
        <time>2022-08-07T06:35:37Z</time>
      </trkpt>
      <trkpt lat="44.91546" lon="1.6547">
        <ele>138.9</ele>
        <time>2022-08-07T06:35:39Z</time>
      </trkpt>
      <trkpt lat="44.91548" lon="1.6547">
        <ele>138.7</ele>
        <time>2022-08-07T06:35:41Z</time>
      </trkpt>
      <trkpt lat="44.91549" lon="1.65469">
        <ele>138.7</ele>
        <time>2022-08-07T06:35:43Z</time>
      </trkpt>
      <trkpt lat="44.91549" lon="1.65469">
        <ele>138.7</ele>
        <time>2022-08-07T06:35:45Z</time>
      </trkpt>
      <trkpt lat="44.91549" lon="1.65469">
        <ele>138.7</ele>
        <time>2022-08-07T06:35:47Z</time>
      </trkpt>
      <trkpt lat="44.91511" lon="1.65498">
        <ele>141.4</ele>
        <time>2022-08-07T06:55:53Z</time>
      </trkpt>
      <trkpt lat="44.91506" lon="1.65499">
        <ele>141.7</ele>
        <time>2022-08-07T06:55:55Z</time>
      </trkpt>
      <trkpt lat="44.91497" lon="1.65494">
        <ele>141.7</ele>
        <time>2022-08-07T06:55:57Z</time>
      </trkpt>
      <trkpt lat="44.91494" lon="1.65496">
        <ele>141.6</ele>
        <time>2022-08-07T06:55:59Z</time>
      </trkpt>
      <trkpt lat="44.91488" lon="1.65491">
        <ele>141.2</ele>
        <time>2022-08-07T06:56:01Z</time>
      </trkpt>
      <trkpt lat="44.91485" lon="1.65487">
        <ele>141</ele>
        <time>2022-08-07T06:56:03Z</time>
      </trkpt>
      <trkpt lat="44.91481" lon="1.65485">
        <ele>140.8</ele>
        <time>2022-08-07T06:56:05Z</time>
      </trkpt>
      <trkpt lat="44.91478" lon="1.65481">
        <ele>140.6</ele>
        <time>2022-08-07T06:56:07Z</time>
      </trkpt>
      <trkpt lat="44.91474" lon="1.65475">
        <ele>140.4</ele>
        <time>2022-08-07T06:56:09Z</time>
      </trkpt>
      <trkpt lat="44.91471" lon="1.6547">
        <ele>140.1</ele>
        <time>2022-08-07T06:56:11Z</time>
      </trkpt>
      <trkpt lat="44.91468" lon="1.65465">
        <ele>139.9</ele>
        <time>2022-08-07T06:56:13Z</time>
      </trkpt>
      <trkpt lat="44.91465" lon="1.65458">
        <ele>139.8</ele>
        <time>2022-08-07T06:56:15Z</time>
      </trkpt>
      <trkpt lat="44.91463" lon="1.65453">
        <ele>139.6</ele>
        <time>2022-08-07T06:56:17Z</time>
      </trkpt>
      <trkpt lat="44.91459" lon="1.65448">
        <ele>139.4</ele>
        <time>2022-08-07T06:56:19Z</time>
      </trkpt>
      <trkpt lat="44.91453" lon="1.65446">
        <ele>139.2</ele>
        <time>2022-08-07T06:56:21Z</time>
      </trkpt>
      <trkpt lat="44.91447" lon="1.65442">
        <ele>139</ele>
        <time>2022-08-07T06:56:23Z</time>
      </trkpt>
      <trkpt lat="44.91441" lon="1.65438">
        <ele>138.7</ele>
        <time>2022-08-07T06:56:25Z</time>
      </trkpt>
      <trkpt lat="44.91436" lon="1.65435">
        <ele>138.6</ele>
        <time>2022-08-07T06:56:27Z</time>
      </trkpt>
      <trkpt lat="44.91431" lon="1.65433">
        <ele>138.4</ele>
        <time>2022-08-07T06:56:29Z</time>
      </trkpt>
      <trkpt lat="44.91428" lon="1.65428">
        <ele>138.3</ele>
        <time>2022-08-07T06:56:31Z</time>
      </trkpt>
      <trkpt lat="44.91424" lon="1.65425">
        <ele>138.2</ele>
        <time>2022-08-07T06:56:33Z</time>
      </trkpt>
      <trkpt lat="44.9142" lon="1.65422">
        <ele>138.1</ele>
        <time>2022-08-07T06:56:35Z</time>
      </trkpt>
      <trkpt lat="44.91416" lon="1.65418">
        <ele>138</ele>
        <time>2022-08-07T06:56:37Z</time>
      </trkpt>
      <trkpt lat="44.91412" lon="1.65414">
        <ele>137.8</ele>
        <time>2022-08-07T06:56:39Z</time>
      </trkpt>
      <trkpt lat="44.91408" lon="1.65411">
        <ele>137.6</ele>
        <time>2022-08-07T06:56:41Z</time>
      </trkpt>
      <trkpt lat="44.91403" lon="1.65408">
        <ele>137.4</ele>
        <time>2022-08-07T06:56:43Z</time>
      </trkpt>
      <trkpt lat="44.91399" lon="1.65406">
        <ele>137.2</ele>
        <time>2022-08-07T06:56:45Z</time>
      </trkpt>
      <trkpt lat="44.91395" lon="1.65403">
        <ele>137</ele>
        <time>2022-08-07T06:56:47Z</time>
      </trkpt>
      <trkpt lat="44.91391" lon="1.65401">
        <ele>136.8</ele>
        <time>2022-08-07T06:56:49Z</time>
      </trkpt>
      <trkpt lat="44.91386" lon="1.65397">
        <ele>136.6</ele>
        <time>2022-08-07T06:56:51Z</time>
      </trkpt>
      <trkpt lat="44.91383" lon="1.65394">
        <ele>136.4</ele>
        <time>2022-08-07T06:56:53Z</time>
      </trkpt>
      <trkpt lat="44.91379" lon="1.65391">
        <ele>136.2</ele>
        <time>2022-08-07T06:56:55Z</time>
      </trkpt>
      <trkpt lat="44.91375" lon="1.65389">
        <ele>136</ele>
        <time>2022-08-07T06:56:57Z</time>
      </trkpt>
      <trkpt lat="44.91372" lon="1.65387">
        <ele>135.8</ele>
        <time>2022-08-07T06:56:59Z</time>
      </trkpt>
      <trkpt lat="44.91367" lon="1.65385">
        <ele>135.7</ele>
        <time>2022-08-07T06:57:01Z</time>
      </trkpt>
      <trkpt lat="44.91363" lon="1.65382">
        <ele>135.5</ele>
        <time>2022-08-07T06:57:03Z</time>
      </trkpt>
      <trkpt lat="44.91359" lon="1.65379">
        <ele>135.3</ele>
        <time>2022-08-07T06:57:05Z</time>
      </trkpt>
      <trkpt lat="44.91355" lon="1.65376">
        <ele>135.1</ele>
        <time>2022-08-07T06:57:07Z</time>
      </trkpt>
      <trkpt lat="44.91349" lon="1.65373">
        <ele>134.8</ele>
        <time>2022-08-07T06:57:09Z</time>
      </trkpt>
      <trkpt lat="44.91345" lon="1.6537">
        <ele>134.6</ele>
        <time>2022-08-07T06:57:11Z</time>
      </trkpt>
      <trkpt lat="44.91339" lon="1.65366">
        <ele>134.3</ele>
        <time>2022-08-07T06:57:13Z</time>
      </trkpt>
      <trkpt lat="44.91334" lon="1.65362">
        <ele>134.1</ele>
        <time>2022-08-07T06:57:15Z</time>
      </trkpt>
      <trkpt lat="44.9133" lon="1.65359">
        <ele>133.7</ele>
        <time>2022-08-07T06:57:17Z</time>
      </trkpt>
      <trkpt lat="44.91326" lon="1.65355">
        <ele>133.4</ele>
        <time>2022-08-07T06:57:19Z</time>
      </trkpt>
      <trkpt lat="44.9132" lon="1.65352">
        <ele>133</ele>
        <time>2022-08-07T06:57:21Z</time>
      </trkpt>
      <trkpt lat="44.91315" lon="1.65345">
        <ele>132.5</ele>
        <time>2022-08-07T06:57:23Z</time>
      </trkpt>
      <trkpt lat="44.9131" lon="1.6534">
        <ele>132.1</ele>
        <time>2022-08-07T06:57:25Z</time>
      </trkpt>
      <trkpt lat="44.91305" lon="1.65334">
        <ele>131.7</ele>
        <time>2022-08-07T06:57:27Z</time>
      </trkpt>
      <trkpt lat="44.91301" lon="1.65329">
        <ele>131.2</ele>
        <time>2022-08-07T06:57:29Z</time>
      </trkpt>
      <trkpt lat="44.91296" lon="1.65324">
        <ele>130.6</ele>
        <time>2022-08-07T06:57:31Z</time>
      </trkpt>
      <trkpt lat="44.91287" lon="1.65316">
        <ele>129.6</ele>
        <time>2022-08-07T06:57:33Z</time>
      </trkpt>
      <trkpt lat="44.91275" lon="1.65303">
        <ele>128.3</ele>
        <time>2022-08-07T06:57:35Z</time>
      </trkpt>
      <trkpt lat="44.91263" lon="1.6529">
        <ele>126.9</ele>
        <time>2022-08-07T06:57:37Z</time>
      </trkpt>
      <trkpt lat="44.91249" lon="1.65276">
        <ele>125.5</ele>
        <time>2022-08-07T06:57:39Z</time>
      </trkpt>
      <trkpt lat="44.91235" lon="1.65261">
        <ele>124.4</ele>
        <time>2022-08-07T06:57:41Z</time>
      </trkpt>
      <trkpt lat="44.91221" lon="1.65246">
        <ele>123.5</ele>
        <time>2022-08-07T06:57:43Z</time>
      </trkpt>
      <trkpt lat="44.91207" lon="1.65232">
        <ele>122.7</ele>
        <time>2022-08-07T06:57:45Z</time>
      </trkpt>
      <trkpt lat="44.91194" lon="1.65217">
        <ele>122</ele>
        <time>2022-08-07T06:57:47Z</time>
      </trkpt>
      <trkpt lat="44.9118" lon="1.65202">
        <ele>121.3</ele>
        <time>2022-08-07T06:57:49Z</time>
      </trkpt>
      <trkpt lat="44.91166" lon="1.65188">
        <ele>120.8</ele>
        <time>2022-08-07T06:57:51Z</time>
      </trkpt>
      <trkpt lat="44.91153" lon="1.65174">
        <ele>119.6</ele>
        <time>2022-08-07T06:57:53Z</time>
      </trkpt>
      <trkpt lat="44.91141" lon="1.65161">
        <ele>118.6</ele>
        <time>2022-08-07T06:57:55Z</time>
      </trkpt>
      <trkpt lat="44.91129" lon="1.65148">
        <ele>117.6</ele>
        <time>2022-08-07T06:57:57Z</time>
      </trkpt>
      <trkpt lat="44.91118" lon="1.65137">
        <ele>116.8</ele>
        <time>2022-08-07T06:57:59Z</time>
      </trkpt>
      <trkpt lat="44.91106" lon="1.65126">
        <ele>116</ele>
        <time>2022-08-07T06:58:01Z</time>
      </trkpt>
      <trkpt lat="44.91093" lon="1.65115">
        <ele>115.2</ele>
        <time>2022-08-07T06:58:03Z</time>
      </trkpt>
      <trkpt lat="44.9108" lon="1.65104">
        <ele>114.5</ele>
        <time>2022-08-07T06:58:05Z</time>
      </trkpt>
      <trkpt lat="44.91068" lon="1.65091">
        <ele>114.3</ele>
        <time>2022-08-07T06:58:07Z</time>
      </trkpt>
      <trkpt lat="44.91055" lon="1.6508">
        <ele>114.3</ele>
        <time>2022-08-07T06:58:09Z</time>
      </trkpt>
      <trkpt lat="44.91042" lon="1.65068">
        <ele>114.4</ele>
        <time>2022-08-07T06:58:11Z</time>
      </trkpt>
      <trkpt lat="44.9103" lon="1.65057">
        <ele>114.5</ele>
        <time>2022-08-07T06:58:13Z</time>
      </trkpt>
      <trkpt lat="44.91019" lon="1.65047">
        <ele>114.7</ele>
        <time>2022-08-07T06:58:15Z</time>
      </trkpt>
      <trkpt lat="44.91008" lon="1.65038">
        <ele>114.9</ele>
        <time>2022-08-07T06:58:17Z</time>
      </trkpt>
      <trkpt lat="44.90998" lon="1.6503">
        <ele>115</ele>
        <time>2022-08-07T06:58:19Z</time>
      </trkpt>
      <trkpt lat="44.90988" lon="1.65022">
        <ele>115</ele>
        <time>2022-08-07T06:58:21Z</time>
      </trkpt>
      <trkpt lat="44.90979" lon="1.65014">
        <ele>115</ele>
        <time>2022-08-07T06:58:23Z</time>
      </trkpt>
      <trkpt lat="44.90971" lon="1.65007">
        <ele>115</ele>
        <time>2022-08-07T06:58:25Z</time>
      </trkpt>
      <trkpt lat="44.90963" lon="1.65">
        <ele>115</ele>
        <time>2022-08-07T06:58:27Z</time>
      </trkpt>
      <trkpt lat="44.90956" lon="1.64993">
        <ele>114.8</ele>
        <time>2022-08-07T06:58:29Z</time>
      </trkpt>
      <trkpt lat="44.90949" lon="1.64987">
        <ele>114.7</ele>
        <time>2022-08-07T06:58:31Z</time>
      </trkpt>
      <trkpt lat="44.90943" lon="1.6498">
        <ele>114.5</ele>
        <time>2022-08-07T06:58:33Z</time>
      </trkpt>
      <trkpt lat="44.90936" lon="1.64974">
        <ele>114.4</ele>
        <time>2022-08-07T06:58:35Z</time>
      </trkpt>
      <trkpt lat="44.90929" lon="1.64969">
        <ele>114.3</ele>
        <time>2022-08-07T06:58:37Z</time>
      </trkpt>
      <trkpt lat="44.90923" lon="1.64963">
        <ele>114.1</ele>
        <time>2022-08-07T06:58:39Z</time>
      </trkpt>
      <trkpt lat="44.90916" lon="1.64957">
        <ele>114</ele>
        <time>2022-08-07T06:58:41Z</time>
      </trkpt>
      <trkpt lat="44.90909" lon="1.64951">
        <ele>113.7</ele>
        <time>2022-08-07T06:58:43Z</time>
      </trkpt>
      <trkpt lat="44.90903" lon="1.64944">
        <ele>113.4</ele>
        <time>2022-08-07T06:58:45Z</time>
      </trkpt>
      <trkpt lat="44.90896" lon="1.64937">
        <ele>113.2</ele>
        <time>2022-08-07T06:58:47Z</time>
      </trkpt>
      <trkpt lat="44.90888" lon="1.6493">
        <ele>112.9</ele>
        <time>2022-08-07T06:58:49Z</time>
      </trkpt>
      <trkpt lat="44.90881" lon="1.64921">
        <ele>112.7</ele>
        <time>2022-08-07T06:58:51Z</time>
      </trkpt>
      <trkpt lat="44.90874" lon="1.64914">
        <ele>112.5</ele>
        <time>2022-08-07T06:58:53Z</time>
      </trkpt>
      <trkpt lat="44.90867" lon="1.64906">
        <ele>112.3</ele>
        <time>2022-08-07T06:58:55Z</time>
      </trkpt>
      <trkpt lat="44.9086" lon="1.64898">
        <ele>112.1</ele>
        <time>2022-08-07T06:58:57Z</time>
      </trkpt>
      <trkpt lat="44.90853" lon="1.6489">
        <ele>111.9</ele>
        <time>2022-08-07T06:58:59Z</time>
      </trkpt>
      <trkpt lat="44.90846" lon="1.64882">
        <ele>111.7</ele>
        <time>2022-08-07T06:59:01Z</time>
      </trkpt>
      <trkpt lat="44.9084" lon="1.64873">
        <ele>111.6</ele>
        <time>2022-08-07T06:59:03Z</time>
      </trkpt>
      <trkpt lat="44.90833" lon="1.64864">
        <ele>111.4</ele>
        <time>2022-08-07T06:59:05Z</time>
      </trkpt>
      <trkpt lat="44.90828" lon="1.64854">
        <ele>111.3</ele>
        <time>2022-08-07T06:59:07Z</time>
      </trkpt>
      <trkpt lat="44.90823" lon="1.64844">
        <ele>111.2</ele>
        <time>2022-08-07T06:59:09Z</time>
      </trkpt>
      <trkpt lat="44.90818" lon="1.64834">
        <ele>111.2</ele>
        <time>2022-08-07T06:59:11Z</time>
      </trkpt>
      <trkpt lat="44.90813" lon="1.64825">
        <ele>111.1</ele>
        <time>2022-08-07T06:59:13Z</time>
      </trkpt>
      <trkpt lat="44.90807" lon="1.64815">
        <ele>111.1</ele>
        <time>2022-08-07T06:59:15Z</time>
      </trkpt>
      <trkpt lat="44.90802" lon="1.64806">
        <ele>111.1</ele>
        <time>2022-08-07T06:59:17Z</time>
      </trkpt>
      <trkpt lat="44.90795" lon="1.64797">
        <ele>111</ele>
        <time>2022-08-07T06:59:19Z</time>
      </trkpt>
      <trkpt lat="44.90789" lon="1.64789">
        <ele>111</ele>
        <time>2022-08-07T06:59:21Z</time>
      </trkpt>
      <trkpt lat="44.90783" lon="1.64781">
        <ele>111</ele>
        <time>2022-08-07T06:59:23Z</time>
      </trkpt>
      <trkpt lat="44.90776" lon="1.64773">
        <ele>111</ele>
        <time>2022-08-07T06:59:25Z</time>
      </trkpt>
      <trkpt lat="44.90768" lon="1.64767">
        <ele>111</ele>
        <time>2022-08-07T06:59:27Z</time>
      </trkpt>
      <trkpt lat="44.90762" lon="1.64761">
        <ele>111</ele>
        <time>2022-08-07T06:59:29Z</time>
      </trkpt>
      <trkpt lat="44.90759" lon="1.64756">
        <ele>111</ele>
        <time>2022-08-07T06:59:31Z</time>
      </trkpt>
      <trkpt lat="44.90758" lon="1.64756">
        <ele>111</ele>
        <time>2022-08-07T06:59:33Z</time>
      </trkpt>
      <trkpt lat="44.90758" lon="1.64756">
        <ele>111</ele>
        <time>2022-08-07T06:59:35Z</time>
      </trkpt>
      <trkpt lat="44.90759" lon="1.64756">
        <ele>111</ele>
        <time>2022-08-07T06:59:37Z</time>
      </trkpt>
      <trkpt lat="44.90759" lon="1.64756">
        <ele>111</ele>
        <time>2022-08-07T06:59:39Z</time>
      </trkpt>
      <trkpt lat="44.90758" lon="1.64755">
        <ele>111</ele>
        <time>2022-08-07T06:59:41Z</time>
      </trkpt>
      <trkpt lat="44.90745" lon="1.6475">
        <ele>111.1</ele>
        <time>2022-08-07T07:00:57Z</time>
      </trkpt>
      <trkpt lat="44.9074" lon="1.64745">
        <ele>111.2</ele>
        <time>2022-08-07T07:00:59Z</time>
      </trkpt>
      <trkpt lat="44.90733" lon="1.64741">
        <ele>111.3</ele>
        <time>2022-08-07T07:01:01Z</time>
      </trkpt>
      <trkpt lat="44.90727" lon="1.64737">
        <ele>111.4</ele>
        <time>2022-08-07T07:01:03Z</time>
      </trkpt>
      <trkpt lat="44.90721" lon="1.64732">
        <ele>111.6</ele>
        <time>2022-08-07T07:01:05Z</time>
      </trkpt>
      <trkpt lat="44.90715" lon="1.64728">
        <ele>111.7</ele>
        <time>2022-08-07T07:01:07Z</time>
      </trkpt>
      <trkpt lat="44.90708" lon="1.64724">
        <ele>111.8</ele>
        <time>2022-08-07T07:01:09Z</time>
      </trkpt>
      <trkpt lat="44.90702" lon="1.6472">
        <ele>111.9</ele>
        <time>2022-08-07T07:01:11Z</time>
      </trkpt>
      <trkpt lat="44.90695" lon="1.64715">
        <ele>112.1</ele>
        <time>2022-08-07T07:01:13Z</time>
      </trkpt>
      <trkpt lat="44.90688" lon="1.64711">
        <ele>112.2</ele>
        <time>2022-08-07T07:01:15Z</time>
      </trkpt>
      <trkpt lat="44.90681" lon="1.64708">
        <ele>112.3</ele>
        <time>2022-08-07T07:01:17Z</time>
      </trkpt>
      <trkpt lat="44.90675" lon="1.64703">
        <ele>112.5</ele>
        <time>2022-08-07T07:01:19Z</time>
      </trkpt>
      <trkpt lat="44.90668" lon="1.64699">
        <ele>112.6</ele>
        <time>2022-08-07T07:01:21Z</time>
      </trkpt>
      <trkpt lat="44.90661" lon="1.64695">
        <ele>112.7</ele>
        <time>2022-08-07T07:01:23Z</time>
      </trkpt>
      <trkpt lat="44.90655" lon="1.6469">
        <ele>112.8</ele>
        <time>2022-08-07T07:01:25Z</time>
      </trkpt>
      <trkpt lat="44.90648" lon="1.64686">
        <ele>112.8</ele>
        <time>2022-08-07T07:01:27Z</time>
      </trkpt>
      <trkpt lat="44.90641" lon="1.64682">
        <ele>112.9</ele>
        <time>2022-08-07T07:01:29Z</time>
      </trkpt>
      <trkpt lat="44.90634" lon="1.64677">
        <ele>112.9</ele>
        <time>2022-08-07T07:01:31Z</time>
      </trkpt>
      <trkpt lat="44.90627" lon="1.64673">
        <ele>113</ele>
        <time>2022-08-07T07:01:33Z</time>
      </trkpt>
      <trkpt lat="44.9062" lon="1.64669">
        <ele>113</ele>
        <time>2022-08-07T07:01:35Z</time>
      </trkpt>
      <trkpt lat="44.90613" lon="1.64664">
        <ele>113</ele>
        <time>2022-08-07T07:01:37Z</time>
      </trkpt>
      <trkpt lat="44.90606" lon="1.6466">
        <ele>112.9</ele>
        <time>2022-08-07T07:01:39Z</time>
      </trkpt>
      <trkpt lat="44.90598" lon="1.64655">
        <ele>112.8</ele>
        <time>2022-08-07T07:01:41Z</time>
      </trkpt>
      <trkpt lat="44.90591" lon="1.64651">
        <ele>112.6</ele>
        <time>2022-08-07T07:01:43Z</time>
      </trkpt>
      <trkpt lat="44.90584" lon="1.64646">
        <ele>112.5</ele>
        <time>2022-08-07T07:01:45Z</time>
      </trkpt>
      <trkpt lat="44.90576" lon="1.64641">
        <ele>112.4</ele>
        <time>2022-08-07T07:01:47Z</time>
      </trkpt>
      <trkpt lat="44.90568" lon="1.64636">
        <ele>112.4</ele>
        <time>2022-08-07T07:01:49Z</time>
      </trkpt>
      <trkpt lat="44.90561" lon="1.6463">
        <ele>112.3</ele>
        <time>2022-08-07T07:01:51Z</time>
      </trkpt>
      <trkpt lat="44.90553" lon="1.64626">
        <ele>112.2</ele>
        <time>2022-08-07T07:01:53Z</time>
      </trkpt>
      <trkpt lat="44.90546" lon="1.64619">
        <ele>112.1</ele>
        <time>2022-08-07T07:01:55Z</time>
      </trkpt>
      <trkpt lat="44.90538" lon="1.64615">
        <ele>112</ele>
        <time>2022-08-07T07:01:57Z</time>
      </trkpt>
      <trkpt lat="44.90531" lon="1.64609">
        <ele>111.8</ele>
        <time>2022-08-07T07:01:59Z</time>
      </trkpt>
      <trkpt lat="44.90524" lon="1.64603">
        <ele>111.6</ele>
        <time>2022-08-07T07:02:01Z</time>
      </trkpt>
      <trkpt lat="44.90517" lon="1.64598">
        <ele>111.5</ele>
        <time>2022-08-07T07:02:03Z</time>
      </trkpt>
      <trkpt lat="44.9051" lon="1.64593">
        <ele>111.3</ele>
        <time>2022-08-07T07:02:05Z</time>
      </trkpt>
      <trkpt lat="44.90504" lon="1.64588">
        <ele>111.2</ele>
        <time>2022-08-07T07:02:07Z</time>
      </trkpt>
      <trkpt lat="44.90496" lon="1.64582">
        <ele>111</ele>
        <time>2022-08-07T07:02:09Z</time>
      </trkpt>
      <trkpt lat="44.90489" lon="1.64575">
        <ele>111.1</ele>
        <time>2022-08-07T07:02:11Z</time>
      </trkpt>
      <trkpt lat="44.90482" lon="1.6457">
        <ele>111.3</ele>
        <time>2022-08-07T07:02:13Z</time>
      </trkpt>
      <trkpt lat="44.90475" lon="1.64563">
        <ele>111.4</ele>
        <time>2022-08-07T07:02:15Z</time>
      </trkpt>
      <trkpt lat="44.90468" lon="1.64558">
        <ele>111.5</ele>
        <time>2022-08-07T07:02:17Z</time>
      </trkpt>
      <trkpt lat="44.90461" lon="1.64551">
        <ele>111.7</ele>
        <time>2022-08-07T07:02:19Z</time>
      </trkpt>
      <trkpt lat="44.90454" lon="1.64545">
        <ele>111.8</ele>
        <time>2022-08-07T07:02:21Z</time>
      </trkpt>
      <trkpt lat="44.90448" lon="1.6454">
        <ele>112</ele>
        <time>2022-08-07T07:02:23Z</time>
      </trkpt>
      <trkpt lat="44.90441" lon="1.64533">
        <ele>112.1</ele>
        <time>2022-08-07T07:02:25Z</time>
      </trkpt>
      <trkpt lat="44.90434" lon="1.64526">
        <ele>112.3</ele>
        <time>2022-08-07T07:02:27Z</time>
      </trkpt>
      <trkpt lat="44.90427" lon="1.64519">
        <ele>112.5</ele>
        <time>2022-08-07T07:02:29Z</time>
      </trkpt>
      <trkpt lat="44.9042" lon="1.64512">
        <ele>112.8</ele>
        <time>2022-08-07T07:02:31Z</time>
      </trkpt>
      <trkpt lat="44.90414" lon="1.64505">
        <ele>112.9</ele>
        <time>2022-08-07T07:02:33Z</time>
      </trkpt>
      <trkpt lat="44.90407" lon="1.64498">
        <ele>112.9</ele>
        <time>2022-08-07T07:02:35Z</time>
      </trkpt>
      <trkpt lat="44.90401" lon="1.64491">
        <ele>113.2</ele>
        <time>2022-08-07T07:02:37Z</time>
      </trkpt>
      <trkpt lat="44.90394" lon="1.64484">
        <ele>113.4</ele>
        <time>2022-08-07T07:02:39Z</time>
      </trkpt>
      <trkpt lat="44.90389" lon="1.64478">
        <ele>113.7</ele>
        <time>2022-08-07T07:02:41Z</time>
      </trkpt>
      <trkpt lat="44.90385" lon="1.64471">
        <ele>114</ele>
        <time>2022-08-07T07:02:43Z</time>
      </trkpt>
      <trkpt lat="44.90382" lon="1.6447">
        <ele>114</ele>
        <time>2022-08-07T07:02:45Z</time>
      </trkpt>
      <trkpt lat="44.90379" lon="1.64467">
        <ele>114.1</ele>
        <time>2022-08-07T07:02:47Z</time>
      </trkpt>
      <trkpt lat="44.90377" lon="1.64462">
        <ele>114.3</ele>
        <time>2022-08-07T07:02:49Z</time>
      </trkpt>
      <trkpt lat="44.90377" lon="1.64461">
        <ele>114.4</ele>
        <time>2022-08-07T07:02:51Z</time>
      </trkpt>
      <trkpt lat="44.90375" lon="1.64461">
        <ele>114.4</ele>
        <time>2022-08-07T07:02:53Z</time>
      </trkpt>
      <trkpt lat="44.90374" lon="1.64463">
        <ele>114.2</ele>
        <time>2022-08-07T07:02:55Z</time>
      </trkpt>
      <trkpt lat="44.90375" lon="1.64467">
        <ele>114</ele>
        <time>2022-08-07T07:02:57Z</time>
      </trkpt>
      <trkpt lat="44.90377" lon="1.64471">
        <ele>113.8</ele>
        <time>2022-08-07T07:02:59Z</time>
      </trkpt>
      <trkpt lat="44.9035" lon="1.64562">
        <ele>110.7</ele>
        <time>2022-08-07T07:03:25Z</time>
      </trkpt>
      <trkpt lat="44.90348" lon="1.6457">
        <ele>110.5</ele>
        <time>2022-08-07T07:03:27Z</time>
      </trkpt>
      <trkpt lat="44.90345" lon="1.64578">
        <ele>110.3</ele>
        <time>2022-08-07T07:03:29Z</time>
      </trkpt>
      <trkpt lat="44.90341" lon="1.64587">
        <ele>110.2</ele>
        <time>2022-08-07T07:03:31Z</time>
      </trkpt>
      <trkpt lat="44.90339" lon="1.64595">
        <ele>110.3</ele>
        <time>2022-08-07T07:03:33Z</time>
      </trkpt>
      <trkpt lat="44.90336" lon="1.64603">
        <ele>110.3</ele>
        <time>2022-08-07T07:03:35Z</time>
      </trkpt>
      <trkpt lat="44.90333" lon="1.64611">
        <ele>110.3</ele>
        <time>2022-08-07T07:03:37Z</time>
      </trkpt>
      <trkpt lat="44.9033" lon="1.6462">
        <ele>110.4</ele>
        <time>2022-08-07T07:03:39Z</time>
      </trkpt>
      <trkpt lat="44.90326" lon="1.64628">
        <ele>110.5</ele>
        <time>2022-08-07T07:03:41Z</time>
      </trkpt>
      <trkpt lat="44.90323" lon="1.64636">
        <ele>110.6</ele>
        <time>2022-08-07T07:03:43Z</time>
      </trkpt>
      <trkpt lat="44.90319" lon="1.64644">
        <ele>110.7</ele>
        <time>2022-08-07T07:03:45Z</time>
      </trkpt>
      <trkpt lat="44.90315" lon="1.64652">
        <ele>110.8</ele>
        <time>2022-08-07T07:03:47Z</time>
      </trkpt>
      <trkpt lat="44.90312" lon="1.6466">
        <ele>110.9</ele>
        <time>2022-08-07T07:03:49Z</time>
      </trkpt>
      <trkpt lat="44.90307" lon="1.64667">
        <ele>111</ele>
        <time>2022-08-07T07:03:51Z</time>
      </trkpt>
      <trkpt lat="44.90303" lon="1.64674">
        <ele>111.1</ele>
        <time>2022-08-07T07:03:53Z</time>
      </trkpt>
      <trkpt lat="44.90299" lon="1.6468">
        <ele>111.1</ele>
        <time>2022-08-07T07:03:55Z</time>
      </trkpt>
      <trkpt lat="44.90295" lon="1.64687">
        <ele>111.1</ele>
        <time>2022-08-07T07:03:57Z</time>
      </trkpt>
      <trkpt lat="44.90291" lon="1.64693">
        <ele>111.2</ele>
        <time>2022-08-07T07:03:59Z</time>
      </trkpt>
      <trkpt lat="44.90287" lon="1.647">
        <ele>111.2</ele>
        <time>2022-08-07T07:04:01Z</time>
      </trkpt>
      <trkpt lat="44.90283" lon="1.64707">
        <ele>111.2</ele>
        <time>2022-08-07T07:04:03Z</time>
      </trkpt>
      <trkpt lat="44.90279" lon="1.64713">
        <ele>111.2</ele>
        <time>2022-08-07T07:04:05Z</time>
      </trkpt>
      <trkpt lat="44.90275" lon="1.6472">
        <ele>111.2</ele>
        <time>2022-08-07T07:04:07Z</time>
      </trkpt>
      <trkpt lat="44.90271" lon="1.64726">
        <ele>111.2</ele>
        <time>2022-08-07T07:04:09Z</time>
      </trkpt>
      <trkpt lat="44.90268" lon="1.64731">
        <ele>111.2</ele>
        <time>2022-08-07T07:04:11Z</time>
      </trkpt>
      <trkpt lat="44.90265" lon="1.64737">
        <ele>111.2</ele>
        <time>2022-08-07T07:04:13Z</time>
      </trkpt>
      <trkpt lat="44.90264" lon="1.64743">
        <ele>111.2</ele>
        <time>2022-08-07T07:04:15Z</time>
      </trkpt>
      <trkpt lat="44.90263" lon="1.64748">
        <ele>111.2</ele>
        <time>2022-08-07T07:04:17Z</time>
      </trkpt>
      <trkpt lat="44.90264" lon="1.64751">
        <ele>111.2</ele>
        <time>2022-08-07T07:04:19Z</time>
      </trkpt>
      <trkpt lat="44.90264" lon="1.64751">
        <ele>111.2</ele>
        <time>2022-08-07T07:04:21Z</time>
      </trkpt>
      <trkpt lat="44.90263" lon="1.64751">
        <ele>111.2</ele>
        <time>2022-08-07T07:04:23Z</time>
      </trkpt>
      <trkpt lat="44.90263" lon="1.64751">
        <ele>111.2</ele>
        <time>2022-08-07T07:04:25Z</time>
      </trkpt>
      <trkpt lat="44.90263" lon="1.64751">
        <ele>111.2</ele>
        <time>2022-08-07T07:04:27Z</time>
      </trkpt>
      <trkpt lat="44.90275" lon="1.64724">
        <ele>111.2</ele>
        <time>2022-08-07T07:17:09Z</time>
      </trkpt>
      <trkpt lat="44.90277" lon="1.64717">
        <ele>111.2</ele>
        <time>2022-08-07T07:17:11Z</time>
      </trkpt>
      <trkpt lat="44.90281" lon="1.64711">
        <ele>111.2</ele>
        <time>2022-08-07T07:17:13Z</time>
      </trkpt>
      <trkpt lat="44.90285" lon="1.64705">
        <ele>111.2</ele>
        <time>2022-08-07T07:17:15Z</time>
      </trkpt>
      <trkpt lat="44.90289" lon="1.64698">
        <ele>111.2</ele>
        <time>2022-08-07T07:17:17Z</time>
      </trkpt>
      <trkpt lat="44.90292" lon="1.64693">
        <ele>111.2</ele>
        <time>2022-08-07T07:17:19Z</time>
      </trkpt>
      <trkpt lat="44.90295" lon="1.64687">
        <ele>111.1</ele>
        <time>2022-08-07T07:17:21Z</time>
      </trkpt>
      <trkpt lat="44.90299" lon="1.64681">
        <ele>111.1</ele>
        <time>2022-08-07T07:17:23Z</time>
      </trkpt>
      <trkpt lat="44.90303" lon="1.64675">
        <ele>111.1</ele>
        <time>2022-08-07T07:17:25Z</time>
      </trkpt>
      <trkpt lat="44.90306" lon="1.64668">
        <ele>111</ele>
        <time>2022-08-07T07:17:27Z</time>
      </trkpt>
      <trkpt lat="44.9031" lon="1.64662">
        <ele>110.9</ele>
        <time>2022-08-07T07:17:29Z</time>
      </trkpt>
      <trkpt lat="44.90313" lon="1.64656">
        <ele>110.9</ele>
        <time>2022-08-07T07:17:31Z</time>
      </trkpt>
      <trkpt lat="44.90317" lon="1.6465">
        <ele>110.8</ele>
        <time>2022-08-07T07:17:33Z</time>
      </trkpt>
      <trkpt lat="44.9032" lon="1.64644">
        <ele>110.7</ele>
        <time>2022-08-07T07:17:35Z</time>
      </trkpt>
      <trkpt lat="44.90322" lon="1.64639">
        <ele>110.7</ele>
        <time>2022-08-07T07:17:37Z</time>
      </trkpt>
      <trkpt lat="44.90324" lon="1.64635">
        <ele>110.6</ele>
        <time>2022-08-07T07:17:39Z</time>
      </trkpt>
      <trkpt lat="44.90325" lon="1.64632">
        <ele>110.6</ele>
        <time>2022-08-07T07:17:41Z</time>
      </trkpt>
      <trkpt lat="44.90327" lon="1.64628">
        <ele>110.5</ele>
        <time>2022-08-07T07:17:43Z</time>
      </trkpt>
      <trkpt lat="44.90329" lon="1.64623">
        <ele>110.5</ele>
        <time>2022-08-07T07:17:45Z</time>
      </trkpt>
      <trkpt lat="44.9033" lon="1.64619">
        <ele>110.4</ele>
        <time>2022-08-07T07:17:47Z</time>
      </trkpt>
      <trkpt lat="44.90332" lon="1.64615">
        <ele>110.4</ele>
        <time>2022-08-07T07:17:49Z</time>
      </trkpt>
      <trkpt lat="44.90333" lon="1.6461">
        <ele>110.3</ele>
        <time>2022-08-07T07:17:51Z</time>
      </trkpt>
      <trkpt lat="44.90334" lon="1.64603">
        <ele>110.2</ele>
        <time>2022-08-07T07:17:53Z</time>
      </trkpt>
      <trkpt lat="44.90337" lon="1.64596">
        <ele>110.2</ele>
        <time>2022-08-07T07:17:55Z</time>
      </trkpt>
      <trkpt lat="44.9034" lon="1.64587">
        <ele>110.2</ele>
        <time>2022-08-07T07:17:57Z</time>
      </trkpt>
      <trkpt lat="44.90343" lon="1.64579">
        <ele>110.3</ele>
        <time>2022-08-07T07:17:59Z</time>
      </trkpt>
      <trkpt lat="44.90346" lon="1.64571">
        <ele>110.5</ele>
        <time>2022-08-07T07:18:01Z</time>
      </trkpt>
      <trkpt lat="44.90349" lon="1.64563">
        <ele>110.6</ele>
        <time>2022-08-07T07:18:03Z</time>
      </trkpt>
      <trkpt lat="44.90352" lon="1.64555">
        <ele>110.8</ele>
        <time>2022-08-07T07:18:05Z</time>
      </trkpt>
      <trkpt lat="44.90355" lon="1.64546">
        <ele>111</ele>
        <time>2022-08-07T07:18:07Z</time>
      </trkpt>
      <trkpt lat="44.90358" lon="1.64538">
        <ele>111.1</ele>
        <time>2022-08-07T07:18:09Z</time>
      </trkpt>
      <trkpt lat="44.90361" lon="1.6453">
        <ele>111.3</ele>
        <time>2022-08-07T07:18:11Z</time>
      </trkpt>
      <trkpt lat="44.90364" lon="1.64522">
        <ele>111.5</ele>
        <time>2022-08-07T07:18:13Z</time>
      </trkpt>
      <trkpt lat="44.90367" lon="1.64515">
        <ele>111.6</ele>
        <time>2022-08-07T07:18:15Z</time>
      </trkpt>
      <trkpt lat="44.9037" lon="1.64507">
        <ele>111.8</ele>
        <time>2022-08-07T07:18:17Z</time>
      </trkpt>
      <trkpt lat="44.90373" lon="1.64499">
        <ele>112</ele>
        <time>2022-08-07T07:18:19Z</time>
      </trkpt>
      <trkpt lat="44.90376" lon="1.64493">
        <ele>112.4</ele>
        <time>2022-08-07T07:18:21Z</time>
      </trkpt>
      <trkpt lat="44.90379" lon="1.64487">
        <ele>112.9</ele>
        <time>2022-08-07T07:18:23Z</time>
      </trkpt>
      <trkpt lat="44.9038" lon="1.64481">
        <ele>113.3</ele>
        <time>2022-08-07T07:18:25Z</time>
      </trkpt>
      <trkpt lat="44.90381" lon="1.64475">
        <ele>113.6</ele>
        <time>2022-08-07T07:18:27Z</time>
      </trkpt>
      <trkpt lat="44.90381" lon="1.64471">
        <ele>113.9</ele>
        <time>2022-08-07T07:18:29Z</time>
      </trkpt>
      <trkpt lat="44.9038" lon="1.64463">
        <ele>114.4</ele>
        <time>2022-08-07T07:18:31Z</time>
      </trkpt>
      <trkpt lat="44.90376" lon="1.64457">
        <ele>114.6</ele>
        <time>2022-08-07T07:18:33Z</time>
      </trkpt>
      <trkpt lat="44.90372" lon="1.64452">
        <ele>114.8</ele>
        <time>2022-08-07T07:18:35Z</time>
      </trkpt>
      <trkpt lat="44.90366" lon="1.6445">
        <ele>114.8</ele>
        <time>2022-08-07T07:18:37Z</time>
      </trkpt>
      <trkpt lat="44.9036" lon="1.6445">
        <ele>114.6</ele>
        <time>2022-08-07T07:18:39Z</time>
      </trkpt>
      <trkpt lat="44.90353" lon="1.6445">
        <ele>114.5</ele>
        <time>2022-08-07T07:18:41Z</time>
      </trkpt>
      <trkpt lat="44.90346" lon="1.6445">
        <ele>114.3</ele>
        <time>2022-08-07T07:18:43Z</time>
      </trkpt>
      <trkpt lat="44.90339" lon="1.64451">
        <ele>114</ele>
        <time>2022-08-07T07:18:45Z</time>
      </trkpt>
      <trkpt lat="44.90333" lon="1.64452">
        <ele>113.9</ele>
        <time>2022-08-07T07:18:47Z</time>
      </trkpt>
      <trkpt lat="44.90327" lon="1.64452">
        <ele>113.9</ele>
        <time>2022-08-07T07:18:49Z</time>
      </trkpt>
      <trkpt lat="44.90322" lon="1.64452">
        <ele>113.9</ele>
        <time>2022-08-07T07:18:51Z</time>
      </trkpt>
      <trkpt lat="44.90319" lon="1.6445">
        <ele>114</ele>
        <time>2022-08-07T07:18:53Z</time>
      </trkpt>
      <trkpt lat="44.90314" lon="1.6445">
        <ele>114</ele>
        <time>2022-08-07T07:18:55Z</time>
      </trkpt>
      <trkpt lat="44.9031" lon="1.64455">
        <ele>113.7</ele>
        <time>2022-08-07T07:18:57Z</time>
      </trkpt>
      <trkpt lat="44.90304" lon="1.64461">
        <ele>113.3</ele>
        <time>2022-08-07T07:18:59Z</time>
      </trkpt>
      <trkpt lat="44.90299" lon="1.64466">
        <ele>113.1</ele>
        <time>2022-08-07T07:19:01Z</time>
      </trkpt>
      <trkpt lat="44.90294" lon="1.64472">
        <ele>112.9</ele>
        <time>2022-08-07T07:19:03Z</time>
      </trkpt>
      <trkpt lat="44.90288" lon="1.64478">
        <ele>112.6</ele>
        <time>2022-08-07T07:19:05Z</time>
      </trkpt>
      <trkpt lat="44.90283" lon="1.64484">
        <ele>112.3</ele>
        <time>2022-08-07T07:19:07Z</time>
      </trkpt>
      <trkpt lat="44.90278" lon="1.64491">
        <ele>112.1</ele>
        <time>2022-08-07T07:19:09Z</time>
      </trkpt>
      <trkpt lat="44.90273" lon="1.64499">
        <ele>111.8</ele>
        <time>2022-08-07T07:19:11Z</time>
      </trkpt>
      <trkpt lat="44.90268" lon="1.64506">
        <ele>111.7</ele>
        <time>2022-08-07T07:19:13Z</time>
      </trkpt>
      <trkpt lat="44.90263" lon="1.64513">
        <ele>111.6</ele>
        <time>2022-08-07T07:19:15Z</time>
      </trkpt>
      <trkpt lat="44.90257" lon="1.6452">
        <ele>111.4</ele>
        <time>2022-08-07T07:19:17Z</time>
      </trkpt>
      <trkpt lat="44.90252" lon="1.64527">
        <ele>111.3</ele>
        <time>2022-08-07T07:19:19Z</time>
      </trkpt>
      <trkpt lat="44.90246" lon="1.64534">
        <ele>111.2</ele>
        <time>2022-08-07T07:19:21Z</time>
      </trkpt>
      <trkpt lat="44.9024" lon="1.64541">
        <ele>111</ele>
        <time>2022-08-07T07:19:23Z</time>
      </trkpt>
      <trkpt lat="44.90234" lon="1.64548">
        <ele>110.9</ele>
        <time>2022-08-07T07:19:25Z</time>
      </trkpt>
      <trkpt lat="44.90228" lon="1.64555">
        <ele>110.8</ele>
        <time>2022-08-07T07:19:27Z</time>
      </trkpt>
      <trkpt lat="44.90221" lon="1.64561">
        <ele>110.7</ele>
        <time>2022-08-07T07:19:29Z</time>
      </trkpt>
      <trkpt lat="44.90214" lon="1.64567">
        <ele>110.6</ele>
        <time>2022-08-07T07:19:31Z</time>
      </trkpt>
      <trkpt lat="44.90207" lon="1.64573">
        <ele>110.6</ele>
        <time>2022-08-07T07:19:33Z</time>
      </trkpt>
      <trkpt lat="44.902" lon="1.64579">
        <ele>110.6</ele>
        <time>2022-08-07T07:19:35Z</time>
      </trkpt>
      <trkpt lat="44.90192" lon="1.64584">
        <ele>110.7</ele>
        <time>2022-08-07T07:19:37Z</time>
      </trkpt>
      <trkpt lat="44.90185" lon="1.64589">
        <ele>110.7</ele>
        <time>2022-08-07T07:19:39Z</time>
      </trkpt>
      <trkpt lat="44.90177" lon="1.64593">
        <ele>110.8</ele>
        <time>2022-08-07T07:19:41Z</time>
      </trkpt>
      <trkpt lat="44.9017" lon="1.64597">
        <ele>110.8</ele>
        <time>2022-08-07T07:19:43Z</time>
      </trkpt>
      <trkpt lat="44.90161" lon="1.64601">
        <ele>110.8</ele>
        <time>2022-08-07T07:19:45Z</time>
      </trkpt>
      <trkpt lat="44.90153" lon="1.64603">
        <ele>110.8</ele>
        <time>2022-08-07T07:19:47Z</time>
      </trkpt>
      <trkpt lat="44.90144" lon="1.64605">
        <ele>110.7</ele>
        <time>2022-08-07T07:19:49Z</time>
      </trkpt>
      <trkpt lat="44.90135" lon="1.64606">
        <ele>110.7</ele>
        <time>2022-08-07T07:19:51Z</time>
      </trkpt>
      <trkpt lat="44.90126" lon="1.64605">
        <ele>110.7</ele>
        <time>2022-08-07T07:19:53Z</time>
      </trkpt>
      <trkpt lat="44.90117" lon="1.646">
        <ele>110.8</ele>
        <time>2022-08-07T07:19:55Z</time>
      </trkpt>
      <trkpt lat="44.9011" lon="1.64594">
        <ele>110.9</ele>
        <time>2022-08-07T07:19:57Z</time>
      </trkpt>
      <trkpt lat="44.90103" lon="1.64588">
        <ele>110.9</ele>
        <time>2022-08-07T07:19:59Z</time>
      </trkpt>
      <trkpt lat="44.90096" lon="1.64582">
        <ele>111</ele>
        <time>2022-08-07T07:20:01Z</time>
      </trkpt>
      <trkpt lat="44.90089" lon="1.64576">
        <ele>111</ele>
        <time>2022-08-07T07:20:03Z</time>
      </trkpt>
      <trkpt lat="44.90082" lon="1.6457">
        <ele>111</ele>
        <time>2022-08-07T07:20:05Z</time>
      </trkpt>
      <trkpt lat="44.90075" lon="1.64564">
        <ele>111.2</ele>
        <time>2022-08-07T07:20:07Z</time>
      </trkpt>
      <trkpt lat="44.90068" lon="1.64559">
        <ele>111.4</ele>
        <time>2022-08-07T07:20:09Z</time>
      </trkpt>
      <trkpt lat="44.90061" lon="1.64553">
        <ele>111.6</ele>
        <time>2022-08-07T07:20:11Z</time>
      </trkpt>
      <trkpt lat="44.90054" lon="1.64547">
        <ele>111.8</ele>
        <time>2022-08-07T07:20:13Z</time>
      </trkpt>
      <trkpt lat="44.90048" lon="1.64542">
        <ele>112.1</ele>
        <time>2022-08-07T07:20:15Z</time>
      </trkpt>
      <trkpt lat="44.90041" lon="1.64536">
        <ele>112.3</ele>
        <time>2022-08-07T07:20:17Z</time>
      </trkpt>
      <trkpt lat="44.90034" lon="1.6453">
        <ele>112.6</ele>
        <time>2022-08-07T07:20:19Z</time>
      </trkpt>
      <trkpt lat="44.90028" lon="1.64525">
        <ele>112.8</ele>
        <time>2022-08-07T07:20:21Z</time>
      </trkpt>
      <trkpt lat="44.90021" lon="1.64519">
        <ele>113.1</ele>
        <time>2022-08-07T07:20:23Z</time>
      </trkpt>
      <trkpt lat="44.90014" lon="1.64514">
        <ele>113.3</ele>
        <time>2022-08-07T07:20:25Z</time>
      </trkpt>
      <trkpt lat="44.90008" lon="1.64509">
        <ele>113.6</ele>
        <time>2022-08-07T07:20:27Z</time>
      </trkpt>
      <trkpt lat="44.90002" lon="1.64504">
        <ele>113.9</ele>
        <time>2022-08-07T07:20:29Z</time>
      </trkpt>
      <trkpt lat="44.89994" lon="1.64499">
        <ele>113.9</ele>
        <time>2022-08-07T07:20:31Z</time>
      </trkpt>
      <trkpt lat="44.89988" lon="1.64495">
        <ele>113.7</ele>
        <time>2022-08-07T07:20:33Z</time>
      </trkpt>
      <trkpt lat="44.89981" lon="1.6449">
        <ele>113.6</ele>
        <time>2022-08-07T07:20:35Z</time>
      </trkpt>
      <trkpt lat="44.89974" lon="1.64486">
        <ele>113.4</ele>
        <time>2022-08-07T07:20:37Z</time>
      </trkpt>
      <trkpt lat="44.89967" lon="1.64481">
        <ele>113.2</ele>
        <time>2022-08-07T07:20:39Z</time>
      </trkpt>
      <trkpt lat="44.89959" lon="1.64476">
        <ele>113.1</ele>
        <time>2022-08-07T07:20:41Z</time>
      </trkpt>
      <trkpt lat="44.89952" lon="1.64471">
        <ele>112.9</ele>
        <time>2022-08-07T07:20:43Z</time>
      </trkpt>
      <trkpt lat="44.89944" lon="1.64467">
        <ele>112.8</ele>
        <time>2022-08-07T07:20:45Z</time>
      </trkpt>
      <trkpt lat="44.89936" lon="1.64462">
        <ele>112.7</ele>
        <time>2022-08-07T07:20:47Z</time>
      </trkpt>
      <trkpt lat="44.89929" lon="1.64457">
        <ele>112.6</ele>
        <time>2022-08-07T07:20:49Z</time>
      </trkpt>
      <trkpt lat="44.89921" lon="1.64453">
        <ele>112.5</ele>
        <time>2022-08-07T07:20:51Z</time>
      </trkpt>
      <trkpt lat="44.89913" lon="1.64449">
        <ele>112.3</ele>
        <time>2022-08-07T07:20:53Z</time>
      </trkpt>
      <trkpt lat="44.89905" lon="1.64445">
        <ele>112.1</ele>
        <time>2022-08-07T07:20:55Z</time>
      </trkpt>
      <trkpt lat="44.89897" lon="1.6444">
        <ele>111.9</ele>
        <time>2022-08-07T07:20:57Z</time>
      </trkpt>
      <trkpt lat="44.89888" lon="1.64436">
        <ele>111.6</ele>
        <time>2022-08-07T07:20:59Z</time>
      </trkpt>
      <trkpt lat="44.8988" lon="1.64431">
        <ele>111.4</ele>
        <time>2022-08-07T07:21:01Z</time>
      </trkpt>
      <trkpt lat="44.89872" lon="1.64426">
        <ele>111.1</ele>
        <time>2022-08-07T07:21:03Z</time>
      </trkpt>
      <trkpt lat="44.89864" lon="1.64422">
        <ele>110.8</ele>
        <time>2022-08-07T07:21:05Z</time>
      </trkpt>
      <trkpt lat="44.89855" lon="1.64418">
        <ele>110.6</ele>
        <time>2022-08-07T07:21:07Z</time>
      </trkpt>
      <trkpt lat="44.89847" lon="1.64414">
        <ele>110.3</ele>
        <time>2022-08-07T07:21:09Z</time>
      </trkpt>
      <trkpt lat="44.89839" lon="1.6441">
        <ele>110.2</ele>
        <time>2022-08-07T07:21:11Z</time>
      </trkpt>
      <trkpt lat="44.8983" lon="1.64405">
        <ele>110.2</ele>
        <time>2022-08-07T07:21:13Z</time>
      </trkpt>
      <trkpt lat="44.89822" lon="1.64401">
        <ele>110.5</ele>
        <time>2022-08-07T07:21:15Z</time>
      </trkpt>
      <trkpt lat="44.89814" lon="1.64397">
        <ele>110.8</ele>
        <time>2022-08-07T07:21:17Z</time>
      </trkpt>
      <trkpt lat="44.89805" lon="1.64392">
        <ele>111.1</ele>
        <time>2022-08-07T07:21:19Z</time>
      </trkpt>
      <trkpt lat="44.89797" lon="1.64388">
        <ele>111.4</ele>
        <time>2022-08-07T07:21:21Z</time>
      </trkpt>
      <trkpt lat="44.8979" lon="1.64383">
        <ele>111.7</ele>
        <time>2022-08-07T07:21:23Z</time>
      </trkpt>
      <trkpt lat="44.89782" lon="1.64379">
        <ele>112</ele>
        <time>2022-08-07T07:21:25Z</time>
      </trkpt>
      <trkpt lat="44.89775" lon="1.64373">
        <ele>112.3</ele>
        <time>2022-08-07T07:21:27Z</time>
      </trkpt>
      <trkpt lat="44.89768" lon="1.64367">
        <ele>112.6</ele>
        <time>2022-08-07T07:21:29Z</time>
      </trkpt>
      <trkpt lat="44.89763" lon="1.64359">
        <ele>113</ele>
        <time>2022-08-07T07:21:31Z</time>
      </trkpt>
      <trkpt lat="44.89758" lon="1.64351">
        <ele>113.3</ele>
        <time>2022-08-07T07:21:33Z</time>
      </trkpt>
      <trkpt lat="44.89753" lon="1.64343">
        <ele>113.7</ele>
        <time>2022-08-07T07:21:35Z</time>
      </trkpt>
      <trkpt lat="44.8975" lon="1.64335">
        <ele>114</ele>
        <time>2022-08-07T07:21:37Z</time>
      </trkpt>
      <trkpt lat="44.89747" lon="1.64327">
        <ele>116.6</ele>
        <time>2022-08-07T07:21:39Z</time>
      </trkpt>
      <trkpt lat="44.89745" lon="1.64319">
        <ele>118.7</ele>
        <time>2022-08-07T07:21:41Z</time>
      </trkpt>
      <trkpt lat="44.89744" lon="1.64312">
        <ele>120.5</ele>
        <time>2022-08-07T07:21:43Z</time>
      </trkpt>
      <trkpt lat="44.89742" lon="1.64305">
        <ele>122.4</ele>
        <time>2022-08-07T07:21:45Z</time>
      </trkpt>
      <trkpt lat="44.89741" lon="1.64298">
        <ele>123.8</ele>
        <time>2022-08-07T07:21:47Z</time>
      </trkpt>
      <trkpt lat="44.89741" lon="1.64291">
        <ele>125.1</ele>
        <time>2022-08-07T07:21:49Z</time>
      </trkpt>
      <trkpt lat="44.8974" lon="1.64284">
        <ele>126</ele>
        <time>2022-08-07T07:21:51Z</time>
      </trkpt>
      <trkpt lat="44.8974" lon="1.64276">
        <ele>127</ele>
        <time>2022-08-07T07:21:53Z</time>
      </trkpt>
      <trkpt lat="44.8974" lon="1.64269">
        <ele>127.7</ele>
        <time>2022-08-07T07:21:55Z</time>
      </trkpt>
      <trkpt lat="44.89741" lon="1.64263">
        <ele>128</ele>
        <time>2022-08-07T07:21:57Z</time>
      </trkpt>
      <trkpt lat="44.89741" lon="1.64256">
        <ele>128.5</ele>
        <time>2022-08-07T07:21:59Z</time>
      </trkpt>
      <trkpt lat="44.89742" lon="1.64249">
        <ele>128.2</ele>
        <time>2022-08-07T07:22:01Z</time>
      </trkpt>
      <trkpt lat="44.89743" lon="1.64244">
        <ele>128.8</ele>
        <time>2022-08-07T07:22:03Z</time>
      </trkpt>
      <trkpt lat="44.89743" lon="1.64238">
        <ele>129.8</ele>
        <time>2022-08-07T07:22:05Z</time>
      </trkpt>
      <trkpt lat="44.89745" lon="1.64233">
        <ele>129.7</ele>
        <time>2022-08-07T07:22:07Z</time>
      </trkpt>
      <trkpt lat="44.89745" lon="1.64227">
        <ele>130.5</ele>
        <time>2022-08-07T07:22:09Z</time>
      </trkpt>
      <trkpt lat="44.89745" lon="1.64221">
        <ele>131.5</ele>
        <time>2022-08-07T07:22:11Z</time>
      </trkpt>
      <trkpt lat="44.89746" lon="1.64216">
        <ele>131.7</ele>
        <time>2022-08-07T07:22:13Z</time>
      </trkpt>
      <trkpt lat="44.89747" lon="1.64213">
        <ele>132</ele>
        <time>2022-08-07T07:22:15Z</time>
      </trkpt>
      <trkpt lat="44.89748" lon="1.64209">
        <ele>131.8</ele>
        <time>2022-08-07T07:22:17Z</time>
      </trkpt>
      <trkpt lat="44.8975" lon="1.64204">
        <ele>131.8</ele>
        <time>2022-08-07T07:22:19Z</time>
      </trkpt>
      <trkpt lat="44.89751" lon="1.64199">
        <ele>132.2</ele>
        <time>2022-08-07T07:22:21Z</time>
      </trkpt>
      <trkpt lat="44.89751" lon="1.64194">
        <ele>133.1</ele>
        <time>2022-08-07T07:22:23Z</time>
      </trkpt>
      <trkpt lat="44.89752" lon="1.64189">
        <ele>133.9</ele>
        <time>2022-08-07T07:22:25Z</time>
      </trkpt>
      <trkpt lat="44.89754" lon="1.64184">
        <ele>134.4</ele>
        <time>2022-08-07T07:22:27Z</time>
      </trkpt>
      <trkpt lat="44.89755" lon="1.64179">
        <ele>135.2</ele>
        <time>2022-08-07T07:22:29Z</time>
      </trkpt>
      <trkpt lat="44.89756" lon="1.64174">
        <ele>135.7</ele>
        <time>2022-08-07T07:22:31Z</time>
      </trkpt>
      <trkpt lat="44.89757" lon="1.6417">
        <ele>136.2</ele>
        <time>2022-08-07T07:22:33Z</time>
      </trkpt>
      <trkpt lat="44.89759" lon="1.64165">
        <ele>136.8</ele>
        <time>2022-08-07T07:22:35Z</time>
      </trkpt>
      <trkpt lat="44.8976" lon="1.6416">
        <ele>137.9</ele>
        <time>2022-08-07T07:22:37Z</time>
      </trkpt>
      <trkpt lat="44.89761" lon="1.64155">
        <ele>139.1</ele>
        <time>2022-08-07T07:22:39Z</time>
      </trkpt>
      <trkpt lat="44.89763" lon="1.64149">
        <ele>140.1</ele>
        <time>2022-08-07T07:22:41Z</time>
      </trkpt>
      <trkpt lat="44.89764" lon="1.64145">
        <ele>141</ele>
        <time>2022-08-07T07:22:43Z</time>
      </trkpt>
      <trkpt lat="44.89765" lon="1.6414">
        <ele>141.7</ele>
        <time>2022-08-07T07:22:45Z</time>
      </trkpt>
      <trkpt lat="44.89767" lon="1.64135">
        <ele>142.5</ele>
        <time>2022-08-07T07:22:47Z</time>
      </trkpt>
      <trkpt lat="44.89768" lon="1.64131">
        <ele>143.4</ele>
        <time>2022-08-07T07:22:49Z</time>
      </trkpt>
      <trkpt lat="44.89769" lon="1.64125">
        <ele>144.3</ele>
        <time>2022-08-07T07:22:51Z</time>
      </trkpt>
      <trkpt lat="44.8977" lon="1.6412">
        <ele>145</ele>
        <time>2022-08-07T07:22:53Z</time>
      </trkpt>
      <trkpt lat="44.89771" lon="1.64116">
        <ele>145.8</ele>
        <time>2022-08-07T07:22:55Z</time>
      </trkpt>
      <trkpt lat="44.89772" lon="1.6411">
        <ele>146.8</ele>
        <time>2022-08-07T07:22:57Z</time>
      </trkpt>
      <trkpt lat="44.89773" lon="1.64106">
        <ele>147.2</ele>
        <time>2022-08-07T07:22:59Z</time>
      </trkpt>
      <trkpt lat="44.89775" lon="1.64101">
        <ele>147.7</ele>
        <time>2022-08-07T07:23:01Z</time>
      </trkpt>
      <trkpt lat="44.89776" lon="1.64096">
        <ele>148.3</ele>
        <time>2022-08-07T07:23:03Z</time>
      </trkpt>
      <trkpt lat="44.89777" lon="1.64092">
        <ele>148.5</ele>
        <time>2022-08-07T07:23:05Z</time>
      </trkpt>
      <trkpt lat="44.89779" lon="1.64087">
        <ele>148.8</ele>
        <time>2022-08-07T07:23:07Z</time>
      </trkpt>
      <trkpt lat="44.8978" lon="1.64083">
        <ele>149.1</ele>
        <time>2022-08-07T07:23:09Z</time>
      </trkpt>
      <trkpt lat="44.89782" lon="1.64078">
        <ele>149.5</ele>
        <time>2022-08-07T07:23:11Z</time>
      </trkpt>
      <trkpt lat="44.89783" lon="1.64073">
        <ele>150.3</ele>
        <time>2022-08-07T07:23:13Z</time>
      </trkpt>
      <trkpt lat="44.89784" lon="1.64068">
        <ele>151.1</ele>
        <time>2022-08-07T07:23:15Z</time>
      </trkpt>
      <trkpt lat="44.89786" lon="1.64062">
        <ele>151.6</ele>
        <time>2022-08-07T07:23:17Z</time>
      </trkpt>
      <trkpt lat="44.89788" lon="1.64058">
        <ele>151.4</ele>
        <time>2022-08-07T07:23:19Z</time>
      </trkpt>
      <trkpt lat="44.89789" lon="1.64053">
        <ele>151.7</ele>
        <time>2022-08-07T07:23:21Z</time>
      </trkpt>
      <trkpt lat="44.8979" lon="1.64048">
        <ele>152.3</ele>
        <time>2022-08-07T07:23:23Z</time>
      </trkpt>
      <trkpt lat="44.89792" lon="1.64043">
        <ele>152.6</ele>
        <time>2022-08-07T07:23:25Z</time>
      </trkpt>
      <trkpt lat="44.89794" lon="1.64038">
        <ele>152.3</ele>
        <time>2022-08-07T07:23:27Z</time>
      </trkpt>
      <trkpt lat="44.89796" lon="1.64034">
        <ele>151.8</ele>
        <time>2022-08-07T07:23:29Z</time>
      </trkpt>
      <trkpt lat="44.89799" lon="1.64031">
        <ele>151.3</ele>
        <time>2022-08-07T07:23:31Z</time>
      </trkpt>
      <trkpt lat="44.89801" lon="1.64027">
        <ele>150.9</ele>
        <time>2022-08-07T07:23:33Z</time>
      </trkpt>
      <trkpt lat="44.89803" lon="1.64022">
        <ele>150</ele>
        <time>2022-08-07T07:23:35Z</time>
      </trkpt>
      <trkpt lat="44.89806" lon="1.64019">
        <ele>149.3</ele>
        <time>2022-08-07T07:23:37Z</time>
      </trkpt>
      <trkpt lat="44.89808" lon="1.64014">
        <ele>148.8</ele>
        <time>2022-08-07T07:23:39Z</time>
      </trkpt>
      <trkpt lat="44.89809" lon="1.6401">
        <ele>148.7</ele>
        <time>2022-08-07T07:23:41Z</time>
      </trkpt>
      <trkpt lat="44.89812" lon="1.64006">
        <ele>147.9</ele>
        <time>2022-08-07T07:23:43Z</time>
      </trkpt>
      <trkpt lat="44.89814" lon="1.64001">
        <ele>147.5</ele>
        <time>2022-08-07T07:23:45Z</time>
      </trkpt>
      <trkpt lat="44.89816" lon="1.63998">
        <ele>147.1</ele>
        <time>2022-08-07T07:23:47Z</time>
      </trkpt>
      <trkpt lat="44.89817" lon="1.63994">
        <ele>147.2</ele>
        <time>2022-08-07T07:23:49Z</time>
      </trkpt>
      <trkpt lat="44.89819" lon="1.63991">
        <ele>146.8</ele>
        <time>2022-08-07T07:23:51Z</time>
      </trkpt>
      <trkpt lat="44.89821" lon="1.63987">
        <ele>146.9</ele>
        <time>2022-08-07T07:23:53Z</time>
      </trkpt>
      <trkpt lat="44.89823" lon="1.63984">
        <ele>146.8</ele>
        <time>2022-08-07T07:23:55Z</time>
      </trkpt>
      <trkpt lat="44.89825" lon="1.6398">
        <ele>146.1</ele>
        <time>2022-08-07T07:23:57Z</time>
      </trkpt>
      <trkpt lat="44.89827" lon="1.63976">
        <ele>146.6</ele>
        <time>2022-08-07T07:23:59Z</time>
      </trkpt>
      <trkpt lat="44.89829" lon="1.63971">
        <ele>146.6</ele>
        <time>2022-08-07T07:24:01Z</time>
      </trkpt>
      <trkpt lat="44.89831" lon="1.63967">
        <ele>146.7</ele>
        <time>2022-08-07T07:24:03Z</time>
      </trkpt>
      <trkpt lat="44.89832" lon="1.63963">
        <ele>147</ele>
        <time>2022-08-07T07:24:05Z</time>
      </trkpt>
      <trkpt lat="44.89834" lon="1.63959">
        <ele>147.4</ele>
        <time>2022-08-07T07:24:07Z</time>
      </trkpt>
      <trkpt lat="44.89836" lon="1.63955">
        <ele>148.2</ele>
        <time>2022-08-07T07:24:09Z</time>
      </trkpt>
      <trkpt lat="44.89837" lon="1.63951">
        <ele>148.8</ele>
        <time>2022-08-07T07:24:11Z</time>
      </trkpt>
      <trkpt lat="44.89839" lon="1.63947">
        <ele>149.4</ele>
        <time>2022-08-07T07:24:13Z</time>
      </trkpt>
      <trkpt lat="44.8984" lon="1.63943">
        <ele>150.1</ele>
        <time>2022-08-07T07:24:15Z</time>
      </trkpt>
      <trkpt lat="44.89842" lon="1.6394">
        <ele>150.4</ele>
        <time>2022-08-07T07:24:17Z</time>
      </trkpt>
      <trkpt lat="44.89844" lon="1.63936">
        <ele>150.9</ele>
        <time>2022-08-07T07:24:19Z</time>
      </trkpt>
      <trkpt lat="44.89846" lon="1.63932">
        <ele>151.4</ele>
        <time>2022-08-07T07:24:21Z</time>
      </trkpt>
      <trkpt lat="44.89847" lon="1.63927">
        <ele>151.9</ele>
        <time>2022-08-07T07:24:23Z</time>
      </trkpt>
      <trkpt lat="44.8985" lon="1.63923">
        <ele>151.9</ele>
        <time>2022-08-07T07:24:25Z</time>
      </trkpt>
      <trkpt lat="44.89851" lon="1.63919">
        <ele>152.5</ele>
        <time>2022-08-07T07:24:27Z</time>
      </trkpt>
      <trkpt lat="44.89853" lon="1.63914">
        <ele>153</ele>
        <time>2022-08-07T07:24:29Z</time>
      </trkpt>
      <trkpt lat="44.89855" lon="1.6391">
        <ele>153.4</ele>
        <time>2022-08-07T07:24:31Z</time>
      </trkpt>
      <trkpt lat="44.89857" lon="1.63906">
        <ele>153.7</ele>
        <time>2022-08-07T07:24:33Z</time>
      </trkpt>
      <trkpt lat="44.89859" lon="1.63901">
        <ele>154.1</ele>
        <time>2022-08-07T07:24:35Z</time>
      </trkpt>
      <trkpt lat="44.8986" lon="1.63897">
        <ele>154.7</ele>
        <time>2022-08-07T07:24:37Z</time>
      </trkpt>
      <trkpt lat="44.89863" lon="1.63894">
        <ele>154.7</ele>
        <time>2022-08-07T07:24:39Z</time>
      </trkpt>
      <trkpt lat="44.89865" lon="1.63889">
        <ele>154.7</ele>
        <time>2022-08-07T07:24:41Z</time>
      </trkpt>
      <trkpt lat="44.89867" lon="1.63884">
        <ele>155.5</ele>
        <time>2022-08-07T07:24:43Z</time>
      </trkpt>
      <trkpt lat="44.89869" lon="1.63881">
        <ele>155.2</ele>
        <time>2022-08-07T07:24:45Z</time>
      </trkpt>
      <trkpt lat="44.89871" lon="1.63876">
        <ele>155.6</ele>
        <time>2022-08-07T07:24:47Z</time>
      </trkpt>
      <trkpt lat="44.89873" lon="1.63872">
        <ele>155.7</ele>
        <time>2022-08-07T07:24:49Z</time>
      </trkpt>
      <trkpt lat="44.89875" lon="1.63867">
        <ele>155.9</ele>
        <time>2022-08-07T07:24:51Z</time>
      </trkpt>
      <trkpt lat="44.89878" lon="1.63863">
        <ele>155.8</ele>
        <time>2022-08-07T07:24:53Z</time>
      </trkpt>
      <trkpt lat="44.89879" lon="1.63859">
        <ele>156</ele>
        <time>2022-08-07T07:24:55Z</time>
      </trkpt>
      <trkpt lat="44.89881" lon="1.63855">
        <ele>156.6</ele>
        <time>2022-08-07T07:24:57Z</time>
      </trkpt>
      <trkpt lat="44.89883" lon="1.63851">
        <ele>156.5</ele>
        <time>2022-08-07T07:24:59Z</time>
      </trkpt>
      <trkpt lat="44.89885" lon="1.63847">
        <ele>156.4</ele>
        <time>2022-08-07T07:25:01Z</time>
      </trkpt>
      <trkpt lat="44.89887" lon="1.63843">
        <ele>156.6</ele>
        <time>2022-08-07T07:25:03Z</time>
      </trkpt>
      <trkpt lat="44.89889" lon="1.63838">
        <ele>156.4</ele>
        <time>2022-08-07T07:25:05Z</time>
      </trkpt>
      <trkpt lat="44.89891" lon="1.63834">
        <ele>156.5</ele>
        <time>2022-08-07T07:25:07Z</time>
      </trkpt>
      <trkpt lat="44.89893" lon="1.6383">
        <ele>156.6</ele>
        <time>2022-08-07T07:25:09Z</time>
      </trkpt>
      <trkpt lat="44.89895" lon="1.63825">
        <ele>156.7</ele>
        <time>2022-08-07T07:25:11Z</time>
      </trkpt>
      <trkpt lat="44.89897" lon="1.63822">
        <ele>156.4</ele>
        <time>2022-08-07T07:25:13Z</time>
      </trkpt>
      <trkpt lat="44.899" lon="1.63818">
        <ele>155.9</ele>
        <time>2022-08-07T07:25:15Z</time>
      </trkpt>
      <trkpt lat="44.89902" lon="1.63814">
        <ele>156.1</ele>
        <time>2022-08-07T07:25:17Z</time>
      </trkpt>
      <trkpt lat="44.89904" lon="1.6381">
        <ele>156.3</ele>
        <time>2022-08-07T07:25:19Z</time>
      </trkpt>
      <trkpt lat="44.89907" lon="1.63806">
        <ele>155.9</ele>
        <time>2022-08-07T07:25:21Z</time>
      </trkpt>
      <trkpt lat="44.89909" lon="1.63803">
        <ele>155.9</ele>
        <time>2022-08-07T07:25:23Z</time>
      </trkpt>
      <trkpt lat="44.89911" lon="1.63799">
        <ele>155.9</ele>
        <time>2022-08-07T07:25:25Z</time>
      </trkpt>
      <trkpt lat="44.89912" lon="1.63795">
        <ele>156.4</ele>
        <time>2022-08-07T07:25:27Z</time>
      </trkpt>
      <trkpt lat="44.89915" lon="1.63791">
        <ele>156</ele>
        <time>2022-08-07T07:25:29Z</time>
      </trkpt>
      <trkpt lat="44.89917" lon="1.63787">
        <ele>156.3</ele>
        <time>2022-08-07T07:25:31Z</time>
      </trkpt>
      <trkpt lat="44.89919" lon="1.63783">
        <ele>156.7</ele>
        <time>2022-08-07T07:25:33Z</time>
      </trkpt>
      <trkpt lat="44.89921" lon="1.6378">
        <ele>156.6</ele>
        <time>2022-08-07T07:25:35Z</time>
      </trkpt>
      <trkpt lat="44.89923" lon="1.63776">
        <ele>156.8</ele>
        <time>2022-08-07T07:25:37Z</time>
      </trkpt>
      <trkpt lat="44.89926" lon="1.63772">
        <ele>157.1</ele>
        <time>2022-08-07T07:25:39Z</time>
      </trkpt>
      <trkpt lat="44.89926" lon="1.63768">
        <ele>157.7</ele>
        <time>2022-08-07T07:25:41Z</time>
      </trkpt>
      <trkpt lat="44.89929" lon="1.63765">
        <ele>157.5</ele>
        <time>2022-08-07T07:25:43Z</time>
      </trkpt>
      <trkpt lat="44.89932" lon="1.63761">
        <ele>157.5</ele>
        <time>2022-08-07T07:25:45Z</time>
      </trkpt>
      <trkpt lat="44.89934" lon="1.63757">
        <ele>157.5</ele>
        <time>2022-08-07T07:25:47Z</time>
      </trkpt>
      <trkpt lat="44.89937" lon="1.63753">
        <ele>157.1</ele>
        <time>2022-08-07T07:25:49Z</time>
      </trkpt>
      <trkpt lat="44.89938" lon="1.63749">
        <ele>157.6</ele>
        <time>2022-08-07T07:25:51Z</time>
      </trkpt>
      <trkpt lat="44.89939" lon="1.63744">
        <ele>158</ele>
        <time>2022-08-07T07:25:53Z</time>
      </trkpt>
      <trkpt lat="44.89942" lon="1.63741">
        <ele>157.5</ele>
        <time>2022-08-07T07:25:55Z</time>
      </trkpt>
      <trkpt lat="44.89943" lon="1.63737">
        <ele>157.8</ele>
        <time>2022-08-07T07:25:57Z</time>
      </trkpt>
      <trkpt lat="44.89945" lon="1.63733">
        <ele>158</ele>
        <time>2022-08-07T07:25:59Z</time>
      </trkpt>
      <trkpt lat="44.89948" lon="1.6373">
        <ele>157.6</ele>
        <time>2022-08-07T07:26:01Z</time>
      </trkpt>
      <trkpt lat="44.8995" lon="1.63726">
        <ele>157.9</ele>
        <time>2022-08-07T07:26:03Z</time>
      </trkpt>
      <trkpt lat="44.89952" lon="1.63722">
        <ele>158</ele>
        <time>2022-08-07T07:26:05Z</time>
      </trkpt>
      <trkpt lat="44.89954" lon="1.63719">
        <ele>157.7</ele>
        <time>2022-08-07T07:26:07Z</time>
      </trkpt>
      <trkpt lat="44.89957" lon="1.63715">
        <ele>157.7</ele>
        <time>2022-08-07T07:26:09Z</time>
      </trkpt>
      <trkpt lat="44.89959" lon="1.63711">
        <ele>157.7</ele>
        <time>2022-08-07T07:26:11Z</time>
      </trkpt>
      <trkpt lat="44.89961" lon="1.63707">
        <ele>157.9</ele>
        <time>2022-08-07T07:26:13Z</time>
      </trkpt>
      <trkpt lat="44.89963" lon="1.63704">
        <ele>158</ele>
        <time>2022-08-07T07:26:15Z</time>
      </trkpt>
      <trkpt lat="44.89966" lon="1.63701">
        <ele>157.5</ele>
        <time>2022-08-07T07:26:17Z</time>
      </trkpt>
      <trkpt lat="44.89968" lon="1.63699">
        <ele>156.8</ele>
        <time>2022-08-07T07:26:19Z</time>
      </trkpt>
      <trkpt lat="44.89972" lon="1.63697">
        <ele>156</ele>
        <time>2022-08-07T07:26:21Z</time>
      </trkpt>
      <trkpt lat="44.89974" lon="1.63694">
        <ele>156</ele>
        <time>2022-08-07T07:26:23Z</time>
      </trkpt>
      <trkpt lat="44.89976" lon="1.63691">
        <ele>156</ele>
        <time>2022-08-07T07:26:25Z</time>
      </trkpt>
      <trkpt lat="44.89978" lon="1.63689">
        <ele>155.4</ele>
        <time>2022-08-07T07:26:27Z</time>
      </trkpt>
      <trkpt lat="44.89981" lon="1.63686">
        <ele>155.3</ele>
        <time>2022-08-07T07:26:29Z</time>
      </trkpt>
      <trkpt lat="44.89984" lon="1.63682">
        <ele>155</ele>
        <time>2022-08-07T07:26:31Z</time>
      </trkpt>
      <trkpt lat="44.89985" lon="1.63679">
        <ele>155.3</ele>
        <time>2022-08-07T07:26:33Z</time>
      </trkpt>
      <trkpt lat="44.89987" lon="1.63676">
        <ele>155.2</ele>
        <time>2022-08-07T07:26:35Z</time>
      </trkpt>
      <trkpt lat="44.8999" lon="1.63673">
        <ele>155.2</ele>
        <time>2022-08-07T07:26:37Z</time>
      </trkpt>
      <trkpt lat="44.89993" lon="1.6367">
        <ele>155.1</ele>
        <time>2022-08-07T07:26:39Z</time>
      </trkpt>
      <trkpt lat="44.89995" lon="1.63667">
        <ele>155</ele>
        <time>2022-08-07T07:26:41Z</time>
      </trkpt>
      <trkpt lat="44.89998" lon="1.63666">
        <ele>153.9</ele>
        <time>2022-08-07T07:26:43Z</time>
      </trkpt>
      <trkpt lat="44.90002" lon="1.63665">
        <ele>152.6</ele>
        <time>2022-08-07T07:26:45Z</time>
      </trkpt>
      <trkpt lat="44.90005" lon="1.63664">
        <ele>151.8</ele>
        <time>2022-08-07T07:26:47Z</time>
      </trkpt>
      <trkpt lat="44.90008" lon="1.63662">
        <ele>151.1</ele>
        <time>2022-08-07T07:26:49Z</time>
      </trkpt>
      <trkpt lat="44.9001" lon="1.63659">
        <ele>150.8</ele>
        <time>2022-08-07T07:26:51Z</time>
      </trkpt>
      <trkpt lat="44.90013" lon="1.63656">
        <ele>150.3</ele>
        <time>2022-08-07T07:26:53Z</time>
      </trkpt>
      <trkpt lat="44.90016" lon="1.63653">
        <ele>150</ele>
        <time>2022-08-07T07:26:55Z</time>
      </trkpt>
      <trkpt lat="44.90018" lon="1.63649">
        <ele>150</ele>
        <time>2022-08-07T07:26:57Z</time>
      </trkpt>
      <trkpt lat="44.9002" lon="1.63645">
        <ele>150.2</ele>
        <time>2022-08-07T07:26:59Z</time>
      </trkpt>
      <trkpt lat="44.90021" lon="1.63641">
        <ele>150.9</ele>
        <time>2022-08-07T07:27:01Z</time>
      </trkpt>
      <trkpt lat="44.90022" lon="1.63636">
        <ele>151.3</ele>
        <time>2022-08-07T07:27:03Z</time>
      </trkpt>
      <trkpt lat="44.90024" lon="1.63631">
        <ele>151.7</ele>
        <time>2022-08-07T07:27:05Z</time>
      </trkpt>
      <trkpt lat="44.90025" lon="1.63628">
        <ele>152.2</ele>
        <time>2022-08-07T07:27:07Z</time>
      </trkpt>
      <trkpt lat="44.90026" lon="1.63624">
        <ele>152.5</ele>
        <time>2022-08-07T07:27:09Z</time>
      </trkpt>
      <trkpt lat="44.90026" lon="1.63621">
        <ele>153.3</ele>
        <time>2022-08-07T07:27:11Z</time>
      </trkpt>
      <trkpt lat="44.90026" lon="1.63621">
        <ele>153.2</ele>
        <time>2022-08-07T07:27:13Z</time>
      </trkpt>
      <trkpt lat="44.90026" lon="1.6362">
        <ele>153.4</ele>
        <time>2022-08-07T07:27:15Z</time>
      </trkpt>
      <trkpt lat="44.90026" lon="1.6362">
        <ele>153.5</ele>
        <time>2022-08-07T07:27:17Z</time>
      </trkpt>
      <trkpt lat="44.90025" lon="1.63619">
        <ele>153.7</ele>
        <time>2022-08-07T07:27:19Z</time>
      </trkpt>
      <trkpt lat="44.9003" lon="1.63602">
        <ele>156</ele>
        <time>2022-08-07T07:28:11Z</time>
      </trkpt>
      <trkpt lat="44.90032" lon="1.63592">
        <ele>157.4</ele>
        <time>2022-08-07T07:28:13Z</time>
      </trkpt>
      <trkpt lat="44.90035" lon="1.63581">
        <ele>158.8</ele>
        <time>2022-08-07T07:28:15Z</time>
      </trkpt>
      <trkpt lat="44.90037" lon="1.63569">
        <ele>158.5</ele>
        <time>2022-08-07T07:28:17Z</time>
      </trkpt>
      <trkpt lat="44.9004" lon="1.63556">
        <ele>158.3</ele>
        <time>2022-08-07T07:28:19Z</time>
      </trkpt>
      <trkpt lat="44.90042" lon="1.63541">
        <ele>158.2</ele>
        <time>2022-08-07T07:28:21Z</time>
      </trkpt>
      <trkpt lat="44.90044" lon="1.63528">
        <ele>158</ele>
        <time>2022-08-07T07:28:23Z</time>
      </trkpt>
      <trkpt lat="44.90047" lon="1.63513">
        <ele>157.9</ele>
        <time>2022-08-07T07:28:25Z</time>
      </trkpt>
      <trkpt lat="44.90049" lon="1.63497">
        <ele>157.8</ele>
        <time>2022-08-07T07:28:27Z</time>
      </trkpt>
      <trkpt lat="44.90052" lon="1.63482">
        <ele>157.2</ele>
        <time>2022-08-07T07:28:29Z</time>
      </trkpt>
      <trkpt lat="44.90054" lon="1.63466">
        <ele>156.6</ele>
        <time>2022-08-07T07:28:31Z</time>
      </trkpt>
      <trkpt lat="44.90057" lon="1.6345">
        <ele>156.1</ele>
        <time>2022-08-07T07:28:33Z</time>
      </trkpt>
      <trkpt lat="44.90061" lon="1.63433">
        <ele>155.3</ele>
        <time>2022-08-07T07:28:35Z</time>
      </trkpt>
      <trkpt lat="44.90066" lon="1.63417">
        <ele>154.7</ele>
        <time>2022-08-07T07:28:37Z</time>
      </trkpt>
      <trkpt lat="44.90073" lon="1.63401">
        <ele>154.3</ele>
        <time>2022-08-07T07:28:39Z</time>
      </trkpt>
      <trkpt lat="44.90079" lon="1.63386">
        <ele>154.1</ele>
        <time>2022-08-07T07:28:41Z</time>
      </trkpt>
      <trkpt lat="44.90086" lon="1.63372">
        <ele>153.9</ele>
        <time>2022-08-07T07:28:43Z</time>
      </trkpt>
      <trkpt lat="44.90093" lon="1.63357">
        <ele>153.9</ele>
        <time>2022-08-07T07:28:45Z</time>
      </trkpt>
      <trkpt lat="44.90101" lon="1.63346">
        <ele>153.7</ele>
        <time>2022-08-07T07:28:47Z</time>
      </trkpt>
      <trkpt lat="44.9011" lon="1.63334">
        <ele>153.4</ele>
        <time>2022-08-07T07:28:49Z</time>
      </trkpt>
      <trkpt lat="44.9012" lon="1.63323">
        <ele>152.9</ele>
        <time>2022-08-07T07:28:51Z</time>
      </trkpt>
      <trkpt lat="44.90129" lon="1.63311">
        <ele>152.6</ele>
        <time>2022-08-07T07:28:53Z</time>
      </trkpt>
      <trkpt lat="44.90139" lon="1.633">
        <ele>152.2</ele>
        <time>2022-08-07T07:28:55Z</time>
      </trkpt>
      <trkpt lat="44.9015" lon="1.63289">
        <ele>152</ele>
        <time>2022-08-07T07:28:57Z</time>
      </trkpt>
      <trkpt lat="44.9016" lon="1.6328">
        <ele>151.7</ele>
        <time>2022-08-07T07:28:59Z</time>
      </trkpt>
      <trkpt lat="44.9017" lon="1.6327">
        <ele>151.1</ele>
        <time>2022-08-07T07:29:01Z</time>
      </trkpt>
      <trkpt lat="44.9018" lon="1.63261">
        <ele>149.7</ele>
        <time>2022-08-07T07:29:03Z</time>
      </trkpt>
      <trkpt lat="44.9019" lon="1.63249">
        <ele>148.6</ele>
        <time>2022-08-07T07:29:05Z</time>
      </trkpt>
      <trkpt lat="44.90198" lon="1.63235">
        <ele>147.5</ele>
        <time>2022-08-07T07:29:07Z</time>
      </trkpt>
      <trkpt lat="44.90203" lon="1.6322">
        <ele>147</ele>
        <time>2022-08-07T07:29:09Z</time>
      </trkpt>
      <trkpt lat="44.90208" lon="1.63204">
        <ele>146.9</ele>
        <time>2022-08-07T07:29:11Z</time>
      </trkpt>
      <trkpt lat="44.90213" lon="1.63189">
        <ele>147.1</ele>
        <time>2022-08-07T07:29:13Z</time>
      </trkpt>
      <trkpt lat="44.90218" lon="1.63173">
        <ele>147.4</ele>
        <time>2022-08-07T07:29:15Z</time>
      </trkpt>
      <trkpt lat="44.90221" lon="1.63157">
        <ele>147</ele>
        <time>2022-08-07T07:29:17Z</time>
      </trkpt>
      <trkpt lat="44.90226" lon="1.63139">
        <ele>146</ele>
        <time>2022-08-07T07:29:19Z</time>
      </trkpt>
      <trkpt lat="44.9023" lon="1.63121">
        <ele>145</ele>
        <time>2022-08-07T07:29:21Z</time>
      </trkpt>
      <trkpt lat="44.90234" lon="1.63102">
        <ele>144</ele>
        <time>2022-08-07T07:29:23Z</time>
      </trkpt>
      <trkpt lat="44.90237" lon="1.6308">
        <ele>142.8</ele>
        <time>2022-08-07T07:29:25Z</time>
      </trkpt>
      <trkpt lat="44.90239" lon="1.63056">
        <ele>141.1</ele>
        <time>2022-08-07T07:29:27Z</time>
      </trkpt>
      <trkpt lat="44.90238" lon="1.63032">
        <ele>139.4</ele>
        <time>2022-08-07T07:29:29Z</time>
      </trkpt>
      <trkpt lat="44.90233" lon="1.63009">
        <ele>138</ele>
        <time>2022-08-07T07:29:31Z</time>
      </trkpt>
      <trkpt lat="44.90224" lon="1.62989">
        <ele>136.8</ele>
        <time>2022-08-07T07:29:33Z</time>
      </trkpt>
      <trkpt lat="44.90211" lon="1.62977">
        <ele>136.4</ele>
        <time>2022-08-07T07:29:35Z</time>
      </trkpt>
      <trkpt lat="44.90197" lon="1.62971">
        <ele>136.5</ele>
        <time>2022-08-07T07:29:37Z</time>
      </trkpt>
      <trkpt lat="44.90187" lon="1.62966">
        <ele>136.6</ele>
        <time>2022-08-07T07:29:39Z</time>
      </trkpt>
      <trkpt lat="44.90176" lon="1.62957">
        <ele>136.5</ele>
        <time>2022-08-07T07:29:41Z</time>
      </trkpt>
      <trkpt lat="44.9017" lon="1.62939">
        <ele>135.9</ele>
        <time>2022-08-07T07:29:43Z</time>
      </trkpt>
      <trkpt lat="44.90172" lon="1.6292">
        <ele>134.9</ele>
        <time>2022-08-07T07:29:45Z</time>
      </trkpt>
      <trkpt lat="44.9018" lon="1.62905">
        <ele>135.1</ele>
        <time>2022-08-07T07:29:47Z</time>
      </trkpt>
      <trkpt lat="44.90191" lon="1.62894">
        <ele>135.1</ele>
        <time>2022-08-07T07:29:49Z</time>
      </trkpt>
      <trkpt lat="44.90201" lon="1.62885">
        <ele>134.8</ele>
        <time>2022-08-07T07:29:51Z</time>
      </trkpt>
      <trkpt lat="44.9021" lon="1.62876">
        <ele>134.5</ele>
        <time>2022-08-07T07:29:53Z</time>
      </trkpt>
      <trkpt lat="44.90222" lon="1.62867">
        <ele>133.9</ele>
        <time>2022-08-07T07:29:55Z</time>
      </trkpt>
      <trkpt lat="44.90234" lon="1.62861">
        <ele>132.9</ele>
        <time>2022-08-07T07:29:57Z</time>
      </trkpt>
      <trkpt lat="44.90246" lon="1.62856">
        <ele>131.8</ele>
        <time>2022-08-07T07:29:59Z</time>
      </trkpt>
      <trkpt lat="44.90259" lon="1.62851">
        <ele>131.4</ele>
        <time>2022-08-07T07:30:01Z</time>
      </trkpt>
      <trkpt lat="44.90271" lon="1.62848">
        <ele>131.2</ele>
        <time>2022-08-07T07:30:03Z</time>
      </trkpt>
      <trkpt lat="44.90282" lon="1.62842">
        <ele>131.1</ele>
        <time>2022-08-07T07:30:05Z</time>
      </trkpt>
      <trkpt lat="44.90292" lon="1.62832">
        <ele>131.1</ele>
        <time>2022-08-07T07:30:07Z</time>
      </trkpt>
      <trkpt lat="44.90299" lon="1.62818">
        <ele>131.8</ele>
        <time>2022-08-07T07:30:09Z</time>
      </trkpt>
      <trkpt lat="44.90304" lon="1.62803">
        <ele>132.5</ele>
        <time>2022-08-07T07:30:11Z</time>
      </trkpt>
      <trkpt lat="44.90309" lon="1.62791">
        <ele>133.1</ele>
        <time>2022-08-07T07:30:13Z</time>
      </trkpt>
      <trkpt lat="44.90314" lon="1.6278">
        <ele>133.5</ele>
        <time>2022-08-07T07:30:15Z</time>
      </trkpt>
      <trkpt lat="44.90317" lon="1.6277">
        <ele>133.9</ele>
        <time>2022-08-07T07:30:17Z</time>
      </trkpt>
      <trkpt lat="44.90321" lon="1.62759">
        <ele>134.2</ele>
        <time>2022-08-07T07:30:19Z</time>
      </trkpt>
      <trkpt lat="44.90325" lon="1.62751">
        <ele>134.5</ele>
        <time>2022-08-07T07:30:21Z</time>
      </trkpt>
      <trkpt lat="44.90328" lon="1.62741">
        <ele>134.3</ele>
        <time>2022-08-07T07:30:23Z</time>
      </trkpt>
      <trkpt lat="44.90331" lon="1.62731">
        <ele>134.2</ele>
        <time>2022-08-07T07:30:25Z</time>
      </trkpt>
      <trkpt lat="44.90334" lon="1.62721">
        <ele>134</ele>
        <time>2022-08-07T07:30:27Z</time>
      </trkpt>
      <trkpt lat="44.90336" lon="1.62711">
        <ele>133.9</ele>
        <time>2022-08-07T07:30:29Z</time>
      </trkpt>
      <trkpt lat="44.9034" lon="1.627">
        <ele>133.9</ele>
        <time>2022-08-07T07:30:31Z</time>
      </trkpt>
      <trkpt lat="44.90343" lon="1.62689">
        <ele>133.9</ele>
        <time>2022-08-07T07:30:33Z</time>
      </trkpt>
      <trkpt lat="44.90346" lon="1.62678">
        <ele>133.8</ele>
        <time>2022-08-07T07:30:35Z</time>
      </trkpt>
      <trkpt lat="44.90349" lon="1.62667">
        <ele>133.8</ele>
        <time>2022-08-07T07:30:37Z</time>
      </trkpt>
      <trkpt lat="44.90351" lon="1.62657">
        <ele>133.7</ele>
        <time>2022-08-07T07:30:39Z</time>
      </trkpt>
      <trkpt lat="44.90354" lon="1.62647">
        <ele>133.6</ele>
        <time>2022-08-07T07:30:41Z</time>
      </trkpt>
      <trkpt lat="44.90357" lon="1.62637">
        <ele>133.5</ele>
        <time>2022-08-07T07:30:43Z</time>
      </trkpt>
      <trkpt lat="44.9036" lon="1.62627">
        <ele>133.4</ele>
        <time>2022-08-07T07:30:45Z</time>
      </trkpt>
      <trkpt lat="44.90362" lon="1.62619">
        <ele>133.3</ele>
        <time>2022-08-07T07:30:47Z</time>
      </trkpt>
      <trkpt lat="44.90364" lon="1.6261">
        <ele>133.1</ele>
        <time>2022-08-07T07:30:49Z</time>
      </trkpt>
      <trkpt lat="44.90366" lon="1.62602">
        <ele>133</ele>
        <time>2022-08-07T07:30:51Z</time>
      </trkpt>
      <trkpt lat="44.90368" lon="1.62593">
        <ele>132.8</ele>
        <time>2022-08-07T07:30:53Z</time>
      </trkpt>
      <trkpt lat="44.90371" lon="1.62583">
        <ele>132.6</ele>
        <time>2022-08-07T07:30:55Z</time>
      </trkpt>
      <trkpt lat="44.90374" lon="1.62573">
        <ele>132.5</ele>
        <time>2022-08-07T07:30:57Z</time>
      </trkpt>
      <trkpt lat="44.90377" lon="1.62562">
        <ele>132.3</ele>
        <time>2022-08-07T07:30:59Z</time>
      </trkpt>
      <trkpt lat="44.9038" lon="1.62552">
        <ele>132.1</ele>
        <time>2022-08-07T07:31:01Z</time>
      </trkpt>
      <trkpt lat="44.90383" lon="1.62542">
        <ele>131.9</ele>
        <time>2022-08-07T07:31:03Z</time>
      </trkpt>
      <trkpt lat="44.90386" lon="1.62531">
        <ele>131.7</ele>
        <time>2022-08-07T07:31:05Z</time>
      </trkpt>
      <trkpt lat="44.90389" lon="1.62522">
        <ele>131.5</ele>
        <time>2022-08-07T07:31:07Z</time>
      </trkpt>
      <trkpt lat="44.90391" lon="1.62516">
        <ele>131.4</ele>
        <time>2022-08-07T07:31:09Z</time>
      </trkpt>
      <trkpt lat="44.90392" lon="1.62511">
        <ele>131.3</ele>
        <time>2022-08-07T07:31:11Z</time>
      </trkpt>
      <trkpt lat="44.90392" lon="1.62505">
        <ele>131.2</ele>
        <time>2022-08-07T07:31:13Z</time>
      </trkpt>
      <trkpt lat="44.90389" lon="1.62497">
        <ele>131.4</ele>
        <time>2022-08-07T07:31:15Z</time>
      </trkpt>
      <trkpt lat="44.90382" lon="1.62492">
        <ele>131.8</ele>
        <time>2022-08-07T07:31:17Z</time>
      </trkpt>
      <trkpt lat="44.90376" lon="1.62486">
        <ele>132.1</ele>
        <time>2022-08-07T07:31:19Z</time>
      </trkpt>
      <trkpt lat="44.90369" lon="1.6248">
        <ele>132.4</ele>
        <time>2022-08-07T07:31:21Z</time>
      </trkpt>
      <trkpt lat="44.90363" lon="1.62474">
        <ele>132.6</ele>
        <time>2022-08-07T07:31:23Z</time>
      </trkpt>
      <trkpt lat="44.90357" lon="1.62467">
        <ele>132.8</ele>
        <time>2022-08-07T07:31:25Z</time>
      </trkpt>
      <trkpt lat="44.90351" lon="1.62461">
        <ele>133</ele>
        <time>2022-08-07T07:31:27Z</time>
      </trkpt>
      <trkpt lat="44.90345" lon="1.62454">
        <ele>133.1</ele>
        <time>2022-08-07T07:31:29Z</time>
      </trkpt>
      <trkpt lat="44.90339" lon="1.62448">
        <ele>133.2</ele>
        <time>2022-08-07T07:31:31Z</time>
      </trkpt>
      <trkpt lat="44.90333" lon="1.62442">
        <ele>133.3</ele>
        <time>2022-08-07T07:31:33Z</time>
      </trkpt>
      <trkpt lat="44.90328" lon="1.62435">
        <ele>133.6</ele>
        <time>2022-08-07T07:31:35Z</time>
      </trkpt>
      <trkpt lat="44.90321" lon="1.62429">
        <ele>134</ele>
        <time>2022-08-07T07:31:37Z</time>
      </trkpt>
      <trkpt lat="44.90315" lon="1.62422">
        <ele>134.4</ele>
        <time>2022-08-07T07:31:39Z</time>
      </trkpt>
      <trkpt lat="44.90309" lon="1.62416">
        <ele>134.7</ele>
        <time>2022-08-07T07:31:41Z</time>
      </trkpt>
      <trkpt lat="44.90303" lon="1.6241">
        <ele>134.9</ele>
        <time>2022-08-07T07:31:43Z</time>
      </trkpt>
      <trkpt lat="44.90298" lon="1.62403">
        <ele>135</ele>
        <time>2022-08-07T07:31:45Z</time>
      </trkpt>
      <trkpt lat="44.90291" lon="1.62397">
        <ele>135.1</ele>
        <time>2022-08-07T07:31:47Z</time>
      </trkpt>
      <trkpt lat="44.90286" lon="1.62391">
        <ele>135.1</ele>
        <time>2022-08-07T07:31:49Z</time>
      </trkpt>
      <trkpt lat="44.90281" lon="1.62385">
        <ele>135.1</ele>
        <time>2022-08-07T07:31:51Z</time>
      </trkpt>
      <trkpt lat="44.90275" lon="1.6238">
        <ele>135.1</ele>
        <time>2022-08-07T07:31:53Z</time>
      </trkpt>
      <trkpt lat="44.9027" lon="1.62375">
        <ele>135</ele>
        <time>2022-08-07T07:31:55Z</time>
      </trkpt>
      <trkpt lat="44.90266" lon="1.62369">
        <ele>134.9</ele>
        <time>2022-08-07T07:31:57Z</time>
      </trkpt>
      <trkpt lat="44.90261" lon="1.62364">
        <ele>134.8</ele>
        <time>2022-08-07T07:31:59Z</time>
      </trkpt>
      <trkpt lat="44.90257" lon="1.62359">
        <ele>134.6</ele>
        <time>2022-08-07T07:32:01Z</time>
      </trkpt>
      <trkpt lat="44.90252" lon="1.62354">
        <ele>134.4</ele>
        <time>2022-08-07T07:32:03Z</time>
      </trkpt>
      <trkpt lat="44.90247" lon="1.62349">
        <ele>134.3</ele>
        <time>2022-08-07T07:32:05Z</time>
      </trkpt>
      <trkpt lat="44.90242" lon="1.62343">
        <ele>134</ele>
        <time>2022-08-07T07:32:07Z</time>
      </trkpt>
      <trkpt lat="44.90237" lon="1.62337">
        <ele>133.8</ele>
        <time>2022-08-07T07:32:09Z</time>
      </trkpt>
      <trkpt lat="44.90231" lon="1.62332">
        <ele>133.6</ele>
        <time>2022-08-07T07:32:11Z</time>
      </trkpt>
      <trkpt lat="44.90226" lon="1.62326">
        <ele>133.7</ele>
        <time>2022-08-07T07:32:13Z</time>
      </trkpt>
      <trkpt lat="44.90221" lon="1.6232">
        <ele>133.8</ele>
        <time>2022-08-07T07:32:15Z</time>
      </trkpt>
      <trkpt lat="44.90216" lon="1.62315">
        <ele>133.9</ele>
        <time>2022-08-07T07:32:17Z</time>
      </trkpt>
      <trkpt lat="44.9021" lon="1.6231">
        <ele>134</ele>
        <time>2022-08-07T07:32:19Z</time>
      </trkpt>
      <trkpt lat="44.90204" lon="1.62306">
        <ele>134.1</ele>
        <time>2022-08-07T07:32:21Z</time>
      </trkpt>
      <trkpt lat="44.90198" lon="1.62302">
        <ele>134.3</ele>
        <time>2022-08-07T07:32:23Z</time>
      </trkpt>
      <trkpt lat="44.9019" lon="1.62298">
        <ele>134.4</ele>
        <time>2022-08-07T07:32:25Z</time>
      </trkpt>
      <trkpt lat="44.90182" lon="1.62294">
        <ele>134.6</ele>
        <time>2022-08-07T07:32:27Z</time>
      </trkpt>
      <trkpt lat="44.90173" lon="1.62291">
        <ele>134.8</ele>
        <time>2022-08-07T07:32:29Z</time>
      </trkpt>
      <trkpt lat="44.90164" lon="1.62287">
        <ele>134.9</ele>
        <time>2022-08-07T07:32:31Z</time>
      </trkpt>
      <trkpt lat="44.90153" lon="1.62284">
        <ele>134.6</ele>
        <time>2022-08-07T07:32:33Z</time>
      </trkpt>
      <trkpt lat="44.90142" lon="1.6228">
        <ele>134.4</ele>
        <time>2022-08-07T07:32:35Z</time>
      </trkpt>
      <trkpt lat="44.9013" lon="1.62277">
        <ele>134.1</ele>
        <time>2022-08-07T07:32:37Z</time>
      </trkpt>
      <trkpt lat="44.90119" lon="1.62272">
        <ele>133.7</ele>
        <time>2022-08-07T07:32:39Z</time>
      </trkpt>
      <trkpt lat="44.90106" lon="1.62268">
        <ele>133.3</ele>
        <time>2022-08-07T07:32:41Z</time>
      </trkpt>
      <trkpt lat="44.90094" lon="1.62264">
        <ele>132.9</ele>
        <time>2022-08-07T07:32:43Z</time>
      </trkpt>
      <trkpt lat="44.90081" lon="1.6226">
        <ele>132.4</ele>
        <time>2022-08-07T07:32:45Z</time>
      </trkpt>
      <trkpt lat="44.90067" lon="1.62256">
        <ele>131.5</ele>
        <time>2022-08-07T07:32:47Z</time>
      </trkpt>
      <trkpt lat="44.90053" lon="1.62251">
        <ele>130.6</ele>
        <time>2022-08-07T07:32:49Z</time>
      </trkpt>
      <trkpt lat="44.90039" lon="1.62246">
        <ele>129.9</ele>
        <time>2022-08-07T07:32:51Z</time>
      </trkpt>
      <trkpt lat="44.90025" lon="1.62242">
        <ele>129.2</ele>
        <time>2022-08-07T07:32:53Z</time>
      </trkpt>
      <trkpt lat="44.9001" lon="1.62237">
        <ele>128.4</ele>
        <time>2022-08-07T07:32:55Z</time>
      </trkpt>
      <trkpt lat="44.89994" lon="1.62232">
        <ele>127.6</ele>
        <time>2022-08-07T07:32:57Z</time>
      </trkpt>
      <trkpt lat="44.89979" lon="1.62227">
        <ele>127.1</ele>
        <time>2022-08-07T07:32:59Z</time>
      </trkpt>
      <trkpt lat="44.89963" lon="1.62221">
        <ele>126.5</ele>
        <time>2022-08-07T07:33:01Z</time>
      </trkpt>
      <trkpt lat="44.89947" lon="1.62216">
        <ele>125.8</ele>
        <time>2022-08-07T07:33:03Z</time>
      </trkpt>
      <trkpt lat="44.8993" lon="1.6221">
        <ele>125</ele>
        <time>2022-08-07T07:33:05Z</time>
      </trkpt>
      <trkpt lat="44.89914" lon="1.62205">
        <ele>124.4</ele>
        <time>2022-08-07T07:33:07Z</time>
      </trkpt>
      <trkpt lat="44.89897" lon="1.62199">
        <ele>124.4</ele>
        <time>2022-08-07T07:33:09Z</time>
      </trkpt>
      <trkpt lat="44.8988" lon="1.62194">
        <ele>124.3</ele>
        <time>2022-08-07T07:33:11Z</time>
      </trkpt>
      <trkpt lat="44.89864" lon="1.62188">
        <ele>124.1</ele>
        <time>2022-08-07T07:33:13Z</time>
      </trkpt>
      <trkpt lat="44.89847" lon="1.62183">
        <ele>123.9</ele>
        <time>2022-08-07T07:33:15Z</time>
      </trkpt>
      <trkpt lat="44.89831" lon="1.62178">
        <ele>123.6</ele>
        <time>2022-08-07T07:33:17Z</time>
      </trkpt>
      <trkpt lat="44.89814" lon="1.62175">
        <ele>123.1</ele>
        <time>2022-08-07T07:33:19Z</time>
      </trkpt>
      <trkpt lat="44.89797" lon="1.62174">
        <ele>122.7</ele>
        <time>2022-08-07T07:33:21Z</time>
      </trkpt>
      <trkpt lat="44.8978" lon="1.62176">
        <ele>122.4</ele>
        <time>2022-08-07T07:33:23Z</time>
      </trkpt>
      <trkpt lat="44.89762" lon="1.62179">
        <ele>122.3</ele>
        <time>2022-08-07T07:33:25Z</time>
      </trkpt>
      <trkpt lat="44.89745" lon="1.62184">
        <ele>122.6</ele>
        <time>2022-08-07T07:33:27Z</time>
      </trkpt>
      <trkpt lat="44.89727" lon="1.62187">
        <ele>123.3</ele>
        <time>2022-08-07T07:33:29Z</time>
      </trkpt>
      <trkpt lat="44.89711" lon="1.62185">
        <ele>123.5</ele>
        <time>2022-08-07T07:33:31Z</time>
      </trkpt>
      <trkpt lat="44.89695" lon="1.6218">
        <ele>123.7</ele>
        <time>2022-08-07T07:33:33Z</time>
      </trkpt>
      <trkpt lat="44.89681" lon="1.62173">
        <ele>123.8</ele>
        <time>2022-08-07T07:33:35Z</time>
      </trkpt>
      <trkpt lat="44.89669" lon="1.62166">
        <ele>123.9</ele>
        <time>2022-08-07T07:33:37Z</time>
      </trkpt>
      <trkpt lat="44.89657" lon="1.62158">
        <ele>125.7</ele>
        <time>2022-08-07T07:33:39Z</time>
      </trkpt>
      <trkpt lat="44.89647" lon="1.62151">
        <ele>127.5</ele>
        <time>2022-08-07T07:33:41Z</time>
      </trkpt>
      <trkpt lat="44.89638" lon="1.62145">
        <ele>128.9</ele>
        <time>2022-08-07T07:33:43Z</time>
      </trkpt>
      <trkpt lat="44.8963" lon="1.62139">
        <ele>130</ele>
        <time>2022-08-07T07:33:45Z</time>
      </trkpt>
      <trkpt lat="44.89622" lon="1.62133">
        <ele>130.9</ele>
        <time>2022-08-07T07:33:47Z</time>
      </trkpt>
      <trkpt lat="44.89615" lon="1.62128">
        <ele>131.6</ele>
        <time>2022-08-07T07:33:49Z</time>
      </trkpt>
      <trkpt lat="44.89607" lon="1.62123">
        <ele>132.2</ele>
        <time>2022-08-07T07:33:51Z</time>
      </trkpt>
      <trkpt lat="44.896" lon="1.62118">
        <ele>132.6</ele>
        <time>2022-08-07T07:33:53Z</time>
      </trkpt>
      <trkpt lat="44.89593" lon="1.62113">
        <ele>133.1</ele>
        <time>2022-08-07T07:33:55Z</time>
      </trkpt>
      <trkpt lat="44.89587" lon="1.62108">
        <ele>133.2</ele>
        <time>2022-08-07T07:33:57Z</time>
      </trkpt>
      <trkpt lat="44.8958" lon="1.62103">
        <ele>133.4</ele>
        <time>2022-08-07T07:33:59Z</time>
      </trkpt>
      <trkpt lat="44.89573" lon="1.621">
        <ele>133.8</ele>
        <time>2022-08-07T07:34:01Z</time>
      </trkpt>
      <trkpt lat="44.89567" lon="1.62096">
        <ele>133.9</ele>
        <time>2022-08-07T07:34:03Z</time>
      </trkpt>
      <trkpt lat="44.89562" lon="1.62091">
        <ele>134</ele>
        <time>2022-08-07T07:34:05Z</time>
      </trkpt>
      <trkpt lat="44.89556" lon="1.62087">
        <ele>134.1</ele>
        <time>2022-08-07T07:34:07Z</time>
      </trkpt>
      <trkpt lat="44.8955" lon="1.62083">
        <ele>134.1</ele>
        <time>2022-08-07T07:34:09Z</time>
      </trkpt>
      <trkpt lat="44.89544" lon="1.62079">
        <ele>134.4</ele>
        <time>2022-08-07T07:34:11Z</time>
      </trkpt>
      <trkpt lat="44.89538" lon="1.62074">
        <ele>134.5</ele>
        <time>2022-08-07T07:34:13Z</time>
      </trkpt>
      <trkpt lat="44.89532" lon="1.6207">
        <ele>134.7</ele>
        <time>2022-08-07T07:34:15Z</time>
      </trkpt>
      <trkpt lat="44.89526" lon="1.62066">
        <ele>134.8</ele>
        <time>2022-08-07T07:34:17Z</time>
      </trkpt>
      <trkpt lat="44.89521" lon="1.62062">
        <ele>134.8</ele>
        <time>2022-08-07T07:34:19Z</time>
      </trkpt>
      <trkpt lat="44.89515" lon="1.62058">
        <ele>134.7</ele>
        <time>2022-08-07T07:34:21Z</time>
      </trkpt>
      <trkpt lat="44.8951" lon="1.62054">
        <ele>134.5</ele>
        <time>2022-08-07T07:34:23Z</time>
      </trkpt>
      <trkpt lat="44.89504" lon="1.6205">
        <ele>134.4</ele>
        <time>2022-08-07T07:34:25Z</time>
      </trkpt>
      <trkpt lat="44.89499" lon="1.62047">
        <ele>134.3</ele>
        <time>2022-08-07T07:34:27Z</time>
      </trkpt>
      <trkpt lat="44.89494" lon="1.62043">
        <ele>134.2</ele>
        <time>2022-08-07T07:34:29Z</time>
      </trkpt>
      <trkpt lat="44.89488" lon="1.62039">
        <ele>133.9</ele>
        <time>2022-08-07T07:34:31Z</time>
      </trkpt>
      <trkpt lat="44.89483" lon="1.62035">
        <ele>133.9</ele>
        <time>2022-08-07T07:34:33Z</time>
      </trkpt>
      <trkpt lat="44.89478" lon="1.62032">
        <ele>133.7</ele>
        <time>2022-08-07T07:34:35Z</time>
      </trkpt>
      <trkpt lat="44.89473" lon="1.62029">
        <ele>133.7</ele>
        <time>2022-08-07T07:34:37Z</time>
      </trkpt>
      <trkpt lat="44.89468" lon="1.62025">
        <ele>133.5</ele>
        <time>2022-08-07T07:34:39Z</time>
      </trkpt>
      <trkpt lat="44.89464" lon="1.62021">
        <ele>133.4</ele>
        <time>2022-08-07T07:34:41Z</time>
      </trkpt>
      <trkpt lat="44.89458" lon="1.62017">
        <ele>133.2</ele>
        <time>2022-08-07T07:34:43Z</time>
      </trkpt>
      <trkpt lat="44.89453" lon="1.62014">
        <ele>133.3</ele>
        <time>2022-08-07T07:34:45Z</time>
      </trkpt>
      <trkpt lat="44.89448" lon="1.62011">
        <ele>133.2</ele>
        <time>2022-08-07T07:34:47Z</time>
      </trkpt>
      <trkpt lat="44.89443" lon="1.62007">
        <ele>133.1</ele>
        <time>2022-08-07T07:34:49Z</time>
      </trkpt>
      <trkpt lat="44.89438" lon="1.62004">
        <ele>133</ele>
        <time>2022-08-07T07:34:51Z</time>
      </trkpt>
      <trkpt lat="44.89433" lon="1.62001">
        <ele>132.9</ele>
        <time>2022-08-07T07:34:53Z</time>
      </trkpt>
      <trkpt lat="44.89429" lon="1.61997">
        <ele>133.1</ele>
        <time>2022-08-07T07:34:55Z</time>
      </trkpt>
      <trkpt lat="44.89424" lon="1.61994">
        <ele>133.4</ele>
        <time>2022-08-07T07:34:57Z</time>
      </trkpt>
      <trkpt lat="44.89419" lon="1.61991">
        <ele>133.6</ele>
        <time>2022-08-07T07:34:59Z</time>
      </trkpt>
      <trkpt lat="44.89415" lon="1.61988">
        <ele>133.8</ele>
        <time>2022-08-07T07:35:01Z</time>
      </trkpt>
      <trkpt lat="44.8941" lon="1.61985">
        <ele>134</ele>
        <time>2022-08-07T07:35:03Z</time>
      </trkpt>
      <trkpt lat="44.89405" lon="1.61983">
        <ele>134.2</ele>
        <time>2022-08-07T07:35:05Z</time>
      </trkpt>
      <trkpt lat="44.894" lon="1.6198">
        <ele>134.4</ele>
        <time>2022-08-07T07:35:07Z</time>
      </trkpt>
      <trkpt lat="44.89395" lon="1.61977">
        <ele>134.6</ele>
        <time>2022-08-07T07:35:09Z</time>
      </trkpt>
      <trkpt lat="44.89389" lon="1.61974">
        <ele>134.8</ele>
        <time>2022-08-07T07:35:11Z</time>
      </trkpt>
      <trkpt lat="44.89383" lon="1.61971">
        <ele>135</ele>
        <time>2022-08-07T07:35:13Z</time>
      </trkpt>
      <trkpt lat="44.89377" lon="1.61969">
        <ele>135.3</ele>
        <time>2022-08-07T07:35:15Z</time>
      </trkpt>
      <trkpt lat="44.89371" lon="1.61967">
        <ele>135.6</ele>
        <time>2022-08-07T07:35:17Z</time>
      </trkpt>
      <trkpt lat="44.89365" lon="1.61965">
        <ele>135.8</ele>
        <time>2022-08-07T07:35:19Z</time>
      </trkpt>
      <trkpt lat="44.89359" lon="1.61963">
        <ele>136</ele>
        <time>2022-08-07T07:35:21Z</time>
      </trkpt>
      <trkpt lat="44.89353" lon="1.61961">
        <ele>136.3</ele>
        <time>2022-08-07T07:35:23Z</time>
      </trkpt>
      <trkpt lat="44.89347" lon="1.6196">
        <ele>136.6</ele>
        <time>2022-08-07T07:35:25Z</time>
      </trkpt>
      <trkpt lat="44.89341" lon="1.61958">
        <ele>136.8</ele>
        <time>2022-08-07T07:35:27Z</time>
      </trkpt>
      <trkpt lat="44.89335" lon="1.61958">
        <ele>137.3</ele>
        <time>2022-08-07T07:35:29Z</time>
      </trkpt>
      <trkpt lat="44.89328" lon="1.61958">
        <ele>137.7</ele>
        <time>2022-08-07T07:35:31Z</time>
      </trkpt>
      <trkpt lat="44.89322" lon="1.61957">
        <ele>137.9</ele>
        <time>2022-08-07T07:35:33Z</time>
      </trkpt>
      <trkpt lat="44.89316" lon="1.61955">
        <ele>138</ele>
        <time>2022-08-07T07:35:35Z</time>
      </trkpt>
      <trkpt lat="44.89309" lon="1.61955">
        <ele>138.3</ele>
        <time>2022-08-07T07:35:37Z</time>
      </trkpt>
      <trkpt lat="44.89304" lon="1.61954">
        <ele>138.6</ele>
        <time>2022-08-07T07:35:39Z</time>
      </trkpt>
      <trkpt lat="44.89298" lon="1.61954">
        <ele>139</ele>
        <time>2022-08-07T07:35:41Z</time>
      </trkpt>
      <trkpt lat="44.89292" lon="1.61955">
        <ele>139.4</ele>
        <time>2022-08-07T07:35:43Z</time>
      </trkpt>
      <trkpt lat="44.89286" lon="1.61954">
        <ele>139.7</ele>
        <time>2022-08-07T07:35:45Z</time>
      </trkpt>
      <trkpt lat="44.8928" lon="1.61954">
        <ele>140.1</ele>
        <time>2022-08-07T07:35:47Z</time>
      </trkpt>
      <trkpt lat="44.89273" lon="1.61955">
        <ele>140.6</ele>
        <time>2022-08-07T07:35:49Z</time>
      </trkpt>
      <trkpt lat="44.89267" lon="1.61955">
        <ele>141.1</ele>
        <time>2022-08-07T07:35:51Z</time>
      </trkpt>
      <trkpt lat="44.89261" lon="1.61956">
        <ele>141.6</ele>
        <time>2022-08-07T07:35:53Z</time>
      </trkpt>
      <trkpt lat="44.89255" lon="1.61957">
        <ele>142.2</ele>
        <time>2022-08-07T07:35:55Z</time>
      </trkpt>
      <trkpt lat="44.89249" lon="1.61957">
        <ele>142.6</ele>
        <time>2022-08-07T07:35:57Z</time>
      </trkpt>
      <trkpt lat="44.89243" lon="1.61958">
        <ele>143.5</ele>
        <time>2022-08-07T07:35:59Z</time>
      </trkpt>
      <trkpt lat="44.89237" lon="1.61957">
        <ele>144</ele>
        <time>2022-08-07T07:36:01Z</time>
      </trkpt>
      <trkpt lat="44.89231" lon="1.61957">
        <ele>144.4</ele>
        <time>2022-08-07T07:36:03Z</time>
      </trkpt>
      <trkpt lat="44.89225" lon="1.61956">
        <ele>144.8</ele>
        <time>2022-08-07T07:36:05Z</time>
      </trkpt>
      <trkpt lat="44.89219" lon="1.61955">
        <ele>145</ele>
        <time>2022-08-07T07:36:07Z</time>
      </trkpt>
      <trkpt lat="44.89213" lon="1.61953">
        <ele>145.2</ele>
        <time>2022-08-07T07:36:09Z</time>
      </trkpt>
      <trkpt lat="44.89207" lon="1.61952">
        <ele>145.5</ele>
        <time>2022-08-07T07:36:11Z</time>
      </trkpt>
      <trkpt lat="44.89201" lon="1.61951">
        <ele>145.5</ele>
        <time>2022-08-07T07:36:13Z</time>
      </trkpt>
      <trkpt lat="44.89195" lon="1.61949">
        <ele>145.6</ele>
        <time>2022-08-07T07:36:15Z</time>
      </trkpt>
      <trkpt lat="44.89189" lon="1.61947">
        <ele>145.6</ele>
        <time>2022-08-07T07:36:17Z</time>
      </trkpt>
      <trkpt lat="44.89183" lon="1.61945">
        <ele>145.8</ele>
        <time>2022-08-07T07:36:19Z</time>
      </trkpt>
      <trkpt lat="44.89177" lon="1.61944">
        <ele>146</ele>
        <time>2022-08-07T07:36:21Z</time>
      </trkpt>
      <trkpt lat="44.89171" lon="1.61942">
        <ele>146</ele>
        <time>2022-08-07T07:36:23Z</time>
      </trkpt>
      <trkpt lat="44.89165" lon="1.61941">
        <ele>146.3</ele>
        <time>2022-08-07T07:36:25Z</time>
      </trkpt>
      <trkpt lat="44.89158" lon="1.61938">
        <ele>146.3</ele>
        <time>2022-08-07T07:36:27Z</time>
      </trkpt>
      <trkpt lat="44.89152" lon="1.61936">
        <ele>146.5</ele>
        <time>2022-08-07T07:36:29Z</time>
      </trkpt>
      <trkpt lat="44.89146" lon="1.61934">
        <ele>146.8</ele>
        <time>2022-08-07T07:36:31Z</time>
      </trkpt>
      <trkpt lat="44.89139" lon="1.61933">
        <ele>147.2</ele>
        <time>2022-08-07T07:36:33Z</time>
      </trkpt>
      <trkpt lat="44.89132" lon="1.61931">
        <ele>147.4</ele>
        <time>2022-08-07T07:36:35Z</time>
      </trkpt>
      <trkpt lat="44.89126" lon="1.61929">
        <ele>147.7</ele>
        <time>2022-08-07T07:36:37Z</time>
      </trkpt>
      <trkpt lat="44.89119" lon="1.61926">
        <ele>147.8</ele>
        <time>2022-08-07T07:36:39Z</time>
      </trkpt>
      <trkpt lat="44.89113" lon="1.61923">
        <ele>148</ele>
        <time>2022-08-07T07:36:41Z</time>
      </trkpt>
      <trkpt lat="44.89107" lon="1.61921">
        <ele>148.2</ele>
        <time>2022-08-07T07:36:43Z</time>
      </trkpt>
      <trkpt lat="44.891" lon="1.61919">
        <ele>148.5</ele>
        <time>2022-08-07T07:36:45Z</time>
      </trkpt>
      <trkpt lat="44.89094" lon="1.61918">
        <ele>148.9</ele>
        <time>2022-08-07T07:36:47Z</time>
      </trkpt>
      <trkpt lat="44.89087" lon="1.61917">
        <ele>149.5</ele>
        <time>2022-08-07T07:36:49Z</time>
      </trkpt>
      <trkpt lat="44.89081" lon="1.61915">
        <ele>149.2</ele>
        <time>2022-08-07T07:36:51Z</time>
      </trkpt>
      <trkpt lat="44.89076" lon="1.61914">
        <ele>148.4</ele>
        <time>2022-08-07T07:36:53Z</time>
      </trkpt>
      <trkpt lat="44.89069" lon="1.61913">
        <ele>147.4</ele>
        <time>2022-08-07T07:36:55Z</time>
      </trkpt>
      <trkpt lat="44.89063" lon="1.61912">
        <ele>146.5</ele>
        <time>2022-08-07T07:36:57Z</time>
      </trkpt>
      <trkpt lat="44.89057" lon="1.61912">
        <ele>145.8</ele>
        <time>2022-08-07T07:36:59Z</time>
      </trkpt>
      <trkpt lat="44.89051" lon="1.61912">
        <ele>145.4</ele>
        <time>2022-08-07T07:37:01Z</time>
      </trkpt>
      <trkpt lat="44.89045" lon="1.61913">
        <ele>145.1</ele>
        <time>2022-08-07T07:37:03Z</time>
      </trkpt>
      <trkpt lat="44.8904" lon="1.61914">
        <ele>144.9</ele>
        <time>2022-08-07T07:37:05Z</time>
      </trkpt>
      <trkpt lat="44.89034" lon="1.61916">
        <ele>144.9</ele>
        <time>2022-08-07T07:37:07Z</time>
      </trkpt>
      <trkpt lat="44.89028" lon="1.61918">
        <ele>145</ele>
        <time>2022-08-07T07:37:09Z</time>
      </trkpt>
      <trkpt lat="44.89022" lon="1.6192">
        <ele>145.4</ele>
        <time>2022-08-07T07:37:11Z</time>
      </trkpt>
      <trkpt lat="44.89016" lon="1.61923">
        <ele>145.9</ele>
        <time>2022-08-07T07:37:13Z</time>
      </trkpt>
      <trkpt lat="44.89011" lon="1.61926">
        <ele>146.4</ele>
        <time>2022-08-07T07:37:15Z</time>
      </trkpt>
      <trkpt lat="44.89006" lon="1.61929">
        <ele>147.2</ele>
        <time>2022-08-07T07:37:17Z</time>
      </trkpt>
      <trkpt lat="44.89" lon="1.61932">
        <ele>147.7</ele>
        <time>2022-08-07T07:37:19Z</time>
      </trkpt>
      <trkpt lat="44.88995" lon="1.61935">
        <ele>148.6</ele>
        <time>2022-08-07T07:37:21Z</time>
      </trkpt>
      <trkpt lat="44.8899" lon="1.61938">
        <ele>149.7</ele>
        <time>2022-08-07T07:37:23Z</time>
      </trkpt>
      <trkpt lat="44.88984" lon="1.61942">
        <ele>150.6</ele>
        <time>2022-08-07T07:37:25Z</time>
      </trkpt>
      <trkpt lat="44.88979" lon="1.61944">
        <ele>151.5</ele>
        <time>2022-08-07T07:37:27Z</time>
      </trkpt>
      <trkpt lat="44.88974" lon="1.61948">
        <ele>152.5</ele>
        <time>2022-08-07T07:37:29Z</time>
      </trkpt>
      <trkpt lat="44.88969" lon="1.6195">
        <ele>153.3</ele>
        <time>2022-08-07T07:37:31Z</time>
      </trkpt>
      <trkpt lat="44.88963" lon="1.61954">
        <ele>154.3</ele>
        <time>2022-08-07T07:37:33Z</time>
      </trkpt>
      <trkpt lat="44.88958" lon="1.61956">
        <ele>155</ele>
        <time>2022-08-07T07:37:35Z</time>
      </trkpt>
      <trkpt lat="44.88952" lon="1.61957">
        <ele>155</ele>
        <time>2022-08-07T07:37:37Z</time>
      </trkpt>
      <trkpt lat="44.88946" lon="1.61956">
        <ele>154.6</ele>
        <time>2022-08-07T07:37:39Z</time>
      </trkpt>
      <trkpt lat="44.88941" lon="1.61955">
        <ele>153.9</ele>
        <time>2022-08-07T07:37:41Z</time>
      </trkpt>
      <trkpt lat="44.88935" lon="1.61954">
        <ele>152.9</ele>
        <time>2022-08-07T07:37:43Z</time>
      </trkpt>
      <trkpt lat="44.88929" lon="1.61951">
        <ele>151.7</ele>
        <time>2022-08-07T07:37:45Z</time>
      </trkpt>
      <trkpt lat="44.88924" lon="1.61949">
        <ele>150.4</ele>
        <time>2022-08-07T07:37:47Z</time>
      </trkpt>
      <trkpt lat="44.88918" lon="1.61947">
        <ele>149.1</ele>
        <time>2022-08-07T07:37:49Z</time>
      </trkpt>
      <trkpt lat="44.88913" lon="1.61945">
        <ele>148.2</ele>
        <time>2022-08-07T07:37:51Z</time>
      </trkpt>
      <trkpt lat="44.88907" lon="1.61944">
        <ele>147.9</ele>
        <time>2022-08-07T07:37:53Z</time>
      </trkpt>
      <trkpt lat="44.88901" lon="1.61942">
        <ele>147.4</ele>
        <time>2022-08-07T07:37:55Z</time>
      </trkpt>
      <trkpt lat="44.88895" lon="1.61941">
        <ele>146.9</ele>
        <time>2022-08-07T07:37:57Z</time>
      </trkpt>
      <trkpt lat="44.88889" lon="1.61941">
        <ele>146.8</ele>
        <time>2022-08-07T07:37:59Z</time>
      </trkpt>
      <trkpt lat="44.88883" lon="1.6194">
        <ele>146.6</ele>
        <time>2022-08-07T07:38:01Z</time>
      </trkpt>
      <trkpt lat="44.88877" lon="1.6194">
        <ele>146.6</ele>
        <time>2022-08-07T07:38:03Z</time>
      </trkpt>
      <trkpt lat="44.88871" lon="1.61939">
        <ele>146.5</ele>
        <time>2022-08-07T07:38:05Z</time>
      </trkpt>
      <trkpt lat="44.88865" lon="1.61939">
        <ele>146.7</ele>
        <time>2022-08-07T07:38:07Z</time>
      </trkpt>
      <trkpt lat="44.88859" lon="1.61939">
        <ele>146.7</ele>
        <time>2022-08-07T07:38:09Z</time>
      </trkpt>
      <trkpt lat="44.88854" lon="1.6194">
        <ele>147.2</ele>
        <time>2022-08-07T07:38:11Z</time>
      </trkpt>
      <trkpt lat="44.88848" lon="1.61941">
        <ele>147.7</ele>
        <time>2022-08-07T07:38:13Z</time>
      </trkpt>
      <trkpt lat="44.88842" lon="1.61941">
        <ele>148</ele>
        <time>2022-08-07T07:38:15Z</time>
      </trkpt>
      <trkpt lat="44.88836" lon="1.61943">
        <ele>148.5</ele>
        <time>2022-08-07T07:38:17Z</time>
      </trkpt>
      <trkpt lat="44.88831" lon="1.61944">
        <ele>148.8</ele>
        <time>2022-08-07T07:38:19Z</time>
      </trkpt>
      <trkpt lat="44.88825" lon="1.61945">
        <ele>148.9</ele>
        <time>2022-08-07T07:38:21Z</time>
      </trkpt>
      <trkpt lat="44.8882" lon="1.61947">
        <ele>149.2</ele>
        <time>2022-08-07T07:38:23Z</time>
      </trkpt>
      <trkpt lat="44.88814" lon="1.61948">
        <ele>149.3</ele>
        <time>2022-08-07T07:38:25Z</time>
      </trkpt>
      <trkpt lat="44.88808" lon="1.6195">
        <ele>149.7</ele>
        <time>2022-08-07T07:38:27Z</time>
      </trkpt>
      <trkpt lat="44.88803" lon="1.61952">
        <ele>150.1</ele>
        <time>2022-08-07T07:38:29Z</time>
      </trkpt>
      <trkpt lat="44.88798" lon="1.61955">
        <ele>150.9</ele>
        <time>2022-08-07T07:38:31Z</time>
      </trkpt>
      <trkpt lat="44.88792" lon="1.61959">
        <ele>151.6</ele>
        <time>2022-08-07T07:38:33Z</time>
      </trkpt>
      <trkpt lat="44.88787" lon="1.61963">
        <ele>152.8</ele>
        <time>2022-08-07T07:38:35Z</time>
      </trkpt>
      <trkpt lat="44.88782" lon="1.61968">
        <ele>154.2</ele>
        <time>2022-08-07T07:38:37Z</time>
      </trkpt>
      <trkpt lat="44.88778" lon="1.61972">
        <ele>155.4</ele>
        <time>2022-08-07T07:38:39Z</time>
      </trkpt>
      <trkpt lat="44.88773" lon="1.61976">
        <ele>156.4</ele>
        <time>2022-08-07T07:38:41Z</time>
      </trkpt>
      <trkpt lat="44.88768" lon="1.6198">
        <ele>157.4</ele>
        <time>2022-08-07T07:38:43Z</time>
      </trkpt>
      <trkpt lat="44.88763" lon="1.61983">
        <ele>158</ele>
        <time>2022-08-07T07:38:45Z</time>
      </trkpt>
      <trkpt lat="44.88757" lon="1.61984">
        <ele>158.1</ele>
        <time>2022-08-07T07:38:47Z</time>
      </trkpt>
      <trkpt lat="44.88751" lon="1.61985">
        <ele>157.6</ele>
        <time>2022-08-07T07:38:49Z</time>
      </trkpt>
      <trkpt lat="44.88745" lon="1.61984">
        <ele>157.5</ele>
        <time>2022-08-07T07:38:51Z</time>
      </trkpt>
      <trkpt lat="44.88739" lon="1.61982">
        <ele>156.9</ele>
        <time>2022-08-07T07:38:53Z</time>
      </trkpt>
      <trkpt lat="44.88734" lon="1.6198">
        <ele>156.5</ele>
        <time>2022-08-07T07:38:55Z</time>
      </trkpt>
      <trkpt lat="44.88728" lon="1.61978">
        <ele>155.9</ele>
        <time>2022-08-07T07:38:57Z</time>
      </trkpt>
      <trkpt lat="44.88722" lon="1.61976">
        <ele>155.5</ele>
        <time>2022-08-07T07:38:59Z</time>
      </trkpt>
      <trkpt lat="44.88717" lon="1.61975">
        <ele>155.3</ele>
        <time>2022-08-07T07:39:01Z</time>
      </trkpt>
      <trkpt lat="44.88711" lon="1.61975">
        <ele>155.4</ele>
        <time>2022-08-07T07:39:03Z</time>
      </trkpt>
      <trkpt lat="44.88705" lon="1.61975">
        <ele>155.6</ele>
        <time>2022-08-07T07:39:05Z</time>
      </trkpt>
      <trkpt lat="44.88699" lon="1.61975">
        <ele>155.9</ele>
        <time>2022-08-07T07:39:07Z</time>
      </trkpt>
      <trkpt lat="44.88694" lon="1.61975">
        <ele>156.3</ele>
        <time>2022-08-07T07:39:09Z</time>
      </trkpt>
      <trkpt lat="44.88688" lon="1.61976">
        <ele>156.9</ele>
        <time>2022-08-07T07:39:11Z</time>
      </trkpt>
      <trkpt lat="44.88682" lon="1.61977">
        <ele>157.6</ele>
        <time>2022-08-07T07:39:13Z</time>
      </trkpt>
      <trkpt lat="44.88676" lon="1.61978">
        <ele>158.3</ele>
        <time>2022-08-07T07:39:15Z</time>
      </trkpt>
      <trkpt lat="44.8867" lon="1.6198">
        <ele>159.1</ele>
        <time>2022-08-07T07:39:17Z</time>
      </trkpt>
      <trkpt lat="44.88665" lon="1.61981">
        <ele>159.7</ele>
        <time>2022-08-07T07:39:19Z</time>
      </trkpt>
      <trkpt lat="44.88659" lon="1.61981">
        <ele>160.1</ele>
        <time>2022-08-07T07:39:21Z</time>
      </trkpt>
      <trkpt lat="44.88654" lon="1.61982">
        <ele>160.6</ele>
        <time>2022-08-07T07:39:23Z</time>
      </trkpt>
      <trkpt lat="44.88647" lon="1.61983">
        <ele>161.1</ele>
        <time>2022-08-07T07:39:25Z</time>
      </trkpt>
      <trkpt lat="44.88641" lon="1.61984">
        <ele>161.5</ele>
        <time>2022-08-07T07:39:27Z</time>
      </trkpt>
      <trkpt lat="44.88636" lon="1.61985">
        <ele>162.1</ele>
        <time>2022-08-07T07:39:29Z</time>
      </trkpt>
      <trkpt lat="44.8863" lon="1.61985">
        <ele>162.3</ele>
        <time>2022-08-07T07:39:31Z</time>
      </trkpt>
      <trkpt lat="44.88624" lon="1.61986">
        <ele>162.7</ele>
        <time>2022-08-07T07:39:33Z</time>
      </trkpt>
      <trkpt lat="44.88618" lon="1.61987">
        <ele>163.1</ele>
        <time>2022-08-07T07:39:35Z</time>
      </trkpt>
      <trkpt lat="44.88612" lon="1.61987">
        <ele>163.2</ele>
        <time>2022-08-07T07:39:37Z</time>
      </trkpt>
      <trkpt lat="44.88606" lon="1.61987">
        <ele>163.5</ele>
        <time>2022-08-07T07:39:39Z</time>
      </trkpt>
      <trkpt lat="44.886" lon="1.61988">
        <ele>163.8</ele>
        <time>2022-08-07T07:39:41Z</time>
      </trkpt>
      <trkpt lat="44.88595" lon="1.61988">
        <ele>164</ele>
        <time>2022-08-07T07:39:43Z</time>
      </trkpt>
      <trkpt lat="44.88589" lon="1.61987">
        <ele>164</ele>
        <time>2022-08-07T07:39:45Z</time>
      </trkpt>
      <trkpt lat="44.88582" lon="1.61987">
        <ele>163.9</ele>
        <time>2022-08-07T07:39:47Z</time>
      </trkpt>
      <trkpt lat="44.88576" lon="1.61986">
        <ele>164.1</ele>
        <time>2022-08-07T07:39:49Z</time>
      </trkpt>
      <trkpt lat="44.88571" lon="1.61987">
        <ele>164.5</ele>
        <time>2022-08-07T07:39:51Z</time>
      </trkpt>
      <trkpt lat="44.88565" lon="1.61986">
        <ele>164.6</ele>
        <time>2022-08-07T07:39:53Z</time>
      </trkpt>
      <trkpt lat="44.88559" lon="1.61986">
        <ele>164.8</ele>
        <time>2022-08-07T07:39:55Z</time>
      </trkpt>
      <trkpt lat="44.88553" lon="1.61985">
        <ele>164.7</ele>
        <time>2022-08-07T07:39:57Z</time>
      </trkpt>
      <trkpt lat="44.88547" lon="1.61984">
        <ele>164.9</ele>
        <time>2022-08-07T07:39:59Z</time>
      </trkpt>
      <trkpt lat="44.88541" lon="1.61983">
        <ele>164.6</ele>
        <time>2022-08-07T07:40:01Z</time>
      </trkpt>
      <trkpt lat="44.88535" lon="1.61982">
        <ele>164.4</ele>
        <time>2022-08-07T07:40:03Z</time>
      </trkpt>
      <trkpt lat="44.88529" lon="1.61981">
        <ele>164.1</ele>
        <time>2022-08-07T07:40:05Z</time>
      </trkpt>
      <trkpt lat="44.88523" lon="1.61979">
        <ele>163.8</ele>
        <time>2022-08-07T07:40:07Z</time>
      </trkpt>
      <trkpt lat="44.88517" lon="1.61977">
        <ele>163.4</ele>
        <time>2022-08-07T07:40:09Z</time>
      </trkpt>
      <trkpt lat="44.88511" lon="1.61976">
        <ele>163</ele>
        <time>2022-08-07T07:40:11Z</time>
      </trkpt>
      <trkpt lat="44.88505" lon="1.61975">
        <ele>162.9</ele>
        <time>2022-08-07T07:40:13Z</time>
      </trkpt>
      <trkpt lat="44.88499" lon="1.61974">
        <ele>162.8</ele>
        <time>2022-08-07T07:40:15Z</time>
      </trkpt>
      <trkpt lat="44.88494" lon="1.61973">
        <ele>163.3</ele>
        <time>2022-08-07T07:40:17Z</time>
      </trkpt>
      <trkpt lat="44.88488" lon="1.61971">
        <ele>163.5</ele>
        <time>2022-08-07T07:40:19Z</time>
      </trkpt>
      <trkpt lat="44.88482" lon="1.6197">
        <ele>163.8</ele>
        <time>2022-08-07T07:40:21Z</time>
      </trkpt>
      <trkpt lat="44.88477" lon="1.61968">
        <ele>164.3</ele>
        <time>2022-08-07T07:40:23Z</time>
      </trkpt>
      <trkpt lat="44.88471" lon="1.61967">
        <ele>164.8</ele>
        <time>2022-08-07T07:40:25Z</time>
      </trkpt>
      <trkpt lat="44.88466" lon="1.61966">
        <ele>164.9</ele>
        <time>2022-08-07T07:40:27Z</time>
      </trkpt>
      <trkpt lat="44.8846" lon="1.61964">
        <ele>165.2</ele>
        <time>2022-08-07T07:40:29Z</time>
      </trkpt>
      <trkpt lat="44.88454" lon="1.61962">
        <ele>165.6</ele>
        <time>2022-08-07T07:40:31Z</time>
      </trkpt>
      <trkpt lat="44.88448" lon="1.61961">
        <ele>166</ele>
        <time>2022-08-07T07:40:33Z</time>
      </trkpt>
      <trkpt lat="44.88442" lon="1.61959">
        <ele>166.3</ele>
        <time>2022-08-07T07:40:35Z</time>
      </trkpt>
      <trkpt lat="44.88436" lon="1.61958">
        <ele>166.7</ele>
        <time>2022-08-07T07:40:37Z</time>
      </trkpt>
      <trkpt lat="44.8843" lon="1.61956">
        <ele>167.2</ele>
        <time>2022-08-07T07:40:39Z</time>
      </trkpt>
      <trkpt lat="44.88424" lon="1.61955">
        <ele>167.7</ele>
        <time>2022-08-07T07:40:41Z</time>
      </trkpt>
      <trkpt lat="44.88419" lon="1.61953">
        <ele>167.9</ele>
        <time>2022-08-07T07:40:43Z</time>
      </trkpt>
      <trkpt lat="44.88413" lon="1.61952">
        <ele>168.6</ele>
        <time>2022-08-07T07:40:45Z</time>
      </trkpt>
      <trkpt lat="44.88408" lon="1.61951">
        <ele>169.6</ele>
        <time>2022-08-07T07:40:47Z</time>
      </trkpt>
      <trkpt lat="44.88401" lon="1.61949">
        <ele>170.5</ele>
        <time>2022-08-07T07:40:49Z</time>
      </trkpt>
      <trkpt lat="44.88395" lon="1.61947">
        <ele>171.1</ele>
        <time>2022-08-07T07:40:51Z</time>
      </trkpt>
      <trkpt lat="44.88389" lon="1.61945">
        <ele>171.8</ele>
        <time>2022-08-07T07:40:53Z</time>
      </trkpt>
      <trkpt lat="44.88383" lon="1.61942">
        <ele>172.6</ele>
        <time>2022-08-07T07:40:55Z</time>
      </trkpt>
      <trkpt lat="44.88378" lon="1.61939">
        <ele>172.7</ele>
        <time>2022-08-07T07:40:57Z</time>
      </trkpt>
      <trkpt lat="44.88373" lon="1.61936">
        <ele>172.9</ele>
        <time>2022-08-07T07:40:59Z</time>
      </trkpt>
      <trkpt lat="44.88367" lon="1.61932">
        <ele>173.1</ele>
        <time>2022-08-07T07:41:01Z</time>
      </trkpt>
      <trkpt lat="44.88362" lon="1.61928">
        <ele>173.1</ele>
        <time>2022-08-07T07:41:03Z</time>
      </trkpt>
      <trkpt lat="44.88357" lon="1.61923">
        <ele>172.7</ele>
        <time>2022-08-07T07:41:05Z</time>
      </trkpt>
      <trkpt lat="44.88352" lon="1.61918">
        <ele>172.3</ele>
        <time>2022-08-07T07:41:07Z</time>
      </trkpt>
      <trkpt lat="44.88347" lon="1.61913">
        <ele>171.4</ele>
        <time>2022-08-07T07:41:09Z</time>
      </trkpt>
      <trkpt lat="44.88342" lon="1.61909">
        <ele>170.8</ele>
        <time>2022-08-07T07:41:11Z</time>
      </trkpt>
      <trkpt lat="44.88337" lon="1.61904">
        <ele>170</ele>
        <time>2022-08-07T07:41:13Z</time>
      </trkpt>
      <trkpt lat="44.88332" lon="1.61899">
        <ele>169.2</ele>
        <time>2022-08-07T07:41:15Z</time>
      </trkpt>
      <trkpt lat="44.88328" lon="1.61895">
        <ele>168.8</ele>
        <time>2022-08-07T07:41:17Z</time>
      </trkpt>
      <trkpt lat="44.88323" lon="1.61891">
        <ele>168.6</ele>
        <time>2022-08-07T07:41:19Z</time>
      </trkpt>
      <trkpt lat="44.88318" lon="1.61886">
        <ele>168.3</ele>
        <time>2022-08-07T07:41:21Z</time>
      </trkpt>
      <trkpt lat="44.88313" lon="1.61882">
        <ele>168.3</ele>
        <time>2022-08-07T07:41:23Z</time>
      </trkpt>
      <trkpt lat="44.88308" lon="1.61878">
        <ele>168.3</ele>
        <time>2022-08-07T07:41:25Z</time>
      </trkpt>
      <trkpt lat="44.88303" lon="1.61875">
        <ele>168.6</ele>
        <time>2022-08-07T07:41:27Z</time>
      </trkpt>
      <trkpt lat="44.88298" lon="1.61871">
        <ele>168.6</ele>
        <time>2022-08-07T07:41:29Z</time>
      </trkpt>
      <trkpt lat="44.88293" lon="1.61867">
        <ele>168.7</ele>
        <time>2022-08-07T07:41:31Z</time>
      </trkpt>
      <trkpt lat="44.88288" lon="1.61863">
        <ele>169</ele>
        <time>2022-08-07T07:41:33Z</time>
      </trkpt>
      <trkpt lat="44.88284" lon="1.6186">
        <ele>169.2</ele>
        <time>2022-08-07T07:41:35Z</time>
      </trkpt>
      <trkpt lat="44.88279" lon="1.61857">
        <ele>170</ele>
        <time>2022-08-07T07:41:37Z</time>
      </trkpt>
      <trkpt lat="44.88274" lon="1.61854">
        <ele>170.5</ele>
        <time>2022-08-07T07:41:39Z</time>
      </trkpt>
      <trkpt lat="44.8827" lon="1.61852">
        <ele>171.4</ele>
        <time>2022-08-07T07:41:41Z</time>
      </trkpt>
      <trkpt lat="44.88265" lon="1.6185">
        <ele>172.2</ele>
        <time>2022-08-07T07:41:43Z</time>
      </trkpt>
      <trkpt lat="44.8826" lon="1.61847">
        <ele>173</ele>
        <time>2022-08-07T07:41:45Z</time>
      </trkpt>
      <trkpt lat="44.88255" lon="1.61844">
        <ele>174.2</ele>
        <time>2022-08-07T07:41:47Z</time>
      </trkpt>
      <trkpt lat="44.8825" lon="1.61843">
        <ele>175.3</ele>
        <time>2022-08-07T07:41:49Z</time>
      </trkpt>
      <trkpt lat="44.88245" lon="1.6184">
        <ele>175.3</ele>
        <time>2022-08-07T07:41:51Z</time>
      </trkpt>
      <trkpt lat="44.8824" lon="1.61837">
        <ele>175.3</ele>
        <time>2022-08-07T07:41:53Z</time>
      </trkpt>
      <trkpt lat="44.88234" lon="1.61834">
        <ele>175.2</ele>
        <time>2022-08-07T07:41:55Z</time>
      </trkpt>
      <trkpt lat="44.8823" lon="1.61832">
        <ele>175</ele>
        <time>2022-08-07T07:41:57Z</time>
      </trkpt>
      <trkpt lat="44.88225" lon="1.61829">
        <ele>174.6</ele>
        <time>2022-08-07T07:41:59Z</time>
      </trkpt>
      <trkpt lat="44.88221" lon="1.61825">
        <ele>173.9</ele>
        <time>2022-08-07T07:42:01Z</time>
      </trkpt>
      <trkpt lat="44.88216" lon="1.61821">
        <ele>173.3</ele>
        <time>2022-08-07T07:42:03Z</time>
      </trkpt>
      <trkpt lat="44.88212" lon="1.61818">
        <ele>172.8</ele>
        <time>2022-08-07T07:42:05Z</time>
      </trkpt>
      <trkpt lat="44.88208" lon="1.61815">
        <ele>172.7</ele>
        <time>2022-08-07T07:42:07Z</time>
      </trkpt>
      <trkpt lat="44.88204" lon="1.61811">
        <ele>172.3</ele>
        <time>2022-08-07T07:42:09Z</time>
      </trkpt>
      <trkpt lat="44.88199" lon="1.61808">
        <ele>172.1</ele>
        <time>2022-08-07T07:42:11Z</time>
      </trkpt>
      <trkpt lat="44.88195" lon="1.61803">
        <ele>171.6</ele>
        <time>2022-08-07T07:42:13Z</time>
      </trkpt>
      <trkpt lat="44.88191" lon="1.618">
        <ele>171.7</ele>
        <time>2022-08-07T07:42:15Z</time>
      </trkpt>
      <trkpt lat="44.88187" lon="1.61797">
        <ele>171.8</ele>
        <time>2022-08-07T07:42:17Z</time>
      </trkpt>
      <trkpt lat="44.88182" lon="1.61795">
        <ele>172.1</ele>
        <time>2022-08-07T07:42:19Z</time>
      </trkpt>
      <trkpt lat="44.88178" lon="1.61792">
        <ele>172.5</ele>
        <time>2022-08-07T07:42:21Z</time>
      </trkpt>
      <trkpt lat="44.88173" lon="1.6179">
        <ele>173.2</ele>
        <time>2022-08-07T07:42:23Z</time>
      </trkpt>
      <trkpt lat="44.88169" lon="1.61787">
        <ele>173.3</ele>
        <time>2022-08-07T07:42:25Z</time>
      </trkpt>
      <trkpt lat="44.88165" lon="1.61785">
        <ele>173.5</ele>
        <time>2022-08-07T07:42:27Z</time>
      </trkpt>
      <trkpt lat="44.88161" lon="1.6178">
        <ele>172.4</ele>
        <time>2022-08-07T07:42:29Z</time>
      </trkpt>
      <trkpt lat="44.88156" lon="1.61779">
        <ele>172</ele>
        <time>2022-08-07T07:42:31Z</time>
      </trkpt>
      <trkpt lat="44.88152" lon="1.61776">
        <ele>171.3</ele>
        <time>2022-08-07T07:42:33Z</time>
      </trkpt>
      <trkpt lat="44.88149" lon="1.61774">
        <ele>170.7</ele>
        <time>2022-08-07T07:42:35Z</time>
      </trkpt>
      <trkpt lat="44.88144" lon="1.61773">
        <ele>170.6</ele>
        <time>2022-08-07T07:42:37Z</time>
      </trkpt>
      <trkpt lat="44.8814" lon="1.6177">
        <ele>170.1</ele>
        <time>2022-08-07T07:42:39Z</time>
      </trkpt>
      <trkpt lat="44.88136" lon="1.61769">
        <ele>169.9</ele>
        <time>2022-08-07T07:42:41Z</time>
      </trkpt>
      <trkpt lat="44.88132" lon="1.61767">
        <ele>169.7</ele>
        <time>2022-08-07T07:42:43Z</time>
      </trkpt>
      <trkpt lat="44.88128" lon="1.61763">
        <ele>169.1</ele>
        <time>2022-08-07T07:42:45Z</time>
      </trkpt>
      <trkpt lat="44.88125" lon="1.61759">
        <ele>168.5</ele>
        <time>2022-08-07T07:42:47Z</time>
      </trkpt>
      <trkpt lat="44.88121" lon="1.61758">
        <ele>168.5</ele>
        <time>2022-08-07T07:42:49Z</time>
      </trkpt>
      <trkpt lat="44.88117" lon="1.61758">
        <ele>168.7</ele>
        <time>2022-08-07T07:42:51Z</time>
      </trkpt>
      <trkpt lat="44.88113" lon="1.61756">
        <ele>168.7</ele>
        <time>2022-08-07T07:42:53Z</time>
      </trkpt>
      <trkpt lat="44.8811" lon="1.61755">
        <ele>168.7</ele>
        <time>2022-08-07T07:42:55Z</time>
      </trkpt>
      <trkpt lat="44.88107" lon="1.61753">
        <ele>168.6</ele>
        <time>2022-08-07T07:42:57Z</time>
      </trkpt>
      <trkpt lat="44.88104" lon="1.6175">
        <ele>168.5</ele>
        <time>2022-08-07T07:42:59Z</time>
      </trkpt>
      <trkpt lat="44.88102" lon="1.61744">
        <ele>167.5</ele>
        <time>2022-08-07T07:43:01Z</time>
      </trkpt>
      <trkpt lat="44.88101" lon="1.61739">
        <ele>166.7</ele>
        <time>2022-08-07T07:43:03Z</time>
      </trkpt>
      <trkpt lat="44.88098" lon="1.61733">
        <ele>166</ele>
        <time>2022-08-07T07:43:05Z</time>
      </trkpt>
      <trkpt lat="44.88096" lon="1.61729">
        <ele>165.6</ele>
        <time>2022-08-07T07:43:07Z</time>
      </trkpt>
      <trkpt lat="44.88094" lon="1.61725">
        <ele>165.3</ele>
        <time>2022-08-07T07:43:09Z</time>
      </trkpt>
      <trkpt lat="44.88092" lon="1.61722">
        <ele>165.2</ele>
        <time>2022-08-07T07:43:11Z</time>
      </trkpt>
      <trkpt lat="44.88091" lon="1.61719">
        <ele>165</ele>
        <time>2022-08-07T07:43:13Z</time>
      </trkpt>
      <trkpt lat="44.88089" lon="1.61716">
        <ele>165</ele>
        <time>2022-08-07T07:43:15Z</time>
      </trkpt>
      <trkpt lat="44.88085" lon="1.61713">
        <ele>165.1</ele>
        <time>2022-08-07T07:43:17Z</time>
      </trkpt>
      <trkpt lat="44.88083" lon="1.61707">
        <ele>164.8</ele>
        <time>2022-08-07T07:43:19Z</time>
      </trkpt>
      <trkpt lat="44.88083" lon="1.61703">
        <ele>164.4</ele>
        <time>2022-08-07T07:43:21Z</time>
      </trkpt>
      <trkpt lat="44.88081" lon="1.61699">
        <ele>163.7</ele>
        <time>2022-08-07T07:43:23Z</time>
      </trkpt>
      <trkpt lat="44.8808" lon="1.617">
        <ele>163.6</ele>
        <time>2022-08-07T07:43:25Z</time>
      </trkpt>
      <trkpt lat="44.8808" lon="1.617">
        <ele>163.6</ele>
        <time>2022-08-07T07:43:27Z</time>
      </trkpt>
      <trkpt lat="44.88079" lon="1.617">
        <ele>163.6</ele>
        <time>2022-08-07T07:43:29Z</time>
      </trkpt>
      <trkpt lat="44.88078" lon="1.61701">
        <ele>163.7</ele>
        <time>2022-08-07T07:43:31Z</time>
      </trkpt>
      <trkpt lat="44.88093" lon="1.61724">
        <ele>165.3</ele>
        <time>2022-08-07T08:08:05Z</time>
      </trkpt>
      <trkpt lat="44.88095" lon="1.61726">
        <ele>165.4</ele>
        <time>2022-08-07T08:08:07Z</time>
      </trkpt>
      <trkpt lat="44.88097" lon="1.6173">
        <ele>165.7</ele>
        <time>2022-08-07T08:08:09Z</time>
      </trkpt>
      <trkpt lat="44.88099" lon="1.61733">
        <ele>166</ele>
        <time>2022-08-07T08:08:11Z</time>
      </trkpt>
      <trkpt lat="44.881" lon="1.61736">
        <ele>166.3</ele>
        <time>2022-08-07T08:08:13Z</time>
      </trkpt>
      <trkpt lat="44.88102" lon="1.6174">
        <ele>166.8</ele>
        <time>2022-08-07T08:08:15Z</time>
      </trkpt>
      <trkpt lat="44.88102" lon="1.61744">
        <ele>167.6</ele>
        <time>2022-08-07T08:08:17Z</time>
      </trkpt>
      <trkpt lat="44.88103" lon="1.61748">
        <ele>168.3</ele>
        <time>2022-08-07T08:08:19Z</time>
      </trkpt>
      <trkpt lat="44.88106" lon="1.61752">
        <ele>168.6</ele>
        <time>2022-08-07T08:08:21Z</time>
      </trkpt>
      <trkpt lat="44.88108" lon="1.61753">
        <ele>168.6</ele>
        <time>2022-08-07T08:08:23Z</time>
      </trkpt>
      <trkpt lat="44.8811" lon="1.6175">
        <ele>168</ele>
        <time>2022-08-07T08:08:25Z</time>
      </trkpt>
      <trkpt lat="44.88109" lon="1.61744">
        <ele>167</ele>
        <time>2022-08-07T08:08:27Z</time>
      </trkpt>
      <trkpt lat="44.88107" lon="1.61741">
        <ele>166.5</ele>
        <time>2022-08-07T08:08:29Z</time>
      </trkpt>
      <trkpt lat="44.88107" lon="1.61738">
        <ele>165.8</ele>
        <time>2022-08-07T08:08:31Z</time>
      </trkpt>
      <trkpt lat="44.88109" lon="1.61736">
        <ele>165.3</ele>
        <time>2022-08-07T08:08:33Z</time>
      </trkpt>
      <trkpt lat="44.8811" lon="1.61737">
        <ele>165.2</ele>
        <time>2022-08-07T08:08:35Z</time>
      </trkpt>
      <trkpt lat="44.8811" lon="1.61736">
        <ele>165.1</ele>
        <time>2022-08-07T08:08:37Z</time>
      </trkpt>
      <trkpt lat="44.8811" lon="1.61736">
        <ele>165.1</ele>
        <time>2022-08-07T08:08:39Z</time>
      </trkpt>
      <trkpt lat="44.88109" lon="1.61728">
        <ele>163.6</ele>
        <time>2022-08-07T08:09:29Z</time>
      </trkpt>
      <trkpt lat="44.88108" lon="1.61733">
        <ele>164.7</ele>
        <time>2022-08-07T08:09:31Z</time>
      </trkpt>
      <trkpt lat="44.8811" lon="1.61739">
        <ele>165.8</ele>
        <time>2022-08-07T08:09:33Z</time>
      </trkpt>
      <trkpt lat="44.88111" lon="1.61744">
        <ele>166.7</ele>
        <time>2022-08-07T08:09:35Z</time>
      </trkpt>
      <trkpt lat="44.88112" lon="1.6175">
        <ele>167.9</ele>
        <time>2022-08-07T08:09:37Z</time>
      </trkpt>
      <trkpt lat="44.8811" lon="1.61757">
        <ele>169</ele>
        <time>2022-08-07T08:09:39Z</time>
      </trkpt>
      <trkpt lat="44.88108" lon="1.61763">
        <ele>169.8</ele>
        <time>2022-08-07T08:09:41Z</time>
      </trkpt>
      <trkpt lat="44.88107" lon="1.61769">
        <ele>170.7</ele>
        <time>2022-08-07T08:09:43Z</time>
      </trkpt>
      <trkpt lat="44.88105" lon="1.61775">
        <ele>171.3</ele>
        <time>2022-08-07T08:09:45Z</time>
      </trkpt>
      <trkpt lat="44.88104" lon="1.61777">
        <ele>171.6</ele>
        <time>2022-08-07T08:09:47Z</time>
      </trkpt>
      <trkpt lat="44.88104" lon="1.61776">
        <ele>171.5</ele>
        <time>2022-08-07T08:09:49Z</time>
      </trkpt>
      <trkpt lat="44.88104" lon="1.61776">
        <ele>171.5</ele>
        <time>2022-08-07T08:09:51Z</time>
      </trkpt>
      <trkpt lat="44.88104" lon="1.61777">
        <ele>171.6</ele>
        <time>2022-08-07T08:09:53Z</time>
      </trkpt>
      <trkpt lat="44.88103" lon="1.6178">
        <ele>171.9</ele>
        <time>2022-08-07T08:09:55Z</time>
      </trkpt>
      <trkpt lat="44.88102" lon="1.61763">
        <ele>170.1</ele>
        <time>2022-08-07T08:10:03Z</time>
      </trkpt>
      <trkpt lat="44.88099" lon="1.61759">
        <ele>169.7</ele>
        <time>2022-08-07T08:10:05Z</time>
      </trkpt>
      <trkpt lat="44.88095" lon="1.61761">
        <ele>170.1</ele>
        <time>2022-08-07T08:10:07Z</time>
      </trkpt>
      <trkpt lat="44.88093" lon="1.61767">
        <ele>170.7</ele>
        <time>2022-08-07T08:10:09Z</time>
      </trkpt>
      <trkpt lat="44.88093" lon="1.61775">
        <ele>171.5</ele>
        <time>2022-08-07T08:10:11Z</time>
      </trkpt>
      <trkpt lat="44.88093" lon="1.61786">
        <ele>172.3</ele>
        <time>2022-08-07T08:10:13Z</time>
      </trkpt>
      <trkpt lat="44.88092" lon="1.61796">
        <ele>173.1</ele>
        <time>2022-08-07T08:10:15Z</time>
      </trkpt>
      <trkpt lat="44.8809" lon="1.61804">
        <ele>173.7</ele>
        <time>2022-08-07T08:10:17Z</time>
      </trkpt>
      <trkpt lat="44.88088" lon="1.6181">
        <ele>174</ele>
        <time>2022-08-07T08:10:19Z</time>
      </trkpt>
      <trkpt lat="44.88086" lon="1.61814">
        <ele>174.1</ele>
        <time>2022-08-07T08:10:21Z</time>
      </trkpt>
      <trkpt lat="44.88086" lon="1.61814">
        <ele>174.1</ele>
        <time>2022-08-07T08:10:23Z</time>
      </trkpt>
      <trkpt lat="44.88085" lon="1.61815">
        <ele>174.1</ele>
        <time>2022-08-07T08:10:25Z</time>
      </trkpt>
      <trkpt lat="44.88086" lon="1.61815">
        <ele>174.1</ele>
        <time>2022-08-07T08:10:27Z</time>
      </trkpt>
      <trkpt lat="44.88086" lon="1.61815">
        <ele>174.1</ele>
        <time>2022-08-07T08:10:31Z</time>
      </trkpt>
      <trkpt lat="44.88078" lon="1.6183">
        <ele>174.5</ele>
        <time>2022-08-07T08:10:41Z</time>
      </trkpt>
      <trkpt lat="44.88073" lon="1.6183">
        <ele>174.3</ele>
        <time>2022-08-07T08:10:43Z</time>
      </trkpt>
      <trkpt lat="44.8807" lon="1.61824">
        <ele>173.7</ele>
        <time>2022-08-07T08:10:45Z</time>
      </trkpt>
      <trkpt lat="44.88068" lon="1.61817">
        <ele>173.1</ele>
        <time>2022-08-07T08:10:47Z</time>
      </trkpt>
      <trkpt lat="44.88064" lon="1.61808">
        <ele>172.2</ele>
        <time>2022-08-07T08:10:49Z</time>
      </trkpt>
      <trkpt lat="44.88062" lon="1.61799">
        <ele>171.2</ele>
        <time>2022-08-07T08:10:51Z</time>
      </trkpt>
      <trkpt lat="44.88061" lon="1.61789">
        <ele>170.4</ele>
        <time>2022-08-07T08:10:53Z</time>
      </trkpt>
      <trkpt lat="44.88057" lon="1.61781">
        <ele>169.4</ele>
        <time>2022-08-07T08:10:55Z</time>
      </trkpt>
      <trkpt lat="44.88051" lon="1.61781">
        <ele>168.8</ele>
        <time>2022-08-07T08:10:57Z</time>
      </trkpt>
      <trkpt lat="44.88043" lon="1.61784">
        <ele>168.4</ele>
        <time>2022-08-07T08:10:59Z</time>
      </trkpt>
      <trkpt lat="44.88035" lon="1.61787">
        <ele>168</ele>
        <time>2022-08-07T08:11:01Z</time>
      </trkpt>
      <trkpt lat="44.88028" lon="1.6179">
        <ele>167.7</ele>
        <time>2022-08-07T08:11:03Z</time>
      </trkpt>
      <trkpt lat="44.8802" lon="1.6179">
        <ele>167</ele>
        <time>2022-08-07T08:11:05Z</time>
      </trkpt>
      <trkpt lat="44.88012" lon="1.61791">
        <ele>166.4</ele>
        <time>2022-08-07T08:11:07Z</time>
      </trkpt>
      <trkpt lat="44.88004" lon="1.61791">
        <ele>165.8</ele>
        <time>2022-08-07T08:11:09Z</time>
      </trkpt>
      <trkpt lat="44.88001" lon="1.61796">
        <ele>166.1</ele>
        <time>2022-08-07T08:11:11Z</time>
      </trkpt>
      <trkpt lat="44.87998" lon="1.61798">
        <ele>166.7</ele>
        <time>2022-08-07T08:11:13Z</time>
      </trkpt>
      <trkpt lat="44.87996" lon="1.618">
        <ele>167.2</ele>
        <time>2022-08-07T08:11:15Z</time>
      </trkpt>
      <trkpt lat="44.87994" lon="1.61801">
        <ele>167.7</ele>
        <time>2022-08-07T08:11:17Z</time>
      </trkpt>
      <trkpt lat="44.87991" lon="1.61803">
        <ele>168.3</ele>
        <time>2022-08-07T08:11:19Z</time>
      </trkpt>
      <trkpt lat="44.87991" lon="1.61806">
        <ele>168.6</ele>
        <time>2022-08-07T08:11:21Z</time>
      </trkpt>
      <trkpt lat="44.87989" lon="1.61808">
        <ele>169.1</ele>
        <time>2022-08-07T08:11:23Z</time>
      </trkpt>
      <trkpt lat="44.87987" lon="1.61809">
        <ele>169.5</ele>
        <time>2022-08-07T08:11:25Z</time>
      </trkpt>
      <trkpt lat="44.87985" lon="1.61811">
        <ele>169.9</ele>
        <time>2022-08-07T08:11:27Z</time>
      </trkpt>
      <trkpt lat="44.87982" lon="1.61812">
        <ele>170.5</ele>
        <time>2022-08-07T08:11:29Z</time>
      </trkpt>
      <trkpt lat="44.8798" lon="1.61814">
        <ele>171</ele>
        <time>2022-08-07T08:11:31Z</time>
      </trkpt>
      <trkpt lat="44.87977" lon="1.61815">
        <ele>171.3</ele>
        <time>2022-08-07T08:11:33Z</time>
      </trkpt>
      <trkpt lat="44.87975" lon="1.61816">
        <ele>171.7</ele>
        <time>2022-08-07T08:11:35Z</time>
      </trkpt>
      <trkpt lat="44.87973" lon="1.61816">
        <ele>171.9</ele>
        <time>2022-08-07T08:11:37Z</time>
      </trkpt>
      <trkpt lat="44.87974" lon="1.61816">
        <ele>171.9</ele>
        <time>2022-08-07T08:11:39Z</time>
      </trkpt>
      <trkpt lat="44.87973" lon="1.61816">
        <ele>171.9</ele>
        <time>2022-08-07T08:11:41Z</time>
      </trkpt>
      <trkpt lat="44.87973" lon="1.61817">
        <ele>172</ele>
        <time>2022-08-07T08:11:43Z</time>
      </trkpt>
      <trkpt lat="44.87973" lon="1.61816">
        <ele>172</ele>
        <time>2022-08-07T08:11:45Z</time>
      </trkpt>
      <trkpt lat="44.87962" lon="1.61817">
        <ele>173.3</ele>
        <time>2022-08-07T08:12:01Z</time>
      </trkpt>
      <trkpt lat="44.87959" lon="1.61818">
        <ele>173.7</ele>
        <time>2022-08-07T08:12:03Z</time>
      </trkpt>
      <trkpt lat="44.87954" lon="1.61819">
        <ele>174.2</ele>
        <time>2022-08-07T08:12:05Z</time>
      </trkpt>
      <trkpt lat="44.87951" lon="1.61819">
        <ele>174.7</ele>
        <time>2022-08-07T08:12:07Z</time>
      </trkpt>
      <trkpt lat="44.87947" lon="1.6182">
        <ele>175.1</ele>
        <time>2022-08-07T08:12:09Z</time>
      </trkpt>
      <trkpt lat="44.87943" lon="1.61822">
        <ele>175.6</ele>
        <time>2022-08-07T08:12:11Z</time>
      </trkpt>
      <trkpt lat="44.8794" lon="1.61824">
        <ele>176</ele>
        <time>2022-08-07T08:12:13Z</time>
      </trkpt>
      <trkpt lat="44.87936" lon="1.61825">
        <ele>176.4</ele>
        <time>2022-08-07T08:12:15Z</time>
      </trkpt>
      <trkpt lat="44.87932" lon="1.61827">
        <ele>176.7</ele>
        <time>2022-08-07T08:12:17Z</time>
      </trkpt>
      <trkpt lat="44.87929" lon="1.6183">
        <ele>177</ele>
        <time>2022-08-07T08:12:19Z</time>
      </trkpt>
      <trkpt lat="44.87926" lon="1.61831">
        <ele>177.2</ele>
        <time>2022-08-07T08:12:21Z</time>
      </trkpt>
      <trkpt lat="44.87924" lon="1.61833">
        <ele>177.4</ele>
        <time>2022-08-07T08:12:23Z</time>
      </trkpt>
      <trkpt lat="44.8792" lon="1.61836">
        <ele>178.1</ele>
        <time>2022-08-07T08:12:25Z</time>
      </trkpt>
      <trkpt lat="44.87918" lon="1.61838">
        <ele>178.7</ele>
        <time>2022-08-07T08:12:27Z</time>
      </trkpt>
      <trkpt lat="44.87915" lon="1.61841">
        <ele>179.6</ele>
        <time>2022-08-07T08:12:29Z</time>
      </trkpt>
      <trkpt lat="44.87912" lon="1.61844">
        <ele>180.3</ele>
        <time>2022-08-07T08:12:31Z</time>
      </trkpt>
      <trkpt lat="44.8791" lon="1.61845">
        <ele>180.7</ele>
        <time>2022-08-07T08:12:33Z</time>
      </trkpt>
      <trkpt lat="44.87908" lon="1.61847">
        <ele>181.3</ele>
        <time>2022-08-07T08:12:35Z</time>
      </trkpt>
      <trkpt lat="44.87906" lon="1.61849">
        <ele>181.8</ele>
        <time>2022-08-07T08:12:37Z</time>
      </trkpt>
      <trkpt lat="44.87904" lon="1.61851">
        <ele>182.3</ele>
        <time>2022-08-07T08:12:39Z</time>
      </trkpt>
      <trkpt lat="44.87902" lon="1.61853">
        <ele>182.7</ele>
        <time>2022-08-07T08:12:41Z</time>
      </trkpt>
      <trkpt lat="44.87901" lon="1.61853">
        <ele>182.9</ele>
        <time>2022-08-07T08:12:43Z</time>
      </trkpt>
      <trkpt lat="44.87899" lon="1.61854">
        <ele>183.2</ele>
        <time>2022-08-07T08:12:45Z</time>
      </trkpt>
      <trkpt lat="44.87897" lon="1.61856">
        <ele>183.6</ele>
        <time>2022-08-07T08:12:47Z</time>
      </trkpt>
      <trkpt lat="44.87895" lon="1.61858">
        <ele>184</ele>
        <time>2022-08-07T08:12:49Z</time>
      </trkpt>
      <trkpt lat="44.87894" lon="1.6186">
        <ele>184.3</ele>
        <time>2022-08-07T08:12:51Z</time>
      </trkpt>
      <trkpt lat="44.87894" lon="1.6186">
        <ele>184.2</ele>
        <time>2022-08-07T08:12:53Z</time>
      </trkpt>
      <trkpt lat="44.87895" lon="1.6186">
        <ele>184.2</ele>
        <time>2022-08-07T08:12:55Z</time>
      </trkpt>
      <trkpt lat="44.87895" lon="1.61861">
        <ele>184.3</ele>
        <time>2022-08-07T08:12:57Z</time>
      </trkpt>
      <trkpt lat="44.87894" lon="1.61862">
        <ele>184.5</ele>
        <time>2022-08-07T08:12:59Z</time>
      </trkpt>
      <trkpt lat="44.87891" lon="1.61863">
        <ele>184.8</ele>
        <time>2022-08-07T08:13:01Z</time>
      </trkpt>
      <trkpt lat="44.87888" lon="1.61866">
        <ele>185.2</ele>
        <time>2022-08-07T08:13:03Z</time>
      </trkpt>
      <trkpt lat="44.87885" lon="1.61868">
        <ele>185.6</ele>
        <time>2022-08-07T08:13:05Z</time>
      </trkpt>
      <trkpt lat="44.87882" lon="1.61871">
        <ele>186</ele>
        <time>2022-08-07T08:13:07Z</time>
      </trkpt>
      <trkpt lat="44.87879" lon="1.61875">
        <ele>186.3</ele>
        <time>2022-08-07T08:13:09Z</time>
      </trkpt>
      <trkpt lat="44.87876" lon="1.61878">
        <ele>186.6</ele>
        <time>2022-08-07T08:13:11Z</time>
      </trkpt>
      <trkpt lat="44.87873" lon="1.61881">
        <ele>186.8</ele>
        <time>2022-08-07T08:13:13Z</time>
      </trkpt>
      <trkpt lat="44.8787" lon="1.61885">
        <ele>187</ele>
        <time>2022-08-07T08:13:15Z</time>
      </trkpt>
      <trkpt lat="44.87867" lon="1.61888">
        <ele>187.1</ele>
        <time>2022-08-07T08:13:17Z</time>
      </trkpt>
      <trkpt lat="44.87864" lon="1.61891">
        <ele>187.2</ele>
        <time>2022-08-07T08:13:19Z</time>
      </trkpt>
      <trkpt lat="44.87862" lon="1.61894">
        <ele>187.2</ele>
        <time>2022-08-07T08:13:21Z</time>
      </trkpt>
      <trkpt lat="44.87859" lon="1.61897">
        <ele>187.1</ele>
        <time>2022-08-07T08:13:23Z</time>
      </trkpt>
      <trkpt lat="44.87856" lon="1.619">
        <ele>187</ele>
        <time>2022-08-07T08:13:25Z</time>
      </trkpt>
      <trkpt lat="44.87853" lon="1.61902">
        <ele>186.9</ele>
        <time>2022-08-07T08:13:27Z</time>
      </trkpt>
      <trkpt lat="44.87851" lon="1.61905">
        <ele>186.7</ele>
        <time>2022-08-07T08:13:29Z</time>
      </trkpt>
      <trkpt lat="44.87848" lon="1.61908">
        <ele>186.5</ele>
        <time>2022-08-07T08:13:31Z</time>
      </trkpt>
      <trkpt lat="44.87846" lon="1.61911">
        <ele>186.3</ele>
        <time>2022-08-07T08:13:33Z</time>
      </trkpt>
      <trkpt lat="44.87842" lon="1.61914">
        <ele>185.8</ele>
        <time>2022-08-07T08:13:35Z</time>
      </trkpt>
      <trkpt lat="44.87839" lon="1.61917">
        <ele>185.6</ele>
        <time>2022-08-07T08:13:37Z</time>
      </trkpt>
      <trkpt lat="44.87837" lon="1.6192">
        <ele>185.7</ele>
        <time>2022-08-07T08:13:39Z</time>
      </trkpt>
      <trkpt lat="44.87835" lon="1.61922">
        <ele>185.8</ele>
        <time>2022-08-07T08:13:41Z</time>
      </trkpt>
      <trkpt lat="44.87832" lon="1.61924">
        <ele>186.2</ele>
        <time>2022-08-07T08:13:43Z</time>
      </trkpt>
      <trkpt lat="44.8783" lon="1.61927">
        <ele>187</ele>
        <time>2022-08-07T08:13:45Z</time>
      </trkpt>
      <trkpt lat="44.87828" lon="1.61929">
        <ele>187.5</ele>
        <time>2022-08-07T08:13:47Z</time>
      </trkpt>
      <trkpt lat="44.87826" lon="1.61931">
        <ele>187.9</ele>
        <time>2022-08-07T08:13:49Z</time>
      </trkpt>
      <trkpt lat="44.87825" lon="1.61933">
        <ele>188.3</ele>
        <time>2022-08-07T08:13:51Z</time>
      </trkpt>
      <trkpt lat="44.87822" lon="1.61935">
        <ele>188.7</ele>
        <time>2022-08-07T08:13:53Z</time>
      </trkpt>
      <trkpt lat="44.87821" lon="1.61936">
        <ele>189</ele>
        <time>2022-08-07T08:13:55Z</time>
      </trkpt>
      <trkpt lat="44.87819" lon="1.61939">
        <ele>189.5</ele>
        <time>2022-08-07T08:13:57Z</time>
      </trkpt>
      <trkpt lat="44.87817" lon="1.61942">
        <ele>190</ele>
        <time>2022-08-07T08:13:59Z</time>
      </trkpt>
      <trkpt lat="44.87815" lon="1.61945">
        <ele>190.3</ele>
        <time>2022-08-07T08:14:01Z</time>
      </trkpt>
      <trkpt lat="44.87812" lon="1.61947">
        <ele>190.7</ele>
        <time>2022-08-07T08:14:03Z</time>
      </trkpt>
      <trkpt lat="44.87811" lon="1.6195">
        <ele>191</ele>
        <time>2022-08-07T08:14:05Z</time>
      </trkpt>
      <trkpt lat="44.87809" lon="1.61952">
        <ele>191.3</ele>
        <time>2022-08-07T08:14:07Z</time>
      </trkpt>
      <trkpt lat="44.87808" lon="1.61954">
        <ele>191.5</ele>
        <time>2022-08-07T08:14:09Z</time>
      </trkpt>
      <trkpt lat="44.87806" lon="1.61956">
        <ele>191.6</ele>
        <time>2022-08-07T08:14:11Z</time>
      </trkpt>
      <trkpt lat="44.87805" lon="1.61958">
        <ele>191.8</ele>
        <time>2022-08-07T08:14:13Z</time>
      </trkpt>
      <trkpt lat="44.87803" lon="1.6196">
        <ele>192</ele>
        <time>2022-08-07T08:14:15Z</time>
      </trkpt>
      <trkpt lat="44.87802" lon="1.61961">
        <ele>192.1</ele>
        <time>2022-08-07T08:14:17Z</time>
      </trkpt>
      <trkpt lat="44.87802" lon="1.61961">
        <ele>192</ele>
        <time>2022-08-07T08:14:19Z</time>
      </trkpt>
      <trkpt lat="44.87802" lon="1.6196">
        <ele>192</ele>
        <time>2022-08-07T08:14:21Z</time>
      </trkpt>
      <trkpt lat="44.87802" lon="1.6196">
        <ele>192</ele>
        <time>2022-08-07T08:14:23Z</time>
      </trkpt>
      <trkpt lat="44.87802" lon="1.61959">
        <ele>192</ele>
        <time>2022-08-07T08:14:25Z</time>
      </trkpt>
      <trkpt lat="44.87793" lon="1.61973">
        <ele>192.5</ele>
        <time>2022-08-07T08:14:41Z</time>
      </trkpt>
      <trkpt lat="44.8779" lon="1.61977">
        <ele>192.5</ele>
        <time>2022-08-07T08:14:43Z</time>
      </trkpt>
      <trkpt lat="44.87787" lon="1.6198">
        <ele>192.5</ele>
        <time>2022-08-07T08:14:45Z</time>
      </trkpt>
      <trkpt lat="44.87784" lon="1.61984">
        <ele>192.4</ele>
        <time>2022-08-07T08:14:47Z</time>
      </trkpt>
      <trkpt lat="44.87782" lon="1.61988">
        <ele>192.2</ele>
        <time>2022-08-07T08:14:49Z</time>
      </trkpt>
      <trkpt lat="44.87779" lon="1.61992">
        <ele>192</ele>
        <time>2022-08-07T08:14:51Z</time>
      </trkpt>
      <trkpt lat="44.87777" lon="1.61995">
        <ele>191.7</ele>
        <time>2022-08-07T08:14:53Z</time>
      </trkpt>
      <trkpt lat="44.87775" lon="1.61998">
        <ele>191.4</ele>
        <time>2022-08-07T08:14:55Z</time>
      </trkpt>
      <trkpt lat="44.87773" lon="1.62001">
        <ele>191.4</ele>
        <time>2022-08-07T08:14:57Z</time>
      </trkpt>
      <trkpt lat="44.87771" lon="1.62004">
        <ele>191.7</ele>
        <time>2022-08-07T08:14:59Z</time>
      </trkpt>
      <trkpt lat="44.87769" lon="1.62007">
        <ele>191.9</ele>
        <time>2022-08-07T08:15:01Z</time>
      </trkpt>
      <trkpt lat="44.87767" lon="1.62009">
        <ele>192.2</ele>
        <time>2022-08-07T08:15:03Z</time>
      </trkpt>
      <trkpt lat="44.87765" lon="1.62013">
        <ele>192.6</ele>
        <time>2022-08-07T08:15:05Z</time>
      </trkpt>
      <trkpt lat="44.87763" lon="1.62017">
        <ele>193.1</ele>
        <time>2022-08-07T08:15:07Z</time>
      </trkpt>
      <trkpt lat="44.8776" lon="1.6202">
        <ele>193.5</ele>
        <time>2022-08-07T08:15:09Z</time>
      </trkpt>
      <trkpt lat="44.87759" lon="1.62024">
        <ele>193.8</ele>
        <time>2022-08-07T08:15:11Z</time>
      </trkpt>
      <trkpt lat="44.87756" lon="1.62027">
        <ele>194.2</ele>
        <time>2022-08-07T08:15:13Z</time>
      </trkpt>
      <trkpt lat="44.87754" lon="1.62029">
        <ele>194.4</ele>
        <time>2022-08-07T08:15:15Z</time>
      </trkpt>
      <trkpt lat="44.87752" lon="1.62032">
        <ele>194.6</ele>
        <time>2022-08-07T08:15:17Z</time>
      </trkpt>
      <trkpt lat="44.87751" lon="1.62035">
        <ele>194.9</ele>
        <time>2022-08-07T08:15:19Z</time>
      </trkpt>
      <trkpt lat="44.87749" lon="1.62037">
        <ele>195.2</ele>
        <time>2022-08-07T08:15:21Z</time>
      </trkpt>
      <trkpt lat="44.87748" lon="1.62041">
        <ele>195.8</ele>
        <time>2022-08-07T08:15:23Z</time>
      </trkpt>
      <trkpt lat="44.87746" lon="1.62044">
        <ele>196.4</ele>
        <time>2022-08-07T08:15:25Z</time>
      </trkpt>
      <trkpt lat="44.87744" lon="1.62047">
        <ele>196.8</ele>
        <time>2022-08-07T08:15:27Z</time>
      </trkpt>
      <trkpt lat="44.87743" lon="1.6205">
        <ele>197.3</ele>
        <time>2022-08-07T08:15:29Z</time>
      </trkpt>
      <trkpt lat="44.87741" lon="1.62053">
        <ele>197.7</ele>
        <time>2022-08-07T08:15:31Z</time>
      </trkpt>
      <trkpt lat="44.87739" lon="1.62056">
        <ele>198.1</ele>
        <time>2022-08-07T08:15:33Z</time>
      </trkpt>
      <trkpt lat="44.87737" lon="1.62058">
        <ele>198.3</ele>
        <time>2022-08-07T08:15:35Z</time>
      </trkpt>
      <trkpt lat="44.87735" lon="1.6206">
        <ele>198.7</ele>
        <time>2022-08-07T08:15:37Z</time>
      </trkpt>
      <trkpt lat="44.87734" lon="1.62063">
        <ele>199</ele>
        <time>2022-08-07T08:15:39Z</time>
      </trkpt>
      <trkpt lat="44.87732" lon="1.62067">
        <ele>199.3</ele>
        <time>2022-08-07T08:15:41Z</time>
      </trkpt>
      <trkpt lat="44.8773" lon="1.62069">
        <ele>199.5</ele>
        <time>2022-08-07T08:15:43Z</time>
      </trkpt>
      <trkpt lat="44.87728" lon="1.62071">
        <ele>199.7</ele>
        <time>2022-08-07T08:15:45Z</time>
      </trkpt>
      <trkpt lat="44.87726" lon="1.62073">
        <ele>199.8</ele>
        <time>2022-08-07T08:15:47Z</time>
      </trkpt>
      <trkpt lat="44.87724" lon="1.62076">
        <ele>200</ele>
        <time>2022-08-07T08:15:49Z</time>
      </trkpt>
      <trkpt lat="44.87722" lon="1.62078">
        <ele>200</ele>
        <time>2022-08-07T08:15:51Z</time>
      </trkpt>
      <trkpt lat="44.8772" lon="1.6208">
        <ele>200.2</ele>
        <time>2022-08-07T08:15:53Z</time>
      </trkpt>
      <trkpt lat="44.87718" lon="1.62083">
        <ele>200.3</ele>
        <time>2022-08-07T08:15:55Z</time>
      </trkpt>
      <trkpt lat="44.87716" lon="1.62085">
        <ele>200.4</ele>
        <time>2022-08-07T08:15:57Z</time>
      </trkpt>
      <trkpt lat="44.87714" lon="1.62087">
        <ele>200.6</ele>
        <time>2022-08-07T08:15:59Z</time>
      </trkpt>
      <trkpt lat="44.87711" lon="1.6209">
        <ele>200.8</ele>
        <time>2022-08-07T08:16:01Z</time>
      </trkpt>
      <trkpt lat="44.87708" lon="1.62092">
        <ele>200.9</ele>
        <time>2022-08-07T08:16:03Z</time>
      </trkpt>
      <trkpt lat="44.87706" lon="1.62093">
        <ele>201</ele>
        <time>2022-08-07T08:16:05Z</time>
      </trkpt>
      <trkpt lat="44.87704" lon="1.62095">
        <ele>201.1</ele>
        <time>2022-08-07T08:16:07Z</time>
      </trkpt>
      <trkpt lat="44.87701" lon="1.62097">
        <ele>201.3</ele>
        <time>2022-08-07T08:16:09Z</time>
      </trkpt>
      <trkpt lat="44.87699" lon="1.62099">
        <ele>201.4</ele>
        <time>2022-08-07T08:16:11Z</time>
      </trkpt>
      <trkpt lat="44.87697" lon="1.62102">
        <ele>201.6</ele>
        <time>2022-08-07T08:16:13Z</time>
      </trkpt>
      <trkpt lat="44.87694" lon="1.62103">
        <ele>201.7</ele>
        <time>2022-08-07T08:16:15Z</time>
      </trkpt>
      <trkpt lat="44.87693" lon="1.62105">
        <ele>201.8</ele>
        <time>2022-08-07T08:16:17Z</time>
      </trkpt>
      <trkpt lat="44.8769" lon="1.62107">
        <ele>202</ele>
        <time>2022-08-07T08:16:19Z</time>
      </trkpt>
      <trkpt lat="44.87688" lon="1.62109">
        <ele>202.2</ele>
        <time>2022-08-07T08:16:21Z</time>
      </trkpt>
      <trkpt lat="44.87687" lon="1.62112">
        <ele>202.5</ele>
        <time>2022-08-07T08:16:23Z</time>
      </trkpt>
      <trkpt lat="44.87684" lon="1.62114">
        <ele>202.6</ele>
        <time>2022-08-07T08:16:25Z</time>
      </trkpt>
      <trkpt lat="44.87683" lon="1.62115">
        <ele>202.6</ele>
        <time>2022-08-07T08:16:27Z</time>
      </trkpt>
      <trkpt lat="44.8768" lon="1.62117">
        <ele>202.7</ele>
        <time>2022-08-07T08:16:29Z</time>
      </trkpt>
      <trkpt lat="44.87678" lon="1.62119">
        <ele>203</ele>
        <time>2022-08-07T08:16:31Z</time>
      </trkpt>
      <trkpt lat="44.87676" lon="1.62121">
        <ele>203.1</ele>
        <time>2022-08-07T08:16:33Z</time>
      </trkpt>
      <trkpt lat="44.87674" lon="1.62123">
        <ele>203.3</ele>
        <time>2022-08-07T08:16:35Z</time>
      </trkpt>
      <trkpt lat="44.87672" lon="1.62125">
        <ele>203.5</ele>
        <time>2022-08-07T08:16:37Z</time>
      </trkpt>
      <trkpt lat="44.8767" lon="1.62127">
        <ele>203.5</ele>
        <time>2022-08-07T08:16:39Z</time>
      </trkpt>
      <trkpt lat="44.87668" lon="1.62129">
        <ele>203.8</ele>
        <time>2022-08-07T08:16:41Z</time>
      </trkpt>
      <trkpt lat="44.87666" lon="1.62131">
        <ele>204</ele>
        <time>2022-08-07T08:16:43Z</time>
      </trkpt>
      <trkpt lat="44.87664" lon="1.62133">
        <ele>204.1</ele>
        <time>2022-08-07T08:16:45Z</time>
      </trkpt>
      <trkpt lat="44.87662" lon="1.62134">
        <ele>204.2</ele>
        <time>2022-08-07T08:16:47Z</time>
      </trkpt>
      <trkpt lat="44.87659" lon="1.62137">
        <ele>204.5</ele>
        <time>2022-08-07T08:16:49Z</time>
      </trkpt>
      <trkpt lat="44.87657" lon="1.62139">
        <ele>204.6</ele>
        <time>2022-08-07T08:16:51Z</time>
      </trkpt>
      <trkpt lat="44.87655" lon="1.62141">
        <ele>204.7</ele>
        <time>2022-08-07T08:16:53Z</time>
      </trkpt>
      <trkpt lat="44.87653" lon="1.62143">
        <ele>204.9</ele>
        <time>2022-08-07T08:16:55Z</time>
      </trkpt>
      <trkpt lat="44.87651" lon="1.62145">
        <ele>205.1</ele>
        <time>2022-08-07T08:16:57Z</time>
      </trkpt>
      <trkpt lat="44.8765" lon="1.62148">
        <ele>205.3</ele>
        <time>2022-08-07T08:16:59Z</time>
      </trkpt>
      <trkpt lat="44.87649" lon="1.62149">
        <ele>205.4</ele>
        <time>2022-08-07T08:17:01Z</time>
      </trkpt>
      <trkpt lat="44.87648" lon="1.6215">
        <ele>205.5</ele>
        <time>2022-08-07T08:17:03Z</time>
      </trkpt>
      <trkpt lat="44.87649" lon="1.6215">
        <ele>205.6</ele>
        <time>2022-08-07T08:17:05Z</time>
      </trkpt>
      <trkpt lat="44.87649" lon="1.6215">
        <ele>205.5</ele>
        <time>2022-08-07T08:17:07Z</time>
      </trkpt>
      <trkpt lat="44.87649" lon="1.6215">
        <ele>205.5</ele>
        <time>2022-08-07T08:17:09Z</time>
      </trkpt>
      <trkpt lat="44.8763" lon="1.62167">
        <ele>205.7</ele>
        <time>2022-08-07T08:19:05Z</time>
      </trkpt>
      <trkpt lat="44.87626" lon="1.6217">
        <ele>205.6</ele>
        <time>2022-08-07T08:19:07Z</time>
      </trkpt>
      <trkpt lat="44.87622" lon="1.62173">
        <ele>205.6</ele>
        <time>2022-08-07T08:19:09Z</time>
      </trkpt>
      <trkpt lat="44.87618" lon="1.62178">
        <ele>205.7</ele>
        <time>2022-08-07T08:19:11Z</time>
      </trkpt>
      <trkpt lat="44.87615" lon="1.62182">
        <ele>205.8</ele>
        <time>2022-08-07T08:19:13Z</time>
      </trkpt>
      <trkpt lat="44.87611" lon="1.62186">
        <ele>206</ele>
        <time>2022-08-07T08:19:15Z</time>
      </trkpt>
      <trkpt lat="44.87607" lon="1.6219">
        <ele>206.1</ele>
        <time>2022-08-07T08:19:17Z</time>
      </trkpt>
      <trkpt lat="44.87602" lon="1.62194">
        <ele>206.2</ele>
        <time>2022-08-07T08:19:19Z</time>
      </trkpt>
      <trkpt lat="44.87598" lon="1.62199">
        <ele>206.4</ele>
        <time>2022-08-07T08:19:21Z</time>
      </trkpt>
      <trkpt lat="44.87594" lon="1.62204">
        <ele>206.6</ele>
        <time>2022-08-07T08:19:23Z</time>
      </trkpt>
      <trkpt lat="44.8759" lon="1.62209">
        <ele>206.8</ele>
        <time>2022-08-07T08:19:25Z</time>
      </trkpt>
      <trkpt lat="44.87585" lon="1.62214">
        <ele>207.1</ele>
        <time>2022-08-07T08:19:27Z</time>
      </trkpt>
      <trkpt lat="44.87581" lon="1.62219">
        <ele>207.6</ele>
        <time>2022-08-07T08:19:29Z</time>
      </trkpt>
      <trkpt lat="44.87577" lon="1.62224">
        <ele>208.4</ele>
        <time>2022-08-07T08:19:31Z</time>
      </trkpt>
      <trkpt lat="44.87573" lon="1.62229">
        <ele>209.1</ele>
        <time>2022-08-07T08:19:33Z</time>
      </trkpt>
      <trkpt lat="44.87569" lon="1.62234">
        <ele>209.7</ele>
        <time>2022-08-07T08:19:35Z</time>
      </trkpt>
      <trkpt lat="44.87565" lon="1.62238">
        <ele>210.2</ele>
        <time>2022-08-07T08:19:37Z</time>
      </trkpt>
      <trkpt lat="44.87561" lon="1.62243">
        <ele>210.7</ele>
        <time>2022-08-07T08:19:39Z</time>
      </trkpt>
      <trkpt lat="44.87557" lon="1.62247">
        <ele>211.1</ele>
        <time>2022-08-07T08:19:41Z</time>
      </trkpt>
      <trkpt lat="44.87553" lon="1.62252">
        <ele>211.5</ele>
        <time>2022-08-07T08:19:43Z</time>
      </trkpt>
      <trkpt lat="44.8755" lon="1.62256">
        <ele>211.8</ele>
        <time>2022-08-07T08:19:45Z</time>
      </trkpt>
      <trkpt lat="44.87546" lon="1.62261">
        <ele>212.2</ele>
        <time>2022-08-07T08:19:47Z</time>
      </trkpt>
      <trkpt lat="44.87542" lon="1.62265">
        <ele>212.5</ele>
        <time>2022-08-07T08:19:49Z</time>
      </trkpt>
      <trkpt lat="44.87538" lon="1.6227">
        <ele>212.9</ele>
        <time>2022-08-07T08:19:51Z</time>
      </trkpt>
      <trkpt lat="44.87534" lon="1.62274">
        <ele>213.2</ele>
        <time>2022-08-07T08:19:53Z</time>
      </trkpt>
      <trkpt lat="44.8753" lon="1.62278">
        <ele>213.5</ele>
        <time>2022-08-07T08:19:55Z</time>
      </trkpt>
      <trkpt lat="44.87526" lon="1.62283">
        <ele>213.9</ele>
        <time>2022-08-07T08:19:57Z</time>
      </trkpt>
      <trkpt lat="44.87521" lon="1.62287">
        <ele>214.1</ele>
        <time>2022-08-07T08:19:59Z</time>
      </trkpt>
      <trkpt lat="44.87517" lon="1.62291">
        <ele>214.5</ele>
        <time>2022-08-07T08:20:01Z</time>
      </trkpt>
      <trkpt lat="44.87512" lon="1.62295">
        <ele>214.7</ele>
        <time>2022-08-07T08:20:03Z</time>
      </trkpt>
      <trkpt lat="44.87507" lon="1.62299">
        <ele>214.9</ele>
        <time>2022-08-07T08:20:05Z</time>
      </trkpt>
      <trkpt lat="44.87503" lon="1.62302">
        <ele>215.1</ele>
        <time>2022-08-07T08:20:07Z</time>
      </trkpt>
      <trkpt lat="44.87498" lon="1.62306">
        <ele>215.4</ele>
        <time>2022-08-07T08:20:09Z</time>
      </trkpt>
      <trkpt lat="44.87494" lon="1.6231">
        <ele>215.9</ele>
        <time>2022-08-07T08:20:11Z</time>
      </trkpt>
      <trkpt lat="44.87489" lon="1.62313">
        <ele>216.2</ele>
        <time>2022-08-07T08:20:13Z</time>
      </trkpt>
      <trkpt lat="44.87484" lon="1.62316">
        <ele>216.6</ele>
        <time>2022-08-07T08:20:15Z</time>
      </trkpt>
      <trkpt lat="44.87479" lon="1.62318">
        <ele>216.8</ele>
        <time>2022-08-07T08:20:17Z</time>
      </trkpt>
      <trkpt lat="44.87474" lon="1.62321">
        <ele>217.1</ele>
        <time>2022-08-07T08:20:19Z</time>
      </trkpt>
      <trkpt lat="44.87469" lon="1.62323">
        <ele>217.3</ele>
        <time>2022-08-07T08:20:21Z</time>
      </trkpt>
      <trkpt lat="44.87464" lon="1.62326">
        <ele>217.5</ele>
        <time>2022-08-07T08:20:23Z</time>
      </trkpt>
      <trkpt lat="44.87459" lon="1.62329">
        <ele>217.7</ele>
        <time>2022-08-07T08:20:25Z</time>
      </trkpt>
      <trkpt lat="44.87454" lon="1.62331">
        <ele>217.9</ele>
        <time>2022-08-07T08:20:27Z</time>
      </trkpt>
      <trkpt lat="44.87449" lon="1.62334">
        <ele>218</ele>
        <time>2022-08-07T08:20:29Z</time>
      </trkpt>
      <trkpt lat="44.87444" lon="1.62336">
        <ele>218.1</ele>
        <time>2022-08-07T08:20:31Z</time>
      </trkpt>
      <trkpt lat="44.87439" lon="1.62339">
        <ele>218.1</ele>
        <time>2022-08-07T08:20:33Z</time>
      </trkpt>
      <trkpt lat="44.87434" lon="1.62341">
        <ele>218.2</ele>
        <time>2022-08-07T08:20:35Z</time>
      </trkpt>
      <trkpt lat="44.8743" lon="1.62344">
        <ele>218.2</ele>
        <time>2022-08-07T08:20:37Z</time>
      </trkpt>
      <trkpt lat="44.87426" lon="1.62346">
        <ele>218.2</ele>
        <time>2022-08-07T08:20:39Z</time>
      </trkpt>
      <trkpt lat="44.87421" lon="1.62348">
        <ele>218.2</ele>
        <time>2022-08-07T08:20:41Z</time>
      </trkpt>
      <trkpt lat="44.87416" lon="1.6235">
        <ele>218.2</ele>
        <time>2022-08-07T08:20:43Z</time>
      </trkpt>
      <trkpt lat="44.87411" lon="1.62352">
        <ele>218.5</ele>
        <time>2022-08-07T08:20:45Z</time>
      </trkpt>
      <trkpt lat="44.87406" lon="1.62354">
        <ele>218.7</ele>
        <time>2022-08-07T08:20:47Z</time>
      </trkpt>
      <trkpt lat="44.87402" lon="1.62357">
        <ele>218.8</ele>
        <time>2022-08-07T08:20:49Z</time>
      </trkpt>
      <trkpt lat="44.87397" lon="1.62358">
        <ele>219</ele>
        <time>2022-08-07T08:20:51Z</time>
      </trkpt>
      <trkpt lat="44.87393" lon="1.6236">
        <ele>219.2</ele>
        <time>2022-08-07T08:20:53Z</time>
      </trkpt>
      <trkpt lat="44.87389" lon="1.62363">
        <ele>219.3</ele>
        <time>2022-08-07T08:20:55Z</time>
      </trkpt>
      <trkpt lat="44.87385" lon="1.62365">
        <ele>219.5</ele>
        <time>2022-08-07T08:20:57Z</time>
      </trkpt>
      <trkpt lat="44.8738" lon="1.62367">
        <ele>219.6</ele>
        <time>2022-08-07T08:20:59Z</time>
      </trkpt>
      <trkpt lat="44.87376" lon="1.62369">
        <ele>219.7</ele>
        <time>2022-08-07T08:21:01Z</time>
      </trkpt>
      <trkpt lat="44.87372" lon="1.62366">
        <ele>219.9</ele>
        <time>2022-08-07T08:21:03Z</time>
      </trkpt>
      <trkpt lat="44.87368" lon="1.62362">
        <ele>220.1</ele>
        <time>2022-08-07T08:21:05Z</time>
      </trkpt>
      <trkpt lat="44.87364" lon="1.62358">
        <ele>220.3</ele>
        <time>2022-08-07T08:21:07Z</time>
      </trkpt>
      <trkpt lat="44.8736" lon="1.62354">
        <ele>220.5</ele>
        <time>2022-08-07T08:21:09Z</time>
      </trkpt>
      <trkpt lat="44.87356" lon="1.62349">
        <ele>220.7</ele>
        <time>2022-08-07T08:21:11Z</time>
      </trkpt>
      <trkpt lat="44.87351" lon="1.62345">
        <ele>220.9</ele>
        <time>2022-08-07T08:21:13Z</time>
      </trkpt>
      <trkpt lat="44.87347" lon="1.62341">
        <ele>221.2</ele>
        <time>2022-08-07T08:21:15Z</time>
      </trkpt>
      <trkpt lat="44.87343" lon="1.62337">
        <ele>221.5</ele>
        <time>2022-08-07T08:21:17Z</time>
      </trkpt>
      <trkpt lat="44.87339" lon="1.62333">
        <ele>221.7</ele>
        <time>2022-08-07T08:21:19Z</time>
      </trkpt>
      <trkpt lat="44.87335" lon="1.62329">
        <ele>222</ele>
        <time>2022-08-07T08:21:21Z</time>
      </trkpt>
      <trkpt lat="44.87331" lon="1.62324">
        <ele>222.3</ele>
        <time>2022-08-07T08:21:23Z</time>
      </trkpt>
      <trkpt lat="44.87327" lon="1.6232">
        <ele>222.6</ele>
        <time>2022-08-07T08:21:25Z</time>
      </trkpt>
      <trkpt lat="44.87322" lon="1.62316">
        <ele>222.9</ele>
        <time>2022-08-07T08:21:27Z</time>
      </trkpt>
      <trkpt lat="44.87318" lon="1.62311">
        <ele>223.2</ele>
        <time>2022-08-07T08:21:29Z</time>
      </trkpt>
      <trkpt lat="44.87314" lon="1.62306">
        <ele>223.6</ele>
        <time>2022-08-07T08:21:31Z</time>
      </trkpt>
      <trkpt lat="44.8731" lon="1.62301">
        <ele>223.9</ele>
        <time>2022-08-07T08:21:33Z</time>
      </trkpt>
      <trkpt lat="44.87306" lon="1.62297">
        <ele>224.2</ele>
        <time>2022-08-07T08:21:35Z</time>
      </trkpt>
      <trkpt lat="44.87302" lon="1.62293">
        <ele>224.6</ele>
        <time>2022-08-07T08:21:37Z</time>
      </trkpt>
      <trkpt lat="44.87298" lon="1.62289">
        <ele>224.9</ele>
        <time>2022-08-07T08:21:39Z</time>
      </trkpt>
      <trkpt lat="44.87295" lon="1.62286">
        <ele>225.2</ele>
        <time>2022-08-07T08:21:41Z</time>
      </trkpt>
      <trkpt lat="44.87291" lon="1.62283">
        <ele>225.4</ele>
        <time>2022-08-07T08:21:43Z</time>
      </trkpt>
      <trkpt lat="44.87288" lon="1.62279">
        <ele>225.7</ele>
        <time>2022-08-07T08:21:45Z</time>
      </trkpt>
      <trkpt lat="44.87285" lon="1.62274">
        <ele>226</ele>
        <time>2022-08-07T08:21:47Z</time>
      </trkpt>
      <trkpt lat="44.87282" lon="1.6227">
        <ele>226.3</ele>
        <time>2022-08-07T08:21:49Z</time>
      </trkpt>
      <trkpt lat="44.87278" lon="1.62265">
        <ele>226.6</ele>
        <time>2022-08-07T08:21:51Z</time>
      </trkpt>
      <trkpt lat="44.87276" lon="1.62261">
        <ele>226.9</ele>
        <time>2022-08-07T08:21:53Z</time>
      </trkpt>
      <trkpt lat="44.87273" lon="1.62255">
        <ele>227.2</ele>
        <time>2022-08-07T08:21:55Z</time>
      </trkpt>
      <trkpt lat="44.8727" lon="1.6225">
        <ele>227.6</ele>
        <time>2022-08-07T08:21:57Z</time>
      </trkpt>
      <trkpt lat="44.87267" lon="1.62244">
        <ele>228.2</ele>
        <time>2022-08-07T08:21:59Z</time>
      </trkpt>
      <trkpt lat="44.87264" lon="1.62239">
        <ele>228.8</ele>
        <time>2022-08-07T08:22:01Z</time>
      </trkpt>
      <trkpt lat="44.87262" lon="1.62234">
        <ele>229.3</ele>
        <time>2022-08-07T08:22:03Z</time>
      </trkpt>
      <trkpt lat="44.8726" lon="1.62228">
        <ele>229.9</ele>
        <time>2022-08-07T08:22:05Z</time>
      </trkpt>
      <trkpt lat="44.87257" lon="1.62222">
        <ele>230.5</ele>
        <time>2022-08-07T08:22:07Z</time>
      </trkpt>
      <trkpt lat="44.87256" lon="1.62215">
        <ele>231</ele>
        <time>2022-08-07T08:22:09Z</time>
      </trkpt>
      <trkpt lat="44.87257" lon="1.62209">
        <ele>231.5</ele>
        <time>2022-08-07T08:22:11Z</time>
      </trkpt>
      <trkpt lat="44.87258" lon="1.62203">
        <ele>231.8</ele>
        <time>2022-08-07T08:22:13Z</time>
      </trkpt>
      <trkpt lat="44.87259" lon="1.62197">
        <ele>232.2</ele>
        <time>2022-08-07T08:22:15Z</time>
      </trkpt>
      <trkpt lat="44.8726" lon="1.62193">
        <ele>232.4</ele>
        <time>2022-08-07T08:22:17Z</time>
      </trkpt>
      <trkpt lat="44.87261" lon="1.62191">
        <ele>232.5</ele>
        <time>2022-08-07T08:22:19Z</time>
      </trkpt>
      <trkpt lat="44.87263" lon="1.62187">
        <ele>232.6</ele>
        <time>2022-08-07T08:22:21Z</time>
      </trkpt>
      <trkpt lat="44.87264" lon="1.62182">
        <ele>232.8</ele>
        <time>2022-08-07T08:22:23Z</time>
      </trkpt>
      <trkpt lat="44.87266" lon="1.62177">
        <ele>233</ele>
        <time>2022-08-07T08:22:25Z</time>
      </trkpt>
      <trkpt lat="44.87269" lon="1.62173">
        <ele>233.2</ele>
        <time>2022-08-07T08:22:27Z</time>
      </trkpt>
      <trkpt lat="44.87271" lon="1.62168">
        <ele>233.4</ele>
        <time>2022-08-07T08:22:29Z</time>
      </trkpt>
      <trkpt lat="44.87274" lon="1.62164">
        <ele>233.6</ele>
        <time>2022-08-07T08:22:31Z</time>
      </trkpt>
      <trkpt lat="44.87276" lon="1.62159">
        <ele>234</ele>
        <time>2022-08-07T08:22:33Z</time>
      </trkpt>
      <trkpt lat="44.87278" lon="1.62154">
        <ele>234.4</ele>
        <time>2022-08-07T08:22:35Z</time>
      </trkpt>
      <trkpt lat="44.87279" lon="1.62149">
        <ele>234.7</ele>
        <time>2022-08-07T08:22:37Z</time>
      </trkpt>
      <trkpt lat="44.87282" lon="1.62145">
        <ele>235</ele>
        <time>2022-08-07T08:22:39Z</time>
      </trkpt>
      <trkpt lat="44.87283" lon="1.62142">
        <ele>235.2</ele>
        <time>2022-08-07T08:22:41Z</time>
      </trkpt>
      <trkpt lat="44.87285" lon="1.62138">
        <ele>235.5</ele>
        <time>2022-08-07T08:22:43Z</time>
      </trkpt>
      <trkpt lat="44.87288" lon="1.62133">
        <ele>235.7</ele>
        <time>2022-08-07T08:22:45Z</time>
      </trkpt>
      <trkpt lat="44.8729" lon="1.62129">
        <ele>236</ele>
        <time>2022-08-07T08:22:47Z</time>
      </trkpt>
      <trkpt lat="44.87293" lon="1.62124">
        <ele>236.2</ele>
        <time>2022-08-07T08:22:49Z</time>
      </trkpt>
      <trkpt lat="44.87295" lon="1.62119">
        <ele>236.6</ele>
        <time>2022-08-07T08:22:51Z</time>
      </trkpt>
      <trkpt lat="44.87297" lon="1.62115">
        <ele>236.7</ele>
        <time>2022-08-07T08:22:53Z</time>
      </trkpt>
      <trkpt lat="44.87298" lon="1.6211">
        <ele>237.1</ele>
        <time>2022-08-07T08:22:55Z</time>
      </trkpt>
      <trkpt lat="44.87301" lon="1.62105">
        <ele>237.4</ele>
        <time>2022-08-07T08:22:57Z</time>
      </trkpt>
      <trkpt lat="44.87303" lon="1.62102">
        <ele>237.6</ele>
        <time>2022-08-07T08:22:59Z</time>
      </trkpt>
      <trkpt lat="44.87304" lon="1.62099">
        <ele>237.7</ele>
        <time>2022-08-07T08:23:01Z</time>
      </trkpt>
      <trkpt lat="44.87306" lon="1.62095">
        <ele>237.8</ele>
        <time>2022-08-07T08:23:03Z</time>
      </trkpt>
      <trkpt lat="44.87308" lon="1.62092">
        <ele>237.9</ele>
        <time>2022-08-07T08:23:05Z</time>
      </trkpt>
      <trkpt lat="44.87309" lon="1.62088">
        <ele>238.2</ele>
        <time>2022-08-07T08:23:07Z</time>
      </trkpt>
      <trkpt lat="44.87311" lon="1.62083">
        <ele>238.4</ele>
        <time>2022-08-07T08:23:09Z</time>
      </trkpt>
      <trkpt lat="44.87313" lon="1.6208">
        <ele>238.5</ele>
        <time>2022-08-07T08:23:11Z</time>
      </trkpt>
      <trkpt lat="44.87315" lon="1.62076">
        <ele>238.5</ele>
        <time>2022-08-07T08:23:13Z</time>
      </trkpt>
      <trkpt lat="44.87317" lon="1.62072">
        <ele>238.6</ele>
        <time>2022-08-07T08:23:15Z</time>
      </trkpt>
      <trkpt lat="44.87319" lon="1.62068">
        <ele>238.7</ele>
        <time>2022-08-07T08:23:17Z</time>
      </trkpt>
      <trkpt lat="44.87321" lon="1.62065">
        <ele>238.8</ele>
        <time>2022-08-07T08:23:19Z</time>
      </trkpt>
      <trkpt lat="44.87323" lon="1.62061">
        <ele>238.9</ele>
        <time>2022-08-07T08:23:21Z</time>
      </trkpt>
      <trkpt lat="44.87324" lon="1.62057">
        <ele>239.1</ele>
        <time>2022-08-07T08:23:23Z</time>
      </trkpt>
      <trkpt lat="44.87326" lon="1.62053">
        <ele>239.3</ele>
        <time>2022-08-07T08:23:25Z</time>
      </trkpt>
      <trkpt lat="44.87327" lon="1.62049">
        <ele>239.5</ele>
        <time>2022-08-07T08:23:27Z</time>
      </trkpt>
      <trkpt lat="44.87329" lon="1.62045">
        <ele>239.6</ele>
        <time>2022-08-07T08:23:29Z</time>
      </trkpt>
      <trkpt lat="44.8733" lon="1.62041">
        <ele>239.8</ele>
        <time>2022-08-07T08:23:31Z</time>
      </trkpt>
      <trkpt lat="44.87332" lon="1.62036">
        <ele>240.1</ele>
        <time>2022-08-07T08:23:33Z</time>
      </trkpt>
      <trkpt lat="44.87333" lon="1.62031">
        <ele>240.4</ele>
        <time>2022-08-07T08:23:35Z</time>
      </trkpt>
      <trkpt lat="44.87334" lon="1.62026">
        <ele>240.7</ele>
        <time>2022-08-07T08:23:37Z</time>
      </trkpt>
      <trkpt lat="44.87335" lon="1.62022">
        <ele>241</ele>
        <time>2022-08-07T08:23:39Z</time>
      </trkpt>
      <trkpt lat="44.87335" lon="1.62017">
        <ele>241.4</ele>
        <time>2022-08-07T08:23:41Z</time>
      </trkpt>
      <trkpt lat="44.87334" lon="1.62012">
        <ele>241.9</ele>
        <time>2022-08-07T08:23:43Z</time>
      </trkpt>
      <trkpt lat="44.87334" lon="1.62007">
        <ele>242.3</ele>
        <time>2022-08-07T08:23:45Z</time>
      </trkpt>
      <trkpt lat="44.87334" lon="1.62002">
        <ele>242.8</ele>
        <time>2022-08-07T08:23:47Z</time>
      </trkpt>
      <trkpt lat="44.87333" lon="1.61997">
        <ele>243</ele>
        <time>2022-08-07T08:23:49Z</time>
      </trkpt>
      <trkpt lat="44.87333" lon="1.61992">
        <ele>243</ele>
        <time>2022-08-07T08:23:51Z</time>
      </trkpt>
      <trkpt lat="44.87332" lon="1.61987">
        <ele>243.1</ele>
        <time>2022-08-07T08:23:53Z</time>
      </trkpt>
      <trkpt lat="44.87331" lon="1.61982">
        <ele>243.2</ele>
        <time>2022-08-07T08:23:55Z</time>
      </trkpt>
      <trkpt lat="44.8733" lon="1.61978">
        <ele>243.2</ele>
        <time>2022-08-07T08:23:57Z</time>
      </trkpt>
      <trkpt lat="44.87329" lon="1.61973">
        <ele>243.3</ele>
        <time>2022-08-07T08:23:59Z</time>
      </trkpt>
      <trkpt lat="44.87328" lon="1.61968">
        <ele>243.4</ele>
        <time>2022-08-07T08:24:01Z</time>
      </trkpt>
      <trkpt lat="44.87327" lon="1.61963">
        <ele>243.5</ele>
        <time>2022-08-07T08:24:03Z</time>
      </trkpt>
      <trkpt lat="44.87326" lon="1.61958">
        <ele>243.6</ele>
        <time>2022-08-07T08:24:05Z</time>
      </trkpt>
      <trkpt lat="44.87325" lon="1.61954">
        <ele>243.6</ele>
        <time>2022-08-07T08:24:07Z</time>
      </trkpt>
      <trkpt lat="44.87323" lon="1.6195">
        <ele>243.8</ele>
        <time>2022-08-07T08:24:09Z</time>
      </trkpt>
      <trkpt lat="44.87322" lon="1.61945">
        <ele>243.9</ele>
        <time>2022-08-07T08:24:11Z</time>
      </trkpt>
      <trkpt lat="44.8732" lon="1.6194">
        <ele>243.9</ele>
        <time>2022-08-07T08:24:13Z</time>
      </trkpt>
      <trkpt lat="44.87319" lon="1.61935">
        <ele>244</ele>
        <time>2022-08-07T08:24:15Z</time>
      </trkpt>
      <trkpt lat="44.87318" lon="1.6193">
        <ele>244.1</ele>
        <time>2022-08-07T08:24:17Z</time>
      </trkpt>
      <trkpt lat="44.87317" lon="1.61925">
        <ele>244.2</ele>
        <time>2022-08-07T08:24:19Z</time>
      </trkpt>
      <trkpt lat="44.87315" lon="1.6192">
        <ele>244.3</ele>
        <time>2022-08-07T08:24:21Z</time>
      </trkpt>
      <trkpt lat="44.87314" lon="1.61915">
        <ele>244.5</ele>
        <time>2022-08-07T08:24:23Z</time>
      </trkpt>
      <trkpt lat="44.87312" lon="1.6191">
        <ele>244.8</ele>
        <time>2022-08-07T08:24:25Z</time>
      </trkpt>
      <trkpt lat="44.87311" lon="1.61905">
        <ele>245.1</ele>
        <time>2022-08-07T08:24:27Z</time>
      </trkpt>
      <trkpt lat="44.87309" lon="1.619">
        <ele>245.4</ele>
        <time>2022-08-07T08:24:29Z</time>
      </trkpt>
      <trkpt lat="44.87308" lon="1.61895">
        <ele>245.8</ele>
        <time>2022-08-07T08:24:31Z</time>
      </trkpt>
      <trkpt lat="44.87307" lon="1.6189">
        <ele>246.1</ele>
        <time>2022-08-07T08:24:33Z</time>
      </trkpt>
      <trkpt lat="44.87305" lon="1.61885">
        <ele>246.4</ele>
        <time>2022-08-07T08:24:35Z</time>
      </trkpt>
      <trkpt lat="44.87304" lon="1.61881">
        <ele>246.7</ele>
        <time>2022-08-07T08:24:37Z</time>
      </trkpt>
      <trkpt lat="44.87303" lon="1.61876">
        <ele>247</ele>
        <time>2022-08-07T08:24:39Z</time>
      </trkpt>
      <trkpt lat="44.87301" lon="1.61871">
        <ele>247.3</ele>
        <time>2022-08-07T08:24:41Z</time>
      </trkpt>
      <trkpt lat="44.873" lon="1.61866">
        <ele>247.6</ele>
        <time>2022-08-07T08:24:43Z</time>
      </trkpt>
      <trkpt lat="44.87299" lon="1.61861">
        <ele>247.9</ele>
        <time>2022-08-07T08:24:45Z</time>
      </trkpt>
      <trkpt lat="44.87297" lon="1.61857">
        <ele>248.2</ele>
        <time>2022-08-07T08:24:47Z</time>
      </trkpt>
      <trkpt lat="44.87296" lon="1.61852">
        <ele>248.4</ele>
        <time>2022-08-07T08:24:49Z</time>
      </trkpt>
      <trkpt lat="44.87295" lon="1.61847">
        <ele>248.7</ele>
        <time>2022-08-07T08:24:51Z</time>
      </trkpt>
      <trkpt lat="44.87294" lon="1.61842">
        <ele>249</ele>
        <time>2022-08-07T08:24:53Z</time>
      </trkpt>
      <trkpt lat="44.87293" lon="1.61836">
        <ele>249.3</ele>
        <time>2022-08-07T08:24:55Z</time>
      </trkpt>
      <trkpt lat="44.87291" lon="1.61831">
        <ele>249.5</ele>
        <time>2022-08-07T08:24:57Z</time>
      </trkpt>
      <trkpt lat="44.87291" lon="1.61825">
        <ele>249.5</ele>
        <time>2022-08-07T08:24:59Z</time>
      </trkpt>
      <trkpt lat="44.8729" lon="1.61819">
        <ele>249.5</ele>
        <time>2022-08-07T08:25:01Z</time>
      </trkpt>
      <trkpt lat="44.87289" lon="1.61814">
        <ele>249.5</ele>
        <time>2022-08-07T08:25:03Z</time>
      </trkpt>
      <trkpt lat="44.87288" lon="1.61807">
        <ele>249.5</ele>
        <time>2022-08-07T08:25:05Z</time>
      </trkpt>
      <trkpt lat="44.87287" lon="1.61802">
        <ele>249.5</ele>
        <time>2022-08-07T08:25:07Z</time>
      </trkpt>
      <trkpt lat="44.87287" lon="1.61797">
        <ele>249.5</ele>
        <time>2022-08-07T08:25:09Z</time>
      </trkpt>
      <trkpt lat="44.87287" lon="1.61792">
        <ele>249.5</ele>
        <time>2022-08-07T08:25:11Z</time>
      </trkpt>
      <trkpt lat="44.87286" lon="1.61787">
        <ele>249.4</ele>
        <time>2022-08-07T08:25:13Z</time>
      </trkpt>
      <trkpt lat="44.87285" lon="1.61782">
        <ele>249.4</ele>
        <time>2022-08-07T08:25:15Z</time>
      </trkpt>
      <trkpt lat="44.87282" lon="1.6178">
        <ele>249.5</ele>
        <time>2022-08-07T08:25:17Z</time>
      </trkpt>
      <trkpt lat="44.8728" lon="1.61781">
        <ele>249.6</ele>
        <time>2022-08-07T08:25:19Z</time>
      </trkpt>
      <trkpt lat="44.87281" lon="1.61782">
        <ele>249.6</ele>
        <time>2022-08-07T08:25:21Z</time>
      </trkpt>
      <trkpt lat="44.87281" lon="1.61782">
        <ele>249.6</ele>
        <time>2022-08-07T08:25:23Z</time>
      </trkpt>
      <trkpt lat="44.87281" lon="1.61782">
        <ele>249.6</ele>
        <time>2022-08-07T08:25:25Z</time>
      </trkpt>
      <trkpt lat="44.87281" lon="1.61782">
        <ele>249.6</ele>
        <time>2022-08-07T08:25:27Z</time>
      </trkpt>
      <trkpt lat="44.87295" lon="1.61746">
        <ele>248.9</ele>
        <time>2022-08-07T08:27:19Z</time>
      </trkpt>
      <trkpt lat="44.87298" lon="1.61737">
        <ele>248.7</ele>
        <time>2022-08-07T08:27:21Z</time>
      </trkpt>
      <trkpt lat="44.87302" lon="1.61728">
        <ele>248.6</ele>
        <time>2022-08-07T08:27:23Z</time>
      </trkpt>
      <trkpt lat="44.87306" lon="1.6172">
        <ele>248.5</ele>
        <time>2022-08-07T08:27:25Z</time>
      </trkpt>
      <trkpt lat="44.8731" lon="1.61711">
        <ele>248.5</ele>
        <time>2022-08-07T08:27:27Z</time>
      </trkpt>
      <trkpt lat="44.87313" lon="1.61701">
        <ele>248.5</ele>
        <time>2022-08-07T08:27:29Z</time>
      </trkpt>
      <trkpt lat="44.87315" lon="1.6169">
        <ele>248.5</ele>
        <time>2022-08-07T08:27:31Z</time>
      </trkpt>
      <trkpt lat="44.87316" lon="1.6168">
        <ele>248.6</ele>
        <time>2022-08-07T08:27:33Z</time>
      </trkpt>
      <trkpt lat="44.87316" lon="1.61669">
        <ele>248.6</ele>
        <time>2022-08-07T08:27:35Z</time>
      </trkpt>
      <trkpt lat="44.87315" lon="1.61657">
        <ele>248.4</ele>
        <time>2022-08-07T08:27:37Z</time>
      </trkpt>
      <trkpt lat="44.87313" lon="1.61645">
        <ele>248.2</ele>
        <time>2022-08-07T08:27:39Z</time>
      </trkpt>
      <trkpt lat="44.87311" lon="1.61632">
        <ele>247.9</ele>
        <time>2022-08-07T08:27:41Z</time>
      </trkpt>
      <trkpt lat="44.87308" lon="1.61619">
        <ele>247.7</ele>
        <time>2022-08-07T08:27:43Z</time>
      </trkpt>
      <trkpt lat="44.87305" lon="1.61606">
        <ele>247.4</ele>
        <time>2022-08-07T08:27:45Z</time>
      </trkpt>
      <trkpt lat="44.87302" lon="1.61592">
        <ele>247</ele>
        <time>2022-08-07T08:27:47Z</time>
      </trkpt>
      <trkpt lat="44.873" lon="1.61578">
        <ele>246.7</ele>
        <time>2022-08-07T08:27:49Z</time>
      </trkpt>
      <trkpt lat="44.87297" lon="1.61562">
        <ele>246.3</ele>
        <time>2022-08-07T08:27:51Z</time>
      </trkpt>
      <trkpt lat="44.87294" lon="1.61547">
        <ele>245.9</ele>
        <time>2022-08-07T08:27:53Z</time>
      </trkpt>
      <trkpt lat="44.87291" lon="1.61531">
        <ele>245.6</ele>
        <time>2022-08-07T08:27:55Z</time>
      </trkpt>
      <trkpt lat="44.87288" lon="1.61516">
        <ele>245.2</ele>
        <time>2022-08-07T08:27:57Z</time>
      </trkpt>
      <trkpt lat="44.87285" lon="1.615">
        <ele>244.8</ele>
        <time>2022-08-07T08:27:59Z</time>
      </trkpt>
      <trkpt lat="44.87282" lon="1.61486">
        <ele>245.3</ele>
        <time>2022-08-07T08:28:01Z</time>
      </trkpt>
      <trkpt lat="44.87279" lon="1.61471">
        <ele>245.7</ele>
        <time>2022-08-07T08:28:03Z</time>
      </trkpt>
      <trkpt lat="44.87277" lon="1.61458">
        <ele>246.2</ele>
        <time>2022-08-07T08:28:05Z</time>
      </trkpt>
      <trkpt lat="44.87275" lon="1.61444">
        <ele>246.6</ele>
        <time>2022-08-07T08:28:07Z</time>
      </trkpt>
      <trkpt lat="44.87272" lon="1.6143">
        <ele>247</ele>
        <time>2022-08-07T08:28:09Z</time>
      </trkpt>
      <trkpt lat="44.8727" lon="1.61417">
        <ele>247.4</ele>
        <time>2022-08-07T08:28:11Z</time>
      </trkpt>
      <trkpt lat="44.87267" lon="1.61405">
        <ele>247.8</ele>
        <time>2022-08-07T08:28:13Z</time>
      </trkpt>
      <trkpt lat="44.87265" lon="1.61393">
        <ele>248.1</ele>
        <time>2022-08-07T08:28:15Z</time>
      </trkpt>
      <trkpt lat="44.87262" lon="1.61382">
        <ele>248.4</ele>
        <time>2022-08-07T08:28:17Z</time>
      </trkpt>
      <trkpt lat="44.8726" lon="1.61371">
        <ele>248.6</ele>
        <time>2022-08-07T08:28:19Z</time>
      </trkpt>
      <trkpt lat="44.87258" lon="1.6136">
        <ele>248.8</ele>
        <time>2022-08-07T08:28:21Z</time>
      </trkpt>
      <trkpt lat="44.87256" lon="1.61351">
        <ele>249</ele>
        <time>2022-08-07T08:28:23Z</time>
      </trkpt>
      <trkpt lat="44.87254" lon="1.61341">
        <ele>249.1</ele>
        <time>2022-08-07T08:28:25Z</time>
      </trkpt>
      <trkpt lat="44.87251" lon="1.61331">
        <ele>249.1</ele>
        <time>2022-08-07T08:28:27Z</time>
      </trkpt>
      <trkpt lat="44.87249" lon="1.61321">
        <ele>249.2</ele>
        <time>2022-08-07T08:28:29Z</time>
      </trkpt>
      <trkpt lat="44.87247" lon="1.61312">
        <ele>249.2</ele>
        <time>2022-08-07T08:28:31Z</time>
      </trkpt>
      <trkpt lat="44.87245" lon="1.61303">
        <ele>249.2</ele>
        <time>2022-08-07T08:28:33Z</time>
      </trkpt>
      <trkpt lat="44.87244" lon="1.61293">
        <ele>249.3</ele>
        <time>2022-08-07T08:28:35Z</time>
      </trkpt>
      <trkpt lat="44.87243" lon="1.61284">
        <ele>249.5</ele>
        <time>2022-08-07T08:28:37Z</time>
      </trkpt>
      <trkpt lat="44.87243" lon="1.61275">
        <ele>249.8</ele>
        <time>2022-08-07T08:28:39Z</time>
      </trkpt>
      <trkpt lat="44.87243" lon="1.61266">
        <ele>250</ele>
        <time>2022-08-07T08:28:41Z</time>
      </trkpt>
      <trkpt lat="44.87242" lon="1.61258">
        <ele>250.2</ele>
        <time>2022-08-07T08:28:43Z</time>
      </trkpt>
      <trkpt lat="44.87242" lon="1.61249">
        <ele>250.4</ele>
        <time>2022-08-07T08:28:45Z</time>
      </trkpt>
      <trkpt lat="44.87241" lon="1.6124">
        <ele>250.4</ele>
        <time>2022-08-07T08:28:47Z</time>
      </trkpt>
      <trkpt lat="44.87241" lon="1.61232">
        <ele>250.3</ele>
        <time>2022-08-07T08:28:49Z</time>
      </trkpt>
      <trkpt lat="44.8724" lon="1.61224">
        <ele>250.3</ele>
        <time>2022-08-07T08:28:51Z</time>
      </trkpt>
      <trkpt lat="44.8724" lon="1.61215">
        <ele>250.3</ele>
        <time>2022-08-07T08:28:53Z</time>
      </trkpt>
      <trkpt lat="44.87239" lon="1.61205">
        <ele>250.2</ele>
        <time>2022-08-07T08:28:55Z</time>
      </trkpt>
      <trkpt lat="44.87239" lon="1.61195">
        <ele>250.2</ele>
        <time>2022-08-07T08:28:57Z</time>
      </trkpt>
      <trkpt lat="44.87239" lon="1.61186">
        <ele>250.2</ele>
        <time>2022-08-07T08:28:59Z</time>
      </trkpt>
      <trkpt lat="44.87239" lon="1.61176">
        <ele>250.2</ele>
        <time>2022-08-07T08:29:01Z</time>
      </trkpt>
      <trkpt lat="44.8724" lon="1.61166">
        <ele>250.2</ele>
        <time>2022-08-07T08:29:03Z</time>
      </trkpt>
      <trkpt lat="44.8724" lon="1.61157">
        <ele>250</ele>
        <time>2022-08-07T08:29:05Z</time>
      </trkpt>
      <trkpt lat="44.8724" lon="1.61148">
        <ele>249.8</ele>
        <time>2022-08-07T08:29:07Z</time>
      </trkpt>
      <trkpt lat="44.8724" lon="1.61138">
        <ele>249.6</ele>
        <time>2022-08-07T08:29:09Z</time>
      </trkpt>
      <trkpt lat="44.8724" lon="1.61128">
        <ele>249.3</ele>
        <time>2022-08-07T08:29:11Z</time>
      </trkpt>
      <trkpt lat="44.8724" lon="1.61117">
        <ele>249</ele>
        <time>2022-08-07T08:29:13Z</time>
      </trkpt>
      <trkpt lat="44.87239" lon="1.61106">
        <ele>248.6</ele>
        <time>2022-08-07T08:29:15Z</time>
      </trkpt>
      <trkpt lat="44.87238" lon="1.61095">
        <ele>248.3</ele>
        <time>2022-08-07T08:29:17Z</time>
      </trkpt>
      <trkpt lat="44.87236" lon="1.61082">
        <ele>247.8</ele>
        <time>2022-08-07T08:29:19Z</time>
      </trkpt>
      <trkpt lat="44.87235" lon="1.6107">
        <ele>247.8</ele>
        <time>2022-08-07T08:29:21Z</time>
      </trkpt>
      <trkpt lat="44.87234" lon="1.61059">
        <ele>247.8</ele>
        <time>2022-08-07T08:29:23Z</time>
      </trkpt>
      <trkpt lat="44.87234" lon="1.61047">
        <ele>247.8</ele>
        <time>2022-08-07T08:29:25Z</time>
      </trkpt>
      <trkpt lat="44.87232" lon="1.61034">
        <ele>247.8</ele>
        <time>2022-08-07T08:29:27Z</time>
      </trkpt>
      <trkpt lat="44.87231" lon="1.61021">
        <ele>247.8</ele>
        <time>2022-08-07T08:29:29Z</time>
      </trkpt>
      <trkpt lat="44.87231" lon="1.61007">
        <ele>247.8</ele>
        <time>2022-08-07T08:29:31Z</time>
      </trkpt>
      <trkpt lat="44.8723" lon="1.60996">
        <ele>247.6</ele>
        <time>2022-08-07T08:29:33Z</time>
      </trkpt>
      <trkpt lat="44.87228" lon="1.60987">
        <ele>247.2</ele>
        <time>2022-08-07T08:29:35Z</time>
      </trkpt>
      <trkpt lat="44.87227" lon="1.60978">
        <ele>246.9</ele>
        <time>2022-08-07T08:29:37Z</time>
      </trkpt>
      <trkpt lat="44.87221" lon="1.6097">
        <ele>246.5</ele>
        <time>2022-08-07T08:29:39Z</time>
      </trkpt>
      <trkpt lat="44.87213" lon="1.60963">
        <ele>246.1</ele>
        <time>2022-08-07T08:29:41Z</time>
      </trkpt>
      <trkpt lat="44.87205" lon="1.60957">
        <ele>245.9</ele>
        <time>2022-08-07T08:29:43Z</time>
      </trkpt>
      <trkpt lat="44.87196" lon="1.60951">
        <ele>245.9</ele>
        <time>2022-08-07T08:29:45Z</time>
      </trkpt>
      <trkpt lat="44.87187" lon="1.60945">
        <ele>245.9</ele>
        <time>2022-08-07T08:29:47Z</time>
      </trkpt>
      <trkpt lat="44.87177" lon="1.60938">
        <ele>246.1</ele>
        <time>2022-08-07T08:29:49Z</time>
      </trkpt>
      <trkpt lat="44.87168" lon="1.60932">
        <ele>246.4</ele>
        <time>2022-08-07T08:29:51Z</time>
      </trkpt>
      <trkpt lat="44.87158" lon="1.60926">
        <ele>246.3</ele>
        <time>2022-08-07T08:29:53Z</time>
      </trkpt>
      <trkpt lat="44.87149" lon="1.60919">
        <ele>246.1</ele>
        <time>2022-08-07T08:29:55Z</time>
      </trkpt>
      <trkpt lat="44.8714" lon="1.60911">
        <ele>245.8</ele>
        <time>2022-08-07T08:29:57Z</time>
      </trkpt>
      <trkpt lat="44.8713" lon="1.60905">
        <ele>245.5</ele>
        <time>2022-08-07T08:29:59Z</time>
      </trkpt>
      <trkpt lat="44.8712" lon="1.609">
        <ele>245.2</ele>
        <time>2022-08-07T08:30:01Z</time>
      </trkpt>
      <trkpt lat="44.8711" lon="1.60897">
        <ele>245</ele>
        <time>2022-08-07T08:30:03Z</time>
      </trkpt>
      <trkpt lat="44.87101" lon="1.60895">
        <ele>244.7</ele>
        <time>2022-08-07T08:30:05Z</time>
      </trkpt>
      <trkpt lat="44.87091" lon="1.60893">
        <ele>244.4</ele>
        <time>2022-08-07T08:30:07Z</time>
      </trkpt>
      <trkpt lat="44.87081" lon="1.6089">
        <ele>244.2</ele>
        <time>2022-08-07T08:30:09Z</time>
      </trkpt>
      <trkpt lat="44.87071" lon="1.60888">
        <ele>243.9</ele>
        <time>2022-08-07T08:30:11Z</time>
      </trkpt>
      <trkpt lat="44.87062" lon="1.60887">
        <ele>243.6</ele>
        <time>2022-08-07T08:30:13Z</time>
      </trkpt>
      <trkpt lat="44.87052" lon="1.60887">
        <ele>243.2</ele>
        <time>2022-08-07T08:30:15Z</time>
      </trkpt>
      <trkpt lat="44.87041" lon="1.60891">
        <ele>242.6</ele>
        <time>2022-08-07T08:30:17Z</time>
      </trkpt>
      <trkpt lat="44.8703" lon="1.60895">
        <ele>241.9</ele>
        <time>2022-08-07T08:30:19Z</time>
      </trkpt>
      <trkpt lat="44.87018" lon="1.60899">
        <ele>241.3</ele>
        <time>2022-08-07T08:30:21Z</time>
      </trkpt>
      <trkpt lat="44.87005" lon="1.60901">
        <ele>240.8</ele>
        <time>2022-08-07T08:30:23Z</time>
      </trkpt>
      <trkpt lat="44.86991" lon="1.609">
        <ele>240.3</ele>
        <time>2022-08-07T08:30:25Z</time>
      </trkpt>
      <trkpt lat="44.86978" lon="1.60899">
        <ele>239.9</ele>
        <time>2022-08-07T08:30:27Z</time>
      </trkpt>
      <trkpt lat="44.86965" lon="1.60898">
        <ele>239.4</ele>
        <time>2022-08-07T08:30:29Z</time>
      </trkpt>
      <trkpt lat="44.86951" lon="1.609">
        <ele>239</ele>
        <time>2022-08-07T08:30:31Z</time>
      </trkpt>
      <trkpt lat="44.86939" lon="1.60906">
        <ele>238.5</ele>
        <time>2022-08-07T08:30:33Z</time>
      </trkpt>
      <trkpt lat="44.86925" lon="1.6091">
        <ele>238.2</ele>
        <time>2022-08-07T08:30:35Z</time>
      </trkpt>
      <trkpt lat="44.86914" lon="1.60904">
        <ele>237.9</ele>
        <time>2022-08-07T08:30:37Z</time>
      </trkpt>
      <trkpt lat="44.86909" lon="1.6089">
        <ele>237.8</ele>
        <time>2022-08-07T08:30:39Z</time>
      </trkpt>
      <trkpt lat="44.86905" lon="1.60877">
        <ele>237.6</ele>
        <time>2022-08-07T08:30:41Z</time>
      </trkpt>
      <trkpt lat="44.86902" lon="1.60864">
        <ele>237.3</ele>
        <time>2022-08-07T08:30:43Z</time>
      </trkpt>
      <trkpt lat="44.869" lon="1.60853">
        <ele>237.1</ele>
        <time>2022-08-07T08:30:45Z</time>
      </trkpt>
      <trkpt lat="44.86899" lon="1.6084">
        <ele>236.7</ele>
        <time>2022-08-07T08:30:47Z</time>
      </trkpt>
      <trkpt lat="44.86905" lon="1.60824">
        <ele>235.4</ele>
        <time>2022-08-07T08:30:49Z</time>
      </trkpt>
      <trkpt lat="44.86914" lon="1.60809">
        <ele>234</ele>
        <time>2022-08-07T08:30:51Z</time>
      </trkpt>
      <trkpt lat="44.86921" lon="1.60793">
        <ele>232.7</ele>
        <time>2022-08-07T08:30:53Z</time>
      </trkpt>
      <trkpt lat="44.86929" lon="1.60777">
        <ele>232</ele>
        <time>2022-08-07T08:30:55Z</time>
      </trkpt>
      <trkpt lat="44.86936" lon="1.60757">
        <ele>231.1</ele>
        <time>2022-08-07T08:30:57Z</time>
      </trkpt>
      <trkpt lat="44.86942" lon="1.60738">
        <ele>229.6</ele>
        <time>2022-08-07T08:30:59Z</time>
      </trkpt>
      <trkpt lat="44.86949" lon="1.60717">
        <ele>228</ele>
        <time>2022-08-07T08:31:01Z</time>
      </trkpt>
      <trkpt lat="44.86957" lon="1.60697">
        <ele>226.8</ele>
        <time>2022-08-07T08:31:03Z</time>
      </trkpt>
      <trkpt lat="44.86966" lon="1.60676">
        <ele>226.2</ele>
        <time>2022-08-07T08:31:05Z</time>
      </trkpt>
      <trkpt lat="44.86975" lon="1.60657">
        <ele>225.4</ele>
        <time>2022-08-07T08:31:07Z</time>
      </trkpt>
      <trkpt lat="44.86986" lon="1.60638">
        <ele>224.2</ele>
        <time>2022-08-07T08:31:09Z</time>
      </trkpt>
      <trkpt lat="44.86996" lon="1.6062">
        <ele>223.4</ele>
        <time>2022-08-07T08:31:11Z</time>
      </trkpt>
      <trkpt lat="44.87007" lon="1.60602">
        <ele>222</ele>
        <time>2022-08-07T08:31:13Z</time>
      </trkpt>
      <trkpt lat="44.87019" lon="1.60584">
        <ele>220.3</ele>
        <time>2022-08-07T08:31:15Z</time>
      </trkpt>
      <trkpt lat="44.87031" lon="1.60566">
        <ele>219</ele>
        <time>2022-08-07T08:31:17Z</time>
      </trkpt>
      <trkpt lat="44.87042" lon="1.60549">
        <ele>217.6</ele>
        <time>2022-08-07T08:31:19Z</time>
      </trkpt>
      <trkpt lat="44.87054" lon="1.60531">
        <ele>216.7</ele>
        <time>2022-08-07T08:31:21Z</time>
      </trkpt>
      <trkpt lat="44.87067" lon="1.60514">
        <ele>216.2</ele>
        <time>2022-08-07T08:31:23Z</time>
      </trkpt>
      <trkpt lat="44.8708" lon="1.60498">
        <ele>216.3</ele>
        <time>2022-08-07T08:31:25Z</time>
      </trkpt>
      <trkpt lat="44.87094" lon="1.60484">
        <ele>217.5</ele>
        <time>2022-08-07T08:31:27Z</time>
      </trkpt>
      <trkpt lat="44.8711" lon="1.60471">
        <ele>219.2</ele>
        <time>2022-08-07T08:31:29Z</time>
      </trkpt>
      <trkpt lat="44.87121" lon="1.60458">
        <ele>220.6</ele>
        <time>2022-08-07T08:31:31Z</time>
      </trkpt>
      <trkpt lat="44.87125" lon="1.6044">
        <ele>221</ele>
        <time>2022-08-07T08:31:33Z</time>
      </trkpt>
      <trkpt lat="44.87121" lon="1.60422">
        <ele>219.9</ele>
        <time>2022-08-07T08:31:35Z</time>
      </trkpt>
      <trkpt lat="44.87109" lon="1.60409">
        <ele>218.7</ele>
        <time>2022-08-07T08:31:37Z</time>
      </trkpt>
      <trkpt lat="44.87095" lon="1.60396">
        <ele>218.3</ele>
        <time>2022-08-07T08:31:39Z</time>
      </trkpt>
      <trkpt lat="44.87079" lon="1.60386">
        <ele>217.8</ele>
        <time>2022-08-07T08:31:41Z</time>
      </trkpt>
      <trkpt lat="44.87064" lon="1.6038">
        <ele>217.4</ele>
        <time>2022-08-07T08:31:43Z</time>
      </trkpt>
      <trkpt lat="44.87049" lon="1.60379">
        <ele>216</ele>
        <time>2022-08-07T08:31:45Z</time>
      </trkpt>
      <trkpt lat="44.87033" lon="1.6038">
        <ele>213.9</ele>
        <time>2022-08-07T08:31:47Z</time>
      </trkpt>
      <trkpt lat="44.87015" lon="1.60386">
        <ele>210.7</ele>
        <time>2022-08-07T08:31:49Z</time>
      </trkpt>
      <trkpt lat="44.87" lon="1.60394">
        <ele>207.1</ele>
        <time>2022-08-07T08:31:51Z</time>
      </trkpt>
      <trkpt lat="44.86986" lon="1.60404">
        <ele>204.6</ele>
        <time>2022-08-07T08:31:53Z</time>
      </trkpt>
      <trkpt lat="44.86974" lon="1.60414">
        <ele>202.1</ele>
        <time>2022-08-07T08:31:55Z</time>
      </trkpt>
      <trkpt lat="44.86957" lon="1.60422">
        <ele>200.4</ele>
        <time>2022-08-07T08:31:57Z</time>
      </trkpt>
      <trkpt lat="44.86931" lon="1.60427">
        <ele>198.7</ele>
        <time>2022-08-07T08:31:59Z</time>
      </trkpt>
      <trkpt lat="44.86915" lon="1.60437">
        <ele>195.8</ele>
        <time>2022-08-07T08:32:01Z</time>
      </trkpt>
      <trkpt lat="44.869" lon="1.60446">
        <ele>190.3</ele>
        <time>2022-08-07T08:32:03Z</time>
      </trkpt>
      <trkpt lat="44.86884" lon="1.6045">
        <ele>185.8</ele>
        <time>2022-08-07T08:32:05Z</time>
      </trkpt>
      <trkpt lat="44.8687" lon="1.60444">
        <ele>182.9</ele>
        <time>2022-08-07T08:32:07Z</time>
      </trkpt>
      <trkpt lat="44.86857" lon="1.60429">
        <ele>181.8</ele>
        <time>2022-08-07T08:32:09Z</time>
      </trkpt>
      <trkpt lat="44.86846" lon="1.60409">
        <ele>181.5</ele>
        <time>2022-08-07T08:32:11Z</time>
      </trkpt>
      <trkpt lat="44.86837" lon="1.60385">
        <ele>181.5</ele>
        <time>2022-08-07T08:32:13Z</time>
      </trkpt>
      <trkpt lat="44.86829" lon="1.6036">
        <ele>181.4</ele>
        <time>2022-08-07T08:32:15Z</time>
      </trkpt>
      <trkpt lat="44.86821" lon="1.60335">
        <ele>180.1</ele>
        <time>2022-08-07T08:32:17Z</time>
      </trkpt>
      <trkpt lat="44.86813" lon="1.60315">
        <ele>179</ele>
        <time>2022-08-07T08:32:19Z</time>
      </trkpt>
      <trkpt lat="44.86804" lon="1.60295">
        <ele>177.4</ele>
        <time>2022-08-07T08:32:21Z</time>
      </trkpt>
      <trkpt lat="44.86794" lon="1.60277">
        <ele>174.7</ele>
        <time>2022-08-07T08:32:23Z</time>
      </trkpt>
      <trkpt lat="44.86785" lon="1.60258">
        <ele>172.5</ele>
        <time>2022-08-07T08:32:25Z</time>
      </trkpt>
      <trkpt lat="44.86777" lon="1.60239">
        <ele>169.7</ele>
        <time>2022-08-07T08:32:27Z</time>
      </trkpt>
      <trkpt lat="44.86769" lon="1.60222">
        <ele>166.4</ele>
        <time>2022-08-07T08:32:29Z</time>
      </trkpt>
      <trkpt lat="44.86763" lon="1.60202">
        <ele>163.8</ele>
        <time>2022-08-07T08:32:31Z</time>
      </trkpt>
      <trkpt lat="44.86759" lon="1.60181">
        <ele>162.6</ele>
        <time>2022-08-07T08:32:33Z</time>
      </trkpt>
      <trkpt lat="44.86757" lon="1.60163">
        <ele>161.9</ele>
        <time>2022-08-07T08:32:35Z</time>
      </trkpt>
      <trkpt lat="44.86758" lon="1.60147">
        <ele>161</ele>
        <time>2022-08-07T08:32:37Z</time>
      </trkpt>
      <trkpt lat="44.8676" lon="1.60131">
        <ele>160.6</ele>
        <time>2022-08-07T08:32:39Z</time>
      </trkpt>
      <trkpt lat="44.86763" lon="1.60114">
        <ele>160.4</ele>
        <time>2022-08-07T08:32:41Z</time>
      </trkpt>
      <trkpt lat="44.86768" lon="1.60096">
        <ele>160.8</ele>
        <time>2022-08-07T08:32:43Z</time>
      </trkpt>
      <trkpt lat="44.86773" lon="1.60079">
        <ele>161.1</ele>
        <time>2022-08-07T08:32:45Z</time>
      </trkpt>
      <trkpt lat="44.86779" lon="1.6006">
        <ele>160.1</ele>
        <time>2022-08-07T08:32:47Z</time>
      </trkpt>
      <trkpt lat="44.86786" lon="1.60042">
        <ele>159</ele>
        <time>2022-08-07T08:32:49Z</time>
      </trkpt>
      <trkpt lat="44.86792" lon="1.60024">
        <ele>157.9</ele>
        <time>2022-08-07T08:32:51Z</time>
      </trkpt>
      <trkpt lat="44.86797" lon="1.60006">
        <ele>156.5</ele>
        <time>2022-08-07T08:32:53Z</time>
      </trkpt>
      <trkpt lat="44.86804" lon="1.5999">
        <ele>155.5</ele>
        <time>2022-08-07T08:32:55Z</time>
      </trkpt>
      <trkpt lat="44.8681" lon="1.59973">
        <ele>153.7</ele>
        <time>2022-08-07T08:32:57Z</time>
      </trkpt>
      <trkpt lat="44.86815" lon="1.59957">
        <ele>151.6</ele>
        <time>2022-08-07T08:32:59Z</time>
      </trkpt>
      <trkpt lat="44.8682" lon="1.59945">
        <ele>150.4</ele>
        <time>2022-08-07T08:33:01Z</time>
      </trkpt>
      <trkpt lat="44.86826" lon="1.59931">
        <ele>148.6</ele>
        <time>2022-08-07T08:33:03Z</time>
      </trkpt>
      <trkpt lat="44.86833" lon="1.59921">
        <ele>148.1</ele>
        <time>2022-08-07T08:33:05Z</time>
      </trkpt>
      <trkpt lat="44.86843" lon="1.59914">
        <ele>149.1</ele>
        <time>2022-08-07T08:33:07Z</time>
      </trkpt>
      <trkpt lat="44.86856" lon="1.5991">
        <ele>151.7</ele>
        <time>2022-08-07T08:33:09Z</time>
      </trkpt>
      <trkpt lat="44.86868" lon="1.59908">
        <ele>154.8</ele>
        <time>2022-08-07T08:33:11Z</time>
      </trkpt>
      <trkpt lat="44.86881" lon="1.59905">
        <ele>158</ele>
        <time>2022-08-07T08:33:13Z</time>
      </trkpt>
      <trkpt lat="44.86893" lon="1.59902">
        <ele>161</ele>
        <time>2022-08-07T08:33:15Z</time>
      </trkpt>
      <trkpt lat="44.86902" lon="1.59896">
        <ele>163.1</ele>
        <time>2022-08-07T08:33:17Z</time>
      </trkpt>
      <trkpt lat="44.86906" lon="1.59881">
        <ele>163.5</ele>
        <time>2022-08-07T08:33:19Z</time>
      </trkpt>
      <trkpt lat="44.869" lon="1.59867">
        <ele>160.6</ele>
        <time>2022-08-07T08:33:21Z</time>
      </trkpt>
      <trkpt lat="44.86892" lon="1.59851">
        <ele>156.7</ele>
        <time>2022-08-07T08:33:23Z</time>
      </trkpt>
      <trkpt lat="44.86884" lon="1.59837">
        <ele>152.7</ele>
        <time>2022-08-07T08:33:25Z</time>
      </trkpt>
      <trkpt lat="44.86875" lon="1.59819">
        <ele>149.6</ele>
        <time>2022-08-07T08:33:27Z</time>
      </trkpt>
      <trkpt lat="44.86867" lon="1.59804">
        <ele>146.9</ele>
        <time>2022-08-07T08:33:29Z</time>
      </trkpt>
      <trkpt lat="44.8686" lon="1.59791">
        <ele>144.3</ele>
        <time>2022-08-07T08:33:31Z</time>
      </trkpt>
      <trkpt lat="44.86854" lon="1.59774">
        <ele>142.1</ele>
        <time>2022-08-07T08:33:33Z</time>
      </trkpt>
      <trkpt lat="44.86851" lon="1.59757">
        <ele>140.9</ele>
        <time>2022-08-07T08:33:35Z</time>
      </trkpt>
      <trkpt lat="44.8685" lon="1.59738">
        <ele>139.9</ele>
        <time>2022-08-07T08:33:37Z</time>
      </trkpt>
      <trkpt lat="44.86851" lon="1.5972">
        <ele>139.5</ele>
        <time>2022-08-07T08:33:39Z</time>
      </trkpt>
      <trkpt lat="44.86852" lon="1.59702">
        <ele>139.1</ele>
        <time>2022-08-07T08:33:41Z</time>
      </trkpt>
      <trkpt lat="44.86852" lon="1.59685">
        <ele>138.6</ele>
        <time>2022-08-07T08:33:43Z</time>
      </trkpt>
      <trkpt lat="44.86853" lon="1.59667">
        <ele>138.3</ele>
        <time>2022-08-07T08:33:45Z</time>
      </trkpt>
      <trkpt lat="44.86853" lon="1.59649">
        <ele>137.4</ele>
        <time>2022-08-07T08:33:47Z</time>
      </trkpt>
      <trkpt lat="44.86854" lon="1.59632">
        <ele>136.9</ele>
        <time>2022-08-07T08:33:49Z</time>
      </trkpt>
      <trkpt lat="44.86854" lon="1.59614">
        <ele>135.9</ele>
        <time>2022-08-07T08:33:51Z</time>
      </trkpt>
      <trkpt lat="44.86854" lon="1.59594">
        <ele>134.9</ele>
        <time>2022-08-07T08:33:53Z</time>
      </trkpt>
      <trkpt lat="44.86853" lon="1.59574">
        <ele>133.9</ele>
        <time>2022-08-07T08:33:55Z</time>
      </trkpt>
      <trkpt lat="44.86853" lon="1.59553">
        <ele>132.9</ele>
        <time>2022-08-07T08:33:57Z</time>
      </trkpt>
      <trkpt lat="44.86853" lon="1.59532">
        <ele>131.7</ele>
        <time>2022-08-07T08:33:59Z</time>
      </trkpt>
      <trkpt lat="44.86853" lon="1.5951">
        <ele>130.6</ele>
        <time>2022-08-07T08:34:01Z</time>
      </trkpt>
      <trkpt lat="44.86853" lon="1.59489">
        <ele>129.2</ele>
        <time>2022-08-07T08:34:03Z</time>
      </trkpt>
      <trkpt lat="44.86853" lon="1.5947">
        <ele>127.9</ele>
        <time>2022-08-07T08:34:05Z</time>
      </trkpt>
      <trkpt lat="44.86853" lon="1.59449">
        <ele>126.3</ele>
        <time>2022-08-07T08:34:07Z</time>
      </trkpt>
      <trkpt lat="44.86853" lon="1.59427">
        <ele>124.8</ele>
        <time>2022-08-07T08:34:09Z</time>
      </trkpt>
      <trkpt lat="44.86854" lon="1.59408">
        <ele>123.2</ele>
        <time>2022-08-07T08:34:11Z</time>
      </trkpt>
      <trkpt lat="44.86853" lon="1.59388">
        <ele>121.1</ele>
        <time>2022-08-07T08:34:13Z</time>
      </trkpt>
      <trkpt lat="44.86853" lon="1.5937">
        <ele>119.1</ele>
        <time>2022-08-07T08:34:15Z</time>
      </trkpt>
      <trkpt lat="44.86853" lon="1.59352">
        <ele>117.5</ele>
        <time>2022-08-07T08:34:17Z</time>
      </trkpt>
      <trkpt lat="44.86853" lon="1.59337">
        <ele>116</ele>
        <time>2022-08-07T08:34:19Z</time>
      </trkpt>
      <trkpt lat="44.86855" lon="1.59321">
        <ele>114.4</ele>
        <time>2022-08-07T08:34:21Z</time>
      </trkpt>
      <trkpt lat="44.86857" lon="1.59306">
        <ele>112.7</ele>
        <time>2022-08-07T08:34:23Z</time>
      </trkpt>
      <trkpt lat="44.8686" lon="1.59296">
        <ele>111.7</ele>
        <time>2022-08-07T08:34:25Z</time>
      </trkpt>
      <trkpt lat="44.86861" lon="1.59288">
        <ele>110.9</ele>
        <time>2022-08-07T08:34:27Z</time>
      </trkpt>
      <trkpt lat="44.86863" lon="1.59283">
        <ele>110.4</ele>
        <time>2022-08-07T08:34:29Z</time>
      </trkpt>
      <trkpt lat="44.86862" lon="1.59283">
        <ele>110.3</ele>
        <time>2022-08-07T08:34:31Z</time>
      </trkpt>
      <trkpt lat="44.86862" lon="1.59283">
        <ele>110.3</ele>
        <time>2022-08-07T08:34:33Z</time>
      </trkpt>
      <trkpt lat="44.86862" lon="1.59283">
        <ele>110.3</ele>
        <time>2022-08-07T08:34:35Z</time>
      </trkpt>
      <trkpt lat="44.86862" lon="1.59283">
        <ele>110.3</ele>
        <time>2022-08-07T08:34:37Z</time>
      </trkpt>
      <trkpt lat="44.86862" lon="1.59283">
        <ele>110.2</ele>
        <time>2022-08-07T08:34:39Z</time>
      </trkpt>
      <trkpt lat="44.86835" lon="1.59367">
        <ele>114.6</ele>
        <time>2022-08-07T08:35:31Z</time>
      </trkpt>
      <trkpt lat="44.86834" lon="1.59376">
        <ele>114.7</ele>
        <time>2022-08-07T08:35:33Z</time>
      </trkpt>
      <trkpt lat="44.86834" lon="1.59385">
        <ele>114.9</ele>
        <time>2022-08-07T08:35:35Z</time>
      </trkpt>
      <trkpt lat="44.86833" lon="1.59396">
        <ele>115.3</ele>
        <time>2022-08-07T08:35:37Z</time>
      </trkpt>
      <trkpt lat="44.86832" lon="1.59406">
        <ele>115.7</ele>
        <time>2022-08-07T08:35:39Z</time>
      </trkpt>
      <trkpt lat="44.8683" lon="1.59417">
        <ele>116.2</ele>
        <time>2022-08-07T08:35:41Z</time>
      </trkpt>
      <trkpt lat="44.86829" lon="1.59429">
        <ele>116.9</ele>
        <time>2022-08-07T08:35:43Z</time>
      </trkpt>
      <trkpt lat="44.86829" lon="1.5944">
        <ele>117.5</ele>
        <time>2022-08-07T08:35:45Z</time>
      </trkpt>
      <trkpt lat="44.86828" lon="1.5945">
        <ele>118.1</ele>
        <time>2022-08-07T08:35:47Z</time>
      </trkpt>
      <trkpt lat="44.86828" lon="1.59461">
        <ele>118.7</ele>
        <time>2022-08-07T08:35:49Z</time>
      </trkpt>
      <trkpt lat="44.86827" lon="1.59471">
        <ele>119.3</ele>
        <time>2022-08-07T08:35:51Z</time>
      </trkpt>
      <trkpt lat="44.86826" lon="1.59482">
        <ele>119.9</ele>
        <time>2022-08-07T08:35:53Z</time>
      </trkpt>
      <trkpt lat="44.86825" lon="1.59493">
        <ele>120.4</ele>
        <time>2022-08-07T08:35:55Z</time>
      </trkpt>
      <trkpt lat="44.86825" lon="1.59503">
        <ele>120.9</ele>
        <time>2022-08-07T08:35:57Z</time>
      </trkpt>
      <trkpt lat="44.86824" lon="1.59513">
        <ele>121.2</ele>
        <time>2022-08-07T08:35:59Z</time>
      </trkpt>
      <trkpt lat="44.86823" lon="1.59524">
        <ele>121.5</ele>
        <time>2022-08-07T08:36:01Z</time>
      </trkpt>
      <trkpt lat="44.86823" lon="1.59534">
        <ele>121.9</ele>
        <time>2022-08-07T08:36:03Z</time>
      </trkpt>
      <trkpt lat="44.86822" lon="1.59545">
        <ele>122.2</ele>
        <time>2022-08-07T08:36:05Z</time>
      </trkpt>
      <trkpt lat="44.86821" lon="1.59555">
        <ele>122.5</ele>
        <time>2022-08-07T08:36:07Z</time>
      </trkpt>
      <trkpt lat="44.8682" lon="1.59566">
        <ele>122.8</ele>
        <time>2022-08-07T08:36:09Z</time>
      </trkpt>
      <trkpt lat="44.8682" lon="1.59576">
        <ele>123.1</ele>
        <time>2022-08-07T08:36:11Z</time>
      </trkpt>
      <trkpt lat="44.86819" lon="1.59585">
        <ele>123.4</ele>
        <time>2022-08-07T08:36:13Z</time>
      </trkpt>
      <trkpt lat="44.86818" lon="1.59595">
        <ele>123.8</ele>
        <time>2022-08-07T08:36:15Z</time>
      </trkpt>
      <trkpt lat="44.86817" lon="1.59605">
        <ele>124.1</ele>
        <time>2022-08-07T08:36:17Z</time>
      </trkpt>
      <trkpt lat="44.86816" lon="1.59614">
        <ele>124.4</ele>
        <time>2022-08-07T08:36:19Z</time>
      </trkpt>
      <trkpt lat="44.86816" lon="1.59624">
        <ele>124.7</ele>
        <time>2022-08-07T08:36:21Z</time>
      </trkpt>
      <trkpt lat="44.86815" lon="1.59634">
        <ele>125</ele>
        <time>2022-08-07T08:36:23Z</time>
      </trkpt>
      <trkpt lat="44.86814" lon="1.59644">
        <ele>125.3</ele>
        <time>2022-08-07T08:36:25Z</time>
      </trkpt>
      <trkpt lat="44.86812" lon="1.59655">
        <ele>125.5</ele>
        <time>2022-08-07T08:36:27Z</time>
      </trkpt>
      <trkpt lat="44.8681" lon="1.59665">
        <ele>125.7</ele>
        <time>2022-08-07T08:36:29Z</time>
      </trkpt>
      <trkpt lat="44.86809" lon="1.59674">
        <ele>125.9</ele>
        <time>2022-08-07T08:36:31Z</time>
      </trkpt>
      <trkpt lat="44.86807" lon="1.59684">
        <ele>126</ele>
        <time>2022-08-07T08:36:33Z</time>
      </trkpt>
      <trkpt lat="44.86805" lon="1.59693">
        <ele>126</ele>
        <time>2022-08-07T08:36:35Z</time>
      </trkpt>
      <trkpt lat="44.86803" lon="1.59703">
        <ele>126</ele>
        <time>2022-08-07T08:36:37Z</time>
      </trkpt>
      <trkpt lat="44.868" lon="1.59713">
        <ele>125.8</ele>
        <time>2022-08-07T08:36:39Z</time>
      </trkpt>
      <trkpt lat="44.86798" lon="1.59723">
        <ele>125.7</ele>
        <time>2022-08-07T08:36:41Z</time>
      </trkpt>
      <trkpt lat="44.86796" lon="1.59734">
        <ele>125.5</ele>
        <time>2022-08-07T08:36:43Z</time>
      </trkpt>
      <trkpt lat="44.86793" lon="1.59744">
        <ele>125.3</ele>
        <time>2022-08-07T08:36:45Z</time>
      </trkpt>
      <trkpt lat="44.8679" lon="1.59754">
        <ele>124.8</ele>
        <time>2022-08-07T08:36:47Z</time>
      </trkpt>
      <trkpt lat="44.86788" lon="1.59765">
        <ele>124.3</ele>
        <time>2022-08-07T08:36:49Z</time>
      </trkpt>
      <trkpt lat="44.86785" lon="1.59775">
        <ele>123.9</ele>
        <time>2022-08-07T08:36:51Z</time>
      </trkpt>
      <trkpt lat="44.86782" lon="1.59785">
        <ele>123.5</ele>
        <time>2022-08-07T08:36:53Z</time>
      </trkpt>
      <trkpt lat="44.86779" lon="1.59796">
        <ele>122.9</ele>
        <time>2022-08-07T08:36:55Z</time>
      </trkpt>
      <trkpt lat="44.86777" lon="1.59807">
        <ele>122.6</ele>
        <time>2022-08-07T08:36:57Z</time>
      </trkpt>
      <trkpt lat="44.86774" lon="1.59817">
        <ele>122.2</ele>
        <time>2022-08-07T08:36:59Z</time>
      </trkpt>
      <trkpt lat="44.86771" lon="1.59828">
        <ele>121.8</ele>
        <time>2022-08-07T08:37:01Z</time>
      </trkpt>
      <trkpt lat="44.86769" lon="1.59838">
        <ele>121.8</ele>
        <time>2022-08-07T08:37:03Z</time>
      </trkpt>
      <trkpt lat="44.86766" lon="1.59848">
        <ele>122</ele>
        <time>2022-08-07T08:37:05Z</time>
      </trkpt>
      <trkpt lat="44.86763" lon="1.59859">
        <ele>122.1</ele>
        <time>2022-08-07T08:37:07Z</time>
      </trkpt>
      <trkpt lat="44.8676" lon="1.5987">
        <ele>122.1</ele>
        <time>2022-08-07T08:37:09Z</time>
      </trkpt>
      <trkpt lat="44.86757" lon="1.59881">
        <ele>121.9</ele>
        <time>2022-08-07T08:37:11Z</time>
      </trkpt>
      <trkpt lat="44.86753" lon="1.59891">
        <ele>121.6</ele>
        <time>2022-08-07T08:37:13Z</time>
      </trkpt>
      <trkpt lat="44.86749" lon="1.59901">
        <ele>121.3</ele>
        <time>2022-08-07T08:37:15Z</time>
      </trkpt>
      <trkpt lat="44.86745" lon="1.59912">
        <ele>122</ele>
        <time>2022-08-07T08:37:17Z</time>
      </trkpt>
      <trkpt lat="44.86741" lon="1.59922">
        <ele>123.1</ele>
        <time>2022-08-07T08:37:19Z</time>
      </trkpt>
      <trkpt lat="44.86736" lon="1.59932">
        <ele>124.4</ele>
        <time>2022-08-07T08:37:21Z</time>
      </trkpt>
      <trkpt lat="44.86731" lon="1.59941">
        <ele>125.4</ele>
        <time>2022-08-07T08:37:23Z</time>
      </trkpt>
      <trkpt lat="44.86726" lon="1.59951">
        <ele>126.1</ele>
        <time>2022-08-07T08:37:25Z</time>
      </trkpt>
      <trkpt lat="44.86721" lon="1.59961">
        <ele>126.6</ele>
        <time>2022-08-07T08:37:27Z</time>
      </trkpt>
      <trkpt lat="44.86716" lon="1.59971">
        <ele>126.7</ele>
        <time>2022-08-07T08:37:29Z</time>
      </trkpt>
      <trkpt lat="44.86711" lon="1.5998">
        <ele>126.6</ele>
        <time>2022-08-07T08:37:31Z</time>
      </trkpt>
      <trkpt lat="44.86707" lon="1.5999">
        <ele>126.3</ele>
        <time>2022-08-07T08:37:33Z</time>
      </trkpt>
      <trkpt lat="44.86702" lon="1.6">
        <ele>125.7</ele>
        <time>2022-08-07T08:37:35Z</time>
      </trkpt>
      <trkpt lat="44.86698" lon="1.6001">
        <ele>125.3</ele>
        <time>2022-08-07T08:37:37Z</time>
      </trkpt>
      <trkpt lat="44.86694" lon="1.60022">
        <ele>125</ele>
        <time>2022-08-07T08:37:39Z</time>
      </trkpt>
      <trkpt lat="44.86691" lon="1.60033">
        <ele>124.5</ele>
        <time>2022-08-07T08:37:41Z</time>
      </trkpt>
      <trkpt lat="44.86687" lon="1.60044">
        <ele>123.8</ele>
        <time>2022-08-07T08:37:43Z</time>
      </trkpt>
      <trkpt lat="44.86685" lon="1.60055">
        <ele>123.3</ele>
        <time>2022-08-07T08:37:45Z</time>
      </trkpt>
      <trkpt lat="44.86682" lon="1.60067">
        <ele>122.4</ele>
        <time>2022-08-07T08:37:47Z</time>
      </trkpt>
      <trkpt lat="44.8668" lon="1.60078">
        <ele>121.6</ele>
        <time>2022-08-07T08:37:49Z</time>
      </trkpt>
      <trkpt lat="44.86678" lon="1.6009">
        <ele>121.4</ele>
        <time>2022-08-07T08:37:51Z</time>
      </trkpt>
      <trkpt lat="44.86676" lon="1.60102">
        <ele>121.4</ele>
        <time>2022-08-07T08:37:53Z</time>
      </trkpt>
      <trkpt lat="44.86674" lon="1.60113">
        <ele>121.5</ele>
        <time>2022-08-07T08:37:55Z</time>
      </trkpt>
      <trkpt lat="44.86672" lon="1.60125">
        <ele>121.6</ele>
        <time>2022-08-07T08:37:57Z</time>
      </trkpt>
      <trkpt lat="44.8667" lon="1.60136">
        <ele>121.7</ele>
        <time>2022-08-07T08:37:59Z</time>
      </trkpt>
      <trkpt lat="44.86667" lon="1.60148">
        <ele>121.6</ele>
        <time>2022-08-07T08:38:01Z</time>
      </trkpt>
      <trkpt lat="44.86665" lon="1.60159">
        <ele>122.5</ele>
        <time>2022-08-07T08:38:03Z</time>
      </trkpt>
      <trkpt lat="44.86663" lon="1.6017">
        <ele>123.3</ele>
        <time>2022-08-07T08:38:05Z</time>
      </trkpt>
      <trkpt lat="44.8666" lon="1.60182">
        <ele>123.6</ele>
        <time>2022-08-07T08:38:07Z</time>
      </trkpt>
      <trkpt lat="44.86658" lon="1.60193">
        <ele>123.8</ele>
        <time>2022-08-07T08:38:09Z</time>
      </trkpt>
      <trkpt lat="44.86656" lon="1.60204">
        <ele>124</ele>
        <time>2022-08-07T08:38:11Z</time>
      </trkpt>
      <trkpt lat="44.86653" lon="1.60216">
        <ele>124.2</ele>
        <time>2022-08-07T08:38:13Z</time>
      </trkpt>
      <trkpt lat="44.8665" lon="1.60227">
        <ele>124.2</ele>
        <time>2022-08-07T08:38:15Z</time>
      </trkpt>
      <trkpt lat="44.86647" lon="1.60239">
        <ele>124.3</ele>
        <time>2022-08-07T08:38:17Z</time>
      </trkpt>
      <trkpt lat="44.86643" lon="1.6025">
        <ele>124.2</ele>
        <time>2022-08-07T08:38:19Z</time>
      </trkpt>
      <trkpt lat="44.8664" lon="1.60261">
        <ele>124.5</ele>
        <time>2022-08-07T08:38:21Z</time>
      </trkpt>
      <trkpt lat="44.86636" lon="1.60271">
        <ele>124.8</ele>
        <time>2022-08-07T08:38:23Z</time>
      </trkpt>
      <trkpt lat="44.86631" lon="1.60281">
        <ele>125</ele>
        <time>2022-08-07T08:38:25Z</time>
      </trkpt>
      <trkpt lat="44.86627" lon="1.60291">
        <ele>125.1</ele>
        <time>2022-08-07T08:38:27Z</time>
      </trkpt>
      <trkpt lat="44.86622" lon="1.60301">
        <ele>125.1</ele>
        <time>2022-08-07T08:38:29Z</time>
      </trkpt>
      <trkpt lat="44.86616" lon="1.6031">
        <ele>125</ele>
        <time>2022-08-07T08:38:31Z</time>
      </trkpt>
      <trkpt lat="44.8661" lon="1.60319">
        <ele>124.9</ele>
        <time>2022-08-07T08:38:33Z</time>
      </trkpt>
      <trkpt lat="44.86605" lon="1.60327">
        <ele>124.6</ele>
        <time>2022-08-07T08:38:35Z</time>
      </trkpt>
      <trkpt lat="44.86599" lon="1.60335">
        <ele>124.5</ele>
        <time>2022-08-07T08:38:37Z</time>
      </trkpt>
      <trkpt lat="44.86592" lon="1.60342">
        <ele>125.2</ele>
        <time>2022-08-07T08:38:39Z</time>
      </trkpt>
      <trkpt lat="44.86586" lon="1.6035">
        <ele>125.7</ele>
        <time>2022-08-07T08:38:41Z</time>
      </trkpt>
      <trkpt lat="44.86579" lon="1.60357">
        <ele>126.4</ele>
        <time>2022-08-07T08:38:43Z</time>
      </trkpt>
      <trkpt lat="44.86572" lon="1.60364">
        <ele>127.3</ele>
        <time>2022-08-07T08:38:45Z</time>
      </trkpt>
      <trkpt lat="44.86565" lon="1.6037">
        <ele>127.9</ele>
        <time>2022-08-07T08:38:47Z</time>
      </trkpt>
      <trkpt lat="44.86558" lon="1.60377">
        <ele>128.2</ele>
        <time>2022-08-07T08:38:49Z</time>
      </trkpt>
      <trkpt lat="44.86551" lon="1.60383">
        <ele>128.3</ele>
        <time>2022-08-07T08:38:51Z</time>
      </trkpt>
      <trkpt lat="44.86544" lon="1.60388">
        <ele>128.2</ele>
        <time>2022-08-07T08:38:53Z</time>
      </trkpt>
      <trkpt lat="44.86538" lon="1.60395">
        <ele>127.8</ele>
        <time>2022-08-07T08:38:55Z</time>
      </trkpt>
      <trkpt lat="44.8653" lon="1.604">
        <ele>127.2</ele>
        <time>2022-08-07T08:38:57Z</time>
      </trkpt>
      <trkpt lat="44.86523" lon="1.60406">
        <ele>126.4</ele>
        <time>2022-08-07T08:38:59Z</time>
      </trkpt>
      <trkpt lat="44.86515" lon="1.60412">
        <ele>125.3</ele>
        <time>2022-08-07T08:39:01Z</time>
      </trkpt>
      <trkpt lat="44.86508" lon="1.60418">
        <ele>124.4</ele>
        <time>2022-08-07T08:39:03Z</time>
      </trkpt>
      <trkpt lat="44.86501" lon="1.60424">
        <ele>124.4</ele>
        <time>2022-08-07T08:39:05Z</time>
      </trkpt>
      <trkpt lat="44.86494" lon="1.6043">
        <ele>125.4</ele>
        <time>2022-08-07T08:39:07Z</time>
      </trkpt>
      <trkpt lat="44.86487" lon="1.60437">
        <ele>126.6</ele>
        <time>2022-08-07T08:39:09Z</time>
      </trkpt>
      <trkpt lat="44.8648" lon="1.60443">
        <ele>127.6</ele>
        <time>2022-08-07T08:39:11Z</time>
      </trkpt>
      <trkpt lat="44.86473" lon="1.6045">
        <ele>128.4</ele>
        <time>2022-08-07T08:39:13Z</time>
      </trkpt>
      <trkpt lat="44.86466" lon="1.60456">
        <ele>128.9</ele>
        <time>2022-08-07T08:39:15Z</time>
      </trkpt>
      <trkpt lat="44.8646" lon="1.60463">
        <ele>129.3</ele>
        <time>2022-08-07T08:39:17Z</time>
      </trkpt>
      <trkpt lat="44.86453" lon="1.6047">
        <ele>129.5</ele>
        <time>2022-08-07T08:39:19Z</time>
      </trkpt>
      <trkpt lat="44.86446" lon="1.60477">
        <ele>129.4</ele>
        <time>2022-08-07T08:39:21Z</time>
      </trkpt>
      <trkpt lat="44.86439" lon="1.60484">
        <ele>129.2</ele>
        <time>2022-08-07T08:39:23Z</time>
      </trkpt>
      <trkpt lat="44.86432" lon="1.60491">
        <ele>128.7</ele>
        <time>2022-08-07T08:39:25Z</time>
      </trkpt>
      <trkpt lat="44.86425" lon="1.60498">
        <ele>127.9</ele>
        <time>2022-08-07T08:39:27Z</time>
      </trkpt>
      <trkpt lat="44.86418" lon="1.60506">
        <ele>128.3</ele>
        <time>2022-08-07T08:39:29Z</time>
      </trkpt>
      <trkpt lat="44.86411" lon="1.60514">
        <ele>129.9</ele>
        <time>2022-08-07T08:39:31Z</time>
      </trkpt>
      <trkpt lat="44.86403" lon="1.60521">
        <ele>131.2</ele>
        <time>2022-08-07T08:39:33Z</time>
      </trkpt>
      <trkpt lat="44.86396" lon="1.60528">
        <ele>132.3</ele>
        <time>2022-08-07T08:39:35Z</time>
      </trkpt>
      <trkpt lat="44.86389" lon="1.60535">
        <ele>133</ele>
        <time>2022-08-07T08:39:37Z</time>
      </trkpt>
      <trkpt lat="44.86382" lon="1.60543">
        <ele>133.4</ele>
        <time>2022-08-07T08:39:39Z</time>
      </trkpt>
      <trkpt lat="44.86374" lon="1.6055">
        <ele>133.5</ele>
        <time>2022-08-07T08:39:41Z</time>
      </trkpt>
      <trkpt lat="44.86367" lon="1.60557">
        <ele>133.2</ele>
        <time>2022-08-07T08:39:43Z</time>
      </trkpt>
      <trkpt lat="44.8636" lon="1.60565">
        <ele>132.6</ele>
        <time>2022-08-07T08:39:45Z</time>
      </trkpt>
      <trkpt lat="44.86353" lon="1.60572">
        <ele>131.6</ele>
        <time>2022-08-07T08:39:47Z</time>
      </trkpt>
      <trkpt lat="44.86345" lon="1.60579">
        <ele>130.3</ele>
        <time>2022-08-07T08:39:49Z</time>
      </trkpt>
      <trkpt lat="44.86339" lon="1.60587">
        <ele>129.7</ele>
        <time>2022-08-07T08:39:51Z</time>
      </trkpt>
      <trkpt lat="44.86331" lon="1.60594">
        <ele>130.4</ele>
        <time>2022-08-07T08:39:53Z</time>
      </trkpt>
      <trkpt lat="44.86324" lon="1.60601">
        <ele>132.1</ele>
        <time>2022-08-07T08:39:55Z</time>
      </trkpt>
      <trkpt lat="44.86317" lon="1.60608">
        <ele>133.3</ele>
        <time>2022-08-07T08:39:57Z</time>
      </trkpt>
      <trkpt lat="44.8631" lon="1.60615">
        <ele>134.2</ele>
        <time>2022-08-07T08:39:59Z</time>
      </trkpt>
      <trkpt lat="44.86303" lon="1.60622">
        <ele>134.8</ele>
        <time>2022-08-07T08:40:01Z</time>
      </trkpt>
      <trkpt lat="44.86297" lon="1.60629">
        <ele>135.1</ele>
        <time>2022-08-07T08:40:03Z</time>
      </trkpt>
      <trkpt lat="44.8629" lon="1.60636">
        <ele>135</ele>
        <time>2022-08-07T08:40:05Z</time>
      </trkpt>
      <trkpt lat="44.86283" lon="1.60643">
        <ele>134.6</ele>
        <time>2022-08-07T08:40:07Z</time>
      </trkpt>
      <trkpt lat="44.86276" lon="1.6065">
        <ele>134</ele>
        <time>2022-08-07T08:40:09Z</time>
      </trkpt>
      <trkpt lat="44.8627" lon="1.60656">
        <ele>133.1</ele>
        <time>2022-08-07T08:40:11Z</time>
      </trkpt>
      <trkpt lat="44.86263" lon="1.60663">
        <ele>131.8</ele>
        <time>2022-08-07T08:40:13Z</time>
      </trkpt>
      <trkpt lat="44.86256" lon="1.60669">
        <ele>130.9</ele>
        <time>2022-08-07T08:40:15Z</time>
      </trkpt>
      <trkpt lat="44.8625" lon="1.60677">
        <ele>131.2</ele>
        <time>2022-08-07T08:40:17Z</time>
      </trkpt>
      <trkpt lat="44.86243" lon="1.60684">
        <ele>132.3</ele>
        <time>2022-08-07T08:40:19Z</time>
      </trkpt>
      <trkpt lat="44.86236" lon="1.6069">
        <ele>133.2</ele>
        <time>2022-08-07T08:40:21Z</time>
      </trkpt>
      <trkpt lat="44.86229" lon="1.60697">
        <ele>133.9</ele>
        <time>2022-08-07T08:40:23Z</time>
      </trkpt>
      <trkpt lat="44.86222" lon="1.60703">
        <ele>134.3</ele>
        <time>2022-08-07T08:40:25Z</time>
      </trkpt>
      <trkpt lat="44.86215" lon="1.60709">
        <ele>134.5</ele>
        <time>2022-08-07T08:40:27Z</time>
      </trkpt>
      <trkpt lat="44.86208" lon="1.60714">
        <ele>134.4</ele>
        <time>2022-08-07T08:40:29Z</time>
      </trkpt>
      <trkpt lat="44.86201" lon="1.60719">
        <ele>134.2</ele>
        <time>2022-08-07T08:40:31Z</time>
      </trkpt>
      <trkpt lat="44.86193" lon="1.60724">
        <ele>133.6</ele>
        <time>2022-08-07T08:40:33Z</time>
      </trkpt>
      <trkpt lat="44.86185" lon="1.60728">
        <ele>132.9</ele>
        <time>2022-08-07T08:40:35Z</time>
      </trkpt>
      <trkpt lat="44.86178" lon="1.60731">
        <ele>132</ele>
        <time>2022-08-07T08:40:37Z</time>
      </trkpt>
      <trkpt lat="44.8617" lon="1.60734">
        <ele>131</ele>
        <time>2022-08-07T08:40:39Z</time>
      </trkpt>
      <trkpt lat="44.86163" lon="1.60737">
        <ele>130.4</ele>
        <time>2022-08-07T08:40:41Z</time>
      </trkpt>
      <trkpt lat="44.86155" lon="1.60739">
        <ele>130.2</ele>
        <time>2022-08-07T08:40:43Z</time>
      </trkpt>
      <trkpt lat="44.86147" lon="1.6074">
        <ele>129.9</ele>
        <time>2022-08-07T08:40:45Z</time>
      </trkpt>
      <trkpt lat="44.8614" lon="1.60742">
        <ele>129.7</ele>
        <time>2022-08-07T08:40:47Z</time>
      </trkpt>
      <trkpt lat="44.86132" lon="1.60743">
        <ele>129.4</ele>
        <time>2022-08-07T08:40:49Z</time>
      </trkpt>
      <trkpt lat="44.86125" lon="1.60744">
        <ele>129.1</ele>
        <time>2022-08-07T08:40:51Z</time>
      </trkpt>
      <trkpt lat="44.86118" lon="1.60745">
        <ele>128.8</ele>
        <time>2022-08-07T08:40:53Z</time>
      </trkpt>
      <trkpt lat="44.8611" lon="1.60747">
        <ele>128.4</ele>
        <time>2022-08-07T08:40:55Z</time>
      </trkpt>
      <trkpt lat="44.86102" lon="1.60746">
        <ele>128</ele>
        <time>2022-08-07T08:40:57Z</time>
      </trkpt>
      <trkpt lat="44.86094" lon="1.60747">
        <ele>127.7</ele>
        <time>2022-08-07T08:40:59Z</time>
      </trkpt>
      <trkpt lat="44.86086" lon="1.60746">
        <ele>127.3</ele>
        <time>2022-08-07T08:41:01Z</time>
      </trkpt>
      <trkpt lat="44.86078" lon="1.60746">
        <ele>127.6</ele>
        <time>2022-08-07T08:41:03Z</time>
      </trkpt>
      <trkpt lat="44.8607" lon="1.60746">
        <ele>128.3</ele>
        <time>2022-08-07T08:41:05Z</time>
      </trkpt>
      <trkpt lat="44.86062" lon="1.60745">
        <ele>129</ele>
        <time>2022-08-07T08:41:07Z</time>
      </trkpt>
      <trkpt lat="44.86055" lon="1.60744">
        <ele>129.6</ele>
        <time>2022-08-07T08:41:09Z</time>
      </trkpt>
      <trkpt lat="44.86047" lon="1.60743">
        <ele>130.3</ele>
        <time>2022-08-07T08:41:11Z</time>
      </trkpt>
      <trkpt lat="44.86039" lon="1.60741">
        <ele>130.9</ele>
        <time>2022-08-07T08:41:13Z</time>
      </trkpt>
      <trkpt lat="44.86031" lon="1.60739">
        <ele>131.5</ele>
        <time>2022-08-07T08:41:15Z</time>
      </trkpt>
      <trkpt lat="44.86024" lon="1.60737">
        <ele>132.1</ele>
        <time>2022-08-07T08:41:17Z</time>
      </trkpt>
      <trkpt lat="44.86016" lon="1.60736">
        <ele>132.7</ele>
        <time>2022-08-07T08:41:19Z</time>
      </trkpt>
      <trkpt lat="44.86008" lon="1.60734">
        <ele>133.2</ele>
        <time>2022-08-07T08:41:21Z</time>
      </trkpt>
      <trkpt lat="44.86001" lon="1.60731">
        <ele>133.7</ele>
        <time>2022-08-07T08:41:23Z</time>
      </trkpt>
      <trkpt lat="44.85993" lon="1.60729">
        <ele>134.1</ele>
        <time>2022-08-07T08:41:25Z</time>
      </trkpt>
      <trkpt lat="44.85986" lon="1.60726">
        <ele>134.4</ele>
        <time>2022-08-07T08:41:27Z</time>
      </trkpt>
      <trkpt lat="44.85978" lon="1.60724">
        <ele>134.8</ele>
        <time>2022-08-07T08:41:29Z</time>
      </trkpt>
      <trkpt lat="44.8597" lon="1.60722">
        <ele>135.1</ele>
        <time>2022-08-07T08:41:31Z</time>
      </trkpt>
      <trkpt lat="44.85963" lon="1.6072">
        <ele>135.4</ele>
        <time>2022-08-07T08:41:33Z</time>
      </trkpt>
      <trkpt lat="44.85956" lon="1.60718">
        <ele>135.7</ele>
        <time>2022-08-07T08:41:35Z</time>
      </trkpt>
      <trkpt lat="44.85948" lon="1.60716">
        <ele>136</ele>
        <time>2022-08-07T08:41:37Z</time>
      </trkpt>
      <trkpt lat="44.8594" lon="1.60715">
        <ele>136.3</ele>
        <time>2022-08-07T08:41:39Z</time>
      </trkpt>
      <trkpt lat="44.85933" lon="1.60714">
        <ele>136.5</ele>
        <time>2022-08-07T08:41:41Z</time>
      </trkpt>
      <trkpt lat="44.85925" lon="1.60713">
        <ele>136.9</ele>
        <time>2022-08-07T08:41:43Z</time>
      </trkpt>
      <trkpt lat="44.85917" lon="1.60713">
        <ele>137.2</ele>
        <time>2022-08-07T08:41:45Z</time>
      </trkpt>
      <trkpt lat="44.8591" lon="1.60714">
        <ele>137.1</ele>
        <time>2022-08-07T08:41:47Z</time>
      </trkpt>
      <trkpt lat="44.85902" lon="1.60715">
        <ele>136.9</ele>
        <time>2022-08-07T08:41:49Z</time>
      </trkpt>
      <trkpt lat="44.85894" lon="1.60716">
        <ele>136.7</ele>
        <time>2022-08-07T08:41:51Z</time>
      </trkpt>
      <trkpt lat="44.85887" lon="1.60719">
        <ele>136.5</ele>
        <time>2022-08-07T08:41:53Z</time>
      </trkpt>
      <trkpt lat="44.85879" lon="1.60721">
        <ele>136.3</ele>
        <time>2022-08-07T08:41:55Z</time>
      </trkpt>
      <trkpt lat="44.85872" lon="1.60723">
        <ele>136.1</ele>
        <time>2022-08-07T08:41:57Z</time>
      </trkpt>
      <trkpt lat="44.85865" lon="1.60725">
        <ele>135.8</ele>
        <time>2022-08-07T08:41:59Z</time>
      </trkpt>
      <trkpt lat="44.85858" lon="1.60728">
        <ele>135.5</ele>
        <time>2022-08-07T08:42:01Z</time>
      </trkpt>
      <trkpt lat="44.8585" lon="1.6073">
        <ele>135.2</ele>
        <time>2022-08-07T08:42:03Z</time>
      </trkpt>
      <trkpt lat="44.85844" lon="1.60734">
        <ele>134.9</ele>
        <time>2022-08-07T08:42:05Z</time>
      </trkpt>
      <trkpt lat="44.85837" lon="1.60737">
        <ele>134.5</ele>
        <time>2022-08-07T08:42:07Z</time>
      </trkpt>
      <trkpt lat="44.8583" lon="1.60741">
        <ele>134.4</ele>
        <time>2022-08-07T08:42:09Z</time>
      </trkpt>
      <trkpt lat="44.85823" lon="1.60745">
        <ele>134.6</ele>
        <time>2022-08-07T08:42:11Z</time>
      </trkpt>
      <trkpt lat="44.85817" lon="1.60749">
        <ele>134.6</ele>
        <time>2022-08-07T08:42:13Z</time>
      </trkpt>
      <trkpt lat="44.8581" lon="1.60754">
        <ele>135.4</ele>
        <time>2022-08-07T08:42:15Z</time>
      </trkpt>
      <trkpt lat="44.85803" lon="1.60759">
        <ele>136.3</ele>
        <time>2022-08-07T08:42:17Z</time>
      </trkpt>
      <trkpt lat="44.85796" lon="1.60764">
        <ele>137</ele>
        <time>2022-08-07T08:42:19Z</time>
      </trkpt>
      <trkpt lat="44.85789" lon="1.6077">
        <ele>137.6</ele>
        <time>2022-08-07T08:42:21Z</time>
      </trkpt>
      <trkpt lat="44.85783" lon="1.60776">
        <ele>138.1</ele>
        <time>2022-08-07T08:42:23Z</time>
      </trkpt>
      <trkpt lat="44.85776" lon="1.60782">
        <ele>138.4</ele>
        <time>2022-08-07T08:42:25Z</time>
      </trkpt>
      <trkpt lat="44.8577" lon="1.60789">
        <ele>138.6</ele>
        <time>2022-08-07T08:42:27Z</time>
      </trkpt>
      <trkpt lat="44.85764" lon="1.60796">
        <ele>138.6</ele>
        <time>2022-08-07T08:42:29Z</time>
      </trkpt>
      <trkpt lat="44.85759" lon="1.60803">
        <ele>138.4</ele>
        <time>2022-08-07T08:42:31Z</time>
      </trkpt>
      <trkpt lat="44.85753" lon="1.60811">
        <ele>138</ele>
        <time>2022-08-07T08:42:33Z</time>
      </trkpt>
      <trkpt lat="44.85748" lon="1.60819">
        <ele>138.1</ele>
        <time>2022-08-07T08:42:35Z</time>
      </trkpt>
      <trkpt lat="44.85742" lon="1.60827">
        <ele>138.7</ele>
        <time>2022-08-07T08:42:37Z</time>
      </trkpt>
      <trkpt lat="44.85738" lon="1.60835">
        <ele>139.3</ele>
        <time>2022-08-07T08:42:39Z</time>
      </trkpt>
      <trkpt lat="44.85733" lon="1.60844">
        <ele>140.8</ele>
        <time>2022-08-07T08:42:41Z</time>
      </trkpt>
      <trkpt lat="44.85729" lon="1.60852">
        <ele>142</ele>
        <time>2022-08-07T08:42:43Z</time>
      </trkpt>
      <trkpt lat="44.85723" lon="1.60861">
        <ele>143.1</ele>
        <time>2022-08-07T08:42:45Z</time>
      </trkpt>
      <trkpt lat="44.85718" lon="1.6087">
        <ele>143.9</ele>
        <time>2022-08-07T08:42:47Z</time>
      </trkpt>
      <trkpt lat="44.85714" lon="1.60878">
        <ele>144.4</ele>
        <time>2022-08-07T08:42:49Z</time>
      </trkpt>
      <trkpt lat="44.85709" lon="1.60887">
        <ele>144.8</ele>
        <time>2022-08-07T08:42:51Z</time>
      </trkpt>
      <trkpt lat="44.85704" lon="1.60896">
        <ele>144.9</ele>
        <time>2022-08-07T08:42:53Z</time>
      </trkpt>
      <trkpt lat="44.857" lon="1.60904">
        <ele>144.7</ele>
        <time>2022-08-07T08:42:55Z</time>
      </trkpt>
      <trkpt lat="44.85695" lon="1.60913">
        <ele>144.3</ele>
        <time>2022-08-07T08:42:57Z</time>
      </trkpt>
      <trkpt lat="44.8569" lon="1.60921">
        <ele>144</ele>
        <time>2022-08-07T08:42:59Z</time>
      </trkpt>
      <trkpt lat="44.85685" lon="1.60929">
        <ele>143.8</ele>
        <time>2022-08-07T08:43:01Z</time>
      </trkpt>
      <trkpt lat="44.8568" lon="1.60938">
        <ele>143.4</ele>
        <time>2022-08-07T08:43:03Z</time>
      </trkpt>
      <trkpt lat="44.85676" lon="1.60946">
        <ele>142.9</ele>
        <time>2022-08-07T08:43:05Z</time>
      </trkpt>
      <trkpt lat="44.85671" lon="1.60954">
        <ele>142.2</ele>
        <time>2022-08-07T08:43:07Z</time>
      </trkpt>
      <trkpt lat="44.85666" lon="1.60963">
        <ele>141.8</ele>
        <time>2022-08-07T08:43:09Z</time>
      </trkpt>
      <trkpt lat="44.85661" lon="1.60971">
        <ele>142.8</ele>
        <time>2022-08-07T08:43:11Z</time>
      </trkpt>
      <trkpt lat="44.85657" lon="1.60979">
        <ele>143.6</ele>
        <time>2022-08-07T08:43:13Z</time>
      </trkpt>
      <trkpt lat="44.85653" lon="1.60987">
        <ele>144.1</ele>
        <time>2022-08-07T08:43:15Z</time>
      </trkpt>
      <trkpt lat="44.85649" lon="1.60996">
        <ele>144.5</ele>
        <time>2022-08-07T08:43:17Z</time>
      </trkpt>
      <trkpt lat="44.85645" lon="1.61005">
        <ele>145.2</ele>
        <time>2022-08-07T08:43:19Z</time>
      </trkpt>
      <trkpt lat="44.85641" lon="1.61015">
        <ele>146.1</ele>
        <time>2022-08-07T08:43:21Z</time>
      </trkpt>
      <trkpt lat="44.85638" lon="1.61024">
        <ele>146.7</ele>
        <time>2022-08-07T08:43:23Z</time>
      </trkpt>
      <trkpt lat="44.85635" lon="1.61034">
        <ele>147.2</ele>
        <time>2022-08-07T08:43:25Z</time>
      </trkpt>
      <trkpt lat="44.85632" lon="1.61043">
        <ele>147.5</ele>
        <time>2022-08-07T08:43:27Z</time>
      </trkpt>
      <trkpt lat="44.85629" lon="1.61053">
        <ele>147.7</ele>
        <time>2022-08-07T08:43:29Z</time>
      </trkpt>
      <trkpt lat="44.85626" lon="1.61062">
        <ele>147.7</ele>
        <time>2022-08-07T08:43:31Z</time>
      </trkpt>
      <trkpt lat="44.85623" lon="1.61072">
        <ele>147.5</ele>
        <time>2022-08-07T08:43:33Z</time>
      </trkpt>
      <trkpt lat="44.8562" lon="1.61082">
        <ele>147.3</ele>
        <time>2022-08-07T08:43:35Z</time>
      </trkpt>
      <trkpt lat="44.85617" lon="1.61091">
        <ele>147.2</ele>
        <time>2022-08-07T08:43:37Z</time>
      </trkpt>
      <trkpt lat="44.85614" lon="1.611">
        <ele>147.2</ele>
        <time>2022-08-07T08:43:39Z</time>
      </trkpt>
      <trkpt lat="44.85612" lon="1.61109">
        <ele>147.1</ele>
        <time>2022-08-07T08:43:41Z</time>
      </trkpt>
      <trkpt lat="44.85608" lon="1.61119">
        <ele>146.9</ele>
        <time>2022-08-07T08:43:43Z</time>
      </trkpt>
      <trkpt lat="44.85605" lon="1.61128">
        <ele>146.5</ele>
        <time>2022-08-07T08:43:45Z</time>
      </trkpt>
      <trkpt lat="44.85602" lon="1.61138">
        <ele>146.2</ele>
        <time>2022-08-07T08:43:47Z</time>
      </trkpt>
      <trkpt lat="44.85599" lon="1.61147">
        <ele>145.8</ele>
        <time>2022-08-07T08:43:49Z</time>
      </trkpt>
      <trkpt lat="44.85597" lon="1.61156">
        <ele>145.3</ele>
        <time>2022-08-07T08:43:51Z</time>
      </trkpt>
      <trkpt lat="44.85594" lon="1.61166">
        <ele>144.8</ele>
        <time>2022-08-07T08:43:53Z</time>
      </trkpt>
      <trkpt lat="44.85591" lon="1.61175">
        <ele>144.1</ele>
        <time>2022-08-07T08:43:55Z</time>
      </trkpt>
      <trkpt lat="44.85588" lon="1.61183">
        <ele>143.6</ele>
        <time>2022-08-07T08:43:57Z</time>
      </trkpt>
      <trkpt lat="44.85586" lon="1.61192">
        <ele>143</ele>
        <time>2022-08-07T08:43:59Z</time>
      </trkpt>
      <trkpt lat="44.85583" lon="1.61202">
        <ele>142.6</ele>
        <time>2022-08-07T08:44:01Z</time>
      </trkpt>
      <trkpt lat="44.85579" lon="1.61212">
        <ele>143.3</ele>
        <time>2022-08-07T08:44:03Z</time>
      </trkpt>
      <trkpt lat="44.85577" lon="1.61222">
        <ele>143.9</ele>
        <time>2022-08-07T08:44:05Z</time>
      </trkpt>
      <trkpt lat="44.85575" lon="1.61232">
        <ele>144.3</ele>
        <time>2022-08-07T08:44:07Z</time>
      </trkpt>
      <trkpt lat="44.85574" lon="1.61242">
        <ele>144.5</ele>
        <time>2022-08-07T08:44:09Z</time>
      </trkpt>
      <trkpt lat="44.85574" lon="1.61252">
        <ele>144.6</ele>
        <time>2022-08-07T08:44:11Z</time>
      </trkpt>
      <trkpt lat="44.85573" lon="1.61262">
        <ele>144.5</ele>
        <time>2022-08-07T08:44:13Z</time>
      </trkpt>
      <trkpt lat="44.85573" lon="1.61272">
        <ele>144.3</ele>
        <time>2022-08-07T08:44:15Z</time>
      </trkpt>
      <trkpt lat="44.85575" lon="1.61282">
        <ele>144</ele>
        <time>2022-08-07T08:44:17Z</time>
      </trkpt>
      <trkpt lat="44.85576" lon="1.61293">
        <ele>143.7</ele>
        <time>2022-08-07T08:44:19Z</time>
      </trkpt>
      <trkpt lat="44.85577" lon="1.61303">
        <ele>143.3</ele>
        <time>2022-08-07T08:44:21Z</time>
      </trkpt>
      <trkpt lat="44.85579" lon="1.61313">
        <ele>142.9</ele>
        <time>2022-08-07T08:44:23Z</time>
      </trkpt>
      <trkpt lat="44.8558" lon="1.61323">
        <ele>142.6</ele>
        <time>2022-08-07T08:44:25Z</time>
      </trkpt>
      <trkpt lat="44.85581" lon="1.61334">
        <ele>142.3</ele>
        <time>2022-08-07T08:44:27Z</time>
      </trkpt>
      <trkpt lat="44.85583" lon="1.61344">
        <ele>142.1</ele>
        <time>2022-08-07T08:44:29Z</time>
      </trkpt>
      <trkpt lat="44.85584" lon="1.61353">
        <ele>142.1</ele>
        <time>2022-08-07T08:44:31Z</time>
      </trkpt>
      <trkpt lat="44.85585" lon="1.61363">
        <ele>142.4</ele>
        <time>2022-08-07T08:44:33Z</time>
      </trkpt>
      <trkpt lat="44.85587" lon="1.61374">
        <ele>142.8</ele>
        <time>2022-08-07T08:44:35Z</time>
      </trkpt>
      <trkpt lat="44.85587" lon="1.61383">
        <ele>143</ele>
        <time>2022-08-07T08:44:37Z</time>
      </trkpt>
      <trkpt lat="44.85588" lon="1.61393">
        <ele>143</ele>
        <time>2022-08-07T08:44:39Z</time>
      </trkpt>
      <trkpt lat="44.85589" lon="1.61403">
        <ele>143.2</ele>
        <time>2022-08-07T08:44:41Z</time>
      </trkpt>
      <trkpt lat="44.85588" lon="1.61413">
        <ele>143.1</ele>
        <time>2022-08-07T08:44:43Z</time>
      </trkpt>
      <trkpt lat="44.85588" lon="1.61422">
        <ele>143.2</ele>
        <time>2022-08-07T08:44:45Z</time>
      </trkpt>
      <trkpt lat="44.85587" lon="1.61432">
        <ele>143.3</ele>
        <time>2022-08-07T08:44:47Z</time>
      </trkpt>
      <trkpt lat="44.85586" lon="1.61442">
        <ele>143.3</ele>
        <time>2022-08-07T08:44:49Z</time>
      </trkpt>
      <trkpt lat="44.85585" lon="1.61452">
        <ele>143.3</ele>
        <time>2022-08-07T08:44:51Z</time>
      </trkpt>
      <trkpt lat="44.85583" lon="1.61462">
        <ele>143.1</ele>
        <time>2022-08-07T08:44:53Z</time>
      </trkpt>
      <trkpt lat="44.85582" lon="1.61471">
        <ele>143.3</ele>
        <time>2022-08-07T08:44:55Z</time>
      </trkpt>
      <trkpt lat="44.8558" lon="1.61481">
        <ele>143.6</ele>
        <time>2022-08-07T08:44:57Z</time>
      </trkpt>
      <trkpt lat="44.85577" lon="1.6149">
        <ele>143.8</ele>
        <time>2022-08-07T08:44:59Z</time>
      </trkpt>
      <trkpt lat="44.85575" lon="1.615">
        <ele>144</ele>
        <time>2022-08-07T08:45:01Z</time>
      </trkpt>
      <trkpt lat="44.85572" lon="1.61509">
        <ele>145</ele>
        <time>2022-08-07T08:45:03Z</time>
      </trkpt>
      <trkpt lat="44.85568" lon="1.61518">
        <ele>145.9</ele>
        <time>2022-08-07T08:45:05Z</time>
      </trkpt>
      <trkpt lat="44.85564" lon="1.61526">
        <ele>146.7</ele>
        <time>2022-08-07T08:45:07Z</time>
      </trkpt>
      <trkpt lat="44.8556" lon="1.61534">
        <ele>147.4</ele>
        <time>2022-08-07T08:45:09Z</time>
      </trkpt>
      <trkpt lat="44.85556" lon="1.61541">
        <ele>148</ele>
        <time>2022-08-07T08:45:11Z</time>
      </trkpt>
      <trkpt lat="44.85551" lon="1.61548">
        <ele>148.5</ele>
        <time>2022-08-07T08:45:13Z</time>
      </trkpt>
      <trkpt lat="44.85546" lon="1.61555">
        <ele>148.8</ele>
        <time>2022-08-07T08:45:15Z</time>
      </trkpt>
      <trkpt lat="44.85541" lon="1.61561">
        <ele>149.1</ele>
        <time>2022-08-07T08:45:17Z</time>
      </trkpt>
      <trkpt lat="44.85535" lon="1.61567">
        <ele>149.3</ele>
        <time>2022-08-07T08:45:19Z</time>
      </trkpt>
      <trkpt lat="44.85529" lon="1.61574">
        <ele>149.4</ele>
        <time>2022-08-07T08:45:21Z</time>
      </trkpt>
      <trkpt lat="44.85524" lon="1.6158">
        <ele>149.5</ele>
        <time>2022-08-07T08:45:23Z</time>
      </trkpt>
      <trkpt lat="44.85518" lon="1.61586">
        <ele>149.7</ele>
        <time>2022-08-07T08:45:25Z</time>
      </trkpt>
      <trkpt lat="44.85513" lon="1.61592">
        <ele>150.4</ele>
        <time>2022-08-07T08:45:27Z</time>
      </trkpt>
      <trkpt lat="44.85507" lon="1.61598">
        <ele>151.2</ele>
        <time>2022-08-07T08:45:29Z</time>
      </trkpt>
      <trkpt lat="44.85501" lon="1.61604">
        <ele>151.9</ele>
        <time>2022-08-07T08:45:31Z</time>
      </trkpt>
      <trkpt lat="44.85495" lon="1.61611">
        <ele>152.9</ele>
        <time>2022-08-07T08:45:33Z</time>
      </trkpt>
      <trkpt lat="44.8549" lon="1.61618">
        <ele>153.8</ele>
        <time>2022-08-07T08:45:35Z</time>
      </trkpt>
      <trkpt lat="44.85485" lon="1.61624">
        <ele>154.5</ele>
        <time>2022-08-07T08:45:37Z</time>
      </trkpt>
      <trkpt lat="44.8548" lon="1.61631">
        <ele>155</ele>
        <time>2022-08-07T08:45:39Z</time>
      </trkpt>
      <trkpt lat="44.85475" lon="1.61639">
        <ele>155.3</ele>
        <time>2022-08-07T08:45:41Z</time>
      </trkpt>
      <trkpt lat="44.8547" lon="1.61647">
        <ele>155.5</ele>
        <time>2022-08-07T08:45:43Z</time>
      </trkpt>
      <trkpt lat="44.85465" lon="1.61654">
        <ele>155.4</ele>
        <time>2022-08-07T08:45:45Z</time>
      </trkpt>
      <trkpt lat="44.85461" lon="1.61662">
        <ele>155.2</ele>
        <time>2022-08-07T08:45:47Z</time>
      </trkpt>
      <trkpt lat="44.85457" lon="1.61671">
        <ele>155.1</ele>
        <time>2022-08-07T08:45:49Z</time>
      </trkpt>
      <trkpt lat="44.85453" lon="1.61679">
        <ele>155.3</ele>
        <time>2022-08-07T08:45:51Z</time>
      </trkpt>
      <trkpt lat="44.85449" lon="1.61688">
        <ele>155.3</ele>
        <time>2022-08-07T08:45:53Z</time>
      </trkpt>
      <trkpt lat="44.85445" lon="1.61697">
        <ele>155.3</ele>
        <time>2022-08-07T08:45:55Z</time>
      </trkpt>
      <trkpt lat="44.85441" lon="1.61706">
        <ele>155.2</ele>
        <time>2022-08-07T08:45:57Z</time>
      </trkpt>
      <trkpt lat="44.85437" lon="1.61716">
        <ele>155</ele>
        <time>2022-08-07T08:45:59Z</time>
      </trkpt>
      <trkpt lat="44.85434" lon="1.61724">
        <ele>154.7</ele>
        <time>2022-08-07T08:46:01Z</time>
      </trkpt>
      <trkpt lat="44.8543" lon="1.61733">
        <ele>154.3</ele>
        <time>2022-08-07T08:46:03Z</time>
      </trkpt>
      <trkpt lat="44.85426" lon="1.61742">
        <ele>153.7</ele>
        <time>2022-08-07T08:46:05Z</time>
      </trkpt>
      <trkpt lat="44.85423" lon="1.61751">
        <ele>153.2</ele>
        <time>2022-08-07T08:46:07Z</time>
      </trkpt>
      <trkpt lat="44.85419" lon="1.61761">
        <ele>153.5</ele>
        <time>2022-08-07T08:46:09Z</time>
      </trkpt>
      <trkpt lat="44.85415" lon="1.6177">
        <ele>154.1</ele>
        <time>2022-08-07T08:46:11Z</time>
      </trkpt>
      <trkpt lat="44.85411" lon="1.6178">
        <ele>155.4</ele>
        <time>2022-08-07T08:46:13Z</time>
      </trkpt>
      <trkpt lat="44.85406" lon="1.6179">
        <ele>156.5</ele>
        <time>2022-08-07T08:46:15Z</time>
      </trkpt>
      <trkpt lat="44.85402" lon="1.61799">
        <ele>157.5</ele>
        <time>2022-08-07T08:46:17Z</time>
      </trkpt>
      <trkpt lat="44.85398" lon="1.61809">
        <ele>158.5</ele>
        <time>2022-08-07T08:46:19Z</time>
      </trkpt>
      <trkpt lat="44.85393" lon="1.61817">
        <ele>159.1</ele>
        <time>2022-08-07T08:46:21Z</time>
      </trkpt>
      <trkpt lat="44.85389" lon="1.61825">
        <ele>159.6</ele>
        <time>2022-08-07T08:46:23Z</time>
      </trkpt>
      <trkpt lat="44.85384" lon="1.61833">
        <ele>160</ele>
        <time>2022-08-07T08:46:25Z</time>
      </trkpt>
      <trkpt lat="44.85379" lon="1.61842">
        <ele>160.7</ele>
        <time>2022-08-07T08:46:27Z</time>
      </trkpt>
      <trkpt lat="44.85374" lon="1.61849">
        <ele>161.1</ele>
        <time>2022-08-07T08:46:29Z</time>
      </trkpt>
      <trkpt lat="44.8537" lon="1.61856">
        <ele>161.5</ele>
        <time>2022-08-07T08:46:31Z</time>
      </trkpt>
      <trkpt lat="44.85366" lon="1.61864">
        <ele>161.6</ele>
        <time>2022-08-07T08:46:33Z</time>
      </trkpt>
      <trkpt lat="44.85361" lon="1.61872">
        <ele>161.6</ele>
        <time>2022-08-07T08:46:35Z</time>
      </trkpt>
      <trkpt lat="44.85357" lon="1.6188">
        <ele>161.3</ele>
        <time>2022-08-07T08:46:37Z</time>
      </trkpt>
      <trkpt lat="44.85352" lon="1.61887">
        <ele>160.8</ele>
        <time>2022-08-07T08:46:39Z</time>
      </trkpt>
      <trkpt lat="44.85348" lon="1.61894">
        <ele>160.2</ele>
        <time>2022-08-07T08:46:41Z</time>
      </trkpt>
      <trkpt lat="44.85343" lon="1.61902">
        <ele>159.3</ele>
        <time>2022-08-07T08:46:43Z</time>
      </trkpt>
      <trkpt lat="44.85338" lon="1.61909">
        <ele>158.3</ele>
        <time>2022-08-07T08:46:45Z</time>
      </trkpt>
      <trkpt lat="44.85333" lon="1.61916">
        <ele>157</ele>
        <time>2022-08-07T08:46:47Z</time>
      </trkpt>
      <trkpt lat="44.85328" lon="1.61923">
        <ele>158.6</ele>
        <time>2022-08-07T08:46:49Z</time>
      </trkpt>
      <trkpt lat="44.85323" lon="1.6193">
        <ele>160.1</ele>
        <time>2022-08-07T08:46:51Z</time>
      </trkpt>
      <trkpt lat="44.85318" lon="1.61937">
        <ele>161.5</ele>
        <time>2022-08-07T08:46:53Z</time>
      </trkpt>
      <trkpt lat="44.85313" lon="1.61943">
        <ele>162.5</ele>
        <time>2022-08-07T08:46:55Z</time>
      </trkpt>
      <trkpt lat="44.85307" lon="1.61949">
        <ele>163.3</ele>
        <time>2022-08-07T08:46:57Z</time>
      </trkpt>
      <trkpt lat="44.85302" lon="1.61955">
        <ele>163.9</ele>
        <time>2022-08-07T08:46:59Z</time>
      </trkpt>
      <trkpt lat="44.85296" lon="1.61961">
        <ele>164.3</ele>
        <time>2022-08-07T08:47:01Z</time>
      </trkpt>
      <trkpt lat="44.8529" lon="1.61966">
        <ele>164.5</ele>
        <time>2022-08-07T08:47:03Z</time>
      </trkpt>
      <trkpt lat="44.85284" lon="1.61971">
        <ele>164.5</ele>
        <time>2022-08-07T08:47:05Z</time>
      </trkpt>
      <trkpt lat="44.85278" lon="1.61977">
        <ele>164.3</ele>
        <time>2022-08-07T08:47:07Z</time>
      </trkpt>
      <trkpt lat="44.85272" lon="1.61982">
        <ele>163.9</ele>
        <time>2022-08-07T08:47:09Z</time>
      </trkpt>
      <trkpt lat="44.85266" lon="1.61988">
        <ele>163.3</ele>
        <time>2022-08-07T08:47:11Z</time>
      </trkpt>
      <trkpt lat="44.8526" lon="1.61993">
        <ele>162.6</ele>
        <time>2022-08-07T08:47:13Z</time>
      </trkpt>
      <trkpt lat="44.85254" lon="1.61998">
        <ele>161.6</ele>
        <time>2022-08-07T08:47:15Z</time>
      </trkpt>
      <trkpt lat="44.85247" lon="1.62003">
        <ele>161.8</ele>
        <time>2022-08-07T08:47:17Z</time>
      </trkpt>
      <trkpt lat="44.85241" lon="1.62009">
        <ele>163</ele>
        <time>2022-08-07T08:47:19Z</time>
      </trkpt>
      <trkpt lat="44.85235" lon="1.62014">
        <ele>163.9</ele>
        <time>2022-08-07T08:47:21Z</time>
      </trkpt>
      <trkpt lat="44.85228" lon="1.62018">
        <ele>164.7</ele>
        <time>2022-08-07T08:47:23Z</time>
      </trkpt>
      <trkpt lat="44.85221" lon="1.62022">
        <ele>165.2</ele>
        <time>2022-08-07T08:47:25Z</time>
      </trkpt>
      <trkpt lat="44.85215" lon="1.62026">
        <ele>165.6</ele>
        <time>2022-08-07T08:47:27Z</time>
      </trkpt>
      <trkpt lat="44.85208" lon="1.62029">
        <ele>165.9</ele>
        <time>2022-08-07T08:47:29Z</time>
      </trkpt>
      <trkpt lat="44.85202" lon="1.62033">
        <ele>166.1</ele>
        <time>2022-08-07T08:47:31Z</time>
      </trkpt>
      <trkpt lat="44.85195" lon="1.62036">
        <ele>166.3</ele>
        <time>2022-08-07T08:47:33Z</time>
      </trkpt>
      <trkpt lat="44.85188" lon="1.6204">
        <ele>166.3</ele>
        <time>2022-08-07T08:47:35Z</time>
      </trkpt>
      <trkpt lat="44.85182" lon="1.62043">
        <ele>166.2</ele>
        <time>2022-08-07T08:47:37Z</time>
      </trkpt>
      <trkpt lat="44.85175" lon="1.62046">
        <ele>166.1</ele>
        <time>2022-08-07T08:47:39Z</time>
      </trkpt>
      <trkpt lat="44.85168" lon="1.62049">
        <ele>165.8</ele>
        <time>2022-08-07T08:47:41Z</time>
      </trkpt>
      <trkpt lat="44.85161" lon="1.62052">
        <ele>165.8</ele>
        <time>2022-08-07T08:47:43Z</time>
      </trkpt>
      <trkpt lat="44.85154" lon="1.62054">
        <ele>165.8</ele>
        <time>2022-08-07T08:47:45Z</time>
      </trkpt>
      <trkpt lat="44.85147" lon="1.62056">
        <ele>165.6</ele>
        <time>2022-08-07T08:47:47Z</time>
      </trkpt>
      <trkpt lat="44.8514" lon="1.62058">
        <ele>165.3</ele>
        <time>2022-08-07T08:47:49Z</time>
      </trkpt>
      <trkpt lat="44.85133" lon="1.6206">
        <ele>165</ele>
        <time>2022-08-07T08:47:51Z</time>
      </trkpt>
      <trkpt lat="44.85126" lon="1.6206">
        <ele>164.6</ele>
        <time>2022-08-07T08:47:53Z</time>
      </trkpt>
      <trkpt lat="44.85119" lon="1.62062">
        <ele>164.2</ele>
        <time>2022-08-07T08:47:55Z</time>
      </trkpt>
      <trkpt lat="44.85112" lon="1.62063">
        <ele>163.7</ele>
        <time>2022-08-07T08:47:57Z</time>
      </trkpt>
      <trkpt lat="44.85105" lon="1.62064">
        <ele>163.1</ele>
        <time>2022-08-07T08:47:59Z</time>
      </trkpt>
      <trkpt lat="44.85098" lon="1.62064">
        <ele>162.7</ele>
        <time>2022-08-07T08:48:01Z</time>
      </trkpt>
      <trkpt lat="44.85091" lon="1.62065">
        <ele>162.2</ele>
        <time>2022-08-07T08:48:03Z</time>
      </trkpt>
      <trkpt lat="44.85084" lon="1.62067">
        <ele>161.4</ele>
        <time>2022-08-07T08:48:05Z</time>
      </trkpt>
      <trkpt lat="44.85078" lon="1.62069">
        <ele>162.1</ele>
        <time>2022-08-07T08:48:07Z</time>
      </trkpt>
      <trkpt lat="44.85072" lon="1.62073">
        <ele>162.7</ele>
        <time>2022-08-07T08:48:09Z</time>
      </trkpt>
      <trkpt lat="44.85067" lon="1.62079">
        <ele>162.8</ele>
        <time>2022-08-07T08:48:11Z</time>
      </trkpt>
      <trkpt lat="44.85062" lon="1.62086">
        <ele>162.9</ele>
        <time>2022-08-07T08:48:13Z</time>
      </trkpt>
      <trkpt lat="44.85059" lon="1.62094">
        <ele>163.7</ele>
        <time>2022-08-07T08:48:15Z</time>
      </trkpt>
      <trkpt lat="44.85058" lon="1.62104">
        <ele>164.3</ele>
        <time>2022-08-07T08:48:17Z</time>
      </trkpt>
      <trkpt lat="44.85058" lon="1.62113">
        <ele>164.6</ele>
        <time>2022-08-07T08:48:19Z</time>
      </trkpt>
      <trkpt lat="44.85059" lon="1.62123">
        <ele>164.8</ele>
        <time>2022-08-07T08:48:21Z</time>
      </trkpt>
      <trkpt lat="44.85062" lon="1.62133">
        <ele>164.8</ele>
        <time>2022-08-07T08:48:23Z</time>
      </trkpt>
      <trkpt lat="44.85064" lon="1.62143">
        <ele>164.9</ele>
        <time>2022-08-07T08:48:25Z</time>
      </trkpt>
      <trkpt lat="44.85066" lon="1.62153">
        <ele>165.1</ele>
        <time>2022-08-07T08:48:27Z</time>
      </trkpt>
      <trkpt lat="44.85068" lon="1.62163">
        <ele>165.3</ele>
        <time>2022-08-07T08:48:29Z</time>
      </trkpt>
      <trkpt lat="44.8507" lon="1.62172">
        <ele>165.6</ele>
        <time>2022-08-07T08:48:31Z</time>
      </trkpt>
      <trkpt lat="44.85071" lon="1.62182">
        <ele>166.1</ele>
        <time>2022-08-07T08:48:33Z</time>
      </trkpt>
      <trkpt lat="44.85072" lon="1.62192">
        <ele>166.7</ele>
        <time>2022-08-07T08:48:35Z</time>
      </trkpt>
      <trkpt lat="44.85072" lon="1.62202">
        <ele>167.3</ele>
        <time>2022-08-07T08:48:37Z</time>
      </trkpt>
      <trkpt lat="44.85072" lon="1.62212">
        <ele>168</ele>
        <time>2022-08-07T08:48:39Z</time>
      </trkpt>
      <trkpt lat="44.85071" lon="1.62222">
        <ele>168.7</ele>
        <time>2022-08-07T08:48:41Z</time>
      </trkpt>
      <trkpt lat="44.85069" lon="1.62231">
        <ele>169.4</ele>
        <time>2022-08-07T08:48:43Z</time>
      </trkpt>
      <trkpt lat="44.85067" lon="1.6224">
        <ele>170</ele>
        <time>2022-08-07T08:48:45Z</time>
      </trkpt>
      <trkpt lat="44.85064" lon="1.62249">
        <ele>170.6</ele>
        <time>2022-08-07T08:48:47Z</time>
      </trkpt>
      <trkpt lat="44.85061" lon="1.62258">
        <ele>171.2</ele>
        <time>2022-08-07T08:48:49Z</time>
      </trkpt>
      <trkpt lat="44.85058" lon="1.62266">
        <ele>171.7</ele>
        <time>2022-08-07T08:48:51Z</time>
      </trkpt>
      <trkpt lat="44.85054" lon="1.62274">
        <ele>172.1</ele>
        <time>2022-08-07T08:48:53Z</time>
      </trkpt>
      <trkpt lat="44.8505" lon="1.62281">
        <ele>172.4</ele>
        <time>2022-08-07T08:48:55Z</time>
      </trkpt>
      <trkpt lat="44.85046" lon="1.62288">
        <ele>172.7</ele>
        <time>2022-08-07T08:48:57Z</time>
      </trkpt>
      <trkpt lat="44.85041" lon="1.62295">
        <ele>172.9</ele>
        <time>2022-08-07T08:48:59Z</time>
      </trkpt>
      <trkpt lat="44.85037" lon="1.62302">
        <ele>173</ele>
        <time>2022-08-07T08:49:01Z</time>
      </trkpt>
      <trkpt lat="44.85032" lon="1.62308">
        <ele>173</ele>
        <time>2022-08-07T08:49:03Z</time>
      </trkpt>
      <trkpt lat="44.85027" lon="1.62314">
        <ele>173</ele>
        <time>2022-08-07T08:49:05Z</time>
      </trkpt>
      <trkpt lat="44.85022" lon="1.6232">
        <ele>172.9</ele>
        <time>2022-08-07T08:49:07Z</time>
      </trkpt>
      <trkpt lat="44.85017" lon="1.62326">
        <ele>172.8</ele>
        <time>2022-08-07T08:49:09Z</time>
      </trkpt>
      <trkpt lat="44.85012" lon="1.62331">
        <ele>172.6</ele>
        <time>2022-08-07T08:49:11Z</time>
      </trkpt>
      <trkpt lat="44.85006" lon="1.62338">
        <ele>173</ele>
        <time>2022-08-07T08:49:13Z</time>
      </trkpt>
      <trkpt lat="44.85001" lon="1.62344">
        <ele>173.9</ele>
        <time>2022-08-07T08:49:15Z</time>
      </trkpt>
      <trkpt lat="44.84996" lon="1.6235">
        <ele>175.1</ele>
        <time>2022-08-07T08:49:17Z</time>
      </trkpt>
      <trkpt lat="44.84991" lon="1.62356">
        <ele>176.3</ele>
        <time>2022-08-07T08:49:19Z</time>
      </trkpt>
      <trkpt lat="44.84986" lon="1.62363">
        <ele>177.3</ele>
        <time>2022-08-07T08:49:21Z</time>
      </trkpt>
      <trkpt lat="44.8498" lon="1.62368">
        <ele>178</ele>
        <time>2022-08-07T08:49:23Z</time>
      </trkpt>
      <trkpt lat="44.84974" lon="1.62374">
        <ele>178.6</ele>
        <time>2022-08-07T08:49:25Z</time>
      </trkpt>
      <trkpt lat="44.84968" lon="1.62378">
        <ele>178.8</ele>
        <time>2022-08-07T08:49:27Z</time>
      </trkpt>
      <trkpt lat="44.84962" lon="1.62383">
        <ele>178.9</ele>
        <time>2022-08-07T08:49:29Z</time>
      </trkpt>
      <trkpt lat="44.84955" lon="1.62387">
        <ele>178.7</ele>
        <time>2022-08-07T08:49:31Z</time>
      </trkpt>
      <trkpt lat="44.84948" lon="1.6239">
        <ele>178.4</ele>
        <time>2022-08-07T08:49:33Z</time>
      </trkpt>
      <trkpt lat="44.84941" lon="1.62394">
        <ele>177.9</ele>
        <time>2022-08-07T08:49:35Z</time>
      </trkpt>
      <trkpt lat="44.84935" lon="1.62397">
        <ele>177.4</ele>
        <time>2022-08-07T08:49:37Z</time>
      </trkpt>
      <trkpt lat="44.84929" lon="1.624">
        <ele>176.7</ele>
        <time>2022-08-07T08:49:39Z</time>
      </trkpt>
      <trkpt lat="44.84921" lon="1.62404">
        <ele>175.7</ele>
        <time>2022-08-07T08:49:41Z</time>
      </trkpt>
      <trkpt lat="44.84914" lon="1.62407">
        <ele>175</ele>
        <time>2022-08-07T08:49:43Z</time>
      </trkpt>
      <trkpt lat="44.84908" lon="1.62409">
        <ele>174.9</ele>
        <time>2022-08-07T08:49:45Z</time>
      </trkpt>
      <trkpt lat="44.84901" lon="1.62412">
        <ele>174.7</ele>
        <time>2022-08-07T08:49:47Z</time>
      </trkpt>
      <trkpt lat="44.84894" lon="1.62415">
        <ele>174.4</ele>
        <time>2022-08-07T08:49:49Z</time>
      </trkpt>
      <trkpt lat="44.84888" lon="1.62418">
        <ele>174.6</ele>
        <time>2022-08-07T08:49:51Z</time>
      </trkpt>
      <trkpt lat="44.84881" lon="1.62421">
        <ele>175.3</ele>
        <time>2022-08-07T08:49:53Z</time>
      </trkpt>
      <trkpt lat="44.84875" lon="1.62426">
        <ele>175.9</ele>
        <time>2022-08-07T08:49:55Z</time>
      </trkpt>
      <trkpt lat="44.84869" lon="1.6243">
        <ele>176.5</ele>
        <time>2022-08-07T08:49:57Z</time>
      </trkpt>
      <trkpt lat="44.84862" lon="1.62435">
        <ele>177</ele>
        <time>2022-08-07T08:49:59Z</time>
      </trkpt>
      <trkpt lat="44.84856" lon="1.6244">
        <ele>177.4</ele>
        <time>2022-08-07T08:50:01Z</time>
      </trkpt>
      <trkpt lat="44.8485" lon="1.62446">
        <ele>177.8</ele>
        <time>2022-08-07T08:50:03Z</time>
      </trkpt>
      <trkpt lat="44.84845" lon="1.62452">
        <ele>178</ele>
        <time>2022-08-07T08:50:05Z</time>
      </trkpt>
      <trkpt lat="44.84839" lon="1.62459">
        <ele>178.1</ele>
        <time>2022-08-07T08:50:07Z</time>
      </trkpt>
      <trkpt lat="44.84834" lon="1.62465">
        <ele>177.9</ele>
        <time>2022-08-07T08:50:09Z</time>
      </trkpt>
      <trkpt lat="44.84828" lon="1.6247">
        <ele>178.3</ele>
        <time>2022-08-07T08:50:11Z</time>
      </trkpt>
      <trkpt lat="44.84822" lon="1.62474">
        <ele>178.6</ele>
        <time>2022-08-07T08:50:13Z</time>
      </trkpt>
      <trkpt lat="44.84816" lon="1.62478">
        <ele>178.9</ele>
        <time>2022-08-07T08:50:15Z</time>
      </trkpt>
      <trkpt lat="44.84809" lon="1.62481">
        <ele>179.1</ele>
        <time>2022-08-07T08:50:17Z</time>
      </trkpt>
      <trkpt lat="44.84802" lon="1.62482">
        <ele>179.2</ele>
        <time>2022-08-07T08:50:19Z</time>
      </trkpt>
      <trkpt lat="44.84795" lon="1.62482">
        <ele>179.3</ele>
        <time>2022-08-07T08:50:21Z</time>
      </trkpt>
      <trkpt lat="44.84787" lon="1.62481">
        <ele>179.4</ele>
        <time>2022-08-07T08:50:23Z</time>
      </trkpt>
      <trkpt lat="44.8478" lon="1.62479">
        <ele>179.4</ele>
        <time>2022-08-07T08:50:25Z</time>
      </trkpt>
      <trkpt lat="44.84773" lon="1.62476">
        <ele>179.4</ele>
        <time>2022-08-07T08:50:27Z</time>
      </trkpt>
      <trkpt lat="44.84766" lon="1.62472">
        <ele>179.4</ele>
        <time>2022-08-07T08:50:29Z</time>
      </trkpt>
      <trkpt lat="44.8476" lon="1.62467">
        <ele>179.4</ele>
        <time>2022-08-07T08:50:31Z</time>
      </trkpt>
      <trkpt lat="44.84754" lon="1.62463">
        <ele>179.5</ele>
        <time>2022-08-07T08:50:33Z</time>
      </trkpt>
      <trkpt lat="44.84747" lon="1.62457">
        <ele>179.6</ele>
        <time>2022-08-07T08:50:35Z</time>
      </trkpt>
      <trkpt lat="44.8474" lon="1.62453">
        <ele>179.7</ele>
        <time>2022-08-07T08:50:37Z</time>
      </trkpt>
      <trkpt lat="44.84734" lon="1.62448">
        <ele>179.8</ele>
        <time>2022-08-07T08:50:39Z</time>
      </trkpt>
      <trkpt lat="44.84728" lon="1.62444">
        <ele>179.7</ele>
        <time>2022-08-07T08:50:41Z</time>
      </trkpt>
      <trkpt lat="44.84722" lon="1.62439">
        <ele>179.7</ele>
        <time>2022-08-07T08:50:43Z</time>
      </trkpt>
      <trkpt lat="44.84715" lon="1.62436">
        <ele>179.6</ele>
        <time>2022-08-07T08:50:45Z</time>
      </trkpt>
      <trkpt lat="44.84709" lon="1.62433">
        <ele>179.5</ele>
        <time>2022-08-07T08:50:47Z</time>
      </trkpt>
      <trkpt lat="44.84702" lon="1.6243">
        <ele>179.3</ele>
        <time>2022-08-07T08:50:49Z</time>
      </trkpt>
      <trkpt lat="44.84695" lon="1.62429">
        <ele>179.2</ele>
        <time>2022-08-07T08:50:51Z</time>
      </trkpt>
      <trkpt lat="44.84689" lon="1.62428">
        <ele>179.2</ele>
        <time>2022-08-07T08:50:53Z</time>
      </trkpt>
      <trkpt lat="44.84682" lon="1.62428">
        <ele>179.2</ele>
        <time>2022-08-07T08:50:55Z</time>
      </trkpt>
      <trkpt lat="44.84675" lon="1.62429">
        <ele>179.3</ele>
        <time>2022-08-07T08:50:57Z</time>
      </trkpt>
      <trkpt lat="44.84668" lon="1.6243">
        <ele>179.5</ele>
        <time>2022-08-07T08:50:59Z</time>
      </trkpt>
      <trkpt lat="44.84661" lon="1.62431">
        <ele>179.8</ele>
        <time>2022-08-07T08:51:01Z</time>
      </trkpt>
      <trkpt lat="44.84655" lon="1.62434">
        <ele>180.3</ele>
        <time>2022-08-07T08:51:03Z</time>
      </trkpt>
      <trkpt lat="44.84648" lon="1.62437">
        <ele>180.8</ele>
        <time>2022-08-07T08:51:05Z</time>
      </trkpt>
      <trkpt lat="44.84642" lon="1.6244">
        <ele>181.2</ele>
        <time>2022-08-07T08:51:07Z</time>
      </trkpt>
      <trkpt lat="44.84634" lon="1.62442">
        <ele>181.6</ele>
        <time>2022-08-07T08:51:09Z</time>
      </trkpt>
      <trkpt lat="44.84627" lon="1.62445">
        <ele>182</ele>
        <time>2022-08-07T08:51:11Z</time>
      </trkpt>
      <trkpt lat="44.8462" lon="1.62447">
        <ele>182.3</ele>
        <time>2022-08-07T08:51:13Z</time>
      </trkpt>
      <trkpt lat="44.84613" lon="1.62451">
        <ele>182.5</ele>
        <time>2022-08-07T08:51:15Z</time>
      </trkpt>
      <trkpt lat="44.84606" lon="1.62453">
        <ele>182.7</ele>
        <time>2022-08-07T08:51:17Z</time>
      </trkpt>
      <trkpt lat="44.84599" lon="1.62456">
        <ele>182.8</ele>
        <time>2022-08-07T08:51:19Z</time>
      </trkpt>
      <trkpt lat="44.84592" lon="1.62458">
        <ele>182.9</ele>
        <time>2022-08-07T08:51:21Z</time>
      </trkpt>
      <trkpt lat="44.84586" lon="1.62461">
        <ele>183</ele>
        <time>2022-08-07T08:51:23Z</time>
      </trkpt>
      <trkpt lat="44.84579" lon="1.62463">
        <ele>183.4</ele>
        <time>2022-08-07T08:51:25Z</time>
      </trkpt>
      <trkpt lat="44.84572" lon="1.62467">
        <ele>183.9</ele>
        <time>2022-08-07T08:51:27Z</time>
      </trkpt>
      <trkpt lat="44.84566" lon="1.62469">
        <ele>184.2</ele>
        <time>2022-08-07T08:51:29Z</time>
      </trkpt>
      <trkpt lat="44.8456" lon="1.62472">
        <ele>184.5</ele>
        <time>2022-08-07T08:51:31Z</time>
      </trkpt>
      <trkpt lat="44.84553" lon="1.62475">
        <ele>184.7</ele>
        <time>2022-08-07T08:51:33Z</time>
      </trkpt>
      <trkpt lat="44.84547" lon="1.62478">
        <ele>184.9</ele>
        <time>2022-08-07T08:51:35Z</time>
      </trkpt>
      <trkpt lat="44.84541" lon="1.62481">
        <ele>184.9</ele>
        <time>2022-08-07T08:51:37Z</time>
      </trkpt>
      <trkpt lat="44.84535" lon="1.62485">
        <ele>184.7</ele>
        <time>2022-08-07T08:51:39Z</time>
      </trkpt>
      <trkpt lat="44.84528" lon="1.62489">
        <ele>184.4</ele>
        <time>2022-08-07T08:51:41Z</time>
      </trkpt>
      <trkpt lat="44.84522" lon="1.62493">
        <ele>183.9</ele>
        <time>2022-08-07T08:51:43Z</time>
      </trkpt>
      <trkpt lat="44.84516" lon="1.62498">
        <ele>183.3</ele>
        <time>2022-08-07T08:51:45Z</time>
      </trkpt>
      <trkpt lat="44.84511" lon="1.62504">
        <ele>183.4</ele>
        <time>2022-08-07T08:51:47Z</time>
      </trkpt>
      <trkpt lat="44.84506" lon="1.6251">
        <ele>183.8</ele>
        <time>2022-08-07T08:51:49Z</time>
      </trkpt>
      <trkpt lat="44.84501" lon="1.62518">
        <ele>184.1</ele>
        <time>2022-08-07T08:51:51Z</time>
      </trkpt>
      <trkpt lat="44.84497" lon="1.62524">
        <ele>184.6</ele>
        <time>2022-08-07T08:51:53Z</time>
      </trkpt>
      <trkpt lat="44.84493" lon="1.62532">
        <ele>185.3</ele>
        <time>2022-08-07T08:51:55Z</time>
      </trkpt>
      <trkpt lat="44.84488" lon="1.6254">
        <ele>185.8</ele>
        <time>2022-08-07T08:51:57Z</time>
      </trkpt>
      <trkpt lat="44.84485" lon="1.62548">
        <ele>186.1</ele>
        <time>2022-08-07T08:51:59Z</time>
      </trkpt>
      <trkpt lat="44.8448" lon="1.62556">
        <ele>186.3</ele>
        <time>2022-08-07T08:52:01Z</time>
      </trkpt>
      <trkpt lat="44.84476" lon="1.62564">
        <ele>186.2</ele>
        <time>2022-08-07T08:52:03Z</time>
      </trkpt>
      <trkpt lat="44.84472" lon="1.62571">
        <ele>186.1</ele>
        <time>2022-08-07T08:52:05Z</time>
      </trkpt>
      <trkpt lat="44.84468" lon="1.62579">
        <ele>185.8</ele>
        <time>2022-08-07T08:52:07Z</time>
      </trkpt>
      <trkpt lat="44.84463" lon="1.62587">
        <ele>185.8</ele>
        <time>2022-08-07T08:52:09Z</time>
      </trkpt>
      <trkpt lat="44.84459" lon="1.62594">
        <ele>186.2</ele>
        <time>2022-08-07T08:52:11Z</time>
      </trkpt>
      <trkpt lat="44.84453" lon="1.62601">
        <ele>186.5</ele>
        <time>2022-08-07T08:52:13Z</time>
      </trkpt>
      <trkpt lat="44.84447" lon="1.62606">
        <ele>186.5</ele>
        <time>2022-08-07T08:52:15Z</time>
      </trkpt>
      <trkpt lat="44.8444" lon="1.62611">
        <ele>186.2</ele>
        <time>2022-08-07T08:52:17Z</time>
      </trkpt>
      <trkpt lat="44.84433" lon="1.62613">
        <ele>185.6</ele>
        <time>2022-08-07T08:52:19Z</time>
      </trkpt>
      <trkpt lat="44.84426" lon="1.62613">
        <ele>184.8</ele>
        <time>2022-08-07T08:52:21Z</time>
      </trkpt>
      <trkpt lat="44.84419" lon="1.62611">
        <ele>183.9</ele>
        <time>2022-08-07T08:52:23Z</time>
      </trkpt>
      <trkpt lat="44.84413" lon="1.62608">
        <ele>183.8</ele>
        <time>2022-08-07T08:52:25Z</time>
      </trkpt>
      <trkpt lat="44.84407" lon="1.62604">
        <ele>184.1</ele>
        <time>2022-08-07T08:52:27Z</time>
      </trkpt>
      <trkpt lat="44.84401" lon="1.62599">
        <ele>184.2</ele>
        <time>2022-08-07T08:52:29Z</time>
      </trkpt>
      <trkpt lat="44.84396" lon="1.62595">
        <ele>184.1</ele>
        <time>2022-08-07T08:52:31Z</time>
      </trkpt>
      <trkpt lat="44.84389" lon="1.62591">
        <ele>184.1</ele>
        <time>2022-08-07T08:52:33Z</time>
      </trkpt>
      <trkpt lat="44.84383" lon="1.62586">
        <ele>184</ele>
        <time>2022-08-07T08:52:35Z</time>
      </trkpt>
      <trkpt lat="44.84377" lon="1.62583">
        <ele>184</ele>
        <time>2022-08-07T08:52:37Z</time>
      </trkpt>
      <trkpt lat="44.84371" lon="1.62579">
        <ele>184.7</ele>
        <time>2022-08-07T08:52:39Z</time>
      </trkpt>
      <trkpt lat="44.84365" lon="1.62576">
        <ele>185.3</ele>
        <time>2022-08-07T08:52:41Z</time>
      </trkpt>
      <trkpt lat="44.84358" lon="1.62573">
        <ele>185.9</ele>
        <time>2022-08-07T08:52:43Z</time>
      </trkpt>
      <trkpt lat="44.84352" lon="1.62571">
        <ele>186.3</ele>
        <time>2022-08-07T08:52:45Z</time>
      </trkpt>
      <trkpt lat="44.84345" lon="1.6257">
        <ele>186.7</ele>
        <time>2022-08-07T08:52:47Z</time>
      </trkpt>
      <trkpt lat="44.84339" lon="1.62568">
        <ele>187.1</ele>
        <time>2022-08-07T08:52:49Z</time>
      </trkpt>
      <trkpt lat="44.84332" lon="1.62566">
        <ele>187.5</ele>
        <time>2022-08-07T08:52:51Z</time>
      </trkpt>
      <trkpt lat="44.84326" lon="1.62564">
        <ele>188</ele>
        <time>2022-08-07T08:52:53Z</time>
      </trkpt>
      <trkpt lat="44.84319" lon="1.62563">
        <ele>188.4</ele>
        <time>2022-08-07T08:52:55Z</time>
      </trkpt>
      <trkpt lat="44.84312" lon="1.62561">
        <ele>188.8</ele>
        <time>2022-08-07T08:52:57Z</time>
      </trkpt>
      <trkpt lat="44.84306" lon="1.6256">
        <ele>189.1</ele>
        <time>2022-08-07T08:52:59Z</time>
      </trkpt>
      <trkpt lat="44.84299" lon="1.62558">
        <ele>189.5</ele>
        <time>2022-08-07T08:53:01Z</time>
      </trkpt>
      <trkpt lat="44.84293" lon="1.62556">
        <ele>189.8</ele>
        <time>2022-08-07T08:53:03Z</time>
      </trkpt>
      <trkpt lat="44.84286" lon="1.62555">
        <ele>190</ele>
        <time>2022-08-07T08:53:05Z</time>
      </trkpt>
      <trkpt lat="44.8428" lon="1.62553">
        <ele>190.3</ele>
        <time>2022-08-07T08:53:07Z</time>
      </trkpt>
      <trkpt lat="44.84273" lon="1.62552">
        <ele>190.5</ele>
        <time>2022-08-07T08:53:09Z</time>
      </trkpt>
      <trkpt lat="44.84267" lon="1.6255">
        <ele>190.7</ele>
        <time>2022-08-07T08:53:11Z</time>
      </trkpt>
      <trkpt lat="44.8426" lon="1.62548">
        <ele>190.9</ele>
        <time>2022-08-07T08:53:13Z</time>
      </trkpt>
      <trkpt lat="44.84253" lon="1.62547">
        <ele>191</ele>
        <time>2022-08-07T08:53:15Z</time>
      </trkpt>
      <trkpt lat="44.84247" lon="1.62546">
        <ele>191.2</ele>
        <time>2022-08-07T08:53:17Z</time>
      </trkpt>
      <trkpt lat="44.8424" lon="1.62544">
        <ele>191.3</ele>
        <time>2022-08-07T08:53:19Z</time>
      </trkpt>
      <trkpt lat="44.84233" lon="1.62542">
        <ele>191.4</ele>
        <time>2022-08-07T08:53:21Z</time>
      </trkpt>
      <trkpt lat="44.84226" lon="1.6254">
        <ele>191.5</ele>
        <time>2022-08-07T08:53:23Z</time>
      </trkpt>
      <trkpt lat="44.84219" lon="1.62539">
        <ele>191.6</ele>
        <time>2022-08-07T08:53:25Z</time>
      </trkpt>
      <trkpt lat="44.84212" lon="1.62537">
        <ele>191.7</ele>
        <time>2022-08-07T08:53:27Z</time>
      </trkpt>
      <trkpt lat="44.84206" lon="1.62536">
        <ele>191.8</ele>
        <time>2022-08-07T08:53:29Z</time>
      </trkpt>
      <trkpt lat="44.84199" lon="1.62534">
        <ele>191.8</ele>
        <time>2022-08-07T08:53:31Z</time>
      </trkpt>
      <trkpt lat="44.84192" lon="1.62532">
        <ele>191.9</ele>
        <time>2022-08-07T08:53:33Z</time>
      </trkpt>
      <trkpt lat="44.84184" lon="1.62532">
        <ele>192</ele>
        <time>2022-08-07T08:53:35Z</time>
      </trkpt>
      <trkpt lat="44.84177" lon="1.62531">
        <ele>192.1</ele>
        <time>2022-08-07T08:53:37Z</time>
      </trkpt>
      <trkpt lat="44.8417" lon="1.6253">
        <ele>192.1</ele>
        <time>2022-08-07T08:53:39Z</time>
      </trkpt>
      <trkpt lat="44.84162" lon="1.62531">
        <ele>192.3</ele>
        <time>2022-08-07T08:53:41Z</time>
      </trkpt>
      <trkpt lat="44.84155" lon="1.62532">
        <ele>192.4</ele>
        <time>2022-08-07T08:53:43Z</time>
      </trkpt>
      <trkpt lat="44.84148" lon="1.62533">
        <ele>192.6</ele>
        <time>2022-08-07T08:53:45Z</time>
      </trkpt>
      <trkpt lat="44.84141" lon="1.62535">
        <ele>192.7</ele>
        <time>2022-08-07T08:53:47Z</time>
      </trkpt>
      <trkpt lat="44.84134" lon="1.62537">
        <ele>193</ele>
        <time>2022-08-07T08:53:49Z</time>
      </trkpt>
      <trkpt lat="44.84126" lon="1.62539">
        <ele>193.3</ele>
        <time>2022-08-07T08:53:51Z</time>
      </trkpt>
      <trkpt lat="44.84119" lon="1.62542">
        <ele>193.6</ele>
        <time>2022-08-07T08:53:53Z</time>
      </trkpt>
      <trkpt lat="44.84112" lon="1.62544">
        <ele>193.8</ele>
        <time>2022-08-07T08:53:55Z</time>
      </trkpt>
      <trkpt lat="44.84104" lon="1.62545">
        <ele>194.1</ele>
        <time>2022-08-07T08:53:57Z</time>
      </trkpt>
      <trkpt lat="44.84096" lon="1.62546">
        <ele>194.3</ele>
        <time>2022-08-07T08:53:59Z</time>
      </trkpt>
      <trkpt lat="44.84089" lon="1.62546">
        <ele>194.3</ele>
        <time>2022-08-07T08:54:01Z</time>
      </trkpt>
      <trkpt lat="44.84081" lon="1.62546">
        <ele>194.3</ele>
        <time>2022-08-07T08:54:03Z</time>
      </trkpt>
      <trkpt lat="44.84074" lon="1.62545">
        <ele>194</ele>
        <time>2022-08-07T08:54:05Z</time>
      </trkpt>
      <trkpt lat="44.84067" lon="1.62543">
        <ele>193.7</ele>
        <time>2022-08-07T08:54:07Z</time>
      </trkpt>
      <trkpt lat="44.8406" lon="1.62541">
        <ele>193.4</ele>
        <time>2022-08-07T08:54:09Z</time>
      </trkpt>
      <trkpt lat="44.84053" lon="1.62539">
        <ele>193.1</ele>
        <time>2022-08-07T08:54:11Z</time>
      </trkpt>
      <trkpt lat="44.84046" lon="1.62539">
        <ele>192.9</ele>
        <time>2022-08-07T08:54:13Z</time>
      </trkpt>
      <trkpt lat="44.84039" lon="1.62539">
        <ele>192.8</ele>
        <time>2022-08-07T08:54:15Z</time>
      </trkpt>
      <trkpt lat="44.84033" lon="1.6254">
        <ele>192.7</ele>
        <time>2022-08-07T08:54:17Z</time>
      </trkpt>
      <trkpt lat="44.84026" lon="1.62542">
        <ele>192.6</ele>
        <time>2022-08-07T08:54:19Z</time>
      </trkpt>
      <trkpt lat="44.8402" lon="1.62545">
        <ele>192.6</ele>
        <time>2022-08-07T08:54:21Z</time>
      </trkpt>
      <trkpt lat="44.84014" lon="1.6255">
        <ele>192.6</ele>
        <time>2022-08-07T08:54:23Z</time>
      </trkpt>
      <trkpt lat="44.84008" lon="1.62555">
        <ele>192.6</ele>
        <time>2022-08-07T08:54:25Z</time>
      </trkpt>
      <trkpt lat="44.84003" lon="1.62562">
        <ele>192.6</ele>
        <time>2022-08-07T08:54:27Z</time>
      </trkpt>
      <trkpt lat="44.83997" lon="1.62568">
        <ele>192.7</ele>
        <time>2022-08-07T08:54:29Z</time>
      </trkpt>
      <trkpt lat="44.83992" lon="1.62575">
        <ele>193.1</ele>
        <time>2022-08-07T08:54:31Z</time>
      </trkpt>
      <trkpt lat="44.83986" lon="1.62581">
        <ele>193.3</ele>
        <time>2022-08-07T08:54:33Z</time>
      </trkpt>
      <trkpt lat="44.83981" lon="1.62587">
        <ele>194.2</ele>
        <time>2022-08-07T08:54:35Z</time>
      </trkpt>
      <trkpt lat="44.83975" lon="1.62591">
        <ele>195.3</ele>
        <time>2022-08-07T08:54:37Z</time>
      </trkpt>
      <trkpt lat="44.83968" lon="1.62594">
        <ele>196.2</ele>
        <time>2022-08-07T08:54:39Z</time>
      </trkpt>
      <trkpt lat="44.83963" lon="1.62596">
        <ele>196.9</ele>
        <time>2022-08-07T08:54:41Z</time>
      </trkpt>
      <trkpt lat="44.83955" lon="1.62597">
        <ele>197.1</ele>
        <time>2022-08-07T08:54:43Z</time>
      </trkpt>
      <trkpt lat="44.83949" lon="1.62598">
        <ele>197.4</ele>
        <time>2022-08-07T08:54:45Z</time>
      </trkpt>
      <trkpt lat="44.83942" lon="1.62598">
        <ele>197.4</ele>
        <time>2022-08-07T08:54:47Z</time>
      </trkpt>
      <trkpt lat="44.83936" lon="1.62597">
        <ele>197.3</ele>
        <time>2022-08-07T08:54:49Z</time>
      </trkpt>
      <trkpt lat="44.83929" lon="1.62596">
        <ele>197.3</ele>
        <time>2022-08-07T08:54:51Z</time>
      </trkpt>
      <trkpt lat="44.83922" lon="1.62595">
        <ele>197.1</ele>
        <time>2022-08-07T08:54:53Z</time>
      </trkpt>
      <trkpt lat="44.83916" lon="1.62593">
        <ele>196.9</ele>
        <time>2022-08-07T08:54:55Z</time>
      </trkpt>
      <trkpt lat="44.83909" lon="1.62591">
        <ele>196.9</ele>
        <time>2022-08-07T08:54:57Z</time>
      </trkpt>
      <trkpt lat="44.83903" lon="1.6259">
        <ele>197</ele>
        <time>2022-08-07T08:54:59Z</time>
      </trkpt>
      <trkpt lat="44.83896" lon="1.62588">
        <ele>197</ele>
        <time>2022-08-07T08:55:01Z</time>
      </trkpt>
      <trkpt lat="44.83889" lon="1.62587">
        <ele>197</ele>
        <time>2022-08-07T08:55:03Z</time>
      </trkpt>
      <trkpt lat="44.83883" lon="1.62586">
        <ele>197.2</ele>
        <time>2022-08-07T08:55:05Z</time>
      </trkpt>
      <trkpt lat="44.83876" lon="1.62585">
        <ele>197.3</ele>
        <time>2022-08-07T08:55:07Z</time>
      </trkpt>
      <trkpt lat="44.83869" lon="1.62583">
        <ele>197.3</ele>
        <time>2022-08-07T08:55:09Z</time>
      </trkpt>
      <trkpt lat="44.83862" lon="1.62581">
        <ele>197.7</ele>
        <time>2022-08-07T08:55:11Z</time>
      </trkpt>
      <trkpt lat="44.83854" lon="1.62579">
        <ele>198.1</ele>
        <time>2022-08-07T08:55:13Z</time>
      </trkpt>
      <trkpt lat="44.83847" lon="1.62576">
        <ele>198.5</ele>
        <time>2022-08-07T08:55:15Z</time>
      </trkpt>
      <trkpt lat="44.8384" lon="1.62572">
        <ele>198.8</ele>
        <time>2022-08-07T08:55:17Z</time>
      </trkpt>
      <trkpt lat="44.83833" lon="1.62567">
        <ele>199.2</ele>
        <time>2022-08-07T08:55:19Z</time>
      </trkpt>
      <trkpt lat="44.83827" lon="1.62562">
        <ele>199.6</ele>
        <time>2022-08-07T08:55:21Z</time>
      </trkpt>
      <trkpt lat="44.83821" lon="1.62556">
        <ele>199.9</ele>
        <time>2022-08-07T08:55:23Z</time>
      </trkpt>
      <trkpt lat="44.83815" lon="1.6255">
        <ele>200.2</ele>
        <time>2022-08-07T08:55:25Z</time>
      </trkpt>
      <trkpt lat="44.83809" lon="1.62544">
        <ele>200.4</ele>
        <time>2022-08-07T08:55:27Z</time>
      </trkpt>
      <trkpt lat="44.83802" lon="1.62539">
        <ele>200.6</ele>
        <time>2022-08-07T08:55:29Z</time>
      </trkpt>
      <trkpt lat="44.83796" lon="1.62534">
        <ele>200.7</ele>
        <time>2022-08-07T08:55:31Z</time>
      </trkpt>
      <trkpt lat="44.83789" lon="1.6253">
        <ele>200.8</ele>
        <time>2022-08-07T08:55:33Z</time>
      </trkpt>
      <trkpt lat="44.83783" lon="1.62527">
        <ele>200.9</ele>
        <time>2022-08-07T08:55:35Z</time>
      </trkpt>
      <trkpt lat="44.83776" lon="1.62526">
        <ele>201</ele>
        <time>2022-08-07T08:55:37Z</time>
      </trkpt>
      <trkpt lat="44.83769" lon="1.62524">
        <ele>201.1</ele>
        <time>2022-08-07T08:55:39Z</time>
      </trkpt>
      <trkpt lat="44.83761" lon="1.62524">
        <ele>201.2</ele>
        <time>2022-08-07T08:55:41Z</time>
      </trkpt>
      <trkpt lat="44.83754" lon="1.62525">
        <ele>201.4</ele>
        <time>2022-08-07T08:55:43Z</time>
      </trkpt>
      <trkpt lat="44.83745" lon="1.62526">
        <ele>202</ele>
        <time>2022-08-07T08:55:45Z</time>
      </trkpt>
      <trkpt lat="44.83738" lon="1.62528">
        <ele>202.6</ele>
        <time>2022-08-07T08:55:47Z</time>
      </trkpt>
      <trkpt lat="44.83731" lon="1.62531">
        <ele>203.2</ele>
        <time>2022-08-07T08:55:49Z</time>
      </trkpt>
      <trkpt lat="44.83724" lon="1.62535">
        <ele>203.6</ele>
        <time>2022-08-07T08:55:51Z</time>
      </trkpt>
      <trkpt lat="44.83717" lon="1.6254">
        <ele>203.9</ele>
        <time>2022-08-07T08:55:53Z</time>
      </trkpt>
      <trkpt lat="44.83711" lon="1.62547">
        <ele>204</ele>
        <time>2022-08-07T08:55:55Z</time>
      </trkpt>
      <trkpt lat="44.83703" lon="1.62553">
        <ele>203.9</ele>
        <time>2022-08-07T08:55:57Z</time>
      </trkpt>
      <trkpt lat="44.83697" lon="1.62558">
        <ele>203.6</ele>
        <time>2022-08-07T08:55:59Z</time>
      </trkpt>
      <trkpt lat="44.8369" lon="1.62564">
        <ele>203.1</ele>
        <time>2022-08-07T08:56:01Z</time>
      </trkpt>
      <trkpt lat="44.83684" lon="1.6257">
        <ele>202.4</ele>
        <time>2022-08-07T08:56:03Z</time>
      </trkpt>
      <trkpt lat="44.83677" lon="1.62576">
        <ele>201.5</ele>
        <time>2022-08-07T08:56:05Z</time>
      </trkpt>
      <trkpt lat="44.8367" lon="1.62582">
        <ele>200.4</ele>
        <time>2022-08-07T08:56:07Z</time>
      </trkpt>
      <trkpt lat="44.83663" lon="1.62587">
        <ele>201.2</ele>
        <time>2022-08-07T08:56:09Z</time>
      </trkpt>
      <trkpt lat="44.83655" lon="1.62593">
        <ele>203</ele>
        <time>2022-08-07T08:56:11Z</time>
      </trkpt>
      <trkpt lat="44.83648" lon="1.62598">
        <ele>204.5</ele>
        <time>2022-08-07T08:56:13Z</time>
      </trkpt>
      <trkpt lat="44.83641" lon="1.62604">
        <ele>205.8</ele>
        <time>2022-08-07T08:56:15Z</time>
      </trkpt>
      <trkpt lat="44.83634" lon="1.62611">
        <ele>206.8</ele>
        <time>2022-08-07T08:56:17Z</time>
      </trkpt>
      <trkpt lat="44.83628" lon="1.62618">
        <ele>207.5</ele>
        <time>2022-08-07T08:56:19Z</time>
      </trkpt>
      <trkpt lat="44.83622" lon="1.62625">
        <ele>207.8</ele>
        <time>2022-08-07T08:56:21Z</time>
      </trkpt>
      <trkpt lat="44.83617" lon="1.62634">
        <ele>207.9</ele>
        <time>2022-08-07T08:56:23Z</time>
      </trkpt>
      <trkpt lat="44.83613" lon="1.62643">
        <ele>207.7</ele>
        <time>2022-08-07T08:56:25Z</time>
      </trkpt>
      <trkpt lat="44.83609" lon="1.62652">
        <ele>207.3</ele>
        <time>2022-08-07T08:56:27Z</time>
      </trkpt>
      <trkpt lat="44.83606" lon="1.62662">
        <ele>206.7</ele>
        <time>2022-08-07T08:56:29Z</time>
      </trkpt>
      <trkpt lat="44.83604" lon="1.62672">
        <ele>206.7</ele>
        <time>2022-08-07T08:56:31Z</time>
      </trkpt>
      <trkpt lat="44.83602" lon="1.62683">
        <ele>207.2</ele>
        <time>2022-08-07T08:56:33Z</time>
      </trkpt>
      <trkpt lat="44.836" lon="1.62693">
        <ele>207.5</ele>
        <time>2022-08-07T08:56:35Z</time>
      </trkpt>
      <trkpt lat="44.83598" lon="1.62704">
        <ele>207.9</ele>
        <time>2022-08-07T08:56:37Z</time>
      </trkpt>
      <trkpt lat="44.83596" lon="1.62714">
        <ele>208.1</ele>
        <time>2022-08-07T08:56:39Z</time>
      </trkpt>
      <trkpt lat="44.83594" lon="1.62724">
        <ele>208.3</ele>
        <time>2022-08-07T08:56:41Z</time>
      </trkpt>
      <trkpt lat="44.83591" lon="1.62734">
        <ele>208.3</ele>
        <time>2022-08-07T08:56:43Z</time>
      </trkpt>
      <trkpt lat="44.83589" lon="1.62744">
        <ele>208.2</ele>
        <time>2022-08-07T08:56:45Z</time>
      </trkpt>
      <trkpt lat="44.83586" lon="1.62754">
        <ele>208</ele>
        <time>2022-08-07T08:56:47Z</time>
      </trkpt>
      <trkpt lat="44.83584" lon="1.62762">
        <ele>207.9</ele>
        <time>2022-08-07T08:56:49Z</time>
      </trkpt>
      <trkpt lat="44.8358" lon="1.62771">
        <ele>208.7</ele>
        <time>2022-08-07T08:56:51Z</time>
      </trkpt>
      <trkpt lat="44.83577" lon="1.6278">
        <ele>209.4</ele>
        <time>2022-08-07T08:56:53Z</time>
      </trkpt>
      <trkpt lat="44.83573" lon="1.62789">
        <ele>209.9</ele>
        <time>2022-08-07T08:56:55Z</time>
      </trkpt>
      <trkpt lat="44.8357" lon="1.62798">
        <ele>210.3</ele>
        <time>2022-08-07T08:56:57Z</time>
      </trkpt>
      <trkpt lat="44.83567" lon="1.62806">
        <ele>210.5</ele>
        <time>2022-08-07T08:56:59Z</time>
      </trkpt>
      <trkpt lat="44.83564" lon="1.62814">
        <ele>210.7</ele>
        <time>2022-08-07T08:57:01Z</time>
      </trkpt>
      <trkpt lat="44.83562" lon="1.62822">
        <ele>210.7</ele>
        <time>2022-08-07T08:57:03Z</time>
      </trkpt>
      <trkpt lat="44.83559" lon="1.62831">
        <ele>210.7</ele>
        <time>2022-08-07T08:57:05Z</time>
      </trkpt>
      <trkpt lat="44.83557" lon="1.6284">
        <ele>211</ele>
        <time>2022-08-07T08:57:07Z</time>
      </trkpt>
      <trkpt lat="44.83555" lon="1.62849">
        <ele>211.4</ele>
        <time>2022-08-07T08:57:09Z</time>
      </trkpt>
      <trkpt lat="44.83552" lon="1.62858">
        <ele>211.8</ele>
        <time>2022-08-07T08:57:11Z</time>
      </trkpt>
      <trkpt lat="44.8355" lon="1.62867">
        <ele>212.3</ele>
        <time>2022-08-07T08:57:13Z</time>
      </trkpt>
      <trkpt lat="44.83548" lon="1.62876">
        <ele>212.6</ele>
        <time>2022-08-07T08:57:15Z</time>
      </trkpt>
      <trkpt lat="44.83546" lon="1.62885">
        <ele>213</ele>
        <time>2022-08-07T08:57:17Z</time>
      </trkpt>
      <trkpt lat="44.83544" lon="1.62894">
        <ele>213.3</ele>
        <time>2022-08-07T08:57:19Z</time>
      </trkpt>
      <trkpt lat="44.83542" lon="1.62903">
        <ele>213.6</ele>
        <time>2022-08-07T08:57:21Z</time>
      </trkpt>
      <trkpt lat="44.83539" lon="1.62912">
        <ele>213.9</ele>
        <time>2022-08-07T08:57:23Z</time>
      </trkpt>
      <trkpt lat="44.83539" lon="1.62921">
        <ele>214.2</ele>
        <time>2022-08-07T08:57:25Z</time>
      </trkpt>
      <trkpt lat="44.83537" lon="1.6293">
        <ele>214.2</ele>
        <time>2022-08-07T08:57:27Z</time>
      </trkpt>
      <trkpt lat="44.83537" lon="1.62939">
        <ele>214.4</ele>
        <time>2022-08-07T08:57:29Z</time>
      </trkpt>
      <trkpt lat="44.83537" lon="1.62949">
        <ele>214.8</ele>
        <time>2022-08-07T08:57:31Z</time>
      </trkpt>
      <trkpt lat="44.83537" lon="1.62958">
        <ele>215.1</ele>
        <time>2022-08-07T08:57:33Z</time>
      </trkpt>
      <trkpt lat="44.83538" lon="1.62968">
        <ele>215.5</ele>
        <time>2022-08-07T08:57:35Z</time>
      </trkpt>
      <trkpt lat="44.83538" lon="1.62978">
        <ele>216</ele>
        <time>2022-08-07T08:57:37Z</time>
      </trkpt>
      <trkpt lat="44.83538" lon="1.62989">
        <ele>216.3</ele>
        <time>2022-08-07T08:57:39Z</time>
      </trkpt>
      <trkpt lat="44.83537" lon="1.62999">
        <ele>216.4</ele>
        <time>2022-08-07T08:57:41Z</time>
      </trkpt>
      <trkpt lat="44.83536" lon="1.63008">
        <ele>216.2</ele>
        <time>2022-08-07T08:57:43Z</time>
      </trkpt>
      <trkpt lat="44.83533" lon="1.63018">
        <ele>216</ele>
        <time>2022-08-07T08:57:45Z</time>
      </trkpt>
      <trkpt lat="44.8353" lon="1.63027">
        <ele>215.4</ele>
        <time>2022-08-07T08:57:47Z</time>
      </trkpt>
      <trkpt lat="44.83526" lon="1.63035">
        <ele>214.7</ele>
        <time>2022-08-07T08:57:49Z</time>
      </trkpt>
      <trkpt lat="44.83523" lon="1.63043">
        <ele>214.3</ele>
        <time>2022-08-07T08:57:51Z</time>
      </trkpt>
      <trkpt lat="44.8352" lon="1.63051">
        <ele>213.7</ele>
        <time>2022-08-07T08:57:53Z</time>
      </trkpt>
      <trkpt lat="44.83516" lon="1.63058">
        <ele>212.9</ele>
        <time>2022-08-07T08:57:55Z</time>
      </trkpt>
      <trkpt lat="44.83511" lon="1.63064">
        <ele>212</ele>
        <time>2022-08-07T08:57:57Z</time>
      </trkpt>
      <trkpt lat="44.83506" lon="1.63071">
        <ele>210.9</ele>
        <time>2022-08-07T08:57:59Z</time>
      </trkpt>
      <trkpt lat="44.835" lon="1.63076">
        <ele>209.7</ele>
        <time>2022-08-07T08:58:01Z</time>
      </trkpt>
      <trkpt lat="44.83493" lon="1.63079">
        <ele>209.6</ele>
        <time>2022-08-07T08:58:03Z</time>
      </trkpt>
      <trkpt lat="44.83487" lon="1.63082">
        <ele>209.5</ele>
        <time>2022-08-07T08:58:05Z</time>
      </trkpt>
      <trkpt lat="44.8348" lon="1.63084">
        <ele>209.4</ele>
        <time>2022-08-07T08:58:07Z</time>
      </trkpt>
      <trkpt lat="44.83474" lon="1.63086">
        <ele>209.4</ele>
        <time>2022-08-07T08:58:09Z</time>
      </trkpt>
      <trkpt lat="44.83468" lon="1.63088">
        <ele>209.4</ele>
        <time>2022-08-07T08:58:11Z</time>
      </trkpt>
      <trkpt lat="44.83461" lon="1.63091">
        <ele>209.5</ele>
        <time>2022-08-07T08:58:13Z</time>
      </trkpt>
      <trkpt lat="44.83455" lon="1.63093">
        <ele>209.5</ele>
        <time>2022-08-07T08:58:15Z</time>
      </trkpt>
      <trkpt lat="44.83449" lon="1.63095">
        <ele>209.6</ele>
        <time>2022-08-07T08:58:17Z</time>
      </trkpt>
      <trkpt lat="44.83443" lon="1.63098">
        <ele>209.6</ele>
        <time>2022-08-07T08:58:19Z</time>
      </trkpt>
      <trkpt lat="44.83436" lon="1.63101">
        <ele>209.6</ele>
        <time>2022-08-07T08:58:21Z</time>
      </trkpt>
      <trkpt lat="44.8343" lon="1.63104">
        <ele>209.6</ele>
        <time>2022-08-07T08:58:23Z</time>
      </trkpt>
      <trkpt lat="44.83424" lon="1.63107">
        <ele>209.7</ele>
        <time>2022-08-07T08:58:25Z</time>
      </trkpt>
      <trkpt lat="44.83417" lon="1.63111">
        <ele>209.7</ele>
        <time>2022-08-07T08:58:27Z</time>
      </trkpt>
      <trkpt lat="44.83411" lon="1.63116">
        <ele>210.5</ele>
        <time>2022-08-07T08:58:29Z</time>
      </trkpt>
      <trkpt lat="44.83406" lon="1.63121">
        <ele>211.3</ele>
        <time>2022-08-07T08:58:31Z</time>
      </trkpt>
      <trkpt lat="44.834" lon="1.63127">
        <ele>212</ele>
        <time>2022-08-07T08:58:33Z</time>
      </trkpt>
      <trkpt lat="44.83395" lon="1.63132">
        <ele>212.5</ele>
        <time>2022-08-07T08:58:35Z</time>
      </trkpt>
      <trkpt lat="44.8339" lon="1.63139">
        <ele>212.9</ele>
        <time>2022-08-07T08:58:37Z</time>
      </trkpt>
      <trkpt lat="44.83386" lon="1.63146">
        <ele>213.1</ele>
        <time>2022-08-07T08:58:39Z</time>
      </trkpt>
      <trkpt lat="44.83382" lon="1.63154">
        <ele>213.2</ele>
        <time>2022-08-07T08:58:41Z</time>
      </trkpt>
      <trkpt lat="44.83378" lon="1.63162">
        <ele>213.1</ele>
        <time>2022-08-07T08:58:43Z</time>
      </trkpt>
      <trkpt lat="44.83374" lon="1.6317">
        <ele>213.2</ele>
        <time>2022-08-07T08:58:45Z</time>
      </trkpt>
      <trkpt lat="44.83372" lon="1.63178">
        <ele>213.8</ele>
        <time>2022-08-07T08:58:47Z</time>
      </trkpt>
      <trkpt lat="44.83369" lon="1.63186">
        <ele>214.3</ele>
        <time>2022-08-07T08:58:49Z</time>
      </trkpt>
      <trkpt lat="44.83366" lon="1.63195">
        <ele>214.7</ele>
        <time>2022-08-07T08:58:51Z</time>
      </trkpt>
      <trkpt lat="44.83363" lon="1.63203">
        <ele>214.9</ele>
        <time>2022-08-07T08:58:53Z</time>
      </trkpt>
      <trkpt lat="44.83361" lon="1.63212">
        <ele>215.2</ele>
        <time>2022-08-07T08:58:55Z</time>
      </trkpt>
      <trkpt lat="44.83359" lon="1.6322">
        <ele>215.4</ele>
        <time>2022-08-07T08:58:57Z</time>
      </trkpt>
      <trkpt lat="44.83356" lon="1.63228">
        <ele>215.5</ele>
        <time>2022-08-07T08:58:59Z</time>
      </trkpt>
      <trkpt lat="44.83354" lon="1.63236">
        <ele>215.5</ele>
        <time>2022-08-07T08:59:01Z</time>
      </trkpt>
      <trkpt lat="44.83352" lon="1.63244">
        <ele>215.5</ele>
        <time>2022-08-07T08:59:03Z</time>
      </trkpt>
      <trkpt lat="44.83349" lon="1.63252">
        <ele>215.3</ele>
        <time>2022-08-07T08:59:05Z</time>
      </trkpt>
      <trkpt lat="44.83347" lon="1.6326">
        <ele>215.9</ele>
        <time>2022-08-07T08:59:07Z</time>
      </trkpt>
      <trkpt lat="44.83344" lon="1.63268">
        <ele>216.1</ele>
        <time>2022-08-07T08:59:09Z</time>
      </trkpt>
      <trkpt lat="44.83342" lon="1.63277">
        <ele>216.4</ele>
        <time>2022-08-07T08:59:11Z</time>
      </trkpt>
      <trkpt lat="44.83339" lon="1.63285">
        <ele>216.5</ele>
        <time>2022-08-07T08:59:13Z</time>
      </trkpt>
      <trkpt lat="44.83336" lon="1.63292">
        <ele>216.6</ele>
        <time>2022-08-07T08:59:15Z</time>
      </trkpt>
      <trkpt lat="44.83333" lon="1.633">
        <ele>216.8</ele>
        <time>2022-08-07T08:59:17Z</time>
      </trkpt>
      <trkpt lat="44.83329" lon="1.63307">
        <ele>217.5</ele>
        <time>2022-08-07T08:59:19Z</time>
      </trkpt>
      <trkpt lat="44.83326" lon="1.63315">
        <ele>218.1</ele>
        <time>2022-08-07T08:59:21Z</time>
      </trkpt>
      <trkpt lat="44.83322" lon="1.63322">
        <ele>218.5</ele>
        <time>2022-08-07T08:59:23Z</time>
      </trkpt>
      <trkpt lat="44.83318" lon="1.6333">
        <ele>218.9</ele>
        <time>2022-08-07T08:59:25Z</time>
      </trkpt>
      <trkpt lat="44.83314" lon="1.63337">
        <ele>219.4</ele>
        <time>2022-08-07T08:59:27Z</time>
      </trkpt>
      <trkpt lat="44.8331" lon="1.63343">
        <ele>220</ele>
        <time>2022-08-07T08:59:29Z</time>
      </trkpt>
      <trkpt lat="44.83305" lon="1.63349">
        <ele>220.6</ele>
        <time>2022-08-07T08:59:31Z</time>
      </trkpt>
      <trkpt lat="44.833" lon="1.63355">
        <ele>221</ele>
        <time>2022-08-07T08:59:33Z</time>
      </trkpt>
      <trkpt lat="44.83294" lon="1.63361">
        <ele>221.4</ele>
        <time>2022-08-07T08:59:35Z</time>
      </trkpt>
      <trkpt lat="44.83289" lon="1.63366">
        <ele>221.6</ele>
        <time>2022-08-07T08:59:37Z</time>
      </trkpt>
      <trkpt lat="44.83284" lon="1.6337">
        <ele>221.6</ele>
        <time>2022-08-07T08:59:39Z</time>
      </trkpt>
      <trkpt lat="44.83279" lon="1.63374">
        <ele>221.6</ele>
        <time>2022-08-07T08:59:41Z</time>
      </trkpt>
      <trkpt lat="44.83273" lon="1.63377">
        <ele>221.4</ele>
        <time>2022-08-07T08:59:43Z</time>
      </trkpt>
      <trkpt lat="44.83267" lon="1.6338">
        <ele>221.2</ele>
        <time>2022-08-07T08:59:45Z</time>
      </trkpt>
      <trkpt lat="44.83261" lon="1.63382">
        <ele>220.9</ele>
        <time>2022-08-07T08:59:47Z</time>
      </trkpt>
      <trkpt lat="44.83255" lon="1.63386">
        <ele>220.6</ele>
        <time>2022-08-07T08:59:49Z</time>
      </trkpt>
      <trkpt lat="44.83249" lon="1.63388">
        <ele>220.3</ele>
        <time>2022-08-07T08:59:51Z</time>
      </trkpt>
      <trkpt lat="44.83243" lon="1.63391">
        <ele>220.7</ele>
        <time>2022-08-07T08:59:53Z</time>
      </trkpt>
      <trkpt lat="44.83236" lon="1.63393">
        <ele>221.2</ele>
        <time>2022-08-07T08:59:55Z</time>
      </trkpt>
      <trkpt lat="44.83229" lon="1.63396">
        <ele>221.6</ele>
        <time>2022-08-07T08:59:57Z</time>
      </trkpt>
      <trkpt lat="44.83223" lon="1.63397">
        <ele>221.9</ele>
        <time>2022-08-07T08:59:59Z</time>
      </trkpt>
      <trkpt lat="44.83216" lon="1.63398">
        <ele>222.2</ele>
        <time>2022-08-07T09:00:01Z</time>
      </trkpt>
      <trkpt lat="44.8321" lon="1.63398">
        <ele>222.4</ele>
        <time>2022-08-07T09:00:03Z</time>
      </trkpt>
      <trkpt lat="44.83203" lon="1.63396">
        <ele>222.4</ele>
        <time>2022-08-07T09:00:05Z</time>
      </trkpt>
      <trkpt lat="44.83196" lon="1.63394">
        <ele>222.5</ele>
        <time>2022-08-07T09:00:07Z</time>
      </trkpt>
      <trkpt lat="44.83189" lon="1.63392">
        <ele>222.5</ele>
        <time>2022-08-07T09:00:09Z</time>
      </trkpt>
      <trkpt lat="44.83183" lon="1.63389">
        <ele>222.5</ele>
        <time>2022-08-07T09:00:11Z</time>
      </trkpt>
      <trkpt lat="44.83176" lon="1.63386">
        <ele>222.5</ele>
        <time>2022-08-07T09:00:13Z</time>
      </trkpt>
      <trkpt lat="44.83169" lon="1.63383">
        <ele>222.5</ele>
        <time>2022-08-07T09:00:15Z</time>
      </trkpt>
      <trkpt lat="44.83162" lon="1.6338">
        <ele>222.5</ele>
        <time>2022-08-07T09:00:17Z</time>
      </trkpt>
      <trkpt lat="44.83155" lon="1.63377">
        <ele>222.6</ele>
        <time>2022-08-07T09:00:19Z</time>
      </trkpt>
      <trkpt lat="44.83149" lon="1.63374">
        <ele>222.5</ele>
        <time>2022-08-07T09:00:21Z</time>
      </trkpt>
      <trkpt lat="44.83142" lon="1.63371">
        <ele>222.5</ele>
        <time>2022-08-07T09:00:23Z</time>
      </trkpt>
      <trkpt lat="44.83135" lon="1.63367">
        <ele>222.5</ele>
        <time>2022-08-07T09:00:25Z</time>
      </trkpt>
      <trkpt lat="44.83129" lon="1.63365">
        <ele>222.4</ele>
        <time>2022-08-07T09:00:27Z</time>
      </trkpt>
      <trkpt lat="44.83123" lon="1.63362">
        <ele>222.3</ele>
        <time>2022-08-07T09:00:29Z</time>
      </trkpt>
      <trkpt lat="44.83116" lon="1.63359">
        <ele>222.2</ele>
        <time>2022-08-07T09:00:31Z</time>
      </trkpt>
      <trkpt lat="44.83109" lon="1.63356">
        <ele>222.1</ele>
        <time>2022-08-07T09:00:33Z</time>
      </trkpt>
      <trkpt lat="44.83103" lon="1.63354">
        <ele>222</ele>
        <time>2022-08-07T09:00:35Z</time>
      </trkpt>
      <trkpt lat="44.83096" lon="1.63352">
        <ele>222</ele>
        <time>2022-08-07T09:00:37Z</time>
      </trkpt>
      <trkpt lat="44.83088" lon="1.63352">
        <ele>222.1</ele>
        <time>2022-08-07T09:00:39Z</time>
      </trkpt>
      <trkpt lat="44.83081" lon="1.63351">
        <ele>222.2</ele>
        <time>2022-08-07T09:00:41Z</time>
      </trkpt>
      <trkpt lat="44.83074" lon="1.63351">
        <ele>222.4</ele>
        <time>2022-08-07T09:00:43Z</time>
      </trkpt>
      <trkpt lat="44.83067" lon="1.63352">
        <ele>222.7</ele>
        <time>2022-08-07T09:00:45Z</time>
      </trkpt>
      <trkpt lat="44.83059" lon="1.63353">
        <ele>223.1</ele>
        <time>2022-08-07T09:00:47Z</time>
      </trkpt>
      <trkpt lat="44.83052" lon="1.63355">
        <ele>223.5</ele>
        <time>2022-08-07T09:00:49Z</time>
      </trkpt>
      <trkpt lat="44.83045" lon="1.63358">
        <ele>223.8</ele>
        <time>2022-08-07T09:00:51Z</time>
      </trkpt>
      <trkpt lat="44.83038" lon="1.6336">
        <ele>224.2</ele>
        <time>2022-08-07T09:00:53Z</time>
      </trkpt>
      <trkpt lat="44.83031" lon="1.63363">
        <ele>224.5</ele>
        <time>2022-08-07T09:00:55Z</time>
      </trkpt>
      <trkpt lat="44.83024" lon="1.63366">
        <ele>224.8</ele>
        <time>2022-08-07T09:00:57Z</time>
      </trkpt>
      <trkpt lat="44.83017" lon="1.6337">
        <ele>225.1</ele>
        <time>2022-08-07T09:00:59Z</time>
      </trkpt>
      <trkpt lat="44.8301" lon="1.63374">
        <ele>225.4</ele>
        <time>2022-08-07T09:01:01Z</time>
      </trkpt>
      <trkpt lat="44.83003" lon="1.63378">
        <ele>225.6</ele>
        <time>2022-08-07T09:01:03Z</time>
      </trkpt>
      <trkpt lat="44.82997" lon="1.63382">
        <ele>225.8</ele>
        <time>2022-08-07T09:01:05Z</time>
      </trkpt>
      <trkpt lat="44.8299" lon="1.63386">
        <ele>225.9</ele>
        <time>2022-08-07T09:01:07Z</time>
      </trkpt>
      <trkpt lat="44.82984" lon="1.63391">
        <ele>226</ele>
        <time>2022-08-07T09:01:09Z</time>
      </trkpt>
      <trkpt lat="44.82977" lon="1.63396">
        <ele>225.9</ele>
        <time>2022-08-07T09:01:11Z</time>
      </trkpt>
      <trkpt lat="44.82971" lon="1.63401">
        <ele>225.8</ele>
        <time>2022-08-07T09:01:13Z</time>
      </trkpt>
      <trkpt lat="44.82965" lon="1.63408">
        <ele>225.5</ele>
        <time>2022-08-07T09:01:15Z</time>
      </trkpt>
      <trkpt lat="44.8296" lon="1.63415">
        <ele>225.1</ele>
        <time>2022-08-07T09:01:17Z</time>
      </trkpt>
      <trkpt lat="44.82954" lon="1.63423">
        <ele>225.4</ele>
        <time>2022-08-07T09:01:19Z</time>
      </trkpt>
      <trkpt lat="44.8295" lon="1.63432">
        <ele>225.9</ele>
        <time>2022-08-07T09:01:21Z</time>
      </trkpt>
      <trkpt lat="44.82947" lon="1.63442">
        <ele>226.4</ele>
        <time>2022-08-07T09:01:23Z</time>
      </trkpt>
      <trkpt lat="44.82946" lon="1.63452">
        <ele>227.1</ele>
        <time>2022-08-07T09:01:25Z</time>
      </trkpt>
      <trkpt lat="44.82944" lon="1.63462">
        <ele>227.8</ele>
        <time>2022-08-07T09:01:27Z</time>
      </trkpt>
      <trkpt lat="44.82944" lon="1.63473">
        <ele>228.5</ele>
        <time>2022-08-07T09:01:29Z</time>
      </trkpt>
      <trkpt lat="44.82943" lon="1.63484">
        <ele>229.3</ele>
        <time>2022-08-07T09:01:31Z</time>
      </trkpt>
      <trkpt lat="44.82943" lon="1.63495">
        <ele>230</ele>
        <time>2022-08-07T09:01:33Z</time>
      </trkpt>
      <trkpt lat="44.82942" lon="1.63506">
        <ele>230.6</ele>
        <time>2022-08-07T09:01:35Z</time>
      </trkpt>
      <trkpt lat="44.8294" lon="1.63516">
        <ele>231</ele>
        <time>2022-08-07T09:01:37Z</time>
      </trkpt>
      <trkpt lat="44.82939" lon="1.63527">
        <ele>231.4</ele>
        <time>2022-08-07T09:01:39Z</time>
      </trkpt>
      <trkpt lat="44.82937" lon="1.63537">
        <ele>231.6</ele>
        <time>2022-08-07T09:01:41Z</time>
      </trkpt>
      <trkpt lat="44.82934" lon="1.63547">
        <ele>231.5</ele>
        <time>2022-08-07T09:01:43Z</time>
      </trkpt>
      <trkpt lat="44.82931" lon="1.63556">
        <ele>231.4</ele>
        <time>2022-08-07T09:01:45Z</time>
      </trkpt>
      <trkpt lat="44.82928" lon="1.63565">
        <ele>231</ele>
        <time>2022-08-07T09:01:47Z</time>
      </trkpt>
      <trkpt lat="44.82924" lon="1.63575">
        <ele>230.6</ele>
        <time>2022-08-07T09:01:49Z</time>
      </trkpt>
      <trkpt lat="44.82921" lon="1.63583">
        <ele>230.1</ele>
        <time>2022-08-07T09:01:51Z</time>
      </trkpt>
      <trkpt lat="44.82917" lon="1.63591">
        <ele>229.7</ele>
        <time>2022-08-07T09:01:53Z</time>
      </trkpt>
      <trkpt lat="44.82913" lon="1.63599">
        <ele>230.2</ele>
        <time>2022-08-07T09:01:55Z</time>
      </trkpt>
      <trkpt lat="44.82908" lon="1.63606">
        <ele>230.7</ele>
        <time>2022-08-07T09:01:57Z</time>
      </trkpt>
      <trkpt lat="44.82903" lon="1.63614">
        <ele>231.1</ele>
        <time>2022-08-07T09:01:59Z</time>
      </trkpt>
      <trkpt lat="44.82898" lon="1.63619">
        <ele>231.3</ele>
        <time>2022-08-07T09:02:01Z</time>
      </trkpt>
      <trkpt lat="44.82891" lon="1.63625">
        <ele>231.4</ele>
        <time>2022-08-07T09:02:03Z</time>
      </trkpt>
      <trkpt lat="44.82883" lon="1.63629">
        <ele>231.3</ele>
        <time>2022-08-07T09:02:05Z</time>
      </trkpt>
      <trkpt lat="44.82876" lon="1.63629">
        <ele>231</ele>
        <time>2022-08-07T09:02:07Z</time>
      </trkpt>
      <trkpt lat="44.82868" lon="1.63629">
        <ele>230.7</ele>
        <time>2022-08-07T09:02:09Z</time>
      </trkpt>
      <trkpt lat="44.82861" lon="1.63628">
        <ele>230.3</ele>
        <time>2022-08-07T09:02:11Z</time>
      </trkpt>
      <trkpt lat="44.82855" lon="1.63626">
        <ele>229.9</ele>
        <time>2022-08-07T09:02:13Z</time>
      </trkpt>
      <trkpt lat="44.82848" lon="1.63624">
        <ele>229.6</ele>
        <time>2022-08-07T09:02:15Z</time>
      </trkpt>
      <trkpt lat="44.82842" lon="1.63622">
        <ele>229.3</ele>
        <time>2022-08-07T09:02:17Z</time>
      </trkpt>
      <trkpt lat="44.82836" lon="1.6362">
        <ele>229</ele>
        <time>2022-08-07T09:02:19Z</time>
      </trkpt>
      <trkpt lat="44.8283" lon="1.6362">
        <ele>229.2</ele>
        <time>2022-08-07T09:02:21Z</time>
      </trkpt>
      <trkpt lat="44.82824" lon="1.6362">
        <ele>229.8</ele>
        <time>2022-08-07T09:02:23Z</time>
      </trkpt>
      <trkpt lat="44.82817" lon="1.63621">
        <ele>230.3</ele>
        <time>2022-08-07T09:02:25Z</time>
      </trkpt>
      <trkpt lat="44.82811" lon="1.63622">
        <ele>230.9</ele>
        <time>2022-08-07T09:02:27Z</time>
      </trkpt>
      <trkpt lat="44.82805" lon="1.63625">
        <ele>231.4</ele>
        <time>2022-08-07T09:02:29Z</time>
      </trkpt>
      <trkpt lat="44.82799" lon="1.63628">
        <ele>231.9</ele>
        <time>2022-08-07T09:02:31Z</time>
      </trkpt>
      <trkpt lat="44.82793" lon="1.63631">
        <ele>232.3</ele>
        <time>2022-08-07T09:02:33Z</time>
      </trkpt>
      <trkpt lat="44.82787" lon="1.63635">
        <ele>232.6</ele>
        <time>2022-08-07T09:02:35Z</time>
      </trkpt>
      <trkpt lat="44.82782" lon="1.63639">
        <ele>232.8</ele>
        <time>2022-08-07T09:02:37Z</time>
      </trkpt>
      <trkpt lat="44.82777" lon="1.63644">
        <ele>233</ele>
        <time>2022-08-07T09:02:39Z</time>
      </trkpt>
      <trkpt lat="44.82772" lon="1.63649">
        <ele>233</ele>
        <time>2022-08-07T09:02:41Z</time>
      </trkpt>
      <trkpt lat="44.82767" lon="1.63655">
        <ele>233</ele>
        <time>2022-08-07T09:02:43Z</time>
      </trkpt>
      <trkpt lat="44.82763" lon="1.63661">
        <ele>232.8</ele>
        <time>2022-08-07T09:02:45Z</time>
      </trkpt>
      <trkpt lat="44.82759" lon="1.63668">
        <ele>232.7</ele>
        <time>2022-08-07T09:02:47Z</time>
      </trkpt>
      <trkpt lat="44.82755" lon="1.63675">
        <ele>233.2</ele>
        <time>2022-08-07T09:02:49Z</time>
      </trkpt>
      <trkpt lat="44.82751" lon="1.63682">
        <ele>233.7</ele>
        <time>2022-08-07T09:02:51Z</time>
      </trkpt>
      <trkpt lat="44.82747" lon="1.6369">
        <ele>234.4</ele>
        <time>2022-08-07T09:02:53Z</time>
      </trkpt>
      <trkpt lat="44.82743" lon="1.63697">
        <ele>235.1</ele>
        <time>2022-08-07T09:02:55Z</time>
      </trkpt>
      <trkpt lat="44.82739" lon="1.63705">
        <ele>235.7</ele>
        <time>2022-08-07T09:02:57Z</time>
      </trkpt>
      <trkpt lat="44.82735" lon="1.63712">
        <ele>236.2</ele>
        <time>2022-08-07T09:02:59Z</time>
      </trkpt>
      <trkpt lat="44.82731" lon="1.63719">
        <ele>236.7</ele>
        <time>2022-08-07T09:03:01Z</time>
      </trkpt>
      <trkpt lat="44.82727" lon="1.63726">
        <ele>237</ele>
        <time>2022-08-07T09:03:03Z</time>
      </trkpt>
      <trkpt lat="44.82723" lon="1.63734">
        <ele>237.2</ele>
        <time>2022-08-07T09:03:05Z</time>
      </trkpt>
      <trkpt lat="44.82719" lon="1.63741">
        <ele>237.4</ele>
        <time>2022-08-07T09:03:07Z</time>
      </trkpt>
      <trkpt lat="44.82713" lon="1.63746">
        <ele>237.5</ele>
        <time>2022-08-07T09:03:09Z</time>
      </trkpt>
      <trkpt lat="44.82708" lon="1.63753">
        <ele>237.6</ele>
        <time>2022-08-07T09:03:11Z</time>
      </trkpt>
      <trkpt lat="44.82703" lon="1.63758">
        <ele>238</ele>
        <time>2022-08-07T09:03:13Z</time>
      </trkpt>
      <trkpt lat="44.82698" lon="1.63765">
        <ele>238.4</ele>
        <time>2022-08-07T09:03:15Z</time>
      </trkpt>
      <trkpt lat="44.82692" lon="1.6377">
        <ele>238.8</ele>
        <time>2022-08-07T09:03:17Z</time>
      </trkpt>
      <trkpt lat="44.82687" lon="1.63774">
        <ele>239.1</ele>
        <time>2022-08-07T09:03:19Z</time>
      </trkpt>
      <trkpt lat="44.82681" lon="1.63779">
        <ele>239.4</ele>
        <time>2022-08-07T09:03:21Z</time>
      </trkpt>
      <trkpt lat="44.82675" lon="1.63783">
        <ele>239.8</ele>
        <time>2022-08-07T09:03:23Z</time>
      </trkpt>
      <trkpt lat="44.82671" lon="1.63786">
        <ele>240.1</ele>
        <time>2022-08-07T09:03:25Z</time>
      </trkpt>
      <trkpt lat="44.82666" lon="1.6379">
        <ele>240.4</ele>
        <time>2022-08-07T09:03:27Z</time>
      </trkpt>
      <trkpt lat="44.82661" lon="1.63793">
        <ele>241</ele>
        <time>2022-08-07T09:03:29Z</time>
      </trkpt>
      <trkpt lat="44.82656" lon="1.63798">
        <ele>241.5</ele>
        <time>2022-08-07T09:03:31Z</time>
      </trkpt>
      <trkpt lat="44.8265" lon="1.63801">
        <ele>241.9</ele>
        <time>2022-08-07T09:03:33Z</time>
      </trkpt>
      <trkpt lat="44.82646" lon="1.63806">
        <ele>242.3</ele>
        <time>2022-08-07T09:03:35Z</time>
      </trkpt>
      <trkpt lat="44.82641" lon="1.63809">
        <ele>242.5</ele>
        <time>2022-08-07T09:03:37Z</time>
      </trkpt>
      <trkpt lat="44.82636" lon="1.63814">
        <ele>242.8</ele>
        <time>2022-08-07T09:03:39Z</time>
      </trkpt>
      <trkpt lat="44.82631" lon="1.63819">
        <ele>243</ele>
        <time>2022-08-07T09:03:41Z</time>
      </trkpt>
      <trkpt lat="44.82626" lon="1.63823">
        <ele>243.1</ele>
        <time>2022-08-07T09:03:43Z</time>
      </trkpt>
      <trkpt lat="44.82621" lon="1.63828">
        <ele>243.1</ele>
        <time>2022-08-07T09:03:45Z</time>
      </trkpt>
      <trkpt lat="44.82616" lon="1.63833">
        <ele>243</ele>
        <time>2022-08-07T09:03:47Z</time>
      </trkpt>
      <trkpt lat="44.82611" lon="1.63838">
        <ele>243.2</ele>
        <time>2022-08-07T09:03:49Z</time>
      </trkpt>
      <trkpt lat="44.82606" lon="1.63842">
        <ele>243.3</ele>
        <time>2022-08-07T09:03:51Z</time>
      </trkpt>
      <trkpt lat="44.82602" lon="1.63846">
        <ele>243.5</ele>
        <time>2022-08-07T09:03:53Z</time>
      </trkpt>
      <trkpt lat="44.82598" lon="1.63851">
        <ele>243.6</ele>
        <time>2022-08-07T09:03:55Z</time>
      </trkpt>
      <trkpt lat="44.82594" lon="1.63855">
        <ele>243.7</ele>
        <time>2022-08-07T09:03:57Z</time>
      </trkpt>
      <trkpt lat="44.82589" lon="1.6386">
        <ele>243.7</ele>
        <time>2022-08-07T09:03:59Z</time>
      </trkpt>
      <trkpt lat="44.82585" lon="1.63865">
        <ele>243.8</ele>
        <time>2022-08-07T09:04:01Z</time>
      </trkpt>
      <trkpt lat="44.82581" lon="1.63869">
        <ele>244</ele>
        <time>2022-08-07T09:04:03Z</time>
      </trkpt>
      <trkpt lat="44.82576" lon="1.63873">
        <ele>244.2</ele>
        <time>2022-08-07T09:04:05Z</time>
      </trkpt>
      <trkpt lat="44.82572" lon="1.63878">
        <ele>244.4</ele>
        <time>2022-08-07T09:04:07Z</time>
      </trkpt>
      <trkpt lat="44.82568" lon="1.63882">
        <ele>244.5</ele>
        <time>2022-08-07T09:04:09Z</time>
      </trkpt>
      <trkpt lat="44.82564" lon="1.63886">
        <ele>244.5</ele>
        <time>2022-08-07T09:04:11Z</time>
      </trkpt>
      <trkpt lat="44.8256" lon="1.63891">
        <ele>244.5</ele>
        <time>2022-08-07T09:04:13Z</time>
      </trkpt>
      <trkpt lat="44.82555" lon="1.63895">
        <ele>244.4</ele>
        <time>2022-08-07T09:04:15Z</time>
      </trkpt>
      <trkpt lat="44.82552" lon="1.639">
        <ele>244.3</ele>
        <time>2022-08-07T09:04:17Z</time>
      </trkpt>
      <trkpt lat="44.82548" lon="1.63904">
        <ele>244.1</ele>
        <time>2022-08-07T09:04:19Z</time>
      </trkpt>
      <trkpt lat="44.82543" lon="1.63908">
        <ele>243.9</ele>
        <time>2022-08-07T09:04:21Z</time>
      </trkpt>
      <trkpt lat="44.82539" lon="1.63913">
        <ele>243.6</ele>
        <time>2022-08-07T09:04:23Z</time>
      </trkpt>
      <trkpt lat="44.82534" lon="1.63918">
        <ele>243.3</ele>
        <time>2022-08-07T09:04:25Z</time>
      </trkpt>
      <trkpt lat="44.82531" lon="1.63922">
        <ele>243.6</ele>
        <time>2022-08-07T09:04:27Z</time>
      </trkpt>
      <trkpt lat="44.82527" lon="1.63926">
        <ele>243.7</ele>
        <time>2022-08-07T09:04:29Z</time>
      </trkpt>
      <trkpt lat="44.82523" lon="1.6393">
        <ele>243.9</ele>
        <time>2022-08-07T09:04:31Z</time>
      </trkpt>
      <trkpt lat="44.82519" lon="1.63935">
        <ele>244.1</ele>
        <time>2022-08-07T09:04:33Z</time>
      </trkpt>
      <trkpt lat="44.82514" lon="1.63938">
        <ele>244.2</ele>
        <time>2022-08-07T09:04:35Z</time>
      </trkpt>
      <trkpt lat="44.8251" lon="1.63943">
        <ele>244.3</ele>
        <time>2022-08-07T09:04:37Z</time>
      </trkpt>
      <trkpt lat="44.82505" lon="1.63947">
        <ele>244.4</ele>
        <time>2022-08-07T09:04:39Z</time>
      </trkpt>
      <trkpt lat="44.825" lon="1.63951">
        <ele>244.5</ele>
        <time>2022-08-07T09:04:41Z</time>
      </trkpt>
      <trkpt lat="44.82495" lon="1.63955">
        <ele>244.8</ele>
        <time>2022-08-07T09:04:43Z</time>
      </trkpt>
      <trkpt lat="44.8249" lon="1.63957">
        <ele>245.1</ele>
        <time>2022-08-07T09:04:45Z</time>
      </trkpt>
      <trkpt lat="44.82485" lon="1.63959">
        <ele>245.4</ele>
        <time>2022-08-07T09:04:47Z</time>
      </trkpt>
      <trkpt lat="44.8248" lon="1.63961">
        <ele>245.6</ele>
        <time>2022-08-07T09:04:49Z</time>
      </trkpt>
      <trkpt lat="44.82474" lon="1.63961">
        <ele>245.8</ele>
        <time>2022-08-07T09:04:51Z</time>
      </trkpt>
      <trkpt lat="44.82469" lon="1.63962">
        <ele>245.9</ele>
        <time>2022-08-07T09:04:53Z</time>
      </trkpt>
      <trkpt lat="44.82464" lon="1.63962">
        <ele>246</ele>
        <time>2022-08-07T09:04:55Z</time>
      </trkpt>
      <trkpt lat="44.82459" lon="1.63961">
        <ele>246.1</ele>
        <time>2022-08-07T09:04:57Z</time>
      </trkpt>
      <trkpt lat="44.82454" lon="1.63961">
        <ele>246.2</ele>
        <time>2022-08-07T09:04:59Z</time>
      </trkpt>
      <trkpt lat="44.82449" lon="1.6396">
        <ele>246.3</ele>
        <time>2022-08-07T09:05:01Z</time>
      </trkpt>
      <trkpt lat="44.82444" lon="1.63959">
        <ele>246.4</ele>
        <time>2022-08-07T09:05:03Z</time>
      </trkpt>
      <trkpt lat="44.82439" lon="1.63957">
        <ele>246.4</ele>
        <time>2022-08-07T09:05:05Z</time>
      </trkpt>
      <trkpt lat="44.82434" lon="1.63956">
        <ele>246.5</ele>
        <time>2022-08-07T09:05:07Z</time>
      </trkpt>
      <trkpt lat="44.82429" lon="1.63955">
        <ele>246.6</ele>
        <time>2022-08-07T09:05:09Z</time>
      </trkpt>
      <trkpt lat="44.82423" lon="1.63954">
        <ele>246.7</ele>
        <time>2022-08-07T09:05:11Z</time>
      </trkpt>
      <trkpt lat="44.82418" lon="1.63954">
        <ele>246.9</ele>
        <time>2022-08-07T09:05:13Z</time>
      </trkpt>
      <trkpt lat="44.82413" lon="1.63955">
        <ele>247.1</ele>
        <time>2022-08-07T09:05:15Z</time>
      </trkpt>
      <trkpt lat="44.82408" lon="1.63956">
        <ele>247.4</ele>
        <time>2022-08-07T09:05:17Z</time>
      </trkpt>
      <trkpt lat="44.82402" lon="1.6396">
        <ele>247.7</ele>
        <time>2022-08-07T09:05:19Z</time>
      </trkpt>
      <trkpt lat="44.82398" lon="1.63963">
        <ele>247.9</ele>
        <time>2022-08-07T09:05:21Z</time>
      </trkpt>
      <trkpt lat="44.82393" lon="1.63967">
        <ele>248.1</ele>
        <time>2022-08-07T09:05:23Z</time>
      </trkpt>
      <trkpt lat="44.82388" lon="1.63973">
        <ele>248.2</ele>
        <time>2022-08-07T09:05:25Z</time>
      </trkpt>
      <trkpt lat="44.82384" lon="1.63978">
        <ele>248.3</ele>
        <time>2022-08-07T09:05:27Z</time>
      </trkpt>
      <trkpt lat="44.8238" lon="1.63984">
        <ele>248.3</ele>
        <time>2022-08-07T09:05:29Z</time>
      </trkpt>
      <trkpt lat="44.82377" lon="1.6399">
        <ele>248.2</ele>
        <time>2022-08-07T09:05:31Z</time>
      </trkpt>
      <trkpt lat="44.82374" lon="1.63997">
        <ele>248.1</ele>
        <time>2022-08-07T09:05:33Z</time>
      </trkpt>
      <trkpt lat="44.82371" lon="1.64003">
        <ele>248.1</ele>
        <time>2022-08-07T09:05:35Z</time>
      </trkpt>
      <trkpt lat="44.82368" lon="1.6401">
        <ele>248.4</ele>
        <time>2022-08-07T09:05:37Z</time>
      </trkpt>
      <trkpt lat="44.82366" lon="1.64016">
        <ele>248.6</ele>
        <time>2022-08-07T09:05:39Z</time>
      </trkpt>
      <trkpt lat="44.82363" lon="1.64023">
        <ele>248.8</ele>
        <time>2022-08-07T09:05:41Z</time>
      </trkpt>
      <trkpt lat="44.82361" lon="1.6403">
        <ele>248.9</ele>
        <time>2022-08-07T09:05:43Z</time>
      </trkpt>
      <trkpt lat="44.82358" lon="1.64037">
        <ele>249.1</ele>
        <time>2022-08-07T09:05:45Z</time>
      </trkpt>
      <trkpt lat="44.82356" lon="1.64044">
        <ele>249.1</ele>
        <time>2022-08-07T09:05:47Z</time>
      </trkpt>
      <trkpt lat="44.82354" lon="1.64051">
        <ele>249.2</ele>
        <time>2022-08-07T09:05:49Z</time>
      </trkpt>
      <trkpt lat="44.82352" lon="1.64059">
        <ele>249.2</ele>
        <time>2022-08-07T09:05:51Z</time>
      </trkpt>
      <trkpt lat="44.82349" lon="1.64067">
        <ele>249.2</ele>
        <time>2022-08-07T09:05:53Z</time>
      </trkpt>
      <trkpt lat="44.82347" lon="1.64074">
        <ele>249.2</ele>
        <time>2022-08-07T09:05:55Z</time>
      </trkpt>
      <trkpt lat="44.82346" lon="1.64082">
        <ele>249.2</ele>
        <time>2022-08-07T09:05:57Z</time>
      </trkpt>
      <trkpt lat="44.82343" lon="1.6409">
        <ele>249.3</ele>
        <time>2022-08-07T09:05:59Z</time>
      </trkpt>
      <trkpt lat="44.82341" lon="1.64097">
        <ele>249.4</ele>
        <time>2022-08-07T09:06:01Z</time>
      </trkpt>
      <trkpt lat="44.82339" lon="1.64105">
        <ele>249.6</ele>
        <time>2022-08-07T09:06:03Z</time>
      </trkpt>
      <trkpt lat="44.82337" lon="1.64112">
        <ele>249.8</ele>
        <time>2022-08-07T09:06:05Z</time>
      </trkpt>
      <trkpt lat="44.82335" lon="1.64119">
        <ele>250</ele>
        <time>2022-08-07T09:06:07Z</time>
      </trkpt>
      <trkpt lat="44.82333" lon="1.64127">
        <ele>250.1</ele>
        <time>2022-08-07T09:06:09Z</time>
      </trkpt>
      <trkpt lat="44.82331" lon="1.64134">
        <ele>250.5</ele>
        <time>2022-08-07T09:06:11Z</time>
      </trkpt>
      <trkpt lat="44.8233" lon="1.64142">
        <ele>250.8</ele>
        <time>2022-08-07T09:06:13Z</time>
      </trkpt>
      <trkpt lat="44.82328" lon="1.6415">
        <ele>251.2</ele>
        <time>2022-08-07T09:06:15Z</time>
      </trkpt>
      <trkpt lat="44.82326" lon="1.64159">
        <ele>251.6</ele>
        <time>2022-08-07T09:06:17Z</time>
      </trkpt>
      <trkpt lat="44.82324" lon="1.64167">
        <ele>251.9</ele>
        <time>2022-08-07T09:06:19Z</time>
      </trkpt>
      <trkpt lat="44.82322" lon="1.64176">
        <ele>252.3</ele>
        <time>2022-08-07T09:06:21Z</time>
      </trkpt>
      <trkpt lat="44.82322" lon="1.64185">
        <ele>252.7</ele>
        <time>2022-08-07T09:06:23Z</time>
      </trkpt>
      <trkpt lat="44.82321" lon="1.64194">
        <ele>253.1</ele>
        <time>2022-08-07T09:06:25Z</time>
      </trkpt>
      <trkpt lat="44.8232" lon="1.64203">
        <ele>253.4</ele>
        <time>2022-08-07T09:06:27Z</time>
      </trkpt>
      <trkpt lat="44.82319" lon="1.64212">
        <ele>253.8</ele>
        <time>2022-08-07T09:06:29Z</time>
      </trkpt>
      <trkpt lat="44.82318" lon="1.64221">
        <ele>254.2</ele>
        <time>2022-08-07T09:06:31Z</time>
      </trkpt>
      <trkpt lat="44.82318" lon="1.64229">
        <ele>254.5</ele>
        <time>2022-08-07T09:06:33Z</time>
      </trkpt>
      <trkpt lat="44.82317" lon="1.64237">
        <ele>254.9</ele>
        <time>2022-08-07T09:06:35Z</time>
      </trkpt>
      <trkpt lat="44.82317" lon="1.64245">
        <ele>255.2</ele>
        <time>2022-08-07T09:06:37Z</time>
      </trkpt>
      <trkpt lat="44.82317" lon="1.64254">
        <ele>255.5</ele>
        <time>2022-08-07T09:06:39Z</time>
      </trkpt>
      <trkpt lat="44.82317" lon="1.64262">
        <ele>255.6</ele>
        <time>2022-08-07T09:06:41Z</time>
      </trkpt>
      <trkpt lat="44.82318" lon="1.6427">
        <ele>255.7</ele>
        <time>2022-08-07T09:06:43Z</time>
      </trkpt>
      <trkpt lat="44.82318" lon="1.64279">
        <ele>255.8</ele>
        <time>2022-08-07T09:06:45Z</time>
      </trkpt>
      <trkpt lat="44.82318" lon="1.64288">
        <ele>255.9</ele>
        <time>2022-08-07T09:06:47Z</time>
      </trkpt>
      <trkpt lat="44.82319" lon="1.64297">
        <ele>256</ele>
        <time>2022-08-07T09:06:49Z</time>
      </trkpt>
      <trkpt lat="44.82319" lon="1.64305">
        <ele>256.2</ele>
        <time>2022-08-07T09:06:51Z</time>
      </trkpt>
      <trkpt lat="44.8232" lon="1.64314">
        <ele>256.3</ele>
        <time>2022-08-07T09:06:53Z</time>
      </trkpt>
      <trkpt lat="44.82322" lon="1.64323">
        <ele>256.5</ele>
        <time>2022-08-07T09:06:55Z</time>
      </trkpt>
      <trkpt lat="44.82322" lon="1.64331">
        <ele>256.6</ele>
        <time>2022-08-07T09:06:57Z</time>
      </trkpt>
      <trkpt lat="44.82323" lon="1.64339">
        <ele>256.8</ele>
        <time>2022-08-07T09:06:59Z</time>
      </trkpt>
      <trkpt lat="44.82325" lon="1.64347">
        <ele>257</ele>
        <time>2022-08-07T09:07:01Z</time>
      </trkpt>
      <trkpt lat="44.82325" lon="1.64355">
        <ele>257.2</ele>
        <time>2022-08-07T09:07:03Z</time>
      </trkpt>
      <trkpt lat="44.82326" lon="1.64363">
        <ele>257.4</ele>
        <time>2022-08-07T09:07:05Z</time>
      </trkpt>
      <trkpt lat="44.82326" lon="1.64372">
        <ele>257.6</ele>
        <time>2022-08-07T09:07:07Z</time>
      </trkpt>
      <trkpt lat="44.82325" lon="1.6438">
        <ele>257.7</ele>
        <time>2022-08-07T09:07:09Z</time>
      </trkpt>
      <trkpt lat="44.82324" lon="1.64388">
        <ele>257.8</ele>
        <time>2022-08-07T09:07:11Z</time>
      </trkpt>
      <trkpt lat="44.82321" lon="1.64396">
        <ele>257.9</ele>
        <time>2022-08-07T09:07:13Z</time>
      </trkpt>
      <trkpt lat="44.82318" lon="1.64403">
        <ele>257.8</ele>
        <time>2022-08-07T09:07:15Z</time>
      </trkpt>
      <trkpt lat="44.82315" lon="1.6441">
        <ele>257.8</ele>
        <time>2022-08-07T09:07:17Z</time>
      </trkpt>
      <trkpt lat="44.82312" lon="1.64417">
        <ele>257.7</ele>
        <time>2022-08-07T09:07:19Z</time>
      </trkpt>
      <trkpt lat="44.82308" lon="1.64422">
        <ele>257.8</ele>
        <time>2022-08-07T09:07:21Z</time>
      </trkpt>
      <trkpt lat="44.82304" lon="1.64428">
        <ele>257.8</ele>
        <time>2022-08-07T09:07:23Z</time>
      </trkpt>
      <trkpt lat="44.823" lon="1.64433">
        <ele>257.9</ele>
        <time>2022-08-07T09:07:25Z</time>
      </trkpt>
      <trkpt lat="44.82296" lon="1.64438">
        <ele>257.8</ele>
        <time>2022-08-07T09:07:27Z</time>
      </trkpt>
      <trkpt lat="44.82292" lon="1.64443">
        <ele>257.8</ele>
        <time>2022-08-07T09:07:29Z</time>
      </trkpt>
      <trkpt lat="44.82288" lon="1.64448">
        <ele>257.7</ele>
        <time>2022-08-07T09:07:31Z</time>
      </trkpt>
      <trkpt lat="44.82285" lon="1.64452">
        <ele>257.6</ele>
        <time>2022-08-07T09:07:33Z</time>
      </trkpt>
      <trkpt lat="44.82281" lon="1.64456">
        <ele>257.5</ele>
        <time>2022-08-07T09:07:35Z</time>
      </trkpt>
      <trkpt lat="44.82277" lon="1.64461">
        <ele>257.4</ele>
        <time>2022-08-07T09:07:37Z</time>
      </trkpt>
      <trkpt lat="44.82273" lon="1.64466">
        <ele>257.3</ele>
        <time>2022-08-07T09:07:39Z</time>
      </trkpt>
      <trkpt lat="44.8227" lon="1.64472">
        <ele>257.2</ele>
        <time>2022-08-07T09:07:41Z</time>
      </trkpt>
      <trkpt lat="44.82267" lon="1.64477">
        <ele>257.1</ele>
        <time>2022-08-07T09:07:43Z</time>
      </trkpt>
      <trkpt lat="44.82264" lon="1.64483">
        <ele>257</ele>
        <time>2022-08-07T09:07:45Z</time>
      </trkpt>
      <trkpt lat="44.82261" lon="1.64489">
        <ele>256.9</ele>
        <time>2022-08-07T09:07:47Z</time>
      </trkpt>
      <trkpt lat="44.82259" lon="1.64495">
        <ele>256.8</ele>
        <time>2022-08-07T09:07:49Z</time>
      </trkpt>
      <trkpt lat="44.82257" lon="1.64502">
        <ele>256.8</ele>
        <time>2022-08-07T09:07:51Z</time>
      </trkpt>
      <trkpt lat="44.82254" lon="1.64509">
        <ele>256.9</ele>
        <time>2022-08-07T09:07:53Z</time>
      </trkpt>
      <trkpt lat="44.82252" lon="1.64516">
        <ele>257</ele>
        <time>2022-08-07T09:07:55Z</time>
      </trkpt>
      <trkpt lat="44.8225" lon="1.64523">
        <ele>257.2</ele>
        <time>2022-08-07T09:07:57Z</time>
      </trkpt>
      <trkpt lat="44.82249" lon="1.64531">
        <ele>257.5</ele>
        <time>2022-08-07T09:07:59Z</time>
      </trkpt>
      <trkpt lat="44.82249" lon="1.64539">
        <ele>257.9</ele>
        <time>2022-08-07T09:08:01Z</time>
      </trkpt>
      <trkpt lat="44.82248" lon="1.64547">
        <ele>258.3</ele>
        <time>2022-08-07T09:08:03Z</time>
      </trkpt>
      <trkpt lat="44.82248" lon="1.64555">
        <ele>258.7</ele>
        <time>2022-08-07T09:08:05Z</time>
      </trkpt>
      <trkpt lat="44.82249" lon="1.64563">
        <ele>259</ele>
        <time>2022-08-07T09:08:07Z</time>
      </trkpt>
      <trkpt lat="44.82249" lon="1.64571">
        <ele>259.4</ele>
        <time>2022-08-07T09:08:09Z</time>
      </trkpt>
      <trkpt lat="44.8225" lon="1.64579">
        <ele>259.8</ele>
        <time>2022-08-07T09:08:11Z</time>
      </trkpt>
      <trkpt lat="44.82251" lon="1.64587">
        <ele>260.1</ele>
        <time>2022-08-07T09:08:13Z</time>
      </trkpt>
      <trkpt lat="44.82252" lon="1.64595">
        <ele>260.3</ele>
        <time>2022-08-07T09:08:15Z</time>
      </trkpt>
      <trkpt lat="44.82253" lon="1.64603">
        <ele>260.5</ele>
        <time>2022-08-07T09:08:17Z</time>
      </trkpt>
      <trkpt lat="44.82255" lon="1.64611">
        <ele>260.8</ele>
        <time>2022-08-07T09:08:19Z</time>
      </trkpt>
      <trkpt lat="44.82256" lon="1.64619">
        <ele>261</ele>
        <time>2022-08-07T09:08:21Z</time>
      </trkpt>
      <trkpt lat="44.82258" lon="1.64627">
        <ele>261.2</ele>
        <time>2022-08-07T09:08:23Z</time>
      </trkpt>
      <trkpt lat="44.82259" lon="1.64635">
        <ele>261.4</ele>
        <time>2022-08-07T09:08:25Z</time>
      </trkpt>
      <trkpt lat="44.82261" lon="1.64643">
        <ele>261.6</ele>
        <time>2022-08-07T09:08:27Z</time>
      </trkpt>
      <trkpt lat="44.82263" lon="1.64651">
        <ele>261.9</ele>
        <time>2022-08-07T09:08:29Z</time>
      </trkpt>
      <trkpt lat="44.82265" lon="1.64658">
        <ele>262.1</ele>
        <time>2022-08-07T09:08:31Z</time>
      </trkpt>
      <trkpt lat="44.82266" lon="1.64666">
        <ele>262.4</ele>
        <time>2022-08-07T09:08:33Z</time>
      </trkpt>
      <trkpt lat="44.82268" lon="1.64674">
        <ele>262.8</ele>
        <time>2022-08-07T09:08:35Z</time>
      </trkpt>
      <trkpt lat="44.82269" lon="1.64682">
        <ele>263.2</ele>
        <time>2022-08-07T09:08:37Z</time>
      </trkpt>
      <trkpt lat="44.8227" lon="1.6469">
        <ele>263.6</ele>
        <time>2022-08-07T09:08:39Z</time>
      </trkpt>
      <trkpt lat="44.82271" lon="1.64698">
        <ele>264</ele>
        <time>2022-08-07T09:08:41Z</time>
      </trkpt>
      <trkpt lat="44.82272" lon="1.64706">
        <ele>264.4</ele>
        <time>2022-08-07T09:08:43Z</time>
      </trkpt>
      <trkpt lat="44.82272" lon="1.64715">
        <ele>264.7</ele>
        <time>2022-08-07T09:08:45Z</time>
      </trkpt>
      <trkpt lat="44.82272" lon="1.64723">
        <ele>265.1</ele>
        <time>2022-08-07T09:08:47Z</time>
      </trkpt>
      <trkpt lat="44.82273" lon="1.64731">
        <ele>265.4</ele>
        <time>2022-08-07T09:08:49Z</time>
      </trkpt>
      <trkpt lat="44.82273" lon="1.64739">
        <ele>265.7</ele>
        <time>2022-08-07T09:08:51Z</time>
      </trkpt>
      <trkpt lat="44.82272" lon="1.64746">
        <ele>266</ele>
        <time>2022-08-07T09:08:53Z</time>
      </trkpt>
      <trkpt lat="44.82272" lon="1.64754">
        <ele>266.1</ele>
        <time>2022-08-07T09:08:55Z</time>
      </trkpt>
      <trkpt lat="44.82271" lon="1.64761">
        <ele>266.2</ele>
        <time>2022-08-07T09:08:57Z</time>
      </trkpt>
      <trkpt lat="44.8227" lon="1.6477">
        <ele>266.3</ele>
        <time>2022-08-07T09:08:59Z</time>
      </trkpt>
      <trkpt lat="44.8227" lon="1.64775">
        <ele>266.3</ele>
        <time>2022-08-07T09:09:01Z</time>
      </trkpt>
      <trkpt lat="44.82269" lon="1.64782">
        <ele>266.4</ele>
        <time>2022-08-07T09:09:03Z</time>
      </trkpt>
      <trkpt lat="44.82268" lon="1.64789">
        <ele>266.4</ele>
        <time>2022-08-07T09:09:05Z</time>
      </trkpt>
      <trkpt lat="44.82267" lon="1.64801">
        <ele>266.5</ele>
        <time>2022-08-07T09:09:07Z</time>
      </trkpt>
      <trkpt lat="44.82266" lon="1.64808">
        <ele>266.5</ele>
        <time>2022-08-07T09:09:09Z</time>
      </trkpt>
      <trkpt lat="44.82265" lon="1.64816">
        <ele>266.5</ele>
        <time>2022-08-07T09:09:11Z</time>
      </trkpt>
      <trkpt lat="44.82264" lon="1.64824">
        <ele>266.6</ele>
        <time>2022-08-07T09:09:13Z</time>
      </trkpt>
      <trkpt lat="44.82263" lon="1.64832">
        <ele>266.6</ele>
        <time>2022-08-07T09:09:15Z</time>
      </trkpt>
      <trkpt lat="44.82262" lon="1.6484">
        <ele>266.6</ele>
        <time>2022-08-07T09:09:17Z</time>
      </trkpt>
      <trkpt lat="44.8226" lon="1.64847">
        <ele>266.6</ele>
        <time>2022-08-07T09:09:19Z</time>
      </trkpt>
      <trkpt lat="44.82257" lon="1.64855">
        <ele>266.6</ele>
        <time>2022-08-07T09:09:21Z</time>
      </trkpt>
      <trkpt lat="44.82255" lon="1.64863">
        <ele>266.6</ele>
        <time>2022-08-07T09:09:23Z</time>
      </trkpt>
      <trkpt lat="44.82252" lon="1.6487">
        <ele>266.5</ele>
        <time>2022-08-07T09:09:25Z</time>
      </trkpt>
      <trkpt lat="44.82249" lon="1.64878">
        <ele>266.6</ele>
        <time>2022-08-07T09:09:27Z</time>
      </trkpt>
      <trkpt lat="44.82246" lon="1.64885">
        <ele>266.9</ele>
        <time>2022-08-07T09:09:29Z</time>
      </trkpt>
      <trkpt lat="44.82243" lon="1.64893">
        <ele>267.1</ele>
        <time>2022-08-07T09:09:31Z</time>
      </trkpt>
      <trkpt lat="44.8224" lon="1.64901">
        <ele>267.3</ele>
        <time>2022-08-07T09:09:33Z</time>
      </trkpt>
      <trkpt lat="44.82237" lon="1.64908">
        <ele>267.4</ele>
        <time>2022-08-07T09:09:35Z</time>
      </trkpt>
      <trkpt lat="44.82233" lon="1.64915">
        <ele>267.6</ele>
        <time>2022-08-07T09:09:37Z</time>
      </trkpt>
      <trkpt lat="44.8223" lon="1.64922">
        <ele>267.8</ele>
        <time>2022-08-07T09:09:39Z</time>
      </trkpt>
      <trkpt lat="44.82227" lon="1.6493">
        <ele>268.1</ele>
        <time>2022-08-07T09:09:41Z</time>
      </trkpt>
      <trkpt lat="44.82224" lon="1.64937">
        <ele>268.3</ele>
        <time>2022-08-07T09:09:43Z</time>
      </trkpt>
      <trkpt lat="44.8222" lon="1.64945">
        <ele>268.5</ele>
        <time>2022-08-07T09:09:45Z</time>
      </trkpt>
      <trkpt lat="44.82216" lon="1.64953">
        <ele>268.7</ele>
        <time>2022-08-07T09:09:47Z</time>
      </trkpt>
      <trkpt lat="44.82213" lon="1.64961">
        <ele>268.8</ele>
        <time>2022-08-07T09:09:49Z</time>
      </trkpt>
      <trkpt lat="44.8221" lon="1.6497">
        <ele>269</ele>
        <time>2022-08-07T09:09:51Z</time>
      </trkpt>
      <trkpt lat="44.82206" lon="1.64978">
        <ele>269</ele>
        <time>2022-08-07T09:09:53Z</time>
      </trkpt>
      <trkpt lat="44.82202" lon="1.64986">
        <ele>269.1</ele>
        <time>2022-08-07T09:09:55Z</time>
      </trkpt>
      <trkpt lat="44.822" lon="1.64993">
        <ele>269.2</ele>
        <time>2022-08-07T09:09:57Z</time>
      </trkpt>
      <trkpt lat="44.82197" lon="1.65002">
        <ele>269.2</ele>
        <time>2022-08-07T09:09:59Z</time>
      </trkpt>
      <trkpt lat="44.82194" lon="1.6501">
        <ele>269.3</ele>
        <time>2022-08-07T09:10:01Z</time>
      </trkpt>
      <trkpt lat="44.82191" lon="1.65018">
        <ele>269.5</ele>
        <time>2022-08-07T09:10:03Z</time>
      </trkpt>
      <trkpt lat="44.82189" lon="1.65027">
        <ele>269.7</ele>
        <time>2022-08-07T09:10:05Z</time>
      </trkpt>
      <trkpt lat="44.82187" lon="1.65035">
        <ele>269.8</ele>
        <time>2022-08-07T09:10:07Z</time>
      </trkpt>
      <trkpt lat="44.82184" lon="1.65044">
        <ele>269.9</ele>
        <time>2022-08-07T09:10:09Z</time>
      </trkpt>
      <trkpt lat="44.82182" lon="1.65053">
        <ele>270.1</ele>
        <time>2022-08-07T09:10:11Z</time>
      </trkpt>
      <trkpt lat="44.8218" lon="1.65062">
        <ele>270.3</ele>
        <time>2022-08-07T09:10:13Z</time>
      </trkpt>
      <trkpt lat="44.82178" lon="1.65071">
        <ele>270.5</ele>
        <time>2022-08-07T09:10:15Z</time>
      </trkpt>
      <trkpt lat="44.82176" lon="1.6508">
        <ele>270.7</ele>
        <time>2022-08-07T09:10:17Z</time>
      </trkpt>
      <trkpt lat="44.82174" lon="1.65088">
        <ele>270.8</ele>
        <time>2022-08-07T09:10:19Z</time>
      </trkpt>
      <trkpt lat="44.82173" lon="1.65096">
        <ele>271</ele>
        <time>2022-08-07T09:10:21Z</time>
      </trkpt>
      <trkpt lat="44.82172" lon="1.65104">
        <ele>271.2</ele>
        <time>2022-08-07T09:10:23Z</time>
      </trkpt>
      <trkpt lat="44.82171" lon="1.65113">
        <ele>271.4</ele>
        <time>2022-08-07T09:10:25Z</time>
      </trkpt>
      <trkpt lat="44.82169" lon="1.65121">
        <ele>271.6</ele>
        <time>2022-08-07T09:10:27Z</time>
      </trkpt>
      <trkpt lat="44.82168" lon="1.6513">
        <ele>271.8</ele>
        <time>2022-08-07T09:10:29Z</time>
      </trkpt>
      <trkpt lat="44.82167" lon="1.65139">
        <ele>272</ele>
        <time>2022-08-07T09:10:31Z</time>
      </trkpt>
      <trkpt lat="44.82166" lon="1.65148">
        <ele>272.3</ele>
        <time>2022-08-07T09:10:33Z</time>
      </trkpt>
      <trkpt lat="44.82165" lon="1.65157">
        <ele>272.7</ele>
        <time>2022-08-07T09:10:35Z</time>
      </trkpt>
      <trkpt lat="44.82165" lon="1.65166">
        <ele>273</ele>
        <time>2022-08-07T09:10:37Z</time>
      </trkpt>
      <trkpt lat="44.82165" lon="1.65175">
        <ele>273.2</ele>
        <time>2022-08-07T09:10:39Z</time>
      </trkpt>
      <trkpt lat="44.82165" lon="1.65183">
        <ele>273.4</ele>
        <time>2022-08-07T09:10:41Z</time>
      </trkpt>
      <trkpt lat="44.82165" lon="1.65192">
        <ele>273.6</ele>
        <time>2022-08-07T09:10:43Z</time>
      </trkpt>
      <trkpt lat="44.82166" lon="1.65201">
        <ele>273.8</ele>
        <time>2022-08-07T09:10:45Z</time>
      </trkpt>
      <trkpt lat="44.82167" lon="1.6521">
        <ele>274</ele>
        <time>2022-08-07T09:10:47Z</time>
      </trkpt>
      <trkpt lat="44.82166" lon="1.65219">
        <ele>274.2</ele>
        <time>2022-08-07T09:10:49Z</time>
      </trkpt>
      <trkpt lat="44.82166" lon="1.65227">
        <ele>274.5</ele>
        <time>2022-08-07T09:10:51Z</time>
      </trkpt>
      <trkpt lat="44.82166" lon="1.65236">
        <ele>274.7</ele>
        <time>2022-08-07T09:10:53Z</time>
      </trkpt>
      <trkpt lat="44.82165" lon="1.65245">
        <ele>274.9</ele>
        <time>2022-08-07T09:10:55Z</time>
      </trkpt>
      <trkpt lat="44.82165" lon="1.65253">
        <ele>275</ele>
        <time>2022-08-07T09:10:57Z</time>
      </trkpt>
      <trkpt lat="44.82164" lon="1.65262">
        <ele>275.1</ele>
        <time>2022-08-07T09:10:59Z</time>
      </trkpt>
      <trkpt lat="44.82163" lon="1.6527">
        <ele>275.2</ele>
        <time>2022-08-07T09:11:01Z</time>
      </trkpt>
      <trkpt lat="44.82162" lon="1.65279">
        <ele>275.3</ele>
        <time>2022-08-07T09:11:03Z</time>
      </trkpt>
      <trkpt lat="44.82161" lon="1.65287">
        <ele>275.4</ele>
        <time>2022-08-07T09:11:05Z</time>
      </trkpt>
      <trkpt lat="44.8216" lon="1.65296">
        <ele>275.5</ele>
        <time>2022-08-07T09:11:07Z</time>
      </trkpt>
      <trkpt lat="44.82158" lon="1.65304">
        <ele>275.5</ele>
        <time>2022-08-07T09:11:09Z</time>
      </trkpt>
      <trkpt lat="44.82157" lon="1.65312">
        <ele>275.6</ele>
        <time>2022-08-07T09:11:11Z</time>
      </trkpt>
      <trkpt lat="44.82155" lon="1.65319">
        <ele>275.7</ele>
        <time>2022-08-07T09:11:13Z</time>
      </trkpt>
      <trkpt lat="44.82153" lon="1.65327">
        <ele>275.8</ele>
        <time>2022-08-07T09:11:15Z</time>
      </trkpt>
      <trkpt lat="44.82151" lon="1.65334">
        <ele>275.8</ele>
        <time>2022-08-07T09:11:17Z</time>
      </trkpt>
      <trkpt lat="44.82149" lon="1.65341">
        <ele>276</ele>
        <time>2022-08-07T09:11:19Z</time>
      </trkpt>
      <trkpt lat="44.82147" lon="1.65347">
        <ele>276.1</ele>
        <time>2022-08-07T09:11:21Z</time>
      </trkpt>
      <trkpt lat="44.82144" lon="1.65353">
        <ele>276.2</ele>
        <time>2022-08-07T09:11:23Z</time>
      </trkpt>
      <trkpt lat="44.82142" lon="1.65359">
        <ele>276.3</ele>
        <time>2022-08-07T09:11:25Z</time>
      </trkpt>
      <trkpt lat="44.82139" lon="1.65365">
        <ele>276.4</ele>
        <time>2022-08-07T09:11:27Z</time>
      </trkpt>
      <trkpt lat="44.82136" lon="1.65369">
        <ele>276.5</ele>
        <time>2022-08-07T09:11:29Z</time>
      </trkpt>
      <trkpt lat="44.82136" lon="1.6537">
        <ele>276.5</ele>
        <time>2022-08-07T09:11:31Z</time>
      </trkpt>
      <trkpt lat="44.82137" lon="1.6537">
        <ele>276.5</ele>
        <time>2022-08-07T09:11:33Z</time>
      </trkpt>
      <trkpt lat="44.82136" lon="1.6537">
        <ele>276.5</ele>
        <time>2022-08-07T09:11:35Z</time>
      </trkpt>
      <trkpt lat="44.82136" lon="1.65371">
        <ele>276.5</ele>
        <time>2022-08-07T09:11:37Z</time>
      </trkpt>
      <trkpt lat="44.82137" lon="1.65375">
        <ele>276.7</ele>
        <time>2022-08-07T09:11:39Z</time>
      </trkpt>
      <trkpt lat="44.82139" lon="1.65379">
        <ele>276.8</ele>
        <time>2022-08-07T09:11:41Z</time>
      </trkpt>
      <trkpt lat="44.8214" lon="1.65383">
        <ele>276.9</ele>
        <time>2022-08-07T09:11:43Z</time>
      </trkpt>
      <trkpt lat="44.82143" lon="1.65383">
        <ele>276.9</ele>
        <time>2022-08-07T09:11:45Z</time>
      </trkpt>
      <trkpt lat="44.82143" lon="1.65382">
        <ele>276.9</ele>
        <time>2022-08-07T09:11:47Z</time>
      </trkpt>
      <trkpt lat="44.82143" lon="1.65382">
        <ele>276.9</ele>
        <time>2022-08-07T09:11:49Z</time>
      </trkpt>
      <trkpt lat="44.82143" lon="1.65382">
        <ele>276.9</ele>
        <time>2022-08-07T09:11:51Z</time>
      </trkpt>
      <trkpt lat="44.82143" lon="1.65382">
        <ele>276.9</ele>
        <time>2022-08-07T09:11:53Z</time>
      </trkpt>
      <trkpt lat="44.82124" lon="1.654">
        <ele>277.1</ele>
        <time>2022-08-07T09:21:25Z</time>
      </trkpt>
      <trkpt lat="44.82121" lon="1.65407">
        <ele>277.2</ele>
        <time>2022-08-07T09:21:27Z</time>
      </trkpt>
      <trkpt lat="44.82118" lon="1.65415">
        <ele>277.4</ele>
        <time>2022-08-07T09:21:29Z</time>
      </trkpt>
      <trkpt lat="44.82114" lon="1.65423">
        <ele>277.5</ele>
        <time>2022-08-07T09:21:31Z</time>
      </trkpt>
      <trkpt lat="44.8211" lon="1.6543">
        <ele>277.6</ele>
        <time>2022-08-07T09:21:33Z</time>
      </trkpt>
      <trkpt lat="44.82106" lon="1.65438">
        <ele>277.8</ele>
        <time>2022-08-07T09:21:35Z</time>
      </trkpt>
      <trkpt lat="44.82103" lon="1.65445">
        <ele>277.9</ele>
        <time>2022-08-07T09:21:37Z</time>
      </trkpt>
      <trkpt lat="44.82099" lon="1.65452">
        <ele>278</ele>
        <time>2022-08-07T09:21:39Z</time>
      </trkpt>
      <trkpt lat="44.82095" lon="1.65459">
        <ele>278.2</ele>
        <time>2022-08-07T09:21:41Z</time>
      </trkpt>
      <trkpt lat="44.82092" lon="1.65465">
        <ele>278.3</ele>
        <time>2022-08-07T09:21:43Z</time>
      </trkpt>
      <trkpt lat="44.82088" lon="1.65469">
        <ele>278.3</ele>
        <time>2022-08-07T09:21:45Z</time>
      </trkpt>
      <trkpt lat="44.82082" lon="1.65467">
        <ele>278.3</ele>
        <time>2022-08-07T09:21:47Z</time>
      </trkpt>
      <trkpt lat="44.82078" lon="1.65459">
        <ele>278.3</ele>
        <time>2022-08-07T09:21:49Z</time>
      </trkpt>
      <trkpt lat="44.82077" lon="1.6545">
        <ele>278.1</ele>
        <time>2022-08-07T09:21:51Z</time>
      </trkpt>
      <trkpt lat="44.82076" lon="1.6544">
        <ele>277.9</ele>
        <time>2022-08-07T09:21:53Z</time>
      </trkpt>
      <trkpt lat="44.82076" lon="1.6543">
        <ele>277.6</ele>
        <time>2022-08-07T09:21:55Z</time>
      </trkpt>
      <trkpt lat="44.82077" lon="1.65419">
        <ele>277.3</ele>
        <time>2022-08-07T09:21:57Z</time>
      </trkpt>
      <trkpt lat="44.82079" lon="1.65408">
        <ele>277</ele>
        <time>2022-08-07T09:21:59Z</time>
      </trkpt>
      <trkpt lat="44.8208" lon="1.65397">
        <ele>276.7</ele>
        <time>2022-08-07T09:22:01Z</time>
      </trkpt>
      <trkpt lat="44.82081" lon="1.65388">
        <ele>276.4</ele>
        <time>2022-08-07T09:22:03Z</time>
      </trkpt>
      <trkpt lat="44.82086" lon="1.65379">
        <ele>276.1</ele>
        <time>2022-08-07T09:22:05Z</time>
      </trkpt>
      <trkpt lat="44.82089" lon="1.65369">
        <ele>275.9</ele>
        <time>2022-08-07T09:22:07Z</time>
      </trkpt>
      <trkpt lat="44.82092" lon="1.65358">
        <ele>275.7</ele>
        <time>2022-08-07T09:22:09Z</time>
      </trkpt>
      <trkpt lat="44.82096" lon="1.65346">
        <ele>275.5</ele>
        <time>2022-08-07T09:22:11Z</time>
      </trkpt>
      <trkpt lat="44.82099" lon="1.65335">
        <ele>275.2</ele>
        <time>2022-08-07T09:22:13Z</time>
      </trkpt>
      <trkpt lat="44.82103" lon="1.65326">
        <ele>275.2</ele>
        <time>2022-08-07T09:22:15Z</time>
      </trkpt>
      <trkpt lat="44.82106" lon="1.65315">
        <ele>275</ele>
        <time>2022-08-07T09:22:17Z</time>
      </trkpt>
      <trkpt lat="44.82108" lon="1.65304">
        <ele>274.9</ele>
        <time>2022-08-07T09:22:19Z</time>
      </trkpt>
      <trkpt lat="44.82111" lon="1.65293">
        <ele>274.9</ele>
        <time>2022-08-07T09:22:21Z</time>
      </trkpt>
      <trkpt lat="44.82113" lon="1.6528">
        <ele>274.7</ele>
        <time>2022-08-07T09:22:23Z</time>
      </trkpt>
      <trkpt lat="44.82114" lon="1.65266">
        <ele>274.6</ele>
        <time>2022-08-07T09:22:25Z</time>
      </trkpt>
      <trkpt lat="44.82113" lon="1.65251">
        <ele>274.4</ele>
        <time>2022-08-07T09:22:27Z</time>
      </trkpt>
      <trkpt lat="44.82112" lon="1.65237">
        <ele>274.2</ele>
        <time>2022-08-07T09:22:29Z</time>
      </trkpt>
      <trkpt lat="44.82109" lon="1.65221">
        <ele>274.1</ele>
        <time>2022-08-07T09:22:31Z</time>
      </trkpt>
      <trkpt lat="44.82106" lon="1.65206">
        <ele>274</ele>
        <time>2022-08-07T09:22:33Z</time>
      </trkpt>
      <trkpt lat="44.82103" lon="1.65191">
        <ele>273.9</ele>
        <time>2022-08-07T09:22:35Z</time>
      </trkpt>
      <trkpt lat="44.821" lon="1.65176">
        <ele>273.8</ele>
        <time>2022-08-07T09:22:37Z</time>
      </trkpt>
      <trkpt lat="44.82098" lon="1.65162">
        <ele>273.8</ele>
        <time>2022-08-07T09:22:39Z</time>
      </trkpt>
      <trkpt lat="44.82095" lon="1.65148">
        <ele>273.8</ele>
        <time>2022-08-07T09:22:41Z</time>
      </trkpt>
      <trkpt lat="44.82093" lon="1.65135">
        <ele>273.8</ele>
        <time>2022-08-07T09:22:43Z</time>
      </trkpt>
      <trkpt lat="44.8209" lon="1.65122">
        <ele>273.8</ele>
        <time>2022-08-07T09:22:45Z</time>
      </trkpt>
      <trkpt lat="44.82088" lon="1.65108">
        <ele>273.8</ele>
        <time>2022-08-07T09:22:47Z</time>
      </trkpt>
      <trkpt lat="44.82086" lon="1.65095">
        <ele>273.9</ele>
        <time>2022-08-07T09:22:49Z</time>
      </trkpt>
      <trkpt lat="44.82084" lon="1.65081">
        <ele>273.9</ele>
        <time>2022-08-07T09:22:51Z</time>
      </trkpt>
      <trkpt lat="44.82083" lon="1.65067">
        <ele>273.6</ele>
        <time>2022-08-07T09:22:53Z</time>
      </trkpt>
      <trkpt lat="44.82082" lon="1.65053">
        <ele>273.3</ele>
        <time>2022-08-07T09:22:55Z</time>
      </trkpt>
      <trkpt lat="44.82082" lon="1.65038">
        <ele>273</ele>
        <time>2022-08-07T09:22:57Z</time>
      </trkpt>
      <trkpt lat="44.82081" lon="1.65025">
        <ele>272.7</ele>
        <time>2022-08-07T09:22:59Z</time>
      </trkpt>
      <trkpt lat="44.82082" lon="1.65012">
        <ele>272.4</ele>
        <time>2022-08-07T09:23:01Z</time>
      </trkpt>
      <trkpt lat="44.82082" lon="1.64999">
        <ele>272.1</ele>
        <time>2022-08-07T09:23:03Z</time>
      </trkpt>
      <trkpt lat="44.82082" lon="1.64985">
        <ele>271.9</ele>
        <time>2022-08-07T09:23:05Z</time>
      </trkpt>
      <trkpt lat="44.82082" lon="1.64972">
        <ele>271.7</ele>
        <time>2022-08-07T09:23:07Z</time>
      </trkpt>
      <trkpt lat="44.82082" lon="1.64958">
        <ele>271.6</ele>
        <time>2022-08-07T09:23:09Z</time>
      </trkpt>
      <trkpt lat="44.82082" lon="1.64944">
        <ele>271.4</ele>
        <time>2022-08-07T09:23:11Z</time>
      </trkpt>
      <trkpt lat="44.82082" lon="1.64929">
        <ele>271.2</ele>
        <time>2022-08-07T09:23:13Z</time>
      </trkpt>
      <trkpt lat="44.82082" lon="1.64914">
        <ele>271</ele>
        <time>2022-08-07T09:23:15Z</time>
      </trkpt>
      <trkpt lat="44.82083" lon="1.64898">
        <ele>271</ele>
        <time>2022-08-07T09:23:17Z</time>
      </trkpt>
      <trkpt lat="44.82083" lon="1.64882">
        <ele>271</ele>
        <time>2022-08-07T09:23:19Z</time>
      </trkpt>
      <trkpt lat="44.82083" lon="1.64866">
        <ele>271</ele>
        <time>2022-08-07T09:23:21Z</time>
      </trkpt>
      <trkpt lat="44.82083" lon="1.64851">
        <ele>271</ele>
        <time>2022-08-07T09:23:23Z</time>
      </trkpt>
      <trkpt lat="44.82084" lon="1.64834">
        <ele>271</ele>
        <time>2022-08-07T09:23:25Z</time>
      </trkpt>
      <trkpt lat="44.82084" lon="1.64816">
        <ele>270.8</ele>
        <time>2022-08-07T09:23:27Z</time>
      </trkpt>
      <trkpt lat="44.82084" lon="1.64798">
        <ele>270.5</ele>
        <time>2022-08-07T09:23:29Z</time>
      </trkpt>
      <trkpt lat="44.82084" lon="1.64779">
        <ele>270.3</ele>
        <time>2022-08-07T09:23:31Z</time>
      </trkpt>
      <trkpt lat="44.82084" lon="1.64758">
        <ele>270.1</ele>
        <time>2022-08-07T09:23:33Z</time>
      </trkpt>
      <trkpt lat="44.82082" lon="1.64737">
        <ele>269.8</ele>
        <time>2022-08-07T09:23:35Z</time>
      </trkpt>
      <trkpt lat="44.82078" lon="1.64718">
        <ele>269.6</ele>
        <time>2022-08-07T09:23:37Z</time>
      </trkpt>
      <trkpt lat="44.82073" lon="1.647">
        <ele>269.4</ele>
        <time>2022-08-07T09:23:39Z</time>
      </trkpt>
      <trkpt lat="44.82067" lon="1.64682">
        <ele>269.3</ele>
        <time>2022-08-07T09:23:41Z</time>
      </trkpt>
      <trkpt lat="44.82062" lon="1.64666">
        <ele>269.2</ele>
        <time>2022-08-07T09:23:43Z</time>
      </trkpt>
      <trkpt lat="44.82057" lon="1.64651">
        <ele>269.1</ele>
        <time>2022-08-07T09:23:45Z</time>
      </trkpt>
      <trkpt lat="44.82053" lon="1.64637">
        <ele>268.9</ele>
        <time>2022-08-07T09:23:47Z</time>
      </trkpt>
      <trkpt lat="44.82048" lon="1.64623">
        <ele>268.8</ele>
        <time>2022-08-07T09:23:49Z</time>
      </trkpt>
      <trkpt lat="44.82044" lon="1.6461">
        <ele>268.8</ele>
        <time>2022-08-07T09:23:51Z</time>
      </trkpt>
      <trkpt lat="44.82041" lon="1.64598">
        <ele>268.7</ele>
        <time>2022-08-07T09:23:53Z</time>
      </trkpt>
      <trkpt lat="44.82039" lon="1.64583">
        <ele>268.6</ele>
        <time>2022-08-07T09:23:55Z</time>
      </trkpt>
      <trkpt lat="44.82037" lon="1.64569">
        <ele>268.3</ele>
        <time>2022-08-07T09:23:57Z</time>
      </trkpt>
      <trkpt lat="44.82036" lon="1.64554">
        <ele>267.9</ele>
        <time>2022-08-07T09:23:59Z</time>
      </trkpt>
      <trkpt lat="44.82037" lon="1.64541">
        <ele>267.5</ele>
        <time>2022-08-07T09:24:01Z</time>
      </trkpt>
      <trkpt lat="44.82036" lon="1.64527">
        <ele>267.2</ele>
        <time>2022-08-07T09:24:03Z</time>
      </trkpt>
      <trkpt lat="44.82037" lon="1.64515">
        <ele>266.8</ele>
        <time>2022-08-07T09:24:05Z</time>
      </trkpt>
      <trkpt lat="44.82036" lon="1.64504">
        <ele>266.5</ele>
        <time>2022-08-07T09:24:07Z</time>
      </trkpt>
      <trkpt lat="44.82037" lon="1.64492">
        <ele>266.6</ele>
        <time>2022-08-07T09:24:09Z</time>
      </trkpt>
      <trkpt lat="44.82037" lon="1.64482">
        <ele>266.9</ele>
        <time>2022-08-07T09:24:11Z</time>
      </trkpt>
      <trkpt lat="44.82037" lon="1.64471">
        <ele>267.1</ele>
        <time>2022-08-07T09:24:13Z</time>
      </trkpt>
      <trkpt lat="44.82037" lon="1.6446">
        <ele>267.4</ele>
        <time>2022-08-07T09:24:15Z</time>
      </trkpt>
      <trkpt lat="44.82037" lon="1.64451">
        <ele>267.6</ele>
        <time>2022-08-07T09:24:17Z</time>
      </trkpt>
      <trkpt lat="44.82037" lon="1.64441">
        <ele>267.9</ele>
        <time>2022-08-07T09:24:19Z</time>
      </trkpt>
      <trkpt lat="44.82038" lon="1.64431">
        <ele>268.1</ele>
        <time>2022-08-07T09:24:21Z</time>
      </trkpt>
      <trkpt lat="44.82037" lon="1.6442">
        <ele>268.4</ele>
        <time>2022-08-07T09:24:23Z</time>
      </trkpt>
      <trkpt lat="44.82037" lon="1.64411">
        <ele>268.6</ele>
        <time>2022-08-07T09:24:25Z</time>
      </trkpt>
      <trkpt lat="44.82037" lon="1.64401">
        <ele>268.9</ele>
        <time>2022-08-07T09:24:27Z</time>
      </trkpt>
      <trkpt lat="44.82037" lon="1.64391">
        <ele>269.2</ele>
        <time>2022-08-07T09:24:29Z</time>
      </trkpt>
      <trkpt lat="44.82037" lon="1.64381">
        <ele>269.6</ele>
        <time>2022-08-07T09:24:31Z</time>
      </trkpt>
      <trkpt lat="44.82037" lon="1.64371">
        <ele>269.9</ele>
        <time>2022-08-07T09:24:33Z</time>
      </trkpt>
      <trkpt lat="44.82037" lon="1.64361">
        <ele>270.2</ele>
        <time>2022-08-07T09:24:35Z</time>
      </trkpt>
      <trkpt lat="44.82038" lon="1.64351">
        <ele>270.5</ele>
        <time>2022-08-07T09:24:37Z</time>
      </trkpt>
      <trkpt lat="44.82038" lon="1.6434">
        <ele>270.8</ele>
        <time>2022-08-07T09:24:39Z</time>
      </trkpt>
      <trkpt lat="44.82037" lon="1.64329">
        <ele>271</ele>
        <time>2022-08-07T09:24:41Z</time>
      </trkpt>
      <trkpt lat="44.82038" lon="1.64319">
        <ele>271</ele>
        <time>2022-08-07T09:24:43Z</time>
      </trkpt>
      <trkpt lat="44.82038" lon="1.64308">
        <ele>271</ele>
        <time>2022-08-07T09:24:45Z</time>
      </trkpt>
      <trkpt lat="44.82038" lon="1.64297">
        <ele>271</ele>
        <time>2022-08-07T09:24:47Z</time>
      </trkpt>
      <trkpt lat="44.82038" lon="1.64287">
        <ele>271</ele>
        <time>2022-08-07T09:24:49Z</time>
      </trkpt>
      <trkpt lat="44.82038" lon="1.64276">
        <ele>271.1</ele>
        <time>2022-08-07T09:24:51Z</time>
      </trkpt>
      <trkpt lat="44.82039" lon="1.64264">
        <ele>271.1</ele>
        <time>2022-08-07T09:24:53Z</time>
      </trkpt>
      <trkpt lat="44.82039" lon="1.64254">
        <ele>271.1</ele>
        <time>2022-08-07T09:24:55Z</time>
      </trkpt>
      <trkpt lat="44.82039" lon="1.64242">
        <ele>271.1</ele>
        <time>2022-08-07T09:24:57Z</time>
      </trkpt>
      <trkpt lat="44.82039" lon="1.6423">
        <ele>271.2</ele>
        <time>2022-08-07T09:24:59Z</time>
      </trkpt>
      <trkpt lat="44.82039" lon="1.64218">
        <ele>271.2</ele>
        <time>2022-08-07T09:25:01Z</time>
      </trkpt>
      <trkpt lat="44.8204" lon="1.64204">
        <ele>271.3</ele>
        <time>2022-08-07T09:25:03Z</time>
      </trkpt>
      <trkpt lat="44.82042" lon="1.64188">
        <ele>271.4</ele>
        <time>2022-08-07T09:25:05Z</time>
      </trkpt>
      <trkpt lat="44.82046" lon="1.64172">
        <ele>271.4</ele>
        <time>2022-08-07T09:25:07Z</time>
      </trkpt>
      <trkpt lat="44.82052" lon="1.64154">
        <ele>271.1</ele>
        <time>2022-08-07T09:25:09Z</time>
      </trkpt>
      <trkpt lat="44.82061" lon="1.64137">
        <ele>270.5</ele>
        <time>2022-08-07T09:25:11Z</time>
      </trkpt>
      <trkpt lat="44.8207" lon="1.64122">
        <ele>269.8</ele>
        <time>2022-08-07T09:25:13Z</time>
      </trkpt>
      <trkpt lat="44.82079" lon="1.64106">
        <ele>269</ele>
        <time>2022-08-07T09:25:15Z</time>
      </trkpt>
      <trkpt lat="44.82088" lon="1.64089">
        <ele>267.8</ele>
        <time>2022-08-07T09:25:17Z</time>
      </trkpt>
      <trkpt lat="44.82097" lon="1.64073">
        <ele>266.7</ele>
        <time>2022-08-07T09:25:19Z</time>
      </trkpt>
      <trkpt lat="44.82106" lon="1.64055">
        <ele>265.9</ele>
        <time>2022-08-07T09:25:21Z</time>
      </trkpt>
      <trkpt lat="44.82115" lon="1.64038">
        <ele>265</ele>
        <time>2022-08-07T09:25:23Z</time>
      </trkpt>
      <trkpt lat="44.82124" lon="1.64021">
        <ele>264.1</ele>
        <time>2022-08-07T09:25:25Z</time>
      </trkpt>
      <trkpt lat="44.82135" lon="1.64003">
        <ele>263.1</ele>
        <time>2022-08-07T09:25:27Z</time>
      </trkpt>
      <trkpt lat="44.82144" lon="1.63984">
        <ele>263</ele>
        <time>2022-08-07T09:25:29Z</time>
      </trkpt>
      <trkpt lat="44.82154" lon="1.63966">
        <ele>263.1</ele>
        <time>2022-08-07T09:25:31Z</time>
      </trkpt>
      <trkpt lat="44.82164" lon="1.63947">
        <ele>263.4</ele>
        <time>2022-08-07T09:25:33Z</time>
      </trkpt>
      <trkpt lat="44.82174" lon="1.6393">
        <ele>263.4</ele>
        <time>2022-08-07T09:25:35Z</time>
      </trkpt>
      <trkpt lat="44.82183" lon="1.63913">
        <ele>263.4</ele>
        <time>2022-08-07T09:25:37Z</time>
      </trkpt>
      <trkpt lat="44.82191" lon="1.63898">
        <ele>263.5</ele>
        <time>2022-08-07T09:25:39Z</time>
      </trkpt>
      <trkpt lat="44.82199" lon="1.63883">
        <ele>263.6</ele>
        <time>2022-08-07T09:25:41Z</time>
      </trkpt>
      <trkpt lat="44.82207" lon="1.63868">
        <ele>263.9</ele>
        <time>2022-08-07T09:25:43Z</time>
      </trkpt>
      <trkpt lat="44.82213" lon="1.63853">
        <ele>264.3</ele>
        <time>2022-08-07T09:25:45Z</time>
      </trkpt>
      <trkpt lat="44.8222" lon="1.63839">
        <ele>264.8</ele>
        <time>2022-08-07T09:25:47Z</time>
      </trkpt>
      <trkpt lat="44.82225" lon="1.63826">
        <ele>265.2</ele>
        <time>2022-08-07T09:25:49Z</time>
      </trkpt>
      <trkpt lat="44.82232" lon="1.63813">
        <ele>265.4</ele>
        <time>2022-08-07T09:25:51Z</time>
      </trkpt>
      <trkpt lat="44.82237" lon="1.63801">
        <ele>265.7</ele>
        <time>2022-08-07T09:25:53Z</time>
      </trkpt>
      <trkpt lat="44.82241" lon="1.63792">
        <ele>266</ele>
        <time>2022-08-07T09:25:55Z</time>
      </trkpt>
      <trkpt lat="44.82246" lon="1.63784">
        <ele>266.2</ele>
        <time>2022-08-07T09:25:57Z</time>
      </trkpt>
      <trkpt lat="44.82249" lon="1.63775">
        <ele>266.5</ele>
        <time>2022-08-07T09:25:59Z</time>
      </trkpt>
      <trkpt lat="44.82252" lon="1.63766">
        <ele>267</ele>
        <time>2022-08-07T09:26:01Z</time>
      </trkpt>
      <trkpt lat="44.82254" lon="1.63758">
        <ele>267.4</ele>
        <time>2022-08-07T09:26:03Z</time>
      </trkpt>
      <trkpt lat="44.82258" lon="1.63751">
        <ele>267.7</ele>
        <time>2022-08-07T09:26:05Z</time>
      </trkpt>
      <trkpt lat="44.82261" lon="1.63744">
        <ele>267.9</ele>
        <time>2022-08-07T09:26:07Z</time>
      </trkpt>
      <trkpt lat="44.82263" lon="1.63737">
        <ele>267.9</ele>
        <time>2022-08-07T09:26:09Z</time>
      </trkpt>
      <trkpt lat="44.82266" lon="1.6373">
        <ele>268</ele>
        <time>2022-08-07T09:26:11Z</time>
      </trkpt>
      <trkpt lat="44.82269" lon="1.63724">
        <ele>268</ele>
        <time>2022-08-07T09:26:13Z</time>
      </trkpt>
      <trkpt lat="44.82271" lon="1.63718">
        <ele>268.1</ele>
        <time>2022-08-07T09:26:15Z</time>
      </trkpt>
      <trkpt lat="44.82274" lon="1.63711">
        <ele>268.1</ele>
        <time>2022-08-07T09:26:17Z</time>
      </trkpt>
      <trkpt lat="44.82276" lon="1.63705">
        <ele>268.1</ele>
        <time>2022-08-07T09:26:19Z</time>
      </trkpt>
      <trkpt lat="44.82278" lon="1.63699">
        <ele>268.1</ele>
        <time>2022-08-07T09:26:21Z</time>
      </trkpt>
      <trkpt lat="44.8228" lon="1.63693">
        <ele>268.1</ele>
        <time>2022-08-07T09:26:23Z</time>
      </trkpt>
      <trkpt lat="44.82283" lon="1.63688">
        <ele>268.1</ele>
        <time>2022-08-07T09:26:25Z</time>
      </trkpt>
      <trkpt lat="44.82286" lon="1.63682">
        <ele>268.1</ele>
        <time>2022-08-07T09:26:27Z</time>
      </trkpt>
      <trkpt lat="44.82288" lon="1.63676">
        <ele>268.1</ele>
        <time>2022-08-07T09:26:29Z</time>
      </trkpt>
      <trkpt lat="44.82291" lon="1.63669">
        <ele>268</ele>
        <time>2022-08-07T09:26:31Z</time>
      </trkpt>
      <trkpt lat="44.82294" lon="1.63662">
        <ele>267.9</ele>
        <time>2022-08-07T09:26:33Z</time>
      </trkpt>
      <trkpt lat="44.82297" lon="1.63654">
        <ele>267.8</ele>
        <time>2022-08-07T09:26:35Z</time>
      </trkpt>
      <trkpt lat="44.823" lon="1.63645">
        <ele>267.7</ele>
        <time>2022-08-07T09:26:37Z</time>
      </trkpt>
      <trkpt lat="44.82304" lon="1.63636">
        <ele>267.6</ele>
        <time>2022-08-07T09:26:39Z</time>
      </trkpt>
      <trkpt lat="44.82307" lon="1.63626">
        <ele>267.4</ele>
        <time>2022-08-07T09:26:41Z</time>
      </trkpt>
      <trkpt lat="44.82311" lon="1.63616">
        <ele>267.3</ele>
        <time>2022-08-07T09:26:43Z</time>
      </trkpt>
      <trkpt lat="44.82314" lon="1.63605">
        <ele>267.1</ele>
        <time>2022-08-07T09:26:45Z</time>
      </trkpt>
      <trkpt lat="44.82318" lon="1.63594">
        <ele>266.9</ele>
        <time>2022-08-07T09:26:47Z</time>
      </trkpt>
      <trkpt lat="44.82321" lon="1.63583">
        <ele>266.7</ele>
        <time>2022-08-07T09:26:49Z</time>
      </trkpt>
      <trkpt lat="44.82325" lon="1.63572">
        <ele>266.8</ele>
        <time>2022-08-07T09:26:51Z</time>
      </trkpt>
      <trkpt lat="44.82329" lon="1.6356">
        <ele>266.8</ele>
        <time>2022-08-07T09:26:53Z</time>
      </trkpt>
      <trkpt lat="44.82333" lon="1.63547">
        <ele>266.9</ele>
        <time>2022-08-07T09:26:55Z</time>
      </trkpt>
      <trkpt lat="44.82336" lon="1.63533">
        <ele>266.9</ele>
        <time>2022-08-07T09:26:57Z</time>
      </trkpt>
      <trkpt lat="44.8234" lon="1.63518">
        <ele>266.8</ele>
        <time>2022-08-07T09:26:59Z</time>
      </trkpt>
      <trkpt lat="44.82344" lon="1.63501">
        <ele>266.6</ele>
        <time>2022-08-07T09:27:01Z</time>
      </trkpt>
      <trkpt lat="44.82348" lon="1.63484">
        <ele>266.5</ele>
        <time>2022-08-07T09:27:03Z</time>
      </trkpt>
      <trkpt lat="44.82353" lon="1.63465">
        <ele>266.4</ele>
        <time>2022-08-07T09:27:05Z</time>
      </trkpt>
      <trkpt lat="44.82357" lon="1.63448">
        <ele>266.3</ele>
        <time>2022-08-07T09:27:07Z</time>
      </trkpt>
      <trkpt lat="44.8236" lon="1.63434">
        <ele>266.3</ele>
        <time>2022-08-07T09:27:09Z</time>
      </trkpt>
      <trkpt lat="44.82363" lon="1.63421">
        <ele>266.3</ele>
        <time>2022-08-07T09:27:11Z</time>
      </trkpt>
      <trkpt lat="44.82367" lon="1.63409">
        <ele>266.1</ele>
        <time>2022-08-07T09:27:13Z</time>
      </trkpt>
      <trkpt lat="44.82369" lon="1.63397">
        <ele>266</ele>
        <time>2022-08-07T09:27:15Z</time>
      </trkpt>
      <trkpt lat="44.82371" lon="1.63386">
        <ele>265.9</ele>
        <time>2022-08-07T09:27:17Z</time>
      </trkpt>
      <trkpt lat="44.82374" lon="1.63377">
        <ele>265.8</ele>
        <time>2022-08-07T09:27:19Z</time>
      </trkpt>
      <trkpt lat="44.82376" lon="1.63367">
        <ele>265.8</ele>
        <time>2022-08-07T09:27:21Z</time>
      </trkpt>
      <trkpt lat="44.82379" lon="1.63358">
        <ele>265.7</ele>
        <time>2022-08-07T09:27:23Z</time>
      </trkpt>
      <trkpt lat="44.82381" lon="1.63349">
        <ele>265.7</ele>
        <time>2022-08-07T09:27:25Z</time>
      </trkpt>
      <trkpt lat="44.82383" lon="1.63339">
        <ele>265.7</ele>
        <time>2022-08-07T09:27:27Z</time>
      </trkpt>
      <trkpt lat="44.82384" lon="1.63331">
        <ele>265.7</ele>
        <time>2022-08-07T09:27:29Z</time>
      </trkpt>
      <trkpt lat="44.82387" lon="1.63322">
        <ele>265.5</ele>
        <time>2022-08-07T09:27:31Z</time>
      </trkpt>
      <trkpt lat="44.82389" lon="1.63313">
        <ele>265.3</ele>
        <time>2022-08-07T09:27:33Z</time>
      </trkpt>
      <trkpt lat="44.82392" lon="1.63303">
        <ele>265.2</ele>
        <time>2022-08-07T09:27:35Z</time>
      </trkpt>
      <trkpt lat="44.82395" lon="1.63295">
        <ele>265</ele>
        <time>2022-08-07T09:27:37Z</time>
      </trkpt>
      <trkpt lat="44.82397" lon="1.63287">
        <ele>265</ele>
        <time>2022-08-07T09:27:39Z</time>
      </trkpt>
      <trkpt lat="44.824" lon="1.6328">
        <ele>264.9</ele>
        <time>2022-08-07T09:27:41Z</time>
      </trkpt>
      <trkpt lat="44.82403" lon="1.63273">
        <ele>264.9</ele>
        <time>2022-08-07T09:27:43Z</time>
      </trkpt>
      <trkpt lat="44.82406" lon="1.63267">
        <ele>264.9</ele>
        <time>2022-08-07T09:27:45Z</time>
      </trkpt>
      <trkpt lat="44.82408" lon="1.63264">
        <ele>264.9</ele>
        <time>2022-08-07T09:27:47Z</time>
      </trkpt>
      <trkpt lat="44.82408" lon="1.63264">
        <ele>264.9</ele>
        <time>2022-08-07T09:27:49Z</time>
      </trkpt>
      <trkpt lat="44.82408" lon="1.63264">
        <ele>264.9</ele>
        <time>2022-08-07T09:27:51Z</time>
      </trkpt>
      <trkpt lat="44.82409" lon="1.63264">
        <ele>264.9</ele>
        <time>2022-08-07T09:27:53Z</time>
      </trkpt>
      <trkpt lat="44.82409" lon="1.63264">
        <ele>264.9</ele>
        <time>2022-08-07T09:27:55Z</time>
      </trkpt>
      <trkpt lat="44.82408" lon="1.63264">
        <ele>264.9</ele>
        <time>2022-08-07T09:27:57Z</time>
      </trkpt>
      <trkpt lat="44.82398" lon="1.63253">
        <ele>265.2</ele>
        <time>2022-08-07T09:28:19Z</time>
      </trkpt>
      <trkpt lat="44.82394" lon="1.63252">
        <ele>265.3</ele>
        <time>2022-08-07T09:28:21Z</time>
      </trkpt>
      <trkpt lat="44.8239" lon="1.63252">
        <ele>265.3</ele>
        <time>2022-08-07T09:28:23Z</time>
      </trkpt>
      <trkpt lat="44.82388" lon="1.63249">
        <ele>265.3</ele>
        <time>2022-08-07T09:28:25Z</time>
      </trkpt>
      <trkpt lat="44.82383" lon="1.63247">
        <ele>265.4</ele>
        <time>2022-08-07T09:28:27Z</time>
      </trkpt>
      <trkpt lat="44.82379" lon="1.63245">
        <ele>265.4</ele>
        <time>2022-08-07T09:28:29Z</time>
      </trkpt>
      <trkpt lat="44.82374" lon="1.63243">
        <ele>265.4</ele>
        <time>2022-08-07T09:28:31Z</time>
      </trkpt>
      <trkpt lat="44.82369" lon="1.63242">
        <ele>265.4</ele>
        <time>2022-08-07T09:28:33Z</time>
      </trkpt>
      <trkpt lat="44.82365" lon="1.6324">
        <ele>265.4</ele>
        <time>2022-08-07T09:28:35Z</time>
      </trkpt>
      <trkpt lat="44.82361" lon="1.63239">
        <ele>265.4</ele>
        <time>2022-08-07T09:28:37Z</time>
      </trkpt>
      <trkpt lat="44.82357" lon="1.63237">
        <ele>265.4</ele>
        <time>2022-08-07T09:28:39Z</time>
      </trkpt>
      <trkpt lat="44.82352" lon="1.63236">
        <ele>265.4</ele>
        <time>2022-08-07T09:28:41Z</time>
      </trkpt>
      <trkpt lat="44.82347" lon="1.63234">
        <ele>265.4</ele>
        <time>2022-08-07T09:28:43Z</time>
      </trkpt>
      <trkpt lat="44.82341" lon="1.63232">
        <ele>265.3</ele>
        <time>2022-08-07T09:28:45Z</time>
      </trkpt>
      <trkpt lat="44.82335" lon="1.6323">
        <ele>265.3</ele>
        <time>2022-08-07T09:28:47Z</time>
      </trkpt>
      <trkpt lat="44.82328" lon="1.63227">
        <ele>264.9</ele>
        <time>2022-08-07T09:28:49Z</time>
      </trkpt>
      <trkpt lat="44.82317" lon="1.63221">
        <ele>264.2</ele>
        <time>2022-08-07T09:28:51Z</time>
      </trkpt>
      <trkpt lat="44.82308" lon="1.63219">
        <ele>263.7</ele>
        <time>2022-08-07T09:28:53Z</time>
      </trkpt>
      <trkpt lat="44.82299" lon="1.63215">
        <ele>263.2</ele>
        <time>2022-08-07T09:28:55Z</time>
      </trkpt>
      <trkpt lat="44.82289" lon="1.63211">
        <ele>262.5</ele>
        <time>2022-08-07T09:28:57Z</time>
      </trkpt>
      <trkpt lat="44.82279" lon="1.63207">
        <ele>261.8</ele>
        <time>2022-08-07T09:28:59Z</time>
      </trkpt>
      <trkpt lat="44.82268" lon="1.63205">
        <ele>261.2</ele>
        <time>2022-08-07T09:29:01Z</time>
      </trkpt>
      <trkpt lat="44.82255" lon="1.63204">
        <ele>260.5</ele>
        <time>2022-08-07T09:29:03Z</time>
      </trkpt>
      <trkpt lat="44.82241" lon="1.63204">
        <ele>260</ele>
        <time>2022-08-07T09:29:05Z</time>
      </trkpt>
      <trkpt lat="44.82226" lon="1.63203">
        <ele>259.5</ele>
        <time>2022-08-07T09:29:07Z</time>
      </trkpt>
      <trkpt lat="44.82209" lon="1.63197">
        <ele>258.8</ele>
        <time>2022-08-07T09:29:09Z</time>
      </trkpt>
      <trkpt lat="44.82194" lon="1.6319">
        <ele>257.7</ele>
        <time>2022-08-07T09:29:11Z</time>
      </trkpt>
      <trkpt lat="44.82179" lon="1.63183">
        <ele>256.8</ele>
        <time>2022-08-07T09:29:13Z</time>
      </trkpt>
      <trkpt lat="44.82164" lon="1.63178">
        <ele>255.9</ele>
        <time>2022-08-07T09:29:15Z</time>
      </trkpt>
      <trkpt lat="44.82147" lon="1.63173">
        <ele>255.1</ele>
        <time>2022-08-07T09:29:17Z</time>
      </trkpt>
      <trkpt lat="44.82132" lon="1.63169">
        <ele>254.3</ele>
        <time>2022-08-07T09:29:19Z</time>
      </trkpt>
      <trkpt lat="44.82116" lon="1.63166">
        <ele>253.7</ele>
        <time>2022-08-07T09:29:21Z</time>
      </trkpt>
      <trkpt lat="44.821" lon="1.63162">
        <ele>253.2</ele>
        <time>2022-08-07T09:29:23Z</time>
      </trkpt>
      <trkpt lat="44.82085" lon="1.63154">
        <ele>252.4</ele>
        <time>2022-08-07T09:29:25Z</time>
      </trkpt>
      <trkpt lat="44.8207" lon="1.63141">
        <ele>251.5</ele>
        <time>2022-08-07T09:29:27Z</time>
      </trkpt>
      <trkpt lat="44.82057" lon="1.63127">
        <ele>250.5</ele>
        <time>2022-08-07T09:29:29Z</time>
      </trkpt>
      <trkpt lat="44.82044" lon="1.63114">
        <ele>249.4</ele>
        <time>2022-08-07T09:29:31Z</time>
      </trkpt>
      <trkpt lat="44.82029" lon="1.63103">
        <ele>248.3</ele>
        <time>2022-08-07T09:29:33Z</time>
      </trkpt>
      <trkpt lat="44.82012" lon="1.63096">
        <ele>247.3</ele>
        <time>2022-08-07T09:29:35Z</time>
      </trkpt>
      <trkpt lat="44.81996" lon="1.63089">
        <ele>246.4</ele>
        <time>2022-08-07T09:29:37Z</time>
      </trkpt>
      <trkpt lat="44.8198" lon="1.63081">
        <ele>245.7</ele>
        <time>2022-08-07T09:29:39Z</time>
      </trkpt>
      <trkpt lat="44.81963" lon="1.63071">
        <ele>245</ele>
        <time>2022-08-07T09:29:41Z</time>
      </trkpt>
      <trkpt lat="44.81948" lon="1.6306">
        <ele>244.4</ele>
        <time>2022-08-07T09:29:43Z</time>
      </trkpt>
      <trkpt lat="44.8193" lon="1.63049">
        <ele>243.9</ele>
        <time>2022-08-07T09:29:45Z</time>
      </trkpt>
      <trkpt lat="44.81913" lon="1.63039">
        <ele>243.3</ele>
        <time>2022-08-07T09:29:47Z</time>
      </trkpt>
      <trkpt lat="44.81896" lon="1.63029">
        <ele>242.2</ele>
        <time>2022-08-07T09:29:49Z</time>
      </trkpt>
      <trkpt lat="44.8188" lon="1.63018">
        <ele>241</ele>
        <time>2022-08-07T09:29:51Z</time>
      </trkpt>
      <trkpt lat="44.81863" lon="1.63008">
        <ele>239.8</ele>
        <time>2022-08-07T09:29:53Z</time>
      </trkpt>
      <trkpt lat="44.81846" lon="1.62996">
        <ele>238.6</ele>
        <time>2022-08-07T09:29:55Z</time>
      </trkpt>
      <trkpt lat="44.8183" lon="1.62985">
        <ele>238</ele>
        <time>2022-08-07T09:29:57Z</time>
      </trkpt>
      <trkpt lat="44.81814" lon="1.62973">
        <ele>238</ele>
        <time>2022-08-07T09:29:59Z</time>
      </trkpt>
      <trkpt lat="44.81799" lon="1.62961">
        <ele>238</ele>
        <time>2022-08-07T09:30:01Z</time>
      </trkpt>
      <trkpt lat="44.81785" lon="1.62951">
        <ele>238</ele>
        <time>2022-08-07T09:30:03Z</time>
      </trkpt>
      <trkpt lat="44.81771" lon="1.62941">
        <ele>238</ele>
        <time>2022-08-07T09:30:05Z</time>
      </trkpt>
      <trkpt lat="44.81757" lon="1.62931">
        <ele>238</ele>
        <time>2022-08-07T09:30:07Z</time>
      </trkpt>
      <trkpt lat="44.81743" lon="1.62924">
        <ele>237.8</ele>
        <time>2022-08-07T09:30:09Z</time>
      </trkpt>
      <trkpt lat="44.81729" lon="1.62918">
        <ele>237.5</ele>
        <time>2022-08-07T09:30:11Z</time>
      </trkpt>
      <trkpt lat="44.81716" lon="1.62912">
        <ele>237.3</ele>
        <time>2022-08-07T09:30:13Z</time>
      </trkpt>
      <trkpt lat="44.81704" lon="1.62907">
        <ele>237.1</ele>
        <time>2022-08-07T09:30:15Z</time>
      </trkpt>
      <trkpt lat="44.81691" lon="1.62903">
        <ele>236.8</ele>
        <time>2022-08-07T09:30:17Z</time>
      </trkpt>
      <trkpt lat="44.81679" lon="1.62899">
        <ele>236.5</ele>
        <time>2022-08-07T09:30:19Z</time>
      </trkpt>
      <trkpt lat="44.81669" lon="1.62892">
        <ele>236.3</ele>
        <time>2022-08-07T09:30:21Z</time>
      </trkpt>
      <trkpt lat="44.81658" lon="1.62885">
        <ele>236.9</ele>
        <time>2022-08-07T09:30:23Z</time>
      </trkpt>
      <trkpt lat="44.81648" lon="1.62878">
        <ele>237.7</ele>
        <time>2022-08-07T09:30:25Z</time>
      </trkpt>
      <trkpt lat="44.81638" lon="1.62872">
        <ele>238.4</ele>
        <time>2022-08-07T09:30:27Z</time>
      </trkpt>
      <trkpt lat="44.81629" lon="1.62865">
        <ele>239.1</ele>
        <time>2022-08-07T09:30:29Z</time>
      </trkpt>
      <trkpt lat="44.81621" lon="1.62859">
        <ele>239.8</ele>
        <time>2022-08-07T09:30:31Z</time>
      </trkpt>
      <trkpt lat="44.81612" lon="1.62854">
        <ele>240.5</ele>
        <time>2022-08-07T09:30:33Z</time>
      </trkpt>
      <trkpt lat="44.81606" lon="1.62849">
        <ele>241</ele>
        <time>2022-08-07T09:30:35Z</time>
      </trkpt>
      <trkpt lat="44.816" lon="1.62845">
        <ele>241.5</ele>
        <time>2022-08-07T09:30:37Z</time>
      </trkpt>
      <trkpt lat="44.81595" lon="1.62842">
        <ele>242</ele>
        <time>2022-08-07T09:30:39Z</time>
      </trkpt>
      <trkpt lat="44.81591" lon="1.6284">
        <ele>242.3</ele>
        <time>2022-08-07T09:30:41Z</time>
      </trkpt>
      <trkpt lat="44.81586" lon="1.62838">
        <ele>242.7</ele>
        <time>2022-08-07T09:30:43Z</time>
      </trkpt>
      <trkpt lat="44.81581" lon="1.62836">
        <ele>243</ele>
        <time>2022-08-07T09:30:45Z</time>
      </trkpt>
      <trkpt lat="44.81577" lon="1.62834">
        <ele>243.3</ele>
        <time>2022-08-07T09:30:47Z</time>
      </trkpt>
      <trkpt lat="44.81573" lon="1.62831">
        <ele>243.6</ele>
        <time>2022-08-07T09:30:49Z</time>
      </trkpt>
      <trkpt lat="44.81569" lon="1.6283">
        <ele>243.9</ele>
        <time>2022-08-07T09:30:51Z</time>
      </trkpt>
      <trkpt lat="44.81565" lon="1.62828">
        <ele>244.1</ele>
        <time>2022-08-07T09:30:53Z</time>
      </trkpt>
      <trkpt lat="44.81561" lon="1.62826">
        <ele>244.4</ele>
        <time>2022-08-07T09:30:55Z</time>
      </trkpt>
      <trkpt lat="44.81558" lon="1.62824">
        <ele>244.6</ele>
        <time>2022-08-07T09:30:57Z</time>
      </trkpt>
      <trkpt lat="44.81554" lon="1.62822">
        <ele>244.9</ele>
        <time>2022-08-07T09:30:59Z</time>
      </trkpt>
      <trkpt lat="44.81551" lon="1.6282">
        <ele>245.1</ele>
        <time>2022-08-07T09:31:01Z</time>
      </trkpt>
      <trkpt lat="44.81548" lon="1.62818">
        <ele>245.4</ele>
        <time>2022-08-07T09:31:03Z</time>
      </trkpt>
      <trkpt lat="44.81544" lon="1.62816">
        <ele>245.6</ele>
        <time>2022-08-07T09:31:05Z</time>
      </trkpt>
      <trkpt lat="44.8154" lon="1.62813">
        <ele>245.9</ele>
        <time>2022-08-07T09:31:07Z</time>
      </trkpt>
      <trkpt lat="44.81536" lon="1.62809">
        <ele>246.3</ele>
        <time>2022-08-07T09:31:09Z</time>
      </trkpt>
      <trkpt lat="44.81533" lon="1.62808">
        <ele>246.5</ele>
        <time>2022-08-07T09:31:11Z</time>
      </trkpt>
      <trkpt lat="44.8153" lon="1.62805">
        <ele>246.7</ele>
        <time>2022-08-07T09:31:13Z</time>
      </trkpt>
      <trkpt lat="44.81527" lon="1.62802">
        <ele>247</ele>
        <time>2022-08-07T09:31:15Z</time>
      </trkpt>
      <trkpt lat="44.81523" lon="1.628">
        <ele>247.2</ele>
        <time>2022-08-07T09:31:17Z</time>
      </trkpt>
      <trkpt lat="44.8152" lon="1.62798">
        <ele>247.4</ele>
        <time>2022-08-07T09:31:19Z</time>
      </trkpt>
      <trkpt lat="44.81517" lon="1.62796">
        <ele>247.6</ele>
        <time>2022-08-07T09:31:21Z</time>
      </trkpt>
      <trkpt lat="44.81515" lon="1.62795">
        <ele>247.7</ele>
        <time>2022-08-07T09:31:23Z</time>
      </trkpt>
      <trkpt lat="44.81515" lon="1.62796">
        <ele>247.7</ele>
        <time>2022-08-07T09:31:25Z</time>
      </trkpt>
      <trkpt lat="44.81515" lon="1.62796">
        <ele>247.7</ele>
        <time>2022-08-07T09:31:27Z</time>
      </trkpt>
      <trkpt lat="44.81515" lon="1.62796">
        <ele>247.7</ele>
        <time>2022-08-07T09:31:29Z</time>
      </trkpt>
      <trkpt lat="44.81515" lon="1.62796">
        <ele>247.7</ele>
        <time>2022-08-07T09:31:31Z</time>
      </trkpt>
      <trkpt lat="44.81515" lon="1.62796">
        <ele>247.7</ele>
        <time>2022-08-07T09:31:33Z</time>
      </trkpt>
      <trkpt lat="44.81515" lon="1.62796">
        <ele>247.7</ele>
        <time>2022-08-07T09:31:35Z</time>
      </trkpt>
      <trkpt lat="44.81515" lon="1.62796">
        <ele>247.7</ele>
        <time>2022-08-07T09:31:37Z</time>
      </trkpt>
      <trkpt lat="44.81515" lon="1.62796">
        <ele>247.7</ele>
        <time>2022-08-07T09:31:39Z</time>
      </trkpt>
      <trkpt lat="44.81515" lon="1.62796">
        <ele>247.7</ele>
        <time>2022-08-07T09:31:41Z</time>
      </trkpt>
      <trkpt lat="44.81515" lon="1.62796">
        <ele>247.7</ele>
        <time>2022-08-07T09:31:43Z</time>
      </trkpt>
      <trkpt lat="44.81515" lon="1.62796">
        <ele>247.7</ele>
        <time>2022-08-07T09:31:45Z</time>
      </trkpt>
      <trkpt lat="44.81514" lon="1.62796">
        <ele>247.7</ele>
        <time>2022-08-07T09:31:47Z</time>
      </trkpt>
      <trkpt lat="44.81512" lon="1.62796">
        <ele>247.8</ele>
        <time>2022-08-07T09:31:49Z</time>
      </trkpt>
      <trkpt lat="44.81513" lon="1.62793">
        <ele>247.9</ele>
        <time>2022-08-07T09:31:51Z</time>
      </trkpt>
      <trkpt lat="44.81513" lon="1.62793">
        <ele>247.9</ele>
        <time>2022-08-07T09:31:53Z</time>
      </trkpt>
      <trkpt lat="44.81513" lon="1.62793">
        <ele>247.9</ele>
        <time>2022-08-07T09:31:55Z</time>
      </trkpt>
      <trkpt lat="44.81514" lon="1.62792">
        <ele>247.9</ele>
        <time>2022-08-07T09:31:57Z</time>
      </trkpt>
      <trkpt lat="44.81514" lon="1.62792">
        <ele>247.9</ele>
        <time>2022-08-07T09:31:59Z</time>
      </trkpt>
      <trkpt lat="44.81514" lon="1.62792">
        <ele>247.9</ele>
        <time>2022-08-07T09:32:01Z</time>
      </trkpt>
      <trkpt lat="44.81514" lon="1.62792">
        <ele>247.9</ele>
        <time>2022-08-07T09:32:03Z</time>
      </trkpt>
      <trkpt lat="44.81514" lon="1.62791">
        <ele>247.9</ele>
        <time>2022-08-07T09:32:05Z</time>
      </trkpt>
      <trkpt lat="44.81514" lon="1.62791">
        <ele>247.9</ele>
        <time>2022-08-07T09:32:07Z</time>
      </trkpt>
      <trkpt lat="44.81514" lon="1.62791">
        <ele>247.9</ele>
        <time>2022-08-07T09:32:09Z</time>
      </trkpt>
      <trkpt lat="44.81514" lon="1.62791">
        <ele>247.9</ele>
        <time>2022-08-07T09:32:11Z</time>
      </trkpt>
      <trkpt lat="44.81514" lon="1.62791">
        <ele>247.9</ele>
        <time>2022-08-07T09:32:13Z</time>
      </trkpt>
      <trkpt lat="44.81514" lon="1.6279">
        <ele>247.9</ele>
        <time>2022-08-07T09:32:15Z</time>
      </trkpt>
      <trkpt lat="44.81516" lon="1.62788">
        <ele>248</ele>
        <time>2022-08-07T09:32:17Z</time>
      </trkpt>
      <trkpt lat="44.81517" lon="1.62785">
        <ele>248.1</ele>
        <time>2022-08-07T09:32:19Z</time>
      </trkpt>
      <trkpt lat="44.81518" lon="1.62781">
        <ele>248.2</ele>
        <time>2022-08-07T09:32:21Z</time>
      </trkpt>
      <trkpt lat="44.81519" lon="1.62775">
        <ele>248.3</ele>
        <time>2022-08-07T09:32:23Z</time>
      </trkpt>
      <trkpt lat="44.8152" lon="1.6277">
        <ele>248.5</ele>
        <time>2022-08-07T09:32:25Z</time>
      </trkpt>
      <trkpt lat="44.81521" lon="1.62765">
        <ele>248.7</ele>
        <time>2022-08-07T09:32:27Z</time>
      </trkpt>
      <trkpt lat="44.81522" lon="1.62759">
        <ele>248.8</ele>
        <time>2022-08-07T09:32:29Z</time>
      </trkpt>
      <trkpt lat="44.81523" lon="1.62754">
        <ele>249</ele>
        <time>2022-08-07T09:32:31Z</time>
      </trkpt>
      <trkpt lat="44.81525" lon="1.62748">
        <ele>249.2</ele>
        <time>2022-08-07T09:32:33Z</time>
      </trkpt>
      <trkpt lat="44.81526" lon="1.62742">
        <ele>249.5</ele>
        <time>2022-08-07T09:32:35Z</time>
      </trkpt>
      <trkpt lat="44.81527" lon="1.62737">
        <ele>249.7</ele>
        <time>2022-08-07T09:32:37Z</time>
      </trkpt>
      <trkpt lat="44.81529" lon="1.62731">
        <ele>250</ele>
        <time>2022-08-07T09:32:39Z</time>
      </trkpt>
      <trkpt lat="44.8153" lon="1.62725">
        <ele>250.2</ele>
        <time>2022-08-07T09:32:41Z</time>
      </trkpt>
      <trkpt lat="44.81531" lon="1.62719">
        <ele>250.5</ele>
        <time>2022-08-07T09:32:43Z</time>
      </trkpt>
      <trkpt lat="44.81533" lon="1.62714">
        <ele>250.7</ele>
        <time>2022-08-07T09:32:45Z</time>
      </trkpt>
      <trkpt lat="44.81534" lon="1.62709">
        <ele>250.9</ele>
        <time>2022-08-07T09:32:47Z</time>
      </trkpt>
      <trkpt lat="44.81535" lon="1.62704">
        <ele>251.2</ele>
        <time>2022-08-07T09:32:49Z</time>
      </trkpt>
      <trkpt lat="44.81536" lon="1.62698">
        <ele>251.4</ele>
        <time>2022-08-07T09:32:51Z</time>
      </trkpt>
      <trkpt lat="44.81538" lon="1.62693">
        <ele>251.7</ele>
        <time>2022-08-07T09:32:53Z</time>
      </trkpt>
      <trkpt lat="44.81538" lon="1.62688">
        <ele>251.9</ele>
        <time>2022-08-07T09:32:55Z</time>
      </trkpt>
      <trkpt lat="44.81539" lon="1.62683">
        <ele>252.2</ele>
        <time>2022-08-07T09:32:57Z</time>
      </trkpt>
      <trkpt lat="44.8154" lon="1.62679">
        <ele>252.4</ele>
        <time>2022-08-07T09:32:59Z</time>
      </trkpt>
      <trkpt lat="44.81542" lon="1.62674">
        <ele>252.6</ele>
        <time>2022-08-07T09:33:01Z</time>
      </trkpt>
      <trkpt lat="44.81543" lon="1.62669">
        <ele>252.8</ele>
        <time>2022-08-07T09:33:03Z</time>
      </trkpt>
      <trkpt lat="44.81543" lon="1.62665">
        <ele>253</ele>
        <time>2022-08-07T09:33:05Z</time>
      </trkpt>
      <trkpt lat="44.81544" lon="1.6266">
        <ele>253.2</ele>
        <time>2022-08-07T09:33:07Z</time>
      </trkpt>
      <trkpt lat="44.81543" lon="1.62655">
        <ele>253.3</ele>
        <time>2022-08-07T09:33:09Z</time>
      </trkpt>
      <trkpt lat="44.8154" lon="1.62651">
        <ele>253.5</ele>
        <time>2022-08-07T09:33:11Z</time>
      </trkpt>
      <trkpt lat="44.81537" lon="1.62649">
        <ele>253.6</ele>
        <time>2022-08-07T09:33:13Z</time>
      </trkpt>
      <trkpt lat="44.81534" lon="1.62648">
        <ele>253.6</ele>
        <time>2022-08-07T09:33:15Z</time>
      </trkpt>
      <trkpt lat="44.8153" lon="1.62647">
        <ele>253.7</ele>
        <time>2022-08-07T09:33:17Z</time>
      </trkpt>
      <trkpt lat="44.81527" lon="1.62646">
        <ele>253.8</ele>
        <time>2022-08-07T09:33:19Z</time>
      </trkpt>
      <trkpt lat="44.81522" lon="1.62644">
        <ele>253.8</ele>
        <time>2022-08-07T09:33:21Z</time>
      </trkpt>
      <trkpt lat="44.81518" lon="1.62641">
        <ele>253.9</ele>
        <time>2022-08-07T09:33:23Z</time>
      </trkpt>
      <trkpt lat="44.81514" lon="1.62638">
        <ele>254</ele>
        <time>2022-08-07T09:33:25Z</time>
      </trkpt>
      <trkpt lat="44.8151" lon="1.62634">
        <ele>254</ele>
        <time>2022-08-07T09:33:27Z</time>
      </trkpt>
      <trkpt lat="44.81506" lon="1.62632">
        <ele>254</ele>
        <time>2022-08-07T09:33:29Z</time>
      </trkpt>
      <trkpt lat="44.81503" lon="1.62631">
        <ele>254</ele>
        <time>2022-08-07T09:33:31Z</time>
      </trkpt>
      <trkpt lat="44.81499" lon="1.62628">
        <ele>253.9</ele>
        <time>2022-08-07T09:33:33Z</time>
      </trkpt>
      <trkpt lat="44.81495" lon="1.62626">
        <ele>253.7</ele>
        <time>2022-08-07T09:33:35Z</time>
      </trkpt>
      <trkpt lat="44.81491" lon="1.62623">
        <ele>253.3</ele>
        <time>2022-08-07T09:33:37Z</time>
      </trkpt>
      <trkpt lat="44.81486" lon="1.62621">
        <ele>253</ele>
        <time>2022-08-07T09:33:39Z</time>
      </trkpt>
      <trkpt lat="44.8148" lon="1.62618">
        <ele>252.6</ele>
        <time>2022-08-07T09:33:41Z</time>
      </trkpt>
      <trkpt lat="44.81475" lon="1.62616">
        <ele>252.2</ele>
        <time>2022-08-07T09:33:43Z</time>
      </trkpt>
      <trkpt lat="44.8147" lon="1.62614">
        <ele>251.9</ele>
        <time>2022-08-07T09:33:45Z</time>
      </trkpt>
      <trkpt lat="44.81466" lon="1.62613">
        <ele>251.6</ele>
        <time>2022-08-07T09:33:47Z</time>
      </trkpt>
      <trkpt lat="44.81462" lon="1.62611">
        <ele>251.2</ele>
        <time>2022-08-07T09:33:49Z</time>
      </trkpt>
      <trkpt lat="44.81457" lon="1.62609">
        <ele>250.9</ele>
        <time>2022-08-07T09:33:51Z</time>
      </trkpt>
      <trkpt lat="44.81452" lon="1.62608">
        <ele>250.5</ele>
        <time>2022-08-07T09:33:53Z</time>
      </trkpt>
      <trkpt lat="44.81448" lon="1.62608">
        <ele>250.2</ele>
        <time>2022-08-07T09:33:55Z</time>
      </trkpt>
      <trkpt lat="44.81442" lon="1.62607">
        <ele>249.8</ele>
        <time>2022-08-07T09:33:57Z</time>
      </trkpt>
      <trkpt lat="44.81436" lon="1.62607">
        <ele>249.4</ele>
        <time>2022-08-07T09:33:59Z</time>
      </trkpt>
      <trkpt lat="44.8143" lon="1.62607">
        <ele>248.9</ele>
        <time>2022-08-07T09:34:01Z</time>
      </trkpt>
      <trkpt lat="44.81423" lon="1.62607">
        <ele>248.5</ele>
        <time>2022-08-07T09:34:03Z</time>
      </trkpt>
      <trkpt lat="44.81417" lon="1.62607">
        <ele>248</ele>
        <time>2022-08-07T09:34:05Z</time>
      </trkpt>
      <trkpt lat="44.8141" lon="1.62607">
        <ele>247.6</ele>
        <time>2022-08-07T09:34:07Z</time>
      </trkpt>
      <trkpt lat="44.81402" lon="1.62607">
        <ele>247.1</ele>
        <time>2022-08-07T09:34:09Z</time>
      </trkpt>
      <trkpt lat="44.81393" lon="1.62606">
        <ele>246.5</ele>
        <time>2022-08-07T09:34:11Z</time>
      </trkpt>
      <trkpt lat="44.81381" lon="1.62606">
        <ele>245.8</ele>
        <time>2022-08-07T09:34:13Z</time>
      </trkpt>
      <trkpt lat="44.81369" lon="1.62606">
        <ele>245</ele>
        <time>2022-08-07T09:34:15Z</time>
      </trkpt>
      <trkpt lat="44.81359" lon="1.62606">
        <ele>244.3</ele>
        <time>2022-08-07T09:34:17Z</time>
      </trkpt>
      <trkpt lat="44.8135" lon="1.62606">
        <ele>243.8</ele>
        <time>2022-08-07T09:34:19Z</time>
      </trkpt>
      <trkpt lat="44.8134" lon="1.62606">
        <ele>243.1</ele>
        <time>2022-08-07T09:34:21Z</time>
      </trkpt>
      <trkpt lat="44.81329" lon="1.62603">
        <ele>242.4</ele>
        <time>2022-08-07T09:34:23Z</time>
      </trkpt>
      <trkpt lat="44.81316" lon="1.62599">
        <ele>241.4</ele>
        <time>2022-08-07T09:34:25Z</time>
      </trkpt>
      <trkpt lat="44.81303" lon="1.62592">
        <ele>240.4</ele>
        <time>2022-08-07T09:34:27Z</time>
      </trkpt>
      <trkpt lat="44.8129" lon="1.62584">
        <ele>239.4</ele>
        <time>2022-08-07T09:34:29Z</time>
      </trkpt>
      <trkpt lat="44.81278" lon="1.62576">
        <ele>238.5</ele>
        <time>2022-08-07T09:34:31Z</time>
      </trkpt>
      <trkpt lat="44.81265" lon="1.62568">
        <ele>237.7</ele>
        <time>2022-08-07T09:34:33Z</time>
      </trkpt>
      <trkpt lat="44.81253" lon="1.62559">
        <ele>237.1</ele>
        <time>2022-08-07T09:34:35Z</time>
      </trkpt>
      <trkpt lat="44.81241" lon="1.62552">
        <ele>237.4</ele>
        <time>2022-08-07T09:34:37Z</time>
      </trkpt>
      <trkpt lat="44.81229" lon="1.62544">
        <ele>238</ele>
        <time>2022-08-07T09:34:39Z</time>
      </trkpt>
      <trkpt lat="44.81219" lon="1.62537">
        <ele>238.6</ele>
        <time>2022-08-07T09:34:41Z</time>
      </trkpt>
      <trkpt lat="44.81208" lon="1.6253">
        <ele>239.3</ele>
        <time>2022-08-07T09:34:43Z</time>
      </trkpt>
      <trkpt lat="44.81197" lon="1.62521">
        <ele>240</ele>
        <time>2022-08-07T09:34:45Z</time>
      </trkpt>
      <trkpt lat="44.81189" lon="1.62516">
        <ele>240.5</ele>
        <time>2022-08-07T09:34:47Z</time>
      </trkpt>
      <trkpt lat="44.81179" lon="1.6251">
        <ele>241.1</ele>
        <time>2022-08-07T09:34:49Z</time>
      </trkpt>
      <trkpt lat="44.8117" lon="1.62504">
        <ele>241.7</ele>
        <time>2022-08-07T09:34:51Z</time>
      </trkpt>
      <trkpt lat="44.81163" lon="1.62499">
        <ele>242.1</ele>
        <time>2022-08-07T09:34:53Z</time>
      </trkpt>
      <trkpt lat="44.81155" lon="1.62494">
        <ele>242.4</ele>
        <time>2022-08-07T09:34:55Z</time>
      </trkpt>
      <trkpt lat="44.81149" lon="1.6249">
        <ele>242.5</ele>
        <time>2022-08-07T09:34:57Z</time>
      </trkpt>
      <trkpt lat="44.81143" lon="1.62486">
        <ele>242.8</ele>
        <time>2022-08-07T09:34:59Z</time>
      </trkpt>
      <trkpt lat="44.81138" lon="1.62483">
        <ele>242.9</ele>
        <time>2022-08-07T09:35:01Z</time>
      </trkpt>
      <trkpt lat="44.81133" lon="1.62479">
        <ele>243.1</ele>
        <time>2022-08-07T09:35:03Z</time>
      </trkpt>
      <trkpt lat="44.81128" lon="1.62476">
        <ele>243.2</ele>
        <time>2022-08-07T09:35:05Z</time>
      </trkpt>
      <trkpt lat="44.81122" lon="1.62473">
        <ele>243.3</ele>
        <time>2022-08-07T09:35:07Z</time>
      </trkpt>
      <trkpt lat="44.81118" lon="1.62469">
        <ele>243.5</ele>
        <time>2022-08-07T09:35:09Z</time>
      </trkpt>
      <trkpt lat="44.81113" lon="1.62467">
        <ele>243.6</ele>
        <time>2022-08-07T09:35:11Z</time>
      </trkpt>
      <trkpt lat="44.81108" lon="1.62464">
        <ele>243.7</ele>
        <time>2022-08-07T09:35:13Z</time>
      </trkpt>
      <trkpt lat="44.81104" lon="1.62462">
        <ele>243.8</ele>
        <time>2022-08-07T09:35:15Z</time>
      </trkpt>
      <trkpt lat="44.811" lon="1.62458">
        <ele>243.9</ele>
        <time>2022-08-07T09:35:17Z</time>
      </trkpt>
      <trkpt lat="44.81096" lon="1.62455">
        <ele>244</ele>
        <time>2022-08-07T09:35:19Z</time>
      </trkpt>
      <trkpt lat="44.81091" lon="1.62452">
        <ele>244.1</ele>
        <time>2022-08-07T09:35:21Z</time>
      </trkpt>
      <trkpt lat="44.81087" lon="1.62449">
        <ele>244.2</ele>
        <time>2022-08-07T09:35:23Z</time>
      </trkpt>
      <trkpt lat="44.81082" lon="1.62446">
        <ele>244.3</ele>
        <time>2022-08-07T09:35:25Z</time>
      </trkpt>
      <trkpt lat="44.81078" lon="1.62444">
        <ele>244.6</ele>
        <time>2022-08-07T09:35:27Z</time>
      </trkpt>
      <trkpt lat="44.81074" lon="1.62442">
        <ele>244.9</ele>
        <time>2022-08-07T09:35:29Z</time>
      </trkpt>
      <trkpt lat="44.8107" lon="1.6244">
        <ele>245.2</ele>
        <time>2022-08-07T09:35:31Z</time>
      </trkpt>
      <trkpt lat="44.81067" lon="1.62438">
        <ele>245.5</ele>
        <time>2022-08-07T09:35:33Z</time>
      </trkpt>
      <trkpt lat="44.81063" lon="1.62436">
        <ele>245.7</ele>
        <time>2022-08-07T09:35:35Z</time>
      </trkpt>
      <trkpt lat="44.81059" lon="1.62435">
        <ele>246</ele>
        <time>2022-08-07T09:35:37Z</time>
      </trkpt>
      <trkpt lat="44.81055" lon="1.62433">
        <ele>246.2</ele>
        <time>2022-08-07T09:35:39Z</time>
      </trkpt>
      <trkpt lat="44.81051" lon="1.62432">
        <ele>246.5</ele>
        <time>2022-08-07T09:35:41Z</time>
      </trkpt>
      <trkpt lat="44.81047" lon="1.62432">
        <ele>246.7</ele>
        <time>2022-08-07T09:35:43Z</time>
      </trkpt>
      <trkpt lat="44.81044" lon="1.62431">
        <ele>246.9</ele>
        <time>2022-08-07T09:35:45Z</time>
      </trkpt>
      <trkpt lat="44.81039" lon="1.62431">
        <ele>247.2</ele>
        <time>2022-08-07T09:35:47Z</time>
      </trkpt>
      <trkpt lat="44.81035" lon="1.62431">
        <ele>247.5</ele>
        <time>2022-08-07T09:35:49Z</time>
      </trkpt>
      <trkpt lat="44.81031" lon="1.62431">
        <ele>247.7</ele>
        <time>2022-08-07T09:35:51Z</time>
      </trkpt>
      <trkpt lat="44.81026" lon="1.62432">
        <ele>247.9</ele>
        <time>2022-08-07T09:35:53Z</time>
      </trkpt>
      <trkpt lat="44.81022" lon="1.62432">
        <ele>248.2</ele>
        <time>2022-08-07T09:35:55Z</time>
      </trkpt>
      <trkpt lat="44.81017" lon="1.62433">
        <ele>248.4</ele>
        <time>2022-08-07T09:35:57Z</time>
      </trkpt>
      <trkpt lat="44.81013" lon="1.62433">
        <ele>248.7</ele>
        <time>2022-08-07T09:35:59Z</time>
      </trkpt>
      <trkpt lat="44.81008" lon="1.62434">
        <ele>248.9</ele>
        <time>2022-08-07T09:36:01Z</time>
      </trkpt>
      <trkpt lat="44.81003" lon="1.62435">
        <ele>249.2</ele>
        <time>2022-08-07T09:36:03Z</time>
      </trkpt>
      <trkpt lat="44.80998" lon="1.62436">
        <ele>249.3</ele>
        <time>2022-08-07T09:36:05Z</time>
      </trkpt>
      <trkpt lat="44.80992" lon="1.62437">
        <ele>249.3</ele>
        <time>2022-08-07T09:36:07Z</time>
      </trkpt>
      <trkpt lat="44.80987" lon="1.62438">
        <ele>249.3</ele>
        <time>2022-08-07T09:36:09Z</time>
      </trkpt>
      <trkpt lat="44.80981" lon="1.62439">
        <ele>249.3</ele>
        <time>2022-08-07T09:36:11Z</time>
      </trkpt>
      <trkpt lat="44.80975" lon="1.6244">
        <ele>249.3</ele>
        <time>2022-08-07T09:36:13Z</time>
      </trkpt>
      <trkpt lat="44.80969" lon="1.62441">
        <ele>249.3</ele>
        <time>2022-08-07T09:36:15Z</time>
      </trkpt>
      <trkpt lat="44.80963" lon="1.62443">
        <ele>249.3</ele>
        <time>2022-08-07T09:36:17Z</time>
      </trkpt>
      <trkpt lat="44.80957" lon="1.62443">
        <ele>249.4</ele>
        <time>2022-08-07T09:36:19Z</time>
      </trkpt>
      <trkpt lat="44.80952" lon="1.62444">
        <ele>249.4</ele>
        <time>2022-08-07T09:36:21Z</time>
      </trkpt>
      <trkpt lat="44.80946" lon="1.62445">
        <ele>249.4</ele>
        <time>2022-08-07T09:36:23Z</time>
      </trkpt>
      <trkpt lat="44.80941" lon="1.62447">
        <ele>249.4</ele>
        <time>2022-08-07T09:36:25Z</time>
      </trkpt>
      <trkpt lat="44.80935" lon="1.62448">
        <ele>249.5</ele>
        <time>2022-08-07T09:36:27Z</time>
      </trkpt>
      <trkpt lat="44.8093" lon="1.62449">
        <ele>249.5</ele>
        <time>2022-08-07T09:36:29Z</time>
      </trkpt>
      <trkpt lat="44.80924" lon="1.6245">
        <ele>249.5</ele>
        <time>2022-08-07T09:36:31Z</time>
      </trkpt>
      <trkpt lat="44.80918" lon="1.62452">
        <ele>249.6</ele>
        <time>2022-08-07T09:36:33Z</time>
      </trkpt>
      <trkpt lat="44.80913" lon="1.62453">
        <ele>249.8</ele>
        <time>2022-08-07T09:36:35Z</time>
      </trkpt>
      <trkpt lat="44.80907" lon="1.62455">
        <ele>250.2</ele>
        <time>2022-08-07T09:36:37Z</time>
      </trkpt>
      <trkpt lat="44.80901" lon="1.62458">
        <ele>250.6</ele>
        <time>2022-08-07T09:36:39Z</time>
      </trkpt>
      <trkpt lat="44.80896" lon="1.62461">
        <ele>251</ele>
        <time>2022-08-07T09:36:41Z</time>
      </trkpt>
      <trkpt lat="44.8089" lon="1.62463">
        <ele>251.4</ele>
        <time>2022-08-07T09:36:43Z</time>
      </trkpt>
      <trkpt lat="44.80885" lon="1.62466">
        <ele>251.7</ele>
        <time>2022-08-07T09:36:45Z</time>
      </trkpt>
      <trkpt lat="44.80881" lon="1.62469">
        <ele>252.1</ele>
        <time>2022-08-07T09:36:47Z</time>
      </trkpt>
      <trkpt lat="44.80876" lon="1.62472">
        <ele>252.4</ele>
        <time>2022-08-07T09:36:49Z</time>
      </trkpt>
      <trkpt lat="44.80871" lon="1.62475">
        <ele>252.8</ele>
        <time>2022-08-07T09:36:51Z</time>
      </trkpt>
      <trkpt lat="44.80867" lon="1.62477">
        <ele>253.1</ele>
        <time>2022-08-07T09:36:53Z</time>
      </trkpt>
      <trkpt lat="44.80863" lon="1.62479">
        <ele>253.5</ele>
        <time>2022-08-07T09:36:55Z</time>
      </trkpt>
      <trkpt lat="44.80858" lon="1.62482">
        <ele>253.8</ele>
        <time>2022-08-07T09:36:57Z</time>
      </trkpt>
      <trkpt lat="44.80854" lon="1.62484">
        <ele>254.2</ele>
        <time>2022-08-07T09:36:59Z</time>
      </trkpt>
      <trkpt lat="44.8085" lon="1.62487">
        <ele>254.5</ele>
        <time>2022-08-07T09:37:01Z</time>
      </trkpt>
      <trkpt lat="44.80846" lon="1.62489">
        <ele>254.8</ele>
        <time>2022-08-07T09:37:03Z</time>
      </trkpt>
      <trkpt lat="44.80842" lon="1.62492">
        <ele>255.2</ele>
        <time>2022-08-07T09:37:05Z</time>
      </trkpt>
      <trkpt lat="44.80838" lon="1.62494">
        <ele>255.5</ele>
        <time>2022-08-07T09:37:07Z</time>
      </trkpt>
      <trkpt lat="44.80835" lon="1.62496">
        <ele>255.8</ele>
        <time>2022-08-07T09:37:09Z</time>
      </trkpt>
      <trkpt lat="44.80831" lon="1.62499">
        <ele>256.2</ele>
        <time>2022-08-07T09:37:11Z</time>
      </trkpt>
      <trkpt lat="44.80827" lon="1.625">
        <ele>256.5</ele>
        <time>2022-08-07T09:37:13Z</time>
      </trkpt>
      <trkpt lat="44.80823" lon="1.62502">
        <ele>256.7</ele>
        <time>2022-08-07T09:37:15Z</time>
      </trkpt>
      <trkpt lat="44.80819" lon="1.62505">
        <ele>256.9</ele>
        <time>2022-08-07T09:37:17Z</time>
      </trkpt>
      <trkpt lat="44.80816" lon="1.62507">
        <ele>257</ele>
        <time>2022-08-07T09:37:19Z</time>
      </trkpt>
      <trkpt lat="44.80812" lon="1.6251">
        <ele>257.2</ele>
        <time>2022-08-07T09:37:21Z</time>
      </trkpt>
      <trkpt lat="44.80808" lon="1.62512">
        <ele>257.4</ele>
        <time>2022-08-07T09:37:23Z</time>
      </trkpt>
      <trkpt lat="44.80805" lon="1.62514">
        <ele>257.6</ele>
        <time>2022-08-07T09:37:25Z</time>
      </trkpt>
      <trkpt lat="44.80801" lon="1.62516">
        <ele>257.7</ele>
        <time>2022-08-07T09:37:27Z</time>
      </trkpt>
      <trkpt lat="44.80797" lon="1.62519">
        <ele>257.9</ele>
        <time>2022-08-07T09:37:29Z</time>
      </trkpt>
      <trkpt lat="44.80793" lon="1.62521">
        <ele>258.1</ele>
        <time>2022-08-07T09:37:31Z</time>
      </trkpt>
      <trkpt lat="44.8079" lon="1.62523">
        <ele>258.3</ele>
        <time>2022-08-07T09:37:33Z</time>
      </trkpt>
      <trkpt lat="44.80786" lon="1.62525">
        <ele>258.5</ele>
        <time>2022-08-07T09:37:35Z</time>
      </trkpt>
      <trkpt lat="44.80782" lon="1.62527">
        <ele>258.6</ele>
        <time>2022-08-07T09:37:37Z</time>
      </trkpt>
      <trkpt lat="44.80779" lon="1.6253">
        <ele>258.8</ele>
        <time>2022-08-07T09:37:39Z</time>
      </trkpt>
      <trkpt lat="44.80775" lon="1.62532">
        <ele>259</ele>
        <time>2022-08-07T09:37:41Z</time>
      </trkpt>
      <trkpt lat="44.80772" lon="1.62534">
        <ele>259.1</ele>
        <time>2022-08-07T09:37:43Z</time>
      </trkpt>
      <trkpt lat="44.80768" lon="1.62537">
        <ele>259.2</ele>
        <time>2022-08-07T09:37:45Z</time>
      </trkpt>
      <trkpt lat="44.80765" lon="1.62539">
        <ele>259.5</ele>
        <time>2022-08-07T09:37:47Z</time>
      </trkpt>
      <trkpt lat="44.80761" lon="1.62541">
        <ele>259.6</ele>
        <time>2022-08-07T09:37:49Z</time>
      </trkpt>
      <trkpt lat="44.80758" lon="1.62543">
        <ele>259.7</ele>
        <time>2022-08-07T09:37:51Z</time>
      </trkpt>
      <trkpt lat="44.80754" lon="1.62546">
        <ele>259.9</ele>
        <time>2022-08-07T09:37:53Z</time>
      </trkpt>
      <trkpt lat="44.80751" lon="1.62547">
        <ele>260.1</ele>
        <time>2022-08-07T09:37:55Z</time>
      </trkpt>
      <trkpt lat="44.80746" lon="1.62549">
        <ele>260.2</ele>
        <time>2022-08-07T09:37:57Z</time>
      </trkpt>
      <trkpt lat="44.80743" lon="1.62551">
        <ele>260.3</ele>
        <time>2022-08-07T09:37:59Z</time>
      </trkpt>
      <trkpt lat="44.80739" lon="1.62553">
        <ele>260.3</ele>
        <time>2022-08-07T09:38:01Z</time>
      </trkpt>
      <trkpt lat="44.80736" lon="1.62556">
        <ele>260.3</ele>
        <time>2022-08-07T09:38:03Z</time>
      </trkpt>
      <trkpt lat="44.80732" lon="1.62558">
        <ele>260.4</ele>
        <time>2022-08-07T09:38:05Z</time>
      </trkpt>
      <trkpt lat="44.80728" lon="1.6256">
        <ele>260.5</ele>
        <time>2022-08-07T09:38:07Z</time>
      </trkpt>
      <trkpt lat="44.80724" lon="1.62561">
        <ele>260.7</ele>
        <time>2022-08-07T09:38:09Z</time>
      </trkpt>
      <trkpt lat="44.80719" lon="1.62563">
        <ele>260.8</ele>
        <time>2022-08-07T09:38:11Z</time>
      </trkpt>
      <trkpt lat="44.80715" lon="1.62564">
        <ele>261</ele>
        <time>2022-08-07T09:38:13Z</time>
      </trkpt>
      <trkpt lat="44.80711" lon="1.62566">
        <ele>261.1</ele>
        <time>2022-08-07T09:38:15Z</time>
      </trkpt>
      <trkpt lat="44.80706" lon="1.62568">
        <ele>261.3</ele>
        <time>2022-08-07T09:38:17Z</time>
      </trkpt>
      <trkpt lat="44.80702" lon="1.62569">
        <ele>261.5</ele>
        <time>2022-08-07T09:38:19Z</time>
      </trkpt>
      <trkpt lat="44.80697" lon="1.62569">
        <ele>261.7</ele>
        <time>2022-08-07T09:38:21Z</time>
      </trkpt>
      <trkpt lat="44.80693" lon="1.6257">
        <ele>261.9</ele>
        <time>2022-08-07T09:38:23Z</time>
      </trkpt>
      <trkpt lat="44.80688" lon="1.62572">
        <ele>262.1</ele>
        <time>2022-08-07T09:38:25Z</time>
      </trkpt>
      <trkpt lat="44.80683" lon="1.62573">
        <ele>262.3</ele>
        <time>2022-08-07T09:38:27Z</time>
      </trkpt>
      <trkpt lat="44.80677" lon="1.62574">
        <ele>262.6</ele>
        <time>2022-08-07T09:38:29Z</time>
      </trkpt>
      <trkpt lat="44.80672" lon="1.62576">
        <ele>262.8</ele>
        <time>2022-08-07T09:38:31Z</time>
      </trkpt>
      <trkpt lat="44.80667" lon="1.62578">
        <ele>263.1</ele>
        <time>2022-08-07T09:38:33Z</time>
      </trkpt>
      <trkpt lat="44.80662" lon="1.6258">
        <ele>263</ele>
        <time>2022-08-07T09:38:35Z</time>
      </trkpt>
      <trkpt lat="44.80657" lon="1.62583">
        <ele>262.9</ele>
        <time>2022-08-07T09:38:37Z</time>
      </trkpt>
      <trkpt lat="44.80651" lon="1.62586">
        <ele>262.7</ele>
        <time>2022-08-07T09:38:39Z</time>
      </trkpt>
      <trkpt lat="44.80646" lon="1.62588">
        <ele>262.6</ele>
        <time>2022-08-07T09:38:41Z</time>
      </trkpt>
      <trkpt lat="44.80642" lon="1.62591">
        <ele>262.4</ele>
        <time>2022-08-07T09:38:43Z</time>
      </trkpt>
      <trkpt lat="44.80637" lon="1.62593">
        <ele>262.2</ele>
        <time>2022-08-07T09:38:45Z</time>
      </trkpt>
      <trkpt lat="44.80632" lon="1.62595">
        <ele>262</ele>
        <time>2022-08-07T09:38:47Z</time>
      </trkpt>
      <trkpt lat="44.80627" lon="1.626">
        <ele>261.7</ele>
        <time>2022-08-07T09:38:49Z</time>
      </trkpt>
      <trkpt lat="44.80621" lon="1.62603">
        <ele>261.5</ele>
        <time>2022-08-07T09:38:51Z</time>
      </trkpt>
      <trkpt lat="44.80615" lon="1.62607">
        <ele>261.2</ele>
        <time>2022-08-07T09:38:53Z</time>
      </trkpt>
      <trkpt lat="44.80609" lon="1.62613">
        <ele>260.8</ele>
        <time>2022-08-07T09:38:55Z</time>
      </trkpt>
      <trkpt lat="44.80602" lon="1.62616">
        <ele>260.5</ele>
        <time>2022-08-07T09:38:57Z</time>
      </trkpt>
      <trkpt lat="44.80595" lon="1.6262">
        <ele>260.1</ele>
        <time>2022-08-07T09:38:59Z</time>
      </trkpt>
      <trkpt lat="44.80593" lon="1.62626">
        <ele>259.6</ele>
        <time>2022-08-07T09:39:01Z</time>
      </trkpt>
      <trkpt lat="44.80596" lon="1.62635">
        <ele>259.3</ele>
        <time>2022-08-07T09:39:03Z</time>
      </trkpt>
      <trkpt lat="44.806" lon="1.62642">
        <ele>259</ele>
        <time>2022-08-07T09:39:05Z</time>
      </trkpt>
      <trkpt lat="44.80603" lon="1.62645">
        <ele>258.9</ele>
        <time>2022-08-07T09:39:07Z</time>
      </trkpt>
      <trkpt lat="44.80608" lon="1.62648">
        <ele>258.9</ele>
        <time>2022-08-07T09:39:09Z</time>
      </trkpt>
      <trkpt lat="44.80613" lon="1.62649">
        <ele>259</ele>
        <time>2022-08-07T09:39:11Z</time>
      </trkpt>
      <trkpt lat="44.80618" lon="1.62653">
        <ele>258.9</ele>
        <time>2022-08-07T09:39:13Z</time>
      </trkpt>
      <trkpt lat="44.80621" lon="1.62657">
        <ele>258.8</ele>
        <time>2022-08-07T09:39:15Z</time>
      </trkpt>
      <trkpt lat="44.80625" lon="1.62661">
        <ele>258.8</ele>
        <time>2022-08-07T09:39:17Z</time>
      </trkpt>
      <trkpt lat="44.80629" lon="1.62664">
        <ele>258.8</ele>
        <time>2022-08-07T09:39:19Z</time>
      </trkpt>
      <trkpt lat="44.80632" lon="1.62666">
        <ele>258.8</ele>
        <time>2022-08-07T09:39:21Z</time>
      </trkpt>
      <trkpt lat="44.80634" lon="1.62668">
        <ele>258.7</ele>
        <time>2022-08-07T09:39:23Z</time>
      </trkpt>
      <trkpt lat="44.80631" lon="1.62673">
        <ele>258.4</ele>
        <time>2022-08-07T09:39:25Z</time>
      </trkpt>
      <trkpt lat="44.80627" lon="1.62672">
        <ele>258.3</ele>
        <time>2022-08-07T09:39:27Z</time>
      </trkpt>
      <trkpt lat="44.80625" lon="1.62674">
        <ele>258.1</ele>
        <time>2022-08-07T09:39:29Z</time>
      </trkpt>
      <trkpt lat="44.80624" lon="1.62678">
        <ele>257.9</ele>
        <time>2022-08-07T09:39:31Z</time>
      </trkpt>
      <trkpt lat="44.80626" lon="1.62679">
        <ele>257.9</ele>
        <time>2022-08-07T09:39:33Z</time>
      </trkpt>
      <trkpt lat="44.80629" lon="1.62679">
        <ele>258</ele>
        <time>2022-08-07T09:39:35Z</time>
      </trkpt>
      <trkpt lat="44.8063" lon="1.62679">
        <ele>258</ele>
        <time>2022-08-07T09:39:37Z</time>
      </trkpt>
      <trkpt lat="44.80629" lon="1.62682">
        <ele>257.9</ele>
        <time>2022-08-07T09:39:39Z</time>
      </trkpt>
      <trkpt lat="44.80629" lon="1.62683">
        <ele>257.9</ele>
        <time>2022-08-07T09:39:41Z</time>
      </trkpt>
      <trkpt lat="44.80609" lon="1.62672">
        <ele>257.7</ele>
        <time>2022-08-07T09:54:25Z</time>
      </trkpt>
      <trkpt lat="44.80606" lon="1.62673">
        <ele>257.5</ele>
        <time>2022-08-07T09:54:27Z</time>
      </trkpt>
      <trkpt lat="44.80604" lon="1.62673">
        <ele>257.5</ele>
        <time>2022-08-07T09:54:29Z</time>
      </trkpt>
      <trkpt lat="44.80601" lon="1.62671">
        <ele>257.5</ele>
        <time>2022-08-07T09:54:31Z</time>
      </trkpt>
      <trkpt lat="44.80601" lon="1.62668">
        <ele>257.6</ele>
        <time>2022-08-07T09:54:33Z</time>
      </trkpt>
      <trkpt lat="44.80602" lon="1.62669">
        <ele>257.6</ele>
        <time>2022-08-07T09:54:35Z</time>
      </trkpt>
      <trkpt lat="44.80601" lon="1.62667">
        <ele>257.6</ele>
        <time>2022-08-07T09:54:37Z</time>
      </trkpt>
      <trkpt lat="44.80598" lon="1.62661">
        <ele>257.8</ele>
        <time>2022-08-07T09:54:39Z</time>
      </trkpt>
      <trkpt lat="44.80594" lon="1.62659">
        <ele>257.9</ele>
        <time>2022-08-07T09:54:41Z</time>
      </trkpt>
      <trkpt lat="44.80589" lon="1.62657">
        <ele>257.8</ele>
        <time>2022-08-07T09:54:43Z</time>
      </trkpt>
      <trkpt lat="44.80585" lon="1.62655">
        <ele>257.7</ele>
        <time>2022-08-07T09:54:45Z</time>
      </trkpt>
      <trkpt lat="44.8058" lon="1.62654">
        <ele>257.8</ele>
        <time>2022-08-07T09:54:47Z</time>
      </trkpt>
      <trkpt lat="44.80576" lon="1.62652">
        <ele>257.9</ele>
        <time>2022-08-07T09:54:49Z</time>
      </trkpt>
      <trkpt lat="44.80572" lon="1.62651">
        <ele>258.1</ele>
        <time>2022-08-07T09:54:51Z</time>
      </trkpt>
      <trkpt lat="44.80568" lon="1.6265">
        <ele>258.2</ele>
        <time>2022-08-07T09:54:53Z</time>
      </trkpt>
      <trkpt lat="44.80564" lon="1.62648">
        <ele>258.3</ele>
        <time>2022-08-07T09:54:55Z</time>
      </trkpt>
      <trkpt lat="44.80558" lon="1.62647">
        <ele>258.4</ele>
        <time>2022-08-07T09:54:57Z</time>
      </trkpt>
      <trkpt lat="44.80551" lon="1.62645">
        <ele>258.5</ele>
        <time>2022-08-07T09:54:59Z</time>
      </trkpt>
      <trkpt lat="44.80545" lon="1.62643">
        <ele>258.6</ele>
        <time>2022-08-07T09:55:01Z</time>
      </trkpt>
      <trkpt lat="44.80539" lon="1.6264">
        <ele>258.6</ele>
        <time>2022-08-07T09:55:03Z</time>
      </trkpt>
      <trkpt lat="44.80535" lon="1.62639">
        <ele>258.7</ele>
        <time>2022-08-07T09:55:05Z</time>
      </trkpt>
      <trkpt lat="44.80531" lon="1.62638">
        <ele>258.7</ele>
        <time>2022-08-07T09:55:07Z</time>
      </trkpt>
      <trkpt lat="44.80527" lon="1.62638">
        <ele>258.7</ele>
        <time>2022-08-07T09:55:09Z</time>
      </trkpt>
      <trkpt lat="44.80524" lon="1.62637">
        <ele>258.7</ele>
        <time>2022-08-07T09:55:11Z</time>
      </trkpt>
      <trkpt lat="44.80521" lon="1.62635">
        <ele>258.7</ele>
        <time>2022-08-07T09:55:13Z</time>
      </trkpt>
      <trkpt lat="44.80518" lon="1.62635">
        <ele>258.7</ele>
        <time>2022-08-07T09:55:15Z</time>
      </trkpt>
      <trkpt lat="44.80514" lon="1.62634">
        <ele>258.7</ele>
        <time>2022-08-07T09:55:17Z</time>
      </trkpt>
      <trkpt lat="44.80511" lon="1.62633">
        <ele>258.7</ele>
        <time>2022-08-07T09:55:19Z</time>
      </trkpt>
      <trkpt lat="44.80507" lon="1.62631">
        <ele>258.6</ele>
        <time>2022-08-07T09:55:21Z</time>
      </trkpt>
      <trkpt lat="44.80503" lon="1.62629">
        <ele>258.6</ele>
        <time>2022-08-07T09:55:23Z</time>
      </trkpt>
      <trkpt lat="44.80498" lon="1.62628">
        <ele>258.4</ele>
        <time>2022-08-07T09:55:25Z</time>
      </trkpt>
      <trkpt lat="44.80494" lon="1.62626">
        <ele>258</ele>
        <time>2022-08-07T09:55:27Z</time>
      </trkpt>
      <trkpt lat="44.80489" lon="1.62621">
        <ele>257.6</ele>
        <time>2022-08-07T09:55:29Z</time>
      </trkpt>
      <trkpt lat="44.80485" lon="1.62621">
        <ele>257.3</ele>
        <time>2022-08-07T09:55:31Z</time>
      </trkpt>
      <trkpt lat="44.80482" lon="1.62625">
        <ele>257.2</ele>
        <time>2022-08-07T09:55:33Z</time>
      </trkpt>
      <trkpt lat="44.8048" lon="1.62635">
        <ele>257.4</ele>
        <time>2022-08-07T09:55:35Z</time>
      </trkpt>
      <trkpt lat="44.8048" lon="1.62643">
        <ele>257.6</ele>
        <time>2022-08-07T09:55:37Z</time>
      </trkpt>
      <trkpt lat="44.80479" lon="1.62652">
        <ele>257.8</ele>
        <time>2022-08-07T09:55:39Z</time>
      </trkpt>
      <trkpt lat="44.80478" lon="1.62661">
        <ele>258</ele>
        <time>2022-08-07T09:55:41Z</time>
      </trkpt>
      <trkpt lat="44.80477" lon="1.62669">
        <ele>258.1</ele>
        <time>2022-08-07T09:55:43Z</time>
      </trkpt>
      <trkpt lat="44.80475" lon="1.62678">
        <ele>258</ele>
        <time>2022-08-07T09:55:45Z</time>
      </trkpt>
      <trkpt lat="44.8047" lon="1.62685">
        <ele>257.8</ele>
        <time>2022-08-07T09:55:47Z</time>
      </trkpt>
      <trkpt lat="44.80464" lon="1.62691">
        <ele>257.6</ele>
        <time>2022-08-07T09:55:49Z</time>
      </trkpt>
      <trkpt lat="44.80458" lon="1.62695">
        <ele>257.5</ele>
        <time>2022-08-07T09:55:51Z</time>
      </trkpt>
      <trkpt lat="44.80452" lon="1.62698">
        <ele>257.4</ele>
        <time>2022-08-07T09:55:53Z</time>
      </trkpt>
      <trkpt lat="44.80447" lon="1.627">
        <ele>257.3</ele>
        <time>2022-08-07T09:55:55Z</time>
      </trkpt>
      <trkpt lat="44.80441" lon="1.62702">
        <ele>257.2</ele>
        <time>2022-08-07T09:55:57Z</time>
      </trkpt>
      <trkpt lat="44.80437" lon="1.62703">
        <ele>257.2</ele>
        <time>2022-08-07T09:55:59Z</time>
      </trkpt>
      <trkpt lat="44.80432" lon="1.62705">
        <ele>257.1</ele>
        <time>2022-08-07T09:56:01Z</time>
      </trkpt>
      <trkpt lat="44.80427" lon="1.62706">
        <ele>257.1</ele>
        <time>2022-08-07T09:56:03Z</time>
      </trkpt>
      <trkpt lat="44.80423" lon="1.62706">
        <ele>257</ele>
        <time>2022-08-07T09:56:05Z</time>
      </trkpt>
      <trkpt lat="44.80418" lon="1.62705">
        <ele>256.9</ele>
        <time>2022-08-07T09:56:07Z</time>
      </trkpt>
      <trkpt lat="44.80412" lon="1.62704">
        <ele>256.5</ele>
        <time>2022-08-07T09:56:09Z</time>
      </trkpt>
      <trkpt lat="44.80407" lon="1.62704">
        <ele>255.9</ele>
        <time>2022-08-07T09:56:11Z</time>
      </trkpt>
      <trkpt lat="44.80402" lon="1.62705">
        <ele>255.4</ele>
        <time>2022-08-07T09:56:13Z</time>
      </trkpt>
      <trkpt lat="44.80396" lon="1.62706">
        <ele>254.9</ele>
        <time>2022-08-07T09:56:15Z</time>
      </trkpt>
      <trkpt lat="44.80391" lon="1.62706">
        <ele>254.4</ele>
        <time>2022-08-07T09:56:17Z</time>
      </trkpt>
      <trkpt lat="44.80387" lon="1.62707">
        <ele>254</ele>
        <time>2022-08-07T09:56:19Z</time>
      </trkpt>
      <trkpt lat="44.80382" lon="1.62705">
        <ele>253.4</ele>
        <time>2022-08-07T09:56:21Z</time>
      </trkpt>
      <trkpt lat="44.8038" lon="1.62701">
        <ele>252.8</ele>
        <time>2022-08-07T09:56:23Z</time>
      </trkpt>
      <trkpt lat="44.80376" lon="1.62697">
        <ele>251.9</ele>
        <time>2022-08-07T09:56:25Z</time>
      </trkpt>
      <trkpt lat="44.80371" lon="1.62698">
        <ele>251.5</ele>
        <time>2022-08-07T09:56:27Z</time>
      </trkpt>
      <trkpt lat="44.80368" lon="1.62699">
        <ele>251.2</ele>
        <time>2022-08-07T09:56:29Z</time>
      </trkpt>
      <trkpt lat="44.80365" lon="1.627">
        <ele>251</ele>
        <time>2022-08-07T09:56:31Z</time>
      </trkpt>
      <trkpt lat="44.80365" lon="1.627">
        <ele>251</ele>
        <time>2022-08-07T09:56:33Z</time>
      </trkpt>
      <trkpt lat="44.80365" lon="1.627">
        <ele>251</ele>
        <time>2022-08-07T09:56:35Z</time>
      </trkpt>
      <trkpt lat="44.80365" lon="1.627">
        <ele>250.9</ele>
        <time>2022-08-07T09:56:37Z</time>
      </trkpt>
      <trkpt lat="44.80365" lon="1.627">
        <ele>250.9</ele>
        <time>2022-08-07T09:56:39Z</time>
      </trkpt>
      <trkpt lat="44.80364" lon="1.62699">
        <ele>250.7</ele>
        <time>2022-08-07T09:56:41Z</time>
      </trkpt>
      <trkpt lat="44.8037" lon="1.62698">
        <ele>251.3</ele>
        <time>2022-08-07T10:01:19Z</time>
      </trkpt>
      <trkpt lat="44.80373" lon="1.62697">
        <ele>251.5</ele>
        <time>2022-08-07T10:01:21Z</time>
      </trkpt>
      <trkpt lat="44.80377" lon="1.62697">
        <ele>252</ele>
        <time>2022-08-07T10:01:23Z</time>
      </trkpt>
      <trkpt lat="44.8038" lon="1.62697">
        <ele>252.4</ele>
        <time>2022-08-07T10:01:25Z</time>
      </trkpt>
      <trkpt lat="44.80384" lon="1.62696">
        <ele>252.8</ele>
        <time>2022-08-07T10:01:27Z</time>
      </trkpt>
      <trkpt lat="44.80387" lon="1.62696">
        <ele>253.2</ele>
        <time>2022-08-07T10:01:29Z</time>
      </trkpt>
      <trkpt lat="44.8039" lon="1.62697">
        <ele>253.5</ele>
        <time>2022-08-07T10:01:31Z</time>
      </trkpt>
      <trkpt lat="44.80392" lon="1.62699">
        <ele>254</ele>
        <time>2022-08-07T10:01:33Z</time>
      </trkpt>
      <trkpt lat="44.80396" lon="1.62699">
        <ele>254.4</ele>
        <time>2022-08-07T10:01:35Z</time>
      </trkpt>
      <trkpt lat="44.80398" lon="1.62699">
        <ele>254.7</ele>
        <time>2022-08-07T10:01:37Z</time>
      </trkpt>
      <trkpt lat="44.80398" lon="1.62699">
        <ele>254.6</ele>
        <time>2022-08-07T10:01:39Z</time>
      </trkpt>
      <trkpt lat="44.80398" lon="1.62699">
        <ele>254.6</ele>
        <time>2022-08-07T10:01:41Z</time>
      </trkpt>
      <trkpt lat="44.80398" lon="1.62699">
        <ele>254.7</ele>
        <time>2022-08-07T10:01:43Z</time>
      </trkpt>
      <trkpt lat="44.80398" lon="1.62699">
        <ele>254.7</ele>
        <time>2022-08-07T10:01:47Z</time>
      </trkpt>
      <trkpt lat="44.8041" lon="1.62702">
        <ele>256.1</ele>
        <time>2022-08-07T10:02:11Z</time>
      </trkpt>
      <trkpt lat="44.80413" lon="1.62702">
        <ele>256.4</ele>
        <time>2022-08-07T10:02:13Z</time>
      </trkpt>
      <trkpt lat="44.80417" lon="1.62702">
        <ele>256.9</ele>
        <time>2022-08-07T10:02:15Z</time>
      </trkpt>
      <trkpt lat="44.80418" lon="1.62704">
        <ele>256.9</ele>
        <time>2022-08-07T10:02:17Z</time>
      </trkpt>
      <trkpt lat="44.80421" lon="1.62704">
        <ele>257</ele>
        <time>2022-08-07T10:02:19Z</time>
      </trkpt>
      <trkpt lat="44.80426" lon="1.62704">
        <ele>257</ele>
        <time>2022-08-07T10:02:21Z</time>
      </trkpt>
      <trkpt lat="44.80431" lon="1.62703">
        <ele>257.1</ele>
        <time>2022-08-07T10:02:23Z</time>
      </trkpt>
      <trkpt lat="44.80435" lon="1.62701">
        <ele>257.1</ele>
        <time>2022-08-07T10:02:25Z</time>
      </trkpt>
      <trkpt lat="44.80439" lon="1.627">
        <ele>257.2</ele>
        <time>2022-08-07T10:02:27Z</time>
      </trkpt>
      <trkpt lat="44.80443" lon="1.62699">
        <ele>257.2</ele>
        <time>2022-08-07T10:02:29Z</time>
      </trkpt>
      <trkpt lat="44.80445" lon="1.62701">
        <ele>257.3</ele>
        <time>2022-08-07T10:02:31Z</time>
      </trkpt>
      <trkpt lat="44.80449" lon="1.62706">
        <ele>257.4</ele>
        <time>2022-08-07T10:02:33Z</time>
      </trkpt>
      <trkpt lat="44.80456" lon="1.62702">
        <ele>257.5</ele>
        <time>2022-08-07T10:02:35Z</time>
      </trkpt>
      <trkpt lat="44.80462" lon="1.627">
        <ele>257.6</ele>
        <time>2022-08-07T10:02:37Z</time>
      </trkpt>
      <trkpt lat="44.80468" lon="1.62697">
        <ele>257.7</ele>
        <time>2022-08-07T10:02:39Z</time>
      </trkpt>
      <trkpt lat="44.80472" lon="1.62691">
        <ele>257.8</ele>
        <time>2022-08-07T10:02:41Z</time>
      </trkpt>
      <trkpt lat="44.80476" lon="1.62687">
        <ele>257.9</ele>
        <time>2022-08-07T10:02:43Z</time>
      </trkpt>
      <trkpt lat="44.8048" lon="1.62681">
        <ele>258.1</ele>
        <time>2022-08-07T10:02:45Z</time>
      </trkpt>
      <trkpt lat="44.80482" lon="1.62674">
        <ele>258.2</ele>
        <time>2022-08-07T10:02:47Z</time>
      </trkpt>
      <trkpt lat="44.80483" lon="1.62667">
        <ele>258.4</ele>
        <time>2022-08-07T10:02:49Z</time>
      </trkpt>
      <trkpt lat="44.80484" lon="1.6266">
        <ele>258.3</ele>
        <time>2022-08-07T10:02:51Z</time>
      </trkpt>
      <trkpt lat="44.80485" lon="1.62654">
        <ele>258.1</ele>
        <time>2022-08-07T10:02:53Z</time>
      </trkpt>
      <trkpt lat="44.80487" lon="1.62648">
        <ele>258.1</ele>
        <time>2022-08-07T10:02:55Z</time>
      </trkpt>
      <trkpt lat="44.80488" lon="1.62642">
        <ele>258</ele>
        <time>2022-08-07T10:02:57Z</time>
      </trkpt>
      <trkpt lat="44.80491" lon="1.62635">
        <ele>258</ele>
        <time>2022-08-07T10:02:59Z</time>
      </trkpt>
      <trkpt lat="44.80492" lon="1.62629">
        <ele>258</ele>
        <time>2022-08-07T10:03:01Z</time>
      </trkpt>
      <trkpt lat="44.80493" lon="1.62622">
        <ele>257.9</ele>
        <time>2022-08-07T10:03:03Z</time>
      </trkpt>
      <trkpt lat="44.80488" lon="1.62619">
        <ele>257.5</ele>
        <time>2022-08-07T10:03:05Z</time>
      </trkpt>
      <trkpt lat="44.80483" lon="1.62622">
        <ele>257.2</ele>
        <time>2022-08-07T10:03:07Z</time>
      </trkpt>
      <trkpt lat="44.80478" lon="1.62621">
        <ele>256.8</ele>
        <time>2022-08-07T10:03:09Z</time>
      </trkpt>
      <trkpt lat="44.80475" lon="1.6262">
        <ele>256.5</ele>
        <time>2022-08-07T10:03:11Z</time>
      </trkpt>
      <trkpt lat="44.80474" lon="1.62619">
        <ele>256.4</ele>
        <time>2022-08-07T10:03:13Z</time>
      </trkpt>
      <trkpt lat="44.80474" lon="1.62619">
        <ele>256.4</ele>
        <time>2022-08-07T10:03:15Z</time>
      </trkpt>
      <trkpt lat="44.80474" lon="1.62619">
        <ele>256.4</ele>
        <time>2022-08-07T10:03:17Z</time>
      </trkpt>
      <trkpt lat="44.80474" lon="1.62619">
        <ele>256.4</ele>
        <time>2022-08-07T10:03:21Z</time>
      </trkpt>
      <trkpt lat="44.80478" lon="1.62601">
        <ele>256.2</ele>
        <time>2022-08-07T10:03:57Z</time>
      </trkpt>
      <trkpt lat="44.8048" lon="1.62595">
        <ele>256.2</ele>
        <time>2022-08-07T10:03:59Z</time>
      </trkpt>
      <trkpt lat="44.8048" lon="1.62589">
        <ele>256</ele>
        <time>2022-08-07T10:04:01Z</time>
      </trkpt>
      <trkpt lat="44.80482" lon="1.62583">
        <ele>256</ele>
        <time>2022-08-07T10:04:03Z</time>
      </trkpt>
      <trkpt lat="44.80481" lon="1.62579">
        <ele>255.9</ele>
        <time>2022-08-07T10:04:05Z</time>
      </trkpt>
      <trkpt lat="44.80477" lon="1.62577">
        <ele>255.4</ele>
        <time>2022-08-07T10:04:07Z</time>
      </trkpt>
      <trkpt lat="44.80474" lon="1.62573">
        <ele>254.9</ele>
        <time>2022-08-07T10:04:09Z</time>
      </trkpt>
      <trkpt lat="44.80472" lon="1.6257">
        <ele>254.6</ele>
        <time>2022-08-07T10:04:11Z</time>
      </trkpt>
      <trkpt lat="44.8047" lon="1.62569">
        <ele>254.2</ele>
        <time>2022-08-07T10:04:13Z</time>
      </trkpt>
      <trkpt lat="44.80467" lon="1.62564">
        <ele>253.7</ele>
        <time>2022-08-07T10:04:15Z</time>
      </trkpt>
      <trkpt lat="44.80467" lon="1.62559">
        <ele>253.6</ele>
        <time>2022-08-07T10:04:17Z</time>
      </trkpt>
      <trkpt lat="44.80467" lon="1.62555">
        <ele>253.4</ele>
        <time>2022-08-07T10:04:19Z</time>
      </trkpt>
      <trkpt lat="44.80466" lon="1.62551">
        <ele>253</ele>
        <time>2022-08-07T10:04:21Z</time>
      </trkpt>
      <trkpt lat="44.80462" lon="1.62551">
        <ele>252.5</ele>
        <time>2022-08-07T10:04:23Z</time>
      </trkpt>
      <trkpt lat="44.80463" lon="1.62552">
        <ele>252.6</ele>
        <time>2022-08-07T10:04:25Z</time>
      </trkpt>
      <trkpt lat="44.80463" lon="1.62551">
        <ele>252.5</ele>
        <time>2022-08-07T10:04:27Z</time>
      </trkpt>
      <trkpt lat="44.80463" lon="1.62552">
        <ele>252.5</ele>
        <time>2022-08-07T10:04:29Z</time>
      </trkpt>
      <trkpt lat="44.80463" lon="1.62552">
        <ele>252.5</ele>
        <time>2022-08-07T10:04:31Z</time>
      </trkpt>
      <trkpt lat="44.80462" lon="1.62551">
        <ele>252.5</ele>
        <time>2022-08-07T10:04:33Z</time>
      </trkpt>
      <trkpt lat="44.80474" lon="1.62575">
        <ele>255</ele>
        <time>2022-08-07T13:26:21Z</time>
      </trkpt>
      <trkpt lat="44.80474" lon="1.62575">
        <ele>254.9</ele>
        <time>2022-08-07T13:26:22Z</time>
      </trkpt>
      <trkpt lat="44.80483" lon="1.62583">
        <ele>256.2</ele>
        <time>2022-08-07T13:26:43Z</time>
      </trkpt>
      <trkpt lat="44.80485" lon="1.62586">
        <ele>256.5</ele>
        <time>2022-08-07T13:26:45Z</time>
      </trkpt>
      <trkpt lat="44.80485" lon="1.62591">
        <ele>256.6</ele>
        <time>2022-08-07T13:26:47Z</time>
      </trkpt>
      <trkpt lat="44.80484" lon="1.62596">
        <ele>256.6</ele>
        <time>2022-08-07T13:26:49Z</time>
      </trkpt>
      <trkpt lat="44.80483" lon="1.62601">
        <ele>256.6</ele>
        <time>2022-08-07T13:26:51Z</time>
      </trkpt>
      <trkpt lat="44.80483" lon="1.62606">
        <ele>256.7</ele>
        <time>2022-08-07T13:26:53Z</time>
      </trkpt>
      <trkpt lat="44.80484" lon="1.6261">
        <ele>257</ele>
        <time>2022-08-07T13:26:55Z</time>
      </trkpt>
      <trkpt lat="44.80486" lon="1.62611">
        <ele>257.2</ele>
        <time>2022-08-07T13:26:57Z</time>
      </trkpt>
      <trkpt lat="44.80487" lon="1.62611">
        <ele>257.2</ele>
        <time>2022-08-07T13:26:59Z</time>
      </trkpt>
      <trkpt lat="44.80487" lon="1.62611">
        <ele>257.3</ele>
        <time>2022-08-07T13:27:01Z</time>
      </trkpt>
      <trkpt lat="44.8049" lon="1.62619">
        <ele>257.6</ele>
        <time>2022-08-07T13:27:03Z</time>
      </trkpt>
      <trkpt lat="44.80488" lon="1.62627">
        <ele>257.7</ele>
        <time>2022-08-07T13:27:05Z</time>
      </trkpt>
      <trkpt lat="44.80489" lon="1.62636">
        <ele>258</ele>
        <time>2022-08-07T13:27:07Z</time>
      </trkpt>
      <trkpt lat="44.80499" lon="1.62634">
        <ele>258.6</ele>
        <time>2022-08-07T13:27:09Z</time>
      </trkpt>
      <trkpt lat="44.80507" lon="1.62636">
        <ele>258.7</ele>
        <time>2022-08-07T13:27:11Z</time>
      </trkpt>
      <trkpt lat="44.80514" lon="1.62637">
        <ele>258.7</ele>
        <time>2022-08-07T13:27:13Z</time>
      </trkpt>
      <trkpt lat="44.80522" lon="1.6264">
        <ele>258.7</ele>
        <time>2022-08-07T13:27:15Z</time>
      </trkpt>
      <trkpt lat="44.8053" lon="1.62643">
        <ele>258.6</ele>
        <time>2022-08-07T13:27:17Z</time>
      </trkpt>
      <trkpt lat="44.80539" lon="1.62647">
        <ele>258.5</ele>
        <time>2022-08-07T13:27:19Z</time>
      </trkpt>
      <trkpt lat="44.80547" lon="1.62649">
        <ele>258.4</ele>
        <time>2022-08-07T13:27:21Z</time>
      </trkpt>
      <trkpt lat="44.80555" lon="1.6265">
        <ele>258.3</ele>
        <time>2022-08-07T13:27:23Z</time>
      </trkpt>
      <trkpt lat="44.80562" lon="1.62653">
        <ele>258.1</ele>
        <time>2022-08-07T13:27:25Z</time>
      </trkpt>
      <trkpt lat="44.80569" lon="1.62652">
        <ele>258</ele>
        <time>2022-08-07T13:27:27Z</time>
      </trkpt>
      <trkpt lat="44.80577" lon="1.62653">
        <ele>257.9</ele>
        <time>2022-08-07T13:27:29Z</time>
      </trkpt>
      <trkpt lat="44.80585" lon="1.62655">
        <ele>257.7</ele>
        <time>2022-08-07T13:27:31Z</time>
      </trkpt>
      <trkpt lat="44.80591" lon="1.62659">
        <ele>257.7</ele>
        <time>2022-08-07T13:27:33Z</time>
      </trkpt>
      <trkpt lat="44.80597" lon="1.6266">
        <ele>257.9</ele>
        <time>2022-08-07T13:27:35Z</time>
      </trkpt>
      <trkpt lat="44.80605" lon="1.62662">
        <ele>258</ele>
        <time>2022-08-07T13:27:37Z</time>
      </trkpt>
      <trkpt lat="44.8061" lon="1.62666">
        <ele>258</ele>
        <time>2022-08-07T13:27:39Z</time>
      </trkpt>
      <trkpt lat="44.80614" lon="1.6267">
        <ele>258</ele>
        <time>2022-08-07T13:27:41Z</time>
      </trkpt>
      <trkpt lat="44.80619" lon="1.62671">
        <ele>258.1</ele>
        <time>2022-08-07T13:27:43Z</time>
      </trkpt>
      <trkpt lat="44.80622" lon="1.62673">
        <ele>258.1</ele>
        <time>2022-08-07T13:27:45Z</time>
      </trkpt>
      <trkpt lat="44.80625" lon="1.62674">
        <ele>258.2</ele>
        <time>2022-08-07T13:27:47Z</time>
      </trkpt>
      <trkpt lat="44.80628" lon="1.62675">
        <ele>258.2</ele>
        <time>2022-08-07T13:27:49Z</time>
      </trkpt>
      <trkpt lat="44.80631" lon="1.62676">
        <ele>258.3</ele>
        <time>2022-08-07T13:27:51Z</time>
      </trkpt>
      <trkpt lat="44.80635" lon="1.62677">
        <ele>258.3</ele>
        <time>2022-08-07T13:27:53Z</time>
      </trkpt>
      <trkpt lat="44.80635" lon="1.62676">
        <ele>258.4</ele>
        <time>2022-08-07T13:27:55Z</time>
      </trkpt>
      <trkpt lat="44.80634" lon="1.62676">
        <ele>258.4</ele>
        <time>2022-08-07T13:27:57Z</time>
      </trkpt>
      <trkpt lat="44.80633" lon="1.62676">
        <ele>258.3</ele>
        <time>2022-08-07T13:27:59Z</time>
      </trkpt>
      <trkpt lat="44.80635" lon="1.62677">
        <ele>258.3</ele>
        <time>2022-08-07T13:28:01Z</time>
      </trkpt>
      <trkpt lat="44.80637" lon="1.62677">
        <ele>258.4</ele>
        <time>2022-08-07T13:28:03Z</time>
      </trkpt>
      <trkpt lat="44.80639" lon="1.62679">
        <ele>258.4</ele>
        <time>2022-08-07T13:28:05Z</time>
      </trkpt>
      <trkpt lat="44.80641" lon="1.62679">
        <ele>258.4</ele>
        <time>2022-08-07T13:28:07Z</time>
      </trkpt>
      <trkpt lat="44.80641" lon="1.62679">
        <ele>258.4</ele>
        <time>2022-08-07T13:28:09Z</time>
      </trkpt>
      <trkpt lat="44.80641" lon="1.62679">
        <ele>258.4</ele>
        <time>2022-08-07T13:28:11Z</time>
      </trkpt>
      <trkpt lat="44.80641" lon="1.62679">
        <ele>258.4</ele>
        <time>2022-08-07T13:28:13Z</time>
      </trkpt>
      <trkpt lat="44.80641" lon="1.62679">
        <ele>258.4</ele>
        <time>2022-08-07T13:28:15Z</time>
      </trkpt>
      <trkpt lat="44.80605" lon="1.62665">
        <ele>257.8</ele>
        <time>2022-08-07T13:34:15Z</time>
      </trkpt>
      <trkpt lat="44.80598" lon="1.62663">
        <ele>257.8</ele>
        <time>2022-08-07T13:34:17Z</time>
      </trkpt>
      <trkpt lat="44.80592" lon="1.6266">
        <ele>257.7</ele>
        <time>2022-08-07T13:34:19Z</time>
      </trkpt>
      <trkpt lat="44.80585" lon="1.62659">
        <ele>257.5</ele>
        <time>2022-08-07T13:34:21Z</time>
      </trkpt>
      <trkpt lat="44.80578" lon="1.62656">
        <ele>257.7</ele>
        <time>2022-08-07T13:34:23Z</time>
      </trkpt>
      <trkpt lat="44.8057" lon="1.62652">
        <ele>258</ele>
        <time>2022-08-07T13:34:25Z</time>
      </trkpt>
      <trkpt lat="44.80563" lon="1.62651">
        <ele>258.2</ele>
        <time>2022-08-07T13:34:27Z</time>
      </trkpt>
      <trkpt lat="44.80554" lon="1.62649">
        <ele>258.3</ele>
        <time>2022-08-07T13:34:29Z</time>
      </trkpt>
      <trkpt lat="44.80545" lon="1.62645">
        <ele>258.5</ele>
        <time>2022-08-07T13:34:31Z</time>
      </trkpt>
      <trkpt lat="44.80536" lon="1.62642">
        <ele>258.6</ele>
        <time>2022-08-07T13:34:33Z</time>
      </trkpt>
      <trkpt lat="44.80528" lon="1.62639">
        <ele>258.7</ele>
        <time>2022-08-07T13:34:35Z</time>
      </trkpt>
      <trkpt lat="44.8052" lon="1.62636">
        <ele>258.7</ele>
        <time>2022-08-07T13:34:37Z</time>
      </trkpt>
      <trkpt lat="44.80513" lon="1.62635">
        <ele>258.7</ele>
        <time>2022-08-07T13:34:39Z</time>
      </trkpt>
      <trkpt lat="44.80506" lon="1.62633">
        <ele>258.6</ele>
        <time>2022-08-07T13:34:41Z</time>
      </trkpt>
      <trkpt lat="44.80501" lon="1.62631">
        <ele>258.6</ele>
        <time>2022-08-07T13:34:43Z</time>
      </trkpt>
      <trkpt lat="44.80497" lon="1.62629">
        <ele>258.3</ele>
        <time>2022-08-07T13:34:45Z</time>
      </trkpt>
      <trkpt lat="44.80492" lon="1.62626">
        <ele>258</ele>
        <time>2022-08-07T13:34:47Z</time>
      </trkpt>
      <trkpt lat="44.80487" lon="1.62627">
        <ele>257.6</ele>
        <time>2022-08-07T13:34:49Z</time>
      </trkpt>
      <trkpt lat="44.80484" lon="1.62635">
        <ele>257.6</ele>
        <time>2022-08-07T13:34:51Z</time>
      </trkpt>
      <trkpt lat="44.80484" lon="1.62644">
        <ele>257.8</ele>
        <time>2022-08-07T13:34:53Z</time>
      </trkpt>
      <trkpt lat="44.80484" lon="1.62654">
        <ele>258.1</ele>
        <time>2022-08-07T13:34:55Z</time>
      </trkpt>
      <trkpt lat="44.80483" lon="1.62664">
        <ele>258.3</ele>
        <time>2022-08-07T13:34:57Z</time>
      </trkpt>
      <trkpt lat="44.80481" lon="1.62673">
        <ele>258.2</ele>
        <time>2022-08-07T13:34:59Z</time>
      </trkpt>
      <trkpt lat="44.80477" lon="1.62683">
        <ele>258</ele>
        <time>2022-08-07T13:35:01Z</time>
      </trkpt>
      <trkpt lat="44.80472" lon="1.62691">
        <ele>257.8</ele>
        <time>2022-08-07T13:35:03Z</time>
      </trkpt>
      <trkpt lat="44.80464" lon="1.62694">
        <ele>257.6</ele>
        <time>2022-08-07T13:35:05Z</time>
      </trkpt>
      <trkpt lat="44.80456" lon="1.62699">
        <ele>257.5</ele>
        <time>2022-08-07T13:35:07Z</time>
      </trkpt>
      <trkpt lat="44.80449" lon="1.62702">
        <ele>257.4</ele>
        <time>2022-08-07T13:35:09Z</time>
      </trkpt>
      <trkpt lat="44.80442" lon="1.62704">
        <ele>257.3</ele>
        <time>2022-08-07T13:35:11Z</time>
      </trkpt>
      <trkpt lat="44.80436" lon="1.62706">
        <ele>257.2</ele>
        <time>2022-08-07T13:35:13Z</time>
      </trkpt>
      <trkpt lat="44.8043" lon="1.62708">
        <ele>257.1</ele>
        <time>2022-08-07T13:35:15Z</time>
      </trkpt>
      <trkpt lat="44.80424" lon="1.62708">
        <ele>257.1</ele>
        <time>2022-08-07T13:35:17Z</time>
      </trkpt>
      <trkpt lat="44.80418" lon="1.62708">
        <ele>257</ele>
        <time>2022-08-07T13:35:19Z</time>
      </trkpt>
      <trkpt lat="44.80411" lon="1.62708">
        <ele>256.5</ele>
        <time>2022-08-07T13:35:21Z</time>
      </trkpt>
      <trkpt lat="44.80405" lon="1.62708">
        <ele>255.9</ele>
        <time>2022-08-07T13:35:23Z</time>
      </trkpt>
      <trkpt lat="44.80399" lon="1.62709">
        <ele>255.3</ele>
        <time>2022-08-07T13:35:25Z</time>
      </trkpt>
      <trkpt lat="44.80394" lon="1.62708">
        <ele>254.8</ele>
        <time>2022-08-07T13:35:27Z</time>
      </trkpt>
      <trkpt lat="44.80393" lon="1.62701">
        <ele>254.2</ele>
        <time>2022-08-07T13:35:29Z</time>
      </trkpt>
      <trkpt lat="44.80396" lon="1.62692">
        <ele>253.9</ele>
        <time>2022-08-07T13:35:31Z</time>
      </trkpt>
      <trkpt lat="44.80397" lon="1.62684">
        <ele>253.6</ele>
        <time>2022-08-07T13:35:33Z</time>
      </trkpt>
      <trkpt lat="44.80397" lon="1.62676">
        <ele>253.1</ele>
        <time>2022-08-07T13:35:35Z</time>
      </trkpt>
      <trkpt lat="44.80398" lon="1.62667">
        <ele>252.6</ele>
        <time>2022-08-07T13:35:37Z</time>
      </trkpt>
      <trkpt lat="44.80399" lon="1.62658">
        <ele>251.9</ele>
        <time>2022-08-07T13:35:39Z</time>
      </trkpt>
      <trkpt lat="44.80401" lon="1.62651">
        <ele>251.4</ele>
        <time>2022-08-07T13:35:41Z</time>
      </trkpt>
      <trkpt lat="44.80403" lon="1.62643">
        <ele>251</ele>
        <time>2022-08-07T13:35:43Z</time>
      </trkpt>
      <trkpt lat="44.80407" lon="1.62636">
        <ele>250.9</ele>
        <time>2022-08-07T13:35:45Z</time>
      </trkpt>
      <trkpt lat="44.80409" lon="1.62628">
        <ele>250.9</ele>
        <time>2022-08-07T13:35:47Z</time>
      </trkpt>
      <trkpt lat="44.8041" lon="1.6262">
        <ele>250.3</ele>
        <time>2022-08-07T13:35:49Z</time>
      </trkpt>
      <trkpt lat="44.80411" lon="1.62614">
        <ele>249.9</ele>
        <time>2022-08-07T13:35:51Z</time>
      </trkpt>
      <trkpt lat="44.80411" lon="1.62608">
        <ele>249.4</ele>
        <time>2022-08-07T13:35:53Z</time>
      </trkpt>
      <trkpt lat="44.80412" lon="1.62601">
        <ele>249.1</ele>
        <time>2022-08-07T13:35:55Z</time>
      </trkpt>
      <trkpt lat="44.80413" lon="1.62594">
        <ele>248.6</ele>
        <time>2022-08-07T13:35:57Z</time>
      </trkpt>
      <trkpt lat="44.80413" lon="1.62588">
        <ele>248.1</ele>
        <time>2022-08-07T13:35:59Z</time>
      </trkpt>
      <trkpt lat="44.80413" lon="1.62582">
        <ele>247.3</ele>
        <time>2022-08-07T13:36:01Z</time>
      </trkpt>
      <trkpt lat="44.80412" lon="1.62574">
        <ele>246.2</ele>
        <time>2022-08-07T13:36:03Z</time>
      </trkpt>
      <trkpt lat="44.80412" lon="1.62566">
        <ele>245.1</ele>
        <time>2022-08-07T13:36:05Z</time>
      </trkpt>
      <trkpt lat="44.80412" lon="1.62558">
        <ele>243.9</ele>
        <time>2022-08-07T13:36:07Z</time>
      </trkpt>
      <trkpt lat="44.80412" lon="1.6255">
        <ele>242.7</ele>
        <time>2022-08-07T13:36:09Z</time>
      </trkpt>
      <trkpt lat="44.80412" lon="1.62541">
        <ele>241.6</ele>
        <time>2022-08-07T13:36:11Z</time>
      </trkpt>
      <trkpt lat="44.80412" lon="1.62532">
        <ele>240.4</ele>
        <time>2022-08-07T13:36:13Z</time>
      </trkpt>
      <trkpt lat="44.80412" lon="1.62523">
        <ele>239.2</ele>
        <time>2022-08-07T13:36:15Z</time>
      </trkpt>
      <trkpt lat="44.80412" lon="1.62515">
        <ele>238</ele>
        <time>2022-08-07T13:36:17Z</time>
      </trkpt>
      <trkpt lat="44.80413" lon="1.62504">
        <ele>236.9</ele>
        <time>2022-08-07T13:36:19Z</time>
      </trkpt>
      <trkpt lat="44.80413" lon="1.62495">
        <ele>235.9</ele>
        <time>2022-08-07T13:36:21Z</time>
      </trkpt>
      <trkpt lat="44.80413" lon="1.62485">
        <ele>235.4</ele>
        <time>2022-08-07T13:36:23Z</time>
      </trkpt>
      <trkpt lat="44.80413" lon="1.62475">
        <ele>234.8</ele>
        <time>2022-08-07T13:36:25Z</time>
      </trkpt>
      <trkpt lat="44.80413" lon="1.62464">
        <ele>234.1</ele>
        <time>2022-08-07T13:36:27Z</time>
      </trkpt>
      <trkpt lat="44.80414" lon="1.62457">
        <ele>233.8</ele>
        <time>2022-08-07T13:36:29Z</time>
      </trkpt>
      <trkpt lat="44.80413" lon="1.62447">
        <ele>233.1</ele>
        <time>2022-08-07T13:36:31Z</time>
      </trkpt>
      <trkpt lat="44.80412" lon="1.62437">
        <ele>231.7</ele>
        <time>2022-08-07T13:36:33Z</time>
      </trkpt>
      <trkpt lat="44.80411" lon="1.62428">
        <ele>230.8</ele>
        <time>2022-08-07T13:36:35Z</time>
      </trkpt>
      <trkpt lat="44.8041" lon="1.6242">
        <ele>229.6</ele>
        <time>2022-08-07T13:36:37Z</time>
      </trkpt>
      <trkpt lat="44.80409" lon="1.62412">
        <ele>228.9</ele>
        <time>2022-08-07T13:36:39Z</time>
      </trkpt>
      <trkpt lat="44.80408" lon="1.62403">
        <ele>228.3</ele>
        <time>2022-08-07T13:36:41Z</time>
      </trkpt>
      <trkpt lat="44.80407" lon="1.62395">
        <ele>227.7</ele>
        <time>2022-08-07T13:36:43Z</time>
      </trkpt>
      <trkpt lat="44.80405" lon="1.62386">
        <ele>227</ele>
        <time>2022-08-07T13:36:45Z</time>
      </trkpt>
      <trkpt lat="44.80404" lon="1.62379">
        <ele>226.4</ele>
        <time>2022-08-07T13:36:47Z</time>
      </trkpt>
      <trkpt lat="44.80403" lon="1.62372">
        <ele>226.1</ele>
        <time>2022-08-07T13:36:49Z</time>
      </trkpt>
      <trkpt lat="44.80401" lon="1.62363">
        <ele>224.9</ele>
        <time>2022-08-07T13:36:51Z</time>
      </trkpt>
      <trkpt lat="44.80399" lon="1.62354">
        <ele>223.7</ele>
        <time>2022-08-07T13:36:53Z</time>
      </trkpt>
      <trkpt lat="44.80395" lon="1.62345">
        <ele>222</ele>
        <time>2022-08-07T13:36:55Z</time>
      </trkpt>
      <trkpt lat="44.80392" lon="1.62336">
        <ele>220.4</ele>
        <time>2022-08-07T13:36:57Z</time>
      </trkpt>
      <trkpt lat="44.80389" lon="1.62327">
        <ele>219.7</ele>
        <time>2022-08-07T13:36:59Z</time>
      </trkpt>
      <trkpt lat="44.80384" lon="1.62316">
        <ele>218.6</ele>
        <time>2022-08-07T13:37:01Z</time>
      </trkpt>
      <trkpt lat="44.8038" lon="1.62307">
        <ele>217.5</ele>
        <time>2022-08-07T13:37:03Z</time>
      </trkpt>
      <trkpt lat="44.80375" lon="1.62298">
        <ele>216.4</ele>
        <time>2022-08-07T13:37:05Z</time>
      </trkpt>
      <trkpt lat="44.80371" lon="1.62289">
        <ele>215.8</ele>
        <time>2022-08-07T13:37:07Z</time>
      </trkpt>
      <trkpt lat="44.80367" lon="1.62281">
        <ele>215.1</ele>
        <time>2022-08-07T13:37:09Z</time>
      </trkpt>
      <trkpt lat="44.80363" lon="1.62272">
        <ele>214.2</ele>
        <time>2022-08-07T13:37:11Z</time>
      </trkpt>
      <trkpt lat="44.80359" lon="1.62263">
        <ele>213.4</ele>
        <time>2022-08-07T13:37:13Z</time>
      </trkpt>
      <trkpt lat="44.80353" lon="1.62254">
        <ele>211.8</ele>
        <time>2022-08-07T13:37:15Z</time>
      </trkpt>
      <trkpt lat="44.80346" lon="1.62245">
        <ele>210.3</ele>
        <time>2022-08-07T13:37:17Z</time>
      </trkpt>
      <trkpt lat="44.80338" lon="1.62238">
        <ele>208</ele>
        <time>2022-08-07T13:37:19Z</time>
      </trkpt>
      <trkpt lat="44.80334" lon="1.62231">
        <ele>207.3</ele>
        <time>2022-08-07T13:37:21Z</time>
      </trkpt>
      <trkpt lat="44.80331" lon="1.62225">
        <ele>206.9</ele>
        <time>2022-08-07T13:37:23Z</time>
      </trkpt>
      <trkpt lat="44.80326" lon="1.62219">
        <ele>205.9</ele>
        <time>2022-08-07T13:37:25Z</time>
      </trkpt>
      <trkpt lat="44.80323" lon="1.62213">
        <ele>205.3</ele>
        <time>2022-08-07T13:37:27Z</time>
      </trkpt>
      <trkpt lat="44.8032" lon="1.62208">
        <ele>204.6</ele>
        <time>2022-08-07T13:37:29Z</time>
      </trkpt>
      <trkpt lat="44.80318" lon="1.62205">
        <ele>204.1</ele>
        <time>2022-08-07T13:37:31Z</time>
      </trkpt>
      <trkpt lat="44.80316" lon="1.62202">
        <ele>204</ele>
        <time>2022-08-07T13:37:33Z</time>
      </trkpt>
      <trkpt lat="44.80311" lon="1.62197">
        <ele>202.1</ele>
        <time>2022-08-07T13:37:35Z</time>
      </trkpt>
      <trkpt lat="44.80308" lon="1.62191">
        <ele>202</ele>
        <time>2022-08-07T13:37:37Z</time>
      </trkpt>
      <trkpt lat="44.80304" lon="1.62185">
        <ele>201.4</ele>
        <time>2022-08-07T13:37:39Z</time>
      </trkpt>
      <trkpt lat="44.803" lon="1.62179">
        <ele>200.3</ele>
        <time>2022-08-07T13:37:41Z</time>
      </trkpt>
      <trkpt lat="44.80296" lon="1.62174">
        <ele>199.5</ele>
        <time>2022-08-07T13:37:43Z</time>
      </trkpt>
      <trkpt lat="44.80293" lon="1.62168">
        <ele>198.9</ele>
        <time>2022-08-07T13:37:45Z</time>
      </trkpt>
      <trkpt lat="44.80289" lon="1.62162">
        <ele>198.6</ele>
        <time>2022-08-07T13:37:47Z</time>
      </trkpt>
      <trkpt lat="44.80287" lon="1.62159">
        <ele>198.2</ele>
        <time>2022-08-07T13:37:49Z</time>
      </trkpt>
      <trkpt lat="44.80287" lon="1.62161">
        <ele>197.8</ele>
        <time>2022-08-07T13:37:51Z</time>
      </trkpt>
      <trkpt lat="44.80287" lon="1.62161">
        <ele>197.8</ele>
        <time>2022-08-07T13:37:53Z</time>
      </trkpt>
      <trkpt lat="44.80287" lon="1.62161">
        <ele>197.9</ele>
        <time>2022-08-07T13:37:55Z</time>
      </trkpt>
      <trkpt lat="44.80287" lon="1.62161">
        <ele>197.7</ele>
        <time>2022-08-07T13:37:57Z</time>
      </trkpt>
      <trkpt lat="44.80287" lon="1.62162">
        <ele>197.6</ele>
        <time>2022-08-07T13:37:59Z</time>
      </trkpt>
      <trkpt lat="44.80267" lon="1.62128">
        <ele>196</ele>
        <time>2022-08-07T13:38:51Z</time>
      </trkpt>
      <trkpt lat="44.80262" lon="1.62118">
        <ele>195.6</ele>
        <time>2022-08-07T13:38:53Z</time>
      </trkpt>
      <trkpt lat="44.80258" lon="1.6211">
        <ele>195.6</ele>
        <time>2022-08-07T13:38:55Z</time>
      </trkpt>
      <trkpt lat="44.80253" lon="1.62101">
        <ele>194.9</ele>
        <time>2022-08-07T13:38:57Z</time>
      </trkpt>
      <trkpt lat="44.80247" lon="1.62095">
        <ele>193.9</ele>
        <time>2022-08-07T13:38:59Z</time>
      </trkpt>
      <trkpt lat="44.80243" lon="1.62091">
        <ele>193.2</ele>
        <time>2022-08-07T13:39:01Z</time>
      </trkpt>
      <trkpt lat="44.8024" lon="1.62086">
        <ele>192.9</ele>
        <time>2022-08-07T13:39:03Z</time>
      </trkpt>
      <trkpt lat="44.80234" lon="1.62079">
        <ele>192.2</ele>
        <time>2022-08-07T13:39:05Z</time>
      </trkpt>
      <trkpt lat="44.80227" lon="1.62071">
        <ele>191.9</ele>
        <time>2022-08-07T13:39:07Z</time>
      </trkpt>
      <trkpt lat="44.80222" lon="1.62062">
        <ele>192.2</ele>
        <time>2022-08-07T13:39:09Z</time>
      </trkpt>
      <trkpt lat="44.80217" lon="1.62056">
        <ele>191.6</ele>
        <time>2022-08-07T13:39:11Z</time>
      </trkpt>
      <trkpt lat="44.80211" lon="1.62049">
        <ele>190.8</ele>
        <time>2022-08-07T13:39:13Z</time>
      </trkpt>
      <trkpt lat="44.80204" lon="1.62042">
        <ele>189.8</ele>
        <time>2022-08-07T13:39:15Z</time>
      </trkpt>
      <trkpt lat="44.80199" lon="1.62036">
        <ele>189</ele>
        <time>2022-08-07T13:39:17Z</time>
      </trkpt>
      <trkpt lat="44.80195" lon="1.62033">
        <ele>187.9</ele>
        <time>2022-08-07T13:39:19Z</time>
      </trkpt>
      <trkpt lat="44.8019" lon="1.62028">
        <ele>187.1</ele>
        <time>2022-08-07T13:39:21Z</time>
      </trkpt>
      <trkpt lat="44.80186" lon="1.62024">
        <ele>186.2</ele>
        <time>2022-08-07T13:39:23Z</time>
      </trkpt>
      <trkpt lat="44.80182" lon="1.62018">
        <ele>185.7</ele>
        <time>2022-08-07T13:39:25Z</time>
      </trkpt>
      <trkpt lat="44.80177" lon="1.62013">
        <ele>184.8</ele>
        <time>2022-08-07T13:39:27Z</time>
      </trkpt>
      <trkpt lat="44.80174" lon="1.62009">
        <ele>184.1</ele>
        <time>2022-08-07T13:39:29Z</time>
      </trkpt>
      <trkpt lat="44.8017" lon="1.62006">
        <ele>183.1</ele>
        <time>2022-08-07T13:39:31Z</time>
      </trkpt>
      <trkpt lat="44.80166" lon="1.62002">
        <ele>182.3</ele>
        <time>2022-08-07T13:39:33Z</time>
      </trkpt>
      <trkpt lat="44.80163" lon="1.61998">
        <ele>182.1</ele>
        <time>2022-08-07T13:39:35Z</time>
      </trkpt>
      <trkpt lat="44.80159" lon="1.61993">
        <ele>181.9</ele>
        <time>2022-08-07T13:39:37Z</time>
      </trkpt>
      <trkpt lat="44.80156" lon="1.61988">
        <ele>182.1</ele>
        <time>2022-08-07T13:39:39Z</time>
      </trkpt>
      <trkpt lat="44.80154" lon="1.61984">
        <ele>182.2</ele>
        <time>2022-08-07T13:39:41Z</time>
      </trkpt>
      <trkpt lat="44.80151" lon="1.6198">
        <ele>182.3</ele>
        <time>2022-08-07T13:39:43Z</time>
      </trkpt>
      <trkpt lat="44.80151" lon="1.61978">
        <ele>182.7</ele>
        <time>2022-08-07T13:39:45Z</time>
      </trkpt>
      <trkpt lat="44.8015" lon="1.61976">
        <ele>183</ele>
        <time>2022-08-07T13:39:47Z</time>
      </trkpt>
      <trkpt lat="44.80149" lon="1.61974">
        <ele>183.3</ele>
        <time>2022-08-07T13:39:49Z</time>
      </trkpt>
      <trkpt lat="44.80148" lon="1.61972">
        <ele>183.4</ele>
        <time>2022-08-07T13:39:51Z</time>
      </trkpt>
      <trkpt lat="44.80148" lon="1.61971">
        <ele>183.6</ele>
        <time>2022-08-07T13:39:53Z</time>
      </trkpt>
      <trkpt lat="44.80137" lon="1.61964">
        <ele>181.1</ele>
        <time>2022-08-07T15:44:40Z</time>
      </trkpt>
      <trkpt lat="44.80137" lon="1.61964">
        <ele>181.4</ele>
        <time>2022-08-07T15:44:42Z</time>
      </trkpt>
      <trkpt lat="44.80137" lon="1.61978">
        <ele>177.6</ele>
        <time>2022-08-07T15:46:36Z</time>
      </trkpt>
      <trkpt lat="44.80141" lon="1.61984">
        <ele>177.7</ele>
        <time>2022-08-07T15:46:38Z</time>
      </trkpt>
      <trkpt lat="44.80145" lon="1.61988">
        <ele>177.7</ele>
        <time>2022-08-07T15:46:40Z</time>
      </trkpt>
      <trkpt lat="44.80148" lon="1.61993">
        <ele>177.7</ele>
        <time>2022-08-07T15:46:42Z</time>
      </trkpt>
      <trkpt lat="44.80151" lon="1.61999">
        <ele>177.6</ele>
        <time>2022-08-07T15:46:44Z</time>
      </trkpt>
      <trkpt lat="44.80154" lon="1.62002">
        <ele>178</ele>
        <time>2022-08-07T15:46:46Z</time>
      </trkpt>
      <trkpt lat="44.80158" lon="1.62004">
        <ele>178.8</ele>
        <time>2022-08-07T15:46:48Z</time>
      </trkpt>
      <trkpt lat="44.80164" lon="1.62006">
        <ele>180.4</ele>
        <time>2022-08-07T15:46:50Z</time>
      </trkpt>
      <trkpt lat="44.80167" lon="1.62009">
        <ele>180.8</ele>
        <time>2022-08-07T15:46:52Z</time>
      </trkpt>
      <trkpt lat="44.8017" lon="1.62012">
        <ele>181.6</ele>
        <time>2022-08-07T15:46:54Z</time>
      </trkpt>
      <trkpt lat="44.80173" lon="1.62016">
        <ele>182.1</ele>
        <time>2022-08-07T15:46:56Z</time>
      </trkpt>
      <trkpt lat="44.80176" lon="1.62019">
        <ele>182.7</ele>
        <time>2022-08-07T15:46:58Z</time>
      </trkpt>
      <trkpt lat="44.80181" lon="1.62022">
        <ele>184.4</ele>
        <time>2022-08-07T15:47:00Z</time>
      </trkpt>
      <trkpt lat="44.80192" lon="1.62048">
        <ele>182.6</ele>
        <time>2022-08-07T15:47:02Z</time>
      </trkpt>
      <trkpt lat="44.80192" lon="1.62058">
        <ele>180.1</ele>
        <time>2022-08-07T15:47:04Z</time>
      </trkpt>
      <trkpt lat="44.80198" lon="1.62068">
        <ele>179.7</ele>
        <time>2022-08-07T15:47:06Z</time>
      </trkpt>
      <trkpt lat="44.80204" lon="1.6208">
        <ele>179.2</ele>
        <time>2022-08-07T15:47:08Z</time>
      </trkpt>
      <trkpt lat="44.80207" lon="1.62091">
        <ele>177.8</ele>
        <time>2022-08-07T15:47:10Z</time>
      </trkpt>
      <trkpt lat="44.80211" lon="1.62103">
        <ele>177</ele>
        <time>2022-08-07T15:47:12Z</time>
      </trkpt>
      <trkpt lat="44.80216" lon="1.62114">
        <ele>176.3</ele>
        <time>2022-08-07T15:47:14Z</time>
      </trkpt>
      <trkpt lat="44.80221" lon="1.62125">
        <ele>175.9</ele>
        <time>2022-08-07T15:47:16Z</time>
      </trkpt>
      <trkpt lat="44.80227" lon="1.62138">
        <ele>175.1</ele>
        <time>2022-08-07T15:47:18Z</time>
      </trkpt>
      <trkpt lat="44.80232" lon="1.62152">
        <ele>173.4</ele>
        <time>2022-08-07T15:47:20Z</time>
      </trkpt>
      <trkpt lat="44.80236" lon="1.62166">
        <ele>171.3</ele>
        <time>2022-08-07T15:47:22Z</time>
      </trkpt>
      <trkpt lat="44.80241" lon="1.6218">
        <ele>170</ele>
        <time>2022-08-07T15:47:24Z</time>
      </trkpt>
      <trkpt lat="44.80246" lon="1.62196">
        <ele>167.7</ele>
        <time>2022-08-07T15:47:26Z</time>
      </trkpt>
      <trkpt lat="44.8025" lon="1.62211">
        <ele>165.4</ele>
        <time>2022-08-07T15:47:28Z</time>
      </trkpt>
      <trkpt lat="44.80252" lon="1.62222">
        <ele>164</ele>
        <time>2022-08-07T15:47:30Z</time>
      </trkpt>
      <trkpt lat="44.80255" lon="1.62232">
        <ele>163.2</ele>
        <time>2022-08-07T15:47:32Z</time>
      </trkpt>
      <trkpt lat="44.80257" lon="1.62242">
        <ele>162.1</ele>
        <time>2022-08-07T15:47:34Z</time>
      </trkpt>
      <trkpt lat="44.80259" lon="1.62252">
        <ele>160.7</ele>
        <time>2022-08-07T15:47:36Z</time>
      </trkpt>
      <trkpt lat="44.80257" lon="1.62261">
        <ele>158.8</ele>
        <time>2022-08-07T15:47:38Z</time>
      </trkpt>
      <trkpt lat="44.80254" lon="1.62268">
        <ele>156.8</ele>
        <time>2022-08-07T15:47:40Z</time>
      </trkpt>
      <trkpt lat="44.8025" lon="1.62273">
        <ele>154.1</ele>
        <time>2022-08-07T15:47:42Z</time>
      </trkpt>
      <trkpt lat="44.80244" lon="1.62277">
        <ele>152.9</ele>
        <time>2022-08-07T15:47:44Z</time>
      </trkpt>
      <trkpt lat="44.80237" lon="1.62278">
        <ele>152</ele>
        <time>2022-08-07T15:47:46Z</time>
      </trkpt>
      <trkpt lat="44.8023" lon="1.62273">
        <ele>151.5</ele>
        <time>2022-08-07T15:47:48Z</time>
      </trkpt>
      <trkpt lat="44.80223" lon="1.62267">
        <ele>150.9</ele>
        <time>2022-08-07T15:47:50Z</time>
      </trkpt>
      <trkpt lat="44.80217" lon="1.62258">
        <ele>150.5</ele>
        <time>2022-08-07T15:47:52Z</time>
      </trkpt>
      <trkpt lat="44.80213" lon="1.6225">
        <ele>150.3</ele>
        <time>2022-08-07T15:47:54Z</time>
      </trkpt>
      <trkpt lat="44.80211" lon="1.62245">
        <ele>150.6</ele>
        <time>2022-08-07T15:47:56Z</time>
      </trkpt>
      <trkpt lat="44.8021" lon="1.62243">
        <ele>150.8</ele>
        <time>2022-08-07T15:47:58Z</time>
      </trkpt>
      <trkpt lat="44.8021" lon="1.62244">
        <ele>150.7</ele>
        <time>2022-08-07T15:48:00Z</time>
      </trkpt>
      <trkpt lat="44.8021" lon="1.62244">
        <ele>150.7</ele>
        <time>2022-08-07T15:48:02Z</time>
      </trkpt>
      <trkpt lat="44.8021" lon="1.62244">
        <ele>150.7</ele>
        <time>2022-08-07T15:48:04Z</time>
      </trkpt>
      <trkpt lat="44.8021" lon="1.62244">
        <ele>150.6</ele>
        <time>2022-08-07T15:48:06Z</time>
      </trkpt>
      <trkpt lat="44.80189" lon="1.6225">
        <ele>146.5</ele>
        <time>2022-08-07T15:48:24Z</time>
      </trkpt>
      <trkpt lat="44.80183" lon="1.62252">
        <ele>145.6</ele>
        <time>2022-08-07T15:48:26Z</time>
      </trkpt>
      <trkpt lat="44.80177" lon="1.62255">
        <ele>144.6</ele>
        <time>2022-08-07T15:48:28Z</time>
      </trkpt>
      <trkpt lat="44.80172" lon="1.62257">
        <ele>143.8</ele>
        <time>2022-08-07T15:48:30Z</time>
      </trkpt>
      <trkpt lat="44.80167" lon="1.6226">
        <ele>143.1</ele>
        <time>2022-08-07T15:48:32Z</time>
      </trkpt>
      <trkpt lat="44.80162" lon="1.62262">
        <ele>144.1</ele>
        <time>2022-08-07T15:48:34Z</time>
      </trkpt>
      <trkpt lat="44.80156" lon="1.62263">
        <ele>145.6</ele>
        <time>2022-08-07T15:48:36Z</time>
      </trkpt>
      <trkpt lat="44.80149" lon="1.62263">
        <ele>147.1</ele>
        <time>2022-08-07T15:48:38Z</time>
      </trkpt>
      <trkpt lat="44.80143" lon="1.62259">
        <ele>148.5</ele>
        <time>2022-08-07T15:48:40Z</time>
      </trkpt>
      <trkpt lat="44.80137" lon="1.62254">
        <ele>149.4</ele>
        <time>2022-08-07T15:48:42Z</time>
      </trkpt>
      <trkpt lat="44.80132" lon="1.62249">
        <ele>149.9</ele>
        <time>2022-08-07T15:48:44Z</time>
      </trkpt>
      <trkpt lat="44.80129" lon="1.62242">
        <ele>150.3</ele>
        <time>2022-08-07T15:48:46Z</time>
      </trkpt>
      <trkpt lat="44.80125" lon="1.62237">
        <ele>150.7</ele>
        <time>2022-08-07T15:48:48Z</time>
      </trkpt>
      <trkpt lat="44.8012" lon="1.62232">
        <ele>151.1</ele>
        <time>2022-08-07T15:48:50Z</time>
      </trkpt>
      <trkpt lat="44.80116" lon="1.62227">
        <ele>151.3</ele>
        <time>2022-08-07T15:48:52Z</time>
      </trkpt>
      <trkpt lat="44.80113" lon="1.62222">
        <ele>151.4</ele>
        <time>2022-08-07T15:48:54Z</time>
      </trkpt>
      <trkpt lat="44.80109" lon="1.62218">
        <ele>151.5</ele>
        <time>2022-08-07T15:48:56Z</time>
      </trkpt>
      <trkpt lat="44.80106" lon="1.62214">
        <ele>151.5</ele>
        <time>2022-08-07T15:48:58Z</time>
      </trkpt>
      <trkpt lat="44.80102" lon="1.62211">
        <ele>151.5</ele>
        <time>2022-08-07T15:49:00Z</time>
      </trkpt>
      <trkpt lat="44.801" lon="1.62209">
        <ele>151.5</ele>
        <time>2022-08-07T15:49:02Z</time>
      </trkpt>
      <trkpt lat="44.80096" lon="1.62207">
        <ele>151.6</ele>
        <time>2022-08-07T15:49:04Z</time>
      </trkpt>
      <trkpt lat="44.80093" lon="1.62204">
        <ele>151.5</ele>
        <time>2022-08-07T15:49:06Z</time>
      </trkpt>
      <trkpt lat="44.80089" lon="1.62201">
        <ele>151.3</ele>
        <time>2022-08-07T15:49:08Z</time>
      </trkpt>
      <trkpt lat="44.80086" lon="1.62199">
        <ele>151.3</ele>
        <time>2022-08-07T15:49:10Z</time>
      </trkpt>
      <trkpt lat="44.80083" lon="1.62197">
        <ele>151</ele>
        <time>2022-08-07T15:49:12Z</time>
      </trkpt>
      <trkpt lat="44.80081" lon="1.62194">
        <ele>151.3</ele>
        <time>2022-08-07T15:49:14Z</time>
      </trkpt>
      <trkpt lat="44.80082" lon="1.62195">
        <ele>151.1</ele>
        <time>2022-08-07T15:49:16Z</time>
      </trkpt>
      <trkpt lat="44.80082" lon="1.62194">
        <ele>151.1</ele>
        <time>2022-08-07T15:49:18Z</time>
      </trkpt>
      <trkpt lat="44.80082" lon="1.62194">
        <ele>151.1</ele>
        <time>2022-08-07T15:49:22Z</time>
      </trkpt>
      <trkpt lat="44.80071" lon="1.6219">
        <ele>153.9</ele>
        <time>2022-08-07T15:49:34Z</time>
      </trkpt>
      <trkpt lat="44.80066" lon="1.62187">
        <ele>154.6</ele>
        <time>2022-08-07T15:49:36Z</time>
      </trkpt>
      <trkpt lat="44.80061" lon="1.62184">
        <ele>155.5</ele>
        <time>2022-08-07T15:49:38Z</time>
      </trkpt>
      <trkpt lat="44.80057" lon="1.6218">
        <ele>155.8</ele>
        <time>2022-08-07T15:49:40Z</time>
      </trkpt>
      <trkpt lat="44.80053" lon="1.62177">
        <ele>156.5</ele>
        <time>2022-08-07T15:49:42Z</time>
      </trkpt>
      <trkpt lat="44.80048" lon="1.62174">
        <ele>157.1</ele>
        <time>2022-08-07T15:49:44Z</time>
      </trkpt>
      <trkpt lat="44.80044" lon="1.6217">
        <ele>157.4</ele>
        <time>2022-08-07T15:49:46Z</time>
      </trkpt>
      <trkpt lat="44.8004" lon="1.62166">
        <ele>157.4</ele>
        <time>2022-08-07T15:49:48Z</time>
      </trkpt>
      <trkpt lat="44.80035" lon="1.62162">
        <ele>158.1</ele>
        <time>2022-08-07T15:49:50Z</time>
      </trkpt>
      <trkpt lat="44.80031" lon="1.62159">
        <ele>158.6</ele>
        <time>2022-08-07T15:49:52Z</time>
      </trkpt>
      <trkpt lat="44.80027" lon="1.62155">
        <ele>159.2</ele>
        <time>2022-08-07T15:49:54Z</time>
      </trkpt>
      <trkpt lat="44.80023" lon="1.62152">
        <ele>159.8</ele>
        <time>2022-08-07T15:49:56Z</time>
      </trkpt>
      <trkpt lat="44.80019" lon="1.62149">
        <ele>160.1</ele>
        <time>2022-08-07T15:49:58Z</time>
      </trkpt>
      <trkpt lat="44.80016" lon="1.62145">
        <ele>160.3</ele>
        <time>2022-08-07T15:50:00Z</time>
      </trkpt>
      <trkpt lat="44.80013" lon="1.6214">
        <ele>160.3</ele>
        <time>2022-08-07T15:50:02Z</time>
      </trkpt>
      <trkpt lat="44.8001" lon="1.62135">
        <ele>160.1</ele>
        <time>2022-08-07T15:50:04Z</time>
      </trkpt>
      <trkpt lat="44.80007" lon="1.62129">
        <ele>159.5</ele>
        <time>2022-08-07T15:50:06Z</time>
      </trkpt>
      <trkpt lat="44.80004" lon="1.62125">
        <ele>159.4</ele>
        <time>2022-08-07T15:50:08Z</time>
      </trkpt>
      <trkpt lat="44.80002" lon="1.62119">
        <ele>158.7</ele>
        <time>2022-08-07T15:50:10Z</time>
      </trkpt>
      <trkpt lat="44.8" lon="1.62114">
        <ele>158</ele>
        <time>2022-08-07T15:50:12Z</time>
      </trkpt>
      <trkpt lat="44.79997" lon="1.62109">
        <ele>158.2</ele>
        <time>2022-08-07T15:50:14Z</time>
      </trkpt>
      <trkpt lat="44.79995" lon="1.62103">
        <ele>158.4</ele>
        <time>2022-08-07T15:50:16Z</time>
      </trkpt>
      <trkpt lat="44.79993" lon="1.62098">
        <ele>158.3</ele>
        <time>2022-08-07T15:50:18Z</time>
      </trkpt>
      <trkpt lat="44.79991" lon="1.62091">
        <ele>158.1</ele>
        <time>2022-08-07T15:50:20Z</time>
      </trkpt>
      <trkpt lat="44.7999" lon="1.62086">
        <ele>157.4</ele>
        <time>2022-08-07T15:50:22Z</time>
      </trkpt>
      <trkpt lat="44.79988" lon="1.62079">
        <ele>157.1</ele>
        <time>2022-08-07T15:50:24Z</time>
      </trkpt>
      <trkpt lat="44.79985" lon="1.62074">
        <ele>157.3</ele>
        <time>2022-08-07T15:50:26Z</time>
      </trkpt>
      <trkpt lat="44.79983" lon="1.6207">
        <ele>157.5</ele>
        <time>2022-08-07T15:50:28Z</time>
      </trkpt>
      <trkpt lat="44.79981" lon="1.62065">
        <ele>157.5</ele>
        <time>2022-08-07T15:50:30Z</time>
      </trkpt>
      <trkpt lat="44.79979" lon="1.6206">
        <ele>157.5</ele>
        <time>2022-08-07T15:50:32Z</time>
      </trkpt>
      <trkpt lat="44.79977" lon="1.62055">
        <ele>157.3</ele>
        <time>2022-08-07T15:50:34Z</time>
      </trkpt>
      <trkpt lat="44.79975" lon="1.6205">
        <ele>157.2</ele>
        <time>2022-08-07T15:50:36Z</time>
      </trkpt>
      <trkpt lat="44.79972" lon="1.62046">
        <ele>157.4</ele>
        <time>2022-08-07T15:50:38Z</time>
      </trkpt>
      <trkpt lat="44.7997" lon="1.62042">
        <ele>157.3</ele>
        <time>2022-08-07T15:50:40Z</time>
      </trkpt>
      <trkpt lat="44.79967" lon="1.62038">
        <ele>157.3</ele>
        <time>2022-08-07T15:50:42Z</time>
      </trkpt>
      <trkpt lat="44.79965" lon="1.62034">
        <ele>157.4</ele>
        <time>2022-08-07T15:50:44Z</time>
      </trkpt>
      <trkpt lat="44.79961" lon="1.62031">
        <ele>157.8</ele>
        <time>2022-08-07T15:50:46Z</time>
      </trkpt>
      <trkpt lat="44.79958" lon="1.62028">
        <ele>158.1</ele>
        <time>2022-08-07T15:50:48Z</time>
      </trkpt>
      <trkpt lat="44.79955" lon="1.62026">
        <ele>158.4</ele>
        <time>2022-08-07T15:50:50Z</time>
      </trkpt>
      <trkpt lat="44.79951" lon="1.62023">
        <ele>158.8</ele>
        <time>2022-08-07T15:50:52Z</time>
      </trkpt>
      <trkpt lat="44.79948" lon="1.62021">
        <ele>159</ele>
        <time>2022-08-07T15:50:54Z</time>
      </trkpt>
      <trkpt lat="44.79944" lon="1.62018">
        <ele>159.2</ele>
        <time>2022-08-07T15:50:56Z</time>
      </trkpt>
      <trkpt lat="44.79941" lon="1.62015">
        <ele>159.3</ele>
        <time>2022-08-07T15:50:58Z</time>
      </trkpt>
      <trkpt lat="44.79937" lon="1.62013">
        <ele>159.5</ele>
        <time>2022-08-07T15:51:00Z</time>
      </trkpt>
      <trkpt lat="44.79933" lon="1.6201">
        <ele>159.6</ele>
        <time>2022-08-07T15:51:02Z</time>
      </trkpt>
      <trkpt lat="44.7993" lon="1.62008">
        <ele>159.7</ele>
        <time>2022-08-07T15:51:04Z</time>
      </trkpt>
      <trkpt lat="44.79926" lon="1.62004">
        <ele>159.4</ele>
        <time>2022-08-07T15:51:06Z</time>
      </trkpt>
      <trkpt lat="44.79923" lon="1.62002">
        <ele>159.3</ele>
        <time>2022-08-07T15:51:08Z</time>
      </trkpt>
      <trkpt lat="44.7992" lon="1.62">
        <ele>159.3</ele>
        <time>2022-08-07T15:51:10Z</time>
      </trkpt>
      <trkpt lat="44.79916" lon="1.61997">
        <ele>159.7</ele>
        <time>2022-08-07T15:51:12Z</time>
      </trkpt>
      <trkpt lat="44.79912" lon="1.61995">
        <ele>160.7</ele>
        <time>2022-08-07T15:51:14Z</time>
      </trkpt>
      <trkpt lat="44.79909" lon="1.61992">
        <ele>161.7</ele>
        <time>2022-08-07T15:51:16Z</time>
      </trkpt>
      <trkpt lat="44.79905" lon="1.61989">
        <ele>162.3</ele>
        <time>2022-08-07T15:51:18Z</time>
      </trkpt>
      <trkpt lat="44.79901" lon="1.61987">
        <ele>163.1</ele>
        <time>2022-08-07T15:51:20Z</time>
      </trkpt>
      <trkpt lat="44.79898" lon="1.61984">
        <ele>163.5</ele>
        <time>2022-08-07T15:51:22Z</time>
      </trkpt>
      <trkpt lat="44.79895" lon="1.61982">
        <ele>164.1</ele>
        <time>2022-08-07T15:51:24Z</time>
      </trkpt>
      <trkpt lat="44.79892" lon="1.6198">
        <ele>164.7</ele>
        <time>2022-08-07T15:51:26Z</time>
      </trkpt>
      <trkpt lat="44.79889" lon="1.61978">
        <ele>165</ele>
        <time>2022-08-07T15:51:28Z</time>
      </trkpt>
      <trkpt lat="44.79885" lon="1.61975">
        <ele>165.2</ele>
        <time>2022-08-07T15:51:30Z</time>
      </trkpt>
      <trkpt lat="44.79883" lon="1.61973">
        <ele>165.4</ele>
        <time>2022-08-07T15:51:32Z</time>
      </trkpt>
      <trkpt lat="44.7988" lon="1.61971">
        <ele>165.8</ele>
        <time>2022-08-07T15:51:34Z</time>
      </trkpt>
      <trkpt lat="44.79877" lon="1.61969">
        <ele>165.7</ele>
        <time>2022-08-07T15:51:36Z</time>
      </trkpt>
      <trkpt lat="44.79873" lon="1.61967">
        <ele>166.1</ele>
        <time>2022-08-07T15:51:38Z</time>
      </trkpt>
      <trkpt lat="44.7987" lon="1.61964">
        <ele>166.2</ele>
        <time>2022-08-07T15:51:40Z</time>
      </trkpt>
      <trkpt lat="44.79867" lon="1.61962">
        <ele>166.1</ele>
        <time>2022-08-07T15:51:42Z</time>
      </trkpt>
      <trkpt lat="44.79864" lon="1.61961">
        <ele>166.4</ele>
        <time>2022-08-07T15:51:44Z</time>
      </trkpt>
      <trkpt lat="44.7986" lon="1.61959">
        <ele>166.6</ele>
        <time>2022-08-07T15:51:46Z</time>
      </trkpt>
      <trkpt lat="44.79856" lon="1.61957">
        <ele>166.8</ele>
        <time>2022-08-07T15:51:48Z</time>
      </trkpt>
      <trkpt lat="44.79853" lon="1.61955">
        <ele>166.8</ele>
        <time>2022-08-07T15:51:50Z</time>
      </trkpt>
      <trkpt lat="44.7985" lon="1.61953">
        <ele>166.6</ele>
        <time>2022-08-07T15:51:52Z</time>
      </trkpt>
      <trkpt lat="44.79846" lon="1.61951">
        <ele>166.4</ele>
        <time>2022-08-07T15:51:54Z</time>
      </trkpt>
      <trkpt lat="44.79843" lon="1.61949">
        <ele>166.4</ele>
        <time>2022-08-07T15:51:56Z</time>
      </trkpt>
      <trkpt lat="44.79839" lon="1.61947">
        <ele>166.4</ele>
        <time>2022-08-07T15:51:58Z</time>
      </trkpt>
      <trkpt lat="44.79835" lon="1.61946">
        <ele>166.3</ele>
        <time>2022-08-07T15:52:00Z</time>
      </trkpt>
      <trkpt lat="44.79833" lon="1.61945">
        <ele>166.4</ele>
        <time>2022-08-07T15:52:02Z</time>
      </trkpt>
      <trkpt lat="44.79829" lon="1.61943">
        <ele>167.1</ele>
        <time>2022-08-07T15:52:04Z</time>
      </trkpt>
      <trkpt lat="44.79825" lon="1.61942">
        <ele>168.4</ele>
        <time>2022-08-07T15:52:06Z</time>
      </trkpt>
      <trkpt lat="44.79821" lon="1.6194">
        <ele>168.9</ele>
        <time>2022-08-07T15:52:08Z</time>
      </trkpt>
      <trkpt lat="44.79817" lon="1.61938">
        <ele>169.9</ele>
        <time>2022-08-07T15:52:10Z</time>
      </trkpt>
      <trkpt lat="44.79813" lon="1.61937">
        <ele>170.7</ele>
        <time>2022-08-07T15:52:12Z</time>
      </trkpt>
      <trkpt lat="44.7981" lon="1.61935">
        <ele>171.2</ele>
        <time>2022-08-07T15:52:14Z</time>
      </trkpt>
      <trkpt lat="44.79806" lon="1.61933">
        <ele>172</ele>
        <time>2022-08-07T15:52:16Z</time>
      </trkpt>
      <trkpt lat="44.79803" lon="1.61931">
        <ele>172.5</ele>
        <time>2022-08-07T15:52:18Z</time>
      </trkpt>
      <trkpt lat="44.798" lon="1.6193">
        <ele>172.5</ele>
        <time>2022-08-07T15:52:20Z</time>
      </trkpt>
      <trkpt lat="44.79797" lon="1.61927">
        <ele>172.5</ele>
        <time>2022-08-07T15:52:22Z</time>
      </trkpt>
      <trkpt lat="44.79793" lon="1.61925">
        <ele>172.9</ele>
        <time>2022-08-07T15:52:24Z</time>
      </trkpt>
      <trkpt lat="44.7979" lon="1.61923">
        <ele>173.4</ele>
        <time>2022-08-07T15:52:26Z</time>
      </trkpt>
      <trkpt lat="44.79787" lon="1.61921">
        <ele>173.9</ele>
        <time>2022-08-07T15:52:28Z</time>
      </trkpt>
      <trkpt lat="44.79783" lon="1.6192">
        <ele>174.6</ele>
        <time>2022-08-07T15:52:30Z</time>
      </trkpt>
      <trkpt lat="44.7978" lon="1.61918">
        <ele>174.9</ele>
        <time>2022-08-07T15:52:32Z</time>
      </trkpt>
      <trkpt lat="44.79777" lon="1.61916">
        <ele>175.3</ele>
        <time>2022-08-07T15:52:34Z</time>
      </trkpt>
      <trkpt lat="44.79774" lon="1.61914">
        <ele>175.6</ele>
        <time>2022-08-07T15:52:36Z</time>
      </trkpt>
      <trkpt lat="44.79771" lon="1.61911">
        <ele>175.7</ele>
        <time>2022-08-07T15:52:38Z</time>
      </trkpt>
      <trkpt lat="44.79768" lon="1.61909">
        <ele>175.9</ele>
        <time>2022-08-07T15:52:40Z</time>
      </trkpt>
      <trkpt lat="44.79765" lon="1.61907">
        <ele>176.2</ele>
        <time>2022-08-07T15:52:42Z</time>
      </trkpt>
      <trkpt lat="44.79761" lon="1.61905">
        <ele>176.6</ele>
        <time>2022-08-07T15:52:44Z</time>
      </trkpt>
      <trkpt lat="44.79758" lon="1.61903">
        <ele>176.7</ele>
        <time>2022-08-07T15:52:46Z</time>
      </trkpt>
      <trkpt lat="44.79755" lon="1.61901">
        <ele>176.7</ele>
        <time>2022-08-07T15:52:48Z</time>
      </trkpt>
      <trkpt lat="44.79752" lon="1.61899">
        <ele>176.8</ele>
        <time>2022-08-07T15:52:50Z</time>
      </trkpt>
      <trkpt lat="44.79749" lon="1.61897">
        <ele>176.5</ele>
        <time>2022-08-07T15:52:52Z</time>
      </trkpt>
      <trkpt lat="44.79746" lon="1.61895">
        <ele>176.4</ele>
        <time>2022-08-07T15:52:54Z</time>
      </trkpt>
      <trkpt lat="44.79743" lon="1.61893">
        <ele>176.6</ele>
        <time>2022-08-07T15:52:56Z</time>
      </trkpt>
      <trkpt lat="44.7974" lon="1.61891">
        <ele>176.5</ele>
        <time>2022-08-07T15:52:58Z</time>
      </trkpt>
      <trkpt lat="44.79737" lon="1.61889">
        <ele>176.6</ele>
        <time>2022-08-07T15:53:00Z</time>
      </trkpt>
      <trkpt lat="44.79733" lon="1.61888">
        <ele>176.8</ele>
        <time>2022-08-07T15:53:02Z</time>
      </trkpt>
      <trkpt lat="44.79731" lon="1.61885">
        <ele>176.4</ele>
        <time>2022-08-07T15:53:04Z</time>
      </trkpt>
      <trkpt lat="44.79728" lon="1.61883">
        <ele>176.3</ele>
        <time>2022-08-07T15:53:06Z</time>
      </trkpt>
      <trkpt lat="44.79725" lon="1.6188">
        <ele>176</ele>
        <time>2022-08-07T15:53:08Z</time>
      </trkpt>
      <trkpt lat="44.79721" lon="1.61878">
        <ele>176</ele>
        <time>2022-08-07T15:53:10Z</time>
      </trkpt>
      <trkpt lat="44.79719" lon="1.61876">
        <ele>176</ele>
        <time>2022-08-07T15:53:12Z</time>
      </trkpt>
      <trkpt lat="44.79715" lon="1.61874">
        <ele>176</ele>
        <time>2022-08-07T15:53:14Z</time>
      </trkpt>
      <trkpt lat="44.79711" lon="1.61873">
        <ele>176.9</ele>
        <time>2022-08-07T15:53:16Z</time>
      </trkpt>
      <trkpt lat="44.79708" lon="1.61872">
        <ele>177.7</ele>
        <time>2022-08-07T15:53:18Z</time>
      </trkpt>
      <trkpt lat="44.79704" lon="1.61872">
        <ele>178.6</ele>
        <time>2022-08-07T15:53:20Z</time>
      </trkpt>
      <trkpt lat="44.79701" lon="1.61872">
        <ele>180</ele>
        <time>2022-08-07T15:53:22Z</time>
      </trkpt>
      <trkpt lat="44.79698" lon="1.61874">
        <ele>181.5</ele>
        <time>2022-08-07T15:53:24Z</time>
      </trkpt>
      <trkpt lat="44.79694" lon="1.61875">
        <ele>183.4</ele>
        <time>2022-08-07T15:53:26Z</time>
      </trkpt>
      <trkpt lat="44.7969" lon="1.61877">
        <ele>185.3</ele>
        <time>2022-08-07T15:53:28Z</time>
      </trkpt>
      <trkpt lat="44.79686" lon="1.61879">
        <ele>187.5</ele>
        <time>2022-08-07T15:53:30Z</time>
      </trkpt>
      <trkpt lat="44.79684" lon="1.61881">
        <ele>189</ele>
        <time>2022-08-07T15:53:32Z</time>
      </trkpt>
      <trkpt lat="44.79681" lon="1.61883">
        <ele>191</ele>
        <time>2022-08-07T15:53:34Z</time>
      </trkpt>
      <trkpt lat="44.79676" lon="1.61885">
        <ele>193.3</ele>
        <time>2022-08-07T15:53:36Z</time>
      </trkpt>
      <trkpt lat="44.79674" lon="1.61886">
        <ele>194.4</ele>
        <time>2022-08-07T15:53:38Z</time>
      </trkpt>
      <trkpt lat="44.79669" lon="1.61887">
        <ele>196.3</ele>
        <time>2022-08-07T15:53:40Z</time>
      </trkpt>
      <trkpt lat="44.79665" lon="1.61887">
        <ele>198</ele>
        <time>2022-08-07T15:53:42Z</time>
      </trkpt>
      <trkpt lat="44.79661" lon="1.61886">
        <ele>200</ele>
        <time>2022-08-07T15:53:44Z</time>
      </trkpt>
      <trkpt lat="44.79656" lon="1.61884">
        <ele>201.7</ele>
        <time>2022-08-07T15:53:46Z</time>
      </trkpt>
      <trkpt lat="44.79653" lon="1.6188">
        <ele>201.9</ele>
        <time>2022-08-07T15:53:48Z</time>
      </trkpt>
      <trkpt lat="44.79649" lon="1.61876">
        <ele>202.4</ele>
        <time>2022-08-07T15:53:50Z</time>
      </trkpt>
      <trkpt lat="44.79646" lon="1.61873">
        <ele>203</ele>
        <time>2022-08-07T15:53:52Z</time>
      </trkpt>
      <trkpt lat="44.79643" lon="1.61867">
        <ele>202.7</ele>
        <time>2022-08-07T15:53:54Z</time>
      </trkpt>
      <trkpt lat="44.79641" lon="1.61863">
        <ele>202.2</ele>
        <time>2022-08-07T15:53:56Z</time>
      </trkpt>
      <trkpt lat="44.7964" lon="1.61857">
        <ele>201.5</ele>
        <time>2022-08-07T15:53:58Z</time>
      </trkpt>
      <trkpt lat="44.79639" lon="1.61851">
        <ele>199.7</ele>
        <time>2022-08-07T15:54:00Z</time>
      </trkpt>
      <trkpt lat="44.79638" lon="1.61844">
        <ele>198.2</ele>
        <time>2022-08-07T15:54:02Z</time>
      </trkpt>
      <trkpt lat="44.79638" lon="1.61838">
        <ele>196.5</ele>
        <time>2022-08-07T15:54:04Z</time>
      </trkpt>
      <trkpt lat="44.79637" lon="1.61833">
        <ele>195.3</ele>
        <time>2022-08-07T15:54:06Z</time>
      </trkpt>
      <trkpt lat="44.79637" lon="1.61828">
        <ele>194</ele>
        <time>2022-08-07T15:54:08Z</time>
      </trkpt>
      <trkpt lat="44.79636" lon="1.61822">
        <ele>193.1</ele>
        <time>2022-08-07T15:54:10Z</time>
      </trkpt>
      <trkpt lat="44.79635" lon="1.61817">
        <ele>192.1</ele>
        <time>2022-08-07T15:54:12Z</time>
      </trkpt>
      <trkpt lat="44.79635" lon="1.61812">
        <ele>190.9</ele>
        <time>2022-08-07T15:54:14Z</time>
      </trkpt>
      <trkpt lat="44.79636" lon="1.61808">
        <ele>189.1</ele>
        <time>2022-08-07T15:54:16Z</time>
      </trkpt>
      <trkpt lat="44.79635" lon="1.61802">
        <ele>188</ele>
        <time>2022-08-07T15:54:18Z</time>
      </trkpt>
      <trkpt lat="44.79634" lon="1.61798">
        <ele>187.2</ele>
        <time>2022-08-07T15:54:20Z</time>
      </trkpt>
      <trkpt lat="44.79634" lon="1.61793">
        <ele>186.1</ele>
        <time>2022-08-07T15:54:22Z</time>
      </trkpt>
      <trkpt lat="44.79633" lon="1.61788">
        <ele>185.5</ele>
        <time>2022-08-07T15:54:24Z</time>
      </trkpt>
      <trkpt lat="44.79631" lon="1.61784">
        <ele>185.8</ele>
        <time>2022-08-07T15:54:26Z</time>
      </trkpt>
      <trkpt lat="44.7963" lon="1.61781">
        <ele>185.2</ele>
        <time>2022-08-07T15:54:28Z</time>
      </trkpt>
      <trkpt lat="44.79629" lon="1.61776">
        <ele>185</ele>
        <time>2022-08-07T15:54:30Z</time>
      </trkpt>
      <trkpt lat="44.79628" lon="1.61772">
        <ele>184.4</ele>
        <time>2022-08-07T15:54:32Z</time>
      </trkpt>
      <trkpt lat="44.79626" lon="1.61769">
        <ele>184.7</ele>
        <time>2022-08-07T15:54:34Z</time>
      </trkpt>
      <trkpt lat="44.79623" lon="1.61765">
        <ele>185.5</ele>
        <time>2022-08-07T15:54:36Z</time>
      </trkpt>
      <trkpt lat="44.79621" lon="1.61762">
        <ele>185.7</ele>
        <time>2022-08-07T15:54:38Z</time>
      </trkpt>
      <trkpt lat="44.7962" lon="1.61758">
        <ele>185.4</ele>
        <time>2022-08-07T15:54:40Z</time>
      </trkpt>
      <trkpt lat="44.79619" lon="1.61755">
        <ele>185.3</ele>
        <time>2022-08-07T15:54:42Z</time>
      </trkpt>
      <trkpt lat="44.79617" lon="1.61752">
        <ele>185.8</ele>
        <time>2022-08-07T15:54:44Z</time>
      </trkpt>
      <trkpt lat="44.79614" lon="1.61748">
        <ele>186.8</ele>
        <time>2022-08-07T15:54:46Z</time>
      </trkpt>
      <trkpt lat="44.79611" lon="1.61745">
        <ele>187.5</ele>
        <time>2022-08-07T15:54:48Z</time>
      </trkpt>
      <trkpt lat="44.79609" lon="1.61741">
        <ele>187.9</ele>
        <time>2022-08-07T15:54:50Z</time>
      </trkpt>
      <trkpt lat="44.79607" lon="1.61737">
        <ele>187.8</ele>
        <time>2022-08-07T15:54:52Z</time>
      </trkpt>
      <trkpt lat="44.79604" lon="1.61734">
        <ele>188.4</ele>
        <time>2022-08-07T15:54:54Z</time>
      </trkpt>
      <trkpt lat="44.79602" lon="1.61731">
        <ele>188.4</ele>
        <time>2022-08-07T15:54:56Z</time>
      </trkpt>
      <trkpt lat="44.796" lon="1.61727">
        <ele>188.8</ele>
        <time>2022-08-07T15:54:58Z</time>
      </trkpt>
      <trkpt lat="44.79598" lon="1.61724">
        <ele>189.1</ele>
        <time>2022-08-07T15:55:00Z</time>
      </trkpt>
      <trkpt lat="44.79596" lon="1.6172">
        <ele>189</ele>
        <time>2022-08-07T15:55:02Z</time>
      </trkpt>
      <trkpt lat="44.79593" lon="1.61718">
        <ele>189.6</ele>
        <time>2022-08-07T15:55:04Z</time>
      </trkpt>
      <trkpt lat="44.7959" lon="1.61715">
        <ele>189.9</ele>
        <time>2022-08-07T15:55:06Z</time>
      </trkpt>
      <trkpt lat="44.79588" lon="1.61712">
        <ele>190.2</ele>
        <time>2022-08-07T15:55:08Z</time>
      </trkpt>
      <trkpt lat="44.79585" lon="1.6171">
        <ele>190.9</ele>
        <time>2022-08-07T15:55:10Z</time>
      </trkpt>
      <trkpt lat="44.79583" lon="1.61707">
        <ele>191</ele>
        <time>2022-08-07T15:55:12Z</time>
      </trkpt>
      <trkpt lat="44.7958" lon="1.61704">
        <ele>191.2</ele>
        <time>2022-08-07T15:55:14Z</time>
      </trkpt>
      <trkpt lat="44.79577" lon="1.61701">
        <ele>191.4</ele>
        <time>2022-08-07T15:55:16Z</time>
      </trkpt>
      <trkpt lat="44.79574" lon="1.61698">
        <ele>192.2</ele>
        <time>2022-08-07T15:55:18Z</time>
      </trkpt>
      <trkpt lat="44.79572" lon="1.61696">
        <ele>192.6</ele>
        <time>2022-08-07T15:55:20Z</time>
      </trkpt>
      <trkpt lat="44.79568" lon="1.61694">
        <ele>193.6</ele>
        <time>2022-08-07T15:55:22Z</time>
      </trkpt>
      <trkpt lat="44.79565" lon="1.61692">
        <ele>194.6</ele>
        <time>2022-08-07T15:55:24Z</time>
      </trkpt>
      <trkpt lat="44.79563" lon="1.6169">
        <ele>195.3</ele>
        <time>2022-08-07T15:55:26Z</time>
      </trkpt>
      <trkpt lat="44.7956" lon="1.6169">
        <ele>196.5</ele>
        <time>2022-08-07T15:55:28Z</time>
      </trkpt>
      <trkpt lat="44.79556" lon="1.61688">
        <ele>197.8</ele>
        <time>2022-08-07T15:55:30Z</time>
      </trkpt>
      <trkpt lat="44.79554" lon="1.61686">
        <ele>198.7</ele>
        <time>2022-08-07T15:55:32Z</time>
      </trkpt>
      <trkpt lat="44.7955" lon="1.61685">
        <ele>200</ele>
        <time>2022-08-07T15:55:34Z</time>
      </trkpt>
      <trkpt lat="44.79546" lon="1.61683">
        <ele>201.3</ele>
        <time>2022-08-07T15:55:36Z</time>
      </trkpt>
      <trkpt lat="44.79543" lon="1.61681">
        <ele>202.6</ele>
        <time>2022-08-07T15:55:38Z</time>
      </trkpt>
      <trkpt lat="44.7954" lon="1.61678">
        <ele>203.5</ele>
        <time>2022-08-07T15:55:40Z</time>
      </trkpt>
      <trkpt lat="44.79536" lon="1.61674">
        <ele>204.6</ele>
        <time>2022-08-07T15:55:42Z</time>
      </trkpt>
      <trkpt lat="44.79534" lon="1.61669">
        <ele>204.3</ele>
        <time>2022-08-07T15:55:44Z</time>
      </trkpt>
      <trkpt lat="44.79532" lon="1.61665">
        <ele>204.6</ele>
        <time>2022-08-07T15:55:46Z</time>
      </trkpt>
      <trkpt lat="44.79529" lon="1.61662">
        <ele>204.8</ele>
        <time>2022-08-07T15:55:48Z</time>
      </trkpt>
      <trkpt lat="44.79528" lon="1.61656">
        <ele>204.2</ele>
        <time>2022-08-07T15:55:50Z</time>
      </trkpt>
      <trkpt lat="44.79526" lon="1.61652">
        <ele>204</ele>
        <time>2022-08-07T15:55:52Z</time>
      </trkpt>
      <trkpt lat="44.79524" lon="1.61647">
        <ele>203.5</ele>
        <time>2022-08-07T15:55:54Z</time>
      </trkpt>
      <trkpt lat="44.79523" lon="1.61642">
        <ele>202.6</ele>
        <time>2022-08-07T15:55:56Z</time>
      </trkpt>
      <trkpt lat="44.79521" lon="1.61638">
        <ele>202</ele>
        <time>2022-08-07T15:55:58Z</time>
      </trkpt>
      <trkpt lat="44.79519" lon="1.61633">
        <ele>201.7</ele>
        <time>2022-08-07T15:56:00Z</time>
      </trkpt>
      <trkpt lat="44.79518" lon="1.61628">
        <ele>201.2</ele>
        <time>2022-08-07T15:56:02Z</time>
      </trkpt>
      <trkpt lat="44.79516" lon="1.61624">
        <ele>200.9</ele>
        <time>2022-08-07T15:56:04Z</time>
      </trkpt>
      <trkpt lat="44.79514" lon="1.6162">
        <ele>200.5</ele>
        <time>2022-08-07T15:56:06Z</time>
      </trkpt>
      <trkpt lat="44.79512" lon="1.61617">
        <ele>201.1</ele>
        <time>2022-08-07T15:56:08Z</time>
      </trkpt>
      <trkpt lat="44.79509" lon="1.61614">
        <ele>201.6</ele>
        <time>2022-08-07T15:56:10Z</time>
      </trkpt>
      <trkpt lat="44.79506" lon="1.61611">
        <ele>202.1</ele>
        <time>2022-08-07T15:56:12Z</time>
      </trkpt>
      <trkpt lat="44.79504" lon="1.61608">
        <ele>202.3</ele>
        <time>2022-08-07T15:56:14Z</time>
      </trkpt>
      <trkpt lat="44.79501" lon="1.61606">
        <ele>203.4</ele>
        <time>2022-08-07T15:56:16Z</time>
      </trkpt>
      <trkpt lat="44.79498" lon="1.61604">
        <ele>204.2</ele>
        <time>2022-08-07T15:56:18Z</time>
      </trkpt>
      <trkpt lat="44.79495" lon="1.61601">
        <ele>205.1</ele>
        <time>2022-08-07T15:56:20Z</time>
      </trkpt>
      <trkpt lat="44.79492" lon="1.61598">
        <ele>205.9</ele>
        <time>2022-08-07T15:56:22Z</time>
      </trkpt>
      <trkpt lat="44.79489" lon="1.61594">
        <ele>206.5</ele>
        <time>2022-08-07T15:56:24Z</time>
      </trkpt>
      <trkpt lat="44.79487" lon="1.6159">
        <ele>206.4</ele>
        <time>2022-08-07T15:56:26Z</time>
      </trkpt>
      <trkpt lat="44.79486" lon="1.61587">
        <ele>206.3</ele>
        <time>2022-08-07T15:56:28Z</time>
      </trkpt>
      <trkpt lat="44.79483" lon="1.61583">
        <ele>207</ele>
        <time>2022-08-07T15:56:30Z</time>
      </trkpt>
      <trkpt lat="44.7948" lon="1.61579">
        <ele>208.3</ele>
        <time>2022-08-07T15:56:32Z</time>
      </trkpt>
      <trkpt lat="44.79478" lon="1.61575">
        <ele>208.6</ele>
        <time>2022-08-07T15:56:34Z</time>
      </trkpt>
      <trkpt lat="44.79476" lon="1.61571">
        <ele>209.2</ele>
        <time>2022-08-07T15:56:36Z</time>
      </trkpt>
      <trkpt lat="44.79475" lon="1.61567">
        <ele>209.4</ele>
        <time>2022-08-07T15:56:38Z</time>
      </trkpt>
      <trkpt lat="44.79474" lon="1.61563">
        <ele>209.3</ele>
        <time>2022-08-07T15:56:40Z</time>
      </trkpt>
      <trkpt lat="44.79472" lon="1.61558">
        <ele>209.9</ele>
        <time>2022-08-07T15:56:42Z</time>
      </trkpt>
      <trkpt lat="44.7947" lon="1.61554">
        <ele>210.5</ele>
        <time>2022-08-07T15:56:44Z</time>
      </trkpt>
      <trkpt lat="44.79468" lon="1.6155">
        <ele>210.8</ele>
        <time>2022-08-07T15:56:46Z</time>
      </trkpt>
      <trkpt lat="44.79467" lon="1.61545">
        <ele>210.8</ele>
        <time>2022-08-07T15:56:48Z</time>
      </trkpt>
      <trkpt lat="44.79465" lon="1.6154">
        <ele>211.1</ele>
        <time>2022-08-07T15:56:50Z</time>
      </trkpt>
      <trkpt lat="44.79465" lon="1.61536">
        <ele>211</ele>
        <time>2022-08-07T15:56:52Z</time>
      </trkpt>
      <trkpt lat="44.79463" lon="1.61531">
        <ele>211.5</ele>
        <time>2022-08-07T15:56:54Z</time>
      </trkpt>
      <trkpt lat="44.79461" lon="1.61527">
        <ele>212.1</ele>
        <time>2022-08-07T15:56:56Z</time>
      </trkpt>
      <trkpt lat="44.7946" lon="1.61522">
        <ele>212.1</ele>
        <time>2022-08-07T15:56:58Z</time>
      </trkpt>
      <trkpt lat="44.79458" lon="1.61518">
        <ele>212.5</ele>
        <time>2022-08-07T15:57:00Z</time>
      </trkpt>
      <trkpt lat="44.79457" lon="1.61514">
        <ele>212.8</ele>
        <time>2022-08-07T15:57:02Z</time>
      </trkpt>
      <trkpt lat="44.79456" lon="1.61509">
        <ele>212.9</ele>
        <time>2022-08-07T15:57:04Z</time>
      </trkpt>
      <trkpt lat="44.79455" lon="1.61505">
        <ele>212.7</ele>
        <time>2022-08-07T15:57:06Z</time>
      </trkpt>
      <trkpt lat="44.79455" lon="1.61501">
        <ele>212.7</ele>
        <time>2022-08-07T15:57:08Z</time>
      </trkpt>
      <trkpt lat="44.79454" lon="1.61497">
        <ele>212.8</ele>
        <time>2022-08-07T15:57:10Z</time>
      </trkpt>
      <trkpt lat="44.79453" lon="1.61493">
        <ele>212.5</ele>
        <time>2022-08-07T15:57:12Z</time>
      </trkpt>
      <trkpt lat="44.79453" lon="1.61489">
        <ele>212.5</ele>
        <time>2022-08-07T15:57:14Z</time>
      </trkpt>
      <trkpt lat="44.79452" lon="1.61485">
        <ele>212.6</ele>
        <time>2022-08-07T15:57:16Z</time>
      </trkpt>
      <trkpt lat="44.79451" lon="1.61481">
        <ele>212.6</ele>
        <time>2022-08-07T15:57:18Z</time>
      </trkpt>
      <trkpt lat="44.7945" lon="1.61477">
        <ele>212.6</ele>
        <time>2022-08-07T15:57:20Z</time>
      </trkpt>
      <trkpt lat="44.7945" lon="1.61473">
        <ele>212.4</ele>
        <time>2022-08-07T15:57:22Z</time>
      </trkpt>
      <trkpt lat="44.79449" lon="1.61469">
        <ele>212.5</ele>
        <time>2022-08-07T15:57:24Z</time>
      </trkpt>
      <trkpt lat="44.79448" lon="1.61465">
        <ele>212.6</ele>
        <time>2022-08-07T15:57:26Z</time>
      </trkpt>
      <trkpt lat="44.79447" lon="1.6146">
        <ele>212.6</ele>
        <time>2022-08-07T15:57:28Z</time>
      </trkpt>
      <trkpt lat="44.79446" lon="1.61455">
        <ele>212.6</ele>
        <time>2022-08-07T15:57:30Z</time>
      </trkpt>
      <trkpt lat="44.79445" lon="1.61451">
        <ele>212.5</ele>
        <time>2022-08-07T15:57:32Z</time>
      </trkpt>
      <trkpt lat="44.79446" lon="1.61446">
        <ele>211.8</ele>
        <time>2022-08-07T15:57:34Z</time>
      </trkpt>
      <trkpt lat="44.79445" lon="1.61442">
        <ele>211.7</ele>
        <time>2022-08-07T15:57:36Z</time>
      </trkpt>
      <trkpt lat="44.79444" lon="1.61438">
        <ele>211.5</ele>
        <time>2022-08-07T15:57:38Z</time>
      </trkpt>
      <trkpt lat="44.79444" lon="1.61433">
        <ele>211.2</ele>
        <time>2022-08-07T15:57:40Z</time>
      </trkpt>
      <trkpt lat="44.79444" lon="1.61429">
        <ele>210.8</ele>
        <time>2022-08-07T15:57:42Z</time>
      </trkpt>
      <trkpt lat="44.79444" lon="1.61424">
        <ele>209.9</ele>
        <time>2022-08-07T15:57:44Z</time>
      </trkpt>
      <trkpt lat="44.79444" lon="1.6142">
        <ele>209.6</ele>
        <time>2022-08-07T15:57:46Z</time>
      </trkpt>
      <trkpt lat="44.79443" lon="1.61415">
        <ele>209.6</ele>
        <time>2022-08-07T15:57:48Z</time>
      </trkpt>
      <trkpt lat="44.79442" lon="1.6141">
        <ele>210.4</ele>
        <time>2022-08-07T15:57:50Z</time>
      </trkpt>
      <trkpt lat="44.79442" lon="1.61406">
        <ele>210.8</ele>
        <time>2022-08-07T15:57:52Z</time>
      </trkpt>
      <trkpt lat="44.79442" lon="1.61402">
        <ele>211.1</ele>
        <time>2022-08-07T15:57:54Z</time>
      </trkpt>
      <trkpt lat="44.79442" lon="1.61398">
        <ele>211.3</ele>
        <time>2022-08-07T15:57:56Z</time>
      </trkpt>
      <trkpt lat="44.79442" lon="1.61393">
        <ele>211.7</ele>
        <time>2022-08-07T15:57:58Z</time>
      </trkpt>
      <trkpt lat="44.79441" lon="1.61388">
        <ele>212.2</ele>
        <time>2022-08-07T15:58:00Z</time>
      </trkpt>
      <trkpt lat="44.79441" lon="1.61384">
        <ele>212.7</ele>
        <time>2022-08-07T15:58:02Z</time>
      </trkpt>
      <trkpt lat="44.79441" lon="1.6138">
        <ele>213</ele>
        <time>2022-08-07T15:58:04Z</time>
      </trkpt>
      <trkpt lat="44.79441" lon="1.61376">
        <ele>213.1</ele>
        <time>2022-08-07T15:58:06Z</time>
      </trkpt>
      <trkpt lat="44.79441" lon="1.61371">
        <ele>213.1</ele>
        <time>2022-08-07T15:58:08Z</time>
      </trkpt>
      <trkpt lat="44.79441" lon="1.61367">
        <ele>213.1</ele>
        <time>2022-08-07T15:58:10Z</time>
      </trkpt>
      <trkpt lat="44.79441" lon="1.61363">
        <ele>213.4</ele>
        <time>2022-08-07T15:58:12Z</time>
      </trkpt>
      <trkpt lat="44.79442" lon="1.61358">
        <ele>213.3</ele>
        <time>2022-08-07T15:58:14Z</time>
      </trkpt>
      <trkpt lat="44.79442" lon="1.61354">
        <ele>213.2</ele>
        <time>2022-08-07T15:58:16Z</time>
      </trkpt>
      <trkpt lat="44.79443" lon="1.6135">
        <ele>212.9</ele>
        <time>2022-08-07T15:58:18Z</time>
      </trkpt>
      <trkpt lat="44.79443" lon="1.61345">
        <ele>212.9</ele>
        <time>2022-08-07T15:58:20Z</time>
      </trkpt>
      <trkpt lat="44.79444" lon="1.61341">
        <ele>212.4</ele>
        <time>2022-08-07T15:58:22Z</time>
      </trkpt>
      <trkpt lat="44.79445" lon="1.61336">
        <ele>212.3</ele>
        <time>2022-08-07T15:58:24Z</time>
      </trkpt>
      <trkpt lat="44.79445" lon="1.61332">
        <ele>212.3</ele>
        <time>2022-08-07T15:58:26Z</time>
      </trkpt>
      <trkpt lat="44.79446" lon="1.61328">
        <ele>212.6</ele>
        <time>2022-08-07T15:58:28Z</time>
      </trkpt>
      <trkpt lat="44.79447" lon="1.61323">
        <ele>212.8</ele>
        <time>2022-08-07T15:58:30Z</time>
      </trkpt>
      <trkpt lat="44.79448" lon="1.61319">
        <ele>213</ele>
        <time>2022-08-07T15:58:32Z</time>
      </trkpt>
      <trkpt lat="44.79449" lon="1.61315">
        <ele>213.1</ele>
        <time>2022-08-07T15:58:34Z</time>
      </trkpt>
      <trkpt lat="44.79451" lon="1.6131">
        <ele>212.9</ele>
        <time>2022-08-07T15:58:36Z</time>
      </trkpt>
      <trkpt lat="44.79452" lon="1.61305">
        <ele>213.1</ele>
        <time>2022-08-07T15:58:38Z</time>
      </trkpt>
      <trkpt lat="44.79453" lon="1.61301">
        <ele>213.2</ele>
        <time>2022-08-07T15:58:40Z</time>
      </trkpt>
      <trkpt lat="44.79454" lon="1.61297">
        <ele>213.3</ele>
        <time>2022-08-07T15:58:42Z</time>
      </trkpt>
      <trkpt lat="44.79455" lon="1.61292">
        <ele>213.5</ele>
        <time>2022-08-07T15:58:44Z</time>
      </trkpt>
      <trkpt lat="44.79456" lon="1.61287">
        <ele>213.9</ele>
        <time>2022-08-07T15:58:46Z</time>
      </trkpt>
      <trkpt lat="44.79458" lon="1.61283">
        <ele>214.1</ele>
        <time>2022-08-07T15:58:48Z</time>
      </trkpt>
      <trkpt lat="44.79459" lon="1.61279">
        <ele>214</ele>
        <time>2022-08-07T15:58:50Z</time>
      </trkpt>
      <trkpt lat="44.79461" lon="1.61275">
        <ele>213.7</ele>
        <time>2022-08-07T15:58:52Z</time>
      </trkpt>
      <trkpt lat="44.79463" lon="1.6127">
        <ele>213.6</ele>
        <time>2022-08-07T15:58:54Z</time>
      </trkpt>
      <trkpt lat="44.79465" lon="1.61266">
        <ele>213.5</ele>
        <time>2022-08-07T15:58:56Z</time>
      </trkpt>
      <trkpt lat="44.79467" lon="1.61261">
        <ele>213.6</ele>
        <time>2022-08-07T15:58:58Z</time>
      </trkpt>
      <trkpt lat="44.79469" lon="1.61256">
        <ele>213.8</ele>
        <time>2022-08-07T15:59:00Z</time>
      </trkpt>
      <trkpt lat="44.79471" lon="1.61251">
        <ele>213.8</ele>
        <time>2022-08-07T15:59:02Z</time>
      </trkpt>
      <trkpt lat="44.79473" lon="1.61247">
        <ele>214</ele>
        <time>2022-08-07T15:59:04Z</time>
      </trkpt>
      <trkpt lat="44.79475" lon="1.61242">
        <ele>213.9</ele>
        <time>2022-08-07T15:59:06Z</time>
      </trkpt>
      <trkpt lat="44.79477" lon="1.61238">
        <ele>213.6</ele>
        <time>2022-08-07T15:59:08Z</time>
      </trkpt>
      <trkpt lat="44.7948" lon="1.61234">
        <ele>213</ele>
        <time>2022-08-07T15:59:10Z</time>
      </trkpt>
      <trkpt lat="44.79482" lon="1.6123">
        <ele>212.7</ele>
        <time>2022-08-07T15:59:12Z</time>
      </trkpt>
      <trkpt lat="44.79485" lon="1.61226">
        <ele>212.3</ele>
        <time>2022-08-07T15:59:14Z</time>
      </trkpt>
      <trkpt lat="44.79488" lon="1.61222">
        <ele>211.7</ele>
        <time>2022-08-07T15:59:16Z</time>
      </trkpt>
      <trkpt lat="44.79492" lon="1.61218">
        <ele>211.1</ele>
        <time>2022-08-07T15:59:18Z</time>
      </trkpt>
      <trkpt lat="44.79495" lon="1.61213">
        <ele>210.7</ele>
        <time>2022-08-07T15:59:20Z</time>
      </trkpt>
      <trkpt lat="44.79499" lon="1.6121">
        <ele>210.2</ele>
        <time>2022-08-07T15:59:22Z</time>
      </trkpt>
      <trkpt lat="44.79502" lon="1.61206">
        <ele>209.5</ele>
        <time>2022-08-07T15:59:24Z</time>
      </trkpt>
      <trkpt lat="44.79505" lon="1.61202">
        <ele>208.1</ele>
        <time>2022-08-07T15:59:26Z</time>
      </trkpt>
      <trkpt lat="44.79508" lon="1.61199">
        <ele>207.2</ele>
        <time>2022-08-07T15:59:28Z</time>
      </trkpt>
      <trkpt lat="44.79512" lon="1.61195">
        <ele>206.2</ele>
        <time>2022-08-07T15:59:30Z</time>
      </trkpt>
      <trkpt lat="44.79515" lon="1.6119">
        <ele>205.4</ele>
        <time>2022-08-07T15:59:32Z</time>
      </trkpt>
      <trkpt lat="44.79518" lon="1.61187">
        <ele>204.3</ele>
        <time>2022-08-07T15:59:34Z</time>
      </trkpt>
      <trkpt lat="44.79521" lon="1.61183">
        <ele>203.4</ele>
        <time>2022-08-07T15:59:36Z</time>
      </trkpt>
      <trkpt lat="44.79523" lon="1.61179">
        <ele>203.1</ele>
        <time>2022-08-07T15:59:38Z</time>
      </trkpt>
      <trkpt lat="44.79525" lon="1.61175">
        <ele>202.6</ele>
        <time>2022-08-07T15:59:40Z</time>
      </trkpt>
      <trkpt lat="44.79526" lon="1.6117">
        <ele>203</ele>
        <time>2022-08-07T15:59:42Z</time>
      </trkpt>
      <trkpt lat="44.79528" lon="1.61165">
        <ele>202.9</ele>
        <time>2022-08-07T15:59:44Z</time>
      </trkpt>
      <trkpt lat="44.79529" lon="1.61159">
        <ele>202.7</ele>
        <time>2022-08-07T15:59:46Z</time>
      </trkpt>
      <trkpt lat="44.7953" lon="1.61153">
        <ele>202.7</ele>
        <time>2022-08-07T15:59:48Z</time>
      </trkpt>
      <trkpt lat="44.7953" lon="1.61147">
        <ele>202.9</ele>
        <time>2022-08-07T15:59:50Z</time>
      </trkpt>
      <trkpt lat="44.7953" lon="1.61141">
        <ele>203.5</ele>
        <time>2022-08-07T15:59:52Z</time>
      </trkpt>
      <trkpt lat="44.79529" lon="1.61135">
        <ele>204.3</ele>
        <time>2022-08-07T15:59:54Z</time>
      </trkpt>
      <trkpt lat="44.79528" lon="1.6113">
        <ele>205.2</ele>
        <time>2022-08-07T15:59:56Z</time>
      </trkpt>
      <trkpt lat="44.79526" lon="1.61125">
        <ele>206.7</ele>
        <time>2022-08-07T15:59:58Z</time>
      </trkpt>
      <trkpt lat="44.79524" lon="1.6112">
        <ele>207.9</ele>
        <time>2022-08-07T16:00:00Z</time>
      </trkpt>
      <trkpt lat="44.79522" lon="1.61115">
        <ele>209.4</ele>
        <time>2022-08-07T16:00:02Z</time>
      </trkpt>
      <trkpt lat="44.79519" lon="1.6111">
        <ele>211</ele>
        <time>2022-08-07T16:00:04Z</time>
      </trkpt>
      <trkpt lat="44.79517" lon="1.61106">
        <ele>212.4</ele>
        <time>2022-08-07T16:00:06Z</time>
      </trkpt>
      <trkpt lat="44.79514" lon="1.61101">
        <ele>214</ele>
        <time>2022-08-07T16:00:08Z</time>
      </trkpt>
      <trkpt lat="44.79511" lon="1.61097">
        <ele>215.6</ele>
        <time>2022-08-07T16:00:10Z</time>
      </trkpt>
      <trkpt lat="44.79509" lon="1.61094">
        <ele>217.2</ele>
        <time>2022-08-07T16:00:12Z</time>
      </trkpt>
      <trkpt lat="44.79506" lon="1.6109">
        <ele>218.7</ele>
        <time>2022-08-07T16:00:14Z</time>
      </trkpt>
      <trkpt lat="44.79503" lon="1.61087">
        <ele>220.6</ele>
        <time>2022-08-07T16:00:16Z</time>
      </trkpt>
      <trkpt lat="44.795" lon="1.61083">
        <ele>222.1</ele>
        <time>2022-08-07T16:00:18Z</time>
      </trkpt>
      <trkpt lat="44.79496" lon="1.6108">
        <ele>222.1</ele>
        <time>2022-08-07T16:00:20Z</time>
      </trkpt>
      <trkpt lat="44.79493" lon="1.61076">
        <ele>222.1</ele>
        <time>2022-08-07T16:00:22Z</time>
      </trkpt>
      <trkpt lat="44.7949" lon="1.61072">
        <ele>222.1</ele>
        <time>2022-08-07T16:00:24Z</time>
      </trkpt>
      <trkpt lat="44.79487" lon="1.61068">
        <ele>222.1</ele>
        <time>2022-08-07T16:00:26Z</time>
      </trkpt>
      <trkpt lat="44.79484" lon="1.61065">
        <ele>222.2</ele>
        <time>2022-08-07T16:00:28Z</time>
      </trkpt>
      <trkpt lat="44.79481" lon="1.61061">
        <ele>222.3</ele>
        <time>2022-08-07T16:00:30Z</time>
      </trkpt>
      <trkpt lat="44.79479" lon="1.61057">
        <ele>222.4</ele>
        <time>2022-08-07T16:00:32Z</time>
      </trkpt>
      <trkpt lat="44.79476" lon="1.61054">
        <ele>222.5</ele>
        <time>2022-08-07T16:00:34Z</time>
      </trkpt>
      <trkpt lat="44.79473" lon="1.6105">
        <ele>222.7</ele>
        <time>2022-08-07T16:00:36Z</time>
      </trkpt>
      <trkpt lat="44.79469" lon="1.61047">
        <ele>223</ele>
        <time>2022-08-07T16:00:38Z</time>
      </trkpt>
      <trkpt lat="44.79467" lon="1.61043">
        <ele>223.1</ele>
        <time>2022-08-07T16:00:40Z</time>
      </trkpt>
      <trkpt lat="44.79463" lon="1.61039">
        <ele>223.3</ele>
        <time>2022-08-07T16:00:42Z</time>
      </trkpt>
      <trkpt lat="44.79461" lon="1.61036">
        <ele>223.5</ele>
        <time>2022-08-07T16:00:44Z</time>
      </trkpt>
      <trkpt lat="44.79458" lon="1.61032">
        <ele>223.9</ele>
        <time>2022-08-07T16:00:46Z</time>
      </trkpt>
      <trkpt lat="44.79455" lon="1.61028">
        <ele>224.1</ele>
        <time>2022-08-07T16:00:48Z</time>
      </trkpt>
      <trkpt lat="44.79451" lon="1.61025">
        <ele>224.6</ele>
        <time>2022-08-07T16:00:50Z</time>
      </trkpt>
      <trkpt lat="44.79448" lon="1.61021">
        <ele>225</ele>
        <time>2022-08-07T16:00:52Z</time>
      </trkpt>
      <trkpt lat="44.79445" lon="1.61017">
        <ele>225.4</ele>
        <time>2022-08-07T16:00:54Z</time>
      </trkpt>
      <trkpt lat="44.79442" lon="1.61014">
        <ele>225.9</ele>
        <time>2022-08-07T16:00:56Z</time>
      </trkpt>
      <trkpt lat="44.79439" lon="1.61011">
        <ele>226.5</ele>
        <time>2022-08-07T16:00:58Z</time>
      </trkpt>
      <trkpt lat="44.79435" lon="1.61008">
        <ele>227.1</ele>
        <time>2022-08-07T16:01:00Z</time>
      </trkpt>
      <trkpt lat="44.79432" lon="1.61006">
        <ele>227.7</ele>
        <time>2022-08-07T16:01:02Z</time>
      </trkpt>
      <trkpt lat="44.79429" lon="1.61003">
        <ele>228.4</ele>
        <time>2022-08-07T16:01:04Z</time>
      </trkpt>
      <trkpt lat="44.79426" lon="1.61001">
        <ele>229.1</ele>
        <time>2022-08-07T16:01:06Z</time>
      </trkpt>
      <trkpt lat="44.79423" lon="1.60998">
        <ele>229.3</ele>
        <time>2022-08-07T16:01:08Z</time>
      </trkpt>
      <trkpt lat="44.7942" lon="1.60996">
        <ele>229.9</ele>
        <time>2022-08-07T16:01:10Z</time>
      </trkpt>
      <trkpt lat="44.79416" lon="1.60994">
        <ele>230.3</ele>
        <time>2022-08-07T16:01:12Z</time>
      </trkpt>
      <trkpt lat="44.79414" lon="1.60991">
        <ele>230.1</ele>
        <time>2022-08-07T16:01:14Z</time>
      </trkpt>
      <trkpt lat="44.7941" lon="1.60989">
        <ele>230.4</ele>
        <time>2022-08-07T16:01:16Z</time>
      </trkpt>
      <trkpt lat="44.79407" lon="1.60986">
        <ele>230.4</ele>
        <time>2022-08-07T16:01:18Z</time>
      </trkpt>
      <trkpt lat="44.79404" lon="1.60982">
        <ele>230.1</ele>
        <time>2022-08-07T16:01:20Z</time>
      </trkpt>
      <trkpt lat="44.79401" lon="1.6098">
        <ele>230.2</ele>
        <time>2022-08-07T16:01:22Z</time>
      </trkpt>
      <trkpt lat="44.79398" lon="1.60977">
        <ele>230.2</ele>
        <time>2022-08-07T16:01:24Z</time>
      </trkpt>
      <trkpt lat="44.79395" lon="1.60974">
        <ele>230.4</ele>
        <time>2022-08-07T16:01:26Z</time>
      </trkpt>
      <trkpt lat="44.79392" lon="1.60971">
        <ele>230.5</ele>
        <time>2022-08-07T16:01:28Z</time>
      </trkpt>
      <trkpt lat="44.79389" lon="1.60967">
        <ele>230.3</ele>
        <time>2022-08-07T16:01:30Z</time>
      </trkpt>
      <trkpt lat="44.79386" lon="1.60964">
        <ele>230.4</ele>
        <time>2022-08-07T16:01:32Z</time>
      </trkpt>
      <trkpt lat="44.79383" lon="1.60962">
        <ele>230.7</ele>
        <time>2022-08-07T16:01:34Z</time>
      </trkpt>
      <trkpt lat="44.79381" lon="1.60959">
        <ele>230.7</ele>
        <time>2022-08-07T16:01:36Z</time>
      </trkpt>
      <trkpt lat="44.79378" lon="1.60956">
        <ele>231</ele>
        <time>2022-08-07T16:01:38Z</time>
      </trkpt>
      <trkpt lat="44.79375" lon="1.60952">
        <ele>231</ele>
        <time>2022-08-07T16:01:40Z</time>
      </trkpt>
      <trkpt lat="44.79372" lon="1.60948">
        <ele>231</ele>
        <time>2022-08-07T16:01:42Z</time>
      </trkpt>
      <trkpt lat="44.79369" lon="1.60945">
        <ele>231.3</ele>
        <time>2022-08-07T16:01:44Z</time>
      </trkpt>
      <trkpt lat="44.79366" lon="1.60942">
        <ele>231.6</ele>
        <time>2022-08-07T16:01:46Z</time>
      </trkpt>
      <trkpt lat="44.79363" lon="1.60939">
        <ele>232</ele>
        <time>2022-08-07T16:01:48Z</time>
      </trkpt>
      <trkpt lat="44.7936" lon="1.60936">
        <ele>232.2</ele>
        <time>2022-08-07T16:01:50Z</time>
      </trkpt>
      <trkpt lat="44.79358" lon="1.60933">
        <ele>232.5</ele>
        <time>2022-08-07T16:01:52Z</time>
      </trkpt>
      <trkpt lat="44.79355" lon="1.60929">
        <ele>232.7</ele>
        <time>2022-08-07T16:01:54Z</time>
      </trkpt>
      <trkpt lat="44.79353" lon="1.60926">
        <ele>232.9</ele>
        <time>2022-08-07T16:01:56Z</time>
      </trkpt>
      <trkpt lat="44.7935" lon="1.60923">
        <ele>233.4</ele>
        <time>2022-08-07T16:01:58Z</time>
      </trkpt>
      <trkpt lat="44.79347" lon="1.6092">
        <ele>233.7</ele>
        <time>2022-08-07T16:02:00Z</time>
      </trkpt>
      <trkpt lat="44.79344" lon="1.60917">
        <ele>234.2</ele>
        <time>2022-08-07T16:02:02Z</time>
      </trkpt>
      <trkpt lat="44.79342" lon="1.60913">
        <ele>234.7</ele>
        <time>2022-08-07T16:02:04Z</time>
      </trkpt>
      <trkpt lat="44.79339" lon="1.6091">
        <ele>235.1</ele>
        <time>2022-08-07T16:02:06Z</time>
      </trkpt>
      <trkpt lat="44.79337" lon="1.60906">
        <ele>235.6</ele>
        <time>2022-08-07T16:02:08Z</time>
      </trkpt>
      <trkpt lat="44.79334" lon="1.60903">
        <ele>236.2</ele>
        <time>2022-08-07T16:02:10Z</time>
      </trkpt>
      <trkpt lat="44.79331" lon="1.609">
        <ele>236.6</ele>
        <time>2022-08-07T16:02:12Z</time>
      </trkpt>
      <trkpt lat="44.79329" lon="1.60896">
        <ele>236.5</ele>
        <time>2022-08-07T16:02:14Z</time>
      </trkpt>
      <trkpt lat="44.79327" lon="1.60891">
        <ele>236.3</ele>
        <time>2022-08-07T16:02:16Z</time>
      </trkpt>
      <trkpt lat="44.79324" lon="1.60887">
        <ele>236.3</ele>
        <time>2022-08-07T16:02:18Z</time>
      </trkpt>
      <trkpt lat="44.79322" lon="1.60883">
        <ele>236.2</ele>
        <time>2022-08-07T16:02:20Z</time>
      </trkpt>
      <trkpt lat="44.79321" lon="1.60879">
        <ele>235.9</ele>
        <time>2022-08-07T16:02:22Z</time>
      </trkpt>
      <trkpt lat="44.79319" lon="1.60874">
        <ele>235.7</ele>
        <time>2022-08-07T16:02:24Z</time>
      </trkpt>
      <trkpt lat="44.79317" lon="1.60869">
        <ele>235.4</ele>
        <time>2022-08-07T16:02:26Z</time>
      </trkpt>
      <trkpt lat="44.79316" lon="1.60864">
        <ele>235.1</ele>
        <time>2022-08-07T16:02:28Z</time>
      </trkpt>
      <trkpt lat="44.79314" lon="1.60859">
        <ele>234.9</ele>
        <time>2022-08-07T16:02:30Z</time>
      </trkpt>
      <trkpt lat="44.79312" lon="1.60854">
        <ele>234.6</ele>
        <time>2022-08-07T16:02:32Z</time>
      </trkpt>
      <trkpt lat="44.7931" lon="1.60849">
        <ele>234.3</ele>
        <time>2022-08-07T16:02:34Z</time>
      </trkpt>
      <trkpt lat="44.79309" lon="1.60844">
        <ele>234.1</ele>
        <time>2022-08-07T16:02:36Z</time>
      </trkpt>
      <trkpt lat="44.79307" lon="1.6084">
        <ele>233.8</ele>
        <time>2022-08-07T16:02:38Z</time>
      </trkpt>
      <trkpt lat="44.79305" lon="1.60836">
        <ele>233.6</ele>
        <time>2022-08-07T16:02:40Z</time>
      </trkpt>
      <trkpt lat="44.79303" lon="1.60832">
        <ele>233.7</ele>
        <time>2022-08-07T16:02:42Z</time>
      </trkpt>
      <trkpt lat="44.793" lon="1.60829">
        <ele>233.9</ele>
        <time>2022-08-07T16:02:44Z</time>
      </trkpt>
      <trkpt lat="44.79297" lon="1.60827">
        <ele>234.1</ele>
        <time>2022-08-07T16:02:46Z</time>
      </trkpt>
      <trkpt lat="44.79294" lon="1.60824">
        <ele>234.4</ele>
        <time>2022-08-07T16:02:48Z</time>
      </trkpt>
      <trkpt lat="44.79291" lon="1.60822">
        <ele>234.6</ele>
        <time>2022-08-07T16:02:50Z</time>
      </trkpt>
      <trkpt lat="44.79287" lon="1.60821">
        <ele>235.1</ele>
        <time>2022-08-07T16:02:52Z</time>
      </trkpt>
      <trkpt lat="44.79283" lon="1.60821">
        <ele>235.7</ele>
        <time>2022-08-07T16:02:54Z</time>
      </trkpt>
      <trkpt lat="44.79279" lon="1.60823">
        <ele>236.4</ele>
        <time>2022-08-07T16:02:56Z</time>
      </trkpt>
      <trkpt lat="44.79275" lon="1.60823">
        <ele>237.1</ele>
        <time>2022-08-07T16:02:58Z</time>
      </trkpt>
      <trkpt lat="44.79271" lon="1.60826">
        <ele>238</ele>
        <time>2022-08-07T16:03:00Z</time>
      </trkpt>
      <trkpt lat="44.79267" lon="1.60828">
        <ele>238.8</ele>
        <time>2022-08-07T16:03:02Z</time>
      </trkpt>
      <trkpt lat="44.79264" lon="1.6083">
        <ele>239.5</ele>
        <time>2022-08-07T16:03:04Z</time>
      </trkpt>
      <trkpt lat="44.7926" lon="1.60833">
        <ele>240.4</ele>
        <time>2022-08-07T16:03:06Z</time>
      </trkpt>
      <trkpt lat="44.79257" lon="1.60835">
        <ele>241.2</ele>
        <time>2022-08-07T16:03:08Z</time>
      </trkpt>
      <trkpt lat="44.79253" lon="1.60837">
        <ele>242</ele>
        <time>2022-08-07T16:03:10Z</time>
      </trkpt>
      <trkpt lat="44.79249" lon="1.6084">
        <ele>242.8</ele>
        <time>2022-08-07T16:03:12Z</time>
      </trkpt>
      <trkpt lat="44.79245" lon="1.60842">
        <ele>243.4</ele>
        <time>2022-08-07T16:03:14Z</time>
      </trkpt>
      <trkpt lat="44.79242" lon="1.60844">
        <ele>243.9</ele>
        <time>2022-08-07T16:03:16Z</time>
      </trkpt>
      <trkpt lat="44.79238" lon="1.60846">
        <ele>244.4</ele>
        <time>2022-08-07T16:03:18Z</time>
      </trkpt>
      <trkpt lat="44.79235" lon="1.60849">
        <ele>244.9</ele>
        <time>2022-08-07T16:03:20Z</time>
      </trkpt>
      <trkpt lat="44.79231" lon="1.6085">
        <ele>245.3</ele>
        <time>2022-08-07T16:03:22Z</time>
      </trkpt>
      <trkpt lat="44.79227" lon="1.60853">
        <ele>245.9</ele>
        <time>2022-08-07T16:03:24Z</time>
      </trkpt>
      <trkpt lat="44.79223" lon="1.60855">
        <ele>246.4</ele>
        <time>2022-08-07T16:03:26Z</time>
      </trkpt>
      <trkpt lat="44.79219" lon="1.60856">
        <ele>246.8</ele>
        <time>2022-08-07T16:03:28Z</time>
      </trkpt>
      <trkpt lat="44.79215" lon="1.60859">
        <ele>247.3</ele>
        <time>2022-08-07T16:03:30Z</time>
      </trkpt>
      <trkpt lat="44.79211" lon="1.6086">
        <ele>247.7</ele>
        <time>2022-08-07T16:03:32Z</time>
      </trkpt>
      <trkpt lat="44.79206" lon="1.60861">
        <ele>248.1</ele>
        <time>2022-08-07T16:03:34Z</time>
      </trkpt>
      <trkpt lat="44.79202" lon="1.60861">
        <ele>248.4</ele>
        <time>2022-08-07T16:03:36Z</time>
      </trkpt>
      <trkpt lat="44.79198" lon="1.60861">
        <ele>248.7</ele>
        <time>2022-08-07T16:03:38Z</time>
      </trkpt>
      <trkpt lat="44.79193" lon="1.60861">
        <ele>248.9</ele>
        <time>2022-08-07T16:03:40Z</time>
      </trkpt>
      <trkpt lat="44.79189" lon="1.6086">
        <ele>249.1</ele>
        <time>2022-08-07T16:03:42Z</time>
      </trkpt>
      <trkpt lat="44.79185" lon="1.60859">
        <ele>249.2</ele>
        <time>2022-08-07T16:03:44Z</time>
      </trkpt>
      <trkpt lat="44.79182" lon="1.60858">
        <ele>249.3</ele>
        <time>2022-08-07T16:03:46Z</time>
      </trkpt>
      <trkpt lat="44.79178" lon="1.60857">
        <ele>249.5</ele>
        <time>2022-08-07T16:03:48Z</time>
      </trkpt>
      <trkpt lat="44.79174" lon="1.60855">
        <ele>249.6</ele>
        <time>2022-08-07T16:03:50Z</time>
      </trkpt>
      <trkpt lat="44.7917" lon="1.60855">
        <ele>249.8</ele>
        <time>2022-08-07T16:03:52Z</time>
      </trkpt>
      <trkpt lat="44.79166" lon="1.60854">
        <ele>250</ele>
        <time>2022-08-07T16:03:54Z</time>
      </trkpt>
      <trkpt lat="44.79162" lon="1.60853">
        <ele>250.1</ele>
        <time>2022-08-07T16:03:56Z</time>
      </trkpt>
      <trkpt lat="44.79159" lon="1.60852">
        <ele>250.3</ele>
        <time>2022-08-07T16:03:58Z</time>
      </trkpt>
      <trkpt lat="44.79155" lon="1.60852">
        <ele>250.5</ele>
        <time>2022-08-07T16:04:00Z</time>
      </trkpt>
      <trkpt lat="44.79152" lon="1.60852">
        <ele>250.7</ele>
        <time>2022-08-07T16:04:02Z</time>
      </trkpt>
      <trkpt lat="44.79148" lon="1.60852">
        <ele>250.9</ele>
        <time>2022-08-07T16:04:04Z</time>
      </trkpt>
      <trkpt lat="44.79145" lon="1.60852">
        <ele>251.1</ele>
        <time>2022-08-07T16:04:06Z</time>
      </trkpt>
      <trkpt lat="44.79141" lon="1.60852">
        <ele>251.3</ele>
        <time>2022-08-07T16:04:08Z</time>
      </trkpt>
      <trkpt lat="44.79137" lon="1.60853">
        <ele>251.7</ele>
        <time>2022-08-07T16:04:10Z</time>
      </trkpt>
      <trkpt lat="44.79134" lon="1.60853">
        <ele>251.9</ele>
        <time>2022-08-07T16:04:12Z</time>
      </trkpt>
      <trkpt lat="44.7913" lon="1.60854">
        <ele>252.1</ele>
        <time>2022-08-07T16:04:14Z</time>
      </trkpt>
      <trkpt lat="44.79127" lon="1.60854">
        <ele>252.4</ele>
        <time>2022-08-07T16:04:16Z</time>
      </trkpt>
      <trkpt lat="44.79123" lon="1.60854">
        <ele>252.6</ele>
        <time>2022-08-07T16:04:18Z</time>
      </trkpt>
      <trkpt lat="44.7912" lon="1.60855">
        <ele>252.9</ele>
        <time>2022-08-07T16:04:20Z</time>
      </trkpt>
      <trkpt lat="44.79116" lon="1.60856">
        <ele>253.1</ele>
        <time>2022-08-07T16:04:22Z</time>
      </trkpt>
      <trkpt lat="44.79113" lon="1.60856">
        <ele>253.3</ele>
        <time>2022-08-07T16:04:24Z</time>
      </trkpt>
      <trkpt lat="44.7911" lon="1.60856">
        <ele>253.5</ele>
        <time>2022-08-07T16:04:26Z</time>
      </trkpt>
      <trkpt lat="44.79107" lon="1.60856">
        <ele>253.7</ele>
        <time>2022-08-07T16:04:28Z</time>
      </trkpt>
      <trkpt lat="44.79104" lon="1.60857">
        <ele>253.9</ele>
        <time>2022-08-07T16:04:30Z</time>
      </trkpt>
      <trkpt lat="44.791" lon="1.60857">
        <ele>254.1</ele>
        <time>2022-08-07T16:04:32Z</time>
      </trkpt>
      <trkpt lat="44.79097" lon="1.60857">
        <ele>254.3</ele>
        <time>2022-08-07T16:04:34Z</time>
      </trkpt>
      <trkpt lat="44.79094" lon="1.60858">
        <ele>254.6</ele>
        <time>2022-08-07T16:04:36Z</time>
      </trkpt>
      <trkpt lat="44.79091" lon="1.60858">
        <ele>254.8</ele>
        <time>2022-08-07T16:04:38Z</time>
      </trkpt>
      <trkpt lat="44.79087" lon="1.60859">
        <ele>255</ele>
        <time>2022-08-07T16:04:40Z</time>
      </trkpt>
      <trkpt lat="44.79083" lon="1.60859">
        <ele>255.2</ele>
        <time>2022-08-07T16:04:42Z</time>
      </trkpt>
      <trkpt lat="44.7908" lon="1.60859">
        <ele>255.4</ele>
        <time>2022-08-07T16:04:44Z</time>
      </trkpt>
      <trkpt lat="44.79078" lon="1.6086">
        <ele>255.5</ele>
        <time>2022-08-07T16:04:46Z</time>
      </trkpt>
      <trkpt lat="44.79074" lon="1.60859">
        <ele>255.6</ele>
        <time>2022-08-07T16:04:48Z</time>
      </trkpt>
      <trkpt lat="44.79071" lon="1.60859">
        <ele>255.7</ele>
        <time>2022-08-07T16:04:50Z</time>
      </trkpt>
      <trkpt lat="44.79068" lon="1.60858">
        <ele>255.8</ele>
        <time>2022-08-07T16:04:52Z</time>
      </trkpt>
      <trkpt lat="44.79064" lon="1.60858">
        <ele>256</ele>
        <time>2022-08-07T16:04:54Z</time>
      </trkpt>
      <trkpt lat="44.79061" lon="1.60858">
        <ele>256.1</ele>
        <time>2022-08-07T16:04:56Z</time>
      </trkpt>
      <trkpt lat="44.79058" lon="1.60858">
        <ele>256.2</ele>
        <time>2022-08-07T16:04:58Z</time>
      </trkpt>
      <trkpt lat="44.79054" lon="1.60858">
        <ele>256.4</ele>
        <time>2022-08-07T16:05:00Z</time>
      </trkpt>
      <trkpt lat="44.79051" lon="1.60857">
        <ele>256.5</ele>
        <time>2022-08-07T16:05:02Z</time>
      </trkpt>
      <trkpt lat="44.79047" lon="1.60856">
        <ele>256.6</ele>
        <time>2022-08-07T16:05:04Z</time>
      </trkpt>
      <trkpt lat="44.79044" lon="1.60856">
        <ele>256.7</ele>
        <time>2022-08-07T16:05:06Z</time>
      </trkpt>
      <trkpt lat="44.79041" lon="1.60855">
        <ele>256.8</ele>
        <time>2022-08-07T16:05:08Z</time>
      </trkpt>
      <trkpt lat="44.79037" lon="1.60855">
        <ele>257</ele>
        <time>2022-08-07T16:05:10Z</time>
      </trkpt>
      <trkpt lat="44.79033" lon="1.60855">
        <ele>257.1</ele>
        <time>2022-08-07T16:05:12Z</time>
      </trkpt>
      <trkpt lat="44.79029" lon="1.60854">
        <ele>257.3</ele>
        <time>2022-08-07T16:05:14Z</time>
      </trkpt>
      <trkpt lat="44.79025" lon="1.60853">
        <ele>257.4</ele>
        <time>2022-08-07T16:05:16Z</time>
      </trkpt>
      <trkpt lat="44.79022" lon="1.60853">
        <ele>257.5</ele>
        <time>2022-08-07T16:05:18Z</time>
      </trkpt>
      <trkpt lat="44.79018" lon="1.60852">
        <ele>257.7</ele>
        <time>2022-08-07T16:05:20Z</time>
      </trkpt>
      <trkpt lat="44.79014" lon="1.60852">
        <ele>257.9</ele>
        <time>2022-08-07T16:05:22Z</time>
      </trkpt>
      <trkpt lat="44.7901" lon="1.60852">
        <ele>258</ele>
        <time>2022-08-07T16:05:24Z</time>
      </trkpt>
      <trkpt lat="44.79007" lon="1.60851">
        <ele>258.1</ele>
        <time>2022-08-07T16:05:26Z</time>
      </trkpt>
      <trkpt lat="44.79003" lon="1.60851">
        <ele>258.3</ele>
        <time>2022-08-07T16:05:28Z</time>
      </trkpt>
      <trkpt lat="44.79" lon="1.60851">
        <ele>258.4</ele>
        <time>2022-08-07T16:05:30Z</time>
      </trkpt>
      <trkpt lat="44.78996" lon="1.60851">
        <ele>258.5</ele>
        <time>2022-08-07T16:05:32Z</time>
      </trkpt>
      <trkpt lat="44.78992" lon="1.6085">
        <ele>258.5</ele>
        <time>2022-08-07T16:05:34Z</time>
      </trkpt>
      <trkpt lat="44.78988" lon="1.60849">
        <ele>258.6</ele>
        <time>2022-08-07T16:05:36Z</time>
      </trkpt>
      <trkpt lat="44.78984" lon="1.60848">
        <ele>258.6</ele>
        <time>2022-08-07T16:05:38Z</time>
      </trkpt>
      <trkpt lat="44.7898" lon="1.60848">
        <ele>258.7</ele>
        <time>2022-08-07T16:05:40Z</time>
      </trkpt>
      <trkpt lat="44.78976" lon="1.60848">
        <ele>258.7</ele>
        <time>2022-08-07T16:05:42Z</time>
      </trkpt>
      <trkpt lat="44.78972" lon="1.60847">
        <ele>258.8</ele>
        <time>2022-08-07T16:05:44Z</time>
      </trkpt>
      <trkpt lat="44.7897" lon="1.60846">
        <ele>258.8</ele>
        <time>2022-08-07T16:05:46Z</time>
      </trkpt>
      <trkpt lat="44.78966" lon="1.60845">
        <ele>258.8</ele>
        <time>2022-08-07T16:05:48Z</time>
      </trkpt>
      <trkpt lat="44.78964" lon="1.60845">
        <ele>258.8</ele>
        <time>2022-08-07T16:05:50Z</time>
      </trkpt>
      <trkpt lat="44.78964" lon="1.60845">
        <ele>258.8</ele>
        <time>2022-08-07T16:05:52Z</time>
      </trkpt>
      <trkpt lat="44.78964" lon="1.60845">
        <ele>258.8</ele>
        <time>2022-08-07T16:05:54Z</time>
      </trkpt>
      <trkpt lat="44.78965" lon="1.60845">
        <ele>258.8</ele>
        <time>2022-08-07T16:05:56Z</time>
      </trkpt>
      <trkpt lat="44.78964" lon="1.60846">
        <ele>258.8</ele>
        <time>2022-08-07T16:05:58Z</time>
      </trkpt>
      <trkpt lat="44.78965" lon="1.60846">
        <ele>258.9</ele>
        <time>2022-08-07T16:06:00Z</time>
      </trkpt>
      <trkpt lat="44.78943" lon="1.60845">
        <ele>259.2</ele>
        <time>2022-08-07T16:08:08Z</time>
      </trkpt>
      <trkpt lat="44.78937" lon="1.60845">
        <ele>259.2</ele>
        <time>2022-08-07T16:08:10Z</time>
      </trkpt>
      <trkpt lat="44.78931" lon="1.60844">
        <ele>259.3</ele>
        <time>2022-08-07T16:08:12Z</time>
      </trkpt>
      <trkpt lat="44.78924" lon="1.60843">
        <ele>259.4</ele>
        <time>2022-08-07T16:08:14Z</time>
      </trkpt>
      <trkpt lat="44.78916" lon="1.60843">
        <ele>259.4</ele>
        <time>2022-08-07T16:08:16Z</time>
      </trkpt>
      <trkpt lat="44.78907" lon="1.60842">
        <ele>259.2</ele>
        <time>2022-08-07T16:08:18Z</time>
      </trkpt>
      <trkpt lat="44.78899" lon="1.60841">
        <ele>259</ele>
        <time>2022-08-07T16:08:20Z</time>
      </trkpt>
      <trkpt lat="44.7889" lon="1.60841">
        <ele>258.7</ele>
        <time>2022-08-07T16:08:22Z</time>
      </trkpt>
      <trkpt lat="44.78881" lon="1.60839">
        <ele>258.5</ele>
        <time>2022-08-07T16:08:24Z</time>
      </trkpt>
      <trkpt lat="44.78871" lon="1.60838">
        <ele>258.2</ele>
        <time>2022-08-07T16:08:26Z</time>
      </trkpt>
      <trkpt lat="44.7886" lon="1.60837">
        <ele>257.9</ele>
        <time>2022-08-07T16:08:28Z</time>
      </trkpt>
      <trkpt lat="44.78848" lon="1.60835">
        <ele>257.5</ele>
        <time>2022-08-07T16:08:30Z</time>
      </trkpt>
      <trkpt lat="44.78837" lon="1.60834">
        <ele>257.1</ele>
        <time>2022-08-07T16:08:32Z</time>
      </trkpt>
      <trkpt lat="44.78824" lon="1.60833">
        <ele>256.9</ele>
        <time>2022-08-07T16:08:34Z</time>
      </trkpt>
      <trkpt lat="44.78812" lon="1.60832">
        <ele>256.6</ele>
        <time>2022-08-07T16:08:36Z</time>
      </trkpt>
      <trkpt lat="44.788" lon="1.6083">
        <ele>256.4</ele>
        <time>2022-08-07T16:08:38Z</time>
      </trkpt>
      <trkpt lat="44.78787" lon="1.6083">
        <ele>256.2</ele>
        <time>2022-08-07T16:08:40Z</time>
      </trkpt>
      <trkpt lat="44.78775" lon="1.60829">
        <ele>256</ele>
        <time>2022-08-07T16:08:42Z</time>
      </trkpt>
      <trkpt lat="44.78762" lon="1.60827">
        <ele>255.6</ele>
        <time>2022-08-07T16:08:44Z</time>
      </trkpt>
      <trkpt lat="44.78749" lon="1.60827">
        <ele>255.4</ele>
        <time>2022-08-07T16:08:46Z</time>
      </trkpt>
      <trkpt lat="44.78736" lon="1.60824">
        <ele>254.6</ele>
        <time>2022-08-07T16:08:48Z</time>
      </trkpt>
      <trkpt lat="44.78722" lon="1.60822">
        <ele>253.8</ele>
        <time>2022-08-07T16:08:50Z</time>
      </trkpt>
      <trkpt lat="44.78709" lon="1.60822">
        <ele>253</ele>
        <time>2022-08-07T16:08:52Z</time>
      </trkpt>
      <trkpt lat="44.78695" lon="1.60821">
        <ele>252.4</ele>
        <time>2022-08-07T16:08:54Z</time>
      </trkpt>
      <trkpt lat="44.78681" lon="1.60819">
        <ele>251.5</ele>
        <time>2022-08-07T16:08:56Z</time>
      </trkpt>
      <trkpt lat="44.78666" lon="1.60818">
        <ele>250.7</ele>
        <time>2022-08-07T16:08:58Z</time>
      </trkpt>
      <trkpt lat="44.78651" lon="1.60817">
        <ele>250.6</ele>
        <time>2022-08-07T16:09:00Z</time>
      </trkpt>
      <trkpt lat="44.78635" lon="1.60815">
        <ele>250.4</ele>
        <time>2022-08-07T16:09:02Z</time>
      </trkpt>
      <trkpt lat="44.78619" lon="1.60813">
        <ele>250.3</ele>
        <time>2022-08-07T16:09:04Z</time>
      </trkpt>
      <trkpt lat="44.78605" lon="1.60814">
        <ele>250.3</ele>
        <time>2022-08-07T16:09:06Z</time>
      </trkpt>
      <trkpt lat="44.78593" lon="1.60822">
        <ele>250.6</ele>
        <time>2022-08-07T16:09:08Z</time>
      </trkpt>
      <trkpt lat="44.78585" lon="1.60835">
        <ele>251</ele>
        <time>2022-08-07T16:09:10Z</time>
      </trkpt>
      <trkpt lat="44.7858" lon="1.60849">
        <ele>250.3</ele>
        <time>2022-08-07T16:09:12Z</time>
      </trkpt>
      <trkpt lat="44.78575" lon="1.60863">
        <ele>249.3</ele>
        <time>2022-08-07T16:09:14Z</time>
      </trkpt>
      <trkpt lat="44.78571" lon="1.60874">
        <ele>248.5</ele>
        <time>2022-08-07T16:09:16Z</time>
      </trkpt>
      <trkpt lat="44.78567" lon="1.60886">
        <ele>247.5</ele>
        <time>2022-08-07T16:09:18Z</time>
      </trkpt>
      <trkpt lat="44.78563" lon="1.60897">
        <ele>246.6</ele>
        <time>2022-08-07T16:09:20Z</time>
      </trkpt>
      <trkpt lat="44.78559" lon="1.60908">
        <ele>245.7</ele>
        <time>2022-08-07T16:09:22Z</time>
      </trkpt>
      <trkpt lat="44.78554" lon="1.60919">
        <ele>244.7</ele>
        <time>2022-08-07T16:09:24Z</time>
      </trkpt>
      <trkpt lat="44.78549" lon="1.60931">
        <ele>244.2</ele>
        <time>2022-08-07T16:09:26Z</time>
      </trkpt>
      <trkpt lat="44.78544" lon="1.60943">
        <ele>243.7</ele>
        <time>2022-08-07T16:09:28Z</time>
      </trkpt>
      <trkpt lat="44.78538" lon="1.60956">
        <ele>243.1</ele>
        <time>2022-08-07T16:09:30Z</time>
      </trkpt>
      <trkpt lat="44.78531" lon="1.60968">
        <ele>242.4</ele>
        <time>2022-08-07T16:09:32Z</time>
      </trkpt>
      <trkpt lat="44.78524" lon="1.60983">
        <ele>241.7</ele>
        <time>2022-08-07T16:09:34Z</time>
      </trkpt>
      <trkpt lat="44.78517" lon="1.60998">
        <ele>241</ele>
        <time>2022-08-07T16:09:36Z</time>
      </trkpt>
      <trkpt lat="44.78509" lon="1.61015">
        <ele>240.9</ele>
        <time>2022-08-07T16:09:38Z</time>
      </trkpt>
      <trkpt lat="44.78501" lon="1.61032">
        <ele>241</ele>
        <time>2022-08-07T16:09:40Z</time>
      </trkpt>
      <trkpt lat="44.7849" lon="1.61048">
        <ele>240.2</ele>
        <time>2022-08-07T16:09:42Z</time>
      </trkpt>
      <trkpt lat="44.78479" lon="1.61063">
        <ele>239.8</ele>
        <time>2022-08-07T16:09:44Z</time>
      </trkpt>
      <trkpt lat="44.78467" lon="1.61077">
        <ele>239.5</ele>
        <time>2022-08-07T16:09:46Z</time>
      </trkpt>
      <trkpt lat="44.78454" lon="1.6109">
        <ele>238.5</ele>
        <time>2022-08-07T16:09:48Z</time>
      </trkpt>
      <trkpt lat="44.78442" lon="1.61102">
        <ele>236.8</ele>
        <time>2022-08-07T16:09:50Z</time>
      </trkpt>
      <trkpt lat="44.7843" lon="1.61114">
        <ele>235.2</ele>
        <time>2022-08-07T16:09:52Z</time>
      </trkpt>
      <trkpt lat="44.7842" lon="1.61127">
        <ele>234.2</ele>
        <time>2022-08-07T16:09:54Z</time>
      </trkpt>
      <trkpt lat="44.78413" lon="1.61142">
        <ele>233.8</ele>
        <time>2022-08-07T16:09:56Z</time>
      </trkpt>
      <trkpt lat="44.78412" lon="1.61159">
        <ele>234.4</ele>
        <time>2022-08-07T16:09:58Z</time>
      </trkpt>
      <trkpt lat="44.78417" lon="1.61176">
        <ele>234.1</ele>
        <time>2022-08-07T16:10:00Z</time>
      </trkpt>
      <trkpt lat="44.78429" lon="1.6119">
        <ele>233.2</ele>
        <time>2022-08-07T16:10:02Z</time>
      </trkpt>
      <trkpt lat="44.78441" lon="1.61201">
        <ele>233.3</ele>
        <time>2022-08-07T16:10:04Z</time>
      </trkpt>
      <trkpt lat="44.78454" lon="1.61213">
        <ele>233.9</ele>
        <time>2022-08-07T16:10:06Z</time>
      </trkpt>
      <trkpt lat="44.78464" lon="1.61222">
        <ele>234.5</ele>
        <time>2022-08-07T16:10:08Z</time>
      </trkpt>
      <trkpt lat="44.78476" lon="1.61236">
        <ele>235</ele>
        <time>2022-08-07T16:10:10Z</time>
      </trkpt>
      <trkpt lat="44.78489" lon="1.61254">
        <ele>235.7</ele>
        <time>2022-08-07T16:10:12Z</time>
      </trkpt>
      <trkpt lat="44.78498" lon="1.61275">
        <ele>235.6</ele>
        <time>2022-08-07T16:10:14Z</time>
      </trkpt>
      <trkpt lat="44.78506" lon="1.61297">
        <ele>235.3</ele>
        <time>2022-08-07T16:10:16Z</time>
      </trkpt>
      <trkpt lat="44.78514" lon="1.6132">
        <ele>234.8</ele>
        <time>2022-08-07T16:10:18Z</time>
      </trkpt>
      <trkpt lat="44.78518" lon="1.61344">
        <ele>235.1</ele>
        <time>2022-08-07T16:10:20Z</time>
      </trkpt>
      <trkpt lat="44.78521" lon="1.61368">
        <ele>237.1</ele>
        <time>2022-08-07T16:10:22Z</time>
      </trkpt>
      <trkpt lat="44.78517" lon="1.61388">
        <ele>237</ele>
        <time>2022-08-07T16:10:24Z</time>
      </trkpt>
      <trkpt lat="44.78505" lon="1.61401">
        <ele>235</ele>
        <time>2022-08-07T16:10:26Z</time>
      </trkpt>
      <trkpt lat="44.7849" lon="1.61395">
        <ele>232.6</ele>
        <time>2022-08-07T16:10:28Z</time>
      </trkpt>
      <trkpt lat="44.78476" lon="1.61382">
        <ele>229.9</ele>
        <time>2022-08-07T16:10:30Z</time>
      </trkpt>
      <trkpt lat="44.7846" lon="1.61379">
        <ele>227.7</ele>
        <time>2022-08-07T16:10:32Z</time>
      </trkpt>
      <trkpt lat="44.78444" lon="1.61376">
        <ele>225.4</ele>
        <time>2022-08-07T16:10:34Z</time>
      </trkpt>
      <trkpt lat="44.78427" lon="1.61376">
        <ele>223.4</ele>
        <time>2022-08-07T16:10:36Z</time>
      </trkpt>
      <trkpt lat="44.7841" lon="1.61377">
        <ele>221.3</ele>
        <time>2022-08-07T16:10:38Z</time>
      </trkpt>
      <trkpt lat="44.78392" lon="1.61381">
        <ele>218.8</ele>
        <time>2022-08-07T16:10:40Z</time>
      </trkpt>
      <trkpt lat="44.78374" lon="1.61384">
        <ele>216.3</ele>
        <time>2022-08-07T16:10:42Z</time>
      </trkpt>
      <trkpt lat="44.78356" lon="1.61388">
        <ele>214.1</ele>
        <time>2022-08-07T16:10:44Z</time>
      </trkpt>
      <trkpt lat="44.78339" lon="1.61395">
        <ele>212.5</ele>
        <time>2022-08-07T16:10:46Z</time>
      </trkpt>
      <trkpt lat="44.78323" lon="1.61403">
        <ele>210.3</ele>
        <time>2022-08-07T16:10:48Z</time>
      </trkpt>
      <trkpt lat="44.78309" lon="1.61416">
        <ele>208.6</ele>
        <time>2022-08-07T16:10:50Z</time>
      </trkpt>
      <trkpt lat="44.78299" lon="1.61432">
        <ele>207</ele>
        <time>2022-08-07T16:10:52Z</time>
      </trkpt>
      <trkpt lat="44.78291" lon="1.61452">
        <ele>206.2</ele>
        <time>2022-08-07T16:10:54Z</time>
      </trkpt>
      <trkpt lat="44.78286" lon="1.61474">
        <ele>205.9</ele>
        <time>2022-08-07T16:10:56Z</time>
      </trkpt>
      <trkpt lat="44.78282" lon="1.61496">
        <ele>206.1</ele>
        <time>2022-08-07T16:10:58Z</time>
      </trkpt>
      <trkpt lat="44.7828" lon="1.61518">
        <ele>206.3</ele>
        <time>2022-08-07T16:11:00Z</time>
      </trkpt>
      <trkpt lat="44.78277" lon="1.6154">
        <ele>206.1</ele>
        <time>2022-08-07T16:11:02Z</time>
      </trkpt>
      <trkpt lat="44.78274" lon="1.61561">
        <ele>205.7</ele>
        <time>2022-08-07T16:11:04Z</time>
      </trkpt>
      <trkpt lat="44.78269" lon="1.61582">
        <ele>204.6</ele>
        <time>2022-08-07T16:11:06Z</time>
      </trkpt>
      <trkpt lat="44.78264" lon="1.61604">
        <ele>206.1</ele>
        <time>2022-08-07T16:11:08Z</time>
      </trkpt>
      <trkpt lat="44.78255" lon="1.61623">
        <ele>206.4</ele>
        <time>2022-08-07T16:11:10Z</time>
      </trkpt>
      <trkpt lat="44.78244" lon="1.61639">
        <ele>206.5</ele>
        <time>2022-08-07T16:11:12Z</time>
      </trkpt>
      <trkpt lat="44.78231" lon="1.61651">
        <ele>206</ele>
        <time>2022-08-07T16:11:14Z</time>
      </trkpt>
      <trkpt lat="44.78215" lon="1.61661">
        <ele>203.8</ele>
        <time>2022-08-07T16:11:16Z</time>
      </trkpt>
      <trkpt lat="44.78199" lon="1.61671">
        <ele>200.8</ele>
        <time>2022-08-07T16:11:18Z</time>
      </trkpt>
      <trkpt lat="44.78184" lon="1.6168">
        <ele>197.5</ele>
        <time>2022-08-07T16:11:20Z</time>
      </trkpt>
      <trkpt lat="44.7817" lon="1.61691">
        <ele>194.7</ele>
        <time>2022-08-07T16:11:22Z</time>
      </trkpt>
      <trkpt lat="44.78157" lon="1.6171">
        <ele>194.8</ele>
        <time>2022-08-07T16:11:24Z</time>
      </trkpt>
      <trkpt lat="44.78145" lon="1.61729">
        <ele>195.3</ele>
        <time>2022-08-07T16:11:26Z</time>
      </trkpt>
      <trkpt lat="44.78133" lon="1.61747">
        <ele>195.1</ele>
        <time>2022-08-07T16:11:28Z</time>
      </trkpt>
      <trkpt lat="44.78119" lon="1.61764">
        <ele>195.5</ele>
        <time>2022-08-07T16:11:30Z</time>
      </trkpt>
      <trkpt lat="44.78105" lon="1.61777">
        <ele>196.3</ele>
        <time>2022-08-07T16:11:32Z</time>
      </trkpt>
      <trkpt lat="44.78088" lon="1.61782">
        <ele>196.2</ele>
        <time>2022-08-07T16:11:34Z</time>
      </trkpt>
      <trkpt lat="44.78072" lon="1.61778">
        <ele>196.8</ele>
        <time>2022-08-07T16:11:36Z</time>
      </trkpt>
      <trkpt lat="44.78058" lon="1.6177">
        <ele>197</ele>
        <time>2022-08-07T16:11:38Z</time>
      </trkpt>
      <trkpt lat="44.78047" lon="1.61762">
        <ele>197.3</ele>
        <time>2022-08-07T16:11:40Z</time>
      </trkpt>
      <trkpt lat="44.78036" lon="1.61758">
        <ele>197.9</ele>
        <time>2022-08-07T16:11:42Z</time>
      </trkpt>
      <trkpt lat="44.78027" lon="1.61757">
        <ele>198.8</ele>
        <time>2022-08-07T16:11:44Z</time>
      </trkpt>
      <trkpt lat="44.78019" lon="1.61757">
        <ele>199.9</ele>
        <time>2022-08-07T16:11:46Z</time>
      </trkpt>
      <trkpt lat="44.78011" lon="1.61758">
        <ele>200.9</ele>
        <time>2022-08-07T16:11:48Z</time>
      </trkpt>
      <trkpt lat="44.78003" lon="1.6176">
        <ele>202.2</ele>
        <time>2022-08-07T16:11:50Z</time>
      </trkpt>
      <trkpt lat="44.77997" lon="1.61761">
        <ele>202.9</ele>
        <time>2022-08-07T16:11:52Z</time>
      </trkpt>
      <trkpt lat="44.77991" lon="1.61763">
        <ele>203.4</ele>
        <time>2022-08-07T16:11:54Z</time>
      </trkpt>
      <trkpt lat="44.77984" lon="1.61763">
        <ele>203.7</ele>
        <time>2022-08-07T16:11:56Z</time>
      </trkpt>
      <trkpt lat="44.77979" lon="1.61763">
        <ele>204</ele>
        <time>2022-08-07T16:11:58Z</time>
      </trkpt>
      <trkpt lat="44.77973" lon="1.61763">
        <ele>204.2</ele>
        <time>2022-08-07T16:12:00Z</time>
      </trkpt>
      <trkpt lat="44.77967" lon="1.61762">
        <ele>204.3</ele>
        <time>2022-08-07T16:12:02Z</time>
      </trkpt>
      <trkpt lat="44.77962" lon="1.6176">
        <ele>204.1</ele>
        <time>2022-08-07T16:12:04Z</time>
      </trkpt>
      <trkpt lat="44.77957" lon="1.61757">
        <ele>203.8</ele>
        <time>2022-08-07T16:12:06Z</time>
      </trkpt>
      <trkpt lat="44.77953" lon="1.61754">
        <ele>203.4</ele>
        <time>2022-08-07T16:12:08Z</time>
      </trkpt>
      <trkpt lat="44.77952" lon="1.61749">
        <ele>202.9</ele>
        <time>2022-08-07T16:12:10Z</time>
      </trkpt>
      <trkpt lat="44.7795" lon="1.61744">
        <ele>203.6</ele>
        <time>2022-08-07T16:12:12Z</time>
      </trkpt>
      <trkpt lat="44.77948" lon="1.6174">
        <ele>204.3</ele>
        <time>2022-08-07T16:12:14Z</time>
      </trkpt>
      <trkpt lat="44.77945" lon="1.61736">
        <ele>205</ele>
        <time>2022-08-07T16:12:16Z</time>
      </trkpt>
      <trkpt lat="44.77944" lon="1.61734">
        <ele>205.4</ele>
        <time>2022-08-07T16:12:18Z</time>
      </trkpt>
      <trkpt lat="44.77942" lon="1.61731">
        <ele>206</ele>
        <time>2022-08-07T16:12:20Z</time>
      </trkpt>
      <trkpt lat="44.77942" lon="1.6173">
        <ele>206</ele>
        <time>2022-08-07T16:12:22Z</time>
      </trkpt>
      <trkpt lat="44.77942" lon="1.6173">
        <ele>206</ele>
        <time>2022-08-07T16:12:24Z</time>
      </trkpt>
      <trkpt lat="44.77942" lon="1.61731">
        <ele>205.9</ele>
        <time>2022-08-07T16:12:26Z</time>
      </trkpt>
      <trkpt lat="44.77942" lon="1.61731">
        <ele>205.9</ele>
        <time>2022-08-07T16:12:28Z</time>
      </trkpt>
      <trkpt lat="44.77927" lon="1.61718">
        <ele>208.7</ele>
        <time>2022-08-07T16:12:50Z</time>
      </trkpt>
      <trkpt lat="44.77923" lon="1.61717">
        <ele>209.1</ele>
        <time>2022-08-07T16:12:52Z</time>
      </trkpt>
      <trkpt lat="44.7792" lon="1.61717">
        <ele>209.3</ele>
        <time>2022-08-07T16:12:54Z</time>
      </trkpt>
      <trkpt lat="44.77917" lon="1.61716">
        <ele>209.6</ele>
        <time>2022-08-07T16:12:56Z</time>
      </trkpt>
      <trkpt lat="44.77914" lon="1.61716">
        <ele>209.9</ele>
        <time>2022-08-07T16:12:58Z</time>
      </trkpt>
      <trkpt lat="44.77911" lon="1.61714">
        <ele>210.1</ele>
        <time>2022-08-07T16:13:00Z</time>
      </trkpt>
      <trkpt lat="44.77908" lon="1.61714">
        <ele>210.4</ele>
        <time>2022-08-07T16:13:02Z</time>
      </trkpt>
      <trkpt lat="44.77905" lon="1.61713">
        <ele>210.6</ele>
        <time>2022-08-07T16:13:04Z</time>
      </trkpt>
      <trkpt lat="44.77902" lon="1.61713">
        <ele>210.7</ele>
        <time>2022-08-07T16:13:06Z</time>
      </trkpt>
      <trkpt lat="44.77898" lon="1.61713">
        <ele>210.8</ele>
        <time>2022-08-07T16:13:08Z</time>
      </trkpt>
      <trkpt lat="44.77895" lon="1.61713">
        <ele>211</ele>
        <time>2022-08-07T16:13:10Z</time>
      </trkpt>
      <trkpt lat="44.77892" lon="1.61713">
        <ele>211.1</ele>
        <time>2022-08-07T16:13:12Z</time>
      </trkpt>
      <trkpt lat="44.77888" lon="1.61713">
        <ele>211.2</ele>
        <time>2022-08-07T16:13:14Z</time>
      </trkpt>
      <trkpt lat="44.77885" lon="1.61713">
        <ele>211.3</ele>
        <time>2022-08-07T16:13:16Z</time>
      </trkpt>
      <trkpt lat="44.77882" lon="1.61713">
        <ele>211.4</ele>
        <time>2022-08-07T16:13:18Z</time>
      </trkpt>
      <trkpt lat="44.77879" lon="1.61713">
        <ele>211.4</ele>
        <time>2022-08-07T16:13:20Z</time>
      </trkpt>
      <trkpt lat="44.77875" lon="1.61713">
        <ele>211.5</ele>
        <time>2022-08-07T16:13:22Z</time>
      </trkpt>
      <trkpt lat="44.77872" lon="1.61714">
        <ele>211.6</ele>
        <time>2022-08-07T16:13:24Z</time>
      </trkpt>
      <trkpt lat="44.77869" lon="1.61714">
        <ele>211.6</ele>
        <time>2022-08-07T16:13:26Z</time>
      </trkpt>
      <trkpt lat="44.77866" lon="1.61714">
        <ele>211.7</ele>
        <time>2022-08-07T16:13:28Z</time>
      </trkpt>
      <trkpt lat="44.77862" lon="1.61714">
        <ele>211.9</ele>
        <time>2022-08-07T16:13:30Z</time>
      </trkpt>
      <trkpt lat="44.77859" lon="1.61714">
        <ele>211.9</ele>
        <time>2022-08-07T16:13:32Z</time>
      </trkpt>
      <trkpt lat="44.77856" lon="1.61714">
        <ele>211.9</ele>
        <time>2022-08-07T16:13:34Z</time>
      </trkpt>
      <trkpt lat="44.77852" lon="1.61714">
        <ele>212.1</ele>
        <time>2022-08-07T16:13:36Z</time>
      </trkpt>
      <trkpt lat="44.77849" lon="1.61714">
        <ele>212.3</ele>
        <time>2022-08-07T16:13:38Z</time>
      </trkpt>
      <trkpt lat="44.77846" lon="1.61714">
        <ele>212.4</ele>
        <time>2022-08-07T16:13:40Z</time>
      </trkpt>
      <trkpt lat="44.77843" lon="1.61714">
        <ele>212.5</ele>
        <time>2022-08-07T16:13:42Z</time>
      </trkpt>
      <trkpt lat="44.7784" lon="1.61714">
        <ele>212.6</ele>
        <time>2022-08-07T16:13:44Z</time>
      </trkpt>
      <trkpt lat="44.77837" lon="1.61715">
        <ele>212.5</ele>
        <time>2022-08-07T16:13:46Z</time>
      </trkpt>
      <trkpt lat="44.77834" lon="1.61715">
        <ele>212.6</ele>
        <time>2022-08-07T16:13:48Z</time>
      </trkpt>
      <trkpt lat="44.7783" lon="1.61715">
        <ele>212.8</ele>
        <time>2022-08-07T16:13:50Z</time>
      </trkpt>
      <trkpt lat="44.77827" lon="1.61715">
        <ele>212.9</ele>
        <time>2022-08-07T16:13:52Z</time>
      </trkpt>
      <trkpt lat="44.77824" lon="1.61715">
        <ele>213.1</ele>
        <time>2022-08-07T16:13:54Z</time>
      </trkpt>
      <trkpt lat="44.77821" lon="1.61715">
        <ele>213.4</ele>
        <time>2022-08-07T16:13:56Z</time>
      </trkpt>
      <trkpt lat="44.77817" lon="1.61716">
        <ele>213.5</ele>
        <time>2022-08-07T16:13:58Z</time>
      </trkpt>
      <trkpt lat="44.77814" lon="1.61715">
        <ele>213.8</ele>
        <time>2022-08-07T16:14:00Z</time>
      </trkpt>
      <trkpt lat="44.77811" lon="1.61716">
        <ele>213.9</ele>
        <time>2022-08-07T16:14:02Z</time>
      </trkpt>
      <trkpt lat="44.77808" lon="1.61716">
        <ele>214.2</ele>
        <time>2022-08-07T16:14:04Z</time>
      </trkpt>
      <trkpt lat="44.77804" lon="1.61717">
        <ele>214.2</ele>
        <time>2022-08-07T16:14:06Z</time>
      </trkpt>
      <trkpt lat="44.77801" lon="1.61717">
        <ele>214.5</ele>
        <time>2022-08-07T16:14:08Z</time>
      </trkpt>
      <trkpt lat="44.77798" lon="1.61717">
        <ele>214.7</ele>
        <time>2022-08-07T16:14:10Z</time>
      </trkpt>
      <trkpt lat="44.77794" lon="1.61717">
        <ele>214.8</ele>
        <time>2022-08-07T16:14:12Z</time>
      </trkpt>
      <trkpt lat="44.77791" lon="1.61718">
        <ele>214.7</ele>
        <time>2022-08-07T16:14:14Z</time>
      </trkpt>
      <trkpt lat="44.77787" lon="1.61719">
        <ele>214.8</ele>
        <time>2022-08-07T16:14:16Z</time>
      </trkpt>
      <trkpt lat="44.77784" lon="1.61719">
        <ele>214.9</ele>
        <time>2022-08-07T16:14:18Z</time>
      </trkpt>
      <trkpt lat="44.77781" lon="1.61719">
        <ele>215.2</ele>
        <time>2022-08-07T16:14:20Z</time>
      </trkpt>
      <trkpt lat="44.77777" lon="1.61721">
        <ele>215.1</ele>
        <time>2022-08-07T16:14:22Z</time>
      </trkpt>
      <trkpt lat="44.77774" lon="1.61721">
        <ele>215.2</ele>
        <time>2022-08-07T16:14:24Z</time>
      </trkpt>
      <trkpt lat="44.77771" lon="1.61721">
        <ele>215.2</ele>
        <time>2022-08-07T16:14:26Z</time>
      </trkpt>
      <trkpt lat="44.77768" lon="1.61722">
        <ele>215.2</ele>
        <time>2022-08-07T16:14:28Z</time>
      </trkpt>
      <trkpt lat="44.77765" lon="1.61723">
        <ele>215.1</ele>
        <time>2022-08-07T16:14:30Z</time>
      </trkpt>
      <trkpt lat="44.77762" lon="1.61724">
        <ele>215.1</ele>
        <time>2022-08-07T16:14:32Z</time>
      </trkpt>
      <trkpt lat="44.77758" lon="1.61725">
        <ele>215.1</ele>
        <time>2022-08-07T16:14:34Z</time>
      </trkpt>
      <trkpt lat="44.77755" lon="1.61726">
        <ele>214.9</ele>
        <time>2022-08-07T16:14:36Z</time>
      </trkpt>
      <trkpt lat="44.77751" lon="1.61728">
        <ele>214.7</ele>
        <time>2022-08-07T16:14:38Z</time>
      </trkpt>
      <trkpt lat="44.77748" lon="1.61729">
        <ele>214.7</ele>
        <time>2022-08-07T16:14:40Z</time>
      </trkpt>
      <trkpt lat="44.77745" lon="1.6173">
        <ele>215</ele>
        <time>2022-08-07T16:14:42Z</time>
      </trkpt>
      <trkpt lat="44.77741" lon="1.61731">
        <ele>215.3</ele>
        <time>2022-08-07T16:14:44Z</time>
      </trkpt>
      <trkpt lat="44.77739" lon="1.61733">
        <ele>215.2</ele>
        <time>2022-08-07T16:14:46Z</time>
      </trkpt>
      <trkpt lat="44.77736" lon="1.61734">
        <ele>215.5</ele>
        <time>2022-08-07T16:14:48Z</time>
      </trkpt>
      <trkpt lat="44.77733" lon="1.61735">
        <ele>215.8</ele>
        <time>2022-08-07T16:14:50Z</time>
      </trkpt>
      <trkpt lat="44.77729" lon="1.61737">
        <ele>216.1</ele>
        <time>2022-08-07T16:14:52Z</time>
      </trkpt>
      <trkpt lat="44.77725" lon="1.61738">
        <ele>216.2</ele>
        <time>2022-08-07T16:14:54Z</time>
      </trkpt>
      <trkpt lat="44.77722" lon="1.6174">
        <ele>216.3</ele>
        <time>2022-08-07T16:14:56Z</time>
      </trkpt>
      <trkpt lat="44.77719" lon="1.61742">
        <ele>216.3</ele>
        <time>2022-08-07T16:14:58Z</time>
      </trkpt>
      <trkpt lat="44.77716" lon="1.61745">
        <ele>216.2</ele>
        <time>2022-08-07T16:15:00Z</time>
      </trkpt>
      <trkpt lat="44.77712" lon="1.61745">
        <ele>216.5</ele>
        <time>2022-08-07T16:15:02Z</time>
      </trkpt>
      <trkpt lat="44.77709" lon="1.61748">
        <ele>216.5</ele>
        <time>2022-08-07T16:15:04Z</time>
      </trkpt>
      <trkpt lat="44.77706" lon="1.6175">
        <ele>216.6</ele>
        <time>2022-08-07T16:15:06Z</time>
      </trkpt>
      <trkpt lat="44.77703" lon="1.6175">
        <ele>217</ele>
        <time>2022-08-07T16:15:08Z</time>
      </trkpt>
      <trkpt lat="44.777" lon="1.61751">
        <ele>217.5</ele>
        <time>2022-08-07T16:15:10Z</time>
      </trkpt>
      <trkpt lat="44.77697" lon="1.61753">
        <ele>217.9</ele>
        <time>2022-08-07T16:15:12Z</time>
      </trkpt>
      <trkpt lat="44.77694" lon="1.61754">
        <ele>218.4</ele>
        <time>2022-08-07T16:15:14Z</time>
      </trkpt>
      <trkpt lat="44.7769" lon="1.61756">
        <ele>218.8</ele>
        <time>2022-08-07T16:15:16Z</time>
      </trkpt>
      <trkpt lat="44.77687" lon="1.61757">
        <ele>219.2</ele>
        <time>2022-08-07T16:15:18Z</time>
      </trkpt>
      <trkpt lat="44.77684" lon="1.61759">
        <ele>219.5</ele>
        <time>2022-08-07T16:15:20Z</time>
      </trkpt>
      <trkpt lat="44.77681" lon="1.6176">
        <ele>219.8</ele>
        <time>2022-08-07T16:15:22Z</time>
      </trkpt>
      <trkpt lat="44.77678" lon="1.61761">
        <ele>220.1</ele>
        <time>2022-08-07T16:15:24Z</time>
      </trkpt>
      <trkpt lat="44.77675" lon="1.61762">
        <ele>220.5</ele>
        <time>2022-08-07T16:15:26Z</time>
      </trkpt>
      <trkpt lat="44.77672" lon="1.61763">
        <ele>220.8</ele>
        <time>2022-08-07T16:15:28Z</time>
      </trkpt>
      <trkpt lat="44.77668" lon="1.61765">
        <ele>221.1</ele>
        <time>2022-08-07T16:15:30Z</time>
      </trkpt>
      <trkpt lat="44.77665" lon="1.61766">
        <ele>221.4</ele>
        <time>2022-08-07T16:15:32Z</time>
      </trkpt>
      <trkpt lat="44.77662" lon="1.61768">
        <ele>221.9</ele>
        <time>2022-08-07T16:15:34Z</time>
      </trkpt>
      <trkpt lat="44.77659" lon="1.61769">
        <ele>222.4</ele>
        <time>2022-08-07T16:15:36Z</time>
      </trkpt>
      <trkpt lat="44.77656" lon="1.6177">
        <ele>222.9</ele>
        <time>2022-08-07T16:15:38Z</time>
      </trkpt>
      <trkpt lat="44.77653" lon="1.61772">
        <ele>223.3</ele>
        <time>2022-08-07T16:15:40Z</time>
      </trkpt>
      <trkpt lat="44.7765" lon="1.61774">
        <ele>223.6</ele>
        <time>2022-08-07T16:15:42Z</time>
      </trkpt>
      <trkpt lat="44.77647" lon="1.61776">
        <ele>224</ele>
        <time>2022-08-07T16:15:44Z</time>
      </trkpt>
      <trkpt lat="44.77643" lon="1.61777">
        <ele>224.5</ele>
        <time>2022-08-07T16:15:46Z</time>
      </trkpt>
      <trkpt lat="44.7764" lon="1.61778">
        <ele>224.9</ele>
        <time>2022-08-07T16:15:48Z</time>
      </trkpt>
      <trkpt lat="44.77638" lon="1.6178">
        <ele>225.1</ele>
        <time>2022-08-07T16:15:50Z</time>
      </trkpt>
      <trkpt lat="44.77635" lon="1.61782">
        <ele>225.3</ele>
        <time>2022-08-07T16:15:52Z</time>
      </trkpt>
      <trkpt lat="44.77632" lon="1.61784">
        <ele>225.5</ele>
        <time>2022-08-07T16:15:54Z</time>
      </trkpt>
      <trkpt lat="44.7763" lon="1.61786">
        <ele>225.7</ele>
        <time>2022-08-07T16:15:56Z</time>
      </trkpt>
      <trkpt lat="44.77627" lon="1.61789">
        <ele>225.6</ele>
        <time>2022-08-07T16:15:58Z</time>
      </trkpt>
      <trkpt lat="44.77624" lon="1.61792">
        <ele>225.7</ele>
        <time>2022-08-07T16:16:00Z</time>
      </trkpt>
      <trkpt lat="44.77621" lon="1.61794">
        <ele>225.8</ele>
        <time>2022-08-07T16:16:02Z</time>
      </trkpt>
      <trkpt lat="44.77618" lon="1.61795">
        <ele>226.1</ele>
        <time>2022-08-07T16:16:04Z</time>
      </trkpt>
      <trkpt lat="44.77616" lon="1.61798">
        <ele>226.1</ele>
        <time>2022-08-07T16:16:06Z</time>
      </trkpt>
      <trkpt lat="44.77613" lon="1.618">
        <ele>226.1</ele>
        <time>2022-08-07T16:16:08Z</time>
      </trkpt>
      <trkpt lat="44.77611" lon="1.61802">
        <ele>226.2</ele>
        <time>2022-08-07T16:16:10Z</time>
      </trkpt>
      <trkpt lat="44.77608" lon="1.61805">
        <ele>225.9</ele>
        <time>2022-08-07T16:16:12Z</time>
      </trkpt>
      <trkpt lat="44.77605" lon="1.61808">
        <ele>225.9</ele>
        <time>2022-08-07T16:16:14Z</time>
      </trkpt>
      <trkpt lat="44.77603" lon="1.61809">
        <ele>226.2</ele>
        <time>2022-08-07T16:16:16Z</time>
      </trkpt>
      <trkpt lat="44.776" lon="1.61812">
        <ele>226.1</ele>
        <time>2022-08-07T16:16:18Z</time>
      </trkpt>
      <trkpt lat="44.77598" lon="1.61814">
        <ele>226</ele>
        <time>2022-08-07T16:16:20Z</time>
      </trkpt>
      <trkpt lat="44.77595" lon="1.61816">
        <ele>226</ele>
        <time>2022-08-07T16:16:22Z</time>
      </trkpt>
      <trkpt lat="44.77593" lon="1.61819">
        <ele>225.8</ele>
        <time>2022-08-07T16:16:24Z</time>
      </trkpt>
      <trkpt lat="44.77591" lon="1.61821">
        <ele>225.6</ele>
        <time>2022-08-07T16:16:26Z</time>
      </trkpt>
      <trkpt lat="44.77588" lon="1.61824">
        <ele>225.4</ele>
        <time>2022-08-07T16:16:28Z</time>
      </trkpt>
      <trkpt lat="44.77585" lon="1.61827">
        <ele>225.4</ele>
        <time>2022-08-07T16:16:30Z</time>
      </trkpt>
      <trkpt lat="44.77583" lon="1.61828">
        <ele>225.5</ele>
        <time>2022-08-07T16:16:32Z</time>
      </trkpt>
      <trkpt lat="44.7758" lon="1.61832">
        <ele>225.3</ele>
        <time>2022-08-07T16:16:34Z</time>
      </trkpt>
      <trkpt lat="44.77578" lon="1.61833">
        <ele>225.4</ele>
        <time>2022-08-07T16:16:36Z</time>
      </trkpt>
      <trkpt lat="44.77575" lon="1.61836">
        <ele>225.7</ele>
        <time>2022-08-07T16:16:38Z</time>
      </trkpt>
      <trkpt lat="44.77573" lon="1.61838">
        <ele>225.9</ele>
        <time>2022-08-07T16:16:40Z</time>
      </trkpt>
      <trkpt lat="44.77571" lon="1.61841">
        <ele>225.9</ele>
        <time>2022-08-07T16:16:42Z</time>
      </trkpt>
      <trkpt lat="44.77569" lon="1.61844">
        <ele>226.1</ele>
        <time>2022-08-07T16:16:44Z</time>
      </trkpt>
      <trkpt lat="44.77566" lon="1.61846">
        <ele>226.5</ele>
        <time>2022-08-07T16:16:46Z</time>
      </trkpt>
      <trkpt lat="44.77564" lon="1.61848">
        <ele>226.5</ele>
        <time>2022-08-07T16:16:48Z</time>
      </trkpt>
      <trkpt lat="44.77563" lon="1.61851">
        <ele>226.5</ele>
        <time>2022-08-07T16:16:50Z</time>
      </trkpt>
      <trkpt lat="44.7756" lon="1.61855">
        <ele>226.5</ele>
        <time>2022-08-07T16:16:52Z</time>
      </trkpt>
      <trkpt lat="44.77558" lon="1.61858">
        <ele>226.5</ele>
        <time>2022-08-07T16:16:54Z</time>
      </trkpt>
      <trkpt lat="44.77555" lon="1.61861">
        <ele>226.6</ele>
        <time>2022-08-07T16:16:56Z</time>
      </trkpt>
      <trkpt lat="44.77553" lon="1.61862">
        <ele>227</ele>
        <time>2022-08-07T16:16:58Z</time>
      </trkpt>
      <trkpt lat="44.7755" lon="1.61865">
        <ele>227.1</ele>
        <time>2022-08-07T16:17:00Z</time>
      </trkpt>
      <trkpt lat="44.77548" lon="1.61868">
        <ele>227.2</ele>
        <time>2022-08-07T16:17:02Z</time>
      </trkpt>
      <trkpt lat="44.77545" lon="1.61871">
        <ele>227.2</ele>
        <time>2022-08-07T16:17:04Z</time>
      </trkpt>
      <trkpt lat="44.77543" lon="1.61874">
        <ele>227.2</ele>
        <time>2022-08-07T16:17:06Z</time>
      </trkpt>
      <trkpt lat="44.77541" lon="1.61878">
        <ele>226.9</ele>
        <time>2022-08-07T16:17:08Z</time>
      </trkpt>
      <trkpt lat="44.77538" lon="1.6188">
        <ele>227</ele>
        <time>2022-08-07T16:17:10Z</time>
      </trkpt>
      <trkpt lat="44.77536" lon="1.61883">
        <ele>226.9</ele>
        <time>2022-08-07T16:17:12Z</time>
      </trkpt>
      <trkpt lat="44.77534" lon="1.61885">
        <ele>227.1</ele>
        <time>2022-08-07T16:17:14Z</time>
      </trkpt>
      <trkpt lat="44.77532" lon="1.61889">
        <ele>226.8</ele>
        <time>2022-08-07T16:17:16Z</time>
      </trkpt>
      <trkpt lat="44.77529" lon="1.61891">
        <ele>226.8</ele>
        <time>2022-08-07T16:17:18Z</time>
      </trkpt>
      <trkpt lat="44.77527" lon="1.61894">
        <ele>226.8</ele>
        <time>2022-08-07T16:17:20Z</time>
      </trkpt>
      <trkpt lat="44.77524" lon="1.61897">
        <ele>226.7</ele>
        <time>2022-08-07T16:17:22Z</time>
      </trkpt>
      <trkpt lat="44.77522" lon="1.619">
        <ele>226.6</ele>
        <time>2022-08-07T16:17:24Z</time>
      </trkpt>
      <trkpt lat="44.77519" lon="1.61903">
        <ele>226.5</ele>
        <time>2022-08-07T16:17:26Z</time>
      </trkpt>
      <trkpt lat="44.77516" lon="1.61906">
        <ele>226.5</ele>
        <time>2022-08-07T16:17:28Z</time>
      </trkpt>
      <trkpt lat="44.77513" lon="1.61909">
        <ele>226.4</ele>
        <time>2022-08-07T16:17:30Z</time>
      </trkpt>
      <trkpt lat="44.7751" lon="1.61909">
        <ele>226.8</ele>
        <time>2022-08-07T16:17:32Z</time>
      </trkpt>
      <trkpt lat="44.77507" lon="1.6191">
        <ele>227.2</ele>
        <time>2022-08-07T16:17:34Z</time>
      </trkpt>
      <trkpt lat="44.77504" lon="1.61911">
        <ele>227.6</ele>
        <time>2022-08-07T16:17:36Z</time>
      </trkpt>
      <trkpt lat="44.77501" lon="1.61912">
        <ele>227.8</ele>
        <time>2022-08-07T16:17:38Z</time>
      </trkpt>
      <trkpt lat="44.77498" lon="1.61913">
        <ele>228</ele>
        <time>2022-08-07T16:17:40Z</time>
      </trkpt>
      <trkpt lat="44.77495" lon="1.61914">
        <ele>228.2</ele>
        <time>2022-08-07T16:17:42Z</time>
      </trkpt>
      <trkpt lat="44.77491" lon="1.61915">
        <ele>228.4</ele>
        <time>2022-08-07T16:17:44Z</time>
      </trkpt>
      <trkpt lat="44.77489" lon="1.61916">
        <ele>228.5</ele>
        <time>2022-08-07T16:17:46Z</time>
      </trkpt>
      <trkpt lat="44.77485" lon="1.61917">
        <ele>228.9</ele>
        <time>2022-08-07T16:17:48Z</time>
      </trkpt>
      <trkpt lat="44.77482" lon="1.61917">
        <ele>229.3</ele>
        <time>2022-08-07T16:17:50Z</time>
      </trkpt>
      <trkpt lat="44.77479" lon="1.61917">
        <ele>229.8</ele>
        <time>2022-08-07T16:17:52Z</time>
      </trkpt>
      <trkpt lat="44.77476" lon="1.61916">
        <ele>230.3</ele>
        <time>2022-08-07T16:17:54Z</time>
      </trkpt>
      <trkpt lat="44.77473" lon="1.61915">
        <ele>230.9</ele>
        <time>2022-08-07T16:17:56Z</time>
      </trkpt>
      <trkpt lat="44.7747" lon="1.61915">
        <ele>231.3</ele>
        <time>2022-08-07T16:17:58Z</time>
      </trkpt>
      <trkpt lat="44.77466" lon="1.61915">
        <ele>231.8</ele>
        <time>2022-08-07T16:18:00Z</time>
      </trkpt>
      <trkpt lat="44.77463" lon="1.61915">
        <ele>232.2</ele>
        <time>2022-08-07T16:18:02Z</time>
      </trkpt>
      <trkpt lat="44.7746" lon="1.61916">
        <ele>232.5</ele>
        <time>2022-08-07T16:18:04Z</time>
      </trkpt>
      <trkpt lat="44.77456" lon="1.61916">
        <ele>232.9</ele>
        <time>2022-08-07T16:18:06Z</time>
      </trkpt>
      <trkpt lat="44.77453" lon="1.61916">
        <ele>233.3</ele>
        <time>2022-08-07T16:18:08Z</time>
      </trkpt>
      <trkpt lat="44.7745" lon="1.61917">
        <ele>233.6</ele>
        <time>2022-08-07T16:18:10Z</time>
      </trkpt>
      <trkpt lat="44.77446" lon="1.61917">
        <ele>234.1</ele>
        <time>2022-08-07T16:18:12Z</time>
      </trkpt>
      <trkpt lat="44.77443" lon="1.61918">
        <ele>234.1</ele>
        <time>2022-08-07T16:18:14Z</time>
      </trkpt>
      <trkpt lat="44.7744" lon="1.6192">
        <ele>234.3</ele>
        <time>2022-08-07T16:18:16Z</time>
      </trkpt>
      <trkpt lat="44.77437" lon="1.61921">
        <ele>234.4</ele>
        <time>2022-08-07T16:18:18Z</time>
      </trkpt>
      <trkpt lat="44.77434" lon="1.61921">
        <ele>234.8</ele>
        <time>2022-08-07T16:18:20Z</time>
      </trkpt>
      <trkpt lat="44.77431" lon="1.61921">
        <ele>235.1</ele>
        <time>2022-08-07T16:18:22Z</time>
      </trkpt>
      <trkpt lat="44.77428" lon="1.61921">
        <ele>235.5</ele>
        <time>2022-08-07T16:18:24Z</time>
      </trkpt>
      <trkpt lat="44.77425" lon="1.61921">
        <ele>235.7</ele>
        <time>2022-08-07T16:18:26Z</time>
      </trkpt>
      <trkpt lat="44.77422" lon="1.61921">
        <ele>236.1</ele>
        <time>2022-08-07T16:18:28Z</time>
      </trkpt>
      <trkpt lat="44.77419" lon="1.61923">
        <ele>236.1</ele>
        <time>2022-08-07T16:18:30Z</time>
      </trkpt>
      <trkpt lat="44.77416" lon="1.61923">
        <ele>236.4</ele>
        <time>2022-08-07T16:18:32Z</time>
      </trkpt>
      <trkpt lat="44.77413" lon="1.61923">
        <ele>236.6</ele>
        <time>2022-08-07T16:18:34Z</time>
      </trkpt>
      <trkpt lat="44.7741" lon="1.61924">
        <ele>236.7</ele>
        <time>2022-08-07T16:18:36Z</time>
      </trkpt>
      <trkpt lat="44.77407" lon="1.61926">
        <ele>236.7</ele>
        <time>2022-08-07T16:18:38Z</time>
      </trkpt>
      <trkpt lat="44.77404" lon="1.61926">
        <ele>236.9</ele>
        <time>2022-08-07T16:18:40Z</time>
      </trkpt>
      <trkpt lat="44.774" lon="1.61927">
        <ele>236.8</ele>
        <time>2022-08-07T16:18:42Z</time>
      </trkpt>
      <trkpt lat="44.77397" lon="1.61928">
        <ele>236.9</ele>
        <time>2022-08-07T16:18:44Z</time>
      </trkpt>
      <trkpt lat="44.77394" lon="1.61929">
        <ele>236.8</ele>
        <time>2022-08-07T16:18:46Z</time>
      </trkpt>
      <trkpt lat="44.77391" lon="1.61929">
        <ele>237</ele>
        <time>2022-08-07T16:18:48Z</time>
      </trkpt>
      <trkpt lat="44.77388" lon="1.6193">
        <ele>237.1</ele>
        <time>2022-08-07T16:18:50Z</time>
      </trkpt>
      <trkpt lat="44.77385" lon="1.61931">
        <ele>237.1</ele>
        <time>2022-08-07T16:18:52Z</time>
      </trkpt>
      <trkpt lat="44.77382" lon="1.61931">
        <ele>237.3</ele>
        <time>2022-08-07T16:18:54Z</time>
      </trkpt>
      <trkpt lat="44.77379" lon="1.61932">
        <ele>237.5</ele>
        <time>2022-08-07T16:18:56Z</time>
      </trkpt>
      <trkpt lat="44.77376" lon="1.61931">
        <ele>237.8</ele>
        <time>2022-08-07T16:18:58Z</time>
      </trkpt>
      <trkpt lat="44.77373" lon="1.61931">
        <ele>238.1</ele>
        <time>2022-08-07T16:19:00Z</time>
      </trkpt>
      <trkpt lat="44.7737" lon="1.6193">
        <ele>238.6</ele>
        <time>2022-08-07T16:19:02Z</time>
      </trkpt>
      <trkpt lat="44.77366" lon="1.6193">
        <ele>238.9</ele>
        <time>2022-08-07T16:19:04Z</time>
      </trkpt>
      <trkpt lat="44.77363" lon="1.6193">
        <ele>239.3</ele>
        <time>2022-08-07T16:19:06Z</time>
      </trkpt>
      <trkpt lat="44.7736" lon="1.61929">
        <ele>239.8</ele>
        <time>2022-08-07T16:19:08Z</time>
      </trkpt>
      <trkpt lat="44.77357" lon="1.61929">
        <ele>240.2</ele>
        <time>2022-08-07T16:19:10Z</time>
      </trkpt>
      <trkpt lat="44.77354" lon="1.61928">
        <ele>240.7</ele>
        <time>2022-08-07T16:19:12Z</time>
      </trkpt>
      <trkpt lat="44.77351" lon="1.61927">
        <ele>241.2</ele>
        <time>2022-08-07T16:19:14Z</time>
      </trkpt>
      <trkpt lat="44.77348" lon="1.61927">
        <ele>241.3</ele>
        <time>2022-08-07T16:19:16Z</time>
      </trkpt>
      <trkpt lat="44.77345" lon="1.61927">
        <ele>241.6</ele>
        <time>2022-08-07T16:19:18Z</time>
      </trkpt>
      <trkpt lat="44.77342" lon="1.61927">
        <ele>242.1</ele>
        <time>2022-08-07T16:19:20Z</time>
      </trkpt>
      <trkpt lat="44.77339" lon="1.61926">
        <ele>242.6</ele>
        <time>2022-08-07T16:19:22Z</time>
      </trkpt>
      <trkpt lat="44.77337" lon="1.61926">
        <ele>242.9</ele>
        <time>2022-08-07T16:19:24Z</time>
      </trkpt>
      <trkpt lat="44.77334" lon="1.61924">
        <ele>243.5</ele>
        <time>2022-08-07T16:19:26Z</time>
      </trkpt>
      <trkpt lat="44.77331" lon="1.61924">
        <ele>243.6</ele>
        <time>2022-08-07T16:19:28Z</time>
      </trkpt>
      <trkpt lat="44.77328" lon="1.61924">
        <ele>243.4</ele>
        <time>2022-08-07T16:19:30Z</time>
      </trkpt>
      <trkpt lat="44.77325" lon="1.61923">
        <ele>243.5</ele>
        <time>2022-08-07T16:19:32Z</time>
      </trkpt>
      <trkpt lat="44.77322" lon="1.61922">
        <ele>243.8</ele>
        <time>2022-08-07T16:19:34Z</time>
      </trkpt>
      <trkpt lat="44.77319" lon="1.61921">
        <ele>243.8</ele>
        <time>2022-08-07T16:19:36Z</time>
      </trkpt>
      <trkpt lat="44.77316" lon="1.61921">
        <ele>243.8</ele>
        <time>2022-08-07T16:19:38Z</time>
      </trkpt>
      <trkpt lat="44.77313" lon="1.6192">
        <ele>243.9</ele>
        <time>2022-08-07T16:19:40Z</time>
      </trkpt>
      <trkpt lat="44.7731" lon="1.6192">
        <ele>244</ele>
        <time>2022-08-07T16:19:42Z</time>
      </trkpt>
      <trkpt lat="44.77307" lon="1.61919">
        <ele>244.1</ele>
        <time>2022-08-07T16:19:44Z</time>
      </trkpt>
      <trkpt lat="44.77304" lon="1.61918">
        <ele>244.2</ele>
        <time>2022-08-07T16:19:46Z</time>
      </trkpt>
      <trkpt lat="44.77301" lon="1.61917">
        <ele>244.4</ele>
        <time>2022-08-07T16:19:48Z</time>
      </trkpt>
      <trkpt lat="44.77298" lon="1.61916">
        <ele>244.6</ele>
        <time>2022-08-07T16:19:50Z</time>
      </trkpt>
      <trkpt lat="44.77296" lon="1.61915">
        <ele>244.7</ele>
        <time>2022-08-07T16:19:52Z</time>
      </trkpt>
      <trkpt lat="44.77292" lon="1.61914">
        <ele>244.7</ele>
        <time>2022-08-07T16:19:54Z</time>
      </trkpt>
      <trkpt lat="44.77289" lon="1.61913">
        <ele>245</ele>
        <time>2022-08-07T16:19:56Z</time>
      </trkpt>
      <trkpt lat="44.77286" lon="1.61911">
        <ele>245.2</ele>
        <time>2022-08-07T16:19:58Z</time>
      </trkpt>
      <trkpt lat="44.77283" lon="1.6191">
        <ele>245.3</ele>
        <time>2022-08-07T16:20:00Z</time>
      </trkpt>
      <trkpt lat="44.7728" lon="1.6191">
        <ele>245.4</ele>
        <time>2022-08-07T16:20:02Z</time>
      </trkpt>
      <trkpt lat="44.77277" lon="1.61908">
        <ele>245.6</ele>
        <time>2022-08-07T16:20:04Z</time>
      </trkpt>
      <trkpt lat="44.77273" lon="1.61907">
        <ele>245.8</ele>
        <time>2022-08-07T16:20:06Z</time>
      </trkpt>
      <trkpt lat="44.77271" lon="1.61905">
        <ele>246.2</ele>
        <time>2022-08-07T16:20:08Z</time>
      </trkpt>
      <trkpt lat="44.77268" lon="1.61904">
        <ele>246.5</ele>
        <time>2022-08-07T16:20:10Z</time>
      </trkpt>
      <trkpt lat="44.77265" lon="1.61903">
        <ele>246.8</ele>
        <time>2022-08-07T16:20:12Z</time>
      </trkpt>
      <trkpt lat="44.77262" lon="1.61901">
        <ele>247</ele>
        <time>2022-08-07T16:20:14Z</time>
      </trkpt>
      <trkpt lat="44.77259" lon="1.619">
        <ele>247.3</ele>
        <time>2022-08-07T16:20:16Z</time>
      </trkpt>
      <trkpt lat="44.77256" lon="1.61899">
        <ele>247.6</ele>
        <time>2022-08-07T16:20:18Z</time>
      </trkpt>
      <trkpt lat="44.77253" lon="1.61897">
        <ele>248.1</ele>
        <time>2022-08-07T16:20:20Z</time>
      </trkpt>
      <trkpt lat="44.7725" lon="1.61895">
        <ele>248.5</ele>
        <time>2022-08-07T16:20:22Z</time>
      </trkpt>
      <trkpt lat="44.77247" lon="1.61894">
        <ele>248.4</ele>
        <time>2022-08-07T16:20:24Z</time>
      </trkpt>
      <trkpt lat="44.77244" lon="1.61892">
        <ele>248.4</ele>
        <time>2022-08-07T16:20:26Z</time>
      </trkpt>
      <trkpt lat="44.77241" lon="1.6189">
        <ele>248.4</ele>
        <time>2022-08-07T16:20:28Z</time>
      </trkpt>
      <trkpt lat="44.77238" lon="1.61888">
        <ele>248.4</ele>
        <time>2022-08-07T16:20:30Z</time>
      </trkpt>
      <trkpt lat="44.77236" lon="1.61887">
        <ele>248.4</ele>
        <time>2022-08-07T16:20:32Z</time>
      </trkpt>
      <trkpt lat="44.77233" lon="1.61884">
        <ele>248.6</ele>
        <time>2022-08-07T16:20:34Z</time>
      </trkpt>
      <trkpt lat="44.7723" lon="1.61882">
        <ele>248.7</ele>
        <time>2022-08-07T16:20:36Z</time>
      </trkpt>
      <trkpt lat="44.77228" lon="1.6188">
        <ele>248.9</ele>
        <time>2022-08-07T16:20:38Z</time>
      </trkpt>
      <trkpt lat="44.77225" lon="1.61878">
        <ele>249</ele>
        <time>2022-08-07T16:20:40Z</time>
      </trkpt>
      <trkpt lat="44.77222" lon="1.61875">
        <ele>249.1</ele>
        <time>2022-08-07T16:20:42Z</time>
      </trkpt>
      <trkpt lat="44.77219" lon="1.61873">
        <ele>249.4</ele>
        <time>2022-08-07T16:20:44Z</time>
      </trkpt>
      <trkpt lat="44.77216" lon="1.61871">
        <ele>249.4</ele>
        <time>2022-08-07T16:20:46Z</time>
      </trkpt>
      <trkpt lat="44.77213" lon="1.61868">
        <ele>249.6</ele>
        <time>2022-08-07T16:20:48Z</time>
      </trkpt>
      <trkpt lat="44.7721" lon="1.61867">
        <ele>249.5</ele>
        <time>2022-08-07T16:20:50Z</time>
      </trkpt>
      <trkpt lat="44.77207" lon="1.61864">
        <ele>249.7</ele>
        <time>2022-08-07T16:20:52Z</time>
      </trkpt>
      <trkpt lat="44.77204" lon="1.61862">
        <ele>249.9</ele>
        <time>2022-08-07T16:20:54Z</time>
      </trkpt>
      <trkpt lat="44.77202" lon="1.61859">
        <ele>250.1</ele>
        <time>2022-08-07T16:20:56Z</time>
      </trkpt>
      <trkpt lat="44.77199" lon="1.61857">
        <ele>250.3</ele>
        <time>2022-08-07T16:20:58Z</time>
      </trkpt>
      <trkpt lat="44.77197" lon="1.61855">
        <ele>250.6</ele>
        <time>2022-08-07T16:21:00Z</time>
      </trkpt>
      <trkpt lat="44.77195" lon="1.61852">
        <ele>250.9</ele>
        <time>2022-08-07T16:21:02Z</time>
      </trkpt>
      <trkpt lat="44.77192" lon="1.6185">
        <ele>251</ele>
        <time>2022-08-07T16:21:04Z</time>
      </trkpt>
      <trkpt lat="44.77189" lon="1.61848">
        <ele>251</ele>
        <time>2022-08-07T16:21:06Z</time>
      </trkpt>
      <trkpt lat="44.77187" lon="1.61845">
        <ele>251.4</ele>
        <time>2022-08-07T16:21:08Z</time>
      </trkpt>
      <trkpt lat="44.77185" lon="1.61842">
        <ele>252</ele>
        <time>2022-08-07T16:21:10Z</time>
      </trkpt>
      <trkpt lat="44.77182" lon="1.6184">
        <ele>252.1</ele>
        <time>2022-08-07T16:21:12Z</time>
      </trkpt>
      <trkpt lat="44.77179" lon="1.61838">
        <ele>252.2</ele>
        <time>2022-08-07T16:21:14Z</time>
      </trkpt>
      <trkpt lat="44.77177" lon="1.61835">
        <ele>252.7</ele>
        <time>2022-08-07T16:21:16Z</time>
      </trkpt>
      <trkpt lat="44.77175" lon="1.61832">
        <ele>252.9</ele>
        <time>2022-08-07T16:21:18Z</time>
      </trkpt>
      <trkpt lat="44.77173" lon="1.61829">
        <ele>253.1</ele>
        <time>2022-08-07T16:21:20Z</time>
      </trkpt>
      <trkpt lat="44.7717" lon="1.61826">
        <ele>253.4</ele>
        <time>2022-08-07T16:21:22Z</time>
      </trkpt>
      <trkpt lat="44.77168" lon="1.61823">
        <ele>253.7</ele>
        <time>2022-08-07T16:21:24Z</time>
      </trkpt>
      <trkpt lat="44.77166" lon="1.6182">
        <ele>253.9</ele>
        <time>2022-08-07T16:21:26Z</time>
      </trkpt>
      <trkpt lat="44.77163" lon="1.61818">
        <ele>253.7</ele>
        <time>2022-08-07T16:21:28Z</time>
      </trkpt>
      <trkpt lat="44.77161" lon="1.61814">
        <ele>254.1</ele>
        <time>2022-08-07T16:21:30Z</time>
      </trkpt>
      <trkpt lat="44.77159" lon="1.61811">
        <ele>254.3</ele>
        <time>2022-08-07T16:21:32Z</time>
      </trkpt>
      <trkpt lat="44.77157" lon="1.61808">
        <ele>254.5</ele>
        <time>2022-08-07T16:21:34Z</time>
      </trkpt>
      <trkpt lat="44.77154" lon="1.61805">
        <ele>254.8</ele>
        <time>2022-08-07T16:21:36Z</time>
      </trkpt>
      <trkpt lat="44.77152" lon="1.61802">
        <ele>255</ele>
        <time>2022-08-07T16:21:38Z</time>
      </trkpt>
      <trkpt lat="44.77151" lon="1.61798">
        <ele>255.5</ele>
        <time>2022-08-07T16:21:40Z</time>
      </trkpt>
      <trkpt lat="44.77148" lon="1.61795">
        <ele>255.7</ele>
        <time>2022-08-07T16:21:42Z</time>
      </trkpt>
      <trkpt lat="44.77147" lon="1.61792">
        <ele>256.1</ele>
        <time>2022-08-07T16:21:44Z</time>
      </trkpt>
      <trkpt lat="44.77144" lon="1.61789">
        <ele>256.3</ele>
        <time>2022-08-07T16:21:46Z</time>
      </trkpt>
      <trkpt lat="44.77142" lon="1.61786">
        <ele>256.5</ele>
        <time>2022-08-07T16:21:48Z</time>
      </trkpt>
      <trkpt lat="44.77139" lon="1.61783">
        <ele>256.7</ele>
        <time>2022-08-07T16:21:50Z</time>
      </trkpt>
      <trkpt lat="44.77137" lon="1.6178">
        <ele>256.9</ele>
        <time>2022-08-07T16:21:52Z</time>
      </trkpt>
      <trkpt lat="44.77134" lon="1.61777">
        <ele>257</ele>
        <time>2022-08-07T16:21:54Z</time>
      </trkpt>
      <trkpt lat="44.77132" lon="1.61774">
        <ele>257.3</ele>
        <time>2022-08-07T16:21:56Z</time>
      </trkpt>
      <trkpt lat="44.77129" lon="1.61772">
        <ele>257.5</ele>
        <time>2022-08-07T16:21:58Z</time>
      </trkpt>
      <trkpt lat="44.77127" lon="1.61769">
        <ele>257.7</ele>
        <time>2022-08-07T16:22:00Z</time>
      </trkpt>
      <trkpt lat="44.77125" lon="1.61765">
        <ele>258</ele>
        <time>2022-08-07T16:22:02Z</time>
      </trkpt>
      <trkpt lat="44.77122" lon="1.61763">
        <ele>258.2</ele>
        <time>2022-08-07T16:22:04Z</time>
      </trkpt>
      <trkpt lat="44.77119" lon="1.61761">
        <ele>258.1</ele>
        <time>2022-08-07T16:22:06Z</time>
      </trkpt>
      <trkpt lat="44.77116" lon="1.61758">
        <ele>258.2</ele>
        <time>2022-08-07T16:22:08Z</time>
      </trkpt>
      <trkpt lat="44.77114" lon="1.61755">
        <ele>258.6</ele>
        <time>2022-08-07T16:22:10Z</time>
      </trkpt>
      <trkpt lat="44.77111" lon="1.61752">
        <ele>258.9</ele>
        <time>2022-08-07T16:22:12Z</time>
      </trkpt>
      <trkpt lat="44.77109" lon="1.61749">
        <ele>259.1</ele>
        <time>2022-08-07T16:22:14Z</time>
      </trkpt>
      <trkpt lat="44.77106" lon="1.61747">
        <ele>258.9</ele>
        <time>2022-08-07T16:22:16Z</time>
      </trkpt>
      <trkpt lat="44.77104" lon="1.61743">
        <ele>259.1</ele>
        <time>2022-08-07T16:22:18Z</time>
      </trkpt>
      <trkpt lat="44.77101" lon="1.6174">
        <ele>259.2</ele>
        <time>2022-08-07T16:22:20Z</time>
      </trkpt>
      <trkpt lat="44.77099" lon="1.61737">
        <ele>259.4</ele>
        <time>2022-08-07T16:22:22Z</time>
      </trkpt>
      <trkpt lat="44.77097" lon="1.61734">
        <ele>259.6</ele>
        <time>2022-08-07T16:22:24Z</time>
      </trkpt>
      <trkpt lat="44.77094" lon="1.6173">
        <ele>259.9</ele>
        <time>2022-08-07T16:22:26Z</time>
      </trkpt>
      <trkpt lat="44.77092" lon="1.61726">
        <ele>260.2</ele>
        <time>2022-08-07T16:22:28Z</time>
      </trkpt>
      <trkpt lat="44.77091" lon="1.61723">
        <ele>260.7</ele>
        <time>2022-08-07T16:22:30Z</time>
      </trkpt>
      <trkpt lat="44.77089" lon="1.61719">
        <ele>261.2</ele>
        <time>2022-08-07T16:22:32Z</time>
      </trkpt>
      <trkpt lat="44.77088" lon="1.61714">
        <ele>261.8</ele>
        <time>2022-08-07T16:22:34Z</time>
      </trkpt>
      <trkpt lat="44.77086" lon="1.6171">
        <ele>262.5</ele>
        <time>2022-08-07T16:22:36Z</time>
      </trkpt>
      <trkpt lat="44.77085" lon="1.61706">
        <ele>263.2</ele>
        <time>2022-08-07T16:22:38Z</time>
      </trkpt>
      <trkpt lat="44.77083" lon="1.61702">
        <ele>263.8</ele>
        <time>2022-08-07T16:22:40Z</time>
      </trkpt>
      <trkpt lat="44.77081" lon="1.61698">
        <ele>264.5</ele>
        <time>2022-08-07T16:22:42Z</time>
      </trkpt>
      <trkpt lat="44.7708" lon="1.61695">
        <ele>265.2</ele>
        <time>2022-08-07T16:22:44Z</time>
      </trkpt>
      <trkpt lat="44.77078" lon="1.61692">
        <ele>265.9</ele>
        <time>2022-08-07T16:22:46Z</time>
      </trkpt>
      <trkpt lat="44.77077" lon="1.61688">
        <ele>266.7</ele>
        <time>2022-08-07T16:22:48Z</time>
      </trkpt>
      <trkpt lat="44.77076" lon="1.61684">
        <ele>267.5</ele>
        <time>2022-08-07T16:22:50Z</time>
      </trkpt>
      <trkpt lat="44.77074" lon="1.6168">
        <ele>268.3</ele>
        <time>2022-08-07T16:22:52Z</time>
      </trkpt>
      <trkpt lat="44.77072" lon="1.61676">
        <ele>269</ele>
        <time>2022-08-07T16:22:54Z</time>
      </trkpt>
      <trkpt lat="44.7707" lon="1.61673">
        <ele>269.7</ele>
        <time>2022-08-07T16:22:56Z</time>
      </trkpt>
      <trkpt lat="44.77068" lon="1.6167">
        <ele>270.3</ele>
        <time>2022-08-07T16:22:58Z</time>
      </trkpt>
      <trkpt lat="44.77066" lon="1.61667">
        <ele>270.9</ele>
        <time>2022-08-07T16:23:00Z</time>
      </trkpt>
      <trkpt lat="44.77065" lon="1.61664">
        <ele>271.2</ele>
        <time>2022-08-07T16:23:02Z</time>
      </trkpt>
      <trkpt lat="44.77062" lon="1.61662">
        <ele>271.4</ele>
        <time>2022-08-07T16:23:04Z</time>
      </trkpt>
      <trkpt lat="44.77059" lon="1.6166">
        <ele>271.6</ele>
        <time>2022-08-07T16:23:06Z</time>
      </trkpt>
      <trkpt lat="44.77056" lon="1.61658">
        <ele>271.7</ele>
        <time>2022-08-07T16:23:08Z</time>
      </trkpt>
      <trkpt lat="44.77053" lon="1.61657">
        <ele>271.8</ele>
        <time>2022-08-07T16:23:10Z</time>
      </trkpt>
      <trkpt lat="44.77051" lon="1.61657">
        <ele>271.8</ele>
        <time>2022-08-07T16:23:12Z</time>
      </trkpt>
      <trkpt lat="44.77048" lon="1.61657">
        <ele>271.8</ele>
        <time>2022-08-07T16:23:14Z</time>
      </trkpt>
      <trkpt lat="44.77045" lon="1.61657">
        <ele>271.8</ele>
        <time>2022-08-07T16:23:16Z</time>
      </trkpt>
      <trkpt lat="44.77042" lon="1.61659">
        <ele>271.7</ele>
        <time>2022-08-07T16:23:18Z</time>
      </trkpt>
      <trkpt lat="44.77039" lon="1.6166">
        <ele>271.5</ele>
        <time>2022-08-07T16:23:20Z</time>
      </trkpt>
      <trkpt lat="44.77036" lon="1.6166">
        <ele>271.6</ele>
        <time>2022-08-07T16:23:22Z</time>
      </trkpt>
      <trkpt lat="44.77033" lon="1.61661">
        <ele>271.5</ele>
        <time>2022-08-07T16:23:24Z</time>
      </trkpt>
      <trkpt lat="44.7703" lon="1.61661">
        <ele>271.4</ele>
        <time>2022-08-07T16:23:26Z</time>
      </trkpt>
      <trkpt lat="44.77027" lon="1.61662">
        <ele>271.4</ele>
        <time>2022-08-07T16:23:28Z</time>
      </trkpt>
      <trkpt lat="44.77025" lon="1.61662">
        <ele>271.4</ele>
        <time>2022-08-07T16:23:30Z</time>
      </trkpt>
      <trkpt lat="44.77021" lon="1.61663">
        <ele>271.3</ele>
        <time>2022-08-07T16:23:32Z</time>
      </trkpt>
      <trkpt lat="44.77018" lon="1.61663">
        <ele>271.3</ele>
        <time>2022-08-07T16:23:34Z</time>
      </trkpt>
      <trkpt lat="44.77015" lon="1.61663">
        <ele>271.3</ele>
        <time>2022-08-07T16:23:36Z</time>
      </trkpt>
      <trkpt lat="44.77012" lon="1.61664">
        <ele>271.3</ele>
        <time>2022-08-07T16:23:38Z</time>
      </trkpt>
      <trkpt lat="44.77009" lon="1.61664">
        <ele>271.3</ele>
        <time>2022-08-07T16:23:40Z</time>
      </trkpt>
      <trkpt lat="44.77006" lon="1.61664">
        <ele>271.2</ele>
        <time>2022-08-07T16:23:42Z</time>
      </trkpt>
      <trkpt lat="44.77003" lon="1.61664">
        <ele>271.2</ele>
        <time>2022-08-07T16:23:44Z</time>
      </trkpt>
      <trkpt lat="44.77" lon="1.61664">
        <ele>271.2</ele>
        <time>2022-08-07T16:23:46Z</time>
      </trkpt>
      <trkpt lat="44.76997" lon="1.61664">
        <ele>271.5</ele>
        <time>2022-08-07T16:23:48Z</time>
      </trkpt>
      <trkpt lat="44.76994" lon="1.61664">
        <ele>271.8</ele>
        <time>2022-08-07T16:23:50Z</time>
      </trkpt>
      <trkpt lat="44.76991" lon="1.61663">
        <ele>272.1</ele>
        <time>2022-08-07T16:23:52Z</time>
      </trkpt>
      <trkpt lat="44.76988" lon="1.61663">
        <ele>272.4</ele>
        <time>2022-08-07T16:23:54Z</time>
      </trkpt>
      <trkpt lat="44.76985" lon="1.61663">
        <ele>272.8</ele>
        <time>2022-08-07T16:23:56Z</time>
      </trkpt>
      <trkpt lat="44.76982" lon="1.61663">
        <ele>273.1</ele>
        <time>2022-08-07T16:23:58Z</time>
      </trkpt>
      <trkpt lat="44.76979" lon="1.61662">
        <ele>273.4</ele>
        <time>2022-08-07T16:24:00Z</time>
      </trkpt>
      <trkpt lat="44.76976" lon="1.61662">
        <ele>273.7</ele>
        <time>2022-08-07T16:24:02Z</time>
      </trkpt>
      <trkpt lat="44.76973" lon="1.61661">
        <ele>274</ele>
        <time>2022-08-07T16:24:04Z</time>
      </trkpt>
      <trkpt lat="44.7697" lon="1.6166">
        <ele>274.4</ele>
        <time>2022-08-07T16:24:06Z</time>
      </trkpt>
      <trkpt lat="44.76967" lon="1.61659">
        <ele>274.7</ele>
        <time>2022-08-07T16:24:08Z</time>
      </trkpt>
      <trkpt lat="44.76964" lon="1.61659">
        <ele>275.1</ele>
        <time>2022-08-07T16:24:10Z</time>
      </trkpt>
      <trkpt lat="44.7696" lon="1.61658">
        <ele>275.4</ele>
        <time>2022-08-07T16:24:12Z</time>
      </trkpt>
      <trkpt lat="44.76957" lon="1.61658">
        <ele>275.7</ele>
        <time>2022-08-07T16:24:14Z</time>
      </trkpt>
      <trkpt lat="44.76955" lon="1.61657">
        <ele>276</ele>
        <time>2022-08-07T16:24:16Z</time>
      </trkpt>
      <trkpt lat="44.76952" lon="1.61655">
        <ele>276.4</ele>
        <time>2022-08-07T16:24:18Z</time>
      </trkpt>
      <trkpt lat="44.76949" lon="1.61654">
        <ele>276.8</ele>
        <time>2022-08-07T16:24:20Z</time>
      </trkpt>
      <trkpt lat="44.76946" lon="1.61653">
        <ele>277.1</ele>
        <time>2022-08-07T16:24:22Z</time>
      </trkpt>
      <trkpt lat="44.76942" lon="1.61653">
        <ele>277.5</ele>
        <time>2022-08-07T16:24:24Z</time>
      </trkpt>
      <trkpt lat="44.76939" lon="1.61651">
        <ele>277.9</ele>
        <time>2022-08-07T16:24:26Z</time>
      </trkpt>
      <trkpt lat="44.76936" lon="1.6165">
        <ele>278.2</ele>
        <time>2022-08-07T16:24:28Z</time>
      </trkpt>
      <trkpt lat="44.76933" lon="1.61649">
        <ele>278.6</ele>
        <time>2022-08-07T16:24:30Z</time>
      </trkpt>
      <trkpt lat="44.7693" lon="1.61648">
        <ele>278.9</ele>
        <time>2022-08-07T16:24:32Z</time>
      </trkpt>
      <trkpt lat="44.76927" lon="1.61647">
        <ele>279.2</ele>
        <time>2022-08-07T16:24:34Z</time>
      </trkpt>
      <trkpt lat="44.76925" lon="1.61646">
        <ele>279.5</ele>
        <time>2022-08-07T16:24:36Z</time>
      </trkpt>
      <trkpt lat="44.76921" lon="1.61645">
        <ele>279.9</ele>
        <time>2022-08-07T16:24:38Z</time>
      </trkpt>
      <trkpt lat="44.76919" lon="1.61643">
        <ele>280.2</ele>
        <time>2022-08-07T16:24:40Z</time>
      </trkpt>
      <trkpt lat="44.76916" lon="1.61642">
        <ele>280.5</ele>
        <time>2022-08-07T16:24:42Z</time>
      </trkpt>
      <trkpt lat="44.76913" lon="1.61641">
        <ele>280.7</ele>
        <time>2022-08-07T16:24:44Z</time>
      </trkpt>
      <trkpt lat="44.7691" lon="1.61639">
        <ele>280.9</ele>
        <time>2022-08-07T16:24:46Z</time>
      </trkpt>
      <trkpt lat="44.76907" lon="1.61636">
        <ele>281.1</ele>
        <time>2022-08-07T16:24:48Z</time>
      </trkpt>
      <trkpt lat="44.76904" lon="1.61635">
        <ele>281.3</ele>
        <time>2022-08-07T16:24:50Z</time>
      </trkpt>
      <trkpt lat="44.76901" lon="1.61633">
        <ele>281.5</ele>
        <time>2022-08-07T16:24:52Z</time>
      </trkpt>
      <trkpt lat="44.76899" lon="1.61631">
        <ele>281.7</ele>
        <time>2022-08-07T16:24:54Z</time>
      </trkpt>
      <trkpt lat="44.76896" lon="1.61628">
        <ele>282</ele>
        <time>2022-08-07T16:24:56Z</time>
      </trkpt>
      <trkpt lat="44.76894" lon="1.61625">
        <ele>282.3</ele>
        <time>2022-08-07T16:24:58Z</time>
      </trkpt>
      <trkpt lat="44.76891" lon="1.61622">
        <ele>282.6</ele>
        <time>2022-08-07T16:25:00Z</time>
      </trkpt>
      <trkpt lat="44.76889" lon="1.61619">
        <ele>282.9</ele>
        <time>2022-08-07T16:25:02Z</time>
      </trkpt>
      <trkpt lat="44.76887" lon="1.61616">
        <ele>283.2</ele>
        <time>2022-08-07T16:25:04Z</time>
      </trkpt>
      <trkpt lat="44.76885" lon="1.61612">
        <ele>283.5</ele>
        <time>2022-08-07T16:25:06Z</time>
      </trkpt>
      <trkpt lat="44.76884" lon="1.61608">
        <ele>283.8</ele>
        <time>2022-08-07T16:25:08Z</time>
      </trkpt>
      <trkpt lat="44.76882" lon="1.61605">
        <ele>284.1</ele>
        <time>2022-08-07T16:25:10Z</time>
      </trkpt>
      <trkpt lat="44.7688" lon="1.61601">
        <ele>284.5</ele>
        <time>2022-08-07T16:25:12Z</time>
      </trkpt>
      <trkpt lat="44.76879" lon="1.61597">
        <ele>284.8</ele>
        <time>2022-08-07T16:25:14Z</time>
      </trkpt>
      <trkpt lat="44.76879" lon="1.61593">
        <ele>285.2</ele>
        <time>2022-08-07T16:25:16Z</time>
      </trkpt>
      <trkpt lat="44.76877" lon="1.61589">
        <ele>285.5</ele>
        <time>2022-08-07T16:25:18Z</time>
      </trkpt>
      <trkpt lat="44.76876" lon="1.61584">
        <ele>285.9</ele>
        <time>2022-08-07T16:25:20Z</time>
      </trkpt>
      <trkpt lat="44.76875" lon="1.6158">
        <ele>286.1</ele>
        <time>2022-08-07T16:25:22Z</time>
      </trkpt>
      <trkpt lat="44.76874" lon="1.61576">
        <ele>286.2</ele>
        <time>2022-08-07T16:25:24Z</time>
      </trkpt>
      <trkpt lat="44.76872" lon="1.61571">
        <ele>286.4</ele>
        <time>2022-08-07T16:25:26Z</time>
      </trkpt>
      <trkpt lat="44.76871" lon="1.61567">
        <ele>286.6</ele>
        <time>2022-08-07T16:25:28Z</time>
      </trkpt>
      <trkpt lat="44.7687" lon="1.61563">
        <ele>286.8</ele>
        <time>2022-08-07T16:25:30Z</time>
      </trkpt>
      <trkpt lat="44.76869" lon="1.61558">
        <ele>287</ele>
        <time>2022-08-07T16:25:32Z</time>
      </trkpt>
      <trkpt lat="44.76868" lon="1.61553">
        <ele>287.1</ele>
        <time>2022-08-07T16:25:34Z</time>
      </trkpt>
      <trkpt lat="44.76866" lon="1.61549">
        <ele>287.3</ele>
        <time>2022-08-07T16:25:36Z</time>
      </trkpt>
      <trkpt lat="44.76864" lon="1.61544">
        <ele>287.6</ele>
        <time>2022-08-07T16:25:38Z</time>
      </trkpt>
      <trkpt lat="44.76862" lon="1.61541">
        <ele>287.8</ele>
        <time>2022-08-07T16:25:40Z</time>
      </trkpt>
      <trkpt lat="44.76861" lon="1.61537">
        <ele>288</ele>
        <time>2022-08-07T16:25:42Z</time>
      </trkpt>
      <trkpt lat="44.76858" lon="1.61533">
        <ele>288.3</ele>
        <time>2022-08-07T16:25:44Z</time>
      </trkpt>
      <trkpt lat="44.76856" lon="1.61529">
        <ele>288.5</ele>
        <time>2022-08-07T16:25:46Z</time>
      </trkpt>
      <trkpt lat="44.76855" lon="1.61525">
        <ele>288.7</ele>
        <time>2022-08-07T16:25:48Z</time>
      </trkpt>
      <trkpt lat="44.76852" lon="1.61521">
        <ele>289</ele>
        <time>2022-08-07T16:25:50Z</time>
      </trkpt>
      <trkpt lat="44.7685" lon="1.61517">
        <ele>289.3</ele>
        <time>2022-08-07T16:25:52Z</time>
      </trkpt>
      <trkpt lat="44.76848" lon="1.61514">
        <ele>289.5</ele>
        <time>2022-08-07T16:25:54Z</time>
      </trkpt>
      <trkpt lat="44.76847" lon="1.61514">
        <ele>289.6</ele>
        <time>2022-08-07T16:25:56Z</time>
      </trkpt>
      <trkpt lat="44.76847" lon="1.61514">
        <ele>289.6</ele>
        <time>2022-08-07T16:25:58Z</time>
      </trkpt>
      <trkpt lat="44.76847" lon="1.61515">
        <ele>289.5</ele>
        <time>2022-08-07T16:26:00Z</time>
      </trkpt>
      <trkpt lat="44.76847" lon="1.61515">
        <ele>289.5</ele>
        <time>2022-08-07T16:26:02Z</time>
      </trkpt>
      <trkpt lat="44.76847" lon="1.61515">
        <ele>289.5</ele>
        <time>2022-08-07T16:26:04Z</time>
      </trkpt>
      <trkpt lat="44.76846" lon="1.61514">
        <ele>289.6</ele>
        <time>2022-08-07T16:26:56Z</time>
      </trkpt>
      <trkpt lat="44.76843" lon="1.61512">
        <ele>289.9</ele>
        <time>2022-08-07T16:26:58Z</time>
      </trkpt>
      <trkpt lat="44.7684" lon="1.6151">
        <ele>290.2</ele>
        <time>2022-08-07T16:27:00Z</time>
      </trkpt>
      <trkpt lat="44.76836" lon="1.61509">
        <ele>290.5</ele>
        <time>2022-08-07T16:27:02Z</time>
      </trkpt>
      <trkpt lat="44.76832" lon="1.61508">
        <ele>290.8</ele>
        <time>2022-08-07T16:27:04Z</time>
      </trkpt>
      <trkpt lat="44.76829" lon="1.61506">
        <ele>290.9</ele>
        <time>2022-08-07T16:27:06Z</time>
      </trkpt>
      <trkpt lat="44.76825" lon="1.61505">
        <ele>291.1</ele>
        <time>2022-08-07T16:27:08Z</time>
      </trkpt>
      <trkpt lat="44.76822" lon="1.61505">
        <ele>291.2</ele>
        <time>2022-08-07T16:27:10Z</time>
      </trkpt>
      <trkpt lat="44.76819" lon="1.61504">
        <ele>291.3</ele>
        <time>2022-08-07T16:27:12Z</time>
      </trkpt>
      <trkpt lat="44.76818" lon="1.61502">
        <ele>291.5</ele>
        <time>2022-08-07T16:27:14Z</time>
      </trkpt>
      <trkpt lat="44.76817" lon="1.61502">
        <ele>291.5</ele>
        <time>2022-08-07T16:27:16Z</time>
      </trkpt>
      <trkpt lat="44.76817" lon="1.61502">
        <ele>291.5</ele>
        <time>2022-08-07T16:27:18Z</time>
      </trkpt>
      <trkpt lat="44.76817" lon="1.61502">
        <ele>291.5</ele>
        <time>2022-08-07T16:27:20Z</time>
      </trkpt>
      <trkpt lat="44.76817" lon="1.61502">
        <ele>291.5</ele>
        <time>2022-08-07T16:27:22Z</time>
      </trkpt>
      <trkpt lat="44.76799" lon="1.615">
        <ele>292.2</ele>
        <time>2022-08-07T16:28:54Z</time>
      </trkpt>
      <trkpt lat="44.76795" lon="1.61499">
        <ele>292.4</ele>
        <time>2022-08-07T16:28:56Z</time>
      </trkpt>
      <trkpt lat="44.7679" lon="1.61498">
        <ele>292.5</ele>
        <time>2022-08-07T16:28:58Z</time>
      </trkpt>
      <trkpt lat="44.76786" lon="1.61497">
        <ele>292.7</ele>
        <time>2022-08-07T16:29:00Z</time>
      </trkpt>
      <trkpt lat="44.76781" lon="1.61496">
        <ele>292.8</ele>
        <time>2022-08-07T16:29:02Z</time>
      </trkpt>
      <trkpt lat="44.76776" lon="1.61496">
        <ele>293</ele>
        <time>2022-08-07T16:29:04Z</time>
      </trkpt>
      <trkpt lat="44.76771" lon="1.61495">
        <ele>293.2</ele>
        <time>2022-08-07T16:29:06Z</time>
      </trkpt>
      <trkpt lat="44.76766" lon="1.61495">
        <ele>293.3</ele>
        <time>2022-08-07T16:29:08Z</time>
      </trkpt>
      <trkpt lat="44.76762" lon="1.61494">
        <ele>293.5</ele>
        <time>2022-08-07T16:29:10Z</time>
      </trkpt>
      <trkpt lat="44.76757" lon="1.61494">
        <ele>293.7</ele>
        <time>2022-08-07T16:29:12Z</time>
      </trkpt>
      <trkpt lat="44.76752" lon="1.61493">
        <ele>293.8</ele>
        <time>2022-08-07T16:29:14Z</time>
      </trkpt>
      <trkpt lat="44.76748" lon="1.61493">
        <ele>293.9</ele>
        <time>2022-08-07T16:29:16Z</time>
      </trkpt>
      <trkpt lat="44.76743" lon="1.61492">
        <ele>294</ele>
        <time>2022-08-07T16:29:18Z</time>
      </trkpt>
      <trkpt lat="44.76738" lon="1.61492">
        <ele>294.1</ele>
        <time>2022-08-07T16:29:20Z</time>
      </trkpt>
      <trkpt lat="44.76733" lon="1.61492">
        <ele>294.1</ele>
        <time>2022-08-07T16:29:22Z</time>
      </trkpt>
      <trkpt lat="44.76728" lon="1.61492">
        <ele>294.2</ele>
        <time>2022-08-07T16:29:24Z</time>
      </trkpt>
      <trkpt lat="44.76724" lon="1.61492">
        <ele>294.3</ele>
        <time>2022-08-07T16:29:26Z</time>
      </trkpt>
      <trkpt lat="44.76719" lon="1.61492">
        <ele>294.3</ele>
        <time>2022-08-07T16:29:28Z</time>
      </trkpt>
      <trkpt lat="44.76713" lon="1.61492">
        <ele>294.4</ele>
        <time>2022-08-07T16:29:30Z</time>
      </trkpt>
      <trkpt lat="44.76708" lon="1.61492">
        <ele>294.5</ele>
        <time>2022-08-07T16:29:32Z</time>
      </trkpt>
      <trkpt lat="44.76703" lon="1.61491">
        <ele>294.5</ele>
        <time>2022-08-07T16:29:34Z</time>
      </trkpt>
      <trkpt lat="44.76698" lon="1.6149">
        <ele>294.6</ele>
        <time>2022-08-07T16:29:36Z</time>
      </trkpt>
      <trkpt lat="44.76693" lon="1.6149">
        <ele>294.6</ele>
        <time>2022-08-07T16:29:38Z</time>
      </trkpt>
      <trkpt lat="44.76688" lon="1.6149">
        <ele>294.7</ele>
        <time>2022-08-07T16:29:40Z</time>
      </trkpt>
      <trkpt lat="44.76683" lon="1.61491">
        <ele>294.8</ele>
        <time>2022-08-07T16:29:42Z</time>
      </trkpt>
      <trkpt lat="44.76678" lon="1.61492">
        <ele>294.9</ele>
        <time>2022-08-07T16:29:44Z</time>
      </trkpt>
      <trkpt lat="44.76673" lon="1.61493">
        <ele>294.9</ele>
        <time>2022-08-07T16:29:46Z</time>
      </trkpt>
      <trkpt lat="44.76669" lon="1.61496">
        <ele>295</ele>
        <time>2022-08-07T16:29:48Z</time>
      </trkpt>
      <trkpt lat="44.76664" lon="1.61499">
        <ele>295</ele>
        <time>2022-08-07T16:29:50Z</time>
      </trkpt>
      <trkpt lat="44.7666" lon="1.61502">
        <ele>294.8</ele>
        <time>2022-08-07T16:29:52Z</time>
      </trkpt>
      <trkpt lat="44.76656" lon="1.61506">
        <ele>294.7</ele>
        <time>2022-08-07T16:29:54Z</time>
      </trkpt>
      <trkpt lat="44.76652" lon="1.6151">
        <ele>294.6</ele>
        <time>2022-08-07T16:29:56Z</time>
      </trkpt>
      <trkpt lat="44.76648" lon="1.61516">
        <ele>294.5</ele>
        <time>2022-08-07T16:29:58Z</time>
      </trkpt>
      <trkpt lat="44.76644" lon="1.61521">
        <ele>294.4</ele>
        <time>2022-08-07T16:30:00Z</time>
      </trkpt>
      <trkpt lat="44.76639" lon="1.61526">
        <ele>294.3</ele>
        <time>2022-08-07T16:30:02Z</time>
      </trkpt>
      <trkpt lat="44.76636" lon="1.61532">
        <ele>294.3</ele>
        <time>2022-08-07T16:30:04Z</time>
      </trkpt>
      <trkpt lat="44.76632" lon="1.61538">
        <ele>294.3</ele>
        <time>2022-08-07T16:30:06Z</time>
      </trkpt>
      <trkpt lat="44.76628" lon="1.61544">
        <ele>294.4</ele>
        <time>2022-08-07T16:30:08Z</time>
      </trkpt>
      <trkpt lat="44.76625" lon="1.6155">
        <ele>294.5</ele>
        <time>2022-08-07T16:30:10Z</time>
      </trkpt>
      <trkpt lat="44.76621" lon="1.61555">
        <ele>294.6</ele>
        <time>2022-08-07T16:30:12Z</time>
      </trkpt>
      <trkpt lat="44.76617" lon="1.61561">
        <ele>294.8</ele>
        <time>2022-08-07T16:30:14Z</time>
      </trkpt>
      <trkpt lat="44.76614" lon="1.61566">
        <ele>295</ele>
        <time>2022-08-07T16:30:16Z</time>
      </trkpt>
      <trkpt lat="44.76609" lon="1.61572">
        <ele>295.3</ele>
        <time>2022-08-07T16:30:18Z</time>
      </trkpt>
      <trkpt lat="44.76606" lon="1.61577">
        <ele>295.5</ele>
        <time>2022-08-07T16:30:20Z</time>
      </trkpt>
      <trkpt lat="44.76603" lon="1.6158">
        <ele>295.8</ele>
        <time>2022-08-07T16:30:22Z</time>
      </trkpt>
      <trkpt lat="44.766" lon="1.61585">
        <ele>296</ele>
        <time>2022-08-07T16:30:24Z</time>
      </trkpt>
      <trkpt lat="44.76596" lon="1.61588">
        <ele>296</ele>
        <time>2022-08-07T16:30:26Z</time>
      </trkpt>
      <trkpt lat="44.76592" lon="1.61592">
        <ele>296.2</ele>
        <time>2022-08-07T16:30:28Z</time>
      </trkpt>
      <trkpt lat="44.76587" lon="1.61595">
        <ele>296.5</ele>
        <time>2022-08-07T16:30:30Z</time>
      </trkpt>
      <trkpt lat="44.76582" lon="1.61597">
        <ele>296.7</ele>
        <time>2022-08-07T16:30:32Z</time>
      </trkpt>
      <trkpt lat="44.76577" lon="1.61599">
        <ele>296.7</ele>
        <time>2022-08-07T16:30:34Z</time>
      </trkpt>
      <trkpt lat="44.76572" lon="1.61602">
        <ele>296.8</ele>
        <time>2022-08-07T16:30:36Z</time>
      </trkpt>
      <trkpt lat="44.76568" lon="1.61604">
        <ele>296.8</ele>
        <time>2022-08-07T16:30:38Z</time>
      </trkpt>
      <trkpt lat="44.76563" lon="1.61606">
        <ele>296.8</ele>
        <time>2022-08-07T16:30:40Z</time>
      </trkpt>
      <trkpt lat="44.76558" lon="1.61609">
        <ele>296.9</ele>
        <time>2022-08-07T16:30:42Z</time>
      </trkpt>
      <trkpt lat="44.76553" lon="1.61611">
        <ele>296.9</ele>
        <time>2022-08-07T16:30:44Z</time>
      </trkpt>
      <trkpt lat="44.76548" lon="1.61612">
        <ele>297</ele>
        <time>2022-08-07T16:30:46Z</time>
      </trkpt>
      <trkpt lat="44.76543" lon="1.61613">
        <ele>297.1</ele>
        <time>2022-08-07T16:30:48Z</time>
      </trkpt>
      <trkpt lat="44.76537" lon="1.61612">
        <ele>297.2</ele>
        <time>2022-08-07T16:30:50Z</time>
      </trkpt>
      <trkpt lat="44.76533" lon="1.61612">
        <ele>297.3</ele>
        <time>2022-08-07T16:30:52Z</time>
      </trkpt>
      <trkpt lat="44.76528" lon="1.61612">
        <ele>297.4</ele>
        <time>2022-08-07T16:30:54Z</time>
      </trkpt>
      <trkpt lat="44.76524" lon="1.6161">
        <ele>297.5</ele>
        <time>2022-08-07T16:30:56Z</time>
      </trkpt>
      <trkpt lat="44.7652" lon="1.61606">
        <ele>297.6</ele>
        <time>2022-08-07T16:30:58Z</time>
      </trkpt>
      <trkpt lat="44.76517" lon="1.61601">
        <ele>297.7</ele>
        <time>2022-08-07T16:31:00Z</time>
      </trkpt>
      <trkpt lat="44.76514" lon="1.61596">
        <ele>297.8</ele>
        <time>2022-08-07T16:31:02Z</time>
      </trkpt>
      <trkpt lat="44.7651" lon="1.61593">
        <ele>297.9</ele>
        <time>2022-08-07T16:31:04Z</time>
      </trkpt>
      <trkpt lat="44.76505" lon="1.61592">
        <ele>297.9</ele>
        <time>2022-08-07T16:31:06Z</time>
      </trkpt>
      <trkpt lat="44.765" lon="1.61592">
        <ele>298</ele>
        <time>2022-08-07T16:31:08Z</time>
      </trkpt>
      <trkpt lat="44.76496" lon="1.61593">
        <ele>297.9</ele>
        <time>2022-08-07T16:31:10Z</time>
      </trkpt>
      <trkpt lat="44.76491" lon="1.61591">
        <ele>297.7</ele>
        <time>2022-08-07T16:31:12Z</time>
      </trkpt>
      <trkpt lat="44.76487" lon="1.61586">
        <ele>297.5</ele>
        <time>2022-08-07T16:31:14Z</time>
      </trkpt>
      <trkpt lat="44.76484" lon="1.61579">
        <ele>297.2</ele>
        <time>2022-08-07T16:31:16Z</time>
      </trkpt>
      <trkpt lat="44.76483" lon="1.61571">
        <ele>296.9</ele>
        <time>2022-08-07T16:31:18Z</time>
      </trkpt>
      <trkpt lat="44.76481" lon="1.61563">
        <ele>296.5</ele>
        <time>2022-08-07T16:31:20Z</time>
      </trkpt>
      <trkpt lat="44.76478" lon="1.61563">
        <ele>296.4</ele>
        <time>2022-08-07T16:31:22Z</time>
      </trkpt>
      <trkpt lat="44.76476" lon="1.61564">
        <ele>296.4</ele>
        <time>2022-08-07T16:31:24Z</time>
      </trkpt>
      <trkpt lat="44.76475" lon="1.61564">
        <ele>296.4</ele>
        <time>2022-08-07T16:31:26Z</time>
      </trkpt>
      <trkpt lat="44.76475" lon="1.61564">
        <ele>296.4</ele>
        <time>2022-08-07T16:31:28Z</time>
      </trkpt>
      <trkpt lat="44.76474" lon="1.61564">
        <ele>296.4</ele>
        <time>2022-08-07T16:31:30Z</time>
      </trkpt>
      <trkpt lat="44.76474" lon="1.61564">
        <ele>296.4</ele>
        <time>2022-08-07T16:31:32Z</time>
      </trkpt>
      <trkpt lat="44.7649" lon="1.6156">
        <ele>296.6</ele>
        <time>2022-08-07T16:47:02Z</time>
      </trkpt>
      <trkpt lat="44.76494" lon="1.61561">
        <ele>296.8</ele>
        <time>2022-08-07T16:47:04Z</time>
      </trkpt>
      <trkpt lat="44.76497" lon="1.61562">
        <ele>296.9</ele>
        <time>2022-08-07T16:47:06Z</time>
      </trkpt>
      <trkpt lat="44.76499" lon="1.61564">
        <ele>297</ele>
        <time>2022-08-07T16:47:08Z</time>
      </trkpt>
      <trkpt lat="44.76502" lon="1.61568">
        <ele>297.2</ele>
        <time>2022-08-07T16:47:10Z</time>
      </trkpt>
      <trkpt lat="44.76506" lon="1.61573">
        <ele>297.4</ele>
        <time>2022-08-07T16:47:12Z</time>
      </trkpt>
      <trkpt lat="44.76508" lon="1.61577">
        <ele>297.6</ele>
        <time>2022-08-07T16:47:14Z</time>
      </trkpt>
      <trkpt lat="44.7651" lon="1.61583">
        <ele>297.9</ele>
        <time>2022-08-07T16:47:16Z</time>
      </trkpt>
      <trkpt lat="44.76512" lon="1.61589">
        <ele>297.8</ele>
        <time>2022-08-07T16:47:18Z</time>
      </trkpt>
      <trkpt lat="44.76514" lon="1.61594">
        <ele>297.8</ele>
        <time>2022-08-07T16:47:20Z</time>
      </trkpt>
      <trkpt lat="44.76517" lon="1.61597">
        <ele>297.7</ele>
        <time>2022-08-07T16:47:22Z</time>
      </trkpt>
      <trkpt lat="44.7652" lon="1.61602">
        <ele>297.7</ele>
        <time>2022-08-07T16:47:24Z</time>
      </trkpt>
      <trkpt lat="44.76523" lon="1.61605">
        <ele>297.6</ele>
        <time>2022-08-07T16:47:26Z</time>
      </trkpt>
      <trkpt lat="44.76527" lon="1.61608">
        <ele>297.5</ele>
        <time>2022-08-07T16:47:28Z</time>
      </trkpt>
      <trkpt lat="44.76532" lon="1.6161">
        <ele>297.4</ele>
        <time>2022-08-07T16:47:30Z</time>
      </trkpt>
      <trkpt lat="44.76538" lon="1.6161">
        <ele>297.3</ele>
        <time>2022-08-07T16:47:32Z</time>
      </trkpt>
      <trkpt lat="44.76544" lon="1.6161">
        <ele>297.1</ele>
        <time>2022-08-07T16:47:34Z</time>
      </trkpt>
      <trkpt lat="44.7655" lon="1.61607">
        <ele>297.1</ele>
        <time>2022-08-07T16:47:36Z</time>
      </trkpt>
      <trkpt lat="44.76557" lon="1.61606">
        <ele>297</ele>
        <time>2022-08-07T16:47:38Z</time>
      </trkpt>
      <trkpt lat="44.76563" lon="1.61602">
        <ele>296.9</ele>
        <time>2022-08-07T16:47:40Z</time>
      </trkpt>
      <trkpt lat="44.76568" lon="1.61597">
        <ele>296.9</ele>
        <time>2022-08-07T16:47:42Z</time>
      </trkpt>
      <trkpt lat="44.76574" lon="1.61594">
        <ele>296.9</ele>
        <time>2022-08-07T16:47:44Z</time>
      </trkpt>
      <trkpt lat="44.76581" lon="1.61592">
        <ele>296.8</ele>
        <time>2022-08-07T16:47:46Z</time>
      </trkpt>
      <trkpt lat="44.76588" lon="1.61589">
        <ele>296.6</ele>
        <time>2022-08-07T16:47:48Z</time>
      </trkpt>
      <trkpt lat="44.76593" lon="1.61585">
        <ele>296.4</ele>
        <time>2022-08-07T16:47:50Z</time>
      </trkpt>
      <trkpt lat="44.76596" lon="1.61578">
        <ele>296.1</ele>
        <time>2022-08-07T16:47:52Z</time>
      </trkpt>
      <trkpt lat="44.76596" lon="1.61568">
        <ele>295.9</ele>
        <time>2022-08-07T16:47:54Z</time>
      </trkpt>
      <trkpt lat="44.76594" lon="1.6156">
        <ele>295.7</ele>
        <time>2022-08-07T16:47:56Z</time>
      </trkpt>
      <trkpt lat="44.76593" lon="1.61552">
        <ele>295.5</ele>
        <time>2022-08-07T16:47:58Z</time>
      </trkpt>
      <trkpt lat="44.76592" lon="1.61545">
        <ele>295.4</ele>
        <time>2022-08-07T16:48:00Z</time>
      </trkpt>
      <trkpt lat="44.7659" lon="1.61537">
        <ele>295.2</ele>
        <time>2022-08-07T16:48:02Z</time>
      </trkpt>
      <trkpt lat="44.76588" lon="1.61529">
        <ele>295</ele>
        <time>2022-08-07T16:48:04Z</time>
      </trkpt>
      <trkpt lat="44.76587" lon="1.61523">
        <ele>294.8</ele>
        <time>2022-08-07T16:48:06Z</time>
      </trkpt>
      <trkpt lat="44.76584" lon="1.61514">
        <ele>294.5</ele>
        <time>2022-08-07T16:48:08Z</time>
      </trkpt>
      <trkpt lat="44.76582" lon="1.61506">
        <ele>294.2</ele>
        <time>2022-08-07T16:48:10Z</time>
      </trkpt>
      <trkpt lat="44.76579" lon="1.61497">
        <ele>293.9</ele>
        <time>2022-08-07T16:48:12Z</time>
      </trkpt>
      <trkpt lat="44.76577" lon="1.61487">
        <ele>293.7</ele>
        <time>2022-08-07T16:48:14Z</time>
      </trkpt>
      <trkpt lat="44.76575" lon="1.61477">
        <ele>293.5</ele>
        <time>2022-08-07T16:48:16Z</time>
      </trkpt>
      <trkpt lat="44.76572" lon="1.61466">
        <ele>293.2</ele>
        <time>2022-08-07T16:48:18Z</time>
      </trkpt>
      <trkpt lat="44.7657" lon="1.61454">
        <ele>292.9</ele>
        <time>2022-08-07T16:48:20Z</time>
      </trkpt>
      <trkpt lat="44.76566" lon="1.61442">
        <ele>292.6</ele>
        <time>2022-08-07T16:48:22Z</time>
      </trkpt>
      <trkpt lat="44.76563" lon="1.61428">
        <ele>292.3</ele>
        <time>2022-08-07T16:48:24Z</time>
      </trkpt>
      <trkpt lat="44.76559" lon="1.61413">
        <ele>291.9</ele>
        <time>2022-08-07T16:48:26Z</time>
      </trkpt>
      <trkpt lat="44.76556" lon="1.61398">
        <ele>291.5</ele>
        <time>2022-08-07T16:48:28Z</time>
      </trkpt>
      <trkpt lat="44.76552" lon="1.61383">
        <ele>291.2</ele>
        <time>2022-08-07T16:48:30Z</time>
      </trkpt>
      <trkpt lat="44.76547" lon="1.61368">
        <ele>290.8</ele>
        <time>2022-08-07T16:48:32Z</time>
      </trkpt>
      <trkpt lat="44.76543" lon="1.61351">
        <ele>290.4</ele>
        <time>2022-08-07T16:48:34Z</time>
      </trkpt>
      <trkpt lat="44.7654" lon="1.61335">
        <ele>290</ele>
        <time>2022-08-07T16:48:36Z</time>
      </trkpt>
      <trkpt lat="44.76535" lon="1.61318">
        <ele>289.9</ele>
        <time>2022-08-07T16:48:38Z</time>
      </trkpt>
      <trkpt lat="44.76531" lon="1.61301">
        <ele>289.9</ele>
        <time>2022-08-07T16:48:40Z</time>
      </trkpt>
      <trkpt lat="44.76527" lon="1.61284">
        <ele>289.8</ele>
        <time>2022-08-07T16:48:42Z</time>
      </trkpt>
      <trkpt lat="44.76522" lon="1.61266">
        <ele>289.8</ele>
        <time>2022-08-07T16:48:44Z</time>
      </trkpt>
      <trkpt lat="44.76518" lon="1.61249">
        <ele>289.8</ele>
        <time>2022-08-07T16:48:46Z</time>
      </trkpt>
      <trkpt lat="44.76513" lon="1.61233">
        <ele>289.7</ele>
        <time>2022-08-07T16:48:48Z</time>
      </trkpt>
      <trkpt lat="44.76509" lon="1.61217">
        <ele>289.5</ele>
        <time>2022-08-07T16:48:50Z</time>
      </trkpt>
      <trkpt lat="44.76505" lon="1.61201">
        <ele>289.4</ele>
        <time>2022-08-07T16:48:52Z</time>
      </trkpt>
      <trkpt lat="44.76501" lon="1.61187">
        <ele>289.2</ele>
        <time>2022-08-07T16:48:54Z</time>
      </trkpt>
      <trkpt lat="44.76498" lon="1.61173">
        <ele>289.1</ele>
        <time>2022-08-07T16:48:56Z</time>
      </trkpt>
      <trkpt lat="44.76495" lon="1.61159">
        <ele>289.1</ele>
        <time>2022-08-07T16:48:58Z</time>
      </trkpt>
      <trkpt lat="44.76492" lon="1.61146">
        <ele>289</ele>
        <time>2022-08-07T16:49:00Z</time>
      </trkpt>
      <trkpt lat="44.76489" lon="1.61133">
        <ele>289</ele>
        <time>2022-08-07T16:49:02Z</time>
      </trkpt>
      <trkpt lat="44.76487" lon="1.6112">
        <ele>288.9</ele>
        <time>2022-08-07T16:49:04Z</time>
      </trkpt>
      <trkpt lat="44.76486" lon="1.61106">
        <ele>288.9</ele>
        <time>2022-08-07T16:49:06Z</time>
      </trkpt>
      <trkpt lat="44.76485" lon="1.61092">
        <ele>288.8</ele>
        <time>2022-08-07T16:49:08Z</time>
      </trkpt>
      <trkpt lat="44.76485" lon="1.61077">
        <ele>288.5</ele>
        <time>2022-08-07T16:49:10Z</time>
      </trkpt>
      <trkpt lat="44.76484" lon="1.61063">
        <ele>288</ele>
        <time>2022-08-07T16:49:12Z</time>
      </trkpt>
      <trkpt lat="44.76483" lon="1.61049">
        <ele>287.5</ele>
        <time>2022-08-07T16:49:14Z</time>
      </trkpt>
      <trkpt lat="44.76482" lon="1.61034">
        <ele>287</ele>
        <time>2022-08-07T16:49:16Z</time>
      </trkpt>
      <trkpt lat="44.76481" lon="1.61021">
        <ele>286.5</ele>
        <time>2022-08-07T16:49:18Z</time>
      </trkpt>
      <trkpt lat="44.76485" lon="1.61012">
        <ele>286</ele>
        <time>2022-08-07T16:49:20Z</time>
      </trkpt>
      <trkpt lat="44.76492" lon="1.61011">
        <ele>285.7</ele>
        <time>2022-08-07T16:49:22Z</time>
      </trkpt>
      <trkpt lat="44.76498" lon="1.61014">
        <ele>285.6</ele>
        <time>2022-08-07T16:49:24Z</time>
      </trkpt>
      <trkpt lat="44.76505" lon="1.61015">
        <ele>285.4</ele>
        <time>2022-08-07T16:49:26Z</time>
      </trkpt>
      <trkpt lat="44.76512" lon="1.61017">
        <ele>285.3</ele>
        <time>2022-08-07T16:49:28Z</time>
      </trkpt>
      <trkpt lat="44.76518" lon="1.61018">
        <ele>285.2</ele>
        <time>2022-08-07T16:49:30Z</time>
      </trkpt>
      <trkpt lat="44.76525" lon="1.6102">
        <ele>285.1</ele>
        <time>2022-08-07T16:49:32Z</time>
      </trkpt>
      <trkpt lat="44.76531" lon="1.61021">
        <ele>285</ele>
        <time>2022-08-07T16:49:34Z</time>
      </trkpt>
      <trkpt lat="44.76537" lon="1.61022">
        <ele>284.9</ele>
        <time>2022-08-07T16:49:36Z</time>
      </trkpt>
      <trkpt lat="44.76542" lon="1.61023">
        <ele>284.8</ele>
        <time>2022-08-07T16:49:38Z</time>
      </trkpt>
      <trkpt lat="44.76546" lon="1.61022">
        <ele>284.7</ele>
        <time>2022-08-07T16:49:40Z</time>
      </trkpt>
      <trkpt lat="44.76548" lon="1.61017">
        <ele>284.5</ele>
        <time>2022-08-07T16:49:42Z</time>
      </trkpt>
      <trkpt lat="44.76548" lon="1.61009">
        <ele>284.2</ele>
        <time>2022-08-07T16:49:44Z</time>
      </trkpt>
      <trkpt lat="44.76548" lon="1.61">
        <ele>283.9</ele>
        <time>2022-08-07T16:49:46Z</time>
      </trkpt>
      <trkpt lat="44.7655" lon="1.60994">
        <ele>283.5</ele>
        <time>2022-08-07T16:49:48Z</time>
      </trkpt>
      <trkpt lat="44.7655" lon="1.60983">
        <ele>282.9</ele>
        <time>2022-08-07T16:49:50Z</time>
      </trkpt>
      <trkpt lat="44.76551" lon="1.60972">
        <ele>282.4</ele>
        <time>2022-08-07T16:49:52Z</time>
      </trkpt>
      <trkpt lat="44.76553" lon="1.60962">
        <ele>281.8</ele>
        <time>2022-08-07T16:49:54Z</time>
      </trkpt>
      <trkpt lat="44.76556" lon="1.60951">
        <ele>281.3</ele>
        <time>2022-08-07T16:49:56Z</time>
      </trkpt>
      <trkpt lat="44.76558" lon="1.60943">
        <ele>280.9</ele>
        <time>2022-08-07T16:49:58Z</time>
      </trkpt>
      <trkpt lat="44.7656" lon="1.60934">
        <ele>280.5</ele>
        <time>2022-08-07T16:50:00Z</time>
      </trkpt>
      <trkpt lat="44.76562" lon="1.60924">
        <ele>280.1</ele>
        <time>2022-08-07T16:50:02Z</time>
      </trkpt>
      <trkpt lat="44.76564" lon="1.60913">
        <ele>279.6</ele>
        <time>2022-08-07T16:50:04Z</time>
      </trkpt>
      <trkpt lat="44.76566" lon="1.60902">
        <ele>279.2</ele>
        <time>2022-08-07T16:50:06Z</time>
      </trkpt>
      <trkpt lat="44.76568" lon="1.60892">
        <ele>278.7</ele>
        <time>2022-08-07T16:50:08Z</time>
      </trkpt>
      <trkpt lat="44.7657" lon="1.60881">
        <ele>278.3</ele>
        <time>2022-08-07T16:50:10Z</time>
      </trkpt>
      <trkpt lat="44.76571" lon="1.6087">
        <ele>277.8</ele>
        <time>2022-08-07T16:50:12Z</time>
      </trkpt>
      <trkpt lat="44.76574" lon="1.60859">
        <ele>277.3</ele>
        <time>2022-08-07T16:50:14Z</time>
      </trkpt>
      <trkpt lat="44.76577" lon="1.60847">
        <ele>276.7</ele>
        <time>2022-08-07T16:50:16Z</time>
      </trkpt>
      <trkpt lat="44.76579" lon="1.60836">
        <ele>276.2</ele>
        <time>2022-08-07T16:50:18Z</time>
      </trkpt>
      <trkpt lat="44.76582" lon="1.60824">
        <ele>275.7</ele>
        <time>2022-08-07T16:50:20Z</time>
      </trkpt>
      <trkpt lat="44.76584" lon="1.60812">
        <ele>275.2</ele>
        <time>2022-08-07T16:50:22Z</time>
      </trkpt>
      <trkpt lat="44.76586" lon="1.60802">
        <ele>274.7</ele>
        <time>2022-08-07T16:50:24Z</time>
      </trkpt>
      <trkpt lat="44.76588" lon="1.6079">
        <ele>274</ele>
        <time>2022-08-07T16:50:26Z</time>
      </trkpt>
      <trkpt lat="44.76591" lon="1.60779">
        <ele>273.4</ele>
        <time>2022-08-07T16:50:28Z</time>
      </trkpt>
      <trkpt lat="44.76593" lon="1.60767">
        <ele>272.7</ele>
        <time>2022-08-07T16:50:30Z</time>
      </trkpt>
      <trkpt lat="44.76595" lon="1.60756">
        <ele>272</ele>
        <time>2022-08-07T16:50:32Z</time>
      </trkpt>
      <trkpt lat="44.76597" lon="1.60746">
        <ele>271.5</ele>
        <time>2022-08-07T16:50:34Z</time>
      </trkpt>
      <trkpt lat="44.76597" lon="1.60735">
        <ele>271.5</ele>
        <time>2022-08-07T16:50:36Z</time>
      </trkpt>
      <trkpt lat="44.76594" lon="1.60725">
        <ele>271.7</ele>
        <time>2022-08-07T16:50:38Z</time>
      </trkpt>
      <trkpt lat="44.76591" lon="1.60717">
        <ele>272</ele>
        <time>2022-08-07T16:50:40Z</time>
      </trkpt>
      <trkpt lat="44.76587" lon="1.60708">
        <ele>272.2</ele>
        <time>2022-08-07T16:50:42Z</time>
      </trkpt>
      <trkpt lat="44.76585" lon="1.60697">
        <ele>272.3</ele>
        <time>2022-08-07T16:50:44Z</time>
      </trkpt>
      <trkpt lat="44.76584" lon="1.60688">
        <ele>272.2</ele>
        <time>2022-08-07T16:50:46Z</time>
      </trkpt>
      <trkpt lat="44.76584" lon="1.60678">
        <ele>272.1</ele>
        <time>2022-08-07T16:50:48Z</time>
      </trkpt>
      <trkpt lat="44.76585" lon="1.6067">
        <ele>271.9</ele>
        <time>2022-08-07T16:50:50Z</time>
      </trkpt>
      <trkpt lat="44.76586" lon="1.60663">
        <ele>272</ele>
        <time>2022-08-07T16:50:52Z</time>
      </trkpt>
      <trkpt lat="44.76587" lon="1.60663">
        <ele>272</ele>
        <time>2022-08-07T16:50:54Z</time>
      </trkpt>
      <trkpt lat="44.76586" lon="1.60663">
        <ele>272</ele>
        <time>2022-08-07T16:50:56Z</time>
      </trkpt>
      <trkpt lat="44.76586" lon="1.60662">
        <ele>272.1</ele>
        <time>2022-08-07T16:51:00Z</time>
      </trkpt>
      <trkpt lat="44.7659" lon="1.60649">
        <ele>272.6</ele>
        <time>2022-08-07T16:51:42Z</time>
      </trkpt>
      <trkpt lat="44.76593" lon="1.60647">
        <ele>272.6</ele>
        <time>2022-08-07T16:51:44Z</time>
      </trkpt>
      <trkpt lat="44.76594" lon="1.60644">
        <ele>272.7</ele>
        <time>2022-08-07T16:51:46Z</time>
      </trkpt>
      <trkpt lat="44.76596" lon="1.60643">
        <ele>272.7</ele>
        <time>2022-08-07T16:51:48Z</time>
      </trkpt>
      <trkpt lat="44.766" lon="1.60641">
        <ele>272.6</ele>
        <time>2022-08-07T16:51:50Z</time>
      </trkpt>
      <trkpt lat="44.76603" lon="1.6064">
        <ele>272.6</ele>
        <time>2022-08-07T16:51:52Z</time>
      </trkpt>
      <trkpt lat="44.76605" lon="1.6064">
        <ele>272.5</ele>
        <time>2022-08-07T16:51:54Z</time>
      </trkpt>
      <trkpt lat="44.76608" lon="1.60638">
        <ele>272.5</ele>
        <time>2022-08-07T16:51:56Z</time>
      </trkpt>
      <trkpt lat="44.76611" lon="1.60638">
        <ele>272.4</ele>
        <time>2022-08-07T16:51:58Z</time>
      </trkpt>
      <trkpt lat="44.76613" lon="1.60639">
        <ele>272.3</ele>
        <time>2022-08-07T16:52:00Z</time>
      </trkpt>
      <trkpt lat="44.76616" lon="1.60638">
        <ele>272.2</ele>
        <time>2022-08-07T16:52:02Z</time>
      </trkpt>
      <trkpt lat="44.76619" lon="1.60636">
        <ele>272.2</ele>
        <time>2022-08-07T16:52:04Z</time>
      </trkpt>
      <trkpt lat="44.76622" lon="1.60636">
        <ele>272.2</ele>
        <time>2022-08-07T16:52:06Z</time>
      </trkpt>
      <trkpt lat="44.76625" lon="1.60635">
        <ele>272.1</ele>
        <time>2022-08-07T16:52:08Z</time>
      </trkpt>
      <trkpt lat="44.76628" lon="1.60634">
        <ele>272</ele>
        <time>2022-08-07T16:52:10Z</time>
      </trkpt>
      <trkpt lat="44.76631" lon="1.60632">
        <ele>272.1</ele>
        <time>2022-08-07T16:52:12Z</time>
      </trkpt>
      <trkpt lat="44.76633" lon="1.60631">
        <ele>272.1</ele>
        <time>2022-08-07T16:52:14Z</time>
      </trkpt>
      <trkpt lat="44.76632" lon="1.60631">
        <ele>272.1</ele>
        <time>2022-08-07T16:52:16Z</time>
      </trkpt>
      <trkpt lat="44.76633" lon="1.60631">
        <ele>272.1</ele>
        <time>2022-08-07T16:52:18Z</time>
      </trkpt>
      <trkpt lat="44.76635" lon="1.6063">
        <ele>272.1</ele>
        <time>2022-08-07T16:52:20Z</time>
      </trkpt>
      <trkpt lat="44.76637" lon="1.6063">
        <ele>272.1</ele>
        <time>2022-08-07T16:52:22Z</time>
      </trkpt>
      <trkpt lat="44.76623" lon="1.60589">
        <ele>275.1</ele>
        <time>2022-08-07T16:55:42Z</time>
      </trkpt>
      <trkpt lat="44.76622" lon="1.60584">
        <ele>275.5</ele>
        <time>2022-08-07T16:55:44Z</time>
      </trkpt>
      <trkpt lat="44.76621" lon="1.6058">
        <ele>275.7</ele>
        <time>2022-08-07T16:55:46Z</time>
      </trkpt>
      <trkpt lat="44.76618" lon="1.60574">
        <ele>276</ele>
        <time>2022-08-07T16:55:48Z</time>
      </trkpt>
      <trkpt lat="44.76617" lon="1.60569">
        <ele>276.2</ele>
        <time>2022-08-07T16:55:50Z</time>
      </trkpt>
      <trkpt lat="44.76615" lon="1.60564">
        <ele>276.5</ele>
        <time>2022-08-07T16:55:52Z</time>
      </trkpt>
      <trkpt lat="44.76613" lon="1.60558">
        <ele>276.8</ele>
        <time>2022-08-07T16:55:54Z</time>
      </trkpt>
      <trkpt lat="44.76611" lon="1.60552">
        <ele>277</ele>
        <time>2022-08-07T16:55:56Z</time>
      </trkpt>
      <trkpt lat="44.76609" lon="1.60548">
        <ele>277.2</ele>
        <time>2022-08-07T16:55:58Z</time>
      </trkpt>
      <trkpt lat="44.76608" lon="1.60544">
        <ele>277.5</ele>
        <time>2022-08-07T16:56:00Z</time>
      </trkpt>
      <trkpt lat="44.76607" lon="1.60539">
        <ele>277.7</ele>
        <time>2022-08-07T16:56:02Z</time>
      </trkpt>
      <trkpt lat="44.76605" lon="1.60534">
        <ele>277.9</ele>
        <time>2022-08-07T16:56:04Z</time>
      </trkpt>
      <trkpt lat="44.76604" lon="1.60529">
        <ele>278.2</ele>
        <time>2022-08-07T16:56:06Z</time>
      </trkpt>
      <trkpt lat="44.76602" lon="1.60524">
        <ele>278.5</ele>
        <time>2022-08-07T16:56:08Z</time>
      </trkpt>
      <trkpt lat="44.76601" lon="1.60518">
        <ele>278.7</ele>
        <time>2022-08-07T16:56:10Z</time>
      </trkpt>
      <trkpt lat="44.76599" lon="1.60514">
        <ele>279</ele>
        <time>2022-08-07T16:56:12Z</time>
      </trkpt>
      <trkpt lat="44.76598" lon="1.60508">
        <ele>279.3</ele>
        <time>2022-08-07T16:56:14Z</time>
      </trkpt>
      <trkpt lat="44.76596" lon="1.60502">
        <ele>279.6</ele>
        <time>2022-08-07T16:56:16Z</time>
      </trkpt>
      <trkpt lat="44.76595" lon="1.60496">
        <ele>279.7</ele>
        <time>2022-08-07T16:56:18Z</time>
      </trkpt>
      <trkpt lat="44.76592" lon="1.6049">
        <ele>279.8</ele>
        <time>2022-08-07T16:56:20Z</time>
      </trkpt>
      <trkpt lat="44.7659" lon="1.60483">
        <ele>279.8</ele>
        <time>2022-08-07T16:56:22Z</time>
      </trkpt>
      <trkpt lat="44.76588" lon="1.60478">
        <ele>279.9</ele>
        <time>2022-08-07T16:56:24Z</time>
      </trkpt>
      <trkpt lat="44.76586" lon="1.60473">
        <ele>279.9</ele>
        <time>2022-08-07T16:56:26Z</time>
      </trkpt>
      <trkpt lat="44.76585" lon="1.6047">
        <ele>280</ele>
        <time>2022-08-07T16:56:28Z</time>
      </trkpt>
      <trkpt lat="44.76584" lon="1.60467">
        <ele>280</ele>
        <time>2022-08-07T16:56:30Z</time>
      </trkpt>
      <trkpt lat="44.76584" lon="1.60467">
        <ele>280</ele>
        <time>2022-08-07T16:56:32Z</time>
      </trkpt>
      <trkpt lat="44.76584" lon="1.60467">
        <ele>280</ele>
        <time>2022-08-07T16:56:34Z</time>
      </trkpt>
      <trkpt lat="44.76584" lon="1.60467">
        <ele>280</ele>
        <time>2022-08-07T16:56:36Z</time>
      </trkpt>
      <trkpt lat="44.76584" lon="1.60467">
        <ele>280</ele>
        <time>2022-08-07T16:56:38Z</time>
      </trkpt>
      <trkpt lat="44.76582" lon="1.60463">
        <ele>280</ele>
        <time>2022-08-07T16:56:40Z</time>
      </trkpt>
      <trkpt lat="44.76581" lon="1.6046">
        <ele>280</ele>
        <time>2022-08-07T16:56:42Z</time>
      </trkpt>
      <trkpt lat="44.76579" lon="1.60455">
        <ele>279.9</ele>
        <time>2022-08-07T16:56:44Z</time>
      </trkpt>
      <trkpt lat="44.76578" lon="1.60451">
        <ele>279.9</ele>
        <time>2022-08-07T16:56:46Z</time>
      </trkpt>
      <trkpt lat="44.76577" lon="1.60446">
        <ele>279.8</ele>
        <time>2022-08-07T16:56:48Z</time>
      </trkpt>
      <trkpt lat="44.76575" lon="1.60441">
        <ele>279.8</ele>
        <time>2022-08-07T16:56:50Z</time>
      </trkpt>
      <trkpt lat="44.76573" lon="1.60437">
        <ele>279.8</ele>
        <time>2022-08-07T16:56:52Z</time>
      </trkpt>
      <trkpt lat="44.76572" lon="1.60432">
        <ele>279.7</ele>
        <time>2022-08-07T16:56:54Z</time>
      </trkpt>
      <trkpt lat="44.76571" lon="1.60428">
        <ele>279.7</ele>
        <time>2022-08-07T16:56:56Z</time>
      </trkpt>
      <trkpt lat="44.7657" lon="1.60423">
        <ele>279.7</ele>
        <time>2022-08-07T16:56:58Z</time>
      </trkpt>
      <trkpt lat="44.76568" lon="1.60418">
        <ele>279.6</ele>
        <time>2022-08-07T16:57:00Z</time>
      </trkpt>
      <trkpt lat="44.76566" lon="1.60413">
        <ele>279.6</ele>
        <time>2022-08-07T16:57:02Z</time>
      </trkpt>
      <trkpt lat="44.76566" lon="1.60408">
        <ele>279.6</ele>
        <time>2022-08-07T16:57:04Z</time>
      </trkpt>
      <trkpt lat="44.76565" lon="1.60406">
        <ele>279.5</ele>
        <time>2022-08-07T16:57:06Z</time>
      </trkpt>
      <trkpt lat="44.76564" lon="1.60404">
        <ele>279.5</ele>
        <time>2022-08-07T16:57:08Z</time>
      </trkpt>
      <trkpt lat="44.76564" lon="1.60403">
        <ele>279.5</ele>
        <time>2022-08-07T16:57:10Z</time>
      </trkpt>
      <trkpt lat="44.76564" lon="1.60403">
        <ele>279.5</ele>
        <time>2022-08-07T16:57:12Z</time>
      </trkpt>
      <trkpt lat="44.76564" lon="1.60402">
        <ele>279.5</ele>
        <time>2022-08-07T16:57:14Z</time>
      </trkpt>
      <trkpt lat="44.76564" lon="1.60402">
        <ele>279.5</ele>
        <time>2022-08-07T16:57:16Z</time>
      </trkpt>
      <trkpt lat="44.76567" lon="1.60384">
        <ele>279.5</ele>
        <time>2022-08-07T16:57:34Z</time>
      </trkpt>
      <trkpt lat="44.76567" lon="1.60376">
        <ele>279.5</ele>
        <time>2022-08-07T16:57:36Z</time>
      </trkpt>
      <trkpt lat="44.76567" lon="1.60369">
        <ele>279.5</ele>
        <time>2022-08-07T16:57:38Z</time>
      </trkpt>
      <trkpt lat="44.76566" lon="1.6036">
        <ele>279.4</ele>
        <time>2022-08-07T16:57:40Z</time>
      </trkpt>
      <trkpt lat="44.76566" lon="1.60352">
        <ele>279.4</ele>
        <time>2022-08-07T16:57:42Z</time>
      </trkpt>
      <trkpt lat="44.76564" lon="1.60343">
        <ele>279.3</ele>
        <time>2022-08-07T16:57:44Z</time>
      </trkpt>
      <trkpt lat="44.76565" lon="1.60336">
        <ele>279.4</ele>
        <time>2022-08-07T16:57:46Z</time>
      </trkpt>
      <trkpt lat="44.76563" lon="1.60329">
        <ele>279.1</ele>
        <time>2022-08-07T16:57:48Z</time>
      </trkpt>
      <trkpt lat="44.76563" lon="1.60324">
        <ele>278.9</ele>
        <time>2022-08-07T16:57:50Z</time>
      </trkpt>
      <trkpt lat="44.76562" lon="1.60319">
        <ele>278.7</ele>
        <time>2022-08-07T16:57:52Z</time>
      </trkpt>
      <trkpt lat="44.76562" lon="1.60316">
        <ele>278.6</ele>
        <time>2022-08-07T16:57:54Z</time>
      </trkpt>
      <trkpt lat="44.76561" lon="1.60314">
        <ele>278.5</ele>
        <time>2022-08-07T16:57:56Z</time>
      </trkpt>
      <trkpt lat="44.76561" lon="1.60315">
        <ele>278.5</ele>
        <time>2022-08-07T16:57:58Z</time>
      </trkpt>
      <trkpt lat="44.76561" lon="1.60315">
        <ele>278.5</ele>
        <time>2022-08-07T16:58:00Z</time>
      </trkpt>
      <trkpt lat="44.76561" lon="1.60315">
        <ele>278.6</ele>
        <time>2022-08-07T16:58:04Z</time>
      </trkpt>
      <trkpt lat="44.76567" lon="1.60369">
        <ele>279.5</ele>
        <time>2022-08-07T16:59:06Z</time>
      </trkpt>
      <trkpt lat="44.76567" lon="1.60373">
        <ele>279.5</ele>
        <time>2022-08-07T16:59:08Z</time>
      </trkpt>
      <trkpt lat="44.76568" lon="1.60378">
        <ele>279.5</ele>
        <time>2022-08-07T16:59:10Z</time>
      </trkpt>
      <trkpt lat="44.76568" lon="1.60383">
        <ele>279.5</ele>
        <time>2022-08-07T16:59:12Z</time>
      </trkpt>
      <trkpt lat="44.76567" lon="1.60388">
        <ele>279.5</ele>
        <time>2022-08-07T16:59:14Z</time>
      </trkpt>
      <trkpt lat="44.76567" lon="1.60393">
        <ele>279.5</ele>
        <time>2022-08-07T16:59:16Z</time>
      </trkpt>
      <trkpt lat="44.76566" lon="1.60398">
        <ele>279.5</ele>
        <time>2022-08-07T16:59:18Z</time>
      </trkpt>
      <trkpt lat="44.76565" lon="1.60402">
        <ele>279.5</ele>
        <time>2022-08-07T16:59:20Z</time>
      </trkpt>
      <trkpt lat="44.76562" lon="1.60405">
        <ele>279.4</ele>
        <time>2022-08-07T16:59:22Z</time>
      </trkpt>
      <trkpt lat="44.76559" lon="1.60404">
        <ele>279.4</ele>
        <time>2022-08-07T16:59:24Z</time>
      </trkpt>
      <trkpt lat="44.76559" lon="1.60404">
        <ele>279.4</ele>
        <time>2022-08-07T16:59:26Z</time>
      </trkpt>
      <trkpt lat="44.76559" lon="1.60403">
        <ele>279.4</ele>
        <time>2022-08-07T16:59:28Z</time>
      </trkpt>
      <trkpt lat="44.76559" lon="1.60403">
        <ele>279.4</ele>
        <time>2022-08-07T16:59:30Z</time>
      </trkpt>
      <trkpt lat="44.76559" lon="1.60404">
        <ele>279.4</ele>
        <time>2022-08-07T16:59:32Z</time>
      </trkpt>
      <trkpt lat="44.76559" lon="1.60404">
        <ele>279.4</ele>
        <time>2022-08-07T16:59:34Z</time>
      </trkpt>
    </trkseg>
      <trkpt lat="44.76561" lon="1.60411">
        <ele>279.4</ele>
        <time>2022-08-08T05:45:14Z</time>
      </trkpt>
      <trkpt lat="44.76555" lon="1.60403">
        <ele>279.3</ele>
        <time>2022-08-08T05:45:16Z</time>
      </trkpt>
      <trkpt lat="44.76559" lon="1.60424">
        <ele>279.4</ele>
        <time>2022-08-08T05:45:52Z</time>
      </trkpt>
      <trkpt lat="44.76554" lon="1.60428">
        <ele>279.3</ele>
        <time>2022-08-08T05:45:54Z</time>
      </trkpt>
      <trkpt lat="44.76549" lon="1.6043">
        <ele>279.2</ele>
        <time>2022-08-08T05:45:56Z</time>
      </trkpt>
      <trkpt lat="44.76544" lon="1.60432">
        <ele>279</ele>
        <time>2022-08-08T05:45:58Z</time>
      </trkpt>
      <trkpt lat="44.76538" lon="1.60433">
        <ele>278.9</ele>
        <time>2022-08-08T05:46:00Z</time>
      </trkpt>
      <trkpt lat="44.76533" lon="1.60435">
        <ele>278.8</ele>
        <time>2022-08-08T05:46:02Z</time>
      </trkpt>
      <trkpt lat="44.76527" lon="1.60437">
        <ele>278.7</ele>
        <time>2022-08-08T05:46:04Z</time>
      </trkpt>
      <trkpt lat="44.76521" lon="1.60439">
        <ele>278.5</ele>
        <time>2022-08-08T05:46:06Z</time>
      </trkpt>
      <trkpt lat="44.76515" lon="1.6044">
        <ele>278.4</ele>
        <time>2022-08-08T05:46:08Z</time>
      </trkpt>
      <trkpt lat="44.76509" lon="1.60442">
        <ele>278.2</ele>
        <time>2022-08-08T05:46:10Z</time>
      </trkpt>
      <trkpt lat="44.76503" lon="1.60443">
        <ele>278.1</ele>
        <time>2022-08-08T05:46:12Z</time>
      </trkpt>
      <trkpt lat="44.76496" lon="1.60446">
        <ele>278</ele>
        <time>2022-08-08T05:46:14Z</time>
      </trkpt>
      <trkpt lat="44.7649" lon="1.60447">
        <ele>278.1</ele>
        <time>2022-08-08T05:46:16Z</time>
      </trkpt>
      <trkpt lat="44.76485" lon="1.60448">
        <ele>278.1</ele>
        <time>2022-08-08T05:46:18Z</time>
      </trkpt>
      <trkpt lat="44.76479" lon="1.60451">
        <ele>278.2</ele>
        <time>2022-08-08T05:46:20Z</time>
      </trkpt>
      <trkpt lat="44.76473" lon="1.60454">
        <ele>278.3</ele>
        <time>2022-08-08T05:46:22Z</time>
      </trkpt>
      <trkpt lat="44.76468" lon="1.60454">
        <ele>278.3</ele>
        <time>2022-08-08T05:46:24Z</time>
      </trkpt>
      <trkpt lat="44.76463" lon="1.60455">
        <ele>278.4</ele>
        <time>2022-08-08T05:46:26Z</time>
      </trkpt>
      <trkpt lat="44.76459" lon="1.60457">
        <ele>278.5</ele>
        <time>2022-08-08T05:46:28Z</time>
      </trkpt>
      <trkpt lat="44.76455" lon="1.60457">
        <ele>278.5</ele>
        <time>2022-08-08T05:46:30Z</time>
      </trkpt>
      <trkpt lat="44.76452" lon="1.60458">
        <ele>278.6</ele>
        <time>2022-08-08T05:46:32Z</time>
      </trkpt>
      <trkpt lat="44.7645" lon="1.60458">
        <ele>278.6</ele>
        <time>2022-08-08T05:46:34Z</time>
      </trkpt>
      <trkpt lat="44.76447" lon="1.6046">
        <ele>278.7</ele>
        <time>2022-08-08T05:46:36Z</time>
      </trkpt>
      <trkpt lat="44.76446" lon="1.60467">
        <ele>278.8</ele>
        <time>2022-08-08T05:46:38Z</time>
      </trkpt>
      <trkpt lat="44.76447" lon="1.60474">
        <ele>278.9</ele>
        <time>2022-08-08T05:46:40Z</time>
      </trkpt>
      <trkpt lat="44.76447" lon="1.60481">
        <ele>279</ele>
        <time>2022-08-08T05:46:42Z</time>
      </trkpt>
      <trkpt lat="44.76448" lon="1.60489">
        <ele>279.1</ele>
        <time>2022-08-08T05:46:44Z</time>
      </trkpt>
      <trkpt lat="44.76448" lon="1.60496">
        <ele>279.2</ele>
        <time>2022-08-08T05:46:46Z</time>
      </trkpt>
      <trkpt lat="44.76449" lon="1.60504">
        <ele>279.2</ele>
        <time>2022-08-08T05:46:48Z</time>
      </trkpt>
      <trkpt lat="44.76449" lon="1.60513">
        <ele>279.1</ele>
        <time>2022-08-08T05:46:50Z</time>
      </trkpt>
      <trkpt lat="44.7645" lon="1.60521">
        <ele>279</ele>
        <time>2022-08-08T05:46:52Z</time>
      </trkpt>
      <trkpt lat="44.7645" lon="1.6053">
        <ele>278.9</ele>
        <time>2022-08-08T05:46:54Z</time>
      </trkpt>
      <trkpt lat="44.76451" lon="1.60539">
        <ele>278.8</ele>
        <time>2022-08-08T05:46:56Z</time>
      </trkpt>
      <trkpt lat="44.76452" lon="1.60548">
        <ele>278.7</ele>
        <time>2022-08-08T05:46:58Z</time>
      </trkpt>
      <trkpt lat="44.76453" lon="1.60558">
        <ele>278.5</ele>
        <time>2022-08-08T05:47:00Z</time>
      </trkpt>
      <trkpt lat="44.76453" lon="1.60567">
        <ele>278.4</ele>
        <time>2022-08-08T05:47:02Z</time>
      </trkpt>
      <trkpt lat="44.76454" lon="1.60577">
        <ele>278.3</ele>
        <time>2022-08-08T05:47:04Z</time>
      </trkpt>
      <trkpt lat="44.76455" lon="1.60586">
        <ele>278.1</ele>
        <time>2022-08-08T05:47:06Z</time>
      </trkpt>
      <trkpt lat="44.76456" lon="1.60596">
        <ele>278</ele>
        <time>2022-08-08T05:47:08Z</time>
      </trkpt>
      <trkpt lat="44.76456" lon="1.60607">
        <ele>277.8</ele>
        <time>2022-08-08T05:47:10Z</time>
      </trkpt>
      <trkpt lat="44.76457" lon="1.60617">
        <ele>277.7</ele>
        <time>2022-08-08T05:47:12Z</time>
      </trkpt>
      <trkpt lat="44.76457" lon="1.60629">
        <ele>277.5</ele>
        <time>2022-08-08T05:47:14Z</time>
      </trkpt>
      <trkpt lat="44.76458" lon="1.6064">
        <ele>277.3</ele>
        <time>2022-08-08T05:47:16Z</time>
      </trkpt>
      <trkpt lat="44.76458" lon="1.60651">
        <ele>277.2</ele>
        <time>2022-08-08T05:47:18Z</time>
      </trkpt>
      <trkpt lat="44.76459" lon="1.60663">
        <ele>277</ele>
        <time>2022-08-08T05:47:20Z</time>
      </trkpt>
      <trkpt lat="44.7646" lon="1.60675">
        <ele>277.1</ele>
        <time>2022-08-08T05:47:22Z</time>
      </trkpt>
      <trkpt lat="44.76461" lon="1.60687">
        <ele>277.2</ele>
        <time>2022-08-08T05:47:24Z</time>
      </trkpt>
      <trkpt lat="44.76461" lon="1.60699">
        <ele>277.5</ele>
        <time>2022-08-08T05:47:26Z</time>
      </trkpt>
      <trkpt lat="44.76462" lon="1.60711">
        <ele>277.7</ele>
        <time>2022-08-08T05:47:28Z</time>
      </trkpt>
      <trkpt lat="44.76463" lon="1.60723">
        <ele>277.8</ele>
        <time>2022-08-08T05:47:30Z</time>
      </trkpt>
      <trkpt lat="44.76463" lon="1.60735">
        <ele>278</ele>
        <time>2022-08-08T05:47:32Z</time>
      </trkpt>
      <trkpt lat="44.76464" lon="1.60747">
        <ele>278.2</ele>
        <time>2022-08-08T05:47:34Z</time>
      </trkpt>
      <trkpt lat="44.76465" lon="1.60758">
        <ele>278.4</ele>
        <time>2022-08-08T05:47:36Z</time>
      </trkpt>
      <trkpt lat="44.76465" lon="1.60769">
        <ele>278.4</ele>
        <time>2022-08-08T05:47:38Z</time>
      </trkpt>
      <trkpt lat="44.76465" lon="1.60779">
        <ele>278.5</ele>
        <time>2022-08-08T05:47:40Z</time>
      </trkpt>
      <trkpt lat="44.76466" lon="1.60788">
        <ele>278.6</ele>
        <time>2022-08-08T05:47:42Z</time>
      </trkpt>
      <trkpt lat="44.76467" lon="1.60797">
        <ele>278.6</ele>
        <time>2022-08-08T05:47:44Z</time>
      </trkpt>
      <trkpt lat="44.76467" lon="1.60806">
        <ele>278.7</ele>
        <time>2022-08-08T05:47:46Z</time>
      </trkpt>
      <trkpt lat="44.76468" lon="1.60815">
        <ele>278.8</ele>
        <time>2022-08-08T05:47:48Z</time>
      </trkpt>
      <trkpt lat="44.76468" lon="1.60823">
        <ele>278.8</ele>
        <time>2022-08-08T05:47:50Z</time>
      </trkpt>
      <trkpt lat="44.76469" lon="1.60831">
        <ele>278.8</ele>
        <time>2022-08-08T05:47:52Z</time>
      </trkpt>
      <trkpt lat="44.76469" lon="1.60839">
        <ele>278.9</ele>
        <time>2022-08-08T05:47:54Z</time>
      </trkpt>
      <trkpt lat="44.76469" lon="1.60847">
        <ele>279</ele>
        <time>2022-08-08T05:47:56Z</time>
      </trkpt>
      <trkpt lat="44.7647" lon="1.60855">
        <ele>279.1</ele>
        <time>2022-08-08T05:47:58Z</time>
      </trkpt>
      <trkpt lat="44.7647" lon="1.60863">
        <ele>279.2</ele>
        <time>2022-08-08T05:48:00Z</time>
      </trkpt>
      <trkpt lat="44.76471" lon="1.60871">
        <ele>279.3</ele>
        <time>2022-08-08T05:48:02Z</time>
      </trkpt>
      <trkpt lat="44.76471" lon="1.60878">
        <ele>279.4</ele>
        <time>2022-08-08T05:48:04Z</time>
      </trkpt>
      <trkpt lat="44.76472" lon="1.60886">
        <ele>279.5</ele>
        <time>2022-08-08T05:48:06Z</time>
      </trkpt>
      <trkpt lat="44.76472" lon="1.60893">
        <ele>279.6</ele>
        <time>2022-08-08T05:48:08Z</time>
      </trkpt>
      <trkpt lat="44.76473" lon="1.609">
        <ele>279.7</ele>
        <time>2022-08-08T05:48:10Z</time>
      </trkpt>
      <trkpt lat="44.76473" lon="1.60908">
        <ele>279.8</ele>
        <time>2022-08-08T05:48:12Z</time>
      </trkpt>
      <trkpt lat="44.76473" lon="1.60915">
        <ele>279.9</ele>
        <time>2022-08-08T05:48:14Z</time>
      </trkpt>
      <trkpt lat="44.76474" lon="1.60922">
        <ele>280.3</ele>
        <time>2022-08-08T05:48:16Z</time>
      </trkpt>
      <trkpt lat="44.76474" lon="1.60929">
        <ele>280.8</ele>
        <time>2022-08-08T05:48:18Z</time>
      </trkpt>
      <trkpt lat="44.76475" lon="1.60935">
        <ele>281.3</ele>
        <time>2022-08-08T05:48:20Z</time>
      </trkpt>
      <trkpt lat="44.76475" lon="1.60942">
        <ele>281.7</ele>
        <time>2022-08-08T05:48:22Z</time>
      </trkpt>
      <trkpt lat="44.76475" lon="1.60948">
        <ele>282.2</ele>
        <time>2022-08-08T05:48:24Z</time>
      </trkpt>
      <trkpt lat="44.76475" lon="1.60955">
        <ele>282.6</ele>
        <time>2022-08-08T05:48:26Z</time>
      </trkpt>
      <trkpt lat="44.76476" lon="1.60961">
        <ele>283.1</ele>
        <time>2022-08-08T05:48:28Z</time>
      </trkpt>
      <trkpt lat="44.76476" lon="1.60968">
        <ele>283.6</ele>
        <time>2022-08-08T05:48:30Z</time>
      </trkpt>
      <trkpt lat="44.76477" lon="1.60974">
        <ele>284</ele>
        <time>2022-08-08T05:48:32Z</time>
      </trkpt>
      <trkpt lat="44.76477" lon="1.60981">
        <ele>284.5</ele>
        <time>2022-08-08T05:48:34Z</time>
      </trkpt>
      <trkpt lat="44.76478" lon="1.60988">
        <ele>285</ele>
        <time>2022-08-08T05:48:36Z</time>
      </trkpt>
      <trkpt lat="44.76478" lon="1.60995">
        <ele>285.4</ele>
        <time>2022-08-08T05:48:38Z</time>
      </trkpt>
      <trkpt lat="44.76478" lon="1.61001">
        <ele>285.8</ele>
        <time>2022-08-08T05:48:40Z</time>
      </trkpt>
      <trkpt lat="44.76479" lon="1.61008">
        <ele>286.1</ele>
        <time>2022-08-08T05:48:42Z</time>
      </trkpt>
      <trkpt lat="44.76479" lon="1.61014">
        <ele>286.3</ele>
        <time>2022-08-08T05:48:44Z</time>
      </trkpt>
      <trkpt lat="44.7648" lon="1.6102">
        <ele>286.5</ele>
        <time>2022-08-08T05:48:46Z</time>
      </trkpt>
      <trkpt lat="44.76479" lon="1.61026">
        <ele>286.8</ele>
        <time>2022-08-08T05:48:48Z</time>
      </trkpt>
      <trkpt lat="44.7648" lon="1.61033">
        <ele>287</ele>
        <time>2022-08-08T05:48:50Z</time>
      </trkpt>
      <trkpt lat="44.7648" lon="1.6104">
        <ele>287.2</ele>
        <time>2022-08-08T05:48:52Z</time>
      </trkpt>
      <trkpt lat="44.7648" lon="1.61046">
        <ele>287.5</ele>
        <time>2022-08-08T05:48:54Z</time>
      </trkpt>
      <trkpt lat="44.76481" lon="1.61054">
        <ele>287.8</ele>
        <time>2022-08-08T05:48:56Z</time>
      </trkpt>
      <trkpt lat="44.76481" lon="1.6106">
        <ele>288</ele>
        <time>2022-08-08T05:48:58Z</time>
      </trkpt>
      <trkpt lat="44.76482" lon="1.61066">
        <ele>288.2</ele>
        <time>2022-08-08T05:49:00Z</time>
      </trkpt>
      <trkpt lat="44.76482" lon="1.61073">
        <ele>288.5</ele>
        <time>2022-08-08T05:49:02Z</time>
      </trkpt>
      <trkpt lat="44.76482" lon="1.61079">
        <ele>288.7</ele>
        <time>2022-08-08T05:49:04Z</time>
      </trkpt>
      <trkpt lat="44.76483" lon="1.61085">
        <ele>288.8</ele>
        <time>2022-08-08T05:49:06Z</time>
      </trkpt>
      <trkpt lat="44.76482" lon="1.61092">
        <ele>288.9</ele>
        <time>2022-08-08T05:49:08Z</time>
      </trkpt>
      <trkpt lat="44.76483" lon="1.61098">
        <ele>288.9</ele>
        <time>2022-08-08T05:49:10Z</time>
      </trkpt>
      <trkpt lat="44.76484" lon="1.61104">
        <ele>288.9</ele>
        <time>2022-08-08T05:49:12Z</time>
      </trkpt>
      <trkpt lat="44.76484" lon="1.61111">
        <ele>289</ele>
        <time>2022-08-08T05:49:14Z</time>
      </trkpt>
      <trkpt lat="44.76484" lon="1.61117">
        <ele>289</ele>
        <time>2022-08-08T05:49:16Z</time>
      </trkpt>
      <trkpt lat="44.76485" lon="1.61124">
        <ele>289</ele>
        <time>2022-08-08T05:49:18Z</time>
      </trkpt>
      <trkpt lat="44.76487" lon="1.6113">
        <ele>289</ele>
        <time>2022-08-08T05:49:20Z</time>
      </trkpt>
      <trkpt lat="44.76487" lon="1.61137">
        <ele>289.1</ele>
        <time>2022-08-08T05:49:22Z</time>
      </trkpt>
      <trkpt lat="44.76489" lon="1.61144">
        <ele>289.1</ele>
        <time>2022-08-08T05:49:24Z</time>
      </trkpt>
      <trkpt lat="44.7649" lon="1.61151">
        <ele>289.1</ele>
        <time>2022-08-08T05:49:26Z</time>
      </trkpt>
      <trkpt lat="44.76492" lon="1.61158">
        <ele>289.1</ele>
        <time>2022-08-08T05:49:28Z</time>
      </trkpt>
      <trkpt lat="44.76495" lon="1.61165">
        <ele>289.1</ele>
        <time>2022-08-08T05:49:30Z</time>
      </trkpt>
      <trkpt lat="44.76496" lon="1.61173">
        <ele>289.2</ele>
        <time>2022-08-08T05:49:32Z</time>
      </trkpt>
      <trkpt lat="44.76497" lon="1.61181">
        <ele>289.2</ele>
        <time>2022-08-08T05:49:34Z</time>
      </trkpt>
      <trkpt lat="44.765" lon="1.61189">
        <ele>289.3</ele>
        <time>2022-08-08T05:49:36Z</time>
      </trkpt>
      <trkpt lat="44.76502" lon="1.61198">
        <ele>289.4</ele>
        <time>2022-08-08T05:49:38Z</time>
      </trkpt>
      <trkpt lat="44.76504" lon="1.61206">
        <ele>289.4</ele>
        <time>2022-08-08T05:49:40Z</time>
      </trkpt>
      <trkpt lat="44.76506" lon="1.61214">
        <ele>289.5</ele>
        <time>2022-08-08T05:49:42Z</time>
      </trkpt>
      <trkpt lat="44.76508" lon="1.61221">
        <ele>289.6</ele>
        <time>2022-08-08T05:49:44Z</time>
      </trkpt>
      <trkpt lat="44.7651" lon="1.61229">
        <ele>289.7</ele>
        <time>2022-08-08T05:49:46Z</time>
      </trkpt>
      <trkpt lat="44.76512" lon="1.61237">
        <ele>289.7</ele>
        <time>2022-08-08T05:49:48Z</time>
      </trkpt>
      <trkpt lat="44.76515" lon="1.61245">
        <ele>289.8</ele>
        <time>2022-08-08T05:49:50Z</time>
      </trkpt>
      <trkpt lat="44.76517" lon="1.61253">
        <ele>289.8</ele>
        <time>2022-08-08T05:49:52Z</time>
      </trkpt>
      <trkpt lat="44.76519" lon="1.61261">
        <ele>289.8</ele>
        <time>2022-08-08T05:49:54Z</time>
      </trkpt>
      <trkpt lat="44.76521" lon="1.6127">
        <ele>289.8</ele>
        <time>2022-08-08T05:49:56Z</time>
      </trkpt>
      <trkpt lat="44.76523" lon="1.61278">
        <ele>289.8</ele>
        <time>2022-08-08T05:49:58Z</time>
      </trkpt>
      <trkpt lat="44.76525" lon="1.61286">
        <ele>289.8</ele>
        <time>2022-08-08T05:50:00Z</time>
      </trkpt>
      <trkpt lat="44.76527" lon="1.61294">
        <ele>289.8</ele>
        <time>2022-08-08T05:50:02Z</time>
      </trkpt>
      <trkpt lat="44.76529" lon="1.61302">
        <ele>289.9</ele>
        <time>2022-08-08T05:50:04Z</time>
      </trkpt>
      <trkpt lat="44.76531" lon="1.6131">
        <ele>289.9</ele>
        <time>2022-08-08T05:50:06Z</time>
      </trkpt>
      <trkpt lat="44.76534" lon="1.61318">
        <ele>289.9</ele>
        <time>2022-08-08T05:50:08Z</time>
      </trkpt>
      <trkpt lat="44.76535" lon="1.61326">
        <ele>290</ele>
        <time>2022-08-08T05:50:10Z</time>
      </trkpt>
      <trkpt lat="44.76537" lon="1.61333">
        <ele>290</ele>
        <time>2022-08-08T05:50:12Z</time>
      </trkpt>
      <trkpt lat="44.76539" lon="1.6134">
        <ele>290.2</ele>
        <time>2022-08-08T05:50:14Z</time>
      </trkpt>
      <trkpt lat="44.7654" lon="1.61348">
        <ele>290.3</ele>
        <time>2022-08-08T05:50:16Z</time>
      </trkpt>
      <trkpt lat="44.76543" lon="1.61354">
        <ele>290.5</ele>
        <time>2022-08-08T05:50:18Z</time>
      </trkpt>
      <trkpt lat="44.76545" lon="1.61361">
        <ele>290.7</ele>
        <time>2022-08-08T05:50:20Z</time>
      </trkpt>
      <trkpt lat="44.76546" lon="1.61367">
        <ele>290.8</ele>
        <time>2022-08-08T05:50:22Z</time>
      </trkpt>
      <trkpt lat="44.76548" lon="1.61374">
        <ele>291</ele>
        <time>2022-08-08T05:50:24Z</time>
      </trkpt>
      <trkpt lat="44.7655" lon="1.61381">
        <ele>291.2</ele>
        <time>2022-08-08T05:50:26Z</time>
      </trkpt>
      <trkpt lat="44.76551" lon="1.61388">
        <ele>291.3</ele>
        <time>2022-08-08T05:50:28Z</time>
      </trkpt>
      <trkpt lat="44.76553" lon="1.61394">
        <ele>291.5</ele>
        <time>2022-08-08T05:50:30Z</time>
      </trkpt>
      <trkpt lat="44.76555" lon="1.61401">
        <ele>291.6</ele>
        <time>2022-08-08T05:50:32Z</time>
      </trkpt>
      <trkpt lat="44.76556" lon="1.61407">
        <ele>291.8</ele>
        <time>2022-08-08T05:50:34Z</time>
      </trkpt>
      <trkpt lat="44.76558" lon="1.61412">
        <ele>291.9</ele>
        <time>2022-08-08T05:50:36Z</time>
      </trkpt>
      <trkpt lat="44.76559" lon="1.61418">
        <ele>292</ele>
        <time>2022-08-08T05:50:38Z</time>
      </trkpt>
      <trkpt lat="44.76561" lon="1.61423">
        <ele>292.2</ele>
        <time>2022-08-08T05:50:40Z</time>
      </trkpt>
      <trkpt lat="44.76563" lon="1.61429">
        <ele>292.3</ele>
        <time>2022-08-08T05:50:42Z</time>
      </trkpt>
      <trkpt lat="44.76564" lon="1.61434">
        <ele>292.4</ele>
        <time>2022-08-08T05:50:44Z</time>
      </trkpt>
      <trkpt lat="44.76565" lon="1.6144">
        <ele>292.6</ele>
        <time>2022-08-08T05:50:46Z</time>
      </trkpt>
      <trkpt lat="44.76567" lon="1.61446">
        <ele>292.7</ele>
        <time>2022-08-08T05:50:48Z</time>
      </trkpt>
      <trkpt lat="44.76568" lon="1.61452">
        <ele>292.8</ele>
        <time>2022-08-08T05:50:50Z</time>
      </trkpt>
      <trkpt lat="44.76569" lon="1.61457">
        <ele>293</ele>
        <time>2022-08-08T05:50:52Z</time>
      </trkpt>
      <trkpt lat="44.76571" lon="1.61463">
        <ele>293.1</ele>
        <time>2022-08-08T05:50:54Z</time>
      </trkpt>
      <trkpt lat="44.76573" lon="1.61469">
        <ele>293.3</ele>
        <time>2022-08-08T05:50:56Z</time>
      </trkpt>
      <trkpt lat="44.76574" lon="1.61475">
        <ele>293.4</ele>
        <time>2022-08-08T05:50:58Z</time>
      </trkpt>
      <trkpt lat="44.76575" lon="1.61481">
        <ele>293.5</ele>
        <time>2022-08-08T05:51:00Z</time>
      </trkpt>
      <trkpt lat="44.76576" lon="1.61487">
        <ele>293.7</ele>
        <time>2022-08-08T05:51:02Z</time>
      </trkpt>
      <trkpt lat="44.76578" lon="1.61492">
        <ele>293.8</ele>
        <time>2022-08-08T05:51:04Z</time>
      </trkpt>
      <trkpt lat="44.7658" lon="1.61499">
        <ele>294</ele>
        <time>2022-08-08T05:51:06Z</time>
      </trkpt>
      <trkpt lat="44.76581" lon="1.61505">
        <ele>294.2</ele>
        <time>2022-08-08T05:51:08Z</time>
      </trkpt>
      <trkpt lat="44.76583" lon="1.61511">
        <ele>294.4</ele>
        <time>2022-08-08T05:51:10Z</time>
      </trkpt>
      <trkpt lat="44.76584" lon="1.61517">
        <ele>294.6</ele>
        <time>2022-08-08T05:51:12Z</time>
      </trkpt>
      <trkpt lat="44.76586" lon="1.61523">
        <ele>294.8</ele>
        <time>2022-08-08T05:51:14Z</time>
      </trkpt>
      <trkpt lat="44.76588" lon="1.61529">
        <ele>295</ele>
        <time>2022-08-08T05:51:16Z</time>
      </trkpt>
      <trkpt lat="44.76589" lon="1.61535">
        <ele>295.2</ele>
        <time>2022-08-08T05:51:18Z</time>
      </trkpt>
      <trkpt lat="44.76592" lon="1.61542">
        <ele>295.3</ele>
        <time>2022-08-08T05:51:20Z</time>
      </trkpt>
      <trkpt lat="44.76593" lon="1.61548">
        <ele>295.5</ele>
        <time>2022-08-08T05:51:22Z</time>
      </trkpt>
      <trkpt lat="44.76594" lon="1.61556">
        <ele>295.6</ele>
        <time>2022-08-08T05:51:24Z</time>
      </trkpt>
      <trkpt lat="44.76596" lon="1.61563">
        <ele>295.7</ele>
        <time>2022-08-08T05:51:26Z</time>
      </trkpt>
      <trkpt lat="44.76597" lon="1.6157">
        <ele>295.9</ele>
        <time>2022-08-08T05:51:28Z</time>
      </trkpt>
      <trkpt lat="44.76598" lon="1.61576">
        <ele>296</ele>
        <time>2022-08-08T05:51:30Z</time>
      </trkpt>
      <trkpt lat="44.76599" lon="1.61577">
        <ele>295.9</ele>
        <time>2022-08-08T05:51:32Z</time>
      </trkpt>
      <trkpt lat="44.76595" lon="1.61587">
        <ele>296.2</ele>
        <time>2022-08-08T05:51:34Z</time>
      </trkpt>
      <trkpt lat="44.76592" lon="1.61594">
        <ele>296.2</ele>
        <time>2022-08-08T05:51:36Z</time>
      </trkpt>
      <trkpt lat="44.76589" lon="1.61601">
        <ele>296.2</ele>
        <time>2022-08-08T05:51:38Z</time>
      </trkpt>
      <trkpt lat="44.76586" lon="1.61608">
        <ele>296.2</ele>
        <time>2022-08-08T05:51:40Z</time>
      </trkpt>
      <trkpt lat="44.76583" lon="1.61614">
        <ele>296.3</ele>
        <time>2022-08-08T05:51:42Z</time>
      </trkpt>
      <trkpt lat="44.76579" lon="1.6162">
        <ele>296.2</ele>
        <time>2022-08-08T05:51:44Z</time>
      </trkpt>
      <trkpt lat="44.76574" lon="1.61626">
        <ele>296.2</ele>
        <time>2022-08-08T05:51:46Z</time>
      </trkpt>
      <trkpt lat="44.76569" lon="1.61629">
        <ele>296.3</ele>
        <time>2022-08-08T05:51:48Z</time>
      </trkpt>
      <trkpt lat="44.76565" lon="1.61633">
        <ele>296.3</ele>
        <time>2022-08-08T05:51:50Z</time>
      </trkpt>
      <trkpt lat="44.76559" lon="1.61636">
        <ele>296.4</ele>
        <time>2022-08-08T05:51:52Z</time>
      </trkpt>
      <trkpt lat="44.76554" lon="1.6164">
        <ele>296.5</ele>
        <time>2022-08-08T05:51:54Z</time>
      </trkpt>
      <trkpt lat="44.76549" lon="1.61643">
        <ele>296.6</ele>
        <time>2022-08-08T05:51:56Z</time>
      </trkpt>
      <trkpt lat="44.76545" lon="1.61647">
        <ele>296.6</ele>
        <time>2022-08-08T05:51:58Z</time>
      </trkpt>
      <trkpt lat="44.7654" lon="1.61652">
        <ele>296.7</ele>
        <time>2022-08-08T05:52:00Z</time>
      </trkpt>
      <trkpt lat="44.76535" lon="1.61657">
        <ele>296.8</ele>
        <time>2022-08-08T05:52:02Z</time>
      </trkpt>
      <trkpt lat="44.7653" lon="1.61662">
        <ele>297</ele>
        <time>2022-08-08T05:52:04Z</time>
      </trkpt>
      <trkpt lat="44.76524" lon="1.61667">
        <ele>297.1</ele>
        <time>2022-08-08T05:52:06Z</time>
      </trkpt>
      <trkpt lat="44.76518" lon="1.61672">
        <ele>297.1</ele>
        <time>2022-08-08T05:52:08Z</time>
      </trkpt>
      <trkpt lat="44.76512" lon="1.61677">
        <ele>297</ele>
        <time>2022-08-08T05:52:10Z</time>
      </trkpt>
      <trkpt lat="44.76506" lon="1.61683">
        <ele>297</ele>
        <time>2022-08-08T05:52:12Z</time>
      </trkpt>
      <trkpt lat="44.765" lon="1.61688">
        <ele>296.9</ele>
        <time>2022-08-08T05:52:14Z</time>
      </trkpt>
      <trkpt lat="44.76494" lon="1.61694">
        <ele>296.6</ele>
        <time>2022-08-08T05:52:16Z</time>
      </trkpt>
      <trkpt lat="44.76489" lon="1.617">
        <ele>296.2</ele>
        <time>2022-08-08T05:52:18Z</time>
      </trkpt>
      <trkpt lat="44.76484" lon="1.61706">
        <ele>295.9</ele>
        <time>2022-08-08T05:52:20Z</time>
      </trkpt>
      <trkpt lat="44.76478" lon="1.61712">
        <ele>295.6</ele>
        <time>2022-08-08T05:52:22Z</time>
      </trkpt>
      <trkpt lat="44.76472" lon="1.61718">
        <ele>295.4</ele>
        <time>2022-08-08T05:52:24Z</time>
      </trkpt>
      <trkpt lat="44.76465" lon="1.61724">
        <ele>295.2</ele>
        <time>2022-08-08T05:52:26Z</time>
      </trkpt>
      <trkpt lat="44.76458" lon="1.6173">
        <ele>295</ele>
        <time>2022-08-08T05:52:28Z</time>
      </trkpt>
      <trkpt lat="44.76452" lon="1.61737">
        <ele>294.8</ele>
        <time>2022-08-08T05:52:30Z</time>
      </trkpt>
      <trkpt lat="44.76444" lon="1.61743">
        <ele>294.8</ele>
        <time>2022-08-08T05:52:32Z</time>
      </trkpt>
      <trkpt lat="44.76437" lon="1.61748">
        <ele>294.8</ele>
        <time>2022-08-08T05:52:34Z</time>
      </trkpt>
      <trkpt lat="44.76429" lon="1.61752">
        <ele>294.8</ele>
        <time>2022-08-08T05:52:36Z</time>
      </trkpt>
      <trkpt lat="44.7642" lon="1.61755">
        <ele>294.8</ele>
        <time>2022-08-08T05:52:38Z</time>
      </trkpt>
      <trkpt lat="44.76412" lon="1.61756">
        <ele>294.9</ele>
        <time>2022-08-08T05:52:40Z</time>
      </trkpt>
      <trkpt lat="44.76404" lon="1.61758">
        <ele>295</ele>
        <time>2022-08-08T05:52:42Z</time>
      </trkpt>
      <trkpt lat="44.76396" lon="1.61758">
        <ele>295.1</ele>
        <time>2022-08-08T05:52:44Z</time>
      </trkpt>
      <trkpt lat="44.76387" lon="1.61758">
        <ele>295.2</ele>
        <time>2022-08-08T05:52:46Z</time>
      </trkpt>
      <trkpt lat="44.76379" lon="1.61759">
        <ele>295.3</ele>
        <time>2022-08-08T05:52:48Z</time>
      </trkpt>
      <trkpt lat="44.76371" lon="1.61759">
        <ele>295.5</ele>
        <time>2022-08-08T05:52:50Z</time>
      </trkpt>
      <trkpt lat="44.76363" lon="1.61761">
        <ele>295.6</ele>
        <time>2022-08-08T05:52:52Z</time>
      </trkpt>
      <trkpt lat="44.76356" lon="1.61762">
        <ele>295.7</ele>
        <time>2022-08-08T05:52:54Z</time>
      </trkpt>
      <trkpt lat="44.76348" lon="1.61765">
        <ele>295.8</ele>
        <time>2022-08-08T05:52:56Z</time>
      </trkpt>
      <trkpt lat="44.76341" lon="1.61769">
        <ele>295.9</ele>
        <time>2022-08-08T05:52:58Z</time>
      </trkpt>
      <trkpt lat="44.76334" lon="1.61773">
        <ele>296</ele>
        <time>2022-08-08T05:53:00Z</time>
      </trkpt>
      <trkpt lat="44.76327" lon="1.61778">
        <ele>295.9</ele>
        <time>2022-08-08T05:53:02Z</time>
      </trkpt>
      <trkpt lat="44.76321" lon="1.61782">
        <ele>295.8</ele>
        <time>2022-08-08T05:53:04Z</time>
      </trkpt>
      <trkpt lat="44.76314" lon="1.61788">
        <ele>295.7</ele>
        <time>2022-08-08T05:53:06Z</time>
      </trkpt>
      <trkpt lat="44.76307" lon="1.61794">
        <ele>295.7</ele>
        <time>2022-08-08T05:53:08Z</time>
      </trkpt>
      <trkpt lat="44.763" lon="1.61799">
        <ele>295.7</ele>
        <time>2022-08-08T05:53:10Z</time>
      </trkpt>
      <trkpt lat="44.76294" lon="1.61804">
        <ele>295.8</ele>
        <time>2022-08-08T05:53:12Z</time>
      </trkpt>
      <trkpt lat="44.76287" lon="1.6181">
        <ele>295.9</ele>
        <time>2022-08-08T05:53:14Z</time>
      </trkpt>
      <trkpt lat="44.7628" lon="1.61814">
        <ele>296.1</ele>
        <time>2022-08-08T05:53:16Z</time>
      </trkpt>
      <trkpt lat="44.76273" lon="1.6182">
        <ele>296.2</ele>
        <time>2022-08-08T05:53:18Z</time>
      </trkpt>
      <trkpt lat="44.76267" lon="1.61825">
        <ele>296.5</ele>
        <time>2022-08-08T05:53:20Z</time>
      </trkpt>
      <trkpt lat="44.76261" lon="1.61829">
        <ele>296.7</ele>
        <time>2022-08-08T05:53:22Z</time>
      </trkpt>
      <trkpt lat="44.76255" lon="1.61834">
        <ele>296.9</ele>
        <time>2022-08-08T05:53:24Z</time>
      </trkpt>
      <trkpt lat="44.76249" lon="1.61838">
        <ele>297</ele>
        <time>2022-08-08T05:53:26Z</time>
      </trkpt>
      <trkpt lat="44.76243" lon="1.61843">
        <ele>296.9</ele>
        <time>2022-08-08T05:53:28Z</time>
      </trkpt>
      <trkpt lat="44.76238" lon="1.61848">
        <ele>296.9</ele>
        <time>2022-08-08T05:53:30Z</time>
      </trkpt>
      <trkpt lat="44.76233" lon="1.61852">
        <ele>296.9</ele>
        <time>2022-08-08T05:53:32Z</time>
      </trkpt>
      <trkpt lat="44.76228" lon="1.61856">
        <ele>296.9</ele>
        <time>2022-08-08T05:53:34Z</time>
      </trkpt>
      <trkpt lat="44.76223" lon="1.6186">
        <ele>296.9</ele>
        <time>2022-08-08T05:53:36Z</time>
      </trkpt>
      <trkpt lat="44.76218" lon="1.61864">
        <ele>296.9</ele>
        <time>2022-08-08T05:53:38Z</time>
      </trkpt>
      <trkpt lat="44.76213" lon="1.61869">
        <ele>296.9</ele>
        <time>2022-08-08T05:53:40Z</time>
      </trkpt>
      <trkpt lat="44.76207" lon="1.61873">
        <ele>297</ele>
        <time>2022-08-08T05:53:42Z</time>
      </trkpt>
      <trkpt lat="44.76202" lon="1.61878">
        <ele>297</ele>
        <time>2022-08-08T05:53:44Z</time>
      </trkpt>
      <trkpt lat="44.76197" lon="1.61882">
        <ele>297.1</ele>
        <time>2022-08-08T05:53:46Z</time>
      </trkpt>
      <trkpt lat="44.76191" lon="1.61887">
        <ele>297.2</ele>
        <time>2022-08-08T05:53:48Z</time>
      </trkpt>
      <trkpt lat="44.76186" lon="1.61891">
        <ele>297.3</ele>
        <time>2022-08-08T05:53:50Z</time>
      </trkpt>
      <trkpt lat="44.7618" lon="1.61895">
        <ele>297.4</ele>
        <time>2022-08-08T05:53:52Z</time>
      </trkpt>
      <trkpt lat="44.76176" lon="1.619">
        <ele>297.5</ele>
        <time>2022-08-08T05:53:54Z</time>
      </trkpt>
      <trkpt lat="44.7617" lon="1.61904">
        <ele>297.7</ele>
        <time>2022-08-08T05:53:56Z</time>
      </trkpt>
      <trkpt lat="44.76165" lon="1.61908">
        <ele>297.8</ele>
        <time>2022-08-08T05:53:58Z</time>
      </trkpt>
      <trkpt lat="44.7616" lon="1.61912">
        <ele>298</ele>
        <time>2022-08-08T05:54:00Z</time>
      </trkpt>
      <trkpt lat="44.76154" lon="1.61917">
        <ele>298.1</ele>
        <time>2022-08-08T05:54:02Z</time>
      </trkpt>
      <trkpt lat="44.76149" lon="1.61921">
        <ele>298.2</ele>
        <time>2022-08-08T05:54:04Z</time>
      </trkpt>
      <trkpt lat="44.76143" lon="1.61926">
        <ele>298.3</ele>
        <time>2022-08-08T05:54:06Z</time>
      </trkpt>
      <trkpt lat="44.76138" lon="1.61931">
        <ele>298.3</ele>
        <time>2022-08-08T05:54:08Z</time>
      </trkpt>
      <trkpt lat="44.76133" lon="1.61937">
        <ele>298.4</ele>
        <time>2022-08-08T05:54:10Z</time>
      </trkpt>
      <trkpt lat="44.76129" lon="1.61941">
        <ele>298.5</ele>
        <time>2022-08-08T05:54:12Z</time>
      </trkpt>
      <trkpt lat="44.76128" lon="1.61947">
        <ele>298.6</ele>
        <time>2022-08-08T05:54:14Z</time>
      </trkpt>
      <trkpt lat="44.76131" lon="1.61951">
        <ele>298.5</ele>
        <time>2022-08-08T05:54:16Z</time>
      </trkpt>
      <trkpt lat="44.76135" lon="1.6195">
        <ele>298.4</ele>
        <time>2022-08-08T05:54:18Z</time>
      </trkpt>
      <trkpt lat="44.76137" lon="1.61948">
        <ele>298.4</ele>
        <time>2022-08-08T05:54:20Z</time>
      </trkpt>
      <trkpt lat="44.76137" lon="1.61947">
        <ele>298.4</ele>
        <time>2022-08-08T05:54:22Z</time>
      </trkpt>
      <trkpt lat="44.76137" lon="1.61947">
        <ele>298.4</ele>
        <time>2022-08-08T05:54:24Z</time>
      </trkpt>
      <trkpt lat="44.76137" lon="1.61948">
        <ele>298.4</ele>
        <time>2022-08-08T05:54:26Z</time>
      </trkpt>
      <trkpt lat="44.76135" lon="1.61932">
        <ele>298.4</ele>
        <time>2022-08-08T05:55:04Z</time>
      </trkpt>
      <trkpt lat="44.76132" lon="1.61935">
        <ele>298.5</ele>
        <time>2022-08-08T05:55:06Z</time>
      </trkpt>
      <trkpt lat="44.76129" lon="1.61938">
        <ele>298.5</ele>
        <time>2022-08-08T05:55:08Z</time>
      </trkpt>
      <trkpt lat="44.76126" lon="1.61942">
        <ele>298.6</ele>
        <time>2022-08-08T05:55:10Z</time>
      </trkpt>
      <trkpt lat="44.76123" lon="1.61946">
        <ele>298.7</ele>
        <time>2022-08-08T05:55:12Z</time>
      </trkpt>
      <trkpt lat="44.7612" lon="1.61951">
        <ele>298.8</ele>
        <time>2022-08-08T05:55:14Z</time>
      </trkpt>
      <trkpt lat="44.76117" lon="1.61956">
        <ele>299</ele>
        <time>2022-08-08T05:55:16Z</time>
      </trkpt>
      <trkpt lat="44.76114" lon="1.61962">
        <ele>299.1</ele>
        <time>2022-08-08T05:55:18Z</time>
      </trkpt>
      <trkpt lat="44.7611" lon="1.61967">
        <ele>299.3</ele>
        <time>2022-08-08T05:55:20Z</time>
      </trkpt>
      <trkpt lat="44.76107" lon="1.61973">
        <ele>299.5</ele>
        <time>2022-08-08T05:55:22Z</time>
      </trkpt>
      <trkpt lat="44.76103" lon="1.61978">
        <ele>299.7</ele>
        <time>2022-08-08T05:55:24Z</time>
      </trkpt>
      <trkpt lat="44.76099" lon="1.61987">
        <ele>300</ele>
        <time>2022-08-08T05:55:26Z</time>
      </trkpt>
      <trkpt lat="44.76095" lon="1.61994">
        <ele>300.3</ele>
        <time>2022-08-08T05:55:28Z</time>
      </trkpt>
      <trkpt lat="44.76091" lon="1.62001">
        <ele>300.6</ele>
        <time>2022-08-08T05:55:30Z</time>
      </trkpt>
      <trkpt lat="44.76086" lon="1.62009">
        <ele>300.3</ele>
        <time>2022-08-08T05:55:32Z</time>
      </trkpt>
      <trkpt lat="44.76081" lon="1.62016">
        <ele>300</ele>
        <time>2022-08-08T05:55:34Z</time>
      </trkpt>
      <trkpt lat="44.76076" lon="1.62025">
        <ele>299.6</ele>
        <time>2022-08-08T05:55:36Z</time>
      </trkpt>
      <trkpt lat="44.7607" lon="1.62033">
        <ele>299.1</ele>
        <time>2022-08-08T05:55:38Z</time>
      </trkpt>
      <trkpt lat="44.76065" lon="1.62042">
        <ele>298.7</ele>
        <time>2022-08-08T05:55:40Z</time>
      </trkpt>
      <trkpt lat="44.7606" lon="1.62052">
        <ele>298.3</ele>
        <time>2022-08-08T05:55:42Z</time>
      </trkpt>
      <trkpt lat="44.76054" lon="1.62061">
        <ele>297.9</ele>
        <time>2022-08-08T05:55:44Z</time>
      </trkpt>
      <trkpt lat="44.76048" lon="1.62071">
        <ele>297.5</ele>
        <time>2022-08-08T05:55:46Z</time>
      </trkpt>
      <trkpt lat="44.76041" lon="1.62082">
        <ele>297.1</ele>
        <time>2022-08-08T05:55:48Z</time>
      </trkpt>
      <trkpt lat="44.76034" lon="1.62094">
        <ele>296.3</ele>
        <time>2022-08-08T05:55:50Z</time>
      </trkpt>
      <trkpt lat="44.76025" lon="1.62107">
        <ele>295.5</ele>
        <time>2022-08-08T05:55:52Z</time>
      </trkpt>
      <trkpt lat="44.76017" lon="1.62121">
        <ele>294.8</ele>
        <time>2022-08-08T05:55:54Z</time>
      </trkpt>
      <trkpt lat="44.76009" lon="1.62135">
        <ele>294.3</ele>
        <time>2022-08-08T05:55:56Z</time>
      </trkpt>
      <trkpt lat="44.76001" lon="1.6215">
        <ele>293.9</ele>
        <time>2022-08-08T05:55:58Z</time>
      </trkpt>
      <trkpt lat="44.75994" lon="1.62166">
        <ele>293.4</ele>
        <time>2022-08-08T05:56:00Z</time>
      </trkpt>
      <trkpt lat="44.75988" lon="1.62182">
        <ele>293.3</ele>
        <time>2022-08-08T05:56:02Z</time>
      </trkpt>
      <trkpt lat="44.75984" lon="1.62199">
        <ele>293</ele>
        <time>2022-08-08T05:56:04Z</time>
      </trkpt>
      <trkpt lat="44.75981" lon="1.62215">
        <ele>292.6</ele>
        <time>2022-08-08T05:56:06Z</time>
      </trkpt>
      <trkpt lat="44.75977" lon="1.62232">
        <ele>292.3</ele>
        <time>2022-08-08T05:56:08Z</time>
      </trkpt>
      <trkpt lat="44.75974" lon="1.62248">
        <ele>291.9</ele>
        <time>2022-08-08T05:56:10Z</time>
      </trkpt>
      <trkpt lat="44.75972" lon="1.62264">
        <ele>291.7</ele>
        <time>2022-08-08T05:56:12Z</time>
      </trkpt>
      <trkpt lat="44.75969" lon="1.62279">
        <ele>291.4</ele>
        <time>2022-08-08T05:56:14Z</time>
      </trkpt>
      <trkpt lat="44.75966" lon="1.62294">
        <ele>291.2</ele>
        <time>2022-08-08T05:56:16Z</time>
      </trkpt>
      <trkpt lat="44.75963" lon="1.62309">
        <ele>291</ele>
        <time>2022-08-08T05:56:18Z</time>
      </trkpt>
      <trkpt lat="44.75959" lon="1.62324">
        <ele>290.8</ele>
        <time>2022-08-08T05:56:20Z</time>
      </trkpt>
      <trkpt lat="44.75954" lon="1.62338">
        <ele>290.7</ele>
        <time>2022-08-08T05:56:22Z</time>
      </trkpt>
      <trkpt lat="44.7595" lon="1.62352">
        <ele>290.6</ele>
        <time>2022-08-08T05:56:24Z</time>
      </trkpt>
      <trkpt lat="44.75945" lon="1.62365">
        <ele>290.7</ele>
        <time>2022-08-08T05:56:26Z</time>
      </trkpt>
      <trkpt lat="44.7594" lon="1.62378">
        <ele>290.7</ele>
        <time>2022-08-08T05:56:28Z</time>
      </trkpt>
      <trkpt lat="44.75936" lon="1.62389">
        <ele>290.7</ele>
        <time>2022-08-08T05:56:30Z</time>
      </trkpt>
      <trkpt lat="44.75931" lon="1.624">
        <ele>290.7</ele>
        <time>2022-08-08T05:56:32Z</time>
      </trkpt>
      <trkpt lat="44.75927" lon="1.62411">
        <ele>290.6</ele>
        <time>2022-08-08T05:56:34Z</time>
      </trkpt>
      <trkpt lat="44.75923" lon="1.62422">
        <ele>290.6</ele>
        <time>2022-08-08T05:56:36Z</time>
      </trkpt>
      <trkpt lat="44.75919" lon="1.62433">
        <ele>290.7</ele>
        <time>2022-08-08T05:56:38Z</time>
      </trkpt>
      <trkpt lat="44.75916" lon="1.62443">
        <ele>290.6</ele>
        <time>2022-08-08T05:56:40Z</time>
      </trkpt>
      <trkpt lat="44.75912" lon="1.62453">
        <ele>290.3</ele>
        <time>2022-08-08T05:56:42Z</time>
      </trkpt>
      <trkpt lat="44.75908" lon="1.62463">
        <ele>290</ele>
        <time>2022-08-08T05:56:44Z</time>
      </trkpt>
      <trkpt lat="44.75905" lon="1.62474">
        <ele>289.7</ele>
        <time>2022-08-08T05:56:46Z</time>
      </trkpt>
      <trkpt lat="44.75901" lon="1.62484">
        <ele>289.3</ele>
        <time>2022-08-08T05:56:48Z</time>
      </trkpt>
      <trkpt lat="44.75897" lon="1.62494">
        <ele>288.9</ele>
        <time>2022-08-08T05:56:50Z</time>
      </trkpt>
      <trkpt lat="44.75894" lon="1.62504">
        <ele>288.7</ele>
        <time>2022-08-08T05:56:52Z</time>
      </trkpt>
      <trkpt lat="44.75891" lon="1.62513">
        <ele>288.8</ele>
        <time>2022-08-08T05:56:54Z</time>
      </trkpt>
      <trkpt lat="44.75886" lon="1.62521">
        <ele>288.8</ele>
        <time>2022-08-08T05:56:56Z</time>
      </trkpt>
      <trkpt lat="44.75879" lon="1.62525">
        <ele>288.6</ele>
        <time>2022-08-08T05:56:58Z</time>
      </trkpt>
      <trkpt lat="44.75873" lon="1.62526">
        <ele>288.3</ele>
        <time>2022-08-08T05:57:00Z</time>
      </trkpt>
      <trkpt lat="44.75865" lon="1.62531">
        <ele>288.2</ele>
        <time>2022-08-08T05:57:02Z</time>
      </trkpt>
      <trkpt lat="44.75859" lon="1.62537">
        <ele>288.2</ele>
        <time>2022-08-08T05:57:04Z</time>
      </trkpt>
      <trkpt lat="44.75852" lon="1.62543">
        <ele>288.2</ele>
        <time>2022-08-08T05:57:06Z</time>
      </trkpt>
      <trkpt lat="44.75844" lon="1.6255">
        <ele>288.4</ele>
        <time>2022-08-08T05:57:08Z</time>
      </trkpt>
      <trkpt lat="44.75837" lon="1.62558">
        <ele>288.6</ele>
        <time>2022-08-08T05:57:10Z</time>
      </trkpt>
      <trkpt lat="44.75829" lon="1.62565">
        <ele>288.5</ele>
        <time>2022-08-08T05:57:12Z</time>
      </trkpt>
      <trkpt lat="44.75821" lon="1.62573">
        <ele>287.9</ele>
        <time>2022-08-08T05:57:14Z</time>
      </trkpt>
      <trkpt lat="44.75812" lon="1.62581">
        <ele>287.5</ele>
        <time>2022-08-08T05:57:16Z</time>
      </trkpt>
      <trkpt lat="44.75803" lon="1.62589">
        <ele>287</ele>
        <time>2022-08-08T05:57:18Z</time>
      </trkpt>
      <trkpt lat="44.75794" lon="1.62597">
        <ele>286.5</ele>
        <time>2022-08-08T05:57:20Z</time>
      </trkpt>
      <trkpt lat="44.75783" lon="1.62607">
        <ele>286.1</ele>
        <time>2022-08-08T05:57:22Z</time>
      </trkpt>
      <trkpt lat="44.75772" lon="1.62616">
        <ele>285.8</ele>
        <time>2022-08-08T05:57:24Z</time>
      </trkpt>
      <trkpt lat="44.75761" lon="1.62626">
        <ele>285.5</ele>
        <time>2022-08-08T05:57:26Z</time>
      </trkpt>
      <trkpt lat="44.75749" lon="1.62637">
        <ele>285.4</ele>
        <time>2022-08-08T05:57:28Z</time>
      </trkpt>
      <trkpt lat="44.75737" lon="1.62645">
        <ele>285.2</ele>
        <time>2022-08-08T05:57:30Z</time>
      </trkpt>
      <trkpt lat="44.75723" lon="1.62644">
        <ele>283.9</ele>
        <time>2022-08-08T05:57:32Z</time>
      </trkpt>
      <trkpt lat="44.75709" lon="1.62633">
        <ele>281.8</ele>
        <time>2022-08-08T05:57:34Z</time>
      </trkpt>
      <trkpt lat="44.757" lon="1.62619">
        <ele>279.7</ele>
        <time>2022-08-08T05:57:36Z</time>
      </trkpt>
      <trkpt lat="44.75687" lon="1.62612">
        <ele>277.9</ele>
        <time>2022-08-08T05:57:38Z</time>
      </trkpt>
      <trkpt lat="44.75673" lon="1.62617">
        <ele>277.2</ele>
        <time>2022-08-08T05:57:40Z</time>
      </trkpt>
      <trkpt lat="44.75659" lon="1.62628">
        <ele>276.9</ele>
        <time>2022-08-08T05:57:42Z</time>
      </trkpt>
      <trkpt lat="44.75645" lon="1.62638">
        <ele>276.1</ele>
        <time>2022-08-08T05:57:44Z</time>
      </trkpt>
      <trkpt lat="44.7563" lon="1.62649">
        <ele>275</ele>
        <time>2022-08-08T05:57:46Z</time>
      </trkpt>
      <trkpt lat="44.75617" lon="1.6266">
        <ele>273.9</ele>
        <time>2022-08-08T05:57:48Z</time>
      </trkpt>
      <trkpt lat="44.75605" lon="1.62677">
        <ele>272.8</ele>
        <time>2022-08-08T05:57:50Z</time>
      </trkpt>
      <trkpt lat="44.75596" lon="1.62696">
        <ele>271.8</ele>
        <time>2022-08-08T05:57:52Z</time>
      </trkpt>
      <trkpt lat="44.75589" lon="1.62717">
        <ele>271.2</ele>
        <time>2022-08-08T05:57:54Z</time>
      </trkpt>
      <trkpt lat="44.75585" lon="1.6274">
        <ele>271</ele>
        <time>2022-08-08T05:57:56Z</time>
      </trkpt>
      <trkpt lat="44.75579" lon="1.62763">
        <ele>271.8</ele>
        <time>2022-08-08T05:57:58Z</time>
      </trkpt>
      <trkpt lat="44.75573" lon="1.62786">
        <ele>273</ele>
        <time>2022-08-08T05:58:00Z</time>
      </trkpt>
      <trkpt lat="44.75565" lon="1.62807">
        <ele>274.4</ele>
        <time>2022-08-08T05:58:02Z</time>
      </trkpt>
      <trkpt lat="44.75556" lon="1.62821">
        <ele>275.5</ele>
        <time>2022-08-08T05:58:04Z</time>
      </trkpt>
      <trkpt lat="44.75545" lon="1.62822">
        <ele>276.4</ele>
        <time>2022-08-08T05:58:06Z</time>
      </trkpt>
      <trkpt lat="44.75536" lon="1.6281">
        <ele>276.5</ele>
        <time>2022-08-08T05:58:08Z</time>
      </trkpt>
      <trkpt lat="44.75539" lon="1.62795">
        <ele>275.8</ele>
        <time>2022-08-08T05:58:10Z</time>
      </trkpt>
      <trkpt lat="44.75539" lon="1.62775">
        <ele>275.1</ele>
        <time>2022-08-08T05:58:12Z</time>
      </trkpt>
      <trkpt lat="44.75541" lon="1.62754">
        <ele>274.2</ele>
        <time>2022-08-08T05:58:14Z</time>
      </trkpt>
      <trkpt lat="44.75541" lon="1.62733">
        <ele>274.2</ele>
        <time>2022-08-08T05:58:16Z</time>
      </trkpt>
      <trkpt lat="44.75542" lon="1.6271">
        <ele>274.2</ele>
        <time>2022-08-08T05:58:18Z</time>
      </trkpt>
      <trkpt lat="44.75544" lon="1.62687">
        <ele>274.1</ele>
        <time>2022-08-08T05:58:20Z</time>
      </trkpt>
      <trkpt lat="44.75548" lon="1.62662">
        <ele>273.6</ele>
        <time>2022-08-08T05:58:22Z</time>
      </trkpt>
      <trkpt lat="44.75554" lon="1.6264">
        <ele>272.6</ele>
        <time>2022-08-08T05:58:24Z</time>
      </trkpt>
      <trkpt lat="44.75559" lon="1.62618">
        <ele>271.5</ele>
        <time>2022-08-08T05:58:26Z</time>
      </trkpt>
      <trkpt lat="44.75566" lon="1.62597">
        <ele>270.1</ele>
        <time>2022-08-08T05:58:28Z</time>
      </trkpt>
      <trkpt lat="44.75574" lon="1.62577">
        <ele>268.5</ele>
        <time>2022-08-08T05:58:30Z</time>
      </trkpt>
      <trkpt lat="44.75585" lon="1.62558">
        <ele>266.4</ele>
        <time>2022-08-08T05:58:32Z</time>
      </trkpt>
      <trkpt lat="44.75598" lon="1.6254">
        <ele>266.1</ele>
        <time>2022-08-08T05:58:34Z</time>
      </trkpt>
      <trkpt lat="44.75613" lon="1.62525">
        <ele>265.3</ele>
        <time>2022-08-08T05:58:36Z</time>
      </trkpt>
      <trkpt lat="44.75627" lon="1.6251">
        <ele>263.7</ele>
        <time>2022-08-08T05:58:38Z</time>
      </trkpt>
      <trkpt lat="44.75642" lon="1.62497">
        <ele>262.1</ele>
        <time>2022-08-08T05:58:40Z</time>
      </trkpt>
      <trkpt lat="44.75652" lon="1.62484">
        <ele>261.5</ele>
        <time>2022-08-08T05:58:42Z</time>
      </trkpt>
      <trkpt lat="44.75656" lon="1.62466">
        <ele>261.2</ele>
        <time>2022-08-08T05:58:44Z</time>
      </trkpt>
      <trkpt lat="44.75649" lon="1.62449">
        <ele>261.1</ele>
        <time>2022-08-08T05:58:46Z</time>
      </trkpt>
      <trkpt lat="44.75638" lon="1.62437">
        <ele>260.8</ele>
        <time>2022-08-08T05:58:48Z</time>
      </trkpt>
      <trkpt lat="44.75626" lon="1.62425">
        <ele>260.3</ele>
        <time>2022-08-08T05:58:50Z</time>
      </trkpt>
      <trkpt lat="44.75612" lon="1.62415">
        <ele>259.8</ele>
        <time>2022-08-08T05:58:52Z</time>
      </trkpt>
      <trkpt lat="44.75597" lon="1.6241">
        <ele>260</ele>
        <time>2022-08-08T05:58:54Z</time>
      </trkpt>
      <trkpt lat="44.75582" lon="1.62401">
        <ele>260.2</ele>
        <time>2022-08-08T05:58:56Z</time>
      </trkpt>
      <trkpt lat="44.75568" lon="1.62389">
        <ele>261.1</ele>
        <time>2022-08-08T05:58:58Z</time>
      </trkpt>
      <trkpt lat="44.75556" lon="1.62377">
        <ele>261.3</ele>
        <time>2022-08-08T05:59:00Z</time>
      </trkpt>
      <trkpt lat="44.75543" lon="1.62368">
        <ele>261</ele>
        <time>2022-08-08T05:59:02Z</time>
      </trkpt>
      <trkpt lat="44.75528" lon="1.62362">
        <ele>260.2</ele>
        <time>2022-08-08T05:59:04Z</time>
      </trkpt>
      <trkpt lat="44.75513" lon="1.62359">
        <ele>259.2</ele>
        <time>2022-08-08T05:59:06Z</time>
      </trkpt>
      <trkpt lat="44.75497" lon="1.6236">
        <ele>258.4</ele>
        <time>2022-08-08T05:59:08Z</time>
      </trkpt>
      <trkpt lat="44.75481" lon="1.62364">
        <ele>258.1</ele>
        <time>2022-08-08T05:59:10Z</time>
      </trkpt>
      <trkpt lat="44.75464" lon="1.62369">
        <ele>257.7</ele>
        <time>2022-08-08T05:59:12Z</time>
      </trkpt>
      <trkpt lat="44.75448" lon="1.62375">
        <ele>257.2</ele>
        <time>2022-08-08T05:59:14Z</time>
      </trkpt>
      <trkpt lat="44.75431" lon="1.6238">
        <ele>256.5</ele>
        <time>2022-08-08T05:59:16Z</time>
      </trkpt>
      <trkpt lat="44.75414" lon="1.62384">
        <ele>255.8</ele>
        <time>2022-08-08T05:59:18Z</time>
      </trkpt>
      <trkpt lat="44.75397" lon="1.62386">
        <ele>255.9</ele>
        <time>2022-08-08T05:59:20Z</time>
      </trkpt>
      <trkpt lat="44.75382" lon="1.62382">
        <ele>255.6</ele>
        <time>2022-08-08T05:59:22Z</time>
      </trkpt>
      <trkpt lat="44.75366" lon="1.62376">
        <ele>255</ele>
        <time>2022-08-08T05:59:24Z</time>
      </trkpt>
      <trkpt lat="44.75351" lon="1.6237">
        <ele>254.1</ele>
        <time>2022-08-08T05:59:26Z</time>
      </trkpt>
      <trkpt lat="44.75336" lon="1.62362">
        <ele>252.9</ele>
        <time>2022-08-08T05:59:28Z</time>
      </trkpt>
      <trkpt lat="44.75321" lon="1.62357">
        <ele>252</ele>
        <time>2022-08-08T05:59:30Z</time>
      </trkpt>
      <trkpt lat="44.75306" lon="1.6235">
        <ele>250.8</ele>
        <time>2022-08-08T05:59:32Z</time>
      </trkpt>
      <trkpt lat="44.75291" lon="1.62341">
        <ele>249.2</ele>
        <time>2022-08-08T05:59:34Z</time>
      </trkpt>
      <trkpt lat="44.75276" lon="1.62332">
        <ele>247.7</ele>
        <time>2022-08-08T05:59:36Z</time>
      </trkpt>
      <trkpt lat="44.75261" lon="1.62324">
        <ele>248.2</ele>
        <time>2022-08-08T05:59:38Z</time>
      </trkpt>
      <trkpt lat="44.75245" lon="1.62315">
        <ele>248.7</ele>
        <time>2022-08-08T05:59:40Z</time>
      </trkpt>
      <trkpt lat="44.75229" lon="1.62304">
        <ele>249.5</ele>
        <time>2022-08-08T05:59:42Z</time>
      </trkpt>
      <trkpt lat="44.75215" lon="1.62291">
        <ele>249.4</ele>
        <time>2022-08-08T05:59:44Z</time>
      </trkpt>
      <trkpt lat="44.752" lon="1.62278">
        <ele>248.5</ele>
        <time>2022-08-08T05:59:46Z</time>
      </trkpt>
      <trkpt lat="44.75186" lon="1.62265">
        <ele>246.6</ele>
        <time>2022-08-08T05:59:48Z</time>
      </trkpt>
      <trkpt lat="44.7517" lon="1.62256">
        <ele>244</ele>
        <time>2022-08-08T05:59:50Z</time>
      </trkpt>
      <trkpt lat="44.75152" lon="1.62248">
        <ele>242.2</ele>
        <time>2022-08-08T05:59:52Z</time>
      </trkpt>
      <trkpt lat="44.75135" lon="1.6224">
        <ele>241.3</ele>
        <time>2022-08-08T05:59:54Z</time>
      </trkpt>
      <trkpt lat="44.75118" lon="1.62233">
        <ele>240</ele>
        <time>2022-08-08T05:59:56Z</time>
      </trkpt>
      <trkpt lat="44.75104" lon="1.62226">
        <ele>238.3</ele>
        <time>2022-08-08T05:59:58Z</time>
      </trkpt>
      <trkpt lat="44.75089" lon="1.62222">
        <ele>236.4</ele>
        <time>2022-08-08T06:00:00Z</time>
      </trkpt>
      <trkpt lat="44.75075" lon="1.62228">
        <ele>235.9</ele>
        <time>2022-08-08T06:00:02Z</time>
      </trkpt>
      <trkpt lat="44.75065" lon="1.62241">
        <ele>236.4</ele>
        <time>2022-08-08T06:00:04Z</time>
      </trkpt>
      <trkpt lat="44.75055" lon="1.62255">
        <ele>237.5</ele>
        <time>2022-08-08T06:00:06Z</time>
      </trkpt>
      <trkpt lat="44.75045" lon="1.62269">
        <ele>239.1</ele>
        <time>2022-08-08T06:00:08Z</time>
      </trkpt>
      <trkpt lat="44.75037" lon="1.62282">
        <ele>240.3</ele>
        <time>2022-08-08T06:00:10Z</time>
      </trkpt>
      <trkpt lat="44.7503" lon="1.62294">
        <ele>241.1</ele>
        <time>2022-08-08T06:00:12Z</time>
      </trkpt>
      <trkpt lat="44.75022" lon="1.62305">
        <ele>241.5</ele>
        <time>2022-08-08T06:00:14Z</time>
      </trkpt>
      <trkpt lat="44.75016" lon="1.62317">
        <ele>241.9</ele>
        <time>2022-08-08T06:00:16Z</time>
      </trkpt>
      <trkpt lat="44.75008" lon="1.62328">
        <ele>241.8</ele>
        <time>2022-08-08T06:00:18Z</time>
      </trkpt>
      <trkpt lat="44.75001" lon="1.62339">
        <ele>242</ele>
        <time>2022-08-08T06:00:20Z</time>
      </trkpt>
      <trkpt lat="44.74994" lon="1.6235">
        <ele>244.1</ele>
        <time>2022-08-08T06:00:22Z</time>
      </trkpt>
      <trkpt lat="44.74986" lon="1.6236">
        <ele>246.3</ele>
        <time>2022-08-08T06:00:24Z</time>
      </trkpt>
      <trkpt lat="44.7498" lon="1.6237">
        <ele>247.9</ele>
        <time>2022-08-08T06:00:26Z</time>
      </trkpt>
      <trkpt lat="44.74974" lon="1.62381">
        <ele>249.2</ele>
        <time>2022-08-08T06:00:28Z</time>
      </trkpt>
      <trkpt lat="44.74968" lon="1.6239">
        <ele>250.1</ele>
        <time>2022-08-08T06:00:30Z</time>
      </trkpt>
      <trkpt lat="44.74962" lon="1.624">
        <ele>250.6</ele>
        <time>2022-08-08T06:00:32Z</time>
      </trkpt>
      <trkpt lat="44.74956" lon="1.6241">
        <ele>250.9</ele>
        <time>2022-08-08T06:00:34Z</time>
      </trkpt>
      <trkpt lat="44.74951" lon="1.62421">
        <ele>250.8</ele>
        <time>2022-08-08T06:00:36Z</time>
      </trkpt>
      <trkpt lat="44.74947" lon="1.62432">
        <ele>250.5</ele>
        <time>2022-08-08T06:00:38Z</time>
      </trkpt>
      <trkpt lat="44.74942" lon="1.62443">
        <ele>250.1</ele>
        <time>2022-08-08T06:00:40Z</time>
      </trkpt>
      <trkpt lat="44.7494" lon="1.62454">
        <ele>249.6</ele>
        <time>2022-08-08T06:00:42Z</time>
      </trkpt>
      <trkpt lat="44.74937" lon="1.62464">
        <ele>249</ele>
        <time>2022-08-08T06:00:44Z</time>
      </trkpt>
      <trkpt lat="44.74933" lon="1.62475">
        <ele>248.2</ele>
        <time>2022-08-08T06:00:46Z</time>
      </trkpt>
      <trkpt lat="44.7493" lon="1.62485">
        <ele>247.2</ele>
        <time>2022-08-08T06:00:48Z</time>
      </trkpt>
      <trkpt lat="44.74928" lon="1.62495">
        <ele>246.4</ele>
        <time>2022-08-08T06:00:50Z</time>
      </trkpt>
      <trkpt lat="44.74925" lon="1.62504">
        <ele>245.6</ele>
        <time>2022-08-08T06:00:52Z</time>
      </trkpt>
      <trkpt lat="44.74923" lon="1.62512">
        <ele>245.1</ele>
        <time>2022-08-08T06:00:54Z</time>
      </trkpt>
      <trkpt lat="44.74923" lon="1.62518">
        <ele>244.8</ele>
        <time>2022-08-08T06:00:56Z</time>
      </trkpt>
      <trkpt lat="44.74921" lon="1.62522">
        <ele>244.4</ele>
        <time>2022-08-08T06:00:58Z</time>
      </trkpt>
      <trkpt lat="44.74919" lon="1.62528">
        <ele>243.9</ele>
        <time>2022-08-08T06:01:00Z</time>
      </trkpt>
      <trkpt lat="44.74918" lon="1.62534">
        <ele>243.6</ele>
        <time>2022-08-08T06:01:02Z</time>
      </trkpt>
      <trkpt lat="44.74918" lon="1.62539">
        <ele>243.3</ele>
        <time>2022-08-08T06:01:04Z</time>
      </trkpt>
      <trkpt lat="44.74917" lon="1.62544">
        <ele>243</ele>
        <time>2022-08-08T06:01:06Z</time>
      </trkpt>
      <trkpt lat="44.74915" lon="1.62549">
        <ele>243.2</ele>
        <time>2022-08-08T06:01:08Z</time>
      </trkpt>
      <trkpt lat="44.74914" lon="1.62554">
        <ele>243.3</ele>
        <time>2022-08-08T06:01:10Z</time>
      </trkpt>
      <trkpt lat="44.74914" lon="1.62558">
        <ele>243.4</ele>
        <time>2022-08-08T06:01:12Z</time>
      </trkpt>
      <trkpt lat="44.74911" lon="1.62562">
        <ele>243.8</ele>
        <time>2022-08-08T06:01:14Z</time>
      </trkpt>
      <trkpt lat="44.7491" lon="1.62566">
        <ele>244</ele>
        <time>2022-08-08T06:01:16Z</time>
      </trkpt>
      <trkpt lat="44.7491" lon="1.62572">
        <ele>243.8</ele>
        <time>2022-08-08T06:01:18Z</time>
      </trkpt>
      <trkpt lat="44.74907" lon="1.62578">
        <ele>244.3</ele>
        <time>2022-08-08T06:01:20Z</time>
      </trkpt>
      <trkpt lat="44.74907" lon="1.62583">
        <ele>244.2</ele>
        <time>2022-08-08T06:01:22Z</time>
      </trkpt>
      <trkpt lat="44.74906" lon="1.62589">
        <ele>244.6</ele>
        <time>2022-08-08T06:01:24Z</time>
      </trkpt>
      <trkpt lat="44.74905" lon="1.62594">
        <ele>245</ele>
        <time>2022-08-08T06:01:26Z</time>
      </trkpt>
      <trkpt lat="44.74903" lon="1.626">
        <ele>245.4</ele>
        <time>2022-08-08T06:01:28Z</time>
      </trkpt>
      <trkpt lat="44.74902" lon="1.62605">
        <ele>245.7</ele>
        <time>2022-08-08T06:01:30Z</time>
      </trkpt>
      <trkpt lat="44.74901" lon="1.6261">
        <ele>246</ele>
        <time>2022-08-08T06:01:32Z</time>
      </trkpt>
      <trkpt lat="44.74898" lon="1.62615">
        <ele>246.7</ele>
        <time>2022-08-08T06:01:34Z</time>
      </trkpt>
      <trkpt lat="44.74897" lon="1.62621">
        <ele>246.9</ele>
        <time>2022-08-08T06:01:36Z</time>
      </trkpt>
      <trkpt lat="44.74895" lon="1.62626">
        <ele>247.4</ele>
        <time>2022-08-08T06:01:38Z</time>
      </trkpt>
      <trkpt lat="44.74894" lon="1.62632">
        <ele>247.7</ele>
        <time>2022-08-08T06:01:40Z</time>
      </trkpt>
      <trkpt lat="44.74893" lon="1.62638">
        <ele>248</ele>
        <time>2022-08-08T06:01:42Z</time>
      </trkpt>
      <trkpt lat="44.74891" lon="1.62643">
        <ele>248.4</ele>
        <time>2022-08-08T06:01:44Z</time>
      </trkpt>
      <trkpt lat="44.74889" lon="1.62649">
        <ele>248.8</ele>
        <time>2022-08-08T06:01:46Z</time>
      </trkpt>
      <trkpt lat="44.74889" lon="1.62654">
        <ele>249</ele>
        <time>2022-08-08T06:01:48Z</time>
      </trkpt>
      <trkpt lat="44.74888" lon="1.6266">
        <ele>249.1</ele>
        <time>2022-08-08T06:01:50Z</time>
      </trkpt>
      <trkpt lat="44.74886" lon="1.62665">
        <ele>249.5</ele>
        <time>2022-08-08T06:01:52Z</time>
      </trkpt>
      <trkpt lat="44.74885" lon="1.6267">
        <ele>249.8</ele>
        <time>2022-08-08T06:01:54Z</time>
      </trkpt>
      <trkpt lat="44.74883" lon="1.62675">
        <ele>250.2</ele>
        <time>2022-08-08T06:01:56Z</time>
      </trkpt>
      <trkpt lat="44.74881" lon="1.62681">
        <ele>250.6</ele>
        <time>2022-08-08T06:01:58Z</time>
      </trkpt>
      <trkpt lat="44.7488" lon="1.62685">
        <ele>250.9</ele>
        <time>2022-08-08T06:02:00Z</time>
      </trkpt>
      <trkpt lat="44.74879" lon="1.6269">
        <ele>251.2</ele>
        <time>2022-08-08T06:02:02Z</time>
      </trkpt>
      <trkpt lat="44.74877" lon="1.62695">
        <ele>251.7</ele>
        <time>2022-08-08T06:02:04Z</time>
      </trkpt>
      <trkpt lat="44.74875" lon="1.627">
        <ele>252</ele>
        <time>2022-08-08T06:02:06Z</time>
      </trkpt>
      <trkpt lat="44.74875" lon="1.62705">
        <ele>252.3</ele>
        <time>2022-08-08T06:02:08Z</time>
      </trkpt>
      <trkpt lat="44.74873" lon="1.6271">
        <ele>252.7</ele>
        <time>2022-08-08T06:02:10Z</time>
      </trkpt>
      <trkpt lat="44.74872" lon="1.62716">
        <ele>253</ele>
        <time>2022-08-08T06:02:12Z</time>
      </trkpt>
      <trkpt lat="44.74871" lon="1.62721">
        <ele>253.2</ele>
        <time>2022-08-08T06:02:14Z</time>
      </trkpt>
      <trkpt lat="44.74871" lon="1.62726">
        <ele>253.3</ele>
        <time>2022-08-08T06:02:16Z</time>
      </trkpt>
      <trkpt lat="44.74869" lon="1.62732">
        <ele>253.8</ele>
        <time>2022-08-08T06:02:18Z</time>
      </trkpt>
      <trkpt lat="44.74868" lon="1.62736">
        <ele>254.1</ele>
        <time>2022-08-08T06:02:20Z</time>
      </trkpt>
      <trkpt lat="44.74866" lon="1.62741">
        <ele>254.5</ele>
        <time>2022-08-08T06:02:22Z</time>
      </trkpt>
      <trkpt lat="44.74864" lon="1.62747">
        <ele>255</ele>
        <time>2022-08-08T06:02:24Z</time>
      </trkpt>
      <trkpt lat="44.74864" lon="1.62753">
        <ele>255.2</ele>
        <time>2022-08-08T06:02:26Z</time>
      </trkpt>
      <trkpt lat="44.74862" lon="1.62758">
        <ele>255.7</ele>
        <time>2022-08-08T06:02:28Z</time>
      </trkpt>
      <trkpt lat="44.7486" lon="1.62763">
        <ele>256.1</ele>
        <time>2022-08-08T06:02:30Z</time>
      </trkpt>
      <trkpt lat="44.74859" lon="1.62768">
        <ele>256.3</ele>
        <time>2022-08-08T06:02:32Z</time>
      </trkpt>
      <trkpt lat="44.74858" lon="1.62773">
        <ele>256.7</ele>
        <time>2022-08-08T06:02:34Z</time>
      </trkpt>
      <trkpt lat="44.74855" lon="1.62779">
        <ele>257.2</ele>
        <time>2022-08-08T06:02:36Z</time>
      </trkpt>
      <trkpt lat="44.74854" lon="1.62783">
        <ele>257.5</ele>
        <time>2022-08-08T06:02:38Z</time>
      </trkpt>
      <trkpt lat="44.74853" lon="1.62789">
        <ele>257.9</ele>
        <time>2022-08-08T06:02:40Z</time>
      </trkpt>
      <trkpt lat="44.74852" lon="1.62795">
        <ele>258.1</ele>
        <time>2022-08-08T06:02:42Z</time>
      </trkpt>
      <trkpt lat="44.7485" lon="1.628">
        <ele>258.4</ele>
        <time>2022-08-08T06:02:44Z</time>
      </trkpt>
      <trkpt lat="44.74849" lon="1.62806">
        <ele>258.7</ele>
        <time>2022-08-08T06:02:46Z</time>
      </trkpt>
      <trkpt lat="44.74846" lon="1.6281">
        <ele>259</ele>
        <time>2022-08-08T06:02:48Z</time>
      </trkpt>
      <trkpt lat="44.74846" lon="1.62816">
        <ele>259.2</ele>
        <time>2022-08-08T06:02:50Z</time>
      </trkpt>
      <trkpt lat="44.74844" lon="1.62822">
        <ele>259.4</ele>
        <time>2022-08-08T06:02:52Z</time>
      </trkpt>
      <trkpt lat="44.74844" lon="1.62827">
        <ele>259.6</ele>
        <time>2022-08-08T06:02:54Z</time>
      </trkpt>
      <trkpt lat="44.74842" lon="1.62831">
        <ele>259.8</ele>
        <time>2022-08-08T06:02:56Z</time>
      </trkpt>
      <trkpt lat="44.74841" lon="1.62836">
        <ele>259.8</ele>
        <time>2022-08-08T06:02:58Z</time>
      </trkpt>
      <trkpt lat="44.74841" lon="1.62842">
        <ele>259.5</ele>
        <time>2022-08-08T06:03:00Z</time>
      </trkpt>
      <trkpt lat="44.7484" lon="1.62847">
        <ele>259.3</ele>
        <time>2022-08-08T06:03:02Z</time>
      </trkpt>
      <trkpt lat="44.74839" lon="1.62852">
        <ele>259.1</ele>
        <time>2022-08-08T06:03:04Z</time>
      </trkpt>
      <trkpt lat="44.74839" lon="1.62857">
        <ele>258.8</ele>
        <time>2022-08-08T06:03:06Z</time>
      </trkpt>
      <trkpt lat="44.74838" lon="1.62861">
        <ele>258.7</ele>
        <time>2022-08-08T06:03:08Z</time>
      </trkpt>
      <trkpt lat="44.74836" lon="1.62867">
        <ele>258.4</ele>
        <time>2022-08-08T06:03:10Z</time>
      </trkpt>
      <trkpt lat="44.74837" lon="1.62873">
        <ele>258</ele>
        <time>2022-08-08T06:03:12Z</time>
      </trkpt>
      <trkpt lat="44.74836" lon="1.62878">
        <ele>257.7</ele>
        <time>2022-08-08T06:03:14Z</time>
      </trkpt>
      <trkpt lat="44.74835" lon="1.62883">
        <ele>257.3</ele>
        <time>2022-08-08T06:03:16Z</time>
      </trkpt>
      <trkpt lat="44.74834" lon="1.62888">
        <ele>257</ele>
        <time>2022-08-08T06:03:18Z</time>
      </trkpt>
      <trkpt lat="44.74833" lon="1.62893">
        <ele>256.8</ele>
        <time>2022-08-08T06:03:20Z</time>
      </trkpt>
      <trkpt lat="44.74831" lon="1.62899">
        <ele>256.8</ele>
        <time>2022-08-08T06:03:22Z</time>
      </trkpt>
      <trkpt lat="44.7483" lon="1.62903">
        <ele>256.8</ele>
        <time>2022-08-08T06:03:24Z</time>
      </trkpt>
      <trkpt lat="44.74829" lon="1.62908">
        <ele>256.7</ele>
        <time>2022-08-08T06:03:26Z</time>
      </trkpt>
      <trkpt lat="44.74827" lon="1.62913">
        <ele>256.8</ele>
        <time>2022-08-08T06:03:28Z</time>
      </trkpt>
      <trkpt lat="44.74825" lon="1.62917">
        <ele>257.2</ele>
        <time>2022-08-08T06:03:30Z</time>
      </trkpt>
      <trkpt lat="44.74823" lon="1.62921">
        <ele>257.2</ele>
        <time>2022-08-08T06:03:32Z</time>
      </trkpt>
      <trkpt lat="44.74821" lon="1.62926">
        <ele>257.2</ele>
        <time>2022-08-08T06:03:34Z</time>
      </trkpt>
      <trkpt lat="44.74819" lon="1.62931">
        <ele>257.4</ele>
        <time>2022-08-08T06:03:36Z</time>
      </trkpt>
      <trkpt lat="44.74816" lon="1.62936">
        <ele>257.6</ele>
        <time>2022-08-08T06:03:38Z</time>
      </trkpt>
      <trkpt lat="44.74813" lon="1.62941">
        <ele>257.9</ele>
        <time>2022-08-08T06:03:40Z</time>
      </trkpt>
      <trkpt lat="44.74809" lon="1.62945">
        <ele>258.1</ele>
        <time>2022-08-08T06:03:42Z</time>
      </trkpt>
      <trkpt lat="44.74807" lon="1.62948">
        <ele>258.4</ele>
        <time>2022-08-08T06:03:44Z</time>
      </trkpt>
      <trkpt lat="44.74804" lon="1.62951">
        <ele>258.6</ele>
        <time>2022-08-08T06:03:46Z</time>
      </trkpt>
      <trkpt lat="44.748" lon="1.62955">
        <ele>258.9</ele>
        <time>2022-08-08T06:03:48Z</time>
      </trkpt>
      <trkpt lat="44.74796" lon="1.62957">
        <ele>259.4</ele>
        <time>2022-08-08T06:03:50Z</time>
      </trkpt>
      <trkpt lat="44.74792" lon="1.62959">
        <ele>260</ele>
        <time>2022-08-08T06:03:52Z</time>
      </trkpt>
      <trkpt lat="44.74788" lon="1.62961">
        <ele>260.6</ele>
        <time>2022-08-08T06:03:54Z</time>
      </trkpt>
      <trkpt lat="44.74784" lon="1.62963">
        <ele>261</ele>
        <time>2022-08-08T06:03:56Z</time>
      </trkpt>
      <trkpt lat="44.7478" lon="1.62966">
        <ele>261.4</ele>
        <time>2022-08-08T06:03:58Z</time>
      </trkpt>
      <trkpt lat="44.74776" lon="1.62968">
        <ele>261.9</ele>
        <time>2022-08-08T06:04:00Z</time>
      </trkpt>
      <trkpt lat="44.74773" lon="1.62971">
        <ele>262.1</ele>
        <time>2022-08-08T06:04:02Z</time>
      </trkpt>
      <trkpt lat="44.74769" lon="1.62973">
        <ele>262.5</ele>
        <time>2022-08-08T06:04:04Z</time>
      </trkpt>
      <trkpt lat="44.74765" lon="1.62975">
        <ele>262.8</ele>
        <time>2022-08-08T06:04:06Z</time>
      </trkpt>
      <trkpt lat="44.74761" lon="1.62978">
        <ele>263.1</ele>
        <time>2022-08-08T06:04:08Z</time>
      </trkpt>
      <trkpt lat="44.74757" lon="1.62981">
        <ele>263.3</ele>
        <time>2022-08-08T06:04:10Z</time>
      </trkpt>
      <trkpt lat="44.74753" lon="1.62982">
        <ele>263.8</ele>
        <time>2022-08-08T06:04:12Z</time>
      </trkpt>
      <trkpt lat="44.74749" lon="1.62985">
        <ele>263.8</ele>
        <time>2022-08-08T06:04:14Z</time>
      </trkpt>
      <trkpt lat="44.74746" lon="1.62988">
        <ele>263.6</ele>
        <time>2022-08-08T06:04:16Z</time>
      </trkpt>
      <trkpt lat="44.74742" lon="1.6299">
        <ele>263.5</ele>
        <time>2022-08-08T06:04:18Z</time>
      </trkpt>
      <trkpt lat="44.74738" lon="1.62993">
        <ele>263.4</ele>
        <time>2022-08-08T06:04:20Z</time>
      </trkpt>
      <trkpt lat="44.74734" lon="1.62994">
        <ele>263.6</ele>
        <time>2022-08-08T06:04:22Z</time>
      </trkpt>
      <trkpt lat="44.7473" lon="1.62997">
        <ele>263.4</ele>
        <time>2022-08-08T06:04:24Z</time>
      </trkpt>
      <trkpt lat="44.74727" lon="1.62999">
        <ele>263.4</ele>
        <time>2022-08-08T06:04:26Z</time>
      </trkpt>
      <trkpt lat="44.74723" lon="1.63">
        <ele>263.6</ele>
        <time>2022-08-08T06:04:28Z</time>
      </trkpt>
      <trkpt lat="44.74719" lon="1.63003">
        <ele>263.9</ele>
        <time>2022-08-08T06:04:30Z</time>
      </trkpt>
      <trkpt lat="44.74716" lon="1.63005">
        <ele>264.2</ele>
        <time>2022-08-08T06:04:32Z</time>
      </trkpt>
      <trkpt lat="44.74712" lon="1.63007">
        <ele>264.5</ele>
        <time>2022-08-08T06:04:34Z</time>
      </trkpt>
      <trkpt lat="44.74708" lon="1.63009">
        <ele>264.8</ele>
        <time>2022-08-08T06:04:36Z</time>
      </trkpt>
      <trkpt lat="44.74705" lon="1.6301">
        <ele>265.1</ele>
        <time>2022-08-08T06:04:38Z</time>
      </trkpt>
      <trkpt lat="44.74701" lon="1.6301">
        <ele>265.4</ele>
        <time>2022-08-08T06:04:40Z</time>
      </trkpt>
      <trkpt lat="44.74697" lon="1.6301">
        <ele>265.7</ele>
        <time>2022-08-08T06:04:42Z</time>
      </trkpt>
      <trkpt lat="44.74694" lon="1.6301">
        <ele>266</ele>
        <time>2022-08-08T06:04:44Z</time>
      </trkpt>
      <trkpt lat="44.7469" lon="1.6301">
        <ele>266.3</ele>
        <time>2022-08-08T06:04:46Z</time>
      </trkpt>
      <trkpt lat="44.74685" lon="1.63012">
        <ele>266.7</ele>
        <time>2022-08-08T06:04:48Z</time>
      </trkpt>
      <trkpt lat="44.74681" lon="1.63011">
        <ele>267.1</ele>
        <time>2022-08-08T06:04:50Z</time>
      </trkpt>
      <trkpt lat="44.74677" lon="1.63009">
        <ele>267.5</ele>
        <time>2022-08-08T06:04:52Z</time>
      </trkpt>
      <trkpt lat="44.74674" lon="1.63007">
        <ele>267.9</ele>
        <time>2022-08-08T06:04:54Z</time>
      </trkpt>
      <trkpt lat="44.7467" lon="1.63006">
        <ele>268.4</ele>
        <time>2022-08-08T06:04:56Z</time>
      </trkpt>
      <trkpt lat="44.74666" lon="1.63003">
        <ele>268.9</ele>
        <time>2022-08-08T06:04:58Z</time>
      </trkpt>
      <trkpt lat="44.74662" lon="1.63001">
        <ele>269.5</ele>
        <time>2022-08-08T06:05:00Z</time>
      </trkpt>
      <trkpt lat="44.74659" lon="1.63">
        <ele>270.1</ele>
        <time>2022-08-08T06:05:02Z</time>
      </trkpt>
      <trkpt lat="44.74655" lon="1.62998">
        <ele>271</ele>
        <time>2022-08-08T06:05:04Z</time>
      </trkpt>
      <trkpt lat="44.74651" lon="1.62997">
        <ele>271.7</ele>
        <time>2022-08-08T06:05:06Z</time>
      </trkpt>
      <trkpt lat="44.74648" lon="1.62994">
        <ele>272.5</ele>
        <time>2022-08-08T06:05:08Z</time>
      </trkpt>
      <trkpt lat="44.74644" lon="1.62993">
        <ele>273.2</ele>
        <time>2022-08-08T06:05:10Z</time>
      </trkpt>
      <trkpt lat="44.7464" lon="1.62993">
        <ele>273.7</ele>
        <time>2022-08-08T06:05:12Z</time>
      </trkpt>
      <trkpt lat="44.74635" lon="1.62994">
        <ele>274.1</ele>
        <time>2022-08-08T06:05:14Z</time>
      </trkpt>
      <trkpt lat="44.74631" lon="1.62995">
        <ele>274.5</ele>
        <time>2022-08-08T06:05:16Z</time>
      </trkpt>
      <trkpt lat="44.74628" lon="1.62995">
        <ele>274.9</ele>
        <time>2022-08-08T06:05:18Z</time>
      </trkpt>
      <trkpt lat="44.74624" lon="1.62998">
        <ele>274.9</ele>
        <time>2022-08-08T06:05:20Z</time>
      </trkpt>
      <trkpt lat="44.74621" lon="1.63">
        <ele>275</ele>
        <time>2022-08-08T06:05:22Z</time>
      </trkpt>
      <trkpt lat="44.74617" lon="1.63002">
        <ele>275.3</ele>
        <time>2022-08-08T06:05:24Z</time>
      </trkpt>
      <trkpt lat="44.74613" lon="1.63005">
        <ele>275.4</ele>
        <time>2022-08-08T06:05:26Z</time>
      </trkpt>
      <trkpt lat="44.74609" lon="1.63007">
        <ele>275.7</ele>
        <time>2022-08-08T06:05:28Z</time>
      </trkpt>
      <trkpt lat="44.74605" lon="1.63009">
        <ele>275.8</ele>
        <time>2022-08-08T06:05:30Z</time>
      </trkpt>
      <trkpt lat="44.74601" lon="1.63012">
        <ele>275.9</ele>
        <time>2022-08-08T06:05:32Z</time>
      </trkpt>
      <trkpt lat="44.74598" lon="1.63015">
        <ele>275.8</ele>
        <time>2022-08-08T06:05:34Z</time>
      </trkpt>
      <trkpt lat="44.74594" lon="1.63018">
        <ele>275.8</ele>
        <time>2022-08-08T06:05:36Z</time>
      </trkpt>
      <trkpt lat="44.7459" lon="1.6302">
        <ele>275.8</ele>
        <time>2022-08-08T06:05:38Z</time>
      </trkpt>
      <trkpt lat="44.74587" lon="1.63023">
        <ele>275.7</ele>
        <time>2022-08-08T06:05:40Z</time>
      </trkpt>
      <trkpt lat="44.74584" lon="1.63026">
        <ele>275.6</ele>
        <time>2022-08-08T06:05:42Z</time>
      </trkpt>
      <trkpt lat="44.7458" lon="1.63029">
        <ele>275.6</ele>
        <time>2022-08-08T06:05:44Z</time>
      </trkpt>
      <trkpt lat="44.74577" lon="1.63031">
        <ele>275.8</ele>
        <time>2022-08-08T06:05:46Z</time>
      </trkpt>
      <trkpt lat="44.74574" lon="1.63033">
        <ele>276.1</ele>
        <time>2022-08-08T06:05:48Z</time>
      </trkpt>
      <trkpt lat="44.7457" lon="1.63036">
        <ele>276.2</ele>
        <time>2022-08-08T06:05:50Z</time>
      </trkpt>
      <trkpt lat="44.74567" lon="1.63038">
        <ele>276.4</ele>
        <time>2022-08-08T06:05:52Z</time>
      </trkpt>
      <trkpt lat="44.74564" lon="1.63042">
        <ele>276.3</ele>
        <time>2022-08-08T06:05:54Z</time>
      </trkpt>
      <trkpt lat="44.74561" lon="1.63046">
        <ele>276.4</ele>
        <time>2022-08-08T06:05:56Z</time>
      </trkpt>
      <trkpt lat="44.74557" lon="1.6305">
        <ele>276.4</ele>
        <time>2022-08-08T06:05:58Z</time>
      </trkpt>
      <trkpt lat="44.74554" lon="1.63052">
        <ele>276.6</ele>
        <time>2022-08-08T06:06:00Z</time>
      </trkpt>
      <trkpt lat="44.74551" lon="1.63055">
        <ele>276.7</ele>
        <time>2022-08-08T06:06:02Z</time>
      </trkpt>
      <trkpt lat="44.74548" lon="1.63058">
        <ele>277.1</ele>
        <time>2022-08-08T06:06:04Z</time>
      </trkpt>
      <trkpt lat="44.74544" lon="1.6306">
        <ele>277.5</ele>
        <time>2022-08-08T06:06:06Z</time>
      </trkpt>
      <trkpt lat="44.74541" lon="1.63063">
        <ele>277.6</ele>
        <time>2022-08-08T06:06:08Z</time>
      </trkpt>
      <trkpt lat="44.74537" lon="1.63065">
        <ele>278.1</ele>
        <time>2022-08-08T06:06:10Z</time>
      </trkpt>
      <trkpt lat="44.74534" lon="1.63068">
        <ele>278.5</ele>
        <time>2022-08-08T06:06:12Z</time>
      </trkpt>
      <trkpt lat="44.7453" lon="1.6307">
        <ele>278.9</ele>
        <time>2022-08-08T06:06:14Z</time>
      </trkpt>
      <trkpt lat="44.74526" lon="1.63073">
        <ele>279.5</ele>
        <time>2022-08-08T06:06:16Z</time>
      </trkpt>
      <trkpt lat="44.74523" lon="1.63076">
        <ele>279.9</ele>
        <time>2022-08-08T06:06:18Z</time>
      </trkpt>
      <trkpt lat="44.74519" lon="1.63076">
        <ele>280.6</ele>
        <time>2022-08-08T06:06:20Z</time>
      </trkpt>
      <trkpt lat="44.74516" lon="1.63079">
        <ele>281</ele>
        <time>2022-08-08T06:06:22Z</time>
      </trkpt>
      <trkpt lat="44.74513" lon="1.63082">
        <ele>281.3</ele>
        <time>2022-08-08T06:06:24Z</time>
      </trkpt>
      <trkpt lat="44.7451" lon="1.63084">
        <ele>281.8</ele>
        <time>2022-08-08T06:06:26Z</time>
      </trkpt>
      <trkpt lat="44.74509" lon="1.63088">
        <ele>281.4</ele>
        <time>2022-08-08T06:06:28Z</time>
      </trkpt>
      <trkpt lat="44.74507" lon="1.63094">
        <ele>281.1</ele>
        <time>2022-08-08T06:06:30Z</time>
      </trkpt>
      <trkpt lat="44.74507" lon="1.63099">
        <ele>280.4</ele>
        <time>2022-08-08T06:06:32Z</time>
      </trkpt>
      <trkpt lat="44.74507" lon="1.63104">
        <ele>279.9</ele>
        <time>2022-08-08T06:06:34Z</time>
      </trkpt>
      <trkpt lat="44.74506" lon="1.63109">
        <ele>279.4</ele>
        <time>2022-08-08T06:06:36Z</time>
      </trkpt>
      <trkpt lat="44.74506" lon="1.63114">
        <ele>278.7</ele>
        <time>2022-08-08T06:06:38Z</time>
      </trkpt>
      <trkpt lat="44.74506" lon="1.63119">
        <ele>278.1</ele>
        <time>2022-08-08T06:06:40Z</time>
      </trkpt>
      <trkpt lat="44.74504" lon="1.63124">
        <ele>277.6</ele>
        <time>2022-08-08T06:06:42Z</time>
      </trkpt>
      <trkpt lat="44.74502" lon="1.63129">
        <ele>277.1</ele>
        <time>2022-08-08T06:06:44Z</time>
      </trkpt>
      <trkpt lat="44.74499" lon="1.63134">
        <ele>276.8</ele>
        <time>2022-08-08T06:06:46Z</time>
      </trkpt>
      <trkpt lat="44.74497" lon="1.63139">
        <ele>276.5</ele>
        <time>2022-08-08T06:06:48Z</time>
      </trkpt>
      <trkpt lat="44.74493" lon="1.63143">
        <ele>276.5</ele>
        <time>2022-08-08T06:06:50Z</time>
      </trkpt>
      <trkpt lat="44.7449" lon="1.63148">
        <ele>276.5</ele>
        <time>2022-08-08T06:06:52Z</time>
      </trkpt>
      <trkpt lat="44.74487" lon="1.63151">
        <ele>276.5</ele>
        <time>2022-08-08T06:06:54Z</time>
      </trkpt>
      <trkpt lat="44.74484" lon="1.63155">
        <ele>276.5</ele>
        <time>2022-08-08T06:06:56Z</time>
      </trkpt>
      <trkpt lat="44.74481" lon="1.63159">
        <ele>276.4</ele>
        <time>2022-08-08T06:06:58Z</time>
      </trkpt>
      <trkpt lat="44.74478" lon="1.63162">
        <ele>276.5</ele>
        <time>2022-08-08T06:07:00Z</time>
      </trkpt>
      <trkpt lat="44.74475" lon="1.63165">
        <ele>276.7</ele>
        <time>2022-08-08T06:07:02Z</time>
      </trkpt>
      <trkpt lat="44.74471" lon="1.63166">
        <ele>277.2</ele>
        <time>2022-08-08T06:07:04Z</time>
      </trkpt>
      <trkpt lat="44.74468" lon="1.63169">
        <ele>277.7</ele>
        <time>2022-08-08T06:07:06Z</time>
      </trkpt>
      <trkpt lat="44.74464" lon="1.63171">
        <ele>278.2</ele>
        <time>2022-08-08T06:07:08Z</time>
      </trkpt>
      <trkpt lat="44.74461" lon="1.63174">
        <ele>278.7</ele>
        <time>2022-08-08T06:07:10Z</time>
      </trkpt>
      <trkpt lat="44.74457" lon="1.63176">
        <ele>279.2</ele>
        <time>2022-08-08T06:07:12Z</time>
      </trkpt>
      <trkpt lat="44.74454" lon="1.63178">
        <ele>279.6</ele>
        <time>2022-08-08T06:07:14Z</time>
      </trkpt>
      <trkpt lat="44.7445" lon="1.63181">
        <ele>280</ele>
        <time>2022-08-08T06:07:16Z</time>
      </trkpt>
      <trkpt lat="44.74447" lon="1.63183">
        <ele>280.4</ele>
        <time>2022-08-08T06:07:18Z</time>
      </trkpt>
      <trkpt lat="44.74444" lon="1.63185">
        <ele>280.8</ele>
        <time>2022-08-08T06:07:20Z</time>
      </trkpt>
      <trkpt lat="44.7444" lon="1.63187">
        <ele>281.2</ele>
        <time>2022-08-08T06:07:22Z</time>
      </trkpt>
      <trkpt lat="44.74437" lon="1.63188">
        <ele>281.6</ele>
        <time>2022-08-08T06:07:24Z</time>
      </trkpt>
      <trkpt lat="44.74434" lon="1.6319">
        <ele>281.9</ele>
        <time>2022-08-08T06:07:26Z</time>
      </trkpt>
      <trkpt lat="44.7443" lon="1.63192">
        <ele>282.3</ele>
        <time>2022-08-08T06:07:28Z</time>
      </trkpt>
      <trkpt lat="44.74427" lon="1.63193">
        <ele>282.7</ele>
        <time>2022-08-08T06:07:30Z</time>
      </trkpt>
      <trkpt lat="44.74423" lon="1.63194">
        <ele>283.2</ele>
        <time>2022-08-08T06:07:32Z</time>
      </trkpt>
      <trkpt lat="44.74419" lon="1.63194">
        <ele>283.6</ele>
        <time>2022-08-08T06:07:34Z</time>
      </trkpt>
      <trkpt lat="44.74416" lon="1.63194">
        <ele>284.1</ele>
        <time>2022-08-08T06:07:36Z</time>
      </trkpt>
      <trkpt lat="44.74412" lon="1.63194">
        <ele>284.4</ele>
        <time>2022-08-08T06:07:38Z</time>
      </trkpt>
      <trkpt lat="44.74409" lon="1.63194">
        <ele>284.8</ele>
        <time>2022-08-08T06:07:40Z</time>
      </trkpt>
      <trkpt lat="44.74405" lon="1.63192">
        <ele>285.2</ele>
        <time>2022-08-08T06:07:42Z</time>
      </trkpt>
      <trkpt lat="44.74402" lon="1.63192">
        <ele>285.5</ele>
        <time>2022-08-08T06:07:44Z</time>
      </trkpt>
      <trkpt lat="44.74398" lon="1.63191">
        <ele>285.9</ele>
        <time>2022-08-08T06:07:46Z</time>
      </trkpt>
      <trkpt lat="44.74395" lon="1.63188">
        <ele>286.4</ele>
        <time>2022-08-08T06:07:48Z</time>
      </trkpt>
      <trkpt lat="44.74392" lon="1.63186">
        <ele>286.9</ele>
        <time>2022-08-08T06:07:50Z</time>
      </trkpt>
      <trkpt lat="44.74388" lon="1.63185">
        <ele>287.2</ele>
        <time>2022-08-08T06:07:52Z</time>
      </trkpt>
      <trkpt lat="44.74384" lon="1.63184">
        <ele>287.6</ele>
        <time>2022-08-08T06:07:54Z</time>
      </trkpt>
      <trkpt lat="44.74381" lon="1.63182">
        <ele>288</ele>
        <time>2022-08-08T06:07:56Z</time>
      </trkpt>
      <trkpt lat="44.74377" lon="1.63182">
        <ele>288.3</ele>
        <time>2022-08-08T06:07:58Z</time>
      </trkpt>
      <trkpt lat="44.74373" lon="1.6318">
        <ele>288.7</ele>
        <time>2022-08-08T06:08:00Z</time>
      </trkpt>
      <trkpt lat="44.7437" lon="1.63179">
        <ele>289</ele>
        <time>2022-08-08T06:08:02Z</time>
      </trkpt>
      <trkpt lat="44.74367" lon="1.63177">
        <ele>289.4</ele>
        <time>2022-08-08T06:08:04Z</time>
      </trkpt>
      <trkpt lat="44.74363" lon="1.63176">
        <ele>289.7</ele>
        <time>2022-08-08T06:08:06Z</time>
      </trkpt>
      <trkpt lat="44.74359" lon="1.63175">
        <ele>290</ele>
        <time>2022-08-08T06:08:08Z</time>
      </trkpt>
      <trkpt lat="44.74356" lon="1.63175">
        <ele>290.3</ele>
        <time>2022-08-08T06:08:10Z</time>
      </trkpt>
      <trkpt lat="44.74352" lon="1.63174">
        <ele>290.6</ele>
        <time>2022-08-08T06:08:12Z</time>
      </trkpt>
      <trkpt lat="44.74349" lon="1.63174">
        <ele>290.8</ele>
        <time>2022-08-08T06:08:14Z</time>
      </trkpt>
      <trkpt lat="44.74345" lon="1.63173">
        <ele>291.1</ele>
        <time>2022-08-08T06:08:16Z</time>
      </trkpt>
      <trkpt lat="44.74341" lon="1.63173">
        <ele>291.3</ele>
        <time>2022-08-08T06:08:18Z</time>
      </trkpt>
      <trkpt lat="44.74337" lon="1.63172">
        <ele>291.6</ele>
        <time>2022-08-08T06:08:20Z</time>
      </trkpt>
      <trkpt lat="44.74333" lon="1.63172">
        <ele>291.9</ele>
        <time>2022-08-08T06:08:22Z</time>
      </trkpt>
      <trkpt lat="44.74329" lon="1.63172">
        <ele>292</ele>
        <time>2022-08-08T06:08:24Z</time>
      </trkpt>
      <trkpt lat="44.74326" lon="1.63171">
        <ele>292.2</ele>
        <time>2022-08-08T06:08:26Z</time>
      </trkpt>
      <trkpt lat="44.74322" lon="1.63172">
        <ele>292.3</ele>
        <time>2022-08-08T06:08:28Z</time>
      </trkpt>
      <trkpt lat="44.74318" lon="1.63171">
        <ele>292.5</ele>
        <time>2022-08-08T06:08:30Z</time>
      </trkpt>
      <trkpt lat="44.74315" lon="1.63171">
        <ele>292.6</ele>
        <time>2022-08-08T06:08:32Z</time>
      </trkpt>
      <trkpt lat="44.74311" lon="1.6317">
        <ele>292.8</ele>
        <time>2022-08-08T06:08:34Z</time>
      </trkpt>
      <trkpt lat="44.74307" lon="1.63171">
        <ele>293</ele>
        <time>2022-08-08T06:08:36Z</time>
      </trkpt>
      <trkpt lat="44.74303" lon="1.63171">
        <ele>293.1</ele>
        <time>2022-08-08T06:08:38Z</time>
      </trkpt>
      <trkpt lat="44.74299" lon="1.63171">
        <ele>293.3</ele>
        <time>2022-08-08T06:08:40Z</time>
      </trkpt>
      <trkpt lat="44.74295" lon="1.6317">
        <ele>293.4</ele>
        <time>2022-08-08T06:08:42Z</time>
      </trkpt>
      <trkpt lat="44.74292" lon="1.63167">
        <ele>293.5</ele>
        <time>2022-08-08T06:08:44Z</time>
      </trkpt>
      <trkpt lat="44.74288" lon="1.63166">
        <ele>293.7</ele>
        <time>2022-08-08T06:08:46Z</time>
      </trkpt>
      <trkpt lat="44.74284" lon="1.63162">
        <ele>294.1</ele>
        <time>2022-08-08T06:08:48Z</time>
      </trkpt>
      <trkpt lat="44.74281" lon="1.63159">
        <ele>294.4</ele>
        <time>2022-08-08T06:08:50Z</time>
      </trkpt>
      <trkpt lat="44.74278" lon="1.63155">
        <ele>294.8</ele>
        <time>2022-08-08T06:08:52Z</time>
      </trkpt>
      <trkpt lat="44.74276" lon="1.6315">
        <ele>295.1</ele>
        <time>2022-08-08T06:08:54Z</time>
      </trkpt>
      <trkpt lat="44.74274" lon="1.63145">
        <ele>295.5</ele>
        <time>2022-08-08T06:08:56Z</time>
      </trkpt>
      <trkpt lat="44.74272" lon="1.6314">
        <ele>295.9</ele>
        <time>2022-08-08T06:08:58Z</time>
      </trkpt>
      <trkpt lat="44.7427" lon="1.63134">
        <ele>296.2</ele>
        <time>2022-08-08T06:09:00Z</time>
      </trkpt>
      <trkpt lat="44.7427" lon="1.63128">
        <ele>296.5</ele>
        <time>2022-08-08T06:09:02Z</time>
      </trkpt>
      <trkpt lat="44.74268" lon="1.63123">
        <ele>296.8</ele>
        <time>2022-08-08T06:09:04Z</time>
      </trkpt>
      <trkpt lat="44.74268" lon="1.63117">
        <ele>297.1</ele>
        <time>2022-08-08T06:09:06Z</time>
      </trkpt>
      <trkpt lat="44.74267" lon="1.63112">
        <ele>297.5</ele>
        <time>2022-08-08T06:09:08Z</time>
      </trkpt>
      <trkpt lat="44.74267" lon="1.63106">
        <ele>297.8</ele>
        <time>2022-08-08T06:09:10Z</time>
      </trkpt>
      <trkpt lat="44.74267" lon="1.63101">
        <ele>298.1</ele>
        <time>2022-08-08T06:09:12Z</time>
      </trkpt>
      <trkpt lat="44.74266" lon="1.63096">
        <ele>298.3</ele>
        <time>2022-08-08T06:09:14Z</time>
      </trkpt>
      <trkpt lat="44.74265" lon="1.6309">
        <ele>298.5</ele>
        <time>2022-08-08T06:09:16Z</time>
      </trkpt>
      <trkpt lat="44.74265" lon="1.63085">
        <ele>298.8</ele>
        <time>2022-08-08T06:09:18Z</time>
      </trkpt>
      <trkpt lat="44.74264" lon="1.6308">
        <ele>299.1</ele>
        <time>2022-08-08T06:09:20Z</time>
      </trkpt>
      <trkpt lat="44.74264" lon="1.63074">
        <ele>299.5</ele>
        <time>2022-08-08T06:09:22Z</time>
      </trkpt>
      <trkpt lat="44.74264" lon="1.63069">
        <ele>299.8</ele>
        <time>2022-08-08T06:09:24Z</time>
      </trkpt>
      <trkpt lat="44.74262" lon="1.63065">
        <ele>300.1</ele>
        <time>2022-08-08T06:09:26Z</time>
      </trkpt>
      <trkpt lat="44.74261" lon="1.6306">
        <ele>300.3</ele>
        <time>2022-08-08T06:09:28Z</time>
      </trkpt>
      <trkpt lat="44.7426" lon="1.63055">
        <ele>300.6</ele>
        <time>2022-08-08T06:09:30Z</time>
      </trkpt>
      <trkpt lat="44.74259" lon="1.63051">
        <ele>300.9</ele>
        <time>2022-08-08T06:09:32Z</time>
      </trkpt>
      <trkpt lat="44.74258" lon="1.63046">
        <ele>301.2</ele>
        <time>2022-08-08T06:09:34Z</time>
      </trkpt>
      <trkpt lat="44.74257" lon="1.63042">
        <ele>301.4</ele>
        <time>2022-08-08T06:09:36Z</time>
      </trkpt>
      <trkpt lat="44.74255" lon="1.63038">
        <ele>301.5</ele>
        <time>2022-08-08T06:09:38Z</time>
      </trkpt>
      <trkpt lat="44.74254" lon="1.63034">
        <ele>301.8</ele>
        <time>2022-08-08T06:09:40Z</time>
      </trkpt>
      <trkpt lat="44.74252" lon="1.6303">
        <ele>302</ele>
        <time>2022-08-08T06:09:42Z</time>
      </trkpt>
      <trkpt lat="44.74251" lon="1.63025">
        <ele>302.2</ele>
        <time>2022-08-08T06:09:44Z</time>
      </trkpt>
      <trkpt lat="44.74249" lon="1.63022">
        <ele>302.4</ele>
        <time>2022-08-08T06:09:46Z</time>
      </trkpt>
      <trkpt lat="44.74247" lon="1.63018">
        <ele>302.8</ele>
        <time>2022-08-08T06:09:48Z</time>
      </trkpt>
      <trkpt lat="44.74245" lon="1.63015">
        <ele>303</ele>
        <time>2022-08-08T06:09:50Z</time>
      </trkpt>
      <trkpt lat="44.74244" lon="1.6301">
        <ele>303.3</ele>
        <time>2022-08-08T06:09:52Z</time>
      </trkpt>
      <trkpt lat="44.74242" lon="1.63007">
        <ele>303.6</ele>
        <time>2022-08-08T06:09:54Z</time>
      </trkpt>
      <trkpt lat="44.7424" lon="1.63004">
        <ele>303.8</ele>
        <time>2022-08-08T06:09:56Z</time>
      </trkpt>
      <trkpt lat="44.74238" lon="1.63">
        <ele>304</ele>
        <time>2022-08-08T06:09:58Z</time>
      </trkpt>
      <trkpt lat="44.74236" lon="1.62997">
        <ele>304.2</ele>
        <time>2022-08-08T06:10:00Z</time>
      </trkpt>
      <trkpt lat="44.74234" lon="1.62993">
        <ele>304.5</ele>
        <time>2022-08-08T06:10:02Z</time>
      </trkpt>
      <trkpt lat="44.74231" lon="1.6299">
        <ele>304.7</ele>
        <time>2022-08-08T06:10:04Z</time>
      </trkpt>
      <trkpt lat="44.74229" lon="1.62987">
        <ele>304.9</ele>
        <time>2022-08-08T06:10:06Z</time>
      </trkpt>
      <trkpt lat="44.74227" lon="1.62984">
        <ele>305.1</ele>
        <time>2022-08-08T06:10:08Z</time>
      </trkpt>
      <trkpt lat="44.74224" lon="1.62981">
        <ele>305.2</ele>
        <time>2022-08-08T06:10:10Z</time>
      </trkpt>
      <trkpt lat="44.74221" lon="1.62978">
        <ele>305.4</ele>
        <time>2022-08-08T06:10:12Z</time>
      </trkpt>
      <trkpt lat="44.74219" lon="1.62976">
        <ele>305.5</ele>
        <time>2022-08-08T06:10:14Z</time>
      </trkpt>
      <trkpt lat="44.74216" lon="1.62973">
        <ele>305.7</ele>
        <time>2022-08-08T06:10:16Z</time>
      </trkpt>
      <trkpt lat="44.74213" lon="1.62971">
        <ele>305.8</ele>
        <time>2022-08-08T06:10:18Z</time>
      </trkpt>
      <trkpt lat="44.7421" lon="1.62969">
        <ele>305.9</ele>
        <time>2022-08-08T06:10:20Z</time>
      </trkpt>
      <trkpt lat="44.74207" lon="1.62967">
        <ele>306</ele>
        <time>2022-08-08T06:10:22Z</time>
      </trkpt>
      <trkpt lat="44.74204" lon="1.62965">
        <ele>306</ele>
        <time>2022-08-08T06:10:24Z</time>
      </trkpt>
      <trkpt lat="44.74201" lon="1.62963">
        <ele>306.1</ele>
        <time>2022-08-08T06:10:26Z</time>
      </trkpt>
      <trkpt lat="44.74198" lon="1.62962">
        <ele>306.2</ele>
        <time>2022-08-08T06:10:28Z</time>
      </trkpt>
      <trkpt lat="44.74195" lon="1.62959">
        <ele>306.3</ele>
        <time>2022-08-08T06:10:30Z</time>
      </trkpt>
      <trkpt lat="44.74192" lon="1.62956">
        <ele>306.4</ele>
        <time>2022-08-08T06:10:32Z</time>
      </trkpt>
      <trkpt lat="44.74189" lon="1.62953">
        <ele>306.6</ele>
        <time>2022-08-08T06:10:34Z</time>
      </trkpt>
      <trkpt lat="44.74185" lon="1.6295">
        <ele>306.7</ele>
        <time>2022-08-08T06:10:36Z</time>
      </trkpt>
      <trkpt lat="44.74182" lon="1.62948">
        <ele>306.7</ele>
        <time>2022-08-08T06:10:38Z</time>
      </trkpt>
      <trkpt lat="44.74179" lon="1.62946">
        <ele>306.8</ele>
        <time>2022-08-08T06:10:40Z</time>
      </trkpt>
      <trkpt lat="44.74176" lon="1.62944">
        <ele>306.8</ele>
        <time>2022-08-08T06:10:42Z</time>
      </trkpt>
      <trkpt lat="44.74173" lon="1.62942">
        <ele>306.9</ele>
        <time>2022-08-08T06:10:44Z</time>
      </trkpt>
      <trkpt lat="44.74169" lon="1.62939">
        <ele>307</ele>
        <time>2022-08-08T06:10:46Z</time>
      </trkpt>
      <trkpt lat="44.74166" lon="1.62936">
        <ele>307.1</ele>
        <time>2022-08-08T06:10:48Z</time>
      </trkpt>
      <trkpt lat="44.74163" lon="1.62934">
        <ele>307.2</ele>
        <time>2022-08-08T06:10:50Z</time>
      </trkpt>
      <trkpt lat="44.74159" lon="1.62931">
        <ele>307.4</ele>
        <time>2022-08-08T06:10:52Z</time>
      </trkpt>
      <trkpt lat="44.74156" lon="1.62929">
        <ele>307.5</ele>
        <time>2022-08-08T06:10:54Z</time>
      </trkpt>
      <trkpt lat="44.74152" lon="1.62926">
        <ele>307.7</ele>
        <time>2022-08-08T06:10:56Z</time>
      </trkpt>
      <trkpt lat="44.74149" lon="1.62923">
        <ele>307.8</ele>
        <time>2022-08-08T06:10:58Z</time>
      </trkpt>
      <trkpt lat="44.74146" lon="1.62921">
        <ele>307.9</ele>
        <time>2022-08-08T06:11:00Z</time>
      </trkpt>
      <trkpt lat="44.74142" lon="1.62918">
        <ele>308</ele>
        <time>2022-08-08T06:11:02Z</time>
      </trkpt>
      <trkpt lat="44.74139" lon="1.62916">
        <ele>308.1</ele>
        <time>2022-08-08T06:11:04Z</time>
      </trkpt>
      <trkpt lat="44.74135" lon="1.62913">
        <ele>308.3</ele>
        <time>2022-08-08T06:11:06Z</time>
      </trkpt>
      <trkpt lat="44.74131" lon="1.62911">
        <ele>308.5</ele>
        <time>2022-08-08T06:11:08Z</time>
      </trkpt>
      <trkpt lat="44.74128" lon="1.62908">
        <ele>308.7</ele>
        <time>2022-08-08T06:11:10Z</time>
      </trkpt>
      <trkpt lat="44.74124" lon="1.62906">
        <ele>308.8</ele>
        <time>2022-08-08T06:11:12Z</time>
      </trkpt>
      <trkpt lat="44.74121" lon="1.62903">
        <ele>309</ele>
        <time>2022-08-08T06:11:14Z</time>
      </trkpt>
      <trkpt lat="44.74117" lon="1.62901">
        <ele>309.2</ele>
        <time>2022-08-08T06:11:16Z</time>
      </trkpt>
      <trkpt lat="44.74113" lon="1.62898">
        <ele>309.3</ele>
        <time>2022-08-08T06:11:18Z</time>
      </trkpt>
      <trkpt lat="44.7411" lon="1.62896">
        <ele>309.4</ele>
        <time>2022-08-08T06:11:20Z</time>
      </trkpt>
      <trkpt lat="44.74107" lon="1.62893">
        <ele>309.6</ele>
        <time>2022-08-08T06:11:22Z</time>
      </trkpt>
      <trkpt lat="44.74104" lon="1.6289">
        <ele>309.7</ele>
        <time>2022-08-08T06:11:24Z</time>
      </trkpt>
      <trkpt lat="44.74101" lon="1.62887">
        <ele>309.8</ele>
        <time>2022-08-08T06:11:26Z</time>
      </trkpt>
      <trkpt lat="44.74097" lon="1.62885">
        <ele>309.8</ele>
        <time>2022-08-08T06:11:28Z</time>
      </trkpt>
      <trkpt lat="44.74094" lon="1.62882">
        <ele>309.9</ele>
        <time>2022-08-08T06:11:30Z</time>
      </trkpt>
      <trkpt lat="44.7409" lon="1.6288">
        <ele>309.9</ele>
        <time>2022-08-08T06:11:32Z</time>
      </trkpt>
      <trkpt lat="44.74087" lon="1.62878">
        <ele>310</ele>
        <time>2022-08-08T06:11:34Z</time>
      </trkpt>
      <trkpt lat="44.74083" lon="1.62875">
        <ele>310</ele>
        <time>2022-08-08T06:11:36Z</time>
      </trkpt>
      <trkpt lat="44.7408" lon="1.62872">
        <ele>310.3</ele>
        <time>2022-08-08T06:11:38Z</time>
      </trkpt>
      <trkpt lat="44.74076" lon="1.6287">
        <ele>310.5</ele>
        <time>2022-08-08T06:11:40Z</time>
      </trkpt>
      <trkpt lat="44.74073" lon="1.62867">
        <ele>310.8</ele>
        <time>2022-08-08T06:11:42Z</time>
      </trkpt>
      <trkpt lat="44.74069" lon="1.62864">
        <ele>311</ele>
        <time>2022-08-08T06:11:44Z</time>
      </trkpt>
      <trkpt lat="44.74066" lon="1.62862">
        <ele>311.2</ele>
        <time>2022-08-08T06:11:46Z</time>
      </trkpt>
      <trkpt lat="44.74062" lon="1.62859">
        <ele>311.4</ele>
        <time>2022-08-08T06:11:48Z</time>
      </trkpt>
      <trkpt lat="44.74059" lon="1.62856">
        <ele>311.6</ele>
        <time>2022-08-08T06:11:50Z</time>
      </trkpt>
      <trkpt lat="44.74055" lon="1.62853">
        <ele>311.8</ele>
        <time>2022-08-08T06:11:52Z</time>
      </trkpt>
      <trkpt lat="44.74052" lon="1.62851">
        <ele>311.9</ele>
        <time>2022-08-08T06:11:54Z</time>
      </trkpt>
      <trkpt lat="44.74048" lon="1.62848">
        <ele>312.1</ele>
        <time>2022-08-08T06:11:56Z</time>
      </trkpt>
      <trkpt lat="44.74044" lon="1.62846">
        <ele>312.2</ele>
        <time>2022-08-08T06:11:58Z</time>
      </trkpt>
      <trkpt lat="44.74041" lon="1.62843">
        <ele>312.4</ele>
        <time>2022-08-08T06:12:00Z</time>
      </trkpt>
      <trkpt lat="44.74037" lon="1.62839">
        <ele>312.5</ele>
        <time>2022-08-08T06:12:02Z</time>
      </trkpt>
      <trkpt lat="44.74033" lon="1.62837">
        <ele>312.6</ele>
        <time>2022-08-08T06:12:04Z</time>
      </trkpt>
      <trkpt lat="44.74029" lon="1.62834">
        <ele>312.6</ele>
        <time>2022-08-08T06:12:06Z</time>
      </trkpt>
      <trkpt lat="44.74025" lon="1.62831">
        <ele>312.8</ele>
        <time>2022-08-08T06:12:08Z</time>
      </trkpt>
      <trkpt lat="44.74021" lon="1.62829">
        <ele>313</ele>
        <time>2022-08-08T06:12:10Z</time>
      </trkpt>
      <trkpt lat="44.74017" lon="1.62827">
        <ele>313.2</ele>
        <time>2022-08-08T06:12:12Z</time>
      </trkpt>
      <trkpt lat="44.74013" lon="1.62826">
        <ele>313.3</ele>
        <time>2022-08-08T06:12:14Z</time>
      </trkpt>
      <trkpt lat="44.74009" lon="1.62824">
        <ele>313.4</ele>
        <time>2022-08-08T06:12:16Z</time>
      </trkpt>
      <trkpt lat="44.74005" lon="1.62823">
        <ele>313.5</ele>
        <time>2022-08-08T06:12:18Z</time>
      </trkpt>
      <trkpt lat="44.74" lon="1.62823">
        <ele>313.5</ele>
        <time>2022-08-08T06:12:20Z</time>
      </trkpt>
      <trkpt lat="44.73996" lon="1.62823">
        <ele>313.8</ele>
        <time>2022-08-08T06:12:22Z</time>
      </trkpt>
      <trkpt lat="44.73992" lon="1.62823">
        <ele>314.2</ele>
        <time>2022-08-08T06:12:24Z</time>
      </trkpt>
      <trkpt lat="44.73988" lon="1.62823">
        <ele>314.5</ele>
        <time>2022-08-08T06:12:26Z</time>
      </trkpt>
      <trkpt lat="44.73984" lon="1.62826">
        <ele>314.7</ele>
        <time>2022-08-08T06:12:28Z</time>
      </trkpt>
      <trkpt lat="44.7398" lon="1.62828">
        <ele>315</ele>
        <time>2022-08-08T06:12:30Z</time>
      </trkpt>
      <trkpt lat="44.73975" lon="1.6283">
        <ele>315.2</ele>
        <time>2022-08-08T06:12:32Z</time>
      </trkpt>
      <trkpt lat="44.73971" lon="1.62832">
        <ele>315.5</ele>
        <time>2022-08-08T06:12:34Z</time>
      </trkpt>
      <trkpt lat="44.73967" lon="1.62834">
        <ele>315.7</ele>
        <time>2022-08-08T06:12:36Z</time>
      </trkpt>
      <trkpt lat="44.73963" lon="1.62837">
        <ele>316.1</ele>
        <time>2022-08-08T06:12:38Z</time>
      </trkpt>
      <trkpt lat="44.73959" lon="1.62839">
        <ele>316.4</ele>
        <time>2022-08-08T06:12:40Z</time>
      </trkpt>
      <trkpt lat="44.73955" lon="1.62842">
        <ele>316.8</ele>
        <time>2022-08-08T06:12:42Z</time>
      </trkpt>
      <trkpt lat="44.73951" lon="1.62844">
        <ele>317.1</ele>
        <time>2022-08-08T06:12:44Z</time>
      </trkpt>
      <trkpt lat="44.73947" lon="1.62847">
        <ele>317.4</ele>
        <time>2022-08-08T06:12:46Z</time>
      </trkpt>
      <trkpt lat="44.73943" lon="1.62849">
        <ele>317.7</ele>
        <time>2022-08-08T06:12:48Z</time>
      </trkpt>
      <trkpt lat="44.73939" lon="1.62851">
        <ele>318</ele>
        <time>2022-08-08T06:12:50Z</time>
      </trkpt>
      <trkpt lat="44.73936" lon="1.62854">
        <ele>318.3</ele>
        <time>2022-08-08T06:12:52Z</time>
      </trkpt>
      <trkpt lat="44.73932" lon="1.62856">
        <ele>318.5</ele>
        <time>2022-08-08T06:12:54Z</time>
      </trkpt>
      <trkpt lat="44.73928" lon="1.62859">
        <ele>318.8</ele>
        <time>2022-08-08T06:12:56Z</time>
      </trkpt>
      <trkpt lat="44.73925" lon="1.62861">
        <ele>319.1</ele>
        <time>2022-08-08T06:12:58Z</time>
      </trkpt>
      <trkpt lat="44.73921" lon="1.62864">
        <ele>319.3</ele>
        <time>2022-08-08T06:13:00Z</time>
      </trkpt>
      <trkpt lat="44.73917" lon="1.62866">
        <ele>319.6</ele>
        <time>2022-08-08T06:13:02Z</time>
      </trkpt>
      <trkpt lat="44.73914" lon="1.62868">
        <ele>319.7</ele>
        <time>2022-08-08T06:13:04Z</time>
      </trkpt>
      <trkpt lat="44.7391" lon="1.6287">
        <ele>319.7</ele>
        <time>2022-08-08T06:13:06Z</time>
      </trkpt>
      <trkpt lat="44.73906" lon="1.62873">
        <ele>319.8</ele>
        <time>2022-08-08T06:13:08Z</time>
      </trkpt>
      <trkpt lat="44.73903" lon="1.62875">
        <ele>319.8</ele>
        <time>2022-08-08T06:13:10Z</time>
      </trkpt>
      <trkpt lat="44.739" lon="1.62877">
        <ele>319.9</ele>
        <time>2022-08-08T06:13:12Z</time>
      </trkpt>
      <trkpt lat="44.73896" lon="1.62879">
        <ele>319.9</ele>
        <time>2022-08-08T06:13:14Z</time>
      </trkpt>
      <trkpt lat="44.73892" lon="1.62881">
        <ele>320</ele>
        <time>2022-08-08T06:13:16Z</time>
      </trkpt>
      <trkpt lat="44.73888" lon="1.62884">
        <ele>320</ele>
        <time>2022-08-08T06:13:18Z</time>
      </trkpt>
      <trkpt lat="44.73884" lon="1.62886">
        <ele>320</ele>
        <time>2022-08-08T06:13:20Z</time>
      </trkpt>
      <trkpt lat="44.73881" lon="1.62889">
        <ele>320.1</ele>
        <time>2022-08-08T06:13:22Z</time>
      </trkpt>
      <trkpt lat="44.73877" lon="1.62891">
        <ele>320.1</ele>
        <time>2022-08-08T06:13:24Z</time>
      </trkpt>
      <trkpt lat="44.73873" lon="1.62894">
        <ele>320.1</ele>
        <time>2022-08-08T06:13:26Z</time>
      </trkpt>
      <trkpt lat="44.73869" lon="1.62896">
        <ele>320.1</ele>
        <time>2022-08-08T06:13:28Z</time>
      </trkpt>
      <trkpt lat="44.73865" lon="1.62899">
        <ele>320.1</ele>
        <time>2022-08-08T06:13:30Z</time>
      </trkpt>
      <trkpt lat="44.7386" lon="1.62902">
        <ele>320.1</ele>
        <time>2022-08-08T06:13:32Z</time>
      </trkpt>
      <trkpt lat="44.73855" lon="1.62905">
        <ele>320.1</ele>
        <time>2022-08-08T06:13:34Z</time>
      </trkpt>
      <trkpt lat="44.73851" lon="1.62908">
        <ele>320.1</ele>
        <time>2022-08-08T06:13:36Z</time>
      </trkpt>
      <trkpt lat="44.73847" lon="1.62912">
        <ele>320</ele>
        <time>2022-08-08T06:13:38Z</time>
      </trkpt>
      <trkpt lat="44.73844" lon="1.62917">
        <ele>319.9</ele>
        <time>2022-08-08T06:13:40Z</time>
      </trkpt>
      <trkpt lat="44.7384" lon="1.62919">
        <ele>320</ele>
        <time>2022-08-08T06:13:42Z</time>
      </trkpt>
      <trkpt lat="44.73839" lon="1.6292">
        <ele>320.1</ele>
        <time>2022-08-08T06:13:44Z</time>
      </trkpt>
      <trkpt lat="44.73839" lon="1.62919">
        <ele>320.1</ele>
        <time>2022-08-08T06:13:46Z</time>
      </trkpt>
      <trkpt lat="44.73839" lon="1.6292">
        <ele>320.1</ele>
        <time>2022-08-08T06:13:50Z</time>
      </trkpt>
      <trkpt lat="44.73839" lon="1.6292">
        <ele>320.1</ele>
        <time>2022-08-08T06:13:52Z</time>
      </trkpt>
      <trkpt lat="44.7383" lon="1.62916">
        <ele>319.9</ele>
        <time>2022-08-08T06:18:54Z</time>
      </trkpt>
      <trkpt lat="44.73825" lon="1.62916">
        <ele>319.6</ele>
        <time>2022-08-08T06:18:56Z</time>
      </trkpt>
      <trkpt lat="44.7382" lon="1.62915">
        <ele>319.4</ele>
        <time>2022-08-08T06:18:58Z</time>
      </trkpt>
      <trkpt lat="44.73814" lon="1.62916">
        <ele>319.1</ele>
        <time>2022-08-08T06:19:00Z</time>
      </trkpt>
      <trkpt lat="44.73808" lon="1.62914">
        <ele>318.8</ele>
        <time>2022-08-08T06:19:02Z</time>
      </trkpt>
      <trkpt lat="44.738" lon="1.62911">
        <ele>318.6</ele>
        <time>2022-08-08T06:19:04Z</time>
      </trkpt>
      <trkpt lat="44.73793" lon="1.62908">
        <ele>318.3</ele>
        <time>2022-08-08T06:19:06Z</time>
      </trkpt>
      <trkpt lat="44.73785" lon="1.62905">
        <ele>318</ele>
        <time>2022-08-08T06:19:08Z</time>
      </trkpt>
      <trkpt lat="44.73775" lon="1.629">
        <ele>317.7</ele>
        <time>2022-08-08T06:19:10Z</time>
      </trkpt>
      <trkpt lat="44.73764" lon="1.62895">
        <ele>317.3</ele>
        <time>2022-08-08T06:19:12Z</time>
      </trkpt>
      <trkpt lat="44.73753" lon="1.62891">
        <ele>316.8</ele>
        <time>2022-08-08T06:19:14Z</time>
      </trkpt>
      <trkpt lat="44.73742" lon="1.62886">
        <ele>316</ele>
        <time>2022-08-08T06:19:16Z</time>
      </trkpt>
      <trkpt lat="44.73731" lon="1.62881">
        <ele>315.1</ele>
        <time>2022-08-08T06:19:18Z</time>
      </trkpt>
      <trkpt lat="44.73717" lon="1.62875">
        <ele>314</ele>
        <time>2022-08-08T06:19:20Z</time>
      </trkpt>
      <trkpt lat="44.73703" lon="1.62869">
        <ele>313</ele>
        <time>2022-08-08T06:19:22Z</time>
      </trkpt>
      <trkpt lat="44.7369" lon="1.62864">
        <ele>312</ele>
        <time>2022-08-08T06:19:24Z</time>
      </trkpt>
      <trkpt lat="44.73677" lon="1.62858">
        <ele>311</ele>
        <time>2022-08-08T06:19:26Z</time>
      </trkpt>
      <trkpt lat="44.73663" lon="1.62852">
        <ele>310</ele>
        <time>2022-08-08T06:19:28Z</time>
      </trkpt>
      <trkpt lat="44.7365" lon="1.62848">
        <ele>308.9</ele>
        <time>2022-08-08T06:19:30Z</time>
      </trkpt>
      <trkpt lat="44.73636" lon="1.62841">
        <ele>307.7</ele>
        <time>2022-08-08T06:19:32Z</time>
      </trkpt>
      <trkpt lat="44.73624" lon="1.6283">
        <ele>306.6</ele>
        <time>2022-08-08T06:19:34Z</time>
      </trkpt>
      <trkpt lat="44.73612" lon="1.62816">
        <ele>306.1</ele>
        <time>2022-08-08T06:19:36Z</time>
      </trkpt>
      <trkpt lat="44.73602" lon="1.628">
        <ele>305.6</ele>
        <time>2022-08-08T06:19:38Z</time>
      </trkpt>
      <trkpt lat="44.7359" lon="1.62786">
        <ele>304.7</ele>
        <time>2022-08-08T06:19:40Z</time>
      </trkpt>
      <trkpt lat="44.73577" lon="1.62771">
        <ele>303.6</ele>
        <time>2022-08-08T06:19:42Z</time>
      </trkpt>
      <trkpt lat="44.73564" lon="1.62758">
        <ele>302.5</ele>
        <time>2022-08-08T06:19:44Z</time>
      </trkpt>
      <trkpt lat="44.73552" lon="1.62746">
        <ele>301.6</ele>
        <time>2022-08-08T06:19:46Z</time>
      </trkpt>
      <trkpt lat="44.73539" lon="1.62737">
        <ele>300.8</ele>
        <time>2022-08-08T06:19:48Z</time>
      </trkpt>
      <trkpt lat="44.73526" lon="1.62729">
        <ele>299.9</ele>
        <time>2022-08-08T06:19:50Z</time>
      </trkpt>
      <trkpt lat="44.7351" lon="1.62719">
        <ele>298.9</ele>
        <time>2022-08-08T06:19:52Z</time>
      </trkpt>
      <trkpt lat="44.73495" lon="1.62709">
        <ele>297.8</ele>
        <time>2022-08-08T06:19:54Z</time>
      </trkpt>
      <trkpt lat="44.7348" lon="1.62698">
        <ele>296.3</ele>
        <time>2022-08-08T06:19:56Z</time>
      </trkpt>
      <trkpt lat="44.73465" lon="1.62685">
        <ele>294.8</ele>
        <time>2022-08-08T06:19:58Z</time>
      </trkpt>
      <trkpt lat="44.7345" lon="1.62674">
        <ele>292.7</ele>
        <time>2022-08-08T06:20:00Z</time>
      </trkpt>
      <trkpt lat="44.73433" lon="1.62664">
        <ele>290.3</ele>
        <time>2022-08-08T06:20:02Z</time>
      </trkpt>
      <trkpt lat="44.73416" lon="1.62656">
        <ele>288.3</ele>
        <time>2022-08-08T06:20:04Z</time>
      </trkpt>
      <trkpt lat="44.734" lon="1.62647">
        <ele>285.9</ele>
        <time>2022-08-08T06:20:06Z</time>
      </trkpt>
      <trkpt lat="44.73384" lon="1.62638">
        <ele>283.5</ele>
        <time>2022-08-08T06:20:08Z</time>
      </trkpt>
      <trkpt lat="44.73369" lon="1.62635">
        <ele>280.7</ele>
        <time>2022-08-08T06:20:10Z</time>
      </trkpt>
      <trkpt lat="44.73353" lon="1.62635">
        <ele>277.3</ele>
        <time>2022-08-08T06:20:12Z</time>
      </trkpt>
      <trkpt lat="44.73339" lon="1.62637">
        <ele>274</ele>
        <time>2022-08-08T06:20:14Z</time>
      </trkpt>
      <trkpt lat="44.73325" lon="1.6263">
        <ele>271.5</ele>
        <time>2022-08-08T06:20:16Z</time>
      </trkpt>
      <trkpt lat="44.73315" lon="1.6262">
        <ele>269.9</ele>
        <time>2022-08-08T06:20:18Z</time>
      </trkpt>
      <trkpt lat="44.73311" lon="1.62603">
        <ele>270.2</ele>
        <time>2022-08-08T06:20:20Z</time>
      </trkpt>
      <trkpt lat="44.7331" lon="1.62583">
        <ele>271.3</ele>
        <time>2022-08-08T06:20:22Z</time>
      </trkpt>
      <trkpt lat="44.73311" lon="1.62561">
        <ele>270.3</ele>
        <time>2022-08-08T06:20:24Z</time>
      </trkpt>
      <trkpt lat="44.73319" lon="1.6254">
        <ele>271.3</ele>
        <time>2022-08-08T06:20:26Z</time>
      </trkpt>
      <trkpt lat="44.73328" lon="1.62519">
        <ele>271.9</ele>
        <time>2022-08-08T06:20:28Z</time>
      </trkpt>
      <trkpt lat="44.73334" lon="1.62496">
        <ele>271.3</ele>
        <time>2022-08-08T06:20:30Z</time>
      </trkpt>
      <trkpt lat="44.73339" lon="1.62471">
        <ele>268.4</ele>
        <time>2022-08-08T06:20:32Z</time>
      </trkpt>
      <trkpt lat="44.73345" lon="1.62448">
        <ele>266.2</ele>
        <time>2022-08-08T06:20:34Z</time>
      </trkpt>
      <trkpt lat="44.73351" lon="1.62426">
        <ele>264.9</ele>
        <time>2022-08-08T06:20:36Z</time>
      </trkpt>
      <trkpt lat="44.73359" lon="1.62403">
        <ele>263.9</ele>
        <time>2022-08-08T06:20:38Z</time>
      </trkpt>
      <trkpt lat="44.7337" lon="1.62385">
        <ele>264.5</ele>
        <time>2022-08-08T06:20:40Z</time>
      </trkpt>
      <trkpt lat="44.73382" lon="1.62368">
        <ele>264.8</ele>
        <time>2022-08-08T06:20:42Z</time>
      </trkpt>
      <trkpt lat="44.73393" lon="1.6235">
        <ele>264.7</ele>
        <time>2022-08-08T06:20:44Z</time>
      </trkpt>
      <trkpt lat="44.73405" lon="1.62332">
        <ele>264</ele>
        <time>2022-08-08T06:20:46Z</time>
      </trkpt>
      <trkpt lat="44.73414" lon="1.62314">
        <ele>262.6</ele>
        <time>2022-08-08T06:20:48Z</time>
      </trkpt>
      <trkpt lat="44.73423" lon="1.62294">
        <ele>260.8</ele>
        <time>2022-08-08T06:20:50Z</time>
      </trkpt>
      <trkpt lat="44.73432" lon="1.62271">
        <ele>258.5</ele>
        <time>2022-08-08T06:20:52Z</time>
      </trkpt>
      <trkpt lat="44.73437" lon="1.62247">
        <ele>255.3</ele>
        <time>2022-08-08T06:20:54Z</time>
      </trkpt>
      <trkpt lat="44.73442" lon="1.62222">
        <ele>253.4</ele>
        <time>2022-08-08T06:20:56Z</time>
      </trkpt>
      <trkpt lat="44.73444" lon="1.62198">
        <ele>250.3</ele>
        <time>2022-08-08T06:20:58Z</time>
      </trkpt>
      <trkpt lat="44.73441" lon="1.62178">
        <ele>246.7</ele>
        <time>2022-08-08T06:21:00Z</time>
      </trkpt>
      <trkpt lat="44.73437" lon="1.62163">
        <ele>243.9</ele>
        <time>2022-08-08T06:21:02Z</time>
      </trkpt>
      <trkpt lat="44.73456" lon="1.62127">
        <ele>243.5</ele>
        <time>2022-08-08T06:21:04Z</time>
      </trkpt>
      <trkpt lat="44.73461" lon="1.62109">
        <ele>242.3</ele>
        <time>2022-08-08T06:21:06Z</time>
      </trkpt>
      <trkpt lat="44.73467" lon="1.62091">
        <ele>241</ele>
        <time>2022-08-08T06:21:08Z</time>
      </trkpt>
      <trkpt lat="44.7347" lon="1.62074">
        <ele>240.1</ele>
        <time>2022-08-08T06:21:10Z</time>
      </trkpt>
      <trkpt lat="44.73465" lon="1.62059">
        <ele>239.1</ele>
        <time>2022-08-08T06:21:12Z</time>
      </trkpt>
      <trkpt lat="44.73452" lon="1.6205">
        <ele>237.9</ele>
        <time>2022-08-08T06:21:14Z</time>
      </trkpt>
      <trkpt lat="44.73436" lon="1.62043">
        <ele>237</ele>
        <time>2022-08-08T06:21:16Z</time>
      </trkpt>
      <trkpt lat="44.73421" lon="1.62034">
        <ele>236.5</ele>
        <time>2022-08-08T06:21:18Z</time>
      </trkpt>
      <trkpt lat="44.73408" lon="1.62024">
        <ele>237</ele>
        <time>2022-08-08T06:21:20Z</time>
      </trkpt>
      <trkpt lat="44.73396" lon="1.62013">
        <ele>237.8</ele>
        <time>2022-08-08T06:21:22Z</time>
      </trkpt>
      <trkpt lat="44.73386" lon="1.62001">
        <ele>238.3</ele>
        <time>2022-08-08T06:21:24Z</time>
      </trkpt>
      <trkpt lat="44.73376" lon="1.61991">
        <ele>239.3</ele>
        <time>2022-08-08T06:21:26Z</time>
      </trkpt>
      <trkpt lat="44.73368" lon="1.6198">
        <ele>240.2</ele>
        <time>2022-08-08T06:21:28Z</time>
      </trkpt>
      <trkpt lat="44.73359" lon="1.6197">
        <ele>240.9</ele>
        <time>2022-08-08T06:21:30Z</time>
      </trkpt>
      <trkpt lat="44.73351" lon="1.6196">
        <ele>241.6</ele>
        <time>2022-08-08T06:21:32Z</time>
      </trkpt>
      <trkpt lat="44.73344" lon="1.61951">
        <ele>242.1</ele>
        <time>2022-08-08T06:21:34Z</time>
      </trkpt>
      <trkpt lat="44.73337" lon="1.61941">
        <ele>242.6</ele>
        <time>2022-08-08T06:21:36Z</time>
      </trkpt>
      <trkpt lat="44.73331" lon="1.61931">
        <ele>243.5</ele>
        <time>2022-08-08T06:21:38Z</time>
      </trkpt>
      <trkpt lat="44.73324" lon="1.6192">
        <ele>244.8</ele>
        <time>2022-08-08T06:21:40Z</time>
      </trkpt>
      <trkpt lat="44.73318" lon="1.6191">
        <ele>246.3</ele>
        <time>2022-08-08T06:21:42Z</time>
      </trkpt>
      <trkpt lat="44.73313" lon="1.619">
        <ele>247.8</ele>
        <time>2022-08-08T06:21:44Z</time>
      </trkpt>
      <trkpt lat="44.73308" lon="1.61891">
        <ele>249</ele>
        <time>2022-08-08T06:21:46Z</time>
      </trkpt>
      <trkpt lat="44.73302" lon="1.61883">
        <ele>249.9</ele>
        <time>2022-08-08T06:21:48Z</time>
      </trkpt>
      <trkpt lat="44.73296" lon="1.61876">
        <ele>250.6</ele>
        <time>2022-08-08T06:21:50Z</time>
      </trkpt>
      <trkpt lat="44.73289" lon="1.6187">
        <ele>251</ele>
        <time>2022-08-08T06:21:52Z</time>
      </trkpt>
      <trkpt lat="44.73283" lon="1.61863">
        <ele>251.3</ele>
        <time>2022-08-08T06:21:54Z</time>
      </trkpt>
      <trkpt lat="44.73276" lon="1.61858">
        <ele>251.4</ele>
        <time>2022-08-08T06:21:56Z</time>
      </trkpt>
      <trkpt lat="44.73269" lon="1.61853">
        <ele>251.3</ele>
        <time>2022-08-08T06:21:58Z</time>
      </trkpt>
      <trkpt lat="44.73263" lon="1.61849">
        <ele>251.1</ele>
        <time>2022-08-08T06:22:00Z</time>
      </trkpt>
      <trkpt lat="44.73256" lon="1.61845">
        <ele>250.7</ele>
        <time>2022-08-08T06:22:02Z</time>
      </trkpt>
      <trkpt lat="44.73249" lon="1.61842">
        <ele>250.3</ele>
        <time>2022-08-08T06:22:04Z</time>
      </trkpt>
      <trkpt lat="44.73243" lon="1.61838">
        <ele>250.3</ele>
        <time>2022-08-08T06:22:06Z</time>
      </trkpt>
      <trkpt lat="44.73237" lon="1.61834">
        <ele>250.2</ele>
        <time>2022-08-08T06:22:08Z</time>
      </trkpt>
      <trkpt lat="44.7323" lon="1.6183">
        <ele>250.8</ele>
        <time>2022-08-08T06:22:10Z</time>
      </trkpt>
      <trkpt lat="44.73225" lon="1.61827">
        <ele>251.4</ele>
        <time>2022-08-08T06:22:12Z</time>
      </trkpt>
      <trkpt lat="44.73219" lon="1.61823">
        <ele>252.2</ele>
        <time>2022-08-08T06:22:14Z</time>
      </trkpt>
      <trkpt lat="44.73213" lon="1.6182">
        <ele>252.8</ele>
        <time>2022-08-08T06:22:16Z</time>
      </trkpt>
      <trkpt lat="44.73207" lon="1.61817">
        <ele>253.4</ele>
        <time>2022-08-08T06:22:18Z</time>
      </trkpt>
      <trkpt lat="44.73201" lon="1.61815">
        <ele>253.8</ele>
        <time>2022-08-08T06:22:20Z</time>
      </trkpt>
      <trkpt lat="44.73195" lon="1.61812">
        <ele>254.2</ele>
        <time>2022-08-08T06:22:22Z</time>
      </trkpt>
      <trkpt lat="44.7319" lon="1.6181">
        <ele>254.4</ele>
        <time>2022-08-08T06:22:24Z</time>
      </trkpt>
      <trkpt lat="44.73183" lon="1.61809">
        <ele>254.6</ele>
        <time>2022-08-08T06:22:26Z</time>
      </trkpt>
      <trkpt lat="44.73177" lon="1.61808">
        <ele>254.7</ele>
        <time>2022-08-08T06:22:28Z</time>
      </trkpt>
      <trkpt lat="44.73171" lon="1.61809">
        <ele>254.6</ele>
        <time>2022-08-08T06:22:30Z</time>
      </trkpt>
      <trkpt lat="44.73166" lon="1.61809">
        <ele>254.6</ele>
        <time>2022-08-08T06:22:32Z</time>
      </trkpt>
      <trkpt lat="44.73161" lon="1.6181">
        <ele>255.1</ele>
        <time>2022-08-08T06:22:34Z</time>
      </trkpt>
      <trkpt lat="44.73155" lon="1.61811">
        <ele>255.6</ele>
        <time>2022-08-08T06:22:36Z</time>
      </trkpt>
      <trkpt lat="44.73151" lon="1.61812">
        <ele>256</ele>
        <time>2022-08-08T06:22:38Z</time>
      </trkpt>
      <trkpt lat="44.73146" lon="1.61814">
        <ele>256.3</ele>
        <time>2022-08-08T06:22:40Z</time>
      </trkpt>
      <trkpt lat="44.73142" lon="1.61816">
        <ele>256.4</ele>
        <time>2022-08-08T06:22:42Z</time>
      </trkpt>
      <trkpt lat="44.73138" lon="1.61819">
        <ele>256.4</ele>
        <time>2022-08-08T06:22:44Z</time>
      </trkpt>
      <trkpt lat="44.73133" lon="1.61823">
        <ele>256.3</ele>
        <time>2022-08-08T06:22:46Z</time>
      </trkpt>
      <trkpt lat="44.73129" lon="1.61828">
        <ele>256</ele>
        <time>2022-08-08T06:22:48Z</time>
      </trkpt>
      <trkpt lat="44.73124" lon="1.61833">
        <ele>255.7</ele>
        <time>2022-08-08T06:22:50Z</time>
      </trkpt>
      <trkpt lat="44.7312" lon="1.61837">
        <ele>256.5</ele>
        <time>2022-08-08T06:22:52Z</time>
      </trkpt>
      <trkpt lat="44.73115" lon="1.61843">
        <ele>257.4</ele>
        <time>2022-08-08T06:22:54Z</time>
      </trkpt>
      <trkpt lat="44.73111" lon="1.61848">
        <ele>258.2</ele>
        <time>2022-08-08T06:22:56Z</time>
      </trkpt>
      <trkpt lat="44.73106" lon="1.61853">
        <ele>258.9</ele>
        <time>2022-08-08T06:22:58Z</time>
      </trkpt>
      <trkpt lat="44.73102" lon="1.61859">
        <ele>259.5</ele>
        <time>2022-08-08T06:23:00Z</time>
      </trkpt>
      <trkpt lat="44.73097" lon="1.61864">
        <ele>260</ele>
        <time>2022-08-08T06:23:02Z</time>
      </trkpt>
      <trkpt lat="44.73091" lon="1.61868">
        <ele>260.5</ele>
        <time>2022-08-08T06:23:04Z</time>
      </trkpt>
      <trkpt lat="44.73086" lon="1.61873">
        <ele>260.8</ele>
        <time>2022-08-08T06:23:06Z</time>
      </trkpt>
      <trkpt lat="44.73081" lon="1.61878">
        <ele>261.2</ele>
        <time>2022-08-08T06:23:08Z</time>
      </trkpt>
      <trkpt lat="44.73075" lon="1.61882">
        <ele>261.6</ele>
        <time>2022-08-08T06:23:10Z</time>
      </trkpt>
      <trkpt lat="44.7307" lon="1.61886">
        <ele>261.9</ele>
        <time>2022-08-08T06:23:12Z</time>
      </trkpt>
      <trkpt lat="44.73065" lon="1.61891">
        <ele>262</ele>
        <time>2022-08-08T06:23:14Z</time>
      </trkpt>
      <trkpt lat="44.73059" lon="1.61894">
        <ele>262.1</ele>
        <time>2022-08-08T06:23:16Z</time>
      </trkpt>
      <trkpt lat="44.73053" lon="1.61898">
        <ele>262</ele>
        <time>2022-08-08T06:23:18Z</time>
      </trkpt>
      <trkpt lat="44.73048" lon="1.61901">
        <ele>261.9</ele>
        <time>2022-08-08T06:23:20Z</time>
      </trkpt>
      <trkpt lat="44.73041" lon="1.61904">
        <ele>261.6</ele>
        <time>2022-08-08T06:23:22Z</time>
      </trkpt>
      <trkpt lat="44.73035" lon="1.61907">
        <ele>261.3</ele>
        <time>2022-08-08T06:23:24Z</time>
      </trkpt>
      <trkpt lat="44.7303" lon="1.6191">
        <ele>260.9</ele>
        <time>2022-08-08T06:23:26Z</time>
      </trkpt>
      <trkpt lat="44.73024" lon="1.61912">
        <ele>260.5</ele>
        <time>2022-08-08T06:23:28Z</time>
      </trkpt>
      <trkpt lat="44.73018" lon="1.61915">
        <ele>259.9</ele>
        <time>2022-08-08T06:23:30Z</time>
      </trkpt>
      <trkpt lat="44.73012" lon="1.61918">
        <ele>259.6</ele>
        <time>2022-08-08T06:23:32Z</time>
      </trkpt>
      <trkpt lat="44.73006" lon="1.61921">
        <ele>259.8</ele>
        <time>2022-08-08T06:23:34Z</time>
      </trkpt>
      <trkpt lat="44.73001" lon="1.61923">
        <ele>259.9</ele>
        <time>2022-08-08T06:23:36Z</time>
      </trkpt>
      <trkpt lat="44.72995" lon="1.61924">
        <ele>260.6</ele>
        <time>2022-08-08T06:23:38Z</time>
      </trkpt>
      <trkpt lat="44.72989" lon="1.61927">
        <ele>261.4</ele>
        <time>2022-08-08T06:23:40Z</time>
      </trkpt>
      <trkpt lat="44.72984" lon="1.61929">
        <ele>262.2</ele>
        <time>2022-08-08T06:23:42Z</time>
      </trkpt>
      <trkpt lat="44.72979" lon="1.61931">
        <ele>262.8</ele>
        <time>2022-08-08T06:23:44Z</time>
      </trkpt>
      <trkpt lat="44.72974" lon="1.61933">
        <ele>263.5</ele>
        <time>2022-08-08T06:23:46Z</time>
      </trkpt>
      <trkpt lat="44.72968" lon="1.61935">
        <ele>264</ele>
        <time>2022-08-08T06:23:48Z</time>
      </trkpt>
      <trkpt lat="44.72964" lon="1.61938">
        <ele>264.5</ele>
        <time>2022-08-08T06:23:50Z</time>
      </trkpt>
      <trkpt lat="44.72959" lon="1.61939">
        <ele>264.9</ele>
        <time>2022-08-08T06:23:52Z</time>
      </trkpt>
      <trkpt lat="44.72954" lon="1.61942">
        <ele>265.3</ele>
        <time>2022-08-08T06:23:54Z</time>
      </trkpt>
      <trkpt lat="44.7295" lon="1.61944">
        <ele>265.6</ele>
        <time>2022-08-08T06:23:56Z</time>
      </trkpt>
      <trkpt lat="44.72945" lon="1.61945">
        <ele>265.9</ele>
        <time>2022-08-08T06:23:58Z</time>
      </trkpt>
      <trkpt lat="44.7294" lon="1.61945">
        <ele>266.1</ele>
        <time>2022-08-08T06:24:00Z</time>
      </trkpt>
      <trkpt lat="44.72935" lon="1.61948">
        <ele>266.3</ele>
        <time>2022-08-08T06:24:02Z</time>
      </trkpt>
      <trkpt lat="44.7293" lon="1.6195">
        <ele>266.5</ele>
        <time>2022-08-08T06:24:04Z</time>
      </trkpt>
      <trkpt lat="44.72925" lon="1.61952">
        <ele>266.6</ele>
        <time>2022-08-08T06:24:06Z</time>
      </trkpt>
      <trkpt lat="44.7292" lon="1.61954">
        <ele>266.7</ele>
        <time>2022-08-08T06:24:08Z</time>
      </trkpt>
      <trkpt lat="44.72915" lon="1.61956">
        <ele>266.7</ele>
        <time>2022-08-08T06:24:10Z</time>
      </trkpt>
      <trkpt lat="44.72911" lon="1.61958">
        <ele>266.9</ele>
        <time>2022-08-08T06:24:12Z</time>
      </trkpt>
      <trkpt lat="44.72906" lon="1.6196">
        <ele>267</ele>
        <time>2022-08-08T06:24:14Z</time>
      </trkpt>
      <trkpt lat="44.72902" lon="1.61963">
        <ele>267</ele>
        <time>2022-08-08T06:24:16Z</time>
      </trkpt>
      <trkpt lat="44.72897" lon="1.61966">
        <ele>267</ele>
        <time>2022-08-08T06:24:18Z</time>
      </trkpt>
      <trkpt lat="44.72892" lon="1.61968">
        <ele>267</ele>
        <time>2022-08-08T06:24:20Z</time>
      </trkpt>
      <trkpt lat="44.72888" lon="1.6197">
        <ele>267</ele>
        <time>2022-08-08T06:24:22Z</time>
      </trkpt>
      <trkpt lat="44.72883" lon="1.61973">
        <ele>266.9</ele>
        <time>2022-08-08T06:24:24Z</time>
      </trkpt>
      <trkpt lat="44.72879" lon="1.61975">
        <ele>266.8</ele>
        <time>2022-08-08T06:24:26Z</time>
      </trkpt>
      <trkpt lat="44.72874" lon="1.61978">
        <ele>266.7</ele>
        <time>2022-08-08T06:24:28Z</time>
      </trkpt>
      <trkpt lat="44.72869" lon="1.6198">
        <ele>266.6</ele>
        <time>2022-08-08T06:24:30Z</time>
      </trkpt>
      <trkpt lat="44.72865" lon="1.61983">
        <ele>266.3</ele>
        <time>2022-08-08T06:24:32Z</time>
      </trkpt>
      <trkpt lat="44.7286" lon="1.61985">
        <ele>266.1</ele>
        <time>2022-08-08T06:24:34Z</time>
      </trkpt>
      <trkpt lat="44.72856" lon="1.61988">
        <ele>265.8</ele>
        <time>2022-08-08T06:24:36Z</time>
      </trkpt>
      <trkpt lat="44.72851" lon="1.61989">
        <ele>265.7</ele>
        <time>2022-08-08T06:24:38Z</time>
      </trkpt>
      <trkpt lat="44.72846" lon="1.6199">
        <ele>265.6</ele>
        <time>2022-08-08T06:24:40Z</time>
      </trkpt>
      <trkpt lat="44.72841" lon="1.61992">
        <ele>265.4</ele>
        <time>2022-08-08T06:24:42Z</time>
      </trkpt>
      <trkpt lat="44.72836" lon="1.61993">
        <ele>265.2</ele>
        <time>2022-08-08T06:24:44Z</time>
      </trkpt>
      <trkpt lat="44.72831" lon="1.61994">
        <ele>264.9</ele>
        <time>2022-08-08T06:24:46Z</time>
      </trkpt>
      <trkpt lat="44.72826" lon="1.61995">
        <ele>264.6</ele>
        <time>2022-08-08T06:24:48Z</time>
      </trkpt>
      <trkpt lat="44.72822" lon="1.61997">
        <ele>264.1</ele>
        <time>2022-08-08T06:24:50Z</time>
      </trkpt>
      <trkpt lat="44.72817" lon="1.61997">
        <ele>263.9</ele>
        <time>2022-08-08T06:24:52Z</time>
      </trkpt>
      <trkpt lat="44.72812" lon="1.61997">
        <ele>263.8</ele>
        <time>2022-08-08T06:24:54Z</time>
      </trkpt>
      <trkpt lat="44.72807" lon="1.61997">
        <ele>263.6</ele>
        <time>2022-08-08T06:24:56Z</time>
      </trkpt>
      <trkpt lat="44.72802" lon="1.61998">
        <ele>263.3</ele>
        <time>2022-08-08T06:24:58Z</time>
      </trkpt>
      <trkpt lat="44.72798" lon="1.61998">
        <ele>263.1</ele>
        <time>2022-08-08T06:25:00Z</time>
      </trkpt>
      <trkpt lat="44.72793" lon="1.61998">
        <ele>262.9</ele>
        <time>2022-08-08T06:25:02Z</time>
      </trkpt>
      <trkpt lat="44.72788" lon="1.61999">
        <ele>262.5</ele>
        <time>2022-08-08T06:25:04Z</time>
      </trkpt>
      <trkpt lat="44.72783" lon="1.61999">
        <ele>262.4</ele>
        <time>2022-08-08T06:25:06Z</time>
      </trkpt>
      <trkpt lat="44.72778" lon="1.61999">
        <ele>262.3</ele>
        <time>2022-08-08T06:25:08Z</time>
      </trkpt>
      <trkpt lat="44.72773" lon="1.61998">
        <ele>262.2</ele>
        <time>2022-08-08T06:25:10Z</time>
      </trkpt>
      <trkpt lat="44.72768" lon="1.61998">
        <ele>262.1</ele>
        <time>2022-08-08T06:25:12Z</time>
      </trkpt>
      <trkpt lat="44.72764" lon="1.61998">
        <ele>262</ele>
        <time>2022-08-08T06:25:14Z</time>
      </trkpt>
      <trkpt lat="44.72759" lon="1.61997">
        <ele>262.1</ele>
        <time>2022-08-08T06:25:16Z</time>
      </trkpt>
      <trkpt lat="44.72754" lon="1.61996">
        <ele>262.1</ele>
        <time>2022-08-08T06:25:18Z</time>
      </trkpt>
      <trkpt lat="44.72749" lon="1.61995">
        <ele>262</ele>
        <time>2022-08-08T06:25:20Z</time>
      </trkpt>
      <trkpt lat="44.72744" lon="1.61995">
        <ele>262.4</ele>
        <time>2022-08-08T06:25:22Z</time>
      </trkpt>
      <trkpt lat="44.72739" lon="1.61993">
        <ele>262.8</ele>
        <time>2022-08-08T06:25:24Z</time>
      </trkpt>
      <trkpt lat="44.72734" lon="1.61992">
        <ele>263.3</ele>
        <time>2022-08-08T06:25:26Z</time>
      </trkpt>
      <trkpt lat="44.72729" lon="1.6199">
        <ele>263.7</ele>
        <time>2022-08-08T06:25:28Z</time>
      </trkpt>
      <trkpt lat="44.72724" lon="1.61987">
        <ele>264.2</ele>
        <time>2022-08-08T06:25:30Z</time>
      </trkpt>
      <trkpt lat="44.72719" lon="1.61985">
        <ele>264.7</ele>
        <time>2022-08-08T06:25:32Z</time>
      </trkpt>
      <trkpt lat="44.72714" lon="1.61982">
        <ele>265.1</ele>
        <time>2022-08-08T06:25:34Z</time>
      </trkpt>
      <trkpt lat="44.7271" lon="1.61979">
        <ele>265.6</ele>
        <time>2022-08-08T06:25:36Z</time>
      </trkpt>
      <trkpt lat="44.72706" lon="1.61976">
        <ele>265.9</ele>
        <time>2022-08-08T06:25:38Z</time>
      </trkpt>
      <trkpt lat="44.72701" lon="1.61972">
        <ele>266.2</ele>
        <time>2022-08-08T06:25:40Z</time>
      </trkpt>
      <trkpt lat="44.72697" lon="1.61969">
        <ele>266.5</ele>
        <time>2022-08-08T06:25:42Z</time>
      </trkpt>
      <trkpt lat="44.72692" lon="1.61966">
        <ele>266.6</ele>
        <time>2022-08-08T06:25:44Z</time>
      </trkpt>
      <trkpt lat="44.72688" lon="1.61962">
        <ele>266.7</ele>
        <time>2022-08-08T06:25:46Z</time>
      </trkpt>
      <trkpt lat="44.72683" lon="1.61959">
        <ele>266.8</ele>
        <time>2022-08-08T06:25:48Z</time>
      </trkpt>
      <trkpt lat="44.72679" lon="1.61956">
        <ele>266.7</ele>
        <time>2022-08-08T06:25:50Z</time>
      </trkpt>
      <trkpt lat="44.72675" lon="1.61952">
        <ele>266.6</ele>
        <time>2022-08-08T06:25:52Z</time>
      </trkpt>
      <trkpt lat="44.72671" lon="1.61949">
        <ele>266.5</ele>
        <time>2022-08-08T06:25:54Z</time>
      </trkpt>
      <trkpt lat="44.72667" lon="1.61945">
        <ele>266.3</ele>
        <time>2022-08-08T06:25:56Z</time>
      </trkpt>
      <trkpt lat="44.72662" lon="1.61941">
        <ele>267</ele>
        <time>2022-08-08T06:25:58Z</time>
      </trkpt>
      <trkpt lat="44.72658" lon="1.61937">
        <ele>267.6</ele>
        <time>2022-08-08T06:26:00Z</time>
      </trkpt>
      <trkpt lat="44.72653" lon="1.61933">
        <ele>268.2</ele>
        <time>2022-08-08T06:26:02Z</time>
      </trkpt>
      <trkpt lat="44.72649" lon="1.61927">
        <ele>268.7</ele>
        <time>2022-08-08T06:26:04Z</time>
      </trkpt>
      <trkpt lat="44.72646" lon="1.61921">
        <ele>269</ele>
        <time>2022-08-08T06:26:06Z</time>
      </trkpt>
      <trkpt lat="44.72642" lon="1.61916">
        <ele>269.5</ele>
        <time>2022-08-08T06:26:08Z</time>
      </trkpt>
      <trkpt lat="44.72638" lon="1.6191">
        <ele>270.4</ele>
        <time>2022-08-08T06:26:10Z</time>
      </trkpt>
      <trkpt lat="44.72635" lon="1.61905">
        <ele>271.2</ele>
        <time>2022-08-08T06:26:12Z</time>
      </trkpt>
      <trkpt lat="44.72631" lon="1.61899">
        <ele>271.9</ele>
        <time>2022-08-08T06:26:14Z</time>
      </trkpt>
      <trkpt lat="44.72628" lon="1.61893">
        <ele>272.5</ele>
        <time>2022-08-08T06:26:16Z</time>
      </trkpt>
      <trkpt lat="44.72624" lon="1.61887">
        <ele>272.9</ele>
        <time>2022-08-08T06:26:18Z</time>
      </trkpt>
      <trkpt lat="44.7262" lon="1.61882">
        <ele>273.3</ele>
        <time>2022-08-08T06:26:20Z</time>
      </trkpt>
      <trkpt lat="44.72617" lon="1.61876">
        <ele>273.5</ele>
        <time>2022-08-08T06:26:22Z</time>
      </trkpt>
      <trkpt lat="44.72613" lon="1.61871">
        <ele>273.5</ele>
        <time>2022-08-08T06:26:24Z</time>
      </trkpt>
      <trkpt lat="44.72609" lon="1.61866">
        <ele>273.5</ele>
        <time>2022-08-08T06:26:26Z</time>
      </trkpt>
      <trkpt lat="44.72606" lon="1.61861">
        <ele>273.3</ele>
        <time>2022-08-08T06:26:28Z</time>
      </trkpt>
      <trkpt lat="44.72603" lon="1.61856">
        <ele>273.1</ele>
        <time>2022-08-08T06:26:30Z</time>
      </trkpt>
      <trkpt lat="44.726" lon="1.61851">
        <ele>272.8</ele>
        <time>2022-08-08T06:26:32Z</time>
      </trkpt>
      <trkpt lat="44.72597" lon="1.61845">
        <ele>272.3</ele>
        <time>2022-08-08T06:26:34Z</time>
      </trkpt>
      <trkpt lat="44.72593" lon="1.6184">
        <ele>271.7</ele>
        <time>2022-08-08T06:26:36Z</time>
      </trkpt>
      <trkpt lat="44.7259" lon="1.61835">
        <ele>271.1</ele>
        <time>2022-08-08T06:26:38Z</time>
      </trkpt>
      <trkpt lat="44.72587" lon="1.6183">
        <ele>270.8</ele>
        <time>2022-08-08T06:26:40Z</time>
      </trkpt>
      <trkpt lat="44.72584" lon="1.61824">
        <ele>270.7</ele>
        <time>2022-08-08T06:26:42Z</time>
      </trkpt>
      <trkpt lat="44.72581" lon="1.61818">
        <ele>271.1</ele>
        <time>2022-08-08T06:26:44Z</time>
      </trkpt>
      <trkpt lat="44.72578" lon="1.61813">
        <ele>271.5</ele>
        <time>2022-08-08T06:26:46Z</time>
      </trkpt>
      <trkpt lat="44.72575" lon="1.61808">
        <ele>271.9</ele>
        <time>2022-08-08T06:26:48Z</time>
      </trkpt>
      <trkpt lat="44.72573" lon="1.61802">
        <ele>272.2</ele>
        <time>2022-08-08T06:26:50Z</time>
      </trkpt>
      <trkpt lat="44.7257" lon="1.61797">
        <ele>272.5</ele>
        <time>2022-08-08T06:26:52Z</time>
      </trkpt>
      <trkpt lat="44.72568" lon="1.61792">
        <ele>272.7</ele>
        <time>2022-08-08T06:26:54Z</time>
      </trkpt>
      <trkpt lat="44.72565" lon="1.61788">
        <ele>272.8</ele>
        <time>2022-08-08T06:26:56Z</time>
      </trkpt>
      <trkpt lat="44.72563" lon="1.61785">
        <ele>272.9</ele>
        <time>2022-08-08T06:26:58Z</time>
      </trkpt>
      <trkpt lat="44.72561" lon="1.6178">
        <ele>273</ele>
        <time>2022-08-08T06:27:00Z</time>
      </trkpt>
      <trkpt lat="44.7256" lon="1.61779">
        <ele>273.1</ele>
        <time>2022-08-08T06:27:02Z</time>
      </trkpt>
      <trkpt lat="44.7256" lon="1.61778">
        <ele>273</ele>
        <time>2022-08-08T06:27:04Z</time>
      </trkpt>
      <trkpt lat="44.7256" lon="1.61779">
        <ele>273</ele>
        <time>2022-08-08T06:27:06Z</time>
      </trkpt>
      <trkpt lat="44.7256" lon="1.61779">
        <ele>273</ele>
        <time>2022-08-08T06:27:08Z</time>
      </trkpt>
      <trkpt lat="44.72542" lon="1.61769">
        <ele>272.4</ele>
        <time>2022-08-08T06:28:46Z</time>
      </trkpt>
      <trkpt lat="44.72536" lon="1.61767">
        <ele>272.1</ele>
        <time>2022-08-08T06:28:48Z</time>
      </trkpt>
      <trkpt lat="44.72529" lon="1.61766">
        <ele>271.6</ele>
        <time>2022-08-08T06:28:50Z</time>
      </trkpt>
      <trkpt lat="44.72521" lon="1.61765">
        <ele>271.2</ele>
        <time>2022-08-08T06:28:52Z</time>
      </trkpt>
      <trkpt lat="44.72514" lon="1.61763">
        <ele>270.6</ele>
        <time>2022-08-08T06:28:54Z</time>
      </trkpt>
      <trkpt lat="44.72506" lon="1.61761">
        <ele>270.1</ele>
        <time>2022-08-08T06:28:56Z</time>
      </trkpt>
      <trkpt lat="44.72499" lon="1.61758">
        <ele>269.5</ele>
        <time>2022-08-08T06:28:58Z</time>
      </trkpt>
      <trkpt lat="44.72493" lon="1.61755">
        <ele>269.4</ele>
        <time>2022-08-08T06:29:00Z</time>
      </trkpt>
      <trkpt lat="44.72488" lon="1.6175">
        <ele>269.3</ele>
        <time>2022-08-08T06:29:02Z</time>
      </trkpt>
      <trkpt lat="44.72483" lon="1.61744">
        <ele>270.1</ele>
        <time>2022-08-08T06:29:04Z</time>
      </trkpt>
      <trkpt lat="44.72479" lon="1.61739">
        <ele>270.8</ele>
        <time>2022-08-08T06:29:06Z</time>
      </trkpt>
      <trkpt lat="44.72475" lon="1.61735">
        <ele>271.4</ele>
        <time>2022-08-08T06:29:08Z</time>
      </trkpt>
      <trkpt lat="44.72472" lon="1.6173">
        <ele>272</ele>
        <time>2022-08-08T06:29:10Z</time>
      </trkpt>
      <trkpt lat="44.72468" lon="1.61727">
        <ele>272.4</ele>
        <time>2022-08-08T06:29:12Z</time>
      </trkpt>
      <trkpt lat="44.72464" lon="1.61722">
        <ele>273</ele>
        <time>2022-08-08T06:29:14Z</time>
      </trkpt>
      <trkpt lat="44.7246" lon="1.61718">
        <ele>273.5</ele>
        <time>2022-08-08T06:29:16Z</time>
      </trkpt>
      <trkpt lat="44.72457" lon="1.61713">
        <ele>274</ele>
        <time>2022-08-08T06:29:18Z</time>
      </trkpt>
      <trkpt lat="44.72453" lon="1.61709">
        <ele>274.4</ele>
        <time>2022-08-08T06:29:20Z</time>
      </trkpt>
      <trkpt lat="44.72449" lon="1.61705">
        <ele>274.8</ele>
        <time>2022-08-08T06:29:22Z</time>
      </trkpt>
      <trkpt lat="44.72446" lon="1.61701">
        <ele>275.2</ele>
        <time>2022-08-08T06:29:24Z</time>
      </trkpt>
      <trkpt lat="44.72442" lon="1.61698">
        <ele>275.5</ele>
        <time>2022-08-08T06:29:26Z</time>
      </trkpt>
      <trkpt lat="44.72438" lon="1.61694">
        <ele>275.9</ele>
        <time>2022-08-08T06:29:28Z</time>
      </trkpt>
      <trkpt lat="44.72435" lon="1.61689">
        <ele>276.3</ele>
        <time>2022-08-08T06:29:30Z</time>
      </trkpt>
      <trkpt lat="44.72431" lon="1.61686">
        <ele>276.6</ele>
        <time>2022-08-08T06:29:32Z</time>
      </trkpt>
      <trkpt lat="44.72428" lon="1.61682">
        <ele>276.9</ele>
        <time>2022-08-08T06:29:34Z</time>
      </trkpt>
      <trkpt lat="44.72425" lon="1.61678">
        <ele>277.2</ele>
        <time>2022-08-08T06:29:36Z</time>
      </trkpt>
      <trkpt lat="44.72422" lon="1.61675">
        <ele>277.4</ele>
        <time>2022-08-08T06:29:38Z</time>
      </trkpt>
      <trkpt lat="44.72419" lon="1.61671">
        <ele>277.7</ele>
        <time>2022-08-08T06:29:40Z</time>
      </trkpt>
      <trkpt lat="44.72415" lon="1.61668">
        <ele>278.1</ele>
        <time>2022-08-08T06:29:42Z</time>
      </trkpt>
      <trkpt lat="44.72412" lon="1.61664">
        <ele>279</ele>
        <time>2022-08-08T06:29:44Z</time>
      </trkpt>
      <trkpt lat="44.72409" lon="1.6166">
        <ele>279.8</ele>
        <time>2022-08-08T06:29:46Z</time>
      </trkpt>
      <trkpt lat="44.72405" lon="1.61657">
        <ele>280.6</ele>
        <time>2022-08-08T06:29:48Z</time>
      </trkpt>
      <trkpt lat="44.72402" lon="1.61654">
        <ele>281.4</ele>
        <time>2022-08-08T06:29:50Z</time>
      </trkpt>
      <trkpt lat="44.72399" lon="1.61651">
        <ele>282</ele>
        <time>2022-08-08T06:29:52Z</time>
      </trkpt>
      <trkpt lat="44.72396" lon="1.61648">
        <ele>282.5</ele>
        <time>2022-08-08T06:29:54Z</time>
      </trkpt>
      <trkpt lat="44.72393" lon="1.61644">
        <ele>283.2</ele>
        <time>2022-08-08T06:29:56Z</time>
      </trkpt>
      <trkpt lat="44.7239" lon="1.61641">
        <ele>283.7</ele>
        <time>2022-08-08T06:29:58Z</time>
      </trkpt>
      <trkpt lat="44.72387" lon="1.61637">
        <ele>284.2</ele>
        <time>2022-08-08T06:30:00Z</time>
      </trkpt>
      <trkpt lat="44.72384" lon="1.61634">
        <ele>284.7</ele>
        <time>2022-08-08T06:30:02Z</time>
      </trkpt>
      <trkpt lat="44.72381" lon="1.61631">
        <ele>285.1</ele>
        <time>2022-08-08T06:30:04Z</time>
      </trkpt>
      <trkpt lat="44.72378" lon="1.61628">
        <ele>285.5</ele>
        <time>2022-08-08T06:30:06Z</time>
      </trkpt>
      <trkpt lat="44.72374" lon="1.61625">
        <ele>285.8</ele>
        <time>2022-08-08T06:30:08Z</time>
      </trkpt>
      <trkpt lat="44.72371" lon="1.61622">
        <ele>286</ele>
        <time>2022-08-08T06:30:10Z</time>
      </trkpt>
      <trkpt lat="44.72368" lon="1.61619">
        <ele>286.3</ele>
        <time>2022-08-08T06:30:12Z</time>
      </trkpt>
      <trkpt lat="44.72364" lon="1.61615">
        <ele>286.5</ele>
        <time>2022-08-08T06:30:14Z</time>
      </trkpt>
      <trkpt lat="44.72361" lon="1.61612">
        <ele>286.6</ele>
        <time>2022-08-08T06:30:16Z</time>
      </trkpt>
      <trkpt lat="44.72358" lon="1.61609">
        <ele>286.7</ele>
        <time>2022-08-08T06:30:18Z</time>
      </trkpt>
      <trkpt lat="44.72355" lon="1.61605">
        <ele>286.8</ele>
        <time>2022-08-08T06:30:20Z</time>
      </trkpt>
      <trkpt lat="44.72353" lon="1.61602">
        <ele>286.8</ele>
        <time>2022-08-08T06:30:22Z</time>
      </trkpt>
      <trkpt lat="44.7235" lon="1.61598">
        <ele>286.8</ele>
        <time>2022-08-08T06:30:24Z</time>
      </trkpt>
      <trkpt lat="44.72348" lon="1.61595">
        <ele>286.8</ele>
        <time>2022-08-08T06:30:26Z</time>
      </trkpt>
      <trkpt lat="44.72345" lon="1.61591">
        <ele>286.7</ele>
        <time>2022-08-08T06:30:28Z</time>
      </trkpt>
      <trkpt lat="44.72343" lon="1.61587">
        <ele>286.6</ele>
        <time>2022-08-08T06:30:30Z</time>
      </trkpt>
      <trkpt lat="44.7234" lon="1.61584">
        <ele>286.5</ele>
        <time>2022-08-08T06:30:32Z</time>
      </trkpt>
      <trkpt lat="44.72338" lon="1.6158">
        <ele>286.8</ele>
        <time>2022-08-08T06:30:34Z</time>
      </trkpt>
      <trkpt lat="44.72337" lon="1.61575">
        <ele>287.2</ele>
        <time>2022-08-08T06:30:36Z</time>
      </trkpt>
      <trkpt lat="44.72334" lon="1.61571">
        <ele>287.4</ele>
        <time>2022-08-08T06:30:38Z</time>
      </trkpt>
      <trkpt lat="44.72332" lon="1.61566">
        <ele>287.9</ele>
        <time>2022-08-08T06:30:40Z</time>
      </trkpt>
      <trkpt lat="44.72331" lon="1.61562">
        <ele>288.4</ele>
        <time>2022-08-08T06:30:42Z</time>
      </trkpt>
      <trkpt lat="44.72329" lon="1.61557">
        <ele>288.9</ele>
        <time>2022-08-08T06:30:44Z</time>
      </trkpt>
      <trkpt lat="44.72327" lon="1.61553">
        <ele>289.3</ele>
        <time>2022-08-08T06:30:46Z</time>
      </trkpt>
      <trkpt lat="44.72326" lon="1.61549">
        <ele>289.8</ele>
        <time>2022-08-08T06:30:48Z</time>
      </trkpt>
      <trkpt lat="44.72324" lon="1.61544">
        <ele>290.2</ele>
        <time>2022-08-08T06:30:50Z</time>
      </trkpt>
      <trkpt lat="44.72322" lon="1.6154">
        <ele>290.6</ele>
        <time>2022-08-08T06:30:52Z</time>
      </trkpt>
      <trkpt lat="44.7232" lon="1.61536">
        <ele>291</ele>
        <time>2022-08-08T06:30:54Z</time>
      </trkpt>
      <trkpt lat="44.72318" lon="1.61532">
        <ele>291.4</ele>
        <time>2022-08-08T06:30:56Z</time>
      </trkpt>
      <trkpt lat="44.72316" lon="1.61529">
        <ele>291.7</ele>
        <time>2022-08-08T06:30:58Z</time>
      </trkpt>
      <trkpt lat="44.72315" lon="1.61524">
        <ele>292.1</ele>
        <time>2022-08-08T06:31:00Z</time>
      </trkpt>
      <trkpt lat="44.72313" lon="1.6152">
        <ele>292.5</ele>
        <time>2022-08-08T06:31:02Z</time>
      </trkpt>
      <trkpt lat="44.72311" lon="1.61516">
        <ele>292.8</ele>
        <time>2022-08-08T06:31:04Z</time>
      </trkpt>
      <trkpt lat="44.72309" lon="1.61511">
        <ele>293.2</ele>
        <time>2022-08-08T06:31:06Z</time>
      </trkpt>
      <trkpt lat="44.72307" lon="1.61507">
        <ele>293.5</ele>
        <time>2022-08-08T06:31:08Z</time>
      </trkpt>
      <trkpt lat="44.72306" lon="1.61502">
        <ele>293.8</ele>
        <time>2022-08-08T06:31:10Z</time>
      </trkpt>
      <trkpt lat="44.72305" lon="1.61496">
        <ele>294.2</ele>
        <time>2022-08-08T06:31:12Z</time>
      </trkpt>
      <trkpt lat="44.72303" lon="1.61491">
        <ele>294.6</ele>
        <time>2022-08-08T06:31:14Z</time>
      </trkpt>
      <trkpt lat="44.72302" lon="1.61487">
        <ele>294.9</ele>
        <time>2022-08-08T06:31:16Z</time>
      </trkpt>
      <trkpt lat="44.723" lon="1.6148">
        <ele>295.3</ele>
        <time>2022-08-08T06:31:18Z</time>
      </trkpt>
      <trkpt lat="44.72299" lon="1.61474">
        <ele>295.7</ele>
        <time>2022-08-08T06:31:20Z</time>
      </trkpt>
      <trkpt lat="44.72298" lon="1.61468">
        <ele>296.1</ele>
        <time>2022-08-08T06:31:22Z</time>
      </trkpt>
      <trkpt lat="44.72297" lon="1.61462">
        <ele>296.5</ele>
        <time>2022-08-08T06:31:24Z</time>
      </trkpt>
      <trkpt lat="44.72296" lon="1.61457">
        <ele>296.8</ele>
        <time>2022-08-08T06:31:26Z</time>
      </trkpt>
      <trkpt lat="44.72295" lon="1.61451">
        <ele>297.2</ele>
        <time>2022-08-08T06:31:28Z</time>
      </trkpt>
      <trkpt lat="44.72294" lon="1.61446">
        <ele>297.5</ele>
        <time>2022-08-08T06:31:30Z</time>
      </trkpt>
      <trkpt lat="44.72293" lon="1.61439">
        <ele>298</ele>
        <time>2022-08-08T06:31:32Z</time>
      </trkpt>
      <trkpt lat="44.72292" lon="1.61433">
        <ele>298.3</ele>
        <time>2022-08-08T06:31:34Z</time>
      </trkpt>
      <trkpt lat="44.7229" lon="1.61427">
        <ele>298.6</ele>
        <time>2022-08-08T06:31:36Z</time>
      </trkpt>
      <trkpt lat="44.72287" lon="1.61422">
        <ele>298.8</ele>
        <time>2022-08-08T06:31:38Z</time>
      </trkpt>
      <trkpt lat="44.72285" lon="1.61418">
        <ele>299</ele>
        <time>2022-08-08T06:31:40Z</time>
      </trkpt>
      <trkpt lat="44.72281" lon="1.61416">
        <ele>298.9</ele>
        <time>2022-08-08T06:31:42Z</time>
      </trkpt>
      <trkpt lat="44.72276" lon="1.61413">
        <ele>298.9</ele>
        <time>2022-08-08T06:31:44Z</time>
      </trkpt>
      <trkpt lat="44.72271" lon="1.61413">
        <ele>298.6</ele>
        <time>2022-08-08T06:31:46Z</time>
      </trkpt>
      <trkpt lat="44.72266" lon="1.61414">
        <ele>298.2</ele>
        <time>2022-08-08T06:31:48Z</time>
      </trkpt>
      <trkpt lat="44.72262" lon="1.61416">
        <ele>297.8</ele>
        <time>2022-08-08T06:31:50Z</time>
      </trkpt>
      <trkpt lat="44.72258" lon="1.61421">
        <ele>297.2</ele>
        <time>2022-08-08T06:31:52Z</time>
      </trkpt>
      <trkpt lat="44.72255" lon="1.61427">
        <ele>296.7</ele>
        <time>2022-08-08T06:31:54Z</time>
      </trkpt>
      <trkpt lat="44.72254" lon="1.61434">
        <ele>296.1</ele>
        <time>2022-08-08T06:31:56Z</time>
      </trkpt>
      <trkpt lat="44.72253" lon="1.61442">
        <ele>295.7</ele>
        <time>2022-08-08T06:31:58Z</time>
      </trkpt>
      <trkpt lat="44.72254" lon="1.61449">
        <ele>295.2</ele>
        <time>2022-08-08T06:32:00Z</time>
      </trkpt>
      <trkpt lat="44.72255" lon="1.61456">
        <ele>294.9</ele>
        <time>2022-08-08T06:32:02Z</time>
      </trkpt>
      <trkpt lat="44.72256" lon="1.61462">
        <ele>294.6</ele>
        <time>2022-08-08T06:32:04Z</time>
      </trkpt>
      <trkpt lat="44.72257" lon="1.61467">
        <ele>294.3</ele>
        <time>2022-08-08T06:32:06Z</time>
      </trkpt>
      <trkpt lat="44.72258" lon="1.61473">
        <ele>294</ele>
        <time>2022-08-08T06:32:08Z</time>
      </trkpt>
      <trkpt lat="44.72259" lon="1.61479">
        <ele>293.7</ele>
        <time>2022-08-08T06:32:10Z</time>
      </trkpt>
      <trkpt lat="44.7226" lon="1.61485">
        <ele>293.3</ele>
        <time>2022-08-08T06:32:12Z</time>
      </trkpt>
      <trkpt lat="44.72261" lon="1.61491">
        <ele>293</ele>
        <time>2022-08-08T06:32:14Z</time>
      </trkpt>
      <trkpt lat="44.72262" lon="1.61497">
        <ele>292.6</ele>
        <time>2022-08-08T06:32:16Z</time>
      </trkpt>
      <trkpt lat="44.72263" lon="1.61504">
        <ele>292.3</ele>
        <time>2022-08-08T06:32:18Z</time>
      </trkpt>
      <trkpt lat="44.72265" lon="1.6151">
        <ele>292</ele>
        <time>2022-08-08T06:32:20Z</time>
      </trkpt>
      <trkpt lat="44.72266" lon="1.61517">
        <ele>291.7</ele>
        <time>2022-08-08T06:32:22Z</time>
      </trkpt>
      <trkpt lat="44.72267" lon="1.61523">
        <ele>291.4</ele>
        <time>2022-08-08T06:32:24Z</time>
      </trkpt>
      <trkpt lat="44.72268" lon="1.61529">
        <ele>291.1</ele>
        <time>2022-08-08T06:32:26Z</time>
      </trkpt>
      <trkpt lat="44.72269" lon="1.61536">
        <ele>290.8</ele>
        <time>2022-08-08T06:32:28Z</time>
      </trkpt>
      <trkpt lat="44.72269" lon="1.61542">
        <ele>290.5</ele>
        <time>2022-08-08T06:32:30Z</time>
      </trkpt>
      <trkpt lat="44.72268" lon="1.61549">
        <ele>290.1</ele>
        <time>2022-08-08T06:32:32Z</time>
      </trkpt>
      <trkpt lat="44.72267" lon="1.61553">
        <ele>289.9</ele>
        <time>2022-08-08T06:32:34Z</time>
      </trkpt>
      <trkpt lat="44.72264" lon="1.61558">
        <ele>289.7</ele>
        <time>2022-08-08T06:32:36Z</time>
      </trkpt>
      <trkpt lat="44.72262" lon="1.61562">
        <ele>289.6</ele>
        <time>2022-08-08T06:32:38Z</time>
      </trkpt>
      <trkpt lat="44.72263" lon="1.61567">
        <ele>289.3</ele>
        <time>2022-08-08T06:32:40Z</time>
      </trkpt>
      <trkpt lat="44.72266" lon="1.61573">
        <ele>289</ele>
        <time>2022-08-08T06:32:42Z</time>
      </trkpt>
      <trkpt lat="44.7227" lon="1.61577">
        <ele>288.6</ele>
        <time>2022-08-08T06:32:44Z</time>
      </trkpt>
      <trkpt lat="44.72273" lon="1.61581">
        <ele>288.3</ele>
        <time>2022-08-08T06:32:46Z</time>
      </trkpt>
      <trkpt lat="44.72275" lon="1.61586">
        <ele>288</ele>
        <time>2022-08-08T06:32:48Z</time>
      </trkpt>
      <trkpt lat="44.72278" lon="1.61591">
        <ele>287.7</ele>
        <time>2022-08-08T06:32:50Z</time>
      </trkpt>
      <trkpt lat="44.72281" lon="1.61596">
        <ele>287.5</ele>
        <time>2022-08-08T06:32:52Z</time>
      </trkpt>
      <trkpt lat="44.72284" lon="1.61601">
        <ele>287.2</ele>
        <time>2022-08-08T06:32:54Z</time>
      </trkpt>
      <trkpt lat="44.72287" lon="1.61606">
        <ele>287</ele>
        <time>2022-08-08T06:32:56Z</time>
      </trkpt>
      <trkpt lat="44.72291" lon="1.61609">
        <ele>286.9</ele>
        <time>2022-08-08T06:32:58Z</time>
      </trkpt>
      <trkpt lat="44.72293" lon="1.61613">
        <ele>286.8</ele>
        <time>2022-08-08T06:33:00Z</time>
      </trkpt>
      <trkpt lat="44.72295" lon="1.61618">
        <ele>286.7</ele>
        <time>2022-08-08T06:33:02Z</time>
      </trkpt>
      <trkpt lat="44.72298" lon="1.6162">
        <ele>286.6</ele>
        <time>2022-08-08T06:33:04Z</time>
      </trkpt>
      <trkpt lat="44.72301" lon="1.61624">
        <ele>286.5</ele>
        <time>2022-08-08T06:33:06Z</time>
      </trkpt>
      <trkpt lat="44.72304" lon="1.61627">
        <ele>286.5</ele>
        <time>2022-08-08T06:33:08Z</time>
      </trkpt>
      <trkpt lat="44.72306" lon="1.61631">
        <ele>286.4</ele>
        <time>2022-08-08T06:33:10Z</time>
      </trkpt>
      <trkpt lat="44.72308" lon="1.61635">
        <ele>286.4</ele>
        <time>2022-08-08T06:33:12Z</time>
      </trkpt>
      <trkpt lat="44.7231" lon="1.61639">
        <ele>286.4</ele>
        <time>2022-08-08T06:33:14Z</time>
      </trkpt>
      <trkpt lat="44.72312" lon="1.61642">
        <ele>286.4</ele>
        <time>2022-08-08T06:33:16Z</time>
      </trkpt>
      <trkpt lat="44.72315" lon="1.61645">
        <ele>286.4</ele>
        <time>2022-08-08T06:33:18Z</time>
      </trkpt>
      <trkpt lat="44.72316" lon="1.61647">
        <ele>286.4</ele>
        <time>2022-08-08T06:33:20Z</time>
      </trkpt>
      <trkpt lat="44.72318" lon="1.61649">
        <ele>286.5</ele>
        <time>2022-08-08T06:33:22Z</time>
      </trkpt>
      <trkpt lat="44.72319" lon="1.61648">
        <ele>286.5</ele>
        <time>2022-08-08T06:33:24Z</time>
      </trkpt>
      <trkpt lat="44.72319" lon="1.61648">
        <ele>286.5</ele>
        <time>2022-08-08T06:33:26Z</time>
      </trkpt>
      <trkpt lat="44.72313" lon="1.61645">
        <ele>286.4</ele>
        <time>2022-08-08T06:46:26Z</time>
      </trkpt>
      <trkpt lat="44.72311" lon="1.61641">
        <ele>286.4</ele>
        <time>2022-08-08T06:46:28Z</time>
      </trkpt>
      <trkpt lat="44.72309" lon="1.61636">
        <ele>286.4</ele>
        <time>2022-08-08T06:46:30Z</time>
      </trkpt>
      <trkpt lat="44.72306" lon="1.61633">
        <ele>286.4</ele>
        <time>2022-08-08T06:46:32Z</time>
      </trkpt>
      <trkpt lat="44.72303" lon="1.61628">
        <ele>286.5</ele>
        <time>2022-08-08T06:46:34Z</time>
      </trkpt>
      <trkpt lat="44.72299" lon="1.61626">
        <ele>286.5</ele>
        <time>2022-08-08T06:46:36Z</time>
      </trkpt>
      <trkpt lat="44.72296" lon="1.61622">
        <ele>286.6</ele>
        <time>2022-08-08T06:46:38Z</time>
      </trkpt>
      <trkpt lat="44.72293" lon="1.61619">
        <ele>286.6</ele>
        <time>2022-08-08T06:46:40Z</time>
      </trkpt>
      <trkpt lat="44.72291" lon="1.61614">
        <ele>286.8</ele>
        <time>2022-08-08T06:46:42Z</time>
      </trkpt>
      <trkpt lat="44.72288" lon="1.61609">
        <ele>286.9</ele>
        <time>2022-08-08T06:46:44Z</time>
      </trkpt>
      <trkpt lat="44.72285" lon="1.61605">
        <ele>287.1</ele>
        <time>2022-08-08T06:46:46Z</time>
      </trkpt>
      <trkpt lat="44.7228" lon="1.61597">
        <ele>287.5</ele>
        <time>2022-08-08T06:46:48Z</time>
      </trkpt>
      <trkpt lat="44.72275" lon="1.61587">
        <ele>288</ele>
        <time>2022-08-08T06:46:50Z</time>
      </trkpt>
      <trkpt lat="44.72271" lon="1.61578">
        <ele>288.5</ele>
        <time>2022-08-08T06:46:52Z</time>
      </trkpt>
      <trkpt lat="44.72268" lon="1.61571">
        <ele>289</ele>
        <time>2022-08-08T06:46:54Z</time>
      </trkpt>
      <trkpt lat="44.72266" lon="1.61566">
        <ele>289.3</ele>
        <time>2022-08-08T06:46:56Z</time>
      </trkpt>
      <trkpt lat="44.72262" lon="1.61562">
        <ele>289.6</ele>
        <time>2022-08-08T06:46:58Z</time>
      </trkpt>
      <trkpt lat="44.72259" lon="1.61557">
        <ele>289.8</ele>
        <time>2022-08-08T06:47:00Z</time>
      </trkpt>
      <trkpt lat="44.72256" lon="1.61552">
        <ele>290.1</ele>
        <time>2022-08-08T06:47:02Z</time>
      </trkpt>
      <trkpt lat="44.72254" lon="1.61547">
        <ele>290.3</ele>
        <time>2022-08-08T06:47:04Z</time>
      </trkpt>
      <trkpt lat="44.72251" lon="1.61542">
        <ele>290.5</ele>
        <time>2022-08-08T06:47:06Z</time>
      </trkpt>
      <trkpt lat="44.72249" lon="1.61538">
        <ele>290.6</ele>
        <time>2022-08-08T06:47:08Z</time>
      </trkpt>
      <trkpt lat="44.72247" lon="1.61532">
        <ele>290.8</ele>
        <time>2022-08-08T06:47:10Z</time>
      </trkpt>
      <trkpt lat="44.72245" lon="1.61529">
        <ele>290.9</ele>
        <time>2022-08-08T06:47:12Z</time>
      </trkpt>
      <trkpt lat="44.72242" lon="1.61526">
        <ele>290.9</ele>
        <time>2022-08-08T06:47:14Z</time>
      </trkpt>
      <trkpt lat="44.72239" lon="1.61522">
        <ele>291</ele>
        <time>2022-08-08T06:47:16Z</time>
      </trkpt>
      <trkpt lat="44.72238" lon="1.61519">
        <ele>291.1</ele>
        <time>2022-08-08T06:47:18Z</time>
      </trkpt>
      <trkpt lat="44.72237" lon="1.61516">
        <ele>291.2</ele>
        <time>2022-08-08T06:47:20Z</time>
      </trkpt>
      <trkpt lat="44.72235" lon="1.61511">
        <ele>291.3</ele>
        <time>2022-08-08T06:47:22Z</time>
      </trkpt>
      <trkpt lat="44.72233" lon="1.61509">
        <ele>291.3</ele>
        <time>2022-08-08T06:47:24Z</time>
      </trkpt>
      <trkpt lat="44.72231" lon="1.61506">
        <ele>291.3</ele>
        <time>2022-08-08T06:47:26Z</time>
      </trkpt>
      <trkpt lat="44.72229" lon="1.61503">
        <ele>291.4</ele>
        <time>2022-08-08T06:47:28Z</time>
      </trkpt>
      <trkpt lat="44.72227" lon="1.615">
        <ele>291.4</ele>
        <time>2022-08-08T06:47:30Z</time>
      </trkpt>
      <trkpt lat="44.72226" lon="1.61497">
        <ele>291.7</ele>
        <time>2022-08-08T06:47:32Z</time>
      </trkpt>
      <trkpt lat="44.72225" lon="1.61493">
        <ele>291.9</ele>
        <time>2022-08-08T06:47:34Z</time>
      </trkpt>
      <trkpt lat="44.72223" lon="1.61489">
        <ele>292.2</ele>
        <time>2022-08-08T06:47:36Z</time>
      </trkpt>
      <trkpt lat="44.72221" lon="1.61485">
        <ele>292.4</ele>
        <time>2022-08-08T06:47:38Z</time>
      </trkpt>
      <trkpt lat="44.7222" lon="1.61481">
        <ele>292.7</ele>
        <time>2022-08-08T06:47:40Z</time>
      </trkpt>
      <trkpt lat="44.72219" lon="1.61477">
        <ele>292.9</ele>
        <time>2022-08-08T06:47:42Z</time>
      </trkpt>
      <trkpt lat="44.72217" lon="1.61474">
        <ele>293.2</ele>
        <time>2022-08-08T06:47:44Z</time>
      </trkpt>
      <trkpt lat="44.72215" lon="1.6147">
        <ele>293.4</ele>
        <time>2022-08-08T06:47:46Z</time>
      </trkpt>
      <trkpt lat="44.72213" lon="1.61466">
        <ele>293.7</ele>
        <time>2022-08-08T06:47:48Z</time>
      </trkpt>
      <trkpt lat="44.72212" lon="1.61462">
        <ele>294</ele>
        <time>2022-08-08T06:47:50Z</time>
      </trkpt>
      <trkpt lat="44.7221" lon="1.61458">
        <ele>294.3</ele>
        <time>2022-08-08T06:47:52Z</time>
      </trkpt>
      <trkpt lat="44.72209" lon="1.61453">
        <ele>294.6</ele>
        <time>2022-08-08T06:47:54Z</time>
      </trkpt>
      <trkpt lat="44.72207" lon="1.61449">
        <ele>295</ele>
        <time>2022-08-08T06:47:56Z</time>
      </trkpt>
      <trkpt lat="44.72205" lon="1.61445">
        <ele>295.3</ele>
        <time>2022-08-08T06:47:58Z</time>
      </trkpt>
      <trkpt lat="44.72203" lon="1.61441">
        <ele>295.6</ele>
        <time>2022-08-08T06:48:00Z</time>
      </trkpt>
      <trkpt lat="44.722" lon="1.61438">
        <ele>295.9</ele>
        <time>2022-08-08T06:48:02Z</time>
      </trkpt>
      <trkpt lat="44.72198" lon="1.61434">
        <ele>296.2</ele>
        <time>2022-08-08T06:48:04Z</time>
      </trkpt>
      <trkpt lat="44.72196" lon="1.6143">
        <ele>296.5</ele>
        <time>2022-08-08T06:48:06Z</time>
      </trkpt>
      <trkpt lat="44.72194" lon="1.61427">
        <ele>296.8</ele>
        <time>2022-08-08T06:48:08Z</time>
      </trkpt>
      <trkpt lat="44.72192" lon="1.61423">
        <ele>297.1</ele>
        <time>2022-08-08T06:48:10Z</time>
      </trkpt>
      <trkpt lat="44.72191" lon="1.61419">
        <ele>297.5</ele>
        <time>2022-08-08T06:48:12Z</time>
      </trkpt>
      <trkpt lat="44.72189" lon="1.61417">
        <ele>297.7</ele>
        <time>2022-08-08T06:48:14Z</time>
      </trkpt>
      <trkpt lat="44.72186" lon="1.61414">
        <ele>298.1</ele>
        <time>2022-08-08T06:48:16Z</time>
      </trkpt>
      <trkpt lat="44.72185" lon="1.61411">
        <ele>298.4</ele>
        <time>2022-08-08T06:48:18Z</time>
      </trkpt>
      <trkpt lat="44.72183" lon="1.61408">
        <ele>298.8</ele>
        <time>2022-08-08T06:48:20Z</time>
      </trkpt>
      <trkpt lat="44.72181" lon="1.61405">
        <ele>299.1</ele>
        <time>2022-08-08T06:48:22Z</time>
      </trkpt>
      <trkpt lat="44.72179" lon="1.61402">
        <ele>299.4</ele>
        <time>2022-08-08T06:48:24Z</time>
      </trkpt>
      <trkpt lat="44.72178" lon="1.61399">
        <ele>299.8</ele>
        <time>2022-08-08T06:48:26Z</time>
      </trkpt>
      <trkpt lat="44.72176" lon="1.61396">
        <ele>300.1</ele>
        <time>2022-08-08T06:48:28Z</time>
      </trkpt>
      <trkpt lat="44.72174" lon="1.61392">
        <ele>300.5</ele>
        <time>2022-08-08T06:48:30Z</time>
      </trkpt>
      <trkpt lat="44.72173" lon="1.61388">
        <ele>301</ele>
        <time>2022-08-08T06:48:32Z</time>
      </trkpt>
      <trkpt lat="44.72171" lon="1.61385">
        <ele>301.3</ele>
        <time>2022-08-08T06:48:34Z</time>
      </trkpt>
      <trkpt lat="44.72169" lon="1.61382">
        <ele>301.7</ele>
        <time>2022-08-08T06:48:36Z</time>
      </trkpt>
      <trkpt lat="44.72167" lon="1.61378">
        <ele>302.1</ele>
        <time>2022-08-08T06:48:38Z</time>
      </trkpt>
      <trkpt lat="44.72166" lon="1.61375">
        <ele>302.5</ele>
        <time>2022-08-08T06:48:40Z</time>
      </trkpt>
      <trkpt lat="44.72164" lon="1.61371">
        <ele>302.8</ele>
        <time>2022-08-08T06:48:42Z</time>
      </trkpt>
      <trkpt lat="44.72163" lon="1.61367">
        <ele>303.2</ele>
        <time>2022-08-08T06:48:44Z</time>
      </trkpt>
      <trkpt lat="44.72161" lon="1.61363">
        <ele>303.5</ele>
        <time>2022-08-08T06:48:46Z</time>
      </trkpt>
      <trkpt lat="44.7216" lon="1.6136">
        <ele>303.8</ele>
        <time>2022-08-08T06:48:48Z</time>
      </trkpt>
      <trkpt lat="44.72158" lon="1.61357">
        <ele>304.1</ele>
        <time>2022-08-08T06:48:50Z</time>
      </trkpt>
      <trkpt lat="44.72156" lon="1.61355">
        <ele>304.1</ele>
        <time>2022-08-08T06:48:52Z</time>
      </trkpt>
      <trkpt lat="44.72154" lon="1.61352">
        <ele>304.4</ele>
        <time>2022-08-08T06:48:54Z</time>
      </trkpt>
      <trkpt lat="44.72152" lon="1.61348">
        <ele>304.7</ele>
        <time>2022-08-08T06:48:56Z</time>
      </trkpt>
      <trkpt lat="44.72151" lon="1.61345">
        <ele>305</ele>
        <time>2022-08-08T06:48:58Z</time>
      </trkpt>
      <trkpt lat="44.72149" lon="1.61342">
        <ele>305.2</ele>
        <time>2022-08-08T06:49:00Z</time>
      </trkpt>
      <trkpt lat="44.72148" lon="1.61338">
        <ele>305.6</ele>
        <time>2022-08-08T06:49:02Z</time>
      </trkpt>
      <trkpt lat="44.72146" lon="1.61334">
        <ele>305.9</ele>
        <time>2022-08-08T06:49:04Z</time>
      </trkpt>
      <trkpt lat="44.72145" lon="1.61331">
        <ele>306.1</ele>
        <time>2022-08-08T06:49:06Z</time>
      </trkpt>
      <trkpt lat="44.72144" lon="1.61328">
        <ele>306.2</ele>
        <time>2022-08-08T06:49:08Z</time>
      </trkpt>
      <trkpt lat="44.72143" lon="1.61324">
        <ele>306.5</ele>
        <time>2022-08-08T06:49:10Z</time>
      </trkpt>
      <trkpt lat="44.72143" lon="1.61321">
        <ele>306.7</ele>
        <time>2022-08-08T06:49:12Z</time>
      </trkpt>
      <trkpt lat="44.72141" lon="1.61318">
        <ele>306.8</ele>
        <time>2022-08-08T06:49:14Z</time>
      </trkpt>
      <trkpt lat="44.7214" lon="1.61314">
        <ele>307</ele>
        <time>2022-08-08T06:49:16Z</time>
      </trkpt>
      <trkpt lat="44.72138" lon="1.6131">
        <ele>307.3</ele>
        <time>2022-08-08T06:49:18Z</time>
      </trkpt>
      <trkpt lat="44.72137" lon="1.61306">
        <ele>307.5</ele>
        <time>2022-08-08T06:49:20Z</time>
      </trkpt>
      <trkpt lat="44.72135" lon="1.61302">
        <ele>307.7</ele>
        <time>2022-08-08T06:49:22Z</time>
      </trkpt>
      <trkpt lat="44.72134" lon="1.61298">
        <ele>308</ele>
        <time>2022-08-08T06:49:24Z</time>
      </trkpt>
      <trkpt lat="44.72132" lon="1.61294">
        <ele>308.2</ele>
        <time>2022-08-08T06:49:26Z</time>
      </trkpt>
      <trkpt lat="44.7213" lon="1.61289">
        <ele>308.5</ele>
        <time>2022-08-08T06:49:28Z</time>
      </trkpt>
      <trkpt lat="44.72129" lon="1.61286">
        <ele>308.8</ele>
        <time>2022-08-08T06:49:30Z</time>
      </trkpt>
      <trkpt lat="44.72128" lon="1.61282">
        <ele>309</ele>
        <time>2022-08-08T06:49:32Z</time>
      </trkpt>
      <trkpt lat="44.72126" lon="1.61278">
        <ele>309.3</ele>
        <time>2022-08-08T06:49:34Z</time>
      </trkpt>
      <trkpt lat="44.72124" lon="1.61274">
        <ele>309.6</ele>
        <time>2022-08-08T06:49:36Z</time>
      </trkpt>
      <trkpt lat="44.72122" lon="1.6127">
        <ele>309.9</ele>
        <time>2022-08-08T06:49:38Z</time>
      </trkpt>
      <trkpt lat="44.72121" lon="1.61267">
        <ele>310.2</ele>
        <time>2022-08-08T06:49:40Z</time>
      </trkpt>
      <trkpt lat="44.72119" lon="1.61264">
        <ele>310.4</ele>
        <time>2022-08-08T06:49:42Z</time>
      </trkpt>
      <trkpt lat="44.72117" lon="1.6126">
        <ele>310.7</ele>
        <time>2022-08-08T06:49:44Z</time>
      </trkpt>
      <trkpt lat="44.72115" lon="1.61258">
        <ele>311</ele>
        <time>2022-08-08T06:49:46Z</time>
      </trkpt>
      <trkpt lat="44.72114" lon="1.61254">
        <ele>311.3</ele>
        <time>2022-08-08T06:49:48Z</time>
      </trkpt>
      <trkpt lat="44.72112" lon="1.6125">
        <ele>311.7</ele>
        <time>2022-08-08T06:49:50Z</time>
      </trkpt>
      <trkpt lat="44.72112" lon="1.61244">
        <ele>312.1</ele>
        <time>2022-08-08T06:49:52Z</time>
      </trkpt>
      <trkpt lat="44.7211" lon="1.61239">
        <ele>312.5</ele>
        <time>2022-08-08T06:49:54Z</time>
      </trkpt>
      <trkpt lat="44.72108" lon="1.61234">
        <ele>312.8</ele>
        <time>2022-08-08T06:49:56Z</time>
      </trkpt>
      <trkpt lat="44.72107" lon="1.6123">
        <ele>313.2</ele>
        <time>2022-08-08T06:49:58Z</time>
      </trkpt>
      <trkpt lat="44.72105" lon="1.61225">
        <ele>313.5</ele>
        <time>2022-08-08T06:50:00Z</time>
      </trkpt>
      <trkpt lat="44.72103" lon="1.61222">
        <ele>313.8</ele>
        <time>2022-08-08T06:50:02Z</time>
      </trkpt>
      <trkpt lat="44.72102" lon="1.61218">
        <ele>314.1</ele>
        <time>2022-08-08T06:50:04Z</time>
      </trkpt>
      <trkpt lat="44.72099" lon="1.61215">
        <ele>314.3</ele>
        <time>2022-08-08T06:50:06Z</time>
      </trkpt>
      <trkpt lat="44.72097" lon="1.61215">
        <ele>314.4</ele>
        <time>2022-08-08T06:50:08Z</time>
      </trkpt>
      <trkpt lat="44.72094" lon="1.61218">
        <ele>314.2</ele>
        <time>2022-08-08T06:50:10Z</time>
      </trkpt>
      <trkpt lat="44.72091" lon="1.6122">
        <ele>314.1</ele>
        <time>2022-08-08T06:50:12Z</time>
      </trkpt>
      <trkpt lat="44.72089" lon="1.61222">
        <ele>314</ele>
        <time>2022-08-08T06:50:14Z</time>
      </trkpt>
      <trkpt lat="44.72086" lon="1.61223">
        <ele>313.9</ele>
        <time>2022-08-08T06:50:16Z</time>
      </trkpt>
      <trkpt lat="44.72082" lon="1.61225">
        <ele>313.7</ele>
        <time>2022-08-08T06:50:18Z</time>
      </trkpt>
      <trkpt lat="44.72078" lon="1.61223">
        <ele>313.6</ele>
        <time>2022-08-08T06:50:20Z</time>
      </trkpt>
      <trkpt lat="44.72074" lon="1.6122">
        <ele>313.7</ele>
        <time>2022-08-08T06:50:22Z</time>
      </trkpt>
      <trkpt lat="44.7207" lon="1.61217">
        <ele>313.7</ele>
        <time>2022-08-08T06:50:24Z</time>
      </trkpt>
      <trkpt lat="44.72067" lon="1.61215">
        <ele>313.7</ele>
        <time>2022-08-08T06:50:26Z</time>
      </trkpt>
      <trkpt lat="44.72064" lon="1.61211">
        <ele>313.9</ele>
        <time>2022-08-08T06:50:28Z</time>
      </trkpt>
      <trkpt lat="44.72061" lon="1.61208">
        <ele>314.1</ele>
        <time>2022-08-08T06:50:30Z</time>
      </trkpt>
      <trkpt lat="44.72057" lon="1.61204">
        <ele>314.3</ele>
        <time>2022-08-08T06:50:32Z</time>
      </trkpt>
      <trkpt lat="44.72054" lon="1.61201">
        <ele>314.5</ele>
        <time>2022-08-08T06:50:34Z</time>
      </trkpt>
      <trkpt lat="44.7205" lon="1.61197">
        <ele>314.8</ele>
        <time>2022-08-08T06:50:36Z</time>
      </trkpt>
      <trkpt lat="44.72047" lon="1.61193">
        <ele>315.2</ele>
        <time>2022-08-08T06:50:38Z</time>
      </trkpt>
      <trkpt lat="44.72044" lon="1.61189">
        <ele>315.5</ele>
        <time>2022-08-08T06:50:40Z</time>
      </trkpt>
      <trkpt lat="44.72041" lon="1.61187">
        <ele>315.7</ele>
        <time>2022-08-08T06:50:42Z</time>
      </trkpt>
      <trkpt lat="44.72037" lon="1.61183">
        <ele>316.1</ele>
        <time>2022-08-08T06:50:44Z</time>
      </trkpt>
      <trkpt lat="44.72032" lon="1.6118">
        <ele>316.4</ele>
        <time>2022-08-08T06:50:46Z</time>
      </trkpt>
      <trkpt lat="44.72027" lon="1.61177">
        <ele>316.7</ele>
        <time>2022-08-08T06:50:48Z</time>
      </trkpt>
      <trkpt lat="44.72022" lon="1.61175">
        <ele>316.9</ele>
        <time>2022-08-08T06:50:50Z</time>
      </trkpt>
      <trkpt lat="44.72017" lon="1.61174">
        <ele>317</ele>
        <time>2022-08-08T06:50:52Z</time>
      </trkpt>
      <trkpt lat="44.72012" lon="1.61172">
        <ele>317.3</ele>
        <time>2022-08-08T06:50:54Z</time>
      </trkpt>
      <trkpt lat="44.72007" lon="1.6117">
        <ele>317.6</ele>
        <time>2022-08-08T06:50:56Z</time>
      </trkpt>
      <trkpt lat="44.72003" lon="1.61169">
        <ele>317.6</ele>
        <time>2022-08-08T06:50:58Z</time>
      </trkpt>
      <trkpt lat="44.71998" lon="1.61167">
        <ele>317.8</ele>
        <time>2022-08-08T06:51:00Z</time>
      </trkpt>
      <trkpt lat="44.71994" lon="1.61166">
        <ele>317.6</ele>
        <time>2022-08-08T06:51:02Z</time>
      </trkpt>
      <trkpt lat="44.7199" lon="1.61165">
        <ele>317.4</ele>
        <time>2022-08-08T06:51:04Z</time>
      </trkpt>
      <trkpt lat="44.71986" lon="1.61164">
        <ele>317.3</ele>
        <time>2022-08-08T06:51:06Z</time>
      </trkpt>
      <trkpt lat="44.71982" lon="1.61163">
        <ele>317.2</ele>
        <time>2022-08-08T06:51:08Z</time>
      </trkpt>
      <trkpt lat="44.71977" lon="1.61161">
        <ele>317.1</ele>
        <time>2022-08-08T06:51:10Z</time>
      </trkpt>
      <trkpt lat="44.71973" lon="1.6116">
        <ele>316.9</ele>
        <time>2022-08-08T06:51:12Z</time>
      </trkpt>
      <trkpt lat="44.71969" lon="1.61158">
        <ele>316.9</ele>
        <time>2022-08-08T06:51:14Z</time>
      </trkpt>
      <trkpt lat="44.71965" lon="1.61157">
        <ele>316.8</ele>
        <time>2022-08-08T06:51:16Z</time>
      </trkpt>
      <trkpt lat="44.71961" lon="1.61156">
        <ele>316.7</ele>
        <time>2022-08-08T06:51:18Z</time>
      </trkpt>
      <trkpt lat="44.71957" lon="1.61154">
        <ele>316.7</ele>
        <time>2022-08-08T06:51:20Z</time>
      </trkpt>
      <trkpt lat="44.71953" lon="1.61152">
        <ele>316.7</ele>
        <time>2022-08-08T06:51:22Z</time>
      </trkpt>
      <trkpt lat="44.7195" lon="1.61151">
        <ele>316.7</ele>
        <time>2022-08-08T06:51:24Z</time>
      </trkpt>
      <trkpt lat="44.71947" lon="1.61149">
        <ele>316.7</ele>
        <time>2022-08-08T06:51:26Z</time>
      </trkpt>
      <trkpt lat="44.71943" lon="1.61148">
        <ele>316.7</ele>
        <time>2022-08-08T06:51:28Z</time>
      </trkpt>
      <trkpt lat="44.7194" lon="1.61146">
        <ele>316.7</ele>
        <time>2022-08-08T06:51:30Z</time>
      </trkpt>
      <trkpt lat="44.71937" lon="1.61144">
        <ele>316.8</ele>
        <time>2022-08-08T06:51:32Z</time>
      </trkpt>
      <trkpt lat="44.71934" lon="1.61142">
        <ele>316.9</ele>
        <time>2022-08-08T06:51:34Z</time>
      </trkpt>
      <trkpt lat="44.7193" lon="1.61141">
        <ele>316.8</ele>
        <time>2022-08-08T06:51:36Z</time>
      </trkpt>
      <trkpt lat="44.71926" lon="1.61139">
        <ele>317</ele>
        <time>2022-08-08T06:51:38Z</time>
      </trkpt>
      <trkpt lat="44.71922" lon="1.61135">
        <ele>317.3</ele>
        <time>2022-08-08T06:51:40Z</time>
      </trkpt>
      <trkpt lat="44.71918" lon="1.61131">
        <ele>317.7</ele>
        <time>2022-08-08T06:51:42Z</time>
      </trkpt>
      <trkpt lat="44.71915" lon="1.61127">
        <ele>317.9</ele>
        <time>2022-08-08T06:51:44Z</time>
      </trkpt>
      <trkpt lat="44.71912" lon="1.61122">
        <ele>318.2</ele>
        <time>2022-08-08T06:51:46Z</time>
      </trkpt>
      <trkpt lat="44.71909" lon="1.61119">
        <ele>318.2</ele>
        <time>2022-08-08T06:51:48Z</time>
      </trkpt>
      <trkpt lat="44.71906" lon="1.61116">
        <ele>318.2</ele>
        <time>2022-08-08T06:51:50Z</time>
      </trkpt>
      <trkpt lat="44.71902" lon="1.61108">
        <ele>318.4</ele>
        <time>2022-08-08T06:51:52Z</time>
      </trkpt>
      <trkpt lat="44.71896" lon="1.61102">
        <ele>318.3</ele>
        <time>2022-08-08T06:51:54Z</time>
      </trkpt>
      <trkpt lat="44.71891" lon="1.61092">
        <ele>318.4</ele>
        <time>2022-08-08T06:51:56Z</time>
      </trkpt>
      <trkpt lat="44.71884" lon="1.61082">
        <ele>318</ele>
        <time>2022-08-08T06:51:58Z</time>
      </trkpt>
      <trkpt lat="44.71878" lon="1.61071">
        <ele>317.9</ele>
        <time>2022-08-08T06:52:00Z</time>
      </trkpt>
      <trkpt lat="44.71872" lon="1.61062">
        <ele>317.5</ele>
        <time>2022-08-08T06:52:02Z</time>
      </trkpt>
      <trkpt lat="44.71866" lon="1.61051">
        <ele>317.1</ele>
        <time>2022-08-08T06:52:04Z</time>
      </trkpt>
      <trkpt lat="44.71859" lon="1.61037">
        <ele>316.8</ele>
        <time>2022-08-08T06:52:06Z</time>
      </trkpt>
      <trkpt lat="44.71853" lon="1.61021">
        <ele>316.5</ele>
        <time>2022-08-08T06:52:08Z</time>
      </trkpt>
      <trkpt lat="44.71848" lon="1.61003">
        <ele>316.7</ele>
        <time>2022-08-08T06:52:10Z</time>
      </trkpt>
      <trkpt lat="44.71843" lon="1.60983">
        <ele>317.2</ele>
        <time>2022-08-08T06:52:12Z</time>
      </trkpt>
      <trkpt lat="44.7184" lon="1.60964">
        <ele>317.8</ele>
        <time>2022-08-08T06:52:14Z</time>
      </trkpt>
      <trkpt lat="44.71835" lon="1.60946">
        <ele>318.1</ele>
        <time>2022-08-08T06:52:16Z</time>
      </trkpt>
      <trkpt lat="44.71831" lon="1.60931">
        <ele>318.7</ele>
        <time>2022-08-08T06:52:18Z</time>
      </trkpt>
      <trkpt lat="44.71826" lon="1.60917">
        <ele>319.6</ele>
        <time>2022-08-08T06:52:20Z</time>
      </trkpt>
      <trkpt lat="44.71822" lon="1.60902">
        <ele>319.9</ele>
        <time>2022-08-08T06:52:22Z</time>
      </trkpt>
      <trkpt lat="44.71819" lon="1.60888">
        <ele>320.2</ele>
        <time>2022-08-08T06:52:24Z</time>
      </trkpt>
      <trkpt lat="44.71816" lon="1.60876">
        <ele>320.4</ele>
        <time>2022-08-08T06:52:26Z</time>
      </trkpt>
      <trkpt lat="44.71814" lon="1.60864">
        <ele>320.8</ele>
        <time>2022-08-08T06:52:28Z</time>
      </trkpt>
      <trkpt lat="44.71812" lon="1.60852">
        <ele>321.1</ele>
        <time>2022-08-08T06:52:30Z</time>
      </trkpt>
      <trkpt lat="44.71808" lon="1.60838">
        <ele>321.5</ele>
        <time>2022-08-08T06:52:32Z</time>
      </trkpt>
      <trkpt lat="44.718" lon="1.60828">
        <ele>321.8</ele>
        <time>2022-08-08T06:52:34Z</time>
      </trkpt>
      <trkpt lat="44.71788" lon="1.60827">
        <ele>321.7</ele>
        <time>2022-08-08T06:52:36Z</time>
      </trkpt>
      <trkpt lat="44.7178" lon="1.60832">
        <ele>321.4</ele>
        <time>2022-08-08T06:52:38Z</time>
      </trkpt>
      <trkpt lat="44.71775" lon="1.60841">
        <ele>320.9</ele>
        <time>2022-08-08T06:52:40Z</time>
      </trkpt>
      <trkpt lat="44.71773" lon="1.60852">
        <ele>320.3</ele>
        <time>2022-08-08T06:52:42Z</time>
      </trkpt>
      <trkpt lat="44.71771" lon="1.60861">
        <ele>319.8</ele>
        <time>2022-08-08T06:52:44Z</time>
      </trkpt>
      <trkpt lat="44.71769" lon="1.60871">
        <ele>319.3</ele>
        <time>2022-08-08T06:52:46Z</time>
      </trkpt>
      <trkpt lat="44.71768" lon="1.60878">
        <ele>318.9</ele>
        <time>2022-08-08T06:52:48Z</time>
      </trkpt>
      <trkpt lat="44.71767" lon="1.60884">
        <ele>318.5</ele>
        <time>2022-08-08T06:52:50Z</time>
      </trkpt>
      <trkpt lat="44.71766" lon="1.60889">
        <ele>318.2</ele>
        <time>2022-08-08T06:52:52Z</time>
      </trkpt>
      <trkpt lat="44.71765" lon="1.60894">
        <ele>317.9</ele>
        <time>2022-08-08T06:52:54Z</time>
      </trkpt>
      <trkpt lat="44.71763" lon="1.609">
        <ele>317.5</ele>
        <time>2022-08-08T06:52:56Z</time>
      </trkpt>
      <trkpt lat="44.71761" lon="1.60905">
        <ele>317.2</ele>
        <time>2022-08-08T06:52:58Z</time>
      </trkpt>
      <trkpt lat="44.71758" lon="1.60909">
        <ele>316.8</ele>
        <time>2022-08-08T06:53:00Z</time>
      </trkpt>
      <trkpt lat="44.71754" lon="1.60913">
        <ele>316.4</ele>
        <time>2022-08-08T06:53:02Z</time>
      </trkpt>
      <trkpt lat="44.71749" lon="1.60915">
        <ele>316.2</ele>
        <time>2022-08-08T06:53:04Z</time>
      </trkpt>
      <trkpt lat="44.71746" lon="1.60915">
        <ele>316.5</ele>
        <time>2022-08-08T06:53:06Z</time>
      </trkpt>
      <trkpt lat="44.71741" lon="1.60915">
        <ele>317</ele>
        <time>2022-08-08T06:53:08Z</time>
      </trkpt>
      <trkpt lat="44.71738" lon="1.60914">
        <ele>317.5</ele>
        <time>2022-08-08T06:53:10Z</time>
      </trkpt>
      <trkpt lat="44.71733" lon="1.60913">
        <ele>318</ele>
        <time>2022-08-08T06:53:12Z</time>
      </trkpt>
      <trkpt lat="44.7173" lon="1.60911">
        <ele>318.5</ele>
        <time>2022-08-08T06:53:14Z</time>
      </trkpt>
      <trkpt lat="44.71726" lon="1.6091">
        <ele>319</ele>
        <time>2022-08-08T06:53:16Z</time>
      </trkpt>
      <trkpt lat="44.71722" lon="1.60908">
        <ele>319.5</ele>
        <time>2022-08-08T06:53:18Z</time>
      </trkpt>
      <trkpt lat="44.71718" lon="1.60907">
        <ele>320</ele>
        <time>2022-08-08T06:53:20Z</time>
      </trkpt>
      <trkpt lat="44.71714" lon="1.60906">
        <ele>320.5</ele>
        <time>2022-08-08T06:53:22Z</time>
      </trkpt>
      <trkpt lat="44.7171" lon="1.60904">
        <ele>321</ele>
        <time>2022-08-08T06:53:24Z</time>
      </trkpt>
      <trkpt lat="44.71705" lon="1.60905">
        <ele>321.4</ele>
        <time>2022-08-08T06:53:26Z</time>
      </trkpt>
      <trkpt lat="44.71701" lon="1.60906">
        <ele>321.9</ele>
        <time>2022-08-08T06:53:28Z</time>
      </trkpt>
      <trkpt lat="44.71697" lon="1.60908">
        <ele>322.2</ele>
        <time>2022-08-08T06:53:30Z</time>
      </trkpt>
      <trkpt lat="44.71693" lon="1.60912">
        <ele>322.4</ele>
        <time>2022-08-08T06:53:32Z</time>
      </trkpt>
      <trkpt lat="44.71691" lon="1.60916">
        <ele>322.4</ele>
        <time>2022-08-08T06:53:34Z</time>
      </trkpt>
      <trkpt lat="44.71689" lon="1.60922">
        <ele>322.7</ele>
        <time>2022-08-08T06:53:36Z</time>
      </trkpt>
      <trkpt lat="44.71689" lon="1.60928">
        <ele>322.9</ele>
        <time>2022-08-08T06:53:38Z</time>
      </trkpt>
      <trkpt lat="44.71689" lon="1.60933">
        <ele>323</ele>
        <time>2022-08-08T06:53:40Z</time>
      </trkpt>
      <trkpt lat="44.71689" lon="1.6094">
        <ele>323.1</ele>
        <time>2022-08-08T06:53:42Z</time>
      </trkpt>
      <trkpt lat="44.71691" lon="1.60945">
        <ele>323</ele>
        <time>2022-08-08T06:53:44Z</time>
      </trkpt>
      <trkpt lat="44.71694" lon="1.6095">
        <ele>322.7</ele>
        <time>2022-08-08T06:53:46Z</time>
      </trkpt>
      <trkpt lat="44.71697" lon="1.60953">
        <ele>322.5</ele>
        <time>2022-08-08T06:53:48Z</time>
      </trkpt>
      <trkpt lat="44.717" lon="1.60958">
        <ele>322.1</ele>
        <time>2022-08-08T06:53:50Z</time>
      </trkpt>
      <trkpt lat="44.71702" lon="1.60962">
        <ele>321.8</ele>
        <time>2022-08-08T06:53:52Z</time>
      </trkpt>
      <trkpt lat="44.71705" lon="1.60966">
        <ele>321.5</ele>
        <time>2022-08-08T06:53:54Z</time>
      </trkpt>
      <trkpt lat="44.71708" lon="1.6097">
        <ele>321.2</ele>
        <time>2022-08-08T06:53:56Z</time>
      </trkpt>
      <trkpt lat="44.71711" lon="1.60973">
        <ele>320.8</ele>
        <time>2022-08-08T06:53:58Z</time>
      </trkpt>
      <trkpt lat="44.71713" lon="1.60978">
        <ele>320.5</ele>
        <time>2022-08-08T06:54:00Z</time>
      </trkpt>
      <trkpt lat="44.71716" lon="1.60982">
        <ele>320.2</ele>
        <time>2022-08-08T06:54:02Z</time>
      </trkpt>
      <trkpt lat="44.71719" lon="1.60986">
        <ele>319.8</ele>
        <time>2022-08-08T06:54:04Z</time>
      </trkpt>
      <trkpt lat="44.71721" lon="1.6099">
        <ele>319.5</ele>
        <time>2022-08-08T06:54:06Z</time>
      </trkpt>
      <trkpt lat="44.71723" lon="1.60996">
        <ele>319.2</ele>
        <time>2022-08-08T06:54:08Z</time>
      </trkpt>
      <trkpt lat="44.71724" lon="1.61">
        <ele>319</ele>
        <time>2022-08-08T06:54:10Z</time>
      </trkpt>
      <trkpt lat="44.71726" lon="1.61005">
        <ele>318.7</ele>
        <time>2022-08-08T06:54:12Z</time>
      </trkpt>
      <trkpt lat="44.71727" lon="1.61011">
        <ele>318.5</ele>
        <time>2022-08-08T06:54:14Z</time>
      </trkpt>
      <trkpt lat="44.71726" lon="1.61016">
        <ele>318.4</ele>
        <time>2022-08-08T06:54:16Z</time>
      </trkpt>
      <trkpt lat="44.71726" lon="1.61022">
        <ele>318.5</ele>
        <time>2022-08-08T06:54:18Z</time>
      </trkpt>
      <trkpt lat="44.71724" lon="1.61027">
        <ele>318.6</ele>
        <time>2022-08-08T06:54:20Z</time>
      </trkpt>
      <trkpt lat="44.71723" lon="1.61032">
        <ele>318.7</ele>
        <time>2022-08-08T06:54:22Z</time>
      </trkpt>
      <trkpt lat="44.7172" lon="1.61037">
        <ele>319</ele>
        <time>2022-08-08T06:54:24Z</time>
      </trkpt>
      <trkpt lat="44.71718" lon="1.6104">
        <ele>319.3</ele>
        <time>2022-08-08T06:54:26Z</time>
      </trkpt>
      <trkpt lat="44.71715" lon="1.61044">
        <ele>319.7</ele>
        <time>2022-08-08T06:54:28Z</time>
      </trkpt>
      <trkpt lat="44.71711" lon="1.61046">
        <ele>320.2</ele>
        <time>2022-08-08T06:54:30Z</time>
      </trkpt>
      <trkpt lat="44.71708" lon="1.61049">
        <ele>320.7</ele>
        <time>2022-08-08T06:54:32Z</time>
      </trkpt>
      <trkpt lat="44.71704" lon="1.61051">
        <ele>321.2</ele>
        <time>2022-08-08T06:54:34Z</time>
      </trkpt>
      <trkpt lat="44.71701" lon="1.61053">
        <ele>321.7</ele>
        <time>2022-08-08T06:54:36Z</time>
      </trkpt>
      <trkpt lat="44.71697" lon="1.61053">
        <ele>322.2</ele>
        <time>2022-08-08T06:54:38Z</time>
      </trkpt>
      <trkpt lat="44.71694" lon="1.61055">
        <ele>322.6</ele>
        <time>2022-08-08T06:54:40Z</time>
      </trkpt>
      <trkpt lat="44.7169" lon="1.61057">
        <ele>323.1</ele>
        <time>2022-08-08T06:54:42Z</time>
      </trkpt>
      <trkpt lat="44.71687" lon="1.61058">
        <ele>323.6</ele>
        <time>2022-08-08T06:54:44Z</time>
      </trkpt>
      <trkpt lat="44.71683" lon="1.61059">
        <ele>324.2</ele>
        <time>2022-08-08T06:54:46Z</time>
      </trkpt>
      <trkpt lat="44.71679" lon="1.61061">
        <ele>324.8</ele>
        <time>2022-08-08T06:54:48Z</time>
      </trkpt>
      <trkpt lat="44.71674" lon="1.61063">
        <ele>325.3</ele>
        <time>2022-08-08T06:54:50Z</time>
      </trkpt>
      <trkpt lat="44.71671" lon="1.61066">
        <ele>325.8</ele>
        <time>2022-08-08T06:54:52Z</time>
      </trkpt>
      <trkpt lat="44.71667" lon="1.61069">
        <ele>326.2</ele>
        <time>2022-08-08T06:54:54Z</time>
      </trkpt>
      <trkpt lat="44.71665" lon="1.61073">
        <ele>326.4</ele>
        <time>2022-08-08T06:54:56Z</time>
      </trkpt>
      <trkpt lat="44.71663" lon="1.61078">
        <ele>326.5</ele>
        <time>2022-08-08T06:54:58Z</time>
      </trkpt>
      <trkpt lat="44.71662" lon="1.61082">
        <ele>326.5</ele>
        <time>2022-08-08T06:55:00Z</time>
      </trkpt>
      <trkpt lat="44.71662" lon="1.61088">
        <ele>326.5</ele>
        <time>2022-08-08T06:55:02Z</time>
      </trkpt>
      <trkpt lat="44.71662" lon="1.61093">
        <ele>326.4</ele>
        <time>2022-08-08T06:55:04Z</time>
      </trkpt>
      <trkpt lat="44.71664" lon="1.61098">
        <ele>326.3</ele>
        <time>2022-08-08T06:55:06Z</time>
      </trkpt>
      <trkpt lat="44.71665" lon="1.61103">
        <ele>326.2</ele>
        <time>2022-08-08T06:55:08Z</time>
      </trkpt>
      <trkpt lat="44.71666" lon="1.61109">
        <ele>326</ele>
        <time>2022-08-08T06:55:10Z</time>
      </trkpt>
      <trkpt lat="44.71668" lon="1.61113">
        <ele>325.8</ele>
        <time>2022-08-08T06:55:12Z</time>
      </trkpt>
      <trkpt lat="44.7167" lon="1.61118">
        <ele>325.6</ele>
        <time>2022-08-08T06:55:14Z</time>
      </trkpt>
      <trkpt lat="44.71671" lon="1.61123">
        <ele>325.5</ele>
        <time>2022-08-08T06:55:16Z</time>
      </trkpt>
      <trkpt lat="44.71671" lon="1.61128">
        <ele>325.4</ele>
        <time>2022-08-08T06:55:18Z</time>
      </trkpt>
      <trkpt lat="44.71671" lon="1.61134">
        <ele>325.5</ele>
        <time>2022-08-08T06:55:20Z</time>
      </trkpt>
      <trkpt lat="44.7167" lon="1.61139">
        <ele>325.6</ele>
        <time>2022-08-08T06:55:22Z</time>
      </trkpt>
      <trkpt lat="44.71668" lon="1.61144">
        <ele>325.9</ele>
        <time>2022-08-08T06:55:24Z</time>
      </trkpt>
      <trkpt lat="44.71666" lon="1.6115">
        <ele>326</ele>
        <time>2022-08-08T06:55:26Z</time>
      </trkpt>
      <trkpt lat="44.71664" lon="1.61154">
        <ele>326.2</ele>
        <time>2022-08-08T06:55:28Z</time>
      </trkpt>
      <trkpt lat="44.71662" lon="1.61158">
        <ele>326.5</ele>
        <time>2022-08-08T06:55:30Z</time>
      </trkpt>
      <trkpt lat="44.71659" lon="1.61163">
        <ele>326.7</ele>
        <time>2022-08-08T06:55:32Z</time>
      </trkpt>
      <trkpt lat="44.71657" lon="1.61167">
        <ele>326.9</ele>
        <time>2022-08-08T06:55:34Z</time>
      </trkpt>
      <trkpt lat="44.71655" lon="1.61172">
        <ele>327</ele>
        <time>2022-08-08T06:55:36Z</time>
      </trkpt>
      <trkpt lat="44.71653" lon="1.61176">
        <ele>327.2</ele>
        <time>2022-08-08T06:55:38Z</time>
      </trkpt>
      <trkpt lat="44.71651" lon="1.61181">
        <ele>327.4</ele>
        <time>2022-08-08T06:55:40Z</time>
      </trkpt>
      <trkpt lat="44.71648" lon="1.61185">
        <ele>327.6</ele>
        <time>2022-08-08T06:55:42Z</time>
      </trkpt>
      <trkpt lat="44.71646" lon="1.61189">
        <ele>327.8</ele>
        <time>2022-08-08T06:55:44Z</time>
      </trkpt>
      <trkpt lat="44.71643" lon="1.61193">
        <ele>328</ele>
        <time>2022-08-08T06:55:46Z</time>
      </trkpt>
      <trkpt lat="44.71641" lon="1.61198">
        <ele>328.2</ele>
        <time>2022-08-08T06:55:48Z</time>
      </trkpt>
      <trkpt lat="44.71639" lon="1.61201">
        <ele>328.4</ele>
        <time>2022-08-08T06:55:50Z</time>
      </trkpt>
      <trkpt lat="44.71637" lon="1.61206">
        <ele>328.6</ele>
        <time>2022-08-08T06:55:52Z</time>
      </trkpt>
      <trkpt lat="44.71635" lon="1.6121">
        <ele>328.7</ele>
        <time>2022-08-08T06:55:54Z</time>
      </trkpt>
      <trkpt lat="44.71632" lon="1.61215">
        <ele>329</ele>
        <time>2022-08-08T06:55:56Z</time>
      </trkpt>
      <trkpt lat="44.7163" lon="1.61218">
        <ele>329.1</ele>
        <time>2022-08-08T06:55:58Z</time>
      </trkpt>
      <trkpt lat="44.71628" lon="1.61222">
        <ele>329.4</ele>
        <time>2022-08-08T06:56:00Z</time>
      </trkpt>
      <trkpt lat="44.71625" lon="1.61227">
        <ele>329.6</ele>
        <time>2022-08-08T06:56:02Z</time>
      </trkpt>
      <trkpt lat="44.71623" lon="1.61232">
        <ele>329.8</ele>
        <time>2022-08-08T06:56:04Z</time>
      </trkpt>
      <trkpt lat="44.7162" lon="1.61236">
        <ele>330.1</ele>
        <time>2022-08-08T06:56:06Z</time>
      </trkpt>
      <trkpt lat="44.71618" lon="1.61241">
        <ele>330.3</ele>
        <time>2022-08-08T06:56:08Z</time>
      </trkpt>
      <trkpt lat="44.71615" lon="1.61245">
        <ele>330.6</ele>
        <time>2022-08-08T06:56:10Z</time>
      </trkpt>
      <trkpt lat="44.71613" lon="1.6125">
        <ele>330.8</ele>
        <time>2022-08-08T06:56:12Z</time>
      </trkpt>
      <trkpt lat="44.7161" lon="1.61256">
        <ele>331</ele>
        <time>2022-08-08T06:56:14Z</time>
      </trkpt>
      <trkpt lat="44.71608" lon="1.61261">
        <ele>331.2</ele>
        <time>2022-08-08T06:56:16Z</time>
      </trkpt>
      <trkpt lat="44.71604" lon="1.61266">
        <ele>331.4</ele>
        <time>2022-08-08T06:56:18Z</time>
      </trkpt>
      <trkpt lat="44.71601" lon="1.61271">
        <ele>331.7</ele>
        <time>2022-08-08T06:56:20Z</time>
      </trkpt>
      <trkpt lat="44.71599" lon="1.61277">
        <ele>331.9</ele>
        <time>2022-08-08T06:56:22Z</time>
      </trkpt>
      <trkpt lat="44.71596" lon="1.61282">
        <ele>332.1</ele>
        <time>2022-08-08T06:56:24Z</time>
      </trkpt>
      <trkpt lat="44.71593" lon="1.61287">
        <ele>332.4</ele>
        <time>2022-08-08T06:56:26Z</time>
      </trkpt>
      <trkpt lat="44.7159" lon="1.61293">
        <ele>332.7</ele>
        <time>2022-08-08T06:56:28Z</time>
      </trkpt>
      <trkpt lat="44.71587" lon="1.61299">
        <ele>333</ele>
        <time>2022-08-08T06:56:30Z</time>
      </trkpt>
      <trkpt lat="44.71584" lon="1.61304">
        <ele>333.3</ele>
        <time>2022-08-08T06:56:32Z</time>
      </trkpt>
      <trkpt lat="44.71581" lon="1.6131">
        <ele>333.4</ele>
        <time>2022-08-08T06:56:34Z</time>
      </trkpt>
      <trkpt lat="44.71578" lon="1.61315">
        <ele>333.4</ele>
        <time>2022-08-08T06:56:36Z</time>
      </trkpt>
      <trkpt lat="44.71575" lon="1.61321">
        <ele>333.5</ele>
        <time>2022-08-08T06:56:38Z</time>
      </trkpt>
      <trkpt lat="44.71572" lon="1.61326">
        <ele>333.5</ele>
        <time>2022-08-08T06:56:40Z</time>
      </trkpt>
      <trkpt lat="44.71569" lon="1.61332">
        <ele>333.5</ele>
        <time>2022-08-08T06:56:42Z</time>
      </trkpt>
      <trkpt lat="44.71567" lon="1.61338">
        <ele>333.5</ele>
        <time>2022-08-08T06:56:44Z</time>
      </trkpt>
      <trkpt lat="44.71564" lon="1.61344">
        <ele>333.6</ele>
        <time>2022-08-08T06:56:46Z</time>
      </trkpt>
      <trkpt lat="44.71562" lon="1.61349">
        <ele>333.6</ele>
        <time>2022-08-08T06:56:48Z</time>
      </trkpt>
      <trkpt lat="44.71558" lon="1.61355">
        <ele>333.6</ele>
        <time>2022-08-08T06:56:50Z</time>
      </trkpt>
      <trkpt lat="44.71555" lon="1.61361">
        <ele>333.7</ele>
        <time>2022-08-08T06:56:52Z</time>
      </trkpt>
      <trkpt lat="44.71552" lon="1.61367">
        <ele>333.7</ele>
        <time>2022-08-08T06:56:54Z</time>
      </trkpt>
      <trkpt lat="44.71548" lon="1.61374">
        <ele>333.8</ele>
        <time>2022-08-08T06:56:56Z</time>
      </trkpt>
      <trkpt lat="44.71544" lon="1.61381">
        <ele>333.8</ele>
        <time>2022-08-08T06:56:58Z</time>
      </trkpt>
      <trkpt lat="44.7154" lon="1.61388">
        <ele>333.9</ele>
        <time>2022-08-08T06:57:00Z</time>
      </trkpt>
      <trkpt lat="44.71536" lon="1.61394">
        <ele>334</ele>
        <time>2022-08-08T06:57:02Z</time>
      </trkpt>
      <trkpt lat="44.71532" lon="1.61401">
        <ele>334</ele>
        <time>2022-08-08T06:57:04Z</time>
      </trkpt>
      <trkpt lat="44.71527" lon="1.61408">
        <ele>334.1</ele>
        <time>2022-08-08T06:57:06Z</time>
      </trkpt>
      <trkpt lat="44.71522" lon="1.61414">
        <ele>334.2</ele>
        <time>2022-08-08T06:57:08Z</time>
      </trkpt>
      <trkpt lat="44.71517" lon="1.61421">
        <ele>334.3</ele>
        <time>2022-08-08T06:57:10Z</time>
      </trkpt>
      <trkpt lat="44.71512" lon="1.61427">
        <ele>334.4</ele>
        <time>2022-08-08T06:57:12Z</time>
      </trkpt>
      <trkpt lat="44.71507" lon="1.61433">
        <ele>334.5</ele>
        <time>2022-08-08T06:57:14Z</time>
      </trkpt>
      <trkpt lat="44.71501" lon="1.6144">
        <ele>334.7</ele>
        <time>2022-08-08T06:57:16Z</time>
      </trkpt>
      <trkpt lat="44.71495" lon="1.61446">
        <ele>334.9</ele>
        <time>2022-08-08T06:57:18Z</time>
      </trkpt>
      <trkpt lat="44.7149" lon="1.61452">
        <ele>335.1</ele>
        <time>2022-08-08T06:57:20Z</time>
      </trkpt>
      <trkpt lat="44.71484" lon="1.61458">
        <ele>335.3</ele>
        <time>2022-08-08T06:57:22Z</time>
      </trkpt>
      <trkpt lat="44.71479" lon="1.61463">
        <ele>335.4</ele>
        <time>2022-08-08T06:57:24Z</time>
      </trkpt>
      <trkpt lat="44.71473" lon="1.61468">
        <ele>335.6</ele>
        <time>2022-08-08T06:57:26Z</time>
      </trkpt>
      <trkpt lat="44.71468" lon="1.61473">
        <ele>335.7</ele>
        <time>2022-08-08T06:57:28Z</time>
      </trkpt>
      <trkpt lat="44.71462" lon="1.61478">
        <ele>335.9</ele>
        <time>2022-08-08T06:57:30Z</time>
      </trkpt>
      <trkpt lat="44.71457" lon="1.61482">
        <ele>336</ele>
        <time>2022-08-08T06:57:32Z</time>
      </trkpt>
      <trkpt lat="44.71451" lon="1.61487">
        <ele>336.1</ele>
        <time>2022-08-08T06:57:34Z</time>
      </trkpt>
      <trkpt lat="44.71446" lon="1.61491">
        <ele>336.2</ele>
        <time>2022-08-08T06:57:36Z</time>
      </trkpt>
      <trkpt lat="44.7144" lon="1.61496">
        <ele>336.3</ele>
        <time>2022-08-08T06:57:38Z</time>
      </trkpt>
      <trkpt lat="44.71435" lon="1.61499">
        <ele>336.4</ele>
        <time>2022-08-08T06:57:40Z</time>
      </trkpt>
      <trkpt lat="44.71429" lon="1.61503">
        <ele>336.4</ele>
        <time>2022-08-08T06:57:42Z</time>
      </trkpt>
      <trkpt lat="44.71423" lon="1.61508">
        <ele>336.5</ele>
        <time>2022-08-08T06:57:44Z</time>
      </trkpt>
      <trkpt lat="44.71418" lon="1.61512">
        <ele>336.5</ele>
        <time>2022-08-08T06:57:46Z</time>
      </trkpt>
      <trkpt lat="44.71412" lon="1.61516">
        <ele>336.8</ele>
        <time>2022-08-08T06:57:48Z</time>
      </trkpt>
      <trkpt lat="44.71406" lon="1.6152">
        <ele>337.1</ele>
        <time>2022-08-08T06:57:50Z</time>
      </trkpt>
      <trkpt lat="44.714" lon="1.61524">
        <ele>337.3</ele>
        <time>2022-08-08T06:57:52Z</time>
      </trkpt>
      <trkpt lat="44.71395" lon="1.61529">
        <ele>337.6</ele>
        <time>2022-08-08T06:57:54Z</time>
      </trkpt>
      <trkpt lat="44.71389" lon="1.61533">
        <ele>337.9</ele>
        <time>2022-08-08T06:57:56Z</time>
      </trkpt>
      <trkpt lat="44.71383" lon="1.61538">
        <ele>338.2</ele>
        <time>2022-08-08T06:57:58Z</time>
      </trkpt>
      <trkpt lat="44.71378" lon="1.61541">
        <ele>338.5</ele>
        <time>2022-08-08T06:58:00Z</time>
      </trkpt>
      <trkpt lat="44.71372" lon="1.61546">
        <ele>338.9</ele>
        <time>2022-08-08T06:58:02Z</time>
      </trkpt>
      <trkpt lat="44.71367" lon="1.61549">
        <ele>339.1</ele>
        <time>2022-08-08T06:58:04Z</time>
      </trkpt>
      <trkpt lat="44.71362" lon="1.61553">
        <ele>339.4</ele>
        <time>2022-08-08T06:58:06Z</time>
      </trkpt>
      <trkpt lat="44.71358" lon="1.61556">
        <ele>339.7</ele>
        <time>2022-08-08T06:58:08Z</time>
      </trkpt>
      <trkpt lat="44.71353" lon="1.6156">
        <ele>340</ele>
        <time>2022-08-08T06:58:10Z</time>
      </trkpt>
      <trkpt lat="44.71348" lon="1.61563">
        <ele>340.3</ele>
        <time>2022-08-08T06:58:12Z</time>
      </trkpt>
      <trkpt lat="44.71344" lon="1.61566">
        <ele>340.5</ele>
        <time>2022-08-08T06:58:14Z</time>
      </trkpt>
      <trkpt lat="44.7134" lon="1.61571">
        <ele>340.8</ele>
        <time>2022-08-08T06:58:16Z</time>
      </trkpt>
      <trkpt lat="44.71336" lon="1.61574">
        <ele>341</ele>
        <time>2022-08-08T06:58:18Z</time>
      </trkpt>
      <trkpt lat="44.71332" lon="1.61576">
        <ele>341.2</ele>
        <time>2022-08-08T06:58:20Z</time>
      </trkpt>
      <trkpt lat="44.71328" lon="1.61579">
        <ele>341.3</ele>
        <time>2022-08-08T06:58:22Z</time>
      </trkpt>
      <trkpt lat="44.71324" lon="1.61582">
        <ele>341.4</ele>
        <time>2022-08-08T06:58:24Z</time>
      </trkpt>
      <trkpt lat="44.7132" lon="1.61584">
        <ele>341.4</ele>
        <time>2022-08-08T06:58:26Z</time>
      </trkpt>
      <trkpt lat="44.71316" lon="1.61587">
        <ele>341.5</ele>
        <time>2022-08-08T06:58:28Z</time>
      </trkpt>
      <trkpt lat="44.71312" lon="1.61589">
        <ele>341.5</ele>
        <time>2022-08-08T06:58:30Z</time>
      </trkpt>
      <trkpt lat="44.71308" lon="1.61591">
        <ele>341.6</ele>
        <time>2022-08-08T06:58:32Z</time>
      </trkpt>
      <trkpt lat="44.71304" lon="1.61593">
        <ele>341.7</ele>
        <time>2022-08-08T06:58:34Z</time>
      </trkpt>
      <trkpt lat="44.713" lon="1.61595">
        <ele>341.7</ele>
        <time>2022-08-08T06:58:36Z</time>
      </trkpt>
      <trkpt lat="44.71296" lon="1.61596">
        <ele>341.8</ele>
        <time>2022-08-08T06:58:38Z</time>
      </trkpt>
      <trkpt lat="44.71292" lon="1.61598">
        <ele>341.9</ele>
        <time>2022-08-08T06:58:40Z</time>
      </trkpt>
      <trkpt lat="44.71288" lon="1.61599">
        <ele>342</ele>
        <time>2022-08-08T06:58:42Z</time>
      </trkpt>
      <trkpt lat="44.71283" lon="1.616">
        <ele>342.1</ele>
        <time>2022-08-08T06:58:44Z</time>
      </trkpt>
      <trkpt lat="44.71278" lon="1.61601">
        <ele>342.2</ele>
        <time>2022-08-08T06:58:46Z</time>
      </trkpt>
      <trkpt lat="44.71273" lon="1.61602">
        <ele>342.3</ele>
        <time>2022-08-08T06:58:48Z</time>
      </trkpt>
      <trkpt lat="44.71268" lon="1.61603">
        <ele>342.5</ele>
        <time>2022-08-08T06:58:50Z</time>
      </trkpt>
      <trkpt lat="44.71263" lon="1.61603">
        <ele>342.6</ele>
        <time>2022-08-08T06:58:52Z</time>
      </trkpt>
      <trkpt lat="44.71257" lon="1.61604">
        <ele>342.8</ele>
        <time>2022-08-08T06:58:54Z</time>
      </trkpt>
      <trkpt lat="44.71251" lon="1.61606">
        <ele>342.9</ele>
        <time>2022-08-08T06:58:56Z</time>
      </trkpt>
      <trkpt lat="44.71246" lon="1.61606">
        <ele>342.9</ele>
        <time>2022-08-08T06:58:58Z</time>
      </trkpt>
      <trkpt lat="44.71239" lon="1.61607">
        <ele>342.8</ele>
        <time>2022-08-08T06:59:00Z</time>
      </trkpt>
      <trkpt lat="44.71233" lon="1.61608">
        <ele>342.7</ele>
        <time>2022-08-08T06:59:02Z</time>
      </trkpt>
      <trkpt lat="44.71227" lon="1.61609">
        <ele>342.6</ele>
        <time>2022-08-08T06:59:04Z</time>
      </trkpt>
      <trkpt lat="44.7122" lon="1.6161">
        <ele>342.5</ele>
        <time>2022-08-08T06:59:06Z</time>
      </trkpt>
      <trkpt lat="44.71214" lon="1.61611">
        <ele>342.4</ele>
        <time>2022-08-08T06:59:08Z</time>
      </trkpt>
      <trkpt lat="44.71207" lon="1.61612">
        <ele>342.3</ele>
        <time>2022-08-08T06:59:10Z</time>
      </trkpt>
      <trkpt lat="44.71199" lon="1.61613">
        <ele>342.2</ele>
        <time>2022-08-08T06:59:12Z</time>
      </trkpt>
      <trkpt lat="44.71192" lon="1.61614">
        <ele>342.1</ele>
        <time>2022-08-08T06:59:14Z</time>
      </trkpt>
      <trkpt lat="44.71184" lon="1.61616">
        <ele>342</ele>
        <time>2022-08-08T06:59:16Z</time>
      </trkpt>
      <trkpt lat="44.71177" lon="1.61617">
        <ele>341.9</ele>
        <time>2022-08-08T06:59:18Z</time>
      </trkpt>
      <trkpt lat="44.71169" lon="1.61618">
        <ele>341.8</ele>
        <time>2022-08-08T06:59:20Z</time>
      </trkpt>
      <trkpt lat="44.71161" lon="1.61619">
        <ele>341.8</ele>
        <time>2022-08-08T06:59:22Z</time>
      </trkpt>
      <trkpt lat="44.71154" lon="1.6162">
        <ele>341.8</ele>
        <time>2022-08-08T06:59:24Z</time>
      </trkpt>
      <trkpt lat="44.71146" lon="1.61621">
        <ele>341.9</ele>
        <time>2022-08-08T06:59:26Z</time>
      </trkpt>
      <trkpt lat="44.71138" lon="1.61623">
        <ele>341.9</ele>
        <time>2022-08-08T06:59:28Z</time>
      </trkpt>
      <trkpt lat="44.7113" lon="1.61624">
        <ele>342</ele>
        <time>2022-08-08T06:59:30Z</time>
      </trkpt>
      <trkpt lat="44.71122" lon="1.61625">
        <ele>342</ele>
        <time>2022-08-08T06:59:32Z</time>
      </trkpt>
      <trkpt lat="44.71114" lon="1.61626">
        <ele>342.1</ele>
        <time>2022-08-08T06:59:34Z</time>
      </trkpt>
      <trkpt lat="44.71106" lon="1.61628">
        <ele>342.2</ele>
        <time>2022-08-08T06:59:36Z</time>
      </trkpt>
      <trkpt lat="44.71097" lon="1.6163">
        <ele>342.3</ele>
        <time>2022-08-08T06:59:38Z</time>
      </trkpt>
      <trkpt lat="44.71089" lon="1.61631">
        <ele>342.3</ele>
        <time>2022-08-08T06:59:40Z</time>
      </trkpt>
      <trkpt lat="44.71081" lon="1.61632">
        <ele>342.4</ele>
        <time>2022-08-08T06:59:42Z</time>
      </trkpt>
      <trkpt lat="44.71073" lon="1.61633">
        <ele>342.4</ele>
        <time>2022-08-08T06:59:44Z</time>
      </trkpt>
      <trkpt lat="44.71064" lon="1.61635">
        <ele>342.4</ele>
        <time>2022-08-08T06:59:46Z</time>
      </trkpt>
      <trkpt lat="44.71056" lon="1.61637">
        <ele>342.5</ele>
        <time>2022-08-08T06:59:48Z</time>
      </trkpt>
      <trkpt lat="44.71047" lon="1.61638">
        <ele>342.5</ele>
        <time>2022-08-08T06:59:50Z</time>
      </trkpt>
      <trkpt lat="44.71039" lon="1.61639">
        <ele>342.5</ele>
        <time>2022-08-08T06:59:52Z</time>
      </trkpt>
      <trkpt lat="44.71031" lon="1.61642">
        <ele>342.6</ele>
        <time>2022-08-08T06:59:54Z</time>
      </trkpt>
      <trkpt lat="44.71023" lon="1.61642">
        <ele>342.6</ele>
        <time>2022-08-08T06:59:56Z</time>
      </trkpt>
      <trkpt lat="44.71014" lon="1.61644">
        <ele>342.6</ele>
        <time>2022-08-08T06:59:58Z</time>
      </trkpt>
      <trkpt lat="44.71007" lon="1.61646">
        <ele>342.7</ele>
        <time>2022-08-08T07:00:00Z</time>
      </trkpt>
      <trkpt lat="44.70999" lon="1.61648">
        <ele>342.8</ele>
        <time>2022-08-08T07:00:02Z</time>
      </trkpt>
      <trkpt lat="44.70992" lon="1.61652">
        <ele>342.7</ele>
        <time>2022-08-08T07:00:04Z</time>
      </trkpt>
      <trkpt lat="44.70984" lon="1.61654">
        <ele>342.6</ele>
        <time>2022-08-08T07:00:06Z</time>
      </trkpt>
      <trkpt lat="44.70976" lon="1.61657">
        <ele>342.4</ele>
        <time>2022-08-08T07:00:08Z</time>
      </trkpt>
      <trkpt lat="44.70969" lon="1.6166">
        <ele>342.3</ele>
        <time>2022-08-08T07:00:10Z</time>
      </trkpt>
      <trkpt lat="44.70963" lon="1.61663">
        <ele>342.1</ele>
        <time>2022-08-08T07:00:12Z</time>
      </trkpt>
      <trkpt lat="44.70956" lon="1.61665">
        <ele>341.9</ele>
        <time>2022-08-08T07:00:14Z</time>
      </trkpt>
      <trkpt lat="44.70949" lon="1.61667">
        <ele>341.8</ele>
        <time>2022-08-08T07:00:16Z</time>
      </trkpt>
      <trkpt lat="44.70943" lon="1.6167">
        <ele>341.5</ele>
        <time>2022-08-08T07:00:18Z</time>
      </trkpt>
      <trkpt lat="44.70937" lon="1.61672">
        <ele>341.3</ele>
        <time>2022-08-08T07:00:20Z</time>
      </trkpt>
      <trkpt lat="44.70931" lon="1.61674">
        <ele>341.1</ele>
        <time>2022-08-08T07:00:22Z</time>
      </trkpt>
      <trkpt lat="44.70925" lon="1.61677">
        <ele>340.9</ele>
        <time>2022-08-08T07:00:24Z</time>
      </trkpt>
      <trkpt lat="44.70917" lon="1.6168">
        <ele>340.7</ele>
        <time>2022-08-08T07:00:26Z</time>
      </trkpt>
      <trkpt lat="44.7091" lon="1.61683">
        <ele>340.4</ele>
        <time>2022-08-08T07:00:28Z</time>
      </trkpt>
      <trkpt lat="44.70902" lon="1.61686">
        <ele>339.9</ele>
        <time>2022-08-08T07:00:30Z</time>
      </trkpt>
      <trkpt lat="44.70892" lon="1.6169">
        <ele>339.5</ele>
        <time>2022-08-08T07:00:32Z</time>
      </trkpt>
      <trkpt lat="44.70882" lon="1.61694">
        <ele>338.9</ele>
        <time>2022-08-08T07:00:34Z</time>
      </trkpt>
      <trkpt lat="44.7087" lon="1.61699">
        <ele>338.3</ele>
        <time>2022-08-08T07:00:36Z</time>
      </trkpt>
      <trkpt lat="44.70857" lon="1.61704">
        <ele>337.6</ele>
        <time>2022-08-08T07:00:38Z</time>
      </trkpt>
      <trkpt lat="44.70842" lon="1.6171">
        <ele>336.8</ele>
        <time>2022-08-08T07:00:40Z</time>
      </trkpt>
      <trkpt lat="44.70827" lon="1.61716">
        <ele>336.1</ele>
        <time>2022-08-08T07:00:42Z</time>
      </trkpt>
      <trkpt lat="44.70811" lon="1.61721">
        <ele>335.4</ele>
        <time>2022-08-08T07:00:44Z</time>
      </trkpt>
      <trkpt lat="44.70795" lon="1.61728">
        <ele>334.7</ele>
        <time>2022-08-08T07:00:46Z</time>
      </trkpt>
      <trkpt lat="44.7078" lon="1.61734">
        <ele>333.9</ele>
        <time>2022-08-08T07:00:48Z</time>
      </trkpt>
      <trkpt lat="44.70764" lon="1.6174">
        <ele>333.1</ele>
        <time>2022-08-08T07:00:50Z</time>
      </trkpt>
      <trkpt lat="44.70749" lon="1.61746">
        <ele>332.3</ele>
        <time>2022-08-08T07:00:52Z</time>
      </trkpt>
      <trkpt lat="44.70735" lon="1.61751">
        <ele>332.6</ele>
        <time>2022-08-08T07:00:54Z</time>
      </trkpt>
      <trkpt lat="44.70721" lon="1.61757">
        <ele>333.2</ele>
        <time>2022-08-08T07:00:56Z</time>
      </trkpt>
      <trkpt lat="44.70708" lon="1.61761">
        <ele>333.7</ele>
        <time>2022-08-08T07:00:58Z</time>
      </trkpt>
      <trkpt lat="44.70695" lon="1.61765">
        <ele>334.1</ele>
        <time>2022-08-08T07:01:00Z</time>
      </trkpt>
      <trkpt lat="44.70684" lon="1.6177">
        <ele>334.5</ele>
        <time>2022-08-08T07:01:02Z</time>
      </trkpt>
      <trkpt lat="44.70673" lon="1.61774">
        <ele>334.8</ele>
        <time>2022-08-08T07:01:04Z</time>
      </trkpt>
      <trkpt lat="44.70664" lon="1.61778">
        <ele>335.1</ele>
        <time>2022-08-08T07:01:06Z</time>
      </trkpt>
      <trkpt lat="44.70656" lon="1.61782">
        <ele>335.3</ele>
        <time>2022-08-08T07:01:08Z</time>
      </trkpt>
      <trkpt lat="44.70648" lon="1.61785">
        <ele>335.6</ele>
        <time>2022-08-08T07:01:10Z</time>
      </trkpt>
      <trkpt lat="44.7064" lon="1.61787">
        <ele>335.8</ele>
        <time>2022-08-08T07:01:12Z</time>
      </trkpt>
      <trkpt lat="44.70633" lon="1.6179">
        <ele>336</ele>
        <time>2022-08-08T07:01:14Z</time>
      </trkpt>
      <trkpt lat="44.70626" lon="1.61793">
        <ele>336.2</ele>
        <time>2022-08-08T07:01:16Z</time>
      </trkpt>
      <trkpt lat="44.7062" lon="1.61795">
        <ele>336.4</ele>
        <time>2022-08-08T07:01:18Z</time>
      </trkpt>
      <trkpt lat="44.70614" lon="1.61799">
        <ele>336.5</ele>
        <time>2022-08-08T07:01:20Z</time>
      </trkpt>
      <trkpt lat="44.70609" lon="1.61799">
        <ele>336.7</ele>
        <time>2022-08-08T07:01:22Z</time>
      </trkpt>
      <trkpt lat="44.70604" lon="1.61802">
        <ele>336.8</ele>
        <time>2022-08-08T07:01:24Z</time>
      </trkpt>
      <trkpt lat="44.70598" lon="1.61805">
        <ele>336.9</ele>
        <time>2022-08-08T07:01:26Z</time>
      </trkpt>
      <trkpt lat="44.70594" lon="1.61807">
        <ele>337</ele>
        <time>2022-08-08T07:01:28Z</time>
      </trkpt>
      <trkpt lat="44.70588" lon="1.6181">
        <ele>337.1</ele>
        <time>2022-08-08T07:01:30Z</time>
      </trkpt>
      <trkpt lat="44.70583" lon="1.61813">
        <ele>337.2</ele>
        <time>2022-08-08T07:01:32Z</time>
      </trkpt>
      <trkpt lat="44.70578" lon="1.61815">
        <ele>337.2</ele>
        <time>2022-08-08T07:01:34Z</time>
      </trkpt>
      <trkpt lat="44.70573" lon="1.61818">
        <ele>337.1</ele>
        <time>2022-08-08T07:01:36Z</time>
      </trkpt>
      <trkpt lat="44.70567" lon="1.61821">
        <ele>337</ele>
        <time>2022-08-08T07:01:38Z</time>
      </trkpt>
      <trkpt lat="44.7056" lon="1.61824">
        <ele>336.9</ele>
        <time>2022-08-08T07:01:40Z</time>
      </trkpt>
      <trkpt lat="44.70553" lon="1.61828">
        <ele>336.7</ele>
        <time>2022-08-08T07:01:42Z</time>
      </trkpt>
      <trkpt lat="44.70546" lon="1.61832">
        <ele>336.6</ele>
        <time>2022-08-08T07:01:44Z</time>
      </trkpt>
      <trkpt lat="44.70538" lon="1.61836">
        <ele>336.5</ele>
        <time>2022-08-08T07:01:46Z</time>
      </trkpt>
      <trkpt lat="44.70529" lon="1.61842">
        <ele>336.4</ele>
        <time>2022-08-08T07:01:48Z</time>
      </trkpt>
      <trkpt lat="44.70518" lon="1.61848">
        <ele>336.4</ele>
        <time>2022-08-08T07:01:50Z</time>
      </trkpt>
      <trkpt lat="44.70507" lon="1.61855">
        <ele>336.3</ele>
        <time>2022-08-08T07:01:52Z</time>
      </trkpt>
      <trkpt lat="44.70497" lon="1.61862">
        <ele>336.5</ele>
        <time>2022-08-08T07:01:54Z</time>
      </trkpt>
      <trkpt lat="44.70485" lon="1.61869">
        <ele>337.1</ele>
        <time>2022-08-08T07:01:56Z</time>
      </trkpt>
      <trkpt lat="44.70475" lon="1.61877">
        <ele>337.5</ele>
        <time>2022-08-08T07:01:58Z</time>
      </trkpt>
      <trkpt lat="44.70466" lon="1.61885">
        <ele>337.9</ele>
        <time>2022-08-08T07:02:00Z</time>
      </trkpt>
      <trkpt lat="44.70457" lon="1.61892">
        <ele>338.2</ele>
        <time>2022-08-08T07:02:02Z</time>
      </trkpt>
      <trkpt lat="44.70448" lon="1.619">
        <ele>338.4</ele>
        <time>2022-08-08T07:02:04Z</time>
      </trkpt>
      <trkpt lat="44.7044" lon="1.61906">
        <ele>338.6</ele>
        <time>2022-08-08T07:02:06Z</time>
      </trkpt>
      <trkpt lat="44.70432" lon="1.61914">
        <ele>338.7</ele>
        <time>2022-08-08T07:02:08Z</time>
      </trkpt>
      <trkpt lat="44.70422" lon="1.61921">
        <ele>338.9</ele>
        <time>2022-08-08T07:02:10Z</time>
      </trkpt>
      <trkpt lat="44.70414" lon="1.61928">
        <ele>339.2</ele>
        <time>2022-08-08T07:02:12Z</time>
      </trkpt>
      <trkpt lat="44.70405" lon="1.61935">
        <ele>339.7</ele>
        <time>2022-08-08T07:02:14Z</time>
      </trkpt>
      <trkpt lat="44.70397" lon="1.61942">
        <ele>340.1</ele>
        <time>2022-08-08T07:02:16Z</time>
      </trkpt>
      <trkpt lat="44.70389" lon="1.61948">
        <ele>340.5</ele>
        <time>2022-08-08T07:02:18Z</time>
      </trkpt>
      <trkpt lat="44.70383" lon="1.61953">
        <ele>340.8</ele>
        <time>2022-08-08T07:02:20Z</time>
      </trkpt>
      <trkpt lat="44.70377" lon="1.61959">
        <ele>341.2</ele>
        <time>2022-08-08T07:02:22Z</time>
      </trkpt>
      <trkpt lat="44.7037" lon="1.61963">
        <ele>341.5</ele>
        <time>2022-08-08T07:02:24Z</time>
      </trkpt>
      <trkpt lat="44.70364" lon="1.61969">
        <ele>341.9</ele>
        <time>2022-08-08T07:02:26Z</time>
      </trkpt>
      <trkpt lat="44.70358" lon="1.61974">
        <ele>342.3</ele>
        <time>2022-08-08T07:02:28Z</time>
      </trkpt>
      <trkpt lat="44.70352" lon="1.61978">
        <ele>342.6</ele>
        <time>2022-08-08T07:02:30Z</time>
      </trkpt>
      <trkpt lat="44.70346" lon="1.61983">
        <ele>343</ele>
        <time>2022-08-08T07:02:32Z</time>
      </trkpt>
      <trkpt lat="44.7034" lon="1.61988">
        <ele>343.4</ele>
        <time>2022-08-08T07:02:34Z</time>
      </trkpt>
      <trkpt lat="44.70335" lon="1.61994">
        <ele>343.8</ele>
        <time>2022-08-08T07:02:36Z</time>
      </trkpt>
      <trkpt lat="44.70329" lon="1.61998">
        <ele>344.1</ele>
        <time>2022-08-08T07:02:38Z</time>
      </trkpt>
      <trkpt lat="44.70323" lon="1.62002">
        <ele>344.4</ele>
        <time>2022-08-08T07:02:40Z</time>
      </trkpt>
      <trkpt lat="44.70317" lon="1.62007">
        <ele>344.8</ele>
        <time>2022-08-08T07:02:42Z</time>
      </trkpt>
      <trkpt lat="44.70313" lon="1.62011">
        <ele>345</ele>
        <time>2022-08-08T07:02:44Z</time>
      </trkpt>
      <trkpt lat="44.70308" lon="1.62015">
        <ele>345.3</ele>
        <time>2022-08-08T07:02:46Z</time>
      </trkpt>
      <trkpt lat="44.70304" lon="1.62018">
        <ele>345.5</ele>
        <time>2022-08-08T07:02:48Z</time>
      </trkpt>
      <trkpt lat="44.70299" lon="1.62021">
        <ele>345.7</ele>
        <time>2022-08-08T07:02:50Z</time>
      </trkpt>
      <trkpt lat="44.70295" lon="1.62024">
        <ele>345.9</ele>
        <time>2022-08-08T07:02:52Z</time>
      </trkpt>
      <trkpt lat="44.70292" lon="1.62026">
        <ele>346.1</ele>
        <time>2022-08-08T07:02:54Z</time>
      </trkpt>
      <trkpt lat="44.70288" lon="1.6203">
        <ele>346.3</ele>
        <time>2022-08-08T07:02:56Z</time>
      </trkpt>
      <trkpt lat="44.70284" lon="1.62032">
        <ele>346.5</ele>
        <time>2022-08-08T07:02:58Z</time>
      </trkpt>
      <trkpt lat="44.70281" lon="1.62036">
        <ele>346.7</ele>
        <time>2022-08-08T07:03:00Z</time>
      </trkpt>
      <trkpt lat="44.70277" lon="1.62038">
        <ele>346.9</ele>
        <time>2022-08-08T07:03:02Z</time>
      </trkpt>
      <trkpt lat="44.70274" lon="1.62041">
        <ele>347.1</ele>
        <time>2022-08-08T07:03:04Z</time>
      </trkpt>
      <trkpt lat="44.7027" lon="1.62044">
        <ele>347.3</ele>
        <time>2022-08-08T07:03:06Z</time>
      </trkpt>
      <trkpt lat="44.70266" lon="1.62047">
        <ele>347.5</ele>
        <time>2022-08-08T07:03:08Z</time>
      </trkpt>
      <trkpt lat="44.70262" lon="1.62051">
        <ele>347.8</ele>
        <time>2022-08-08T07:03:10Z</time>
      </trkpt>
      <trkpt lat="44.70259" lon="1.62054">
        <ele>348</ele>
        <time>2022-08-08T07:03:12Z</time>
      </trkpt>
      <trkpt lat="44.70255" lon="1.62057">
        <ele>348.2</ele>
        <time>2022-08-08T07:03:14Z</time>
      </trkpt>
      <trkpt lat="44.70251" lon="1.6206">
        <ele>348.4</ele>
        <time>2022-08-08T07:03:16Z</time>
      </trkpt>
      <trkpt lat="44.70247" lon="1.62064">
        <ele>348.6</ele>
        <time>2022-08-08T07:03:18Z</time>
      </trkpt>
      <trkpt lat="44.70243" lon="1.62067">
        <ele>348.7</ele>
        <time>2022-08-08T07:03:20Z</time>
      </trkpt>
      <trkpt lat="44.70239" lon="1.6207">
        <ele>348.8</ele>
        <time>2022-08-08T07:03:22Z</time>
      </trkpt>
      <trkpt lat="44.70235" lon="1.62073">
        <ele>348.9</ele>
        <time>2022-08-08T07:03:24Z</time>
      </trkpt>
      <trkpt lat="44.70231" lon="1.62076">
        <ele>349.1</ele>
        <time>2022-08-08T07:03:26Z</time>
      </trkpt>
      <trkpt lat="44.70228" lon="1.62079">
        <ele>349.2</ele>
        <time>2022-08-08T07:03:28Z</time>
      </trkpt>
      <trkpt lat="44.70223" lon="1.62082">
        <ele>349.3</ele>
        <time>2022-08-08T07:03:30Z</time>
      </trkpt>
      <trkpt lat="44.7022" lon="1.62085">
        <ele>349.4</ele>
        <time>2022-08-08T07:03:32Z</time>
      </trkpt>
      <trkpt lat="44.70216" lon="1.62089">
        <ele>349.5</ele>
        <time>2022-08-08T07:03:34Z</time>
      </trkpt>
      <trkpt lat="44.70211" lon="1.62092">
        <ele>349.6</ele>
        <time>2022-08-08T07:03:36Z</time>
      </trkpt>
      <trkpt lat="44.70207" lon="1.62096">
        <ele>349.7</ele>
        <time>2022-08-08T07:03:38Z</time>
      </trkpt>
      <trkpt lat="44.70202" lon="1.621">
        <ele>349.9</ele>
        <time>2022-08-08T07:03:40Z</time>
      </trkpt>
      <trkpt lat="44.70198" lon="1.62102">
        <ele>350</ele>
        <time>2022-08-08T07:03:42Z</time>
      </trkpt>
      <trkpt lat="44.70194" lon="1.62105">
        <ele>350.2</ele>
        <time>2022-08-08T07:03:44Z</time>
      </trkpt>
      <trkpt lat="44.7019" lon="1.62108">
        <ele>350.4</ele>
        <time>2022-08-08T07:03:46Z</time>
      </trkpt>
      <trkpt lat="44.70186" lon="1.62112">
        <ele>350.6</ele>
        <time>2022-08-08T07:03:48Z</time>
      </trkpt>
      <trkpt lat="44.70181" lon="1.62116">
        <ele>350.8</ele>
        <time>2022-08-08T07:03:50Z</time>
      </trkpt>
      <trkpt lat="44.70176" lon="1.62119">
        <ele>351</ele>
        <time>2022-08-08T07:03:52Z</time>
      </trkpt>
      <trkpt lat="44.70172" lon="1.62122">
        <ele>351.2</ele>
        <time>2022-08-08T07:03:54Z</time>
      </trkpt>
      <trkpt lat="44.70167" lon="1.62126">
        <ele>351.5</ele>
        <time>2022-08-08T07:03:56Z</time>
      </trkpt>
      <trkpt lat="44.70162" lon="1.62129">
        <ele>351.7</ele>
        <time>2022-08-08T07:03:58Z</time>
      </trkpt>
      <trkpt lat="44.70157" lon="1.62133">
        <ele>351.9</ele>
        <time>2022-08-08T07:04:00Z</time>
      </trkpt>
      <trkpt lat="44.70153" lon="1.62137">
        <ele>352.1</ele>
        <time>2022-08-08T07:04:02Z</time>
      </trkpt>
      <trkpt lat="44.70147" lon="1.6214">
        <ele>352.2</ele>
        <time>2022-08-08T07:04:04Z</time>
      </trkpt>
      <trkpt lat="44.70142" lon="1.62146">
        <ele>352.4</ele>
        <time>2022-08-08T07:04:06Z</time>
      </trkpt>
      <trkpt lat="44.70136" lon="1.62151">
        <ele>352.6</ele>
        <time>2022-08-08T07:04:08Z</time>
      </trkpt>
      <trkpt lat="44.70131" lon="1.62155">
        <ele>352.7</ele>
        <time>2022-08-08T07:04:10Z</time>
      </trkpt>
      <trkpt lat="44.70125" lon="1.6216">
        <ele>352.8</ele>
        <time>2022-08-08T07:04:12Z</time>
      </trkpt>
      <trkpt lat="44.70119" lon="1.62165">
        <ele>353</ele>
        <time>2022-08-08T07:04:14Z</time>
      </trkpt>
      <trkpt lat="44.70113" lon="1.62169">
        <ele>353</ele>
        <time>2022-08-08T07:04:16Z</time>
      </trkpt>
      <trkpt lat="44.70107" lon="1.62173">
        <ele>353.1</ele>
        <time>2022-08-08T07:04:18Z</time>
      </trkpt>
      <trkpt lat="44.70101" lon="1.62178">
        <ele>353.3</ele>
        <time>2022-08-08T07:04:20Z</time>
      </trkpt>
      <trkpt lat="44.70095" lon="1.62183">
        <ele>353.5</ele>
        <time>2022-08-08T07:04:22Z</time>
      </trkpt>
      <trkpt lat="44.70089" lon="1.62188">
        <ele>353.7</ele>
        <time>2022-08-08T07:04:24Z</time>
      </trkpt>
      <trkpt lat="44.70083" lon="1.62192">
        <ele>353.9</ele>
        <time>2022-08-08T07:04:26Z</time>
      </trkpt>
      <trkpt lat="44.70078" lon="1.62197">
        <ele>354</ele>
        <time>2022-08-08T07:04:28Z</time>
      </trkpt>
      <trkpt lat="44.70072" lon="1.622">
        <ele>354.1</ele>
        <time>2022-08-08T07:04:30Z</time>
      </trkpt>
      <trkpt lat="44.70067" lon="1.62205">
        <ele>354.2</ele>
        <time>2022-08-08T07:04:32Z</time>
      </trkpt>
      <trkpt lat="44.70062" lon="1.6221">
        <ele>354.3</ele>
        <time>2022-08-08T07:04:34Z</time>
      </trkpt>
      <trkpt lat="44.70057" lon="1.62214">
        <ele>354.4</ele>
        <time>2022-08-08T07:04:36Z</time>
      </trkpt>
      <trkpt lat="44.70052" lon="1.62217">
        <ele>354.4</ele>
        <time>2022-08-08T07:04:38Z</time>
      </trkpt>
      <trkpt lat="44.70047" lon="1.62221">
        <ele>354.5</ele>
        <time>2022-08-08T07:04:40Z</time>
      </trkpt>
      <trkpt lat="44.70043" lon="1.62225">
        <ele>354.6</ele>
        <time>2022-08-08T07:04:42Z</time>
      </trkpt>
      <trkpt lat="44.70038" lon="1.62228">
        <ele>354.7</ele>
        <time>2022-08-08T07:04:44Z</time>
      </trkpt>
      <trkpt lat="44.70034" lon="1.62232">
        <ele>354.8</ele>
        <time>2022-08-08T07:04:46Z</time>
      </trkpt>
      <trkpt lat="44.70029" lon="1.62235">
        <ele>354.8</ele>
        <time>2022-08-08T07:04:48Z</time>
      </trkpt>
      <trkpt lat="44.70024" lon="1.62239">
        <ele>354.9</ele>
        <time>2022-08-08T07:04:50Z</time>
      </trkpt>
      <trkpt lat="44.70019" lon="1.62243">
        <ele>355</ele>
        <time>2022-08-08T07:04:52Z</time>
      </trkpt>
      <trkpt lat="44.70015" lon="1.62247">
        <ele>355.1</ele>
        <time>2022-08-08T07:04:54Z</time>
      </trkpt>
      <trkpt lat="44.7001" lon="1.6225">
        <ele>355.1</ele>
        <time>2022-08-08T07:04:56Z</time>
      </trkpt>
      <trkpt lat="44.70006" lon="1.62253">
        <ele>355.3</ele>
        <time>2022-08-08T07:04:58Z</time>
      </trkpt>
      <trkpt lat="44.70002" lon="1.62256">
        <ele>355.5</ele>
        <time>2022-08-08T07:05:00Z</time>
      </trkpt>
      <trkpt lat="44.69998" lon="1.6226">
        <ele>355.7</ele>
        <time>2022-08-08T07:05:02Z</time>
      </trkpt>
      <trkpt lat="44.69994" lon="1.62263">
        <ele>356.1</ele>
        <time>2022-08-08T07:05:04Z</time>
      </trkpt>
      <trkpt lat="44.6999" lon="1.62267">
        <ele>356.4</ele>
        <time>2022-08-08T07:05:06Z</time>
      </trkpt>
      <trkpt lat="44.69987" lon="1.6227">
        <ele>356.7</ele>
        <time>2022-08-08T07:05:08Z</time>
      </trkpt>
      <trkpt lat="44.69985" lon="1.62275">
        <ele>357.1</ele>
        <time>2022-08-08T07:05:10Z</time>
      </trkpt>
      <trkpt lat="44.69982" lon="1.62279">
        <ele>357.5</ele>
        <time>2022-08-08T07:05:12Z</time>
      </trkpt>
      <trkpt lat="44.6998" lon="1.62283">
        <ele>357.8</ele>
        <time>2022-08-08T07:05:14Z</time>
      </trkpt>
      <trkpt lat="44.69978" lon="1.62288">
        <ele>358.2</ele>
        <time>2022-08-08T07:05:16Z</time>
      </trkpt>
      <trkpt lat="44.69976" lon="1.62293">
        <ele>358.5</ele>
        <time>2022-08-08T07:05:18Z</time>
      </trkpt>
      <trkpt lat="44.69974" lon="1.62298">
        <ele>358.9</ele>
        <time>2022-08-08T07:05:20Z</time>
      </trkpt>
      <trkpt lat="44.69973" lon="1.62302">
        <ele>359.2</ele>
        <time>2022-08-08T07:05:22Z</time>
      </trkpt>
      <trkpt lat="44.69971" lon="1.62307">
        <ele>359.5</ele>
        <time>2022-08-08T07:05:24Z</time>
      </trkpt>
      <trkpt lat="44.6997" lon="1.62311">
        <ele>359.8</ele>
        <time>2022-08-08T07:05:26Z</time>
      </trkpt>
      <trkpt lat="44.69968" lon="1.62315">
        <ele>360.2</ele>
        <time>2022-08-08T07:05:28Z</time>
      </trkpt>
      <trkpt lat="44.69967" lon="1.6232">
        <ele>360.5</ele>
        <time>2022-08-08T07:05:30Z</time>
      </trkpt>
      <trkpt lat="44.69966" lon="1.62325">
        <ele>360.8</ele>
        <time>2022-08-08T07:05:32Z</time>
      </trkpt>
      <trkpt lat="44.69964" lon="1.62329">
        <ele>361.1</ele>
        <time>2022-08-08T07:05:34Z</time>
      </trkpt>
      <trkpt lat="44.69961" lon="1.62331">
        <ele>361.3</ele>
        <time>2022-08-08T07:05:36Z</time>
      </trkpt>
      <trkpt lat="44.69958" lon="1.62334">
        <ele>361.5</ele>
        <time>2022-08-08T07:05:38Z</time>
      </trkpt>
      <trkpt lat="44.69956" lon="1.62337">
        <ele>361.5</ele>
        <time>2022-08-08T07:05:40Z</time>
      </trkpt>
      <trkpt lat="44.69955" lon="1.62341">
        <ele>361.5</ele>
        <time>2022-08-08T07:05:42Z</time>
      </trkpt>
      <trkpt lat="44.69955" lon="1.62343">
        <ele>361.5</ele>
        <time>2022-08-08T07:05:44Z</time>
      </trkpt>
      <trkpt lat="44.69956" lon="1.62343">
        <ele>361.5</ele>
        <time>2022-08-08T07:05:46Z</time>
      </trkpt>
      <trkpt lat="44.69955" lon="1.62343">
        <ele>361.5</ele>
        <time>2022-08-08T07:05:48Z</time>
      </trkpt>
      <trkpt lat="44.69955" lon="1.62343">
        <ele>361.5</ele>
        <time>2022-08-08T07:05:50Z</time>
      </trkpt>
      <trkpt lat="44.69962" lon="1.62349">
        <ele>361.4</ele>
        <time>2022-08-08T07:08:12Z</time>
      </trkpt>
      <trkpt lat="44.69962" lon="1.62348">
        <ele>361.4</ele>
        <time>2022-08-08T07:08:14Z</time>
      </trkpt>
      <trkpt lat="44.69962" lon="1.6235">
        <ele>361.4</ele>
        <time>2022-08-08T07:08:16Z</time>
      </trkpt>
      <trkpt lat="44.69963" lon="1.62352">
        <ele>361.4</ele>
        <time>2022-08-08T07:08:18Z</time>
      </trkpt>
      <trkpt lat="44.69963" lon="1.62357">
        <ele>361.4</ele>
        <time>2022-08-08T07:08:20Z</time>
      </trkpt>
      <trkpt lat="44.69961" lon="1.6236">
        <ele>361.5</ele>
        <time>2022-08-08T07:08:22Z</time>
      </trkpt>
      <trkpt lat="44.69957" lon="1.62365">
        <ele>361.5</ele>
        <time>2022-08-08T07:08:24Z</time>
      </trkpt>
      <trkpt lat="44.69954" lon="1.62368">
        <ele>361.6</ele>
        <time>2022-08-08T07:08:26Z</time>
      </trkpt>
      <trkpt lat="44.6995" lon="1.6237">
        <ele>361.7</ele>
        <time>2022-08-08T07:08:28Z</time>
      </trkpt>
      <trkpt lat="44.69946" lon="1.62368">
        <ele>361.8</ele>
        <time>2022-08-08T07:08:30Z</time>
      </trkpt>
      <trkpt lat="44.69944" lon="1.62365">
        <ele>361.8</ele>
        <time>2022-08-08T07:08:32Z</time>
      </trkpt>
      <trkpt lat="44.69944" lon="1.62366">
        <ele>361.8</ele>
        <time>2022-08-08T07:08:34Z</time>
      </trkpt>
      <trkpt lat="44.69944" lon="1.62365">
        <ele>361.8</ele>
        <time>2022-08-08T07:08:36Z</time>
      </trkpt>
      <trkpt lat="44.69944" lon="1.62365">
        <ele>361.8</ele>
        <time>2022-08-08T07:08:38Z</time>
      </trkpt>
      <trkpt lat="44.6993" lon="1.62361">
        <ele>362.1</ele>
        <time>2022-08-08T07:09:36Z</time>
      </trkpt>
      <trkpt lat="44.69925" lon="1.62355">
        <ele>362.1</ele>
        <time>2022-08-08T07:09:38Z</time>
      </trkpt>
      <trkpt lat="44.69921" lon="1.62349">
        <ele>362.1</ele>
        <time>2022-08-08T07:09:40Z</time>
      </trkpt>
      <trkpt lat="44.69916" lon="1.62342">
        <ele>362.1</ele>
        <time>2022-08-08T07:09:42Z</time>
      </trkpt>
      <trkpt lat="44.69911" lon="1.62335">
        <ele>362.1</ele>
        <time>2022-08-08T07:09:44Z</time>
      </trkpt>
      <trkpt lat="44.69907" lon="1.62326">
        <ele>361.8</ele>
        <time>2022-08-08T07:09:46Z</time>
      </trkpt>
      <trkpt lat="44.69902" lon="1.62316">
        <ele>361.4</ele>
        <time>2022-08-08T07:09:48Z</time>
      </trkpt>
      <trkpt lat="44.69896" lon="1.62306">
        <ele>361</ele>
        <time>2022-08-08T07:09:50Z</time>
      </trkpt>
      <trkpt lat="44.69892" lon="1.62294">
        <ele>360.5</ele>
        <time>2022-08-08T07:09:52Z</time>
      </trkpt>
      <trkpt lat="44.69886" lon="1.62282">
        <ele>360.1</ele>
        <time>2022-08-08T07:09:54Z</time>
      </trkpt>
      <trkpt lat="44.6988" lon="1.6227">
        <ele>359.7</ele>
        <time>2022-08-08T07:09:56Z</time>
      </trkpt>
      <trkpt lat="44.69875" lon="1.62257">
        <ele>359.4</ele>
        <time>2022-08-08T07:09:58Z</time>
      </trkpt>
      <trkpt lat="44.69868" lon="1.62244">
        <ele>359.1</ele>
        <time>2022-08-08T07:10:00Z</time>
      </trkpt>
      <trkpt lat="44.69862" lon="1.6223">
        <ele>358.9</ele>
        <time>2022-08-08T07:10:02Z</time>
      </trkpt>
      <trkpt lat="44.69856" lon="1.62217">
        <ele>358.6</ele>
        <time>2022-08-08T07:10:04Z</time>
      </trkpt>
      <trkpt lat="44.69849" lon="1.62203">
        <ele>358.3</ele>
        <time>2022-08-08T07:10:06Z</time>
      </trkpt>
      <trkpt lat="44.69843" lon="1.62189">
        <ele>357.9</ele>
        <time>2022-08-08T07:10:08Z</time>
      </trkpt>
      <trkpt lat="44.69837" lon="1.62175">
        <ele>357.3</ele>
        <time>2022-08-08T07:10:10Z</time>
      </trkpt>
      <trkpt lat="44.6983" lon="1.6216">
        <ele>356.7</ele>
        <time>2022-08-08T07:10:12Z</time>
      </trkpt>
      <trkpt lat="44.69823" lon="1.62145">
        <ele>356.1</ele>
        <time>2022-08-08T07:10:14Z</time>
      </trkpt>
      <trkpt lat="44.69816" lon="1.62129">
        <ele>355.6</ele>
        <time>2022-08-08T07:10:16Z</time>
      </trkpt>
      <trkpt lat="44.69809" lon="1.62113">
        <ele>355.1</ele>
        <time>2022-08-08T07:10:18Z</time>
      </trkpt>
      <trkpt lat="44.69801" lon="1.62096">
        <ele>354.6</ele>
        <time>2022-08-08T07:10:20Z</time>
      </trkpt>
      <trkpt lat="44.69793" lon="1.62078">
        <ele>354.2</ele>
        <time>2022-08-08T07:10:22Z</time>
      </trkpt>
      <trkpt lat="44.69784" lon="1.6206">
        <ele>353.9</ele>
        <time>2022-08-08T07:10:24Z</time>
      </trkpt>
      <trkpt lat="44.69775" lon="1.62041">
        <ele>353.4</ele>
        <time>2022-08-08T07:10:26Z</time>
      </trkpt>
      <trkpt lat="44.69766" lon="1.62021">
        <ele>352.7</ele>
        <time>2022-08-08T07:10:28Z</time>
      </trkpt>
      <trkpt lat="44.69757" lon="1.62">
        <ele>351.9</ele>
        <time>2022-08-08T07:10:30Z</time>
      </trkpt>
      <trkpt lat="44.69747" lon="1.61979">
        <ele>351</ele>
        <time>2022-08-08T07:10:32Z</time>
      </trkpt>
      <trkpt lat="44.69738" lon="1.61959">
        <ele>349.8</ele>
        <time>2022-08-08T07:10:34Z</time>
      </trkpt>
      <trkpt lat="44.69728" lon="1.61938">
        <ele>348.7</ele>
        <time>2022-08-08T07:10:36Z</time>
      </trkpt>
      <trkpt lat="44.69719" lon="1.61917">
        <ele>347.7</ele>
        <time>2022-08-08T07:10:38Z</time>
      </trkpt>
      <trkpt lat="44.69709" lon="1.61897">
        <ele>347.4</ele>
        <time>2022-08-08T07:10:40Z</time>
      </trkpt>
      <trkpt lat="44.697" lon="1.61876">
        <ele>347.2</ele>
        <time>2022-08-08T07:10:42Z</time>
      </trkpt>
      <trkpt lat="44.6969" lon="1.61856">
        <ele>347.1</ele>
        <time>2022-08-08T07:10:44Z</time>
      </trkpt>
      <trkpt lat="44.69681" lon="1.61836">
        <ele>347</ele>
        <time>2022-08-08T07:10:46Z</time>
      </trkpt>
      <trkpt lat="44.69672" lon="1.61816">
        <ele>346.8</ele>
        <time>2022-08-08T07:10:48Z</time>
      </trkpt>
      <trkpt lat="44.69663" lon="1.61796">
        <ele>346.5</ele>
        <time>2022-08-08T07:10:50Z</time>
      </trkpt>
      <trkpt lat="44.69654" lon="1.61776">
        <ele>346</ele>
        <time>2022-08-08T07:10:52Z</time>
      </trkpt>
      <trkpt lat="44.69645" lon="1.61757">
        <ele>345.6</ele>
        <time>2022-08-08T07:10:54Z</time>
      </trkpt>
      <trkpt lat="44.69637" lon="1.61738">
        <ele>345.2</ele>
        <time>2022-08-08T07:10:56Z</time>
      </trkpt>
      <trkpt lat="44.69628" lon="1.61718">
        <ele>344.9</ele>
        <time>2022-08-08T07:10:58Z</time>
      </trkpt>
      <trkpt lat="44.69619" lon="1.61699">
        <ele>344.6</ele>
        <time>2022-08-08T07:11:00Z</time>
      </trkpt>
      <trkpt lat="44.6961" lon="1.6168">
        <ele>344.4</ele>
        <time>2022-08-08T07:11:02Z</time>
      </trkpt>
      <trkpt lat="44.69601" lon="1.6166">
        <ele>344.2</ele>
        <time>2022-08-08T07:11:04Z</time>
      </trkpt>
      <trkpt lat="44.69593" lon="1.61641">
        <ele>344.1</ele>
        <time>2022-08-08T07:11:06Z</time>
      </trkpt>
      <trkpt lat="44.69584" lon="1.61621">
        <ele>344</ele>
        <time>2022-08-08T07:11:08Z</time>
      </trkpt>
      <trkpt lat="44.69574" lon="1.61601">
        <ele>343.6</ele>
        <time>2022-08-08T07:11:10Z</time>
      </trkpt>
      <trkpt lat="44.69566" lon="1.61582">
        <ele>343.2</ele>
        <time>2022-08-08T07:11:12Z</time>
      </trkpt>
      <trkpt lat="44.69557" lon="1.61562">
        <ele>342.7</ele>
        <time>2022-08-08T07:11:14Z</time>
      </trkpt>
      <trkpt lat="44.69547" lon="1.61542">
        <ele>342.1</ele>
        <time>2022-08-08T07:11:16Z</time>
      </trkpt>
      <trkpt lat="44.69538" lon="1.61522">
        <ele>341.4</ele>
        <time>2022-08-08T07:11:18Z</time>
      </trkpt>
      <trkpt lat="44.69529" lon="1.61502">
        <ele>340.5</ele>
        <time>2022-08-08T07:11:20Z</time>
      </trkpt>
      <trkpt lat="44.69519" lon="1.6148">
        <ele>339.4</ele>
        <time>2022-08-08T07:11:22Z</time>
      </trkpt>
      <trkpt lat="44.69509" lon="1.61458">
        <ele>338.6</ele>
        <time>2022-08-08T07:11:24Z</time>
      </trkpt>
      <trkpt lat="44.69499" lon="1.61436">
        <ele>337.9</ele>
        <time>2022-08-08T07:11:26Z</time>
      </trkpt>
      <trkpt lat="44.69488" lon="1.61413">
        <ele>337.1</ele>
        <time>2022-08-08T07:11:28Z</time>
      </trkpt>
      <trkpt lat="44.69477" lon="1.61389">
        <ele>335.8</ele>
        <time>2022-08-08T07:11:30Z</time>
      </trkpt>
      <trkpt lat="44.69466" lon="1.61365">
        <ele>334.6</ele>
        <time>2022-08-08T07:11:32Z</time>
      </trkpt>
      <trkpt lat="44.69455" lon="1.6134">
        <ele>333.4</ele>
        <time>2022-08-08T07:11:34Z</time>
      </trkpt>
      <trkpt lat="44.69443" lon="1.61315">
        <ele>332.5</ele>
        <time>2022-08-08T07:11:36Z</time>
      </trkpt>
      <trkpt lat="44.69432" lon="1.6129">
        <ele>331.7</ele>
        <time>2022-08-08T07:11:38Z</time>
      </trkpt>
      <trkpt lat="44.6942" lon="1.61265">
        <ele>331.1</ele>
        <time>2022-08-08T07:11:40Z</time>
      </trkpt>
      <trkpt lat="44.69409" lon="1.61241">
        <ele>331.4</ele>
        <time>2022-08-08T07:11:42Z</time>
      </trkpt>
      <trkpt lat="44.69399" lon="1.61218">
        <ele>332</ele>
        <time>2022-08-08T07:11:44Z</time>
      </trkpt>
      <trkpt lat="44.69389" lon="1.61197">
        <ele>332.6</ele>
        <time>2022-08-08T07:11:46Z</time>
      </trkpt>
      <trkpt lat="44.6938" lon="1.61177">
        <ele>333.2</ele>
        <time>2022-08-08T07:11:48Z</time>
      </trkpt>
      <trkpt lat="44.69372" lon="1.61159">
        <ele>333.4</ele>
        <time>2022-08-08T07:11:50Z</time>
      </trkpt>
      <trkpt lat="44.69364" lon="1.61141">
        <ele>333.5</ele>
        <time>2022-08-08T07:11:52Z</time>
      </trkpt>
      <trkpt lat="44.69356" lon="1.61125">
        <ele>333.6</ele>
        <time>2022-08-08T07:11:54Z</time>
      </trkpt>
      <trkpt lat="44.69349" lon="1.61109">
        <ele>333.9</ele>
        <time>2022-08-08T07:11:56Z</time>
      </trkpt>
      <trkpt lat="44.69342" lon="1.61094">
        <ele>334.3</ele>
        <time>2022-08-08T07:11:58Z</time>
      </trkpt>
      <trkpt lat="44.69336" lon="1.6108">
        <ele>334.7</ele>
        <time>2022-08-08T07:12:00Z</time>
      </trkpt>
      <trkpt lat="44.6933" lon="1.61067">
        <ele>334.7</ele>
        <time>2022-08-08T07:12:02Z</time>
      </trkpt>
      <trkpt lat="44.69324" lon="1.61054">
        <ele>334.4</ele>
        <time>2022-08-08T07:12:04Z</time>
      </trkpt>
      <trkpt lat="44.69318" lon="1.61041">
        <ele>334.2</ele>
        <time>2022-08-08T07:12:06Z</time>
      </trkpt>
      <trkpt lat="44.69312" lon="1.61028">
        <ele>333.9</ele>
        <time>2022-08-08T07:12:08Z</time>
      </trkpt>
      <trkpt lat="44.69306" lon="1.61015">
        <ele>333.7</ele>
        <time>2022-08-08T07:12:10Z</time>
      </trkpt>
      <trkpt lat="44.693" lon="1.61002">
        <ele>333.5</ele>
        <time>2022-08-08T07:12:12Z</time>
      </trkpt>
      <trkpt lat="44.69294" lon="1.60989">
        <ele>333.3</ele>
        <time>2022-08-08T07:12:14Z</time>
      </trkpt>
      <trkpt lat="44.69288" lon="1.60976">
        <ele>333.1</ele>
        <time>2022-08-08T07:12:16Z</time>
      </trkpt>
      <trkpt lat="44.69281" lon="1.60962">
        <ele>333</ele>
        <time>2022-08-08T07:12:18Z</time>
      </trkpt>
      <trkpt lat="44.69275" lon="1.60949">
        <ele>332.9</ele>
        <time>2022-08-08T07:12:20Z</time>
      </trkpt>
      <trkpt lat="44.69269" lon="1.60934">
        <ele>332.8</ele>
        <time>2022-08-08T07:12:22Z</time>
      </trkpt>
      <trkpt lat="44.69262" lon="1.6092">
        <ele>332.8</ele>
        <time>2022-08-08T07:12:24Z</time>
      </trkpt>
      <trkpt lat="44.69255" lon="1.60905">
        <ele>332.6</ele>
        <time>2022-08-08T07:12:26Z</time>
      </trkpt>
      <trkpt lat="44.69248" lon="1.6089">
        <ele>332.4</ele>
        <time>2022-08-08T07:12:28Z</time>
      </trkpt>
      <trkpt lat="44.69241" lon="1.60875">
        <ele>332.3</ele>
        <time>2022-08-08T07:12:30Z</time>
      </trkpt>
      <trkpt lat="44.69235" lon="1.60861">
        <ele>332.2</ele>
        <time>2022-08-08T07:12:32Z</time>
      </trkpt>
      <trkpt lat="44.69228" lon="1.60848">
        <ele>332.3</ele>
        <time>2022-08-08T07:12:34Z</time>
      </trkpt>
      <trkpt lat="44.69223" lon="1.60835">
        <ele>332.3</ele>
        <time>2022-08-08T07:12:36Z</time>
      </trkpt>
      <trkpt lat="44.69218" lon="1.60822">
        <ele>332.4</ele>
        <time>2022-08-08T07:12:38Z</time>
      </trkpt>
      <trkpt lat="44.69214" lon="1.60811">
        <ele>332.5</ele>
        <time>2022-08-08T07:12:40Z</time>
      </trkpt>
      <trkpt lat="44.69209" lon="1.60802">
        <ele>332.6</ele>
        <time>2022-08-08T07:12:42Z</time>
      </trkpt>
      <trkpt lat="44.69205" lon="1.60792">
        <ele>332.6</ele>
        <time>2022-08-08T07:12:44Z</time>
      </trkpt>
      <trkpt lat="44.69202" lon="1.60783">
        <ele>332.6</ele>
        <time>2022-08-08T07:12:46Z</time>
      </trkpt>
      <trkpt lat="44.692" lon="1.60778">
        <ele>332.6</ele>
        <time>2022-08-08T07:12:48Z</time>
      </trkpt>
      <trkpt lat="44.69199" lon="1.60771">
        <ele>332.5</ele>
        <time>2022-08-08T07:12:50Z</time>
      </trkpt>
      <trkpt lat="44.69198" lon="1.60769">
        <ele>332.5</ele>
        <time>2022-08-08T07:12:52Z</time>
      </trkpt>
      <trkpt lat="44.69198" lon="1.60768">
        <ele>332.5</ele>
        <time>2022-08-08T07:12:54Z</time>
      </trkpt>
      <trkpt lat="44.69198" lon="1.60768">
        <ele>332.5</ele>
        <time>2022-08-08T07:12:56Z</time>
      </trkpt>
      <trkpt lat="44.69198" lon="1.60768">
        <ele>332.5</ele>
        <time>2022-08-08T07:12:58Z</time>
      </trkpt>
      <trkpt lat="44.69199" lon="1.60767">
        <ele>332.5</ele>
        <time>2022-08-08T07:13:00Z</time>
      </trkpt>
      <trkpt lat="44.69192" lon="1.6074">
        <ele>332.2</ele>
        <time>2022-08-08T07:13:30Z</time>
      </trkpt>
      <trkpt lat="44.69191" lon="1.60729">
        <ele>331.9</ele>
        <time>2022-08-08T07:13:32Z</time>
      </trkpt>
      <trkpt lat="44.6919" lon="1.60717">
        <ele>331.7</ele>
        <time>2022-08-08T07:13:34Z</time>
      </trkpt>
      <trkpt lat="44.69188" lon="1.60704">
        <ele>331.4</ele>
        <time>2022-08-08T07:13:36Z</time>
      </trkpt>
      <trkpt lat="44.69186" lon="1.60691">
        <ele>331.1</ele>
        <time>2022-08-08T07:13:38Z</time>
      </trkpt>
      <trkpt lat="44.69183" lon="1.60677">
        <ele>330.8</ele>
        <time>2022-08-08T07:13:40Z</time>
      </trkpt>
      <trkpt lat="44.69181" lon="1.60663">
        <ele>330.6</ele>
        <time>2022-08-08T07:13:42Z</time>
      </trkpt>
      <trkpt lat="44.69178" lon="1.60649">
        <ele>330.5</ele>
        <time>2022-08-08T07:13:44Z</time>
      </trkpt>
      <trkpt lat="44.69176" lon="1.60634">
        <ele>330.4</ele>
        <time>2022-08-08T07:13:46Z</time>
      </trkpt>
      <trkpt lat="44.69173" lon="1.60619">
        <ele>330.2</ele>
        <time>2022-08-08T07:13:48Z</time>
      </trkpt>
      <trkpt lat="44.6917" lon="1.60604">
        <ele>330.1</ele>
        <time>2022-08-08T07:13:50Z</time>
      </trkpt>
      <trkpt lat="44.69168" lon="1.60589">
        <ele>330</ele>
        <time>2022-08-08T07:13:52Z</time>
      </trkpt>
      <trkpt lat="44.69165" lon="1.60574">
        <ele>330.2</ele>
        <time>2022-08-08T07:13:54Z</time>
      </trkpt>
      <trkpt lat="44.69162" lon="1.6056">
        <ele>330.4</ele>
        <time>2022-08-08T07:13:56Z</time>
      </trkpt>
      <trkpt lat="44.69159" lon="1.60544">
        <ele>330.8</ele>
        <time>2022-08-08T07:13:58Z</time>
      </trkpt>
      <trkpt lat="44.69156" lon="1.60529">
        <ele>331</ele>
        <time>2022-08-08T07:14:00Z</time>
      </trkpt>
      <trkpt lat="44.69153" lon="1.60512">
        <ele>331.2</ele>
        <time>2022-08-08T07:14:02Z</time>
      </trkpt>
      <trkpt lat="44.69151" lon="1.60498">
        <ele>331.3</ele>
        <time>2022-08-08T07:14:04Z</time>
      </trkpt>
      <trkpt lat="44.69148" lon="1.60483">
        <ele>330.9</ele>
        <time>2022-08-08T07:14:06Z</time>
      </trkpt>
      <trkpt lat="44.69145" lon="1.60468">
        <ele>330.5</ele>
        <time>2022-08-08T07:14:08Z</time>
      </trkpt>
      <trkpt lat="44.69143" lon="1.60452">
        <ele>330</ele>
        <time>2022-08-08T07:14:10Z</time>
      </trkpt>
      <trkpt lat="44.6914" lon="1.60436">
        <ele>329.6</ele>
        <time>2022-08-08T07:14:12Z</time>
      </trkpt>
      <trkpt lat="44.69136" lon="1.6042">
        <ele>329.2</ele>
        <time>2022-08-08T07:14:14Z</time>
      </trkpt>
      <trkpt lat="44.69133" lon="1.60404">
        <ele>329</ele>
        <time>2022-08-08T07:14:16Z</time>
      </trkpt>
      <trkpt lat="44.69131" lon="1.60386">
        <ele>328.8</ele>
        <time>2022-08-08T07:14:18Z</time>
      </trkpt>
      <trkpt lat="44.69127" lon="1.60369">
        <ele>328.6</ele>
        <time>2022-08-08T07:14:20Z</time>
      </trkpt>
      <trkpt lat="44.69124" lon="1.60352">
        <ele>328.4</ele>
        <time>2022-08-08T07:14:22Z</time>
      </trkpt>
      <trkpt lat="44.69121" lon="1.60335">
        <ele>328.1</ele>
        <time>2022-08-08T07:14:24Z</time>
      </trkpt>
      <trkpt lat="44.69118" lon="1.60318">
        <ele>327.8</ele>
        <time>2022-08-08T07:14:26Z</time>
      </trkpt>
      <trkpt lat="44.69115" lon="1.603">
        <ele>327.5</ele>
        <time>2022-08-08T07:14:28Z</time>
      </trkpt>
      <trkpt lat="44.69112" lon="1.60283">
        <ele>327.1</ele>
        <time>2022-08-08T07:14:30Z</time>
      </trkpt>
      <trkpt lat="44.69109" lon="1.60266">
        <ele>326.8</ele>
        <time>2022-08-08T07:14:32Z</time>
      </trkpt>
      <trkpt lat="44.69105" lon="1.60249">
        <ele>326.4</ele>
        <time>2022-08-08T07:14:34Z</time>
      </trkpt>
      <trkpt lat="44.69102" lon="1.60231">
        <ele>326</ele>
        <time>2022-08-08T07:14:36Z</time>
      </trkpt>
      <trkpt lat="44.69099" lon="1.60213">
        <ele>325.6</ele>
        <time>2022-08-08T07:14:38Z</time>
      </trkpt>
      <trkpt lat="44.69096" lon="1.60195">
        <ele>325.3</ele>
        <time>2022-08-08T07:14:40Z</time>
      </trkpt>
      <trkpt lat="44.69093" lon="1.60177">
        <ele>324.9</ele>
        <time>2022-08-08T07:14:42Z</time>
      </trkpt>
      <trkpt lat="44.6909" lon="1.6016">
        <ele>324.5</ele>
        <time>2022-08-08T07:14:44Z</time>
      </trkpt>
      <trkpt lat="44.69087" lon="1.60142">
        <ele>324</ele>
        <time>2022-08-08T07:14:46Z</time>
      </trkpt>
      <trkpt lat="44.69084" lon="1.60126">
        <ele>323.5</ele>
        <time>2022-08-08T07:14:48Z</time>
      </trkpt>
      <trkpt lat="44.69081" lon="1.60108">
        <ele>323</ele>
        <time>2022-08-08T07:14:50Z</time>
      </trkpt>
      <trkpt lat="44.69078" lon="1.60091">
        <ele>322.4</ele>
        <time>2022-08-08T07:14:52Z</time>
      </trkpt>
      <trkpt lat="44.69075" lon="1.60073">
        <ele>322</ele>
        <time>2022-08-08T07:14:54Z</time>
      </trkpt>
      <trkpt lat="44.69072" lon="1.60055">
        <ele>321.6</ele>
        <time>2022-08-08T07:14:56Z</time>
      </trkpt>
      <trkpt lat="44.69069" lon="1.60038">
        <ele>321.2</ele>
        <time>2022-08-08T07:14:58Z</time>
      </trkpt>
      <trkpt lat="44.69066" lon="1.60021">
        <ele>320.8</ele>
        <time>2022-08-08T07:15:00Z</time>
      </trkpt>
      <trkpt lat="44.69063" lon="1.60004">
        <ele>320.4</ele>
        <time>2022-08-08T07:15:02Z</time>
      </trkpt>
      <trkpt lat="44.6906" lon="1.59989">
        <ele>320.1</ele>
        <time>2022-08-08T07:15:04Z</time>
      </trkpt>
      <trkpt lat="44.69057" lon="1.59974">
        <ele>320</ele>
        <time>2022-08-08T07:15:06Z</time>
      </trkpt>
      <trkpt lat="44.69055" lon="1.5996">
        <ele>319.9</ele>
        <time>2022-08-08T07:15:08Z</time>
      </trkpt>
      <trkpt lat="44.69052" lon="1.59946">
        <ele>319.7</ele>
        <time>2022-08-08T07:15:10Z</time>
      </trkpt>
      <trkpt lat="44.6905" lon="1.59933">
        <ele>319.6</ele>
        <time>2022-08-08T07:15:12Z</time>
      </trkpt>
      <trkpt lat="44.69047" lon="1.5992">
        <ele>319.5</ele>
        <time>2022-08-08T07:15:14Z</time>
      </trkpt>
      <trkpt lat="44.69044" lon="1.59907">
        <ele>319.6</ele>
        <time>2022-08-08T07:15:16Z</time>
      </trkpt>
      <trkpt lat="44.69042" lon="1.59894">
        <ele>319.9</ele>
        <time>2022-08-08T07:15:18Z</time>
      </trkpt>
      <trkpt lat="44.69039" lon="1.59882">
        <ele>320.2</ele>
        <time>2022-08-08T07:15:20Z</time>
      </trkpt>
      <trkpt lat="44.69038" lon="1.59868">
        <ele>320.5</ele>
        <time>2022-08-08T07:15:22Z</time>
      </trkpt>
      <trkpt lat="44.69035" lon="1.59854">
        <ele>320.8</ele>
        <time>2022-08-08T07:15:24Z</time>
      </trkpt>
      <trkpt lat="44.69032" lon="1.5984">
        <ele>321.1</ele>
        <time>2022-08-08T07:15:26Z</time>
      </trkpt>
      <trkpt lat="44.69029" lon="1.59826">
        <ele>321.4</ele>
        <time>2022-08-08T07:15:28Z</time>
      </trkpt>
      <trkpt lat="44.69027" lon="1.59812">
        <ele>321.8</ele>
        <time>2022-08-08T07:15:30Z</time>
      </trkpt>
      <trkpt lat="44.69025" lon="1.59797">
        <ele>322.2</ele>
        <time>2022-08-08T07:15:32Z</time>
      </trkpt>
      <trkpt lat="44.69022" lon="1.59781">
        <ele>322.7</ele>
        <time>2022-08-08T07:15:34Z</time>
      </trkpt>
      <trkpt lat="44.6902" lon="1.59765">
        <ele>323.2</ele>
        <time>2022-08-08T07:15:36Z</time>
      </trkpt>
      <trkpt lat="44.69016" lon="1.59749">
        <ele>323.8</ele>
        <time>2022-08-08T07:15:38Z</time>
      </trkpt>
      <trkpt lat="44.69014" lon="1.59733">
        <ele>324</ele>
        <time>2022-08-08T07:15:40Z</time>
      </trkpt>
      <trkpt lat="44.69012" lon="1.59718">
        <ele>324.1</ele>
        <time>2022-08-08T07:15:42Z</time>
      </trkpt>
      <trkpt lat="44.6901" lon="1.59702">
        <ele>324.3</ele>
        <time>2022-08-08T07:15:44Z</time>
      </trkpt>
      <trkpt lat="44.69007" lon="1.59687">
        <ele>324.5</ele>
        <time>2022-08-08T07:15:46Z</time>
      </trkpt>
      <trkpt lat="44.69005" lon="1.59671">
        <ele>324.7</ele>
        <time>2022-08-08T07:15:48Z</time>
      </trkpt>
      <trkpt lat="44.69002" lon="1.59655">
        <ele>324.8</ele>
        <time>2022-08-08T07:15:50Z</time>
      </trkpt>
      <trkpt lat="44.69" lon="1.5964">
        <ele>325</ele>
        <time>2022-08-08T07:15:52Z</time>
      </trkpt>
      <trkpt lat="44.68998" lon="1.59624">
        <ele>325.1</ele>
        <time>2022-08-08T07:15:54Z</time>
      </trkpt>
      <trkpt lat="44.68996" lon="1.5961">
        <ele>325.2</ele>
        <time>2022-08-08T07:15:56Z</time>
      </trkpt>
      <trkpt lat="44.68994" lon="1.59596">
        <ele>325.2</ele>
        <time>2022-08-08T07:15:58Z</time>
      </trkpt>
      <trkpt lat="44.68993" lon="1.59583">
        <ele>325.3</ele>
        <time>2022-08-08T07:16:00Z</time>
      </trkpt>
      <trkpt lat="44.68991" lon="1.59571">
        <ele>325.6</ele>
        <time>2022-08-08T07:16:02Z</time>
      </trkpt>
      <trkpt lat="44.6899" lon="1.59559">
        <ele>325.9</ele>
        <time>2022-08-08T07:16:04Z</time>
      </trkpt>
      <trkpt lat="44.68989" lon="1.59548">
        <ele>326.2</ele>
        <time>2022-08-08T07:16:06Z</time>
      </trkpt>
      <trkpt lat="44.68988" lon="1.59537">
        <ele>326.5</ele>
        <time>2022-08-08T07:16:08Z</time>
      </trkpt>
      <trkpt lat="44.68987" lon="1.59525">
        <ele>326.7</ele>
        <time>2022-08-08T07:16:10Z</time>
      </trkpt>
      <trkpt lat="44.68987" lon="1.59514">
        <ele>326.9</ele>
        <time>2022-08-08T07:16:12Z</time>
      </trkpt>
      <trkpt lat="44.68986" lon="1.59503">
        <ele>327.1</ele>
        <time>2022-08-08T07:16:14Z</time>
      </trkpt>
      <trkpt lat="44.68986" lon="1.59491">
        <ele>327.1</ele>
        <time>2022-08-08T07:16:16Z</time>
      </trkpt>
      <trkpt lat="44.68986" lon="1.59479">
        <ele>327</ele>
        <time>2022-08-08T07:16:18Z</time>
      </trkpt>
      <trkpt lat="44.68986" lon="1.59467">
        <ele>326.9</ele>
        <time>2022-08-08T07:16:20Z</time>
      </trkpt>
      <trkpt lat="44.68986" lon="1.59455">
        <ele>326.8</ele>
        <time>2022-08-08T07:16:22Z</time>
      </trkpt>
      <trkpt lat="44.68985" lon="1.59442">
        <ele>326.6</ele>
        <time>2022-08-08T07:16:24Z</time>
      </trkpt>
      <trkpt lat="44.68985" lon="1.5943">
        <ele>326.5</ele>
        <time>2022-08-08T07:16:26Z</time>
      </trkpt>
      <trkpt lat="44.68985" lon="1.59417">
        <ele>326.3</ele>
        <time>2022-08-08T07:16:28Z</time>
      </trkpt>
      <trkpt lat="44.68984" lon="1.59405">
        <ele>326</ele>
        <time>2022-08-08T07:16:30Z</time>
      </trkpt>
      <trkpt lat="44.68983" lon="1.59393">
        <ele>325.8</ele>
        <time>2022-08-08T07:16:32Z</time>
      </trkpt>
      <trkpt lat="44.68982" lon="1.5938">
        <ele>325.6</ele>
        <time>2022-08-08T07:16:34Z</time>
      </trkpt>
      <trkpt lat="44.68982" lon="1.59368">
        <ele>325.4</ele>
        <time>2022-08-08T07:16:36Z</time>
      </trkpt>
      <trkpt lat="44.68981" lon="1.59357">
        <ele>325.2</ele>
        <time>2022-08-08T07:16:38Z</time>
      </trkpt>
      <trkpt lat="44.6898" lon="1.59346">
        <ele>325</ele>
        <time>2022-08-08T07:16:40Z</time>
      </trkpt>
      <trkpt lat="44.6898" lon="1.59334">
        <ele>324.8</ele>
        <time>2022-08-08T07:16:42Z</time>
      </trkpt>
      <trkpt lat="44.68979" lon="1.59322">
        <ele>324.6</ele>
        <time>2022-08-08T07:16:44Z</time>
      </trkpt>
      <trkpt lat="44.68979" lon="1.59308">
        <ele>324.5</ele>
        <time>2022-08-08T07:16:46Z</time>
      </trkpt>
      <trkpt lat="44.6898" lon="1.59296">
        <ele>324.3</ele>
        <time>2022-08-08T07:16:48Z</time>
      </trkpt>
      <trkpt lat="44.68979" lon="1.59287">
        <ele>324.2</ele>
        <time>2022-08-08T07:16:50Z</time>
      </trkpt>
      <trkpt lat="44.68974" lon="1.59282">
        <ele>324</ele>
        <time>2022-08-08T07:16:52Z</time>
      </trkpt>
      <trkpt lat="44.68965" lon="1.5928">
        <ele>323.7</ele>
        <time>2022-08-08T07:16:54Z</time>
      </trkpt>
      <trkpt lat="44.68958" lon="1.5928">
        <ele>323.5</ele>
        <time>2022-08-08T07:16:56Z</time>
      </trkpt>
      <trkpt lat="44.6895" lon="1.59281">
        <ele>323.3</ele>
        <time>2022-08-08T07:16:58Z</time>
      </trkpt>
      <trkpt lat="44.68943" lon="1.59284">
        <ele>323</ele>
        <time>2022-08-08T07:17:00Z</time>
      </trkpt>
      <trkpt lat="44.68936" lon="1.59287">
        <ele>322.8</ele>
        <time>2022-08-08T07:17:02Z</time>
      </trkpt>
      <trkpt lat="44.68929" lon="1.59288">
        <ele>322.5</ele>
        <time>2022-08-08T07:17:04Z</time>
      </trkpt>
      <trkpt lat="44.68921" lon="1.59288">
        <ele>322.2</ele>
        <time>2022-08-08T07:17:06Z</time>
      </trkpt>
      <trkpt lat="44.68913" lon="1.59288">
        <ele>322.3</ele>
        <time>2022-08-08T07:17:08Z</time>
      </trkpt>
      <trkpt lat="44.68904" lon="1.59286">
        <ele>322.7</ele>
        <time>2022-08-08T07:17:10Z</time>
      </trkpt>
      <trkpt lat="44.68896" lon="1.59285">
        <ele>323.1</ele>
        <time>2022-08-08T07:17:12Z</time>
      </trkpt>
      <trkpt lat="44.68888" lon="1.59284">
        <ele>323.5</ele>
        <time>2022-08-08T07:17:14Z</time>
      </trkpt>
      <trkpt lat="44.68881" lon="1.59283">
        <ele>323.8</ele>
        <time>2022-08-08T07:17:16Z</time>
      </trkpt>
      <trkpt lat="44.68874" lon="1.59282">
        <ele>324.1</ele>
        <time>2022-08-08T07:17:18Z</time>
      </trkpt>
      <trkpt lat="44.68869" lon="1.59282">
        <ele>324.4</ele>
        <time>2022-08-08T07:17:20Z</time>
      </trkpt>
      <trkpt lat="44.68862" lon="1.59283">
        <ele>324.7</ele>
        <time>2022-08-08T07:17:22Z</time>
      </trkpt>
      <trkpt lat="44.68857" lon="1.59285">
        <ele>324.9</ele>
        <time>2022-08-08T07:17:24Z</time>
      </trkpt>
      <trkpt lat="44.68852" lon="1.59287">
        <ele>325.1</ele>
        <time>2022-08-08T07:17:26Z</time>
      </trkpt>
      <trkpt lat="44.68846" lon="1.5929">
        <ele>325.4</ele>
        <time>2022-08-08T07:17:28Z</time>
      </trkpt>
      <trkpt lat="44.68842" lon="1.59292">
        <ele>325.6</ele>
        <time>2022-08-08T07:17:30Z</time>
      </trkpt>
      <trkpt lat="44.68836" lon="1.59295">
        <ele>325.9</ele>
        <time>2022-08-08T07:17:32Z</time>
      </trkpt>
      <trkpt lat="44.68831" lon="1.59298">
        <ele>326.1</ele>
        <time>2022-08-08T07:17:34Z</time>
      </trkpt>
      <trkpt lat="44.68826" lon="1.59301">
        <ele>326.3</ele>
        <time>2022-08-08T07:17:36Z</time>
      </trkpt>
      <trkpt lat="44.68822" lon="1.59304">
        <ele>326.5</ele>
        <time>2022-08-08T07:17:38Z</time>
      </trkpt>
      <trkpt lat="44.68817" lon="1.59307">
        <ele>326.7</ele>
        <time>2022-08-08T07:17:40Z</time>
      </trkpt>
      <trkpt lat="44.68813" lon="1.59309">
        <ele>326.9</ele>
        <time>2022-08-08T07:17:42Z</time>
      </trkpt>
      <trkpt lat="44.68809" lon="1.59311">
        <ele>327.2</ele>
        <time>2022-08-08T07:17:44Z</time>
      </trkpt>
      <trkpt lat="44.68805" lon="1.59313">
        <ele>327.4</ele>
        <time>2022-08-08T07:17:46Z</time>
      </trkpt>
      <trkpt lat="44.68803" lon="1.59315">
        <ele>327.5</ele>
        <time>2022-08-08T07:17:48Z</time>
      </trkpt>
      <trkpt lat="44.68801" lon="1.59317">
        <ele>327.6</ele>
        <time>2022-08-08T07:17:50Z</time>
      </trkpt>
      <trkpt lat="44.68798" lon="1.59318">
        <ele>327.8</ele>
        <time>2022-08-08T07:17:52Z</time>
      </trkpt>
      <trkpt lat="44.68796" lon="1.59319">
        <ele>328</ele>
        <time>2022-08-08T07:17:54Z</time>
      </trkpt>
      <trkpt lat="44.68795" lon="1.5932">
        <ele>328</ele>
        <time>2022-08-08T07:17:56Z</time>
      </trkpt>
      <trkpt lat="44.68843" lon="1.59291">
        <ele>325.5</ele>
        <time>2022-08-08T07:18:20Z</time>
      </trkpt>
      <trkpt lat="44.68853" lon="1.59286">
        <ele>325.1</ele>
        <time>2022-08-08T07:18:22Z</time>
      </trkpt>
      <trkpt lat="44.68863" lon="1.59283">
        <ele>324.6</ele>
        <time>2022-08-08T07:18:24Z</time>
      </trkpt>
      <trkpt lat="44.68874" lon="1.59283">
        <ele>324.1</ele>
        <time>2022-08-08T07:18:26Z</time>
      </trkpt>
      <trkpt lat="44.68885" lon="1.59284">
        <ele>323.6</ele>
        <time>2022-08-08T07:18:28Z</time>
      </trkpt>
      <trkpt lat="44.68898" lon="1.59286">
        <ele>323</ele>
        <time>2022-08-08T07:18:30Z</time>
      </trkpt>
      <trkpt lat="44.6891" lon="1.59288">
        <ele>322.4</ele>
        <time>2022-08-08T07:18:32Z</time>
      </trkpt>
      <trkpt lat="44.68921" lon="1.59289">
        <ele>322.2</ele>
        <time>2022-08-08T07:18:34Z</time>
      </trkpt>
      <trkpt lat="44.68931" lon="1.59287">
        <ele>322.6</ele>
        <time>2022-08-08T07:18:36Z</time>
      </trkpt>
      <trkpt lat="44.6894" lon="1.59287">
        <ele>322.9</ele>
        <time>2022-08-08T07:18:38Z</time>
      </trkpt>
      <trkpt lat="44.68948" lon="1.59283">
        <ele>323.2</ele>
        <time>2022-08-08T07:18:40Z</time>
      </trkpt>
      <trkpt lat="44.68952" lon="1.59276">
        <ele>323.3</ele>
        <time>2022-08-08T07:18:42Z</time>
      </trkpt>
      <trkpt lat="44.68951" lon="1.59265">
        <ele>323.3</ele>
        <time>2022-08-08T07:18:44Z</time>
      </trkpt>
      <trkpt lat="44.68943" lon="1.59256">
        <ele>323.3</ele>
        <time>2022-08-08T07:18:46Z</time>
      </trkpt>
      <trkpt lat="44.68936" lon="1.59245">
        <ele>323.1</ele>
        <time>2022-08-08T07:18:48Z</time>
      </trkpt>
      <trkpt lat="44.68929" lon="1.59234">
        <ele>322.5</ele>
        <time>2022-08-08T07:18:50Z</time>
      </trkpt>
      <trkpt lat="44.6892" lon="1.59222">
        <ele>322</ele>
        <time>2022-08-08T07:18:52Z</time>
      </trkpt>
      <trkpt lat="44.68912" lon="1.5921">
        <ele>321.7</ele>
        <time>2022-08-08T07:18:54Z</time>
      </trkpt>
      <trkpt lat="44.68903" lon="1.59196">
        <ele>321.4</ele>
        <time>2022-08-08T07:18:56Z</time>
      </trkpt>
      <trkpt lat="44.68894" lon="1.59182">
        <ele>321.1</ele>
        <time>2022-08-08T07:18:58Z</time>
      </trkpt>
      <trkpt lat="44.68885" lon="1.59167">
        <ele>320.8</ele>
        <time>2022-08-08T07:19:00Z</time>
      </trkpt>
      <trkpt lat="44.68875" lon="1.59153">
        <ele>320.3</ele>
        <time>2022-08-08T07:19:02Z</time>
      </trkpt>
      <trkpt lat="44.68866" lon="1.59139">
        <ele>319.8</ele>
        <time>2022-08-08T07:19:04Z</time>
      </trkpt>
      <trkpt lat="44.68856" lon="1.59124">
        <ele>319.3</ele>
        <time>2022-08-08T07:19:06Z</time>
      </trkpt>
      <trkpt lat="44.68848" lon="1.59109">
        <ele>318.8</ele>
        <time>2022-08-08T07:19:08Z</time>
      </trkpt>
      <trkpt lat="44.6884" lon="1.59091">
        <ele>318.2</ele>
        <time>2022-08-08T07:19:10Z</time>
      </trkpt>
      <trkpt lat="44.68832" lon="1.59074">
        <ele>318.7</ele>
        <time>2022-08-08T07:19:12Z</time>
      </trkpt>
      <trkpt lat="44.68825" lon="1.59058">
        <ele>319.9</ele>
        <time>2022-08-08T07:19:14Z</time>
      </trkpt>
      <trkpt lat="44.68817" lon="1.59043">
        <ele>321.2</ele>
        <time>2022-08-08T07:19:16Z</time>
      </trkpt>
      <trkpt lat="44.6881" lon="1.59031">
        <ele>322.2</ele>
        <time>2022-08-08T07:19:18Z</time>
      </trkpt>
      <trkpt lat="44.68802" lon="1.59022">
        <ele>323</ele>
        <time>2022-08-08T07:19:20Z</time>
      </trkpt>
      <trkpt lat="44.68795" lon="1.59015">
        <ele>323.8</ele>
        <time>2022-08-08T07:19:22Z</time>
      </trkpt>
      <trkpt lat="44.6879" lon="1.59009">
        <ele>324.3</ele>
        <time>2022-08-08T07:19:24Z</time>
      </trkpt>
      <trkpt lat="44.68786" lon="1.59004">
        <ele>324.8</ele>
        <time>2022-08-08T07:19:26Z</time>
      </trkpt>
      <trkpt lat="44.68782" lon="1.59">
        <ele>325.2</ele>
        <time>2022-08-08T07:19:28Z</time>
      </trkpt>
      <trkpt lat="44.68779" lon="1.58996">
        <ele>325.5</ele>
        <time>2022-08-08T07:19:30Z</time>
      </trkpt>
      <trkpt lat="44.68778" lon="1.58994">
        <ele>325.7</ele>
        <time>2022-08-08T07:19:32Z</time>
      </trkpt>
      <trkpt lat="44.68775" lon="1.58991">
        <ele>326</ele>
        <time>2022-08-08T07:19:34Z</time>
      </trkpt>
      <trkpt lat="44.68773" lon="1.58987">
        <ele>326.2</ele>
        <time>2022-08-08T07:19:36Z</time>
      </trkpt>
      <trkpt lat="44.68771" lon="1.58982">
        <ele>326.5</ele>
        <time>2022-08-08T07:19:38Z</time>
      </trkpt>
      <trkpt lat="44.68767" lon="1.58977">
        <ele>326.9</ele>
        <time>2022-08-08T07:19:40Z</time>
      </trkpt>
      <trkpt lat="44.68766" lon="1.58971">
        <ele>327.2</ele>
        <time>2022-08-08T07:19:42Z</time>
      </trkpt>
      <trkpt lat="44.68765" lon="1.58966">
        <ele>327.5</ele>
        <time>2022-08-08T07:19:44Z</time>
      </trkpt>
      <trkpt lat="44.68764" lon="1.58963">
        <ele>327.7</ele>
        <time>2022-08-08T07:19:46Z</time>
      </trkpt>
      <trkpt lat="44.68762" lon="1.58959">
        <ele>327.9</ele>
        <time>2022-08-08T07:19:48Z</time>
      </trkpt>
      <trkpt lat="44.6876" lon="1.58953">
        <ele>328.2</ele>
        <time>2022-08-08T07:19:50Z</time>
      </trkpt>
      <trkpt lat="44.68758" lon="1.58949">
        <ele>328.4</ele>
        <time>2022-08-08T07:19:52Z</time>
      </trkpt>
      <trkpt lat="44.68756" lon="1.58945">
        <ele>328.7</ele>
        <time>2022-08-08T07:19:54Z</time>
      </trkpt>
      <trkpt lat="44.68754" lon="1.58939">
        <ele>328.9</ele>
        <time>2022-08-08T07:19:56Z</time>
      </trkpt>
      <trkpt lat="44.68752" lon="1.58934">
        <ele>329.2</ele>
        <time>2022-08-08T07:19:58Z</time>
      </trkpt>
      <trkpt lat="44.6875" lon="1.5893">
        <ele>329.4</ele>
        <time>2022-08-08T07:20:00Z</time>
      </trkpt>
      <trkpt lat="44.68747" lon="1.58925">
        <ele>329.8</ele>
        <time>2022-08-08T07:20:02Z</time>
      </trkpt>
      <trkpt lat="44.68745" lon="1.5892">
        <ele>330.3</ele>
        <time>2022-08-08T07:20:04Z</time>
      </trkpt>
      <trkpt lat="44.68743" lon="1.58915">
        <ele>330.7</ele>
        <time>2022-08-08T07:20:06Z</time>
      </trkpt>
      <trkpt lat="44.68742" lon="1.5891">
        <ele>330.8</ele>
        <time>2022-08-08T07:20:08Z</time>
      </trkpt>
      <trkpt lat="44.6874" lon="1.58905">
        <ele>330.9</ele>
        <time>2022-08-08T07:20:10Z</time>
      </trkpt>
      <trkpt lat="44.68737" lon="1.589">
        <ele>331.1</ele>
        <time>2022-08-08T07:20:12Z</time>
      </trkpt>
      <trkpt lat="44.68735" lon="1.58895">
        <ele>331.2</ele>
        <time>2022-08-08T07:20:14Z</time>
      </trkpt>
      <trkpt lat="44.68733" lon="1.58889">
        <ele>331.5</ele>
        <time>2022-08-08T07:20:16Z</time>
      </trkpt>
      <trkpt lat="44.6873" lon="1.58883">
        <ele>331.7</ele>
        <time>2022-08-08T07:20:18Z</time>
      </trkpt>
      <trkpt lat="44.68729" lon="1.58877">
        <ele>331.9</ele>
        <time>2022-08-08T07:20:20Z</time>
      </trkpt>
      <trkpt lat="44.68726" lon="1.58871">
        <ele>332.2</ele>
        <time>2022-08-08T07:20:22Z</time>
      </trkpt>
      <trkpt lat="44.68723" lon="1.58866">
        <ele>332.4</ele>
        <time>2022-08-08T07:20:24Z</time>
      </trkpt>
      <trkpt lat="44.68721" lon="1.5886">
        <ele>332.8</ele>
        <time>2022-08-08T07:20:26Z</time>
      </trkpt>
      <trkpt lat="44.68719" lon="1.58854">
        <ele>333</ele>
        <time>2022-08-08T07:20:28Z</time>
      </trkpt>
      <trkpt lat="44.68717" lon="1.58848">
        <ele>333.2</ele>
        <time>2022-08-08T07:20:30Z</time>
      </trkpt>
      <trkpt lat="44.68714" lon="1.58844">
        <ele>333.6</ele>
        <time>2022-08-08T07:20:32Z</time>
      </trkpt>
      <trkpt lat="44.68712" lon="1.58839">
        <ele>333.9</ele>
        <time>2022-08-08T07:20:34Z</time>
      </trkpt>
      <trkpt lat="44.6871" lon="1.58835">
        <ele>334.2</ele>
        <time>2022-08-08T07:20:36Z</time>
      </trkpt>
      <trkpt lat="44.68708" lon="1.5883">
        <ele>334.4</ele>
        <time>2022-08-08T07:20:38Z</time>
      </trkpt>
      <trkpt lat="44.68706" lon="1.58825">
        <ele>334.6</ele>
        <time>2022-08-08T07:20:40Z</time>
      </trkpt>
      <trkpt lat="44.68703" lon="1.58821">
        <ele>334.8</ele>
        <time>2022-08-08T07:20:42Z</time>
      </trkpt>
      <trkpt lat="44.68701" lon="1.58817">
        <ele>335.1</ele>
        <time>2022-08-08T07:20:44Z</time>
      </trkpt>
      <trkpt lat="44.68698" lon="1.58814">
        <ele>335.4</ele>
        <time>2022-08-08T07:20:46Z</time>
      </trkpt>
      <trkpt lat="44.68695" lon="1.5881">
        <ele>335.7</ele>
        <time>2022-08-08T07:20:48Z</time>
      </trkpt>
      <trkpt lat="44.68693" lon="1.58806">
        <ele>336</ele>
        <time>2022-08-08T07:20:50Z</time>
      </trkpt>
      <trkpt lat="44.6869" lon="1.58803">
        <ele>336.3</ele>
        <time>2022-08-08T07:20:52Z</time>
      </trkpt>
      <trkpt lat="44.68687" lon="1.58799">
        <ele>336.6</ele>
        <time>2022-08-08T07:20:54Z</time>
      </trkpt>
      <trkpt lat="44.68684" lon="1.58796">
        <ele>336.9</ele>
        <time>2022-08-08T07:20:56Z</time>
      </trkpt>
      <trkpt lat="44.68681" lon="1.58793">
        <ele>337.2</ele>
        <time>2022-08-08T07:20:58Z</time>
      </trkpt>
      <trkpt lat="44.68679" lon="1.5879">
        <ele>337.6</ele>
        <time>2022-08-08T07:21:00Z</time>
      </trkpt>
      <trkpt lat="44.68676" lon="1.58788">
        <ele>338</ele>
        <time>2022-08-08T07:21:02Z</time>
      </trkpt>
      <trkpt lat="44.68673" lon="1.58787">
        <ele>338.4</ele>
        <time>2022-08-08T07:21:04Z</time>
      </trkpt>
      <trkpt lat="44.68669" lon="1.58785">
        <ele>338.8</ele>
        <time>2022-08-08T07:21:06Z</time>
      </trkpt>
      <trkpt lat="44.68667" lon="1.58783">
        <ele>339.2</ele>
        <time>2022-08-08T07:21:08Z</time>
      </trkpt>
      <trkpt lat="44.68664" lon="1.58781">
        <ele>339.3</ele>
        <time>2022-08-08T07:21:10Z</time>
      </trkpt>
      <trkpt lat="44.68661" lon="1.58781">
        <ele>339.6</ele>
        <time>2022-08-08T07:21:12Z</time>
      </trkpt>
      <trkpt lat="44.68658" lon="1.5878">
        <ele>339.8</ele>
        <time>2022-08-08T07:21:14Z</time>
      </trkpt>
      <trkpt lat="44.68655" lon="1.5878">
        <ele>340</ele>
        <time>2022-08-08T07:21:16Z</time>
      </trkpt>
      <trkpt lat="44.68652" lon="1.5878">
        <ele>340.3</ele>
        <time>2022-08-08T07:21:18Z</time>
      </trkpt>
      <trkpt lat="44.68649" lon="1.5878">
        <ele>340.5</ele>
        <time>2022-08-08T07:21:20Z</time>
      </trkpt>
      <trkpt lat="44.68646" lon="1.58779">
        <ele>340.8</ele>
        <time>2022-08-08T07:21:22Z</time>
      </trkpt>
      <trkpt lat="44.68643" lon="1.58779">
        <ele>341</ele>
        <time>2022-08-08T07:21:24Z</time>
      </trkpt>
      <trkpt lat="44.6864" lon="1.58779">
        <ele>341.3</ele>
        <time>2022-08-08T07:21:26Z</time>
      </trkpt>
      <trkpt lat="44.68637" lon="1.58779">
        <ele>341.5</ele>
        <time>2022-08-08T07:21:28Z</time>
      </trkpt>
      <trkpt lat="44.68635" lon="1.58778">
        <ele>341.7</ele>
        <time>2022-08-08T07:21:30Z</time>
      </trkpt>
      <trkpt lat="44.68632" lon="1.58777">
        <ele>341.9</ele>
        <time>2022-08-08T07:21:32Z</time>
      </trkpt>
      <trkpt lat="44.68628" lon="1.58777">
        <ele>342.2</ele>
        <time>2022-08-08T07:21:34Z</time>
      </trkpt>
      <trkpt lat="44.68626" lon="1.58776">
        <ele>342.4</ele>
        <time>2022-08-08T07:21:36Z</time>
      </trkpt>
      <trkpt lat="44.68622" lon="1.58775">
        <ele>342.7</ele>
        <time>2022-08-08T07:21:38Z</time>
      </trkpt>
      <trkpt lat="44.68619" lon="1.58775">
        <ele>342.9</ele>
        <time>2022-08-08T07:21:40Z</time>
      </trkpt>
      <trkpt lat="44.68616" lon="1.58773">
        <ele>343.2</ele>
        <time>2022-08-08T07:21:42Z</time>
      </trkpt>
      <trkpt lat="44.68613" lon="1.58772">
        <ele>343.4</ele>
        <time>2022-08-08T07:21:44Z</time>
      </trkpt>
      <trkpt lat="44.6861" lon="1.58771">
        <ele>343.7</ele>
        <time>2022-08-08T07:21:46Z</time>
      </trkpt>
      <trkpt lat="44.68607" lon="1.58769">
        <ele>343.9</ele>
        <time>2022-08-08T07:21:48Z</time>
      </trkpt>
      <trkpt lat="44.68604" lon="1.58768">
        <ele>344.2</ele>
        <time>2022-08-08T07:21:50Z</time>
      </trkpt>
      <trkpt lat="44.686" lon="1.58767">
        <ele>344.5</ele>
        <time>2022-08-08T07:21:52Z</time>
      </trkpt>
      <trkpt lat="44.68597" lon="1.58766">
        <ele>344.7</ele>
        <time>2022-08-08T07:21:54Z</time>
      </trkpt>
      <trkpt lat="44.68594" lon="1.58764">
        <ele>345</ele>
        <time>2022-08-08T07:21:56Z</time>
      </trkpt>
      <trkpt lat="44.68591" lon="1.58763">
        <ele>345.3</ele>
        <time>2022-08-08T07:21:58Z</time>
      </trkpt>
      <trkpt lat="44.68588" lon="1.58762">
        <ele>345.6</ele>
        <time>2022-08-08T07:22:00Z</time>
      </trkpt>
      <trkpt lat="44.68584" lon="1.58761">
        <ele>345.9</ele>
        <time>2022-08-08T07:22:02Z</time>
      </trkpt>
      <trkpt lat="44.68581" lon="1.58759">
        <ele>346</ele>
        <time>2022-08-08T07:22:04Z</time>
      </trkpt>
      <trkpt lat="44.68578" lon="1.58757">
        <ele>346.1</ele>
        <time>2022-08-08T07:22:06Z</time>
      </trkpt>
      <trkpt lat="44.68575" lon="1.58756">
        <ele>346.1</ele>
        <time>2022-08-08T07:22:08Z</time>
      </trkpt>
      <trkpt lat="44.68572" lon="1.58755">
        <ele>346.1</ele>
        <time>2022-08-08T07:22:10Z</time>
      </trkpt>
      <trkpt lat="44.68568" lon="1.58754">
        <ele>346.2</ele>
        <time>2022-08-08T07:22:12Z</time>
      </trkpt>
      <trkpt lat="44.68565" lon="1.58752">
        <ele>346.2</ele>
        <time>2022-08-08T07:22:14Z</time>
      </trkpt>
      <trkpt lat="44.68562" lon="1.58751">
        <ele>346.3</ele>
        <time>2022-08-08T07:22:16Z</time>
      </trkpt>
      <trkpt lat="44.68558" lon="1.58749">
        <ele>346.3</ele>
        <time>2022-08-08T07:22:18Z</time>
      </trkpt>
      <trkpt lat="44.68554" lon="1.58747">
        <ele>346.3</ele>
        <time>2022-08-08T07:22:20Z</time>
      </trkpt>
      <trkpt lat="44.68551" lon="1.58746">
        <ele>346.3</ele>
        <time>2022-08-08T07:22:22Z</time>
      </trkpt>
      <trkpt lat="44.68548" lon="1.58745">
        <ele>346.3</ele>
        <time>2022-08-08T07:22:24Z</time>
      </trkpt>
      <trkpt lat="44.68545" lon="1.58743">
        <ele>346.3</ele>
        <time>2022-08-08T07:22:26Z</time>
      </trkpt>
      <trkpt lat="44.68541" lon="1.58741">
        <ele>346.2</ele>
        <time>2022-08-08T07:22:28Z</time>
      </trkpt>
      <trkpt lat="44.68539" lon="1.58741">
        <ele>346.3</ele>
        <time>2022-08-08T07:22:30Z</time>
      </trkpt>
      <trkpt lat="44.68535" lon="1.58739">
        <ele>346.3</ele>
        <time>2022-08-08T07:22:32Z</time>
      </trkpt>
      <trkpt lat="44.68533" lon="1.58736">
        <ele>346.2</ele>
        <time>2022-08-08T07:22:34Z</time>
      </trkpt>
      <trkpt lat="44.6853" lon="1.58735">
        <ele>346.2</ele>
        <time>2022-08-08T07:22:36Z</time>
      </trkpt>
      <trkpt lat="44.68526" lon="1.58736">
        <ele>346.3</ele>
        <time>2022-08-08T07:22:38Z</time>
      </trkpt>
      <trkpt lat="44.68523" lon="1.58739">
        <ele>346.4</ele>
        <time>2022-08-08T07:22:40Z</time>
      </trkpt>
      <trkpt lat="44.68523" lon="1.58743">
        <ele>346.5</ele>
        <time>2022-08-08T07:22:42Z</time>
      </trkpt>
      <trkpt lat="44.68522" lon="1.58748">
        <ele>346.7</ele>
        <time>2022-08-08T07:22:44Z</time>
      </trkpt>
      <trkpt lat="44.68521" lon="1.58753">
        <ele>346.7</ele>
        <time>2022-08-08T07:22:46Z</time>
      </trkpt>
      <trkpt lat="44.6852" lon="1.58758">
        <ele>346.7</ele>
        <time>2022-08-08T07:22:48Z</time>
      </trkpt>
      <trkpt lat="44.6852" lon="1.58762">
        <ele>346.7</ele>
        <time>2022-08-08T07:22:50Z</time>
      </trkpt>
      <trkpt lat="44.68519" lon="1.58768">
        <ele>346.6</ele>
        <time>2022-08-08T07:22:52Z</time>
      </trkpt>
      <trkpt lat="44.68518" lon="1.58773">
        <ele>346.6</ele>
        <time>2022-08-08T07:22:54Z</time>
      </trkpt>
      <trkpt lat="44.68517" lon="1.58778">
        <ele>346.5</ele>
        <time>2022-08-08T07:22:56Z</time>
      </trkpt>
      <trkpt lat="44.68517" lon="1.58784">
        <ele>346.5</ele>
        <time>2022-08-08T07:22:58Z</time>
      </trkpt>
      <trkpt lat="44.68516" lon="1.5879">
        <ele>346.4</ele>
        <time>2022-08-08T07:23:00Z</time>
      </trkpt>
      <trkpt lat="44.68516" lon="1.58795">
        <ele>346.4</ele>
        <time>2022-08-08T07:23:02Z</time>
      </trkpt>
      <trkpt lat="44.68515" lon="1.58802">
        <ele>346.3</ele>
        <time>2022-08-08T07:23:04Z</time>
      </trkpt>
      <trkpt lat="44.68514" lon="1.58808">
        <ele>346.3</ele>
        <time>2022-08-08T07:23:06Z</time>
      </trkpt>
      <trkpt lat="44.68513" lon="1.58814">
        <ele>346.2</ele>
        <time>2022-08-08T07:23:08Z</time>
      </trkpt>
      <trkpt lat="44.68512" lon="1.5882">
        <ele>346.1</ele>
        <time>2022-08-08T07:23:10Z</time>
      </trkpt>
      <trkpt lat="44.6851" lon="1.58826">
        <ele>346.1</ele>
        <time>2022-08-08T07:23:12Z</time>
      </trkpt>
      <trkpt lat="44.68508" lon="1.58832">
        <ele>346</ele>
        <time>2022-08-08T07:23:14Z</time>
      </trkpt>
      <trkpt lat="44.68505" lon="1.58837">
        <ele>346</ele>
        <time>2022-08-08T07:23:16Z</time>
      </trkpt>
      <trkpt lat="44.68501" lon="1.58841">
        <ele>345.9</ele>
        <time>2022-08-08T07:23:18Z</time>
      </trkpt>
      <trkpt lat="44.68498" lon="1.58846">
        <ele>345.9</ele>
        <time>2022-08-08T07:23:20Z</time>
      </trkpt>
      <trkpt lat="44.68493" lon="1.5885">
        <ele>345.8</ele>
        <time>2022-08-08T07:23:22Z</time>
      </trkpt>
      <trkpt lat="44.6849" lon="1.58855">
        <ele>345.8</ele>
        <time>2022-08-08T07:23:24Z</time>
      </trkpt>
      <trkpt lat="44.68486" lon="1.5886">
        <ele>345.8</ele>
        <time>2022-08-08T07:23:26Z</time>
      </trkpt>
      <trkpt lat="44.68483" lon="1.58866">
        <ele>345.9</ele>
        <time>2022-08-08T07:23:28Z</time>
      </trkpt>
      <trkpt lat="44.68479" lon="1.58871">
        <ele>345.9</ele>
        <time>2022-08-08T07:23:30Z</time>
      </trkpt>
      <trkpt lat="44.68475" lon="1.58877">
        <ele>345.9</ele>
        <time>2022-08-08T07:23:32Z</time>
      </trkpt>
      <trkpt lat="44.68472" lon="1.58884">
        <ele>346</ele>
        <time>2022-08-08T07:23:34Z</time>
      </trkpt>
      <trkpt lat="44.68468" lon="1.58891">
        <ele>346.1</ele>
        <time>2022-08-08T07:23:36Z</time>
      </trkpt>
      <trkpt lat="44.68464" lon="1.58899">
        <ele>346.2</ele>
        <time>2022-08-08T07:23:38Z</time>
      </trkpt>
      <trkpt lat="44.68461" lon="1.58905">
        <ele>346.3</ele>
        <time>2022-08-08T07:23:40Z</time>
      </trkpt>
      <trkpt lat="44.68458" lon="1.5891">
        <ele>346.5</ele>
        <time>2022-08-08T07:23:42Z</time>
      </trkpt>
      <trkpt lat="44.68455" lon="1.58916">
        <ele>346.6</ele>
        <time>2022-08-08T07:23:44Z</time>
      </trkpt>
      <trkpt lat="44.68452" lon="1.5892">
        <ele>346.6</ele>
        <time>2022-08-08T07:23:46Z</time>
      </trkpt>
      <trkpt lat="44.68449" lon="1.58926">
        <ele>346.6</ele>
        <time>2022-08-08T07:23:48Z</time>
      </trkpt>
      <trkpt lat="44.68445" lon="1.5893">
        <ele>346.6</ele>
        <time>2022-08-08T07:23:50Z</time>
      </trkpt>
      <trkpt lat="44.68442" lon="1.58934">
        <ele>346.6</ele>
        <time>2022-08-08T07:23:52Z</time>
      </trkpt>
      <trkpt lat="44.68439" lon="1.58937">
        <ele>346.7</ele>
        <time>2022-08-08T07:23:54Z</time>
      </trkpt>
      <trkpt lat="44.68435" lon="1.58941">
        <ele>346.7</ele>
        <time>2022-08-08T07:23:56Z</time>
      </trkpt>
      <trkpt lat="44.68431" lon="1.58945">
        <ele>346.7</ele>
        <time>2022-08-08T07:23:58Z</time>
      </trkpt>
      <trkpt lat="44.68427" lon="1.58948">
        <ele>346.8</ele>
        <time>2022-08-08T07:24:00Z</time>
      </trkpt>
      <trkpt lat="44.68423" lon="1.58952">
        <ele>346.9</ele>
        <time>2022-08-08T07:24:02Z</time>
      </trkpt>
      <trkpt lat="44.68419" lon="1.58955">
        <ele>347</ele>
        <time>2022-08-08T07:24:04Z</time>
      </trkpt>
      <trkpt lat="44.68415" lon="1.58958">
        <ele>347.1</ele>
        <time>2022-08-08T07:24:06Z</time>
      </trkpt>
      <trkpt lat="44.68411" lon="1.5896">
        <ele>347.2</ele>
        <time>2022-08-08T07:24:08Z</time>
      </trkpt>
      <trkpt lat="44.68407" lon="1.58963">
        <ele>347.4</ele>
        <time>2022-08-08T07:24:10Z</time>
      </trkpt>
      <trkpt lat="44.68402" lon="1.58967">
        <ele>347.5</ele>
        <time>2022-08-08T07:24:12Z</time>
      </trkpt>
      <trkpt lat="44.68397" lon="1.58968">
        <ele>347.7</ele>
        <time>2022-08-08T07:24:14Z</time>
      </trkpt>
      <trkpt lat="44.68394" lon="1.5897">
        <ele>347.9</ele>
        <time>2022-08-08T07:24:16Z</time>
      </trkpt>
      <trkpt lat="44.6839" lon="1.58971">
        <ele>348.1</ele>
        <time>2022-08-08T07:24:18Z</time>
      </trkpt>
      <trkpt lat="44.68386" lon="1.58973">
        <ele>348.2</ele>
        <time>2022-08-08T07:24:20Z</time>
      </trkpt>
      <trkpt lat="44.68383" lon="1.58976">
        <ele>348.3</ele>
        <time>2022-08-08T07:24:22Z</time>
      </trkpt>
      <trkpt lat="44.68382" lon="1.58981">
        <ele>348.4</ele>
        <time>2022-08-08T07:24:24Z</time>
      </trkpt>
      <trkpt lat="44.68382" lon="1.58987">
        <ele>348.2</ele>
        <time>2022-08-08T07:24:26Z</time>
      </trkpt>
      <trkpt lat="44.68385" lon="1.58993">
        <ele>348</ele>
        <time>2022-08-08T07:24:28Z</time>
      </trkpt>
      <trkpt lat="44.68388" lon="1.58996">
        <ele>347.8</ele>
        <time>2022-08-08T07:24:30Z</time>
      </trkpt>
      <trkpt lat="44.68391" lon="1.58999">
        <ele>347.6</ele>
        <time>2022-08-08T07:24:32Z</time>
      </trkpt>
      <trkpt lat="44.68395" lon="1.59001">
        <ele>347.3</ele>
        <time>2022-08-08T07:24:34Z</time>
      </trkpt>
      <trkpt lat="44.68397" lon="1.59001">
        <ele>347.1</ele>
        <time>2022-08-08T07:24:36Z</time>
      </trkpt>
      <trkpt lat="44.68402" lon="1.59002">
        <ele>346.8</ele>
        <time>2022-08-08T07:24:38Z</time>
      </trkpt>
      <trkpt lat="44.68404" lon="1.59006">
        <ele>346.5</ele>
        <time>2022-08-08T07:24:40Z</time>
      </trkpt>
      <trkpt lat="44.68402" lon="1.59012">
        <ele>346.3</ele>
        <time>2022-08-08T07:24:42Z</time>
      </trkpt>
      <trkpt lat="44.68398" lon="1.59015">
        <ele>346.4</ele>
        <time>2022-08-08T07:24:44Z</time>
      </trkpt>
      <trkpt lat="44.68394" lon="1.5902">
        <ele>346.4</ele>
        <time>2022-08-08T07:24:46Z</time>
      </trkpt>
      <trkpt lat="44.68389" lon="1.59024">
        <ele>346.5</ele>
        <time>2022-08-08T07:24:48Z</time>
      </trkpt>
      <trkpt lat="44.68385" lon="1.59027">
        <ele>346.6</ele>
        <time>2022-08-08T07:24:50Z</time>
      </trkpt>
      <trkpt lat="44.68381" lon="1.59031">
        <ele>346.7</ele>
        <time>2022-08-08T07:24:52Z</time>
      </trkpt>
      <trkpt lat="44.68377" lon="1.59033">
        <ele>346.8</ele>
        <time>2022-08-08T07:24:54Z</time>
      </trkpt>
      <trkpt lat="44.68372" lon="1.59035">
        <ele>347</ele>
        <time>2022-08-08T07:24:56Z</time>
      </trkpt>
      <trkpt lat="44.68368" lon="1.59038">
        <ele>347.1</ele>
        <time>2022-08-08T07:24:58Z</time>
      </trkpt>
      <trkpt lat="44.68364" lon="1.59042">
        <ele>347.2</ele>
        <time>2022-08-08T07:25:00Z</time>
      </trkpt>
      <trkpt lat="44.6836" lon="1.59046">
        <ele>347.2</ele>
        <time>2022-08-08T07:25:02Z</time>
      </trkpt>
      <trkpt lat="44.68352" lon="1.5905">
        <ele>347.5</ele>
        <time>2022-08-08T07:25:04Z</time>
      </trkpt>
      <trkpt lat="44.68346" lon="1.59056">
        <ele>347.6</ele>
        <time>2022-08-08T07:25:06Z</time>
      </trkpt>
      <trkpt lat="44.68337" lon="1.59058">
        <ele>348</ele>
        <time>2022-08-08T07:25:08Z</time>
      </trkpt>
      <trkpt lat="44.6833" lon="1.59066">
        <ele>347.8</ele>
        <time>2022-08-08T07:25:10Z</time>
      </trkpt>
      <trkpt lat="44.6832" lon="1.59072">
        <ele>347.7</ele>
        <time>2022-08-08T07:25:12Z</time>
      </trkpt>
      <trkpt lat="44.68311" lon="1.59078">
        <ele>347.5</ele>
        <time>2022-08-08T07:25:14Z</time>
      </trkpt>
      <trkpt lat="44.68302" lon="1.59083">
        <ele>347.4</ele>
        <time>2022-08-08T07:25:16Z</time>
      </trkpt>
      <trkpt lat="44.68294" lon="1.59088">
        <ele>347.1</ele>
        <time>2022-08-08T07:25:18Z</time>
      </trkpt>
      <trkpt lat="44.68286" lon="1.59093">
        <ele>347</ele>
        <time>2022-08-08T07:25:20Z</time>
      </trkpt>
      <trkpt lat="44.68278" lon="1.591">
        <ele>346.8</ele>
        <time>2022-08-08T07:25:22Z</time>
      </trkpt>
      <trkpt lat="44.68269" lon="1.59105">
        <ele>346.8</ele>
        <time>2022-08-08T07:25:24Z</time>
      </trkpt>
      <trkpt lat="44.68261" lon="1.5911">
        <ele>346.9</ele>
        <time>2022-08-08T07:25:26Z</time>
      </trkpt>
      <trkpt lat="44.68253" lon="1.59115">
        <ele>347.1</ele>
        <time>2022-08-08T07:25:28Z</time>
      </trkpt>
      <trkpt lat="44.68246" lon="1.59119">
        <ele>347</ele>
        <time>2022-08-08T07:25:30Z</time>
      </trkpt>
      <trkpt lat="44.68236" lon="1.59124">
        <ele>346.6</ele>
        <time>2022-08-08T07:25:32Z</time>
      </trkpt>
      <trkpt lat="44.68228" lon="1.59129">
        <ele>346.3</ele>
        <time>2022-08-08T07:25:34Z</time>
      </trkpt>
      <trkpt lat="44.6822" lon="1.59135">
        <ele>345.9</ele>
        <time>2022-08-08T07:25:36Z</time>
      </trkpt>
      <trkpt lat="44.6821" lon="1.5914">
        <ele>345.5</ele>
        <time>2022-08-08T07:25:38Z</time>
      </trkpt>
      <trkpt lat="44.68202" lon="1.59144">
        <ele>345.2</ele>
        <time>2022-08-08T07:25:40Z</time>
      </trkpt>
      <trkpt lat="44.68192" lon="1.59149">
        <ele>344.9</ele>
        <time>2022-08-08T07:25:42Z</time>
      </trkpt>
      <trkpt lat="44.68182" lon="1.59158">
        <ele>344.5</ele>
        <time>2022-08-08T07:25:44Z</time>
      </trkpt>
      <trkpt lat="44.68172" lon="1.59171">
        <ele>343.6</ele>
        <time>2022-08-08T07:25:46Z</time>
      </trkpt>
      <trkpt lat="44.6816" lon="1.59187">
        <ele>341.7</ele>
        <time>2022-08-08T07:25:48Z</time>
      </trkpt>
      <trkpt lat="44.68147" lon="1.59205">
        <ele>339.7</ele>
        <time>2022-08-08T07:25:50Z</time>
      </trkpt>
      <trkpt lat="44.68133" lon="1.59224">
        <ele>338</ele>
        <time>2022-08-08T07:25:52Z</time>
      </trkpt>
      <trkpt lat="44.68119" lon="1.59245">
        <ele>336.5</ele>
        <time>2022-08-08T07:25:54Z</time>
      </trkpt>
      <trkpt lat="44.68105" lon="1.59264">
        <ele>335.9</ele>
        <time>2022-08-08T07:25:56Z</time>
      </trkpt>
      <trkpt lat="44.68091" lon="1.59282">
        <ele>335.6</ele>
        <time>2022-08-08T07:25:58Z</time>
      </trkpt>
      <trkpt lat="44.68079" lon="1.59299">
        <ele>335.2</ele>
        <time>2022-08-08T07:26:00Z</time>
      </trkpt>
      <trkpt lat="44.68068" lon="1.59315">
        <ele>334.4</ele>
        <time>2022-08-08T07:26:02Z</time>
      </trkpt>
      <trkpt lat="44.68058" lon="1.59329">
        <ele>333.8</ele>
        <time>2022-08-08T07:26:04Z</time>
      </trkpt>
      <trkpt lat="44.68048" lon="1.59343">
        <ele>333.4</ele>
        <time>2022-08-08T07:26:06Z</time>
      </trkpt>
      <trkpt lat="44.68038" lon="1.59358">
        <ele>333.1</ele>
        <time>2022-08-08T07:26:08Z</time>
      </trkpt>
      <trkpt lat="44.68027" lon="1.59373">
        <ele>332.9</ele>
        <time>2022-08-08T07:26:10Z</time>
      </trkpt>
      <trkpt lat="44.68016" lon="1.59387">
        <ele>332.8</ele>
        <time>2022-08-08T07:26:12Z</time>
      </trkpt>
      <trkpt lat="44.68004" lon="1.59397">
        <ele>332.9</ele>
        <time>2022-08-08T07:26:14Z</time>
      </trkpt>
      <trkpt lat="44.67991" lon="1.59402">
        <ele>333.4</ele>
        <time>2022-08-08T07:26:16Z</time>
      </trkpt>
      <trkpt lat="44.67981" lon="1.59405">
        <ele>333.9</ele>
        <time>2022-08-08T07:26:18Z</time>
      </trkpt>
      <trkpt lat="44.67972" lon="1.59409">
        <ele>334.3</ele>
        <time>2022-08-08T07:26:20Z</time>
      </trkpt>
      <trkpt lat="44.67964" lon="1.5941">
        <ele>334.6</ele>
        <time>2022-08-08T07:26:22Z</time>
      </trkpt>
      <trkpt lat="44.67957" lon="1.59413">
        <ele>335</ele>
        <time>2022-08-08T07:26:24Z</time>
      </trkpt>
      <trkpt lat="44.6795" lon="1.59415">
        <ele>335.4</ele>
        <time>2022-08-08T07:26:26Z</time>
      </trkpt>
      <trkpt lat="44.67943" lon="1.59419">
        <ele>335.7</ele>
        <time>2022-08-08T07:26:28Z</time>
      </trkpt>
      <trkpt lat="44.67937" lon="1.59421">
        <ele>336</ele>
        <time>2022-08-08T07:26:30Z</time>
      </trkpt>
      <trkpt lat="44.67931" lon="1.59422">
        <ele>336.2</ele>
        <time>2022-08-08T07:26:32Z</time>
      </trkpt>
      <trkpt lat="44.67926" lon="1.59424">
        <ele>336.5</ele>
        <time>2022-08-08T07:26:34Z</time>
      </trkpt>
      <trkpt lat="44.67921" lon="1.59426">
        <ele>336.7</ele>
        <time>2022-08-08T07:26:36Z</time>
      </trkpt>
      <trkpt lat="44.67916" lon="1.59428">
        <ele>336.9</ele>
        <time>2022-08-08T07:26:38Z</time>
      </trkpt>
      <trkpt lat="44.67912" lon="1.59431">
        <ele>336.9</ele>
        <time>2022-08-08T07:26:40Z</time>
      </trkpt>
      <trkpt lat="44.67907" lon="1.59435">
        <ele>336.9</ele>
        <time>2022-08-08T07:26:42Z</time>
      </trkpt>
      <trkpt lat="44.67903" lon="1.59439">
        <ele>336.9</ele>
        <time>2022-08-08T07:26:44Z</time>
      </trkpt>
      <trkpt lat="44.67899" lon="1.59443">
        <ele>336.9</ele>
        <time>2022-08-08T07:26:46Z</time>
      </trkpt>
      <trkpt lat="44.67896" lon="1.59447">
        <ele>337</ele>
        <time>2022-08-08T07:26:48Z</time>
      </trkpt>
      <trkpt lat="44.67893" lon="1.5945">
        <ele>337.1</ele>
        <time>2022-08-08T07:26:50Z</time>
      </trkpt>
      <trkpt lat="44.6789" lon="1.59453">
        <ele>337.1</ele>
        <time>2022-08-08T07:26:52Z</time>
      </trkpt>
      <trkpt lat="44.67888" lon="1.59456">
        <ele>337.2</ele>
        <time>2022-08-08T07:26:54Z</time>
      </trkpt>
      <trkpt lat="44.67887" lon="1.59461">
        <ele>337.2</ele>
        <time>2022-08-08T07:26:56Z</time>
      </trkpt>
      <trkpt lat="44.67888" lon="1.59467">
        <ele>337.2</ele>
        <time>2022-08-08T07:26:58Z</time>
      </trkpt>
      <trkpt lat="44.67889" lon="1.59474">
        <ele>337.2</ele>
        <time>2022-08-08T07:27:00Z</time>
      </trkpt>
      <trkpt lat="44.6789" lon="1.59481">
        <ele>337.2</ele>
        <time>2022-08-08T07:27:02Z</time>
      </trkpt>
      <trkpt lat="44.6789" lon="1.59488">
        <ele>337.2</ele>
        <time>2022-08-08T07:27:04Z</time>
      </trkpt>
      <trkpt lat="44.67889" lon="1.59497">
        <ele>337.3</ele>
        <time>2022-08-08T07:27:06Z</time>
      </trkpt>
      <trkpt lat="44.67889" lon="1.59506">
        <ele>337.4</ele>
        <time>2022-08-08T07:27:08Z</time>
      </trkpt>
      <trkpt lat="44.67888" lon="1.59516">
        <ele>337.6</ele>
        <time>2022-08-08T07:27:10Z</time>
      </trkpt>
      <trkpt lat="44.67888" lon="1.59526">
        <ele>337.8</ele>
        <time>2022-08-08T07:27:12Z</time>
      </trkpt>
      <trkpt lat="44.67887" lon="1.59536">
        <ele>338</ele>
        <time>2022-08-08T07:27:14Z</time>
      </trkpt>
      <trkpt lat="44.67886" lon="1.59546">
        <ele>338.2</ele>
        <time>2022-08-08T07:27:16Z</time>
      </trkpt>
      <trkpt lat="44.67884" lon="1.59558">
        <ele>338.5</ele>
        <time>2022-08-08T07:27:18Z</time>
      </trkpt>
      <trkpt lat="44.67883" lon="1.5957">
        <ele>338.8</ele>
        <time>2022-08-08T07:27:20Z</time>
      </trkpt>
      <trkpt lat="44.67881" lon="1.5958">
        <ele>339.1</ele>
        <time>2022-08-08T07:27:22Z</time>
      </trkpt>
      <trkpt lat="44.67879" lon="1.5959">
        <ele>339.2</ele>
        <time>2022-08-08T07:27:24Z</time>
      </trkpt>
      <trkpt lat="44.67878" lon="1.59599">
        <ele>339.2</ele>
        <time>2022-08-08T07:27:26Z</time>
      </trkpt>
      <trkpt lat="44.67877" lon="1.59608">
        <ele>339.3</ele>
        <time>2022-08-08T07:27:28Z</time>
      </trkpt>
      <trkpt lat="44.67875" lon="1.59618">
        <ele>339.3</ele>
        <time>2022-08-08T07:27:30Z</time>
      </trkpt>
      <trkpt lat="44.67873" lon="1.59628">
        <ele>339.4</ele>
        <time>2022-08-08T07:27:32Z</time>
      </trkpt>
      <trkpt lat="44.6787" lon="1.59639">
        <ele>339.4</ele>
        <time>2022-08-08T07:27:34Z</time>
      </trkpt>
      <trkpt lat="44.67867" lon="1.5965">
        <ele>339.5</ele>
        <time>2022-08-08T07:27:36Z</time>
      </trkpt>
      <trkpt lat="44.67863" lon="1.59662">
        <ele>339.6</ele>
        <time>2022-08-08T07:27:38Z</time>
      </trkpt>
      <trkpt lat="44.6786" lon="1.59676">
        <ele>339.8</ele>
        <time>2022-08-08T07:27:40Z</time>
      </trkpt>
      <trkpt lat="44.67856" lon="1.5969">
        <ele>340</ele>
        <time>2022-08-08T07:27:42Z</time>
      </trkpt>
      <trkpt lat="44.67852" lon="1.59704">
        <ele>340.4</ele>
        <time>2022-08-08T07:27:44Z</time>
      </trkpt>
      <trkpt lat="44.6785" lon="1.59715">
        <ele>340.6</ele>
        <time>2022-08-08T07:27:46Z</time>
      </trkpt>
      <trkpt lat="44.67847" lon="1.59727">
        <ele>340.8</ele>
        <time>2022-08-08T07:27:48Z</time>
      </trkpt>
      <trkpt lat="44.67846" lon="1.59737">
        <ele>341</ele>
        <time>2022-08-08T07:27:50Z</time>
      </trkpt>
      <trkpt lat="44.67846" lon="1.59745">
        <ele>341</ele>
        <time>2022-08-08T07:27:52Z</time>
      </trkpt>
      <trkpt lat="44.67846" lon="1.59754">
        <ele>341.1</ele>
        <time>2022-08-08T07:27:54Z</time>
      </trkpt>
      <trkpt lat="44.67848" lon="1.59762">
        <ele>341</ele>
        <time>2022-08-08T07:27:56Z</time>
      </trkpt>
      <trkpt lat="44.67851" lon="1.5977">
        <ele>340.8</ele>
        <time>2022-08-08T07:27:58Z</time>
      </trkpt>
      <trkpt lat="44.67854" lon="1.59777">
        <ele>340.6</ele>
        <time>2022-08-08T07:28:00Z</time>
      </trkpt>
      <trkpt lat="44.67858" lon="1.59784">
        <ele>340.5</ele>
        <time>2022-08-08T07:28:02Z</time>
      </trkpt>
      <trkpt lat="44.67861" lon="1.5979">
        <ele>340.4</ele>
        <time>2022-08-08T07:28:04Z</time>
      </trkpt>
      <trkpt lat="44.67863" lon="1.59795">
        <ele>340.2</ele>
        <time>2022-08-08T07:28:06Z</time>
      </trkpt>
      <trkpt lat="44.67867" lon="1.59801">
        <ele>340.1</ele>
        <time>2022-08-08T07:28:08Z</time>
      </trkpt>
      <trkpt lat="44.67871" lon="1.59808">
        <ele>339.9</ele>
        <time>2022-08-08T07:28:10Z</time>
      </trkpt>
      <trkpt lat="44.67876" lon="1.59816">
        <ele>339.7</ele>
        <time>2022-08-08T07:28:12Z</time>
      </trkpt>
      <trkpt lat="44.6788" lon="1.59822">
        <ele>339.6</ele>
        <time>2022-08-08T07:28:14Z</time>
      </trkpt>
      <trkpt lat="44.67886" lon="1.5983">
        <ele>339.4</ele>
        <time>2022-08-08T07:28:16Z</time>
      </trkpt>
      <trkpt lat="44.67892" lon="1.59838">
        <ele>339.1</ele>
        <time>2022-08-08T07:28:18Z</time>
      </trkpt>
      <trkpt lat="44.67897" lon="1.59845">
        <ele>338.8</ele>
        <time>2022-08-08T07:28:20Z</time>
      </trkpt>
      <trkpt lat="44.67903" lon="1.59851">
        <ele>338.4</ele>
        <time>2022-08-08T07:28:22Z</time>
      </trkpt>
      <trkpt lat="44.67908" lon="1.59858">
        <ele>338.1</ele>
        <time>2022-08-08T07:28:24Z</time>
      </trkpt>
      <trkpt lat="44.67913" lon="1.59864">
        <ele>337.8</ele>
        <time>2022-08-08T07:28:26Z</time>
      </trkpt>
      <trkpt lat="44.67918" lon="1.5987">
        <ele>337.5</ele>
        <time>2022-08-08T07:28:28Z</time>
      </trkpt>
      <trkpt lat="44.67923" lon="1.59877">
        <ele>337.1</ele>
        <time>2022-08-08T07:28:30Z</time>
      </trkpt>
      <trkpt lat="44.67928" lon="1.59881">
        <ele>336.8</ele>
        <time>2022-08-08T07:28:32Z</time>
      </trkpt>
      <trkpt lat="44.67933" lon="1.59886">
        <ele>336.6</ele>
        <time>2022-08-08T07:28:34Z</time>
      </trkpt>
      <trkpt lat="44.67937" lon="1.5989">
        <ele>336.4</ele>
        <time>2022-08-08T07:28:36Z</time>
      </trkpt>
      <trkpt lat="44.67939" lon="1.59893">
        <ele>336.2</ele>
        <time>2022-08-08T07:28:38Z</time>
      </trkpt>
      <trkpt lat="44.6794" lon="1.59899">
        <ele>336.2</ele>
        <time>2022-08-08T07:28:40Z</time>
      </trkpt>
      <trkpt lat="44.67938" lon="1.59906">
        <ele>336.3</ele>
        <time>2022-08-08T07:28:42Z</time>
      </trkpt>
      <trkpt lat="44.67934" lon="1.59911">
        <ele>336.4</ele>
        <time>2022-08-08T07:28:44Z</time>
      </trkpt>
      <trkpt lat="44.67931" lon="1.59917">
        <ele>336.5</ele>
        <time>2022-08-08T07:28:46Z</time>
      </trkpt>
      <trkpt lat="44.67928" lon="1.59923">
        <ele>336.4</ele>
        <time>2022-08-08T07:28:48Z</time>
      </trkpt>
      <trkpt lat="44.67924" lon="1.5993">
        <ele>336.3</ele>
        <time>2022-08-08T07:28:50Z</time>
      </trkpt>
      <trkpt lat="44.6792" lon="1.59934">
        <ele>336.3</ele>
        <time>2022-08-08T07:28:52Z</time>
      </trkpt>
      <trkpt lat="44.67914" lon="1.59944">
        <ele>336.1</ele>
        <time>2022-08-08T07:28:54Z</time>
      </trkpt>
      <trkpt lat="44.6791" lon="1.59952">
        <ele>336</ele>
        <time>2022-08-08T07:28:56Z</time>
      </trkpt>
      <trkpt lat="44.67906" lon="1.59961">
        <ele>335.9</ele>
        <time>2022-08-08T07:28:58Z</time>
      </trkpt>
      <trkpt lat="44.679" lon="1.5997">
        <ele>335.8</ele>
        <time>2022-08-08T07:29:00Z</time>
      </trkpt>
      <trkpt lat="44.67895" lon="1.59977">
        <ele>335.8</ele>
        <time>2022-08-08T07:29:02Z</time>
      </trkpt>
      <trkpt lat="44.67889" lon="1.59985">
        <ele>335.8</ele>
        <time>2022-08-08T07:29:04Z</time>
      </trkpt>
      <trkpt lat="44.67882" lon="1.59991">
        <ele>336</ele>
        <time>2022-08-08T07:29:06Z</time>
      </trkpt>
      <trkpt lat="44.67874" lon="1.59995">
        <ele>336.2</ele>
        <time>2022-08-08T07:29:08Z</time>
      </trkpt>
      <trkpt lat="44.67867" lon="1.59999">
        <ele>336.4</ele>
        <time>2022-08-08T07:29:10Z</time>
      </trkpt>
      <trkpt lat="44.67859" lon="1.60003">
        <ele>336.7</ele>
        <time>2022-08-08T07:29:12Z</time>
      </trkpt>
      <trkpt lat="44.67852" lon="1.60006">
        <ele>337</ele>
        <time>2022-08-08T07:29:14Z</time>
      </trkpt>
      <trkpt lat="44.67845" lon="1.60009">
        <ele>337.3</ele>
        <time>2022-08-08T07:29:16Z</time>
      </trkpt>
      <trkpt lat="44.67838" lon="1.60011">
        <ele>337.6</ele>
        <time>2022-08-08T07:29:18Z</time>
      </trkpt>
      <trkpt lat="44.67831" lon="1.60014">
        <ele>337.9</ele>
        <time>2022-08-08T07:29:20Z</time>
      </trkpt>
      <trkpt lat="44.67824" lon="1.60018">
        <ele>338.1</ele>
        <time>2022-08-08T07:29:22Z</time>
      </trkpt>
      <trkpt lat="44.67818" lon="1.6002">
        <ele>338.2</ele>
        <time>2022-08-08T07:29:24Z</time>
      </trkpt>
      <trkpt lat="44.67812" lon="1.60022">
        <ele>338.3</ele>
        <time>2022-08-08T07:29:26Z</time>
      </trkpt>
      <trkpt lat="44.67807" lon="1.60026">
        <ele>338.4</ele>
        <time>2022-08-08T07:29:28Z</time>
      </trkpt>
      <trkpt lat="44.67801" lon="1.60029">
        <ele>338.5</ele>
        <time>2022-08-08T07:29:30Z</time>
      </trkpt>
      <trkpt lat="44.67796" lon="1.60032">
        <ele>338.6</ele>
        <time>2022-08-08T07:29:32Z</time>
      </trkpt>
      <trkpt lat="44.67792" lon="1.60034">
        <ele>338.7</ele>
        <time>2022-08-08T07:29:34Z</time>
      </trkpt>
      <trkpt lat="44.67787" lon="1.60035">
        <ele>338.8</ele>
        <time>2022-08-08T07:29:36Z</time>
      </trkpt>
      <trkpt lat="44.67783" lon="1.60037">
        <ele>338.8</ele>
        <time>2022-08-08T07:29:38Z</time>
      </trkpt>
      <trkpt lat="44.67779" lon="1.60039">
        <ele>338.9</ele>
        <time>2022-08-08T07:29:40Z</time>
      </trkpt>
      <trkpt lat="44.67776" lon="1.6004">
        <ele>338.9</ele>
        <time>2022-08-08T07:29:42Z</time>
      </trkpt>
      <trkpt lat="44.67774" lon="1.60041">
        <ele>338.9</ele>
        <time>2022-08-08T07:29:44Z</time>
      </trkpt>
      <trkpt lat="44.67773" lon="1.60042">
        <ele>338.9</ele>
        <time>2022-08-08T07:29:46Z</time>
      </trkpt>
      <trkpt lat="44.67773" lon="1.60043">
        <ele>338.9</ele>
        <time>2022-08-08T07:29:48Z</time>
      </trkpt>
      <trkpt lat="44.67773" lon="1.60043">
        <ele>338.9</ele>
        <time>2022-08-08T07:29:50Z</time>
      </trkpt>
      <trkpt lat="44.67762" lon="1.60052">
        <ele>338.9</ele>
        <time>2022-08-08T07:30:18Z</time>
      </trkpt>
      <trkpt lat="44.67757" lon="1.60053">
        <ele>339</ele>
        <time>2022-08-08T07:30:20Z</time>
      </trkpt>
      <trkpt lat="44.67751" lon="1.60053">
        <ele>339.1</ele>
        <time>2022-08-08T07:30:22Z</time>
      </trkpt>
      <trkpt lat="44.67745" lon="1.60053">
        <ele>339.3</ele>
        <time>2022-08-08T07:30:24Z</time>
      </trkpt>
      <trkpt lat="44.67739" lon="1.60053">
        <ele>339.5</ele>
        <time>2022-08-08T07:30:26Z</time>
      </trkpt>
      <trkpt lat="44.67733" lon="1.60054">
        <ele>339.7</ele>
        <time>2022-08-08T07:30:28Z</time>
      </trkpt>
      <trkpt lat="44.67727" lon="1.60055">
        <ele>339.9</ele>
        <time>2022-08-08T07:30:30Z</time>
      </trkpt>
      <trkpt lat="44.67721" lon="1.60056">
        <ele>340.2</ele>
        <time>2022-08-08T07:30:32Z</time>
      </trkpt>
      <trkpt lat="44.67714" lon="1.60057">
        <ele>340.4</ele>
        <time>2022-08-08T07:30:34Z</time>
      </trkpt>
      <trkpt lat="44.67707" lon="1.60058">
        <ele>340.7</ele>
        <time>2022-08-08T07:30:36Z</time>
      </trkpt>
      <trkpt lat="44.677" lon="1.60058">
        <ele>340.9</ele>
        <time>2022-08-08T07:30:38Z</time>
      </trkpt>
      <trkpt lat="44.67693" lon="1.60059">
        <ele>341.2</ele>
        <time>2022-08-08T07:30:40Z</time>
      </trkpt>
      <trkpt lat="44.67686" lon="1.60061">
        <ele>341.5</ele>
        <time>2022-08-08T07:30:42Z</time>
      </trkpt>
      <trkpt lat="44.6768" lon="1.60062">
        <ele>341.7</ele>
        <time>2022-08-08T07:30:44Z</time>
      </trkpt>
      <trkpt lat="44.67673" lon="1.60062">
        <ele>342</ele>
        <time>2022-08-08T07:30:46Z</time>
      </trkpt>
      <trkpt lat="44.67667" lon="1.60063">
        <ele>342.2</ele>
        <time>2022-08-08T07:30:48Z</time>
      </trkpt>
      <trkpt lat="44.6766" lon="1.60064">
        <ele>342.2</ele>
        <time>2022-08-08T07:30:50Z</time>
      </trkpt>
      <trkpt lat="44.67654" lon="1.60065">
        <ele>342.1</ele>
        <time>2022-08-08T07:30:52Z</time>
      </trkpt>
      <trkpt lat="44.67647" lon="1.60066">
        <ele>342</ele>
        <time>2022-08-08T07:30:54Z</time>
      </trkpt>
      <trkpt lat="44.67641" lon="1.60067">
        <ele>341.9</ele>
        <time>2022-08-08T07:30:56Z</time>
      </trkpt>
      <trkpt lat="44.67634" lon="1.60068">
        <ele>341.9</ele>
        <time>2022-08-08T07:30:58Z</time>
      </trkpt>
      <trkpt lat="44.67627" lon="1.60069">
        <ele>341.8</ele>
        <time>2022-08-08T07:31:00Z</time>
      </trkpt>
      <trkpt lat="44.6762" lon="1.6007">
        <ele>341.7</ele>
        <time>2022-08-08T07:31:02Z</time>
      </trkpt>
      <trkpt lat="44.67613" lon="1.60071">
        <ele>341.6</ele>
        <time>2022-08-08T07:31:04Z</time>
      </trkpt>
      <trkpt lat="44.67605" lon="1.60072">
        <ele>341.5</ele>
        <time>2022-08-08T07:31:06Z</time>
      </trkpt>
      <trkpt lat="44.67598" lon="1.60073">
        <ele>341.4</ele>
        <time>2022-08-08T07:31:08Z</time>
      </trkpt>
      <trkpt lat="44.67591" lon="1.60074">
        <ele>341.3</ele>
        <time>2022-08-08T07:31:10Z</time>
      </trkpt>
      <trkpt lat="44.67584" lon="1.60075">
        <ele>341.2</ele>
        <time>2022-08-08T07:31:12Z</time>
      </trkpt>
      <trkpt lat="44.67576" lon="1.60076">
        <ele>341.4</ele>
        <time>2022-08-08T07:31:14Z</time>
      </trkpt>
      <trkpt lat="44.67568" lon="1.60078">
        <ele>341.7</ele>
        <time>2022-08-08T07:31:16Z</time>
      </trkpt>
      <trkpt lat="44.67561" lon="1.60079">
        <ele>341.9</ele>
        <time>2022-08-08T07:31:18Z</time>
      </trkpt>
      <trkpt lat="44.67553" lon="1.60079">
        <ele>342.2</ele>
        <time>2022-08-08T07:31:20Z</time>
      </trkpt>
      <trkpt lat="44.67545" lon="1.6008">
        <ele>342.4</ele>
        <time>2022-08-08T07:31:22Z</time>
      </trkpt>
      <trkpt lat="44.67537" lon="1.60081">
        <ele>342.7</ele>
        <time>2022-08-08T07:31:24Z</time>
      </trkpt>
      <trkpt lat="44.67529" lon="1.60082">
        <ele>343</ele>
        <time>2022-08-08T07:31:26Z</time>
      </trkpt>
      <trkpt lat="44.67521" lon="1.60083">
        <ele>343.2</ele>
        <time>2022-08-08T07:31:28Z</time>
      </trkpt>
      <trkpt lat="44.67514" lon="1.60084">
        <ele>343.5</ele>
        <time>2022-08-08T07:31:30Z</time>
      </trkpt>
      <trkpt lat="44.67506" lon="1.60084">
        <ele>343.8</ele>
        <time>2022-08-08T07:31:32Z</time>
      </trkpt>
      <trkpt lat="44.67499" lon="1.60083">
        <ele>344.1</ele>
        <time>2022-08-08T07:31:34Z</time>
      </trkpt>
      <trkpt lat="44.67492" lon="1.60082">
        <ele>344.6</ele>
        <time>2022-08-08T07:31:36Z</time>
      </trkpt>
      <trkpt lat="44.67486" lon="1.60081">
        <ele>345.1</ele>
        <time>2022-08-08T07:31:38Z</time>
      </trkpt>
      <trkpt lat="44.67479" lon="1.60078">
        <ele>345.5</ele>
        <time>2022-08-08T07:31:40Z</time>
      </trkpt>
      <trkpt lat="44.67473" lon="1.60075">
        <ele>345.9</ele>
        <time>2022-08-08T07:31:42Z</time>
      </trkpt>
      <trkpt lat="44.67467" lon="1.60072">
        <ele>346.4</ele>
        <time>2022-08-08T07:31:44Z</time>
      </trkpt>
      <trkpt lat="44.6746" lon="1.60071">
        <ele>346.8</ele>
        <time>2022-08-08T07:31:46Z</time>
      </trkpt>
      <trkpt lat="44.67455" lon="1.60071">
        <ele>347.2</ele>
        <time>2022-08-08T07:31:48Z</time>
      </trkpt>
      <trkpt lat="44.67449" lon="1.60071">
        <ele>347.5</ele>
        <time>2022-08-08T07:31:50Z</time>
      </trkpt>
      <trkpt lat="44.67444" lon="1.60071">
        <ele>347.9</ele>
        <time>2022-08-08T07:31:52Z</time>
      </trkpt>
      <trkpt lat="44.67439" lon="1.6007">
        <ele>348.2</ele>
        <time>2022-08-08T07:31:54Z</time>
      </trkpt>
      <trkpt lat="44.67436" lon="1.6007">
        <ele>348.4</ele>
        <time>2022-08-08T07:31:56Z</time>
      </trkpt>
      <trkpt lat="44.67433" lon="1.60069">
        <ele>348.6</ele>
        <time>2022-08-08T07:31:58Z</time>
      </trkpt>
      <trkpt lat="44.6743" lon="1.60068">
        <ele>348.8</ele>
        <time>2022-08-08T07:32:00Z</time>
      </trkpt>
      <trkpt lat="44.67427" lon="1.60067">
        <ele>349</ele>
        <time>2022-08-08T07:32:02Z</time>
      </trkpt>
      <trkpt lat="44.67423" lon="1.60066">
        <ele>349.2</ele>
        <time>2022-08-08T07:32:04Z</time>
      </trkpt>
      <trkpt lat="44.6742" lon="1.60064">
        <ele>349.3</ele>
        <time>2022-08-08T07:32:06Z</time>
      </trkpt>
      <trkpt lat="44.67418" lon="1.60062">
        <ele>349.4</ele>
        <time>2022-08-08T07:32:08Z</time>
      </trkpt>
      <trkpt lat="44.67417" lon="1.60061">
        <ele>349.5</ele>
        <time>2022-08-08T07:32:10Z</time>
      </trkpt>
      <trkpt lat="44.67417" lon="1.60061">
        <ele>349.4</ele>
        <time>2022-08-08T07:32:12Z</time>
      </trkpt>
      <trkpt lat="44.67417" lon="1.60061">
        <ele>349.4</ele>
        <time>2022-08-08T07:32:14Z</time>
      </trkpt>
      <trkpt lat="44.67417" lon="1.60061">
        <ele>349.4</ele>
        <time>2022-08-08T07:32:16Z</time>
      </trkpt>
      <trkpt lat="44.67417" lon="1.60061">
        <ele>349.4</ele>
        <time>2022-08-08T07:32:18Z</time>
      </trkpt>
      <trkpt lat="44.67404" lon="1.60065">
        <ele>350.4</ele>
        <time>2022-08-08T07:33:14Z</time>
      </trkpt>
      <trkpt lat="44.674" lon="1.60063">
        <ele>350.6</ele>
        <time>2022-08-08T07:33:16Z</time>
      </trkpt>
      <trkpt lat="44.67397" lon="1.60063">
        <ele>350.8</ele>
        <time>2022-08-08T07:33:18Z</time>
      </trkpt>
      <trkpt lat="44.67393" lon="1.60063">
        <ele>351.1</ele>
        <time>2022-08-08T07:33:20Z</time>
      </trkpt>
      <trkpt lat="44.67389" lon="1.60063">
        <ele>351.3</ele>
        <time>2022-08-08T07:33:22Z</time>
      </trkpt>
      <trkpt lat="44.67386" lon="1.60063">
        <ele>351.6</ele>
        <time>2022-08-08T07:33:24Z</time>
      </trkpt>
      <trkpt lat="44.67382" lon="1.60063">
        <ele>351.8</ele>
        <time>2022-08-08T07:33:26Z</time>
      </trkpt>
      <trkpt lat="44.67378" lon="1.60063">
        <ele>352.1</ele>
        <time>2022-08-08T07:33:28Z</time>
      </trkpt>
      <trkpt lat="44.67374" lon="1.60062">
        <ele>352.3</ele>
        <time>2022-08-08T07:33:30Z</time>
      </trkpt>
      <trkpt lat="44.67371" lon="1.60062">
        <ele>352.5</ele>
        <time>2022-08-08T07:33:32Z</time>
      </trkpt>
      <trkpt lat="44.67367" lon="1.60063">
        <ele>352.8</ele>
        <time>2022-08-08T07:33:34Z</time>
      </trkpt>
      <trkpt lat="44.67363" lon="1.60063">
        <ele>353.1</ele>
        <time>2022-08-08T07:33:36Z</time>
      </trkpt>
      <trkpt lat="44.67359" lon="1.60064">
        <ele>353.3</ele>
        <time>2022-08-08T07:33:38Z</time>
      </trkpt>
      <trkpt lat="44.67356" lon="1.60063">
        <ele>353.5</ele>
        <time>2022-08-08T07:33:40Z</time>
      </trkpt>
      <trkpt lat="44.67352" lon="1.60063">
        <ele>353.8</ele>
        <time>2022-08-08T07:33:42Z</time>
      </trkpt>
      <trkpt lat="44.67349" lon="1.60063">
        <ele>354</ele>
        <time>2022-08-08T07:33:44Z</time>
      </trkpt>
      <trkpt lat="44.67345" lon="1.60063">
        <ele>354.2</ele>
        <time>2022-08-08T07:33:46Z</time>
      </trkpt>
      <trkpt lat="44.67342" lon="1.60063">
        <ele>354.5</ele>
        <time>2022-08-08T07:33:48Z</time>
      </trkpt>
      <trkpt lat="44.67338" lon="1.60063">
        <ele>354.7</ele>
        <time>2022-08-08T07:33:50Z</time>
      </trkpt>
      <trkpt lat="44.67335" lon="1.60062">
        <ele>354.9</ele>
        <time>2022-08-08T07:33:52Z</time>
      </trkpt>
      <trkpt lat="44.67331" lon="1.6006">
        <ele>355</ele>
        <time>2022-08-08T07:33:54Z</time>
      </trkpt>
      <trkpt lat="44.67328" lon="1.60061">
        <ele>355.1</ele>
        <time>2022-08-08T07:33:56Z</time>
      </trkpt>
      <trkpt lat="44.67324" lon="1.6006">
        <ele>355.2</ele>
        <time>2022-08-08T07:33:58Z</time>
      </trkpt>
      <trkpt lat="44.67321" lon="1.60061">
        <ele>355.4</ele>
        <time>2022-08-08T07:34:00Z</time>
      </trkpt>
      <trkpt lat="44.67317" lon="1.6006">
        <ele>355.5</ele>
        <time>2022-08-08T07:34:02Z</time>
      </trkpt>
      <trkpt lat="44.67314" lon="1.6006">
        <ele>355.6</ele>
        <time>2022-08-08T07:34:04Z</time>
      </trkpt>
      <trkpt lat="44.67311" lon="1.60061">
        <ele>355.7</ele>
        <time>2022-08-08T07:34:06Z</time>
      </trkpt>
      <trkpt lat="44.67307" lon="1.6006">
        <ele>355.8</ele>
        <time>2022-08-08T07:34:08Z</time>
      </trkpt>
      <trkpt lat="44.67304" lon="1.60059">
        <ele>355.9</ele>
        <time>2022-08-08T07:34:10Z</time>
      </trkpt>
      <trkpt lat="44.673" lon="1.6006">
        <ele>356.1</ele>
        <time>2022-08-08T07:34:12Z</time>
      </trkpt>
      <trkpt lat="44.67296" lon="1.60061">
        <ele>356.3</ele>
        <time>2022-08-08T07:34:14Z</time>
      </trkpt>
      <trkpt lat="44.67292" lon="1.6006">
        <ele>356.3</ele>
        <time>2022-08-08T07:34:16Z</time>
      </trkpt>
      <trkpt lat="44.67289" lon="1.6006">
        <ele>356.5</ele>
        <time>2022-08-08T07:34:18Z</time>
      </trkpt>
      <trkpt lat="44.67285" lon="1.6006">
        <ele>356.6</ele>
        <time>2022-08-08T07:34:20Z</time>
      </trkpt>
      <trkpt lat="44.67281" lon="1.60059">
        <ele>356.7</ele>
        <time>2022-08-08T07:34:22Z</time>
      </trkpt>
      <trkpt lat="44.67277" lon="1.60059">
        <ele>356.9</ele>
        <time>2022-08-08T07:34:24Z</time>
      </trkpt>
      <trkpt lat="44.67273" lon="1.60059">
        <ele>357</ele>
        <time>2022-08-08T07:34:26Z</time>
      </trkpt>
      <trkpt lat="44.6727" lon="1.60059">
        <ele>357.1</ele>
        <time>2022-08-08T07:34:28Z</time>
      </trkpt>
      <trkpt lat="44.67266" lon="1.60059">
        <ele>357.3</ele>
        <time>2022-08-08T07:34:30Z</time>
      </trkpt>
      <trkpt lat="44.67262" lon="1.60059">
        <ele>357.4</ele>
        <time>2022-08-08T07:34:32Z</time>
      </trkpt>
      <trkpt lat="44.67258" lon="1.60059">
        <ele>357.5</ele>
        <time>2022-08-08T07:34:34Z</time>
      </trkpt>
      <trkpt lat="44.67254" lon="1.60059">
        <ele>357.7</ele>
        <time>2022-08-08T07:34:36Z</time>
      </trkpt>
      <trkpt lat="44.6725" lon="1.60058">
        <ele>357.8</ele>
        <time>2022-08-08T07:34:38Z</time>
      </trkpt>
      <trkpt lat="44.67246" lon="1.60058">
        <ele>357.7</ele>
        <time>2022-08-08T07:34:40Z</time>
      </trkpt>
      <trkpt lat="44.67242" lon="1.60057">
        <ele>357.6</ele>
        <time>2022-08-08T07:34:42Z</time>
      </trkpt>
      <trkpt lat="44.67238" lon="1.60057">
        <ele>357.6</ele>
        <time>2022-08-08T07:34:44Z</time>
      </trkpt>
      <trkpt lat="44.67233" lon="1.60059">
        <ele>357.6</ele>
        <time>2022-08-08T07:34:46Z</time>
      </trkpt>
      <trkpt lat="44.67229" lon="1.6006">
        <ele>357.6</ele>
        <time>2022-08-08T07:34:48Z</time>
      </trkpt>
      <trkpt lat="44.67224" lon="1.60061">
        <ele>357.6</ele>
        <time>2022-08-08T07:34:50Z</time>
      </trkpt>
      <trkpt lat="44.6722" lon="1.60062">
        <ele>357.5</ele>
        <time>2022-08-08T07:34:52Z</time>
      </trkpt>
      <trkpt lat="44.67215" lon="1.60063">
        <ele>357.5</ele>
        <time>2022-08-08T07:34:54Z</time>
      </trkpt>
      <trkpt lat="44.67208" lon="1.60066">
        <ele>357.5</ele>
        <time>2022-08-08T07:34:56Z</time>
      </trkpt>
      <trkpt lat="44.67201" lon="1.60067">
        <ele>357.4</ele>
        <time>2022-08-08T07:34:58Z</time>
      </trkpt>
      <trkpt lat="44.67192" lon="1.6007">
        <ele>357.3</ele>
        <time>2022-08-08T07:35:00Z</time>
      </trkpt>
      <trkpt lat="44.67182" lon="1.60071">
        <ele>357.1</ele>
        <time>2022-08-08T07:35:02Z</time>
      </trkpt>
      <trkpt lat="44.67172" lon="1.60073">
        <ele>357</ele>
        <time>2022-08-08T07:35:04Z</time>
      </trkpt>
      <trkpt lat="44.6716" lon="1.60075">
        <ele>357.1</ele>
        <time>2022-08-08T07:35:06Z</time>
      </trkpt>
      <trkpt lat="44.67145" lon="1.60079">
        <ele>357.5</ele>
        <time>2022-08-08T07:35:08Z</time>
      </trkpt>
      <trkpt lat="44.6713" lon="1.60083">
        <ele>357.9</ele>
        <time>2022-08-08T07:35:10Z</time>
      </trkpt>
      <trkpt lat="44.67117" lon="1.60086">
        <ele>358.1</ele>
        <time>2022-08-08T07:35:12Z</time>
      </trkpt>
      <trkpt lat="44.67104" lon="1.6009">
        <ele>358.3</ele>
        <time>2022-08-08T07:35:14Z</time>
      </trkpt>
      <trkpt lat="44.67093" lon="1.60094">
        <ele>358.4</ele>
        <time>2022-08-08T07:35:16Z</time>
      </trkpt>
      <trkpt lat="44.67083" lon="1.60098">
        <ele>358.5</ele>
        <time>2022-08-08T07:35:18Z</time>
      </trkpt>
      <trkpt lat="44.67074" lon="1.601">
        <ele>358.7</ele>
        <time>2022-08-08T07:35:20Z</time>
      </trkpt>
      <trkpt lat="44.67067" lon="1.60102">
        <ele>359</ele>
        <time>2022-08-08T07:35:22Z</time>
      </trkpt>
      <trkpt lat="44.67062" lon="1.60102">
        <ele>359.2</ele>
        <time>2022-08-08T07:35:24Z</time>
      </trkpt>
      <trkpt lat="44.67057" lon="1.60101">
        <ele>359.4</ele>
        <time>2022-08-08T07:35:26Z</time>
      </trkpt>
      <trkpt lat="44.67051" lon="1.60102">
        <ele>359.6</ele>
        <time>2022-08-08T07:35:28Z</time>
      </trkpt>
      <trkpt lat="44.67046" lon="1.60102">
        <ele>359.8</ele>
        <time>2022-08-08T07:35:30Z</time>
      </trkpt>
      <trkpt lat="44.67041" lon="1.60102">
        <ele>360</ele>
        <time>2022-08-08T07:35:32Z</time>
      </trkpt>
      <trkpt lat="44.67036" lon="1.60101">
        <ele>360.2</ele>
        <time>2022-08-08T07:35:34Z</time>
      </trkpt>
      <trkpt lat="44.6703" lon="1.60101">
        <ele>360.4</ele>
        <time>2022-08-08T07:35:36Z</time>
      </trkpt>
      <trkpt lat="44.67026" lon="1.601">
        <ele>360.6</ele>
        <time>2022-08-08T07:35:38Z</time>
      </trkpt>
      <trkpt lat="44.67021" lon="1.601">
        <ele>360.8</ele>
        <time>2022-08-08T07:35:40Z</time>
      </trkpt>
      <trkpt lat="44.67016" lon="1.60099">
        <ele>361</ele>
        <time>2022-08-08T07:35:42Z</time>
      </trkpt>
      <trkpt lat="44.67012" lon="1.60099">
        <ele>361.2</ele>
        <time>2022-08-08T07:35:44Z</time>
      </trkpt>
      <trkpt lat="44.67008" lon="1.601">
        <ele>361.3</ele>
        <time>2022-08-08T07:35:46Z</time>
      </trkpt>
      <trkpt lat="44.67005" lon="1.601">
        <ele>361.4</ele>
        <time>2022-08-08T07:35:48Z</time>
      </trkpt>
      <trkpt lat="44.67" lon="1.60101">
        <ele>361.6</ele>
        <time>2022-08-08T07:35:50Z</time>
      </trkpt>
      <trkpt lat="44.66996" lon="1.60101">
        <ele>361.8</ele>
        <time>2022-08-08T07:35:52Z</time>
      </trkpt>
      <trkpt lat="44.66993" lon="1.60102">
        <ele>361.9</ele>
        <time>2022-08-08T07:35:54Z</time>
      </trkpt>
      <trkpt lat="44.66989" lon="1.60104">
        <ele>362</ele>
        <time>2022-08-08T07:35:56Z</time>
      </trkpt>
      <trkpt lat="44.66986" lon="1.60104">
        <ele>362.2</ele>
        <time>2022-08-08T07:35:58Z</time>
      </trkpt>
      <trkpt lat="44.66984" lon="1.60103">
        <ele>362.3</ele>
        <time>2022-08-08T07:36:00Z</time>
      </trkpt>
      <trkpt lat="44.66981" lon="1.60104">
        <ele>362.4</ele>
        <time>2022-08-08T07:36:02Z</time>
      </trkpt>
      <trkpt lat="44.66979" lon="1.60105">
        <ele>362.5</ele>
        <time>2022-08-08T07:36:04Z</time>
      </trkpt>
      <trkpt lat="44.66978" lon="1.60107">
        <ele>362.4</ele>
        <time>2022-08-08T07:36:06Z</time>
      </trkpt>
      <trkpt lat="44.66979" lon="1.60107">
        <ele>362.4</ele>
        <time>2022-08-08T07:36:08Z</time>
      </trkpt>
      <trkpt lat="44.66978" lon="1.60107">
        <ele>362.4</ele>
        <time>2022-08-08T07:36:10Z</time>
      </trkpt>
      <trkpt lat="44.66978" lon="1.60108">
        <ele>362.4</ele>
        <time>2022-08-08T07:36:12Z</time>
      </trkpt>
      <trkpt lat="44.66978" lon="1.60108">
        <ele>362.4</ele>
        <time>2022-08-08T07:36:14Z</time>
      </trkpt>
      <trkpt lat="44.6697" lon="1.60103">
        <ele>363</ele>
        <time>2022-08-08T07:57:50Z</time>
      </trkpt>
      <trkpt lat="44.66967" lon="1.60102">
        <ele>363.1</ele>
        <time>2022-08-08T07:57:52Z</time>
      </trkpt>
      <trkpt lat="44.66965" lon="1.60103">
        <ele>363.2</ele>
        <time>2022-08-08T07:57:54Z</time>
      </trkpt>
      <trkpt lat="44.66962" lon="1.60103">
        <ele>363.4</ele>
        <time>2022-08-08T07:57:56Z</time>
      </trkpt>
      <trkpt lat="44.6696" lon="1.60104">
        <ele>363.4</ele>
        <time>2022-08-08T07:57:58Z</time>
      </trkpt>
      <trkpt lat="44.66957" lon="1.60104">
        <ele>363.6</ele>
        <time>2022-08-08T07:58:00Z</time>
      </trkpt>
      <trkpt lat="44.66954" lon="1.60105">
        <ele>363.7</ele>
        <time>2022-08-08T07:58:02Z</time>
      </trkpt>
      <trkpt lat="44.66951" lon="1.60105">
        <ele>363.8</ele>
        <time>2022-08-08T07:58:04Z</time>
      </trkpt>
      <trkpt lat="44.66948" lon="1.60105">
        <ele>363.9</ele>
        <time>2022-08-08T07:58:06Z</time>
      </trkpt>
      <trkpt lat="44.66945" lon="1.60105">
        <ele>364.1</ele>
        <time>2022-08-08T07:58:08Z</time>
      </trkpt>
      <trkpt lat="44.66942" lon="1.60106">
        <ele>364.2</ele>
        <time>2022-08-08T07:58:10Z</time>
      </trkpt>
      <trkpt lat="44.66939" lon="1.60106">
        <ele>364.3</ele>
        <time>2022-08-08T07:58:12Z</time>
      </trkpt>
      <trkpt lat="44.66936" lon="1.60106">
        <ele>364.5</ele>
        <time>2022-08-08T07:58:14Z</time>
      </trkpt>
      <trkpt lat="44.66933" lon="1.60106">
        <ele>364.6</ele>
        <time>2022-08-08T07:58:16Z</time>
      </trkpt>
      <trkpt lat="44.66931" lon="1.60105">
        <ele>364.7</ele>
        <time>2022-08-08T07:58:18Z</time>
      </trkpt>
      <trkpt lat="44.66929" lon="1.60107">
        <ele>364.7</ele>
        <time>2022-08-08T07:58:20Z</time>
      </trkpt>
      <trkpt lat="44.66926" lon="1.60107">
        <ele>364.9</ele>
        <time>2022-08-08T07:58:22Z</time>
      </trkpt>
      <trkpt lat="44.66923" lon="1.60107">
        <ele>365</ele>
        <time>2022-08-08T07:58:24Z</time>
      </trkpt>
      <trkpt lat="44.6692" lon="1.60106">
        <ele>365.2</ele>
        <time>2022-08-08T07:58:26Z</time>
      </trkpt>
      <trkpt lat="44.66917" lon="1.60106">
        <ele>365.4</ele>
        <time>2022-08-08T07:58:28Z</time>
      </trkpt>
      <trkpt lat="44.66914" lon="1.60106">
        <ele>365.5</ele>
        <time>2022-08-08T07:58:30Z</time>
      </trkpt>
      <trkpt lat="44.66911" lon="1.60106">
        <ele>365.7</ele>
        <time>2022-08-08T07:58:32Z</time>
      </trkpt>
      <trkpt lat="44.66908" lon="1.60107">
        <ele>365.8</ele>
        <time>2022-08-08T07:58:34Z</time>
      </trkpt>
      <trkpt lat="44.66905" lon="1.60107">
        <ele>366.1</ele>
        <time>2022-08-08T07:58:36Z</time>
      </trkpt>
      <trkpt lat="44.66901" lon="1.60106">
        <ele>366.3</ele>
        <time>2022-08-08T07:58:38Z</time>
      </trkpt>
      <trkpt lat="44.66898" lon="1.60106">
        <ele>366.6</ele>
        <time>2022-08-08T07:58:40Z</time>
      </trkpt>
      <trkpt lat="44.66894" lon="1.60106">
        <ele>366.9</ele>
        <time>2022-08-08T07:58:42Z</time>
      </trkpt>
      <trkpt lat="44.66889" lon="1.60106">
        <ele>367.1</ele>
        <time>2022-08-08T07:58:44Z</time>
      </trkpt>
      <trkpt lat="44.66886" lon="1.60106">
        <ele>367.3</ele>
        <time>2022-08-08T07:58:46Z</time>
      </trkpt>
      <trkpt lat="44.66882" lon="1.60105">
        <ele>367.6</ele>
        <time>2022-08-08T07:58:48Z</time>
      </trkpt>
      <trkpt lat="44.66878" lon="1.60105">
        <ele>367.9</ele>
        <time>2022-08-08T07:58:50Z</time>
      </trkpt>
      <trkpt lat="44.66873" lon="1.60106">
        <ele>368.1</ele>
        <time>2022-08-08T07:58:52Z</time>
      </trkpt>
      <trkpt lat="44.66868" lon="1.60106">
        <ele>368.4</ele>
        <time>2022-08-08T07:58:54Z</time>
      </trkpt>
      <trkpt lat="44.66864" lon="1.60106">
        <ele>368.7</ele>
        <time>2022-08-08T07:58:56Z</time>
      </trkpt>
      <trkpt lat="44.6686" lon="1.60106">
        <ele>368.9</ele>
        <time>2022-08-08T07:58:58Z</time>
      </trkpt>
      <trkpt lat="44.66856" lon="1.60105">
        <ele>369.3</ele>
        <time>2022-08-08T07:59:00Z</time>
      </trkpt>
      <trkpt lat="44.66853" lon="1.60103">
        <ele>369.6</ele>
        <time>2022-08-08T07:59:02Z</time>
      </trkpt>
      <trkpt lat="44.66849" lon="1.60103">
        <ele>369.9</ele>
        <time>2022-08-08T07:59:04Z</time>
      </trkpt>
      <trkpt lat="44.66845" lon="1.60103">
        <ele>370.1</ele>
        <time>2022-08-08T07:59:06Z</time>
      </trkpt>
      <trkpt lat="44.66841" lon="1.60102">
        <ele>370.4</ele>
        <time>2022-08-08T07:59:08Z</time>
      </trkpt>
      <trkpt lat="44.66837" lon="1.60103">
        <ele>370.6</ele>
        <time>2022-08-08T07:59:10Z</time>
      </trkpt>
      <trkpt lat="44.66833" lon="1.60104">
        <ele>370.8</ele>
        <time>2022-08-08T07:59:12Z</time>
      </trkpt>
      <trkpt lat="44.66829" lon="1.60104">
        <ele>371</ele>
        <time>2022-08-08T07:59:14Z</time>
      </trkpt>
      <trkpt lat="44.66826" lon="1.60103">
        <ele>371.2</ele>
        <time>2022-08-08T07:59:16Z</time>
      </trkpt>
      <trkpt lat="44.66822" lon="1.60104">
        <ele>371.3</ele>
        <time>2022-08-08T07:59:18Z</time>
      </trkpt>
      <trkpt lat="44.66819" lon="1.60103">
        <ele>371.6</ele>
        <time>2022-08-08T07:59:20Z</time>
      </trkpt>
      <trkpt lat="44.66815" lon="1.60102">
        <ele>371.8</ele>
        <time>2022-08-08T07:59:22Z</time>
      </trkpt>
      <trkpt lat="44.66812" lon="1.60102">
        <ele>372</ele>
        <time>2022-08-08T07:59:24Z</time>
      </trkpt>
      <trkpt lat="44.66808" lon="1.60102">
        <ele>372.2</ele>
        <time>2022-08-08T07:59:26Z</time>
      </trkpt>
      <trkpt lat="44.66803" lon="1.60103">
        <ele>372.4</ele>
        <time>2022-08-08T07:59:28Z</time>
      </trkpt>
      <trkpt lat="44.66798" lon="1.60102">
        <ele>372.7</ele>
        <time>2022-08-08T07:59:30Z</time>
      </trkpt>
      <trkpt lat="44.66793" lon="1.60104">
        <ele>372.9</ele>
        <time>2022-08-08T07:59:32Z</time>
      </trkpt>
      <trkpt lat="44.66787" lon="1.60106">
        <ele>373</ele>
        <time>2022-08-08T07:59:34Z</time>
      </trkpt>
      <trkpt lat="44.66781" lon="1.60106">
        <ele>373.3</ele>
        <time>2022-08-08T07:59:36Z</time>
      </trkpt>
      <trkpt lat="44.66776" lon="1.60109">
        <ele>373.4</ele>
        <time>2022-08-08T07:59:38Z</time>
      </trkpt>
      <trkpt lat="44.66771" lon="1.60111">
        <ele>373.6</ele>
        <time>2022-08-08T07:59:40Z</time>
      </trkpt>
      <trkpt lat="44.66766" lon="1.60113">
        <ele>373.7</ele>
        <time>2022-08-08T07:59:42Z</time>
      </trkpt>
      <trkpt lat="44.66761" lon="1.60115">
        <ele>373.9</ele>
        <time>2022-08-08T07:59:44Z</time>
      </trkpt>
      <trkpt lat="44.66758" lon="1.60116">
        <ele>374</ele>
        <time>2022-08-08T07:59:46Z</time>
      </trkpt>
      <trkpt lat="44.66754" lon="1.60117">
        <ele>374.2</ele>
        <time>2022-08-08T07:59:48Z</time>
      </trkpt>
      <trkpt lat="44.66751" lon="1.60119">
        <ele>374.2</ele>
        <time>2022-08-08T07:59:50Z</time>
      </trkpt>
      <trkpt lat="44.66748" lon="1.60121">
        <ele>374.3</ele>
        <time>2022-08-08T07:59:52Z</time>
      </trkpt>
      <trkpt lat="44.66745" lon="1.60121">
        <ele>374.4</ele>
        <time>2022-08-08T07:59:54Z</time>
      </trkpt>
      <trkpt lat="44.66742" lon="1.60122">
        <ele>374.5</ele>
        <time>2022-08-08T07:59:56Z</time>
      </trkpt>
      <trkpt lat="44.66738" lon="1.60123">
        <ele>374.6</ele>
        <time>2022-08-08T07:59:58Z</time>
      </trkpt>
      <trkpt lat="44.66735" lon="1.60123">
        <ele>374.7</ele>
        <time>2022-08-08T08:00:00Z</time>
      </trkpt>
      <trkpt lat="44.66732" lon="1.60125">
        <ele>374.8</ele>
        <time>2022-08-08T08:00:02Z</time>
      </trkpt>
      <trkpt lat="44.66729" lon="1.60125">
        <ele>374.9</ele>
        <time>2022-08-08T08:00:04Z</time>
      </trkpt>
      <trkpt lat="44.66726" lon="1.60127">
        <ele>375</ele>
        <time>2022-08-08T08:00:06Z</time>
      </trkpt>
      <trkpt lat="44.66723" lon="1.60127">
        <ele>375.1</ele>
        <time>2022-08-08T08:00:08Z</time>
      </trkpt>
      <trkpt lat="44.6672" lon="1.60128">
        <ele>375.1</ele>
        <time>2022-08-08T08:00:10Z</time>
      </trkpt>
      <trkpt lat="44.66716" lon="1.60128">
        <ele>375.3</ele>
        <time>2022-08-08T08:00:12Z</time>
      </trkpt>
      <trkpt lat="44.66713" lon="1.60128">
        <ele>375.4</ele>
        <time>2022-08-08T08:00:14Z</time>
      </trkpt>
      <trkpt lat="44.6671" lon="1.60129">
        <ele>375.5</ele>
        <time>2022-08-08T08:00:16Z</time>
      </trkpt>
      <trkpt lat="44.66706" lon="1.6013">
        <ele>375.6</ele>
        <time>2022-08-08T08:00:18Z</time>
      </trkpt>
      <trkpt lat="44.66702" lon="1.6013">
        <ele>375.8</ele>
        <time>2022-08-08T08:00:20Z</time>
      </trkpt>
      <trkpt lat="44.66698" lon="1.6013">
        <ele>376</ele>
        <time>2022-08-08T08:00:22Z</time>
      </trkpt>
      <trkpt lat="44.66695" lon="1.60131">
        <ele>376.1</ele>
        <time>2022-08-08T08:00:24Z</time>
      </trkpt>
      <trkpt lat="44.6669" lon="1.60132">
        <ele>376.2</ele>
        <time>2022-08-08T08:00:26Z</time>
      </trkpt>
      <trkpt lat="44.66686" lon="1.60132">
        <ele>376.4</ele>
        <time>2022-08-08T08:00:28Z</time>
      </trkpt>
      <trkpt lat="44.66681" lon="1.60133">
        <ele>376.6</ele>
        <time>2022-08-08T08:00:30Z</time>
      </trkpt>
      <trkpt lat="44.66676" lon="1.60134">
        <ele>376.8</ele>
        <time>2022-08-08T08:00:32Z</time>
      </trkpt>
      <trkpt lat="44.66671" lon="1.60134">
        <ele>377</ele>
        <time>2022-08-08T08:00:34Z</time>
      </trkpt>
      <trkpt lat="44.66666" lon="1.60135">
        <ele>377.1</ele>
        <time>2022-08-08T08:00:36Z</time>
      </trkpt>
      <trkpt lat="44.66662" lon="1.60134">
        <ele>377.2</ele>
        <time>2022-08-08T08:00:38Z</time>
      </trkpt>
      <trkpt lat="44.66657" lon="1.60135">
        <ele>377.1</ele>
        <time>2022-08-08T08:00:40Z</time>
      </trkpt>
      <trkpt lat="44.66651" lon="1.60135">
        <ele>377.1</ele>
        <time>2022-08-08T08:00:42Z</time>
      </trkpt>
      <trkpt lat="44.66646" lon="1.60133">
        <ele>377.1</ele>
        <time>2022-08-08T08:00:44Z</time>
      </trkpt>
      <trkpt lat="44.66641" lon="1.60135">
        <ele>377</ele>
        <time>2022-08-08T08:00:46Z</time>
      </trkpt>
      <trkpt lat="44.66635" lon="1.60133">
        <ele>377.1</ele>
        <time>2022-08-08T08:00:48Z</time>
      </trkpt>
      <trkpt lat="44.6663" lon="1.60133">
        <ele>377</ele>
        <time>2022-08-08T08:00:50Z</time>
      </trkpt>
      <trkpt lat="44.66625" lon="1.60132">
        <ele>377.1</ele>
        <time>2022-08-08T08:00:52Z</time>
      </trkpt>
      <trkpt lat="44.66621" lon="1.60132">
        <ele>377.1</ele>
        <time>2022-08-08T08:00:54Z</time>
      </trkpt>
      <trkpt lat="44.66617" lon="1.60132">
        <ele>377.1</ele>
        <time>2022-08-08T08:00:56Z</time>
      </trkpt>
      <trkpt lat="44.66612" lon="1.60131">
        <ele>377.1</ele>
        <time>2022-08-08T08:00:58Z</time>
      </trkpt>
      <trkpt lat="44.66605" lon="1.6013">
        <ele>377.1</ele>
        <time>2022-08-08T08:01:00Z</time>
      </trkpt>
      <trkpt lat="44.66597" lon="1.6013">
        <ele>377.1</ele>
        <time>2022-08-08T08:01:02Z</time>
      </trkpt>
      <trkpt lat="44.66588" lon="1.60131">
        <ele>377</ele>
        <time>2022-08-08T08:01:04Z</time>
      </trkpt>
      <trkpt lat="44.66577" lon="1.60131">
        <ele>377.2</ele>
        <time>2022-08-08T08:01:06Z</time>
      </trkpt>
      <trkpt lat="44.66567" lon="1.60132">
        <ele>377.3</ele>
        <time>2022-08-08T08:01:08Z</time>
      </trkpt>
      <trkpt lat="44.66556" lon="1.60133">
        <ele>377.6</ele>
        <time>2022-08-08T08:01:10Z</time>
      </trkpt>
      <trkpt lat="44.66547" lon="1.60134">
        <ele>377.7</ele>
        <time>2022-08-08T08:01:12Z</time>
      </trkpt>
      <trkpt lat="44.66538" lon="1.60136">
        <ele>377.8</ele>
        <time>2022-08-08T08:01:14Z</time>
      </trkpt>
      <trkpt lat="44.6653" lon="1.60138">
        <ele>377.7</ele>
        <time>2022-08-08T08:01:16Z</time>
      </trkpt>
      <trkpt lat="44.66524" lon="1.60139">
        <ele>377.8</ele>
        <time>2022-08-08T08:01:18Z</time>
      </trkpt>
      <trkpt lat="44.66518" lon="1.60141">
        <ele>377.7</ele>
        <time>2022-08-08T08:01:20Z</time>
      </trkpt>
      <trkpt lat="44.66513" lon="1.60142">
        <ele>377.6</ele>
        <time>2022-08-08T08:01:22Z</time>
      </trkpt>
      <trkpt lat="44.66508" lon="1.60144">
        <ele>377.5</ele>
        <time>2022-08-08T08:01:24Z</time>
      </trkpt>
      <trkpt lat="44.66504" lon="1.60146">
        <ele>377.3</ele>
        <time>2022-08-08T08:01:26Z</time>
      </trkpt>
      <trkpt lat="44.665" lon="1.60148">
        <ele>377.3</ele>
        <time>2022-08-08T08:01:28Z</time>
      </trkpt>
      <trkpt lat="44.66496" lon="1.60149">
        <ele>377.5</ele>
        <time>2022-08-08T08:01:30Z</time>
      </trkpt>
      <trkpt lat="44.66492" lon="1.60151">
        <ele>377.6</ele>
        <time>2022-08-08T08:01:32Z</time>
      </trkpt>
      <trkpt lat="44.66487" lon="1.60153">
        <ele>377.7</ele>
        <time>2022-08-08T08:01:34Z</time>
      </trkpt>
      <trkpt lat="44.66482" lon="1.60155">
        <ele>377.9</ele>
        <time>2022-08-08T08:01:36Z</time>
      </trkpt>
      <trkpt lat="44.66478" lon="1.60155">
        <ele>378.2</ele>
        <time>2022-08-08T08:01:38Z</time>
      </trkpt>
      <trkpt lat="44.66473" lon="1.60157">
        <ele>378.4</ele>
        <time>2022-08-08T08:01:40Z</time>
      </trkpt>
      <trkpt lat="44.66469" lon="1.60159">
        <ele>378.5</ele>
        <time>2022-08-08T08:01:42Z</time>
      </trkpt>
      <trkpt lat="44.66464" lon="1.6016">
        <ele>378.9</ele>
        <time>2022-08-08T08:01:44Z</time>
      </trkpt>
      <trkpt lat="44.66459" lon="1.6016">
        <ele>379.2</ele>
        <time>2022-08-08T08:01:46Z</time>
      </trkpt>
      <trkpt lat="44.66455" lon="1.60161">
        <ele>379.4</ele>
        <time>2022-08-08T08:01:48Z</time>
      </trkpt>
      <trkpt lat="44.6645" lon="1.60162">
        <ele>379.8</ele>
        <time>2022-08-08T08:01:50Z</time>
      </trkpt>
      <trkpt lat="44.66444" lon="1.60162">
        <ele>380.2</ele>
        <time>2022-08-08T08:01:52Z</time>
      </trkpt>
      <trkpt lat="44.66439" lon="1.60163">
        <ele>380.6</ele>
        <time>2022-08-08T08:01:54Z</time>
      </trkpt>
      <trkpt lat="44.66432" lon="1.60164">
        <ele>381</ele>
        <time>2022-08-08T08:01:56Z</time>
      </trkpt>
      <trkpt lat="44.66426" lon="1.60165">
        <ele>381.4</ele>
        <time>2022-08-08T08:01:58Z</time>
      </trkpt>
      <trkpt lat="44.66418" lon="1.60167">
        <ele>381.8</ele>
        <time>2022-08-08T08:02:00Z</time>
      </trkpt>
      <trkpt lat="44.66411" lon="1.60168">
        <ele>382.3</ele>
        <time>2022-08-08T08:02:02Z</time>
      </trkpt>
      <trkpt lat="44.66404" lon="1.6017">
        <ele>382.7</ele>
        <time>2022-08-08T08:02:04Z</time>
      </trkpt>
      <trkpt lat="44.66397" lon="1.60173">
        <ele>382.9</ele>
        <time>2022-08-08T08:02:06Z</time>
      </trkpt>
      <trkpt lat="44.6639" lon="1.60175">
        <ele>383.3</ele>
        <time>2022-08-08T08:02:08Z</time>
      </trkpt>
      <trkpt lat="44.66387" lon="1.60175">
        <ele>383.7</ele>
        <time>2022-08-08T08:02:10Z</time>
      </trkpt>
      <trkpt lat="44.6638" lon="1.60176">
        <ele>384.1</ele>
        <time>2022-08-08T08:02:12Z</time>
      </trkpt>
      <trkpt lat="44.66375" lon="1.60178">
        <ele>384.3</ele>
        <time>2022-08-08T08:02:14Z</time>
      </trkpt>
      <trkpt lat="44.6637" lon="1.60179">
        <ele>384.7</ele>
        <time>2022-08-08T08:02:16Z</time>
      </trkpt>
      <trkpt lat="44.66365" lon="1.60178">
        <ele>385.2</ele>
        <time>2022-08-08T08:02:18Z</time>
      </trkpt>
      <trkpt lat="44.66362" lon="1.60179">
        <ele>385.4</ele>
        <time>2022-08-08T08:02:20Z</time>
      </trkpt>
      <trkpt lat="44.66357" lon="1.6018">
        <ele>385.8</ele>
        <time>2022-08-08T08:02:22Z</time>
      </trkpt>
      <trkpt lat="44.66352" lon="1.60181">
        <ele>386.1</ele>
        <time>2022-08-08T08:02:24Z</time>
      </trkpt>
      <trkpt lat="44.66348" lon="1.60182">
        <ele>386.3</ele>
        <time>2022-08-08T08:02:26Z</time>
      </trkpt>
      <trkpt lat="44.66344" lon="1.60182">
        <ele>386.7</ele>
        <time>2022-08-08T08:02:28Z</time>
      </trkpt>
      <trkpt lat="44.6634" lon="1.60183">
        <ele>387</ele>
        <time>2022-08-08T08:02:30Z</time>
      </trkpt>
      <trkpt lat="44.66336" lon="1.60185">
        <ele>387.3</ele>
        <time>2022-08-08T08:02:32Z</time>
      </trkpt>
      <trkpt lat="44.66332" lon="1.60186">
        <ele>387.4</ele>
        <time>2022-08-08T08:02:34Z</time>
      </trkpt>
      <trkpt lat="44.66329" lon="1.60186">
        <ele>387.4</ele>
        <time>2022-08-08T08:02:36Z</time>
      </trkpt>
      <trkpt lat="44.66326" lon="1.60187">
        <ele>387.3</ele>
        <time>2022-08-08T08:02:38Z</time>
      </trkpt>
      <trkpt lat="44.66322" lon="1.60187">
        <ele>387.4</ele>
        <time>2022-08-08T08:02:40Z</time>
      </trkpt>
      <trkpt lat="44.66319" lon="1.60187">
        <ele>387.4</ele>
        <time>2022-08-08T08:02:42Z</time>
      </trkpt>
      <trkpt lat="44.66316" lon="1.60187">
        <ele>387.4</ele>
        <time>2022-08-08T08:02:44Z</time>
      </trkpt>
      <trkpt lat="44.66312" lon="1.60187">
        <ele>387.4</ele>
        <time>2022-08-08T08:02:46Z</time>
      </trkpt>
      <trkpt lat="44.66308" lon="1.60188">
        <ele>387.4</ele>
        <time>2022-08-08T08:02:48Z</time>
      </trkpt>
      <trkpt lat="44.66304" lon="1.60189">
        <ele>387.3</ele>
        <time>2022-08-08T08:02:50Z</time>
      </trkpt>
      <trkpt lat="44.663" lon="1.6019">
        <ele>387.3</ele>
        <time>2022-08-08T08:02:52Z</time>
      </trkpt>
      <trkpt lat="44.66296" lon="1.60191">
        <ele>387.2</ele>
        <time>2022-08-08T08:02:54Z</time>
      </trkpt>
      <trkpt lat="44.66293" lon="1.60192">
        <ele>387.2</ele>
        <time>2022-08-08T08:02:56Z</time>
      </trkpt>
      <trkpt lat="44.66289" lon="1.60193">
        <ele>387.1</ele>
        <time>2022-08-08T08:02:58Z</time>
      </trkpt>
      <trkpt lat="44.66284" lon="1.60194">
        <ele>387.1</ele>
        <time>2022-08-08T08:03:00Z</time>
      </trkpt>
      <trkpt lat="44.6628" lon="1.60196">
        <ele>387</ele>
        <time>2022-08-08T08:03:02Z</time>
      </trkpt>
      <trkpt lat="44.66275" lon="1.60197">
        <ele>387</ele>
        <time>2022-08-08T08:03:04Z</time>
      </trkpt>
      <trkpt lat="44.6627" lon="1.60198">
        <ele>387</ele>
        <time>2022-08-08T08:03:06Z</time>
      </trkpt>
      <trkpt lat="44.66263" lon="1.60199">
        <ele>386.9</ele>
        <time>2022-08-08T08:03:08Z</time>
      </trkpt>
      <trkpt lat="44.66256" lon="1.602">
        <ele>387</ele>
        <time>2022-08-08T08:03:10Z</time>
      </trkpt>
      <trkpt lat="44.66247" lon="1.60202">
        <ele>386.9</ele>
        <time>2022-08-08T08:03:12Z</time>
      </trkpt>
      <trkpt lat="44.66236" lon="1.60203">
        <ele>386.6</ele>
        <time>2022-08-08T08:03:14Z</time>
      </trkpt>
      <trkpt lat="44.66224" lon="1.60204">
        <ele>386.3</ele>
        <time>2022-08-08T08:03:16Z</time>
      </trkpt>
      <trkpt lat="44.6621" lon="1.60206">
        <ele>385.9</ele>
        <time>2022-08-08T08:03:18Z</time>
      </trkpt>
      <trkpt lat="44.66196" lon="1.60208">
        <ele>385.6</ele>
        <time>2022-08-08T08:03:20Z</time>
      </trkpt>
      <trkpt lat="44.66181" lon="1.60211">
        <ele>385.1</ele>
        <time>2022-08-08T08:03:22Z</time>
      </trkpt>
      <trkpt lat="44.66167" lon="1.60217">
        <ele>384.6</ele>
        <time>2022-08-08T08:03:24Z</time>
      </trkpt>
      <trkpt lat="44.66154" lon="1.60224">
        <ele>385</ele>
        <time>2022-08-08T08:03:26Z</time>
      </trkpt>
      <trkpt lat="44.66143" lon="1.6023">
        <ele>385.4</ele>
        <time>2022-08-08T08:03:28Z</time>
      </trkpt>
      <trkpt lat="44.66134" lon="1.60235">
        <ele>385.9</ele>
        <time>2022-08-08T08:03:30Z</time>
      </trkpt>
      <trkpt lat="44.66127" lon="1.60238">
        <ele>386.3</ele>
        <time>2022-08-08T08:03:32Z</time>
      </trkpt>
      <trkpt lat="44.66121" lon="1.6024">
        <ele>386.6</ele>
        <time>2022-08-08T08:03:34Z</time>
      </trkpt>
      <trkpt lat="44.66115" lon="1.60244">
        <ele>386.9</ele>
        <time>2022-08-08T08:03:36Z</time>
      </trkpt>
      <trkpt lat="44.6611" lon="1.60246">
        <ele>387.2</ele>
        <time>2022-08-08T08:03:38Z</time>
      </trkpt>
      <trkpt lat="44.66105" lon="1.60247">
        <ele>387.5</ele>
        <time>2022-08-08T08:03:40Z</time>
      </trkpt>
      <trkpt lat="44.661" lon="1.60249">
        <ele>387.8</ele>
        <time>2022-08-08T08:03:42Z</time>
      </trkpt>
      <trkpt lat="44.66094" lon="1.60251">
        <ele>388.2</ele>
        <time>2022-08-08T08:03:44Z</time>
      </trkpt>
      <trkpt lat="44.66089" lon="1.60253">
        <ele>388.4</ele>
        <time>2022-08-08T08:03:46Z</time>
      </trkpt>
      <trkpt lat="44.66085" lon="1.60255">
        <ele>388.7</ele>
        <time>2022-08-08T08:03:48Z</time>
      </trkpt>
      <trkpt lat="44.66079" lon="1.60256">
        <ele>388.8</ele>
        <time>2022-08-08T08:03:50Z</time>
      </trkpt>
      <trkpt lat="44.66074" lon="1.60258">
        <ele>388.9</ele>
        <time>2022-08-08T08:03:52Z</time>
      </trkpt>
      <trkpt lat="44.66068" lon="1.6026">
        <ele>388.9</ele>
        <time>2022-08-08T08:03:54Z</time>
      </trkpt>
      <trkpt lat="44.66063" lon="1.60262">
        <ele>389</ele>
        <time>2022-08-08T08:03:56Z</time>
      </trkpt>
      <trkpt lat="44.66058" lon="1.60265">
        <ele>389</ele>
        <time>2022-08-08T08:03:58Z</time>
      </trkpt>
      <trkpt lat="44.66053" lon="1.60267">
        <ele>389</ele>
        <time>2022-08-08T08:04:00Z</time>
      </trkpt>
      <trkpt lat="44.66048" lon="1.60269">
        <ele>389</ele>
        <time>2022-08-08T08:04:02Z</time>
      </trkpt>
      <trkpt lat="44.66043" lon="1.60273">
        <ele>389</ele>
        <time>2022-08-08T08:04:04Z</time>
      </trkpt>
      <trkpt lat="44.66039" lon="1.60274">
        <ele>389.1</ele>
        <time>2022-08-08T08:04:06Z</time>
      </trkpt>
      <trkpt lat="44.66035" lon="1.60276">
        <ele>389.1</ele>
        <time>2022-08-08T08:04:08Z</time>
      </trkpt>
      <trkpt lat="44.66031" lon="1.60278">
        <ele>389.1</ele>
        <time>2022-08-08T08:04:10Z</time>
      </trkpt>
      <trkpt lat="44.66027" lon="1.60281">
        <ele>389.1</ele>
        <time>2022-08-08T08:04:12Z</time>
      </trkpt>
      <trkpt lat="44.66024" lon="1.60283">
        <ele>389.1</ele>
        <time>2022-08-08T08:04:14Z</time>
      </trkpt>
      <trkpt lat="44.6602" lon="1.60284">
        <ele>389.2</ele>
        <time>2022-08-08T08:04:16Z</time>
      </trkpt>
      <trkpt lat="44.66017" lon="1.60285">
        <ele>389.3</ele>
        <time>2022-08-08T08:04:18Z</time>
      </trkpt>
      <trkpt lat="44.66014" lon="1.60286">
        <ele>389.3</ele>
        <time>2022-08-08T08:04:20Z</time>
      </trkpt>
      <trkpt lat="44.66011" lon="1.60288">
        <ele>389.3</ele>
        <time>2022-08-08T08:04:22Z</time>
      </trkpt>
      <trkpt lat="44.66008" lon="1.60288">
        <ele>389.4</ele>
        <time>2022-08-08T08:04:24Z</time>
      </trkpt>
      <trkpt lat="44.66007" lon="1.60287">
        <ele>389.5</ele>
        <time>2022-08-08T08:04:26Z</time>
      </trkpt>
      <trkpt lat="44.66007" lon="1.60288">
        <ele>389.4</ele>
        <time>2022-08-08T08:04:28Z</time>
      </trkpt>
      <trkpt lat="44.66007" lon="1.60288">
        <ele>389.4</ele>
        <time>2022-08-08T08:04:30Z</time>
      </trkpt>
      <trkpt lat="44.66006" lon="1.60288">
        <ele>389.4</ele>
        <time>2022-08-08T08:04:32Z</time>
      </trkpt>
      <trkpt lat="44.66006" lon="1.60288">
        <ele>389.4</ele>
        <time>2022-08-08T08:04:34Z</time>
      </trkpt>
      <trkpt lat="44.65992" lon="1.60289">
        <ele>389.1</ele>
        <time>2022-08-08T08:04:44Z</time>
      </trkpt>
      <trkpt lat="44.65986" lon="1.60289">
        <ele>388.7</ele>
        <time>2022-08-08T08:04:46Z</time>
      </trkpt>
      <trkpt lat="44.65979" lon="1.60291">
        <ele>388.1</ele>
        <time>2022-08-08T08:04:48Z</time>
      </trkpt>
      <trkpt lat="44.65971" lon="1.60294">
        <ele>387.5</ele>
        <time>2022-08-08T08:04:50Z</time>
      </trkpt>
      <trkpt lat="44.65962" lon="1.60296">
        <ele>386.9</ele>
        <time>2022-08-08T08:04:52Z</time>
      </trkpt>
      <trkpt lat="44.65953" lon="1.60298">
        <ele>386.2</ele>
        <time>2022-08-08T08:04:54Z</time>
      </trkpt>
      <trkpt lat="44.65942" lon="1.60299">
        <ele>385.5</ele>
        <time>2022-08-08T08:04:56Z</time>
      </trkpt>
      <trkpt lat="44.6593" lon="1.60298">
        <ele>384.7</ele>
        <time>2022-08-08T08:04:58Z</time>
      </trkpt>
      <trkpt lat="44.65918" lon="1.60296">
        <ele>384</ele>
        <time>2022-08-08T08:05:00Z</time>
      </trkpt>
      <trkpt lat="44.65905" lon="1.60293">
        <ele>383</ele>
        <time>2022-08-08T08:05:02Z</time>
      </trkpt>
      <trkpt lat="44.6589" lon="1.60288">
        <ele>381.9</ele>
        <time>2022-08-08T08:05:04Z</time>
      </trkpt>
      <trkpt lat="44.65874" lon="1.60279">
        <ele>380.6</ele>
        <time>2022-08-08T08:05:06Z</time>
      </trkpt>
      <trkpt lat="44.65856" lon="1.60268">
        <ele>379.1</ele>
        <time>2022-08-08T08:05:08Z</time>
      </trkpt>
      <trkpt lat="44.65837" lon="1.60253">
        <ele>377.4</ele>
        <time>2022-08-08T08:05:10Z</time>
      </trkpt>
      <trkpt lat="44.65817" lon="1.60241">
        <ele>377.3</ele>
        <time>2022-08-08T08:05:12Z</time>
      </trkpt>
      <trkpt lat="44.65795" lon="1.60233">
        <ele>377.1</ele>
        <time>2022-08-08T08:05:14Z</time>
      </trkpt>
      <trkpt lat="44.65774" lon="1.6023">
        <ele>376.6</ele>
        <time>2022-08-08T08:05:16Z</time>
      </trkpt>
      <trkpt lat="44.65753" lon="1.60231">
        <ele>376.1</ele>
        <time>2022-08-08T08:05:18Z</time>
      </trkpt>
      <trkpt lat="44.65735" lon="1.60233">
        <ele>376.8</ele>
        <time>2022-08-08T08:05:20Z</time>
      </trkpt>
      <trkpt lat="44.65721" lon="1.60235">
        <ele>377.7</ele>
        <time>2022-08-08T08:05:22Z</time>
      </trkpt>
      <trkpt lat="44.65709" lon="1.60238">
        <ele>378.4</ele>
        <time>2022-08-08T08:05:24Z</time>
      </trkpt>
      <trkpt lat="44.65699" lon="1.60242">
        <ele>379</ele>
        <time>2022-08-08T08:05:26Z</time>
      </trkpt>
      <trkpt lat="44.65691" lon="1.60245">
        <ele>379.5</ele>
        <time>2022-08-08T08:05:28Z</time>
      </trkpt>
      <trkpt lat="44.65685" lon="1.60247">
        <ele>379.9</ele>
        <time>2022-08-08T08:05:30Z</time>
      </trkpt>
      <trkpt lat="44.6568" lon="1.60249">
        <ele>380.2</ele>
        <time>2022-08-08T08:05:32Z</time>
      </trkpt>
      <trkpt lat="44.65678" lon="1.60249">
        <ele>380.3</ele>
        <time>2022-08-08T08:05:34Z</time>
      </trkpt>
      <trkpt lat="44.65672" lon="1.6025">
        <ele>380.7</ele>
        <time>2022-08-08T08:05:36Z</time>
      </trkpt>
      <trkpt lat="44.65668" lon="1.60252">
        <ele>380.9</ele>
        <time>2022-08-08T08:05:38Z</time>
      </trkpt>
      <trkpt lat="44.65665" lon="1.60253">
        <ele>381.2</ele>
        <time>2022-08-08T08:05:40Z</time>
      </trkpt>
      <trkpt lat="44.65661" lon="1.60254">
        <ele>381.5</ele>
        <time>2022-08-08T08:05:42Z</time>
      </trkpt>
      <trkpt lat="44.65656" lon="1.60254">
        <ele>381.8</ele>
        <time>2022-08-08T08:05:44Z</time>
      </trkpt>
      <trkpt lat="44.65651" lon="1.60254">
        <ele>382.2</ele>
        <time>2022-08-08T08:05:46Z</time>
      </trkpt>
      <trkpt lat="44.65647" lon="1.60254">
        <ele>382.5</ele>
        <time>2022-08-08T08:05:48Z</time>
      </trkpt>
      <trkpt lat="44.65644" lon="1.60254">
        <ele>382.7</ele>
        <time>2022-08-08T08:05:50Z</time>
      </trkpt>
      <trkpt lat="44.65641" lon="1.60254">
        <ele>382.9</ele>
        <time>2022-08-08T08:05:52Z</time>
      </trkpt>
      <trkpt lat="44.65637" lon="1.60253">
        <ele>383.2</ele>
        <time>2022-08-08T08:05:54Z</time>
      </trkpt>
      <trkpt lat="44.65634" lon="1.60251">
        <ele>383.4</ele>
        <time>2022-08-08T08:05:56Z</time>
      </trkpt>
      <trkpt lat="44.6563" lon="1.6025">
        <ele>383.7</ele>
        <time>2022-08-08T08:05:58Z</time>
      </trkpt>
      <trkpt lat="44.65626" lon="1.6025">
        <ele>383.9</ele>
        <time>2022-08-08T08:06:00Z</time>
      </trkpt>
      <trkpt lat="44.65623" lon="1.60248">
        <ele>384.1</ele>
        <time>2022-08-08T08:06:02Z</time>
      </trkpt>
      <trkpt lat="44.65619" lon="1.60247">
        <ele>384.4</ele>
        <time>2022-08-08T08:06:04Z</time>
      </trkpt>
      <trkpt lat="44.65615" lon="1.60246">
        <ele>384.7</ele>
        <time>2022-08-08T08:06:06Z</time>
      </trkpt>
      <trkpt lat="44.65612" lon="1.60244">
        <ele>384.9</ele>
        <time>2022-08-08T08:06:08Z</time>
      </trkpt>
      <trkpt lat="44.65608" lon="1.60243">
        <ele>385.2</ele>
        <time>2022-08-08T08:06:10Z</time>
      </trkpt>
      <trkpt lat="44.65605" lon="1.60242">
        <ele>385.4</ele>
        <time>2022-08-08T08:06:12Z</time>
      </trkpt>
      <trkpt lat="44.65601" lon="1.6024">
        <ele>385.7</ele>
        <time>2022-08-08T08:06:14Z</time>
      </trkpt>
      <trkpt lat="44.65598" lon="1.60239">
        <ele>385.9</ele>
        <time>2022-08-08T08:06:16Z</time>
      </trkpt>
      <trkpt lat="44.65594" lon="1.60238">
        <ele>386.2</ele>
        <time>2022-08-08T08:06:18Z</time>
      </trkpt>
      <trkpt lat="44.6559" lon="1.60236">
        <ele>386.5</ele>
        <time>2022-08-08T08:06:20Z</time>
      </trkpt>
      <trkpt lat="44.65586" lon="1.60235">
        <ele>386.8</ele>
        <time>2022-08-08T08:06:22Z</time>
      </trkpt>
      <trkpt lat="44.65583" lon="1.60233">
        <ele>387</ele>
        <time>2022-08-08T08:06:24Z</time>
      </trkpt>
      <trkpt lat="44.65579" lon="1.60232">
        <ele>387.3</ele>
        <time>2022-08-08T08:06:26Z</time>
      </trkpt>
      <trkpt lat="44.65576" lon="1.60231">
        <ele>387.6</ele>
        <time>2022-08-08T08:06:28Z</time>
      </trkpt>
      <trkpt lat="44.65572" lon="1.6023">
        <ele>387.9</ele>
        <time>2022-08-08T08:06:30Z</time>
      </trkpt>
      <trkpt lat="44.65568" lon="1.60228">
        <ele>388.3</ele>
        <time>2022-08-08T08:06:32Z</time>
      </trkpt>
      <trkpt lat="44.65565" lon="1.60226">
        <ele>388.5</ele>
        <time>2022-08-08T08:06:34Z</time>
      </trkpt>
      <trkpt lat="44.65561" lon="1.60225">
        <ele>388.9</ele>
        <time>2022-08-08T08:06:36Z</time>
      </trkpt>
      <trkpt lat="44.65558" lon="1.60224">
        <ele>389.1</ele>
        <time>2022-08-08T08:06:38Z</time>
      </trkpt>
      <trkpt lat="44.65554" lon="1.60223">
        <ele>389.5</ele>
        <time>2022-08-08T08:06:40Z</time>
      </trkpt>
      <trkpt lat="44.6555" lon="1.60222">
        <ele>389.8</ele>
        <time>2022-08-08T08:06:42Z</time>
      </trkpt>
      <trkpt lat="44.65547" lon="1.6022">
        <ele>390.1</ele>
        <time>2022-08-08T08:06:44Z</time>
      </trkpt>
      <trkpt lat="44.65544" lon="1.60218">
        <ele>390.4</ele>
        <time>2022-08-08T08:06:46Z</time>
      </trkpt>
      <trkpt lat="44.6554" lon="1.60217">
        <ele>390.8</ele>
        <time>2022-08-08T08:06:48Z</time>
      </trkpt>
      <trkpt lat="44.65538" lon="1.60215">
        <ele>390.9</ele>
        <time>2022-08-08T08:06:50Z</time>
      </trkpt>
      <trkpt lat="44.65533" lon="1.60213">
        <ele>391.4</ele>
        <time>2022-08-08T08:06:52Z</time>
      </trkpt>
      <trkpt lat="44.65529" lon="1.60212">
        <ele>391.8</ele>
        <time>2022-08-08T08:06:54Z</time>
      </trkpt>
      <trkpt lat="44.65527" lon="1.6021">
        <ele>392</ele>
        <time>2022-08-08T08:06:56Z</time>
      </trkpt>
      <trkpt lat="44.65524" lon="1.60209">
        <ele>392.3</ele>
        <time>2022-08-08T08:06:58Z</time>
      </trkpt>
      <trkpt lat="44.65521" lon="1.60207">
        <ele>392.6</ele>
        <time>2022-08-08T08:07:00Z</time>
      </trkpt>
      <trkpt lat="44.65518" lon="1.60206">
        <ele>393</ele>
        <time>2022-08-08T08:07:02Z</time>
      </trkpt>
      <trkpt lat="44.65515" lon="1.60204">
        <ele>393.3</ele>
        <time>2022-08-08T08:07:04Z</time>
      </trkpt>
      <trkpt lat="44.65512" lon="1.60202">
        <ele>393.6</ele>
        <time>2022-08-08T08:07:06Z</time>
      </trkpt>
      <trkpt lat="44.6551" lon="1.60201">
        <ele>393.9</ele>
        <time>2022-08-08T08:07:08Z</time>
      </trkpt>
      <trkpt lat="44.65507" lon="1.602">
        <ele>394.2</ele>
        <time>2022-08-08T08:07:10Z</time>
      </trkpt>
      <trkpt lat="44.65504" lon="1.60198">
        <ele>394.5</ele>
        <time>2022-08-08T08:07:12Z</time>
      </trkpt>
      <trkpt lat="44.65501" lon="1.60196">
        <ele>394.9</ele>
        <time>2022-08-08T08:07:14Z</time>
      </trkpt>
      <trkpt lat="44.65498" lon="1.60194">
        <ele>395</ele>
        <time>2022-08-08T08:07:16Z</time>
      </trkpt>
      <trkpt lat="44.65495" lon="1.60193">
        <ele>395</ele>
        <time>2022-08-08T08:07:18Z</time>
      </trkpt>
      <trkpt lat="44.65492" lon="1.60191">
        <ele>395.1</ele>
        <time>2022-08-08T08:07:20Z</time>
      </trkpt>
      <trkpt lat="44.6549" lon="1.60189">
        <ele>395.1</ele>
        <time>2022-08-08T08:07:22Z</time>
      </trkpt>
      <trkpt lat="44.65486" lon="1.60187">
        <ele>395.2</ele>
        <time>2022-08-08T08:07:24Z</time>
      </trkpt>
      <trkpt lat="44.65483" lon="1.60186">
        <ele>395.2</ele>
        <time>2022-08-08T08:07:26Z</time>
      </trkpt>
      <trkpt lat="44.6548" lon="1.60184">
        <ele>395.2</ele>
        <time>2022-08-08T08:07:28Z</time>
      </trkpt>
      <trkpt lat="44.65477" lon="1.60182">
        <ele>395.3</ele>
        <time>2022-08-08T08:07:30Z</time>
      </trkpt>
      <trkpt lat="44.65474" lon="1.60182">
        <ele>395.2</ele>
        <time>2022-08-08T08:07:32Z</time>
      </trkpt>
      <trkpt lat="44.65471" lon="1.60181">
        <ele>395.3</ele>
        <time>2022-08-08T08:07:34Z</time>
      </trkpt>
      <trkpt lat="44.65469" lon="1.60179">
        <ele>395.3</ele>
        <time>2022-08-08T08:07:36Z</time>
      </trkpt>
      <trkpt lat="44.65466" lon="1.60179">
        <ele>395.3</ele>
        <time>2022-08-08T08:07:38Z</time>
      </trkpt>
      <trkpt lat="44.65464" lon="1.60179">
        <ele>395.3</ele>
        <time>2022-08-08T08:07:40Z</time>
      </trkpt>
      <trkpt lat="44.65462" lon="1.60178">
        <ele>395.2</ele>
        <time>2022-08-08T08:07:42Z</time>
      </trkpt>
      <trkpt lat="44.6546" lon="1.60177">
        <ele>395.3</ele>
        <time>2022-08-08T08:07:44Z</time>
      </trkpt>
      <trkpt lat="44.65458" lon="1.60175">
        <ele>395.3</ele>
        <time>2022-08-08T08:07:46Z</time>
      </trkpt>
      <trkpt lat="44.65455" lon="1.60175">
        <ele>395.3</ele>
        <time>2022-08-08T08:07:48Z</time>
      </trkpt>
      <trkpt lat="44.65453" lon="1.60174">
        <ele>395.3</ele>
        <time>2022-08-08T08:07:50Z</time>
      </trkpt>
      <trkpt lat="44.65451" lon="1.60173">
        <ele>395.3</ele>
        <time>2022-08-08T08:07:52Z</time>
      </trkpt>
      <trkpt lat="44.65448" lon="1.60172">
        <ele>395.3</ele>
        <time>2022-08-08T08:07:54Z</time>
      </trkpt>
      <trkpt lat="44.65445" lon="1.6017">
        <ele>395.3</ele>
        <time>2022-08-08T08:07:56Z</time>
      </trkpt>
      <trkpt lat="44.65442" lon="1.60169">
        <ele>395.3</ele>
        <time>2022-08-08T08:07:58Z</time>
      </trkpt>
      <trkpt lat="44.6544" lon="1.60168">
        <ele>395.3</ele>
        <time>2022-08-08T08:08:00Z</time>
      </trkpt>
      <trkpt lat="44.65437" lon="1.60166">
        <ele>395.3</ele>
        <time>2022-08-08T08:08:02Z</time>
      </trkpt>
      <trkpt lat="44.65432" lon="1.60165">
        <ele>395.3</ele>
        <time>2022-08-08T08:08:04Z</time>
      </trkpt>
      <trkpt lat="44.65428" lon="1.60162">
        <ele>395.3</ele>
        <time>2022-08-08T08:08:06Z</time>
      </trkpt>
      <trkpt lat="44.65423" lon="1.60159">
        <ele>395.4</ele>
        <time>2022-08-08T08:08:08Z</time>
      </trkpt>
      <trkpt lat="44.65418" lon="1.60156">
        <ele>395.5</ele>
        <time>2022-08-08T08:08:10Z</time>
      </trkpt>
      <trkpt lat="44.65411" lon="1.60154">
        <ele>395.2</ele>
        <time>2022-08-08T08:08:12Z</time>
      </trkpt>
      <trkpt lat="44.65404" lon="1.60151">
        <ele>394.9</ele>
        <time>2022-08-08T08:08:14Z</time>
      </trkpt>
      <trkpt lat="44.65398" lon="1.60147">
        <ele>394.6</ele>
        <time>2022-08-08T08:08:16Z</time>
      </trkpt>
      <trkpt lat="44.65389" lon="1.60144">
        <ele>394.1</ele>
        <time>2022-08-08T08:08:18Z</time>
      </trkpt>
      <trkpt lat="44.65382" lon="1.6014">
        <ele>393.8</ele>
        <time>2022-08-08T08:08:20Z</time>
      </trkpt>
      <trkpt lat="44.65374" lon="1.60135">
        <ele>393.5</ele>
        <time>2022-08-08T08:08:22Z</time>
      </trkpt>
      <trkpt lat="44.65367" lon="1.60129">
        <ele>393.3</ele>
        <time>2022-08-08T08:08:24Z</time>
      </trkpt>
      <trkpt lat="44.65361" lon="1.60124">
        <ele>393</ele>
        <time>2022-08-08T08:08:26Z</time>
      </trkpt>
      <trkpt lat="44.65354" lon="1.60118">
        <ele>392.9</ele>
        <time>2022-08-08T08:08:28Z</time>
      </trkpt>
      <trkpt lat="44.65349" lon="1.60113">
        <ele>392.7</ele>
        <time>2022-08-08T08:08:30Z</time>
      </trkpt>
      <trkpt lat="44.65344" lon="1.60105">
        <ele>392.7</ele>
        <time>2022-08-08T08:08:32Z</time>
      </trkpt>
      <trkpt lat="44.65337" lon="1.60099">
        <ele>392.5</ele>
        <time>2022-08-08T08:08:34Z</time>
      </trkpt>
      <trkpt lat="44.6533" lon="1.60093">
        <ele>392.2</ele>
        <time>2022-08-08T08:08:36Z</time>
      </trkpt>
      <trkpt lat="44.65323" lon="1.60087">
        <ele>391.7</ele>
        <time>2022-08-08T08:08:38Z</time>
      </trkpt>
      <trkpt lat="44.65315" lon="1.6008">
        <ele>391.4</ele>
        <time>2022-08-08T08:08:40Z</time>
      </trkpt>
      <trkpt lat="44.65307" lon="1.60074">
        <ele>391.3</ele>
        <time>2022-08-08T08:08:42Z</time>
      </trkpt>
      <trkpt lat="44.65298" lon="1.60068">
        <ele>391</ele>
        <time>2022-08-08T08:08:44Z</time>
      </trkpt>
      <trkpt lat="44.65288" lon="1.60062">
        <ele>390.6</ele>
        <time>2022-08-08T08:08:46Z</time>
      </trkpt>
      <trkpt lat="44.65277" lon="1.60057">
        <ele>390</ele>
        <time>2022-08-08T08:08:48Z</time>
      </trkpt>
      <trkpt lat="44.65267" lon="1.60053">
        <ele>389.5</ele>
        <time>2022-08-08T08:08:50Z</time>
      </trkpt>
      <trkpt lat="44.65258" lon="1.60051">
        <ele>388.7</ele>
        <time>2022-08-08T08:08:52Z</time>
      </trkpt>
      <trkpt lat="44.65248" lon="1.6005">
        <ele>388</ele>
        <time>2022-08-08T08:08:54Z</time>
      </trkpt>
      <trkpt lat="44.65237" lon="1.6005">
        <ele>387.7</ele>
        <time>2022-08-08T08:08:56Z</time>
      </trkpt>
      <trkpt lat="44.65225" lon="1.60048">
        <ele>387.6</ele>
        <time>2022-08-08T08:08:58Z</time>
      </trkpt>
      <trkpt lat="44.65214" lon="1.60042">
        <ele>388.1</ele>
        <time>2022-08-08T08:09:00Z</time>
      </trkpt>
      <trkpt lat="44.65205" lon="1.60037">
        <ele>388.4</ele>
        <time>2022-08-08T08:09:02Z</time>
      </trkpt>
      <trkpt lat="44.65196" lon="1.60036">
        <ele>388.4</ele>
        <time>2022-08-08T08:09:04Z</time>
      </trkpt>
      <trkpt lat="44.65188" lon="1.60037">
        <ele>388</ele>
        <time>2022-08-08T08:09:06Z</time>
      </trkpt>
      <trkpt lat="44.65179" lon="1.60039">
        <ele>387.6</ele>
        <time>2022-08-08T08:09:08Z</time>
      </trkpt>
      <trkpt lat="44.65172" lon="1.6004">
        <ele>387.4</ele>
        <time>2022-08-08T08:09:10Z</time>
      </trkpt>
      <trkpt lat="44.65167" lon="1.6004">
        <ele>387.3</ele>
        <time>2022-08-08T08:09:12Z</time>
      </trkpt>
      <trkpt lat="44.6516" lon="1.60039">
        <ele>387.3</ele>
        <time>2022-08-08T08:09:14Z</time>
      </trkpt>
      <trkpt lat="44.65154" lon="1.60039">
        <ele>387.4</ele>
        <time>2022-08-08T08:09:16Z</time>
      </trkpt>
      <trkpt lat="44.65149" lon="1.6004">
        <ele>387.3</ele>
        <time>2022-08-08T08:09:18Z</time>
      </trkpt>
      <trkpt lat="44.65143" lon="1.60036">
        <ele>387.8</ele>
        <time>2022-08-08T08:09:20Z</time>
      </trkpt>
      <trkpt lat="44.65137" lon="1.60037">
        <ele>387.7</ele>
        <time>2022-08-08T08:09:22Z</time>
      </trkpt>
      <trkpt lat="44.65132" lon="1.60038">
        <ele>387.7</ele>
        <time>2022-08-08T08:09:24Z</time>
      </trkpt>
      <trkpt lat="44.65126" lon="1.60035">
        <ele>388</ele>
        <time>2022-08-08T08:09:26Z</time>
      </trkpt>
      <trkpt lat="44.65121" lon="1.60034">
        <ele>388.1</ele>
        <time>2022-08-08T08:09:28Z</time>
      </trkpt>
      <trkpt lat="44.65116" lon="1.60033">
        <ele>388.3</ele>
        <time>2022-08-08T08:09:30Z</time>
      </trkpt>
      <trkpt lat="44.65111" lon="1.60031">
        <ele>388.5</ele>
        <time>2022-08-08T08:09:32Z</time>
      </trkpt>
      <trkpt lat="44.65105" lon="1.60029">
        <ele>388.8</ele>
        <time>2022-08-08T08:09:34Z</time>
      </trkpt>
      <trkpt lat="44.651" lon="1.60029">
        <ele>388.8</ele>
        <time>2022-08-08T08:09:36Z</time>
      </trkpt>
      <trkpt lat="44.65095" lon="1.60028">
        <ele>388.9</ele>
        <time>2022-08-08T08:09:38Z</time>
      </trkpt>
      <trkpt lat="44.65089" lon="1.60025">
        <ele>389.2</ele>
        <time>2022-08-08T08:09:40Z</time>
      </trkpt>
      <trkpt lat="44.65085" lon="1.60023">
        <ele>389.5</ele>
        <time>2022-08-08T08:09:42Z</time>
      </trkpt>
      <trkpt lat="44.6508" lon="1.6002">
        <ele>389.6</ele>
        <time>2022-08-08T08:09:44Z</time>
      </trkpt>
      <trkpt lat="44.65076" lon="1.60016">
        <ele>389.6</ele>
        <time>2022-08-08T08:09:46Z</time>
      </trkpt>
      <trkpt lat="44.65071" lon="1.6001">
        <ele>389.8</ele>
        <time>2022-08-08T08:09:48Z</time>
      </trkpt>
      <trkpt lat="44.65067" lon="1.60005">
        <ele>390</ele>
        <time>2022-08-08T08:09:50Z</time>
      </trkpt>
      <trkpt lat="44.65065" lon="1.59997">
        <ele>390.3</ele>
        <time>2022-08-08T08:09:52Z</time>
      </trkpt>
      <trkpt lat="44.65061" lon="1.5999">
        <ele>390.3</ele>
        <time>2022-08-08T08:09:54Z</time>
      </trkpt>
      <trkpt lat="44.65059" lon="1.59983">
        <ele>390.4</ele>
        <time>2022-08-08T08:09:56Z</time>
      </trkpt>
      <trkpt lat="44.65057" lon="1.59974">
        <ele>390.4</ele>
        <time>2022-08-08T08:09:58Z</time>
      </trkpt>
      <trkpt lat="44.65055" lon="1.59966">
        <ele>390.5</ele>
        <time>2022-08-08T08:10:00Z</time>
      </trkpt>
      <trkpt lat="44.65053" lon="1.59958">
        <ele>390.6</ele>
        <time>2022-08-08T08:10:02Z</time>
      </trkpt>
      <trkpt lat="44.65051" lon="1.5995">
        <ele>390.6</ele>
        <time>2022-08-08T08:10:04Z</time>
      </trkpt>
      <trkpt lat="44.65049" lon="1.59941">
        <ele>390.6</ele>
        <time>2022-08-08T08:10:06Z</time>
      </trkpt>
      <trkpt lat="44.65047" lon="1.59933">
        <ele>390.7</ele>
        <time>2022-08-08T08:10:08Z</time>
      </trkpt>
      <trkpt lat="44.65045" lon="1.59925">
        <ele>390.6</ele>
        <time>2022-08-08T08:10:10Z</time>
      </trkpt>
      <trkpt lat="44.65042" lon="1.59916">
        <ele>390.6</ele>
        <time>2022-08-08T08:10:12Z</time>
      </trkpt>
      <trkpt lat="44.65041" lon="1.59908">
        <ele>390.8</ele>
        <time>2022-08-08T08:10:14Z</time>
      </trkpt>
      <trkpt lat="44.65039" lon="1.59899">
        <ele>390.9</ele>
        <time>2022-08-08T08:10:16Z</time>
      </trkpt>
      <trkpt lat="44.65038" lon="1.5989">
        <ele>391.1</ele>
        <time>2022-08-08T08:10:18Z</time>
      </trkpt>
      <trkpt lat="44.65036" lon="1.59881">
        <ele>391.2</ele>
        <time>2022-08-08T08:10:20Z</time>
      </trkpt>
      <trkpt lat="44.65035" lon="1.59872">
        <ele>391.5</ele>
        <time>2022-08-08T08:10:22Z</time>
      </trkpt>
      <trkpt lat="44.65035" lon="1.59862">
        <ele>391.7</ele>
        <time>2022-08-08T08:10:24Z</time>
      </trkpt>
      <trkpt lat="44.65034" lon="1.59853">
        <ele>392</ele>
        <time>2022-08-08T08:10:26Z</time>
      </trkpt>
      <trkpt lat="44.65035" lon="1.59844">
        <ele>392.4</ele>
        <time>2022-08-08T08:10:28Z</time>
      </trkpt>
      <trkpt lat="44.65035" lon="1.59836">
        <ele>392.8</ele>
        <time>2022-08-08T08:10:30Z</time>
      </trkpt>
      <trkpt lat="44.65035" lon="1.59827">
        <ele>392.8</ele>
        <time>2022-08-08T08:10:32Z</time>
      </trkpt>
      <trkpt lat="44.65036" lon="1.59817">
        <ele>392.8</ele>
        <time>2022-08-08T08:10:34Z</time>
      </trkpt>
      <trkpt lat="44.65037" lon="1.59808">
        <ele>392.7</ele>
        <time>2022-08-08T08:10:36Z</time>
      </trkpt>
      <trkpt lat="44.65039" lon="1.59799">
        <ele>392.9</ele>
        <time>2022-08-08T08:10:38Z</time>
      </trkpt>
      <trkpt lat="44.65041" lon="1.59789">
        <ele>393</ele>
        <time>2022-08-08T08:10:40Z</time>
      </trkpt>
      <trkpt lat="44.65043" lon="1.5978">
        <ele>393.2</ele>
        <time>2022-08-08T08:10:42Z</time>
      </trkpt>
      <trkpt lat="44.65045" lon="1.59772">
        <ele>393.5</ele>
        <time>2022-08-08T08:10:44Z</time>
      </trkpt>
      <trkpt lat="44.65047" lon="1.59763">
        <ele>393.8</ele>
        <time>2022-08-08T08:10:46Z</time>
      </trkpt>
      <trkpt lat="44.6505" lon="1.59754">
        <ele>394.2</ele>
        <time>2022-08-08T08:10:48Z</time>
      </trkpt>
      <trkpt lat="44.65052" lon="1.59745">
        <ele>394.5</ele>
        <time>2022-08-08T08:10:50Z</time>
      </trkpt>
      <trkpt lat="44.65055" lon="1.59737">
        <ele>395</ele>
        <time>2022-08-08T08:10:52Z</time>
      </trkpt>
      <trkpt lat="44.65057" lon="1.59728">
        <ele>395.3</ele>
        <time>2022-08-08T08:10:54Z</time>
      </trkpt>
      <trkpt lat="44.6506" lon="1.59719">
        <ele>395.6</ele>
        <time>2022-08-08T08:10:56Z</time>
      </trkpt>
      <trkpt lat="44.65063" lon="1.5971">
        <ele>396</ele>
        <time>2022-08-08T08:10:58Z</time>
      </trkpt>
      <trkpt lat="44.65066" lon="1.597">
        <ele>396.3</ele>
        <time>2022-08-08T08:11:00Z</time>
      </trkpt>
      <trkpt lat="44.65069" lon="1.59692">
        <ele>396.6</ele>
        <time>2022-08-08T08:11:02Z</time>
      </trkpt>
      <trkpt lat="44.65073" lon="1.59683">
        <ele>396.9</ele>
        <time>2022-08-08T08:11:04Z</time>
      </trkpt>
      <trkpt lat="44.65076" lon="1.59675">
        <ele>397.3</ele>
        <time>2022-08-08T08:11:06Z</time>
      </trkpt>
      <trkpt lat="44.6508" lon="1.59667">
        <ele>397.6</ele>
        <time>2022-08-08T08:11:08Z</time>
      </trkpt>
      <trkpt lat="44.65083" lon="1.59658">
        <ele>399</ele>
        <time>2022-08-08T08:11:10Z</time>
      </trkpt>
      <trkpt lat="44.65086" lon="1.5965">
        <ele>400.5</ele>
        <time>2022-08-08T08:11:12Z</time>
      </trkpt>
      <trkpt lat="44.65088" lon="1.59639">
        <ele>401.9</ele>
        <time>2022-08-08T08:11:14Z</time>
      </trkpt>
      <trkpt lat="44.65087" lon="1.5963">
        <ele>402.9</ele>
        <time>2022-08-08T08:11:16Z</time>
      </trkpt>
      <trkpt lat="44.65086" lon="1.59621">
        <ele>403.8</ele>
        <time>2022-08-08T08:11:18Z</time>
      </trkpt>
      <trkpt lat="44.65083" lon="1.59612">
        <ele>404.5</ele>
        <time>2022-08-08T08:11:20Z</time>
      </trkpt>
      <trkpt lat="44.65079" lon="1.59604">
        <ele>405</ele>
        <time>2022-08-08T08:11:22Z</time>
      </trkpt>
      <trkpt lat="44.65073" lon="1.59598">
        <ele>404.8</ele>
        <time>2022-08-08T08:11:24Z</time>
      </trkpt>
      <trkpt lat="44.65067" lon="1.59594">
        <ele>404.5</ele>
        <time>2022-08-08T08:11:26Z</time>
      </trkpt>
      <trkpt lat="44.65061" lon="1.5959">
        <ele>404.3</ele>
        <time>2022-08-08T08:11:28Z</time>
      </trkpt>
      <trkpt lat="44.65054" lon="1.59586">
        <ele>403.8</ele>
        <time>2022-08-08T08:11:30Z</time>
      </trkpt>
      <trkpt lat="44.65048" lon="1.59583">
        <ele>403.3</ele>
        <time>2022-08-08T08:11:32Z</time>
      </trkpt>
      <trkpt lat="44.65044" lon="1.59581">
        <ele>403</ele>
        <time>2022-08-08T08:11:34Z</time>
      </trkpt>
      <trkpt lat="44.65036" lon="1.59579">
        <ele>402.1</ele>
        <time>2022-08-08T08:11:36Z</time>
      </trkpt>
      <trkpt lat="44.6503" lon="1.59577">
        <ele>401.5</ele>
        <time>2022-08-08T08:11:38Z</time>
      </trkpt>
      <trkpt lat="44.65024" lon="1.59575">
        <ele>400.8</ele>
        <time>2022-08-08T08:11:40Z</time>
      </trkpt>
      <trkpt lat="44.65018" lon="1.59573">
        <ele>400.2</ele>
        <time>2022-08-08T08:11:42Z</time>
      </trkpt>
      <trkpt lat="44.65011" lon="1.59571">
        <ele>399.5</ele>
        <time>2022-08-08T08:11:44Z</time>
      </trkpt>
      <trkpt lat="44.65005" lon="1.59569">
        <ele>398.9</ele>
        <time>2022-08-08T08:11:46Z</time>
      </trkpt>
      <trkpt lat="44.64999" lon="1.59567">
        <ele>398.3</ele>
        <time>2022-08-08T08:11:48Z</time>
      </trkpt>
      <trkpt lat="44.64993" lon="1.59565">
        <ele>397.8</ele>
        <time>2022-08-08T08:11:50Z</time>
      </trkpt>
      <trkpt lat="44.64987" lon="1.59562">
        <ele>397.4</ele>
        <time>2022-08-08T08:11:52Z</time>
      </trkpt>
      <trkpt lat="44.64982" lon="1.59559">
        <ele>397.1</ele>
        <time>2022-08-08T08:11:54Z</time>
      </trkpt>
      <trkpt lat="44.64976" lon="1.59555">
        <ele>396.7</ele>
        <time>2022-08-08T08:11:56Z</time>
      </trkpt>
      <trkpt lat="44.64972" lon="1.59551">
        <ele>396.5</ele>
        <time>2022-08-08T08:11:58Z</time>
      </trkpt>
      <trkpt lat="44.64967" lon="1.59547">
        <ele>396.3</ele>
        <time>2022-08-08T08:12:00Z</time>
      </trkpt>
      <trkpt lat="44.64962" lon="1.59542">
        <ele>396.2</ele>
        <time>2022-08-08T08:12:02Z</time>
      </trkpt>
      <trkpt lat="44.64958" lon="1.59536">
        <ele>396.2</ele>
        <time>2022-08-08T08:12:04Z</time>
      </trkpt>
      <trkpt lat="44.64955" lon="1.59528">
        <ele>396.5</ele>
        <time>2022-08-08T08:12:06Z</time>
      </trkpt>
      <trkpt lat="44.64954" lon="1.5952">
        <ele>396.9</ele>
        <time>2022-08-08T08:12:08Z</time>
      </trkpt>
      <trkpt lat="44.64953" lon="1.59511">
        <ele>397.5</ele>
        <time>2022-08-08T08:12:10Z</time>
      </trkpt>
      <trkpt lat="44.64953" lon="1.59502">
        <ele>398.2</ele>
        <time>2022-08-08T08:12:12Z</time>
      </trkpt>
      <trkpt lat="44.64953" lon="1.59493">
        <ele>398.2</ele>
        <time>2022-08-08T08:12:14Z</time>
      </trkpt>
      <trkpt lat="44.64955" lon="1.59484">
        <ele>398.2</ele>
        <time>2022-08-08T08:12:16Z</time>
      </trkpt>
      <trkpt lat="44.64957" lon="1.59476">
        <ele>398.3</ele>
        <time>2022-08-08T08:12:18Z</time>
      </trkpt>
      <trkpt lat="44.64959" lon="1.59468">
        <ele>398.3</ele>
        <time>2022-08-08T08:12:20Z</time>
      </trkpt>
      <trkpt lat="44.64962" lon="1.5946">
        <ele>398.4</ele>
        <time>2022-08-08T08:12:22Z</time>
      </trkpt>
      <trkpt lat="44.64966" lon="1.59453">
        <ele>398.7</ele>
        <time>2022-08-08T08:12:24Z</time>
      </trkpt>
      <trkpt lat="44.64969" lon="1.59446">
        <ele>398.8</ele>
        <time>2022-08-08T08:12:26Z</time>
      </trkpt>
      <trkpt lat="44.64973" lon="1.59439">
        <ele>399</ele>
        <time>2022-08-08T08:12:28Z</time>
      </trkpt>
      <trkpt lat="44.64977" lon="1.59432">
        <ele>399.3</ele>
        <time>2022-08-08T08:12:30Z</time>
      </trkpt>
      <trkpt lat="44.64982" lon="1.59425">
        <ele>399.5</ele>
        <time>2022-08-08T08:12:32Z</time>
      </trkpt>
      <trkpt lat="44.64986" lon="1.59419">
        <ele>399.8</ele>
        <time>2022-08-08T08:12:34Z</time>
      </trkpt>
      <trkpt lat="44.64991" lon="1.59412">
        <ele>400.1</ele>
        <time>2022-08-08T08:12:36Z</time>
      </trkpt>
      <trkpt lat="44.64996" lon="1.59405">
        <ele>400.5</ele>
        <time>2022-08-08T08:12:38Z</time>
      </trkpt>
      <trkpt lat="44.65" lon="1.59398">
        <ele>400.8</ele>
        <time>2022-08-08T08:12:40Z</time>
      </trkpt>
      <trkpt lat="44.65005" lon="1.59391">
        <ele>401.4</ele>
        <time>2022-08-08T08:12:42Z</time>
      </trkpt>
      <trkpt lat="44.65009" lon="1.59383">
        <ele>401.9</ele>
        <time>2022-08-08T08:12:44Z</time>
      </trkpt>
      <trkpt lat="44.65012" lon="1.59375">
        <ele>402.3</ele>
        <time>2022-08-08T08:12:46Z</time>
      </trkpt>
      <trkpt lat="44.65015" lon="1.59368">
        <ele>402.5</ele>
        <time>2022-08-08T08:12:48Z</time>
      </trkpt>
      <trkpt lat="44.65017" lon="1.5936">
        <ele>402.7</ele>
        <time>2022-08-08T08:12:50Z</time>
      </trkpt>
      <trkpt lat="44.65019" lon="1.59351">
        <ele>402.8</ele>
        <time>2022-08-08T08:12:52Z</time>
      </trkpt>
      <trkpt lat="44.65021" lon="1.59342">
        <ele>402.9</ele>
        <time>2022-08-08T08:12:54Z</time>
      </trkpt>
      <trkpt lat="44.65022" lon="1.59333">
        <ele>403</ele>
        <time>2022-08-08T08:12:56Z</time>
      </trkpt>
      <trkpt lat="44.65024" lon="1.59324">
        <ele>403.2</ele>
        <time>2022-08-08T08:12:58Z</time>
      </trkpt>
      <trkpt lat="44.65025" lon="1.59315">
        <ele>403.4</ele>
        <time>2022-08-08T08:13:00Z</time>
      </trkpt>
      <trkpt lat="44.65027" lon="1.59306">
        <ele>403.6</ele>
        <time>2022-08-08T08:13:02Z</time>
      </trkpt>
      <trkpt lat="44.65029" lon="1.59297">
        <ele>403.8</ele>
        <time>2022-08-08T08:13:04Z</time>
      </trkpt>
      <trkpt lat="44.6503" lon="1.59289">
        <ele>403.9</ele>
        <time>2022-08-08T08:13:06Z</time>
      </trkpt>
      <trkpt lat="44.65031" lon="1.5928">
        <ele>404</ele>
        <time>2022-08-08T08:13:08Z</time>
      </trkpt>
      <trkpt lat="44.65033" lon="1.59271">
        <ele>404.1</ele>
        <time>2022-08-08T08:13:10Z</time>
      </trkpt>
      <trkpt lat="44.65034" lon="1.59262">
        <ele>404.1</ele>
        <time>2022-08-08T08:13:12Z</time>
      </trkpt>
      <trkpt lat="44.65036" lon="1.59252">
        <ele>404.2</ele>
        <time>2022-08-08T08:13:14Z</time>
      </trkpt>
      <trkpt lat="44.65037" lon="1.59243">
        <ele>404.4</ele>
        <time>2022-08-08T08:13:16Z</time>
      </trkpt>
      <trkpt lat="44.65038" lon="1.59234">
        <ele>404.6</ele>
        <time>2022-08-08T08:13:18Z</time>
      </trkpt>
      <trkpt lat="44.65038" lon="1.59225">
        <ele>404.9</ele>
        <time>2022-08-08T08:13:20Z</time>
      </trkpt>
      <trkpt lat="44.65037" lon="1.59215">
        <ele>405.1</ele>
        <time>2022-08-08T08:13:22Z</time>
      </trkpt>
      <trkpt lat="44.65037" lon="1.59207">
        <ele>405.2</ele>
        <time>2022-08-08T08:13:24Z</time>
      </trkpt>
      <trkpt lat="44.65036" lon="1.59196">
        <ele>405.5</ele>
        <time>2022-08-08T08:13:26Z</time>
      </trkpt>
      <trkpt lat="44.65035" lon="1.59187">
        <ele>405.6</ele>
        <time>2022-08-08T08:13:28Z</time>
      </trkpt>
      <trkpt lat="44.65033" lon="1.59178">
        <ele>405.7</ele>
        <time>2022-08-08T08:13:30Z</time>
      </trkpt>
      <trkpt lat="44.65031" lon="1.59169">
        <ele>405.8</ele>
        <time>2022-08-08T08:13:32Z</time>
      </trkpt>
      <trkpt lat="44.6503" lon="1.5916">
        <ele>406.2</ele>
        <time>2022-08-08T08:13:34Z</time>
      </trkpt>
      <trkpt lat="44.65028" lon="1.59152">
        <ele>406.6</ele>
        <time>2022-08-08T08:13:36Z</time>
      </trkpt>
      <trkpt lat="44.65027" lon="1.59142">
        <ele>407.1</ele>
        <time>2022-08-08T08:13:38Z</time>
      </trkpt>
      <trkpt lat="44.65024" lon="1.59133">
        <ele>407.5</ele>
        <time>2022-08-08T08:13:40Z</time>
      </trkpt>
      <trkpt lat="44.65023" lon="1.59124">
        <ele>407.9</ele>
        <time>2022-08-08T08:13:42Z</time>
      </trkpt>
      <trkpt lat="44.6502" lon="1.59116">
        <ele>408.3</ele>
        <time>2022-08-08T08:13:44Z</time>
      </trkpt>
      <trkpt lat="44.65018" lon="1.59108">
        <ele>408.6</ele>
        <time>2022-08-08T08:13:46Z</time>
      </trkpt>
      <trkpt lat="44.65015" lon="1.59101">
        <ele>408.8</ele>
        <time>2022-08-08T08:13:48Z</time>
      </trkpt>
      <trkpt lat="44.65012" lon="1.59095">
        <ele>409</ele>
        <time>2022-08-08T08:13:50Z</time>
      </trkpt>
      <trkpt lat="44.65007" lon="1.59091">
        <ele>409</ele>
        <time>2022-08-08T08:13:52Z</time>
      </trkpt>
      <trkpt lat="44.65002" lon="1.59088">
        <ele>408.9</ele>
        <time>2022-08-08T08:13:54Z</time>
      </trkpt>
      <trkpt lat="44.64997" lon="1.59086">
        <ele>408.9</ele>
        <time>2022-08-08T08:13:56Z</time>
      </trkpt>
      <trkpt lat="44.64991" lon="1.59087">
        <ele>408.9</ele>
        <time>2022-08-08T08:13:58Z</time>
      </trkpt>
      <trkpt lat="44.64985" lon="1.59087">
        <ele>409</ele>
        <time>2022-08-08T08:14:00Z</time>
      </trkpt>
      <trkpt lat="44.6498" lon="1.59087">
        <ele>409</ele>
        <time>2022-08-08T08:14:02Z</time>
      </trkpt>
      <trkpt lat="44.64974" lon="1.59089">
        <ele>409</ele>
        <time>2022-08-08T08:14:04Z</time>
      </trkpt>
      <trkpt lat="44.64968" lon="1.59089">
        <ele>409.1</ele>
        <time>2022-08-08T08:14:06Z</time>
      </trkpt>
      <trkpt lat="44.64962" lon="1.5909">
        <ele>409.1</ele>
        <time>2022-08-08T08:14:08Z</time>
      </trkpt>
      <trkpt lat="44.64956" lon="1.59092">
        <ele>409.1</ele>
        <time>2022-08-08T08:14:10Z</time>
      </trkpt>
      <trkpt lat="44.6495" lon="1.59092">
        <ele>409.1</ele>
        <time>2022-08-08T08:14:12Z</time>
      </trkpt>
      <trkpt lat="44.64944" lon="1.59093">
        <ele>409.2</ele>
        <time>2022-08-08T08:14:14Z</time>
      </trkpt>
      <trkpt lat="44.64938" lon="1.59094">
        <ele>409.2</ele>
        <time>2022-08-08T08:14:16Z</time>
      </trkpt>
      <trkpt lat="44.64932" lon="1.59095">
        <ele>409.2</ele>
        <time>2022-08-08T08:14:18Z</time>
      </trkpt>
      <trkpt lat="44.64926" lon="1.59095">
        <ele>409.3</ele>
        <time>2022-08-08T08:14:20Z</time>
      </trkpt>
      <trkpt lat="44.6492" lon="1.59095">
        <ele>409.4</ele>
        <time>2022-08-08T08:14:22Z</time>
      </trkpt>
      <trkpt lat="44.64914" lon="1.59094">
        <ele>409.3</ele>
        <time>2022-08-08T08:14:24Z</time>
      </trkpt>
      <trkpt lat="44.64907" lon="1.59093">
        <ele>409.1</ele>
        <time>2022-08-08T08:14:26Z</time>
      </trkpt>
      <trkpt lat="44.649" lon="1.5909">
        <ele>408.9</ele>
        <time>2022-08-08T08:14:28Z</time>
      </trkpt>
      <trkpt lat="44.64893" lon="1.59088">
        <ele>408.6</ele>
        <time>2022-08-08T08:14:30Z</time>
      </trkpt>
      <trkpt lat="44.64885" lon="1.59083">
        <ele>408.5</ele>
        <time>2022-08-08T08:14:32Z</time>
      </trkpt>
      <trkpt lat="44.64878" lon="1.59079">
        <ele>408.5</ele>
        <time>2022-08-08T08:14:34Z</time>
      </trkpt>
      <trkpt lat="44.64872" lon="1.59078">
        <ele>408.3</ele>
        <time>2022-08-08T08:14:36Z</time>
      </trkpt>
      <trkpt lat="44.64867" lon="1.59078">
        <ele>408</ele>
        <time>2022-08-08T08:14:38Z</time>
      </trkpt>
      <trkpt lat="44.64861" lon="1.59078">
        <ele>407.7</ele>
        <time>2022-08-08T08:14:40Z</time>
      </trkpt>
      <trkpt lat="44.64849" lon="1.59069">
        <ele>407.8</ele>
        <time>2022-08-08T08:14:42Z</time>
      </trkpt>
      <trkpt lat="44.64841" lon="1.59063">
        <ele>407.7</ele>
        <time>2022-08-08T08:14:44Z</time>
      </trkpt>
      <trkpt lat="44.64833" lon="1.59056">
        <ele>407.6</ele>
        <time>2022-08-08T08:14:46Z</time>
      </trkpt>
      <trkpt lat="44.64826" lon="1.59049">
        <ele>406.8</ele>
        <time>2022-08-08T08:14:48Z</time>
      </trkpt>
      <trkpt lat="44.6482" lon="1.59038">
        <ele>406.4</ele>
        <time>2022-08-08T08:14:50Z</time>
      </trkpt>
      <trkpt lat="44.64816" lon="1.59027">
        <ele>406.3</ele>
        <time>2022-08-08T08:14:52Z</time>
      </trkpt>
      <trkpt lat="44.64815" lon="1.59015">
        <ele>406.7</ele>
        <time>2022-08-08T08:14:54Z</time>
      </trkpt>
      <trkpt lat="44.64815" lon="1.59003">
        <ele>407.3</ele>
        <time>2022-08-08T08:14:56Z</time>
      </trkpt>
      <trkpt lat="44.64816" lon="1.58991">
        <ele>407.6</ele>
        <time>2022-08-08T08:14:58Z</time>
      </trkpt>
      <trkpt lat="44.6482" lon="1.58982">
        <ele>407.9</ele>
        <time>2022-08-08T08:15:00Z</time>
      </trkpt>
      <trkpt lat="44.64823" lon="1.58977">
        <ele>408.4</ele>
        <time>2022-08-08T08:15:02Z</time>
      </trkpt>
      <trkpt lat="44.64827" lon="1.58963">
        <ele>409</ele>
        <time>2022-08-08T08:15:04Z</time>
      </trkpt>
      <trkpt lat="44.64827" lon="1.58948">
        <ele>408.5</ele>
        <time>2022-08-08T08:15:06Z</time>
      </trkpt>
      <trkpt lat="44.64831" lon="1.58939">
        <ele>409.1</ele>
        <time>2022-08-08T08:15:08Z</time>
      </trkpt>
      <trkpt lat="44.64834" lon="1.58929">
        <ele>409.3</ele>
        <time>2022-08-08T08:15:10Z</time>
      </trkpt>
      <trkpt lat="44.64837" lon="1.5892">
        <ele>409.8</ele>
        <time>2022-08-08T08:15:12Z</time>
      </trkpt>
      <trkpt lat="44.6484" lon="1.58909">
        <ele>409.6</ele>
        <time>2022-08-08T08:15:14Z</time>
      </trkpt>
      <trkpt lat="44.64844" lon="1.58901">
        <ele>409.7</ele>
        <time>2022-08-08T08:15:16Z</time>
      </trkpt>
      <trkpt lat="44.64847" lon="1.58893">
        <ele>409.7</ele>
        <time>2022-08-08T08:15:18Z</time>
      </trkpt>
      <trkpt lat="44.64852" lon="1.58885">
        <ele>410</ele>
        <time>2022-08-08T08:15:20Z</time>
      </trkpt>
      <trkpt lat="44.64856" lon="1.58877">
        <ele>410.3</ele>
        <time>2022-08-08T08:15:22Z</time>
      </trkpt>
      <trkpt lat="44.6486" lon="1.58868">
        <ele>410.5</ele>
        <time>2022-08-08T08:15:24Z</time>
      </trkpt>
      <trkpt lat="44.64864" lon="1.58861">
        <ele>410.9</ele>
        <time>2022-08-08T08:15:26Z</time>
      </trkpt>
      <trkpt lat="44.64867" lon="1.58857">
        <ele>411.2</ele>
        <time>2022-08-08T08:15:28Z</time>
      </trkpt>
      <trkpt lat="44.64872" lon="1.5885">
        <ele>411.7</ele>
        <time>2022-08-08T08:15:30Z</time>
      </trkpt>
      <trkpt lat="44.64875" lon="1.58841">
        <ele>412</ele>
        <time>2022-08-08T08:15:32Z</time>
      </trkpt>
      <trkpt lat="44.64879" lon="1.58831">
        <ele>412.2</ele>
        <time>2022-08-08T08:15:34Z</time>
      </trkpt>
      <trkpt lat="44.64882" lon="1.58825">
        <ele>412.6</ele>
        <time>2022-08-08T08:15:36Z</time>
      </trkpt>
      <trkpt lat="44.64886" lon="1.58814">
        <ele>412.7</ele>
        <time>2022-08-08T08:15:38Z</time>
      </trkpt>
      <trkpt lat="44.64888" lon="1.58808">
        <ele>412.8</ele>
        <time>2022-08-08T08:15:40Z</time>
      </trkpt>
      <trkpt lat="44.64891" lon="1.588">
        <ele>413</ele>
        <time>2022-08-08T08:15:42Z</time>
      </trkpt>
      <trkpt lat="44.64893" lon="1.58795">
        <ele>413.2</ele>
        <time>2022-08-08T08:15:44Z</time>
      </trkpt>
      <trkpt lat="44.64896" lon="1.58783">
        <ele>413.2</ele>
        <time>2022-08-08T08:15:46Z</time>
      </trkpt>
      <trkpt lat="44.64899" lon="1.58777">
        <ele>413.4</ele>
        <time>2022-08-08T08:15:48Z</time>
      </trkpt>
      <trkpt lat="44.64901" lon="1.58768">
        <ele>413.1</ele>
        <time>2022-08-08T08:15:50Z</time>
      </trkpt>
      <trkpt lat="44.64903" lon="1.58758">
        <ele>413</ele>
        <time>2022-08-08T08:15:52Z</time>
      </trkpt>
      <trkpt lat="44.64906" lon="1.58748">
        <ele>412.9</ele>
        <time>2022-08-08T08:15:54Z</time>
      </trkpt>
      <trkpt lat="44.64904" lon="1.58739">
        <ele>412.2</ele>
        <time>2022-08-08T08:15:56Z</time>
      </trkpt>
      <trkpt lat="44.64908" lon="1.58729">
        <ele>412.5</ele>
        <time>2022-08-08T08:15:58Z</time>
      </trkpt>
      <trkpt lat="44.64912" lon="1.58721">
        <ele>412.7</ele>
        <time>2022-08-08T08:16:00Z</time>
      </trkpt>
      <trkpt lat="44.64913" lon="1.58712">
        <ele>412.5</ele>
        <time>2022-08-08T08:16:02Z</time>
      </trkpt>
      <trkpt lat="44.64917" lon="1.58704">
        <ele>412.9</ele>
        <time>2022-08-08T08:16:04Z</time>
      </trkpt>
      <trkpt lat="44.64921" lon="1.58695">
        <ele>413</ele>
        <time>2022-08-08T08:16:06Z</time>
      </trkpt>
      <trkpt lat="44.64925" lon="1.58688">
        <ele>413.2</ele>
        <time>2022-08-08T08:16:08Z</time>
      </trkpt>
      <trkpt lat="44.64929" lon="1.58681">
        <ele>413.5</ele>
        <time>2022-08-08T08:16:10Z</time>
      </trkpt>
      <trkpt lat="44.64934" lon="1.58675">
        <ele>413.9</ele>
        <time>2022-08-08T08:16:12Z</time>
      </trkpt>
      <trkpt lat="44.64939" lon="1.58667">
        <ele>414.2</ele>
        <time>2022-08-08T08:16:14Z</time>
      </trkpt>
      <trkpt lat="44.64943" lon="1.58659">
        <ele>414.2</ele>
        <time>2022-08-08T08:16:16Z</time>
      </trkpt>
      <trkpt lat="44.64949" lon="1.58654">
        <ele>414.7</ele>
        <time>2022-08-08T08:16:18Z</time>
      </trkpt>
      <trkpt lat="44.64954" lon="1.58645">
        <ele>414.8</ele>
        <time>2022-08-08T08:16:20Z</time>
      </trkpt>
      <trkpt lat="44.64959" lon="1.58638">
        <ele>414.8</ele>
        <time>2022-08-08T08:16:22Z</time>
      </trkpt>
      <trkpt lat="44.64965" lon="1.58631">
        <ele>415</ele>
        <time>2022-08-08T08:16:24Z</time>
      </trkpt>
      <trkpt lat="44.6497" lon="1.58624">
        <ele>415.1</ele>
        <time>2022-08-08T08:16:26Z</time>
      </trkpt>
      <trkpt lat="44.64975" lon="1.58616">
        <ele>415.1</ele>
        <time>2022-08-08T08:16:28Z</time>
      </trkpt>
      <trkpt lat="44.64982" lon="1.58609">
        <ele>415.3</ele>
        <time>2022-08-08T08:16:30Z</time>
      </trkpt>
      <trkpt lat="44.64986" lon="1.586">
        <ele>415.1</ele>
        <time>2022-08-08T08:16:32Z</time>
      </trkpt>
      <trkpt lat="44.64991" lon="1.58593">
        <ele>414.9</ele>
        <time>2022-08-08T08:16:34Z</time>
      </trkpt>
      <trkpt lat="44.64997" lon="1.58586">
        <ele>414.9</ele>
        <time>2022-08-08T08:16:36Z</time>
      </trkpt>
      <trkpt lat="44.65001" lon="1.58578">
        <ele>414.8</ele>
        <time>2022-08-08T08:16:38Z</time>
      </trkpt>
      <trkpt lat="44.65006" lon="1.58571">
        <ele>414.8</ele>
        <time>2022-08-08T08:16:40Z</time>
      </trkpt>
      <trkpt lat="44.65011" lon="1.58565">
        <ele>414.9</ele>
        <time>2022-08-08T08:16:42Z</time>
      </trkpt>
      <trkpt lat="44.65015" lon="1.58558">
        <ele>415</ele>
        <time>2022-08-08T08:16:44Z</time>
      </trkpt>
      <trkpt lat="44.65019" lon="1.58551">
        <ele>415</ele>
        <time>2022-08-08T08:16:46Z</time>
      </trkpt>
      <trkpt lat="44.65023" lon="1.58545">
        <ele>415</ele>
        <time>2022-08-08T08:16:48Z</time>
      </trkpt>
      <trkpt lat="44.65028" lon="1.58539">
        <ele>415.1</ele>
        <time>2022-08-08T08:16:50Z</time>
      </trkpt>
      <trkpt lat="44.65033" lon="1.58532">
        <ele>415.2</ele>
        <time>2022-08-08T08:16:52Z</time>
      </trkpt>
      <trkpt lat="44.65037" lon="1.58526">
        <ele>415.3</ele>
        <time>2022-08-08T08:16:54Z</time>
      </trkpt>
      <trkpt lat="44.65042" lon="1.5852">
        <ele>415.3</ele>
        <time>2022-08-08T08:16:56Z</time>
      </trkpt>
      <trkpt lat="44.65046" lon="1.58514">
        <ele>415.4</ele>
        <time>2022-08-08T08:16:58Z</time>
      </trkpt>
      <trkpt lat="44.6505" lon="1.58508">
        <ele>415.4</ele>
        <time>2022-08-08T08:17:00Z</time>
      </trkpt>
      <trkpt lat="44.65053" lon="1.58504">
        <ele>415.4</ele>
        <time>2022-08-08T08:17:02Z</time>
      </trkpt>
      <trkpt lat="44.65056" lon="1.58501">
        <ele>415.6</ele>
        <time>2022-08-08T08:17:04Z</time>
      </trkpt>
      <trkpt lat="44.65056" lon="1.58502">
        <ele>415.6</ele>
        <time>2022-08-08T08:17:06Z</time>
      </trkpt>
      <trkpt lat="44.65056" lon="1.58502">
        <ele>415.6</ele>
        <time>2022-08-08T08:17:08Z</time>
      </trkpt>
      <trkpt lat="44.65056" lon="1.58502">
        <ele>415.5</ele>
        <time>2022-08-08T08:17:12Z</time>
      </trkpt>
      <trkpt lat="44.65065" lon="1.58486">
        <ele>416.1</ele>
        <time>2022-08-08T08:17:24Z</time>
      </trkpt>
      <trkpt lat="44.65068" lon="1.5848">
        <ele>416.3</ele>
        <time>2022-08-08T08:17:26Z</time>
      </trkpt>
      <trkpt lat="44.65071" lon="1.58474">
        <ele>416.5</ele>
        <time>2022-08-08T08:17:28Z</time>
      </trkpt>
      <trkpt lat="44.65075" lon="1.58467">
        <ele>416.5</ele>
        <time>2022-08-08T08:17:30Z</time>
      </trkpt>
      <trkpt lat="44.65077" lon="1.5846">
        <ele>416.5</ele>
        <time>2022-08-08T08:17:32Z</time>
      </trkpt>
      <trkpt lat="44.6508" lon="1.58452">
        <ele>416.4</ele>
        <time>2022-08-08T08:17:34Z</time>
      </trkpt>
      <trkpt lat="44.65083" lon="1.58443">
        <ele>416.2</ele>
        <time>2022-08-08T08:17:36Z</time>
      </trkpt>
      <trkpt lat="44.65085" lon="1.58434">
        <ele>416.2</ele>
        <time>2022-08-08T08:17:38Z</time>
      </trkpt>
      <trkpt lat="44.65087" lon="1.58424">
        <ele>416</ele>
        <time>2022-08-08T08:17:40Z</time>
      </trkpt>
      <trkpt lat="44.65089" lon="1.58414">
        <ele>416.1</ele>
        <time>2022-08-08T08:17:42Z</time>
      </trkpt>
      <trkpt lat="44.65091" lon="1.58403">
        <ele>416.4</ele>
        <time>2022-08-08T08:17:44Z</time>
      </trkpt>
      <trkpt lat="44.65092" lon="1.58393">
        <ele>416.7</ele>
        <time>2022-08-08T08:17:46Z</time>
      </trkpt>
      <trkpt lat="44.65093" lon="1.58382">
        <ele>416.9</ele>
        <time>2022-08-08T08:17:48Z</time>
      </trkpt>
      <trkpt lat="44.65094" lon="1.58371">
        <ele>417.1</ele>
        <time>2022-08-08T08:17:50Z</time>
      </trkpt>
      <trkpt lat="44.65094" lon="1.5836">
        <ele>417.2</ele>
        <time>2022-08-08T08:17:52Z</time>
      </trkpt>
      <trkpt lat="44.65093" lon="1.58348">
        <ele>417.2</ele>
        <time>2022-08-08T08:17:54Z</time>
      </trkpt>
      <trkpt lat="44.65091" lon="1.58337">
        <ele>417</ele>
        <time>2022-08-08T08:17:56Z</time>
      </trkpt>
      <trkpt lat="44.65088" lon="1.58326">
        <ele>417</ele>
        <time>2022-08-08T08:17:58Z</time>
      </trkpt>
      <trkpt lat="44.65083" lon="1.58318">
        <ele>417</ele>
        <time>2022-08-08T08:18:00Z</time>
      </trkpt>
      <trkpt lat="44.65076" lon="1.5831">
        <ele>417.9</ele>
        <time>2022-08-08T08:18:02Z</time>
      </trkpt>
      <trkpt lat="44.65069" lon="1.58305">
        <ele>418.7</ele>
        <time>2022-08-08T08:18:04Z</time>
      </trkpt>
      <trkpt lat="44.65062" lon="1.58302">
        <ele>419.4</ele>
        <time>2022-08-08T08:18:06Z</time>
      </trkpt>
      <trkpt lat="44.65054" lon="1.58299">
        <ele>420.1</ele>
        <time>2022-08-08T08:18:08Z</time>
      </trkpt>
      <trkpt lat="44.65047" lon="1.58299">
        <ele>420.6</ele>
        <time>2022-08-08T08:18:10Z</time>
      </trkpt>
      <trkpt lat="44.65039" lon="1.58299">
        <ele>421.1</ele>
        <time>2022-08-08T08:18:12Z</time>
      </trkpt>
      <trkpt lat="44.65033" lon="1.58303">
        <ele>421.3</ele>
        <time>2022-08-08T08:18:14Z</time>
      </trkpt>
      <trkpt lat="44.65027" lon="1.58306">
        <ele>421.5</ele>
        <time>2022-08-08T08:18:16Z</time>
      </trkpt>
      <trkpt lat="44.65021" lon="1.5831">
        <ele>421.6</ele>
        <time>2022-08-08T08:18:18Z</time>
      </trkpt>
      <trkpt lat="44.65016" lon="1.58314">
        <ele>421.5</ele>
        <time>2022-08-08T08:18:20Z</time>
      </trkpt>
      <trkpt lat="44.6501" lon="1.5832">
        <ele>421.4</ele>
        <time>2022-08-08T08:18:22Z</time>
      </trkpt>
      <trkpt lat="44.65005" lon="1.58325">
        <ele>421.3</ele>
        <time>2022-08-08T08:18:24Z</time>
      </trkpt>
      <trkpt lat="44.65001" lon="1.5833">
        <ele>421.2</ele>
        <time>2022-08-08T08:18:26Z</time>
      </trkpt>
      <trkpt lat="44.64997" lon="1.58335">
        <ele>420.8</ele>
        <time>2022-08-08T08:18:28Z</time>
      </trkpt>
      <trkpt lat="44.64991" lon="1.58339">
        <ele>420.3</ele>
        <time>2022-08-08T08:18:30Z</time>
      </trkpt>
      <trkpt lat="44.64986" lon="1.58344">
        <ele>419.8</ele>
        <time>2022-08-08T08:18:32Z</time>
      </trkpt>
      <trkpt lat="44.64981" lon="1.58348">
        <ele>419.4</ele>
        <time>2022-08-08T08:18:34Z</time>
      </trkpt>
      <trkpt lat="44.64975" lon="1.58351">
        <ele>419.1</ele>
        <time>2022-08-08T08:18:36Z</time>
      </trkpt>
      <trkpt lat="44.64968" lon="1.58354">
        <ele>418.8</ele>
        <time>2022-08-08T08:18:38Z</time>
      </trkpt>
      <trkpt lat="44.64962" lon="1.58357">
        <ele>418.6</ele>
        <time>2022-08-08T08:18:40Z</time>
      </trkpt>
      <trkpt lat="44.64955" lon="1.58359">
        <ele>418.5</ele>
        <time>2022-08-08T08:18:42Z</time>
      </trkpt>
      <trkpt lat="44.64949" lon="1.58361">
        <ele>418.4</ele>
        <time>2022-08-08T08:18:44Z</time>
      </trkpt>
      <trkpt lat="44.64942" lon="1.58362">
        <ele>418.4</ele>
        <time>2022-08-08T08:18:46Z</time>
      </trkpt>
      <trkpt lat="44.64935" lon="1.58363">
        <ele>418.4</ele>
        <time>2022-08-08T08:18:48Z</time>
      </trkpt>
      <trkpt lat="44.64929" lon="1.58363">
        <ele>418.5</ele>
        <time>2022-08-08T08:18:50Z</time>
      </trkpt>
      <trkpt lat="44.64922" lon="1.58364">
        <ele>418.5</ele>
        <time>2022-08-08T08:18:52Z</time>
      </trkpt>
      <trkpt lat="44.64916" lon="1.58364">
        <ele>418.7</ele>
        <time>2022-08-08T08:18:54Z</time>
      </trkpt>
      <trkpt lat="44.64908" lon="1.58364">
        <ele>418.7</ele>
        <time>2022-08-08T08:18:56Z</time>
      </trkpt>
      <trkpt lat="44.64901" lon="1.58362">
        <ele>418.8</ele>
        <time>2022-08-08T08:18:58Z</time>
      </trkpt>
      <trkpt lat="44.64894" lon="1.58362">
        <ele>418.8</ele>
        <time>2022-08-08T08:19:00Z</time>
      </trkpt>
      <trkpt lat="44.64887" lon="1.5836">
        <ele>419</ele>
        <time>2022-08-08T08:19:02Z</time>
      </trkpt>
      <trkpt lat="44.64881" lon="1.58357">
        <ele>419.1</ele>
        <time>2022-08-08T08:19:04Z</time>
      </trkpt>
      <trkpt lat="44.64874" lon="1.58353">
        <ele>419.3</ele>
        <time>2022-08-08T08:19:06Z</time>
      </trkpt>
      <trkpt lat="44.64868" lon="1.58348">
        <ele>419.5</ele>
        <time>2022-08-08T08:19:08Z</time>
      </trkpt>
      <trkpt lat="44.64864" lon="1.58341">
        <ele>419.8</ele>
        <time>2022-08-08T08:19:10Z</time>
      </trkpt>
      <trkpt lat="44.6486" lon="1.58332">
        <ele>420</ele>
        <time>2022-08-08T08:19:12Z</time>
      </trkpt>
      <trkpt lat="44.64858" lon="1.58322">
        <ele>419.8</ele>
        <time>2022-08-08T08:19:14Z</time>
      </trkpt>
      <trkpt lat="44.64857" lon="1.58312">
        <ele>419.6</ele>
        <time>2022-08-08T08:19:16Z</time>
      </trkpt>
      <trkpt lat="44.64857" lon="1.58302">
        <ele>419.6</ele>
        <time>2022-08-08T08:19:18Z</time>
      </trkpt>
      <trkpt lat="44.64859" lon="1.58293">
        <ele>419.5</ele>
        <time>2022-08-08T08:19:20Z</time>
      </trkpt>
      <trkpt lat="44.64861" lon="1.58284">
        <ele>419.6</ele>
        <time>2022-08-08T08:19:22Z</time>
      </trkpt>
      <trkpt lat="44.64865" lon="1.58275">
        <ele>419.8</ele>
        <time>2022-08-08T08:19:24Z</time>
      </trkpt>
      <trkpt lat="44.64869" lon="1.58268">
        <ele>420.1</ele>
        <time>2022-08-08T08:19:26Z</time>
      </trkpt>
      <trkpt lat="44.64873" lon="1.5826">
        <ele>420.4</ele>
        <time>2022-08-08T08:19:28Z</time>
      </trkpt>
      <trkpt lat="44.64878" lon="1.58253">
        <ele>420.7</ele>
        <time>2022-08-08T08:19:30Z</time>
      </trkpt>
      <trkpt lat="44.64882" lon="1.58246">
        <ele>421.1</ele>
        <time>2022-08-08T08:19:32Z</time>
      </trkpt>
      <trkpt lat="44.64886" lon="1.58239">
        <ele>421.4</ele>
        <time>2022-08-08T08:19:34Z</time>
      </trkpt>
      <trkpt lat="44.6489" lon="1.58231">
        <ele>421.8</ele>
        <time>2022-08-08T08:19:36Z</time>
      </trkpt>
      <trkpt lat="44.64894" lon="1.58222">
        <ele>422.1</ele>
        <time>2022-08-08T08:19:38Z</time>
      </trkpt>
      <trkpt lat="44.64897" lon="1.58213">
        <ele>422.4</ele>
        <time>2022-08-08T08:19:40Z</time>
      </trkpt>
      <trkpt lat="44.64898" lon="1.58202">
        <ele>422.7</ele>
        <time>2022-08-08T08:19:42Z</time>
      </trkpt>
      <trkpt lat="44.649" lon="1.58192">
        <ele>422.9</ele>
        <time>2022-08-08T08:19:44Z</time>
      </trkpt>
      <trkpt lat="44.64901" lon="1.58182">
        <ele>423.1</ele>
        <time>2022-08-08T08:19:46Z</time>
      </trkpt>
      <trkpt lat="44.64901" lon="1.58171">
        <ele>423.1</ele>
        <time>2022-08-08T08:19:48Z</time>
      </trkpt>
      <trkpt lat="44.64901" lon="1.58161">
        <ele>423.4</ele>
        <time>2022-08-08T08:19:50Z</time>
      </trkpt>
      <trkpt lat="44.64901" lon="1.5815">
        <ele>423.9</ele>
        <time>2022-08-08T08:19:52Z</time>
      </trkpt>
      <trkpt lat="44.64901" lon="1.58139">
        <ele>424.3</ele>
        <time>2022-08-08T08:19:54Z</time>
      </trkpt>
      <trkpt lat="44.64899" lon="1.58129">
        <ele>424.6</ele>
        <time>2022-08-08T08:19:56Z</time>
      </trkpt>
      <trkpt lat="44.64897" lon="1.58119">
        <ele>424.8</ele>
        <time>2022-08-08T08:19:58Z</time>
      </trkpt>
      <trkpt lat="44.64894" lon="1.58109">
        <ele>425</ele>
        <time>2022-08-08T08:20:00Z</time>
      </trkpt>
      <trkpt lat="44.6489" lon="1.581">
        <ele>425</ele>
        <time>2022-08-08T08:20:02Z</time>
      </trkpt>
      <trkpt lat="44.64886" lon="1.58092">
        <ele>425</ele>
        <time>2022-08-08T08:20:04Z</time>
      </trkpt>
      <trkpt lat="44.64881" lon="1.58084">
        <ele>424.9</ele>
        <time>2022-08-08T08:20:06Z</time>
      </trkpt>
      <trkpt lat="44.64875" lon="1.58077">
        <ele>425</ele>
        <time>2022-08-08T08:20:08Z</time>
      </trkpt>
      <trkpt lat="44.6487" lon="1.58069">
        <ele>425.2</ele>
        <time>2022-08-08T08:20:10Z</time>
      </trkpt>
      <trkpt lat="44.64865" lon="1.58062">
        <ele>425.5</ele>
        <time>2022-08-08T08:20:12Z</time>
      </trkpt>
      <trkpt lat="44.6486" lon="1.58054">
        <ele>425.7</ele>
        <time>2022-08-08T08:20:14Z</time>
      </trkpt>
      <trkpt lat="44.64856" lon="1.58047">
        <ele>426</ele>
        <time>2022-08-08T08:20:16Z</time>
      </trkpt>
      <trkpt lat="44.64852" lon="1.58038">
        <ele>426.4</ele>
        <time>2022-08-08T08:20:18Z</time>
      </trkpt>
      <trkpt lat="44.64849" lon="1.5803">
        <ele>426.8</ele>
        <time>2022-08-08T08:20:20Z</time>
      </trkpt>
      <trkpt lat="44.64846" lon="1.58021">
        <ele>427.4</ele>
        <time>2022-08-08T08:20:22Z</time>
      </trkpt>
      <trkpt lat="44.64844" lon="1.58012">
        <ele>427.9</ele>
        <time>2022-08-08T08:20:24Z</time>
      </trkpt>
      <trkpt lat="44.64842" lon="1.58003">
        <ele>428.5</ele>
        <time>2022-08-08T08:20:26Z</time>
      </trkpt>
      <trkpt lat="44.6484" lon="1.57993">
        <ele>428.7</ele>
        <time>2022-08-08T08:20:28Z</time>
      </trkpt>
      <trkpt lat="44.64839" lon="1.57984">
        <ele>428.6</ele>
        <time>2022-08-08T08:20:30Z</time>
      </trkpt>
      <trkpt lat="44.64838" lon="1.57974">
        <ele>428.7</ele>
        <time>2022-08-08T08:20:32Z</time>
      </trkpt>
      <trkpt lat="44.64838" lon="1.57964">
        <ele>428.8</ele>
        <time>2022-08-08T08:20:34Z</time>
      </trkpt>
      <trkpt lat="44.64837" lon="1.57956">
        <ele>428.8</ele>
        <time>2022-08-08T08:20:36Z</time>
      </trkpt>
      <trkpt lat="44.64838" lon="1.57946">
        <ele>429</ele>
        <time>2022-08-08T08:20:38Z</time>
      </trkpt>
      <trkpt lat="44.64839" lon="1.57936">
        <ele>429.2</ele>
        <time>2022-08-08T08:20:40Z</time>
      </trkpt>
      <trkpt lat="44.6484" lon="1.57929">
        <ele>429.4</ele>
        <time>2022-08-08T08:20:42Z</time>
      </trkpt>
      <trkpt lat="44.64842" lon="1.57916">
        <ele>429.6</ele>
        <time>2022-08-08T08:20:44Z</time>
      </trkpt>
      <trkpt lat="44.64845" lon="1.57907">
        <ele>429.3</ele>
        <time>2022-08-08T08:20:46Z</time>
      </trkpt>
      <trkpt lat="44.6485" lon="1.579">
        <ele>429.2</ele>
        <time>2022-08-08T08:20:48Z</time>
      </trkpt>
      <trkpt lat="44.64855" lon="1.57892">
        <ele>429.1</ele>
        <time>2022-08-08T08:20:50Z</time>
      </trkpt>
      <trkpt lat="44.64861" lon="1.57888">
        <ele>429.3</ele>
        <time>2022-08-08T08:20:52Z</time>
      </trkpt>
      <trkpt lat="44.64867" lon="1.57886">
        <ele>429.6</ele>
        <time>2022-08-08T08:20:54Z</time>
      </trkpt>
      <trkpt lat="44.64874" lon="1.57884">
        <ele>430</ele>
        <time>2022-08-08T08:20:56Z</time>
      </trkpt>
      <trkpt lat="44.64881" lon="1.57884">
        <ele>430.5</ele>
        <time>2022-08-08T08:20:58Z</time>
      </trkpt>
      <trkpt lat="44.64888" lon="1.57884">
        <ele>430.9</ele>
        <time>2022-08-08T08:21:00Z</time>
      </trkpt>
      <trkpt lat="44.64894" lon="1.57884">
        <ele>431.4</ele>
        <time>2022-08-08T08:21:02Z</time>
      </trkpt>
      <trkpt lat="44.649" lon="1.57884">
        <ele>431.8</ele>
        <time>2022-08-08T08:21:04Z</time>
      </trkpt>
      <trkpt lat="44.64906" lon="1.57884">
        <ele>432.3</ele>
        <time>2022-08-08T08:21:06Z</time>
      </trkpt>
      <trkpt lat="44.64912" lon="1.57884">
        <ele>432.7</ele>
        <time>2022-08-08T08:21:08Z</time>
      </trkpt>
      <trkpt lat="44.64918" lon="1.57881">
        <ele>433</ele>
        <time>2022-08-08T08:21:10Z</time>
      </trkpt>
      <trkpt lat="44.64923" lon="1.57877">
        <ele>433.3</ele>
        <time>2022-08-08T08:21:12Z</time>
      </trkpt>
      <trkpt lat="44.64927" lon="1.57874">
        <ele>433.5</ele>
        <time>2022-08-08T08:21:14Z</time>
      </trkpt>
      <trkpt lat="44.6493" lon="1.5787">
        <ele>433.7</ele>
        <time>2022-08-08T08:21:16Z</time>
      </trkpt>
      <trkpt lat="44.64932" lon="1.57868">
        <ele>433.8</ele>
        <time>2022-08-08T08:21:18Z</time>
      </trkpt>
      <trkpt lat="44.64932" lon="1.57868">
        <ele>433.7</ele>
        <time>2022-08-08T08:21:20Z</time>
      </trkpt>
      <trkpt lat="44.64932" lon="1.57868">
        <ele>433.7</ele>
        <time>2022-08-08T08:21:22Z</time>
      </trkpt>
      <trkpt lat="44.64932" lon="1.57867">
        <ele>433.7</ele>
        <time>2022-08-08T08:21:24Z</time>
      </trkpt>
      <trkpt lat="44.64931" lon="1.57867">
        <ele>433.7</ele>
        <time>2022-08-08T08:21:26Z</time>
      </trkpt>
      <trkpt lat="44.64937" lon="1.57841">
        <ele>433</ele>
        <time>2022-08-08T08:21:34Z</time>
      </trkpt>
      <trkpt lat="44.64937" lon="1.57831">
        <ele>432.8</ele>
        <time>2022-08-08T08:21:36Z</time>
      </trkpt>
      <trkpt lat="44.64938" lon="1.5782">
        <ele>432.8</ele>
        <time>2022-08-08T08:21:38Z</time>
      </trkpt>
      <trkpt lat="44.64938" lon="1.57811">
        <ele>432.9</ele>
        <time>2022-08-08T08:21:40Z</time>
      </trkpt>
      <trkpt lat="44.64937" lon="1.578">
        <ele>432.9</ele>
        <time>2022-08-08T08:21:42Z</time>
      </trkpt>
      <trkpt lat="44.64937" lon="1.57788">
        <ele>432.9</ele>
        <time>2022-08-08T08:21:44Z</time>
      </trkpt>
      <trkpt lat="44.64936" lon="1.57778">
        <ele>432.9</ele>
        <time>2022-08-08T08:21:46Z</time>
      </trkpt>
      <trkpt lat="44.64936" lon="1.57766">
        <ele>432.9</ele>
        <time>2022-08-08T08:21:48Z</time>
      </trkpt>
      <trkpt lat="44.64935" lon="1.57754">
        <ele>433</ele>
        <time>2022-08-08T08:21:50Z</time>
      </trkpt>
      <trkpt lat="44.64934" lon="1.57742">
        <ele>432.8</ele>
        <time>2022-08-08T08:21:52Z</time>
      </trkpt>
      <trkpt lat="44.64934" lon="1.57729">
        <ele>432.5</ele>
        <time>2022-08-08T08:21:54Z</time>
      </trkpt>
      <trkpt lat="44.64934" lon="1.57716">
        <ele>432.2</ele>
        <time>2022-08-08T08:21:56Z</time>
      </trkpt>
      <trkpt lat="44.64933" lon="1.57704">
        <ele>431.9</ele>
        <time>2022-08-08T08:21:58Z</time>
      </trkpt>
      <trkpt lat="44.64932" lon="1.57692">
        <ele>431.6</ele>
        <time>2022-08-08T08:22:00Z</time>
      </trkpt>
      <trkpt lat="44.64932" lon="1.5768">
        <ele>431.3</ele>
        <time>2022-08-08T08:22:02Z</time>
      </trkpt>
      <trkpt lat="44.64931" lon="1.57668">
        <ele>431.1</ele>
        <time>2022-08-08T08:22:04Z</time>
      </trkpt>
      <trkpt lat="44.64931" lon="1.57657">
        <ele>431.2</ele>
        <time>2022-08-08T08:22:06Z</time>
      </trkpt>
      <trkpt lat="44.6493" lon="1.57644">
        <ele>431.4</ele>
        <time>2022-08-08T08:22:08Z</time>
      </trkpt>
      <trkpt lat="44.64929" lon="1.57633">
        <ele>431.5</ele>
        <time>2022-08-08T08:22:10Z</time>
      </trkpt>
      <trkpt lat="44.64929" lon="1.57621">
        <ele>431.8</ele>
        <time>2022-08-08T08:22:12Z</time>
      </trkpt>
      <trkpt lat="44.64929" lon="1.57608">
        <ele>432</ele>
        <time>2022-08-08T08:22:14Z</time>
      </trkpt>
      <trkpt lat="44.64928" lon="1.57596">
        <ele>432.2</ele>
        <time>2022-08-08T08:22:16Z</time>
      </trkpt>
      <trkpt lat="44.64927" lon="1.57584">
        <ele>432.4</ele>
        <time>2022-08-08T08:22:18Z</time>
      </trkpt>
      <trkpt lat="44.64927" lon="1.57571">
        <ele>432.5</ele>
        <time>2022-08-08T08:22:20Z</time>
      </trkpt>
      <trkpt lat="44.64926" lon="1.57558">
        <ele>432.6</ele>
        <time>2022-08-08T08:22:22Z</time>
      </trkpt>
      <trkpt lat="44.64926" lon="1.57546">
        <ele>432.7</ele>
        <time>2022-08-08T08:22:24Z</time>
      </trkpt>
      <trkpt lat="44.64925" lon="1.57533">
        <ele>432.8</ele>
        <time>2022-08-08T08:22:26Z</time>
      </trkpt>
      <trkpt lat="44.64925" lon="1.57521">
        <ele>433</ele>
        <time>2022-08-08T08:22:28Z</time>
      </trkpt>
      <trkpt lat="44.64924" lon="1.57511">
        <ele>433.1</ele>
        <time>2022-08-08T08:22:30Z</time>
      </trkpt>
      <trkpt lat="44.64923" lon="1.575">
        <ele>433.2</ele>
        <time>2022-08-08T08:22:32Z</time>
      </trkpt>
      <trkpt lat="44.64923" lon="1.57491">
        <ele>433.6</ele>
        <time>2022-08-08T08:22:34Z</time>
      </trkpt>
      <trkpt lat="44.64923" lon="1.57481">
        <ele>434.1</ele>
        <time>2022-08-08T08:22:36Z</time>
      </trkpt>
      <trkpt lat="44.64922" lon="1.57472">
        <ele>434.5</ele>
        <time>2022-08-08T08:22:38Z</time>
      </trkpt>
      <trkpt lat="44.64921" lon="1.57463">
        <ele>434.9</ele>
        <time>2022-08-08T08:22:40Z</time>
      </trkpt>
      <trkpt lat="44.64921" lon="1.57453">
        <ele>435.4</ele>
        <time>2022-08-08T08:22:42Z</time>
      </trkpt>
      <trkpt lat="44.64921" lon="1.57444">
        <ele>435.8</ele>
        <time>2022-08-08T08:22:44Z</time>
      </trkpt>
      <trkpt lat="44.6492" lon="1.57435">
        <ele>436.2</ele>
        <time>2022-08-08T08:22:46Z</time>
      </trkpt>
      <trkpt lat="44.6492" lon="1.57425">
        <ele>436.7</ele>
        <time>2022-08-08T08:22:48Z</time>
      </trkpt>
      <trkpt lat="44.64919" lon="1.57416">
        <ele>437.1</ele>
        <time>2022-08-08T08:22:50Z</time>
      </trkpt>
      <trkpt lat="44.64919" lon="1.57406">
        <ele>436.9</ele>
        <time>2022-08-08T08:22:52Z</time>
      </trkpt>
      <trkpt lat="44.64918" lon="1.57397">
        <ele>436.8</ele>
        <time>2022-08-08T08:22:54Z</time>
      </trkpt>
      <trkpt lat="44.64918" lon="1.57387">
        <ele>436.7</ele>
        <time>2022-08-08T08:22:56Z</time>
      </trkpt>
      <trkpt lat="44.64918" lon="1.57377">
        <ele>436.6</ele>
        <time>2022-08-08T08:22:58Z</time>
      </trkpt>
      <trkpt lat="44.64918" lon="1.57367">
        <ele>436.4</ele>
        <time>2022-08-08T08:23:00Z</time>
      </trkpt>
      <trkpt lat="44.64918" lon="1.57356">
        <ele>436.3</ele>
        <time>2022-08-08T08:23:02Z</time>
      </trkpt>
      <trkpt lat="44.64919" lon="1.57346">
        <ele>436.3</ele>
        <time>2022-08-08T08:23:04Z</time>
      </trkpt>
      <trkpt lat="44.64921" lon="1.57335">
        <ele>436.2</ele>
        <time>2022-08-08T08:23:06Z</time>
      </trkpt>
      <trkpt lat="44.64923" lon="1.57324">
        <ele>436.4</ele>
        <time>2022-08-08T08:23:08Z</time>
      </trkpt>
      <trkpt lat="44.64925" lon="1.57312">
        <ele>436.6</ele>
        <time>2022-08-08T08:23:10Z</time>
      </trkpt>
      <trkpt lat="44.64929" lon="1.57301">
        <ele>436.9</ele>
        <time>2022-08-08T08:23:12Z</time>
      </trkpt>
      <trkpt lat="44.64932" lon="1.5729">
        <ele>437.1</ele>
        <time>2022-08-08T08:23:14Z</time>
      </trkpt>
      <trkpt lat="44.64935" lon="1.57278">
        <ele>437.3</ele>
        <time>2022-08-08T08:23:16Z</time>
      </trkpt>
      <trkpt lat="44.64939" lon="1.57268">
        <ele>437.4</ele>
        <time>2022-08-08T08:23:18Z</time>
      </trkpt>
      <trkpt lat="44.64942" lon="1.57257">
        <ele>437.6</ele>
        <time>2022-08-08T08:23:20Z</time>
      </trkpt>
      <trkpt lat="44.64945" lon="1.57247">
        <ele>437.7</ele>
        <time>2022-08-08T08:23:22Z</time>
      </trkpt>
      <trkpt lat="44.64948" lon="1.57237">
        <ele>437.7</ele>
        <time>2022-08-08T08:23:24Z</time>
      </trkpt>
      <trkpt lat="44.64951" lon="1.57228">
        <ele>437.7</ele>
        <time>2022-08-08T08:23:26Z</time>
      </trkpt>
      <trkpt lat="44.64953" lon="1.57219">
        <ele>437.7</ele>
        <time>2022-08-08T08:23:28Z</time>
      </trkpt>
      <trkpt lat="44.64956" lon="1.57211">
        <ele>437.7</ele>
        <time>2022-08-08T08:23:30Z</time>
      </trkpt>
      <trkpt lat="44.64958" lon="1.57203">
        <ele>437.7</ele>
        <time>2022-08-08T08:23:32Z</time>
      </trkpt>
      <trkpt lat="44.64961" lon="1.57197">
        <ele>437.7</ele>
        <time>2022-08-08T08:23:34Z</time>
      </trkpt>
      <trkpt lat="44.64962" lon="1.57193">
        <ele>437.7</ele>
        <time>2022-08-08T08:23:36Z</time>
      </trkpt>
      <trkpt lat="44.64964" lon="1.57192">
        <ele>437.7</ele>
        <time>2022-08-08T08:23:38Z</time>
      </trkpt>
      <trkpt lat="44.64964" lon="1.57191">
        <ele>437.7</ele>
        <time>2022-08-08T08:23:40Z</time>
      </trkpt>
      <trkpt lat="44.64964" lon="1.57191">
        <ele>437.7</ele>
        <time>2022-08-08T08:23:42Z</time>
      </trkpt>
      <trkpt lat="44.64964" lon="1.57191">
        <ele>437.7</ele>
        <time>2022-08-08T08:23:44Z</time>
      </trkpt>
      <trkpt lat="44.64964" lon="1.57191">
        <ele>437.7</ele>
        <time>2022-08-08T08:23:48Z</time>
      </trkpt>
      <trkpt lat="44.64964" lon="1.57191">
        <ele>437.7</ele>
        <time>2022-08-08T08:23:52Z</time>
      </trkpt>
      <trkpt lat="44.64964" lon="1.57191">
        <ele>437.7</ele>
        <time>2022-08-08T08:23:56Z</time>
      </trkpt>
      <trkpt lat="44.64965" lon="1.57188">
        <ele>437.7</ele>
        <time>2022-08-08T08:23:58Z</time>
      </trkpt>
      <trkpt lat="44.64967" lon="1.57183">
        <ele>437.7</ele>
        <time>2022-08-08T08:24:00Z</time>
      </trkpt>
      <trkpt lat="44.64967" lon="1.57178">
        <ele>437.7</ele>
        <time>2022-08-08T08:24:02Z</time>
      </trkpt>
      <trkpt lat="44.64964" lon="1.57172">
        <ele>437.6</ele>
        <time>2022-08-08T08:24:04Z</time>
      </trkpt>
      <trkpt lat="44.64965" lon="1.57167">
        <ele>437.6</ele>
        <time>2022-08-08T08:24:06Z</time>
      </trkpt>
      <trkpt lat="44.64964" lon="1.57166">
        <ele>437.6</ele>
        <time>2022-08-08T08:24:08Z</time>
      </trkpt>
      <trkpt lat="44.64964" lon="1.57166">
        <ele>437.6</ele>
        <time>2022-08-08T08:24:10Z</time>
      </trkpt>
      <trkpt lat="44.64964" lon="1.57166">
        <ele>437.6</ele>
        <time>2022-08-08T08:24:14Z</time>
      </trkpt>
      <trkpt lat="44.64964" lon="1.57165">
        <ele>437.6</ele>
        <time>2022-08-08T08:24:16Z</time>
      </trkpt>
      <trkpt lat="44.64947" lon="1.57136">
        <ele>438.2</ele>
        <time>2022-08-08T08:25:36Z</time>
      </trkpt>
      <trkpt lat="44.64944" lon="1.57128">
        <ele>438.4</ele>
        <time>2022-08-08T08:25:38Z</time>
      </trkpt>
      <trkpt lat="44.64942" lon="1.57119">
        <ele>438.7</ele>
        <time>2022-08-08T08:25:40Z</time>
      </trkpt>
      <trkpt lat="44.64939" lon="1.57111">
        <ele>438.9</ele>
        <time>2022-08-08T08:25:42Z</time>
      </trkpt>
      <trkpt lat="44.64935" lon="1.57102">
        <ele>439.2</ele>
        <time>2022-08-08T08:25:44Z</time>
      </trkpt>
      <trkpt lat="44.64931" lon="1.57091">
        <ele>439.6</ele>
        <time>2022-08-08T08:25:46Z</time>
      </trkpt>
      <trkpt lat="44.64926" lon="1.57081">
        <ele>439.9</ele>
        <time>2022-08-08T08:25:48Z</time>
      </trkpt>
      <trkpt lat="44.64923" lon="1.57071">
        <ele>440.2</ele>
        <time>2022-08-08T08:25:50Z</time>
      </trkpt>
      <trkpt lat="44.6492" lon="1.5706">
        <ele>440.5</ele>
        <time>2022-08-08T08:25:52Z</time>
      </trkpt>
      <trkpt lat="44.64916" lon="1.57049">
        <ele>440.7</ele>
        <time>2022-08-08T08:25:54Z</time>
      </trkpt>
      <trkpt lat="44.64911" lon="1.57039">
        <ele>440.7</ele>
        <time>2022-08-08T08:25:56Z</time>
      </trkpt>
      <trkpt lat="44.64908" lon="1.57029">
        <ele>440.7</ele>
        <time>2022-08-08T08:25:58Z</time>
      </trkpt>
      <trkpt lat="44.64905" lon="1.5702">
        <ele>440.8</ele>
        <time>2022-08-08T08:26:00Z</time>
      </trkpt>
      <trkpt lat="44.64901" lon="1.57011">
        <ele>440.9</ele>
        <time>2022-08-08T08:26:02Z</time>
      </trkpt>
      <trkpt lat="44.64898" lon="1.57001">
        <ele>441.1</ele>
        <time>2022-08-08T08:26:04Z</time>
      </trkpt>
      <trkpt lat="44.64894" lon="1.56991">
        <ele>440.9</ele>
        <time>2022-08-08T08:26:06Z</time>
      </trkpt>
      <trkpt lat="44.6489" lon="1.56982">
        <ele>440.8</ele>
        <time>2022-08-08T08:26:08Z</time>
      </trkpt>
      <trkpt lat="44.64887" lon="1.56973">
        <ele>440.7</ele>
        <time>2022-08-08T08:26:10Z</time>
      </trkpt>
      <trkpt lat="44.64883" lon="1.56964">
        <ele>440.7</ele>
        <time>2022-08-08T08:26:12Z</time>
      </trkpt>
      <trkpt lat="44.6488" lon="1.56956">
        <ele>440.8</ele>
        <time>2022-08-08T08:26:14Z</time>
      </trkpt>
      <trkpt lat="44.64877" lon="1.56948">
        <ele>440.9</ele>
        <time>2022-08-08T08:26:16Z</time>
      </trkpt>
      <trkpt lat="44.64874" lon="1.56939">
        <ele>441.1</ele>
        <time>2022-08-08T08:26:18Z</time>
      </trkpt>
      <trkpt lat="44.6487" lon="1.56932">
        <ele>441.3</ele>
        <time>2022-08-08T08:26:20Z</time>
      </trkpt>
      <trkpt lat="44.64868" lon="1.56925">
        <ele>441.6</ele>
        <time>2022-08-08T08:26:22Z</time>
      </trkpt>
      <trkpt lat="44.64865" lon="1.56919">
        <ele>441.8</ele>
        <time>2022-08-08T08:26:24Z</time>
      </trkpt>
      <trkpt lat="44.64863" lon="1.56912">
        <ele>442.1</ele>
        <time>2022-08-08T08:26:26Z</time>
      </trkpt>
      <trkpt lat="44.64859" lon="1.56906">
        <ele>442.5</ele>
        <time>2022-08-08T08:26:28Z</time>
      </trkpt>
      <trkpt lat="44.64857" lon="1.569">
        <ele>442.9</ele>
        <time>2022-08-08T08:26:30Z</time>
      </trkpt>
      <trkpt lat="44.64854" lon="1.56893">
        <ele>443.3</ele>
        <time>2022-08-08T08:26:32Z</time>
      </trkpt>
      <trkpt lat="44.64851" lon="1.56887">
        <ele>443.7</ele>
        <time>2022-08-08T08:26:34Z</time>
      </trkpt>
      <trkpt lat="44.64848" lon="1.56882">
        <ele>444.1</ele>
        <time>2022-08-08T08:26:36Z</time>
      </trkpt>
      <trkpt lat="44.64844" lon="1.56875">
        <ele>444.5</ele>
        <time>2022-08-08T08:26:38Z</time>
      </trkpt>
      <trkpt lat="44.64841" lon="1.56869">
        <ele>445</ele>
        <time>2022-08-08T08:26:40Z</time>
      </trkpt>
      <trkpt lat="44.64837" lon="1.56863">
        <ele>445.4</ele>
        <time>2022-08-08T08:26:42Z</time>
      </trkpt>
      <trkpt lat="44.64834" lon="1.56857">
        <ele>445.8</ele>
        <time>2022-08-08T08:26:44Z</time>
      </trkpt>
      <trkpt lat="44.64831" lon="1.56851">
        <ele>446.1</ele>
        <time>2022-08-08T08:26:46Z</time>
      </trkpt>
      <trkpt lat="44.64827" lon="1.56845">
        <ele>446.4</ele>
        <time>2022-08-08T08:26:48Z</time>
      </trkpt>
      <trkpt lat="44.64824" lon="1.56839">
        <ele>446.7</ele>
        <time>2022-08-08T08:26:50Z</time>
      </trkpt>
      <trkpt lat="44.6482" lon="1.56833">
        <ele>447</ele>
        <time>2022-08-08T08:26:52Z</time>
      </trkpt>
      <trkpt lat="44.64815" lon="1.56828">
        <ele>447</ele>
        <time>2022-08-08T08:26:54Z</time>
      </trkpt>
      <trkpt lat="44.64811" lon="1.56824">
        <ele>447</ele>
        <time>2022-08-08T08:26:56Z</time>
      </trkpt>
      <trkpt lat="44.64806" lon="1.56819">
        <ele>447.1</ele>
        <time>2022-08-08T08:26:58Z</time>
      </trkpt>
      <trkpt lat="44.64801" lon="1.56815">
        <ele>447.1</ele>
        <time>2022-08-08T08:27:00Z</time>
      </trkpt>
      <trkpt lat="44.64797" lon="1.56811">
        <ele>447.1</ele>
        <time>2022-08-08T08:27:02Z</time>
      </trkpt>
      <trkpt lat="44.64792" lon="1.56808">
        <ele>447.2</ele>
        <time>2022-08-08T08:27:04Z</time>
      </trkpt>
      <trkpt lat="44.64788" lon="1.56804">
        <ele>447.2</ele>
        <time>2022-08-08T08:27:06Z</time>
      </trkpt>
      <trkpt lat="44.64784" lon="1.56801">
        <ele>447.2</ele>
        <time>2022-08-08T08:27:08Z</time>
      </trkpt>
      <trkpt lat="44.6478" lon="1.56797">
        <ele>447.3</ele>
        <time>2022-08-08T08:27:10Z</time>
      </trkpt>
      <trkpt lat="44.64777" lon="1.56794">
        <ele>447.3</ele>
        <time>2022-08-08T08:27:12Z</time>
      </trkpt>
      <trkpt lat="44.64774" lon="1.56791">
        <ele>447.4</ele>
        <time>2022-08-08T08:27:14Z</time>
      </trkpt>
      <trkpt lat="44.64771" lon="1.56789">
        <ele>447.4</ele>
        <time>2022-08-08T08:27:16Z</time>
      </trkpt>
      <trkpt lat="44.64772" lon="1.56788">
        <ele>447.4</ele>
        <time>2022-08-08T08:27:18Z</time>
      </trkpt>
      <trkpt lat="44.64772" lon="1.56788">
        <ele>447.4</ele>
        <time>2022-08-08T08:27:20Z</time>
      </trkpt>
      <trkpt lat="44.64772" lon="1.56787">
        <ele>447.4</ele>
        <time>2022-08-08T08:27:22Z</time>
      </trkpt>
      <trkpt lat="44.64772" lon="1.56787">
        <ele>447.4</ele>
        <time>2022-08-08T08:27:24Z</time>
      </trkpt>
      <trkpt lat="44.64758" lon="1.56808">
        <ele>447.3</ele>
        <time>2022-08-08T09:37:30Z</time>
      </trkpt>
      <trkpt lat="44.6477" lon="1.56808">
        <ele>447.2</ele>
        <time>2022-08-08T09:39:16Z</time>
      </trkpt>
      <trkpt lat="44.64774" lon="1.56803">
        <ele>447.3</ele>
        <time>2022-08-08T09:39:18Z</time>
      </trkpt>
      <trkpt lat="44.64778" lon="1.56799">
        <ele>447.3</ele>
        <time>2022-08-08T09:39:20Z</time>
      </trkpt>
      <trkpt lat="44.64783" lon="1.56798">
        <ele>447.3</ele>
        <time>2022-08-08T09:39:22Z</time>
      </trkpt>
      <trkpt lat="44.64788" lon="1.56798">
        <ele>447.2</ele>
        <time>2022-08-08T09:39:24Z</time>
      </trkpt>
      <trkpt lat="44.64793" lon="1.56802">
        <ele>447.2</ele>
        <time>2022-08-08T09:39:26Z</time>
      </trkpt>
      <trkpt lat="44.64798" lon="1.56807">
        <ele>447.1</ele>
        <time>2022-08-08T09:39:28Z</time>
      </trkpt>
      <trkpt lat="44.64801" lon="1.56808">
        <ele>447.1</ele>
        <time>2022-08-08T09:39:29Z</time>
      </trkpt>
      <trkpt lat="44.64806" lon="1.56812">
        <ele>447.1</ele>
        <time>2022-08-08T09:39:31Z</time>
      </trkpt>
      <trkpt lat="44.64809" lon="1.56817">
        <ele>447.1</ele>
        <time>2022-08-08T09:39:33Z</time>
      </trkpt>
      <trkpt lat="44.64815" lon="1.5682">
        <ele>447</ele>
        <time>2022-08-08T09:39:35Z</time>
      </trkpt>
      <trkpt lat="44.6482" lon="1.56826">
        <ele>447</ele>
        <time>2022-08-08T09:39:37Z</time>
      </trkpt>
      <trkpt lat="44.64825" lon="1.56833">
        <ele>447</ele>
        <time>2022-08-08T09:39:39Z</time>
      </trkpt>
      <trkpt lat="44.64829" lon="1.56839">
        <ele>446.7</ele>
        <time>2022-08-08T09:39:41Z</time>
      </trkpt>
      <trkpt lat="44.64832" lon="1.56845">
        <ele>446.4</ele>
        <time>2022-08-08T09:39:43Z</time>
      </trkpt>
      <trkpt lat="44.64834" lon="1.5685">
        <ele>446.2</ele>
        <time>2022-08-08T09:39:45Z</time>
      </trkpt>
      <trkpt lat="44.64835" lon="1.56855">
        <ele>445.9</ele>
        <time>2022-08-08T09:39:47Z</time>
      </trkpt>
      <trkpt lat="44.64836" lon="1.56854">
        <ele>445.9</ele>
        <time>2022-08-08T09:39:49Z</time>
      </trkpt>
      <trkpt lat="44.64836" lon="1.56854">
        <ele>445.9</ele>
        <time>2022-08-08T09:39:51Z</time>
      </trkpt>
      <trkpt lat="44.64838" lon="1.56857">
        <ele>445.7</ele>
        <time>2022-08-08T09:39:53Z</time>
      </trkpt>
      <trkpt lat="44.64841" lon="1.56863">
        <ele>445.3</ele>
        <time>2022-08-08T09:39:55Z</time>
      </trkpt>
      <trkpt lat="44.64845" lon="1.56871">
        <ele>444.7</ele>
        <time>2022-08-08T09:39:57Z</time>
      </trkpt>
      <trkpt lat="44.64848" lon="1.56878">
        <ele>444.2</ele>
        <time>2022-08-08T09:39:59Z</time>
      </trkpt>
      <trkpt lat="44.64854" lon="1.56886">
        <ele>443.6</ele>
        <time>2022-08-08T09:40:01Z</time>
      </trkpt>
      <trkpt lat="44.64858" lon="1.56896">
        <ele>443</ele>
        <time>2022-08-08T09:40:03Z</time>
      </trkpt>
      <trkpt lat="44.64862" lon="1.56906">
        <ele>442.4</ele>
        <time>2022-08-08T09:40:05Z</time>
      </trkpt>
      <trkpt lat="44.64865" lon="1.56917">
        <ele>441.8</ele>
        <time>2022-08-08T09:40:07Z</time>
      </trkpt>
      <trkpt lat="44.6487" lon="1.56928">
        <ele>441.4</ele>
        <time>2022-08-08T09:40:09Z</time>
      </trkpt>
      <trkpt lat="44.64875" lon="1.56941">
        <ele>441.1</ele>
        <time>2022-08-08T09:40:11Z</time>
      </trkpt>
      <trkpt lat="44.6488" lon="1.56955">
        <ele>440.8</ele>
        <time>2022-08-08T09:40:13Z</time>
      </trkpt>
      <trkpt lat="44.64886" lon="1.5697">
        <ele>440.7</ele>
        <time>2022-08-08T09:40:15Z</time>
      </trkpt>
      <trkpt lat="44.64892" lon="1.56986">
        <ele>440.8</ele>
        <time>2022-08-08T09:40:17Z</time>
      </trkpt>
      <trkpt lat="44.64897" lon="1.57001">
        <ele>441</ele>
        <time>2022-08-08T09:40:19Z</time>
      </trkpt>
      <trkpt lat="44.64903" lon="1.57016">
        <ele>440.8</ele>
        <time>2022-08-08T09:40:21Z</time>
      </trkpt>
      <trkpt lat="44.64909" lon="1.57031">
        <ele>440.7</ele>
        <time>2022-08-08T09:40:23Z</time>
      </trkpt>
      <trkpt lat="44.64914" lon="1.57047">
        <ele>440.7</ele>
        <time>2022-08-08T09:40:25Z</time>
      </trkpt>
      <trkpt lat="44.64921" lon="1.57061">
        <ele>440.5</ele>
        <time>2022-08-08T09:40:27Z</time>
      </trkpt>
      <trkpt lat="44.64926" lon="1.57075">
        <ele>440.1</ele>
        <time>2022-08-08T09:40:29Z</time>
      </trkpt>
      <trkpt lat="44.64931" lon="1.57088">
        <ele>439.7</ele>
        <time>2022-08-08T09:40:31Z</time>
      </trkpt>
      <trkpt lat="44.64936" lon="1.57101">
        <ele>439.2</ele>
        <time>2022-08-08T09:40:33Z</time>
      </trkpt>
      <trkpt lat="44.64942" lon="1.57105">
        <ele>439.1</ele>
        <time>2022-08-08T09:40:35Z</time>
      </trkpt>
      <trkpt lat="44.64949" lon="1.57098">
        <ele>439.2</ele>
        <time>2022-08-08T09:40:37Z</time>
      </trkpt>
      <trkpt lat="44.64954" lon="1.57091">
        <ele>439.4</ele>
        <time>2022-08-08T09:40:39Z</time>
      </trkpt>
      <trkpt lat="44.64957" lon="1.57087">
        <ele>439.4</ele>
        <time>2022-08-08T09:40:41Z</time>
      </trkpt>
      <trkpt lat="44.6496" lon="1.57081">
        <ele>439.5</ele>
        <time>2022-08-08T09:40:43Z</time>
      </trkpt>
      <trkpt lat="44.64962" lon="1.57077">
        <ele>439.5</ele>
        <time>2022-08-08T09:40:45Z</time>
      </trkpt>
      <trkpt lat="44.64963" lon="1.57073">
        <ele>439.5</ele>
        <time>2022-08-08T09:40:47Z</time>
      </trkpt>
      <trkpt lat="44.64962" lon="1.57068">
        <ele>439.6</ele>
        <time>2022-08-08T09:40:49Z</time>
      </trkpt>
      <trkpt lat="44.64961" lon="1.57067">
        <ele>439.6</ele>
        <time>2022-08-08T09:40:51Z</time>
      </trkpt>
      <trkpt lat="44.64961" lon="1.57067">
        <ele>439.6</ele>
        <time>2022-08-08T09:40:53Z</time>
      </trkpt>
      <trkpt lat="44.64961" lon="1.57068">
        <ele>439.6</ele>
        <time>2022-08-08T09:40:55Z</time>
      </trkpt>
      <trkpt lat="44.64961" lon="1.57068">
        <ele>439.6</ele>
        <time>2022-08-08T09:40:57Z</time>
      </trkpt>
      <trkpt lat="44.64996" lon="1.57029">
        <ele>439.1</ele>
        <time>2022-08-08T09:42:33Z</time>
      </trkpt>
      <trkpt lat="44.64991" lon="1.57027">
        <ele>439.3</ele>
        <time>2022-08-08T09:42:35Z</time>
      </trkpt>
      <trkpt lat="44.64983" lon="1.57081">
        <ele>439.2</ele>
        <time>2022-08-08T09:42:37Z</time>
      </trkpt>
      <trkpt lat="44.64968" lon="1.57033">
        <ele>439.9</ele>
        <time>2022-08-08T09:42:39Z</time>
      </trkpt>
      <trkpt lat="44.6496" lon="1.57027">
        <ele>440.1</ele>
        <time>2022-08-08T09:42:41Z</time>
      </trkpt>
      <trkpt lat="44.64956" lon="1.57023">
        <ele>440.3</ele>
        <time>2022-08-08T09:42:43Z</time>
      </trkpt>
      <trkpt lat="44.64949" lon="1.57017">
        <ele>440.6</ele>
        <time>2022-08-08T09:42:45Z</time>
      </trkpt>
      <trkpt lat="44.64943" lon="1.57012">
        <ele>440.8</ele>
        <time>2022-08-08T09:42:47Z</time>
      </trkpt>
      <trkpt lat="44.64942" lon="1.5701">
        <ele>440.9</ele>
        <time>2022-08-08T09:42:49Z</time>
      </trkpt>
      <trkpt lat="44.64946" lon="1.57012">
        <ele>440.8</ele>
        <time>2022-08-08T09:42:51Z</time>
      </trkpt>
      <trkpt lat="44.64947" lon="1.57013">
        <ele>440.7</ele>
        <time>2022-08-08T09:42:53Z</time>
      </trkpt>
      <trkpt lat="44.64947" lon="1.57015">
        <ele>440.7</ele>
        <time>2022-08-08T09:42:55Z</time>
      </trkpt>
      <trkpt lat="44.64944" lon="1.5707">
        <ele>439.9</ele>
        <time>2022-08-08T10:02:00Z</time>
      </trkpt>
      <trkpt lat="44.64947" lon="1.57076">
        <ele>439.8</ele>
        <time>2022-08-08T10:02:02Z</time>
      </trkpt>
      <trkpt lat="44.64949" lon="1.57081">
        <ele>439.6</ele>
        <time>2022-08-08T10:02:04Z</time>
      </trkpt>
      <trkpt lat="44.64949" lon="1.57086">
        <ele>439.5</ele>
        <time>2022-08-08T10:02:06Z</time>
      </trkpt>
      <trkpt lat="44.64946" lon="1.57091">
        <ele>439.4</ele>
        <time>2022-08-08T10:02:08Z</time>
      </trkpt>
      <trkpt lat="44.64943" lon="1.57094">
        <ele>439.4</ele>
        <time>2022-08-08T10:02:10Z</time>
      </trkpt>
      <trkpt lat="44.64941" lon="1.57096">
        <ele>439.3</ele>
        <time>2022-08-08T10:02:12Z</time>
      </trkpt>
      <trkpt lat="44.6494" lon="1.57098">
        <ele>439.3</ele>
        <time>2022-08-08T10:02:14Z</time>
      </trkpt>
      <trkpt lat="44.64936" lon="1.57099">
        <ele>439.3</ele>
        <time>2022-08-08T10:02:16Z</time>
      </trkpt>
      <trkpt lat="44.64932" lon="1.57091">
        <ele>439.6</ele>
        <time>2022-08-08T10:02:18Z</time>
      </trkpt>
      <trkpt lat="44.6493" lon="1.57083">
        <ele>439.8</ele>
        <time>2022-08-08T10:02:20Z</time>
      </trkpt>
      <trkpt lat="44.64927" lon="1.57075">
        <ele>440.1</ele>
        <time>2022-08-08T10:02:22Z</time>
      </trkpt>
      <trkpt lat="44.64924" lon="1.57067">
        <ele>440.3</ele>
        <time>2022-08-08T10:02:24Z</time>
      </trkpt>
      <trkpt lat="44.64922" lon="1.57058">
        <ele>440.5</ele>
        <time>2022-08-08T10:02:26Z</time>
      </trkpt>
      <trkpt lat="44.64919" lon="1.57049">
        <ele>440.8</ele>
        <time>2022-08-08T10:02:28Z</time>
      </trkpt>
      <trkpt lat="44.64915" lon="1.57041">
        <ele>440.9</ele>
        <time>2022-08-08T10:02:30Z</time>
      </trkpt>
      <trkpt lat="44.64912" lon="1.57033">
        <ele>440.9</ele>
        <time>2022-08-08T10:02:32Z</time>
      </trkpt>
      <trkpt lat="44.64909" lon="1.57024">
        <ele>440.9</ele>
        <time>2022-08-08T10:02:34Z</time>
      </trkpt>
      <trkpt lat="44.64906" lon="1.57016">
        <ele>441</ele>
        <time>2022-08-08T10:02:36Z</time>
      </trkpt>
      <trkpt lat="44.64902" lon="1.57007">
        <ele>441</ele>
        <time>2022-08-08T10:02:38Z</time>
      </trkpt>
      <trkpt lat="44.64899" lon="1.56998">
        <ele>441.1</ele>
        <time>2022-08-08T10:02:40Z</time>
      </trkpt>
      <trkpt lat="44.64896" lon="1.5699">
        <ele>441</ele>
        <time>2022-08-08T10:02:42Z</time>
      </trkpt>
      <trkpt lat="44.64893" lon="1.56982">
        <ele>440.9</ele>
        <time>2022-08-08T10:02:44Z</time>
      </trkpt>
      <trkpt lat="44.64888" lon="1.56972">
        <ele>440.8</ele>
        <time>2022-08-08T10:02:46Z</time>
      </trkpt>
      <trkpt lat="44.64885" lon="1.56965">
        <ele>440.8</ele>
        <time>2022-08-08T10:02:48Z</time>
      </trkpt>
      <trkpt lat="44.64882" lon="1.56957">
        <ele>440.8</ele>
        <time>2022-08-08T10:02:50Z</time>
      </trkpt>
      <trkpt lat="44.64879" lon="1.5695">
        <ele>440.9</ele>
        <time>2022-08-08T10:02:52Z</time>
      </trkpt>
      <trkpt lat="44.64876" lon="1.56943">
        <ele>441</ele>
        <time>2022-08-08T10:02:54Z</time>
      </trkpt>
      <trkpt lat="44.64873" lon="1.56936">
        <ele>441.2</ele>
        <time>2022-08-08T10:02:56Z</time>
      </trkpt>
      <trkpt lat="44.64872" lon="1.56933">
        <ele>441.3</ele>
        <time>2022-08-08T10:02:57Z</time>
      </trkpt>
      <trkpt lat="44.6487" lon="1.56927">
        <ele>441.5</ele>
        <time>2022-08-08T10:02:59Z</time>
      </trkpt>
      <trkpt lat="44.64866" lon="1.5692">
        <ele>441.7</ele>
        <time>2022-08-08T10:03:01Z</time>
      </trkpt>
      <trkpt lat="44.64864" lon="1.56914">
        <ele>442</ele>
        <time>2022-08-08T10:03:03Z</time>
      </trkpt>
      <trkpt lat="44.64862" lon="1.56908">
        <ele>442.3</ele>
        <time>2022-08-08T10:03:05Z</time>
      </trkpt>
      <trkpt lat="44.6486" lon="1.56903">
        <ele>442.7</ele>
        <time>2022-08-08T10:03:07Z</time>
      </trkpt>
      <trkpt lat="44.64857" lon="1.56898">
        <ele>443</ele>
        <time>2022-08-08T10:03:09Z</time>
      </trkpt>
      <trkpt lat="44.64854" lon="1.56892">
        <ele>443.4</ele>
        <time>2022-08-08T10:03:11Z</time>
      </trkpt>
      <trkpt lat="44.64851" lon="1.56887">
        <ele>443.7</ele>
        <time>2022-08-08T10:03:13Z</time>
      </trkpt>
      <trkpt lat="44.64849" lon="1.56881">
        <ele>444.1</ele>
        <time>2022-08-08T10:03:15Z</time>
      </trkpt>
      <trkpt lat="44.64846" lon="1.56875">
        <ele>444.5</ele>
        <time>2022-08-08T10:03:17Z</time>
      </trkpt>
      <trkpt lat="44.64842" lon="1.56871">
        <ele>444.8</ele>
        <time>2022-08-08T10:03:19Z</time>
      </trkpt>
      <trkpt lat="44.64839" lon="1.56865">
        <ele>445.2</ele>
        <time>2022-08-08T10:03:21Z</time>
      </trkpt>
      <trkpt lat="44.64836" lon="1.56859">
        <ele>445.7</ele>
        <time>2022-08-08T10:03:23Z</time>
      </trkpt>
      <trkpt lat="44.64831" lon="1.56851">
        <ele>446.1</ele>
        <time>2022-08-08T10:03:26Z</time>
      </trkpt>
      <trkpt lat="44.64827" lon="1.56844">
        <ele>446.5</ele>
        <time>2022-08-08T10:03:28Z</time>
      </trkpt>
      <trkpt lat="44.64824" lon="1.56838">
        <ele>446.8</ele>
        <time>2022-08-08T10:03:30Z</time>
      </trkpt>
      <trkpt lat="44.64819" lon="1.56832">
        <ele>447</ele>
        <time>2022-08-08T10:03:32Z</time>
      </trkpt>
      <trkpt lat="44.64815" lon="1.56826">
        <ele>447</ele>
        <time>2022-08-08T10:03:34Z</time>
      </trkpt>
      <trkpt lat="44.6481" lon="1.56821">
        <ele>447</ele>
        <time>2022-08-08T10:03:36Z</time>
      </trkpt>
      <trkpt lat="44.64806" lon="1.56817">
        <ele>447.1</ele>
        <time>2022-08-08T10:03:38Z</time>
      </trkpt>
      <trkpt lat="44.64804" lon="1.56813">
        <ele>447.1</ele>
        <time>2022-08-08T10:03:40Z</time>
      </trkpt>
      <trkpt lat="44.64803" lon="1.56813">
        <ele>447.1</ele>
        <time>2022-08-08T10:03:42Z</time>
      </trkpt>
      <trkpt lat="44.64803" lon="1.56814">
        <ele>447.1</ele>
        <time>2022-08-08T10:03:44Z</time>
      </trkpt>
      <trkpt lat="44.64803" lon="1.56814">
        <ele>447.1</ele>
        <time>2022-08-08T10:03:48Z</time>
      </trkpt>
      <trkpt lat="44.64786" lon="1.56802">
        <ele>447.2</ele>
        <time>2022-08-08T10:04:14Z</time>
      </trkpt>
      <trkpt lat="44.64781" lon="1.56798">
        <ele>447.3</ele>
        <time>2022-08-08T10:04:16Z</time>
      </trkpt>
      <trkpt lat="44.64775" lon="1.56794">
        <ele>447.3</ele>
        <time>2022-08-08T10:04:18Z</time>
      </trkpt>
      <trkpt lat="44.6477" lon="1.56788">
        <ele>447.4</ele>
        <time>2022-08-08T10:04:20Z</time>
      </trkpt>
      <trkpt lat="44.64765" lon="1.56784">
        <ele>447.5</ele>
        <time>2022-08-08T10:04:22Z</time>
      </trkpt>
      <trkpt lat="44.6476" lon="1.5678">
        <ele>447.6</ele>
        <time>2022-08-08T10:04:24Z</time>
      </trkpt>
      <trkpt lat="44.64755" lon="1.56777">
        <ele>447.6</ele>
        <time>2022-08-08T10:04:26Z</time>
      </trkpt>
      <trkpt lat="44.6475" lon="1.56773">
        <ele>447.7</ele>
        <time>2022-08-08T10:04:28Z</time>
      </trkpt>
      <trkpt lat="44.64745" lon="1.56769">
        <ele>447.8</ele>
        <time>2022-08-08T10:04:30Z</time>
      </trkpt>
      <trkpt lat="44.64739" lon="1.56765">
        <ele>447.9</ele>
        <time>2022-08-08T10:04:32Z</time>
      </trkpt>
      <trkpt lat="44.64731" lon="1.56763">
        <ele>448</ele>
        <time>2022-08-08T10:04:34Z</time>
      </trkpt>
      <trkpt lat="44.64723" lon="1.5676">
        <ele>448</ele>
        <time>2022-08-08T10:04:36Z</time>
      </trkpt>
      <trkpt lat="44.64714" lon="1.56753">
        <ele>448</ele>
        <time>2022-08-08T10:04:38Z</time>
      </trkpt>
      <trkpt lat="44.64706" lon="1.56745">
        <ele>447.6</ele>
        <time>2022-08-08T10:04:40Z</time>
      </trkpt>
      <trkpt lat="44.64698" lon="1.56739">
        <ele>447.2</ele>
        <time>2022-08-08T10:04:42Z</time>
      </trkpt>
      <trkpt lat="44.64689" lon="1.56732">
        <ele>446.7</ele>
        <time>2022-08-08T10:04:44Z</time>
      </trkpt>
      <trkpt lat="44.64679" lon="1.56725">
        <ele>446.4</ele>
        <time>2022-08-08T10:04:46Z</time>
      </trkpt>
      <trkpt lat="44.64669" lon="1.56712">
        <ele>445.7</ele>
        <time>2022-08-08T10:04:48Z</time>
      </trkpt>
      <trkpt lat="44.64658" lon="1.56703">
        <ele>445.1</ele>
        <time>2022-08-08T10:04:50Z</time>
      </trkpt>
      <trkpt lat="44.64648" lon="1.56694">
        <ele>444.6</ele>
        <time>2022-08-08T10:04:52Z</time>
      </trkpt>
      <trkpt lat="44.64639" lon="1.56687">
        <ele>444.1</ele>
        <time>2022-08-08T10:04:54Z</time>
      </trkpt>
      <trkpt lat="44.6463" lon="1.5668">
        <ele>443.7</ele>
        <time>2022-08-08T10:04:56Z</time>
      </trkpt>
      <trkpt lat="44.64623" lon="1.56674">
        <ele>443.4</ele>
        <time>2022-08-08T10:04:58Z</time>
      </trkpt>
      <trkpt lat="44.6462" lon="1.56668">
        <ele>443.1</ele>
        <time>2022-08-08T10:05:00Z</time>
      </trkpt>
      <trkpt lat="44.64617" lon="1.56669">
        <ele>443.1</ele>
        <time>2022-08-08T10:05:02Z</time>
      </trkpt>
      <trkpt lat="44.64618" lon="1.5667">
        <ele>443.2</ele>
        <time>2022-08-08T10:05:04Z</time>
      </trkpt>
      <trkpt lat="44.64618" lon="1.5667">
        <ele>443.2</ele>
        <time>2022-08-08T10:05:06Z</time>
      </trkpt>
      <trkpt lat="44.64618" lon="1.5667">
        <ele>443.2</ele>
        <time>2022-08-08T10:05:08Z</time>
      </trkpt>
      <trkpt lat="44.64618" lon="1.5667">
        <ele>443.2</ele>
        <time>2022-08-08T10:05:10Z</time>
      </trkpt>
      <trkpt lat="44.64602" lon="1.56667">
        <ele>443</ele>
        <time>2022-08-08T10:05:42Z</time>
      </trkpt>
      <trkpt lat="44.64595" lon="1.56664">
        <ele>442.7</ele>
        <time>2022-08-08T10:05:44Z</time>
      </trkpt>
      <trkpt lat="44.64587" lon="1.5666">
        <ele>442.4</ele>
        <time>2022-08-08T10:05:46Z</time>
      </trkpt>
      <trkpt lat="44.64578" lon="1.56657">
        <ele>442</ele>
        <time>2022-08-08T10:05:48Z</time>
      </trkpt>
      <trkpt lat="44.64568" lon="1.56652">
        <ele>441.4</ele>
        <time>2022-08-08T10:05:50Z</time>
      </trkpt>
      <trkpt lat="44.64559" lon="1.56648">
        <ele>440.8</ele>
        <time>2022-08-08T10:05:52Z</time>
      </trkpt>
      <trkpt lat="44.64552" lon="1.56643">
        <ele>440.3</ele>
        <time>2022-08-08T10:05:54Z</time>
      </trkpt>
      <trkpt lat="44.64545" lon="1.56638">
        <ele>439.8</ele>
        <time>2022-08-08T10:05:56Z</time>
      </trkpt>
      <trkpt lat="44.64538" lon="1.56633">
        <ele>439.4</ele>
        <time>2022-08-08T10:05:58Z</time>
      </trkpt>
      <trkpt lat="44.64531" lon="1.56625">
        <ele>438.9</ele>
        <time>2022-08-08T10:06:00Z</time>
      </trkpt>
      <trkpt lat="44.64524" lon="1.56619">
        <ele>438.5</ele>
        <time>2022-08-08T10:06:02Z</time>
      </trkpt>
      <trkpt lat="44.64517" lon="1.56611">
        <ele>438.1</ele>
        <time>2022-08-08T10:06:04Z</time>
      </trkpt>
      <trkpt lat="44.64509" lon="1.56604">
        <ele>437.7</ele>
        <time>2022-08-08T10:06:06Z</time>
      </trkpt>
      <trkpt lat="44.64503" lon="1.56596">
        <ele>437.5</ele>
        <time>2022-08-08T10:06:08Z</time>
      </trkpt>
      <trkpt lat="44.64496" lon="1.56589">
        <ele>437.2</ele>
        <time>2022-08-08T10:06:10Z</time>
      </trkpt>
      <trkpt lat="44.64488" lon="1.56581">
        <ele>436.9</ele>
        <time>2022-08-08T10:06:12Z</time>
      </trkpt>
      <trkpt lat="44.64481" lon="1.56574">
        <ele>436.5</ele>
        <time>2022-08-08T10:06:14Z</time>
      </trkpt>
      <trkpt lat="44.64473" lon="1.56567">
        <ele>436.2</ele>
        <time>2022-08-08T10:06:16Z</time>
      </trkpt>
      <trkpt lat="44.64466" lon="1.5656">
        <ele>436</ele>
        <time>2022-08-08T10:06:18Z</time>
      </trkpt>
      <trkpt lat="44.64458" lon="1.56553">
        <ele>435.8</ele>
        <time>2022-08-08T10:06:20Z</time>
      </trkpt>
      <trkpt lat="44.6445" lon="1.56546">
        <ele>435.6</ele>
        <time>2022-08-08T10:06:22Z</time>
      </trkpt>
      <trkpt lat="44.64442" lon="1.56537">
        <ele>435.4</ele>
        <time>2022-08-08T10:06:24Z</time>
      </trkpt>
      <trkpt lat="44.64433" lon="1.5653">
        <ele>435.4</ele>
        <time>2022-08-08T10:06:26Z</time>
      </trkpt>
      <trkpt lat="44.64423" lon="1.56526">
        <ele>435.5</ele>
        <time>2022-08-08T10:06:28Z</time>
      </trkpt>
      <trkpt lat="44.64414" lon="1.56518">
        <ele>435.4</ele>
        <time>2022-08-08T10:06:30Z</time>
      </trkpt>
      <trkpt lat="44.64405" lon="1.56512">
        <ele>434.9</ele>
        <time>2022-08-08T10:06:32Z</time>
      </trkpt>
      <trkpt lat="44.64396" lon="1.56505">
        <ele>434.5</ele>
        <time>2022-08-08T10:06:34Z</time>
      </trkpt>
      <trkpt lat="44.64386" lon="1.56499">
        <ele>434.2</ele>
        <time>2022-08-08T10:06:36Z</time>
      </trkpt>
      <trkpt lat="44.64377" lon="1.56491">
        <ele>433.7</ele>
        <time>2022-08-08T10:06:38Z</time>
      </trkpt>
      <trkpt lat="44.64368" lon="1.56484">
        <ele>433.4</ele>
        <time>2022-08-08T10:06:40Z</time>
      </trkpt>
      <trkpt lat="44.64359" lon="1.56476">
        <ele>433.3</ele>
        <time>2022-08-08T10:06:42Z</time>
      </trkpt>
      <trkpt lat="44.64351" lon="1.56467">
        <ele>433.4</ele>
        <time>2022-08-08T10:06:44Z</time>
      </trkpt>
      <trkpt lat="44.64341" lon="1.56461">
        <ele>433.7</ele>
        <time>2022-08-08T10:06:46Z</time>
      </trkpt>
      <trkpt lat="44.64331" lon="1.56455">
        <ele>434</ele>
        <time>2022-08-08T10:06:48Z</time>
      </trkpt>
      <trkpt lat="44.64321" lon="1.56449">
        <ele>433.6</ele>
        <time>2022-08-08T10:06:50Z</time>
      </trkpt>
      <trkpt lat="44.64311" lon="1.56441">
        <ele>433.4</ele>
        <time>2022-08-08T10:06:52Z</time>
      </trkpt>
      <trkpt lat="44.643" lon="1.56434">
        <ele>433.3</ele>
        <time>2022-08-08T10:06:54Z</time>
      </trkpt>
      <trkpt lat="44.64289" lon="1.56426">
        <ele>433.4</ele>
        <time>2022-08-08T10:06:56Z</time>
      </trkpt>
      <trkpt lat="44.64278" lon="1.56418">
        <ele>433.6</ele>
        <time>2022-08-08T10:06:58Z</time>
      </trkpt>
      <trkpt lat="44.64267" lon="1.5641">
        <ele>433.6</ele>
        <time>2022-08-08T10:07:00Z</time>
      </trkpt>
      <trkpt lat="44.64255" lon="1.56403">
        <ele>433.7</ele>
        <time>2022-08-08T10:07:02Z</time>
      </trkpt>
      <trkpt lat="44.64243" lon="1.56394">
        <ele>433.3</ele>
        <time>2022-08-08T10:07:04Z</time>
      </trkpt>
      <trkpt lat="44.64232" lon="1.56386">
        <ele>432.7</ele>
        <time>2022-08-08T10:07:06Z</time>
      </trkpt>
      <trkpt lat="44.6422" lon="1.56378">
        <ele>432.1</ele>
        <time>2022-08-08T10:07:08Z</time>
      </trkpt>
      <trkpt lat="44.64208" lon="1.5637">
        <ele>431.6</ele>
        <time>2022-08-08T10:07:10Z</time>
      </trkpt>
      <trkpt lat="44.64202" lon="1.56366">
        <ele>431.4</ele>
        <time>2022-08-08T10:07:11Z</time>
      </trkpt>
      <trkpt lat="44.6419" lon="1.56357">
        <ele>431.2</ele>
        <time>2022-08-08T10:07:13Z</time>
      </trkpt>
      <trkpt lat="44.64179" lon="1.56349">
        <ele>431.2</ele>
        <time>2022-08-08T10:07:15Z</time>
      </trkpt>
      <trkpt lat="44.64167" lon="1.56341">
        <ele>431.3</ele>
        <time>2022-08-08T10:07:17Z</time>
      </trkpt>
      <trkpt lat="44.64156" lon="1.56334">
        <ele>431.3</ele>
        <time>2022-08-08T10:07:19Z</time>
      </trkpt>
      <trkpt lat="44.64145" lon="1.56325">
        <ele>431.4</ele>
        <time>2022-08-08T10:07:21Z</time>
      </trkpt>
      <trkpt lat="44.64134" lon="1.56318">
        <ele>431.4</ele>
        <time>2022-08-08T10:07:23Z</time>
      </trkpt>
      <trkpt lat="44.64123" lon="1.5631">
        <ele>431.5</ele>
        <time>2022-08-08T10:07:25Z</time>
      </trkpt>
      <trkpt lat="44.64112" lon="1.56302">
        <ele>431.6</ele>
        <time>2022-08-08T10:07:27Z</time>
      </trkpt>
      <trkpt lat="44.641" lon="1.56294">
        <ele>431.7</ele>
        <time>2022-08-08T10:07:29Z</time>
      </trkpt>
      <trkpt lat="44.64088" lon="1.56286">
        <ele>431.8</ele>
        <time>2022-08-08T10:07:31Z</time>
      </trkpt>
      <trkpt lat="44.64075" lon="1.56278">
        <ele>431.5</ele>
        <time>2022-08-08T10:07:33Z</time>
      </trkpt>
      <trkpt lat="44.64063" lon="1.56269">
        <ele>431.1</ele>
        <time>2022-08-08T10:07:35Z</time>
      </trkpt>
      <trkpt lat="44.64051" lon="1.56261">
        <ele>430.6</ele>
        <time>2022-08-08T10:07:37Z</time>
      </trkpt>
      <trkpt lat="44.64039" lon="1.56253">
        <ele>430</ele>
        <time>2022-08-08T10:07:39Z</time>
      </trkpt>
      <trkpt lat="44.64027" lon="1.56244">
        <ele>428.7</ele>
        <time>2022-08-08T10:07:41Z</time>
      </trkpt>
      <trkpt lat="44.64015" lon="1.56236">
        <ele>427.3</ele>
        <time>2022-08-08T10:07:43Z</time>
      </trkpt>
      <trkpt lat="44.64003" lon="1.56226">
        <ele>426</ele>
        <time>2022-08-08T10:07:45Z</time>
      </trkpt>
      <trkpt lat="44.6399" lon="1.56219">
        <ele>425.1</ele>
        <time>2022-08-08T10:07:47Z</time>
      </trkpt>
      <trkpt lat="44.63978" lon="1.5621">
        <ele>424.6</ele>
        <time>2022-08-08T10:07:49Z</time>
      </trkpt>
      <trkpt lat="44.63965" lon="1.562">
        <ele>424.2</ele>
        <time>2022-08-08T10:07:51Z</time>
      </trkpt>
      <trkpt lat="44.63953" lon="1.56192">
        <ele>423.9</ele>
        <time>2022-08-08T10:07:53Z</time>
      </trkpt>
      <trkpt lat="44.63941" lon="1.56183">
        <ele>423.8</ele>
        <time>2022-08-08T10:07:55Z</time>
      </trkpt>
      <trkpt lat="44.63928" lon="1.56174">
        <ele>423.8</ele>
        <time>2022-08-08T10:07:57Z</time>
      </trkpt>
      <trkpt lat="44.63915" lon="1.56165">
        <ele>423.8</ele>
        <time>2022-08-08T10:07:59Z</time>
      </trkpt>
      <trkpt lat="44.63902" lon="1.56156">
        <ele>422.8</ele>
        <time>2022-08-08T10:08:01Z</time>
      </trkpt>
      <trkpt lat="44.63889" lon="1.56148">
        <ele>421.9</ele>
        <time>2022-08-08T10:08:03Z</time>
      </trkpt>
      <trkpt lat="44.63876" lon="1.56139">
        <ele>421.1</ele>
        <time>2022-08-08T10:08:05Z</time>
      </trkpt>
      <trkpt lat="44.63863" lon="1.5613">
        <ele>420.5</ele>
        <time>2022-08-08T10:08:07Z</time>
      </trkpt>
      <trkpt lat="44.6385" lon="1.56121">
        <ele>419.9</ele>
        <time>2022-08-08T10:08:09Z</time>
      </trkpt>
      <trkpt lat="44.63838" lon="1.56111">
        <ele>419.6</ele>
        <time>2022-08-08T10:08:11Z</time>
      </trkpt>
      <trkpt lat="44.63816" lon="1.56097">
        <ele>417.6</ele>
        <time>2022-08-08T10:08:14Z</time>
      </trkpt>
      <trkpt lat="44.63803" lon="1.56085">
        <ele>416.4</ele>
        <time>2022-08-08T10:08:16Z</time>
      </trkpt>
      <trkpt lat="44.63788" lon="1.56075">
        <ele>414.7</ele>
        <time>2022-08-08T10:08:18Z</time>
      </trkpt>
      <trkpt lat="44.63773" lon="1.56065">
        <ele>413</ele>
        <time>2022-08-08T10:08:20Z</time>
      </trkpt>
      <trkpt lat="44.63757" lon="1.56055">
        <ele>411.6</ele>
        <time>2022-08-08T10:08:22Z</time>
      </trkpt>
      <trkpt lat="44.63741" lon="1.56046">
        <ele>410.7</ele>
        <time>2022-08-08T10:08:24Z</time>
      </trkpt>
      <trkpt lat="44.63724" lon="1.56043">
        <ele>409.9</ele>
        <time>2022-08-08T10:08:26Z</time>
      </trkpt>
      <trkpt lat="44.63707" lon="1.56043">
        <ele>408.9</ele>
        <time>2022-08-08T10:08:28Z</time>
      </trkpt>
      <trkpt lat="44.63691" lon="1.56051">
        <ele>407.7</ele>
        <time>2022-08-08T10:08:30Z</time>
      </trkpt>
      <trkpt lat="44.63678" lon="1.56062">
        <ele>406.8</ele>
        <time>2022-08-08T10:08:32Z</time>
      </trkpt>
      <trkpt lat="44.63664" lon="1.56077">
        <ele>406</ele>
        <time>2022-08-08T10:08:34Z</time>
      </trkpt>
      <trkpt lat="44.6365" lon="1.56088">
        <ele>404.9</ele>
        <time>2022-08-08T10:08:36Z</time>
      </trkpt>
      <trkpt lat="44.63636" lon="1.561">
        <ele>403.2</ele>
        <time>2022-08-08T10:08:38Z</time>
      </trkpt>
      <trkpt lat="44.63621" lon="1.56111">
        <ele>402.2</ele>
        <time>2022-08-08T10:08:40Z</time>
      </trkpt>
      <trkpt lat="44.63604" lon="1.56119">
        <ele>401.8</ele>
        <time>2022-08-08T10:08:42Z</time>
      </trkpt>
      <trkpt lat="44.63586" lon="1.56122">
        <ele>402</ele>
        <time>2022-08-08T10:08:44Z</time>
      </trkpt>
      <trkpt lat="44.63567" lon="1.56122">
        <ele>401.2</ele>
        <time>2022-08-08T10:08:46Z</time>
      </trkpt>
      <trkpt lat="44.63549" lon="1.56122">
        <ele>400.1</ele>
        <time>2022-08-08T10:08:48Z</time>
      </trkpt>
      <trkpt lat="44.63531" lon="1.56121">
        <ele>399.1</ele>
        <time>2022-08-08T10:08:50Z</time>
      </trkpt>
      <trkpt lat="44.63513" lon="1.56114">
        <ele>398</ele>
        <time>2022-08-08T10:08:52Z</time>
      </trkpt>
      <trkpt lat="44.63497" lon="1.561">
        <ele>396.7</ele>
        <time>2022-08-08T10:08:54Z</time>
      </trkpt>
      <trkpt lat="44.63484" lon="1.56079">
        <ele>396.5</ele>
        <time>2022-08-08T10:08:56Z</time>
      </trkpt>
      <trkpt lat="44.63473" lon="1.56055">
        <ele>396.5</ele>
        <time>2022-08-08T10:08:58Z</time>
      </trkpt>
      <trkpt lat="44.63463" lon="1.56031">
        <ele>396.2</ele>
        <time>2022-08-08T10:09:00Z</time>
      </trkpt>
      <trkpt lat="44.63451" lon="1.56007">
        <ele>395.6</ele>
        <time>2022-08-08T10:09:02Z</time>
      </trkpt>
      <trkpt lat="44.63439" lon="1.55984">
        <ele>393.6</ele>
        <time>2022-08-08T10:09:04Z</time>
      </trkpt>
      <trkpt lat="44.63427" lon="1.55959">
        <ele>391.4</ele>
        <time>2022-08-08T10:09:06Z</time>
      </trkpt>
      <trkpt lat="44.63415" lon="1.55935">
        <ele>389.6</ele>
        <time>2022-08-08T10:09:08Z</time>
      </trkpt>
      <trkpt lat="44.63404" lon="1.55911">
        <ele>387.8</ele>
        <time>2022-08-08T10:09:10Z</time>
      </trkpt>
      <trkpt lat="44.63392" lon="1.55887">
        <ele>384.6</ele>
        <time>2022-08-08T10:09:12Z</time>
      </trkpt>
      <trkpt lat="44.63379" lon="1.55866">
        <ele>382.4</ele>
        <time>2022-08-08T10:09:14Z</time>
      </trkpt>
      <trkpt lat="44.63363" lon="1.55852">
        <ele>382</ele>
        <time>2022-08-08T10:09:16Z</time>
      </trkpt>
      <trkpt lat="44.63346" lon="1.55842">
        <ele>382.6</ele>
        <time>2022-08-08T10:09:18Z</time>
      </trkpt>
      <trkpt lat="44.63328" lon="1.55839">
        <ele>384.5</ele>
        <time>2022-08-08T10:09:20Z</time>
      </trkpt>
      <trkpt lat="44.63309" lon="1.5584">
        <ele>386.6</ele>
        <time>2022-08-08T10:09:22Z</time>
      </trkpt>
      <trkpt lat="44.63291" lon="1.55831">
        <ele>387.8</ele>
        <time>2022-08-08T10:09:24Z</time>
      </trkpt>
      <trkpt lat="44.6328" lon="1.55808">
        <ele>386.3</ele>
        <time>2022-08-08T10:09:26Z</time>
      </trkpt>
      <trkpt lat="44.63283" lon="1.5578">
        <ele>382.6</ele>
        <time>2022-08-08T10:09:28Z</time>
      </trkpt>
      <trkpt lat="44.63287" lon="1.55753">
        <ele>378.1</ele>
        <time>2022-08-08T10:09:30Z</time>
      </trkpt>
      <trkpt lat="44.63291" lon="1.55728">
        <ele>373</ele>
        <time>2022-08-08T10:09:32Z</time>
      </trkpt>
      <trkpt lat="44.63291" lon="1.55702">
        <ele>368.8</ele>
        <time>2022-08-08T10:09:34Z</time>
      </trkpt>
      <trkpt lat="44.63288" lon="1.55679">
        <ele>365.9</ele>
        <time>2022-08-08T10:09:36Z</time>
      </trkpt>
      <trkpt lat="44.63276" lon="1.55661">
        <ele>365.8</ele>
        <time>2022-08-08T10:09:38Z</time>
      </trkpt>
      <trkpt lat="44.63259" lon="1.55653">
        <ele>368.2</ele>
        <time>2022-08-08T10:09:40Z</time>
      </trkpt>
      <trkpt lat="44.6324" lon="1.55651">
        <ele>370.1</ele>
        <time>2022-08-08T10:09:42Z</time>
      </trkpt>
      <trkpt lat="44.63222" lon="1.55648">
        <ele>369.9</ele>
        <time>2022-08-08T10:09:44Z</time>
      </trkpt>
      <trkpt lat="44.63202" lon="1.55647">
        <ele>370.2</ele>
        <time>2022-08-08T10:09:46Z</time>
      </trkpt>
      <trkpt lat="44.63185" lon="1.55655">
        <ele>372.1</ele>
        <time>2022-08-08T10:09:48Z</time>
      </trkpt>
      <trkpt lat="44.63169" lon="1.55668">
        <ele>375.2</ele>
        <time>2022-08-08T10:09:50Z</time>
      </trkpt>
      <trkpt lat="44.63149" lon="1.55671">
        <ele>377.6</ele>
        <time>2022-08-08T10:09:52Z</time>
      </trkpt>
      <trkpt lat="44.63132" lon="1.55658">
        <ele>377.2</ele>
        <time>2022-08-08T10:09:54Z</time>
      </trkpt>
      <trkpt lat="44.63121" lon="1.55629">
        <ele>373.5</ele>
        <time>2022-08-08T10:09:56Z</time>
      </trkpt>
      <trkpt lat="44.63115" lon="1.55602">
        <ele>369.8</ele>
        <time>2022-08-08T10:09:58Z</time>
      </trkpt>
      <trkpt lat="44.63113" lon="1.55574">
        <ele>365.2</ele>
        <time>2022-08-08T10:10:00Z</time>
      </trkpt>
      <trkpt lat="44.63116" lon="1.55547">
        <ele>359.7</ele>
        <time>2022-08-08T10:10:02Z</time>
      </trkpt>
      <trkpt lat="44.63115" lon="1.55525">
        <ele>355.5</ele>
        <time>2022-08-08T10:10:04Z</time>
      </trkpt>
      <trkpt lat="44.63105" lon="1.55511">
        <ele>354.3</ele>
        <time>2022-08-08T10:10:06Z</time>
      </trkpt>
      <trkpt lat="44.63091" lon="1.55513">
        <ele>356.6</ele>
        <time>2022-08-08T10:10:08Z</time>
      </trkpt>
      <trkpt lat="44.63078" lon="1.55519">
        <ele>359.9</ele>
        <time>2022-08-08T10:10:10Z</time>
      </trkpt>
      <trkpt lat="44.63063" lon="1.55522">
        <ele>363</ele>
        <time>2022-08-08T10:10:12Z</time>
      </trkpt>
      <trkpt lat="44.6305" lon="1.55503">
        <ele>362.3</ele>
        <time>2022-08-08T10:10:14Z</time>
      </trkpt>
      <trkpt lat="44.63047" lon="1.5548">
        <ele>358</ele>
        <time>2022-08-08T10:10:16Z</time>
      </trkpt>
      <trkpt lat="44.63045" lon="1.55457">
        <ele>353.4</ele>
        <time>2022-08-08T10:10:18Z</time>
      </trkpt>
      <trkpt lat="44.63041" lon="1.55437">
        <ele>349.5</ele>
        <time>2022-08-08T10:10:20Z</time>
      </trkpt>
      <trkpt lat="44.63033" lon="1.55418">
        <ele>346.9</ele>
        <time>2022-08-08T10:10:22Z</time>
      </trkpt>
      <trkpt lat="44.63022" lon="1.55402">
        <ele>346</ele>
        <time>2022-08-08T10:10:24Z</time>
      </trkpt>
      <trkpt lat="44.63009" lon="1.55391">
        <ele>345.5</ele>
        <time>2022-08-08T10:10:26Z</time>
      </trkpt>
      <trkpt lat="44.62997" lon="1.55381">
        <ele>344.4</ele>
        <time>2022-08-08T10:10:28Z</time>
      </trkpt>
      <trkpt lat="44.62984" lon="1.55373">
        <ele>342.3</ele>
        <time>2022-08-08T10:10:30Z</time>
      </trkpt>
      <trkpt lat="44.62972" lon="1.55368">
        <ele>341.1</ele>
        <time>2022-08-08T10:10:32Z</time>
      </trkpt>
      <trkpt lat="44.62958" lon="1.55368">
        <ele>340.8</ele>
        <time>2022-08-08T10:10:34Z</time>
      </trkpt>
      <trkpt lat="44.62947" lon="1.55373">
        <ele>341.9</ele>
        <time>2022-08-08T10:10:36Z</time>
      </trkpt>
      <trkpt lat="44.62937" lon="1.55385">
        <ele>344.7</ele>
        <time>2022-08-08T10:10:38Z</time>
      </trkpt>
      <trkpt lat="44.62927" lon="1.55399">
        <ele>348</ele>
        <time>2022-08-08T10:10:40Z</time>
      </trkpt>
      <trkpt lat="44.62919" lon="1.55415">
        <ele>351.6</ele>
        <time>2022-08-08T10:10:42Z</time>
      </trkpt>
      <trkpt lat="44.62906" lon="1.55425">
        <ele>355.2</ele>
        <time>2022-08-08T10:10:44Z</time>
      </trkpt>
      <trkpt lat="44.62893" lon="1.55419">
        <ele>355.9</ele>
        <time>2022-08-08T10:10:46Z</time>
      </trkpt>
      <trkpt lat="44.62885" lon="1.55392">
        <ele>350.4</ele>
        <time>2022-08-08T10:10:48Z</time>
      </trkpt>
      <trkpt lat="44.62888" lon="1.55369">
        <ele>344.3</ele>
        <time>2022-08-08T10:10:50Z</time>
      </trkpt>
      <trkpt lat="44.62885" lon="1.55348">
        <ele>339.4</ele>
        <time>2022-08-08T10:10:52Z</time>
      </trkpt>
      <trkpt lat="44.6288" lon="1.55332">
        <ele>336.2</ele>
        <time>2022-08-08T10:10:54Z</time>
      </trkpt>
      <trkpt lat="44.62869" lon="1.55319">
        <ele>335.2</ele>
        <time>2022-08-08T10:10:56Z</time>
      </trkpt>
      <trkpt lat="44.62854" lon="1.5531">
        <ele>334.8</ele>
        <time>2022-08-08T10:10:58Z</time>
      </trkpt>
      <trkpt lat="44.62839" lon="1.55302">
        <ele>334</ele>
        <time>2022-08-08T10:11:00Z</time>
      </trkpt>
      <trkpt lat="44.62823" lon="1.55292">
        <ele>332</ele>
        <time>2022-08-08T10:11:02Z</time>
      </trkpt>
      <trkpt lat="44.62806" lon="1.55286">
        <ele>330.5</ele>
        <time>2022-08-08T10:11:04Z</time>
      </trkpt>
      <trkpt lat="44.62789" lon="1.55283">
        <ele>329.6</ele>
        <time>2022-08-08T10:11:06Z</time>
      </trkpt>
      <trkpt lat="44.62771" lon="1.55284">
        <ele>329.5</ele>
        <time>2022-08-08T10:11:08Z</time>
      </trkpt>
      <trkpt lat="44.62752" lon="1.55284">
        <ele>329.5</ele>
        <time>2022-08-08T10:11:10Z</time>
      </trkpt>
      <trkpt lat="44.62735" lon="1.55286">
        <ele>328.6</ele>
        <time>2022-08-08T10:11:12Z</time>
      </trkpt>
      <trkpt lat="44.62718" lon="1.55289">
        <ele>327.6</ele>
        <time>2022-08-08T10:11:14Z</time>
      </trkpt>
      <trkpt lat="44.627" lon="1.55292">
        <ele>326.8</ele>
        <time>2022-08-08T10:11:16Z</time>
      </trkpt>
      <trkpt lat="44.62683" lon="1.55297">
        <ele>326.2</ele>
        <time>2022-08-08T10:11:18Z</time>
      </trkpt>
      <trkpt lat="44.62666" lon="1.55304">
        <ele>326</ele>
        <time>2022-08-08T10:11:20Z</time>
      </trkpt>
      <trkpt lat="44.62652" lon="1.55315">
        <ele>328.2</ele>
        <time>2022-08-08T10:11:22Z</time>
      </trkpt>
      <trkpt lat="44.6264" lon="1.5533">
        <ele>331.7</ele>
        <time>2022-08-08T10:11:24Z</time>
      </trkpt>
      <trkpt lat="44.62627" lon="1.55336">
        <ele>333.1</ele>
        <time>2022-08-08T10:11:26Z</time>
      </trkpt>
      <trkpt lat="44.62613" lon="1.55329">
        <ele>331.7</ele>
        <time>2022-08-08T10:11:28Z</time>
      </trkpt>
      <trkpt lat="44.62606" lon="1.55313">
        <ele>328</ele>
        <time>2022-08-08T10:11:30Z</time>
      </trkpt>
      <trkpt lat="44.62596" lon="1.55297">
        <ele>324.2</ele>
        <time>2022-08-08T10:11:32Z</time>
      </trkpt>
      <trkpt lat="44.62582" lon="1.55286">
        <ele>321.8</ele>
        <time>2022-08-08T10:11:34Z</time>
      </trkpt>
      <trkpt lat="44.62566" lon="1.55278">
        <ele>320.7</ele>
        <time>2022-08-08T10:11:36Z</time>
      </trkpt>
      <trkpt lat="44.62549" lon="1.55268">
        <ele>319.2</ele>
        <time>2022-08-08T10:11:38Z</time>
      </trkpt>
      <trkpt lat="44.6253" lon="1.55258">
        <ele>317.3</ele>
        <time>2022-08-08T10:11:40Z</time>
      </trkpt>
      <trkpt lat="44.6251" lon="1.55248">
        <ele>315.6</ele>
        <time>2022-08-08T10:11:42Z</time>
      </trkpt>
      <trkpt lat="44.6249" lon="1.55242">
        <ele>315.8</ele>
        <time>2022-08-08T10:11:44Z</time>
      </trkpt>
      <trkpt lat="44.62471" lon="1.55237">
        <ele>315.5</ele>
        <time>2022-08-08T10:11:46Z</time>
      </trkpt>
      <trkpt lat="44.62453" lon="1.55233">
        <ele>315</ele>
        <time>2022-08-08T10:11:48Z</time>
      </trkpt>
      <trkpt lat="44.62432" lon="1.55227">
        <ele>314.1</ele>
        <time>2022-08-08T10:11:50Z</time>
      </trkpt>
      <trkpt lat="44.62414" lon="1.55222">
        <ele>313.4</ele>
        <time>2022-08-08T10:11:52Z</time>
      </trkpt>
      <trkpt lat="44.62395" lon="1.55214">
        <ele>313.4</ele>
        <time>2022-08-08T10:11:54Z</time>
      </trkpt>
      <trkpt lat="44.62376" lon="1.55207">
        <ele>313.1</ele>
        <time>2022-08-08T10:11:56Z</time>
      </trkpt>
      <trkpt lat="44.62355" lon="1.55197">
        <ele>311.4</ele>
        <time>2022-08-08T10:11:58Z</time>
      </trkpt>
      <trkpt lat="44.62334" lon="1.55185">
        <ele>308.7</ele>
        <time>2022-08-08T10:12:00Z</time>
      </trkpt>
      <trkpt lat="44.62313" lon="1.55174">
        <ele>306.9</ele>
        <time>2022-08-08T10:12:02Z</time>
      </trkpt>
      <trkpt lat="44.62291" lon="1.55165">
        <ele>306.1</ele>
        <time>2022-08-08T10:12:04Z</time>
      </trkpt>
      <trkpt lat="44.62269" lon="1.55157">
        <ele>307</ele>
        <time>2022-08-08T10:12:06Z</time>
      </trkpt>
      <trkpt lat="44.62246" lon="1.5515">
        <ele>306.9</ele>
        <time>2022-08-08T10:12:08Z</time>
      </trkpt>
      <trkpt lat="44.62224" lon="1.55142">
        <ele>304.7</ele>
        <time>2022-08-08T10:12:10Z</time>
      </trkpt>
      <trkpt lat="44.622" lon="1.55132">
        <ele>302.4</ele>
        <time>2022-08-08T10:12:12Z</time>
      </trkpt>
      <trkpt lat="44.62179" lon="1.55125">
        <ele>300.5</ele>
        <time>2022-08-08T10:12:14Z</time>
      </trkpt>
      <trkpt lat="44.62158" lon="1.55119">
        <ele>298.5</ele>
        <time>2022-08-08T10:12:16Z</time>
      </trkpt>
      <trkpt lat="44.62139" lon="1.55118">
        <ele>296.8</ele>
        <time>2022-08-08T10:12:18Z</time>
      </trkpt>
      <trkpt lat="44.62116" lon="1.55119">
        <ele>294.9</ele>
        <time>2022-08-08T10:12:20Z</time>
      </trkpt>
      <trkpt lat="44.62093" lon="1.55123">
        <ele>292.6</ele>
        <time>2022-08-08T10:12:22Z</time>
      </trkpt>
      <trkpt lat="44.62072" lon="1.55125">
        <ele>291</ele>
        <time>2022-08-08T10:12:24Z</time>
      </trkpt>
      <trkpt lat="44.62055" lon="1.55152">
        <ele>289.2</ele>
        <time>2022-08-08T10:12:26Z</time>
      </trkpt>
      <trkpt lat="44.62034" lon="1.55157">
        <ele>289.2</ele>
        <time>2022-08-08T10:12:28Z</time>
      </trkpt>
      <trkpt lat="44.62022" lon="1.55176">
        <ele>290.8</ele>
        <time>2022-08-08T10:12:30Z</time>
      </trkpt>
      <trkpt lat="44.62018" lon="1.55195">
        <ele>293.9</ele>
        <time>2022-08-08T10:12:32Z</time>
      </trkpt>
      <trkpt lat="44.62024" lon="1.55217">
        <ele>296.6</ele>
        <time>2022-08-08T10:12:34Z</time>
      </trkpt>
      <trkpt lat="44.62038" lon="1.55253">
        <ele>298.6</ele>
        <time>2022-08-08T10:12:36Z</time>
      </trkpt>
      <trkpt lat="44.61962" lon="1.55125">
        <ele>297.8</ele>
        <time>2022-08-08T10:12:38Z</time>
      </trkpt>
      <trkpt lat="44.61956" lon="1.55106">
        <ele>296.4</ele>
        <time>2022-08-08T10:12:40Z</time>
      </trkpt>
      <trkpt lat="44.61951" lon="1.55087">
        <ele>294.3</ele>
        <time>2022-08-08T10:12:42Z</time>
      </trkpt>
      <trkpt lat="44.61945" lon="1.55071">
        <ele>293.6</ele>
        <time>2022-08-08T10:12:44Z</time>
      </trkpt>
      <trkpt lat="44.61938" lon="1.55056">
        <ele>292.7</ele>
        <time>2022-08-08T10:12:46Z</time>
      </trkpt>
      <trkpt lat="44.61931" lon="1.55041">
        <ele>291.1</ele>
        <time>2022-08-08T10:12:48Z</time>
      </trkpt>
      <trkpt lat="44.61921" lon="1.55028">
        <ele>288.7</ele>
        <time>2022-08-08T10:12:50Z</time>
      </trkpt>
      <trkpt lat="44.61912" lon="1.55016">
        <ele>286.5</ele>
        <time>2022-08-08T10:12:52Z</time>
      </trkpt>
      <trkpt lat="44.61903" lon="1.55005">
        <ele>285.3</ele>
        <time>2022-08-08T10:12:54Z</time>
      </trkpt>
      <trkpt lat="44.61893" lon="1.54995">
        <ele>285</ele>
        <time>2022-08-08T10:12:56Z</time>
      </trkpt>
      <trkpt lat="44.61883" lon="1.54986">
        <ele>285.3</ele>
        <time>2022-08-08T10:12:58Z</time>
      </trkpt>
      <trkpt lat="44.61873" lon="1.54976">
        <ele>285.2</ele>
        <time>2022-08-08T10:13:00Z</time>
      </trkpt>
      <trkpt lat="44.61864" lon="1.54969">
        <ele>284.9</ele>
        <time>2022-08-08T10:13:02Z</time>
      </trkpt>
      <trkpt lat="44.61854" lon="1.54963">
        <ele>284.4</ele>
        <time>2022-08-08T10:13:04Z</time>
      </trkpt>
      <trkpt lat="44.61844" lon="1.54958">
        <ele>283.8</ele>
        <time>2022-08-08T10:13:06Z</time>
      </trkpt>
      <trkpt lat="44.61834" lon="1.54952">
        <ele>282.9</ele>
        <time>2022-08-08T10:13:08Z</time>
      </trkpt>
      <trkpt lat="44.61825" lon="1.54947">
        <ele>282.3</ele>
        <time>2022-08-08T10:13:10Z</time>
      </trkpt>
      <trkpt lat="44.61815" lon="1.54943">
        <ele>281.8</ele>
        <time>2022-08-08T10:13:12Z</time>
      </trkpt>
      <trkpt lat="44.61805" lon="1.5494">
        <ele>281.3</ele>
        <time>2022-08-08T10:13:14Z</time>
      </trkpt>
      <trkpt lat="44.61796" lon="1.54937">
        <ele>281</ele>
        <time>2022-08-08T10:13:16Z</time>
      </trkpt>
      <trkpt lat="44.61786" lon="1.54934">
        <ele>280.6</ele>
        <time>2022-08-08T10:13:18Z</time>
      </trkpt>
      <trkpt lat="44.61775" lon="1.5493">
        <ele>280</ele>
        <time>2022-08-08T10:13:20Z</time>
      </trkpt>
      <trkpt lat="44.61765" lon="1.54925">
        <ele>279.4</ele>
        <time>2022-08-08T10:13:22Z</time>
      </trkpt>
      <trkpt lat="44.61755" lon="1.54919">
        <ele>278.3</ele>
        <time>2022-08-08T10:13:24Z</time>
      </trkpt>
      <trkpt lat="44.61746" lon="1.5491">
        <ele>279.1</ele>
        <time>2022-08-08T10:13:26Z</time>
      </trkpt>
      <trkpt lat="44.61737" lon="1.549">
        <ele>281</ele>
        <time>2022-08-08T10:13:28Z</time>
      </trkpt>
      <trkpt lat="44.61729" lon="1.54889">
        <ele>282.5</ele>
        <time>2022-08-08T10:13:30Z</time>
      </trkpt>
      <trkpt lat="44.61721" lon="1.54879">
        <ele>283.6</ele>
        <time>2022-08-08T10:13:32Z</time>
      </trkpt>
      <trkpt lat="44.61713" lon="1.54869">
        <ele>284.5</ele>
        <time>2022-08-08T10:13:34Z</time>
      </trkpt>
      <trkpt lat="44.61705" lon="1.54858">
        <ele>285</ele>
        <time>2022-08-08T10:13:36Z</time>
      </trkpt>
      <trkpt lat="44.61696" lon="1.54846">
        <ele>285.1</ele>
        <time>2022-08-08T10:13:38Z</time>
      </trkpt>
      <trkpt lat="44.61689" lon="1.54832">
        <ele>284.5</ele>
        <time>2022-08-08T10:13:40Z</time>
      </trkpt>
      <trkpt lat="44.61683" lon="1.54818">
        <ele>284.4</ele>
        <time>2022-08-08T10:13:42Z</time>
      </trkpt>
      <trkpt lat="44.61678" lon="1.54802">
        <ele>283.7</ele>
        <time>2022-08-08T10:13:44Z</time>
      </trkpt>
      <trkpt lat="44.61676" lon="1.54785">
        <ele>282.6</ele>
        <time>2022-08-08T10:13:46Z</time>
      </trkpt>
      <trkpt lat="44.61674" lon="1.54768">
        <ele>281.3</ele>
        <time>2022-08-08T10:13:48Z</time>
      </trkpt>
      <trkpt lat="44.61672" lon="1.54751">
        <ele>280</ele>
        <time>2022-08-08T10:13:50Z</time>
      </trkpt>
      <trkpt lat="44.61672" lon="1.54734">
        <ele>279.7</ele>
        <time>2022-08-08T10:13:52Z</time>
      </trkpt>
      <trkpt lat="44.61671" lon="1.54717">
        <ele>279.6</ele>
        <time>2022-08-08T10:13:54Z</time>
      </trkpt>
      <trkpt lat="44.6167" lon="1.547">
        <ele>279.4</ele>
        <time>2022-08-08T10:13:56Z</time>
      </trkpt>
      <trkpt lat="44.61669" lon="1.54683">
        <ele>279.2</ele>
        <time>2022-08-08T10:13:58Z</time>
      </trkpt>
      <trkpt lat="44.61667" lon="1.54665">
        <ele>278.9</ele>
        <time>2022-08-08T10:14:00Z</time>
      </trkpt>
      <trkpt lat="44.61664" lon="1.54647">
        <ele>279.2</ele>
        <time>2022-08-08T10:14:02Z</time>
      </trkpt>
      <trkpt lat="44.6166" lon="1.5463">
        <ele>279.8</ele>
        <time>2022-08-08T10:14:04Z</time>
      </trkpt>
      <trkpt lat="44.61656" lon="1.54613">
        <ele>280.3</ele>
        <time>2022-08-08T10:14:06Z</time>
      </trkpt>
      <trkpt lat="44.61651" lon="1.54598">
        <ele>280.8</ele>
        <time>2022-08-08T10:14:08Z</time>
      </trkpt>
      <trkpt lat="44.61646" lon="1.54583">
        <ele>281.3</ele>
        <time>2022-08-08T10:14:10Z</time>
      </trkpt>
      <trkpt lat="44.6164" lon="1.54568">
        <ele>281.5</ele>
        <time>2022-08-08T10:14:12Z</time>
      </trkpt>
      <trkpt lat="44.61634" lon="1.54554">
        <ele>281.3</ele>
        <time>2022-08-08T10:14:14Z</time>
      </trkpt>
      <trkpt lat="44.61627" lon="1.54541">
        <ele>280.9</ele>
        <time>2022-08-08T10:14:16Z</time>
      </trkpt>
      <trkpt lat="44.61621" lon="1.54527">
        <ele>279.9</ele>
        <time>2022-08-08T10:14:18Z</time>
      </trkpt>
      <trkpt lat="44.61613" lon="1.54517">
        <ele>279.1</ele>
        <time>2022-08-08T10:14:20Z</time>
      </trkpt>
      <trkpt lat="44.61604" lon="1.54507">
        <ele>277.8</ele>
        <time>2022-08-08T10:14:22Z</time>
      </trkpt>
      <trkpt lat="44.61595" lon="1.54499">
        <ele>276.5</ele>
        <time>2022-08-08T10:14:24Z</time>
      </trkpt>
      <trkpt lat="44.61585" lon="1.54493">
        <ele>276.3</ele>
        <time>2022-08-08T10:14:26Z</time>
      </trkpt>
      <trkpt lat="44.61576" lon="1.54488">
        <ele>276.3</ele>
        <time>2022-08-08T10:14:28Z</time>
      </trkpt>
      <trkpt lat="44.61566" lon="1.54483">
        <ele>276.3</ele>
        <time>2022-08-08T10:14:30Z</time>
      </trkpt>
      <trkpt lat="44.61556" lon="1.54477">
        <ele>276.2</ele>
        <time>2022-08-08T10:14:32Z</time>
      </trkpt>
      <trkpt lat="44.61545" lon="1.54473">
        <ele>275.9</ele>
        <time>2022-08-08T10:14:34Z</time>
      </trkpt>
      <trkpt lat="44.61535" lon="1.54467">
        <ele>275.4</ele>
        <time>2022-08-08T10:14:36Z</time>
      </trkpt>
      <trkpt lat="44.61524" lon="1.54463">
        <ele>275</ele>
        <time>2022-08-08T10:14:38Z</time>
      </trkpt>
      <trkpt lat="44.61513" lon="1.54461">
        <ele>274.8</ele>
        <time>2022-08-08T10:14:40Z</time>
      </trkpt>
      <trkpt lat="44.61502" lon="1.54461">
        <ele>275</ele>
        <time>2022-08-08T10:14:42Z</time>
      </trkpt>
      <trkpt lat="44.61491" lon="1.54463">
        <ele>275.1</ele>
        <time>2022-08-08T10:14:44Z</time>
      </trkpt>
      <trkpt lat="44.61479" lon="1.54465">
        <ele>274.9</ele>
        <time>2022-08-08T10:14:46Z</time>
      </trkpt>
      <trkpt lat="44.61467" lon="1.54469">
        <ele>275.1</ele>
        <time>2022-08-08T10:14:48Z</time>
      </trkpt>
      <trkpt lat="44.61456" lon="1.54472">
        <ele>275.2</ele>
        <time>2022-08-08T10:14:50Z</time>
      </trkpt>
      <trkpt lat="44.61444" lon="1.54475">
        <ele>275.1</ele>
        <time>2022-08-08T10:14:52Z</time>
      </trkpt>
      <trkpt lat="44.61432" lon="1.54478">
        <ele>274.8</ele>
        <time>2022-08-08T10:14:54Z</time>
      </trkpt>
      <trkpt lat="44.6142" lon="1.54481">
        <ele>274.4</ele>
        <time>2022-08-08T10:14:56Z</time>
      </trkpt>
      <trkpt lat="44.61408" lon="1.54484">
        <ele>274.1</ele>
        <time>2022-08-08T10:14:58Z</time>
      </trkpt>
      <trkpt lat="44.61396" lon="1.54486">
        <ele>273.6</ele>
        <time>2022-08-08T10:15:00Z</time>
      </trkpt>
      <trkpt lat="44.61385" lon="1.54489">
        <ele>273.3</ele>
        <time>2022-08-08T10:15:02Z</time>
      </trkpt>
      <trkpt lat="44.61373" lon="1.54493">
        <ele>272.9</ele>
        <time>2022-08-08T10:15:04Z</time>
      </trkpt>
      <trkpt lat="44.61361" lon="1.54497">
        <ele>272.6</ele>
        <time>2022-08-08T10:15:06Z</time>
      </trkpt>
      <trkpt lat="44.61349" lon="1.54501">
        <ele>272.5</ele>
        <time>2022-08-08T10:15:08Z</time>
      </trkpt>
      <trkpt lat="44.61338" lon="1.54506">
        <ele>273.2</ele>
        <time>2022-08-08T10:15:10Z</time>
      </trkpt>
      <trkpt lat="44.61327" lon="1.54508">
        <ele>273.1</ele>
        <time>2022-08-08T10:15:12Z</time>
      </trkpt>
      <trkpt lat="44.61316" lon="1.54511">
        <ele>272.8</ele>
        <time>2022-08-08T10:15:14Z</time>
      </trkpt>
      <trkpt lat="44.61305" lon="1.54514">
        <ele>272.7</ele>
        <time>2022-08-08T10:15:16Z</time>
      </trkpt>
      <trkpt lat="44.61297" lon="1.54516">
        <ele>272.4</ele>
        <time>2022-08-08T10:15:18Z</time>
      </trkpt>
      <trkpt lat="44.61291" lon="1.54516">
        <ele>271.8</ele>
        <time>2022-08-08T10:15:20Z</time>
      </trkpt>
      <trkpt lat="44.61289" lon="1.54516">
        <ele>271.6</ele>
        <time>2022-08-08T10:15:22Z</time>
      </trkpt>
      <trkpt lat="44.61289" lon="1.54516">
        <ele>271.6</ele>
        <time>2022-08-08T10:15:24Z</time>
      </trkpt>
      <trkpt lat="44.61289" lon="1.54516">
        <ele>271.7</ele>
        <time>2022-08-08T10:15:26Z</time>
      </trkpt>
      <trkpt lat="44.61289" lon="1.54516">
        <ele>271.7</ele>
        <time>2022-08-08T10:15:28Z</time>
      </trkpt>
      <trkpt lat="44.61289" lon="1.54516">
        <ele>271.6</ele>
        <time>2022-08-08T10:15:30Z</time>
      </trkpt>
      <trkpt lat="44.61266" lon="1.54525">
        <ele>271.4</ele>
        <time>2022-08-08T10:15:48Z</time>
      </trkpt>
      <trkpt lat="44.61258" lon="1.54529">
        <ele>271.5</ele>
        <time>2022-08-08T10:15:50Z</time>
      </trkpt>
      <trkpt lat="44.6125" lon="1.54533">
        <ele>271.6</ele>
        <time>2022-08-08T10:15:52Z</time>
      </trkpt>
      <trkpt lat="44.61241" lon="1.54538">
        <ele>271.3</ele>
        <time>2022-08-08T10:15:54Z</time>
      </trkpt>
      <trkpt lat="44.61232" lon="1.54543">
        <ele>271.1</ele>
        <time>2022-08-08T10:15:56Z</time>
      </trkpt>
      <trkpt lat="44.61223" lon="1.5455">
        <ele>270.8</ele>
        <time>2022-08-08T10:15:58Z</time>
      </trkpt>
      <trkpt lat="44.61218" lon="1.54553">
        <ele>270.6</ele>
        <time>2022-08-08T10:15:59Z</time>
      </trkpt>
      <trkpt lat="44.61209" lon="1.54561">
        <ele>270.1</ele>
        <time>2022-08-08T10:16:01Z</time>
      </trkpt>
      <trkpt lat="44.612" lon="1.54569">
        <ele>269.4</ele>
        <time>2022-08-08T10:16:03Z</time>
      </trkpt>
      <trkpt lat="44.61192" lon="1.54578">
        <ele>268.5</ele>
        <time>2022-08-08T10:16:05Z</time>
      </trkpt>
      <trkpt lat="44.61184" lon="1.54588">
        <ele>268.3</ele>
        <time>2022-08-08T10:16:07Z</time>
      </trkpt>
      <trkpt lat="44.61176" lon="1.54598">
        <ele>268.6</ele>
        <time>2022-08-08T10:16:09Z</time>
      </trkpt>
      <trkpt lat="44.61169" lon="1.54607">
        <ele>268.8</ele>
        <time>2022-08-08T10:16:11Z</time>
      </trkpt>
      <trkpt lat="44.6116" lon="1.54618">
        <ele>269.6</ele>
        <time>2022-08-08T10:16:13Z</time>
      </trkpt>
      <trkpt lat="44.61153" lon="1.54628">
        <ele>270.6</ele>
        <time>2022-08-08T10:16:15Z</time>
      </trkpt>
      <trkpt lat="44.61145" lon="1.54638">
        <ele>271</ele>
        <time>2022-08-08T10:16:17Z</time>
      </trkpt>
      <trkpt lat="44.61137" lon="1.54647">
        <ele>270.8</ele>
        <time>2022-08-08T10:16:19Z</time>
      </trkpt>
      <trkpt lat="44.61128" lon="1.54655">
        <ele>270.2</ele>
        <time>2022-08-08T10:16:21Z</time>
      </trkpt>
      <trkpt lat="44.6112" lon="1.54663">
        <ele>269.3</ele>
        <time>2022-08-08T10:16:23Z</time>
      </trkpt>
      <trkpt lat="44.61111" lon="1.5467">
        <ele>268.6</ele>
        <time>2022-08-08T10:16:25Z</time>
      </trkpt>
      <trkpt lat="44.61102" lon="1.54678">
        <ele>268.3</ele>
        <time>2022-08-08T10:16:27Z</time>
      </trkpt>
      <trkpt lat="44.61093" lon="1.54684">
        <ele>267.4</ele>
        <time>2022-08-08T10:16:29Z</time>
      </trkpt>
      <trkpt lat="44.61082" lon="1.5469">
        <ele>266.2</ele>
        <time>2022-08-08T10:16:31Z</time>
      </trkpt>
      <trkpt lat="44.61073" lon="1.54698">
        <ele>267.1</ele>
        <time>2022-08-08T10:16:33Z</time>
      </trkpt>
      <trkpt lat="44.61063" lon="1.54705">
        <ele>267.5</ele>
        <time>2022-08-08T10:16:35Z</time>
      </trkpt>
      <trkpt lat="44.61053" lon="1.54713">
        <ele>267.7</ele>
        <time>2022-08-08T10:16:37Z</time>
      </trkpt>
      <trkpt lat="44.61043" lon="1.54721">
        <ele>267.5</ele>
        <time>2022-08-08T10:16:39Z</time>
      </trkpt>
      <trkpt lat="44.61033" lon="1.54728">
        <ele>267</ele>
        <time>2022-08-08T10:16:41Z</time>
      </trkpt>
      <trkpt lat="44.61022" lon="1.54736">
        <ele>266.1</ele>
        <time>2022-08-08T10:16:43Z</time>
      </trkpt>
      <trkpt lat="44.61012" lon="1.54744">
        <ele>264.9</ele>
        <time>2022-08-08T10:16:45Z</time>
      </trkpt>
      <trkpt lat="44.61001" lon="1.54751">
        <ele>263.5</ele>
        <time>2022-08-08T10:16:47Z</time>
      </trkpt>
      <trkpt lat="44.60991" lon="1.54759">
        <ele>263.5</ele>
        <time>2022-08-08T10:16:49Z</time>
      </trkpt>
      <trkpt lat="44.6098" lon="1.54766">
        <ele>263.5</ele>
        <time>2022-08-08T10:16:51Z</time>
      </trkpt>
      <trkpt lat="44.60969" lon="1.54773">
        <ele>263.4</ele>
        <time>2022-08-08T10:16:53Z</time>
      </trkpt>
      <trkpt lat="44.60959" lon="1.54781">
        <ele>263.2</ele>
        <time>2022-08-08T10:16:55Z</time>
      </trkpt>
      <trkpt lat="44.60949" lon="1.54789">
        <ele>262.9</ele>
        <time>2022-08-08T10:16:57Z</time>
      </trkpt>
      <trkpt lat="44.60938" lon="1.54796">
        <ele>262.4</ele>
        <time>2022-08-08T10:16:59Z</time>
      </trkpt>
      <trkpt lat="44.60927" lon="1.54804">
        <ele>261.8</ele>
        <time>2022-08-08T10:17:01Z</time>
      </trkpt>
      <trkpt lat="44.60918" lon="1.54814">
        <ele>261.3</ele>
        <time>2022-08-08T10:17:03Z</time>
      </trkpt>
      <trkpt lat="44.60908" lon="1.54824">
        <ele>261.4</ele>
        <time>2022-08-08T10:17:05Z</time>
      </trkpt>
      <trkpt lat="44.60899" lon="1.54834">
        <ele>261.5</ele>
        <time>2022-08-08T10:17:07Z</time>
      </trkpt>
      <trkpt lat="44.6089" lon="1.54845">
        <ele>262</ele>
        <time>2022-08-08T10:17:09Z</time>
      </trkpt>
      <trkpt lat="44.6088" lon="1.54856">
        <ele>262.3</ele>
        <time>2022-08-08T10:17:11Z</time>
      </trkpt>
      <trkpt lat="44.60871" lon="1.54866">
        <ele>262.1</ele>
        <time>2022-08-08T10:17:13Z</time>
      </trkpt>
      <trkpt lat="44.60862" lon="1.54876">
        <ele>261.6</ele>
        <time>2022-08-08T10:17:15Z</time>
      </trkpt>
      <trkpt lat="44.60854" lon="1.54887">
        <ele>260.9</ele>
        <time>2022-08-08T10:17:17Z</time>
      </trkpt>
      <trkpt lat="44.60844" lon="1.54898">
        <ele>259.7</ele>
        <time>2022-08-08T10:17:19Z</time>
      </trkpt>
      <trkpt lat="44.60834" lon="1.54909">
        <ele>257.9</ele>
        <time>2022-08-08T10:17:21Z</time>
      </trkpt>
      <trkpt lat="44.60826" lon="1.54921">
        <ele>257.9</ele>
        <time>2022-08-08T10:17:23Z</time>
      </trkpt>
      <trkpt lat="44.60817" lon="1.54933">
        <ele>258.3</ele>
        <time>2022-08-08T10:17:25Z</time>
      </trkpt>
      <trkpt lat="44.60809" lon="1.54945">
        <ele>258.6</ele>
        <time>2022-08-08T10:17:27Z</time>
      </trkpt>
      <trkpt lat="44.60802" lon="1.54958">
        <ele>258.6</ele>
        <time>2022-08-08T10:17:29Z</time>
      </trkpt>
      <trkpt lat="44.60793" lon="1.54971">
        <ele>258.2</ele>
        <time>2022-08-08T10:17:31Z</time>
      </trkpt>
      <trkpt lat="44.60787" lon="1.54985">
        <ele>257.8</ele>
        <time>2022-08-08T10:17:33Z</time>
      </trkpt>
      <trkpt lat="44.60779" lon="1.54998">
        <ele>256.9</ele>
        <time>2022-08-08T10:17:35Z</time>
      </trkpt>
      <trkpt lat="44.60771" lon="1.55012">
        <ele>256.4</ele>
        <time>2022-08-08T10:17:37Z</time>
      </trkpt>
      <trkpt lat="44.60765" lon="1.55026">
        <ele>256.1</ele>
        <time>2022-08-08T10:17:39Z</time>
      </trkpt>
      <trkpt lat="44.60757" lon="1.5504">
        <ele>255.6</ele>
        <time>2022-08-08T10:17:41Z</time>
      </trkpt>
      <trkpt lat="44.6075" lon="1.55053">
        <ele>254.8</ele>
        <time>2022-08-08T10:17:43Z</time>
      </trkpt>
      <trkpt lat="44.60742" lon="1.55065">
        <ele>255.9</ele>
        <time>2022-08-08T10:17:45Z</time>
      </trkpt>
      <trkpt lat="44.60736" lon="1.55079">
        <ele>256.6</ele>
        <time>2022-08-08T10:17:47Z</time>
      </trkpt>
      <trkpt lat="44.6073" lon="1.55091">
        <ele>257</ele>
        <time>2022-08-08T10:17:49Z</time>
      </trkpt>
      <trkpt lat="44.60724" lon="1.55104">
        <ele>257.3</ele>
        <time>2022-08-08T10:17:51Z</time>
      </trkpt>
      <trkpt lat="44.60718" lon="1.55118">
        <ele>257.3</ele>
        <time>2022-08-08T10:17:53Z</time>
      </trkpt>
      <trkpt lat="44.60714" lon="1.55132">
        <ele>257.2</ele>
        <time>2022-08-08T10:17:55Z</time>
      </trkpt>
      <trkpt lat="44.6071" lon="1.55148">
        <ele>257.1</ele>
        <time>2022-08-08T10:17:57Z</time>
      </trkpt>
      <trkpt lat="44.60706" lon="1.55163">
        <ele>256.8</ele>
        <time>2022-08-08T10:17:59Z</time>
      </trkpt>
      <trkpt lat="44.60703" lon="1.55178">
        <ele>256.6</ele>
        <time>2022-08-08T10:18:01Z</time>
      </trkpt>
      <trkpt lat="44.607" lon="1.55194">
        <ele>256.5</ele>
        <time>2022-08-08T10:18:03Z</time>
      </trkpt>
      <trkpt lat="44.60696" lon="1.55209">
        <ele>256.2</ele>
        <time>2022-08-08T10:18:05Z</time>
      </trkpt>
      <trkpt lat="44.60693" lon="1.55225">
        <ele>255.8</ele>
        <time>2022-08-08T10:18:07Z</time>
      </trkpt>
      <trkpt lat="44.60691" lon="1.5524">
        <ele>255.5</ele>
        <time>2022-08-08T10:18:09Z</time>
      </trkpt>
      <trkpt lat="44.60688" lon="1.55256">
        <ele>254.9</ele>
        <time>2022-08-08T10:18:11Z</time>
      </trkpt>
      <trkpt lat="44.60685" lon="1.55271">
        <ele>254.3</ele>
        <time>2022-08-08T10:18:13Z</time>
      </trkpt>
      <trkpt lat="44.60682" lon="1.55287">
        <ele>253.7</ele>
        <time>2022-08-08T10:18:15Z</time>
      </trkpt>
      <trkpt lat="44.60679" lon="1.55301">
        <ele>253.4</ele>
        <time>2022-08-08T10:18:17Z</time>
      </trkpt>
      <trkpt lat="44.60676" lon="1.55316">
        <ele>253.1</ele>
        <time>2022-08-08T10:18:19Z</time>
      </trkpt>
      <trkpt lat="44.60672" lon="1.5533">
        <ele>252.8</ele>
        <time>2022-08-08T10:18:21Z</time>
      </trkpt>
      <trkpt lat="44.60669" lon="1.55344">
        <ele>252.2</ele>
        <time>2022-08-08T10:18:23Z</time>
      </trkpt>
      <trkpt lat="44.60667" lon="1.5536">
        <ele>251.7</ele>
        <time>2022-08-08T10:18:25Z</time>
      </trkpt>
      <trkpt lat="44.60664" lon="1.55371">
        <ele>251.5</ele>
        <time>2022-08-08T10:18:27Z</time>
      </trkpt>
      <trkpt lat="44.60661" lon="1.55372">
        <ele>251.4</ele>
        <time>2022-08-08T10:18:29Z</time>
      </trkpt>
      <trkpt lat="44.60661" lon="1.55373">
        <ele>251.4</ele>
        <time>2022-08-08T10:18:31Z</time>
      </trkpt>
      <trkpt lat="44.60658" lon="1.55377">
        <ele>251.3</ele>
        <time>2022-08-08T10:18:33Z</time>
      </trkpt>
      <trkpt lat="44.60658" lon="1.55376">
        <ele>251.3</ele>
        <time>2022-08-08T10:18:35Z</time>
      </trkpt>
      <trkpt lat="44.60657" lon="1.55376">
        <ele>251.3</ele>
        <time>2022-08-08T10:18:37Z</time>
      </trkpt>
      <trkpt lat="44.60659" lon="1.554">
        <ele>251</ele>
        <time>2022-08-08T10:19:31Z</time>
      </trkpt>
      <trkpt lat="44.60657" lon="1.55411">
        <ele>250.8</ele>
        <time>2022-08-08T10:19:33Z</time>
      </trkpt>
      <trkpt lat="44.60654" lon="1.55422">
        <ele>251.1</ele>
        <time>2022-08-08T10:19:35Z</time>
      </trkpt>
      <trkpt lat="44.60651" lon="1.55435">
        <ele>252</ele>
        <time>2022-08-08T10:19:37Z</time>
      </trkpt>
      <trkpt lat="44.60646" lon="1.55446">
        <ele>252.7</ele>
        <time>2022-08-08T10:19:39Z</time>
      </trkpt>
      <trkpt lat="44.60641" lon="1.55458">
        <ele>253.1</ele>
        <time>2022-08-08T10:19:41Z</time>
      </trkpt>
      <trkpt lat="44.60635" lon="1.5547">
        <ele>253.4</ele>
        <time>2022-08-08T10:19:43Z</time>
      </trkpt>
      <trkpt lat="44.60628" lon="1.5548">
        <ele>253.4</ele>
        <time>2022-08-08T10:19:45Z</time>
      </trkpt>
      <trkpt lat="44.60621" lon="1.55489">
        <ele>253.1</ele>
        <time>2022-08-08T10:19:47Z</time>
      </trkpt>
      <trkpt lat="44.60613" lon="1.55497">
        <ele>252.5</ele>
        <time>2022-08-08T10:19:49Z</time>
      </trkpt>
      <trkpt lat="44.60606" lon="1.55505">
        <ele>252.7</ele>
        <time>2022-08-08T10:19:51Z</time>
      </trkpt>
      <trkpt lat="44.60597" lon="1.55512">
        <ele>253.2</ele>
        <time>2022-08-08T10:19:53Z</time>
      </trkpt>
      <trkpt lat="44.60588" lon="1.55518">
        <ele>253.4</ele>
        <time>2022-08-08T10:19:55Z</time>
      </trkpt>
      <trkpt lat="44.6058" lon="1.55524">
        <ele>254</ele>
        <time>2022-08-08T10:19:57Z</time>
      </trkpt>
      <trkpt lat="44.60571" lon="1.55531">
        <ele>254.9</ele>
        <time>2022-08-08T10:19:59Z</time>
      </trkpt>
      <trkpt lat="44.60561" lon="1.55537">
        <ele>255.4</ele>
        <time>2022-08-08T10:20:01Z</time>
      </trkpt>
      <trkpt lat="44.60552" lon="1.55543">
        <ele>255.8</ele>
        <time>2022-08-08T10:20:03Z</time>
      </trkpt>
      <trkpt lat="44.60542" lon="1.55548">
        <ele>255.9</ele>
        <time>2022-08-08T10:20:05Z</time>
      </trkpt>
      <trkpt lat="44.60532" lon="1.55552">
        <ele>255.5</ele>
        <time>2022-08-08T10:20:07Z</time>
      </trkpt>
      <trkpt lat="44.60521" lon="1.55555">
        <ele>255</ele>
        <time>2022-08-08T10:20:09Z</time>
      </trkpt>
      <trkpt lat="44.6051" lon="1.55558">
        <ele>254.3</ele>
        <time>2022-08-08T10:20:11Z</time>
      </trkpt>
      <trkpt lat="44.605" lon="1.55559">
        <ele>253.3</ele>
        <time>2022-08-08T10:20:13Z</time>
      </trkpt>
      <trkpt lat="44.60488" lon="1.5556">
        <ele>252.7</ele>
        <time>2022-08-08T10:20:15Z</time>
      </trkpt>
      <trkpt lat="44.60477" lon="1.5556">
        <ele>252</ele>
        <time>2022-08-08T10:20:17Z</time>
      </trkpt>
      <trkpt lat="44.60466" lon="1.55562">
        <ele>251.4</ele>
        <time>2022-08-08T10:20:19Z</time>
      </trkpt>
      <trkpt lat="44.60454" lon="1.55564">
        <ele>250.6</ele>
        <time>2022-08-08T10:20:21Z</time>
      </trkpt>
      <trkpt lat="44.60442" lon="1.55565">
        <ele>249.8</ele>
        <time>2022-08-08T10:20:23Z</time>
      </trkpt>
      <trkpt lat="44.6043" lon="1.55566">
        <ele>249</ele>
        <time>2022-08-08T10:20:25Z</time>
      </trkpt>
      <trkpt lat="44.60418" lon="1.55567">
        <ele>248.1</ele>
        <time>2022-08-08T10:20:27Z</time>
      </trkpt>
      <trkpt lat="44.60405" lon="1.55567">
        <ele>247.7</ele>
        <time>2022-08-08T10:20:29Z</time>
      </trkpt>
      <trkpt lat="44.60393" lon="1.55569">
        <ele>247.5</ele>
        <time>2022-08-08T10:20:31Z</time>
      </trkpt>
      <trkpt lat="44.6038" lon="1.5557">
        <ele>247.2</ele>
        <time>2022-08-08T10:20:33Z</time>
      </trkpt>
      <trkpt lat="44.60367" lon="1.55571">
        <ele>246.9</ele>
        <time>2022-08-08T10:20:35Z</time>
      </trkpt>
      <trkpt lat="44.60354" lon="1.55572">
        <ele>246.6</ele>
        <time>2022-08-08T10:20:37Z</time>
      </trkpt>
      <trkpt lat="44.60342" lon="1.55574">
        <ele>246.3</ele>
        <time>2022-08-08T10:20:39Z</time>
      </trkpt>
      <trkpt lat="44.60329" lon="1.55575">
        <ele>246</ele>
        <time>2022-08-08T10:20:41Z</time>
      </trkpt>
      <trkpt lat="44.60316" lon="1.55575">
        <ele>245.9</ele>
        <time>2022-08-08T10:20:43Z</time>
      </trkpt>
      <trkpt lat="44.60303" lon="1.55577">
        <ele>245.7</ele>
        <time>2022-08-08T10:20:45Z</time>
      </trkpt>
      <trkpt lat="44.6029" lon="1.55579">
        <ele>245.5</ele>
        <time>2022-08-08T10:20:47Z</time>
      </trkpt>
      <trkpt lat="44.60277" lon="1.5558">
        <ele>245.4</ele>
        <time>2022-08-08T10:20:49Z</time>
      </trkpt>
      <trkpt lat="44.60264" lon="1.55583">
        <ele>245.2</ele>
        <time>2022-08-08T10:20:51Z</time>
      </trkpt>
      <trkpt lat="44.60251" lon="1.55584">
        <ele>245.1</ele>
        <time>2022-08-08T10:20:53Z</time>
      </trkpt>
      <trkpt lat="44.60238" lon="1.55585">
        <ele>245.4</ele>
        <time>2022-08-08T10:20:55Z</time>
      </trkpt>
      <trkpt lat="44.60225" lon="1.55586">
        <ele>245.7</ele>
        <time>2022-08-08T10:20:57Z</time>
      </trkpt>
      <trkpt lat="44.60212" lon="1.55587">
        <ele>246.1</ele>
        <time>2022-08-08T10:20:59Z</time>
      </trkpt>
      <trkpt lat="44.60199" lon="1.55588">
        <ele>246.5</ele>
        <time>2022-08-08T10:21:01Z</time>
      </trkpt>
      <trkpt lat="44.60187" lon="1.55589">
        <ele>246.8</ele>
        <time>2022-08-08T10:21:03Z</time>
      </trkpt>
      <trkpt lat="44.60175" lon="1.5559">
        <ele>247.2</ele>
        <time>2022-08-08T10:21:05Z</time>
      </trkpt>
      <trkpt lat="44.60164" lon="1.55592">
        <ele>248.3</ele>
        <time>2022-08-08T10:21:07Z</time>
      </trkpt>
      <trkpt lat="44.60151" lon="1.55594">
        <ele>249.9</ele>
        <time>2022-08-08T10:21:09Z</time>
      </trkpt>
      <trkpt lat="44.6014" lon="1.55594">
        <ele>250.8</ele>
        <time>2022-08-08T10:21:11Z</time>
      </trkpt>
      <trkpt lat="44.60128" lon="1.55594">
        <ele>252.1</ele>
        <time>2022-08-08T10:21:13Z</time>
      </trkpt>
      <trkpt lat="44.60117" lon="1.55593">
        <ele>252.7</ele>
        <time>2022-08-08T10:21:15Z</time>
      </trkpt>
      <trkpt lat="44.60106" lon="1.55591">
        <ele>253</ele>
        <time>2022-08-08T10:21:17Z</time>
      </trkpt>
      <trkpt lat="44.60095" lon="1.55588">
        <ele>253</ele>
        <time>2022-08-08T10:21:19Z</time>
      </trkpt>
      <trkpt lat="44.60085" lon="1.55585">
        <ele>252.4</ele>
        <time>2022-08-08T10:21:21Z</time>
      </trkpt>
      <trkpt lat="44.60075" lon="1.55579">
        <ele>252.8</ele>
        <time>2022-08-08T10:21:23Z</time>
      </trkpt>
      <trkpt lat="44.60065" lon="1.55573">
        <ele>253.3</ele>
        <time>2022-08-08T10:21:25Z</time>
      </trkpt>
      <trkpt lat="44.60055" lon="1.55567">
        <ele>253.7</ele>
        <time>2022-08-08T10:21:27Z</time>
      </trkpt>
      <trkpt lat="44.60045" lon="1.55561">
        <ele>254</ele>
        <time>2022-08-08T10:21:29Z</time>
      </trkpt>
      <trkpt lat="44.60034" lon="1.55556">
        <ele>254.3</ele>
        <time>2022-08-08T10:21:31Z</time>
      </trkpt>
      <trkpt lat="44.60025" lon="1.55548">
        <ele>253.9</ele>
        <time>2022-08-08T10:21:33Z</time>
      </trkpt>
      <trkpt lat="44.60015" lon="1.55543">
        <ele>253.8</ele>
        <time>2022-08-08T10:21:35Z</time>
      </trkpt>
      <trkpt lat="44.60004" lon="1.55538">
        <ele>253.7</ele>
        <time>2022-08-08T10:21:37Z</time>
      </trkpt>
      <trkpt lat="44.59993" lon="1.55535">
        <ele>253.6</ele>
        <time>2022-08-08T10:21:39Z</time>
      </trkpt>
      <trkpt lat="44.59983" lon="1.55531">
        <ele>253.2</ele>
        <time>2022-08-08T10:21:41Z</time>
      </trkpt>
      <trkpt lat="44.59972" lon="1.55528">
        <ele>253.1</ele>
        <time>2022-08-08T10:21:43Z</time>
      </trkpt>
      <trkpt lat="44.59961" lon="1.55526">
        <ele>253</ele>
        <time>2022-08-08T10:21:45Z</time>
      </trkpt>
      <trkpt lat="44.5995" lon="1.55524">
        <ele>253.2</ele>
        <time>2022-08-08T10:21:47Z</time>
      </trkpt>
      <trkpt lat="44.5994" lon="1.55524">
        <ele>253.6</ele>
        <time>2022-08-08T10:21:49Z</time>
      </trkpt>
      <trkpt lat="44.5993" lon="1.55524">
        <ele>254.1</ele>
        <time>2022-08-08T10:21:51Z</time>
      </trkpt>
      <trkpt lat="44.59919" lon="1.55523">
        <ele>254.5</ele>
        <time>2022-08-08T10:21:53Z</time>
      </trkpt>
      <trkpt lat="44.59909" lon="1.55522">
        <ele>253.7</ele>
        <time>2022-08-08T10:21:55Z</time>
      </trkpt>
      <trkpt lat="44.59899" lon="1.55519">
        <ele>252.3</ele>
        <time>2022-08-08T10:21:57Z</time>
      </trkpt>
      <trkpt lat="44.59888" lon="1.55515">
        <ele>250.7</ele>
        <time>2022-08-08T10:21:59Z</time>
      </trkpt>
      <trkpt lat="44.59878" lon="1.55512">
        <ele>249.3</ele>
        <time>2022-08-08T10:22:01Z</time>
      </trkpt>
      <trkpt lat="44.59868" lon="1.55509">
        <ele>247.8</ele>
        <time>2022-08-08T10:22:03Z</time>
      </trkpt>
      <trkpt lat="44.59858" lon="1.55505">
        <ele>246.5</ele>
        <time>2022-08-08T10:22:05Z</time>
      </trkpt>
      <trkpt lat="44.59848" lon="1.55501">
        <ele>245</ele>
        <time>2022-08-08T10:22:07Z</time>
      </trkpt>
      <trkpt lat="44.59838" lon="1.55499">
        <ele>244.1</ele>
        <time>2022-08-08T10:22:09Z</time>
      </trkpt>
      <trkpt lat="44.59828" lon="1.55497">
        <ele>243.7</ele>
        <time>2022-08-08T10:22:11Z</time>
      </trkpt>
      <trkpt lat="44.59817" lon="1.55495">
        <ele>243.5</ele>
        <time>2022-08-08T10:22:13Z</time>
      </trkpt>
      <trkpt lat="44.59807" lon="1.55493">
        <ele>243.2</ele>
        <time>2022-08-08T10:22:15Z</time>
      </trkpt>
      <trkpt lat="44.59796" lon="1.55492">
        <ele>242.9</ele>
        <time>2022-08-08T10:22:17Z</time>
      </trkpt>
      <trkpt lat="44.59785" lon="1.5549">
        <ele>242.6</ele>
        <time>2022-08-08T10:22:19Z</time>
      </trkpt>
      <trkpt lat="44.59774" lon="1.5549">
        <ele>242.4</ele>
        <time>2022-08-08T10:22:21Z</time>
      </trkpt>
      <trkpt lat="44.59763" lon="1.55489">
        <ele>242.1</ele>
        <time>2022-08-08T10:22:23Z</time>
      </trkpt>
      <trkpt lat="44.59752" lon="1.55488">
        <ele>241.9</ele>
        <time>2022-08-08T10:22:25Z</time>
      </trkpt>
      <trkpt lat="44.59741" lon="1.55487">
        <ele>241.9</ele>
        <time>2022-08-08T10:22:27Z</time>
      </trkpt>
      <trkpt lat="44.5973" lon="1.55486">
        <ele>242</ele>
        <time>2022-08-08T10:22:29Z</time>
      </trkpt>
      <trkpt lat="44.59718" lon="1.55485">
        <ele>242.1</ele>
        <time>2022-08-08T10:22:31Z</time>
      </trkpt>
      <trkpt lat="44.59708" lon="1.55485">
        <ele>242.3</ele>
        <time>2022-08-08T10:22:33Z</time>
      </trkpt>
      <trkpt lat="44.59696" lon="1.55485">
        <ele>242.5</ele>
        <time>2022-08-08T10:22:35Z</time>
      </trkpt>
      <trkpt lat="44.59686" lon="1.55484">
        <ele>242.5</ele>
        <time>2022-08-08T10:22:37Z</time>
      </trkpt>
      <trkpt lat="44.59675" lon="1.55483">
        <ele>242.7</ele>
        <time>2022-08-08T10:22:39Z</time>
      </trkpt>
      <trkpt lat="44.59664" lon="1.55483">
        <ele>242.9</ele>
        <time>2022-08-08T10:22:41Z</time>
      </trkpt>
      <trkpt lat="44.59654" lon="1.55482">
        <ele>243.1</ele>
        <time>2022-08-08T10:22:43Z</time>
      </trkpt>
      <trkpt lat="44.59642" lon="1.55481">
        <ele>243.4</ele>
        <time>2022-08-08T10:22:45Z</time>
      </trkpt>
      <trkpt lat="44.59632" lon="1.5548">
        <ele>243.6</ele>
        <time>2022-08-08T10:22:47Z</time>
      </trkpt>
      <trkpt lat="44.59621" lon="1.55479">
        <ele>243.9</ele>
        <time>2022-08-08T10:22:49Z</time>
      </trkpt>
      <trkpt lat="44.5961" lon="1.55479">
        <ele>244.2</ele>
        <time>2022-08-08T10:22:51Z</time>
      </trkpt>
      <trkpt lat="44.59599" lon="1.55477">
        <ele>244.4</ele>
        <time>2022-08-08T10:22:53Z</time>
      </trkpt>
      <trkpt lat="44.59588" lon="1.55477">
        <ele>244.7</ele>
        <time>2022-08-08T10:22:55Z</time>
      </trkpt>
      <trkpt lat="44.59577" lon="1.55476">
        <ele>244.9</ele>
        <time>2022-08-08T10:22:57Z</time>
      </trkpt>
      <trkpt lat="44.59566" lon="1.55476">
        <ele>244.9</ele>
        <time>2022-08-08T10:22:59Z</time>
      </trkpt>
      <trkpt lat="44.59554" lon="1.55474">
        <ele>244.9</ele>
        <time>2022-08-08T10:23:01Z</time>
      </trkpt>
      <trkpt lat="44.59543" lon="1.55473">
        <ele>244.9</ele>
        <time>2022-08-08T10:23:03Z</time>
      </trkpt>
      <trkpt lat="44.59532" lon="1.55472">
        <ele>244.8</ele>
        <time>2022-08-08T10:23:05Z</time>
      </trkpt>
      <trkpt lat="44.5952" lon="1.55471">
        <ele>244.8</ele>
        <time>2022-08-08T10:23:07Z</time>
      </trkpt>
      <trkpt lat="44.59509" lon="1.5547">
        <ele>244.8</ele>
        <time>2022-08-08T10:23:09Z</time>
      </trkpt>
      <trkpt lat="44.59497" lon="1.55469">
        <ele>244.8</ele>
        <time>2022-08-08T10:23:11Z</time>
      </trkpt>
      <trkpt lat="44.59486" lon="1.55468">
        <ele>244.8</ele>
        <time>2022-08-08T10:23:13Z</time>
      </trkpt>
      <trkpt lat="44.59474" lon="1.55467">
        <ele>244.7</ele>
        <time>2022-08-08T10:23:15Z</time>
      </trkpt>
      <trkpt lat="44.59463" lon="1.55466">
        <ele>244.8</ele>
        <time>2022-08-08T10:23:17Z</time>
      </trkpt>
      <trkpt lat="44.59451" lon="1.55466">
        <ele>245.1</ele>
        <time>2022-08-08T10:23:19Z</time>
      </trkpt>
      <trkpt lat="44.59438" lon="1.55465">
        <ele>245.3</ele>
        <time>2022-08-08T10:23:21Z</time>
      </trkpt>
      <trkpt lat="44.59427" lon="1.55466">
        <ele>245.6</ele>
        <time>2022-08-08T10:23:23Z</time>
      </trkpt>
      <trkpt lat="44.59414" lon="1.55466">
        <ele>245.9</ele>
        <time>2022-08-08T10:23:25Z</time>
      </trkpt>
      <trkpt lat="44.59402" lon="1.55468">
        <ele>245.8</ele>
        <time>2022-08-08T10:23:27Z</time>
      </trkpt>
      <trkpt lat="44.59389" lon="1.55471">
        <ele>245.8</ele>
        <time>2022-08-08T10:23:29Z</time>
      </trkpt>
      <trkpt lat="44.59377" lon="1.55472">
        <ele>245.8</ele>
        <time>2022-08-08T10:23:31Z</time>
      </trkpt>
      <trkpt lat="44.59365" lon="1.55475">
        <ele>245.8</ele>
        <time>2022-08-08T10:23:33Z</time>
      </trkpt>
      <trkpt lat="44.59353" lon="1.55476">
        <ele>245.7</ele>
        <time>2022-08-08T10:23:35Z</time>
      </trkpt>
      <trkpt lat="44.59342" lon="1.55478">
        <ele>245.7</ele>
        <time>2022-08-08T10:23:37Z</time>
      </trkpt>
      <trkpt lat="44.59329" lon="1.55481">
        <ele>245.8</ele>
        <time>2022-08-08T10:23:39Z</time>
      </trkpt>
      <trkpt lat="44.59317" lon="1.55483">
        <ele>245.7</ele>
        <time>2022-08-08T10:23:41Z</time>
      </trkpt>
      <trkpt lat="44.59305" lon="1.55485">
        <ele>245.7</ele>
        <time>2022-08-08T10:23:43Z</time>
      </trkpt>
      <trkpt lat="44.59293" lon="1.55487">
        <ele>245.6</ele>
        <time>2022-08-08T10:23:45Z</time>
      </trkpt>
      <trkpt lat="44.5928" lon="1.55489">
        <ele>245.6</ele>
        <time>2022-08-08T10:23:47Z</time>
      </trkpt>
      <trkpt lat="44.59269" lon="1.55491">
        <ele>245.5</ele>
        <time>2022-08-08T10:23:49Z</time>
      </trkpt>
      <trkpt lat="44.59257" lon="1.55493">
        <ele>245.4</ele>
        <time>2022-08-08T10:23:51Z</time>
      </trkpt>
      <trkpt lat="44.59245" lon="1.55495">
        <ele>245.1</ele>
        <time>2022-08-08T10:23:53Z</time>
      </trkpt>
      <trkpt lat="44.59232" lon="1.55498">
        <ele>244.5</ele>
        <time>2022-08-08T10:23:55Z</time>
      </trkpt>
      <trkpt lat="44.5922" lon="1.555">
        <ele>244</ele>
        <time>2022-08-08T10:23:57Z</time>
      </trkpt>
      <trkpt lat="44.59208" lon="1.55502">
        <ele>243.7</ele>
        <time>2022-08-08T10:23:59Z</time>
      </trkpt>
      <trkpt lat="44.59195" lon="1.55504">
        <ele>243.3</ele>
        <time>2022-08-08T10:24:01Z</time>
      </trkpt>
      <trkpt lat="44.59183" lon="1.55507">
        <ele>243.4</ele>
        <time>2022-08-08T10:24:03Z</time>
      </trkpt>
      <trkpt lat="44.59171" lon="1.55508">
        <ele>242.9</ele>
        <time>2022-08-08T10:24:05Z</time>
      </trkpt>
      <trkpt lat="44.59159" lon="1.5551">
        <ele>242.8</ele>
        <time>2022-08-08T10:24:07Z</time>
      </trkpt>
      <trkpt lat="44.59147" lon="1.55512">
        <ele>242.8</ele>
        <time>2022-08-08T10:24:09Z</time>
      </trkpt>
      <trkpt lat="44.59134" lon="1.55514">
        <ele>242.8</ele>
        <time>2022-08-08T10:24:11Z</time>
      </trkpt>
      <trkpt lat="44.59122" lon="1.55516">
        <ele>242.6</ele>
        <time>2022-08-08T10:24:13Z</time>
      </trkpt>
      <trkpt lat="44.5911" lon="1.55518">
        <ele>242.4</ele>
        <time>2022-08-08T10:24:15Z</time>
      </trkpt>
      <trkpt lat="44.59097" lon="1.55521">
        <ele>242.3</ele>
        <time>2022-08-08T10:24:17Z</time>
      </trkpt>
      <trkpt lat="44.59085" lon="1.55522">
        <ele>241.9</ele>
        <time>2022-08-08T10:24:19Z</time>
      </trkpt>
      <trkpt lat="44.59073" lon="1.55524">
        <ele>241.5</ele>
        <time>2022-08-08T10:24:21Z</time>
      </trkpt>
      <trkpt lat="44.59061" lon="1.55525">
        <ele>240.9</ele>
        <time>2022-08-08T10:24:23Z</time>
      </trkpt>
      <trkpt lat="44.59049" lon="1.55527">
        <ele>240.4</ele>
        <time>2022-08-08T10:24:25Z</time>
      </trkpt>
      <trkpt lat="44.59037" lon="1.5553">
        <ele>240</ele>
        <time>2022-08-08T10:24:27Z</time>
      </trkpt>
      <trkpt lat="44.59025" lon="1.55532">
        <ele>239.5</ele>
        <time>2022-08-08T10:24:29Z</time>
      </trkpt>
      <trkpt lat="44.59013" lon="1.55535">
        <ele>238.9</ele>
        <time>2022-08-08T10:24:31Z</time>
      </trkpt>
      <trkpt lat="44.59001" lon="1.55538">
        <ele>238.2</ele>
        <time>2022-08-08T10:24:33Z</time>
      </trkpt>
      <trkpt lat="44.5899" lon="1.55542">
        <ele>237.8</ele>
        <time>2022-08-08T10:24:35Z</time>
      </trkpt>
      <trkpt lat="44.58979" lon="1.55548">
        <ele>237.7</ele>
        <time>2022-08-08T10:24:37Z</time>
      </trkpt>
      <trkpt lat="44.58969" lon="1.55555">
        <ele>237.7</ele>
        <time>2022-08-08T10:24:39Z</time>
      </trkpt>
      <trkpt lat="44.58959" lon="1.55563">
        <ele>237.7</ele>
        <time>2022-08-08T10:24:41Z</time>
      </trkpt>
      <trkpt lat="44.58949" lon="1.55571">
        <ele>237.7</ele>
        <time>2022-08-08T10:24:43Z</time>
      </trkpt>
      <trkpt lat="44.58939" lon="1.55582">
        <ele>237.8</ele>
        <time>2022-08-08T10:24:45Z</time>
      </trkpt>
      <trkpt lat="44.58931" lon="1.55594">
        <ele>237.8</ele>
        <time>2022-08-08T10:24:47Z</time>
      </trkpt>
      <trkpt lat="44.58924" lon="1.55607">
        <ele>237.7</ele>
        <time>2022-08-08T10:24:49Z</time>
      </trkpt>
      <trkpt lat="44.58918" lon="1.55621">
        <ele>237.5</ele>
        <time>2022-08-08T10:24:51Z</time>
      </trkpt>
      <trkpt lat="44.58912" lon="1.55636">
        <ele>237.5</ele>
        <time>2022-08-08T10:24:53Z</time>
      </trkpt>
      <trkpt lat="44.58906" lon="1.55649">
        <ele>237.5</ele>
        <time>2022-08-08T10:24:55Z</time>
      </trkpt>
      <trkpt lat="44.58899" lon="1.55661">
        <ele>237.3</ele>
        <time>2022-08-08T10:24:57Z</time>
      </trkpt>
      <trkpt lat="44.58889" lon="1.55673">
        <ele>237.1</ele>
        <time>2022-08-08T10:24:59Z</time>
      </trkpt>
      <trkpt lat="44.58879" lon="1.55682">
        <ele>237.1</ele>
        <time>2022-08-08T10:25:01Z</time>
      </trkpt>
      <trkpt lat="44.58868" lon="1.55689">
        <ele>237.1</ele>
        <time>2022-08-08T10:25:03Z</time>
      </trkpt>
      <trkpt lat="44.58857" lon="1.55696">
        <ele>237.3</ele>
        <time>2022-08-08T10:25:05Z</time>
      </trkpt>
      <trkpt lat="44.58845" lon="1.55699">
        <ele>237.1</ele>
        <time>2022-08-08T10:25:07Z</time>
      </trkpt>
      <trkpt lat="44.58833" lon="1.557">
        <ele>236.8</ele>
        <time>2022-08-08T10:25:09Z</time>
      </trkpt>
      <trkpt lat="44.5882" lon="1.55699">
        <ele>236.5</ele>
        <time>2022-08-08T10:25:11Z</time>
      </trkpt>
      <trkpt lat="44.58808" lon="1.55699">
        <ele>236.3</ele>
        <time>2022-08-08T10:25:13Z</time>
      </trkpt>
      <trkpt lat="44.58795" lon="1.55698">
        <ele>235.9</ele>
        <time>2022-08-08T10:25:15Z</time>
      </trkpt>
      <trkpt lat="44.58784" lon="1.55699">
        <ele>235.9</ele>
        <time>2022-08-08T10:25:17Z</time>
      </trkpt>
      <trkpt lat="44.58772" lon="1.55702">
        <ele>236.1</ele>
        <time>2022-08-08T10:25:19Z</time>
      </trkpt>
      <trkpt lat="44.58759" lon="1.55706">
        <ele>236.3</ele>
        <time>2022-08-08T10:25:21Z</time>
      </trkpt>
      <trkpt lat="44.58748" lon="1.55713">
        <ele>237</ele>
        <time>2022-08-08T10:25:23Z</time>
      </trkpt>
      <trkpt lat="44.58737" lon="1.55719">
        <ele>236.9</ele>
        <time>2022-08-08T10:25:25Z</time>
      </trkpt>
      <trkpt lat="44.58726" lon="1.55729">
        <ele>236.9</ele>
        <time>2022-08-08T10:25:27Z</time>
      </trkpt>
      <trkpt lat="44.58715" lon="1.55737">
        <ele>236.9</ele>
        <time>2022-08-08T10:25:29Z</time>
      </trkpt>
      <trkpt lat="44.58704" lon="1.55745">
        <ele>236.5</ele>
        <time>2022-08-08T10:25:31Z</time>
      </trkpt>
      <trkpt lat="44.58692" lon="1.55755">
        <ele>236.6</ele>
        <time>2022-08-08T10:25:33Z</time>
      </trkpt>
      <trkpt lat="44.5868" lon="1.55764">
        <ele>236.7</ele>
        <time>2022-08-08T10:25:35Z</time>
      </trkpt>
      <trkpt lat="44.58668" lon="1.55771">
        <ele>236.3</ele>
        <time>2022-08-08T10:25:37Z</time>
      </trkpt>
      <trkpt lat="44.58656" lon="1.55777">
        <ele>236</ele>
        <time>2022-08-08T10:25:39Z</time>
      </trkpt>
      <trkpt lat="44.58643" lon="1.55783">
        <ele>235.7</ele>
        <time>2022-08-08T10:25:41Z</time>
      </trkpt>
      <trkpt lat="44.58631" lon="1.55789">
        <ele>235.3</ele>
        <time>2022-08-08T10:25:43Z</time>
      </trkpt>
      <trkpt lat="44.58619" lon="1.55795">
        <ele>234.7</ele>
        <time>2022-08-08T10:25:45Z</time>
      </trkpt>
      <trkpt lat="44.58606" lon="1.558">
        <ele>233.9</ele>
        <time>2022-08-08T10:25:47Z</time>
      </trkpt>
      <trkpt lat="44.58594" lon="1.55804">
        <ele>233</ele>
        <time>2022-08-08T10:25:49Z</time>
      </trkpt>
      <trkpt lat="44.58582" lon="1.5581">
        <ele>232.3</ele>
        <time>2022-08-08T10:25:51Z</time>
      </trkpt>
      <trkpt lat="44.5857" lon="1.55814">
        <ele>232.3</ele>
        <time>2022-08-08T10:25:53Z</time>
      </trkpt>
      <trkpt lat="44.58557" lon="1.55821">
        <ele>232.3</ele>
        <time>2022-08-08T10:25:55Z</time>
      </trkpt>
      <trkpt lat="44.58547" lon="1.55824">
        <ele>232.2</ele>
        <time>2022-08-08T10:25:57Z</time>
      </trkpt>
      <trkpt lat="44.58535" lon="1.5583">
        <ele>232.1</ele>
        <time>2022-08-08T10:25:59Z</time>
      </trkpt>
      <trkpt lat="44.58523" lon="1.55835">
        <ele>232</ele>
        <time>2022-08-08T10:26:01Z</time>
      </trkpt>
      <trkpt lat="44.58513" lon="1.55839">
        <ele>231.9</ele>
        <time>2022-08-08T10:26:03Z</time>
      </trkpt>
      <trkpt lat="44.58501" lon="1.55844">
        <ele>231.7</ele>
        <time>2022-08-08T10:26:05Z</time>
      </trkpt>
      <trkpt lat="44.5849" lon="1.55849">
        <ele>231.8</ele>
        <time>2022-08-08T10:26:07Z</time>
      </trkpt>
      <trkpt lat="44.5848" lon="1.55853">
        <ele>231.9</ele>
        <time>2022-08-08T10:26:09Z</time>
      </trkpt>
      <trkpt lat="44.58469" lon="1.55858">
        <ele>232</ele>
        <time>2022-08-08T10:26:11Z</time>
      </trkpt>
      <trkpt lat="44.58461" lon="1.55861">
        <ele>232.2</ele>
        <time>2022-08-08T10:26:13Z</time>
      </trkpt>
      <trkpt lat="44.58453" lon="1.55863">
        <ele>232.3</ele>
        <time>2022-08-08T10:26:15Z</time>
      </trkpt>
      <trkpt lat="44.58446" lon="1.55865">
        <ele>232.4</ele>
        <time>2022-08-08T10:26:17Z</time>
      </trkpt>
      <trkpt lat="44.58442" lon="1.55865">
        <ele>232.3</ele>
        <time>2022-08-08T10:26:19Z</time>
      </trkpt>
      <trkpt lat="44.5844" lon="1.55867">
        <ele>232.4</ele>
        <time>2022-08-08T10:26:21Z</time>
      </trkpt>
      <trkpt lat="44.5844" lon="1.55867">
        <ele>232.4</ele>
        <time>2022-08-08T10:26:23Z</time>
      </trkpt>
      <trkpt lat="44.58439" lon="1.55868">
        <ele>232.5</ele>
        <time>2022-08-08T10:26:25Z</time>
      </trkpt>
      <trkpt lat="44.58439" lon="1.55868">
        <ele>232.6</ele>
        <time>2022-08-08T10:26:27Z</time>
      </trkpt>
      <trkpt lat="44.58439" lon="1.55869">
        <ele>232.6</ele>
        <time>2022-08-08T10:26:29Z</time>
      </trkpt>
      <trkpt lat="44.58439" lon="1.55869">
        <ele>232.6</ele>
        <time>2022-08-08T10:26:31Z</time>
      </trkpt>
      <trkpt lat="44.58439" lon="1.5587">
        <ele>232.7</ele>
        <time>2022-08-08T10:26:49Z</time>
      </trkpt>
      <trkpt lat="44.58439" lon="1.5587">
        <ele>232.7</ele>
        <time>2022-08-08T10:26:51Z</time>
      </trkpt>
      <trkpt lat="44.58439" lon="1.55871">
        <ele>232.7</ele>
        <time>2022-08-08T10:26:53Z</time>
      </trkpt>
      <trkpt lat="44.58437" lon="1.55872">
        <ele>232.8</ele>
        <time>2022-08-08T10:26:55Z</time>
      </trkpt>
      <trkpt lat="44.58435" lon="1.55873">
        <ele>232.9</ele>
        <time>2022-08-08T10:26:57Z</time>
      </trkpt>
      <trkpt lat="44.58431" lon="1.55874">
        <ele>233</ele>
        <time>2022-08-08T10:26:59Z</time>
      </trkpt>
      <trkpt lat="44.58427" lon="1.55876">
        <ele>233.2</ele>
        <time>2022-08-08T10:27:01Z</time>
      </trkpt>
      <trkpt lat="44.58422" lon="1.55877">
        <ele>233.3</ele>
        <time>2022-08-08T10:27:03Z</time>
      </trkpt>
      <trkpt lat="44.58418" lon="1.55876">
        <ele>233.1</ele>
        <time>2022-08-08T10:27:05Z</time>
      </trkpt>
      <trkpt lat="44.58416" lon="1.55872">
        <ele>232.6</ele>
        <time>2022-08-08T10:27:07Z</time>
      </trkpt>
      <trkpt lat="44.58416" lon="1.55872">
        <ele>232.7</ele>
        <time>2022-08-08T10:27:09Z</time>
      </trkpt>
      <trkpt lat="44.58416" lon="1.55871">
        <ele>232.6</ele>
        <time>2022-08-08T10:27:11Z</time>
      </trkpt>
      <trkpt lat="44.58417" lon="1.55871">
        <ele>232.6</ele>
        <time>2022-08-08T10:27:13Z</time>
      </trkpt>
      <trkpt lat="44.58417" lon="1.55871">
        <ele>232.6</ele>
        <time>2022-08-08T10:27:15Z</time>
      </trkpt>
      <trkpt lat="44.58417" lon="1.5587">
        <ele>232.5</ele>
        <time>2022-08-08T10:27:17Z</time>
      </trkpt>
      <trkpt lat="44.58408" lon="1.55876">
        <ele>232.6</ele>
        <time>2022-08-08T10:28:48Z</time>
      </trkpt>
      <trkpt lat="44.58403" lon="1.55878">
        <ele>232.7</ele>
        <time>2022-08-08T10:28:50Z</time>
      </trkpt>
      <trkpt lat="44.58397" lon="1.55882">
        <ele>232.8</ele>
        <time>2022-08-08T10:28:52Z</time>
      </trkpt>
      <trkpt lat="44.58391" lon="1.55883">
        <ele>232.7</ele>
        <time>2022-08-08T10:28:54Z</time>
      </trkpt>
      <trkpt lat="44.58384" lon="1.55884">
        <ele>232.5</ele>
        <time>2022-08-08T10:28:56Z</time>
      </trkpt>
      <trkpt lat="44.58377" lon="1.55886">
        <ele>232.4</ele>
        <time>2022-08-08T10:28:58Z</time>
      </trkpt>
      <trkpt lat="44.58371" lon="1.55886">
        <ele>232.1</ele>
        <time>2022-08-08T10:29:00Z</time>
      </trkpt>
      <trkpt lat="44.58363" lon="1.55886">
        <ele>231.8</ele>
        <time>2022-08-08T10:29:02Z</time>
      </trkpt>
      <trkpt lat="44.58355" lon="1.55885">
        <ele>231.4</ele>
        <time>2022-08-08T10:29:04Z</time>
      </trkpt>
      <trkpt lat="44.58347" lon="1.55887">
        <ele>231.2</ele>
        <time>2022-08-08T10:29:06Z</time>
      </trkpt>
      <trkpt lat="44.58339" lon="1.55887">
        <ele>231</ele>
        <time>2022-08-08T10:29:08Z</time>
      </trkpt>
      <trkpt lat="44.58331" lon="1.55888">
        <ele>230.8</ele>
        <time>2022-08-08T10:29:10Z</time>
      </trkpt>
      <trkpt lat="44.58322" lon="1.55889">
        <ele>230.7</ele>
        <time>2022-08-08T10:29:12Z</time>
      </trkpt>
      <trkpt lat="44.58314" lon="1.55892">
        <ele>230.9</ele>
        <time>2022-08-08T10:29:14Z</time>
      </trkpt>
      <trkpt lat="44.58305" lon="1.55895">
        <ele>231.1</ele>
        <time>2022-08-08T10:29:16Z</time>
      </trkpt>
      <trkpt lat="44.58297" lon="1.55896">
        <ele>231</ele>
        <time>2022-08-08T10:29:18Z</time>
      </trkpt>
      <trkpt lat="44.58289" lon="1.55896">
        <ele>230.8</ele>
        <time>2022-08-08T10:29:20Z</time>
      </trkpt>
      <trkpt lat="44.58282" lon="1.55893">
        <ele>230.3</ele>
        <time>2022-08-08T10:29:22Z</time>
      </trkpt>
      <trkpt lat="44.58272" lon="1.55895">
        <ele>230.3</ele>
        <time>2022-08-08T10:29:24Z</time>
      </trkpt>
      <trkpt lat="44.58262" lon="1.55892">
        <ele>229.7</ele>
        <time>2022-08-08T10:29:26Z</time>
      </trkpt>
      <trkpt lat="44.58253" lon="1.55893">
        <ele>229.5</ele>
        <time>2022-08-08T10:29:28Z</time>
      </trkpt>
      <trkpt lat="44.58243" lon="1.55895">
        <ele>229.3</ele>
        <time>2022-08-08T10:29:30Z</time>
      </trkpt>
      <trkpt lat="44.58233" lon="1.55895">
        <ele>228.8</ele>
        <time>2022-08-08T10:29:32Z</time>
      </trkpt>
      <trkpt lat="44.58223" lon="1.55896">
        <ele>228.3</ele>
        <time>2022-08-08T10:29:34Z</time>
      </trkpt>
      <trkpt lat="44.58213" lon="1.55897">
        <ele>227.8</ele>
        <time>2022-08-08T10:29:36Z</time>
      </trkpt>
      <trkpt lat="44.58203" lon="1.55897">
        <ele>227.1</ele>
        <time>2022-08-08T10:29:38Z</time>
      </trkpt>
      <trkpt lat="44.58192" lon="1.55897">
        <ele>226.5</ele>
        <time>2022-08-08T10:29:40Z</time>
      </trkpt>
      <trkpt lat="44.58182" lon="1.55898">
        <ele>226</ele>
        <time>2022-08-08T10:29:42Z</time>
      </trkpt>
      <trkpt lat="44.58172" lon="1.559">
        <ele>225.5</ele>
        <time>2022-08-08T10:29:44Z</time>
      </trkpt>
      <trkpt lat="44.58163" lon="1.55901">
        <ele>225.1</ele>
        <time>2022-08-08T10:29:46Z</time>
      </trkpt>
      <trkpt lat="44.58153" lon="1.55905">
        <ele>225</ele>
        <time>2022-08-08T10:29:48Z</time>
      </trkpt>
      <trkpt lat="44.58145" lon="1.55907">
        <ele>224.8</ele>
        <time>2022-08-08T10:29:50Z</time>
      </trkpt>
      <trkpt lat="44.58137" lon="1.5591">
        <ele>224.7</ele>
        <time>2022-08-08T10:29:52Z</time>
      </trkpt>
      <trkpt lat="44.58129" lon="1.55912">
        <ele>224.5</ele>
        <time>2022-08-08T10:29:54Z</time>
      </trkpt>
      <trkpt lat="44.58121" lon="1.55913">
        <ele>224.2</ele>
        <time>2022-08-08T10:29:56Z</time>
      </trkpt>
      <trkpt lat="44.58113" lon="1.55916">
        <ele>224.1</ele>
        <time>2022-08-08T10:29:58Z</time>
      </trkpt>
      <trkpt lat="44.58106" lon="1.5592">
        <ele>224.6</ele>
        <time>2022-08-08T10:30:00Z</time>
      </trkpt>
      <trkpt lat="44.58099" lon="1.55924">
        <ele>225.2</ele>
        <time>2022-08-08T10:30:02Z</time>
      </trkpt>
      <trkpt lat="44.58091" lon="1.55925">
        <ele>225.1</ele>
        <time>2022-08-08T10:30:04Z</time>
      </trkpt>
      <trkpt lat="44.58084" lon="1.55926">
        <ele>225.3</ele>
        <time>2022-08-08T10:30:06Z</time>
      </trkpt>
      <trkpt lat="44.5808" lon="1.55919">
        <ele>223.5</ele>
        <time>2022-08-08T10:30:08Z</time>
      </trkpt>
      <trkpt lat="44.58081" lon="1.55911">
        <ele>222.8</ele>
        <time>2022-08-08T10:30:10Z</time>
      </trkpt>
      <trkpt lat="44.58082" lon="1.55904">
        <ele>222.7</ele>
        <time>2022-08-08T10:30:12Z</time>
      </trkpt>
      <trkpt lat="44.58084" lon="1.55899">
        <ele>222.6</ele>
        <time>2022-08-08T10:30:14Z</time>
      </trkpt>
      <trkpt lat="44.58085" lon="1.55897">
        <ele>222.6</ele>
        <time>2022-08-08T10:30:15Z</time>
      </trkpt>
      <trkpt lat="44.58089" lon="1.55892">
        <ele>222.5</ele>
        <time>2022-08-08T10:30:17Z</time>
      </trkpt>
      <trkpt lat="44.58089" lon="1.55887">
        <ele>222.4</ele>
        <time>2022-08-08T10:30:19Z</time>
      </trkpt>
      <trkpt lat="44.5809" lon="1.55883">
        <ele>222.4</ele>
        <time>2022-08-08T10:30:21Z</time>
      </trkpt>
      <trkpt lat="44.58091" lon="1.55879">
        <ele>222.3</ele>
        <time>2022-08-08T10:30:23Z</time>
      </trkpt>
      <trkpt lat="44.58091" lon="1.55873">
        <ele>222.1</ele>
        <time>2022-08-08T10:30:25Z</time>
      </trkpt>
      <trkpt lat="44.5809" lon="1.55867">
        <ele>222</ele>
        <time>2022-08-08T10:30:27Z</time>
      </trkpt>
      <trkpt lat="44.5809" lon="1.55861">
        <ele>221.8</ele>
        <time>2022-08-08T10:30:29Z</time>
      </trkpt>
      <trkpt lat="44.58089" lon="1.55856">
        <ele>221.6</ele>
        <time>2022-08-08T10:30:31Z</time>
      </trkpt>
      <trkpt lat="44.58085" lon="1.55857">
        <ele>221.6</ele>
        <time>2022-08-08T10:30:33Z</time>
      </trkpt>
      <trkpt lat="44.58086" lon="1.55858">
        <ele>221.7</ele>
        <time>2022-08-08T10:30:35Z</time>
      </trkpt>
      <trkpt lat="44.58086" lon="1.55859">
        <ele>221.7</ele>
        <time>2022-08-08T10:30:37Z</time>
      </trkpt>
      <trkpt lat="44.58086" lon="1.5586">
        <ele>221.7</ele>
        <time>2022-08-08T10:30:39Z</time>
      </trkpt>
      <trkpt lat="44.58084" lon="1.5586">
        <ele>221.7</ele>
        <time>2022-08-08T10:30:41Z</time>
      </trkpt>
      <trkpt lat="44.58092" lon="1.55875">
        <ele>222.2</ele>
        <time>2022-08-08T10:43:27Z</time>
      </trkpt>
      <trkpt lat="44.58092" lon="1.55882">
        <ele>222.4</ele>
        <time>2022-08-08T10:43:29Z</time>
      </trkpt>
      <trkpt lat="44.5809" lon="1.55888">
        <ele>222.5</ele>
        <time>2022-08-08T10:43:31Z</time>
      </trkpt>
      <trkpt lat="44.58089" lon="1.55895">
        <ele>222.6</ele>
        <time>2022-08-08T10:43:33Z</time>
      </trkpt>
      <trkpt lat="44.58086" lon="1.55899">
        <ele>222.7</ele>
        <time>2022-08-08T10:43:35Z</time>
      </trkpt>
      <trkpt lat="44.58083" lon="1.55903">
        <ele>222.7</ele>
        <time>2022-08-08T10:43:37Z</time>
      </trkpt>
      <trkpt lat="44.58082" lon="1.55909">
        <ele>222.8</ele>
        <time>2022-08-08T10:43:39Z</time>
      </trkpt>
      <trkpt lat="44.58081" lon="1.55916">
        <ele>222.9</ele>
        <time>2022-08-08T10:43:41Z</time>
      </trkpt>
      <trkpt lat="44.58081" lon="1.55921">
        <ele>223.9</ele>
        <time>2022-08-08T10:43:43Z</time>
      </trkpt>
      <trkpt lat="44.58079" lon="1.55924">
        <ele>224.7</ele>
        <time>2022-08-08T10:43:45Z</time>
      </trkpt>
      <trkpt lat="44.58079" lon="1.55925">
        <ele>224.8</ele>
        <time>2022-08-08T10:43:47Z</time>
      </trkpt>
      <trkpt lat="44.58079" lon="1.55925">
        <ele>224.8</ele>
        <time>2022-08-08T10:43:49Z</time>
      </trkpt>
      <trkpt lat="44.58078" lon="1.55925">
        <ele>224.8</ele>
        <time>2022-08-08T10:43:51Z</time>
      </trkpt>
      <trkpt lat="44.58078" lon="1.55926">
        <ele>225</ele>
        <time>2022-08-08T10:43:53Z</time>
      </trkpt>
      <trkpt lat="44.58078" lon="1.55926">
        <ele>225</ele>
        <time>2022-08-08T10:43:55Z</time>
      </trkpt>
      <trkpt lat="44.58062" lon="1.55931">
        <ele>225.7</ele>
        <time>2022-08-08T10:44:05Z</time>
      </trkpt>
      <trkpt lat="44.58055" lon="1.55932">
        <ele>225.7</ele>
        <time>2022-08-08T10:44:07Z</time>
      </trkpt>
      <trkpt lat="44.58048" lon="1.55934">
        <ele>226</ele>
        <time>2022-08-08T10:44:09Z</time>
      </trkpt>
      <trkpt lat="44.5804" lon="1.55936">
        <ele>226.1</ele>
        <time>2022-08-08T10:44:11Z</time>
      </trkpt>
      <trkpt lat="44.58032" lon="1.55938">
        <ele>226.2</ele>
        <time>2022-08-08T10:44:13Z</time>
      </trkpt>
      <trkpt lat="44.58024" lon="1.55939">
        <ele>226.1</ele>
        <time>2022-08-08T10:44:15Z</time>
      </trkpt>
      <trkpt lat="44.58016" lon="1.5594">
        <ele>226.2</ele>
        <time>2022-08-08T10:44:17Z</time>
      </trkpt>
      <trkpt lat="44.58007" lon="1.55942">
        <ele>226.2</ele>
        <time>2022-08-08T10:44:19Z</time>
      </trkpt>
      <trkpt lat="44.57998" lon="1.55944">
        <ele>226.2</ele>
        <time>2022-08-08T10:44:21Z</time>
      </trkpt>
      <trkpt lat="44.5799" lon="1.55946">
        <ele>226.3</ele>
        <time>2022-08-08T10:44:23Z</time>
      </trkpt>
      <trkpt lat="44.57982" lon="1.55948">
        <ele>226.2</ele>
        <time>2022-08-08T10:44:25Z</time>
      </trkpt>
      <trkpt lat="44.57973" lon="1.5595">
        <ele>226.4</ele>
        <time>2022-08-08T10:44:27Z</time>
      </trkpt>
      <trkpt lat="44.57964" lon="1.55953">
        <ele>226.4</ele>
        <time>2022-08-08T10:44:29Z</time>
      </trkpt>
      <trkpt lat="44.57956" lon="1.55955">
        <ele>226.4</ele>
        <time>2022-08-08T10:44:31Z</time>
      </trkpt>
      <trkpt lat="44.57947" lon="1.55957">
        <ele>226.3</ele>
        <time>2022-08-08T10:44:33Z</time>
      </trkpt>
      <trkpt lat="44.57938" lon="1.55959">
        <ele>226.1</ele>
        <time>2022-08-08T10:44:35Z</time>
      </trkpt>
      <trkpt lat="44.57929" lon="1.55961">
        <ele>226</ele>
        <time>2022-08-08T10:44:37Z</time>
      </trkpt>
      <trkpt lat="44.5792" lon="1.55964">
        <ele>225.8</ele>
        <time>2022-08-08T10:44:39Z</time>
      </trkpt>
      <trkpt lat="44.57911" lon="1.55966">
        <ele>225.6</ele>
        <time>2022-08-08T10:44:41Z</time>
      </trkpt>
      <trkpt lat="44.57902" lon="1.55967">
        <ele>225.3</ele>
        <time>2022-08-08T10:44:43Z</time>
      </trkpt>
      <trkpt lat="44.57892" lon="1.5597">
        <ele>225</ele>
        <time>2022-08-08T10:44:45Z</time>
      </trkpt>
      <trkpt lat="44.57883" lon="1.55972">
        <ele>224.8</ele>
        <time>2022-08-08T10:44:47Z</time>
      </trkpt>
      <trkpt lat="44.57874" lon="1.55974">
        <ele>224.5</ele>
        <time>2022-08-08T10:44:49Z</time>
      </trkpt>
      <trkpt lat="44.57865" lon="1.55977">
        <ele>224.3</ele>
        <time>2022-08-08T10:44:51Z</time>
      </trkpt>
      <trkpt lat="44.57856" lon="1.55979">
        <ele>224</ele>
        <time>2022-08-08T10:44:53Z</time>
      </trkpt>
      <trkpt lat="44.57846" lon="1.55981">
        <ele>223.6</ele>
        <time>2022-08-08T10:44:55Z</time>
      </trkpt>
      <trkpt lat="44.57836" lon="1.55983">
        <ele>223.3</ele>
        <time>2022-08-08T10:44:57Z</time>
      </trkpt>
      <trkpt lat="44.57827" lon="1.55985">
        <ele>223.6</ele>
        <time>2022-08-08T10:44:59Z</time>
      </trkpt>
      <trkpt lat="44.57818" lon="1.55988">
        <ele>224.3</ele>
        <time>2022-08-08T10:45:01Z</time>
      </trkpt>
      <trkpt lat="44.57808" lon="1.55988">
        <ele>224.7</ele>
        <time>2022-08-08T10:45:03Z</time>
      </trkpt>
      <trkpt lat="44.57798" lon="1.55989">
        <ele>225.3</ele>
        <time>2022-08-08T10:45:05Z</time>
      </trkpt>
      <trkpt lat="44.57789" lon="1.55989">
        <ele>225.7</ele>
        <time>2022-08-08T10:45:07Z</time>
      </trkpt>
      <trkpt lat="44.5778" lon="1.55988">
        <ele>225.9</ele>
        <time>2022-08-08T10:45:09Z</time>
      </trkpt>
      <trkpt lat="44.57771" lon="1.55988">
        <ele>226.2</ele>
        <time>2022-08-08T10:45:11Z</time>
      </trkpt>
      <trkpt lat="44.57761" lon="1.55986">
        <ele>226.4</ele>
        <time>2022-08-08T10:45:13Z</time>
      </trkpt>
      <trkpt lat="44.57752" lon="1.55985">
        <ele>226.5</ele>
        <time>2022-08-08T10:45:15Z</time>
      </trkpt>
      <trkpt lat="44.57743" lon="1.55982">
        <ele>226.5</ele>
        <time>2022-08-08T10:45:17Z</time>
      </trkpt>
      <trkpt lat="44.57733" lon="1.5598">
        <ele>226.4</ele>
        <time>2022-08-08T10:45:19Z</time>
      </trkpt>
      <trkpt lat="44.57725" lon="1.55978">
        <ele>226.3</ele>
        <time>2022-08-08T10:45:21Z</time>
      </trkpt>
      <trkpt lat="44.57715" lon="1.55976">
        <ele>226.2</ele>
        <time>2022-08-08T10:45:23Z</time>
      </trkpt>
      <trkpt lat="44.57706" lon="1.55973">
        <ele>226.1</ele>
        <time>2022-08-08T10:45:25Z</time>
      </trkpt>
      <trkpt lat="44.57696" lon="1.55971">
        <ele>225.9</ele>
        <time>2022-08-08T10:45:27Z</time>
      </trkpt>
      <trkpt lat="44.57687" lon="1.55969">
        <ele>225.8</ele>
        <time>2022-08-08T10:45:29Z</time>
      </trkpt>
      <trkpt lat="44.57678" lon="1.55967">
        <ele>225.6</ele>
        <time>2022-08-08T10:45:31Z</time>
      </trkpt>
      <trkpt lat="44.57668" lon="1.55965">
        <ele>225.3</ele>
        <time>2022-08-08T10:45:33Z</time>
      </trkpt>
      <trkpt lat="44.57659" lon="1.55962">
        <ele>225.5</ele>
        <time>2022-08-08T10:45:35Z</time>
      </trkpt>
      <trkpt lat="44.57649" lon="1.55959">
        <ele>225.9</ele>
        <time>2022-08-08T10:45:37Z</time>
      </trkpt>
      <trkpt lat="44.57639" lon="1.55955">
        <ele>226</ele>
        <time>2022-08-08T10:45:39Z</time>
      </trkpt>
      <trkpt lat="44.57629" lon="1.55951">
        <ele>225.9</ele>
        <time>2022-08-08T10:45:41Z</time>
      </trkpt>
      <trkpt lat="44.5762" lon="1.55946">
        <ele>225.6</ele>
        <time>2022-08-08T10:45:43Z</time>
      </trkpt>
      <trkpt lat="44.5761" lon="1.55941">
        <ele>225.1</ele>
        <time>2022-08-08T10:45:45Z</time>
      </trkpt>
      <trkpt lat="44.57601" lon="1.55937">
        <ele>224.6</ele>
        <time>2022-08-08T10:45:47Z</time>
      </trkpt>
      <trkpt lat="44.57592" lon="1.55931">
        <ele>223.8</ele>
        <time>2022-08-08T10:45:49Z</time>
      </trkpt>
      <trkpt lat="44.57583" lon="1.55927">
        <ele>223.2</ele>
        <time>2022-08-08T10:45:51Z</time>
      </trkpt>
      <trkpt lat="44.57574" lon="1.55923">
        <ele>223.8</ele>
        <time>2022-08-08T10:45:53Z</time>
      </trkpt>
      <trkpt lat="44.57565" lon="1.55918">
        <ele>223.8</ele>
        <time>2022-08-08T10:45:55Z</time>
      </trkpt>
      <trkpt lat="44.57555" lon="1.55911">
        <ele>224.7</ele>
        <time>2022-08-08T10:45:57Z</time>
      </trkpt>
      <trkpt lat="44.57546" lon="1.55904">
        <ele>225.5</ele>
        <time>2022-08-08T10:45:59Z</time>
      </trkpt>
      <trkpt lat="44.57537" lon="1.55897">
        <ele>226</ele>
        <time>2022-08-08T10:46:01Z</time>
      </trkpt>
      <trkpt lat="44.57529" lon="1.55891">
        <ele>226.5</ele>
        <time>2022-08-08T10:46:03Z</time>
      </trkpt>
      <trkpt lat="44.57519" lon="1.55885">
        <ele>226.8</ele>
        <time>2022-08-08T10:46:05Z</time>
      </trkpt>
      <trkpt lat="44.57511" lon="1.55878">
        <ele>226.7</ele>
        <time>2022-08-08T10:46:07Z</time>
      </trkpt>
      <trkpt lat="44.57502" lon="1.55871">
        <ele>226.5</ele>
        <time>2022-08-08T10:46:09Z</time>
      </trkpt>
      <trkpt lat="44.57493" lon="1.55864">
        <ele>226.7</ele>
        <time>2022-08-08T10:46:11Z</time>
      </trkpt>
      <trkpt lat="44.57485" lon="1.55857">
        <ele>226.8</ele>
        <time>2022-08-08T10:46:13Z</time>
      </trkpt>
      <trkpt lat="44.57476" lon="1.55851">
        <ele>227.2</ele>
        <time>2022-08-08T10:46:15Z</time>
      </trkpt>
      <trkpt lat="44.57468" lon="1.55844">
        <ele>227.7</ele>
        <time>2022-08-08T10:46:17Z</time>
      </trkpt>
      <trkpt lat="44.57459" lon="1.55839">
        <ele>228.4</ele>
        <time>2022-08-08T10:46:19Z</time>
      </trkpt>
      <trkpt lat="44.57451" lon="1.55831">
        <ele>228.7</ele>
        <time>2022-08-08T10:46:21Z</time>
      </trkpt>
      <trkpt lat="44.57443" lon="1.55824">
        <ele>229.4</ele>
        <time>2022-08-08T10:46:23Z</time>
      </trkpt>
      <trkpt lat="44.57436" lon="1.55815">
        <ele>229.3</ele>
        <time>2022-08-08T10:46:25Z</time>
      </trkpt>
      <trkpt lat="44.57427" lon="1.55808">
        <ele>229.6</ele>
        <time>2022-08-08T10:46:27Z</time>
      </trkpt>
      <trkpt lat="44.57419" lon="1.55798">
        <ele>229.3</ele>
        <time>2022-08-08T10:46:29Z</time>
      </trkpt>
      <trkpt lat="44.57413" lon="1.55789">
        <ele>229</ele>
        <time>2022-08-08T10:46:31Z</time>
      </trkpt>
      <trkpt lat="44.57405" lon="1.55779">
        <ele>229.7</ele>
        <time>2022-08-08T10:46:33Z</time>
      </trkpt>
      <trkpt lat="44.57398" lon="1.5577">
        <ele>230</ele>
        <time>2022-08-08T10:46:35Z</time>
      </trkpt>
      <trkpt lat="44.57391" lon="1.55761">
        <ele>230.1</ele>
        <time>2022-08-08T10:46:37Z</time>
      </trkpt>
      <trkpt lat="44.57384" lon="1.55751">
        <ele>230</ele>
        <time>2022-08-08T10:46:39Z</time>
      </trkpt>
      <trkpt lat="44.57376" lon="1.55741">
        <ele>230</ele>
        <time>2022-08-08T10:46:41Z</time>
      </trkpt>
      <trkpt lat="44.5737" lon="1.55731">
        <ele>229.5</ele>
        <time>2022-08-08T10:46:43Z</time>
      </trkpt>
      <trkpt lat="44.57363" lon="1.55722">
        <ele>228.8</ele>
        <time>2022-08-08T10:46:45Z</time>
      </trkpt>
      <trkpt lat="44.57355" lon="1.55712">
        <ele>228</ele>
        <time>2022-08-08T10:46:47Z</time>
      </trkpt>
      <trkpt lat="44.57347" lon="1.55702">
        <ele>226.9</ele>
        <time>2022-08-08T10:46:49Z</time>
      </trkpt>
      <trkpt lat="44.57339" lon="1.55692">
        <ele>225.4</ele>
        <time>2022-08-08T10:46:51Z</time>
      </trkpt>
      <trkpt lat="44.5733" lon="1.55684">
        <ele>224.6</ele>
        <time>2022-08-08T10:46:53Z</time>
      </trkpt>
      <trkpt lat="44.57321" lon="1.55676">
        <ele>223.8</ele>
        <time>2022-08-08T10:46:55Z</time>
      </trkpt>
      <trkpt lat="44.57312" lon="1.55669">
        <ele>223.2</ele>
        <time>2022-08-08T10:46:57Z</time>
      </trkpt>
      <trkpt lat="44.57302" lon="1.5566">
        <ele>223.3</ele>
        <time>2022-08-08T10:46:59Z</time>
      </trkpt>
      <trkpt lat="44.57292" lon="1.55652">
        <ele>224</ele>
        <time>2022-08-08T10:47:01Z</time>
      </trkpt>
      <trkpt lat="44.57282" lon="1.55644">
        <ele>224.4</ele>
        <time>2022-08-08T10:47:03Z</time>
      </trkpt>
      <trkpt lat="44.57272" lon="1.55636">
        <ele>224.6</ele>
        <time>2022-08-08T10:47:05Z</time>
      </trkpt>
      <trkpt lat="44.57263" lon="1.55627">
        <ele>224.2</ele>
        <time>2022-08-08T10:47:07Z</time>
      </trkpt>
      <trkpt lat="44.57254" lon="1.55618">
        <ele>223.7</ele>
        <time>2022-08-08T10:47:09Z</time>
      </trkpt>
      <trkpt lat="44.57247" lon="1.55607">
        <ele>223.3</ele>
        <time>2022-08-08T10:47:11Z</time>
      </trkpt>
      <trkpt lat="44.57239" lon="1.55595">
        <ele>223.2</ele>
        <time>2022-08-08T10:47:13Z</time>
      </trkpt>
      <trkpt lat="44.57231" lon="1.55584">
        <ele>223.4</ele>
        <time>2022-08-08T10:47:15Z</time>
      </trkpt>
      <trkpt lat="44.57224" lon="1.55571">
        <ele>223.7</ele>
        <time>2022-08-08T10:47:17Z</time>
      </trkpt>
      <trkpt lat="44.57217" lon="1.5556">
        <ele>223.9</ele>
        <time>2022-08-08T10:47:19Z</time>
      </trkpt>
      <trkpt lat="44.5721" lon="1.55549">
        <ele>223.8</ele>
        <time>2022-08-08T10:47:21Z</time>
      </trkpt>
      <trkpt lat="44.57203" lon="1.55537">
        <ele>223.1</ele>
        <time>2022-08-08T10:47:23Z</time>
      </trkpt>
      <trkpt lat="44.57195" lon="1.55527">
        <ele>222.7</ele>
        <time>2022-08-08T10:47:25Z</time>
      </trkpt>
      <trkpt lat="44.57187" lon="1.55517">
        <ele>221.8</ele>
        <time>2022-08-08T10:47:27Z</time>
      </trkpt>
      <trkpt lat="44.57178" lon="1.55508">
        <ele>220.9</ele>
        <time>2022-08-08T10:47:29Z</time>
      </trkpt>
      <trkpt lat="44.5717" lon="1.55499">
        <ele>219.6</ele>
        <time>2022-08-08T10:47:31Z</time>
      </trkpt>
      <trkpt lat="44.5716" lon="1.55492">
        <ele>219.3</ele>
        <time>2022-08-08T10:47:33Z</time>
      </trkpt>
      <trkpt lat="44.57149" lon="1.55485">
        <ele>218.8</ele>
        <time>2022-08-08T10:47:35Z</time>
      </trkpt>
      <trkpt lat="44.57139" lon="1.55479">
        <ele>218.3</ele>
        <time>2022-08-08T10:47:37Z</time>
      </trkpt>
      <trkpt lat="44.57128" lon="1.55475">
        <ele>218</ele>
        <time>2022-08-08T10:47:39Z</time>
      </trkpt>
      <trkpt lat="44.57117" lon="1.55473">
        <ele>218</ele>
        <time>2022-08-08T10:47:41Z</time>
      </trkpt>
      <trkpt lat="44.57105" lon="1.55474">
        <ele>218.4</ele>
        <time>2022-08-08T10:47:43Z</time>
      </trkpt>
      <trkpt lat="44.57093" lon="1.55475">
        <ele>218.8</ele>
        <time>2022-08-08T10:47:45Z</time>
      </trkpt>
      <trkpt lat="44.57081" lon="1.55476">
        <ele>219.2</ele>
        <time>2022-08-08T10:47:47Z</time>
      </trkpt>
      <trkpt lat="44.57069" lon="1.55478">
        <ele>218.9</ele>
        <time>2022-08-08T10:47:49Z</time>
      </trkpt>
      <trkpt lat="44.57057" lon="1.55479">
        <ele>218.6</ele>
        <time>2022-08-08T10:47:51Z</time>
      </trkpt>
      <trkpt lat="44.57045" lon="1.5548">
        <ele>218.2</ele>
        <time>2022-08-08T10:47:53Z</time>
      </trkpt>
      <trkpt lat="44.57033" lon="1.55481">
        <ele>217.8</ele>
        <time>2022-08-08T10:47:55Z</time>
      </trkpt>
      <trkpt lat="44.57021" lon="1.55483">
        <ele>217.5</ele>
        <time>2022-08-08T10:47:57Z</time>
      </trkpt>
      <trkpt lat="44.57009" lon="1.55483">
        <ele>217</ele>
        <time>2022-08-08T10:47:59Z</time>
      </trkpt>
      <trkpt lat="44.56996" lon="1.55484">
        <ele>216.6</ele>
        <time>2022-08-08T10:48:01Z</time>
      </trkpt>
      <trkpt lat="44.56979" lon="1.55487">
        <ele>216.5</ele>
        <time>2022-08-08T10:48:04Z</time>
      </trkpt>
      <trkpt lat="44.56967" lon="1.55488">
        <ele>216.3</ele>
        <time>2022-08-08T10:48:06Z</time>
      </trkpt>
      <trkpt lat="44.56955" lon="1.55491">
        <ele>216.2</ele>
        <time>2022-08-08T10:48:08Z</time>
      </trkpt>
      <trkpt lat="44.56943" lon="1.55494">
        <ele>216.1</ele>
        <time>2022-08-08T10:48:10Z</time>
      </trkpt>
      <trkpt lat="44.56931" lon="1.55496">
        <ele>216</ele>
        <time>2022-08-08T10:48:12Z</time>
      </trkpt>
      <trkpt lat="44.56919" lon="1.55499">
        <ele>216</ele>
        <time>2022-08-08T10:48:14Z</time>
      </trkpt>
      <trkpt lat="44.56908" lon="1.55502">
        <ele>215.9</ele>
        <time>2022-08-08T10:48:16Z</time>
      </trkpt>
      <trkpt lat="44.56896" lon="1.55505">
        <ele>216.1</ele>
        <time>2022-08-08T10:48:18Z</time>
      </trkpt>
      <trkpt lat="44.56884" lon="1.55509">
        <ele>216.2</ele>
        <time>2022-08-08T10:48:20Z</time>
      </trkpt>
      <trkpt lat="44.56872" lon="1.55513">
        <ele>216.6</ele>
        <time>2022-08-08T10:48:22Z</time>
      </trkpt>
      <trkpt lat="44.5686" lon="1.55517">
        <ele>216.6</ele>
        <time>2022-08-08T10:48:24Z</time>
      </trkpt>
      <trkpt lat="44.56849" lon="1.55521">
        <ele>216.8</ele>
        <time>2022-08-08T10:48:26Z</time>
      </trkpt>
      <trkpt lat="44.56837" lon="1.55526">
        <ele>216.9</ele>
        <time>2022-08-08T10:48:28Z</time>
      </trkpt>
      <trkpt lat="44.56825" lon="1.55531">
        <ele>217.2</ele>
        <time>2022-08-08T10:48:30Z</time>
      </trkpt>
      <trkpt lat="44.56813" lon="1.55536">
        <ele>217.4</ele>
        <time>2022-08-08T10:48:32Z</time>
      </trkpt>
      <trkpt lat="44.56801" lon="1.55541">
        <ele>217.7</ele>
        <time>2022-08-08T10:48:34Z</time>
      </trkpt>
      <trkpt lat="44.5679" lon="1.55546">
        <ele>217.8</ele>
        <time>2022-08-08T10:48:36Z</time>
      </trkpt>
      <trkpt lat="44.56779" lon="1.55551">
        <ele>217.8</ele>
        <time>2022-08-08T10:48:38Z</time>
      </trkpt>
      <trkpt lat="44.56767" lon="1.55555">
        <ele>217.4</ele>
        <time>2022-08-08T10:48:40Z</time>
      </trkpt>
      <trkpt lat="44.56756" lon="1.55561">
        <ele>217.2</ele>
        <time>2022-08-08T10:48:42Z</time>
      </trkpt>
      <trkpt lat="44.56745" lon="1.55566">
        <ele>216.9</ele>
        <time>2022-08-08T10:48:44Z</time>
      </trkpt>
      <trkpt lat="44.56734" lon="1.5557">
        <ele>216.6</ele>
        <time>2022-08-08T10:48:46Z</time>
      </trkpt>
      <trkpt lat="44.56723" lon="1.55575">
        <ele>216.3</ele>
        <time>2022-08-08T10:48:48Z</time>
      </trkpt>
      <trkpt lat="44.56712" lon="1.5558">
        <ele>216</ele>
        <time>2022-08-08T10:48:50Z</time>
      </trkpt>
      <trkpt lat="44.56701" lon="1.55584">
        <ele>215.4</ele>
        <time>2022-08-08T10:48:52Z</time>
      </trkpt>
      <trkpt lat="44.5669" lon="1.5559">
        <ele>215.5</ele>
        <time>2022-08-08T10:48:54Z</time>
      </trkpt>
      <trkpt lat="44.56679" lon="1.55594">
        <ele>215</ele>
        <time>2022-08-08T10:48:56Z</time>
      </trkpt>
      <trkpt lat="44.56669" lon="1.55596">
        <ele>214.1</ele>
        <time>2022-08-08T10:48:58Z</time>
      </trkpt>
      <trkpt lat="44.56657" lon="1.55599">
        <ele>215.3</ele>
        <time>2022-08-08T10:49:00Z</time>
      </trkpt>
      <trkpt lat="44.56645" lon="1.55601">
        <ele>217</ele>
        <time>2022-08-08T10:49:02Z</time>
      </trkpt>
      <trkpt lat="44.56633" lon="1.55601">
        <ele>218.4</ele>
        <time>2022-08-08T10:49:04Z</time>
      </trkpt>
      <trkpt lat="44.56621" lon="1.55598">
        <ele>219.2</ele>
        <time>2022-08-08T10:49:06Z</time>
      </trkpt>
      <trkpt lat="44.5661" lon="1.55592">
        <ele>219.6</ele>
        <time>2022-08-08T10:49:08Z</time>
      </trkpt>
      <trkpt lat="44.56604" lon="1.55588">
        <ele>219.4</ele>
        <time>2022-08-08T10:49:09Z</time>
      </trkpt>
      <trkpt lat="44.56595" lon="1.55577">
        <ele>218.8</ele>
        <time>2022-08-08T10:49:11Z</time>
      </trkpt>
      <trkpt lat="44.56588" lon="1.55567">
        <ele>217.8</ele>
        <time>2022-08-08T10:49:13Z</time>
      </trkpt>
      <trkpt lat="44.56578" lon="1.55558">
        <ele>217.9</ele>
        <time>2022-08-08T10:49:15Z</time>
      </trkpt>
      <trkpt lat="44.56571" lon="1.55548">
        <ele>217.6</ele>
        <time>2022-08-08T10:49:17Z</time>
      </trkpt>
      <trkpt lat="44.56563" lon="1.55538">
        <ele>217.4</ele>
        <time>2022-08-08T10:49:19Z</time>
      </trkpt>
      <trkpt lat="44.56556" lon="1.55526">
        <ele>216.3</ele>
        <time>2022-08-08T10:49:21Z</time>
      </trkpt>
      <trkpt lat="44.56547" lon="1.55515">
        <ele>215.4</ele>
        <time>2022-08-08T10:49:23Z</time>
      </trkpt>
      <trkpt lat="44.56537" lon="1.55509">
        <ele>215.8</ele>
        <time>2022-08-08T10:49:25Z</time>
      </trkpt>
      <trkpt lat="44.56527" lon="1.55502">
        <ele>215.6</ele>
        <time>2022-08-08T10:49:27Z</time>
      </trkpt>
      <trkpt lat="44.56516" lon="1.55495">
        <ele>216.2</ele>
        <time>2022-08-08T10:49:29Z</time>
      </trkpt>
      <trkpt lat="44.56507" lon="1.55489">
        <ele>216.8</ele>
        <time>2022-08-08T10:49:31Z</time>
      </trkpt>
      <trkpt lat="44.56497" lon="1.55483">
        <ele>217.2</ele>
        <time>2022-08-08T10:49:33Z</time>
      </trkpt>
      <trkpt lat="44.56488" lon="1.55477">
        <ele>217.1</ele>
        <time>2022-08-08T10:49:35Z</time>
      </trkpt>
      <trkpt lat="44.56478" lon="1.55473">
        <ele>217.2</ele>
        <time>2022-08-08T10:49:37Z</time>
      </trkpt>
      <trkpt lat="44.56468" lon="1.55466">
        <ele>216.7</ele>
        <time>2022-08-08T10:49:39Z</time>
      </trkpt>
      <trkpt lat="44.56458" lon="1.55461">
        <ele>216.5</ele>
        <time>2022-08-08T10:49:41Z</time>
      </trkpt>
      <trkpt lat="44.56448" lon="1.55456">
        <ele>216</ele>
        <time>2022-08-08T10:49:43Z</time>
      </trkpt>
      <trkpt lat="44.56438" lon="1.55453">
        <ele>216</ele>
        <time>2022-08-08T10:49:45Z</time>
      </trkpt>
      <trkpt lat="44.56428" lon="1.55448">
        <ele>215.4</ele>
        <time>2022-08-08T10:49:47Z</time>
      </trkpt>
      <trkpt lat="44.56418" lon="1.55445">
        <ele>215</ele>
        <time>2022-08-08T10:49:49Z</time>
      </trkpt>
      <trkpt lat="44.56407" lon="1.55442">
        <ele>214.3</ele>
        <time>2022-08-08T10:49:51Z</time>
      </trkpt>
      <trkpt lat="44.56398" lon="1.55438">
        <ele>213.5</ele>
        <time>2022-08-08T10:49:53Z</time>
      </trkpt>
      <trkpt lat="44.56386" lon="1.55436">
        <ele>213.1</ele>
        <time>2022-08-08T10:49:55Z</time>
      </trkpt>
      <trkpt lat="44.56376" lon="1.55434">
        <ele>212.6</ele>
        <time>2022-08-08T10:49:57Z</time>
      </trkpt>
      <trkpt lat="44.56365" lon="1.55433">
        <ele>212.2</ele>
        <time>2022-08-08T10:49:59Z</time>
      </trkpt>
      <trkpt lat="44.56356" lon="1.55433">
        <ele>212.1</ele>
        <time>2022-08-08T10:50:01Z</time>
      </trkpt>
      <trkpt lat="44.56346" lon="1.55433">
        <ele>212.1</ele>
        <time>2022-08-08T10:50:03Z</time>
      </trkpt>
      <trkpt lat="44.56335" lon="1.55434">
        <ele>212.3</ele>
        <time>2022-08-08T10:50:05Z</time>
      </trkpt>
      <trkpt lat="44.56324" lon="1.55434">
        <ele>212</ele>
        <time>2022-08-08T10:50:07Z</time>
      </trkpt>
      <trkpt lat="44.56313" lon="1.55435">
        <ele>211.9</ele>
        <time>2022-08-08T10:50:09Z</time>
      </trkpt>
      <trkpt lat="44.56303" lon="1.55436">
        <ele>211.7</ele>
        <time>2022-08-08T10:50:11Z</time>
      </trkpt>
      <trkpt lat="44.56293" lon="1.55437">
        <ele>211.6</ele>
        <time>2022-08-08T10:50:13Z</time>
      </trkpt>
      <trkpt lat="44.56283" lon="1.55439">
        <ele>211.6</ele>
        <time>2022-08-08T10:50:15Z</time>
      </trkpt>
      <trkpt lat="44.56272" lon="1.55441">
        <ele>211.6</ele>
        <time>2022-08-08T10:50:17Z</time>
      </trkpt>
      <trkpt lat="44.56262" lon="1.55445">
        <ele>211.8</ele>
        <time>2022-08-08T10:50:19Z</time>
      </trkpt>
      <trkpt lat="44.56252" lon="1.55448">
        <ele>211.9</ele>
        <time>2022-08-08T10:50:21Z</time>
      </trkpt>
      <trkpt lat="44.56241" lon="1.55451">
        <ele>212</ele>
        <time>2022-08-08T10:50:23Z</time>
      </trkpt>
      <trkpt lat="44.56231" lon="1.55454">
        <ele>212</ele>
        <time>2022-08-08T10:50:25Z</time>
      </trkpt>
      <trkpt lat="44.5622" lon="1.55458">
        <ele>212</ele>
        <time>2022-08-08T10:50:27Z</time>
      </trkpt>
      <trkpt lat="44.5621" lon="1.5546">
        <ele>211.8</ele>
        <time>2022-08-08T10:50:29Z</time>
      </trkpt>
      <trkpt lat="44.562" lon="1.55463">
        <ele>211.6</ele>
        <time>2022-08-08T10:50:31Z</time>
      </trkpt>
      <trkpt lat="44.5619" lon="1.55466">
        <ele>211.5</ele>
        <time>2022-08-08T10:50:33Z</time>
      </trkpt>
      <trkpt lat="44.5618" lon="1.55469">
        <ele>211.3</ele>
        <time>2022-08-08T10:50:35Z</time>
      </trkpt>
      <trkpt lat="44.5617" lon="1.55471">
        <ele>211</ele>
        <time>2022-08-08T10:50:37Z</time>
      </trkpt>
      <trkpt lat="44.5616" lon="1.55474">
        <ele>210.8</ele>
        <time>2022-08-08T10:50:39Z</time>
      </trkpt>
      <trkpt lat="44.56151" lon="1.55478">
        <ele>210.5</ele>
        <time>2022-08-08T10:50:41Z</time>
      </trkpt>
      <trkpt lat="44.56141" lon="1.55479">
        <ele>209.8</ele>
        <time>2022-08-08T10:50:43Z</time>
      </trkpt>
      <trkpt lat="44.56131" lon="1.55482">
        <ele>209.4</ele>
        <time>2022-08-08T10:50:45Z</time>
      </trkpt>
      <trkpt lat="44.56121" lon="1.55485">
        <ele>209</ele>
        <time>2022-08-08T10:50:47Z</time>
      </trkpt>
      <trkpt lat="44.56112" lon="1.5549">
        <ele>208.6</ele>
        <time>2022-08-08T10:50:49Z</time>
      </trkpt>
      <trkpt lat="44.56102" lon="1.55496">
        <ele>208.2</ele>
        <time>2022-08-08T10:50:51Z</time>
      </trkpt>
      <trkpt lat="44.56092" lon="1.55501">
        <ele>207.9</ele>
        <time>2022-08-08T10:50:53Z</time>
      </trkpt>
      <trkpt lat="44.56082" lon="1.55507">
        <ele>208.4</ele>
        <time>2022-08-08T10:50:55Z</time>
      </trkpt>
      <trkpt lat="44.56072" lon="1.55513">
        <ele>209.2</ele>
        <time>2022-08-08T10:50:57Z</time>
      </trkpt>
      <trkpt lat="44.56062" lon="1.55518">
        <ele>209.8</ele>
        <time>2022-08-08T10:50:59Z</time>
      </trkpt>
      <trkpt lat="44.56052" lon="1.55522">
        <ele>210.2</ele>
        <time>2022-08-08T10:51:01Z</time>
      </trkpt>
      <trkpt lat="44.56041" lon="1.55525">
        <ele>210.5</ele>
        <time>2022-08-08T10:51:03Z</time>
      </trkpt>
      <trkpt lat="44.5603" lon="1.5553">
        <ele>211.2</ele>
        <time>2022-08-08T10:51:05Z</time>
      </trkpt>
      <trkpt lat="44.5602" lon="1.55532">
        <ele>211.4</ele>
        <time>2022-08-08T10:51:07Z</time>
      </trkpt>
      <trkpt lat="44.56009" lon="1.55535">
        <ele>211.7</ele>
        <time>2022-08-08T10:51:09Z</time>
      </trkpt>
      <trkpt lat="44.55998" lon="1.55537">
        <ele>211.8</ele>
        <time>2022-08-08T10:51:11Z</time>
      </trkpt>
      <trkpt lat="44.55987" lon="1.5554">
        <ele>212.3</ele>
        <time>2022-08-08T10:51:13Z</time>
      </trkpt>
      <trkpt lat="44.55977" lon="1.55544">
        <ele>212.6</ele>
        <time>2022-08-08T10:51:15Z</time>
      </trkpt>
      <trkpt lat="44.55966" lon="1.55546">
        <ele>212.7</ele>
        <time>2022-08-08T10:51:17Z</time>
      </trkpt>
      <trkpt lat="44.55956" lon="1.5555">
        <ele>213.1</ele>
        <time>2022-08-08T10:51:19Z</time>
      </trkpt>
      <trkpt lat="44.55945" lon="1.55553">
        <ele>213.5</ele>
        <time>2022-08-08T10:51:21Z</time>
      </trkpt>
      <trkpt lat="44.55934" lon="1.55556">
        <ele>213.5</ele>
        <time>2022-08-08T10:51:23Z</time>
      </trkpt>
      <trkpt lat="44.55923" lon="1.55558">
        <ele>213.5</ele>
        <time>2022-08-08T10:51:25Z</time>
      </trkpt>
      <trkpt lat="44.55911" lon="1.55562">
        <ele>214</ele>
        <time>2022-08-08T10:51:27Z</time>
      </trkpt>
      <trkpt lat="44.559" lon="1.55565">
        <ele>214.6</ele>
        <time>2022-08-08T10:51:29Z</time>
      </trkpt>
      <trkpt lat="44.55889" lon="1.55567">
        <ele>215.2</ele>
        <time>2022-08-08T10:51:31Z</time>
      </trkpt>
      <trkpt lat="44.55878" lon="1.55569">
        <ele>215.7</ele>
        <time>2022-08-08T10:51:33Z</time>
      </trkpt>
      <trkpt lat="44.55867" lon="1.5557">
        <ele>216</ele>
        <time>2022-08-08T10:51:35Z</time>
      </trkpt>
      <trkpt lat="44.55856" lon="1.5557">
        <ele>216.2</ele>
        <time>2022-08-08T10:51:37Z</time>
      </trkpt>
      <trkpt lat="44.55845" lon="1.5557">
        <ele>216.3</ele>
        <time>2022-08-08T10:51:39Z</time>
      </trkpt>
      <trkpt lat="44.55834" lon="1.5557">
        <ele>216.5</ele>
        <time>2022-08-08T10:51:41Z</time>
      </trkpt>
      <trkpt lat="44.55822" lon="1.55568">
        <ele>215.8</ele>
        <time>2022-08-08T10:51:43Z</time>
      </trkpt>
      <trkpt lat="44.55812" lon="1.55567">
        <ele>215.5</ele>
        <time>2022-08-08T10:51:45Z</time>
      </trkpt>
      <trkpt lat="44.55801" lon="1.55565">
        <ele>214.8</ele>
        <time>2022-08-08T10:51:47Z</time>
      </trkpt>
      <trkpt lat="44.55789" lon="1.55565">
        <ele>214.6</ele>
        <time>2022-08-08T10:51:49Z</time>
      </trkpt>
      <trkpt lat="44.55779" lon="1.55563">
        <ele>214.1</ele>
        <time>2022-08-08T10:51:51Z</time>
      </trkpt>
      <trkpt lat="44.55768" lon="1.55561">
        <ele>213.6</ele>
        <time>2022-08-08T10:51:53Z</time>
      </trkpt>
      <trkpt lat="44.55756" lon="1.55561">
        <ele>213.3</ele>
        <time>2022-08-08T10:51:55Z</time>
      </trkpt>
      <trkpt lat="44.55745" lon="1.5556">
        <ele>212.8</ele>
        <time>2022-08-08T10:51:57Z</time>
      </trkpt>
      <trkpt lat="44.55735" lon="1.55559">
        <ele>211.9</ele>
        <time>2022-08-08T10:51:59Z</time>
      </trkpt>
      <trkpt lat="44.55724" lon="1.55559">
        <ele>211.1</ele>
        <time>2022-08-08T10:52:01Z</time>
      </trkpt>
      <trkpt lat="44.55713" lon="1.5556">
        <ele>210.6</ele>
        <time>2022-08-08T10:52:03Z</time>
      </trkpt>
      <trkpt lat="44.55702" lon="1.55561">
        <ele>210</ele>
        <time>2022-08-08T10:52:05Z</time>
      </trkpt>
      <trkpt lat="44.55691" lon="1.55564">
        <ele>209.6</ele>
        <time>2022-08-08T10:52:07Z</time>
      </trkpt>
      <trkpt lat="44.55682" lon="1.55567">
        <ele>209.4</ele>
        <time>2022-08-08T10:52:09Z</time>
      </trkpt>
      <trkpt lat="44.55672" lon="1.55572">
        <ele>209.2</ele>
        <time>2022-08-08T10:52:11Z</time>
      </trkpt>
      <trkpt lat="44.55662" lon="1.5558">
        <ele>209.2</ele>
        <time>2022-08-08T10:52:13Z</time>
      </trkpt>
      <trkpt lat="44.55653" lon="1.55588">
        <ele>210</ele>
        <time>2022-08-08T10:52:15Z</time>
      </trkpt>
      <trkpt lat="44.55644" lon="1.55598">
        <ele>211.3</ele>
        <time>2022-08-08T10:52:17Z</time>
      </trkpt>
      <trkpt lat="44.55636" lon="1.55608">
        <ele>212.5</ele>
        <time>2022-08-08T10:52:19Z</time>
      </trkpt>
      <trkpt lat="44.55628" lon="1.55617">
        <ele>213.1</ele>
        <time>2022-08-08T10:52:21Z</time>
      </trkpt>
      <trkpt lat="44.55619" lon="1.55627">
        <ele>213.3</ele>
        <time>2022-08-08T10:52:23Z</time>
      </trkpt>
      <trkpt lat="44.55611" lon="1.55638">
        <ele>213.2</ele>
        <time>2022-08-08T10:52:25Z</time>
      </trkpt>
      <trkpt lat="44.55602" lon="1.55648">
        <ele>212.5</ele>
        <time>2022-08-08T10:52:27Z</time>
      </trkpt>
      <trkpt lat="44.55593" lon="1.5566">
        <ele>211.4</ele>
        <time>2022-08-08T10:52:29Z</time>
      </trkpt>
      <trkpt lat="44.55584" lon="1.55672">
        <ele>210</ele>
        <time>2022-08-08T10:52:31Z</time>
      </trkpt>
      <trkpt lat="44.55576" lon="1.55682">
        <ele>209.9</ele>
        <time>2022-08-08T10:52:33Z</time>
      </trkpt>
      <trkpt lat="44.55566" lon="1.55692">
        <ele>209.8</ele>
        <time>2022-08-08T10:52:35Z</time>
      </trkpt>
      <trkpt lat="44.55557" lon="1.55702">
        <ele>209.6</ele>
        <time>2022-08-08T10:52:37Z</time>
      </trkpt>
      <trkpt lat="44.55549" lon="1.55712">
        <ele>209.4</ele>
        <time>2022-08-08T10:52:39Z</time>
      </trkpt>
      <trkpt lat="44.5554" lon="1.55723">
        <ele>209.2</ele>
        <time>2022-08-08T10:52:41Z</time>
      </trkpt>
      <trkpt lat="44.55532" lon="1.55732">
        <ele>208.8</ele>
        <time>2022-08-08T10:52:43Z</time>
      </trkpt>
      <trkpt lat="44.55523" lon="1.55742">
        <ele>208.2</ele>
        <time>2022-08-08T10:52:45Z</time>
      </trkpt>
      <trkpt lat="44.55515" lon="1.55753">
        <ele>207.5</ele>
        <time>2022-08-08T10:52:47Z</time>
      </trkpt>
      <trkpt lat="44.55507" lon="1.55763">
        <ele>206.3</ele>
        <time>2022-08-08T10:52:49Z</time>
      </trkpt>
      <trkpt lat="44.555" lon="1.55775">
        <ele>205.3</ele>
        <time>2022-08-08T10:52:51Z</time>
      </trkpt>
      <trkpt lat="44.55496" lon="1.55789">
        <ele>205.6</ele>
        <time>2022-08-08T10:52:53Z</time>
      </trkpt>
      <trkpt lat="44.55494" lon="1.55804">
        <ele>205.7</ele>
        <time>2022-08-08T10:52:55Z</time>
      </trkpt>
      <trkpt lat="44.55493" lon="1.55819">
        <ele>205.8</ele>
        <time>2022-08-08T10:52:57Z</time>
      </trkpt>
      <trkpt lat="44.55491" lon="1.55833">
        <ele>205.8</ele>
        <time>2022-08-08T10:52:59Z</time>
      </trkpt>
      <trkpt lat="44.5549" lon="1.55847">
        <ele>206.5</ele>
        <time>2022-08-08T10:53:01Z</time>
      </trkpt>
      <trkpt lat="44.55488" lon="1.55862">
        <ele>207.2</ele>
        <time>2022-08-08T10:53:03Z</time>
      </trkpt>
      <trkpt lat="44.55484" lon="1.55876">
        <ele>207.6</ele>
        <time>2022-08-08T10:53:05Z</time>
      </trkpt>
      <trkpt lat="44.55479" lon="1.55888">
        <ele>207.9</ele>
        <time>2022-08-08T10:53:07Z</time>
      </trkpt>
      <trkpt lat="44.55476" lon="1.55902">
        <ele>208.3</ele>
        <time>2022-08-08T10:53:09Z</time>
      </trkpt>
      <trkpt lat="44.55474" lon="1.55917">
        <ele>208.8</ele>
        <time>2022-08-08T10:53:11Z</time>
      </trkpt>
      <trkpt lat="44.55472" lon="1.55932">
        <ele>209.3</ele>
        <time>2022-08-08T10:53:13Z</time>
      </trkpt>
      <trkpt lat="44.55472" lon="1.55948">
        <ele>209.9</ele>
        <time>2022-08-08T10:53:15Z</time>
      </trkpt>
      <trkpt lat="44.55472" lon="1.55963">
        <ele>210.5</ele>
        <time>2022-08-08T10:53:17Z</time>
      </trkpt>
      <trkpt lat="44.55472" lon="1.55979">
        <ele>211.1</ele>
        <time>2022-08-08T10:53:19Z</time>
      </trkpt>
      <trkpt lat="44.5547" lon="1.55994">
        <ele>211.6</ele>
        <time>2022-08-08T10:53:21Z</time>
      </trkpt>
      <trkpt lat="44.55465" lon="1.56009">
        <ele>212.8</ele>
        <time>2022-08-08T10:53:23Z</time>
      </trkpt>
      <trkpt lat="44.55458" lon="1.56019">
        <ele>213.2</ele>
        <time>2022-08-08T10:53:25Z</time>
      </trkpt>
      <trkpt lat="44.55451" lon="1.56031">
        <ele>213.7</ele>
        <time>2022-08-08T10:53:27Z</time>
      </trkpt>
      <trkpt lat="44.55443" lon="1.56043">
        <ele>213.6</ele>
        <time>2022-08-08T10:53:29Z</time>
      </trkpt>
      <trkpt lat="44.55434" lon="1.56054">
        <ele>212.6</ele>
        <time>2022-08-08T10:53:31Z</time>
      </trkpt>
      <trkpt lat="44.55424" lon="1.56062">
        <ele>211.2</ele>
        <time>2022-08-08T10:53:33Z</time>
      </trkpt>
      <trkpt lat="44.55413" lon="1.5607">
        <ele>209.9</ele>
        <time>2022-08-08T10:53:35Z</time>
      </trkpt>
      <trkpt lat="44.55402" lon="1.56076">
        <ele>210.4</ele>
        <time>2022-08-08T10:53:37Z</time>
      </trkpt>
      <trkpt lat="44.55391" lon="1.56081">
        <ele>210.7</ele>
        <time>2022-08-08T10:53:39Z</time>
      </trkpt>
      <trkpt lat="44.55379" lon="1.56085">
        <ele>211.4</ele>
        <time>2022-08-08T10:53:41Z</time>
      </trkpt>
      <trkpt lat="44.55368" lon="1.56086">
        <ele>211.8</ele>
        <time>2022-08-08T10:53:43Z</time>
      </trkpt>
      <trkpt lat="44.55357" lon="1.56087">
        <ele>212.3</ele>
        <time>2022-08-08T10:53:45Z</time>
      </trkpt>
      <trkpt lat="44.55345" lon="1.5609">
        <ele>213</ele>
        <time>2022-08-08T10:53:47Z</time>
      </trkpt>
      <trkpt lat="44.55334" lon="1.56092">
        <ele>213.6</ele>
        <time>2022-08-08T10:53:49Z</time>
      </trkpt>
      <trkpt lat="44.55325" lon="1.56099">
        <ele>216.2</ele>
        <time>2022-08-08T10:53:51Z</time>
      </trkpt>
      <trkpt lat="44.55317" lon="1.56107">
        <ele>218.5</ele>
        <time>2022-08-08T10:53:53Z</time>
      </trkpt>
      <trkpt lat="44.55312" lon="1.56118">
        <ele>219.9</ele>
        <time>2022-08-08T10:53:55Z</time>
      </trkpt>
      <trkpt lat="44.55304" lon="1.56126">
        <ele>221</ele>
        <time>2022-08-08T10:53:57Z</time>
      </trkpt>
      <trkpt lat="44.55302" lon="1.56133">
        <ele>221.2</ele>
        <time>2022-08-08T10:53:59Z</time>
      </trkpt>
      <trkpt lat="44.55301" lon="1.56135">
        <ele>221.3</ele>
        <time>2022-08-08T10:54:01Z</time>
      </trkpt>
      <trkpt lat="44.55301" lon="1.56135">
        <ele>221.3</ele>
        <time>2022-08-08T10:54:03Z</time>
      </trkpt>
      <trkpt lat="44.55301" lon="1.56138">
        <ele>221.3</ele>
        <time>2022-08-08T10:54:05Z</time>
      </trkpt>
      <trkpt lat="44.55301" lon="1.5614">
        <ele>221.4</ele>
        <time>2022-08-08T10:54:07Z</time>
      </trkpt>
      <trkpt lat="44.55302" lon="1.56142">
        <ele>221.5</ele>
        <time>2022-08-08T10:54:09Z</time>
      </trkpt>
      <trkpt lat="44.55316" lon="1.56121">
        <ele>219.9</ele>
        <time>2022-08-08T10:56:33Z</time>
      </trkpt>
      <trkpt lat="44.5532" lon="1.56114">
        <ele>218.8</ele>
        <time>2022-08-08T10:56:35Z</time>
      </trkpt>
      <trkpt lat="44.55324" lon="1.56109">
        <ele>217.8</ele>
        <time>2022-08-08T10:56:37Z</time>
      </trkpt>
      <trkpt lat="44.55321" lon="1.56106">
        <ele>217.7</ele>
        <time>2022-08-08T10:56:39Z</time>
      </trkpt>
      <trkpt lat="44.5532" lon="1.56108">
        <ele>218.3</ele>
        <time>2022-08-08T10:56:41Z</time>
      </trkpt>
      <trkpt lat="44.55318" lon="1.56111">
        <ele>218.7</ele>
        <time>2022-08-08T10:56:43Z</time>
      </trkpt>
      <trkpt lat="44.55318" lon="1.56115">
        <ele>219.2</ele>
        <time>2022-08-08T10:56:45Z</time>
      </trkpt>
      <trkpt lat="44.55316" lon="1.56119">
        <ele>219.8</ele>
        <time>2022-08-08T10:56:47Z</time>
      </trkpt>
      <trkpt lat="44.55314" lon="1.56122">
        <ele>220.2</ele>
        <time>2022-08-08T10:56:49Z</time>
      </trkpt>
      <trkpt lat="44.55313" lon="1.56125">
        <ele>220.5</ele>
        <time>2022-08-08T10:56:51Z</time>
      </trkpt>
      <trkpt lat="44.55312" lon="1.56128">
        <ele>220.8</ele>
        <time>2022-08-08T10:56:53Z</time>
      </trkpt>
      <trkpt lat="44.55309" lon="1.56134">
        <ele>221.2</ele>
        <time>2022-08-08T10:56:55Z</time>
      </trkpt>
      <trkpt lat="44.55307" lon="1.56141">
        <ele>221.5</ele>
        <time>2022-08-08T10:56:57Z</time>
      </trkpt>
      <trkpt lat="44.55304" lon="1.56148">
        <ele>221.7</ele>
        <time>2022-08-08T10:56:59Z</time>
      </trkpt>
      <trkpt lat="44.553" lon="1.56156">
        <ele>221.6</ele>
        <time>2022-08-08T10:57:01Z</time>
      </trkpt>
      <trkpt lat="44.55296" lon="1.56164">
        <ele>221.3</ele>
        <time>2022-08-08T10:57:03Z</time>
      </trkpt>
      <trkpt lat="44.55291" lon="1.56171">
        <ele>220.8</ele>
        <time>2022-08-08T10:57:05Z</time>
      </trkpt>
      <trkpt lat="44.55286" lon="1.56177">
        <ele>220.5</ele>
        <time>2022-08-08T10:57:07Z</time>
      </trkpt>
      <trkpt lat="44.5528" lon="1.56182">
        <ele>219.8</ele>
        <time>2022-08-08T10:57:09Z</time>
      </trkpt>
      <trkpt lat="44.55274" lon="1.56189">
        <ele>218.9</ele>
        <time>2022-08-08T10:57:11Z</time>
      </trkpt>
      <trkpt lat="44.55268" lon="1.56194">
        <ele>217.7</ele>
        <time>2022-08-08T10:57:13Z</time>
      </trkpt>
      <trkpt lat="44.55262" lon="1.56204">
        <ele>216.7</ele>
        <time>2022-08-08T10:57:15Z</time>
      </trkpt>
      <trkpt lat="44.55259" lon="1.56215">
        <ele>215.9</ele>
        <time>2022-08-08T10:57:17Z</time>
      </trkpt>
      <trkpt lat="44.5525" lon="1.56216">
        <ele>213.5</ele>
        <time>2022-08-08T10:57:19Z</time>
      </trkpt>
      <trkpt lat="44.55246" lon="1.56225">
        <ele>213.6</ele>
        <time>2022-08-08T10:57:21Z</time>
      </trkpt>
      <trkpt lat="44.5524" lon="1.56233">
        <ele>213.7</ele>
        <time>2022-08-08T10:57:23Z</time>
      </trkpt>
      <trkpt lat="44.55235" lon="1.5624">
        <ele>213.7</ele>
        <time>2022-08-08T10:57:25Z</time>
      </trkpt>
      <trkpt lat="44.55231" lon="1.56249">
        <ele>213.3</ele>
        <time>2022-08-08T10:57:27Z</time>
      </trkpt>
      <trkpt lat="44.55227" lon="1.56258">
        <ele>213.6</ele>
        <time>2022-08-08T10:57:29Z</time>
      </trkpt>
      <trkpt lat="44.55223" lon="1.56268">
        <ele>213.8</ele>
        <time>2022-08-08T10:57:31Z</time>
      </trkpt>
      <trkpt lat="44.55221" lon="1.56274">
        <ele>214</ele>
        <time>2022-08-08T10:57:33Z</time>
      </trkpt>
      <trkpt lat="44.5522" lon="1.56278">
        <ele>214.1</ele>
        <time>2022-08-08T10:57:35Z</time>
      </trkpt>
      <trkpt lat="44.55223" lon="1.56282">
        <ele>214.2</ele>
        <time>2022-08-08T10:57:37Z</time>
      </trkpt>
      <trkpt lat="44.55227" lon="1.56276">
        <ele>214.1</ele>
        <time>2022-08-08T10:57:39Z</time>
      </trkpt>
      <trkpt lat="44.55227" lon="1.56265">
        <ele>213.8</ele>
        <time>2022-08-08T10:57:41Z</time>
      </trkpt>
      <trkpt lat="44.5523" lon="1.56254">
        <ele>213.4</ele>
        <time>2022-08-08T10:57:43Z</time>
      </trkpt>
      <trkpt lat="44.55237" lon="1.56245">
        <ele>213.4</ele>
        <time>2022-08-08T10:57:45Z</time>
      </trkpt>
      <trkpt lat="44.55242" lon="1.56233">
        <ele>213.6</ele>
        <time>2022-08-08T10:57:47Z</time>
      </trkpt>
      <trkpt lat="44.5525" lon="1.56225">
        <ele>213.3</ele>
        <time>2022-08-08T10:57:49Z</time>
      </trkpt>
      <trkpt lat="44.55259" lon="1.56214">
        <ele>216</ele>
        <time>2022-08-08T10:57:51Z</time>
      </trkpt>
      <trkpt lat="44.55268" lon="1.56205">
        <ele>218</ele>
        <time>2022-08-08T10:57:53Z</time>
      </trkpt>
      <trkpt lat="44.55276" lon="1.56192">
        <ele>219.5</ele>
        <time>2022-08-08T10:57:55Z</time>
      </trkpt>
      <trkpt lat="44.55284" lon="1.56183">
        <ele>220.5</ele>
        <time>2022-08-08T10:57:57Z</time>
      </trkpt>
      <trkpt lat="44.55291" lon="1.56172">
        <ele>220.9</ele>
        <time>2022-08-08T10:57:59Z</time>
      </trkpt>
      <trkpt lat="44.55297" lon="1.56162">
        <ele>221.3</ele>
        <time>2022-08-08T10:58:01Z</time>
      </trkpt>
      <trkpt lat="44.55301" lon="1.5615">
        <ele>221.6</ele>
        <time>2022-08-08T10:58:03Z</time>
      </trkpt>
      <trkpt lat="44.55305" lon="1.56138">
        <ele>221.4</ele>
        <time>2022-08-08T10:58:05Z</time>
      </trkpt>
      <trkpt lat="44.5531" lon="1.56128">
        <ele>220.8</ele>
        <time>2022-08-08T10:58:07Z</time>
      </trkpt>
      <trkpt lat="44.55313" lon="1.56122">
        <ele>220.2</ele>
        <time>2022-08-08T10:58:09Z</time>
      </trkpt>
      <trkpt lat="44.55312" lon="1.56122">
        <ele>220.3</ele>
        <time>2022-08-08T10:58:11Z</time>
      </trkpt>
      <trkpt lat="44.55312" lon="1.56121">
        <ele>220.2</ele>
        <time>2022-08-08T10:58:13Z</time>
      </trkpt>
      <trkpt lat="44.55312" lon="1.56121">
        <ele>220.2</ele>
        <time>2022-08-08T10:58:15Z</time>
      </trkpt>
      <trkpt lat="44.55312" lon="1.56121">
        <ele>220.2</ele>
        <time>2022-08-08T10:58:19Z</time>
      </trkpt>
      <trkpt lat="44.55297" lon="1.56146">
        <ele>221.3</ele>
        <time>2022-08-08T10:59:17Z</time>
      </trkpt>
      <trkpt lat="44.55294" lon="1.56157">
        <ele>221</ele>
        <time>2022-08-08T10:59:19Z</time>
      </trkpt>
      <trkpt lat="44.55288" lon="1.56164">
        <ele>220.1</ele>
        <time>2022-08-08T10:59:21Z</time>
      </trkpt>
      <trkpt lat="44.55282" lon="1.56173">
        <ele>219.5</ele>
        <time>2022-08-08T10:59:23Z</time>
      </trkpt>
      <trkpt lat="44.55276" lon="1.56182">
        <ele>218.8</ele>
        <time>2022-08-08T10:59:25Z</time>
      </trkpt>
      <trkpt lat="44.55269" lon="1.5619">
        <ele>217.8</ele>
        <time>2022-08-08T10:59:27Z</time>
      </trkpt>
      <trkpt lat="44.55263" lon="1.562">
        <ele>216.8</ele>
        <time>2022-08-08T10:59:29Z</time>
      </trkpt>
      <trkpt lat="44.55256" lon="1.56208">
        <ele>215.2</ele>
        <time>2022-08-08T10:59:31Z</time>
      </trkpt>
      <trkpt lat="44.5525" lon="1.56215">
        <ele>213.5</ele>
        <time>2022-08-08T10:59:33Z</time>
      </trkpt>
      <trkpt lat="44.55244" lon="1.56223">
        <ele>213.8</ele>
        <time>2022-08-08T10:59:35Z</time>
      </trkpt>
      <trkpt lat="44.55238" lon="1.56232">
        <ele>213.9</ele>
        <time>2022-08-08T10:59:37Z</time>
      </trkpt>
      <trkpt lat="44.55233" lon="1.56242">
        <ele>213.7</ele>
        <time>2022-08-08T10:59:39Z</time>
      </trkpt>
      <trkpt lat="44.55229" lon="1.56251">
        <ele>213.3</ele>
        <time>2022-08-08T10:59:41Z</time>
      </trkpt>
      <trkpt lat="44.55225" lon="1.56264">
        <ele>213.7</ele>
        <time>2022-08-08T10:59:43Z</time>
      </trkpt>
      <trkpt lat="44.55222" lon="1.56275">
        <ele>214</ele>
        <time>2022-08-08T10:59:45Z</time>
      </trkpt>
      <trkpt lat="44.55219" lon="1.56288">
        <ele>214.3</ele>
        <time>2022-08-08T10:59:47Z</time>
      </trkpt>
      <trkpt lat="44.55218" lon="1.56301">
        <ele>214.6</ele>
        <time>2022-08-08T10:59:49Z</time>
      </trkpt>
      <trkpt lat="44.55217" lon="1.56313">
        <ele>214.8</ele>
        <time>2022-08-08T10:59:51Z</time>
      </trkpt>
      <trkpt lat="44.55216" lon="1.56325">
        <ele>215</ele>
        <time>2022-08-08T10:59:53Z</time>
      </trkpt>
      <trkpt lat="44.55216" lon="1.56339">
        <ele>215.3</ele>
        <time>2022-08-08T10:59:55Z</time>
      </trkpt>
      <trkpt lat="44.55216" lon="1.56352">
        <ele>215.7</ele>
        <time>2022-08-08T10:59:57Z</time>
      </trkpt>
      <trkpt lat="44.55217" lon="1.56364">
        <ele>216.2</ele>
        <time>2022-08-08T10:59:59Z</time>
      </trkpt>
      <trkpt lat="44.55218" lon="1.56378">
        <ele>216.7</ele>
        <time>2022-08-08T11:00:01Z</time>
      </trkpt>
      <trkpt lat="44.55218" lon="1.5639">
        <ele>217.1</ele>
        <time>2022-08-08T11:00:03Z</time>
      </trkpt>
      <trkpt lat="44.55218" lon="1.56403">
        <ele>217.5</ele>
        <time>2022-08-08T11:00:05Z</time>
      </trkpt>
      <trkpt lat="44.55219" lon="1.56415">
        <ele>217.9</ele>
        <time>2022-08-08T11:00:07Z</time>
      </trkpt>
      <trkpt lat="44.55219" lon="1.56428">
        <ele>218.1</ele>
        <time>2022-08-08T11:00:09Z</time>
      </trkpt>
      <trkpt lat="44.5522" lon="1.56441">
        <ele>218.4</ele>
        <time>2022-08-08T11:00:11Z</time>
      </trkpt>
      <trkpt lat="44.5522" lon="1.56454">
        <ele>218.5</ele>
        <time>2022-08-08T11:00:13Z</time>
      </trkpt>
      <trkpt lat="44.5522" lon="1.56466">
        <ele>218.6</ele>
        <time>2022-08-08T11:00:15Z</time>
      </trkpt>
      <trkpt lat="44.55221" lon="1.5648">
        <ele>219</ele>
        <time>2022-08-08T11:00:17Z</time>
      </trkpt>
      <trkpt lat="44.55221" lon="1.56492">
        <ele>219.1</ele>
        <time>2022-08-08T11:00:19Z</time>
      </trkpt>
      <trkpt lat="44.55221" lon="1.56505">
        <ele>219.6</ele>
        <time>2022-08-08T11:00:21Z</time>
      </trkpt>
      <trkpt lat="44.5522" lon="1.56516">
        <ele>220.5</ele>
        <time>2022-08-08T11:00:23Z</time>
      </trkpt>
      <trkpt lat="44.55219" lon="1.56529">
        <ele>221.4</ele>
        <time>2022-08-08T11:00:25Z</time>
      </trkpt>
      <trkpt lat="44.55217" lon="1.56538">
        <ele>221.9</ele>
        <time>2022-08-08T11:00:27Z</time>
      </trkpt>
      <trkpt lat="44.55214" lon="1.56546">
        <ele>222.2</ele>
        <time>2022-08-08T11:00:29Z</time>
      </trkpt>
      <trkpt lat="44.55212" lon="1.56549">
        <ele>222.2</ele>
        <time>2022-08-08T11:00:31Z</time>
      </trkpt>
      <trkpt lat="44.55212" lon="1.56548">
        <ele>222.1</ele>
        <time>2022-08-08T11:00:33Z</time>
      </trkpt>
      <trkpt lat="44.55211" lon="1.56549">
        <ele>222</ele>
        <time>2022-08-08T11:00:35Z</time>
      </trkpt>
      <trkpt lat="44.5521" lon="1.56549">
        <ele>221.8</ele>
        <time>2022-08-08T11:00:37Z</time>
      </trkpt>
      <trkpt lat="44.55209" lon="1.56549">
        <ele>221.7</ele>
        <time>2022-08-08T11:00:39Z</time>
      </trkpt>
      <trkpt lat="44.55208" lon="1.56548">
        <ele>221.6</ele>
        <time>2022-08-08T11:00:41Z</time>
      </trkpt>
      <trkpt lat="44.55198" lon="1.56567">
        <ele>221.5</ele>
        <time>2022-08-08T11:01:32Z</time>
      </trkpt>
      <trkpt lat="44.55191" lon="1.56572">
        <ele>220.9</ele>
        <time>2022-08-08T11:01:34Z</time>
      </trkpt>
      <trkpt lat="44.55186" lon="1.56577">
        <ele>220.5</ele>
        <time>2022-08-08T11:01:36Z</time>
      </trkpt>
      <trkpt lat="44.55178" lon="1.56581">
        <ele>219.5</ele>
        <time>2022-08-08T11:01:38Z</time>
      </trkpt>
      <trkpt lat="44.55171" lon="1.56586">
        <ele>219.5</ele>
        <time>2022-08-08T11:01:40Z</time>
      </trkpt>
      <trkpt lat="44.55164" lon="1.56586">
        <ele>218.7</ele>
        <time>2022-08-08T11:01:42Z</time>
      </trkpt>
      <trkpt lat="44.55154" lon="1.5659">
        <ele>219.9</ele>
        <time>2022-08-08T11:01:44Z</time>
      </trkpt>
      <trkpt lat="44.55149" lon="1.56591">
        <ele>220.3</ele>
        <time>2022-08-08T11:01:45Z</time>
      </trkpt>
      <trkpt lat="44.5514" lon="1.56588">
        <ele>219</ele>
        <time>2022-08-08T11:01:47Z</time>
      </trkpt>
      <trkpt lat="44.5513" lon="1.56589">
        <ele>219</ele>
        <time>2022-08-08T11:01:49Z</time>
      </trkpt>
      <trkpt lat="44.55122" lon="1.56587">
        <ele>218.3</ele>
        <time>2022-08-08T11:01:51Z</time>
      </trkpt>
      <trkpt lat="44.55114" lon="1.56585">
        <ele>217.4</ele>
        <time>2022-08-08T11:01:53Z</time>
      </trkpt>
      <trkpt lat="44.55105" lon="1.5658">
        <ele>216.1</ele>
        <time>2022-08-08T11:01:55Z</time>
      </trkpt>
      <trkpt lat="44.55098" lon="1.56574">
        <ele>215</ele>
        <time>2022-08-08T11:01:57Z</time>
      </trkpt>
      <trkpt lat="44.5509" lon="1.56565">
        <ele>213.4</ele>
        <time>2022-08-08T11:01:59Z</time>
      </trkpt>
      <trkpt lat="44.55084" lon="1.56557">
        <ele>211.9</ele>
        <time>2022-08-08T11:02:01Z</time>
      </trkpt>
      <trkpt lat="44.55078" lon="1.56546">
        <ele>209.8</ele>
        <time>2022-08-08T11:02:03Z</time>
      </trkpt>
      <trkpt lat="44.55071" lon="1.56539">
        <ele>208.5</ele>
        <time>2022-08-08T11:02:05Z</time>
      </trkpt>
      <trkpt lat="44.55064" lon="1.56531">
        <ele>206.9</ele>
        <time>2022-08-08T11:02:07Z</time>
      </trkpt>
      <trkpt lat="44.55055" lon="1.56523">
        <ele>205.4</ele>
        <time>2022-08-08T11:02:09Z</time>
      </trkpt>
      <trkpt lat="44.55047" lon="1.56518">
        <ele>204.5</ele>
        <time>2022-08-08T11:02:11Z</time>
      </trkpt>
      <trkpt lat="44.55038" lon="1.56516">
        <ele>203.9</ele>
        <time>2022-08-08T11:02:13Z</time>
      </trkpt>
      <trkpt lat="44.5503" lon="1.5652">
        <ele>204</ele>
        <time>2022-08-08T11:02:15Z</time>
      </trkpt>
      <trkpt lat="44.55021" lon="1.56527">
        <ele>204.4</ele>
        <time>2022-08-08T11:02:17Z</time>
      </trkpt>
      <trkpt lat="44.55013" lon="1.56535">
        <ele>205</ele>
        <time>2022-08-08T11:02:19Z</time>
      </trkpt>
      <trkpt lat="44.55007" lon="1.56545">
        <ele>205.8</ele>
        <time>2022-08-08T11:02:21Z</time>
      </trkpt>
      <trkpt lat="44.55" lon="1.56555">
        <ele>206.3</ele>
        <time>2022-08-08T11:02:23Z</time>
      </trkpt>
      <trkpt lat="44.54994" lon="1.56566">
        <ele>206.8</ele>
        <time>2022-08-08T11:02:25Z</time>
      </trkpt>
      <trkpt lat="44.54988" lon="1.56577">
        <ele>206.9</ele>
        <time>2022-08-08T11:02:27Z</time>
      </trkpt>
      <trkpt lat="44.5498" lon="1.56586">
        <ele>206.9</ele>
        <time>2022-08-08T11:02:29Z</time>
      </trkpt>
      <trkpt lat="44.54973" lon="1.56595">
        <ele>207.2</ele>
        <time>2022-08-08T11:02:31Z</time>
      </trkpt>
      <trkpt lat="44.54965" lon="1.56601">
        <ele>206.9</ele>
        <time>2022-08-08T11:02:33Z</time>
      </trkpt>
      <trkpt lat="44.54957" lon="1.56607">
        <ele>206.4</ele>
        <time>2022-08-08T11:02:35Z</time>
      </trkpt>
      <trkpt lat="44.54949" lon="1.56611">
        <ele>205.6</ele>
        <time>2022-08-08T11:02:37Z</time>
      </trkpt>
      <trkpt lat="44.5494" lon="1.56614">
        <ele>204.4</ele>
        <time>2022-08-08T11:02:39Z</time>
      </trkpt>
      <trkpt lat="44.5493" lon="1.56618">
        <ele>203.2</ele>
        <time>2022-08-08T11:02:41Z</time>
      </trkpt>
      <trkpt lat="44.5492" lon="1.5662">
        <ele>201.7</ele>
        <time>2022-08-08T11:02:43Z</time>
      </trkpt>
      <trkpt lat="44.54911" lon="1.56622">
        <ele>201.2</ele>
        <time>2022-08-08T11:02:45Z</time>
      </trkpt>
      <trkpt lat="44.54901" lon="1.56625">
        <ele>201.2</ele>
        <time>2022-08-08T11:02:47Z</time>
      </trkpt>
      <trkpt lat="44.54891" lon="1.56628">
        <ele>201.2</ele>
        <time>2022-08-08T11:02:49Z</time>
      </trkpt>
      <trkpt lat="44.54881" lon="1.56631">
        <ele>201.2</ele>
        <time>2022-08-08T11:02:51Z</time>
      </trkpt>
      <trkpt lat="44.54871" lon="1.56633">
        <ele>201.2</ele>
        <time>2022-08-08T11:02:53Z</time>
      </trkpt>
      <trkpt lat="44.5486" lon="1.56635">
        <ele>201.1</ele>
        <time>2022-08-08T11:02:55Z</time>
      </trkpt>
      <trkpt lat="44.5485" lon="1.56637">
        <ele>201</ele>
        <time>2022-08-08T11:02:57Z</time>
      </trkpt>
      <trkpt lat="44.5484" lon="1.56639">
        <ele>200.8</ele>
        <time>2022-08-08T11:02:59Z</time>
      </trkpt>
      <trkpt lat="44.54829" lon="1.56644">
        <ele>200.7</ele>
        <time>2022-08-08T11:03:01Z</time>
      </trkpt>
      <trkpt lat="44.5482" lon="1.56651">
        <ele>200.4</ele>
        <time>2022-08-08T11:03:03Z</time>
      </trkpt>
      <trkpt lat="44.54811" lon="1.56661">
        <ele>200</ele>
        <time>2022-08-08T11:03:05Z</time>
      </trkpt>
      <trkpt lat="44.54805" lon="1.56674">
        <ele>200.5</ele>
        <time>2022-08-08T11:03:07Z</time>
      </trkpt>
      <trkpt lat="44.548" lon="1.56686">
        <ele>201.6</ele>
        <time>2022-08-08T11:03:09Z</time>
      </trkpt>
      <trkpt lat="44.54795" lon="1.567">
        <ele>202.6</ele>
        <time>2022-08-08T11:03:11Z</time>
      </trkpt>
      <trkpt lat="44.5479" lon="1.56714">
        <ele>203.4</ele>
        <time>2022-08-08T11:03:13Z</time>
      </trkpt>
      <trkpt lat="44.54785" lon="1.56727">
        <ele>203.7</ele>
        <time>2022-08-08T11:03:15Z</time>
      </trkpt>
      <trkpt lat="44.54779" lon="1.5674">
        <ele>203.7</ele>
        <time>2022-08-08T11:03:17Z</time>
      </trkpt>
      <trkpt lat="44.54772" lon="1.56753">
        <ele>203.6</ele>
        <time>2022-08-08T11:03:19Z</time>
      </trkpt>
      <trkpt lat="44.54765" lon="1.56766">
        <ele>204.7</ele>
        <time>2022-08-08T11:03:21Z</time>
      </trkpt>
      <trkpt lat="44.54757" lon="1.56778">
        <ele>205.1</ele>
        <time>2022-08-08T11:03:23Z</time>
      </trkpt>
      <trkpt lat="44.5475" lon="1.5679">
        <ele>205.6</ele>
        <time>2022-08-08T11:03:25Z</time>
      </trkpt>
      <trkpt lat="44.54743" lon="1.56802">
        <ele>206.8</ele>
        <time>2022-08-08T11:03:27Z</time>
      </trkpt>
      <trkpt lat="44.54736" lon="1.56813">
        <ele>207.5</ele>
        <time>2022-08-08T11:03:29Z</time>
      </trkpt>
      <trkpt lat="44.54728" lon="1.56823">
        <ele>207.5</ele>
        <time>2022-08-08T11:03:31Z</time>
      </trkpt>
      <trkpt lat="44.54721" lon="1.56832">
        <ele>207.3</ele>
        <time>2022-08-08T11:03:33Z</time>
      </trkpt>
      <trkpt lat="44.54715" lon="1.5684">
        <ele>207.2</ele>
        <time>2022-08-08T11:03:35Z</time>
      </trkpt>
      <trkpt lat="44.54711" lon="1.56847">
        <ele>207.7</ele>
        <time>2022-08-08T11:03:37Z</time>
      </trkpt>
      <trkpt lat="44.54709" lon="1.56853">
        <ele>208.3</ele>
        <time>2022-08-08T11:03:39Z</time>
      </trkpt>
      <trkpt lat="44.54707" lon="1.56854">
        <ele>208.1</ele>
        <time>2022-08-08T11:03:41Z</time>
      </trkpt>
      <trkpt lat="44.54707" lon="1.56855">
        <ele>208</ele>
        <time>2022-08-08T11:03:43Z</time>
      </trkpt>
      <trkpt lat="44.54707" lon="1.56855">
        <ele>207.9</ele>
        <time>2022-08-08T11:03:45Z</time>
      </trkpt>
      <trkpt lat="44.54706" lon="1.56854">
        <ele>207.8</ele>
        <time>2022-08-08T11:03:47Z</time>
      </trkpt>
      <trkpt lat="44.54689" lon="1.56852">
        <ele>203.1</ele>
        <time>2022-08-08T11:04:52Z</time>
      </trkpt>
      <trkpt lat="44.54682" lon="1.56854">
        <ele>201.8</ele>
        <time>2022-08-08T11:04:54Z</time>
      </trkpt>
      <trkpt lat="44.54676" lon="1.56855">
        <ele>200.3</ele>
        <time>2022-08-08T11:04:56Z</time>
      </trkpt>
      <trkpt lat="44.54669" lon="1.56855">
        <ele>198.6</ele>
        <time>2022-08-08T11:04:58Z</time>
      </trkpt>
      <trkpt lat="44.5466" lon="1.56854">
        <ele>198.1</ele>
        <time>2022-08-08T11:05:00Z</time>
      </trkpt>
      <trkpt lat="44.54652" lon="1.56854">
        <ele>198.2</ele>
        <time>2022-08-08T11:05:02Z</time>
      </trkpt>
      <trkpt lat="44.54644" lon="1.56852">
        <ele>198.1</ele>
        <time>2022-08-08T11:05:04Z</time>
      </trkpt>
      <trkpt lat="44.54635" lon="1.56848">
        <ele>197.6</ele>
        <time>2022-08-08T11:05:06Z</time>
      </trkpt>
      <trkpt lat="44.54627" lon="1.56844">
        <ele>197</ele>
        <time>2022-08-08T11:05:08Z</time>
      </trkpt>
      <trkpt lat="44.5462" lon="1.56841">
        <ele>196.5</ele>
        <time>2022-08-08T11:05:10Z</time>
      </trkpt>
      <trkpt lat="44.54612" lon="1.56839">
        <ele>196.1</ele>
        <time>2022-08-08T11:05:12Z</time>
      </trkpt>
      <trkpt lat="44.54604" lon="1.56834">
        <ele>195.2</ele>
        <time>2022-08-08T11:05:14Z</time>
      </trkpt>
      <trkpt lat="44.54597" lon="1.56835">
        <ele>195.3</ele>
        <time>2022-08-08T11:05:16Z</time>
      </trkpt>
      <trkpt lat="44.54589" lon="1.56836">
        <ele>195.7</ele>
        <time>2022-08-08T11:05:18Z</time>
      </trkpt>
      <trkpt lat="44.54582" lon="1.5684">
        <ele>196.5</ele>
        <time>2022-08-08T11:05:20Z</time>
      </trkpt>
      <trkpt lat="44.54576" lon="1.56844">
        <ele>197.2</ele>
        <time>2022-08-08T11:05:22Z</time>
      </trkpt>
      <trkpt lat="44.5457" lon="1.56847">
        <ele>197.7</ele>
        <time>2022-08-08T11:05:24Z</time>
      </trkpt>
      <trkpt lat="44.54566" lon="1.56852">
        <ele>198.6</ele>
        <time>2022-08-08T11:05:26Z</time>
      </trkpt>
      <trkpt lat="44.54562" lon="1.56857">
        <ele>199.4</ele>
        <time>2022-08-08T11:05:28Z</time>
      </trkpt>
      <trkpt lat="44.54559" lon="1.56859">
        <ele>199.9</ele>
        <time>2022-08-08T11:05:30Z</time>
      </trkpt>
      <trkpt lat="44.54555" lon="1.56863">
        <ele>200.4</ele>
        <time>2022-08-08T11:05:32Z</time>
      </trkpt>
      <trkpt lat="44.54551" lon="1.56868">
        <ele>201</ele>
        <time>2022-08-08T11:05:34Z</time>
      </trkpt>
      <trkpt lat="44.54545" lon="1.56872">
        <ele>201.5</ele>
        <time>2022-08-08T11:05:36Z</time>
      </trkpt>
      <trkpt lat="44.54539" lon="1.56879">
        <ele>202.2</ele>
        <time>2022-08-08T11:05:38Z</time>
      </trkpt>
      <trkpt lat="44.54532" lon="1.56885">
        <ele>202.7</ele>
        <time>2022-08-08T11:05:40Z</time>
      </trkpt>
      <trkpt lat="44.54524" lon="1.56891">
        <ele>203.1</ele>
        <time>2022-08-08T11:05:42Z</time>
      </trkpt>
      <trkpt lat="44.54517" lon="1.56898">
        <ele>203.4</ele>
        <time>2022-08-08T11:05:44Z</time>
      </trkpt>
      <trkpt lat="44.5451" lon="1.56907">
        <ele>203.9</ele>
        <time>2022-08-08T11:05:46Z</time>
      </trkpt>
      <trkpt lat="44.54501" lon="1.56911">
        <ele>203.4</ele>
        <time>2022-08-08T11:05:48Z</time>
      </trkpt>
      <trkpt lat="44.54492" lon="1.56915">
        <ele>203</ele>
        <time>2022-08-08T11:05:50Z</time>
      </trkpt>
      <trkpt lat="44.54482" lon="1.56918">
        <ele>202.8</ele>
        <time>2022-08-08T11:05:52Z</time>
      </trkpt>
      <trkpt lat="44.54472" lon="1.56916">
        <ele>200.8</ele>
        <time>2022-08-08T11:05:54Z</time>
      </trkpt>
      <trkpt lat="44.54462" lon="1.56912">
        <ele>199.4</ele>
        <time>2022-08-08T11:05:56Z</time>
      </trkpt>
      <trkpt lat="44.54457" lon="1.56909">
        <ele>198.7</ele>
        <time>2022-08-08T11:05:57Z</time>
      </trkpt>
      <trkpt lat="44.5445" lon="1.56902">
        <ele>197.3</ele>
        <time>2022-08-08T11:05:59Z</time>
      </trkpt>
      <trkpt lat="44.54442" lon="1.56894">
        <ele>196</ele>
        <time>2022-08-08T11:06:01Z</time>
      </trkpt>
      <trkpt lat="44.54435" lon="1.56885">
        <ele>194.7</ele>
        <time>2022-08-08T11:06:03Z</time>
      </trkpt>
      <trkpt lat="44.54428" lon="1.56878">
        <ele>193.6</ele>
        <time>2022-08-08T11:06:05Z</time>
      </trkpt>
      <trkpt lat="44.54421" lon="1.56871">
        <ele>192.6</ele>
        <time>2022-08-08T11:06:07Z</time>
      </trkpt>
      <trkpt lat="44.54414" lon="1.56864">
        <ele>192.6</ele>
        <time>2022-08-08T11:06:09Z</time>
      </trkpt>
      <trkpt lat="44.54407" lon="1.56857">
        <ele>193.8</ele>
        <time>2022-08-08T11:06:11Z</time>
      </trkpt>
      <trkpt lat="44.54399" lon="1.5685">
        <ele>195.1</ele>
        <time>2022-08-08T11:06:13Z</time>
      </trkpt>
      <trkpt lat="44.54391" lon="1.56842">
        <ele>196.1</ele>
        <time>2022-08-08T11:06:15Z</time>
      </trkpt>
      <trkpt lat="44.54383" lon="1.56834">
        <ele>197</ele>
        <time>2022-08-08T11:06:17Z</time>
      </trkpt>
      <trkpt lat="44.54375" lon="1.56827">
        <ele>198.3</ele>
        <time>2022-08-08T11:06:19Z</time>
      </trkpt>
      <trkpt lat="44.54367" lon="1.56819">
        <ele>199.4</ele>
        <time>2022-08-08T11:06:21Z</time>
      </trkpt>
      <trkpt lat="44.54359" lon="1.5681">
        <ele>200</ele>
        <time>2022-08-08T11:06:23Z</time>
      </trkpt>
      <trkpt lat="44.54352" lon="1.568">
        <ele>200.1</ele>
        <time>2022-08-08T11:06:25Z</time>
      </trkpt>
      <trkpt lat="44.54346" lon="1.56789">
        <ele>199.3</ele>
        <time>2022-08-08T11:06:27Z</time>
      </trkpt>
      <trkpt lat="44.54341" lon="1.56777">
        <ele>198</ele>
        <time>2022-08-08T11:06:29Z</time>
      </trkpt>
      <trkpt lat="44.54337" lon="1.56765">
        <ele>196.4</ele>
        <time>2022-08-08T11:06:31Z</time>
      </trkpt>
      <trkpt lat="44.54335" lon="1.56754">
        <ele>194.6</ele>
        <time>2022-08-08T11:06:33Z</time>
      </trkpt>
      <trkpt lat="44.54332" lon="1.56743">
        <ele>193.8</ele>
        <time>2022-08-08T11:06:35Z</time>
      </trkpt>
      <trkpt lat="44.5433" lon="1.56733">
        <ele>193.8</ele>
        <time>2022-08-08T11:06:37Z</time>
      </trkpt>
      <trkpt lat="44.54327" lon="1.56723">
        <ele>194.3</ele>
        <time>2022-08-08T11:06:39Z</time>
      </trkpt>
      <trkpt lat="44.54323" lon="1.56714">
        <ele>194.6</ele>
        <time>2022-08-08T11:06:41Z</time>
      </trkpt>
      <trkpt lat="44.54319" lon="1.56706">
        <ele>195.2</ele>
        <time>2022-08-08T11:06:43Z</time>
      </trkpt>
      <trkpt lat="44.54313" lon="1.56697">
        <ele>195.8</ele>
        <time>2022-08-08T11:06:45Z</time>
      </trkpt>
      <trkpt lat="44.54308" lon="1.56689">
        <ele>196.3</ele>
        <time>2022-08-08T11:06:47Z</time>
      </trkpt>
      <trkpt lat="44.54302" lon="1.5668">
        <ele>196.3</ele>
        <time>2022-08-08T11:06:49Z</time>
      </trkpt>
      <trkpt lat="44.54297" lon="1.56671">
        <ele>196.2</ele>
        <time>2022-08-08T11:06:51Z</time>
      </trkpt>
      <trkpt lat="44.54291" lon="1.56662">
        <ele>196.3</ele>
        <time>2022-08-08T11:06:53Z</time>
      </trkpt>
      <trkpt lat="44.54286" lon="1.56653">
        <ele>196.8</ele>
        <time>2022-08-08T11:06:55Z</time>
      </trkpt>
      <trkpt lat="44.54279" lon="1.56644">
        <ele>197.2</ele>
        <time>2022-08-08T11:06:57Z</time>
      </trkpt>
      <trkpt lat="44.54274" lon="1.56636">
        <ele>197.4</ele>
        <time>2022-08-08T11:06:59Z</time>
      </trkpt>
      <trkpt lat="44.54268" lon="1.56627">
        <ele>197.1</ele>
        <time>2022-08-08T11:07:01Z</time>
      </trkpt>
      <trkpt lat="44.54263" lon="1.56618">
        <ele>196.6</ele>
        <time>2022-08-08T11:07:03Z</time>
      </trkpt>
      <trkpt lat="44.54257" lon="1.56608">
        <ele>195.8</ele>
        <time>2022-08-08T11:07:05Z</time>
      </trkpt>
      <trkpt lat="44.54253" lon="1.56598">
        <ele>194.5</ele>
        <time>2022-08-08T11:07:07Z</time>
      </trkpt>
      <trkpt lat="44.54248" lon="1.56588">
        <ele>193.5</ele>
        <time>2022-08-08T11:07:09Z</time>
      </trkpt>
      <trkpt lat="44.54244" lon="1.56577">
        <ele>193.4</ele>
        <time>2022-08-08T11:07:11Z</time>
      </trkpt>
      <trkpt lat="44.5424" lon="1.56566">
        <ele>193.5</ele>
        <time>2022-08-08T11:07:13Z</time>
      </trkpt>
      <trkpt lat="44.54236" lon="1.56556">
        <ele>193.3</ele>
        <time>2022-08-08T11:07:15Z</time>
      </trkpt>
      <trkpt lat="44.54233" lon="1.56545">
        <ele>193</ele>
        <time>2022-08-08T11:07:17Z</time>
      </trkpt>
      <trkpt lat="44.54229" lon="1.56535">
        <ele>192.5</ele>
        <time>2022-08-08T11:07:19Z</time>
      </trkpt>
      <trkpt lat="44.54225" lon="1.56524">
        <ele>191.9</ele>
        <time>2022-08-08T11:07:21Z</time>
      </trkpt>
      <trkpt lat="44.54221" lon="1.56514">
        <ele>191.1</ele>
        <time>2022-08-08T11:07:23Z</time>
      </trkpt>
      <trkpt lat="44.54216" lon="1.56506">
        <ele>190.5</ele>
        <time>2022-08-08T11:07:25Z</time>
      </trkpt>
      <trkpt lat="44.54209" lon="1.56499">
        <ele>190.4</ele>
        <time>2022-08-08T11:07:27Z</time>
      </trkpt>
      <trkpt lat="44.542" lon="1.56494">
        <ele>191.1</ele>
        <time>2022-08-08T11:07:29Z</time>
      </trkpt>
      <trkpt lat="44.54192" lon="1.56491">
        <ele>191.8</ele>
        <time>2022-08-08T11:07:31Z</time>
      </trkpt>
      <trkpt lat="44.54182" lon="1.56487">
        <ele>192.6</ele>
        <time>2022-08-08T11:07:33Z</time>
      </trkpt>
      <trkpt lat="44.54173" lon="1.56482">
        <ele>193.3</ele>
        <time>2022-08-08T11:07:35Z</time>
      </trkpt>
      <trkpt lat="44.54164" lon="1.56473">
        <ele>194.4</ele>
        <time>2022-08-08T11:07:37Z</time>
      </trkpt>
      <trkpt lat="44.54157" lon="1.56462">
        <ele>196.7</ele>
        <time>2022-08-08T11:07:39Z</time>
      </trkpt>
      <trkpt lat="44.54152" lon="1.56449">
        <ele>198.1</ele>
        <time>2022-08-08T11:07:41Z</time>
      </trkpt>
      <trkpt lat="44.54148" lon="1.56438">
        <ele>199.1</ele>
        <time>2022-08-08T11:07:43Z</time>
      </trkpt>
      <trkpt lat="44.54145" lon="1.56425">
        <ele>199.1</ele>
        <time>2022-08-08T11:07:45Z</time>
      </trkpt>
      <trkpt lat="44.54145" lon="1.56412">
        <ele>198.1</ele>
        <time>2022-08-08T11:07:47Z</time>
      </trkpt>
      <trkpt lat="44.54145" lon="1.56401">
        <ele>196.9</ele>
        <time>2022-08-08T11:07:49Z</time>
      </trkpt>
      <trkpt lat="44.54146" lon="1.5639">
        <ele>195.4</ele>
        <time>2022-08-08T11:07:51Z</time>
      </trkpt>
      <trkpt lat="44.54149" lon="1.56379">
        <ele>193.5</ele>
        <time>2022-08-08T11:07:53Z</time>
      </trkpt>
      <trkpt lat="44.5415" lon="1.56366">
        <ele>192</ele>
        <time>2022-08-08T11:07:55Z</time>
      </trkpt>
      <trkpt lat="44.54151" lon="1.56355">
        <ele>190.6</ele>
        <time>2022-08-08T11:07:57Z</time>
      </trkpt>
      <trkpt lat="44.54153" lon="1.56344">
        <ele>189.3</ele>
        <time>2022-08-08T11:07:59Z</time>
      </trkpt>
      <trkpt lat="44.54154" lon="1.56333">
        <ele>188.4</ele>
        <time>2022-08-08T11:08:01Z</time>
      </trkpt>
      <trkpt lat="44.54153" lon="1.56323">
        <ele>187.6</ele>
        <time>2022-08-08T11:08:03Z</time>
      </trkpt>
      <trkpt lat="44.54153" lon="1.56313">
        <ele>187</ele>
        <time>2022-08-08T11:08:05Z</time>
      </trkpt>
      <trkpt lat="44.54151" lon="1.56304">
        <ele>186.6</ele>
        <time>2022-08-08T11:08:07Z</time>
      </trkpt>
      <trkpt lat="44.54148" lon="1.56296">
        <ele>186.5</ele>
        <time>2022-08-08T11:08:09Z</time>
      </trkpt>
      <trkpt lat="44.54144" lon="1.56288">
        <ele>186.4</ele>
        <time>2022-08-08T11:08:11Z</time>
      </trkpt>
      <trkpt lat="44.5414" lon="1.5628">
        <ele>186.2</ele>
        <time>2022-08-08T11:08:13Z</time>
      </trkpt>
      <trkpt lat="44.54135" lon="1.56275">
        <ele>186.2</ele>
        <time>2022-08-08T11:08:15Z</time>
      </trkpt>
      <trkpt lat="44.54129" lon="1.56271">
        <ele>186.4</ele>
        <time>2022-08-08T11:08:17Z</time>
      </trkpt>
      <trkpt lat="44.54123" lon="1.56268">
        <ele>186.5</ele>
        <time>2022-08-08T11:08:19Z</time>
      </trkpt>
      <trkpt lat="44.54118" lon="1.56266">
        <ele>186.5</ele>
        <time>2022-08-08T11:08:21Z</time>
      </trkpt>
      <trkpt lat="44.54113" lon="1.56264">
        <ele>186.8</ele>
        <time>2022-08-08T11:08:23Z</time>
      </trkpt>
      <trkpt lat="44.54108" lon="1.56263">
        <ele>186.9</ele>
        <time>2022-08-08T11:08:25Z</time>
      </trkpt>
      <trkpt lat="44.54103" lon="1.5626">
        <ele>186.6</ele>
        <time>2022-08-08T11:08:27Z</time>
      </trkpt>
      <trkpt lat="44.54099" lon="1.56257">
        <ele>186.2</ele>
        <time>2022-08-08T11:08:29Z</time>
      </trkpt>
      <trkpt lat="44.54093" lon="1.56254">
        <ele>185.7</ele>
        <time>2022-08-08T11:08:31Z</time>
      </trkpt>
      <trkpt lat="44.54087" lon="1.56251">
        <ele>185</ele>
        <time>2022-08-08T11:08:33Z</time>
      </trkpt>
      <trkpt lat="44.54082" lon="1.56247">
        <ele>185.1</ele>
        <time>2022-08-08T11:08:35Z</time>
      </trkpt>
      <trkpt lat="44.54081" lon="1.56242">
        <ele>184.7</ele>
        <time>2022-08-08T11:08:37Z</time>
      </trkpt>
      <trkpt lat="44.54083" lon="1.56242">
        <ele>184.4</ele>
        <time>2022-08-08T11:08:39Z</time>
      </trkpt>
      <trkpt lat="44.54082" lon="1.56242">
        <ele>184.5</ele>
        <time>2022-08-08T11:08:41Z</time>
      </trkpt>
      <trkpt lat="44.54082" lon="1.56242">
        <ele>184.5</ele>
        <time>2022-08-08T11:08:45Z</time>
      </trkpt>
      <trkpt lat="44.54058" lon="1.5623">
        <ele>187.1</ele>
        <time>2022-08-08T11:10:33Z</time>
      </trkpt>
      <trkpt lat="44.5405" lon="1.56224">
        <ele>187.3</ele>
        <time>2022-08-08T11:10:35Z</time>
      </trkpt>
      <trkpt lat="44.54042" lon="1.56219">
        <ele>187.6</ele>
        <time>2022-08-08T11:10:37Z</time>
      </trkpt>
      <trkpt lat="44.54032" lon="1.56214">
        <ele>187.8</ele>
        <time>2022-08-08T11:10:39Z</time>
      </trkpt>
      <trkpt lat="44.54023" lon="1.56209">
        <ele>187.8</ele>
        <time>2022-08-08T11:10:41Z</time>
      </trkpt>
      <trkpt lat="44.54012" lon="1.56205">
        <ele>188</ele>
        <time>2022-08-08T11:10:43Z</time>
      </trkpt>
      <trkpt lat="44.54002" lon="1.56203">
        <ele>188.3</ele>
        <time>2022-08-08T11:10:45Z</time>
      </trkpt>
      <trkpt lat="44.53992" lon="1.562">
        <ele>188.5</ele>
        <time>2022-08-08T11:10:47Z</time>
      </trkpt>
      <trkpt lat="44.53981" lon="1.56198">
        <ele>188.7</ele>
        <time>2022-08-08T11:10:49Z</time>
      </trkpt>
      <trkpt lat="44.53965" lon="1.56198">
        <ele>189.8</ele>
        <time>2022-08-08T11:10:52Z</time>
      </trkpt>
      <trkpt lat="44.53954" lon="1.56196">
        <ele>190.2</ele>
        <time>2022-08-08T11:10:54Z</time>
      </trkpt>
      <trkpt lat="44.53943" lon="1.56196">
        <ele>191</ele>
        <time>2022-08-08T11:10:56Z</time>
      </trkpt>
      <trkpt lat="44.53932" lon="1.56194">
        <ele>191.2</ele>
        <time>2022-08-08T11:10:58Z</time>
      </trkpt>
      <trkpt lat="44.53921" lon="1.56189">
        <ele>190.4</ele>
        <time>2022-08-08T11:11:00Z</time>
      </trkpt>
      <trkpt lat="44.5391" lon="1.56184">
        <ele>191.3</ele>
        <time>2022-08-08T11:11:02Z</time>
      </trkpt>
      <trkpt lat="44.53901" lon="1.56176">
        <ele>191.8</ele>
        <time>2022-08-08T11:11:04Z</time>
      </trkpt>
      <trkpt lat="44.53892" lon="1.56166">
        <ele>191.8</ele>
        <time>2022-08-08T11:11:06Z</time>
      </trkpt>
      <trkpt lat="44.53884" lon="1.56155">
        <ele>192.9</ele>
        <time>2022-08-08T11:11:08Z</time>
      </trkpt>
      <trkpt lat="44.53877" lon="1.56145">
        <ele>193.6</ele>
        <time>2022-08-08T11:11:10Z</time>
      </trkpt>
      <trkpt lat="44.53869" lon="1.56133">
        <ele>193.8</ele>
        <time>2022-08-08T11:11:12Z</time>
      </trkpt>
      <trkpt lat="44.53861" lon="1.5612">
        <ele>193.1</ele>
        <time>2022-08-08T11:11:14Z</time>
      </trkpt>
      <trkpt lat="44.53853" lon="1.56107">
        <ele>191.7</ele>
        <time>2022-08-08T11:11:16Z</time>
      </trkpt>
      <trkpt lat="44.53845" lon="1.56095">
        <ele>189.8</ele>
        <time>2022-08-08T11:11:18Z</time>
      </trkpt>
      <trkpt lat="44.53837" lon="1.56082">
        <ele>187.5</ele>
        <time>2022-08-08T11:11:20Z</time>
      </trkpt>
      <trkpt lat="44.53829" lon="1.5607">
        <ele>188.5</ele>
        <time>2022-08-08T11:11:22Z</time>
      </trkpt>
      <trkpt lat="44.53822" lon="1.56058">
        <ele>190.1</ele>
        <time>2022-08-08T11:11:24Z</time>
      </trkpt>
      <trkpt lat="44.53814" lon="1.56046">
        <ele>191.3</ele>
        <time>2022-08-08T11:11:26Z</time>
      </trkpt>
      <trkpt lat="44.53806" lon="1.56034">
        <ele>192.1</ele>
        <time>2022-08-08T11:11:28Z</time>
      </trkpt>
      <trkpt lat="44.53798" lon="1.56022">
        <ele>192.2</ele>
        <time>2022-08-08T11:11:30Z</time>
      </trkpt>
      <trkpt lat="44.5379" lon="1.56009">
        <ele>191.8</ele>
        <time>2022-08-08T11:11:32Z</time>
      </trkpt>
      <trkpt lat="44.53782" lon="1.55998">
        <ele>191.3</ele>
        <time>2022-08-08T11:11:34Z</time>
      </trkpt>
      <trkpt lat="44.53774" lon="1.55985">
        <ele>191.2</ele>
        <time>2022-08-08T11:11:36Z</time>
      </trkpt>
      <trkpt lat="44.53766" lon="1.55973">
        <ele>190.6</ele>
        <time>2022-08-08T11:11:38Z</time>
      </trkpt>
      <trkpt lat="44.53758" lon="1.5596">
        <ele>189.3</ele>
        <time>2022-08-08T11:11:40Z</time>
      </trkpt>
      <trkpt lat="44.5375" lon="1.55948">
        <ele>187.4</ele>
        <time>2022-08-08T11:11:42Z</time>
      </trkpt>
      <trkpt lat="44.53742" lon="1.55935">
        <ele>187.7</ele>
        <time>2022-08-08T11:11:44Z</time>
      </trkpt>
      <trkpt lat="44.53733" lon="1.55922">
        <ele>187.7</ele>
        <time>2022-08-08T11:11:46Z</time>
      </trkpt>
      <trkpt lat="44.53725" lon="1.55909">
        <ele>188.3</ele>
        <time>2022-08-08T11:11:48Z</time>
      </trkpt>
      <trkpt lat="44.53716" lon="1.55896">
        <ele>189.3</ele>
        <time>2022-08-08T11:11:50Z</time>
      </trkpt>
      <trkpt lat="44.53708" lon="1.55883">
        <ele>189.5</ele>
        <time>2022-08-08T11:11:52Z</time>
      </trkpt>
      <trkpt lat="44.53699" lon="1.5587">
        <ele>189.3</ele>
        <time>2022-08-08T11:11:54Z</time>
      </trkpt>
      <trkpt lat="44.53691" lon="1.55857">
        <ele>188.3</ele>
        <time>2022-08-08T11:11:56Z</time>
      </trkpt>
      <trkpt lat="44.53683" lon="1.55844">
        <ele>186.8</ele>
        <time>2022-08-08T11:11:58Z</time>
      </trkpt>
      <trkpt lat="44.53674" lon="1.55831">
        <ele>185</ele>
        <time>2022-08-08T11:12:00Z</time>
      </trkpt>
      <trkpt lat="44.53666" lon="1.55817">
        <ele>184.1</ele>
        <time>2022-08-08T11:12:02Z</time>
      </trkpt>
      <trkpt lat="44.53658" lon="1.55805">
        <ele>184.1</ele>
        <time>2022-08-08T11:12:04Z</time>
      </trkpt>
      <trkpt lat="44.53649" lon="1.55793">
        <ele>183.9</ele>
        <time>2022-08-08T11:12:06Z</time>
      </trkpt>
      <trkpt lat="44.53641" lon="1.55783">
        <ele>183.3</ele>
        <time>2022-08-08T11:12:08Z</time>
      </trkpt>
      <trkpt lat="44.53631" lon="1.55775">
        <ele>182.7</ele>
        <time>2022-08-08T11:12:10Z</time>
      </trkpt>
      <trkpt lat="44.53621" lon="1.55769">
        <ele>182.4</ele>
        <time>2022-08-08T11:12:12Z</time>
      </trkpt>
      <trkpt lat="44.5361" lon="1.55763">
        <ele>181.8</ele>
        <time>2022-08-08T11:12:14Z</time>
      </trkpt>
      <trkpt lat="44.53605" lon="1.5576">
        <ele>181.4</ele>
        <time>2022-08-08T11:12:15Z</time>
      </trkpt>
      <trkpt lat="44.53594" lon="1.55756">
        <ele>180.6</ele>
        <time>2022-08-08T11:12:17Z</time>
      </trkpt>
      <trkpt lat="44.53582" lon="1.55753">
        <ele>180.2</ele>
        <time>2022-08-08T11:12:19Z</time>
      </trkpt>
      <trkpt lat="44.5357" lon="1.5575">
        <ele>179</ele>
        <time>2022-08-08T11:12:21Z</time>
      </trkpt>
      <trkpt lat="44.53559" lon="1.5575">
        <ele>178.7</ele>
        <time>2022-08-08T11:12:23Z</time>
      </trkpt>
      <trkpt lat="44.53545" lon="1.5575">
        <ele>178.5</ele>
        <time>2022-08-08T11:12:25Z</time>
      </trkpt>
      <trkpt lat="44.53532" lon="1.55749">
        <ele>178.4</ele>
        <time>2022-08-08T11:12:27Z</time>
      </trkpt>
      <trkpt lat="44.53519" lon="1.5575">
        <ele>178.2</ele>
        <time>2022-08-08T11:12:29Z</time>
      </trkpt>
      <trkpt lat="44.53506" lon="1.5575">
        <ele>178.3</ele>
        <time>2022-08-08T11:12:31Z</time>
      </trkpt>
      <trkpt lat="44.53494" lon="1.55751">
        <ele>178.4</ele>
        <time>2022-08-08T11:12:33Z</time>
      </trkpt>
      <trkpt lat="44.53481" lon="1.55749">
        <ele>177.8</ele>
        <time>2022-08-08T11:12:35Z</time>
      </trkpt>
      <trkpt lat="44.53468" lon="1.55748">
        <ele>177.6</ele>
        <time>2022-08-08T11:12:37Z</time>
      </trkpt>
      <trkpt lat="44.53455" lon="1.55747">
        <ele>177.4</ele>
        <time>2022-08-08T11:12:39Z</time>
      </trkpt>
      <trkpt lat="44.53443" lon="1.55744">
        <ele>177.2</ele>
        <time>2022-08-08T11:12:41Z</time>
      </trkpt>
      <trkpt lat="44.53431" lon="1.55739">
        <ele>176.9</ele>
        <time>2022-08-08T11:12:43Z</time>
      </trkpt>
      <trkpt lat="44.53419" lon="1.55735">
        <ele>176.5</ele>
        <time>2022-08-08T11:12:45Z</time>
      </trkpt>
      <trkpt lat="44.53407" lon="1.55729">
        <ele>176.2</ele>
        <time>2022-08-08T11:12:47Z</time>
      </trkpt>
      <trkpt lat="44.53396" lon="1.55722">
        <ele>176.2</ele>
        <time>2022-08-08T11:12:49Z</time>
      </trkpt>
      <trkpt lat="44.53385" lon="1.55715">
        <ele>176.3</ele>
        <time>2022-08-08T11:12:51Z</time>
      </trkpt>
      <trkpt lat="44.53369" lon="1.55705">
        <ele>176.7</ele>
        <time>2022-08-08T11:12:54Z</time>
      </trkpt>
      <trkpt lat="44.53359" lon="1.55698">
        <ele>177.2</ele>
        <time>2022-08-08T11:12:56Z</time>
      </trkpt>
      <trkpt lat="44.5335" lon="1.55691">
        <ele>177.8</ele>
        <time>2022-08-08T11:12:58Z</time>
      </trkpt>
      <trkpt lat="44.53341" lon="1.55685">
        <ele>178.5</ele>
        <time>2022-08-08T11:13:00Z</time>
      </trkpt>
      <trkpt lat="44.53333" lon="1.55679">
        <ele>179.2</ele>
        <time>2022-08-08T11:13:02Z</time>
      </trkpt>
      <trkpt lat="44.53325" lon="1.55672">
        <ele>178.7</ele>
        <time>2022-08-08T11:13:04Z</time>
      </trkpt>
      <trkpt lat="44.53316" lon="1.55666">
        <ele>178</ele>
        <time>2022-08-08T11:13:06Z</time>
      </trkpt>
      <trkpt lat="44.53308" lon="1.5566">
        <ele>177.9</ele>
        <time>2022-08-08T11:13:08Z</time>
      </trkpt>
      <trkpt lat="44.53301" lon="1.55653">
        <ele>177.7</ele>
        <time>2022-08-08T11:13:10Z</time>
      </trkpt>
      <trkpt lat="44.53294" lon="1.55644">
        <ele>177.7</ele>
        <time>2022-08-08T11:13:12Z</time>
      </trkpt>
      <trkpt lat="44.53288" lon="1.55636">
        <ele>177.4</ele>
        <time>2022-08-08T11:13:14Z</time>
      </trkpt>
      <trkpt lat="44.53282" lon="1.55627">
        <ele>177.2</ele>
        <time>2022-08-08T11:13:16Z</time>
      </trkpt>
      <trkpt lat="44.53278" lon="1.55616">
        <ele>177.2</ele>
        <time>2022-08-08T11:13:18Z</time>
      </trkpt>
      <trkpt lat="44.53274" lon="1.55605">
        <ele>177.2</ele>
        <time>2022-08-08T11:13:20Z</time>
      </trkpt>
      <trkpt lat="44.53271" lon="1.55593">
        <ele>177.2</ele>
        <time>2022-08-08T11:13:22Z</time>
      </trkpt>
      <trkpt lat="44.53268" lon="1.55581">
        <ele>177.1</ele>
        <time>2022-08-08T11:13:24Z</time>
      </trkpt>
      <trkpt lat="44.53266" lon="1.55569">
        <ele>177.1</ele>
        <time>2022-08-08T11:13:26Z</time>
      </trkpt>
      <trkpt lat="44.53263" lon="1.55558">
        <ele>176.9</ele>
        <time>2022-08-08T11:13:28Z</time>
      </trkpt>
      <trkpt lat="44.5326" lon="1.55545">
        <ele>176.5</ele>
        <time>2022-08-08T11:13:30Z</time>
      </trkpt>
      <trkpt lat="44.53257" lon="1.55533">
        <ele>176.2</ele>
        <time>2022-08-08T11:13:32Z</time>
      </trkpt>
      <trkpt lat="44.53254" lon="1.55521">
        <ele>175.4</ele>
        <time>2022-08-08T11:13:34Z</time>
      </trkpt>
      <trkpt lat="44.5325" lon="1.5551">
        <ele>174.6</ele>
        <time>2022-08-08T11:13:36Z</time>
      </trkpt>
      <trkpt lat="44.53245" lon="1.55499">
        <ele>174.7</ele>
        <time>2022-08-08T11:13:38Z</time>
      </trkpt>
      <trkpt lat="44.5324" lon="1.55489">
        <ele>176.2</ele>
        <time>2022-08-08T11:13:40Z</time>
      </trkpt>
      <trkpt lat="44.53236" lon="1.55478">
        <ele>177.6</ele>
        <time>2022-08-08T11:13:42Z</time>
      </trkpt>
      <trkpt lat="44.53231" lon="1.55467">
        <ele>178.9</ele>
        <time>2022-08-08T11:13:44Z</time>
      </trkpt>
      <trkpt lat="44.53225" lon="1.55457">
        <ele>179.8</ele>
        <time>2022-08-08T11:13:46Z</time>
      </trkpt>
      <trkpt lat="44.5322" lon="1.55447">
        <ele>180.4</ele>
        <time>2022-08-08T11:13:48Z</time>
      </trkpt>
      <trkpt lat="44.53214" lon="1.55438">
        <ele>180.7</ele>
        <time>2022-08-08T11:13:50Z</time>
      </trkpt>
      <trkpt lat="44.53208" lon="1.55428">
        <ele>180.7</ele>
        <time>2022-08-08T11:13:52Z</time>
      </trkpt>
      <trkpt lat="44.53201" lon="1.55419">
        <ele>180.5</ele>
        <time>2022-08-08T11:13:54Z</time>
      </trkpt>
      <trkpt lat="44.53194" lon="1.5541">
        <ele>182.1</ele>
        <time>2022-08-08T11:13:56Z</time>
      </trkpt>
      <trkpt lat="44.53187" lon="1.55401">
        <ele>184</ele>
        <time>2022-08-08T11:13:58Z</time>
      </trkpt>
      <trkpt lat="44.53179" lon="1.55393">
        <ele>185.6</ele>
        <time>2022-08-08T11:14:00Z</time>
      </trkpt>
      <trkpt lat="44.5317" lon="1.55386">
        <ele>186.5</ele>
        <time>2022-08-08T11:14:02Z</time>
      </trkpt>
      <trkpt lat="44.53161" lon="1.55379">
        <ele>188.7</ele>
        <time>2022-08-08T11:14:04Z</time>
      </trkpt>
      <trkpt lat="44.53151" lon="1.55373">
        <ele>191.3</ele>
        <time>2022-08-08T11:14:06Z</time>
      </trkpt>
      <trkpt lat="44.5314" lon="1.55369">
        <ele>193.4</ele>
        <time>2022-08-08T11:14:08Z</time>
      </trkpt>
      <trkpt lat="44.5313" lon="1.55367">
        <ele>194.5</ele>
        <time>2022-08-08T11:14:10Z</time>
      </trkpt>
      <trkpt lat="44.53118" lon="1.55366">
        <ele>194.8</ele>
        <time>2022-08-08T11:14:12Z</time>
      </trkpt>
      <trkpt lat="44.53107" lon="1.55369">
        <ele>193.7</ele>
        <time>2022-08-08T11:14:14Z</time>
      </trkpt>
      <trkpt lat="44.53096" lon="1.55375">
        <ele>191.4</ele>
        <time>2022-08-08T11:14:16Z</time>
      </trkpt>
      <trkpt lat="44.53085" lon="1.55383">
        <ele>188.1</ele>
        <time>2022-08-08T11:14:18Z</time>
      </trkpt>
      <trkpt lat="44.53076" lon="1.55394">
        <ele>183.6</ele>
        <time>2022-08-08T11:14:20Z</time>
      </trkpt>
      <trkpt lat="44.53072" lon="1.55399">
        <ele>181.6</ele>
        <time>2022-08-08T11:14:21Z</time>
      </trkpt>
      <trkpt lat="44.53064" lon="1.5541">
        <ele>177.6</ele>
        <time>2022-08-08T11:14:23Z</time>
      </trkpt>
      <trkpt lat="44.53055" lon="1.55422">
        <ele>175</ele>
        <time>2022-08-08T11:14:25Z</time>
      </trkpt>
      <trkpt lat="44.53047" lon="1.55432">
        <ele>174.4</ele>
        <time>2022-08-08T11:14:27Z</time>
      </trkpt>
      <trkpt lat="44.53036" lon="1.55439">
        <ele>173.9</ele>
        <time>2022-08-08T11:14:29Z</time>
      </trkpt>
      <trkpt lat="44.53026" lon="1.55445">
        <ele>173.6</ele>
        <time>2022-08-08T11:14:31Z</time>
      </trkpt>
      <trkpt lat="44.53015" lon="1.55446">
        <ele>173.8</ele>
        <time>2022-08-08T11:14:33Z</time>
      </trkpt>
      <trkpt lat="44.53004" lon="1.55446">
        <ele>174.3</ele>
        <time>2022-08-08T11:14:35Z</time>
      </trkpt>
      <trkpt lat="44.52993" lon="1.55442">
        <ele>174.3</ele>
        <time>2022-08-08T11:14:37Z</time>
      </trkpt>
      <trkpt lat="44.52983" lon="1.55437">
        <ele>173.8</ele>
        <time>2022-08-08T11:14:39Z</time>
      </trkpt>
      <trkpt lat="44.52975" lon="1.55429">
        <ele>173.7</ele>
        <time>2022-08-08T11:14:41Z</time>
      </trkpt>
      <trkpt lat="44.52967" lon="1.55419">
        <ele>173.7</ele>
        <time>2022-08-08T11:14:43Z</time>
      </trkpt>
      <trkpt lat="44.52961" lon="1.55408">
        <ele>174.1</ele>
        <time>2022-08-08T11:14:45Z</time>
      </trkpt>
      <trkpt lat="44.52955" lon="1.55396">
        <ele>174.6</ele>
        <time>2022-08-08T11:14:47Z</time>
      </trkpt>
      <trkpt lat="44.5295" lon="1.55385">
        <ele>174.9</ele>
        <time>2022-08-08T11:14:49Z</time>
      </trkpt>
      <trkpt lat="44.52944" lon="1.55371">
        <ele>174.9</ele>
        <time>2022-08-08T11:14:51Z</time>
      </trkpt>
      <trkpt lat="44.52938" lon="1.55358">
        <ele>174.3</ele>
        <time>2022-08-08T11:14:53Z</time>
      </trkpt>
      <trkpt lat="44.52931" lon="1.55346">
        <ele>173.2</ele>
        <time>2022-08-08T11:14:55Z</time>
      </trkpt>
      <trkpt lat="44.52924" lon="1.55335">
        <ele>171.5</ele>
        <time>2022-08-08T11:14:57Z</time>
      </trkpt>
      <trkpt lat="44.52916" lon="1.55325">
        <ele>169.7</ele>
        <time>2022-08-08T11:14:59Z</time>
      </trkpt>
      <trkpt lat="44.52907" lon="1.55316">
        <ele>170.3</ele>
        <time>2022-08-08T11:15:01Z</time>
      </trkpt>
      <trkpt lat="44.52898" lon="1.55308">
        <ele>171.1</ele>
        <time>2022-08-08T11:15:03Z</time>
      </trkpt>
      <trkpt lat="44.52889" lon="1.55301">
        <ele>171.9</ele>
        <time>2022-08-08T11:15:05Z</time>
      </trkpt>
      <trkpt lat="44.5288" lon="1.55294">
        <ele>172.8</ele>
        <time>2022-08-08T11:15:07Z</time>
      </trkpt>
      <trkpt lat="44.5287" lon="1.55288">
        <ele>173.9</ele>
        <time>2022-08-08T11:15:09Z</time>
      </trkpt>
      <trkpt lat="44.52861" lon="1.55282">
        <ele>175.1</ele>
        <time>2022-08-08T11:15:11Z</time>
      </trkpt>
      <trkpt lat="44.5285" lon="1.55277">
        <ele>176.2</ele>
        <time>2022-08-08T11:15:13Z</time>
      </trkpt>
      <trkpt lat="44.5284" lon="1.55274">
        <ele>177.1</ele>
        <time>2022-08-08T11:15:15Z</time>
      </trkpt>
      <trkpt lat="44.52829" lon="1.55272">
        <ele>178.6</ele>
        <time>2022-08-08T11:15:17Z</time>
      </trkpt>
      <trkpt lat="44.52819" lon="1.55273">
        <ele>181.1</ele>
        <time>2022-08-08T11:15:19Z</time>
      </trkpt>
      <trkpt lat="44.52808" lon="1.55274">
        <ele>183.5</ele>
        <time>2022-08-08T11:15:21Z</time>
      </trkpt>
      <trkpt lat="44.52798" lon="1.55274">
        <ele>185.8</ele>
        <time>2022-08-08T11:15:23Z</time>
      </trkpt>
      <trkpt lat="44.52787" lon="1.55278">
        <ele>187.3</ele>
        <time>2022-08-08T11:15:25Z</time>
      </trkpt>
      <trkpt lat="44.52777" lon="1.55283">
        <ele>188</ele>
        <time>2022-08-08T11:15:27Z</time>
      </trkpt>
      <trkpt lat="44.52768" lon="1.5529">
        <ele>187.6</ele>
        <time>2022-08-08T11:15:29Z</time>
      </trkpt>
      <trkpt lat="44.52759" lon="1.55298">
        <ele>186.3</ele>
        <time>2022-08-08T11:15:31Z</time>
      </trkpt>
      <trkpt lat="44.5275" lon="1.55307">
        <ele>184.6</ele>
        <time>2022-08-08T11:15:33Z</time>
      </trkpt>
      <trkpt lat="44.52742" lon="1.55317">
        <ele>184.7</ele>
        <time>2022-08-08T11:15:35Z</time>
      </trkpt>
      <trkpt lat="44.52734" lon="1.55327">
        <ele>184.9</ele>
        <time>2022-08-08T11:15:37Z</time>
      </trkpt>
      <trkpt lat="44.52727" lon="1.55338">
        <ele>185.3</ele>
        <time>2022-08-08T11:15:39Z</time>
      </trkpt>
      <trkpt lat="44.52719" lon="1.55349">
        <ele>187.1</ele>
        <time>2022-08-08T11:15:41Z</time>
      </trkpt>
      <trkpt lat="44.52713" lon="1.55361">
        <ele>187.7</ele>
        <time>2022-08-08T11:15:43Z</time>
      </trkpt>
      <trkpt lat="44.52706" lon="1.55373">
        <ele>188.5</ele>
        <time>2022-08-08T11:15:45Z</time>
      </trkpt>
      <trkpt lat="44.527" lon="1.55386">
        <ele>188</ele>
        <time>2022-08-08T11:15:47Z</time>
      </trkpt>
      <trkpt lat="44.52697" lon="1.55401">
        <ele>185.9</ele>
        <time>2022-08-08T11:15:49Z</time>
      </trkpt>
      <trkpt lat="44.52696" lon="1.55418">
        <ele>182.8</ele>
        <time>2022-08-08T11:15:51Z</time>
      </trkpt>
      <trkpt lat="44.52692" lon="1.55433">
        <ele>182</ele>
        <time>2022-08-08T11:15:53Z</time>
      </trkpt>
      <trkpt lat="44.52691" lon="1.55449">
        <ele>180.3</ele>
        <time>2022-08-08T11:15:55Z</time>
      </trkpt>
      <trkpt lat="44.52691" lon="1.55464">
        <ele>178.5</ele>
        <time>2022-08-08T11:15:57Z</time>
      </trkpt>
      <trkpt lat="44.52689" lon="1.5548">
        <ele>176.8</ele>
        <time>2022-08-08T11:15:59Z</time>
      </trkpt>
      <trkpt lat="44.52685" lon="1.55493">
        <ele>175.6</ele>
        <time>2022-08-08T11:16:01Z</time>
      </trkpt>
      <trkpt lat="44.52681" lon="1.55508">
        <ele>174.4</ele>
        <time>2022-08-08T11:16:03Z</time>
      </trkpt>
      <trkpt lat="44.52676" lon="1.55521">
        <ele>173.6</ele>
        <time>2022-08-08T11:16:05Z</time>
      </trkpt>
      <trkpt lat="44.5267" lon="1.55533">
        <ele>172.7</ele>
        <time>2022-08-08T11:16:07Z</time>
      </trkpt>
      <trkpt lat="44.52664" lon="1.55545">
        <ele>171.8</ele>
        <time>2022-08-08T11:16:09Z</time>
      </trkpt>
      <trkpt lat="44.52656" lon="1.55555">
        <ele>171.1</ele>
        <time>2022-08-08T11:16:11Z</time>
      </trkpt>
      <trkpt lat="44.52647" lon="1.55563">
        <ele>170.3</ele>
        <time>2022-08-08T11:16:13Z</time>
      </trkpt>
      <trkpt lat="44.52638" lon="1.55569">
        <ele>169.6</ele>
        <time>2022-08-08T11:16:15Z</time>
      </trkpt>
      <trkpt lat="44.52627" lon="1.55573">
        <ele>169.2</ele>
        <time>2022-08-08T11:16:17Z</time>
      </trkpt>
      <trkpt lat="44.52617" lon="1.55573">
        <ele>169.3</ele>
        <time>2022-08-08T11:16:19Z</time>
      </trkpt>
      <trkpt lat="44.52605" lon="1.55571">
        <ele>170.1</ele>
        <time>2022-08-08T11:16:21Z</time>
      </trkpt>
      <trkpt lat="44.52595" lon="1.55568">
        <ele>171.1</ele>
        <time>2022-08-08T11:16:23Z</time>
      </trkpt>
      <trkpt lat="44.52585" lon="1.55564">
        <ele>172.6</ele>
        <time>2022-08-08T11:16:25Z</time>
      </trkpt>
      <trkpt lat="44.52575" lon="1.5556">
        <ele>173.3</ele>
        <time>2022-08-08T11:16:27Z</time>
      </trkpt>
      <trkpt lat="44.52565" lon="1.55557">
        <ele>173.6</ele>
        <time>2022-08-08T11:16:29Z</time>
      </trkpt>
      <trkpt lat="44.52555" lon="1.55553">
        <ele>174.1</ele>
        <time>2022-08-08T11:16:31Z</time>
      </trkpt>
      <trkpt lat="44.52544" lon="1.55549">
        <ele>174.3</ele>
        <time>2022-08-08T11:16:33Z</time>
      </trkpt>
      <trkpt lat="44.52534" lon="1.55545">
        <ele>174.5</ele>
        <time>2022-08-08T11:16:35Z</time>
      </trkpt>
      <trkpt lat="44.52524" lon="1.55542">
        <ele>174.6</ele>
        <time>2022-08-08T11:16:37Z</time>
      </trkpt>
      <trkpt lat="44.52513" lon="1.5554">
        <ele>174.6</ele>
        <time>2022-08-08T11:16:39Z</time>
      </trkpt>
      <trkpt lat="44.52502" lon="1.55536">
        <ele>174.8</ele>
        <time>2022-08-08T11:16:41Z</time>
      </trkpt>
      <trkpt lat="44.52491" lon="1.55534">
        <ele>174.3</ele>
        <time>2022-08-08T11:16:43Z</time>
      </trkpt>
      <trkpt lat="44.52481" lon="1.55531">
        <ele>174</ele>
        <time>2022-08-08T11:16:45Z</time>
      </trkpt>
      <trkpt lat="44.5247" lon="1.55529">
        <ele>173.2</ele>
        <time>2022-08-08T11:16:47Z</time>
      </trkpt>
      <trkpt lat="44.5246" lon="1.55525">
        <ele>172.8</ele>
        <time>2022-08-08T11:16:49Z</time>
      </trkpt>
      <trkpt lat="44.52449" lon="1.55524">
        <ele>171.6</ele>
        <time>2022-08-08T11:16:51Z</time>
      </trkpt>
      <trkpt lat="44.52438" lon="1.55521">
        <ele>170.7</ele>
        <time>2022-08-08T11:16:53Z</time>
      </trkpt>
      <trkpt lat="44.52427" lon="1.55519">
        <ele>169.6</ele>
        <time>2022-08-08T11:16:55Z</time>
      </trkpt>
      <trkpt lat="44.52416" lon="1.55517">
        <ele>168.3</ele>
        <time>2022-08-08T11:16:57Z</time>
      </trkpt>
      <trkpt lat="44.52405" lon="1.55515">
        <ele>168.3</ele>
        <time>2022-08-08T11:16:59Z</time>
      </trkpt>
      <trkpt lat="44.52395" lon="1.55513">
        <ele>168.2</ele>
        <time>2022-08-08T11:17:01Z</time>
      </trkpt>
      <trkpt lat="44.52384" lon="1.55512">
        <ele>168</ele>
        <time>2022-08-08T11:17:03Z</time>
      </trkpt>
      <trkpt lat="44.52373" lon="1.55511">
        <ele>167.9</ele>
        <time>2022-08-08T11:17:05Z</time>
      </trkpt>
      <trkpt lat="44.52362" lon="1.5551">
        <ele>167.7</ele>
        <time>2022-08-08T11:17:07Z</time>
      </trkpt>
      <trkpt lat="44.52351" lon="1.55511">
        <ele>167.3</ele>
        <time>2022-08-08T11:17:09Z</time>
      </trkpt>
      <trkpt lat="44.52339" lon="1.55511">
        <ele>167</ele>
        <time>2022-08-08T11:17:11Z</time>
      </trkpt>
      <trkpt lat="44.52328" lon="1.55511">
        <ele>167.1</ele>
        <time>2022-08-08T11:17:13Z</time>
      </trkpt>
      <trkpt lat="44.52315" lon="1.55514">
        <ele>167.7</ele>
        <time>2022-08-08T11:17:15Z</time>
      </trkpt>
      <trkpt lat="44.52303" lon="1.55514">
        <ele>168.4</ele>
        <time>2022-08-08T11:17:17Z</time>
      </trkpt>
      <trkpt lat="44.5229" lon="1.55517">
        <ele>168.9</ele>
        <time>2022-08-08T11:17:19Z</time>
      </trkpt>
      <trkpt lat="44.52271" lon="1.55519">
        <ele>169.7</ele>
        <time>2022-08-08T11:17:22Z</time>
      </trkpt>
      <trkpt lat="44.52258" lon="1.55521">
        <ele>170.3</ele>
        <time>2022-08-08T11:17:24Z</time>
      </trkpt>
      <trkpt lat="44.52246" lon="1.55521">
        <ele>170.9</ele>
        <time>2022-08-08T11:17:26Z</time>
      </trkpt>
      <trkpt lat="44.52234" lon="1.55522">
        <ele>171.3</ele>
        <time>2022-08-08T11:17:28Z</time>
      </trkpt>
      <trkpt lat="44.52222" lon="1.55523">
        <ele>171.8</ele>
        <time>2022-08-08T11:17:30Z</time>
      </trkpt>
      <trkpt lat="44.5221" lon="1.55524">
        <ele>172.2</ele>
        <time>2022-08-08T11:17:32Z</time>
      </trkpt>
      <trkpt lat="44.52198" lon="1.55526">
        <ele>172.6</ele>
        <time>2022-08-08T11:17:34Z</time>
      </trkpt>
      <trkpt lat="44.52186" lon="1.55526">
        <ele>173</ele>
        <time>2022-08-08T11:17:36Z</time>
      </trkpt>
      <trkpt lat="44.52175" lon="1.55527">
        <ele>173.4</ele>
        <time>2022-08-08T11:17:38Z</time>
      </trkpt>
      <trkpt lat="44.52164" lon="1.55528">
        <ele>173.6</ele>
        <time>2022-08-08T11:17:40Z</time>
      </trkpt>
      <trkpt lat="44.52153" lon="1.55529">
        <ele>173.4</ele>
        <time>2022-08-08T11:17:42Z</time>
      </trkpt>
      <trkpt lat="44.52142" lon="1.55529">
        <ele>173.4</ele>
        <time>2022-08-08T11:17:44Z</time>
      </trkpt>
      <trkpt lat="44.5213" lon="1.5553">
        <ele>173.2</ele>
        <time>2022-08-08T11:17:46Z</time>
      </trkpt>
      <trkpt lat="44.52119" lon="1.55531">
        <ele>173</ele>
        <time>2022-08-08T11:17:48Z</time>
      </trkpt>
      <trkpt lat="44.52108" lon="1.55531">
        <ele>173</ele>
        <time>2022-08-08T11:17:50Z</time>
      </trkpt>
      <trkpt lat="44.52097" lon="1.55531">
        <ele>172.8</ele>
        <time>2022-08-08T11:17:52Z</time>
      </trkpt>
      <trkpt lat="44.52086" lon="1.55532">
        <ele>172.6</ele>
        <time>2022-08-08T11:17:54Z</time>
      </trkpt>
      <trkpt lat="44.52075" lon="1.55531">
        <ele>172.5</ele>
        <time>2022-08-08T11:17:56Z</time>
      </trkpt>
      <trkpt lat="44.52064" lon="1.55531">
        <ele>172.2</ele>
        <time>2022-08-08T11:17:58Z</time>
      </trkpt>
      <trkpt lat="44.52053" lon="1.55532">
        <ele>171.7</ele>
        <time>2022-08-08T11:18:00Z</time>
      </trkpt>
      <trkpt lat="44.52042" lon="1.55532">
        <ele>171.4</ele>
        <time>2022-08-08T11:18:02Z</time>
      </trkpt>
      <trkpt lat="44.52031" lon="1.55533">
        <ele>170.8</ele>
        <time>2022-08-08T11:18:04Z</time>
      </trkpt>
      <trkpt lat="44.5202" lon="1.55533">
        <ele>170.7</ele>
        <time>2022-08-08T11:18:06Z</time>
      </trkpt>
      <trkpt lat="44.52009" lon="1.55534">
        <ele>170.2</ele>
        <time>2022-08-08T11:18:08Z</time>
      </trkpt>
      <trkpt lat="44.51999" lon="1.55533">
        <ele>170</ele>
        <time>2022-08-08T11:18:10Z</time>
      </trkpt>
      <trkpt lat="44.51989" lon="1.55532">
        <ele>169.8</ele>
        <time>2022-08-08T11:18:12Z</time>
      </trkpt>
      <trkpt lat="44.51978" lon="1.55532">
        <ele>169.4</ele>
        <time>2022-08-08T11:18:14Z</time>
      </trkpt>
      <trkpt lat="44.51967" lon="1.5553">
        <ele>169.2</ele>
        <time>2022-08-08T11:18:16Z</time>
      </trkpt>
      <trkpt lat="44.51955" lon="1.55529">
        <ele>169</ele>
        <time>2022-08-08T11:18:18Z</time>
      </trkpt>
      <trkpt lat="44.51945" lon="1.55527">
        <ele>168.9</ele>
        <time>2022-08-08T11:18:20Z</time>
      </trkpt>
      <trkpt lat="44.51933" lon="1.55525">
        <ele>168.6</ele>
        <time>2022-08-08T11:18:22Z</time>
      </trkpt>
      <trkpt lat="44.51922" lon="1.55524">
        <ele>168.1</ele>
        <time>2022-08-08T11:18:24Z</time>
      </trkpt>
      <trkpt lat="44.51911" lon="1.55523">
        <ele>167.9</ele>
        <time>2022-08-08T11:18:26Z</time>
      </trkpt>
      <trkpt lat="44.519" lon="1.55521">
        <ele>167.8</ele>
        <time>2022-08-08T11:18:28Z</time>
      </trkpt>
      <trkpt lat="44.51888" lon="1.5552">
        <ele>167.7</ele>
        <time>2022-08-08T11:18:30Z</time>
      </trkpt>
      <trkpt lat="44.51877" lon="1.55517">
        <ele>167.7</ele>
        <time>2022-08-08T11:18:32Z</time>
      </trkpt>
      <trkpt lat="44.51871" lon="1.55516">
        <ele>167.6</ele>
        <time>2022-08-08T11:18:33Z</time>
      </trkpt>
      <trkpt lat="44.5186" lon="1.55514">
        <ele>167.5</ele>
        <time>2022-08-08T11:18:35Z</time>
      </trkpt>
      <trkpt lat="44.51848" lon="1.55511">
        <ele>167.5</ele>
        <time>2022-08-08T11:18:37Z</time>
      </trkpt>
      <trkpt lat="44.51836" lon="1.55508">
        <ele>167.4</ele>
        <time>2022-08-08T11:18:39Z</time>
      </trkpt>
      <trkpt lat="44.51824" lon="1.55505">
        <ele>167.1</ele>
        <time>2022-08-08T11:18:41Z</time>
      </trkpt>
      <trkpt lat="44.51812" lon="1.55503">
        <ele>166.7</ele>
        <time>2022-08-08T11:18:43Z</time>
      </trkpt>
      <trkpt lat="44.518" lon="1.555">
        <ele>166.5</ele>
        <time>2022-08-08T11:18:45Z</time>
      </trkpt>
      <trkpt lat="44.51787" lon="1.55497">
        <ele>166.8</ele>
        <time>2022-08-08T11:18:47Z</time>
      </trkpt>
      <trkpt lat="44.51775" lon="1.55494">
        <ele>167.2</ele>
        <time>2022-08-08T11:18:49Z</time>
      </trkpt>
      <trkpt lat="44.51762" lon="1.5549">
        <ele>167.7</ele>
        <time>2022-08-08T11:18:51Z</time>
      </trkpt>
      <trkpt lat="44.51749" lon="1.55488">
        <ele>167.8</ele>
        <time>2022-08-08T11:18:53Z</time>
      </trkpt>
      <trkpt lat="44.51736" lon="1.55485">
        <ele>167</ele>
        <time>2022-08-08T11:18:55Z</time>
      </trkpt>
      <trkpt lat="44.51723" lon="1.55483">
        <ele>166.1</ele>
        <time>2022-08-08T11:18:57Z</time>
      </trkpt>
      <trkpt lat="44.51711" lon="1.5548">
        <ele>165.3</ele>
        <time>2022-08-08T11:18:59Z</time>
      </trkpt>
      <trkpt lat="44.51699" lon="1.55476">
        <ele>164.5</ele>
        <time>2022-08-08T11:19:01Z</time>
      </trkpt>
      <trkpt lat="44.51686" lon="1.55474">
        <ele>163.5</ele>
        <time>2022-08-08T11:19:03Z</time>
      </trkpt>
      <trkpt lat="44.51674" lon="1.5547">
        <ele>162.5</ele>
        <time>2022-08-08T11:19:05Z</time>
      </trkpt>
      <trkpt lat="44.51656" lon="1.55466">
        <ele>162.4</ele>
        <time>2022-08-08T11:19:08Z</time>
      </trkpt>
      <trkpt lat="44.51644" lon="1.55463">
        <ele>163.2</ele>
        <time>2022-08-08T11:19:10Z</time>
      </trkpt>
      <trkpt lat="44.51633" lon="1.55461">
        <ele>163.6</ele>
        <time>2022-08-08T11:19:12Z</time>
      </trkpt>
      <trkpt lat="44.51621" lon="1.55458">
        <ele>164.2</ele>
        <time>2022-08-08T11:19:14Z</time>
      </trkpt>
      <trkpt lat="44.51609" lon="1.55457">
        <ele>164.7</ele>
        <time>2022-08-08T11:19:16Z</time>
      </trkpt>
      <trkpt lat="44.51598" lon="1.55456">
        <ele>165</ele>
        <time>2022-08-08T11:19:18Z</time>
      </trkpt>
      <trkpt lat="44.51586" lon="1.55456">
        <ele>165</ele>
        <time>2022-08-08T11:19:20Z</time>
      </trkpt>
      <trkpt lat="44.51574" lon="1.55457">
        <ele>166.5</ele>
        <time>2022-08-08T11:19:22Z</time>
      </trkpt>
      <trkpt lat="44.51562" lon="1.5546">
        <ele>167.9</ele>
        <time>2022-08-08T11:19:24Z</time>
      </trkpt>
      <trkpt lat="44.5155" lon="1.55463">
        <ele>169.1</ele>
        <time>2022-08-08T11:19:26Z</time>
      </trkpt>
      <trkpt lat="44.51539" lon="1.55467">
        <ele>170.1</ele>
        <time>2022-08-08T11:19:28Z</time>
      </trkpt>
      <trkpt lat="44.51528" lon="1.55472">
        <ele>170.3</ele>
        <time>2022-08-08T11:19:30Z</time>
      </trkpt>
      <trkpt lat="44.51516" lon="1.55476">
        <ele>170.8</ele>
        <time>2022-08-08T11:19:32Z</time>
      </trkpt>
      <trkpt lat="44.51504" lon="1.55482">
        <ele>170.4</ele>
        <time>2022-08-08T11:19:34Z</time>
      </trkpt>
      <trkpt lat="44.51492" lon="1.55487">
        <ele>169.7</ele>
        <time>2022-08-08T11:19:36Z</time>
      </trkpt>
      <trkpt lat="44.5148" lon="1.55492">
        <ele>168.4</ele>
        <time>2022-08-08T11:19:38Z</time>
      </trkpt>
      <trkpt lat="44.51467" lon="1.55497">
        <ele>167.2</ele>
        <time>2022-08-08T11:19:40Z</time>
      </trkpt>
      <trkpt lat="44.51454" lon="1.55502">
        <ele>166.4</ele>
        <time>2022-08-08T11:19:42Z</time>
      </trkpt>
      <trkpt lat="44.51442" lon="1.55508">
        <ele>166.2</ele>
        <time>2022-08-08T11:19:44Z</time>
      </trkpt>
      <trkpt lat="44.5143" lon="1.55514">
        <ele>166</ele>
        <time>2022-08-08T11:19:46Z</time>
      </trkpt>
      <trkpt lat="44.51417" lon="1.55518">
        <ele>165.9</ele>
        <time>2022-08-08T11:19:48Z</time>
      </trkpt>
      <trkpt lat="44.51405" lon="1.55522">
        <ele>166.4</ele>
        <time>2022-08-08T11:19:50Z</time>
      </trkpt>
      <trkpt lat="44.51393" lon="1.55525">
        <ele>167.1</ele>
        <time>2022-08-08T11:19:52Z</time>
      </trkpt>
      <trkpt lat="44.51381" lon="1.55529">
        <ele>167.5</ele>
        <time>2022-08-08T11:19:54Z</time>
      </trkpt>
      <trkpt lat="44.51368" lon="1.55531">
        <ele>168.3</ele>
        <time>2022-08-08T11:19:56Z</time>
      </trkpt>
      <trkpt lat="44.51355" lon="1.55532">
        <ele>169.2</ele>
        <time>2022-08-08T11:19:58Z</time>
      </trkpt>
      <trkpt lat="44.51343" lon="1.55534">
        <ele>169.7</ele>
        <time>2022-08-08T11:20:00Z</time>
      </trkpt>
      <trkpt lat="44.51331" lon="1.55535">
        <ele>170.5</ele>
        <time>2022-08-08T11:20:02Z</time>
      </trkpt>
      <trkpt lat="44.51318" lon="1.55536">
        <ele>170.3</ele>
        <time>2022-08-08T11:20:04Z</time>
      </trkpt>
      <trkpt lat="44.51306" lon="1.55538">
        <ele>170.1</ele>
        <time>2022-08-08T11:20:06Z</time>
      </trkpt>
      <trkpt lat="44.51294" lon="1.55541">
        <ele>169.7</ele>
        <time>2022-08-08T11:20:08Z</time>
      </trkpt>
      <trkpt lat="44.51282" lon="1.55542">
        <ele>169.7</ele>
        <time>2022-08-08T11:20:10Z</time>
      </trkpt>
      <trkpt lat="44.51271" lon="1.55544">
        <ele>169.4</ele>
        <time>2022-08-08T11:20:12Z</time>
      </trkpt>
      <trkpt lat="44.5126" lon="1.55549">
        <ele>168.3</ele>
        <time>2022-08-08T11:20:14Z</time>
      </trkpt>
      <trkpt lat="44.51248" lon="1.55552">
        <ele>168</ele>
        <time>2022-08-08T11:20:16Z</time>
      </trkpt>
      <trkpt lat="44.51236" lon="1.55557">
        <ele>167.7</ele>
        <time>2022-08-08T11:20:18Z</time>
      </trkpt>
      <trkpt lat="44.51225" lon="1.55562">
        <ele>167.2</ele>
        <time>2022-08-08T11:20:20Z</time>
      </trkpt>
      <trkpt lat="44.51213" lon="1.55566">
        <ele>166.7</ele>
        <time>2022-08-08T11:20:22Z</time>
      </trkpt>
      <trkpt lat="44.51201" lon="1.55571">
        <ele>165.9</ele>
        <time>2022-08-08T11:20:24Z</time>
      </trkpt>
      <trkpt lat="44.5119" lon="1.55574">
        <ele>165.3</ele>
        <time>2022-08-08T11:20:26Z</time>
      </trkpt>
      <trkpt lat="44.51179" lon="1.55579">
        <ele>164.2</ele>
        <time>2022-08-08T11:20:28Z</time>
      </trkpt>
      <trkpt lat="44.51168" lon="1.55583">
        <ele>163</ele>
        <time>2022-08-08T11:20:30Z</time>
      </trkpt>
      <trkpt lat="44.51158" lon="1.55588">
        <ele>162.8</ele>
        <time>2022-08-08T11:20:32Z</time>
      </trkpt>
      <trkpt lat="44.51147" lon="1.5559">
        <ele>162.7</ele>
        <time>2022-08-08T11:20:34Z</time>
      </trkpt>
      <trkpt lat="44.51137" lon="1.55594">
        <ele>162.5</ele>
        <time>2022-08-08T11:20:36Z</time>
      </trkpt>
      <trkpt lat="44.51127" lon="1.55597">
        <ele>162.4</ele>
        <time>2022-08-08T11:20:38Z</time>
      </trkpt>
      <trkpt lat="44.51117" lon="1.556">
        <ele>162.2</ele>
        <time>2022-08-08T11:20:40Z</time>
      </trkpt>
      <trkpt lat="44.51106" lon="1.55601">
        <ele>162.2</ele>
        <time>2022-08-08T11:20:42Z</time>
      </trkpt>
      <trkpt lat="44.51096" lon="1.55602">
        <ele>162.3</ele>
        <time>2022-08-08T11:20:44Z</time>
      </trkpt>
      <trkpt lat="44.51086" lon="1.55603">
        <ele>162.3</ele>
        <time>2022-08-08T11:20:46Z</time>
      </trkpt>
      <trkpt lat="44.51075" lon="1.55604">
        <ele>162.2</ele>
        <time>2022-08-08T11:20:48Z</time>
      </trkpt>
      <trkpt lat="44.51065" lon="1.55604">
        <ele>162.2</ele>
        <time>2022-08-08T11:20:50Z</time>
      </trkpt>
      <trkpt lat="44.51055" lon="1.55603">
        <ele>162.3</ele>
        <time>2022-08-08T11:20:52Z</time>
      </trkpt>
      <trkpt lat="44.51045" lon="1.55604">
        <ele>162.2</ele>
        <time>2022-08-08T11:20:54Z</time>
      </trkpt>
      <trkpt lat="44.51034" lon="1.55604">
        <ele>162.2</ele>
        <time>2022-08-08T11:20:56Z</time>
      </trkpt>
      <trkpt lat="44.51023" lon="1.55604">
        <ele>162.2</ele>
        <time>2022-08-08T11:20:58Z</time>
      </trkpt>
      <trkpt lat="44.51018" lon="1.55604">
        <ele>162.3</ele>
        <time>2022-08-08T11:20:59Z</time>
      </trkpt>
      <trkpt lat="44.51007" lon="1.55604">
        <ele>162.3</ele>
        <time>2022-08-08T11:21:01Z</time>
      </trkpt>
      <trkpt lat="44.50996" lon="1.55605">
        <ele>162</ele>
        <time>2022-08-08T11:21:03Z</time>
      </trkpt>
      <trkpt lat="44.50985" lon="1.55605">
        <ele>161.6</ele>
        <time>2022-08-08T11:21:05Z</time>
      </trkpt>
      <trkpt lat="44.50974" lon="1.55605">
        <ele>161.2</ele>
        <time>2022-08-08T11:21:07Z</time>
      </trkpt>
      <trkpt lat="44.50962" lon="1.55604">
        <ele>160.9</ele>
        <time>2022-08-08T11:21:09Z</time>
      </trkpt>
      <trkpt lat="44.5095" lon="1.55602">
        <ele>160.8</ele>
        <time>2022-08-08T11:21:11Z</time>
      </trkpt>
      <trkpt lat="44.50939" lon="1.55601">
        <ele>160.6</ele>
        <time>2022-08-08T11:21:13Z</time>
      </trkpt>
      <trkpt lat="44.50927" lon="1.55595">
        <ele>160.9</ele>
        <time>2022-08-08T11:21:15Z</time>
      </trkpt>
      <trkpt lat="44.50916" lon="1.5559">
        <ele>161.2</ele>
        <time>2022-08-08T11:21:17Z</time>
      </trkpt>
      <trkpt lat="44.50906" lon="1.55584">
        <ele>161.1</ele>
        <time>2022-08-08T11:21:19Z</time>
      </trkpt>
      <trkpt lat="44.50896" lon="1.55574">
        <ele>163.4</ele>
        <time>2022-08-08T11:21:21Z</time>
      </trkpt>
      <trkpt lat="44.50886" lon="1.55568">
        <ele>164.2</ele>
        <time>2022-08-08T11:21:23Z</time>
      </trkpt>
      <trkpt lat="44.50876" lon="1.5556">
        <ele>164.9</ele>
        <time>2022-08-08T11:21:25Z</time>
      </trkpt>
      <trkpt lat="44.50866" lon="1.55553">
        <ele>165.4</ele>
        <time>2022-08-08T11:21:27Z</time>
      </trkpt>
      <trkpt lat="44.50856" lon="1.55545">
        <ele>165.1</ele>
        <time>2022-08-08T11:21:29Z</time>
      </trkpt>
      <trkpt lat="44.50846" lon="1.55538">
        <ele>164.2</ele>
        <time>2022-08-08T11:21:31Z</time>
      </trkpt>
      <trkpt lat="44.50837" lon="1.55531">
        <ele>163.4</ele>
        <time>2022-08-08T11:21:33Z</time>
      </trkpt>
      <trkpt lat="44.50827" lon="1.55524">
        <ele>162.9</ele>
        <time>2022-08-08T11:21:35Z</time>
      </trkpt>
      <trkpt lat="44.50817" lon="1.55517">
        <ele>162.9</ele>
        <time>2022-08-08T11:21:37Z</time>
      </trkpt>
      <trkpt lat="44.50808" lon="1.5551">
        <ele>162.5</ele>
        <time>2022-08-08T11:21:39Z</time>
      </trkpt>
      <trkpt lat="44.50798" lon="1.55502">
        <ele>161.8</ele>
        <time>2022-08-08T11:21:41Z</time>
      </trkpt>
      <trkpt lat="44.50788" lon="1.55495">
        <ele>162</ele>
        <time>2022-08-08T11:21:43Z</time>
      </trkpt>
      <trkpt lat="44.5078" lon="1.55487">
        <ele>162.7</ele>
        <time>2022-08-08T11:21:45Z</time>
      </trkpt>
      <trkpt lat="44.5077" lon="1.55478">
        <ele>163</ele>
        <time>2022-08-08T11:21:47Z</time>
      </trkpt>
      <trkpt lat="44.50761" lon="1.55469">
        <ele>163.2</ele>
        <time>2022-08-08T11:21:49Z</time>
      </trkpt>
      <trkpt lat="44.50752" lon="1.5546">
        <ele>163</ele>
        <time>2022-08-08T11:21:51Z</time>
      </trkpt>
      <trkpt lat="44.50742" lon="1.55451">
        <ele>163.5</ele>
        <time>2022-08-08T11:21:53Z</time>
      </trkpt>
      <trkpt lat="44.50733" lon="1.55442">
        <ele>164</ele>
        <time>2022-08-08T11:21:55Z</time>
      </trkpt>
      <trkpt lat="44.50724" lon="1.55434">
        <ele>163.9</ele>
        <time>2022-08-08T11:21:57Z</time>
      </trkpt>
      <trkpt lat="44.50715" lon="1.55426">
        <ele>163.7</ele>
        <time>2022-08-08T11:21:59Z</time>
      </trkpt>
      <trkpt lat="44.50706" lon="1.55418">
        <ele>163</ele>
        <time>2022-08-08T11:22:01Z</time>
      </trkpt>
      <trkpt lat="44.50697" lon="1.55409">
        <ele>164</ele>
        <time>2022-08-08T11:22:03Z</time>
      </trkpt>
      <trkpt lat="44.50689" lon="1.554">
        <ele>165.3</ele>
        <time>2022-08-08T11:22:05Z</time>
      </trkpt>
      <trkpt lat="44.50679" lon="1.55392">
        <ele>165.6</ele>
        <time>2022-08-08T11:22:07Z</time>
      </trkpt>
      <trkpt lat="44.5067" lon="1.55384">
        <ele>165.8</ele>
        <time>2022-08-08T11:22:09Z</time>
      </trkpt>
      <trkpt lat="44.5066" lon="1.55376">
        <ele>166.3</ele>
        <time>2022-08-08T11:22:11Z</time>
      </trkpt>
      <trkpt lat="44.50651" lon="1.55369">
        <ele>167.1</ele>
        <time>2022-08-08T11:22:13Z</time>
      </trkpt>
      <trkpt lat="44.50641" lon="1.55363">
        <ele>167.2</ele>
        <time>2022-08-08T11:22:15Z</time>
      </trkpt>
      <trkpt lat="44.5063" lon="1.55358">
        <ele>166.8</ele>
        <time>2022-08-08T11:22:17Z</time>
      </trkpt>
      <trkpt lat="44.5062" lon="1.55353">
        <ele>166.4</ele>
        <time>2022-08-08T11:22:19Z</time>
      </trkpt>
      <trkpt lat="44.50608" lon="1.55348">
        <ele>165.5</ele>
        <time>2022-08-08T11:22:21Z</time>
      </trkpt>
      <trkpt lat="44.50597" lon="1.55346">
        <ele>164.2</ele>
        <time>2022-08-08T11:22:23Z</time>
      </trkpt>
      <trkpt lat="44.50586" lon="1.55344">
        <ele>162.7</ele>
        <time>2022-08-08T11:22:25Z</time>
      </trkpt>
      <trkpt lat="44.50574" lon="1.55342">
        <ele>162.9</ele>
        <time>2022-08-08T11:22:27Z</time>
      </trkpt>
      <trkpt lat="44.50563" lon="1.55341">
        <ele>163.6</ele>
        <time>2022-08-08T11:22:29Z</time>
      </trkpt>
      <trkpt lat="44.50551" lon="1.55342">
        <ele>164.1</ele>
        <time>2022-08-08T11:22:31Z</time>
      </trkpt>
      <trkpt lat="44.50539" lon="1.55344">
        <ele>164.2</ele>
        <time>2022-08-08T11:22:33Z</time>
      </trkpt>
      <trkpt lat="44.50521" lon="1.55349">
        <ele>164.1</ele>
        <time>2022-08-08T11:22:36Z</time>
      </trkpt>
      <trkpt lat="44.50508" lon="1.55354">
        <ele>163.6</ele>
        <time>2022-08-08T11:22:38Z</time>
      </trkpt>
      <trkpt lat="44.50497" lon="1.55361">
        <ele>163.8</ele>
        <time>2022-08-08T11:22:40Z</time>
      </trkpt>
      <trkpt lat="44.50485" lon="1.55369">
        <ele>165.7</ele>
        <time>2022-08-08T11:22:42Z</time>
      </trkpt>
      <trkpt lat="44.50474" lon="1.55378">
        <ele>166.9</ele>
        <time>2022-08-08T11:22:44Z</time>
      </trkpt>
      <trkpt lat="44.50469" lon="1.55382">
        <ele>167.3</ele>
        <time>2022-08-08T11:22:45Z</time>
      </trkpt>
      <trkpt lat="44.50459" lon="1.55393">
        <ele>167.8</ele>
        <time>2022-08-08T11:22:47Z</time>
      </trkpt>
      <trkpt lat="44.5045" lon="1.55406">
        <ele>167</ele>
        <time>2022-08-08T11:22:49Z</time>
      </trkpt>
      <trkpt lat="44.50442" lon="1.5542">
        <ele>166.2</ele>
        <time>2022-08-08T11:22:51Z</time>
      </trkpt>
      <trkpt lat="44.50435" lon="1.55434">
        <ele>165.4</ele>
        <time>2022-08-08T11:22:53Z</time>
      </trkpt>
      <trkpt lat="44.50429" lon="1.5545">
        <ele>163.7</ele>
        <time>2022-08-08T11:22:55Z</time>
      </trkpt>
      <trkpt lat="44.50423" lon="1.55464">
        <ele>162</ele>
        <time>2022-08-08T11:22:57Z</time>
      </trkpt>
      <trkpt lat="44.50416" lon="1.55477">
        <ele>160</ele>
        <time>2022-08-08T11:22:59Z</time>
      </trkpt>
      <trkpt lat="44.5041" lon="1.55493">
        <ele>157.6</ele>
        <time>2022-08-08T11:23:01Z</time>
      </trkpt>
      <trkpt lat="44.50403" lon="1.55508">
        <ele>156</ele>
        <time>2022-08-08T11:23:03Z</time>
      </trkpt>
      <trkpt lat="44.50396" lon="1.55522">
        <ele>155.4</ele>
        <time>2022-08-08T11:23:05Z</time>
      </trkpt>
      <trkpt lat="44.50388" lon="1.55535">
        <ele>154.5</ele>
        <time>2022-08-08T11:23:07Z</time>
      </trkpt>
      <trkpt lat="44.50379" lon="1.55545">
        <ele>154</ele>
        <time>2022-08-08T11:23:09Z</time>
      </trkpt>
      <trkpt lat="44.50367" lon="1.55552">
        <ele>153.7</ele>
        <time>2022-08-08T11:23:11Z</time>
      </trkpt>
      <trkpt lat="44.5035" lon="1.55556">
        <ele>154.2</ele>
        <time>2022-08-08T11:23:14Z</time>
      </trkpt>
      <trkpt lat="44.50337" lon="1.55555">
        <ele>155.2</ele>
        <time>2022-08-08T11:23:16Z</time>
      </trkpt>
      <trkpt lat="44.50325" lon="1.55553">
        <ele>155.5</ele>
        <time>2022-08-08T11:23:18Z</time>
      </trkpt>
      <trkpt lat="44.50313" lon="1.55547">
        <ele>155.8</ele>
        <time>2022-08-08T11:23:20Z</time>
      </trkpt>
      <trkpt lat="44.50302" lon="1.55541">
        <ele>156.2</ele>
        <time>2022-08-08T11:23:22Z</time>
      </trkpt>
      <trkpt lat="44.50291" lon="1.55533">
        <ele>156.7</ele>
        <time>2022-08-08T11:23:24Z</time>
      </trkpt>
      <trkpt lat="44.50279" lon="1.55527">
        <ele>156.9</ele>
        <time>2022-08-08T11:23:26Z</time>
      </trkpt>
      <trkpt lat="44.50267" lon="1.55519">
        <ele>157.1</ele>
        <time>2022-08-08T11:23:28Z</time>
      </trkpt>
      <trkpt lat="44.50256" lon="1.55511">
        <ele>157.1</ele>
        <time>2022-08-08T11:23:30Z</time>
      </trkpt>
      <trkpt lat="44.50244" lon="1.55504">
        <ele>157.1</ele>
        <time>2022-08-08T11:23:32Z</time>
      </trkpt>
      <trkpt lat="44.50233" lon="1.55497">
        <ele>157.5</ele>
        <time>2022-08-08T11:23:34Z</time>
      </trkpt>
      <trkpt lat="44.50222" lon="1.5549">
        <ele>158.3</ele>
        <time>2022-08-08T11:23:36Z</time>
      </trkpt>
      <trkpt lat="44.50211" lon="1.55483">
        <ele>159.2</ele>
        <time>2022-08-08T11:23:38Z</time>
      </trkpt>
      <trkpt lat="44.50199" lon="1.55478">
        <ele>159.7</ele>
        <time>2022-08-08T11:23:40Z</time>
      </trkpt>
      <trkpt lat="44.50188" lon="1.55475">
        <ele>160</ele>
        <time>2022-08-08T11:23:42Z</time>
      </trkpt>
      <trkpt lat="44.50176" lon="1.55473">
        <ele>160</ele>
        <time>2022-08-08T11:23:44Z</time>
      </trkpt>
      <trkpt lat="44.50165" lon="1.55472">
        <ele>159.9</ele>
        <time>2022-08-08T11:23:46Z</time>
      </trkpt>
      <trkpt lat="44.50153" lon="1.55471">
        <ele>161.2</ele>
        <time>2022-08-08T11:23:48Z</time>
      </trkpt>
      <trkpt lat="44.50142" lon="1.55472">
        <ele>161.9</ele>
        <time>2022-08-08T11:23:50Z</time>
      </trkpt>
      <trkpt lat="44.50131" lon="1.55475">
        <ele>162.2</ele>
        <time>2022-08-08T11:23:52Z</time>
      </trkpt>
      <trkpt lat="44.50119" lon="1.55478">
        <ele>162.3</ele>
        <time>2022-08-08T11:23:54Z</time>
      </trkpt>
      <trkpt lat="44.50107" lon="1.55484">
        <ele>161.6</ele>
        <time>2022-08-08T11:23:56Z</time>
      </trkpt>
      <trkpt lat="44.50096" lon="1.55488">
        <ele>161.1</ele>
        <time>2022-08-08T11:23:58Z</time>
      </trkpt>
      <trkpt lat="44.50085" lon="1.55496">
        <ele>159.3</ele>
        <time>2022-08-08T11:24:00Z</time>
      </trkpt>
      <trkpt lat="44.50075" lon="1.55504">
        <ele>160.2</ele>
        <time>2022-08-08T11:24:02Z</time>
      </trkpt>
      <trkpt lat="44.50064" lon="1.55512">
        <ele>161.8</ele>
        <time>2022-08-08T11:24:04Z</time>
      </trkpt>
      <trkpt lat="44.50054" lon="1.55523">
        <ele>162.3</ele>
        <time>2022-08-08T11:24:06Z</time>
      </trkpt>
      <trkpt lat="44.50044" lon="1.55536">
        <ele>161.7</ele>
        <time>2022-08-08T11:24:08Z</time>
      </trkpt>
      <trkpt lat="44.50035" lon="1.55548">
        <ele>160.4</ele>
        <time>2022-08-08T11:24:10Z</time>
      </trkpt>
      <trkpt lat="44.50026" lon="1.55558">
        <ele>159.1</ele>
        <time>2022-08-08T11:24:12Z</time>
      </trkpt>
      <trkpt lat="44.50016" lon="1.5557">
        <ele>156.9</ele>
        <time>2022-08-08T11:24:14Z</time>
      </trkpt>
      <trkpt lat="44.50006" lon="1.55582">
        <ele>154</ele>
        <time>2022-08-08T11:24:16Z</time>
      </trkpt>
      <trkpt lat="44.49995" lon="1.55593">
        <ele>153.1</ele>
        <time>2022-08-08T11:24:18Z</time>
      </trkpt>
      <trkpt lat="44.49983" lon="1.55602">
        <ele>152.6</ele>
        <time>2022-08-08T11:24:20Z</time>
      </trkpt>
      <trkpt lat="44.49971" lon="1.55609">
        <ele>152.3</ele>
        <time>2022-08-08T11:24:22Z</time>
      </trkpt>
      <trkpt lat="44.49958" lon="1.55611">
        <ele>152.8</ele>
        <time>2022-08-08T11:24:24Z</time>
      </trkpt>
      <trkpt lat="44.49944" lon="1.5561">
        <ele>153.7</ele>
        <time>2022-08-08T11:24:26Z</time>
      </trkpt>
      <trkpt lat="44.49932" lon="1.55609">
        <ele>154.5</ele>
        <time>2022-08-08T11:24:28Z</time>
      </trkpt>
      <trkpt lat="44.49919" lon="1.55609">
        <ele>155.3</ele>
        <time>2022-08-08T11:24:30Z</time>
      </trkpt>
      <trkpt lat="44.49907" lon="1.55607">
        <ele>154.6</ele>
        <time>2022-08-08T11:24:32Z</time>
      </trkpt>
      <trkpt lat="44.49895" lon="1.55606">
        <ele>153.5</ele>
        <time>2022-08-08T11:24:34Z</time>
      </trkpt>
      <trkpt lat="44.49883" lon="1.55605">
        <ele>152.5</ele>
        <time>2022-08-08T11:24:36Z</time>
      </trkpt>
      <trkpt lat="44.49871" lon="1.55603">
        <ele>151.5</ele>
        <time>2022-08-08T11:24:38Z</time>
      </trkpt>
      <trkpt lat="44.49859" lon="1.556">
        <ele>150.6</ele>
        <time>2022-08-08T11:24:40Z</time>
      </trkpt>
      <trkpt lat="44.49848" lon="1.55595">
        <ele>149.8</ele>
        <time>2022-08-08T11:24:42Z</time>
      </trkpt>
      <trkpt lat="44.49838" lon="1.55587">
        <ele>149.3</ele>
        <time>2022-08-08T11:24:44Z</time>
      </trkpt>
      <trkpt lat="44.49828" lon="1.55578">
        <ele>149.6</ele>
        <time>2022-08-08T11:24:46Z</time>
      </trkpt>
      <trkpt lat="44.4982" lon="1.55565">
        <ele>150.8</ele>
        <time>2022-08-08T11:24:48Z</time>
      </trkpt>
      <trkpt lat="44.49815" lon="1.5555">
        <ele>152.3</ele>
        <time>2022-08-08T11:24:50Z</time>
      </trkpt>
      <trkpt lat="44.49809" lon="1.55535">
        <ele>153.5</ele>
        <time>2022-08-08T11:24:52Z</time>
      </trkpt>
      <trkpt lat="44.49805" lon="1.55519">
        <ele>154.7</ele>
        <time>2022-08-08T11:24:54Z</time>
      </trkpt>
      <trkpt lat="44.498" lon="1.55503">
        <ele>155.5</ele>
        <time>2022-08-08T11:24:56Z</time>
      </trkpt>
      <trkpt lat="44.49796" lon="1.55487">
        <ele>155.9</ele>
        <time>2022-08-08T11:24:58Z</time>
      </trkpt>
      <trkpt lat="44.49791" lon="1.55472">
        <ele>156</ele>
        <time>2022-08-08T11:25:00Z</time>
      </trkpt>
      <trkpt lat="44.49786" lon="1.55457">
        <ele>155.8</ele>
        <time>2022-08-08T11:25:02Z</time>
      </trkpt>
      <trkpt lat="44.49782" lon="1.55442">
        <ele>155.3</ele>
        <time>2022-08-08T11:25:04Z</time>
      </trkpt>
      <trkpt lat="44.49777" lon="1.55427">
        <ele>154.6</ele>
        <time>2022-08-08T11:25:06Z</time>
      </trkpt>
      <trkpt lat="44.49773" lon="1.55412">
        <ele>153.7</ele>
        <time>2022-08-08T11:25:08Z</time>
      </trkpt>
      <trkpt lat="44.49771" lon="1.55405">
        <ele>153.1</ele>
        <time>2022-08-08T11:25:09Z</time>
      </trkpt>
      <trkpt lat="44.49768" lon="1.55389">
        <ele>151.9</ele>
        <time>2022-08-08T11:25:11Z</time>
      </trkpt>
      <trkpt lat="44.49767" lon="1.55373">
        <ele>151.6</ele>
        <time>2022-08-08T11:25:13Z</time>
      </trkpt>
      <trkpt lat="44.49767" lon="1.55357">
        <ele>152</ele>
        <time>2022-08-08T11:25:15Z</time>
      </trkpt>
      <trkpt lat="44.49771" lon="1.55341">
        <ele>153.6</ele>
        <time>2022-08-08T11:25:17Z</time>
      </trkpt>
      <trkpt lat="44.49775" lon="1.55327">
        <ele>154.8</ele>
        <time>2022-08-08T11:25:19Z</time>
      </trkpt>
      <trkpt lat="44.4978" lon="1.55312">
        <ele>156.2</ele>
        <time>2022-08-08T11:25:21Z</time>
      </trkpt>
      <trkpt lat="44.49783" lon="1.55296">
        <ele>157</ele>
        <time>2022-08-08T11:25:23Z</time>
      </trkpt>
      <trkpt lat="44.49788" lon="1.55282">
        <ele>158</ele>
        <time>2022-08-08T11:25:25Z</time>
      </trkpt>
      <trkpt lat="44.49792" lon="1.55269">
        <ele>158.7</ele>
        <time>2022-08-08T11:25:27Z</time>
      </trkpt>
      <trkpt lat="44.49796" lon="1.55255">
        <ele>159.4</ele>
        <time>2022-08-08T11:25:29Z</time>
      </trkpt>
      <trkpt lat="44.498" lon="1.55241">
        <ele>160.4</ele>
        <time>2022-08-08T11:25:31Z</time>
      </trkpt>
      <trkpt lat="44.49803" lon="1.55226">
        <ele>161.5</ele>
        <time>2022-08-08T11:25:33Z</time>
      </trkpt>
      <trkpt lat="44.49804" lon="1.55212">
        <ele>162.2</ele>
        <time>2022-08-08T11:25:35Z</time>
      </trkpt>
      <trkpt lat="44.49805" lon="1.55199">
        <ele>162.5</ele>
        <time>2022-08-08T11:25:37Z</time>
      </trkpt>
      <trkpt lat="44.49804" lon="1.55185">
        <ele>162.7</ele>
        <time>2022-08-08T11:25:39Z</time>
      </trkpt>
      <trkpt lat="44.49804" lon="1.55172">
        <ele>162.7</ele>
        <time>2022-08-08T11:25:41Z</time>
      </trkpt>
      <trkpt lat="44.49801" lon="1.55159">
        <ele>163</ele>
        <time>2022-08-08T11:25:43Z</time>
      </trkpt>
      <trkpt lat="44.49796" lon="1.55147">
        <ele>163.5</ele>
        <time>2022-08-08T11:25:45Z</time>
      </trkpt>
      <trkpt lat="44.49791" lon="1.55137">
        <ele>163.5</ele>
        <time>2022-08-08T11:25:47Z</time>
      </trkpt>
      <trkpt lat="44.49784" lon="1.55127">
        <ele>162.7</ele>
        <time>2022-08-08T11:25:49Z</time>
      </trkpt>
      <trkpt lat="44.49776" lon="1.55117">
        <ele>161.6</ele>
        <time>2022-08-08T11:25:51Z</time>
      </trkpt>
      <trkpt lat="44.49768" lon="1.5511">
        <ele>159.9</ele>
        <time>2022-08-08T11:25:53Z</time>
      </trkpt>
      <trkpt lat="44.49758" lon="1.55105">
        <ele>157.5</ele>
        <time>2022-08-08T11:25:55Z</time>
      </trkpt>
      <trkpt lat="44.49748" lon="1.55099">
        <ele>155.6</ele>
        <time>2022-08-08T11:25:57Z</time>
      </trkpt>
      <trkpt lat="44.49738" lon="1.55095">
        <ele>155.9</ele>
        <time>2022-08-08T11:25:59Z</time>
      </trkpt>
      <trkpt lat="44.49729" lon="1.55091">
        <ele>155.9</ele>
        <time>2022-08-08T11:26:01Z</time>
      </trkpt>
      <trkpt lat="44.49719" lon="1.5509">
        <ele>155.7</ele>
        <time>2022-08-08T11:26:03Z</time>
      </trkpt>
      <trkpt lat="44.49709" lon="1.55088">
        <ele>155.5</ele>
        <time>2022-08-08T11:26:05Z</time>
      </trkpt>
      <trkpt lat="44.49699" lon="1.55088">
        <ele>155.1</ele>
        <time>2022-08-08T11:26:07Z</time>
      </trkpt>
      <trkpt lat="44.49689" lon="1.55087">
        <ele>154.7</ele>
        <time>2022-08-08T11:26:09Z</time>
      </trkpt>
      <trkpt lat="44.49679" lon="1.55089">
        <ele>154.1</ele>
        <time>2022-08-08T11:26:11Z</time>
      </trkpt>
      <trkpt lat="44.49669" lon="1.5509">
        <ele>153.6</ele>
        <time>2022-08-08T11:26:13Z</time>
      </trkpt>
      <trkpt lat="44.49659" lon="1.55092">
        <ele>154.9</ele>
        <time>2022-08-08T11:26:15Z</time>
      </trkpt>
      <trkpt lat="44.49649" lon="1.55095">
        <ele>156.7</ele>
        <time>2022-08-08T11:26:17Z</time>
      </trkpt>
      <trkpt lat="44.49639" lon="1.55098">
        <ele>158.2</ele>
        <time>2022-08-08T11:26:19Z</time>
      </trkpt>
      <trkpt lat="44.49629" lon="1.55102">
        <ele>159.5</ele>
        <time>2022-08-08T11:26:21Z</time>
      </trkpt>
      <trkpt lat="44.49618" lon="1.55106">
        <ele>160.5</ele>
        <time>2022-08-08T11:26:23Z</time>
      </trkpt>
      <trkpt lat="44.49609" lon="1.5511">
        <ele>161.3</ele>
        <time>2022-08-08T11:26:25Z</time>
      </trkpt>
      <trkpt lat="44.49599" lon="1.55116">
        <ele>161.6</ele>
        <time>2022-08-08T11:26:27Z</time>
      </trkpt>
      <trkpt lat="44.49589" lon="1.55122">
        <ele>161.4</ele>
        <time>2022-08-08T11:26:29Z</time>
      </trkpt>
      <trkpt lat="44.4958" lon="1.55129">
        <ele>161.7</ele>
        <time>2022-08-08T11:26:31Z</time>
      </trkpt>
      <trkpt lat="44.4957" lon="1.55136">
        <ele>163.7</ele>
        <time>2022-08-08T11:26:33Z</time>
      </trkpt>
      <trkpt lat="44.4956" lon="1.55144">
        <ele>165.5</ele>
        <time>2022-08-08T11:26:35Z</time>
      </trkpt>
      <trkpt lat="44.4955" lon="1.55155">
        <ele>166.3</ele>
        <time>2022-08-08T11:26:37Z</time>
      </trkpt>
      <trkpt lat="44.49541" lon="1.55165">
        <ele>167.4</ele>
        <time>2022-08-08T11:26:39Z</time>
      </trkpt>
      <trkpt lat="44.49532" lon="1.55177">
        <ele>168.1</ele>
        <time>2022-08-08T11:26:41Z</time>
      </trkpt>
      <trkpt lat="44.49523" lon="1.5519">
        <ele>168.4</ele>
        <time>2022-08-08T11:26:43Z</time>
      </trkpt>
      <trkpt lat="44.49514" lon="1.55204">
        <ele>168</ele>
        <time>2022-08-08T11:26:45Z</time>
      </trkpt>
      <trkpt lat="44.49507" lon="1.55218">
        <ele>166.6</ele>
        <time>2022-08-08T11:26:47Z</time>
      </trkpt>
      <trkpt lat="44.49498" lon="1.5523">
        <ele>165.5</ele>
        <time>2022-08-08T11:26:49Z</time>
      </trkpt>
      <trkpt lat="44.4949" lon="1.55244">
        <ele>165.5</ele>
        <time>2022-08-08T11:26:51Z</time>
      </trkpt>
      <trkpt lat="44.49482" lon="1.55256">
        <ele>166.2</ele>
        <time>2022-08-08T11:26:53Z</time>
      </trkpt>
      <trkpt lat="44.49475" lon="1.55271">
        <ele>165.5</ele>
        <time>2022-08-08T11:26:55Z</time>
      </trkpt>
      <trkpt lat="44.49468" lon="1.55283">
        <ele>165.4</ele>
        <time>2022-08-08T11:26:57Z</time>
      </trkpt>
      <trkpt lat="44.4946" lon="1.55295">
        <ele>165.2</ele>
        <time>2022-08-08T11:26:59Z</time>
      </trkpt>
      <trkpt lat="44.49451" lon="1.55308">
        <ele>164.5</ele>
        <time>2022-08-08T11:27:01Z</time>
      </trkpt>
      <trkpt lat="44.49443" lon="1.55323">
        <ele>162.6</ele>
        <time>2022-08-08T11:27:03Z</time>
      </trkpt>
      <trkpt lat="44.49436" lon="1.55336">
        <ele>160.7</ele>
        <time>2022-08-08T11:27:05Z</time>
      </trkpt>
      <trkpt lat="44.49428" lon="1.55349">
        <ele>159.4</ele>
        <time>2022-08-08T11:27:07Z</time>
      </trkpt>
      <trkpt lat="44.49421" lon="1.55364">
        <ele>157.4</ele>
        <time>2022-08-08T11:27:09Z</time>
      </trkpt>
      <trkpt lat="44.49414" lon="1.55377">
        <ele>155.7</ele>
        <time>2022-08-08T11:27:11Z</time>
      </trkpt>
      <trkpt lat="44.49406" lon="1.5539">
        <ele>155.7</ele>
        <time>2022-08-08T11:27:13Z</time>
      </trkpt>
      <trkpt lat="44.494" lon="1.55403">
        <ele>155.3</ele>
        <time>2022-08-08T11:27:15Z</time>
      </trkpt>
      <trkpt lat="44.49389" lon="1.55413">
        <ele>157.5</ele>
        <time>2022-08-08T11:27:17Z</time>
      </trkpt>
      <trkpt lat="44.49383" lon="1.55429">
        <ele>157.7</ele>
        <time>2022-08-08T11:27:19Z</time>
      </trkpt>
      <trkpt lat="44.49377" lon="1.55442">
        <ele>158.8</ele>
        <time>2022-08-08T11:27:21Z</time>
      </trkpt>
      <trkpt lat="44.49365" lon="1.55462">
        <ele>159.7</ele>
        <time>2022-08-08T11:27:24Z</time>
      </trkpt>
      <trkpt lat="44.49359" lon="1.55475">
        <ele>159.4</ele>
        <time>2022-08-08T11:27:26Z</time>
      </trkpt>
      <trkpt lat="44.49351" lon="1.55489">
        <ele>158.9</ele>
        <time>2022-08-08T11:27:28Z</time>
      </trkpt>
      <trkpt lat="44.49342" lon="1.55502">
        <ele>158.2</ele>
        <time>2022-08-08T11:27:30Z</time>
      </trkpt>
      <trkpt lat="44.49333" lon="1.55516">
        <ele>156.7</ele>
        <time>2022-08-08T11:27:32Z</time>
      </trkpt>
      <trkpt lat="44.49324" lon="1.55529">
        <ele>155.3</ele>
        <time>2022-08-08T11:27:34Z</time>
      </trkpt>
      <trkpt lat="44.49315" lon="1.55542">
        <ele>153.7</ele>
        <time>2022-08-08T11:27:36Z</time>
      </trkpt>
      <trkpt lat="44.49304" lon="1.55552">
        <ele>153.1</ele>
        <time>2022-08-08T11:27:38Z</time>
      </trkpt>
      <trkpt lat="44.49294" lon="1.55561">
        <ele>152.4</ele>
        <time>2022-08-08T11:27:40Z</time>
      </trkpt>
      <trkpt lat="44.49283" lon="1.55571">
        <ele>151.4</ele>
        <time>2022-08-08T11:27:42Z</time>
      </trkpt>
      <trkpt lat="44.49272" lon="1.55582">
        <ele>149.5</ele>
        <time>2022-08-08T11:27:44Z</time>
      </trkpt>
      <trkpt lat="44.49261" lon="1.55591">
        <ele>149.9</ele>
        <time>2022-08-08T11:27:46Z</time>
      </trkpt>
      <trkpt lat="44.4925" lon="1.55599">
        <ele>150.3</ele>
        <time>2022-08-08T11:27:48Z</time>
      </trkpt>
      <trkpt lat="44.49239" lon="1.55606">
        <ele>150.5</ele>
        <time>2022-08-08T11:27:50Z</time>
      </trkpt>
      <trkpt lat="44.49227" lon="1.55612">
        <ele>150.5</ele>
        <time>2022-08-08T11:27:52Z</time>
      </trkpt>
      <trkpt lat="44.49215" lon="1.55619">
        <ele>150.3</ele>
        <time>2022-08-08T11:27:54Z</time>
      </trkpt>
      <trkpt lat="44.49203" lon="1.55626">
        <ele>149.9</ele>
        <time>2022-08-08T11:27:56Z</time>
      </trkpt>
      <trkpt lat="44.4919" lon="1.5563">
        <ele>149.7</ele>
        <time>2022-08-08T11:27:58Z</time>
      </trkpt>
      <trkpt lat="44.49178" lon="1.55634">
        <ele>149.5</ele>
        <time>2022-08-08T11:28:00Z</time>
      </trkpt>
      <trkpt lat="44.49167" lon="1.55637">
        <ele>149.6</ele>
        <time>2022-08-08T11:28:02Z</time>
      </trkpt>
      <trkpt lat="44.49154" lon="1.55638">
        <ele>148.3</ele>
        <time>2022-08-08T11:28:04Z</time>
      </trkpt>
      <trkpt lat="44.49141" lon="1.55638">
        <ele>147.4</ele>
        <time>2022-08-08T11:28:06Z</time>
      </trkpt>
      <trkpt lat="44.49129" lon="1.55636">
        <ele>146.9</ele>
        <time>2022-08-08T11:28:08Z</time>
      </trkpt>
      <trkpt lat="44.49116" lon="1.55633">
        <ele>146.7</ele>
        <time>2022-08-08T11:28:10Z</time>
      </trkpt>
      <trkpt lat="44.49105" lon="1.55629">
        <ele>146.7</ele>
        <time>2022-08-08T11:28:12Z</time>
      </trkpt>
      <trkpt lat="44.49093" lon="1.55624">
        <ele>146.7</ele>
        <time>2022-08-08T11:28:14Z</time>
      </trkpt>
      <trkpt lat="44.49083" lon="1.55616">
        <ele>147.2</ele>
        <time>2022-08-08T11:28:16Z</time>
      </trkpt>
      <trkpt lat="44.49073" lon="1.55606">
        <ele>147.7</ele>
        <time>2022-08-08T11:28:18Z</time>
      </trkpt>
      <trkpt lat="44.49064" lon="1.55595">
        <ele>147.7</ele>
        <time>2022-08-08T11:28:20Z</time>
      </trkpt>
      <trkpt lat="44.49055" lon="1.55583">
        <ele>147.3</ele>
        <time>2022-08-08T11:28:22Z</time>
      </trkpt>
      <trkpt lat="44.49047" lon="1.5557">
        <ele>148.3</ele>
        <time>2022-08-08T11:28:24Z</time>
      </trkpt>
      <trkpt lat="44.4904" lon="1.55558">
        <ele>148.9</ele>
        <time>2022-08-08T11:28:26Z</time>
      </trkpt>
      <trkpt lat="44.49033" lon="1.55545">
        <ele>149.3</ele>
        <time>2022-08-08T11:28:28Z</time>
      </trkpt>
      <trkpt lat="44.49026" lon="1.55532">
        <ele>149.2</ele>
        <time>2022-08-08T11:28:30Z</time>
      </trkpt>
      <trkpt lat="44.49019" lon="1.5552">
        <ele>148.8</ele>
        <time>2022-08-08T11:28:32Z</time>
      </trkpt>
      <trkpt lat="44.49013" lon="1.55508">
        <ele>148</ele>
        <time>2022-08-08T11:28:34Z</time>
      </trkpt>
      <trkpt lat="44.49005" lon="1.55495">
        <ele>147.1</ele>
        <time>2022-08-08T11:28:36Z</time>
      </trkpt>
      <trkpt lat="44.48998" lon="1.55483">
        <ele>147.4</ele>
        <time>2022-08-08T11:28:38Z</time>
      </trkpt>
      <trkpt lat="44.48991" lon="1.55471">
        <ele>148.9</ele>
        <time>2022-08-08T11:28:40Z</time>
      </trkpt>
      <trkpt lat="44.48985" lon="1.55458">
        <ele>150.3</ele>
        <time>2022-08-08T11:28:42Z</time>
      </trkpt>
      <trkpt lat="44.48978" lon="1.55445">
        <ele>151.1</ele>
        <time>2022-08-08T11:28:44Z</time>
      </trkpt>
      <trkpt lat="44.48971" lon="1.55433">
        <ele>151.2</ele>
        <time>2022-08-08T11:28:46Z</time>
      </trkpt>
      <trkpt lat="44.48965" lon="1.55422">
        <ele>151.3</ele>
        <time>2022-08-08T11:28:48Z</time>
      </trkpt>
      <trkpt lat="44.48959" lon="1.5541">
        <ele>151.7</ele>
        <time>2022-08-08T11:28:50Z</time>
      </trkpt>
      <trkpt lat="44.48953" lon="1.55399">
        <ele>152.5</ele>
        <time>2022-08-08T11:28:52Z</time>
      </trkpt>
      <trkpt lat="44.48946" lon="1.55386">
        <ele>152.9</ele>
        <time>2022-08-08T11:28:54Z</time>
      </trkpt>
      <trkpt lat="44.4894" lon="1.55374">
        <ele>152.9</ele>
        <time>2022-08-08T11:28:56Z</time>
      </trkpt>
      <trkpt lat="44.48933" lon="1.55363">
        <ele>152.6</ele>
        <time>2022-08-08T11:28:58Z</time>
      </trkpt>
      <trkpt lat="44.48927" lon="1.55351">
        <ele>151.7</ele>
        <time>2022-08-08T11:29:00Z</time>
      </trkpt>
      <trkpt lat="44.4892" lon="1.55339">
        <ele>150.7</ele>
        <time>2022-08-08T11:29:02Z</time>
      </trkpt>
      <trkpt lat="44.48914" lon="1.55328">
        <ele>150.9</ele>
        <time>2022-08-08T11:29:04Z</time>
      </trkpt>
      <trkpt lat="44.48907" lon="1.55318">
        <ele>152.2</ele>
        <time>2022-08-08T11:29:06Z</time>
      </trkpt>
      <trkpt lat="44.48901" lon="1.55306">
        <ele>154</ele>
        <time>2022-08-08T11:29:08Z</time>
      </trkpt>
      <trkpt lat="44.48895" lon="1.55296">
        <ele>155.1</ele>
        <time>2022-08-08T11:29:10Z</time>
      </trkpt>
      <trkpt lat="44.48887" lon="1.55287">
        <ele>155.5</ele>
        <time>2022-08-08T11:29:12Z</time>
      </trkpt>
      <trkpt lat="44.48879" lon="1.55279">
        <ele>155.5</ele>
        <time>2022-08-08T11:29:14Z</time>
      </trkpt>
      <trkpt lat="44.48871" lon="1.55272">
        <ele>155.1</ele>
        <time>2022-08-08T11:29:16Z</time>
      </trkpt>
      <trkpt lat="44.48862" lon="1.55265">
        <ele>154.7</ele>
        <time>2022-08-08T11:29:18Z</time>
      </trkpt>
      <trkpt lat="44.48858" lon="1.55261">
        <ele>154.3</ele>
        <time>2022-08-08T11:29:19Z</time>
      </trkpt>
      <trkpt lat="44.4885" lon="1.55254">
        <ele>153.5</ele>
        <time>2022-08-08T11:29:21Z</time>
      </trkpt>
      <trkpt lat="44.48841" lon="1.55249">
        <ele>152.7</ele>
        <time>2022-08-08T11:29:23Z</time>
      </trkpt>
      <trkpt lat="44.48832" lon="1.55244">
        <ele>152.7</ele>
        <time>2022-08-08T11:29:25Z</time>
      </trkpt>
      <trkpt lat="44.48817" lon="1.55237">
        <ele>154.9</ele>
        <time>2022-08-08T11:29:28Z</time>
      </trkpt>
      <trkpt lat="44.48808" lon="1.55233">
        <ele>156.2</ele>
        <time>2022-08-08T11:29:30Z</time>
      </trkpt>
      <trkpt lat="44.48799" lon="1.5523">
        <ele>157.2</ele>
        <time>2022-08-08T11:29:32Z</time>
      </trkpt>
      <trkpt lat="44.48788" lon="1.55227">
        <ele>158.1</ele>
        <time>2022-08-08T11:29:34Z</time>
      </trkpt>
      <trkpt lat="44.48778" lon="1.55225">
        <ele>159.1</ele>
        <time>2022-08-08T11:29:36Z</time>
      </trkpt>
      <trkpt lat="44.48768" lon="1.55223">
        <ele>159.6</ele>
        <time>2022-08-08T11:29:38Z</time>
      </trkpt>
      <trkpt lat="44.48758" lon="1.55221">
        <ele>160.2</ele>
        <time>2022-08-08T11:29:40Z</time>
      </trkpt>
      <trkpt lat="44.48748" lon="1.5522">
        <ele>160.5</ele>
        <time>2022-08-08T11:29:42Z</time>
      </trkpt>
      <trkpt lat="44.48738" lon="1.55221">
        <ele>159.6</ele>
        <time>2022-08-08T11:29:44Z</time>
      </trkpt>
      <trkpt lat="44.48728" lon="1.55222">
        <ele>158.2</ele>
        <time>2022-08-08T11:29:46Z</time>
      </trkpt>
      <trkpt lat="44.48717" lon="1.55222">
        <ele>157.5</ele>
        <time>2022-08-08T11:29:48Z</time>
      </trkpt>
      <trkpt lat="44.48707" lon="1.55223">
        <ele>156</ele>
        <time>2022-08-08T11:29:50Z</time>
      </trkpt>
      <trkpt lat="44.48697" lon="1.55225">
        <ele>154.4</ele>
        <time>2022-08-08T11:29:52Z</time>
      </trkpt>
      <trkpt lat="44.48687" lon="1.55226">
        <ele>153</ele>
        <time>2022-08-08T11:29:54Z</time>
      </trkpt>
      <trkpt lat="44.48677" lon="1.5523">
        <ele>150.2</ele>
        <time>2022-08-08T11:29:56Z</time>
      </trkpt>
      <trkpt lat="44.48666" lon="1.55231">
        <ele>149</ele>
        <time>2022-08-08T11:29:58Z</time>
      </trkpt>
      <trkpt lat="44.48656" lon="1.55231">
        <ele>147.5</ele>
        <time>2022-08-08T11:30:00Z</time>
      </trkpt>
      <trkpt lat="44.48647" lon="1.55232">
        <ele>146.5</ele>
        <time>2022-08-08T11:30:02Z</time>
      </trkpt>
      <trkpt lat="44.48638" lon="1.55231">
        <ele>145.7</ele>
        <time>2022-08-08T11:30:04Z</time>
      </trkpt>
      <trkpt lat="44.48628" lon="1.55229">
        <ele>145.8</ele>
        <time>2022-08-08T11:30:06Z</time>
      </trkpt>
      <trkpt lat="44.48618" lon="1.55226">
        <ele>145.7</ele>
        <time>2022-08-08T11:30:08Z</time>
      </trkpt>
      <trkpt lat="44.48609" lon="1.55223">
        <ele>145.9</ele>
        <time>2022-08-08T11:30:10Z</time>
      </trkpt>
      <trkpt lat="44.48599" lon="1.55219">
        <ele>146</ele>
        <time>2022-08-08T11:30:12Z</time>
      </trkpt>
      <trkpt lat="44.4859" lon="1.55215">
        <ele>145.9</ele>
        <time>2022-08-08T11:30:14Z</time>
      </trkpt>
      <trkpt lat="44.48581" lon="1.55213">
        <ele>145.3</ele>
        <time>2022-08-08T11:30:16Z</time>
      </trkpt>
      <trkpt lat="44.48573" lon="1.55208">
        <ele>145.6</ele>
        <time>2022-08-08T11:30:18Z</time>
      </trkpt>
      <trkpt lat="44.48565" lon="1.55205">
        <ele>145.4</ele>
        <time>2022-08-08T11:30:20Z</time>
      </trkpt>
      <trkpt lat="44.48557" lon="1.55202">
        <ele>145.1</ele>
        <time>2022-08-08T11:30:22Z</time>
      </trkpt>
      <trkpt lat="44.48549" lon="1.55199">
        <ele>144.7</ele>
        <time>2022-08-08T11:30:24Z</time>
      </trkpt>
      <trkpt lat="44.48542" lon="1.55201">
        <ele>143.2</ele>
        <time>2022-08-08T11:30:26Z</time>
      </trkpt>
      <trkpt lat="44.4854" lon="1.5521">
        <ele>140.8</ele>
        <time>2022-08-08T11:30:28Z</time>
      </trkpt>
      <trkpt lat="44.48544" lon="1.55219">
        <ele>139.3</ele>
        <time>2022-08-08T11:30:30Z</time>
      </trkpt>
      <trkpt lat="44.48547" lon="1.55228">
        <ele>137.5</ele>
        <time>2022-08-08T11:30:32Z</time>
      </trkpt>
      <trkpt lat="44.48549" lon="1.55237">
        <ele>135.7</ele>
        <time>2022-08-08T11:30:34Z</time>
      </trkpt>
      <trkpt lat="44.48552" lon="1.55245">
        <ele>133.7</ele>
        <time>2022-08-08T11:30:36Z</time>
      </trkpt>
      <trkpt lat="44.48554" lon="1.55253">
        <ele>132.5</ele>
        <time>2022-08-08T11:30:38Z</time>
      </trkpt>
      <trkpt lat="44.48557" lon="1.55261">
        <ele>132.4</ele>
        <time>2022-08-08T11:30:40Z</time>
      </trkpt>
      <trkpt lat="44.4856" lon="1.55268">
        <ele>132.3</ele>
        <time>2022-08-08T11:30:42Z</time>
      </trkpt>
      <trkpt lat="44.48562" lon="1.55275">
        <ele>132.2</ele>
        <time>2022-08-08T11:30:44Z</time>
      </trkpt>
      <trkpt lat="44.48563" lon="1.55284">
        <ele>132</ele>
        <time>2022-08-08T11:30:46Z</time>
      </trkpt>
      <trkpt lat="44.48566" lon="1.55292">
        <ele>132</ele>
        <time>2022-08-08T11:30:48Z</time>
      </trkpt>
      <trkpt lat="44.48567" lon="1.55296">
        <ele>131.9</ele>
        <time>2022-08-08T11:30:50Z</time>
      </trkpt>
      <trkpt lat="44.48568" lon="1.55299">
        <ele>131.9</ele>
        <time>2022-08-08T11:30:52Z</time>
      </trkpt>
      <trkpt lat="44.48568" lon="1.55298">
        <ele>131.9</ele>
        <time>2022-08-08T11:30:54Z</time>
      </trkpt>
      <trkpt lat="44.48569" lon="1.553">
        <ele>131.9</ele>
        <time>2022-08-08T11:30:56Z</time>
      </trkpt>
      <trkpt lat="44.48571" lon="1.55303">
        <ele>131.9</ele>
        <time>2022-08-08T11:30:58Z</time>
      </trkpt>
      <trkpt lat="44.48572" lon="1.55309">
        <ele>131.9</ele>
        <time>2022-08-08T11:31:00Z</time>
      </trkpt>
      <trkpt lat="44.48569" lon="1.55311">
        <ele>131.6</ele>
        <time>2022-08-08T11:31:02Z</time>
      </trkpt>
      <trkpt lat="44.48565" lon="1.55313">
        <ele>131.3</ele>
        <time>2022-08-08T11:31:04Z</time>
      </trkpt>
      <trkpt lat="44.48564" lon="1.55314">
        <ele>131.2</ele>
        <time>2022-08-08T11:31:06Z</time>
      </trkpt>
      <trkpt lat="44.48563" lon="1.55314">
        <ele>131.1</ele>
        <time>2022-08-08T11:31:08Z</time>
      </trkpt>
      <trkpt lat="44.48559" lon="1.55316">
        <ele>130.8</ele>
        <time>2022-08-08T11:31:10Z</time>
      </trkpt>
      <trkpt lat="44.48555" lon="1.55318">
        <ele>130.4</ele>
        <time>2022-08-08T11:31:12Z</time>
      </trkpt>
      <trkpt lat="44.4855" lon="1.5532">
        <ele>130</ele>
        <time>2022-08-08T11:31:14Z</time>
      </trkpt>
      <trkpt lat="44.48545" lon="1.55322">
        <ele>129.7</ele>
        <time>2022-08-08T11:31:16Z</time>
      </trkpt>
      <trkpt lat="44.48544" lon="1.55322">
        <ele>129.6</ele>
        <time>2022-08-08T11:31:17Z</time>
      </trkpt>
      <trkpt lat="44.48544" lon="1.55322">
        <ele>129.6</ele>
        <time>2022-08-08T11:31:19Z</time>
      </trkpt>
      <trkpt lat="44.48544" lon="1.55322">
        <ele>129.6</ele>
        <time>2022-08-08T11:31:21Z</time>
      </trkpt>
      <trkpt lat="44.48545" lon="1.55322">
        <ele>129.6</ele>
        <time>2022-08-08T11:31:23Z</time>
      </trkpt>
      <trkpt lat="44.48545" lon="1.55322">
        <ele>129.6</ele>
        <time>2022-08-08T11:31:25Z</time>
      </trkpt>
      <trkpt lat="44.48566" lon="1.5532">
        <ele>131.1</ele>
        <time>2022-08-08T11:32:06Z</time>
      </trkpt>
      <trkpt lat="44.48568" lon="1.5532">
        <ele>131.3</ele>
        <time>2022-08-08T11:32:08Z</time>
      </trkpt>
      <trkpt lat="44.4857" lon="1.55323">
        <ele>131.3</ele>
        <time>2022-08-08T11:32:10Z</time>
      </trkpt>
      <trkpt lat="44.48573" lon="1.55329">
        <ele>131.4</ele>
        <time>2022-08-08T11:32:12Z</time>
      </trkpt>
      <trkpt lat="44.48575" lon="1.55337">
        <ele>131.5</ele>
        <time>2022-08-08T11:32:14Z</time>
      </trkpt>
      <trkpt lat="44.48578" lon="1.55343">
        <ele>131.8</ele>
        <time>2022-08-08T11:32:16Z</time>
      </trkpt>
      <trkpt lat="44.4858" lon="1.55349">
        <ele>132.1</ele>
        <time>2022-08-08T11:32:18Z</time>
      </trkpt>
      <trkpt lat="44.48581" lon="1.55354">
        <ele>132.3</ele>
        <time>2022-08-08T11:32:20Z</time>
      </trkpt>
      <trkpt lat="44.48583" lon="1.55358">
        <ele>132.5</ele>
        <time>2022-08-08T11:32:22Z</time>
      </trkpt>
      <trkpt lat="44.48582" lon="1.55359">
        <ele>132.6</ele>
        <time>2022-08-08T11:32:24Z</time>
      </trkpt>
      <trkpt lat="44.48584" lon="1.55363">
        <ele>132.7</ele>
        <time>2022-08-08T11:32:26Z</time>
      </trkpt>
      <trkpt lat="44.48585" lon="1.55367">
        <ele>132.9</ele>
        <time>2022-08-08T11:32:28Z</time>
      </trkpt>
      <trkpt lat="44.48587" lon="1.55371">
        <ele>133.1</ele>
        <time>2022-08-08T11:32:30Z</time>
      </trkpt>
      <trkpt lat="44.4859" lon="1.55378">
        <ele>133.5</ele>
        <time>2022-08-08T11:32:32Z</time>
      </trkpt>
      <trkpt lat="44.48592" lon="1.55388">
        <ele>133.9</ele>
        <time>2022-08-08T11:32:34Z</time>
      </trkpt>
      <trkpt lat="44.48595" lon="1.55395">
        <ele>134.3</ele>
        <time>2022-08-08T11:32:36Z</time>
      </trkpt>
      <trkpt lat="44.486" lon="1.55401">
        <ele>134.9</ele>
        <time>2022-08-08T11:32:38Z</time>
      </trkpt>
      <trkpt lat="44.48605" lon="1.55401">
        <ele>135.4</ele>
        <time>2022-08-08T11:32:40Z</time>
      </trkpt>
      <trkpt lat="44.48609" lon="1.554">
        <ele>135.7</ele>
        <time>2022-08-08T11:32:42Z</time>
      </trkpt>
      <trkpt lat="44.48613" lon="1.55399">
        <ele>135.9</ele>
        <time>2022-08-08T11:32:44Z</time>
      </trkpt>
      <trkpt lat="44.48616" lon="1.55398">
        <ele>136.1</ele>
        <time>2022-08-08T11:32:46Z</time>
      </trkpt>
      <trkpt lat="44.4862" lon="1.55397">
        <ele>136.3</ele>
        <time>2022-08-08T11:32:48Z</time>
      </trkpt>
      <trkpt lat="44.48622" lon="1.55394">
        <ele>136.3</ele>
        <time>2022-08-08T11:32:50Z</time>
      </trkpt>
      <trkpt lat="44.48622" lon="1.55387">
        <ele>135.8</ele>
        <time>2022-08-08T11:32:52Z</time>
      </trkpt>
      <trkpt lat="44.4862" lon="1.55381">
        <ele>135.3</ele>
        <time>2022-08-08T11:32:54Z</time>
      </trkpt>
      <trkpt lat="44.48619" lon="1.55373">
        <ele>134.8</ele>
        <time>2022-08-08T11:32:56Z</time>
      </trkpt>
      <trkpt lat="44.48622" lon="1.55367">
        <ele>134.5</ele>
        <time>2022-08-08T11:32:58Z</time>
      </trkpt>
      <trkpt lat="44.48621" lon="1.55361">
        <ele>134.2</ele>
        <time>2022-08-08T11:33:00Z</time>
      </trkpt>
      <trkpt lat="44.48622" lon="1.55355">
        <ele>133.8</ele>
        <time>2022-08-08T11:33:02Z</time>
      </trkpt>
      <trkpt lat="44.48621" lon="1.5535">
        <ele>133.5</ele>
        <time>2022-08-08T11:33:04Z</time>
      </trkpt>
      <trkpt lat="44.48621" lon="1.55345">
        <ele>133.2</ele>
        <time>2022-08-08T11:33:06Z</time>
      </trkpt>
      <trkpt lat="44.48621" lon="1.55346">
        <ele>133.2</ele>
        <time>2022-08-08T11:33:08Z</time>
      </trkpt>
      <trkpt lat="44.4862" lon="1.55346">
        <ele>133.2</ele>
        <time>2022-08-08T11:33:10Z</time>
      </trkpt>
      <trkpt lat="44.4862" lon="1.55346">
        <ele>133.2</ele>
        <time>2022-08-08T11:33:12Z</time>
      </trkpt>
      <trkpt lat="44.48618" lon="1.55345">
        <ele>133.1</ele>
        <time>2022-08-08T11:33:14Z</time>
      </trkpt>
      <trkpt lat="44.48611" lon="1.55347">
        <ele>133</ele>
        <time>2022-08-08T11:33:16Z</time>
      </trkpt>
      <trkpt lat="44.48605" lon="1.55347">
        <ele>132.9</ele>
        <time>2022-08-08T11:33:18Z</time>
      </trkpt>
      <trkpt lat="44.48598" lon="1.55347">
        <ele>132.7</ele>
        <time>2022-08-08T11:33:20Z</time>
      </trkpt>
      <trkpt lat="44.48594" lon="1.55352">
        <ele>132.8</ele>
        <time>2022-08-08T11:33:22Z</time>
      </trkpt>
      <trkpt lat="44.48591" lon="1.55358">
        <ele>132.9</ele>
        <time>2022-08-08T11:33:24Z</time>
      </trkpt>
      <trkpt lat="44.48582" lon="1.5536">
        <ele>132.6</ele>
        <time>2022-08-08T11:33:26Z</time>
      </trkpt>
      <trkpt lat="44.48575" lon="1.55364">
        <ele>132</ele>
        <time>2022-08-08T11:33:28Z</time>
      </trkpt>
      <trkpt lat="44.48568" lon="1.55369">
        <ele>131.5</ele>
        <time>2022-08-08T11:33:30Z</time>
      </trkpt>
      <trkpt lat="44.48565" lon="1.5537">
        <ele>131.2</ele>
        <time>2022-08-08T11:33:31Z</time>
      </trkpt>
      <trkpt lat="44.48558" lon="1.55371">
        <ele>130.6</ele>
        <time>2022-08-08T11:33:33Z</time>
      </trkpt>
      <trkpt lat="44.48547" lon="1.55372">
        <ele>129.7</ele>
        <time>2022-08-08T11:33:36Z</time>
      </trkpt>
      <trkpt lat="44.48542" lon="1.55374">
        <ele>129.3</ele>
        <time>2022-08-08T11:33:38Z</time>
      </trkpt>
      <trkpt lat="44.48537" lon="1.55372">
        <ele>128.8</ele>
        <time>2022-08-08T11:33:40Z</time>
      </trkpt>
      <trkpt lat="44.4853" lon="1.55369">
        <ele>128.2</ele>
        <time>2022-08-08T11:33:42Z</time>
      </trkpt>
      <trkpt lat="44.48525" lon="1.55363">
        <ele>127.8</ele>
        <time>2022-08-08T11:33:44Z</time>
      </trkpt>
      <trkpt lat="44.48521" lon="1.55356">
        <ele>127.5</ele>
        <time>2022-08-08T11:33:46Z</time>
      </trkpt>
      <trkpt lat="44.48519" lon="1.5535">
        <ele>127.3</ele>
        <time>2022-08-08T11:33:48Z</time>
      </trkpt>
      <trkpt lat="44.4852" lon="1.55344">
        <ele>127.4</ele>
        <time>2022-08-08T11:33:50Z</time>
      </trkpt>
      <trkpt lat="44.48522" lon="1.55339">
        <ele>127.6</ele>
        <time>2022-08-08T11:33:52Z</time>
      </trkpt>
      <trkpt lat="44.48522" lon="1.55339">
        <ele>127.6</ele>
        <time>2022-08-08T11:33:54Z</time>
      </trkpt>
      <trkpt lat="44.48522" lon="1.55339">
        <ele>127.6</ele>
        <time>2022-08-08T11:33:56Z</time>
      </trkpt>
      <trkpt lat="44.48522" lon="1.55339">
        <ele>127.6</ele>
        <time>2022-08-08T11:33:58Z</time>
      </trkpt>
      <trkpt lat="44.48522" lon="1.55339">
        <ele>127.6</ele>
        <time>2022-08-08T11:34:00Z</time>
      </trkpt>
      <trkpt lat="44.48521" lon="1.55339">
        <ele>127.5</ele>
        <time>2022-08-08T11:34:02Z</time>
      </trkpt>
      <trkpt lat="44.48491" lon="1.55349">
        <ele>125.5</ele>
        <time>2022-08-08T12:42:28Z</time>
      </trkpt>
      <trkpt lat="44.48507" lon="1.55346">
        <ele>126.4</ele>
        <time>2022-08-08T12:42:30Z</time>
      </trkpt>
      <trkpt lat="44.4852" lon="1.55362">
        <ele>127.4</ele>
        <time>2022-08-08T12:44:52Z</time>
      </trkpt>
      <trkpt lat="44.4852" lon="1.55369">
        <ele>127.4</ele>
        <time>2022-08-08T12:44:54Z</time>
      </trkpt>
      <trkpt lat="44.4852" lon="1.55374">
        <ele>127.3</ele>
        <time>2022-08-08T12:44:56Z</time>
      </trkpt>
      <trkpt lat="44.48523" lon="1.55379">
        <ele>127.6</ele>
        <time>2022-08-08T12:44:58Z</time>
      </trkpt>
      <trkpt lat="44.48525" lon="1.55384">
        <ele>127.8</ele>
        <time>2022-08-08T12:45:00Z</time>
      </trkpt>
      <trkpt lat="44.48528" lon="1.5539">
        <ele>128</ele>
        <time>2022-08-08T12:45:02Z</time>
      </trkpt>
      <trkpt lat="44.48531" lon="1.55393">
        <ele>128.3</ele>
        <time>2022-08-08T12:45:04Z</time>
      </trkpt>
      <trkpt lat="44.48534" lon="1.55396">
        <ele>128.6</ele>
        <time>2022-08-08T12:45:06Z</time>
      </trkpt>
      <trkpt lat="44.48535" lon="1.554">
        <ele>128.7</ele>
        <time>2022-08-08T12:45:08Z</time>
      </trkpt>
      <trkpt lat="44.48534" lon="1.55406">
        <ele>128.6</ele>
        <time>2022-08-08T12:45:10Z</time>
      </trkpt>
      <trkpt lat="44.48535" lon="1.55409">
        <ele>128.7</ele>
        <time>2022-08-08T12:45:12Z</time>
      </trkpt>
      <trkpt lat="44.48535" lon="1.55414">
        <ele>128.8</ele>
        <time>2022-08-08T12:45:14Z</time>
      </trkpt>
      <trkpt lat="44.48537" lon="1.55418">
        <ele>129</ele>
        <time>2022-08-08T12:45:16Z</time>
      </trkpt>
      <trkpt lat="44.48537" lon="1.55423">
        <ele>129.1</ele>
        <time>2022-08-08T12:45:18Z</time>
      </trkpt>
      <trkpt lat="44.4854" lon="1.55428">
        <ele>129.3</ele>
        <time>2022-08-08T12:45:20Z</time>
      </trkpt>
      <trkpt lat="44.48541" lon="1.55432">
        <ele>129.5</ele>
        <time>2022-08-08T12:45:22Z</time>
      </trkpt>
      <trkpt lat="44.48542" lon="1.55435">
        <ele>129.6</ele>
        <time>2022-08-08T12:45:24Z</time>
      </trkpt>
      <trkpt lat="44.48544" lon="1.55438">
        <ele>129.8</ele>
        <time>2022-08-08T12:45:26Z</time>
      </trkpt>
      <trkpt lat="44.48545" lon="1.55443">
        <ele>130</ele>
        <time>2022-08-08T12:45:28Z</time>
      </trkpt>
      <trkpt lat="44.48547" lon="1.55445">
        <ele>130.3</ele>
        <time>2022-08-08T12:45:30Z</time>
      </trkpt>
      <trkpt lat="44.4855" lon="1.55449">
        <ele>130.6</ele>
        <time>2022-08-08T12:45:32Z</time>
      </trkpt>
      <trkpt lat="44.48552" lon="1.55452">
        <ele>130.9</ele>
        <time>2022-08-08T12:45:34Z</time>
      </trkpt>
      <trkpt lat="44.48555" lon="1.55456">
        <ele>131.3</ele>
        <time>2022-08-08T12:45:36Z</time>
      </trkpt>
      <trkpt lat="44.48559" lon="1.5546">
        <ele>131.7</ele>
        <time>2022-08-08T12:45:38Z</time>
      </trkpt>
      <trkpt lat="44.48562" lon="1.55463">
        <ele>132.1</ele>
        <time>2022-08-08T12:45:40Z</time>
      </trkpt>
      <trkpt lat="44.48565" lon="1.55466">
        <ele>132.5</ele>
        <time>2022-08-08T12:45:42Z</time>
      </trkpt>
      <trkpt lat="44.48568" lon="1.5547">
        <ele>132.9</ele>
        <time>2022-08-08T12:45:44Z</time>
      </trkpt>
      <trkpt lat="44.48571" lon="1.55474">
        <ele>133.2</ele>
        <time>2022-08-08T12:45:46Z</time>
      </trkpt>
      <trkpt lat="44.48574" lon="1.55474">
        <ele>133.6</ele>
        <time>2022-08-08T12:45:48Z</time>
      </trkpt>
      <trkpt lat="44.48575" lon="1.55477">
        <ele>133.8</ele>
        <time>2022-08-08T12:45:50Z</time>
      </trkpt>
      <trkpt lat="44.48577" lon="1.55481">
        <ele>134</ele>
        <time>2022-08-08T12:45:52Z</time>
      </trkpt>
      <trkpt lat="44.48579" lon="1.55484">
        <ele>134.3</ele>
        <time>2022-08-08T12:45:54Z</time>
      </trkpt>
      <trkpt lat="44.48582" lon="1.55488">
        <ele>134.7</ele>
        <time>2022-08-08T12:45:56Z</time>
      </trkpt>
      <trkpt lat="44.48584" lon="1.55492">
        <ele>135.2</ele>
        <time>2022-08-08T12:45:58Z</time>
      </trkpt>
      <trkpt lat="44.48586" lon="1.55497">
        <ele>135.9</ele>
        <time>2022-08-08T12:46:00Z</time>
      </trkpt>
      <trkpt lat="44.48588" lon="1.55501">
        <ele>136.5</ele>
        <time>2022-08-08T12:46:02Z</time>
      </trkpt>
      <trkpt lat="44.4859" lon="1.55506">
        <ele>137.4</ele>
        <time>2022-08-08T12:46:04Z</time>
      </trkpt>
      <trkpt lat="44.48592" lon="1.55511">
        <ele>138</ele>
        <time>2022-08-08T12:46:06Z</time>
      </trkpt>
      <trkpt lat="44.48593" lon="1.55516">
        <ele>138.4</ele>
        <time>2022-08-08T12:46:08Z</time>
      </trkpt>
      <trkpt lat="44.48593" lon="1.55521">
        <ele>138.5</ele>
        <time>2022-08-08T12:46:10Z</time>
      </trkpt>
      <trkpt lat="44.48596" lon="1.55526">
        <ele>139.7</ele>
        <time>2022-08-08T12:46:12Z</time>
      </trkpt>
      <trkpt lat="44.48597" lon="1.5553">
        <ele>140.2</ele>
        <time>2022-08-08T12:46:14Z</time>
      </trkpt>
      <trkpt lat="44.48598" lon="1.55534">
        <ele>140.8</ele>
        <time>2022-08-08T12:46:16Z</time>
      </trkpt>
      <trkpt lat="44.48598" lon="1.55538">
        <ele>140.8</ele>
        <time>2022-08-08T12:46:18Z</time>
      </trkpt>
      <trkpt lat="44.48594" lon="1.5554">
        <ele>139.5</ele>
        <time>2022-08-08T12:46:20Z</time>
      </trkpt>
      <trkpt lat="44.4859" lon="1.55538">
        <ele>137.9</ele>
        <time>2022-08-08T12:46:22Z</time>
      </trkpt>
      <trkpt lat="44.48588" lon="1.55532">
        <ele>136.7</ele>
        <time>2022-08-08T12:46:24Z</time>
      </trkpt>
      <trkpt lat="44.48584" lon="1.55527">
        <ele>135.3</ele>
        <time>2022-08-08T12:46:26Z</time>
      </trkpt>
      <trkpt lat="44.4858" lon="1.5552">
        <ele>134.5</ele>
        <time>2022-08-08T12:46:28Z</time>
      </trkpt>
      <trkpt lat="44.48576" lon="1.55513">
        <ele>134.1</ele>
        <time>2022-08-08T12:46:30Z</time>
      </trkpt>
      <trkpt lat="44.4857" lon="1.55506">
        <ele>133.3</ele>
        <time>2022-08-08T12:46:32Z</time>
      </trkpt>
      <trkpt lat="44.48564" lon="1.55499">
        <ele>132.7</ele>
        <time>2022-08-08T12:46:34Z</time>
      </trkpt>
      <trkpt lat="44.48558" lon="1.55491">
        <ele>131.8</ele>
        <time>2022-08-08T12:46:36Z</time>
      </trkpt>
      <trkpt lat="44.48551" lon="1.55486">
        <ele>131</ele>
        <time>2022-08-08T12:46:38Z</time>
      </trkpt>
      <trkpt lat="44.48545" lon="1.55483">
        <ele>130.2</ele>
        <time>2022-08-08T12:46:40Z</time>
      </trkpt>
      <trkpt lat="44.48539" lon="1.55479">
        <ele>129.6</ele>
        <time>2022-08-08T12:46:42Z</time>
      </trkpt>
      <trkpt lat="44.48535" lon="1.55478">
        <ele>129</ele>
        <time>2022-08-08T12:46:44Z</time>
      </trkpt>
      <trkpt lat="44.4853" lon="1.55478">
        <ele>128.6</ele>
        <time>2022-08-08T12:46:46Z</time>
      </trkpt>
      <trkpt lat="44.48526" lon="1.55476">
        <ele>128</ele>
        <time>2022-08-08T12:46:48Z</time>
      </trkpt>
      <trkpt lat="44.48521" lon="1.55475">
        <ele>127.4</ele>
        <time>2022-08-08T12:46:50Z</time>
      </trkpt>
      <trkpt lat="44.48517" lon="1.55475">
        <ele>127</ele>
        <time>2022-08-08T12:46:52Z</time>
      </trkpt>
      <trkpt lat="44.48513" lon="1.55476">
        <ele>126.5</ele>
        <time>2022-08-08T12:46:54Z</time>
      </trkpt>
      <trkpt lat="44.48509" lon="1.55478">
        <ele>126.1</ele>
        <time>2022-08-08T12:46:56Z</time>
      </trkpt>
      <trkpt lat="44.48506" lon="1.55478">
        <ele>125.7</ele>
        <time>2022-08-08T12:46:58Z</time>
      </trkpt>
      <trkpt lat="44.48503" lon="1.55479">
        <ele>125.3</ele>
        <time>2022-08-08T12:47:00Z</time>
      </trkpt>
      <trkpt lat="44.48499" lon="1.55477">
        <ele>125</ele>
        <time>2022-08-08T12:47:02Z</time>
      </trkpt>
      <trkpt lat="44.48496" lon="1.55472">
        <ele>125</ele>
        <time>2022-08-08T12:47:04Z</time>
      </trkpt>
      <trkpt lat="44.48494" lon="1.55469">
        <ele>125</ele>
        <time>2022-08-08T12:47:06Z</time>
      </trkpt>
      <trkpt lat="44.48491" lon="1.55465">
        <ele>125</ele>
        <time>2022-08-08T12:47:08Z</time>
      </trkpt>
      <trkpt lat="44.48488" lon="1.55461">
        <ele>124.9</ele>
        <time>2022-08-08T12:47:10Z</time>
      </trkpt>
      <trkpt lat="44.48485" lon="1.55457">
        <ele>124.9</ele>
        <time>2022-08-08T12:47:12Z</time>
      </trkpt>
      <trkpt lat="44.48483" lon="1.55453">
        <ele>124.9</ele>
        <time>2022-08-08T12:47:14Z</time>
      </trkpt>
      <trkpt lat="44.4848" lon="1.55447">
        <ele>124.9</ele>
        <time>2022-08-08T12:47:16Z</time>
      </trkpt>
      <trkpt lat="44.48478" lon="1.55441">
        <ele>124.8</ele>
        <time>2022-08-08T12:47:18Z</time>
      </trkpt>
      <trkpt lat="44.48475" lon="1.55434">
        <ele>124.8</ele>
        <time>2022-08-08T12:47:20Z</time>
      </trkpt>
      <trkpt lat="44.48471" lon="1.55426">
        <ele>124.7</ele>
        <time>2022-08-08T12:47:22Z</time>
      </trkpt>
      <trkpt lat="44.48467" lon="1.55417">
        <ele>124.6</ele>
        <time>2022-08-08T12:47:24Z</time>
      </trkpt>
      <trkpt lat="44.48463" lon="1.5541">
        <ele>124.6</ele>
        <time>2022-08-08T12:47:26Z</time>
      </trkpt>
      <trkpt lat="44.48458" lon="1.55402">
        <ele>124.5</ele>
        <time>2022-08-08T12:47:28Z</time>
      </trkpt>
      <trkpt lat="44.48453" lon="1.55395">
        <ele>124.4</ele>
        <time>2022-08-08T12:47:30Z</time>
      </trkpt>
      <trkpt lat="44.48449" lon="1.55386">
        <ele>124.3</ele>
        <time>2022-08-08T12:47:32Z</time>
      </trkpt>
      <trkpt lat="44.48444" lon="1.5538">
        <ele>124.2</ele>
        <time>2022-08-08T12:47:34Z</time>
      </trkpt>
      <trkpt lat="44.4844" lon="1.55377">
        <ele>124.1</ele>
        <time>2022-08-08T12:47:36Z</time>
      </trkpt>
      <trkpt lat="44.48438" lon="1.55376">
        <ele>124</ele>
        <time>2022-08-08T12:47:38Z</time>
      </trkpt>
      <trkpt lat="44.48437" lon="1.55375">
        <ele>124</ele>
        <time>2022-08-08T12:47:40Z</time>
      </trkpt>
      <trkpt lat="44.48438" lon="1.55375">
        <ele>124</ele>
        <time>2022-08-08T12:47:42Z</time>
      </trkpt>
      <trkpt lat="44.48438" lon="1.55375">
        <ele>124</ele>
        <time>2022-08-08T12:47:44Z</time>
      </trkpt>
      <trkpt lat="44.48438" lon="1.55375">
        <ele>124</ele>
        <time>2022-08-08T12:47:48Z</time>
      </trkpt>
      <trkpt lat="44.48432" lon="1.554">
        <ele>124.1</ele>
        <time>2022-08-08T12:48:48Z</time>
      </trkpt>
      <trkpt lat="44.48434" lon="1.55402">
        <ele>124.1</ele>
        <time>2022-08-08T12:48:50Z</time>
      </trkpt>
      <trkpt lat="44.48436" lon="1.55405">
        <ele>124.2</ele>
        <time>2022-08-08T12:48:52Z</time>
      </trkpt>
      <trkpt lat="44.48438" lon="1.55409">
        <ele>124.2</ele>
        <time>2022-08-08T12:48:54Z</time>
      </trkpt>
      <trkpt lat="44.48439" lon="1.55411">
        <ele>124.2</ele>
        <time>2022-08-08T12:48:56Z</time>
      </trkpt>
      <trkpt lat="44.48441" lon="1.55413">
        <ele>124.3</ele>
        <time>2022-08-08T12:48:58Z</time>
      </trkpt>
      <trkpt lat="44.48443" lon="1.55416">
        <ele>124.3</ele>
        <time>2022-08-08T12:49:00Z</time>
      </trkpt>
      <trkpt lat="44.48445" lon="1.55422">
        <ele>124.4</ele>
        <time>2022-08-08T12:49:02Z</time>
      </trkpt>
      <trkpt lat="44.48446" lon="1.55425">
        <ele>124.4</ele>
        <time>2022-08-08T12:49:04Z</time>
      </trkpt>
      <trkpt lat="44.48446" lon="1.55428">
        <ele>124.4</ele>
        <time>2022-08-08T12:49:06Z</time>
      </trkpt>
      <trkpt lat="44.48446" lon="1.55429">
        <ele>124.4</ele>
        <time>2022-08-08T12:49:08Z</time>
      </trkpt>
      <trkpt lat="44.48446" lon="1.5543">
        <ele>124.5</ele>
        <time>2022-08-08T12:49:10Z</time>
      </trkpt>
      <trkpt lat="44.48446" lon="1.5543">
        <ele>124.5</ele>
        <time>2022-08-08T12:49:14Z</time>
      </trkpt>
      <trkpt lat="44.48453" lon="1.55449">
        <ele>124.7</ele>
        <time>2022-08-08T12:49:42Z</time>
      </trkpt>
      <trkpt lat="44.48456" lon="1.55453">
        <ele>124.7</ele>
        <time>2022-08-08T12:49:44Z</time>
      </trkpt>
      <trkpt lat="44.48459" lon="1.55457">
        <ele>124.7</ele>
        <time>2022-08-08T12:49:46Z</time>
      </trkpt>
      <trkpt lat="44.48463" lon="1.55463">
        <ele>124.8</ele>
        <time>2022-08-08T12:49:48Z</time>
      </trkpt>
      <trkpt lat="44.48465" lon="1.55469">
        <ele>124.8</ele>
        <time>2022-08-08T12:49:50Z</time>
      </trkpt>
      <trkpt lat="44.48468" lon="1.55474">
        <ele>124.9</ele>
        <time>2022-08-08T12:49:52Z</time>
      </trkpt>
      <trkpt lat="44.4847" lon="1.5548">
        <ele>124.9</ele>
        <time>2022-08-08T12:49:54Z</time>
      </trkpt>
      <trkpt lat="44.48472" lon="1.55485">
        <ele>124.9</ele>
        <time>2022-08-08T12:49:56Z</time>
      </trkpt>
      <trkpt lat="44.48475" lon="1.55491">
        <ele>125</ele>
        <time>2022-08-08T12:49:58Z</time>
      </trkpt>
      <trkpt lat="44.48476" lon="1.55498">
        <ele>125</ele>
        <time>2022-08-08T12:50:00Z</time>
      </trkpt>
      <trkpt lat="44.48477" lon="1.55503">
        <ele>124.9</ele>
        <time>2022-08-08T12:50:02Z</time>
      </trkpt>
      <trkpt lat="44.48479" lon="1.55509">
        <ele>124.8</ele>
        <time>2022-08-08T12:50:04Z</time>
      </trkpt>
      <trkpt lat="44.48482" lon="1.55514">
        <ele>124.7</ele>
        <time>2022-08-08T12:50:06Z</time>
      </trkpt>
      <trkpt lat="44.48484" lon="1.55521">
        <ele>124.6</ele>
        <time>2022-08-08T12:50:08Z</time>
      </trkpt>
      <trkpt lat="44.48486" lon="1.55527">
        <ele>124.5</ele>
        <time>2022-08-08T12:50:10Z</time>
      </trkpt>
      <trkpt lat="44.48488" lon="1.55533">
        <ele>124.3</ele>
        <time>2022-08-08T12:50:12Z</time>
      </trkpt>
      <trkpt lat="44.4849" lon="1.55538">
        <ele>124.2</ele>
        <time>2022-08-08T12:50:14Z</time>
      </trkpt>
      <trkpt lat="44.48492" lon="1.55544">
        <ele>124</ele>
        <time>2022-08-08T12:50:16Z</time>
      </trkpt>
      <trkpt lat="44.48495" lon="1.55552">
        <ele>123.8</ele>
        <time>2022-08-08T12:50:18Z</time>
      </trkpt>
      <trkpt lat="44.48497" lon="1.55556">
        <ele>123.7</ele>
        <time>2022-08-08T12:50:20Z</time>
      </trkpt>
      <trkpt lat="44.48499" lon="1.55562">
        <ele>123.5</ele>
        <time>2022-08-08T12:50:22Z</time>
      </trkpt>
      <trkpt lat="44.48502" lon="1.55568">
        <ele>123.6</ele>
        <time>2022-08-08T12:50:24Z</time>
      </trkpt>
      <trkpt lat="44.48503" lon="1.55573">
        <ele>123.7</ele>
        <time>2022-08-08T12:50:26Z</time>
      </trkpt>
      <trkpt lat="44.48505" lon="1.55578">
        <ele>123.8</ele>
        <time>2022-08-08T12:50:28Z</time>
      </trkpt>
      <trkpt lat="44.48506" lon="1.55584">
        <ele>123.9</ele>
        <time>2022-08-08T12:50:30Z</time>
      </trkpt>
      <trkpt lat="44.4851" lon="1.5559">
        <ele>124.5</ele>
        <time>2022-08-08T12:50:32Z</time>
      </trkpt>
      <trkpt lat="44.48512" lon="1.55595">
        <ele>124.9</ele>
        <time>2022-08-08T12:50:34Z</time>
      </trkpt>
      <trkpt lat="44.48513" lon="1.556">
        <ele>125.1</ele>
        <time>2022-08-08T12:50:36Z</time>
      </trkpt>
      <trkpt lat="44.48517" lon="1.55605">
        <ele>125.6</ele>
        <time>2022-08-08T12:50:38Z</time>
      </trkpt>
      <trkpt lat="44.48519" lon="1.55611">
        <ele>125.9</ele>
        <time>2022-08-08T12:50:40Z</time>
      </trkpt>
      <trkpt lat="44.48521" lon="1.55617">
        <ele>126.1</ele>
        <time>2022-08-08T12:50:42Z</time>
      </trkpt>
      <trkpt lat="44.48524" lon="1.55621">
        <ele>126.5</ele>
        <time>2022-08-08T12:50:44Z</time>
      </trkpt>
      <trkpt lat="44.48525" lon="1.55628">
        <ele>126.5</ele>
        <time>2022-08-08T12:50:46Z</time>
      </trkpt>
      <trkpt lat="44.48526" lon="1.55631">
        <ele>126.6</ele>
        <time>2022-08-08T12:50:48Z</time>
      </trkpt>
      <trkpt lat="44.48526" lon="1.55636">
        <ele>126.6</ele>
        <time>2022-08-08T12:50:50Z</time>
      </trkpt>
      <trkpt lat="44.48526" lon="1.55641">
        <ele>126.6</ele>
        <time>2022-08-08T12:50:52Z</time>
      </trkpt>
      <trkpt lat="44.48527" lon="1.55647">
        <ele>126.7</ele>
        <time>2022-08-08T12:50:54Z</time>
      </trkpt>
      <trkpt lat="44.48528" lon="1.55651">
        <ele>126.7</ele>
        <time>2022-08-08T12:50:56Z</time>
      </trkpt>
      <trkpt lat="44.48529" lon="1.55656">
        <ele>126.8</ele>
        <time>2022-08-08T12:50:58Z</time>
      </trkpt>
      <trkpt lat="44.48529" lon="1.55662">
        <ele>126.8</ele>
        <time>2022-08-08T12:51:00Z</time>
      </trkpt>
      <trkpt lat="44.48531" lon="1.55666">
        <ele>126.9</ele>
        <time>2022-08-08T12:51:02Z</time>
      </trkpt>
      <trkpt lat="44.48533" lon="1.5567">
        <ele>126.9</ele>
        <time>2022-08-08T12:51:04Z</time>
      </trkpt>
      <trkpt lat="44.48535" lon="1.55675">
        <ele>126.9</ele>
        <time>2022-08-08T12:51:06Z</time>
      </trkpt>
      <trkpt lat="44.48536" lon="1.55679">
        <ele>126.9</ele>
        <time>2022-08-08T12:51:08Z</time>
      </trkpt>
      <trkpt lat="44.48536" lon="1.55684">
        <ele>126.8</ele>
        <time>2022-08-08T12:51:10Z</time>
      </trkpt>
      <trkpt lat="44.48536" lon="1.55685">
        <ele>126.8</ele>
        <time>2022-08-08T12:51:12Z</time>
      </trkpt>
      <trkpt lat="44.48536" lon="1.55685">
        <ele>126.8</ele>
        <time>2022-08-08T12:51:14Z</time>
      </trkpt>
      <trkpt lat="44.48536" lon="1.55685">
        <ele>126.7</ele>
        <time>2022-08-08T12:51:16Z</time>
      </trkpt>
      <trkpt lat="44.48536" lon="1.55685">
        <ele>126.8</ele>
        <time>2022-08-08T12:51:18Z</time>
      </trkpt>
    </trkseg>
      <trkpt lat="44.48517" lon="1.556">
        <ele>125.6</ele>
        <time>2022-08-10T04:49:37Z</time>
      </trkpt>
      <trkpt lat="44.48513" lon="1.55621">
        <ele>125.3</ele>
        <time>2022-08-10T04:49:38Z</time>
      </trkpt>
      <trkpt lat="44.48506" lon="1.55601">
        <ele>124.3</ele>
        <time>2022-08-10T04:49:44Z</time>
      </trkpt>
      <trkpt lat="44.48508" lon="1.55586">
        <ele>124.2</ele>
        <time>2022-08-10T04:49:46Z</time>
      </trkpt>
      <trkpt lat="44.48501" lon="1.5559">
        <ele>123.3</ele>
        <time>2022-08-10T04:49:49Z</time>
      </trkpt>
      <trkpt lat="44.48501" lon="1.55579">
        <ele>123.2</ele>
        <time>2022-08-10T04:49:51Z</time>
      </trkpt>
      <trkpt lat="44.48501" lon="1.55571">
        <ele>123.4</ele>
        <time>2022-08-10T04:49:53Z</time>
      </trkpt>
      <trkpt lat="44.485" lon="1.55563">
        <ele>123.5</ele>
        <time>2022-08-10T04:49:55Z</time>
      </trkpt>
      <trkpt lat="44.48498" lon="1.55557">
        <ele>123.7</ele>
        <time>2022-08-10T04:49:57Z</time>
      </trkpt>
      <trkpt lat="44.48497" lon="1.55551">
        <ele>123.8</ele>
        <time>2022-08-10T04:49:59Z</time>
      </trkpt>
      <trkpt lat="44.48492" lon="1.55541">
        <ele>124.1</ele>
        <time>2022-08-10T04:50:01Z</time>
      </trkpt>
      <trkpt lat="44.48489" lon="1.55535">
        <ele>124.3</ele>
        <time>2022-08-10T04:50:03Z</time>
      </trkpt>
      <trkpt lat="44.48488" lon="1.5553">
        <ele>124.4</ele>
        <time>2022-08-10T04:50:05Z</time>
      </trkpt>
      <trkpt lat="44.48485" lon="1.55524">
        <ele>124.5</ele>
        <time>2022-08-10T04:50:07Z</time>
      </trkpt>
      <trkpt lat="44.48483" lon="1.55519">
        <ele>124.6</ele>
        <time>2022-08-10T04:50:09Z</time>
      </trkpt>
      <trkpt lat="44.48482" lon="1.55514">
        <ele>124.7</ele>
        <time>2022-08-10T04:50:11Z</time>
      </trkpt>
      <trkpt lat="44.48481" lon="1.55509">
        <ele>124.8</ele>
        <time>2022-08-10T04:50:13Z</time>
      </trkpt>
      <trkpt lat="44.4848" lon="1.55505">
        <ele>124.9</ele>
        <time>2022-08-10T04:50:15Z</time>
      </trkpt>
      <trkpt lat="44.48479" lon="1.555">
        <ele>125</ele>
        <time>2022-08-10T04:50:17Z</time>
      </trkpt>
      <trkpt lat="44.48477" lon="1.55495">
        <ele>125</ele>
        <time>2022-08-10T04:50:19Z</time>
      </trkpt>
      <trkpt lat="44.48475" lon="1.55489">
        <ele>125</ele>
        <time>2022-08-10T04:50:21Z</time>
      </trkpt>
      <trkpt lat="44.48473" lon="1.55485">
        <ele>124.9</ele>
        <time>2022-08-10T04:50:23Z</time>
      </trkpt>
      <trkpt lat="44.4847" lon="1.5548">
        <ele>124.9</ele>
        <time>2022-08-10T04:50:25Z</time>
      </trkpt>
      <trkpt lat="44.48467" lon="1.55476">
        <ele>124.9</ele>
        <time>2022-08-10T04:50:27Z</time>
      </trkpt>
      <trkpt lat="44.48465" lon="1.5547">
        <ele>124.9</ele>
        <time>2022-08-10T04:50:29Z</time>
      </trkpt>
      <trkpt lat="44.48463" lon="1.55465">
        <ele>124.8</ele>
        <time>2022-08-10T04:50:31Z</time>
      </trkpt>
      <trkpt lat="44.4846" lon="1.5546">
        <ele>124.8</ele>
        <time>2022-08-10T04:50:33Z</time>
      </trkpt>
      <trkpt lat="44.48459" lon="1.55455">
        <ele>124.7</ele>
        <time>2022-08-10T04:50:35Z</time>
      </trkpt>
      <trkpt lat="44.48458" lon="1.5545">
        <ele>124.7</ele>
        <time>2022-08-10T04:50:37Z</time>
      </trkpt>
      <trkpt lat="44.48456" lon="1.55446">
        <ele>124.7</ele>
        <time>2022-08-10T04:50:39Z</time>
      </trkpt>
      <trkpt lat="44.48453" lon="1.55443">
        <ele>124.6</ele>
        <time>2022-08-10T04:50:41Z</time>
      </trkpt>
      <trkpt lat="44.48451" lon="1.55439">
        <ele>124.6</ele>
        <time>2022-08-10T04:50:43Z</time>
      </trkpt>
      <trkpt lat="44.4845" lon="1.55434">
        <ele>124.5</ele>
        <time>2022-08-10T04:50:45Z</time>
      </trkpt>
      <trkpt lat="44.48452" lon="1.5543">
        <ele>124.5</ele>
        <time>2022-08-10T04:50:47Z</time>
      </trkpt>
      <trkpt lat="44.48454" lon="1.55428">
        <ele>124.5</ele>
        <time>2022-08-10T04:50:49Z</time>
      </trkpt>
      <trkpt lat="44.48454" lon="1.55429">
        <ele>124.5</ele>
        <time>2022-08-10T04:50:51Z</time>
      </trkpt>
      <trkpt lat="44.48454" lon="1.55428">
        <ele>124.5</ele>
        <time>2022-08-10T04:50:53Z</time>
      </trkpt>
      <trkpt lat="44.48454" lon="1.55428">
        <ele>124.5</ele>
        <time>2022-08-10T04:50:55Z</time>
      </trkpt>
      <trkpt lat="44.48454" lon="1.55428">
        <ele>124.5</ele>
        <time>2022-08-10T04:50:57Z</time>
      </trkpt>
      <trkpt lat="44.48436" lon="1.55384">
        <ele>124</ele>
        <time>2022-08-10T04:58:53Z</time>
      </trkpt>
      <trkpt lat="44.48441" lon="1.5538">
        <ele>124.1</ele>
        <time>2022-08-10T04:58:55Z</time>
      </trkpt>
      <trkpt lat="44.48446" lon="1.5538">
        <ele>124.2</ele>
        <time>2022-08-10T04:58:57Z</time>
      </trkpt>
      <trkpt lat="44.48451" lon="1.55385">
        <ele>124.3</ele>
        <time>2022-08-10T04:58:59Z</time>
      </trkpt>
      <trkpt lat="44.48453" lon="1.55389">
        <ele>124.4</ele>
        <time>2022-08-10T04:59:01Z</time>
      </trkpt>
      <trkpt lat="44.48455" lon="1.55393">
        <ele>124.4</ele>
        <time>2022-08-10T04:59:03Z</time>
      </trkpt>
      <trkpt lat="44.48458" lon="1.55398">
        <ele>124.5</ele>
        <time>2022-08-10T04:59:05Z</time>
      </trkpt>
      <trkpt lat="44.4846" lon="1.55401">
        <ele>124.5</ele>
        <time>2022-08-10T04:59:07Z</time>
      </trkpt>
      <trkpt lat="44.48462" lon="1.55405">
        <ele>124.6</ele>
        <time>2022-08-10T04:59:09Z</time>
      </trkpt>
      <trkpt lat="44.48464" lon="1.55409">
        <ele>124.6</ele>
        <time>2022-08-10T04:59:11Z</time>
      </trkpt>
      <trkpt lat="44.48465" lon="1.55411">
        <ele>124.6</ele>
        <time>2022-08-10T04:59:13Z</time>
      </trkpt>
      <trkpt lat="44.48467" lon="1.55414">
        <ele>124.6</ele>
        <time>2022-08-10T04:59:15Z</time>
      </trkpt>
      <trkpt lat="44.48469" lon="1.55418">
        <ele>124.6</ele>
        <time>2022-08-10T04:59:17Z</time>
      </trkpt>
      <trkpt lat="44.48471" lon="1.55421">
        <ele>124.7</ele>
        <time>2022-08-10T04:59:19Z</time>
      </trkpt>
      <trkpt lat="44.48478" lon="1.55438">
        <ele>124.8</ele>
        <time>2022-08-10T04:59:29Z</time>
      </trkpt>
      <trkpt lat="44.4848" lon="1.55442">
        <ele>124.8</ele>
        <time>2022-08-10T04:59:31Z</time>
      </trkpt>
      <trkpt lat="44.48481" lon="1.55446">
        <ele>124.9</ele>
        <time>2022-08-10T04:59:33Z</time>
      </trkpt>
      <trkpt lat="44.48483" lon="1.55449">
        <ele>124.9</ele>
        <time>2022-08-10T04:59:35Z</time>
      </trkpt>
      <trkpt lat="44.48485" lon="1.55451">
        <ele>124.9</ele>
        <time>2022-08-10T04:59:37Z</time>
      </trkpt>
      <trkpt lat="44.48487" lon="1.55454">
        <ele>124.9</ele>
        <time>2022-08-10T04:59:39Z</time>
      </trkpt>
      <trkpt lat="44.48488" lon="1.55458">
        <ele>124.9</ele>
        <time>2022-08-10T04:59:41Z</time>
      </trkpt>
      <trkpt lat="44.4849" lon="1.55462">
        <ele>124.9</ele>
        <time>2022-08-10T04:59:43Z</time>
      </trkpt>
      <trkpt lat="44.48491" lon="1.55465">
        <ele>125</ele>
        <time>2022-08-10T04:59:45Z</time>
      </trkpt>
      <trkpt lat="44.48494" lon="1.55467">
        <ele>125</ele>
        <time>2022-08-10T04:59:47Z</time>
      </trkpt>
      <trkpt lat="44.48497" lon="1.55468">
        <ele>125</ele>
        <time>2022-08-10T04:59:49Z</time>
      </trkpt>
      <trkpt lat="44.48499" lon="1.55471">
        <ele>125</ele>
        <time>2022-08-10T04:59:51Z</time>
      </trkpt>
      <trkpt lat="44.48502" lon="1.55472">
        <ele>125.2</ele>
        <time>2022-08-10T04:59:53Z</time>
      </trkpt>
      <trkpt lat="44.48505" lon="1.55474">
        <ele>125.5</ele>
        <time>2022-08-10T04:59:55Z</time>
      </trkpt>
      <trkpt lat="44.48507" lon="1.55475">
        <ele>125.9</ele>
        <time>2022-08-10T04:59:57Z</time>
      </trkpt>
      <trkpt lat="44.4851" lon="1.55475">
        <ele>126.2</ele>
        <time>2022-08-10T04:59:59Z</time>
      </trkpt>
      <trkpt lat="44.48513" lon="1.55473">
        <ele>126.5</ele>
        <time>2022-08-10T05:00:01Z</time>
      </trkpt>
      <trkpt lat="44.48516" lon="1.55473">
        <ele>126.9</ele>
        <time>2022-08-10T05:00:03Z</time>
      </trkpt>
      <trkpt lat="44.4852" lon="1.55473">
        <ele>127.3</ele>
        <time>2022-08-10T05:00:05Z</time>
      </trkpt>
      <trkpt lat="44.48522" lon="1.55474">
        <ele>127.6</ele>
        <time>2022-08-10T05:00:07Z</time>
      </trkpt>
      <trkpt lat="44.48526" lon="1.55474">
        <ele>128</ele>
        <time>2022-08-10T05:00:09Z</time>
      </trkpt>
      <trkpt lat="44.4853" lon="1.55476">
        <ele>128.5</ele>
        <time>2022-08-10T05:00:11Z</time>
      </trkpt>
      <trkpt lat="44.48535" lon="1.55477">
        <ele>129.1</ele>
        <time>2022-08-10T05:00:13Z</time>
      </trkpt>
      <trkpt lat="44.48539" lon="1.55479">
        <ele>129.5</ele>
        <time>2022-08-10T05:00:15Z</time>
      </trkpt>
      <trkpt lat="44.48543" lon="1.55481">
        <ele>130</ele>
        <time>2022-08-10T05:00:17Z</time>
      </trkpt>
      <trkpt lat="44.48547" lon="1.55485">
        <ele>130.5</ele>
        <time>2022-08-10T05:00:19Z</time>
      </trkpt>
      <trkpt lat="44.4855" lon="1.55488">
        <ele>130.9</ele>
        <time>2022-08-10T05:00:21Z</time>
      </trkpt>
      <trkpt lat="44.48554" lon="1.5549">
        <ele>131.4</ele>
        <time>2022-08-10T05:00:23Z</time>
      </trkpt>
      <trkpt lat="44.48558" lon="1.55492">
        <ele>131.9</ele>
        <time>2022-08-10T05:00:25Z</time>
      </trkpt>
      <trkpt lat="44.48562" lon="1.55495">
        <ele>132.3</ele>
        <time>2022-08-10T05:00:27Z</time>
      </trkpt>
      <trkpt lat="44.48564" lon="1.55498">
        <ele>132.7</ele>
        <time>2022-08-10T05:00:29Z</time>
      </trkpt>
      <trkpt lat="44.48568" lon="1.55503">
        <ele>133.1</ele>
        <time>2022-08-10T05:00:31Z</time>
      </trkpt>
      <trkpt lat="44.48571" lon="1.55508">
        <ele>133.5</ele>
        <time>2022-08-10T05:00:33Z</time>
      </trkpt>
      <trkpt lat="44.48574" lon="1.55513">
        <ele>133.9</ele>
        <time>2022-08-10T05:00:35Z</time>
      </trkpt>
      <trkpt lat="44.48577" lon="1.55518">
        <ele>134.2</ele>
        <time>2022-08-10T05:00:37Z</time>
      </trkpt>
      <trkpt lat="44.48579" lon="1.55523">
        <ele>134.4</ele>
        <time>2022-08-10T05:00:39Z</time>
      </trkpt>
      <trkpt lat="44.48582" lon="1.55528">
        <ele>134.8</ele>
        <time>2022-08-10T05:00:41Z</time>
      </trkpt>
      <trkpt lat="44.48584" lon="1.55532">
        <ele>135.4</ele>
        <time>2022-08-10T05:00:43Z</time>
      </trkpt>
      <trkpt lat="44.48588" lon="1.55536">
        <ele>136.7</ele>
        <time>2022-08-10T05:00:45Z</time>
      </trkpt>
      <trkpt lat="44.4859" lon="1.55541">
        <ele>137.7</ele>
        <time>2022-08-10T05:00:47Z</time>
      </trkpt>
      <trkpt lat="44.48593" lon="1.55545">
        <ele>139</ele>
        <time>2022-08-10T05:00:49Z</time>
      </trkpt>
      <trkpt lat="44.48595" lon="1.55549">
        <ele>140</ele>
        <time>2022-08-10T05:00:51Z</time>
      </trkpt>
      <trkpt lat="44.48597" lon="1.55553">
        <ele>141</ele>
        <time>2022-08-10T05:00:53Z</time>
      </trkpt>
      <trkpt lat="44.486" lon="1.55557">
        <ele>142.3</ele>
        <time>2022-08-10T05:00:55Z</time>
      </trkpt>
      <trkpt lat="44.48603" lon="1.55559">
        <ele>143.8</ele>
        <time>2022-08-10T05:00:57Z</time>
      </trkpt>
      <trkpt lat="44.48607" lon="1.5556">
        <ele>145.7</ele>
        <time>2022-08-10T05:00:59Z</time>
      </trkpt>
      <trkpt lat="44.4861" lon="1.55562">
        <ele>147.2</ele>
        <time>2022-08-10T05:01:01Z</time>
      </trkpt>
      <trkpt lat="44.48614" lon="1.55564">
        <ele>148.9</ele>
        <time>2022-08-10T05:01:03Z</time>
      </trkpt>
      <trkpt lat="44.48618" lon="1.55566">
        <ele>150.9</ele>
        <time>2022-08-10T05:01:05Z</time>
      </trkpt>
      <trkpt lat="44.48621" lon="1.55566">
        <ele>152.1</ele>
        <time>2022-08-10T05:01:07Z</time>
      </trkpt>
      <trkpt lat="44.48623" lon="1.55564">
        <ele>152.8</ele>
        <time>2022-08-10T05:01:09Z</time>
      </trkpt>
      <trkpt lat="44.48625" lon="1.55561">
        <ele>153.5</ele>
        <time>2022-08-10T05:01:11Z</time>
      </trkpt>
      <trkpt lat="44.48625" lon="1.55557">
        <ele>153.4</ele>
        <time>2022-08-10T05:01:13Z</time>
      </trkpt>
      <trkpt lat="44.48624" lon="1.55551">
        <ele>152.5</ele>
        <time>2022-08-10T05:01:15Z</time>
      </trkpt>
      <trkpt lat="44.48622" lon="1.55546">
        <ele>151.2</ele>
        <time>2022-08-10T05:01:17Z</time>
      </trkpt>
      <trkpt lat="44.48621" lon="1.5554">
        <ele>150.3</ele>
        <time>2022-08-10T05:01:19Z</time>
      </trkpt>
      <trkpt lat="44.48621" lon="1.55535">
        <ele>149.7</ele>
        <time>2022-08-10T05:01:21Z</time>
      </trkpt>
      <trkpt lat="44.48619" lon="1.55532">
        <ele>148.7</ele>
        <time>2022-08-10T05:01:23Z</time>
      </trkpt>
      <trkpt lat="44.48619" lon="1.5553">
        <ele>148.7</ele>
        <time>2022-08-10T05:01:25Z</time>
      </trkpt>
      <trkpt lat="44.48617" lon="1.55524">
        <ele>147.7</ele>
        <time>2022-08-10T05:01:27Z</time>
      </trkpt>
      <trkpt lat="44.48616" lon="1.55519">
        <ele>147</ele>
        <time>2022-08-10T05:01:29Z</time>
      </trkpt>
      <trkpt lat="44.48615" lon="1.55515">
        <ele>146.2</ele>
        <time>2022-08-10T05:01:31Z</time>
      </trkpt>
      <trkpt lat="44.48613" lon="1.5551">
        <ele>145.4</ele>
        <time>2022-08-10T05:01:33Z</time>
      </trkpt>
      <trkpt lat="44.48613" lon="1.55507">
        <ele>145.1</ele>
        <time>2022-08-10T05:01:35Z</time>
      </trkpt>
      <trkpt lat="44.48613" lon="1.55502">
        <ele>144.6</ele>
        <time>2022-08-10T05:01:37Z</time>
      </trkpt>
      <trkpt lat="44.48612" lon="1.555">
        <ele>144.3</ele>
        <time>2022-08-10T05:01:39Z</time>
      </trkpt>
      <trkpt lat="44.48612" lon="1.55497">
        <ele>144</ele>
        <time>2022-08-10T05:01:41Z</time>
      </trkpt>
      <trkpt lat="44.48612" lon="1.55497">
        <ele>144.1</ele>
        <time>2022-08-10T05:01:43Z</time>
      </trkpt>
      <trkpt lat="44.48612" lon="1.55497">
        <ele>144.1</ele>
        <time>2022-08-10T05:01:45Z</time>
      </trkpt>
      <trkpt lat="44.48619" lon="1.55503">
        <ele>146.7</ele>
        <time>2022-08-10T05:03:33Z</time>
      </trkpt>
      <trkpt lat="44.48618" lon="1.55508">
        <ele>146.8</ele>
        <time>2022-08-10T05:03:35Z</time>
      </trkpt>
      <trkpt lat="44.48619" lon="1.55514">
        <ele>147.4</ele>
        <time>2022-08-10T05:03:37Z</time>
      </trkpt>
      <trkpt lat="44.48618" lon="1.55519">
        <ele>147.7</ele>
        <time>2022-08-10T05:03:39Z</time>
      </trkpt>
      <trkpt lat="44.48619" lon="1.55526">
        <ele>148.5</ele>
        <time>2022-08-10T05:03:41Z</time>
      </trkpt>
      <trkpt lat="44.48621" lon="1.55532">
        <ele>149.5</ele>
        <time>2022-08-10T05:03:43Z</time>
      </trkpt>
      <trkpt lat="44.48621" lon="1.55538">
        <ele>150.3</ele>
        <time>2022-08-10T05:03:45Z</time>
      </trkpt>
      <trkpt lat="44.4862" lon="1.55545">
        <ele>150.4</ele>
        <time>2022-08-10T05:03:47Z</time>
      </trkpt>
      <trkpt lat="44.48618" lon="1.55552">
        <ele>149.7</ele>
        <time>2022-08-10T05:03:49Z</time>
      </trkpt>
      <trkpt lat="44.48613" lon="1.55557">
        <ele>148</ele>
        <time>2022-08-10T05:03:51Z</time>
      </trkpt>
      <trkpt lat="44.48605" lon="1.55559">
        <ele>144.7</ele>
        <time>2022-08-10T05:03:53Z</time>
      </trkpt>
      <trkpt lat="44.48597" lon="1.55552">
        <ele>140.8</ele>
        <time>2022-08-10T05:03:55Z</time>
      </trkpt>
      <trkpt lat="44.48593" lon="1.55541">
        <ele>139.1</ele>
        <time>2022-08-10T05:03:57Z</time>
      </trkpt>
      <trkpt lat="44.48592" lon="1.55531">
        <ele>138.2</ele>
        <time>2022-08-10T05:03:59Z</time>
      </trkpt>
      <trkpt lat="44.48589" lon="1.55519">
        <ele>137.2</ele>
        <time>2022-08-10T05:04:01Z</time>
      </trkpt>
      <trkpt lat="44.48586" lon="1.55505">
        <ele>135.9</ele>
        <time>2022-08-10T05:04:03Z</time>
      </trkpt>
      <trkpt lat="44.48582" lon="1.5549">
        <ele>134.7</ele>
        <time>2022-08-10T05:04:05Z</time>
      </trkpt>
      <trkpt lat="44.48574" lon="1.55476">
        <ele>133.7</ele>
        <time>2022-08-10T05:04:07Z</time>
      </trkpt>
      <trkpt lat="44.48565" lon="1.55465">
        <ele>132.4</ele>
        <time>2022-08-10T05:04:09Z</time>
      </trkpt>
      <trkpt lat="44.48555" lon="1.55454">
        <ele>131.2</ele>
        <time>2022-08-10T05:04:11Z</time>
      </trkpt>
      <trkpt lat="44.48547" lon="1.55441">
        <ele>130.2</ele>
        <time>2022-08-10T05:04:13Z</time>
      </trkpt>
      <trkpt lat="44.48539" lon="1.55428">
        <ele>129.3</ele>
        <time>2022-08-10T05:04:15Z</time>
      </trkpt>
      <trkpt lat="44.48535" lon="1.55415">
        <ele>128.8</ele>
        <time>2022-08-10T05:04:17Z</time>
      </trkpt>
      <trkpt lat="44.48533" lon="1.55402">
        <ele>128.6</ele>
        <time>2022-08-10T05:04:19Z</time>
      </trkpt>
      <trkpt lat="44.48528" lon="1.55397">
        <ele>128.1</ele>
        <time>2022-08-10T05:04:21Z</time>
      </trkpt>
      <trkpt lat="44.48522" lon="1.55398">
        <ele>127.5</ele>
        <time>2022-08-10T05:04:23Z</time>
      </trkpt>
      <trkpt lat="44.48516" lon="1.55396">
        <ele>126.9</ele>
        <time>2022-08-10T05:04:25Z</time>
      </trkpt>
      <trkpt lat="44.48512" lon="1.5539">
        <ele>126.5</ele>
        <time>2022-08-10T05:04:27Z</time>
      </trkpt>
      <trkpt lat="44.48508" lon="1.55384">
        <ele>126.1</ele>
        <time>2022-08-10T05:04:29Z</time>
      </trkpt>
      <trkpt lat="44.48504" lon="1.55375">
        <ele>125.9</ele>
        <time>2022-08-10T05:04:31Z</time>
      </trkpt>
      <trkpt lat="44.48499" lon="1.55366">
        <ele>125.6</ele>
        <time>2022-08-10T05:04:33Z</time>
      </trkpt>
      <trkpt lat="44.48495" lon="1.55356">
        <ele>125.6</ele>
        <time>2022-08-10T05:04:35Z</time>
      </trkpt>
      <trkpt lat="44.48491" lon="1.55348">
        <ele>125.5</ele>
        <time>2022-08-10T05:04:37Z</time>
      </trkpt>
      <trkpt lat="44.48491" lon="1.55343">
        <ele>125.6</ele>
        <time>2022-08-10T05:04:39Z</time>
      </trkpt>
      <trkpt lat="44.48488" lon="1.55337">
        <ele>125.5</ele>
        <time>2022-08-10T05:04:41Z</time>
      </trkpt>
      <trkpt lat="44.48486" lon="1.5533">
        <ele>125.6</ele>
        <time>2022-08-10T05:04:43Z</time>
      </trkpt>
      <trkpt lat="44.48487" lon="1.55326">
        <ele>125.9</ele>
        <time>2022-08-10T05:04:45Z</time>
      </trkpt>
      <trkpt lat="44.48489" lon="1.55323">
        <ele>126.1</ele>
        <time>2022-08-10T05:04:47Z</time>
      </trkpt>
      <trkpt lat="44.48492" lon="1.55323">
        <ele>126.2</ele>
        <time>2022-08-10T05:04:49Z</time>
      </trkpt>
      <trkpt lat="44.48493" lon="1.55324">
        <ele>126.2</ele>
        <time>2022-08-10T05:04:51Z</time>
      </trkpt>
      <trkpt lat="44.48493" lon="1.55324">
        <ele>126.2</ele>
        <time>2022-08-10T05:04:53Z</time>
      </trkpt>
      <trkpt lat="44.48493" lon="1.55325">
        <ele>126.2</ele>
        <time>2022-08-10T05:04:55Z</time>
      </trkpt>
      <trkpt lat="44.48493" lon="1.55324">
        <ele>126.2</ele>
        <time>2022-08-10T05:04:57Z</time>
      </trkpt>
      <trkpt lat="44.48494" lon="1.55324">
        <ele>126.2</ele>
        <time>2022-08-10T05:04:59Z</time>
      </trkpt>
      <trkpt lat="44.48533" lon="1.55399">
        <ele>128.6</ele>
        <time>2022-08-10T05:43:09Z</time>
      </trkpt>
      <trkpt lat="44.48533" lon="1.55405">
        <ele>128.6</ele>
        <time>2022-08-10T05:43:11Z</time>
      </trkpt>
      <trkpt lat="44.48534" lon="1.55411">
        <ele>128.7</ele>
        <time>2022-08-10T05:43:13Z</time>
      </trkpt>
      <trkpt lat="44.48536" lon="1.55417">
        <ele>128.9</ele>
        <time>2022-08-10T05:43:15Z</time>
      </trkpt>
      <trkpt lat="44.48538" lon="1.55423">
        <ele>129.1</ele>
        <time>2022-08-10T05:43:17Z</time>
      </trkpt>
      <trkpt lat="44.4854" lon="1.55428">
        <ele>129.4</ele>
        <time>2022-08-10T05:43:19Z</time>
      </trkpt>
      <trkpt lat="44.48543" lon="1.55434">
        <ele>129.7</ele>
        <time>2022-08-10T05:43:21Z</time>
      </trkpt>
      <trkpt lat="44.48545" lon="1.55439">
        <ele>130</ele>
        <time>2022-08-10T05:43:23Z</time>
      </trkpt>
      <trkpt lat="44.48548" lon="1.55444">
        <ele>130.4</ele>
        <time>2022-08-10T05:43:25Z</time>
      </trkpt>
      <trkpt lat="44.48551" lon="1.55449">
        <ele>130.8</ele>
        <time>2022-08-10T05:43:27Z</time>
      </trkpt>
      <trkpt lat="44.48555" lon="1.55454">
        <ele>131.2</ele>
        <time>2022-08-10T05:43:29Z</time>
      </trkpt>
      <trkpt lat="44.48559" lon="1.55459">
        <ele>131.7</ele>
        <time>2022-08-10T05:43:31Z</time>
      </trkpt>
      <trkpt lat="44.48562" lon="1.55464">
        <ele>132.2</ele>
        <time>2022-08-10T05:43:33Z</time>
      </trkpt>
      <trkpt lat="44.48567" lon="1.55469">
        <ele>132.7</ele>
        <time>2022-08-10T05:43:35Z</time>
      </trkpt>
      <trkpt lat="44.4857" lon="1.55473">
        <ele>133.1</ele>
        <time>2022-08-10T05:43:37Z</time>
      </trkpt>
      <trkpt lat="44.48573" lon="1.55476">
        <ele>133.5</ele>
        <time>2022-08-10T05:43:39Z</time>
      </trkpt>
      <trkpt lat="44.48576" lon="1.55479">
        <ele>133.9</ele>
        <time>2022-08-10T05:43:41Z</time>
      </trkpt>
      <trkpt lat="44.48579" lon="1.55483">
        <ele>134.2</ele>
        <time>2022-08-10T05:43:43Z</time>
      </trkpt>
      <trkpt lat="44.48581" lon="1.55488">
        <ele>134.6</ele>
        <time>2022-08-10T05:43:45Z</time>
      </trkpt>
      <trkpt lat="44.48582" lon="1.55494">
        <ele>134.8</ele>
        <time>2022-08-10T05:43:47Z</time>
      </trkpt>
      <trkpt lat="44.48583" lon="1.55499">
        <ele>135</ele>
        <time>2022-08-10T05:43:49Z</time>
      </trkpt>
      <trkpt lat="44.48584" lon="1.55504">
        <ele>135.3</ele>
        <time>2022-08-10T05:43:51Z</time>
      </trkpt>
      <trkpt lat="44.48586" lon="1.55508">
        <ele>135.8</ele>
        <time>2022-08-10T05:43:53Z</time>
      </trkpt>
      <trkpt lat="44.48587" lon="1.55513">
        <ele>136.2</ele>
        <time>2022-08-10T05:43:55Z</time>
      </trkpt>
      <trkpt lat="44.48588" lon="1.55517">
        <ele>136.7</ele>
        <time>2022-08-10T05:43:57Z</time>
      </trkpt>
      <trkpt lat="44.48589" lon="1.55522">
        <ele>137.1</ele>
        <time>2022-08-10T05:43:59Z</time>
      </trkpt>
      <trkpt lat="44.4859" lon="1.55526">
        <ele>137.5</ele>
        <time>2022-08-10T05:44:01Z</time>
      </trkpt>
      <trkpt lat="44.48591" lon="1.5553">
        <ele>138</ele>
        <time>2022-08-10T05:44:03Z</time>
      </trkpt>
      <trkpt lat="44.48592" lon="1.55533">
        <ele>138.2</ele>
        <time>2022-08-10T05:44:05Z</time>
      </trkpt>
      <trkpt lat="44.48592" lon="1.55537">
        <ele>138.5</ele>
        <time>2022-08-10T05:44:07Z</time>
      </trkpt>
      <trkpt lat="44.48593" lon="1.55541">
        <ele>139</ele>
        <time>2022-08-10T05:44:09Z</time>
      </trkpt>
      <trkpt lat="44.48594" lon="1.55545">
        <ele>139.4</ele>
        <time>2022-08-10T05:44:11Z</time>
      </trkpt>
      <trkpt lat="44.48595" lon="1.55549">
        <ele>140.1</ele>
        <time>2022-08-10T05:44:13Z</time>
      </trkpt>
      <trkpt lat="44.48597" lon="1.55552">
        <ele>141.1</ele>
        <time>2022-08-10T05:44:15Z</time>
      </trkpt>
      <trkpt lat="44.48599" lon="1.55554">
        <ele>142</ele>
        <time>2022-08-10T05:44:17Z</time>
      </trkpt>
      <trkpt lat="44.48602" lon="1.55557">
        <ele>143.2</ele>
        <time>2022-08-10T05:44:19Z</time>
      </trkpt>
      <trkpt lat="44.48606" lon="1.55561">
        <ele>144.9</ele>
        <time>2022-08-10T05:44:21Z</time>
      </trkpt>
      <trkpt lat="44.48609" lon="1.55563">
        <ele>146.5</ele>
        <time>2022-08-10T05:44:23Z</time>
      </trkpt>
      <trkpt lat="44.48612" lon="1.55564">
        <ele>147.9</ele>
        <time>2022-08-10T05:44:25Z</time>
      </trkpt>
      <trkpt lat="44.48615" lon="1.55566">
        <ele>149.3</ele>
        <time>2022-08-10T05:44:27Z</time>
      </trkpt>
      <trkpt lat="44.48618" lon="1.55566">
        <ele>150.9</ele>
        <time>2022-08-10T05:44:29Z</time>
      </trkpt>
      <trkpt lat="44.4862" lon="1.55565">
        <ele>151.8</ele>
        <time>2022-08-10T05:44:31Z</time>
      </trkpt>
      <trkpt lat="44.48623" lon="1.55563">
        <ele>152.8</ele>
        <time>2022-08-10T05:44:33Z</time>
      </trkpt>
      <trkpt lat="44.48625" lon="1.55562">
        <ele>153.6</ele>
        <time>2022-08-10T05:44:35Z</time>
      </trkpt>
      <trkpt lat="44.48626" lon="1.55558">
        <ele>153.9</ele>
        <time>2022-08-10T05:44:37Z</time>
      </trkpt>
      <trkpt lat="44.48627" lon="1.55552">
        <ele>153.8</ele>
        <time>2022-08-10T05:44:39Z</time>
      </trkpt>
      <trkpt lat="44.48605" lon="1.55439">
        <ele>137.7</ele>
        <time>2022-08-10T05:45:09Z</time>
      </trkpt>
      <trkpt lat="44.48604" lon="1.5543">
        <ele>136.9</ele>
        <time>2022-08-10T05:45:11Z</time>
      </trkpt>
      <trkpt lat="44.48602" lon="1.55423">
        <ele>136.2</ele>
        <time>2022-08-10T05:45:13Z</time>
      </trkpt>
      <trkpt lat="44.486" lon="1.55416">
        <ele>135.6</ele>
        <time>2022-08-10T05:45:15Z</time>
      </trkpt>
      <trkpt lat="44.48598" lon="1.55409">
        <ele>135.1</ele>
        <time>2022-08-10T05:45:17Z</time>
      </trkpt>
      <trkpt lat="44.48596" lon="1.55401">
        <ele>134.7</ele>
        <time>2022-08-10T05:45:19Z</time>
      </trkpt>
      <trkpt lat="44.48594" lon="1.55393">
        <ele>134.2</ele>
        <time>2022-08-10T05:45:21Z</time>
      </trkpt>
      <trkpt lat="44.48591" lon="1.55385">
        <ele>133.8</ele>
        <time>2022-08-10T05:45:23Z</time>
      </trkpt>
      <trkpt lat="44.48589" lon="1.55377">
        <ele>133.4</ele>
        <time>2022-08-10T05:45:25Z</time>
      </trkpt>
      <trkpt lat="44.48587" lon="1.55368">
        <ele>133</ele>
        <time>2022-08-10T05:45:27Z</time>
      </trkpt>
      <trkpt lat="44.48587" lon="1.55361">
        <ele>132.8</ele>
        <time>2022-08-10T05:45:29Z</time>
      </trkpt>
      <trkpt lat="44.48585" lon="1.55353">
        <ele>132.5</ele>
        <time>2022-08-10T05:45:31Z</time>
      </trkpt>
      <trkpt lat="44.48582" lon="1.55345">
        <ele>132.2</ele>
        <time>2022-08-10T05:45:33Z</time>
      </trkpt>
      <trkpt lat="44.4858" lon="1.55339">
        <ele>131.8</ele>
        <time>2022-08-10T05:45:35Z</time>
      </trkpt>
      <trkpt lat="44.48577" lon="1.5533">
        <ele>131.6</ele>
        <time>2022-08-10T05:45:37Z</time>
      </trkpt>
      <trkpt lat="44.48574" lon="1.55322">
        <ele>131.6</ele>
        <time>2022-08-10T05:45:39Z</time>
      </trkpt>
      <trkpt lat="44.48572" lon="1.55314">
        <ele>131.7</ele>
        <time>2022-08-10T05:45:41Z</time>
      </trkpt>
      <trkpt lat="44.4857" lon="1.55305">
        <ele>131.8</ele>
        <time>2022-08-10T05:45:43Z</time>
      </trkpt>
      <trkpt lat="44.48567" lon="1.55298">
        <ele>131.9</ele>
        <time>2022-08-10T05:45:45Z</time>
      </trkpt>
      <trkpt lat="44.48566" lon="1.5529">
        <ele>132</ele>
        <time>2022-08-10T05:45:47Z</time>
      </trkpt>
      <trkpt lat="44.48563" lon="1.55281">
        <ele>132.1</ele>
        <time>2022-08-10T05:45:49Z</time>
      </trkpt>
      <trkpt lat="44.48561" lon="1.55273">
        <ele>132.2</ele>
        <time>2022-08-10T05:45:51Z</time>
      </trkpt>
      <trkpt lat="44.48558" lon="1.55265">
        <ele>132.3</ele>
        <time>2022-08-10T05:45:53Z</time>
      </trkpt>
      <trkpt lat="44.48556" lon="1.55256">
        <ele>132.5</ele>
        <time>2022-08-10T05:45:55Z</time>
      </trkpt>
      <trkpt lat="44.48554" lon="1.55247">
        <ele>133.3</ele>
        <time>2022-08-10T05:45:57Z</time>
      </trkpt>
      <trkpt lat="44.48551" lon="1.55239">
        <ele>135.3</ele>
        <time>2022-08-10T05:45:59Z</time>
      </trkpt>
      <trkpt lat="44.48549" lon="1.5523">
        <ele>137.2</ele>
        <time>2022-08-10T05:46:01Z</time>
      </trkpt>
      <trkpt lat="44.48547" lon="1.55221">
        <ele>139.2</ele>
        <time>2022-08-10T05:46:03Z</time>
      </trkpt>
      <trkpt lat="44.48549" lon="1.55211">
        <ele>141.8</ele>
        <time>2022-08-10T05:46:05Z</time>
      </trkpt>
      <trkpt lat="44.48548" lon="1.55201">
        <ele>144</ele>
        <time>2022-08-10T05:46:07Z</time>
      </trkpt>
      <trkpt lat="44.48542" lon="1.55195">
        <ele>144.6</ele>
        <time>2022-08-10T05:46:09Z</time>
      </trkpt>
      <trkpt lat="44.48535" lon="1.55191">
        <ele>144.3</ele>
        <time>2022-08-10T05:46:11Z</time>
      </trkpt>
      <trkpt lat="44.48528" lon="1.55187">
        <ele>144</ele>
        <time>2022-08-10T05:46:13Z</time>
      </trkpt>
      <trkpt lat="44.4852" lon="1.55182">
        <ele>143.6</ele>
        <time>2022-08-10T05:46:15Z</time>
      </trkpt>
      <trkpt lat="44.48513" lon="1.55176">
        <ele>143.2</ele>
        <time>2022-08-10T05:46:17Z</time>
      </trkpt>
      <trkpt lat="44.48506" lon="1.5517">
        <ele>142.8</ele>
        <time>2022-08-10T05:46:19Z</time>
      </trkpt>
      <trkpt lat="44.48498" lon="1.55164">
        <ele>142.8</ele>
        <time>2022-08-10T05:46:21Z</time>
      </trkpt>
      <trkpt lat="44.48491" lon="1.5516">
        <ele>144</ele>
        <time>2022-08-10T05:46:23Z</time>
      </trkpt>
      <trkpt lat="44.48483" lon="1.55155">
        <ele>145.4</ele>
        <time>2022-08-10T05:46:25Z</time>
      </trkpt>
      <trkpt lat="44.48475" lon="1.55152">
        <ele>146.2</ele>
        <time>2022-08-10T05:46:27Z</time>
      </trkpt>
      <trkpt lat="44.48466" lon="1.5515">
        <ele>146.6</ele>
        <time>2022-08-10T05:46:29Z</time>
      </trkpt>
      <trkpt lat="44.48458" lon="1.55149">
        <ele>146.4</ele>
        <time>2022-08-10T05:46:31Z</time>
      </trkpt>
      <trkpt lat="44.4845" lon="1.55148">
        <ele>146.3</ele>
        <time>2022-08-10T05:46:33Z</time>
      </trkpt>
      <trkpt lat="44.48441" lon="1.55148">
        <ele>145.7</ele>
        <time>2022-08-10T05:46:35Z</time>
      </trkpt>
      <trkpt lat="44.48432" lon="1.55148">
        <ele>145.1</ele>
        <time>2022-08-10T05:46:37Z</time>
      </trkpt>
      <trkpt lat="44.48423" lon="1.55146">
        <ele>145.4</ele>
        <time>2022-08-10T05:46:39Z</time>
      </trkpt>
      <trkpt lat="44.48413" lon="1.55146">
        <ele>145.6</ele>
        <time>2022-08-10T05:46:41Z</time>
      </trkpt>
      <trkpt lat="44.48403" lon="1.55146">
        <ele>145.9</ele>
        <time>2022-08-10T05:46:43Z</time>
      </trkpt>
      <trkpt lat="44.48394" lon="1.55145">
        <ele>146.8</ele>
        <time>2022-08-10T05:46:45Z</time>
      </trkpt>
      <trkpt lat="44.48386" lon="1.55145">
        <ele>147.3</ele>
        <time>2022-08-10T05:46:47Z</time>
      </trkpt>
      <trkpt lat="44.48378" lon="1.55145">
        <ele>147.3</ele>
        <time>2022-08-10T05:46:49Z</time>
      </trkpt>
      <trkpt lat="44.48372" lon="1.55146">
        <ele>147.4</ele>
        <time>2022-08-10T05:46:51Z</time>
      </trkpt>
      <trkpt lat="44.48366" lon="1.55147">
        <ele>147.1</ele>
        <time>2022-08-10T05:46:53Z</time>
      </trkpt>
      <trkpt lat="44.4836" lon="1.55148">
        <ele>146.7</ele>
        <time>2022-08-10T05:46:55Z</time>
      </trkpt>
      <trkpt lat="44.48354" lon="1.5515">
        <ele>145.9</ele>
        <time>2022-08-10T05:46:57Z</time>
      </trkpt>
      <trkpt lat="44.48349" lon="1.55152">
        <ele>144.8</ele>
        <time>2022-08-10T05:46:59Z</time>
      </trkpt>
      <trkpt lat="44.48343" lon="1.55154">
        <ele>143.7</ele>
        <time>2022-08-10T05:47:01Z</time>
      </trkpt>
      <trkpt lat="44.48338" lon="1.55156">
        <ele>142.6</ele>
        <time>2022-08-10T05:47:03Z</time>
      </trkpt>
      <trkpt lat="44.48333" lon="1.55157">
        <ele>142</ele>
        <time>2022-08-10T05:47:05Z</time>
      </trkpt>
      <trkpt lat="44.48328" lon="1.55159">
        <ele>140.1</ele>
        <time>2022-08-10T05:47:07Z</time>
      </trkpt>
      <trkpt lat="44.48322" lon="1.5516">
        <ele>138.5</ele>
        <time>2022-08-10T05:47:09Z</time>
      </trkpt>
      <trkpt lat="44.48318" lon="1.55163">
        <ele>135.9</ele>
        <time>2022-08-10T05:47:11Z</time>
      </trkpt>
      <trkpt lat="44.48316" lon="1.5517">
        <ele>133.2</ele>
        <time>2022-08-10T05:47:13Z</time>
      </trkpt>
      <trkpt lat="44.48316" lon="1.55178">
        <ele>132.3</ele>
        <time>2022-08-10T05:47:15Z</time>
      </trkpt>
      <trkpt lat="44.48316" lon="1.55186">
        <ele>131.4</ele>
        <time>2022-08-10T05:47:17Z</time>
      </trkpt>
      <trkpt lat="44.48314" lon="1.55188">
        <ele>130.8</ele>
        <time>2022-08-10T05:47:19Z</time>
      </trkpt>
      <trkpt lat="44.48311" lon="1.55194">
        <ele>129.8</ele>
        <time>2022-08-10T05:47:21Z</time>
      </trkpt>
      <trkpt lat="44.48307" lon="1.552">
        <ele>128.8</ele>
        <time>2022-08-10T05:47:23Z</time>
      </trkpt>
      <trkpt lat="44.48303" lon="1.55206">
        <ele>127.8</ele>
        <time>2022-08-10T05:47:25Z</time>
      </trkpt>
      <trkpt lat="44.483" lon="1.55214">
        <ele>126.8</ele>
        <time>2022-08-10T05:47:27Z</time>
      </trkpt>
      <trkpt lat="44.48295" lon="1.55222">
        <ele>125.7</ele>
        <time>2022-08-10T05:47:29Z</time>
      </trkpt>
      <trkpt lat="44.48291" lon="1.55229">
        <ele>124.7</ele>
        <time>2022-08-10T05:47:31Z</time>
      </trkpt>
      <trkpt lat="44.48286" lon="1.55238">
        <ele>123.6</ele>
        <time>2022-08-10T05:47:33Z</time>
      </trkpt>
      <trkpt lat="44.48282" lon="1.55247">
        <ele>122.7</ele>
        <time>2022-08-10T05:47:35Z</time>
      </trkpt>
      <trkpt lat="44.48277" lon="1.55257">
        <ele>122.4</ele>
        <time>2022-08-10T05:47:37Z</time>
      </trkpt>
      <trkpt lat="44.48272" lon="1.55266">
        <ele>122.3</ele>
        <time>2022-08-10T05:47:39Z</time>
      </trkpt>
      <trkpt lat="44.48266" lon="1.55276">
        <ele>122.3</ele>
        <time>2022-08-10T05:47:41Z</time>
      </trkpt>
      <trkpt lat="44.4826" lon="1.55288">
        <ele>122.3</ele>
        <time>2022-08-10T05:47:43Z</time>
      </trkpt>
      <trkpt lat="44.48254" lon="1.553">
        <ele>122.3</ele>
        <time>2022-08-10T05:47:45Z</time>
      </trkpt>
      <trkpt lat="44.48247" lon="1.55312">
        <ele>122.5</ele>
        <time>2022-08-10T05:47:47Z</time>
      </trkpt>
      <trkpt lat="44.4824" lon="1.55325">
        <ele>122.9</ele>
        <time>2022-08-10T05:47:49Z</time>
      </trkpt>
      <trkpt lat="44.48233" lon="1.55338">
        <ele>123.3</ele>
        <time>2022-08-10T05:47:51Z</time>
      </trkpt>
      <trkpt lat="44.48226" lon="1.55352">
        <ele>123.8</ele>
        <time>2022-08-10T05:47:53Z</time>
      </trkpt>
      <trkpt lat="44.48218" lon="1.55366">
        <ele>124.3</ele>
        <time>2022-08-10T05:47:55Z</time>
      </trkpt>
      <trkpt lat="44.48211" lon="1.55378">
        <ele>124.8</ele>
        <time>2022-08-10T05:47:57Z</time>
      </trkpt>
      <trkpt lat="44.48206" lon="1.5539">
        <ele>125.2</ele>
        <time>2022-08-10T05:47:59Z</time>
      </trkpt>
      <trkpt lat="44.48201" lon="1.554">
        <ele>125.6</ele>
        <time>2022-08-10T05:48:01Z</time>
      </trkpt>
      <trkpt lat="44.48196" lon="1.55408">
        <ele>126</ele>
        <time>2022-08-10T05:48:03Z</time>
      </trkpt>
      <trkpt lat="44.48191" lon="1.55415">
        <ele>126.4</ele>
        <time>2022-08-10T05:48:05Z</time>
      </trkpt>
      <trkpt lat="44.48187" lon="1.55423">
        <ele>126.8</ele>
        <time>2022-08-10T05:48:07Z</time>
      </trkpt>
      <trkpt lat="44.48184" lon="1.5543">
        <ele>127.2</ele>
        <time>2022-08-10T05:48:09Z</time>
      </trkpt>
      <trkpt lat="44.4818" lon="1.55436">
        <ele>127.6</ele>
        <time>2022-08-10T05:48:11Z</time>
      </trkpt>
      <trkpt lat="44.48177" lon="1.55443">
        <ele>128</ele>
        <time>2022-08-10T05:48:13Z</time>
      </trkpt>
      <trkpt lat="44.48174" lon="1.55449">
        <ele>128.4</ele>
        <time>2022-08-10T05:48:15Z</time>
      </trkpt>
      <trkpt lat="44.48171" lon="1.55455">
        <ele>128.7</ele>
        <time>2022-08-10T05:48:17Z</time>
      </trkpt>
      <trkpt lat="44.48168" lon="1.55461">
        <ele>129.1</ele>
        <time>2022-08-10T05:48:19Z</time>
      </trkpt>
      <trkpt lat="44.48165" lon="1.55466">
        <ele>129.6</ele>
        <time>2022-08-10T05:48:21Z</time>
      </trkpt>
      <trkpt lat="44.48162" lon="1.55472">
        <ele>130.2</ele>
        <time>2022-08-10T05:48:23Z</time>
      </trkpt>
      <trkpt lat="44.48159" lon="1.55478">
        <ele>130.8</ele>
        <time>2022-08-10T05:48:25Z</time>
      </trkpt>
      <trkpt lat="44.48156" lon="1.55483">
        <ele>131.5</ele>
        <time>2022-08-10T05:48:27Z</time>
      </trkpt>
      <trkpt lat="44.48153" lon="1.55488">
        <ele>132.2</ele>
        <time>2022-08-10T05:48:29Z</time>
      </trkpt>
      <trkpt lat="44.4815" lon="1.55494">
        <ele>133</ele>
        <time>2022-08-10T05:48:31Z</time>
      </trkpt>
      <trkpt lat="44.48147" lon="1.55499">
        <ele>133.8</ele>
        <time>2022-08-10T05:48:33Z</time>
      </trkpt>
      <trkpt lat="44.48144" lon="1.55504">
        <ele>134.9</ele>
        <time>2022-08-10T05:48:35Z</time>
      </trkpt>
      <trkpt lat="44.48141" lon="1.55509">
        <ele>136.1</ele>
        <time>2022-08-10T05:48:37Z</time>
      </trkpt>
      <trkpt lat="44.48137" lon="1.55513">
        <ele>137.1</ele>
        <time>2022-08-10T05:48:39Z</time>
      </trkpt>
      <trkpt lat="44.48134" lon="1.55515">
        <ele>138</ele>
        <time>2022-08-10T05:48:41Z</time>
      </trkpt>
      <trkpt lat="44.48129" lon="1.55517">
        <ele>139.2</ele>
        <time>2022-08-10T05:48:43Z</time>
      </trkpt>
      <trkpt lat="44.48125" lon="1.55518">
        <ele>140</ele>
        <time>2022-08-10T05:48:45Z</time>
      </trkpt>
      <trkpt lat="44.48124" lon="1.55518">
        <ele>140.3</ele>
        <time>2022-08-10T05:48:47Z</time>
      </trkpt>
      <trkpt lat="44.48122" lon="1.55518">
        <ele>140.6</ele>
        <time>2022-08-10T05:48:49Z</time>
      </trkpt>
      <trkpt lat="44.48118" lon="1.55519">
        <ele>141.4</ele>
        <time>2022-08-10T05:48:51Z</time>
      </trkpt>
      <trkpt lat="44.48114" lon="1.55519">
        <ele>142.2</ele>
        <time>2022-08-10T05:48:53Z</time>
      </trkpt>
      <trkpt lat="44.48111" lon="1.55515">
        <ele>142</ele>
        <time>2022-08-10T05:48:55Z</time>
      </trkpt>
      <trkpt lat="44.48108" lon="1.55512">
        <ele>141.9</ele>
        <time>2022-08-10T05:48:57Z</time>
      </trkpt>
      <trkpt lat="44.48105" lon="1.55509">
        <ele>141.6</ele>
        <time>2022-08-10T05:48:59Z</time>
      </trkpt>
      <trkpt lat="44.48103" lon="1.55505">
        <ele>141.2</ele>
        <time>2022-08-10T05:49:01Z</time>
      </trkpt>
      <trkpt lat="44.48101" lon="1.55502">
        <ele>140.9</ele>
        <time>2022-08-10T05:49:03Z</time>
      </trkpt>
      <trkpt lat="44.48101" lon="1.55502">
        <ele>140.9</ele>
        <time>2022-08-10T05:49:05Z</time>
      </trkpt>
      <trkpt lat="44.48101" lon="1.55502">
        <ele>140.9</ele>
        <time>2022-08-10T05:49:07Z</time>
      </trkpt>
      <trkpt lat="44.48101" lon="1.55501">
        <ele>140.8</ele>
        <time>2022-08-10T05:49:09Z</time>
      </trkpt>
      <trkpt lat="44.48101" lon="1.55501">
        <ele>140.8</ele>
        <time>2022-08-10T05:49:11Z</time>
      </trkpt>
      <trkpt lat="44.481" lon="1.55501">
        <ele>140.8</ele>
        <time>2022-08-10T05:49:13Z</time>
      </trkpt>
      <trkpt lat="44.48088" lon="1.5549">
        <ele>140.7</ele>
        <time>2022-08-10T05:50:39Z</time>
      </trkpt>
      <trkpt lat="44.48083" lon="1.55487">
        <ele>140.7</ele>
        <time>2022-08-10T05:50:41Z</time>
      </trkpt>
      <trkpt lat="44.48077" lon="1.55485">
        <ele>140.4</ele>
        <time>2022-08-10T05:50:43Z</time>
      </trkpt>
      <trkpt lat="44.48071" lon="1.55483">
        <ele>140.1</ele>
        <time>2022-08-10T05:50:45Z</time>
      </trkpt>
      <trkpt lat="44.48065" lon="1.55481">
        <ele>140</ele>
        <time>2022-08-10T05:50:47Z</time>
      </trkpt>
      <trkpt lat="44.48058" lon="1.55479">
        <ele>139.7</ele>
        <time>2022-08-10T05:50:49Z</time>
      </trkpt>
      <trkpt lat="44.48052" lon="1.55479">
        <ele>139.7</ele>
        <time>2022-08-10T05:50:51Z</time>
      </trkpt>
      <trkpt lat="44.48046" lon="1.55479">
        <ele>139.8</ele>
        <time>2022-08-10T05:50:53Z</time>
      </trkpt>
      <trkpt lat="44.48039" lon="1.55479">
        <ele>140.1</ele>
        <time>2022-08-10T05:50:55Z</time>
      </trkpt>
      <trkpt lat="44.48033" lon="1.5548">
        <ele>140.3</ele>
        <time>2022-08-10T05:50:57Z</time>
      </trkpt>
      <trkpt lat="44.48027" lon="1.55483">
        <ele>141</ele>
        <time>2022-08-10T05:50:59Z</time>
      </trkpt>
      <trkpt lat="44.48021" lon="1.55485">
        <ele>141.5</ele>
        <time>2022-08-10T05:51:01Z</time>
      </trkpt>
      <trkpt lat="44.48015" lon="1.55487">
        <ele>142.1</ele>
        <time>2022-08-10T05:51:03Z</time>
      </trkpt>
      <trkpt lat="44.4801" lon="1.5549">
        <ele>142.8</ele>
        <time>2022-08-10T05:51:05Z</time>
      </trkpt>
      <trkpt lat="44.48004" lon="1.55493">
        <ele>143.4</ele>
        <time>2022-08-10T05:51:07Z</time>
      </trkpt>
      <trkpt lat="44.48" lon="1.55496">
        <ele>144.2</ele>
        <time>2022-08-10T05:51:09Z</time>
      </trkpt>
      <trkpt lat="44.47996" lon="1.55499">
        <ele>144.5</ele>
        <time>2022-08-10T05:51:11Z</time>
      </trkpt>
      <trkpt lat="44.47992" lon="1.55502">
        <ele>144.6</ele>
        <time>2022-08-10T05:51:13Z</time>
      </trkpt>
      <trkpt lat="44.47987" lon="1.55504">
        <ele>144.7</ele>
        <time>2022-08-10T05:51:15Z</time>
      </trkpt>
      <trkpt lat="44.47983" lon="1.55507">
        <ele>144.9</ele>
        <time>2022-08-10T05:51:17Z</time>
      </trkpt>
      <trkpt lat="44.47979" lon="1.55511">
        <ele>145.3</ele>
        <time>2022-08-10T05:51:19Z</time>
      </trkpt>
      <trkpt lat="44.47975" lon="1.55515">
        <ele>145.6</ele>
        <time>2022-08-10T05:51:21Z</time>
      </trkpt>
      <trkpt lat="44.47972" lon="1.55518">
        <ele>145.9</ele>
        <time>2022-08-10T05:51:23Z</time>
      </trkpt>
      <trkpt lat="44.47969" lon="1.55521">
        <ele>146.3</ele>
        <time>2022-08-10T05:51:25Z</time>
      </trkpt>
      <trkpt lat="44.47966" lon="1.55525">
        <ele>146.7</ele>
        <time>2022-08-10T05:51:27Z</time>
      </trkpt>
      <trkpt lat="44.47963" lon="1.55529">
        <ele>147.2</ele>
        <time>2022-08-10T05:51:29Z</time>
      </trkpt>
      <trkpt lat="44.4796" lon="1.55533">
        <ele>147.6</ele>
        <time>2022-08-10T05:51:31Z</time>
      </trkpt>
      <trkpt lat="44.47958" lon="1.55537">
        <ele>148</ele>
        <time>2022-08-10T05:51:33Z</time>
      </trkpt>
      <trkpt lat="44.47956" lon="1.55541">
        <ele>148.6</ele>
        <time>2022-08-10T05:51:35Z</time>
      </trkpt>
      <trkpt lat="44.47954" lon="1.55544">
        <ele>148.9</ele>
        <time>2022-08-10T05:51:37Z</time>
      </trkpt>
      <trkpt lat="44.4795" lon="1.55544">
        <ele>148.6</ele>
        <time>2022-08-10T05:51:39Z</time>
      </trkpt>
      <trkpt lat="44.47947" lon="1.55549">
        <ele>149</ele>
        <time>2022-08-10T05:51:41Z</time>
      </trkpt>
      <trkpt lat="44.47945" lon="1.55553">
        <ele>149.5</ele>
        <time>2022-08-10T05:51:43Z</time>
      </trkpt>
      <trkpt lat="44.47943" lon="1.55557">
        <ele>150</ele>
        <time>2022-08-10T05:51:45Z</time>
      </trkpt>
      <trkpt lat="44.4794" lon="1.5556">
        <ele>150.2</ele>
        <time>2022-08-10T05:51:47Z</time>
      </trkpt>
      <trkpt lat="44.47938" lon="1.55564">
        <ele>150.6</ele>
        <time>2022-08-10T05:51:49Z</time>
      </trkpt>
      <trkpt lat="44.47936" lon="1.55567">
        <ele>150.9</ele>
        <time>2022-08-10T05:51:51Z</time>
      </trkpt>
      <trkpt lat="44.47934" lon="1.55571">
        <ele>151.3</ele>
        <time>2022-08-10T05:51:53Z</time>
      </trkpt>
      <trkpt lat="44.47933" lon="1.55575">
        <ele>151.8</ele>
        <time>2022-08-10T05:51:55Z</time>
      </trkpt>
      <trkpt lat="44.47931" lon="1.55579">
        <ele>152.3</ele>
        <time>2022-08-10T05:51:57Z</time>
      </trkpt>
      <trkpt lat="44.47929" lon="1.55582">
        <ele>152.4</ele>
        <time>2022-08-10T05:51:59Z</time>
      </trkpt>
      <trkpt lat="44.47927" lon="1.55585">
        <ele>152.6</ele>
        <time>2022-08-10T05:52:01Z</time>
      </trkpt>
      <trkpt lat="44.47925" lon="1.55589">
        <ele>152.5</ele>
        <time>2022-08-10T05:52:03Z</time>
      </trkpt>
      <trkpt lat="44.47923" lon="1.55593">
        <ele>152.4</ele>
        <time>2022-08-10T05:52:05Z</time>
      </trkpt>
      <trkpt lat="44.4792" lon="1.55596">
        <ele>152.3</ele>
        <time>2022-08-10T05:52:07Z</time>
      </trkpt>
      <trkpt lat="44.47919" lon="1.55599">
        <ele>152.2</ele>
        <time>2022-08-10T05:52:09Z</time>
      </trkpt>
      <trkpt lat="44.47915" lon="1.55604">
        <ele>152.2</ele>
        <time>2022-08-10T05:52:11Z</time>
      </trkpt>
      <trkpt lat="44.4791" lon="1.55609">
        <ele>152.4</ele>
        <time>2022-08-10T05:52:13Z</time>
      </trkpt>
      <trkpt lat="44.47905" lon="1.55612">
        <ele>152.5</ele>
        <time>2022-08-10T05:52:15Z</time>
      </trkpt>
      <trkpt lat="44.47898" lon="1.55613">
        <ele>152.5</ele>
        <time>2022-08-10T05:52:17Z</time>
      </trkpt>
      <trkpt lat="44.47892" lon="1.55616">
        <ele>152.5</ele>
        <time>2022-08-10T05:52:19Z</time>
      </trkpt>
      <trkpt lat="44.47885" lon="1.55617">
        <ele>152.5</ele>
        <time>2022-08-10T05:52:21Z</time>
      </trkpt>
      <trkpt lat="44.47879" lon="1.55618">
        <ele>152.4</ele>
        <time>2022-08-10T05:52:23Z</time>
      </trkpt>
      <trkpt lat="44.47872" lon="1.55618">
        <ele>152.3</ele>
        <time>2022-08-10T05:52:25Z</time>
      </trkpt>
      <trkpt lat="44.47865" lon="1.55618">
        <ele>152.2</ele>
        <time>2022-08-10T05:52:27Z</time>
      </trkpt>
      <trkpt lat="44.47858" lon="1.55619">
        <ele>152.2</ele>
        <time>2022-08-10T05:52:29Z</time>
      </trkpt>
      <trkpt lat="44.47852" lon="1.55622">
        <ele>152.2</ele>
        <time>2022-08-10T05:52:31Z</time>
      </trkpt>
      <trkpt lat="44.47846" lon="1.55624">
        <ele>152.2</ele>
        <time>2022-08-10T05:52:33Z</time>
      </trkpt>
      <trkpt lat="44.4784" lon="1.55625">
        <ele>152.1</ele>
        <time>2022-08-10T05:52:35Z</time>
      </trkpt>
      <trkpt lat="44.47834" lon="1.55628">
        <ele>152.1</ele>
        <time>2022-08-10T05:52:37Z</time>
      </trkpt>
      <trkpt lat="44.47829" lon="1.55629">
        <ele>152</ele>
        <time>2022-08-10T05:52:39Z</time>
      </trkpt>
      <trkpt lat="44.47824" lon="1.55632">
        <ele>151.9</ele>
        <time>2022-08-10T05:52:41Z</time>
      </trkpt>
      <trkpt lat="44.47818" lon="1.55635">
        <ele>151.9</ele>
        <time>2022-08-10T05:52:43Z</time>
      </trkpt>
      <trkpt lat="44.47813" lon="1.55637">
        <ele>151.8</ele>
        <time>2022-08-10T05:52:45Z</time>
      </trkpt>
      <trkpt lat="44.47809" lon="1.55641">
        <ele>151.8</ele>
        <time>2022-08-10T05:52:47Z</time>
      </trkpt>
      <trkpt lat="44.47803" lon="1.55643">
        <ele>151.7</ele>
        <time>2022-08-10T05:52:49Z</time>
      </trkpt>
      <trkpt lat="44.47797" lon="1.55644">
        <ele>151.5</ele>
        <time>2022-08-10T05:52:51Z</time>
      </trkpt>
      <trkpt lat="44.47792" lon="1.55646">
        <ele>151.4</ele>
        <time>2022-08-10T05:52:53Z</time>
      </trkpt>
      <trkpt lat="44.47786" lon="1.55648">
        <ele>151.3</ele>
        <time>2022-08-10T05:52:55Z</time>
      </trkpt>
      <trkpt lat="44.47781" lon="1.55651">
        <ele>151.3</ele>
        <time>2022-08-10T05:52:57Z</time>
      </trkpt>
      <trkpt lat="44.47774" lon="1.55655">
        <ele>151.2</ele>
        <time>2022-08-10T05:52:59Z</time>
      </trkpt>
      <trkpt lat="44.47768" lon="1.55659">
        <ele>151.2</ele>
        <time>2022-08-10T05:53:01Z</time>
      </trkpt>
      <trkpt lat="44.4776" lon="1.55666">
        <ele>151.3</ele>
        <time>2022-08-10T05:53:03Z</time>
      </trkpt>
      <trkpt lat="44.47751" lon="1.55675">
        <ele>150.9</ele>
        <time>2022-08-10T05:53:05Z</time>
      </trkpt>
      <trkpt lat="44.47742" lon="1.55687">
        <ele>151</ele>
        <time>2022-08-10T05:53:07Z</time>
      </trkpt>
      <trkpt lat="44.4773" lon="1.55697">
        <ele>151.3</ele>
        <time>2022-08-10T05:53:09Z</time>
      </trkpt>
      <trkpt lat="44.47718" lon="1.55702">
        <ele>151.7</ele>
        <time>2022-08-10T05:53:11Z</time>
      </trkpt>
      <trkpt lat="44.47705" lon="1.55701">
        <ele>152.1</ele>
        <time>2022-08-10T05:53:13Z</time>
      </trkpt>
      <trkpt lat="44.47695" lon="1.55699">
        <ele>152.4</ele>
        <time>2022-08-10T05:53:15Z</time>
      </trkpt>
      <trkpt lat="44.47686" lon="1.55695">
        <ele>152.7</ele>
        <time>2022-08-10T05:53:17Z</time>
      </trkpt>
      <trkpt lat="44.47678" lon="1.55692">
        <ele>153</ele>
        <time>2022-08-10T05:53:19Z</time>
      </trkpt>
      <trkpt lat="44.47671" lon="1.55688">
        <ele>153.1</ele>
        <time>2022-08-10T05:53:21Z</time>
      </trkpt>
      <trkpt lat="44.47666" lon="1.55686">
        <ele>153.3</ele>
        <time>2022-08-10T05:53:23Z</time>
      </trkpt>
      <trkpt lat="44.47662" lon="1.55683">
        <ele>154.9</ele>
        <time>2022-08-10T05:53:25Z</time>
      </trkpt>
      <trkpt lat="44.47657" lon="1.5568">
        <ele>156.3</ele>
        <time>2022-08-10T05:53:27Z</time>
      </trkpt>
      <trkpt lat="44.47654" lon="1.55677">
        <ele>157.5</ele>
        <time>2022-08-10T05:53:29Z</time>
      </trkpt>
      <trkpt lat="44.47651" lon="1.55674">
        <ele>158.4</ele>
        <time>2022-08-10T05:53:31Z</time>
      </trkpt>
      <trkpt lat="44.47649" lon="1.55672">
        <ele>159.1</ele>
        <time>2022-08-10T05:53:33Z</time>
      </trkpt>
      <trkpt lat="44.47648" lon="1.5567">
        <ele>159.2</ele>
        <time>2022-08-10T05:53:35Z</time>
      </trkpt>
      <trkpt lat="44.47648" lon="1.5567">
        <ele>159.2</ele>
        <time>2022-08-10T05:53:37Z</time>
      </trkpt>
      <trkpt lat="44.47648" lon="1.5567">
        <ele>159.2</ele>
        <time>2022-08-10T05:53:39Z</time>
      </trkpt>
      <trkpt lat="44.47648" lon="1.5567">
        <ele>159.3</ele>
        <time>2022-08-10T05:53:41Z</time>
      </trkpt>
      <trkpt lat="44.47648" lon="1.55669">
        <ele>159.2</ele>
        <time>2022-08-10T05:53:43Z</time>
      </trkpt>
      <trkpt lat="44.47637" lon="1.55654">
        <ele>162.4</ele>
        <time>2022-08-10T05:54:51Z</time>
      </trkpt>
      <trkpt lat="44.47634" lon="1.5565">
        <ele>163</ele>
        <time>2022-08-10T05:54:53Z</time>
      </trkpt>
      <trkpt lat="44.47633" lon="1.55644">
        <ele>163.3</ele>
        <time>2022-08-10T05:54:55Z</time>
      </trkpt>
      <trkpt lat="44.47631" lon="1.55638">
        <ele>163.7</ele>
        <time>2022-08-10T05:54:57Z</time>
      </trkpt>
      <trkpt lat="44.47629" lon="1.55632">
        <ele>164.1</ele>
        <time>2022-08-10T05:54:59Z</time>
      </trkpt>
      <trkpt lat="44.47627" lon="1.55626">
        <ele>164.4</ele>
        <time>2022-08-10T05:55:01Z</time>
      </trkpt>
      <trkpt lat="44.47625" lon="1.55621">
        <ele>164.8</ele>
        <time>2022-08-10T05:55:03Z</time>
      </trkpt>
      <trkpt lat="44.47623" lon="1.55615">
        <ele>165.2</ele>
        <time>2022-08-10T05:55:05Z</time>
      </trkpt>
      <trkpt lat="44.47621" lon="1.55612">
        <ele>165.6</ele>
        <time>2022-08-10T05:55:07Z</time>
      </trkpt>
      <trkpt lat="44.47619" lon="1.55608">
        <ele>166.1</ele>
        <time>2022-08-10T05:55:09Z</time>
      </trkpt>
      <trkpt lat="44.47618" lon="1.55604">
        <ele>166.4</ele>
        <time>2022-08-10T05:55:11Z</time>
      </trkpt>
      <trkpt lat="44.47615" lon="1.556">
        <ele>167</ele>
        <time>2022-08-10T05:55:13Z</time>
      </trkpt>
      <trkpt lat="44.47614" lon="1.55595">
        <ele>167.3</ele>
        <time>2022-08-10T05:55:15Z</time>
      </trkpt>
      <trkpt lat="44.47612" lon="1.55589">
        <ele>167.7</ele>
        <time>2022-08-10T05:55:17Z</time>
      </trkpt>
      <trkpt lat="44.4761" lon="1.55584">
        <ele>168.1</ele>
        <time>2022-08-10T05:55:19Z</time>
      </trkpt>
      <trkpt lat="44.47608" lon="1.55579">
        <ele>168.1</ele>
        <time>2022-08-10T05:55:21Z</time>
      </trkpt>
      <trkpt lat="44.47606" lon="1.55575">
        <ele>168.2</ele>
        <time>2022-08-10T05:55:23Z</time>
      </trkpt>
      <trkpt lat="44.47604" lon="1.5557">
        <ele>168.3</ele>
        <time>2022-08-10T05:55:25Z</time>
      </trkpt>
      <trkpt lat="44.47602" lon="1.55564">
        <ele>168.3</ele>
        <time>2022-08-10T05:55:27Z</time>
      </trkpt>
      <trkpt lat="44.476" lon="1.55559">
        <ele>168.1</ele>
        <time>2022-08-10T05:55:29Z</time>
      </trkpt>
      <trkpt lat="44.47599" lon="1.55554">
        <ele>167.9</ele>
        <time>2022-08-10T05:55:31Z</time>
      </trkpt>
      <trkpt lat="44.47597" lon="1.55548">
        <ele>167.8</ele>
        <time>2022-08-10T05:55:33Z</time>
      </trkpt>
      <trkpt lat="44.47595" lon="1.55543">
        <ele>167.8</ele>
        <time>2022-08-10T05:55:35Z</time>
      </trkpt>
      <trkpt lat="44.47593" lon="1.55538">
        <ele>167.7</ele>
        <time>2022-08-10T05:55:37Z</time>
      </trkpt>
      <trkpt lat="44.47591" lon="1.55533">
        <ele>167.7</ele>
        <time>2022-08-10T05:55:39Z</time>
      </trkpt>
      <trkpt lat="44.4759" lon="1.55528">
        <ele>167.6</ele>
        <time>2022-08-10T05:55:41Z</time>
      </trkpt>
      <trkpt lat="44.47588" lon="1.55523">
        <ele>167.6</ele>
        <time>2022-08-10T05:55:43Z</time>
      </trkpt>
      <trkpt lat="44.47586" lon="1.55518">
        <ele>167.6</ele>
        <time>2022-08-10T05:55:45Z</time>
      </trkpt>
      <trkpt lat="44.47584" lon="1.55513">
        <ele>167.5</ele>
        <time>2022-08-10T05:55:47Z</time>
      </trkpt>
      <trkpt lat="44.47581" lon="1.55509">
        <ele>167.8</ele>
        <time>2022-08-10T05:55:49Z</time>
      </trkpt>
      <trkpt lat="44.47579" lon="1.55504">
        <ele>168.2</ele>
        <time>2022-08-10T05:55:51Z</time>
      </trkpt>
      <trkpt lat="44.47576" lon="1.55501">
        <ele>168.9</ele>
        <time>2022-08-10T05:55:53Z</time>
      </trkpt>
      <trkpt lat="44.47572" lon="1.555">
        <ele>169.9</ele>
        <time>2022-08-10T05:55:55Z</time>
      </trkpt>
      <trkpt lat="44.47568" lon="1.55497">
        <ele>170.4</ele>
        <time>2022-08-10T05:55:57Z</time>
      </trkpt>
      <trkpt lat="44.47564" lon="1.55495">
        <ele>170.9</ele>
        <time>2022-08-10T05:55:59Z</time>
      </trkpt>
      <trkpt lat="44.4756" lon="1.55492">
        <ele>171.2</ele>
        <time>2022-08-10T05:56:01Z</time>
      </trkpt>
      <trkpt lat="44.47556" lon="1.5549">
        <ele>171.9</ele>
        <time>2022-08-10T05:56:03Z</time>
      </trkpt>
      <trkpt lat="44.47552" lon="1.55488">
        <ele>172.6</ele>
        <time>2022-08-10T05:56:05Z</time>
      </trkpt>
      <trkpt lat="44.47549" lon="1.55485">
        <ele>172.7</ele>
        <time>2022-08-10T05:56:07Z</time>
      </trkpt>
      <trkpt lat="44.47545" lon="1.55481">
        <ele>172.7</ele>
        <time>2022-08-10T05:56:09Z</time>
      </trkpt>
      <trkpt lat="44.47541" lon="1.55478">
        <ele>172.7</ele>
        <time>2022-08-10T05:56:11Z</time>
      </trkpt>
      <trkpt lat="44.47538" lon="1.55474">
        <ele>172.5</ele>
        <time>2022-08-10T05:56:13Z</time>
      </trkpt>
      <trkpt lat="44.47534" lon="1.55472">
        <ele>172.6</ele>
        <time>2022-08-10T05:56:15Z</time>
      </trkpt>
      <trkpt lat="44.47531" lon="1.55468">
        <ele>172.1</ele>
        <time>2022-08-10T05:56:17Z</time>
      </trkpt>
      <trkpt lat="44.47527" lon="1.55465">
        <ele>172.2</ele>
        <time>2022-08-10T05:56:19Z</time>
      </trkpt>
      <trkpt lat="44.47524" lon="1.55462">
        <ele>171.9</ele>
        <time>2022-08-10T05:56:21Z</time>
      </trkpt>
      <trkpt lat="44.4752" lon="1.55458">
        <ele>171.4</ele>
        <time>2022-08-10T05:56:23Z</time>
      </trkpt>
      <trkpt lat="44.47517" lon="1.55454">
        <ele>171.2</ele>
        <time>2022-08-10T05:56:25Z</time>
      </trkpt>
      <trkpt lat="44.47513" lon="1.55451">
        <ele>170.9</ele>
        <time>2022-08-10T05:56:27Z</time>
      </trkpt>
      <trkpt lat="44.4751" lon="1.55449">
        <ele>170.8</ele>
        <time>2022-08-10T05:56:29Z</time>
      </trkpt>
      <trkpt lat="44.47506" lon="1.55445">
        <ele>170.4</ele>
        <time>2022-08-10T05:56:31Z</time>
      </trkpt>
      <trkpt lat="44.47502" lon="1.55443">
        <ele>170.4</ele>
        <time>2022-08-10T05:56:33Z</time>
      </trkpt>
      <trkpt lat="44.47498" lon="1.55441">
        <ele>170.7</ele>
        <time>2022-08-10T05:56:35Z</time>
      </trkpt>
      <trkpt lat="44.47494" lon="1.55439">
        <ele>171.1</ele>
        <time>2022-08-10T05:56:37Z</time>
      </trkpt>
      <trkpt lat="44.4749" lon="1.55437">
        <ele>171.5</ele>
        <time>2022-08-10T05:56:39Z</time>
      </trkpt>
      <trkpt lat="44.47487" lon="1.55435">
        <ele>171.9</ele>
        <time>2022-08-10T05:56:41Z</time>
      </trkpt>
      <trkpt lat="44.47483" lon="1.55433">
        <ele>172.1</ele>
        <time>2022-08-10T05:56:43Z</time>
      </trkpt>
      <trkpt lat="44.4748" lon="1.55432">
        <ele>172.8</ele>
        <time>2022-08-10T05:56:45Z</time>
      </trkpt>
      <trkpt lat="44.47476" lon="1.55431">
        <ele>173.3</ele>
        <time>2022-08-10T05:56:47Z</time>
      </trkpt>
      <trkpt lat="44.47473" lon="1.5543">
        <ele>174</ele>
        <time>2022-08-10T05:56:49Z</time>
      </trkpt>
      <trkpt lat="44.47469" lon="1.55429">
        <ele>174.7</ele>
        <time>2022-08-10T05:56:51Z</time>
      </trkpt>
      <trkpt lat="44.47466" lon="1.55427">
        <ele>174.7</ele>
        <time>2022-08-10T05:56:53Z</time>
      </trkpt>
      <trkpt lat="44.47464" lon="1.55426">
        <ele>175</ele>
        <time>2022-08-10T05:56:55Z</time>
      </trkpt>
      <trkpt lat="44.47464" lon="1.55427">
        <ele>175.3</ele>
        <time>2022-08-10T05:56:57Z</time>
      </trkpt>
      <trkpt lat="44.47463" lon="1.55427">
        <ele>175.5</ele>
        <time>2022-08-10T05:56:59Z</time>
      </trkpt>
      <trkpt lat="44.47462" lon="1.55426">
        <ele>175.2</ele>
        <time>2022-08-10T05:57:01Z</time>
      </trkpt>
      <trkpt lat="44.47462" lon="1.55426">
        <ele>175.5</ele>
        <time>2022-08-10T05:57:03Z</time>
      </trkpt>
      <trkpt lat="44.47456" lon="1.55422">
        <ele>175.5</ele>
        <time>2022-08-10T05:58:45Z</time>
      </trkpt>
      <trkpt lat="44.47452" lon="1.5542">
        <ele>175.9</ele>
        <time>2022-08-10T05:58:47Z</time>
      </trkpt>
      <trkpt lat="44.47449" lon="1.5542">
        <ele>176.8</ele>
        <time>2022-08-10T05:58:49Z</time>
      </trkpt>
      <trkpt lat="44.47444" lon="1.55419">
        <ele>178</ele>
        <time>2022-08-10T05:58:51Z</time>
      </trkpt>
      <trkpt lat="44.47441" lon="1.55419">
        <ele>178.9</ele>
        <time>2022-08-10T05:58:53Z</time>
      </trkpt>
      <trkpt lat="44.47437" lon="1.55419">
        <ele>179.8</ele>
        <time>2022-08-10T05:58:55Z</time>
      </trkpt>
      <trkpt lat="44.47434" lon="1.55417">
        <ele>180.2</ele>
        <time>2022-08-10T05:58:57Z</time>
      </trkpt>
      <trkpt lat="44.4743" lon="1.55416">
        <ele>180.9</ele>
        <time>2022-08-10T05:58:59Z</time>
      </trkpt>
      <trkpt lat="44.47426" lon="1.55416">
        <ele>181.7</ele>
        <time>2022-08-10T05:59:01Z</time>
      </trkpt>
      <trkpt lat="44.47422" lon="1.55416">
        <ele>182.7</ele>
        <time>2022-08-10T05:59:03Z</time>
      </trkpt>
      <trkpt lat="44.47419" lon="1.55415">
        <ele>183.2</ele>
        <time>2022-08-10T05:59:05Z</time>
      </trkpt>
      <trkpt lat="44.47415" lon="1.55415">
        <ele>184.1</ele>
        <time>2022-08-10T05:59:07Z</time>
      </trkpt>
      <trkpt lat="44.47412" lon="1.55414">
        <ele>183.8</ele>
        <time>2022-08-10T05:59:09Z</time>
      </trkpt>
      <trkpt lat="44.47408" lon="1.55412">
        <ele>183.2</ele>
        <time>2022-08-10T05:59:11Z</time>
      </trkpt>
      <trkpt lat="44.47403" lon="1.55412">
        <ele>183.3</ele>
        <time>2022-08-10T05:59:13Z</time>
      </trkpt>
      <trkpt lat="44.47399" lon="1.55412">
        <ele>183.6</ele>
        <time>2022-08-10T05:59:15Z</time>
      </trkpt>
      <trkpt lat="44.47395" lon="1.55411">
        <ele>183.7</ele>
        <time>2022-08-10T05:59:17Z</time>
      </trkpt>
      <trkpt lat="44.47391" lon="1.55411">
        <ele>184.1</ele>
        <time>2022-08-10T05:59:19Z</time>
      </trkpt>
      <trkpt lat="44.47387" lon="1.55412">
        <ele>184.9</ele>
        <time>2022-08-10T05:59:21Z</time>
      </trkpt>
      <trkpt lat="44.47382" lon="1.55413">
        <ele>185.9</ele>
        <time>2022-08-10T05:59:23Z</time>
      </trkpt>
      <trkpt lat="44.47378" lon="1.55414">
        <ele>186.7</ele>
        <time>2022-08-10T05:59:25Z</time>
      </trkpt>
      <trkpt lat="44.47374" lon="1.55414">
        <ele>187</ele>
        <time>2022-08-10T05:59:27Z</time>
      </trkpt>
      <trkpt lat="44.47369" lon="1.55413">
        <ele>187.1</ele>
        <time>2022-08-10T05:59:29Z</time>
      </trkpt>
      <trkpt lat="44.47365" lon="1.55414">
        <ele>188.1</ele>
        <time>2022-08-10T05:59:31Z</time>
      </trkpt>
      <trkpt lat="44.47361" lon="1.55415">
        <ele>188.5</ele>
        <time>2022-08-10T05:59:33Z</time>
      </trkpt>
      <trkpt lat="44.47357" lon="1.55414">
        <ele>188.7</ele>
        <time>2022-08-10T05:59:35Z</time>
      </trkpt>
      <trkpt lat="44.47353" lon="1.55414">
        <ele>189</ele>
        <time>2022-08-10T05:59:37Z</time>
      </trkpt>
      <trkpt lat="44.47348" lon="1.55414">
        <ele>189.3</ele>
        <time>2022-08-10T05:59:39Z</time>
      </trkpt>
      <trkpt lat="44.47344" lon="1.55414">
        <ele>189.3</ele>
        <time>2022-08-10T05:59:41Z</time>
      </trkpt>
      <trkpt lat="44.4734" lon="1.55413">
        <ele>189.5</ele>
        <time>2022-08-10T05:59:43Z</time>
      </trkpt>
      <trkpt lat="44.47336" lon="1.55412">
        <ele>189.4</ele>
        <time>2022-08-10T05:59:45Z</time>
      </trkpt>
      <trkpt lat="44.47332" lon="1.55412">
        <ele>189.3</ele>
        <time>2022-08-10T05:59:47Z</time>
      </trkpt>
      <trkpt lat="44.47327" lon="1.55411">
        <ele>189.1</ele>
        <time>2022-08-10T05:59:49Z</time>
      </trkpt>
      <trkpt lat="44.47323" lon="1.5541">
        <ele>188.9</ele>
        <time>2022-08-10T05:59:51Z</time>
      </trkpt>
      <trkpt lat="44.47319" lon="1.55409">
        <ele>188.8</ele>
        <time>2022-08-10T05:59:53Z</time>
      </trkpt>
      <trkpt lat="44.47315" lon="1.55408">
        <ele>188.4</ele>
        <time>2022-08-10T05:59:55Z</time>
      </trkpt>
      <trkpt lat="44.47311" lon="1.55406">
        <ele>187.7</ele>
        <time>2022-08-10T05:59:57Z</time>
      </trkpt>
      <trkpt lat="44.47307" lon="1.55405">
        <ele>187.1</ele>
        <time>2022-08-10T05:59:59Z</time>
      </trkpt>
      <trkpt lat="44.47303" lon="1.55403">
        <ele>186.3</ele>
        <time>2022-08-10T06:00:01Z</time>
      </trkpt>
      <trkpt lat="44.473" lon="1.55401">
        <ele>185.7</ele>
        <time>2022-08-10T06:00:03Z</time>
      </trkpt>
      <trkpt lat="44.47296" lon="1.55399">
        <ele>184.9</ele>
        <time>2022-08-10T06:00:05Z</time>
      </trkpt>
      <trkpt lat="44.47292" lon="1.55397">
        <ele>184.3</ele>
        <time>2022-08-10T06:00:07Z</time>
      </trkpt>
      <trkpt lat="44.47288" lon="1.55395">
        <ele>183.5</ele>
        <time>2022-08-10T06:00:09Z</time>
      </trkpt>
      <trkpt lat="44.47284" lon="1.55392">
        <ele>182.2</ele>
        <time>2022-08-10T06:00:11Z</time>
      </trkpt>
      <trkpt lat="44.4728" lon="1.5539">
        <ele>181.3</ele>
        <time>2022-08-10T06:00:13Z</time>
      </trkpt>
      <trkpt lat="44.47277" lon="1.55391">
        <ele>182</ele>
        <time>2022-08-10T06:00:15Z</time>
      </trkpt>
      <trkpt lat="44.47273" lon="1.55391">
        <ele>182.6</ele>
        <time>2022-08-10T06:00:17Z</time>
      </trkpt>
      <trkpt lat="44.47269" lon="1.55391">
        <ele>183.1</ele>
        <time>2022-08-10T06:00:19Z</time>
      </trkpt>
      <trkpt lat="44.47265" lon="1.55392">
        <ele>183.9</ele>
        <time>2022-08-10T06:00:21Z</time>
      </trkpt>
      <trkpt lat="44.47261" lon="1.55393">
        <ele>184.6</ele>
        <time>2022-08-10T06:00:23Z</time>
      </trkpt>
      <trkpt lat="44.47257" lon="1.55393">
        <ele>185</ele>
        <time>2022-08-10T06:00:25Z</time>
      </trkpt>
      <trkpt lat="44.47254" lon="1.55393">
        <ele>185.1</ele>
        <time>2022-08-10T06:00:27Z</time>
      </trkpt>
      <trkpt lat="44.47251" lon="1.55393">
        <ele>185.8</ele>
        <time>2022-08-10T06:00:29Z</time>
      </trkpt>
      <trkpt lat="44.47248" lon="1.55394">
        <ele>186</ele>
        <time>2022-08-10T06:00:31Z</time>
      </trkpt>
      <trkpt lat="44.47245" lon="1.55393">
        <ele>185.3</ele>
        <time>2022-08-10T06:00:33Z</time>
      </trkpt>
      <trkpt lat="44.47245" lon="1.55393">
        <ele>185.2</ele>
        <time>2022-08-10T06:00:35Z</time>
      </trkpt>
      <trkpt lat="44.47245" lon="1.55393">
        <ele>185.3</ele>
        <time>2022-08-10T06:00:37Z</time>
      </trkpt>
      <trkpt lat="44.47245" lon="1.55393">
        <ele>185.3</ele>
        <time>2022-08-10T06:00:39Z</time>
      </trkpt>
      <trkpt lat="44.47245" lon="1.55393">
        <ele>185.3</ele>
        <time>2022-08-10T06:00:41Z</time>
      </trkpt>
      <trkpt lat="44.47244" lon="1.55393">
        <ele>185.1</ele>
        <time>2022-08-10T06:00:43Z</time>
      </trkpt>
      <trkpt lat="44.4724" lon="1.55393">
        <ele>185.2</ele>
        <time>2022-08-10T06:00:45Z</time>
      </trkpt>
      <trkpt lat="44.47237" lon="1.55393">
        <ele>185</ele>
        <time>2022-08-10T06:00:47Z</time>
      </trkpt>
      <trkpt lat="44.47233" lon="1.55392">
        <ele>184.4</ele>
        <time>2022-08-10T06:00:49Z</time>
      </trkpt>
      <trkpt lat="44.47229" lon="1.55392">
        <ele>183.7</ele>
        <time>2022-08-10T06:00:51Z</time>
      </trkpt>
      <trkpt lat="44.47225" lon="1.55391">
        <ele>183.1</ele>
        <time>2022-08-10T06:00:53Z</time>
      </trkpt>
      <trkpt lat="44.47221" lon="1.5539">
        <ele>182.7</ele>
        <time>2022-08-10T06:00:55Z</time>
      </trkpt>
      <trkpt lat="44.47217" lon="1.55389">
        <ele>182.1</ele>
        <time>2022-08-10T06:00:57Z</time>
      </trkpt>
      <trkpt lat="44.47212" lon="1.55391">
        <ele>182.4</ele>
        <time>2022-08-10T06:00:59Z</time>
      </trkpt>
      <trkpt lat="44.47208" lon="1.55392">
        <ele>182.7</ele>
        <time>2022-08-10T06:01:01Z</time>
      </trkpt>
      <trkpt lat="44.47204" lon="1.55395">
        <ele>183.7</ele>
        <time>2022-08-10T06:01:03Z</time>
      </trkpt>
      <trkpt lat="44.47199" lon="1.55399">
        <ele>184.7</ele>
        <time>2022-08-10T06:01:05Z</time>
      </trkpt>
      <trkpt lat="44.47195" lon="1.55404">
        <ele>186.3</ele>
        <time>2022-08-10T06:01:07Z</time>
      </trkpt>
      <trkpt lat="44.4719" lon="1.55408">
        <ele>187.6</ele>
        <time>2022-08-10T06:01:09Z</time>
      </trkpt>
      <trkpt lat="44.47186" lon="1.55415">
        <ele>189.4</ele>
        <time>2022-08-10T06:01:11Z</time>
      </trkpt>
      <trkpt lat="44.47182" lon="1.55419">
        <ele>190.5</ele>
        <time>2022-08-10T06:01:13Z</time>
      </trkpt>
      <trkpt lat="44.47175" lon="1.55423">
        <ele>191</ele>
        <time>2022-08-10T06:01:15Z</time>
      </trkpt>
      <trkpt lat="44.47169" lon="1.55425">
        <ele>190.9</ele>
        <time>2022-08-10T06:01:17Z</time>
      </trkpt>
      <trkpt lat="44.47162" lon="1.55426">
        <ele>191.3</ele>
        <time>2022-08-10T06:01:19Z</time>
      </trkpt>
      <trkpt lat="44.47155" lon="1.55428">
        <ele>192.2</ele>
        <time>2022-08-10T06:01:21Z</time>
      </trkpt>
      <trkpt lat="44.47149" lon="1.55429">
        <ele>192.6</ele>
        <time>2022-08-10T06:01:23Z</time>
      </trkpt>
      <trkpt lat="44.47142" lon="1.5543">
        <ele>193.2</ele>
        <time>2022-08-10T06:01:25Z</time>
      </trkpt>
      <trkpt lat="44.47134" lon="1.55431">
        <ele>193.7</ele>
        <time>2022-08-10T06:01:27Z</time>
      </trkpt>
      <trkpt lat="44.47126" lon="1.55431">
        <ele>194.2</ele>
        <time>2022-08-10T06:01:29Z</time>
      </trkpt>
      <trkpt lat="44.47118" lon="1.55431">
        <ele>194.3</ele>
        <time>2022-08-10T06:01:31Z</time>
      </trkpt>
      <trkpt lat="44.4711" lon="1.5543">
        <ele>194.4</ele>
        <time>2022-08-10T06:01:33Z</time>
      </trkpt>
      <trkpt lat="44.47102" lon="1.55429">
        <ele>194.4</ele>
        <time>2022-08-10T06:01:35Z</time>
      </trkpt>
      <trkpt lat="44.47095" lon="1.55427">
        <ele>194.2</ele>
        <time>2022-08-10T06:01:37Z</time>
      </trkpt>
      <trkpt lat="44.47087" lon="1.55425">
        <ele>194.1</ele>
        <time>2022-08-10T06:01:39Z</time>
      </trkpt>
      <trkpt lat="44.47079" lon="1.55422">
        <ele>194.1</ele>
        <time>2022-08-10T06:01:41Z</time>
      </trkpt>
      <trkpt lat="44.47073" lon="1.55414">
        <ele>193.3</ele>
        <time>2022-08-10T06:01:43Z</time>
      </trkpt>
      <trkpt lat="44.47069" lon="1.55403">
        <ele>191</ele>
        <time>2022-08-10T06:01:45Z</time>
      </trkpt>
      <trkpt lat="44.47066" lon="1.55394">
        <ele>189</ele>
        <time>2022-08-10T06:01:47Z</time>
      </trkpt>
      <trkpt lat="44.47061" lon="1.55387">
        <ele>187.9</ele>
        <time>2022-08-10T06:01:49Z</time>
      </trkpt>
      <trkpt lat="44.47054" lon="1.55381">
        <ele>187.5</ele>
        <time>2022-08-10T06:01:51Z</time>
      </trkpt>
      <trkpt lat="44.47048" lon="1.55376">
        <ele>187.2</ele>
        <time>2022-08-10T06:01:53Z</time>
      </trkpt>
      <trkpt lat="44.47041" lon="1.55371">
        <ele>187</ele>
        <time>2022-08-10T06:01:55Z</time>
      </trkpt>
      <trkpt lat="44.47034" lon="1.55365">
        <ele>186.6</ele>
        <time>2022-08-10T06:01:57Z</time>
      </trkpt>
      <trkpt lat="44.47027" lon="1.5536">
        <ele>186.1</ele>
        <time>2022-08-10T06:01:59Z</time>
      </trkpt>
      <trkpt lat="44.4702" lon="1.55356">
        <ele>186.2</ele>
        <time>2022-08-10T06:02:01Z</time>
      </trkpt>
      <trkpt lat="44.47013" lon="1.55352">
        <ele>186.4</ele>
        <time>2022-08-10T06:02:03Z</time>
      </trkpt>
      <trkpt lat="44.47006" lon="1.55348">
        <ele>186.2</ele>
        <time>2022-08-10T06:02:05Z</time>
      </trkpt>
      <trkpt lat="44.46998" lon="1.55343">
        <ele>186.2</ele>
        <time>2022-08-10T06:02:07Z</time>
      </trkpt>
      <trkpt lat="44.4699" lon="1.5534">
        <ele>186.5</ele>
        <time>2022-08-10T06:02:09Z</time>
      </trkpt>
      <trkpt lat="44.46982" lon="1.55336">
        <ele>186.8</ele>
        <time>2022-08-10T06:02:11Z</time>
      </trkpt>
      <trkpt lat="44.46975" lon="1.55332">
        <ele>186.9</ele>
        <time>2022-08-10T06:02:13Z</time>
      </trkpt>
      <trkpt lat="44.46967" lon="1.55329">
        <ele>186.8</ele>
        <time>2022-08-10T06:02:15Z</time>
      </trkpt>
      <trkpt lat="44.46959" lon="1.55325">
        <ele>186.8</ele>
        <time>2022-08-10T06:02:17Z</time>
      </trkpt>
      <trkpt lat="44.46951" lon="1.55322">
        <ele>186.9</ele>
        <time>2022-08-10T06:02:19Z</time>
      </trkpt>
      <trkpt lat="44.46944" lon="1.55319">
        <ele>187.2</ele>
        <time>2022-08-10T06:02:21Z</time>
      </trkpt>
      <trkpt lat="44.46936" lon="1.55316">
        <ele>187.4</ele>
        <time>2022-08-10T06:02:23Z</time>
      </trkpt>
      <trkpt lat="44.46928" lon="1.55312">
        <ele>187.8</ele>
        <time>2022-08-10T06:02:25Z</time>
      </trkpt>
      <trkpt lat="44.46919" lon="1.55309">
        <ele>188.2</ele>
        <time>2022-08-10T06:02:27Z</time>
      </trkpt>
      <trkpt lat="44.46911" lon="1.55306">
        <ele>188.7</ele>
        <time>2022-08-10T06:02:29Z</time>
      </trkpt>
      <trkpt lat="44.46902" lon="1.55303">
        <ele>189.3</ele>
        <time>2022-08-10T06:02:31Z</time>
      </trkpt>
      <trkpt lat="44.46894" lon="1.553">
        <ele>189.8</ele>
        <time>2022-08-10T06:02:33Z</time>
      </trkpt>
      <trkpt lat="44.46885" lon="1.55296">
        <ele>190</ele>
        <time>2022-08-10T06:02:35Z</time>
      </trkpt>
      <trkpt lat="44.46876" lon="1.55292">
        <ele>190.3</ele>
        <time>2022-08-10T06:02:37Z</time>
      </trkpt>
      <trkpt lat="44.46868" lon="1.55287">
        <ele>190.2</ele>
        <time>2022-08-10T06:02:39Z</time>
      </trkpt>
      <trkpt lat="44.4686" lon="1.55283">
        <ele>190.4</ele>
        <time>2022-08-10T06:02:41Z</time>
      </trkpt>
      <trkpt lat="44.46851" lon="1.55278">
        <ele>190.4</ele>
        <time>2022-08-10T06:02:43Z</time>
      </trkpt>
      <trkpt lat="44.46842" lon="1.55274">
        <ele>190.5</ele>
        <time>2022-08-10T06:02:45Z</time>
      </trkpt>
      <trkpt lat="44.46834" lon="1.55269">
        <ele>190.7</ele>
        <time>2022-08-10T06:02:47Z</time>
      </trkpt>
      <trkpt lat="44.46826" lon="1.55265">
        <ele>191.4</ele>
        <time>2022-08-10T06:02:49Z</time>
      </trkpt>
      <trkpt lat="44.46817" lon="1.5526">
        <ele>191.9</ele>
        <time>2022-08-10T06:02:51Z</time>
      </trkpt>
      <trkpt lat="44.46809" lon="1.55255">
        <ele>192.5</ele>
        <time>2022-08-10T06:02:53Z</time>
      </trkpt>
      <trkpt lat="44.46801" lon="1.5525">
        <ele>193.1</ele>
        <time>2022-08-10T06:02:55Z</time>
      </trkpt>
      <trkpt lat="44.46794" lon="1.55242">
        <ele>192.4</ele>
        <time>2022-08-10T06:02:57Z</time>
      </trkpt>
      <trkpt lat="44.46787" lon="1.55233">
        <ele>191.1</ele>
        <time>2022-08-10T06:02:59Z</time>
      </trkpt>
      <trkpt lat="44.4678" lon="1.55224">
        <ele>189.8</ele>
        <time>2022-08-10T06:03:01Z</time>
      </trkpt>
      <trkpt lat="44.46774" lon="1.55215">
        <ele>188.7</ele>
        <time>2022-08-10T06:03:03Z</time>
      </trkpt>
      <trkpt lat="44.46768" lon="1.55207">
        <ele>187.6</ele>
        <time>2022-08-10T06:03:05Z</time>
      </trkpt>
      <trkpt lat="44.46762" lon="1.55199">
        <ele>186.8</ele>
        <time>2022-08-10T06:03:07Z</time>
      </trkpt>
      <trkpt lat="44.46757" lon="1.55191">
        <ele>185.7</ele>
        <time>2022-08-10T06:03:09Z</time>
      </trkpt>
      <trkpt lat="44.46752" lon="1.55183">
        <ele>184.6</ele>
        <time>2022-08-10T06:03:11Z</time>
      </trkpt>
      <trkpt lat="44.46746" lon="1.55175">
        <ele>183.7</ele>
        <time>2022-08-10T06:03:13Z</time>
      </trkpt>
      <trkpt lat="44.46741" lon="1.55167">
        <ele>182.9</ele>
        <time>2022-08-10T06:03:15Z</time>
      </trkpt>
      <trkpt lat="44.46734" lon="1.55161">
        <ele>182.5</ele>
        <time>2022-08-10T06:03:17Z</time>
      </trkpt>
      <trkpt lat="44.46728" lon="1.55154">
        <ele>182</ele>
        <time>2022-08-10T06:03:19Z</time>
      </trkpt>
      <trkpt lat="44.46721" lon="1.55147">
        <ele>181.6</ele>
        <time>2022-08-10T06:03:21Z</time>
      </trkpt>
      <trkpt lat="44.46715" lon="1.5514">
        <ele>181.3</ele>
        <time>2022-08-10T06:03:23Z</time>
      </trkpt>
      <trkpt lat="44.46709" lon="1.55134">
        <ele>181</ele>
        <time>2022-08-10T06:03:25Z</time>
      </trkpt>
      <trkpt lat="44.46703" lon="1.55128">
        <ele>180.8</ele>
        <time>2022-08-10T06:03:27Z</time>
      </trkpt>
      <trkpt lat="44.46697" lon="1.55121">
        <ele>180.5</ele>
        <time>2022-08-10T06:03:29Z</time>
      </trkpt>
      <trkpt lat="44.4669" lon="1.55115">
        <ele>180.4</ele>
        <time>2022-08-10T06:03:31Z</time>
      </trkpt>
      <trkpt lat="44.46685" lon="1.55107">
        <ele>179.8</ele>
        <time>2022-08-10T06:03:33Z</time>
      </trkpt>
      <trkpt lat="44.46679" lon="1.551">
        <ele>179.4</ele>
        <time>2022-08-10T06:03:35Z</time>
      </trkpt>
      <trkpt lat="44.46674" lon="1.55094">
        <ele>179</ele>
        <time>2022-08-10T06:03:37Z</time>
      </trkpt>
      <trkpt lat="44.46669" lon="1.55088">
        <ele>178.8</ele>
        <time>2022-08-10T06:03:39Z</time>
      </trkpt>
      <trkpt lat="44.46664" lon="1.55084">
        <ele>178.2</ele>
        <time>2022-08-10T06:03:41Z</time>
      </trkpt>
      <trkpt lat="44.46658" lon="1.55081">
        <ele>177.2</ele>
        <time>2022-08-10T06:03:43Z</time>
      </trkpt>
      <trkpt lat="44.46652" lon="1.55079">
        <ele>176.7</ele>
        <time>2022-08-10T06:03:45Z</time>
      </trkpt>
      <trkpt lat="44.46646" lon="1.55079">
        <ele>177.1</ele>
        <time>2022-08-10T06:03:47Z</time>
      </trkpt>
      <trkpt lat="44.4664" lon="1.55082">
        <ele>178.2</ele>
        <time>2022-08-10T06:03:49Z</time>
      </trkpt>
      <trkpt lat="44.46633" lon="1.55084">
        <ele>179</ele>
        <time>2022-08-10T06:03:51Z</time>
      </trkpt>
      <trkpt lat="44.46627" lon="1.55087">
        <ele>179.8</ele>
        <time>2022-08-10T06:03:53Z</time>
      </trkpt>
      <trkpt lat="44.4662" lon="1.5509">
        <ele>180.8</ele>
        <time>2022-08-10T06:03:55Z</time>
      </trkpt>
      <trkpt lat="44.46614" lon="1.55095">
        <ele>182</ele>
        <time>2022-08-10T06:03:57Z</time>
      </trkpt>
      <trkpt lat="44.46608" lon="1.55099">
        <ele>182.9</ele>
        <time>2022-08-10T06:03:59Z</time>
      </trkpt>
      <trkpt lat="44.46602" lon="1.55105">
        <ele>184.1</ele>
        <time>2022-08-10T06:04:01Z</time>
      </trkpt>
      <trkpt lat="44.46596" lon="1.5511">
        <ele>185</ele>
        <time>2022-08-10T06:04:03Z</time>
      </trkpt>
      <trkpt lat="44.4659" lon="1.55116">
        <ele>186</ele>
        <time>2022-08-10T06:04:05Z</time>
      </trkpt>
      <trkpt lat="44.46585" lon="1.55122">
        <ele>187</ele>
        <time>2022-08-10T06:04:07Z</time>
      </trkpt>
      <trkpt lat="44.46579" lon="1.55129">
        <ele>188.2</ele>
        <time>2022-08-10T06:04:09Z</time>
      </trkpt>
      <trkpt lat="44.46575" lon="1.55135">
        <ele>189</ele>
        <time>2022-08-10T06:04:11Z</time>
      </trkpt>
      <trkpt lat="44.4657" lon="1.55142">
        <ele>189.8</ele>
        <time>2022-08-10T06:04:13Z</time>
      </trkpt>
      <trkpt lat="44.46565" lon="1.55149">
        <ele>190.3</ele>
        <time>2022-08-10T06:04:15Z</time>
      </trkpt>
      <trkpt lat="44.4656" lon="1.55156">
        <ele>190.7</ele>
        <time>2022-08-10T06:04:17Z</time>
      </trkpt>
      <trkpt lat="44.46554" lon="1.55164">
        <ele>190.9</ele>
        <time>2022-08-10T06:04:19Z</time>
      </trkpt>
      <trkpt lat="44.46549" lon="1.5517">
        <ele>191.1</ele>
        <time>2022-08-10T06:04:21Z</time>
      </trkpt>
      <trkpt lat="44.46543" lon="1.55178">
        <ele>191.5</ele>
        <time>2022-08-10T06:04:23Z</time>
      </trkpt>
      <trkpt lat="44.46538" lon="1.55186">
        <ele>191.8</ele>
        <time>2022-08-10T06:04:25Z</time>
      </trkpt>
      <trkpt lat="44.46532" lon="1.55194">
        <ele>192.1</ele>
        <time>2022-08-10T06:04:27Z</time>
      </trkpt>
      <trkpt lat="44.46527" lon="1.55202">
        <ele>192.4</ele>
        <time>2022-08-10T06:04:29Z</time>
      </trkpt>
      <trkpt lat="44.46522" lon="1.5521">
        <ele>192.5</ele>
        <time>2022-08-10T06:04:31Z</time>
      </trkpt>
      <trkpt lat="44.46516" lon="1.55219">
        <ele>192.7</ele>
        <time>2022-08-10T06:04:33Z</time>
      </trkpt>
      <trkpt lat="44.46511" lon="1.55229">
        <ele>193</ele>
        <time>2022-08-10T06:04:35Z</time>
      </trkpt>
      <trkpt lat="44.46506" lon="1.55238">
        <ele>192.9</ele>
        <time>2022-08-10T06:04:37Z</time>
      </trkpt>
      <trkpt lat="44.46501" lon="1.55247">
        <ele>192.9</ele>
        <time>2022-08-10T06:04:39Z</time>
      </trkpt>
      <trkpt lat="44.46496" lon="1.55256">
        <ele>193.8</ele>
        <time>2022-08-10T06:04:41Z</time>
      </trkpt>
      <trkpt lat="44.46491" lon="1.55265">
        <ele>194.9</ele>
        <time>2022-08-10T06:04:43Z</time>
      </trkpt>
      <trkpt lat="44.46485" lon="1.55273">
        <ele>195.9</ele>
        <time>2022-08-10T06:04:45Z</time>
      </trkpt>
      <trkpt lat="44.46479" lon="1.55282">
        <ele>196.7</ele>
        <time>2022-08-10T06:04:47Z</time>
      </trkpt>
      <trkpt lat="44.46474" lon="1.55289">
        <ele>197.3</ele>
        <time>2022-08-10T06:04:49Z</time>
      </trkpt>
      <trkpt lat="44.46468" lon="1.55297">
        <ele>197.9</ele>
        <time>2022-08-10T06:04:51Z</time>
      </trkpt>
      <trkpt lat="44.46462" lon="1.55303">
        <ele>198.2</ele>
        <time>2022-08-10T06:04:53Z</time>
      </trkpt>
      <trkpt lat="44.46454" lon="1.55306">
        <ele>198</ele>
        <time>2022-08-10T06:04:55Z</time>
      </trkpt>
      <trkpt lat="44.46446" lon="1.55302">
        <ele>197.3</ele>
        <time>2022-08-10T06:04:57Z</time>
      </trkpt>
      <trkpt lat="44.4644" lon="1.5529">
        <ele>196.2</ele>
        <time>2022-08-10T06:04:59Z</time>
      </trkpt>
      <trkpt lat="44.4644" lon="1.55276">
        <ele>195.4</ele>
        <time>2022-08-10T06:05:01Z</time>
      </trkpt>
      <trkpt lat="44.4644" lon="1.55262">
        <ele>194.5</ele>
        <time>2022-08-10T06:05:03Z</time>
      </trkpt>
      <trkpt lat="44.46438" lon="1.55248">
        <ele>193.7</ele>
        <time>2022-08-10T06:05:05Z</time>
      </trkpt>
      <trkpt lat="44.46435" lon="1.55233">
        <ele>192.9</ele>
        <time>2022-08-10T06:05:07Z</time>
      </trkpt>
      <trkpt lat="44.46429" lon="1.55221">
        <ele>192.5</ele>
        <time>2022-08-10T06:05:09Z</time>
      </trkpt>
      <trkpt lat="44.46423" lon="1.55212">
        <ele>192.3</ele>
        <time>2022-08-10T06:05:11Z</time>
      </trkpt>
      <trkpt lat="44.46417" lon="1.55205">
        <ele>192.3</ele>
        <time>2022-08-10T06:05:13Z</time>
      </trkpt>
      <trkpt lat="44.46411" lon="1.55197">
        <ele>192.6</ele>
        <time>2022-08-10T06:05:15Z</time>
      </trkpt>
      <trkpt lat="44.4641" lon="1.55192">
        <ele>192.5</ele>
        <time>2022-08-10T06:05:17Z</time>
      </trkpt>
      <trkpt lat="44.4641" lon="1.55192">
        <ele>192.5</ele>
        <time>2022-08-10T06:05:19Z</time>
      </trkpt>
      <trkpt lat="44.4641" lon="1.55192">
        <ele>192.5</ele>
        <time>2022-08-10T06:05:21Z</time>
      </trkpt>
      <trkpt lat="44.46409" lon="1.55192">
        <ele>192.6</ele>
        <time>2022-08-10T06:05:23Z</time>
      </trkpt>
      <trkpt lat="44.46409" lon="1.55192">
        <ele>192.6</ele>
        <time>2022-08-10T06:05:25Z</time>
      </trkpt>
      <trkpt lat="44.46409" lon="1.55191">
        <ele>192.6</ele>
        <time>2022-08-10T06:05:27Z</time>
      </trkpt>
      <trkpt lat="44.46407" lon="1.55164">
        <ele>191.8</ele>
        <time>2022-08-10T06:05:49Z</time>
      </trkpt>
      <trkpt lat="44.46412" lon="1.55154">
        <ele>193.1</ele>
        <time>2022-08-10T06:05:51Z</time>
      </trkpt>
      <trkpt lat="44.4642" lon="1.55145">
        <ele>193.8</ele>
        <time>2022-08-10T06:05:53Z</time>
      </trkpt>
      <trkpt lat="44.46427" lon="1.5514">
        <ele>193.8</ele>
        <time>2022-08-10T06:05:55Z</time>
      </trkpt>
      <trkpt lat="44.46433" lon="1.55136">
        <ele>193.7</ele>
        <time>2022-08-10T06:05:57Z</time>
      </trkpt>
      <trkpt lat="44.46439" lon="1.55132">
        <ele>193.5</ele>
        <time>2022-08-10T06:05:59Z</time>
      </trkpt>
      <trkpt lat="44.46445" lon="1.55128">
        <ele>193.3</ele>
        <time>2022-08-10T06:06:01Z</time>
      </trkpt>
      <trkpt lat="44.4645" lon="1.55123">
        <ele>193.2</ele>
        <time>2022-08-10T06:06:03Z</time>
      </trkpt>
      <trkpt lat="44.46455" lon="1.55119">
        <ele>193.1</ele>
        <time>2022-08-10T06:06:05Z</time>
      </trkpt>
      <trkpt lat="44.4646" lon="1.55115">
        <ele>192.9</ele>
        <time>2022-08-10T06:06:07Z</time>
      </trkpt>
      <trkpt lat="44.46464" lon="1.5511">
        <ele>192.8</ele>
        <time>2022-08-10T06:06:09Z</time>
      </trkpt>
      <trkpt lat="44.46468" lon="1.55104">
        <ele>192.8</ele>
        <time>2022-08-10T06:06:11Z</time>
      </trkpt>
      <trkpt lat="44.46473" lon="1.55098">
        <ele>192.9</ele>
        <time>2022-08-10T06:06:13Z</time>
      </trkpt>
      <trkpt lat="44.46476" lon="1.55092">
        <ele>193</ele>
        <time>2022-08-10T06:06:15Z</time>
      </trkpt>
      <trkpt lat="44.46478" lon="1.55085">
        <ele>193.2</ele>
        <time>2022-08-10T06:06:17Z</time>
      </trkpt>
      <trkpt lat="44.46481" lon="1.55078">
        <ele>193.6</ele>
        <time>2022-08-10T06:06:19Z</time>
      </trkpt>
      <trkpt lat="44.46485" lon="1.55072">
        <ele>194</ele>
        <time>2022-08-10T06:06:21Z</time>
      </trkpt>
      <trkpt lat="44.46488" lon="1.55065">
        <ele>194.3</ele>
        <time>2022-08-10T06:06:23Z</time>
      </trkpt>
      <trkpt lat="44.46491" lon="1.55059">
        <ele>194.6</ele>
        <time>2022-08-10T06:06:25Z</time>
      </trkpt>
      <trkpt lat="44.46493" lon="1.55052">
        <ele>195.1</ele>
        <time>2022-08-10T06:06:27Z</time>
      </trkpt>
      <trkpt lat="44.46495" lon="1.55046">
        <ele>195.4</ele>
        <time>2022-08-10T06:06:29Z</time>
      </trkpt>
      <trkpt lat="44.46498" lon="1.5504">
        <ele>195.6</ele>
        <time>2022-08-10T06:06:31Z</time>
      </trkpt>
      <trkpt lat="44.465" lon="1.55033">
        <ele>195.9</ele>
        <time>2022-08-10T06:06:33Z</time>
      </trkpt>
      <trkpt lat="44.46502" lon="1.55027">
        <ele>196</ele>
        <time>2022-08-10T06:06:35Z</time>
      </trkpt>
      <trkpt lat="44.46505" lon="1.55021">
        <ele>195.8</ele>
        <time>2022-08-10T06:06:37Z</time>
      </trkpt>
      <trkpt lat="44.46507" lon="1.55014">
        <ele>195.7</ele>
        <time>2022-08-10T06:06:39Z</time>
      </trkpt>
      <trkpt lat="44.4651" lon="1.55008">
        <ele>195.2</ele>
        <time>2022-08-10T06:06:41Z</time>
      </trkpt>
      <trkpt lat="44.46513" lon="1.55002">
        <ele>194.6</ele>
        <time>2022-08-10T06:06:43Z</time>
      </trkpt>
      <trkpt lat="44.46515" lon="1.54996">
        <ele>194.1</ele>
        <time>2022-08-10T06:06:45Z</time>
      </trkpt>
      <trkpt lat="44.46518" lon="1.5499">
        <ele>193.3</ele>
        <time>2022-08-10T06:06:47Z</time>
      </trkpt>
      <trkpt lat="44.4652" lon="1.54983">
        <ele>192.4</ele>
        <time>2022-08-10T06:06:49Z</time>
      </trkpt>
      <trkpt lat="44.46523" lon="1.54978">
        <ele>191.5</ele>
        <time>2022-08-10T06:06:51Z</time>
      </trkpt>
      <trkpt lat="44.46525" lon="1.54971">
        <ele>190.6</ele>
        <time>2022-08-10T06:06:53Z</time>
      </trkpt>
      <trkpt lat="44.46528" lon="1.54965">
        <ele>189.6</ele>
        <time>2022-08-10T06:06:55Z</time>
      </trkpt>
      <trkpt lat="44.4653" lon="1.54958">
        <ele>188.6</ele>
        <time>2022-08-10T06:06:57Z</time>
      </trkpt>
      <trkpt lat="44.46532" lon="1.54952">
        <ele>187.4</ele>
        <time>2022-08-10T06:06:59Z</time>
      </trkpt>
      <trkpt lat="44.46534" lon="1.54946">
        <ele>186.5</ele>
        <time>2022-08-10T06:07:01Z</time>
      </trkpt>
      <trkpt lat="44.46537" lon="1.5494">
        <ele>185.4</ele>
        <time>2022-08-10T06:07:03Z</time>
      </trkpt>
      <trkpt lat="44.46537" lon="1.54934">
        <ele>185</ele>
        <time>2022-08-10T06:07:05Z</time>
      </trkpt>
      <trkpt lat="44.46538" lon="1.54926">
        <ele>184.7</ele>
        <time>2022-08-10T06:07:07Z</time>
      </trkpt>
      <trkpt lat="44.46537" lon="1.5492">
        <ele>185</ele>
        <time>2022-08-10T06:07:09Z</time>
      </trkpt>
      <trkpt lat="44.46536" lon="1.54914">
        <ele>185.6</ele>
        <time>2022-08-10T06:07:11Z</time>
      </trkpt>
      <trkpt lat="44.46534" lon="1.54908">
        <ele>186.2</ele>
        <time>2022-08-10T06:07:13Z</time>
      </trkpt>
      <trkpt lat="44.46532" lon="1.54903">
        <ele>186.8</ele>
        <time>2022-08-10T06:07:15Z</time>
      </trkpt>
      <trkpt lat="44.46529" lon="1.54897">
        <ele>187.8</ele>
        <time>2022-08-10T06:07:17Z</time>
      </trkpt>
      <trkpt lat="44.46528" lon="1.54891">
        <ele>188.3</ele>
        <time>2022-08-10T06:07:19Z</time>
      </trkpt>
      <trkpt lat="44.46525" lon="1.54885">
        <ele>189.4</ele>
        <time>2022-08-10T06:07:21Z</time>
      </trkpt>
      <trkpt lat="44.46523" lon="1.54878">
        <ele>190.3</ele>
        <time>2022-08-10T06:07:23Z</time>
      </trkpt>
      <trkpt lat="44.4652" lon="1.54872">
        <ele>191.2</ele>
        <time>2022-08-10T06:07:25Z</time>
      </trkpt>
      <trkpt lat="44.46517" lon="1.54865">
        <ele>192.5</ele>
        <time>2022-08-10T06:07:27Z</time>
      </trkpt>
      <trkpt lat="44.46515" lon="1.5486">
        <ele>193.7</ele>
        <time>2022-08-10T06:07:29Z</time>
      </trkpt>
      <trkpt lat="44.46512" lon="1.54855">
        <ele>195.1</ele>
        <time>2022-08-10T06:07:31Z</time>
      </trkpt>
      <trkpt lat="44.46509" lon="1.5485">
        <ele>196.8</ele>
        <time>2022-08-10T06:07:33Z</time>
      </trkpt>
      <trkpt lat="44.46506" lon="1.54845">
        <ele>198.3</ele>
        <time>2022-08-10T06:07:35Z</time>
      </trkpt>
      <trkpt lat="44.46502" lon="1.5484">
        <ele>200.2</ele>
        <time>2022-08-10T06:07:37Z</time>
      </trkpt>
      <trkpt lat="44.46498" lon="1.54835">
        <ele>201.9</ele>
        <time>2022-08-10T06:07:39Z</time>
      </trkpt>
      <trkpt lat="44.46494" lon="1.5483">
        <ele>202.9</ele>
        <time>2022-08-10T06:07:41Z</time>
      </trkpt>
      <trkpt lat="44.4649" lon="1.54825">
        <ele>203.2</ele>
        <time>2022-08-10T06:07:43Z</time>
      </trkpt>
      <trkpt lat="44.46487" lon="1.54819">
        <ele>203.4</ele>
        <time>2022-08-10T06:07:45Z</time>
      </trkpt>
      <trkpt lat="44.46483" lon="1.54813">
        <ele>204</ele>
        <time>2022-08-10T06:07:47Z</time>
      </trkpt>
      <trkpt lat="44.46479" lon="1.54808">
        <ele>204.4</ele>
        <time>2022-08-10T06:07:49Z</time>
      </trkpt>
      <trkpt lat="44.46476" lon="1.54804">
        <ele>205</ele>
        <time>2022-08-10T06:07:51Z</time>
      </trkpt>
      <trkpt lat="44.46473" lon="1.54796">
        <ele>205</ele>
        <time>2022-08-10T06:07:53Z</time>
      </trkpt>
      <trkpt lat="44.4647" lon="1.5479">
        <ele>205.1</ele>
        <time>2022-08-10T06:07:55Z</time>
      </trkpt>
      <trkpt lat="44.46467" lon="1.54784">
        <ele>205.6</ele>
        <time>2022-08-10T06:07:57Z</time>
      </trkpt>
      <trkpt lat="44.46463" lon="1.54777">
        <ele>206.1</ele>
        <time>2022-08-10T06:07:59Z</time>
      </trkpt>
      <trkpt lat="44.4646" lon="1.54771">
        <ele>206.5</ele>
        <time>2022-08-10T06:08:01Z</time>
      </trkpt>
      <trkpt lat="44.46457" lon="1.54764">
        <ele>207.1</ele>
        <time>2022-08-10T06:08:03Z</time>
      </trkpt>
      <trkpt lat="44.46453" lon="1.54758">
        <ele>207.9</ele>
        <time>2022-08-10T06:08:05Z</time>
      </trkpt>
      <trkpt lat="44.4645" lon="1.54752">
        <ele>208.8</ele>
        <time>2022-08-10T06:08:07Z</time>
      </trkpt>
      <trkpt lat="44.46447" lon="1.54745">
        <ele>210</ele>
        <time>2022-08-10T06:08:09Z</time>
      </trkpt>
      <trkpt lat="44.46444" lon="1.54739">
        <ele>211.3</ele>
        <time>2022-08-10T06:08:11Z</time>
      </trkpt>
      <trkpt lat="44.46442" lon="1.54732">
        <ele>212.5</ele>
        <time>2022-08-10T06:08:13Z</time>
      </trkpt>
      <trkpt lat="44.46439" lon="1.54725">
        <ele>213.4</ele>
        <time>2022-08-10T06:08:15Z</time>
      </trkpt>
      <trkpt lat="44.46437" lon="1.54717">
        <ele>214.2</ele>
        <time>2022-08-10T06:08:17Z</time>
      </trkpt>
      <trkpt lat="44.46435" lon="1.5471">
        <ele>215</ele>
        <time>2022-08-10T06:08:19Z</time>
      </trkpt>
      <trkpt lat="44.46435" lon="1.54701">
        <ele>215</ele>
        <time>2022-08-10T06:08:21Z</time>
      </trkpt>
      <trkpt lat="44.46434" lon="1.54693">
        <ele>214.7</ele>
        <time>2022-08-10T06:08:23Z</time>
      </trkpt>
      <trkpt lat="44.46434" lon="1.54684">
        <ele>214</ele>
        <time>2022-08-10T06:08:25Z</time>
      </trkpt>
      <trkpt lat="44.46435" lon="1.54674">
        <ele>213.1</ele>
        <time>2022-08-10T06:08:27Z</time>
      </trkpt>
      <trkpt lat="44.46436" lon="1.54664">
        <ele>211.6</ele>
        <time>2022-08-10T06:08:29Z</time>
      </trkpt>
      <trkpt lat="44.46438" lon="1.54654">
        <ele>210.7</ele>
        <time>2022-08-10T06:08:31Z</time>
      </trkpt>
      <trkpt lat="44.4644" lon="1.54645">
        <ele>209.8</ele>
        <time>2022-08-10T06:08:33Z</time>
      </trkpt>
      <trkpt lat="44.46442" lon="1.54635">
        <ele>208.6</ele>
        <time>2022-08-10T06:08:35Z</time>
      </trkpt>
      <trkpt lat="44.46443" lon="1.54626">
        <ele>207.9</ele>
        <time>2022-08-10T06:08:37Z</time>
      </trkpt>
      <trkpt lat="44.46444" lon="1.54616">
        <ele>207.4</ele>
        <time>2022-08-10T06:08:39Z</time>
      </trkpt>
      <trkpt lat="44.46444" lon="1.54606">
        <ele>207.4</ele>
        <time>2022-08-10T06:08:41Z</time>
      </trkpt>
      <trkpt lat="44.46444" lon="1.54596">
        <ele>207.8</ele>
        <time>2022-08-10T06:08:43Z</time>
      </trkpt>
      <trkpt lat="44.46444" lon="1.54586">
        <ele>208.3</ele>
        <time>2022-08-10T06:08:45Z</time>
      </trkpt>
      <trkpt lat="44.46444" lon="1.54577">
        <ele>208.4</ele>
        <time>2022-08-10T06:08:47Z</time>
      </trkpt>
      <trkpt lat="44.46445" lon="1.54567">
        <ele>208.4</ele>
        <time>2022-08-10T06:08:49Z</time>
      </trkpt>
      <trkpt lat="44.46446" lon="1.54556">
        <ele>207.9</ele>
        <time>2022-08-10T06:08:51Z</time>
      </trkpt>
      <trkpt lat="44.46447" lon="1.54546">
        <ele>207.6</ele>
        <time>2022-08-10T06:08:53Z</time>
      </trkpt>
      <trkpt lat="44.4645" lon="1.54535">
        <ele>206.3</ele>
        <time>2022-08-10T06:08:55Z</time>
      </trkpt>
      <trkpt lat="44.46451" lon="1.54526">
        <ele>205.3</ele>
        <time>2022-08-10T06:08:57Z</time>
      </trkpt>
      <trkpt lat="44.46453" lon="1.54516">
        <ele>204.5</ele>
        <time>2022-08-10T06:08:59Z</time>
      </trkpt>
      <trkpt lat="44.46455" lon="1.54506">
        <ele>203.2</ele>
        <time>2022-08-10T06:09:01Z</time>
      </trkpt>
      <trkpt lat="44.46458" lon="1.54496">
        <ele>201.8</ele>
        <time>2022-08-10T06:09:03Z</time>
      </trkpt>
      <trkpt lat="44.4646" lon="1.54485">
        <ele>201.3</ele>
        <time>2022-08-10T06:09:05Z</time>
      </trkpt>
      <trkpt lat="44.46462" lon="1.54473">
        <ele>201.2</ele>
        <time>2022-08-10T06:09:07Z</time>
      </trkpt>
      <trkpt lat="44.46464" lon="1.54462">
        <ele>200.6</ele>
        <time>2022-08-10T06:09:09Z</time>
      </trkpt>
      <trkpt lat="44.46466" lon="1.54451">
        <ele>200.6</ele>
        <time>2022-08-10T06:09:11Z</time>
      </trkpt>
      <trkpt lat="44.46466" lon="1.54441">
        <ele>202.3</ele>
        <time>2022-08-10T06:09:13Z</time>
      </trkpt>
      <trkpt lat="44.46464" lon="1.54431">
        <ele>205.6</ele>
        <time>2022-08-10T06:09:15Z</time>
      </trkpt>
      <trkpt lat="44.46461" lon="1.54422">
        <ele>208.8</ele>
        <time>2022-08-10T06:09:17Z</time>
      </trkpt>
      <trkpt lat="44.46459" lon="1.54412">
        <ele>211.5</ele>
        <time>2022-08-10T06:09:19Z</time>
      </trkpt>
      <trkpt lat="44.46458" lon="1.54403">
        <ele>213.1</ele>
        <time>2022-08-10T06:09:21Z</time>
      </trkpt>
      <trkpt lat="44.46457" lon="1.54393">
        <ele>213.8</ele>
        <time>2022-08-10T06:09:23Z</time>
      </trkpt>
      <trkpt lat="44.46458" lon="1.54385">
        <ele>213.4</ele>
        <time>2022-08-10T06:09:25Z</time>
      </trkpt>
      <trkpt lat="44.4646" lon="1.54376">
        <ele>213</ele>
        <time>2022-08-10T06:09:27Z</time>
      </trkpt>
      <trkpt lat="44.4646" lon="1.54367">
        <ele>212.9</ele>
        <time>2022-08-10T06:09:29Z</time>
      </trkpt>
      <trkpt lat="44.46462" lon="1.54357">
        <ele>212.3</ele>
        <time>2022-08-10T06:09:31Z</time>
      </trkpt>
      <trkpt lat="44.46462" lon="1.54348">
        <ele>212.3</ele>
        <time>2022-08-10T06:09:33Z</time>
      </trkpt>
      <trkpt lat="44.46464" lon="1.54339">
        <ele>211.8</ele>
        <time>2022-08-10T06:09:35Z</time>
      </trkpt>
      <trkpt lat="44.46466" lon="1.5433">
        <ele>211</ele>
        <time>2022-08-10T06:09:37Z</time>
      </trkpt>
      <trkpt lat="44.46469" lon="1.5432">
        <ele>209.7</ele>
        <time>2022-08-10T06:09:39Z</time>
      </trkpt>
      <trkpt lat="44.46475" lon="1.54312">
        <ele>206.6</ele>
        <time>2022-08-10T06:09:41Z</time>
      </trkpt>
      <trkpt lat="44.46482" lon="1.54305">
        <ele>203.3</ele>
        <time>2022-08-10T06:09:43Z</time>
      </trkpt>
      <trkpt lat="44.46487" lon="1.54297">
        <ele>201.2</ele>
        <time>2022-08-10T06:09:45Z</time>
      </trkpt>
      <trkpt lat="44.46491" lon="1.54286">
        <ele>200.8</ele>
        <time>2022-08-10T06:09:47Z</time>
      </trkpt>
      <trkpt lat="44.46494" lon="1.54275">
        <ele>201.2</ele>
        <time>2022-08-10T06:09:49Z</time>
      </trkpt>
      <trkpt lat="44.46496" lon="1.54264">
        <ele>202.2</ele>
        <time>2022-08-10T06:09:51Z</time>
      </trkpt>
      <trkpt lat="44.46498" lon="1.54252">
        <ele>203.5</ele>
        <time>2022-08-10T06:09:53Z</time>
      </trkpt>
      <trkpt lat="44.465" lon="1.5424">
        <ele>203.5</ele>
        <time>2022-08-10T06:09:55Z</time>
      </trkpt>
      <trkpt lat="44.46503" lon="1.54228">
        <ele>202.3</ele>
        <time>2022-08-10T06:09:57Z</time>
      </trkpt>
      <trkpt lat="44.46506" lon="1.54218">
        <ele>200.8</ele>
        <time>2022-08-10T06:09:59Z</time>
      </trkpt>
      <trkpt lat="44.46512" lon="1.54208">
        <ele>197.8</ele>
        <time>2022-08-10T06:10:01Z</time>
      </trkpt>
      <trkpt lat="44.46518" lon="1.542">
        <ele>194.3</ele>
        <time>2022-08-10T06:10:03Z</time>
      </trkpt>
      <trkpt lat="44.46525" lon="1.54193">
        <ele>191.3</ele>
        <time>2022-08-10T06:10:05Z</time>
      </trkpt>
      <trkpt lat="44.4653" lon="1.54185">
        <ele>189.4</ele>
        <time>2022-08-10T06:10:07Z</time>
      </trkpt>
      <trkpt lat="44.46535" lon="1.54175">
        <ele>188</ele>
        <time>2022-08-10T06:10:09Z</time>
      </trkpt>
      <trkpt lat="44.46541" lon="1.54167">
        <ele>186.2</ele>
        <time>2022-08-10T06:10:11Z</time>
      </trkpt>
      <trkpt lat="44.46545" lon="1.54158">
        <ele>185</ele>
        <time>2022-08-10T06:10:13Z</time>
      </trkpt>
      <trkpt lat="44.46543" lon="1.54146">
        <ele>186.8</ele>
        <time>2022-08-10T06:10:15Z</time>
      </trkpt>
      <trkpt lat="44.46536" lon="1.54137">
        <ele>190.6</ele>
        <time>2022-08-10T06:10:17Z</time>
      </trkpt>
      <trkpt lat="44.46527" lon="1.5413">
        <ele>194.6</ele>
        <time>2022-08-10T06:10:19Z</time>
      </trkpt>
      <trkpt lat="44.4652" lon="1.54121">
        <ele>197.8</ele>
        <time>2022-08-10T06:10:21Z</time>
      </trkpt>
      <trkpt lat="44.4652" lon="1.54106">
        <ele>198</ele>
        <time>2022-08-10T06:10:23Z</time>
      </trkpt>
      <trkpt lat="44.46528" lon="1.54093">
        <ele>195.6</ele>
        <time>2022-08-10T06:10:25Z</time>
      </trkpt>
      <trkpt lat="44.46538" lon="1.54085">
        <ele>192.4</ele>
        <time>2022-08-10T06:10:27Z</time>
      </trkpt>
      <trkpt lat="44.4655" lon="1.54076">
        <ele>190.1</ele>
        <time>2022-08-10T06:10:29Z</time>
      </trkpt>
      <trkpt lat="44.46562" lon="1.54067">
        <ele>187.6</ele>
        <time>2022-08-10T06:10:31Z</time>
      </trkpt>
      <trkpt lat="44.46575" lon="1.54061">
        <ele>184.6</ele>
        <time>2022-08-10T06:10:33Z</time>
      </trkpt>
      <trkpt lat="44.46589" lon="1.54053">
        <ele>180.1</ele>
        <time>2022-08-10T06:10:35Z</time>
      </trkpt>
      <trkpt lat="44.466" lon="1.54045">
        <ele>174.9</ele>
        <time>2022-08-10T06:10:37Z</time>
      </trkpt>
      <trkpt lat="44.4661" lon="1.54034">
        <ele>170.7</ele>
        <time>2022-08-10T06:10:39Z</time>
      </trkpt>
      <trkpt lat="44.46618" lon="1.54019">
        <ele>168.6</ele>
        <time>2022-08-10T06:10:41Z</time>
      </trkpt>
      <trkpt lat="44.46622" lon="1.54">
        <ele>169</ele>
        <time>2022-08-10T06:10:43Z</time>
      </trkpt>
      <trkpt lat="44.46624" lon="1.53979">
        <ele>169.5</ele>
        <time>2022-08-10T06:10:45Z</time>
      </trkpt>
      <trkpt lat="44.46625" lon="1.53959">
        <ele>170.2</ele>
        <time>2022-08-10T06:10:47Z</time>
      </trkpt>
      <trkpt lat="44.46626" lon="1.53934">
        <ele>171.4</ele>
        <time>2022-08-10T06:10:49Z</time>
      </trkpt>
      <trkpt lat="44.46626" lon="1.53908">
        <ele>172.4</ele>
        <time>2022-08-10T06:10:51Z</time>
      </trkpt>
      <trkpt lat="44.46625" lon="1.53883">
        <ele>171.7</ele>
        <time>2022-08-10T06:10:53Z</time>
      </trkpt>
      <trkpt lat="44.46623" lon="1.53857">
        <ele>171.7</ele>
        <time>2022-08-10T06:10:55Z</time>
      </trkpt>
      <trkpt lat="44.46621" lon="1.53831">
        <ele>171.5</ele>
        <time>2022-08-10T06:10:57Z</time>
      </trkpt>
      <trkpt lat="44.46619" lon="1.53805">
        <ele>171.5</ele>
        <time>2022-08-10T06:10:59Z</time>
      </trkpt>
      <trkpt lat="44.46614" lon="1.5378">
        <ele>172.3</ele>
        <time>2022-08-10T06:11:01Z</time>
      </trkpt>
      <trkpt lat="44.46612" lon="1.53755">
        <ele>172.3</ele>
        <time>2022-08-10T06:11:03Z</time>
      </trkpt>
      <trkpt lat="44.46613" lon="1.53729">
        <ele>170.9</ele>
        <time>2022-08-10T06:11:05Z</time>
      </trkpt>
      <trkpt lat="44.46614" lon="1.53701">
        <ele>169.2</ele>
        <time>2022-08-10T06:11:07Z</time>
      </trkpt>
      <trkpt lat="44.46617" lon="1.53674">
        <ele>167.4</ele>
        <time>2022-08-10T06:11:09Z</time>
      </trkpt>
      <trkpt lat="44.46619" lon="1.53644">
        <ele>165.9</ele>
        <time>2022-08-10T06:11:11Z</time>
      </trkpt>
      <trkpt lat="44.46621" lon="1.53614">
        <ele>164.5</ele>
        <time>2022-08-10T06:11:13Z</time>
      </trkpt>
      <trkpt lat="44.46623" lon="1.53588">
        <ele>163.2</ele>
        <time>2022-08-10T06:11:15Z</time>
      </trkpt>
      <trkpt lat="44.46624" lon="1.53565">
        <ele>161.8</ele>
        <time>2022-08-10T06:11:17Z</time>
      </trkpt>
      <trkpt lat="44.46628" lon="1.53543">
        <ele>160.1</ele>
        <time>2022-08-10T06:11:19Z</time>
      </trkpt>
      <trkpt lat="44.46636" lon="1.53525">
        <ele>157.9</ele>
        <time>2022-08-10T06:11:21Z</time>
      </trkpt>
      <trkpt lat="44.46649" lon="1.53508">
        <ele>155.1</ele>
        <time>2022-08-10T06:11:23Z</time>
      </trkpt>
      <trkpt lat="44.46663" lon="1.53495">
        <ele>152.4</ele>
        <time>2022-08-10T06:11:25Z</time>
      </trkpt>
      <trkpt lat="44.46677" lon="1.53483">
        <ele>149.5</ele>
        <time>2022-08-10T06:11:27Z</time>
      </trkpt>
      <trkpt lat="44.46688" lon="1.53468">
        <ele>146.9</ele>
        <time>2022-08-10T06:11:29Z</time>
      </trkpt>
      <trkpt lat="44.46695" lon="1.53451">
        <ele>145.4</ele>
        <time>2022-08-10T06:11:31Z</time>
      </trkpt>
      <trkpt lat="44.46702" lon="1.53433">
        <ele>144.1</ele>
        <time>2022-08-10T06:11:33Z</time>
      </trkpt>
      <trkpt lat="44.46708" lon="1.53414">
        <ele>143</ele>
        <time>2022-08-10T06:11:35Z</time>
      </trkpt>
      <trkpt lat="44.46711" lon="1.53394">
        <ele>141.9</ele>
        <time>2022-08-10T06:11:37Z</time>
      </trkpt>
      <trkpt lat="44.46716" lon="1.53374">
        <ele>140.6</ele>
        <time>2022-08-10T06:11:39Z</time>
      </trkpt>
      <trkpt lat="44.46721" lon="1.53354">
        <ele>139.4</ele>
        <time>2022-08-10T06:11:41Z</time>
      </trkpt>
      <trkpt lat="44.46724" lon="1.53335">
        <ele>138.5</ele>
        <time>2022-08-10T06:11:43Z</time>
      </trkpt>
      <trkpt lat="44.46723" lon="1.53315">
        <ele>138.2</ele>
        <time>2022-08-10T06:11:45Z</time>
      </trkpt>
      <trkpt lat="44.46717" lon="1.53294">
        <ele>138.7</ele>
        <time>2022-08-10T06:11:47Z</time>
      </trkpt>
      <trkpt lat="44.46713" lon="1.53274">
        <ele>139.2</ele>
        <time>2022-08-10T06:11:49Z</time>
      </trkpt>
      <trkpt lat="44.46715" lon="1.53254">
        <ele>138.6</ele>
        <time>2022-08-10T06:11:51Z</time>
      </trkpt>
      <trkpt lat="44.46716" lon="1.53234">
        <ele>137.1</ele>
        <time>2022-08-10T06:11:53Z</time>
      </trkpt>
      <trkpt lat="44.46711" lon="1.53213">
        <ele>136.4</ele>
        <time>2022-08-10T06:11:55Z</time>
      </trkpt>
      <trkpt lat="44.46704" lon="1.53194">
        <ele>136.1</ele>
        <time>2022-08-10T06:11:57Z</time>
      </trkpt>
      <trkpt lat="44.46696" lon="1.53175">
        <ele>135.6</ele>
        <time>2022-08-10T06:11:59Z</time>
      </trkpt>
      <trkpt lat="44.46687" lon="1.53155">
        <ele>135.2</ele>
        <time>2022-08-10T06:12:01Z</time>
      </trkpt>
      <trkpt lat="44.46676" lon="1.53135">
        <ele>134.8</ele>
        <time>2022-08-10T06:12:03Z</time>
      </trkpt>
      <trkpt lat="44.46665" lon="1.53115">
        <ele>134.2</ele>
        <time>2022-08-10T06:12:05Z</time>
      </trkpt>
      <trkpt lat="44.46657" lon="1.53094">
        <ele>133.5</ele>
        <time>2022-08-10T06:12:07Z</time>
      </trkpt>
      <trkpt lat="44.46649" lon="1.53073">
        <ele>133.3</ele>
        <time>2022-08-10T06:12:09Z</time>
      </trkpt>
      <trkpt lat="44.46643" lon="1.53057">
        <ele>133.7</ele>
        <time>2022-08-10T06:12:11Z</time>
      </trkpt>
      <trkpt lat="44.46638" lon="1.53043">
        <ele>134</ele>
        <time>2022-08-10T06:12:13Z</time>
      </trkpt>
      <trkpt lat="44.46634" lon="1.53032">
        <ele>134.4</ele>
        <time>2022-08-10T06:12:15Z</time>
      </trkpt>
      <trkpt lat="44.46631" lon="1.53023">
        <ele>134.8</ele>
        <time>2022-08-10T06:12:17Z</time>
      </trkpt>
      <trkpt lat="44.46628" lon="1.53015">
        <ele>135.2</ele>
        <time>2022-08-10T06:12:19Z</time>
      </trkpt>
      <trkpt lat="44.46625" lon="1.53007">
        <ele>135.7</ele>
        <time>2022-08-10T06:12:21Z</time>
      </trkpt>
      <trkpt lat="44.46622" lon="1.53">
        <ele>136.2</ele>
        <time>2022-08-10T06:12:23Z</time>
      </trkpt>
      <trkpt lat="44.46619" lon="1.52992">
        <ele>136.3</ele>
        <time>2022-08-10T06:12:25Z</time>
      </trkpt>
      <trkpt lat="44.46617" lon="1.52986">
        <ele>136.1</ele>
        <time>2022-08-10T06:12:27Z</time>
      </trkpt>
      <trkpt lat="44.46614" lon="1.5298">
        <ele>136.3</ele>
        <time>2022-08-10T06:12:29Z</time>
      </trkpt>
      <trkpt lat="44.46611" lon="1.52974">
        <ele>136.5</ele>
        <time>2022-08-10T06:12:31Z</time>
      </trkpt>
      <trkpt lat="44.46608" lon="1.52968">
        <ele>136.4</ele>
        <time>2022-08-10T06:12:33Z</time>
      </trkpt>
      <trkpt lat="44.46605" lon="1.52962">
        <ele>136.4</ele>
        <time>2022-08-10T06:12:35Z</time>
      </trkpt>
      <trkpt lat="44.46602" lon="1.52956">
        <ele>136.3</ele>
        <time>2022-08-10T06:12:37Z</time>
      </trkpt>
      <trkpt lat="44.46599" lon="1.52951">
        <ele>136.5</ele>
        <time>2022-08-10T06:12:39Z</time>
      </trkpt>
      <trkpt lat="44.46595" lon="1.52946">
        <ele>136.6</ele>
        <time>2022-08-10T06:12:41Z</time>
      </trkpt>
      <trkpt lat="44.46592" lon="1.52941">
        <ele>136.5</ele>
        <time>2022-08-10T06:12:43Z</time>
      </trkpt>
      <trkpt lat="44.46589" lon="1.52936">
        <ele>136.4</ele>
        <time>2022-08-10T06:12:45Z</time>
      </trkpt>
      <trkpt lat="44.46586" lon="1.52931">
        <ele>136.4</ele>
        <time>2022-08-10T06:12:47Z</time>
      </trkpt>
      <trkpt lat="44.46582" lon="1.52925">
        <ele>136.3</ele>
        <time>2022-08-10T06:12:49Z</time>
      </trkpt>
      <trkpt lat="44.46579" lon="1.52921">
        <ele>136.3</ele>
        <time>2022-08-10T06:12:51Z</time>
      </trkpt>
      <trkpt lat="44.46576" lon="1.52916">
        <ele>136.4</ele>
        <time>2022-08-10T06:12:53Z</time>
      </trkpt>
      <trkpt lat="44.46572" lon="1.52911">
        <ele>136.4</ele>
        <time>2022-08-10T06:12:55Z</time>
      </trkpt>
      <trkpt lat="44.46568" lon="1.52907">
        <ele>136.7</ele>
        <time>2022-08-10T06:12:57Z</time>
      </trkpt>
      <trkpt lat="44.46565" lon="1.52902">
        <ele>136.7</ele>
        <time>2022-08-10T06:12:59Z</time>
      </trkpt>
      <trkpt lat="44.46561" lon="1.52899">
        <ele>137</ele>
        <time>2022-08-10T06:13:01Z</time>
      </trkpt>
      <trkpt lat="44.46559" lon="1.52897">
        <ele>137.1</ele>
        <time>2022-08-10T06:13:03Z</time>
      </trkpt>
      <trkpt lat="44.46557" lon="1.52894">
        <ele>137.1</ele>
        <time>2022-08-10T06:13:05Z</time>
      </trkpt>
      <trkpt lat="44.46557" lon="1.52892">
        <ele>136.9</ele>
        <time>2022-08-10T06:13:07Z</time>
      </trkpt>
      <trkpt lat="44.46557" lon="1.52892">
        <ele>136.9</ele>
        <time>2022-08-10T06:13:09Z</time>
      </trkpt>
      <trkpt lat="44.46556" lon="1.52892">
        <ele>136.9</ele>
        <time>2022-08-10T06:13:11Z</time>
      </trkpt>
      <trkpt lat="44.46556" lon="1.52892">
        <ele>137</ele>
        <time>2022-08-10T06:13:13Z</time>
      </trkpt>
      <trkpt lat="44.46547" lon="1.52887">
        <ele>137.9</ele>
        <time>2022-08-10T06:13:37Z</time>
      </trkpt>
      <trkpt lat="44.46543" lon="1.52885">
        <ele>138.4</ele>
        <time>2022-08-10T06:13:39Z</time>
      </trkpt>
      <trkpt lat="44.46539" lon="1.52884">
        <ele>138.9</ele>
        <time>2022-08-10T06:13:41Z</time>
      </trkpt>
      <trkpt lat="44.46535" lon="1.52881">
        <ele>139.3</ele>
        <time>2022-08-10T06:13:43Z</time>
      </trkpt>
      <trkpt lat="44.4653" lon="1.5288">
        <ele>140</ele>
        <time>2022-08-10T06:13:45Z</time>
      </trkpt>
      <trkpt lat="44.46525" lon="1.52879">
        <ele>140.7</ele>
        <time>2022-08-10T06:13:47Z</time>
      </trkpt>
      <trkpt lat="44.4652" lon="1.52877">
        <ele>141.2</ele>
        <time>2022-08-10T06:13:49Z</time>
      </trkpt>
      <trkpt lat="44.46515" lon="1.52875">
        <ele>141.8</ele>
        <time>2022-08-10T06:13:51Z</time>
      </trkpt>
      <trkpt lat="44.46511" lon="1.52871">
        <ele>142.1</ele>
        <time>2022-08-10T06:13:53Z</time>
      </trkpt>
      <trkpt lat="44.46506" lon="1.52868">
        <ele>142.2</ele>
        <time>2022-08-10T06:13:55Z</time>
      </trkpt>
      <trkpt lat="44.46503" lon="1.52863">
        <ele>142.2</ele>
        <time>2022-08-10T06:13:57Z</time>
      </trkpt>
      <trkpt lat="44.465" lon="1.52859">
        <ele>142</ele>
        <time>2022-08-10T06:13:59Z</time>
      </trkpt>
      <trkpt lat="44.46497" lon="1.52854">
        <ele>141.7</ele>
        <time>2022-08-10T06:14:01Z</time>
      </trkpt>
      <trkpt lat="44.46494" lon="1.52849">
        <ele>141.4</ele>
        <time>2022-08-10T06:14:03Z</time>
      </trkpt>
      <trkpt lat="44.46491" lon="1.52843">
        <ele>141</ele>
        <time>2022-08-10T06:14:05Z</time>
      </trkpt>
      <trkpt lat="44.46488" lon="1.52839">
        <ele>141</ele>
        <time>2022-08-10T06:14:07Z</time>
      </trkpt>
      <trkpt lat="44.46484" lon="1.52835">
        <ele>141.2</ele>
        <time>2022-08-10T06:14:09Z</time>
      </trkpt>
      <trkpt lat="44.46479" lon="1.52834">
        <ele>141.8</ele>
        <time>2022-08-10T06:14:11Z</time>
      </trkpt>
      <trkpt lat="44.46475" lon="1.52832">
        <ele>142.4</ele>
        <time>2022-08-10T06:14:13Z</time>
      </trkpt>
      <trkpt lat="44.46472" lon="1.5283">
        <ele>142.7</ele>
        <time>2022-08-10T06:14:15Z</time>
      </trkpt>
      <trkpt lat="44.46468" lon="1.5283">
        <ele>143.4</ele>
        <time>2022-08-10T06:14:17Z</time>
      </trkpt>
      <trkpt lat="44.46464" lon="1.52828">
        <ele>143.9</ele>
        <time>2022-08-10T06:14:19Z</time>
      </trkpt>
      <trkpt lat="44.46461" lon="1.52827">
        <ele>144.3</ele>
        <time>2022-08-10T06:14:21Z</time>
      </trkpt>
      <trkpt lat="44.46457" lon="1.52825">
        <ele>144.8</ele>
        <time>2022-08-10T06:14:23Z</time>
      </trkpt>
      <trkpt lat="44.46453" lon="1.52823">
        <ele>145.2</ele>
        <time>2022-08-10T06:14:25Z</time>
      </trkpt>
      <trkpt lat="44.4645" lon="1.52819">
        <ele>145.3</ele>
        <time>2022-08-10T06:14:27Z</time>
      </trkpt>
      <trkpt lat="44.46446" lon="1.52815">
        <ele>145.5</ele>
        <time>2022-08-10T06:14:29Z</time>
      </trkpt>
      <trkpt lat="44.46442" lon="1.52812">
        <ele>145.8</ele>
        <time>2022-08-10T06:14:31Z</time>
      </trkpt>
      <trkpt lat="44.46438" lon="1.52808">
        <ele>145.8</ele>
        <time>2022-08-10T06:14:33Z</time>
      </trkpt>
      <trkpt lat="44.46435" lon="1.52803">
        <ele>145.9</ele>
        <time>2022-08-10T06:14:35Z</time>
      </trkpt>
      <trkpt lat="44.4643" lon="1.52799">
        <ele>146.1</ele>
        <time>2022-08-10T06:14:37Z</time>
      </trkpt>
      <trkpt lat="44.46427" lon="1.52793">
        <ele>146</ele>
        <time>2022-08-10T06:14:39Z</time>
      </trkpt>
      <trkpt lat="44.46424" lon="1.52789">
        <ele>146</ele>
        <time>2022-08-10T06:14:41Z</time>
      </trkpt>
      <trkpt lat="44.46419" lon="1.52785">
        <ele>146.1</ele>
        <time>2022-08-10T06:14:43Z</time>
      </trkpt>
      <trkpt lat="44.46415" lon="1.52781">
        <ele>146.3</ele>
        <time>2022-08-10T06:14:45Z</time>
      </trkpt>
      <trkpt lat="44.46412" lon="1.52776">
        <ele>146.3</ele>
        <time>2022-08-10T06:14:47Z</time>
      </trkpt>
      <trkpt lat="44.46408" lon="1.52772">
        <ele>146.5</ele>
        <time>2022-08-10T06:14:49Z</time>
      </trkpt>
      <trkpt lat="44.46404" lon="1.52768">
        <ele>146.7</ele>
        <time>2022-08-10T06:14:51Z</time>
      </trkpt>
      <trkpt lat="44.46401" lon="1.52763">
        <ele>146.8</ele>
        <time>2022-08-10T06:14:53Z</time>
      </trkpt>
      <trkpt lat="44.46398" lon="1.52759">
        <ele>146.8</ele>
        <time>2022-08-10T06:14:55Z</time>
      </trkpt>
      <trkpt lat="44.46395" lon="1.52756">
        <ele>147.1</ele>
        <time>2022-08-10T06:14:57Z</time>
      </trkpt>
      <trkpt lat="44.46391" lon="1.52754">
        <ele>147.3</ele>
        <time>2022-08-10T06:14:59Z</time>
      </trkpt>
      <trkpt lat="44.46388" lon="1.5275">
        <ele>147.6</ele>
        <time>2022-08-10T06:15:01Z</time>
      </trkpt>
      <trkpt lat="44.46385" lon="1.52746">
        <ele>147.5</ele>
        <time>2022-08-10T06:15:03Z</time>
      </trkpt>
      <trkpt lat="44.46381" lon="1.52744">
        <ele>147.9</ele>
        <time>2022-08-10T06:15:05Z</time>
      </trkpt>
      <trkpt lat="44.46378" lon="1.52742">
        <ele>148.1</ele>
        <time>2022-08-10T06:15:07Z</time>
      </trkpt>
      <trkpt lat="44.46374" lon="1.52741">
        <ele>148.7</ele>
        <time>2022-08-10T06:15:09Z</time>
      </trkpt>
      <trkpt lat="44.4637" lon="1.52739">
        <ele>149.1</ele>
        <time>2022-08-10T06:15:11Z</time>
      </trkpt>
      <trkpt lat="44.46366" lon="1.52738">
        <ele>149.7</ele>
        <time>2022-08-10T06:15:13Z</time>
      </trkpt>
      <trkpt lat="44.46362" lon="1.52737">
        <ele>150.4</ele>
        <time>2022-08-10T06:15:15Z</time>
      </trkpt>
      <trkpt lat="44.46356" lon="1.52738">
        <ele>151.5</ele>
        <time>2022-08-10T06:15:17Z</time>
      </trkpt>
      <trkpt lat="44.46352" lon="1.52736">
        <ele>152.2</ele>
        <time>2022-08-10T06:15:19Z</time>
      </trkpt>
      <trkpt lat="44.46346" lon="1.52735">
        <ele>153.1</ele>
        <time>2022-08-10T06:15:21Z</time>
      </trkpt>
      <trkpt lat="44.4634" lon="1.52733">
        <ele>154</ele>
        <time>2022-08-10T06:15:23Z</time>
      </trkpt>
      <trkpt lat="44.46334" lon="1.5273">
        <ele>154.7</ele>
        <time>2022-08-10T06:15:25Z</time>
      </trkpt>
      <trkpt lat="44.46329" lon="1.52725">
        <ele>154.9</ele>
        <time>2022-08-10T06:15:27Z</time>
      </trkpt>
      <trkpt lat="44.46324" lon="1.52722">
        <ele>155.1</ele>
        <time>2022-08-10T06:15:29Z</time>
      </trkpt>
      <trkpt lat="44.4632" lon="1.52716">
        <ele>155.1</ele>
        <time>2022-08-10T06:15:31Z</time>
      </trkpt>
      <trkpt lat="44.46317" lon="1.52711">
        <ele>154.8</ele>
        <time>2022-08-10T06:15:33Z</time>
      </trkpt>
      <trkpt lat="44.46314" lon="1.52705">
        <ele>154.5</ele>
        <time>2022-08-10T06:15:35Z</time>
      </trkpt>
      <trkpt lat="44.46312" lon="1.527">
        <ele>154.2</ele>
        <time>2022-08-10T06:15:37Z</time>
      </trkpt>
      <trkpt lat="44.46309" lon="1.52694">
        <ele>153.8</ele>
        <time>2022-08-10T06:15:39Z</time>
      </trkpt>
      <trkpt lat="44.46307" lon="1.52688">
        <ele>153.5</ele>
        <time>2022-08-10T06:15:41Z</time>
      </trkpt>
      <trkpt lat="44.46304" lon="1.52684">
        <ele>153.3</ele>
        <time>2022-08-10T06:15:43Z</time>
      </trkpt>
      <trkpt lat="44.46302" lon="1.52679">
        <ele>153</ele>
        <time>2022-08-10T06:15:45Z</time>
      </trkpt>
      <trkpt lat="44.463" lon="1.52675">
        <ele>152.9</ele>
        <time>2022-08-10T06:15:47Z</time>
      </trkpt>
      <trkpt lat="44.46297" lon="1.52671">
        <ele>153.1</ele>
        <time>2022-08-10T06:15:49Z</time>
      </trkpt>
      <trkpt lat="44.46294" lon="1.52668">
        <ele>153.2</ele>
        <time>2022-08-10T06:15:51Z</time>
      </trkpt>
      <trkpt lat="44.46291" lon="1.52664">
        <ele>153.2</ele>
        <time>2022-08-10T06:15:53Z</time>
      </trkpt>
      <trkpt lat="44.46288" lon="1.52661">
        <ele>153.6</ele>
        <time>2022-08-10T06:15:55Z</time>
      </trkpt>
      <trkpt lat="44.46285" lon="1.52656">
        <ele>153.6</ele>
        <time>2022-08-10T06:15:57Z</time>
      </trkpt>
      <trkpt lat="44.46282" lon="1.52653">
        <ele>153.8</ele>
        <time>2022-08-10T06:15:59Z</time>
      </trkpt>
      <trkpt lat="44.46279" lon="1.5265">
        <ele>154.3</ele>
        <time>2022-08-10T06:16:01Z</time>
      </trkpt>
      <trkpt lat="44.46275" lon="1.52648">
        <ele>154.7</ele>
        <time>2022-08-10T06:16:03Z</time>
      </trkpt>
      <trkpt lat="44.46272" lon="1.52644">
        <ele>155</ele>
        <time>2022-08-10T06:16:05Z</time>
      </trkpt>
      <trkpt lat="44.46269" lon="1.52642">
        <ele>155.5</ele>
        <time>2022-08-10T06:16:07Z</time>
      </trkpt>
      <trkpt lat="44.46265" lon="1.52639">
        <ele>155.9</ele>
        <time>2022-08-10T06:16:09Z</time>
      </trkpt>
      <trkpt lat="44.46262" lon="1.52636">
        <ele>156.4</ele>
        <time>2022-08-10T06:16:11Z</time>
      </trkpt>
      <trkpt lat="44.46259" lon="1.52633">
        <ele>156.8</ele>
        <time>2022-08-10T06:16:13Z</time>
      </trkpt>
      <trkpt lat="44.46255" lon="1.5263">
        <ele>157.2</ele>
        <time>2022-08-10T06:16:15Z</time>
      </trkpt>
      <trkpt lat="44.46252" lon="1.52626">
        <ele>157.7</ele>
        <time>2022-08-10T06:16:17Z</time>
      </trkpt>
      <trkpt lat="44.46249" lon="1.52623">
        <ele>158.1</ele>
        <time>2022-08-10T06:16:19Z</time>
      </trkpt>
      <trkpt lat="44.46246" lon="1.5262">
        <ele>158.3</ele>
        <time>2022-08-10T06:16:21Z</time>
      </trkpt>
      <trkpt lat="44.46242" lon="1.52617">
        <ele>158.7</ele>
        <time>2022-08-10T06:16:23Z</time>
      </trkpt>
      <trkpt lat="44.46239" lon="1.52612">
        <ele>158.9</ele>
        <time>2022-08-10T06:16:25Z</time>
      </trkpt>
      <trkpt lat="44.46235" lon="1.52608">
        <ele>159.1</ele>
        <time>2022-08-10T06:16:27Z</time>
      </trkpt>
      <trkpt lat="44.46232" lon="1.52605">
        <ele>159.3</ele>
        <time>2022-08-10T06:16:29Z</time>
      </trkpt>
      <trkpt lat="44.46228" lon="1.52599">
        <ele>159.4</ele>
        <time>2022-08-10T06:16:31Z</time>
      </trkpt>
      <trkpt lat="44.46224" lon="1.52595">
        <ele>159.6</ele>
        <time>2022-08-10T06:16:33Z</time>
      </trkpt>
      <trkpt lat="44.46221" lon="1.52589">
        <ele>159.6</ele>
        <time>2022-08-10T06:16:35Z</time>
      </trkpt>
      <trkpt lat="44.46217" lon="1.52584">
        <ele>159.6</ele>
        <time>2022-08-10T06:16:37Z</time>
      </trkpt>
      <trkpt lat="44.46214" lon="1.5258">
        <ele>159.4</ele>
        <time>2022-08-10T06:16:39Z</time>
      </trkpt>
      <trkpt lat="44.46211" lon="1.52573">
        <ele>158.8</ele>
        <time>2022-08-10T06:16:41Z</time>
      </trkpt>
      <trkpt lat="44.46207" lon="1.52567">
        <ele>158.3</ele>
        <time>2022-08-10T06:16:43Z</time>
      </trkpt>
      <trkpt lat="44.46203" lon="1.52561">
        <ele>157.8</ele>
        <time>2022-08-10T06:16:45Z</time>
      </trkpt>
      <trkpt lat="44.46199" lon="1.52555">
        <ele>157.4</ele>
        <time>2022-08-10T06:16:47Z</time>
      </trkpt>
      <trkpt lat="44.46195" lon="1.52548">
        <ele>157</ele>
        <time>2022-08-10T06:16:49Z</time>
      </trkpt>
      <trkpt lat="44.4619" lon="1.5254">
        <ele>156.6</ele>
        <time>2022-08-10T06:16:51Z</time>
      </trkpt>
      <trkpt lat="44.46186" lon="1.52532">
        <ele>156.1</ele>
        <time>2022-08-10T06:16:53Z</time>
      </trkpt>
      <trkpt lat="44.46181" lon="1.52523">
        <ele>155.6</ele>
        <time>2022-08-10T06:16:55Z</time>
      </trkpt>
      <trkpt lat="44.46174" lon="1.52513">
        <ele>155.4</ele>
        <time>2022-08-10T06:16:57Z</time>
      </trkpt>
      <trkpt lat="44.46167" lon="1.52501">
        <ele>155.1</ele>
        <time>2022-08-10T06:16:59Z</time>
      </trkpt>
      <trkpt lat="44.46158" lon="1.52491">
        <ele>153.9</ele>
        <time>2022-08-10T06:17:01Z</time>
      </trkpt>
      <trkpt lat="44.46147" lon="1.52483">
        <ele>153.2</ele>
        <time>2022-08-10T06:17:03Z</time>
      </trkpt>
      <trkpt lat="44.46135" lon="1.52476">
        <ele>153.1</ele>
        <time>2022-08-10T06:17:05Z</time>
      </trkpt>
      <trkpt lat="44.4612" lon="1.52469">
        <ele>153.3</ele>
        <time>2022-08-10T06:17:07Z</time>
      </trkpt>
      <trkpt lat="44.46108" lon="1.52463">
        <ele>153.5</ele>
        <time>2022-08-10T06:17:09Z</time>
      </trkpt>
      <trkpt lat="44.46096" lon="1.52455">
        <ele>153.4</ele>
        <time>2022-08-10T06:17:11Z</time>
      </trkpt>
      <trkpt lat="44.46084" lon="1.52446">
        <ele>153.2</ele>
        <time>2022-08-10T06:17:13Z</time>
      </trkpt>
      <trkpt lat="44.46074" lon="1.52438">
        <ele>152.2</ele>
        <time>2022-08-10T06:17:15Z</time>
      </trkpt>
      <trkpt lat="44.46064" lon="1.52428">
        <ele>151.3</ele>
        <time>2022-08-10T06:17:17Z</time>
      </trkpt>
      <trkpt lat="44.46052" lon="1.52423">
        <ele>151.3</ele>
        <time>2022-08-10T06:17:19Z</time>
      </trkpt>
      <trkpt lat="44.46039" lon="1.52423">
        <ele>152.1</ele>
        <time>2022-08-10T06:17:21Z</time>
      </trkpt>
      <trkpt lat="44.46028" lon="1.52423">
        <ele>152.8</ele>
        <time>2022-08-10T06:17:23Z</time>
      </trkpt>
      <trkpt lat="44.4602" lon="1.52413">
        <ele>152.4</ele>
        <time>2022-08-10T06:17:25Z</time>
      </trkpt>
      <trkpt lat="44.46015" lon="1.524">
        <ele>152.2</ele>
        <time>2022-08-10T06:17:27Z</time>
      </trkpt>
      <trkpt lat="44.46015" lon="1.52386">
        <ele>151.8</ele>
        <time>2022-08-10T06:17:29Z</time>
      </trkpt>
      <trkpt lat="44.46016" lon="1.52373">
        <ele>151.1</ele>
        <time>2022-08-10T06:17:31Z</time>
      </trkpt>
      <trkpt lat="44.46018" lon="1.52362">
        <ele>150.4</ele>
        <time>2022-08-10T06:17:33Z</time>
      </trkpt>
      <trkpt lat="44.46021" lon="1.52352">
        <ele>149.6</ele>
        <time>2022-08-10T06:17:35Z</time>
      </trkpt>
      <trkpt lat="44.46025" lon="1.52342">
        <ele>148.6</ele>
        <time>2022-08-10T06:17:37Z</time>
      </trkpt>
      <trkpt lat="44.46029" lon="1.52333">
        <ele>147.5</ele>
        <time>2022-08-10T06:17:39Z</time>
      </trkpt>
      <trkpt lat="44.46033" lon="1.52325">
        <ele>146.6</ele>
        <time>2022-08-10T06:17:41Z</time>
      </trkpt>
      <trkpt lat="44.46037" lon="1.52318">
        <ele>145.7</ele>
        <time>2022-08-10T06:17:43Z</time>
      </trkpt>
      <trkpt lat="44.46041" lon="1.52309">
        <ele>144.9</ele>
        <time>2022-08-10T06:17:45Z</time>
      </trkpt>
      <trkpt lat="44.46044" lon="1.52301">
        <ele>144.2</ele>
        <time>2022-08-10T06:17:47Z</time>
      </trkpt>
      <trkpt lat="44.46045" lon="1.52291">
        <ele>143.6</ele>
        <time>2022-08-10T06:17:49Z</time>
      </trkpt>
      <trkpt lat="44.46044" lon="1.52281">
        <ele>143.5</ele>
        <time>2022-08-10T06:17:51Z</time>
      </trkpt>
      <trkpt lat="44.46042" lon="1.5227">
        <ele>143.5</ele>
        <time>2022-08-10T06:17:53Z</time>
      </trkpt>
      <trkpt lat="44.46039" lon="1.5226">
        <ele>143.8</ele>
        <time>2022-08-10T06:17:55Z</time>
      </trkpt>
      <trkpt lat="44.46036" lon="1.5225">
        <ele>144.1</ele>
        <time>2022-08-10T06:17:57Z</time>
      </trkpt>
      <trkpt lat="44.46033" lon="1.5224">
        <ele>144.2</ele>
        <time>2022-08-10T06:17:59Z</time>
      </trkpt>
      <trkpt lat="44.4603" lon="1.52231">
        <ele>144.4</ele>
        <time>2022-08-10T06:18:01Z</time>
      </trkpt>
      <trkpt lat="44.46027" lon="1.52221">
        <ele>144.4</ele>
        <time>2022-08-10T06:18:03Z</time>
      </trkpt>
      <trkpt lat="44.46024" lon="1.5221">
        <ele>144.5</ele>
        <time>2022-08-10T06:18:05Z</time>
      </trkpt>
      <trkpt lat="44.46021" lon="1.52199">
        <ele>144.6</ele>
        <time>2022-08-10T06:18:07Z</time>
      </trkpt>
      <trkpt lat="44.46017" lon="1.52188">
        <ele>144.7</ele>
        <time>2022-08-10T06:18:09Z</time>
      </trkpt>
      <trkpt lat="44.46014" lon="1.52177">
        <ele>144.8</ele>
        <time>2022-08-10T06:18:11Z</time>
      </trkpt>
      <trkpt lat="44.4601" lon="1.52165">
        <ele>145.1</ele>
        <time>2022-08-10T06:18:13Z</time>
      </trkpt>
      <trkpt lat="44.46007" lon="1.52153">
        <ele>146.1</ele>
        <time>2022-08-10T06:18:15Z</time>
      </trkpt>
      <trkpt lat="44.46003" lon="1.52142">
        <ele>147.1</ele>
        <time>2022-08-10T06:18:17Z</time>
      </trkpt>
      <trkpt lat="44.46" lon="1.5213">
        <ele>147.9</ele>
        <time>2022-08-10T06:18:19Z</time>
      </trkpt>
      <trkpt lat="44.45996" lon="1.52119">
        <ele>148.4</ele>
        <time>2022-08-10T06:18:21Z</time>
      </trkpt>
      <trkpt lat="44.45995" lon="1.52108">
        <ele>148.7</ele>
        <time>2022-08-10T06:18:23Z</time>
      </trkpt>
      <trkpt lat="44.45991" lon="1.52097">
        <ele>149.1</ele>
        <time>2022-08-10T06:18:25Z</time>
      </trkpt>
      <trkpt lat="44.45987" lon="1.52089">
        <ele>149.5</ele>
        <time>2022-08-10T06:18:27Z</time>
      </trkpt>
      <trkpt lat="44.4598" lon="1.52084">
        <ele>149.9</ele>
        <time>2022-08-10T06:18:29Z</time>
      </trkpt>
      <trkpt lat="44.45974" lon="1.52084">
        <ele>150.2</ele>
        <time>2022-08-10T06:18:31Z</time>
      </trkpt>
      <trkpt lat="44.45969" lon="1.52086">
        <ele>150.5</ele>
        <time>2022-08-10T06:18:33Z</time>
      </trkpt>
      <trkpt lat="44.45964" lon="1.52089">
        <ele>150.6</ele>
        <time>2022-08-10T06:18:35Z</time>
      </trkpt>
      <trkpt lat="44.45959" lon="1.52092">
        <ele>150.9</ele>
        <time>2022-08-10T06:18:37Z</time>
      </trkpt>
      <trkpt lat="44.45954" lon="1.52095">
        <ele>151.1</ele>
        <time>2022-08-10T06:18:39Z</time>
      </trkpt>
      <trkpt lat="44.45949" lon="1.52099">
        <ele>151.3</ele>
        <time>2022-08-10T06:18:41Z</time>
      </trkpt>
      <trkpt lat="44.45944" lon="1.52103">
        <ele>151.5</ele>
        <time>2022-08-10T06:18:43Z</time>
      </trkpt>
      <trkpt lat="44.4594" lon="1.52109">
        <ele>151.7</ele>
        <time>2022-08-10T06:18:45Z</time>
      </trkpt>
      <trkpt lat="44.45936" lon="1.52114">
        <ele>151.9</ele>
        <time>2022-08-10T06:18:47Z</time>
      </trkpt>
      <trkpt lat="44.45931" lon="1.52119">
        <ele>152.2</ele>
        <time>2022-08-10T06:18:49Z</time>
      </trkpt>
      <trkpt lat="44.45927" lon="1.52124">
        <ele>152.4</ele>
        <time>2022-08-10T06:18:51Z</time>
      </trkpt>
      <trkpt lat="44.45923" lon="1.52128">
        <ele>152.6</ele>
        <time>2022-08-10T06:18:53Z</time>
      </trkpt>
      <trkpt lat="44.45918" lon="1.52131">
        <ele>152.9</ele>
        <time>2022-08-10T06:18:55Z</time>
      </trkpt>
      <trkpt lat="44.45913" lon="1.52133">
        <ele>153</ele>
        <time>2022-08-10T06:18:57Z</time>
      </trkpt>
      <trkpt lat="44.45908" lon="1.52136">
        <ele>153</ele>
        <time>2022-08-10T06:18:59Z</time>
      </trkpt>
      <trkpt lat="44.45903" lon="1.52138">
        <ele>153</ele>
        <time>2022-08-10T06:19:01Z</time>
      </trkpt>
      <trkpt lat="44.45898" lon="1.52141">
        <ele>153</ele>
        <time>2022-08-10T06:19:03Z</time>
      </trkpt>
      <trkpt lat="44.45893" lon="1.52143">
        <ele>153</ele>
        <time>2022-08-10T06:19:05Z</time>
      </trkpt>
      <trkpt lat="44.45888" lon="1.52145">
        <ele>153.1</ele>
        <time>2022-08-10T06:19:07Z</time>
      </trkpt>
      <trkpt lat="44.45883" lon="1.52148">
        <ele>153.1</ele>
        <time>2022-08-10T06:19:09Z</time>
      </trkpt>
      <trkpt lat="44.45878" lon="1.5215">
        <ele>153.2</ele>
        <time>2022-08-10T06:19:11Z</time>
      </trkpt>
      <trkpt lat="44.45873" lon="1.52152">
        <ele>153.3</ele>
        <time>2022-08-10T06:19:13Z</time>
      </trkpt>
      <trkpt lat="44.45868" lon="1.52155">
        <ele>153.3</ele>
        <time>2022-08-10T06:19:15Z</time>
      </trkpt>
      <trkpt lat="44.45863" lon="1.52159">
        <ele>153.5</ele>
        <time>2022-08-10T06:19:17Z</time>
      </trkpt>
      <trkpt lat="44.45859" lon="1.52161">
        <ele>153.6</ele>
        <time>2022-08-10T06:19:19Z</time>
      </trkpt>
      <trkpt lat="44.45853" lon="1.52164">
        <ele>153.7</ele>
        <time>2022-08-10T06:19:21Z</time>
      </trkpt>
      <trkpt lat="44.45847" lon="1.52168">
        <ele>153.9</ele>
        <time>2022-08-10T06:19:23Z</time>
      </trkpt>
      <trkpt lat="44.45841" lon="1.52173">
        <ele>154.1</ele>
        <time>2022-08-10T06:19:25Z</time>
      </trkpt>
      <trkpt lat="44.45835" lon="1.52178">
        <ele>154.4</ele>
        <time>2022-08-10T06:19:27Z</time>
      </trkpt>
      <trkpt lat="44.4583" lon="1.52183">
        <ele>154.2</ele>
        <time>2022-08-10T06:19:29Z</time>
      </trkpt>
      <trkpt lat="44.45823" lon="1.52188">
        <ele>153.9</ele>
        <time>2022-08-10T06:19:31Z</time>
      </trkpt>
      <trkpt lat="44.45818" lon="1.52192">
        <ele>153.6</ele>
        <time>2022-08-10T06:19:33Z</time>
      </trkpt>
      <trkpt lat="44.45813" lon="1.52197">
        <ele>153.5</ele>
        <time>2022-08-10T06:19:35Z</time>
      </trkpt>
      <trkpt lat="44.45807" lon="1.52202">
        <ele>153.1</ele>
        <time>2022-08-10T06:19:37Z</time>
      </trkpt>
      <trkpt lat="44.458" lon="1.52209">
        <ele>152.9</ele>
        <time>2022-08-10T06:19:39Z</time>
      </trkpt>
      <trkpt lat="44.45794" lon="1.52216">
        <ele>152.8</ele>
        <time>2022-08-10T06:19:41Z</time>
      </trkpt>
      <trkpt lat="44.45786" lon="1.52223">
        <ele>152.6</ele>
        <time>2022-08-10T06:19:43Z</time>
      </trkpt>
      <trkpt lat="44.4578" lon="1.52228">
        <ele>152.5</ele>
        <time>2022-08-10T06:19:45Z</time>
      </trkpt>
      <trkpt lat="44.45774" lon="1.52233">
        <ele>152.3</ele>
        <time>2022-08-10T06:19:47Z</time>
      </trkpt>
      <trkpt lat="44.45768" lon="1.52233">
        <ele>152</ele>
        <time>2022-08-10T06:19:49Z</time>
      </trkpt>
      <trkpt lat="44.45764" lon="1.5223">
        <ele>151.5</ele>
        <time>2022-08-10T06:19:51Z</time>
      </trkpt>
      <trkpt lat="44.45762" lon="1.5222">
        <ele>150.7</ele>
        <time>2022-08-10T06:19:53Z</time>
      </trkpt>
      <trkpt lat="44.45763" lon="1.52207">
        <ele>149.9</ele>
        <time>2022-08-10T06:19:55Z</time>
      </trkpt>
      <trkpt lat="44.45764" lon="1.52193">
        <ele>149</ele>
        <time>2022-08-10T06:19:57Z</time>
      </trkpt>
      <trkpt lat="44.45765" lon="1.52176">
        <ele>148</ele>
        <time>2022-08-10T06:19:59Z</time>
      </trkpt>
      <trkpt lat="44.45765" lon="1.52157">
        <ele>147</ele>
        <time>2022-08-10T06:20:01Z</time>
      </trkpt>
      <trkpt lat="44.45766" lon="1.52135">
        <ele>146.1</ele>
        <time>2022-08-10T06:20:03Z</time>
      </trkpt>
      <trkpt lat="44.45767" lon="1.52113">
        <ele>145.2</ele>
        <time>2022-08-10T06:20:05Z</time>
      </trkpt>
      <trkpt lat="44.45768" lon="1.52092">
        <ele>144.4</ele>
        <time>2022-08-10T06:20:07Z</time>
      </trkpt>
      <trkpt lat="44.45769" lon="1.5207">
        <ele>143.9</ele>
        <time>2022-08-10T06:20:09Z</time>
      </trkpt>
      <trkpt lat="44.45768" lon="1.52048">
        <ele>143.5</ele>
        <time>2022-08-10T06:20:11Z</time>
      </trkpt>
      <trkpt lat="44.45763" lon="1.52026">
        <ele>142.7</ele>
        <time>2022-08-10T06:20:13Z</time>
      </trkpt>
      <trkpt lat="44.45754" lon="1.52006">
        <ele>141.5</ele>
        <time>2022-08-10T06:20:15Z</time>
      </trkpt>
      <trkpt lat="44.45743" lon="1.51988">
        <ele>140.5</ele>
        <time>2022-08-10T06:20:17Z</time>
      </trkpt>
      <trkpt lat="44.45735" lon="1.51969">
        <ele>139.6</ele>
        <time>2022-08-10T06:20:19Z</time>
      </trkpt>
      <trkpt lat="44.4573" lon="1.51948">
        <ele>138.6</ele>
        <time>2022-08-10T06:20:21Z</time>
      </trkpt>
      <trkpt lat="44.45727" lon="1.51924">
        <ele>137.5</ele>
        <time>2022-08-10T06:20:23Z</time>
      </trkpt>
      <trkpt lat="44.45726" lon="1.51902">
        <ele>136.4</ele>
        <time>2022-08-10T06:20:25Z</time>
      </trkpt>
      <trkpt lat="44.45729" lon="1.51878">
        <ele>135.5</ele>
        <time>2022-08-10T06:20:27Z</time>
      </trkpt>
      <trkpt lat="44.45733" lon="1.51853">
        <ele>134.7</ele>
        <time>2022-08-10T06:20:29Z</time>
      </trkpt>
      <trkpt lat="44.45736" lon="1.51829">
        <ele>133.9</ele>
        <time>2022-08-10T06:20:31Z</time>
      </trkpt>
      <trkpt lat="44.45739" lon="1.51803">
        <ele>132.9</ele>
        <time>2022-08-10T06:20:33Z</time>
      </trkpt>
      <trkpt lat="44.45742" lon="1.51779">
        <ele>131.8</ele>
        <time>2022-08-10T06:20:35Z</time>
      </trkpt>
      <trkpt lat="44.45744" lon="1.51755">
        <ele>130.6</ele>
        <time>2022-08-10T06:20:37Z</time>
      </trkpt>
      <trkpt lat="44.45744" lon="1.51731">
        <ele>130.3</ele>
        <time>2022-08-10T06:20:39Z</time>
      </trkpt>
      <trkpt lat="44.4574" lon="1.51709">
        <ele>129.9</ele>
        <time>2022-08-10T06:20:41Z</time>
      </trkpt>
      <trkpt lat="44.45736" lon="1.51687">
        <ele>129.4</ele>
        <time>2022-08-10T06:20:43Z</time>
      </trkpt>
      <trkpt lat="44.45731" lon="1.51664">
        <ele>128.7</ele>
        <time>2022-08-10T06:20:45Z</time>
      </trkpt>
      <trkpt lat="44.4573" lon="1.51645">
        <ele>128</ele>
        <time>2022-08-10T06:20:47Z</time>
      </trkpt>
      <trkpt lat="44.45729" lon="1.51626">
        <ele>127.4</ele>
        <time>2022-08-10T06:20:49Z</time>
      </trkpt>
      <trkpt lat="44.45727" lon="1.5161">
        <ele>126.9</ele>
        <time>2022-08-10T06:20:51Z</time>
      </trkpt>
      <trkpt lat="44.45727" lon="1.51597">
        <ele>126.5</ele>
        <time>2022-08-10T06:20:53Z</time>
      </trkpt>
      <trkpt lat="44.45728" lon="1.51587">
        <ele>126.3</ele>
        <time>2022-08-10T06:20:55Z</time>
      </trkpt>
      <trkpt lat="44.45729" lon="1.5158">
        <ele>126.3</ele>
        <time>2022-08-10T06:20:57Z</time>
      </trkpt>
      <trkpt lat="44.45728" lon="1.51573">
        <ele>126.4</ele>
        <time>2022-08-10T06:20:59Z</time>
      </trkpt>
      <trkpt lat="44.45726" lon="1.51565">
        <ele>126.5</ele>
        <time>2022-08-10T06:21:01Z</time>
      </trkpt>
      <trkpt lat="44.45723" lon="1.51557">
        <ele>126.6</ele>
        <time>2022-08-10T06:21:03Z</time>
      </trkpt>
      <trkpt lat="44.4572" lon="1.51549">
        <ele>126.8</ele>
        <time>2022-08-10T06:21:05Z</time>
      </trkpt>
      <trkpt lat="44.45717" lon="1.51541">
        <ele>127</ele>
        <time>2022-08-10T06:21:07Z</time>
      </trkpt>
      <trkpt lat="44.45713" lon="1.51533">
        <ele>127.3</ele>
        <time>2022-08-10T06:21:09Z</time>
      </trkpt>
      <trkpt lat="44.45712" lon="1.51524">
        <ele>127.6</ele>
        <time>2022-08-10T06:21:11Z</time>
      </trkpt>
      <trkpt lat="44.45715" lon="1.51516">
        <ele>127.8</ele>
        <time>2022-08-10T06:21:13Z</time>
      </trkpt>
      <trkpt lat="44.45722" lon="1.51511">
        <ele>127.8</ele>
        <time>2022-08-10T06:21:15Z</time>
      </trkpt>
      <trkpt lat="44.45728" lon="1.51507">
        <ele>127.7</ele>
        <time>2022-08-10T06:21:17Z</time>
      </trkpt>
      <trkpt lat="44.45735" lon="1.51501">
        <ele>127.5</ele>
        <time>2022-08-10T06:21:19Z</time>
      </trkpt>
      <trkpt lat="44.4574" lon="1.51494">
        <ele>127.8</ele>
        <time>2022-08-10T06:21:21Z</time>
      </trkpt>
      <trkpt lat="44.45745" lon="1.51485">
        <ele>128.2</ele>
        <time>2022-08-10T06:21:23Z</time>
      </trkpt>
      <trkpt lat="44.45749" lon="1.51475">
        <ele>128.6</ele>
        <time>2022-08-10T06:21:25Z</time>
      </trkpt>
      <trkpt lat="44.45752" lon="1.51465">
        <ele>129</ele>
        <time>2022-08-10T06:21:27Z</time>
      </trkpt>
      <trkpt lat="44.45754" lon="1.51454">
        <ele>129.4</ele>
        <time>2022-08-10T06:21:29Z</time>
      </trkpt>
      <trkpt lat="44.45756" lon="1.51443">
        <ele>129.9</ele>
        <time>2022-08-10T06:21:31Z</time>
      </trkpt>
      <trkpt lat="44.45757" lon="1.51431">
        <ele>130.4</ele>
        <time>2022-08-10T06:21:33Z</time>
      </trkpt>
      <trkpt lat="44.45758" lon="1.5142">
        <ele>131</ele>
        <time>2022-08-10T06:21:35Z</time>
      </trkpt>
      <trkpt lat="44.45759" lon="1.51407">
        <ele>131</ele>
        <time>2022-08-10T06:21:37Z</time>
      </trkpt>
      <trkpt lat="44.4576" lon="1.51395">
        <ele>130.9</ele>
        <time>2022-08-10T06:21:39Z</time>
      </trkpt>
      <trkpt lat="44.4576" lon="1.51382">
        <ele>130.9</ele>
        <time>2022-08-10T06:21:41Z</time>
      </trkpt>
      <trkpt lat="44.45761" lon="1.5137">
        <ele>130.8</ele>
        <time>2022-08-10T06:21:43Z</time>
      </trkpt>
      <trkpt lat="44.45762" lon="1.51357">
        <ele>130.7</ele>
        <time>2022-08-10T06:21:45Z</time>
      </trkpt>
      <trkpt lat="44.45763" lon="1.51344">
        <ele>130.6</ele>
        <time>2022-08-10T06:21:47Z</time>
      </trkpt>
      <trkpt lat="44.45764" lon="1.51332">
        <ele>130.4</ele>
        <time>2022-08-10T06:21:49Z</time>
      </trkpt>
      <trkpt lat="44.45765" lon="1.51319">
        <ele>129.4</ele>
        <time>2022-08-10T06:21:51Z</time>
      </trkpt>
      <trkpt lat="44.45766" lon="1.51307">
        <ele>128.4</ele>
        <time>2022-08-10T06:21:53Z</time>
      </trkpt>
      <trkpt lat="44.45767" lon="1.51295">
        <ele>127.5</ele>
        <time>2022-08-10T06:21:55Z</time>
      </trkpt>
      <trkpt lat="44.45767" lon="1.51284">
        <ele>126.7</ele>
        <time>2022-08-10T06:21:57Z</time>
      </trkpt>
      <trkpt lat="44.45767" lon="1.51273">
        <ele>126</ele>
        <time>2022-08-10T06:21:59Z</time>
      </trkpt>
      <trkpt lat="44.45767" lon="1.51262">
        <ele>125.2</ele>
        <time>2022-08-10T06:22:01Z</time>
      </trkpt>
      <trkpt lat="44.45766" lon="1.51251">
        <ele>124.5</ele>
        <time>2022-08-10T06:22:03Z</time>
      </trkpt>
      <trkpt lat="44.45766" lon="1.51241">
        <ele>124.4</ele>
        <time>2022-08-10T06:22:05Z</time>
      </trkpt>
      <trkpt lat="44.45765" lon="1.51231">
        <ele>124.3</ele>
        <time>2022-08-10T06:22:07Z</time>
      </trkpt>
      <trkpt lat="44.45763" lon="1.51222">
        <ele>124.3</ele>
        <time>2022-08-10T06:22:09Z</time>
      </trkpt>
      <trkpt lat="44.45762" lon="1.51212">
        <ele>124.2</ele>
        <time>2022-08-10T06:22:11Z</time>
      </trkpt>
      <trkpt lat="44.4576" lon="1.51203">
        <ele>124.2</ele>
        <time>2022-08-10T06:22:13Z</time>
      </trkpt>
      <trkpt lat="44.45759" lon="1.51193">
        <ele>124.1</ele>
        <time>2022-08-10T06:22:15Z</time>
      </trkpt>
      <trkpt lat="44.45757" lon="1.51184">
        <ele>124.1</ele>
        <time>2022-08-10T06:22:17Z</time>
      </trkpt>
      <trkpt lat="44.45755" lon="1.51174">
        <ele>124</ele>
        <time>2022-08-10T06:22:19Z</time>
      </trkpt>
      <trkpt lat="44.45754" lon="1.51164">
        <ele>124</ele>
        <time>2022-08-10T06:22:21Z</time>
      </trkpt>
      <trkpt lat="44.45753" lon="1.51153">
        <ele>124.1</ele>
        <time>2022-08-10T06:22:23Z</time>
      </trkpt>
      <trkpt lat="44.45752" lon="1.51142">
        <ele>124.3</ele>
        <time>2022-08-10T06:22:25Z</time>
      </trkpt>
      <trkpt lat="44.4575" lon="1.51132">
        <ele>124.4</ele>
        <time>2022-08-10T06:22:27Z</time>
      </trkpt>
      <trkpt lat="44.45748" lon="1.5112">
        <ele>125</ele>
        <time>2022-08-10T06:22:29Z</time>
      </trkpt>
      <trkpt lat="44.45746" lon="1.51109">
        <ele>125.4</ele>
        <time>2022-08-10T06:22:31Z</time>
      </trkpt>
      <trkpt lat="44.45744" lon="1.51099">
        <ele>125.9</ele>
        <time>2022-08-10T06:22:33Z</time>
      </trkpt>
      <trkpt lat="44.45742" lon="1.51085">
        <ele>126.4</ele>
        <time>2022-08-10T06:22:35Z</time>
      </trkpt>
      <trkpt lat="44.4574" lon="1.51073">
        <ele>126.6</ele>
        <time>2022-08-10T06:22:37Z</time>
      </trkpt>
      <trkpt lat="44.45738" lon="1.51061">
        <ele>126.7</ele>
        <time>2022-08-10T06:22:39Z</time>
      </trkpt>
      <trkpt lat="44.45736" lon="1.51048">
        <ele>126.9</ele>
        <time>2022-08-10T06:22:41Z</time>
      </trkpt>
      <trkpt lat="44.45733" lon="1.51035">
        <ele>127.1</ele>
        <time>2022-08-10T06:22:43Z</time>
      </trkpt>
      <trkpt lat="44.45731" lon="1.51021">
        <ele>127.2</ele>
        <time>2022-08-10T06:22:45Z</time>
      </trkpt>
      <trkpt lat="44.45729" lon="1.51007">
        <ele>127.2</ele>
        <time>2022-08-10T06:22:47Z</time>
      </trkpt>
      <trkpt lat="44.45725" lon="1.50992">
        <ele>127.1</ele>
        <time>2022-08-10T06:22:49Z</time>
      </trkpt>
      <trkpt lat="44.45723" lon="1.50977">
        <ele>126.8</ele>
        <time>2022-08-10T06:22:51Z</time>
      </trkpt>
      <trkpt lat="44.45721" lon="1.50962">
        <ele>126.6</ele>
        <time>2022-08-10T06:22:53Z</time>
      </trkpt>
      <trkpt lat="44.45718" lon="1.50946">
        <ele>126.3</ele>
        <time>2022-08-10T06:22:55Z</time>
      </trkpt>
      <trkpt lat="44.45715" lon="1.50929">
        <ele>125.9</ele>
        <time>2022-08-10T06:22:57Z</time>
      </trkpt>
      <trkpt lat="44.45713" lon="1.50912">
        <ele>125.6</ele>
        <time>2022-08-10T06:22:59Z</time>
      </trkpt>
      <trkpt lat="44.4571" lon="1.50896">
        <ele>125.3</ele>
        <time>2022-08-10T06:23:01Z</time>
      </trkpt>
      <trkpt lat="44.45707" lon="1.5088">
        <ele>124.9</ele>
        <time>2022-08-10T06:23:03Z</time>
      </trkpt>
      <trkpt lat="44.45706" lon="1.50863">
        <ele>124.5</ele>
        <time>2022-08-10T06:23:05Z</time>
      </trkpt>
      <trkpt lat="44.45703" lon="1.50846">
        <ele>124</ele>
        <time>2022-08-10T06:23:07Z</time>
      </trkpt>
      <trkpt lat="44.45702" lon="1.5083">
        <ele>123.5</ele>
        <time>2022-08-10T06:23:09Z</time>
      </trkpt>
      <trkpt lat="44.457" lon="1.50814">
        <ele>123.3</ele>
        <time>2022-08-10T06:23:11Z</time>
      </trkpt>
      <trkpt lat="44.45698" lon="1.50798">
        <ele>123.1</ele>
        <time>2022-08-10T06:23:13Z</time>
      </trkpt>
      <trkpt lat="44.45696" lon="1.50782">
        <ele>122.8</ele>
        <time>2022-08-10T06:23:15Z</time>
      </trkpt>
      <trkpt lat="44.45693" lon="1.50767">
        <ele>122.6</ele>
        <time>2022-08-10T06:23:17Z</time>
      </trkpt>
      <trkpt lat="44.45691" lon="1.50752">
        <ele>122.3</ele>
        <time>2022-08-10T06:23:19Z</time>
      </trkpt>
      <trkpt lat="44.45689" lon="1.50737">
        <ele>122.2</ele>
        <time>2022-08-10T06:23:21Z</time>
      </trkpt>
      <trkpt lat="44.45687" lon="1.50723">
        <ele>122.1</ele>
        <time>2022-08-10T06:23:23Z</time>
      </trkpt>
      <trkpt lat="44.45684" lon="1.50708">
        <ele>122</ele>
        <time>2022-08-10T06:23:25Z</time>
      </trkpt>
      <trkpt lat="44.45683" lon="1.50693">
        <ele>121.9</ele>
        <time>2022-08-10T06:23:27Z</time>
      </trkpt>
      <trkpt lat="44.45681" lon="1.50678">
        <ele>121.9</ele>
        <time>2022-08-10T06:23:29Z</time>
      </trkpt>
      <trkpt lat="44.45679" lon="1.50664">
        <ele>121.9</ele>
        <time>2022-08-10T06:23:31Z</time>
      </trkpt>
      <trkpt lat="44.45678" lon="1.5065">
        <ele>121.9</ele>
        <time>2022-08-10T06:23:33Z</time>
      </trkpt>
      <trkpt lat="44.45677" lon="1.50636">
        <ele>121.9</ele>
        <time>2022-08-10T06:23:35Z</time>
      </trkpt>
      <trkpt lat="44.45677" lon="1.50621">
        <ele>121.9</ele>
        <time>2022-08-10T06:23:37Z</time>
      </trkpt>
      <trkpt lat="44.45676" lon="1.50606">
        <ele>121.9</ele>
        <time>2022-08-10T06:23:39Z</time>
      </trkpt>
      <trkpt lat="44.45675" lon="1.50591">
        <ele>121.9</ele>
        <time>2022-08-10T06:23:41Z</time>
      </trkpt>
      <trkpt lat="44.45674" lon="1.50576">
        <ele>122.1</ele>
        <time>2022-08-10T06:23:43Z</time>
      </trkpt>
      <trkpt lat="44.45674" lon="1.50562">
        <ele>122.4</ele>
        <time>2022-08-10T06:23:45Z</time>
      </trkpt>
      <trkpt lat="44.45673" lon="1.50547">
        <ele>122.8</ele>
        <time>2022-08-10T06:23:47Z</time>
      </trkpt>
      <trkpt lat="44.45673" lon="1.50532">
        <ele>123.1</ele>
        <time>2022-08-10T06:23:49Z</time>
      </trkpt>
      <trkpt lat="44.45673" lon="1.50517">
        <ele>123.5</ele>
        <time>2022-08-10T06:23:51Z</time>
      </trkpt>
      <trkpt lat="44.45672" lon="1.50502">
        <ele>123.8</ele>
        <time>2022-08-10T06:23:53Z</time>
      </trkpt>
      <trkpt lat="44.45672" lon="1.50486">
        <ele>124</ele>
        <time>2022-08-10T06:23:55Z</time>
      </trkpt>
      <trkpt lat="44.45671" lon="1.50471">
        <ele>124.2</ele>
        <time>2022-08-10T06:23:57Z</time>
      </trkpt>
      <trkpt lat="44.45671" lon="1.50455">
        <ele>124.4</ele>
        <time>2022-08-10T06:23:59Z</time>
      </trkpt>
      <trkpt lat="44.45671" lon="1.5044">
        <ele>124.5</ele>
        <time>2022-08-10T06:24:01Z</time>
      </trkpt>
      <trkpt lat="44.45671" lon="1.50425">
        <ele>124.7</ele>
        <time>2022-08-10T06:24:03Z</time>
      </trkpt>
      <trkpt lat="44.4567" lon="1.5041">
        <ele>125.1</ele>
        <time>2022-08-10T06:24:05Z</time>
      </trkpt>
      <trkpt lat="44.45671" lon="1.50395">
        <ele>125.5</ele>
        <time>2022-08-10T06:24:07Z</time>
      </trkpt>
      <trkpt lat="44.45671" lon="1.50382">
        <ele>126</ele>
        <time>2022-08-10T06:24:09Z</time>
      </trkpt>
      <trkpt lat="44.45673" lon="1.50371">
        <ele>126.2</ele>
        <time>2022-08-10T06:24:11Z</time>
      </trkpt>
      <trkpt lat="44.45672" lon="1.50355">
        <ele>126.8</ele>
        <time>2022-08-10T06:24:13Z</time>
      </trkpt>
      <trkpt lat="44.45671" lon="1.5034">
        <ele>127.4</ele>
        <time>2022-08-10T06:24:15Z</time>
      </trkpt>
      <trkpt lat="44.4567" lon="1.50325">
        <ele>127.5</ele>
        <time>2022-08-10T06:24:17Z</time>
      </trkpt>
      <trkpt lat="44.4567" lon="1.5031">
        <ele>127.4</ele>
        <time>2022-08-10T06:24:19Z</time>
      </trkpt>
      <trkpt lat="44.45669" lon="1.50296">
        <ele>127.3</ele>
        <time>2022-08-10T06:24:21Z</time>
      </trkpt>
      <trkpt lat="44.45669" lon="1.50282">
        <ele>127.2</ele>
        <time>2022-08-10T06:24:23Z</time>
      </trkpt>
      <trkpt lat="44.45669" lon="1.50268">
        <ele>127</ele>
        <time>2022-08-10T06:24:25Z</time>
      </trkpt>
      <trkpt lat="44.45668" lon="1.50253">
        <ele>126.9</ele>
        <time>2022-08-10T06:24:27Z</time>
      </trkpt>
      <trkpt lat="44.45667" lon="1.5024">
        <ele>127.2</ele>
        <time>2022-08-10T06:24:29Z</time>
      </trkpt>
      <trkpt lat="44.45668" lon="1.50226">
        <ele>127.5</ele>
        <time>2022-08-10T06:24:31Z</time>
      </trkpt>
      <trkpt lat="44.45668" lon="1.50213">
        <ele>127.7</ele>
        <time>2022-08-10T06:24:33Z</time>
      </trkpt>
      <trkpt lat="44.45668" lon="1.50199">
        <ele>128.1</ele>
        <time>2022-08-10T06:24:35Z</time>
      </trkpt>
      <trkpt lat="44.45667" lon="1.50185">
        <ele>128.5</ele>
        <time>2022-08-10T06:24:37Z</time>
      </trkpt>
      <trkpt lat="44.45667" lon="1.50171">
        <ele>128.9</ele>
        <time>2022-08-10T06:24:39Z</time>
      </trkpt>
      <trkpt lat="44.45667" lon="1.50158">
        <ele>129</ele>
        <time>2022-08-10T06:24:41Z</time>
      </trkpt>
      <trkpt lat="44.45667" lon="1.50144">
        <ele>129</ele>
        <time>2022-08-10T06:24:43Z</time>
      </trkpt>
      <trkpt lat="44.45667" lon="1.50131">
        <ele>129</ele>
        <time>2022-08-10T06:24:45Z</time>
      </trkpt>
      <trkpt lat="44.45666" lon="1.50118">
        <ele>129.3</ele>
        <time>2022-08-10T06:24:47Z</time>
      </trkpt>
      <trkpt lat="44.45666" lon="1.50106">
        <ele>129.3</ele>
        <time>2022-08-10T06:24:49Z</time>
      </trkpt>
      <trkpt lat="44.45666" lon="1.50093">
        <ele>129.2</ele>
        <time>2022-08-10T06:24:51Z</time>
      </trkpt>
      <trkpt lat="44.45666" lon="1.5008">
        <ele>129.5</ele>
        <time>2022-08-10T06:24:53Z</time>
      </trkpt>
      <trkpt lat="44.45666" lon="1.50067">
        <ele>129.8</ele>
        <time>2022-08-10T06:24:55Z</time>
      </trkpt>
      <trkpt lat="44.45666" lon="1.50053">
        <ele>129.8</ele>
        <time>2022-08-10T06:24:57Z</time>
      </trkpt>
      <trkpt lat="44.45666" lon="1.50041">
        <ele>129.7</ele>
        <time>2022-08-10T06:24:59Z</time>
      </trkpt>
      <trkpt lat="44.45666" lon="1.50028">
        <ele>130.2</ele>
        <time>2022-08-10T06:25:01Z</time>
      </trkpt>
      <trkpt lat="44.45666" lon="1.50016">
        <ele>130.3</ele>
        <time>2022-08-10T06:25:03Z</time>
      </trkpt>
      <trkpt lat="44.45666" lon="1.50003">
        <ele>130.5</ele>
        <time>2022-08-10T06:25:05Z</time>
      </trkpt>
      <trkpt lat="44.45665" lon="1.4999">
        <ele>130.8</ele>
        <time>2022-08-10T06:25:07Z</time>
      </trkpt>
      <trkpt lat="44.45665" lon="1.49977">
        <ele>130.8</ele>
        <time>2022-08-10T06:25:09Z</time>
      </trkpt>
      <trkpt lat="44.45665" lon="1.49965">
        <ele>131</ele>
        <time>2022-08-10T06:25:11Z</time>
      </trkpt>
      <trkpt lat="44.45664" lon="1.49952">
        <ele>131.5</ele>
        <time>2022-08-10T06:25:13Z</time>
      </trkpt>
      <trkpt lat="44.45663" lon="1.4994">
        <ele>131.9</ele>
        <time>2022-08-10T06:25:15Z</time>
      </trkpt>
      <trkpt lat="44.45661" lon="1.49928">
        <ele>132.5</ele>
        <time>2022-08-10T06:25:17Z</time>
      </trkpt>
      <trkpt lat="44.45659" lon="1.49916">
        <ele>133.2</ele>
        <time>2022-08-10T06:25:19Z</time>
      </trkpt>
      <trkpt lat="44.45658" lon="1.49903">
        <ele>132.7</ele>
        <time>2022-08-10T06:25:21Z</time>
      </trkpt>
      <trkpt lat="44.45655" lon="1.49891">
        <ele>132.7</ele>
        <time>2022-08-10T06:25:23Z</time>
      </trkpt>
      <trkpt lat="44.45654" lon="1.49879">
        <ele>132.1</ele>
        <time>2022-08-10T06:25:25Z</time>
      </trkpt>
      <trkpt lat="44.45652" lon="1.49868">
        <ele>131.8</ele>
        <time>2022-08-10T06:25:27Z</time>
      </trkpt>
      <trkpt lat="44.4565" lon="1.49857">
        <ele>131.3</ele>
        <time>2022-08-10T06:25:29Z</time>
      </trkpt>
      <trkpt lat="44.45648" lon="1.49847">
        <ele>130.9</ele>
        <time>2022-08-10T06:25:31Z</time>
      </trkpt>
      <trkpt lat="44.45647" lon="1.49836">
        <ele>130.4</ele>
        <time>2022-08-10T06:25:33Z</time>
      </trkpt>
      <trkpt lat="44.45645" lon="1.49826">
        <ele>130.5</ele>
        <time>2022-08-10T06:25:35Z</time>
      </trkpt>
      <trkpt lat="44.45643" lon="1.49815">
        <ele>130.9</ele>
        <time>2022-08-10T06:25:37Z</time>
      </trkpt>
      <trkpt lat="44.45641" lon="1.49805">
        <ele>131.4</ele>
        <time>2022-08-10T06:25:39Z</time>
      </trkpt>
      <trkpt lat="44.45639" lon="1.49796">
        <ele>132</ele>
        <time>2022-08-10T06:25:41Z</time>
      </trkpt>
      <trkpt lat="44.45638" lon="1.49785">
        <ele>132.2</ele>
        <time>2022-08-10T06:25:43Z</time>
      </trkpt>
      <trkpt lat="44.45637" lon="1.49776">
        <ele>132.6</ele>
        <time>2022-08-10T06:25:45Z</time>
      </trkpt>
      <trkpt lat="44.45635" lon="1.49766">
        <ele>133</ele>
        <time>2022-08-10T06:25:47Z</time>
      </trkpt>
      <trkpt lat="44.45635" lon="1.49756">
        <ele>133.2</ele>
        <time>2022-08-10T06:25:49Z</time>
      </trkpt>
      <trkpt lat="44.45633" lon="1.49747">
        <ele>133.6</ele>
        <time>2022-08-10T06:25:51Z</time>
      </trkpt>
      <trkpt lat="44.45632" lon="1.49737">
        <ele>134</ele>
        <time>2022-08-10T06:25:53Z</time>
      </trkpt>
      <trkpt lat="44.45632" lon="1.49728">
        <ele>134</ele>
        <time>2022-08-10T06:25:55Z</time>
      </trkpt>
      <trkpt lat="44.45631" lon="1.49718">
        <ele>134.3</ele>
        <time>2022-08-10T06:25:57Z</time>
      </trkpt>
      <trkpt lat="44.45631" lon="1.49708">
        <ele>134.5</ele>
        <time>2022-08-10T06:25:59Z</time>
      </trkpt>
      <trkpt lat="44.4563" lon="1.49697">
        <ele>134.8</ele>
        <time>2022-08-10T06:26:01Z</time>
      </trkpt>
      <trkpt lat="44.45629" lon="1.49686">
        <ele>135</ele>
        <time>2022-08-10T06:26:03Z</time>
      </trkpt>
      <trkpt lat="44.45628" lon="1.49676">
        <ele>135.3</ele>
        <time>2022-08-10T06:26:05Z</time>
      </trkpt>
      <trkpt lat="44.45628" lon="1.49666">
        <ele>135.5</ele>
        <time>2022-08-10T06:26:07Z</time>
      </trkpt>
      <trkpt lat="44.45627" lon="1.49656">
        <ele>135.9</ele>
        <time>2022-08-10T06:26:09Z</time>
      </trkpt>
      <trkpt lat="44.45627" lon="1.49646">
        <ele>136</ele>
        <time>2022-08-10T06:26:11Z</time>
      </trkpt>
      <trkpt lat="44.45627" lon="1.49636">
        <ele>136.2</ele>
        <time>2022-08-10T06:26:13Z</time>
      </trkpt>
      <trkpt lat="44.45626" lon="1.49626">
        <ele>136.5</ele>
        <time>2022-08-10T06:26:15Z</time>
      </trkpt>
      <trkpt lat="44.45625" lon="1.49616">
        <ele>136.8</ele>
        <time>2022-08-10T06:26:17Z</time>
      </trkpt>
      <trkpt lat="44.45624" lon="1.49604">
        <ele>137.1</ele>
        <time>2022-08-10T06:26:19Z</time>
      </trkpt>
      <trkpt lat="44.45624" lon="1.49594">
        <ele>137.3</ele>
        <time>2022-08-10T06:26:21Z</time>
      </trkpt>
      <trkpt lat="44.45623" lon="1.49584">
        <ele>137.5</ele>
        <time>2022-08-10T06:26:23Z</time>
      </trkpt>
      <trkpt lat="44.45623" lon="1.49573">
        <ele>138.1</ele>
        <time>2022-08-10T06:26:25Z</time>
      </trkpt>
      <trkpt lat="44.45622" lon="1.49563">
        <ele>138.8</ele>
        <time>2022-08-10T06:26:27Z</time>
      </trkpt>
      <trkpt lat="44.45622" lon="1.49552">
        <ele>139.4</ele>
        <time>2022-08-10T06:26:29Z</time>
      </trkpt>
      <trkpt lat="44.45622" lon="1.49542">
        <ele>140.1</ele>
        <time>2022-08-10T06:26:31Z</time>
      </trkpt>
      <trkpt lat="44.45621" lon="1.49531">
        <ele>140.9</ele>
        <time>2022-08-10T06:26:33Z</time>
      </trkpt>
      <trkpt lat="44.45621" lon="1.49521">
        <ele>141.4</ele>
        <time>2022-08-10T06:26:35Z</time>
      </trkpt>
      <trkpt lat="44.45621" lon="1.49511">
        <ele>142.1</ele>
        <time>2022-08-10T06:26:37Z</time>
      </trkpt>
      <trkpt lat="44.4562" lon="1.49501">
        <ele>142.7</ele>
        <time>2022-08-10T06:26:39Z</time>
      </trkpt>
      <trkpt lat="44.4562" lon="1.49489">
        <ele>143.3</ele>
        <time>2022-08-10T06:26:41Z</time>
      </trkpt>
      <trkpt lat="44.4562" lon="1.49479">
        <ele>143.8</ele>
        <time>2022-08-10T06:26:43Z</time>
      </trkpt>
      <trkpt lat="44.45621" lon="1.49468">
        <ele>144.2</ele>
        <time>2022-08-10T06:26:45Z</time>
      </trkpt>
      <trkpt lat="44.45621" lon="1.49457">
        <ele>144.6</ele>
        <time>2022-08-10T06:26:47Z</time>
      </trkpt>
      <trkpt lat="44.45621" lon="1.49446">
        <ele>144.9</ele>
        <time>2022-08-10T06:26:49Z</time>
      </trkpt>
      <trkpt lat="44.45621" lon="1.49436">
        <ele>145.3</ele>
        <time>2022-08-10T06:26:51Z</time>
      </trkpt>
      <trkpt lat="44.45622" lon="1.49426">
        <ele>145.4</ele>
        <time>2022-08-10T06:26:53Z</time>
      </trkpt>
      <trkpt lat="44.45623" lon="1.49415">
        <ele>145.5</ele>
        <time>2022-08-10T06:26:55Z</time>
      </trkpt>
      <trkpt lat="44.45623" lon="1.49404">
        <ele>144.7</ele>
        <time>2022-08-10T06:26:57Z</time>
      </trkpt>
      <trkpt lat="44.45624" lon="1.49393">
        <ele>143.9</ele>
        <time>2022-08-10T06:26:59Z</time>
      </trkpt>
      <trkpt lat="44.45625" lon="1.49382">
        <ele>143.2</ele>
        <time>2022-08-10T06:27:01Z</time>
      </trkpt>
      <trkpt lat="44.45626" lon="1.49372">
        <ele>142.4</ele>
        <time>2022-08-10T06:27:03Z</time>
      </trkpt>
      <trkpt lat="44.45627" lon="1.49361">
        <ele>141.7</ele>
        <time>2022-08-10T06:27:05Z</time>
      </trkpt>
      <trkpt lat="44.45628" lon="1.4935">
        <ele>141</ele>
        <time>2022-08-10T06:27:07Z</time>
      </trkpt>
      <trkpt lat="44.45629" lon="1.4934">
        <ele>140.2</ele>
        <time>2022-08-10T06:27:09Z</time>
      </trkpt>
      <trkpt lat="44.45631" lon="1.49329">
        <ele>139.4</ele>
        <time>2022-08-10T06:27:11Z</time>
      </trkpt>
      <trkpt lat="44.45631" lon="1.49317">
        <ele>138.7</ele>
        <time>2022-08-10T06:27:13Z</time>
      </trkpt>
      <trkpt lat="44.45633" lon="1.49306">
        <ele>138</ele>
        <time>2022-08-10T06:27:15Z</time>
      </trkpt>
      <trkpt lat="44.45634" lon="1.49295">
        <ele>137.2</ele>
        <time>2022-08-10T06:27:17Z</time>
      </trkpt>
      <trkpt lat="44.45636" lon="1.49284">
        <ele>136.4</ele>
        <time>2022-08-10T06:27:19Z</time>
      </trkpt>
      <trkpt lat="44.45637" lon="1.49273">
        <ele>135.8</ele>
        <time>2022-08-10T06:27:21Z</time>
      </trkpt>
      <trkpt lat="44.45639" lon="1.49261">
        <ele>135.1</ele>
        <time>2022-08-10T06:27:23Z</time>
      </trkpt>
      <trkpt lat="44.45642" lon="1.4925">
        <ele>134.5</ele>
        <time>2022-08-10T06:27:25Z</time>
      </trkpt>
      <trkpt lat="44.45644" lon="1.4924">
        <ele>134.9</ele>
        <time>2022-08-10T06:27:27Z</time>
      </trkpt>
      <trkpt lat="44.45647" lon="1.4923">
        <ele>135.3</ele>
        <time>2022-08-10T06:27:29Z</time>
      </trkpt>
      <trkpt lat="44.45649" lon="1.4922">
        <ele>135.7</ele>
        <time>2022-08-10T06:27:31Z</time>
      </trkpt>
      <trkpt lat="44.45653" lon="1.49209">
        <ele>136.1</ele>
        <time>2022-08-10T06:27:33Z</time>
      </trkpt>
      <trkpt lat="44.45656" lon="1.492">
        <ele>136.4</ele>
        <time>2022-08-10T06:27:35Z</time>
      </trkpt>
      <trkpt lat="44.45659" lon="1.49191">
        <ele>136.8</ele>
        <time>2022-08-10T06:27:37Z</time>
      </trkpt>
      <trkpt lat="44.45662" lon="1.49181">
        <ele>137.2</ele>
        <time>2022-08-10T06:27:39Z</time>
      </trkpt>
      <trkpt lat="44.45666" lon="1.49173">
        <ele>137.5</ele>
        <time>2022-08-10T06:27:41Z</time>
      </trkpt>
      <trkpt lat="44.4567" lon="1.49164">
        <ele>138.3</ele>
        <time>2022-08-10T06:27:43Z</time>
      </trkpt>
      <trkpt lat="44.45674" lon="1.49155">
        <ele>140.6</ele>
        <time>2022-08-10T06:27:45Z</time>
      </trkpt>
      <trkpt lat="44.45678" lon="1.49146">
        <ele>142.4</ele>
        <time>2022-08-10T06:27:47Z</time>
      </trkpt>
      <trkpt lat="44.45682" lon="1.49138">
        <ele>143.9</ele>
        <time>2022-08-10T06:27:49Z</time>
      </trkpt>
      <trkpt lat="44.45687" lon="1.49129">
        <ele>145.1</ele>
        <time>2022-08-10T06:27:51Z</time>
      </trkpt>
      <trkpt lat="44.45692" lon="1.4912">
        <ele>146.2</ele>
        <time>2022-08-10T06:27:53Z</time>
      </trkpt>
      <trkpt lat="44.45697" lon="1.49112">
        <ele>146.6</ele>
        <time>2022-08-10T06:27:55Z</time>
      </trkpt>
      <trkpt lat="44.45702" lon="1.49104">
        <ele>146.5</ele>
        <time>2022-08-10T06:27:57Z</time>
      </trkpt>
      <trkpt lat="44.45707" lon="1.49095">
        <ele>146.5</ele>
        <time>2022-08-10T06:27:59Z</time>
      </trkpt>
      <trkpt lat="44.45712" lon="1.49086">
        <ele>146.1</ele>
        <time>2022-08-10T06:28:01Z</time>
      </trkpt>
      <trkpt lat="44.45717" lon="1.49078">
        <ele>146.1</ele>
        <time>2022-08-10T06:28:03Z</time>
      </trkpt>
      <trkpt lat="44.45722" lon="1.4907">
        <ele>146.5</ele>
        <time>2022-08-10T06:28:05Z</time>
      </trkpt>
      <trkpt lat="44.45727" lon="1.49062">
        <ele>146.6</ele>
        <time>2022-08-10T06:28:07Z</time>
      </trkpt>
      <trkpt lat="44.45732" lon="1.49055">
        <ele>146.7</ele>
        <time>2022-08-10T06:28:09Z</time>
      </trkpt>
      <trkpt lat="44.45738" lon="1.49047">
        <ele>146.4</ele>
        <time>2022-08-10T06:28:11Z</time>
      </trkpt>
      <trkpt lat="44.45744" lon="1.49039">
        <ele>146.3</ele>
        <time>2022-08-10T06:28:13Z</time>
      </trkpt>
      <trkpt lat="44.4575" lon="1.49032">
        <ele>145.8</ele>
        <time>2022-08-10T06:28:15Z</time>
      </trkpt>
      <trkpt lat="44.45756" lon="1.49025">
        <ele>146.4</ele>
        <time>2022-08-10T06:28:17Z</time>
      </trkpt>
      <trkpt lat="44.45761" lon="1.49018">
        <ele>146.8</ele>
        <time>2022-08-10T06:28:19Z</time>
      </trkpt>
      <trkpt lat="44.45767" lon="1.4901">
        <ele>147</ele>
        <time>2022-08-10T06:28:21Z</time>
      </trkpt>
      <trkpt lat="44.45773" lon="1.49002">
        <ele>147</ele>
        <time>2022-08-10T06:28:23Z</time>
      </trkpt>
      <trkpt lat="44.45778" lon="1.48994">
        <ele>147.3</ele>
        <time>2022-08-10T06:28:25Z</time>
      </trkpt>
      <trkpt lat="44.45783" lon="1.48985">
        <ele>147.8</ele>
        <time>2022-08-10T06:28:27Z</time>
      </trkpt>
      <trkpt lat="44.45788" lon="1.48975">
        <ele>148.2</ele>
        <time>2022-08-10T06:28:29Z</time>
      </trkpt>
      <trkpt lat="44.45793" lon="1.48965">
        <ele>148.3</ele>
        <time>2022-08-10T06:28:31Z</time>
      </trkpt>
      <trkpt lat="44.45798" lon="1.48954">
        <ele>148.4</ele>
        <time>2022-08-10T06:28:33Z</time>
      </trkpt>
      <trkpt lat="44.45803" lon="1.48941">
        <ele>148.8</ele>
        <time>2022-08-10T06:28:35Z</time>
      </trkpt>
      <trkpt lat="44.45807" lon="1.48928">
        <ele>149</ele>
        <time>2022-08-10T06:28:37Z</time>
      </trkpt>
      <trkpt lat="44.45812" lon="1.48915">
        <ele>148.8</ele>
        <time>2022-08-10T06:28:39Z</time>
      </trkpt>
      <trkpt lat="44.45816" lon="1.489">
        <ele>148</ele>
        <time>2022-08-10T06:28:41Z</time>
      </trkpt>
      <trkpt lat="44.45821" lon="1.48885">
        <ele>147</ele>
        <time>2022-08-10T06:28:43Z</time>
      </trkpt>
      <trkpt lat="44.45827" lon="1.48869">
        <ele>146</ele>
        <time>2022-08-10T06:28:45Z</time>
      </trkpt>
      <trkpt lat="44.45832" lon="1.48852">
        <ele>145.1</ele>
        <time>2022-08-10T06:28:47Z</time>
      </trkpt>
      <trkpt lat="44.45838" lon="1.48834">
        <ele>145.4</ele>
        <time>2022-08-10T06:28:49Z</time>
      </trkpt>
      <trkpt lat="44.45844" lon="1.48816">
        <ele>146.8</ele>
        <time>2022-08-10T06:28:51Z</time>
      </trkpt>
      <trkpt lat="44.4585" lon="1.48798">
        <ele>147.6</ele>
        <time>2022-08-10T06:28:53Z</time>
      </trkpt>
      <trkpt lat="44.45857" lon="1.48779">
        <ele>147.9</ele>
        <time>2022-08-10T06:28:55Z</time>
      </trkpt>
      <trkpt lat="44.45864" lon="1.48759">
        <ele>147.7</ele>
        <time>2022-08-10T06:28:57Z</time>
      </trkpt>
      <trkpt lat="44.45871" lon="1.48739">
        <ele>146.3</ele>
        <time>2022-08-10T06:28:59Z</time>
      </trkpt>
      <trkpt lat="44.45878" lon="1.48719">
        <ele>144.5</ele>
        <time>2022-08-10T06:29:01Z</time>
      </trkpt>
      <trkpt lat="44.45885" lon="1.48699">
        <ele>142.7</ele>
        <time>2022-08-10T06:29:03Z</time>
      </trkpt>
      <trkpt lat="44.45892" lon="1.48678">
        <ele>140.7</ele>
        <time>2022-08-10T06:29:05Z</time>
      </trkpt>
      <trkpt lat="44.45901" lon="1.48658">
        <ele>138.5</ele>
        <time>2022-08-10T06:29:07Z</time>
      </trkpt>
      <trkpt lat="44.45909" lon="1.48637">
        <ele>137.2</ele>
        <time>2022-08-10T06:29:09Z</time>
      </trkpt>
      <trkpt lat="44.45917" lon="1.48617">
        <ele>136.6</ele>
        <time>2022-08-10T06:29:11Z</time>
      </trkpt>
      <trkpt lat="44.45925" lon="1.48597">
        <ele>137.4</ele>
        <time>2022-08-10T06:29:13Z</time>
      </trkpt>
      <trkpt lat="44.45933" lon="1.48577">
        <ele>137.9</ele>
        <time>2022-08-10T06:29:15Z</time>
      </trkpt>
      <trkpt lat="44.45941" lon="1.48558">
        <ele>138.3</ele>
        <time>2022-08-10T06:29:17Z</time>
      </trkpt>
      <trkpt lat="44.45949" lon="1.48539">
        <ele>138.4</ele>
        <time>2022-08-10T06:29:19Z</time>
      </trkpt>
      <trkpt lat="44.45958" lon="1.48519">
        <ele>138.1</ele>
        <time>2022-08-10T06:29:21Z</time>
      </trkpt>
      <trkpt lat="44.45968" lon="1.48503">
        <ele>136.8</ele>
        <time>2022-08-10T06:29:23Z</time>
      </trkpt>
      <trkpt lat="44.45978" lon="1.48487">
        <ele>135.1</ele>
        <time>2022-08-10T06:29:25Z</time>
      </trkpt>
      <trkpt lat="44.45988" lon="1.48472">
        <ele>133.5</ele>
        <time>2022-08-10T06:29:27Z</time>
      </trkpt>
      <trkpt lat="44.45998" lon="1.48458">
        <ele>132.1</ele>
        <time>2022-08-10T06:29:29Z</time>
      </trkpt>
      <trkpt lat="44.46007" lon="1.48445">
        <ele>132</ele>
        <time>2022-08-10T06:29:31Z</time>
      </trkpt>
      <trkpt lat="44.46016" lon="1.48432">
        <ele>132.1</ele>
        <time>2022-08-10T06:29:33Z</time>
      </trkpt>
      <trkpt lat="44.46025" lon="1.4842">
        <ele>132.1</ele>
        <time>2022-08-10T06:29:35Z</time>
      </trkpt>
      <trkpt lat="44.46033" lon="1.48409">
        <ele>131.4</ele>
        <time>2022-08-10T06:29:37Z</time>
      </trkpt>
      <trkpt lat="44.46039" lon="1.48398">
        <ele>130.6</ele>
        <time>2022-08-10T06:29:39Z</time>
      </trkpt>
      <trkpt lat="44.46045" lon="1.48389">
        <ele>130</ele>
        <time>2022-08-10T06:29:41Z</time>
      </trkpt>
      <trkpt lat="44.46051" lon="1.4838">
        <ele>129.6</ele>
        <time>2022-08-10T06:29:43Z</time>
      </trkpt>
      <trkpt lat="44.46058" lon="1.48377">
        <ele>128.9</ele>
        <time>2022-08-10T06:29:45Z</time>
      </trkpt>
      <trkpt lat="44.46064" lon="1.48387">
        <ele>127.8</ele>
        <time>2022-08-10T06:29:47Z</time>
      </trkpt>
      <trkpt lat="44.46068" lon="1.48394">
        <ele>127</ele>
        <time>2022-08-10T06:29:49Z</time>
      </trkpt>
      <trkpt lat="44.46075" lon="1.48394">
        <ele>126.1</ele>
        <time>2022-08-10T06:29:51Z</time>
      </trkpt>
      <trkpt lat="44.46082" lon="1.48386">
        <ele>125.6</ele>
        <time>2022-08-10T06:29:53Z</time>
      </trkpt>
      <trkpt lat="44.4609" lon="1.48376">
        <ele>125.6</ele>
        <time>2022-08-10T06:29:55Z</time>
      </trkpt>
      <trkpt lat="44.46101" lon="1.48364">
        <ele>125.5</ele>
        <time>2022-08-10T06:29:57Z</time>
      </trkpt>
      <trkpt lat="44.46113" lon="1.4835">
        <ele>125.5</ele>
        <time>2022-08-10T06:29:59Z</time>
      </trkpt>
      <trkpt lat="44.46125" lon="1.48338">
        <ele>125.3</ele>
        <time>2022-08-10T06:30:01Z</time>
      </trkpt>
      <trkpt lat="44.46136" lon="1.48326">
        <ele>126</ele>
        <time>2022-08-10T06:30:03Z</time>
      </trkpt>
      <trkpt lat="44.46148" lon="1.48316">
        <ele>127.2</ele>
        <time>2022-08-10T06:30:05Z</time>
      </trkpt>
      <trkpt lat="44.46159" lon="1.48305">
        <ele>128.5</ele>
        <time>2022-08-10T06:30:07Z</time>
      </trkpt>
      <trkpt lat="44.46169" lon="1.48295">
        <ele>129.6</ele>
        <time>2022-08-10T06:30:09Z</time>
      </trkpt>
      <trkpt lat="44.46181" lon="1.48285">
        <ele>129.9</ele>
        <time>2022-08-10T06:30:11Z</time>
      </trkpt>
      <trkpt lat="44.46192" lon="1.48276">
        <ele>129.8</ele>
        <time>2022-08-10T06:30:13Z</time>
      </trkpt>
      <trkpt lat="44.46202" lon="1.48267">
        <ele>129.5</ele>
        <time>2022-08-10T06:30:15Z</time>
      </trkpt>
      <trkpt lat="44.46212" lon="1.48259">
        <ele>128.9</ele>
        <time>2022-08-10T06:30:17Z</time>
      </trkpt>
      <trkpt lat="44.46222" lon="1.4825">
        <ele>128</ele>
        <time>2022-08-10T06:30:19Z</time>
      </trkpt>
      <trkpt lat="44.46232" lon="1.48242">
        <ele>128.7</ele>
        <time>2022-08-10T06:30:21Z</time>
      </trkpt>
      <trkpt lat="44.46242" lon="1.48232">
        <ele>129.6</ele>
        <time>2022-08-10T06:30:23Z</time>
      </trkpt>
      <trkpt lat="44.46252" lon="1.48225">
        <ele>130.4</ele>
        <time>2022-08-10T06:30:25Z</time>
      </trkpt>
      <trkpt lat="44.46261" lon="1.48217">
        <ele>131.4</ele>
        <time>2022-08-10T06:30:27Z</time>
      </trkpt>
      <trkpt lat="44.4627" lon="1.4821">
        <ele>132.1</ele>
        <time>2022-08-10T06:30:29Z</time>
      </trkpt>
      <trkpt lat="44.4628" lon="1.48202">
        <ele>132.6</ele>
        <time>2022-08-10T06:30:31Z</time>
      </trkpt>
      <trkpt lat="44.46289" lon="1.48194">
        <ele>132.9</ele>
        <time>2022-08-10T06:30:33Z</time>
      </trkpt>
      <trkpt lat="44.46298" lon="1.48187">
        <ele>132.8</ele>
        <time>2022-08-10T06:30:35Z</time>
      </trkpt>
      <trkpt lat="44.46307" lon="1.4818">
        <ele>132.2</ele>
        <time>2022-08-10T06:30:37Z</time>
      </trkpt>
      <trkpt lat="44.46316" lon="1.48172">
        <ele>131.4</ele>
        <time>2022-08-10T06:30:39Z</time>
      </trkpt>
      <trkpt lat="44.46324" lon="1.48165">
        <ele>130.5</ele>
        <time>2022-08-10T06:30:41Z</time>
      </trkpt>
      <trkpt lat="44.46333" lon="1.48158">
        <ele>130</ele>
        <time>2022-08-10T06:30:43Z</time>
      </trkpt>
      <trkpt lat="44.46341" lon="1.48152">
        <ele>130.1</ele>
        <time>2022-08-10T06:30:45Z</time>
      </trkpt>
      <trkpt lat="44.46351" lon="1.48147">
        <ele>130</ele>
        <time>2022-08-10T06:30:47Z</time>
      </trkpt>
      <trkpt lat="44.46359" lon="1.48142">
        <ele>129.8</ele>
        <time>2022-08-10T06:30:49Z</time>
      </trkpt>
      <trkpt lat="44.46369" lon="1.48138">
        <ele>129.3</ele>
        <time>2022-08-10T06:30:51Z</time>
      </trkpt>
      <trkpt lat="44.46377" lon="1.48134">
        <ele>129</ele>
        <time>2022-08-10T06:30:53Z</time>
      </trkpt>
      <trkpt lat="44.46385" lon="1.4813">
        <ele>128.6</ele>
        <time>2022-08-10T06:30:55Z</time>
      </trkpt>
      <trkpt lat="44.46392" lon="1.48125">
        <ele>128.6</ele>
        <time>2022-08-10T06:30:57Z</time>
      </trkpt>
      <trkpt lat="44.46398" lon="1.48118">
        <ele>129</ele>
        <time>2022-08-10T06:30:59Z</time>
      </trkpt>
      <trkpt lat="44.46404" lon="1.48111">
        <ele>129.3</ele>
        <time>2022-08-10T06:31:01Z</time>
      </trkpt>
      <trkpt lat="44.46409" lon="1.48104">
        <ele>129.7</ele>
        <time>2022-08-10T06:31:03Z</time>
      </trkpt>
      <trkpt lat="44.46416" lon="1.48096">
        <ele>130.1</ele>
        <time>2022-08-10T06:31:05Z</time>
      </trkpt>
      <trkpt lat="44.46423" lon="1.48087">
        <ele>130.5</ele>
        <time>2022-08-10T06:31:07Z</time>
      </trkpt>
      <trkpt lat="44.4643" lon="1.48079">
        <ele>130.8</ele>
        <time>2022-08-10T06:31:09Z</time>
      </trkpt>
      <trkpt lat="44.46438" lon="1.48072">
        <ele>131.2</ele>
        <time>2022-08-10T06:31:11Z</time>
      </trkpt>
      <trkpt lat="44.46445" lon="1.48064">
        <ele>131.5</ele>
        <time>2022-08-10T06:31:13Z</time>
      </trkpt>
      <trkpt lat="44.46453" lon="1.48058">
        <ele>131.4</ele>
        <time>2022-08-10T06:31:15Z</time>
      </trkpt>
      <trkpt lat="44.46461" lon="1.48051">
        <ele>131.4</ele>
        <time>2022-08-10T06:31:17Z</time>
      </trkpt>
      <trkpt lat="44.46469" lon="1.48045">
        <ele>131.2</ele>
        <time>2022-08-10T06:31:19Z</time>
      </trkpt>
      <trkpt lat="44.46477" lon="1.48038">
        <ele>131</ele>
        <time>2022-08-10T06:31:21Z</time>
      </trkpt>
      <trkpt lat="44.46486" lon="1.48031">
        <ele>130.7</ele>
        <time>2022-08-10T06:31:23Z</time>
      </trkpt>
      <trkpt lat="44.46495" lon="1.48024">
        <ele>130.3</ele>
        <time>2022-08-10T06:31:25Z</time>
      </trkpt>
      <trkpt lat="44.46504" lon="1.48018">
        <ele>129.8</ele>
        <time>2022-08-10T06:31:27Z</time>
      </trkpt>
      <trkpt lat="44.46513" lon="1.4801">
        <ele>129.8</ele>
        <time>2022-08-10T06:31:29Z</time>
      </trkpt>
      <trkpt lat="44.46522" lon="1.48002">
        <ele>129.5</ele>
        <time>2022-08-10T06:31:31Z</time>
      </trkpt>
      <trkpt lat="44.46532" lon="1.47994">
        <ele>129.5</ele>
        <time>2022-08-10T06:31:33Z</time>
      </trkpt>
      <trkpt lat="44.46541" lon="1.47987">
        <ele>129.7</ele>
        <time>2022-08-10T06:31:35Z</time>
      </trkpt>
      <trkpt lat="44.46552" lon="1.47979">
        <ele>129.8</ele>
        <time>2022-08-10T06:31:37Z</time>
      </trkpt>
      <trkpt lat="44.46562" lon="1.47971">
        <ele>130</ele>
        <time>2022-08-10T06:31:39Z</time>
      </trkpt>
      <trkpt lat="44.46571" lon="1.47964">
        <ele>130.2</ele>
        <time>2022-08-10T06:31:41Z</time>
      </trkpt>
      <trkpt lat="44.46581" lon="1.47955">
        <ele>130.5</ele>
        <time>2022-08-10T06:31:43Z</time>
      </trkpt>
      <trkpt lat="44.46591" lon="1.47947">
        <ele>130.6</ele>
        <time>2022-08-10T06:31:45Z</time>
      </trkpt>
      <trkpt lat="44.46601" lon="1.4794">
        <ele>130.5</ele>
        <time>2022-08-10T06:31:47Z</time>
      </trkpt>
      <trkpt lat="44.46611" lon="1.47932">
        <ele>130.1</ele>
        <time>2022-08-10T06:31:49Z</time>
      </trkpt>
      <trkpt lat="44.4662" lon="1.47925">
        <ele>129.6</ele>
        <time>2022-08-10T06:31:51Z</time>
      </trkpt>
      <trkpt lat="44.46629" lon="1.47918">
        <ele>128.6</ele>
        <time>2022-08-10T06:31:53Z</time>
      </trkpt>
      <trkpt lat="44.46637" lon="1.47913">
        <ele>127.5</ele>
        <time>2022-08-10T06:31:55Z</time>
      </trkpt>
      <trkpt lat="44.46643" lon="1.47905">
        <ele>127.1</ele>
        <time>2022-08-10T06:31:57Z</time>
      </trkpt>
      <trkpt lat="44.46648" lon="1.47898">
        <ele>127</ele>
        <time>2022-08-10T06:31:59Z</time>
      </trkpt>
      <trkpt lat="44.46652" lon="1.47891">
        <ele>126.9</ele>
        <time>2022-08-10T06:32:01Z</time>
      </trkpt>
      <trkpt lat="44.46657" lon="1.47882">
        <ele>127</ele>
        <time>2022-08-10T06:32:03Z</time>
      </trkpt>
      <trkpt lat="44.46662" lon="1.47874">
        <ele>126.9</ele>
        <time>2022-08-10T06:32:05Z</time>
      </trkpt>
      <trkpt lat="44.46667" lon="1.47867">
        <ele>126.9</ele>
        <time>2022-08-10T06:32:07Z</time>
      </trkpt>
      <trkpt lat="44.46674" lon="1.4786">
        <ele>127.2</ele>
        <time>2022-08-10T06:32:09Z</time>
      </trkpt>
      <trkpt lat="44.4668" lon="1.47853">
        <ele>127.2</ele>
        <time>2022-08-10T06:32:11Z</time>
      </trkpt>
      <trkpt lat="44.46686" lon="1.47847">
        <ele>127.1</ele>
        <time>2022-08-10T06:32:13Z</time>
      </trkpt>
      <trkpt lat="44.46693" lon="1.4784">
        <ele>127</ele>
        <time>2022-08-10T06:32:15Z</time>
      </trkpt>
      <trkpt lat="44.46699" lon="1.47832">
        <ele>126.8</ele>
        <time>2022-08-10T06:32:17Z</time>
      </trkpt>
      <trkpt lat="44.46704" lon="1.47824">
        <ele>126.7</ele>
        <time>2022-08-10T06:32:19Z</time>
      </trkpt>
      <trkpt lat="44.4671" lon="1.47816">
        <ele>126.6</ele>
        <time>2022-08-10T06:32:21Z</time>
      </trkpt>
      <trkpt lat="44.46716" lon="1.47808">
        <ele>126.5</ele>
        <time>2022-08-10T06:32:23Z</time>
      </trkpt>
      <trkpt lat="44.4672" lon="1.478">
        <ele>126.5</ele>
        <time>2022-08-10T06:32:25Z</time>
      </trkpt>
      <trkpt lat="44.46725" lon="1.47792">
        <ele>126.4</ele>
        <time>2022-08-10T06:32:27Z</time>
      </trkpt>
      <trkpt lat="44.46729" lon="1.47783">
        <ele>126.6</ele>
        <time>2022-08-10T06:32:29Z</time>
      </trkpt>
      <trkpt lat="44.46733" lon="1.47776">
        <ele>126.5</ele>
        <time>2022-08-10T06:32:31Z</time>
      </trkpt>
      <trkpt lat="44.46738" lon="1.47768">
        <ele>126.4</ele>
        <time>2022-08-10T06:32:33Z</time>
      </trkpt>
      <trkpt lat="44.46742" lon="1.4776">
        <ele>126.4</ele>
        <time>2022-08-10T06:32:35Z</time>
      </trkpt>
      <trkpt lat="44.46746" lon="1.47752">
        <ele>126.4</ele>
        <time>2022-08-10T06:32:37Z</time>
      </trkpt>
      <trkpt lat="44.46751" lon="1.47743">
        <ele>126.4</ele>
        <time>2022-08-10T06:32:39Z</time>
      </trkpt>
      <trkpt lat="44.46756" lon="1.47734">
        <ele>126.7</ele>
        <time>2022-08-10T06:32:41Z</time>
      </trkpt>
      <trkpt lat="44.46761" lon="1.47724">
        <ele>127</ele>
        <time>2022-08-10T06:32:43Z</time>
      </trkpt>
      <trkpt lat="44.46765" lon="1.47715">
        <ele>127.3</ele>
        <time>2022-08-10T06:32:45Z</time>
      </trkpt>
      <trkpt lat="44.46768" lon="1.47704">
        <ele>127.6</ele>
        <time>2022-08-10T06:32:47Z</time>
      </trkpt>
      <trkpt lat="44.46772" lon="1.47695">
        <ele>127.7</ele>
        <time>2022-08-10T06:32:49Z</time>
      </trkpt>
      <trkpt lat="44.46776" lon="1.47683">
        <ele>128</ele>
        <time>2022-08-10T06:32:51Z</time>
      </trkpt>
      <trkpt lat="44.4678" lon="1.47673">
        <ele>128.1</ele>
        <time>2022-08-10T06:32:53Z</time>
      </trkpt>
      <trkpt lat="44.46784" lon="1.47663">
        <ele>128.1</ele>
        <time>2022-08-10T06:32:55Z</time>
      </trkpt>
      <trkpt lat="44.46788" lon="1.47652">
        <ele>128.2</ele>
        <time>2022-08-10T06:32:57Z</time>
      </trkpt>
      <trkpt lat="44.46791" lon="1.47642">
        <ele>128.2</ele>
        <time>2022-08-10T06:32:59Z</time>
      </trkpt>
      <trkpt lat="44.46795" lon="1.47632">
        <ele>128.3</ele>
        <time>2022-08-10T06:33:01Z</time>
      </trkpt>
      <trkpt lat="44.46798" lon="1.47622">
        <ele>128.2</ele>
        <time>2022-08-10T06:33:03Z</time>
      </trkpt>
      <trkpt lat="44.46801" lon="1.47612">
        <ele>128.3</ele>
        <time>2022-08-10T06:33:05Z</time>
      </trkpt>
      <trkpt lat="44.46805" lon="1.47603">
        <ele>128.3</ele>
        <time>2022-08-10T06:33:07Z</time>
      </trkpt>
      <trkpt lat="44.46809" lon="1.47594">
        <ele>128.1</ele>
        <time>2022-08-10T06:33:09Z</time>
      </trkpt>
      <trkpt lat="44.46812" lon="1.47585">
        <ele>128</ele>
        <time>2022-08-10T06:33:11Z</time>
      </trkpt>
      <trkpt lat="44.46817" lon="1.47578">
        <ele>127.5</ele>
        <time>2022-08-10T06:33:13Z</time>
      </trkpt>
      <trkpt lat="44.46822" lon="1.47569">
        <ele>127.2</ele>
        <time>2022-08-10T06:33:15Z</time>
      </trkpt>
      <trkpt lat="44.46826" lon="1.47561">
        <ele>126.9</ele>
        <time>2022-08-10T06:33:17Z</time>
      </trkpt>
      <trkpt lat="44.46829" lon="1.47553">
        <ele>126.7</ele>
        <time>2022-08-10T06:33:19Z</time>
      </trkpt>
      <trkpt lat="44.46833" lon="1.47545">
        <ele>126.5</ele>
        <time>2022-08-10T06:33:21Z</time>
      </trkpt>
      <trkpt lat="44.46836" lon="1.47536">
        <ele>126.5</ele>
        <time>2022-08-10T06:33:23Z</time>
      </trkpt>
      <trkpt lat="44.46839" lon="1.47527">
        <ele>126.6</ele>
        <time>2022-08-10T06:33:25Z</time>
      </trkpt>
      <trkpt lat="44.46841" lon="1.47516">
        <ele>126.7</ele>
        <time>2022-08-10T06:33:27Z</time>
      </trkpt>
      <trkpt lat="44.46844" lon="1.47505">
        <ele>126.8</ele>
        <time>2022-08-10T06:33:29Z</time>
      </trkpt>
      <trkpt lat="44.46846" lon="1.47494">
        <ele>127.2</ele>
        <time>2022-08-10T06:33:31Z</time>
      </trkpt>
      <trkpt lat="44.46848" lon="1.47483">
        <ele>127.9</ele>
        <time>2022-08-10T06:33:33Z</time>
      </trkpt>
      <trkpt lat="44.46851" lon="1.47471">
        <ele>128.5</ele>
        <time>2022-08-10T06:33:35Z</time>
      </trkpt>
      <trkpt lat="44.46853" lon="1.47459">
        <ele>129.1</ele>
        <time>2022-08-10T06:33:37Z</time>
      </trkpt>
      <trkpt lat="44.46856" lon="1.47448">
        <ele>129.4</ele>
        <time>2022-08-10T06:33:39Z</time>
      </trkpt>
      <trkpt lat="44.4686" lon="1.47437">
        <ele>129.6</ele>
        <time>2022-08-10T06:33:41Z</time>
      </trkpt>
      <trkpt lat="44.46864" lon="1.47425">
        <ele>129.6</ele>
        <time>2022-08-10T06:33:43Z</time>
      </trkpt>
      <trkpt lat="44.46869" lon="1.47414">
        <ele>129.4</ele>
        <time>2022-08-10T06:33:45Z</time>
      </trkpt>
      <trkpt lat="44.46874" lon="1.47403">
        <ele>129</ele>
        <time>2022-08-10T06:33:47Z</time>
      </trkpt>
      <trkpt lat="44.46879" lon="1.47391">
        <ele>128.6</ele>
        <time>2022-08-10T06:33:49Z</time>
      </trkpt>
      <trkpt lat="44.46885" lon="1.4738">
        <ele>128.1</ele>
        <time>2022-08-10T06:33:51Z</time>
      </trkpt>
      <trkpt lat="44.46891" lon="1.47369">
        <ele>127.7</ele>
        <time>2022-08-10T06:33:53Z</time>
      </trkpt>
      <trkpt lat="44.46897" lon="1.47356">
        <ele>127.1</ele>
        <time>2022-08-10T06:33:55Z</time>
      </trkpt>
      <trkpt lat="44.46902" lon="1.47343">
        <ele>126.5</ele>
        <time>2022-08-10T06:33:57Z</time>
      </trkpt>
      <trkpt lat="44.46908" lon="1.4733">
        <ele>126.1</ele>
        <time>2022-08-10T06:33:59Z</time>
      </trkpt>
      <trkpt lat="44.46913" lon="1.47317">
        <ele>126</ele>
        <time>2022-08-10T06:34:01Z</time>
      </trkpt>
      <trkpt lat="44.46918" lon="1.47304">
        <ele>126</ele>
        <time>2022-08-10T06:34:03Z</time>
      </trkpt>
      <trkpt lat="44.46923" lon="1.4729">
        <ele>126.5</ele>
        <time>2022-08-10T06:34:05Z</time>
      </trkpt>
      <trkpt lat="44.46928" lon="1.47278">
        <ele>126.8</ele>
        <time>2022-08-10T06:34:07Z</time>
      </trkpt>
      <trkpt lat="44.46933" lon="1.47264">
        <ele>127.1</ele>
        <time>2022-08-10T06:34:09Z</time>
      </trkpt>
      <trkpt lat="44.46938" lon="1.47251">
        <ele>127.2</ele>
        <time>2022-08-10T06:34:11Z</time>
      </trkpt>
      <trkpt lat="44.46944" lon="1.47238">
        <ele>127.2</ele>
        <time>2022-08-10T06:34:13Z</time>
      </trkpt>
      <trkpt lat="44.4695" lon="1.47225">
        <ele>127.1</ele>
        <time>2022-08-10T06:34:15Z</time>
      </trkpt>
      <trkpt lat="44.46957" lon="1.47214">
        <ele>126.7</ele>
        <time>2022-08-10T06:34:17Z</time>
      </trkpt>
      <trkpt lat="44.46963" lon="1.47203">
        <ele>126.2</ele>
        <time>2022-08-10T06:34:19Z</time>
      </trkpt>
      <trkpt lat="44.46969" lon="1.47189">
        <ele>125.9</ele>
        <time>2022-08-10T06:34:21Z</time>
      </trkpt>
      <trkpt lat="44.46975" lon="1.47176">
        <ele>125.4</ele>
        <time>2022-08-10T06:34:23Z</time>
      </trkpt>
      <trkpt lat="44.4698" lon="1.47163">
        <ele>124.9</ele>
        <time>2022-08-10T06:34:25Z</time>
      </trkpt>
      <trkpt lat="44.46985" lon="1.47149">
        <ele>124.6</ele>
        <time>2022-08-10T06:34:27Z</time>
      </trkpt>
      <trkpt lat="44.46989" lon="1.47134">
        <ele>124.4</ele>
        <time>2022-08-10T06:34:29Z</time>
      </trkpt>
      <trkpt lat="44.46992" lon="1.4712">
        <ele>124.3</ele>
        <time>2022-08-10T06:34:31Z</time>
      </trkpt>
      <trkpt lat="44.46995" lon="1.47106">
        <ele>124.2</ele>
        <time>2022-08-10T06:34:33Z</time>
      </trkpt>
      <trkpt lat="44.46998" lon="1.47092">
        <ele>124</ele>
        <time>2022-08-10T06:34:35Z</time>
      </trkpt>
      <trkpt lat="44.47002" lon="1.47077">
        <ele>124.2</ele>
        <time>2022-08-10T06:34:37Z</time>
      </trkpt>
      <trkpt lat="44.47005" lon="1.47062">
        <ele>124.8</ele>
        <time>2022-08-10T06:34:39Z</time>
      </trkpt>
      <trkpt lat="44.47008" lon="1.47049">
        <ele>125.2</ele>
        <time>2022-08-10T06:34:41Z</time>
      </trkpt>
      <trkpt lat="44.47011" lon="1.47035">
        <ele>125.5</ele>
        <time>2022-08-10T06:34:43Z</time>
      </trkpt>
      <trkpt lat="44.47014" lon="1.47021">
        <ele>125.8</ele>
        <time>2022-08-10T06:34:45Z</time>
      </trkpt>
      <trkpt lat="44.47018" lon="1.47007">
        <ele>126</ele>
        <time>2022-08-10T06:34:47Z</time>
      </trkpt>
      <trkpt lat="44.47021" lon="1.46994">
        <ele>126.3</ele>
        <time>2022-08-10T06:34:49Z</time>
      </trkpt>
      <trkpt lat="44.47024" lon="1.4698">
        <ele>126.6</ele>
        <time>2022-08-10T06:34:51Z</time>
      </trkpt>
      <trkpt lat="44.47027" lon="1.46967">
        <ele>126.8</ele>
        <time>2022-08-10T06:34:53Z</time>
      </trkpt>
      <trkpt lat="44.4703" lon="1.46953">
        <ele>127.1</ele>
        <time>2022-08-10T06:34:55Z</time>
      </trkpt>
      <trkpt lat="44.47033" lon="1.46939">
        <ele>127.1</ele>
        <time>2022-08-10T06:34:57Z</time>
      </trkpt>
      <trkpt lat="44.47037" lon="1.46925">
        <ele>127.1</ele>
        <time>2022-08-10T06:34:59Z</time>
      </trkpt>
      <trkpt lat="44.47039" lon="1.46911">
        <ele>127.1</ele>
        <time>2022-08-10T06:35:01Z</time>
      </trkpt>
      <trkpt lat="44.47042" lon="1.46897">
        <ele>127</ele>
        <time>2022-08-10T06:35:03Z</time>
      </trkpt>
      <trkpt lat="44.47044" lon="1.46883">
        <ele>126.8</ele>
        <time>2022-08-10T06:35:05Z</time>
      </trkpt>
      <trkpt lat="44.47046" lon="1.46867">
        <ele>126.9</ele>
        <time>2022-08-10T06:35:07Z</time>
      </trkpt>
      <trkpt lat="44.47048" lon="1.46853">
        <ele>126.9</ele>
        <time>2022-08-10T06:35:09Z</time>
      </trkpt>
      <trkpt lat="44.4705" lon="1.46838">
        <ele>126.9</ele>
        <time>2022-08-10T06:35:11Z</time>
      </trkpt>
      <trkpt lat="44.47051" lon="1.46824">
        <ele>126.8</ele>
        <time>2022-08-10T06:35:13Z</time>
      </trkpt>
      <trkpt lat="44.47053" lon="1.46809">
        <ele>126.6</ele>
        <time>2022-08-10T06:35:15Z</time>
      </trkpt>
      <trkpt lat="44.47055" lon="1.46794">
        <ele>126.3</ele>
        <time>2022-08-10T06:35:17Z</time>
      </trkpt>
      <trkpt lat="44.47056" lon="1.46779">
        <ele>126.1</ele>
        <time>2022-08-10T06:35:19Z</time>
      </trkpt>
      <trkpt lat="44.47057" lon="1.46765">
        <ele>125.9</ele>
        <time>2022-08-10T06:35:21Z</time>
      </trkpt>
      <trkpt lat="44.47058" lon="1.46752">
        <ele>125.8</ele>
        <time>2022-08-10T06:35:23Z</time>
      </trkpt>
      <trkpt lat="44.4706" lon="1.46738">
        <ele>125.4</ele>
        <time>2022-08-10T06:35:25Z</time>
      </trkpt>
      <trkpt lat="44.47061" lon="1.46724">
        <ele>125</ele>
        <time>2022-08-10T06:35:27Z</time>
      </trkpt>
      <trkpt lat="44.47061" lon="1.4671">
        <ele>124.8</ele>
        <time>2022-08-10T06:35:29Z</time>
      </trkpt>
      <trkpt lat="44.47061" lon="1.46697">
        <ele>124.6</ele>
        <time>2022-08-10T06:35:31Z</time>
      </trkpt>
      <trkpt lat="44.47061" lon="1.46685">
        <ele>124.4</ele>
        <time>2022-08-10T06:35:33Z</time>
      </trkpt>
      <trkpt lat="44.47062" lon="1.46672">
        <ele>124.2</ele>
        <time>2022-08-10T06:35:35Z</time>
      </trkpt>
      <trkpt lat="44.47062" lon="1.46658">
        <ele>124.1</ele>
        <time>2022-08-10T06:35:37Z</time>
      </trkpt>
      <trkpt lat="44.47063" lon="1.46644">
        <ele>123.9</ele>
        <time>2022-08-10T06:35:39Z</time>
      </trkpt>
      <trkpt lat="44.47065" lon="1.46631">
        <ele>123.5</ele>
        <time>2022-08-10T06:35:41Z</time>
      </trkpt>
      <trkpt lat="44.47067" lon="1.46616">
        <ele>123.1</ele>
        <time>2022-08-10T06:35:43Z</time>
      </trkpt>
      <trkpt lat="44.47067" lon="1.46603">
        <ele>123.1</ele>
        <time>2022-08-10T06:35:45Z</time>
      </trkpt>
      <trkpt lat="44.47067" lon="1.46589">
        <ele>123.1</ele>
        <time>2022-08-10T06:35:47Z</time>
      </trkpt>
      <trkpt lat="44.47068" lon="1.46575">
        <ele>123</ele>
        <time>2022-08-10T06:35:49Z</time>
      </trkpt>
      <trkpt lat="44.47069" lon="1.46561">
        <ele>123</ele>
        <time>2022-08-10T06:35:51Z</time>
      </trkpt>
      <trkpt lat="44.47069" lon="1.46547">
        <ele>123</ele>
        <time>2022-08-10T06:35:53Z</time>
      </trkpt>
      <trkpt lat="44.47069" lon="1.46533">
        <ele>123.1</ele>
        <time>2022-08-10T06:35:55Z</time>
      </trkpt>
      <trkpt lat="44.47069" lon="1.46519">
        <ele>123.3</ele>
        <time>2022-08-10T06:35:57Z</time>
      </trkpt>
      <trkpt lat="44.47068" lon="1.46505">
        <ele>123.4</ele>
        <time>2022-08-10T06:35:59Z</time>
      </trkpt>
      <trkpt lat="44.47068" lon="1.46491">
        <ele>123.6</ele>
        <time>2022-08-10T06:36:01Z</time>
      </trkpt>
      <trkpt lat="44.47068" lon="1.46477">
        <ele>123.8</ele>
        <time>2022-08-10T06:36:03Z</time>
      </trkpt>
      <trkpt lat="44.47068" lon="1.46462">
        <ele>123.9</ele>
        <time>2022-08-10T06:36:05Z</time>
      </trkpt>
      <trkpt lat="44.47069" lon="1.46447">
        <ele>123.7</ele>
        <time>2022-08-10T06:36:07Z</time>
      </trkpt>
      <trkpt lat="44.4707" lon="1.46432">
        <ele>123.6</ele>
        <time>2022-08-10T06:36:09Z</time>
      </trkpt>
      <trkpt lat="44.47072" lon="1.46417">
        <ele>123.5</ele>
        <time>2022-08-10T06:36:11Z</time>
      </trkpt>
      <trkpt lat="44.47073" lon="1.46402">
        <ele>123.2</ele>
        <time>2022-08-10T06:36:13Z</time>
      </trkpt>
      <trkpt lat="44.47074" lon="1.46387">
        <ele>123</ele>
        <time>2022-08-10T06:36:15Z</time>
      </trkpt>
      <trkpt lat="44.47074" lon="1.46372">
        <ele>122.9</ele>
        <time>2022-08-10T06:36:17Z</time>
      </trkpt>
      <trkpt lat="44.47074" lon="1.46357">
        <ele>122.9</ele>
        <time>2022-08-10T06:36:19Z</time>
      </trkpt>
      <trkpt lat="44.47074" lon="1.46341">
        <ele>123</ele>
        <time>2022-08-10T06:36:21Z</time>
      </trkpt>
      <trkpt lat="44.47072" lon="1.46326">
        <ele>123.2</ele>
        <time>2022-08-10T06:36:23Z</time>
      </trkpt>
      <trkpt lat="44.47069" lon="1.46311">
        <ele>123.5</ele>
        <time>2022-08-10T06:36:25Z</time>
      </trkpt>
      <trkpt lat="44.47066" lon="1.46296">
        <ele>123.8</ele>
        <time>2022-08-10T06:36:27Z</time>
      </trkpt>
      <trkpt lat="44.47063" lon="1.46281">
        <ele>124.2</ele>
        <time>2022-08-10T06:36:29Z</time>
      </trkpt>
      <trkpt lat="44.47059" lon="1.46268">
        <ele>124.8</ele>
        <time>2022-08-10T06:36:31Z</time>
      </trkpt>
      <trkpt lat="44.47053" lon="1.46255">
        <ele>125.5</ele>
        <time>2022-08-10T06:36:33Z</time>
      </trkpt>
      <trkpt lat="44.47049" lon="1.46242">
        <ele>125.8</ele>
        <time>2022-08-10T06:36:35Z</time>
      </trkpt>
      <trkpt lat="44.47046" lon="1.46229">
        <ele>125.7</ele>
        <time>2022-08-10T06:36:37Z</time>
      </trkpt>
      <trkpt lat="44.47044" lon="1.46214">
        <ele>125.3</ele>
        <time>2022-08-10T06:36:39Z</time>
      </trkpt>
      <trkpt lat="44.47043" lon="1.462">
        <ele>124.6</ele>
        <time>2022-08-10T06:36:41Z</time>
      </trkpt>
      <trkpt lat="44.47044" lon="1.46187">
        <ele>123.9</ele>
        <time>2022-08-10T06:36:43Z</time>
      </trkpt>
      <trkpt lat="44.47046" lon="1.46173">
        <ele>123</ele>
        <time>2022-08-10T06:36:45Z</time>
      </trkpt>
      <trkpt lat="44.47046" lon="1.4616">
        <ele>122.6</ele>
        <time>2022-08-10T06:36:47Z</time>
      </trkpt>
      <trkpt lat="44.47045" lon="1.46148">
        <ele>122.5</ele>
        <time>2022-08-10T06:36:49Z</time>
      </trkpt>
      <trkpt lat="44.4704" lon="1.46137">
        <ele>122.7</ele>
        <time>2022-08-10T06:36:51Z</time>
      </trkpt>
      <trkpt lat="44.47033" lon="1.46134">
        <ele>123.1</ele>
        <time>2022-08-10T06:36:53Z</time>
      </trkpt>
      <trkpt lat="44.47027" lon="1.46137">
        <ele>123.6</ele>
        <time>2022-08-10T06:36:55Z</time>
      </trkpt>
      <trkpt lat="44.47018" lon="1.46135">
        <ele>124.1</ele>
        <time>2022-08-10T06:36:57Z</time>
      </trkpt>
      <trkpt lat="44.47013" lon="1.46138">
        <ele>124.5</ele>
        <time>2022-08-10T06:36:59Z</time>
      </trkpt>
      <trkpt lat="44.47007" lon="1.46133">
        <ele>124.7</ele>
        <time>2022-08-10T06:37:01Z</time>
      </trkpt>
      <trkpt lat="44.47004" lon="1.46125">
        <ele>124.8</ele>
        <time>2022-08-10T06:37:03Z</time>
      </trkpt>
      <trkpt lat="44.47002" lon="1.46115">
        <ele>124.6</ele>
        <time>2022-08-10T06:37:05Z</time>
      </trkpt>
      <trkpt lat="44.47002" lon="1.46105">
        <ele>124.4</ele>
        <time>2022-08-10T06:37:07Z</time>
      </trkpt>
      <trkpt lat="44.47001" lon="1.46094">
        <ele>124.2</ele>
        <time>2022-08-10T06:37:09Z</time>
      </trkpt>
      <trkpt lat="44.47001" lon="1.46083">
        <ele>124</ele>
        <time>2022-08-10T06:37:11Z</time>
      </trkpt>
      <trkpt lat="44.47" lon="1.46072">
        <ele>124.1</ele>
        <time>2022-08-10T06:37:13Z</time>
      </trkpt>
      <trkpt lat="44.46999" lon="1.46061">
        <ele>124.3</ele>
        <time>2022-08-10T06:37:15Z</time>
      </trkpt>
      <trkpt lat="44.46997" lon="1.46051">
        <ele>124.6</ele>
        <time>2022-08-10T06:37:17Z</time>
      </trkpt>
      <trkpt lat="44.46996" lon="1.4604">
        <ele>124.9</ele>
        <time>2022-08-10T06:37:19Z</time>
      </trkpt>
      <trkpt lat="44.46994" lon="1.4603">
        <ele>125.1</ele>
        <time>2022-08-10T06:37:21Z</time>
      </trkpt>
      <trkpt lat="44.46993" lon="1.4602">
        <ele>125.3</ele>
        <time>2022-08-10T06:37:23Z</time>
      </trkpt>
      <trkpt lat="44.46991" lon="1.4601">
        <ele>125.6</ele>
        <time>2022-08-10T06:37:25Z</time>
      </trkpt>
      <trkpt lat="44.46989" lon="1.46002">
        <ele>125.9</ele>
        <time>2022-08-10T06:37:27Z</time>
      </trkpt>
      <trkpt lat="44.46988" lon="1.45994">
        <ele>126.1</ele>
        <time>2022-08-10T06:37:29Z</time>
      </trkpt>
      <trkpt lat="44.46987" lon="1.45985">
        <ele>126.5</ele>
        <time>2022-08-10T06:37:31Z</time>
      </trkpt>
      <trkpt lat="44.46985" lon="1.45977">
        <ele>126.9</ele>
        <time>2022-08-10T06:37:33Z</time>
      </trkpt>
      <trkpt lat="44.46983" lon="1.45969">
        <ele>127.2</ele>
        <time>2022-08-10T06:37:35Z</time>
      </trkpt>
      <trkpt lat="44.46982" lon="1.45961">
        <ele>127.6</ele>
        <time>2022-08-10T06:37:37Z</time>
      </trkpt>
      <trkpt lat="44.4698" lon="1.45951">
        <ele>128.1</ele>
        <time>2022-08-10T06:37:39Z</time>
      </trkpt>
      <trkpt lat="44.46978" lon="1.45943">
        <ele>128.6</ele>
        <time>2022-08-10T06:37:41Z</time>
      </trkpt>
      <trkpt lat="44.46976" lon="1.45936">
        <ele>129.1</ele>
        <time>2022-08-10T06:37:43Z</time>
      </trkpt>
      <trkpt lat="44.46974" lon="1.45928">
        <ele>129.6</ele>
        <time>2022-08-10T06:37:45Z</time>
      </trkpt>
      <trkpt lat="44.46973" lon="1.45921">
        <ele>130</ele>
        <time>2022-08-10T06:37:47Z</time>
      </trkpt>
      <trkpt lat="44.46971" lon="1.45913">
        <ele>130.4</ele>
        <time>2022-08-10T06:37:49Z</time>
      </trkpt>
      <trkpt lat="44.4697" lon="1.45905">
        <ele>130.5</ele>
        <time>2022-08-10T06:37:51Z</time>
      </trkpt>
      <trkpt lat="44.46968" lon="1.45898">
        <ele>130.7</ele>
        <time>2022-08-10T06:37:53Z</time>
      </trkpt>
      <trkpt lat="44.46966" lon="1.4589">
        <ele>130.9</ele>
        <time>2022-08-10T06:37:55Z</time>
      </trkpt>
      <trkpt lat="44.46965" lon="1.45882">
        <ele>131.1</ele>
        <time>2022-08-10T06:37:57Z</time>
      </trkpt>
      <trkpt lat="44.46963" lon="1.45875">
        <ele>131.3</ele>
        <time>2022-08-10T06:37:59Z</time>
      </trkpt>
      <trkpt lat="44.46961" lon="1.45868">
        <ele>131.6</ele>
        <time>2022-08-10T06:38:01Z</time>
      </trkpt>
      <trkpt lat="44.4696" lon="1.45861">
        <ele>131.9</ele>
        <time>2022-08-10T06:38:03Z</time>
      </trkpt>
      <trkpt lat="44.46959" lon="1.45853">
        <ele>132</ele>
        <time>2022-08-10T06:38:05Z</time>
      </trkpt>
      <trkpt lat="44.46957" lon="1.45846">
        <ele>132.3</ele>
        <time>2022-08-10T06:38:07Z</time>
      </trkpt>
      <trkpt lat="44.46956" lon="1.45838">
        <ele>132.7</ele>
        <time>2022-08-10T06:38:09Z</time>
      </trkpt>
      <trkpt lat="44.46954" lon="1.4583">
        <ele>133</ele>
        <time>2022-08-10T06:38:11Z</time>
      </trkpt>
      <trkpt lat="44.46953" lon="1.45823">
        <ele>133.2</ele>
        <time>2022-08-10T06:38:13Z</time>
      </trkpt>
      <trkpt lat="44.46951" lon="1.45815">
        <ele>133.5</ele>
        <time>2022-08-10T06:38:15Z</time>
      </trkpt>
      <trkpt lat="44.4695" lon="1.45807">
        <ele>133.8</ele>
        <time>2022-08-10T06:38:17Z</time>
      </trkpt>
      <trkpt lat="44.46948" lon="1.45799">
        <ele>134.3</ele>
        <time>2022-08-10T06:38:19Z</time>
      </trkpt>
      <trkpt lat="44.46946" lon="1.45793">
        <ele>134.6</ele>
        <time>2022-08-10T06:38:21Z</time>
      </trkpt>
      <trkpt lat="44.46945" lon="1.45784">
        <ele>134.8</ele>
        <time>2022-08-10T06:38:23Z</time>
      </trkpt>
      <trkpt lat="44.46943" lon="1.45777">
        <ele>135.3</ele>
        <time>2022-08-10T06:38:25Z</time>
      </trkpt>
      <trkpt lat="44.46941" lon="1.45769">
        <ele>135.7</ele>
        <time>2022-08-10T06:38:27Z</time>
      </trkpt>
      <trkpt lat="44.46939" lon="1.45762">
        <ele>136.1</ele>
        <time>2022-08-10T06:38:29Z</time>
      </trkpt>
      <trkpt lat="44.46938" lon="1.45755">
        <ele>136.5</ele>
        <time>2022-08-10T06:38:31Z</time>
      </trkpt>
      <trkpt lat="44.46935" lon="1.45747">
        <ele>137</ele>
        <time>2022-08-10T06:38:33Z</time>
      </trkpt>
      <trkpt lat="44.46934" lon="1.4574">
        <ele>136.8</ele>
        <time>2022-08-10T06:38:35Z</time>
      </trkpt>
      <trkpt lat="44.46933" lon="1.45732">
        <ele>136.6</ele>
        <time>2022-08-10T06:38:37Z</time>
      </trkpt>
      <trkpt lat="44.46932" lon="1.45724">
        <ele>136.6</ele>
        <time>2022-08-10T06:38:39Z</time>
      </trkpt>
      <trkpt lat="44.4693" lon="1.45718">
        <ele>136.6</ele>
        <time>2022-08-10T06:38:41Z</time>
      </trkpt>
      <trkpt lat="44.46928" lon="1.45708">
        <ele>136.5</ele>
        <time>2022-08-10T06:38:43Z</time>
      </trkpt>
      <trkpt lat="44.46927" lon="1.45702">
        <ele>136.5</ele>
        <time>2022-08-10T06:38:45Z</time>
      </trkpt>
      <trkpt lat="44.46925" lon="1.45694">
        <ele>136.4</ele>
        <time>2022-08-10T06:38:47Z</time>
      </trkpt>
      <trkpt lat="44.46922" lon="1.45686">
        <ele>136.3</ele>
        <time>2022-08-10T06:38:49Z</time>
      </trkpt>
      <trkpt lat="44.4692" lon="1.4568">
        <ele>136.3</ele>
        <time>2022-08-10T06:38:51Z</time>
      </trkpt>
      <trkpt lat="44.46917" lon="1.45673">
        <ele>136.3</ele>
        <time>2022-08-10T06:38:53Z</time>
      </trkpt>
      <trkpt lat="44.46916" lon="1.45665">
        <ele>136</ele>
        <time>2022-08-10T06:38:55Z</time>
      </trkpt>
      <trkpt lat="44.46913" lon="1.45658">
        <ele>135.8</ele>
        <time>2022-08-10T06:38:57Z</time>
      </trkpt>
      <trkpt lat="44.4691" lon="1.45652">
        <ele>135.6</ele>
        <time>2022-08-10T06:38:59Z</time>
      </trkpt>
      <trkpt lat="44.46908" lon="1.45646">
        <ele>135.5</ele>
        <time>2022-08-10T06:39:01Z</time>
      </trkpt>
      <trkpt lat="44.46905" lon="1.45638">
        <ele>135.2</ele>
        <time>2022-08-10T06:39:03Z</time>
      </trkpt>
      <trkpt lat="44.46903" lon="1.45632">
        <ele>135.1</ele>
        <time>2022-08-10T06:39:05Z</time>
      </trkpt>
      <trkpt lat="44.46901" lon="1.45626">
        <ele>135</ele>
        <time>2022-08-10T06:39:07Z</time>
      </trkpt>
      <trkpt lat="44.46899" lon="1.45619">
        <ele>134.8</ele>
        <time>2022-08-10T06:39:09Z</time>
      </trkpt>
      <trkpt lat="44.46897" lon="1.45613">
        <ele>134.7</ele>
        <time>2022-08-10T06:39:11Z</time>
      </trkpt>
      <trkpt lat="44.46895" lon="1.45607">
        <ele>134.6</ele>
        <time>2022-08-10T06:39:13Z</time>
      </trkpt>
      <trkpt lat="44.46893" lon="1.45601">
        <ele>134.5</ele>
        <time>2022-08-10T06:39:15Z</time>
      </trkpt>
      <trkpt lat="44.46891" lon="1.45594">
        <ele>134.3</ele>
        <time>2022-08-10T06:39:17Z</time>
      </trkpt>
      <trkpt lat="44.46889" lon="1.45588">
        <ele>134.2</ele>
        <time>2022-08-10T06:39:19Z</time>
      </trkpt>
      <trkpt lat="44.46888" lon="1.45582">
        <ele>134.1</ele>
        <time>2022-08-10T06:39:21Z</time>
      </trkpt>
      <trkpt lat="44.46886" lon="1.45575">
        <ele>134.3</ele>
        <time>2022-08-10T06:39:23Z</time>
      </trkpt>
      <trkpt lat="44.46884" lon="1.45569">
        <ele>134.4</ele>
        <time>2022-08-10T06:39:25Z</time>
      </trkpt>
      <trkpt lat="44.46883" lon="1.45562">
        <ele>134.5</ele>
        <time>2022-08-10T06:39:27Z</time>
      </trkpt>
      <trkpt lat="44.46881" lon="1.45555">
        <ele>134.7</ele>
        <time>2022-08-10T06:39:29Z</time>
      </trkpt>
      <trkpt lat="44.4688" lon="1.45548">
        <ele>134.8</ele>
        <time>2022-08-10T06:39:31Z</time>
      </trkpt>
      <trkpt lat="44.46878" lon="1.45541">
        <ele>134.9</ele>
        <time>2022-08-10T06:39:33Z</time>
      </trkpt>
      <trkpt lat="44.46877" lon="1.45534">
        <ele>135</ele>
        <time>2022-08-10T06:39:35Z</time>
      </trkpt>
      <trkpt lat="44.46875" lon="1.45527">
        <ele>135.2</ele>
        <time>2022-08-10T06:39:37Z</time>
      </trkpt>
      <trkpt lat="44.46874" lon="1.4552">
        <ele>135.4</ele>
        <time>2022-08-10T06:39:39Z</time>
      </trkpt>
      <trkpt lat="44.46872" lon="1.45512">
        <ele>135.7</ele>
        <time>2022-08-10T06:39:41Z</time>
      </trkpt>
      <trkpt lat="44.4687" lon="1.45507">
        <ele>136</ele>
        <time>2022-08-10T06:39:43Z</time>
      </trkpt>
      <trkpt lat="44.46867" lon="1.455">
        <ele>136.5</ele>
        <time>2022-08-10T06:39:45Z</time>
      </trkpt>
      <trkpt lat="44.46865" lon="1.45495">
        <ele>136.7</ele>
        <time>2022-08-10T06:39:47Z</time>
      </trkpt>
      <trkpt lat="44.46863" lon="1.45488">
        <ele>137</ele>
        <time>2022-08-10T06:39:49Z</time>
      </trkpt>
      <trkpt lat="44.4686" lon="1.45482">
        <ele>137.3</ele>
        <time>2022-08-10T06:39:51Z</time>
      </trkpt>
      <trkpt lat="44.46858" lon="1.45475">
        <ele>137.6</ele>
        <time>2022-08-10T06:39:53Z</time>
      </trkpt>
      <trkpt lat="44.46855" lon="1.45469">
        <ele>138</ele>
        <time>2022-08-10T06:39:55Z</time>
      </trkpt>
      <trkpt lat="44.46851" lon="1.45463">
        <ele>138.7</ele>
        <time>2022-08-10T06:39:57Z</time>
      </trkpt>
      <trkpt lat="44.46848" lon="1.45458">
        <ele>139.2</ele>
        <time>2022-08-10T06:39:59Z</time>
      </trkpt>
      <trkpt lat="44.46845" lon="1.45452">
        <ele>139.8</ele>
        <time>2022-08-10T06:40:01Z</time>
      </trkpt>
      <trkpt lat="44.46842" lon="1.45445">
        <ele>140.4</ele>
        <time>2022-08-10T06:40:03Z</time>
      </trkpt>
      <trkpt lat="44.46838" lon="1.45439">
        <ele>141.1</ele>
        <time>2022-08-10T06:40:05Z</time>
      </trkpt>
      <trkpt lat="44.46835" lon="1.45433">
        <ele>141.8</ele>
        <time>2022-08-10T06:40:07Z</time>
      </trkpt>
      <trkpt lat="44.46831" lon="1.45427">
        <ele>142.1</ele>
        <time>2022-08-10T06:40:09Z</time>
      </trkpt>
      <trkpt lat="44.46828" lon="1.45422">
        <ele>142.1</ele>
        <time>2022-08-10T06:40:11Z</time>
      </trkpt>
      <trkpt lat="44.46825" lon="1.45415">
        <ele>142.1</ele>
        <time>2022-08-10T06:40:13Z</time>
      </trkpt>
      <trkpt lat="44.46822" lon="1.45409">
        <ele>142</ele>
        <time>2022-08-10T06:40:15Z</time>
      </trkpt>
      <trkpt lat="44.46819" lon="1.45402">
        <ele>142</ele>
        <time>2022-08-10T06:40:17Z</time>
      </trkpt>
      <trkpt lat="44.46815" lon="1.45396">
        <ele>142</ele>
        <time>2022-08-10T06:40:19Z</time>
      </trkpt>
      <trkpt lat="44.46812" lon="1.4539">
        <ele>142.1</ele>
        <time>2022-08-10T06:40:21Z</time>
      </trkpt>
      <trkpt lat="44.46809" lon="1.45384">
        <ele>142.2</ele>
        <time>2022-08-10T06:40:23Z</time>
      </trkpt>
      <trkpt lat="44.46806" lon="1.45379">
        <ele>142.3</ele>
        <time>2022-08-10T06:40:25Z</time>
      </trkpt>
      <trkpt lat="44.46802" lon="1.45374">
        <ele>142.5</ele>
        <time>2022-08-10T06:40:27Z</time>
      </trkpt>
      <trkpt lat="44.468" lon="1.45368">
        <ele>142.7</ele>
        <time>2022-08-10T06:40:29Z</time>
      </trkpt>
      <trkpt lat="44.46796" lon="1.45361">
        <ele>142.9</ele>
        <time>2022-08-10T06:40:31Z</time>
      </trkpt>
      <trkpt lat="44.46794" lon="1.45356">
        <ele>143.1</ele>
        <time>2022-08-10T06:40:33Z</time>
      </trkpt>
      <trkpt lat="44.46791" lon="1.45351">
        <ele>143.4</ele>
        <time>2022-08-10T06:40:35Z</time>
      </trkpt>
      <trkpt lat="44.46786" lon="1.45345">
        <ele>143.8</ele>
        <time>2022-08-10T06:40:37Z</time>
      </trkpt>
      <trkpt lat="44.46783" lon="1.45339">
        <ele>144.1</ele>
        <time>2022-08-10T06:40:39Z</time>
      </trkpt>
      <trkpt lat="44.46779" lon="1.45333">
        <ele>144.6</ele>
        <time>2022-08-10T06:40:41Z</time>
      </trkpt>
      <trkpt lat="44.46775" lon="1.45327">
        <ele>144.8</ele>
        <time>2022-08-10T06:40:43Z</time>
      </trkpt>
      <trkpt lat="44.46772" lon="1.4532">
        <ele>145.1</ele>
        <time>2022-08-10T06:40:45Z</time>
      </trkpt>
      <trkpt lat="44.46769" lon="1.45313">
        <ele>145.3</ele>
        <time>2022-08-10T06:40:47Z</time>
      </trkpt>
      <trkpt lat="44.46765" lon="1.45307">
        <ele>145.6</ele>
        <time>2022-08-10T06:40:49Z</time>
      </trkpt>
      <trkpt lat="44.46761" lon="1.453">
        <ele>145.9</ele>
        <time>2022-08-10T06:40:51Z</time>
      </trkpt>
      <trkpt lat="44.46758" lon="1.45294">
        <ele>146.2</ele>
        <time>2022-08-10T06:40:53Z</time>
      </trkpt>
      <trkpt lat="44.46754" lon="1.45286">
        <ele>146.6</ele>
        <time>2022-08-10T06:40:55Z</time>
      </trkpt>
      <trkpt lat="44.4675" lon="1.45279">
        <ele>147</ele>
        <time>2022-08-10T06:40:57Z</time>
      </trkpt>
      <trkpt lat="44.46746" lon="1.45272">
        <ele>146.8</ele>
        <time>2022-08-10T06:40:59Z</time>
      </trkpt>
      <trkpt lat="44.46742" lon="1.45265">
        <ele>146.6</ele>
        <time>2022-08-10T06:41:01Z</time>
      </trkpt>
      <trkpt lat="44.46737" lon="1.45259">
        <ele>146.4</ele>
        <time>2022-08-10T06:41:03Z</time>
      </trkpt>
      <trkpt lat="44.46732" lon="1.45252">
        <ele>146.1</ele>
        <time>2022-08-10T06:41:05Z</time>
      </trkpt>
      <trkpt lat="44.46726" lon="1.45246">
        <ele>145.9</ele>
        <time>2022-08-10T06:41:07Z</time>
      </trkpt>
      <trkpt lat="44.46721" lon="1.45241">
        <ele>145.7</ele>
        <time>2022-08-10T06:41:09Z</time>
      </trkpt>
      <trkpt lat="44.46717" lon="1.45236">
        <ele>145.5</ele>
        <time>2022-08-10T06:41:11Z</time>
      </trkpt>
      <trkpt lat="44.46713" lon="1.45231">
        <ele>145.3</ele>
        <time>2022-08-10T06:41:13Z</time>
      </trkpt>
      <trkpt lat="44.46712" lon="1.45227">
        <ele>145.3</ele>
        <time>2022-08-10T06:41:15Z</time>
      </trkpt>
      <trkpt lat="44.4671" lon="1.45225">
        <ele>145.2</ele>
        <time>2022-08-10T06:41:17Z</time>
      </trkpt>
      <trkpt lat="44.4671" lon="1.45225">
        <ele>145.2</ele>
        <time>2022-08-10T06:41:19Z</time>
      </trkpt>
      <trkpt lat="44.4671" lon="1.45225">
        <ele>145.2</ele>
        <time>2022-08-10T06:41:21Z</time>
      </trkpt>
      <trkpt lat="44.4671" lon="1.45225">
        <ele>145.2</ele>
        <time>2022-08-10T06:41:23Z</time>
      </trkpt>
      <trkpt lat="44.4671" lon="1.45225">
        <ele>145.2</ele>
        <time>2022-08-10T06:41:25Z</time>
      </trkpt>
      <trkpt lat="44.46698" lon="1.45217">
        <ele>144.8</ele>
        <time>2022-08-10T06:43:13Z</time>
      </trkpt>
      <trkpt lat="44.46694" lon="1.45211">
        <ele>144.6</ele>
        <time>2022-08-10T06:43:15Z</time>
      </trkpt>
      <trkpt lat="44.4669" lon="1.45205">
        <ele>144.5</ele>
        <time>2022-08-10T06:43:17Z</time>
      </trkpt>
      <trkpt lat="44.46685" lon="1.452">
        <ele>144.4</ele>
        <time>2022-08-10T06:43:19Z</time>
      </trkpt>
      <trkpt lat="44.46681" lon="1.45194">
        <ele>144.2</ele>
        <time>2022-08-10T06:43:21Z</time>
      </trkpt>
      <trkpt lat="44.46676" lon="1.45188">
        <ele>144.1</ele>
        <time>2022-08-10T06:43:23Z</time>
      </trkpt>
      <trkpt lat="44.46671" lon="1.45182">
        <ele>144</ele>
        <time>2022-08-10T06:43:25Z</time>
      </trkpt>
      <trkpt lat="44.46666" lon="1.45176">
        <ele>143.9</ele>
        <time>2022-08-10T06:43:27Z</time>
      </trkpt>
      <trkpt lat="44.46661" lon="1.45171">
        <ele>144.2</ele>
        <time>2022-08-10T06:43:29Z</time>
      </trkpt>
      <trkpt lat="44.46655" lon="1.45164">
        <ele>144.5</ele>
        <time>2022-08-10T06:43:31Z</time>
      </trkpt>
      <trkpt lat="44.46649" lon="1.45157">
        <ele>144.7</ele>
        <time>2022-08-10T06:43:33Z</time>
      </trkpt>
      <trkpt lat="44.46642" lon="1.4515">
        <ele>145</ele>
        <time>2022-08-10T06:43:35Z</time>
      </trkpt>
      <trkpt lat="44.46636" lon="1.45142">
        <ele>145.3</ele>
        <time>2022-08-10T06:43:37Z</time>
      </trkpt>
      <trkpt lat="44.4663" lon="1.45135">
        <ele>145.5</ele>
        <time>2022-08-10T06:43:39Z</time>
      </trkpt>
      <trkpt lat="44.46624" lon="1.45128">
        <ele>145.8</ele>
        <time>2022-08-10T06:43:41Z</time>
      </trkpt>
      <trkpt lat="44.46617" lon="1.4512">
        <ele>146</ele>
        <time>2022-08-10T06:43:43Z</time>
      </trkpt>
      <trkpt lat="44.4661" lon="1.45112">
        <ele>146.2</ele>
        <time>2022-08-10T06:43:45Z</time>
      </trkpt>
      <trkpt lat="44.46604" lon="1.45104">
        <ele>146.5</ele>
        <time>2022-08-10T06:43:47Z</time>
      </trkpt>
      <trkpt lat="44.46597" lon="1.45096">
        <ele>146.6</ele>
        <time>2022-08-10T06:43:49Z</time>
      </trkpt>
      <trkpt lat="44.46591" lon="1.45088">
        <ele>146.8</ele>
        <time>2022-08-10T06:43:51Z</time>
      </trkpt>
      <trkpt lat="44.46585" lon="1.4508">
        <ele>146.9</ele>
        <time>2022-08-10T06:43:53Z</time>
      </trkpt>
      <trkpt lat="44.46578" lon="1.45074">
        <ele>146.7</ele>
        <time>2022-08-10T06:43:55Z</time>
      </trkpt>
      <trkpt lat="44.46572" lon="1.45067">
        <ele>146.5</ele>
        <time>2022-08-10T06:43:57Z</time>
      </trkpt>
      <trkpt lat="44.46566" lon="1.45059">
        <ele>146.2</ele>
        <time>2022-08-10T06:43:59Z</time>
      </trkpt>
      <trkpt lat="44.46559" lon="1.45052">
        <ele>146</ele>
        <time>2022-08-10T06:44:01Z</time>
      </trkpt>
      <trkpt lat="44.46553" lon="1.45045">
        <ele>145.7</ele>
        <time>2022-08-10T06:44:03Z</time>
      </trkpt>
      <trkpt lat="44.46546" lon="1.45037">
        <ele>145.4</ele>
        <time>2022-08-10T06:44:05Z</time>
      </trkpt>
      <trkpt lat="44.4654" lon="1.4503">
        <ele>145.2</ele>
        <time>2022-08-10T06:44:07Z</time>
      </trkpt>
      <trkpt lat="44.46532" lon="1.45022">
        <ele>144.9</ele>
        <time>2022-08-10T06:44:09Z</time>
      </trkpt>
      <trkpt lat="44.46525" lon="1.45016">
        <ele>144.7</ele>
        <time>2022-08-10T06:44:11Z</time>
      </trkpt>
      <trkpt lat="44.46516" lon="1.4501">
        <ele>144.4</ele>
        <time>2022-08-10T06:44:13Z</time>
      </trkpt>
      <trkpt lat="44.46508" lon="1.45003">
        <ele>144.2</ele>
        <time>2022-08-10T06:44:15Z</time>
      </trkpt>
      <trkpt lat="44.465" lon="1.44997">
        <ele>143.9</ele>
        <time>2022-08-10T06:44:17Z</time>
      </trkpt>
      <trkpt lat="44.46492" lon="1.44992">
        <ele>143.9</ele>
        <time>2022-08-10T06:44:19Z</time>
      </trkpt>
      <trkpt lat="44.46485" lon="1.4499">
        <ele>144</ele>
        <time>2022-08-10T06:44:21Z</time>
      </trkpt>
      <trkpt lat="44.46477" lon="1.44988">
        <ele>144</ele>
        <time>2022-08-10T06:44:23Z</time>
      </trkpt>
      <trkpt lat="44.46471" lon="1.44982">
        <ele>144</ele>
        <time>2022-08-10T06:44:25Z</time>
      </trkpt>
      <trkpt lat="44.46465" lon="1.44976">
        <ele>144</ele>
        <time>2022-08-10T06:44:27Z</time>
      </trkpt>
      <trkpt lat="44.46458" lon="1.44972">
        <ele>144</ele>
        <time>2022-08-10T06:44:29Z</time>
      </trkpt>
      <trkpt lat="44.46451" lon="1.44969">
        <ele>144.1</ele>
        <time>2022-08-10T06:44:31Z</time>
      </trkpt>
      <trkpt lat="44.46444" lon="1.44966">
        <ele>144.1</ele>
        <time>2022-08-10T06:44:33Z</time>
      </trkpt>
      <trkpt lat="44.46437" lon="1.44962">
        <ele>144.2</ele>
        <time>2022-08-10T06:44:35Z</time>
      </trkpt>
      <trkpt lat="44.46431" lon="1.44957">
        <ele>144.2</ele>
        <time>2022-08-10T06:44:37Z</time>
      </trkpt>
      <trkpt lat="44.46424" lon="1.44953">
        <ele>144.3</ele>
        <time>2022-08-10T06:44:39Z</time>
      </trkpt>
      <trkpt lat="44.46417" lon="1.4495">
        <ele>144.4</ele>
        <time>2022-08-10T06:44:41Z</time>
      </trkpt>
      <trkpt lat="44.4641" lon="1.44945">
        <ele>144.4</ele>
        <time>2022-08-10T06:44:43Z</time>
      </trkpt>
      <trkpt lat="44.46403" lon="1.44942">
        <ele>144.5</ele>
        <time>2022-08-10T06:44:45Z</time>
      </trkpt>
      <trkpt lat="44.46396" lon="1.44937">
        <ele>144.5</ele>
        <time>2022-08-10T06:44:47Z</time>
      </trkpt>
      <trkpt lat="44.4639" lon="1.44935">
        <ele>144.5</ele>
        <time>2022-08-10T06:44:49Z</time>
      </trkpt>
      <trkpt lat="44.46382" lon="1.44932">
        <ele>144.6</ele>
        <time>2022-08-10T06:44:51Z</time>
      </trkpt>
      <trkpt lat="44.46375" lon="1.44929">
        <ele>144.6</ele>
        <time>2022-08-10T06:44:53Z</time>
      </trkpt>
      <trkpt lat="44.46368" lon="1.44926">
        <ele>144.7</ele>
        <time>2022-08-10T06:44:55Z</time>
      </trkpt>
      <trkpt lat="44.46361" lon="1.44923">
        <ele>144.8</ele>
        <time>2022-08-10T06:44:57Z</time>
      </trkpt>
      <trkpt lat="44.46353" lon="1.44921">
        <ele>144.8</ele>
        <time>2022-08-10T06:44:59Z</time>
      </trkpt>
      <trkpt lat="44.46345" lon="1.44919">
        <ele>144.9</ele>
        <time>2022-08-10T06:45:01Z</time>
      </trkpt>
      <trkpt lat="44.46337" lon="1.44917">
        <ele>145</ele>
        <time>2022-08-10T06:45:03Z</time>
      </trkpt>
      <trkpt lat="44.46332" lon="1.44915">
        <ele>144.9</ele>
        <time>2022-08-10T06:45:05Z</time>
      </trkpt>
      <trkpt lat="44.46326" lon="1.44919">
        <ele>144.9</ele>
        <time>2022-08-10T06:45:07Z</time>
      </trkpt>
      <trkpt lat="44.46326" lon="1.44928">
        <ele>145</ele>
        <time>2022-08-10T06:45:09Z</time>
      </trkpt>
      <trkpt lat="44.46327" lon="1.44937">
        <ele>145.2</ele>
        <time>2022-08-10T06:45:11Z</time>
      </trkpt>
      <trkpt lat="44.46325" lon="1.44945">
        <ele>145.2</ele>
        <time>2022-08-10T06:45:13Z</time>
      </trkpt>
      <trkpt lat="44.46324" lon="1.44953">
        <ele>145.3</ele>
        <time>2022-08-10T06:45:15Z</time>
      </trkpt>
      <trkpt lat="44.46322" lon="1.44961">
        <ele>145.3</ele>
        <time>2022-08-10T06:45:17Z</time>
      </trkpt>
      <trkpt lat="44.4632" lon="1.44968">
        <ele>145.4</ele>
        <time>2022-08-10T06:45:19Z</time>
      </trkpt>
      <trkpt lat="44.46318" lon="1.44976">
        <ele>145.4</ele>
        <time>2022-08-10T06:45:21Z</time>
      </trkpt>
      <trkpt lat="44.46317" lon="1.44982">
        <ele>145.4</ele>
        <time>2022-08-10T06:45:23Z</time>
      </trkpt>
      <trkpt lat="44.46314" lon="1.4499">
        <ele>145.5</ele>
        <time>2022-08-10T06:45:25Z</time>
      </trkpt>
      <trkpt lat="44.46312" lon="1.44997">
        <ele>145.5</ele>
        <time>2022-08-10T06:45:27Z</time>
      </trkpt>
      <trkpt lat="44.4631" lon="1.45004">
        <ele>145.4</ele>
        <time>2022-08-10T06:45:29Z</time>
      </trkpt>
      <trkpt lat="44.46308" lon="1.4501">
        <ele>145.4</ele>
        <time>2022-08-10T06:45:31Z</time>
      </trkpt>
      <trkpt lat="44.46306" lon="1.45016">
        <ele>145.3</ele>
        <time>2022-08-10T06:45:33Z</time>
      </trkpt>
      <trkpt lat="44.46301" lon="1.4502">
        <ele>145.1</ele>
        <time>2022-08-10T06:45:35Z</time>
      </trkpt>
      <trkpt lat="44.46295" lon="1.45021">
        <ele>145</ele>
        <time>2022-08-10T06:45:37Z</time>
      </trkpt>
      <trkpt lat="44.4629" lon="1.4502">
        <ele>144.8</ele>
        <time>2022-08-10T06:45:39Z</time>
      </trkpt>
      <trkpt lat="44.46284" lon="1.45019">
        <ele>144.7</ele>
        <time>2022-08-10T06:45:41Z</time>
      </trkpt>
      <trkpt lat="44.46277" lon="1.45017">
        <ele>144.5</ele>
        <time>2022-08-10T06:45:43Z</time>
      </trkpt>
      <trkpt lat="44.46269" lon="1.45016">
        <ele>144.3</ele>
        <time>2022-08-10T06:45:45Z</time>
      </trkpt>
      <trkpt lat="44.46262" lon="1.45014">
        <ele>144.1</ele>
        <time>2022-08-10T06:45:47Z</time>
      </trkpt>
      <trkpt lat="44.46254" lon="1.45012">
        <ele>144</ele>
        <time>2022-08-10T06:45:49Z</time>
      </trkpt>
      <trkpt lat="44.46246" lon="1.4501">
        <ele>143.9</ele>
        <time>2022-08-10T06:45:51Z</time>
      </trkpt>
      <trkpt lat="44.46238" lon="1.45009">
        <ele>144</ele>
        <time>2022-08-10T06:45:53Z</time>
      </trkpt>
      <trkpt lat="44.46229" lon="1.45008">
        <ele>144.1</ele>
        <time>2022-08-10T06:45:55Z</time>
      </trkpt>
      <trkpt lat="44.46221" lon="1.45006">
        <ele>144.3</ele>
        <time>2022-08-10T06:45:57Z</time>
      </trkpt>
      <trkpt lat="44.46211" lon="1.45002">
        <ele>144.4</ele>
        <time>2022-08-10T06:45:59Z</time>
      </trkpt>
      <trkpt lat="44.46202" lon="1.45">
        <ele>144.6</ele>
        <time>2022-08-10T06:46:01Z</time>
      </trkpt>
      <trkpt lat="44.46194" lon="1.44997">
        <ele>144.6</ele>
        <time>2022-08-10T06:46:03Z</time>
      </trkpt>
      <trkpt lat="44.46187" lon="1.44994">
        <ele>144.7</ele>
        <time>2022-08-10T06:46:05Z</time>
      </trkpt>
      <trkpt lat="44.4618" lon="1.44992">
        <ele>144.7</ele>
        <time>2022-08-10T06:46:07Z</time>
      </trkpt>
      <trkpt lat="44.46173" lon="1.44991">
        <ele>144.7</ele>
        <time>2022-08-10T06:46:09Z</time>
      </trkpt>
      <trkpt lat="44.46165" lon="1.44987">
        <ele>144.7</ele>
        <time>2022-08-10T06:46:11Z</time>
      </trkpt>
      <trkpt lat="44.46161" lon="1.44986">
        <ele>144.6</ele>
        <time>2022-08-10T06:46:13Z</time>
      </trkpt>
      <trkpt lat="44.46157" lon="1.44991">
        <ele>144.6</ele>
        <time>2022-08-10T06:46:15Z</time>
      </trkpt>
      <trkpt lat="44.46155" lon="1.44998">
        <ele>144.7</ele>
        <time>2022-08-10T06:46:17Z</time>
      </trkpt>
      <trkpt lat="44.46153" lon="1.45006">
        <ele>144.5</ele>
        <time>2022-08-10T06:46:19Z</time>
      </trkpt>
      <trkpt lat="44.4615" lon="1.45015">
        <ele>144.2</ele>
        <time>2022-08-10T06:46:21Z</time>
      </trkpt>
      <trkpt lat="44.46147" lon="1.45026">
        <ele>143.9</ele>
        <time>2022-08-10T06:46:23Z</time>
      </trkpt>
      <trkpt lat="44.46144" lon="1.45036">
        <ele>143.6</ele>
        <time>2022-08-10T06:46:25Z</time>
      </trkpt>
      <trkpt lat="44.46142" lon="1.45045">
        <ele>143.3</ele>
        <time>2022-08-10T06:46:27Z</time>
      </trkpt>
      <trkpt lat="44.46142" lon="1.45051">
        <ele>143.2</ele>
        <time>2022-08-10T06:46:29Z</time>
      </trkpt>
      <trkpt lat="44.46146" lon="1.45055">
        <ele>143.2</ele>
        <time>2022-08-10T06:46:31Z</time>
      </trkpt>
      <trkpt lat="44.46152" lon="1.45057">
        <ele>143.3</ele>
        <time>2022-08-10T06:46:33Z</time>
      </trkpt>
      <trkpt lat="44.46158" lon="1.4506">
        <ele>143.3</ele>
        <time>2022-08-10T06:46:35Z</time>
      </trkpt>
      <trkpt lat="44.46163" lon="1.45063">
        <ele>143.4</ele>
        <time>2022-08-10T06:46:37Z</time>
      </trkpt>
      <trkpt lat="44.46168" lon="1.45066">
        <ele>143.4</ele>
        <time>2022-08-10T06:46:39Z</time>
      </trkpt>
      <trkpt lat="44.46174" lon="1.45068">
        <ele>143.3</ele>
        <time>2022-08-10T06:46:41Z</time>
      </trkpt>
      <trkpt lat="44.46179" lon="1.4507">
        <ele>143.3</ele>
        <time>2022-08-10T06:46:43Z</time>
      </trkpt>
      <trkpt lat="44.46184" lon="1.4507">
        <ele>143.3</ele>
        <time>2022-08-10T06:46:45Z</time>
      </trkpt>
      <trkpt lat="44.46188" lon="1.45072">
        <ele>143.2</ele>
        <time>2022-08-10T06:46:47Z</time>
      </trkpt>
      <trkpt lat="44.46192" lon="1.45073">
        <ele>143.2</ele>
        <time>2022-08-10T06:46:49Z</time>
      </trkpt>
      <trkpt lat="44.46196" lon="1.45075">
        <ele>143.2</ele>
        <time>2022-08-10T06:46:51Z</time>
      </trkpt>
      <trkpt lat="44.46198" lon="1.45077">
        <ele>143.1</ele>
        <time>2022-08-10T06:46:53Z</time>
      </trkpt>
      <trkpt lat="44.46198" lon="1.45077">
        <ele>143.1</ele>
        <time>2022-08-10T06:46:55Z</time>
      </trkpt>
      <trkpt lat="44.46198" lon="1.45077">
        <ele>143.1</ele>
        <time>2022-08-10T06:46:57Z</time>
      </trkpt>
      <trkpt lat="44.46198" lon="1.45077">
        <ele>143.1</ele>
        <time>2022-08-10T06:46:59Z</time>
      </trkpt>
      <trkpt lat="44.46199" lon="1.45078">
        <ele>143.1</ele>
        <time>2022-08-10T06:47:01Z</time>
      </trkpt>
      <trkpt lat="44.46165" lon="1.45059">
        <ele>143.5</ele>
        <time>2022-08-10T07:25:21Z</time>
      </trkpt>
      <trkpt lat="44.46159" lon="1.45058">
        <ele>143.4</ele>
        <time>2022-08-10T07:25:23Z</time>
      </trkpt>
      <trkpt lat="44.46151" lon="1.45055">
        <ele>143.3</ele>
        <time>2022-08-10T07:25:25Z</time>
      </trkpt>
      <trkpt lat="44.46146" lon="1.45053">
        <ele>143.2</ele>
        <time>2022-08-10T07:25:27Z</time>
      </trkpt>
      <trkpt lat="44.46142" lon="1.45048">
        <ele>143.3</ele>
        <time>2022-08-10T07:25:29Z</time>
      </trkpt>
      <trkpt lat="44.46144" lon="1.45041">
        <ele>143.5</ele>
        <time>2022-08-10T07:25:31Z</time>
      </trkpt>
      <trkpt lat="44.46145" lon="1.45035">
        <ele>143.6</ele>
        <time>2022-08-10T07:25:33Z</time>
      </trkpt>
      <trkpt lat="44.46148" lon="1.4503">
        <ele>143.8</ele>
        <time>2022-08-10T07:25:35Z</time>
      </trkpt>
      <trkpt lat="44.4615" lon="1.45024">
        <ele>144</ele>
        <time>2022-08-10T07:25:37Z</time>
      </trkpt>
      <trkpt lat="44.46151" lon="1.45018">
        <ele>144.2</ele>
        <time>2022-08-10T07:25:39Z</time>
      </trkpt>
      <trkpt lat="44.46152" lon="1.45013">
        <ele>144.4</ele>
        <time>2022-08-10T07:25:41Z</time>
      </trkpt>
      <trkpt lat="44.46154" lon="1.45007">
        <ele>144.5</ele>
        <time>2022-08-10T07:25:43Z</time>
      </trkpt>
      <trkpt lat="44.46156" lon="1.45002">
        <ele>144.7</ele>
        <time>2022-08-10T07:25:45Z</time>
      </trkpt>
      <trkpt lat="44.46158" lon="1.44996">
        <ele>144.7</ele>
        <time>2022-08-10T07:25:47Z</time>
      </trkpt>
      <trkpt lat="44.46159" lon="1.44991">
        <ele>144.6</ele>
        <time>2022-08-10T07:25:49Z</time>
      </trkpt>
      <trkpt lat="44.46156" lon="1.44986">
        <ele>144.4</ele>
        <time>2022-08-10T07:25:51Z</time>
      </trkpt>
      <trkpt lat="44.46152" lon="1.44983">
        <ele>144.3</ele>
        <time>2022-08-10T07:25:53Z</time>
      </trkpt>
      <trkpt lat="44.46146" lon="1.4498">
        <ele>144.1</ele>
        <time>2022-08-10T07:25:55Z</time>
      </trkpt>
      <trkpt lat="44.46141" lon="1.44978">
        <ele>144</ele>
        <time>2022-08-10T07:25:57Z</time>
      </trkpt>
      <trkpt lat="44.46135" lon="1.44973">
        <ele>143.8</ele>
        <time>2022-08-10T07:25:59Z</time>
      </trkpt>
      <trkpt lat="44.46135" lon="1.44963">
        <ele>143.7</ele>
        <time>2022-08-10T07:26:01Z</time>
      </trkpt>
      <trkpt lat="44.46138" lon="1.44952">
        <ele>143.6</ele>
        <time>2022-08-10T07:26:03Z</time>
      </trkpt>
      <trkpt lat="44.4614" lon="1.44942">
        <ele>143.4</ele>
        <time>2022-08-10T07:26:05Z</time>
      </trkpt>
      <trkpt lat="44.46141" lon="1.44932">
        <ele>143.3</ele>
        <time>2022-08-10T07:26:07Z</time>
      </trkpt>
      <trkpt lat="44.46143" lon="1.44921">
        <ele>143.1</ele>
        <time>2022-08-10T07:26:09Z</time>
      </trkpt>
      <trkpt lat="44.46145" lon="1.44909">
        <ele>142.6</ele>
        <time>2022-08-10T07:26:11Z</time>
      </trkpt>
      <trkpt lat="44.46146" lon="1.44899">
        <ele>142.2</ele>
        <time>2022-08-10T07:26:13Z</time>
      </trkpt>
      <trkpt lat="44.46147" lon="1.44887">
        <ele>141.6</ele>
        <time>2022-08-10T07:26:15Z</time>
      </trkpt>
      <trkpt lat="44.46149" lon="1.44876">
        <ele>141.1</ele>
        <time>2022-08-10T07:26:17Z</time>
      </trkpt>
      <trkpt lat="44.46149" lon="1.44868">
        <ele>140.7</ele>
        <time>2022-08-10T07:26:19Z</time>
      </trkpt>
      <trkpt lat="44.46145" lon="1.44862">
        <ele>140.4</ele>
        <time>2022-08-10T07:26:21Z</time>
      </trkpt>
      <trkpt lat="44.46137" lon="1.44857">
        <ele>140.2</ele>
        <time>2022-08-10T07:26:23Z</time>
      </trkpt>
      <trkpt lat="44.4613" lon="1.44854">
        <ele>140</ele>
        <time>2022-08-10T07:26:25Z</time>
      </trkpt>
      <trkpt lat="44.46122" lon="1.44851">
        <ele>139.8</ele>
        <time>2022-08-10T07:26:27Z</time>
      </trkpt>
      <trkpt lat="44.46114" lon="1.44846">
        <ele>139.6</ele>
        <time>2022-08-10T07:26:29Z</time>
      </trkpt>
      <trkpt lat="44.46105" lon="1.44843">
        <ele>139.5</ele>
        <time>2022-08-10T07:26:31Z</time>
      </trkpt>
      <trkpt lat="44.46097" lon="1.44839">
        <ele>139.3</ele>
        <time>2022-08-10T07:26:33Z</time>
      </trkpt>
      <trkpt lat="44.46088" lon="1.44835">
        <ele>139.1</ele>
        <time>2022-08-10T07:26:35Z</time>
      </trkpt>
      <trkpt lat="44.46079" lon="1.44831">
        <ele>138.8</ele>
        <time>2022-08-10T07:26:37Z</time>
      </trkpt>
      <trkpt lat="44.4607" lon="1.44826">
        <ele>138.5</ele>
        <time>2022-08-10T07:26:39Z</time>
      </trkpt>
      <trkpt lat="44.4606" lon="1.44821">
        <ele>138.2</ele>
        <time>2022-08-10T07:26:41Z</time>
      </trkpt>
      <trkpt lat="44.4605" lon="1.44815">
        <ele>137.7</ele>
        <time>2022-08-10T07:26:43Z</time>
      </trkpt>
      <trkpt lat="44.46039" lon="1.44811">
        <ele>137.5</ele>
        <time>2022-08-10T07:26:45Z</time>
      </trkpt>
      <trkpt lat="44.46028" lon="1.44806">
        <ele>137.3</ele>
        <time>2022-08-10T07:26:47Z</time>
      </trkpt>
      <trkpt lat="44.46016" lon="1.448">
        <ele>137</ele>
        <time>2022-08-10T07:26:49Z</time>
      </trkpt>
      <trkpt lat="44.46004" lon="1.44794">
        <ele>136.6</ele>
        <time>2022-08-10T07:26:51Z</time>
      </trkpt>
      <trkpt lat="44.45993" lon="1.44788">
        <ele>136.1</ele>
        <time>2022-08-10T07:26:53Z</time>
      </trkpt>
      <trkpt lat="44.45983" lon="1.44782">
        <ele>135.6</ele>
        <time>2022-08-10T07:26:55Z</time>
      </trkpt>
      <trkpt lat="44.45974" lon="1.44775">
        <ele>135</ele>
        <time>2022-08-10T07:26:57Z</time>
      </trkpt>
      <trkpt lat="44.45964" lon="1.44765">
        <ele>134.4</ele>
        <time>2022-08-10T07:26:59Z</time>
      </trkpt>
      <trkpt lat="44.45954" lon="1.44757">
        <ele>134</ele>
        <time>2022-08-10T07:27:01Z</time>
      </trkpt>
      <trkpt lat="44.45945" lon="1.44751">
        <ele>133.7</ele>
        <time>2022-08-10T07:27:03Z</time>
      </trkpt>
      <trkpt lat="44.45937" lon="1.44748">
        <ele>133.6</ele>
        <time>2022-08-10T07:27:05Z</time>
      </trkpt>
      <trkpt lat="44.45928" lon="1.44746">
        <ele>133.5</ele>
        <time>2022-08-10T07:27:07Z</time>
      </trkpt>
      <trkpt lat="44.45919" lon="1.44744">
        <ele>133.3</ele>
        <time>2022-08-10T07:27:09Z</time>
      </trkpt>
      <trkpt lat="44.45911" lon="1.44743">
        <ele>132.9</ele>
        <time>2022-08-10T07:27:11Z</time>
      </trkpt>
      <trkpt lat="44.45902" lon="1.44742">
        <ele>132.3</ele>
        <time>2022-08-10T07:27:13Z</time>
      </trkpt>
      <trkpt lat="44.45895" lon="1.4474">
        <ele>131.7</ele>
        <time>2022-08-10T07:27:15Z</time>
      </trkpt>
      <trkpt lat="44.45891" lon="1.44739">
        <ele>131.4</ele>
        <time>2022-08-10T07:27:17Z</time>
      </trkpt>
      <trkpt lat="44.45887" lon="1.44737">
        <ele>130.9</ele>
        <time>2022-08-10T07:27:19Z</time>
      </trkpt>
      <trkpt lat="44.45883" lon="1.44739">
        <ele>130.9</ele>
        <time>2022-08-10T07:27:21Z</time>
      </trkpt>
      <trkpt lat="44.45879" lon="1.44739">
        <ele>130.7</ele>
        <time>2022-08-10T07:27:23Z</time>
      </trkpt>
      <trkpt lat="44.45874" lon="1.4474">
        <ele>130.5</ele>
        <time>2022-08-10T07:27:25Z</time>
      </trkpt>
      <trkpt lat="44.45868" lon="1.4474">
        <ele>130.2</ele>
        <time>2022-08-10T07:27:27Z</time>
      </trkpt>
      <trkpt lat="44.45863" lon="1.4474">
        <ele>129.9</ele>
        <time>2022-08-10T07:27:29Z</time>
      </trkpt>
      <trkpt lat="44.45857" lon="1.44739">
        <ele>129.5</ele>
        <time>2022-08-10T07:27:31Z</time>
      </trkpt>
      <trkpt lat="44.45852" lon="1.44739">
        <ele>129.3</ele>
        <time>2022-08-10T07:27:33Z</time>
      </trkpt>
      <trkpt lat="44.45846" lon="1.44739">
        <ele>128.9</ele>
        <time>2022-08-10T07:27:35Z</time>
      </trkpt>
      <trkpt lat="44.4584" lon="1.44739">
        <ele>128.6</ele>
        <time>2022-08-10T07:27:37Z</time>
      </trkpt>
      <trkpt lat="44.45834" lon="1.44739">
        <ele>128.3</ele>
        <time>2022-08-10T07:27:39Z</time>
      </trkpt>
      <trkpt lat="44.45827" lon="1.44739">
        <ele>128.2</ele>
        <time>2022-08-10T07:27:41Z</time>
      </trkpt>
      <trkpt lat="44.45819" lon="1.4474">
        <ele>128.2</ele>
        <time>2022-08-10T07:27:43Z</time>
      </trkpt>
      <trkpt lat="44.45811" lon="1.4474">
        <ele>128.1</ele>
        <time>2022-08-10T07:27:45Z</time>
      </trkpt>
      <trkpt lat="44.45803" lon="1.4474">
        <ele>128.1</ele>
        <time>2022-08-10T07:27:47Z</time>
      </trkpt>
      <trkpt lat="44.45795" lon="1.4474">
        <ele>128.1</ele>
        <time>2022-08-10T07:27:49Z</time>
      </trkpt>
      <trkpt lat="44.45788" lon="1.4474">
        <ele>128</ele>
        <time>2022-08-10T07:27:51Z</time>
      </trkpt>
      <trkpt lat="44.4578" lon="1.4474">
        <ele>128</ele>
        <time>2022-08-10T07:27:53Z</time>
      </trkpt>
      <trkpt lat="44.45772" lon="1.4474">
        <ele>127.9</ele>
        <time>2022-08-10T07:27:55Z</time>
      </trkpt>
      <trkpt lat="44.45763" lon="1.4474">
        <ele>127.9</ele>
        <time>2022-08-10T07:27:57Z</time>
      </trkpt>
      <trkpt lat="44.45755" lon="1.4474">
        <ele>127.9</ele>
        <time>2022-08-10T07:27:59Z</time>
      </trkpt>
      <trkpt lat="44.45747" lon="1.4474">
        <ele>127.7</ele>
        <time>2022-08-10T07:28:01Z</time>
      </trkpt>
      <trkpt lat="44.45739" lon="1.4474">
        <ele>127.6</ele>
        <time>2022-08-10T07:28:03Z</time>
      </trkpt>
      <trkpt lat="44.4573" lon="1.4474">
        <ele>127.4</ele>
        <time>2022-08-10T07:28:05Z</time>
      </trkpt>
      <trkpt lat="44.45722" lon="1.4474">
        <ele>127.2</ele>
        <time>2022-08-10T07:28:07Z</time>
      </trkpt>
      <trkpt lat="44.45714" lon="1.4474">
        <ele>127.1</ele>
        <time>2022-08-10T07:28:09Z</time>
      </trkpt>
      <trkpt lat="44.45705" lon="1.4474">
        <ele>126.9</ele>
        <time>2022-08-10T07:28:11Z</time>
      </trkpt>
      <trkpt lat="44.45697" lon="1.44741">
        <ele>126.8</ele>
        <time>2022-08-10T07:28:13Z</time>
      </trkpt>
      <trkpt lat="44.45688" lon="1.44741">
        <ele>126.6</ele>
        <time>2022-08-10T07:28:15Z</time>
      </trkpt>
      <trkpt lat="44.45679" lon="1.44741">
        <ele>126.4</ele>
        <time>2022-08-10T07:28:17Z</time>
      </trkpt>
      <trkpt lat="44.4567" lon="1.44741">
        <ele>126.2</ele>
        <time>2022-08-10T07:28:19Z</time>
      </trkpt>
      <trkpt lat="44.45662" lon="1.44741">
        <ele>126.1</ele>
        <time>2022-08-10T07:28:21Z</time>
      </trkpt>
      <trkpt lat="44.45654" lon="1.44741">
        <ele>126</ele>
        <time>2022-08-10T07:28:23Z</time>
      </trkpt>
      <trkpt lat="44.45646" lon="1.44741">
        <ele>125.9</ele>
        <time>2022-08-10T07:28:25Z</time>
      </trkpt>
      <trkpt lat="44.45638" lon="1.44742">
        <ele>125.9</ele>
        <time>2022-08-10T07:28:27Z</time>
      </trkpt>
      <trkpt lat="44.4563" lon="1.44742">
        <ele>125.8</ele>
        <time>2022-08-10T07:28:29Z</time>
      </trkpt>
      <trkpt lat="44.45623" lon="1.44743">
        <ele>125.8</ele>
        <time>2022-08-10T07:28:31Z</time>
      </trkpt>
      <trkpt lat="44.45615" lon="1.44743">
        <ele>125.7</ele>
        <time>2022-08-10T07:28:33Z</time>
      </trkpt>
      <trkpt lat="44.45607" lon="1.44743">
        <ele>125.7</ele>
        <time>2022-08-10T07:28:35Z</time>
      </trkpt>
      <trkpt lat="44.45599" lon="1.44743">
        <ele>125.6</ele>
        <time>2022-08-10T07:28:37Z</time>
      </trkpt>
      <trkpt lat="44.45591" lon="1.44744">
        <ele>125.6</ele>
        <time>2022-08-10T07:28:39Z</time>
      </trkpt>
      <trkpt lat="44.45582" lon="1.44744">
        <ele>125.5</ele>
        <time>2022-08-10T07:28:41Z</time>
      </trkpt>
      <trkpt lat="44.45572" lon="1.44744">
        <ele>125.2</ele>
        <time>2022-08-10T07:28:43Z</time>
      </trkpt>
      <trkpt lat="44.45562" lon="1.44744">
        <ele>125</ele>
        <time>2022-08-10T07:28:45Z</time>
      </trkpt>
      <trkpt lat="44.45552" lon="1.44745">
        <ele>124.9</ele>
        <time>2022-08-10T07:28:47Z</time>
      </trkpt>
      <trkpt lat="44.45543" lon="1.44747">
        <ele>124.8</ele>
        <time>2022-08-10T07:28:49Z</time>
      </trkpt>
      <trkpt lat="44.45533" lon="1.44747">
        <ele>124.6</ele>
        <time>2022-08-10T07:28:51Z</time>
      </trkpt>
      <trkpt lat="44.45524" lon="1.44748">
        <ele>124.5</ele>
        <time>2022-08-10T07:28:53Z</time>
      </trkpt>
      <trkpt lat="44.45514" lon="1.44748">
        <ele>124.2</ele>
        <time>2022-08-10T07:28:55Z</time>
      </trkpt>
      <trkpt lat="44.45505" lon="1.44749">
        <ele>124.1</ele>
        <time>2022-08-10T07:28:57Z</time>
      </trkpt>
      <trkpt lat="44.45495" lon="1.44749">
        <ele>123.8</ele>
        <time>2022-08-10T07:28:59Z</time>
      </trkpt>
      <trkpt lat="44.45486" lon="1.4475">
        <ele>123.5</ele>
        <time>2022-08-10T07:29:01Z</time>
      </trkpt>
      <trkpt lat="44.45477" lon="1.44751">
        <ele>123.3</ele>
        <time>2022-08-10T07:29:03Z</time>
      </trkpt>
      <trkpt lat="44.45468" lon="1.44751">
        <ele>123</ele>
        <time>2022-08-10T07:29:05Z</time>
      </trkpt>
      <trkpt lat="44.4546" lon="1.44751">
        <ele>122.7</ele>
        <time>2022-08-10T07:29:07Z</time>
      </trkpt>
      <trkpt lat="44.45452" lon="1.44751">
        <ele>122.5</ele>
        <time>2022-08-10T07:29:09Z</time>
      </trkpt>
      <trkpt lat="44.45445" lon="1.44753">
        <ele>122.5</ele>
        <time>2022-08-10T07:29:11Z</time>
      </trkpt>
      <trkpt lat="44.45439" lon="1.44753">
        <ele>122.3</ele>
        <time>2022-08-10T07:29:13Z</time>
      </trkpt>
      <trkpt lat="44.45434" lon="1.44753">
        <ele>122.1</ele>
        <time>2022-08-10T07:29:15Z</time>
      </trkpt>
      <trkpt lat="44.4543" lon="1.44753">
        <ele>121.9</ele>
        <time>2022-08-10T07:29:17Z</time>
      </trkpt>
      <trkpt lat="44.45425" lon="1.44753">
        <ele>121.8</ele>
        <time>2022-08-10T07:29:19Z</time>
      </trkpt>
      <trkpt lat="44.45421" lon="1.44753">
        <ele>121.6</ele>
        <time>2022-08-10T07:29:21Z</time>
      </trkpt>
      <trkpt lat="44.45416" lon="1.44753">
        <ele>121.5</ele>
        <time>2022-08-10T07:29:23Z</time>
      </trkpt>
      <trkpt lat="44.45412" lon="1.44752">
        <ele>121.2</ele>
        <time>2022-08-10T07:29:25Z</time>
      </trkpt>
      <trkpt lat="44.45408" lon="1.44747">
        <ele>121</ele>
        <time>2022-08-10T07:29:27Z</time>
      </trkpt>
      <trkpt lat="44.45406" lon="1.44743">
        <ele>120.9</ele>
        <time>2022-08-10T07:29:29Z</time>
      </trkpt>
      <trkpt lat="44.45404" lon="1.44739">
        <ele>120.9</ele>
        <time>2022-08-10T07:29:31Z</time>
      </trkpt>
      <trkpt lat="44.45402" lon="1.44733">
        <ele>120.8</ele>
        <time>2022-08-10T07:29:33Z</time>
      </trkpt>
      <trkpt lat="44.454" lon="1.44726">
        <ele>120.8</ele>
        <time>2022-08-10T07:29:35Z</time>
      </trkpt>
      <trkpt lat="44.45396" lon="1.44718">
        <ele>120.7</ele>
        <time>2022-08-10T07:29:37Z</time>
      </trkpt>
      <trkpt lat="44.45393" lon="1.44709">
        <ele>120.6</ele>
        <time>2022-08-10T07:29:39Z</time>
      </trkpt>
      <trkpt lat="44.45389" lon="1.44701">
        <ele>120.6</ele>
        <time>2022-08-10T07:29:41Z</time>
      </trkpt>
      <trkpt lat="44.45386" lon="1.44693">
        <ele>120.6</ele>
        <time>2022-08-10T07:29:43Z</time>
      </trkpt>
      <trkpt lat="44.45384" lon="1.44686">
        <ele>120.5</ele>
        <time>2022-08-10T07:29:45Z</time>
      </trkpt>
      <trkpt lat="44.45382" lon="1.44679">
        <ele>120.5</ele>
        <time>2022-08-10T07:29:47Z</time>
      </trkpt>
      <trkpt lat="44.45377" lon="1.4467">
        <ele>120.5</ele>
        <time>2022-08-10T07:29:49Z</time>
      </trkpt>
      <trkpt lat="44.45372" lon="1.44664">
        <ele>120.5</ele>
        <time>2022-08-10T07:29:51Z</time>
      </trkpt>
      <trkpt lat="44.4537" lon="1.44657">
        <ele>120.4</ele>
        <time>2022-08-10T07:29:53Z</time>
      </trkpt>
      <trkpt lat="44.45365" lon="1.44651">
        <ele>120.4</ele>
        <time>2022-08-10T07:29:55Z</time>
      </trkpt>
      <trkpt lat="44.45359" lon="1.44647">
        <ele>120.4</ele>
        <time>2022-08-10T07:29:57Z</time>
      </trkpt>
      <trkpt lat="44.45354" lon="1.44642">
        <ele>120.4</ele>
        <time>2022-08-10T07:29:59Z</time>
      </trkpt>
      <trkpt lat="44.45349" lon="1.44639">
        <ele>120.4</ele>
        <time>2022-08-10T07:30:01Z</time>
      </trkpt>
      <trkpt lat="44.45343" lon="1.44633">
        <ele>120.4</ele>
        <time>2022-08-10T07:30:03Z</time>
      </trkpt>
      <trkpt lat="44.45337" lon="1.44628">
        <ele>120.5</ele>
        <time>2022-08-10T07:30:05Z</time>
      </trkpt>
      <trkpt lat="44.45331" lon="1.44623">
        <ele>120.5</ele>
        <time>2022-08-10T07:30:07Z</time>
      </trkpt>
      <trkpt lat="44.45325" lon="1.44618">
        <ele>120.4</ele>
        <time>2022-08-10T07:30:09Z</time>
      </trkpt>
      <trkpt lat="44.45318" lon="1.44612">
        <ele>120.2</ele>
        <time>2022-08-10T07:30:11Z</time>
      </trkpt>
      <trkpt lat="44.45311" lon="1.44607">
        <ele>120.1</ele>
        <time>2022-08-10T07:30:13Z</time>
      </trkpt>
      <trkpt lat="44.45305" lon="1.44602">
        <ele>120</ele>
        <time>2022-08-10T07:30:15Z</time>
      </trkpt>
      <trkpt lat="44.45299" lon="1.44597">
        <ele>119.8</ele>
        <time>2022-08-10T07:30:17Z</time>
      </trkpt>
      <trkpt lat="44.45293" lon="1.44592">
        <ele>119.7</ele>
        <time>2022-08-10T07:30:19Z</time>
      </trkpt>
      <trkpt lat="44.45286" lon="1.44589">
        <ele>119.5</ele>
        <time>2022-08-10T07:30:21Z</time>
      </trkpt>
      <trkpt lat="44.4528" lon="1.44584">
        <ele>119.4</ele>
        <time>2022-08-10T07:30:23Z</time>
      </trkpt>
      <trkpt lat="44.45273" lon="1.44578">
        <ele>119.3</ele>
        <time>2022-08-10T07:30:25Z</time>
      </trkpt>
      <trkpt lat="44.45267" lon="1.44573">
        <ele>119.3</ele>
        <time>2022-08-10T07:30:27Z</time>
      </trkpt>
      <trkpt lat="44.4526" lon="1.44568">
        <ele>119.3</ele>
        <time>2022-08-10T07:30:29Z</time>
      </trkpt>
      <trkpt lat="44.45253" lon="1.44562">
        <ele>119.3</ele>
        <time>2022-08-10T07:30:31Z</time>
      </trkpt>
      <trkpt lat="44.45247" lon="1.44555">
        <ele>119.4</ele>
        <time>2022-08-10T07:30:33Z</time>
      </trkpt>
      <trkpt lat="44.4524" lon="1.44549">
        <ele>119.5</ele>
        <time>2022-08-10T07:30:35Z</time>
      </trkpt>
      <trkpt lat="44.45233" lon="1.44543">
        <ele>119.6</ele>
        <time>2022-08-10T07:30:37Z</time>
      </trkpt>
      <trkpt lat="44.45226" lon="1.44538">
        <ele>119.7</ele>
        <time>2022-08-10T07:30:39Z</time>
      </trkpt>
      <trkpt lat="44.45219" lon="1.44531">
        <ele>119.8</ele>
        <time>2022-08-10T07:30:41Z</time>
      </trkpt>
      <trkpt lat="44.45212" lon="1.44526">
        <ele>119.8</ele>
        <time>2022-08-10T07:30:43Z</time>
      </trkpt>
      <trkpt lat="44.45206" lon="1.4452">
        <ele>119.9</ele>
        <time>2022-08-10T07:30:45Z</time>
      </trkpt>
      <trkpt lat="44.452" lon="1.44515">
        <ele>119.9</ele>
        <time>2022-08-10T07:30:47Z</time>
      </trkpt>
      <trkpt lat="44.45194" lon="1.44509">
        <ele>120</ele>
        <time>2022-08-10T07:30:49Z</time>
      </trkpt>
      <trkpt lat="44.45188" lon="1.44504">
        <ele>120</ele>
        <time>2022-08-10T07:30:51Z</time>
      </trkpt>
      <trkpt lat="44.45182" lon="1.44501">
        <ele>120</ele>
        <time>2022-08-10T07:30:53Z</time>
      </trkpt>
      <trkpt lat="44.45176" lon="1.44497">
        <ele>120</ele>
        <time>2022-08-10T07:30:55Z</time>
      </trkpt>
      <trkpt lat="44.45171" lon="1.44491">
        <ele>119.9</ele>
        <time>2022-08-10T07:30:57Z</time>
      </trkpt>
      <trkpt lat="44.45164" lon="1.44487">
        <ele>119.8</ele>
        <time>2022-08-10T07:30:59Z</time>
      </trkpt>
      <trkpt lat="44.45159" lon="1.44481">
        <ele>119.7</ele>
        <time>2022-08-10T07:31:01Z</time>
      </trkpt>
      <trkpt lat="44.45154" lon="1.44475">
        <ele>119.7</ele>
        <time>2022-08-10T07:31:03Z</time>
      </trkpt>
      <trkpt lat="44.45148" lon="1.44471">
        <ele>119.6</ele>
        <time>2022-08-10T07:31:05Z</time>
      </trkpt>
      <trkpt lat="44.45142" lon="1.44467">
        <ele>119.5</ele>
        <time>2022-08-10T07:31:07Z</time>
      </trkpt>
      <trkpt lat="44.45136" lon="1.44461">
        <ele>119.4</ele>
        <time>2022-08-10T07:31:09Z</time>
      </trkpt>
      <trkpt lat="44.45129" lon="1.44457">
        <ele>119.3</ele>
        <time>2022-08-10T07:31:11Z</time>
      </trkpt>
      <trkpt lat="44.45122" lon="1.44452">
        <ele>119.1</ele>
        <time>2022-08-10T07:31:13Z</time>
      </trkpt>
      <trkpt lat="44.45116" lon="1.44448">
        <ele>119</ele>
        <time>2022-08-10T07:31:15Z</time>
      </trkpt>
      <trkpt lat="44.45111" lon="1.44443">
        <ele>118.9</ele>
        <time>2022-08-10T07:31:17Z</time>
      </trkpt>
      <trkpt lat="44.45108" lon="1.44438">
        <ele>118.7</ele>
        <time>2022-08-10T07:31:19Z</time>
      </trkpt>
      <trkpt lat="44.45107" lon="1.44433">
        <ele>118.6</ele>
        <time>2022-08-10T07:31:21Z</time>
      </trkpt>
      <trkpt lat="44.45105" lon="1.44429">
        <ele>118.5</ele>
        <time>2022-08-10T07:31:23Z</time>
      </trkpt>
      <trkpt lat="44.45102" lon="1.44424">
        <ele>118.4</ele>
        <time>2022-08-10T07:31:25Z</time>
      </trkpt>
      <trkpt lat="44.45098" lon="1.44421">
        <ele>118.3</ele>
        <time>2022-08-10T07:31:27Z</time>
      </trkpt>
      <trkpt lat="44.45093" lon="1.44419">
        <ele>118.2</ele>
        <time>2022-08-10T07:31:29Z</time>
      </trkpt>
      <trkpt lat="44.45087" lon="1.44421">
        <ele>118.1</ele>
        <time>2022-08-10T07:31:31Z</time>
      </trkpt>
      <trkpt lat="44.45083" lon="1.44423">
        <ele>118.2</ele>
        <time>2022-08-10T07:31:33Z</time>
      </trkpt>
      <trkpt lat="44.45077" lon="1.44426">
        <ele>118.1</ele>
        <time>2022-08-10T07:31:35Z</time>
      </trkpt>
      <trkpt lat="44.45072" lon="1.44428">
        <ele>118.1</ele>
        <time>2022-08-10T07:31:37Z</time>
      </trkpt>
      <trkpt lat="44.45066" lon="1.44431">
        <ele>118.1</ele>
        <time>2022-08-10T07:31:39Z</time>
      </trkpt>
      <trkpt lat="44.45061" lon="1.44432">
        <ele>118.1</ele>
        <time>2022-08-10T07:31:41Z</time>
      </trkpt>
      <trkpt lat="44.45056" lon="1.44435">
        <ele>118</ele>
        <time>2022-08-10T07:31:43Z</time>
      </trkpt>
      <trkpt lat="44.45051" lon="1.44438">
        <ele>118</ele>
        <time>2022-08-10T07:31:45Z</time>
      </trkpt>
      <trkpt lat="44.45046" lon="1.4444">
        <ele>118</ele>
        <time>2022-08-10T07:31:47Z</time>
      </trkpt>
      <trkpt lat="44.45041" lon="1.44442">
        <ele>117.9</ele>
        <time>2022-08-10T07:31:49Z</time>
      </trkpt>
      <trkpt lat="44.45036" lon="1.44444">
        <ele>117.9</ele>
        <time>2022-08-10T07:31:51Z</time>
      </trkpt>
      <trkpt lat="44.45031" lon="1.44446">
        <ele>117.8</ele>
        <time>2022-08-10T07:31:53Z</time>
      </trkpt>
      <trkpt lat="44.45027" lon="1.44447">
        <ele>117.8</ele>
        <time>2022-08-10T07:31:55Z</time>
      </trkpt>
      <trkpt lat="44.45022" lon="1.44449">
        <ele>117.8</ele>
        <time>2022-08-10T07:31:57Z</time>
      </trkpt>
      <trkpt lat="44.45019" lon="1.44451">
        <ele>117.7</ele>
        <time>2022-08-10T07:31:59Z</time>
      </trkpt>
      <trkpt lat="44.45016" lon="1.44453">
        <ele>117.7</ele>
        <time>2022-08-10T07:32:01Z</time>
      </trkpt>
      <trkpt lat="44.45013" lon="1.44453">
        <ele>117.7</ele>
        <time>2022-08-10T07:32:03Z</time>
      </trkpt>
      <trkpt lat="44.45011" lon="1.44454">
        <ele>117.6</ele>
        <time>2022-08-10T07:32:05Z</time>
      </trkpt>
      <trkpt lat="44.45008" lon="1.44456">
        <ele>117.6</ele>
        <time>2022-08-10T07:32:07Z</time>
      </trkpt>
      <trkpt lat="44.45005" lon="1.44456">
        <ele>117.6</ele>
        <time>2022-08-10T07:32:09Z</time>
      </trkpt>
      <trkpt lat="44.45002" lon="1.44461">
        <ele>117.6</ele>
        <time>2022-08-10T07:32:11Z</time>
      </trkpt>
      <trkpt lat="44.44998" lon="1.44466">
        <ele>117.6</ele>
        <time>2022-08-10T07:32:13Z</time>
      </trkpt>
      <trkpt lat="44.44993" lon="1.44468">
        <ele>117.6</ele>
        <time>2022-08-10T07:32:15Z</time>
      </trkpt>
      <trkpt lat="44.44988" lon="1.44469">
        <ele>117.6</ele>
        <time>2022-08-10T07:32:17Z</time>
      </trkpt>
      <trkpt lat="44.44983" lon="1.4447">
        <ele>117.6</ele>
        <time>2022-08-10T07:32:19Z</time>
      </trkpt>
      <trkpt lat="44.44978" lon="1.44471">
        <ele>117.6</ele>
        <time>2022-08-10T07:32:21Z</time>
      </trkpt>
      <trkpt lat="44.44973" lon="1.44473">
        <ele>117.6</ele>
        <time>2022-08-10T07:32:23Z</time>
      </trkpt>
      <trkpt lat="44.44967" lon="1.44474">
        <ele>117.5</ele>
        <time>2022-08-10T07:32:25Z</time>
      </trkpt>
      <trkpt lat="44.44961" lon="1.44474">
        <ele>117.5</ele>
        <time>2022-08-10T07:32:27Z</time>
      </trkpt>
      <trkpt lat="44.44956" lon="1.44476">
        <ele>117.5</ele>
        <time>2022-08-10T07:32:29Z</time>
      </trkpt>
      <trkpt lat="44.44951" lon="1.44477">
        <ele>117.5</ele>
        <time>2022-08-10T07:32:31Z</time>
      </trkpt>
      <trkpt lat="44.44946" lon="1.44479">
        <ele>117.4</ele>
        <time>2022-08-10T07:32:33Z</time>
      </trkpt>
      <trkpt lat="44.44942" lon="1.44481">
        <ele>117.4</ele>
        <time>2022-08-10T07:32:35Z</time>
      </trkpt>
      <trkpt lat="44.44938" lon="1.44485">
        <ele>117.3</ele>
        <time>2022-08-10T07:32:37Z</time>
      </trkpt>
      <trkpt lat="44.44934" lon="1.44489">
        <ele>117.3</ele>
        <time>2022-08-10T07:32:39Z</time>
      </trkpt>
      <trkpt lat="44.4493" lon="1.44492">
        <ele>117.2</ele>
        <time>2022-08-10T07:32:41Z</time>
      </trkpt>
      <trkpt lat="44.44926" lon="1.44495">
        <ele>117.2</ele>
        <time>2022-08-10T07:32:43Z</time>
      </trkpt>
      <trkpt lat="44.44923" lon="1.44497">
        <ele>117.1</ele>
        <time>2022-08-10T07:32:45Z</time>
      </trkpt>
      <trkpt lat="44.4492" lon="1.44498">
        <ele>117.1</ele>
        <time>2022-08-10T07:32:47Z</time>
      </trkpt>
      <trkpt lat="44.44917" lon="1.44499">
        <ele>117</ele>
        <time>2022-08-10T07:32:49Z</time>
      </trkpt>
      <trkpt lat="44.44916" lon="1.44499">
        <ele>117</ele>
        <time>2022-08-10T07:32:51Z</time>
      </trkpt>
      <trkpt lat="44.44914" lon="1.445">
        <ele>117.1</ele>
        <time>2022-08-10T07:32:53Z</time>
      </trkpt>
      <trkpt lat="44.4491" lon="1.44495">
        <ele>117.2</ele>
        <time>2022-08-10T07:32:55Z</time>
      </trkpt>
      <trkpt lat="44.44909" lon="1.44487">
        <ele>117.3</ele>
        <time>2022-08-10T07:32:57Z</time>
      </trkpt>
      <trkpt lat="44.44908" lon="1.44481">
        <ele>117.5</ele>
        <time>2022-08-10T07:32:59Z</time>
      </trkpt>
      <trkpt lat="44.44907" lon="1.44475">
        <ele>117.6</ele>
        <time>2022-08-10T07:33:01Z</time>
      </trkpt>
      <trkpt lat="44.44905" lon="1.44469">
        <ele>117.7</ele>
        <time>2022-08-10T07:33:03Z</time>
      </trkpt>
      <trkpt lat="44.44903" lon="1.44463">
        <ele>117.8</ele>
        <time>2022-08-10T07:33:05Z</time>
      </trkpt>
      <trkpt lat="44.44902" lon="1.44457">
        <ele>118</ele>
        <time>2022-08-10T07:33:07Z</time>
      </trkpt>
      <trkpt lat="44.44901" lon="1.44451">
        <ele>118.1</ele>
        <time>2022-08-10T07:33:09Z</time>
      </trkpt>
      <trkpt lat="44.44899" lon="1.44445">
        <ele>118.2</ele>
        <time>2022-08-10T07:33:11Z</time>
      </trkpt>
      <trkpt lat="44.44898" lon="1.44438">
        <ele>118.4</ele>
        <time>2022-08-10T07:33:13Z</time>
      </trkpt>
      <trkpt lat="44.44896" lon="1.44431">
        <ele>118.5</ele>
        <time>2022-08-10T07:33:15Z</time>
      </trkpt>
      <trkpt lat="44.44894" lon="1.44424">
        <ele>118.7</ele>
        <time>2022-08-10T07:33:17Z</time>
      </trkpt>
      <trkpt lat="44.44893" lon="1.44417">
        <ele>118.9</ele>
        <time>2022-08-10T07:33:19Z</time>
      </trkpt>
      <trkpt lat="44.44891" lon="1.4441">
        <ele>119.3</ele>
        <time>2022-08-10T07:33:21Z</time>
      </trkpt>
      <trkpt lat="44.44889" lon="1.44402">
        <ele>119.8</ele>
        <time>2022-08-10T07:33:23Z</time>
      </trkpt>
      <trkpt lat="44.44887" lon="1.44395">
        <ele>120.3</ele>
        <time>2022-08-10T07:33:25Z</time>
      </trkpt>
      <trkpt lat="44.44885" lon="1.44386">
        <ele>120.8</ele>
        <time>2022-08-10T07:33:27Z</time>
      </trkpt>
      <trkpt lat="44.44884" lon="1.44377">
        <ele>121.4</ele>
        <time>2022-08-10T07:33:29Z</time>
      </trkpt>
      <trkpt lat="44.44882" lon="1.44368">
        <ele>121.9</ele>
        <time>2022-08-10T07:33:31Z</time>
      </trkpt>
      <trkpt lat="44.44879" lon="1.44359">
        <ele>122.5</ele>
        <time>2022-08-10T07:33:33Z</time>
      </trkpt>
      <trkpt lat="44.44877" lon="1.44349">
        <ele>123.1</ele>
        <time>2022-08-10T07:33:35Z</time>
      </trkpt>
      <trkpt lat="44.44877" lon="1.4434">
        <ele>123.6</ele>
        <time>2022-08-10T07:33:37Z</time>
      </trkpt>
      <trkpt lat="44.44873" lon="1.44333">
        <ele>124.1</ele>
        <time>2022-08-10T07:33:39Z</time>
      </trkpt>
      <trkpt lat="44.44865" lon="1.44335">
        <ele>124.1</ele>
        <time>2022-08-10T07:33:41Z</time>
      </trkpt>
      <trkpt lat="44.44858" lon="1.44339">
        <ele>124.1</ele>
        <time>2022-08-10T07:33:43Z</time>
      </trkpt>
      <trkpt lat="44.44851" lon="1.44342">
        <ele>124.1</ele>
        <time>2022-08-10T07:33:45Z</time>
      </trkpt>
      <trkpt lat="44.44844" lon="1.44344">
        <ele>124.2</ele>
        <time>2022-08-10T07:33:47Z</time>
      </trkpt>
      <trkpt lat="44.44839" lon="1.44347">
        <ele>124.2</ele>
        <time>2022-08-10T07:33:49Z</time>
      </trkpt>
      <trkpt lat="44.44832" lon="1.44351">
        <ele>124.2</ele>
        <time>2022-08-10T07:33:51Z</time>
      </trkpt>
      <trkpt lat="44.44826" lon="1.44358">
        <ele>124.4</ele>
        <time>2022-08-10T07:33:53Z</time>
      </trkpt>
      <trkpt lat="44.44821" lon="1.44363">
        <ele>124.5</ele>
        <time>2022-08-10T07:33:55Z</time>
      </trkpt>
      <trkpt lat="44.44815" lon="1.44369">
        <ele>124.7</ele>
        <time>2022-08-10T07:33:57Z</time>
      </trkpt>
      <trkpt lat="44.44809" lon="1.44375">
        <ele>124.9</ele>
        <time>2022-08-10T07:33:59Z</time>
      </trkpt>
      <trkpt lat="44.44803" lon="1.4438">
        <ele>125.1</ele>
        <time>2022-08-10T07:34:01Z</time>
      </trkpt>
      <trkpt lat="44.44797" lon="1.44387">
        <ele>125.2</ele>
        <time>2022-08-10T07:34:03Z</time>
      </trkpt>
      <trkpt lat="44.44792" lon="1.44392">
        <ele>125.3</ele>
        <time>2022-08-10T07:34:05Z</time>
      </trkpt>
      <trkpt lat="44.44786" lon="1.44398">
        <ele>125.5</ele>
        <time>2022-08-10T07:34:07Z</time>
      </trkpt>
      <trkpt lat="44.44781" lon="1.44402">
        <ele>125.6</ele>
        <time>2022-08-10T07:34:09Z</time>
      </trkpt>
      <trkpt lat="44.44775" lon="1.44407">
        <ele>125.7</ele>
        <time>2022-08-10T07:34:11Z</time>
      </trkpt>
      <trkpt lat="44.4477" lon="1.4441">
        <ele>125.9</ele>
        <time>2022-08-10T07:34:13Z</time>
      </trkpt>
      <trkpt lat="44.44765" lon="1.44405">
        <ele>126.6</ele>
        <time>2022-08-10T07:34:15Z</time>
      </trkpt>
      <trkpt lat="44.44763" lon="1.44398">
        <ele>127.1</ele>
        <time>2022-08-10T07:34:17Z</time>
      </trkpt>
      <trkpt lat="44.44761" lon="1.44392">
        <ele>127.6</ele>
        <time>2022-08-10T07:34:19Z</time>
      </trkpt>
      <trkpt lat="44.44759" lon="1.44386">
        <ele>128.2</ele>
        <time>2022-08-10T07:34:21Z</time>
      </trkpt>
      <trkpt lat="44.44757" lon="1.4438">
        <ele>128.6</ele>
        <time>2022-08-10T07:34:23Z</time>
      </trkpt>
      <trkpt lat="44.44756" lon="1.44375">
        <ele>129.1</ele>
        <time>2022-08-10T07:34:25Z</time>
      </trkpt>
      <trkpt lat="44.44755" lon="1.44369">
        <ele>129.5</ele>
        <time>2022-08-10T07:34:27Z</time>
      </trkpt>
      <trkpt lat="44.44754" lon="1.44362">
        <ele>130</ele>
        <time>2022-08-10T07:34:29Z</time>
      </trkpt>
      <trkpt lat="44.44753" lon="1.44356">
        <ele>130.4</ele>
        <time>2022-08-10T07:34:31Z</time>
      </trkpt>
      <trkpt lat="44.44752" lon="1.44349">
        <ele>130.9</ele>
        <time>2022-08-10T07:34:33Z</time>
      </trkpt>
      <trkpt lat="44.4475" lon="1.44341">
        <ele>131.5</ele>
        <time>2022-08-10T07:34:35Z</time>
      </trkpt>
      <trkpt lat="44.44749" lon="1.44334">
        <ele>132</ele>
        <time>2022-08-10T07:34:37Z</time>
      </trkpt>
      <trkpt lat="44.44748" lon="1.44326">
        <ele>132.1</ele>
        <time>2022-08-10T07:34:39Z</time>
      </trkpt>
      <trkpt lat="44.44747" lon="1.44319">
        <ele>132.3</ele>
        <time>2022-08-10T07:34:41Z</time>
      </trkpt>
      <trkpt lat="44.44746" lon="1.44311">
        <ele>132.5</ele>
        <time>2022-08-10T07:34:43Z</time>
      </trkpt>
      <trkpt lat="44.44746" lon="1.44305">
        <ele>132.6</ele>
        <time>2022-08-10T07:34:45Z</time>
      </trkpt>
      <trkpt lat="44.44745" lon="1.44296">
        <ele>132.8</ele>
        <time>2022-08-10T07:34:47Z</time>
      </trkpt>
      <trkpt lat="44.44743" lon="1.44286">
        <ele>133.1</ele>
        <time>2022-08-10T07:34:49Z</time>
      </trkpt>
      <trkpt lat="44.44741" lon="1.44277">
        <ele>133.2</ele>
        <time>2022-08-10T07:34:51Z</time>
      </trkpt>
      <trkpt lat="44.4474" lon="1.44269">
        <ele>133.4</ele>
        <time>2022-08-10T07:34:53Z</time>
      </trkpt>
      <trkpt lat="44.44739" lon="1.44262">
        <ele>133.6</ele>
        <time>2022-08-10T07:34:55Z</time>
      </trkpt>
      <trkpt lat="44.44738" lon="1.44255">
        <ele>133.7</ele>
        <time>2022-08-10T07:34:57Z</time>
      </trkpt>
      <trkpt lat="44.44737" lon="1.44251">
        <ele>133.8</ele>
        <time>2022-08-10T07:34:59Z</time>
      </trkpt>
      <trkpt lat="44.44737" lon="1.44247">
        <ele>133.9</ele>
        <time>2022-08-10T07:35:01Z</time>
      </trkpt>
      <trkpt lat="44.44738" lon="1.44241">
        <ele>134.1</ele>
        <time>2022-08-10T07:35:03Z</time>
      </trkpt>
      <trkpt lat="44.44738" lon="1.44238">
        <ele>134.2</ele>
        <time>2022-08-10T07:35:05Z</time>
      </trkpt>
      <trkpt lat="44.44738" lon="1.44234">
        <ele>134.2</ele>
        <time>2022-08-10T07:35:07Z</time>
      </trkpt>
      <trkpt lat="44.44739" lon="1.44232">
        <ele>134.3</ele>
        <time>2022-08-10T07:35:09Z</time>
      </trkpt>
      <trkpt lat="44.44738" lon="1.44229">
        <ele>134.4</ele>
        <time>2022-08-10T07:35:11Z</time>
      </trkpt>
      <trkpt lat="44.44738" lon="1.44227">
        <ele>134.4</ele>
        <time>2022-08-10T07:35:13Z</time>
      </trkpt>
      <trkpt lat="44.44738" lon="1.44227">
        <ele>134.4</ele>
        <time>2022-08-10T07:35:15Z</time>
      </trkpt>
      <trkpt lat="44.44739" lon="1.44276">
        <ele>133.2</ele>
        <time>2022-08-10T07:36:05Z</time>
      </trkpt>
      <trkpt lat="44.44739" lon="1.44279">
        <ele>133.2</ele>
        <time>2022-08-10T07:36:07Z</time>
      </trkpt>
      <trkpt lat="44.44739" lon="1.44283">
        <ele>133.1</ele>
        <time>2022-08-10T07:36:09Z</time>
      </trkpt>
      <trkpt lat="44.44741" lon="1.44286">
        <ele>133</ele>
        <time>2022-08-10T07:36:11Z</time>
      </trkpt>
      <trkpt lat="44.44741" lon="1.44288">
        <ele>133</ele>
        <time>2022-08-10T07:36:13Z</time>
      </trkpt>
      <trkpt lat="44.44743" lon="1.4429">
        <ele>132.9</ele>
        <time>2022-08-10T07:36:15Z</time>
      </trkpt>
      <trkpt lat="44.44745" lon="1.44293">
        <ele>132.9</ele>
        <time>2022-08-10T07:36:17Z</time>
      </trkpt>
      <trkpt lat="44.44747" lon="1.44296">
        <ele>132.9</ele>
        <time>2022-08-10T07:36:19Z</time>
      </trkpt>
      <trkpt lat="44.44748" lon="1.44298">
        <ele>132.8</ele>
        <time>2022-08-10T07:36:21Z</time>
      </trkpt>
      <trkpt lat="44.4475" lon="1.44301">
        <ele>132.8</ele>
        <time>2022-08-10T07:36:23Z</time>
      </trkpt>
      <trkpt lat="44.44752" lon="1.44303">
        <ele>132.6</ele>
        <time>2022-08-10T07:36:25Z</time>
      </trkpt>
      <trkpt lat="44.44751" lon="1.44305">
        <ele>132.6</ele>
        <time>2022-08-10T07:36:27Z</time>
      </trkpt>
      <trkpt lat="44.44752" lon="1.44304">
        <ele>132.6</ele>
        <time>2022-08-10T07:36:29Z</time>
      </trkpt>
      <trkpt lat="44.44752" lon="1.44305">
        <ele>132.6</ele>
        <time>2022-08-10T07:36:31Z</time>
      </trkpt>
      <trkpt lat="44.44753" lon="1.4431">
        <ele>132.3</ele>
        <time>2022-08-10T09:48:12Z</time>
      </trkpt>
      <trkpt lat="44.4476" lon="1.44311">
        <ele>131.8</ele>
        <time>2022-08-10T09:48:13Z</time>
      </trkpt>
      <trkpt lat="44.44746" lon="1.44291">
        <ele>133</ele>
        <time>2022-08-10T09:50:04Z</time>
      </trkpt>
      <trkpt lat="44.44745" lon="1.44283">
        <ele>133.1</ele>
        <time>2022-08-10T09:50:06Z</time>
      </trkpt>
      <trkpt lat="44.44745" lon="1.4428">
        <ele>133.2</ele>
        <time>2022-08-10T09:50:08Z</time>
      </trkpt>
      <trkpt lat="44.44746" lon="1.44275">
        <ele>133.4</ele>
        <time>2022-08-10T09:50:10Z</time>
      </trkpt>
      <trkpt lat="44.44744" lon="1.44271">
        <ele>133.4</ele>
        <time>2022-08-10T09:50:12Z</time>
      </trkpt>
      <trkpt lat="44.44742" lon="1.44267">
        <ele>133.5</ele>
        <time>2022-08-10T09:50:14Z</time>
      </trkpt>
      <trkpt lat="44.44739" lon="1.44264">
        <ele>133.5</ele>
        <time>2022-08-10T09:50:16Z</time>
      </trkpt>
      <trkpt lat="44.44737" lon="1.4426">
        <ele>133.6</ele>
        <time>2022-08-10T09:50:18Z</time>
      </trkpt>
      <trkpt lat="44.44736" lon="1.44257">
        <ele>133.7</ele>
        <time>2022-08-10T09:50:20Z</time>
      </trkpt>
      <trkpt lat="44.44737" lon="1.44255">
        <ele>133.7</ele>
        <time>2022-08-10T09:50:22Z</time>
      </trkpt>
      <trkpt lat="44.44737" lon="1.44255">
        <ele>133.7</ele>
        <time>2022-08-10T09:50:24Z</time>
      </trkpt>
      <trkpt lat="44.44737" lon="1.44252">
        <ele>133.8</ele>
        <time>2022-08-10T09:50:26Z</time>
      </trkpt>
      <trkpt lat="44.44738" lon="1.44249">
        <ele>133.9</ele>
        <time>2022-08-10T09:50:28Z</time>
      </trkpt>
      <trkpt lat="44.44739" lon="1.44245">
        <ele>134</ele>
        <time>2022-08-10T09:50:30Z</time>
      </trkpt>
      <trkpt lat="44.44739" lon="1.44242">
        <ele>134.1</ele>
        <time>2022-08-10T09:50:32Z</time>
      </trkpt>
      <trkpt lat="44.44738" lon="1.44239">
        <ele>134.1</ele>
        <time>2022-08-10T09:50:34Z</time>
      </trkpt>
      <trkpt lat="44.44739" lon="1.44237">
        <ele>134.2</ele>
        <time>2022-08-10T09:50:36Z</time>
      </trkpt>
      <trkpt lat="44.44739" lon="1.44235">
        <ele>134.2</ele>
        <time>2022-08-10T09:50:38Z</time>
      </trkpt>
      <trkpt lat="44.44739" lon="1.44232">
        <ele>134.3</ele>
        <time>2022-08-10T09:50:40Z</time>
      </trkpt>
      <trkpt lat="44.44739" lon="1.4423">
        <ele>134.3</ele>
        <time>2022-08-10T09:50:42Z</time>
      </trkpt>
      <trkpt lat="44.44736" lon="1.44202">
        <ele>135</ele>
        <time>2022-08-10T09:51:00Z</time>
      </trkpt>
      <trkpt lat="44.44736" lon="1.44199">
        <ele>135.1</ele>
        <time>2022-08-10T09:51:02Z</time>
      </trkpt>
      <trkpt lat="44.44735" lon="1.44195">
        <ele>135.1</ele>
        <time>2022-08-10T09:51:04Z</time>
      </trkpt>
      <trkpt lat="44.44734" lon="1.44192">
        <ele>135.2</ele>
        <time>2022-08-10T09:51:06Z</time>
      </trkpt>
      <trkpt lat="44.44734" lon="1.44188">
        <ele>135.3</ele>
        <time>2022-08-10T09:51:08Z</time>
      </trkpt>
      <trkpt lat="44.44732" lon="1.44183">
        <ele>135.4</ele>
        <time>2022-08-10T09:51:10Z</time>
      </trkpt>
      <trkpt lat="44.44732" lon="1.44179">
        <ele>135.5</ele>
        <time>2022-08-10T09:51:12Z</time>
      </trkpt>
      <trkpt lat="44.44731" lon="1.44175">
        <ele>135.6</ele>
        <time>2022-08-10T09:51:14Z</time>
      </trkpt>
      <trkpt lat="44.44731" lon="1.44172">
        <ele>135.7</ele>
        <time>2022-08-10T09:51:16Z</time>
      </trkpt>
      <trkpt lat="44.44731" lon="1.44168">
        <ele>135.7</ele>
        <time>2022-08-10T09:51:18Z</time>
      </trkpt>
      <trkpt lat="44.44732" lon="1.44163">
        <ele>135.8</ele>
        <time>2022-08-10T09:51:20Z</time>
      </trkpt>
      <trkpt lat="44.4473" lon="1.4416">
        <ele>135.7</ele>
        <time>2022-08-10T09:51:22Z</time>
      </trkpt>
      <trkpt lat="44.44731" lon="1.44157">
        <ele>135.8</ele>
        <time>2022-08-10T09:51:24Z</time>
      </trkpt>
      <trkpt lat="44.44731" lon="1.44154">
        <ele>135.7</ele>
        <time>2022-08-10T09:51:26Z</time>
      </trkpt>
      <trkpt lat="44.44731" lon="1.44151">
        <ele>135.7</ele>
        <time>2022-08-10T09:51:28Z</time>
      </trkpt>
      <trkpt lat="44.44732" lon="1.44148">
        <ele>135.7</ele>
        <time>2022-08-10T09:51:30Z</time>
      </trkpt>
      <trkpt lat="44.44731" lon="1.44146">
        <ele>135.7</ele>
        <time>2022-08-10T09:51:32Z</time>
      </trkpt>
      <trkpt lat="44.44731" lon="1.44143">
        <ele>135.7</ele>
        <time>2022-08-10T09:51:34Z</time>
      </trkpt>
      <trkpt lat="44.44732" lon="1.44139">
        <ele>135.7</ele>
        <time>2022-08-10T09:51:36Z</time>
      </trkpt>
      <trkpt lat="44.44731" lon="1.44135">
        <ele>135.7</ele>
        <time>2022-08-10T09:51:38Z</time>
      </trkpt>
      <trkpt lat="44.4473" lon="1.44131">
        <ele>135.7</ele>
        <time>2022-08-10T09:51:40Z</time>
      </trkpt>
      <trkpt lat="44.44731" lon="1.44128">
        <ele>135.7</ele>
        <time>2022-08-10T09:51:42Z</time>
      </trkpt>
      <trkpt lat="44.44731" lon="1.44125">
        <ele>135.7</ele>
        <time>2022-08-10T09:51:44Z</time>
      </trkpt>
      <trkpt lat="44.44731" lon="1.44122">
        <ele>135.7</ele>
        <time>2022-08-10T09:51:46Z</time>
      </trkpt>
      <trkpt lat="44.44731" lon="1.4412">
        <ele>135.6</ele>
        <time>2022-08-10T09:51:48Z</time>
      </trkpt>
      <trkpt lat="44.44732" lon="1.44119">
        <ele>135.7</ele>
        <time>2022-08-10T09:51:50Z</time>
      </trkpt>
      <trkpt lat="44.4473" lon="1.44116">
        <ele>135.6</ele>
        <time>2022-08-10T09:51:52Z</time>
      </trkpt>
      <trkpt lat="44.44745" lon="1.44084">
        <ele>135.9</ele>
        <time>2022-08-10T09:59:32Z</time>
      </trkpt>
      <trkpt lat="44.44738" lon="1.44089">
        <ele>135.7</ele>
        <time>2022-08-10T10:00:24Z</time>
      </trkpt>
      <trkpt lat="44.44736" lon="1.44086">
        <ele>135.7</ele>
        <time>2022-08-10T10:00:26Z</time>
      </trkpt>
      <trkpt lat="44.44738" lon="1.44083">
        <ele>135.7</ele>
        <time>2022-08-10T10:00:28Z</time>
      </trkpt>
      <trkpt lat="44.44738" lon="1.44079">
        <ele>135.7</ele>
        <time>2022-08-10T10:00:30Z</time>
      </trkpt>
      <trkpt lat="44.44737" lon="1.44077">
        <ele>135.6</ele>
        <time>2022-08-10T10:00:32Z</time>
      </trkpt>
      <trkpt lat="44.44737" lon="1.44074">
        <ele>135.6</ele>
        <time>2022-08-10T10:00:34Z</time>
      </trkpt>
      <trkpt lat="44.44736" lon="1.4407">
        <ele>135.6</ele>
        <time>2022-08-10T10:00:36Z</time>
      </trkpt>
      <trkpt lat="44.44737" lon="1.44066">
        <ele>135.5</ele>
        <time>2022-08-10T10:00:38Z</time>
      </trkpt>
      <trkpt lat="44.44735" lon="1.4406">
        <ele>135.5</ele>
        <time>2022-08-10T10:00:40Z</time>
      </trkpt>
      <trkpt lat="44.44735" lon="1.44055">
        <ele>135.4</ele>
        <time>2022-08-10T10:00:42Z</time>
      </trkpt>
      <trkpt lat="44.44733" lon="1.44051">
        <ele>135.4</ele>
        <time>2022-08-10T10:00:44Z</time>
      </trkpt>
      <trkpt lat="44.44731" lon="1.44046">
        <ele>135.3</ele>
        <time>2022-08-10T10:00:46Z</time>
      </trkpt>
      <trkpt lat="44.44732" lon="1.44043">
        <ele>135.3</ele>
        <time>2022-08-10T10:00:48Z</time>
      </trkpt>
      <trkpt lat="44.44733" lon="1.44044">
        <ele>135.3</ele>
        <time>2022-08-10T10:00:50Z</time>
      </trkpt>
      <trkpt lat="44.44733" lon="1.44044">
        <ele>135.3</ele>
        <time>2022-08-10T10:00:52Z</time>
      </trkpt>
      <trkpt lat="44.44712" lon="1.44037">
        <ele>135</ele>
        <time>2022-08-10T10:01:42Z</time>
      </trkpt>
      <trkpt lat="44.44709" lon="1.44039">
        <ele>135</ele>
        <time>2022-08-10T10:01:44Z</time>
      </trkpt>
      <trkpt lat="44.44703" lon="1.44046">
        <ele>134.9</ele>
        <time>2022-08-10T10:01:46Z</time>
      </trkpt>
      <trkpt lat="44.44697" lon="1.44052">
        <ele>134.8</ele>
        <time>2022-08-10T10:01:48Z</time>
      </trkpt>
      <trkpt lat="44.44689" lon="1.44058">
        <ele>134.7</ele>
        <time>2022-08-10T10:01:50Z</time>
      </trkpt>
      <trkpt lat="44.44684" lon="1.44063">
        <ele>134.6</ele>
        <time>2022-08-10T10:01:52Z</time>
      </trkpt>
      <trkpt lat="44.44679" lon="1.44069">
        <ele>134.4</ele>
        <time>2022-08-10T10:01:54Z</time>
      </trkpt>
      <trkpt lat="44.44675" lon="1.44073">
        <ele>134.3</ele>
        <time>2022-08-10T10:01:56Z</time>
      </trkpt>
      <trkpt lat="44.44669" lon="1.44078">
        <ele>134.1</ele>
        <time>2022-08-10T10:01:58Z</time>
      </trkpt>
      <trkpt lat="44.44663" lon="1.44085">
        <ele>133.8</ele>
        <time>2022-08-10T10:02:00Z</time>
      </trkpt>
      <trkpt lat="44.44658" lon="1.4409">
        <ele>133.5</ele>
        <time>2022-08-10T10:02:02Z</time>
      </trkpt>
      <trkpt lat="44.44651" lon="1.44094">
        <ele>133.2</ele>
        <time>2022-08-10T10:02:04Z</time>
      </trkpt>
      <trkpt lat="44.44646" lon="1.4409">
        <ele>132.9</ele>
        <time>2022-08-10T10:02:06Z</time>
      </trkpt>
      <trkpt lat="44.44647" lon="1.44084">
        <ele>132.8</ele>
        <time>2022-08-10T10:02:08Z</time>
      </trkpt>
      <trkpt lat="44.44644" lon="1.44078">
        <ele>132.7</ele>
        <time>2022-08-10T10:02:10Z</time>
      </trkpt>
      <trkpt lat="44.44641" lon="1.44071">
        <ele>132.6</ele>
        <time>2022-08-10T10:02:12Z</time>
      </trkpt>
      <trkpt lat="44.44638" lon="1.44064">
        <ele>132.5</ele>
        <time>2022-08-10T10:02:14Z</time>
      </trkpt>
      <trkpt lat="44.44636" lon="1.44057">
        <ele>132.4</ele>
        <time>2022-08-10T10:02:16Z</time>
      </trkpt>
      <trkpt lat="44.44635" lon="1.44049">
        <ele>132.3</ele>
        <time>2022-08-10T10:02:18Z</time>
      </trkpt>
      <trkpt lat="44.44631" lon="1.44041">
        <ele>132.1</ele>
        <time>2022-08-10T10:02:20Z</time>
      </trkpt>
      <trkpt lat="44.44629" lon="1.44035">
        <ele>132.1</ele>
        <time>2022-08-10T10:02:22Z</time>
      </trkpt>
      <trkpt lat="44.44628" lon="1.4403">
        <ele>132</ele>
        <time>2022-08-10T10:02:24Z</time>
      </trkpt>
      <trkpt lat="44.44627" lon="1.44026">
        <ele>132</ele>
        <time>2022-08-10T10:02:26Z</time>
      </trkpt>
      <trkpt lat="44.44624" lon="1.44019">
        <ele>131.8</ele>
        <time>2022-08-10T10:02:28Z</time>
      </trkpt>
      <trkpt lat="44.44623" lon="1.44013">
        <ele>131.8</ele>
        <time>2022-08-10T10:02:30Z</time>
      </trkpt>
      <trkpt lat="44.44622" lon="1.44006">
        <ele>131.7</ele>
        <time>2022-08-10T10:02:32Z</time>
      </trkpt>
      <trkpt lat="44.44619" lon="1.43999">
        <ele>131.6</ele>
        <time>2022-08-10T10:02:34Z</time>
      </trkpt>
      <trkpt lat="44.44617" lon="1.43991">
        <ele>131.5</ele>
        <time>2022-08-10T10:02:36Z</time>
      </trkpt>
      <trkpt lat="44.44615" lon="1.43984">
        <ele>131.3</ele>
        <time>2022-08-10T10:02:38Z</time>
      </trkpt>
      <trkpt lat="44.44614" lon="1.4398">
        <ele>131.2</ele>
        <time>2022-08-10T10:02:40Z</time>
      </trkpt>
      <trkpt lat="44.44613" lon="1.43975">
        <ele>131.2</ele>
        <time>2022-08-10T10:02:42Z</time>
      </trkpt>
      <trkpt lat="44.44613" lon="1.43971">
        <ele>131.2</ele>
        <time>2022-08-10T10:02:44Z</time>
      </trkpt>
      <trkpt lat="44.44612" lon="1.43964">
        <ele>131.2</ele>
        <time>2022-08-10T10:02:46Z</time>
      </trkpt>
      <trkpt lat="44.44609" lon="1.43957">
        <ele>131</ele>
        <time>2022-08-10T10:02:48Z</time>
      </trkpt>
      <trkpt lat="44.44606" lon="1.43948">
        <ele>130.9</ele>
        <time>2022-08-10T10:02:50Z</time>
      </trkpt>
      <trkpt lat="44.44603" lon="1.43938">
        <ele>130.8</ele>
        <time>2022-08-10T10:02:52Z</time>
      </trkpt>
      <trkpt lat="44.44601" lon="1.43929">
        <ele>130.8</ele>
        <time>2022-08-10T10:02:54Z</time>
      </trkpt>
      <trkpt lat="44.44598" lon="1.43919">
        <ele>130.7</ele>
        <time>2022-08-10T10:02:56Z</time>
      </trkpt>
      <trkpt lat="44.44594" lon="1.43908">
        <ele>130.6</ele>
        <time>2022-08-10T10:02:58Z</time>
      </trkpt>
      <trkpt lat="44.44592" lon="1.43898">
        <ele>130.6</ele>
        <time>2022-08-10T10:03:00Z</time>
      </trkpt>
      <trkpt lat="44.4459" lon="1.43888">
        <ele>130.6</ele>
        <time>2022-08-10T10:03:02Z</time>
      </trkpt>
      <trkpt lat="44.44587" lon="1.43877">
        <ele>130.6</ele>
        <time>2022-08-10T10:03:04Z</time>
      </trkpt>
      <trkpt lat="44.44586" lon="1.43868">
        <ele>130.7</ele>
        <time>2022-08-10T10:03:06Z</time>
      </trkpt>
      <trkpt lat="44.44585" lon="1.43858">
        <ele>130.7</ele>
        <time>2022-08-10T10:03:08Z</time>
      </trkpt>
      <trkpt lat="44.44583" lon="1.43848">
        <ele>130.8</ele>
        <time>2022-08-10T10:03:10Z</time>
      </trkpt>
      <trkpt lat="44.44581" lon="1.43839">
        <ele>130.9</ele>
        <time>2022-08-10T10:03:12Z</time>
      </trkpt>
      <trkpt lat="44.4458" lon="1.43829">
        <ele>130.9</ele>
        <time>2022-08-10T10:03:14Z</time>
      </trkpt>
      <trkpt lat="44.44578" lon="1.43819">
        <ele>130.8</ele>
        <time>2022-08-10T10:03:16Z</time>
      </trkpt>
      <trkpt lat="44.44576" lon="1.4381">
        <ele>130.7</ele>
        <time>2022-08-10T10:03:18Z</time>
      </trkpt>
      <trkpt lat="44.44576" lon="1.43802">
        <ele>130.7</ele>
        <time>2022-08-10T10:03:20Z</time>
      </trkpt>
      <trkpt lat="44.44574" lon="1.43794">
        <ele>130.6</ele>
        <time>2022-08-10T10:03:22Z</time>
      </trkpt>
      <trkpt lat="44.44573" lon="1.43786">
        <ele>130.5</ele>
        <time>2022-08-10T10:03:24Z</time>
      </trkpt>
      <trkpt lat="44.44573" lon="1.4378">
        <ele>130.5</ele>
        <time>2022-08-10T10:03:26Z</time>
      </trkpt>
      <trkpt lat="44.4457" lon="1.43774">
        <ele>130.4</ele>
        <time>2022-08-10T10:03:28Z</time>
      </trkpt>
      <trkpt lat="44.44571" lon="1.4377">
        <ele>130.4</ele>
        <time>2022-08-10T10:03:30Z</time>
      </trkpt>
      <trkpt lat="44.4457" lon="1.43768">
        <ele>130.4</ele>
        <time>2022-08-10T10:03:32Z</time>
      </trkpt>
      <trkpt lat="44.4457" lon="1.43767">
        <ele>130.4</ele>
        <time>2022-08-10T10:03:34Z</time>
      </trkpt>
      <trkpt lat="44.4457" lon="1.43766">
        <ele>130.4</ele>
        <time>2022-08-10T10:03:36Z</time>
      </trkpt>
      <trkpt lat="44.44571" lon="1.43764">
        <ele>130.4</ele>
        <time>2022-08-10T10:03:38Z</time>
      </trkpt>
      <trkpt lat="44.4457" lon="1.43763">
        <ele>130.4</ele>
        <time>2022-08-10T10:03:40Z</time>
      </trkpt>
      <trkpt lat="44.44577" lon="1.43728">
        <ele>130.2</ele>
        <time>2022-08-10T10:06:58Z</time>
      </trkpt>
      <trkpt lat="44.44576" lon="1.43718">
        <ele>129.9</ele>
        <time>2022-08-10T10:07:00Z</time>
      </trkpt>
      <trkpt lat="44.44575" lon="1.43709">
        <ele>129.7</ele>
        <time>2022-08-10T10:07:02Z</time>
      </trkpt>
      <trkpt lat="44.44573" lon="1.43699">
        <ele>129.4</ele>
        <time>2022-08-10T10:07:04Z</time>
      </trkpt>
      <trkpt lat="44.44572" lon="1.43688">
        <ele>129.2</ele>
        <time>2022-08-10T10:07:06Z</time>
      </trkpt>
      <trkpt lat="44.4457" lon="1.43677">
        <ele>128.9</ele>
        <time>2022-08-10T10:07:08Z</time>
      </trkpt>
      <trkpt lat="44.44568" lon="1.43667">
        <ele>128.6</ele>
        <time>2022-08-10T10:07:10Z</time>
      </trkpt>
      <trkpt lat="44.44567" lon="1.43657">
        <ele>128.4</ele>
        <time>2022-08-10T10:07:12Z</time>
      </trkpt>
      <trkpt lat="44.44565" lon="1.43649">
        <ele>128.3</ele>
        <time>2022-08-10T10:07:14Z</time>
      </trkpt>
      <trkpt lat="44.44564" lon="1.43641">
        <ele>128.1</ele>
        <time>2022-08-10T10:07:16Z</time>
      </trkpt>
      <trkpt lat="44.44562" lon="1.43633">
        <ele>127.9</ele>
        <time>2022-08-10T10:07:18Z</time>
      </trkpt>
      <trkpt lat="44.44561" lon="1.43625">
        <ele>127.7</ele>
        <time>2022-08-10T10:07:20Z</time>
      </trkpt>
      <trkpt lat="44.4456" lon="1.43616">
        <ele>127.5</ele>
        <time>2022-08-10T10:07:22Z</time>
      </trkpt>
      <trkpt lat="44.44559" lon="1.43606">
        <ele>127.3</ele>
        <time>2022-08-10T10:07:24Z</time>
      </trkpt>
      <trkpt lat="44.44558" lon="1.43596">
        <ele>127</ele>
        <time>2022-08-10T10:07:26Z</time>
      </trkpt>
      <trkpt lat="44.44556" lon="1.43585">
        <ele>126.7</ele>
        <time>2022-08-10T10:07:28Z</time>
      </trkpt>
      <trkpt lat="44.44555" lon="1.43575">
        <ele>126.2</ele>
        <time>2022-08-10T10:07:30Z</time>
      </trkpt>
      <trkpt lat="44.44554" lon="1.43564">
        <ele>125.7</ele>
        <time>2022-08-10T10:07:32Z</time>
      </trkpt>
      <trkpt lat="44.44553" lon="1.43553">
        <ele>125.1</ele>
        <time>2022-08-10T10:07:34Z</time>
      </trkpt>
      <trkpt lat="44.44552" lon="1.43543">
        <ele>124.6</ele>
        <time>2022-08-10T10:07:36Z</time>
      </trkpt>
      <trkpt lat="44.44551" lon="1.43535">
        <ele>124.2</ele>
        <time>2022-08-10T10:07:38Z</time>
      </trkpt>
      <trkpt lat="44.44552" lon="1.43527">
        <ele>123.9</ele>
        <time>2022-08-10T10:07:40Z</time>
      </trkpt>
      <trkpt lat="44.44551" lon="1.43521">
        <ele>123.6</ele>
        <time>2022-08-10T10:07:42Z</time>
      </trkpt>
      <trkpt lat="44.44551" lon="1.43519">
        <ele>123.5</ele>
        <time>2022-08-10T10:07:44Z</time>
      </trkpt>
      <trkpt lat="44.44551" lon="1.43519">
        <ele>123.5</ele>
        <time>2022-08-10T10:07:46Z</time>
      </trkpt>
      <trkpt lat="44.44551" lon="1.43519">
        <ele>123.5</ele>
        <time>2022-08-10T10:07:48Z</time>
      </trkpt>
      <trkpt lat="44.44551" lon="1.43519">
        <ele>123.5</ele>
        <time>2022-08-10T10:07:50Z</time>
      </trkpt>
      <trkpt lat="44.44551" lon="1.43519">
        <ele>123.5</ele>
        <time>2022-08-10T10:07:52Z</time>
      </trkpt>
      <trkpt lat="44.44552" lon="1.43497">
        <ele>122.6</ele>
        <time>2022-08-10T10:08:32Z</time>
      </trkpt>
      <trkpt lat="44.4455" lon="1.4349">
        <ele>122.4</ele>
        <time>2022-08-10T10:08:34Z</time>
      </trkpt>
      <trkpt lat="44.44548" lon="1.43481">
        <ele>122.3</ele>
        <time>2022-08-10T10:08:36Z</time>
      </trkpt>
      <trkpt lat="44.44547" lon="1.43471">
        <ele>122.1</ele>
        <time>2022-08-10T10:08:38Z</time>
      </trkpt>
      <trkpt lat="44.44546" lon="1.43461">
        <ele>121.9</ele>
        <time>2022-08-10T10:08:40Z</time>
      </trkpt>
      <trkpt lat="44.44546" lon="1.43451">
        <ele>121.7</ele>
        <time>2022-08-10T10:08:42Z</time>
      </trkpt>
      <trkpt lat="44.44545" lon="1.43442">
        <ele>121.5</ele>
        <time>2022-08-10T10:08:44Z</time>
      </trkpt>
      <trkpt lat="44.44544" lon="1.43433">
        <ele>121.4</ele>
        <time>2022-08-10T10:08:46Z</time>
      </trkpt>
      <trkpt lat="44.44544" lon="1.43424">
        <ele>121.2</ele>
        <time>2022-08-10T10:08:48Z</time>
      </trkpt>
      <trkpt lat="44.44542" lon="1.43416">
        <ele>121</ele>
        <time>2022-08-10T10:08:50Z</time>
      </trkpt>
      <trkpt lat="44.44542" lon="1.43407">
        <ele>120.9</ele>
        <time>2022-08-10T10:08:52Z</time>
      </trkpt>
      <trkpt lat="44.44541" lon="1.43397">
        <ele>120.8</ele>
        <time>2022-08-10T10:08:54Z</time>
      </trkpt>
      <trkpt lat="44.4454" lon="1.43389">
        <ele>120.6</ele>
        <time>2022-08-10T10:08:56Z</time>
      </trkpt>
      <trkpt lat="44.44536" lon="1.43384">
        <ele>120.5</ele>
        <time>2022-08-10T10:08:58Z</time>
      </trkpt>
      <trkpt lat="44.44532" lon="1.43383">
        <ele>120.5</ele>
        <time>2022-08-10T10:09:00Z</time>
      </trkpt>
      <trkpt lat="44.44528" lon="1.43384">
        <ele>120.4</ele>
        <time>2022-08-10T10:09:02Z</time>
      </trkpt>
      <trkpt lat="44.44525" lon="1.43384">
        <ele>120.4</ele>
        <time>2022-08-10T10:09:04Z</time>
      </trkpt>
      <trkpt lat="44.44522" lon="1.43383">
        <ele>120.3</ele>
        <time>2022-08-10T10:09:06Z</time>
      </trkpt>
      <trkpt lat="44.44518" lon="1.43384">
        <ele>120.3</ele>
        <time>2022-08-10T10:09:08Z</time>
      </trkpt>
      <trkpt lat="44.44512" lon="1.43385">
        <ele>120.2</ele>
        <time>2022-08-10T10:09:10Z</time>
      </trkpt>
      <trkpt lat="44.44506" lon="1.43386">
        <ele>120.1</ele>
        <time>2022-08-10T10:09:12Z</time>
      </trkpt>
      <trkpt lat="44.445" lon="1.43388">
        <ele>120</ele>
        <time>2022-08-10T10:09:14Z</time>
      </trkpt>
      <trkpt lat="44.44492" lon="1.4339">
        <ele>120.1</ele>
        <time>2022-08-10T10:09:16Z</time>
      </trkpt>
      <trkpt lat="44.44485" lon="1.43392">
        <ele>120.3</ele>
        <time>2022-08-10T10:09:18Z</time>
      </trkpt>
      <trkpt lat="44.44477" lon="1.43394">
        <ele>120.4</ele>
        <time>2022-08-10T10:09:20Z</time>
      </trkpt>
      <trkpt lat="44.44469" lon="1.43395">
        <ele>120.5</ele>
        <time>2022-08-10T10:09:22Z</time>
      </trkpt>
      <trkpt lat="44.44461" lon="1.43397">
        <ele>120.7</ele>
        <time>2022-08-10T10:09:24Z</time>
      </trkpt>
      <trkpt lat="44.44454" lon="1.43399">
        <ele>120.9</ele>
        <time>2022-08-10T10:09:26Z</time>
      </trkpt>
      <trkpt lat="44.44447" lon="1.43401">
        <ele>121</ele>
        <time>2022-08-10T10:09:28Z</time>
      </trkpt>
      <trkpt lat="44.4444" lon="1.43403">
        <ele>121.2</ele>
        <time>2022-08-10T10:09:30Z</time>
      </trkpt>
      <trkpt lat="44.44433" lon="1.43404">
        <ele>121.4</ele>
        <time>2022-08-10T10:09:32Z</time>
      </trkpt>
      <trkpt lat="44.44426" lon="1.43407">
        <ele>121.6</ele>
        <time>2022-08-10T10:09:34Z</time>
      </trkpt>
      <trkpt lat="44.44417" lon="1.43409">
        <ele>121.8</ele>
        <time>2022-08-10T10:09:36Z</time>
      </trkpt>
      <trkpt lat="44.44412" lon="1.43411">
        <ele>121.7</ele>
        <time>2022-08-10T10:09:38Z</time>
      </trkpt>
      <trkpt lat="44.44407" lon="1.4341">
        <ele>121.5</ele>
        <time>2022-08-10T10:09:40Z</time>
      </trkpt>
      <trkpt lat="44.44405" lon="1.43402">
        <ele>121.2</ele>
        <time>2022-08-10T10:09:42Z</time>
      </trkpt>
      <trkpt lat="44.44405" lon="1.43396">
        <ele>121.1</ele>
        <time>2022-08-10T10:09:44Z</time>
      </trkpt>
      <trkpt lat="44.44403" lon="1.43385">
        <ele>120.7</ele>
        <time>2022-08-10T10:09:46Z</time>
      </trkpt>
      <trkpt lat="44.44401" lon="1.43376">
        <ele>120.4</ele>
        <time>2022-08-10T10:09:48Z</time>
      </trkpt>
      <trkpt lat="44.44399" lon="1.43367">
        <ele>120.1</ele>
        <time>2022-08-10T10:09:50Z</time>
      </trkpt>
      <trkpt lat="44.44398" lon="1.43359">
        <ele>119.8</ele>
        <time>2022-08-10T10:09:52Z</time>
      </trkpt>
      <trkpt lat="44.44397" lon="1.43352">
        <ele>119.6</ele>
        <time>2022-08-10T10:09:54Z</time>
      </trkpt>
      <trkpt lat="44.44395" lon="1.43345">
        <ele>119.3</ele>
        <time>2022-08-10T10:09:56Z</time>
      </trkpt>
      <trkpt lat="44.44393" lon="1.43339">
        <ele>119</ele>
        <time>2022-08-10T10:09:58Z</time>
      </trkpt>
      <trkpt lat="44.44393" lon="1.43334">
        <ele>118.9</ele>
        <time>2022-08-10T10:10:00Z</time>
      </trkpt>
      <trkpt lat="44.44394" lon="1.43327">
        <ele>118.6</ele>
        <time>2022-08-10T10:10:02Z</time>
      </trkpt>
      <trkpt lat="44.44397" lon="1.43319">
        <ele>118.3</ele>
        <time>2022-08-10T10:10:04Z</time>
      </trkpt>
      <trkpt lat="44.44401" lon="1.43313">
        <ele>118.2</ele>
        <time>2022-08-10T10:10:06Z</time>
      </trkpt>
      <trkpt lat="44.44407" lon="1.4331">
        <ele>118.3</ele>
        <time>2022-08-10T10:10:08Z</time>
      </trkpt>
      <trkpt lat="44.44412" lon="1.43307">
        <ele>118.2</ele>
        <time>2022-08-10T10:10:10Z</time>
      </trkpt>
      <trkpt lat="44.44417" lon="1.43303">
        <ele>118.2</ele>
        <time>2022-08-10T10:10:12Z</time>
      </trkpt>
      <trkpt lat="44.44422" lon="1.433">
        <ele>118</ele>
        <time>2022-08-10T10:10:14Z</time>
      </trkpt>
      <trkpt lat="44.44428" lon="1.43296">
        <ele>117.8</ele>
        <time>2022-08-10T10:10:16Z</time>
      </trkpt>
      <trkpt lat="44.44433" lon="1.43293">
        <ele>117.6</ele>
        <time>2022-08-10T10:10:18Z</time>
      </trkpt>
      <trkpt lat="44.44438" lon="1.4329">
        <ele>117.4</ele>
        <time>2022-08-10T10:10:20Z</time>
      </trkpt>
      <trkpt lat="44.44443" lon="1.43288">
        <ele>117.3</ele>
        <time>2022-08-10T10:10:22Z</time>
      </trkpt>
      <trkpt lat="44.44448" lon="1.43288">
        <ele>117.3</ele>
        <time>2022-08-10T10:10:24Z</time>
      </trkpt>
      <trkpt lat="44.44452" lon="1.43285">
        <ele>117.1</ele>
        <time>2022-08-10T10:10:26Z</time>
      </trkpt>
      <trkpt lat="44.44454" lon="1.4328">
        <ele>116.8</ele>
        <time>2022-08-10T10:10:28Z</time>
      </trkpt>
      <trkpt lat="44.44453" lon="1.43274">
        <ele>116.4</ele>
        <time>2022-08-10T10:10:30Z</time>
      </trkpt>
      <trkpt lat="44.44457" lon="1.43272">
        <ele>116.3</ele>
        <time>2022-08-10T10:10:32Z</time>
      </trkpt>
      <trkpt lat="44.4446" lon="1.43274">
        <ele>116.4</ele>
        <time>2022-08-10T10:10:34Z</time>
      </trkpt>
      <trkpt lat="44.44462" lon="1.43275">
        <ele>116.5</ele>
        <time>2022-08-10T10:10:36Z</time>
      </trkpt>
      <trkpt lat="44.44464" lon="1.43273">
        <ele>116.4</ele>
        <time>2022-08-10T10:10:38Z</time>
      </trkpt>
      <trkpt lat="44.44467" lon="1.43273">
        <ele>116.4</ele>
        <time>2022-08-10T10:10:40Z</time>
      </trkpt>
      <trkpt lat="44.44469" lon="1.43274">
        <ele>116.4</ele>
        <time>2022-08-10T10:10:42Z</time>
      </trkpt>
      <trkpt lat="44.44471" lon="1.43274">
        <ele>116.5</ele>
        <time>2022-08-10T10:10:44Z</time>
      </trkpt>
      <trkpt lat="44.4447" lon="1.43275">
        <ele>116.5</ele>
        <time>2022-08-10T10:10:46Z</time>
      </trkpt>
      <trkpt lat="44.44471" lon="1.43275">
        <ele>116.5</ele>
        <time>2022-08-10T10:10:48Z</time>
      </trkpt>
      <trkpt lat="44.44471" lon="1.43275">
        <ele>116.5</ele>
        <time>2022-08-10T10:10:52Z</time>
      </trkpt>
      <trkpt lat="44.44486" lon="1.43262">
        <ele>115.7</ele>
        <time>2022-08-10T10:16:18Z</time>
      </trkpt>
      <trkpt lat="44.44489" lon="1.43264">
        <ele>115.8</ele>
        <time>2022-08-10T10:16:20Z</time>
      </trkpt>
      <trkpt lat="44.44493" lon="1.43264">
        <ele>115.8</ele>
        <time>2022-08-10T10:16:22Z</time>
      </trkpt>
      <trkpt lat="44.44497" lon="1.43265">
        <ele>115.9</ele>
        <time>2022-08-10T10:16:24Z</time>
      </trkpt>
      <trkpt lat="44.445" lon="1.43267">
        <ele>116</ele>
        <time>2022-08-10T10:16:26Z</time>
      </trkpt>
      <trkpt lat="44.44504" lon="1.43267">
        <ele>116.2</ele>
        <time>2022-08-10T10:16:28Z</time>
      </trkpt>
      <trkpt lat="44.44507" lon="1.43272">
        <ele>116.5</ele>
        <time>2022-08-10T10:16:30Z</time>
      </trkpt>
      <trkpt lat="44.44509" lon="1.43276">
        <ele>116.9</ele>
        <time>2022-08-10T10:16:32Z</time>
      </trkpt>
      <trkpt lat="44.44512" lon="1.4328">
        <ele>117.2</ele>
        <time>2022-08-10T10:16:34Z</time>
      </trkpt>
      <trkpt lat="44.44514" lon="1.43283">
        <ele>117.4</ele>
        <time>2022-08-10T10:16:36Z</time>
      </trkpt>
      <trkpt lat="44.44516" lon="1.43287">
        <ele>117.7</ele>
        <time>2022-08-10T10:16:38Z</time>
      </trkpt>
      <trkpt lat="44.44517" lon="1.43291">
        <ele>117.9</ele>
        <time>2022-08-10T10:16:40Z</time>
      </trkpt>
      <trkpt lat="44.44519" lon="1.43293">
        <ele>118</ele>
        <time>2022-08-10T10:16:42Z</time>
      </trkpt>
      <trkpt lat="44.44521" lon="1.43294">
        <ele>118.1</ele>
        <time>2022-08-10T10:16:44Z</time>
      </trkpt>
      <trkpt lat="44.44522" lon="1.433">
        <ele>118.4</ele>
        <time>2022-08-10T10:16:46Z</time>
      </trkpt>
      <trkpt lat="44.44524" lon="1.43305">
        <ele>118.7</ele>
        <time>2022-08-10T10:16:48Z</time>
      </trkpt>
      <trkpt lat="44.44523" lon="1.4331">
        <ele>118.9</ele>
        <time>2022-08-10T10:16:50Z</time>
      </trkpt>
      <trkpt lat="44.44523" lon="1.43315">
        <ele>119.1</ele>
        <time>2022-08-10T10:16:52Z</time>
      </trkpt>
      <trkpt lat="44.44525" lon="1.4332">
        <ele>119.4</ele>
        <time>2022-08-10T10:16:54Z</time>
      </trkpt>
      <trkpt lat="44.44527" lon="1.43322">
        <ele>119.5</ele>
        <time>2022-08-10T10:16:56Z</time>
      </trkpt>
      <trkpt lat="44.4453" lon="1.43323">
        <ele>119.6</ele>
        <time>2022-08-10T10:16:58Z</time>
      </trkpt>
      <trkpt lat="44.44533" lon="1.43324">
        <ele>119.6</ele>
        <time>2022-08-10T10:17:00Z</time>
      </trkpt>
      <trkpt lat="44.44534" lon="1.43324">
        <ele>119.6</ele>
        <time>2022-08-10T10:17:02Z</time>
      </trkpt>
      <trkpt lat="44.44534" lon="1.43324">
        <ele>119.6</ele>
        <time>2022-08-10T10:17:04Z</time>
      </trkpt>
      <trkpt lat="44.44534" lon="1.43324">
        <ele>119.6</ele>
        <time>2022-08-10T10:17:08Z</time>
      </trkpt>
      <trkpt lat="44.44532" lon="1.43291">
        <ele>118.2</ele>
        <time>2022-08-10T10:18:52Z</time>
      </trkpt>
      <trkpt lat="44.44532" lon="1.43286">
        <ele>118</ele>
        <time>2022-08-10T10:18:54Z</time>
      </trkpt>
      <trkpt lat="44.44532" lon="1.43282">
        <ele>117.9</ele>
        <time>2022-08-10T10:18:56Z</time>
      </trkpt>
      <trkpt lat="44.44532" lon="1.43278">
        <ele>117.7</ele>
        <time>2022-08-10T10:18:58Z</time>
      </trkpt>
      <trkpt lat="44.44531" lon="1.43274">
        <ele>117.5</ele>
        <time>2022-08-10T10:19:00Z</time>
      </trkpt>
      <trkpt lat="44.4453" lon="1.4327">
        <ele>117.3</ele>
        <time>2022-08-10T10:19:02Z</time>
      </trkpt>
      <trkpt lat="44.44529" lon="1.43265">
        <ele>117.1</ele>
        <time>2022-08-10T10:19:04Z</time>
      </trkpt>
      <trkpt lat="44.44529" lon="1.43262">
        <ele>116.9</ele>
        <time>2022-08-10T10:19:06Z</time>
      </trkpt>
      <trkpt lat="44.44528" lon="1.43259">
        <ele>116.8</ele>
        <time>2022-08-10T10:19:08Z</time>
      </trkpt>
      <trkpt lat="44.44528" lon="1.43257">
        <ele>116.7</ele>
        <time>2022-08-10T10:19:10Z</time>
      </trkpt>
      <trkpt lat="44.44527" lon="1.43253">
        <ele>116.4</ele>
        <time>2022-08-10T10:19:12Z</time>
      </trkpt>
      <trkpt lat="44.44526" lon="1.4325">
        <ele>116.3</ele>
        <time>2022-08-10T10:19:14Z</time>
      </trkpt>
      <trkpt lat="44.44525" lon="1.43247">
        <ele>116.1</ele>
        <time>2022-08-10T10:19:16Z</time>
      </trkpt>
      <trkpt lat="44.44525" lon="1.43244">
        <ele>116</ele>
        <time>2022-08-10T10:19:18Z</time>
      </trkpt>
      <trkpt lat="44.44526" lon="1.43244">
        <ele>116</ele>
        <time>2022-08-10T10:19:20Z</time>
      </trkpt>
      <trkpt lat="44.44526" lon="1.43245">
        <ele>116.1</ele>
        <time>2022-08-10T10:19:22Z</time>
      </trkpt>
      <trkpt lat="44.44526" lon="1.43245">
        <ele>116.1</ele>
        <time>2022-08-10T10:19:26Z</time>
      </trkpt>
      <trkpt lat="44.44522" lon="1.43231">
        <ele>115.5</ele>
        <time>2022-08-10T10:20:06Z</time>
      </trkpt>
      <trkpt lat="44.44522" lon="1.43227">
        <ele>115.3</ele>
        <time>2022-08-10T10:20:08Z</time>
      </trkpt>
      <trkpt lat="44.44521" lon="1.43222">
        <ele>115.2</ele>
        <time>2022-08-10T10:20:10Z</time>
      </trkpt>
      <trkpt lat="44.4452" lon="1.43218">
        <ele>115</ele>
        <time>2022-08-10T10:20:12Z</time>
      </trkpt>
      <trkpt lat="44.44519" lon="1.43215">
        <ele>114.9</ele>
        <time>2022-08-10T10:20:14Z</time>
      </trkpt>
      <trkpt lat="44.44518" lon="1.43211">
        <ele>114.7</ele>
        <time>2022-08-10T10:20:16Z</time>
      </trkpt>
      <trkpt lat="44.44518" lon="1.43208">
        <ele>114.6</ele>
        <time>2022-08-10T10:20:18Z</time>
      </trkpt>
      <trkpt lat="44.44517" lon="1.43204">
        <ele>114.5</ele>
        <time>2022-08-10T10:20:20Z</time>
      </trkpt>
      <trkpt lat="44.44515" lon="1.432">
        <ele>114.3</ele>
        <time>2022-08-10T10:20:22Z</time>
      </trkpt>
      <trkpt lat="44.44515" lon="1.43197">
        <ele>114.2</ele>
        <time>2022-08-10T10:20:24Z</time>
      </trkpt>
      <trkpt lat="44.44514" lon="1.43192">
        <ele>114.1</ele>
        <time>2022-08-10T10:20:26Z</time>
      </trkpt>
      <trkpt lat="44.44513" lon="1.43188">
        <ele>113.9</ele>
        <time>2022-08-10T10:20:28Z</time>
      </trkpt>
      <trkpt lat="44.44512" lon="1.43185">
        <ele>113.8</ele>
        <time>2022-08-10T10:20:30Z</time>
      </trkpt>
      <trkpt lat="44.44511" lon="1.43181">
        <ele>113.7</ele>
        <time>2022-08-10T10:20:32Z</time>
      </trkpt>
      <trkpt lat="44.44511" lon="1.43177">
        <ele>113.5</ele>
        <time>2022-08-10T10:20:34Z</time>
      </trkpt>
      <trkpt lat="44.44509" lon="1.43174">
        <ele>113.4</ele>
        <time>2022-08-10T10:20:36Z</time>
      </trkpt>
      <trkpt lat="44.44509" lon="1.43173">
        <ele>113.4</ele>
        <time>2022-08-10T10:20:38Z</time>
      </trkpt>
      <trkpt lat="44.44508" lon="1.43168">
        <ele>113.2</ele>
        <time>2022-08-10T10:20:40Z</time>
      </trkpt>
      <trkpt lat="44.44507" lon="1.43164">
        <ele>113.4</ele>
        <time>2022-08-10T10:20:42Z</time>
      </trkpt>
      <trkpt lat="44.44506" lon="1.43161">
        <ele>113.7</ele>
        <time>2022-08-10T10:20:44Z</time>
      </trkpt>
      <trkpt lat="44.44505" lon="1.43156">
        <ele>114.1</ele>
        <time>2022-08-10T10:20:46Z</time>
      </trkpt>
      <trkpt lat="44.44503" lon="1.43151">
        <ele>114.7</ele>
        <time>2022-08-10T10:20:48Z</time>
      </trkpt>
      <trkpt lat="44.44502" lon="1.43144">
        <ele>115.4</ele>
        <time>2022-08-10T10:20:50Z</time>
      </trkpt>
      <trkpt lat="44.445" lon="1.43139">
        <ele>116</ele>
        <time>2022-08-10T10:20:52Z</time>
      </trkpt>
      <trkpt lat="44.44499" lon="1.43133">
        <ele>116.8</ele>
        <time>2022-08-10T10:20:54Z</time>
      </trkpt>
      <trkpt lat="44.44498" lon="1.43126">
        <ele>117.7</ele>
        <time>2022-08-10T10:20:56Z</time>
      </trkpt>
      <trkpt lat="44.44497" lon="1.4312">
        <ele>118.9</ele>
        <time>2022-08-10T10:20:58Z</time>
      </trkpt>
      <trkpt lat="44.44495" lon="1.43114">
        <ele>120.1</ele>
        <time>2022-08-10T10:21:00Z</time>
      </trkpt>
      <trkpt lat="44.44494" lon="1.43108">
        <ele>121.4</ele>
        <time>2022-08-10T10:21:02Z</time>
      </trkpt>
      <trkpt lat="44.44492" lon="1.43101">
        <ele>122.9</ele>
        <time>2022-08-10T10:21:04Z</time>
      </trkpt>
      <trkpt lat="44.44491" lon="1.43094">
        <ele>124.6</ele>
        <time>2022-08-10T10:21:06Z</time>
      </trkpt>
      <trkpt lat="44.44489" lon="1.43087">
        <ele>126.3</ele>
        <time>2022-08-10T10:21:08Z</time>
      </trkpt>
      <trkpt lat="44.44488" lon="1.43083">
        <ele>127.3</ele>
        <time>2022-08-10T10:21:10Z</time>
      </trkpt>
      <trkpt lat="44.44486" lon="1.43076">
        <ele>129.2</ele>
        <time>2022-08-10T10:21:12Z</time>
      </trkpt>
      <trkpt lat="44.44486" lon="1.43069">
        <ele>129.9</ele>
        <time>2022-08-10T10:21:14Z</time>
      </trkpt>
      <trkpt lat="44.44488" lon="1.43066">
        <ele>129.5</ele>
        <time>2022-08-10T10:21:16Z</time>
      </trkpt>
      <trkpt lat="44.44489" lon="1.43064">
        <ele>129.2</ele>
        <time>2022-08-10T10:21:18Z</time>
      </trkpt>
      <trkpt lat="44.44489" lon="1.43065">
        <ele>129.1</ele>
        <time>2022-08-10T10:21:20Z</time>
      </trkpt>
      <trkpt lat="44.44489" lon="1.43064">
        <ele>129.1</ele>
        <time>2022-08-10T10:21:22Z</time>
      </trkpt>
      <trkpt lat="44.44489" lon="1.43064">
        <ele>129.1</ele>
        <time>2022-08-10T10:21:26Z</time>
      </trkpt>
      <trkpt lat="44.4451" lon="1.43046">
        <ele>125.3</ele>
        <time>2022-08-10T10:23:34Z</time>
      </trkpt>
      <trkpt lat="44.44519" lon="1.43044">
        <ele>124</ele>
        <time>2022-08-10T10:23:36Z</time>
      </trkpt>
      <trkpt lat="44.44531" lon="1.43043">
        <ele>122.3</ele>
        <time>2022-08-10T10:23:38Z</time>
      </trkpt>
      <trkpt lat="44.44544" lon="1.4304">
        <ele>120.5</ele>
        <time>2022-08-10T10:23:40Z</time>
      </trkpt>
      <trkpt lat="44.44558" lon="1.43038">
        <ele>118.5</ele>
        <time>2022-08-10T10:23:42Z</time>
      </trkpt>
      <trkpt lat="44.44572" lon="1.43035">
        <ele>116.4</ele>
        <time>2022-08-10T10:23:44Z</time>
      </trkpt>
      <trkpt lat="44.44588" lon="1.43032">
        <ele>115.1</ele>
        <time>2022-08-10T10:23:46Z</time>
      </trkpt>
      <trkpt lat="44.44601" lon="1.43028">
        <ele>115.7</ele>
        <time>2022-08-10T10:23:48Z</time>
      </trkpt>
      <trkpt lat="44.44613" lon="1.43022">
        <ele>116.5</ele>
        <time>2022-08-10T10:23:50Z</time>
      </trkpt>
      <trkpt lat="44.4462" lon="1.43015">
        <ele>117.4</ele>
        <time>2022-08-10T10:23:52Z</time>
      </trkpt>
      <trkpt lat="44.44625" lon="1.43006">
        <ele>118.4</ele>
        <time>2022-08-10T10:23:54Z</time>
      </trkpt>
      <trkpt lat="44.44627" lon="1.43006">
        <ele>118.5</ele>
        <time>2022-08-10T10:23:56Z</time>
      </trkpt>
      <trkpt lat="44.44627" lon="1.43006">
        <ele>118.4</ele>
        <time>2022-08-10T10:23:58Z</time>
      </trkpt>
      <trkpt lat="44.44627" lon="1.43006">
        <ele>118.4</ele>
        <time>2022-08-10T10:24:00Z</time>
      </trkpt>
      <trkpt lat="44.4463" lon="1.43004">
        <ele>118.7</ele>
        <time>2022-08-10T10:24:02Z</time>
      </trkpt>
      <trkpt lat="44.44634" lon="1.43003">
        <ele>118.9</ele>
        <time>2022-08-10T10:24:04Z</time>
      </trkpt>
      <trkpt lat="44.4464" lon="1.43004">
        <ele>119</ele>
        <time>2022-08-10T10:24:06Z</time>
      </trkpt>
      <trkpt lat="44.44644" lon="1.43006">
        <ele>118.9</ele>
        <time>2022-08-10T10:24:08Z</time>
      </trkpt>
      <trkpt lat="44.44647" lon="1.43005">
        <ele>119</ele>
        <time>2022-08-10T10:24:10Z</time>
      </trkpt>
      <trkpt lat="44.44647" lon="1.43005">
        <ele>119</ele>
        <time>2022-08-10T10:24:12Z</time>
      </trkpt>
      <trkpt lat="44.44646" lon="1.43004">
        <ele>119.1</ele>
        <time>2022-08-10T10:24:14Z</time>
      </trkpt>
      <trkpt lat="44.44646" lon="1.43004">
        <ele>119.1</ele>
        <time>2022-08-10T10:24:16Z</time>
      </trkpt>
      <trkpt lat="44.44646" lon="1.43003">
        <ele>119.2</ele>
        <time>2022-08-10T10:24:18Z</time>
      </trkpt>
      <trkpt lat="44.44646" lon="1.43003">
        <ele>119.2</ele>
        <time>2022-08-10T10:24:20Z</time>
      </trkpt>
      <trkpt lat="44.44665" lon="1.42991">
        <ele>122.1</ele>
        <time>2022-08-10T10:24:34Z</time>
      </trkpt>
      <trkpt lat="44.44671" lon="1.42987">
        <ele>122.9</ele>
        <time>2022-08-10T10:24:36Z</time>
      </trkpt>
      <trkpt lat="44.44675" lon="1.42986">
        <ele>123.1</ele>
        <time>2022-08-10T10:24:38Z</time>
      </trkpt>
      <trkpt lat="44.4468" lon="1.42982">
        <ele>123.7</ele>
        <time>2022-08-10T10:24:40Z</time>
      </trkpt>
      <trkpt lat="44.44687" lon="1.42979">
        <ele>124</ele>
        <time>2022-08-10T10:24:42Z</time>
      </trkpt>
      <trkpt lat="44.44694" lon="1.42977">
        <ele>124.1</ele>
        <time>2022-08-10T10:24:44Z</time>
      </trkpt>
      <trkpt lat="44.44701" lon="1.42972">
        <ele>124.7</ele>
        <time>2022-08-10T10:24:46Z</time>
      </trkpt>
      <trkpt lat="44.44708" lon="1.42969">
        <ele>125</ele>
        <time>2022-08-10T10:24:48Z</time>
      </trkpt>
      <trkpt lat="44.44716" lon="1.42966">
        <ele>124.9</ele>
        <time>2022-08-10T10:24:50Z</time>
      </trkpt>
      <trkpt lat="44.44724" lon="1.42962">
        <ele>125.2</ele>
        <time>2022-08-10T10:24:52Z</time>
      </trkpt>
      <trkpt lat="44.44732" lon="1.4296">
        <ele>125.1</ele>
        <time>2022-08-10T10:24:54Z</time>
      </trkpt>
      <trkpt lat="44.4474" lon="1.42956">
        <ele>125.3</ele>
        <time>2022-08-10T10:24:56Z</time>
      </trkpt>
      <trkpt lat="44.44748" lon="1.42953">
        <ele>125.2</ele>
        <time>2022-08-10T10:24:58Z</time>
      </trkpt>
      <trkpt lat="44.44757" lon="1.4295">
        <ele>125.3</ele>
        <time>2022-08-10T10:25:00Z</time>
      </trkpt>
      <trkpt lat="44.44765" lon="1.42947">
        <ele>125.2</ele>
        <time>2022-08-10T10:25:02Z</time>
      </trkpt>
      <trkpt lat="44.44774" lon="1.42943">
        <ele>125.2</ele>
        <time>2022-08-10T10:25:04Z</time>
      </trkpt>
      <trkpt lat="44.44784" lon="1.42939">
        <ele>125.2</ele>
        <time>2022-08-10T10:25:06Z</time>
      </trkpt>
      <trkpt lat="44.44793" lon="1.42935">
        <ele>125.1</ele>
        <time>2022-08-10T10:25:08Z</time>
      </trkpt>
      <trkpt lat="44.44803" lon="1.42932">
        <ele>124.7</ele>
        <time>2022-08-10T10:25:10Z</time>
      </trkpt>
      <trkpt lat="44.44813" lon="1.42929">
        <ele>124.4</ele>
        <time>2022-08-10T10:25:12Z</time>
      </trkpt>
      <trkpt lat="44.44824" lon="1.42924">
        <ele>124</ele>
        <time>2022-08-10T10:25:14Z</time>
      </trkpt>
      <trkpt lat="44.44833" lon="1.42921">
        <ele>123.6</ele>
        <time>2022-08-10T10:25:16Z</time>
      </trkpt>
      <trkpt lat="44.44843" lon="1.42917">
        <ele>123.5</ele>
        <time>2022-08-10T10:25:18Z</time>
      </trkpt>
      <trkpt lat="44.44852" lon="1.42912">
        <ele>124.3</ele>
        <time>2022-08-10T10:25:20Z</time>
      </trkpt>
      <trkpt lat="44.44862" lon="1.42909">
        <ele>124.8</ele>
        <time>2022-08-10T10:25:22Z</time>
      </trkpt>
      <trkpt lat="44.44871" lon="1.42904">
        <ele>125.9</ele>
        <time>2022-08-10T10:25:24Z</time>
      </trkpt>
      <trkpt lat="44.44881" lon="1.429">
        <ele>126.4</ele>
        <time>2022-08-10T10:25:26Z</time>
      </trkpt>
      <trkpt lat="44.4489" lon="1.42896">
        <ele>127.1</ele>
        <time>2022-08-10T10:25:28Z</time>
      </trkpt>
      <trkpt lat="44.44899" lon="1.42893">
        <ele>127.6</ele>
        <time>2022-08-10T10:25:30Z</time>
      </trkpt>
      <trkpt lat="44.44908" lon="1.42889">
        <ele>128.2</ele>
        <time>2022-08-10T10:25:32Z</time>
      </trkpt>
      <trkpt lat="44.44918" lon="1.42887">
        <ele>128.1</ele>
        <time>2022-08-10T10:25:34Z</time>
      </trkpt>
      <trkpt lat="44.44925" lon="1.4288">
        <ele>129.1</ele>
        <time>2022-08-10T10:25:36Z</time>
      </trkpt>
      <trkpt lat="44.44932" lon="1.42877">
        <ele>129.2</ele>
        <time>2022-08-10T10:25:38Z</time>
      </trkpt>
      <trkpt lat="44.44941" lon="1.42872">
        <ele>129.4</ele>
        <time>2022-08-10T10:25:40Z</time>
      </trkpt>
      <trkpt lat="44.44948" lon="1.42869">
        <ele>129.5</ele>
        <time>2022-08-10T10:25:42Z</time>
      </trkpt>
      <trkpt lat="44.44955" lon="1.42864">
        <ele>129.6</ele>
        <time>2022-08-10T10:25:44Z</time>
      </trkpt>
      <trkpt lat="44.44961" lon="1.42861">
        <ele>129.7</ele>
        <time>2022-08-10T10:25:46Z</time>
      </trkpt>
      <trkpt lat="44.44969" lon="1.42856">
        <ele>129.7</ele>
        <time>2022-08-10T10:25:48Z</time>
      </trkpt>
      <trkpt lat="44.44977" lon="1.42854">
        <ele>129.1</ele>
        <time>2022-08-10T10:25:50Z</time>
      </trkpt>
      <trkpt lat="44.44984" lon="1.42851">
        <ele>128.9</ele>
        <time>2022-08-10T10:25:52Z</time>
      </trkpt>
      <trkpt lat="44.44991" lon="1.42848">
        <ele>128.6</ele>
        <time>2022-08-10T10:25:54Z</time>
      </trkpt>
      <trkpt lat="44.44998" lon="1.42844">
        <ele>128.2</ele>
        <time>2022-08-10T10:25:56Z</time>
      </trkpt>
      <trkpt lat="44.45003" lon="1.42842">
        <ele>128</ele>
        <time>2022-08-10T10:25:58Z</time>
      </trkpt>
      <trkpt lat="44.45011" lon="1.42839">
        <ele>127.7</ele>
        <time>2022-08-10T10:26:00Z</time>
      </trkpt>
      <trkpt lat="44.45019" lon="1.42834">
        <ele>127.5</ele>
        <time>2022-08-10T10:26:02Z</time>
      </trkpt>
      <trkpt lat="44.45027" lon="1.42833">
        <ele>127</ele>
        <time>2022-08-10T10:26:04Z</time>
      </trkpt>
      <trkpt lat="44.45035" lon="1.42829">
        <ele>127.6</ele>
        <time>2022-08-10T10:26:06Z</time>
      </trkpt>
      <trkpt lat="44.45043" lon="1.42827">
        <ele>127.4</ele>
        <time>2022-08-10T10:26:08Z</time>
      </trkpt>
      <trkpt lat="44.4505" lon="1.42824">
        <ele>127.9</ele>
        <time>2022-08-10T10:26:10Z</time>
      </trkpt>
      <trkpt lat="44.45058" lon="1.42821">
        <ele>127.9</ele>
        <time>2022-08-10T10:26:12Z</time>
      </trkpt>
      <trkpt lat="44.45066" lon="1.42818">
        <ele>127.9</ele>
        <time>2022-08-10T10:26:14Z</time>
      </trkpt>
      <trkpt lat="44.45074" lon="1.42815">
        <ele>127.8</ele>
        <time>2022-08-10T10:26:16Z</time>
      </trkpt>
      <trkpt lat="44.45082" lon="1.42812">
        <ele>127.7</ele>
        <time>2022-08-10T10:26:18Z</time>
      </trkpt>
      <trkpt lat="44.4509" lon="1.42809">
        <ele>128.1</ele>
        <time>2022-08-10T10:26:20Z</time>
      </trkpt>
      <trkpt lat="44.45099" lon="1.42806">
        <ele>128.4</ele>
        <time>2022-08-10T10:26:22Z</time>
      </trkpt>
      <trkpt lat="44.45108" lon="1.42803">
        <ele>128.7</ele>
        <time>2022-08-10T10:26:24Z</time>
      </trkpt>
      <trkpt lat="44.45117" lon="1.42799">
        <ele>128.7</ele>
        <time>2022-08-10T10:26:26Z</time>
      </trkpt>
      <trkpt lat="44.45126" lon="1.42796">
        <ele>128.7</ele>
        <time>2022-08-10T10:26:28Z</time>
      </trkpt>
      <trkpt lat="44.45135" lon="1.42793">
        <ele>128.6</ele>
        <time>2022-08-10T10:26:30Z</time>
      </trkpt>
      <trkpt lat="44.45145" lon="1.42792">
        <ele>128</ele>
        <time>2022-08-10T10:26:32Z</time>
      </trkpt>
      <trkpt lat="44.45154" lon="1.42789">
        <ele>127.5</ele>
        <time>2022-08-10T10:26:34Z</time>
      </trkpt>
      <trkpt lat="44.45164" lon="1.42786">
        <ele>127.2</ele>
        <time>2022-08-10T10:26:36Z</time>
      </trkpt>
      <trkpt lat="44.45174" lon="1.42784">
        <ele>126.9</ele>
        <time>2022-08-10T10:26:38Z</time>
      </trkpt>
      <trkpt lat="44.45184" lon="1.42782">
        <ele>126.7</ele>
        <time>2022-08-10T10:26:40Z</time>
      </trkpt>
      <trkpt lat="44.45194" lon="1.42778">
        <ele>126.8</ele>
        <time>2022-08-10T10:26:42Z</time>
      </trkpt>
      <trkpt lat="44.45204" lon="1.42776">
        <ele>126.5</ele>
        <time>2022-08-10T10:26:44Z</time>
      </trkpt>
      <trkpt lat="44.45214" lon="1.42773">
        <ele>126.3</ele>
        <time>2022-08-10T10:26:46Z</time>
      </trkpt>
      <trkpt lat="44.45225" lon="1.42771">
        <ele>125.8</ele>
        <time>2022-08-10T10:26:48Z</time>
      </trkpt>
      <trkpt lat="44.45237" lon="1.42768">
        <ele>125.4</ele>
        <time>2022-08-10T10:26:50Z</time>
      </trkpt>
      <trkpt lat="44.45248" lon="1.42765">
        <ele>124.9</ele>
        <time>2022-08-10T10:26:52Z</time>
      </trkpt>
      <trkpt lat="44.45259" lon="1.42764">
        <ele>124.5</ele>
        <time>2022-08-10T10:26:54Z</time>
      </trkpt>
      <trkpt lat="44.45271" lon="1.4276">
        <ele>124.4</ele>
        <time>2022-08-10T10:26:56Z</time>
      </trkpt>
      <trkpt lat="44.45282" lon="1.42757">
        <ele>124.2</ele>
        <time>2022-08-10T10:26:58Z</time>
      </trkpt>
      <trkpt lat="44.45293" lon="1.42754">
        <ele>124</ele>
        <time>2022-08-10T10:27:00Z</time>
      </trkpt>
      <trkpt lat="44.45303" lon="1.42752">
        <ele>123.6</ele>
        <time>2022-08-10T10:27:02Z</time>
      </trkpt>
      <trkpt lat="44.45313" lon="1.42751">
        <ele>123.2</ele>
        <time>2022-08-10T10:27:04Z</time>
      </trkpt>
      <trkpt lat="44.45323" lon="1.42753">
        <ele>122.3</ele>
        <time>2022-08-10T10:27:06Z</time>
      </trkpt>
      <trkpt lat="44.45331" lon="1.42761">
        <ele>121</ele>
        <time>2022-08-10T10:27:08Z</time>
      </trkpt>
      <trkpt lat="44.4534" lon="1.42767">
        <ele>120.2</ele>
        <time>2022-08-10T10:27:10Z</time>
      </trkpt>
      <trkpt lat="44.45349" lon="1.42761">
        <ele>120.5</ele>
        <time>2022-08-10T10:27:12Z</time>
      </trkpt>
      <trkpt lat="44.45355" lon="1.4275">
        <ele>121.5</ele>
        <time>2022-08-10T10:27:14Z</time>
      </trkpt>
      <trkpt lat="44.45359" lon="1.42738">
        <ele>122.8</ele>
        <time>2022-08-10T10:27:16Z</time>
      </trkpt>
      <trkpt lat="44.45366" lon="1.42729">
        <ele>123.5</ele>
        <time>2022-08-10T10:27:18Z</time>
      </trkpt>
      <trkpt lat="44.45375" lon="1.42725">
        <ele>123.6</ele>
        <time>2022-08-10T10:27:20Z</time>
      </trkpt>
      <trkpt lat="44.45384" lon="1.4272">
        <ele>123.7</ele>
        <time>2022-08-10T10:27:22Z</time>
      </trkpt>
      <trkpt lat="44.45392" lon="1.42715">
        <ele>123.8</ele>
        <time>2022-08-10T10:27:24Z</time>
      </trkpt>
      <trkpt lat="44.454" lon="1.4271">
        <ele>123.8</ele>
        <time>2022-08-10T10:27:26Z</time>
      </trkpt>
      <trkpt lat="44.45407" lon="1.42705">
        <ele>123.7</ele>
        <time>2022-08-10T10:27:28Z</time>
      </trkpt>
      <trkpt lat="44.45415" lon="1.42701">
        <ele>123.6</ele>
        <time>2022-08-10T10:27:30Z</time>
      </trkpt>
      <trkpt lat="44.45422" lon="1.42698">
        <ele>123.7</ele>
        <time>2022-08-10T10:27:32Z</time>
      </trkpt>
      <trkpt lat="44.4543" lon="1.42694">
        <ele>123.9</ele>
        <time>2022-08-10T10:27:34Z</time>
      </trkpt>
      <trkpt lat="44.45436" lon="1.42691">
        <ele>124.1</ele>
        <time>2022-08-10T10:27:36Z</time>
      </trkpt>
      <trkpt lat="44.45444" lon="1.42688">
        <ele>124.2</ele>
        <time>2022-08-10T10:27:38Z</time>
      </trkpt>
      <trkpt lat="44.45451" lon="1.42684">
        <ele>124.4</ele>
        <time>2022-08-10T10:27:40Z</time>
      </trkpt>
      <trkpt lat="44.45457" lon="1.4268">
        <ele>124.7</ele>
        <time>2022-08-10T10:27:42Z</time>
      </trkpt>
      <trkpt lat="44.45465" lon="1.42677">
        <ele>124.8</ele>
        <time>2022-08-10T10:27:44Z</time>
      </trkpt>
      <trkpt lat="44.45472" lon="1.42672">
        <ele>125</ele>
        <time>2022-08-10T10:27:46Z</time>
      </trkpt>
      <trkpt lat="44.4548" lon="1.42668">
        <ele>125.1</ele>
        <time>2022-08-10T10:27:48Z</time>
      </trkpt>
      <trkpt lat="44.45487" lon="1.42664">
        <ele>125.3</ele>
        <time>2022-08-10T10:27:50Z</time>
      </trkpt>
      <trkpt lat="44.45495" lon="1.4266">
        <ele>125.3</ele>
        <time>2022-08-10T10:27:52Z</time>
      </trkpt>
      <trkpt lat="44.45501" lon="1.42655">
        <ele>125.4</ele>
        <time>2022-08-10T10:27:54Z</time>
      </trkpt>
      <trkpt lat="44.45508" lon="1.42651">
        <ele>125.3</ele>
        <time>2022-08-10T10:27:56Z</time>
      </trkpt>
      <trkpt lat="44.45516" lon="1.42647">
        <ele>125.3</ele>
        <time>2022-08-10T10:27:58Z</time>
      </trkpt>
      <trkpt lat="44.45524" lon="1.42644">
        <ele>125.2</ele>
        <time>2022-08-10T10:28:00Z</time>
      </trkpt>
      <trkpt lat="44.45532" lon="1.4264">
        <ele>125.1</ele>
        <time>2022-08-10T10:28:02Z</time>
      </trkpt>
      <trkpt lat="44.45542" lon="1.42636">
        <ele>124.9</ele>
        <time>2022-08-10T10:28:04Z</time>
      </trkpt>
      <trkpt lat="44.45551" lon="1.42632">
        <ele>124.8</ele>
        <time>2022-08-10T10:28:06Z</time>
      </trkpt>
      <trkpt lat="44.45561" lon="1.42627">
        <ele>124.6</ele>
        <time>2022-08-10T10:28:08Z</time>
      </trkpt>
      <trkpt lat="44.45571" lon="1.42622">
        <ele>124.4</ele>
        <time>2022-08-10T10:28:10Z</time>
      </trkpt>
      <trkpt lat="44.45583" lon="1.42619">
        <ele>124.2</ele>
        <time>2022-08-10T10:28:12Z</time>
      </trkpt>
      <trkpt lat="44.45594" lon="1.42613">
        <ele>123.8</ele>
        <time>2022-08-10T10:28:14Z</time>
      </trkpt>
      <trkpt lat="44.45605" lon="1.42607">
        <ele>123.3</ele>
        <time>2022-08-10T10:28:16Z</time>
      </trkpt>
      <trkpt lat="44.45618" lon="1.42601">
        <ele>122.8</ele>
        <time>2022-08-10T10:28:18Z</time>
      </trkpt>
      <trkpt lat="44.45631" lon="1.42595">
        <ele>122.1</ele>
        <time>2022-08-10T10:28:20Z</time>
      </trkpt>
      <trkpt lat="44.45645" lon="1.42591">
        <ele>121.3</ele>
        <time>2022-08-10T10:28:22Z</time>
      </trkpt>
      <trkpt lat="44.45659" lon="1.42587">
        <ele>120.5</ele>
        <time>2022-08-10T10:28:24Z</time>
      </trkpt>
      <trkpt lat="44.45673" lon="1.42584">
        <ele>119.9</ele>
        <time>2022-08-10T10:28:26Z</time>
      </trkpt>
      <trkpt lat="44.45686" lon="1.42582">
        <ele>119.5</ele>
        <time>2022-08-10T10:28:28Z</time>
      </trkpt>
      <trkpt lat="44.457" lon="1.4258">
        <ele>119.2</ele>
        <time>2022-08-10T10:28:30Z</time>
      </trkpt>
      <trkpt lat="44.45713" lon="1.42578">
        <ele>118.9</ele>
        <time>2022-08-10T10:28:32Z</time>
      </trkpt>
      <trkpt lat="44.45726" lon="1.42575">
        <ele>118.6</ele>
        <time>2022-08-10T10:28:34Z</time>
      </trkpt>
      <trkpt lat="44.45738" lon="1.42573">
        <ele>118.4</ele>
        <time>2022-08-10T10:28:36Z</time>
      </trkpt>
      <trkpt lat="44.4575" lon="1.4257">
        <ele>118.2</ele>
        <time>2022-08-10T10:28:38Z</time>
      </trkpt>
      <trkpt lat="44.45761" lon="1.42566">
        <ele>118.1</ele>
        <time>2022-08-10T10:28:40Z</time>
      </trkpt>
      <trkpt lat="44.45772" lon="1.42562">
        <ele>118.1</ele>
        <time>2022-08-10T10:28:42Z</time>
      </trkpt>
      <trkpt lat="44.45783" lon="1.42559">
        <ele>118</ele>
        <time>2022-08-10T10:28:44Z</time>
      </trkpt>
      <trkpt lat="44.45793" lon="1.42553">
        <ele>118</ele>
        <time>2022-08-10T10:28:46Z</time>
      </trkpt>
      <trkpt lat="44.45802" lon="1.42546">
        <ele>118.1</ele>
        <time>2022-08-10T10:28:48Z</time>
      </trkpt>
      <trkpt lat="44.45812" lon="1.42539">
        <ele>118.2</ele>
        <time>2022-08-10T10:28:50Z</time>
      </trkpt>
      <trkpt lat="44.45821" lon="1.42532">
        <ele>118.3</ele>
        <time>2022-08-10T10:28:52Z</time>
      </trkpt>
      <trkpt lat="44.45829" lon="1.42525">
        <ele>118.4</ele>
        <time>2022-08-10T10:28:54Z</time>
      </trkpt>
      <trkpt lat="44.45838" lon="1.42518">
        <ele>118.5</ele>
        <time>2022-08-10T10:28:56Z</time>
      </trkpt>
      <trkpt lat="44.45845" lon="1.42511">
        <ele>118.6</ele>
        <time>2022-08-10T10:28:58Z</time>
      </trkpt>
      <trkpt lat="44.45853" lon="1.42505">
        <ele>118.7</ele>
        <time>2022-08-10T10:29:00Z</time>
      </trkpt>
      <trkpt lat="44.45862" lon="1.42498">
        <ele>118.7</ele>
        <time>2022-08-10T10:29:02Z</time>
      </trkpt>
      <trkpt lat="44.4587" lon="1.4249">
        <ele>118.6</ele>
        <time>2022-08-10T10:29:04Z</time>
      </trkpt>
      <trkpt lat="44.45878" lon="1.42482">
        <ele>118.5</ele>
        <time>2022-08-10T10:29:06Z</time>
      </trkpt>
      <trkpt lat="44.45887" lon="1.42473">
        <ele>118.4</ele>
        <time>2022-08-10T10:29:08Z</time>
      </trkpt>
      <trkpt lat="44.45895" lon="1.42464">
        <ele>118.3</ele>
        <time>2022-08-10T10:29:10Z</time>
      </trkpt>
      <trkpt lat="44.45903" lon="1.42456">
        <ele>118.2</ele>
        <time>2022-08-10T10:29:12Z</time>
      </trkpt>
      <trkpt lat="44.45911" lon="1.42447">
        <ele>118.1</ele>
        <time>2022-08-10T10:29:14Z</time>
      </trkpt>
      <trkpt lat="44.45919" lon="1.42438">
        <ele>118</ele>
        <time>2022-08-10T10:29:16Z</time>
      </trkpt>
      <trkpt lat="44.45928" lon="1.42429">
        <ele>117.8</ele>
        <time>2022-08-10T10:29:18Z</time>
      </trkpt>
      <trkpt lat="44.45937" lon="1.42421">
        <ele>117.5</ele>
        <time>2022-08-10T10:29:20Z</time>
      </trkpt>
      <trkpt lat="44.45946" lon="1.42414">
        <ele>117.3</ele>
        <time>2022-08-10T10:29:22Z</time>
      </trkpt>
      <trkpt lat="44.45956" lon="1.42409">
        <ele>116.9</ele>
        <time>2022-08-10T10:29:24Z</time>
      </trkpt>
      <trkpt lat="44.45966" lon="1.42403">
        <ele>116.7</ele>
        <time>2022-08-10T10:29:26Z</time>
      </trkpt>
      <trkpt lat="44.45976" lon="1.42398">
        <ele>116.4</ele>
        <time>2022-08-10T10:29:28Z</time>
      </trkpt>
      <trkpt lat="44.45985" lon="1.42397">
        <ele>116.3</ele>
        <time>2022-08-10T10:29:30Z</time>
      </trkpt>
      <trkpt lat="44.45993" lon="1.42403">
        <ele>116.1</ele>
        <time>2022-08-10T10:29:32Z</time>
      </trkpt>
      <trkpt lat="44.46002" lon="1.42405">
        <ele>116</ele>
        <time>2022-08-10T10:29:34Z</time>
      </trkpt>
      <trkpt lat="44.4601" lon="1.42401">
        <ele>115.9</ele>
        <time>2022-08-10T10:29:36Z</time>
      </trkpt>
      <trkpt lat="44.46015" lon="1.42391">
        <ele>115.8</ele>
        <time>2022-08-10T10:29:38Z</time>
      </trkpt>
      <trkpt lat="44.46018" lon="1.4238">
        <ele>115.8</ele>
        <time>2022-08-10T10:29:40Z</time>
      </trkpt>
      <trkpt lat="44.46023" lon="1.42369">
        <ele>115.7</ele>
        <time>2022-08-10T10:29:42Z</time>
      </trkpt>
      <trkpt lat="44.46031" lon="1.42362">
        <ele>115.6</ele>
        <time>2022-08-10T10:29:44Z</time>
      </trkpt>
      <trkpt lat="44.46039" lon="1.42355">
        <ele>115.5</ele>
        <time>2022-08-10T10:29:46Z</time>
      </trkpt>
      <trkpt lat="44.46048" lon="1.42348">
        <ele>115.4</ele>
        <time>2022-08-10T10:29:48Z</time>
      </trkpt>
      <trkpt lat="44.46056" lon="1.42341">
        <ele>115.3</ele>
        <time>2022-08-10T10:29:50Z</time>
      </trkpt>
      <trkpt lat="44.46065" lon="1.42334">
        <ele>115.2</ele>
        <time>2022-08-10T10:29:52Z</time>
      </trkpt>
      <trkpt lat="44.46073" lon="1.42327">
        <ele>115.3</ele>
        <time>2022-08-10T10:29:54Z</time>
      </trkpt>
      <trkpt lat="44.46081" lon="1.42319">
        <ele>115.4</ele>
        <time>2022-08-10T10:29:56Z</time>
      </trkpt>
      <trkpt lat="44.46089" lon="1.42313">
        <ele>115.7</ele>
        <time>2022-08-10T10:29:58Z</time>
      </trkpt>
      <trkpt lat="44.46097" lon="1.42306">
        <ele>116</ele>
        <time>2022-08-10T10:30:00Z</time>
      </trkpt>
      <trkpt lat="44.46105" lon="1.423">
        <ele>116.4</ele>
        <time>2022-08-10T10:30:02Z</time>
      </trkpt>
      <trkpt lat="44.46112" lon="1.42293">
        <ele>116.7</ele>
        <time>2022-08-10T10:30:04Z</time>
      </trkpt>
      <trkpt lat="44.4612" lon="1.42287">
        <ele>116.9</ele>
        <time>2022-08-10T10:30:06Z</time>
      </trkpt>
      <trkpt lat="44.46127" lon="1.4228">
        <ele>117.2</ele>
        <time>2022-08-10T10:30:08Z</time>
      </trkpt>
      <trkpt lat="44.46135" lon="1.42274">
        <ele>117.4</ele>
        <time>2022-08-10T10:30:10Z</time>
      </trkpt>
      <trkpt lat="44.46142" lon="1.42268">
        <ele>117.6</ele>
        <time>2022-08-10T10:30:12Z</time>
      </trkpt>
      <trkpt lat="44.46148" lon="1.42262">
        <ele>117.7</ele>
        <time>2022-08-10T10:30:14Z</time>
      </trkpt>
      <trkpt lat="44.46155" lon="1.42256">
        <ele>117.8</ele>
        <time>2022-08-10T10:30:16Z</time>
      </trkpt>
      <trkpt lat="44.46162" lon="1.42251">
        <ele>117.9</ele>
        <time>2022-08-10T10:30:18Z</time>
      </trkpt>
      <trkpt lat="44.46169" lon="1.42245">
        <ele>118</ele>
        <time>2022-08-10T10:30:20Z</time>
      </trkpt>
      <trkpt lat="44.46175" lon="1.42239">
        <ele>118</ele>
        <time>2022-08-10T10:30:22Z</time>
      </trkpt>
      <trkpt lat="44.46182" lon="1.42233">
        <ele>118</ele>
        <time>2022-08-10T10:30:24Z</time>
      </trkpt>
      <trkpt lat="44.46189" lon="1.42227">
        <ele>118</ele>
        <time>2022-08-10T10:30:26Z</time>
      </trkpt>
      <trkpt lat="44.46195" lon="1.42222">
        <ele>118</ele>
        <time>2022-08-10T10:30:28Z</time>
      </trkpt>
      <trkpt lat="44.46201" lon="1.42217">
        <ele>118</ele>
        <time>2022-08-10T10:30:30Z</time>
      </trkpt>
      <trkpt lat="44.46207" lon="1.42212">
        <ele>118</ele>
        <time>2022-08-10T10:30:32Z</time>
      </trkpt>
      <trkpt lat="44.46214" lon="1.42209">
        <ele>117.9</ele>
        <time>2022-08-10T10:30:34Z</time>
      </trkpt>
      <trkpt lat="44.46222" lon="1.42211">
        <ele>117.8</ele>
        <time>2022-08-10T10:30:36Z</time>
      </trkpt>
      <trkpt lat="44.46229" lon="1.42212">
        <ele>117.7</ele>
        <time>2022-08-10T10:30:38Z</time>
      </trkpt>
      <trkpt lat="44.46236" lon="1.42208">
        <ele>117.7</ele>
        <time>2022-08-10T10:30:40Z</time>
      </trkpt>
      <trkpt lat="44.46241" lon="1.422">
        <ele>117.7</ele>
        <time>2022-08-10T10:30:42Z</time>
      </trkpt>
      <trkpt lat="44.46243" lon="1.4219">
        <ele>117.8</ele>
        <time>2022-08-10T10:30:44Z</time>
      </trkpt>
      <trkpt lat="44.46246" lon="1.4218">
        <ele>117.9</ele>
        <time>2022-08-10T10:30:46Z</time>
      </trkpt>
      <trkpt lat="44.46252" lon="1.42171">
        <ele>118</ele>
        <time>2022-08-10T10:30:48Z</time>
      </trkpt>
      <trkpt lat="44.46259" lon="1.42164">
        <ele>118.3</ele>
        <time>2022-08-10T10:30:50Z</time>
      </trkpt>
      <trkpt lat="44.46266" lon="1.42157">
        <ele>118.7</ele>
        <time>2022-08-10T10:30:52Z</time>
      </trkpt>
      <trkpt lat="44.46272" lon="1.42151">
        <ele>119.2</ele>
        <time>2022-08-10T10:30:54Z</time>
      </trkpt>
      <trkpt lat="44.46279" lon="1.42144">
        <ele>119.8</ele>
        <time>2022-08-10T10:30:56Z</time>
      </trkpt>
      <trkpt lat="44.46285" lon="1.42136">
        <ele>120.5</ele>
        <time>2022-08-10T10:30:58Z</time>
      </trkpt>
      <trkpt lat="44.46291" lon="1.42128">
        <ele>121.2</ele>
        <time>2022-08-10T10:31:00Z</time>
      </trkpt>
      <trkpt lat="44.46296" lon="1.4212">
        <ele>122</ele>
        <time>2022-08-10T10:31:02Z</time>
      </trkpt>
      <trkpt lat="44.463" lon="1.42115">
        <ele>122.6</ele>
        <time>2022-08-10T10:31:04Z</time>
      </trkpt>
      <trkpt lat="44.46305" lon="1.42113">
        <ele>123</ele>
        <time>2022-08-10T10:31:06Z</time>
      </trkpt>
      <trkpt lat="44.46311" lon="1.42112">
        <ele>123.3</ele>
        <time>2022-08-10T10:31:08Z</time>
      </trkpt>
      <trkpt lat="44.46316" lon="1.42107">
        <ele>123.9</ele>
        <time>2022-08-10T10:31:10Z</time>
      </trkpt>
      <trkpt lat="44.4632" lon="1.421">
        <ele>124.7</ele>
        <time>2022-08-10T10:31:12Z</time>
      </trkpt>
      <trkpt lat="44.46322" lon="1.42091">
        <ele>125.6</ele>
        <time>2022-08-10T10:31:14Z</time>
      </trkpt>
      <trkpt lat="44.46321" lon="1.42082">
        <ele>126.3</ele>
        <time>2022-08-10T10:31:16Z</time>
      </trkpt>
      <trkpt lat="44.46319" lon="1.42071">
        <ele>126.2</ele>
        <time>2022-08-10T10:31:18Z</time>
      </trkpt>
      <trkpt lat="44.46321" lon="1.4206">
        <ele>126.4</ele>
        <time>2022-08-10T10:31:20Z</time>
      </trkpt>
      <trkpt lat="44.46324" lon="1.42049">
        <ele>126.6</ele>
        <time>2022-08-10T10:31:22Z</time>
      </trkpt>
      <trkpt lat="44.46326" lon="1.42038">
        <ele>126.7</ele>
        <time>2022-08-10T10:31:24Z</time>
      </trkpt>
      <trkpt lat="44.46327" lon="1.42028">
        <ele>126.8</ele>
        <time>2022-08-10T10:31:26Z</time>
      </trkpt>
      <trkpt lat="44.46328" lon="1.42017">
        <ele>126.8</ele>
        <time>2022-08-10T10:31:28Z</time>
      </trkpt>
      <trkpt lat="44.46328" lon="1.42006">
        <ele>126.9</ele>
        <time>2022-08-10T10:31:30Z</time>
      </trkpt>
      <trkpt lat="44.46328" lon="1.41996">
        <ele>126.9</ele>
        <time>2022-08-10T10:31:32Z</time>
      </trkpt>
      <trkpt lat="44.46327" lon="1.41985">
        <ele>126.9</ele>
        <time>2022-08-10T10:31:34Z</time>
      </trkpt>
      <trkpt lat="44.46326" lon="1.41974">
        <ele>126.9</ele>
        <time>2022-08-10T10:31:36Z</time>
      </trkpt>
      <trkpt lat="44.46325" lon="1.41963">
        <ele>126.8</ele>
        <time>2022-08-10T10:31:38Z</time>
      </trkpt>
      <trkpt lat="44.46324" lon="1.41952">
        <ele>126.8</ele>
        <time>2022-08-10T10:31:40Z</time>
      </trkpt>
      <trkpt lat="44.46323" lon="1.41941">
        <ele>126.8</ele>
        <time>2022-08-10T10:31:42Z</time>
      </trkpt>
      <trkpt lat="44.46323" lon="1.41931">
        <ele>126.9</ele>
        <time>2022-08-10T10:31:44Z</time>
      </trkpt>
      <trkpt lat="44.46323" lon="1.41922">
        <ele>126.9</ele>
        <time>2022-08-10T10:31:46Z</time>
      </trkpt>
      <trkpt lat="44.46325" lon="1.41912">
        <ele>126.9</ele>
        <time>2022-08-10T10:31:48Z</time>
      </trkpt>
      <trkpt lat="44.46329" lon="1.41903">
        <ele>126.8</ele>
        <time>2022-08-10T10:31:50Z</time>
      </trkpt>
      <trkpt lat="44.46331" lon="1.41892">
        <ele>126.7</ele>
        <time>2022-08-10T10:31:52Z</time>
      </trkpt>
      <trkpt lat="44.46328" lon="1.41881">
        <ele>126.6</ele>
        <time>2022-08-10T10:31:54Z</time>
      </trkpt>
      <trkpt lat="44.46322" lon="1.41873">
        <ele>126.7</ele>
        <time>2022-08-10T10:31:56Z</time>
      </trkpt>
      <trkpt lat="44.46318" lon="1.41862">
        <ele>126.8</ele>
        <time>2022-08-10T10:31:58Z</time>
      </trkpt>
      <trkpt lat="44.46316" lon="1.41851">
        <ele>126.8</ele>
        <time>2022-08-10T10:32:00Z</time>
      </trkpt>
      <trkpt lat="44.46316" lon="1.4184">
        <ele>126.8</ele>
        <time>2022-08-10T10:32:02Z</time>
      </trkpt>
      <trkpt lat="44.46315" lon="1.41828">
        <ele>127.2</ele>
        <time>2022-08-10T10:32:04Z</time>
      </trkpt>
      <trkpt lat="44.46314" lon="1.41815">
        <ele>127.8</ele>
        <time>2022-08-10T10:32:06Z</time>
      </trkpt>
      <trkpt lat="44.46313" lon="1.41803">
        <ele>128.5</ele>
        <time>2022-08-10T10:32:08Z</time>
      </trkpt>
      <trkpt lat="44.46312" lon="1.41791">
        <ele>129.1</ele>
        <time>2022-08-10T10:32:10Z</time>
      </trkpt>
      <trkpt lat="44.46311" lon="1.41779">
        <ele>129.8</ele>
        <time>2022-08-10T10:32:12Z</time>
      </trkpt>
      <trkpt lat="44.46311" lon="1.41767">
        <ele>130.5</ele>
        <time>2022-08-10T10:32:14Z</time>
      </trkpt>
      <trkpt lat="44.46311" lon="1.41755">
        <ele>131.1</ele>
        <time>2022-08-10T10:32:16Z</time>
      </trkpt>
      <trkpt lat="44.4631" lon="1.41743">
        <ele>131.3</ele>
        <time>2022-08-10T10:32:18Z</time>
      </trkpt>
      <trkpt lat="44.4631" lon="1.41731">
        <ele>131.3</ele>
        <time>2022-08-10T10:32:20Z</time>
      </trkpt>
      <trkpt lat="44.46311" lon="1.41719">
        <ele>131.2</ele>
        <time>2022-08-10T10:32:22Z</time>
      </trkpt>
      <trkpt lat="44.4631" lon="1.41707">
        <ele>131.1</ele>
        <time>2022-08-10T10:32:24Z</time>
      </trkpt>
      <trkpt lat="44.46311" lon="1.41696">
        <ele>131</ele>
        <time>2022-08-10T10:32:26Z</time>
      </trkpt>
      <trkpt lat="44.46312" lon="1.41684">
        <ele>130.9</ele>
        <time>2022-08-10T10:32:28Z</time>
      </trkpt>
      <trkpt lat="44.46312" lon="1.41673">
        <ele>130.8</ele>
        <time>2022-08-10T10:32:30Z</time>
      </trkpt>
      <trkpt lat="44.46313" lon="1.41661">
        <ele>130.6</ele>
        <time>2022-08-10T10:32:32Z</time>
      </trkpt>
      <trkpt lat="44.46313" lon="1.4165">
        <ele>130.4</ele>
        <time>2022-08-10T10:32:34Z</time>
      </trkpt>
      <trkpt lat="44.46314" lon="1.41638">
        <ele>130.1</ele>
        <time>2022-08-10T10:32:36Z</time>
      </trkpt>
      <trkpt lat="44.46314" lon="1.41626">
        <ele>129.8</ele>
        <time>2022-08-10T10:32:38Z</time>
      </trkpt>
      <trkpt lat="44.46315" lon="1.41615">
        <ele>129.5</ele>
        <time>2022-08-10T10:32:40Z</time>
      </trkpt>
      <trkpt lat="44.46315" lon="1.41603">
        <ele>129.3</ele>
        <time>2022-08-10T10:32:42Z</time>
      </trkpt>
      <trkpt lat="44.46315" lon="1.41592">
        <ele>129.1</ele>
        <time>2022-08-10T10:32:44Z</time>
      </trkpt>
      <trkpt lat="44.46316" lon="1.4158">
        <ele>128.9</ele>
        <time>2022-08-10T10:32:46Z</time>
      </trkpt>
      <trkpt lat="44.46316" lon="1.41568">
        <ele>129</ele>
        <time>2022-08-10T10:32:48Z</time>
      </trkpt>
      <trkpt lat="44.46316" lon="1.41557">
        <ele>129.2</ele>
        <time>2022-08-10T10:32:50Z</time>
      </trkpt>
      <trkpt lat="44.46317" lon="1.41545">
        <ele>129.3</ele>
        <time>2022-08-10T10:32:52Z</time>
      </trkpt>
      <trkpt lat="44.46318" lon="1.41534">
        <ele>129.4</ele>
        <time>2022-08-10T10:32:54Z</time>
      </trkpt>
      <trkpt lat="44.46318" lon="1.41522">
        <ele>129.6</ele>
        <time>2022-08-10T10:32:56Z</time>
      </trkpt>
      <trkpt lat="44.46319" lon="1.41512">
        <ele>129.7</ele>
        <time>2022-08-10T10:32:58Z</time>
      </trkpt>
      <trkpt lat="44.4632" lon="1.415">
        <ele>129.8</ele>
        <time>2022-08-10T10:33:00Z</time>
      </trkpt>
      <trkpt lat="44.4632" lon="1.41489">
        <ele>129.7</ele>
        <time>2022-08-10T10:33:02Z</time>
      </trkpt>
      <trkpt lat="44.46321" lon="1.41479">
        <ele>129.6</ele>
        <time>2022-08-10T10:33:04Z</time>
      </trkpt>
      <trkpt lat="44.46321" lon="1.4147">
        <ele>129.5</ele>
        <time>2022-08-10T10:33:06Z</time>
      </trkpt>
      <trkpt lat="44.46321" lon="1.41458">
        <ele>129.4</ele>
        <time>2022-08-10T10:33:08Z</time>
      </trkpt>
      <trkpt lat="44.46322" lon="1.41449">
        <ele>129.4</ele>
        <time>2022-08-10T10:33:10Z</time>
      </trkpt>
      <trkpt lat="44.46323" lon="1.41441">
        <ele>129.3</ele>
        <time>2022-08-10T10:33:12Z</time>
      </trkpt>
      <trkpt lat="44.46325" lon="1.41433">
        <ele>129.2</ele>
        <time>2022-08-10T10:33:14Z</time>
      </trkpt>
      <trkpt lat="44.46328" lon="1.41425">
        <ele>129.1</ele>
        <time>2022-08-10T10:33:16Z</time>
      </trkpt>
      <trkpt lat="44.46333" lon="1.4142">
        <ele>129</ele>
        <time>2022-08-10T10:33:18Z</time>
      </trkpt>
      <trkpt lat="44.46338" lon="1.41417">
        <ele>129.3</ele>
        <time>2022-08-10T10:33:20Z</time>
      </trkpt>
      <trkpt lat="44.46343" lon="1.41413">
        <ele>129.9</ele>
        <time>2022-08-10T10:33:22Z</time>
      </trkpt>
      <trkpt lat="44.46348" lon="1.41412">
        <ele>130.3</ele>
        <time>2022-08-10T10:33:24Z</time>
      </trkpt>
      <trkpt lat="44.46353" lon="1.41412">
        <ele>130.6</ele>
        <time>2022-08-10T10:33:26Z</time>
      </trkpt>
      <trkpt lat="44.46359" lon="1.41412">
        <ele>131.1</ele>
        <time>2022-08-10T10:33:28Z</time>
      </trkpt>
      <trkpt lat="44.46366" lon="1.41412">
        <ele>131.5</ele>
        <time>2022-08-10T10:33:30Z</time>
      </trkpt>
      <trkpt lat="44.46372" lon="1.41412">
        <ele>131.9</ele>
        <time>2022-08-10T10:33:32Z</time>
      </trkpt>
      <trkpt lat="44.46377" lon="1.41413">
        <ele>132.2</ele>
        <time>2022-08-10T10:33:34Z</time>
      </trkpt>
      <trkpt lat="44.46382" lon="1.41413">
        <ele>132.6</ele>
        <time>2022-08-10T10:33:36Z</time>
      </trkpt>
      <trkpt lat="44.46386" lon="1.41413">
        <ele>132.8</ele>
        <time>2022-08-10T10:33:38Z</time>
      </trkpt>
      <trkpt lat="44.4639" lon="1.41413">
        <ele>133.1</ele>
        <time>2022-08-10T10:33:40Z</time>
      </trkpt>
      <trkpt lat="44.46394" lon="1.41413">
        <ele>133.4</ele>
        <time>2022-08-10T10:33:42Z</time>
      </trkpt>
      <trkpt lat="44.46398" lon="1.41414">
        <ele>133.7</ele>
        <time>2022-08-10T10:33:44Z</time>
      </trkpt>
      <trkpt lat="44.46403" lon="1.41414">
        <ele>134</ele>
        <time>2022-08-10T10:33:46Z</time>
      </trkpt>
      <trkpt lat="44.46407" lon="1.41414">
        <ele>134.3</ele>
        <time>2022-08-10T10:33:48Z</time>
      </trkpt>
      <trkpt lat="44.46411" lon="1.41415">
        <ele>134.6</ele>
        <time>2022-08-10T10:33:50Z</time>
      </trkpt>
      <trkpt lat="44.46415" lon="1.41414">
        <ele>134.8</ele>
        <time>2022-08-10T10:33:52Z</time>
      </trkpt>
      <trkpt lat="44.46418" lon="1.41414">
        <ele>135.1</ele>
        <time>2022-08-10T10:33:54Z</time>
      </trkpt>
      <trkpt lat="44.46422" lon="1.41415">
        <ele>135.4</ele>
        <time>2022-08-10T10:33:56Z</time>
      </trkpt>
      <trkpt lat="44.46425" lon="1.41416">
        <ele>135.7</ele>
        <time>2022-08-10T10:33:58Z</time>
      </trkpt>
      <trkpt lat="44.46428" lon="1.41415">
        <ele>135.9</ele>
        <time>2022-08-10T10:34:00Z</time>
      </trkpt>
      <trkpt lat="44.46432" lon="1.41416">
        <ele>136.3</ele>
        <time>2022-08-10T10:34:02Z</time>
      </trkpt>
      <trkpt lat="44.46435" lon="1.41417">
        <ele>136.6</ele>
        <time>2022-08-10T10:34:04Z</time>
      </trkpt>
      <trkpt lat="44.46439" lon="1.41418">
        <ele>136.9</ele>
        <time>2022-08-10T10:34:06Z</time>
      </trkpt>
      <trkpt lat="44.46443" lon="1.41418">
        <ele>137.2</ele>
        <time>2022-08-10T10:34:08Z</time>
      </trkpt>
      <trkpt lat="44.46446" lon="1.41418">
        <ele>137.5</ele>
        <time>2022-08-10T10:34:10Z</time>
      </trkpt>
      <trkpt lat="44.4645" lon="1.4142">
        <ele>137.8</ele>
        <time>2022-08-10T10:34:12Z</time>
      </trkpt>
      <trkpt lat="44.46453" lon="1.4142">
        <ele>138.1</ele>
        <time>2022-08-10T10:34:14Z</time>
      </trkpt>
      <trkpt lat="44.46457" lon="1.4142">
        <ele>138.4</ele>
        <time>2022-08-10T10:34:16Z</time>
      </trkpt>
      <trkpt lat="44.4646" lon="1.4142">
        <ele>138.6</ele>
        <time>2022-08-10T10:34:18Z</time>
      </trkpt>
      <trkpt lat="44.46463" lon="1.4142">
        <ele>138.9</ele>
        <time>2022-08-10T10:34:20Z</time>
      </trkpt>
      <trkpt lat="44.46467" lon="1.41421">
        <ele>139.2</ele>
        <time>2022-08-10T10:34:22Z</time>
      </trkpt>
      <trkpt lat="44.4647" lon="1.41421">
        <ele>139.5</ele>
        <time>2022-08-10T10:34:24Z</time>
      </trkpt>
      <trkpt lat="44.46473" lon="1.41422">
        <ele>139.7</ele>
        <time>2022-08-10T10:34:26Z</time>
      </trkpt>
      <trkpt lat="44.46477" lon="1.41423">
        <ele>140</ele>
        <time>2022-08-10T10:34:28Z</time>
      </trkpt>
      <trkpt lat="44.4648" lon="1.41424">
        <ele>140.3</ele>
        <time>2022-08-10T10:34:30Z</time>
      </trkpt>
      <trkpt lat="44.46484" lon="1.41425">
        <ele>140.6</ele>
        <time>2022-08-10T10:34:32Z</time>
      </trkpt>
      <trkpt lat="44.46487" lon="1.41425">
        <ele>140.9</ele>
        <time>2022-08-10T10:34:34Z</time>
      </trkpt>
      <trkpt lat="44.46491" lon="1.41426">
        <ele>141.1</ele>
        <time>2022-08-10T10:34:36Z</time>
      </trkpt>
      <trkpt lat="44.46494" lon="1.41426">
        <ele>141.4</ele>
        <time>2022-08-10T10:34:38Z</time>
      </trkpt>
      <trkpt lat="44.46497" lon="1.41427">
        <ele>141.7</ele>
        <time>2022-08-10T10:34:40Z</time>
      </trkpt>
      <trkpt lat="44.46501" lon="1.41428">
        <ele>141.9</ele>
        <time>2022-08-10T10:34:42Z</time>
      </trkpt>
      <trkpt lat="44.46505" lon="1.41429">
        <ele>142.1</ele>
        <time>2022-08-10T10:34:44Z</time>
      </trkpt>
      <trkpt lat="44.46508" lon="1.41429">
        <ele>142.3</ele>
        <time>2022-08-10T10:34:46Z</time>
      </trkpt>
      <trkpt lat="44.46511" lon="1.41429">
        <ele>142.4</ele>
        <time>2022-08-10T10:34:48Z</time>
      </trkpt>
      <trkpt lat="44.46514" lon="1.4143">
        <ele>142.6</ele>
        <time>2022-08-10T10:34:50Z</time>
      </trkpt>
      <trkpt lat="44.46518" lon="1.41431">
        <ele>142.8</ele>
        <time>2022-08-10T10:34:52Z</time>
      </trkpt>
      <trkpt lat="44.46521" lon="1.4143">
        <ele>142.9</ele>
        <time>2022-08-10T10:34:54Z</time>
      </trkpt>
      <trkpt lat="44.46524" lon="1.4143">
        <ele>143.1</ele>
        <time>2022-08-10T10:34:56Z</time>
      </trkpt>
      <trkpt lat="44.46527" lon="1.41431">
        <ele>143.3</ele>
        <time>2022-08-10T10:34:58Z</time>
      </trkpt>
      <trkpt lat="44.46531" lon="1.41431">
        <ele>143.4</ele>
        <time>2022-08-10T10:35:00Z</time>
      </trkpt>
      <trkpt lat="44.46534" lon="1.41431">
        <ele>143.6</ele>
        <time>2022-08-10T10:35:02Z</time>
      </trkpt>
      <trkpt lat="44.46538" lon="1.41432">
        <ele>143.8</ele>
        <time>2022-08-10T10:35:04Z</time>
      </trkpt>
      <trkpt lat="44.46541" lon="1.41432">
        <ele>144</ele>
        <time>2022-08-10T10:35:06Z</time>
      </trkpt>
      <trkpt lat="44.46545" lon="1.41431">
        <ele>144.2</ele>
        <time>2022-08-10T10:35:08Z</time>
      </trkpt>
      <trkpt lat="44.46548" lon="1.41432">
        <ele>144.3</ele>
        <time>2022-08-10T10:35:10Z</time>
      </trkpt>
      <trkpt lat="44.46552" lon="1.41431">
        <ele>144.5</ele>
        <time>2022-08-10T10:35:12Z</time>
      </trkpt>
      <trkpt lat="44.46555" lon="1.41432">
        <ele>144.7</ele>
        <time>2022-08-10T10:35:14Z</time>
      </trkpt>
      <trkpt lat="44.46559" lon="1.41431">
        <ele>144.9</ele>
        <time>2022-08-10T10:35:16Z</time>
      </trkpt>
      <trkpt lat="44.46562" lon="1.41431">
        <ele>145</ele>
        <time>2022-08-10T10:35:18Z</time>
      </trkpt>
      <trkpt lat="44.46566" lon="1.41431">
        <ele>145.3</ele>
        <time>2022-08-10T10:35:20Z</time>
      </trkpt>
      <trkpt lat="44.4657" lon="1.41431">
        <ele>145.5</ele>
        <time>2022-08-10T10:35:22Z</time>
      </trkpt>
      <trkpt lat="44.46574" lon="1.41431">
        <ele>145.7</ele>
        <time>2022-08-10T10:35:24Z</time>
      </trkpt>
      <trkpt lat="44.46577" lon="1.41429">
        <ele>145.8</ele>
        <time>2022-08-10T10:35:26Z</time>
      </trkpt>
      <trkpt lat="44.46581" lon="1.41428">
        <ele>146</ele>
        <time>2022-08-10T10:35:28Z</time>
      </trkpt>
      <trkpt lat="44.46585" lon="1.41428">
        <ele>146.2</ele>
        <time>2022-08-10T10:35:30Z</time>
      </trkpt>
      <trkpt lat="44.46589" lon="1.41427">
        <ele>146.3</ele>
        <time>2022-08-10T10:35:32Z</time>
      </trkpt>
      <trkpt lat="44.46593" lon="1.41426">
        <ele>146.3</ele>
        <time>2022-08-10T10:35:34Z</time>
      </trkpt>
      <trkpt lat="44.46597" lon="1.41425">
        <ele>146.4</ele>
        <time>2022-08-10T10:35:36Z</time>
      </trkpt>
      <trkpt lat="44.46601" lon="1.41423">
        <ele>146.5</ele>
        <time>2022-08-10T10:35:38Z</time>
      </trkpt>
      <trkpt lat="44.46605" lon="1.41422">
        <ele>146.6</ele>
        <time>2022-08-10T10:35:40Z</time>
      </trkpt>
      <trkpt lat="44.46609" lon="1.41422">
        <ele>146.7</ele>
        <time>2022-08-10T10:35:42Z</time>
      </trkpt>
      <trkpt lat="44.46613" lon="1.41419">
        <ele>146.7</ele>
        <time>2022-08-10T10:35:44Z</time>
      </trkpt>
      <trkpt lat="44.46617" lon="1.41419">
        <ele>146.8</ele>
        <time>2022-08-10T10:35:46Z</time>
      </trkpt>
      <trkpt lat="44.46621" lon="1.41417">
        <ele>146.9</ele>
        <time>2022-08-10T10:35:48Z</time>
      </trkpt>
      <trkpt lat="44.46625" lon="1.41416">
        <ele>147</ele>
        <time>2022-08-10T10:35:50Z</time>
      </trkpt>
      <trkpt lat="44.46629" lon="1.41414">
        <ele>147.1</ele>
        <time>2022-08-10T10:35:52Z</time>
      </trkpt>
      <trkpt lat="44.46634" lon="1.41412">
        <ele>147.3</ele>
        <time>2022-08-10T10:35:54Z</time>
      </trkpt>
      <trkpt lat="44.46638" lon="1.4141">
        <ele>147.4</ele>
        <time>2022-08-10T10:35:56Z</time>
      </trkpt>
      <trkpt lat="44.46643" lon="1.41408">
        <ele>147.6</ele>
        <time>2022-08-10T10:35:58Z</time>
      </trkpt>
      <trkpt lat="44.46646" lon="1.41407">
        <ele>147.6</ele>
        <time>2022-08-10T10:36:00Z</time>
      </trkpt>
      <trkpt lat="44.4665" lon="1.41404">
        <ele>147.8</ele>
        <time>2022-08-10T10:36:02Z</time>
      </trkpt>
      <trkpt lat="44.46655" lon="1.41402">
        <ele>147.9</ele>
        <time>2022-08-10T10:36:04Z</time>
      </trkpt>
      <trkpt lat="44.4666" lon="1.414">
        <ele>148.1</ele>
        <time>2022-08-10T10:36:06Z</time>
      </trkpt>
      <trkpt lat="44.46665" lon="1.41396">
        <ele>148.2</ele>
        <time>2022-08-10T10:36:08Z</time>
      </trkpt>
      <trkpt lat="44.46669" lon="1.41395">
        <ele>148.3</ele>
        <time>2022-08-10T10:36:10Z</time>
      </trkpt>
      <trkpt lat="44.46674" lon="1.41394">
        <ele>148.4</ele>
        <time>2022-08-10T10:36:12Z</time>
      </trkpt>
      <trkpt lat="44.46678" lon="1.41393">
        <ele>148.4</ele>
        <time>2022-08-10T10:36:14Z</time>
      </trkpt>
      <trkpt lat="44.46682" lon="1.41391">
        <ele>148.5</ele>
        <time>2022-08-10T10:36:16Z</time>
      </trkpt>
      <trkpt lat="44.46686" lon="1.41391">
        <ele>148.5</ele>
        <time>2022-08-10T10:36:18Z</time>
      </trkpt>
      <trkpt lat="44.46691" lon="1.41389">
        <ele>148.6</ele>
        <time>2022-08-10T10:36:20Z</time>
      </trkpt>
      <trkpt lat="44.46694" lon="1.41387">
        <ele>148.7</ele>
        <time>2022-08-10T10:36:22Z</time>
      </trkpt>
      <trkpt lat="44.46699" lon="1.41386">
        <ele>148.8</ele>
        <time>2022-08-10T10:36:24Z</time>
      </trkpt>
      <trkpt lat="44.46703" lon="1.41383">
        <ele>148.8</ele>
        <time>2022-08-10T10:36:26Z</time>
      </trkpt>
      <trkpt lat="44.46707" lon="1.41379">
        <ele>148.9</ele>
        <time>2022-08-10T10:36:28Z</time>
      </trkpt>
      <trkpt lat="44.46712" lon="1.41375">
        <ele>149</ele>
        <time>2022-08-10T10:36:30Z</time>
      </trkpt>
      <trkpt lat="44.46716" lon="1.4137">
        <ele>149.2</ele>
        <time>2022-08-10T10:36:32Z</time>
      </trkpt>
      <trkpt lat="44.4672" lon="1.41365">
        <ele>149.3</ele>
        <time>2022-08-10T10:36:34Z</time>
      </trkpt>
      <trkpt lat="44.46724" lon="1.4136">
        <ele>149.4</ele>
        <time>2022-08-10T10:36:36Z</time>
      </trkpt>
      <trkpt lat="44.46728" lon="1.41354">
        <ele>149.5</ele>
        <time>2022-08-10T10:36:38Z</time>
      </trkpt>
      <trkpt lat="44.46731" lon="1.41348">
        <ele>149.6</ele>
        <time>2022-08-10T10:36:40Z</time>
      </trkpt>
      <trkpt lat="44.46735" lon="1.41342">
        <ele>149.7</ele>
        <time>2022-08-10T10:36:42Z</time>
      </trkpt>
      <trkpt lat="44.46738" lon="1.41336">
        <ele>149.8</ele>
        <time>2022-08-10T10:36:44Z</time>
      </trkpt>
      <trkpt lat="44.46742" lon="1.4133">
        <ele>149.9</ele>
        <time>2022-08-10T10:36:46Z</time>
      </trkpt>
      <trkpt lat="44.46745" lon="1.41326">
        <ele>149.9</ele>
        <time>2022-08-10T10:36:48Z</time>
      </trkpt>
      <trkpt lat="44.46749" lon="1.41324">
        <ele>150</ele>
        <time>2022-08-10T10:36:50Z</time>
      </trkpt>
      <trkpt lat="44.46754" lon="1.41325">
        <ele>150</ele>
        <time>2022-08-10T10:36:52Z</time>
      </trkpt>
      <trkpt lat="44.46759" lon="1.41329">
        <ele>149.9</ele>
        <time>2022-08-10T10:36:54Z</time>
      </trkpt>
      <trkpt lat="44.46764" lon="1.41334">
        <ele>149.8</ele>
        <time>2022-08-10T10:36:56Z</time>
      </trkpt>
      <trkpt lat="44.46769" lon="1.41337">
        <ele>149.7</ele>
        <time>2022-08-10T10:36:58Z</time>
      </trkpt>
      <trkpt lat="44.46774" lon="1.4134">
        <ele>149.7</ele>
        <time>2022-08-10T10:37:00Z</time>
      </trkpt>
      <trkpt lat="44.46776" lon="1.41344">
        <ele>149.6</ele>
        <time>2022-08-10T10:37:02Z</time>
      </trkpt>
      <trkpt lat="44.46778" lon="1.41345">
        <ele>149.6</ele>
        <time>2022-08-10T10:37:04Z</time>
      </trkpt>
      <trkpt lat="44.46777" lon="1.4134">
        <ele>149.6</ele>
        <time>2022-08-10T10:37:06Z</time>
      </trkpt>
      <trkpt lat="44.46772" lon="1.41336">
        <ele>149.7</ele>
        <time>2022-08-10T10:37:08Z</time>
      </trkpt>
      <trkpt lat="44.46766" lon="1.41333">
        <ele>149.8</ele>
        <time>2022-08-10T10:37:10Z</time>
      </trkpt>
      <trkpt lat="44.46764" lon="1.41326">
        <ele>149.8</ele>
        <time>2022-08-10T10:37:12Z</time>
      </trkpt>
      <trkpt lat="44.46767" lon="1.41318">
        <ele>149.8</ele>
        <time>2022-08-10T10:37:14Z</time>
      </trkpt>
      <trkpt lat="44.46771" lon="1.41311">
        <ele>149.8</ele>
        <time>2022-08-10T10:37:16Z</time>
      </trkpt>
      <trkpt lat="44.46774" lon="1.41302">
        <ele>149.8</ele>
        <time>2022-08-10T10:37:18Z</time>
      </trkpt>
      <trkpt lat="44.46779" lon="1.41294">
        <ele>149.8</ele>
        <time>2022-08-10T10:37:20Z</time>
      </trkpt>
      <trkpt lat="44.46784" lon="1.41285">
        <ele>149.8</ele>
        <time>2022-08-10T10:37:22Z</time>
      </trkpt>
      <trkpt lat="44.46786" lon="1.41273">
        <ele>149.9</ele>
        <time>2022-08-10T10:37:24Z</time>
      </trkpt>
      <trkpt lat="44.46782" lon="1.41264">
        <ele>149.9</ele>
        <time>2022-08-10T10:37:26Z</time>
      </trkpt>
      <trkpt lat="44.46778" lon="1.41256">
        <ele>150</ele>
        <time>2022-08-10T10:37:28Z</time>
      </trkpt>
      <trkpt lat="44.46777" lon="1.41246">
        <ele>150</ele>
        <time>2022-08-10T10:37:30Z</time>
      </trkpt>
      <trkpt lat="44.4678" lon="1.41236">
        <ele>149.9</ele>
        <time>2022-08-10T10:37:32Z</time>
      </trkpt>
      <trkpt lat="44.46782" lon="1.41224">
        <ele>149.8</ele>
        <time>2022-08-10T10:37:34Z</time>
      </trkpt>
      <trkpt lat="44.46785" lon="1.41213">
        <ele>149.7</ele>
        <time>2022-08-10T10:37:36Z</time>
      </trkpt>
      <trkpt lat="44.46788" lon="1.41203">
        <ele>149.7</ele>
        <time>2022-08-10T10:37:38Z</time>
      </trkpt>
      <trkpt lat="44.46793" lon="1.41195">
        <ele>149.7</ele>
        <time>2022-08-10T10:37:40Z</time>
      </trkpt>
      <trkpt lat="44.46798" lon="1.41187">
        <ele>149.7</ele>
        <time>2022-08-10T10:37:42Z</time>
      </trkpt>
      <trkpt lat="44.46804" lon="1.4118">
        <ele>149.7</ele>
        <time>2022-08-10T10:37:44Z</time>
      </trkpt>
      <trkpt lat="44.46812" lon="1.41174">
        <ele>149.8</ele>
        <time>2022-08-10T10:37:46Z</time>
      </trkpt>
      <trkpt lat="44.46819" lon="1.4117">
        <ele>149.8</ele>
        <time>2022-08-10T10:37:48Z</time>
      </trkpt>
      <trkpt lat="44.46827" lon="1.41166">
        <ele>149.9</ele>
        <time>2022-08-10T10:37:50Z</time>
      </trkpt>
      <trkpt lat="44.46835" lon="1.41163">
        <ele>149.9</ele>
        <time>2022-08-10T10:37:52Z</time>
      </trkpt>
      <trkpt lat="44.46843" lon="1.41161">
        <ele>149.7</ele>
        <time>2022-08-10T10:37:54Z</time>
      </trkpt>
      <trkpt lat="44.46852" lon="1.41159">
        <ele>149.5</ele>
        <time>2022-08-10T10:37:56Z</time>
      </trkpt>
      <trkpt lat="44.46859" lon="1.41156">
        <ele>149.3</ele>
        <time>2022-08-10T10:37:58Z</time>
      </trkpt>
      <trkpt lat="44.46867" lon="1.41154">
        <ele>149.1</ele>
        <time>2022-08-10T10:38:00Z</time>
      </trkpt>
      <trkpt lat="44.46875" lon="1.41153">
        <ele>148.9</ele>
        <time>2022-08-10T10:38:02Z</time>
      </trkpt>
      <trkpt lat="44.46883" lon="1.4115">
        <ele>148.7</ele>
        <time>2022-08-10T10:38:04Z</time>
      </trkpt>
      <trkpt lat="44.46892" lon="1.41148">
        <ele>148.5</ele>
        <time>2022-08-10T10:38:06Z</time>
      </trkpt>
      <trkpt lat="44.469" lon="1.41145">
        <ele>148.3</ele>
        <time>2022-08-10T10:38:08Z</time>
      </trkpt>
      <trkpt lat="44.46908" lon="1.41143">
        <ele>148.2</ele>
        <time>2022-08-10T10:38:10Z</time>
      </trkpt>
      <trkpt lat="44.46916" lon="1.41139">
        <ele>148</ele>
        <time>2022-08-10T10:38:12Z</time>
      </trkpt>
      <trkpt lat="44.46924" lon="1.41137">
        <ele>147.9</ele>
        <time>2022-08-10T10:38:14Z</time>
      </trkpt>
      <trkpt lat="44.46931" lon="1.41135">
        <ele>147.7</ele>
        <time>2022-08-10T10:38:16Z</time>
      </trkpt>
      <trkpt lat="44.4694" lon="1.41134">
        <ele>147.6</ele>
        <time>2022-08-10T10:38:18Z</time>
      </trkpt>
      <trkpt lat="44.46948" lon="1.41134">
        <ele>147.4</ele>
        <time>2022-08-10T10:38:20Z</time>
      </trkpt>
      <trkpt lat="44.46956" lon="1.41133">
        <ele>147.2</ele>
        <time>2022-08-10T10:38:22Z</time>
      </trkpt>
      <trkpt lat="44.46963" lon="1.41133">
        <ele>147.1</ele>
        <time>2022-08-10T10:38:24Z</time>
      </trkpt>
      <trkpt lat="44.46971" lon="1.41133">
        <ele>147</ele>
        <time>2022-08-10T10:38:26Z</time>
      </trkpt>
      <trkpt lat="44.46976" lon="1.41134">
        <ele>146.8</ele>
        <time>2022-08-10T10:38:28Z</time>
      </trkpt>
      <trkpt lat="44.46984" lon="1.41136">
        <ele>146.7</ele>
        <time>2022-08-10T10:38:30Z</time>
      </trkpt>
      <trkpt lat="44.4699" lon="1.41135">
        <ele>146.6</ele>
        <time>2022-08-10T10:38:32Z</time>
      </trkpt>
      <trkpt lat="44.46996" lon="1.41137">
        <ele>146.4</ele>
        <time>2022-08-10T10:38:34Z</time>
      </trkpt>
      <trkpt lat="44.47004" lon="1.41134">
        <ele>146.4</ele>
        <time>2022-08-10T10:38:36Z</time>
      </trkpt>
      <trkpt lat="44.4701" lon="1.41132">
        <ele>146.4</ele>
        <time>2022-08-10T10:38:38Z</time>
      </trkpt>
      <trkpt lat="44.47016" lon="1.41127">
        <ele>146.5</ele>
        <time>2022-08-10T10:38:40Z</time>
      </trkpt>
      <trkpt lat="44.47022" lon="1.41122">
        <ele>146.5</ele>
        <time>2022-08-10T10:38:42Z</time>
      </trkpt>
      <trkpt lat="44.47027" lon="1.41115">
        <ele>146.6</ele>
        <time>2022-08-10T10:38:44Z</time>
      </trkpt>
      <trkpt lat="44.47032" lon="1.41108">
        <ele>146.7</ele>
        <time>2022-08-10T10:38:46Z</time>
      </trkpt>
      <trkpt lat="44.47037" lon="1.41102">
        <ele>146.8</ele>
        <time>2022-08-10T10:38:48Z</time>
      </trkpt>
      <trkpt lat="44.47041" lon="1.41096">
        <ele>146.8</ele>
        <time>2022-08-10T10:38:50Z</time>
      </trkpt>
      <trkpt lat="44.47046" lon="1.4109">
        <ele>146.9</ele>
        <time>2022-08-10T10:38:52Z</time>
      </trkpt>
      <trkpt lat="44.47051" lon="1.41083">
        <ele>147</ele>
        <time>2022-08-10T10:38:54Z</time>
      </trkpt>
      <trkpt lat="44.47057" lon="1.41077">
        <ele>147.1</ele>
        <time>2022-08-10T10:38:56Z</time>
      </trkpt>
      <trkpt lat="44.47062" lon="1.41071">
        <ele>147.3</ele>
        <time>2022-08-10T10:38:58Z</time>
      </trkpt>
      <trkpt lat="44.47066" lon="1.41065">
        <ele>147.4</ele>
        <time>2022-08-10T10:39:00Z</time>
      </trkpt>
      <trkpt lat="44.47071" lon="1.41059">
        <ele>147.5</ele>
        <time>2022-08-10T10:39:02Z</time>
      </trkpt>
      <trkpt lat="44.47076" lon="1.41053">
        <ele>147.7</ele>
        <time>2022-08-10T10:39:04Z</time>
      </trkpt>
      <trkpt lat="44.4708" lon="1.41048">
        <ele>147.8</ele>
        <time>2022-08-10T10:39:06Z</time>
      </trkpt>
      <trkpt lat="44.47085" lon="1.41041">
        <ele>148</ele>
        <time>2022-08-10T10:39:08Z</time>
      </trkpt>
      <trkpt lat="44.47091" lon="1.41034">
        <ele>148.3</ele>
        <time>2022-08-10T10:39:10Z</time>
      </trkpt>
      <trkpt lat="44.47097" lon="1.41027">
        <ele>148.5</ele>
        <time>2022-08-10T10:39:12Z</time>
      </trkpt>
      <trkpt lat="44.47103" lon="1.41019">
        <ele>148.6</ele>
        <time>2022-08-10T10:39:14Z</time>
      </trkpt>
      <trkpt lat="44.47109" lon="1.41011">
        <ele>148.8</ele>
        <time>2022-08-10T10:39:16Z</time>
      </trkpt>
      <trkpt lat="44.47116" lon="1.41002">
        <ele>149</ele>
        <time>2022-08-10T10:39:18Z</time>
      </trkpt>
      <trkpt lat="44.47122" lon="1.40994">
        <ele>148.9</ele>
        <time>2022-08-10T10:39:20Z</time>
      </trkpt>
      <trkpt lat="44.47129" lon="1.40986">
        <ele>148.7</ele>
        <time>2022-08-10T10:39:22Z</time>
      </trkpt>
      <trkpt lat="44.47136" lon="1.40977">
        <ele>148.4</ele>
        <time>2022-08-10T10:39:24Z</time>
      </trkpt>
      <trkpt lat="44.47143" lon="1.40967">
        <ele>148.2</ele>
        <time>2022-08-10T10:39:26Z</time>
      </trkpt>
      <trkpt lat="44.47151" lon="1.40958">
        <ele>148</ele>
        <time>2022-08-10T10:39:28Z</time>
      </trkpt>
      <trkpt lat="44.47158" lon="1.40949">
        <ele>147.8</ele>
        <time>2022-08-10T10:39:30Z</time>
      </trkpt>
      <trkpt lat="44.47166" lon="1.40939">
        <ele>147.5</ele>
        <time>2022-08-10T10:39:32Z</time>
      </trkpt>
      <trkpt lat="44.47174" lon="1.40929">
        <ele>147.2</ele>
        <time>2022-08-10T10:39:34Z</time>
      </trkpt>
      <trkpt lat="44.47182" lon="1.40919">
        <ele>146.9</ele>
        <time>2022-08-10T10:39:36Z</time>
      </trkpt>
      <trkpt lat="44.4719" lon="1.40909">
        <ele>146.5</ele>
        <time>2022-08-10T10:39:38Z</time>
      </trkpt>
      <trkpt lat="44.47198" lon="1.40896">
        <ele>146</ele>
        <time>2022-08-10T10:39:40Z</time>
      </trkpt>
      <trkpt lat="44.47203" lon="1.40881">
        <ele>145.4</ele>
        <time>2022-08-10T10:39:42Z</time>
      </trkpt>
      <trkpt lat="44.47206" lon="1.40864">
        <ele>144.7</ele>
        <time>2022-08-10T10:39:44Z</time>
      </trkpt>
      <trkpt lat="44.47206" lon="1.40845">
        <ele>144</ele>
        <time>2022-08-10T10:39:46Z</time>
      </trkpt>
      <trkpt lat="44.47205" lon="1.40826">
        <ele>143.1</ele>
        <time>2022-08-10T10:39:48Z</time>
      </trkpt>
      <trkpt lat="44.47202" lon="1.4081">
        <ele>142</ele>
        <time>2022-08-10T10:39:50Z</time>
      </trkpt>
      <trkpt lat="44.47205" lon="1.40795">
        <ele>140.7</ele>
        <time>2022-08-10T10:39:52Z</time>
      </trkpt>
      <trkpt lat="44.47211" lon="1.40784">
        <ele>139.5</ele>
        <time>2022-08-10T10:39:54Z</time>
      </trkpt>
      <trkpt lat="44.47223" lon="1.40784">
        <ele>138.9</ele>
        <time>2022-08-10T10:39:56Z</time>
      </trkpt>
      <trkpt lat="44.47233" lon="1.40792">
        <ele>139</ele>
        <time>2022-08-10T10:39:58Z</time>
      </trkpt>
      <trkpt lat="44.47243" lon="1.40798">
        <ele>138.8</ele>
        <time>2022-08-10T10:40:00Z</time>
      </trkpt>
      <trkpt lat="44.47257" lon="1.40793">
        <ele>138.1</ele>
        <time>2022-08-10T10:40:02Z</time>
      </trkpt>
      <trkpt lat="44.47269" lon="1.4078">
        <ele>137.3</ele>
        <time>2022-08-10T10:40:04Z</time>
      </trkpt>
      <trkpt lat="44.47283" lon="1.40764">
        <ele>136.8</ele>
        <time>2022-08-10T10:40:06Z</time>
      </trkpt>
      <trkpt lat="44.47295" lon="1.40748">
        <ele>136.6</ele>
        <time>2022-08-10T10:40:08Z</time>
      </trkpt>
      <trkpt lat="44.47306" lon="1.40735">
        <ele>137.1</ele>
        <time>2022-08-10T10:40:10Z</time>
      </trkpt>
      <trkpt lat="44.47315" lon="1.40721">
        <ele>137.3</ele>
        <time>2022-08-10T10:40:12Z</time>
      </trkpt>
      <trkpt lat="44.47322" lon="1.40709">
        <ele>137.1</ele>
        <time>2022-08-10T10:40:14Z</time>
      </trkpt>
      <trkpt lat="44.4733" lon="1.407">
        <ele>136.9</ele>
        <time>2022-08-10T10:40:16Z</time>
      </trkpt>
      <trkpt lat="44.47336" lon="1.40693">
        <ele>136.8</ele>
        <time>2022-08-10T10:40:18Z</time>
      </trkpt>
      <trkpt lat="44.47341" lon="1.40685">
        <ele>137</ele>
        <time>2022-08-10T10:40:20Z</time>
      </trkpt>
      <trkpt lat="44.47346" lon="1.40677">
        <ele>137.2</ele>
        <time>2022-08-10T10:40:22Z</time>
      </trkpt>
      <trkpt lat="44.4735" lon="1.40671">
        <ele>137.3</ele>
        <time>2022-08-10T10:40:24Z</time>
      </trkpt>
      <trkpt lat="44.47353" lon="1.40664">
        <ele>137.5</ele>
        <time>2022-08-10T10:40:26Z</time>
      </trkpt>
      <trkpt lat="44.47356" lon="1.40658">
        <ele>137.9</ele>
        <time>2022-08-10T10:40:28Z</time>
      </trkpt>
      <trkpt lat="44.47361" lon="1.40654">
        <ele>138.4</ele>
        <time>2022-08-10T10:40:30Z</time>
      </trkpt>
      <trkpt lat="44.47364" lon="1.4065">
        <ele>138.7</ele>
        <time>2022-08-10T10:40:32Z</time>
      </trkpt>
      <trkpt lat="44.47366" lon="1.40646">
        <ele>138.9</ele>
        <time>2022-08-10T10:40:34Z</time>
      </trkpt>
      <trkpt lat="44.47369" lon="1.40642">
        <ele>139.2</ele>
        <time>2022-08-10T10:40:36Z</time>
      </trkpt>
      <trkpt lat="44.47371" lon="1.4064">
        <ele>139.4</ele>
        <time>2022-08-10T10:40:38Z</time>
      </trkpt>
      <trkpt lat="44.47374" lon="1.40637">
        <ele>139.7</ele>
        <time>2022-08-10T10:40:40Z</time>
      </trkpt>
      <trkpt lat="44.47376" lon="1.40634">
        <ele>139.9</ele>
        <time>2022-08-10T10:40:42Z</time>
      </trkpt>
      <trkpt lat="44.47378" lon="1.40631">
        <ele>140</ele>
        <time>2022-08-10T10:40:44Z</time>
      </trkpt>
      <trkpt lat="44.4738" lon="1.40626">
        <ele>140.2</ele>
        <time>2022-08-10T10:40:46Z</time>
      </trkpt>
      <trkpt lat="44.47383" lon="1.40623">
        <ele>140.4</ele>
        <time>2022-08-10T10:40:48Z</time>
      </trkpt>
      <trkpt lat="44.47385" lon="1.40622">
        <ele>140.5</ele>
        <time>2022-08-10T10:40:50Z</time>
      </trkpt>
      <trkpt lat="44.47387" lon="1.40619">
        <ele>140.7</ele>
        <time>2022-08-10T10:40:52Z</time>
      </trkpt>
      <trkpt lat="44.4739" lon="1.40616">
        <ele>140.8</ele>
        <time>2022-08-10T10:40:54Z</time>
      </trkpt>
      <trkpt lat="44.47392" lon="1.40614">
        <ele>141</ele>
        <time>2022-08-10T10:40:56Z</time>
      </trkpt>
      <trkpt lat="44.47395" lon="1.40612">
        <ele>141.1</ele>
        <time>2022-08-10T10:40:58Z</time>
      </trkpt>
      <trkpt lat="44.47397" lon="1.4061">
        <ele>141.2</ele>
        <time>2022-08-10T10:41:00Z</time>
      </trkpt>
      <trkpt lat="44.474" lon="1.40608">
        <ele>141.4</ele>
        <time>2022-08-10T10:41:02Z</time>
      </trkpt>
      <trkpt lat="44.47402" lon="1.40606">
        <ele>141.5</ele>
        <time>2022-08-10T10:41:04Z</time>
      </trkpt>
      <trkpt lat="44.47405" lon="1.40605">
        <ele>141.6</ele>
        <time>2022-08-10T10:41:06Z</time>
      </trkpt>
      <trkpt lat="44.47408" lon="1.40603">
        <ele>141.7</ele>
        <time>2022-08-10T10:41:08Z</time>
      </trkpt>
      <trkpt lat="44.47411" lon="1.406">
        <ele>141.8</ele>
        <time>2022-08-10T10:41:10Z</time>
      </trkpt>
      <trkpt lat="44.47413" lon="1.40599">
        <ele>141.9</ele>
        <time>2022-08-10T10:41:12Z</time>
      </trkpt>
      <trkpt lat="44.47416" lon="1.40598">
        <ele>142</ele>
        <time>2022-08-10T10:41:14Z</time>
      </trkpt>
      <trkpt lat="44.47419" lon="1.40597">
        <ele>142.1</ele>
        <time>2022-08-10T10:41:16Z</time>
      </trkpt>
      <trkpt lat="44.47423" lon="1.40597">
        <ele>142.2</ele>
        <time>2022-08-10T10:41:18Z</time>
      </trkpt>
      <trkpt lat="44.47427" lon="1.40599">
        <ele>142.3</ele>
        <time>2022-08-10T10:41:20Z</time>
      </trkpt>
      <trkpt lat="44.47429" lon="1.40602">
        <ele>142.4</ele>
        <time>2022-08-10T10:41:22Z</time>
      </trkpt>
      <trkpt lat="44.47433" lon="1.40605">
        <ele>142.5</ele>
        <time>2022-08-10T10:41:24Z</time>
      </trkpt>
      <trkpt lat="44.47436" lon="1.40607">
        <ele>142.6</ele>
        <time>2022-08-10T10:41:26Z</time>
      </trkpt>
      <trkpt lat="44.4744" lon="1.40606">
        <ele>142.8</ele>
        <time>2022-08-10T10:41:28Z</time>
      </trkpt>
      <trkpt lat="44.47444" lon="1.40604">
        <ele>142.9</ele>
        <time>2022-08-10T10:41:30Z</time>
      </trkpt>
      <trkpt lat="44.47448" lon="1.40601">
        <ele>143</ele>
        <time>2022-08-10T10:41:32Z</time>
      </trkpt>
      <trkpt lat="44.4745" lon="1.40596">
        <ele>143.2</ele>
        <time>2022-08-10T10:41:34Z</time>
      </trkpt>
      <trkpt lat="44.47452" lon="1.40592">
        <ele>143.2</ele>
        <time>2022-08-10T10:41:36Z</time>
      </trkpt>
      <trkpt lat="44.47454" lon="1.40587">
        <ele>143.3</ele>
        <time>2022-08-10T10:41:38Z</time>
      </trkpt>
      <trkpt lat="44.47457" lon="1.40583">
        <ele>143.5</ele>
        <time>2022-08-10T10:41:40Z</time>
      </trkpt>
      <trkpt lat="44.47461" lon="1.4058">
        <ele>143.7</ele>
        <time>2022-08-10T10:41:42Z</time>
      </trkpt>
      <trkpt lat="44.47464" lon="1.40576">
        <ele>143.9</ele>
        <time>2022-08-10T10:41:44Z</time>
      </trkpt>
      <trkpt lat="44.47467" lon="1.40572">
        <ele>144</ele>
        <time>2022-08-10T10:41:46Z</time>
      </trkpt>
      <trkpt lat="44.4747" lon="1.40568">
        <ele>144.2</ele>
        <time>2022-08-10T10:41:48Z</time>
      </trkpt>
      <trkpt lat="44.47473" lon="1.40565">
        <ele>144.4</ele>
        <time>2022-08-10T10:41:50Z</time>
      </trkpt>
      <trkpt lat="44.47476" lon="1.40562">
        <ele>144.5</ele>
        <time>2022-08-10T10:41:52Z</time>
      </trkpt>
      <trkpt lat="44.47479" lon="1.40559">
        <ele>144.7</ele>
        <time>2022-08-10T10:41:54Z</time>
      </trkpt>
      <trkpt lat="44.47482" lon="1.40556">
        <ele>144.8</ele>
        <time>2022-08-10T10:41:56Z</time>
      </trkpt>
      <trkpt lat="44.47485" lon="1.40553">
        <ele>144.9</ele>
        <time>2022-08-10T10:41:58Z</time>
      </trkpt>
      <trkpt lat="44.47488" lon="1.40551">
        <ele>145.1</ele>
        <time>2022-08-10T10:42:00Z</time>
      </trkpt>
      <trkpt lat="44.47491" lon="1.40548">
        <ele>145.2</ele>
        <time>2022-08-10T10:42:02Z</time>
      </trkpt>
      <trkpt lat="44.47495" lon="1.40546">
        <ele>145.3</ele>
        <time>2022-08-10T10:42:04Z</time>
      </trkpt>
      <trkpt lat="44.47498" lon="1.40544">
        <ele>145.4</ele>
        <time>2022-08-10T10:42:06Z</time>
      </trkpt>
      <trkpt lat="44.47501" lon="1.40542">
        <ele>145.5</ele>
        <time>2022-08-10T10:42:08Z</time>
      </trkpt>
      <trkpt lat="44.47504" lon="1.40539">
        <ele>145.5</ele>
        <time>2022-08-10T10:42:10Z</time>
      </trkpt>
      <trkpt lat="44.47508" lon="1.40537">
        <ele>145.5</ele>
        <time>2022-08-10T10:42:12Z</time>
      </trkpt>
      <trkpt lat="44.47512" lon="1.40535">
        <ele>145.5</ele>
        <time>2022-08-10T10:42:14Z</time>
      </trkpt>
      <trkpt lat="44.47516" lon="1.40532">
        <ele>145.5</ele>
        <time>2022-08-10T10:42:16Z</time>
      </trkpt>
      <trkpt lat="44.47521" lon="1.40529">
        <ele>145.5</ele>
        <time>2022-08-10T10:42:18Z</time>
      </trkpt>
      <trkpt lat="44.47525" lon="1.40527">
        <ele>145.5</ele>
        <time>2022-08-10T10:42:20Z</time>
      </trkpt>
      <trkpt lat="44.47528" lon="1.40528">
        <ele>145.4</ele>
        <time>2022-08-10T10:42:22Z</time>
      </trkpt>
      <trkpt lat="44.4753" lon="1.40527">
        <ele>145.4</ele>
        <time>2022-08-10T10:42:24Z</time>
      </trkpt>
      <trkpt lat="44.4753" lon="1.40527">
        <ele>145.4</ele>
        <time>2022-08-10T10:42:26Z</time>
      </trkpt>
      <trkpt lat="44.4753" lon="1.40526">
        <ele>145.4</ele>
        <time>2022-08-10T10:42:28Z</time>
      </trkpt>
      <trkpt lat="44.4753" lon="1.40526">
        <ele>145.4</ele>
        <time>2022-08-10T10:42:30Z</time>
      </trkpt>
      <trkpt lat="44.47529" lon="1.40525">
        <ele>145.5</ele>
        <time>2022-08-10T10:42:32Z</time>
      </trkpt>
      <trkpt lat="44.47546" lon="1.40512">
        <ele>145.4</ele>
        <time>2022-08-10T10:43:20Z</time>
      </trkpt>
      <trkpt lat="44.47553" lon="1.40508">
        <ele>145.3</ele>
        <time>2022-08-10T10:43:22Z</time>
      </trkpt>
      <trkpt lat="44.47561" lon="1.40505">
        <ele>145.3</ele>
        <time>2022-08-10T10:43:24Z</time>
      </trkpt>
      <trkpt lat="44.47569" lon="1.405">
        <ele>145.2</ele>
        <time>2022-08-10T10:43:26Z</time>
      </trkpt>
      <trkpt lat="44.47578" lon="1.40495">
        <ele>145.1</ele>
        <time>2022-08-10T10:43:28Z</time>
      </trkpt>
      <trkpt lat="44.47587" lon="1.40487">
        <ele>144.8</ele>
        <time>2022-08-10T10:43:30Z</time>
      </trkpt>
      <trkpt lat="44.47597" lon="1.40479">
        <ele>144.4</ele>
        <time>2022-08-10T10:43:32Z</time>
      </trkpt>
      <trkpt lat="44.47606" lon="1.4047">
        <ele>143.9</ele>
        <time>2022-08-10T10:43:34Z</time>
      </trkpt>
      <trkpt lat="44.47616" lon="1.40461">
        <ele>143.4</ele>
        <time>2022-08-10T10:43:36Z</time>
      </trkpt>
      <trkpt lat="44.47626" lon="1.40449">
        <ele>142.9</ele>
        <time>2022-08-10T10:43:38Z</time>
      </trkpt>
      <trkpt lat="44.47637" lon="1.40437">
        <ele>142.4</ele>
        <time>2022-08-10T10:43:40Z</time>
      </trkpt>
      <trkpt lat="44.47647" lon="1.40427">
        <ele>141.9</ele>
        <time>2022-08-10T10:43:42Z</time>
      </trkpt>
      <trkpt lat="44.47658" lon="1.40416">
        <ele>141.5</ele>
        <time>2022-08-10T10:43:44Z</time>
      </trkpt>
      <trkpt lat="44.47667" lon="1.40406">
        <ele>141.7</ele>
        <time>2022-08-10T10:43:46Z</time>
      </trkpt>
      <trkpt lat="44.47676" lon="1.40397">
        <ele>142.2</ele>
        <time>2022-08-10T10:43:48Z</time>
      </trkpt>
      <trkpt lat="44.47684" lon="1.40388">
        <ele>142.6</ele>
        <time>2022-08-10T10:43:50Z</time>
      </trkpt>
      <trkpt lat="44.47692" lon="1.40379">
        <ele>143</ele>
        <time>2022-08-10T10:43:52Z</time>
      </trkpt>
      <trkpt lat="44.477" lon="1.40371">
        <ele>143.2</ele>
        <time>2022-08-10T10:43:54Z</time>
      </trkpt>
      <trkpt lat="44.47707" lon="1.40364">
        <ele>143.4</ele>
        <time>2022-08-10T10:43:56Z</time>
      </trkpt>
      <trkpt lat="44.47713" lon="1.40357">
        <ele>143.5</ele>
        <time>2022-08-10T10:43:58Z</time>
      </trkpt>
      <trkpt lat="44.4772" lon="1.40351">
        <ele>143.6</ele>
        <time>2022-08-10T10:44:00Z</time>
      </trkpt>
      <trkpt lat="44.47726" lon="1.40345">
        <ele>143.6</ele>
        <time>2022-08-10T10:44:02Z</time>
      </trkpt>
      <trkpt lat="44.47732" lon="1.40341">
        <ele>143.5</ele>
        <time>2022-08-10T10:44:04Z</time>
      </trkpt>
      <trkpt lat="44.47738" lon="1.40342">
        <ele>143.2</ele>
        <time>2022-08-10T10:44:06Z</time>
      </trkpt>
      <trkpt lat="44.47744" lon="1.40347">
        <ele>142.8</ele>
        <time>2022-08-10T10:44:08Z</time>
      </trkpt>
      <trkpt lat="44.47748" lon="1.40357">
        <ele>142.2</ele>
        <time>2022-08-10T10:44:10Z</time>
      </trkpt>
      <trkpt lat="44.47751" lon="1.40371">
        <ele>141.6</ele>
        <time>2022-08-10T10:44:12Z</time>
      </trkpt>
      <trkpt lat="44.47755" lon="1.40385">
        <ele>140.9</ele>
        <time>2022-08-10T10:44:14Z</time>
      </trkpt>
      <trkpt lat="44.47761" lon="1.404">
        <ele>140.2</ele>
        <time>2022-08-10T10:44:16Z</time>
      </trkpt>
      <trkpt lat="44.47766" lon="1.40415">
        <ele>139.5</ele>
        <time>2022-08-10T10:44:18Z</time>
      </trkpt>
      <trkpt lat="44.47769" lon="1.40429">
        <ele>138.7</ele>
        <time>2022-08-10T10:44:20Z</time>
      </trkpt>
      <trkpt lat="44.47773" lon="1.4044">
        <ele>138</ele>
        <time>2022-08-10T10:44:22Z</time>
      </trkpt>
      <trkpt lat="44.47775" lon="1.4045">
        <ele>137.4</ele>
        <time>2022-08-10T10:44:24Z</time>
      </trkpt>
      <trkpt lat="44.47778" lon="1.4046">
        <ele>136.7</ele>
        <time>2022-08-10T10:44:26Z</time>
      </trkpt>
      <trkpt lat="44.47781" lon="1.40468">
        <ele>136.2</ele>
        <time>2022-08-10T10:44:28Z</time>
      </trkpt>
      <trkpt lat="44.47784" lon="1.4048">
        <ele>135.5</ele>
        <time>2022-08-10T10:44:30Z</time>
      </trkpt>
      <trkpt lat="44.47788" lon="1.40492">
        <ele>134.6</ele>
        <time>2022-08-10T10:44:32Z</time>
      </trkpt>
      <trkpt lat="44.47794" lon="1.40506">
        <ele>133.4</ele>
        <time>2022-08-10T10:44:34Z</time>
      </trkpt>
      <trkpt lat="44.47797" lon="1.40518">
        <ele>132.2</ele>
        <time>2022-08-10T10:44:36Z</time>
      </trkpt>
      <trkpt lat="44.47803" lon="1.40526">
        <ele>131.2</ele>
        <time>2022-08-10T10:44:38Z</time>
      </trkpt>
      <trkpt lat="44.47808" lon="1.40529">
        <ele>130.6</ele>
        <time>2022-08-10T10:44:40Z</time>
      </trkpt>
      <trkpt lat="44.47813" lon="1.40525">
        <ele>130.7</ele>
        <time>2022-08-10T10:44:42Z</time>
      </trkpt>
      <trkpt lat="44.47819" lon="1.40522">
        <ele>130.6</ele>
        <time>2022-08-10T10:44:44Z</time>
      </trkpt>
      <trkpt lat="44.47827" lon="1.40519">
        <ele>130.5</ele>
        <time>2022-08-10T10:44:46Z</time>
      </trkpt>
      <trkpt lat="44.47837" lon="1.40515">
        <ele>130.4</ele>
        <time>2022-08-10T10:44:48Z</time>
      </trkpt>
      <trkpt lat="44.47845" lon="1.40511">
        <ele>130.3</ele>
        <time>2022-08-10T10:44:50Z</time>
      </trkpt>
      <trkpt lat="44.47855" lon="1.40508">
        <ele>130</ele>
        <time>2022-08-10T10:44:52Z</time>
      </trkpt>
      <trkpt lat="44.47864" lon="1.40507">
        <ele>129.5</ele>
        <time>2022-08-10T10:44:54Z</time>
      </trkpt>
      <trkpt lat="44.47874" lon="1.40507">
        <ele>129</ele>
        <time>2022-08-10T10:44:56Z</time>
      </trkpt>
      <trkpt lat="44.47883" lon="1.40508">
        <ele>128.4</ele>
        <time>2022-08-10T10:44:58Z</time>
      </trkpt>
      <trkpt lat="44.47891" lon="1.40505">
        <ele>128.1</ele>
        <time>2022-08-10T10:45:00Z</time>
      </trkpt>
      <trkpt lat="44.479" lon="1.40502">
        <ele>127.9</ele>
        <time>2022-08-10T10:45:02Z</time>
      </trkpt>
      <trkpt lat="44.47909" lon="1.40499">
        <ele>127.5</ele>
        <time>2022-08-10T10:45:04Z</time>
      </trkpt>
      <trkpt lat="44.47919" lon="1.40497">
        <ele>127.2</ele>
        <time>2022-08-10T10:45:06Z</time>
      </trkpt>
      <trkpt lat="44.47927" lon="1.40495">
        <ele>127.4</ele>
        <time>2022-08-10T10:45:08Z</time>
      </trkpt>
      <trkpt lat="44.47937" lon="1.40498">
        <ele>127.3</ele>
        <time>2022-08-10T10:45:10Z</time>
      </trkpt>
      <trkpt lat="44.47945" lon="1.40503">
        <ele>127</ele>
        <time>2022-08-10T10:45:12Z</time>
      </trkpt>
      <trkpt lat="44.47954" lon="1.40508">
        <ele>126.5</ele>
        <time>2022-08-10T10:45:14Z</time>
      </trkpt>
      <trkpt lat="44.47962" lon="1.40512">
        <ele>126.1</ele>
        <time>2022-08-10T10:45:16Z</time>
      </trkpt>
      <trkpt lat="44.47971" lon="1.40517">
        <ele>125.5</ele>
        <time>2022-08-10T10:45:18Z</time>
      </trkpt>
      <trkpt lat="44.47979" lon="1.40525">
        <ele>124.3</ele>
        <time>2022-08-10T10:45:20Z</time>
      </trkpt>
      <trkpt lat="44.47988" lon="1.40533">
        <ele>123.1</ele>
        <time>2022-08-10T10:45:22Z</time>
      </trkpt>
      <trkpt lat="44.47998" lon="1.40538">
        <ele>122.2</ele>
        <time>2022-08-10T10:45:24Z</time>
      </trkpt>
      <trkpt lat="44.48006" lon="1.40544">
        <ele>121.1</ele>
        <time>2022-08-10T10:45:26Z</time>
      </trkpt>
      <trkpt lat="44.48014" lon="1.4055">
        <ele>119.9</ele>
        <time>2022-08-10T10:45:28Z</time>
      </trkpt>
      <trkpt lat="44.48023" lon="1.40553">
        <ele>119.1</ele>
        <time>2022-08-10T10:45:30Z</time>
      </trkpt>
      <trkpt lat="44.48034" lon="1.40556">
        <ele>118.4</ele>
        <time>2022-08-10T10:45:32Z</time>
      </trkpt>
      <trkpt lat="44.48041" lon="1.40559">
        <ele>117.7</ele>
        <time>2022-08-10T10:45:34Z</time>
      </trkpt>
      <trkpt lat="44.48048" lon="1.40561">
        <ele>117.1</ele>
        <time>2022-08-10T10:45:36Z</time>
      </trkpt>
      <trkpt lat="44.48056" lon="1.40562">
        <ele>116.8</ele>
        <time>2022-08-10T10:45:38Z</time>
      </trkpt>
      <trkpt lat="44.48063" lon="1.40564">
        <ele>116.3</ele>
        <time>2022-08-10T10:45:40Z</time>
      </trkpt>
      <trkpt lat="44.48071" lon="1.40565">
        <ele>115.9</ele>
        <time>2022-08-10T10:45:42Z</time>
      </trkpt>
      <trkpt lat="44.48078" lon="1.40567">
        <ele>115.3</ele>
        <time>2022-08-10T10:45:44Z</time>
      </trkpt>
      <trkpt lat="44.48084" lon="1.40567">
        <ele>115.1</ele>
        <time>2022-08-10T10:45:46Z</time>
      </trkpt>
      <trkpt lat="44.48091" lon="1.40568">
        <ele>114.9</ele>
        <time>2022-08-10T10:45:48Z</time>
      </trkpt>
      <trkpt lat="44.48097" lon="1.4057">
        <ele>114.4</ele>
        <time>2022-08-10T10:45:50Z</time>
      </trkpt>
      <trkpt lat="44.48101" lon="1.40574">
        <ele>113.6</ele>
        <time>2022-08-10T10:45:52Z</time>
      </trkpt>
      <trkpt lat="44.48103" lon="1.4058">
        <ele>112.5</ele>
        <time>2022-08-10T10:45:54Z</time>
      </trkpt>
      <trkpt lat="44.48107" lon="1.40585">
        <ele>112</ele>
        <time>2022-08-10T10:45:56Z</time>
      </trkpt>
      <trkpt lat="44.4811" lon="1.40589">
        <ele>112</ele>
        <time>2022-08-10T10:45:58Z</time>
      </trkpt>
      <trkpt lat="44.48114" lon="1.40594">
        <ele>112</ele>
        <time>2022-08-10T10:46:00Z</time>
      </trkpt>
      <trkpt lat="44.48118" lon="1.40597">
        <ele>111.9</ele>
        <time>2022-08-10T10:46:02Z</time>
      </trkpt>
      <trkpt lat="44.4812" lon="1.406">
        <ele>111.9</ele>
        <time>2022-08-10T10:46:04Z</time>
      </trkpt>
      <trkpt lat="44.48124" lon="1.40604">
        <ele>111.9</ele>
        <time>2022-08-10T10:46:06Z</time>
      </trkpt>
      <trkpt lat="44.48124" lon="1.40611">
        <ele>111.8</ele>
        <time>2022-08-10T10:46:08Z</time>
      </trkpt>
      <trkpt lat="44.48126" lon="1.40617">
        <ele>111.8</ele>
        <time>2022-08-10T10:46:10Z</time>
      </trkpt>
      <trkpt lat="44.48128" lon="1.40623">
        <ele>111.7</ele>
        <time>2022-08-10T10:46:12Z</time>
      </trkpt>
      <trkpt lat="44.48129" lon="1.40627">
        <ele>111.7</ele>
        <time>2022-08-10T10:46:14Z</time>
      </trkpt>
      <trkpt lat="44.48133" lon="1.4063">
        <ele>111.7</ele>
        <time>2022-08-10T10:46:16Z</time>
      </trkpt>
      <trkpt lat="44.48137" lon="1.40635">
        <ele>111.6</ele>
        <time>2022-08-10T10:46:18Z</time>
      </trkpt>
      <trkpt lat="44.48142" lon="1.4064">
        <ele>111.5</ele>
        <time>2022-08-10T10:46:20Z</time>
      </trkpt>
      <trkpt lat="44.48147" lon="1.40643">
        <ele>111.5</ele>
        <time>2022-08-10T10:46:22Z</time>
      </trkpt>
      <trkpt lat="44.4815" lon="1.40647">
        <ele>111.4</ele>
        <time>2022-08-10T10:46:24Z</time>
      </trkpt>
      <trkpt lat="44.48152" lon="1.40647">
        <ele>111.4</ele>
        <time>2022-08-10T10:46:26Z</time>
      </trkpt>
      <trkpt lat="44.48155" lon="1.40651">
        <ele>111.3</ele>
        <time>2022-08-10T10:46:28Z</time>
      </trkpt>
      <trkpt lat="44.48157" lon="1.40657">
        <ele>111.2</ele>
        <time>2022-08-10T10:46:30Z</time>
      </trkpt>
      <trkpt lat="44.48158" lon="1.40662">
        <ele>111.2</ele>
        <time>2022-08-10T10:46:32Z</time>
      </trkpt>
      <trkpt lat="44.48163" lon="1.40665">
        <ele>111.1</ele>
        <time>2022-08-10T10:46:34Z</time>
      </trkpt>
      <trkpt lat="44.48166" lon="1.40668">
        <ele>111</ele>
        <time>2022-08-10T10:46:36Z</time>
      </trkpt>
      <trkpt lat="44.4817" lon="1.40669">
        <ele>110.9</ele>
        <time>2022-08-10T10:46:38Z</time>
      </trkpt>
      <trkpt lat="44.48172" lon="1.40669">
        <ele>110.9</ele>
        <time>2022-08-10T10:46:40Z</time>
      </trkpt>
      <trkpt lat="44.48171" lon="1.40669">
        <ele>110.9</ele>
        <time>2022-08-10T10:46:42Z</time>
      </trkpt>
      <trkpt lat="44.48172" lon="1.40669">
        <ele>110.9</ele>
        <time>2022-08-10T10:46:44Z</time>
      </trkpt>
      <trkpt lat="44.48174" lon="1.4067">
        <ele>110.9</ele>
        <time>2022-08-10T10:46:46Z</time>
      </trkpt>
      <trkpt lat="44.48175" lon="1.4067">
        <ele>110.9</ele>
        <time>2022-08-10T10:46:48Z</time>
      </trkpt>
      <trkpt lat="44.48177" lon="1.40661">
        <ele>111.1</ele>
        <time>2022-08-10T10:53:21Z</time>
      </trkpt>
      <trkpt lat="44.48176" lon="1.40658">
        <ele>111.1</ele>
        <time>2022-08-10T10:53:22Z</time>
      </trkpt>
      <trkpt lat="44.48159" lon="1.40659">
        <ele>111.2</ele>
        <time>2022-08-10T14:09:31Z</time>
      </trkpt>
      <trkpt lat="44.48174" lon="1.4067">
        <ele>110.9</ele>
        <time>2022-08-10T14:09:32Z</time>
      </trkpt>
      <trkpt lat="44.48164" lon="1.40657">
        <ele>111.1</ele>
        <time>2022-08-10T14:10:16Z</time>
      </trkpt>
      <trkpt lat="44.48161" lon="1.40655">
        <ele>111.2</ele>
        <time>2022-08-10T14:10:18Z</time>
      </trkpt>
      <trkpt lat="44.48156" lon="1.40652">
        <ele>111.3</ele>
        <time>2022-08-10T14:10:20Z</time>
      </trkpt>
      <trkpt lat="44.48152" lon="1.4065">
        <ele>111.3</ele>
        <time>2022-08-10T14:10:22Z</time>
      </trkpt>
      <trkpt lat="44.48146" lon="1.40647">
        <ele>111.4</ele>
        <time>2022-08-10T14:10:24Z</time>
      </trkpt>
      <trkpt lat="44.48142" lon="1.40643">
        <ele>111.5</ele>
        <time>2022-08-10T14:10:26Z</time>
      </trkpt>
      <trkpt lat="44.48139" lon="1.40638">
        <ele>111.6</ele>
        <time>2022-08-10T14:10:28Z</time>
      </trkpt>
      <trkpt lat="44.48134" lon="1.40633">
        <ele>111.6</ele>
        <time>2022-08-10T14:10:30Z</time>
      </trkpt>
      <trkpt lat="44.4813" lon="1.40629">
        <ele>111.7</ele>
        <time>2022-08-10T14:10:32Z</time>
      </trkpt>
      <trkpt lat="44.48125" lon="1.40626">
        <ele>111.7</ele>
        <time>2022-08-10T14:10:34Z</time>
      </trkpt>
      <trkpt lat="44.48123" lon="1.40626">
        <ele>111.8</ele>
        <time>2022-08-10T14:10:36Z</time>
      </trkpt>
      <trkpt lat="44.4812" lon="1.40624">
        <ele>111.8</ele>
        <time>2022-08-10T14:10:38Z</time>
      </trkpt>
      <trkpt lat="44.48118" lon="1.40621">
        <ele>111.8</ele>
        <time>2022-08-10T14:10:40Z</time>
      </trkpt>
      <trkpt lat="44.48115" lon="1.4062">
        <ele>111.8</ele>
        <time>2022-08-10T14:10:42Z</time>
      </trkpt>
      <trkpt lat="44.48111" lon="1.40618">
        <ele>111.9</ele>
        <time>2022-08-10T14:10:44Z</time>
      </trkpt>
      <trkpt lat="44.48108" lon="1.40615">
        <ele>111.9</ele>
        <time>2022-08-10T14:10:46Z</time>
      </trkpt>
      <trkpt lat="44.48104" lon="1.40612">
        <ele>111.9</ele>
        <time>2022-08-10T14:10:48Z</time>
      </trkpt>
      <trkpt lat="44.481" lon="1.40613">
        <ele>111.9</ele>
        <time>2022-08-10T14:10:50Z</time>
      </trkpt>
      <trkpt lat="44.48097" lon="1.40614">
        <ele>111.9</ele>
        <time>2022-08-10T14:10:52Z</time>
      </trkpt>
      <trkpt lat="44.48093" lon="1.40612">
        <ele>112</ele>
        <time>2022-08-10T14:10:54Z</time>
      </trkpt>
      <trkpt lat="44.48091" lon="1.4061">
        <ele>112</ele>
        <time>2022-08-10T14:10:56Z</time>
      </trkpt>
      <trkpt lat="44.48088" lon="1.40606">
        <ele>112</ele>
        <time>2022-08-10T14:10:58Z</time>
      </trkpt>
      <trkpt lat="44.48085" lon="1.406">
        <ele>112</ele>
        <time>2022-08-10T14:11:00Z</time>
      </trkpt>
      <trkpt lat="44.48082" lon="1.40595">
        <ele>112</ele>
        <time>2022-08-10T14:11:02Z</time>
      </trkpt>
      <trkpt lat="44.4808" lon="1.40589">
        <ele>112.1</ele>
        <time>2022-08-10T14:11:04Z</time>
      </trkpt>
      <trkpt lat="44.48076" lon="1.40584">
        <ele>112.2</ele>
        <time>2022-08-10T14:11:06Z</time>
      </trkpt>
      <trkpt lat="44.48072" lon="1.40579">
        <ele>113.2</ele>
        <time>2022-08-10T14:11:08Z</time>
      </trkpt>
      <trkpt lat="44.48068" lon="1.40575">
        <ele>114.1</ele>
        <time>2022-08-10T14:11:10Z</time>
      </trkpt>
      <trkpt lat="44.48067" lon="1.40574">
        <ele>114.4</ele>
        <time>2022-08-10T14:11:12Z</time>
      </trkpt>
      <trkpt lat="44.48063" lon="1.40574">
        <ele>114.5</ele>
        <time>2022-08-10T14:11:14Z</time>
      </trkpt>
      <trkpt lat="44.48064" lon="1.40574">
        <ele>114.4</ele>
        <time>2022-08-10T14:11:16Z</time>
      </trkpt>
      <trkpt lat="44.48065" lon="1.40574">
        <ele>114.4</ele>
        <time>2022-08-10T14:11:18Z</time>
      </trkpt>
      <trkpt lat="44.48066" lon="1.40574">
        <ele>114.3</ele>
        <time>2022-08-10T14:11:20Z</time>
      </trkpt>
      <trkpt lat="44.48066" lon="1.40574">
        <ele>114.4</ele>
        <time>2022-08-10T14:11:22Z</time>
      </trkpt>
      <trkpt lat="44.48067" lon="1.40572">
        <ele>114.7</ele>
        <time>2022-08-10T14:11:24Z</time>
      </trkpt>
      <trkpt lat="44.48068" lon="1.40571">
        <ele>114.8</ele>
        <time>2022-08-10T14:11:26Z</time>
      </trkpt>
      <trkpt lat="44.48069" lon="1.4057">
        <ele>114.9</ele>
        <time>2022-08-10T14:11:28Z</time>
      </trkpt>
      <trkpt lat="44.48069" lon="1.4057">
        <ele>114.9</ele>
        <time>2022-08-10T14:11:30Z</time>
      </trkpt>
      <trkpt lat="44.48069" lon="1.40571">
        <ele>114.8</ele>
        <time>2022-08-10T14:11:32Z</time>
      </trkpt>
      <trkpt lat="44.48069" lon="1.40571">
        <ele>114.8</ele>
        <time>2022-08-10T14:11:34Z</time>
      </trkpt>
      <trkpt lat="44.48069" lon="1.40572">
        <ele>114.7</ele>
        <time>2022-08-10T14:11:36Z</time>
      </trkpt>
      <trkpt lat="44.48067" lon="1.40571">
        <ele>114.9</ele>
        <time>2022-08-10T14:11:38Z</time>
      </trkpt>
      <trkpt lat="44.48066" lon="1.40571">
        <ele>114.8</ele>
        <time>2022-08-10T14:11:40Z</time>
      </trkpt>
      <trkpt lat="44.48064" lon="1.40572">
        <ele>114.8</ele>
        <time>2022-08-10T14:11:42Z</time>
      </trkpt>
      <trkpt lat="44.48062" lon="1.40574">
        <ele>114.5</ele>
        <time>2022-08-10T14:11:44Z</time>
      </trkpt>
      <trkpt lat="44.48061" lon="1.40576">
        <ele>114.1</ele>
        <time>2022-08-10T14:11:46Z</time>
      </trkpt>
      <trkpt lat="44.4806" lon="1.40578">
        <ele>113.8</ele>
        <time>2022-08-10T14:11:48Z</time>
      </trkpt>
      <trkpt lat="44.48058" lon="1.40579">
        <ele>113.7</ele>
        <time>2022-08-10T14:11:50Z</time>
      </trkpt>
      <trkpt lat="44.48056" lon="1.4058">
        <ele>113.5</ele>
        <time>2022-08-10T14:11:52Z</time>
      </trkpt>
      <trkpt lat="44.48054" lon="1.4058">
        <ele>113.7</ele>
        <time>2022-08-10T14:11:54Z</time>
      </trkpt>
      <trkpt lat="44.48053" lon="1.40578">
        <ele>114</ele>
        <time>2022-08-10T14:11:56Z</time>
      </trkpt>
      <trkpt lat="44.48053" lon="1.40579">
        <ele>113.9</ele>
        <time>2022-08-10T14:11:58Z</time>
      </trkpt>
      <trkpt lat="44.48053" lon="1.4058">
        <ele>113.8</ele>
        <time>2022-08-10T14:12:00Z</time>
      </trkpt>
      <trkpt lat="44.48053" lon="1.4058">
        <ele>113.8</ele>
        <time>2022-08-10T14:12:04Z</time>
      </trkpt>
      <trkpt lat="44.48053" lon="1.4058">
        <ele>113.8</ele>
        <time>2022-08-10T14:12:08Z</time>
      </trkpt>
      <trkpt lat="44.48053" lon="1.4058">
        <ele>113.8</ele>
        <time>2022-08-10T14:12:12Z</time>
      </trkpt>
      <trkpt lat="44.48053" lon="1.4058">
        <ele>113.8</ele>
        <time>2022-08-10T14:12:16Z</time>
      </trkpt>
      <trkpt lat="44.48053" lon="1.4058">
        <ele>113.8</ele>
        <time>2022-08-10T14:12:20Z</time>
      </trkpt>
      <trkpt lat="44.48053" lon="1.4058">
        <ele>113.8</ele>
        <time>2022-08-10T14:12:24Z</time>
      </trkpt>
      <trkpt lat="44.48053" lon="1.4058">
        <ele>113.8</ele>
        <time>2022-08-10T14:12:28Z</time>
      </trkpt>
      <trkpt lat="44.48053" lon="1.4058">
        <ele>113.8</ele>
        <time>2022-08-10T14:12:32Z</time>
      </trkpt>
      <trkpt lat="44.48053" lon="1.4058">
        <ele>113.8</ele>
        <time>2022-08-10T14:12:36Z</time>
      </trkpt>
      <trkpt lat="44.4805" lon="1.40578">
        <ele>114.1</ele>
        <time>2022-08-10T14:12:40Z</time>
      </trkpt>
      <trkpt lat="44.48051" lon="1.40578">
        <ele>114.1</ele>
        <time>2022-08-10T14:12:44Z</time>
      </trkpt>
      <trkpt lat="44.4805" lon="1.40577">
        <ele>114.4</ele>
        <time>2022-08-10T14:12:46Z</time>
      </trkpt>
      <trkpt lat="44.4805" lon="1.40576">
        <ele>114.4</ele>
        <time>2022-08-10T14:12:48Z</time>
      </trkpt>
      <trkpt lat="44.48051" lon="1.40577">
        <ele>114.4</ele>
        <time>2022-08-10T14:12:50Z</time>
      </trkpt>
      <trkpt lat="44.48051" lon="1.40577">
        <ele>114.3</ele>
        <time>2022-08-10T14:12:52Z</time>
      </trkpt>
      <trkpt lat="44.48052" lon="1.40577">
        <ele>114.2</ele>
        <time>2022-08-10T14:12:54Z</time>
      </trkpt>
      <trkpt lat="44.48052" lon="1.40577">
        <ele>114.2</ele>
        <time>2022-08-10T14:12:58Z</time>
      </trkpt>
      <trkpt lat="44.48052" lon="1.40577">
        <ele>114.2</ele>
        <time>2022-08-10T14:13:02Z</time>
      </trkpt>
      <trkpt lat="44.48052" lon="1.40577">
        <ele>114.2</ele>
        <time>2022-08-10T14:13:06Z</time>
      </trkpt>
      <trkpt lat="44.48052" lon="1.40577">
        <ele>114.2</ele>
        <time>2022-08-10T14:13:10Z</time>
      </trkpt>
      <trkpt lat="44.48052" lon="1.40576">
        <ele>114.5</ele>
        <time>2022-08-10T14:13:14Z</time>
      </trkpt>
      <trkpt lat="44.48053" lon="1.40575">
        <ele>114.5</ele>
        <time>2022-08-10T14:13:16Z</time>
      </trkpt>
      <trkpt lat="44.48053" lon="1.40575">
        <ele>114.5</ele>
        <time>2022-08-10T14:13:18Z</time>
      </trkpt>
      <trkpt lat="44.48053" lon="1.40575">
        <ele>114.6</ele>
        <time>2022-08-10T14:13:20Z</time>
      </trkpt>
      <trkpt lat="44.48053" lon="1.40575">
        <ele>114.6</ele>
        <time>2022-08-10T14:13:24Z</time>
      </trkpt>
      <trkpt lat="44.48053" lon="1.40575">
        <ele>114.6</ele>
        <time>2022-08-10T14:13:26Z</time>
      </trkpt>
      <trkpt lat="44.48053" lon="1.40575">
        <ele>114.6</ele>
        <time>2022-08-10T14:13:30Z</time>
      </trkpt>
      <trkpt lat="44.48053" lon="1.40575">
        <ele>114.6</ele>
        <time>2022-08-10T14:13:32Z</time>
      </trkpt>
      <trkpt lat="44.48052" lon="1.40576">
        <ele>114.5</ele>
        <time>2022-08-10T14:13:34Z</time>
      </trkpt>
      <trkpt lat="44.48052" lon="1.40576">
        <ele>114.4</ele>
        <time>2022-08-10T14:13:36Z</time>
      </trkpt>
      <trkpt lat="44.48051" lon="1.40577">
        <ele>114.2</ele>
        <time>2022-08-10T14:13:38Z</time>
      </trkpt>
      <trkpt lat="44.48051" lon="1.40578">
        <ele>114.1</ele>
        <time>2022-08-10T14:13:40Z</time>
      </trkpt>
      <trkpt lat="44.48051" lon="1.40579">
        <ele>114</ele>
        <time>2022-08-10T14:13:42Z</time>
      </trkpt>
      <trkpt lat="44.4805" lon="1.40581">
        <ele>113.7</ele>
        <time>2022-08-10T14:13:46Z</time>
      </trkpt>
      <trkpt lat="44.4805" lon="1.40582">
        <ele>113.4</ele>
        <time>2022-08-10T14:13:48Z</time>
      </trkpt>
      <trkpt lat="44.48051" lon="1.40584">
        <ele>113.2</ele>
        <time>2022-08-10T14:13:50Z</time>
      </trkpt>
      <trkpt lat="44.48051" lon="1.40584">
        <ele>113.1</ele>
        <time>2022-08-10T14:13:52Z</time>
      </trkpt>
      <trkpt lat="44.48052" lon="1.40583">
        <ele>113.1</ele>
        <time>2022-08-10T14:13:54Z</time>
      </trkpt>
      <trkpt lat="44.48053" lon="1.40583">
        <ele>113.1</ele>
        <time>2022-08-10T14:13:56Z</time>
      </trkpt>
      <trkpt lat="44.48053" lon="1.40583">
        <ele>113.1</ele>
        <time>2022-08-10T14:13:58Z</time>
      </trkpt>
      <trkpt lat="44.48053" lon="1.40584">
        <ele>113.1</ele>
        <time>2022-08-10T14:14:00Z</time>
      </trkpt>
      <trkpt lat="44.48054" lon="1.40583">
        <ele>113.1</ele>
        <time>2022-08-10T14:14:02Z</time>
      </trkpt>
      <trkpt lat="44.48055" lon="1.40582">
        <ele>113.2</ele>
        <time>2022-08-10T14:14:04Z</time>
      </trkpt>
      <trkpt lat="44.48055" lon="1.40582">
        <ele>113.3</ele>
        <time>2022-08-10T14:14:06Z</time>
      </trkpt>
      <trkpt lat="44.48055" lon="1.40582">
        <ele>113.3</ele>
        <time>2022-08-10T14:14:08Z</time>
      </trkpt>
      <trkpt lat="44.48055" lon="1.40582">
        <ele>113.3</ele>
        <time>2022-08-10T14:14:12Z</time>
      </trkpt>
      <trkpt lat="44.48056" lon="1.40582">
        <ele>113.2</ele>
        <time>2022-08-10T14:14:16Z</time>
      </trkpt>
      <trkpt lat="44.48056" lon="1.40582">
        <ele>113.2</ele>
        <time>2022-08-10T14:14:20Z</time>
      </trkpt>
      <trkpt lat="44.48056" lon="1.40582">
        <ele>113.2</ele>
        <time>2022-08-10T14:14:24Z</time>
      </trkpt>
      <trkpt lat="44.48056" lon="1.40582">
        <ele>113.2</ele>
        <time>2022-08-10T14:14:28Z</time>
      </trkpt>
      <trkpt lat="44.48056" lon="1.40582">
        <ele>113.2</ele>
        <time>2022-08-10T14:14:32Z</time>
      </trkpt>
      <trkpt lat="44.48056" lon="1.40582">
        <ele>113.2</ele>
        <time>2022-08-10T14:14:36Z</time>
      </trkpt>
      <trkpt lat="44.48056" lon="1.40582">
        <ele>113.2</ele>
        <time>2022-08-10T14:14:40Z</time>
      </trkpt>
      <trkpt lat="44.48056" lon="1.40582">
        <ele>113.2</ele>
        <time>2022-08-10T14:14:44Z</time>
      </trkpt>
      <trkpt lat="44.48056" lon="1.40582">
        <ele>113.2</ele>
        <time>2022-08-10T14:14:48Z</time>
      </trkpt>
      <trkpt lat="44.48056" lon="1.40582">
        <ele>113.2</ele>
        <time>2022-08-10T14:14:52Z</time>
      </trkpt>
      <trkpt lat="44.48055" lon="1.40583">
        <ele>113</ele>
        <time>2022-08-10T14:14:56Z</time>
      </trkpt>
      <trkpt lat="44.48055" lon="1.40583">
        <ele>113</ele>
        <time>2022-08-10T14:14:58Z</time>
      </trkpt>
      <trkpt lat="44.48055" lon="1.40583">
        <ele>113</ele>
        <time>2022-08-10T14:15:02Z</time>
      </trkpt>
      <trkpt lat="44.48055" lon="1.40583">
        <ele>113</ele>
        <time>2022-08-10T14:15:06Z</time>
      </trkpt>
      <trkpt lat="44.48055" lon="1.40583">
        <ele>113</ele>
        <time>2022-08-10T14:15:10Z</time>
      </trkpt>
      <trkpt lat="44.48057" lon="1.40581">
        <ele>113.3</ele>
        <time>2022-08-10T14:15:12Z</time>
      </trkpt>
      <trkpt lat="44.48057" lon="1.40581">
        <ele>113.3</ele>
        <time>2022-08-10T14:15:14Z</time>
      </trkpt>
      <trkpt lat="44.48057" lon="1.40581">
        <ele>113.3</ele>
        <time>2022-08-10T14:15:16Z</time>
      </trkpt>
      <trkpt lat="44.48057" lon="1.40582">
        <ele>113.2</ele>
        <time>2022-08-10T14:15:18Z</time>
      </trkpt>
      <trkpt lat="44.48056" lon="1.40582">
        <ele>113.2</ele>
        <time>2022-08-10T14:15:20Z</time>
      </trkpt>
      <trkpt lat="44.48056" lon="1.40581">
        <ele>113.3</ele>
        <time>2022-08-10T14:15:24Z</time>
      </trkpt>
      <trkpt lat="44.48057" lon="1.40581">
        <ele>113.4</ele>
        <time>2022-08-10T14:15:28Z</time>
      </trkpt>
      <trkpt lat="44.48057" lon="1.40581">
        <ele>113.4</ele>
        <time>2022-08-10T14:15:30Z</time>
      </trkpt>
      <trkpt lat="44.48059" lon="1.4058">
        <ele>113.4</ele>
        <time>2022-08-10T14:15:32Z</time>
      </trkpt>
      <trkpt lat="44.4806" lon="1.4058">
        <ele>113.5</ele>
        <time>2022-08-10T14:15:34Z</time>
      </trkpt>
      <trkpt lat="44.4806" lon="1.40579">
        <ele>113.6</ele>
        <time>2022-08-10T14:15:36Z</time>
      </trkpt>
      <trkpt lat="44.4806" lon="1.40579">
        <ele>113.6</ele>
        <time>2022-08-10T14:15:38Z</time>
      </trkpt>
      <trkpt lat="44.4806" lon="1.40579">
        <ele>113.6</ele>
        <time>2022-08-10T14:15:42Z</time>
      </trkpt>
      <trkpt lat="44.4806" lon="1.40579">
        <ele>113.6</ele>
        <time>2022-08-10T14:15:46Z</time>
      </trkpt>
      <trkpt lat="44.4806" lon="1.40579">
        <ele>113.6</ele>
        <time>2022-08-10T14:15:50Z</time>
      </trkpt>
      <trkpt lat="44.4806" lon="1.40579">
        <ele>113.6</ele>
        <time>2022-08-10T14:15:54Z</time>
      </trkpt>
      <trkpt lat="44.4806" lon="1.40579">
        <ele>113.6</ele>
        <time>2022-08-10T14:15:58Z</time>
      </trkpt>
      <trkpt lat="44.48059" lon="1.40578">
        <ele>113.9</ele>
        <time>2022-08-10T14:16:02Z</time>
      </trkpt>
      <trkpt lat="44.48059" lon="1.40578">
        <ele>113.8</ele>
        <time>2022-08-10T14:16:04Z</time>
      </trkpt>
      <trkpt lat="44.4806" lon="1.40578">
        <ele>113.9</ele>
        <time>2022-08-10T14:16:06Z</time>
      </trkpt>
      <trkpt lat="44.4806" lon="1.40578">
        <ele>113.8</ele>
        <time>2022-08-10T14:16:08Z</time>
      </trkpt>
      <trkpt lat="44.4806" lon="1.40578">
        <ele>113.8</ele>
        <time>2022-08-10T14:16:12Z</time>
      </trkpt>
      <trkpt lat="44.4806" lon="1.40579">
        <ele>113.6</ele>
        <time>2022-08-10T14:16:14Z</time>
      </trkpt>
      <trkpt lat="44.4806" lon="1.40578">
        <ele>113.7</ele>
        <time>2022-08-10T14:16:16Z</time>
      </trkpt>
      <trkpt lat="44.48059" lon="1.40578">
        <ele>113.8</ele>
        <time>2022-08-10T14:16:18Z</time>
      </trkpt>
      <trkpt lat="44.4806" lon="1.40578">
        <ele>113.8</ele>
        <time>2022-08-10T14:16:20Z</time>
      </trkpt>
      <trkpt lat="44.48061" lon="1.40577">
        <ele>114</ele>
        <time>2022-08-10T14:16:22Z</time>
      </trkpt>
      <trkpt lat="44.48063" lon="1.40574">
        <ele>114.4</ele>
        <time>2022-08-10T14:16:24Z</time>
      </trkpt>
      <trkpt lat="44.48065" lon="1.40572">
        <ele>114.7</ele>
        <time>2022-08-10T14:16:26Z</time>
      </trkpt>
      <trkpt lat="44.48067" lon="1.40569">
        <ele>115.3</ele>
        <time>2022-08-10T14:16:28Z</time>
      </trkpt>
      <trkpt lat="44.48071" lon="1.40569">
        <ele>115.2</ele>
        <time>2022-08-10T14:16:30Z</time>
      </trkpt>
      <trkpt lat="44.48075" lon="1.40569">
        <ele>115.1</ele>
        <time>2022-08-10T14:16:32Z</time>
      </trkpt>
      <trkpt lat="44.4808" lon="1.40569">
        <ele>114.8</ele>
        <time>2022-08-10T14:16:34Z</time>
      </trkpt>
      <trkpt lat="44.48084" lon="1.4057">
        <ele>114.6</ele>
        <time>2022-08-10T14:16:36Z</time>
      </trkpt>
      <trkpt lat="44.48088" lon="1.4057">
        <ele>114.5</ele>
        <time>2022-08-10T14:16:38Z</time>
      </trkpt>
      <trkpt lat="44.48094" lon="1.4057">
        <ele>114.5</ele>
        <time>2022-08-10T14:16:40Z</time>
      </trkpt>
      <trkpt lat="44.48099" lon="1.4057">
        <ele>114.4</ele>
        <time>2022-08-10T14:16:42Z</time>
      </trkpt>
      <trkpt lat="44.48105" lon="1.40571">
        <ele>114.3</ele>
        <time>2022-08-10T14:16:44Z</time>
      </trkpt>
      <trkpt lat="44.4811" lon="1.4057">
        <ele>114.3</ele>
        <time>2022-08-10T14:16:46Z</time>
      </trkpt>
      <trkpt lat="44.48115" lon="1.4057">
        <ele>114.3</ele>
        <time>2022-08-10T14:16:48Z</time>
      </trkpt>
      <trkpt lat="44.48121" lon="1.40569">
        <ele>114.4</ele>
        <time>2022-08-10T14:16:50Z</time>
      </trkpt>
      <trkpt lat="44.48127" lon="1.40568">
        <ele>114.4</ele>
        <time>2022-08-10T14:16:52Z</time>
      </trkpt>
      <trkpt lat="44.48132" lon="1.40567">
        <ele>114.6</ele>
        <time>2022-08-10T14:16:54Z</time>
      </trkpt>
      <trkpt lat="44.48138" lon="1.40566">
        <ele>114.7</ele>
        <time>2022-08-10T14:16:56Z</time>
      </trkpt>
      <trkpt lat="44.48145" lon="1.40564">
        <ele>114.8</ele>
        <time>2022-08-10T14:16:58Z</time>
      </trkpt>
      <trkpt lat="44.48151" lon="1.40562">
        <ele>115</ele>
        <time>2022-08-10T14:17:00Z</time>
      </trkpt>
      <trkpt lat="44.48157" lon="1.4056">
        <ele>115.2</ele>
        <time>2022-08-10T14:17:02Z</time>
      </trkpt>
      <trkpt lat="44.48163" lon="1.40558">
        <ele>115.4</ele>
        <time>2022-08-10T14:17:04Z</time>
      </trkpt>
      <trkpt lat="44.48169" lon="1.40556">
        <ele>115.6</ele>
        <time>2022-08-10T14:17:06Z</time>
      </trkpt>
      <trkpt lat="44.48175" lon="1.40554">
        <ele>115.8</ele>
        <time>2022-08-10T14:17:08Z</time>
      </trkpt>
      <trkpt lat="44.48181" lon="1.40553">
        <ele>115.8</ele>
        <time>2022-08-10T14:17:10Z</time>
      </trkpt>
      <trkpt lat="44.48187" lon="1.40551">
        <ele>116</ele>
        <time>2022-08-10T14:17:12Z</time>
      </trkpt>
      <trkpt lat="44.48244" lon="1.40535">
        <ele>116.1</ele>
        <time>2022-08-10T14:17:30Z</time>
      </trkpt>
      <trkpt lat="44.48251" lon="1.40533">
        <ele>116</ele>
        <time>2022-08-10T14:17:32Z</time>
      </trkpt>
      <trkpt lat="44.48257" lon="1.4053">
        <ele>115.9</ele>
        <time>2022-08-10T14:17:34Z</time>
      </trkpt>
      <trkpt lat="44.48263" lon="1.40528">
        <ele>115.7</ele>
        <time>2022-08-10T14:17:36Z</time>
      </trkpt>
      <trkpt lat="44.48269" lon="1.40527">
        <ele>115.5</ele>
        <time>2022-08-10T14:17:38Z</time>
      </trkpt>
      <trkpt lat="44.48275" lon="1.40525">
        <ele>115.3</ele>
        <time>2022-08-10T14:17:40Z</time>
      </trkpt>
      <trkpt lat="44.48282" lon="1.40523">
        <ele>115.1</ele>
        <time>2022-08-10T14:17:42Z</time>
      </trkpt>
      <trkpt lat="44.48287" lon="1.40522">
        <ele>114.8</ele>
        <time>2022-08-10T14:17:44Z</time>
      </trkpt>
      <trkpt lat="44.48294" lon="1.40519">
        <ele>114.5</ele>
        <time>2022-08-10T14:17:46Z</time>
      </trkpt>
      <trkpt lat="44.483" lon="1.40516">
        <ele>114.2</ele>
        <time>2022-08-10T14:17:48Z</time>
      </trkpt>
      <trkpt lat="44.48306" lon="1.40514">
        <ele>113.9</ele>
        <time>2022-08-10T14:17:50Z</time>
      </trkpt>
      <trkpt lat="44.48312" lon="1.40512">
        <ele>113.5</ele>
        <time>2022-08-10T14:17:52Z</time>
      </trkpt>
      <trkpt lat="44.48319" lon="1.4051">
        <ele>113.1</ele>
        <time>2022-08-10T14:17:54Z</time>
      </trkpt>
      <trkpt lat="44.48325" lon="1.40508">
        <ele>112.7</ele>
        <time>2022-08-10T14:17:56Z</time>
      </trkpt>
      <trkpt lat="44.48332" lon="1.40506">
        <ele>112.2</ele>
        <time>2022-08-10T14:17:58Z</time>
      </trkpt>
      <trkpt lat="44.48338" lon="1.40504">
        <ele>112.4</ele>
        <time>2022-08-10T14:18:00Z</time>
      </trkpt>
      <trkpt lat="44.48345" lon="1.40503">
        <ele>112.7</ele>
        <time>2022-08-10T14:18:02Z</time>
      </trkpt>
      <trkpt lat="44.48351" lon="1.40501">
        <ele>113.1</ele>
        <time>2022-08-10T14:18:04Z</time>
      </trkpt>
      <trkpt lat="44.48357" lon="1.40499">
        <ele>113.5</ele>
        <time>2022-08-10T14:18:06Z</time>
      </trkpt>
      <trkpt lat="44.48363" lon="1.40497">
        <ele>114</ele>
        <time>2022-08-10T14:18:08Z</time>
      </trkpt>
      <trkpt lat="44.48368" lon="1.40494">
        <ele>114.5</ele>
        <time>2022-08-10T14:18:10Z</time>
      </trkpt>
      <trkpt lat="44.48375" lon="1.40492">
        <ele>114.9</ele>
        <time>2022-08-10T14:18:12Z</time>
      </trkpt>
      <trkpt lat="44.4838" lon="1.40488">
        <ele>115.4</ele>
        <time>2022-08-10T14:18:14Z</time>
      </trkpt>
      <trkpt lat="44.48386" lon="1.40486">
        <ele>115.7</ele>
        <time>2022-08-10T14:18:16Z</time>
      </trkpt>
      <trkpt lat="44.48392" lon="1.40482">
        <ele>116.1</ele>
        <time>2022-08-10T14:18:18Z</time>
      </trkpt>
      <trkpt lat="44.48398" lon="1.40478">
        <ele>116.4</ele>
        <time>2022-08-10T14:18:20Z</time>
      </trkpt>
      <trkpt lat="44.48403" lon="1.40474">
        <ele>116.6</ele>
        <time>2022-08-10T14:18:22Z</time>
      </trkpt>
      <trkpt lat="44.48409" lon="1.40472">
        <ele>116.8</ele>
        <time>2022-08-10T14:18:24Z</time>
      </trkpt>
      <trkpt lat="44.48414" lon="1.40468">
        <ele>117</ele>
        <time>2022-08-10T14:18:26Z</time>
      </trkpt>
      <trkpt lat="44.4842" lon="1.40464">
        <ele>117</ele>
        <time>2022-08-10T14:18:28Z</time>
      </trkpt>
      <trkpt lat="44.48425" lon="1.4046">
        <ele>117</ele>
        <time>2022-08-10T14:18:30Z</time>
      </trkpt>
      <trkpt lat="44.48431" lon="1.40456">
        <ele>117</ele>
        <time>2022-08-10T14:18:32Z</time>
      </trkpt>
      <trkpt lat="44.48436" lon="1.40452">
        <ele>116.9</ele>
        <time>2022-08-10T14:18:34Z</time>
      </trkpt>
      <trkpt lat="44.48442" lon="1.40447">
        <ele>116.8</ele>
        <time>2022-08-10T14:18:36Z</time>
      </trkpt>
      <trkpt lat="44.48447" lon="1.40443">
        <ele>116.7</ele>
        <time>2022-08-10T14:18:38Z</time>
      </trkpt>
      <trkpt lat="44.48453" lon="1.40439">
        <ele>116.6</ele>
        <time>2022-08-10T14:18:40Z</time>
      </trkpt>
      <trkpt lat="44.48458" lon="1.40434">
        <ele>116.4</ele>
        <time>2022-08-10T14:18:42Z</time>
      </trkpt>
      <trkpt lat="44.48463" lon="1.40428">
        <ele>116.2</ele>
        <time>2022-08-10T14:18:44Z</time>
      </trkpt>
      <trkpt lat="44.48468" lon="1.40422">
        <ele>115.9</ele>
        <time>2022-08-10T14:18:46Z</time>
      </trkpt>
      <trkpt lat="44.48474" lon="1.40417">
        <ele>115.6</ele>
        <time>2022-08-10T14:18:48Z</time>
      </trkpt>
      <trkpt lat="44.4848" lon="1.40412">
        <ele>115.6</ele>
        <time>2022-08-10T14:18:50Z</time>
      </trkpt>
      <trkpt lat="44.48486" lon="1.40407">
        <ele>115.5</ele>
        <time>2022-08-10T14:18:52Z</time>
      </trkpt>
      <trkpt lat="44.48491" lon="1.40402">
        <ele>115.4</ele>
        <time>2022-08-10T14:18:54Z</time>
      </trkpt>
      <trkpt lat="44.48498" lon="1.40398">
        <ele>115.1</ele>
        <time>2022-08-10T14:18:56Z</time>
      </trkpt>
      <trkpt lat="44.48503" lon="1.40395">
        <ele>115</ele>
        <time>2022-08-10T14:18:58Z</time>
      </trkpt>
      <trkpt lat="44.48509" lon="1.4039">
        <ele>115</ele>
        <time>2022-08-10T14:19:00Z</time>
      </trkpt>
      <trkpt lat="44.48515" lon="1.40386">
        <ele>115.1</ele>
        <time>2022-08-10T14:19:02Z</time>
      </trkpt>
      <trkpt lat="44.4852" lon="1.40383">
        <ele>115.2</ele>
        <time>2022-08-10T14:19:04Z</time>
      </trkpt>
      <trkpt lat="44.48524" lon="1.4038">
        <ele>115.2</ele>
        <time>2022-08-10T14:19:06Z</time>
      </trkpt>
      <trkpt lat="44.4853" lon="1.40378">
        <ele>115.3</ele>
        <time>2022-08-10T14:19:08Z</time>
      </trkpt>
      <trkpt lat="44.48535" lon="1.40376">
        <ele>115.4</ele>
        <time>2022-08-10T14:19:10Z</time>
      </trkpt>
      <trkpt lat="44.48541" lon="1.40375">
        <ele>115.5</ele>
        <time>2022-08-10T14:19:12Z</time>
      </trkpt>
      <trkpt lat="44.48549" lon="1.40376">
        <ele>115.6</ele>
        <time>2022-08-10T14:19:14Z</time>
      </trkpt>
      <trkpt lat="44.48556" lon="1.40377">
        <ele>115.6</ele>
        <time>2022-08-10T14:19:16Z</time>
      </trkpt>
      <trkpt lat="44.48564" lon="1.40379">
        <ele>115.6</ele>
        <time>2022-08-10T14:19:18Z</time>
      </trkpt>
      <trkpt lat="44.48569" lon="1.4038">
        <ele>115.6</ele>
        <time>2022-08-10T14:19:20Z</time>
      </trkpt>
      <trkpt lat="44.48577" lon="1.40377">
        <ele>115.8</ele>
        <time>2022-08-10T14:19:22Z</time>
      </trkpt>
      <trkpt lat="44.48584" lon="1.40375">
        <ele>116</ele>
        <time>2022-08-10T14:19:24Z</time>
      </trkpt>
      <trkpt lat="44.4859" lon="1.40373">
        <ele>116.4</ele>
        <time>2022-08-10T14:19:26Z</time>
      </trkpt>
      <trkpt lat="44.48598" lon="1.40371">
        <ele>116.8</ele>
        <time>2022-08-10T14:19:28Z</time>
      </trkpt>
      <trkpt lat="44.48605" lon="1.40368">
        <ele>117.2</ele>
        <time>2022-08-10T14:19:30Z</time>
      </trkpt>
      <trkpt lat="44.48612" lon="1.40368">
        <ele>117.5</ele>
        <time>2022-08-10T14:19:32Z</time>
      </trkpt>
      <trkpt lat="44.48619" lon="1.40366">
        <ele>117.9</ele>
        <time>2022-08-10T14:19:34Z</time>
      </trkpt>
      <trkpt lat="44.48627" lon="1.40365">
        <ele>118.3</ele>
        <time>2022-08-10T14:19:36Z</time>
      </trkpt>
      <trkpt lat="44.48638" lon="1.40361">
        <ele>119.1</ele>
        <time>2022-08-10T14:19:38Z</time>
      </trkpt>
      <trkpt lat="44.48651" lon="1.40355">
        <ele>120.2</ele>
        <time>2022-08-10T14:19:40Z</time>
      </trkpt>
      <trkpt lat="44.48667" lon="1.40342">
        <ele>122.2</ele>
        <time>2022-08-10T14:19:42Z</time>
      </trkpt>
      <trkpt lat="44.48654" lon="1.40364">
        <ele>119.5</ele>
        <time>2022-08-10T14:19:44Z</time>
      </trkpt>
      <trkpt lat="44.4866" lon="1.40363">
        <ele>119.9</ele>
        <time>2022-08-10T14:19:46Z</time>
      </trkpt>
      <trkpt lat="44.4867" lon="1.40362">
        <ele>120.4</ele>
        <time>2022-08-10T14:19:48Z</time>
      </trkpt>
      <trkpt lat="44.48677" lon="1.40362">
        <ele>120.6</ele>
        <time>2022-08-10T14:19:50Z</time>
      </trkpt>
      <trkpt lat="44.48685" lon="1.40362">
        <ele>120.8</ele>
        <time>2022-08-10T14:19:52Z</time>
      </trkpt>
      <trkpt lat="44.48693" lon="1.40361">
        <ele>121.1</ele>
        <time>2022-08-10T14:19:54Z</time>
      </trkpt>
      <trkpt lat="44.487" lon="1.4036">
        <ele>121.5</ele>
        <time>2022-08-10T14:19:56Z</time>
      </trkpt>
      <trkpt lat="44.48708" lon="1.40362">
        <ele>121.6</ele>
        <time>2022-08-10T14:19:58Z</time>
      </trkpt>
      <trkpt lat="44.48715" lon="1.40363">
        <ele>121.7</ele>
        <time>2022-08-10T14:20:00Z</time>
      </trkpt>
      <trkpt lat="44.48722" lon="1.40364">
        <ele>121.8</ele>
        <time>2022-08-10T14:20:02Z</time>
      </trkpt>
      <trkpt lat="44.4873" lon="1.40364">
        <ele>122.1</ele>
        <time>2022-08-10T14:20:04Z</time>
      </trkpt>
      <trkpt lat="44.48739" lon="1.40365">
        <ele>122.3</ele>
        <time>2022-08-10T14:20:06Z</time>
      </trkpt>
      <trkpt lat="44.48747" lon="1.40366">
        <ele>122.3</ele>
        <time>2022-08-10T14:20:08Z</time>
      </trkpt>
      <trkpt lat="44.48755" lon="1.40366">
        <ele>122.2</ele>
        <time>2022-08-10T14:20:10Z</time>
      </trkpt>
      <trkpt lat="44.48763" lon="1.40367">
        <ele>121.7</ele>
        <time>2022-08-10T14:20:12Z</time>
      </trkpt>
      <trkpt lat="44.4877" lon="1.40368">
        <ele>121.4</ele>
        <time>2022-08-10T14:20:14Z</time>
      </trkpt>
      <trkpt lat="44.48778" lon="1.40368">
        <ele>121</ele>
        <time>2022-08-10T14:20:16Z</time>
      </trkpt>
      <trkpt lat="44.48787" lon="1.4037">
        <ele>120.5</ele>
        <time>2022-08-10T14:20:18Z</time>
      </trkpt>
      <trkpt lat="44.48792" lon="1.40371">
        <ele>120.3</ele>
        <time>2022-08-10T14:20:20Z</time>
      </trkpt>
      <trkpt lat="44.48801" lon="1.40373">
        <ele>119.8</ele>
        <time>2022-08-10T14:20:22Z</time>
      </trkpt>
      <trkpt lat="44.48811" lon="1.4037">
        <ele>119.5</ele>
        <time>2022-08-10T14:20:24Z</time>
      </trkpt>
      <trkpt lat="44.48821" lon="1.40373">
        <ele>119</ele>
        <time>2022-08-10T14:20:26Z</time>
      </trkpt>
      <trkpt lat="44.4883" lon="1.40373">
        <ele>118.6</ele>
        <time>2022-08-10T14:20:28Z</time>
      </trkpt>
      <trkpt lat="44.48839" lon="1.40375">
        <ele>118.3</ele>
        <time>2022-08-10T14:20:30Z</time>
      </trkpt>
      <trkpt lat="44.48846" lon="1.40374">
        <ele>118.1</ele>
        <time>2022-08-10T14:20:32Z</time>
      </trkpt>
      <trkpt lat="44.48853" lon="1.40378">
        <ele>117.8</ele>
        <time>2022-08-10T14:20:34Z</time>
      </trkpt>
      <trkpt lat="44.48861" lon="1.40381">
        <ele>117.5</ele>
        <time>2022-08-10T14:20:36Z</time>
      </trkpt>
      <trkpt lat="44.48869" lon="1.40382">
        <ele>117.2</ele>
        <time>2022-08-10T14:20:38Z</time>
      </trkpt>
      <trkpt lat="44.48877" lon="1.40384">
        <ele>116.9</ele>
        <time>2022-08-10T14:20:40Z</time>
      </trkpt>
      <trkpt lat="44.48884" lon="1.40383">
        <ele>116.7</ele>
        <time>2022-08-10T14:20:42Z</time>
      </trkpt>
      <trkpt lat="44.48894" lon="1.40385">
        <ele>116.3</ele>
        <time>2022-08-10T14:20:44Z</time>
      </trkpt>
      <trkpt lat="44.48898" lon="1.40386">
        <ele>116.1</ele>
        <time>2022-08-10T14:20:46Z</time>
      </trkpt>
      <trkpt lat="44.48905" lon="1.40386">
        <ele>115.9</ele>
        <time>2022-08-10T14:20:48Z</time>
      </trkpt>
      <trkpt lat="44.48911" lon="1.40386">
        <ele>115.7</ele>
        <time>2022-08-10T14:20:50Z</time>
      </trkpt>
      <trkpt lat="44.48918" lon="1.40386">
        <ele>115.4</ele>
        <time>2022-08-10T14:20:52Z</time>
      </trkpt>
      <trkpt lat="44.48926" lon="1.40387">
        <ele>115.1</ele>
        <time>2022-08-10T14:20:54Z</time>
      </trkpt>
      <trkpt lat="44.48933" lon="1.40387">
        <ele>114.8</ele>
        <time>2022-08-10T14:20:56Z</time>
      </trkpt>
      <trkpt lat="44.48941" lon="1.40388">
        <ele>114.5</ele>
        <time>2022-08-10T14:20:58Z</time>
      </trkpt>
      <trkpt lat="44.48948" lon="1.40386">
        <ele>114.3</ele>
        <time>2022-08-10T14:21:00Z</time>
      </trkpt>
      <trkpt lat="44.48956" lon="1.40386">
        <ele>114</ele>
        <time>2022-08-10T14:21:02Z</time>
      </trkpt>
      <trkpt lat="44.48964" lon="1.40385">
        <ele>113.7</ele>
        <time>2022-08-10T14:21:04Z</time>
      </trkpt>
      <trkpt lat="44.48972" lon="1.40384">
        <ele>113.5</ele>
        <time>2022-08-10T14:21:06Z</time>
      </trkpt>
      <trkpt lat="44.48979" lon="1.40384">
        <ele>113.2</ele>
        <time>2022-08-10T14:21:08Z</time>
      </trkpt>
      <trkpt lat="44.48988" lon="1.40382">
        <ele>112.9</ele>
        <time>2022-08-10T14:21:10Z</time>
      </trkpt>
      <trkpt lat="44.48996" lon="1.40381">
        <ele>112.6</ele>
        <time>2022-08-10T14:21:12Z</time>
      </trkpt>
      <trkpt lat="44.49004" lon="1.4038">
        <ele>112.3</ele>
        <time>2022-08-10T14:21:14Z</time>
      </trkpt>
      <trkpt lat="44.49012" lon="1.40378">
        <ele>112.2</ele>
        <time>2022-08-10T14:21:16Z</time>
      </trkpt>
      <trkpt lat="44.49018" lon="1.40377">
        <ele>112</ele>
        <time>2022-08-10T14:21:18Z</time>
      </trkpt>
      <trkpt lat="44.49026" lon="1.40375">
        <ele>111.9</ele>
        <time>2022-08-10T14:21:20Z</time>
      </trkpt>
      <trkpt lat="44.49033" lon="1.40374">
        <ele>111.7</ele>
        <time>2022-08-10T14:21:22Z</time>
      </trkpt>
      <trkpt lat="44.49039" lon="1.40371">
        <ele>111.6</ele>
        <time>2022-08-10T14:21:24Z</time>
      </trkpt>
      <trkpt lat="44.49046" lon="1.40369">
        <ele>111.4</ele>
        <time>2022-08-10T14:21:26Z</time>
      </trkpt>
      <trkpt lat="44.49054" lon="1.40367">
        <ele>111.2</ele>
        <time>2022-08-10T14:21:28Z</time>
      </trkpt>
      <trkpt lat="44.49062" lon="1.40363">
        <ele>110.9</ele>
        <time>2022-08-10T14:21:30Z</time>
      </trkpt>
      <trkpt lat="44.49069" lon="1.4036">
        <ele>110.7</ele>
        <time>2022-08-10T14:21:32Z</time>
      </trkpt>
      <trkpt lat="44.49077" lon="1.40356">
        <ele>110.5</ele>
        <time>2022-08-10T14:21:34Z</time>
      </trkpt>
      <trkpt lat="44.49085" lon="1.40353">
        <ele>110.3</ele>
        <time>2022-08-10T14:21:36Z</time>
      </trkpt>
      <trkpt lat="44.49092" lon="1.4035">
        <ele>110.3</ele>
        <time>2022-08-10T14:21:38Z</time>
      </trkpt>
      <trkpt lat="44.49101" lon="1.40345">
        <ele>110.3</ele>
        <time>2022-08-10T14:21:40Z</time>
      </trkpt>
      <trkpt lat="44.49108" lon="1.40341">
        <ele>110.4</ele>
        <time>2022-08-10T14:21:42Z</time>
      </trkpt>
      <trkpt lat="44.49117" lon="1.40339">
        <ele>110.5</ele>
        <time>2022-08-10T14:21:44Z</time>
      </trkpt>
      <trkpt lat="44.49125" lon="1.40335">
        <ele>110.5</ele>
        <time>2022-08-10T14:21:46Z</time>
      </trkpt>
      <trkpt lat="44.49134" lon="1.40332">
        <ele>110.6</ele>
        <time>2022-08-10T14:21:48Z</time>
      </trkpt>
      <trkpt lat="44.49142" lon="1.4033">
        <ele>110.7</ele>
        <time>2022-08-10T14:21:50Z</time>
      </trkpt>
      <trkpt lat="44.49149" lon="1.40326">
        <ele>110.7</ele>
        <time>2022-08-10T14:21:52Z</time>
      </trkpt>
      <trkpt lat="44.49157" lon="1.40323">
        <ele>110.8</ele>
        <time>2022-08-10T14:21:54Z</time>
      </trkpt>
      <trkpt lat="44.49165" lon="1.40318">
        <ele>110.8</ele>
        <time>2022-08-10T14:21:56Z</time>
      </trkpt>
      <trkpt lat="44.49172" lon="1.40318">
        <ele>111</ele>
        <time>2022-08-10T14:21:58Z</time>
      </trkpt>
      <trkpt lat="44.49181" lon="1.40315">
        <ele>111.2</ele>
        <time>2022-08-10T14:22:00Z</time>
      </trkpt>
      <trkpt lat="44.49189" lon="1.40308">
        <ele>111.4</ele>
        <time>2022-08-10T14:22:02Z</time>
      </trkpt>
      <trkpt lat="44.49194" lon="1.40304">
        <ele>111.5</ele>
        <time>2022-08-10T14:22:04Z</time>
      </trkpt>
      <trkpt lat="44.49199" lon="1.40291">
        <ele>111.5</ele>
        <time>2022-08-10T14:22:06Z</time>
      </trkpt>
      <trkpt lat="44.49203" lon="1.40276">
        <ele>111.3</ele>
        <time>2022-08-10T14:22:08Z</time>
      </trkpt>
      <trkpt lat="44.49207" lon="1.40261">
        <ele>111.2</ele>
        <time>2022-08-10T14:22:10Z</time>
      </trkpt>
      <trkpt lat="44.4921" lon="1.40246">
        <ele>111.1</ele>
        <time>2022-08-10T14:22:12Z</time>
      </trkpt>
      <trkpt lat="44.49214" lon="1.40232">
        <ele>111.3</ele>
        <time>2022-08-10T14:22:14Z</time>
      </trkpt>
      <trkpt lat="44.49216" lon="1.4022">
        <ele>111.5</ele>
        <time>2022-08-10T14:22:16Z</time>
      </trkpt>
      <trkpt lat="44.49219" lon="1.40207">
        <ele>111.8</ele>
        <time>2022-08-10T14:22:18Z</time>
      </trkpt>
      <trkpt lat="44.49222" lon="1.40194">
        <ele>112</ele>
        <time>2022-08-10T14:22:20Z</time>
      </trkpt>
      <trkpt lat="44.49227" lon="1.40188">
        <ele>112.2</ele>
        <time>2022-08-10T14:22:22Z</time>
      </trkpt>
      <trkpt lat="44.49228" lon="1.40173">
        <ele>112.4</ele>
        <time>2022-08-10T14:22:24Z</time>
      </trkpt>
      <trkpt lat="44.4923" lon="1.40164">
        <ele>112.5</ele>
        <time>2022-08-10T14:22:26Z</time>
      </trkpt>
      <trkpt lat="44.49234" lon="1.40153">
        <ele>112.3</ele>
        <time>2022-08-10T14:22:28Z</time>
      </trkpt>
      <trkpt lat="44.49234" lon="1.4014">
        <ele>112.1</ele>
        <time>2022-08-10T14:22:30Z</time>
      </trkpt>
      <trkpt lat="44.49239" lon="1.4013">
        <ele>112</ele>
        <time>2022-08-10T14:22:32Z</time>
      </trkpt>
      <trkpt lat="44.49241" lon="1.4012">
        <ele>111.8</ele>
        <time>2022-08-10T14:22:34Z</time>
      </trkpt>
      <trkpt lat="44.49246" lon="1.40109">
        <ele>111.6</ele>
        <time>2022-08-10T14:22:36Z</time>
      </trkpt>
      <trkpt lat="44.49248" lon="1.401">
        <ele>111.4</ele>
        <time>2022-08-10T14:22:38Z</time>
      </trkpt>
      <trkpt lat="44.49253" lon="1.40088">
        <ele>111.2</ele>
        <time>2022-08-10T14:22:40Z</time>
      </trkpt>
      <trkpt lat="44.49257" lon="1.40078">
        <ele>111.4</ele>
        <time>2022-08-10T14:22:42Z</time>
      </trkpt>
      <trkpt lat="44.49261" lon="1.40069">
        <ele>111.7</ele>
        <time>2022-08-10T14:22:44Z</time>
      </trkpt>
      <trkpt lat="44.49266" lon="1.40058">
        <ele>111.9</ele>
        <time>2022-08-10T14:22:46Z</time>
      </trkpt>
      <trkpt lat="44.49271" lon="1.40049">
        <ele>112.1</ele>
        <time>2022-08-10T14:22:48Z</time>
      </trkpt>
      <trkpt lat="44.49275" lon="1.40039">
        <ele>112.3</ele>
        <time>2022-08-10T14:22:50Z</time>
      </trkpt>
      <trkpt lat="44.4928" lon="1.40029">
        <ele>112.4</ele>
        <time>2022-08-10T14:22:52Z</time>
      </trkpt>
      <trkpt lat="44.49284" lon="1.40018">
        <ele>112.5</ele>
        <time>2022-08-10T14:22:54Z</time>
      </trkpt>
      <trkpt lat="44.49288" lon="1.40007">
        <ele>112.5</ele>
        <time>2022-08-10T14:22:56Z</time>
      </trkpt>
      <trkpt lat="44.49291" lon="1.39995">
        <ele>112.5</ele>
        <time>2022-08-10T14:22:58Z</time>
      </trkpt>
      <trkpt lat="44.49295" lon="1.39985">
        <ele>112.5</ele>
        <time>2022-08-10T14:23:00Z</time>
      </trkpt>
      <trkpt lat="44.493" lon="1.39974">
        <ele>112.6</ele>
        <time>2022-08-10T14:23:02Z</time>
      </trkpt>
      <trkpt lat="44.49304" lon="1.39961">
        <ele>112.7</ele>
        <time>2022-08-10T14:23:04Z</time>
      </trkpt>
      <trkpt lat="44.49309" lon="1.3995">
        <ele>112.7</ele>
        <time>2022-08-10T14:23:06Z</time>
      </trkpt>
      <trkpt lat="44.49313" lon="1.39939">
        <ele>112.8</ele>
        <time>2022-08-10T14:23:08Z</time>
      </trkpt>
      <trkpt lat="44.49317" lon="1.39929">
        <ele>112.8</ele>
        <time>2022-08-10T14:23:10Z</time>
      </trkpt>
      <trkpt lat="44.49321" lon="1.39917">
        <ele>112.9</ele>
        <time>2022-08-10T14:23:12Z</time>
      </trkpt>
      <trkpt lat="44.49325" lon="1.39908">
        <ele>112.9</ele>
        <time>2022-08-10T14:23:14Z</time>
      </trkpt>
      <trkpt lat="44.49329" lon="1.39898">
        <ele>113</ele>
        <time>2022-08-10T14:23:16Z</time>
      </trkpt>
      <trkpt lat="44.49332" lon="1.39889">
        <ele>113</ele>
        <time>2022-08-10T14:23:18Z</time>
      </trkpt>
      <trkpt lat="44.49335" lon="1.39878">
        <ele>113.1</ele>
        <time>2022-08-10T14:23:20Z</time>
      </trkpt>
      <trkpt lat="44.49339" lon="1.39868">
        <ele>113.3</ele>
        <time>2022-08-10T14:23:22Z</time>
      </trkpt>
      <trkpt lat="44.49343" lon="1.39859">
        <ele>113.4</ele>
        <time>2022-08-10T14:23:24Z</time>
      </trkpt>
      <trkpt lat="44.49346" lon="1.39848">
        <ele>113.4</ele>
        <time>2022-08-10T14:23:26Z</time>
      </trkpt>
      <trkpt lat="44.49349" lon="1.39838">
        <ele>113.4</ele>
        <time>2022-08-10T14:23:28Z</time>
      </trkpt>
      <trkpt lat="44.49352" lon="1.39828">
        <ele>113.4</ele>
        <time>2022-08-10T14:23:30Z</time>
      </trkpt>
      <trkpt lat="44.49355" lon="1.39816">
        <ele>113.5</ele>
        <time>2022-08-10T14:23:32Z</time>
      </trkpt>
      <trkpt lat="44.49358" lon="1.39806">
        <ele>113.5</ele>
        <time>2022-08-10T14:23:34Z</time>
      </trkpt>
      <trkpt lat="44.49361" lon="1.39796">
        <ele>113.5</ele>
        <time>2022-08-10T14:23:36Z</time>
      </trkpt>
      <trkpt lat="44.49363" lon="1.39784">
        <ele>113.5</ele>
        <time>2022-08-10T14:23:38Z</time>
      </trkpt>
      <trkpt lat="44.49367" lon="1.39774">
        <ele>113.4</ele>
        <time>2022-08-10T14:23:40Z</time>
      </trkpt>
      <trkpt lat="44.49369" lon="1.39764">
        <ele>113.3</ele>
        <time>2022-08-10T14:23:42Z</time>
      </trkpt>
      <trkpt lat="44.49372" lon="1.39754">
        <ele>113.1</ele>
        <time>2022-08-10T14:23:44Z</time>
      </trkpt>
      <trkpt lat="44.49375" lon="1.39744">
        <ele>113</ele>
        <time>2022-08-10T14:23:46Z</time>
      </trkpt>
      <trkpt lat="44.49377" lon="1.39739">
        <ele>113</ele>
        <time>2022-08-10T14:23:48Z</time>
      </trkpt>
      <trkpt lat="44.4938" lon="1.39727">
        <ele>112.9</ele>
        <time>2022-08-10T14:23:50Z</time>
      </trkpt>
      <trkpt lat="44.49381" lon="1.39716">
        <ele>112.9</ele>
        <time>2022-08-10T14:23:52Z</time>
      </trkpt>
      <trkpt lat="44.49383" lon="1.39708">
        <ele>112.9</ele>
        <time>2022-08-10T14:23:54Z</time>
      </trkpt>
      <trkpt lat="44.49386" lon="1.39702">
        <ele>112.9</ele>
        <time>2022-08-10T14:23:56Z</time>
      </trkpt>
      <trkpt lat="44.49387" lon="1.3969">
        <ele>112.9</ele>
        <time>2022-08-10T14:23:58Z</time>
      </trkpt>
      <trkpt lat="44.49389" lon="1.3968">
        <ele>112.9</ele>
        <time>2022-08-10T14:24:00Z</time>
      </trkpt>
      <trkpt lat="44.49391" lon="1.39671">
        <ele>113</ele>
        <time>2022-08-10T14:24:02Z</time>
      </trkpt>
      <trkpt lat="44.49392" lon="1.39659">
        <ele>113.1</ele>
        <time>2022-08-10T14:24:04Z</time>
      </trkpt>
      <trkpt lat="44.49394" lon="1.39648">
        <ele>113.3</ele>
        <time>2022-08-10T14:24:06Z</time>
      </trkpt>
      <trkpt lat="44.49395" lon="1.39636">
        <ele>113.5</ele>
        <time>2022-08-10T14:24:08Z</time>
      </trkpt>
      <trkpt lat="44.49396" lon="1.39626">
        <ele>113.7</ele>
        <time>2022-08-10T14:24:10Z</time>
      </trkpt>
      <trkpt lat="44.49396" lon="1.39616">
        <ele>113.9</ele>
        <time>2022-08-10T14:24:12Z</time>
      </trkpt>
      <trkpt lat="44.49395" lon="1.39607">
        <ele>114.1</ele>
        <time>2022-08-10T14:24:14Z</time>
      </trkpt>
      <trkpt lat="44.49393" lon="1.39599">
        <ele>114.2</ele>
        <time>2022-08-10T14:24:16Z</time>
      </trkpt>
      <trkpt lat="44.49391" lon="1.39592">
        <ele>114.2</ele>
        <time>2022-08-10T14:24:18Z</time>
      </trkpt>
      <trkpt lat="44.49387" lon="1.39586">
        <ele>114.2</ele>
        <time>2022-08-10T14:24:20Z</time>
      </trkpt>
      <trkpt lat="44.49383" lon="1.39579">
        <ele>113.9</ele>
        <time>2022-08-10T14:24:22Z</time>
      </trkpt>
      <trkpt lat="44.49379" lon="1.39571">
        <ele>113.4</ele>
        <time>2022-08-10T14:24:24Z</time>
      </trkpt>
      <trkpt lat="44.49375" lon="1.39562">
        <ele>112.9</ele>
        <time>2022-08-10T14:24:26Z</time>
      </trkpt>
      <trkpt lat="44.4937" lon="1.39555">
        <ele>112.5</ele>
        <time>2022-08-10T14:24:28Z</time>
      </trkpt>
      <trkpt lat="44.49365" lon="1.39548">
        <ele>112.1</ele>
        <time>2022-08-10T14:24:30Z</time>
      </trkpt>
      <trkpt lat="44.49362" lon="1.39541">
        <ele>111.8</ele>
        <time>2022-08-10T14:24:32Z</time>
      </trkpt>
      <trkpt lat="44.49357" lon="1.39535">
        <ele>111.6</ele>
        <time>2022-08-10T14:24:34Z</time>
      </trkpt>
      <trkpt lat="44.49353" lon="1.39528">
        <ele>111.3</ele>
        <time>2022-08-10T14:24:36Z</time>
      </trkpt>
      <trkpt lat="44.49349" lon="1.39522">
        <ele>111.2</ele>
        <time>2022-08-10T14:24:38Z</time>
      </trkpt>
      <trkpt lat="44.49345" lon="1.39516">
        <ele>111.1</ele>
        <time>2022-08-10T14:24:40Z</time>
      </trkpt>
      <trkpt lat="44.49342" lon="1.39509">
        <ele>111</ele>
        <time>2022-08-10T14:24:42Z</time>
      </trkpt>
      <trkpt lat="44.49338" lon="1.39502">
        <ele>110.9</ele>
        <time>2022-08-10T14:24:44Z</time>
      </trkpt>
      <trkpt lat="44.49335" lon="1.39496">
        <ele>111</ele>
        <time>2022-08-10T14:24:46Z</time>
      </trkpt>
      <trkpt lat="44.49332" lon="1.3949">
        <ele>111.1</ele>
        <time>2022-08-10T14:24:48Z</time>
      </trkpt>
      <trkpt lat="44.49328" lon="1.39483">
        <ele>111.3</ele>
        <time>2022-08-10T14:24:50Z</time>
      </trkpt>
      <trkpt lat="44.49324" lon="1.39476">
        <ele>111.4</ele>
        <time>2022-08-10T14:24:52Z</time>
      </trkpt>
      <trkpt lat="44.49321" lon="1.3947">
        <ele>111.6</ele>
        <time>2022-08-10T14:24:54Z</time>
      </trkpt>
      <trkpt lat="44.49317" lon="1.39464">
        <ele>111.8</ele>
        <time>2022-08-10T14:24:56Z</time>
      </trkpt>
      <trkpt lat="44.49313" lon="1.3946">
        <ele>112</ele>
        <time>2022-08-10T14:24:58Z</time>
      </trkpt>
      <trkpt lat="44.49307" lon="1.39456">
        <ele>112.3</ele>
        <time>2022-08-10T14:25:00Z</time>
      </trkpt>
      <trkpt lat="44.49304" lon="1.39454">
        <ele>112.4</ele>
        <time>2022-08-10T14:25:02Z</time>
      </trkpt>
      <trkpt lat="44.49297" lon="1.39453">
        <ele>112.7</ele>
        <time>2022-08-10T14:25:04Z</time>
      </trkpt>
      <trkpt lat="44.49292" lon="1.39453">
        <ele>113</ele>
        <time>2022-08-10T14:25:06Z</time>
      </trkpt>
      <trkpt lat="44.49286" lon="1.39454">
        <ele>113.3</ele>
        <time>2022-08-10T14:25:08Z</time>
      </trkpt>
      <trkpt lat="44.49281" lon="1.39454">
        <ele>113.5</ele>
        <time>2022-08-10T14:25:10Z</time>
      </trkpt>
      <trkpt lat="44.49275" lon="1.39456">
        <ele>113.8</ele>
        <time>2022-08-10T14:25:12Z</time>
      </trkpt>
      <trkpt lat="44.49268" lon="1.3946">
        <ele>114.1</ele>
        <time>2022-08-10T14:25:14Z</time>
      </trkpt>
      <trkpt lat="44.49263" lon="1.39464">
        <ele>114.4</ele>
        <time>2022-08-10T14:25:16Z</time>
      </trkpt>
      <trkpt lat="44.49256" lon="1.39468">
        <ele>114.7</ele>
        <time>2022-08-10T14:25:18Z</time>
      </trkpt>
      <trkpt lat="44.49249" lon="1.39471">
        <ele>115</ele>
        <time>2022-08-10T14:25:20Z</time>
      </trkpt>
      <trkpt lat="44.49243" lon="1.39476">
        <ele>114.9</ele>
        <time>2022-08-10T14:25:22Z</time>
      </trkpt>
      <trkpt lat="44.49236" lon="1.39478">
        <ele>114.8</ele>
        <time>2022-08-10T14:25:24Z</time>
      </trkpt>
      <trkpt lat="44.49232" lon="1.39483">
        <ele>114.7</ele>
        <time>2022-08-10T14:25:26Z</time>
      </trkpt>
      <trkpt lat="44.49225" lon="1.39487">
        <ele>114.7</ele>
        <time>2022-08-10T14:25:28Z</time>
      </trkpt>
      <trkpt lat="44.49218" lon="1.39491">
        <ele>114.6</ele>
        <time>2022-08-10T14:25:30Z</time>
      </trkpt>
      <trkpt lat="44.49212" lon="1.39496">
        <ele>114.5</ele>
        <time>2022-08-10T14:25:32Z</time>
      </trkpt>
      <trkpt lat="44.49204" lon="1.39501">
        <ele>114.4</ele>
        <time>2022-08-10T14:25:34Z</time>
      </trkpt>
      <trkpt lat="44.49198" lon="1.39504">
        <ele>114.4</ele>
        <time>2022-08-10T14:25:36Z</time>
      </trkpt>
      <trkpt lat="44.49192" lon="1.39509">
        <ele>114.3</ele>
        <time>2022-08-10T14:25:38Z</time>
      </trkpt>
      <trkpt lat="44.49184" lon="1.39513">
        <ele>114.3</ele>
        <time>2022-08-10T14:25:40Z</time>
      </trkpt>
      <trkpt lat="44.49176" lon="1.39518">
        <ele>114.3</ele>
        <time>2022-08-10T14:25:42Z</time>
      </trkpt>
      <trkpt lat="44.49169" lon="1.39523">
        <ele>114.3</ele>
        <time>2022-08-10T14:25:44Z</time>
      </trkpt>
      <trkpt lat="44.49162" lon="1.39527">
        <ele>114.4</ele>
        <time>2022-08-10T14:25:46Z</time>
      </trkpt>
      <trkpt lat="44.49155" lon="1.39531">
        <ele>114.6</ele>
        <time>2022-08-10T14:25:48Z</time>
      </trkpt>
      <trkpt lat="44.49148" lon="1.39535">
        <ele>114.8</ele>
        <time>2022-08-10T14:25:50Z</time>
      </trkpt>
      <trkpt lat="44.49141" lon="1.39539">
        <ele>114.9</ele>
        <time>2022-08-10T14:25:52Z</time>
      </trkpt>
      <trkpt lat="44.49134" lon="1.39543">
        <ele>115.1</ele>
        <time>2022-08-10T14:25:54Z</time>
      </trkpt>
      <trkpt lat="44.49127" lon="1.39547">
        <ele>115.2</ele>
        <time>2022-08-10T14:25:56Z</time>
      </trkpt>
      <trkpt lat="44.4912" lon="1.39552">
        <ele>115.4</ele>
        <time>2022-08-10T14:25:58Z</time>
      </trkpt>
      <trkpt lat="44.49113" lon="1.39557">
        <ele>115.5</ele>
        <time>2022-08-10T14:26:00Z</time>
      </trkpt>
      <trkpt lat="44.49106" lon="1.39561">
        <ele>115.7</ele>
        <time>2022-08-10T14:26:02Z</time>
      </trkpt>
      <trkpt lat="44.49099" lon="1.39566">
        <ele>115.8</ele>
        <time>2022-08-10T14:26:04Z</time>
      </trkpt>
      <trkpt lat="44.49092" lon="1.39569">
        <ele>115.9</ele>
        <time>2022-08-10T14:26:06Z</time>
      </trkpt>
      <trkpt lat="44.49085" lon="1.39574">
        <ele>116</ele>
        <time>2022-08-10T14:26:08Z</time>
      </trkpt>
      <trkpt lat="44.49078" lon="1.39579">
        <ele>116.2</ele>
        <time>2022-08-10T14:26:10Z</time>
      </trkpt>
      <trkpt lat="44.4907" lon="1.39584">
        <ele>116.4</ele>
        <time>2022-08-10T14:26:12Z</time>
      </trkpt>
      <trkpt lat="44.49064" lon="1.39589">
        <ele>116.6</ele>
        <time>2022-08-10T14:26:14Z</time>
      </trkpt>
      <trkpt lat="44.49058" lon="1.39593">
        <ele>116.7</ele>
        <time>2022-08-10T14:26:16Z</time>
      </trkpt>
      <trkpt lat="44.49053" lon="1.39598">
        <ele>116.8</ele>
        <time>2022-08-10T14:26:18Z</time>
      </trkpt>
      <trkpt lat="44.49047" lon="1.39602">
        <ele>116.9</ele>
        <time>2022-08-10T14:26:20Z</time>
      </trkpt>
      <trkpt lat="44.49041" lon="1.39606">
        <ele>117</ele>
        <time>2022-08-10T14:26:22Z</time>
      </trkpt>
      <trkpt lat="44.49035" lon="1.3961">
        <ele>117.1</ele>
        <time>2022-08-10T14:26:24Z</time>
      </trkpt>
      <trkpt lat="44.4903" lon="1.39607">
        <ele>117.4</ele>
        <time>2022-08-10T14:26:26Z</time>
      </trkpt>
      <trkpt lat="44.49024" lon="1.396">
        <ele>117.7</ele>
        <time>2022-08-10T14:26:28Z</time>
      </trkpt>
      <trkpt lat="44.49021" lon="1.39592">
        <ele>118</ele>
        <time>2022-08-10T14:26:30Z</time>
      </trkpt>
      <trkpt lat="44.49018" lon="1.39584">
        <ele>118.3</ele>
        <time>2022-08-10T14:26:32Z</time>
      </trkpt>
      <trkpt lat="44.49014" lon="1.39576">
        <ele>118.4</ele>
        <time>2022-08-10T14:26:34Z</time>
      </trkpt>
      <trkpt lat="44.49011" lon="1.39569">
        <ele>118.5</ele>
        <time>2022-08-10T14:26:36Z</time>
      </trkpt>
      <trkpt lat="44.49007" lon="1.39562">
        <ele>118.5</ele>
        <time>2022-08-10T14:26:38Z</time>
      </trkpt>
      <trkpt lat="44.49004" lon="1.39554">
        <ele>118.5</ele>
        <time>2022-08-10T14:26:40Z</time>
      </trkpt>
      <trkpt lat="44.49" lon="1.39547">
        <ele>118.5</ele>
        <time>2022-08-10T14:26:42Z</time>
      </trkpt>
      <trkpt lat="44.48997" lon="1.39538">
        <ele>118.5</ele>
        <time>2022-08-10T14:26:44Z</time>
      </trkpt>
      <trkpt lat="44.48994" lon="1.39529">
        <ele>118.4</ele>
        <time>2022-08-10T14:26:46Z</time>
      </trkpt>
      <trkpt lat="44.48991" lon="1.3952">
        <ele>118.4</ele>
        <time>2022-08-10T14:26:48Z</time>
      </trkpt>
      <trkpt lat="44.48988" lon="1.39511">
        <ele>118.3</ele>
        <time>2022-08-10T14:26:50Z</time>
      </trkpt>
      <trkpt lat="44.48985" lon="1.39501">
        <ele>118.2</ele>
        <time>2022-08-10T14:26:52Z</time>
      </trkpt>
      <trkpt lat="44.48982" lon="1.39493">
        <ele>118.2</ele>
        <time>2022-08-10T14:26:54Z</time>
      </trkpt>
      <trkpt lat="44.48979" lon="1.39483">
        <ele>118.2</ele>
        <time>2022-08-10T14:26:56Z</time>
      </trkpt>
      <trkpt lat="44.48977" lon="1.39473">
        <ele>118.3</ele>
        <time>2022-08-10T14:26:58Z</time>
      </trkpt>
      <trkpt lat="44.48974" lon="1.39463">
        <ele>118.3</ele>
        <time>2022-08-10T14:27:00Z</time>
      </trkpt>
      <trkpt lat="44.48972" lon="1.39454">
        <ele>118.3</ele>
        <time>2022-08-10T14:27:02Z</time>
      </trkpt>
      <trkpt lat="44.48969" lon="1.39443">
        <ele>118.4</ele>
        <time>2022-08-10T14:27:04Z</time>
      </trkpt>
      <trkpt lat="44.48967" lon="1.39433">
        <ele>118.4</ele>
        <time>2022-08-10T14:27:06Z</time>
      </trkpt>
      <trkpt lat="44.48966" lon="1.39422">
        <ele>118.4</ele>
        <time>2022-08-10T14:27:08Z</time>
      </trkpt>
      <trkpt lat="44.48964" lon="1.39412">
        <ele>118.5</ele>
        <time>2022-08-10T14:27:10Z</time>
      </trkpt>
      <trkpt lat="44.48963" lon="1.39401">
        <ele>118.6</ele>
        <time>2022-08-10T14:27:12Z</time>
      </trkpt>
      <trkpt lat="44.48961" lon="1.39391">
        <ele>118.8</ele>
        <time>2022-08-10T14:27:14Z</time>
      </trkpt>
      <trkpt lat="44.48959" lon="1.39381">
        <ele>118.9</ele>
        <time>2022-08-10T14:27:16Z</time>
      </trkpt>
      <trkpt lat="44.48957" lon="1.39371">
        <ele>119.1</ele>
        <time>2022-08-10T14:27:18Z</time>
      </trkpt>
      <trkpt lat="44.48954" lon="1.39361">
        <ele>119.3</ele>
        <time>2022-08-10T14:27:20Z</time>
      </trkpt>
      <trkpt lat="44.48951" lon="1.39352">
        <ele>119.5</ele>
        <time>2022-08-10T14:27:22Z</time>
      </trkpt>
      <trkpt lat="44.48947" lon="1.39342">
        <ele>119.8</ele>
        <time>2022-08-10T14:27:24Z</time>
      </trkpt>
      <trkpt lat="44.48945" lon="1.39332">
        <ele>120</ele>
        <time>2022-08-10T14:27:26Z</time>
      </trkpt>
      <trkpt lat="44.48941" lon="1.39323">
        <ele>119.9</ele>
        <time>2022-08-10T14:27:28Z</time>
      </trkpt>
      <trkpt lat="44.48937" lon="1.39315">
        <ele>119.9</ele>
        <time>2022-08-10T14:27:30Z</time>
      </trkpt>
      <trkpt lat="44.48933" lon="1.39306">
        <ele>119.8</ele>
        <time>2022-08-10T14:27:32Z</time>
      </trkpt>
      <trkpt lat="44.48931" lon="1.39298">
        <ele>119.7</ele>
        <time>2022-08-10T14:27:34Z</time>
      </trkpt>
      <trkpt lat="44.48928" lon="1.3929">
        <ele>119.6</ele>
        <time>2022-08-10T14:27:36Z</time>
      </trkpt>
      <trkpt lat="44.48925" lon="1.39283">
        <ele>119.5</ele>
        <time>2022-08-10T14:27:38Z</time>
      </trkpt>
      <trkpt lat="44.48923" lon="1.39275">
        <ele>119.4</ele>
        <time>2022-08-10T14:27:40Z</time>
      </trkpt>
      <trkpt lat="44.48921" lon="1.39268">
        <ele>119.3</ele>
        <time>2022-08-10T14:27:42Z</time>
      </trkpt>
      <trkpt lat="44.48919" lon="1.39263">
        <ele>119.2</ele>
        <time>2022-08-10T14:27:44Z</time>
      </trkpt>
      <trkpt lat="44.48919" lon="1.39263">
        <ele>119.2</ele>
        <time>2022-08-10T14:27:46Z</time>
      </trkpt>
      <trkpt lat="44.4892" lon="1.39263">
        <ele>119.2</ele>
        <time>2022-08-10T14:27:48Z</time>
      </trkpt>
      <trkpt lat="44.4892" lon="1.39263">
        <ele>119.2</ele>
        <time>2022-08-10T14:27:50Z</time>
      </trkpt>
      <trkpt lat="44.4892" lon="1.39262">
        <ele>119.2</ele>
        <time>2022-08-10T14:27:52Z</time>
      </trkpt>
      <trkpt lat="44.4892" lon="1.39261">
        <ele>119.2</ele>
        <time>2022-08-10T14:27:54Z</time>
      </trkpt>
      <trkpt lat="44.48912" lon="1.39232">
        <ele>119</ele>
        <time>2022-08-10T14:29:36Z</time>
      </trkpt>
      <trkpt lat="44.48908" lon="1.39224">
        <ele>119</ele>
        <time>2022-08-10T14:29:38Z</time>
      </trkpt>
      <trkpt lat="44.48905" lon="1.39217">
        <ele>118.9</ele>
        <time>2022-08-10T14:29:40Z</time>
      </trkpt>
      <trkpt lat="44.48901" lon="1.39208">
        <ele>118.9</ele>
        <time>2022-08-10T14:29:42Z</time>
      </trkpt>
      <trkpt lat="44.48897" lon="1.39201">
        <ele>118.9</ele>
        <time>2022-08-10T14:29:44Z</time>
      </trkpt>
      <trkpt lat="44.48891" lon="1.39196">
        <ele>118.8</ele>
        <time>2022-08-10T14:29:46Z</time>
      </trkpt>
      <trkpt lat="44.48885" lon="1.39193">
        <ele>118.7</ele>
        <time>2022-08-10T14:29:48Z</time>
      </trkpt>
      <trkpt lat="44.48879" lon="1.39194">
        <ele>118.7</ele>
        <time>2022-08-10T14:29:50Z</time>
      </trkpt>
      <trkpt lat="44.48873" lon="1.39197">
        <ele>118.7</ele>
        <time>2022-08-10T14:29:52Z</time>
      </trkpt>
      <trkpt lat="44.48868" lon="1.39199">
        <ele>118.6</ele>
        <time>2022-08-10T14:29:54Z</time>
      </trkpt>
      <trkpt lat="44.48862" lon="1.39202">
        <ele>118.6</ele>
        <time>2022-08-10T14:29:56Z</time>
      </trkpt>
      <trkpt lat="44.48857" lon="1.39205">
        <ele>118.6</ele>
        <time>2022-08-10T14:29:58Z</time>
      </trkpt>
      <trkpt lat="44.4885" lon="1.39207">
        <ele>118.6</ele>
        <time>2022-08-10T14:30:00Z</time>
      </trkpt>
      <trkpt lat="44.48843" lon="1.39208">
        <ele>118.6</ele>
        <time>2022-08-10T14:30:02Z</time>
      </trkpt>
      <trkpt lat="44.48836" lon="1.39209">
        <ele>118.5</ele>
        <time>2022-08-10T14:30:04Z</time>
      </trkpt>
      <trkpt lat="44.48829" lon="1.39209">
        <ele>118.6</ele>
        <time>2022-08-10T14:30:06Z</time>
      </trkpt>
      <trkpt lat="44.48822" lon="1.39209">
        <ele>118.6</ele>
        <time>2022-08-10T14:30:08Z</time>
      </trkpt>
      <trkpt lat="44.48815" lon="1.39208">
        <ele>118.7</ele>
        <time>2022-08-10T14:30:10Z</time>
      </trkpt>
      <trkpt lat="44.48808" lon="1.39208">
        <ele>118.8</ele>
        <time>2022-08-10T14:30:12Z</time>
      </trkpt>
      <trkpt lat="44.48801" lon="1.39208">
        <ele>118.9</ele>
        <time>2022-08-10T14:30:14Z</time>
      </trkpt>
      <trkpt lat="44.48795" lon="1.39208">
        <ele>118.9</ele>
        <time>2022-08-10T14:30:16Z</time>
      </trkpt>
      <trkpt lat="44.4879" lon="1.39206">
        <ele>119</ele>
        <time>2022-08-10T14:30:18Z</time>
      </trkpt>
      <trkpt lat="44.48779" lon="1.39209">
        <ele>119.2</ele>
        <time>2022-08-10T14:30:20Z</time>
      </trkpt>
      <trkpt lat="44.48772" lon="1.39209">
        <ele>119.3</ele>
        <time>2022-08-10T14:30:22Z</time>
      </trkpt>
      <trkpt lat="44.48764" lon="1.3921">
        <ele>119.4</ele>
        <time>2022-08-10T14:30:24Z</time>
      </trkpt>
      <trkpt lat="44.48757" lon="1.39211">
        <ele>119.5</ele>
        <time>2022-08-10T14:30:26Z</time>
      </trkpt>
      <trkpt lat="44.48749" lon="1.39213">
        <ele>119.7</ele>
        <time>2022-08-10T14:30:28Z</time>
      </trkpt>
      <trkpt lat="44.48741" lon="1.39216">
        <ele>120</ele>
        <time>2022-08-10T14:30:30Z</time>
      </trkpt>
      <trkpt lat="44.48733" lon="1.39219">
        <ele>120.4</ele>
        <time>2022-08-10T14:30:32Z</time>
      </trkpt>
      <trkpt lat="44.48725" lon="1.39222">
        <ele>120.8</ele>
        <time>2022-08-10T14:30:34Z</time>
      </trkpt>
      <trkpt lat="44.48717" lon="1.39226">
        <ele>121.2</ele>
        <time>2022-08-10T14:30:36Z</time>
      </trkpt>
      <trkpt lat="44.48709" lon="1.39228">
        <ele>121.6</ele>
        <time>2022-08-10T14:30:38Z</time>
      </trkpt>
      <trkpt lat="44.48702" lon="1.3923">
        <ele>122</ele>
        <time>2022-08-10T14:30:40Z</time>
      </trkpt>
      <trkpt lat="44.48694" lon="1.39232">
        <ele>122.5</ele>
        <time>2022-08-10T14:30:42Z</time>
      </trkpt>
      <trkpt lat="44.48686" lon="1.39233">
        <ele>122.8</ele>
        <time>2022-08-10T14:30:44Z</time>
      </trkpt>
      <trkpt lat="44.4868" lon="1.39234">
        <ele>123.1</ele>
        <time>2022-08-10T14:30:46Z</time>
      </trkpt>
      <trkpt lat="44.48673" lon="1.39234">
        <ele>123.4</ele>
        <time>2022-08-10T14:30:48Z</time>
      </trkpt>
      <trkpt lat="44.48666" lon="1.39234">
        <ele>123.7</ele>
        <time>2022-08-10T14:30:50Z</time>
      </trkpt>
      <trkpt lat="44.48659" lon="1.39235">
        <ele>123.9</ele>
        <time>2022-08-10T14:30:52Z</time>
      </trkpt>
      <trkpt lat="44.48652" lon="1.39235">
        <ele>124.1</ele>
        <time>2022-08-10T14:30:54Z</time>
      </trkpt>
      <trkpt lat="44.48645" lon="1.39235">
        <ele>124.2</ele>
        <time>2022-08-10T14:30:56Z</time>
      </trkpt>
      <trkpt lat="44.48638" lon="1.39234">
        <ele>124.3</ele>
        <time>2022-08-10T14:30:58Z</time>
      </trkpt>
      <trkpt lat="44.48633" lon="1.39233">
        <ele>124.3</ele>
        <time>2022-08-10T14:31:00Z</time>
      </trkpt>
      <trkpt lat="44.48626" lon="1.3923">
        <ele>124.2</ele>
        <time>2022-08-10T14:31:02Z</time>
      </trkpt>
      <trkpt lat="44.4862" lon="1.39228">
        <ele>124.1</ele>
        <time>2022-08-10T14:31:04Z</time>
      </trkpt>
      <trkpt lat="44.48614" lon="1.39227">
        <ele>124.1</ele>
        <time>2022-08-10T14:31:06Z</time>
      </trkpt>
      <trkpt lat="44.48609" lon="1.39224">
        <ele>123.9</ele>
        <time>2022-08-10T14:31:08Z</time>
      </trkpt>
      <trkpt lat="44.48603" lon="1.39221">
        <ele>123.8</ele>
        <time>2022-08-10T14:31:10Z</time>
      </trkpt>
      <trkpt lat="44.48598" lon="1.39221">
        <ele>123.9</ele>
        <time>2022-08-10T14:31:12Z</time>
      </trkpt>
      <trkpt lat="44.48592" lon="1.39223">
        <ele>124.2</ele>
        <time>2022-08-10T14:31:14Z</time>
      </trkpt>
      <trkpt lat="44.48587" lon="1.39222">
        <ele>124.2</ele>
        <time>2022-08-10T14:31:16Z</time>
      </trkpt>
      <trkpt lat="44.48582" lon="1.39222">
        <ele>124.4</ele>
        <time>2022-08-10T14:31:18Z</time>
      </trkpt>
      <trkpt lat="44.48578" lon="1.39223">
        <ele>124.9</ele>
        <time>2022-08-10T14:31:20Z</time>
      </trkpt>
      <trkpt lat="44.48575" lon="1.39227">
        <ele>125.5</ele>
        <time>2022-08-10T14:31:22Z</time>
      </trkpt>
      <trkpt lat="44.48571" lon="1.3923">
        <ele>126.2</ele>
        <time>2022-08-10T14:31:24Z</time>
      </trkpt>
      <trkpt lat="44.48567" lon="1.39231">
        <ele>126.8</ele>
        <time>2022-08-10T14:31:26Z</time>
      </trkpt>
      <trkpt lat="44.48562" lon="1.39223">
        <ele>126.4</ele>
        <time>2022-08-10T14:31:28Z</time>
      </trkpt>
      <trkpt lat="44.48557" lon="1.39215">
        <ele>125.9</ele>
        <time>2022-08-10T14:31:30Z</time>
      </trkpt>
      <trkpt lat="44.48551" lon="1.39207">
        <ele>125.5</ele>
        <time>2022-08-10T14:31:32Z</time>
      </trkpt>
      <trkpt lat="44.48545" lon="1.39198">
        <ele>125</ele>
        <time>2022-08-10T14:31:34Z</time>
      </trkpt>
      <trkpt lat="44.48538" lon="1.39191">
        <ele>124.8</ele>
        <time>2022-08-10T14:31:36Z</time>
      </trkpt>
      <trkpt lat="44.4853" lon="1.39184">
        <ele>124.4</ele>
        <time>2022-08-10T14:31:38Z</time>
      </trkpt>
      <trkpt lat="44.48522" lon="1.39179">
        <ele>124.3</ele>
        <time>2022-08-10T14:31:40Z</time>
      </trkpt>
      <trkpt lat="44.48513" lon="1.39174">
        <ele>124.3</ele>
        <time>2022-08-10T14:31:42Z</time>
      </trkpt>
      <trkpt lat="44.48502" lon="1.39173">
        <ele>124.8</ele>
        <time>2022-08-10T14:31:44Z</time>
      </trkpt>
      <trkpt lat="44.48491" lon="1.39171">
        <ele>124.5</ele>
        <time>2022-08-10T14:31:46Z</time>
      </trkpt>
      <trkpt lat="44.4848" lon="1.39171">
        <ele>124.2</ele>
        <time>2022-08-10T14:31:48Z</time>
      </trkpt>
      <trkpt lat="44.48469" lon="1.39171">
        <ele>124</ele>
        <time>2022-08-10T14:31:50Z</time>
      </trkpt>
      <trkpt lat="44.48458" lon="1.39171">
        <ele>123.8</ele>
        <time>2022-08-10T14:31:52Z</time>
      </trkpt>
      <trkpt lat="44.48447" lon="1.39172">
        <ele>123.7</ele>
        <time>2022-08-10T14:31:54Z</time>
      </trkpt>
      <trkpt lat="44.48436" lon="1.39173">
        <ele>123.7</ele>
        <time>2022-08-10T14:31:56Z</time>
      </trkpt>
      <trkpt lat="44.48426" lon="1.39174">
        <ele>123.7</ele>
        <time>2022-08-10T14:31:58Z</time>
      </trkpt>
      <trkpt lat="44.48416" lon="1.39175">
        <ele>123.7</ele>
        <time>2022-08-10T14:32:00Z</time>
      </trkpt>
      <trkpt lat="44.48406" lon="1.39176">
        <ele>123.8</ele>
        <time>2022-08-10T14:32:02Z</time>
      </trkpt>
      <trkpt lat="44.48396" lon="1.39179">
        <ele>124.2</ele>
        <time>2022-08-10T14:32:04Z</time>
      </trkpt>
      <trkpt lat="44.48387" lon="1.3918">
        <ele>124.4</ele>
        <time>2022-08-10T14:32:06Z</time>
      </trkpt>
      <trkpt lat="44.48378" lon="1.39181">
        <ele>124.4</ele>
        <time>2022-08-10T14:32:08Z</time>
      </trkpt>
      <trkpt lat="44.48368" lon="1.39183">
        <ele>124.7</ele>
        <time>2022-08-10T14:32:10Z</time>
      </trkpt>
      <trkpt lat="44.48359" lon="1.39186">
        <ele>125</ele>
        <time>2022-08-10T14:32:12Z</time>
      </trkpt>
      <trkpt lat="44.48349" lon="1.39189">
        <ele>125.3</ele>
        <time>2022-08-10T14:32:14Z</time>
      </trkpt>
      <trkpt lat="44.4834" lon="1.39191">
        <ele>125.5</ele>
        <time>2022-08-10T14:32:16Z</time>
      </trkpt>
      <trkpt lat="44.48332" lon="1.39195">
        <ele>126</ele>
        <time>2022-08-10T14:32:18Z</time>
      </trkpt>
      <trkpt lat="44.48322" lon="1.39196">
        <ele>126</ele>
        <time>2022-08-10T14:32:20Z</time>
      </trkpt>
      <trkpt lat="44.48314" lon="1.39198">
        <ele>126.1</ele>
        <time>2022-08-10T14:32:22Z</time>
      </trkpt>
      <trkpt lat="44.48304" lon="1.39201">
        <ele>126.2</ele>
        <time>2022-08-10T14:32:24Z</time>
      </trkpt>
      <trkpt lat="44.48296" lon="1.39202">
        <ele>126.1</ele>
        <time>2022-08-10T14:32:26Z</time>
      </trkpt>
      <trkpt lat="44.48287" lon="1.39205">
        <ele>126</ele>
        <time>2022-08-10T14:32:28Z</time>
      </trkpt>
      <trkpt lat="44.48279" lon="1.39206">
        <ele>125.7</ele>
        <time>2022-08-10T14:32:30Z</time>
      </trkpt>
      <trkpt lat="44.4827" lon="1.39206">
        <ele>125.3</ele>
        <time>2022-08-10T14:32:32Z</time>
      </trkpt>
      <trkpt lat="44.48261" lon="1.39205">
        <ele>124.9</ele>
        <time>2022-08-10T14:32:34Z</time>
      </trkpt>
      <trkpt lat="44.48252" lon="1.39203">
        <ele>124.5</ele>
        <time>2022-08-10T14:32:36Z</time>
      </trkpt>
      <trkpt lat="44.48244" lon="1.39199">
        <ele>124.6</ele>
        <time>2022-08-10T14:32:38Z</time>
      </trkpt>
      <trkpt lat="44.48237" lon="1.39195">
        <ele>125</ele>
        <time>2022-08-10T14:32:40Z</time>
      </trkpt>
      <trkpt lat="44.4823" lon="1.3919">
        <ele>125.3</ele>
        <time>2022-08-10T14:32:42Z</time>
      </trkpt>
      <trkpt lat="44.48223" lon="1.39184">
        <ele>125.7</ele>
        <time>2022-08-10T14:32:44Z</time>
      </trkpt>
      <trkpt lat="44.48216" lon="1.39178">
        <ele>126.2</ele>
        <time>2022-08-10T14:32:46Z</time>
      </trkpt>
      <trkpt lat="44.4821" lon="1.39173">
        <ele>126.7</ele>
        <time>2022-08-10T14:32:48Z</time>
      </trkpt>
      <trkpt lat="44.48204" lon="1.39167">
        <ele>127.3</ele>
        <time>2022-08-10T14:32:50Z</time>
      </trkpt>
      <trkpt lat="44.48198" lon="1.39162">
        <ele>127.9</ele>
        <time>2022-08-10T14:32:52Z</time>
      </trkpt>
      <trkpt lat="44.48192" lon="1.39156">
        <ele>128.5</ele>
        <time>2022-08-10T14:32:54Z</time>
      </trkpt>
      <trkpt lat="44.48186" lon="1.39151">
        <ele>128.9</ele>
        <time>2022-08-10T14:32:56Z</time>
      </trkpt>
      <trkpt lat="44.4818" lon="1.39146">
        <ele>129.4</ele>
        <time>2022-08-10T14:32:58Z</time>
      </trkpt>
      <trkpt lat="44.48174" lon="1.39142">
        <ele>129.7</ele>
        <time>2022-08-10T14:33:00Z</time>
      </trkpt>
      <trkpt lat="44.48168" lon="1.39137">
        <ele>130</ele>
        <time>2022-08-10T14:33:02Z</time>
      </trkpt>
      <trkpt lat="44.48162" lon="1.3913">
        <ele>130.1</ele>
        <time>2022-08-10T14:33:04Z</time>
      </trkpt>
      <trkpt lat="44.48157" lon="1.39125">
        <ele>130.3</ele>
        <time>2022-08-10T14:33:06Z</time>
      </trkpt>
      <trkpt lat="44.4815" lon="1.3912">
        <ele>130.6</ele>
        <time>2022-08-10T14:33:08Z</time>
      </trkpt>
      <trkpt lat="44.48144" lon="1.39115">
        <ele>131</ele>
        <time>2022-08-10T14:33:10Z</time>
      </trkpt>
      <trkpt lat="44.48138" lon="1.3911">
        <ele>131.5</ele>
        <time>2022-08-10T14:33:12Z</time>
      </trkpt>
      <trkpt lat="44.48133" lon="1.39105">
        <ele>132.1</ele>
        <time>2022-08-10T14:33:14Z</time>
      </trkpt>
      <trkpt lat="44.48127" lon="1.39101">
        <ele>132.7</ele>
        <time>2022-08-10T14:33:16Z</time>
      </trkpt>
      <trkpt lat="44.4812" lon="1.39099">
        <ele>133.4</ele>
        <time>2022-08-10T14:33:18Z</time>
      </trkpt>
      <trkpt lat="44.48114" lon="1.39096">
        <ele>134</ele>
        <time>2022-08-10T14:33:20Z</time>
      </trkpt>
      <trkpt lat="44.48108" lon="1.39094">
        <ele>134.6</ele>
        <time>2022-08-10T14:33:22Z</time>
      </trkpt>
      <trkpt lat="44.48103" lon="1.39092">
        <ele>135.2</ele>
        <time>2022-08-10T14:33:24Z</time>
      </trkpt>
      <trkpt lat="44.48097" lon="1.39093">
        <ele>135.6</ele>
        <time>2022-08-10T14:33:26Z</time>
      </trkpt>
      <trkpt lat="44.48092" lon="1.39093">
        <ele>136</ele>
        <time>2022-08-10T14:33:28Z</time>
      </trkpt>
      <trkpt lat="44.48087" lon="1.39093">
        <ele>136.4</ele>
        <time>2022-08-10T14:33:30Z</time>
      </trkpt>
      <trkpt lat="44.48082" lon="1.39096">
        <ele>136.6</ele>
        <time>2022-08-10T14:33:32Z</time>
      </trkpt>
      <trkpt lat="44.48078" lon="1.39097">
        <ele>136.9</ele>
        <time>2022-08-10T14:33:34Z</time>
      </trkpt>
      <trkpt lat="44.48073" lon="1.39099">
        <ele>137</ele>
        <time>2022-08-10T14:33:36Z</time>
      </trkpt>
      <trkpt lat="44.4807" lon="1.391">
        <ele>137.3</ele>
        <time>2022-08-10T14:33:38Z</time>
      </trkpt>
      <trkpt lat="44.48066" lon="1.391">
        <ele>137.7</ele>
        <time>2022-08-10T14:33:40Z</time>
      </trkpt>
      <trkpt lat="44.48063" lon="1.39102">
        <ele>137.9</ele>
        <time>2022-08-10T14:33:42Z</time>
      </trkpt>
      <trkpt lat="44.48058" lon="1.39104">
        <ele>138.1</ele>
        <time>2022-08-10T14:33:44Z</time>
      </trkpt>
      <trkpt lat="44.48054" lon="1.39107">
        <ele>138.1</ele>
        <time>2022-08-10T14:33:46Z</time>
      </trkpt>
      <trkpt lat="44.4805" lon="1.3911">
        <ele>138.2</ele>
        <time>2022-08-10T14:33:48Z</time>
      </trkpt>
      <trkpt lat="44.48046" lon="1.39111">
        <ele>138.4</ele>
        <time>2022-08-10T14:33:50Z</time>
      </trkpt>
      <trkpt lat="44.48042" lon="1.39112">
        <ele>138.7</ele>
        <time>2022-08-10T14:33:52Z</time>
      </trkpt>
      <trkpt lat="44.48038" lon="1.39113">
        <ele>138.9</ele>
        <time>2022-08-10T14:33:54Z</time>
      </trkpt>
      <trkpt lat="44.48034" lon="1.39114">
        <ele>139.2</ele>
        <time>2022-08-10T14:33:56Z</time>
      </trkpt>
      <trkpt lat="44.48031" lon="1.39115">
        <ele>139.3</ele>
        <time>2022-08-10T14:33:58Z</time>
      </trkpt>
      <trkpt lat="44.48027" lon="1.39116">
        <ele>139.7</ele>
        <time>2022-08-10T14:34:00Z</time>
      </trkpt>
      <trkpt lat="44.48023" lon="1.39117">
        <ele>140</ele>
        <time>2022-08-10T14:34:02Z</time>
      </trkpt>
      <trkpt lat="44.48019" lon="1.39117">
        <ele>140.3</ele>
        <time>2022-08-10T14:34:04Z</time>
      </trkpt>
      <trkpt lat="44.48015" lon="1.39118">
        <ele>140.6</ele>
        <time>2022-08-10T14:34:06Z</time>
      </trkpt>
      <trkpt lat="44.48011" lon="1.39119">
        <ele>140.9</ele>
        <time>2022-08-10T14:34:08Z</time>
      </trkpt>
      <trkpt lat="44.48007" lon="1.39119">
        <ele>141.3</ele>
        <time>2022-08-10T14:34:10Z</time>
      </trkpt>
      <trkpt lat="44.48002" lon="1.39119">
        <ele>141.7</ele>
        <time>2022-08-10T14:34:12Z</time>
      </trkpt>
      <trkpt lat="44.47999" lon="1.39119">
        <ele>142</ele>
        <time>2022-08-10T14:34:14Z</time>
      </trkpt>
      <trkpt lat="44.47995" lon="1.3912">
        <ele>142.1</ele>
        <time>2022-08-10T14:34:16Z</time>
      </trkpt>
      <trkpt lat="44.47991" lon="1.39121">
        <ele>142</ele>
        <time>2022-08-10T14:34:18Z</time>
      </trkpt>
      <trkpt lat="44.47987" lon="1.39121">
        <ele>142</ele>
        <time>2022-08-10T14:34:20Z</time>
      </trkpt>
      <trkpt lat="44.47983" lon="1.39122">
        <ele>142.1</ele>
        <time>2022-08-10T14:34:22Z</time>
      </trkpt>
      <trkpt lat="44.47979" lon="1.3912">
        <ele>142.4</ele>
        <time>2022-08-10T14:34:24Z</time>
      </trkpt>
      <trkpt lat="44.47975" lon="1.3912">
        <ele>142.6</ele>
        <time>2022-08-10T14:34:26Z</time>
      </trkpt>
      <trkpt lat="44.47972" lon="1.39119">
        <ele>142.8</ele>
        <time>2022-08-10T14:34:28Z</time>
      </trkpt>
      <trkpt lat="44.47968" lon="1.39118">
        <ele>143.1</ele>
        <time>2022-08-10T14:34:30Z</time>
      </trkpt>
      <trkpt lat="44.47964" lon="1.39118">
        <ele>143.2</ele>
        <time>2022-08-10T14:34:32Z</time>
      </trkpt>
      <trkpt lat="44.4796" lon="1.39118">
        <ele>143.2</ele>
        <time>2022-08-10T14:34:34Z</time>
      </trkpt>
      <trkpt lat="44.47956" lon="1.39118">
        <ele>143.4</ele>
        <time>2022-08-10T14:34:36Z</time>
      </trkpt>
      <trkpt lat="44.47952" lon="1.39118">
        <ele>143.6</ele>
        <time>2022-08-10T14:34:38Z</time>
      </trkpt>
      <trkpt lat="44.47948" lon="1.39118">
        <ele>143.7</ele>
        <time>2022-08-10T14:34:40Z</time>
      </trkpt>
      <trkpt lat="44.47945" lon="1.39116">
        <ele>143.9</ele>
        <time>2022-08-10T14:34:42Z</time>
      </trkpt>
      <trkpt lat="44.47942" lon="1.39114">
        <ele>144.2</ele>
        <time>2022-08-10T14:34:44Z</time>
      </trkpt>
      <trkpt lat="44.47939" lon="1.39112">
        <ele>144.5</ele>
        <time>2022-08-10T14:34:46Z</time>
      </trkpt>
      <trkpt lat="44.47935" lon="1.3911">
        <ele>144.8</ele>
        <time>2022-08-10T14:34:48Z</time>
      </trkpt>
      <trkpt lat="44.47931" lon="1.39107">
        <ele>145.1</ele>
        <time>2022-08-10T14:34:50Z</time>
      </trkpt>
      <trkpt lat="44.47928" lon="1.39104">
        <ele>145.4</ele>
        <time>2022-08-10T14:34:52Z</time>
      </trkpt>
      <trkpt lat="44.47925" lon="1.39101">
        <ele>145.6</ele>
        <time>2022-08-10T14:34:54Z</time>
      </trkpt>
      <trkpt lat="44.47922" lon="1.39098">
        <ele>145.9</ele>
        <time>2022-08-10T14:34:56Z</time>
      </trkpt>
      <trkpt lat="44.4792" lon="1.39096">
        <ele>146.1</ele>
        <time>2022-08-10T14:34:58Z</time>
      </trkpt>
      <trkpt lat="44.47916" lon="1.39092">
        <ele>146.4</ele>
        <time>2022-08-10T14:35:00Z</time>
      </trkpt>
      <trkpt lat="44.47915" lon="1.39088">
        <ele>146.7</ele>
        <time>2022-08-10T14:35:02Z</time>
      </trkpt>
      <trkpt lat="44.47913" lon="1.39085">
        <ele>147</ele>
        <time>2022-08-10T14:35:04Z</time>
      </trkpt>
      <trkpt lat="44.47911" lon="1.39082">
        <ele>147.1</ele>
        <time>2022-08-10T14:35:06Z</time>
      </trkpt>
      <trkpt lat="44.47909" lon="1.39079">
        <ele>147.3</ele>
        <time>2022-08-10T14:35:08Z</time>
      </trkpt>
      <trkpt lat="44.47906" lon="1.39075">
        <ele>147.6</ele>
        <time>2022-08-10T14:35:10Z</time>
      </trkpt>
      <trkpt lat="44.47905" lon="1.39071">
        <ele>147.8</ele>
        <time>2022-08-10T14:35:12Z</time>
      </trkpt>
      <trkpt lat="44.47904" lon="1.39069">
        <ele>148</ele>
        <time>2022-08-10T14:35:14Z</time>
      </trkpt>
      <trkpt lat="44.47902" lon="1.39065">
        <ele>148.2</ele>
        <time>2022-08-10T14:35:16Z</time>
      </trkpt>
      <trkpt lat="44.47899" lon="1.39062">
        <ele>148.3</ele>
        <time>2022-08-10T14:35:18Z</time>
      </trkpt>
      <trkpt lat="44.47896" lon="1.39058">
        <ele>148.6</ele>
        <time>2022-08-10T14:35:20Z</time>
      </trkpt>
      <trkpt lat="44.47894" lon="1.39055">
        <ele>148.7</ele>
        <time>2022-08-10T14:35:22Z</time>
      </trkpt>
      <trkpt lat="44.47891" lon="1.39052">
        <ele>148.9</ele>
        <time>2022-08-10T14:35:24Z</time>
      </trkpt>
      <trkpt lat="44.47889" lon="1.39049">
        <ele>149</ele>
        <time>2022-08-10T14:35:26Z</time>
      </trkpt>
      <trkpt lat="44.47886" lon="1.39045">
        <ele>149.1</ele>
        <time>2022-08-10T14:35:28Z</time>
      </trkpt>
      <trkpt lat="44.47883" lon="1.39042">
        <ele>149.3</ele>
        <time>2022-08-10T14:35:30Z</time>
      </trkpt>
      <trkpt lat="44.47881" lon="1.39039">
        <ele>149.4</ele>
        <time>2022-08-10T14:35:32Z</time>
      </trkpt>
      <trkpt lat="44.47878" lon="1.39036">
        <ele>149.5</ele>
        <time>2022-08-10T14:35:34Z</time>
      </trkpt>
      <trkpt lat="44.47876" lon="1.39033">
        <ele>149.6</ele>
        <time>2022-08-10T14:35:36Z</time>
      </trkpt>
      <trkpt lat="44.47873" lon="1.39031">
        <ele>149.7</ele>
        <time>2022-08-10T14:35:38Z</time>
      </trkpt>
      <trkpt lat="44.4787" lon="1.39028">
        <ele>149.8</ele>
        <time>2022-08-10T14:35:40Z</time>
      </trkpt>
      <trkpt lat="44.47868" lon="1.39026">
        <ele>149.8</ele>
        <time>2022-08-10T14:35:42Z</time>
      </trkpt>
      <trkpt lat="44.47865" lon="1.39024">
        <ele>149.9</ele>
        <time>2022-08-10T14:35:44Z</time>
      </trkpt>
      <trkpt lat="44.47861" lon="1.39021">
        <ele>149.9</ele>
        <time>2022-08-10T14:35:46Z</time>
      </trkpt>
      <trkpt lat="44.47858" lon="1.39019">
        <ele>149.9</ele>
        <time>2022-08-10T14:35:48Z</time>
      </trkpt>
      <trkpt lat="44.47855" lon="1.39016">
        <ele>150</ele>
        <time>2022-08-10T14:35:50Z</time>
      </trkpt>
      <trkpt lat="44.47854" lon="1.39013">
        <ele>150</ele>
        <time>2022-08-10T14:35:52Z</time>
      </trkpt>
      <trkpt lat="44.4785" lon="1.3901">
        <ele>150.1</ele>
        <time>2022-08-10T14:35:54Z</time>
      </trkpt>
      <trkpt lat="44.47848" lon="1.39008">
        <ele>150.1</ele>
        <time>2022-08-10T14:35:56Z</time>
      </trkpt>
      <trkpt lat="44.47845" lon="1.39006">
        <ele>150.1</ele>
        <time>2022-08-10T14:35:58Z</time>
      </trkpt>
      <trkpt lat="44.47842" lon="1.39003">
        <ele>150.1</ele>
        <time>2022-08-10T14:36:00Z</time>
      </trkpt>
      <trkpt lat="44.47839" lon="1.39001">
        <ele>150.1</ele>
        <time>2022-08-10T14:36:02Z</time>
      </trkpt>
      <trkpt lat="44.47836" lon="1.38998">
        <ele>150.1</ele>
        <time>2022-08-10T14:36:04Z</time>
      </trkpt>
      <trkpt lat="44.47833" lon="1.38996">
        <ele>150.1</ele>
        <time>2022-08-10T14:36:06Z</time>
      </trkpt>
      <trkpt lat="44.4783" lon="1.38994">
        <ele>150.2</ele>
        <time>2022-08-10T14:36:08Z</time>
      </trkpt>
      <trkpt lat="44.47827" lon="1.38992">
        <ele>150.2</ele>
        <time>2022-08-10T14:36:10Z</time>
      </trkpt>
      <trkpt lat="44.47823" lon="1.3899">
        <ele>150.2</ele>
        <time>2022-08-10T14:36:12Z</time>
      </trkpt>
      <trkpt lat="44.47821" lon="1.38987">
        <ele>150.2</ele>
        <time>2022-08-10T14:36:14Z</time>
      </trkpt>
      <trkpt lat="44.47818" lon="1.38985">
        <ele>150.3</ele>
        <time>2022-08-10T14:36:16Z</time>
      </trkpt>
      <trkpt lat="44.47815" lon="1.38982">
        <ele>150.4</ele>
        <time>2022-08-10T14:36:18Z</time>
      </trkpt>
      <trkpt lat="44.47813" lon="1.3898">
        <ele>150.4</ele>
        <time>2022-08-10T14:36:20Z</time>
      </trkpt>
      <trkpt lat="44.47809" lon="1.38977">
        <ele>150.6</ele>
        <time>2022-08-10T14:36:22Z</time>
      </trkpt>
      <trkpt lat="44.47805" lon="1.38975">
        <ele>150.6</ele>
        <time>2022-08-10T14:36:24Z</time>
      </trkpt>
      <trkpt lat="44.47802" lon="1.38972">
        <ele>150.8</ele>
        <time>2022-08-10T14:36:26Z</time>
      </trkpt>
      <trkpt lat="44.478" lon="1.3897">
        <ele>150.9</ele>
        <time>2022-08-10T14:36:28Z</time>
      </trkpt>
      <trkpt lat="44.47797" lon="1.38968">
        <ele>151</ele>
        <time>2022-08-10T14:36:30Z</time>
      </trkpt>
      <trkpt lat="44.47794" lon="1.38965">
        <ele>151.1</ele>
        <time>2022-08-10T14:36:32Z</time>
      </trkpt>
      <trkpt lat="44.47791" lon="1.38963">
        <ele>151.2</ele>
        <time>2022-08-10T14:36:34Z</time>
      </trkpt>
      <trkpt lat="44.47789" lon="1.3896">
        <ele>151.4</ele>
        <time>2022-08-10T14:36:36Z</time>
      </trkpt>
      <trkpt lat="44.47786" lon="1.38956">
        <ele>151.6</ele>
        <time>2022-08-10T14:36:38Z</time>
      </trkpt>
      <trkpt lat="44.47783" lon="1.38953">
        <ele>151.8</ele>
        <time>2022-08-10T14:36:40Z</time>
      </trkpt>
      <trkpt lat="44.47781" lon="1.3895">
        <ele>152</ele>
        <time>2022-08-10T14:36:42Z</time>
      </trkpt>
      <trkpt lat="44.47778" lon="1.38947">
        <ele>152.3</ele>
        <time>2022-08-10T14:36:44Z</time>
      </trkpt>
      <trkpt lat="44.47775" lon="1.38944">
        <ele>152.5</ele>
        <time>2022-08-10T14:36:46Z</time>
      </trkpt>
      <trkpt lat="44.47772" lon="1.38941">
        <ele>152.8</ele>
        <time>2022-08-10T14:36:48Z</time>
      </trkpt>
      <trkpt lat="44.47769" lon="1.38938">
        <ele>153</ele>
        <time>2022-08-10T14:36:50Z</time>
      </trkpt>
      <trkpt lat="44.47767" lon="1.38934">
        <ele>153.3</ele>
        <time>2022-08-10T14:36:52Z</time>
      </trkpt>
      <trkpt lat="44.47764" lon="1.38931">
        <ele>153.6</ele>
        <time>2022-08-10T14:36:54Z</time>
      </trkpt>
      <trkpt lat="44.47761" lon="1.38929">
        <ele>153.8</ele>
        <time>2022-08-10T14:36:56Z</time>
      </trkpt>
      <trkpt lat="44.47758" lon="1.38926">
        <ele>154</ele>
        <time>2022-08-10T14:36:58Z</time>
      </trkpt>
      <trkpt lat="44.47755" lon="1.38924">
        <ele>154.3</ele>
        <time>2022-08-10T14:37:00Z</time>
      </trkpt>
      <trkpt lat="44.47753" lon="1.38921">
        <ele>154.6</ele>
        <time>2022-08-10T14:37:02Z</time>
      </trkpt>
      <trkpt lat="44.47748" lon="1.3892">
        <ele>154.6</ele>
        <time>2022-08-10T14:37:04Z</time>
      </trkpt>
      <trkpt lat="44.47746" lon="1.38917">
        <ele>154.7</ele>
        <time>2022-08-10T14:37:06Z</time>
      </trkpt>
      <trkpt lat="44.47743" lon="1.38914">
        <ele>154.6</ele>
        <time>2022-08-10T14:37:08Z</time>
      </trkpt>
      <trkpt lat="44.4774" lon="1.38912">
        <ele>154.6</ele>
        <time>2022-08-10T14:37:10Z</time>
      </trkpt>
      <trkpt lat="44.47736" lon="1.38912">
        <ele>154.3</ele>
        <time>2022-08-10T14:37:12Z</time>
      </trkpt>
      <trkpt lat="44.47732" lon="1.3891">
        <ele>154.2</ele>
        <time>2022-08-10T14:37:14Z</time>
      </trkpt>
      <trkpt lat="44.4773" lon="1.38907">
        <ele>154.2</ele>
        <time>2022-08-10T14:37:16Z</time>
      </trkpt>
      <trkpt lat="44.47726" lon="1.38906">
        <ele>154.1</ele>
        <time>2022-08-10T14:37:18Z</time>
      </trkpt>
      <trkpt lat="44.47722" lon="1.38904">
        <ele>154</ele>
        <time>2022-08-10T14:37:20Z</time>
      </trkpt>
      <trkpt lat="44.47719" lon="1.38903">
        <ele>153.9</ele>
        <time>2022-08-10T14:37:22Z</time>
      </trkpt>
      <trkpt lat="44.47715" lon="1.38902">
        <ele>153.7</ele>
        <time>2022-08-10T14:37:24Z</time>
      </trkpt>
      <trkpt lat="44.47711" lon="1.38901">
        <ele>153.7</ele>
        <time>2022-08-10T14:37:26Z</time>
      </trkpt>
      <trkpt lat="44.47707" lon="1.389">
        <ele>153.5</ele>
        <time>2022-08-10T14:37:28Z</time>
      </trkpt>
      <trkpt lat="44.47703" lon="1.38899">
        <ele>153.4</ele>
        <time>2022-08-10T14:37:30Z</time>
      </trkpt>
      <trkpt lat="44.47699" lon="1.38898">
        <ele>153.3</ele>
        <time>2022-08-10T14:37:32Z</time>
      </trkpt>
      <trkpt lat="44.47695" lon="1.38896">
        <ele>153.3</ele>
        <time>2022-08-10T14:37:34Z</time>
      </trkpt>
      <trkpt lat="44.47691" lon="1.38894">
        <ele>153.4</ele>
        <time>2022-08-10T14:37:36Z</time>
      </trkpt>
      <trkpt lat="44.47688" lon="1.38892">
        <ele>153.4</ele>
        <time>2022-08-10T14:37:38Z</time>
      </trkpt>
      <trkpt lat="44.47684" lon="1.3889">
        <ele>153.5</ele>
        <time>2022-08-10T14:37:40Z</time>
      </trkpt>
      <trkpt lat="44.47681" lon="1.38887">
        <ele>153.6</ele>
        <time>2022-08-10T14:37:42Z</time>
      </trkpt>
      <trkpt lat="44.47678" lon="1.38884">
        <ele>153.9</ele>
        <time>2022-08-10T14:37:44Z</time>
      </trkpt>
      <trkpt lat="44.47674" lon="1.38881">
        <ele>154</ele>
        <time>2022-08-10T14:37:46Z</time>
      </trkpt>
      <trkpt lat="44.47671" lon="1.38877">
        <ele>154.3</ele>
        <time>2022-08-10T14:37:48Z</time>
      </trkpt>
      <trkpt lat="44.47667" lon="1.38873">
        <ele>154.7</ele>
        <time>2022-08-10T14:37:50Z</time>
      </trkpt>
      <trkpt lat="44.47664" lon="1.38868">
        <ele>155.2</ele>
        <time>2022-08-10T14:37:52Z</time>
      </trkpt>
      <trkpt lat="44.47661" lon="1.38863">
        <ele>155.6</ele>
        <time>2022-08-10T14:37:54Z</time>
      </trkpt>
      <trkpt lat="44.47659" lon="1.38858">
        <ele>156.1</ele>
        <time>2022-08-10T14:37:56Z</time>
      </trkpt>
      <trkpt lat="44.47656" lon="1.38852">
        <ele>156.5</ele>
        <time>2022-08-10T14:37:58Z</time>
      </trkpt>
      <trkpt lat="44.47654" lon="1.38846">
        <ele>156.9</ele>
        <time>2022-08-10T14:38:00Z</time>
      </trkpt>
      <trkpt lat="44.47651" lon="1.3884">
        <ele>157.3</ele>
        <time>2022-08-10T14:38:02Z</time>
      </trkpt>
      <trkpt lat="44.47649" lon="1.38834">
        <ele>157.7</ele>
        <time>2022-08-10T14:38:04Z</time>
      </trkpt>
      <trkpt lat="44.47648" lon="1.38826">
        <ele>157.7</ele>
        <time>2022-08-10T14:38:06Z</time>
      </trkpt>
      <trkpt lat="44.47646" lon="1.38819">
        <ele>157.6</ele>
        <time>2022-08-10T14:38:08Z</time>
      </trkpt>
      <trkpt lat="44.47644" lon="1.38812">
        <ele>157.6</ele>
        <time>2022-08-10T14:38:10Z</time>
      </trkpt>
      <trkpt lat="44.47643" lon="1.38804">
        <ele>157.6</ele>
        <time>2022-08-10T14:38:12Z</time>
      </trkpt>
      <trkpt lat="44.47642" lon="1.38796">
        <ele>157.6</ele>
        <time>2022-08-10T14:38:14Z</time>
      </trkpt>
      <trkpt lat="44.4764" lon="1.38788">
        <ele>157.6</ele>
        <time>2022-08-10T14:38:16Z</time>
      </trkpt>
      <trkpt lat="44.47639" lon="1.3878">
        <ele>157.7</ele>
        <time>2022-08-10T14:38:18Z</time>
      </trkpt>
      <trkpt lat="44.47638" lon="1.38773">
        <ele>157.7</ele>
        <time>2022-08-10T14:38:20Z</time>
      </trkpt>
      <trkpt lat="44.47636" lon="1.38765">
        <ele>157.7</ele>
        <time>2022-08-10T14:38:22Z</time>
      </trkpt>
      <trkpt lat="44.47635" lon="1.38758">
        <ele>157.8</ele>
        <time>2022-08-10T14:38:24Z</time>
      </trkpt>
      <trkpt lat="44.47634" lon="1.3875">
        <ele>157.8</ele>
        <time>2022-08-10T14:38:26Z</time>
      </trkpt>
      <trkpt lat="44.47632" lon="1.38742">
        <ele>157.3</ele>
        <time>2022-08-10T14:38:28Z</time>
      </trkpt>
      <trkpt lat="44.47629" lon="1.38735">
        <ele>156.7</ele>
        <time>2022-08-10T14:38:30Z</time>
      </trkpt>
      <trkpt lat="44.47626" lon="1.38727">
        <ele>156.2</ele>
        <time>2022-08-10T14:38:32Z</time>
      </trkpt>
      <trkpt lat="44.47621" lon="1.38717">
        <ele>155.8</ele>
        <time>2022-08-10T14:38:34Z</time>
      </trkpt>
      <trkpt lat="44.47617" lon="1.38706">
        <ele>155.4</ele>
        <time>2022-08-10T14:38:36Z</time>
      </trkpt>
      <trkpt lat="44.47611" lon="1.38693">
        <ele>155.2</ele>
        <time>2022-08-10T14:38:38Z</time>
      </trkpt>
      <trkpt lat="44.47605" lon="1.38679">
        <ele>155.2</ele>
        <time>2022-08-10T14:38:40Z</time>
      </trkpt>
      <trkpt lat="44.47599" lon="1.38664">
        <ele>155.4</ele>
        <time>2022-08-10T14:38:42Z</time>
      </trkpt>
      <trkpt lat="44.47592" lon="1.38649">
        <ele>155.3</ele>
        <time>2022-08-10T14:38:44Z</time>
      </trkpt>
      <trkpt lat="44.47585" lon="1.38632">
        <ele>155.1</ele>
        <time>2022-08-10T14:38:46Z</time>
      </trkpt>
      <trkpt lat="44.47578" lon="1.38614">
        <ele>154.9</ele>
        <time>2022-08-10T14:38:48Z</time>
      </trkpt>
      <trkpt lat="44.4757" lon="1.38596">
        <ele>154.8</ele>
        <time>2022-08-10T14:38:50Z</time>
      </trkpt>
      <trkpt lat="44.47562" lon="1.38577">
        <ele>154.7</ele>
        <time>2022-08-10T14:38:52Z</time>
      </trkpt>
      <trkpt lat="44.47555" lon="1.38558">
        <ele>154.5</ele>
        <time>2022-08-10T14:38:54Z</time>
      </trkpt>
      <trkpt lat="44.47546" lon="1.38538">
        <ele>154.7</ele>
        <time>2022-08-10T14:38:56Z</time>
      </trkpt>
      <trkpt lat="44.47538" lon="1.38518">
        <ele>155.2</ele>
        <time>2022-08-10T14:38:58Z</time>
      </trkpt>
      <trkpt lat="44.4753" lon="1.38497">
        <ele>155.7</ele>
        <time>2022-08-10T14:39:00Z</time>
      </trkpt>
      <trkpt lat="44.47522" lon="1.38476">
        <ele>155.2</ele>
        <time>2022-08-10T14:39:02Z</time>
      </trkpt>
      <trkpt lat="44.47513" lon="1.38455">
        <ele>154.4</ele>
        <time>2022-08-10T14:39:04Z</time>
      </trkpt>
      <trkpt lat="44.47505" lon="1.38434">
        <ele>153.4</ele>
        <time>2022-08-10T14:39:06Z</time>
      </trkpt>
      <trkpt lat="44.47496" lon="1.38414">
        <ele>152.6</ele>
        <time>2022-08-10T14:39:08Z</time>
      </trkpt>
      <trkpt lat="44.47488" lon="1.38393">
        <ele>152.6</ele>
        <time>2022-08-10T14:39:10Z</time>
      </trkpt>
      <trkpt lat="44.4748" lon="1.38372">
        <ele>152.4</ele>
        <time>2022-08-10T14:39:12Z</time>
      </trkpt>
      <trkpt lat="44.47472" lon="1.38351">
        <ele>152.3</ele>
        <time>2022-08-10T14:39:14Z</time>
      </trkpt>
      <trkpt lat="44.47464" lon="1.3833">
        <ele>152.2</ele>
        <time>2022-08-10T14:39:16Z</time>
      </trkpt>
      <trkpt lat="44.47455" lon="1.38309">
        <ele>152.4</ele>
        <time>2022-08-10T14:39:18Z</time>
      </trkpt>
      <trkpt lat="44.47446" lon="1.38288">
        <ele>152.3</ele>
        <time>2022-08-10T14:39:20Z</time>
      </trkpt>
      <trkpt lat="44.47437" lon="1.38267">
        <ele>151.9</ele>
        <time>2022-08-10T14:39:22Z</time>
      </trkpt>
      <trkpt lat="44.47428" lon="1.38246">
        <ele>151.1</ele>
        <time>2022-08-10T14:39:24Z</time>
      </trkpt>
      <trkpt lat="44.47419" lon="1.38224">
        <ele>149.7</ele>
        <time>2022-08-10T14:39:26Z</time>
      </trkpt>
      <trkpt lat="44.4741" lon="1.38203">
        <ele>149</ele>
        <time>2022-08-10T14:39:28Z</time>
      </trkpt>
      <trkpt lat="44.47402" lon="1.3818">
        <ele>148</ele>
        <time>2022-08-10T14:39:30Z</time>
      </trkpt>
      <trkpt lat="44.47393" lon="1.38159">
        <ele>147.3</ele>
        <time>2022-08-10T14:39:32Z</time>
      </trkpt>
      <trkpt lat="44.47384" lon="1.38137">
        <ele>146.6</ele>
        <time>2022-08-10T14:39:34Z</time>
      </trkpt>
      <trkpt lat="44.47375" lon="1.38115">
        <ele>145.4</ele>
        <time>2022-08-10T14:39:36Z</time>
      </trkpt>
      <trkpt lat="44.47367" lon="1.38093">
        <ele>144.1</ele>
        <time>2022-08-10T14:39:38Z</time>
      </trkpt>
      <trkpt lat="44.47358" lon="1.38072">
        <ele>142.9</ele>
        <time>2022-08-10T14:39:40Z</time>
      </trkpt>
      <trkpt lat="44.47349" lon="1.3805">
        <ele>141.6</ele>
        <time>2022-08-10T14:39:42Z</time>
      </trkpt>
      <trkpt lat="44.4734" lon="1.38029">
        <ele>140.1</ele>
        <time>2022-08-10T14:39:44Z</time>
      </trkpt>
      <trkpt lat="44.4733" lon="1.38008">
        <ele>138.6</ele>
        <time>2022-08-10T14:39:46Z</time>
      </trkpt>
      <trkpt lat="44.47319" lon="1.37988">
        <ele>138.1</ele>
        <time>2022-08-10T14:39:48Z</time>
      </trkpt>
      <trkpt lat="44.47306" lon="1.37971">
        <ele>137.6</ele>
        <time>2022-08-10T14:39:50Z</time>
      </trkpt>
      <trkpt lat="44.47291" lon="1.37957">
        <ele>137</ele>
        <time>2022-08-10T14:39:52Z</time>
      </trkpt>
      <trkpt lat="44.47275" lon="1.37946">
        <ele>136.5</ele>
        <time>2022-08-10T14:39:54Z</time>
      </trkpt>
      <trkpt lat="44.47258" lon="1.37936">
        <ele>135.3</ele>
        <time>2022-08-10T14:39:56Z</time>
      </trkpt>
      <trkpt lat="44.47242" lon="1.37926">
        <ele>133.9</ele>
        <time>2022-08-10T14:39:58Z</time>
      </trkpt>
      <trkpt lat="44.47225" lon="1.37916">
        <ele>132.4</ele>
        <time>2022-08-10T14:40:00Z</time>
      </trkpt>
      <trkpt lat="44.47207" lon="1.37911">
        <ele>132.3</ele>
        <time>2022-08-10T14:40:02Z</time>
      </trkpt>
      <trkpt lat="44.4719" lon="1.37908">
        <ele>132.6</ele>
        <time>2022-08-10T14:40:04Z</time>
      </trkpt>
      <trkpt lat="44.47171" lon="1.37907">
        <ele>133.4</ele>
        <time>2022-08-10T14:40:06Z</time>
      </trkpt>
      <trkpt lat="44.47153" lon="1.37905">
        <ele>133.4</ele>
        <time>2022-08-10T14:40:08Z</time>
      </trkpt>
      <trkpt lat="44.47134" lon="1.37903">
        <ele>133.2</ele>
        <time>2022-08-10T14:40:10Z</time>
      </trkpt>
      <trkpt lat="44.47116" lon="1.379">
        <ele>132.6</ele>
        <time>2022-08-10T14:40:12Z</time>
      </trkpt>
      <trkpt lat="44.47097" lon="1.37898">
        <ele>132.3</ele>
        <time>2022-08-10T14:40:14Z</time>
      </trkpt>
      <trkpt lat="44.47078" lon="1.37895">
        <ele>132.3</ele>
        <time>2022-08-10T14:40:16Z</time>
      </trkpt>
      <trkpt lat="44.4706" lon="1.37891">
        <ele>133</ele>
        <time>2022-08-10T14:40:18Z</time>
      </trkpt>
      <trkpt lat="44.47041" lon="1.37888">
        <ele>133.7</ele>
        <time>2022-08-10T14:40:20Z</time>
      </trkpt>
      <trkpt lat="44.47021" lon="1.37883">
        <ele>133.9</ele>
        <time>2022-08-10T14:40:22Z</time>
      </trkpt>
      <trkpt lat="44.47003" lon="1.37879">
        <ele>133.8</ele>
        <time>2022-08-10T14:40:24Z</time>
      </trkpt>
      <trkpt lat="44.46984" lon="1.37875">
        <ele>133.6</ele>
        <time>2022-08-10T14:40:26Z</time>
      </trkpt>
      <trkpt lat="44.46966" lon="1.37869">
        <ele>132.9</ele>
        <time>2022-08-10T14:40:28Z</time>
      </trkpt>
      <trkpt lat="44.46947" lon="1.37865">
        <ele>132.3</ele>
        <time>2022-08-10T14:40:30Z</time>
      </trkpt>
      <trkpt lat="44.4693" lon="1.37859">
        <ele>131</ele>
        <time>2022-08-10T14:40:32Z</time>
      </trkpt>
      <trkpt lat="44.46913" lon="1.37852">
        <ele>129.9</ele>
        <time>2022-08-10T14:40:34Z</time>
      </trkpt>
      <trkpt lat="44.46896" lon="1.37845">
        <ele>130.9</ele>
        <time>2022-08-10T14:40:36Z</time>
      </trkpt>
      <trkpt lat="44.46881" lon="1.37836">
        <ele>131.2</ele>
        <time>2022-08-10T14:40:38Z</time>
      </trkpt>
      <trkpt lat="44.46866" lon="1.37827">
        <ele>132.4</ele>
        <time>2022-08-10T14:40:40Z</time>
      </trkpt>
      <trkpt lat="44.46852" lon="1.37817">
        <ele>133.4</ele>
        <time>2022-08-10T14:40:42Z</time>
      </trkpt>
      <trkpt lat="44.46838" lon="1.37808">
        <ele>134.2</ele>
        <time>2022-08-10T14:40:44Z</time>
      </trkpt>
      <trkpt lat="44.46825" lon="1.37797">
        <ele>135.1</ele>
        <time>2022-08-10T14:40:46Z</time>
      </trkpt>
      <trkpt lat="44.46813" lon="1.37785">
        <ele>136.2</ele>
        <time>2022-08-10T14:40:48Z</time>
      </trkpt>
      <trkpt lat="44.46801" lon="1.37773">
        <ele>137</ele>
        <time>2022-08-10T14:40:50Z</time>
      </trkpt>
      <trkpt lat="44.46789" lon="1.37761">
        <ele>137</ele>
        <time>2022-08-10T14:40:52Z</time>
      </trkpt>
      <trkpt lat="44.46778" lon="1.37748">
        <ele>136.5</ele>
        <time>2022-08-10T14:40:54Z</time>
      </trkpt>
      <trkpt lat="44.46767" lon="1.37736">
        <ele>136.7</ele>
        <time>2022-08-10T14:40:56Z</time>
      </trkpt>
      <trkpt lat="44.46756" lon="1.37723">
        <ele>135.9</ele>
        <time>2022-08-10T14:40:58Z</time>
      </trkpt>
      <trkpt lat="44.46746" lon="1.37711">
        <ele>135.4</ele>
        <time>2022-08-10T14:41:00Z</time>
      </trkpt>
      <trkpt lat="44.46736" lon="1.37699">
        <ele>136.5</ele>
        <time>2022-08-10T14:41:02Z</time>
      </trkpt>
      <trkpt lat="44.46725" lon="1.37686">
        <ele>137.4</ele>
        <time>2022-08-10T14:41:04Z</time>
      </trkpt>
      <trkpt lat="44.46716" lon="1.37673">
        <ele>137.3</ele>
        <time>2022-08-10T14:41:06Z</time>
      </trkpt>
      <trkpt lat="44.46708" lon="1.3766">
        <ele>137.4</ele>
        <time>2022-08-10T14:41:08Z</time>
      </trkpt>
      <trkpt lat="44.467" lon="1.37645">
        <ele>137.5</ele>
        <time>2022-08-10T14:41:10Z</time>
      </trkpt>
      <trkpt lat="44.46693" lon="1.37631">
        <ele>136.9</ele>
        <time>2022-08-10T14:41:12Z</time>
      </trkpt>
      <trkpt lat="44.46686" lon="1.37618">
        <ele>135.9</ele>
        <time>2022-08-10T14:41:14Z</time>
      </trkpt>
      <trkpt lat="44.4668" lon="1.37604">
        <ele>134.3</ele>
        <time>2022-08-10T14:41:16Z</time>
      </trkpt>
      <trkpt lat="44.46673" lon="1.37589">
        <ele>132.2</ele>
        <time>2022-08-10T14:41:18Z</time>
      </trkpt>
      <trkpt lat="44.46667" lon="1.37576">
        <ele>130.7</ele>
        <time>2022-08-10T14:41:20Z</time>
      </trkpt>
      <trkpt lat="44.4666" lon="1.37563">
        <ele>132.4</ele>
        <time>2022-08-10T14:41:22Z</time>
      </trkpt>
      <trkpt lat="44.46654" lon="1.3755">
        <ele>134.1</ele>
        <time>2022-08-10T14:41:24Z</time>
      </trkpt>
      <trkpt lat="44.46647" lon="1.37537">
        <ele>135.9</ele>
        <time>2022-08-10T14:41:26Z</time>
      </trkpt>
      <trkpt lat="44.46641" lon="1.37524">
        <ele>137</ele>
        <time>2022-08-10T14:41:28Z</time>
      </trkpt>
      <trkpt lat="44.46635" lon="1.3751">
        <ele>137.6</ele>
        <time>2022-08-10T14:41:30Z</time>
      </trkpt>
      <trkpt lat="44.46631" lon="1.37496">
        <ele>137.7</ele>
        <time>2022-08-10T14:41:32Z</time>
      </trkpt>
      <trkpt lat="44.46628" lon="1.37482">
        <ele>137.8</ele>
        <time>2022-08-10T14:41:34Z</time>
      </trkpt>
      <trkpt lat="44.46624" lon="1.37468">
        <ele>138.1</ele>
        <time>2022-08-10T14:41:36Z</time>
      </trkpt>
      <trkpt lat="44.4662" lon="1.37454">
        <ele>138.1</ele>
        <time>2022-08-10T14:41:38Z</time>
      </trkpt>
      <trkpt lat="44.46616" lon="1.37442">
        <ele>138.6</ele>
        <time>2022-08-10T14:41:40Z</time>
      </trkpt>
      <trkpt lat="44.46613" lon="1.37428">
        <ele>138.3</ele>
        <time>2022-08-10T14:41:42Z</time>
      </trkpt>
      <trkpt lat="44.4661" lon="1.37415">
        <ele>137.9</ele>
        <time>2022-08-10T14:41:44Z</time>
      </trkpt>
      <trkpt lat="44.46606" lon="1.37403">
        <ele>138.4</ele>
        <time>2022-08-10T14:41:46Z</time>
      </trkpt>
      <trkpt lat="44.46603" lon="1.37392">
        <ele>138.4</ele>
        <time>2022-08-10T14:41:48Z</time>
      </trkpt>
      <trkpt lat="44.46599" lon="1.37377">
        <ele>138.4</ele>
        <time>2022-08-10T14:41:50Z</time>
      </trkpt>
      <trkpt lat="44.46596" lon="1.37365">
        <ele>137.9</ele>
        <time>2022-08-10T14:41:52Z</time>
      </trkpt>
      <trkpt lat="44.46593" lon="1.37354">
        <ele>137.6</ele>
        <time>2022-08-10T14:41:54Z</time>
      </trkpt>
      <trkpt lat="44.46591" lon="1.3734">
        <ele>136.4</ele>
        <time>2022-08-10T14:41:56Z</time>
      </trkpt>
      <trkpt lat="44.4659" lon="1.37327">
        <ele>135.1</ele>
        <time>2022-08-10T14:41:58Z</time>
      </trkpt>
      <trkpt lat="44.46589" lon="1.37314">
        <ele>134.6</ele>
        <time>2022-08-10T14:42:00Z</time>
      </trkpt>
      <trkpt lat="44.46588" lon="1.373">
        <ele>134</ele>
        <time>2022-08-10T14:42:02Z</time>
      </trkpt>
      <trkpt lat="44.46587" lon="1.37287">
        <ele>133.6</ele>
        <time>2022-08-10T14:42:04Z</time>
      </trkpt>
      <trkpt lat="44.46585" lon="1.37273">
        <ele>133.2</ele>
        <time>2022-08-10T14:42:06Z</time>
      </trkpt>
      <trkpt lat="44.46583" lon="1.37259">
        <ele>132.7</ele>
        <time>2022-08-10T14:42:08Z</time>
      </trkpt>
      <trkpt lat="44.46581" lon="1.37245">
        <ele>133.9</ele>
        <time>2022-08-10T14:42:10Z</time>
      </trkpt>
      <trkpt lat="44.46579" lon="1.3723">
        <ele>134.7</ele>
        <time>2022-08-10T14:42:12Z</time>
      </trkpt>
      <trkpt lat="44.46576" lon="1.37215">
        <ele>135.8</ele>
        <time>2022-08-10T14:42:14Z</time>
      </trkpt>
      <trkpt lat="44.46575" lon="1.372">
        <ele>136.6</ele>
        <time>2022-08-10T14:42:16Z</time>
      </trkpt>
      <trkpt lat="44.46573" lon="1.37186">
        <ele>137.2</ele>
        <time>2022-08-10T14:42:18Z</time>
      </trkpt>
      <trkpt lat="44.46572" lon="1.37172">
        <ele>137</ele>
        <time>2022-08-10T14:42:20Z</time>
      </trkpt>
      <trkpt lat="44.46572" lon="1.37157">
        <ele>137.1</ele>
        <time>2022-08-10T14:42:22Z</time>
      </trkpt>
      <trkpt lat="44.46573" lon="1.37142">
        <ele>136.9</ele>
        <time>2022-08-10T14:42:24Z</time>
      </trkpt>
      <trkpt lat="44.46573" lon="1.37129">
        <ele>137.1</ele>
        <time>2022-08-10T14:42:26Z</time>
      </trkpt>
      <trkpt lat="44.46575" lon="1.37115">
        <ele>136.1</ele>
        <time>2022-08-10T14:42:28Z</time>
      </trkpt>
      <trkpt lat="44.46576" lon="1.37102">
        <ele>135.1</ele>
        <time>2022-08-10T14:42:30Z</time>
      </trkpt>
      <trkpt lat="44.46577" lon="1.37089">
        <ele>134.9</ele>
        <time>2022-08-10T14:42:32Z</time>
      </trkpt>
      <trkpt lat="44.46578" lon="1.37075">
        <ele>134.7</ele>
        <time>2022-08-10T14:42:34Z</time>
      </trkpt>
      <trkpt lat="44.46579" lon="1.37063">
        <ele>134.7</ele>
        <time>2022-08-10T14:42:36Z</time>
      </trkpt>
      <trkpt lat="44.4658" lon="1.3705">
        <ele>134.8</ele>
        <time>2022-08-10T14:42:38Z</time>
      </trkpt>
      <trkpt lat="44.4658" lon="1.37037">
        <ele>134.9</ele>
        <time>2022-08-10T14:42:40Z</time>
      </trkpt>
      <trkpt lat="44.4658" lon="1.37025">
        <ele>135.4</ele>
        <time>2022-08-10T14:42:42Z</time>
      </trkpt>
      <trkpt lat="44.46581" lon="1.37012">
        <ele>135.7</ele>
        <time>2022-08-10T14:42:44Z</time>
      </trkpt>
      <trkpt lat="44.46581" lon="1.36999">
        <ele>135.9</ele>
        <time>2022-08-10T14:42:46Z</time>
      </trkpt>
      <trkpt lat="44.46582" lon="1.36985">
        <ele>135.8</ele>
        <time>2022-08-10T14:42:48Z</time>
      </trkpt>
      <trkpt lat="44.46583" lon="1.36971">
        <ele>135.9</ele>
        <time>2022-08-10T14:42:50Z</time>
      </trkpt>
      <trkpt lat="44.46586" lon="1.36957">
        <ele>135.8</ele>
        <time>2022-08-10T14:42:52Z</time>
      </trkpt>
      <trkpt lat="44.46589" lon="1.36945">
        <ele>135.5</ele>
        <time>2022-08-10T14:42:54Z</time>
      </trkpt>
      <trkpt lat="44.46592" lon="1.36933">
        <ele>135.1</ele>
        <time>2022-08-10T14:42:56Z</time>
      </trkpt>
      <trkpt lat="44.46596" lon="1.36919">
        <ele>134.7</ele>
        <time>2022-08-10T14:42:58Z</time>
      </trkpt>
      <trkpt lat="44.46599" lon="1.36904">
        <ele>135.3</ele>
        <time>2022-08-10T14:43:00Z</time>
      </trkpt>
      <trkpt lat="44.46603" lon="1.3689">
        <ele>136</ele>
        <time>2022-08-10T14:43:02Z</time>
      </trkpt>
      <trkpt lat="44.46606" lon="1.36876">
        <ele>136.2</ele>
        <time>2022-08-10T14:43:04Z</time>
      </trkpt>
      <trkpt lat="44.46611" lon="1.36862">
        <ele>136.2</ele>
        <time>2022-08-10T14:43:06Z</time>
      </trkpt>
      <trkpt lat="44.46615" lon="1.36849">
        <ele>135.9</ele>
        <time>2022-08-10T14:43:08Z</time>
      </trkpt>
      <trkpt lat="44.46619" lon="1.36838">
        <ele>135.2</ele>
        <time>2022-08-10T14:43:10Z</time>
      </trkpt>
      <trkpt lat="44.46623" lon="1.36824">
        <ele>135.2</ele>
        <time>2022-08-10T14:43:12Z</time>
      </trkpt>
      <trkpt lat="44.46627" lon="1.3681">
        <ele>134.8</ele>
        <time>2022-08-10T14:43:14Z</time>
      </trkpt>
      <trkpt lat="44.46631" lon="1.36797">
        <ele>133.9</ele>
        <time>2022-08-10T14:43:16Z</time>
      </trkpt>
      <trkpt lat="44.46635" lon="1.36782">
        <ele>133.2</ele>
        <time>2022-08-10T14:43:18Z</time>
      </trkpt>
      <trkpt lat="44.46639" lon="1.36768">
        <ele>132</ele>
        <time>2022-08-10T14:43:20Z</time>
      </trkpt>
      <trkpt lat="44.46643" lon="1.36753">
        <ele>130.1</ele>
        <time>2022-08-10T14:43:22Z</time>
      </trkpt>
      <trkpt lat="44.46647" lon="1.3674">
        <ele>129.9</ele>
        <time>2022-08-10T14:43:24Z</time>
      </trkpt>
      <trkpt lat="44.46651" lon="1.36727">
        <ele>130.2</ele>
        <time>2022-08-10T14:43:26Z</time>
      </trkpt>
      <trkpt lat="44.46655" lon="1.36714">
        <ele>130.5</ele>
        <time>2022-08-10T14:43:28Z</time>
      </trkpt>
      <trkpt lat="44.4666" lon="1.36701">
        <ele>129.8</ele>
        <time>2022-08-10T14:43:30Z</time>
      </trkpt>
      <trkpt lat="44.46665" lon="1.36689">
        <ele>129</ele>
        <time>2022-08-10T14:43:32Z</time>
      </trkpt>
      <trkpt lat="44.4667" lon="1.36677">
        <ele>129.6</ele>
        <time>2022-08-10T14:43:34Z</time>
      </trkpt>
      <trkpt lat="44.46675" lon="1.36665">
        <ele>130.8</ele>
        <time>2022-08-10T14:43:36Z</time>
      </trkpt>
      <trkpt lat="44.4668" lon="1.36653">
        <ele>132.3</ele>
        <time>2022-08-10T14:43:38Z</time>
      </trkpt>
      <trkpt lat="44.46685" lon="1.3664">
        <ele>133.4</ele>
        <time>2022-08-10T14:43:40Z</time>
      </trkpt>
      <trkpt lat="44.46691" lon="1.36628">
        <ele>134.2</ele>
        <time>2022-08-10T14:43:42Z</time>
      </trkpt>
      <trkpt lat="44.46696" lon="1.36616">
        <ele>134.5</ele>
        <time>2022-08-10T14:43:44Z</time>
      </trkpt>
      <trkpt lat="44.46702" lon="1.36605">
        <ele>134.4</ele>
        <time>2022-08-10T14:43:46Z</time>
      </trkpt>
      <trkpt lat="44.46708" lon="1.36593">
        <ele>133.6</ele>
        <time>2022-08-10T14:43:48Z</time>
      </trkpt>
      <trkpt lat="44.46715" lon="1.36582">
        <ele>132.3</ele>
        <time>2022-08-10T14:43:50Z</time>
      </trkpt>
      <trkpt lat="44.46722" lon="1.36571">
        <ele>132.2</ele>
        <time>2022-08-10T14:43:52Z</time>
      </trkpt>
      <trkpt lat="44.46728" lon="1.36559">
        <ele>132</ele>
        <time>2022-08-10T14:43:54Z</time>
      </trkpt>
      <trkpt lat="44.46736" lon="1.36549">
        <ele>130.4</ele>
        <time>2022-08-10T14:43:56Z</time>
      </trkpt>
      <trkpt lat="44.46743" lon="1.36539">
        <ele>129.4</ele>
        <time>2022-08-10T14:43:58Z</time>
      </trkpt>
      <trkpt lat="44.4675" lon="1.36529">
        <ele>128.3</ele>
        <time>2022-08-10T14:44:00Z</time>
      </trkpt>
      <trkpt lat="44.46758" lon="1.36518">
        <ele>129.6</ele>
        <time>2022-08-10T14:44:02Z</time>
      </trkpt>
      <trkpt lat="44.46765" lon="1.36509">
        <ele>129.8</ele>
        <time>2022-08-10T14:44:04Z</time>
      </trkpt>
      <trkpt lat="44.46773" lon="1.36501">
        <ele>129.5</ele>
        <time>2022-08-10T14:44:06Z</time>
      </trkpt>
      <trkpt lat="44.4678" lon="1.3649">
        <ele>130</ele>
        <time>2022-08-10T14:44:08Z</time>
      </trkpt>
      <trkpt lat="44.46787" lon="1.36479">
        <ele>130.4</ele>
        <time>2022-08-10T14:44:10Z</time>
      </trkpt>
      <trkpt lat="44.46793" lon="1.36468">
        <ele>130.5</ele>
        <time>2022-08-10T14:44:12Z</time>
      </trkpt>
      <trkpt lat="44.46799" lon="1.36456">
        <ele>130.3</ele>
        <time>2022-08-10T14:44:14Z</time>
      </trkpt>
      <trkpt lat="44.46806" lon="1.36445">
        <ele>129.3</ele>
        <time>2022-08-10T14:44:16Z</time>
      </trkpt>
      <trkpt lat="44.46812" lon="1.36433">
        <ele>127.6</ele>
        <time>2022-08-10T14:44:18Z</time>
      </trkpt>
      <trkpt lat="44.4682" lon="1.36422">
        <ele>124.9</ele>
        <time>2022-08-10T14:44:20Z</time>
      </trkpt>
      <trkpt lat="44.46828" lon="1.36411">
        <ele>122.2</ele>
        <time>2022-08-10T14:44:22Z</time>
      </trkpt>
      <trkpt lat="44.46836" lon="1.364">
        <ele>121.9</ele>
        <time>2022-08-10T14:44:24Z</time>
      </trkpt>
      <trkpt lat="44.46845" lon="1.36389">
        <ele>123.4</ele>
        <time>2022-08-10T14:44:26Z</time>
      </trkpt>
      <trkpt lat="44.46853" lon="1.36377">
        <ele>124.4</ele>
        <time>2022-08-10T14:44:28Z</time>
      </trkpt>
      <trkpt lat="44.4686" lon="1.36366">
        <ele>125.1</ele>
        <time>2022-08-10T14:44:30Z</time>
      </trkpt>
      <trkpt lat="44.46868" lon="1.36355">
        <ele>125.2</ele>
        <time>2022-08-10T14:44:32Z</time>
      </trkpt>
      <trkpt lat="44.46876" lon="1.36345">
        <ele>124.6</ele>
        <time>2022-08-10T14:44:34Z</time>
      </trkpt>
      <trkpt lat="44.46884" lon="1.36333">
        <ele>124</ele>
        <time>2022-08-10T14:44:36Z</time>
      </trkpt>
      <trkpt lat="44.46892" lon="1.36322">
        <ele>123</ele>
        <time>2022-08-10T14:44:38Z</time>
      </trkpt>
      <trkpt lat="44.469" lon="1.36311">
        <ele>122</ele>
        <time>2022-08-10T14:44:40Z</time>
      </trkpt>
      <trkpt lat="44.46909" lon="1.363">
        <ele>120.5</ele>
        <time>2022-08-10T14:44:42Z</time>
      </trkpt>
      <trkpt lat="44.46918" lon="1.36289">
        <ele>119.1</ele>
        <time>2022-08-10T14:44:44Z</time>
      </trkpt>
      <trkpt lat="44.46926" lon="1.36279">
        <ele>119.1</ele>
        <time>2022-08-10T14:44:46Z</time>
      </trkpt>
      <trkpt lat="44.46934" lon="1.36268">
        <ele>119.1</ele>
        <time>2022-08-10T14:44:48Z</time>
      </trkpt>
      <trkpt lat="44.46943" lon="1.36259">
        <ele>118.5</ele>
        <time>2022-08-10T14:44:50Z</time>
      </trkpt>
      <trkpt lat="44.4695" lon="1.3625">
        <ele>118</ele>
        <time>2022-08-10T14:44:52Z</time>
      </trkpt>
      <trkpt lat="44.46958" lon="1.36242">
        <ele>116.7</ele>
        <time>2022-08-10T14:44:54Z</time>
      </trkpt>
      <trkpt lat="44.46965" lon="1.36235">
        <ele>115.6</ele>
        <time>2022-08-10T14:44:56Z</time>
      </trkpt>
      <trkpt lat="44.46973" lon="1.36226">
        <ele>114.5</ele>
        <time>2022-08-10T14:44:58Z</time>
      </trkpt>
      <trkpt lat="44.4698" lon="1.36219">
        <ele>113.4</ele>
        <time>2022-08-10T14:45:00Z</time>
      </trkpt>
      <trkpt lat="44.46988" lon="1.36211">
        <ele>112.4</ele>
        <time>2022-08-10T14:45:02Z</time>
      </trkpt>
      <trkpt lat="44.46995" lon="1.36203">
        <ele>111.4</ele>
        <time>2022-08-10T14:45:04Z</time>
      </trkpt>
      <trkpt lat="44.47002" lon="1.36192">
        <ele>111</ele>
        <time>2022-08-10T14:45:06Z</time>
      </trkpt>
      <trkpt lat="44.47007" lon="1.36184">
        <ele>111.2</ele>
        <time>2022-08-10T14:45:08Z</time>
      </trkpt>
      <trkpt lat="44.47013" lon="1.36184">
        <ele>111.1</ele>
        <time>2022-08-10T14:45:10Z</time>
      </trkpt>
      <trkpt lat="44.47019" lon="1.36186">
        <ele>110.8</ele>
        <time>2022-08-10T14:45:12Z</time>
      </trkpt>
      <trkpt lat="44.47028" lon="1.36184">
        <ele>110.7</ele>
        <time>2022-08-10T14:45:14Z</time>
      </trkpt>
      <trkpt lat="44.47035" lon="1.36176">
        <ele>110.8</ele>
        <time>2022-08-10T14:45:16Z</time>
      </trkpt>
      <trkpt lat="44.47044" lon="1.36171">
        <ele>110.8</ele>
        <time>2022-08-10T14:45:18Z</time>
      </trkpt>
      <trkpt lat="44.47053" lon="1.36163">
        <ele>110.8</ele>
        <time>2022-08-10T14:45:20Z</time>
      </trkpt>
      <trkpt lat="44.47062" lon="1.36157">
        <ele>110.8</ele>
        <time>2022-08-10T14:45:22Z</time>
      </trkpt>
      <trkpt lat="44.47071" lon="1.3615">
        <ele>110.8</ele>
        <time>2022-08-10T14:45:24Z</time>
      </trkpt>
      <trkpt lat="44.4708" lon="1.36144">
        <ele>110.9</ele>
        <time>2022-08-10T14:45:26Z</time>
      </trkpt>
      <trkpt lat="44.47089" lon="1.36137">
        <ele>110.8</ele>
        <time>2022-08-10T14:45:28Z</time>
      </trkpt>
      <trkpt lat="44.47098" lon="1.36132">
        <ele>110.5</ele>
        <time>2022-08-10T14:45:30Z</time>
      </trkpt>
      <trkpt lat="44.47108" lon="1.36127">
        <ele>110.2</ele>
        <time>2022-08-10T14:45:32Z</time>
      </trkpt>
      <trkpt lat="44.47116" lon="1.36122">
        <ele>110.1</ele>
        <time>2022-08-10T14:45:34Z</time>
      </trkpt>
      <trkpt lat="44.47123" lon="1.36117">
        <ele>110</ele>
        <time>2022-08-10T14:45:36Z</time>
      </trkpt>
      <trkpt lat="44.4713" lon="1.36112">
        <ele>109.9</ele>
        <time>2022-08-10T14:45:38Z</time>
      </trkpt>
      <trkpt lat="44.47136" lon="1.36104">
        <ele>110</ele>
        <time>2022-08-10T14:45:40Z</time>
      </trkpt>
      <trkpt lat="44.47141" lon="1.36099">
        <ele>110.1</ele>
        <time>2022-08-10T14:45:42Z</time>
      </trkpt>
      <trkpt lat="44.4715" lon="1.36095">
        <ele>109.9</ele>
        <time>2022-08-10T14:45:44Z</time>
      </trkpt>
      <trkpt lat="44.47157" lon="1.36091">
        <ele>109.9</ele>
        <time>2022-08-10T14:45:46Z</time>
      </trkpt>
      <trkpt lat="44.47164" lon="1.36087">
        <ele>109.9</ele>
        <time>2022-08-10T14:45:48Z</time>
      </trkpt>
      <trkpt lat="44.47171" lon="1.36084">
        <ele>109.9</ele>
        <time>2022-08-10T14:45:50Z</time>
      </trkpt>
      <trkpt lat="44.47178" lon="1.3608">
        <ele>110.1</ele>
        <time>2022-08-10T14:45:52Z</time>
      </trkpt>
      <trkpt lat="44.47184" lon="1.36075">
        <ele>110.3</ele>
        <time>2022-08-10T14:45:54Z</time>
      </trkpt>
      <trkpt lat="44.4719" lon="1.3607">
        <ele>110.6</ele>
        <time>2022-08-10T14:45:56Z</time>
      </trkpt>
      <trkpt lat="44.47197" lon="1.36066">
        <ele>110.8</ele>
        <time>2022-08-10T14:45:58Z</time>
      </trkpt>
      <trkpt lat="44.47203" lon="1.36062">
        <ele>111</ele>
        <time>2022-08-10T14:46:00Z</time>
      </trkpt>
      <trkpt lat="44.47209" lon="1.36056">
        <ele>111.3</ele>
        <time>2022-08-10T14:46:02Z</time>
      </trkpt>
      <trkpt lat="44.47212" lon="1.36052">
        <ele>111.5</ele>
        <time>2022-08-10T14:46:04Z</time>
      </trkpt>
      <trkpt lat="44.4721" lon="1.36053">
        <ele>111.5</ele>
        <time>2022-08-10T14:46:06Z</time>
      </trkpt>
      <trkpt lat="44.4721" lon="1.36053">
        <ele>111.5</ele>
        <time>2022-08-10T14:46:08Z</time>
      </trkpt>
      <trkpt lat="44.4721" lon="1.36052">
        <ele>111.5</ele>
        <time>2022-08-10T14:46:10Z</time>
      </trkpt>
      <trkpt lat="44.4721" lon="1.36052">
        <ele>111.5</ele>
        <time>2022-08-10T14:46:12Z</time>
      </trkpt>
      <trkpt lat="44.4721" lon="1.36052">
        <ele>111.5</ele>
        <time>2022-08-10T14:46:14Z</time>
      </trkpt>
      <trkpt lat="44.4721" lon="1.36055">
        <ele>111.4</ele>
        <time>2022-08-10T14:46:52Z</time>
      </trkpt>
      <trkpt lat="44.4721" lon="1.36055">
        <ele>111.4</ele>
        <time>2022-08-10T14:46:54Z</time>
      </trkpt>
      <trkpt lat="44.4721" lon="1.36054">
        <ele>111.4</ele>
        <time>2022-08-10T14:46:56Z</time>
      </trkpt>
      <trkpt lat="44.4721" lon="1.36054">
        <ele>111.4</ele>
        <time>2022-08-10T14:46:58Z</time>
      </trkpt>
      <trkpt lat="44.47211" lon="1.36051">
        <ele>111.6</ele>
        <time>2022-08-10T14:47:00Z</time>
      </trkpt>
      <trkpt lat="44.47213" lon="1.36051">
        <ele>111.6</ele>
        <time>2022-08-10T14:47:02Z</time>
      </trkpt>
      <trkpt lat="44.47217" lon="1.36049">
        <ele>111.7</ele>
        <time>2022-08-10T14:47:04Z</time>
      </trkpt>
      <trkpt lat="44.47221" lon="1.36047">
        <ele>111.8</ele>
        <time>2022-08-10T14:47:06Z</time>
      </trkpt>
      <trkpt lat="44.47224" lon="1.36044">
        <ele>112</ele>
        <time>2022-08-10T14:47:08Z</time>
      </trkpt>
      <trkpt lat="44.47225" lon="1.36043">
        <ele>112</ele>
        <time>2022-08-10T14:47:10Z</time>
      </trkpt>
      <trkpt lat="44.47225" lon="1.36043">
        <ele>112</ele>
        <time>2022-08-10T14:47:12Z</time>
      </trkpt>
      <trkpt lat="44.47224" lon="1.36044">
        <ele>112</ele>
        <time>2022-08-10T14:47:14Z</time>
      </trkpt>
      <trkpt lat="44.47224" lon="1.36044">
        <ele>112</ele>
        <time>2022-08-10T14:47:16Z</time>
      </trkpt>
      <trkpt lat="44.47224" lon="1.36043">
        <ele>112.1</ele>
        <time>2022-08-10T14:47:18Z</time>
      </trkpt>
      <trkpt lat="44.47216" lon="1.36044">
        <ele>112</ele>
        <time>2022-08-10T14:49:32Z</time>
      </trkpt>
      <trkpt lat="44.47219" lon="1.3604">
        <ele>112.3</ele>
        <time>2022-08-10T14:49:34Z</time>
      </trkpt>
      <trkpt lat="44.47222" lon="1.36038">
        <ele>112.4</ele>
        <time>2022-08-10T14:49:36Z</time>
      </trkpt>
      <trkpt lat="44.47228" lon="1.36034">
        <ele>112.6</ele>
        <time>2022-08-10T14:49:38Z</time>
      </trkpt>
      <trkpt lat="44.47231" lon="1.36032">
        <ele>112.8</ele>
        <time>2022-08-10T14:49:40Z</time>
      </trkpt>
      <trkpt lat="44.47236" lon="1.36028">
        <ele>113</ele>
        <time>2022-08-10T14:49:42Z</time>
      </trkpt>
      <trkpt lat="44.47239" lon="1.36025">
        <ele>113.3</ele>
        <time>2022-08-10T14:49:44Z</time>
      </trkpt>
      <trkpt lat="44.47243" lon="1.36022">
        <ele>113.4</ele>
        <time>2022-08-10T14:49:46Z</time>
      </trkpt>
      <trkpt lat="44.47246" lon="1.36019">
        <ele>113.7</ele>
        <time>2022-08-10T14:49:48Z</time>
      </trkpt>
      <trkpt lat="44.4725" lon="1.36018">
        <ele>113.7</ele>
        <time>2022-08-10T14:49:50Z</time>
      </trkpt>
      <trkpt lat="44.47254" lon="1.36016">
        <ele>113.6</ele>
        <time>2022-08-10T14:49:52Z</time>
      </trkpt>
      <trkpt lat="44.47259" lon="1.36014">
        <ele>113.5</ele>
        <time>2022-08-10T14:49:54Z</time>
      </trkpt>
      <trkpt lat="44.47262" lon="1.36011">
        <ele>113.5</ele>
        <time>2022-08-10T14:49:56Z</time>
      </trkpt>
      <trkpt lat="44.47265" lon="1.36009">
        <ele>113.5</ele>
        <time>2022-08-10T14:49:58Z</time>
      </trkpt>
      <trkpt lat="44.4727" lon="1.36004">
        <ele>113.5</ele>
        <time>2022-08-10T14:50:00Z</time>
      </trkpt>
      <trkpt lat="44.47274" lon="1.36">
        <ele>113.5</ele>
        <time>2022-08-10T14:50:02Z</time>
      </trkpt>
      <trkpt lat="44.47279" lon="1.35997">
        <ele>114</ele>
        <time>2022-08-10T14:50:04Z</time>
      </trkpt>
      <trkpt lat="44.47282" lon="1.35995">
        <ele>114.2</ele>
        <time>2022-08-10T14:50:06Z</time>
      </trkpt>
      <trkpt lat="44.47286" lon="1.35994">
        <ele>114.2</ele>
        <time>2022-08-10T14:50:08Z</time>
      </trkpt>
      <trkpt lat="44.47289" lon="1.35991">
        <ele>114.7</ele>
        <time>2022-08-10T14:50:10Z</time>
      </trkpt>
      <trkpt lat="44.47292" lon="1.35988">
        <ele>115.2</ele>
        <time>2022-08-10T14:50:12Z</time>
      </trkpt>
      <trkpt lat="44.47297" lon="1.35986">
        <ele>115.5</ele>
        <time>2022-08-10T14:50:14Z</time>
      </trkpt>
      <trkpt lat="44.47303" lon="1.35986">
        <ele>115.2</ele>
        <time>2022-08-10T14:50:16Z</time>
      </trkpt>
      <trkpt lat="44.47309" lon="1.35985">
        <ele>115.2</ele>
        <time>2022-08-10T14:50:18Z</time>
      </trkpt>
      <trkpt lat="44.47315" lon="1.35983">
        <ele>115.3</ele>
        <time>2022-08-10T14:50:20Z</time>
      </trkpt>
      <trkpt lat="44.47321" lon="1.35981">
        <ele>115.5</ele>
        <time>2022-08-10T14:50:22Z</time>
      </trkpt>
      <trkpt lat="44.47327" lon="1.35978">
        <ele>116.1</ele>
        <time>2022-08-10T14:50:24Z</time>
      </trkpt>
      <trkpt lat="44.47333" lon="1.3598">
        <ele>115.2</ele>
        <time>2022-08-10T14:50:26Z</time>
      </trkpt>
      <trkpt lat="44.47338" lon="1.35978">
        <ele>115.5</ele>
        <time>2022-08-10T14:50:28Z</time>
      </trkpt>
      <trkpt lat="44.47343" lon="1.35977">
        <ele>115.5</ele>
        <time>2022-08-10T14:50:30Z</time>
      </trkpt>
      <trkpt lat="44.47349" lon="1.35976">
        <ele>115.5</ele>
        <time>2022-08-10T14:50:32Z</time>
      </trkpt>
      <trkpt lat="44.47354" lon="1.35976">
        <ele>115.4</ele>
        <time>2022-08-10T14:50:34Z</time>
      </trkpt>
      <trkpt lat="44.4736" lon="1.35975">
        <ele>115.3</ele>
        <time>2022-08-10T14:50:36Z</time>
      </trkpt>
      <trkpt lat="44.47366" lon="1.35974">
        <ele>115.2</ele>
        <time>2022-08-10T14:50:38Z</time>
      </trkpt>
      <trkpt lat="44.47372" lon="1.35974">
        <ele>114.9</ele>
        <time>2022-08-10T14:50:40Z</time>
      </trkpt>
      <trkpt lat="44.47378" lon="1.35973">
        <ele>114.9</ele>
        <time>2022-08-10T14:50:42Z</time>
      </trkpt>
      <trkpt lat="44.47385" lon="1.35973">
        <ele>114.5</ele>
        <time>2022-08-10T14:50:44Z</time>
      </trkpt>
      <trkpt lat="44.47391" lon="1.35971">
        <ele>114.5</ele>
        <time>2022-08-10T14:50:46Z</time>
      </trkpt>
      <trkpt lat="44.47398" lon="1.35972">
        <ele>114</ele>
        <time>2022-08-10T14:50:48Z</time>
      </trkpt>
      <trkpt lat="44.47405" lon="1.35971">
        <ele>113.7</ele>
        <time>2022-08-10T14:50:50Z</time>
      </trkpt>
      <trkpt lat="44.47411" lon="1.35971">
        <ele>113.4</ele>
        <time>2022-08-10T14:50:52Z</time>
      </trkpt>
      <trkpt lat="44.47417" lon="1.3597">
        <ele>113.3</ele>
        <time>2022-08-10T14:50:54Z</time>
      </trkpt>
      <trkpt lat="44.47425" lon="1.35971">
        <ele>112.9</ele>
        <time>2022-08-10T14:50:56Z</time>
      </trkpt>
      <trkpt lat="44.47431" lon="1.35972">
        <ele>112.7</ele>
        <time>2022-08-10T14:50:58Z</time>
      </trkpt>
      <trkpt lat="44.47437" lon="1.35973">
        <ele>112.3</ele>
        <time>2022-08-10T14:51:00Z</time>
      </trkpt>
      <trkpt lat="44.47445" lon="1.35975">
        <ele>112</ele>
        <time>2022-08-10T14:51:02Z</time>
      </trkpt>
      <trkpt lat="44.47452" lon="1.35975">
        <ele>111.9</ele>
        <time>2022-08-10T14:51:04Z</time>
      </trkpt>
      <trkpt lat="44.4746" lon="1.35976">
        <ele>111.6</ele>
        <time>2022-08-10T14:51:06Z</time>
      </trkpt>
      <trkpt lat="44.47468" lon="1.35977">
        <ele>111.3</ele>
        <time>2022-08-10T14:51:08Z</time>
      </trkpt>
      <trkpt lat="44.47475" lon="1.35978">
        <ele>111.1</ele>
        <time>2022-08-10T14:51:10Z</time>
      </trkpt>
      <trkpt lat="44.47485" lon="1.35981">
        <ele>110.7</ele>
        <time>2022-08-10T14:51:12Z</time>
      </trkpt>
      <trkpt lat="44.47494" lon="1.35983">
        <ele>110.3</ele>
        <time>2022-08-10T14:51:14Z</time>
      </trkpt>
      <trkpt lat="44.47503" lon="1.35987">
        <ele>109.9</ele>
        <time>2022-08-10T14:51:16Z</time>
      </trkpt>
      <trkpt lat="44.47512" lon="1.35993">
        <ele>109.3</ele>
        <time>2022-08-10T14:51:18Z</time>
      </trkpt>
      <trkpt lat="44.47522" lon="1.35997">
        <ele>109</ele>
        <time>2022-08-10T14:51:20Z</time>
      </trkpt>
      <trkpt lat="44.47531" lon="1.36002">
        <ele>108.5</ele>
        <time>2022-08-10T14:51:22Z</time>
      </trkpt>
      <trkpt lat="44.47539" lon="1.36008">
        <ele>108.2</ele>
        <time>2022-08-10T14:51:24Z</time>
      </trkpt>
      <trkpt lat="44.47547" lon="1.36012">
        <ele>108</ele>
        <time>2022-08-10T14:51:26Z</time>
      </trkpt>
      <trkpt lat="44.47555" lon="1.36015">
        <ele>107.8</ele>
        <time>2022-08-10T14:51:28Z</time>
      </trkpt>
      <trkpt lat="44.47563" lon="1.3602">
        <ele>107.6</ele>
        <time>2022-08-10T14:51:30Z</time>
      </trkpt>
      <trkpt lat="44.4757" lon="1.36026">
        <ele>107.4</ele>
        <time>2022-08-10T14:51:32Z</time>
      </trkpt>
      <trkpt lat="44.47577" lon="1.36032">
        <ele>107.2</ele>
        <time>2022-08-10T14:51:34Z</time>
      </trkpt>
      <trkpt lat="44.47583" lon="1.36037">
        <ele>107.1</ele>
        <time>2022-08-10T14:51:36Z</time>
      </trkpt>
      <trkpt lat="44.47589" lon="1.36043">
        <ele>107</ele>
        <time>2022-08-10T14:51:38Z</time>
      </trkpt>
      <trkpt lat="44.47596" lon="1.36048">
        <ele>106.9</ele>
        <time>2022-08-10T14:51:40Z</time>
      </trkpt>
      <trkpt lat="44.47603" lon="1.36052">
        <ele>106.9</ele>
        <time>2022-08-10T14:51:42Z</time>
      </trkpt>
      <trkpt lat="44.47612" lon="1.36055">
        <ele>106.9</ele>
        <time>2022-08-10T14:51:44Z</time>
      </trkpt>
      <trkpt lat="44.4762" lon="1.36058">
        <ele>106.9</ele>
        <time>2022-08-10T14:51:46Z</time>
      </trkpt>
      <trkpt lat="44.47629" lon="1.36061">
        <ele>106.9</ele>
        <time>2022-08-10T14:51:48Z</time>
      </trkpt>
      <trkpt lat="44.47637" lon="1.36065">
        <ele>106.9</ele>
        <time>2022-08-10T14:51:50Z</time>
      </trkpt>
      <trkpt lat="44.47646" lon="1.36068">
        <ele>107</ele>
        <time>2022-08-10T14:51:52Z</time>
      </trkpt>
      <trkpt lat="44.47654" lon="1.36072">
        <ele>107</ele>
        <time>2022-08-10T14:51:54Z</time>
      </trkpt>
      <trkpt lat="44.47662" lon="1.36075">
        <ele>107</ele>
        <time>2022-08-10T14:51:56Z</time>
      </trkpt>
      <trkpt lat="44.47671" lon="1.36079">
        <ele>107.1</ele>
        <time>2022-08-10T14:51:58Z</time>
      </trkpt>
      <trkpt lat="44.4768" lon="1.36083">
        <ele>107.2</ele>
        <time>2022-08-10T14:52:00Z</time>
      </trkpt>
      <trkpt lat="44.47689" lon="1.36086">
        <ele>107.2</ele>
        <time>2022-08-10T14:52:02Z</time>
      </trkpt>
      <trkpt lat="44.47697" lon="1.3609">
        <ele>107.2</ele>
        <time>2022-08-10T14:52:04Z</time>
      </trkpt>
      <trkpt lat="44.47706" lon="1.36095">
        <ele>107.3</ele>
        <time>2022-08-10T14:52:06Z</time>
      </trkpt>
      <trkpt lat="44.47714" lon="1.36099">
        <ele>107.3</ele>
        <time>2022-08-10T14:52:08Z</time>
      </trkpt>
      <trkpt lat="44.47723" lon="1.36102">
        <ele>107.4</ele>
        <time>2022-08-10T14:52:10Z</time>
      </trkpt>
      <trkpt lat="44.47732" lon="1.36105">
        <ele>107.5</ele>
        <time>2022-08-10T14:52:12Z</time>
      </trkpt>
      <trkpt lat="44.4774" lon="1.3611">
        <ele>107.5</ele>
        <time>2022-08-10T14:52:14Z</time>
      </trkpt>
      <trkpt lat="44.4775" lon="1.36111">
        <ele>107.7</ele>
        <time>2022-08-10T14:52:16Z</time>
      </trkpt>
      <trkpt lat="44.47759" lon="1.36114">
        <ele>107.9</ele>
        <time>2022-08-10T14:52:18Z</time>
      </trkpt>
      <trkpt lat="44.47768" lon="1.36116">
        <ele>108.1</ele>
        <time>2022-08-10T14:52:20Z</time>
      </trkpt>
      <trkpt lat="44.47776" lon="1.36117">
        <ele>108.3</ele>
        <time>2022-08-10T14:52:22Z</time>
      </trkpt>
      <trkpt lat="44.47785" lon="1.3612">
        <ele>108.5</ele>
        <time>2022-08-10T14:52:24Z</time>
      </trkpt>
      <trkpt lat="44.47793" lon="1.36121">
        <ele>108.6</ele>
        <time>2022-08-10T14:52:26Z</time>
      </trkpt>
      <trkpt lat="44.47803" lon="1.36121">
        <ele>108.9</ele>
        <time>2022-08-10T14:52:28Z</time>
      </trkpt>
      <trkpt lat="44.47811" lon="1.36122">
        <ele>109</ele>
        <time>2022-08-10T14:52:30Z</time>
      </trkpt>
      <trkpt lat="44.47819" lon="1.36121">
        <ele>109.3</ele>
        <time>2022-08-10T14:52:32Z</time>
      </trkpt>
      <trkpt lat="44.47827" lon="1.3612">
        <ele>109.5</ele>
        <time>2022-08-10T14:52:34Z</time>
      </trkpt>
      <trkpt lat="44.47834" lon="1.36121">
        <ele>109.7</ele>
        <time>2022-08-10T14:52:36Z</time>
      </trkpt>
      <trkpt lat="44.47841" lon="1.3612">
        <ele>109.7</ele>
        <time>2022-08-10T14:52:38Z</time>
      </trkpt>
      <trkpt lat="44.47849" lon="1.36121">
        <ele>109.6</ele>
        <time>2022-08-10T14:52:40Z</time>
      </trkpt>
      <trkpt lat="44.47856" lon="1.36121">
        <ele>109.6</ele>
        <time>2022-08-10T14:52:42Z</time>
      </trkpt>
      <trkpt lat="44.47864" lon="1.3612">
        <ele>109.6</ele>
        <time>2022-08-10T14:52:44Z</time>
      </trkpt>
      <trkpt lat="44.47872" lon="1.3612">
        <ele>109.6</ele>
        <time>2022-08-10T14:52:46Z</time>
      </trkpt>
      <trkpt lat="44.47881" lon="1.36121">
        <ele>109.6</ele>
        <time>2022-08-10T14:52:48Z</time>
      </trkpt>
      <trkpt lat="44.47889" lon="1.36128">
        <ele>109.4</ele>
        <time>2022-08-10T14:52:50Z</time>
      </trkpt>
      <trkpt lat="44.47893" lon="1.3614">
        <ele>109.2</ele>
        <time>2022-08-10T14:52:52Z</time>
      </trkpt>
      <trkpt lat="44.47896" lon="1.36151">
        <ele>109</ele>
        <time>2022-08-10T14:52:54Z</time>
      </trkpt>
      <trkpt lat="44.47899" lon="1.36162">
        <ele>108.9</ele>
        <time>2022-08-10T14:52:56Z</time>
      </trkpt>
      <trkpt lat="44.47904" lon="1.36171">
        <ele>108.8</ele>
        <time>2022-08-10T14:52:58Z</time>
      </trkpt>
      <trkpt lat="44.47911" lon="1.36176">
        <ele>108.9</ele>
        <time>2022-08-10T14:53:00Z</time>
      </trkpt>
      <trkpt lat="44.47919" lon="1.36175">
        <ele>109</ele>
        <time>2022-08-10T14:53:02Z</time>
      </trkpt>
      <trkpt lat="44.47928" lon="1.36173">
        <ele>109.1</ele>
        <time>2022-08-10T14:53:04Z</time>
      </trkpt>
      <trkpt lat="44.47936" lon="1.36172">
        <ele>109.2</ele>
        <time>2022-08-10T14:53:06Z</time>
      </trkpt>
      <trkpt lat="44.47944" lon="1.3617">
        <ele>109.3</ele>
        <time>2022-08-10T14:53:08Z</time>
      </trkpt>
      <trkpt lat="44.47953" lon="1.36168">
        <ele>109.4</ele>
        <time>2022-08-10T14:53:10Z</time>
      </trkpt>
      <trkpt lat="44.4796" lon="1.36165">
        <ele>109.5</ele>
        <time>2022-08-10T14:53:12Z</time>
      </trkpt>
      <trkpt lat="44.47969" lon="1.36163">
        <ele>109.6</ele>
        <time>2022-08-10T14:53:14Z</time>
      </trkpt>
      <trkpt lat="44.47976" lon="1.36166">
        <ele>109.7</ele>
        <time>2022-08-10T14:53:16Z</time>
      </trkpt>
      <trkpt lat="44.47983" lon="1.36175">
        <ele>109.8</ele>
        <time>2022-08-10T14:53:18Z</time>
      </trkpt>
      <trkpt lat="44.47987" lon="1.36189">
        <ele>109.8</ele>
        <time>2022-08-10T14:53:20Z</time>
      </trkpt>
      <trkpt lat="44.4799" lon="1.36203">
        <ele>109.9</ele>
        <time>2022-08-10T14:53:22Z</time>
      </trkpt>
      <trkpt lat="44.47994" lon="1.36217">
        <ele>109.9</ele>
        <time>2022-08-10T14:53:24Z</time>
      </trkpt>
      <trkpt lat="44.47997" lon="1.3623">
        <ele>110</ele>
        <time>2022-08-10T14:53:26Z</time>
      </trkpt>
      <trkpt lat="44.48001" lon="1.36245">
        <ele>109.9</ele>
        <time>2022-08-10T14:53:28Z</time>
      </trkpt>
      <trkpt lat="44.48006" lon="1.3626">
        <ele>109.5</ele>
        <time>2022-08-10T14:53:30Z</time>
      </trkpt>
      <trkpt lat="44.4801" lon="1.36275">
        <ele>109</ele>
        <time>2022-08-10T14:53:32Z</time>
      </trkpt>
      <trkpt lat="44.48014" lon="1.36289">
        <ele>108.5</ele>
        <time>2022-08-10T14:53:34Z</time>
      </trkpt>
      <trkpt lat="44.4802" lon="1.36301">
        <ele>107.9</ele>
        <time>2022-08-10T14:53:36Z</time>
      </trkpt>
      <trkpt lat="44.48031" lon="1.36306">
        <ele>107.4</ele>
        <time>2022-08-10T14:53:38Z</time>
      </trkpt>
      <trkpt lat="44.48039" lon="1.36301">
        <ele>107.2</ele>
        <time>2022-08-10T14:53:40Z</time>
      </trkpt>
      <trkpt lat="44.48048" lon="1.36294">
        <ele>107</ele>
        <time>2022-08-10T14:53:42Z</time>
      </trkpt>
      <trkpt lat="44.48053" lon="1.36284">
        <ele>106.9</ele>
        <time>2022-08-10T14:53:44Z</time>
      </trkpt>
      <trkpt lat="44.48054" lon="1.36274">
        <ele>107</ele>
        <time>2022-08-10T14:53:46Z</time>
      </trkpt>
      <trkpt lat="44.48051" lon="1.36267">
        <ele>107.2</ele>
        <time>2022-08-10T14:53:48Z</time>
      </trkpt>
      <trkpt lat="44.48049" lon="1.3626">
        <ele>107.5</ele>
        <time>2022-08-10T14:53:50Z</time>
      </trkpt>
      <trkpt lat="44.48047" lon="1.36256">
        <ele>107.7</ele>
        <time>2022-08-10T14:53:52Z</time>
      </trkpt>
      <trkpt lat="44.48044" lon="1.3625">
        <ele>107.9</ele>
        <time>2022-08-10T14:53:54Z</time>
      </trkpt>
      <trkpt lat="44.48041" lon="1.36245">
        <ele>108.1</ele>
        <time>2022-08-10T14:53:56Z</time>
      </trkpt>
      <trkpt lat="44.48039" lon="1.36238">
        <ele>108.3</ele>
        <time>2022-08-10T14:53:58Z</time>
      </trkpt>
      <trkpt lat="44.48037" lon="1.36233">
        <ele>108.4</ele>
        <time>2022-08-10T14:54:00Z</time>
      </trkpt>
      <trkpt lat="44.48035" lon="1.36229">
        <ele>108.5</ele>
        <time>2022-08-10T14:54:02Z</time>
      </trkpt>
      <trkpt lat="44.48033" lon="1.36223">
        <ele>108.7</ele>
        <time>2022-08-10T14:54:04Z</time>
      </trkpt>
      <trkpt lat="44.4803" lon="1.36218">
        <ele>108.8</ele>
        <time>2022-08-10T14:54:06Z</time>
      </trkpt>
      <trkpt lat="44.48027" lon="1.36212">
        <ele>109</ele>
        <time>2022-08-10T14:54:08Z</time>
      </trkpt>
      <trkpt lat="44.48025" lon="1.36207">
        <ele>109.1</ele>
        <time>2022-08-10T14:54:10Z</time>
      </trkpt>
      <trkpt lat="44.48024" lon="1.362">
        <ele>109.2</ele>
        <time>2022-08-10T14:54:12Z</time>
      </trkpt>
      <trkpt lat="44.48021" lon="1.36194">
        <ele>109.3</ele>
        <time>2022-08-10T14:54:14Z</time>
      </trkpt>
      <trkpt lat="44.48019" lon="1.36186">
        <ele>109.4</ele>
        <time>2022-08-10T14:54:16Z</time>
      </trkpt>
      <trkpt lat="44.48017" lon="1.3618">
        <ele>109.5</ele>
        <time>2022-08-10T14:54:18Z</time>
      </trkpt>
      <trkpt lat="44.48015" lon="1.36173">
        <ele>109.6</ele>
        <time>2022-08-10T14:54:20Z</time>
      </trkpt>
      <trkpt lat="44.48013" lon="1.36166">
        <ele>109.7</ele>
        <time>2022-08-10T14:54:22Z</time>
      </trkpt>
      <trkpt lat="44.48011" lon="1.3616">
        <ele>109.7</ele>
        <time>2022-08-10T14:54:24Z</time>
      </trkpt>
      <trkpt lat="44.4801" lon="1.36153">
        <ele>109.8</ele>
        <time>2022-08-10T14:54:26Z</time>
      </trkpt>
      <trkpt lat="44.48008" lon="1.36146">
        <ele>109.8</ele>
        <time>2022-08-10T14:54:28Z</time>
      </trkpt>
      <trkpt lat="44.48006" lon="1.36139">
        <ele>109.8</ele>
        <time>2022-08-10T14:54:30Z</time>
      </trkpt>
      <trkpt lat="44.48004" lon="1.36131">
        <ele>109.9</ele>
        <time>2022-08-10T14:54:32Z</time>
      </trkpt>
      <trkpt lat="44.48004" lon="1.36122">
        <ele>109.9</ele>
        <time>2022-08-10T14:54:34Z</time>
      </trkpt>
      <trkpt lat="44.48003" lon="1.36114">
        <ele>109.9</ele>
        <time>2022-08-10T14:54:36Z</time>
      </trkpt>
      <trkpt lat="44.48001" lon="1.36105">
        <ele>110</ele>
        <time>2022-08-10T14:54:38Z</time>
      </trkpt>
      <trkpt lat="44.48" lon="1.36096">
        <ele>110</ele>
        <time>2022-08-10T14:54:40Z</time>
      </trkpt>
      <trkpt lat="44.47999" lon="1.36086">
        <ele>110</ele>
        <time>2022-08-10T14:54:42Z</time>
      </trkpt>
      <trkpt lat="44.47999" lon="1.36078">
        <ele>109.9</ele>
        <time>2022-08-10T14:54:44Z</time>
      </trkpt>
      <trkpt lat="44.47998" lon="1.3607">
        <ele>109.8</ele>
        <time>2022-08-10T14:54:46Z</time>
      </trkpt>
      <trkpt lat="44.47997" lon="1.36061">
        <ele>109.7</ele>
        <time>2022-08-10T14:54:48Z</time>
      </trkpt>
      <trkpt lat="44.47997" lon="1.36051">
        <ele>109.6</ele>
        <time>2022-08-10T14:54:50Z</time>
      </trkpt>
      <trkpt lat="44.47997" lon="1.36041">
        <ele>109.5</ele>
        <time>2022-08-10T14:54:52Z</time>
      </trkpt>
      <trkpt lat="44.47997" lon="1.36032">
        <ele>109.4</ele>
        <time>2022-08-10T14:54:54Z</time>
      </trkpt>
      <trkpt lat="44.47997" lon="1.36021">
        <ele>109.3</ele>
        <time>2022-08-10T14:54:56Z</time>
      </trkpt>
      <trkpt lat="44.47998" lon="1.3601">
        <ele>109.1</ele>
        <time>2022-08-10T14:54:58Z</time>
      </trkpt>
      <trkpt lat="44.47999" lon="1.36">
        <ele>109</ele>
        <time>2022-08-10T14:55:00Z</time>
      </trkpt>
      <trkpt lat="44.48" lon="1.35989">
        <ele>109.1</ele>
        <time>2022-08-10T14:55:02Z</time>
      </trkpt>
      <trkpt lat="44.48001" lon="1.35977">
        <ele>109.3</ele>
        <time>2022-08-10T14:55:04Z</time>
      </trkpt>
      <trkpt lat="44.48003" lon="1.35964">
        <ele>109.4</ele>
        <time>2022-08-10T14:55:06Z</time>
      </trkpt>
      <trkpt lat="44.48005" lon="1.3595">
        <ele>109.6</ele>
        <time>2022-08-10T14:55:08Z</time>
      </trkpt>
      <trkpt lat="44.48007" lon="1.35938">
        <ele>109.7</ele>
        <time>2022-08-10T14:55:10Z</time>
      </trkpt>
      <trkpt lat="44.4801" lon="1.35926">
        <ele>109.8</ele>
        <time>2022-08-10T14:55:12Z</time>
      </trkpt>
      <trkpt lat="44.48013" lon="1.35915">
        <ele>109.9</ele>
        <time>2022-08-10T14:55:14Z</time>
      </trkpt>
      <trkpt lat="44.48016" lon="1.35904">
        <ele>110</ele>
        <time>2022-08-10T14:55:16Z</time>
      </trkpt>
      <trkpt lat="44.48019" lon="1.35892">
        <ele>110.1</ele>
        <time>2022-08-10T14:55:18Z</time>
      </trkpt>
      <trkpt lat="44.48022" lon="1.3588">
        <ele>110.2</ele>
        <time>2022-08-10T14:55:20Z</time>
      </trkpt>
      <trkpt lat="44.48026" lon="1.3587">
        <ele>110.2</ele>
        <time>2022-08-10T14:55:22Z</time>
      </trkpt>
      <trkpt lat="44.48029" lon="1.35858">
        <ele>110.3</ele>
        <time>2022-08-10T14:55:24Z</time>
      </trkpt>
      <trkpt lat="44.48032" lon="1.3585">
        <ele>110.4</ele>
        <time>2022-08-10T14:55:26Z</time>
      </trkpt>
      <trkpt lat="44.48036" lon="1.35839">
        <ele>110.5</ele>
        <time>2022-08-10T14:55:28Z</time>
      </trkpt>
      <trkpt lat="44.48039" lon="1.35829">
        <ele>110.7</ele>
        <time>2022-08-10T14:55:30Z</time>
      </trkpt>
      <trkpt lat="44.48043" lon="1.3582">
        <ele>110.9</ele>
        <time>2022-08-10T14:55:32Z</time>
      </trkpt>
      <trkpt lat="44.48046" lon="1.3581">
        <ele>111.1</ele>
        <time>2022-08-10T14:55:34Z</time>
      </trkpt>
      <trkpt lat="44.4805" lon="1.35801">
        <ele>111.3</ele>
        <time>2022-08-10T14:55:36Z</time>
      </trkpt>
      <trkpt lat="44.48053" lon="1.35792">
        <ele>111.5</ele>
        <time>2022-08-10T14:55:38Z</time>
      </trkpt>
      <trkpt lat="44.48056" lon="1.35783">
        <ele>111.7</ele>
        <time>2022-08-10T14:55:40Z</time>
      </trkpt>
      <trkpt lat="44.4806" lon="1.35774">
        <ele>111.9</ele>
        <time>2022-08-10T14:55:42Z</time>
      </trkpt>
      <trkpt lat="44.48063" lon="1.35766">
        <ele>112.1</ele>
        <time>2022-08-10T14:55:44Z</time>
      </trkpt>
      <trkpt lat="44.48065" lon="1.35758">
        <ele>112.2</ele>
        <time>2022-08-10T14:55:46Z</time>
      </trkpt>
      <trkpt lat="44.48068" lon="1.35749">
        <ele>112.4</ele>
        <time>2022-08-10T14:55:48Z</time>
      </trkpt>
      <trkpt lat="44.48071" lon="1.35741">
        <ele>112.8</ele>
        <time>2022-08-10T14:55:50Z</time>
      </trkpt>
      <trkpt lat="44.48073" lon="1.35734">
        <ele>113.1</ele>
        <time>2022-08-10T14:55:52Z</time>
      </trkpt>
      <trkpt lat="44.48076" lon="1.35726">
        <ele>113.4</ele>
        <time>2022-08-10T14:55:54Z</time>
      </trkpt>
      <trkpt lat="44.48079" lon="1.35719">
        <ele>113.6</ele>
        <time>2022-08-10T14:55:56Z</time>
      </trkpt>
      <trkpt lat="44.48081" lon="1.35713">
        <ele>113.9</ele>
        <time>2022-08-10T14:55:58Z</time>
      </trkpt>
      <trkpt lat="44.48084" lon="1.35706">
        <ele>114.1</ele>
        <time>2022-08-10T14:56:00Z</time>
      </trkpt>
      <trkpt lat="44.48086" lon="1.35699">
        <ele>114.4</ele>
        <time>2022-08-10T14:56:02Z</time>
      </trkpt>
      <trkpt lat="44.48089" lon="1.35692">
        <ele>114.6</ele>
        <time>2022-08-10T14:56:04Z</time>
      </trkpt>
      <trkpt lat="44.48091" lon="1.35686">
        <ele>114.7</ele>
        <time>2022-08-10T14:56:06Z</time>
      </trkpt>
      <trkpt lat="44.48094" lon="1.35678">
        <ele>114.9</ele>
        <time>2022-08-10T14:56:08Z</time>
      </trkpt>
      <trkpt lat="44.48097" lon="1.35671">
        <ele>115.1</ele>
        <time>2022-08-10T14:56:10Z</time>
      </trkpt>
      <trkpt lat="44.48099" lon="1.35665">
        <ele>115.3</ele>
        <time>2022-08-10T14:56:12Z</time>
      </trkpt>
      <trkpt lat="44.48102" lon="1.35659">
        <ele>115.3</ele>
        <time>2022-08-10T14:56:14Z</time>
      </trkpt>
      <trkpt lat="44.48105" lon="1.35653">
        <ele>115.3</ele>
        <time>2022-08-10T14:56:16Z</time>
      </trkpt>
      <trkpt lat="44.48106" lon="1.35648">
        <ele>115.4</ele>
        <time>2022-08-10T14:56:18Z</time>
      </trkpt>
      <trkpt lat="44.48109" lon="1.35643">
        <ele>115.4</ele>
        <time>2022-08-10T14:56:20Z</time>
      </trkpt>
      <trkpt lat="44.48111" lon="1.35636">
        <ele>115.4</ele>
        <time>2022-08-10T14:56:22Z</time>
      </trkpt>
      <trkpt lat="44.48113" lon="1.3563">
        <ele>115.4</ele>
        <time>2022-08-10T14:56:24Z</time>
      </trkpt>
      <trkpt lat="44.48115" lon="1.35627">
        <ele>115.5</ele>
        <time>2022-08-10T14:56:26Z</time>
      </trkpt>
      <trkpt lat="44.48117" lon="1.35622">
        <ele>115.5</ele>
        <time>2022-08-10T14:56:28Z</time>
      </trkpt>
      <trkpt lat="44.48118" lon="1.35616">
        <ele>115.6</ele>
        <time>2022-08-10T14:56:30Z</time>
      </trkpt>
      <trkpt lat="44.4812" lon="1.35611">
        <ele>115.6</ele>
        <time>2022-08-10T14:56:32Z</time>
      </trkpt>
      <trkpt lat="44.48123" lon="1.35605">
        <ele>115.6</ele>
        <time>2022-08-10T14:56:34Z</time>
      </trkpt>
      <trkpt lat="44.48125" lon="1.35598">
        <ele>115.7</ele>
        <time>2022-08-10T14:56:36Z</time>
      </trkpt>
      <trkpt lat="44.48126" lon="1.35591">
        <ele>115.8</ele>
        <time>2022-08-10T14:56:38Z</time>
      </trkpt>
      <trkpt lat="44.48129" lon="1.35584">
        <ele>115.8</ele>
        <time>2022-08-10T14:56:40Z</time>
      </trkpt>
      <trkpt lat="44.4813" lon="1.35576">
        <ele>115.9</ele>
        <time>2022-08-10T14:56:42Z</time>
      </trkpt>
      <trkpt lat="44.48132" lon="1.35567">
        <ele>115.9</ele>
        <time>2022-08-10T14:56:44Z</time>
      </trkpt>
      <trkpt lat="44.48134" lon="1.35559">
        <ele>116</ele>
        <time>2022-08-10T14:56:46Z</time>
      </trkpt>
      <trkpt lat="44.48137" lon="1.3555">
        <ele>116</ele>
        <time>2022-08-10T14:56:48Z</time>
      </trkpt>
      <trkpt lat="44.48138" lon="1.35541">
        <ele>116</ele>
        <time>2022-08-10T14:56:50Z</time>
      </trkpt>
      <trkpt lat="44.48139" lon="1.35533">
        <ele>116.1</ele>
        <time>2022-08-10T14:56:52Z</time>
      </trkpt>
      <trkpt lat="44.48141" lon="1.35525">
        <ele>116.2</ele>
        <time>2022-08-10T14:56:54Z</time>
      </trkpt>
      <trkpt lat="44.48142" lon="1.35515">
        <ele>116.2</ele>
        <time>2022-08-10T14:56:56Z</time>
      </trkpt>
      <trkpt lat="44.48144" lon="1.35506">
        <ele>116.3</ele>
        <time>2022-08-10T14:56:58Z</time>
      </trkpt>
      <trkpt lat="44.48145" lon="1.35496">
        <ele>116.4</ele>
        <time>2022-08-10T14:57:00Z</time>
      </trkpt>
      <trkpt lat="44.48147" lon="1.35485">
        <ele>116.5</ele>
        <time>2022-08-10T14:57:02Z</time>
      </trkpt>
      <trkpt lat="44.48148" lon="1.35475">
        <ele>116.6</ele>
        <time>2022-08-10T14:57:04Z</time>
      </trkpt>
      <trkpt lat="44.4815" lon="1.35463">
        <ele>116.7</ele>
        <time>2022-08-10T14:57:06Z</time>
      </trkpt>
      <trkpt lat="44.48152" lon="1.35453">
        <ele>116.8</ele>
        <time>2022-08-10T14:57:08Z</time>
      </trkpt>
      <trkpt lat="44.48154" lon="1.35444">
        <ele>116.9</ele>
        <time>2022-08-10T14:57:10Z</time>
      </trkpt>
      <trkpt lat="44.48156" lon="1.35433">
        <ele>117</ele>
        <time>2022-08-10T14:57:12Z</time>
      </trkpt>
      <trkpt lat="44.48158" lon="1.35422">
        <ele>117.2</ele>
        <time>2022-08-10T14:57:14Z</time>
      </trkpt>
      <trkpt lat="44.4816" lon="1.35411">
        <ele>117.3</ele>
        <time>2022-08-10T14:57:16Z</time>
      </trkpt>
      <trkpt lat="44.4816" lon="1.354">
        <ele>117.4</ele>
        <time>2022-08-10T14:57:18Z</time>
      </trkpt>
      <trkpt lat="44.48161" lon="1.35387">
        <ele>117.6</ele>
        <time>2022-08-10T14:57:20Z</time>
      </trkpt>
      <trkpt lat="44.48161" lon="1.35379">
        <ele>117.7</ele>
        <time>2022-08-10T14:57:22Z</time>
      </trkpt>
      <trkpt lat="44.4816" lon="1.35368">
        <ele>117.9</ele>
        <time>2022-08-10T14:57:24Z</time>
      </trkpt>
      <trkpt lat="44.48158" lon="1.3536">
        <ele>118.1</ele>
        <time>2022-08-10T14:57:26Z</time>
      </trkpt>
      <trkpt lat="44.48153" lon="1.35354">
        <ele>118.4</ele>
        <time>2022-08-10T14:57:28Z</time>
      </trkpt>
      <trkpt lat="44.48147" lon="1.35354">
        <ele>118.6</ele>
        <time>2022-08-10T14:57:30Z</time>
      </trkpt>
      <trkpt lat="44.4814" lon="1.3535">
        <ele>119</ele>
        <time>2022-08-10T14:57:32Z</time>
      </trkpt>
      <trkpt lat="44.48136" lon="1.35343">
        <ele>119.3</ele>
        <time>2022-08-10T14:57:34Z</time>
      </trkpt>
      <trkpt lat="44.48135" lon="1.35334">
        <ele>119.5</ele>
        <time>2022-08-10T14:57:36Z</time>
      </trkpt>
      <trkpt lat="44.48135" lon="1.35324">
        <ele>119.7</ele>
        <time>2022-08-10T14:57:38Z</time>
      </trkpt>
      <trkpt lat="44.48134" lon="1.35313">
        <ele>119.9</ele>
        <time>2022-08-10T14:57:40Z</time>
      </trkpt>
      <trkpt lat="44.48131" lon="1.35302">
        <ele>120.2</ele>
        <time>2022-08-10T14:57:42Z</time>
      </trkpt>
      <trkpt lat="44.48129" lon="1.35291">
        <ele>120.6</ele>
        <time>2022-08-10T14:57:44Z</time>
      </trkpt>
      <trkpt lat="44.48126" lon="1.35279">
        <ele>120.9</ele>
        <time>2022-08-10T14:57:46Z</time>
      </trkpt>
      <trkpt lat="44.48123" lon="1.35269">
        <ele>121.3</ele>
        <time>2022-08-10T14:57:48Z</time>
      </trkpt>
      <trkpt lat="44.4812" lon="1.35258">
        <ele>121.6</ele>
        <time>2022-08-10T14:57:50Z</time>
      </trkpt>
      <trkpt lat="44.48117" lon="1.35247">
        <ele>122</ele>
        <time>2022-08-10T14:57:52Z</time>
      </trkpt>
      <trkpt lat="44.48113" lon="1.35237">
        <ele>122.4</ele>
        <time>2022-08-10T14:57:54Z</time>
      </trkpt>
      <trkpt lat="44.4811" lon="1.35227">
        <ele>122.7</ele>
        <time>2022-08-10T14:57:56Z</time>
      </trkpt>
      <trkpt lat="44.48106" lon="1.35217">
        <ele>123</ele>
        <time>2022-08-10T14:57:58Z</time>
      </trkpt>
      <trkpt lat="44.48103" lon="1.35207">
        <ele>123.3</ele>
        <time>2022-08-10T14:58:00Z</time>
      </trkpt>
      <trkpt lat="44.48099" lon="1.35198">
        <ele>123.7</ele>
        <time>2022-08-10T14:58:02Z</time>
      </trkpt>
      <trkpt lat="44.48095" lon="1.35189">
        <ele>124</ele>
        <time>2022-08-10T14:58:04Z</time>
      </trkpt>
      <trkpt lat="44.4809" lon="1.3518">
        <ele>124.4</ele>
        <time>2022-08-10T14:58:06Z</time>
      </trkpt>
      <trkpt lat="44.48086" lon="1.35171">
        <ele>124.8</ele>
        <time>2022-08-10T14:58:08Z</time>
      </trkpt>
      <trkpt lat="44.48081" lon="1.35162">
        <ele>124.9</ele>
        <time>2022-08-10T14:58:10Z</time>
      </trkpt>
      <trkpt lat="44.48076" lon="1.35154">
        <ele>124.8</ele>
        <time>2022-08-10T14:58:12Z</time>
      </trkpt>
      <trkpt lat="44.48071" lon="1.35146">
        <ele>124.7</ele>
        <time>2022-08-10T14:58:14Z</time>
      </trkpt>
      <trkpt lat="44.48066" lon="1.35138">
        <ele>124.5</ele>
        <time>2022-08-10T14:58:16Z</time>
      </trkpt>
      <trkpt lat="44.48061" lon="1.3513">
        <ele>124.4</ele>
        <time>2022-08-10T14:58:18Z</time>
      </trkpt>
      <trkpt lat="44.48056" lon="1.35122">
        <ele>124.3</ele>
        <time>2022-08-10T14:58:20Z</time>
      </trkpt>
      <trkpt lat="44.48051" lon="1.35115">
        <ele>124.1</ele>
        <time>2022-08-10T14:58:22Z</time>
      </trkpt>
      <trkpt lat="44.48047" lon="1.35107">
        <ele>124</ele>
        <time>2022-08-10T14:58:24Z</time>
      </trkpt>
      <trkpt lat="44.48041" lon="1.351">
        <ele>123.9</ele>
        <time>2022-08-10T14:58:26Z</time>
      </trkpt>
      <trkpt lat="44.48036" lon="1.35093">
        <ele>123.8</ele>
        <time>2022-08-10T14:58:28Z</time>
      </trkpt>
      <trkpt lat="44.48031" lon="1.35087">
        <ele>123.7</ele>
        <time>2022-08-10T14:58:30Z</time>
      </trkpt>
      <trkpt lat="44.48026" lon="1.35079">
        <ele>123.5</ele>
        <time>2022-08-10T14:58:32Z</time>
      </trkpt>
      <trkpt lat="44.48023" lon="1.35072">
        <ele>123.3</ele>
        <time>2022-08-10T14:58:34Z</time>
      </trkpt>
      <trkpt lat="44.48022" lon="1.35064">
        <ele>123</ele>
        <time>2022-08-10T14:58:36Z</time>
      </trkpt>
      <trkpt lat="44.48021" lon="1.35056">
        <ele>122.7</ele>
        <time>2022-08-10T14:58:38Z</time>
      </trkpt>
      <trkpt lat="44.48015" lon="1.35048">
        <ele>122.4</ele>
        <time>2022-08-10T14:58:40Z</time>
      </trkpt>
      <trkpt lat="44.48009" lon="1.35038">
        <ele>122.2</ele>
        <time>2022-08-10T14:58:42Z</time>
      </trkpt>
      <trkpt lat="44.48002" lon="1.35028">
        <ele>122</ele>
        <time>2022-08-10T14:58:44Z</time>
      </trkpt>
      <trkpt lat="44.47996" lon="1.35019">
        <ele>121.9</ele>
        <time>2022-08-10T14:58:46Z</time>
      </trkpt>
      <trkpt lat="44.4799" lon="1.3501">
        <ele>121.9</ele>
        <time>2022-08-10T14:58:48Z</time>
      </trkpt>
      <trkpt lat="44.47983" lon="1.35002">
        <ele>122</ele>
        <time>2022-08-10T14:58:50Z</time>
      </trkpt>
      <trkpt lat="44.47978" lon="1.34994">
        <ele>122.2</ele>
        <time>2022-08-10T14:58:52Z</time>
      </trkpt>
      <trkpt lat="44.47972" lon="1.34985">
        <ele>122.3</ele>
        <time>2022-08-10T14:58:54Z</time>
      </trkpt>
      <trkpt lat="44.47966" lon="1.34978">
        <ele>122.4</ele>
        <time>2022-08-10T14:58:56Z</time>
      </trkpt>
      <trkpt lat="44.47961" lon="1.3497">
        <ele>122.4</ele>
        <time>2022-08-10T14:58:58Z</time>
      </trkpt>
      <trkpt lat="44.47957" lon="1.34962">
        <ele>122.5</ele>
        <time>2022-08-10T14:59:00Z</time>
      </trkpt>
      <trkpt lat="44.47951" lon="1.34955">
        <ele>122.5</ele>
        <time>2022-08-10T14:59:02Z</time>
      </trkpt>
      <trkpt lat="44.47946" lon="1.34947">
        <ele>122.6</ele>
        <time>2022-08-10T14:59:04Z</time>
      </trkpt>
      <trkpt lat="44.47941" lon="1.3494">
        <ele>122.6</ele>
        <time>2022-08-10T14:59:06Z</time>
      </trkpt>
      <trkpt lat="44.47936" lon="1.34933">
        <ele>122.6</ele>
        <time>2022-08-10T14:59:08Z</time>
      </trkpt>
      <trkpt lat="44.47931" lon="1.34925">
        <ele>122.6</ele>
        <time>2022-08-10T14:59:10Z</time>
      </trkpt>
      <trkpt lat="44.47926" lon="1.34918">
        <ele>122.6</ele>
        <time>2022-08-10T14:59:12Z</time>
      </trkpt>
      <trkpt lat="44.47922" lon="1.3491">
        <ele>122.5</ele>
        <time>2022-08-10T14:59:14Z</time>
      </trkpt>
      <trkpt lat="44.47917" lon="1.34903">
        <ele>122.5</ele>
        <time>2022-08-10T14:59:16Z</time>
      </trkpt>
      <trkpt lat="44.47912" lon="1.34896">
        <ele>122.5</ele>
        <time>2022-08-10T14:59:18Z</time>
      </trkpt>
      <trkpt lat="44.47908" lon="1.34889">
        <ele>122.5</ele>
        <time>2022-08-10T14:59:20Z</time>
      </trkpt>
      <trkpt lat="44.47904" lon="1.34883">
        <ele>122.6</ele>
        <time>2022-08-10T14:59:22Z</time>
      </trkpt>
      <trkpt lat="44.479" lon="1.3488">
        <ele>122.7</ele>
        <time>2022-08-10T14:59:24Z</time>
      </trkpt>
      <trkpt lat="44.47896" lon="1.34877">
        <ele>122.9</ele>
        <time>2022-08-10T14:59:26Z</time>
      </trkpt>
      <trkpt lat="44.47892" lon="1.34875">
        <ele>123.1</ele>
        <time>2022-08-10T14:59:28Z</time>
      </trkpt>
      <trkpt lat="44.4789" lon="1.34869">
        <ele>123.1</ele>
        <time>2022-08-10T14:59:30Z</time>
      </trkpt>
      <trkpt lat="44.47889" lon="1.3486">
        <ele>123</ele>
        <time>2022-08-10T14:59:32Z</time>
      </trkpt>
      <trkpt lat="44.47887" lon="1.3485">
        <ele>122.9</ele>
        <time>2022-08-10T14:59:34Z</time>
      </trkpt>
      <trkpt lat="44.47885" lon="1.34839">
        <ele>122.7</ele>
        <time>2022-08-10T14:59:36Z</time>
      </trkpt>
      <trkpt lat="44.47884" lon="1.34827">
        <ele>122.6</ele>
        <time>2022-08-10T14:59:38Z</time>
      </trkpt>
      <trkpt lat="44.47881" lon="1.34815">
        <ele>122.3</ele>
        <time>2022-08-10T14:59:40Z</time>
      </trkpt>
      <trkpt lat="44.4788" lon="1.34801">
        <ele>121.9</ele>
        <time>2022-08-10T14:59:42Z</time>
      </trkpt>
      <trkpt lat="44.47878" lon="1.34787">
        <ele>121.6</ele>
        <time>2022-08-10T14:59:44Z</time>
      </trkpt>
      <trkpt lat="44.47877" lon="1.34772">
        <ele>121.1</ele>
        <time>2022-08-10T14:59:46Z</time>
      </trkpt>
      <trkpt lat="44.47875" lon="1.34757">
        <ele>120.7</ele>
        <time>2022-08-10T14:59:48Z</time>
      </trkpt>
      <trkpt lat="44.47874" lon="1.34741">
        <ele>120.4</ele>
        <time>2022-08-10T14:59:50Z</time>
      </trkpt>
      <trkpt lat="44.47873" lon="1.34725">
        <ele>120</ele>
        <time>2022-08-10T14:59:52Z</time>
      </trkpt>
      <trkpt lat="44.47873" lon="1.34709">
        <ele>119.7</ele>
        <time>2022-08-10T14:59:54Z</time>
      </trkpt>
      <trkpt lat="44.47873" lon="1.34691">
        <ele>119.2</ele>
        <time>2022-08-10T14:59:56Z</time>
      </trkpt>
      <trkpt lat="44.47874" lon="1.34674">
        <ele>118.8</ele>
        <time>2022-08-10T14:59:58Z</time>
      </trkpt>
      <trkpt lat="44.47875" lon="1.34657">
        <ele>118.4</ele>
        <time>2022-08-10T15:00:00Z</time>
      </trkpt>
      <trkpt lat="44.47876" lon="1.34639">
        <ele>118.1</ele>
        <time>2022-08-10T15:00:02Z</time>
      </trkpt>
      <trkpt lat="44.47877" lon="1.34621">
        <ele>117.9</ele>
        <time>2022-08-10T15:00:04Z</time>
      </trkpt>
      <trkpt lat="44.47878" lon="1.34601">
        <ele>117.6</ele>
        <time>2022-08-10T15:00:06Z</time>
      </trkpt>
      <trkpt lat="44.47879" lon="1.34581">
        <ele>117.3</ele>
        <time>2022-08-10T15:00:08Z</time>
      </trkpt>
      <trkpt lat="44.47879" lon="1.3456">
        <ele>116.8</ele>
        <time>2022-08-10T15:00:10Z</time>
      </trkpt>
      <trkpt lat="44.47879" lon="1.34538">
        <ele>116.3</ele>
        <time>2022-08-10T15:00:12Z</time>
      </trkpt>
      <trkpt lat="44.47879" lon="1.34514">
        <ele>115.7</ele>
        <time>2022-08-10T15:00:14Z</time>
      </trkpt>
      <trkpt lat="44.47877" lon="1.3449">
        <ele>115.1</ele>
        <time>2022-08-10T15:00:16Z</time>
      </trkpt>
      <trkpt lat="44.47875" lon="1.34466">
        <ele>114.5</ele>
        <time>2022-08-10T15:00:18Z</time>
      </trkpt>
      <trkpt lat="44.47872" lon="1.34443">
        <ele>113.9</ele>
        <time>2022-08-10T15:00:20Z</time>
      </trkpt>
      <trkpt lat="44.47868" lon="1.3442">
        <ele>113.5</ele>
        <time>2022-08-10T15:00:22Z</time>
      </trkpt>
      <trkpt lat="44.47864" lon="1.34398">
        <ele>113.3</ele>
        <time>2022-08-10T15:00:24Z</time>
      </trkpt>
      <trkpt lat="44.4786" lon="1.34377">
        <ele>113.1</ele>
        <time>2022-08-10T15:00:26Z</time>
      </trkpt>
      <trkpt lat="44.47856" lon="1.34356">
        <ele>112.8</ele>
        <time>2022-08-10T15:00:28Z</time>
      </trkpt>
      <trkpt lat="44.47852" lon="1.34335">
        <ele>112.6</ele>
        <time>2022-08-10T15:00:30Z</time>
      </trkpt>
      <trkpt lat="44.47849" lon="1.34316">
        <ele>112.6</ele>
        <time>2022-08-10T15:00:32Z</time>
      </trkpt>
      <trkpt lat="44.47845" lon="1.34296">
        <ele>112.6</ele>
        <time>2022-08-10T15:00:34Z</time>
      </trkpt>
      <trkpt lat="44.47842" lon="1.34277">
        <ele>112.7</ele>
        <time>2022-08-10T15:00:36Z</time>
      </trkpt>
      <trkpt lat="44.47839" lon="1.34258">
        <ele>112.7</ele>
        <time>2022-08-10T15:00:38Z</time>
      </trkpt>
      <trkpt lat="44.47836" lon="1.34239">
        <ele>112.8</ele>
        <time>2022-08-10T15:00:40Z</time>
      </trkpt>
      <trkpt lat="44.47833" lon="1.34222">
        <ele>112.7</ele>
        <time>2022-08-10T15:00:42Z</time>
      </trkpt>
      <trkpt lat="44.4783" lon="1.34204">
        <ele>112.6</ele>
        <time>2022-08-10T15:00:44Z</time>
      </trkpt>
      <trkpt lat="44.47826" lon="1.34187">
        <ele>112.6</ele>
        <time>2022-08-10T15:00:46Z</time>
      </trkpt>
      <trkpt lat="44.47821" lon="1.34171">
        <ele>112.7</ele>
        <time>2022-08-10T15:00:48Z</time>
      </trkpt>
      <trkpt lat="44.47816" lon="1.34156">
        <ele>112.8</ele>
        <time>2022-08-10T15:00:50Z</time>
      </trkpt>
      <trkpt lat="44.4781" lon="1.34141">
        <ele>112.9</ele>
        <time>2022-08-10T15:00:52Z</time>
      </trkpt>
      <trkpt lat="44.47805" lon="1.34127">
        <ele>113.1</ele>
        <time>2022-08-10T15:00:54Z</time>
      </trkpt>
      <trkpt lat="44.47799" lon="1.34113">
        <ele>113.3</ele>
        <time>2022-08-10T15:00:56Z</time>
      </trkpt>
      <trkpt lat="44.47793" lon="1.341">
        <ele>113.5</ele>
        <time>2022-08-10T15:00:58Z</time>
      </trkpt>
      <trkpt lat="44.47787" lon="1.34088">
        <ele>113.8</ele>
        <time>2022-08-10T15:01:00Z</time>
      </trkpt>
      <trkpt lat="44.47782" lon="1.34075">
        <ele>114</ele>
        <time>2022-08-10T15:01:02Z</time>
      </trkpt>
      <trkpt lat="44.47777" lon="1.34063">
        <ele>114.2</ele>
        <time>2022-08-10T15:01:04Z</time>
      </trkpt>
      <trkpt lat="44.47772" lon="1.34051">
        <ele>114.4</ele>
        <time>2022-08-10T15:01:06Z</time>
      </trkpt>
      <trkpt lat="44.47768" lon="1.34038">
        <ele>114.5</ele>
        <time>2022-08-10T15:01:08Z</time>
      </trkpt>
      <trkpt lat="44.47763" lon="1.34027">
        <ele>114.7</ele>
        <time>2022-08-10T15:01:10Z</time>
      </trkpt>
      <trkpt lat="44.47758" lon="1.34015">
        <ele>114.8</ele>
        <time>2022-08-10T15:01:12Z</time>
      </trkpt>
      <trkpt lat="44.47753" lon="1.34003">
        <ele>114.9</ele>
        <time>2022-08-10T15:01:14Z</time>
      </trkpt>
      <trkpt lat="44.47748" lon="1.33991">
        <ele>114.6</ele>
        <time>2022-08-10T15:01:16Z</time>
      </trkpt>
      <trkpt lat="44.47742" lon="1.33978">
        <ele>114.2</ele>
        <time>2022-08-10T15:01:18Z</time>
      </trkpt>
      <trkpt lat="44.47737" lon="1.33965">
        <ele>113.8</ele>
        <time>2022-08-10T15:01:20Z</time>
      </trkpt>
      <trkpt lat="44.47731" lon="1.33953">
        <ele>113.4</ele>
        <time>2022-08-10T15:01:22Z</time>
      </trkpt>
      <trkpt lat="44.47726" lon="1.33939">
        <ele>113.1</ele>
        <time>2022-08-10T15:01:24Z</time>
      </trkpt>
      <trkpt lat="44.47719" lon="1.33928">
        <ele>112.9</ele>
        <time>2022-08-10T15:01:26Z</time>
      </trkpt>
      <trkpt lat="44.47713" lon="1.33914">
        <ele>112.7</ele>
        <time>2022-08-10T15:01:28Z</time>
      </trkpt>
      <trkpt lat="44.47706" lon="1.339">
        <ele>112.4</ele>
        <time>2022-08-10T15:01:30Z</time>
      </trkpt>
      <trkpt lat="44.47698" lon="1.33886">
        <ele>112.1</ele>
        <time>2022-08-10T15:01:32Z</time>
      </trkpt>
      <trkpt lat="44.47691" lon="1.33872">
        <ele>111.6</ele>
        <time>2022-08-10T15:01:34Z</time>
      </trkpt>
      <trkpt lat="44.47682" lon="1.33857">
        <ele>111.1</ele>
        <time>2022-08-10T15:01:36Z</time>
      </trkpt>
      <trkpt lat="44.47674" lon="1.33843">
        <ele>110.4</ele>
        <time>2022-08-10T15:01:38Z</time>
      </trkpt>
      <trkpt lat="44.47665" lon="1.33828">
        <ele>110</ele>
        <time>2022-08-10T15:01:40Z</time>
      </trkpt>
      <trkpt lat="44.47657" lon="1.33813">
        <ele>110.6</ele>
        <time>2022-08-10T15:01:42Z</time>
      </trkpt>
      <trkpt lat="44.47649" lon="1.33798">
        <ele>111.3</ele>
        <time>2022-08-10T15:01:44Z</time>
      </trkpt>
      <trkpt lat="44.4764" lon="1.33784">
        <ele>112.1</ele>
        <time>2022-08-10T15:01:46Z</time>
      </trkpt>
      <trkpt lat="44.47632" lon="1.33768">
        <ele>112.8</ele>
        <time>2022-08-10T15:01:48Z</time>
      </trkpt>
      <trkpt lat="44.47625" lon="1.33754">
        <ele>113.5</ele>
        <time>2022-08-10T15:01:50Z</time>
      </trkpt>
      <trkpt lat="44.47619" lon="1.33738">
        <ele>114.4</ele>
        <time>2022-08-10T15:01:52Z</time>
      </trkpt>
      <trkpt lat="44.47614" lon="1.33723">
        <ele>115.2</ele>
        <time>2022-08-10T15:01:54Z</time>
      </trkpt>
      <trkpt lat="44.47609" lon="1.33709">
        <ele>116.1</ele>
        <time>2022-08-10T15:01:56Z</time>
      </trkpt>
      <trkpt lat="44.47605" lon="1.33695">
        <ele>116.8</ele>
        <time>2022-08-10T15:01:58Z</time>
      </trkpt>
      <trkpt lat="44.47601" lon="1.33683">
        <ele>117.5</ele>
        <time>2022-08-10T15:02:00Z</time>
      </trkpt>
      <trkpt lat="44.47598" lon="1.33671">
        <ele>118</ele>
        <time>2022-08-10T15:02:02Z</time>
      </trkpt>
      <trkpt lat="44.47595" lon="1.33661">
        <ele>118.4</ele>
        <time>2022-08-10T15:02:04Z</time>
      </trkpt>
      <trkpt lat="44.47593" lon="1.33653">
        <ele>118.7</ele>
        <time>2022-08-10T15:02:06Z</time>
      </trkpt>
      <trkpt lat="44.47591" lon="1.33643">
        <ele>118.9</ele>
        <time>2022-08-10T15:02:08Z</time>
      </trkpt>
      <trkpt lat="44.4759" lon="1.33634">
        <ele>119.1</ele>
        <time>2022-08-10T15:02:10Z</time>
      </trkpt>
      <trkpt lat="44.47589" lon="1.33625">
        <ele>119.2</ele>
        <time>2022-08-10T15:02:12Z</time>
      </trkpt>
      <trkpt lat="44.47588" lon="1.33618">
        <ele>119.3</ele>
        <time>2022-08-10T15:02:14Z</time>
      </trkpt>
      <trkpt lat="44.47587" lon="1.3361">
        <ele>119.5</ele>
        <time>2022-08-10T15:02:16Z</time>
      </trkpt>
      <trkpt lat="44.47586" lon="1.33603">
        <ele>119.6</ele>
        <time>2022-08-10T15:02:18Z</time>
      </trkpt>
      <trkpt lat="44.47585" lon="1.33597">
        <ele>119.8</ele>
        <time>2022-08-10T15:02:20Z</time>
      </trkpt>
      <trkpt lat="44.47585" lon="1.3359">
        <ele>119.8</ele>
        <time>2022-08-10T15:02:22Z</time>
      </trkpt>
      <trkpt lat="44.47584" lon="1.33585">
        <ele>119.9</ele>
        <time>2022-08-10T15:02:24Z</time>
      </trkpt>
      <trkpt lat="44.47583" lon="1.33579">
        <ele>120.3</ele>
        <time>2022-08-10T15:02:26Z</time>
      </trkpt>
      <trkpt lat="44.47583" lon="1.33572">
        <ele>121.1</ele>
        <time>2022-08-10T15:02:28Z</time>
      </trkpt>
      <trkpt lat="44.47582" lon="1.33567">
        <ele>121.5</ele>
        <time>2022-08-10T15:02:30Z</time>
      </trkpt>
      <trkpt lat="44.47582" lon="1.33563">
        <ele>121.9</ele>
        <time>2022-08-10T15:02:32Z</time>
      </trkpt>
      <trkpt lat="44.47582" lon="1.33557">
        <ele>122.6</ele>
        <time>2022-08-10T15:02:34Z</time>
      </trkpt>
      <trkpt lat="44.47581" lon="1.33553">
        <ele>123.1</ele>
        <time>2022-08-10T15:02:36Z</time>
      </trkpt>
      <trkpt lat="44.4758" lon="1.33548">
        <ele>123.9</ele>
        <time>2022-08-10T15:02:38Z</time>
      </trkpt>
      <trkpt lat="44.4758" lon="1.33542">
        <ele>124.4</ele>
        <time>2022-08-10T15:02:40Z</time>
      </trkpt>
      <trkpt lat="44.47579" lon="1.33538">
        <ele>125.3</ele>
        <time>2022-08-10T15:02:42Z</time>
      </trkpt>
      <trkpt lat="44.47579" lon="1.33532">
        <ele>125.7</ele>
        <time>2022-08-10T15:02:44Z</time>
      </trkpt>
      <trkpt lat="44.47579" lon="1.33527">
        <ele>126.2</ele>
        <time>2022-08-10T15:02:46Z</time>
      </trkpt>
      <trkpt lat="44.47578" lon="1.33523">
        <ele>126.8</ele>
        <time>2022-08-10T15:02:48Z</time>
      </trkpt>
      <trkpt lat="44.47577" lon="1.33517">
        <ele>127.6</ele>
        <time>2022-08-10T15:02:50Z</time>
      </trkpt>
      <trkpt lat="44.47576" lon="1.33512">
        <ele>128.3</ele>
        <time>2022-08-10T15:02:52Z</time>
      </trkpt>
      <trkpt lat="44.47576" lon="1.33506">
        <ele>129</ele>
        <time>2022-08-10T15:02:54Z</time>
      </trkpt>
      <trkpt lat="44.47575" lon="1.33501">
        <ele>129.8</ele>
        <time>2022-08-10T15:02:56Z</time>
      </trkpt>
      <trkpt lat="44.47574" lon="1.33497">
        <ele>130.5</ele>
        <time>2022-08-10T15:02:58Z</time>
      </trkpt>
      <trkpt lat="44.47574" lon="1.33492">
        <ele>130.8</ele>
        <time>2022-08-10T15:03:00Z</time>
      </trkpt>
      <trkpt lat="44.47573" lon="1.33487">
        <ele>131.1</ele>
        <time>2022-08-10T15:03:02Z</time>
      </trkpt>
      <trkpt lat="44.47573" lon="1.33481">
        <ele>131.7</ele>
        <time>2022-08-10T15:03:04Z</time>
      </trkpt>
      <trkpt lat="44.47572" lon="1.33478">
        <ele>132</ele>
        <time>2022-08-10T15:03:06Z</time>
      </trkpt>
      <trkpt lat="44.47572" lon="1.33472">
        <ele>132.4</ele>
        <time>2022-08-10T15:03:08Z</time>
      </trkpt>
      <trkpt lat="44.47571" lon="1.33468">
        <ele>133.2</ele>
        <time>2022-08-10T15:03:10Z</time>
      </trkpt>
      <trkpt lat="44.4757" lon="1.33463">
        <ele>133.9</ele>
        <time>2022-08-10T15:03:12Z</time>
      </trkpt>
      <trkpt lat="44.47569" lon="1.33458">
        <ele>134.5</ele>
        <time>2022-08-10T15:03:14Z</time>
      </trkpt>
      <trkpt lat="44.47568" lon="1.33452">
        <ele>135</ele>
        <time>2022-08-10T15:03:16Z</time>
      </trkpt>
      <trkpt lat="44.47568" lon="1.33447">
        <ele>135.5</ele>
        <time>2022-08-10T15:03:18Z</time>
      </trkpt>
      <trkpt lat="44.47567" lon="1.33442">
        <ele>135.9</ele>
        <time>2022-08-10T15:03:20Z</time>
      </trkpt>
      <trkpt lat="44.47566" lon="1.33437">
        <ele>136.8</ele>
        <time>2022-08-10T15:03:22Z</time>
      </trkpt>
      <trkpt lat="44.47565" lon="1.33432">
        <ele>137.5</ele>
        <time>2022-08-10T15:03:24Z</time>
      </trkpt>
      <trkpt lat="44.47565" lon="1.33426">
        <ele>137.7</ele>
        <time>2022-08-10T15:03:26Z</time>
      </trkpt>
      <trkpt lat="44.47565" lon="1.33422">
        <ele>138.3</ele>
        <time>2022-08-10T15:03:28Z</time>
      </trkpt>
      <trkpt lat="44.47564" lon="1.33418">
        <ele>138.7</ele>
        <time>2022-08-10T15:03:30Z</time>
      </trkpt>
      <trkpt lat="44.47563" lon="1.33413">
        <ele>139.6</ele>
        <time>2022-08-10T15:03:32Z</time>
      </trkpt>
      <trkpt lat="44.47564" lon="1.33408">
        <ele>139.6</ele>
        <time>2022-08-10T15:03:34Z</time>
      </trkpt>
      <trkpt lat="44.47563" lon="1.33403">
        <ele>140</ele>
        <time>2022-08-10T15:03:36Z</time>
      </trkpt>
      <trkpt lat="44.47562" lon="1.33398">
        <ele>140.7</ele>
        <time>2022-08-10T15:03:38Z</time>
      </trkpt>
      <trkpt lat="44.47561" lon="1.33394">
        <ele>141.5</ele>
        <time>2022-08-10T15:03:40Z</time>
      </trkpt>
      <trkpt lat="44.47562" lon="1.33389">
        <ele>141.6</ele>
        <time>2022-08-10T15:03:42Z</time>
      </trkpt>
      <trkpt lat="44.47562" lon="1.33384">
        <ele>141.9</ele>
        <time>2022-08-10T15:03:44Z</time>
      </trkpt>
      <trkpt lat="44.47562" lon="1.33379">
        <ele>142.2</ele>
        <time>2022-08-10T15:03:46Z</time>
      </trkpt>
      <trkpt lat="44.47561" lon="1.33375">
        <ele>142.7</ele>
        <time>2022-08-10T15:03:48Z</time>
      </trkpt>
      <trkpt lat="44.47561" lon="1.33369">
        <ele>142.9</ele>
        <time>2022-08-10T15:03:50Z</time>
      </trkpt>
      <trkpt lat="44.47561" lon="1.33365">
        <ele>143.2</ele>
        <time>2022-08-10T15:03:52Z</time>
      </trkpt>
      <trkpt lat="44.47562" lon="1.33359">
        <ele>143.2</ele>
        <time>2022-08-10T15:03:54Z</time>
      </trkpt>
      <trkpt lat="44.47562" lon="1.33354">
        <ele>143.2</ele>
        <time>2022-08-10T15:03:56Z</time>
      </trkpt>
      <trkpt lat="44.47562" lon="1.33349">
        <ele>143.3</ele>
        <time>2022-08-10T15:03:58Z</time>
      </trkpt>
      <trkpt lat="44.47562" lon="1.33344">
        <ele>143.6</ele>
        <time>2022-08-10T15:04:00Z</time>
      </trkpt>
      <trkpt lat="44.47562" lon="1.33339">
        <ele>143.9</ele>
        <time>2022-08-10T15:04:02Z</time>
      </trkpt>
      <trkpt lat="44.47562" lon="1.33334">
        <ele>144.1</ele>
        <time>2022-08-10T15:04:04Z</time>
      </trkpt>
      <trkpt lat="44.47562" lon="1.33329">
        <ele>144.4</ele>
        <time>2022-08-10T15:04:06Z</time>
      </trkpt>
      <trkpt lat="44.47563" lon="1.33324">
        <ele>144.1</ele>
        <time>2022-08-10T15:04:08Z</time>
      </trkpt>
      <trkpt lat="44.47564" lon="1.33319">
        <ele>143.7</ele>
        <time>2022-08-10T15:04:10Z</time>
      </trkpt>
      <trkpt lat="44.47563" lon="1.33314">
        <ele>144.3</ele>
        <time>2022-08-10T15:04:12Z</time>
      </trkpt>
      <trkpt lat="44.47563" lon="1.33309">
        <ele>144.4</ele>
        <time>2022-08-10T15:04:14Z</time>
      </trkpt>
      <trkpt lat="44.47564" lon="1.33305">
        <ele>144.1</ele>
        <time>2022-08-10T15:04:16Z</time>
      </trkpt>
      <trkpt lat="44.47564" lon="1.33299">
        <ele>143.8</ele>
        <time>2022-08-10T15:04:18Z</time>
      </trkpt>
      <trkpt lat="44.47564" lon="1.33295">
        <ele>143.9</ele>
        <time>2022-08-10T15:04:20Z</time>
      </trkpt>
      <trkpt lat="44.47565" lon="1.3329">
        <ele>143.7</ele>
        <time>2022-08-10T15:04:22Z</time>
      </trkpt>
      <trkpt lat="44.47565" lon="1.33285">
        <ele>143.7</ele>
        <time>2022-08-10T15:04:24Z</time>
      </trkpt>
      <trkpt lat="44.47565" lon="1.33281">
        <ele>143.7</ele>
        <time>2022-08-10T15:04:26Z</time>
      </trkpt>
      <trkpt lat="44.47566" lon="1.33276">
        <ele>143.4</ele>
        <time>2022-08-10T15:04:28Z</time>
      </trkpt>
      <trkpt lat="44.47566" lon="1.33271">
        <ele>143.9</ele>
        <time>2022-08-10T15:04:30Z</time>
      </trkpt>
      <trkpt lat="44.47565" lon="1.33265">
        <ele>144.1</ele>
        <time>2022-08-10T15:04:32Z</time>
      </trkpt>
      <trkpt lat="44.47566" lon="1.3326">
        <ele>144.2</ele>
        <time>2022-08-10T15:04:34Z</time>
      </trkpt>
      <trkpt lat="44.47566" lon="1.33256">
        <ele>144.3</ele>
        <time>2022-08-10T15:04:36Z</time>
      </trkpt>
      <trkpt lat="44.47566" lon="1.3325">
        <ele>144.3</ele>
        <time>2022-08-10T15:04:38Z</time>
      </trkpt>
      <trkpt lat="44.47566" lon="1.33245">
        <ele>144.5</ele>
        <time>2022-08-10T15:04:40Z</time>
      </trkpt>
      <trkpt lat="44.47566" lon="1.3324">
        <ele>144.9</ele>
        <time>2022-08-10T15:04:42Z</time>
      </trkpt>
      <trkpt lat="44.47566" lon="1.33235">
        <ele>144.7</ele>
        <time>2022-08-10T15:04:44Z</time>
      </trkpt>
      <trkpt lat="44.47566" lon="1.3323">
        <ele>145</ele>
        <time>2022-08-10T15:04:46Z</time>
      </trkpt>
      <trkpt lat="44.47566" lon="1.33224">
        <ele>145.2</ele>
        <time>2022-08-10T15:04:48Z</time>
      </trkpt>
      <trkpt lat="44.47567" lon="1.33219">
        <ele>145</ele>
        <time>2022-08-10T15:04:50Z</time>
      </trkpt>
      <trkpt lat="44.47567" lon="1.33214">
        <ele>145.2</ele>
        <time>2022-08-10T15:04:52Z</time>
      </trkpt>
      <trkpt lat="44.47567" lon="1.33207">
        <ele>145.3</ele>
        <time>2022-08-10T15:04:54Z</time>
      </trkpt>
      <trkpt lat="44.47568" lon="1.33201">
        <ele>145.2</ele>
        <time>2022-08-10T15:04:56Z</time>
      </trkpt>
      <trkpt lat="44.47568" lon="1.33195">
        <ele>145.4</ele>
        <time>2022-08-10T15:04:58Z</time>
      </trkpt>
      <trkpt lat="44.47569" lon="1.33188">
        <ele>145.4</ele>
        <time>2022-08-10T15:05:00Z</time>
      </trkpt>
      <trkpt lat="44.4757" lon="1.33183">
        <ele>145.4</ele>
        <time>2022-08-10T15:05:02Z</time>
      </trkpt>
      <trkpt lat="44.4757" lon="1.33177">
        <ele>145.5</ele>
        <time>2022-08-10T15:05:04Z</time>
      </trkpt>
      <trkpt lat="44.4757" lon="1.33171">
        <ele>145.7</ele>
        <time>2022-08-10T15:05:06Z</time>
      </trkpt>
      <trkpt lat="44.47572" lon="1.33166">
        <ele>145.6</ele>
        <time>2022-08-10T15:05:08Z</time>
      </trkpt>
      <trkpt lat="44.47572" lon="1.3316">
        <ele>145.5</ele>
        <time>2022-08-10T15:05:10Z</time>
      </trkpt>
      <trkpt lat="44.47573" lon="1.33154">
        <ele>145.4</ele>
        <time>2022-08-10T15:05:12Z</time>
      </trkpt>
      <trkpt lat="44.47574" lon="1.33148">
        <ele>145.5</ele>
        <time>2022-08-10T15:05:14Z</time>
      </trkpt>
      <trkpt lat="44.47576" lon="1.33142">
        <ele>145.2</ele>
        <time>2022-08-10T15:05:16Z</time>
      </trkpt>
      <trkpt lat="44.47577" lon="1.33136">
        <ele>145.2</ele>
        <time>2022-08-10T15:05:18Z</time>
      </trkpt>
      <trkpt lat="44.47578" lon="1.3313">
        <ele>145.1</ele>
        <time>2022-08-10T15:05:20Z</time>
      </trkpt>
      <trkpt lat="44.4758" lon="1.33124">
        <ele>144.9</ele>
        <time>2022-08-10T15:05:22Z</time>
      </trkpt>
      <trkpt lat="44.47582" lon="1.33118">
        <ele>144.7</ele>
        <time>2022-08-10T15:05:24Z</time>
      </trkpt>
      <trkpt lat="44.47583" lon="1.33113">
        <ele>144.7</ele>
        <time>2022-08-10T15:05:26Z</time>
      </trkpt>
      <trkpt lat="44.47583" lon="1.33107">
        <ele>144.9</ele>
        <time>2022-08-10T15:05:28Z</time>
      </trkpt>
      <trkpt lat="44.47585" lon="1.33101">
        <ele>144.4</ele>
        <time>2022-08-10T15:05:30Z</time>
      </trkpt>
      <trkpt lat="44.47588" lon="1.33096">
        <ele>143.6</ele>
        <time>2022-08-10T15:05:32Z</time>
      </trkpt>
      <trkpt lat="44.4759" lon="1.3309">
        <ele>143.4</ele>
        <time>2022-08-10T15:05:34Z</time>
      </trkpt>
      <trkpt lat="44.47591" lon="1.33084">
        <ele>143</ele>
        <time>2022-08-10T15:05:36Z</time>
      </trkpt>
      <trkpt lat="44.47593" lon="1.33079">
        <ele>142.7</ele>
        <time>2022-08-10T15:05:38Z</time>
      </trkpt>
      <trkpt lat="44.47595" lon="1.33074">
        <ele>142.4</ele>
        <time>2022-08-10T15:05:40Z</time>
      </trkpt>
      <trkpt lat="44.47596" lon="1.33067">
        <ele>142.1</ele>
        <time>2022-08-10T15:05:42Z</time>
      </trkpt>
      <trkpt lat="44.47598" lon="1.33062">
        <ele>141.9</ele>
        <time>2022-08-10T15:05:44Z</time>
      </trkpt>
      <trkpt lat="44.476" lon="1.33057">
        <ele>141.5</ele>
        <time>2022-08-10T15:05:46Z</time>
      </trkpt>
      <trkpt lat="44.47601" lon="1.33052">
        <ele>141.3</ele>
        <time>2022-08-10T15:05:48Z</time>
      </trkpt>
      <trkpt lat="44.47603" lon="1.33047">
        <ele>141.1</ele>
        <time>2022-08-10T15:05:50Z</time>
      </trkpt>
      <trkpt lat="44.47604" lon="1.33041">
        <ele>141</ele>
        <time>2022-08-10T15:05:52Z</time>
      </trkpt>
      <trkpt lat="44.47606" lon="1.33035">
        <ele>141</ele>
        <time>2022-08-10T15:05:54Z</time>
      </trkpt>
      <trkpt lat="44.47608" lon="1.3303">
        <ele>140.8</ele>
        <time>2022-08-10T15:05:56Z</time>
      </trkpt>
      <trkpt lat="44.47609" lon="1.33023">
        <ele>140.9</ele>
        <time>2022-08-10T15:05:58Z</time>
      </trkpt>
      <trkpt lat="44.4761" lon="1.33017">
        <ele>141.1</ele>
        <time>2022-08-10T15:06:00Z</time>
      </trkpt>
      <trkpt lat="44.47611" lon="1.33011">
        <ele>141.3</ele>
        <time>2022-08-10T15:06:02Z</time>
      </trkpt>
      <trkpt lat="44.47612" lon="1.33005">
        <ele>141.5</ele>
        <time>2022-08-10T15:06:04Z</time>
      </trkpt>
      <trkpt lat="44.47612" lon="1.32999">
        <ele>141.8</ele>
        <time>2022-08-10T15:06:06Z</time>
      </trkpt>
      <trkpt lat="44.47613" lon="1.32992">
        <ele>142</ele>
        <time>2022-08-10T15:06:08Z</time>
      </trkpt>
      <trkpt lat="44.47612" lon="1.32986">
        <ele>142.3</ele>
        <time>2022-08-10T15:06:10Z</time>
      </trkpt>
      <trkpt lat="44.47612" lon="1.32979">
        <ele>142.6</ele>
        <time>2022-08-10T15:06:12Z</time>
      </trkpt>
      <trkpt lat="44.47612" lon="1.32971">
        <ele>142.9</ele>
        <time>2022-08-10T15:06:14Z</time>
      </trkpt>
      <trkpt lat="44.47611" lon="1.32965">
        <ele>143.3</ele>
        <time>2022-08-10T15:06:16Z</time>
      </trkpt>
      <trkpt lat="44.4761" lon="1.32959">
        <ele>143.7</ele>
        <time>2022-08-10T15:06:18Z</time>
      </trkpt>
      <trkpt lat="44.47611" lon="1.32955">
        <ele>143.7</ele>
        <time>2022-08-10T15:06:20Z</time>
      </trkpt>
      <trkpt lat="44.47613" lon="1.32952">
        <ele>143.5</ele>
        <time>2022-08-10T15:06:22Z</time>
      </trkpt>
      <trkpt lat="44.47614" lon="1.32948">
        <ele>143.5</ele>
        <time>2022-08-10T15:06:24Z</time>
      </trkpt>
      <trkpt lat="44.47613" lon="1.32942">
        <ele>143.9</ele>
        <time>2022-08-10T15:06:26Z</time>
      </trkpt>
      <trkpt lat="44.4761" lon="1.32938">
        <ele>144.4</ele>
        <time>2022-08-10T15:06:28Z</time>
      </trkpt>
      <trkpt lat="44.47606" lon="1.32937">
        <ele>144.8</ele>
        <time>2022-08-10T15:06:30Z</time>
      </trkpt>
      <trkpt lat="44.47605" lon="1.32935">
        <ele>145</ele>
        <time>2022-08-10T15:06:32Z</time>
      </trkpt>
      <trkpt lat="44.47607" lon="1.32932">
        <ele>144.9</ele>
        <time>2022-08-10T15:06:34Z</time>
      </trkpt>
      <trkpt lat="44.4761" lon="1.32932">
        <ele>144.5</ele>
        <time>2022-08-10T15:06:36Z</time>
      </trkpt>
      <trkpt lat="44.47614" lon="1.3293">
        <ele>144.3</ele>
        <time>2022-08-10T15:06:38Z</time>
      </trkpt>
      <trkpt lat="44.47619" lon="1.32926">
        <ele>144</ele>
        <time>2022-08-10T15:06:40Z</time>
      </trkpt>
      <trkpt lat="44.47625" lon="1.32924">
        <ele>143.6</ele>
        <time>2022-08-10T15:06:42Z</time>
      </trkpt>
      <trkpt lat="44.47631" lon="1.32921">
        <ele>143.3</ele>
        <time>2022-08-10T15:06:44Z</time>
      </trkpt>
      <trkpt lat="44.47633" lon="1.32912">
        <ele>143.7</ele>
        <time>2022-08-10T15:06:46Z</time>
      </trkpt>
      <trkpt lat="44.47635" lon="1.32903">
        <ele>144.1</ele>
        <time>2022-08-10T15:06:48Z</time>
      </trkpt>
      <trkpt lat="44.47637" lon="1.32894">
        <ele>144.4</ele>
        <time>2022-08-10T15:06:50Z</time>
      </trkpt>
      <trkpt lat="44.47639" lon="1.32885">
        <ele>144.9</ele>
        <time>2022-08-10T15:06:52Z</time>
      </trkpt>
      <trkpt lat="44.47642" lon="1.32875">
        <ele>145.4</ele>
        <time>2022-08-10T15:06:54Z</time>
      </trkpt>
      <trkpt lat="44.47644" lon="1.32866">
        <ele>145.9</ele>
        <time>2022-08-10T15:06:56Z</time>
      </trkpt>
      <trkpt lat="44.47646" lon="1.32857">
        <ele>146.5</ele>
        <time>2022-08-10T15:06:58Z</time>
      </trkpt>
      <trkpt lat="44.47647" lon="1.32847">
        <ele>147.1</ele>
        <time>2022-08-10T15:07:00Z</time>
      </trkpt>
      <trkpt lat="44.47647" lon="1.32839">
        <ele>147.7</ele>
        <time>2022-08-10T15:07:02Z</time>
      </trkpt>
      <trkpt lat="44.47646" lon="1.32831">
        <ele>148</ele>
        <time>2022-08-10T15:07:04Z</time>
      </trkpt>
      <trkpt lat="44.47647" lon="1.32823">
        <ele>148</ele>
        <time>2022-08-10T15:07:06Z</time>
      </trkpt>
      <trkpt lat="44.47647" lon="1.32816">
        <ele>148</ele>
        <time>2022-08-10T15:07:08Z</time>
      </trkpt>
      <trkpt lat="44.47646" lon="1.32808">
        <ele>148</ele>
        <time>2022-08-10T15:07:10Z</time>
      </trkpt>
      <trkpt lat="44.47646" lon="1.32801">
        <ele>148</ele>
        <time>2022-08-10T15:07:12Z</time>
      </trkpt>
      <trkpt lat="44.47646" lon="1.32795">
        <ele>148</ele>
        <time>2022-08-10T15:07:14Z</time>
      </trkpt>
      <trkpt lat="44.47645" lon="1.32788">
        <ele>148</ele>
        <time>2022-08-10T15:07:16Z</time>
      </trkpt>
      <trkpt lat="44.47646" lon="1.32781">
        <ele>148</ele>
        <time>2022-08-10T15:07:18Z</time>
      </trkpt>
      <trkpt lat="44.47647" lon="1.32774">
        <ele>148</ele>
        <time>2022-08-10T15:07:20Z</time>
      </trkpt>
      <trkpt lat="44.47648" lon="1.32767">
        <ele>147.9</ele>
        <time>2022-08-10T15:07:22Z</time>
      </trkpt>
      <trkpt lat="44.4765" lon="1.32761">
        <ele>147.8</ele>
        <time>2022-08-10T15:07:24Z</time>
      </trkpt>
      <trkpt lat="44.47651" lon="1.32753">
        <ele>147.7</ele>
        <time>2022-08-10T15:07:26Z</time>
      </trkpt>
      <trkpt lat="44.47653" lon="1.32746">
        <ele>147.7</ele>
        <time>2022-08-10T15:07:28Z</time>
      </trkpt>
      <trkpt lat="44.47653" lon="1.32739">
        <ele>147.8</ele>
        <time>2022-08-10T15:07:30Z</time>
      </trkpt>
      <trkpt lat="44.47654" lon="1.32731">
        <ele>147.9</ele>
        <time>2022-08-10T15:07:32Z</time>
      </trkpt>
      <trkpt lat="44.47654" lon="1.32724">
        <ele>147.9</ele>
        <time>2022-08-10T15:07:34Z</time>
      </trkpt>
      <trkpt lat="44.47653" lon="1.32716">
        <ele>148.1</ele>
        <time>2022-08-10T15:07:36Z</time>
      </trkpt>
      <trkpt lat="44.47651" lon="1.32708">
        <ele>148.2</ele>
        <time>2022-08-10T15:07:38Z</time>
      </trkpt>
      <trkpt lat="44.47651" lon="1.327">
        <ele>148.4</ele>
        <time>2022-08-10T15:07:40Z</time>
      </trkpt>
      <trkpt lat="44.4765" lon="1.32693">
        <ele>148.5</ele>
        <time>2022-08-10T15:07:42Z</time>
      </trkpt>
      <trkpt lat="44.4765" lon="1.32686">
        <ele>148.6</ele>
        <time>2022-08-10T15:07:44Z</time>
      </trkpt>
      <trkpt lat="44.4765" lon="1.3268">
        <ele>148.6</ele>
        <time>2022-08-10T15:07:46Z</time>
      </trkpt>
      <trkpt lat="44.47649" lon="1.32674">
        <ele>148.7</ele>
        <time>2022-08-10T15:07:48Z</time>
      </trkpt>
      <trkpt lat="44.47649" lon="1.32666">
        <ele>148.8</ele>
        <time>2022-08-10T15:07:50Z</time>
      </trkpt>
      <trkpt lat="44.4765" lon="1.32659">
        <ele>148.7</ele>
        <time>2022-08-10T15:07:52Z</time>
      </trkpt>
      <trkpt lat="44.47649" lon="1.32652">
        <ele>148.5</ele>
        <time>2022-08-10T15:07:54Z</time>
      </trkpt>
      <trkpt lat="44.4765" lon="1.32647">
        <ele>148.4</ele>
        <time>2022-08-10T15:07:56Z</time>
      </trkpt>
      <trkpt lat="44.47651" lon="1.32641">
        <ele>148.3</ele>
        <time>2022-08-10T15:07:58Z</time>
      </trkpt>
      <trkpt lat="44.47655" lon="1.32636">
        <ele>148.1</ele>
        <time>2022-08-10T15:08:00Z</time>
      </trkpt>
      <trkpt lat="44.4766" lon="1.32633">
        <ele>147.8</ele>
        <time>2022-08-10T15:08:02Z</time>
      </trkpt>
      <trkpt lat="44.47665" lon="1.32629">
        <ele>147.6</ele>
        <time>2022-08-10T15:08:04Z</time>
      </trkpt>
      <trkpt lat="44.4767" lon="1.32626">
        <ele>147.5</ele>
        <time>2022-08-10T15:08:06Z</time>
      </trkpt>
      <trkpt lat="44.47675" lon="1.32621">
        <ele>147.5</ele>
        <time>2022-08-10T15:08:08Z</time>
      </trkpt>
      <trkpt lat="44.4768" lon="1.32617">
        <ele>147.5</ele>
        <time>2022-08-10T15:08:10Z</time>
      </trkpt>
      <trkpt lat="44.47684" lon="1.32611">
        <ele>147.5</ele>
        <time>2022-08-10T15:08:12Z</time>
      </trkpt>
      <trkpt lat="44.47689" lon="1.32605">
        <ele>147.5</ele>
        <time>2022-08-10T15:08:14Z</time>
      </trkpt>
      <trkpt lat="44.47693" lon="1.32599">
        <ele>147.6</ele>
        <time>2022-08-10T15:08:16Z</time>
      </trkpt>
      <trkpt lat="44.47698" lon="1.32593">
        <ele>147.7</ele>
        <time>2022-08-10T15:08:18Z</time>
      </trkpt>
      <trkpt lat="44.47703" lon="1.32587">
        <ele>147.9</ele>
        <time>2022-08-10T15:08:20Z</time>
      </trkpt>
      <trkpt lat="44.47708" lon="1.32581">
        <ele>148</ele>
        <time>2022-08-10T15:08:22Z</time>
      </trkpt>
      <trkpt lat="44.47713" lon="1.32575">
        <ele>148.2</ele>
        <time>2022-08-10T15:08:24Z</time>
      </trkpt>
      <trkpt lat="44.47718" lon="1.3257">
        <ele>148.4</ele>
        <time>2022-08-10T15:08:26Z</time>
      </trkpt>
      <trkpt lat="44.47723" lon="1.32565">
        <ele>148.6</ele>
        <time>2022-08-10T15:08:28Z</time>
      </trkpt>
      <trkpt lat="44.47727" lon="1.3256">
        <ele>148.9</ele>
        <time>2022-08-10T15:08:30Z</time>
      </trkpt>
      <trkpt lat="44.47732" lon="1.32556">
        <ele>149.2</ele>
        <time>2022-08-10T15:08:32Z</time>
      </trkpt>
      <trkpt lat="44.47737" lon="1.32551">
        <ele>149.6</ele>
        <time>2022-08-10T15:08:34Z</time>
      </trkpt>
      <trkpt lat="44.47741" lon="1.32546">
        <ele>149.9</ele>
        <time>2022-08-10T15:08:36Z</time>
      </trkpt>
      <trkpt lat="44.47746" lon="1.32541">
        <ele>150.3</ele>
        <time>2022-08-10T15:08:38Z</time>
      </trkpt>
      <trkpt lat="44.4775" lon="1.32536">
        <ele>150.7</ele>
        <time>2022-08-10T15:08:40Z</time>
      </trkpt>
      <trkpt lat="44.47755" lon="1.32532">
        <ele>150.9</ele>
        <time>2022-08-10T15:08:42Z</time>
      </trkpt>
      <trkpt lat="44.47759" lon="1.32528">
        <ele>151.1</ele>
        <time>2022-08-10T15:08:44Z</time>
      </trkpt>
      <trkpt lat="44.47763" lon="1.32523">
        <ele>151.3</ele>
        <time>2022-08-10T15:08:46Z</time>
      </trkpt>
      <trkpt lat="44.47767" lon="1.32519">
        <ele>151.5</ele>
        <time>2022-08-10T15:08:48Z</time>
      </trkpt>
      <trkpt lat="44.47771" lon="1.32514">
        <ele>151.7</ele>
        <time>2022-08-10T15:08:50Z</time>
      </trkpt>
      <trkpt lat="44.47775" lon="1.3251">
        <ele>151.9</ele>
        <time>2022-08-10T15:08:52Z</time>
      </trkpt>
      <trkpt lat="44.47778" lon="1.32506">
        <ele>152.1</ele>
        <time>2022-08-10T15:08:54Z</time>
      </trkpt>
      <trkpt lat="44.47782" lon="1.32502">
        <ele>152.3</ele>
        <time>2022-08-10T15:08:56Z</time>
      </trkpt>
      <trkpt lat="44.47786" lon="1.32499">
        <ele>152.4</ele>
        <time>2022-08-10T15:08:58Z</time>
      </trkpt>
      <trkpt lat="44.4779" lon="1.32495">
        <ele>152.5</ele>
        <time>2022-08-10T15:09:00Z</time>
      </trkpt>
      <trkpt lat="44.47793" lon="1.32491">
        <ele>152.6</ele>
        <time>2022-08-10T15:09:02Z</time>
      </trkpt>
      <trkpt lat="44.47796" lon="1.32488">
        <ele>152.7</ele>
        <time>2022-08-10T15:09:04Z</time>
      </trkpt>
      <trkpt lat="44.47799" lon="1.32484">
        <ele>152.7</ele>
        <time>2022-08-10T15:09:06Z</time>
      </trkpt>
      <trkpt lat="44.47802" lon="1.32481">
        <ele>152.8</ele>
        <time>2022-08-10T15:09:08Z</time>
      </trkpt>
      <trkpt lat="44.47805" lon="1.32477">
        <ele>152.9</ele>
        <time>2022-08-10T15:09:10Z</time>
      </trkpt>
      <trkpt lat="44.47809" lon="1.32473">
        <ele>153.1</ele>
        <time>2022-08-10T15:09:12Z</time>
      </trkpt>
      <trkpt lat="44.47813" lon="1.32471">
        <ele>153.2</ele>
        <time>2022-08-10T15:09:14Z</time>
      </trkpt>
      <trkpt lat="44.47816" lon="1.32467">
        <ele>153.3</ele>
        <time>2022-08-10T15:09:16Z</time>
      </trkpt>
      <trkpt lat="44.47819" lon="1.32463">
        <ele>153.5</ele>
        <time>2022-08-10T15:09:18Z</time>
      </trkpt>
      <trkpt lat="44.47821" lon="1.32459">
        <ele>153.6</ele>
        <time>2022-08-10T15:09:20Z</time>
      </trkpt>
      <trkpt lat="44.47824" lon="1.32454">
        <ele>153.8</ele>
        <time>2022-08-10T15:09:22Z</time>
      </trkpt>
      <trkpt lat="44.47827" lon="1.32451">
        <ele>154</ele>
        <time>2022-08-10T15:09:24Z</time>
      </trkpt>
      <trkpt lat="44.4783" lon="1.32446">
        <ele>154.2</ele>
        <time>2022-08-10T15:09:26Z</time>
      </trkpt>
      <trkpt lat="44.47833" lon="1.32442">
        <ele>154.4</ele>
        <time>2022-08-10T15:09:28Z</time>
      </trkpt>
      <trkpt lat="44.47836" lon="1.32436">
        <ele>154.4</ele>
        <time>2022-08-10T15:09:30Z</time>
      </trkpt>
      <trkpt lat="44.47838" lon="1.32432">
        <ele>154.4</ele>
        <time>2022-08-10T15:09:32Z</time>
      </trkpt>
      <trkpt lat="44.47838" lon="1.32431">
        <ele>154.4</ele>
        <time>2022-08-10T15:09:34Z</time>
      </trkpt>
      <trkpt lat="44.47839" lon="1.3243">
        <ele>154.4</ele>
        <time>2022-08-10T15:09:36Z</time>
      </trkpt>
      <trkpt lat="44.47839" lon="1.32431">
        <ele>154.4</ele>
        <time>2022-08-10T15:09:38Z</time>
      </trkpt>
      <trkpt lat="44.47838" lon="1.3243">
        <ele>154.4</ele>
        <time>2022-08-10T15:09:40Z</time>
      </trkpt>
      <trkpt lat="44.47853" lon="1.32412">
        <ele>153.9</ele>
        <time>2022-08-10T15:12:18Z</time>
      </trkpt>
      <trkpt lat="44.47856" lon="1.32407">
        <ele>153.7</ele>
        <time>2022-08-10T15:12:20Z</time>
      </trkpt>
      <trkpt lat="44.47858" lon="1.32399">
        <ele>153.4</ele>
        <time>2022-08-10T15:12:22Z</time>
      </trkpt>
      <trkpt lat="44.47863" lon="1.32393">
        <ele>153</ele>
        <time>2022-08-10T15:12:24Z</time>
      </trkpt>
      <trkpt lat="44.47867" lon="1.32386">
        <ele>152.7</ele>
        <time>2022-08-10T15:12:26Z</time>
      </trkpt>
      <trkpt lat="44.47871" lon="1.32378">
        <ele>152.4</ele>
        <time>2022-08-10T15:12:28Z</time>
      </trkpt>
      <trkpt lat="44.47876" lon="1.3237">
        <ele>152.1</ele>
        <time>2022-08-10T15:12:30Z</time>
      </trkpt>
      <trkpt lat="44.47881" lon="1.32362">
        <ele>151.9</ele>
        <time>2022-08-10T15:12:32Z</time>
      </trkpt>
      <trkpt lat="44.47888" lon="1.32353">
        <ele>151.6</ele>
        <time>2022-08-10T15:12:34Z</time>
      </trkpt>
      <trkpt lat="44.47893" lon="1.32344">
        <ele>151.4</ele>
        <time>2022-08-10T15:12:36Z</time>
      </trkpt>
      <trkpt lat="44.47901" lon="1.32337">
        <ele>151.2</ele>
        <time>2022-08-10T15:12:38Z</time>
      </trkpt>
      <trkpt lat="44.4791" lon="1.3233">
        <ele>151</ele>
        <time>2022-08-10T15:12:40Z</time>
      </trkpt>
      <trkpt lat="44.4792" lon="1.32323">
        <ele>150.6</ele>
        <time>2022-08-10T15:12:42Z</time>
      </trkpt>
      <trkpt lat="44.47931" lon="1.32317">
        <ele>149.9</ele>
        <time>2022-08-10T15:12:44Z</time>
      </trkpt>
      <trkpt lat="44.47943" lon="1.32309">
        <ele>149.2</ele>
        <time>2022-08-10T15:12:46Z</time>
      </trkpt>
      <trkpt lat="44.47956" lon="1.32302">
        <ele>148.5</ele>
        <time>2022-08-10T15:12:48Z</time>
      </trkpt>
      <trkpt lat="44.47972" lon="1.32296">
        <ele>147.8</ele>
        <time>2022-08-10T15:12:50Z</time>
      </trkpt>
      <trkpt lat="44.47987" lon="1.32289">
        <ele>147.2</ele>
        <time>2022-08-10T15:12:52Z</time>
      </trkpt>
      <trkpt lat="44.48004" lon="1.32281">
        <ele>146.7</ele>
        <time>2022-08-10T15:12:54Z</time>
      </trkpt>
      <trkpt lat="44.48021" lon="1.32274">
        <ele>146</ele>
        <time>2022-08-10T15:12:56Z</time>
      </trkpt>
      <trkpt lat="44.48038" lon="1.32265">
        <ele>145.3</ele>
        <time>2022-08-10T15:12:58Z</time>
      </trkpt>
      <trkpt lat="44.48055" lon="1.32257">
        <ele>144.6</ele>
        <time>2022-08-10T15:13:00Z</time>
      </trkpt>
      <trkpt lat="44.48071" lon="1.32249">
        <ele>143.7</ele>
        <time>2022-08-10T15:13:02Z</time>
      </trkpt>
      <trkpt lat="44.48087" lon="1.32241">
        <ele>142.9</ele>
        <time>2022-08-10T15:13:04Z</time>
      </trkpt>
      <trkpt lat="44.48104" lon="1.32234">
        <ele>142.3</ele>
        <time>2022-08-10T15:13:06Z</time>
      </trkpt>
      <trkpt lat="44.48121" lon="1.32226">
        <ele>141.6</ele>
        <time>2022-08-10T15:13:08Z</time>
      </trkpt>
      <trkpt lat="44.48138" lon="1.32218">
        <ele>141</ele>
        <time>2022-08-10T15:13:10Z</time>
      </trkpt>
      <trkpt lat="44.48154" lon="1.32211">
        <ele>140.5</ele>
        <time>2022-08-10T15:13:12Z</time>
      </trkpt>
      <trkpt lat="44.4817" lon="1.32202">
        <ele>139.8</ele>
        <time>2022-08-10T15:13:14Z</time>
      </trkpt>
      <trkpt lat="44.48186" lon="1.32194">
        <ele>138.8</ele>
        <time>2022-08-10T15:13:16Z</time>
      </trkpt>
      <trkpt lat="44.48203" lon="1.32188">
        <ele>138</ele>
        <time>2022-08-10T15:13:18Z</time>
      </trkpt>
      <trkpt lat="44.48219" lon="1.32183">
        <ele>137.4</ele>
        <time>2022-08-10T15:13:20Z</time>
      </trkpt>
      <trkpt lat="44.48236" lon="1.32177">
        <ele>136.9</ele>
        <time>2022-08-10T15:13:22Z</time>
      </trkpt>
      <trkpt lat="44.48252" lon="1.32172">
        <ele>136.5</ele>
        <time>2022-08-10T15:13:24Z</time>
      </trkpt>
      <trkpt lat="44.48268" lon="1.32167">
        <ele>136.1</ele>
        <time>2022-08-10T15:13:26Z</time>
      </trkpt>
      <trkpt lat="44.48285" lon="1.32162">
        <ele>135.4</ele>
        <time>2022-08-10T15:13:28Z</time>
      </trkpt>
      <trkpt lat="44.48301" lon="1.32155">
        <ele>134.6</ele>
        <time>2022-08-10T15:13:30Z</time>
      </trkpt>
      <trkpt lat="44.48318" lon="1.32151">
        <ele>133.9</ele>
        <time>2022-08-10T15:13:32Z</time>
      </trkpt>
      <trkpt lat="44.48334" lon="1.32143">
        <ele>133.3</ele>
        <time>2022-08-10T15:13:34Z</time>
      </trkpt>
      <trkpt lat="44.48349" lon="1.32134">
        <ele>132.8</ele>
        <time>2022-08-10T15:13:36Z</time>
      </trkpt>
      <trkpt lat="44.48364" lon="1.32123">
        <ele>132.7</ele>
        <time>2022-08-10T15:13:38Z</time>
      </trkpt>
      <trkpt lat="44.48378" lon="1.32111">
        <ele>132.8</ele>
        <time>2022-08-10T15:13:40Z</time>
      </trkpt>
      <trkpt lat="44.48391" lon="1.32099">
        <ele>133.2</ele>
        <time>2022-08-10T15:13:42Z</time>
      </trkpt>
      <trkpt lat="44.48405" lon="1.32086">
        <ele>133.8</ele>
        <time>2022-08-10T15:13:44Z</time>
      </trkpt>
      <trkpt lat="44.48415" lon="1.32074">
        <ele>133.7</ele>
        <time>2022-08-10T15:13:46Z</time>
      </trkpt>
      <trkpt lat="44.48425" lon="1.32063">
        <ele>133.3</ele>
        <time>2022-08-10T15:13:48Z</time>
      </trkpt>
      <trkpt lat="44.48434" lon="1.32052">
        <ele>133</ele>
        <time>2022-08-10T15:13:50Z</time>
      </trkpt>
      <trkpt lat="44.48442" lon="1.32043">
        <ele>132.8</ele>
        <time>2022-08-10T15:13:52Z</time>
      </trkpt>
      <trkpt lat="44.4845" lon="1.32035">
        <ele>132.7</ele>
        <time>2022-08-10T15:13:54Z</time>
      </trkpt>
      <trkpt lat="44.48457" lon="1.32029">
        <ele>132.7</ele>
        <time>2022-08-10T15:13:56Z</time>
      </trkpt>
      <trkpt lat="44.48463" lon="1.32022">
        <ele>132.6</ele>
        <time>2022-08-10T15:13:58Z</time>
      </trkpt>
      <trkpt lat="44.48469" lon="1.32018">
        <ele>132.6</ele>
        <time>2022-08-10T15:14:00Z</time>
      </trkpt>
      <trkpt lat="44.48476" lon="1.32015">
        <ele>132.7</ele>
        <time>2022-08-10T15:14:02Z</time>
      </trkpt>
      <trkpt lat="44.48483" lon="1.32012">
        <ele>132.8</ele>
        <time>2022-08-10T15:14:04Z</time>
      </trkpt>
      <trkpt lat="44.48491" lon="1.32008">
        <ele>132.9</ele>
        <time>2022-08-10T15:14:06Z</time>
      </trkpt>
      <trkpt lat="44.48501" lon="1.32004">
        <ele>133</ele>
        <time>2022-08-10T15:14:08Z</time>
      </trkpt>
      <trkpt lat="44.48512" lon="1.32001">
        <ele>132.4</ele>
        <time>2022-08-10T15:14:10Z</time>
      </trkpt>
      <trkpt lat="44.48525" lon="1.31997">
        <ele>131.7</ele>
        <time>2022-08-10T15:14:12Z</time>
      </trkpt>
      <trkpt lat="44.48539" lon="1.31992">
        <ele>130.8</ele>
        <time>2022-08-10T15:14:14Z</time>
      </trkpt>
      <trkpt lat="44.48555" lon="1.31988">
        <ele>129.9</ele>
        <time>2022-08-10T15:14:16Z</time>
      </trkpt>
      <trkpt lat="44.48572" lon="1.31982">
        <ele>128.9</ele>
        <time>2022-08-10T15:14:18Z</time>
      </trkpt>
      <trkpt lat="44.4859" lon="1.31975">
        <ele>127.6</ele>
        <time>2022-08-10T15:14:20Z</time>
      </trkpt>
      <trkpt lat="44.48609" lon="1.31969">
        <ele>125.9</ele>
        <time>2022-08-10T15:14:22Z</time>
      </trkpt>
      <trkpt lat="44.48627" lon="1.31964">
        <ele>124.4</ele>
        <time>2022-08-10T15:14:24Z</time>
      </trkpt>
      <trkpt lat="44.48644" lon="1.31955">
        <ele>123.1</ele>
        <time>2022-08-10T15:14:26Z</time>
      </trkpt>
      <trkpt lat="44.48659" lon="1.31941">
        <ele>122.2</ele>
        <time>2022-08-10T15:14:28Z</time>
      </trkpt>
      <trkpt lat="44.48671" lon="1.31924">
        <ele>121.7</ele>
        <time>2022-08-10T15:14:30Z</time>
      </trkpt>
      <trkpt lat="44.48681" lon="1.31909">
        <ele>121.4</ele>
        <time>2022-08-10T15:14:32Z</time>
      </trkpt>
      <trkpt lat="44.48688" lon="1.31899">
        <ele>121.2</ele>
        <time>2022-08-10T15:14:34Z</time>
      </trkpt>
      <trkpt lat="44.48692" lon="1.3189">
        <ele>121</ele>
        <time>2022-08-10T15:14:36Z</time>
      </trkpt>
      <trkpt lat="44.48698" lon="1.3188">
        <ele>120.8</ele>
        <time>2022-08-10T15:14:38Z</time>
      </trkpt>
      <trkpt lat="44.48705" lon="1.31872">
        <ele>120.4</ele>
        <time>2022-08-10T15:14:40Z</time>
      </trkpt>
      <trkpt lat="44.48713" lon="1.3186">
        <ele>120.1</ele>
        <time>2022-08-10T15:14:42Z</time>
      </trkpt>
      <trkpt lat="44.48721" lon="1.31848">
        <ele>119.7</ele>
        <time>2022-08-10T15:14:44Z</time>
      </trkpt>
      <trkpt lat="44.4873" lon="1.3184">
        <ele>119.2</ele>
        <time>2022-08-10T15:14:46Z</time>
      </trkpt>
      <trkpt lat="44.48741" lon="1.31833">
        <ele>118.6</ele>
        <time>2022-08-10T15:14:48Z</time>
      </trkpt>
      <trkpt lat="44.4875" lon="1.31829">
        <ele>117.9</ele>
        <time>2022-08-10T15:14:50Z</time>
      </trkpt>
      <trkpt lat="44.48759" lon="1.31825">
        <ele>117.3</ele>
        <time>2022-08-10T15:14:52Z</time>
      </trkpt>
      <trkpt lat="44.48766" lon="1.3182">
        <ele>116.8</ele>
        <time>2022-08-10T15:14:54Z</time>
      </trkpt>
      <trkpt lat="44.48772" lon="1.31824">
        <ele>116.6</ele>
        <time>2022-08-10T15:14:56Z</time>
      </trkpt>
      <trkpt lat="44.48774" lon="1.31828">
        <ele>116.7</ele>
        <time>2022-08-10T15:14:58Z</time>
      </trkpt>
      <trkpt lat="44.48776" lon="1.31832">
        <ele>116.7</ele>
        <time>2022-08-10T15:15:00Z</time>
      </trkpt>
      <trkpt lat="44.48777" lon="1.31837">
        <ele>116.7</ele>
        <time>2022-08-10T15:15:02Z</time>
      </trkpt>
      <trkpt lat="44.48779" lon="1.31841">
        <ele>116.7</ele>
        <time>2022-08-10T15:15:04Z</time>
      </trkpt>
      <trkpt lat="44.4878" lon="1.31845">
        <ele>116.8</ele>
        <time>2022-08-10T15:15:06Z</time>
      </trkpt>
      <trkpt lat="44.48783" lon="1.31848">
        <ele>116.7</ele>
        <time>2022-08-10T15:15:08Z</time>
      </trkpt>
      <trkpt lat="44.48784" lon="1.31852">
        <ele>116.7</ele>
        <time>2022-08-10T15:15:10Z</time>
      </trkpt>
      <trkpt lat="44.48784" lon="1.31858">
        <ele>116.8</ele>
        <time>2022-08-10T15:15:12Z</time>
      </trkpt>
      <trkpt lat="44.48786" lon="1.31864">
        <ele>116.9</ele>
        <time>2022-08-10T15:15:14Z</time>
      </trkpt>
      <trkpt lat="44.48787" lon="1.31871">
        <ele>117</ele>
        <time>2022-08-10T15:15:16Z</time>
      </trkpt>
      <trkpt lat="44.48788" lon="1.31878">
        <ele>117.1</ele>
        <time>2022-08-10T15:15:18Z</time>
      </trkpt>
      <trkpt lat="44.48789" lon="1.31885">
        <ele>117.3</ele>
        <time>2022-08-10T15:15:20Z</time>
      </trkpt>
      <trkpt lat="44.4879" lon="1.31891">
        <ele>117.4</ele>
        <time>2022-08-10T15:15:22Z</time>
      </trkpt>
      <trkpt lat="44.48791" lon="1.31896">
        <ele>117.5</ele>
        <time>2022-08-10T15:15:24Z</time>
      </trkpt>
      <trkpt lat="44.48791" lon="1.31901">
        <ele>117.6</ele>
        <time>2022-08-10T15:15:26Z</time>
      </trkpt>
      <trkpt lat="44.48792" lon="1.31904">
        <ele>117.7</ele>
        <time>2022-08-10T15:15:28Z</time>
      </trkpt>
      <trkpt lat="44.48793" lon="1.31904">
        <ele>117.7</ele>
        <time>2022-08-10T15:15:30Z</time>
      </trkpt>
      <trkpt lat="44.48793" lon="1.31903">
        <ele>117.7</ele>
        <time>2022-08-10T15:15:32Z</time>
      </trkpt>
      <trkpt lat="44.48793" lon="1.31902">
        <ele>117.6</ele>
        <time>2022-08-10T15:15:34Z</time>
      </trkpt>
      <trkpt lat="44.48792" lon="1.319">
        <ele>117.6</ele>
        <time>2022-08-10T15:15:36Z</time>
      </trkpt>
      <trkpt lat="44.48794" lon="1.31922">
        <ele>118</ele>
        <time>2022-08-10T15:16:08Z</time>
      </trkpt>
      <trkpt lat="44.48796" lon="1.3193">
        <ele>118</ele>
        <time>2022-08-10T15:16:10Z</time>
      </trkpt>
      <trkpt lat="44.48798" lon="1.31938">
        <ele>118</ele>
        <time>2022-08-10T15:16:12Z</time>
      </trkpt>
      <trkpt lat="44.48799" lon="1.31945">
        <ele>118.1</ele>
        <time>2022-08-10T15:16:14Z</time>
      </trkpt>
      <trkpt lat="44.48803" lon="1.31951">
        <ele>118.1</ele>
        <time>2022-08-10T15:16:16Z</time>
      </trkpt>
      <trkpt lat="44.48806" lon="1.31957">
        <ele>118.2</ele>
        <time>2022-08-10T15:16:18Z</time>
      </trkpt>
      <trkpt lat="44.4881" lon="1.31961">
        <ele>118.2</ele>
        <time>2022-08-10T15:16:20Z</time>
      </trkpt>
      <trkpt lat="44.48815" lon="1.31965">
        <ele>118.3</ele>
        <time>2022-08-10T15:16:22Z</time>
      </trkpt>
      <trkpt lat="44.48818" lon="1.3197">
        <ele>118.4</ele>
        <time>2022-08-10T15:16:24Z</time>
      </trkpt>
      <trkpt lat="44.48822" lon="1.31974">
        <ele>118.5</ele>
        <time>2022-08-10T15:16:26Z</time>
      </trkpt>
      <trkpt lat="44.48826" lon="1.31977">
        <ele>118.6</ele>
        <time>2022-08-10T15:16:28Z</time>
      </trkpt>
      <trkpt lat="44.48829" lon="1.31981">
        <ele>118.7</ele>
        <time>2022-08-10T15:16:30Z</time>
      </trkpt>
      <trkpt lat="44.48833" lon="1.31985">
        <ele>118.8</ele>
        <time>2022-08-10T15:16:32Z</time>
      </trkpt>
      <trkpt lat="44.48837" lon="1.31989">
        <ele>118.8</ele>
        <time>2022-08-10T15:16:34Z</time>
      </trkpt>
      <trkpt lat="44.48841" lon="1.31993">
        <ele>118.8</ele>
        <time>2022-08-10T15:16:36Z</time>
      </trkpt>
      <trkpt lat="44.48845" lon="1.31995">
        <ele>118.8</ele>
        <time>2022-08-10T15:16:38Z</time>
      </trkpt>
      <trkpt lat="44.48848" lon="1.31999">
        <ele>118.8</ele>
        <time>2022-08-10T15:16:40Z</time>
      </trkpt>
      <trkpt lat="44.48852" lon="1.32004">
        <ele>118.7</ele>
        <time>2022-08-10T15:16:42Z</time>
      </trkpt>
      <trkpt lat="44.48856" lon="1.32008">
        <ele>118.6</ele>
        <time>2022-08-10T15:16:44Z</time>
      </trkpt>
      <trkpt lat="44.48859" lon="1.32014">
        <ele>118.5</ele>
        <time>2022-08-10T15:16:46Z</time>
      </trkpt>
      <trkpt lat="44.48863" lon="1.32019">
        <ele>118.4</ele>
        <time>2022-08-10T15:16:48Z</time>
      </trkpt>
      <trkpt lat="44.48866" lon="1.32025">
        <ele>118.4</ele>
        <time>2022-08-10T15:16:50Z</time>
      </trkpt>
      <trkpt lat="44.48869" lon="1.32031">
        <ele>118.3</ele>
        <time>2022-08-10T15:16:52Z</time>
      </trkpt>
      <trkpt lat="44.48873" lon="1.32037">
        <ele>118.3</ele>
        <time>2022-08-10T15:16:54Z</time>
      </trkpt>
      <trkpt lat="44.48877" lon="1.32044">
        <ele>118.2</ele>
        <time>2022-08-10T15:16:56Z</time>
      </trkpt>
      <trkpt lat="44.4888" lon="1.32052">
        <ele>118.2</ele>
        <time>2022-08-10T15:16:58Z</time>
      </trkpt>
      <trkpt lat="44.48883" lon="1.32061">
        <ele>118.3</ele>
        <time>2022-08-10T15:17:00Z</time>
      </trkpt>
      <trkpt lat="44.48888" lon="1.32069">
        <ele>118.3</ele>
        <time>2022-08-10T15:17:02Z</time>
      </trkpt>
      <trkpt lat="44.48892" lon="1.32076">
        <ele>118.4</ele>
        <time>2022-08-10T15:17:04Z</time>
      </trkpt>
      <trkpt lat="44.48896" lon="1.32085">
        <ele>118.5</ele>
        <time>2022-08-10T15:17:06Z</time>
      </trkpt>
      <trkpt lat="44.48902" lon="1.32092">
        <ele>118.3</ele>
        <time>2022-08-10T15:17:08Z</time>
      </trkpt>
      <trkpt lat="44.48908" lon="1.32099">
        <ele>118.1</ele>
        <time>2022-08-10T15:17:10Z</time>
      </trkpt>
      <trkpt lat="44.48914" lon="1.32107">
        <ele>117.8</ele>
        <time>2022-08-10T15:17:12Z</time>
      </trkpt>
      <trkpt lat="44.48921" lon="1.32113">
        <ele>117.6</ele>
        <time>2022-08-10T15:17:14Z</time>
      </trkpt>
      <trkpt lat="44.48928" lon="1.3212">
        <ele>117.4</ele>
        <time>2022-08-10T15:17:16Z</time>
      </trkpt>
      <trkpt lat="44.48936" lon="1.32126">
        <ele>117.3</ele>
        <time>2022-08-10T15:17:18Z</time>
      </trkpt>
      <trkpt lat="44.48944" lon="1.32131">
        <ele>117.3</ele>
        <time>2022-08-10T15:17:20Z</time>
      </trkpt>
      <trkpt lat="44.48953" lon="1.32136">
        <ele>117.3</ele>
        <time>2022-08-10T15:17:22Z</time>
      </trkpt>
      <trkpt lat="44.48962" lon="1.32141">
        <ele>117.4</ele>
        <time>2022-08-10T15:17:24Z</time>
      </trkpt>
      <trkpt lat="44.4897" lon="1.32146">
        <ele>117.4</ele>
        <time>2022-08-10T15:17:26Z</time>
      </trkpt>
      <trkpt lat="44.48978" lon="1.32149">
        <ele>117.6</ele>
        <time>2022-08-10T15:17:28Z</time>
      </trkpt>
      <trkpt lat="44.48987" lon="1.32153">
        <ele>117.8</ele>
        <time>2022-08-10T15:17:30Z</time>
      </trkpt>
      <trkpt lat="44.48996" lon="1.32158">
        <ele>118</ele>
        <time>2022-08-10T15:17:32Z</time>
      </trkpt>
      <trkpt lat="44.49005" lon="1.32162">
        <ele>118.1</ele>
        <time>2022-08-10T15:17:34Z</time>
      </trkpt>
      <trkpt lat="44.49014" lon="1.32167">
        <ele>118</ele>
        <time>2022-08-10T15:17:36Z</time>
      </trkpt>
      <trkpt lat="44.49021" lon="1.32173">
        <ele>117.6</ele>
        <time>2022-08-10T15:17:38Z</time>
      </trkpt>
      <trkpt lat="44.49029" lon="1.32179">
        <ele>117.2</ele>
        <time>2022-08-10T15:17:40Z</time>
      </trkpt>
      <trkpt lat="44.49037" lon="1.32185">
        <ele>116.9</ele>
        <time>2022-08-10T15:17:42Z</time>
      </trkpt>
      <trkpt lat="44.49046" lon="1.32192">
        <ele>116.5</ele>
        <time>2022-08-10T15:17:44Z</time>
      </trkpt>
      <trkpt lat="44.49054" lon="1.32199">
        <ele>116.2</ele>
        <time>2022-08-10T15:17:46Z</time>
      </trkpt>
      <trkpt lat="44.49062" lon="1.32206">
        <ele>115.9</ele>
        <time>2022-08-10T15:17:48Z</time>
      </trkpt>
      <trkpt lat="44.4907" lon="1.32214">
        <ele>115.6</ele>
        <time>2022-08-10T15:17:50Z</time>
      </trkpt>
      <trkpt lat="44.49079" lon="1.32221">
        <ele>115.3</ele>
        <time>2022-08-10T15:17:52Z</time>
      </trkpt>
      <trkpt lat="44.49088" lon="1.32228">
        <ele>115.1</ele>
        <time>2022-08-10T15:17:54Z</time>
      </trkpt>
      <trkpt lat="44.49098" lon="1.32234">
        <ele>114.8</ele>
        <time>2022-08-10T15:17:56Z</time>
      </trkpt>
      <trkpt lat="44.49107" lon="1.3224">
        <ele>114.7</ele>
        <time>2022-08-10T15:17:58Z</time>
      </trkpt>
      <trkpt lat="44.49118" lon="1.32244">
        <ele>114.6</ele>
        <time>2022-08-10T15:18:00Z</time>
      </trkpt>
      <trkpt lat="44.49128" lon="1.32248">
        <ele>114.6</ele>
        <time>2022-08-10T15:18:02Z</time>
      </trkpt>
      <trkpt lat="44.49139" lon="1.32252">
        <ele>114.5</ele>
        <time>2022-08-10T15:18:04Z</time>
      </trkpt>
      <trkpt lat="44.4915" lon="1.32255">
        <ele>114.4</ele>
        <time>2022-08-10T15:18:06Z</time>
      </trkpt>
      <trkpt lat="44.4916" lon="1.32259">
        <ele>114.3</ele>
        <time>2022-08-10T15:18:08Z</time>
      </trkpt>
      <trkpt lat="44.4917" lon="1.32263">
        <ele>114.1</ele>
        <time>2022-08-10T15:18:10Z</time>
      </trkpt>
      <trkpt lat="44.4918" lon="1.32267">
        <ele>113.9</ele>
        <time>2022-08-10T15:18:12Z</time>
      </trkpt>
      <trkpt lat="44.49191" lon="1.32272">
        <ele>113.6</ele>
        <time>2022-08-10T15:18:14Z</time>
      </trkpt>
      <trkpt lat="44.49202" lon="1.32276">
        <ele>113.4</ele>
        <time>2022-08-10T15:18:16Z</time>
      </trkpt>
      <trkpt lat="44.49213" lon="1.3228">
        <ele>113.2</ele>
        <time>2022-08-10T15:18:18Z</time>
      </trkpt>
      <trkpt lat="44.49223" lon="1.32283">
        <ele>113</ele>
        <time>2022-08-10T15:18:20Z</time>
      </trkpt>
      <trkpt lat="44.49232" lon="1.32287">
        <ele>112.8</ele>
        <time>2022-08-10T15:18:22Z</time>
      </trkpt>
      <trkpt lat="44.4924" lon="1.3229">
        <ele>112.5</ele>
        <time>2022-08-10T15:18:24Z</time>
      </trkpt>
      <trkpt lat="44.49248" lon="1.32294">
        <ele>112.3</ele>
        <time>2022-08-10T15:18:26Z</time>
      </trkpt>
      <trkpt lat="44.49256" lon="1.32295">
        <ele>112.1</ele>
        <time>2022-08-10T15:18:28Z</time>
      </trkpt>
      <trkpt lat="44.49262" lon="1.32297">
        <ele>112</ele>
        <time>2022-08-10T15:18:30Z</time>
      </trkpt>
      <trkpt lat="44.49268" lon="1.32299">
        <ele>111.7</ele>
        <time>2022-08-10T15:18:32Z</time>
      </trkpt>
      <trkpt lat="44.49275" lon="1.32302">
        <ele>111.4</ele>
        <time>2022-08-10T15:18:34Z</time>
      </trkpt>
      <trkpt lat="44.49283" lon="1.32306">
        <ele>111.1</ele>
        <time>2022-08-10T15:18:36Z</time>
      </trkpt>
      <trkpt lat="44.49292" lon="1.32309">
        <ele>110.8</ele>
        <time>2022-08-10T15:18:38Z</time>
      </trkpt>
      <trkpt lat="44.49301" lon="1.32311">
        <ele>110.6</ele>
        <time>2022-08-10T15:18:40Z</time>
      </trkpt>
      <trkpt lat="44.49311" lon="1.32314">
        <ele>110.3</ele>
        <time>2022-08-10T15:18:42Z</time>
      </trkpt>
      <trkpt lat="44.49319" lon="1.32316">
        <ele>110.1</ele>
        <time>2022-08-10T15:18:44Z</time>
      </trkpt>
      <trkpt lat="44.49327" lon="1.3232">
        <ele>109.8</ele>
        <time>2022-08-10T15:18:46Z</time>
      </trkpt>
      <trkpt lat="44.49336" lon="1.32325">
        <ele>109.5</ele>
        <time>2022-08-10T15:18:48Z</time>
      </trkpt>
      <trkpt lat="44.49344" lon="1.32331">
        <ele>109.4</ele>
        <time>2022-08-10T15:18:50Z</time>
      </trkpt>
      <trkpt lat="44.49353" lon="1.32337">
        <ele>109.3</ele>
        <time>2022-08-10T15:18:52Z</time>
      </trkpt>
      <trkpt lat="44.49362" lon="1.32341">
        <ele>109.4</ele>
        <time>2022-08-10T15:18:54Z</time>
      </trkpt>
      <trkpt lat="44.49371" lon="1.32345">
        <ele>109.4</ele>
        <time>2022-08-10T15:18:56Z</time>
      </trkpt>
      <trkpt lat="44.4938" lon="1.32349">
        <ele>109.5</ele>
        <time>2022-08-10T15:18:58Z</time>
      </trkpt>
      <trkpt lat="44.49389" lon="1.32351">
        <ele>109.5</ele>
        <time>2022-08-10T15:19:00Z</time>
      </trkpt>
      <trkpt lat="44.49397" lon="1.32353">
        <ele>109.6</ele>
        <time>2022-08-10T15:19:02Z</time>
      </trkpt>
      <trkpt lat="44.49406" lon="1.32354">
        <ele>109.8</ele>
        <time>2022-08-10T15:19:04Z</time>
      </trkpt>
      <trkpt lat="44.49415" lon="1.32355">
        <ele>109.9</ele>
        <time>2022-08-10T15:19:06Z</time>
      </trkpt>
      <trkpt lat="44.49425" lon="1.32355">
        <ele>109.8</ele>
        <time>2022-08-10T15:19:08Z</time>
      </trkpt>
      <trkpt lat="44.49434" lon="1.32356">
        <ele>109.6</ele>
        <time>2022-08-10T15:19:10Z</time>
      </trkpt>
      <trkpt lat="44.49443" lon="1.32357">
        <ele>109.3</ele>
        <time>2022-08-10T15:19:12Z</time>
      </trkpt>
      <trkpt lat="44.49451" lon="1.32359">
        <ele>109.1</ele>
        <time>2022-08-10T15:19:14Z</time>
      </trkpt>
      <trkpt lat="44.49458" lon="1.32361">
        <ele>108.8</ele>
        <time>2022-08-10T15:19:16Z</time>
      </trkpt>
      <trkpt lat="44.49465" lon="1.32361">
        <ele>108.7</ele>
        <time>2022-08-10T15:19:18Z</time>
      </trkpt>
      <trkpt lat="44.49476" lon="1.32357">
        <ele>108.6</ele>
        <time>2022-08-10T15:19:20Z</time>
      </trkpt>
      <trkpt lat="44.49484" lon="1.32352">
        <ele>108.7</ele>
        <time>2022-08-10T15:19:22Z</time>
      </trkpt>
      <trkpt lat="44.49492" lon="1.32346">
        <ele>108.7</ele>
        <time>2022-08-10T15:19:24Z</time>
      </trkpt>
      <trkpt lat="44.495" lon="1.3234">
        <ele>108.8</ele>
        <time>2022-08-10T15:19:26Z</time>
      </trkpt>
      <trkpt lat="44.49507" lon="1.32334">
        <ele>108.8</ele>
        <time>2022-08-10T15:19:28Z</time>
      </trkpt>
      <trkpt lat="44.49513" lon="1.32329">
        <ele>108.7</ele>
        <time>2022-08-10T15:19:30Z</time>
      </trkpt>
      <trkpt lat="44.4952" lon="1.32326">
        <ele>108.6</ele>
        <time>2022-08-10T15:19:32Z</time>
      </trkpt>
      <trkpt lat="44.49527" lon="1.32323">
        <ele>108.5</ele>
        <time>2022-08-10T15:19:34Z</time>
      </trkpt>
      <trkpt lat="44.49533" lon="1.32321">
        <ele>108.4</ele>
        <time>2022-08-10T15:19:36Z</time>
      </trkpt>
      <trkpt lat="44.49541" lon="1.32318">
        <ele>108.3</ele>
        <time>2022-08-10T15:19:38Z</time>
      </trkpt>
      <trkpt lat="44.49548" lon="1.32315">
        <ele>108.2</ele>
        <time>2022-08-10T15:19:40Z</time>
      </trkpt>
      <trkpt lat="44.49555" lon="1.32313">
        <ele>108.1</ele>
        <time>2022-08-10T15:19:42Z</time>
      </trkpt>
      <trkpt lat="44.49563" lon="1.3231">
        <ele>108</ele>
        <time>2022-08-10T15:19:44Z</time>
      </trkpt>
      <trkpt lat="44.49571" lon="1.32306">
        <ele>107.9</ele>
        <time>2022-08-10T15:19:46Z</time>
      </trkpt>
      <trkpt lat="44.49578" lon="1.32303">
        <ele>107.8</ele>
        <time>2022-08-10T15:19:48Z</time>
      </trkpt>
      <trkpt lat="44.49586" lon="1.32302">
        <ele>107.8</ele>
        <time>2022-08-10T15:19:50Z</time>
      </trkpt>
      <trkpt lat="44.49593" lon="1.32298">
        <ele>107.8</ele>
        <time>2022-08-10T15:19:52Z</time>
      </trkpt>
      <trkpt lat="44.49601" lon="1.32296">
        <ele>107.8</ele>
        <time>2022-08-10T15:19:54Z</time>
      </trkpt>
      <trkpt lat="44.49609" lon="1.32293">
        <ele>107.8</ele>
        <time>2022-08-10T15:19:56Z</time>
      </trkpt>
      <trkpt lat="44.49617" lon="1.3229">
        <ele>107.8</ele>
        <time>2022-08-10T15:19:58Z</time>
      </trkpt>
      <trkpt lat="44.49625" lon="1.32287">
        <ele>107.8</ele>
        <time>2022-08-10T15:20:00Z</time>
      </trkpt>
      <trkpt lat="44.49633" lon="1.32283">
        <ele>107.8</ele>
        <time>2022-08-10T15:20:02Z</time>
      </trkpt>
      <trkpt lat="44.49641" lon="1.3228">
        <ele>107.8</ele>
        <time>2022-08-10T15:20:04Z</time>
      </trkpt>
      <trkpt lat="44.49649" lon="1.32275">
        <ele>107.9</ele>
        <time>2022-08-10T15:20:06Z</time>
      </trkpt>
      <trkpt lat="44.49656" lon="1.32272">
        <ele>107.8</ele>
        <time>2022-08-10T15:20:08Z</time>
      </trkpt>
      <trkpt lat="44.49665" lon="1.32265">
        <ele>107.8</ele>
        <time>2022-08-10T15:20:10Z</time>
      </trkpt>
      <trkpt lat="44.49672" lon="1.32261">
        <ele>107.7</ele>
        <time>2022-08-10T15:20:12Z</time>
      </trkpt>
      <trkpt lat="44.4968" lon="1.32257">
        <ele>107.5</ele>
        <time>2022-08-10T15:20:14Z</time>
      </trkpt>
      <trkpt lat="44.49687" lon="1.3225">
        <ele>107.3</ele>
        <time>2022-08-10T15:20:16Z</time>
      </trkpt>
      <trkpt lat="44.49693" lon="1.32242">
        <ele>107.1</ele>
        <time>2022-08-10T15:20:18Z</time>
      </trkpt>
      <trkpt lat="44.49698" lon="1.32233">
        <ele>106.9</ele>
        <time>2022-08-10T15:20:20Z</time>
      </trkpt>
      <trkpt lat="44.49703" lon="1.32223">
        <ele>106.8</ele>
        <time>2022-08-10T15:20:22Z</time>
      </trkpt>
      <trkpt lat="44.49707" lon="1.32213">
        <ele>106.7</ele>
        <time>2022-08-10T15:20:24Z</time>
      </trkpt>
      <trkpt lat="44.49712" lon="1.32203">
        <ele>106.7</ele>
        <time>2022-08-10T15:20:26Z</time>
      </trkpt>
      <trkpt lat="44.49716" lon="1.32193">
        <ele>106.6</ele>
        <time>2022-08-10T15:20:28Z</time>
      </trkpt>
      <trkpt lat="44.49721" lon="1.32183">
        <ele>106.6</ele>
        <time>2022-08-10T15:20:30Z</time>
      </trkpt>
      <trkpt lat="44.49725" lon="1.32172">
        <ele>106.6</ele>
        <time>2022-08-10T15:20:32Z</time>
      </trkpt>
      <trkpt lat="44.49729" lon="1.32162">
        <ele>106.6</ele>
        <time>2022-08-10T15:20:34Z</time>
      </trkpt>
      <trkpt lat="44.49734" lon="1.32151">
        <ele>106.7</ele>
        <time>2022-08-10T15:20:36Z</time>
      </trkpt>
      <trkpt lat="44.49737" lon="1.3214">
        <ele>106.9</ele>
        <time>2022-08-10T15:20:38Z</time>
      </trkpt>
      <trkpt lat="44.49741" lon="1.32128">
        <ele>107.1</ele>
        <time>2022-08-10T15:20:40Z</time>
      </trkpt>
      <trkpt lat="44.49745" lon="1.32115">
        <ele>107.3</ele>
        <time>2022-08-10T15:20:42Z</time>
      </trkpt>
      <trkpt lat="44.49749" lon="1.32102">
        <ele>107.5</ele>
        <time>2022-08-10T15:20:44Z</time>
      </trkpt>
      <trkpt lat="44.49753" lon="1.32089">
        <ele>107.8</ele>
        <time>2022-08-10T15:20:46Z</time>
      </trkpt>
      <trkpt lat="44.49756" lon="1.32077">
        <ele>107.9</ele>
        <time>2022-08-10T15:20:48Z</time>
      </trkpt>
      <trkpt lat="44.49759" lon="1.32064">
        <ele>107.9</ele>
        <time>2022-08-10T15:20:50Z</time>
      </trkpt>
      <trkpt lat="44.4976" lon="1.3205">
        <ele>107.9</ele>
        <time>2022-08-10T15:20:52Z</time>
      </trkpt>
      <trkpt lat="44.49755" lon="1.32039">
        <ele>107.9</ele>
        <time>2022-08-10T15:20:54Z</time>
      </trkpt>
      <trkpt lat="44.49747" lon="1.32032">
        <ele>108</ele>
        <time>2022-08-10T15:20:56Z</time>
      </trkpt>
      <trkpt lat="44.49737" lon="1.32028">
        <ele>108</ele>
        <time>2022-08-10T15:20:58Z</time>
      </trkpt>
      <trkpt lat="44.49729" lon="1.32024">
        <ele>108</ele>
        <time>2022-08-10T15:21:00Z</time>
      </trkpt>
      <trkpt lat="44.49721" lon="1.32021">
        <ele>108</ele>
        <time>2022-08-10T15:21:02Z</time>
      </trkpt>
      <trkpt lat="44.49714" lon="1.32017">
        <ele>108</ele>
        <time>2022-08-10T15:21:04Z</time>
      </trkpt>
      <trkpt lat="44.49708" lon="1.32013">
        <ele>108</ele>
        <time>2022-08-10T15:21:06Z</time>
      </trkpt>
      <trkpt lat="44.49703" lon="1.32006">
        <ele>108</ele>
        <time>2022-08-10T15:21:08Z</time>
      </trkpt>
      <trkpt lat="44.49701" lon="1.31996">
        <ele>108</ele>
        <time>2022-08-10T15:21:10Z</time>
      </trkpt>
      <trkpt lat="44.49702" lon="1.31985">
        <ele>107.9</ele>
        <time>2022-08-10T15:21:12Z</time>
      </trkpt>
      <trkpt lat="44.49705" lon="1.31974">
        <ele>107.9</ele>
        <time>2022-08-10T15:21:14Z</time>
      </trkpt>
      <trkpt lat="44.49707" lon="1.31962">
        <ele>107.8</ele>
        <time>2022-08-10T15:21:16Z</time>
      </trkpt>
      <trkpt lat="44.49711" lon="1.3195">
        <ele>107.7</ele>
        <time>2022-08-10T15:21:18Z</time>
      </trkpt>
      <trkpt lat="44.49715" lon="1.31937">
        <ele>107.6</ele>
        <time>2022-08-10T15:21:20Z</time>
      </trkpt>
      <trkpt lat="44.49718" lon="1.31925">
        <ele>107.4</ele>
        <time>2022-08-10T15:21:22Z</time>
      </trkpt>
      <trkpt lat="44.49721" lon="1.31912">
        <ele>107.4</ele>
        <time>2022-08-10T15:21:24Z</time>
      </trkpt>
      <trkpt lat="44.49724" lon="1.319">
        <ele>107.4</ele>
        <time>2022-08-10T15:21:26Z</time>
      </trkpt>
      <trkpt lat="44.49728" lon="1.31888">
        <ele>107.5</ele>
        <time>2022-08-10T15:21:28Z</time>
      </trkpt>
      <trkpt lat="44.49732" lon="1.31875">
        <ele>107.6</ele>
        <time>2022-08-10T15:21:30Z</time>
      </trkpt>
      <trkpt lat="44.49735" lon="1.31862">
        <ele>107.7</ele>
        <time>2022-08-10T15:21:32Z</time>
      </trkpt>
      <trkpt lat="44.49738" lon="1.31849">
        <ele>107.8</ele>
        <time>2022-08-10T15:21:34Z</time>
      </trkpt>
      <trkpt lat="44.49738" lon="1.31837">
        <ele>108</ele>
        <time>2022-08-10T15:21:36Z</time>
      </trkpt>
      <trkpt lat="44.49734" lon="1.31826">
        <ele>108</ele>
        <time>2022-08-10T15:21:38Z</time>
      </trkpt>
      <trkpt lat="44.49728" lon="1.31817">
        <ele>107.9</ele>
        <time>2022-08-10T15:21:40Z</time>
      </trkpt>
      <trkpt lat="44.4972" lon="1.31809">
        <ele>107.9</ele>
        <time>2022-08-10T15:21:42Z</time>
      </trkpt>
      <trkpt lat="44.49712" lon="1.31802">
        <ele>107.8</ele>
        <time>2022-08-10T15:21:44Z</time>
      </trkpt>
      <trkpt lat="44.49705" lon="1.31794">
        <ele>107.7</ele>
        <time>2022-08-10T15:21:46Z</time>
      </trkpt>
      <trkpt lat="44.49698" lon="1.31787">
        <ele>107.7</ele>
        <time>2022-08-10T15:21:48Z</time>
      </trkpt>
      <trkpt lat="44.4969" lon="1.31781">
        <ele>107.5</ele>
        <time>2022-08-10T15:21:50Z</time>
      </trkpt>
      <trkpt lat="44.49683" lon="1.31774">
        <ele>107.4</ele>
        <time>2022-08-10T15:21:52Z</time>
      </trkpt>
      <trkpt lat="44.49676" lon="1.31768">
        <ele>107.3</ele>
        <time>2022-08-10T15:21:54Z</time>
      </trkpt>
      <trkpt lat="44.4967" lon="1.31761">
        <ele>107.2</ele>
        <time>2022-08-10T15:21:56Z</time>
      </trkpt>
      <trkpt lat="44.49663" lon="1.31755">
        <ele>107.1</ele>
        <time>2022-08-10T15:21:58Z</time>
      </trkpt>
      <trkpt lat="44.49656" lon="1.31748">
        <ele>107.3</ele>
        <time>2022-08-10T15:22:00Z</time>
      </trkpt>
      <trkpt lat="44.4965" lon="1.31741">
        <ele>107.5</ele>
        <time>2022-08-10T15:22:02Z</time>
      </trkpt>
      <trkpt lat="44.49643" lon="1.31735">
        <ele>107.6</ele>
        <time>2022-08-10T15:22:04Z</time>
      </trkpt>
      <trkpt lat="44.49637" lon="1.31728">
        <ele>107.8</ele>
        <time>2022-08-10T15:22:06Z</time>
      </trkpt>
      <trkpt lat="44.4963" lon="1.31722">
        <ele>107.9</ele>
        <time>2022-08-10T15:22:08Z</time>
      </trkpt>
      <trkpt lat="44.49623" lon="1.31715">
        <ele>108</ele>
        <time>2022-08-10T15:22:10Z</time>
      </trkpt>
      <trkpt lat="44.49616" lon="1.31709">
        <ele>108.1</ele>
        <time>2022-08-10T15:22:12Z</time>
      </trkpt>
      <trkpt lat="44.49609" lon="1.31703">
        <ele>108.2</ele>
        <time>2022-08-10T15:22:14Z</time>
      </trkpt>
      <trkpt lat="44.49602" lon="1.31696">
        <ele>108.2</ele>
        <time>2022-08-10T15:22:16Z</time>
      </trkpt>
      <trkpt lat="44.49595" lon="1.3169">
        <ele>108.2</ele>
        <time>2022-08-10T15:22:18Z</time>
      </trkpt>
      <trkpt lat="44.49588" lon="1.31684">
        <ele>108.2</ele>
        <time>2022-08-10T15:22:20Z</time>
      </trkpt>
      <trkpt lat="44.49581" lon="1.31679">
        <ele>108.2</ele>
        <time>2022-08-10T15:22:22Z</time>
      </trkpt>
      <trkpt lat="44.49574" lon="1.31673">
        <ele>108.4</ele>
        <time>2022-08-10T15:22:24Z</time>
      </trkpt>
      <trkpt lat="44.49567" lon="1.31669">
        <ele>108.6</ele>
        <time>2022-08-10T15:22:26Z</time>
      </trkpt>
      <trkpt lat="44.4956" lon="1.31664">
        <ele>108.8</ele>
        <time>2022-08-10T15:22:28Z</time>
      </trkpt>
      <trkpt lat="44.49554" lon="1.3166">
        <ele>109.1</ele>
        <time>2022-08-10T15:22:30Z</time>
      </trkpt>
      <trkpt lat="44.49548" lon="1.31655">
        <ele>109.3</ele>
        <time>2022-08-10T15:22:32Z</time>
      </trkpt>
      <trkpt lat="44.49541" lon="1.31651">
        <ele>109.5</ele>
        <time>2022-08-10T15:22:34Z</time>
      </trkpt>
      <trkpt lat="44.49536" lon="1.31645">
        <ele>109.7</ele>
        <time>2022-08-10T15:22:36Z</time>
      </trkpt>
      <trkpt lat="44.4953" lon="1.3164">
        <ele>109.9</ele>
        <time>2022-08-10T15:22:38Z</time>
      </trkpt>
      <trkpt lat="44.49524" lon="1.31634">
        <ele>110.1</ele>
        <time>2022-08-10T15:22:40Z</time>
      </trkpt>
      <trkpt lat="44.49519" lon="1.31629">
        <ele>110.3</ele>
        <time>2022-08-10T15:22:42Z</time>
      </trkpt>
      <trkpt lat="44.49514" lon="1.31625">
        <ele>110.5</ele>
        <time>2022-08-10T15:22:44Z</time>
      </trkpt>
      <trkpt lat="44.49507" lon="1.31623">
        <ele>110.7</ele>
        <time>2022-08-10T15:22:46Z</time>
      </trkpt>
      <trkpt lat="44.49502" lon="1.31619">
        <ele>110.9</ele>
        <time>2022-08-10T15:22:48Z</time>
      </trkpt>
      <trkpt lat="44.49495" lon="1.31617">
        <ele>111.2</ele>
        <time>2022-08-10T15:22:50Z</time>
      </trkpt>
      <trkpt lat="44.49489" lon="1.31617">
        <ele>111.4</ele>
        <time>2022-08-10T15:22:52Z</time>
      </trkpt>
      <trkpt lat="44.49483" lon="1.31615">
        <ele>111.7</ele>
        <time>2022-08-10T15:22:54Z</time>
      </trkpt>
      <trkpt lat="44.49477" lon="1.31614">
        <ele>111.9</ele>
        <time>2022-08-10T15:22:56Z</time>
      </trkpt>
      <trkpt lat="44.49471" lon="1.31614">
        <ele>112.1</ele>
        <time>2022-08-10T15:22:58Z</time>
      </trkpt>
      <trkpt lat="44.49465" lon="1.31613">
        <ele>112.4</ele>
        <time>2022-08-10T15:23:00Z</time>
      </trkpt>
      <trkpt lat="44.4946" lon="1.31611">
        <ele>112.6</ele>
        <time>2022-08-10T15:23:02Z</time>
      </trkpt>
      <trkpt lat="44.49454" lon="1.31611">
        <ele>112.8</ele>
        <time>2022-08-10T15:23:04Z</time>
      </trkpt>
      <trkpt lat="44.49448" lon="1.31605">
        <ele>113.2</ele>
        <time>2022-08-10T15:23:06Z</time>
      </trkpt>
      <trkpt lat="44.49442" lon="1.31603">
        <ele>113.5</ele>
        <time>2022-08-10T15:23:08Z</time>
      </trkpt>
      <trkpt lat="44.49437" lon="1.316">
        <ele>113.7</ele>
        <time>2022-08-10T15:23:10Z</time>
      </trkpt>
      <trkpt lat="44.49431" lon="1.31595">
        <ele>114.1</ele>
        <time>2022-08-10T15:23:12Z</time>
      </trkpt>
      <trkpt lat="44.49425" lon="1.31591">
        <ele>114.4</ele>
        <time>2022-08-10T15:23:14Z</time>
      </trkpt>
      <trkpt lat="44.49419" lon="1.31586">
        <ele>114.8</ele>
        <time>2022-08-10T15:23:16Z</time>
      </trkpt>
      <trkpt lat="44.49413" lon="1.31584">
        <ele>114.9</ele>
        <time>2022-08-10T15:23:18Z</time>
      </trkpt>
      <trkpt lat="44.49407" lon="1.31579">
        <ele>114.9</ele>
        <time>2022-08-10T15:23:20Z</time>
      </trkpt>
      <trkpt lat="44.49401" lon="1.31575">
        <ele>114.8</ele>
        <time>2022-08-10T15:23:22Z</time>
      </trkpt>
      <trkpt lat="44.49395" lon="1.3157">
        <ele>114.8</ele>
        <time>2022-08-10T15:23:24Z</time>
      </trkpt>
      <trkpt lat="44.49389" lon="1.31565">
        <ele>114.7</ele>
        <time>2022-08-10T15:23:26Z</time>
      </trkpt>
      <trkpt lat="44.49383" lon="1.3156">
        <ele>114.7</ele>
        <time>2022-08-10T15:23:28Z</time>
      </trkpt>
      <trkpt lat="44.49377" lon="1.31555">
        <ele>114.7</ele>
        <time>2022-08-10T15:23:30Z</time>
      </trkpt>
      <trkpt lat="44.49371" lon="1.3155">
        <ele>114.7</ele>
        <time>2022-08-10T15:23:32Z</time>
      </trkpt>
      <trkpt lat="44.49365" lon="1.31546">
        <ele>114.7</ele>
        <time>2022-08-10T15:23:34Z</time>
      </trkpt>
      <trkpt lat="44.4936" lon="1.31539">
        <ele>114.7</ele>
        <time>2022-08-10T15:23:36Z</time>
      </trkpt>
      <trkpt lat="44.49355" lon="1.31535">
        <ele>114.7</ele>
        <time>2022-08-10T15:23:38Z</time>
      </trkpt>
      <trkpt lat="44.49349" lon="1.31529">
        <ele>114.7</ele>
        <time>2022-08-10T15:23:40Z</time>
      </trkpt>
      <trkpt lat="44.49346" lon="1.3152">
        <ele>114.8</ele>
        <time>2022-08-10T15:23:42Z</time>
      </trkpt>
      <trkpt lat="44.49347" lon="1.31508">
        <ele>114.9</ele>
        <time>2022-08-10T15:23:44Z</time>
      </trkpt>
      <trkpt lat="44.49347" lon="1.31495">
        <ele>114.9</ele>
        <time>2022-08-10T15:23:46Z</time>
      </trkpt>
      <trkpt lat="44.49343" lon="1.31484">
        <ele>114.6</ele>
        <time>2022-08-10T15:23:48Z</time>
      </trkpt>
      <trkpt lat="44.49343" lon="1.31471">
        <ele>114.3</ele>
        <time>2022-08-10T15:23:50Z</time>
      </trkpt>
      <trkpt lat="44.49342" lon="1.31458">
        <ele>114</ele>
        <time>2022-08-10T15:23:52Z</time>
      </trkpt>
      <trkpt lat="44.49342" lon="1.31446">
        <ele>113.7</ele>
        <time>2022-08-10T15:23:54Z</time>
      </trkpt>
      <trkpt lat="44.49341" lon="1.31433">
        <ele>113.4</ele>
        <time>2022-08-10T15:23:56Z</time>
      </trkpt>
      <trkpt lat="44.4934" lon="1.31421">
        <ele>113.1</ele>
        <time>2022-08-10T15:23:58Z</time>
      </trkpt>
      <trkpt lat="44.49337" lon="1.31409">
        <ele>112.8</ele>
        <time>2022-08-10T15:24:00Z</time>
      </trkpt>
      <trkpt lat="44.4933" lon="1.31402">
        <ele>112.7</ele>
        <time>2022-08-10T15:24:02Z</time>
      </trkpt>
      <trkpt lat="44.49318" lon="1.31399">
        <ele>112.8</ele>
        <time>2022-08-10T15:24:04Z</time>
      </trkpt>
      <trkpt lat="44.49311" lon="1.31391">
        <ele>112.6</ele>
        <time>2022-08-10T15:24:06Z</time>
      </trkpt>
      <trkpt lat="44.49304" lon="1.31383">
        <ele>112.6</ele>
        <time>2022-08-10T15:24:08Z</time>
      </trkpt>
      <trkpt lat="44.49295" lon="1.31378">
        <ele>112.5</ele>
        <time>2022-08-10T15:24:10Z</time>
      </trkpt>
      <trkpt lat="44.49286" lon="1.31371">
        <ele>112.5</ele>
        <time>2022-08-10T15:24:12Z</time>
      </trkpt>
      <trkpt lat="44.49279" lon="1.31363">
        <ele>112.4</ele>
        <time>2022-08-10T15:24:14Z</time>
      </trkpt>
      <trkpt lat="44.4927" lon="1.31357">
        <ele>112.3</ele>
        <time>2022-08-10T15:24:16Z</time>
      </trkpt>
      <trkpt lat="44.49263" lon="1.31349">
        <ele>112.2</ele>
        <time>2022-08-10T15:24:18Z</time>
      </trkpt>
      <trkpt lat="44.49256" lon="1.31342">
        <ele>112.1</ele>
        <time>2022-08-10T15:24:20Z</time>
      </trkpt>
      <trkpt lat="44.49249" lon="1.31335">
        <ele>112.1</ele>
        <time>2022-08-10T15:24:22Z</time>
      </trkpt>
      <trkpt lat="44.4924" lon="1.31331">
        <ele>112.2</ele>
        <time>2022-08-10T15:24:24Z</time>
      </trkpt>
      <trkpt lat="44.49231" lon="1.31323">
        <ele>112.1</ele>
        <time>2022-08-10T15:24:26Z</time>
      </trkpt>
      <trkpt lat="44.49226" lon="1.31317">
        <ele>111.9</ele>
        <time>2022-08-10T15:24:28Z</time>
      </trkpt>
      <trkpt lat="44.49219" lon="1.31311">
        <ele>111.8</ele>
        <time>2022-08-10T15:24:30Z</time>
      </trkpt>
      <trkpt lat="44.49212" lon="1.31306">
        <ele>111.8</ele>
        <time>2022-08-10T15:24:32Z</time>
      </trkpt>
      <trkpt lat="44.49205" lon="1.31302">
        <ele>111.7</ele>
        <time>2022-08-10T15:24:34Z</time>
      </trkpt>
      <trkpt lat="44.49199" lon="1.31297">
        <ele>111.7</ele>
        <time>2022-08-10T15:24:36Z</time>
      </trkpt>
      <trkpt lat="44.49192" lon="1.3129">
        <ele>111.5</ele>
        <time>2022-08-10T15:24:38Z</time>
      </trkpt>
      <trkpt lat="44.49187" lon="1.31281">
        <ele>111.2</ele>
        <time>2022-08-10T15:24:40Z</time>
      </trkpt>
      <trkpt lat="44.49184" lon="1.3127">
        <ele>110.7</ele>
        <time>2022-08-10T15:24:42Z</time>
      </trkpt>
      <trkpt lat="44.49187" lon="1.31256">
        <ele>110</ele>
        <time>2022-08-10T15:24:44Z</time>
      </trkpt>
      <trkpt lat="44.49191" lon="1.31241">
        <ele>109.4</ele>
        <time>2022-08-10T15:24:46Z</time>
      </trkpt>
      <trkpt lat="44.49194" lon="1.31226">
        <ele>108.9</ele>
        <time>2022-08-10T15:24:48Z</time>
      </trkpt>
      <trkpt lat="44.49198" lon="1.31208">
        <ele>108.3</ele>
        <time>2022-08-10T15:24:50Z</time>
      </trkpt>
      <trkpt lat="44.49201" lon="1.31191">
        <ele>107.7</ele>
        <time>2022-08-10T15:24:52Z</time>
      </trkpt>
      <trkpt lat="44.492" lon="1.31172">
        <ele>107.2</ele>
        <time>2022-08-10T15:24:54Z</time>
      </trkpt>
      <trkpt lat="44.49191" lon="1.31161">
        <ele>106.9</ele>
        <time>2022-08-10T15:24:56Z</time>
      </trkpt>
      <trkpt lat="44.49179" lon="1.31158">
        <ele>106.9</ele>
        <time>2022-08-10T15:24:58Z</time>
      </trkpt>
      <trkpt lat="44.49168" lon="1.31154">
        <ele>106.8</ele>
        <time>2022-08-10T15:25:00Z</time>
      </trkpt>
      <trkpt lat="44.49158" lon="1.31156">
        <ele>106.9</ele>
        <time>2022-08-10T15:25:02Z</time>
      </trkpt>
      <trkpt lat="44.49148" lon="1.31161">
        <ele>106.9</ele>
        <time>2022-08-10T15:25:04Z</time>
      </trkpt>
      <trkpt lat="44.49138" lon="1.31166">
        <ele>107</ele>
        <time>2022-08-10T15:25:06Z</time>
      </trkpt>
      <trkpt lat="44.4913" lon="1.3117">
        <ele>107.1</ele>
        <time>2022-08-10T15:25:08Z</time>
      </trkpt>
      <trkpt lat="44.49122" lon="1.31175">
        <ele>107.2</ele>
        <time>2022-08-10T15:25:10Z</time>
      </trkpt>
      <trkpt lat="44.49115" lon="1.3118">
        <ele>107.3</ele>
        <time>2022-08-10T15:25:12Z</time>
      </trkpt>
      <trkpt lat="44.49108" lon="1.31183">
        <ele>107.3</ele>
        <time>2022-08-10T15:25:14Z</time>
      </trkpt>
      <trkpt lat="44.491" lon="1.31181">
        <ele>107.2</ele>
        <time>2022-08-10T15:25:16Z</time>
      </trkpt>
      <trkpt lat="44.49093" lon="1.31175">
        <ele>107.1</ele>
        <time>2022-08-10T15:25:18Z</time>
      </trkpt>
      <trkpt lat="44.49086" lon="1.3117">
        <ele>107</ele>
        <time>2022-08-10T15:25:20Z</time>
      </trkpt>
      <trkpt lat="44.4908" lon="1.31164">
        <ele>106.9</ele>
        <time>2022-08-10T15:25:22Z</time>
      </trkpt>
      <trkpt lat="44.49074" lon="1.31157">
        <ele>106.6</ele>
        <time>2022-08-10T15:25:24Z</time>
      </trkpt>
      <trkpt lat="44.49066" lon="1.3115">
        <ele>106.3</ele>
        <time>2022-08-10T15:25:26Z</time>
      </trkpt>
      <trkpt lat="44.4906" lon="1.31142">
        <ele>106</ele>
        <time>2022-08-10T15:25:28Z</time>
      </trkpt>
      <trkpt lat="44.49053" lon="1.31133">
        <ele>105.8</ele>
        <time>2022-08-10T15:25:30Z</time>
      </trkpt>
      <trkpt lat="44.49047" lon="1.31125">
        <ele>105.6</ele>
        <time>2022-08-10T15:25:32Z</time>
      </trkpt>
      <trkpt lat="44.4904" lon="1.31117">
        <ele>105.4</ele>
        <time>2022-08-10T15:25:34Z</time>
      </trkpt>
      <trkpt lat="44.49035" lon="1.31107">
        <ele>105.2</ele>
        <time>2022-08-10T15:25:36Z</time>
      </trkpt>
      <trkpt lat="44.49031" lon="1.31096">
        <ele>105.1</ele>
        <time>2022-08-10T15:25:38Z</time>
      </trkpt>
      <trkpt lat="44.49029" lon="1.31085">
        <ele>105</ele>
        <time>2022-08-10T15:25:40Z</time>
      </trkpt>
      <trkpt lat="44.49026" lon="1.31074">
        <ele>104.9</ele>
        <time>2022-08-10T15:25:42Z</time>
      </trkpt>
      <trkpt lat="44.49022" lon="1.31063">
        <ele>104.8</ele>
        <time>2022-08-10T15:25:44Z</time>
      </trkpt>
      <trkpt lat="44.49016" lon="1.31053">
        <ele>104.7</ele>
        <time>2022-08-10T15:25:46Z</time>
      </trkpt>
      <trkpt lat="44.49009" lon="1.31047">
        <ele>104.6</ele>
        <time>2022-08-10T15:25:48Z</time>
      </trkpt>
      <trkpt lat="44.49001" lon="1.31042">
        <ele>104.5</ele>
        <time>2022-08-10T15:25:50Z</time>
      </trkpt>
      <trkpt lat="44.48993" lon="1.31039">
        <ele>104.5</ele>
        <time>2022-08-10T15:25:52Z</time>
      </trkpt>
      <trkpt lat="44.48984" lon="1.31035">
        <ele>104.5</ele>
        <time>2022-08-10T15:25:54Z</time>
      </trkpt>
      <trkpt lat="44.48976" lon="1.31033">
        <ele>104.5</ele>
        <time>2022-08-10T15:25:56Z</time>
      </trkpt>
      <trkpt lat="44.48967" lon="1.3103">
        <ele>104.5</ele>
        <time>2022-08-10T15:25:58Z</time>
      </trkpt>
      <trkpt lat="44.48959" lon="1.31027">
        <ele>104.5</ele>
        <time>2022-08-10T15:26:00Z</time>
      </trkpt>
      <trkpt lat="44.4895" lon="1.31025">
        <ele>104.5</ele>
        <time>2022-08-10T15:26:02Z</time>
      </trkpt>
      <trkpt lat="44.48942" lon="1.31024">
        <ele>104.6</ele>
        <time>2022-08-10T15:26:04Z</time>
      </trkpt>
      <trkpt lat="44.48934" lon="1.31022">
        <ele>104.6</ele>
        <time>2022-08-10T15:26:06Z</time>
      </trkpt>
      <trkpt lat="44.48925" lon="1.3102">
        <ele>104.7</ele>
        <time>2022-08-10T15:26:08Z</time>
      </trkpt>
      <trkpt lat="44.48917" lon="1.31019">
        <ele>104.8</ele>
        <time>2022-08-10T15:26:10Z</time>
      </trkpt>
      <trkpt lat="44.4891" lon="1.31018">
        <ele>104.8</ele>
        <time>2022-08-10T15:26:12Z</time>
      </trkpt>
      <trkpt lat="44.48903" lon="1.31016">
        <ele>104.9</ele>
        <time>2022-08-10T15:26:14Z</time>
      </trkpt>
      <trkpt lat="44.48895" lon="1.31014">
        <ele>104.9</ele>
        <time>2022-08-10T15:26:16Z</time>
      </trkpt>
      <trkpt lat="44.48888" lon="1.31013">
        <ele>105</ele>
        <time>2022-08-10T15:26:18Z</time>
      </trkpt>
      <trkpt lat="44.4888" lon="1.31012">
        <ele>105</ele>
        <time>2022-08-10T15:26:20Z</time>
      </trkpt>
      <trkpt lat="44.48872" lon="1.3101">
        <ele>105</ele>
        <time>2022-08-10T15:26:22Z</time>
      </trkpt>
      <trkpt lat="44.48862" lon="1.31008">
        <ele>105</ele>
        <time>2022-08-10T15:26:24Z</time>
      </trkpt>
      <trkpt lat="44.48854" lon="1.31006">
        <ele>105</ele>
        <time>2022-08-10T15:26:26Z</time>
      </trkpt>
      <trkpt lat="44.48845" lon="1.31005">
        <ele>105</ele>
        <time>2022-08-10T15:26:28Z</time>
      </trkpt>
      <trkpt lat="44.48836" lon="1.31004">
        <ele>105</ele>
        <time>2022-08-10T15:26:30Z</time>
      </trkpt>
      <trkpt lat="44.48828" lon="1.31002">
        <ele>105</ele>
        <time>2022-08-10T15:26:32Z</time>
      </trkpt>
      <trkpt lat="44.48818" lon="1.31001">
        <ele>105</ele>
        <time>2022-08-10T15:26:34Z</time>
      </trkpt>
      <trkpt lat="44.48809" lon="1.31">
        <ele>105</ele>
        <time>2022-08-10T15:26:36Z</time>
      </trkpt>
      <trkpt lat="44.488" lon="1.30999">
        <ele>105</ele>
        <time>2022-08-10T15:26:38Z</time>
      </trkpt>
      <trkpt lat="44.48791" lon="1.30998">
        <ele>105</ele>
        <time>2022-08-10T15:26:40Z</time>
      </trkpt>
      <trkpt lat="44.48782" lon="1.30996">
        <ele>104.9</ele>
        <time>2022-08-10T15:26:42Z</time>
      </trkpt>
      <trkpt lat="44.48773" lon="1.30994">
        <ele>104.9</ele>
        <time>2022-08-10T15:26:44Z</time>
      </trkpt>
      <trkpt lat="44.48764" lon="1.30993">
        <ele>104.9</ele>
        <time>2022-08-10T15:26:46Z</time>
      </trkpt>
      <trkpt lat="44.48754" lon="1.30991">
        <ele>104.8</ele>
        <time>2022-08-10T15:26:48Z</time>
      </trkpt>
      <trkpt lat="44.48744" lon="1.3099">
        <ele>104.8</ele>
        <time>2022-08-10T15:26:50Z</time>
      </trkpt>
      <trkpt lat="44.48734" lon="1.30988">
        <ele>104.9</ele>
        <time>2022-08-10T15:26:52Z</time>
      </trkpt>
      <trkpt lat="44.48724" lon="1.30987">
        <ele>104.9</ele>
        <time>2022-08-10T15:26:54Z</time>
      </trkpt>
      <trkpt lat="44.48714" lon="1.30985">
        <ele>105</ele>
        <time>2022-08-10T15:26:56Z</time>
      </trkpt>
      <trkpt lat="44.48704" lon="1.30984">
        <ele>105</ele>
        <time>2022-08-10T15:26:58Z</time>
      </trkpt>
      <trkpt lat="44.48694" lon="1.30982">
        <ele>105.1</ele>
        <time>2022-08-10T15:27:00Z</time>
      </trkpt>
      <trkpt lat="44.48684" lon="1.30981">
        <ele>105.1</ele>
        <time>2022-08-10T15:27:02Z</time>
      </trkpt>
      <trkpt lat="44.48675" lon="1.3098">
        <ele>105.2</ele>
        <time>2022-08-10T15:27:04Z</time>
      </trkpt>
      <trkpt lat="44.48666" lon="1.30978">
        <ele>105.3</ele>
        <time>2022-08-10T15:27:06Z</time>
      </trkpt>
      <trkpt lat="44.48656" lon="1.30976">
        <ele>105.8</ele>
        <time>2022-08-10T15:27:08Z</time>
      </trkpt>
      <trkpt lat="44.48647" lon="1.30974">
        <ele>106.3</ele>
        <time>2022-08-10T15:27:10Z</time>
      </trkpt>
      <trkpt lat="44.48639" lon="1.30973">
        <ele>106.8</ele>
        <time>2022-08-10T15:27:12Z</time>
      </trkpt>
      <trkpt lat="44.48631" lon="1.30971">
        <ele>107.2</ele>
        <time>2022-08-10T15:27:14Z</time>
      </trkpt>
      <trkpt lat="44.48622" lon="1.30969">
        <ele>107.6</ele>
        <time>2022-08-10T15:27:16Z</time>
      </trkpt>
      <trkpt lat="44.48615" lon="1.30967">
        <ele>108</ele>
        <time>2022-08-10T15:27:18Z</time>
      </trkpt>
      <trkpt lat="44.48607" lon="1.30966">
        <ele>108.4</ele>
        <time>2022-08-10T15:27:20Z</time>
      </trkpt>
      <trkpt lat="44.48599" lon="1.30965">
        <ele>108.7</ele>
        <time>2022-08-10T15:27:22Z</time>
      </trkpt>
      <trkpt lat="44.48591" lon="1.30963">
        <ele>109</ele>
        <time>2022-08-10T15:27:24Z</time>
      </trkpt>
      <trkpt lat="44.48584" lon="1.30961">
        <ele>109.3</ele>
        <time>2022-08-10T15:27:26Z</time>
      </trkpt>
      <trkpt lat="44.48576" lon="1.30958">
        <ele>110.1</ele>
        <time>2022-08-10T15:27:28Z</time>
      </trkpt>
      <trkpt lat="44.48568" lon="1.30955">
        <ele>110.9</ele>
        <time>2022-08-10T15:27:30Z</time>
      </trkpt>
      <trkpt lat="44.48559" lon="1.30949">
        <ele>111.6</ele>
        <time>2022-08-10T15:27:32Z</time>
      </trkpt>
      <trkpt lat="44.48551" lon="1.30943">
        <ele>112.2</ele>
        <time>2022-08-10T15:27:34Z</time>
      </trkpt>
      <trkpt lat="44.48545" lon="1.30936">
        <ele>112.4</ele>
        <time>2022-08-10T15:27:36Z</time>
      </trkpt>
      <trkpt lat="44.48539" lon="1.30929">
        <ele>112.6</ele>
        <time>2022-08-10T15:27:38Z</time>
      </trkpt>
      <trkpt lat="44.4853" lon="1.30923">
        <ele>113.2</ele>
        <time>2022-08-10T15:27:40Z</time>
      </trkpt>
      <trkpt lat="44.48522" lon="1.3092">
        <ele>114.1</ele>
        <time>2022-08-10T15:27:42Z</time>
      </trkpt>
      <trkpt lat="44.48514" lon="1.30914">
        <ele>114.7</ele>
        <time>2022-08-10T15:27:44Z</time>
      </trkpt>
      <trkpt lat="44.48505" lon="1.30909">
        <ele>115.2</ele>
        <time>2022-08-10T15:27:46Z</time>
      </trkpt>
      <trkpt lat="44.48497" lon="1.30902">
        <ele>115.4</ele>
        <time>2022-08-10T15:27:48Z</time>
      </trkpt>
      <trkpt lat="44.4849" lon="1.30893">
        <ele>115.3</ele>
        <time>2022-08-10T15:27:50Z</time>
      </trkpt>
      <trkpt lat="44.48483" lon="1.30883">
        <ele>115.1</ele>
        <time>2022-08-10T15:27:52Z</time>
      </trkpt>
      <trkpt lat="44.48475" lon="1.30872">
        <ele>115.2</ele>
        <time>2022-08-10T15:27:54Z</time>
      </trkpt>
      <trkpt lat="44.48469" lon="1.30863">
        <ele>115.2</ele>
        <time>2022-08-10T15:27:56Z</time>
      </trkpt>
      <trkpt lat="44.48464" lon="1.30853">
        <ele>115.2</ele>
        <time>2022-08-10T15:27:58Z</time>
      </trkpt>
      <trkpt lat="44.48456" lon="1.30844">
        <ele>115.6</ele>
        <time>2022-08-10T15:28:00Z</time>
      </trkpt>
      <trkpt lat="44.4845" lon="1.30835">
        <ele>116.1</ele>
        <time>2022-08-10T15:28:02Z</time>
      </trkpt>
      <trkpt lat="44.48442" lon="1.30826">
        <ele>116.4</ele>
        <time>2022-08-10T15:28:04Z</time>
      </trkpt>
      <trkpt lat="44.48435" lon="1.30817">
        <ele>116.7</ele>
        <time>2022-08-10T15:28:06Z</time>
      </trkpt>
      <trkpt lat="44.48428" lon="1.30808">
        <ele>116.6</ele>
        <time>2022-08-10T15:28:08Z</time>
      </trkpt>
      <trkpt lat="44.4842" lon="1.308">
        <ele>116.5</ele>
        <time>2022-08-10T15:28:10Z</time>
      </trkpt>
      <trkpt lat="44.48412" lon="1.30792">
        <ele>116.3</ele>
        <time>2022-08-10T15:28:12Z</time>
      </trkpt>
      <trkpt lat="44.48406" lon="1.30783">
        <ele>115.9</ele>
        <time>2022-08-10T15:28:14Z</time>
      </trkpt>
      <trkpt lat="44.48399" lon="1.30774">
        <ele>115.8</ele>
        <time>2022-08-10T15:28:16Z</time>
      </trkpt>
      <trkpt lat="44.48393" lon="1.30764">
        <ele>115.2</ele>
        <time>2022-08-10T15:28:18Z</time>
      </trkpt>
      <trkpt lat="44.4839" lon="1.30753">
        <ele>114.3</ele>
        <time>2022-08-10T15:28:20Z</time>
      </trkpt>
      <trkpt lat="44.48386" lon="1.30745">
        <ele>114.2</ele>
        <time>2022-08-10T15:28:22Z</time>
      </trkpt>
      <trkpt lat="44.48384" lon="1.30737">
        <ele>113.5</ele>
        <time>2022-08-10T15:28:24Z</time>
      </trkpt>
      <trkpt lat="44.48384" lon="1.30728">
        <ele>112.6</ele>
        <time>2022-08-10T15:28:26Z</time>
      </trkpt>
      <trkpt lat="44.48387" lon="1.30721">
        <ele>111.4</ele>
        <time>2022-08-10T15:28:28Z</time>
      </trkpt>
      <trkpt lat="44.48398" lon="1.3071">
        <ele>108.7</ele>
        <time>2022-08-10T15:28:30Z</time>
      </trkpt>
      <trkpt lat="44.48349" lon="1.30709">
        <ele>115.3</ele>
        <time>2022-08-10T15:28:32Z</time>
      </trkpt>
      <trkpt lat="44.48341" lon="1.30704">
        <ele>115.6</ele>
        <time>2022-08-10T15:28:34Z</time>
      </trkpt>
      <trkpt lat="44.48336" lon="1.30697">
        <ele>114.8</ele>
        <time>2022-08-10T15:28:36Z</time>
      </trkpt>
      <trkpt lat="44.48331" lon="1.3069">
        <ele>114</ele>
        <time>2022-08-10T15:28:38Z</time>
      </trkpt>
      <trkpt lat="44.48325" lon="1.30685">
        <ele>113.8</ele>
        <time>2022-08-10T15:28:40Z</time>
      </trkpt>
      <trkpt lat="44.48319" lon="1.30681">
        <ele>114</ele>
        <time>2022-08-10T15:28:42Z</time>
      </trkpt>
      <trkpt lat="44.48314" lon="1.30676">
        <ele>113.9</ele>
        <time>2022-08-10T15:28:44Z</time>
      </trkpt>
      <trkpt lat="44.4831" lon="1.30675">
        <ele>114.3</ele>
        <time>2022-08-10T15:28:46Z</time>
      </trkpt>
      <trkpt lat="44.48304" lon="1.30674">
        <ele>115</ele>
        <time>2022-08-10T15:28:48Z</time>
      </trkpt>
      <trkpt lat="44.483" lon="1.30673">
        <ele>115.6</ele>
        <time>2022-08-10T15:28:50Z</time>
      </trkpt>
      <trkpt lat="44.48295" lon="1.30673">
        <ele>116.3</ele>
        <time>2022-08-10T15:28:52Z</time>
      </trkpt>
      <trkpt lat="44.4829" lon="1.30676">
        <ele>117.5</ele>
        <time>2022-08-10T15:28:54Z</time>
      </trkpt>
      <trkpt lat="44.48286" lon="1.3068">
        <ele>118.5</ele>
        <time>2022-08-10T15:28:56Z</time>
      </trkpt>
      <trkpt lat="44.48284" lon="1.30684">
        <ele>119.3</ele>
        <time>2022-08-10T15:28:58Z</time>
      </trkpt>
      <trkpt lat="44.48281" lon="1.30687">
        <ele>120.1</ele>
        <time>2022-08-10T15:29:00Z</time>
      </trkpt>
      <trkpt lat="44.4828" lon="1.3069">
        <ele>120.5</ele>
        <time>2022-08-10T15:29:02Z</time>
      </trkpt>
      <trkpt lat="44.48278" lon="1.30693">
        <ele>121.2</ele>
        <time>2022-08-10T15:29:04Z</time>
      </trkpt>
      <trkpt lat="44.48275" lon="1.30696">
        <ele>121.8</ele>
        <time>2022-08-10T15:29:06Z</time>
      </trkpt>
      <trkpt lat="44.48273" lon="1.30699">
        <ele>122.3</ele>
        <time>2022-08-10T15:29:08Z</time>
      </trkpt>
      <trkpt lat="44.48272" lon="1.30702">
        <ele>122.8</ele>
        <time>2022-08-10T15:29:10Z</time>
      </trkpt>
      <trkpt lat="44.48272" lon="1.30705">
        <ele>123.1</ele>
        <time>2022-08-10T15:29:12Z</time>
      </trkpt>
      <trkpt lat="44.48269" lon="1.30707">
        <ele>123.5</ele>
        <time>2022-08-10T15:29:14Z</time>
      </trkpt>
      <trkpt lat="44.48266" lon="1.30711">
        <ele>124.1</ele>
        <time>2022-08-10T15:29:16Z</time>
      </trkpt>
      <trkpt lat="44.48265" lon="1.30714">
        <ele>124.5</ele>
        <time>2022-08-10T15:29:18Z</time>
      </trkpt>
      <trkpt lat="44.48264" lon="1.30717">
        <ele>124.9</ele>
        <time>2022-08-10T15:29:20Z</time>
      </trkpt>
      <trkpt lat="44.48263" lon="1.30721">
        <ele>125.3</ele>
        <time>2022-08-10T15:29:22Z</time>
      </trkpt>
      <trkpt lat="44.48263" lon="1.30724">
        <ele>125.6</ele>
        <time>2022-08-10T15:29:24Z</time>
      </trkpt>
      <trkpt lat="44.48262" lon="1.30728">
        <ele>126</ele>
        <time>2022-08-10T15:29:26Z</time>
      </trkpt>
      <trkpt lat="44.48261" lon="1.30732">
        <ele>126.3</ele>
        <time>2022-08-10T15:29:28Z</time>
      </trkpt>
      <trkpt lat="44.48259" lon="1.30734">
        <ele>126.6</ele>
        <time>2022-08-10T15:29:30Z</time>
      </trkpt>
      <trkpt lat="44.48259" lon="1.30738">
        <ele>126.9</ele>
        <time>2022-08-10T15:29:32Z</time>
      </trkpt>
      <trkpt lat="44.48256" lon="1.30741">
        <ele>127.2</ele>
        <time>2022-08-10T15:29:34Z</time>
      </trkpt>
      <trkpt lat="44.48254" lon="1.30744">
        <ele>127.5</ele>
        <time>2022-08-10T15:29:36Z</time>
      </trkpt>
      <trkpt lat="44.48254" lon="1.30747">
        <ele>127.7</ele>
        <time>2022-08-10T15:29:38Z</time>
      </trkpt>
      <trkpt lat="44.48251" lon="1.30749">
        <ele>127.9</ele>
        <time>2022-08-10T15:29:40Z</time>
      </trkpt>
      <trkpt lat="44.4825" lon="1.30753">
        <ele>128</ele>
        <time>2022-08-10T15:29:42Z</time>
      </trkpt>
      <trkpt lat="44.48249" lon="1.30756">
        <ele>128</ele>
        <time>2022-08-10T15:29:44Z</time>
      </trkpt>
      <trkpt lat="44.48247" lon="1.30758">
        <ele>128</ele>
        <time>2022-08-10T15:29:46Z</time>
      </trkpt>
      <trkpt lat="44.48244" lon="1.30761">
        <ele>128.1</ele>
        <time>2022-08-10T15:29:48Z</time>
      </trkpt>
      <trkpt lat="44.48242" lon="1.30763">
        <ele>128.1</ele>
        <time>2022-08-10T15:29:50Z</time>
      </trkpt>
      <trkpt lat="44.4824" lon="1.30767">
        <ele>128.1</ele>
        <time>2022-08-10T15:29:52Z</time>
      </trkpt>
      <trkpt lat="44.48236" lon="1.30771">
        <ele>128.2</ele>
        <time>2022-08-10T15:29:54Z</time>
      </trkpt>
      <trkpt lat="44.48232" lon="1.30773">
        <ele>128.2</ele>
        <time>2022-08-10T15:29:56Z</time>
      </trkpt>
      <trkpt lat="44.48229" lon="1.30774">
        <ele>128.3</ele>
        <time>2022-08-10T15:29:58Z</time>
      </trkpt>
      <trkpt lat="44.48227" lon="1.30775">
        <ele>128.3</ele>
        <time>2022-08-10T15:30:00Z</time>
      </trkpt>
      <trkpt lat="44.48226" lon="1.30777">
        <ele>128.3</ele>
        <time>2022-08-10T15:30:02Z</time>
      </trkpt>
      <trkpt lat="44.48223" lon="1.3078">
        <ele>128.3</ele>
        <time>2022-08-10T15:30:04Z</time>
      </trkpt>
      <trkpt lat="44.48219" lon="1.3078">
        <ele>128.4</ele>
        <time>2022-08-10T15:30:06Z</time>
      </trkpt>
      <trkpt lat="44.48218" lon="1.3078">
        <ele>128.4</ele>
        <time>2022-08-10T15:30:08Z</time>
      </trkpt>
      <trkpt lat="44.48215" lon="1.30783">
        <ele>128.4</ele>
        <time>2022-08-10T15:30:10Z</time>
      </trkpt>
      <trkpt lat="44.48212" lon="1.30785">
        <ele>128.5</ele>
        <time>2022-08-10T15:30:12Z</time>
      </trkpt>
      <trkpt lat="44.48208" lon="1.30787">
        <ele>128.5</ele>
        <time>2022-08-10T15:30:14Z</time>
      </trkpt>
      <trkpt lat="44.48206" lon="1.30787">
        <ele>128.5</ele>
        <time>2022-08-10T15:30:16Z</time>
      </trkpt>
      <trkpt lat="44.48203" lon="1.30789">
        <ele>128.6</ele>
        <time>2022-08-10T15:30:18Z</time>
      </trkpt>
      <trkpt lat="44.48199" lon="1.30793">
        <ele>128.6</ele>
        <time>2022-08-10T15:30:20Z</time>
      </trkpt>
      <trkpt lat="44.48196" lon="1.30794">
        <ele>128.6</ele>
        <time>2022-08-10T15:30:22Z</time>
      </trkpt>
      <trkpt lat="44.48193" lon="1.30795">
        <ele>128.7</ele>
        <time>2022-08-10T15:30:24Z</time>
      </trkpt>
      <trkpt lat="44.48191" lon="1.30795">
        <ele>128.7</ele>
        <time>2022-08-10T15:30:26Z</time>
      </trkpt>
      <trkpt lat="44.48188" lon="1.30797">
        <ele>128.7</ele>
        <time>2022-08-10T15:30:28Z</time>
      </trkpt>
      <trkpt lat="44.48186" lon="1.30798">
        <ele>128.8</ele>
        <time>2022-08-10T15:30:30Z</time>
      </trkpt>
      <trkpt lat="44.48184" lon="1.30799">
        <ele>128.8</ele>
        <time>2022-08-10T15:30:32Z</time>
      </trkpt>
      <trkpt lat="44.48182" lon="1.30801">
        <ele>128.8</ele>
        <time>2022-08-10T15:30:34Z</time>
      </trkpt>
      <trkpt lat="44.48179" lon="1.30801">
        <ele>128.8</ele>
        <time>2022-08-10T15:30:36Z</time>
      </trkpt>
      <trkpt lat="44.48176" lon="1.30803">
        <ele>128.9</ele>
        <time>2022-08-10T15:30:38Z</time>
      </trkpt>
      <trkpt lat="44.48173" lon="1.30804">
        <ele>128.9</ele>
        <time>2022-08-10T15:30:40Z</time>
      </trkpt>
      <trkpt lat="44.48171" lon="1.30805">
        <ele>128.9</ele>
        <time>2022-08-10T15:30:42Z</time>
      </trkpt>
      <trkpt lat="44.48169" lon="1.30806">
        <ele>129</ele>
        <time>2022-08-10T15:30:44Z</time>
      </trkpt>
      <trkpt lat="44.48166" lon="1.30807">
        <ele>129</ele>
        <time>2022-08-10T15:30:46Z</time>
      </trkpt>
      <trkpt lat="44.48163" lon="1.30807">
        <ele>129.2</ele>
        <time>2022-08-10T15:30:48Z</time>
      </trkpt>
      <trkpt lat="44.4816" lon="1.30808">
        <ele>129.3</ele>
        <time>2022-08-10T15:30:50Z</time>
      </trkpt>
      <trkpt lat="44.48157" lon="1.30808">
        <ele>129.5</ele>
        <time>2022-08-10T15:30:52Z</time>
      </trkpt>
      <trkpt lat="44.48155" lon="1.30808">
        <ele>129.6</ele>
        <time>2022-08-10T15:30:54Z</time>
      </trkpt>
      <trkpt lat="44.48153" lon="1.30808">
        <ele>129.7</ele>
        <time>2022-08-10T15:30:56Z</time>
      </trkpt>
      <trkpt lat="44.4815" lon="1.30808">
        <ele>129.8</ele>
        <time>2022-08-10T15:30:58Z</time>
      </trkpt>
      <trkpt lat="44.48148" lon="1.30809">
        <ele>130</ele>
        <time>2022-08-10T15:31:00Z</time>
      </trkpt>
      <trkpt lat="44.48145" lon="1.3081">
        <ele>130.1</ele>
        <time>2022-08-10T15:31:02Z</time>
      </trkpt>
      <trkpt lat="44.48142" lon="1.30809">
        <ele>130.3</ele>
        <time>2022-08-10T15:31:04Z</time>
      </trkpt>
      <trkpt lat="44.48139" lon="1.30809">
        <ele>130.4</ele>
        <time>2022-08-10T15:31:06Z</time>
      </trkpt>
      <trkpt lat="44.48136" lon="1.3081">
        <ele>130.6</ele>
        <time>2022-08-10T15:31:08Z</time>
      </trkpt>
      <trkpt lat="44.48134" lon="1.30811">
        <ele>130.7</ele>
        <time>2022-08-10T15:31:10Z</time>
      </trkpt>
      <trkpt lat="44.48131" lon="1.30811">
        <ele>130.8</ele>
        <time>2022-08-10T15:31:12Z</time>
      </trkpt>
      <trkpt lat="44.48128" lon="1.30812">
        <ele>131</ele>
        <time>2022-08-10T15:31:14Z</time>
      </trkpt>
      <trkpt lat="44.48125" lon="1.30814">
        <ele>131.1</ele>
        <time>2022-08-10T15:31:16Z</time>
      </trkpt>
      <trkpt lat="44.48123" lon="1.30817">
        <ele>131.2</ele>
        <time>2022-08-10T15:31:18Z</time>
      </trkpt>
      <trkpt lat="44.48121" lon="1.30819">
        <ele>131.3</ele>
        <time>2022-08-10T15:31:20Z</time>
      </trkpt>
      <trkpt lat="44.48118" lon="1.30821">
        <ele>131.4</ele>
        <time>2022-08-10T15:31:22Z</time>
      </trkpt>
      <trkpt lat="44.48115" lon="1.30821">
        <ele>131.6</ele>
        <time>2022-08-10T15:31:24Z</time>
      </trkpt>
      <trkpt lat="44.48113" lon="1.30821">
        <ele>131.7</ele>
        <time>2022-08-10T15:31:26Z</time>
      </trkpt>
      <trkpt lat="44.48114" lon="1.30821">
        <ele>131.6</ele>
        <time>2022-08-10T15:31:28Z</time>
      </trkpt>
      <trkpt lat="44.48114" lon="1.3082">
        <ele>131.6</ele>
        <time>2022-08-10T15:31:30Z</time>
      </trkpt>
      <trkpt lat="44.48114" lon="1.3082">
        <ele>131.6</ele>
        <time>2022-08-10T15:31:32Z</time>
      </trkpt>
      <trkpt lat="44.48113" lon="1.30821">
        <ele>131.7</ele>
        <time>2022-08-10T15:31:34Z</time>
      </trkpt>
      <trkpt lat="44.48101" lon="1.30807">
        <ele>132.4</ele>
        <time>2022-08-10T15:33:40Z</time>
      </trkpt>
      <trkpt lat="44.48099" lon="1.30801">
        <ele>132.5</ele>
        <time>2022-08-10T15:33:42Z</time>
      </trkpt>
      <trkpt lat="44.48098" lon="1.30795">
        <ele>132.7</ele>
        <time>2022-08-10T15:33:44Z</time>
      </trkpt>
      <trkpt lat="44.48095" lon="1.30789">
        <ele>132.9</ele>
        <time>2022-08-10T15:33:46Z</time>
      </trkpt>
      <trkpt lat="44.48092" lon="1.30782">
        <ele>133.1</ele>
        <time>2022-08-10T15:33:48Z</time>
      </trkpt>
      <trkpt lat="44.4809" lon="1.30776">
        <ele>133.3</ele>
        <time>2022-08-10T15:33:50Z</time>
      </trkpt>
      <trkpt lat="44.48087" lon="1.30769">
        <ele>133.6</ele>
        <time>2022-08-10T15:33:52Z</time>
      </trkpt>
      <trkpt lat="44.48084" lon="1.30762">
        <ele>133.8</ele>
        <time>2022-08-10T15:33:54Z</time>
      </trkpt>
      <trkpt lat="44.48081" lon="1.30756">
        <ele>134</ele>
        <time>2022-08-10T15:33:56Z</time>
      </trkpt>
      <trkpt lat="44.48078" lon="1.30749">
        <ele>134.1</ele>
        <time>2022-08-10T15:33:58Z</time>
      </trkpt>
      <trkpt lat="44.48075" lon="1.30743">
        <ele>134.2</ele>
        <time>2022-08-10T15:34:00Z</time>
      </trkpt>
      <trkpt lat="44.48073" lon="1.30737">
        <ele>134.2</ele>
        <time>2022-08-10T15:34:02Z</time>
      </trkpt>
      <trkpt lat="44.4807" lon="1.30731">
        <ele>134.3</ele>
        <time>2022-08-10T15:34:04Z</time>
      </trkpt>
      <trkpt lat="44.48067" lon="1.30725">
        <ele>134.3</ele>
        <time>2022-08-10T15:34:06Z</time>
      </trkpt>
      <trkpt lat="44.48064" lon="1.30718">
        <ele>134.4</ele>
        <time>2022-08-10T15:34:08Z</time>
      </trkpt>
      <trkpt lat="44.48061" lon="1.30711">
        <ele>134.4</ele>
        <time>2022-08-10T15:34:10Z</time>
      </trkpt>
      <trkpt lat="44.48059" lon="1.30704">
        <ele>134.4</ele>
        <time>2022-08-10T15:34:12Z</time>
      </trkpt>
      <trkpt lat="44.48056" lon="1.30697">
        <ele>134.5</ele>
        <time>2022-08-10T15:34:14Z</time>
      </trkpt>
      <trkpt lat="44.48053" lon="1.3069">
        <ele>134.5</ele>
        <time>2022-08-10T15:34:16Z</time>
      </trkpt>
      <trkpt lat="44.4805" lon="1.30683">
        <ele>134.5</ele>
        <time>2022-08-10T15:34:18Z</time>
      </trkpt>
      <trkpt lat="44.48047" lon="1.30677">
        <ele>134.5</ele>
        <time>2022-08-10T15:34:20Z</time>
      </trkpt>
      <trkpt lat="44.48045" lon="1.3067">
        <ele>134.5</ele>
        <time>2022-08-10T15:34:22Z</time>
      </trkpt>
      <trkpt lat="44.48042" lon="1.30663">
        <ele>134.5</ele>
        <time>2022-08-10T15:34:24Z</time>
      </trkpt>
      <trkpt lat="44.48038" lon="1.30657">
        <ele>134.4</ele>
        <time>2022-08-10T15:34:26Z</time>
      </trkpt>
      <trkpt lat="44.48035" lon="1.30649">
        <ele>134.3</ele>
        <time>2022-08-10T15:34:28Z</time>
      </trkpt>
      <trkpt lat="44.48032" lon="1.30643">
        <ele>134.3</ele>
        <time>2022-08-10T15:34:30Z</time>
      </trkpt>
      <trkpt lat="44.48029" lon="1.30636">
        <ele>134.2</ele>
        <time>2022-08-10T15:34:32Z</time>
      </trkpt>
      <trkpt lat="44.48025" lon="1.30629">
        <ele>134.1</ele>
        <time>2022-08-10T15:34:34Z</time>
      </trkpt>
      <trkpt lat="44.48021" lon="1.30621">
        <ele>133.9</ele>
        <time>2022-08-10T15:34:36Z</time>
      </trkpt>
      <trkpt lat="44.48016" lon="1.30613">
        <ele>133.8</ele>
        <time>2022-08-10T15:34:38Z</time>
      </trkpt>
      <trkpt lat="44.4801" lon="1.30603">
        <ele>133.5</ele>
        <time>2022-08-10T15:34:40Z</time>
      </trkpt>
      <trkpt lat="44.48003" lon="1.30594">
        <ele>133.3</ele>
        <time>2022-08-10T15:34:42Z</time>
      </trkpt>
      <trkpt lat="44.47995" lon="1.30584">
        <ele>132.8</ele>
        <time>2022-08-10T15:34:44Z</time>
      </trkpt>
      <trkpt lat="44.47986" lon="1.30575">
        <ele>132.4</ele>
        <time>2022-08-10T15:34:46Z</time>
      </trkpt>
      <trkpt lat="44.47977" lon="1.30564">
        <ele>132.1</ele>
        <time>2022-08-10T15:34:48Z</time>
      </trkpt>
      <trkpt lat="44.47967" lon="1.30555">
        <ele>131.8</ele>
        <time>2022-08-10T15:34:50Z</time>
      </trkpt>
      <trkpt lat="44.47957" lon="1.30545">
        <ele>131.5</ele>
        <time>2022-08-10T15:34:52Z</time>
      </trkpt>
      <trkpt lat="44.47947" lon="1.30535">
        <ele>131.2</ele>
        <time>2022-08-10T15:34:54Z</time>
      </trkpt>
      <trkpt lat="44.47937" lon="1.30525">
        <ele>131.1</ele>
        <time>2022-08-10T15:34:56Z</time>
      </trkpt>
      <trkpt lat="44.47928" lon="1.30516">
        <ele>131</ele>
        <time>2022-08-10T15:34:58Z</time>
      </trkpt>
      <trkpt lat="44.47919" lon="1.30508">
        <ele>130.9</ele>
        <time>2022-08-10T15:35:00Z</time>
      </trkpt>
      <trkpt lat="44.47911" lon="1.30501">
        <ele>131.1</ele>
        <time>2022-08-10T15:35:02Z</time>
      </trkpt>
      <trkpt lat="44.47903" lon="1.30494">
        <ele>131.2</ele>
        <time>2022-08-10T15:35:04Z</time>
      </trkpt>
      <trkpt lat="44.47896" lon="1.3049">
        <ele>131.4</ele>
        <time>2022-08-10T15:35:06Z</time>
      </trkpt>
      <trkpt lat="44.4789" lon="1.30487">
        <ele>131.5</ele>
        <time>2022-08-10T15:35:08Z</time>
      </trkpt>
      <trkpt lat="44.47883" lon="1.30484">
        <ele>131.7</ele>
        <time>2022-08-10T15:35:10Z</time>
      </trkpt>
      <trkpt lat="44.47876" lon="1.30479">
        <ele>131.9</ele>
        <time>2022-08-10T15:35:12Z</time>
      </trkpt>
      <trkpt lat="44.47869" lon="1.30475">
        <ele>132.1</ele>
        <time>2022-08-10T15:35:14Z</time>
      </trkpt>
      <trkpt lat="44.47862" lon="1.30471">
        <ele>132.2</ele>
        <time>2022-08-10T15:35:16Z</time>
      </trkpt>
      <trkpt lat="44.47856" lon="1.30467">
        <ele>132.4</ele>
        <time>2022-08-10T15:35:18Z</time>
      </trkpt>
      <trkpt lat="44.47849" lon="1.30463">
        <ele>132.6</ele>
        <time>2022-08-10T15:35:20Z</time>
      </trkpt>
      <trkpt lat="44.47844" lon="1.30458">
        <ele>132.8</ele>
        <time>2022-08-10T15:35:22Z</time>
      </trkpt>
      <trkpt lat="44.47838" lon="1.30454">
        <ele>133</ele>
        <time>2022-08-10T15:35:24Z</time>
      </trkpt>
      <trkpt lat="44.47831" lon="1.30451">
        <ele>133.3</ele>
        <time>2022-08-10T15:35:26Z</time>
      </trkpt>
      <trkpt lat="44.47826" lon="1.30446">
        <ele>133.7</ele>
        <time>2022-08-10T15:35:28Z</time>
      </trkpt>
      <trkpt lat="44.4782" lon="1.30442">
        <ele>134.1</ele>
        <time>2022-08-10T15:35:30Z</time>
      </trkpt>
      <trkpt lat="44.47816" lon="1.30434">
        <ele>134.5</ele>
        <time>2022-08-10T15:35:32Z</time>
      </trkpt>
      <trkpt lat="44.47815" lon="1.30426">
        <ele>134.7</ele>
        <time>2022-08-10T15:35:34Z</time>
      </trkpt>
      <trkpt lat="44.47815" lon="1.30417">
        <ele>134.9</ele>
        <time>2022-08-10T15:35:36Z</time>
      </trkpt>
      <trkpt lat="44.47813" lon="1.30409">
        <ele>135</ele>
        <time>2022-08-10T15:35:38Z</time>
      </trkpt>
      <trkpt lat="44.4781" lon="1.30403">
        <ele>135.2</ele>
        <time>2022-08-10T15:35:40Z</time>
      </trkpt>
      <trkpt lat="44.47806" lon="1.30398">
        <ele>135.4</ele>
        <time>2022-08-10T15:35:42Z</time>
      </trkpt>
      <trkpt lat="44.47803" lon="1.30391">
        <ele>135.5</ele>
        <time>2022-08-10T15:35:44Z</time>
      </trkpt>
      <trkpt lat="44.47801" lon="1.30382">
        <ele>135.6</ele>
        <time>2022-08-10T15:35:46Z</time>
      </trkpt>
      <trkpt lat="44.47804" lon="1.30373">
        <ele>135.6</ele>
        <time>2022-08-10T15:35:48Z</time>
      </trkpt>
      <trkpt lat="44.47805" lon="1.30363">
        <ele>135.6</ele>
        <time>2022-08-10T15:35:50Z</time>
      </trkpt>
      <trkpt lat="44.47808" lon="1.30352">
        <ele>135.5</ele>
        <time>2022-08-10T15:35:52Z</time>
      </trkpt>
      <trkpt lat="44.4781" lon="1.30341">
        <ele>135.5</ele>
        <time>2022-08-10T15:35:54Z</time>
      </trkpt>
      <trkpt lat="44.47812" lon="1.30329">
        <ele>135.6</ele>
        <time>2022-08-10T15:35:56Z</time>
      </trkpt>
      <trkpt lat="44.47815" lon="1.30317">
        <ele>135.8</ele>
        <time>2022-08-10T15:35:58Z</time>
      </trkpt>
      <trkpt lat="44.47817" lon="1.30305">
        <ele>135.9</ele>
        <time>2022-08-10T15:36:00Z</time>
      </trkpt>
      <trkpt lat="44.4782" lon="1.30293">
        <ele>136.1</ele>
        <time>2022-08-10T15:36:02Z</time>
      </trkpt>
      <trkpt lat="44.47822" lon="1.30282">
        <ele>136.1</ele>
        <time>2022-08-10T15:36:04Z</time>
      </trkpt>
      <trkpt lat="44.47824" lon="1.30269">
        <ele>136.2</ele>
        <time>2022-08-10T15:36:06Z</time>
      </trkpt>
      <trkpt lat="44.47827" lon="1.30257">
        <ele>136.3</ele>
        <time>2022-08-10T15:36:08Z</time>
      </trkpt>
      <trkpt lat="44.47828" lon="1.30244">
        <ele>136.5</ele>
        <time>2022-08-10T15:36:10Z</time>
      </trkpt>
      <trkpt lat="44.47831" lon="1.30231">
        <ele>136.8</ele>
        <time>2022-08-10T15:36:12Z</time>
      </trkpt>
      <trkpt lat="44.47833" lon="1.30219">
        <ele>137.1</ele>
        <time>2022-08-10T15:36:14Z</time>
      </trkpt>
      <trkpt lat="44.47836" lon="1.30206">
        <ele>137.5</ele>
        <time>2022-08-10T15:36:16Z</time>
      </trkpt>
      <trkpt lat="44.47839" lon="1.30193">
        <ele>137.7</ele>
        <time>2022-08-10T15:36:18Z</time>
      </trkpt>
      <trkpt lat="44.47841" lon="1.3018">
        <ele>138.1</ele>
        <time>2022-08-10T15:36:20Z</time>
      </trkpt>
      <trkpt lat="44.47844" lon="1.30168">
        <ele>138.3</ele>
        <time>2022-08-10T15:36:22Z</time>
      </trkpt>
      <trkpt lat="44.47846" lon="1.30155">
        <ele>138.5</ele>
        <time>2022-08-10T15:36:24Z</time>
      </trkpt>
      <trkpt lat="44.47849" lon="1.30142">
        <ele>138.6</ele>
        <time>2022-08-10T15:36:26Z</time>
      </trkpt>
      <trkpt lat="44.47851" lon="1.30129">
        <ele>138.7</ele>
        <time>2022-08-10T15:36:28Z</time>
      </trkpt>
      <trkpt lat="44.47854" lon="1.30117">
        <ele>138.8</ele>
        <time>2022-08-10T15:36:30Z</time>
      </trkpt>
      <trkpt lat="44.47856" lon="1.30104">
        <ele>138.9</ele>
        <time>2022-08-10T15:36:32Z</time>
      </trkpt>
      <trkpt lat="44.47858" lon="1.30092">
        <ele>139</ele>
        <time>2022-08-10T15:36:34Z</time>
      </trkpt>
      <trkpt lat="44.4786" lon="1.30081">
        <ele>139.1</ele>
        <time>2022-08-10T15:36:36Z</time>
      </trkpt>
      <trkpt lat="44.47863" lon="1.30072">
        <ele>139.2</ele>
        <time>2022-08-10T15:36:38Z</time>
      </trkpt>
      <trkpt lat="44.47865" lon="1.30063">
        <ele>139.3</ele>
        <time>2022-08-10T15:36:40Z</time>
      </trkpt>
      <trkpt lat="44.47866" lon="1.30054">
        <ele>139.4</ele>
        <time>2022-08-10T15:36:42Z</time>
      </trkpt>
      <trkpt lat="44.47867" lon="1.30046">
        <ele>139.5</ele>
        <time>2022-08-10T15:36:44Z</time>
      </trkpt>
      <trkpt lat="44.47869" lon="1.30039">
        <ele>139.6</ele>
        <time>2022-08-10T15:36:46Z</time>
      </trkpt>
      <trkpt lat="44.4787" lon="1.30033">
        <ele>139.8</ele>
        <time>2022-08-10T15:36:48Z</time>
      </trkpt>
      <trkpt lat="44.47871" lon="1.30027">
        <ele>139.9</ele>
        <time>2022-08-10T15:36:50Z</time>
      </trkpt>
      <trkpt lat="44.47872" lon="1.30021">
        <ele>140</ele>
        <time>2022-08-10T15:36:52Z</time>
      </trkpt>
      <trkpt lat="44.47873" lon="1.30015">
        <ele>140.1</ele>
        <time>2022-08-10T15:36:54Z</time>
      </trkpt>
      <trkpt lat="44.47874" lon="1.3001">
        <ele>140.2</ele>
        <time>2022-08-10T15:36:56Z</time>
      </trkpt>
      <trkpt lat="44.47876" lon="1.30004">
        <ele>140.4</ele>
        <time>2022-08-10T15:36:58Z</time>
      </trkpt>
      <trkpt lat="44.47877" lon="1.29997">
        <ele>140.5</ele>
        <time>2022-08-10T15:37:00Z</time>
      </trkpt>
      <trkpt lat="44.47878" lon="1.29992">
        <ele>140.5</ele>
        <time>2022-08-10T15:37:02Z</time>
      </trkpt>
      <trkpt lat="44.47879" lon="1.29987">
        <ele>140.5</ele>
        <time>2022-08-10T15:37:04Z</time>
      </trkpt>
      <trkpt lat="44.4788" lon="1.29981">
        <ele>140.6</ele>
        <time>2022-08-10T15:37:06Z</time>
      </trkpt>
      <trkpt lat="44.47881" lon="1.29976">
        <ele>140.7</ele>
        <time>2022-08-10T15:37:08Z</time>
      </trkpt>
      <trkpt lat="44.47882" lon="1.2997">
        <ele>140.7</ele>
        <time>2022-08-10T15:37:10Z</time>
      </trkpt>
      <trkpt lat="44.47883" lon="1.29964">
        <ele>140.8</ele>
        <time>2022-08-10T15:37:12Z</time>
      </trkpt>
      <trkpt lat="44.47883" lon="1.29958">
        <ele>140.9</ele>
        <time>2022-08-10T15:37:14Z</time>
      </trkpt>
      <trkpt lat="44.47883" lon="1.29953">
        <ele>141</ele>
        <time>2022-08-10T15:37:16Z</time>
      </trkpt>
      <trkpt lat="44.47884" lon="1.29947">
        <ele>141.1</ele>
        <time>2022-08-10T15:37:18Z</time>
      </trkpt>
      <trkpt lat="44.47885" lon="1.29939">
        <ele>141.2</ele>
        <time>2022-08-10T15:37:20Z</time>
      </trkpt>
      <trkpt lat="44.47885" lon="1.29932">
        <ele>141.3</ele>
        <time>2022-08-10T15:37:22Z</time>
      </trkpt>
      <trkpt lat="44.47886" lon="1.29925">
        <ele>141.5</ele>
        <time>2022-08-10T15:37:24Z</time>
      </trkpt>
      <trkpt lat="44.47885" lon="1.29919">
        <ele>141.6</ele>
        <time>2022-08-10T15:37:26Z</time>
      </trkpt>
      <trkpt lat="44.47885" lon="1.29911">
        <ele>141.4</ele>
        <time>2022-08-10T15:37:28Z</time>
      </trkpt>
      <trkpt lat="44.47886" lon="1.29903">
        <ele>141</ele>
        <time>2022-08-10T15:37:30Z</time>
      </trkpt>
      <trkpt lat="44.47885" lon="1.29893">
        <ele>140.6</ele>
        <time>2022-08-10T15:37:32Z</time>
      </trkpt>
      <trkpt lat="44.47885" lon="1.29883">
        <ele>140.1</ele>
        <time>2022-08-10T15:37:34Z</time>
      </trkpt>
      <trkpt lat="44.47884" lon="1.29871">
        <ele>139.5</ele>
        <time>2022-08-10T15:37:36Z</time>
      </trkpt>
      <trkpt lat="44.47884" lon="1.2986">
        <ele>139</ele>
        <time>2022-08-10T15:37:38Z</time>
      </trkpt>
      <trkpt lat="44.47884" lon="1.29847">
        <ele>138.4</ele>
        <time>2022-08-10T15:37:40Z</time>
      </trkpt>
      <trkpt lat="44.47884" lon="1.29835">
        <ele>137.9</ele>
        <time>2022-08-10T15:37:42Z</time>
      </trkpt>
      <trkpt lat="44.47884" lon="1.29822">
        <ele>136.7</ele>
        <time>2022-08-10T15:37:44Z</time>
      </trkpt>
      <trkpt lat="44.47887" lon="1.29809">
        <ele>135.6</ele>
        <time>2022-08-10T15:37:46Z</time>
      </trkpt>
      <trkpt lat="44.47892" lon="1.29795">
        <ele>134.5</ele>
        <time>2022-08-10T15:37:48Z</time>
      </trkpt>
      <trkpt lat="44.47898" lon="1.29782">
        <ele>133.6</ele>
        <time>2022-08-10T15:37:50Z</time>
      </trkpt>
      <trkpt lat="44.47906" lon="1.29767">
        <ele>132.7</ele>
        <time>2022-08-10T15:37:52Z</time>
      </trkpt>
      <trkpt lat="44.47914" lon="1.29751">
        <ele>131.9</ele>
        <time>2022-08-10T15:37:54Z</time>
      </trkpt>
      <trkpt lat="44.47923" lon="1.29735">
        <ele>130.7</ele>
        <time>2022-08-10T15:37:56Z</time>
      </trkpt>
      <trkpt lat="44.47932" lon="1.2972">
        <ele>129.4</ele>
        <time>2022-08-10T15:37:58Z</time>
      </trkpt>
      <trkpt lat="44.47942" lon="1.29705">
        <ele>128.2</ele>
        <time>2022-08-10T15:38:00Z</time>
      </trkpt>
      <trkpt lat="44.47953" lon="1.29689">
        <ele>127</ele>
        <time>2022-08-10T15:38:02Z</time>
      </trkpt>
      <trkpt lat="44.47962" lon="1.29673">
        <ele>125.6</ele>
        <time>2022-08-10T15:38:04Z</time>
      </trkpt>
      <trkpt lat="44.47971" lon="1.29658">
        <ele>124.8</ele>
        <time>2022-08-10T15:38:06Z</time>
      </trkpt>
      <trkpt lat="44.47975" lon="1.29642">
        <ele>124.2</ele>
        <time>2022-08-10T15:38:08Z</time>
      </trkpt>
      <trkpt lat="44.47976" lon="1.29625">
        <ele>123.3</ele>
        <time>2022-08-10T15:38:10Z</time>
      </trkpt>
      <trkpt lat="44.47978" lon="1.29603">
        <ele>122.1</ele>
        <time>2022-08-10T15:38:12Z</time>
      </trkpt>
      <trkpt lat="44.47979" lon="1.29584">
        <ele>121</ele>
        <time>2022-08-10T15:38:14Z</time>
      </trkpt>
      <trkpt lat="44.4798" lon="1.29566">
        <ele>122.2</ele>
        <time>2022-08-10T15:38:16Z</time>
      </trkpt>
      <trkpt lat="44.47982" lon="1.2955">
        <ele>123.1</ele>
        <time>2022-08-10T15:38:18Z</time>
      </trkpt>
      <trkpt lat="44.47988" lon="1.2954">
        <ele>123.7</ele>
        <time>2022-08-10T15:38:20Z</time>
      </trkpt>
      <trkpt lat="44.47994" lon="1.29539">
        <ele>123.8</ele>
        <time>2022-08-10T15:38:22Z</time>
      </trkpt>
      <trkpt lat="44.48" lon="1.29539">
        <ele>123.6</ele>
        <time>2022-08-10T15:38:24Z</time>
      </trkpt>
      <trkpt lat="44.48007" lon="1.29541">
        <ele>123.7</ele>
        <time>2022-08-10T15:38:26Z</time>
      </trkpt>
      <trkpt lat="44.48013" lon="1.29542">
        <ele>123.8</ele>
        <time>2022-08-10T15:38:28Z</time>
      </trkpt>
      <trkpt lat="44.4802" lon="1.29542">
        <ele>123.9</ele>
        <time>2022-08-10T15:38:30Z</time>
      </trkpt>
      <trkpt lat="44.48028" lon="1.29543">
        <ele>124.1</ele>
        <time>2022-08-10T15:38:32Z</time>
      </trkpt>
      <trkpt lat="44.48034" lon="1.29544">
        <ele>124.2</ele>
        <time>2022-08-10T15:38:34Z</time>
      </trkpt>
      <trkpt lat="44.4804" lon="1.29545">
        <ele>124.3</ele>
        <time>2022-08-10T15:38:36Z</time>
      </trkpt>
      <trkpt lat="44.48046" lon="1.29545">
        <ele>124.5</ele>
        <time>2022-08-10T15:38:38Z</time>
      </trkpt>
      <trkpt lat="44.48053" lon="1.29546">
        <ele>124.6</ele>
        <time>2022-08-10T15:38:40Z</time>
      </trkpt>
      <trkpt lat="44.4806" lon="1.29547">
        <ele>124.7</ele>
        <time>2022-08-10T15:38:42Z</time>
      </trkpt>
      <trkpt lat="44.48066" lon="1.29547">
        <ele>124.9</ele>
        <time>2022-08-10T15:38:44Z</time>
      </trkpt>
      <trkpt lat="44.48072" lon="1.29547">
        <ele>125</ele>
        <time>2022-08-10T15:38:46Z</time>
      </trkpt>
      <trkpt lat="44.48078" lon="1.29547">
        <ele>125.2</ele>
        <time>2022-08-10T15:38:48Z</time>
      </trkpt>
      <trkpt lat="44.48084" lon="1.29548">
        <ele>125.3</ele>
        <time>2022-08-10T15:38:50Z</time>
      </trkpt>
      <trkpt lat="44.48089" lon="1.29548">
        <ele>125.4</ele>
        <time>2022-08-10T15:38:52Z</time>
      </trkpt>
      <trkpt lat="44.48095" lon="1.29549">
        <ele>125.5</ele>
        <time>2022-08-10T15:38:54Z</time>
      </trkpt>
      <trkpt lat="44.48101" lon="1.29549">
        <ele>125.6</ele>
        <time>2022-08-10T15:38:56Z</time>
      </trkpt>
      <trkpt lat="44.48106" lon="1.2955">
        <ele>125.6</ele>
        <time>2022-08-10T15:38:58Z</time>
      </trkpt>
      <trkpt lat="44.48112" lon="1.2955">
        <ele>125.7</ele>
        <time>2022-08-10T15:39:00Z</time>
      </trkpt>
      <trkpt lat="44.48117" lon="1.29551">
        <ele>125.8</ele>
        <time>2022-08-10T15:39:02Z</time>
      </trkpt>
      <trkpt lat="44.48123" lon="1.2955">
        <ele>126</ele>
        <time>2022-08-10T15:39:04Z</time>
      </trkpt>
      <trkpt lat="44.48129" lon="1.2955">
        <ele>126.1</ele>
        <time>2022-08-10T15:39:06Z</time>
      </trkpt>
      <trkpt lat="44.48135" lon="1.2955">
        <ele>126.2</ele>
        <time>2022-08-10T15:39:08Z</time>
      </trkpt>
      <trkpt lat="44.4814" lon="1.2955">
        <ele>126.3</ele>
        <time>2022-08-10T15:39:10Z</time>
      </trkpt>
      <trkpt lat="44.48146" lon="1.2955">
        <ele>126.4</ele>
        <time>2022-08-10T15:39:12Z</time>
      </trkpt>
      <trkpt lat="44.4815" lon="1.29549">
        <ele>126.5</ele>
        <time>2022-08-10T15:39:14Z</time>
      </trkpt>
      <trkpt lat="44.48155" lon="1.29549">
        <ele>126.6</ele>
        <time>2022-08-10T15:39:16Z</time>
      </trkpt>
      <trkpt lat="44.48161" lon="1.29549">
        <ele>126.7</ele>
        <time>2022-08-10T15:39:18Z</time>
      </trkpt>
      <trkpt lat="44.48166" lon="1.2955">
        <ele>126.8</ele>
        <time>2022-08-10T15:39:20Z</time>
      </trkpt>
      <trkpt lat="44.48171" lon="1.2955">
        <ele>126.8</ele>
        <time>2022-08-10T15:39:22Z</time>
      </trkpt>
      <trkpt lat="44.48177" lon="1.2955">
        <ele>126.9</ele>
        <time>2022-08-10T15:39:24Z</time>
      </trkpt>
      <trkpt lat="44.48182" lon="1.29551">
        <ele>126.9</ele>
        <time>2022-08-10T15:39:26Z</time>
      </trkpt>
      <trkpt lat="44.48188" lon="1.29552">
        <ele>126.9</ele>
        <time>2022-08-10T15:39:28Z</time>
      </trkpt>
      <trkpt lat="44.48194" lon="1.29554">
        <ele>126.9</ele>
        <time>2022-08-10T15:39:30Z</time>
      </trkpt>
      <trkpt lat="44.482" lon="1.29557">
        <ele>126.9</ele>
        <time>2022-08-10T15:39:32Z</time>
      </trkpt>
      <trkpt lat="44.48205" lon="1.29559">
        <ele>126.9</ele>
        <time>2022-08-10T15:39:34Z</time>
      </trkpt>
      <trkpt lat="44.48211" lon="1.29563">
        <ele>126.9</ele>
        <time>2022-08-10T15:39:36Z</time>
      </trkpt>
      <trkpt lat="44.48216" lon="1.29567">
        <ele>126.9</ele>
        <time>2022-08-10T15:39:38Z</time>
      </trkpt>
      <trkpt lat="44.48222" lon="1.29571">
        <ele>126.9</ele>
        <time>2022-08-10T15:39:40Z</time>
      </trkpt>
      <trkpt lat="44.48227" lon="1.29575">
        <ele>126.9</ele>
        <time>2022-08-10T15:39:42Z</time>
      </trkpt>
      <trkpt lat="44.48232" lon="1.29579">
        <ele>126.8</ele>
        <time>2022-08-10T15:39:44Z</time>
      </trkpt>
      <trkpt lat="44.48237" lon="1.29582">
        <ele>126.9</ele>
        <time>2022-08-10T15:39:46Z</time>
      </trkpt>
      <trkpt lat="44.48243" lon="1.29585">
        <ele>126.9</ele>
        <time>2022-08-10T15:39:48Z</time>
      </trkpt>
      <trkpt lat="44.48249" lon="1.29586">
        <ele>126.9</ele>
        <time>2022-08-10T15:39:50Z</time>
      </trkpt>
      <trkpt lat="44.48255" lon="1.29583">
        <ele>127.1</ele>
        <time>2022-08-10T15:39:52Z</time>
      </trkpt>
      <trkpt lat="44.48258" lon="1.29576">
        <ele>127.3</ele>
        <time>2022-08-10T15:39:54Z</time>
      </trkpt>
      <trkpt lat="44.48261" lon="1.29568">
        <ele>127.4</ele>
        <time>2022-08-10T15:39:56Z</time>
      </trkpt>
      <trkpt lat="44.48262" lon="1.2956">
        <ele>127.4</ele>
        <time>2022-08-10T15:39:58Z</time>
      </trkpt>
      <trkpt lat="44.48263" lon="1.29551">
        <ele>127.5</ele>
        <time>2022-08-10T15:40:00Z</time>
      </trkpt>
      <trkpt lat="44.48264" lon="1.29541">
        <ele>127.6</ele>
        <time>2022-08-10T15:40:02Z</time>
      </trkpt>
      <trkpt lat="44.48265" lon="1.2953">
        <ele>127.7</ele>
        <time>2022-08-10T15:40:04Z</time>
      </trkpt>
      <trkpt lat="44.48266" lon="1.29517">
        <ele>127.7</ele>
        <time>2022-08-10T15:40:06Z</time>
      </trkpt>
      <trkpt lat="44.48267" lon="1.29503">
        <ele>127.8</ele>
        <time>2022-08-10T15:40:08Z</time>
      </trkpt>
      <trkpt lat="44.48268" lon="1.2949">
        <ele>127.4</ele>
        <time>2022-08-10T15:40:10Z</time>
      </trkpt>
      <trkpt lat="44.48269" lon="1.29478">
        <ele>127</ele>
        <time>2022-08-10T15:40:12Z</time>
      </trkpt>
      <trkpt lat="44.48269" lon="1.29466">
        <ele>126.6</ele>
        <time>2022-08-10T15:40:14Z</time>
      </trkpt>
      <trkpt lat="44.48269" lon="1.29455">
        <ele>126.2</ele>
        <time>2022-08-10T15:40:16Z</time>
      </trkpt>
      <trkpt lat="44.48268" lon="1.29443">
        <ele>125.8</ele>
        <time>2022-08-10T15:40:18Z</time>
      </trkpt>
      <trkpt lat="44.48266" lon="1.2943">
        <ele>125.2</ele>
        <time>2022-08-10T15:40:20Z</time>
      </trkpt>
      <trkpt lat="44.48262" lon="1.29418">
        <ele>124.6</ele>
        <time>2022-08-10T15:40:22Z</time>
      </trkpt>
      <trkpt lat="44.4826" lon="1.29402">
        <ele>123.8</ele>
        <time>2022-08-10T15:40:24Z</time>
      </trkpt>
      <trkpt lat="44.48256" lon="1.29387">
        <ele>123</ele>
        <time>2022-08-10T15:40:26Z</time>
      </trkpt>
      <trkpt lat="44.48253" lon="1.29371">
        <ele>122</ele>
        <time>2022-08-10T15:40:28Z</time>
      </trkpt>
      <trkpt lat="44.4825" lon="1.29358">
        <ele>121.2</ele>
        <time>2022-08-10T15:40:30Z</time>
      </trkpt>
      <trkpt lat="44.48248" lon="1.29343">
        <ele>120.5</ele>
        <time>2022-08-10T15:40:32Z</time>
      </trkpt>
      <trkpt lat="44.48243" lon="1.29329">
        <ele>119.7</ele>
        <time>2022-08-10T15:40:34Z</time>
      </trkpt>
      <trkpt lat="44.4824" lon="1.29313">
        <ele>118.5</ele>
        <time>2022-08-10T15:40:36Z</time>
      </trkpt>
      <trkpt lat="44.48236" lon="1.29297">
        <ele>117.2</ele>
        <time>2022-08-10T15:40:38Z</time>
      </trkpt>
      <trkpt lat="44.48231" lon="1.29279">
        <ele>115.6</ele>
        <time>2022-08-10T15:40:40Z</time>
      </trkpt>
      <trkpt lat="44.48227" lon="1.2926">
        <ele>114</ele>
        <time>2022-08-10T15:40:42Z</time>
      </trkpt>
      <trkpt lat="44.48222" lon="1.29242">
        <ele>112.6</ele>
        <time>2022-08-10T15:40:44Z</time>
      </trkpt>
      <trkpt lat="44.48218" lon="1.29226">
        <ele>111.7</ele>
        <time>2022-08-10T15:40:46Z</time>
      </trkpt>
      <trkpt lat="44.48217" lon="1.29214">
        <ele>111.1</ele>
        <time>2022-08-10T15:40:48Z</time>
      </trkpt>
      <trkpt lat="44.48222" lon="1.29203">
        <ele>110.7</ele>
        <time>2022-08-10T15:40:50Z</time>
      </trkpt>
      <trkpt lat="44.4823" lon="1.29202">
        <ele>111</ele>
        <time>2022-08-10T15:40:52Z</time>
      </trkpt>
      <trkpt lat="44.48237" lon="1.29201">
        <ele>111.2</ele>
        <time>2022-08-10T15:40:54Z</time>
      </trkpt>
      <trkpt lat="44.48244" lon="1.29198">
        <ele>111.3</ele>
        <time>2022-08-10T15:40:56Z</time>
      </trkpt>
      <trkpt lat="44.48251" lon="1.29196">
        <ele>111.5</ele>
        <time>2022-08-10T15:40:58Z</time>
      </trkpt>
      <trkpt lat="44.48258" lon="1.29192">
        <ele>111.6</ele>
        <time>2022-08-10T15:41:00Z</time>
      </trkpt>
      <trkpt lat="44.48266" lon="1.29188">
        <ele>111.8</ele>
        <time>2022-08-10T15:41:02Z</time>
      </trkpt>
      <trkpt lat="44.48272" lon="1.29189">
        <ele>112.1</ele>
        <time>2022-08-10T15:41:04Z</time>
      </trkpt>
      <trkpt lat="44.48278" lon="1.29189">
        <ele>112.5</ele>
        <time>2022-08-10T15:41:06Z</time>
      </trkpt>
      <trkpt lat="44.48284" lon="1.29189">
        <ele>112.8</ele>
        <time>2022-08-10T15:41:08Z</time>
      </trkpt>
      <trkpt lat="44.48291" lon="1.29186">
        <ele>112.8</ele>
        <time>2022-08-10T15:41:10Z</time>
      </trkpt>
      <trkpt lat="44.48297" lon="1.29184">
        <ele>112.9</ele>
        <time>2022-08-10T15:41:12Z</time>
      </trkpt>
      <trkpt lat="44.48303" lon="1.2918">
        <ele>112.8</ele>
        <time>2022-08-10T15:41:14Z</time>
      </trkpt>
      <trkpt lat="44.48308" lon="1.29177">
        <ele>112.6</ele>
        <time>2022-08-10T15:41:16Z</time>
      </trkpt>
      <trkpt lat="44.48312" lon="1.29176">
        <ele>112.6</ele>
        <time>2022-08-10T15:41:18Z</time>
      </trkpt>
      <trkpt lat="44.48317" lon="1.29173">
        <ele>112.4</ele>
        <time>2022-08-10T15:41:20Z</time>
      </trkpt>
      <trkpt lat="44.48323" lon="1.29171">
        <ele>112.3</ele>
        <time>2022-08-10T15:41:22Z</time>
      </trkpt>
      <trkpt lat="44.4833" lon="1.29167">
        <ele>112</ele>
        <time>2022-08-10T15:41:24Z</time>
      </trkpt>
      <trkpt lat="44.48336" lon="1.29164">
        <ele>112</ele>
        <time>2022-08-10T15:41:26Z</time>
      </trkpt>
      <trkpt lat="44.48343" lon="1.29161">
        <ele>112</ele>
        <time>2022-08-10T15:41:28Z</time>
      </trkpt>
      <trkpt lat="44.48349" lon="1.29159">
        <ele>112.1</ele>
        <time>2022-08-10T15:41:30Z</time>
      </trkpt>
      <trkpt lat="44.48356" lon="1.29155">
        <ele>112.2</ele>
        <time>2022-08-10T15:41:32Z</time>
      </trkpt>
      <trkpt lat="44.48363" lon="1.29152">
        <ele>112.2</ele>
        <time>2022-08-10T15:41:34Z</time>
      </trkpt>
      <trkpt lat="44.48369" lon="1.2915">
        <ele>112.2</ele>
        <time>2022-08-10T15:41:36Z</time>
      </trkpt>
      <trkpt lat="44.48376" lon="1.29147">
        <ele>112.2</ele>
        <time>2022-08-10T15:41:38Z</time>
      </trkpt>
      <trkpt lat="44.48383" lon="1.29144">
        <ele>112.2</ele>
        <time>2022-08-10T15:41:40Z</time>
      </trkpt>
      <trkpt lat="44.48389" lon="1.29141">
        <ele>112.2</ele>
        <time>2022-08-10T15:41:42Z</time>
      </trkpt>
      <trkpt lat="44.48396" lon="1.29138">
        <ele>112.2</ele>
        <time>2022-08-10T15:41:44Z</time>
      </trkpt>
      <trkpt lat="44.48402" lon="1.29136">
        <ele>112.2</ele>
        <time>2022-08-10T15:41:46Z</time>
      </trkpt>
      <trkpt lat="44.48409" lon="1.29131">
        <ele>111.9</ele>
        <time>2022-08-10T15:41:48Z</time>
      </trkpt>
      <trkpt lat="44.48416" lon="1.29128">
        <ele>111.8</ele>
        <time>2022-08-10T15:41:50Z</time>
      </trkpt>
      <trkpt lat="44.48423" lon="1.29127">
        <ele>111.6</ele>
        <time>2022-08-10T15:41:52Z</time>
      </trkpt>
      <trkpt lat="44.48431" lon="1.29128">
        <ele>111.6</ele>
        <time>2022-08-10T15:41:54Z</time>
      </trkpt>
      <trkpt lat="44.48438" lon="1.2913">
        <ele>111.6</ele>
        <time>2022-08-10T15:41:56Z</time>
      </trkpt>
      <trkpt lat="44.48444" lon="1.29132">
        <ele>111.7</ele>
        <time>2022-08-10T15:41:58Z</time>
      </trkpt>
      <trkpt lat="44.4845" lon="1.29135">
        <ele>111.8</ele>
        <time>2022-08-10T15:42:00Z</time>
      </trkpt>
      <trkpt lat="44.48456" lon="1.29137">
        <ele>111.9</ele>
        <time>2022-08-10T15:42:02Z</time>
      </trkpt>
      <trkpt lat="44.48462" lon="1.2914">
        <ele>112</ele>
        <time>2022-08-10T15:42:04Z</time>
      </trkpt>
      <trkpt lat="44.48468" lon="1.29142">
        <ele>112</ele>
        <time>2022-08-10T15:42:06Z</time>
      </trkpt>
      <trkpt lat="44.48474" lon="1.29144">
        <ele>112</ele>
        <time>2022-08-10T15:42:08Z</time>
      </trkpt>
      <trkpt lat="44.4848" lon="1.29145">
        <ele>112</ele>
        <time>2022-08-10T15:42:10Z</time>
      </trkpt>
      <trkpt lat="44.48486" lon="1.29148">
        <ele>112</ele>
        <time>2022-08-10T15:42:12Z</time>
      </trkpt>
      <trkpt lat="44.48492" lon="1.29152">
        <ele>112.2</ele>
        <time>2022-08-10T15:42:14Z</time>
      </trkpt>
      <trkpt lat="44.48498" lon="1.29157">
        <ele>112.3</ele>
        <time>2022-08-10T15:42:16Z</time>
      </trkpt>
      <trkpt lat="44.48504" lon="1.29162">
        <ele>112.5</ele>
        <time>2022-08-10T15:42:18Z</time>
      </trkpt>
      <trkpt lat="44.4851" lon="1.29167">
        <ele>112.8</ele>
        <time>2022-08-10T15:42:20Z</time>
      </trkpt>
      <trkpt lat="44.48516" lon="1.29172">
        <ele>113.2</ele>
        <time>2022-08-10T15:42:22Z</time>
      </trkpt>
      <trkpt lat="44.48522" lon="1.29178">
        <ele>113.6</ele>
        <time>2022-08-10T15:42:24Z</time>
      </trkpt>
      <trkpt lat="44.48528" lon="1.29183">
        <ele>113.8</ele>
        <time>2022-08-10T15:42:26Z</time>
      </trkpt>
      <trkpt lat="44.48534" lon="1.29189">
        <ele>114</ele>
        <time>2022-08-10T15:42:28Z</time>
      </trkpt>
      <trkpt lat="44.4854" lon="1.29194">
        <ele>114.1</ele>
        <time>2022-08-10T15:42:30Z</time>
      </trkpt>
      <trkpt lat="44.48546" lon="1.292">
        <ele>114.1</ele>
        <time>2022-08-10T15:42:32Z</time>
      </trkpt>
      <trkpt lat="44.48552" lon="1.29207">
        <ele>114.1</ele>
        <time>2022-08-10T15:42:34Z</time>
      </trkpt>
      <trkpt lat="44.48558" lon="1.29214">
        <ele>113.9</ele>
        <time>2022-08-10T15:42:36Z</time>
      </trkpt>
      <trkpt lat="44.48564" lon="1.29222">
        <ele>113.7</ele>
        <time>2022-08-10T15:42:38Z</time>
      </trkpt>
      <trkpt lat="44.4857" lon="1.2923">
        <ele>113.3</ele>
        <time>2022-08-10T15:42:40Z</time>
      </trkpt>
      <trkpt lat="44.48576" lon="1.29238">
        <ele>112.8</ele>
        <time>2022-08-10T15:42:42Z</time>
      </trkpt>
      <trkpt lat="44.48582" lon="1.29246">
        <ele>112.1</ele>
        <time>2022-08-10T15:42:44Z</time>
      </trkpt>
      <trkpt lat="44.48588" lon="1.29254">
        <ele>112</ele>
        <time>2022-08-10T15:42:46Z</time>
      </trkpt>
      <trkpt lat="44.48595" lon="1.29262">
        <ele>112</ele>
        <time>2022-08-10T15:42:48Z</time>
      </trkpt>
      <trkpt lat="44.48602" lon="1.2927">
        <ele>112</ele>
        <time>2022-08-10T15:42:50Z</time>
      </trkpt>
      <trkpt lat="44.48608" lon="1.29277">
        <ele>112</ele>
        <time>2022-08-10T15:42:52Z</time>
      </trkpt>
      <trkpt lat="44.48614" lon="1.29284">
        <ele>112</ele>
        <time>2022-08-10T15:42:54Z</time>
      </trkpt>
      <trkpt lat="44.4862" lon="1.29291">
        <ele>111.9</ele>
        <time>2022-08-10T15:42:56Z</time>
      </trkpt>
      <trkpt lat="44.48627" lon="1.29298">
        <ele>111.9</ele>
        <time>2022-08-10T15:42:58Z</time>
      </trkpt>
      <trkpt lat="44.48633" lon="1.29306">
        <ele>111.9</ele>
        <time>2022-08-10T15:43:00Z</time>
      </trkpt>
      <trkpt lat="44.48639" lon="1.29313">
        <ele>111.8</ele>
        <time>2022-08-10T15:43:02Z</time>
      </trkpt>
      <trkpt lat="44.48645" lon="1.29321">
        <ele>111.8</ele>
        <time>2022-08-10T15:43:04Z</time>
      </trkpt>
      <trkpt lat="44.48651" lon="1.29327">
        <ele>111.7</ele>
        <time>2022-08-10T15:43:06Z</time>
      </trkpt>
      <trkpt lat="44.48657" lon="1.29334">
        <ele>111.6</ele>
        <time>2022-08-10T15:43:08Z</time>
      </trkpt>
      <trkpt lat="44.48663" lon="1.29341">
        <ele>111.5</ele>
        <time>2022-08-10T15:43:10Z</time>
      </trkpt>
      <trkpt lat="44.48668" lon="1.29348">
        <ele>111.5</ele>
        <time>2022-08-10T15:43:12Z</time>
      </trkpt>
      <trkpt lat="44.48673" lon="1.29356">
        <ele>111.5</ele>
        <time>2022-08-10T15:43:14Z</time>
      </trkpt>
      <trkpt lat="44.48679" lon="1.29362">
        <ele>111.4</ele>
        <time>2022-08-10T15:43:16Z</time>
      </trkpt>
      <trkpt lat="44.48686" lon="1.2937">
        <ele>111.3</ele>
        <time>2022-08-10T15:43:18Z</time>
      </trkpt>
      <trkpt lat="44.48692" lon="1.29378">
        <ele>111.2</ele>
        <time>2022-08-10T15:43:20Z</time>
      </trkpt>
      <trkpt lat="44.48698" lon="1.29387">
        <ele>111.2</ele>
        <time>2022-08-10T15:43:22Z</time>
      </trkpt>
      <trkpt lat="44.48705" lon="1.29396">
        <ele>111.1</ele>
        <time>2022-08-10T15:43:24Z</time>
      </trkpt>
      <trkpt lat="44.48712" lon="1.29404">
        <ele>110.9</ele>
        <time>2022-08-10T15:43:26Z</time>
      </trkpt>
      <trkpt lat="44.48722" lon="1.29404">
        <ele>110.3</ele>
        <time>2022-08-10T15:43:28Z</time>
      </trkpt>
      <trkpt lat="44.4873" lon="1.29397">
        <ele>109.7</ele>
        <time>2022-08-10T15:43:30Z</time>
      </trkpt>
      <trkpt lat="44.48733" lon="1.29385">
        <ele>109.2</ele>
        <time>2022-08-10T15:43:32Z</time>
      </trkpt>
      <trkpt lat="44.48736" lon="1.29374">
        <ele>108.7</ele>
        <time>2022-08-10T15:43:34Z</time>
      </trkpt>
      <trkpt lat="44.4874" lon="1.29365">
        <ele>108.3</ele>
        <time>2022-08-10T15:43:36Z</time>
      </trkpt>
      <trkpt lat="44.48744" lon="1.29354">
        <ele>107.8</ele>
        <time>2022-08-10T15:43:38Z</time>
      </trkpt>
      <trkpt lat="44.48749" lon="1.29346">
        <ele>107.3</ele>
        <time>2022-08-10T15:43:40Z</time>
      </trkpt>
      <trkpt lat="44.48754" lon="1.29336">
        <ele>106.8</ele>
        <time>2022-08-10T15:43:42Z</time>
      </trkpt>
      <trkpt lat="44.4876" lon="1.29327">
        <ele>106.6</ele>
        <time>2022-08-10T15:43:44Z</time>
      </trkpt>
      <trkpt lat="44.48765" lon="1.29317">
        <ele>106.5</ele>
        <time>2022-08-10T15:43:46Z</time>
      </trkpt>
      <trkpt lat="44.4877" lon="1.29307">
        <ele>106.3</ele>
        <time>2022-08-10T15:43:48Z</time>
      </trkpt>
      <trkpt lat="44.48773" lon="1.29296">
        <ele>106.3</ele>
        <time>2022-08-10T15:43:50Z</time>
      </trkpt>
      <trkpt lat="44.48778" lon="1.29286">
        <ele>106.2</ele>
        <time>2022-08-10T15:43:52Z</time>
      </trkpt>
      <trkpt lat="44.48782" lon="1.29276">
        <ele>106.2</ele>
        <time>2022-08-10T15:43:54Z</time>
      </trkpt>
      <trkpt lat="44.48785" lon="1.29265">
        <ele>106.1</ele>
        <time>2022-08-10T15:43:56Z</time>
      </trkpt>
      <trkpt lat="44.48787" lon="1.29254">
        <ele>106.2</ele>
        <time>2022-08-10T15:43:58Z</time>
      </trkpt>
      <trkpt lat="44.4879" lon="1.29242">
        <ele>106.1</ele>
        <time>2022-08-10T15:44:00Z</time>
      </trkpt>
      <trkpt lat="44.48792" lon="1.2923">
        <ele>106.1</ele>
        <time>2022-08-10T15:44:02Z</time>
      </trkpt>
      <trkpt lat="44.48795" lon="1.29218">
        <ele>106.1</ele>
        <time>2022-08-10T15:44:04Z</time>
      </trkpt>
      <trkpt lat="44.48798" lon="1.29205">
        <ele>106</ele>
        <time>2022-08-10T15:44:06Z</time>
      </trkpt>
      <trkpt lat="44.48801" lon="1.29193">
        <ele>106</ele>
        <time>2022-08-10T15:44:08Z</time>
      </trkpt>
      <trkpt lat="44.48803" lon="1.2918">
        <ele>106</ele>
        <time>2022-08-10T15:44:10Z</time>
      </trkpt>
      <trkpt lat="44.48806" lon="1.29166">
        <ele>106</ele>
        <time>2022-08-10T15:44:12Z</time>
      </trkpt>
      <trkpt lat="44.48808" lon="1.29152">
        <ele>105.8</ele>
        <time>2022-08-10T15:44:14Z</time>
      </trkpt>
      <trkpt lat="44.48809" lon="1.29138">
        <ele>105.6</ele>
        <time>2022-08-10T15:44:16Z</time>
      </trkpt>
      <trkpt lat="44.48807" lon="1.29124">
        <ele>105.6</ele>
        <time>2022-08-10T15:44:18Z</time>
      </trkpt>
      <trkpt lat="44.48806" lon="1.2911">
        <ele>105.5</ele>
        <time>2022-08-10T15:44:20Z</time>
      </trkpt>
      <trkpt lat="44.48802" lon="1.29097">
        <ele>105.6</ele>
        <time>2022-08-10T15:44:22Z</time>
      </trkpt>
      <trkpt lat="44.48799" lon="1.29086">
        <ele>105.7</ele>
        <time>2022-08-10T15:44:24Z</time>
      </trkpt>
      <trkpt lat="44.48795" lon="1.29074">
        <ele>105.7</ele>
        <time>2022-08-10T15:44:26Z</time>
      </trkpt>
      <trkpt lat="44.48791" lon="1.29062">
        <ele>105.8</ele>
        <time>2022-08-10T15:44:28Z</time>
      </trkpt>
      <trkpt lat="44.48787" lon="1.29051">
        <ele>105.8</ele>
        <time>2022-08-10T15:44:30Z</time>
      </trkpt>
      <trkpt lat="44.48783" lon="1.2904">
        <ele>105.9</ele>
        <time>2022-08-10T15:44:32Z</time>
      </trkpt>
      <trkpt lat="44.48778" lon="1.2903">
        <ele>106</ele>
        <time>2022-08-10T15:44:34Z</time>
      </trkpt>
      <trkpt lat="44.48772" lon="1.2902">
        <ele>106.2</ele>
        <time>2022-08-10T15:44:36Z</time>
      </trkpt>
      <trkpt lat="44.48766" lon="1.29012">
        <ele>106.3</ele>
        <time>2022-08-10T15:44:38Z</time>
      </trkpt>
      <trkpt lat="44.4876" lon="1.29004">
        <ele>106.6</ele>
        <time>2022-08-10T15:44:40Z</time>
      </trkpt>
      <trkpt lat="44.48753" lon="1.28998">
        <ele>106.8</ele>
        <time>2022-08-10T15:44:42Z</time>
      </trkpt>
      <trkpt lat="44.48746" lon="1.28993">
        <ele>107.1</ele>
        <time>2022-08-10T15:44:44Z</time>
      </trkpt>
      <trkpt lat="44.48738" lon="1.2899">
        <ele>107.2</ele>
        <time>2022-08-10T15:44:46Z</time>
      </trkpt>
      <trkpt lat="44.48731" lon="1.28986">
        <ele>107.4</ele>
        <time>2022-08-10T15:44:48Z</time>
      </trkpt>
      <trkpt lat="44.48723" lon="1.28981">
        <ele>107.5</ele>
        <time>2022-08-10T15:44:50Z</time>
      </trkpt>
      <trkpt lat="44.48716" lon="1.28977">
        <ele>107.6</ele>
        <time>2022-08-10T15:44:52Z</time>
      </trkpt>
      <trkpt lat="44.48708" lon="1.28974">
        <ele>107.7</ele>
        <time>2022-08-10T15:44:54Z</time>
      </trkpt>
      <trkpt lat="44.487" lon="1.28968">
        <ele>107.7</ele>
        <time>2022-08-10T15:44:56Z</time>
      </trkpt>
      <trkpt lat="44.48692" lon="1.28962">
        <ele>107.8</ele>
        <time>2022-08-10T15:44:58Z</time>
      </trkpt>
      <trkpt lat="44.48683" lon="1.28954">
        <ele>107.7</ele>
        <time>2022-08-10T15:45:00Z</time>
      </trkpt>
      <trkpt lat="44.48675" lon="1.28943">
        <ele>107.6</ele>
        <time>2022-08-10T15:45:02Z</time>
      </trkpt>
      <trkpt lat="44.48667" lon="1.2893">
        <ele>107.3</ele>
        <time>2022-08-10T15:45:04Z</time>
      </trkpt>
      <trkpt lat="44.48657" lon="1.28918">
        <ele>106.9</ele>
        <time>2022-08-10T15:45:06Z</time>
      </trkpt>
      <trkpt lat="44.48647" lon="1.28906">
        <ele>106.7</ele>
        <time>2022-08-10T15:45:08Z</time>
      </trkpt>
      <trkpt lat="44.48635" lon="1.28897">
        <ele>106.4</ele>
        <time>2022-08-10T15:45:10Z</time>
      </trkpt>
      <trkpt lat="44.48621" lon="1.28892">
        <ele>105.9</ele>
        <time>2022-08-10T15:45:12Z</time>
      </trkpt>
      <trkpt lat="44.48608" lon="1.28888">
        <ele>105.4</ele>
        <time>2022-08-10T15:45:14Z</time>
      </trkpt>
      <trkpt lat="44.48595" lon="1.28883">
        <ele>104.8</ele>
        <time>2022-08-10T15:45:16Z</time>
      </trkpt>
      <trkpt lat="44.48582" lon="1.2888">
        <ele>104.3</ele>
        <time>2022-08-10T15:45:18Z</time>
      </trkpt>
      <trkpt lat="44.4857" lon="1.28878">
        <ele>104.2</ele>
        <time>2022-08-10T15:45:20Z</time>
      </trkpt>
      <trkpt lat="44.48557" lon="1.28874">
        <ele>104.1</ele>
        <time>2022-08-10T15:45:22Z</time>
      </trkpt>
      <trkpt lat="44.48545" lon="1.28869">
        <ele>104</ele>
        <time>2022-08-10T15:45:24Z</time>
      </trkpt>
      <trkpt lat="44.48533" lon="1.28865">
        <ele>103.9</ele>
        <time>2022-08-10T15:45:26Z</time>
      </trkpt>
      <trkpt lat="44.48521" lon="1.28861">
        <ele>103.8</ele>
        <time>2022-08-10T15:45:28Z</time>
      </trkpt>
      <trkpt lat="44.48508" lon="1.28857">
        <ele>103.8</ele>
        <time>2022-08-10T15:45:30Z</time>
      </trkpt>
      <trkpt lat="44.48496" lon="1.28851">
        <ele>103.6</ele>
        <time>2022-08-10T15:45:32Z</time>
      </trkpt>
      <trkpt lat="44.48484" lon="1.28847">
        <ele>103.5</ele>
        <time>2022-08-10T15:45:34Z</time>
      </trkpt>
      <trkpt lat="44.48471" lon="1.28845">
        <ele>103.4</ele>
        <time>2022-08-10T15:45:36Z</time>
      </trkpt>
      <trkpt lat="44.4846" lon="1.28842">
        <ele>103.3</ele>
        <time>2022-08-10T15:45:38Z</time>
      </trkpt>
      <trkpt lat="44.4845" lon="1.28836">
        <ele>103.1</ele>
        <time>2022-08-10T15:45:40Z</time>
      </trkpt>
      <trkpt lat="44.4844" lon="1.28832">
        <ele>103</ele>
        <time>2022-08-10T15:45:42Z</time>
      </trkpt>
      <trkpt lat="44.48431" lon="1.28829">
        <ele>103</ele>
        <time>2022-08-10T15:45:44Z</time>
      </trkpt>
      <trkpt lat="44.48422" lon="1.28826">
        <ele>103</ele>
        <time>2022-08-10T15:45:46Z</time>
      </trkpt>
      <trkpt lat="44.48413" lon="1.28825">
        <ele>103</ele>
        <time>2022-08-10T15:45:48Z</time>
      </trkpt>
      <trkpt lat="44.48404" lon="1.28823">
        <ele>103</ele>
        <time>2022-08-10T15:45:50Z</time>
      </trkpt>
      <trkpt lat="44.48395" lon="1.28818">
        <ele>103</ele>
        <time>2022-08-10T15:45:52Z</time>
      </trkpt>
      <trkpt lat="44.48386" lon="1.28817">
        <ele>103.1</ele>
        <time>2022-08-10T15:45:54Z</time>
      </trkpt>
      <trkpt lat="44.48377" lon="1.28814">
        <ele>103.1</ele>
        <time>2022-08-10T15:45:56Z</time>
      </trkpt>
      <trkpt lat="44.48368" lon="1.28811">
        <ele>103.2</ele>
        <time>2022-08-10T15:45:58Z</time>
      </trkpt>
      <trkpt lat="44.48359" lon="1.28808">
        <ele>103.2</ele>
        <time>2022-08-10T15:46:00Z</time>
      </trkpt>
      <trkpt lat="44.48351" lon="1.28805">
        <ele>103.3</ele>
        <time>2022-08-10T15:46:02Z</time>
      </trkpt>
      <trkpt lat="44.48342" lon="1.28803">
        <ele>103.3</ele>
        <time>2022-08-10T15:46:04Z</time>
      </trkpt>
      <trkpt lat="44.48334" lon="1.28799">
        <ele>103.4</ele>
        <time>2022-08-10T15:46:06Z</time>
      </trkpt>
      <trkpt lat="44.48327" lon="1.28797">
        <ele>103.4</ele>
        <time>2022-08-10T15:46:08Z</time>
      </trkpt>
      <trkpt lat="44.48319" lon="1.28794">
        <ele>103.5</ele>
        <time>2022-08-10T15:46:10Z</time>
      </trkpt>
      <trkpt lat="44.48312" lon="1.28791">
        <ele>103.5</ele>
        <time>2022-08-10T15:46:12Z</time>
      </trkpt>
      <trkpt lat="44.48305" lon="1.28789">
        <ele>103.5</ele>
        <time>2022-08-10T15:46:14Z</time>
      </trkpt>
      <trkpt lat="44.48299" lon="1.28785">
        <ele>103.6</ele>
        <time>2022-08-10T15:46:16Z</time>
      </trkpt>
      <trkpt lat="44.48293" lon="1.28782">
        <ele>103.6</ele>
        <time>2022-08-10T15:46:18Z</time>
      </trkpt>
      <trkpt lat="44.48287" lon="1.28777">
        <ele>103.7</ele>
        <time>2022-08-10T15:46:20Z</time>
      </trkpt>
      <trkpt lat="44.48282" lon="1.28773">
        <ele>103.7</ele>
        <time>2022-08-10T15:46:22Z</time>
      </trkpt>
      <trkpt lat="44.48274" lon="1.28771">
        <ele>103.7</ele>
        <time>2022-08-10T15:46:24Z</time>
      </trkpt>
      <trkpt lat="44.48268" lon="1.28769">
        <ele>103.8</ele>
        <time>2022-08-10T15:46:26Z</time>
      </trkpt>
      <trkpt lat="44.48263" lon="1.28767">
        <ele>103.8</ele>
        <time>2022-08-10T15:46:28Z</time>
      </trkpt>
      <trkpt lat="44.48257" lon="1.28767">
        <ele>103.8</ele>
        <time>2022-08-10T15:46:30Z</time>
      </trkpt>
      <trkpt lat="44.48252" lon="1.28765">
        <ele>103.8</ele>
        <time>2022-08-10T15:46:32Z</time>
      </trkpt>
      <trkpt lat="44.48247" lon="1.28764">
        <ele>103.7</ele>
        <time>2022-08-10T15:46:34Z</time>
      </trkpt>
      <trkpt lat="44.48242" lon="1.28763">
        <ele>103.6</ele>
        <time>2022-08-10T15:46:36Z</time>
      </trkpt>
      <trkpt lat="44.48237" lon="1.28765">
        <ele>103.5</ele>
        <time>2022-08-10T15:46:38Z</time>
      </trkpt>
      <trkpt lat="44.48232" lon="1.28766">
        <ele>103.3</ele>
        <time>2022-08-10T15:46:40Z</time>
      </trkpt>
      <trkpt lat="44.48228" lon="1.28765">
        <ele>103.2</ele>
        <time>2022-08-10T15:46:42Z</time>
      </trkpt>
      <trkpt lat="44.48224" lon="1.28766">
        <ele>103.1</ele>
        <time>2022-08-10T15:46:44Z</time>
      </trkpt>
      <trkpt lat="44.48221" lon="1.28766">
        <ele>103</ele>
        <time>2022-08-10T15:46:46Z</time>
      </trkpt>
      <trkpt lat="44.48216" lon="1.28767">
        <ele>102.9</ele>
        <time>2022-08-10T15:46:48Z</time>
      </trkpt>
      <trkpt lat="44.48211" lon="1.28768">
        <ele>102.8</ele>
        <time>2022-08-10T15:46:50Z</time>
      </trkpt>
      <trkpt lat="44.48205" lon="1.28768">
        <ele>102.6</ele>
        <time>2022-08-10T15:46:52Z</time>
      </trkpt>
      <trkpt lat="44.48199" lon="1.2877">
        <ele>102.5</ele>
        <time>2022-08-10T15:46:54Z</time>
      </trkpt>
      <trkpt lat="44.48192" lon="1.28771">
        <ele>102.4</ele>
        <time>2022-08-10T15:46:56Z</time>
      </trkpt>
      <trkpt lat="44.48185" lon="1.28771">
        <ele>102.2</ele>
        <time>2022-08-10T15:46:58Z</time>
      </trkpt>
      <trkpt lat="44.48177" lon="1.28769">
        <ele>102</ele>
        <time>2022-08-10T15:47:00Z</time>
      </trkpt>
      <trkpt lat="44.48171" lon="1.28769">
        <ele>101.8</ele>
        <time>2022-08-10T15:47:02Z</time>
      </trkpt>
      <trkpt lat="44.48166" lon="1.28768">
        <ele>101.6</ele>
        <time>2022-08-10T15:47:04Z</time>
      </trkpt>
      <trkpt lat="44.4816" lon="1.28766">
        <ele>101.6</ele>
        <time>2022-08-10T15:47:06Z</time>
      </trkpt>
      <trkpt lat="44.48153" lon="1.28767">
        <ele>101.5</ele>
        <time>2022-08-10T15:47:08Z</time>
      </trkpt>
      <trkpt lat="44.48148" lon="1.2877">
        <ele>101.6</ele>
        <time>2022-08-10T15:47:10Z</time>
      </trkpt>
      <trkpt lat="44.48142" lon="1.28774">
        <ele>101.7</ele>
        <time>2022-08-10T15:47:12Z</time>
      </trkpt>
      <trkpt lat="44.48136" lon="1.28779">
        <ele>101.8</ele>
        <time>2022-08-10T15:47:14Z</time>
      </trkpt>
      <trkpt lat="44.48129" lon="1.28785">
        <ele>101.9</ele>
        <time>2022-08-10T15:47:16Z</time>
      </trkpt>
      <trkpt lat="44.4812" lon="1.28791">
        <ele>101.9</ele>
        <time>2022-08-10T15:47:18Z</time>
      </trkpt>
      <trkpt lat="44.48112" lon="1.28794">
        <ele>101.9</ele>
        <time>2022-08-10T15:47:20Z</time>
      </trkpt>
      <trkpt lat="44.48104" lon="1.28797">
        <ele>101.8</ele>
        <time>2022-08-10T15:47:22Z</time>
      </trkpt>
      <trkpt lat="44.48095" lon="1.28801">
        <ele>101.8</ele>
        <time>2022-08-10T15:47:24Z</time>
      </trkpt>
      <trkpt lat="44.48087" lon="1.28805">
        <ele>101.7</ele>
        <time>2022-08-10T15:47:26Z</time>
      </trkpt>
      <trkpt lat="44.4808" lon="1.28811">
        <ele>101.7</ele>
        <time>2022-08-10T15:47:28Z</time>
      </trkpt>
      <trkpt lat="44.48071" lon="1.28816">
        <ele>101.8</ele>
        <time>2022-08-10T15:47:30Z</time>
      </trkpt>
      <trkpt lat="44.48064" lon="1.28822">
        <ele>101.9</ele>
        <time>2022-08-10T15:47:32Z</time>
      </trkpt>
      <trkpt lat="44.48056" lon="1.2883">
        <ele>102</ele>
        <time>2022-08-10T15:47:34Z</time>
      </trkpt>
      <trkpt lat="44.48049" lon="1.28838">
        <ele>102</ele>
        <time>2022-08-10T15:47:36Z</time>
      </trkpt>
      <trkpt lat="44.48043" lon="1.28845">
        <ele>102.1</ele>
        <time>2022-08-10T15:47:38Z</time>
      </trkpt>
      <trkpt lat="44.48037" lon="1.28852">
        <ele>102.1</ele>
        <time>2022-08-10T15:47:40Z</time>
      </trkpt>
      <trkpt lat="44.48032" lon="1.28858">
        <ele>102.1</ele>
        <time>2022-08-10T15:47:42Z</time>
      </trkpt>
      <trkpt lat="44.48028" lon="1.28865">
        <ele>102.1</ele>
        <time>2022-08-10T15:47:44Z</time>
      </trkpt>
      <trkpt lat="44.48024" lon="1.28871">
        <ele>102.1</ele>
        <time>2022-08-10T15:47:46Z</time>
      </trkpt>
      <trkpt lat="44.4802" lon="1.28875">
        <ele>102.1</ele>
        <time>2022-08-10T15:47:48Z</time>
      </trkpt>
      <trkpt lat="44.48016" lon="1.28881">
        <ele>102.1</ele>
        <time>2022-08-10T15:47:50Z</time>
      </trkpt>
      <trkpt lat="44.48012" lon="1.28887">
        <ele>102.1</ele>
        <time>2022-08-10T15:47:52Z</time>
      </trkpt>
      <trkpt lat="44.48009" lon="1.28893">
        <ele>102.1</ele>
        <time>2022-08-10T15:47:54Z</time>
      </trkpt>
      <trkpt lat="44.48005" lon="1.289">
        <ele>102</ele>
        <time>2022-08-10T15:47:56Z</time>
      </trkpt>
      <trkpt lat="44.48002" lon="1.28905">
        <ele>102</ele>
        <time>2022-08-10T15:47:58Z</time>
      </trkpt>
      <trkpt lat="44.47999" lon="1.2891">
        <ele>102</ele>
        <time>2022-08-10T15:48:00Z</time>
      </trkpt>
      <trkpt lat="44.47995" lon="1.28917">
        <ele>101.9</ele>
        <time>2022-08-10T15:48:02Z</time>
      </trkpt>
      <trkpt lat="44.47992" lon="1.28925">
        <ele>101.9</ele>
        <time>2022-08-10T15:48:04Z</time>
      </trkpt>
      <trkpt lat="44.47989" lon="1.2893">
        <ele>101.9</ele>
        <time>2022-08-10T15:48:06Z</time>
      </trkpt>
      <trkpt lat="44.47985" lon="1.28935">
        <ele>101.9</ele>
        <time>2022-08-10T15:48:08Z</time>
      </trkpt>
      <trkpt lat="44.47981" lon="1.28942">
        <ele>101.9</ele>
        <time>2022-08-10T15:48:10Z</time>
      </trkpt>
      <trkpt lat="44.47977" lon="1.28948">
        <ele>101.8</ele>
        <time>2022-08-10T15:48:12Z</time>
      </trkpt>
      <trkpt lat="44.47973" lon="1.28953">
        <ele>101.8</ele>
        <time>2022-08-10T15:48:14Z</time>
      </trkpt>
      <trkpt lat="44.47969" lon="1.28961">
        <ele>101.8</ele>
        <time>2022-08-10T15:48:16Z</time>
      </trkpt>
      <trkpt lat="44.47965" lon="1.28968">
        <ele>101.8</ele>
        <time>2022-08-10T15:48:18Z</time>
      </trkpt>
      <trkpt lat="44.4796" lon="1.28973">
        <ele>101.7</ele>
        <time>2022-08-10T15:48:20Z</time>
      </trkpt>
      <trkpt lat="44.47953" lon="1.28977">
        <ele>101.6</ele>
        <time>2022-08-10T15:48:22Z</time>
      </trkpt>
      <trkpt lat="44.47947" lon="1.28982">
        <ele>101.5</ele>
        <time>2022-08-10T15:48:24Z</time>
      </trkpt>
      <trkpt lat="44.47941" lon="1.28985">
        <ele>101.4</ele>
        <time>2022-08-10T15:48:26Z</time>
      </trkpt>
      <trkpt lat="44.47934" lon="1.28989">
        <ele>101.3</ele>
        <time>2022-08-10T15:48:28Z</time>
      </trkpt>
      <trkpt lat="44.47928" lon="1.28993">
        <ele>101.2</ele>
        <time>2022-08-10T15:48:30Z</time>
      </trkpt>
      <trkpt lat="44.47922" lon="1.29">
        <ele>101.1</ele>
        <time>2022-08-10T15:48:32Z</time>
      </trkpt>
      <trkpt lat="44.47918" lon="1.29006">
        <ele>101.2</ele>
        <time>2022-08-10T15:48:34Z</time>
      </trkpt>
      <trkpt lat="44.47916" lon="1.29013">
        <ele>101.3</ele>
        <time>2022-08-10T15:48:36Z</time>
      </trkpt>
      <trkpt lat="44.47913" lon="1.29019">
        <ele>101.4</ele>
        <time>2022-08-10T15:48:38Z</time>
      </trkpt>
      <trkpt lat="44.4791" lon="1.29024">
        <ele>101.5</ele>
        <time>2022-08-10T15:48:40Z</time>
      </trkpt>
      <trkpt lat="44.47907" lon="1.29029">
        <ele>101.6</ele>
        <time>2022-08-10T15:48:42Z</time>
      </trkpt>
      <trkpt lat="44.47904" lon="1.29032">
        <ele>101.7</ele>
        <time>2022-08-10T15:48:44Z</time>
      </trkpt>
      <trkpt lat="44.47901" lon="1.29032">
        <ele>101.6</ele>
        <time>2022-08-10T15:48:46Z</time>
      </trkpt>
      <trkpt lat="44.47897" lon="1.29027">
        <ele>101.5</ele>
        <time>2022-08-10T15:48:48Z</time>
      </trkpt>
      <trkpt lat="44.47897" lon="1.29018">
        <ele>101.3</ele>
        <time>2022-08-10T15:48:50Z</time>
      </trkpt>
      <trkpt lat="44.47895" lon="1.29012">
        <ele>101.2</ele>
        <time>2022-08-10T15:48:52Z</time>
      </trkpt>
      <trkpt lat="44.47893" lon="1.29004">
        <ele>101.1</ele>
        <time>2022-08-10T15:48:54Z</time>
      </trkpt>
      <trkpt lat="44.47892" lon="1.28996">
        <ele>100.9</ele>
        <time>2022-08-10T15:48:56Z</time>
      </trkpt>
      <trkpt lat="44.4789" lon="1.28988">
        <ele>100.9</ele>
        <time>2022-08-10T15:48:58Z</time>
      </trkpt>
      <trkpt lat="44.47889" lon="1.2898">
        <ele>100.8</ele>
        <time>2022-08-10T15:49:00Z</time>
      </trkpt>
      <trkpt lat="44.47887" lon="1.28972">
        <ele>100.7</ele>
        <time>2022-08-10T15:49:02Z</time>
      </trkpt>
      <trkpt lat="44.47885" lon="1.28963">
        <ele>100.6</ele>
        <time>2022-08-10T15:49:04Z</time>
      </trkpt>
      <trkpt lat="44.47883" lon="1.28955">
        <ele>100.5</ele>
        <time>2022-08-10T15:49:06Z</time>
      </trkpt>
      <trkpt lat="44.47881" lon="1.28948">
        <ele>100.4</ele>
        <time>2022-08-10T15:49:08Z</time>
      </trkpt>
      <trkpt lat="44.47879" lon="1.2894">
        <ele>100.3</ele>
        <time>2022-08-10T15:49:10Z</time>
      </trkpt>
      <trkpt lat="44.47878" lon="1.28932">
        <ele>100.2</ele>
        <time>2022-08-10T15:49:12Z</time>
      </trkpt>
      <trkpt lat="44.47876" lon="1.28925">
        <ele>100.1</ele>
        <time>2022-08-10T15:49:14Z</time>
      </trkpt>
      <trkpt lat="44.47874" lon="1.28917">
        <ele>100</ele>
        <time>2022-08-10T15:49:16Z</time>
      </trkpt>
      <trkpt lat="44.47873" lon="1.28909">
        <ele>100.1</ele>
        <time>2022-08-10T15:49:18Z</time>
      </trkpt>
      <trkpt lat="44.47872" lon="1.28902">
        <ele>100.2</ele>
        <time>2022-08-10T15:49:20Z</time>
      </trkpt>
      <trkpt lat="44.4787" lon="1.28896">
        <ele>100.3</ele>
        <time>2022-08-10T15:49:22Z</time>
      </trkpt>
      <trkpt lat="44.47869" lon="1.28889">
        <ele>100.3</ele>
        <time>2022-08-10T15:49:24Z</time>
      </trkpt>
      <trkpt lat="44.47868" lon="1.28883">
        <ele>100.4</ele>
        <time>2022-08-10T15:49:26Z</time>
      </trkpt>
      <trkpt lat="44.47867" lon="1.28878">
        <ele>100.5</ele>
        <time>2022-08-10T15:49:28Z</time>
      </trkpt>
      <trkpt lat="44.47867" lon="1.28876">
        <ele>100.5</ele>
        <time>2022-08-10T15:49:30Z</time>
      </trkpt>
      <trkpt lat="44.47867" lon="1.28876">
        <ele>100.5</ele>
        <time>2022-08-10T15:49:32Z</time>
      </trkpt>
      <trkpt lat="44.47867" lon="1.28875">
        <ele>100.5</ele>
        <time>2022-08-10T15:49:34Z</time>
      </trkpt>
      <trkpt lat="44.47867" lon="1.28872">
        <ele>100.5</ele>
        <time>2022-08-10T15:49:36Z</time>
      </trkpt>
      <trkpt lat="44.47866" lon="1.28872">
        <ele>100.5</ele>
        <time>2022-08-10T15:49:38Z</time>
      </trkpt>
      <trkpt lat="44.47861" lon="1.28856">
        <ele>100.7</ele>
        <time>2022-08-10T15:50:58Z</time>
      </trkpt>
      <trkpt lat="44.47859" lon="1.2885">
        <ele>100.8</ele>
        <time>2022-08-10T15:51:00Z</time>
      </trkpt>
      <trkpt lat="44.47858" lon="1.28842">
        <ele>100.9</ele>
        <time>2022-08-10T15:51:02Z</time>
      </trkpt>
      <trkpt lat="44.47856" lon="1.28834">
        <ele>101</ele>
        <time>2022-08-10T15:51:04Z</time>
      </trkpt>
      <trkpt lat="44.47854" lon="1.28825">
        <ele>101.6</ele>
        <time>2022-08-10T15:51:06Z</time>
      </trkpt>
      <trkpt lat="44.47853" lon="1.28817">
        <ele>102.2</ele>
        <time>2022-08-10T15:51:08Z</time>
      </trkpt>
      <trkpt lat="44.47851" lon="1.28809">
        <ele>102.8</ele>
        <time>2022-08-10T15:51:10Z</time>
      </trkpt>
      <trkpt lat="44.47849" lon="1.28802">
        <ele>103.3</ele>
        <time>2022-08-10T15:51:12Z</time>
      </trkpt>
      <trkpt lat="44.47848" lon="1.28794">
        <ele>103.9</ele>
        <time>2022-08-10T15:51:14Z</time>
      </trkpt>
      <trkpt lat="44.47848" lon="1.28787">
        <ele>104.4</ele>
        <time>2022-08-10T15:51:16Z</time>
      </trkpt>
      <trkpt lat="44.47849" lon="1.28783">
        <ele>104.7</ele>
        <time>2022-08-10T15:51:18Z</time>
      </trkpt>
      <trkpt lat="44.47851" lon="1.28776">
        <ele>105.3</ele>
        <time>2022-08-10T15:51:20Z</time>
      </trkpt>
      <trkpt lat="44.4785" lon="1.28767">
        <ele>105.9</ele>
        <time>2022-08-10T15:51:22Z</time>
      </trkpt>
      <trkpt lat="44.47847" lon="1.28758">
        <ele>106.6</ele>
        <time>2022-08-10T15:51:24Z</time>
      </trkpt>
      <trkpt lat="44.47845" lon="1.28749">
        <ele>107.2</ele>
        <time>2022-08-10T15:51:26Z</time>
      </trkpt>
      <trkpt lat="44.47843" lon="1.28741">
        <ele>107.2</ele>
        <time>2022-08-10T15:51:28Z</time>
      </trkpt>
      <trkpt lat="44.47842" lon="1.28734">
        <ele>107.3</ele>
        <time>2022-08-10T15:51:30Z</time>
      </trkpt>
      <trkpt lat="44.4784" lon="1.28727">
        <ele>107.4</ele>
        <time>2022-08-10T15:51:32Z</time>
      </trkpt>
      <trkpt lat="44.47838" lon="1.2872">
        <ele>107.5</ele>
        <time>2022-08-10T15:51:34Z</time>
      </trkpt>
      <trkpt lat="44.47836" lon="1.28713">
        <ele>107.5</ele>
        <time>2022-08-10T15:51:36Z</time>
      </trkpt>
      <trkpt lat="44.47833" lon="1.28706">
        <ele>107.5</ele>
        <time>2022-08-10T15:51:38Z</time>
      </trkpt>
      <trkpt lat="44.47832" lon="1.28697">
        <ele>107.7</ele>
        <time>2022-08-10T15:51:40Z</time>
      </trkpt>
      <trkpt lat="44.4783" lon="1.28689">
        <ele>107.8</ele>
        <time>2022-08-10T15:51:42Z</time>
      </trkpt>
      <trkpt lat="44.47828" lon="1.28683">
        <ele>107.9</ele>
        <time>2022-08-10T15:51:44Z</time>
      </trkpt>
      <trkpt lat="44.47827" lon="1.28676">
        <ele>107.9</ele>
        <time>2022-08-10T15:51:46Z</time>
      </trkpt>
      <trkpt lat="44.47825" lon="1.28669">
        <ele>107.9</ele>
        <time>2022-08-10T15:51:48Z</time>
      </trkpt>
      <trkpt lat="44.47823" lon="1.28661">
        <ele>107.5</ele>
        <time>2022-08-10T15:51:50Z</time>
      </trkpt>
      <trkpt lat="44.47821" lon="1.28653">
        <ele>107</ele>
        <time>2022-08-10T15:51:52Z</time>
      </trkpt>
      <trkpt lat="44.47819" lon="1.28645">
        <ele>106.5</ele>
        <time>2022-08-10T15:51:54Z</time>
      </trkpt>
      <trkpt lat="44.47817" lon="1.28638">
        <ele>106</ele>
        <time>2022-08-10T15:51:56Z</time>
      </trkpt>
      <trkpt lat="44.47816" lon="1.2863">
        <ele>105.5</ele>
        <time>2022-08-10T15:51:58Z</time>
      </trkpt>
      <trkpt lat="44.47815" lon="1.28623">
        <ele>105</ele>
        <time>2022-08-10T15:52:00Z</time>
      </trkpt>
      <trkpt lat="44.47813" lon="1.28618">
        <ele>104.7</ele>
        <time>2022-08-10T15:52:02Z</time>
      </trkpt>
      <trkpt lat="44.47811" lon="1.28615">
        <ele>104.5</ele>
        <time>2022-08-10T15:52:04Z</time>
      </trkpt>
      <trkpt lat="44.47809" lon="1.28616">
        <ele>104.5</ele>
        <time>2022-08-10T15:52:06Z</time>
      </trkpt>
      <trkpt lat="44.47808" lon="1.28615">
        <ele>104.4</ele>
        <time>2022-08-10T15:52:08Z</time>
      </trkpt>
      <trkpt lat="44.47808" lon="1.28615">
        <ele>104.4</ele>
        <time>2022-08-10T15:52:10Z</time>
      </trkpt>
      <trkpt lat="44.47808" lon="1.28616">
        <ele>104.5</ele>
        <time>2022-08-10T15:52:12Z</time>
      </trkpt>
      <trkpt lat="44.47807" lon="1.28616">
        <ele>104.5</ele>
        <time>2022-08-10T15:52:14Z</time>
      </trkpt>
      <trkpt lat="44.47807" lon="1.28602">
        <ele>103.6</ele>
        <time>2022-08-10T15:53:28Z</time>
      </trkpt>
      <trkpt lat="44.47809" lon="1.28597">
        <ele>103.3</ele>
        <time>2022-08-10T15:53:30Z</time>
      </trkpt>
      <trkpt lat="44.47807" lon="1.28589">
        <ele>102.8</ele>
        <time>2022-08-10T15:53:32Z</time>
      </trkpt>
      <trkpt lat="44.47804" lon="1.28584">
        <ele>102.3</ele>
        <time>2022-08-10T15:53:34Z</time>
      </trkpt>
      <trkpt lat="44.478" lon="1.28581">
        <ele>102.1</ele>
        <time>2022-08-10T15:53:36Z</time>
      </trkpt>
      <trkpt lat="44.47795" lon="1.2858">
        <ele>101.9</ele>
        <time>2022-08-10T15:53:38Z</time>
      </trkpt>
      <trkpt lat="44.47791" lon="1.2858">
        <ele>101.8</ele>
        <time>2022-08-10T15:53:40Z</time>
      </trkpt>
      <trkpt lat="44.47787" lon="1.28579">
        <ele>101.7</ele>
        <time>2022-08-10T15:53:42Z</time>
      </trkpt>
      <trkpt lat="44.47782" lon="1.28579">
        <ele>101.6</ele>
        <time>2022-08-10T15:53:44Z</time>
      </trkpt>
      <trkpt lat="44.47775" lon="1.28581">
        <ele>101.5</ele>
        <time>2022-08-10T15:53:46Z</time>
      </trkpt>
      <trkpt lat="44.47765" lon="1.28582">
        <ele>101.3</ele>
        <time>2022-08-10T15:53:48Z</time>
      </trkpt>
      <trkpt lat="44.47753" lon="1.28583">
        <ele>101</ele>
        <time>2022-08-10T15:53:50Z</time>
      </trkpt>
      <trkpt lat="44.4774" lon="1.28584">
        <ele>101.3</ele>
        <time>2022-08-10T15:53:52Z</time>
      </trkpt>
      <trkpt lat="44.47727" lon="1.28582">
        <ele>101.5</ele>
        <time>2022-08-10T15:53:54Z</time>
      </trkpt>
      <trkpt lat="44.47715" lon="1.28579">
        <ele>101.6</ele>
        <time>2022-08-10T15:53:56Z</time>
      </trkpt>
      <trkpt lat="44.47705" lon="1.28577">
        <ele>101.8</ele>
        <time>2022-08-10T15:53:58Z</time>
      </trkpt>
      <trkpt lat="44.47695" lon="1.28575">
        <ele>102</ele>
        <time>2022-08-10T15:54:00Z</time>
      </trkpt>
      <trkpt lat="44.47686" lon="1.28574">
        <ele>102.2</ele>
        <time>2022-08-10T15:54:02Z</time>
      </trkpt>
      <trkpt lat="44.47678" lon="1.28571">
        <ele>102.3</ele>
        <time>2022-08-10T15:54:04Z</time>
      </trkpt>
      <trkpt lat="44.47671" lon="1.28569">
        <ele>102.4</ele>
        <time>2022-08-10T15:54:06Z</time>
      </trkpt>
      <trkpt lat="44.47665" lon="1.28566">
        <ele>102.4</ele>
        <time>2022-08-10T15:54:08Z</time>
      </trkpt>
      <trkpt lat="44.4766" lon="1.28565">
        <ele>102.5</ele>
        <time>2022-08-10T15:54:10Z</time>
      </trkpt>
      <trkpt lat="44.47654" lon="1.28565">
        <ele>102.6</ele>
        <time>2022-08-10T15:54:12Z</time>
      </trkpt>
      <trkpt lat="44.4765" lon="1.28561">
        <ele>102.6</ele>
        <time>2022-08-10T15:54:14Z</time>
      </trkpt>
      <trkpt lat="44.47644" lon="1.28558">
        <ele>102.6</ele>
        <time>2022-08-10T15:54:16Z</time>
      </trkpt>
      <trkpt lat="44.47638" lon="1.28557">
        <ele>102.7</ele>
        <time>2022-08-10T15:54:18Z</time>
      </trkpt>
      <trkpt lat="44.47632" lon="1.28555">
        <ele>102.7</ele>
        <time>2022-08-10T15:54:20Z</time>
      </trkpt>
      <trkpt lat="44.47627" lon="1.28551">
        <ele>102.6</ele>
        <time>2022-08-10T15:54:22Z</time>
      </trkpt>
      <trkpt lat="44.47621" lon="1.28549">
        <ele>102.6</ele>
        <time>2022-08-10T15:54:24Z</time>
      </trkpt>
      <trkpt lat="44.47616" lon="1.28547">
        <ele>102.6</ele>
        <time>2022-08-10T15:54:26Z</time>
      </trkpt>
      <trkpt lat="44.47611" lon="1.28543">
        <ele>102.6</ele>
        <time>2022-08-10T15:54:28Z</time>
      </trkpt>
      <trkpt lat="44.47606" lon="1.28542">
        <ele>102.6</ele>
        <time>2022-08-10T15:54:30Z</time>
      </trkpt>
      <trkpt lat="44.47602" lon="1.28541">
        <ele>102.7</ele>
        <time>2022-08-10T15:54:32Z</time>
      </trkpt>
      <trkpt lat="44.47599" lon="1.28543">
        <ele>102.8</ele>
        <time>2022-08-10T15:54:34Z</time>
      </trkpt>
      <trkpt lat="44.47597" lon="1.28544">
        <ele>102.9</ele>
        <time>2022-08-10T15:54:36Z</time>
      </trkpt>
      <trkpt lat="44.47597" lon="1.28544">
        <ele>102.9</ele>
        <time>2022-08-10T15:54:38Z</time>
      </trkpt>
      <trkpt lat="44.47597" lon="1.28544">
        <ele>102.9</ele>
        <time>2022-08-10T15:54:40Z</time>
      </trkpt>
      <trkpt lat="44.47597" lon="1.28544">
        <ele>102.9</ele>
        <time>2022-08-10T15:54:42Z</time>
      </trkpt>
      <trkpt lat="44.47596" lon="1.28545">
        <ele>102.9</ele>
        <time>2022-08-10T15:54:44Z</time>
      </trkpt>
      <trkpt lat="44.47596" lon="1.28545">
        <ele>102.9</ele>
        <time>2022-08-10T15:54:46Z</time>
      </trkpt>
      <trkpt lat="44.47604" lon="1.28534">
        <ele>102.3</ele>
        <time>2022-08-10T16:01:30Z</time>
      </trkpt>
      <trkpt lat="44.47606" lon="1.28536">
        <ele>102.3</ele>
        <time>2022-08-10T16:01:32Z</time>
      </trkpt>
      <trkpt lat="44.47609" lon="1.28537">
        <ele>102.3</ele>
        <time>2022-08-10T16:01:34Z</time>
      </trkpt>
      <trkpt lat="44.4761" lon="1.28537">
        <ele>102.3</ele>
        <time>2022-08-10T16:01:36Z</time>
      </trkpt>
      <trkpt lat="44.47609" lon="1.28537">
        <ele>102.3</ele>
        <time>2022-08-10T16:01:38Z</time>
      </trkpt>
      <trkpt lat="44.47609" lon="1.28537">
        <ele>102.4</ele>
        <time>2022-08-10T16:01:40Z</time>
      </trkpt>
      <trkpt lat="44.47609" lon="1.28538">
        <ele>102.4</ele>
        <time>2022-08-10T16:01:42Z</time>
      </trkpt>
      <trkpt lat="44.47611" lon="1.28539">
        <ele>102.4</ele>
        <time>2022-08-10T16:01:44Z</time>
      </trkpt>
      <trkpt lat="44.47614" lon="1.28541">
        <ele>102.4</ele>
        <time>2022-08-10T16:01:46Z</time>
      </trkpt>
      <trkpt lat="44.47618" lon="1.28544">
        <ele>102.5</ele>
        <time>2022-08-10T16:01:48Z</time>
      </trkpt>
      <trkpt lat="44.47623" lon="1.28547">
        <ele>102.5</ele>
        <time>2022-08-10T16:01:50Z</time>
      </trkpt>
      <trkpt lat="44.47628" lon="1.28548">
        <ele>102.5</ele>
        <time>2022-08-10T16:01:52Z</time>
      </trkpt>
      <trkpt lat="44.47634" lon="1.28552">
        <ele>102.5</ele>
        <time>2022-08-10T16:01:54Z</time>
      </trkpt>
      <trkpt lat="44.4764" lon="1.28555">
        <ele>102.5</ele>
        <time>2022-08-10T16:01:56Z</time>
      </trkpt>
      <trkpt lat="44.47646" lon="1.28558">
        <ele>102.5</ele>
        <time>2022-08-10T16:01:58Z</time>
      </trkpt>
      <trkpt lat="44.47653" lon="1.28561">
        <ele>102.5</ele>
        <time>2022-08-10T16:02:00Z</time>
      </trkpt>
      <trkpt lat="44.4766" lon="1.28563">
        <ele>102.4</ele>
        <time>2022-08-10T16:02:02Z</time>
      </trkpt>
      <trkpt lat="44.47665" lon="1.28567">
        <ele>102.5</ele>
        <time>2022-08-10T16:02:04Z</time>
      </trkpt>
      <trkpt lat="44.47672" lon="1.2857">
        <ele>102.4</ele>
        <time>2022-08-10T16:02:06Z</time>
      </trkpt>
      <trkpt lat="44.4768" lon="1.28571">
        <ele>102.2</ele>
        <time>2022-08-10T16:02:08Z</time>
      </trkpt>
      <trkpt lat="44.47688" lon="1.28573">
        <ele>102.1</ele>
        <time>2022-08-10T16:02:10Z</time>
      </trkpt>
      <trkpt lat="44.47694" lon="1.28575">
        <ele>102</ele>
        <time>2022-08-10T16:02:12Z</time>
      </trkpt>
      <trkpt lat="44.47702" lon="1.28576">
        <ele>101.9</ele>
        <time>2022-08-10T16:02:14Z</time>
      </trkpt>
      <trkpt lat="44.4771" lon="1.28578">
        <ele>101.7</ele>
        <time>2022-08-10T16:02:16Z</time>
      </trkpt>
      <trkpt lat="44.47718" lon="1.28579">
        <ele>101.6</ele>
        <time>2022-08-10T16:02:18Z</time>
      </trkpt>
      <trkpt lat="44.47725" lon="1.28581">
        <ele>101.5</ele>
        <time>2022-08-10T16:02:20Z</time>
      </trkpt>
      <trkpt lat="44.47733" lon="1.28583">
        <ele>101.4</ele>
        <time>2022-08-10T16:02:22Z</time>
      </trkpt>
      <trkpt lat="44.47741" lon="1.28583">
        <ele>101.2</ele>
        <time>2022-08-10T16:02:24Z</time>
      </trkpt>
      <trkpt lat="44.47749" lon="1.28583">
        <ele>101</ele>
        <time>2022-08-10T16:02:26Z</time>
      </trkpt>
      <trkpt lat="44.47757" lon="1.28582">
        <ele>101.1</ele>
        <time>2022-08-10T16:02:28Z</time>
      </trkpt>
      <trkpt lat="44.47764" lon="1.28582">
        <ele>101.2</ele>
        <time>2022-08-10T16:02:30Z</time>
      </trkpt>
      <trkpt lat="44.47771" lon="1.2858">
        <ele>101.4</ele>
        <time>2022-08-10T16:02:32Z</time>
      </trkpt>
      <trkpt lat="44.47776" lon="1.2858">
        <ele>101.5</ele>
        <time>2022-08-10T16:02:34Z</time>
      </trkpt>
      <trkpt lat="44.4778" lon="1.28581">
        <ele>101.6</ele>
        <time>2022-08-10T16:02:36Z</time>
      </trkpt>
      <trkpt lat="44.47783" lon="1.28581">
        <ele>101.7</ele>
        <time>2022-08-10T16:02:38Z</time>
      </trkpt>
      <trkpt lat="44.47787" lon="1.28582">
        <ele>101.8</ele>
        <time>2022-08-10T16:02:40Z</time>
      </trkpt>
      <trkpt lat="44.47791" lon="1.28583">
        <ele>102</ele>
        <time>2022-08-10T16:02:42Z</time>
      </trkpt>
      <trkpt lat="44.47794" lon="1.28584">
        <ele>102.1</ele>
        <time>2022-08-10T16:02:44Z</time>
      </trkpt>
      <trkpt lat="44.47797" lon="1.28588">
        <ele>102.4</ele>
        <time>2022-08-10T16:02:46Z</time>
      </trkpt>
      <trkpt lat="44.47802" lon="1.28592">
        <ele>102.8</ele>
        <time>2022-08-10T16:02:48Z</time>
      </trkpt>
      <trkpt lat="44.47807" lon="1.28589">
        <ele>102.7</ele>
        <time>2022-08-10T16:02:50Z</time>
      </trkpt>
      <trkpt lat="44.47809" lon="1.28583">
        <ele>102.4</ele>
        <time>2022-08-10T16:02:52Z</time>
      </trkpt>
      <trkpt lat="44.47806" lon="1.28578">
        <ele>102.1</ele>
        <time>2022-08-10T16:02:54Z</time>
      </trkpt>
      <trkpt lat="44.47803" lon="1.28574">
        <ele>101.9</ele>
        <time>2022-08-10T16:02:56Z</time>
      </trkpt>
      <trkpt lat="44.478" lon="1.2857">
        <ele>101.6</ele>
        <time>2022-08-10T16:02:58Z</time>
      </trkpt>
      <trkpt lat="44.47799" lon="1.28563">
        <ele>101.3</ele>
        <time>2022-08-10T16:03:00Z</time>
      </trkpt>
      <trkpt lat="44.47797" lon="1.28557">
        <ele>101.1</ele>
        <time>2022-08-10T16:03:02Z</time>
      </trkpt>
      <trkpt lat="44.47795" lon="1.2855">
        <ele>100.7</ele>
        <time>2022-08-10T16:03:04Z</time>
      </trkpt>
      <trkpt lat="44.47793" lon="1.28543">
        <ele>100.3</ele>
        <time>2022-08-10T16:03:06Z</time>
      </trkpt>
      <trkpt lat="44.47791" lon="1.28535">
        <ele>99.9</ele>
        <time>2022-08-10T16:03:08Z</time>
      </trkpt>
      <trkpt lat="44.47789" lon="1.28527">
        <ele>99.5</ele>
        <time>2022-08-10T16:03:10Z</time>
      </trkpt>
      <trkpt lat="44.47787" lon="1.28517">
        <ele>99.1</ele>
        <time>2022-08-10T16:03:12Z</time>
      </trkpt>
      <trkpt lat="44.47784" lon="1.28508">
        <ele>98.6</ele>
        <time>2022-08-10T16:03:14Z</time>
      </trkpt>
      <trkpt lat="44.47781" lon="1.28498">
        <ele>98.2</ele>
        <time>2022-08-10T16:03:16Z</time>
      </trkpt>
      <trkpt lat="44.47779" lon="1.28488">
        <ele>98.3</ele>
        <time>2022-08-10T16:03:18Z</time>
      </trkpt>
      <trkpt lat="44.47776" lon="1.28478">
        <ele>98.4</ele>
        <time>2022-08-10T16:03:20Z</time>
      </trkpt>
      <trkpt lat="44.47773" lon="1.28467">
        <ele>98.5</ele>
        <time>2022-08-10T16:03:22Z</time>
      </trkpt>
      <trkpt lat="44.4777" lon="1.28456">
        <ele>98.7</ele>
        <time>2022-08-10T16:03:24Z</time>
      </trkpt>
      <trkpt lat="44.47767" lon="1.28445">
        <ele>98.8</ele>
        <time>2022-08-10T16:03:26Z</time>
      </trkpt>
      <trkpt lat="44.47765" lon="1.28433">
        <ele>99</ele>
        <time>2022-08-10T16:03:28Z</time>
      </trkpt>
      <trkpt lat="44.47761" lon="1.28422">
        <ele>99.2</ele>
        <time>2022-08-10T16:03:30Z</time>
      </trkpt>
      <trkpt lat="44.47758" lon="1.28411">
        <ele>99.5</ele>
        <time>2022-08-10T16:03:32Z</time>
      </trkpt>
      <trkpt lat="44.47755" lon="1.28398">
        <ele>100</ele>
        <time>2022-08-10T16:03:34Z</time>
      </trkpt>
      <trkpt lat="44.47752" lon="1.28385">
        <ele>100.5</ele>
        <time>2022-08-10T16:03:36Z</time>
      </trkpt>
      <trkpt lat="44.47749" lon="1.28373">
        <ele>101.1</ele>
        <time>2022-08-10T16:03:38Z</time>
      </trkpt>
      <trkpt lat="44.47746" lon="1.2836">
        <ele>101.7</ele>
        <time>2022-08-10T16:03:40Z</time>
      </trkpt>
      <trkpt lat="44.47743" lon="1.28347">
        <ele>102.2</ele>
        <time>2022-08-10T16:03:42Z</time>
      </trkpt>
      <trkpt lat="44.47741" lon="1.28334">
        <ele>102.8</ele>
        <time>2022-08-10T16:03:44Z</time>
      </trkpt>
      <trkpt lat="44.47738" lon="1.2832">
        <ele>102.8</ele>
        <time>2022-08-10T16:03:46Z</time>
      </trkpt>
      <trkpt lat="44.47735" lon="1.28307">
        <ele>102.8</ele>
        <time>2022-08-10T16:03:48Z</time>
      </trkpt>
      <trkpt lat="44.47732" lon="1.28294">
        <ele>102.8</ele>
        <time>2022-08-10T16:03:50Z</time>
      </trkpt>
      <trkpt lat="44.47729" lon="1.28282">
        <ele>102.8</ele>
        <time>2022-08-10T16:03:52Z</time>
      </trkpt>
      <trkpt lat="44.47727" lon="1.28269">
        <ele>102.9</ele>
        <time>2022-08-10T16:03:54Z</time>
      </trkpt>
      <trkpt lat="44.47724" lon="1.28257">
        <ele>103</ele>
        <time>2022-08-10T16:03:56Z</time>
      </trkpt>
      <trkpt lat="44.47721" lon="1.28244">
        <ele>103.1</ele>
        <time>2022-08-10T16:03:58Z</time>
      </trkpt>
      <trkpt lat="44.47719" lon="1.28232">
        <ele>103.2</ele>
        <time>2022-08-10T16:04:00Z</time>
      </trkpt>
      <trkpt lat="44.47721" lon="1.28221">
        <ele>103.4</ele>
        <time>2022-08-10T16:04:02Z</time>
      </trkpt>
      <trkpt lat="44.47725" lon="1.28209">
        <ele>103.5</ele>
        <time>2022-08-10T16:04:04Z</time>
      </trkpt>
      <trkpt lat="44.47731" lon="1.28201">
        <ele>103.6</ele>
        <time>2022-08-10T16:04:06Z</time>
      </trkpt>
      <trkpt lat="44.47737" lon="1.28194">
        <ele>103.7</ele>
        <time>2022-08-10T16:04:08Z</time>
      </trkpt>
      <trkpt lat="44.47745" lon="1.28188">
        <ele>103.7</ele>
        <time>2022-08-10T16:04:10Z</time>
      </trkpt>
      <trkpt lat="44.47751" lon="1.28183">
        <ele>103.7</ele>
        <time>2022-08-10T16:04:12Z</time>
      </trkpt>
      <trkpt lat="44.47759" lon="1.28178">
        <ele>103.5</ele>
        <time>2022-08-10T16:04:14Z</time>
      </trkpt>
      <trkpt lat="44.47765" lon="1.28173">
        <ele>103.2</ele>
        <time>2022-08-10T16:04:16Z</time>
      </trkpt>
      <trkpt lat="44.47772" lon="1.28168">
        <ele>102.9</ele>
        <time>2022-08-10T16:04:18Z</time>
      </trkpt>
      <trkpt lat="44.47778" lon="1.28163">
        <ele>102.7</ele>
        <time>2022-08-10T16:04:20Z</time>
      </trkpt>
      <trkpt lat="44.47785" lon="1.28158">
        <ele>102.6</ele>
        <time>2022-08-10T16:04:22Z</time>
      </trkpt>
      <trkpt lat="44.47791" lon="1.28153">
        <ele>102.4</ele>
        <time>2022-08-10T16:04:24Z</time>
      </trkpt>
      <trkpt lat="44.47797" lon="1.28148">
        <ele>102.3</ele>
        <time>2022-08-10T16:04:26Z</time>
      </trkpt>
      <trkpt lat="44.47803" lon="1.28144">
        <ele>102.2</ele>
        <time>2022-08-10T16:04:28Z</time>
      </trkpt>
      <trkpt lat="44.47809" lon="1.2814">
        <ele>102.2</ele>
        <time>2022-08-10T16:04:30Z</time>
      </trkpt>
      <trkpt lat="44.47815" lon="1.28135">
        <ele>102.1</ele>
        <time>2022-08-10T16:04:32Z</time>
      </trkpt>
      <trkpt lat="44.47821" lon="1.28131">
        <ele>102.1</ele>
        <time>2022-08-10T16:04:34Z</time>
      </trkpt>
      <trkpt lat="44.47827" lon="1.28127">
        <ele>102.1</ele>
        <time>2022-08-10T16:04:36Z</time>
      </trkpt>
      <trkpt lat="44.47833" lon="1.28123">
        <ele>102.1</ele>
        <time>2022-08-10T16:04:38Z</time>
      </trkpt>
      <trkpt lat="44.47838" lon="1.2812">
        <ele>102.1</ele>
        <time>2022-08-10T16:04:40Z</time>
      </trkpt>
      <trkpt lat="44.47844" lon="1.28116">
        <ele>102.2</ele>
        <time>2022-08-10T16:04:42Z</time>
      </trkpt>
      <trkpt lat="44.4785" lon="1.28112">
        <ele>102.2</ele>
        <time>2022-08-10T16:04:44Z</time>
      </trkpt>
      <trkpt lat="44.47856" lon="1.28107">
        <ele>102.3</ele>
        <time>2022-08-10T16:04:46Z</time>
      </trkpt>
      <trkpt lat="44.47861" lon="1.28102">
        <ele>102.3</ele>
        <time>2022-08-10T16:04:48Z</time>
      </trkpt>
      <trkpt lat="44.47867" lon="1.28098">
        <ele>102.3</ele>
        <time>2022-08-10T16:04:50Z</time>
      </trkpt>
      <trkpt lat="44.47873" lon="1.28095">
        <ele>102.2</ele>
        <time>2022-08-10T16:04:52Z</time>
      </trkpt>
      <trkpt lat="44.47879" lon="1.28091">
        <ele>102.1</ele>
        <time>2022-08-10T16:04:54Z</time>
      </trkpt>
      <trkpt lat="44.47885" lon="1.28087">
        <ele>102.1</ele>
        <time>2022-08-10T16:04:56Z</time>
      </trkpt>
      <trkpt lat="44.47891" lon="1.28083">
        <ele>102</ele>
        <time>2022-08-10T16:04:58Z</time>
      </trkpt>
      <trkpt lat="44.47897" lon="1.28079">
        <ele>102</ele>
        <time>2022-08-10T16:05:00Z</time>
      </trkpt>
      <trkpt lat="44.47903" lon="1.28075">
        <ele>102</ele>
        <time>2022-08-10T16:05:02Z</time>
      </trkpt>
      <trkpt lat="44.47908" lon="1.28071">
        <ele>102</ele>
        <time>2022-08-10T16:05:04Z</time>
      </trkpt>
      <trkpt lat="44.47914" lon="1.28066">
        <ele>102.1</ele>
        <time>2022-08-10T16:05:06Z</time>
      </trkpt>
      <trkpt lat="44.4792" lon="1.28062">
        <ele>102.4</ele>
        <time>2022-08-10T16:05:08Z</time>
      </trkpt>
      <trkpt lat="44.47926" lon="1.28057">
        <ele>102.8</ele>
        <time>2022-08-10T16:05:10Z</time>
      </trkpt>
      <trkpt lat="44.47931" lon="1.28053">
        <ele>103.2</ele>
        <time>2022-08-10T16:05:12Z</time>
      </trkpt>
      <trkpt lat="44.47937" lon="1.28049">
        <ele>103.6</ele>
        <time>2022-08-10T16:05:14Z</time>
      </trkpt>
      <trkpt lat="44.47943" lon="1.28045">
        <ele>104</ele>
        <time>2022-08-10T16:05:16Z</time>
      </trkpt>
      <trkpt lat="44.47949" lon="1.28041">
        <ele>104.3</ele>
        <time>2022-08-10T16:05:18Z</time>
      </trkpt>
      <trkpt lat="44.47955" lon="1.28037">
        <ele>104.7</ele>
        <time>2022-08-10T16:05:20Z</time>
      </trkpt>
      <trkpt lat="44.47962" lon="1.28032">
        <ele>105</ele>
        <time>2022-08-10T16:05:22Z</time>
      </trkpt>
      <trkpt lat="44.47968" lon="1.28028">
        <ele>105.4</ele>
        <time>2022-08-10T16:05:24Z</time>
      </trkpt>
      <trkpt lat="44.47974" lon="1.28023">
        <ele>105.7</ele>
        <time>2022-08-10T16:05:26Z</time>
      </trkpt>
      <trkpt lat="44.4798" lon="1.28019">
        <ele>106</ele>
        <time>2022-08-10T16:05:28Z</time>
      </trkpt>
      <trkpt lat="44.47987" lon="1.28014">
        <ele>106.3</ele>
        <time>2022-08-10T16:05:30Z</time>
      </trkpt>
      <trkpt lat="44.47993" lon="1.28009">
        <ele>106.6</ele>
        <time>2022-08-10T16:05:32Z</time>
      </trkpt>
      <trkpt lat="44.47999" lon="1.28004">
        <ele>106.8</ele>
        <time>2022-08-10T16:05:34Z</time>
      </trkpt>
      <trkpt lat="44.48005" lon="1.27999">
        <ele>106.8</ele>
        <time>2022-08-10T16:05:36Z</time>
      </trkpt>
      <trkpt lat="44.4801" lon="1.27994">
        <ele>106.5</ele>
        <time>2022-08-10T16:05:38Z</time>
      </trkpt>
      <trkpt lat="44.48016" lon="1.27988">
        <ele>106.3</ele>
        <time>2022-08-10T16:05:40Z</time>
      </trkpt>
      <trkpt lat="44.48021" lon="1.27983">
        <ele>106.1</ele>
        <time>2022-08-10T16:05:42Z</time>
      </trkpt>
      <trkpt lat="44.48027" lon="1.27976">
        <ele>105.9</ele>
        <time>2022-08-10T16:05:44Z</time>
      </trkpt>
      <trkpt lat="44.48031" lon="1.27969">
        <ele>105.8</ele>
        <time>2022-08-10T16:05:46Z</time>
      </trkpt>
      <trkpt lat="44.48036" lon="1.27962">
        <ele>105.7</ele>
        <time>2022-08-10T16:05:48Z</time>
      </trkpt>
      <trkpt lat="44.4804" lon="1.27955">
        <ele>105.6</ele>
        <time>2022-08-10T16:05:50Z</time>
      </trkpt>
      <trkpt lat="44.48044" lon="1.27947">
        <ele>105.5</ele>
        <time>2022-08-10T16:05:52Z</time>
      </trkpt>
      <trkpt lat="44.48049" lon="1.27938">
        <ele>105.5</ele>
        <time>2022-08-10T16:05:54Z</time>
      </trkpt>
      <trkpt lat="44.48053" lon="1.2793">
        <ele>105.5</ele>
        <time>2022-08-10T16:05:56Z</time>
      </trkpt>
      <trkpt lat="44.48057" lon="1.27921">
        <ele>105.5</ele>
        <time>2022-08-10T16:05:58Z</time>
      </trkpt>
      <trkpt lat="44.48061" lon="1.27913">
        <ele>105.6</ele>
        <time>2022-08-10T16:06:00Z</time>
      </trkpt>
      <trkpt lat="44.48066" lon="1.27906">
        <ele>105.7</ele>
        <time>2022-08-10T16:06:02Z</time>
      </trkpt>
      <trkpt lat="44.4807" lon="1.27898">
        <ele>105.8</ele>
        <time>2022-08-10T16:06:04Z</time>
      </trkpt>
      <trkpt lat="44.48075" lon="1.2789">
        <ele>105.9</ele>
        <time>2022-08-10T16:06:06Z</time>
      </trkpt>
      <trkpt lat="44.48079" lon="1.27881">
        <ele>106</ele>
        <time>2022-08-10T16:06:08Z</time>
      </trkpt>
      <trkpt lat="44.48083" lon="1.27873">
        <ele>106.1</ele>
        <time>2022-08-10T16:06:10Z</time>
      </trkpt>
      <trkpt lat="44.48087" lon="1.27864">
        <ele>106.3</ele>
        <time>2022-08-10T16:06:12Z</time>
      </trkpt>
      <trkpt lat="44.48091" lon="1.27855">
        <ele>106.5</ele>
        <time>2022-08-10T16:06:14Z</time>
      </trkpt>
      <trkpt lat="44.48095" lon="1.27848">
        <ele>106.8</ele>
        <time>2022-08-10T16:06:16Z</time>
      </trkpt>
      <trkpt lat="44.48099" lon="1.27839">
        <ele>107</ele>
        <time>2022-08-10T16:06:18Z</time>
      </trkpt>
      <trkpt lat="44.48103" lon="1.2783">
        <ele>107.3</ele>
        <time>2022-08-10T16:06:20Z</time>
      </trkpt>
      <trkpt lat="44.48107" lon="1.27823">
        <ele>107.4</ele>
        <time>2022-08-10T16:06:22Z</time>
      </trkpt>
      <trkpt lat="44.48111" lon="1.27814">
        <ele>107.6</ele>
        <time>2022-08-10T16:06:24Z</time>
      </trkpt>
      <trkpt lat="44.48115" lon="1.27806">
        <ele>107.7</ele>
        <time>2022-08-10T16:06:26Z</time>
      </trkpt>
      <trkpt lat="44.48119" lon="1.27798">
        <ele>107.9</ele>
        <time>2022-08-10T16:06:28Z</time>
      </trkpt>
      <trkpt lat="44.48123" lon="1.27791">
        <ele>108</ele>
        <time>2022-08-10T16:06:30Z</time>
      </trkpt>
      <trkpt lat="44.48127" lon="1.27783">
        <ele>108.1</ele>
        <time>2022-08-10T16:06:32Z</time>
      </trkpt>
      <trkpt lat="44.48132" lon="1.27775">
        <ele>108.3</ele>
        <time>2022-08-10T16:06:34Z</time>
      </trkpt>
      <trkpt lat="44.48136" lon="1.27768">
        <ele>108.4</ele>
        <time>2022-08-10T16:06:36Z</time>
      </trkpt>
      <trkpt lat="44.4814" lon="1.27759">
        <ele>108.6</ele>
        <time>2022-08-10T16:06:38Z</time>
      </trkpt>
      <trkpt lat="44.48144" lon="1.27751">
        <ele>108.7</ele>
        <time>2022-08-10T16:06:40Z</time>
      </trkpt>
      <trkpt lat="44.48148" lon="1.27742">
        <ele>108.8</ele>
        <time>2022-08-10T16:06:42Z</time>
      </trkpt>
      <trkpt lat="44.48152" lon="1.27733">
        <ele>108.9</ele>
        <time>2022-08-10T16:06:44Z</time>
      </trkpt>
      <trkpt lat="44.48156" lon="1.27724">
        <ele>108.9</ele>
        <time>2022-08-10T16:06:46Z</time>
      </trkpt>
      <trkpt lat="44.4816" lon="1.27714">
        <ele>109</ele>
        <time>2022-08-10T16:06:48Z</time>
      </trkpt>
      <trkpt lat="44.48164" lon="1.27705">
        <ele>109</ele>
        <time>2022-08-10T16:06:50Z</time>
      </trkpt>
      <trkpt lat="44.48168" lon="1.27696">
        <ele>109</ele>
        <time>2022-08-10T16:06:52Z</time>
      </trkpt>
      <trkpt lat="44.48172" lon="1.27687">
        <ele>108.8</ele>
        <time>2022-08-10T16:06:54Z</time>
      </trkpt>
      <trkpt lat="44.48176" lon="1.27678">
        <ele>108.7</ele>
        <time>2022-08-10T16:06:56Z</time>
      </trkpt>
      <trkpt lat="44.48179" lon="1.27669">
        <ele>108.6</ele>
        <time>2022-08-10T16:06:58Z</time>
      </trkpt>
      <trkpt lat="44.48183" lon="1.27661">
        <ele>108.5</ele>
        <time>2022-08-10T16:07:00Z</time>
      </trkpt>
      <trkpt lat="44.48186" lon="1.27652">
        <ele>108.4</ele>
        <time>2022-08-10T16:07:02Z</time>
      </trkpt>
      <trkpt lat="44.48191" lon="1.27643">
        <ele>108.3</ele>
        <time>2022-08-10T16:07:04Z</time>
      </trkpt>
      <trkpt lat="44.48195" lon="1.27633">
        <ele>108.3</ele>
        <time>2022-08-10T16:07:06Z</time>
      </trkpt>
      <trkpt lat="44.48199" lon="1.27623">
        <ele>108.2</ele>
        <time>2022-08-10T16:07:08Z</time>
      </trkpt>
      <trkpt lat="44.48203" lon="1.27613">
        <ele>108</ele>
        <time>2022-08-10T16:07:10Z</time>
      </trkpt>
      <trkpt lat="44.48208" lon="1.27603">
        <ele>107.9</ele>
        <time>2022-08-10T16:07:12Z</time>
      </trkpt>
      <trkpt lat="44.48212" lon="1.27592">
        <ele>107.8</ele>
        <time>2022-08-10T16:07:14Z</time>
      </trkpt>
      <trkpt lat="44.48216" lon="1.27582">
        <ele>107.7</ele>
        <time>2022-08-10T16:07:16Z</time>
      </trkpt>
      <trkpt lat="44.48221" lon="1.27572">
        <ele>107.9</ele>
        <time>2022-08-10T16:07:18Z</time>
      </trkpt>
      <trkpt lat="44.48225" lon="1.27561">
        <ele>108.1</ele>
        <time>2022-08-10T16:07:20Z</time>
      </trkpt>
      <trkpt lat="44.48229" lon="1.2755">
        <ele>108.4</ele>
        <time>2022-08-10T16:07:22Z</time>
      </trkpt>
      <trkpt lat="44.48234" lon="1.2754">
        <ele>108.5</ele>
        <time>2022-08-10T16:07:24Z</time>
      </trkpt>
      <trkpt lat="44.48238" lon="1.2753">
        <ele>108.7</ele>
        <time>2022-08-10T16:07:26Z</time>
      </trkpt>
      <trkpt lat="44.48243" lon="1.2752">
        <ele>108.8</ele>
        <time>2022-08-10T16:07:28Z</time>
      </trkpt>
      <trkpt lat="44.48247" lon="1.2751">
        <ele>108.8</ele>
        <time>2022-08-10T16:07:30Z</time>
      </trkpt>
      <trkpt lat="44.48251" lon="1.27499">
        <ele>108.9</ele>
        <time>2022-08-10T16:07:32Z</time>
      </trkpt>
      <trkpt lat="44.48256" lon="1.27489">
        <ele>108.8</ele>
        <time>2022-08-10T16:07:34Z</time>
      </trkpt>
      <trkpt lat="44.4826" lon="1.27478">
        <ele>108.6</ele>
        <time>2022-08-10T16:07:36Z</time>
      </trkpt>
      <trkpt lat="44.48264" lon="1.27468">
        <ele>108.5</ele>
        <time>2022-08-10T16:07:38Z</time>
      </trkpt>
      <trkpt lat="44.48268" lon="1.27457">
        <ele>108.3</ele>
        <time>2022-08-10T16:07:40Z</time>
      </trkpt>
      <trkpt lat="44.48272" lon="1.27446">
        <ele>108.2</ele>
        <time>2022-08-10T16:07:42Z</time>
      </trkpt>
      <trkpt lat="44.48276" lon="1.27435">
        <ele>108.1</ele>
        <time>2022-08-10T16:07:44Z</time>
      </trkpt>
      <trkpt lat="44.48279" lon="1.27424">
        <ele>108</ele>
        <time>2022-08-10T16:07:46Z</time>
      </trkpt>
      <trkpt lat="44.48282" lon="1.27412">
        <ele>108</ele>
        <time>2022-08-10T16:07:48Z</time>
      </trkpt>
      <trkpt lat="44.48284" lon="1.27399">
        <ele>108.2</ele>
        <time>2022-08-10T16:07:50Z</time>
      </trkpt>
      <trkpt lat="44.48286" lon="1.27387">
        <ele>108.4</ele>
        <time>2022-08-10T16:07:52Z</time>
      </trkpt>
      <trkpt lat="44.48287" lon="1.27375">
        <ele>108.7</ele>
        <time>2022-08-10T16:07:54Z</time>
      </trkpt>
      <trkpt lat="44.48289" lon="1.27363">
        <ele>108.9</ele>
        <time>2022-08-10T16:07:56Z</time>
      </trkpt>
      <trkpt lat="44.4829" lon="1.2735">
        <ele>109.2</ele>
        <time>2022-08-10T16:07:58Z</time>
      </trkpt>
      <trkpt lat="44.48291" lon="1.27338">
        <ele>109.4</ele>
        <time>2022-08-10T16:08:00Z</time>
      </trkpt>
      <trkpt lat="44.48293" lon="1.27325">
        <ele>109.6</ele>
        <time>2022-08-10T16:08:02Z</time>
      </trkpt>
      <trkpt lat="44.48294" lon="1.27313">
        <ele>109.7</ele>
        <time>2022-08-10T16:08:04Z</time>
      </trkpt>
      <trkpt lat="44.48296" lon="1.27301">
        <ele>109.8</ele>
        <time>2022-08-10T16:08:06Z</time>
      </trkpt>
      <trkpt lat="44.48297" lon="1.27289">
        <ele>109.9</ele>
        <time>2022-08-10T16:08:08Z</time>
      </trkpt>
      <trkpt lat="44.48298" lon="1.27277">
        <ele>110</ele>
        <time>2022-08-10T16:08:10Z</time>
      </trkpt>
      <trkpt lat="44.48298" lon="1.27266">
        <ele>110.1</ele>
        <time>2022-08-10T16:08:12Z</time>
      </trkpt>
      <trkpt lat="44.48298" lon="1.27254">
        <ele>110.3</ele>
        <time>2022-08-10T16:08:14Z</time>
      </trkpt>
      <trkpt lat="44.48299" lon="1.27242">
        <ele>110.6</ele>
        <time>2022-08-10T16:08:16Z</time>
      </trkpt>
      <trkpt lat="44.483" lon="1.27231">
        <ele>110.9</ele>
        <time>2022-08-10T16:08:18Z</time>
      </trkpt>
      <trkpt lat="44.48301" lon="1.2722">
        <ele>111.2</ele>
        <time>2022-08-10T16:08:20Z</time>
      </trkpt>
      <trkpt lat="44.48303" lon="1.27209">
        <ele>111.4</ele>
        <time>2022-08-10T16:08:22Z</time>
      </trkpt>
      <trkpt lat="44.48304" lon="1.27198">
        <ele>111.7</ele>
        <time>2022-08-10T16:08:24Z</time>
      </trkpt>
      <trkpt lat="44.48305" lon="1.27187">
        <ele>112</ele>
        <time>2022-08-10T16:08:26Z</time>
      </trkpt>
      <trkpt lat="44.48306" lon="1.27176">
        <ele>112.2</ele>
        <time>2022-08-10T16:08:28Z</time>
      </trkpt>
      <trkpt lat="44.48308" lon="1.27165">
        <ele>112.4</ele>
        <time>2022-08-10T16:08:30Z</time>
      </trkpt>
      <trkpt lat="44.4831" lon="1.27155">
        <ele>112.6</ele>
        <time>2022-08-10T16:08:32Z</time>
      </trkpt>
      <trkpt lat="44.48312" lon="1.27144">
        <ele>112.7</ele>
        <time>2022-08-10T16:08:34Z</time>
      </trkpt>
      <trkpt lat="44.48313" lon="1.27132">
        <ele>112.9</ele>
        <time>2022-08-10T16:08:36Z</time>
      </trkpt>
      <trkpt lat="44.48315" lon="1.27122">
        <ele>113.1</ele>
        <time>2022-08-10T16:08:38Z</time>
      </trkpt>
      <trkpt lat="44.48316" lon="1.2711">
        <ele>113.3</ele>
        <time>2022-08-10T16:08:40Z</time>
      </trkpt>
      <trkpt lat="44.48317" lon="1.27099">
        <ele>113.6</ele>
        <time>2022-08-10T16:08:42Z</time>
      </trkpt>
      <trkpt lat="44.48318" lon="1.27087">
        <ele>113.8</ele>
        <time>2022-08-10T16:08:44Z</time>
      </trkpt>
      <trkpt lat="44.48319" lon="1.27076">
        <ele>113.8</ele>
        <time>2022-08-10T16:08:46Z</time>
      </trkpt>
      <trkpt lat="44.4832" lon="1.27065">
        <ele>113.8</ele>
        <time>2022-08-10T16:08:48Z</time>
      </trkpt>
      <trkpt lat="44.48322" lon="1.27053">
        <ele>113.7</ele>
        <time>2022-08-10T16:08:50Z</time>
      </trkpt>
      <trkpt lat="44.48323" lon="1.27042">
        <ele>113.6</ele>
        <time>2022-08-10T16:08:52Z</time>
      </trkpt>
      <trkpt lat="44.48325" lon="1.2703">
        <ele>113.5</ele>
        <time>2022-08-10T16:08:54Z</time>
      </trkpt>
      <trkpt lat="44.48326" lon="1.27019">
        <ele>113.6</ele>
        <time>2022-08-10T16:08:56Z</time>
      </trkpt>
      <trkpt lat="44.48327" lon="1.27007">
        <ele>113.7</ele>
        <time>2022-08-10T16:08:58Z</time>
      </trkpt>
      <trkpt lat="44.48329" lon="1.26995">
        <ele>113.5</ele>
        <time>2022-08-10T16:09:00Z</time>
      </trkpt>
      <trkpt lat="44.4833" lon="1.26983">
        <ele>113.1</ele>
        <time>2022-08-10T16:09:02Z</time>
      </trkpt>
      <trkpt lat="44.48331" lon="1.26971">
        <ele>112.6</ele>
        <time>2022-08-10T16:09:04Z</time>
      </trkpt>
      <trkpt lat="44.48333" lon="1.26959">
        <ele>112.1</ele>
        <time>2022-08-10T16:09:06Z</time>
      </trkpt>
      <trkpt lat="44.48334" lon="1.26948">
        <ele>111.7</ele>
        <time>2022-08-10T16:09:08Z</time>
      </trkpt>
      <trkpt lat="44.48335" lon="1.26936">
        <ele>111.4</ele>
        <time>2022-08-10T16:09:10Z</time>
      </trkpt>
      <trkpt lat="44.48336" lon="1.26925">
        <ele>111</ele>
        <time>2022-08-10T16:09:12Z</time>
      </trkpt>
      <trkpt lat="44.48336" lon="1.26913">
        <ele>110.8</ele>
        <time>2022-08-10T16:09:14Z</time>
      </trkpt>
      <trkpt lat="44.48336" lon="1.26901">
        <ele>110.8</ele>
        <time>2022-08-10T16:09:16Z</time>
      </trkpt>
      <trkpt lat="44.48337" lon="1.2689">
        <ele>110.7</ele>
        <time>2022-08-10T16:09:18Z</time>
      </trkpt>
      <trkpt lat="44.48337" lon="1.26878">
        <ele>110.7</ele>
        <time>2022-08-10T16:09:20Z</time>
      </trkpt>
      <trkpt lat="44.48337" lon="1.26866">
        <ele>110.7</ele>
        <time>2022-08-10T16:09:22Z</time>
      </trkpt>
      <trkpt lat="44.48336" lon="1.26856">
        <ele>110.8</ele>
        <time>2022-08-10T16:09:24Z</time>
      </trkpt>
      <trkpt lat="44.48335" lon="1.26844">
        <ele>110.9</ele>
        <time>2022-08-10T16:09:26Z</time>
      </trkpt>
      <trkpt lat="44.48333" lon="1.26834">
        <ele>111</ele>
        <time>2022-08-10T16:09:28Z</time>
      </trkpt>
      <trkpt lat="44.48333" lon="1.26824">
        <ele>111.6</ele>
        <time>2022-08-10T16:09:30Z</time>
      </trkpt>
      <trkpt lat="44.48332" lon="1.26815">
        <ele>112.3</ele>
        <time>2022-08-10T16:09:32Z</time>
      </trkpt>
      <trkpt lat="44.48331" lon="1.26806">
        <ele>112.9</ele>
        <time>2022-08-10T16:09:34Z</time>
      </trkpt>
      <trkpt lat="44.48331" lon="1.26798">
        <ele>113.5</ele>
        <time>2022-08-10T16:09:36Z</time>
      </trkpt>
      <trkpt lat="44.4833" lon="1.26791">
        <ele>114</ele>
        <time>2022-08-10T16:09:38Z</time>
      </trkpt>
      <trkpt lat="44.4833" lon="1.26784">
        <ele>114.5</ele>
        <time>2022-08-10T16:09:40Z</time>
      </trkpt>
      <trkpt lat="44.48329" lon="1.26778">
        <ele>115</ele>
        <time>2022-08-10T16:09:42Z</time>
      </trkpt>
      <trkpt lat="44.48328" lon="1.26772">
        <ele>115.4</ele>
        <time>2022-08-10T16:09:44Z</time>
      </trkpt>
      <trkpt lat="44.48327" lon="1.26765">
        <ele>115.9</ele>
        <time>2022-08-10T16:09:46Z</time>
      </trkpt>
      <trkpt lat="44.48327" lon="1.26758">
        <ele>116.4</ele>
        <time>2022-08-10T16:09:48Z</time>
      </trkpt>
      <trkpt lat="44.48327" lon="1.26752">
        <ele>116.7</ele>
        <time>2022-08-10T16:09:50Z</time>
      </trkpt>
      <trkpt lat="44.48327" lon="1.26745">
        <ele>117.2</ele>
        <time>2022-08-10T16:09:52Z</time>
      </trkpt>
      <trkpt lat="44.48328" lon="1.26739">
        <ele>117.5</ele>
        <time>2022-08-10T16:09:54Z</time>
      </trkpt>
      <trkpt lat="44.48327" lon="1.26733">
        <ele>118</ele>
        <time>2022-08-10T16:09:56Z</time>
      </trkpt>
      <trkpt lat="44.48328" lon="1.26727">
        <ele>118.3</ele>
        <time>2022-08-10T16:09:58Z</time>
      </trkpt>
      <trkpt lat="44.48328" lon="1.26721">
        <ele>118.7</ele>
        <time>2022-08-10T16:10:00Z</time>
      </trkpt>
      <trkpt lat="44.48328" lon="1.26716">
        <ele>119</ele>
        <time>2022-08-10T16:10:02Z</time>
      </trkpt>
      <trkpt lat="44.48329" lon="1.2671">
        <ele>119.3</ele>
        <time>2022-08-10T16:10:04Z</time>
      </trkpt>
      <trkpt lat="44.4833" lon="1.26704">
        <ele>119.3</ele>
        <time>2022-08-10T16:10:06Z</time>
      </trkpt>
      <trkpt lat="44.48331" lon="1.26698">
        <ele>119.6</ele>
        <time>2022-08-10T16:10:08Z</time>
      </trkpt>
      <trkpt lat="44.48332" lon="1.26693">
        <ele>119.7</ele>
        <time>2022-08-10T16:10:10Z</time>
      </trkpt>
      <trkpt lat="44.48333" lon="1.26688">
        <ele>119.8</ele>
        <time>2022-08-10T16:10:12Z</time>
      </trkpt>
      <trkpt lat="44.48334" lon="1.26683">
        <ele>119.9</ele>
        <time>2022-08-10T16:10:14Z</time>
      </trkpt>
      <trkpt lat="44.48335" lon="1.26678">
        <ele>120.1</ele>
        <time>2022-08-10T16:10:16Z</time>
      </trkpt>
      <trkpt lat="44.48337" lon="1.26673">
        <ele>120.2</ele>
        <time>2022-08-10T16:10:18Z</time>
      </trkpt>
      <trkpt lat="44.48338" lon="1.26668">
        <ele>120.3</ele>
        <time>2022-08-10T16:10:20Z</time>
      </trkpt>
      <trkpt lat="44.48339" lon="1.26663">
        <ele>120.7</ele>
        <time>2022-08-10T16:10:22Z</time>
      </trkpt>
      <trkpt lat="44.4834" lon="1.26658">
        <ele>121</ele>
        <time>2022-08-10T16:10:24Z</time>
      </trkpt>
      <trkpt lat="44.48342" lon="1.26653">
        <ele>121.4</ele>
        <time>2022-08-10T16:10:26Z</time>
      </trkpt>
      <trkpt lat="44.48344" lon="1.26647">
        <ele>121.7</ele>
        <time>2022-08-10T16:10:28Z</time>
      </trkpt>
      <trkpt lat="44.48344" lon="1.26642">
        <ele>122.1</ele>
        <time>2022-08-10T16:10:30Z</time>
      </trkpt>
      <trkpt lat="44.48346" lon="1.26637">
        <ele>122.5</ele>
        <time>2022-08-10T16:10:32Z</time>
      </trkpt>
      <trkpt lat="44.48347" lon="1.26633">
        <ele>122.7</ele>
        <time>2022-08-10T16:10:34Z</time>
      </trkpt>
      <trkpt lat="44.48348" lon="1.26628">
        <ele>123</ele>
        <time>2022-08-10T16:10:36Z</time>
      </trkpt>
      <trkpt lat="44.4835" lon="1.26623">
        <ele>123.2</ele>
        <time>2022-08-10T16:10:38Z</time>
      </trkpt>
      <trkpt lat="44.48351" lon="1.26618">
        <ele>123.4</ele>
        <time>2022-08-10T16:10:40Z</time>
      </trkpt>
      <trkpt lat="44.48352" lon="1.26613">
        <ele>123.7</ele>
        <time>2022-08-10T16:10:42Z</time>
      </trkpt>
      <trkpt lat="44.48353" lon="1.26608">
        <ele>123.9</ele>
        <time>2022-08-10T16:10:44Z</time>
      </trkpt>
      <trkpt lat="44.48354" lon="1.26603">
        <ele>124.2</ele>
        <time>2022-08-10T16:10:46Z</time>
      </trkpt>
      <trkpt lat="44.48355" lon="1.26598">
        <ele>124.4</ele>
        <time>2022-08-10T16:10:48Z</time>
      </trkpt>
      <trkpt lat="44.48356" lon="1.26593">
        <ele>124.7</ele>
        <time>2022-08-10T16:10:50Z</time>
      </trkpt>
      <trkpt lat="44.48358" lon="1.26588">
        <ele>124.8</ele>
        <time>2022-08-10T16:10:52Z</time>
      </trkpt>
      <trkpt lat="44.48358" lon="1.26583">
        <ele>125.1</ele>
        <time>2022-08-10T16:10:54Z</time>
      </trkpt>
      <trkpt lat="44.48359" lon="1.26578">
        <ele>125.2</ele>
        <time>2022-08-10T16:10:56Z</time>
      </trkpt>
      <trkpt lat="44.48359" lon="1.26574">
        <ele>125.4</ele>
        <time>2022-08-10T16:10:58Z</time>
      </trkpt>
      <trkpt lat="44.4836" lon="1.26569">
        <ele>125.6</ele>
        <time>2022-08-10T16:11:00Z</time>
      </trkpt>
      <trkpt lat="44.48361" lon="1.26564">
        <ele>125.7</ele>
        <time>2022-08-10T16:11:02Z</time>
      </trkpt>
      <trkpt lat="44.48361" lon="1.2656">
        <ele>126</ele>
        <time>2022-08-10T16:11:04Z</time>
      </trkpt>
      <trkpt lat="44.48362" lon="1.26555">
        <ele>126.3</ele>
        <time>2022-08-10T16:11:06Z</time>
      </trkpt>
      <trkpt lat="44.48362" lon="1.2655">
        <ele>126.5</ele>
        <time>2022-08-10T16:11:08Z</time>
      </trkpt>
      <trkpt lat="44.48363" lon="1.26545">
        <ele>126.8</ele>
        <time>2022-08-10T16:11:10Z</time>
      </trkpt>
      <trkpt lat="44.48363" lon="1.2654">
        <ele>127</ele>
        <time>2022-08-10T16:11:12Z</time>
      </trkpt>
      <trkpt lat="44.48363" lon="1.26535">
        <ele>127.4</ele>
        <time>2022-08-10T16:11:14Z</time>
      </trkpt>
      <trkpt lat="44.48363" lon="1.2653">
        <ele>127.8</ele>
        <time>2022-08-10T16:11:16Z</time>
      </trkpt>
      <trkpt lat="44.48362" lon="1.26524">
        <ele>128.4</ele>
        <time>2022-08-10T16:11:18Z</time>
      </trkpt>
      <trkpt lat="44.48362" lon="1.2652">
        <ele>128.6</ele>
        <time>2022-08-10T16:11:20Z</time>
      </trkpt>
      <trkpt lat="44.48361" lon="1.26515">
        <ele>129.2</ele>
        <time>2022-08-10T16:11:22Z</time>
      </trkpt>
      <trkpt lat="44.48361" lon="1.2651">
        <ele>129.5</ele>
        <time>2022-08-10T16:11:24Z</time>
      </trkpt>
      <trkpt lat="44.48362" lon="1.26506">
        <ele>129.8</ele>
        <time>2022-08-10T16:11:26Z</time>
      </trkpt>
      <trkpt lat="44.48361" lon="1.26502">
        <ele>130.2</ele>
        <time>2022-08-10T16:11:28Z</time>
      </trkpt>
      <trkpt lat="44.4836" lon="1.26496">
        <ele>130.6</ele>
        <time>2022-08-10T16:11:30Z</time>
      </trkpt>
      <trkpt lat="44.48359" lon="1.26492">
        <ele>130.9</ele>
        <time>2022-08-10T16:11:32Z</time>
      </trkpt>
      <trkpt lat="44.48358" lon="1.26487">
        <ele>131.3</ele>
        <time>2022-08-10T16:11:34Z</time>
      </trkpt>
      <trkpt lat="44.48357" lon="1.26482">
        <ele>131.6</ele>
        <time>2022-08-10T16:11:36Z</time>
      </trkpt>
      <trkpt lat="44.48356" lon="1.26478">
        <ele>131.9</ele>
        <time>2022-08-10T16:11:38Z</time>
      </trkpt>
      <trkpt lat="44.48355" lon="1.26473">
        <ele>132.2</ele>
        <time>2022-08-10T16:11:40Z</time>
      </trkpt>
      <trkpt lat="44.48354" lon="1.26468">
        <ele>132.5</ele>
        <time>2022-08-10T16:11:42Z</time>
      </trkpt>
      <trkpt lat="44.48353" lon="1.26464">
        <ele>132.8</ele>
        <time>2022-08-10T16:11:44Z</time>
      </trkpt>
      <trkpt lat="44.48352" lon="1.2646">
        <ele>133.1</ele>
        <time>2022-08-10T16:11:46Z</time>
      </trkpt>
      <trkpt lat="44.4835" lon="1.26455">
        <ele>133.5</ele>
        <time>2022-08-10T16:11:48Z</time>
      </trkpt>
      <trkpt lat="44.48349" lon="1.26451">
        <ele>133.9</ele>
        <time>2022-08-10T16:11:50Z</time>
      </trkpt>
      <trkpt lat="44.48348" lon="1.26447">
        <ele>134.1</ele>
        <time>2022-08-10T16:11:52Z</time>
      </trkpt>
      <trkpt lat="44.48346" lon="1.26442">
        <ele>134.5</ele>
        <time>2022-08-10T16:11:54Z</time>
      </trkpt>
      <trkpt lat="44.48344" lon="1.26438">
        <ele>134.9</ele>
        <time>2022-08-10T16:11:56Z</time>
      </trkpt>
      <trkpt lat="44.48342" lon="1.26434">
        <ele>135.3</ele>
        <time>2022-08-10T16:11:58Z</time>
      </trkpt>
      <trkpt lat="44.4834" lon="1.2643">
        <ele>135.7</ele>
        <time>2022-08-10T16:12:00Z</time>
      </trkpt>
      <trkpt lat="44.48339" lon="1.26426">
        <ele>136</ele>
        <time>2022-08-10T16:12:02Z</time>
      </trkpt>
      <trkpt lat="44.48336" lon="1.26422">
        <ele>136.5</ele>
        <time>2022-08-10T16:12:04Z</time>
      </trkpt>
      <trkpt lat="44.48334" lon="1.26419">
        <ele>136.8</ele>
        <time>2022-08-10T16:12:06Z</time>
      </trkpt>
      <trkpt lat="44.48332" lon="1.26415">
        <ele>137.1</ele>
        <time>2022-08-10T16:12:08Z</time>
      </trkpt>
      <trkpt lat="44.48329" lon="1.26412">
        <ele>137.6</ele>
        <time>2022-08-10T16:12:10Z</time>
      </trkpt>
      <trkpt lat="44.48327" lon="1.26408">
        <ele>138</ele>
        <time>2022-08-10T16:12:12Z</time>
      </trkpt>
      <trkpt lat="44.48324" lon="1.26405">
        <ele>138.3</ele>
        <time>2022-08-10T16:12:14Z</time>
      </trkpt>
      <trkpt lat="44.48322" lon="1.26402">
        <ele>138.6</ele>
        <time>2022-08-10T16:12:16Z</time>
      </trkpt>
      <trkpt lat="44.48319" lon="1.26399">
        <ele>138.9</ele>
        <time>2022-08-10T16:12:18Z</time>
      </trkpt>
      <trkpt lat="44.48317" lon="1.26396">
        <ele>139.2</ele>
        <time>2022-08-10T16:12:20Z</time>
      </trkpt>
      <trkpt lat="44.48314" lon="1.26394">
        <ele>139.5</ele>
        <time>2022-08-10T16:12:22Z</time>
      </trkpt>
      <trkpt lat="44.48312" lon="1.26391">
        <ele>139.7</ele>
        <time>2022-08-10T16:12:24Z</time>
      </trkpt>
      <trkpt lat="44.48309" lon="1.26388">
        <ele>140.1</ele>
        <time>2022-08-10T16:12:26Z</time>
      </trkpt>
      <trkpt lat="44.48306" lon="1.26385">
        <ele>140.4</ele>
        <time>2022-08-10T16:12:28Z</time>
      </trkpt>
      <trkpt lat="44.48302" lon="1.26382">
        <ele>140.7</ele>
        <time>2022-08-10T16:12:30Z</time>
      </trkpt>
      <trkpt lat="44.483" lon="1.26379">
        <ele>140.9</ele>
        <time>2022-08-10T16:12:32Z</time>
      </trkpt>
      <trkpt lat="44.48297" lon="1.26377">
        <ele>141.2</ele>
        <time>2022-08-10T16:12:34Z</time>
      </trkpt>
      <trkpt lat="44.48294" lon="1.26375">
        <ele>141.5</ele>
        <time>2022-08-10T16:12:36Z</time>
      </trkpt>
      <trkpt lat="44.48291" lon="1.26372">
        <ele>141.7</ele>
        <time>2022-08-10T16:12:38Z</time>
      </trkpt>
      <trkpt lat="44.48288" lon="1.2637">
        <ele>142</ele>
        <time>2022-08-10T16:12:40Z</time>
      </trkpt>
      <trkpt lat="44.48285" lon="1.26367">
        <ele>142.2</ele>
        <time>2022-08-10T16:12:42Z</time>
      </trkpt>
      <trkpt lat="44.48282" lon="1.26364">
        <ele>142.3</ele>
        <time>2022-08-10T16:12:44Z</time>
      </trkpt>
      <trkpt lat="44.48278" lon="1.26362">
        <ele>142.6</ele>
        <time>2022-08-10T16:12:46Z</time>
      </trkpt>
      <trkpt lat="44.48275" lon="1.2636">
        <ele>142.8</ele>
        <time>2022-08-10T16:12:48Z</time>
      </trkpt>
      <trkpt lat="44.48272" lon="1.26358">
        <ele>142.9</ele>
        <time>2022-08-10T16:12:50Z</time>
      </trkpt>
      <trkpt lat="44.4827" lon="1.26355">
        <ele>143</ele>
        <time>2022-08-10T16:12:52Z</time>
      </trkpt>
      <trkpt lat="44.48266" lon="1.26353">
        <ele>143.1</ele>
        <time>2022-08-10T16:12:54Z</time>
      </trkpt>
      <trkpt lat="44.48263" lon="1.26351">
        <ele>143.3</ele>
        <time>2022-08-10T16:12:56Z</time>
      </trkpt>
      <trkpt lat="44.48261" lon="1.26348">
        <ele>143.3</ele>
        <time>2022-08-10T16:12:58Z</time>
      </trkpt>
      <trkpt lat="44.48258" lon="1.26346">
        <ele>143.5</ele>
        <time>2022-08-10T16:13:00Z</time>
      </trkpt>
      <trkpt lat="44.48254" lon="1.26344">
        <ele>143.6</ele>
        <time>2022-08-10T16:13:02Z</time>
      </trkpt>
      <trkpt lat="44.48251" lon="1.26342">
        <ele>143.7</ele>
        <time>2022-08-10T16:13:04Z</time>
      </trkpt>
      <trkpt lat="44.48249" lon="1.26339">
        <ele>143.8</ele>
        <time>2022-08-10T16:13:06Z</time>
      </trkpt>
      <trkpt lat="44.48245" lon="1.26337">
        <ele>144.3</ele>
        <time>2022-08-10T16:13:08Z</time>
      </trkpt>
      <trkpt lat="44.48242" lon="1.26334">
        <ele>144.7</ele>
        <time>2022-08-10T16:13:10Z</time>
      </trkpt>
      <trkpt lat="44.48239" lon="1.26332">
        <ele>145.1</ele>
        <time>2022-08-10T16:13:12Z</time>
      </trkpt>
      <trkpt lat="44.48235" lon="1.2633">
        <ele>145.7</ele>
        <time>2022-08-10T16:13:14Z</time>
      </trkpt>
      <trkpt lat="44.48232" lon="1.26327">
        <ele>146.2</ele>
        <time>2022-08-10T16:13:16Z</time>
      </trkpt>
      <trkpt lat="44.48229" lon="1.26325">
        <ele>146.7</ele>
        <time>2022-08-10T16:13:18Z</time>
      </trkpt>
      <trkpt lat="44.48226" lon="1.26322">
        <ele>147.1</ele>
        <time>2022-08-10T16:13:20Z</time>
      </trkpt>
      <trkpt lat="44.48223" lon="1.2632">
        <ele>147.6</ele>
        <time>2022-08-10T16:13:22Z</time>
      </trkpt>
      <trkpt lat="44.4822" lon="1.26318">
        <ele>148</ele>
        <time>2022-08-10T16:13:24Z</time>
      </trkpt>
      <trkpt lat="44.48217" lon="1.26314">
        <ele>148.4</ele>
        <time>2022-08-10T16:13:26Z</time>
      </trkpt>
      <trkpt lat="44.48214" lon="1.26311">
        <ele>148.6</ele>
        <time>2022-08-10T16:13:28Z</time>
      </trkpt>
      <trkpt lat="44.48212" lon="1.26307">
        <ele>148.7</ele>
        <time>2022-08-10T16:13:30Z</time>
      </trkpt>
      <trkpt lat="44.48209" lon="1.26303">
        <ele>149.1</ele>
        <time>2022-08-10T16:13:32Z</time>
      </trkpt>
      <trkpt lat="44.48207" lon="1.26299">
        <ele>149.1</ele>
        <time>2022-08-10T16:13:34Z</time>
      </trkpt>
      <trkpt lat="44.48204" lon="1.26296">
        <ele>149.4</ele>
        <time>2022-08-10T16:13:36Z</time>
      </trkpt>
      <trkpt lat="44.48202" lon="1.26292">
        <ele>149.6</ele>
        <time>2022-08-10T16:13:38Z</time>
      </trkpt>
      <trkpt lat="44.482" lon="1.26288">
        <ele>149.6</ele>
        <time>2022-08-10T16:13:40Z</time>
      </trkpt>
      <trkpt lat="44.48197" lon="1.26285">
        <ele>149.8</ele>
        <time>2022-08-10T16:13:42Z</time>
      </trkpt>
      <trkpt lat="44.48195" lon="1.26281">
        <ele>149.8</ele>
        <time>2022-08-10T16:13:44Z</time>
      </trkpt>
      <trkpt lat="44.48193" lon="1.26277">
        <ele>149.8</ele>
        <time>2022-08-10T16:13:46Z</time>
      </trkpt>
      <trkpt lat="44.48191" lon="1.26273">
        <ele>149.8</ele>
        <time>2022-08-10T16:13:48Z</time>
      </trkpt>
      <trkpt lat="44.48189" lon="1.26269">
        <ele>149.8</ele>
        <time>2022-08-10T16:13:50Z</time>
      </trkpt>
      <trkpt lat="44.48187" lon="1.26265">
        <ele>149.7</ele>
        <time>2022-08-10T16:13:52Z</time>
      </trkpt>
      <trkpt lat="44.48184" lon="1.26261">
        <ele>149.7</ele>
        <time>2022-08-10T16:13:54Z</time>
      </trkpt>
      <trkpt lat="44.48183" lon="1.26257">
        <ele>149.6</ele>
        <time>2022-08-10T16:13:56Z</time>
      </trkpt>
      <trkpt lat="44.48181" lon="1.26253">
        <ele>149.5</ele>
        <time>2022-08-10T16:13:58Z</time>
      </trkpt>
      <trkpt lat="44.48179" lon="1.26249">
        <ele>149.4</ele>
        <time>2022-08-10T16:14:00Z</time>
      </trkpt>
      <trkpt lat="44.48177" lon="1.26245">
        <ele>149.3</ele>
        <time>2022-08-10T16:14:02Z</time>
      </trkpt>
      <trkpt lat="44.48175" lon="1.26241">
        <ele>149.1</ele>
        <time>2022-08-10T16:14:04Z</time>
      </trkpt>
      <trkpt lat="44.48172" lon="1.26236">
        <ele>148.9</ele>
        <time>2022-08-10T16:14:06Z</time>
      </trkpt>
      <trkpt lat="44.4817" lon="1.26231">
        <ele>148.6</ele>
        <time>2022-08-10T16:14:08Z</time>
      </trkpt>
      <trkpt lat="44.48167" lon="1.26226">
        <ele>148.4</ele>
        <time>2022-08-10T16:14:10Z</time>
      </trkpt>
      <trkpt lat="44.48165" lon="1.26222">
        <ele>148.4</ele>
        <time>2022-08-10T16:14:12Z</time>
      </trkpt>
      <trkpt lat="44.48162" lon="1.26217">
        <ele>148.3</ele>
        <time>2022-08-10T16:14:14Z</time>
      </trkpt>
      <trkpt lat="44.48159" lon="1.26212">
        <ele>148.3</ele>
        <time>2022-08-10T16:14:16Z</time>
      </trkpt>
      <trkpt lat="44.48156" lon="1.26207">
        <ele>148.2</ele>
        <time>2022-08-10T16:14:18Z</time>
      </trkpt>
      <trkpt lat="44.48153" lon="1.26201">
        <ele>148.1</ele>
        <time>2022-08-10T16:14:20Z</time>
      </trkpt>
      <trkpt lat="44.48151" lon="1.26197">
        <ele>148</ele>
        <time>2022-08-10T16:14:22Z</time>
      </trkpt>
      <trkpt lat="44.48149" lon="1.26193">
        <ele>147.9</ele>
        <time>2022-08-10T16:14:24Z</time>
      </trkpt>
      <trkpt lat="44.48147" lon="1.26188">
        <ele>147.7</ele>
        <time>2022-08-10T16:14:26Z</time>
      </trkpt>
      <trkpt lat="44.48144" lon="1.26182">
        <ele>147.4</ele>
        <time>2022-08-10T16:14:28Z</time>
      </trkpt>
      <trkpt lat="44.4814" lon="1.26176">
        <ele>147.2</ele>
        <time>2022-08-10T16:14:30Z</time>
      </trkpt>
      <trkpt lat="44.48137" lon="1.26169">
        <ele>147</ele>
        <time>2022-08-10T16:14:32Z</time>
      </trkpt>
      <trkpt lat="44.48132" lon="1.26162">
        <ele>147.2</ele>
        <time>2022-08-10T16:14:34Z</time>
      </trkpt>
      <trkpt lat="44.48128" lon="1.26154">
        <ele>147.4</ele>
        <time>2022-08-10T16:14:36Z</time>
      </trkpt>
      <trkpt lat="44.48124" lon="1.26148">
        <ele>147.7</ele>
        <time>2022-08-10T16:14:38Z</time>
      </trkpt>
      <trkpt lat="44.4812" lon="1.26141">
        <ele>148</ele>
        <time>2022-08-10T16:14:40Z</time>
      </trkpt>
      <trkpt lat="44.48116" lon="1.26133">
        <ele>148.1</ele>
        <time>2022-08-10T16:14:42Z</time>
      </trkpt>
      <trkpt lat="44.48112" lon="1.26126">
        <ele>148.3</ele>
        <time>2022-08-10T16:14:44Z</time>
      </trkpt>
      <trkpt lat="44.48108" lon="1.26118">
        <ele>148.4</ele>
        <time>2022-08-10T16:14:46Z</time>
      </trkpt>
      <trkpt lat="44.48104" lon="1.2611">
        <ele>148.4</ele>
        <time>2022-08-10T16:14:48Z</time>
      </trkpt>
      <trkpt lat="44.48099" lon="1.26102">
        <ele>148.5</ele>
        <time>2022-08-10T16:14:50Z</time>
      </trkpt>
      <trkpt lat="44.48095" lon="1.26095">
        <ele>148.5</ele>
        <time>2022-08-10T16:14:52Z</time>
      </trkpt>
      <trkpt lat="44.48091" lon="1.26087">
        <ele>148.4</ele>
        <time>2022-08-10T16:14:54Z</time>
      </trkpt>
      <trkpt lat="44.48087" lon="1.26079">
        <ele>148.4</ele>
        <time>2022-08-10T16:14:56Z</time>
      </trkpt>
      <trkpt lat="44.48083" lon="1.26071">
        <ele>148.2</ele>
        <time>2022-08-10T16:14:58Z</time>
      </trkpt>
      <trkpt lat="44.48079" lon="1.26063">
        <ele>147.8</ele>
        <time>2022-08-10T16:15:00Z</time>
      </trkpt>
      <trkpt lat="44.48074" lon="1.26055">
        <ele>147.5</ele>
        <time>2022-08-10T16:15:02Z</time>
      </trkpt>
      <trkpt lat="44.4807" lon="1.26047">
        <ele>147.2</ele>
        <time>2022-08-10T16:15:04Z</time>
      </trkpt>
      <trkpt lat="44.48067" lon="1.2604">
        <ele>146.8</ele>
        <time>2022-08-10T16:15:06Z</time>
      </trkpt>
      <trkpt lat="44.48062" lon="1.26032">
        <ele>146.6</ele>
        <time>2022-08-10T16:15:08Z</time>
      </trkpt>
      <trkpt lat="44.48056" lon="1.26023">
        <ele>146.1</ele>
        <time>2022-08-10T16:15:10Z</time>
      </trkpt>
      <trkpt lat="44.48051" lon="1.26015">
        <ele>145.8</ele>
        <time>2022-08-10T16:15:12Z</time>
      </trkpt>
      <trkpt lat="44.48044" lon="1.26006">
        <ele>145.4</ele>
        <time>2022-08-10T16:15:14Z</time>
      </trkpt>
      <trkpt lat="44.48036" lon="1.25997">
        <ele>145.1</ele>
        <time>2022-08-10T16:15:16Z</time>
      </trkpt>
      <trkpt lat="44.48028" lon="1.25988">
        <ele>144.9</ele>
        <time>2022-08-10T16:15:18Z</time>
      </trkpt>
      <trkpt lat="44.48019" lon="1.25979">
        <ele>144.6</ele>
        <time>2022-08-10T16:15:20Z</time>
      </trkpt>
      <trkpt lat="44.48008" lon="1.25969">
        <ele>144.1</ele>
        <time>2022-08-10T16:15:22Z</time>
      </trkpt>
      <trkpt lat="44.47997" lon="1.25958">
        <ele>143.5</ele>
        <time>2022-08-10T16:15:24Z</time>
      </trkpt>
      <trkpt lat="44.47987" lon="1.25947">
        <ele>142.9</ele>
        <time>2022-08-10T16:15:26Z</time>
      </trkpt>
      <trkpt lat="44.47976" lon="1.25935">
        <ele>142</ele>
        <time>2022-08-10T16:15:28Z</time>
      </trkpt>
      <trkpt lat="44.47964" lon="1.25923">
        <ele>141.1</ele>
        <time>2022-08-10T16:15:30Z</time>
      </trkpt>
      <trkpt lat="44.47952" lon="1.25911">
        <ele>140.1</ele>
        <time>2022-08-10T16:15:32Z</time>
      </trkpt>
      <trkpt lat="44.4794" lon="1.25899">
        <ele>139.3</ele>
        <time>2022-08-10T16:15:34Z</time>
      </trkpt>
      <trkpt lat="44.47928" lon="1.25886">
        <ele>138.4</ele>
        <time>2022-08-10T16:15:36Z</time>
      </trkpt>
      <trkpt lat="44.47916" lon="1.25874">
        <ele>137.5</ele>
        <time>2022-08-10T16:15:38Z</time>
      </trkpt>
      <trkpt lat="44.47903" lon="1.25861">
        <ele>137.1</ele>
        <time>2022-08-10T16:15:40Z</time>
      </trkpt>
      <trkpt lat="44.4789" lon="1.25848">
        <ele>136.7</ele>
        <time>2022-08-10T16:15:42Z</time>
      </trkpt>
      <trkpt lat="44.47878" lon="1.25835">
        <ele>136.1</ele>
        <time>2022-08-10T16:15:44Z</time>
      </trkpt>
      <trkpt lat="44.47866" lon="1.25822">
        <ele>135.7</ele>
        <time>2022-08-10T16:15:46Z</time>
      </trkpt>
      <trkpt lat="44.47853" lon="1.25809">
        <ele>135.3</ele>
        <time>2022-08-10T16:15:48Z</time>
      </trkpt>
      <trkpt lat="44.4784" lon="1.25796">
        <ele>135</ele>
        <time>2022-08-10T16:15:50Z</time>
      </trkpt>
      <trkpt lat="44.47827" lon="1.25782">
        <ele>134.6</ele>
        <time>2022-08-10T16:15:52Z</time>
      </trkpt>
      <trkpt lat="44.47814" lon="1.25769">
        <ele>134</ele>
        <time>2022-08-10T16:15:54Z</time>
      </trkpt>
      <trkpt lat="44.47801" lon="1.25755">
        <ele>133.2</ele>
        <time>2022-08-10T16:15:56Z</time>
      </trkpt>
      <trkpt lat="44.47787" lon="1.25741">
        <ele>132.7</ele>
        <time>2022-08-10T16:15:58Z</time>
      </trkpt>
      <trkpt lat="44.47774" lon="1.25727">
        <ele>132.4</ele>
        <time>2022-08-10T16:16:00Z</time>
      </trkpt>
      <trkpt lat="44.47761" lon="1.25713">
        <ele>132</ele>
        <time>2022-08-10T16:16:02Z</time>
      </trkpt>
      <trkpt lat="44.47747" lon="1.257">
        <ele>131.7</ele>
        <time>2022-08-10T16:16:04Z</time>
      </trkpt>
      <trkpt lat="44.47735" lon="1.25685">
        <ele>131.5</ele>
        <time>2022-08-10T16:16:06Z</time>
      </trkpt>
      <trkpt lat="44.47722" lon="1.2567">
        <ele>131.2</ele>
        <time>2022-08-10T16:16:08Z</time>
      </trkpt>
      <trkpt lat="44.47709" lon="1.25656">
        <ele>130.9</ele>
        <time>2022-08-10T16:16:10Z</time>
      </trkpt>
      <trkpt lat="44.47697" lon="1.25642">
        <ele>130.6</ele>
        <time>2022-08-10T16:16:12Z</time>
      </trkpt>
      <trkpt lat="44.47684" lon="1.25627">
        <ele>130.2</ele>
        <time>2022-08-10T16:16:14Z</time>
      </trkpt>
      <trkpt lat="44.47671" lon="1.25612">
        <ele>129.6</ele>
        <time>2022-08-10T16:16:16Z</time>
      </trkpt>
      <trkpt lat="44.47658" lon="1.25598">
        <ele>129.2</ele>
        <time>2022-08-10T16:16:18Z</time>
      </trkpt>
      <trkpt lat="44.47645" lon="1.25584">
        <ele>128.8</ele>
        <time>2022-08-10T16:16:20Z</time>
      </trkpt>
      <trkpt lat="44.47632" lon="1.25569">
        <ele>128.4</ele>
        <time>2022-08-10T16:16:22Z</time>
      </trkpt>
      <trkpt lat="44.4762" lon="1.25554">
        <ele>127.9</ele>
        <time>2022-08-10T16:16:24Z</time>
      </trkpt>
      <trkpt lat="44.47608" lon="1.25541">
        <ele>127.4</ele>
        <time>2022-08-10T16:16:26Z</time>
      </trkpt>
      <trkpt lat="44.47597" lon="1.25529">
        <ele>126.8</ele>
        <time>2022-08-10T16:16:28Z</time>
      </trkpt>
      <trkpt lat="44.47586" lon="1.25516">
        <ele>126.1</ele>
        <time>2022-08-10T16:16:30Z</time>
      </trkpt>
      <trkpt lat="44.47575" lon="1.25503">
        <ele>125.6</ele>
        <time>2022-08-10T16:16:32Z</time>
      </trkpt>
      <trkpt lat="44.47565" lon="1.25494">
        <ele>125.5</ele>
        <time>2022-08-10T16:16:34Z</time>
      </trkpt>
      <trkpt lat="44.47556" lon="1.25485">
        <ele>125.5</ele>
        <time>2022-08-10T16:16:36Z</time>
      </trkpt>
      <trkpt lat="44.47547" lon="1.25476">
        <ele>125.6</ele>
        <time>2022-08-10T16:16:38Z</time>
      </trkpt>
      <trkpt lat="44.47539" lon="1.25464">
        <ele>125.5</ele>
        <time>2022-08-10T16:16:40Z</time>
      </trkpt>
      <trkpt lat="44.4753" lon="1.25456">
        <ele>125.6</ele>
        <time>2022-08-10T16:16:42Z</time>
      </trkpt>
      <trkpt lat="44.47522" lon="1.25447">
        <ele>125.7</ele>
        <time>2022-08-10T16:16:44Z</time>
      </trkpt>
      <trkpt lat="44.47514" lon="1.25438">
        <ele>125.8</ele>
        <time>2022-08-10T16:16:46Z</time>
      </trkpt>
      <trkpt lat="44.47507" lon="1.2543">
        <ele>126</ele>
        <time>2022-08-10T16:16:48Z</time>
      </trkpt>
      <trkpt lat="44.47502" lon="1.25423">
        <ele>126.1</ele>
        <time>2022-08-10T16:16:50Z</time>
      </trkpt>
      <trkpt lat="44.47496" lon="1.25415">
        <ele>126</ele>
        <time>2022-08-10T16:16:52Z</time>
      </trkpt>
      <trkpt lat="44.47491" lon="1.25407">
        <ele>125.6</ele>
        <time>2022-08-10T16:16:54Z</time>
      </trkpt>
      <trkpt lat="44.47484" lon="1.25398">
        <ele>125.2</ele>
        <time>2022-08-10T16:16:56Z</time>
      </trkpt>
      <trkpt lat="44.47477" lon="1.25388">
        <ele>124.6</ele>
        <time>2022-08-10T16:16:58Z</time>
      </trkpt>
      <trkpt lat="44.47471" lon="1.25376">
        <ele>123.9</ele>
        <time>2022-08-10T16:17:00Z</time>
      </trkpt>
      <trkpt lat="44.47464" lon="1.25365">
        <ele>123.2</ele>
        <time>2022-08-10T16:17:02Z</time>
      </trkpt>
      <trkpt lat="44.47458" lon="1.25353">
        <ele>122.4</ele>
        <time>2022-08-10T16:17:04Z</time>
      </trkpt>
      <trkpt lat="44.47451" lon="1.25343">
        <ele>121.7</ele>
        <time>2022-08-10T16:17:06Z</time>
      </trkpt>
      <trkpt lat="44.47448" lon="1.25337">
        <ele>121.3</ele>
        <time>2022-08-10T16:17:08Z</time>
      </trkpt>
      <trkpt lat="44.47446" lon="1.25336">
        <ele>121.2</ele>
        <time>2022-08-10T16:17:10Z</time>
      </trkpt>
      <trkpt lat="44.47442" lon="1.25328">
        <ele>120.8</ele>
        <time>2022-08-10T16:17:12Z</time>
      </trkpt>
      <trkpt lat="44.47436" lon="1.25321">
        <ele>120.4</ele>
        <time>2022-08-10T16:17:14Z</time>
      </trkpt>
      <trkpt lat="44.47432" lon="1.25312">
        <ele>120</ele>
        <time>2022-08-10T16:17:16Z</time>
      </trkpt>
      <trkpt lat="44.47426" lon="1.25303">
        <ele>119.6</ele>
        <time>2022-08-10T16:17:18Z</time>
      </trkpt>
      <trkpt lat="44.47421" lon="1.25294">
        <ele>119.1</ele>
        <time>2022-08-10T16:17:20Z</time>
      </trkpt>
      <trkpt lat="44.47416" lon="1.25285">
        <ele>118.8</ele>
        <time>2022-08-10T16:17:22Z</time>
      </trkpt>
      <trkpt lat="44.4741" lon="1.25275">
        <ele>118.8</ele>
        <time>2022-08-10T16:17:24Z</time>
      </trkpt>
      <trkpt lat="44.47405" lon="1.25267">
        <ele>118.6</ele>
        <time>2022-08-10T16:17:26Z</time>
      </trkpt>
      <trkpt lat="44.47403" lon="1.25261">
        <ele>118.4</ele>
        <time>2022-08-10T16:17:28Z</time>
      </trkpt>
      <trkpt lat="44.47401" lon="1.25259">
        <ele>118.4</ele>
        <time>2022-08-10T16:17:30Z</time>
      </trkpt>
      <trkpt lat="44.47401" lon="1.2526">
        <ele>118.4</ele>
        <time>2022-08-10T16:17:32Z</time>
      </trkpt>
      <trkpt lat="44.47401" lon="1.2526">
        <ele>118.5</ele>
        <time>2022-08-10T16:17:34Z</time>
      </trkpt>
      <trkpt lat="44.47401" lon="1.25261">
        <ele>118.5</ele>
        <time>2022-08-10T16:17:36Z</time>
      </trkpt>
      <trkpt lat="44.47401" lon="1.25261">
        <ele>118.5</ele>
        <time>2022-08-10T16:17:38Z</time>
      </trkpt>
      <trkpt lat="44.47388" lon="1.25248">
        <ele>118.3</ele>
        <time>2022-08-10T16:18:52Z</time>
      </trkpt>
      <trkpt lat="44.47382" lon="1.25239">
        <ele>117.9</ele>
        <time>2022-08-10T16:18:54Z</time>
      </trkpt>
      <trkpt lat="44.47378" lon="1.25228">
        <ele>117.4</ele>
        <time>2022-08-10T16:18:56Z</time>
      </trkpt>
      <trkpt lat="44.47372" lon="1.25217">
        <ele>116.7</ele>
        <time>2022-08-10T16:18:58Z</time>
      </trkpt>
      <trkpt lat="44.47365" lon="1.25207">
        <ele>115.9</ele>
        <time>2022-08-10T16:19:00Z</time>
      </trkpt>
      <trkpt lat="44.47359" lon="1.25196">
        <ele>114.9</ele>
        <time>2022-08-10T16:19:02Z</time>
      </trkpt>
      <trkpt lat="44.47351" lon="1.25186">
        <ele>113.8</ele>
        <time>2022-08-10T16:19:04Z</time>
      </trkpt>
      <trkpt lat="44.47344" lon="1.25175">
        <ele>112.4</ele>
        <time>2022-08-10T16:19:06Z</time>
      </trkpt>
      <trkpt lat="44.47337" lon="1.25163">
        <ele>111</ele>
        <time>2022-08-10T16:19:08Z</time>
      </trkpt>
      <trkpt lat="44.47328" lon="1.2515">
        <ele>110.2</ele>
        <time>2022-08-10T16:19:10Z</time>
      </trkpt>
      <trkpt lat="44.4732" lon="1.25138">
        <ele>110</ele>
        <time>2022-08-10T16:19:12Z</time>
      </trkpt>
      <trkpt lat="44.47312" lon="1.25127">
        <ele>109.9</ele>
        <time>2022-08-10T16:19:14Z</time>
      </trkpt>
      <trkpt lat="44.47303" lon="1.25113">
        <ele>110.1</ele>
        <time>2022-08-10T16:19:16Z</time>
      </trkpt>
      <trkpt lat="44.47296" lon="1.25102">
        <ele>110.6</ele>
        <time>2022-08-10T16:19:18Z</time>
      </trkpt>
      <trkpt lat="44.47289" lon="1.25091">
        <ele>111.2</ele>
        <time>2022-08-10T16:19:20Z</time>
      </trkpt>
      <trkpt lat="44.47284" lon="1.25082">
        <ele>111.7</ele>
        <time>2022-08-10T16:19:22Z</time>
      </trkpt>
      <trkpt lat="44.47279" lon="1.25075">
        <ele>112.1</ele>
        <time>2022-08-10T16:19:24Z</time>
      </trkpt>
      <trkpt lat="44.47276" lon="1.25067">
        <ele>112.3</ele>
        <time>2022-08-10T16:19:26Z</time>
      </trkpt>
      <trkpt lat="44.47275" lon="1.2506">
        <ele>112.4</ele>
        <time>2022-08-10T16:19:28Z</time>
      </trkpt>
      <trkpt lat="44.47273" lon="1.25053">
        <ele>112.5</ele>
        <time>2022-08-10T16:19:30Z</time>
      </trkpt>
      <trkpt lat="44.47272" lon="1.25046">
        <ele>112.5</ele>
        <time>2022-08-10T16:19:32Z</time>
      </trkpt>
      <trkpt lat="44.4727" lon="1.25039">
        <ele>112.7</ele>
        <time>2022-08-10T16:19:34Z</time>
      </trkpt>
      <trkpt lat="44.47267" lon="1.25033">
        <ele>113</ele>
        <time>2022-08-10T16:19:36Z</time>
      </trkpt>
      <trkpt lat="44.47264" lon="1.25027">
        <ele>113.3</ele>
        <time>2022-08-10T16:19:38Z</time>
      </trkpt>
      <trkpt lat="44.47262" lon="1.25023">
        <ele>113.6</ele>
        <time>2022-08-10T16:19:40Z</time>
      </trkpt>
      <trkpt lat="44.47259" lon="1.2502">
        <ele>113.8</ele>
        <time>2022-08-10T16:19:42Z</time>
      </trkpt>
      <trkpt lat="44.47258" lon="1.25016">
        <ele>114</ele>
        <time>2022-08-10T16:19:44Z</time>
      </trkpt>
      <trkpt lat="44.47256" lon="1.25012">
        <ele>114.3</ele>
        <time>2022-08-10T16:19:46Z</time>
      </trkpt>
      <trkpt lat="44.47253" lon="1.25008">
        <ele>114.6</ele>
        <time>2022-08-10T16:19:48Z</time>
      </trkpt>
      <trkpt lat="44.47251" lon="1.25004">
        <ele>114.8</ele>
        <time>2022-08-10T16:19:50Z</time>
      </trkpt>
      <trkpt lat="44.47249" lon="1.25">
        <ele>115.2</ele>
        <time>2022-08-10T16:19:52Z</time>
      </trkpt>
      <trkpt lat="44.47247" lon="1.24996">
        <ele>115.4</ele>
        <time>2022-08-10T16:19:54Z</time>
      </trkpt>
      <trkpt lat="44.47245" lon="1.24991">
        <ele>115.3</ele>
        <time>2022-08-10T16:19:56Z</time>
      </trkpt>
      <trkpt lat="44.47242" lon="1.24986">
        <ele>115.6</ele>
        <time>2022-08-10T16:19:58Z</time>
      </trkpt>
      <trkpt lat="44.47238" lon="1.2498">
        <ele>115.9</ele>
        <time>2022-08-10T16:20:00Z</time>
      </trkpt>
      <trkpt lat="44.47235" lon="1.24975">
        <ele>116.2</ele>
        <time>2022-08-10T16:20:02Z</time>
      </trkpt>
      <trkpt lat="44.47232" lon="1.24968">
        <ele>116.2</ele>
        <time>2022-08-10T16:20:04Z</time>
      </trkpt>
      <trkpt lat="44.47229" lon="1.24961">
        <ele>116</ele>
        <time>2022-08-10T16:20:06Z</time>
      </trkpt>
      <trkpt lat="44.47225" lon="1.24956">
        <ele>116.2</ele>
        <time>2022-08-10T16:20:08Z</time>
      </trkpt>
      <trkpt lat="44.47222" lon="1.2495">
        <ele>116.4</ele>
        <time>2022-08-10T16:20:10Z</time>
      </trkpt>
      <trkpt lat="44.47216" lon="1.24942">
        <ele>116.5</ele>
        <time>2022-08-10T16:20:12Z</time>
      </trkpt>
      <trkpt lat="44.47211" lon="1.24935">
        <ele>116.7</ele>
        <time>2022-08-10T16:20:14Z</time>
      </trkpt>
      <trkpt lat="44.47207" lon="1.24928">
        <ele>116.7</ele>
        <time>2022-08-10T16:20:16Z</time>
      </trkpt>
      <trkpt lat="44.47201" lon="1.24922">
        <ele>116.8</ele>
        <time>2022-08-10T16:20:18Z</time>
      </trkpt>
      <trkpt lat="44.47196" lon="1.24916">
        <ele>117</ele>
        <time>2022-08-10T16:20:20Z</time>
      </trkpt>
      <trkpt lat="44.4719" lon="1.2491">
        <ele>117</ele>
        <time>2022-08-10T16:20:22Z</time>
      </trkpt>
      <trkpt lat="44.47183" lon="1.24901">
        <ele>116.6</ele>
        <time>2022-08-10T16:20:24Z</time>
      </trkpt>
      <trkpt lat="44.47176" lon="1.24893">
        <ele>116.1</ele>
        <time>2022-08-10T16:20:26Z</time>
      </trkpt>
      <trkpt lat="44.47171" lon="1.24885">
        <ele>115.5</ele>
        <time>2022-08-10T16:20:28Z</time>
      </trkpt>
      <trkpt lat="44.47165" lon="1.24877">
        <ele>114.8</ele>
        <time>2022-08-10T16:20:30Z</time>
      </trkpt>
      <trkpt lat="44.47159" lon="1.24869">
        <ele>114.4</ele>
        <time>2022-08-10T16:20:32Z</time>
      </trkpt>
      <trkpt lat="44.47152" lon="1.24861">
        <ele>114</ele>
        <time>2022-08-10T16:20:34Z</time>
      </trkpt>
      <trkpt lat="44.47146" lon="1.24855">
        <ele>113.7</ele>
        <time>2022-08-10T16:20:36Z</time>
      </trkpt>
      <trkpt lat="44.4714" lon="1.24849">
        <ele>113.3</ele>
        <time>2022-08-10T16:20:38Z</time>
      </trkpt>
      <trkpt lat="44.47133" lon="1.24842">
        <ele>112.9</ele>
        <time>2022-08-10T16:20:40Z</time>
      </trkpt>
      <trkpt lat="44.47127" lon="1.24835">
        <ele>112</ele>
        <time>2022-08-10T16:20:42Z</time>
      </trkpt>
      <trkpt lat="44.47121" lon="1.24827">
        <ele>111.8</ele>
        <time>2022-08-10T16:20:44Z</time>
      </trkpt>
      <trkpt lat="44.47115" lon="1.24822">
        <ele>112</ele>
        <time>2022-08-10T16:20:46Z</time>
      </trkpt>
      <trkpt lat="44.4711" lon="1.24816">
        <ele>111.9</ele>
        <time>2022-08-10T16:20:48Z</time>
      </trkpt>
      <trkpt lat="44.47104" lon="1.24811">
        <ele>111.9</ele>
        <time>2022-08-10T16:20:50Z</time>
      </trkpt>
      <trkpt lat="44.47099" lon="1.24805">
        <ele>111.6</ele>
        <time>2022-08-10T16:20:52Z</time>
      </trkpt>
      <trkpt lat="44.47093" lon="1.248">
        <ele>111.4</ele>
        <time>2022-08-10T16:20:54Z</time>
      </trkpt>
      <trkpt lat="44.47088" lon="1.24795">
        <ele>111.1</ele>
        <time>2022-08-10T16:20:56Z</time>
      </trkpt>
      <trkpt lat="44.47083" lon="1.24789">
        <ele>110.6</ele>
        <time>2022-08-10T16:20:58Z</time>
      </trkpt>
      <trkpt lat="44.47078" lon="1.24785">
        <ele>111.1</ele>
        <time>2022-08-10T16:21:00Z</time>
      </trkpt>
      <trkpt lat="44.47077" lon="1.2478">
        <ele>110.5</ele>
        <time>2022-08-10T16:21:02Z</time>
      </trkpt>
      <trkpt lat="44.47077" lon="1.24779">
        <ele>110.4</ele>
        <time>2022-08-10T16:21:04Z</time>
      </trkpt>
      <trkpt lat="44.47077" lon="1.24779">
        <ele>110.2</ele>
        <time>2022-08-10T16:21:06Z</time>
      </trkpt>
      <trkpt lat="44.47077" lon="1.24778">
        <ele>110.1</ele>
        <time>2022-08-10T16:21:08Z</time>
      </trkpt>
      <trkpt lat="44.47077" lon="1.24778">
        <ele>110.1</ele>
        <time>2022-08-10T16:21:10Z</time>
      </trkpt>
      <trkpt lat="44.47077" lon="1.24778">
        <ele>110.1</ele>
        <time>2022-08-10T16:21:12Z</time>
      </trkpt>
      <trkpt lat="44.47084" lon="1.2475">
        <ele>104</ele>
        <time>2022-08-10T16:21:34Z</time>
      </trkpt>
      <trkpt lat="44.47086" lon="1.24743">
        <ele>103.6</ele>
        <time>2022-08-10T16:21:36Z</time>
      </trkpt>
      <trkpt lat="44.4709" lon="1.24734">
        <ele>103.2</ele>
        <time>2022-08-10T16:21:38Z</time>
      </trkpt>
      <trkpt lat="44.47093" lon="1.24723">
        <ele>102.7</ele>
        <time>2022-08-10T16:21:40Z</time>
      </trkpt>
      <trkpt lat="44.47097" lon="1.24713">
        <ele>102.2</ele>
        <time>2022-08-10T16:21:42Z</time>
      </trkpt>
      <trkpt lat="44.47102" lon="1.24702">
        <ele>101.7</ele>
        <time>2022-08-10T16:21:44Z</time>
      </trkpt>
      <trkpt lat="44.47105" lon="1.24691">
        <ele>101.3</ele>
        <time>2022-08-10T16:21:46Z</time>
      </trkpt>
      <trkpt lat="44.47106" lon="1.24678">
        <ele>100.8</ele>
        <time>2022-08-10T16:21:48Z</time>
      </trkpt>
      <trkpt lat="44.47107" lon="1.24666">
        <ele>100.4</ele>
        <time>2022-08-10T16:21:50Z</time>
      </trkpt>
      <trkpt lat="44.47105" lon="1.24655">
        <ele>100.2</ele>
        <time>2022-08-10T16:21:52Z</time>
      </trkpt>
      <trkpt lat="44.47103" lon="1.24644">
        <ele>100</ele>
        <time>2022-08-10T16:21:54Z</time>
      </trkpt>
      <trkpt lat="44.47101" lon="1.24634">
        <ele>99.8</ele>
        <time>2022-08-10T16:21:56Z</time>
      </trkpt>
      <trkpt lat="44.47098" lon="1.24625">
        <ele>99.7</ele>
        <time>2022-08-10T16:21:58Z</time>
      </trkpt>
      <trkpt lat="44.47096" lon="1.24616">
        <ele>99.5</ele>
        <time>2022-08-10T16:22:00Z</time>
      </trkpt>
      <trkpt lat="44.47094" lon="1.24605">
        <ele>99.3</ele>
        <time>2022-08-10T16:22:02Z</time>
      </trkpt>
      <trkpt lat="44.47094" lon="1.24595">
        <ele>99</ele>
        <time>2022-08-10T16:22:04Z</time>
      </trkpt>
      <trkpt lat="44.47093" lon="1.24586">
        <ele>98.8</ele>
        <time>2022-08-10T16:22:06Z</time>
      </trkpt>
      <trkpt lat="44.47091" lon="1.24581">
        <ele>98.7</ele>
        <time>2022-08-10T16:22:08Z</time>
      </trkpt>
      <trkpt lat="44.47091" lon="1.24574">
        <ele>98.6</ele>
        <time>2022-08-10T16:22:10Z</time>
      </trkpt>
      <trkpt lat="44.47091" lon="1.24567">
        <ele>98.4</ele>
        <time>2022-08-10T16:22:12Z</time>
      </trkpt>
      <trkpt lat="44.4709" lon="1.24559">
        <ele>98.3</ele>
        <time>2022-08-10T16:22:14Z</time>
      </trkpt>
      <trkpt lat="44.47089" lon="1.24551">
        <ele>98.1</ele>
        <time>2022-08-10T16:22:16Z</time>
      </trkpt>
      <trkpt lat="44.47089" lon="1.24543">
        <ele>97.9</ele>
        <time>2022-08-10T16:22:18Z</time>
      </trkpt>
      <trkpt lat="44.4709" lon="1.24536">
        <ele>97.8</ele>
        <time>2022-08-10T16:22:20Z</time>
      </trkpt>
      <trkpt lat="44.47092" lon="1.24531">
        <ele>97.6</ele>
        <time>2022-08-10T16:22:22Z</time>
      </trkpt>
      <trkpt lat="44.47092" lon="1.2453">
        <ele>97.6</ele>
        <time>2022-08-10T16:22:24Z</time>
      </trkpt>
      <trkpt lat="44.47092" lon="1.2453">
        <ele>97.6</ele>
        <time>2022-08-10T16:22:26Z</time>
      </trkpt>
      <trkpt lat="44.47092" lon="1.2453">
        <ele>97.6</ele>
        <time>2022-08-10T16:22:30Z</time>
      </trkpt>
      <trkpt lat="44.47095" lon="1.24529">
        <ele>97.5</ele>
        <time>2022-08-10T16:22:32Z</time>
      </trkpt>
      <trkpt lat="44.47098" lon="1.24531">
        <ele>97.5</ele>
        <time>2022-08-10T16:22:34Z</time>
      </trkpt>
      <trkpt lat="44.47104" lon="1.24534">
        <ele>97.5</ele>
        <time>2022-08-10T16:22:36Z</time>
      </trkpt>
      <trkpt lat="44.4711" lon="1.24537">
        <ele>97.4</ele>
        <time>2022-08-10T16:22:38Z</time>
      </trkpt>
      <trkpt lat="44.47115" lon="1.24539">
        <ele>97.4</ele>
        <time>2022-08-10T16:22:40Z</time>
      </trkpt>
      <trkpt lat="44.4712" lon="1.24541">
        <ele>97.3</ele>
        <time>2022-08-10T16:22:42Z</time>
      </trkpt>
      <trkpt lat="44.47125" lon="1.24543">
        <ele>97.3</ele>
        <time>2022-08-10T16:22:44Z</time>
      </trkpt>
      <trkpt lat="44.4713" lon="1.24544">
        <ele>97.2</ele>
        <time>2022-08-10T16:22:46Z</time>
      </trkpt>
      <trkpt lat="44.47136" lon="1.24545">
        <ele>97.1</ele>
        <time>2022-08-10T16:22:48Z</time>
      </trkpt>
      <trkpt lat="44.47141" lon="1.24546">
        <ele>97</ele>
        <time>2022-08-10T16:22:50Z</time>
      </trkpt>
      <trkpt lat="44.47147" lon="1.24547">
        <ele>96.9</ele>
        <time>2022-08-10T16:22:52Z</time>
      </trkpt>
      <trkpt lat="44.47151" lon="1.24548">
        <ele>96.9</ele>
        <time>2022-08-10T16:22:54Z</time>
      </trkpt>
      <trkpt lat="44.47156" lon="1.2455">
        <ele>96.8</ele>
        <time>2022-08-10T16:22:56Z</time>
      </trkpt>
      <trkpt lat="44.4716" lon="1.24552">
        <ele>96.7</ele>
        <time>2022-08-10T16:22:58Z</time>
      </trkpt>
      <trkpt lat="44.47165" lon="1.24553">
        <ele>96.7</ele>
        <time>2022-08-10T16:23:00Z</time>
      </trkpt>
      <trkpt lat="44.4717" lon="1.24555">
        <ele>96.7</ele>
        <time>2022-08-10T16:23:02Z</time>
      </trkpt>
      <trkpt lat="44.47174" lon="1.24557">
        <ele>96.8</ele>
        <time>2022-08-10T16:23:04Z</time>
      </trkpt>
      <trkpt lat="44.47179" lon="1.24558">
        <ele>96.9</ele>
        <time>2022-08-10T16:23:06Z</time>
      </trkpt>
      <trkpt lat="44.47183" lon="1.24559">
        <ele>97</ele>
        <time>2022-08-10T16:23:08Z</time>
      </trkpt>
      <trkpt lat="44.47187" lon="1.2456">
        <ele>97.1</ele>
        <time>2022-08-10T16:23:10Z</time>
      </trkpt>
      <trkpt lat="44.47191" lon="1.2456">
        <ele>97.2</ele>
        <time>2022-08-10T16:23:12Z</time>
      </trkpt>
      <trkpt lat="44.47195" lon="1.24561">
        <ele>97.3</ele>
        <time>2022-08-10T16:23:14Z</time>
      </trkpt>
      <trkpt lat="44.47199" lon="1.24561">
        <ele>97.3</ele>
        <time>2022-08-10T16:23:16Z</time>
      </trkpt>
      <trkpt lat="44.47204" lon="1.24561">
        <ele>97.4</ele>
        <time>2022-08-10T16:23:18Z</time>
      </trkpt>
      <trkpt lat="44.4721" lon="1.2456">
        <ele>97.5</ele>
        <time>2022-08-10T16:23:20Z</time>
      </trkpt>
      <trkpt lat="44.47214" lon="1.24559">
        <ele>97.6</ele>
        <time>2022-08-10T16:23:22Z</time>
      </trkpt>
      <trkpt lat="44.47218" lon="1.24557">
        <ele>97.7</ele>
        <time>2022-08-10T16:23:24Z</time>
      </trkpt>
      <trkpt lat="44.47223" lon="1.24558">
        <ele>97.8</ele>
        <time>2022-08-10T16:23:26Z</time>
      </trkpt>
      <trkpt lat="44.47227" lon="1.24557">
        <ele>97.9</ele>
        <time>2022-08-10T16:23:28Z</time>
      </trkpt>
      <trkpt lat="44.47232" lon="1.24556">
        <ele>98</ele>
        <time>2022-08-10T16:23:30Z</time>
      </trkpt>
      <trkpt lat="44.47237" lon="1.24555">
        <ele>98.1</ele>
        <time>2022-08-10T16:23:32Z</time>
      </trkpt>
      <trkpt lat="44.47242" lon="1.24555">
        <ele>98.2</ele>
        <time>2022-08-10T16:23:34Z</time>
      </trkpt>
      <trkpt lat="44.47247" lon="1.24554">
        <ele>98.3</ele>
        <time>2022-08-10T16:23:36Z</time>
      </trkpt>
      <trkpt lat="44.47252" lon="1.24553">
        <ele>98.3</ele>
        <time>2022-08-10T16:23:38Z</time>
      </trkpt>
      <trkpt lat="44.47258" lon="1.24554">
        <ele>98.2</ele>
        <time>2022-08-10T16:23:40Z</time>
      </trkpt>
      <trkpt lat="44.47263" lon="1.24554">
        <ele>98.1</ele>
        <time>2022-08-10T16:23:42Z</time>
      </trkpt>
      <trkpt lat="44.47268" lon="1.24554">
        <ele>98.1</ele>
        <time>2022-08-10T16:23:44Z</time>
      </trkpt>
      <trkpt lat="44.47273" lon="1.24554">
        <ele>98</ele>
        <time>2022-08-10T16:23:46Z</time>
      </trkpt>
      <trkpt lat="44.47278" lon="1.24554">
        <ele>97.9</ele>
        <time>2022-08-10T16:23:48Z</time>
      </trkpt>
      <trkpt lat="44.47284" lon="1.24554">
        <ele>97.8</ele>
        <time>2022-08-10T16:23:50Z</time>
      </trkpt>
      <trkpt lat="44.47288" lon="1.24553">
        <ele>97.7</ele>
        <time>2022-08-10T16:23:52Z</time>
      </trkpt>
      <trkpt lat="44.47293" lon="1.24552">
        <ele>97.7</ele>
        <time>2022-08-10T16:23:54Z</time>
      </trkpt>
      <trkpt lat="44.473" lon="1.24552">
        <ele>97.5</ele>
        <time>2022-08-10T16:23:56Z</time>
      </trkpt>
      <trkpt lat="44.47305" lon="1.24552">
        <ele>97.5</ele>
        <time>2022-08-10T16:23:58Z</time>
      </trkpt>
      <trkpt lat="44.4731" lon="1.24552">
        <ele>97.4</ele>
        <time>2022-08-10T16:24:00Z</time>
      </trkpt>
      <trkpt lat="44.47315" lon="1.24552">
        <ele>97.3</ele>
        <time>2022-08-10T16:24:02Z</time>
      </trkpt>
      <trkpt lat="44.4732" lon="1.24551">
        <ele>97.2</ele>
        <time>2022-08-10T16:24:04Z</time>
      </trkpt>
      <trkpt lat="44.47325" lon="1.24551">
        <ele>97.1</ele>
        <time>2022-08-10T16:24:06Z</time>
      </trkpt>
      <trkpt lat="44.47329" lon="1.24552">
        <ele>97.1</ele>
        <time>2022-08-10T16:24:08Z</time>
      </trkpt>
      <trkpt lat="44.47333" lon="1.24552">
        <ele>97</ele>
        <time>2022-08-10T16:24:10Z</time>
      </trkpt>
      <trkpt lat="44.47336" lon="1.24553">
        <ele>97</ele>
        <time>2022-08-10T16:24:12Z</time>
      </trkpt>
      <trkpt lat="44.47338" lon="1.24553">
        <ele>96.9</ele>
        <time>2022-08-10T16:24:14Z</time>
      </trkpt>
      <trkpt lat="44.4734" lon="1.24553">
        <ele>96.9</ele>
        <time>2022-08-10T16:24:16Z</time>
      </trkpt>
      <trkpt lat="44.47342" lon="1.24553">
        <ele>96.9</ele>
        <time>2022-08-10T16:24:18Z</time>
      </trkpt>
      <trkpt lat="44.47342" lon="1.24553">
        <ele>96.9</ele>
        <time>2022-08-10T16:24:20Z</time>
      </trkpt>
      <trkpt lat="44.47341" lon="1.24553">
        <ele>96.9</ele>
        <time>2022-08-10T16:24:22Z</time>
      </trkpt>
      <trkpt lat="44.47342" lon="1.24553">
        <ele>96.9</ele>
        <time>2022-08-10T16:24:24Z</time>
      </trkpt>
      <trkpt lat="44.47342" lon="1.24552">
        <ele>96.9</ele>
        <time>2022-08-10T16:24:26Z</time>
      </trkpt>
      <trkpt lat="44.4734" lon="1.24552">
        <ele>96.9</ele>
        <time>2022-08-10T16:24:36Z</time>
      </trkpt>
      <trkpt lat="44.4734" lon="1.24551">
        <ele>96.9</ele>
        <time>2022-08-10T16:24:38Z</time>
      </trkpt>
      <trkpt lat="44.4734" lon="1.24551">
        <ele>96.9</ele>
        <time>2022-08-10T16:24:40Z</time>
      </trkpt>
      <trkpt lat="44.47339" lon="1.24551">
        <ele>96.9</ele>
        <time>2022-08-10T16:24:42Z</time>
      </trkpt>
      <trkpt lat="44.47339" lon="1.24551">
        <ele>96.9</ele>
        <time>2022-08-10T16:24:44Z</time>
      </trkpt>
      <trkpt lat="44.47338" lon="1.24553">
        <ele>96.9</ele>
        <time>2022-08-10T16:24:46Z</time>
      </trkpt>
      <trkpt lat="44.47335" lon="1.24553">
        <ele>97</ele>
        <time>2022-08-10T16:24:48Z</time>
      </trkpt>
      <trkpt lat="44.47332" lon="1.24553">
        <ele>97</ele>
        <time>2022-08-10T16:24:50Z</time>
      </trkpt>
      <trkpt lat="44.47329" lon="1.24553">
        <ele>97.1</ele>
        <time>2022-08-10T16:24:52Z</time>
      </trkpt>
      <trkpt lat="44.47329" lon="1.24553">
        <ele>97.1</ele>
        <time>2022-08-10T16:24:54Z</time>
      </trkpt>
      <trkpt lat="44.47329" lon="1.24553">
        <ele>97.1</ele>
        <time>2022-08-10T16:24:56Z</time>
      </trkpt>
      <trkpt lat="44.47329" lon="1.24554">
        <ele>97.1</ele>
        <time>2022-08-10T16:24:58Z</time>
      </trkpt>
      <trkpt lat="44.47328" lon="1.24554">
        <ele>97.1</ele>
        <time>2022-08-10T16:25:00Z</time>
      </trkpt>
      <trkpt lat="44.47328" lon="1.24554">
        <ele>97.1</ele>
        <time>2022-08-10T16:25:02Z</time>
      </trkpt>
      <trkpt lat="44.47316" lon="1.24552">
        <ele>97.3</ele>
        <time>2022-08-10T16:25:18Z</time>
      </trkpt>
      <trkpt lat="44.47312" lon="1.24553">
        <ele>97.4</ele>
        <time>2022-08-10T16:25:20Z</time>
      </trkpt>
      <trkpt lat="44.47307" lon="1.24552">
        <ele>97.4</ele>
        <time>2022-08-10T16:25:22Z</time>
      </trkpt>
      <trkpt lat="44.47302" lon="1.24553">
        <ele>97.5</ele>
        <time>2022-08-10T16:25:24Z</time>
      </trkpt>
      <trkpt lat="44.47296" lon="1.24553">
        <ele>97.6</ele>
        <time>2022-08-10T16:25:26Z</time>
      </trkpt>
      <trkpt lat="44.4729" lon="1.24553">
        <ele>97.7</ele>
        <time>2022-08-10T16:25:28Z</time>
      </trkpt>
      <trkpt lat="44.47286" lon="1.24553">
        <ele>97.8</ele>
        <time>2022-08-10T16:25:30Z</time>
      </trkpt>
      <trkpt lat="44.47281" lon="1.24554">
        <ele>97.9</ele>
        <time>2022-08-10T16:25:32Z</time>
      </trkpt>
      <trkpt lat="44.47275" lon="1.24554">
        <ele>97.9</ele>
        <time>2022-08-10T16:25:34Z</time>
      </trkpt>
      <trkpt lat="44.47269" lon="1.24555">
        <ele>98</ele>
        <time>2022-08-10T16:25:36Z</time>
      </trkpt>
      <trkpt lat="44.47264" lon="1.24555">
        <ele>98.1</ele>
        <time>2022-08-10T16:25:38Z</time>
      </trkpt>
      <trkpt lat="44.47258" lon="1.24555">
        <ele>98.2</ele>
        <time>2022-08-10T16:25:40Z</time>
      </trkpt>
      <trkpt lat="44.47252" lon="1.24555">
        <ele>98.3</ele>
        <time>2022-08-10T16:25:42Z</time>
      </trkpt>
      <trkpt lat="44.47245" lon="1.24556">
        <ele>98.2</ele>
        <time>2022-08-10T16:25:44Z</time>
      </trkpt>
      <trkpt lat="44.47238" lon="1.24556">
        <ele>98.1</ele>
        <time>2022-08-10T16:25:46Z</time>
      </trkpt>
      <trkpt lat="44.47236" lon="1.24557">
        <ele>98</ele>
        <time>2022-08-10T16:25:48Z</time>
      </trkpt>
      <trkpt lat="44.4723" lon="1.24559">
        <ele>97.9</ele>
        <time>2022-08-10T16:25:50Z</time>
      </trkpt>
      <trkpt lat="44.47226" lon="1.2456">
        <ele>97.8</ele>
        <time>2022-08-10T16:25:52Z</time>
      </trkpt>
      <trkpt lat="44.47221" lon="1.2456">
        <ele>97.7</ele>
        <time>2022-08-10T16:25:54Z</time>
      </trkpt>
      <trkpt lat="44.47215" lon="1.24562">
        <ele>97.6</ele>
        <time>2022-08-10T16:25:56Z</time>
      </trkpt>
      <trkpt lat="44.4721" lon="1.24562">
        <ele>97.5</ele>
        <time>2022-08-10T16:25:58Z</time>
      </trkpt>
      <trkpt lat="44.47205" lon="1.24562">
        <ele>97.4</ele>
        <time>2022-08-10T16:26:00Z</time>
      </trkpt>
      <trkpt lat="44.472" lon="1.24562">
        <ele>97.3</ele>
        <time>2022-08-10T16:26:02Z</time>
      </trkpt>
      <trkpt lat="44.47194" lon="1.24561">
        <ele>97.2</ele>
        <time>2022-08-10T16:26:04Z</time>
      </trkpt>
      <trkpt lat="44.47189" lon="1.24561">
        <ele>97.1</ele>
        <time>2022-08-10T16:26:06Z</time>
      </trkpt>
      <trkpt lat="44.47185" lon="1.2456">
        <ele>97.1</ele>
        <time>2022-08-10T16:26:08Z</time>
      </trkpt>
      <trkpt lat="44.47177" lon="1.24559">
        <ele>96.9</ele>
        <time>2022-08-10T16:26:10Z</time>
      </trkpt>
      <trkpt lat="44.47171" lon="1.24558">
        <ele>96.8</ele>
        <time>2022-08-10T16:26:12Z</time>
      </trkpt>
      <trkpt lat="44.47165" lon="1.24556">
        <ele>96.7</ele>
        <time>2022-08-10T16:26:14Z</time>
      </trkpt>
      <trkpt lat="44.4716" lon="1.24554">
        <ele>96.8</ele>
        <time>2022-08-10T16:26:16Z</time>
      </trkpt>
      <trkpt lat="44.47156" lon="1.24554">
        <ele>96.9</ele>
        <time>2022-08-10T16:26:18Z</time>
      </trkpt>
      <trkpt lat="44.47154" lon="1.24554">
        <ele>96.9</ele>
        <time>2022-08-10T16:26:20Z</time>
      </trkpt>
      <trkpt lat="44.47155" lon="1.24554">
        <ele>96.9</ele>
        <time>2022-08-10T16:26:22Z</time>
      </trkpt>
      <trkpt lat="44.47155" lon="1.24554">
        <ele>96.9</ele>
        <time>2022-08-10T16:26:26Z</time>
      </trkpt>
      <trkpt lat="44.47154" lon="1.24556">
        <ele>96.9</ele>
        <time>2022-08-10T16:26:28Z</time>
      </trkpt>
      <trkpt lat="44.47122" lon="1.24547">
        <ele>97.4</ele>
        <time>2022-08-10T16:45:46Z</time>
      </trkpt>
      <trkpt lat="44.47116" lon="1.24545">
        <ele>97.5</ele>
        <time>2022-08-10T16:45:48Z</time>
      </trkpt>
      <trkpt lat="44.47111" lon="1.24546">
        <ele>97.6</ele>
        <time>2022-08-10T16:45:50Z</time>
      </trkpt>
      <trkpt lat="44.47107" lon="1.24541">
        <ele>97.6</ele>
        <time>2022-08-10T16:45:52Z</time>
      </trkpt>
      <trkpt lat="44.47101" lon="1.24539">
        <ele>97.6</ele>
        <time>2022-08-10T16:45:54Z</time>
      </trkpt>
      <trkpt lat="44.47097" lon="1.24537">
        <ele>97.7</ele>
        <time>2022-08-10T16:45:56Z</time>
      </trkpt>
      <trkpt lat="44.47093" lon="1.24536">
        <ele>97.7</ele>
        <time>2022-08-10T16:45:58Z</time>
      </trkpt>
      <trkpt lat="44.47089" lon="1.24535">
        <ele>97.7</ele>
        <time>2022-08-10T16:46:00Z</time>
      </trkpt>
      <trkpt lat="44.47085" lon="1.24534">
        <ele>97.8</ele>
        <time>2022-08-10T16:46:02Z</time>
      </trkpt>
      <trkpt lat="44.47081" lon="1.24532">
        <ele>97.8</ele>
        <time>2022-08-10T16:46:04Z</time>
      </trkpt>
      <trkpt lat="44.47075" lon="1.24531">
        <ele>97.7</ele>
        <time>2022-08-10T16:46:06Z</time>
      </trkpt>
      <trkpt lat="44.47069" lon="1.24529">
        <ele>97.6</ele>
        <time>2022-08-10T16:46:08Z</time>
      </trkpt>
      <trkpt lat="44.47064" lon="1.24527">
        <ele>97.6</ele>
        <time>2022-08-10T16:46:10Z</time>
      </trkpt>
      <trkpt lat="44.47059" lon="1.24524">
        <ele>97.5</ele>
        <time>2022-08-10T16:46:12Z</time>
      </trkpt>
      <trkpt lat="44.47053" lon="1.24523">
        <ele>97.4</ele>
        <time>2022-08-10T16:46:14Z</time>
      </trkpt>
      <trkpt lat="44.47049" lon="1.24521">
        <ele>97.3</ele>
        <time>2022-08-10T16:46:16Z</time>
      </trkpt>
      <trkpt lat="44.47044" lon="1.2452">
        <ele>97.2</ele>
        <time>2022-08-10T16:46:18Z</time>
      </trkpt>
      <trkpt lat="44.47037" lon="1.24518">
        <ele>97.1</ele>
        <time>2022-08-10T16:46:20Z</time>
      </trkpt>
      <trkpt lat="44.47032" lon="1.24515">
        <ele>97</ele>
        <time>2022-08-10T16:46:22Z</time>
      </trkpt>
      <trkpt lat="44.47028" lon="1.24511">
        <ele>96.8</ele>
        <time>2022-08-10T16:46:24Z</time>
      </trkpt>
      <trkpt lat="44.47021" lon="1.24509">
        <ele>96.6</ele>
        <time>2022-08-10T16:46:26Z</time>
      </trkpt>
      <trkpt lat="44.47013" lon="1.24504">
        <ele>96.3</ele>
        <time>2022-08-10T16:46:28Z</time>
      </trkpt>
      <trkpt lat="44.47007" lon="1.245">
        <ele>96.1</ele>
        <time>2022-08-10T16:46:30Z</time>
      </trkpt>
      <trkpt lat="44.46999" lon="1.24496">
        <ele>95.9</ele>
        <time>2022-08-10T16:46:32Z</time>
      </trkpt>
      <trkpt lat="44.46993" lon="1.24493">
        <ele>96.1</ele>
        <time>2022-08-10T16:46:34Z</time>
      </trkpt>
      <trkpt lat="44.46989" lon="1.24489">
        <ele>96.3</ele>
        <time>2022-08-10T16:46:36Z</time>
      </trkpt>
      <trkpt lat="44.46982" lon="1.24488">
        <ele>96.5</ele>
        <time>2022-08-10T16:46:38Z</time>
      </trkpt>
      <trkpt lat="44.46977" lon="1.24486">
        <ele>96.7</ele>
        <time>2022-08-10T16:46:40Z</time>
      </trkpt>
      <trkpt lat="44.46971" lon="1.24483">
        <ele>96.9</ele>
        <time>2022-08-10T16:46:42Z</time>
      </trkpt>
      <trkpt lat="44.46965" lon="1.24479">
        <ele>97.1</ele>
        <time>2022-08-10T16:46:44Z</time>
      </trkpt>
      <trkpt lat="44.46959" lon="1.24475">
        <ele>97.2</ele>
        <time>2022-08-10T16:46:46Z</time>
      </trkpt>
      <trkpt lat="44.46952" lon="1.24472">
        <ele>97.4</ele>
        <time>2022-08-10T16:46:48Z</time>
      </trkpt>
      <trkpt lat="44.46946" lon="1.24467">
        <ele>97.5</ele>
        <time>2022-08-10T16:46:50Z</time>
      </trkpt>
      <trkpt lat="44.46939" lon="1.24463">
        <ele>97.7</ele>
        <time>2022-08-10T16:46:52Z</time>
      </trkpt>
      <trkpt lat="44.46934" lon="1.24459">
        <ele>97.8</ele>
        <time>2022-08-10T16:46:54Z</time>
      </trkpt>
      <trkpt lat="44.46931" lon="1.24456">
        <ele>97.8</ele>
        <time>2022-08-10T16:46:56Z</time>
      </trkpt>
      <trkpt lat="44.46927" lon="1.24455">
        <ele>97.9</ele>
        <time>2022-08-10T16:46:58Z</time>
      </trkpt>
      <trkpt lat="44.46924" lon="1.24452">
        <ele>98</ele>
        <time>2022-08-10T16:47:00Z</time>
      </trkpt>
      <trkpt lat="44.4692" lon="1.2445">
        <ele>98.1</ele>
        <time>2022-08-10T16:47:02Z</time>
      </trkpt>
      <trkpt lat="44.46917" lon="1.24448">
        <ele>98.1</ele>
        <time>2022-08-10T16:47:04Z</time>
      </trkpt>
      <trkpt lat="44.46912" lon="1.24447">
        <ele>98.7</ele>
        <time>2022-08-10T16:47:06Z</time>
      </trkpt>
      <trkpt lat="44.46908" lon="1.24442">
        <ele>99.2</ele>
        <time>2022-08-10T16:47:08Z</time>
      </trkpt>
      <trkpt lat="44.46902" lon="1.24437">
        <ele>99.7</ele>
        <time>2022-08-10T16:47:10Z</time>
      </trkpt>
      <trkpt lat="44.46897" lon="1.24433">
        <ele>100.3</ele>
        <time>2022-08-10T16:47:12Z</time>
      </trkpt>
      <trkpt lat="44.46894" lon="1.2443">
        <ele>100.6</ele>
        <time>2022-08-10T16:47:14Z</time>
      </trkpt>
      <trkpt lat="44.46888" lon="1.2443">
        <ele>101.3</ele>
        <time>2022-08-10T16:47:16Z</time>
      </trkpt>
      <trkpt lat="44.46884" lon="1.24428">
        <ele>101.7</ele>
        <time>2022-08-10T16:47:18Z</time>
      </trkpt>
      <trkpt lat="44.46881" lon="1.24425">
        <ele>101.9</ele>
        <time>2022-08-10T16:47:20Z</time>
      </trkpt>
      <trkpt lat="44.46878" lon="1.24424">
        <ele>102.2</ele>
        <time>2022-08-10T16:47:22Z</time>
      </trkpt>
      <trkpt lat="44.46875" lon="1.2442">
        <ele>102.3</ele>
        <time>2022-08-10T16:47:24Z</time>
      </trkpt>
      <trkpt lat="44.4687" lon="1.24416">
        <ele>102.5</ele>
        <time>2022-08-10T16:47:26Z</time>
      </trkpt>
      <trkpt lat="44.46866" lon="1.24411">
        <ele>103</ele>
        <time>2022-08-10T16:47:28Z</time>
      </trkpt>
      <trkpt lat="44.46861" lon="1.24405">
        <ele>103.3</ele>
        <time>2022-08-10T16:47:30Z</time>
      </trkpt>
      <trkpt lat="44.46858" lon="1.24398">
        <ele>103.4</ele>
        <time>2022-08-10T16:47:32Z</time>
      </trkpt>
      <trkpt lat="44.46854" lon="1.24391">
        <ele>103.5</ele>
        <time>2022-08-10T16:47:34Z</time>
      </trkpt>
      <trkpt lat="44.46851" lon="1.24386">
        <ele>103.6</ele>
        <time>2022-08-10T16:47:36Z</time>
      </trkpt>
      <trkpt lat="44.46847" lon="1.24382">
        <ele>103.7</ele>
        <time>2022-08-10T16:47:38Z</time>
      </trkpt>
      <trkpt lat="44.46845" lon="1.24375">
        <ele>103.6</ele>
        <time>2022-08-10T16:47:40Z</time>
      </trkpt>
      <trkpt lat="44.46841" lon="1.24368">
        <ele>103.5</ele>
        <time>2022-08-10T16:47:42Z</time>
      </trkpt>
      <trkpt lat="44.46838" lon="1.2436">
        <ele>103.3</ele>
        <time>2022-08-10T16:47:44Z</time>
      </trkpt>
      <trkpt lat="44.46833" lon="1.2435">
        <ele>103.1</ele>
        <time>2022-08-10T16:47:46Z</time>
      </trkpt>
      <trkpt lat="44.46829" lon="1.24342">
        <ele>104.4</ele>
        <time>2022-08-10T16:47:48Z</time>
      </trkpt>
      <trkpt lat="44.46827" lon="1.24332">
        <ele>104.7</ele>
        <time>2022-08-10T16:47:50Z</time>
      </trkpt>
      <trkpt lat="44.46823" lon="1.24324">
        <ele>106</ele>
        <time>2022-08-10T16:47:52Z</time>
      </trkpt>
      <trkpt lat="44.4682" lon="1.24316">
        <ele>107.1</ele>
        <time>2022-08-10T16:47:54Z</time>
      </trkpt>
      <trkpt lat="44.46817" lon="1.24309">
        <ele>108</ele>
        <time>2022-08-10T16:47:56Z</time>
      </trkpt>
      <trkpt lat="44.46815" lon="1.24302">
        <ele>109.1</ele>
        <time>2022-08-10T16:47:58Z</time>
      </trkpt>
      <trkpt lat="44.46813" lon="1.24294">
        <ele>109.8</ele>
        <time>2022-08-10T16:48:00Z</time>
      </trkpt>
      <trkpt lat="44.46811" lon="1.24289">
        <ele>110.5</ele>
        <time>2022-08-10T16:48:02Z</time>
      </trkpt>
      <trkpt lat="44.46808" lon="1.24284">
        <ele>111.8</ele>
        <time>2022-08-10T16:48:04Z</time>
      </trkpt>
      <trkpt lat="44.46807" lon="1.24275">
        <ele>112.2</ele>
        <time>2022-08-10T16:48:06Z</time>
      </trkpt>
      <trkpt lat="44.46805" lon="1.24267">
        <ele>112.9</ele>
        <time>2022-08-10T16:48:08Z</time>
      </trkpt>
      <trkpt lat="44.46803" lon="1.2426">
        <ele>113.8</ele>
        <time>2022-08-10T16:48:10Z</time>
      </trkpt>
      <trkpt lat="44.46802" lon="1.24252">
        <ele>114.4</ele>
        <time>2022-08-10T16:48:12Z</time>
      </trkpt>
      <trkpt lat="44.46801" lon="1.24245">
        <ele>115</ele>
        <time>2022-08-10T16:48:14Z</time>
      </trkpt>
      <trkpt lat="44.46801" lon="1.24235">
        <ele>115.3</ele>
        <time>2022-08-10T16:48:16Z</time>
      </trkpt>
      <trkpt lat="44.468" lon="1.24229">
        <ele>116</ele>
        <time>2022-08-10T16:48:18Z</time>
      </trkpt>
      <trkpt lat="44.468" lon="1.24219">
        <ele>116.3</ele>
        <time>2022-08-10T16:48:20Z</time>
      </trkpt>
      <trkpt lat="44.468" lon="1.24208">
        <ele>116.8</ele>
        <time>2022-08-10T16:48:22Z</time>
      </trkpt>
      <trkpt lat="44.468" lon="1.242">
        <ele>117.3</ele>
        <time>2022-08-10T16:48:24Z</time>
      </trkpt>
      <trkpt lat="44.468" lon="1.2419">
        <ele>117.7</ele>
        <time>2022-08-10T16:48:26Z</time>
      </trkpt>
      <trkpt lat="44.46799" lon="1.24183">
        <ele>118.3</ele>
        <time>2022-08-10T16:48:28Z</time>
      </trkpt>
      <trkpt lat="44.46798" lon="1.24176">
        <ele>119</ele>
        <time>2022-08-10T16:48:30Z</time>
      </trkpt>
      <trkpt lat="44.46798" lon="1.24168">
        <ele>119.2</ele>
        <time>2022-08-10T16:48:32Z</time>
      </trkpt>
      <trkpt lat="44.46799" lon="1.2416">
        <ele>119.1</ele>
        <time>2022-08-10T16:48:34Z</time>
      </trkpt>
      <trkpt lat="44.46798" lon="1.24151">
        <ele>119.6</ele>
        <time>2022-08-10T16:48:36Z</time>
      </trkpt>
      <trkpt lat="44.46797" lon="1.24141">
        <ele>120.3</ele>
        <time>2022-08-10T16:48:38Z</time>
      </trkpt>
      <trkpt lat="44.46795" lon="1.24133">
        <ele>121.5</ele>
        <time>2022-08-10T16:48:40Z</time>
      </trkpt>
      <trkpt lat="44.46795" lon="1.24128">
        <ele>121.4</ele>
        <time>2022-08-10T16:48:42Z</time>
      </trkpt>
      <trkpt lat="44.46796" lon="1.24121">
        <ele>120.9</ele>
        <time>2022-08-10T16:48:44Z</time>
      </trkpt>
      <trkpt lat="44.46797" lon="1.24113">
        <ele>120.9</ele>
        <time>2022-08-10T16:48:46Z</time>
      </trkpt>
      <trkpt lat="44.46797" lon="1.24105">
        <ele>120.7</ele>
        <time>2022-08-10T16:48:48Z</time>
      </trkpt>
      <trkpt lat="44.46796" lon="1.24097">
        <ele>121.3</ele>
        <time>2022-08-10T16:48:50Z</time>
      </trkpt>
      <trkpt lat="44.46796" lon="1.24091">
        <ele>121.5</ele>
        <time>2022-08-10T16:48:52Z</time>
      </trkpt>
      <trkpt lat="44.46794" lon="1.24083">
        <ele>122.7</ele>
        <time>2022-08-10T16:48:54Z</time>
      </trkpt>
      <trkpt lat="44.46793" lon="1.24077">
        <ele>123.4</ele>
        <time>2022-08-10T16:48:56Z</time>
      </trkpt>
      <trkpt lat="44.46793" lon="1.24069">
        <ele>123.8</ele>
        <time>2022-08-10T16:48:58Z</time>
      </trkpt>
      <trkpt lat="44.46793" lon="1.24063">
        <ele>124.2</ele>
        <time>2022-08-10T16:49:00Z</time>
      </trkpt>
      <trkpt lat="44.46794" lon="1.24056">
        <ele>124</ele>
        <time>2022-08-10T16:49:02Z</time>
      </trkpt>
      <trkpt lat="44.46795" lon="1.2405">
        <ele>124.1</ele>
        <time>2022-08-10T16:49:04Z</time>
      </trkpt>
      <trkpt lat="44.46794" lon="1.24046">
        <ele>124.5</ele>
        <time>2022-08-10T16:49:06Z</time>
      </trkpt>
      <trkpt lat="44.46794" lon="1.24042">
        <ele>125</ele>
        <time>2022-08-10T16:49:08Z</time>
      </trkpt>
      <trkpt lat="44.46795" lon="1.24038">
        <ele>124.8</ele>
        <time>2022-08-10T16:49:10Z</time>
      </trkpt>
      <trkpt lat="44.46795" lon="1.24035">
        <ele>124.7</ele>
        <time>2022-08-10T16:49:12Z</time>
      </trkpt>
      <trkpt lat="44.46798" lon="1.24031">
        <ele>123.5</ele>
        <time>2022-08-10T16:49:14Z</time>
      </trkpt>
      <trkpt lat="44.46797" lon="1.24026">
        <ele>123.9</ele>
        <time>2022-08-10T16:49:16Z</time>
      </trkpt>
      <trkpt lat="44.46797" lon="1.24022">
        <ele>124.3</ele>
        <time>2022-08-10T16:49:18Z</time>
      </trkpt>
      <trkpt lat="44.46797" lon="1.24015">
        <ele>124.9</ele>
        <time>2022-08-10T16:49:20Z</time>
      </trkpt>
      <trkpt lat="44.46796" lon="1.24009">
        <ele>125.7</ele>
        <time>2022-08-10T16:49:22Z</time>
      </trkpt>
      <trkpt lat="44.46794" lon="1.24001">
        <ele>127.2</ele>
        <time>2022-08-10T16:49:24Z</time>
      </trkpt>
      <trkpt lat="44.46793" lon="1.23997">
        <ele>128.1</ele>
        <time>2022-08-10T16:49:26Z</time>
      </trkpt>
      <trkpt lat="44.46793" lon="1.23989">
        <ele>128.6</ele>
        <time>2022-08-10T16:49:28Z</time>
      </trkpt>
      <trkpt lat="44.46792" lon="1.23982">
        <ele>129.5</ele>
        <time>2022-08-10T16:49:30Z</time>
      </trkpt>
      <trkpt lat="44.46792" lon="1.23975">
        <ele>130.4</ele>
        <time>2022-08-10T16:49:32Z</time>
      </trkpt>
      <trkpt lat="44.46792" lon="1.23969">
        <ele>131</ele>
        <time>2022-08-10T16:49:34Z</time>
      </trkpt>
      <trkpt lat="44.46792" lon="1.23963">
        <ele>131.2</ele>
        <time>2022-08-10T16:49:36Z</time>
      </trkpt>
      <trkpt lat="44.46793" lon="1.23955">
        <ele>131.4</ele>
        <time>2022-08-10T16:49:38Z</time>
      </trkpt>
      <trkpt lat="44.46794" lon="1.23949">
        <ele>131.3</ele>
        <time>2022-08-10T16:49:40Z</time>
      </trkpt>
      <trkpt lat="44.46797" lon="1.23941">
        <ele>130.4</ele>
        <time>2022-08-10T16:49:42Z</time>
      </trkpt>
      <trkpt lat="44.46798" lon="1.23934">
        <ele>130.1</ele>
        <time>2022-08-10T16:49:44Z</time>
      </trkpt>
      <trkpt lat="44.46799" lon="1.23927">
        <ele>129.7</ele>
        <time>2022-08-10T16:49:46Z</time>
      </trkpt>
      <trkpt lat="44.468" lon="1.23921">
        <ele>130</ele>
        <time>2022-08-10T16:49:48Z</time>
      </trkpt>
      <trkpt lat="44.46801" lon="1.23915">
        <ele>129.8</ele>
        <time>2022-08-10T16:49:50Z</time>
      </trkpt>
      <trkpt lat="44.46803" lon="1.23908">
        <ele>129</ele>
        <time>2022-08-10T16:49:52Z</time>
      </trkpt>
      <trkpt lat="44.46805" lon="1.239">
        <ele>127.9</ele>
        <time>2022-08-10T16:49:54Z</time>
      </trkpt>
      <trkpt lat="44.46808" lon="1.23894">
        <ele>126.6</ele>
        <time>2022-08-10T16:49:56Z</time>
      </trkpt>
      <trkpt lat="44.46812" lon="1.23887">
        <ele>125.2</ele>
        <time>2022-08-10T16:49:58Z</time>
      </trkpt>
      <trkpt lat="44.46819" lon="1.2388">
        <ele>121.9</ele>
        <time>2022-08-10T16:50:00Z</time>
      </trkpt>
      <trkpt lat="44.46818" lon="1.23873">
        <ele>122.8</ele>
        <time>2022-08-10T16:50:02Z</time>
      </trkpt>
      <trkpt lat="44.46824" lon="1.23867">
        <ele>120.6</ele>
        <time>2022-08-10T16:50:04Z</time>
      </trkpt>
      <trkpt lat="44.46826" lon="1.23859">
        <ele>120.4</ele>
        <time>2022-08-10T16:50:06Z</time>
      </trkpt>
      <trkpt lat="44.46828" lon="1.23853">
        <ele>119.8</ele>
        <time>2022-08-10T16:50:08Z</time>
      </trkpt>
      <trkpt lat="44.46834" lon="1.23843">
        <ele>118.7</ele>
        <time>2022-08-10T16:50:10Z</time>
      </trkpt>
      <trkpt lat="44.46841" lon="1.23834">
        <ele>118.3</ele>
        <time>2022-08-10T16:50:12Z</time>
      </trkpt>
      <trkpt lat="44.46847" lon="1.23824">
        <ele>118.8</ele>
        <time>2022-08-10T16:50:14Z</time>
      </trkpt>
      <trkpt lat="44.46851" lon="1.23819">
        <ele>118.7</ele>
        <time>2022-08-10T16:50:16Z</time>
      </trkpt>
      <trkpt lat="44.46857" lon="1.23809">
        <ele>119.1</ele>
        <time>2022-08-10T16:50:18Z</time>
      </trkpt>
      <trkpt lat="44.46865" lon="1.23804">
        <ele>118.6</ele>
        <time>2022-08-10T16:50:20Z</time>
      </trkpt>
      <trkpt lat="44.46868" lon="1.23799">
        <ele>118.8</ele>
        <time>2022-08-10T16:50:22Z</time>
      </trkpt>
      <trkpt lat="44.46873" lon="1.23797">
        <ele>118.5</ele>
        <time>2022-08-10T16:50:24Z</time>
      </trkpt>
      <trkpt lat="44.46879" lon="1.23793">
        <ele>118</ele>
        <time>2022-08-10T16:50:26Z</time>
      </trkpt>
      <trkpt lat="44.46884" lon="1.23786">
        <ele>118.7</ele>
        <time>2022-08-10T16:50:28Z</time>
      </trkpt>
      <trkpt lat="44.46887" lon="1.23784">
        <ele>118.5</ele>
        <time>2022-08-10T16:50:30Z</time>
      </trkpt>
      <trkpt lat="44.46897" lon="1.2378">
        <ele>117.6</ele>
        <time>2022-08-10T16:50:32Z</time>
      </trkpt>
      <trkpt lat="44.46904" lon="1.23774">
        <ele>117.8</ele>
        <time>2022-08-10T16:50:34Z</time>
      </trkpt>
      <trkpt lat="44.46912" lon="1.23771">
        <ele>117.3</ele>
        <time>2022-08-10T16:50:36Z</time>
      </trkpt>
      <trkpt lat="44.46917" lon="1.23765">
        <ele>117.9</ele>
        <time>2022-08-10T16:50:38Z</time>
      </trkpt>
      <trkpt lat="44.46925" lon="1.23762">
        <ele>116.8</ele>
        <time>2022-08-10T16:50:40Z</time>
      </trkpt>
      <trkpt lat="44.46929" lon="1.23756">
        <ele>116.9</ele>
        <time>2022-08-10T16:50:42Z</time>
      </trkpt>
      <trkpt lat="44.46935" lon="1.23749">
        <ele>116.5</ele>
        <time>2022-08-10T16:50:44Z</time>
      </trkpt>
      <trkpt lat="44.46939" lon="1.23743">
        <ele>115.7</ele>
        <time>2022-08-10T16:50:46Z</time>
      </trkpt>
      <trkpt lat="44.46944" lon="1.23739">
        <ele>114.6</ele>
        <time>2022-08-10T16:50:48Z</time>
      </trkpt>
      <trkpt lat="44.46951" lon="1.23735">
        <ele>113.2</ele>
        <time>2022-08-10T16:50:50Z</time>
      </trkpt>
      <trkpt lat="44.46955" lon="1.23729">
        <ele>112.5</ele>
        <time>2022-08-10T16:50:52Z</time>
      </trkpt>
      <trkpt lat="44.4696" lon="1.23725">
        <ele>111.5</ele>
        <time>2022-08-10T16:50:54Z</time>
      </trkpt>
      <trkpt lat="44.46964" lon="1.2372">
        <ele>110.8</ele>
        <time>2022-08-10T16:50:56Z</time>
      </trkpt>
      <trkpt lat="44.46968" lon="1.23715">
        <ele>109.9</ele>
        <time>2022-08-10T16:50:58Z</time>
      </trkpt>
      <trkpt lat="44.46973" lon="1.2371">
        <ele>109</ele>
        <time>2022-08-10T16:51:00Z</time>
      </trkpt>
      <trkpt lat="44.46978" lon="1.23707">
        <ele>108</ele>
        <time>2022-08-10T16:51:02Z</time>
      </trkpt>
      <trkpt lat="44.46982" lon="1.23703">
        <ele>107.3</ele>
        <time>2022-08-10T16:51:04Z</time>
      </trkpt>
      <trkpt lat="44.46986" lon="1.23696">
        <ele>106.7</ele>
        <time>2022-08-10T16:51:06Z</time>
      </trkpt>
      <trkpt lat="44.4699" lon="1.23692">
        <ele>105.8</ele>
        <time>2022-08-10T16:51:08Z</time>
      </trkpt>
      <trkpt lat="44.46994" lon="1.23689">
        <ele>105.1</ele>
        <time>2022-08-10T16:51:10Z</time>
      </trkpt>
      <trkpt lat="44.46999" lon="1.23685">
        <ele>104.1</ele>
        <time>2022-08-10T16:51:12Z</time>
      </trkpt>
      <trkpt lat="44.47004" lon="1.23681">
        <ele>104</ele>
        <time>2022-08-10T16:51:14Z</time>
      </trkpt>
      <trkpt lat="44.47009" lon="1.23676">
        <ele>104.1</ele>
        <time>2022-08-10T16:51:16Z</time>
      </trkpt>
      <trkpt lat="44.47011" lon="1.23667">
        <ele>104.5</ele>
        <time>2022-08-10T16:51:18Z</time>
      </trkpt>
      <trkpt lat="44.47011" lon="1.2366">
        <ele>105.8</ele>
        <time>2022-08-10T16:51:20Z</time>
      </trkpt>
      <trkpt lat="44.47012" lon="1.23654">
        <ele>107</ele>
        <time>2022-08-10T16:51:22Z</time>
      </trkpt>
      <trkpt lat="44.47014" lon="1.23648">
        <ele>108.2</ele>
        <time>2022-08-10T16:51:24Z</time>
      </trkpt>
      <trkpt lat="44.47017" lon="1.23642">
        <ele>109.1</ele>
        <time>2022-08-10T16:51:26Z</time>
      </trkpt>
      <trkpt lat="44.47022" lon="1.23638">
        <ele>109.3</ele>
        <time>2022-08-10T16:51:28Z</time>
      </trkpt>
      <trkpt lat="44.47027" lon="1.23632">
        <ele>109.7</ele>
        <time>2022-08-10T16:51:30Z</time>
      </trkpt>
      <trkpt lat="44.47032" lon="1.23629">
        <ele>109.8</ele>
        <time>2022-08-10T16:51:32Z</time>
      </trkpt>
      <trkpt lat="44.47036" lon="1.23626">
        <ele>109.8</ele>
        <time>2022-08-10T16:51:34Z</time>
      </trkpt>
      <trkpt lat="44.4704" lon="1.23623">
        <ele>109.9</ele>
        <time>2022-08-10T16:51:36Z</time>
      </trkpt>
      <trkpt lat="44.47043" lon="1.23619">
        <ele>109.9</ele>
        <time>2022-08-10T16:51:38Z</time>
      </trkpt>
      <trkpt lat="44.47047" lon="1.23615">
        <ele>110.1</ele>
        <time>2022-08-10T16:51:40Z</time>
      </trkpt>
      <trkpt lat="44.47049" lon="1.23612">
        <ele>110.1</ele>
        <time>2022-08-10T16:51:42Z</time>
      </trkpt>
      <trkpt lat="44.47052" lon="1.23609">
        <ele>110.1</ele>
        <time>2022-08-10T16:51:44Z</time>
      </trkpt>
      <trkpt lat="44.47054" lon="1.23607">
        <ele>110</ele>
        <time>2022-08-10T16:51:46Z</time>
      </trkpt>
      <trkpt lat="44.47056" lon="1.23604">
        <ele>110</ele>
        <time>2022-08-10T16:51:48Z</time>
      </trkpt>
      <trkpt lat="44.47059" lon="1.23603">
        <ele>109.8</ele>
        <time>2022-08-10T16:51:50Z</time>
      </trkpt>
      <trkpt lat="44.47061" lon="1.23599">
        <ele>109.8</ele>
        <time>2022-08-10T16:51:52Z</time>
      </trkpt>
      <trkpt lat="44.47063" lon="1.23597">
        <ele>109.7</ele>
        <time>2022-08-10T16:51:54Z</time>
      </trkpt>
      <trkpt lat="44.47067" lon="1.23596">
        <ele>109.1</ele>
        <time>2022-08-10T16:51:56Z</time>
      </trkpt>
      <trkpt lat="44.4707" lon="1.23592">
        <ele>108.8</ele>
        <time>2022-08-10T16:51:58Z</time>
      </trkpt>
      <trkpt lat="44.47073" lon="1.23587">
        <ele>108.7</ele>
        <time>2022-08-10T16:52:00Z</time>
      </trkpt>
      <trkpt lat="44.47075" lon="1.23582">
        <ele>109</ele>
        <time>2022-08-10T16:52:02Z</time>
      </trkpt>
      <trkpt lat="44.47079" lon="1.2358">
        <ele>109</ele>
        <time>2022-08-10T16:52:04Z</time>
      </trkpt>
      <trkpt lat="44.47082" lon="1.23574">
        <ele>109.8</ele>
        <time>2022-08-10T16:52:06Z</time>
      </trkpt>
      <trkpt lat="44.47086" lon="1.2357">
        <ele>110.3</ele>
        <time>2022-08-10T16:52:08Z</time>
      </trkpt>
      <trkpt lat="44.4709" lon="1.23566">
        <ele>110.8</ele>
        <time>2022-08-10T16:52:10Z</time>
      </trkpt>
      <trkpt lat="44.47096" lon="1.2356">
        <ele>111.3</ele>
        <time>2022-08-10T16:52:12Z</time>
      </trkpt>
      <trkpt lat="44.47102" lon="1.23556">
        <ele>111.3</ele>
        <time>2022-08-10T16:52:14Z</time>
      </trkpt>
      <trkpt lat="44.47107" lon="1.23553">
        <ele>111</ele>
        <time>2022-08-10T16:52:16Z</time>
      </trkpt>
      <trkpt lat="44.47112" lon="1.23548">
        <ele>111.3</ele>
        <time>2022-08-10T16:52:18Z</time>
      </trkpt>
      <trkpt lat="44.47117" lon="1.23546">
        <ele>110.9</ele>
        <time>2022-08-10T16:52:20Z</time>
      </trkpt>
      <trkpt lat="44.47123" lon="1.23542">
        <ele>110.6</ele>
        <time>2022-08-10T16:52:22Z</time>
      </trkpt>
      <trkpt lat="44.47128" lon="1.2354">
        <ele>109.9</ele>
        <time>2022-08-10T16:52:24Z</time>
      </trkpt>
      <trkpt lat="44.47133" lon="1.23537">
        <ele>109.5</ele>
        <time>2022-08-10T16:52:26Z</time>
      </trkpt>
      <trkpt lat="44.47138" lon="1.23532">
        <ele>109.5</ele>
        <time>2022-08-10T16:52:28Z</time>
      </trkpt>
      <trkpt lat="44.47146" lon="1.23529">
        <ele>108.4</ele>
        <time>2022-08-10T16:52:30Z</time>
      </trkpt>
      <trkpt lat="44.47154" lon="1.23525">
        <ele>107.2</ele>
        <time>2022-08-10T16:52:32Z</time>
      </trkpt>
      <trkpt lat="44.47161" lon="1.23519">
        <ele>106.7</ele>
        <time>2022-08-10T16:52:34Z</time>
      </trkpt>
      <trkpt lat="44.47169" lon="1.23513">
        <ele>105.9</ele>
        <time>2022-08-10T16:52:36Z</time>
      </trkpt>
      <trkpt lat="44.47176" lon="1.23507">
        <ele>106.1</ele>
        <time>2022-08-10T16:52:38Z</time>
      </trkpt>
      <trkpt lat="44.47183" lon="1.235">
        <ele>106.2</ele>
        <time>2022-08-10T16:52:40Z</time>
      </trkpt>
      <trkpt lat="44.47191" lon="1.23495">
        <ele>106.5</ele>
        <time>2022-08-10T16:52:42Z</time>
      </trkpt>
      <trkpt lat="44.47198" lon="1.23488">
        <ele>106.9</ele>
        <time>2022-08-10T16:52:44Z</time>
      </trkpt>
      <trkpt lat="44.47206" lon="1.23482">
        <ele>107</ele>
        <time>2022-08-10T16:52:46Z</time>
      </trkpt>
      <trkpt lat="44.47212" lon="1.23473">
        <ele>107.4</ele>
        <time>2022-08-10T16:52:48Z</time>
      </trkpt>
      <trkpt lat="44.47219" lon="1.23468">
        <ele>106.8</ele>
        <time>2022-08-10T16:52:50Z</time>
      </trkpt>
      <trkpt lat="44.47226" lon="1.23462">
        <ele>106.2</ele>
        <time>2022-08-10T16:52:52Z</time>
      </trkpt>
      <trkpt lat="44.4723" lon="1.23457">
        <ele>105.8</ele>
        <time>2022-08-10T16:52:54Z</time>
      </trkpt>
      <trkpt lat="44.47235" lon="1.23453">
        <ele>105.4</ele>
        <time>2022-08-10T16:52:56Z</time>
      </trkpt>
      <trkpt lat="44.47236" lon="1.23447">
        <ele>105.7</ele>
        <time>2022-08-10T16:52:58Z</time>
      </trkpt>
      <trkpt lat="44.47238" lon="1.23441">
        <ele>105.7</ele>
        <time>2022-08-10T16:53:00Z</time>
      </trkpt>
      <trkpt lat="44.47241" lon="1.23435">
        <ele>105.4</ele>
        <time>2022-08-10T16:53:02Z</time>
      </trkpt>
      <trkpt lat="44.47244" lon="1.23428">
        <ele>105</ele>
        <time>2022-08-10T16:53:04Z</time>
      </trkpt>
      <trkpt lat="44.47248" lon="1.23422">
        <ele>104.4</ele>
        <time>2022-08-10T16:53:06Z</time>
      </trkpt>
      <trkpt lat="44.47251" lon="1.23415">
        <ele>104.1</ele>
        <time>2022-08-10T16:53:08Z</time>
      </trkpt>
      <trkpt lat="44.47255" lon="1.2341">
        <ele>104.7</ele>
        <time>2022-08-10T16:53:10Z</time>
      </trkpt>
      <trkpt lat="44.47259" lon="1.23404">
        <ele>105.4</ele>
        <time>2022-08-10T16:53:12Z</time>
      </trkpt>
      <trkpt lat="44.47262" lon="1.23397">
        <ele>106.2</ele>
        <time>2022-08-10T16:53:14Z</time>
      </trkpt>
      <trkpt lat="44.47266" lon="1.23391">
        <ele>106.8</ele>
        <time>2022-08-10T16:53:16Z</time>
      </trkpt>
      <trkpt lat="44.47269" lon="1.23385">
        <ele>107.3</ele>
        <time>2022-08-10T16:53:18Z</time>
      </trkpt>
      <trkpt lat="44.47273" lon="1.23379">
        <ele>107.6</ele>
        <time>2022-08-10T16:53:20Z</time>
      </trkpt>
      <trkpt lat="44.47277" lon="1.23373">
        <ele>108</ele>
        <time>2022-08-10T16:53:22Z</time>
      </trkpt>
      <trkpt lat="44.4728" lon="1.23367">
        <ele>108.3</ele>
        <time>2022-08-10T16:53:24Z</time>
      </trkpt>
      <trkpt lat="44.47283" lon="1.23362">
        <ele>108.6</ele>
        <time>2022-08-10T16:53:26Z</time>
      </trkpt>
      <trkpt lat="44.47286" lon="1.23356">
        <ele>108.7</ele>
        <time>2022-08-10T16:53:28Z</time>
      </trkpt>
      <trkpt lat="44.47289" lon="1.23351">
        <ele>108.8</ele>
        <time>2022-08-10T16:53:30Z</time>
      </trkpt>
      <trkpt lat="44.47292" lon="1.23346">
        <ele>108.8</ele>
        <time>2022-08-10T16:53:32Z</time>
      </trkpt>
      <trkpt lat="44.47295" lon="1.2334">
        <ele>108.9</ele>
        <time>2022-08-10T16:53:34Z</time>
      </trkpt>
      <trkpt lat="44.47297" lon="1.23336">
        <ele>108.8</ele>
        <time>2022-08-10T16:53:36Z</time>
      </trkpt>
      <trkpt lat="44.47301" lon="1.23331">
        <ele>108.4</ele>
        <time>2022-08-10T16:53:38Z</time>
      </trkpt>
      <trkpt lat="44.47302" lon="1.23328">
        <ele>108.3</ele>
        <time>2022-08-10T16:53:40Z</time>
      </trkpt>
      <trkpt lat="44.47304" lon="1.23323">
        <ele>108.1</ele>
        <time>2022-08-10T16:53:42Z</time>
      </trkpt>
      <trkpt lat="44.47307" lon="1.23316">
        <ele>107.9</ele>
        <time>2022-08-10T16:53:44Z</time>
      </trkpt>
      <trkpt lat="44.4731" lon="1.2331">
        <ele>107.6</ele>
        <time>2022-08-10T16:53:46Z</time>
      </trkpt>
      <trkpt lat="44.47315" lon="1.23304">
        <ele>106.9</ele>
        <time>2022-08-10T16:53:48Z</time>
      </trkpt>
      <trkpt lat="44.4732" lon="1.23297">
        <ele>106</ele>
        <time>2022-08-10T16:53:50Z</time>
      </trkpt>
      <trkpt lat="44.47328" lon="1.2329">
        <ele>104.8</ele>
        <time>2022-08-10T16:53:52Z</time>
      </trkpt>
      <trkpt lat="44.47336" lon="1.23282">
        <ele>104.1</ele>
        <time>2022-08-10T16:53:54Z</time>
      </trkpt>
      <trkpt lat="44.47346" lon="1.23275">
        <ele>104.2</ele>
        <time>2022-08-10T16:53:56Z</time>
      </trkpt>
      <trkpt lat="44.47356" lon="1.23268">
        <ele>104.2</ele>
        <time>2022-08-10T16:53:58Z</time>
      </trkpt>
      <trkpt lat="44.47367" lon="1.23263">
        <ele>104.1</ele>
        <time>2022-08-10T16:54:00Z</time>
      </trkpt>
      <trkpt lat="44.4738" lon="1.23261">
        <ele>103.6</ele>
        <time>2022-08-10T16:54:02Z</time>
      </trkpt>
      <trkpt lat="44.47394" lon="1.23262">
        <ele>102.8</ele>
        <time>2022-08-10T16:54:04Z</time>
      </trkpt>
      <trkpt lat="44.47407" lon="1.23262">
        <ele>102</ele>
        <time>2022-08-10T16:54:06Z</time>
      </trkpt>
      <trkpt lat="44.47419" lon="1.23261">
        <ele>101.5</ele>
        <time>2022-08-10T16:54:08Z</time>
      </trkpt>
      <trkpt lat="44.47431" lon="1.23258">
        <ele>101.3</ele>
        <time>2022-08-10T16:54:10Z</time>
      </trkpt>
      <trkpt lat="44.47443" lon="1.23255">
        <ele>100.9</ele>
        <time>2022-08-10T16:54:12Z</time>
      </trkpt>
      <trkpt lat="44.47453" lon="1.23252">
        <ele>100.7</ele>
        <time>2022-08-10T16:54:14Z</time>
      </trkpt>
      <trkpt lat="44.47463" lon="1.23249">
        <ele>100.5</ele>
        <time>2022-08-10T16:54:16Z</time>
      </trkpt>
      <trkpt lat="44.47471" lon="1.23246">
        <ele>100.9</ele>
        <time>2022-08-10T16:54:18Z</time>
      </trkpt>
      <trkpt lat="44.47478" lon="1.23243">
        <ele>101.1</ele>
        <time>2022-08-10T16:54:20Z</time>
      </trkpt>
      <trkpt lat="44.47485" lon="1.23243">
        <ele>100.9</ele>
        <time>2022-08-10T16:54:22Z</time>
      </trkpt>
      <trkpt lat="44.47487" lon="1.23248">
        <ele>99.4</ele>
        <time>2022-08-10T16:54:24Z</time>
      </trkpt>
      <trkpt lat="44.47487" lon="1.23251">
        <ele>98.7</ele>
        <time>2022-08-10T16:54:26Z</time>
      </trkpt>
      <trkpt lat="44.47487" lon="1.23254">
        <ele>98.4</ele>
        <time>2022-08-10T16:54:28Z</time>
      </trkpt>
      <trkpt lat="44.47488" lon="1.23255">
        <ele>98.4</ele>
        <time>2022-08-10T16:54:30Z</time>
      </trkpt>
      <trkpt lat="44.47489" lon="1.23256">
        <ele>98.3</ele>
        <time>2022-08-10T16:54:32Z</time>
      </trkpt>
      <trkpt lat="44.47489" lon="1.23256">
        <ele>98.2</ele>
        <time>2022-08-10T16:54:34Z</time>
      </trkpt>
      <trkpt lat="44.47478" lon="1.23263">
        <ele>98.2</ele>
        <time>2022-08-10T16:54:52Z</time>
      </trkpt>
      <trkpt lat="44.47472" lon="1.23266">
        <ele>98.3</ele>
        <time>2022-08-10T16:54:54Z</time>
      </trkpt>
      <trkpt lat="44.47466" lon="1.23271">
        <ele>98.2</ele>
        <time>2022-08-10T16:54:56Z</time>
      </trkpt>
      <trkpt lat="44.47459" lon="1.23273">
        <ele>98.2</ele>
        <time>2022-08-10T16:54:58Z</time>
      </trkpt>
      <trkpt lat="44.47455" lon="1.23282">
        <ele>97.6</ele>
        <time>2022-08-10T16:55:00Z</time>
      </trkpt>
      <trkpt lat="44.47459" lon="1.2329">
        <ele>96.6</ele>
        <time>2022-08-10T16:55:02Z</time>
      </trkpt>
      <trkpt lat="44.47468" lon="1.23291">
        <ele>96.2</ele>
        <time>2022-08-10T16:55:04Z</time>
      </trkpt>
      <trkpt lat="44.47474" lon="1.23284">
        <ele>96.6</ele>
        <time>2022-08-10T16:55:06Z</time>
      </trkpt>
      <trkpt lat="44.47479" lon="1.23279">
        <ele>96.8</ele>
        <time>2022-08-10T16:55:08Z</time>
      </trkpt>
      <trkpt lat="44.47484" lon="1.23275">
        <ele>97</ele>
        <time>2022-08-10T16:55:10Z</time>
      </trkpt>
      <trkpt lat="44.47487" lon="1.23273">
        <ele>97</ele>
        <time>2022-08-10T16:55:12Z</time>
      </trkpt>
      <trkpt lat="44.4749" lon="1.23273">
        <ele>96.8</ele>
        <time>2022-08-10T16:55:14Z</time>
      </trkpt>
      <trkpt lat="44.47491" lon="1.23272">
        <ele>96.9</ele>
        <time>2022-08-10T16:55:16Z</time>
      </trkpt>
      <trkpt lat="44.47491" lon="1.23271">
        <ele>96.9</ele>
        <time>2022-08-10T16:55:18Z</time>
      </trkpt>
      <trkpt lat="44.47491" lon="1.23271">
        <ele>97</ele>
        <time>2022-08-10T16:55:20Z</time>
      </trkpt>
      <trkpt lat="44.47491" lon="1.23271">
        <ele>97</ele>
        <time>2022-08-10T16:55:22Z</time>
      </trkpt>
      <trkpt lat="44.47491" lon="1.23271">
        <ele>96.9</ele>
        <time>2022-08-10T16:55:24Z</time>
      </trkpt>
      <trkpt lat="44.47491" lon="1.23271">
        <ele>96.9</ele>
        <time>2022-08-10T16:55:28Z</time>
      </trkpt>
      <trkpt lat="44.4749" lon="1.23272">
        <ele>96.8</ele>
        <time>2022-08-10T16:55:30Z</time>
      </trkpt>
      <trkpt lat="44.4749" lon="1.23272">
        <ele>96.9</ele>
        <time>2022-08-10T16:55:32Z</time>
      </trkpt>
      <trkpt lat="44.4749" lon="1.2327">
        <ele>97</ele>
        <time>2022-08-10T16:55:34Z</time>
      </trkpt>
      <trkpt lat="44.47491" lon="1.23268">
        <ele>97.2</ele>
        <time>2022-08-10T16:55:36Z</time>
      </trkpt>
      <trkpt lat="44.4749" lon="1.23268">
        <ele>97.2</ele>
        <time>2022-08-10T16:55:38Z</time>
      </trkpt>
      <trkpt lat="44.4749" lon="1.23268">
        <ele>97.2</ele>
        <time>2022-08-10T16:55:42Z</time>
      </trkpt>
      <trkpt lat="44.4749" lon="1.23268">
        <ele>97.2</ele>
        <time>2022-08-10T16:55:46Z</time>
      </trkpt>
      <trkpt lat="44.4749" lon="1.23266">
        <ele>97.4</ele>
        <time>2022-08-10T16:55:48Z</time>
      </trkpt>
      <trkpt lat="44.4749" lon="1.23266">
        <ele>97.4</ele>
        <time>2022-08-10T16:55:52Z</time>
      </trkpt>
      <trkpt lat="44.4749" lon="1.23266">
        <ele>97.4</ele>
        <time>2022-08-10T16:55:56Z</time>
      </trkpt>
      <trkpt lat="44.4749" lon="1.23268">
        <ele>97.2</ele>
        <time>2022-08-10T16:56:00Z</time>
      </trkpt>
      <trkpt lat="44.47489" lon="1.23266">
        <ele>97.3</ele>
        <time>2022-08-10T16:56:02Z</time>
      </trkpt>
      <trkpt lat="44.47489" lon="1.23266">
        <ele>97.4</ele>
        <time>2022-08-10T16:56:04Z</time>
      </trkpt>
      <trkpt lat="44.47488" lon="1.23266">
        <ele>97.4</ele>
        <time>2022-08-10T16:56:06Z</time>
      </trkpt>
      <trkpt lat="44.47488" lon="1.23267">
        <ele>97.4</ele>
        <time>2022-08-10T16:56:08Z</time>
      </trkpt>
      <trkpt lat="44.47487" lon="1.23269">
        <ele>97.2</ele>
        <time>2022-08-10T16:56:10Z</time>
      </trkpt>
      <trkpt lat="44.47488" lon="1.23269">
        <ele>97.2</ele>
        <time>2022-08-10T16:56:12Z</time>
      </trkpt>
      <trkpt lat="44.47488" lon="1.2327">
        <ele>97.2</ele>
        <time>2022-08-10T16:56:14Z</time>
      </trkpt>
      <trkpt lat="44.47488" lon="1.2327">
        <ele>97.1</ele>
        <time>2022-08-10T16:56:16Z</time>
      </trkpt>
      <trkpt lat="44.47488" lon="1.2327">
        <ele>97.1</ele>
        <time>2022-08-10T16:56:18Z</time>
      </trkpt>
      <trkpt lat="44.47488" lon="1.2327">
        <ele>97.1</ele>
        <time>2022-08-10T16:56:22Z</time>
      </trkpt>
      <trkpt lat="44.47488" lon="1.2327">
        <ele>97.1</ele>
        <time>2022-08-10T16:56:26Z</time>
      </trkpt>
      <trkpt lat="44.47491" lon="1.23272">
        <ele>96.9</ele>
        <time>2022-08-10T16:56:30Z</time>
      </trkpt>
      <trkpt lat="44.47491" lon="1.23272">
        <ele>96.8</ele>
        <time>2022-08-10T16:56:32Z</time>
      </trkpt>
      <trkpt lat="44.4749" lon="1.23274">
        <ele>96.7</ele>
        <time>2022-08-10T16:56:34Z</time>
      </trkpt>
      <trkpt lat="44.4749" lon="1.23275">
        <ele>96.7</ele>
        <time>2022-08-10T16:56:36Z</time>
      </trkpt>
      <trkpt lat="44.4749" lon="1.23274">
        <ele>96.8</ele>
        <time>2022-08-10T16:56:40Z</time>
      </trkpt>
      <trkpt lat="44.4749" lon="1.23274">
        <ele>96.7</ele>
        <time>2022-08-10T16:56:42Z</time>
      </trkpt>
      <trkpt lat="44.4749" lon="1.23275">
        <ele>96.7</ele>
        <time>2022-08-10T16:56:44Z</time>
      </trkpt>
      <trkpt lat="44.4749" lon="1.23275">
        <ele>96.7</ele>
        <time>2022-08-10T16:56:46Z</time>
      </trkpt>
      <trkpt lat="44.4749" lon="1.23275">
        <ele>96.7</ele>
        <time>2022-08-10T16:56:50Z</time>
      </trkpt>
      <trkpt lat="44.47489" lon="1.23277">
        <ele>96.6</ele>
        <time>2022-08-10T16:56:54Z</time>
      </trkpt>
      <trkpt lat="44.47489" lon="1.23276">
        <ele>96.6</ele>
        <time>2022-08-10T16:56:56Z</time>
      </trkpt>
      <trkpt lat="44.4749" lon="1.23277">
        <ele>96.5</ele>
        <time>2022-08-10T16:56:58Z</time>
      </trkpt>
      <trkpt lat="44.4749" lon="1.23276">
        <ele>96.6</ele>
        <time>2022-08-10T16:57:00Z</time>
      </trkpt>
      <trkpt lat="44.4749" lon="1.23275">
        <ele>96.6</ele>
        <time>2022-08-10T16:57:02Z</time>
      </trkpt>
      <trkpt lat="44.4749" lon="1.23275">
        <ele>96.7</ele>
        <time>2022-08-10T16:57:04Z</time>
      </trkpt>
      <trkpt lat="44.4749" lon="1.23276">
        <ele>96.6</ele>
        <time>2022-08-10T16:57:06Z</time>
      </trkpt>
      <trkpt lat="44.47491" lon="1.23276">
        <ele>96.6</ele>
        <time>2022-08-10T16:57:08Z</time>
      </trkpt>
      <trkpt lat="44.47491" lon="1.23276">
        <ele>96.5</ele>
        <time>2022-08-10T16:57:10Z</time>
      </trkpt>
      <trkpt lat="44.47491" lon="1.23277">
        <ele>96.5</ele>
        <time>2022-08-10T16:57:12Z</time>
      </trkpt>
      <trkpt lat="44.47491" lon="1.23277">
        <ele>96.5</ele>
        <time>2022-08-10T16:57:14Z</time>
      </trkpt>
      <trkpt lat="44.47491" lon="1.23277">
        <ele>96.5</ele>
        <time>2022-08-10T16:57:16Z</time>
      </trkpt>
      <trkpt lat="44.47492" lon="1.23277">
        <ele>96.4</ele>
        <time>2022-08-10T16:57:18Z</time>
      </trkpt>
      <trkpt lat="44.47491" lon="1.23278">
        <ele>96.4</ele>
        <time>2022-08-10T16:57:22Z</time>
      </trkpt>
      <trkpt lat="44.4749" lon="1.23279">
        <ele>96.4</ele>
        <time>2022-08-10T16:57:24Z</time>
      </trkpt>
      <trkpt lat="44.4749" lon="1.23278">
        <ele>96.4</ele>
        <time>2022-08-10T16:57:26Z</time>
      </trkpt>
      <trkpt lat="44.4749" lon="1.23279">
        <ele>96.4</ele>
        <time>2022-08-10T16:57:28Z</time>
      </trkpt>
      <trkpt lat="44.47489" lon="1.23279">
        <ele>96.4</ele>
        <time>2022-08-10T16:57:30Z</time>
      </trkpt>
      <trkpt lat="44.47489" lon="1.23279">
        <ele>96.4</ele>
        <time>2022-08-10T16:57:32Z</time>
      </trkpt>
      <trkpt lat="44.47489" lon="1.23279">
        <ele>96.4</ele>
        <time>2022-08-10T16:57:34Z</time>
      </trkpt>
      <trkpt lat="44.47489" lon="1.23279">
        <ele>96.4</ele>
        <time>2022-08-10T16:57:36Z</time>
      </trkpt>
      <trkpt lat="44.47489" lon="1.23279">
        <ele>96.4</ele>
        <time>2022-08-10T16:57:38Z</time>
      </trkpt>
      <trkpt lat="44.47489" lon="1.23279">
        <ele>96.4</ele>
        <time>2022-08-10T16:57:40Z</time>
      </trkpt>
      <trkpt lat="44.47489" lon="1.2328">
        <ele>96.3</ele>
        <time>2022-08-10T16:57:42Z</time>
      </trkpt>
      <trkpt lat="44.47488" lon="1.23281">
        <ele>96.3</ele>
        <time>2022-08-10T16:57:44Z</time>
      </trkpt>
      <trkpt lat="44.47484" lon="1.23281">
        <ele>96.4</ele>
        <time>2022-08-10T16:57:46Z</time>
      </trkpt>
      <trkpt lat="44.47482" lon="1.23281">
        <ele>96.6</ele>
        <time>2022-08-10T16:57:48Z</time>
      </trkpt>
      <trkpt lat="44.47477" lon="1.23281">
        <ele>96.7</ele>
        <time>2022-08-10T16:57:50Z</time>
      </trkpt>
      <trkpt lat="44.47473" lon="1.23282">
        <ele>96.8</ele>
        <time>2022-08-10T16:57:52Z</time>
      </trkpt>
      <trkpt lat="44.47468" lon="1.23283">
        <ele>96.9</ele>
        <time>2022-08-10T16:57:54Z</time>
      </trkpt>
      <trkpt lat="44.47462" lon="1.23283">
        <ele>97.2</ele>
        <time>2022-08-10T16:57:56Z</time>
      </trkpt>
      <trkpt lat="44.47456" lon="1.23284">
        <ele>97.3</ele>
        <time>2022-08-10T16:57:58Z</time>
      </trkpt>
      <trkpt lat="44.47451" lon="1.23285">
        <ele>97.5</ele>
        <time>2022-08-10T16:58:00Z</time>
      </trkpt>
      <trkpt lat="44.47445" lon="1.23286">
        <ele>97.6</ele>
        <time>2022-08-10T16:58:02Z</time>
      </trkpt>
      <trkpt lat="44.47441" lon="1.23288">
        <ele>97.5</ele>
        <time>2022-08-10T16:58:04Z</time>
      </trkpt>
      <trkpt lat="44.47436" lon="1.23291">
        <ele>97.4</ele>
        <time>2022-08-10T16:58:06Z</time>
      </trkpt>
      <trkpt lat="44.47432" lon="1.23294">
        <ele>97.2</ele>
        <time>2022-08-10T16:58:08Z</time>
      </trkpt>
      <trkpt lat="44.47427" lon="1.23296">
        <ele>97.2</ele>
        <time>2022-08-10T16:58:10Z</time>
      </trkpt>
      <trkpt lat="44.47422" lon="1.23298">
        <ele>97</ele>
        <time>2022-08-10T16:58:12Z</time>
      </trkpt>
      <trkpt lat="44.47418" lon="1.23301">
        <ele>96.8</ele>
        <time>2022-08-10T16:58:14Z</time>
      </trkpt>
      <trkpt lat="44.47413" lon="1.23305">
        <ele>96.7</ele>
        <time>2022-08-10T16:58:16Z</time>
      </trkpt>
      <trkpt lat="44.47408" lon="1.23309">
        <ele>96.6</ele>
        <time>2022-08-10T16:58:18Z</time>
      </trkpt>
      <trkpt lat="44.47403" lon="1.23314">
        <ele>96.4</ele>
        <time>2022-08-10T16:58:20Z</time>
      </trkpt>
      <trkpt lat="44.47398" lon="1.23318">
        <ele>96.3</ele>
        <time>2022-08-10T16:58:22Z</time>
      </trkpt>
      <trkpt lat="44.47394" lon="1.23321">
        <ele>96.3</ele>
        <time>2022-08-10T16:58:24Z</time>
      </trkpt>
      <trkpt lat="44.47388" lon="1.23326">
        <ele>96.2</ele>
        <time>2022-08-10T16:58:26Z</time>
      </trkpt>
      <trkpt lat="44.47383" lon="1.23331">
        <ele>96.1</ele>
        <time>2022-08-10T16:58:28Z</time>
      </trkpt>
      <trkpt lat="44.47311" lon="1.23392">
        <ele>99.9</ele>
        <time>2022-08-10T16:58:56Z</time>
      </trkpt>
      <trkpt lat="44.47307" lon="1.23396">
        <ele>100</ele>
        <time>2022-08-10T16:58:58Z</time>
      </trkpt>
      <trkpt lat="44.47301" lon="1.23402">
        <ele>100.1</ele>
        <time>2022-08-10T16:59:00Z</time>
      </trkpt>
      <trkpt lat="44.47295" lon="1.23408">
        <ele>100.2</ele>
        <time>2022-08-10T16:59:02Z</time>
      </trkpt>
      <trkpt lat="44.47289" lon="1.23413">
        <ele>100.3</ele>
        <time>2022-08-10T16:59:04Z</time>
      </trkpt>
      <trkpt lat="44.47283" lon="1.23419">
        <ele>100.4</ele>
        <time>2022-08-10T16:59:06Z</time>
      </trkpt>
      <trkpt lat="44.47278" lon="1.23423">
        <ele>100.8</ele>
        <time>2022-08-10T16:59:08Z</time>
      </trkpt>
      <trkpt lat="44.47272" lon="1.23428">
        <ele>101.3</ele>
        <time>2022-08-10T16:59:10Z</time>
      </trkpt>
      <trkpt lat="44.47266" lon="1.23432">
        <ele>101.7</ele>
        <time>2022-08-10T16:59:12Z</time>
      </trkpt>
      <trkpt lat="44.4726" lon="1.23437">
        <ele>101.9</ele>
        <time>2022-08-10T16:59:14Z</time>
      </trkpt>
      <trkpt lat="44.47254" lon="1.23442">
        <ele>102.1</ele>
        <time>2022-08-10T16:59:16Z</time>
      </trkpt>
      <trkpt lat="44.47248" lon="1.23448">
        <ele>102.5</ele>
        <time>2022-08-10T16:59:18Z</time>
      </trkpt>
      <trkpt lat="44.47243" lon="1.23453">
        <ele>103.4</ele>
        <time>2022-08-10T16:59:20Z</time>
      </trkpt>
      <trkpt lat="44.47238" lon="1.23455">
        <ele>104.3</ele>
        <time>2022-08-10T16:59:22Z</time>
      </trkpt>
      <trkpt lat="44.47234" lon="1.23459">
        <ele>104.9</ele>
        <time>2022-08-10T16:59:24Z</time>
      </trkpt>
      <trkpt lat="44.47229" lon="1.23463">
        <ele>105.6</ele>
        <time>2022-08-10T16:59:26Z</time>
      </trkpt>
      <trkpt lat="44.47225" lon="1.23467">
        <ele>106</ele>
        <time>2022-08-10T16:59:28Z</time>
      </trkpt>
      <trkpt lat="44.4722" lon="1.23472">
        <ele>106.1</ele>
        <time>2022-08-10T16:59:30Z</time>
      </trkpt>
      <trkpt lat="44.47216" lon="1.23477">
        <ele>106.1</ele>
        <time>2022-08-10T16:59:32Z</time>
      </trkpt>
      <trkpt lat="44.47211" lon="1.23482">
        <ele>106.2</ele>
        <time>2022-08-10T16:59:34Z</time>
      </trkpt>
      <trkpt lat="44.47206" lon="1.23485">
        <ele>106.3</ele>
        <time>2022-08-10T16:59:36Z</time>
      </trkpt>
      <trkpt lat="44.47202" lon="1.23488">
        <ele>106.3</ele>
        <time>2022-08-10T16:59:38Z</time>
      </trkpt>
      <trkpt lat="44.47196" lon="1.23493">
        <ele>106.2</ele>
        <time>2022-08-10T16:59:40Z</time>
      </trkpt>
      <trkpt lat="44.47191" lon="1.23498">
        <ele>105.8</ele>
        <time>2022-08-10T16:59:42Z</time>
      </trkpt>
      <trkpt lat="44.47186" lon="1.23502">
        <ele>105.7</ele>
        <time>2022-08-10T16:59:44Z</time>
      </trkpt>
      <trkpt lat="44.4718" lon="1.23506">
        <ele>105.8</ele>
        <time>2022-08-10T16:59:46Z</time>
      </trkpt>
      <trkpt lat="44.47175" lon="1.2351">
        <ele>105.8</ele>
        <time>2022-08-10T16:59:48Z</time>
      </trkpt>
      <trkpt lat="44.4717" lon="1.23514">
        <ele>105.7</ele>
        <time>2022-08-10T16:59:50Z</time>
      </trkpt>
      <trkpt lat="44.47163" lon="1.2352">
        <ele>105.8</ele>
        <time>2022-08-10T16:59:52Z</time>
      </trkpt>
      <trkpt lat="44.47157" lon="1.23526">
        <ele>106.2</ele>
        <time>2022-08-10T16:59:54Z</time>
      </trkpt>
      <trkpt lat="44.47152" lon="1.23529">
        <ele>107</ele>
        <time>2022-08-10T16:59:56Z</time>
      </trkpt>
      <trkpt lat="44.47148" lon="1.23532">
        <ele>107.4</ele>
        <time>2022-08-10T16:59:58Z</time>
      </trkpt>
      <trkpt lat="44.47146" lon="1.2353">
        <ele>108.2</ele>
        <time>2022-08-10T17:00:00Z</time>
      </trkpt>
      <trkpt lat="44.47143" lon="1.23532">
        <ele>108.5</ele>
        <time>2022-08-10T17:00:02Z</time>
      </trkpt>
      <trkpt lat="44.4714" lon="1.23534">
        <ele>108.8</ele>
        <time>2022-08-10T17:00:04Z</time>
      </trkpt>
      <trkpt lat="44.47137" lon="1.23535">
        <ele>109.1</ele>
        <time>2022-08-10T17:00:06Z</time>
      </trkpt>
      <trkpt lat="44.47134" lon="1.23538">
        <ele>109.2</ele>
        <time>2022-08-10T17:00:08Z</time>
      </trkpt>
      <trkpt lat="44.47132" lon="1.23541">
        <ele>109</ele>
        <time>2022-08-10T17:00:10Z</time>
      </trkpt>
      <trkpt lat="44.47131" lon="1.23541">
        <ele>109.1</ele>
        <time>2022-08-10T17:00:12Z</time>
      </trkpt>
      <trkpt lat="44.47127" lon="1.23545">
        <ele>109.2</ele>
        <time>2022-08-10T17:00:14Z</time>
      </trkpt>
      <trkpt lat="44.47127" lon="1.23547">
        <ele>108.7</ele>
        <time>2022-08-10T17:00:16Z</time>
      </trkpt>
      <trkpt lat="44.47129" lon="1.23551">
        <ele>107.5</ele>
        <time>2022-08-10T17:00:18Z</time>
      </trkpt>
      <trkpt lat="44.47129" lon="1.23551">
        <ele>107.7</ele>
        <time>2022-08-10T17:00:20Z</time>
      </trkpt>
      <trkpt lat="44.47129" lon="1.2355">
        <ele>107.7</ele>
        <time>2022-08-10T17:00:22Z</time>
      </trkpt>
      <trkpt lat="44.47131" lon="1.2355">
        <ele>107.5</ele>
        <time>2022-08-10T17:00:24Z</time>
      </trkpt>
      <trkpt lat="44.47144" lon="1.23577">
        <ele>100.3</ele>
        <time>2022-08-10T17:00:36Z</time>
      </trkpt>
      <trkpt lat="44.47146" lon="1.23582">
        <ele>98.9</ele>
        <time>2022-08-10T17:00:38Z</time>
      </trkpt>
      <trkpt lat="44.47151" lon="1.23588">
        <ele>98.1</ele>
        <time>2022-08-10T17:00:40Z</time>
      </trkpt>
      <trkpt lat="44.47153" lon="1.23594">
        <ele>97.8</ele>
        <time>2022-08-10T17:00:42Z</time>
      </trkpt>
      <trkpt lat="44.47155" lon="1.236">
        <ele>97.5</ele>
        <time>2022-08-10T17:00:44Z</time>
      </trkpt>
      <trkpt lat="44.47158" lon="1.23605">
        <ele>97.2</ele>
        <time>2022-08-10T17:00:46Z</time>
      </trkpt>
      <trkpt lat="44.4716" lon="1.2361">
        <ele>97</ele>
        <time>2022-08-10T17:00:48Z</time>
      </trkpt>
      <trkpt lat="44.47162" lon="1.23616">
        <ele>96.9</ele>
        <time>2022-08-10T17:00:50Z</time>
      </trkpt>
      <trkpt lat="44.47164" lon="1.23622">
        <ele>96.7</ele>
        <time>2022-08-10T17:00:52Z</time>
      </trkpt>
      <trkpt lat="44.47167" lon="1.23629">
        <ele>96.6</ele>
        <time>2022-08-10T17:00:54Z</time>
      </trkpt>
      <trkpt lat="44.47169" lon="1.23635">
        <ele>96.7</ele>
        <time>2022-08-10T17:00:56Z</time>
      </trkpt>
      <trkpt lat="44.47173" lon="1.23642">
        <ele>96.8</ele>
        <time>2022-08-10T17:00:58Z</time>
      </trkpt>
      <trkpt lat="44.47175" lon="1.23648">
        <ele>96.9</ele>
        <time>2022-08-10T17:01:00Z</time>
      </trkpt>
      <trkpt lat="44.47179" lon="1.23657">
        <ele>97</ele>
        <time>2022-08-10T17:01:02Z</time>
      </trkpt>
      <trkpt lat="44.47182" lon="1.23665">
        <ele>97</ele>
        <time>2022-08-10T17:01:04Z</time>
      </trkpt>
      <trkpt lat="44.47187" lon="1.23673">
        <ele>97.5</ele>
        <time>2022-08-10T17:01:06Z</time>
      </trkpt>
      <trkpt lat="44.4719" lon="1.23681">
        <ele>98.1</ele>
        <time>2022-08-10T17:01:08Z</time>
      </trkpt>
      <trkpt lat="44.47189" lon="1.23686">
        <ele>98.5</ele>
        <time>2022-08-10T17:01:10Z</time>
      </trkpt>
      <trkpt lat="44.47188" lon="1.23691">
        <ele>98.9</ele>
        <time>2022-08-10T17:01:12Z</time>
      </trkpt>
      <trkpt lat="44.47186" lon="1.23692">
        <ele>99</ele>
        <time>2022-08-10T17:01:14Z</time>
      </trkpt>
      <trkpt lat="44.47187" lon="1.23692">
        <ele>98.9</ele>
        <time>2022-08-10T17:01:16Z</time>
      </trkpt>
      <trkpt lat="44.47187" lon="1.23693">
        <ele>99</ele>
        <time>2022-08-10T17:01:18Z</time>
      </trkpt>
      <trkpt lat="44.47188" lon="1.23696">
        <ele>99.2</ele>
        <time>2022-08-10T17:01:20Z</time>
      </trkpt>
      <trkpt lat="44.47191" lon="1.23697">
        <ele>99.3</ele>
        <time>2022-08-10T17:01:22Z</time>
      </trkpt>
      <trkpt lat="44.47194" lon="1.23692">
        <ele>98.9</ele>
        <time>2022-08-10T17:01:24Z</time>
      </trkpt>
      <trkpt lat="44.47197" lon="1.23688">
        <ele>98.6</ele>
        <time>2022-08-10T17:01:26Z</time>
      </trkpt>
      <trkpt lat="44.47198" lon="1.23685">
        <ele>98.4</ele>
        <time>2022-08-10T17:01:28Z</time>
      </trkpt>
      <trkpt lat="44.47203" lon="1.23682">
        <ele>98.1</ele>
        <time>2022-08-10T17:01:30Z</time>
      </trkpt>
      <trkpt lat="44.47208" lon="1.23677">
        <ele>97.8</ele>
        <time>2022-08-10T17:01:32Z</time>
      </trkpt>
      <trkpt lat="44.47214" lon="1.23673">
        <ele>97.5</ele>
        <time>2022-08-10T17:01:34Z</time>
      </trkpt>
      <trkpt lat="44.47221" lon="1.23667">
        <ele>97</ele>
        <time>2022-08-10T17:01:36Z</time>
      </trkpt>
      <trkpt lat="44.47229" lon="1.23662">
        <ele>97.1</ele>
        <time>2022-08-10T17:01:38Z</time>
      </trkpt>
      <trkpt lat="44.47237" lon="1.23657">
        <ele>97.3</ele>
        <time>2022-08-10T17:01:40Z</time>
      </trkpt>
      <trkpt lat="44.47244" lon="1.23653">
        <ele>97.4</ele>
        <time>2022-08-10T17:01:42Z</time>
      </trkpt>
      <trkpt lat="44.47253" lon="1.23651">
        <ele>97.6</ele>
        <time>2022-08-10T17:01:44Z</time>
      </trkpt>
      <trkpt lat="44.4726" lon="1.23648">
        <ele>97.6</ele>
        <time>2022-08-10T17:01:46Z</time>
      </trkpt>
      <trkpt lat="44.47267" lon="1.23646">
        <ele>97.6</ele>
        <time>2022-08-10T17:01:48Z</time>
      </trkpt>
      <trkpt lat="44.47275" lon="1.23644">
        <ele>97.6</ele>
        <time>2022-08-10T17:01:50Z</time>
      </trkpt>
      <trkpt lat="44.47282" lon="1.23643">
        <ele>97.5</ele>
        <time>2022-08-10T17:01:52Z</time>
      </trkpt>
      <trkpt lat="44.4729" lon="1.23644">
        <ele>97.4</ele>
        <time>2022-08-10T17:01:54Z</time>
      </trkpt>
      <trkpt lat="44.47297" lon="1.23645">
        <ele>97.3</ele>
        <time>2022-08-10T17:01:56Z</time>
      </trkpt>
      <trkpt lat="44.47305" lon="1.23646">
        <ele>97.2</ele>
        <time>2022-08-10T17:01:58Z</time>
      </trkpt>
      <trkpt lat="44.47312" lon="1.2365">
        <ele>97.1</ele>
        <time>2022-08-10T17:02:00Z</time>
      </trkpt>
      <trkpt lat="44.4732" lon="1.23652">
        <ele>97.1</ele>
        <time>2022-08-10T17:02:02Z</time>
      </trkpt>
      <trkpt lat="44.47328" lon="1.23655">
        <ele>97</ele>
        <time>2022-08-10T17:02:04Z</time>
      </trkpt>
      <trkpt lat="44.47336" lon="1.23658">
        <ele>97.1</ele>
        <time>2022-08-10T17:02:06Z</time>
      </trkpt>
      <trkpt lat="44.47344" lon="1.23661">
        <ele>97.4</ele>
        <time>2022-08-10T17:02:08Z</time>
      </trkpt>
      <trkpt lat="44.47352" lon="1.23663">
        <ele>97.6</ele>
        <time>2022-08-10T17:02:10Z</time>
      </trkpt>
      <trkpt lat="44.47362" lon="1.23666">
        <ele>98</ele>
        <time>2022-08-10T17:02:12Z</time>
      </trkpt>
      <trkpt lat="44.47369" lon="1.23669">
        <ele>98.5</ele>
        <time>2022-08-10T17:02:14Z</time>
      </trkpt>
      <trkpt lat="44.47376" lon="1.23672">
        <ele>98.9</ele>
        <time>2022-08-10T17:02:16Z</time>
      </trkpt>
      <trkpt lat="44.47384" lon="1.23675">
        <ele>99.4</ele>
        <time>2022-08-10T17:02:18Z</time>
      </trkpt>
      <trkpt lat="44.47391" lon="1.23679">
        <ele>99.8</ele>
        <time>2022-08-10T17:02:20Z</time>
      </trkpt>
      <trkpt lat="44.47398" lon="1.2368">
        <ele>100.1</ele>
        <time>2022-08-10T17:02:22Z</time>
      </trkpt>
      <trkpt lat="44.47405" lon="1.23681">
        <ele>100.5</ele>
        <time>2022-08-10T17:02:24Z</time>
      </trkpt>
      <trkpt lat="44.47412" lon="1.23686">
        <ele>101</ele>
        <time>2022-08-10T17:02:26Z</time>
      </trkpt>
      <trkpt lat="44.4742" lon="1.23689">
        <ele>101.4</ele>
        <time>2022-08-10T17:02:28Z</time>
      </trkpt>
      <trkpt lat="44.47427" lon="1.23692">
        <ele>101.7</ele>
        <time>2022-08-10T17:02:30Z</time>
      </trkpt>
      <trkpt lat="44.47435" lon="1.23695">
        <ele>102.1</ele>
        <time>2022-08-10T17:02:32Z</time>
      </trkpt>
      <trkpt lat="44.47442" lon="1.23696">
        <ele>102.3</ele>
        <time>2022-08-10T17:02:34Z</time>
      </trkpt>
      <trkpt lat="44.4745" lon="1.23699">
        <ele>102.6</ele>
        <time>2022-08-10T17:02:36Z</time>
      </trkpt>
      <trkpt lat="44.47456" lon="1.23702">
        <ele>103</ele>
        <time>2022-08-10T17:02:38Z</time>
      </trkpt>
      <trkpt lat="44.47461" lon="1.23703">
        <ele>103.2</ele>
        <time>2022-08-10T17:02:40Z</time>
      </trkpt>
      <trkpt lat="44.4747" lon="1.23706">
        <ele>103.6</ele>
        <time>2022-08-10T17:02:42Z</time>
      </trkpt>
      <trkpt lat="44.47476" lon="1.23708">
        <ele>103.9</ele>
        <time>2022-08-10T17:02:44Z</time>
      </trkpt>
      <trkpt lat="44.47483" lon="1.2371">
        <ele>104.2</ele>
        <time>2022-08-10T17:02:46Z</time>
      </trkpt>
      <trkpt lat="44.47491" lon="1.23711">
        <ele>104.5</ele>
        <time>2022-08-10T17:02:48Z</time>
      </trkpt>
      <trkpt lat="44.47497" lon="1.2371">
        <ele>104.6</ele>
        <time>2022-08-10T17:02:50Z</time>
      </trkpt>
      <trkpt lat="44.47504" lon="1.23712">
        <ele>105.2</ele>
        <time>2022-08-10T17:02:52Z</time>
      </trkpt>
      <trkpt lat="44.47511" lon="1.23708">
        <ele>105.4</ele>
        <time>2022-08-10T17:02:54Z</time>
      </trkpt>
      <trkpt lat="44.47518" lon="1.23705">
        <ele>105.8</ele>
        <time>2022-08-10T17:02:56Z</time>
      </trkpt>
      <trkpt lat="44.47525" lon="1.23702">
        <ele>106.1</ele>
        <time>2022-08-10T17:02:58Z</time>
      </trkpt>
      <trkpt lat="44.47532" lon="1.237">
        <ele>106.4</ele>
        <time>2022-08-10T17:03:00Z</time>
      </trkpt>
      <trkpt lat="44.47538" lon="1.23696">
        <ele>106.4</ele>
        <time>2022-08-10T17:03:02Z</time>
      </trkpt>
      <trkpt lat="44.47545" lon="1.23692">
        <ele>106.5</ele>
        <time>2022-08-10T17:03:04Z</time>
      </trkpt>
      <trkpt lat="44.47553" lon="1.23689">
        <ele>106.5</ele>
        <time>2022-08-10T17:03:06Z</time>
      </trkpt>
      <trkpt lat="44.4756" lon="1.23685">
        <ele>106.5</ele>
        <time>2022-08-10T17:03:08Z</time>
      </trkpt>
      <trkpt lat="44.47567" lon="1.2368">
        <ele>106.2</ele>
        <time>2022-08-10T17:03:10Z</time>
      </trkpt>
      <trkpt lat="44.47574" lon="1.23677">
        <ele>106.2</ele>
        <time>2022-08-10T17:03:12Z</time>
      </trkpt>
      <trkpt lat="44.47581" lon="1.23675">
        <ele>106.3</ele>
        <time>2022-08-10T17:03:14Z</time>
      </trkpt>
      <trkpt lat="44.47589" lon="1.23673">
        <ele>106.6</ele>
        <time>2022-08-10T17:03:16Z</time>
      </trkpt>
      <trkpt lat="44.47595" lon="1.2367">
        <ele>106.7</ele>
        <time>2022-08-10T17:03:18Z</time>
      </trkpt>
      <trkpt lat="44.47604" lon="1.23668">
        <ele>107.1</ele>
        <time>2022-08-10T17:03:20Z</time>
      </trkpt>
      <trkpt lat="44.47611" lon="1.23664">
        <ele>107.4</ele>
        <time>2022-08-10T17:03:22Z</time>
      </trkpt>
      <trkpt lat="44.4762" lon="1.23663">
        <ele>108.1</ele>
        <time>2022-08-10T17:03:24Z</time>
      </trkpt>
      <trkpt lat="44.47626" lon="1.23662">
        <ele>108.5</ele>
        <time>2022-08-10T17:03:26Z</time>
      </trkpt>
      <trkpt lat="44.47634" lon="1.23659">
        <ele>108.9</ele>
        <time>2022-08-10T17:03:28Z</time>
      </trkpt>
      <trkpt lat="44.47642" lon="1.23656">
        <ele>109.1</ele>
        <time>2022-08-10T17:03:30Z</time>
      </trkpt>
      <trkpt lat="44.4765" lon="1.23655">
        <ele>109.5</ele>
        <time>2022-08-10T17:03:32Z</time>
      </trkpt>
      <trkpt lat="44.47658" lon="1.23654">
        <ele>110</ele>
        <time>2022-08-10T17:03:34Z</time>
      </trkpt>
      <trkpt lat="44.47666" lon="1.23656">
        <ele>111</ele>
        <time>2022-08-10T17:03:36Z</time>
      </trkpt>
      <trkpt lat="44.47675" lon="1.23656">
        <ele>111</ele>
        <time>2022-08-10T17:03:38Z</time>
      </trkpt>
      <trkpt lat="44.47684" lon="1.23654">
        <ele>110.7</ele>
        <time>2022-08-10T17:03:40Z</time>
      </trkpt>
      <trkpt lat="44.47693" lon="1.23655">
        <ele>110.8</ele>
        <time>2022-08-10T17:03:42Z</time>
      </trkpt>
      <trkpt lat="44.47702" lon="1.23653">
        <ele>110.4</ele>
        <time>2022-08-10T17:03:44Z</time>
      </trkpt>
      <trkpt lat="44.4771" lon="1.23655">
        <ele>110.6</ele>
        <time>2022-08-10T17:03:46Z</time>
      </trkpt>
      <trkpt lat="44.47718" lon="1.23655">
        <ele>110.6</ele>
        <time>2022-08-10T17:03:48Z</time>
      </trkpt>
      <trkpt lat="44.47727" lon="1.23656">
        <ele>110.6</ele>
        <time>2022-08-10T17:03:50Z</time>
      </trkpt>
      <trkpt lat="44.47735" lon="1.23656">
        <ele>110.5</ele>
        <time>2022-08-10T17:03:52Z</time>
      </trkpt>
      <trkpt lat="44.47744" lon="1.23656">
        <ele>110.5</ele>
        <time>2022-08-10T17:03:54Z</time>
      </trkpt>
      <trkpt lat="44.47752" lon="1.23656">
        <ele>110.4</ele>
        <time>2022-08-10T17:03:56Z</time>
      </trkpt>
      <trkpt lat="44.47761" lon="1.23655">
        <ele>109.9</ele>
        <time>2022-08-10T17:03:58Z</time>
      </trkpt>
      <trkpt lat="44.47769" lon="1.23658">
        <ele>110</ele>
        <time>2022-08-10T17:04:00Z</time>
      </trkpt>
      <trkpt lat="44.47778" lon="1.23661">
        <ele>109.9</ele>
        <time>2022-08-10T17:04:02Z</time>
      </trkpt>
      <trkpt lat="44.47787" lon="1.23661">
        <ele>109.6</ele>
        <time>2022-08-10T17:04:04Z</time>
      </trkpt>
      <trkpt lat="44.47794" lon="1.23664">
        <ele>109.6</ele>
        <time>2022-08-10T17:04:06Z</time>
      </trkpt>
      <trkpt lat="44.47803" lon="1.23667">
        <ele>109.5</ele>
        <time>2022-08-10T17:04:08Z</time>
      </trkpt>
      <trkpt lat="44.47811" lon="1.2367">
        <ele>109.4</ele>
        <time>2022-08-10T17:04:10Z</time>
      </trkpt>
      <trkpt lat="44.47819" lon="1.23673">
        <ele>109.3</ele>
        <time>2022-08-10T17:04:12Z</time>
      </trkpt>
      <trkpt lat="44.47826" lon="1.23675">
        <ele>109.2</ele>
        <time>2022-08-10T17:04:14Z</time>
      </trkpt>
      <trkpt lat="44.47832" lon="1.23676">
        <ele>109</ele>
        <time>2022-08-10T17:04:16Z</time>
      </trkpt>
      <trkpt lat="44.47839" lon="1.2368">
        <ele>109.3</ele>
        <time>2022-08-10T17:04:18Z</time>
      </trkpt>
      <trkpt lat="44.47846" lon="1.23682">
        <ele>109.6</ele>
        <time>2022-08-10T17:04:20Z</time>
      </trkpt>
      <trkpt lat="44.47852" lon="1.23684">
        <ele>110</ele>
        <time>2022-08-10T17:04:22Z</time>
      </trkpt>
      <trkpt lat="44.47859" lon="1.23686">
        <ele>110.3</ele>
        <time>2022-08-10T17:04:24Z</time>
      </trkpt>
      <trkpt lat="44.47866" lon="1.23687">
        <ele>110.6</ele>
        <time>2022-08-10T17:04:26Z</time>
      </trkpt>
      <trkpt lat="44.47873" lon="1.23687">
        <ele>110.7</ele>
        <time>2022-08-10T17:04:28Z</time>
      </trkpt>
      <trkpt lat="44.47881" lon="1.23685">
        <ele>110.5</ele>
        <time>2022-08-10T17:04:30Z</time>
      </trkpt>
      <trkpt lat="44.47888" lon="1.23679">
        <ele>109.8</ele>
        <time>2022-08-10T17:04:32Z</time>
      </trkpt>
      <trkpt lat="44.47894" lon="1.23673">
        <ele>108.9</ele>
        <time>2022-08-10T17:04:34Z</time>
      </trkpt>
      <trkpt lat="44.479" lon="1.23667">
        <ele>108</ele>
        <time>2022-08-10T17:04:36Z</time>
      </trkpt>
      <trkpt lat="44.47905" lon="1.2366">
        <ele>107.4</ele>
        <time>2022-08-10T17:04:38Z</time>
      </trkpt>
      <trkpt lat="44.47911" lon="1.23653">
        <ele>106.8</ele>
        <time>2022-08-10T17:04:40Z</time>
      </trkpt>
      <trkpt lat="44.47917" lon="1.23646">
        <ele>106.3</ele>
        <time>2022-08-10T17:04:42Z</time>
      </trkpt>
      <trkpt lat="44.47924" lon="1.23638">
        <ele>106.4</ele>
        <time>2022-08-10T17:04:44Z</time>
      </trkpt>
      <trkpt lat="44.47933" lon="1.23631">
        <ele>106.4</ele>
        <time>2022-08-10T17:04:46Z</time>
      </trkpt>
      <trkpt lat="44.47941" lon="1.23623">
        <ele>106.2</ele>
        <time>2022-08-10T17:04:48Z</time>
      </trkpt>
      <trkpt lat="44.4795" lon="1.23615">
        <ele>106</ele>
        <time>2022-08-10T17:04:50Z</time>
      </trkpt>
      <trkpt lat="44.47959" lon="1.23607">
        <ele>105.6</ele>
        <time>2022-08-10T17:04:52Z</time>
      </trkpt>
      <trkpt lat="44.47968" lon="1.236">
        <ele>105.2</ele>
        <time>2022-08-10T17:04:54Z</time>
      </trkpt>
      <trkpt lat="44.47978" lon="1.23591">
        <ele>104.4</ele>
        <time>2022-08-10T17:04:56Z</time>
      </trkpt>
      <trkpt lat="44.47988" lon="1.23582">
        <ele>103.5</ele>
        <time>2022-08-10T17:04:58Z</time>
      </trkpt>
      <trkpt lat="44.47999" lon="1.23574">
        <ele>103.4</ele>
        <time>2022-08-10T17:05:00Z</time>
      </trkpt>
      <trkpt lat="44.48008" lon="1.23567">
        <ele>103.2</ele>
        <time>2022-08-10T17:05:02Z</time>
      </trkpt>
      <trkpt lat="44.4802" lon="1.23567">
        <ele>103.5</ele>
        <time>2022-08-10T17:05:04Z</time>
      </trkpt>
      <trkpt lat="44.48029" lon="1.23572">
        <ele>103.9</ele>
        <time>2022-08-10T17:05:06Z</time>
      </trkpt>
      <trkpt lat="44.48034" lon="1.23583">
        <ele>104.8</ele>
        <time>2022-08-10T17:05:08Z</time>
      </trkpt>
      <trkpt lat="44.48036" lon="1.23593">
        <ele>106.9</ele>
        <time>2022-08-10T17:05:10Z</time>
      </trkpt>
      <trkpt lat="44.48036" lon="1.23603">
        <ele>109</ele>
        <time>2022-08-10T17:05:12Z</time>
      </trkpt>
      <trkpt lat="44.48039" lon="1.23612">
        <ele>111</ele>
        <time>2022-08-10T17:05:14Z</time>
      </trkpt>
      <trkpt lat="44.48039" lon="1.23619">
        <ele>112.4</ele>
        <time>2022-08-10T17:05:16Z</time>
      </trkpt>
      <trkpt lat="44.48039" lon="1.23625">
        <ele>113.5</ele>
        <time>2022-08-10T17:05:18Z</time>
      </trkpt>
      <trkpt lat="44.48042" lon="1.23629">
        <ele>114.6</ele>
        <time>2022-08-10T17:05:20Z</time>
      </trkpt>
      <trkpt lat="44.48047" lon="1.23629">
        <ele>114.9</ele>
        <time>2022-08-10T17:05:22Z</time>
      </trkpt>
      <trkpt lat="44.48054" lon="1.23627">
        <ele>114.8</ele>
        <time>2022-08-10T17:05:24Z</time>
      </trkpt>
      <trkpt lat="44.4806" lon="1.23624">
        <ele>114.6</ele>
        <time>2022-08-10T17:05:26Z</time>
      </trkpt>
      <trkpt lat="44.48067" lon="1.23621">
        <ele>114.2</ele>
        <time>2022-08-10T17:05:28Z</time>
      </trkpt>
      <trkpt lat="44.48073" lon="1.23618">
        <ele>113.8</ele>
        <time>2022-08-10T17:05:30Z</time>
      </trkpt>
      <trkpt lat="44.4808" lon="1.23615">
        <ele>113.4</ele>
        <time>2022-08-10T17:05:32Z</time>
      </trkpt>
      <trkpt lat="44.48087" lon="1.23611">
        <ele>112.8</ele>
        <time>2022-08-10T17:05:34Z</time>
      </trkpt>
      <trkpt lat="44.48094" lon="1.23607">
        <ele>111.9</ele>
        <time>2022-08-10T17:05:36Z</time>
      </trkpt>
      <trkpt lat="44.481" lon="1.23603">
        <ele>111</ele>
        <time>2022-08-10T17:05:38Z</time>
      </trkpt>
      <trkpt lat="44.48107" lon="1.23599">
        <ele>110.3</ele>
        <time>2022-08-10T17:05:40Z</time>
      </trkpt>
      <trkpt lat="44.48113" lon="1.23593">
        <ele>109.2</ele>
        <time>2022-08-10T17:05:42Z</time>
      </trkpt>
      <trkpt lat="44.4812" lon="1.23588">
        <ele>108.3</ele>
        <time>2022-08-10T17:05:44Z</time>
      </trkpt>
      <trkpt lat="44.48127" lon="1.23583">
        <ele>107.6</ele>
        <time>2022-08-10T17:05:46Z</time>
      </trkpt>
      <trkpt lat="44.48134" lon="1.23576">
        <ele>107.2</ele>
        <time>2022-08-10T17:05:48Z</time>
      </trkpt>
      <trkpt lat="44.48141" lon="1.23568">
        <ele>106.7</ele>
        <time>2022-08-10T17:05:50Z</time>
      </trkpt>
      <trkpt lat="44.48148" lon="1.23562">
        <ele>106.4</ele>
        <time>2022-08-10T17:05:52Z</time>
      </trkpt>
      <trkpt lat="44.48156" lon="1.23555">
        <ele>105.9</ele>
        <time>2022-08-10T17:05:54Z</time>
      </trkpt>
      <trkpt lat="44.48163" lon="1.23549">
        <ele>105.6</ele>
        <time>2022-08-10T17:05:56Z</time>
      </trkpt>
      <trkpt lat="44.48171" lon="1.23543">
        <ele>105.5</ele>
        <time>2022-08-10T17:05:58Z</time>
      </trkpt>
      <trkpt lat="44.4818" lon="1.23539">
        <ele>105.7</ele>
        <time>2022-08-10T17:06:00Z</time>
      </trkpt>
      <trkpt lat="44.48189" lon="1.23536">
        <ele>105.9</ele>
        <time>2022-08-10T17:06:02Z</time>
      </trkpt>
      <trkpt lat="44.48198" lon="1.23534">
        <ele>106.3</ele>
        <time>2022-08-10T17:06:04Z</time>
      </trkpt>
      <trkpt lat="44.48207" lon="1.23533">
        <ele>106.8</ele>
        <time>2022-08-10T17:06:06Z</time>
      </trkpt>
      <trkpt lat="44.48217" lon="1.23533">
        <ele>107.4</ele>
        <time>2022-08-10T17:06:08Z</time>
      </trkpt>
      <trkpt lat="44.48226" lon="1.23533">
        <ele>108</ele>
        <time>2022-08-10T17:06:10Z</time>
      </trkpt>
      <trkpt lat="44.48235" lon="1.23532">
        <ele>108.5</ele>
        <time>2022-08-10T17:06:12Z</time>
      </trkpt>
      <trkpt lat="44.48244" lon="1.23531">
        <ele>108.8</ele>
        <time>2022-08-10T17:06:14Z</time>
      </trkpt>
      <trkpt lat="44.48253" lon="1.23529">
        <ele>109.3</ele>
        <time>2022-08-10T17:06:16Z</time>
      </trkpt>
      <trkpt lat="44.48262" lon="1.23526">
        <ele>110</ele>
        <time>2022-08-10T17:06:18Z</time>
      </trkpt>
      <trkpt lat="44.48271" lon="1.23522">
        <ele>110.3</ele>
        <time>2022-08-10T17:06:20Z</time>
      </trkpt>
      <trkpt lat="44.48281" lon="1.23519">
        <ele>110.8</ele>
        <time>2022-08-10T17:06:22Z</time>
      </trkpt>
      <trkpt lat="44.48289" lon="1.23515">
        <ele>110.9</ele>
        <time>2022-08-10T17:06:24Z</time>
      </trkpt>
      <trkpt lat="44.48298" lon="1.2351">
        <ele>110.8</ele>
        <time>2022-08-10T17:06:26Z</time>
      </trkpt>
      <trkpt lat="44.48308" lon="1.23507">
        <ele>110.8</ele>
        <time>2022-08-10T17:06:28Z</time>
      </trkpt>
      <trkpt lat="44.48316" lon="1.23503">
        <ele>110.5</ele>
        <time>2022-08-10T17:06:30Z</time>
      </trkpt>
      <trkpt lat="44.48325" lon="1.235">
        <ele>110.4</ele>
        <time>2022-08-10T17:06:32Z</time>
      </trkpt>
      <trkpt lat="44.48334" lon="1.23496">
        <ele>110.7</ele>
        <time>2022-08-10T17:06:34Z</time>
      </trkpt>
      <trkpt lat="44.48343" lon="1.23492">
        <ele>111.4</ele>
        <time>2022-08-10T17:06:36Z</time>
      </trkpt>
      <trkpt lat="44.48351" lon="1.23488">
        <ele>111.8</ele>
        <time>2022-08-10T17:06:38Z</time>
      </trkpt>
      <trkpt lat="44.4836" lon="1.23484">
        <ele>112.2</ele>
        <time>2022-08-10T17:06:40Z</time>
      </trkpt>
      <trkpt lat="44.48369" lon="1.2348">
        <ele>112.6</ele>
        <time>2022-08-10T17:06:42Z</time>
      </trkpt>
      <trkpt lat="44.48378" lon="1.23475">
        <ele>112.8</ele>
        <time>2022-08-10T17:06:44Z</time>
      </trkpt>
      <trkpt lat="44.48386" lon="1.23471">
        <ele>112.8</ele>
        <time>2022-08-10T17:06:46Z</time>
      </trkpt>
      <trkpt lat="44.48395" lon="1.23468">
        <ele>113</ele>
        <time>2022-08-10T17:06:48Z</time>
      </trkpt>
      <trkpt lat="44.48404" lon="1.23464">
        <ele>113.2</ele>
        <time>2022-08-10T17:06:50Z</time>
      </trkpt>
      <trkpt lat="44.48413" lon="1.2346">
        <ele>113</ele>
        <time>2022-08-10T17:06:52Z</time>
      </trkpt>
      <trkpt lat="44.48423" lon="1.23457">
        <ele>113.5</ele>
        <time>2022-08-10T17:06:54Z</time>
      </trkpt>
      <trkpt lat="44.48432" lon="1.23452">
        <ele>113.3</ele>
        <time>2022-08-10T17:06:56Z</time>
      </trkpt>
      <trkpt lat="44.48441" lon="1.23447">
        <ele>112.9</ele>
        <time>2022-08-10T17:06:58Z</time>
      </trkpt>
      <trkpt lat="44.4845" lon="1.23442">
        <ele>112.5</ele>
        <time>2022-08-10T17:07:00Z</time>
      </trkpt>
      <trkpt lat="44.4846" lon="1.23438">
        <ele>112.3</ele>
        <time>2022-08-10T17:07:02Z</time>
      </trkpt>
      <trkpt lat="44.48469" lon="1.23431">
        <ele>111.2</ele>
        <time>2022-08-10T17:07:04Z</time>
      </trkpt>
      <trkpt lat="44.48478" lon="1.23425">
        <ele>110</ele>
        <time>2022-08-10T17:07:06Z</time>
      </trkpt>
      <trkpt lat="44.48487" lon="1.23419">
        <ele>108.8</ele>
        <time>2022-08-10T17:07:08Z</time>
      </trkpt>
      <trkpt lat="44.48496" lon="1.23413">
        <ele>108.2</ele>
        <time>2022-08-10T17:07:10Z</time>
      </trkpt>
      <trkpt lat="44.48505" lon="1.23406">
        <ele>108.2</ele>
        <time>2022-08-10T17:07:12Z</time>
      </trkpt>
      <trkpt lat="44.48515" lon="1.234">
        <ele>108.4</ele>
        <time>2022-08-10T17:07:14Z</time>
      </trkpt>
      <trkpt lat="44.48524" lon="1.23395">
        <ele>108.6</ele>
        <time>2022-08-10T17:07:16Z</time>
      </trkpt>
      <trkpt lat="44.48534" lon="1.2339">
        <ele>108.9</ele>
        <time>2022-08-10T17:07:18Z</time>
      </trkpt>
      <trkpt lat="44.48544" lon="1.23386">
        <ele>109.3</ele>
        <time>2022-08-10T17:07:20Z</time>
      </trkpt>
      <trkpt lat="44.48554" lon="1.23381">
        <ele>109.2</ele>
        <time>2022-08-10T17:07:22Z</time>
      </trkpt>
      <trkpt lat="44.48565" lon="1.23378">
        <ele>109.5</ele>
        <time>2022-08-10T17:07:24Z</time>
      </trkpt>
      <trkpt lat="44.48575" lon="1.23374">
        <ele>109.5</ele>
        <time>2022-08-10T17:07:26Z</time>
      </trkpt>
      <trkpt lat="44.48585" lon="1.2337">
        <ele>109.4</ele>
        <time>2022-08-10T17:07:28Z</time>
      </trkpt>
      <trkpt lat="44.48596" lon="1.23368">
        <ele>110</ele>
        <time>2022-08-10T17:07:30Z</time>
      </trkpt>
      <trkpt lat="44.48605" lon="1.23362">
        <ele>109.1</ele>
        <time>2022-08-10T17:07:32Z</time>
      </trkpt>
      <trkpt lat="44.48615" lon="1.23358">
        <ele>108.9</ele>
        <time>2022-08-10T17:07:34Z</time>
      </trkpt>
      <trkpt lat="44.48626" lon="1.23356">
        <ele>109.3</ele>
        <time>2022-08-10T17:07:36Z</time>
      </trkpt>
      <trkpt lat="44.48636" lon="1.23353">
        <ele>109.2</ele>
        <time>2022-08-10T17:07:38Z</time>
      </trkpt>
      <trkpt lat="44.48647" lon="1.23348">
        <ele>108.7</ele>
        <time>2022-08-10T17:07:40Z</time>
      </trkpt>
      <trkpt lat="44.48658" lon="1.23345">
        <ele>108.4</ele>
        <time>2022-08-10T17:07:42Z</time>
      </trkpt>
      <trkpt lat="44.48668" lon="1.23342">
        <ele>108.1</ele>
        <time>2022-08-10T17:07:44Z</time>
      </trkpt>
      <trkpt lat="44.48677" lon="1.23339">
        <ele>108.4</ele>
        <time>2022-08-10T17:07:46Z</time>
      </trkpt>
      <trkpt lat="44.48687" lon="1.23337">
        <ele>108.7</ele>
        <time>2022-08-10T17:07:48Z</time>
      </trkpt>
      <trkpt lat="44.48698" lon="1.23333">
        <ele>108.8</ele>
        <time>2022-08-10T17:07:50Z</time>
      </trkpt>
      <trkpt lat="44.48708" lon="1.23329">
        <ele>109.4</ele>
        <time>2022-08-10T17:07:52Z</time>
      </trkpt>
      <trkpt lat="44.48717" lon="1.23326">
        <ele>110</ele>
        <time>2022-08-10T17:07:54Z</time>
      </trkpt>
      <trkpt lat="44.48728" lon="1.23323">
        <ele>110.9</ele>
        <time>2022-08-10T17:07:56Z</time>
      </trkpt>
      <trkpt lat="44.48738" lon="1.23319">
        <ele>111.2</ele>
        <time>2022-08-10T17:07:58Z</time>
      </trkpt>
      <trkpt lat="44.48748" lon="1.23315">
        <ele>111.7</ele>
        <time>2022-08-10T17:08:00Z</time>
      </trkpt>
      <trkpt lat="44.48758" lon="1.23313">
        <ele>111.9</ele>
        <time>2022-08-10T17:08:02Z</time>
      </trkpt>
      <trkpt lat="44.48767" lon="1.23309">
        <ele>111.7</ele>
        <time>2022-08-10T17:08:04Z</time>
      </trkpt>
      <trkpt lat="44.48777" lon="1.23309">
        <ele>112</ele>
        <time>2022-08-10T17:08:06Z</time>
      </trkpt>
      <trkpt lat="44.48786" lon="1.23305">
        <ele>111.7</ele>
        <time>2022-08-10T17:08:08Z</time>
      </trkpt>
      <trkpt lat="44.48796" lon="1.23302">
        <ele>111.4</ele>
        <time>2022-08-10T17:08:10Z</time>
      </trkpt>
      <trkpt lat="44.48805" lon="1.23297">
        <ele>110.8</ele>
        <time>2022-08-10T17:08:12Z</time>
      </trkpt>
      <trkpt lat="44.48816" lon="1.23292">
        <ele>110.1</ele>
        <time>2022-08-10T17:08:14Z</time>
      </trkpt>
      <trkpt lat="44.48826" lon="1.23288">
        <ele>109.4</ele>
        <time>2022-08-10T17:08:16Z</time>
      </trkpt>
      <trkpt lat="44.48836" lon="1.23281">
        <ele>108.4</ele>
        <time>2022-08-10T17:08:18Z</time>
      </trkpt>
      <trkpt lat="44.48846" lon="1.23273">
        <ele>108.4</ele>
        <time>2022-08-10T17:08:20Z</time>
      </trkpt>
      <trkpt lat="44.48856" lon="1.23268">
        <ele>108.9</ele>
        <time>2022-08-10T17:08:22Z</time>
      </trkpt>
      <trkpt lat="44.48866" lon="1.23262">
        <ele>108.9</ele>
        <time>2022-08-10T17:08:24Z</time>
      </trkpt>
      <trkpt lat="44.48877" lon="1.23255">
        <ele>108.7</ele>
        <time>2022-08-10T17:08:26Z</time>
      </trkpt>
      <trkpt lat="44.48888" lon="1.23248">
        <ele>108.6</ele>
        <time>2022-08-10T17:08:28Z</time>
      </trkpt>
      <trkpt lat="44.48899" lon="1.23243">
        <ele>109.3</ele>
        <time>2022-08-10T17:08:30Z</time>
      </trkpt>
      <trkpt lat="44.48908" lon="1.23236">
        <ele>109.2</ele>
        <time>2022-08-10T17:08:32Z</time>
      </trkpt>
      <trkpt lat="44.48918" lon="1.2323">
        <ele>109.5</ele>
        <time>2022-08-10T17:08:34Z</time>
      </trkpt>
      <trkpt lat="44.48928" lon="1.23223">
        <ele>110.3</ele>
        <time>2022-08-10T17:08:36Z</time>
      </trkpt>
      <trkpt lat="44.48938" lon="1.23218">
        <ele>111.1</ele>
        <time>2022-08-10T17:08:38Z</time>
      </trkpt>
      <trkpt lat="44.48947" lon="1.23213">
        <ele>111.2</ele>
        <time>2022-08-10T17:08:40Z</time>
      </trkpt>
      <trkpt lat="44.48955" lon="1.23207">
        <ele>111.3</ele>
        <time>2022-08-10T17:08:42Z</time>
      </trkpt>
      <trkpt lat="44.48964" lon="1.23203">
        <ele>111.2</ele>
        <time>2022-08-10T17:08:44Z</time>
      </trkpt>
      <trkpt lat="44.48973" lon="1.23197">
        <ele>110.6</ele>
        <time>2022-08-10T17:08:46Z</time>
      </trkpt>
      <trkpt lat="44.48981" lon="1.23193">
        <ele>110.3</ele>
        <time>2022-08-10T17:08:48Z</time>
      </trkpt>
      <trkpt lat="44.48989" lon="1.23188">
        <ele>109.3</ele>
        <time>2022-08-10T17:08:50Z</time>
      </trkpt>
      <trkpt lat="44.48995" lon="1.23178">
        <ele>106.3</ele>
        <time>2022-08-10T17:08:52Z</time>
      </trkpt>
      <trkpt lat="44.49002" lon="1.23169">
        <ele>103.4</ele>
        <time>2022-08-10T17:08:54Z</time>
      </trkpt>
      <trkpt lat="44.4901" lon="1.23165">
        <ele>103.3</ele>
        <time>2022-08-10T17:08:56Z</time>
      </trkpt>
      <trkpt lat="44.49019" lon="1.23163">
        <ele>104.2</ele>
        <time>2022-08-10T17:08:58Z</time>
      </trkpt>
      <trkpt lat="44.49029" lon="1.2316">
        <ele>105.1</ele>
        <time>2022-08-10T17:09:00Z</time>
      </trkpt>
      <trkpt lat="44.49037" lon="1.23155">
        <ele>105.6</ele>
        <time>2022-08-10T17:09:02Z</time>
      </trkpt>
      <trkpt lat="44.49045" lon="1.23152">
        <ele>106.1</ele>
        <time>2022-08-10T17:09:04Z</time>
      </trkpt>
      <trkpt lat="44.49054" lon="1.23149">
        <ele>106.8</ele>
        <time>2022-08-10T17:09:06Z</time>
      </trkpt>
      <trkpt lat="44.49062" lon="1.23145">
        <ele>107.1</ele>
        <time>2022-08-10T17:09:08Z</time>
      </trkpt>
      <trkpt lat="44.49071" lon="1.23142">
        <ele>107.7</ele>
        <time>2022-08-10T17:09:10Z</time>
      </trkpt>
      <trkpt lat="44.49079" lon="1.23136">
        <ele>107.7</ele>
        <time>2022-08-10T17:09:12Z</time>
      </trkpt>
      <trkpt lat="44.49087" lon="1.23134">
        <ele>107.9</ele>
        <time>2022-08-10T17:09:14Z</time>
      </trkpt>
      <trkpt lat="44.49096" lon="1.2313">
        <ele>107.4</ele>
        <time>2022-08-10T17:09:16Z</time>
      </trkpt>
      <trkpt lat="44.49105" lon="1.23124">
        <ele>106.8</ele>
        <time>2022-08-10T17:09:18Z</time>
      </trkpt>
      <trkpt lat="44.49113" lon="1.23121">
        <ele>106.5</ele>
        <time>2022-08-10T17:09:20Z</time>
      </trkpt>
      <trkpt lat="44.49121" lon="1.23116">
        <ele>105.6</ele>
        <time>2022-08-10T17:09:22Z</time>
      </trkpt>
      <trkpt lat="44.4913" lon="1.23113">
        <ele>105.3</ele>
        <time>2022-08-10T17:09:24Z</time>
      </trkpt>
      <trkpt lat="44.49138" lon="1.23108">
        <ele>104.3</ele>
        <time>2022-08-10T17:09:26Z</time>
      </trkpt>
      <trkpt lat="44.49146" lon="1.23104">
        <ele>103.6</ele>
        <time>2022-08-10T17:09:28Z</time>
      </trkpt>
      <trkpt lat="44.49156" lon="1.23099">
        <ele>102.6</ele>
        <time>2022-08-10T17:09:30Z</time>
      </trkpt>
      <trkpt lat="44.49164" lon="1.23095">
        <ele>101.8</ele>
        <time>2022-08-10T17:09:32Z</time>
      </trkpt>
      <trkpt lat="44.49173" lon="1.23089">
        <ele>101.5</ele>
        <time>2022-08-10T17:09:34Z</time>
      </trkpt>
      <trkpt lat="44.49181" lon="1.23083">
        <ele>101.6</ele>
        <time>2022-08-10T17:09:36Z</time>
      </trkpt>
      <trkpt lat="44.4919" lon="1.23078">
        <ele>102.8</ele>
        <time>2022-08-10T17:09:38Z</time>
      </trkpt>
      <trkpt lat="44.49198" lon="1.23071">
        <ele>103.6</ele>
        <time>2022-08-10T17:09:40Z</time>
      </trkpt>
      <trkpt lat="44.49206" lon="1.23066">
        <ele>104.4</ele>
        <time>2022-08-10T17:09:42Z</time>
      </trkpt>
      <trkpt lat="44.49214" lon="1.23058">
        <ele>105</ele>
        <time>2022-08-10T17:09:44Z</time>
      </trkpt>
      <trkpt lat="44.49222" lon="1.23053">
        <ele>105.5</ele>
        <time>2022-08-10T17:09:46Z</time>
      </trkpt>
      <trkpt lat="44.4923" lon="1.23046">
        <ele>105.7</ele>
        <time>2022-08-10T17:09:48Z</time>
      </trkpt>
      <trkpt lat="44.49238" lon="1.23039">
        <ele>105.8</ele>
        <time>2022-08-10T17:09:50Z</time>
      </trkpt>
      <trkpt lat="44.49246" lon="1.23033">
        <ele>105.6</ele>
        <time>2022-08-10T17:09:52Z</time>
      </trkpt>
      <trkpt lat="44.49254" lon="1.23025">
        <ele>105.7</ele>
        <time>2022-08-10T17:09:54Z</time>
      </trkpt>
      <trkpt lat="44.49262" lon="1.23019">
        <ele>106.3</ele>
        <time>2022-08-10T17:09:56Z</time>
      </trkpt>
      <trkpt lat="44.49268" lon="1.23013">
        <ele>106.2</ele>
        <time>2022-08-10T17:09:58Z</time>
      </trkpt>
      <trkpt lat="44.49277" lon="1.23005">
        <ele>106.6</ele>
        <time>2022-08-10T17:10:00Z</time>
      </trkpt>
      <trkpt lat="44.49285" lon="1.22999">
        <ele>106.7</ele>
        <time>2022-08-10T17:10:02Z</time>
      </trkpt>
      <trkpt lat="44.49293" lon="1.22992">
        <ele>107.3</ele>
        <time>2022-08-10T17:10:04Z</time>
      </trkpt>
      <trkpt lat="44.49302" lon="1.22984">
        <ele>107.4</ele>
        <time>2022-08-10T17:10:06Z</time>
      </trkpt>
      <trkpt lat="44.4931" lon="1.22979">
        <ele>107.9</ele>
        <time>2022-08-10T17:10:08Z</time>
      </trkpt>
      <trkpt lat="44.49319" lon="1.22972">
        <ele>107.8</ele>
        <time>2022-08-10T17:10:10Z</time>
      </trkpt>
      <trkpt lat="44.49327" lon="1.22964">
        <ele>107.4</ele>
        <time>2022-08-10T17:10:12Z</time>
      </trkpt>
      <trkpt lat="44.49335" lon="1.22959">
        <ele>107.6</ele>
        <time>2022-08-10T17:10:14Z</time>
      </trkpt>
      <trkpt lat="44.49343" lon="1.2295">
        <ele>107.6</ele>
        <time>2022-08-10T17:10:16Z</time>
      </trkpt>
      <trkpt lat="44.49351" lon="1.22942">
        <ele>108</ele>
        <time>2022-08-10T17:10:18Z</time>
      </trkpt>
      <trkpt lat="44.49359" lon="1.22935">
        <ele>108.2</ele>
        <time>2022-08-10T17:10:20Z</time>
      </trkpt>
      <trkpt lat="44.49367" lon="1.22928">
        <ele>108.3</ele>
        <time>2022-08-10T17:10:22Z</time>
      </trkpt>
      <trkpt lat="44.49375" lon="1.2292">
        <ele>108.3</ele>
        <time>2022-08-10T17:10:24Z</time>
      </trkpt>
      <trkpt lat="44.49382" lon="1.22913">
        <ele>108.4</ele>
        <time>2022-08-10T17:10:26Z</time>
      </trkpt>
      <trkpt lat="44.49391" lon="1.22904">
        <ele>108.6</ele>
        <time>2022-08-10T17:10:28Z</time>
      </trkpt>
      <trkpt lat="44.49398" lon="1.22896">
        <ele>108.4</ele>
        <time>2022-08-10T17:10:30Z</time>
      </trkpt>
      <trkpt lat="44.49405" lon="1.22888">
        <ele>107.8</ele>
        <time>2022-08-10T17:10:32Z</time>
      </trkpt>
      <trkpt lat="44.49412" lon="1.22879">
        <ele>107</ele>
        <time>2022-08-10T17:10:34Z</time>
      </trkpt>
      <trkpt lat="44.49419" lon="1.2287">
        <ele>106.3</ele>
        <time>2022-08-10T17:10:36Z</time>
      </trkpt>
      <trkpt lat="44.49426" lon="1.22862">
        <ele>106.7</ele>
        <time>2022-08-10T17:10:38Z</time>
      </trkpt>
      <trkpt lat="44.49433" lon="1.22854">
        <ele>106.9</ele>
        <time>2022-08-10T17:10:40Z</time>
      </trkpt>
      <trkpt lat="44.4944" lon="1.22846">
        <ele>106.7</ele>
        <time>2022-08-10T17:10:42Z</time>
      </trkpt>
      <trkpt lat="44.49447" lon="1.22838">
        <ele>106.6</ele>
        <time>2022-08-10T17:10:44Z</time>
      </trkpt>
      <trkpt lat="44.49454" lon="1.22828">
        <ele>106.5</ele>
        <time>2022-08-10T17:10:46Z</time>
      </trkpt>
      <trkpt lat="44.49461" lon="1.22819">
        <ele>107.1</ele>
        <time>2022-08-10T17:10:48Z</time>
      </trkpt>
      <trkpt lat="44.49468" lon="1.2281">
        <ele>107.4</ele>
        <time>2022-08-10T17:10:50Z</time>
      </trkpt>
      <trkpt lat="44.49476" lon="1.22802">
        <ele>107.6</ele>
        <time>2022-08-10T17:10:52Z</time>
      </trkpt>
      <trkpt lat="44.49482" lon="1.22793">
        <ele>107.2</ele>
        <time>2022-08-10T17:10:54Z</time>
      </trkpt>
      <trkpt lat="44.4949" lon="1.22786">
        <ele>107.4</ele>
        <time>2022-08-10T17:10:56Z</time>
      </trkpt>
      <trkpt lat="44.49496" lon="1.22778">
        <ele>106.8</ele>
        <time>2022-08-10T17:10:58Z</time>
      </trkpt>
      <trkpt lat="44.49504" lon="1.22769">
        <ele>106.6</ele>
        <time>2022-08-10T17:11:00Z</time>
      </trkpt>
      <trkpt lat="44.49511" lon="1.22761">
        <ele>106.9</ele>
        <time>2022-08-10T17:11:02Z</time>
      </trkpt>
      <trkpt lat="44.49517" lon="1.22754">
        <ele>107.1</ele>
        <time>2022-08-10T17:11:04Z</time>
      </trkpt>
      <trkpt lat="44.49524" lon="1.22744">
        <ele>107.5</ele>
        <time>2022-08-10T17:11:06Z</time>
      </trkpt>
      <trkpt lat="44.49531" lon="1.22736">
        <ele>108.2</ele>
        <time>2022-08-10T17:11:08Z</time>
      </trkpt>
      <trkpt lat="44.49538" lon="1.22727">
        <ele>108.5</ele>
        <time>2022-08-10T17:11:10Z</time>
      </trkpt>
      <trkpt lat="44.49544" lon="1.22717">
        <ele>108.3</ele>
        <time>2022-08-10T17:11:12Z</time>
      </trkpt>
      <trkpt lat="44.49551" lon="1.22709">
        <ele>108.2</ele>
        <time>2022-08-10T17:11:14Z</time>
      </trkpt>
      <trkpt lat="44.49558" lon="1.22701">
        <ele>107.8</ele>
        <time>2022-08-10T17:11:16Z</time>
      </trkpt>
      <trkpt lat="44.49564" lon="1.22692">
        <ele>106.7</ele>
        <time>2022-08-10T17:11:18Z</time>
      </trkpt>
      <trkpt lat="44.49571" lon="1.22685">
        <ele>105.9</ele>
        <time>2022-08-10T17:11:20Z</time>
      </trkpt>
      <trkpt lat="44.49578" lon="1.22678">
        <ele>104.7</ele>
        <time>2022-08-10T17:11:22Z</time>
      </trkpt>
      <trkpt lat="44.49586" lon="1.2267">
        <ele>103.8</ele>
        <time>2022-08-10T17:11:24Z</time>
      </trkpt>
      <trkpt lat="44.49592" lon="1.22663">
        <ele>104.5</ele>
        <time>2022-08-10T17:11:26Z</time>
      </trkpt>
      <trkpt lat="44.49599" lon="1.22655">
        <ele>105.7</ele>
        <time>2022-08-10T17:11:28Z</time>
      </trkpt>
      <trkpt lat="44.49605" lon="1.22646">
        <ele>106.3</ele>
        <time>2022-08-10T17:11:30Z</time>
      </trkpt>
      <trkpt lat="44.49611" lon="1.2264">
        <ele>106.9</ele>
        <time>2022-08-10T17:11:32Z</time>
      </trkpt>
      <trkpt lat="44.49617" lon="1.22634">
        <ele>107.3</ele>
        <time>2022-08-10T17:11:34Z</time>
      </trkpt>
      <trkpt lat="44.49623" lon="1.22627">
        <ele>107.3</ele>
        <time>2022-08-10T17:11:36Z</time>
      </trkpt>
      <trkpt lat="44.49629" lon="1.22621">
        <ele>107.4</ele>
        <time>2022-08-10T17:11:38Z</time>
      </trkpt>
      <trkpt lat="44.49634" lon="1.22614">
        <ele>107.1</ele>
        <time>2022-08-10T17:11:40Z</time>
      </trkpt>
      <trkpt lat="44.4964" lon="1.22607">
        <ele>106.5</ele>
        <time>2022-08-10T17:11:42Z</time>
      </trkpt>
      <trkpt lat="44.49645" lon="1.22602">
        <ele>106.1</ele>
        <time>2022-08-10T17:11:44Z</time>
      </trkpt>
      <trkpt lat="44.49651" lon="1.22596">
        <ele>105.6</ele>
        <time>2022-08-10T17:11:46Z</time>
      </trkpt>
      <trkpt lat="44.49657" lon="1.2259">
        <ele>104.6</ele>
        <time>2022-08-10T17:11:48Z</time>
      </trkpt>
      <trkpt lat="44.49663" lon="1.22583">
        <ele>103.6</ele>
        <time>2022-08-10T17:11:50Z</time>
      </trkpt>
      <trkpt lat="44.49668" lon="1.22578">
        <ele>103.7</ele>
        <time>2022-08-10T17:11:52Z</time>
      </trkpt>
      <trkpt lat="44.49667" lon="1.22574">
        <ele>103</ele>
        <time>2022-08-10T17:11:54Z</time>
      </trkpt>
      <trkpt lat="44.49667" lon="1.22575">
        <ele>103.1</ele>
        <time>2022-08-10T17:11:56Z</time>
      </trkpt>
      <trkpt lat="44.49667" lon="1.22575">
        <ele>103</ele>
        <time>2022-08-10T17:11:58Z</time>
      </trkpt>
      <trkpt lat="44.49667" lon="1.22575">
        <ele>103</ele>
        <time>2022-08-10T17:12:02Z</time>
      </trkpt>
      <trkpt lat="44.49684" lon="1.22562">
        <ele>105.7</ele>
        <time>2022-08-10T17:12:18Z</time>
      </trkpt>
      <trkpt lat="44.49689" lon="1.22557">
        <ele>106.2</ele>
        <time>2022-08-10T17:12:20Z</time>
      </trkpt>
      <trkpt lat="44.49696" lon="1.22551">
        <ele>106.6</ele>
        <time>2022-08-10T17:12:22Z</time>
      </trkpt>
      <trkpt lat="44.497" lon="1.22547">
        <ele>107</ele>
        <time>2022-08-10T17:12:24Z</time>
      </trkpt>
      <trkpt lat="44.49707" lon="1.2254">
        <ele>107</ele>
        <time>2022-08-10T17:12:26Z</time>
      </trkpt>
      <trkpt lat="44.49713" lon="1.22534">
        <ele>107</ele>
        <time>2022-08-10T17:12:28Z</time>
      </trkpt>
      <trkpt lat="44.49719" lon="1.22526">
        <ele>106.4</ele>
        <time>2022-08-10T17:12:30Z</time>
      </trkpt>
      <trkpt lat="44.49725" lon="1.2252">
        <ele>106.3</ele>
        <time>2022-08-10T17:12:32Z</time>
      </trkpt>
      <trkpt lat="44.49731" lon="1.22515">
        <ele>106</ele>
        <time>2022-08-10T17:12:34Z</time>
      </trkpt>
      <trkpt lat="44.49736" lon="1.22509">
        <ele>105.5</ele>
        <time>2022-08-10T17:12:36Z</time>
      </trkpt>
      <trkpt lat="44.49741" lon="1.22503">
        <ele>104.5</ele>
        <time>2022-08-10T17:12:38Z</time>
      </trkpt>
      <trkpt lat="44.49745" lon="1.22498">
        <ele>104</ele>
        <time>2022-08-10T17:12:40Z</time>
      </trkpt>
      <trkpt lat="44.49749" lon="1.22495">
        <ele>104</ele>
        <time>2022-08-10T17:12:42Z</time>
      </trkpt>
      <trkpt lat="44.49753" lon="1.22491">
        <ele>104.5</ele>
        <time>2022-08-10T17:12:44Z</time>
      </trkpt>
      <trkpt lat="44.49755" lon="1.22488">
        <ele>104.5</ele>
        <time>2022-08-10T17:12:46Z</time>
      </trkpt>
      <trkpt lat="44.49759" lon="1.22486">
        <ele>105.3</ele>
        <time>2022-08-10T17:12:48Z</time>
      </trkpt>
      <trkpt lat="44.49763" lon="1.22484">
        <ele>105.9</ele>
        <time>2022-08-10T17:12:50Z</time>
      </trkpt>
      <trkpt lat="44.49766" lon="1.22479">
        <ele>105.9</ele>
        <time>2022-08-10T17:12:52Z</time>
      </trkpt>
      <trkpt lat="44.49771" lon="1.22475">
        <ele>106.1</ele>
        <time>2022-08-10T17:12:54Z</time>
      </trkpt>
      <trkpt lat="44.49776" lon="1.22471">
        <ele>106.8</ele>
        <time>2022-08-10T17:12:56Z</time>
      </trkpt>
      <trkpt lat="44.4978" lon="1.22468">
        <ele>107</ele>
        <time>2022-08-10T17:12:58Z</time>
      </trkpt>
      <trkpt lat="44.49785" lon="1.22463">
        <ele>107</ele>
        <time>2022-08-10T17:13:00Z</time>
      </trkpt>
      <trkpt lat="44.4979" lon="1.22458">
        <ele>106.9</ele>
        <time>2022-08-10T17:13:02Z</time>
      </trkpt>
      <trkpt lat="44.49795" lon="1.22453">
        <ele>106.9</ele>
        <time>2022-08-10T17:13:04Z</time>
      </trkpt>
      <trkpt lat="44.49799" lon="1.22451">
        <ele>107.2</ele>
        <time>2022-08-10T17:13:06Z</time>
      </trkpt>
      <trkpt lat="44.49803" lon="1.22447">
        <ele>106.9</ele>
        <time>2022-08-10T17:13:08Z</time>
      </trkpt>
      <trkpt lat="44.49806" lon="1.22441">
        <ele>105.9</ele>
        <time>2022-08-10T17:13:10Z</time>
      </trkpt>
      <trkpt lat="44.49812" lon="1.22437">
        <ele>105.8</ele>
        <time>2022-08-10T17:13:12Z</time>
      </trkpt>
      <trkpt lat="44.49817" lon="1.2243">
        <ele>104.8</ele>
        <time>2022-08-10T17:13:14Z</time>
      </trkpt>
      <trkpt lat="44.49824" lon="1.22424">
        <ele>103.8</ele>
        <time>2022-08-10T17:13:16Z</time>
      </trkpt>
      <trkpt lat="44.49829" lon="1.22417">
        <ele>102.7</ele>
        <time>2022-08-10T17:13:18Z</time>
      </trkpt>
      <trkpt lat="44.49836" lon="1.22412">
        <ele>102.9</ele>
        <time>2022-08-10T17:13:20Z</time>
      </trkpt>
      <trkpt lat="44.49841" lon="1.22406">
        <ele>103.5</ele>
        <time>2022-08-10T17:13:22Z</time>
      </trkpt>
      <trkpt lat="44.49847" lon="1.22398">
        <ele>103.7</ele>
        <time>2022-08-10T17:13:24Z</time>
      </trkpt>
      <trkpt lat="44.49853" lon="1.22394">
        <ele>104.3</ele>
        <time>2022-08-10T17:13:26Z</time>
      </trkpt>
      <trkpt lat="44.49857" lon="1.22387">
        <ele>104.1</ele>
        <time>2022-08-10T17:13:28Z</time>
      </trkpt>
      <trkpt lat="44.49862" lon="1.22382">
        <ele>104</ele>
        <time>2022-08-10T17:13:30Z</time>
      </trkpt>
      <trkpt lat="44.49867" lon="1.22375">
        <ele>103.6</ele>
        <time>2022-08-10T17:13:32Z</time>
      </trkpt>
      <trkpt lat="44.49872" lon="1.22367">
        <ele>102.8</ele>
        <time>2022-08-10T17:13:34Z</time>
      </trkpt>
      <trkpt lat="44.49877" lon="1.2236">
        <ele>102.1</ele>
        <time>2022-08-10T17:13:36Z</time>
      </trkpt>
      <trkpt lat="44.49882" lon="1.22352">
        <ele>101.1</ele>
        <time>2022-08-10T17:13:38Z</time>
      </trkpt>
      <trkpt lat="44.49888" lon="1.22346">
        <ele>100.3</ele>
        <time>2022-08-10T17:13:40Z</time>
      </trkpt>
      <trkpt lat="44.49893" lon="1.22339">
        <ele>99.2</ele>
        <time>2022-08-10T17:13:42Z</time>
      </trkpt>
      <trkpt lat="44.49896" lon="1.22333">
        <ele>98</ele>
        <time>2022-08-10T17:13:44Z</time>
      </trkpt>
      <trkpt lat="44.499" lon="1.22328">
        <ele>98</ele>
        <time>2022-08-10T17:13:46Z</time>
      </trkpt>
      <trkpt lat="44.49903" lon="1.22323">
        <ele>98</ele>
        <time>2022-08-10T17:13:48Z</time>
      </trkpt>
      <trkpt lat="44.49907" lon="1.22319">
        <ele>98</ele>
        <time>2022-08-10T17:13:50Z</time>
      </trkpt>
      <trkpt lat="44.49912" lon="1.22314">
        <ele>98</ele>
        <time>2022-08-10T17:13:52Z</time>
      </trkpt>
      <trkpt lat="44.49915" lon="1.22308">
        <ele>97.8</ele>
        <time>2022-08-10T17:13:54Z</time>
      </trkpt>
      <trkpt lat="44.49918" lon="1.22303">
        <ele>97.4</ele>
        <time>2022-08-10T17:13:56Z</time>
      </trkpt>
      <trkpt lat="44.49921" lon="1.22295">
        <ele>96.6</ele>
        <time>2022-08-10T17:13:58Z</time>
      </trkpt>
      <trkpt lat="44.49926" lon="1.22286">
        <ele>95.9</ele>
        <time>2022-08-10T17:14:00Z</time>
      </trkpt>
      <trkpt lat="44.4993" lon="1.22281">
        <ele>95.4</ele>
        <time>2022-08-10T17:14:02Z</time>
      </trkpt>
      <trkpt lat="44.49934" lon="1.22274">
        <ele>94.9</ele>
        <time>2022-08-10T17:14:04Z</time>
      </trkpt>
      <trkpt lat="44.49937" lon="1.2227">
        <ele>94.6</ele>
        <time>2022-08-10T17:14:06Z</time>
      </trkpt>
      <trkpt lat="44.49939" lon="1.22264">
        <ele>94.2</ele>
        <time>2022-08-10T17:14:08Z</time>
      </trkpt>
      <trkpt lat="44.49942" lon="1.2226">
        <ele>93.9</ele>
        <time>2022-08-10T17:14:10Z</time>
      </trkpt>
      <trkpt lat="44.49942" lon="1.22259">
        <ele>93.9</ele>
        <time>2022-08-10T17:14:12Z</time>
      </trkpt>
      <trkpt lat="44.49942" lon="1.2226">
        <ele>93.9</ele>
        <time>2022-08-10T17:14:14Z</time>
      </trkpt>
      <trkpt lat="44.49942" lon="1.2226">
        <ele>93.9</ele>
        <time>2022-08-10T17:14:16Z</time>
      </trkpt>
      <trkpt lat="44.49943" lon="1.22261">
        <ele>94</ele>
        <time>2022-08-10T17:14:18Z</time>
      </trkpt>
      <trkpt lat="44.49942" lon="1.22264">
        <ele>94.2</ele>
        <time>2022-08-10T17:14:20Z</time>
      </trkpt>
      <trkpt lat="44.49952" lon="1.22256">
        <ele>93.8</ele>
        <time>2022-08-10T17:15:10Z</time>
      </trkpt>
      <trkpt lat="44.49954" lon="1.22258">
        <ele>93.9</ele>
        <time>2022-08-10T17:15:12Z</time>
      </trkpt>
      <trkpt lat="44.49953" lon="1.22254">
        <ele>93.7</ele>
        <time>2022-08-10T17:15:14Z</time>
      </trkpt>
      <trkpt lat="44.49953" lon="1.2225">
        <ele>93.4</ele>
        <time>2022-08-10T17:15:16Z</time>
      </trkpt>
      <trkpt lat="44.49958" lon="1.22245">
        <ele>93.5</ele>
        <time>2022-08-10T17:15:18Z</time>
      </trkpt>
      <trkpt lat="44.49962" lon="1.22241">
        <ele>93.5</ele>
        <time>2022-08-10T17:15:20Z</time>
      </trkpt>
      <trkpt lat="44.49965" lon="1.22236">
        <ele>93.6</ele>
        <time>2022-08-10T17:15:22Z</time>
      </trkpt>
      <trkpt lat="44.49968" lon="1.2223">
        <ele>93.7</ele>
        <time>2022-08-10T17:15:24Z</time>
      </trkpt>
      <trkpt lat="44.49971" lon="1.22223">
        <ele>93.8</ele>
        <time>2022-08-10T17:15:26Z</time>
      </trkpt>
      <trkpt lat="44.49975" lon="1.22217">
        <ele>93.9</ele>
        <time>2022-08-10T17:15:28Z</time>
      </trkpt>
      <trkpt lat="44.49979" lon="1.22209">
        <ele>94</ele>
        <time>2022-08-10T17:15:30Z</time>
      </trkpt>
      <trkpt lat="44.49983" lon="1.22201">
        <ele>94.1</ele>
        <time>2022-08-10T17:15:32Z</time>
      </trkpt>
      <trkpt lat="44.49987" lon="1.22193">
        <ele>94.3</ele>
        <time>2022-08-10T17:15:34Z</time>
      </trkpt>
      <trkpt lat="44.4999" lon="1.22185">
        <ele>94.5</ele>
        <time>2022-08-10T17:15:36Z</time>
      </trkpt>
      <trkpt lat="44.49994" lon="1.22177">
        <ele>94.7</ele>
        <time>2022-08-10T17:15:38Z</time>
      </trkpt>
      <trkpt lat="44.49998" lon="1.22169">
        <ele>94.9</ele>
        <time>2022-08-10T17:15:40Z</time>
      </trkpt>
      <trkpt lat="44.50001" lon="1.22161">
        <ele>95</ele>
        <time>2022-08-10T17:15:42Z</time>
      </trkpt>
      <trkpt lat="44.50005" lon="1.22153">
        <ele>95.1</ele>
        <time>2022-08-10T17:15:44Z</time>
      </trkpt>
      <trkpt lat="44.50009" lon="1.22146">
        <ele>95.2</ele>
        <time>2022-08-10T17:15:46Z</time>
      </trkpt>
      <trkpt lat="44.50013" lon="1.22137">
        <ele>95.3</ele>
        <time>2022-08-10T17:15:48Z</time>
      </trkpt>
      <trkpt lat="44.50016" lon="1.22128">
        <ele>95.4</ele>
        <time>2022-08-10T17:15:50Z</time>
      </trkpt>
      <trkpt lat="44.5002" lon="1.22121">
        <ele>95.5</ele>
        <time>2022-08-10T17:15:52Z</time>
      </trkpt>
      <trkpt lat="44.50023" lon="1.22114">
        <ele>95.6</ele>
        <time>2022-08-10T17:15:54Z</time>
      </trkpt>
      <trkpt lat="44.50026" lon="1.22109">
        <ele>95.6</ele>
        <time>2022-08-10T17:15:56Z</time>
      </trkpt>
      <trkpt lat="44.50029" lon="1.22103">
        <ele>95.7</ele>
        <time>2022-08-10T17:15:58Z</time>
      </trkpt>
      <trkpt lat="44.50032" lon="1.22096">
        <ele>95.8</ele>
        <time>2022-08-10T17:16:00Z</time>
      </trkpt>
      <trkpt lat="44.50036" lon="1.22089">
        <ele>95.9</ele>
        <time>2022-08-10T17:16:02Z</time>
      </trkpt>
      <trkpt lat="44.50039" lon="1.22082">
        <ele>95.9</ele>
        <time>2022-08-10T17:16:04Z</time>
      </trkpt>
      <trkpt lat="44.50042" lon="1.22075">
        <ele>95.9</ele>
        <time>2022-08-10T17:16:06Z</time>
      </trkpt>
      <trkpt lat="44.50045" lon="1.2207">
        <ele>95.8</ele>
        <time>2022-08-10T17:16:08Z</time>
      </trkpt>
      <trkpt lat="44.50047" lon="1.22066">
        <ele>95.8</ele>
        <time>2022-08-10T17:16:10Z</time>
      </trkpt>
      <trkpt lat="44.50047" lon="1.22064">
        <ele>95.8</ele>
        <time>2022-08-10T17:16:12Z</time>
      </trkpt>
      <trkpt lat="44.50046" lon="1.2206">
        <ele>95.7</ele>
        <time>2022-08-10T17:16:14Z</time>
      </trkpt>
      <trkpt lat="44.5005" lon="1.2206">
        <ele>95.8</ele>
        <time>2022-08-10T17:16:16Z</time>
      </trkpt>
      <trkpt lat="44.50054" lon="1.22064">
        <ele>96</ele>
        <time>2022-08-10T17:16:18Z</time>
      </trkpt>
      <trkpt lat="44.50058" lon="1.22068">
        <ele>96.2</ele>
        <time>2022-08-10T17:16:20Z</time>
      </trkpt>
      <trkpt lat="44.50063" lon="1.22072">
        <ele>96.3</ele>
        <time>2022-08-10T17:16:22Z</time>
      </trkpt>
      <trkpt lat="44.50068" lon="1.22077">
        <ele>96.5</ele>
        <time>2022-08-10T17:16:24Z</time>
      </trkpt>
      <trkpt lat="44.50074" lon="1.22081">
        <ele>96.7</ele>
        <time>2022-08-10T17:16:26Z</time>
      </trkpt>
      <trkpt lat="44.50079" lon="1.22088">
        <ele>96.9</ele>
        <time>2022-08-10T17:16:28Z</time>
      </trkpt>
      <trkpt lat="44.50084" lon="1.22096">
        <ele>97.2</ele>
        <time>2022-08-10T17:16:30Z</time>
      </trkpt>
      <trkpt lat="44.50088" lon="1.22104">
        <ele>98</ele>
        <time>2022-08-10T17:16:32Z</time>
      </trkpt>
      <trkpt lat="44.50094" lon="1.22112">
        <ele>99</ele>
        <time>2022-08-10T17:16:34Z</time>
      </trkpt>
      <trkpt lat="44.50098" lon="1.22119">
        <ele>99.8</ele>
        <time>2022-08-10T17:16:36Z</time>
      </trkpt>
      <trkpt lat="44.50102" lon="1.22126">
        <ele>100.3</ele>
        <time>2022-08-10T17:16:38Z</time>
      </trkpt>
      <trkpt lat="44.50107" lon="1.22134">
        <ele>101</ele>
        <time>2022-08-10T17:16:40Z</time>
      </trkpt>
      <trkpt lat="44.5011" lon="1.2214">
        <ele>101.3</ele>
        <time>2022-08-10T17:16:42Z</time>
      </trkpt>
      <trkpt lat="44.50114" lon="1.22146">
        <ele>101.8</ele>
        <time>2022-08-10T17:16:44Z</time>
      </trkpt>
      <trkpt lat="44.50116" lon="1.22151">
        <ele>101.9</ele>
        <time>2022-08-10T17:16:46Z</time>
      </trkpt>
      <trkpt lat="44.50119" lon="1.22154">
        <ele>102.2</ele>
        <time>2022-08-10T17:16:48Z</time>
      </trkpt>
      <trkpt lat="44.50121" lon="1.22156">
        <ele>102.4</ele>
        <time>2022-08-10T17:16:50Z</time>
      </trkpt>
      <trkpt lat="44.50123" lon="1.2216">
        <ele>102.5</ele>
        <time>2022-08-10T17:16:52Z</time>
      </trkpt>
      <trkpt lat="44.50125" lon="1.22165">
        <ele>102.5</ele>
        <time>2022-08-10T17:16:54Z</time>
      </trkpt>
      <trkpt lat="44.50125" lon="1.22171">
        <ele>102.4</ele>
        <time>2022-08-10T17:16:56Z</time>
      </trkpt>
      <trkpt lat="44.50128" lon="1.22178">
        <ele>102.4</ele>
        <time>2022-08-10T17:16:58Z</time>
      </trkpt>
      <trkpt lat="44.50132" lon="1.22184">
        <ele>102.6</ele>
        <time>2022-08-10T17:17:00Z</time>
      </trkpt>
      <trkpt lat="44.50136" lon="1.22189">
        <ele>102.8</ele>
        <time>2022-08-10T17:17:02Z</time>
      </trkpt>
      <trkpt lat="44.50141" lon="1.22195">
        <ele>103</ele>
        <time>2022-08-10T17:17:04Z</time>
      </trkpt>
      <trkpt lat="44.50145" lon="1.22203">
        <ele>102.9</ele>
        <time>2022-08-10T17:17:06Z</time>
      </trkpt>
      <trkpt lat="44.50147" lon="1.22208">
        <ele>102.7</ele>
        <time>2022-08-10T17:17:08Z</time>
      </trkpt>
      <trkpt lat="44.50147" lon="1.22212">
        <ele>102.5</ele>
        <time>2022-08-10T17:17:10Z</time>
      </trkpt>
      <trkpt lat="44.50146" lon="1.22217">
        <ele>102.1</ele>
        <time>2022-08-10T17:17:12Z</time>
      </trkpt>
      <trkpt lat="44.50145" lon="1.22218">
        <ele>101.9</ele>
        <time>2022-08-10T17:17:14Z</time>
      </trkpt>
      <trkpt lat="44.50143" lon="1.2222">
        <ele>101.6</ele>
        <time>2022-08-10T17:17:16Z</time>
      </trkpt>
      <trkpt lat="44.5014" lon="1.22223">
        <ele>101.3</ele>
        <time>2022-08-10T17:17:18Z</time>
      </trkpt>
      <trkpt lat="44.50136" lon="1.22228">
        <ele>100.7</ele>
        <time>2022-08-10T17:17:20Z</time>
      </trkpt>
      <trkpt lat="44.50132" lon="1.22232">
        <ele>100.2</ele>
        <time>2022-08-10T17:17:22Z</time>
      </trkpt>
      <trkpt lat="44.50128" lon="1.22236">
        <ele>99.8</ele>
        <time>2022-08-10T17:17:24Z</time>
      </trkpt>
      <trkpt lat="44.50126" lon="1.2224">
        <ele>99.5</ele>
        <time>2022-08-10T17:17:26Z</time>
      </trkpt>
      <trkpt lat="44.50125" lon="1.22242">
        <ele>99.3</ele>
        <time>2022-08-10T17:17:28Z</time>
      </trkpt>
      <trkpt lat="44.50126" lon="1.22241">
        <ele>99.4</ele>
        <time>2022-08-10T17:17:30Z</time>
      </trkpt>
      <trkpt lat="44.50125" lon="1.22242">
        <ele>99.4</ele>
        <time>2022-08-10T17:17:32Z</time>
      </trkpt>
      <trkpt lat="44.50125" lon="1.22242">
        <ele>99.4</ele>
        <time>2022-08-10T17:17:34Z</time>
      </trkpt>
      <trkpt lat="44.50125" lon="1.22243">
        <ele>99.3</ele>
        <time>2022-08-10T17:17:36Z</time>
      </trkpt>
      <trkpt lat="44.50124" lon="1.22243">
        <ele>99.2</ele>
        <time>2022-08-10T17:17:38Z</time>
      </trkpt>
      <trkpt lat="44.50106" lon="1.22261">
        <ele>97.8</ele>
        <time>2022-08-10T17:17:48Z</time>
      </trkpt>
      <trkpt lat="44.50101" lon="1.22267">
        <ele>97.3</ele>
        <time>2022-08-10T17:17:50Z</time>
      </trkpt>
      <trkpt lat="44.50097" lon="1.22274">
        <ele>97</ele>
        <time>2022-08-10T17:17:52Z</time>
      </trkpt>
      <trkpt lat="44.50098" lon="1.22281">
        <ele>96.8</ele>
        <time>2022-08-10T17:17:54Z</time>
      </trkpt>
      <trkpt lat="44.50101" lon="1.22286">
        <ele>96.8</ele>
        <time>2022-08-10T17:17:56Z</time>
      </trkpt>
      <trkpt lat="44.50103" lon="1.22289">
        <ele>96.8</ele>
        <time>2022-08-10T17:17:58Z</time>
      </trkpt>
      <trkpt lat="44.50104" lon="1.22293">
        <ele>96.7</ele>
        <time>2022-08-10T17:18:00Z</time>
      </trkpt>
      <trkpt lat="44.50106" lon="1.22297">
        <ele>96.7</ele>
        <time>2022-08-10T17:18:02Z</time>
      </trkpt>
      <trkpt lat="44.50108" lon="1.223">
        <ele>96.6</ele>
        <time>2022-08-10T17:18:04Z</time>
      </trkpt>
      <trkpt lat="44.5011" lon="1.22302">
        <ele>96.6</ele>
        <time>2022-08-10T17:18:06Z</time>
      </trkpt>
      <trkpt lat="44.50113" lon="1.22303">
        <ele>96.7</ele>
        <time>2022-08-10T17:18:08Z</time>
      </trkpt>
      <trkpt lat="44.50114" lon="1.22306">
        <ele>96.6</ele>
        <time>2022-08-10T17:18:10Z</time>
      </trkpt>
      <trkpt lat="44.50113" lon="1.2231">
        <ele>96.5</ele>
        <time>2022-08-10T17:18:12Z</time>
      </trkpt>
      <trkpt lat="44.5011" lon="1.22314">
        <ele>96.3</ele>
        <time>2022-08-10T17:18:14Z</time>
      </trkpt>
      <trkpt lat="44.50106" lon="1.22318">
        <ele>96</ele>
        <time>2022-08-10T17:18:16Z</time>
      </trkpt>
      <trkpt lat="44.50103" lon="1.22319">
        <ele>95.9</ele>
        <time>2022-08-10T17:18:18Z</time>
      </trkpt>
      <trkpt lat="44.50099" lon="1.22323">
        <ele>95.7</ele>
        <time>2022-08-10T17:18:20Z</time>
      </trkpt>
      <trkpt lat="44.50097" lon="1.22324">
        <ele>95.6</ele>
        <time>2022-08-10T17:18:22Z</time>
      </trkpt>
      <trkpt lat="44.50094" lon="1.2233">
        <ele>95.3</ele>
        <time>2022-08-10T17:18:24Z</time>
      </trkpt>
      <trkpt lat="44.50091" lon="1.22333">
        <ele>95.2</ele>
        <time>2022-08-10T17:18:26Z</time>
      </trkpt>
      <trkpt lat="44.50087" lon="1.22335">
        <ele>95.1</ele>
        <time>2022-08-10T17:18:28Z</time>
      </trkpt>
      <trkpt lat="44.50084" lon="1.22331">
        <ele>95.1</ele>
        <time>2022-08-10T17:18:30Z</time>
      </trkpt>
      <trkpt lat="44.50081" lon="1.22326">
        <ele>95.2</ele>
        <time>2022-08-10T17:18:32Z</time>
      </trkpt>
      <trkpt lat="44.50076" lon="1.22324">
        <ele>95.2</ele>
        <time>2022-08-10T17:18:34Z</time>
      </trkpt>
      <trkpt lat="44.50074" lon="1.22326">
        <ele>95.1</ele>
        <time>2022-08-10T17:18:36Z</time>
      </trkpt>
      <trkpt lat="44.50075" lon="1.22326">
        <ele>95.1</ele>
        <time>2022-08-10T17:18:38Z</time>
      </trkpt>
      <trkpt lat="44.50076" lon="1.22325">
        <ele>95.2</ele>
        <time>2022-08-10T17:18:42Z</time>
      </trkpt>
      <trkpt lat="44.50076" lon="1.22325">
        <ele>95.2</ele>
        <time>2022-08-10T17:18:44Z</time>
      </trkpt>
      <trkpt lat="44.50077" lon="1.22326">
        <ele>95.2</ele>
        <time>2022-08-10T17:18:46Z</time>
      </trkpt>
      <trkpt lat="44.50079" lon="1.22326">
        <ele>95.2</ele>
        <time>2022-08-10T17:18:48Z</time>
      </trkpt>
      <trkpt lat="44.5008" lon="1.22326">
        <ele>95.2</ele>
        <time>2022-08-10T17:18:50Z</time>
      </trkpt>
      <trkpt lat="44.50084" lon="1.22327">
        <ele>95.2</ele>
        <time>2022-08-10T17:18:52Z</time>
      </trkpt>
      <trkpt lat="44.50091" lon="1.22332">
        <ele>95.2</ele>
        <time>2022-08-10T17:18:54Z</time>
      </trkpt>
      <trkpt lat="44.50096" lon="1.22332">
        <ele>95.3</ele>
        <time>2022-08-10T17:18:56Z</time>
      </trkpt>
      <trkpt lat="44.50099" lon="1.22326">
        <ele>95.6</ele>
        <time>2022-08-10T17:18:58Z</time>
      </trkpt>
      <trkpt lat="44.50102" lon="1.22322">
        <ele>95.8</ele>
        <time>2022-08-10T17:19:00Z</time>
      </trkpt>
      <trkpt lat="44.50105" lon="1.22322">
        <ele>95.9</ele>
        <time>2022-08-10T17:19:02Z</time>
      </trkpt>
      <trkpt lat="44.50104" lon="1.22322">
        <ele>95.8</ele>
        <time>2022-08-10T17:19:04Z</time>
      </trkpt>
      <trkpt lat="44.50104" lon="1.22322">
        <ele>95.8</ele>
        <time>2022-08-10T17:19:06Z</time>
      </trkpt>
      <trkpt lat="44.50104" lon="1.22322">
        <ele>95.9</ele>
        <time>2022-08-10T17:19:08Z</time>
      </trkpt>
      <trkpt lat="44.50105" lon="1.22321">
        <ele>95.9</ele>
        <time>2022-08-10T17:19:10Z</time>
      </trkpt>
      <trkpt lat="44.50108" lon="1.22301">
        <ele>96.6</ele>
        <time>2022-08-10T17:26:08Z</time>
      </trkpt>
      <trkpt lat="44.50106" lon="1.22293">
        <ele>96.8</ele>
        <time>2022-08-10T17:26:10Z</time>
      </trkpt>
      <trkpt lat="44.50102" lon="1.22287">
        <ele>96.8</ele>
        <time>2022-08-10T17:26:12Z</time>
      </trkpt>
      <trkpt lat="44.50099" lon="1.22284">
        <ele>96.8</ele>
        <time>2022-08-10T17:26:14Z</time>
      </trkpt>
      <trkpt lat="44.50098" lon="1.22276">
        <ele>97</ele>
        <time>2022-08-10T17:26:16Z</time>
      </trkpt>
      <trkpt lat="44.50098" lon="1.22274">
        <ele>97</ele>
        <time>2022-08-10T17:26:18Z</time>
      </trkpt>
      <trkpt lat="44.50095" lon="1.22271">
        <ele>97</ele>
        <time>2022-08-10T17:26:20Z</time>
      </trkpt>
      <trkpt lat="44.501" lon="1.22265">
        <ele>97.4</ele>
        <time>2022-08-10T17:26:22Z</time>
      </trkpt>
      <trkpt lat="44.50105" lon="1.22259">
        <ele>97.8</ele>
        <time>2022-08-10T17:26:24Z</time>
      </trkpt>
      <trkpt lat="44.50109" lon="1.22254">
        <ele>98.1</ele>
        <time>2022-08-10T17:26:26Z</time>
      </trkpt>
      <trkpt lat="44.50114" lon="1.22249">
        <ele>98.5</ele>
        <time>2022-08-10T17:26:28Z</time>
      </trkpt>
      <trkpt lat="44.50118" lon="1.22245">
        <ele>98.9</ele>
        <time>2022-08-10T17:26:30Z</time>
      </trkpt>
      <trkpt lat="44.50122" lon="1.2224">
        <ele>99.3</ele>
        <time>2022-08-10T17:26:32Z</time>
      </trkpt>
      <trkpt lat="44.50127" lon="1.22235">
        <ele>99.8</ele>
        <time>2022-08-10T17:26:34Z</time>
      </trkpt>
      <trkpt lat="44.50131" lon="1.2223">
        <ele>100.2</ele>
        <time>2022-08-10T17:26:36Z</time>
      </trkpt>
      <trkpt lat="44.50134" lon="1.22228">
        <ele>100.6</ele>
        <time>2022-08-10T17:26:38Z</time>
      </trkpt>
      <trkpt lat="44.50137" lon="1.22224">
        <ele>101</ele>
        <time>2022-08-10T17:26:40Z</time>
      </trkpt>
      <trkpt lat="44.50141" lon="1.2222">
        <ele>101.5</ele>
        <time>2022-08-10T17:26:42Z</time>
      </trkpt>
      <trkpt lat="44.50145" lon="1.2222">
        <ele>101.8</ele>
        <time>2022-08-10T17:26:44Z</time>
      </trkpt>
      <trkpt lat="44.50148" lon="1.22218">
        <ele>102.3</ele>
        <time>2022-08-10T17:26:46Z</time>
      </trkpt>
      <trkpt lat="44.5015" lon="1.22215">
        <ele>102.5</ele>
        <time>2022-08-10T17:26:48Z</time>
      </trkpt>
      <trkpt lat="44.5015" lon="1.22216">
        <ele>102.5</ele>
        <time>2022-08-10T17:26:50Z</time>
      </trkpt>
      <trkpt lat="44.5015" lon="1.22215">
        <ele>102.5</ele>
        <time>2022-08-10T17:26:52Z</time>
      </trkpt>
      <trkpt lat="44.5015" lon="1.22215">
        <ele>102.5</ele>
        <time>2022-08-10T17:26:54Z</time>
      </trkpt>
      <trkpt lat="44.5015" lon="1.22215">
        <ele>102.5</ele>
        <time>2022-08-10T17:26:56Z</time>
      </trkpt>
      <trkpt lat="44.50139" lon="1.22186">
        <ele>103.3</ele>
        <time>2022-08-10T17:27:12Z</time>
      </trkpt>
      <trkpt lat="44.50135" lon="1.22179">
        <ele>103.2</ele>
        <time>2022-08-10T17:27:14Z</time>
      </trkpt>
      <trkpt lat="44.50132" lon="1.22172">
        <ele>103.1</ele>
        <time>2022-08-10T17:27:16Z</time>
      </trkpt>
      <trkpt lat="44.50129" lon="1.22164">
        <ele>103.2</ele>
        <time>2022-08-10T17:27:18Z</time>
      </trkpt>
      <trkpt lat="44.50128" lon="1.22157">
        <ele>103.4</ele>
        <time>2022-08-10T17:27:20Z</time>
      </trkpt>
      <trkpt lat="44.50125" lon="1.22151">
        <ele>103.2</ele>
        <time>2022-08-10T17:27:22Z</time>
      </trkpt>
      <trkpt lat="44.50121" lon="1.22147">
        <ele>102.9</ele>
        <time>2022-08-10T17:27:24Z</time>
      </trkpt>
      <trkpt lat="44.50116" lon="1.22142">
        <ele>102.3</ele>
        <time>2022-08-10T17:27:26Z</time>
      </trkpt>
      <trkpt lat="44.50111" lon="1.22132">
        <ele>101.8</ele>
        <time>2022-08-10T17:27:28Z</time>
      </trkpt>
      <trkpt lat="44.50104" lon="1.22122">
        <ele>100.8</ele>
        <time>2022-08-10T17:27:30Z</time>
      </trkpt>
      <trkpt lat="44.50099" lon="1.22111">
        <ele>100</ele>
        <time>2022-08-10T17:27:32Z</time>
      </trkpt>
      <trkpt lat="44.50093" lon="1.221">
        <ele>99</ele>
        <time>2022-08-10T17:27:34Z</time>
      </trkpt>
      <trkpt lat="44.50087" lon="1.2209">
        <ele>97.7</ele>
        <time>2022-08-10T17:27:36Z</time>
      </trkpt>
      <trkpt lat="44.5008" lon="1.22082">
        <ele>96.9</ele>
        <time>2022-08-10T17:27:38Z</time>
      </trkpt>
      <trkpt lat="44.50073" lon="1.22075">
        <ele>96.7</ele>
        <time>2022-08-10T17:27:40Z</time>
      </trkpt>
      <trkpt lat="44.50067" lon="1.2207">
        <ele>96.4</ele>
        <time>2022-08-10T17:27:42Z</time>
      </trkpt>
      <trkpt lat="44.50061" lon="1.22066">
        <ele>96.2</ele>
        <time>2022-08-10T17:27:44Z</time>
      </trkpt>
      <trkpt lat="44.50057" lon="1.22062">
        <ele>96</ele>
        <time>2022-08-10T17:27:46Z</time>
      </trkpt>
      <trkpt lat="44.50052" lon="1.22059">
        <ele>95.9</ele>
        <time>2022-08-10T17:27:48Z</time>
      </trkpt>
      <trkpt lat="44.50049" lon="1.22058">
        <ele>95.8</ele>
        <time>2022-08-10T17:27:50Z</time>
      </trkpt>
      <trkpt lat="44.50047" lon="1.22061">
        <ele>95.7</ele>
        <time>2022-08-10T17:27:52Z</time>
      </trkpt>
      <trkpt lat="44.50046" lon="1.22063">
        <ele>95.7</ele>
        <time>2022-08-10T17:27:54Z</time>
      </trkpt>
      <trkpt lat="44.50047" lon="1.22065">
        <ele>95.8</ele>
        <time>2022-08-10T17:27:56Z</time>
      </trkpt>
      <trkpt lat="44.50047" lon="1.22065">
        <ele>95.8</ele>
        <time>2022-08-10T17:27:58Z</time>
      </trkpt>
      <trkpt lat="44.50045" lon="1.2207">
        <ele>95.9</ele>
        <time>2022-08-10T17:28:00Z</time>
      </trkpt>
      <trkpt lat="44.50044" lon="1.22073">
        <ele>95.9</ele>
        <time>2022-08-10T17:28:02Z</time>
      </trkpt>
      <trkpt lat="44.50041" lon="1.22078">
        <ele>95.9</ele>
        <time>2022-08-10T17:28:04Z</time>
      </trkpt>
      <trkpt lat="44.50039" lon="1.22084">
        <ele>95.9</ele>
        <time>2022-08-10T17:28:06Z</time>
      </trkpt>
      <trkpt lat="44.50036" lon="1.2209">
        <ele>95.9</ele>
        <time>2022-08-10T17:28:08Z</time>
      </trkpt>
      <trkpt lat="44.50034" lon="1.22097">
        <ele>95.8</ele>
        <time>2022-08-10T17:28:10Z</time>
      </trkpt>
      <trkpt lat="44.50031" lon="1.22103">
        <ele>95.7</ele>
        <time>2022-08-10T17:28:12Z</time>
      </trkpt>
      <trkpt lat="44.50028" lon="1.22112">
        <ele>95.7</ele>
        <time>2022-08-10T17:28:14Z</time>
      </trkpt>
      <trkpt lat="44.50025" lon="1.22118">
        <ele>95.6</ele>
        <time>2022-08-10T17:28:16Z</time>
      </trkpt>
      <trkpt lat="44.5002" lon="1.22124">
        <ele>95.5</ele>
        <time>2022-08-10T17:28:18Z</time>
      </trkpt>
      <trkpt lat="44.50016" lon="1.22131">
        <ele>95.4</ele>
        <time>2022-08-10T17:28:20Z</time>
      </trkpt>
      <trkpt lat="44.50014" lon="1.22139">
        <ele>95.3</ele>
        <time>2022-08-10T17:28:22Z</time>
      </trkpt>
      <trkpt lat="44.5001" lon="1.22147">
        <ele>95.2</ele>
        <time>2022-08-10T17:28:24Z</time>
      </trkpt>
      <trkpt lat="44.50006" lon="1.22155">
        <ele>95.1</ele>
        <time>2022-08-10T17:28:26Z</time>
      </trkpt>
      <trkpt lat="44.50002" lon="1.22164">
        <ele>95</ele>
        <time>2022-08-10T17:28:28Z</time>
      </trkpt>
      <trkpt lat="44.49998" lon="1.22172">
        <ele>94.9</ele>
        <time>2022-08-10T17:28:30Z</time>
      </trkpt>
      <trkpt lat="44.49994" lon="1.22182">
        <ele>94.6</ele>
        <time>2022-08-10T17:28:32Z</time>
      </trkpt>
      <trkpt lat="44.4999" lon="1.22189">
        <ele>94.4</ele>
        <time>2022-08-10T17:28:34Z</time>
      </trkpt>
      <trkpt lat="44.49986" lon="1.22197">
        <ele>94.3</ele>
        <time>2022-08-10T17:28:36Z</time>
      </trkpt>
      <trkpt lat="44.49982" lon="1.22207">
        <ele>94.1</ele>
        <time>2022-08-10T17:28:38Z</time>
      </trkpt>
      <trkpt lat="44.49978" lon="1.22215">
        <ele>93.9</ele>
        <time>2022-08-10T17:28:40Z</time>
      </trkpt>
      <trkpt lat="44.49974" lon="1.22222">
        <ele>93.8</ele>
        <time>2022-08-10T17:28:42Z</time>
      </trkpt>
      <trkpt lat="44.49969" lon="1.22231">
        <ele>93.7</ele>
        <time>2022-08-10T17:28:44Z</time>
      </trkpt>
      <trkpt lat="44.49964" lon="1.22238">
        <ele>93.6</ele>
        <time>2022-08-10T17:28:46Z</time>
      </trkpt>
      <trkpt lat="44.4996" lon="1.22245">
        <ele>93.5</ele>
        <time>2022-08-10T17:28:48Z</time>
      </trkpt>
      <trkpt lat="44.49955" lon="1.2225">
        <ele>93.5</ele>
        <time>2022-08-10T17:28:50Z</time>
      </trkpt>
      <trkpt lat="44.49953" lon="1.22255">
        <ele>93.7</ele>
        <time>2022-08-10T17:28:52Z</time>
      </trkpt>
      <trkpt lat="44.49954" lon="1.22257">
        <ele>93.8</ele>
        <time>2022-08-10T17:28:54Z</time>
      </trkpt>
      <trkpt lat="44.49953" lon="1.22259">
        <ele>93.9</ele>
        <time>2022-08-10T17:28:56Z</time>
      </trkpt>
      <trkpt lat="44.49949" lon="1.22262">
        <ele>94.1</ele>
        <time>2022-08-10T17:28:58Z</time>
      </trkpt>
      <trkpt lat="44.49943" lon="1.22266">
        <ele>94.3</ele>
        <time>2022-08-10T17:29:00Z</time>
      </trkpt>
      <trkpt lat="44.49939" lon="1.22272">
        <ele>94.7</ele>
        <time>2022-08-10T17:29:02Z</time>
      </trkpt>
      <trkpt lat="44.49936" lon="1.22277">
        <ele>95.1</ele>
        <time>2022-08-10T17:29:04Z</time>
      </trkpt>
      <trkpt lat="44.49934" lon="1.22282">
        <ele>95.4</ele>
        <time>2022-08-10T17:29:06Z</time>
      </trkpt>
      <trkpt lat="44.4993" lon="1.22287">
        <ele>95.9</ele>
        <time>2022-08-10T17:29:08Z</time>
      </trkpt>
      <trkpt lat="44.49927" lon="1.22292">
        <ele>96.2</ele>
        <time>2022-08-10T17:29:10Z</time>
      </trkpt>
      <trkpt lat="44.49925" lon="1.22295">
        <ele>96.5</ele>
        <time>2022-08-10T17:29:12Z</time>
      </trkpt>
      <trkpt lat="44.49923" lon="1.22296">
        <ele>96.7</ele>
        <time>2022-08-10T17:29:14Z</time>
      </trkpt>
      <trkpt lat="44.4992" lon="1.22298">
        <ele>96.9</ele>
        <time>2022-08-10T17:29:16Z</time>
      </trkpt>
      <trkpt lat="44.4992" lon="1.22301">
        <ele>97.2</ele>
        <time>2022-08-10T17:29:18Z</time>
      </trkpt>
      <trkpt lat="44.4992" lon="1.22305">
        <ele>97.5</ele>
        <time>2022-08-10T17:29:20Z</time>
      </trkpt>
      <trkpt lat="44.49918" lon="1.22313">
        <ele>98.2</ele>
        <time>2022-08-10T17:29:22Z</time>
      </trkpt>
      <trkpt lat="44.49911" lon="1.22319">
        <ele>98.3</ele>
        <time>2022-08-10T17:29:24Z</time>
      </trkpt>
      <trkpt lat="44.49906" lon="1.22325">
        <ele>98.4</ele>
        <time>2022-08-10T17:29:26Z</time>
      </trkpt>
      <trkpt lat="44.49901" lon="1.22333">
        <ele>98.5</ele>
        <time>2022-08-10T17:29:28Z</time>
      </trkpt>
      <trkpt lat="44.49896" lon="1.2234">
        <ele>99.7</ele>
        <time>2022-08-10T17:29:30Z</time>
      </trkpt>
      <trkpt lat="44.49891" lon="1.22347">
        <ele>101</ele>
        <time>2022-08-10T17:29:32Z</time>
      </trkpt>
      <trkpt lat="44.49886" lon="1.22355">
        <ele>102.2</ele>
        <time>2022-08-10T17:29:34Z</time>
      </trkpt>
      <trkpt lat="44.4988" lon="1.22362">
        <ele>103</ele>
        <time>2022-08-10T17:29:36Z</time>
      </trkpt>
      <trkpt lat="44.49873" lon="1.22371">
        <ele>103.8</ele>
        <time>2022-08-10T17:29:38Z</time>
      </trkpt>
      <trkpt lat="44.49867" lon="1.22378">
        <ele>104.2</ele>
        <time>2022-08-10T17:29:40Z</time>
      </trkpt>
      <trkpt lat="44.49862" lon="1.22385">
        <ele>104.6</ele>
        <time>2022-08-10T17:29:42Z</time>
      </trkpt>
      <trkpt lat="44.49857" lon="1.22393">
        <ele>104.9</ele>
        <time>2022-08-10T17:29:44Z</time>
      </trkpt>
      <trkpt lat="44.49851" lon="1.22399">
        <ele>104.8</ele>
        <time>2022-08-10T17:29:46Z</time>
      </trkpt>
      <trkpt lat="44.49846" lon="1.22406">
        <ele>104.6</ele>
        <time>2022-08-10T17:29:48Z</time>
      </trkpt>
      <trkpt lat="44.4984" lon="1.22414">
        <ele>104.3</ele>
        <time>2022-08-10T17:29:50Z</time>
      </trkpt>
      <trkpt lat="44.49834" lon="1.22419">
        <ele>104</ele>
        <time>2022-08-10T17:29:52Z</time>
      </trkpt>
      <trkpt lat="44.49828" lon="1.22425">
        <ele>105</ele>
        <time>2022-08-10T17:29:54Z</time>
      </trkpt>
      <trkpt lat="44.49822" lon="1.22432">
        <ele>106.1</ele>
        <time>2022-08-10T17:29:56Z</time>
      </trkpt>
      <trkpt lat="44.49816" lon="1.22438">
        <ele>107</ele>
        <time>2022-08-10T17:29:58Z</time>
      </trkpt>
      <trkpt lat="44.49809" lon="1.22444">
        <ele>107.4</ele>
        <time>2022-08-10T17:30:00Z</time>
      </trkpt>
      <trkpt lat="44.49802" lon="1.2245">
        <ele>107.6</ele>
        <time>2022-08-10T17:30:02Z</time>
      </trkpt>
      <trkpt lat="44.49791" lon="1.22456">
        <ele>106.9</ele>
        <time>2022-08-10T17:30:04Z</time>
      </trkpt>
      <trkpt lat="44.49778" lon="1.22462">
        <ele>105.2</ele>
        <time>2022-08-10T17:30:06Z</time>
      </trkpt>
      <trkpt lat="44.49765" lon="1.22475">
        <ele>104.8</ele>
        <time>2022-08-10T17:30:08Z</time>
      </trkpt>
      <trkpt lat="44.49754" lon="1.22486">
        <ele>103.8</ele>
        <time>2022-08-10T17:30:10Z</time>
      </trkpt>
      <trkpt lat="44.49777" lon="1.22473">
        <ele>107.4</ele>
        <time>2022-08-10T17:30:12Z</time>
      </trkpt>
      <trkpt lat="44.49771" lon="1.22479">
        <ele>107</ele>
        <time>2022-08-10T17:30:14Z</time>
      </trkpt>
      <trkpt lat="44.49765" lon="1.22485">
        <ele>106.7</ele>
        <time>2022-08-10T17:30:16Z</time>
      </trkpt>
      <trkpt lat="44.49758" lon="1.22491">
        <ele>106.1</ele>
        <time>2022-08-10T17:30:18Z</time>
      </trkpt>
      <trkpt lat="44.49753" lon="1.22497">
        <ele>105.4</ele>
        <time>2022-08-10T17:30:20Z</time>
      </trkpt>
      <trkpt lat="44.49748" lon="1.22503">
        <ele>105.4</ele>
        <time>2022-08-10T17:30:22Z</time>
      </trkpt>
      <trkpt lat="44.49743" lon="1.22508">
        <ele>106.2</ele>
        <time>2022-08-10T17:30:24Z</time>
      </trkpt>
      <trkpt lat="44.49738" lon="1.22514">
        <ele>107</ele>
        <time>2022-08-10T17:30:26Z</time>
      </trkpt>
      <trkpt lat="44.49732" lon="1.2252">
        <ele>107.5</ele>
        <time>2022-08-10T17:30:28Z</time>
      </trkpt>
      <trkpt lat="44.49727" lon="1.22526">
        <ele>108</ele>
        <time>2022-08-10T17:30:30Z</time>
      </trkpt>
      <trkpt lat="44.4972" lon="1.22533">
        <ele>108.3</ele>
        <time>2022-08-10T17:30:32Z</time>
      </trkpt>
      <trkpt lat="44.49714" lon="1.2254">
        <ele>108.6</ele>
        <time>2022-08-10T17:30:34Z</time>
      </trkpt>
      <trkpt lat="44.49708" lon="1.22545">
        <ele>108.4</ele>
        <time>2022-08-10T17:30:36Z</time>
      </trkpt>
      <trkpt lat="44.49702" lon="1.22551">
        <ele>108.2</ele>
        <time>2022-08-10T17:30:38Z</time>
      </trkpt>
      <trkpt lat="44.49695" lon="1.22557">
        <ele>107.7</ele>
        <time>2022-08-10T17:30:40Z</time>
      </trkpt>
      <trkpt lat="44.4969" lon="1.22563">
        <ele>107.5</ele>
        <time>2022-08-10T17:30:42Z</time>
      </trkpt>
      <trkpt lat="44.49685" lon="1.22568">
        <ele>107</ele>
        <time>2022-08-10T17:30:44Z</time>
      </trkpt>
      <trkpt lat="44.4968" lon="1.22573">
        <ele>106.4</ele>
        <time>2022-08-10T17:30:46Z</time>
      </trkpt>
      <trkpt lat="44.49675" lon="1.22578">
        <ele>105.8</ele>
        <time>2022-08-10T17:30:48Z</time>
      </trkpt>
      <trkpt lat="44.49671" lon="1.22583">
        <ele>105.3</ele>
        <time>2022-08-10T17:30:50Z</time>
      </trkpt>
      <trkpt lat="44.49669" lon="1.22582">
        <ele>104.5</ele>
        <time>2022-08-10T17:30:52Z</time>
      </trkpt>
      <trkpt lat="44.49669" lon="1.2258">
        <ele>104.3</ele>
        <time>2022-08-10T17:30:54Z</time>
      </trkpt>
      <trkpt lat="44.49669" lon="1.2258">
        <ele>104.3</ele>
        <time>2022-08-10T17:30:56Z</time>
      </trkpt>
      <trkpt lat="44.49669" lon="1.2258">
        <ele>104.3</ele>
        <time>2022-08-10T17:31:00Z</time>
      </trkpt>
      <trkpt lat="44.49669" lon="1.2258">
        <ele>104.2</ele>
        <time>2022-08-10T17:31:02Z</time>
      </trkpt>
      <trkpt lat="44.49653" lon="1.22602">
        <ele>107.8</ele>
        <time>2022-08-10T17:32:12Z</time>
      </trkpt>
      <trkpt lat="44.49648" lon="1.22607">
        <ele>108</ele>
        <time>2022-08-10T17:32:14Z</time>
      </trkpt>
      <trkpt lat="44.49643" lon="1.22612">
        <ele>108.5</ele>
        <time>2022-08-10T17:32:16Z</time>
      </trkpt>
      <trkpt lat="44.49639" lon="1.22618">
        <ele>109</ele>
        <time>2022-08-10T17:32:18Z</time>
      </trkpt>
      <trkpt lat="44.49633" lon="1.22624">
        <ele>109.1</ele>
        <time>2022-08-10T17:32:20Z</time>
      </trkpt>
      <trkpt lat="44.49629" lon="1.2263">
        <ele>109.5</ele>
        <time>2022-08-10T17:32:22Z</time>
      </trkpt>
      <trkpt lat="44.49625" lon="1.22634">
        <ele>109.4</ele>
        <time>2022-08-10T17:32:24Z</time>
      </trkpt>
      <trkpt lat="44.49622" lon="1.22637">
        <ele>109.2</ele>
        <time>2022-08-10T17:32:26Z</time>
      </trkpt>
      <trkpt lat="44.4962" lon="1.22638">
        <ele>109</ele>
        <time>2022-08-10T17:32:28Z</time>
      </trkpt>
      <trkpt lat="44.4962" lon="1.22637">
        <ele>108.8</ele>
        <time>2022-08-10T17:32:30Z</time>
      </trkpt>
      <trkpt lat="44.49618" lon="1.2264">
        <ele>108.7</ele>
        <time>2022-08-10T17:32:32Z</time>
      </trkpt>
      <trkpt lat="44.49615" lon="1.2264">
        <ele>108.1</ele>
        <time>2022-08-10T17:32:34Z</time>
      </trkpt>
      <trkpt lat="44.49613" lon="1.2264">
        <ele>107.5</ele>
        <time>2022-08-10T17:32:36Z</time>
      </trkpt>
      <trkpt lat="44.49613" lon="1.2264">
        <ele>107.5</ele>
        <time>2022-08-10T17:32:38Z</time>
      </trkpt>
      <trkpt lat="44.49613" lon="1.2264">
        <ele>107.4</ele>
        <time>2022-08-10T17:32:40Z</time>
      </trkpt>
      <trkpt lat="44.49613" lon="1.2264">
        <ele>107.3</ele>
        <time>2022-08-10T17:32:42Z</time>
      </trkpt>
      <trkpt lat="44.49612" lon="1.2264">
        <ele>107.2</ele>
        <time>2022-08-10T17:32:44Z</time>
      </trkpt>
      <trkpt lat="44.49612" lon="1.22639">
        <ele>106.9</ele>
        <time>2022-08-10T17:32:48Z</time>
      </trkpt>
      <trkpt lat="44.49611" lon="1.2264">
        <ele>106.7</ele>
        <time>2022-08-10T17:32:50Z</time>
      </trkpt>
      <trkpt lat="44.4961" lon="1.22639">
        <ele>106.5</ele>
        <time>2022-08-10T17:32:52Z</time>
      </trkpt>
      <trkpt lat="44.4961" lon="1.22639">
        <ele>106.5</ele>
        <time>2022-08-10T17:32:54Z</time>
      </trkpt>
      <trkpt lat="44.4961" lon="1.22639">
        <ele>106.3</ele>
        <time>2022-08-10T17:32:56Z</time>
      </trkpt>
      <trkpt lat="44.4961" lon="1.22639">
        <ele>106.3</ele>
        <time>2022-08-10T17:32:58Z</time>
      </trkpt>
      <trkpt lat="44.49609" lon="1.22639">
        <ele>106.1</ele>
        <time>2022-08-10T17:33:00Z</time>
      </trkpt>
      <trkpt lat="44.49609" lon="1.22638">
        <ele>105.9</ele>
        <time>2022-08-10T17:33:02Z</time>
      </trkpt>
      <trkpt lat="44.49608" lon="1.22637">
        <ele>105.5</ele>
        <time>2022-08-10T17:33:04Z</time>
      </trkpt>
      <trkpt lat="44.49608" lon="1.22636">
        <ele>105.3</ele>
        <time>2022-08-10T17:33:06Z</time>
      </trkpt>
      <trkpt lat="44.49608" lon="1.22636">
        <ele>105.2</ele>
        <time>2022-08-10T17:33:08Z</time>
      </trkpt>
      <trkpt lat="44.49607" lon="1.22635">
        <ele>104.9</ele>
        <time>2022-08-10T17:33:10Z</time>
      </trkpt>
      <trkpt lat="44.49607" lon="1.22634">
        <ele>104.7</ele>
        <time>2022-08-10T17:33:12Z</time>
      </trkpt>
      <trkpt lat="44.49606" lon="1.22634">
        <ele>104.6</ele>
        <time>2022-08-10T17:33:14Z</time>
      </trkpt>
      <trkpt lat="44.49606" lon="1.22634">
        <ele>104.4</ele>
        <time>2022-08-10T17:33:16Z</time>
      </trkpt>
      <trkpt lat="44.49605" lon="1.22632">
        <ele>103.7</ele>
        <time>2022-08-10T17:33:18Z</time>
      </trkpt>
      <trkpt lat="44.49604" lon="1.2263">
        <ele>103.3</ele>
        <time>2022-08-10T17:33:20Z</time>
      </trkpt>
      <trkpt lat="44.49602" lon="1.2263">
        <ele>102.8</ele>
        <time>2022-08-10T17:33:22Z</time>
      </trkpt>
      <trkpt lat="44.49601" lon="1.2263">
        <ele>102.5</ele>
        <time>2022-08-10T17:33:24Z</time>
      </trkpt>
      <trkpt lat="44.496" lon="1.22632">
        <ele>102.5</ele>
        <time>2022-08-10T17:33:26Z</time>
      </trkpt>
      <trkpt lat="44.496" lon="1.22633">
        <ele>102.7</ele>
        <time>2022-08-10T17:33:28Z</time>
      </trkpt>
      <trkpt lat="44.496" lon="1.22632">
        <ele>102.7</ele>
        <time>2022-08-10T17:33:30Z</time>
      </trkpt>
      <trkpt lat="44.496" lon="1.22632">
        <ele>102.7</ele>
        <time>2022-08-10T17:33:32Z</time>
      </trkpt>
      <trkpt lat="44.496" lon="1.22632">
        <ele>102.7</ele>
        <time>2022-08-10T17:33:34Z</time>
      </trkpt>
      <trkpt lat="44.496" lon="1.22632">
        <ele>102.6</ele>
        <time>2022-08-10T17:33:36Z</time>
      </trkpt>
      <trkpt lat="44.496" lon="1.22632">
        <ele>102.6</ele>
        <time>2022-08-10T17:33:38Z</time>
      </trkpt>
      <trkpt lat="44.496" lon="1.22632">
        <ele>102.5</ele>
        <time>2022-08-10T17:33:40Z</time>
      </trkpt>
      <trkpt lat="44.496" lon="1.22632">
        <ele>102.6</ele>
        <time>2022-08-10T17:33:42Z</time>
      </trkpt>
      <trkpt lat="44.49599" lon="1.22632">
        <ele>102.4</ele>
        <time>2022-08-10T17:33:44Z</time>
      </trkpt>
      <trkpt lat="44.49599" lon="1.22631">
        <ele>102.3</ele>
        <time>2022-08-10T17:33:46Z</time>
      </trkpt>
      <trkpt lat="44.49599" lon="1.22631">
        <ele>102.3</ele>
        <time>2022-08-10T17:33:50Z</time>
      </trkpt>
      <trkpt lat="44.49599" lon="1.22631">
        <ele>102.3</ele>
        <time>2022-08-10T17:33:54Z</time>
      </trkpt>
      <trkpt lat="44.49599" lon="1.22631">
        <ele>102.3</ele>
        <time>2022-08-10T17:33:58Z</time>
      </trkpt>
      <trkpt lat="44.49599" lon="1.22631">
        <ele>102.3</ele>
        <time>2022-08-10T17:34:02Z</time>
      </trkpt>
      <trkpt lat="44.49599" lon="1.22631">
        <ele>102.3</ele>
        <time>2022-08-10T17:34:06Z</time>
      </trkpt>
      <trkpt lat="44.49599" lon="1.22631">
        <ele>102.3</ele>
        <time>2022-08-10T17:34:10Z</time>
      </trkpt>
      <trkpt lat="44.49599" lon="1.22631">
        <ele>102.3</ele>
        <time>2022-08-10T17:34:14Z</time>
      </trkpt>
      <trkpt lat="44.49599" lon="1.22631">
        <ele>102.3</ele>
        <time>2022-08-10T17:34:18Z</time>
      </trkpt>
      <trkpt lat="44.49599" lon="1.22631">
        <ele>102.3</ele>
        <time>2022-08-10T17:34:22Z</time>
      </trkpt>
      <trkpt lat="44.49599" lon="1.22631">
        <ele>102.3</ele>
        <time>2022-08-10T17:34:26Z</time>
      </trkpt>
      <trkpt lat="44.49599" lon="1.22631">
        <ele>102.3</ele>
        <time>2022-08-10T17:34:30Z</time>
      </trkpt>
      <trkpt lat="44.49599" lon="1.22631">
        <ele>102.3</ele>
        <time>2022-08-10T17:34:34Z</time>
      </trkpt>
      <trkpt lat="44.49599" lon="1.22631">
        <ele>102.3</ele>
        <time>2022-08-10T17:34:38Z</time>
      </trkpt>
      <trkpt lat="44.49599" lon="1.22631">
        <ele>102.3</ele>
        <time>2022-08-10T17:34:42Z</time>
      </trkpt>
      <trkpt lat="44.49599" lon="1.22631">
        <ele>102.3</ele>
        <time>2022-08-10T17:34:46Z</time>
      </trkpt>
      <trkpt lat="44.49599" lon="1.22631">
        <ele>102.3</ele>
        <time>2022-08-10T17:34:50Z</time>
      </trkpt>
      <trkpt lat="44.49599" lon="1.22631">
        <ele>102.3</ele>
        <time>2022-08-10T17:34:54Z</time>
      </trkpt>
      <trkpt lat="44.49599" lon="1.22631">
        <ele>102.3</ele>
        <time>2022-08-10T17:34:58Z</time>
      </trkpt>
      <trkpt lat="44.49605" lon="1.22632">
        <ele>103.8</ele>
        <time>2022-08-10T17:35:02Z</time>
      </trkpt>
      <trkpt lat="44.49604" lon="1.22632">
        <ele>103.6</ele>
        <time>2022-08-10T17:35:04Z</time>
      </trkpt>
      <trkpt lat="44.49602" lon="1.22635">
        <ele>103.4</ele>
        <time>2022-08-10T17:35:06Z</time>
      </trkpt>
      <trkpt lat="44.496" lon="1.22637">
        <ele>103.3</ele>
        <time>2022-08-10T17:35:08Z</time>
      </trkpt>
      <trkpt lat="44.49598" lon="1.22639">
        <ele>103.1</ele>
        <time>2022-08-10T17:35:10Z</time>
      </trkpt>
      <trkpt lat="44.49596" lon="1.2264">
        <ele>102.6</ele>
        <time>2022-08-10T17:35:12Z</time>
      </trkpt>
      <trkpt lat="44.49594" lon="1.22642">
        <ele>102.2</ele>
        <time>2022-08-10T17:35:14Z</time>
      </trkpt>
      <trkpt lat="44.49592" lon="1.22644">
        <ele>102.1</ele>
        <time>2022-08-10T17:35:16Z</time>
      </trkpt>
      <trkpt lat="44.4959" lon="1.22647">
        <ele>101.9</ele>
        <time>2022-08-10T17:35:18Z</time>
      </trkpt>
      <trkpt lat="44.49589" lon="1.22648">
        <ele>101.6</ele>
        <time>2022-08-10T17:35:20Z</time>
      </trkpt>
      <trkpt lat="44.49587" lon="1.22649">
        <ele>101.4</ele>
        <time>2022-08-10T17:35:22Z</time>
      </trkpt>
      <trkpt lat="44.49585" lon="1.22652">
        <ele>101</ele>
        <time>2022-08-10T17:35:24Z</time>
      </trkpt>
      <trkpt lat="44.49583" lon="1.22654">
        <ele>100.7</ele>
        <time>2022-08-10T17:35:26Z</time>
      </trkpt>
      <trkpt lat="44.49581" lon="1.22657">
        <ele>100.8</ele>
        <time>2022-08-10T17:35:28Z</time>
      </trkpt>
      <trkpt lat="44.4958" lon="1.22659">
        <ele>101</ele>
        <time>2022-08-10T17:35:30Z</time>
      </trkpt>
      <trkpt lat="44.49578" lon="1.22662">
        <ele>101.1</ele>
        <time>2022-08-10T17:35:32Z</time>
      </trkpt>
      <trkpt lat="44.49578" lon="1.22664">
        <ele>101.3</ele>
        <time>2022-08-10T17:35:34Z</time>
      </trkpt>
      <trkpt lat="44.49577" lon="1.22665">
        <ele>101.4</ele>
        <time>2022-08-10T17:35:36Z</time>
      </trkpt>
      <trkpt lat="44.49576" lon="1.22667">
        <ele>101.6</ele>
        <time>2022-08-10T17:35:38Z</time>
      </trkpt>
      <trkpt lat="44.49573" lon="1.22669">
        <ele>101.9</ele>
        <time>2022-08-10T17:35:40Z</time>
      </trkpt>
      <trkpt lat="44.49572" lon="1.2267">
        <ele>102.1</ele>
        <time>2022-08-10T17:35:42Z</time>
      </trkpt>
      <trkpt lat="44.4957" lon="1.22672">
        <ele>102.5</ele>
        <time>2022-08-10T17:35:44Z</time>
      </trkpt>
      <trkpt lat="44.49569" lon="1.22674">
        <ele>102.9</ele>
        <time>2022-08-10T17:35:46Z</time>
      </trkpt>
      <trkpt lat="44.49567" lon="1.22678">
        <ele>103.5</ele>
        <time>2022-08-10T17:35:48Z</time>
      </trkpt>
      <trkpt lat="44.49566" lon="1.22679">
        <ele>103.6</ele>
        <time>2022-08-10T17:35:50Z</time>
      </trkpt>
      <trkpt lat="44.49564" lon="1.22679">
        <ele>103.6</ele>
        <time>2022-08-10T17:35:52Z</time>
      </trkpt>
      <trkpt lat="44.49562" lon="1.22681">
        <ele>103.7</ele>
        <time>2022-08-10T17:35:54Z</time>
      </trkpt>
      <trkpt lat="44.4956" lon="1.22683">
        <ele>104.1</ele>
        <time>2022-08-10T17:35:56Z</time>
      </trkpt>
      <trkpt lat="44.4956" lon="1.22684">
        <ele>104.2</ele>
        <time>2022-08-10T17:35:58Z</time>
      </trkpt>
      <trkpt lat="44.49559" lon="1.22686">
        <ele>104.6</ele>
        <time>2022-08-10T17:36:00Z</time>
      </trkpt>
      <trkpt lat="44.49557" lon="1.22687">
        <ele>104.4</ele>
        <time>2022-08-10T17:36:02Z</time>
      </trkpt>
      <trkpt lat="44.49555" lon="1.22689">
        <ele>104.5</ele>
        <time>2022-08-10T17:36:04Z</time>
      </trkpt>
      <trkpt lat="44.49553" lon="1.22689">
        <ele>104.4</ele>
        <time>2022-08-10T17:36:06Z</time>
      </trkpt>
      <trkpt lat="44.49552" lon="1.22691">
        <ele>104.5</ele>
        <time>2022-08-10T17:36:08Z</time>
      </trkpt>
      <trkpt lat="44.49551" lon="1.22692">
        <ele>104.7</ele>
        <time>2022-08-10T17:36:10Z</time>
      </trkpt>
      <trkpt lat="44.4955" lon="1.22694">
        <ele>105</ele>
        <time>2022-08-10T17:36:12Z</time>
      </trkpt>
      <trkpt lat="44.4955" lon="1.22694">
        <ele>105</ele>
        <time>2022-08-10T17:36:14Z</time>
      </trkpt>
      <trkpt lat="44.4955" lon="1.22694">
        <ele>105</ele>
        <time>2022-08-10T17:36:16Z</time>
      </trkpt>
      <trkpt lat="44.49549" lon="1.22694">
        <ele>104.8</ele>
        <time>2022-08-10T17:36:18Z</time>
      </trkpt>
      <trkpt lat="44.49547" lon="1.22696">
        <ele>104.9</ele>
        <time>2022-08-10T17:36:20Z</time>
      </trkpt>
      <trkpt lat="44.49547" lon="1.22696">
        <ele>105</ele>
        <time>2022-08-10T17:36:22Z</time>
      </trkpt>
      <trkpt lat="44.49546" lon="1.22699">
        <ele>105.4</ele>
        <time>2022-08-10T17:36:24Z</time>
      </trkpt>
      <trkpt lat="44.49545" lon="1.227">
        <ele>105.4</ele>
        <time>2022-08-10T17:36:26Z</time>
      </trkpt>
      <trkpt lat="44.49543" lon="1.22703">
        <ele>105.5</ele>
        <time>2022-08-10T17:36:28Z</time>
      </trkpt>
      <trkpt lat="44.49542" lon="1.22705">
        <ele>105.6</ele>
        <time>2022-08-10T17:36:30Z</time>
      </trkpt>
      <trkpt lat="44.4954" lon="1.22707">
        <ele>105.7</ele>
        <time>2022-08-10T17:36:32Z</time>
      </trkpt>
      <trkpt lat="44.49539" lon="1.22709">
        <ele>105.9</ele>
        <time>2022-08-10T17:36:34Z</time>
      </trkpt>
      <trkpt lat="44.49537" lon="1.22711">
        <ele>106</ele>
        <time>2022-08-10T17:36:36Z</time>
      </trkpt>
      <trkpt lat="44.49536" lon="1.22714">
        <ele>106</ele>
        <time>2022-08-10T17:36:38Z</time>
      </trkpt>
      <trkpt lat="44.49534" lon="1.22715">
        <ele>105.9</ele>
        <time>2022-08-10T17:36:40Z</time>
      </trkpt>
      <trkpt lat="44.49533" lon="1.22717">
        <ele>105.8</ele>
        <time>2022-08-10T17:36:42Z</time>
      </trkpt>
      <trkpt lat="44.49531" lon="1.22718">
        <ele>105.6</ele>
        <time>2022-08-10T17:36:44Z</time>
      </trkpt>
      <trkpt lat="44.49529" lon="1.22719">
        <ele>105.4</ele>
        <time>2022-08-10T17:36:46Z</time>
      </trkpt>
    </trkseg>
      <trkpt lat="44.49595" lon="1.22652">
        <ele>104.1</ele>
        <time>2022-08-11T05:59:07Z</time>
      </trkpt>
      <trkpt lat="44.49596" lon="1.22654">
        <ele>104.7</ele>
        <time>2022-08-11T05:59:08Z</time>
      </trkpt>
      <trkpt lat="44.49604" lon="1.22643">
        <ele>105.4</ele>
        <time>2022-08-11T05:59:24Z</time>
      </trkpt>
      <trkpt lat="44.49608" lon="1.22638">
        <ele>105.6</ele>
        <time>2022-08-11T05:59:26Z</time>
      </trkpt>
      <trkpt lat="44.49612" lon="1.22632">
        <ele>105.7</ele>
        <time>2022-08-11T05:59:28Z</time>
      </trkpt>
      <trkpt lat="44.49616" lon="1.22628">
        <ele>105.8</ele>
        <time>2022-08-11T05:59:30Z</time>
      </trkpt>
      <trkpt lat="44.4962" lon="1.22623">
        <ele>105.9</ele>
        <time>2022-08-11T05:59:32Z</time>
      </trkpt>
      <trkpt lat="44.49624" lon="1.22617">
        <ele>105.5</ele>
        <time>2022-08-11T05:59:34Z</time>
      </trkpt>
      <trkpt lat="44.49629" lon="1.22612">
        <ele>105.4</ele>
        <time>2022-08-11T05:59:36Z</time>
      </trkpt>
      <trkpt lat="44.49634" lon="1.22608">
        <ele>105.4</ele>
        <time>2022-08-11T05:59:38Z</time>
      </trkpt>
      <trkpt lat="44.49643" lon="1.22605">
        <ele>106.5</ele>
        <time>2022-08-11T05:59:40Z</time>
      </trkpt>
      <trkpt lat="44.49648" lon="1.22599">
        <ele>105.9</ele>
        <time>2022-08-11T05:59:42Z</time>
      </trkpt>
      <trkpt lat="44.49653" lon="1.22596">
        <ele>105.7</ele>
        <time>2022-08-11T05:59:44Z</time>
      </trkpt>
      <trkpt lat="44.49658" lon="1.22589">
        <ele>104.7</ele>
        <time>2022-08-11T05:59:46Z</time>
      </trkpt>
      <trkpt lat="44.49663" lon="1.22585">
        <ele>104</ele>
        <time>2022-08-11T05:59:48Z</time>
      </trkpt>
      <trkpt lat="44.49669" lon="1.2258">
        <ele>104.3</ele>
        <time>2022-08-11T05:59:50Z</time>
      </trkpt>
      <trkpt lat="44.49673" lon="1.22575">
        <ele>104.6</ele>
        <time>2022-08-11T05:59:52Z</time>
      </trkpt>
      <trkpt lat="44.49678" lon="1.2257">
        <ele>105.3</ele>
        <time>2022-08-11T05:59:54Z</time>
      </trkpt>
      <trkpt lat="44.49683" lon="1.22565">
        <ele>105.8</ele>
        <time>2022-08-11T05:59:56Z</time>
      </trkpt>
      <trkpt lat="44.49686" lon="1.22559">
        <ele>105.8</ele>
        <time>2022-08-11T05:59:58Z</time>
      </trkpt>
      <trkpt lat="44.49691" lon="1.22554">
        <ele>106.2</ele>
        <time>2022-08-11T06:00:00Z</time>
      </trkpt>
      <trkpt lat="44.49696" lon="1.22548">
        <ele>106.1</ele>
        <time>2022-08-11T06:00:02Z</time>
      </trkpt>
      <trkpt lat="44.497" lon="1.22543">
        <ele>106.2</ele>
        <time>2022-08-11T06:00:04Z</time>
      </trkpt>
      <trkpt lat="44.49705" lon="1.22537">
        <ele>106.1</ele>
        <time>2022-08-11T06:00:06Z</time>
      </trkpt>
      <trkpt lat="44.4971" lon="1.22532">
        <ele>106.2</ele>
        <time>2022-08-11T06:00:08Z</time>
      </trkpt>
      <trkpt lat="44.49715" lon="1.22527">
        <ele>106</ele>
        <time>2022-08-11T06:00:10Z</time>
      </trkpt>
      <trkpt lat="44.4972" lon="1.22522">
        <ele>105.7</ele>
        <time>2022-08-11T06:00:12Z</time>
      </trkpt>
      <trkpt lat="44.49725" lon="1.22517">
        <ele>105.6</ele>
        <time>2022-08-11T06:00:14Z</time>
      </trkpt>
      <trkpt lat="44.4973" lon="1.22513">
        <ele>105.4</ele>
        <time>2022-08-11T06:00:16Z</time>
      </trkpt>
      <trkpt lat="44.49735" lon="1.22507">
        <ele>104.7</ele>
        <time>2022-08-11T06:00:18Z</time>
      </trkpt>
      <trkpt lat="44.4974" lon="1.22502">
        <ele>104.2</ele>
        <time>2022-08-11T06:00:20Z</time>
      </trkpt>
      <trkpt lat="44.49744" lon="1.22498">
        <ele>103.7</ele>
        <time>2022-08-11T06:00:22Z</time>
      </trkpt>
      <trkpt lat="44.49746" lon="1.22493">
        <ele>103.3</ele>
        <time>2022-08-11T06:00:24Z</time>
      </trkpt>
      <trkpt lat="44.49751" lon="1.2249">
        <ele>103.6</ele>
        <time>2022-08-11T06:00:26Z</time>
      </trkpt>
      <trkpt lat="44.49755" lon="1.22483">
        <ele>103.7</ele>
        <time>2022-08-11T06:00:28Z</time>
      </trkpt>
      <trkpt lat="44.49761" lon="1.22479">
        <ele>104.4</ele>
        <time>2022-08-11T06:00:30Z</time>
      </trkpt>
      <trkpt lat="44.49766" lon="1.22474">
        <ele>104.8</ele>
        <time>2022-08-11T06:00:32Z</time>
      </trkpt>
      <trkpt lat="44.49772" lon="1.2247">
        <ele>105.3</ele>
        <time>2022-08-11T06:00:34Z</time>
      </trkpt>
      <trkpt lat="44.49777" lon="1.22466">
        <ele>105.8</ele>
        <time>2022-08-11T06:00:36Z</time>
      </trkpt>
      <trkpt lat="44.49782" lon="1.22461">
        <ele>105.9</ele>
        <time>2022-08-11T06:00:38Z</time>
      </trkpt>
      <trkpt lat="44.49787" lon="1.22455">
        <ele>105.7</ele>
        <time>2022-08-11T06:00:40Z</time>
      </trkpt>
      <trkpt lat="44.49793" lon="1.22451">
        <ele>105.9</ele>
        <time>2022-08-11T06:00:42Z</time>
      </trkpt>
      <trkpt lat="44.49798" lon="1.22447">
        <ele>105.9</ele>
        <time>2022-08-11T06:00:44Z</time>
      </trkpt>
      <trkpt lat="44.49801" lon="1.22445">
        <ele>106.2</ele>
        <time>2022-08-11T06:00:46Z</time>
      </trkpt>
      <trkpt lat="44.49803" lon="1.2244">
        <ele>105.2</ele>
        <time>2022-08-11T06:00:48Z</time>
      </trkpt>
      <trkpt lat="44.49808" lon="1.22435">
        <ele>104.7</ele>
        <time>2022-08-11T06:00:50Z</time>
      </trkpt>
      <trkpt lat="44.49811" lon="1.2243">
        <ele>103.8</ele>
        <time>2022-08-11T06:00:52Z</time>
      </trkpt>
      <trkpt lat="44.49816" lon="1.22426">
        <ele>103.4</ele>
        <time>2022-08-11T06:00:54Z</time>
      </trkpt>
      <trkpt lat="44.49821" lon="1.22422">
        <ele>102.8</ele>
        <time>2022-08-11T06:00:56Z</time>
      </trkpt>
      <trkpt lat="44.49826" lon="1.22418">
        <ele>102.3</ele>
        <time>2022-08-11T06:00:58Z</time>
      </trkpt>
      <trkpt lat="44.49831" lon="1.22413">
        <ele>102.2</ele>
        <time>2022-08-11T06:01:00Z</time>
      </trkpt>
      <trkpt lat="44.49836" lon="1.22407">
        <ele>102.2</ele>
        <time>2022-08-11T06:01:02Z</time>
      </trkpt>
      <trkpt lat="44.4984" lon="1.224">
        <ele>102.4</ele>
        <time>2022-08-11T06:01:04Z</time>
      </trkpt>
      <trkpt lat="44.49846" lon="1.22394">
        <ele>102.8</ele>
        <time>2022-08-11T06:01:06Z</time>
      </trkpt>
      <trkpt lat="44.49851" lon="1.22388">
        <ele>102.8</ele>
        <time>2022-08-11T06:01:08Z</time>
      </trkpt>
      <trkpt lat="44.49856" lon="1.22382">
        <ele>102.9</ele>
        <time>2022-08-11T06:01:10Z</time>
      </trkpt>
      <trkpt lat="44.49861" lon="1.22376">
        <ele>102.7</ele>
        <time>2022-08-11T06:01:12Z</time>
      </trkpt>
      <trkpt lat="44.49867" lon="1.22371">
        <ele>102.7</ele>
        <time>2022-08-11T06:01:14Z</time>
      </trkpt>
      <trkpt lat="44.49872" lon="1.22364">
        <ele>102.2</ele>
        <time>2022-08-11T06:01:16Z</time>
      </trkpt>
      <trkpt lat="44.49877" lon="1.22358">
        <ele>101.7</ele>
        <time>2022-08-11T06:01:18Z</time>
      </trkpt>
      <trkpt lat="44.49882" lon="1.22351">
        <ele>100.8</ele>
        <time>2022-08-11T06:01:20Z</time>
      </trkpt>
      <trkpt lat="44.49886" lon="1.22345">
        <ele>99.8</ele>
        <time>2022-08-11T06:01:22Z</time>
      </trkpt>
      <trkpt lat="44.49891" lon="1.22338">
        <ele>98.8</ele>
        <time>2022-08-11T06:01:24Z</time>
      </trkpt>
      <trkpt lat="44.49896" lon="1.22332">
        <ele>97.9</ele>
        <time>2022-08-11T06:01:26Z</time>
      </trkpt>
      <trkpt lat="44.499" lon="1.22325">
        <ele>97.8</ele>
        <time>2022-08-11T06:01:28Z</time>
      </trkpt>
      <trkpt lat="44.49904" lon="1.22321">
        <ele>97.9</ele>
        <time>2022-08-11T06:01:30Z</time>
      </trkpt>
      <trkpt lat="44.49908" lon="1.22317">
        <ele>97.9</ele>
        <time>2022-08-11T06:01:32Z</time>
      </trkpt>
      <trkpt lat="44.49912" lon="1.22314">
        <ele>98</ele>
        <time>2022-08-11T06:01:34Z</time>
      </trkpt>
      <trkpt lat="44.49915" lon="1.2231">
        <ele>97.9</ele>
        <time>2022-08-11T06:01:36Z</time>
      </trkpt>
      <trkpt lat="44.49917" lon="1.22306">
        <ele>97.7</ele>
        <time>2022-08-11T06:01:38Z</time>
      </trkpt>
      <trkpt lat="44.49919" lon="1.22304">
        <ele>97.5</ele>
        <time>2022-08-11T06:01:40Z</time>
      </trkpt>
      <trkpt lat="44.49919" lon="1.22304">
        <ele>97.4</ele>
        <time>2022-08-11T06:01:42Z</time>
      </trkpt>
      <trkpt lat="44.49919" lon="1.22304">
        <ele>97.5</ele>
        <time>2022-08-11T06:01:44Z</time>
      </trkpt>
      <trkpt lat="44.49919" lon="1.22304">
        <ele>97.5</ele>
        <time>2022-08-11T06:01:46Z</time>
      </trkpt>
      <trkpt lat="44.4992" lon="1.22304">
        <ele>97.4</ele>
        <time>2022-08-11T06:01:48Z</time>
      </trkpt>
      <trkpt lat="44.49922" lon="1.223">
        <ele>97</ele>
        <time>2022-08-11T06:01:50Z</time>
      </trkpt>
      <trkpt lat="44.49924" lon="1.22295">
        <ele>96.6</ele>
        <time>2022-08-11T06:01:52Z</time>
      </trkpt>
      <trkpt lat="44.49927" lon="1.22289">
        <ele>96</ele>
        <time>2022-08-11T06:01:54Z</time>
      </trkpt>
      <trkpt lat="44.49931" lon="1.22282">
        <ele>95.5</ele>
        <time>2022-08-11T06:01:56Z</time>
      </trkpt>
      <trkpt lat="44.49934" lon="1.22277">
        <ele>95.1</ele>
        <time>2022-08-11T06:01:58Z</time>
      </trkpt>
      <trkpt lat="44.49937" lon="1.22271">
        <ele>94.6</ele>
        <time>2022-08-11T06:02:00Z</time>
      </trkpt>
      <trkpt lat="44.4994" lon="1.22273">
        <ele>94.8</ele>
        <time>2022-08-11T06:02:02Z</time>
      </trkpt>
      <trkpt lat="44.4994" lon="1.22275">
        <ele>94.9</ele>
        <time>2022-08-11T06:02:04Z</time>
      </trkpt>
      <trkpt lat="44.4994" lon="1.22275">
        <ele>94.8</ele>
        <time>2022-08-11T06:02:06Z</time>
      </trkpt>
      <trkpt lat="44.49941" lon="1.22276">
        <ele>94.9</ele>
        <time>2022-08-11T06:02:10Z</time>
      </trkpt>
      <trkpt lat="44.49941" lon="1.22276">
        <ele>94.9</ele>
        <time>2022-08-11T06:02:12Z</time>
      </trkpt>
      <trkpt lat="44.49953" lon="1.22254">
        <ele>93.6</ele>
        <time>2022-08-11T06:03:22Z</time>
      </trkpt>
      <trkpt lat="44.49955" lon="1.22253">
        <ele>93.6</ele>
        <time>2022-08-11T06:03:24Z</time>
      </trkpt>
      <trkpt lat="44.49954" lon="1.22251">
        <ele>93.5</ele>
        <time>2022-08-11T06:03:26Z</time>
      </trkpt>
      <trkpt lat="44.49954" lon="1.22246">
        <ele>93.4</ele>
        <time>2022-08-11T06:03:28Z</time>
      </trkpt>
      <trkpt lat="44.49959" lon="1.22242">
        <ele>93.5</ele>
        <time>2022-08-11T06:03:30Z</time>
      </trkpt>
      <trkpt lat="44.49963" lon="1.22237">
        <ele>93.6</ele>
        <time>2022-08-11T06:03:32Z</time>
      </trkpt>
      <trkpt lat="44.49966" lon="1.22231">
        <ele>93.6</ele>
        <time>2022-08-11T06:03:34Z</time>
      </trkpt>
      <trkpt lat="44.4997" lon="1.22225">
        <ele>93.7</ele>
        <time>2022-08-11T06:03:36Z</time>
      </trkpt>
      <trkpt lat="44.49973" lon="1.22219">
        <ele>93.8</ele>
        <time>2022-08-11T06:03:38Z</time>
      </trkpt>
      <trkpt lat="44.49977" lon="1.22213">
        <ele>93.9</ele>
        <time>2022-08-11T06:03:40Z</time>
      </trkpt>
      <trkpt lat="44.49981" lon="1.22206">
        <ele>94</ele>
        <time>2022-08-11T06:03:42Z</time>
      </trkpt>
      <trkpt lat="44.49985" lon="1.22199">
        <ele>94.2</ele>
        <time>2022-08-11T06:03:44Z</time>
      </trkpt>
      <trkpt lat="44.49988" lon="1.22192">
        <ele>94.4</ele>
        <time>2022-08-11T06:03:46Z</time>
      </trkpt>
      <trkpt lat="44.49992" lon="1.22183">
        <ele>94.6</ele>
        <time>2022-08-11T06:03:48Z</time>
      </trkpt>
      <trkpt lat="44.49996" lon="1.22176">
        <ele>94.8</ele>
        <time>2022-08-11T06:03:50Z</time>
      </trkpt>
      <trkpt lat="44.5" lon="1.22168">
        <ele>95</ele>
        <time>2022-08-11T06:03:52Z</time>
      </trkpt>
      <trkpt lat="44.50003" lon="1.2216">
        <ele>95.1</ele>
        <time>2022-08-11T06:03:54Z</time>
      </trkpt>
      <trkpt lat="44.50007" lon="1.22152">
        <ele>95.2</ele>
        <time>2022-08-11T06:03:56Z</time>
      </trkpt>
      <trkpt lat="44.50011" lon="1.22144">
        <ele>95.3</ele>
        <time>2022-08-11T06:03:58Z</time>
      </trkpt>
      <trkpt lat="44.50015" lon="1.22136">
        <ele>95.4</ele>
        <time>2022-08-11T06:04:00Z</time>
      </trkpt>
      <trkpt lat="44.50018" lon="1.22128">
        <ele>95.4</ele>
        <time>2022-08-11T06:04:02Z</time>
      </trkpt>
      <trkpt lat="44.50022" lon="1.2212">
        <ele>95.5</ele>
        <time>2022-08-11T06:04:04Z</time>
      </trkpt>
      <trkpt lat="44.50026" lon="1.22113">
        <ele>95.6</ele>
        <time>2022-08-11T06:04:06Z</time>
      </trkpt>
      <trkpt lat="44.5003" lon="1.22107">
        <ele>95.7</ele>
        <time>2022-08-11T06:04:08Z</time>
      </trkpt>
      <trkpt lat="44.50032" lon="1.221">
        <ele>95.8</ele>
        <time>2022-08-11T06:04:10Z</time>
      </trkpt>
      <trkpt lat="44.50034" lon="1.22093">
        <ele>95.8</ele>
        <time>2022-08-11T06:04:12Z</time>
      </trkpt>
      <trkpt lat="44.50038" lon="1.22086">
        <ele>95.9</ele>
        <time>2022-08-11T06:04:14Z</time>
      </trkpt>
      <trkpt lat="44.50042" lon="1.22079">
        <ele>95.9</ele>
        <time>2022-08-11T06:04:16Z</time>
      </trkpt>
      <trkpt lat="44.50044" lon="1.22072">
        <ele>95.9</ele>
        <time>2022-08-11T06:04:18Z</time>
      </trkpt>
      <trkpt lat="44.50047" lon="1.22068">
        <ele>95.9</ele>
        <time>2022-08-11T06:04:20Z</time>
      </trkpt>
      <trkpt lat="44.50049" lon="1.22065">
        <ele>95.9</ele>
        <time>2022-08-11T06:04:22Z</time>
      </trkpt>
      <trkpt lat="44.50049" lon="1.22065">
        <ele>95.9</ele>
        <time>2022-08-11T06:04:24Z</time>
      </trkpt>
      <trkpt lat="44.50048" lon="1.22062">
        <ele>95.8</ele>
        <time>2022-08-11T06:04:26Z</time>
      </trkpt>
      <trkpt lat="44.5005" lon="1.22059">
        <ele>95.8</ele>
        <time>2022-08-11T06:04:28Z</time>
      </trkpt>
      <trkpt lat="44.50054" lon="1.22063">
        <ele>96</ele>
        <time>2022-08-11T06:04:30Z</time>
      </trkpt>
      <trkpt lat="44.50058" lon="1.22067">
        <ele>96.1</ele>
        <time>2022-08-11T06:04:32Z</time>
      </trkpt>
      <trkpt lat="44.50063" lon="1.2207">
        <ele>96.3</ele>
        <time>2022-08-11T06:04:34Z</time>
      </trkpt>
      <trkpt lat="44.50068" lon="1.22075">
        <ele>96.5</ele>
        <time>2022-08-11T06:04:36Z</time>
      </trkpt>
      <trkpt lat="44.50074" lon="1.2208">
        <ele>96.7</ele>
        <time>2022-08-11T06:04:38Z</time>
      </trkpt>
      <trkpt lat="44.5008" lon="1.22086">
        <ele>96.9</ele>
        <time>2022-08-11T06:04:40Z</time>
      </trkpt>
      <trkpt lat="44.50084" lon="1.22094">
        <ele>97.1</ele>
        <time>2022-08-11T06:04:42Z</time>
      </trkpt>
      <trkpt lat="44.50089" lon="1.22102">
        <ele>98.1</ele>
        <time>2022-08-11T06:04:44Z</time>
      </trkpt>
      <trkpt lat="44.50094" lon="1.22108">
        <ele>99.2</ele>
        <time>2022-08-11T06:04:46Z</time>
      </trkpt>
      <trkpt lat="44.50098" lon="1.22115">
        <ele>99.8</ele>
        <time>2022-08-11T06:04:48Z</time>
      </trkpt>
      <trkpt lat="44.50102" lon="1.22121">
        <ele>100.5</ele>
        <time>2022-08-11T06:04:50Z</time>
      </trkpt>
      <trkpt lat="44.50106" lon="1.22127">
        <ele>101.1</ele>
        <time>2022-08-11T06:04:52Z</time>
      </trkpt>
      <trkpt lat="44.5011" lon="1.22133">
        <ele>101.6</ele>
        <time>2022-08-11T06:04:54Z</time>
      </trkpt>
      <trkpt lat="44.50114" lon="1.22139">
        <ele>102.1</ele>
        <time>2022-08-11T06:04:56Z</time>
      </trkpt>
      <trkpt lat="44.50118" lon="1.22145">
        <ele>102.5</ele>
        <time>2022-08-11T06:04:58Z</time>
      </trkpt>
      <trkpt lat="44.50121" lon="1.22149">
        <ele>102.8</ele>
        <time>2022-08-11T06:05:00Z</time>
      </trkpt>
      <trkpt lat="44.50124" lon="1.22153">
        <ele>103</ele>
        <time>2022-08-11T06:05:02Z</time>
      </trkpt>
      <trkpt lat="44.50127" lon="1.22156">
        <ele>103.3</ele>
        <time>2022-08-11T06:05:04Z</time>
      </trkpt>
      <trkpt lat="44.50128" lon="1.22161">
        <ele>103.2</ele>
        <time>2022-08-11T06:05:06Z</time>
      </trkpt>
      <trkpt lat="44.5013" lon="1.22169">
        <ele>103</ele>
        <time>2022-08-11T06:05:08Z</time>
      </trkpt>
      <trkpt lat="44.50132" lon="1.22177">
        <ele>103</ele>
        <time>2022-08-11T06:05:10Z</time>
      </trkpt>
      <trkpt lat="44.50136" lon="1.22183">
        <ele>103.1</ele>
        <time>2022-08-11T06:05:12Z</time>
      </trkpt>
      <trkpt lat="44.50141" lon="1.2219">
        <ele>103.3</ele>
        <time>2022-08-11T06:05:14Z</time>
      </trkpt>
      <trkpt lat="44.50145" lon="1.22197">
        <ele>103.2</ele>
        <time>2022-08-11T06:05:16Z</time>
      </trkpt>
      <trkpt lat="44.50149" lon="1.22204">
        <ele>103.2</ele>
        <time>2022-08-11T06:05:18Z</time>
      </trkpt>
      <trkpt lat="44.50149" lon="1.22212">
        <ele>102.6</ele>
        <time>2022-08-11T06:05:20Z</time>
      </trkpt>
      <trkpt lat="44.50142" lon="1.22221">
        <ele>101.6</ele>
        <time>2022-08-11T06:05:22Z</time>
      </trkpt>
      <trkpt lat="44.50135" lon="1.22229">
        <ele>100.6</ele>
        <time>2022-08-11T06:05:24Z</time>
      </trkpt>
      <trkpt lat="44.50127" lon="1.22237">
        <ele>99.6</ele>
        <time>2022-08-11T06:05:26Z</time>
      </trkpt>
      <trkpt lat="44.50119" lon="1.22246">
        <ele>98.9</ele>
        <time>2022-08-11T06:05:28Z</time>
      </trkpt>
      <trkpt lat="44.50114" lon="1.22252">
        <ele>98.4</ele>
        <time>2022-08-11T06:05:30Z</time>
      </trkpt>
      <trkpt lat="44.50108" lon="1.22258">
        <ele>98</ele>
        <time>2022-08-11T06:05:32Z</time>
      </trkpt>
      <trkpt lat="44.50105" lon="1.22262">
        <ele>97.7</ele>
        <time>2022-08-11T06:05:34Z</time>
      </trkpt>
      <trkpt lat="44.50102" lon="1.22267">
        <ele>97.4</ele>
        <time>2022-08-11T06:05:36Z</time>
      </trkpt>
      <trkpt lat="44.50102" lon="1.22277">
        <ele>97.1</ele>
        <time>2022-08-11T06:05:38Z</time>
      </trkpt>
      <trkpt lat="44.50104" lon="1.22283">
        <ele>97</ele>
        <time>2022-08-11T06:05:40Z</time>
      </trkpt>
      <trkpt lat="44.50106" lon="1.22288">
        <ele>96.9</ele>
        <time>2022-08-11T06:05:42Z</time>
      </trkpt>
      <trkpt lat="44.50107" lon="1.22294">
        <ele>96.8</ele>
        <time>2022-08-11T06:05:44Z</time>
      </trkpt>
      <trkpt lat="44.50108" lon="1.22293">
        <ele>96.8</ele>
        <time>2022-08-11T06:05:46Z</time>
      </trkpt>
      <trkpt lat="44.50107" lon="1.22293">
        <ele>96.8</ele>
        <time>2022-08-11T06:05:48Z</time>
      </trkpt>
      <trkpt lat="44.50108" lon="1.22294">
        <ele>96.8</ele>
        <time>2022-08-11T06:05:50Z</time>
      </trkpt>
      <trkpt lat="44.50107" lon="1.22295">
        <ele>96.8</ele>
        <time>2022-08-11T06:05:52Z</time>
      </trkpt>
      <trkpt lat="44.5012" lon="1.22305">
        <ele>96.9</ele>
        <time>2022-08-11T06:15:44Z</time>
      </trkpt>
      <trkpt lat="44.5012" lon="1.22305">
        <ele>96.9</ele>
        <time>2022-08-11T06:15:46Z</time>
      </trkpt>
      <trkpt lat="44.50121" lon="1.22306">
        <ele>96.9</ele>
        <time>2022-08-11T06:15:48Z</time>
      </trkpt>
      <trkpt lat="44.5012" lon="1.22306">
        <ele>96.8</ele>
        <time>2022-08-11T06:15:50Z</time>
      </trkpt>
      <trkpt lat="44.50121" lon="1.22306">
        <ele>96.9</ele>
        <time>2022-08-11T06:15:52Z</time>
      </trkpt>
      <trkpt lat="44.50122" lon="1.22304">
        <ele>97</ele>
        <time>2022-08-11T06:15:54Z</time>
      </trkpt>
      <trkpt lat="44.5012" lon="1.22301">
        <ele>97</ele>
        <time>2022-08-11T06:15:56Z</time>
      </trkpt>
      <trkpt lat="44.50115" lon="1.22301">
        <ele>96.8</ele>
        <time>2022-08-11T06:15:58Z</time>
      </trkpt>
      <trkpt lat="44.50112" lon="1.22304">
        <ele>96.6</ele>
        <time>2022-08-11T06:16:00Z</time>
      </trkpt>
      <trkpt lat="44.5011" lon="1.22306">
        <ele>96.5</ele>
        <time>2022-08-11T06:16:02Z</time>
      </trkpt>
      <trkpt lat="44.50108" lon="1.22307">
        <ele>96.4</ele>
        <time>2022-08-11T06:16:04Z</time>
      </trkpt>
      <trkpt lat="44.50109" lon="1.22307">
        <ele>96.4</ele>
        <time>2022-08-11T06:16:06Z</time>
      </trkpt>
      <trkpt lat="44.50108" lon="1.22307">
        <ele>96.4</ele>
        <time>2022-08-11T06:16:08Z</time>
      </trkpt>
      <trkpt lat="44.50107" lon="1.22308">
        <ele>96.4</ele>
        <time>2022-08-11T06:16:10Z</time>
      </trkpt>
      <trkpt lat="44.501" lon="1.22321">
        <ele>95.7</ele>
        <time>2022-08-11T06:16:18Z</time>
      </trkpt>
      <trkpt lat="44.50096" lon="1.22325">
        <ele>95.5</ele>
        <time>2022-08-11T06:16:20Z</time>
      </trkpt>
      <trkpt lat="44.50093" lon="1.2233">
        <ele>95.3</ele>
        <time>2022-08-11T06:16:22Z</time>
      </trkpt>
      <trkpt lat="44.5009" lon="1.22335">
        <ele>95.1</ele>
        <time>2022-08-11T06:16:24Z</time>
      </trkpt>
      <trkpt lat="44.50088" lon="1.22339">
        <ele>95</ele>
        <time>2022-08-11T06:16:26Z</time>
      </trkpt>
      <trkpt lat="44.50085" lon="1.22344">
        <ele>94.9</ele>
        <time>2022-08-11T06:16:28Z</time>
      </trkpt>
      <trkpt lat="44.50082" lon="1.22347">
        <ele>94.9</ele>
        <time>2022-08-11T06:16:30Z</time>
      </trkpt>
      <trkpt lat="44.50079" lon="1.22353">
        <ele>95</ele>
        <time>2022-08-11T06:16:32Z</time>
      </trkpt>
      <trkpt lat="44.50076" lon="1.22358">
        <ele>95.2</ele>
        <time>2022-08-11T06:16:34Z</time>
      </trkpt>
      <trkpt lat="44.50072" lon="1.22363">
        <ele>95.6</ele>
        <time>2022-08-11T06:16:36Z</time>
      </trkpt>
      <trkpt lat="44.50069" lon="1.22367">
        <ele>95.9</ele>
        <time>2022-08-11T06:16:38Z</time>
      </trkpt>
      <trkpt lat="44.50066" lon="1.22372">
        <ele>96.4</ele>
        <time>2022-08-11T06:16:40Z</time>
      </trkpt>
      <trkpt lat="44.50063" lon="1.22375">
        <ele>96.8</ele>
        <time>2022-08-11T06:16:42Z</time>
      </trkpt>
      <trkpt lat="44.50063" lon="1.22375">
        <ele>96.8</ele>
        <time>2022-08-11T06:16:44Z</time>
      </trkpt>
      <trkpt lat="44.50063" lon="1.22375">
        <ele>96.8</ele>
        <time>2022-08-11T06:16:46Z</time>
      </trkpt>
      <trkpt lat="44.50063" lon="1.22375">
        <ele>96.8</ele>
        <time>2022-08-11T06:16:48Z</time>
      </trkpt>
      <trkpt lat="44.50063" lon="1.22375">
        <ele>96.8</ele>
        <time>2022-08-11T06:16:50Z</time>
      </trkpt>
      <trkpt lat="44.50063" lon="1.22374">
        <ele>96.8</ele>
        <time>2022-08-11T06:16:52Z</time>
      </trkpt>
      <trkpt lat="44.50057" lon="1.22361">
        <ele>96.7</ele>
        <time>2022-08-11T06:17:04Z</time>
      </trkpt>
      <trkpt lat="44.50053" lon="1.22358">
        <ele>96.7</ele>
        <time>2022-08-11T06:17:06Z</time>
      </trkpt>
      <trkpt lat="44.50051" lon="1.22352">
        <ele>96.4</ele>
        <time>2022-08-11T06:17:08Z</time>
      </trkpt>
      <trkpt lat="44.50048" lon="1.22348">
        <ele>96.2</ele>
        <time>2022-08-11T06:17:10Z</time>
      </trkpt>
      <trkpt lat="44.50046" lon="1.22345">
        <ele>96.1</ele>
        <time>2022-08-11T06:17:12Z</time>
      </trkpt>
      <trkpt lat="44.50043" lon="1.22342">
        <ele>95.8</ele>
        <time>2022-08-11T06:17:14Z</time>
      </trkpt>
      <trkpt lat="44.5004" lon="1.22338">
        <ele>95.5</ele>
        <time>2022-08-11T06:17:16Z</time>
      </trkpt>
      <trkpt lat="44.50038" lon="1.22335">
        <ele>95.2</ele>
        <time>2022-08-11T06:17:18Z</time>
      </trkpt>
      <trkpt lat="44.50035" lon="1.22333">
        <ele>95</ele>
        <time>2022-08-11T06:17:20Z</time>
      </trkpt>
      <trkpt lat="44.50032" lon="1.22335">
        <ele>95.2</ele>
        <time>2022-08-11T06:17:22Z</time>
      </trkpt>
      <trkpt lat="44.5003" lon="1.22337">
        <ele>95.5</ele>
        <time>2022-08-11T06:17:24Z</time>
      </trkpt>
      <trkpt lat="44.5003" lon="1.22337">
        <ele>95.4</ele>
        <time>2022-08-11T06:17:26Z</time>
      </trkpt>
      <trkpt lat="44.5003" lon="1.22337">
        <ele>95.4</ele>
        <time>2022-08-11T06:17:28Z</time>
      </trkpt>
      <trkpt lat="44.50029" lon="1.22338">
        <ele>95.6</ele>
        <time>2022-08-11T06:17:30Z</time>
      </trkpt>
      <trkpt lat="44.50028" lon="1.22338">
        <ele>95.7</ele>
        <time>2022-08-11T06:17:32Z</time>
      </trkpt>
      <trkpt lat="44.50047" lon="1.22327">
        <ele>95.1</ele>
        <time>2022-08-11T06:20:22Z</time>
      </trkpt>
      <trkpt lat="44.50051" lon="1.22323">
        <ele>95.1</ele>
        <time>2022-08-11T06:20:24Z</time>
      </trkpt>
      <trkpt lat="44.50054" lon="1.22319">
        <ele>95.2</ele>
        <time>2022-08-11T06:20:26Z</time>
      </trkpt>
      <trkpt lat="44.50058" lon="1.22316">
        <ele>95.2</ele>
        <time>2022-08-11T06:20:28Z</time>
      </trkpt>
      <trkpt lat="44.50061" lon="1.22312">
        <ele>95.3</ele>
        <time>2022-08-11T06:20:30Z</time>
      </trkpt>
      <trkpt lat="44.50065" lon="1.22308">
        <ele>95.4</ele>
        <time>2022-08-11T06:20:32Z</time>
      </trkpt>
      <trkpt lat="44.5007" lon="1.22301">
        <ele>95.6</ele>
        <time>2022-08-11T06:20:34Z</time>
      </trkpt>
      <trkpt lat="44.50075" lon="1.22295">
        <ele>95.8</ele>
        <time>2022-08-11T06:20:36Z</time>
      </trkpt>
      <trkpt lat="44.5008" lon="1.2229">
        <ele>96</ele>
        <time>2022-08-11T06:20:38Z</time>
      </trkpt>
      <trkpt lat="44.50085" lon="1.22284">
        <ele>96.3</ele>
        <time>2022-08-11T06:20:40Z</time>
      </trkpt>
      <trkpt lat="44.50091" lon="1.22279">
        <ele>96.6</ele>
        <time>2022-08-11T06:20:42Z</time>
      </trkpt>
      <trkpt lat="44.50096" lon="1.22273">
        <ele>97</ele>
        <time>2022-08-11T06:20:44Z</time>
      </trkpt>
      <trkpt lat="44.50102" lon="1.22266">
        <ele>97.4</ele>
        <time>2022-08-11T06:20:46Z</time>
      </trkpt>
      <trkpt lat="44.50107" lon="1.2226">
        <ele>97.8</ele>
        <time>2022-08-11T06:20:48Z</time>
      </trkpt>
      <trkpt lat="44.50112" lon="1.22255">
        <ele>98.2</ele>
        <time>2022-08-11T06:20:50Z</time>
      </trkpt>
      <trkpt lat="44.50118" lon="1.22249">
        <ele>98.7</ele>
        <time>2022-08-11T06:20:52Z</time>
      </trkpt>
      <trkpt lat="44.50122" lon="1.22243">
        <ele>99.2</ele>
        <time>2022-08-11T06:20:54Z</time>
      </trkpt>
      <trkpt lat="44.50128" lon="1.22238">
        <ele>99.7</ele>
        <time>2022-08-11T06:20:56Z</time>
      </trkpt>
      <trkpt lat="44.50133" lon="1.22232">
        <ele>100.2</ele>
        <time>2022-08-11T06:20:58Z</time>
      </trkpt>
      <trkpt lat="44.50137" lon="1.22228">
        <ele>100.7</ele>
        <time>2022-08-11T06:21:00Z</time>
      </trkpt>
      <trkpt lat="44.5014" lon="1.22223">
        <ele>101.3</ele>
        <time>2022-08-11T06:21:02Z</time>
      </trkpt>
      <trkpt lat="44.50144" lon="1.2222">
        <ele>101.8</ele>
        <time>2022-08-11T06:21:04Z</time>
      </trkpt>
      <trkpt lat="44.50148" lon="1.22217">
        <ele>102.2</ele>
        <time>2022-08-11T06:21:06Z</time>
      </trkpt>
      <trkpt lat="44.5015" lon="1.22216">
        <ele>102.5</ele>
        <time>2022-08-11T06:21:08Z</time>
      </trkpt>
      <trkpt lat="44.50151" lon="1.22214">
        <ele>102.7</ele>
        <time>2022-08-11T06:21:10Z</time>
      </trkpt>
      <trkpt lat="44.50151" lon="1.22214">
        <ele>102.7</ele>
        <time>2022-08-11T06:21:12Z</time>
      </trkpt>
      <trkpt lat="44.50152" lon="1.22214">
        <ele>102.8</ele>
        <time>2022-08-11T06:21:14Z</time>
      </trkpt>
      <trkpt lat="44.50152" lon="1.22214">
        <ele>102.8</ele>
        <time>2022-08-11T06:21:16Z</time>
      </trkpt>
      <trkpt lat="44.50146" lon="1.22193">
        <ele>103.6</ele>
        <time>2022-08-11T06:21:32Z</time>
      </trkpt>
      <trkpt lat="44.50142" lon="1.22185">
        <ele>103.7</ele>
        <time>2022-08-11T06:21:34Z</time>
      </trkpt>
      <trkpt lat="44.50138" lon="1.22177">
        <ele>103.6</ele>
        <time>2022-08-11T06:21:36Z</time>
      </trkpt>
      <trkpt lat="44.50133" lon="1.22169">
        <ele>103.4</ele>
        <time>2022-08-11T06:21:38Z</time>
      </trkpt>
      <trkpt lat="44.50131" lon="1.22159">
        <ele>103.6</ele>
        <time>2022-08-11T06:21:40Z</time>
      </trkpt>
      <trkpt lat="44.50127" lon="1.2215">
        <ele>103.6</ele>
        <time>2022-08-11T06:21:42Z</time>
      </trkpt>
      <trkpt lat="44.50121" lon="1.22144">
        <ele>103</ele>
        <time>2022-08-11T06:21:44Z</time>
      </trkpt>
      <trkpt lat="44.50115" lon="1.22136">
        <ele>102.2</ele>
        <time>2022-08-11T06:21:46Z</time>
      </trkpt>
      <trkpt lat="44.50108" lon="1.22122">
        <ele>101.6</ele>
        <time>2022-08-11T06:21:48Z</time>
      </trkpt>
      <trkpt lat="44.50101" lon="1.2211">
        <ele>100.5</ele>
        <time>2022-08-11T06:21:50Z</time>
      </trkpt>
      <trkpt lat="44.50095" lon="1.22098">
        <ele>99.4</ele>
        <time>2022-08-11T06:21:52Z</time>
      </trkpt>
      <trkpt lat="44.50087" lon="1.22086">
        <ele>97.9</ele>
        <time>2022-08-11T06:21:54Z</time>
      </trkpt>
      <trkpt lat="44.50079" lon="1.22077">
        <ele>96.8</ele>
        <time>2022-08-11T06:21:56Z</time>
      </trkpt>
      <trkpt lat="44.5007" lon="1.22069">
        <ele>96.5</ele>
        <time>2022-08-11T06:21:58Z</time>
      </trkpt>
      <trkpt lat="44.50061" lon="1.22061">
        <ele>96.1</ele>
        <time>2022-08-11T06:22:00Z</time>
      </trkpt>
      <trkpt lat="44.50053" lon="1.22055">
        <ele>95.8</ele>
        <time>2022-08-11T06:22:02Z</time>
      </trkpt>
      <trkpt lat="44.50049" lon="1.2205">
        <ele>95.6</ele>
        <time>2022-08-11T06:22:04Z</time>
      </trkpt>
      <trkpt lat="44.50039" lon="1.22042">
        <ele>95.2</ele>
        <time>2022-08-11T06:22:06Z</time>
      </trkpt>
      <trkpt lat="44.50031" lon="1.22038">
        <ele>94.9</ele>
        <time>2022-08-11T06:22:08Z</time>
      </trkpt>
      <trkpt lat="44.50025" lon="1.22029">
        <ele>94.5</ele>
        <time>2022-08-11T06:22:10Z</time>
      </trkpt>
      <trkpt lat="44.5002" lon="1.22014">
        <ele>94</ele>
        <time>2022-08-11T06:22:12Z</time>
      </trkpt>
      <trkpt lat="44.5001" lon="1.22016">
        <ele>93.7</ele>
        <time>2022-08-11T06:22:14Z</time>
      </trkpt>
      <trkpt lat="44.50003" lon="1.22012">
        <ele>93.4</ele>
        <time>2022-08-11T06:22:16Z</time>
      </trkpt>
      <trkpt lat="44.49999" lon="1.22008">
        <ele>93.2</ele>
        <time>2022-08-11T06:22:18Z</time>
      </trkpt>
      <trkpt lat="44.49989" lon="1.22001">
        <ele>93.3</ele>
        <time>2022-08-11T06:22:20Z</time>
      </trkpt>
      <trkpt lat="44.49983" lon="1.21995">
        <ele>93.5</ele>
        <time>2022-08-11T06:22:22Z</time>
      </trkpt>
      <trkpt lat="44.49976" lon="1.21989">
        <ele>93.7</ele>
        <time>2022-08-11T06:22:24Z</time>
      </trkpt>
      <trkpt lat="44.49968" lon="1.21985">
        <ele>93.9</ele>
        <time>2022-08-11T06:22:26Z</time>
      </trkpt>
      <trkpt lat="44.4996" lon="1.21979">
        <ele>94.1</ele>
        <time>2022-08-11T06:22:28Z</time>
      </trkpt>
      <trkpt lat="44.49954" lon="1.21972">
        <ele>94.2</ele>
        <time>2022-08-11T06:22:30Z</time>
      </trkpt>
      <trkpt lat="44.49946" lon="1.21965">
        <ele>94.3</ele>
        <time>2022-08-11T06:22:32Z</time>
      </trkpt>
      <trkpt lat="44.49938" lon="1.21959">
        <ele>94.4</ele>
        <time>2022-08-11T06:22:34Z</time>
      </trkpt>
      <trkpt lat="44.49931" lon="1.21953">
        <ele>94.4</ele>
        <time>2022-08-11T06:22:36Z</time>
      </trkpt>
      <trkpt lat="44.49923" lon="1.21946">
        <ele>94.4</ele>
        <time>2022-08-11T06:22:38Z</time>
      </trkpt>
      <trkpt lat="44.49915" lon="1.21941">
        <ele>94.3</ele>
        <time>2022-08-11T06:22:40Z</time>
      </trkpt>
      <trkpt lat="44.49908" lon="1.21934">
        <ele>94.2</ele>
        <time>2022-08-11T06:22:42Z</time>
      </trkpt>
      <trkpt lat="44.49899" lon="1.21927">
        <ele>94.1</ele>
        <time>2022-08-11T06:22:44Z</time>
      </trkpt>
      <trkpt lat="44.49891" lon="1.21921">
        <ele>94</ele>
        <time>2022-08-11T06:22:46Z</time>
      </trkpt>
      <trkpt lat="44.49884" lon="1.21914">
        <ele>94</ele>
        <time>2022-08-11T06:22:48Z</time>
      </trkpt>
      <trkpt lat="44.49875" lon="1.21908">
        <ele>93.9</ele>
        <time>2022-08-11T06:22:50Z</time>
      </trkpt>
      <trkpt lat="44.49868" lon="1.21902">
        <ele>94</ele>
        <time>2022-08-11T06:22:52Z</time>
      </trkpt>
      <trkpt lat="44.4986" lon="1.21895">
        <ele>94</ele>
        <time>2022-08-11T06:22:54Z</time>
      </trkpt>
      <trkpt lat="44.49852" lon="1.2189">
        <ele>94.1</ele>
        <time>2022-08-11T06:22:56Z</time>
      </trkpt>
      <trkpt lat="44.49845" lon="1.21884">
        <ele>94.2</ele>
        <time>2022-08-11T06:22:58Z</time>
      </trkpt>
      <trkpt lat="44.49838" lon="1.21878">
        <ele>94.4</ele>
        <time>2022-08-11T06:23:00Z</time>
      </trkpt>
      <trkpt lat="44.4983" lon="1.21872">
        <ele>94.6</ele>
        <time>2022-08-11T06:23:02Z</time>
      </trkpt>
      <trkpt lat="44.49823" lon="1.21866">
        <ele>94.7</ele>
        <time>2022-08-11T06:23:04Z</time>
      </trkpt>
      <trkpt lat="44.49815" lon="1.21859">
        <ele>94.9</ele>
        <time>2022-08-11T06:23:06Z</time>
      </trkpt>
      <trkpt lat="44.49808" lon="1.21852">
        <ele>95.1</ele>
        <time>2022-08-11T06:23:08Z</time>
      </trkpt>
      <trkpt lat="44.498" lon="1.21846">
        <ele>95.2</ele>
        <time>2022-08-11T06:23:10Z</time>
      </trkpt>
      <trkpt lat="44.49792" lon="1.21841">
        <ele>95.4</ele>
        <time>2022-08-11T06:23:12Z</time>
      </trkpt>
      <trkpt lat="44.49784" lon="1.21834">
        <ele>95.6</ele>
        <time>2022-08-11T06:23:14Z</time>
      </trkpt>
      <trkpt lat="44.49777" lon="1.21828">
        <ele>95.7</ele>
        <time>2022-08-11T06:23:16Z</time>
      </trkpt>
      <trkpt lat="44.49769" lon="1.21821">
        <ele>95.7</ele>
        <time>2022-08-11T06:23:18Z</time>
      </trkpt>
      <trkpt lat="44.49762" lon="1.21814">
        <ele>95.8</ele>
        <time>2022-08-11T06:23:20Z</time>
      </trkpt>
      <trkpt lat="44.49754" lon="1.21807">
        <ele>95.9</ele>
        <time>2022-08-11T06:23:22Z</time>
      </trkpt>
      <trkpt lat="44.49746" lon="1.21801">
        <ele>95.9</ele>
        <time>2022-08-11T06:23:24Z</time>
      </trkpt>
      <trkpt lat="44.49739" lon="1.21794">
        <ele>95.8</ele>
        <time>2022-08-11T06:23:26Z</time>
      </trkpt>
      <trkpt lat="44.49731" lon="1.21786">
        <ele>95.7</ele>
        <time>2022-08-11T06:23:28Z</time>
      </trkpt>
      <trkpt lat="44.49724" lon="1.21778">
        <ele>95.6</ele>
        <time>2022-08-11T06:23:30Z</time>
      </trkpt>
      <trkpt lat="44.49716" lon="1.2177">
        <ele>95.5</ele>
        <time>2022-08-11T06:23:32Z</time>
      </trkpt>
      <trkpt lat="44.49709" lon="1.21761">
        <ele>95.4</ele>
        <time>2022-08-11T06:23:34Z</time>
      </trkpt>
      <trkpt lat="44.49702" lon="1.21752">
        <ele>95.4</ele>
        <time>2022-08-11T06:23:36Z</time>
      </trkpt>
      <trkpt lat="44.49696" lon="1.21742">
        <ele>95.3</ele>
        <time>2022-08-11T06:23:38Z</time>
      </trkpt>
      <trkpt lat="44.4969" lon="1.21732">
        <ele>95.2</ele>
        <time>2022-08-11T06:23:40Z</time>
      </trkpt>
      <trkpt lat="44.49684" lon="1.21722">
        <ele>95.1</ele>
        <time>2022-08-11T06:23:42Z</time>
      </trkpt>
      <trkpt lat="44.49678" lon="1.21712">
        <ele>95</ele>
        <time>2022-08-11T06:23:44Z</time>
      </trkpt>
      <trkpt lat="44.49672" lon="1.21702">
        <ele>95</ele>
        <time>2022-08-11T06:23:46Z</time>
      </trkpt>
      <trkpt lat="44.49667" lon="1.21692">
        <ele>95</ele>
        <time>2022-08-11T06:23:48Z</time>
      </trkpt>
      <trkpt lat="44.49662" lon="1.21683">
        <ele>95.1</ele>
        <time>2022-08-11T06:23:50Z</time>
      </trkpt>
      <trkpt lat="44.49657" lon="1.21674">
        <ele>95.2</ele>
        <time>2022-08-11T06:23:52Z</time>
      </trkpt>
      <trkpt lat="44.49652" lon="1.21665">
        <ele>95.4</ele>
        <time>2022-08-11T06:23:54Z</time>
      </trkpt>
      <trkpt lat="44.49648" lon="1.21656">
        <ele>95.6</ele>
        <time>2022-08-11T06:23:56Z</time>
      </trkpt>
      <trkpt lat="44.49643" lon="1.21649">
        <ele>95.8</ele>
        <time>2022-08-11T06:23:58Z</time>
      </trkpt>
      <trkpt lat="44.49639" lon="1.21641">
        <ele>96.1</ele>
        <time>2022-08-11T06:24:00Z</time>
      </trkpt>
      <trkpt lat="44.49637" lon="1.21636">
        <ele>96.2</ele>
        <time>2022-08-11T06:24:02Z</time>
      </trkpt>
      <trkpt lat="44.49636" lon="1.21635">
        <ele>96.3</ele>
        <time>2022-08-11T06:24:04Z</time>
      </trkpt>
      <trkpt lat="44.49634" lon="1.21633">
        <ele>96.3</ele>
        <time>2022-08-11T06:24:06Z</time>
      </trkpt>
      <trkpt lat="44.49631" lon="1.21633">
        <ele>96.4</ele>
        <time>2022-08-11T06:24:08Z</time>
      </trkpt>
      <trkpt lat="44.49628" lon="1.21636">
        <ele>96.5</ele>
        <time>2022-08-11T06:24:10Z</time>
      </trkpt>
      <trkpt lat="44.49629" lon="1.21638">
        <ele>96.4</ele>
        <time>2022-08-11T06:24:12Z</time>
      </trkpt>
      <trkpt lat="44.4963" lon="1.21637">
        <ele>96.4</ele>
        <time>2022-08-11T06:24:14Z</time>
      </trkpt>
      <trkpt lat="44.4963" lon="1.21638">
        <ele>96.4</ele>
        <time>2022-08-11T06:24:16Z</time>
      </trkpt>
      <trkpt lat="44.4963" lon="1.21638">
        <ele>96.4</ele>
        <time>2022-08-11T06:24:18Z</time>
      </trkpt>
      <trkpt lat="44.49627" lon="1.21622">
        <ele>96.8</ele>
        <time>2022-08-11T06:25:42Z</time>
      </trkpt>
      <trkpt lat="44.49623" lon="1.21616">
        <ele>97</ele>
        <time>2022-08-11T06:25:44Z</time>
      </trkpt>
      <trkpt lat="44.4962" lon="1.2161">
        <ele>97.2</ele>
        <time>2022-08-11T06:25:46Z</time>
      </trkpt>
      <trkpt lat="44.49617" lon="1.21604">
        <ele>97.4</ele>
        <time>2022-08-11T06:25:48Z</time>
      </trkpt>
      <trkpt lat="44.49613" lon="1.21598">
        <ele>97.6</ele>
        <time>2022-08-11T06:25:50Z</time>
      </trkpt>
      <trkpt lat="44.4961" lon="1.21592">
        <ele>97.9</ele>
        <time>2022-08-11T06:25:52Z</time>
      </trkpt>
      <trkpt lat="44.49606" lon="1.21586">
        <ele>98.1</ele>
        <time>2022-08-11T06:25:54Z</time>
      </trkpt>
      <trkpt lat="44.49602" lon="1.2158">
        <ele>98.4</ele>
        <time>2022-08-11T06:25:56Z</time>
      </trkpt>
      <trkpt lat="44.49598" lon="1.21573">
        <ele>98.7</ele>
        <time>2022-08-11T06:25:58Z</time>
      </trkpt>
      <trkpt lat="44.49595" lon="1.21568">
        <ele>98.9</ele>
        <time>2022-08-11T06:26:00Z</time>
      </trkpt>
      <trkpt lat="44.49593" lon="1.21561">
        <ele>99.2</ele>
        <time>2022-08-11T06:26:02Z</time>
      </trkpt>
      <trkpt lat="44.49592" lon="1.21554">
        <ele>99.4</ele>
        <time>2022-08-11T06:26:04Z</time>
      </trkpt>
      <trkpt lat="44.49594" lon="1.21547">
        <ele>99.4</ele>
        <time>2022-08-11T06:26:06Z</time>
      </trkpt>
      <trkpt lat="44.49598" lon="1.2154">
        <ele>99.4</ele>
        <time>2022-08-11T06:26:08Z</time>
      </trkpt>
      <trkpt lat="44.49601" lon="1.21533">
        <ele>99.4</ele>
        <time>2022-08-11T06:26:10Z</time>
      </trkpt>
      <trkpt lat="44.49605" lon="1.21525">
        <ele>99.5</ele>
        <time>2022-08-11T06:26:12Z</time>
      </trkpt>
      <trkpt lat="44.49609" lon="1.21517">
        <ele>99.4</ele>
        <time>2022-08-11T06:26:14Z</time>
      </trkpt>
      <trkpt lat="44.49612" lon="1.21509">
        <ele>99.4</ele>
        <time>2022-08-11T06:26:16Z</time>
      </trkpt>
      <trkpt lat="44.49616" lon="1.21501">
        <ele>99.4</ele>
        <time>2022-08-11T06:26:18Z</time>
      </trkpt>
      <trkpt lat="44.49619" lon="1.21491">
        <ele>99.4</ele>
        <time>2022-08-11T06:26:20Z</time>
      </trkpt>
      <trkpt lat="44.49623" lon="1.21483">
        <ele>99.3</ele>
        <time>2022-08-11T06:26:22Z</time>
      </trkpt>
      <trkpt lat="44.49626" lon="1.21473">
        <ele>99.3</ele>
        <time>2022-08-11T06:26:24Z</time>
      </trkpt>
      <trkpt lat="44.49629" lon="1.21464">
        <ele>99.2</ele>
        <time>2022-08-11T06:26:26Z</time>
      </trkpt>
      <trkpt lat="44.49631" lon="1.21453">
        <ele>99.2</ele>
        <time>2022-08-11T06:26:28Z</time>
      </trkpt>
      <trkpt lat="44.49634" lon="1.21443">
        <ele>99.1</ele>
        <time>2022-08-11T06:26:30Z</time>
      </trkpt>
      <trkpt lat="44.49637" lon="1.21432">
        <ele>99</ele>
        <time>2022-08-11T06:26:32Z</time>
      </trkpt>
      <trkpt lat="44.4964" lon="1.2142">
        <ele>98.9</ele>
        <time>2022-08-11T06:26:34Z</time>
      </trkpt>
      <trkpt lat="44.49642" lon="1.21408">
        <ele>98.9</ele>
        <time>2022-08-11T06:26:36Z</time>
      </trkpt>
      <trkpt lat="44.49645" lon="1.21396">
        <ele>98.9</ele>
        <time>2022-08-11T06:26:38Z</time>
      </trkpt>
      <trkpt lat="44.49647" lon="1.21384">
        <ele>99</ele>
        <time>2022-08-11T06:26:40Z</time>
      </trkpt>
      <trkpt lat="44.4965" lon="1.21372">
        <ele>99.1</ele>
        <time>2022-08-11T06:26:42Z</time>
      </trkpt>
      <trkpt lat="44.49652" lon="1.21361">
        <ele>99.1</ele>
        <time>2022-08-11T06:26:44Z</time>
      </trkpt>
      <trkpt lat="44.49656" lon="1.21349">
        <ele>99.2</ele>
        <time>2022-08-11T06:26:46Z</time>
      </trkpt>
      <trkpt lat="44.49658" lon="1.21337">
        <ele>99.3</ele>
        <time>2022-08-11T06:26:48Z</time>
      </trkpt>
      <trkpt lat="44.49661" lon="1.21325">
        <ele>99.3</ele>
        <time>2022-08-11T06:26:50Z</time>
      </trkpt>
      <trkpt lat="44.49663" lon="1.21313">
        <ele>99.2</ele>
        <time>2022-08-11T06:26:52Z</time>
      </trkpt>
      <trkpt lat="44.49666" lon="1.21301">
        <ele>99</ele>
        <time>2022-08-11T06:26:54Z</time>
      </trkpt>
      <trkpt lat="44.49668" lon="1.2129">
        <ele>98.9</ele>
        <time>2022-08-11T06:26:56Z</time>
      </trkpt>
      <trkpt lat="44.4967" lon="1.21282">
        <ele>98.8</ele>
        <time>2022-08-11T06:26:58Z</time>
      </trkpt>
      <trkpt lat="44.49672" lon="1.21279">
        <ele>98.7</ele>
        <time>2022-08-11T06:27:00Z</time>
      </trkpt>
      <trkpt lat="44.49672" lon="1.21278">
        <ele>98.7</ele>
        <time>2022-08-11T06:27:02Z</time>
      </trkpt>
      <trkpt lat="44.49673" lon="1.21276">
        <ele>98.7</ele>
        <time>2022-08-11T06:27:04Z</time>
      </trkpt>
      <trkpt lat="44.49673" lon="1.21275">
        <ele>98.7</ele>
        <time>2022-08-11T06:27:06Z</time>
      </trkpt>
      <trkpt lat="44.49673" lon="1.21275">
        <ele>98.7</ele>
        <time>2022-08-11T06:27:08Z</time>
      </trkpt>
      <trkpt lat="44.49676" lon="1.21257">
        <ele>98.6</ele>
        <time>2022-08-11T06:28:16Z</time>
      </trkpt>
      <trkpt lat="44.49675" lon="1.21252">
        <ele>98.6</ele>
        <time>2022-08-11T06:28:18Z</time>
      </trkpt>
      <trkpt lat="44.49675" lon="1.21246">
        <ele>98.5</ele>
        <time>2022-08-11T06:28:20Z</time>
      </trkpt>
      <trkpt lat="44.49676" lon="1.21239">
        <ele>98.4</ele>
        <time>2022-08-11T06:28:22Z</time>
      </trkpt>
      <trkpt lat="44.49676" lon="1.21231">
        <ele>98.3</ele>
        <time>2022-08-11T06:28:24Z</time>
      </trkpt>
      <trkpt lat="44.49676" lon="1.21223">
        <ele>98.3</ele>
        <time>2022-08-11T06:28:26Z</time>
      </trkpt>
      <trkpt lat="44.49676" lon="1.21214">
        <ele>98.2</ele>
        <time>2022-08-11T06:28:28Z</time>
      </trkpt>
      <trkpt lat="44.49676" lon="1.21204">
        <ele>98.1</ele>
        <time>2022-08-11T06:28:30Z</time>
      </trkpt>
      <trkpt lat="44.49676" lon="1.21193">
        <ele>98</ele>
        <time>2022-08-11T06:28:32Z</time>
      </trkpt>
      <trkpt lat="44.49675" lon="1.21183">
        <ele>97.9</ele>
        <time>2022-08-11T06:28:34Z</time>
      </trkpt>
      <trkpt lat="44.49675" lon="1.21172">
        <ele>97.8</ele>
        <time>2022-08-11T06:28:36Z</time>
      </trkpt>
      <trkpt lat="44.49674" lon="1.21161">
        <ele>97.7</ele>
        <time>2022-08-11T06:28:38Z</time>
      </trkpt>
      <trkpt lat="44.49674" lon="1.2115">
        <ele>97.7</ele>
        <time>2022-08-11T06:28:40Z</time>
      </trkpt>
      <trkpt lat="44.49674" lon="1.21139">
        <ele>97.8</ele>
        <time>2022-08-11T06:28:42Z</time>
      </trkpt>
      <trkpt lat="44.49674" lon="1.21128">
        <ele>97.8</ele>
        <time>2022-08-11T06:28:44Z</time>
      </trkpt>
      <trkpt lat="44.49673" lon="1.21116">
        <ele>97.8</ele>
        <time>2022-08-11T06:28:46Z</time>
      </trkpt>
      <trkpt lat="44.49672" lon="1.21104">
        <ele>97.8</ele>
        <time>2022-08-11T06:28:48Z</time>
      </trkpt>
      <trkpt lat="44.49672" lon="1.21093">
        <ele>97.8</ele>
        <time>2022-08-11T06:28:50Z</time>
      </trkpt>
      <trkpt lat="44.49672" lon="1.21081">
        <ele>97.8</ele>
        <time>2022-08-11T06:28:52Z</time>
      </trkpt>
      <trkpt lat="44.49671" lon="1.2107">
        <ele>97.8</ele>
        <time>2022-08-11T06:28:54Z</time>
      </trkpt>
      <trkpt lat="44.4967" lon="1.21059">
        <ele>97.9</ele>
        <time>2022-08-11T06:28:56Z</time>
      </trkpt>
      <trkpt lat="44.4967" lon="1.21048">
        <ele>97.9</ele>
        <time>2022-08-11T06:28:58Z</time>
      </trkpt>
      <trkpt lat="44.4967" lon="1.21037">
        <ele>97.9</ele>
        <time>2022-08-11T06:29:00Z</time>
      </trkpt>
      <trkpt lat="44.49669" lon="1.21026">
        <ele>97.9</ele>
        <time>2022-08-11T06:29:02Z</time>
      </trkpt>
      <trkpt lat="44.49669" lon="1.21015">
        <ele>97.9</ele>
        <time>2022-08-11T06:29:04Z</time>
      </trkpt>
      <trkpt lat="44.49668" lon="1.21003">
        <ele>98</ele>
        <time>2022-08-11T06:29:06Z</time>
      </trkpt>
      <trkpt lat="44.49667" lon="1.20992">
        <ele>97.9</ele>
        <time>2022-08-11T06:29:08Z</time>
      </trkpt>
      <trkpt lat="44.49666" lon="1.2098">
        <ele>97.8</ele>
        <time>2022-08-11T06:29:10Z</time>
      </trkpt>
      <trkpt lat="44.49664" lon="1.20969">
        <ele>97.7</ele>
        <time>2022-08-11T06:29:12Z</time>
      </trkpt>
      <trkpt lat="44.49663" lon="1.20957">
        <ele>97.6</ele>
        <time>2022-08-11T06:29:14Z</time>
      </trkpt>
      <trkpt lat="44.49661" lon="1.20945">
        <ele>97.5</ele>
        <time>2022-08-11T06:29:16Z</time>
      </trkpt>
      <trkpt lat="44.49659" lon="1.20934">
        <ele>97.5</ele>
        <time>2022-08-11T06:29:18Z</time>
      </trkpt>
      <trkpt lat="44.49657" lon="1.20923">
        <ele>97.4</ele>
        <time>2022-08-11T06:29:20Z</time>
      </trkpt>
      <trkpt lat="44.49655" lon="1.20911">
        <ele>97.4</ele>
        <time>2022-08-11T06:29:22Z</time>
      </trkpt>
      <trkpt lat="44.49653" lon="1.209">
        <ele>97.4</ele>
        <time>2022-08-11T06:29:24Z</time>
      </trkpt>
      <trkpt lat="44.4965" lon="1.20888">
        <ele>97.4</ele>
        <time>2022-08-11T06:29:26Z</time>
      </trkpt>
      <trkpt lat="44.49648" lon="1.20877">
        <ele>97.5</ele>
        <time>2022-08-11T06:29:28Z</time>
      </trkpt>
      <trkpt lat="44.49646" lon="1.20867">
        <ele>97.6</ele>
        <time>2022-08-11T06:29:30Z</time>
      </trkpt>
      <trkpt lat="44.49644" lon="1.20855">
        <ele>97.7</ele>
        <time>2022-08-11T06:29:32Z</time>
      </trkpt>
      <trkpt lat="44.49642" lon="1.20843">
        <ele>97.8</ele>
        <time>2022-08-11T06:29:34Z</time>
      </trkpt>
      <trkpt lat="44.4964" lon="1.20831">
        <ele>97.9</ele>
        <time>2022-08-11T06:29:36Z</time>
      </trkpt>
      <trkpt lat="44.49637" lon="1.20819">
        <ele>97.9</ele>
        <time>2022-08-11T06:29:38Z</time>
      </trkpt>
      <trkpt lat="44.49635" lon="1.20808">
        <ele>98</ele>
        <time>2022-08-11T06:29:40Z</time>
      </trkpt>
      <trkpt lat="44.49633" lon="1.20796">
        <ele>98</ele>
        <time>2022-08-11T06:29:42Z</time>
      </trkpt>
      <trkpt lat="44.49631" lon="1.20783">
        <ele>98</ele>
        <time>2022-08-11T06:29:44Z</time>
      </trkpt>
      <trkpt lat="44.49629" lon="1.20771">
        <ele>98</ele>
        <time>2022-08-11T06:29:46Z</time>
      </trkpt>
      <trkpt lat="44.49625" lon="1.2076">
        <ele>98.1</ele>
        <time>2022-08-11T06:29:48Z</time>
      </trkpt>
      <trkpt lat="44.49622" lon="1.20747">
        <ele>98.2</ele>
        <time>2022-08-11T06:29:50Z</time>
      </trkpt>
      <trkpt lat="44.49618" lon="1.20735">
        <ele>98.4</ele>
        <time>2022-08-11T06:29:52Z</time>
      </trkpt>
      <trkpt lat="44.49614" lon="1.20722">
        <ele>98.6</ele>
        <time>2022-08-11T06:29:54Z</time>
      </trkpt>
      <trkpt lat="44.4961" lon="1.20711">
        <ele>98.8</ele>
        <time>2022-08-11T06:29:56Z</time>
      </trkpt>
      <trkpt lat="44.49606" lon="1.20698">
        <ele>98.9</ele>
        <time>2022-08-11T06:29:58Z</time>
      </trkpt>
      <trkpt lat="44.49602" lon="1.20686">
        <ele>99.1</ele>
        <time>2022-08-11T06:30:00Z</time>
      </trkpt>
      <trkpt lat="44.49597" lon="1.20675">
        <ele>99.2</ele>
        <time>2022-08-11T06:30:02Z</time>
      </trkpt>
      <trkpt lat="44.49592" lon="1.20664">
        <ele>99.4</ele>
        <time>2022-08-11T06:30:04Z</time>
      </trkpt>
      <trkpt lat="44.49588" lon="1.20654">
        <ele>99.4</ele>
        <time>2022-08-11T06:30:06Z</time>
      </trkpt>
      <trkpt lat="44.49584" lon="1.20645">
        <ele>99.5</ele>
        <time>2022-08-11T06:30:08Z</time>
      </trkpt>
      <trkpt lat="44.4958" lon="1.20637">
        <ele>99.5</ele>
        <time>2022-08-11T06:30:10Z</time>
      </trkpt>
      <trkpt lat="44.49576" lon="1.2063">
        <ele>99.6</ele>
        <time>2022-08-11T06:30:12Z</time>
      </trkpt>
      <trkpt lat="44.49572" lon="1.20624">
        <ele>99.6</ele>
        <time>2022-08-11T06:30:14Z</time>
      </trkpt>
      <trkpt lat="44.49568" lon="1.20619">
        <ele>99.6</ele>
        <time>2022-08-11T06:30:16Z</time>
      </trkpt>
      <trkpt lat="44.49563" lon="1.20612">
        <ele>99.6</ele>
        <time>2022-08-11T06:30:18Z</time>
      </trkpt>
      <trkpt lat="44.49559" lon="1.20606">
        <ele>99.5</ele>
        <time>2022-08-11T06:30:20Z</time>
      </trkpt>
      <trkpt lat="44.49554" lon="1.206">
        <ele>99.5</ele>
        <time>2022-08-11T06:30:22Z</time>
      </trkpt>
      <trkpt lat="44.49551" lon="1.20595">
        <ele>99.3</ele>
        <time>2022-08-11T06:30:24Z</time>
      </trkpt>
      <trkpt lat="44.49547" lon="1.2059">
        <ele>99.2</ele>
        <time>2022-08-11T06:30:26Z</time>
      </trkpt>
      <trkpt lat="44.49543" lon="1.20585">
        <ele>99.1</ele>
        <time>2022-08-11T06:30:28Z</time>
      </trkpt>
      <trkpt lat="44.49539" lon="1.20581">
        <ele>99</ele>
        <time>2022-08-11T06:30:30Z</time>
      </trkpt>
      <trkpt lat="44.49534" lon="1.20576">
        <ele>98.9</ele>
        <time>2022-08-11T06:30:32Z</time>
      </trkpt>
      <trkpt lat="44.49529" lon="1.20571">
        <ele>98.9</ele>
        <time>2022-08-11T06:30:34Z</time>
      </trkpt>
      <trkpt lat="44.49524" lon="1.20566">
        <ele>98.9</ele>
        <time>2022-08-11T06:30:36Z</time>
      </trkpt>
      <trkpt lat="44.4952" lon="1.2056">
        <ele>98.8</ele>
        <time>2022-08-11T06:30:38Z</time>
      </trkpt>
      <trkpt lat="44.49515" lon="1.20555">
        <ele>98.7</ele>
        <time>2022-08-11T06:30:40Z</time>
      </trkpt>
      <trkpt lat="44.49511" lon="1.2055">
        <ele>98.6</ele>
        <time>2022-08-11T06:30:42Z</time>
      </trkpt>
      <trkpt lat="44.49505" lon="1.20545">
        <ele>98.5</ele>
        <time>2022-08-11T06:30:44Z</time>
      </trkpt>
      <trkpt lat="44.495" lon="1.2054">
        <ele>98.4</ele>
        <time>2022-08-11T06:30:46Z</time>
      </trkpt>
      <trkpt lat="44.49495" lon="1.20535">
        <ele>98.4</ele>
        <time>2022-08-11T06:30:48Z</time>
      </trkpt>
      <trkpt lat="44.49491" lon="1.20529">
        <ele>98.3</ele>
        <time>2022-08-11T06:30:50Z</time>
      </trkpt>
      <trkpt lat="44.49485" lon="1.20524">
        <ele>98.3</ele>
        <time>2022-08-11T06:30:52Z</time>
      </trkpt>
      <trkpt lat="44.49481" lon="1.20518">
        <ele>98.3</ele>
        <time>2022-08-11T06:30:54Z</time>
      </trkpt>
      <trkpt lat="44.49475" lon="1.20513">
        <ele>98.3</ele>
        <time>2022-08-11T06:30:56Z</time>
      </trkpt>
      <trkpt lat="44.4947" lon="1.20507">
        <ele>98.3</ele>
        <time>2022-08-11T06:30:58Z</time>
      </trkpt>
      <trkpt lat="44.49465" lon="1.20501">
        <ele>98.3</ele>
        <time>2022-08-11T06:31:00Z</time>
      </trkpt>
      <trkpt lat="44.49459" lon="1.20495">
        <ele>98.4</ele>
        <time>2022-08-11T06:31:02Z</time>
      </trkpt>
      <trkpt lat="44.49454" lon="1.20489">
        <ele>98.5</ele>
        <time>2022-08-11T06:31:04Z</time>
      </trkpt>
      <trkpt lat="44.49449" lon="1.20484">
        <ele>98.6</ele>
        <time>2022-08-11T06:31:06Z</time>
      </trkpt>
      <trkpt lat="44.49443" lon="1.20479">
        <ele>98.7</ele>
        <time>2022-08-11T06:31:08Z</time>
      </trkpt>
      <trkpt lat="44.49438" lon="1.20474">
        <ele>98.8</ele>
        <time>2022-08-11T06:31:10Z</time>
      </trkpt>
      <trkpt lat="44.49433" lon="1.20468">
        <ele>99</ele>
        <time>2022-08-11T06:31:12Z</time>
      </trkpt>
      <trkpt lat="44.49427" lon="1.20462">
        <ele>99.1</ele>
        <time>2022-08-11T06:31:14Z</time>
      </trkpt>
      <trkpt lat="44.49421" lon="1.20456">
        <ele>99.3</ele>
        <time>2022-08-11T06:31:16Z</time>
      </trkpt>
      <trkpt lat="44.49416" lon="1.2045">
        <ele>99.4</ele>
        <time>2022-08-11T06:31:18Z</time>
      </trkpt>
      <trkpt lat="44.49411" lon="1.20443">
        <ele>99.3</ele>
        <time>2022-08-11T06:31:20Z</time>
      </trkpt>
      <trkpt lat="44.49405" lon="1.20436">
        <ele>99.2</ele>
        <time>2022-08-11T06:31:22Z</time>
      </trkpt>
      <trkpt lat="44.49399" lon="1.20431">
        <ele>99.2</ele>
        <time>2022-08-11T06:31:24Z</time>
      </trkpt>
      <trkpt lat="44.49393" lon="1.20424">
        <ele>99.1</ele>
        <time>2022-08-11T06:31:26Z</time>
      </trkpt>
      <trkpt lat="44.49388" lon="1.20418">
        <ele>99</ele>
        <time>2022-08-11T06:31:28Z</time>
      </trkpt>
      <trkpt lat="44.49382" lon="1.20413">
        <ele>98.9</ele>
        <time>2022-08-11T06:31:30Z</time>
      </trkpt>
      <trkpt lat="44.49376" lon="1.20407">
        <ele>98.8</ele>
        <time>2022-08-11T06:31:32Z</time>
      </trkpt>
      <trkpt lat="44.49371" lon="1.20401">
        <ele>98.7</ele>
        <time>2022-08-11T06:31:34Z</time>
      </trkpt>
      <trkpt lat="44.49366" lon="1.20395">
        <ele>98.5</ele>
        <time>2022-08-11T06:31:36Z</time>
      </trkpt>
      <trkpt lat="44.49361" lon="1.20389">
        <ele>98.5</ele>
        <time>2022-08-11T06:31:38Z</time>
      </trkpt>
      <trkpt lat="44.49355" lon="1.20384">
        <ele>98.4</ele>
        <time>2022-08-11T06:31:40Z</time>
      </trkpt>
      <trkpt lat="44.49349" lon="1.20377">
        <ele>98.3</ele>
        <time>2022-08-11T06:31:42Z</time>
      </trkpt>
      <trkpt lat="44.49344" lon="1.20371">
        <ele>98.3</ele>
        <time>2022-08-11T06:31:44Z</time>
      </trkpt>
      <trkpt lat="44.49338" lon="1.20365">
        <ele>98.3</ele>
        <time>2022-08-11T06:31:46Z</time>
      </trkpt>
      <trkpt lat="44.49332" lon="1.20359">
        <ele>98.3</ele>
        <time>2022-08-11T06:31:48Z</time>
      </trkpt>
      <trkpt lat="44.49327" lon="1.20353">
        <ele>98.4</ele>
        <time>2022-08-11T06:31:50Z</time>
      </trkpt>
      <trkpt lat="44.49321" lon="1.20347">
        <ele>98.5</ele>
        <time>2022-08-11T06:31:52Z</time>
      </trkpt>
      <trkpt lat="44.49315" lon="1.2034">
        <ele>98.7</ele>
        <time>2022-08-11T06:31:54Z</time>
      </trkpt>
      <trkpt lat="44.49309" lon="1.20334">
        <ele>98.9</ele>
        <time>2022-08-11T06:31:56Z</time>
      </trkpt>
      <trkpt lat="44.49303" lon="1.20327">
        <ele>98.9</ele>
        <time>2022-08-11T06:31:58Z</time>
      </trkpt>
      <trkpt lat="44.49297" lon="1.2032">
        <ele>99</ele>
        <time>2022-08-11T06:32:00Z</time>
      </trkpt>
      <trkpt lat="44.4929" lon="1.20313">
        <ele>99.1</ele>
        <time>2022-08-11T06:32:02Z</time>
      </trkpt>
      <trkpt lat="44.49284" lon="1.20307">
        <ele>99.1</ele>
        <time>2022-08-11T06:32:04Z</time>
      </trkpt>
      <trkpt lat="44.49277" lon="1.203">
        <ele>99.2</ele>
        <time>2022-08-11T06:32:06Z</time>
      </trkpt>
      <trkpt lat="44.4927" lon="1.20293">
        <ele>99.3</ele>
        <time>2022-08-11T06:32:08Z</time>
      </trkpt>
      <trkpt lat="44.49263" lon="1.20285">
        <ele>99.4</ele>
        <time>2022-08-11T06:32:10Z</time>
      </trkpt>
      <trkpt lat="44.49256" lon="1.20278">
        <ele>99.4</ele>
        <time>2022-08-11T06:32:12Z</time>
      </trkpt>
      <trkpt lat="44.49249" lon="1.20271">
        <ele>99.5</ele>
        <time>2022-08-11T06:32:14Z</time>
      </trkpt>
      <trkpt lat="44.49242" lon="1.20264">
        <ele>99.2</ele>
        <time>2022-08-11T06:32:16Z</time>
      </trkpt>
      <trkpt lat="44.49235" lon="1.20257">
        <ele>99</ele>
        <time>2022-08-11T06:32:18Z</time>
      </trkpt>
      <trkpt lat="44.49228" lon="1.2025">
        <ele>98.7</ele>
        <time>2022-08-11T06:32:20Z</time>
      </trkpt>
      <trkpt lat="44.49221" lon="1.20243">
        <ele>98.5</ele>
        <time>2022-08-11T06:32:22Z</time>
      </trkpt>
      <trkpt lat="44.49214" lon="1.20236">
        <ele>98.4</ele>
        <time>2022-08-11T06:32:24Z</time>
      </trkpt>
      <trkpt lat="44.49207" lon="1.2023">
        <ele>98.3</ele>
        <time>2022-08-11T06:32:26Z</time>
      </trkpt>
      <trkpt lat="44.492" lon="1.20222">
        <ele>98.2</ele>
        <time>2022-08-11T06:32:28Z</time>
      </trkpt>
      <trkpt lat="44.49193" lon="1.20215">
        <ele>98.2</ele>
        <time>2022-08-11T06:32:30Z</time>
      </trkpt>
      <trkpt lat="44.49185" lon="1.20208">
        <ele>98.3</ele>
        <time>2022-08-11T06:32:32Z</time>
      </trkpt>
      <trkpt lat="44.49178" lon="1.20201">
        <ele>98.4</ele>
        <time>2022-08-11T06:32:34Z</time>
      </trkpt>
      <trkpt lat="44.49171" lon="1.20194">
        <ele>98.6</ele>
        <time>2022-08-11T06:32:36Z</time>
      </trkpt>
      <trkpt lat="44.49164" lon="1.20187">
        <ele>98.7</ele>
        <time>2022-08-11T06:32:38Z</time>
      </trkpt>
      <trkpt lat="44.49157" lon="1.20184">
        <ele>98.8</ele>
        <time>2022-08-11T06:32:40Z</time>
      </trkpt>
      <trkpt lat="44.49152" lon="1.20182">
        <ele>98.7</ele>
        <time>2022-08-11T06:32:42Z</time>
      </trkpt>
      <trkpt lat="44.49152" lon="1.20182">
        <ele>98.7</ele>
        <time>2022-08-11T06:32:44Z</time>
      </trkpt>
      <trkpt lat="44.49152" lon="1.20182">
        <ele>98.7</ele>
        <time>2022-08-11T06:32:46Z</time>
      </trkpt>
      <trkpt lat="44.49152" lon="1.20182">
        <ele>98.7</ele>
        <time>2022-08-11T06:32:48Z</time>
      </trkpt>
      <trkpt lat="44.49152" lon="1.20182">
        <ele>98.7</ele>
        <time>2022-08-11T06:32:50Z</time>
      </trkpt>
      <trkpt lat="44.49152" lon="1.20182">
        <ele>98.7</ele>
        <time>2022-08-11T06:32:52Z</time>
      </trkpt>
      <trkpt lat="44.49152" lon="1.20182">
        <ele>98.7</ele>
        <time>2022-08-11T06:33:22Z</time>
      </trkpt>
      <trkpt lat="44.49151" lon="1.20181">
        <ele>98.7</ele>
        <time>2022-08-11T06:33:24Z</time>
      </trkpt>
      <trkpt lat="44.4915" lon="1.20179">
        <ele>98.7</ele>
        <time>2022-08-11T06:33:26Z</time>
      </trkpt>
      <trkpt lat="44.49149" lon="1.20176">
        <ele>98.7</ele>
        <time>2022-08-11T06:33:28Z</time>
      </trkpt>
      <trkpt lat="44.49148" lon="1.20173">
        <ele>98.8</ele>
        <time>2022-08-11T06:33:30Z</time>
      </trkpt>
      <trkpt lat="44.49145" lon="1.20169">
        <ele>98.7</ele>
        <time>2022-08-11T06:33:32Z</time>
      </trkpt>
      <trkpt lat="44.49142" lon="1.20166">
        <ele>98.7</ele>
        <time>2022-08-11T06:33:34Z</time>
      </trkpt>
      <trkpt lat="44.4914" lon="1.20163">
        <ele>98.6</ele>
        <time>2022-08-11T06:33:36Z</time>
      </trkpt>
      <trkpt lat="44.49138" lon="1.20161">
        <ele>98.5</ele>
        <time>2022-08-11T06:33:38Z</time>
      </trkpt>
      <trkpt lat="44.49136" lon="1.2016">
        <ele>98.5</ele>
        <time>2022-08-11T06:33:40Z</time>
      </trkpt>
      <trkpt lat="44.49135" lon="1.20158">
        <ele>98.4</ele>
        <time>2022-08-11T06:33:42Z</time>
      </trkpt>
      <trkpt lat="44.49136" lon="1.20158">
        <ele>98.4</ele>
        <time>2022-08-11T06:33:44Z</time>
      </trkpt>
      <trkpt lat="44.49136" lon="1.20158">
        <ele>98.4</ele>
        <time>2022-08-11T06:33:46Z</time>
      </trkpt>
      <trkpt lat="44.49136" lon="1.20158">
        <ele>98.4</ele>
        <time>2022-08-11T06:33:50Z</time>
      </trkpt>
      <trkpt lat="44.49123" lon="1.20147">
        <ele>98.1</ele>
        <time>2022-08-11T06:34:42Z</time>
      </trkpt>
      <trkpt lat="44.49118" lon="1.20143">
        <ele>98.1</ele>
        <time>2022-08-11T06:34:44Z</time>
      </trkpt>
      <trkpt lat="44.49113" lon="1.20138">
        <ele>98</ele>
        <time>2022-08-11T06:34:46Z</time>
      </trkpt>
      <trkpt lat="44.49108" lon="1.20134">
        <ele>97.9</ele>
        <time>2022-08-11T06:34:48Z</time>
      </trkpt>
      <trkpt lat="44.49103" lon="1.20128">
        <ele>97.9</ele>
        <time>2022-08-11T06:34:50Z</time>
      </trkpt>
      <trkpt lat="44.49097" lon="1.20123">
        <ele>97.9</ele>
        <time>2022-08-11T06:34:52Z</time>
      </trkpt>
      <trkpt lat="44.49091" lon="1.20117">
        <ele>97.9</ele>
        <time>2022-08-11T06:34:54Z</time>
      </trkpt>
      <trkpt lat="44.49086" lon="1.20111">
        <ele>98</ele>
        <time>2022-08-11T06:34:56Z</time>
      </trkpt>
      <trkpt lat="44.4908" lon="1.20106">
        <ele>98</ele>
        <time>2022-08-11T06:34:58Z</time>
      </trkpt>
      <trkpt lat="44.49075" lon="1.201">
        <ele>98</ele>
        <time>2022-08-11T06:35:00Z</time>
      </trkpt>
      <trkpt lat="44.49069" lon="1.20095">
        <ele>98</ele>
        <time>2022-08-11T06:35:02Z</time>
      </trkpt>
      <trkpt lat="44.49063" lon="1.20088">
        <ele>98</ele>
        <time>2022-08-11T06:35:04Z</time>
      </trkpt>
      <trkpt lat="44.49057" lon="1.20082">
        <ele>98</ele>
        <time>2022-08-11T06:35:06Z</time>
      </trkpt>
      <trkpt lat="44.4905" lon="1.20075">
        <ele>97.8</ele>
        <time>2022-08-11T06:35:08Z</time>
      </trkpt>
      <trkpt lat="44.49044" lon="1.20069">
        <ele>97.7</ele>
        <time>2022-08-11T06:35:10Z</time>
      </trkpt>
      <trkpt lat="44.49038" lon="1.20062">
        <ele>97.7</ele>
        <time>2022-08-11T06:35:12Z</time>
      </trkpt>
      <trkpt lat="44.49031" lon="1.20056">
        <ele>97.6</ele>
        <time>2022-08-11T06:35:14Z</time>
      </trkpt>
      <trkpt lat="44.49025" lon="1.20049">
        <ele>97.6</ele>
        <time>2022-08-11T06:35:16Z</time>
      </trkpt>
      <trkpt lat="44.49018" lon="1.20043">
        <ele>97.7</ele>
        <time>2022-08-11T06:35:18Z</time>
      </trkpt>
      <trkpt lat="44.49012" lon="1.20036">
        <ele>97.8</ele>
        <time>2022-08-11T06:35:20Z</time>
      </trkpt>
      <trkpt lat="44.49006" lon="1.20029">
        <ele>97.9</ele>
        <time>2022-08-11T06:35:22Z</time>
      </trkpt>
      <trkpt lat="44.48999" lon="1.20023">
        <ele>98</ele>
        <time>2022-08-11T06:35:24Z</time>
      </trkpt>
      <trkpt lat="44.48992" lon="1.20018">
        <ele>98.1</ele>
        <time>2022-08-11T06:35:26Z</time>
      </trkpt>
      <trkpt lat="44.48985" lon="1.20012">
        <ele>98.2</ele>
        <time>2022-08-11T06:35:28Z</time>
      </trkpt>
      <trkpt lat="44.48978" lon="1.20005">
        <ele>98.2</ele>
        <time>2022-08-11T06:35:30Z</time>
      </trkpt>
      <trkpt lat="44.48972" lon="1.19999">
        <ele>98.3</ele>
        <time>2022-08-11T06:35:32Z</time>
      </trkpt>
      <trkpt lat="44.48966" lon="1.19991">
        <ele>98.1</ele>
        <time>2022-08-11T06:35:34Z</time>
      </trkpt>
      <trkpt lat="44.48959" lon="1.19984">
        <ele>98</ele>
        <time>2022-08-11T06:35:36Z</time>
      </trkpt>
      <trkpt lat="44.48952" lon="1.19977">
        <ele>97.9</ele>
        <time>2022-08-11T06:35:38Z</time>
      </trkpt>
      <trkpt lat="44.48945" lon="1.1997">
        <ele>97.8</ele>
        <time>2022-08-11T06:35:40Z</time>
      </trkpt>
      <trkpt lat="44.48937" lon="1.19963">
        <ele>97.7</ele>
        <time>2022-08-11T06:35:42Z</time>
      </trkpt>
      <trkpt lat="44.48929" lon="1.19956">
        <ele>97.7</ele>
        <time>2022-08-11T06:35:44Z</time>
      </trkpt>
      <trkpt lat="44.48921" lon="1.19949">
        <ele>97.7</ele>
        <time>2022-08-11T06:35:46Z</time>
      </trkpt>
      <trkpt lat="44.48913" lon="1.19941">
        <ele>97.6</ele>
        <time>2022-08-11T06:35:48Z</time>
      </trkpt>
      <trkpt lat="44.48905" lon="1.19934">
        <ele>97.4</ele>
        <time>2022-08-11T06:35:50Z</time>
      </trkpt>
      <trkpt lat="44.48897" lon="1.19927">
        <ele>97.2</ele>
        <time>2022-08-11T06:35:52Z</time>
      </trkpt>
      <trkpt lat="44.48889" lon="1.19919">
        <ele>97.1</ele>
        <time>2022-08-11T06:35:54Z</time>
      </trkpt>
      <trkpt lat="44.48882" lon="1.19912">
        <ele>96.8</ele>
        <time>2022-08-11T06:35:56Z</time>
      </trkpt>
      <trkpt lat="44.48874" lon="1.19905">
        <ele>96.4</ele>
        <time>2022-08-11T06:35:58Z</time>
      </trkpt>
      <trkpt lat="44.48866" lon="1.19898">
        <ele>96.1</ele>
        <time>2022-08-11T06:36:00Z</time>
      </trkpt>
      <trkpt lat="44.48857" lon="1.19892">
        <ele>95.8</ele>
        <time>2022-08-11T06:36:02Z</time>
      </trkpt>
      <trkpt lat="44.48848" lon="1.19887">
        <ele>95.6</ele>
        <time>2022-08-11T06:36:04Z</time>
      </trkpt>
      <trkpt lat="44.48839" lon="1.19881">
        <ele>95.3</ele>
        <time>2022-08-11T06:36:06Z</time>
      </trkpt>
      <trkpt lat="44.4883" lon="1.19877">
        <ele>95.1</ele>
        <time>2022-08-11T06:36:08Z</time>
      </trkpt>
      <trkpt lat="44.48819" lon="1.19873">
        <ele>95.1</ele>
        <time>2022-08-11T06:36:10Z</time>
      </trkpt>
      <trkpt lat="44.48809" lon="1.1987">
        <ele>95.1</ele>
        <time>2022-08-11T06:36:12Z</time>
      </trkpt>
      <trkpt lat="44.48798" lon="1.19868">
        <ele>95.1</ele>
        <time>2022-08-11T06:36:14Z</time>
      </trkpt>
      <trkpt lat="44.48787" lon="1.19866">
        <ele>95.1</ele>
        <time>2022-08-11T06:36:16Z</time>
      </trkpt>
      <trkpt lat="44.48777" lon="1.19864">
        <ele>95.2</ele>
        <time>2022-08-11T06:36:18Z</time>
      </trkpt>
      <trkpt lat="44.48766" lon="1.19863">
        <ele>95.2</ele>
        <time>2022-08-11T06:36:20Z</time>
      </trkpt>
      <trkpt lat="44.48755" lon="1.19861">
        <ele>95.3</ele>
        <time>2022-08-11T06:36:22Z</time>
      </trkpt>
      <trkpt lat="44.48745" lon="1.1986">
        <ele>95.2</ele>
        <time>2022-08-11T06:36:24Z</time>
      </trkpt>
      <trkpt lat="44.48734" lon="1.19858">
        <ele>95</ele>
        <time>2022-08-11T06:36:26Z</time>
      </trkpt>
      <trkpt lat="44.48724" lon="1.19857">
        <ele>94.7</ele>
        <time>2022-08-11T06:36:28Z</time>
      </trkpt>
      <trkpt lat="44.48713" lon="1.19856">
        <ele>94.5</ele>
        <time>2022-08-11T06:36:30Z</time>
      </trkpt>
      <trkpt lat="44.48702" lon="1.19855">
        <ele>94.3</ele>
        <time>2022-08-11T06:36:32Z</time>
      </trkpt>
      <trkpt lat="44.48691" lon="1.19854">
        <ele>94.1</ele>
        <time>2022-08-11T06:36:34Z</time>
      </trkpt>
      <trkpt lat="44.48682" lon="1.19854">
        <ele>94</ele>
        <time>2022-08-11T06:36:36Z</time>
      </trkpt>
      <trkpt lat="44.48672" lon="1.19853">
        <ele>93.8</ele>
        <time>2022-08-11T06:36:38Z</time>
      </trkpt>
      <trkpt lat="44.48662" lon="1.19852">
        <ele>93.8</ele>
        <time>2022-08-11T06:36:40Z</time>
      </trkpt>
      <trkpt lat="44.48652" lon="1.19852">
        <ele>94</ele>
        <time>2022-08-11T06:36:42Z</time>
      </trkpt>
      <trkpt lat="44.48642" lon="1.19852">
        <ele>94.2</ele>
        <time>2022-08-11T06:36:44Z</time>
      </trkpt>
      <trkpt lat="44.48633" lon="1.19852">
        <ele>94.4</ele>
        <time>2022-08-11T06:36:46Z</time>
      </trkpt>
      <trkpt lat="44.48623" lon="1.19852">
        <ele>94.6</ele>
        <time>2022-08-11T06:36:48Z</time>
      </trkpt>
      <trkpt lat="44.48614" lon="1.19852">
        <ele>94.8</ele>
        <time>2022-08-11T06:36:50Z</time>
      </trkpt>
      <trkpt lat="44.48606" lon="1.19851">
        <ele>94.9</ele>
        <time>2022-08-11T06:36:52Z</time>
      </trkpt>
      <trkpt lat="44.48597" lon="1.1985">
        <ele>95.1</ele>
        <time>2022-08-11T06:36:54Z</time>
      </trkpt>
      <trkpt lat="44.48588" lon="1.19849">
        <ele>95.3</ele>
        <time>2022-08-11T06:36:56Z</time>
      </trkpt>
      <trkpt lat="44.4858" lon="1.19848">
        <ele>95.3</ele>
        <time>2022-08-11T06:36:58Z</time>
      </trkpt>
      <trkpt lat="44.48571" lon="1.19848">
        <ele>95.2</ele>
        <time>2022-08-11T06:37:00Z</time>
      </trkpt>
      <trkpt lat="44.48563" lon="1.19847">
        <ele>95.1</ele>
        <time>2022-08-11T06:37:02Z</time>
      </trkpt>
      <trkpt lat="44.48556" lon="1.19848">
        <ele>95</ele>
        <time>2022-08-11T06:37:04Z</time>
      </trkpt>
      <trkpt lat="44.48549" lon="1.19847">
        <ele>94.9</ele>
        <time>2022-08-11T06:37:06Z</time>
      </trkpt>
      <trkpt lat="44.48541" lon="1.19846">
        <ele>94.7</ele>
        <time>2022-08-11T06:37:08Z</time>
      </trkpt>
      <trkpt lat="44.48533" lon="1.19846">
        <ele>94.6</ele>
        <time>2022-08-11T06:37:10Z</time>
      </trkpt>
      <trkpt lat="44.48526" lon="1.19845">
        <ele>94.5</ele>
        <time>2022-08-11T06:37:12Z</time>
      </trkpt>
      <trkpt lat="44.48519" lon="1.19844">
        <ele>94.4</ele>
        <time>2022-08-11T06:37:14Z</time>
      </trkpt>
      <trkpt lat="44.4851" lon="1.19842">
        <ele>94.2</ele>
        <time>2022-08-11T06:37:16Z</time>
      </trkpt>
      <trkpt lat="44.48503" lon="1.19841">
        <ele>94.1</ele>
        <time>2022-08-11T06:37:18Z</time>
      </trkpt>
      <trkpt lat="44.48495" lon="1.19841">
        <ele>94.1</ele>
        <time>2022-08-11T06:37:20Z</time>
      </trkpt>
      <trkpt lat="44.48487" lon="1.19839">
        <ele>94</ele>
        <time>2022-08-11T06:37:22Z</time>
      </trkpt>
      <trkpt lat="44.48479" lon="1.19837">
        <ele>94</ele>
        <time>2022-08-11T06:37:24Z</time>
      </trkpt>
      <trkpt lat="44.48472" lon="1.19835">
        <ele>94</ele>
        <time>2022-08-11T06:37:26Z</time>
      </trkpt>
      <trkpt lat="44.48464" lon="1.19832">
        <ele>94</ele>
        <time>2022-08-11T06:37:28Z</time>
      </trkpt>
      <trkpt lat="44.48456" lon="1.1983">
        <ele>94</ele>
        <time>2022-08-11T06:37:30Z</time>
      </trkpt>
      <trkpt lat="44.48448" lon="1.19827">
        <ele>94</ele>
        <time>2022-08-11T06:37:32Z</time>
      </trkpt>
      <trkpt lat="44.48439" lon="1.19825">
        <ele>94.1</ele>
        <time>2022-08-11T06:37:34Z</time>
      </trkpt>
      <trkpt lat="44.48431" lon="1.19824">
        <ele>94.1</ele>
        <time>2022-08-11T06:37:36Z</time>
      </trkpt>
      <trkpt lat="44.48422" lon="1.19822">
        <ele>94.1</ele>
        <time>2022-08-11T06:37:38Z</time>
      </trkpt>
      <trkpt lat="44.48414" lon="1.19821">
        <ele>94.2</ele>
        <time>2022-08-11T06:37:40Z</time>
      </trkpt>
      <trkpt lat="44.48405" lon="1.19822">
        <ele>94.2</ele>
        <time>2022-08-11T06:37:42Z</time>
      </trkpt>
      <trkpt lat="44.48397" lon="1.19822">
        <ele>94.3</ele>
        <time>2022-08-11T06:37:44Z</time>
      </trkpt>
      <trkpt lat="44.48389" lon="1.19823">
        <ele>94.3</ele>
        <time>2022-08-11T06:37:46Z</time>
      </trkpt>
      <trkpt lat="44.4838" lon="1.19824">
        <ele>94.4</ele>
        <time>2022-08-11T06:37:48Z</time>
      </trkpt>
      <trkpt lat="44.48372" lon="1.19825">
        <ele>94.5</ele>
        <time>2022-08-11T06:37:50Z</time>
      </trkpt>
      <trkpt lat="44.48363" lon="1.19825">
        <ele>94.5</ele>
        <time>2022-08-11T06:37:52Z</time>
      </trkpt>
      <trkpt lat="44.48355" lon="1.19826">
        <ele>94.6</ele>
        <time>2022-08-11T06:37:54Z</time>
      </trkpt>
      <trkpt lat="44.48347" lon="1.19827">
        <ele>94.7</ele>
        <time>2022-08-11T06:37:56Z</time>
      </trkpt>
      <trkpt lat="44.48338" lon="1.19828">
        <ele>94.8</ele>
        <time>2022-08-11T06:37:58Z</time>
      </trkpt>
      <trkpt lat="44.4833" lon="1.19828">
        <ele>94.8</ele>
        <time>2022-08-11T06:38:00Z</time>
      </trkpt>
      <trkpt lat="44.48321" lon="1.19829">
        <ele>94.6</ele>
        <time>2022-08-11T06:38:02Z</time>
      </trkpt>
      <trkpt lat="44.48313" lon="1.1983">
        <ele>94.4</ele>
        <time>2022-08-11T06:38:04Z</time>
      </trkpt>
      <trkpt lat="44.48305" lon="1.19831">
        <ele>94.3</ele>
        <time>2022-08-11T06:38:06Z</time>
      </trkpt>
      <trkpt lat="44.48297" lon="1.19832">
        <ele>94.1</ele>
        <time>2022-08-11T06:38:08Z</time>
      </trkpt>
      <trkpt lat="44.48288" lon="1.19833">
        <ele>93.9</ele>
        <time>2022-08-11T06:38:10Z</time>
      </trkpt>
      <trkpt lat="44.48279" lon="1.19834">
        <ele>93.7</ele>
        <time>2022-08-11T06:38:12Z</time>
      </trkpt>
      <trkpt lat="44.4827" lon="1.19836">
        <ele>93.5</ele>
        <time>2022-08-11T06:38:14Z</time>
      </trkpt>
      <trkpt lat="44.4826" lon="1.19838">
        <ele>93.3</ele>
        <time>2022-08-11T06:38:16Z</time>
      </trkpt>
      <trkpt lat="44.48251" lon="1.19839">
        <ele>93.1</ele>
        <time>2022-08-11T06:38:18Z</time>
      </trkpt>
      <trkpt lat="44.48242" lon="1.19841">
        <ele>93.1</ele>
        <time>2022-08-11T06:38:20Z</time>
      </trkpt>
      <trkpt lat="44.48232" lon="1.19843">
        <ele>93.1</ele>
        <time>2022-08-11T06:38:22Z</time>
      </trkpt>
      <trkpt lat="44.48222" lon="1.19845">
        <ele>93</ele>
        <time>2022-08-11T06:38:24Z</time>
      </trkpt>
      <trkpt lat="44.48213" lon="1.19846">
        <ele>93</ele>
        <time>2022-08-11T06:38:26Z</time>
      </trkpt>
      <trkpt lat="44.48204" lon="1.19848">
        <ele>93</ele>
        <time>2022-08-11T06:38:28Z</time>
      </trkpt>
      <trkpt lat="44.48194" lon="1.1985">
        <ele>92.9</ele>
        <time>2022-08-11T06:38:30Z</time>
      </trkpt>
      <trkpt lat="44.48185" lon="1.19851">
        <ele>92.9</ele>
        <time>2022-08-11T06:38:32Z</time>
      </trkpt>
      <trkpt lat="44.48175" lon="1.19853">
        <ele>92.8</ele>
        <time>2022-08-11T06:38:34Z</time>
      </trkpt>
      <trkpt lat="44.48166" lon="1.19854">
        <ele>92.7</ele>
        <time>2022-08-11T06:38:36Z</time>
      </trkpt>
      <trkpt lat="44.48157" lon="1.19856">
        <ele>92.7</ele>
        <time>2022-08-11T06:38:38Z</time>
      </trkpt>
      <trkpt lat="44.48148" lon="1.19857">
        <ele>92.6</ele>
        <time>2022-08-11T06:38:40Z</time>
      </trkpt>
      <trkpt lat="44.48138" lon="1.19859">
        <ele>92.6</ele>
        <time>2022-08-11T06:38:42Z</time>
      </trkpt>
      <trkpt lat="44.48129" lon="1.1986">
        <ele>92.5</ele>
        <time>2022-08-11T06:38:44Z</time>
      </trkpt>
      <trkpt lat="44.4812" lon="1.19863">
        <ele>92.5</ele>
        <time>2022-08-11T06:38:46Z</time>
      </trkpt>
      <trkpt lat="44.4811" lon="1.19865">
        <ele>92.5</ele>
        <time>2022-08-11T06:38:48Z</time>
      </trkpt>
      <trkpt lat="44.48102" lon="1.19866">
        <ele>92.4</ele>
        <time>2022-08-11T06:38:50Z</time>
      </trkpt>
      <trkpt lat="44.48093" lon="1.19868">
        <ele>92.4</ele>
        <time>2022-08-11T06:38:52Z</time>
      </trkpt>
      <trkpt lat="44.48085" lon="1.1987">
        <ele>92.4</ele>
        <time>2022-08-11T06:38:54Z</time>
      </trkpt>
      <trkpt lat="44.48076" lon="1.19872">
        <ele>92.5</ele>
        <time>2022-08-11T06:38:56Z</time>
      </trkpt>
      <trkpt lat="44.48067" lon="1.19872">
        <ele>92.5</ele>
        <time>2022-08-11T06:38:58Z</time>
      </trkpt>
      <trkpt lat="44.48058" lon="1.19875">
        <ele>92.5</ele>
        <time>2022-08-11T06:39:00Z</time>
      </trkpt>
      <trkpt lat="44.4805" lon="1.19877">
        <ele>92.5</ele>
        <time>2022-08-11T06:39:02Z</time>
      </trkpt>
      <trkpt lat="44.48041" lon="1.1988">
        <ele>92.6</ele>
        <time>2022-08-11T06:39:04Z</time>
      </trkpt>
      <trkpt lat="44.48033" lon="1.19884">
        <ele>92.6</ele>
        <time>2022-08-11T06:39:06Z</time>
      </trkpt>
      <trkpt lat="44.48024" lon="1.19887">
        <ele>92.6</ele>
        <time>2022-08-11T06:39:08Z</time>
      </trkpt>
      <trkpt lat="44.48015" lon="1.19891">
        <ele>92.7</ele>
        <time>2022-08-11T06:39:10Z</time>
      </trkpt>
      <trkpt lat="44.48006" lon="1.19894">
        <ele>92.7</ele>
        <time>2022-08-11T06:39:12Z</time>
      </trkpt>
      <trkpt lat="44.47997" lon="1.19898">
        <ele>92.8</ele>
        <time>2022-08-11T06:39:14Z</time>
      </trkpt>
      <trkpt lat="44.47988" lon="1.19902">
        <ele>92.8</ele>
        <time>2022-08-11T06:39:16Z</time>
      </trkpt>
      <trkpt lat="44.4798" lon="1.19906">
        <ele>92.9</ele>
        <time>2022-08-11T06:39:18Z</time>
      </trkpt>
      <trkpt lat="44.47971" lon="1.19909">
        <ele>92.9</ele>
        <time>2022-08-11T06:39:20Z</time>
      </trkpt>
      <trkpt lat="44.47962" lon="1.19914">
        <ele>93</ele>
        <time>2022-08-11T06:39:22Z</time>
      </trkpt>
      <trkpt lat="44.47954" lon="1.19919">
        <ele>93</ele>
        <time>2022-08-11T06:39:24Z</time>
      </trkpt>
      <trkpt lat="44.47946" lon="1.19924">
        <ele>93.1</ele>
        <time>2022-08-11T06:39:26Z</time>
      </trkpt>
      <trkpt lat="44.47939" lon="1.1993">
        <ele>93.1</ele>
        <time>2022-08-11T06:39:28Z</time>
      </trkpt>
      <trkpt lat="44.47931" lon="1.19935">
        <ele>93.2</ele>
        <time>2022-08-11T06:39:30Z</time>
      </trkpt>
      <trkpt lat="44.47924" lon="1.19941">
        <ele>93.3</ele>
        <time>2022-08-11T06:39:32Z</time>
      </trkpt>
      <trkpt lat="44.47916" lon="1.19946">
        <ele>93.4</ele>
        <time>2022-08-11T06:39:34Z</time>
      </trkpt>
      <trkpt lat="44.47909" lon="1.19952">
        <ele>93.5</ele>
        <time>2022-08-11T06:39:36Z</time>
      </trkpt>
      <trkpt lat="44.47901" lon="1.19958">
        <ele>93.7</ele>
        <time>2022-08-11T06:39:38Z</time>
      </trkpt>
      <trkpt lat="44.47894" lon="1.19965">
        <ele>93.9</ele>
        <time>2022-08-11T06:39:40Z</time>
      </trkpt>
      <trkpt lat="44.47887" lon="1.19971">
        <ele>94</ele>
        <time>2022-08-11T06:39:42Z</time>
      </trkpt>
      <trkpt lat="44.47879" lon="1.19978">
        <ele>94.2</ele>
        <time>2022-08-11T06:39:44Z</time>
      </trkpt>
      <trkpt lat="44.47872" lon="1.19983">
        <ele>94.3</ele>
        <time>2022-08-11T06:39:46Z</time>
      </trkpt>
      <trkpt lat="44.47864" lon="1.19988">
        <ele>94.5</ele>
        <time>2022-08-11T06:39:48Z</time>
      </trkpt>
      <trkpt lat="44.47856" lon="1.19995">
        <ele>94.7</ele>
        <time>2022-08-11T06:39:50Z</time>
      </trkpt>
      <trkpt lat="44.47849" lon="1.2">
        <ele>94.8</ele>
        <time>2022-08-11T06:39:52Z</time>
      </trkpt>
      <trkpt lat="44.47841" lon="1.20006">
        <ele>94.9</ele>
        <time>2022-08-11T06:39:54Z</time>
      </trkpt>
      <trkpt lat="44.47834" lon="1.20011">
        <ele>95</ele>
        <time>2022-08-11T06:39:56Z</time>
      </trkpt>
      <trkpt lat="44.47827" lon="1.20018">
        <ele>94.8</ele>
        <time>2022-08-11T06:39:58Z</time>
      </trkpt>
      <trkpt lat="44.4782" lon="1.20023">
        <ele>94.6</ele>
        <time>2022-08-11T06:40:00Z</time>
      </trkpt>
      <trkpt lat="44.47813" lon="1.20028">
        <ele>94.5</ele>
        <time>2022-08-11T06:40:02Z</time>
      </trkpt>
      <trkpt lat="44.47805" lon="1.20032">
        <ele>94.4</ele>
        <time>2022-08-11T06:40:04Z</time>
      </trkpt>
      <trkpt lat="44.47797" lon="1.20036">
        <ele>94.3</ele>
        <time>2022-08-11T06:40:06Z</time>
      </trkpt>
      <trkpt lat="44.47789" lon="1.20041">
        <ele>94.2</ele>
        <time>2022-08-11T06:40:08Z</time>
      </trkpt>
      <trkpt lat="44.4778" lon="1.20046">
        <ele>94.1</ele>
        <time>2022-08-11T06:40:10Z</time>
      </trkpt>
      <trkpt lat="44.47772" lon="1.20051">
        <ele>94.1</ele>
        <time>2022-08-11T06:40:12Z</time>
      </trkpt>
      <trkpt lat="44.47764" lon="1.20054">
        <ele>94.1</ele>
        <time>2022-08-11T06:40:14Z</time>
      </trkpt>
      <trkpt lat="44.47756" lon="1.20059">
        <ele>94.2</ele>
        <time>2022-08-11T06:40:16Z</time>
      </trkpt>
      <trkpt lat="44.47749" lon="1.20065">
        <ele>94.3</ele>
        <time>2022-08-11T06:40:18Z</time>
      </trkpt>
      <trkpt lat="44.47741" lon="1.20071">
        <ele>94.4</ele>
        <time>2022-08-11T06:40:20Z</time>
      </trkpt>
      <trkpt lat="44.47733" lon="1.20078">
        <ele>94.4</ele>
        <time>2022-08-11T06:40:22Z</time>
      </trkpt>
      <trkpt lat="44.47725" lon="1.20084">
        <ele>94.4</ele>
        <time>2022-08-11T06:40:24Z</time>
      </trkpt>
      <trkpt lat="44.47718" lon="1.20091">
        <ele>94.2</ele>
        <time>2022-08-11T06:40:26Z</time>
      </trkpt>
      <trkpt lat="44.47712" lon="1.201">
        <ele>94</ele>
        <time>2022-08-11T06:40:28Z</time>
      </trkpt>
      <trkpt lat="44.47704" lon="1.20108">
        <ele>93.8</ele>
        <time>2022-08-11T06:40:30Z</time>
      </trkpt>
      <trkpt lat="44.47698" lon="1.20116">
        <ele>93.7</ele>
        <time>2022-08-11T06:40:32Z</time>
      </trkpt>
      <trkpt lat="44.47692" lon="1.20125">
        <ele>93.6</ele>
        <time>2022-08-11T06:40:34Z</time>
      </trkpt>
      <trkpt lat="44.47685" lon="1.20134">
        <ele>93.6</ele>
        <time>2022-08-11T06:40:36Z</time>
      </trkpt>
      <trkpt lat="44.47679" lon="1.20143">
        <ele>93.7</ele>
        <time>2022-08-11T06:40:38Z</time>
      </trkpt>
      <trkpt lat="44.47673" lon="1.20152">
        <ele>93.8</ele>
        <time>2022-08-11T06:40:40Z</time>
      </trkpt>
      <trkpt lat="44.47666" lon="1.20162">
        <ele>93.9</ele>
        <time>2022-08-11T06:40:42Z</time>
      </trkpt>
      <trkpt lat="44.4766" lon="1.2017">
        <ele>93.8</ele>
        <time>2022-08-11T06:40:44Z</time>
      </trkpt>
      <trkpt lat="44.47653" lon="1.20176">
        <ele>93.6</ele>
        <time>2022-08-11T06:40:46Z</time>
      </trkpt>
      <trkpt lat="44.47645" lon="1.20182">
        <ele>93.4</ele>
        <time>2022-08-11T06:40:48Z</time>
      </trkpt>
      <trkpt lat="44.47637" lon="1.20188">
        <ele>93.2</ele>
        <time>2022-08-11T06:40:50Z</time>
      </trkpt>
      <trkpt lat="44.47629" lon="1.20194">
        <ele>93.1</ele>
        <time>2022-08-11T06:40:52Z</time>
      </trkpt>
      <trkpt lat="44.47621" lon="1.202">
        <ele>92.9</ele>
        <time>2022-08-11T06:40:54Z</time>
      </trkpt>
      <trkpt lat="44.47613" lon="1.20206">
        <ele>92.8</ele>
        <time>2022-08-11T06:40:56Z</time>
      </trkpt>
      <trkpt lat="44.47605" lon="1.20212">
        <ele>92.8</ele>
        <time>2022-08-11T06:40:58Z</time>
      </trkpt>
      <trkpt lat="44.47596" lon="1.20218">
        <ele>92.7</ele>
        <time>2022-08-11T06:41:00Z</time>
      </trkpt>
      <trkpt lat="44.47587" lon="1.20226">
        <ele>92.7</ele>
        <time>2022-08-11T06:41:02Z</time>
      </trkpt>
      <trkpt lat="44.47579" lon="1.20232">
        <ele>92.7</ele>
        <time>2022-08-11T06:41:04Z</time>
      </trkpt>
      <trkpt lat="44.4757" lon="1.20238">
        <ele>92.6</ele>
        <time>2022-08-11T06:41:06Z</time>
      </trkpt>
      <trkpt lat="44.4756" lon="1.20246">
        <ele>92.4</ele>
        <time>2022-08-11T06:41:08Z</time>
      </trkpt>
      <trkpt lat="44.47551" lon="1.20253">
        <ele>92.3</ele>
        <time>2022-08-11T06:41:10Z</time>
      </trkpt>
      <trkpt lat="44.47541" lon="1.2026">
        <ele>92.1</ele>
        <time>2022-08-11T06:41:12Z</time>
      </trkpt>
      <trkpt lat="44.47532" lon="1.20267">
        <ele>92</ele>
        <time>2022-08-11T06:41:14Z</time>
      </trkpt>
      <trkpt lat="44.47522" lon="1.20274">
        <ele>91.8</ele>
        <time>2022-08-11T06:41:16Z</time>
      </trkpt>
      <trkpt lat="44.47512" lon="1.20281">
        <ele>91.6</ele>
        <time>2022-08-11T06:41:18Z</time>
      </trkpt>
      <trkpt lat="44.47502" lon="1.20285">
        <ele>91.5</ele>
        <time>2022-08-11T06:41:20Z</time>
      </trkpt>
      <trkpt lat="44.47492" lon="1.20289">
        <ele>91.4</ele>
        <time>2022-08-11T06:41:22Z</time>
      </trkpt>
      <trkpt lat="44.47482" lon="1.20292">
        <ele>91.4</ele>
        <time>2022-08-11T06:41:24Z</time>
      </trkpt>
      <trkpt lat="44.47471" lon="1.20294">
        <ele>91.4</ele>
        <time>2022-08-11T06:41:26Z</time>
      </trkpt>
      <trkpt lat="44.47461" lon="1.20296">
        <ele>91.3</ele>
        <time>2022-08-11T06:41:28Z</time>
      </trkpt>
      <trkpt lat="44.47451" lon="1.20299">
        <ele>91.3</ele>
        <time>2022-08-11T06:41:30Z</time>
      </trkpt>
      <trkpt lat="44.47441" lon="1.20301">
        <ele>91.3</ele>
        <time>2022-08-11T06:41:32Z</time>
      </trkpt>
      <trkpt lat="44.47431" lon="1.20304">
        <ele>91.4</ele>
        <time>2022-08-11T06:41:34Z</time>
      </trkpt>
      <trkpt lat="44.47421" lon="1.20307">
        <ele>91.4</ele>
        <time>2022-08-11T06:41:36Z</time>
      </trkpt>
      <trkpt lat="44.47411" lon="1.2031">
        <ele>91.4</ele>
        <time>2022-08-11T06:41:38Z</time>
      </trkpt>
      <trkpt lat="44.47402" lon="1.20312">
        <ele>91.5</ele>
        <time>2022-08-11T06:41:40Z</time>
      </trkpt>
      <trkpt lat="44.47392" lon="1.20314">
        <ele>91.5</ele>
        <time>2022-08-11T06:41:42Z</time>
      </trkpt>
      <trkpt lat="44.47383" lon="1.20316">
        <ele>91.6</ele>
        <time>2022-08-11T06:41:44Z</time>
      </trkpt>
      <trkpt lat="44.47374" lon="1.20319">
        <ele>91.7</ele>
        <time>2022-08-11T06:41:46Z</time>
      </trkpt>
      <trkpt lat="44.47365" lon="1.2032">
        <ele>91.7</ele>
        <time>2022-08-11T06:41:48Z</time>
      </trkpt>
      <trkpt lat="44.47357" lon="1.20323">
        <ele>91.8</ele>
        <time>2022-08-11T06:41:50Z</time>
      </trkpt>
      <trkpt lat="44.4735" lon="1.20325">
        <ele>91.8</ele>
        <time>2022-08-11T06:41:52Z</time>
      </trkpt>
      <trkpt lat="44.47342" lon="1.20326">
        <ele>91.8</ele>
        <time>2022-08-11T06:41:54Z</time>
      </trkpt>
      <trkpt lat="44.47335" lon="1.20328">
        <ele>91.9</ele>
        <time>2022-08-11T06:41:56Z</time>
      </trkpt>
      <trkpt lat="44.47327" lon="1.2033">
        <ele>92.1</ele>
        <time>2022-08-11T06:41:58Z</time>
      </trkpt>
      <trkpt lat="44.4732" lon="1.20331">
        <ele>92.3</ele>
        <time>2022-08-11T06:42:00Z</time>
      </trkpt>
      <trkpt lat="44.47313" lon="1.20333">
        <ele>92.5</ele>
        <time>2022-08-11T06:42:02Z</time>
      </trkpt>
      <trkpt lat="44.47306" lon="1.20335">
        <ele>92.7</ele>
        <time>2022-08-11T06:42:04Z</time>
      </trkpt>
      <trkpt lat="44.47299" lon="1.20335">
        <ele>92.9</ele>
        <time>2022-08-11T06:42:06Z</time>
      </trkpt>
      <trkpt lat="44.47292" lon="1.20336">
        <ele>93.1</ele>
        <time>2022-08-11T06:42:08Z</time>
      </trkpt>
      <trkpt lat="44.47285" lon="1.20337">
        <ele>93.3</ele>
        <time>2022-08-11T06:42:10Z</time>
      </trkpt>
      <trkpt lat="44.47278" lon="1.20337">
        <ele>93.4</ele>
        <time>2022-08-11T06:42:12Z</time>
      </trkpt>
      <trkpt lat="44.47272" lon="1.20335">
        <ele>93.5</ele>
        <time>2022-08-11T06:42:14Z</time>
      </trkpt>
      <trkpt lat="44.47266" lon="1.20333">
        <ele>93.6</ele>
        <time>2022-08-11T06:42:16Z</time>
      </trkpt>
      <trkpt lat="44.4726" lon="1.20331">
        <ele>93.8</ele>
        <time>2022-08-11T06:42:18Z</time>
      </trkpt>
      <trkpt lat="44.47254" lon="1.20328">
        <ele>93.9</ele>
        <time>2022-08-11T06:42:20Z</time>
      </trkpt>
      <trkpt lat="44.47248" lon="1.20326">
        <ele>94.2</ele>
        <time>2022-08-11T06:42:22Z</time>
      </trkpt>
      <trkpt lat="44.47242" lon="1.20322">
        <ele>94.5</ele>
        <time>2022-08-11T06:42:24Z</time>
      </trkpt>
      <trkpt lat="44.47237" lon="1.2032">
        <ele>95</ele>
        <time>2022-08-11T06:42:26Z</time>
      </trkpt>
      <trkpt lat="44.47231" lon="1.20317">
        <ele>95.4</ele>
        <time>2022-08-11T06:42:28Z</time>
      </trkpt>
      <trkpt lat="44.47225" lon="1.20314">
        <ele>95.8</ele>
        <time>2022-08-11T06:42:30Z</time>
      </trkpt>
      <trkpt lat="44.4722" lon="1.20311">
        <ele>96.2</ele>
        <time>2022-08-11T06:42:32Z</time>
      </trkpt>
      <trkpt lat="44.47215" lon="1.20307">
        <ele>96.6</ele>
        <time>2022-08-11T06:42:34Z</time>
      </trkpt>
      <trkpt lat="44.47209" lon="1.20304">
        <ele>96.9</ele>
        <time>2022-08-11T06:42:36Z</time>
      </trkpt>
      <trkpt lat="44.47204" lon="1.203">
        <ele>97.3</ele>
        <time>2022-08-11T06:42:38Z</time>
      </trkpt>
      <trkpt lat="44.472" lon="1.20296">
        <ele>97.6</ele>
        <time>2022-08-11T06:42:40Z</time>
      </trkpt>
      <trkpt lat="44.47195" lon="1.20293">
        <ele>98</ele>
        <time>2022-08-11T06:42:42Z</time>
      </trkpt>
      <trkpt lat="44.47191" lon="1.20289">
        <ele>98.3</ele>
        <time>2022-08-11T06:42:44Z</time>
      </trkpt>
      <trkpt lat="44.47186" lon="1.20285">
        <ele>98.6</ele>
        <time>2022-08-11T06:42:46Z</time>
      </trkpt>
      <trkpt lat="44.47181" lon="1.2028">
        <ele>98.9</ele>
        <time>2022-08-11T06:42:48Z</time>
      </trkpt>
      <trkpt lat="44.47177" lon="1.20275">
        <ele>99.3</ele>
        <time>2022-08-11T06:42:50Z</time>
      </trkpt>
      <trkpt lat="44.47172" lon="1.20272">
        <ele>99.6</ele>
        <time>2022-08-11T06:42:52Z</time>
      </trkpt>
      <trkpt lat="44.47167" lon="1.20267">
        <ele>100</ele>
        <time>2022-08-11T06:42:54Z</time>
      </trkpt>
      <trkpt lat="44.47162" lon="1.20262">
        <ele>100.8</ele>
        <time>2022-08-11T06:42:56Z</time>
      </trkpt>
      <trkpt lat="44.47157" lon="1.20258">
        <ele>101.6</ele>
        <time>2022-08-11T06:42:58Z</time>
      </trkpt>
      <trkpt lat="44.47152" lon="1.20253">
        <ele>102.4</ele>
        <time>2022-08-11T06:43:00Z</time>
      </trkpt>
      <trkpt lat="44.47147" lon="1.20248">
        <ele>103.1</ele>
        <time>2022-08-11T06:43:02Z</time>
      </trkpt>
      <trkpt lat="44.47142" lon="1.20244">
        <ele>103.5</ele>
        <time>2022-08-11T06:43:04Z</time>
      </trkpt>
      <trkpt lat="44.47136" lon="1.20239">
        <ele>103.9</ele>
        <time>2022-08-11T06:43:06Z</time>
      </trkpt>
      <trkpt lat="44.47132" lon="1.20233">
        <ele>104.1</ele>
        <time>2022-08-11T06:43:08Z</time>
      </trkpt>
      <trkpt lat="44.47126" lon="1.20229">
        <ele>104.4</ele>
        <time>2022-08-11T06:43:10Z</time>
      </trkpt>
      <trkpt lat="44.47121" lon="1.20224">
        <ele>104.6</ele>
        <time>2022-08-11T06:43:12Z</time>
      </trkpt>
      <trkpt lat="44.47116" lon="1.20219">
        <ele>104.6</ele>
        <time>2022-08-11T06:43:14Z</time>
      </trkpt>
      <trkpt lat="44.47111" lon="1.20213">
        <ele>104.6</ele>
        <time>2022-08-11T06:43:16Z</time>
      </trkpt>
      <trkpt lat="44.47106" lon="1.20209">
        <ele>104.7</ele>
        <time>2022-08-11T06:43:18Z</time>
      </trkpt>
      <trkpt lat="44.47102" lon="1.20203">
        <ele>104.5</ele>
        <time>2022-08-11T06:43:20Z</time>
      </trkpt>
      <trkpt lat="44.47096" lon="1.20198">
        <ele>104.5</ele>
        <time>2022-08-11T06:43:22Z</time>
      </trkpt>
      <trkpt lat="44.47091" lon="1.20193">
        <ele>104.3</ele>
        <time>2022-08-11T06:43:24Z</time>
      </trkpt>
      <trkpt lat="44.47086" lon="1.20188">
        <ele>104</ele>
        <time>2022-08-11T06:43:26Z</time>
      </trkpt>
      <trkpt lat="44.47082" lon="1.20183">
        <ele>104</ele>
        <time>2022-08-11T06:43:28Z</time>
      </trkpt>
      <trkpt lat="44.47076" lon="1.20176">
        <ele>104.9</ele>
        <time>2022-08-11T06:43:30Z</time>
      </trkpt>
      <trkpt lat="44.47072" lon="1.20171">
        <ele>105.6</ele>
        <time>2022-08-11T06:43:32Z</time>
      </trkpt>
      <trkpt lat="44.47067" lon="1.20165">
        <ele>106.6</ele>
        <time>2022-08-11T06:43:34Z</time>
      </trkpt>
      <trkpt lat="44.47062" lon="1.20159">
        <ele>107.6</ele>
        <time>2022-08-11T06:43:36Z</time>
      </trkpt>
      <trkpt lat="44.47057" lon="1.20152">
        <ele>108.3</ele>
        <time>2022-08-11T06:43:38Z</time>
      </trkpt>
      <trkpt lat="44.47053" lon="1.20146">
        <ele>108.8</ele>
        <time>2022-08-11T06:43:40Z</time>
      </trkpt>
      <trkpt lat="44.47048" lon="1.2014">
        <ele>109.4</ele>
        <time>2022-08-11T06:43:42Z</time>
      </trkpt>
      <trkpt lat="44.47043" lon="1.20133">
        <ele>109.7</ele>
        <time>2022-08-11T06:43:44Z</time>
      </trkpt>
      <trkpt lat="44.47038" lon="1.20127">
        <ele>110.2</ele>
        <time>2022-08-11T06:43:46Z</time>
      </trkpt>
      <trkpt lat="44.47034" lon="1.2012">
        <ele>110.3</ele>
        <time>2022-08-11T06:43:48Z</time>
      </trkpt>
      <trkpt lat="44.47029" lon="1.20114">
        <ele>110.4</ele>
        <time>2022-08-11T06:43:50Z</time>
      </trkpt>
      <trkpt lat="44.47025" lon="1.20106">
        <ele>110.3</ele>
        <time>2022-08-11T06:43:52Z</time>
      </trkpt>
      <trkpt lat="44.4702" lon="1.20101">
        <ele>110.1</ele>
        <time>2022-08-11T06:43:54Z</time>
      </trkpt>
      <trkpt lat="44.47015" lon="1.20093">
        <ele>109.8</ele>
        <time>2022-08-11T06:43:56Z</time>
      </trkpt>
      <trkpt lat="44.47011" lon="1.20085">
        <ele>109.2</ele>
        <time>2022-08-11T06:43:58Z</time>
      </trkpt>
      <trkpt lat="44.47006" lon="1.20078">
        <ele>108.8</ele>
        <time>2022-08-11T06:44:00Z</time>
      </trkpt>
      <trkpt lat="44.47002" lon="1.20071">
        <ele>108.5</ele>
        <time>2022-08-11T06:44:02Z</time>
      </trkpt>
      <trkpt lat="44.46997" lon="1.20065">
        <ele>109.1</ele>
        <time>2022-08-11T06:44:04Z</time>
      </trkpt>
      <trkpt lat="44.46993" lon="1.20057">
        <ele>109.8</ele>
        <time>2022-08-11T06:44:06Z</time>
      </trkpt>
      <trkpt lat="44.46988" lon="1.20051">
        <ele>110.6</ele>
        <time>2022-08-11T06:44:08Z</time>
      </trkpt>
      <trkpt lat="44.46984" lon="1.20044">
        <ele>111</ele>
        <time>2022-08-11T06:44:10Z</time>
      </trkpt>
      <trkpt lat="44.4698" lon="1.20036">
        <ele>111.2</ele>
        <time>2022-08-11T06:44:12Z</time>
      </trkpt>
      <trkpt lat="44.46976" lon="1.2003">
        <ele>111.4</ele>
        <time>2022-08-11T06:44:14Z</time>
      </trkpt>
      <trkpt lat="44.46971" lon="1.20022">
        <ele>111.7</ele>
        <time>2022-08-11T06:44:16Z</time>
      </trkpt>
      <trkpt lat="44.46967" lon="1.20015">
        <ele>111.8</ele>
        <time>2022-08-11T06:44:18Z</time>
      </trkpt>
      <trkpt lat="44.46963" lon="1.20006">
        <ele>111.6</ele>
        <time>2022-08-11T06:44:20Z</time>
      </trkpt>
      <trkpt lat="44.46959" lon="1.19999">
        <ele>111.6</ele>
        <time>2022-08-11T06:44:22Z</time>
      </trkpt>
      <trkpt lat="44.46955" lon="1.19993">
        <ele>111.9</ele>
        <time>2022-08-11T06:44:24Z</time>
      </trkpt>
      <trkpt lat="44.46951" lon="1.19985">
        <ele>112.4</ele>
        <time>2022-08-11T06:44:26Z</time>
      </trkpt>
      <trkpt lat="44.46946" lon="1.19979">
        <ele>112.9</ele>
        <time>2022-08-11T06:44:28Z</time>
      </trkpt>
      <trkpt lat="44.46943" lon="1.19972">
        <ele>112.6</ele>
        <time>2022-08-11T06:44:30Z</time>
      </trkpt>
      <trkpt lat="44.46939" lon="1.19966">
        <ele>112.8</ele>
        <time>2022-08-11T06:44:32Z</time>
      </trkpt>
      <trkpt lat="44.46933" lon="1.19958">
        <ele>112.7</ele>
        <time>2022-08-11T06:44:34Z</time>
      </trkpt>
      <trkpt lat="44.46929" lon="1.19951">
        <ele>112.5</ele>
        <time>2022-08-11T06:44:36Z</time>
      </trkpt>
      <trkpt lat="44.46925" lon="1.19945">
        <ele>112.1</ele>
        <time>2022-08-11T06:44:38Z</time>
      </trkpt>
      <trkpt lat="44.46921" lon="1.19937">
        <ele>111.2</ele>
        <time>2022-08-11T06:44:40Z</time>
      </trkpt>
      <trkpt lat="44.46917" lon="1.19931">
        <ele>110.7</ele>
        <time>2022-08-11T06:44:42Z</time>
      </trkpt>
      <trkpt lat="44.46913" lon="1.19925">
        <ele>110</ele>
        <time>2022-08-11T06:44:44Z</time>
      </trkpt>
      <trkpt lat="44.46908" lon="1.1992">
        <ele>109.7</ele>
        <time>2022-08-11T06:44:46Z</time>
      </trkpt>
      <trkpt lat="44.46903" lon="1.19914">
        <ele>109.2</ele>
        <time>2022-08-11T06:44:48Z</time>
      </trkpt>
      <trkpt lat="44.46898" lon="1.19907">
        <ele>109.2</ele>
        <time>2022-08-11T06:44:50Z</time>
      </trkpt>
      <trkpt lat="44.46892" lon="1.19902">
        <ele>109.4</ele>
        <time>2022-08-11T06:44:52Z</time>
      </trkpt>
      <trkpt lat="44.46888" lon="1.19897">
        <ele>109.3</ele>
        <time>2022-08-11T06:44:54Z</time>
      </trkpt>
      <trkpt lat="44.46883" lon="1.19892">
        <ele>109.1</ele>
        <time>2022-08-11T06:44:56Z</time>
      </trkpt>
      <trkpt lat="44.46878" lon="1.19887">
        <ele>109</ele>
        <time>2022-08-11T06:44:58Z</time>
      </trkpt>
      <trkpt lat="44.46873" lon="1.19882">
        <ele>108.9</ele>
        <time>2022-08-11T06:45:00Z</time>
      </trkpt>
      <trkpt lat="44.46868" lon="1.19878">
        <ele>108.8</ele>
        <time>2022-08-11T06:45:02Z</time>
      </trkpt>
      <trkpt lat="44.46863" lon="1.19873">
        <ele>108.7</ele>
        <time>2022-08-11T06:45:04Z</time>
      </trkpt>
      <trkpt lat="44.46858" lon="1.19869">
        <ele>108.6</ele>
        <time>2022-08-11T06:45:06Z</time>
      </trkpt>
      <trkpt lat="44.46853" lon="1.19865">
        <ele>108.3</ele>
        <time>2022-08-11T06:45:08Z</time>
      </trkpt>
      <trkpt lat="44.46847" lon="1.19861">
        <ele>108.1</ele>
        <time>2022-08-11T06:45:10Z</time>
      </trkpt>
      <trkpt lat="44.46841" lon="1.19855">
        <ele>107.5</ele>
        <time>2022-08-11T06:45:12Z</time>
      </trkpt>
      <trkpt lat="44.46836" lon="1.19849">
        <ele>106.7</ele>
        <time>2022-08-11T06:45:14Z</time>
      </trkpt>
      <trkpt lat="44.46831" lon="1.19842">
        <ele>105.4</ele>
        <time>2022-08-11T06:45:16Z</time>
      </trkpt>
      <trkpt lat="44.46826" lon="1.19835">
        <ele>103.9</ele>
        <time>2022-08-11T06:45:18Z</time>
      </trkpt>
      <trkpt lat="44.46821" lon="1.19827">
        <ele>103.4</ele>
        <time>2022-08-11T06:45:20Z</time>
      </trkpt>
      <trkpt lat="44.46816" lon="1.19819">
        <ele>103.4</ele>
        <time>2022-08-11T06:45:22Z</time>
      </trkpt>
      <trkpt lat="44.46812" lon="1.1981">
        <ele>103.5</ele>
        <time>2022-08-11T06:45:24Z</time>
      </trkpt>
      <trkpt lat="44.46808" lon="1.19802">
        <ele>103.8</ele>
        <time>2022-08-11T06:45:26Z</time>
      </trkpt>
      <trkpt lat="44.46805" lon="1.19794">
        <ele>104.1</ele>
        <time>2022-08-11T06:45:28Z</time>
      </trkpt>
      <trkpt lat="44.46802" lon="1.19785">
        <ele>104.6</ele>
        <time>2022-08-11T06:45:30Z</time>
      </trkpt>
      <trkpt lat="44.46799" lon="1.19777">
        <ele>105</ele>
        <time>2022-08-11T06:45:32Z</time>
      </trkpt>
      <trkpt lat="44.46796" lon="1.1977">
        <ele>105.6</ele>
        <time>2022-08-11T06:45:34Z</time>
      </trkpt>
      <trkpt lat="44.46793" lon="1.19763">
        <ele>106.4</ele>
        <time>2022-08-11T06:45:36Z</time>
      </trkpt>
      <trkpt lat="44.46792" lon="1.19755">
        <ele>106.9</ele>
        <time>2022-08-11T06:45:38Z</time>
      </trkpt>
      <trkpt lat="44.46789" lon="1.19747">
        <ele>107.8</ele>
        <time>2022-08-11T06:45:40Z</time>
      </trkpt>
      <trkpt lat="44.46786" lon="1.1974">
        <ele>108.5</ele>
        <time>2022-08-11T06:45:42Z</time>
      </trkpt>
      <trkpt lat="44.46783" lon="1.19733">
        <ele>109.4</ele>
        <time>2022-08-11T06:45:44Z</time>
      </trkpt>
      <trkpt lat="44.46781" lon="1.19726">
        <ele>110.3</ele>
        <time>2022-08-11T06:45:46Z</time>
      </trkpt>
      <trkpt lat="44.46778" lon="1.19719">
        <ele>111.3</ele>
        <time>2022-08-11T06:45:48Z</time>
      </trkpt>
      <trkpt lat="44.46776" lon="1.19712">
        <ele>112.2</ele>
        <time>2022-08-11T06:45:50Z</time>
      </trkpt>
      <trkpt lat="44.46773" lon="1.19705">
        <ele>113.4</ele>
        <time>2022-08-11T06:45:52Z</time>
      </trkpt>
      <trkpt lat="44.46771" lon="1.19699">
        <ele>114.4</ele>
        <time>2022-08-11T06:45:54Z</time>
      </trkpt>
      <trkpt lat="44.46768" lon="1.19692">
        <ele>115.7</ele>
        <time>2022-08-11T06:45:56Z</time>
      </trkpt>
      <trkpt lat="44.46767" lon="1.19685">
        <ele>116.3</ele>
        <time>2022-08-11T06:45:58Z</time>
      </trkpt>
      <trkpt lat="44.46763" lon="1.19679">
        <ele>118.1</ele>
        <time>2022-08-11T06:46:00Z</time>
      </trkpt>
      <trkpt lat="44.46761" lon="1.19673">
        <ele>119.3</ele>
        <time>2022-08-11T06:46:02Z</time>
      </trkpt>
      <trkpt lat="44.46757" lon="1.19666">
        <ele>120.9</ele>
        <time>2022-08-11T06:46:04Z</time>
      </trkpt>
      <trkpt lat="44.46755" lon="1.19659">
        <ele>121.2</ele>
        <time>2022-08-11T06:46:06Z</time>
      </trkpt>
      <trkpt lat="44.46753" lon="1.19652">
        <ele>121.7</ele>
        <time>2022-08-11T06:46:08Z</time>
      </trkpt>
      <trkpt lat="44.4675" lon="1.19646">
        <ele>122.1</ele>
        <time>2022-08-11T06:46:10Z</time>
      </trkpt>
      <trkpt lat="44.46747" lon="1.19639">
        <ele>122.9</ele>
        <time>2022-08-11T06:46:12Z</time>
      </trkpt>
      <trkpt lat="44.46745" lon="1.19632">
        <ele>123.3</ele>
        <time>2022-08-11T06:46:14Z</time>
      </trkpt>
      <trkpt lat="44.46742" lon="1.19624">
        <ele>124.4</ele>
        <time>2022-08-11T06:46:16Z</time>
      </trkpt>
      <trkpt lat="44.4674" lon="1.19617">
        <ele>125.1</ele>
        <time>2022-08-11T06:46:18Z</time>
      </trkpt>
      <trkpt lat="44.46737" lon="1.19609">
        <ele>126.5</ele>
        <time>2022-08-11T06:46:20Z</time>
      </trkpt>
      <trkpt lat="44.46734" lon="1.19601">
        <ele>127.6</ele>
        <time>2022-08-11T06:46:22Z</time>
      </trkpt>
      <trkpt lat="44.46731" lon="1.19592">
        <ele>129</ele>
        <time>2022-08-11T06:46:24Z</time>
      </trkpt>
      <trkpt lat="44.46728" lon="1.19583">
        <ele>130.7</ele>
        <time>2022-08-11T06:46:26Z</time>
      </trkpt>
      <trkpt lat="44.46726" lon="1.19574">
        <ele>130.7</ele>
        <time>2022-08-11T06:46:28Z</time>
      </trkpt>
      <trkpt lat="44.46724" lon="1.19565">
        <ele>130.6</ele>
        <time>2022-08-11T06:46:30Z</time>
      </trkpt>
      <trkpt lat="44.46723" lon="1.19557">
        <ele>130.3</ele>
        <time>2022-08-11T06:46:32Z</time>
      </trkpt>
      <trkpt lat="44.4672" lon="1.19548">
        <ele>130.5</ele>
        <time>2022-08-11T06:46:34Z</time>
      </trkpt>
      <trkpt lat="44.46718" lon="1.19539">
        <ele>130.7</ele>
        <time>2022-08-11T06:46:36Z</time>
      </trkpt>
      <trkpt lat="44.46716" lon="1.19531">
        <ele>131</ele>
        <time>2022-08-11T06:46:38Z</time>
      </trkpt>
      <trkpt lat="44.46714" lon="1.19522">
        <ele>131.3</ele>
        <time>2022-08-11T06:46:40Z</time>
      </trkpt>
      <trkpt lat="44.46712" lon="1.19514">
        <ele>131.7</ele>
        <time>2022-08-11T06:46:42Z</time>
      </trkpt>
      <trkpt lat="44.4671" lon="1.19505">
        <ele>132.3</ele>
        <time>2022-08-11T06:46:44Z</time>
      </trkpt>
      <trkpt lat="44.46708" lon="1.19497">
        <ele>132.6</ele>
        <time>2022-08-11T06:46:46Z</time>
      </trkpt>
      <trkpt lat="44.46706" lon="1.19487">
        <ele>133.1</ele>
        <time>2022-08-11T06:46:48Z</time>
      </trkpt>
      <trkpt lat="44.46705" lon="1.19478">
        <ele>133.2</ele>
        <time>2022-08-11T06:46:50Z</time>
      </trkpt>
      <trkpt lat="44.46703" lon="1.19469">
        <ele>133.4</ele>
        <time>2022-08-11T06:46:52Z</time>
      </trkpt>
      <trkpt lat="44.467" lon="1.19462">
        <ele>134.9</ele>
        <time>2022-08-11T06:46:54Z</time>
      </trkpt>
      <trkpt lat="44.46699" lon="1.19453">
        <ele>134.4</ele>
        <time>2022-08-11T06:46:56Z</time>
      </trkpt>
      <trkpt lat="44.46697" lon="1.19445">
        <ele>134.7</ele>
        <time>2022-08-11T06:46:58Z</time>
      </trkpt>
      <trkpt lat="44.46694" lon="1.19436">
        <ele>135.4</ele>
        <time>2022-08-11T06:47:00Z</time>
      </trkpt>
      <trkpt lat="44.46693" lon="1.19428">
        <ele>135.3</ele>
        <time>2022-08-11T06:47:02Z</time>
      </trkpt>
      <trkpt lat="44.46691" lon="1.19419">
        <ele>135.4</ele>
        <time>2022-08-11T06:47:04Z</time>
      </trkpt>
      <trkpt lat="44.4669" lon="1.19411">
        <ele>135.5</ele>
        <time>2022-08-11T06:47:06Z</time>
      </trkpt>
      <trkpt lat="44.46687" lon="1.19402">
        <ele>136.6</ele>
        <time>2022-08-11T06:47:08Z</time>
      </trkpt>
      <trkpt lat="44.46685" lon="1.19394">
        <ele>137</ele>
        <time>2022-08-11T06:47:10Z</time>
      </trkpt>
      <trkpt lat="44.46684" lon="1.19385">
        <ele>137.2</ele>
        <time>2022-08-11T06:47:12Z</time>
      </trkpt>
      <trkpt lat="44.46683" lon="1.19376">
        <ele>137</ele>
        <time>2022-08-11T06:47:14Z</time>
      </trkpt>
      <trkpt lat="44.46682" lon="1.19367">
        <ele>136.7</ele>
        <time>2022-08-11T06:47:16Z</time>
      </trkpt>
      <trkpt lat="44.46681" lon="1.19358">
        <ele>136.8</ele>
        <time>2022-08-11T06:47:18Z</time>
      </trkpt>
      <trkpt lat="44.4668" lon="1.19349">
        <ele>136.6</ele>
        <time>2022-08-11T06:47:20Z</time>
      </trkpt>
      <trkpt lat="44.46678" lon="1.1934">
        <ele>136.6</ele>
        <time>2022-08-11T06:47:22Z</time>
      </trkpt>
      <trkpt lat="44.46677" lon="1.1933">
        <ele>136.5</ele>
        <time>2022-08-11T06:47:24Z</time>
      </trkpt>
      <trkpt lat="44.46676" lon="1.1932">
        <ele>136.6</ele>
        <time>2022-08-11T06:47:26Z</time>
      </trkpt>
      <trkpt lat="44.46675" lon="1.1931">
        <ele>136.7</ele>
        <time>2022-08-11T06:47:28Z</time>
      </trkpt>
      <trkpt lat="44.46674" lon="1.193">
        <ele>136.9</ele>
        <time>2022-08-11T06:47:30Z</time>
      </trkpt>
      <trkpt lat="44.46673" lon="1.19289">
        <ele>136.9</ele>
        <time>2022-08-11T06:47:32Z</time>
      </trkpt>
      <trkpt lat="44.46671" lon="1.19278">
        <ele>137.1</ele>
        <time>2022-08-11T06:47:34Z</time>
      </trkpt>
      <trkpt lat="44.4667" lon="1.19267">
        <ele>137.1</ele>
        <time>2022-08-11T06:47:36Z</time>
      </trkpt>
      <trkpt lat="44.46669" lon="1.19255">
        <ele>136.9</ele>
        <time>2022-08-11T06:47:38Z</time>
      </trkpt>
      <trkpt lat="44.46668" lon="1.19244">
        <ele>136.6</ele>
        <time>2022-08-11T06:47:40Z</time>
      </trkpt>
      <trkpt lat="44.46667" lon="1.19232">
        <ele>136.3</ele>
        <time>2022-08-11T06:47:42Z</time>
      </trkpt>
      <trkpt lat="44.46666" lon="1.1922">
        <ele>136</ele>
        <time>2022-08-11T06:47:44Z</time>
      </trkpt>
      <trkpt lat="44.46665" lon="1.19209">
        <ele>135.8</ele>
        <time>2022-08-11T06:47:46Z</time>
      </trkpt>
      <trkpt lat="44.46664" lon="1.19197">
        <ele>135.2</ele>
        <time>2022-08-11T06:47:48Z</time>
      </trkpt>
      <trkpt lat="44.46664" lon="1.19185">
        <ele>134.5</ele>
        <time>2022-08-11T06:47:50Z</time>
      </trkpt>
      <trkpt lat="44.46663" lon="1.19173">
        <ele>134.3</ele>
        <time>2022-08-11T06:47:52Z</time>
      </trkpt>
      <trkpt lat="44.46661" lon="1.19161">
        <ele>134.6</ele>
        <time>2022-08-11T06:47:54Z</time>
      </trkpt>
      <trkpt lat="44.46662" lon="1.19149">
        <ele>134.1</ele>
        <time>2022-08-11T06:47:56Z</time>
      </trkpt>
      <trkpt lat="44.46661" lon="1.19136">
        <ele>133.8</ele>
        <time>2022-08-11T06:47:58Z</time>
      </trkpt>
      <trkpt lat="44.46661" lon="1.19124">
        <ele>133.6</ele>
        <time>2022-08-11T06:48:00Z</time>
      </trkpt>
      <trkpt lat="44.46661" lon="1.19112">
        <ele>133.6</ele>
        <time>2022-08-11T06:48:02Z</time>
      </trkpt>
      <trkpt lat="44.4666" lon="1.191">
        <ele>133.5</ele>
        <time>2022-08-11T06:48:04Z</time>
      </trkpt>
      <trkpt lat="44.46661" lon="1.19087">
        <ele>132.7</ele>
        <time>2022-08-11T06:48:06Z</time>
      </trkpt>
      <trkpt lat="44.46661" lon="1.19075">
        <ele>132</ele>
        <time>2022-08-11T06:48:08Z</time>
      </trkpt>
      <trkpt lat="44.46661" lon="1.19063">
        <ele>131.5</ele>
        <time>2022-08-11T06:48:10Z</time>
      </trkpt>
      <trkpt lat="44.46661" lon="1.1905">
        <ele>130.9</ele>
        <time>2022-08-11T06:48:12Z</time>
      </trkpt>
      <trkpt lat="44.46661" lon="1.19037">
        <ele>130.4</ele>
        <time>2022-08-11T06:48:14Z</time>
      </trkpt>
      <trkpt lat="44.46662" lon="1.19024">
        <ele>129.9</ele>
        <time>2022-08-11T06:48:16Z</time>
      </trkpt>
      <trkpt lat="44.46661" lon="1.19011">
        <ele>129.9</ele>
        <time>2022-08-11T06:48:18Z</time>
      </trkpt>
      <trkpt lat="44.46661" lon="1.18999">
        <ele>129.4</ele>
        <time>2022-08-11T06:48:20Z</time>
      </trkpt>
      <trkpt lat="44.46662" lon="1.18987">
        <ele>129.9</ele>
        <time>2022-08-11T06:48:22Z</time>
      </trkpt>
      <trkpt lat="44.46663" lon="1.18973">
        <ele>129.8</ele>
        <time>2022-08-11T06:48:24Z</time>
      </trkpt>
      <trkpt lat="44.46663" lon="1.1896">
        <ele>130.2</ele>
        <time>2022-08-11T06:48:26Z</time>
      </trkpt>
      <trkpt lat="44.46664" lon="1.18947">
        <ele>130.8</ele>
        <time>2022-08-11T06:48:28Z</time>
      </trkpt>
      <trkpt lat="44.46665" lon="1.18934">
        <ele>130.2</ele>
        <time>2022-08-11T06:48:30Z</time>
      </trkpt>
      <trkpt lat="44.46666" lon="1.18921">
        <ele>130.5</ele>
        <time>2022-08-11T06:48:32Z</time>
      </trkpt>
      <trkpt lat="44.46667" lon="1.18908">
        <ele>131.1</ele>
        <time>2022-08-11T06:48:34Z</time>
      </trkpt>
      <trkpt lat="44.46668" lon="1.18896">
        <ele>132.4</ele>
        <time>2022-08-11T06:48:36Z</time>
      </trkpt>
      <trkpt lat="44.46669" lon="1.18883">
        <ele>133.6</ele>
        <time>2022-08-11T06:48:38Z</time>
      </trkpt>
      <trkpt lat="44.46671" lon="1.18871">
        <ele>134.4</ele>
        <time>2022-08-11T06:48:40Z</time>
      </trkpt>
      <trkpt lat="44.46673" lon="1.18858">
        <ele>134.9</ele>
        <time>2022-08-11T06:48:42Z</time>
      </trkpt>
      <trkpt lat="44.46675" lon="1.18847">
        <ele>135.8</ele>
        <time>2022-08-11T06:48:44Z</time>
      </trkpt>
      <trkpt lat="44.46675" lon="1.18833">
        <ele>137.4</ele>
        <time>2022-08-11T06:48:46Z</time>
      </trkpt>
      <trkpt lat="44.46676" lon="1.18825">
        <ele>137.4</ele>
        <time>2022-08-11T06:48:48Z</time>
      </trkpt>
      <trkpt lat="44.46677" lon="1.1881">
        <ele>137.9</ele>
        <time>2022-08-11T06:48:50Z</time>
      </trkpt>
      <trkpt lat="44.46678" lon="1.18798">
        <ele>138.1</ele>
        <time>2022-08-11T06:48:52Z</time>
      </trkpt>
      <trkpt lat="44.4668" lon="1.18787">
        <ele>137.9</ele>
        <time>2022-08-11T06:48:54Z</time>
      </trkpt>
      <trkpt lat="44.46682" lon="1.18775">
        <ele>137.2</ele>
        <time>2022-08-11T06:48:56Z</time>
      </trkpt>
      <trkpt lat="44.46686" lon="1.18765">
        <ele>135.5</ele>
        <time>2022-08-11T06:48:58Z</time>
      </trkpt>
      <trkpt lat="44.46688" lon="1.18752">
        <ele>135.3</ele>
        <time>2022-08-11T06:49:00Z</time>
      </trkpt>
      <trkpt lat="44.4669" lon="1.1874">
        <ele>135.6</ele>
        <time>2022-08-11T06:49:02Z</time>
      </trkpt>
      <trkpt lat="44.46692" lon="1.18728">
        <ele>136.3</ele>
        <time>2022-08-11T06:49:04Z</time>
      </trkpt>
      <trkpt lat="44.46695" lon="1.18717">
        <ele>136</ele>
        <time>2022-08-11T06:49:06Z</time>
      </trkpt>
      <trkpt lat="44.46698" lon="1.18705">
        <ele>135.4</ele>
        <time>2022-08-11T06:49:08Z</time>
      </trkpt>
      <trkpt lat="44.46701" lon="1.18691">
        <ele>135.4</ele>
        <time>2022-08-11T06:49:10Z</time>
      </trkpt>
      <trkpt lat="44.46704" lon="1.18678">
        <ele>135.2</ele>
        <time>2022-08-11T06:49:12Z</time>
      </trkpt>
      <trkpt lat="44.46707" lon="1.18666">
        <ele>134.4</ele>
        <time>2022-08-11T06:49:14Z</time>
      </trkpt>
      <trkpt lat="44.4671" lon="1.18654">
        <ele>135.1</ele>
        <time>2022-08-11T06:49:16Z</time>
      </trkpt>
      <trkpt lat="44.46713" lon="1.18642">
        <ele>134.6</ele>
        <time>2022-08-11T06:49:18Z</time>
      </trkpt>
      <trkpt lat="44.46716" lon="1.1863">
        <ele>134.8</ele>
        <time>2022-08-11T06:49:20Z</time>
      </trkpt>
      <trkpt lat="44.46719" lon="1.18618">
        <ele>134.7</ele>
        <time>2022-08-11T06:49:22Z</time>
      </trkpt>
      <trkpt lat="44.46722" lon="1.18606">
        <ele>134.5</ele>
        <time>2022-08-11T06:49:24Z</time>
      </trkpt>
      <trkpt lat="44.46725" lon="1.18593">
        <ele>134.5</ele>
        <time>2022-08-11T06:49:26Z</time>
      </trkpt>
      <trkpt lat="44.46729" lon="1.18581">
        <ele>133.6</ele>
        <time>2022-08-11T06:49:28Z</time>
      </trkpt>
      <trkpt lat="44.46732" lon="1.18569">
        <ele>133.8</ele>
        <time>2022-08-11T06:49:30Z</time>
      </trkpt>
      <trkpt lat="44.46737" lon="1.18559">
        <ele>132</ele>
        <time>2022-08-11T06:49:32Z</time>
      </trkpt>
      <trkpt lat="44.46741" lon="1.18547">
        <ele>131.5</ele>
        <time>2022-08-11T06:49:34Z</time>
      </trkpt>
      <trkpt lat="44.46744" lon="1.18535">
        <ele>131.9</ele>
        <time>2022-08-11T06:49:36Z</time>
      </trkpt>
      <trkpt lat="44.46749" lon="1.18523">
        <ele>130.8</ele>
        <time>2022-08-11T06:49:38Z</time>
      </trkpt>
      <trkpt lat="44.46751" lon="1.18512">
        <ele>131.6</ele>
        <time>2022-08-11T06:49:40Z</time>
      </trkpt>
      <trkpt lat="44.46756" lon="1.18501">
        <ele>131.7</ele>
        <time>2022-08-11T06:49:42Z</time>
      </trkpt>
      <trkpt lat="44.46759" lon="1.18489">
        <ele>133.3</ele>
        <time>2022-08-11T06:49:44Z</time>
      </trkpt>
      <trkpt lat="44.46763" lon="1.18479">
        <ele>134.2</ele>
        <time>2022-08-11T06:49:46Z</time>
      </trkpt>
      <trkpt lat="44.46768" lon="1.18469">
        <ele>134.5</ele>
        <time>2022-08-11T06:49:48Z</time>
      </trkpt>
      <trkpt lat="44.46773" lon="1.18459">
        <ele>134.6</ele>
        <time>2022-08-11T06:49:50Z</time>
      </trkpt>
      <trkpt lat="44.46776" lon="1.18447">
        <ele>135.7</ele>
        <time>2022-08-11T06:49:52Z</time>
      </trkpt>
      <trkpt lat="44.4678" lon="1.18436">
        <ele>136.1</ele>
        <time>2022-08-11T06:49:54Z</time>
      </trkpt>
      <trkpt lat="44.46785" lon="1.18426">
        <ele>135.9</ele>
        <time>2022-08-11T06:49:56Z</time>
      </trkpt>
      <trkpt lat="44.4679" lon="1.18415">
        <ele>135.2</ele>
        <time>2022-08-11T06:49:58Z</time>
      </trkpt>
      <trkpt lat="44.46795" lon="1.18405">
        <ele>134.9</ele>
        <time>2022-08-11T06:50:00Z</time>
      </trkpt>
      <trkpt lat="44.468" lon="1.18394">
        <ele>135.2</ele>
        <time>2022-08-11T06:50:02Z</time>
      </trkpt>
      <trkpt lat="44.46804" lon="1.18383">
        <ele>135</ele>
        <time>2022-08-11T06:50:04Z</time>
      </trkpt>
      <trkpt lat="44.46809" lon="1.18373">
        <ele>134.4</ele>
        <time>2022-08-11T06:50:06Z</time>
      </trkpt>
      <trkpt lat="44.46815" lon="1.18363">
        <ele>133.3</ele>
        <time>2022-08-11T06:50:08Z</time>
      </trkpt>
      <trkpt lat="44.4682" lon="1.18353">
        <ele>132.8</ele>
        <time>2022-08-11T06:50:10Z</time>
      </trkpt>
      <trkpt lat="44.46824" lon="1.18344">
        <ele>132.6</ele>
        <time>2022-08-11T06:50:12Z</time>
      </trkpt>
      <trkpt lat="44.4683" lon="1.18334">
        <ele>130.9</ele>
        <time>2022-08-11T06:50:14Z</time>
      </trkpt>
      <trkpt lat="44.46835" lon="1.18325">
        <ele>131.7</ele>
        <time>2022-08-11T06:50:16Z</time>
      </trkpt>
      <trkpt lat="44.46842" lon="1.18315">
        <ele>132.7</ele>
        <time>2022-08-11T06:50:18Z</time>
      </trkpt>
      <trkpt lat="44.46848" lon="1.18305">
        <ele>133.7</ele>
        <time>2022-08-11T06:50:20Z</time>
      </trkpt>
      <trkpt lat="44.46855" lon="1.18297">
        <ele>133.4</ele>
        <time>2022-08-11T06:50:22Z</time>
      </trkpt>
      <trkpt lat="44.4686" lon="1.18283">
        <ele>135.2</ele>
        <time>2022-08-11T06:50:24Z</time>
      </trkpt>
      <trkpt lat="44.46867" lon="1.18273">
        <ele>135.1</ele>
        <time>2022-08-11T06:50:26Z</time>
      </trkpt>
      <trkpt lat="44.46873" lon="1.18262">
        <ele>134.6</ele>
        <time>2022-08-11T06:50:28Z</time>
      </trkpt>
      <trkpt lat="44.46879" lon="1.18252">
        <ele>133.9</ele>
        <time>2022-08-11T06:50:30Z</time>
      </trkpt>
      <trkpt lat="44.46886" lon="1.18243">
        <ele>132.7</ele>
        <time>2022-08-11T06:50:32Z</time>
      </trkpt>
      <trkpt lat="44.46892" lon="1.18233">
        <ele>133.1</ele>
        <time>2022-08-11T06:50:34Z</time>
      </trkpt>
      <trkpt lat="44.46898" lon="1.18223">
        <ele>132.7</ele>
        <time>2022-08-11T06:50:36Z</time>
      </trkpt>
      <trkpt lat="44.46904" lon="1.18212">
        <ele>133.1</ele>
        <time>2022-08-11T06:50:38Z</time>
      </trkpt>
      <trkpt lat="44.46911" lon="1.18204">
        <ele>132.3</ele>
        <time>2022-08-11T06:50:40Z</time>
      </trkpt>
      <trkpt lat="44.46917" lon="1.18193">
        <ele>132.8</ele>
        <time>2022-08-11T06:50:42Z</time>
      </trkpt>
      <trkpt lat="44.46924" lon="1.18183">
        <ele>133.6</ele>
        <time>2022-08-11T06:50:44Z</time>
      </trkpt>
      <trkpt lat="44.4693" lon="1.18175">
        <ele>133.6</ele>
        <time>2022-08-11T06:50:46Z</time>
      </trkpt>
      <trkpt lat="44.46937" lon="1.18166">
        <ele>133.8</ele>
        <time>2022-08-11T06:50:48Z</time>
      </trkpt>
      <trkpt lat="44.46945" lon="1.18158">
        <ele>133.5</ele>
        <time>2022-08-11T06:50:50Z</time>
      </trkpt>
      <trkpt lat="44.46951" lon="1.18148">
        <ele>134.2</ele>
        <time>2022-08-11T06:50:52Z</time>
      </trkpt>
      <trkpt lat="44.46959" lon="1.18139">
        <ele>133.7</ele>
        <time>2022-08-11T06:50:54Z</time>
      </trkpt>
      <trkpt lat="44.46967" lon="1.18131">
        <ele>132.9</ele>
        <time>2022-08-11T06:50:56Z</time>
      </trkpt>
      <trkpt lat="44.46974" lon="1.18122">
        <ele>132.6</ele>
        <time>2022-08-11T06:50:58Z</time>
      </trkpt>
      <trkpt lat="44.46981" lon="1.18113">
        <ele>132.4</ele>
        <time>2022-08-11T06:51:00Z</time>
      </trkpt>
      <trkpt lat="44.46988" lon="1.18104">
        <ele>131.9</ele>
        <time>2022-08-11T06:51:02Z</time>
      </trkpt>
      <trkpt lat="44.46996" lon="1.18096">
        <ele>130.9</ele>
        <time>2022-08-11T06:51:04Z</time>
      </trkpt>
      <trkpt lat="44.47003" lon="1.18087">
        <ele>130.7</ele>
        <time>2022-08-11T06:51:06Z</time>
      </trkpt>
      <trkpt lat="44.4701" lon="1.1808">
        <ele>131.3</ele>
        <time>2022-08-11T06:51:08Z</time>
      </trkpt>
      <trkpt lat="44.47017" lon="1.1807">
        <ele>133.4</ele>
        <time>2022-08-11T06:51:10Z</time>
      </trkpt>
      <trkpt lat="44.47025" lon="1.18061">
        <ele>134.4</ele>
        <time>2022-08-11T06:51:12Z</time>
      </trkpt>
      <trkpt lat="44.47032" lon="1.18052">
        <ele>135.5</ele>
        <time>2022-08-11T06:51:14Z</time>
      </trkpt>
      <trkpt lat="44.47039" lon="1.18043">
        <ele>136</ele>
        <time>2022-08-11T06:51:16Z</time>
      </trkpt>
      <trkpt lat="44.47047" lon="1.18035">
        <ele>135.5</ele>
        <time>2022-08-11T06:51:18Z</time>
      </trkpt>
      <trkpt lat="44.47054" lon="1.18027">
        <ele>135.6</ele>
        <time>2022-08-11T06:51:20Z</time>
      </trkpt>
      <trkpt lat="44.47062" lon="1.1802">
        <ele>134.4</ele>
        <time>2022-08-11T06:51:22Z</time>
      </trkpt>
      <trkpt lat="44.47069" lon="1.18012">
        <ele>133.9</ele>
        <time>2022-08-11T06:51:24Z</time>
      </trkpt>
      <trkpt lat="44.47076" lon="1.18004">
        <ele>132.8</ele>
        <time>2022-08-11T06:51:26Z</time>
      </trkpt>
      <trkpt lat="44.47083" lon="1.17996">
        <ele>131.8</ele>
        <time>2022-08-11T06:51:28Z</time>
      </trkpt>
      <trkpt lat="44.47091" lon="1.17989">
        <ele>132</ele>
        <time>2022-08-11T06:51:30Z</time>
      </trkpt>
      <trkpt lat="44.47098" lon="1.1798">
        <ele>132.7</ele>
        <time>2022-08-11T06:51:32Z</time>
      </trkpt>
      <trkpt lat="44.47106" lon="1.17972">
        <ele>132.9</ele>
        <time>2022-08-11T06:51:34Z</time>
      </trkpt>
      <trkpt lat="44.47115" lon="1.17964">
        <ele>132.1</ele>
        <time>2022-08-11T06:51:36Z</time>
      </trkpt>
      <trkpt lat="44.47124" lon="1.17958">
        <ele>130.3</ele>
        <time>2022-08-11T06:51:38Z</time>
      </trkpt>
      <trkpt lat="44.47133" lon="1.17949">
        <ele>129</ele>
        <time>2022-08-11T06:51:40Z</time>
      </trkpt>
      <trkpt lat="44.47142" lon="1.17942">
        <ele>127.8</ele>
        <time>2022-08-11T06:51:42Z</time>
      </trkpt>
      <trkpt lat="44.4715" lon="1.17934">
        <ele>126.1</ele>
        <time>2022-08-11T06:51:44Z</time>
      </trkpt>
      <trkpt lat="44.47158" lon="1.17927">
        <ele>124.4</ele>
        <time>2022-08-11T06:51:46Z</time>
      </trkpt>
      <trkpt lat="44.47167" lon="1.17919">
        <ele>122.2</ele>
        <time>2022-08-11T06:51:48Z</time>
      </trkpt>
      <trkpt lat="44.47175" lon="1.17912">
        <ele>123</ele>
        <time>2022-08-11T06:51:50Z</time>
      </trkpt>
      <trkpt lat="44.47184" lon="1.17905">
        <ele>123.9</ele>
        <time>2022-08-11T06:51:52Z</time>
      </trkpt>
      <trkpt lat="44.47193" lon="1.17898">
        <ele>124.4</ele>
        <time>2022-08-11T06:51:54Z</time>
      </trkpt>
      <trkpt lat="44.47202" lon="1.1789">
        <ele>125.2</ele>
        <time>2022-08-11T06:51:56Z</time>
      </trkpt>
      <trkpt lat="44.4721" lon="1.17882">
        <ele>125.6</ele>
        <time>2022-08-11T06:51:58Z</time>
      </trkpt>
      <trkpt lat="44.4722" lon="1.17874">
        <ele>125.1</ele>
        <time>2022-08-11T06:52:00Z</time>
      </trkpt>
      <trkpt lat="44.47229" lon="1.17866">
        <ele>124.3</ele>
        <time>2022-08-11T06:52:02Z</time>
      </trkpt>
      <trkpt lat="44.47239" lon="1.17858">
        <ele>123.4</ele>
        <time>2022-08-11T06:52:04Z</time>
      </trkpt>
      <trkpt lat="44.47249" lon="1.17851">
        <ele>121.2</ele>
        <time>2022-08-11T06:52:06Z</time>
      </trkpt>
      <trkpt lat="44.47258" lon="1.17841">
        <ele>121.2</ele>
        <time>2022-08-11T06:52:08Z</time>
      </trkpt>
      <trkpt lat="44.47268" lon="1.17833">
        <ele>120.8</ele>
        <time>2022-08-11T06:52:10Z</time>
      </trkpt>
      <trkpt lat="44.47277" lon="1.17823">
        <ele>122.3</ele>
        <time>2022-08-11T06:52:12Z</time>
      </trkpt>
      <trkpt lat="44.47288" lon="1.17815">
        <ele>122.7</ele>
        <time>2022-08-11T06:52:14Z</time>
      </trkpt>
      <trkpt lat="44.47297" lon="1.17805">
        <ele>123.8</ele>
        <time>2022-08-11T06:52:16Z</time>
      </trkpt>
      <trkpt lat="44.47308" lon="1.17796">
        <ele>123.8</ele>
        <time>2022-08-11T06:52:18Z</time>
      </trkpt>
      <trkpt lat="44.47318" lon="1.17789">
        <ele>123.4</ele>
        <time>2022-08-11T06:52:20Z</time>
      </trkpt>
      <trkpt lat="44.47328" lon="1.1778">
        <ele>122.9</ele>
        <time>2022-08-11T06:52:22Z</time>
      </trkpt>
      <trkpt lat="44.47338" lon="1.17773">
        <ele>123</ele>
        <time>2022-08-11T06:52:24Z</time>
      </trkpt>
      <trkpt lat="44.47348" lon="1.17766">
        <ele>122.9</ele>
        <time>2022-08-11T06:52:26Z</time>
      </trkpt>
      <trkpt lat="44.47359" lon="1.17761">
        <ele>121.8</ele>
        <time>2022-08-11T06:52:28Z</time>
      </trkpt>
      <trkpt lat="44.47369" lon="1.17752">
        <ele>121.7</ele>
        <time>2022-08-11T06:52:30Z</time>
      </trkpt>
      <trkpt lat="44.47379" lon="1.17746">
        <ele>121.4</ele>
        <time>2022-08-11T06:52:32Z</time>
      </trkpt>
      <trkpt lat="44.47389" lon="1.17739">
        <ele>121.7</ele>
        <time>2022-08-11T06:52:34Z</time>
      </trkpt>
      <trkpt lat="44.474" lon="1.17732">
        <ele>122.1</ele>
        <time>2022-08-11T06:52:36Z</time>
      </trkpt>
      <trkpt lat="44.47409" lon="1.17726">
        <ele>122.5</ele>
        <time>2022-08-11T06:52:38Z</time>
      </trkpt>
      <trkpt lat="44.4742" lon="1.1772">
        <ele>122.2</ele>
        <time>2022-08-11T06:52:40Z</time>
      </trkpt>
      <trkpt lat="44.4743" lon="1.17714">
        <ele>122.6</ele>
        <time>2022-08-11T06:52:42Z</time>
      </trkpt>
      <trkpt lat="44.4744" lon="1.17708">
        <ele>122.6</ele>
        <time>2022-08-11T06:52:44Z</time>
      </trkpt>
      <trkpt lat="44.4745" lon="1.17701">
        <ele>122.2</ele>
        <time>2022-08-11T06:52:46Z</time>
      </trkpt>
      <trkpt lat="44.47461" lon="1.17695">
        <ele>121.3</ele>
        <time>2022-08-11T06:52:48Z</time>
      </trkpt>
      <trkpt lat="44.47471" lon="1.17689">
        <ele>120.2</ele>
        <time>2022-08-11T06:52:50Z</time>
      </trkpt>
      <trkpt lat="44.47481" lon="1.17684">
        <ele>118.7</ele>
        <time>2022-08-11T06:52:52Z</time>
      </trkpt>
      <trkpt lat="44.47491" lon="1.17678">
        <ele>116.8</ele>
        <time>2022-08-11T06:52:54Z</time>
      </trkpt>
      <trkpt lat="44.47501" lon="1.17673">
        <ele>114.9</ele>
        <time>2022-08-11T06:52:56Z</time>
      </trkpt>
      <trkpt lat="44.47513" lon="1.17668">
        <ele>115.1</ele>
        <time>2022-08-11T06:52:58Z</time>
      </trkpt>
      <trkpt lat="44.47523" lon="1.17663">
        <ele>116.6</ele>
        <time>2022-08-11T06:53:00Z</time>
      </trkpt>
      <trkpt lat="44.47534" lon="1.17658">
        <ele>118.1</ele>
        <time>2022-08-11T06:53:02Z</time>
      </trkpt>
      <trkpt lat="44.47545" lon="1.17653">
        <ele>119.1</ele>
        <time>2022-08-11T06:53:04Z</time>
      </trkpt>
      <trkpt lat="44.47556" lon="1.17649">
        <ele>119.8</ele>
        <time>2022-08-11T06:53:06Z</time>
      </trkpt>
      <trkpt lat="44.47566" lon="1.17643">
        <ele>121.4</ele>
        <time>2022-08-11T06:53:08Z</time>
      </trkpt>
      <trkpt lat="44.47575" lon="1.17638">
        <ele>122.6</ele>
        <time>2022-08-11T06:53:10Z</time>
      </trkpt>
      <trkpt lat="44.47585" lon="1.17634">
        <ele>122.6</ele>
        <time>2022-08-11T06:53:12Z</time>
      </trkpt>
      <trkpt lat="44.47594" lon="1.17629">
        <ele>123.5</ele>
        <time>2022-08-11T06:53:14Z</time>
      </trkpt>
      <trkpt lat="44.47602" lon="1.17626">
        <ele>123.3</ele>
        <time>2022-08-11T06:53:16Z</time>
      </trkpt>
      <trkpt lat="44.47609" lon="1.17625">
        <ele>122.9</ele>
        <time>2022-08-11T06:53:18Z</time>
      </trkpt>
      <trkpt lat="44.47616" lon="1.17622">
        <ele>122.8</ele>
        <time>2022-08-11T06:53:20Z</time>
      </trkpt>
      <trkpt lat="44.47621" lon="1.17621">
        <ele>122.1</ele>
        <time>2022-08-11T06:53:22Z</time>
      </trkpt>
      <trkpt lat="44.47626" lon="1.17618">
        <ele>122.5</ele>
        <time>2022-08-11T06:53:24Z</time>
      </trkpt>
      <trkpt lat="44.47633" lon="1.17617">
        <ele>121.5</ele>
        <time>2022-08-11T06:53:26Z</time>
      </trkpt>
      <trkpt lat="44.47634" lon="1.17624">
        <ele>118.4</ele>
        <time>2022-08-11T06:53:28Z</time>
      </trkpt>
      <trkpt lat="44.47629" lon="1.17629">
        <ele>117.5</ele>
        <time>2022-08-11T06:53:30Z</time>
      </trkpt>
      <trkpt lat="44.47626" lon="1.17631">
        <ele>116.9</ele>
        <time>2022-08-11T06:53:32Z</time>
      </trkpt>
      <trkpt lat="44.47619" lon="1.17636">
        <ele>116.2</ele>
        <time>2022-08-11T06:53:34Z</time>
      </trkpt>
      <trkpt lat="44.47613" lon="1.1764">
        <ele>115.6</ele>
        <time>2022-08-11T06:53:36Z</time>
      </trkpt>
      <trkpt lat="44.4761" lon="1.17642">
        <ele>115.1</ele>
        <time>2022-08-11T06:53:38Z</time>
      </trkpt>
      <trkpt lat="44.47607" lon="1.17643">
        <ele>115</ele>
        <time>2022-08-11T06:53:40Z</time>
      </trkpt>
      <trkpt lat="44.47602" lon="1.17646">
        <ele>114.3</ele>
        <time>2022-08-11T06:53:42Z</time>
      </trkpt>
      <trkpt lat="44.47593" lon="1.17651">
        <ele>113.4</ele>
        <time>2022-08-11T06:53:44Z</time>
      </trkpt>
      <trkpt lat="44.4759" lon="1.17653">
        <ele>112.7</ele>
        <time>2022-08-11T06:53:46Z</time>
      </trkpt>
      <trkpt lat="44.47587" lon="1.17657">
        <ele>111.1</ele>
        <time>2022-08-11T06:53:48Z</time>
      </trkpt>
      <trkpt lat="44.47584" lon="1.1766">
        <ele>110.1</ele>
        <time>2022-08-11T06:53:50Z</time>
      </trkpt>
      <trkpt lat="44.4758" lon="1.17664">
        <ele>108.8</ele>
        <time>2022-08-11T06:53:52Z</time>
      </trkpt>
      <trkpt lat="44.47577" lon="1.17666">
        <ele>108.2</ele>
        <time>2022-08-11T06:53:54Z</time>
      </trkpt>
      <trkpt lat="44.47572" lon="1.17669">
        <ele>107.8</ele>
        <time>2022-08-11T06:53:56Z</time>
      </trkpt>
      <trkpt lat="44.47564" lon="1.17675">
        <ele>107.3</ele>
        <time>2022-08-11T06:53:58Z</time>
      </trkpt>
      <trkpt lat="44.47556" lon="1.17681">
        <ele>106.8</ele>
        <time>2022-08-11T06:54:00Z</time>
      </trkpt>
      <trkpt lat="44.4755" lon="1.1769">
        <ele>105.3</ele>
        <time>2022-08-11T06:54:02Z</time>
      </trkpt>
      <trkpt lat="44.47545" lon="1.17697">
        <ele>104.1</ele>
        <time>2022-08-11T06:54:04Z</time>
      </trkpt>
      <trkpt lat="44.47547" lon="1.17711">
        <ele>100.4</ele>
        <time>2022-08-11T06:54:06Z</time>
      </trkpt>
      <trkpt lat="44.47553" lon="1.17723">
        <ele>97.3</ele>
        <time>2022-08-11T06:54:08Z</time>
      </trkpt>
      <trkpt lat="44.47567" lon="1.17725">
        <ele>95.9</ele>
        <time>2022-08-11T06:54:10Z</time>
      </trkpt>
      <trkpt lat="44.4758" lon="1.17725">
        <ele>95.3</ele>
        <time>2022-08-11T06:54:12Z</time>
      </trkpt>
      <trkpt lat="44.47593" lon="1.17725">
        <ele>94.7</ele>
        <time>2022-08-11T06:54:14Z</time>
      </trkpt>
      <trkpt lat="44.47608" lon="1.17724">
        <ele>94.3</ele>
        <time>2022-08-11T06:54:16Z</time>
      </trkpt>
      <trkpt lat="44.4762" lon="1.17723">
        <ele>94</ele>
        <time>2022-08-11T06:54:18Z</time>
      </trkpt>
      <trkpt lat="44.47628" lon="1.17722">
        <ele>93.6</ele>
        <time>2022-08-11T06:54:20Z</time>
      </trkpt>
      <trkpt lat="44.47639" lon="1.17723">
        <ele>93.1</ele>
        <time>2022-08-11T06:54:22Z</time>
      </trkpt>
      <trkpt lat="44.47649" lon="1.17724">
        <ele>92.6</ele>
        <time>2022-08-11T06:54:24Z</time>
      </trkpt>
      <trkpt lat="44.47656" lon="1.17727">
        <ele>91.8</ele>
        <time>2022-08-11T06:54:26Z</time>
      </trkpt>
      <trkpt lat="44.47665" lon="1.1773">
        <ele>91.2</ele>
        <time>2022-08-11T06:54:28Z</time>
      </trkpt>
      <trkpt lat="44.47674" lon="1.17732">
        <ele>90.8</ele>
        <time>2022-08-11T06:54:30Z</time>
      </trkpt>
      <trkpt lat="44.47682" lon="1.17736">
        <ele>90.3</ele>
        <time>2022-08-11T06:54:32Z</time>
      </trkpt>
      <trkpt lat="44.47692" lon="1.1774">
        <ele>89.8</ele>
        <time>2022-08-11T06:54:34Z</time>
      </trkpt>
      <trkpt lat="44.47702" lon="1.17745">
        <ele>89.4</ele>
        <time>2022-08-11T06:54:36Z</time>
      </trkpt>
      <trkpt lat="44.47712" lon="1.17749">
        <ele>89</ele>
        <time>2022-08-11T06:54:38Z</time>
      </trkpt>
      <trkpt lat="44.47722" lon="1.17754">
        <ele>88.8</ele>
        <time>2022-08-11T06:54:40Z</time>
      </trkpt>
      <trkpt lat="44.47732" lon="1.17759">
        <ele>88.6</ele>
        <time>2022-08-11T06:54:42Z</time>
      </trkpt>
      <trkpt lat="44.47742" lon="1.17765">
        <ele>88.3</ele>
        <time>2022-08-11T06:54:44Z</time>
      </trkpt>
      <trkpt lat="44.47752" lon="1.17769">
        <ele>88.1</ele>
        <time>2022-08-11T06:54:46Z</time>
      </trkpt>
      <trkpt lat="44.47762" lon="1.17774">
        <ele>88</ele>
        <time>2022-08-11T06:54:48Z</time>
      </trkpt>
      <trkpt lat="44.47772" lon="1.17769">
        <ele>88.3</ele>
        <time>2022-08-11T06:54:50Z</time>
      </trkpt>
      <trkpt lat="44.47776" lon="1.17756">
        <ele>88.8</ele>
        <time>2022-08-11T06:54:52Z</time>
      </trkpt>
      <trkpt lat="44.47777" lon="1.17744">
        <ele>89.1</ele>
        <time>2022-08-11T06:54:54Z</time>
      </trkpt>
      <trkpt lat="44.47782" lon="1.17737">
        <ele>89.2</ele>
        <time>2022-08-11T06:54:56Z</time>
      </trkpt>
      <trkpt lat="44.47787" lon="1.1773">
        <ele>89.3</ele>
        <time>2022-08-11T06:54:58Z</time>
      </trkpt>
      <trkpt lat="44.47792" lon="1.17726">
        <ele>89.3</ele>
        <time>2022-08-11T06:55:00Z</time>
      </trkpt>
      <trkpt lat="44.47795" lon="1.17723">
        <ele>89.3</ele>
        <time>2022-08-11T06:55:02Z</time>
      </trkpt>
      <trkpt lat="44.47795" lon="1.17724">
        <ele>89.3</ele>
        <time>2022-08-11T06:55:04Z</time>
      </trkpt>
      <trkpt lat="44.47795" lon="1.17724">
        <ele>89.3</ele>
        <time>2022-08-11T06:55:06Z</time>
      </trkpt>
      <trkpt lat="44.47795" lon="1.17723">
        <ele>89.3</ele>
        <time>2022-08-11T06:55:08Z</time>
      </trkpt>
      <trkpt lat="44.47795" lon="1.17723">
        <ele>89.3</ele>
        <time>2022-08-11T06:55:10Z</time>
      </trkpt>
      <trkpt lat="44.47795" lon="1.17723">
        <ele>89.3</ele>
        <time>2022-08-11T06:55:12Z</time>
      </trkpt>
      <trkpt lat="44.47784" lon="1.17729">
        <ele>89.3</ele>
        <time>2022-08-11T06:58:00Z</time>
      </trkpt>
      <trkpt lat="44.47785" lon="1.17734">
        <ele>89.2</ele>
        <time>2022-08-11T06:58:02Z</time>
      </trkpt>
      <trkpt lat="44.4779" lon="1.17731">
        <ele>89.2</ele>
        <time>2022-08-11T06:58:04Z</time>
      </trkpt>
      <trkpt lat="44.47795" lon="1.17723">
        <ele>89.3</ele>
        <time>2022-08-11T06:58:06Z</time>
      </trkpt>
      <trkpt lat="44.47799" lon="1.17718">
        <ele>89.3</ele>
        <time>2022-08-11T06:58:08Z</time>
      </trkpt>
      <trkpt lat="44.47804" lon="1.17712">
        <ele>89.3</ele>
        <time>2022-08-11T06:58:10Z</time>
      </trkpt>
      <trkpt lat="44.47808" lon="1.17707">
        <ele>89.3</ele>
        <time>2022-08-11T06:58:12Z</time>
      </trkpt>
      <trkpt lat="44.47812" lon="1.17706">
        <ele>89.3</ele>
        <time>2022-08-11T06:58:14Z</time>
      </trkpt>
      <trkpt lat="44.47812" lon="1.17703">
        <ele>89.3</ele>
        <time>2022-08-11T06:58:16Z</time>
      </trkpt>
      <trkpt lat="44.47809" lon="1.17703">
        <ele>89.3</ele>
        <time>2022-08-11T06:58:18Z</time>
      </trkpt>
      <trkpt lat="44.47806" lon="1.17708">
        <ele>89.3</ele>
        <time>2022-08-11T06:58:20Z</time>
      </trkpt>
      <trkpt lat="44.47803" lon="1.17714">
        <ele>89.3</ele>
        <time>2022-08-11T06:58:22Z</time>
      </trkpt>
      <trkpt lat="44.47801" lon="1.17719">
        <ele>89.3</ele>
        <time>2022-08-11T06:58:24Z</time>
      </trkpt>
      <trkpt lat="44.47798" lon="1.17723">
        <ele>89.3</ele>
        <time>2022-08-11T06:58:26Z</time>
      </trkpt>
      <trkpt lat="44.47798" lon="1.17725">
        <ele>89.3</ele>
        <time>2022-08-11T06:58:28Z</time>
      </trkpt>
      <trkpt lat="44.47798" lon="1.17724">
        <ele>89.3</ele>
        <time>2022-08-11T06:58:30Z</time>
      </trkpt>
      <trkpt lat="44.47798" lon="1.17724">
        <ele>89.3</ele>
        <time>2022-08-11T06:58:32Z</time>
      </trkpt>
      <trkpt lat="44.47798" lon="1.17724">
        <ele>89.3</ele>
        <time>2022-08-11T06:58:36Z</time>
      </trkpt>
      <trkpt lat="44.47816" lon="1.17699">
        <ele>89.3</ele>
        <time>2022-08-11T07:00:42Z</time>
      </trkpt>
      <trkpt lat="44.47819" lon="1.17697">
        <ele>89.2</ele>
        <time>2022-08-11T07:00:44Z</time>
      </trkpt>
      <trkpt lat="44.47821" lon="1.17694">
        <ele>89.2</ele>
        <time>2022-08-11T07:00:46Z</time>
      </trkpt>
      <trkpt lat="44.47824" lon="1.1769">
        <ele>89.2</ele>
        <time>2022-08-11T07:00:48Z</time>
      </trkpt>
      <trkpt lat="44.47827" lon="1.17685">
        <ele>89.1</ele>
        <time>2022-08-11T07:00:50Z</time>
      </trkpt>
      <trkpt lat="44.47832" lon="1.17681">
        <ele>89</ele>
        <time>2022-08-11T07:00:52Z</time>
      </trkpt>
      <trkpt lat="44.47837" lon="1.17677">
        <ele>89</ele>
        <time>2022-08-11T07:00:54Z</time>
      </trkpt>
      <trkpt lat="44.47842" lon="1.17673">
        <ele>89</ele>
        <time>2022-08-11T07:00:56Z</time>
      </trkpt>
      <trkpt lat="44.47848" lon="1.17669">
        <ele>89</ele>
        <time>2022-08-11T07:00:58Z</time>
      </trkpt>
      <trkpt lat="44.47854" lon="1.17665">
        <ele>89.1</ele>
        <time>2022-08-11T07:01:00Z</time>
      </trkpt>
      <trkpt lat="44.4786" lon="1.17662">
        <ele>89.3</ele>
        <time>2022-08-11T07:01:02Z</time>
      </trkpt>
      <trkpt lat="44.47867" lon="1.1766">
        <ele>89.4</ele>
        <time>2022-08-11T07:01:04Z</time>
      </trkpt>
      <trkpt lat="44.47874" lon="1.17658">
        <ele>89.5</ele>
        <time>2022-08-11T07:01:06Z</time>
      </trkpt>
      <trkpt lat="44.47881" lon="1.17657">
        <ele>89.5</ele>
        <time>2022-08-11T07:01:08Z</time>
      </trkpt>
      <trkpt lat="44.47888" lon="1.17656">
        <ele>89.5</ele>
        <time>2022-08-11T07:01:10Z</time>
      </trkpt>
      <trkpt lat="44.47895" lon="1.17655">
        <ele>89.4</ele>
        <time>2022-08-11T07:01:12Z</time>
      </trkpt>
      <trkpt lat="44.47902" lon="1.17655">
        <ele>89.4</ele>
        <time>2022-08-11T07:01:14Z</time>
      </trkpt>
      <trkpt lat="44.4791" lon="1.17654">
        <ele>89.4</ele>
        <time>2022-08-11T07:01:16Z</time>
      </trkpt>
      <trkpt lat="44.47917" lon="1.17654">
        <ele>89.3</ele>
        <time>2022-08-11T07:01:18Z</time>
      </trkpt>
      <trkpt lat="44.47925" lon="1.17654">
        <ele>89.3</ele>
        <time>2022-08-11T07:01:20Z</time>
      </trkpt>
      <trkpt lat="44.47933" lon="1.17653">
        <ele>89.2</ele>
        <time>2022-08-11T07:01:22Z</time>
      </trkpt>
      <trkpt lat="44.47941" lon="1.17653">
        <ele>89.2</ele>
        <time>2022-08-11T07:01:24Z</time>
      </trkpt>
      <trkpt lat="44.47948" lon="1.17652">
        <ele>89.2</ele>
        <time>2022-08-11T07:01:26Z</time>
      </trkpt>
      <trkpt lat="44.47956" lon="1.1765">
        <ele>89.1</ele>
        <time>2022-08-11T07:01:28Z</time>
      </trkpt>
      <trkpt lat="44.47964" lon="1.17649">
        <ele>89.1</ele>
        <time>2022-08-11T07:01:30Z</time>
      </trkpt>
      <trkpt lat="44.47971" lon="1.17647">
        <ele>89</ele>
        <time>2022-08-11T07:01:32Z</time>
      </trkpt>
      <trkpt lat="44.47979" lon="1.17645">
        <ele>88.9</ele>
        <time>2022-08-11T07:01:34Z</time>
      </trkpt>
      <trkpt lat="44.47987" lon="1.17644">
        <ele>88.9</ele>
        <time>2022-08-11T07:01:36Z</time>
      </trkpt>
      <trkpt lat="44.47995" lon="1.17642">
        <ele>88.8</ele>
        <time>2022-08-11T07:01:38Z</time>
      </trkpt>
      <trkpt lat="44.48002" lon="1.17639">
        <ele>88.7</ele>
        <time>2022-08-11T07:01:40Z</time>
      </trkpt>
      <trkpt lat="44.4801" lon="1.17636">
        <ele>88.6</ele>
        <time>2022-08-11T07:01:42Z</time>
      </trkpt>
      <trkpt lat="44.48018" lon="1.17634">
        <ele>88.6</ele>
        <time>2022-08-11T07:01:44Z</time>
      </trkpt>
      <trkpt lat="44.48027" lon="1.17632">
        <ele>88.6</ele>
        <time>2022-08-11T07:01:46Z</time>
      </trkpt>
      <trkpt lat="44.48035" lon="1.17629">
        <ele>88.5</ele>
        <time>2022-08-11T07:01:48Z</time>
      </trkpt>
      <trkpt lat="44.48043" lon="1.17626">
        <ele>88.5</ele>
        <time>2022-08-11T07:01:50Z</time>
      </trkpt>
      <trkpt lat="44.48051" lon="1.17624">
        <ele>88.5</ele>
        <time>2022-08-11T07:01:52Z</time>
      </trkpt>
      <trkpt lat="44.48059" lon="1.17622">
        <ele>88.5</ele>
        <time>2022-08-11T07:01:54Z</time>
      </trkpt>
      <trkpt lat="44.48068" lon="1.17619">
        <ele>88.4</ele>
        <time>2022-08-11T07:01:56Z</time>
      </trkpt>
      <trkpt lat="44.48076" lon="1.17617">
        <ele>88.4</ele>
        <time>2022-08-11T07:01:58Z</time>
      </trkpt>
      <trkpt lat="44.48084" lon="1.17615">
        <ele>88.4</ele>
        <time>2022-08-11T07:02:00Z</time>
      </trkpt>
      <trkpt lat="44.48092" lon="1.17613">
        <ele>88.5</ele>
        <time>2022-08-11T07:02:02Z</time>
      </trkpt>
      <trkpt lat="44.481" lon="1.17611">
        <ele>88.6</ele>
        <time>2022-08-11T07:02:04Z</time>
      </trkpt>
      <trkpt lat="44.48107" lon="1.17609">
        <ele>88.7</ele>
        <time>2022-08-11T07:02:06Z</time>
      </trkpt>
      <trkpt lat="44.48116" lon="1.17608">
        <ele>88.8</ele>
        <time>2022-08-11T07:02:08Z</time>
      </trkpt>
      <trkpt lat="44.48123" lon="1.17606">
        <ele>88.9</ele>
        <time>2022-08-11T07:02:10Z</time>
      </trkpt>
      <trkpt lat="44.48131" lon="1.17605">
        <ele>89</ele>
        <time>2022-08-11T07:02:12Z</time>
      </trkpt>
      <trkpt lat="44.48139" lon="1.17603">
        <ele>89.1</ele>
        <time>2022-08-11T07:02:14Z</time>
      </trkpt>
      <trkpt lat="44.48146" lon="1.17602">
        <ele>89.1</ele>
        <time>2022-08-11T07:02:16Z</time>
      </trkpt>
      <trkpt lat="44.48154" lon="1.17599">
        <ele>89.2</ele>
        <time>2022-08-11T07:02:18Z</time>
      </trkpt>
      <trkpt lat="44.48161" lon="1.17598">
        <ele>89.3</ele>
        <time>2022-08-11T07:02:20Z</time>
      </trkpt>
      <trkpt lat="44.48168" lon="1.17596">
        <ele>89.3</ele>
        <time>2022-08-11T07:02:22Z</time>
      </trkpt>
      <trkpt lat="44.48176" lon="1.17595">
        <ele>89.2</ele>
        <time>2022-08-11T07:02:24Z</time>
      </trkpt>
      <trkpt lat="44.48184" lon="1.17594">
        <ele>89.2</ele>
        <time>2022-08-11T07:02:26Z</time>
      </trkpt>
      <trkpt lat="44.48191" lon="1.17591">
        <ele>89.1</ele>
        <time>2022-08-11T07:02:28Z</time>
      </trkpt>
      <trkpt lat="44.48199" lon="1.1759">
        <ele>89.1</ele>
        <time>2022-08-11T07:02:30Z</time>
      </trkpt>
      <trkpt lat="44.48208" lon="1.17588">
        <ele>89</ele>
        <time>2022-08-11T07:02:32Z</time>
      </trkpt>
      <trkpt lat="44.48216" lon="1.17587">
        <ele>89</ele>
        <time>2022-08-11T07:02:34Z</time>
      </trkpt>
      <trkpt lat="44.48223" lon="1.17585">
        <ele>89</ele>
        <time>2022-08-11T07:02:36Z</time>
      </trkpt>
      <trkpt lat="44.48232" lon="1.17584">
        <ele>89</ele>
        <time>2022-08-11T07:02:38Z</time>
      </trkpt>
      <trkpt lat="44.4824" lon="1.17582">
        <ele>89</ele>
        <time>2022-08-11T07:02:40Z</time>
      </trkpt>
      <trkpt lat="44.48248" lon="1.17581">
        <ele>89</ele>
        <time>2022-08-11T07:02:42Z</time>
      </trkpt>
      <trkpt lat="44.48257" lon="1.17578">
        <ele>89</ele>
        <time>2022-08-11T07:02:44Z</time>
      </trkpt>
      <trkpt lat="44.48264" lon="1.17577">
        <ele>89.1</ele>
        <time>2022-08-11T07:02:46Z</time>
      </trkpt>
      <trkpt lat="44.48272" lon="1.17574">
        <ele>89.1</ele>
        <time>2022-08-11T07:02:48Z</time>
      </trkpt>
      <trkpt lat="44.48281" lon="1.17572">
        <ele>89.2</ele>
        <time>2022-08-11T07:02:50Z</time>
      </trkpt>
      <trkpt lat="44.48289" lon="1.1757">
        <ele>89.2</ele>
        <time>2022-08-11T07:02:52Z</time>
      </trkpt>
      <trkpt lat="44.48297" lon="1.17566">
        <ele>89.2</ele>
        <time>2022-08-11T07:02:54Z</time>
      </trkpt>
      <trkpt lat="44.48306" lon="1.17562">
        <ele>89.2</ele>
        <time>2022-08-11T07:02:56Z</time>
      </trkpt>
      <trkpt lat="44.48314" lon="1.17559">
        <ele>89.2</ele>
        <time>2022-08-11T07:02:58Z</time>
      </trkpt>
      <trkpt lat="44.48323" lon="1.17554">
        <ele>89.2</ele>
        <time>2022-08-11T07:03:00Z</time>
      </trkpt>
      <trkpt lat="44.48331" lon="1.17549">
        <ele>89.2</ele>
        <time>2022-08-11T07:03:02Z</time>
      </trkpt>
      <trkpt lat="44.4834" lon="1.17544">
        <ele>89.1</ele>
        <time>2022-08-11T07:03:04Z</time>
      </trkpt>
      <trkpt lat="44.48348" lon="1.17538">
        <ele>89</ele>
        <time>2022-08-11T07:03:06Z</time>
      </trkpt>
      <trkpt lat="44.48355" lon="1.17532">
        <ele>89</ele>
        <time>2022-08-11T07:03:08Z</time>
      </trkpt>
      <trkpt lat="44.48363" lon="1.17525">
        <ele>89</ele>
        <time>2022-08-11T07:03:10Z</time>
      </trkpt>
      <trkpt lat="44.4837" lon="1.17519">
        <ele>89</ele>
        <time>2022-08-11T07:03:12Z</time>
      </trkpt>
      <trkpt lat="44.48378" lon="1.17513">
        <ele>89.1</ele>
        <time>2022-08-11T07:03:14Z</time>
      </trkpt>
      <trkpt lat="44.48386" lon="1.17507">
        <ele>89.3</ele>
        <time>2022-08-11T07:03:16Z</time>
      </trkpt>
      <trkpt lat="44.48394" lon="1.17502">
        <ele>89.4</ele>
        <time>2022-08-11T07:03:18Z</time>
      </trkpt>
      <trkpt lat="44.48402" lon="1.17496">
        <ele>89.7</ele>
        <time>2022-08-11T07:03:20Z</time>
      </trkpt>
      <trkpt lat="44.4841" lon="1.17492">
        <ele>89.9</ele>
        <time>2022-08-11T07:03:22Z</time>
      </trkpt>
      <trkpt lat="44.48418" lon="1.17487">
        <ele>90</ele>
        <time>2022-08-11T07:03:24Z</time>
      </trkpt>
      <trkpt lat="44.48426" lon="1.17483">
        <ele>89.9</ele>
        <time>2022-08-11T07:03:26Z</time>
      </trkpt>
      <trkpt lat="44.48435" lon="1.17479">
        <ele>89.8</ele>
        <time>2022-08-11T07:03:28Z</time>
      </trkpt>
      <trkpt lat="44.48443" lon="1.17476">
        <ele>89.8</ele>
        <time>2022-08-11T07:03:30Z</time>
      </trkpt>
      <trkpt lat="44.48452" lon="1.17473">
        <ele>89.7</ele>
        <time>2022-08-11T07:03:32Z</time>
      </trkpt>
      <trkpt lat="44.48461" lon="1.17471">
        <ele>89.7</ele>
        <time>2022-08-11T07:03:34Z</time>
      </trkpt>
      <trkpt lat="44.4847" lon="1.17469">
        <ele>89.6</ele>
        <time>2022-08-11T07:03:36Z</time>
      </trkpt>
      <trkpt lat="44.4848" lon="1.17468">
        <ele>89.5</ele>
        <time>2022-08-11T07:03:38Z</time>
      </trkpt>
      <trkpt lat="44.48488" lon="1.17467">
        <ele>89.5</ele>
        <time>2022-08-11T07:03:40Z</time>
      </trkpt>
      <trkpt lat="44.48497" lon="1.17466">
        <ele>89.4</ele>
        <time>2022-08-11T07:03:42Z</time>
      </trkpt>
      <trkpt lat="44.48506" lon="1.17466">
        <ele>89.4</ele>
        <time>2022-08-11T07:03:44Z</time>
      </trkpt>
      <trkpt lat="44.48514" lon="1.17466">
        <ele>89.4</ele>
        <time>2022-08-11T07:03:46Z</time>
      </trkpt>
      <trkpt lat="44.48522" lon="1.17465">
        <ele>89.4</ele>
        <time>2022-08-11T07:03:48Z</time>
      </trkpt>
      <trkpt lat="44.4853" lon="1.17463">
        <ele>89.4</ele>
        <time>2022-08-11T07:03:50Z</time>
      </trkpt>
      <trkpt lat="44.48539" lon="1.17462">
        <ele>89.5</ele>
        <time>2022-08-11T07:03:52Z</time>
      </trkpt>
      <trkpt lat="44.48546" lon="1.1746">
        <ele>89.5</ele>
        <time>2022-08-11T07:03:54Z</time>
      </trkpt>
      <trkpt lat="44.48555" lon="1.17458">
        <ele>89.5</ele>
        <time>2022-08-11T07:03:56Z</time>
      </trkpt>
      <trkpt lat="44.48563" lon="1.17456">
        <ele>89.5</ele>
        <time>2022-08-11T07:03:58Z</time>
      </trkpt>
      <trkpt lat="44.48572" lon="1.17453">
        <ele>89.6</ele>
        <time>2022-08-11T07:04:00Z</time>
      </trkpt>
      <trkpt lat="44.4858" lon="1.1745">
        <ele>89.6</ele>
        <time>2022-08-11T07:04:02Z</time>
      </trkpt>
      <trkpt lat="44.48589" lon="1.17447">
        <ele>89.5</ele>
        <time>2022-08-11T07:04:04Z</time>
      </trkpt>
      <trkpt lat="44.48598" lon="1.17443">
        <ele>89.4</ele>
        <time>2022-08-11T07:04:06Z</time>
      </trkpt>
      <trkpt lat="44.48607" lon="1.1744">
        <ele>89.3</ele>
        <time>2022-08-11T07:04:08Z</time>
      </trkpt>
      <trkpt lat="44.48616" lon="1.17436">
        <ele>89.2</ele>
        <time>2022-08-11T07:04:10Z</time>
      </trkpt>
      <trkpt lat="44.48625" lon="1.17432">
        <ele>89</ele>
        <time>2022-08-11T07:04:12Z</time>
      </trkpt>
      <trkpt lat="44.48634" lon="1.17427">
        <ele>88.8</ele>
        <time>2022-08-11T07:04:14Z</time>
      </trkpt>
      <trkpt lat="44.48643" lon="1.17422">
        <ele>88.6</ele>
        <time>2022-08-11T07:04:16Z</time>
      </trkpt>
      <trkpt lat="44.48652" lon="1.17418">
        <ele>88.3</ele>
        <time>2022-08-11T07:04:18Z</time>
      </trkpt>
      <trkpt lat="44.48661" lon="1.17413">
        <ele>88.1</ele>
        <time>2022-08-11T07:04:20Z</time>
      </trkpt>
      <trkpt lat="44.4867" lon="1.17408">
        <ele>88</ele>
        <time>2022-08-11T07:04:22Z</time>
      </trkpt>
      <trkpt lat="44.48679" lon="1.17403">
        <ele>88</ele>
        <time>2022-08-11T07:04:24Z</time>
      </trkpt>
      <trkpt lat="44.48687" lon="1.17398">
        <ele>88.1</ele>
        <time>2022-08-11T07:04:26Z</time>
      </trkpt>
      <trkpt lat="44.48696" lon="1.17393">
        <ele>88.1</ele>
        <time>2022-08-11T07:04:28Z</time>
      </trkpt>
      <trkpt lat="44.48705" lon="1.17387">
        <ele>88.2</ele>
        <time>2022-08-11T07:04:30Z</time>
      </trkpt>
      <trkpt lat="44.48713" lon="1.17383">
        <ele>88.2</ele>
        <time>2022-08-11T07:04:32Z</time>
      </trkpt>
      <trkpt lat="44.48721" lon="1.17378">
        <ele>88.3</ele>
        <time>2022-08-11T07:04:34Z</time>
      </trkpt>
      <trkpt lat="44.4873" lon="1.17373">
        <ele>88.4</ele>
        <time>2022-08-11T07:04:36Z</time>
      </trkpt>
      <trkpt lat="44.48738" lon="1.17367">
        <ele>88.5</ele>
        <time>2022-08-11T07:04:38Z</time>
      </trkpt>
      <trkpt lat="44.48746" lon="1.17363">
        <ele>88.6</ele>
        <time>2022-08-11T07:04:40Z</time>
      </trkpt>
      <trkpt lat="44.48755" lon="1.17358">
        <ele>88.7</ele>
        <time>2022-08-11T07:04:42Z</time>
      </trkpt>
      <trkpt lat="44.48763" lon="1.17353">
        <ele>88.6</ele>
        <time>2022-08-11T07:04:44Z</time>
      </trkpt>
      <trkpt lat="44.48771" lon="1.17348">
        <ele>88.6</ele>
        <time>2022-08-11T07:04:46Z</time>
      </trkpt>
      <trkpt lat="44.48779" lon="1.17343">
        <ele>88.6</ele>
        <time>2022-08-11T07:04:48Z</time>
      </trkpt>
      <trkpt lat="44.48788" lon="1.17337">
        <ele>88.5</ele>
        <time>2022-08-11T07:04:50Z</time>
      </trkpt>
      <trkpt lat="44.48796" lon="1.17332">
        <ele>88.5</ele>
        <time>2022-08-11T07:04:52Z</time>
      </trkpt>
      <trkpt lat="44.48805" lon="1.17327">
        <ele>88.6</ele>
        <time>2022-08-11T07:04:54Z</time>
      </trkpt>
      <trkpt lat="44.48812" lon="1.17321">
        <ele>88.7</ele>
        <time>2022-08-11T07:04:56Z</time>
      </trkpt>
      <trkpt lat="44.4882" lon="1.17316">
        <ele>88.7</ele>
        <time>2022-08-11T07:04:58Z</time>
      </trkpt>
      <trkpt lat="44.48828" lon="1.17311">
        <ele>88.7</ele>
        <time>2022-08-11T07:05:00Z</time>
      </trkpt>
      <trkpt lat="44.48835" lon="1.17304">
        <ele>88.7</ele>
        <time>2022-08-11T07:05:02Z</time>
      </trkpt>
      <trkpt lat="44.48842" lon="1.17299">
        <ele>88.8</ele>
        <time>2022-08-11T07:05:04Z</time>
      </trkpt>
      <trkpt lat="44.4885" lon="1.17293">
        <ele>89</ele>
        <time>2022-08-11T07:05:06Z</time>
      </trkpt>
      <trkpt lat="44.48858" lon="1.17288">
        <ele>89.1</ele>
        <time>2022-08-11T07:05:08Z</time>
      </trkpt>
      <trkpt lat="44.48865" lon="1.17282">
        <ele>89.1</ele>
        <time>2022-08-11T07:05:10Z</time>
      </trkpt>
      <trkpt lat="44.48873" lon="1.17277">
        <ele>89.2</ele>
        <time>2022-08-11T07:05:12Z</time>
      </trkpt>
      <trkpt lat="44.48881" lon="1.17271">
        <ele>89.2</ele>
        <time>2022-08-11T07:05:14Z</time>
      </trkpt>
      <trkpt lat="44.48889" lon="1.17266">
        <ele>89.2</ele>
        <time>2022-08-11T07:05:16Z</time>
      </trkpt>
      <trkpt lat="44.48897" lon="1.17261">
        <ele>89.2</ele>
        <time>2022-08-11T07:05:18Z</time>
      </trkpt>
      <trkpt lat="44.48904" lon="1.17254">
        <ele>89.1</ele>
        <time>2022-08-11T07:05:20Z</time>
      </trkpt>
      <trkpt lat="44.48912" lon="1.17248">
        <ele>89.4</ele>
        <time>2022-08-11T07:05:22Z</time>
      </trkpt>
      <trkpt lat="44.48919" lon="1.17242">
        <ele>90.3</ele>
        <time>2022-08-11T07:05:24Z</time>
      </trkpt>
      <trkpt lat="44.48926" lon="1.17234">
        <ele>91.3</ele>
        <time>2022-08-11T07:05:26Z</time>
      </trkpt>
      <trkpt lat="44.48934" lon="1.17227">
        <ele>92</ele>
        <time>2022-08-11T07:05:28Z</time>
      </trkpt>
      <trkpt lat="44.48941" lon="1.1722">
        <ele>92.5</ele>
        <time>2022-08-11T07:05:30Z</time>
      </trkpt>
      <trkpt lat="44.48949" lon="1.17214">
        <ele>92.7</ele>
        <time>2022-08-11T07:05:32Z</time>
      </trkpt>
      <trkpt lat="44.48958" lon="1.17209">
        <ele>92.8</ele>
        <time>2022-08-11T07:05:34Z</time>
      </trkpt>
      <trkpt lat="44.48966" lon="1.17203">
        <ele>92.6</ele>
        <time>2022-08-11T07:05:36Z</time>
      </trkpt>
      <trkpt lat="44.48974" lon="1.17201">
        <ele>92.2</ele>
        <time>2022-08-11T07:05:38Z</time>
      </trkpt>
      <trkpt lat="44.48983" lon="1.17198">
        <ele>91.6</ele>
        <time>2022-08-11T07:05:40Z</time>
      </trkpt>
      <trkpt lat="44.48991" lon="1.17198">
        <ele>91</ele>
        <time>2022-08-11T07:05:42Z</time>
      </trkpt>
      <trkpt lat="44.49" lon="1.17198">
        <ele>90.3</ele>
        <time>2022-08-11T07:05:44Z</time>
      </trkpt>
      <trkpt lat="44.49008" lon="1.17198">
        <ele>90</ele>
        <time>2022-08-11T07:05:46Z</time>
      </trkpt>
      <trkpt lat="44.49016" lon="1.17198">
        <ele>89.8</ele>
        <time>2022-08-11T07:05:48Z</time>
      </trkpt>
      <trkpt lat="44.49023" lon="1.17197">
        <ele>89.6</ele>
        <time>2022-08-11T07:05:50Z</time>
      </trkpt>
      <trkpt lat="44.49031" lon="1.17196">
        <ele>89.4</ele>
        <time>2022-08-11T07:05:52Z</time>
      </trkpt>
      <trkpt lat="44.49038" lon="1.17195">
        <ele>89.3</ele>
        <time>2022-08-11T07:05:54Z</time>
      </trkpt>
      <trkpt lat="44.49046" lon="1.17194">
        <ele>89</ele>
        <time>2022-08-11T07:05:56Z</time>
      </trkpt>
      <trkpt lat="44.49054" lon="1.17193">
        <ele>88.8</ele>
        <time>2022-08-11T07:05:58Z</time>
      </trkpt>
      <trkpt lat="44.49062" lon="1.17192">
        <ele>88.6</ele>
        <time>2022-08-11T07:06:00Z</time>
      </trkpt>
      <trkpt lat="44.49071" lon="1.17191">
        <ele>88.4</ele>
        <time>2022-08-11T07:06:02Z</time>
      </trkpt>
      <trkpt lat="44.49079" lon="1.17192">
        <ele>88.1</ele>
        <time>2022-08-11T07:06:04Z</time>
      </trkpt>
      <trkpt lat="44.49087" lon="1.17195">
        <ele>88</ele>
        <time>2022-08-11T07:06:06Z</time>
      </trkpt>
      <trkpt lat="44.49095" lon="1.17199">
        <ele>88.1</ele>
        <time>2022-08-11T07:06:08Z</time>
      </trkpt>
      <trkpt lat="44.49103" lon="1.17203">
        <ele>88.1</ele>
        <time>2022-08-11T07:06:10Z</time>
      </trkpt>
      <trkpt lat="44.49111" lon="1.17206">
        <ele>88.2</ele>
        <time>2022-08-11T07:06:12Z</time>
      </trkpt>
      <trkpt lat="44.4912" lon="1.17207">
        <ele>88.2</ele>
        <time>2022-08-11T07:06:14Z</time>
      </trkpt>
      <trkpt lat="44.49128" lon="1.17209">
        <ele>88.3</ele>
        <time>2022-08-11T07:06:16Z</time>
      </trkpt>
      <trkpt lat="44.49137" lon="1.1721">
        <ele>88.3</ele>
        <time>2022-08-11T07:06:18Z</time>
      </trkpt>
      <trkpt lat="44.49144" lon="1.17217">
        <ele>88.4</ele>
        <time>2022-08-11T07:06:20Z</time>
      </trkpt>
      <trkpt lat="44.4915" lon="1.17222">
        <ele>88.5</ele>
        <time>2022-08-11T07:06:22Z</time>
      </trkpt>
      <trkpt lat="44.49155" lon="1.17225">
        <ele>88.6</ele>
        <time>2022-08-11T07:06:24Z</time>
      </trkpt>
      <trkpt lat="44.49158" lon="1.17227">
        <ele>88.6</ele>
        <time>2022-08-11T07:06:26Z</time>
      </trkpt>
      <trkpt lat="44.49159" lon="1.17224">
        <ele>88.6</ele>
        <time>2022-08-11T07:06:28Z</time>
      </trkpt>
      <trkpt lat="44.49159" lon="1.17224">
        <ele>88.6</ele>
        <time>2022-08-11T07:06:30Z</time>
      </trkpt>
      <trkpt lat="44.49158" lon="1.17223">
        <ele>88.6</ele>
        <time>2022-08-11T07:06:32Z</time>
      </trkpt>
      <trkpt lat="44.49156" lon="1.17222">
        <ele>88.6</ele>
        <time>2022-08-11T07:06:34Z</time>
      </trkpt>
      <trkpt lat="44.4918" lon="1.17243">
        <ele>88.8</ele>
        <time>2022-08-11T07:07:44Z</time>
      </trkpt>
      <trkpt lat="44.49187" lon="1.17246">
        <ele>88.7</ele>
        <time>2022-08-11T07:07:46Z</time>
      </trkpt>
      <trkpt lat="44.49193" lon="1.17247">
        <ele>88.7</ele>
        <time>2022-08-11T07:07:48Z</time>
      </trkpt>
      <trkpt lat="44.492" lon="1.17247">
        <ele>88.6</ele>
        <time>2022-08-11T07:07:50Z</time>
      </trkpt>
      <trkpt lat="44.49207" lon="1.17247">
        <ele>88.5</ele>
        <time>2022-08-11T07:07:52Z</time>
      </trkpt>
      <trkpt lat="44.49214" lon="1.17248">
        <ele>88.4</ele>
        <time>2022-08-11T07:07:54Z</time>
      </trkpt>
      <trkpt lat="44.49219" lon="1.17249">
        <ele>88.4</ele>
        <time>2022-08-11T07:07:56Z</time>
      </trkpt>
      <trkpt lat="44.49225" lon="1.17249">
        <ele>88.3</ele>
        <time>2022-08-11T07:07:58Z</time>
      </trkpt>
      <trkpt lat="44.49231" lon="1.1725">
        <ele>88.2</ele>
        <time>2022-08-11T07:08:00Z</time>
      </trkpt>
      <trkpt lat="44.49237" lon="1.1725">
        <ele>88.2</ele>
        <time>2022-08-11T07:08:02Z</time>
      </trkpt>
      <trkpt lat="44.49243" lon="1.17249">
        <ele>88.1</ele>
        <time>2022-08-11T07:08:04Z</time>
      </trkpt>
      <trkpt lat="44.49249" lon="1.17251">
        <ele>88</ele>
        <time>2022-08-11T07:08:06Z</time>
      </trkpt>
      <trkpt lat="44.49256" lon="1.17252">
        <ele>87.9</ele>
        <time>2022-08-11T07:08:08Z</time>
      </trkpt>
      <trkpt lat="44.49261" lon="1.17252">
        <ele>87.9</ele>
        <time>2022-08-11T07:08:10Z</time>
      </trkpt>
      <trkpt lat="44.49267" lon="1.17251">
        <ele>87.8</ele>
        <time>2022-08-11T07:08:12Z</time>
      </trkpt>
      <trkpt lat="44.49273" lon="1.17251">
        <ele>87.7</ele>
        <time>2022-08-11T07:08:14Z</time>
      </trkpt>
      <trkpt lat="44.49279" lon="1.17251">
        <ele>87.7</ele>
        <time>2022-08-11T07:08:16Z</time>
      </trkpt>
      <trkpt lat="44.49285" lon="1.17249">
        <ele>87.6</ele>
        <time>2022-08-11T07:08:18Z</time>
      </trkpt>
      <trkpt lat="44.4929" lon="1.17245">
        <ele>87.6</ele>
        <time>2022-08-11T07:08:20Z</time>
      </trkpt>
      <trkpt lat="44.49293" lon="1.17238">
        <ele>87.6</ele>
        <time>2022-08-11T07:08:22Z</time>
      </trkpt>
      <trkpt lat="44.49293" lon="1.17229">
        <ele>87.8</ele>
        <time>2022-08-11T07:08:24Z</time>
      </trkpt>
      <trkpt lat="44.49291" lon="1.17219">
        <ele>87.9</ele>
        <time>2022-08-11T07:08:26Z</time>
      </trkpt>
      <trkpt lat="44.49287" lon="1.17208">
        <ele>88</ele>
        <time>2022-08-11T07:08:28Z</time>
      </trkpt>
      <trkpt lat="44.49284" lon="1.17197">
        <ele>88.1</ele>
        <time>2022-08-11T07:08:30Z</time>
      </trkpt>
      <trkpt lat="44.49282" lon="1.17187">
        <ele>88.2</ele>
        <time>2022-08-11T07:08:32Z</time>
      </trkpt>
      <trkpt lat="44.49281" lon="1.17175">
        <ele>88.3</ele>
        <time>2022-08-11T07:08:34Z</time>
      </trkpt>
      <trkpt lat="44.49284" lon="1.17165">
        <ele>88.4</ele>
        <time>2022-08-11T07:08:36Z</time>
      </trkpt>
      <trkpt lat="44.49291" lon="1.17158">
        <ele>88.6</ele>
        <time>2022-08-11T07:08:38Z</time>
      </trkpt>
      <trkpt lat="44.49298" lon="1.17154">
        <ele>88.8</ele>
        <time>2022-08-11T07:08:40Z</time>
      </trkpt>
      <trkpt lat="44.49305" lon="1.1715">
        <ele>88.9</ele>
        <time>2022-08-11T07:08:42Z</time>
      </trkpt>
      <trkpt lat="44.49313" lon="1.17147">
        <ele>89.1</ele>
        <time>2022-08-11T07:08:44Z</time>
      </trkpt>
      <trkpt lat="44.49318" lon="1.17139">
        <ele>89.2</ele>
        <time>2022-08-11T07:08:46Z</time>
      </trkpt>
      <trkpt lat="44.49322" lon="1.1713">
        <ele>89.4</ele>
        <time>2022-08-11T07:08:48Z</time>
      </trkpt>
      <trkpt lat="44.49323" lon="1.17119">
        <ele>89.5</ele>
        <time>2022-08-11T07:08:50Z</time>
      </trkpt>
      <trkpt lat="44.49322" lon="1.17108">
        <ele>89.7</ele>
        <time>2022-08-11T07:08:52Z</time>
      </trkpt>
      <trkpt lat="44.49321" lon="1.17098">
        <ele>89.8</ele>
        <time>2022-08-11T07:08:54Z</time>
      </trkpt>
      <trkpt lat="44.4932" lon="1.17088">
        <ele>89.9</ele>
        <time>2022-08-11T07:08:56Z</time>
      </trkpt>
      <trkpt lat="44.4932" lon="1.17078">
        <ele>90.3</ele>
        <time>2022-08-11T07:08:58Z</time>
      </trkpt>
      <trkpt lat="44.4932" lon="1.17069">
        <ele>90.7</ele>
        <time>2022-08-11T07:09:00Z</time>
      </trkpt>
      <trkpt lat="44.49319" lon="1.17061">
        <ele>91.1</ele>
        <time>2022-08-11T07:09:02Z</time>
      </trkpt>
      <trkpt lat="44.49318" lon="1.17053">
        <ele>91.5</ele>
        <time>2022-08-11T07:09:04Z</time>
      </trkpt>
      <trkpt lat="44.49317" lon="1.17045">
        <ele>92</ele>
        <time>2022-08-11T07:09:06Z</time>
      </trkpt>
      <trkpt lat="44.49317" lon="1.17037">
        <ele>92.3</ele>
        <time>2022-08-11T07:09:08Z</time>
      </trkpt>
      <trkpt lat="44.49315" lon="1.1703">
        <ele>92.7</ele>
        <time>2022-08-11T07:09:10Z</time>
      </trkpt>
      <trkpt lat="44.49314" lon="1.17024">
        <ele>93</ele>
        <time>2022-08-11T07:09:12Z</time>
      </trkpt>
      <trkpt lat="44.49312" lon="1.17018">
        <ele>93.3</ele>
        <time>2022-08-11T07:09:14Z</time>
      </trkpt>
      <trkpt lat="44.4931" lon="1.17013">
        <ele>93.6</ele>
        <time>2022-08-11T07:09:16Z</time>
      </trkpt>
      <trkpt lat="44.49308" lon="1.17008">
        <ele>93.9</ele>
        <time>2022-08-11T07:09:18Z</time>
      </trkpt>
      <trkpt lat="44.49306" lon="1.17002">
        <ele>94.2</ele>
        <time>2022-08-11T07:09:20Z</time>
      </trkpt>
      <trkpt lat="44.49305" lon="1.16997">
        <ele>94.5</ele>
        <time>2022-08-11T07:09:22Z</time>
      </trkpt>
      <trkpt lat="44.49304" lon="1.16991">
        <ele>94.8</ele>
        <time>2022-08-11T07:09:24Z</time>
      </trkpt>
      <trkpt lat="44.49302" lon="1.16985">
        <ele>95.1</ele>
        <time>2022-08-11T07:09:26Z</time>
      </trkpt>
      <trkpt lat="44.49299" lon="1.1698">
        <ele>95.4</ele>
        <time>2022-08-11T07:09:28Z</time>
      </trkpt>
      <trkpt lat="44.49297" lon="1.16975">
        <ele>95.6</ele>
        <time>2022-08-11T07:09:30Z</time>
      </trkpt>
      <trkpt lat="44.49295" lon="1.16971">
        <ele>95.9</ele>
        <time>2022-08-11T07:09:32Z</time>
      </trkpt>
      <trkpt lat="44.49294" lon="1.16966">
        <ele>96.1</ele>
        <time>2022-08-11T07:09:34Z</time>
      </trkpt>
      <trkpt lat="44.49292" lon="1.16962">
        <ele>96.3</ele>
        <time>2022-08-11T07:09:36Z</time>
      </trkpt>
      <trkpt lat="44.49291" lon="1.16958">
        <ele>96.5</ele>
        <time>2022-08-11T07:09:38Z</time>
      </trkpt>
      <trkpt lat="44.49289" lon="1.16955">
        <ele>96.7</ele>
        <time>2022-08-11T07:09:40Z</time>
      </trkpt>
      <trkpt lat="44.49288" lon="1.16952">
        <ele>96.8</ele>
        <time>2022-08-11T07:09:42Z</time>
      </trkpt>
      <trkpt lat="44.49288" lon="1.16947">
        <ele>97.1</ele>
        <time>2022-08-11T07:09:44Z</time>
      </trkpt>
      <trkpt lat="44.49291" lon="1.16945">
        <ele>97.1</ele>
        <time>2022-08-11T07:09:46Z</time>
      </trkpt>
      <trkpt lat="44.49295" lon="1.16945">
        <ele>97.1</ele>
        <time>2022-08-11T07:09:48Z</time>
      </trkpt>
      <trkpt lat="44.49299" lon="1.16945">
        <ele>97.1</ele>
        <time>2022-08-11T07:09:50Z</time>
      </trkpt>
      <trkpt lat="44.49302" lon="1.16945">
        <ele>97</ele>
        <time>2022-08-11T07:09:52Z</time>
      </trkpt>
      <trkpt lat="44.49306" lon="1.16943">
        <ele>97.1</ele>
        <time>2022-08-11T07:09:54Z</time>
      </trkpt>
      <trkpt lat="44.49309" lon="1.1694">
        <ele>97.2</ele>
        <time>2022-08-11T07:09:56Z</time>
      </trkpt>
      <trkpt lat="44.49313" lon="1.16938">
        <ele>97.2</ele>
        <time>2022-08-11T07:09:58Z</time>
      </trkpt>
      <trkpt lat="44.49317" lon="1.16936">
        <ele>97.3</ele>
        <time>2022-08-11T07:10:00Z</time>
      </trkpt>
      <trkpt lat="44.4932" lon="1.16933">
        <ele>97.4</ele>
        <time>2022-08-11T07:10:02Z</time>
      </trkpt>
      <trkpt lat="44.49324" lon="1.1693">
        <ele>97.5</ele>
        <time>2022-08-11T07:10:04Z</time>
      </trkpt>
      <trkpt lat="44.49327" lon="1.16928">
        <ele>97.5</ele>
        <time>2022-08-11T07:10:06Z</time>
      </trkpt>
      <trkpt lat="44.4933" lon="1.16925">
        <ele>97.6</ele>
        <time>2022-08-11T07:10:08Z</time>
      </trkpt>
      <trkpt lat="44.49334" lon="1.16924">
        <ele>97.6</ele>
        <time>2022-08-11T07:10:10Z</time>
      </trkpt>
      <trkpt lat="44.49338" lon="1.16922">
        <ele>97.5</ele>
        <time>2022-08-11T07:10:12Z</time>
      </trkpt>
      <trkpt lat="44.49342" lon="1.16922">
        <ele>97.3</ele>
        <time>2022-08-11T07:10:14Z</time>
      </trkpt>
      <trkpt lat="44.49347" lon="1.16923">
        <ele>97.1</ele>
        <time>2022-08-11T07:10:16Z</time>
      </trkpt>
      <trkpt lat="44.49351" lon="1.16925">
        <ele>96.8</ele>
        <time>2022-08-11T07:10:18Z</time>
      </trkpt>
      <trkpt lat="44.49355" lon="1.16927">
        <ele>96.5</ele>
        <time>2022-08-11T07:10:20Z</time>
      </trkpt>
      <trkpt lat="44.49359" lon="1.1693">
        <ele>96.1</ele>
        <time>2022-08-11T07:10:22Z</time>
      </trkpt>
      <trkpt lat="44.49363" lon="1.16933">
        <ele>95.8</ele>
        <time>2022-08-11T07:10:24Z</time>
      </trkpt>
      <trkpt lat="44.49367" lon="1.16936">
        <ele>95.4</ele>
        <time>2022-08-11T07:10:26Z</time>
      </trkpt>
      <trkpt lat="44.49371" lon="1.16939">
        <ele>95.1</ele>
        <time>2022-08-11T07:10:28Z</time>
      </trkpt>
      <trkpt lat="44.49375" lon="1.16939">
        <ele>94.9</ele>
        <time>2022-08-11T07:10:30Z</time>
      </trkpt>
      <trkpt lat="44.49379" lon="1.1694">
        <ele>94.7</ele>
        <time>2022-08-11T07:10:32Z</time>
      </trkpt>
      <trkpt lat="44.49382" lon="1.16942">
        <ele>94.5</ele>
        <time>2022-08-11T07:10:34Z</time>
      </trkpt>
      <trkpt lat="44.49385" lon="1.1694">
        <ele>94.4</ele>
        <time>2022-08-11T07:10:36Z</time>
      </trkpt>
      <trkpt lat="44.49386" lon="1.1694">
        <ele>94.3</ele>
        <time>2022-08-11T07:10:38Z</time>
      </trkpt>
      <trkpt lat="44.49386" lon="1.1694">
        <ele>94.4</ele>
        <time>2022-08-11T07:10:40Z</time>
      </trkpt>
      <trkpt lat="44.49386" lon="1.1694">
        <ele>94.4</ele>
        <time>2022-08-11T07:10:42Z</time>
      </trkpt>
      <trkpt lat="44.49386" lon="1.1694">
        <ele>94.3</ele>
        <time>2022-08-11T07:10:44Z</time>
      </trkpt>
      <trkpt lat="44.49387" lon="1.1694">
        <ele>94.3</ele>
        <time>2022-08-11T07:10:46Z</time>
      </trkpt>
      <trkpt lat="44.49388" lon="1.1694">
        <ele>94.3</ele>
        <time>2022-08-11T07:10:58Z</time>
      </trkpt>
      <trkpt lat="44.49388" lon="1.1694">
        <ele>94.2</ele>
        <time>2022-08-11T07:11:00Z</time>
      </trkpt>
      <trkpt lat="44.49388" lon="1.1694">
        <ele>94.2</ele>
        <time>2022-08-11T07:11:02Z</time>
      </trkpt>
      <trkpt lat="44.49388" lon="1.1694">
        <ele>94.2</ele>
        <time>2022-08-11T07:11:04Z</time>
      </trkpt>
      <trkpt lat="44.49388" lon="1.1694">
        <ele>94.2</ele>
        <time>2022-08-11T07:11:06Z</time>
      </trkpt>
      <trkpt lat="44.49388" lon="1.1694">
        <ele>94.2</ele>
        <time>2022-08-11T07:11:10Z</time>
      </trkpt>
      <trkpt lat="44.49389" lon="1.1694">
        <ele>94.2</ele>
        <time>2022-08-11T07:11:12Z</time>
      </trkpt>
      <trkpt lat="44.49393" lon="1.1694">
        <ele>94</ele>
        <time>2022-08-11T07:11:14Z</time>
      </trkpt>
      <trkpt lat="44.49397" lon="1.1694">
        <ele>93.8</ele>
        <time>2022-08-11T07:11:16Z</time>
      </trkpt>
      <trkpt lat="44.49398" lon="1.1694">
        <ele>93.8</ele>
        <time>2022-08-11T07:11:18Z</time>
      </trkpt>
      <trkpt lat="44.49397" lon="1.1694">
        <ele>93.8</ele>
        <time>2022-08-11T07:11:20Z</time>
      </trkpt>
      <trkpt lat="44.49398" lon="1.1694">
        <ele>93.8</ele>
        <time>2022-08-11T07:11:22Z</time>
      </trkpt>
      <trkpt lat="44.49398" lon="1.1694">
        <ele>93.8</ele>
        <time>2022-08-11T07:11:24Z</time>
      </trkpt>
      <trkpt lat="44.49398" lon="1.1694">
        <ele>93.8</ele>
        <time>2022-08-11T07:11:26Z</time>
      </trkpt>
      <trkpt lat="44.49413" lon="1.16931">
        <ele>93.5</ele>
        <time>2022-08-11T07:12:34Z</time>
      </trkpt>
      <trkpt lat="44.49421" lon="1.16929">
        <ele>93.3</ele>
        <time>2022-08-11T07:12:36Z</time>
      </trkpt>
      <trkpt lat="44.49429" lon="1.16926">
        <ele>93.2</ele>
        <time>2022-08-11T07:12:38Z</time>
      </trkpt>
      <trkpt lat="44.49438" lon="1.16924">
        <ele>93.1</ele>
        <time>2022-08-11T07:12:40Z</time>
      </trkpt>
      <trkpt lat="44.49448" lon="1.16924">
        <ele>92.9</ele>
        <time>2022-08-11T07:12:42Z</time>
      </trkpt>
      <trkpt lat="44.49459" lon="1.16924">
        <ele>92.6</ele>
        <time>2022-08-11T07:12:44Z</time>
      </trkpt>
      <trkpt lat="44.4947" lon="1.16926">
        <ele>92.3</ele>
        <time>2022-08-11T07:12:46Z</time>
      </trkpt>
      <trkpt lat="44.49481" lon="1.16931">
        <ele>91.8</ele>
        <time>2022-08-11T07:12:48Z</time>
      </trkpt>
      <trkpt lat="44.4949" lon="1.16937">
        <ele>91.3</ele>
        <time>2022-08-11T07:12:50Z</time>
      </trkpt>
      <trkpt lat="44.49501" lon="1.16944">
        <ele>90.7</ele>
        <time>2022-08-11T07:12:52Z</time>
      </trkpt>
      <trkpt lat="44.49511" lon="1.16951">
        <ele>90.3</ele>
        <time>2022-08-11T07:12:54Z</time>
      </trkpt>
      <trkpt lat="44.49522" lon="1.16957">
        <ele>90</ele>
        <time>2022-08-11T07:12:56Z</time>
      </trkpt>
      <trkpt lat="44.49532" lon="1.16962">
        <ele>89.9</ele>
        <time>2022-08-11T07:12:58Z</time>
      </trkpt>
      <trkpt lat="44.49544" lon="1.16963">
        <ele>89.8</ele>
        <time>2022-08-11T07:13:00Z</time>
      </trkpt>
      <trkpt lat="44.49555" lon="1.16962">
        <ele>89.9</ele>
        <time>2022-08-11T07:13:02Z</time>
      </trkpt>
      <trkpt lat="44.49566" lon="1.16961">
        <ele>89.9</ele>
        <time>2022-08-11T07:13:04Z</time>
      </trkpt>
      <trkpt lat="44.49576" lon="1.16958">
        <ele>90</ele>
        <time>2022-08-11T07:13:06Z</time>
      </trkpt>
      <trkpt lat="44.49586" lon="1.16955">
        <ele>90.1</ele>
        <time>2022-08-11T07:13:08Z</time>
      </trkpt>
      <trkpt lat="44.49596" lon="1.16952">
        <ele>90.1</ele>
        <time>2022-08-11T07:13:10Z</time>
      </trkpt>
      <trkpt lat="44.49606" lon="1.16949">
        <ele>90</ele>
        <time>2022-08-11T07:13:12Z</time>
      </trkpt>
      <trkpt lat="44.49616" lon="1.16947">
        <ele>90</ele>
        <time>2022-08-11T07:13:14Z</time>
      </trkpt>
      <trkpt lat="44.49627" lon="1.16946">
        <ele>90</ele>
        <time>2022-08-11T07:13:16Z</time>
      </trkpt>
      <trkpt lat="44.49638" lon="1.16945">
        <ele>89.9</ele>
        <time>2022-08-11T07:13:18Z</time>
      </trkpt>
      <trkpt lat="44.49648" lon="1.16945">
        <ele>89.8</ele>
        <time>2022-08-11T07:13:20Z</time>
      </trkpt>
      <trkpt lat="44.49659" lon="1.16946">
        <ele>89.7</ele>
        <time>2022-08-11T07:13:22Z</time>
      </trkpt>
      <trkpt lat="44.49669" lon="1.16946">
        <ele>89.6</ele>
        <time>2022-08-11T07:13:24Z</time>
      </trkpt>
      <trkpt lat="44.4968" lon="1.16947">
        <ele>89.5</ele>
        <time>2022-08-11T07:13:26Z</time>
      </trkpt>
      <trkpt lat="44.49691" lon="1.16948">
        <ele>89.3</ele>
        <time>2022-08-11T07:13:28Z</time>
      </trkpt>
      <trkpt lat="44.49701" lon="1.16948">
        <ele>89.2</ele>
        <time>2022-08-11T07:13:30Z</time>
      </trkpt>
      <trkpt lat="44.49711" lon="1.16947">
        <ele>89.1</ele>
        <time>2022-08-11T07:13:32Z</time>
      </trkpt>
      <trkpt lat="44.49721" lon="1.16947">
        <ele>89</ele>
        <time>2022-08-11T07:13:34Z</time>
      </trkpt>
      <trkpt lat="44.49731" lon="1.16947">
        <ele>88.9</ele>
        <time>2022-08-11T07:13:36Z</time>
      </trkpt>
      <trkpt lat="44.49741" lon="1.16947">
        <ele>88.7</ele>
        <time>2022-08-11T07:13:38Z</time>
      </trkpt>
      <trkpt lat="44.49751" lon="1.16946">
        <ele>88.6</ele>
        <time>2022-08-11T07:13:40Z</time>
      </trkpt>
      <trkpt lat="44.49761" lon="1.16945">
        <ele>88.6</ele>
        <time>2022-08-11T07:13:42Z</time>
      </trkpt>
      <trkpt lat="44.4977" lon="1.16944">
        <ele>88.5</ele>
        <time>2022-08-11T07:13:44Z</time>
      </trkpt>
      <trkpt lat="44.49779" lon="1.16942">
        <ele>88.4</ele>
        <time>2022-08-11T07:13:46Z</time>
      </trkpt>
      <trkpt lat="44.49789" lon="1.16941">
        <ele>88.4</ele>
        <time>2022-08-11T07:13:48Z</time>
      </trkpt>
      <trkpt lat="44.49799" lon="1.16938">
        <ele>88.3</ele>
        <time>2022-08-11T07:13:50Z</time>
      </trkpt>
      <trkpt lat="44.49808" lon="1.16936">
        <ele>88.2</ele>
        <time>2022-08-11T07:13:52Z</time>
      </trkpt>
      <trkpt lat="44.49818" lon="1.16934">
        <ele>88.1</ele>
        <time>2022-08-11T07:13:54Z</time>
      </trkpt>
      <trkpt lat="44.49827" lon="1.16931">
        <ele>88.1</ele>
        <time>2022-08-11T07:13:56Z</time>
      </trkpt>
      <trkpt lat="44.49836" lon="1.16927">
        <ele>88</ele>
        <time>2022-08-11T07:13:58Z</time>
      </trkpt>
      <trkpt lat="44.49845" lon="1.16924">
        <ele>88</ele>
        <time>2022-08-11T07:14:00Z</time>
      </trkpt>
      <trkpt lat="44.49851" lon="1.16921">
        <ele>88</ele>
        <time>2022-08-11T07:14:02Z</time>
      </trkpt>
      <trkpt lat="44.49854" lon="1.16915">
        <ele>88</ele>
        <time>2022-08-11T07:14:04Z</time>
      </trkpt>
      <trkpt lat="44.49854" lon="1.16909">
        <ele>88.2</ele>
        <time>2022-08-11T07:14:06Z</time>
      </trkpt>
      <trkpt lat="44.49853" lon="1.16903">
        <ele>88.3</ele>
        <time>2022-08-11T07:14:08Z</time>
      </trkpt>
      <trkpt lat="44.49852" lon="1.16903">
        <ele>88.3</ele>
        <time>2022-08-11T07:14:10Z</time>
      </trkpt>
      <trkpt lat="44.49851" lon="1.16903">
        <ele>88.3</ele>
        <time>2022-08-11T07:14:12Z</time>
      </trkpt>
      <trkpt lat="44.49851" lon="1.16903">
        <ele>88.3</ele>
        <time>2022-08-11T07:14:14Z</time>
      </trkpt>
      <trkpt lat="44.49851" lon="1.16902">
        <ele>88.3</ele>
        <time>2022-08-11T07:14:16Z</time>
      </trkpt>
      <trkpt lat="44.49899" lon="1.16904">
        <ele>88.2</ele>
        <time>2022-08-11T07:15:42Z</time>
      </trkpt>
      <trkpt lat="44.49906" lon="1.16901">
        <ele>88.2</ele>
        <time>2022-08-11T07:15:44Z</time>
      </trkpt>
      <trkpt lat="44.49913" lon="1.16898">
        <ele>88.2</ele>
        <time>2022-08-11T07:15:46Z</time>
      </trkpt>
      <trkpt lat="44.49921" lon="1.16895">
        <ele>88.3</ele>
        <time>2022-08-11T07:15:48Z</time>
      </trkpt>
      <trkpt lat="44.49929" lon="1.16891">
        <ele>88.3</ele>
        <time>2022-08-11T07:15:50Z</time>
      </trkpt>
      <trkpt lat="44.49936" lon="1.16887">
        <ele>88.4</ele>
        <time>2022-08-11T07:15:52Z</time>
      </trkpt>
      <trkpt lat="44.49943" lon="1.16883">
        <ele>88.4</ele>
        <time>2022-08-11T07:15:54Z</time>
      </trkpt>
      <trkpt lat="44.4995" lon="1.16878">
        <ele>88.5</ele>
        <time>2022-08-11T07:15:56Z</time>
      </trkpt>
      <trkpt lat="44.49957" lon="1.16872">
        <ele>88.5</ele>
        <time>2022-08-11T07:15:58Z</time>
      </trkpt>
      <trkpt lat="44.49965" lon="1.16867">
        <ele>88.6</ele>
        <time>2022-08-11T07:16:00Z</time>
      </trkpt>
      <trkpt lat="44.49972" lon="1.16862">
        <ele>88.7</ele>
        <time>2022-08-11T07:16:02Z</time>
      </trkpt>
      <trkpt lat="44.49978" lon="1.16857">
        <ele>88.7</ele>
        <time>2022-08-11T07:16:04Z</time>
      </trkpt>
      <trkpt lat="44.49985" lon="1.16851">
        <ele>88.8</ele>
        <time>2022-08-11T07:16:06Z</time>
      </trkpt>
      <trkpt lat="44.49992" lon="1.16846">
        <ele>88.8</ele>
        <time>2022-08-11T07:16:08Z</time>
      </trkpt>
      <trkpt lat="44.49999" lon="1.16841">
        <ele>88.9</ele>
        <time>2022-08-11T07:16:10Z</time>
      </trkpt>
      <trkpt lat="44.50006" lon="1.16835">
        <ele>88.9</ele>
        <time>2022-08-11T07:16:12Z</time>
      </trkpt>
      <trkpt lat="44.50014" lon="1.16829">
        <ele>88.9</ele>
        <time>2022-08-11T07:16:14Z</time>
      </trkpt>
      <trkpt lat="44.50021" lon="1.16823">
        <ele>88.9</ele>
        <time>2022-08-11T07:16:16Z</time>
      </trkpt>
      <trkpt lat="44.50028" lon="1.16817">
        <ele>88.9</ele>
        <time>2022-08-11T07:16:18Z</time>
      </trkpt>
      <trkpt lat="44.50035" lon="1.16811">
        <ele>89</ele>
        <time>2022-08-11T07:16:20Z</time>
      </trkpt>
      <trkpt lat="44.50043" lon="1.16806">
        <ele>89</ele>
        <time>2022-08-11T07:16:22Z</time>
      </trkpt>
      <trkpt lat="44.50049" lon="1.16799">
        <ele>89.1</ele>
        <time>2022-08-11T07:16:24Z</time>
      </trkpt>
      <trkpt lat="44.50057" lon="1.16792">
        <ele>89.1</ele>
        <time>2022-08-11T07:16:26Z</time>
      </trkpt>
      <trkpt lat="44.50064" lon="1.16787">
        <ele>89.2</ele>
        <time>2022-08-11T07:16:28Z</time>
      </trkpt>
      <trkpt lat="44.50071" lon="1.16781">
        <ele>89.3</ele>
        <time>2022-08-11T07:16:30Z</time>
      </trkpt>
      <trkpt lat="44.50078" lon="1.16775">
        <ele>89.4</ele>
        <time>2022-08-11T07:16:32Z</time>
      </trkpt>
      <trkpt lat="44.50086" lon="1.1677">
        <ele>89.5</ele>
        <time>2022-08-11T07:16:34Z</time>
      </trkpt>
      <trkpt lat="44.50092" lon="1.16765">
        <ele>89.6</ele>
        <time>2022-08-11T07:16:36Z</time>
      </trkpt>
      <trkpt lat="44.50099" lon="1.16759">
        <ele>89.6</ele>
        <time>2022-08-11T07:16:38Z</time>
      </trkpt>
      <trkpt lat="44.50107" lon="1.16753">
        <ele>89.7</ele>
        <time>2022-08-11T07:16:40Z</time>
      </trkpt>
      <trkpt lat="44.50114" lon="1.16747">
        <ele>89.7</ele>
        <time>2022-08-11T07:16:42Z</time>
      </trkpt>
      <trkpt lat="44.50122" lon="1.1674">
        <ele>89.7</ele>
        <time>2022-08-11T07:16:44Z</time>
      </trkpt>
      <trkpt lat="44.50129" lon="1.16732">
        <ele>89.7</ele>
        <time>2022-08-11T07:16:46Z</time>
      </trkpt>
      <trkpt lat="44.50136" lon="1.16723">
        <ele>89.7</ele>
        <time>2022-08-11T07:16:48Z</time>
      </trkpt>
      <trkpt lat="44.50142" lon="1.16713">
        <ele>89.7</ele>
        <time>2022-08-11T07:16:50Z</time>
      </trkpt>
      <trkpt lat="44.50147" lon="1.16701">
        <ele>89.7</ele>
        <time>2022-08-11T07:16:52Z</time>
      </trkpt>
      <trkpt lat="44.50151" lon="1.16689">
        <ele>89.6</ele>
        <time>2022-08-11T07:16:54Z</time>
      </trkpt>
      <trkpt lat="44.50154" lon="1.16676">
        <ele>89.6</ele>
        <time>2022-08-11T07:16:56Z</time>
      </trkpt>
      <trkpt lat="44.50157" lon="1.16663">
        <ele>89.5</ele>
        <time>2022-08-11T07:16:58Z</time>
      </trkpt>
      <trkpt lat="44.50161" lon="1.16651">
        <ele>89.5</ele>
        <time>2022-08-11T07:17:00Z</time>
      </trkpt>
      <trkpt lat="44.50165" lon="1.16638">
        <ele>89.4</ele>
        <time>2022-08-11T07:17:02Z</time>
      </trkpt>
      <trkpt lat="44.50169" lon="1.16625">
        <ele>89.4</ele>
        <time>2022-08-11T07:17:04Z</time>
      </trkpt>
      <trkpt lat="44.50173" lon="1.16612">
        <ele>89.4</ele>
        <time>2022-08-11T07:17:06Z</time>
      </trkpt>
      <trkpt lat="44.50178" lon="1.166">
        <ele>89.3</ele>
        <time>2022-08-11T07:17:08Z</time>
      </trkpt>
      <trkpt lat="44.50183" lon="1.16588">
        <ele>89.2</ele>
        <time>2022-08-11T07:17:10Z</time>
      </trkpt>
      <trkpt lat="44.50188" lon="1.16576">
        <ele>89.2</ele>
        <time>2022-08-11T07:17:12Z</time>
      </trkpt>
      <trkpt lat="44.50193" lon="1.16565">
        <ele>89.3</ele>
        <time>2022-08-11T07:17:14Z</time>
      </trkpt>
      <trkpt lat="44.50198" lon="1.16554">
        <ele>89.4</ele>
        <time>2022-08-11T07:17:16Z</time>
      </trkpt>
      <trkpt lat="44.50203" lon="1.16543">
        <ele>89.5</ele>
        <time>2022-08-11T07:17:18Z</time>
      </trkpt>
      <trkpt lat="44.50208" lon="1.16531">
        <ele>89.6</ele>
        <time>2022-08-11T07:17:20Z</time>
      </trkpt>
      <trkpt lat="44.50214" lon="1.16521">
        <ele>89.6</ele>
        <time>2022-08-11T07:17:22Z</time>
      </trkpt>
      <trkpt lat="44.50219" lon="1.16509">
        <ele>89.6</ele>
        <time>2022-08-11T07:17:24Z</time>
      </trkpt>
      <trkpt lat="44.50225" lon="1.16498">
        <ele>89.6</ele>
        <time>2022-08-11T07:17:26Z</time>
      </trkpt>
      <trkpt lat="44.50231" lon="1.16488">
        <ele>89.8</ele>
        <time>2022-08-11T07:17:28Z</time>
      </trkpt>
      <trkpt lat="44.50236" lon="1.16477">
        <ele>90.1</ele>
        <time>2022-08-11T07:17:30Z</time>
      </trkpt>
      <trkpt lat="44.50241" lon="1.16466">
        <ele>90.5</ele>
        <time>2022-08-11T07:17:32Z</time>
      </trkpt>
      <trkpt lat="44.50245" lon="1.16453">
        <ele>91</ele>
        <time>2022-08-11T07:17:34Z</time>
      </trkpt>
      <trkpt lat="44.50248" lon="1.16441">
        <ele>91.6</ele>
        <time>2022-08-11T07:17:36Z</time>
      </trkpt>
      <trkpt lat="44.50251" lon="1.16429">
        <ele>92.2</ele>
        <time>2022-08-11T07:17:38Z</time>
      </trkpt>
      <trkpt lat="44.50255" lon="1.16417">
        <ele>92.7</ele>
        <time>2022-08-11T07:17:40Z</time>
      </trkpt>
      <trkpt lat="44.50258" lon="1.16406">
        <ele>93</ele>
        <time>2022-08-11T07:17:42Z</time>
      </trkpt>
      <trkpt lat="44.50261" lon="1.16395">
        <ele>93.3</ele>
        <time>2022-08-11T07:17:44Z</time>
      </trkpt>
      <trkpt lat="44.50265" lon="1.16384">
        <ele>93.5</ele>
        <time>2022-08-11T07:17:46Z</time>
      </trkpt>
      <trkpt lat="44.50268" lon="1.16373">
        <ele>93.6</ele>
        <time>2022-08-11T07:17:48Z</time>
      </trkpt>
      <trkpt lat="44.50272" lon="1.16363">
        <ele>93.7</ele>
        <time>2022-08-11T07:17:50Z</time>
      </trkpt>
      <trkpt lat="44.50276" lon="1.16352">
        <ele>93.8</ele>
        <time>2022-08-11T07:17:52Z</time>
      </trkpt>
      <trkpt lat="44.50279" lon="1.16342">
        <ele>93.9</ele>
        <time>2022-08-11T07:17:54Z</time>
      </trkpt>
      <trkpt lat="44.50283" lon="1.16331">
        <ele>93.8</ele>
        <time>2022-08-11T07:17:56Z</time>
      </trkpt>
      <trkpt lat="44.50287" lon="1.16321">
        <ele>93.4</ele>
        <time>2022-08-11T07:17:58Z</time>
      </trkpt>
      <trkpt lat="44.50291" lon="1.16311">
        <ele>93.1</ele>
        <time>2022-08-11T07:18:00Z</time>
      </trkpt>
      <trkpt lat="44.50294" lon="1.163">
        <ele>92.8</ele>
        <time>2022-08-11T07:18:02Z</time>
      </trkpt>
      <trkpt lat="44.50298" lon="1.16289">
        <ele>92.4</ele>
        <time>2022-08-11T07:18:04Z</time>
      </trkpt>
      <trkpt lat="44.50302" lon="1.16278">
        <ele>92</ele>
        <time>2022-08-11T07:18:06Z</time>
      </trkpt>
      <trkpt lat="44.50308" lon="1.16266">
        <ele>91.5</ele>
        <time>2022-08-11T07:18:08Z</time>
      </trkpt>
      <trkpt lat="44.50314" lon="1.16256">
        <ele>90.8</ele>
        <time>2022-08-11T07:18:10Z</time>
      </trkpt>
      <trkpt lat="44.50324" lon="1.16249">
        <ele>89.9</ele>
        <time>2022-08-11T07:18:12Z</time>
      </trkpt>
      <trkpt lat="44.50336" lon="1.16245">
        <ele>89</ele>
        <time>2022-08-11T07:18:14Z</time>
      </trkpt>
      <trkpt lat="44.50347" lon="1.16242">
        <ele>88.8</ele>
        <time>2022-08-11T07:18:16Z</time>
      </trkpt>
      <trkpt lat="44.50359" lon="1.16241">
        <ele>88.7</ele>
        <time>2022-08-11T07:18:18Z</time>
      </trkpt>
      <trkpt lat="44.5037" lon="1.16237">
        <ele>88.5</ele>
        <time>2022-08-11T07:18:20Z</time>
      </trkpt>
      <trkpt lat="44.50381" lon="1.16232">
        <ele>88.3</ele>
        <time>2022-08-11T07:18:22Z</time>
      </trkpt>
      <trkpt lat="44.50391" lon="1.16223">
        <ele>88.1</ele>
        <time>2022-08-11T07:18:24Z</time>
      </trkpt>
      <trkpt lat="44.504" lon="1.16213">
        <ele>87.8</ele>
        <time>2022-08-11T07:18:26Z</time>
      </trkpt>
      <trkpt lat="44.50407" lon="1.16202">
        <ele>87.6</ele>
        <time>2022-08-11T07:18:28Z</time>
      </trkpt>
      <trkpt lat="44.50415" lon="1.1619">
        <ele>87.3</ele>
        <time>2022-08-11T07:18:30Z</time>
      </trkpt>
      <trkpt lat="44.50422" lon="1.16178">
        <ele>87.1</ele>
        <time>2022-08-11T07:18:32Z</time>
      </trkpt>
      <trkpt lat="44.5043" lon="1.16167">
        <ele>86.8</ele>
        <time>2022-08-11T07:18:34Z</time>
      </trkpt>
      <trkpt lat="44.50438" lon="1.16156">
        <ele>86.8</ele>
        <time>2022-08-11T07:18:36Z</time>
      </trkpt>
      <trkpt lat="44.50445" lon="1.16144">
        <ele>86.8</ele>
        <time>2022-08-11T07:18:38Z</time>
      </trkpt>
      <trkpt lat="44.50452" lon="1.16134">
        <ele>86.7</ele>
        <time>2022-08-11T07:18:40Z</time>
      </trkpt>
      <trkpt lat="44.50459" lon="1.16122">
        <ele>86.8</ele>
        <time>2022-08-11T07:18:42Z</time>
      </trkpt>
      <trkpt lat="44.50465" lon="1.1611">
        <ele>86.8</ele>
        <time>2022-08-11T07:18:44Z</time>
      </trkpt>
      <trkpt lat="44.50469" lon="1.16096">
        <ele>86.9</ele>
        <time>2022-08-11T07:18:46Z</time>
      </trkpt>
      <trkpt lat="44.50472" lon="1.16083">
        <ele>87</ele>
        <time>2022-08-11T07:18:48Z</time>
      </trkpt>
      <trkpt lat="44.50474" lon="1.16069">
        <ele>87.1</ele>
        <time>2022-08-11T07:18:50Z</time>
      </trkpt>
      <trkpt lat="44.50475" lon="1.16055">
        <ele>87.1</ele>
        <time>2022-08-11T07:18:52Z</time>
      </trkpt>
      <trkpt lat="44.50475" lon="1.16041">
        <ele>87.1</ele>
        <time>2022-08-11T07:18:54Z</time>
      </trkpt>
      <trkpt lat="44.50475" lon="1.16027">
        <ele>87.2</ele>
        <time>2022-08-11T07:18:56Z</time>
      </trkpt>
      <trkpt lat="44.50476" lon="1.16014">
        <ele>87.2</ele>
        <time>2022-08-11T07:18:58Z</time>
      </trkpt>
      <trkpt lat="44.50475" lon="1.16002">
        <ele>87.3</ele>
        <time>2022-08-11T07:19:00Z</time>
      </trkpt>
      <trkpt lat="44.50475" lon="1.15989">
        <ele>87.4</ele>
        <time>2022-08-11T07:19:02Z</time>
      </trkpt>
      <trkpt lat="44.50474" lon="1.15977">
        <ele>87.5</ele>
        <time>2022-08-11T07:19:04Z</time>
      </trkpt>
      <trkpt lat="44.50476" lon="1.15965">
        <ele>87.6</ele>
        <time>2022-08-11T07:19:06Z</time>
      </trkpt>
      <trkpt lat="44.5048" lon="1.15955">
        <ele>87.7</ele>
        <time>2022-08-11T07:19:08Z</time>
      </trkpt>
      <trkpt lat="44.50483" lon="1.15948">
        <ele>87.7</ele>
        <time>2022-08-11T07:19:10Z</time>
      </trkpt>
      <trkpt lat="44.50484" lon="1.1594">
        <ele>87.8</ele>
        <time>2022-08-11T07:19:12Z</time>
      </trkpt>
      <trkpt lat="44.50481" lon="1.1593">
        <ele>87.9</ele>
        <time>2022-08-11T07:19:14Z</time>
      </trkpt>
      <trkpt lat="44.50478" lon="1.15921">
        <ele>88</ele>
        <time>2022-08-11T07:19:16Z</time>
      </trkpt>
      <trkpt lat="44.50477" lon="1.1591">
        <ele>87.9</ele>
        <time>2022-08-11T07:19:18Z</time>
      </trkpt>
      <trkpt lat="44.50477" lon="1.15898">
        <ele>87.8</ele>
        <time>2022-08-11T07:19:20Z</time>
      </trkpt>
      <trkpt lat="44.50477" lon="1.15887">
        <ele>87.7</ele>
        <time>2022-08-11T07:19:22Z</time>
      </trkpt>
      <trkpt lat="44.50477" lon="1.15876">
        <ele>87.6</ele>
        <time>2022-08-11T07:19:24Z</time>
      </trkpt>
      <trkpt lat="44.50477" lon="1.15864">
        <ele>87.5</ele>
        <time>2022-08-11T07:19:26Z</time>
      </trkpt>
      <trkpt lat="44.50477" lon="1.15852">
        <ele>87.4</ele>
        <time>2022-08-11T07:19:28Z</time>
      </trkpt>
      <trkpt lat="44.50478" lon="1.15841">
        <ele>87.3</ele>
        <time>2022-08-11T07:19:30Z</time>
      </trkpt>
      <trkpt lat="44.50478" lon="1.15829">
        <ele>87.3</ele>
        <time>2022-08-11T07:19:32Z</time>
      </trkpt>
      <trkpt lat="44.50477" lon="1.15817">
        <ele>87.4</ele>
        <time>2022-08-11T07:19:34Z</time>
      </trkpt>
      <trkpt lat="44.50477" lon="1.15806">
        <ele>87.5</ele>
        <time>2022-08-11T07:19:36Z</time>
      </trkpt>
      <trkpt lat="44.50477" lon="1.15794">
        <ele>87.6</ele>
        <time>2022-08-11T07:19:38Z</time>
      </trkpt>
      <trkpt lat="44.50476" lon="1.15783">
        <ele>87.7</ele>
        <time>2022-08-11T07:19:40Z</time>
      </trkpt>
      <trkpt lat="44.50476" lon="1.15771">
        <ele>87.8</ele>
        <time>2022-08-11T07:19:42Z</time>
      </trkpt>
      <trkpt lat="44.50475" lon="1.15761">
        <ele>87.9</ele>
        <time>2022-08-11T07:19:44Z</time>
      </trkpt>
      <trkpt lat="44.50475" lon="1.1575">
        <ele>88</ele>
        <time>2022-08-11T07:19:46Z</time>
      </trkpt>
      <trkpt lat="44.50475" lon="1.1574">
        <ele>88</ele>
        <time>2022-08-11T07:19:48Z</time>
      </trkpt>
      <trkpt lat="44.50475" lon="1.1573">
        <ele>87.9</ele>
        <time>2022-08-11T07:19:50Z</time>
      </trkpt>
      <trkpt lat="44.50474" lon="1.15721">
        <ele>87.9</ele>
        <time>2022-08-11T07:19:52Z</time>
      </trkpt>
      <trkpt lat="44.50473" lon="1.1571">
        <ele>87.8</ele>
        <time>2022-08-11T07:19:54Z</time>
      </trkpt>
      <trkpt lat="44.50467" lon="1.15704">
        <ele>87.8</ele>
        <time>2022-08-11T07:19:56Z</time>
      </trkpt>
      <trkpt lat="44.50459" lon="1.15703">
        <ele>87.7</ele>
        <time>2022-08-11T07:19:58Z</time>
      </trkpt>
      <trkpt lat="44.50452" lon="1.15703">
        <ele>87.7</ele>
        <time>2022-08-11T07:20:00Z</time>
      </trkpt>
      <trkpt lat="44.50444" lon="1.15702">
        <ele>87.6</ele>
        <time>2022-08-11T07:20:02Z</time>
      </trkpt>
      <trkpt lat="44.50437" lon="1.15702">
        <ele>87.6</ele>
        <time>2022-08-11T07:20:04Z</time>
      </trkpt>
      <trkpt lat="44.5043" lon="1.15701">
        <ele>87.5</ele>
        <time>2022-08-11T07:20:06Z</time>
      </trkpt>
      <trkpt lat="44.50424" lon="1.157">
        <ele>87.5</ele>
        <time>2022-08-11T07:20:08Z</time>
      </trkpt>
      <trkpt lat="44.5042" lon="1.15691">
        <ele>87.3</ele>
        <time>2022-08-11T07:20:10Z</time>
      </trkpt>
      <trkpt lat="44.50419" lon="1.1568">
        <ele>87.2</ele>
        <time>2022-08-11T07:20:12Z</time>
      </trkpt>
      <trkpt lat="44.50418" lon="1.1567">
        <ele>87.1</ele>
        <time>2022-08-11T07:20:14Z</time>
      </trkpt>
      <trkpt lat="44.50417" lon="1.1566">
        <ele>87</ele>
        <time>2022-08-11T07:20:16Z</time>
      </trkpt>
      <trkpt lat="44.50415" lon="1.1565">
        <ele>87</ele>
        <time>2022-08-11T07:20:18Z</time>
      </trkpt>
      <trkpt lat="44.50414" lon="1.15639">
        <ele>87</ele>
        <time>2022-08-11T07:20:20Z</time>
      </trkpt>
      <trkpt lat="44.50413" lon="1.15629">
        <ele>87</ele>
        <time>2022-08-11T07:20:22Z</time>
      </trkpt>
      <trkpt lat="44.50412" lon="1.15618">
        <ele>87</ele>
        <time>2022-08-11T07:20:24Z</time>
      </trkpt>
      <trkpt lat="44.5041" lon="1.15607">
        <ele>87</ele>
        <time>2022-08-11T07:20:26Z</time>
      </trkpt>
      <trkpt lat="44.50409" lon="1.15596">
        <ele>87</ele>
        <time>2022-08-11T07:20:28Z</time>
      </trkpt>
      <trkpt lat="44.50408" lon="1.15584">
        <ele>87</ele>
        <time>2022-08-11T07:20:30Z</time>
      </trkpt>
      <trkpt lat="44.50405" lon="1.15572">
        <ele>87.1</ele>
        <time>2022-08-11T07:20:32Z</time>
      </trkpt>
      <trkpt lat="44.50403" lon="1.15561">
        <ele>87.3</ele>
        <time>2022-08-11T07:20:34Z</time>
      </trkpt>
      <trkpt lat="44.504" lon="1.15549">
        <ele>87.4</ele>
        <time>2022-08-11T07:20:36Z</time>
      </trkpt>
      <trkpt lat="44.50396" lon="1.15538">
        <ele>87.5</ele>
        <time>2022-08-11T07:20:38Z</time>
      </trkpt>
      <trkpt lat="44.50393" lon="1.15527">
        <ele>87.7</ele>
        <time>2022-08-11T07:20:40Z</time>
      </trkpt>
      <trkpt lat="44.5039" lon="1.15517">
        <ele>87.8</ele>
        <time>2022-08-11T07:20:42Z</time>
      </trkpt>
      <trkpt lat="44.50387" lon="1.15507">
        <ele>87.9</ele>
        <time>2022-08-11T07:20:44Z</time>
      </trkpt>
      <trkpt lat="44.50383" lon="1.15497">
        <ele>88</ele>
        <time>2022-08-11T07:20:46Z</time>
      </trkpt>
      <trkpt lat="44.5038" lon="1.15488">
        <ele>87.8</ele>
        <time>2022-08-11T07:20:48Z</time>
      </trkpt>
      <trkpt lat="44.50376" lon="1.15479">
        <ele>87.7</ele>
        <time>2022-08-11T07:20:50Z</time>
      </trkpt>
      <trkpt lat="44.50372" lon="1.1547">
        <ele>87.7</ele>
        <time>2022-08-11T07:20:52Z</time>
      </trkpt>
      <trkpt lat="44.50367" lon="1.15461">
        <ele>87.6</ele>
        <time>2022-08-11T07:20:54Z</time>
      </trkpt>
      <trkpt lat="44.50364" lon="1.15453">
        <ele>87.6</ele>
        <time>2022-08-11T07:20:56Z</time>
      </trkpt>
      <trkpt lat="44.50359" lon="1.15446">
        <ele>87.6</ele>
        <time>2022-08-11T07:20:58Z</time>
      </trkpt>
      <trkpt lat="44.50355" lon="1.15439">
        <ele>87.6</ele>
        <time>2022-08-11T07:21:00Z</time>
      </trkpt>
      <trkpt lat="44.50351" lon="1.15432">
        <ele>87.7</ele>
        <time>2022-08-11T07:21:02Z</time>
      </trkpt>
      <trkpt lat="44.50346" lon="1.15425">
        <ele>87.7</ele>
        <time>2022-08-11T07:21:04Z</time>
      </trkpt>
      <trkpt lat="44.50341" lon="1.15418">
        <ele>87.8</ele>
        <time>2022-08-11T07:21:06Z</time>
      </trkpt>
      <trkpt lat="44.50337" lon="1.1541">
        <ele>87.8</ele>
        <time>2022-08-11T07:21:08Z</time>
      </trkpt>
      <trkpt lat="44.50333" lon="1.15403">
        <ele>87.8</ele>
        <time>2022-08-11T07:21:10Z</time>
      </trkpt>
      <trkpt lat="44.50328" lon="1.15396">
        <ele>87.8</ele>
        <time>2022-08-11T07:21:12Z</time>
      </trkpt>
      <trkpt lat="44.50324" lon="1.15388">
        <ele>87.7</ele>
        <time>2022-08-11T07:21:14Z</time>
      </trkpt>
      <trkpt lat="44.50318" lon="1.15382">
        <ele>87.7</ele>
        <time>2022-08-11T07:21:16Z</time>
      </trkpt>
      <trkpt lat="44.50313" lon="1.15375">
        <ele>87.6</ele>
        <time>2022-08-11T07:21:18Z</time>
      </trkpt>
      <trkpt lat="44.50308" lon="1.15367">
        <ele>87.6</ele>
        <time>2022-08-11T07:21:20Z</time>
      </trkpt>
      <trkpt lat="44.50303" lon="1.1536">
        <ele>87.6</ele>
        <time>2022-08-11T07:21:22Z</time>
      </trkpt>
      <trkpt lat="44.50298" lon="1.15353">
        <ele>87.6</ele>
        <time>2022-08-11T07:21:24Z</time>
      </trkpt>
      <trkpt lat="44.50295" lon="1.15346">
        <ele>87.5</ele>
        <time>2022-08-11T07:21:26Z</time>
      </trkpt>
      <trkpt lat="44.50292" lon="1.15341">
        <ele>87.5</ele>
        <time>2022-08-11T07:21:28Z</time>
      </trkpt>
      <trkpt lat="44.50288" lon="1.15336">
        <ele>87.6</ele>
        <time>2022-08-11T07:21:30Z</time>
      </trkpt>
      <trkpt lat="44.50285" lon="1.15331">
        <ele>87.6</ele>
        <time>2022-08-11T07:21:32Z</time>
      </trkpt>
      <trkpt lat="44.50282" lon="1.15327">
        <ele>87.6</ele>
        <time>2022-08-11T07:21:34Z</time>
      </trkpt>
      <trkpt lat="44.50278" lon="1.15322">
        <ele>87.7</ele>
        <time>2022-08-11T07:21:36Z</time>
      </trkpt>
      <trkpt lat="44.50274" lon="1.15315">
        <ele>87.7</ele>
        <time>2022-08-11T07:21:38Z</time>
      </trkpt>
      <trkpt lat="44.50268" lon="1.15311">
        <ele>87.8</ele>
        <time>2022-08-11T07:21:40Z</time>
      </trkpt>
      <trkpt lat="44.50264" lon="1.15304">
        <ele>87.8</ele>
        <time>2022-08-11T07:21:42Z</time>
      </trkpt>
      <trkpt lat="44.50259" lon="1.15297">
        <ele>87.9</ele>
        <time>2022-08-11T07:21:44Z</time>
      </trkpt>
      <trkpt lat="44.50255" lon="1.15291">
        <ele>87.9</ele>
        <time>2022-08-11T07:21:46Z</time>
      </trkpt>
      <trkpt lat="44.50251" lon="1.15285">
        <ele>88</ele>
        <time>2022-08-11T07:21:48Z</time>
      </trkpt>
      <trkpt lat="44.50246" lon="1.15278">
        <ele>88</ele>
        <time>2022-08-11T07:21:50Z</time>
      </trkpt>
      <trkpt lat="44.50242" lon="1.15271">
        <ele>87.9</ele>
        <time>2022-08-11T07:21:52Z</time>
      </trkpt>
      <trkpt lat="44.50236" lon="1.15264">
        <ele>87.8</ele>
        <time>2022-08-11T07:21:54Z</time>
      </trkpt>
      <trkpt lat="44.50231" lon="1.15257">
        <ele>87.8</ele>
        <time>2022-08-11T07:21:56Z</time>
      </trkpt>
      <trkpt lat="44.50226" lon="1.15251">
        <ele>87.7</ele>
        <time>2022-08-11T07:21:58Z</time>
      </trkpt>
      <trkpt lat="44.5022" lon="1.15244">
        <ele>87.6</ele>
        <time>2022-08-11T07:22:00Z</time>
      </trkpt>
      <trkpt lat="44.50216" lon="1.1524">
        <ele>87.5</ele>
        <time>2022-08-11T07:22:02Z</time>
      </trkpt>
      <trkpt lat="44.50209" lon="1.15233">
        <ele>87.4</ele>
        <time>2022-08-11T07:22:04Z</time>
      </trkpt>
      <trkpt lat="44.50204" lon="1.15226">
        <ele>87.3</ele>
        <time>2022-08-11T07:22:06Z</time>
      </trkpt>
      <trkpt lat="44.50198" lon="1.15218">
        <ele>87.1</ele>
        <time>2022-08-11T07:22:08Z</time>
      </trkpt>
      <trkpt lat="44.50192" lon="1.15211">
        <ele>87</ele>
        <time>2022-08-11T07:22:10Z</time>
      </trkpt>
      <trkpt lat="44.50185" lon="1.15203">
        <ele>86.8</ele>
        <time>2022-08-11T07:22:12Z</time>
      </trkpt>
      <trkpt lat="44.50178" lon="1.15197">
        <ele>86.6</ele>
        <time>2022-08-11T07:22:14Z</time>
      </trkpt>
      <trkpt lat="44.50171" lon="1.15189">
        <ele>86.4</ele>
        <time>2022-08-11T07:22:16Z</time>
      </trkpt>
      <trkpt lat="44.50164" lon="1.15182">
        <ele>86.2</ele>
        <time>2022-08-11T07:22:18Z</time>
      </trkpt>
      <trkpt lat="44.50157" lon="1.15175">
        <ele>86.1</ele>
        <time>2022-08-11T07:22:20Z</time>
      </trkpt>
      <trkpt lat="44.50149" lon="1.15168">
        <ele>86</ele>
        <time>2022-08-11T07:22:22Z</time>
      </trkpt>
      <trkpt lat="44.50142" lon="1.1516">
        <ele>86.1</ele>
        <time>2022-08-11T07:22:24Z</time>
      </trkpt>
      <trkpt lat="44.50134" lon="1.15152">
        <ele>86.1</ele>
        <time>2022-08-11T07:22:26Z</time>
      </trkpt>
      <trkpt lat="44.50126" lon="1.15145">
        <ele>86.1</ele>
        <time>2022-08-11T07:22:28Z</time>
      </trkpt>
      <trkpt lat="44.50118" lon="1.15137">
        <ele>86.1</ele>
        <time>2022-08-11T07:22:30Z</time>
      </trkpt>
      <trkpt lat="44.5011" lon="1.1513">
        <ele>86.1</ele>
        <time>2022-08-11T07:22:32Z</time>
      </trkpt>
      <trkpt lat="44.50102" lon="1.15123">
        <ele>86.1</ele>
        <time>2022-08-11T07:22:34Z</time>
      </trkpt>
      <trkpt lat="44.50094" lon="1.15116">
        <ele>86.1</ele>
        <time>2022-08-11T07:22:36Z</time>
      </trkpt>
      <trkpt lat="44.50087" lon="1.15109">
        <ele>86</ele>
        <time>2022-08-11T07:22:38Z</time>
      </trkpt>
      <trkpt lat="44.50078" lon="1.15103">
        <ele>86.1</ele>
        <time>2022-08-11T07:22:40Z</time>
      </trkpt>
      <trkpt lat="44.5007" lon="1.15097">
        <ele>86.2</ele>
        <time>2022-08-11T07:22:42Z</time>
      </trkpt>
      <trkpt lat="44.50062" lon="1.1509">
        <ele>86.3</ele>
        <time>2022-08-11T07:22:44Z</time>
      </trkpt>
      <trkpt lat="44.50055" lon="1.15083">
        <ele>86.3</ele>
        <time>2022-08-11T07:22:46Z</time>
      </trkpt>
      <trkpt lat="44.50046" lon="1.15078">
        <ele>86.4</ele>
        <time>2022-08-11T07:22:48Z</time>
      </trkpt>
      <trkpt lat="44.50038" lon="1.15072">
        <ele>86.5</ele>
        <time>2022-08-11T07:22:50Z</time>
      </trkpt>
      <trkpt lat="44.5003" lon="1.15067">
        <ele>86.5</ele>
        <time>2022-08-11T07:22:52Z</time>
      </trkpt>
      <trkpt lat="44.50021" lon="1.15063">
        <ele>86.6</ele>
        <time>2022-08-11T07:22:54Z</time>
      </trkpt>
      <trkpt lat="44.50012" lon="1.15059">
        <ele>86.6</ele>
        <time>2022-08-11T07:22:56Z</time>
      </trkpt>
      <trkpt lat="44.50003" lon="1.15055">
        <ele>86.6</ele>
        <time>2022-08-11T07:22:58Z</time>
      </trkpt>
      <trkpt lat="44.49994" lon="1.15051">
        <ele>86.6</ele>
        <time>2022-08-11T07:23:00Z</time>
      </trkpt>
      <trkpt lat="44.49986" lon="1.15048">
        <ele>86.6</ele>
        <time>2022-08-11T07:23:02Z</time>
      </trkpt>
      <trkpt lat="44.49977" lon="1.15045">
        <ele>86.5</ele>
        <time>2022-08-11T07:23:04Z</time>
      </trkpt>
      <trkpt lat="44.49968" lon="1.15042">
        <ele>86.5</ele>
        <time>2022-08-11T07:23:06Z</time>
      </trkpt>
      <trkpt lat="44.49959" lon="1.15039">
        <ele>86.5</ele>
        <time>2022-08-11T07:23:08Z</time>
      </trkpt>
      <trkpt lat="44.49949" lon="1.15036">
        <ele>86.4</ele>
        <time>2022-08-11T07:23:10Z</time>
      </trkpt>
      <trkpt lat="44.4994" lon="1.15034">
        <ele>86.4</ele>
        <time>2022-08-11T07:23:12Z</time>
      </trkpt>
      <trkpt lat="44.4993" lon="1.15031">
        <ele>86.4</ele>
        <time>2022-08-11T07:23:14Z</time>
      </trkpt>
      <trkpt lat="44.4992" lon="1.15029">
        <ele>86.3</ele>
        <time>2022-08-11T07:23:16Z</time>
      </trkpt>
      <trkpt lat="44.4991" lon="1.15027">
        <ele>86.3</ele>
        <time>2022-08-11T07:23:18Z</time>
      </trkpt>
      <trkpt lat="44.499" lon="1.15026">
        <ele>86.3</ele>
        <time>2022-08-11T07:23:20Z</time>
      </trkpt>
      <trkpt lat="44.4989" lon="1.15023">
        <ele>86.3</ele>
        <time>2022-08-11T07:23:22Z</time>
      </trkpt>
      <trkpt lat="44.4988" lon="1.15021">
        <ele>86.3</ele>
        <time>2022-08-11T07:23:24Z</time>
      </trkpt>
      <trkpt lat="44.4987" lon="1.1502">
        <ele>86.2</ele>
        <time>2022-08-11T07:23:26Z</time>
      </trkpt>
      <trkpt lat="44.4986" lon="1.15018">
        <ele>86.2</ele>
        <time>2022-08-11T07:23:28Z</time>
      </trkpt>
      <trkpt lat="44.4985" lon="1.15016">
        <ele>86.2</ele>
        <time>2022-08-11T07:23:30Z</time>
      </trkpt>
      <trkpt lat="44.4984" lon="1.15014">
        <ele>86.2</ele>
        <time>2022-08-11T07:23:32Z</time>
      </trkpt>
      <trkpt lat="44.4983" lon="1.15013">
        <ele>86.1</ele>
        <time>2022-08-11T07:23:34Z</time>
      </trkpt>
      <trkpt lat="44.4982" lon="1.15011">
        <ele>86.1</ele>
        <time>2022-08-11T07:23:36Z</time>
      </trkpt>
      <trkpt lat="44.4981" lon="1.1501">
        <ele>86.1</ele>
        <time>2022-08-11T07:23:38Z</time>
      </trkpt>
      <trkpt lat="44.498" lon="1.15008">
        <ele>86</ele>
        <time>2022-08-11T07:23:40Z</time>
      </trkpt>
      <trkpt lat="44.49791" lon="1.15005">
        <ele>86</ele>
        <time>2022-08-11T07:23:42Z</time>
      </trkpt>
      <trkpt lat="44.4978" lon="1.15003">
        <ele>86</ele>
        <time>2022-08-11T07:23:44Z</time>
      </trkpt>
      <trkpt lat="44.4977" lon="1.15001">
        <ele>86</ele>
        <time>2022-08-11T07:23:46Z</time>
      </trkpt>
      <trkpt lat="44.49758" lon="1.14997">
        <ele>86</ele>
        <time>2022-08-11T07:23:48Z</time>
      </trkpt>
      <trkpt lat="44.49748" lon="1.14993">
        <ele>86</ele>
        <time>2022-08-11T07:23:50Z</time>
      </trkpt>
      <trkpt lat="44.49738" lon="1.14988">
        <ele>86</ele>
        <time>2022-08-11T07:23:52Z</time>
      </trkpt>
      <trkpt lat="44.49729" lon="1.14982">
        <ele>86</ele>
        <time>2022-08-11T07:23:54Z</time>
      </trkpt>
      <trkpt lat="44.49719" lon="1.14976">
        <ele>86</ele>
        <time>2022-08-11T07:23:56Z</time>
      </trkpt>
      <trkpt lat="44.49711" lon="1.14971">
        <ele>86</ele>
        <time>2022-08-11T07:23:58Z</time>
      </trkpt>
      <trkpt lat="44.49703" lon="1.14964">
        <ele>86</ele>
        <time>2022-08-11T07:24:00Z</time>
      </trkpt>
      <trkpt lat="44.49693" lon="1.1496">
        <ele>86</ele>
        <time>2022-08-11T07:24:02Z</time>
      </trkpt>
      <trkpt lat="44.49685" lon="1.14955">
        <ele>86</ele>
        <time>2022-08-11T07:24:04Z</time>
      </trkpt>
      <trkpt lat="44.49675" lon="1.14951">
        <ele>86</ele>
        <time>2022-08-11T07:24:06Z</time>
      </trkpt>
      <trkpt lat="44.49665" lon="1.14948">
        <ele>86</ele>
        <time>2022-08-11T07:24:08Z</time>
      </trkpt>
      <trkpt lat="44.49654" lon="1.14944">
        <ele>85.9</ele>
        <time>2022-08-11T07:24:10Z</time>
      </trkpt>
      <trkpt lat="44.49643" lon="1.14942">
        <ele>85.8</ele>
        <time>2022-08-11T07:24:12Z</time>
      </trkpt>
      <trkpt lat="44.49632" lon="1.14938">
        <ele>85.8</ele>
        <time>2022-08-11T07:24:14Z</time>
      </trkpt>
      <trkpt lat="44.49621" lon="1.14936">
        <ele>85.7</ele>
        <time>2022-08-11T07:24:16Z</time>
      </trkpt>
      <trkpt lat="44.49609" lon="1.14934">
        <ele>85.7</ele>
        <time>2022-08-11T07:24:18Z</time>
      </trkpt>
      <trkpt lat="44.49599" lon="1.14933">
        <ele>85.7</ele>
        <time>2022-08-11T07:24:20Z</time>
      </trkpt>
      <trkpt lat="44.49588" lon="1.14931">
        <ele>85.7</ele>
        <time>2022-08-11T07:24:22Z</time>
      </trkpt>
      <trkpt lat="44.49577" lon="1.14931">
        <ele>85.6</ele>
        <time>2022-08-11T07:24:24Z</time>
      </trkpt>
      <trkpt lat="44.49566" lon="1.14931">
        <ele>85.5</ele>
        <time>2022-08-11T07:24:26Z</time>
      </trkpt>
      <trkpt lat="44.49556" lon="1.14932">
        <ele>85.4</ele>
        <time>2022-08-11T07:24:28Z</time>
      </trkpt>
      <trkpt lat="44.49546" lon="1.14934">
        <ele>85.3</ele>
        <time>2022-08-11T07:24:30Z</time>
      </trkpt>
      <trkpt lat="44.49536" lon="1.14934">
        <ele>85.2</ele>
        <time>2022-08-11T07:24:32Z</time>
      </trkpt>
      <trkpt lat="44.49528" lon="1.14934">
        <ele>85.2</ele>
        <time>2022-08-11T07:24:34Z</time>
      </trkpt>
      <trkpt lat="44.4952" lon="1.14933">
        <ele>85.1</ele>
        <time>2022-08-11T07:24:36Z</time>
      </trkpt>
      <trkpt lat="44.49512" lon="1.14934">
        <ele>85.1</ele>
        <time>2022-08-11T07:24:38Z</time>
      </trkpt>
      <trkpt lat="44.49504" lon="1.14935">
        <ele>85</ele>
        <time>2022-08-11T07:24:40Z</time>
      </trkpt>
      <trkpt lat="44.49494" lon="1.14938">
        <ele>84.8</ele>
        <time>2022-08-11T07:24:42Z</time>
      </trkpt>
      <trkpt lat="44.49481" lon="1.14939">
        <ele>84.4</ele>
        <time>2022-08-11T07:24:44Z</time>
      </trkpt>
      <trkpt lat="44.4947" lon="1.1494">
        <ele>84.1</ele>
        <time>2022-08-11T07:24:46Z</time>
      </trkpt>
      <trkpt lat="44.49459" lon="1.14941">
        <ele>83.8</ele>
        <time>2022-08-11T07:24:48Z</time>
      </trkpt>
      <trkpt lat="44.49448" lon="1.14942">
        <ele>83.5</ele>
        <time>2022-08-11T07:24:50Z</time>
      </trkpt>
      <trkpt lat="44.49437" lon="1.14942">
        <ele>83.2</ele>
        <time>2022-08-11T07:24:52Z</time>
      </trkpt>
      <trkpt lat="44.49426" lon="1.14941">
        <ele>82.9</ele>
        <time>2022-08-11T07:24:54Z</time>
      </trkpt>
      <trkpt lat="44.49415" lon="1.14941">
        <ele>82.6</ele>
        <time>2022-08-11T07:24:56Z</time>
      </trkpt>
      <trkpt lat="44.49405" lon="1.1494">
        <ele>82.9</ele>
        <time>2022-08-11T07:24:58Z</time>
      </trkpt>
      <trkpt lat="44.49395" lon="1.1494">
        <ele>83.1</ele>
        <time>2022-08-11T07:25:00Z</time>
      </trkpt>
      <trkpt lat="44.49386" lon="1.1494">
        <ele>83.3</ele>
        <time>2022-08-11T07:25:02Z</time>
      </trkpt>
      <trkpt lat="44.49377" lon="1.14941">
        <ele>83.6</ele>
        <time>2022-08-11T07:25:04Z</time>
      </trkpt>
      <trkpt lat="44.49369" lon="1.14944">
        <ele>83.8</ele>
        <time>2022-08-11T07:25:06Z</time>
      </trkpt>
      <trkpt lat="44.49361" lon="1.14947">
        <ele>84</ele>
        <time>2022-08-11T07:25:08Z</time>
      </trkpt>
      <trkpt lat="44.49353" lon="1.14951">
        <ele>84.2</ele>
        <time>2022-08-11T07:25:10Z</time>
      </trkpt>
      <trkpt lat="44.49345" lon="1.14954">
        <ele>84.3</ele>
        <time>2022-08-11T07:25:12Z</time>
      </trkpt>
      <trkpt lat="44.49338" lon="1.14958">
        <ele>84.4</ele>
        <time>2022-08-11T07:25:14Z</time>
      </trkpt>
      <trkpt lat="44.49332" lon="1.14962">
        <ele>84.5</ele>
        <time>2022-08-11T07:25:16Z</time>
      </trkpt>
      <trkpt lat="44.49325" lon="1.14965">
        <ele>84.5</ele>
        <time>2022-08-11T07:25:18Z</time>
      </trkpt>
      <trkpt lat="44.49319" lon="1.14968">
        <ele>84.5</ele>
        <time>2022-08-11T07:25:20Z</time>
      </trkpt>
      <trkpt lat="44.49312" lon="1.1497">
        <ele>84.5</ele>
        <time>2022-08-11T07:25:22Z</time>
      </trkpt>
      <trkpt lat="44.49306" lon="1.14972">
        <ele>84.5</ele>
        <time>2022-08-11T07:25:24Z</time>
      </trkpt>
      <trkpt lat="44.493" lon="1.14971">
        <ele>84.5</ele>
        <time>2022-08-11T07:25:26Z</time>
      </trkpt>
      <trkpt lat="44.49293" lon="1.14973">
        <ele>84.5</ele>
        <time>2022-08-11T07:25:28Z</time>
      </trkpt>
      <trkpt lat="44.49287" lon="1.14974">
        <ele>84.5</ele>
        <time>2022-08-11T07:25:30Z</time>
      </trkpt>
      <trkpt lat="44.4928" lon="1.14975">
        <ele>84.4</ele>
        <time>2022-08-11T07:25:32Z</time>
      </trkpt>
      <trkpt lat="44.49274" lon="1.14977">
        <ele>84.3</ele>
        <time>2022-08-11T07:25:34Z</time>
      </trkpt>
      <trkpt lat="44.49268" lon="1.1498">
        <ele>84.2</ele>
        <time>2022-08-11T07:25:36Z</time>
      </trkpt>
      <trkpt lat="44.49262" lon="1.14981">
        <ele>84.1</ele>
        <time>2022-08-11T07:25:38Z</time>
      </trkpt>
      <trkpt lat="44.49256" lon="1.14981">
        <ele>84.1</ele>
        <time>2022-08-11T07:25:40Z</time>
      </trkpt>
      <trkpt lat="44.49252" lon="1.14985">
        <ele>83.9</ele>
        <time>2022-08-11T07:25:42Z</time>
      </trkpt>
      <trkpt lat="44.49247" lon="1.14986">
        <ele>83.9</ele>
        <time>2022-08-11T07:25:44Z</time>
      </trkpt>
      <trkpt lat="44.49241" lon="1.14987">
        <ele>83.8</ele>
        <time>2022-08-11T07:25:46Z</time>
      </trkpt>
      <trkpt lat="44.49235" lon="1.14987">
        <ele>83.9</ele>
        <time>2022-08-11T07:25:48Z</time>
      </trkpt>
      <trkpt lat="44.49228" lon="1.14989">
        <ele>83.9</ele>
        <time>2022-08-11T07:25:50Z</time>
      </trkpt>
      <trkpt lat="44.49221" lon="1.14991">
        <ele>83.8</ele>
        <time>2022-08-11T07:25:52Z</time>
      </trkpt>
      <trkpt lat="44.49215" lon="1.14991">
        <ele>83.8</ele>
        <time>2022-08-11T07:25:54Z</time>
      </trkpt>
      <trkpt lat="44.49208" lon="1.14992">
        <ele>83.9</ele>
        <time>2022-08-11T07:25:56Z</time>
      </trkpt>
      <trkpt lat="44.49202" lon="1.14992">
        <ele>83.9</ele>
        <time>2022-08-11T07:25:58Z</time>
      </trkpt>
      <trkpt lat="44.49197" lon="1.14994">
        <ele>83.9</ele>
        <time>2022-08-11T07:26:00Z</time>
      </trkpt>
      <trkpt lat="44.49191" lon="1.14996">
        <ele>83.9</ele>
        <time>2022-08-11T07:26:02Z</time>
      </trkpt>
      <trkpt lat="44.49184" lon="1.14997">
        <ele>83.9</ele>
        <time>2022-08-11T07:26:04Z</time>
      </trkpt>
      <trkpt lat="44.49175" lon="1.14999">
        <ele>83.9</ele>
        <time>2022-08-11T07:26:06Z</time>
      </trkpt>
      <trkpt lat="44.49169" lon="1.14998">
        <ele>84.1</ele>
        <time>2022-08-11T07:26:08Z</time>
      </trkpt>
      <trkpt lat="44.49161" lon="1.14998">
        <ele>84</ele>
        <time>2022-08-11T07:26:10Z</time>
      </trkpt>
      <trkpt lat="44.49153" lon="1.14998">
        <ele>83.9</ele>
        <time>2022-08-11T07:26:12Z</time>
      </trkpt>
      <trkpt lat="44.49145" lon="1.14999">
        <ele>83.8</ele>
        <time>2022-08-11T07:26:14Z</time>
      </trkpt>
      <trkpt lat="44.49137" lon="1.14998">
        <ele>83.8</ele>
        <time>2022-08-11T07:26:16Z</time>
      </trkpt>
      <trkpt lat="44.4913" lon="1.14999">
        <ele>83.6</ele>
        <time>2022-08-11T07:26:18Z</time>
      </trkpt>
      <trkpt lat="44.49122" lon="1.15">
        <ele>83.5</ele>
        <time>2022-08-11T07:26:20Z</time>
      </trkpt>
      <trkpt lat="44.49114" lon="1.15">
        <ele>83.4</ele>
        <time>2022-08-11T07:26:22Z</time>
      </trkpt>
      <trkpt lat="44.49106" lon="1.15">
        <ele>83.3</ele>
        <time>2022-08-11T07:26:24Z</time>
      </trkpt>
      <trkpt lat="44.49098" lon="1.15001">
        <ele>83.2</ele>
        <time>2022-08-11T07:26:26Z</time>
      </trkpt>
      <trkpt lat="44.4909" lon="1.15003">
        <ele>83.1</ele>
        <time>2022-08-11T07:26:28Z</time>
      </trkpt>
      <trkpt lat="44.49081" lon="1.15004">
        <ele>83.1</ele>
        <time>2022-08-11T07:26:30Z</time>
      </trkpt>
      <trkpt lat="44.49073" lon="1.15005">
        <ele>83.3</ele>
        <time>2022-08-11T07:26:32Z</time>
      </trkpt>
      <trkpt lat="44.49065" lon="1.15007">
        <ele>83.5</ele>
        <time>2022-08-11T07:26:34Z</time>
      </trkpt>
      <trkpt lat="44.49056" lon="1.15008">
        <ele>83.6</ele>
        <time>2022-08-11T07:26:36Z</time>
      </trkpt>
      <trkpt lat="44.49048" lon="1.1501">
        <ele>83.8</ele>
        <time>2022-08-11T07:26:38Z</time>
      </trkpt>
      <trkpt lat="44.4904" lon="1.15011">
        <ele>84</ele>
        <time>2022-08-11T07:26:40Z</time>
      </trkpt>
      <trkpt lat="44.49032" lon="1.15012">
        <ele>84.1</ele>
        <time>2022-08-11T07:26:42Z</time>
      </trkpt>
      <trkpt lat="44.49024" lon="1.15014">
        <ele>84.2</ele>
        <time>2022-08-11T07:26:44Z</time>
      </trkpt>
      <trkpt lat="44.49016" lon="1.15016">
        <ele>84.4</ele>
        <time>2022-08-11T07:26:46Z</time>
      </trkpt>
      <trkpt lat="44.49008" lon="1.15017">
        <ele>84.5</ele>
        <time>2022-08-11T07:26:48Z</time>
      </trkpt>
      <trkpt lat="44.48999" lon="1.15018">
        <ele>84.6</ele>
        <time>2022-08-11T07:26:50Z</time>
      </trkpt>
      <trkpt lat="44.48991" lon="1.15019">
        <ele>84.5</ele>
        <time>2022-08-11T07:26:52Z</time>
      </trkpt>
      <trkpt lat="44.48982" lon="1.1502">
        <ele>84.4</ele>
        <time>2022-08-11T07:26:54Z</time>
      </trkpt>
      <trkpt lat="44.48974" lon="1.15021">
        <ele>84.3</ele>
        <time>2022-08-11T07:26:56Z</time>
      </trkpt>
      <trkpt lat="44.48965" lon="1.15022">
        <ele>84.3</ele>
        <time>2022-08-11T07:26:58Z</time>
      </trkpt>
      <trkpt lat="44.48956" lon="1.15024">
        <ele>84.2</ele>
        <time>2022-08-11T07:27:00Z</time>
      </trkpt>
      <trkpt lat="44.48948" lon="1.15024">
        <ele>84.2</ele>
        <time>2022-08-11T07:27:02Z</time>
      </trkpt>
      <trkpt lat="44.48939" lon="1.15023">
        <ele>84.1</ele>
        <time>2022-08-11T07:27:04Z</time>
      </trkpt>
      <trkpt lat="44.4893" lon="1.15024">
        <ele>84.1</ele>
        <time>2022-08-11T07:27:06Z</time>
      </trkpt>
      <trkpt lat="44.48922" lon="1.15026">
        <ele>84</ele>
        <time>2022-08-11T07:27:08Z</time>
      </trkpt>
      <trkpt lat="44.48914" lon="1.15027">
        <ele>84</ele>
        <time>2022-08-11T07:27:10Z</time>
      </trkpt>
      <trkpt lat="44.48906" lon="1.15028">
        <ele>83.9</ele>
        <time>2022-08-11T07:27:12Z</time>
      </trkpt>
      <trkpt lat="44.48897" lon="1.15028">
        <ele>83.8</ele>
        <time>2022-08-11T07:27:14Z</time>
      </trkpt>
      <trkpt lat="44.48888" lon="1.15027">
        <ele>83.8</ele>
        <time>2022-08-11T07:27:16Z</time>
      </trkpt>
      <trkpt lat="44.48879" lon="1.15026">
        <ele>83.7</ele>
        <time>2022-08-11T07:27:18Z</time>
      </trkpt>
      <trkpt lat="44.48871" lon="1.15025">
        <ele>83.6</ele>
        <time>2022-08-11T07:27:20Z</time>
      </trkpt>
      <trkpt lat="44.48863" lon="1.15025">
        <ele>83.5</ele>
        <time>2022-08-11T07:27:22Z</time>
      </trkpt>
      <trkpt lat="44.48855" lon="1.15024">
        <ele>83.5</ele>
        <time>2022-08-11T07:27:24Z</time>
      </trkpt>
      <trkpt lat="44.48847" lon="1.15023">
        <ele>83.4</ele>
        <time>2022-08-11T07:27:26Z</time>
      </trkpt>
      <trkpt lat="44.4884" lon="1.15023">
        <ele>83.3</ele>
        <time>2022-08-11T07:27:28Z</time>
      </trkpt>
      <trkpt lat="44.48833" lon="1.15022">
        <ele>83.3</ele>
        <time>2022-08-11T07:27:30Z</time>
      </trkpt>
      <trkpt lat="44.48825" lon="1.15022">
        <ele>83.4</ele>
        <time>2022-08-11T07:27:32Z</time>
      </trkpt>
      <trkpt lat="44.48817" lon="1.15022">
        <ele>83.6</ele>
        <time>2022-08-11T07:27:34Z</time>
      </trkpt>
      <trkpt lat="44.48809" lon="1.15021">
        <ele>83.7</ele>
        <time>2022-08-11T07:27:36Z</time>
      </trkpt>
      <trkpt lat="44.48801" lon="1.15021">
        <ele>83.8</ele>
        <time>2022-08-11T07:27:38Z</time>
      </trkpt>
      <trkpt lat="44.48793" lon="1.15022">
        <ele>84</ele>
        <time>2022-08-11T07:27:40Z</time>
      </trkpt>
      <trkpt lat="44.48785" lon="1.15021">
        <ele>84.1</ele>
        <time>2022-08-11T07:27:42Z</time>
      </trkpt>
      <trkpt lat="44.48777" lon="1.15022">
        <ele>84.3</ele>
        <time>2022-08-11T07:27:44Z</time>
      </trkpt>
      <trkpt lat="44.4877" lon="1.15022">
        <ele>84.4</ele>
        <time>2022-08-11T07:27:46Z</time>
      </trkpt>
      <trkpt lat="44.48763" lon="1.15021">
        <ele>84.5</ele>
        <time>2022-08-11T07:27:48Z</time>
      </trkpt>
      <trkpt lat="44.48755" lon="1.15022">
        <ele>84.7</ele>
        <time>2022-08-11T07:27:50Z</time>
      </trkpt>
      <trkpt lat="44.48747" lon="1.15021">
        <ele>84.7</ele>
        <time>2022-08-11T07:27:52Z</time>
      </trkpt>
      <trkpt lat="44.4874" lon="1.15021">
        <ele>84.6</ele>
        <time>2022-08-11T07:27:54Z</time>
      </trkpt>
      <trkpt lat="44.48731" lon="1.15021">
        <ele>84.5</ele>
        <time>2022-08-11T07:27:56Z</time>
      </trkpt>
      <trkpt lat="44.48723" lon="1.1502">
        <ele>84.4</ele>
        <time>2022-08-11T07:27:58Z</time>
      </trkpt>
      <trkpt lat="44.48714" lon="1.15019">
        <ele>84.3</ele>
        <time>2022-08-11T07:28:00Z</time>
      </trkpt>
      <trkpt lat="44.48704" lon="1.15017">
        <ele>84.2</ele>
        <time>2022-08-11T07:28:02Z</time>
      </trkpt>
      <trkpt lat="44.48695" lon="1.15016">
        <ele>84.2</ele>
        <time>2022-08-11T07:28:04Z</time>
      </trkpt>
      <trkpt lat="44.48685" lon="1.15015">
        <ele>84</ele>
        <time>2022-08-11T07:28:06Z</time>
      </trkpt>
      <trkpt lat="44.48675" lon="1.15013">
        <ele>83.9</ele>
        <time>2022-08-11T07:28:08Z</time>
      </trkpt>
      <trkpt lat="44.48666" lon="1.1501">
        <ele>83.9</ele>
        <time>2022-08-11T07:28:10Z</time>
      </trkpt>
      <trkpt lat="44.48656" lon="1.15007">
        <ele>83.9</ele>
        <time>2022-08-11T07:28:12Z</time>
      </trkpt>
      <trkpt lat="44.48647" lon="1.15004">
        <ele>84</ele>
        <time>2022-08-11T07:28:14Z</time>
      </trkpt>
      <trkpt lat="44.48638" lon="1.15003">
        <ele>84</ele>
        <time>2022-08-11T07:28:16Z</time>
      </trkpt>
      <trkpt lat="44.48628" lon="1.15001">
        <ele>84</ele>
        <time>2022-08-11T07:28:18Z</time>
      </trkpt>
      <trkpt lat="44.48618" lon="1.15">
        <ele>84</ele>
        <time>2022-08-11T07:28:20Z</time>
      </trkpt>
      <trkpt lat="44.48608" lon="1.15">
        <ele>84</ele>
        <time>2022-08-11T07:28:22Z</time>
      </trkpt>
      <trkpt lat="44.48599" lon="1.14999">
        <ele>84</ele>
        <time>2022-08-11T07:28:24Z</time>
      </trkpt>
      <trkpt lat="44.4859" lon="1.14998">
        <ele>84</ele>
        <time>2022-08-11T07:28:26Z</time>
      </trkpt>
      <trkpt lat="44.48582" lon="1.14997">
        <ele>83.9</ele>
        <time>2022-08-11T07:28:28Z</time>
      </trkpt>
      <trkpt lat="44.48574" lon="1.14997">
        <ele>83.7</ele>
        <time>2022-08-11T07:28:30Z</time>
      </trkpt>
      <trkpt lat="44.48566" lon="1.14997">
        <ele>83.6</ele>
        <time>2022-08-11T07:28:32Z</time>
      </trkpt>
      <trkpt lat="44.48559" lon="1.14997">
        <ele>83.4</ele>
        <time>2022-08-11T07:28:34Z</time>
      </trkpt>
      <trkpt lat="44.48551" lon="1.14996">
        <ele>83.2</ele>
        <time>2022-08-11T07:28:36Z</time>
      </trkpt>
      <trkpt lat="44.48543" lon="1.14996">
        <ele>83</ele>
        <time>2022-08-11T07:28:38Z</time>
      </trkpt>
      <trkpt lat="44.48535" lon="1.14995">
        <ele>82.8</ele>
        <time>2022-08-11T07:28:40Z</time>
      </trkpt>
      <trkpt lat="44.48528" lon="1.14994">
        <ele>82.6</ele>
        <time>2022-08-11T07:28:42Z</time>
      </trkpt>
      <trkpt lat="44.4852" lon="1.14994">
        <ele>82.5</ele>
        <time>2022-08-11T07:28:44Z</time>
      </trkpt>
      <trkpt lat="44.48512" lon="1.14993">
        <ele>82.3</ele>
        <time>2022-08-11T07:28:46Z</time>
      </trkpt>
      <trkpt lat="44.48504" lon="1.14992">
        <ele>82.1</ele>
        <time>2022-08-11T07:28:48Z</time>
      </trkpt>
      <trkpt lat="44.48496" lon="1.14991">
        <ele>82</ele>
        <time>2022-08-11T07:28:50Z</time>
      </trkpt>
      <trkpt lat="44.48488" lon="1.1499">
        <ele>82</ele>
        <time>2022-08-11T07:28:52Z</time>
      </trkpt>
      <trkpt lat="44.48481" lon="1.1499">
        <ele>82</ele>
        <time>2022-08-11T07:28:54Z</time>
      </trkpt>
      <trkpt lat="44.48473" lon="1.14989">
        <ele>82</ele>
        <time>2022-08-11T07:28:56Z</time>
      </trkpt>
      <trkpt lat="44.48465" lon="1.14989">
        <ele>82</ele>
        <time>2022-08-11T07:28:58Z</time>
      </trkpt>
      <trkpt lat="44.48458" lon="1.14988">
        <ele>82</ele>
        <time>2022-08-11T07:29:00Z</time>
      </trkpt>
      <trkpt lat="44.48451" lon="1.14988">
        <ele>82</ele>
        <time>2022-08-11T07:29:02Z</time>
      </trkpt>
      <trkpt lat="44.48444" lon="1.14987">
        <ele>82</ele>
        <time>2022-08-11T07:29:04Z</time>
      </trkpt>
      <trkpt lat="44.48437" lon="1.14986">
        <ele>82</ele>
        <time>2022-08-11T07:29:06Z</time>
      </trkpt>
      <trkpt lat="44.48429" lon="1.14985">
        <ele>82</ele>
        <time>2022-08-11T07:29:08Z</time>
      </trkpt>
      <trkpt lat="44.48422" lon="1.14984">
        <ele>82</ele>
        <time>2022-08-11T07:29:10Z</time>
      </trkpt>
      <trkpt lat="44.48413" lon="1.14983">
        <ele>82</ele>
        <time>2022-08-11T07:29:12Z</time>
      </trkpt>
      <trkpt lat="44.48403" lon="1.14981">
        <ele>82</ele>
        <time>2022-08-11T07:29:14Z</time>
      </trkpt>
      <trkpt lat="44.48393" lon="1.14979">
        <ele>82</ele>
        <time>2022-08-11T07:29:16Z</time>
      </trkpt>
      <trkpt lat="44.48383" lon="1.14977">
        <ele>82</ele>
        <time>2022-08-11T07:29:18Z</time>
      </trkpt>
      <trkpt lat="44.48373" lon="1.14976">
        <ele>82</ele>
        <time>2022-08-11T07:29:20Z</time>
      </trkpt>
      <trkpt lat="44.48364" lon="1.14976">
        <ele>82</ele>
        <time>2022-08-11T07:29:22Z</time>
      </trkpt>
      <trkpt lat="44.48355" lon="1.14976">
        <ele>82</ele>
        <time>2022-08-11T07:29:24Z</time>
      </trkpt>
      <trkpt lat="44.48346" lon="1.14976">
        <ele>82</ele>
        <time>2022-08-11T07:29:26Z</time>
      </trkpt>
      <trkpt lat="44.48338" lon="1.14975">
        <ele>82</ele>
        <time>2022-08-11T07:29:28Z</time>
      </trkpt>
      <trkpt lat="44.48329" lon="1.14973">
        <ele>82.1</ele>
        <time>2022-08-11T07:29:30Z</time>
      </trkpt>
      <trkpt lat="44.48321" lon="1.14971">
        <ele>82.2</ele>
        <time>2022-08-11T07:29:32Z</time>
      </trkpt>
      <trkpt lat="44.48312" lon="1.14968">
        <ele>82.4</ele>
        <time>2022-08-11T07:29:34Z</time>
      </trkpt>
      <trkpt lat="44.48303" lon="1.14965">
        <ele>82.5</ele>
        <time>2022-08-11T07:29:36Z</time>
      </trkpt>
      <trkpt lat="44.48295" lon="1.14961">
        <ele>82.7</ele>
        <time>2022-08-11T07:29:38Z</time>
      </trkpt>
      <trkpt lat="44.48286" lon="1.14959">
        <ele>82.9</ele>
        <time>2022-08-11T07:29:40Z</time>
      </trkpt>
      <trkpt lat="44.48276" lon="1.14955">
        <ele>83.1</ele>
        <time>2022-08-11T07:29:42Z</time>
      </trkpt>
      <trkpt lat="44.48266" lon="1.14952">
        <ele>83.3</ele>
        <time>2022-08-11T07:29:44Z</time>
      </trkpt>
      <trkpt lat="44.48257" lon="1.14947">
        <ele>83.5</ele>
        <time>2022-08-11T07:29:46Z</time>
      </trkpt>
      <trkpt lat="44.48247" lon="1.14943">
        <ele>83.7</ele>
        <time>2022-08-11T07:29:48Z</time>
      </trkpt>
      <trkpt lat="44.48237" lon="1.14939">
        <ele>83.7</ele>
        <time>2022-08-11T07:29:50Z</time>
      </trkpt>
      <trkpt lat="44.48227" lon="1.14935">
        <ele>83.6</ele>
        <time>2022-08-11T07:29:52Z</time>
      </trkpt>
      <trkpt lat="44.48217" lon="1.1493">
        <ele>83.6</ele>
        <time>2022-08-11T07:29:54Z</time>
      </trkpt>
      <trkpt lat="44.48207" lon="1.14926">
        <ele>83.5</ele>
        <time>2022-08-11T07:29:56Z</time>
      </trkpt>
      <trkpt lat="44.48198" lon="1.14922">
        <ele>83.4</ele>
        <time>2022-08-11T07:29:58Z</time>
      </trkpt>
      <trkpt lat="44.48189" lon="1.14919">
        <ele>83.3</ele>
        <time>2022-08-11T07:30:00Z</time>
      </trkpt>
      <trkpt lat="44.4818" lon="1.14919">
        <ele>83.2</ele>
        <time>2022-08-11T07:30:02Z</time>
      </trkpt>
      <trkpt lat="44.48172" lon="1.14924">
        <ele>83.1</ele>
        <time>2022-08-11T07:30:04Z</time>
      </trkpt>
      <trkpt lat="44.48167" lon="1.14933">
        <ele>83.2</ele>
        <time>2022-08-11T07:30:06Z</time>
      </trkpt>
      <trkpt lat="44.48164" lon="1.14941">
        <ele>83.3</ele>
        <time>2022-08-11T07:30:08Z</time>
      </trkpt>
      <trkpt lat="44.48161" lon="1.1495">
        <ele>83.4</ele>
        <time>2022-08-11T07:30:10Z</time>
      </trkpt>
      <trkpt lat="44.48158" lon="1.14958">
        <ele>83.5</ele>
        <time>2022-08-11T07:30:12Z</time>
      </trkpt>
      <trkpt lat="44.48154" lon="1.14968">
        <ele>83.6</ele>
        <time>2022-08-11T07:30:14Z</time>
      </trkpt>
      <trkpt lat="44.48151" lon="1.14977">
        <ele>83.6</ele>
        <time>2022-08-11T07:30:16Z</time>
      </trkpt>
      <trkpt lat="44.48147" lon="1.14986">
        <ele>83.7</ele>
        <time>2022-08-11T07:30:18Z</time>
      </trkpt>
      <trkpt lat="44.48143" lon="1.14994">
        <ele>83.7</ele>
        <time>2022-08-11T07:30:20Z</time>
      </trkpt>
      <trkpt lat="44.48139" lon="1.15002">
        <ele>83.7</ele>
        <time>2022-08-11T07:30:22Z</time>
      </trkpt>
      <trkpt lat="44.48135" lon="1.15011">
        <ele>83.7</ele>
        <time>2022-08-11T07:30:24Z</time>
      </trkpt>
      <trkpt lat="44.48132" lon="1.15019">
        <ele>83.7</ele>
        <time>2022-08-11T07:30:26Z</time>
      </trkpt>
      <trkpt lat="44.48127" lon="1.15027">
        <ele>83.7</ele>
        <time>2022-08-11T07:30:28Z</time>
      </trkpt>
      <trkpt lat="44.48123" lon="1.15034">
        <ele>83.7</ele>
        <time>2022-08-11T07:30:30Z</time>
      </trkpt>
      <trkpt lat="44.4812" lon="1.15042">
        <ele>83.7</ele>
        <time>2022-08-11T07:30:32Z</time>
      </trkpt>
      <trkpt lat="44.48115" lon="1.1505">
        <ele>83.8</ele>
        <time>2022-08-11T07:30:34Z</time>
      </trkpt>
      <trkpt lat="44.48111" lon="1.15058">
        <ele>83.8</ele>
        <time>2022-08-11T07:30:36Z</time>
      </trkpt>
      <trkpt lat="44.48107" lon="1.15065">
        <ele>83.8</ele>
        <time>2022-08-11T07:30:38Z</time>
      </trkpt>
      <trkpt lat="44.48103" lon="1.15069">
        <ele>83.9</ele>
        <time>2022-08-11T07:30:40Z</time>
      </trkpt>
      <trkpt lat="44.48103" lon="1.15069">
        <ele>83.9</ele>
        <time>2022-08-11T07:30:42Z</time>
      </trkpt>
      <trkpt lat="44.48103" lon="1.15069">
        <ele>83.9</ele>
        <time>2022-08-11T07:30:44Z</time>
      </trkpt>
      <trkpt lat="44.48103" lon="1.15069">
        <ele>83.9</ele>
        <time>2022-08-11T07:30:46Z</time>
      </trkpt>
      <trkpt lat="44.48103" lon="1.15069">
        <ele>83.9</ele>
        <time>2022-08-11T07:30:48Z</time>
      </trkpt>
      <trkpt lat="44.48103" lon="1.1507">
        <ele>83.9</ele>
        <time>2022-08-11T07:30:50Z</time>
      </trkpt>
      <trkpt lat="44.4809" lon="1.15081">
        <ele>84</ele>
        <time>2022-08-11T07:32:44Z</time>
      </trkpt>
      <trkpt lat="44.48084" lon="1.15079">
        <ele>83.9</ele>
        <time>2022-08-11T07:32:46Z</time>
      </trkpt>
      <trkpt lat="44.48078" lon="1.15077">
        <ele>84</ele>
        <time>2022-08-11T07:32:48Z</time>
      </trkpt>
      <trkpt lat="44.48073" lon="1.15075">
        <ele>84</ele>
        <time>2022-08-11T07:32:50Z</time>
      </trkpt>
      <trkpt lat="44.48068" lon="1.15071">
        <ele>84</ele>
        <time>2022-08-11T07:32:52Z</time>
      </trkpt>
      <trkpt lat="44.48063" lon="1.15067">
        <ele>84</ele>
        <time>2022-08-11T07:32:54Z</time>
      </trkpt>
      <trkpt lat="44.48058" lon="1.15062">
        <ele>84</ele>
        <time>2022-08-11T07:32:56Z</time>
      </trkpt>
      <trkpt lat="44.48052" lon="1.15057">
        <ele>84.1</ele>
        <time>2022-08-11T07:32:58Z</time>
      </trkpt>
      <trkpt lat="44.48047" lon="1.15052">
        <ele>84.1</ele>
        <time>2022-08-11T07:33:00Z</time>
      </trkpt>
      <trkpt lat="44.48041" lon="1.15047">
        <ele>84.1</ele>
        <time>2022-08-11T07:33:02Z</time>
      </trkpt>
      <trkpt lat="44.48035" lon="1.15042">
        <ele>84.1</ele>
        <time>2022-08-11T07:33:04Z</time>
      </trkpt>
      <trkpt lat="44.48028" lon="1.15038">
        <ele>84.1</ele>
        <time>2022-08-11T07:33:06Z</time>
      </trkpt>
      <trkpt lat="44.48022" lon="1.15034">
        <ele>84.1</ele>
        <time>2022-08-11T07:33:08Z</time>
      </trkpt>
      <trkpt lat="44.48015" lon="1.15033">
        <ele>84.2</ele>
        <time>2022-08-11T07:33:10Z</time>
      </trkpt>
      <trkpt lat="44.48008" lon="1.15034">
        <ele>84.3</ele>
        <time>2022-08-11T07:33:12Z</time>
      </trkpt>
      <trkpt lat="44.48001" lon="1.15038">
        <ele>84.5</ele>
        <time>2022-08-11T07:33:14Z</time>
      </trkpt>
      <trkpt lat="44.47994" lon="1.15043">
        <ele>84.6</ele>
        <time>2022-08-11T07:33:16Z</time>
      </trkpt>
      <trkpt lat="44.47988" lon="1.15049">
        <ele>84.7</ele>
        <time>2022-08-11T07:33:18Z</time>
      </trkpt>
      <trkpt lat="44.47981" lon="1.15054">
        <ele>84.8</ele>
        <time>2022-08-11T07:33:20Z</time>
      </trkpt>
      <trkpt lat="44.47974" lon="1.15057">
        <ele>84.9</ele>
        <time>2022-08-11T07:33:22Z</time>
      </trkpt>
      <trkpt lat="44.47967" lon="1.1506">
        <ele>85</ele>
        <time>2022-08-11T07:33:24Z</time>
      </trkpt>
      <trkpt lat="44.47959" lon="1.15061">
        <ele>85.1</ele>
        <time>2022-08-11T07:33:26Z</time>
      </trkpt>
      <trkpt lat="44.47952" lon="1.15061">
        <ele>85.2</ele>
        <time>2022-08-11T07:33:28Z</time>
      </trkpt>
      <trkpt lat="44.47944" lon="1.15061">
        <ele>85.2</ele>
        <time>2022-08-11T07:33:30Z</time>
      </trkpt>
      <trkpt lat="44.47937" lon="1.1506">
        <ele>85.3</ele>
        <time>2022-08-11T07:33:32Z</time>
      </trkpt>
      <trkpt lat="44.4793" lon="1.15059">
        <ele>85.3</ele>
        <time>2022-08-11T07:33:34Z</time>
      </trkpt>
      <trkpt lat="44.47923" lon="1.15058">
        <ele>85.3</ele>
        <time>2022-08-11T07:33:36Z</time>
      </trkpt>
      <trkpt lat="44.47915" lon="1.15058">
        <ele>85.4</ele>
        <time>2022-08-11T07:33:38Z</time>
      </trkpt>
      <trkpt lat="44.47908" lon="1.15057">
        <ele>85.4</ele>
        <time>2022-08-11T07:33:40Z</time>
      </trkpt>
      <trkpt lat="44.479" lon="1.15056">
        <ele>85.5</ele>
        <time>2022-08-11T07:33:42Z</time>
      </trkpt>
      <trkpt lat="44.47892" lon="1.15055">
        <ele>85.5</ele>
        <time>2022-08-11T07:33:44Z</time>
      </trkpt>
      <trkpt lat="44.47885" lon="1.15055">
        <ele>85.6</ele>
        <time>2022-08-11T07:33:46Z</time>
      </trkpt>
      <trkpt lat="44.47877" lon="1.15054">
        <ele>85.6</ele>
        <time>2022-08-11T07:33:48Z</time>
      </trkpt>
      <trkpt lat="44.47869" lon="1.15054">
        <ele>85.7</ele>
        <time>2022-08-11T07:33:50Z</time>
      </trkpt>
      <trkpt lat="44.47861" lon="1.15054">
        <ele>85.8</ele>
        <time>2022-08-11T07:33:52Z</time>
      </trkpt>
      <trkpt lat="44.47853" lon="1.15054">
        <ele>85.8</ele>
        <time>2022-08-11T07:33:54Z</time>
      </trkpt>
      <trkpt lat="44.47845" lon="1.15054">
        <ele>85.9</ele>
        <time>2022-08-11T07:33:56Z</time>
      </trkpt>
      <trkpt lat="44.47837" lon="1.15054">
        <ele>86</ele>
        <time>2022-08-11T07:33:58Z</time>
      </trkpt>
      <trkpt lat="44.4783" lon="1.15054">
        <ele>86</ele>
        <time>2022-08-11T07:34:00Z</time>
      </trkpt>
      <trkpt lat="44.47822" lon="1.15055">
        <ele>85.9</ele>
        <time>2022-08-11T07:34:02Z</time>
      </trkpt>
      <trkpt lat="44.47814" lon="1.15056">
        <ele>85.8</ele>
        <time>2022-08-11T07:34:04Z</time>
      </trkpt>
      <trkpt lat="44.47807" lon="1.15056">
        <ele>85.7</ele>
        <time>2022-08-11T07:34:06Z</time>
      </trkpt>
      <trkpt lat="44.478" lon="1.15057">
        <ele>85.6</ele>
        <time>2022-08-11T07:34:08Z</time>
      </trkpt>
      <trkpt lat="44.47793" lon="1.15058">
        <ele>85.5</ele>
        <time>2022-08-11T07:34:10Z</time>
      </trkpt>
      <trkpt lat="44.47786" lon="1.15061">
        <ele>85.4</ele>
        <time>2022-08-11T07:34:12Z</time>
      </trkpt>
      <trkpt lat="44.4778" lon="1.15065">
        <ele>85.4</ele>
        <time>2022-08-11T07:34:14Z</time>
      </trkpt>
      <trkpt lat="44.47773" lon="1.1507">
        <ele>85.3</ele>
        <time>2022-08-11T07:34:16Z</time>
      </trkpt>
      <trkpt lat="44.47767" lon="1.15076">
        <ele>85.2</ele>
        <time>2022-08-11T07:34:18Z</time>
      </trkpt>
      <trkpt lat="44.47762" lon="1.15078">
        <ele>85.1</ele>
        <time>2022-08-11T07:34:20Z</time>
      </trkpt>
      <trkpt lat="44.47755" lon="1.15083">
        <ele>85.1</ele>
        <time>2022-08-11T07:34:22Z</time>
      </trkpt>
      <trkpt lat="44.47748" lon="1.15088">
        <ele>85.1</ele>
        <time>2022-08-11T07:34:24Z</time>
      </trkpt>
      <trkpt lat="44.47742" lon="1.15094">
        <ele>85.3</ele>
        <time>2022-08-11T07:34:26Z</time>
      </trkpt>
      <trkpt lat="44.47736" lon="1.15099">
        <ele>85.4</ele>
        <time>2022-08-11T07:34:28Z</time>
      </trkpt>
      <trkpt lat="44.4773" lon="1.15103">
        <ele>85.6</ele>
        <time>2022-08-11T07:34:30Z</time>
      </trkpt>
      <trkpt lat="44.47723" lon="1.15106">
        <ele>85.7</ele>
        <time>2022-08-11T07:34:32Z</time>
      </trkpt>
      <trkpt lat="44.47716" lon="1.1511">
        <ele>85.9</ele>
        <time>2022-08-11T07:34:34Z</time>
      </trkpt>
      <trkpt lat="44.47708" lon="1.15114">
        <ele>86.1</ele>
        <time>2022-08-11T07:34:36Z</time>
      </trkpt>
      <trkpt lat="44.47701" lon="1.15117">
        <ele>86.3</ele>
        <time>2022-08-11T07:34:38Z</time>
      </trkpt>
      <trkpt lat="44.47693" lon="1.1512">
        <ele>86.5</ele>
        <time>2022-08-11T07:34:40Z</time>
      </trkpt>
      <trkpt lat="44.47685" lon="1.15124">
        <ele>86.7</ele>
        <time>2022-08-11T07:34:42Z</time>
      </trkpt>
      <trkpt lat="44.47677" lon="1.15128">
        <ele>87</ele>
        <time>2022-08-11T07:34:44Z</time>
      </trkpt>
      <trkpt lat="44.47669" lon="1.15133">
        <ele>87.3</ele>
        <time>2022-08-11T07:34:46Z</time>
      </trkpt>
      <trkpt lat="44.47661" lon="1.15137">
        <ele>87.5</ele>
        <time>2022-08-11T07:34:48Z</time>
      </trkpt>
      <trkpt lat="44.47653" lon="1.15141">
        <ele>87.7</ele>
        <time>2022-08-11T07:34:50Z</time>
      </trkpt>
      <trkpt lat="44.47645" lon="1.15146">
        <ele>87.9</ele>
        <time>2022-08-11T07:34:52Z</time>
      </trkpt>
      <trkpt lat="44.47638" lon="1.1515">
        <ele>88</ele>
        <time>2022-08-11T07:34:54Z</time>
      </trkpt>
      <trkpt lat="44.47629" lon="1.15153">
        <ele>88</ele>
        <time>2022-08-11T07:34:56Z</time>
      </trkpt>
      <trkpt lat="44.47621" lon="1.15157">
        <ele>88.1</ele>
        <time>2022-08-11T07:34:58Z</time>
      </trkpt>
      <trkpt lat="44.47613" lon="1.15159">
        <ele>88.1</ele>
        <time>2022-08-11T07:35:00Z</time>
      </trkpt>
      <trkpt lat="44.47606" lon="1.15161">
        <ele>88.1</ele>
        <time>2022-08-11T07:35:02Z</time>
      </trkpt>
      <trkpt lat="44.47599" lon="1.15164">
        <ele>88.1</ele>
        <time>2022-08-11T07:35:04Z</time>
      </trkpt>
      <trkpt lat="44.47592" lon="1.15167">
        <ele>88.1</ele>
        <time>2022-08-11T07:35:06Z</time>
      </trkpt>
      <trkpt lat="44.47585" lon="1.15169">
        <ele>88.1</ele>
        <time>2022-08-11T07:35:08Z</time>
      </trkpt>
      <trkpt lat="44.4758" lon="1.15172">
        <ele>88.4</ele>
        <time>2022-08-11T07:35:10Z</time>
      </trkpt>
      <trkpt lat="44.47573" lon="1.15174">
        <ele>88.6</ele>
        <time>2022-08-11T07:35:12Z</time>
      </trkpt>
      <trkpt lat="44.4757" lon="1.15178">
        <ele>88.9</ele>
        <time>2022-08-11T07:35:14Z</time>
      </trkpt>
      <trkpt lat="44.47566" lon="1.15179">
        <ele>89</ele>
        <time>2022-08-11T07:35:16Z</time>
      </trkpt>
      <trkpt lat="44.47561" lon="1.15184">
        <ele>89.4</ele>
        <time>2022-08-11T07:35:18Z</time>
      </trkpt>
      <trkpt lat="44.47556" lon="1.15187">
        <ele>89.7</ele>
        <time>2022-08-11T07:35:20Z</time>
      </trkpt>
      <trkpt lat="44.47548" lon="1.15186">
        <ele>89.8</ele>
        <time>2022-08-11T07:35:22Z</time>
      </trkpt>
      <trkpt lat="44.47542" lon="1.15189">
        <ele>90.1</ele>
        <time>2022-08-11T07:35:24Z</time>
      </trkpt>
      <trkpt lat="44.47537" lon="1.15193">
        <ele>90.5</ele>
        <time>2022-08-11T07:35:26Z</time>
      </trkpt>
      <trkpt lat="44.47533" lon="1.15198">
        <ele>90.9</ele>
        <time>2022-08-11T07:35:28Z</time>
      </trkpt>
      <trkpt lat="44.4753" lon="1.15201">
        <ele>91.3</ele>
        <time>2022-08-11T07:35:30Z</time>
      </trkpt>
      <trkpt lat="44.47525" lon="1.15204">
        <ele>91.6</ele>
        <time>2022-08-11T07:35:32Z</time>
      </trkpt>
      <trkpt lat="44.47522" lon="1.15208">
        <ele>91.9</ele>
        <time>2022-08-11T07:35:34Z</time>
      </trkpt>
      <trkpt lat="44.47519" lon="1.1521">
        <ele>92.2</ele>
        <time>2022-08-11T07:35:36Z</time>
      </trkpt>
      <trkpt lat="44.47515" lon="1.15214">
        <ele>92.6</ele>
        <time>2022-08-11T07:35:38Z</time>
      </trkpt>
      <trkpt lat="44.47513" lon="1.15216">
        <ele>92.8</ele>
        <time>2022-08-11T07:35:40Z</time>
      </trkpt>
      <trkpt lat="44.47511" lon="1.15218">
        <ele>93</ele>
        <time>2022-08-11T07:35:42Z</time>
      </trkpt>
      <trkpt lat="44.47511" lon="1.1522">
        <ele>93.2</ele>
        <time>2022-08-11T07:35:44Z</time>
      </trkpt>
      <trkpt lat="44.47513" lon="1.15217">
        <ele>92.8</ele>
        <time>2022-08-11T07:35:46Z</time>
      </trkpt>
      <trkpt lat="44.47513" lon="1.15218">
        <ele>92.9</ele>
        <time>2022-08-11T07:35:50Z</time>
      </trkpt>
      <trkpt lat="44.47507" lon="1.1523">
        <ele>94.1</ele>
        <time>2022-08-11T07:36:06Z</time>
      </trkpt>
      <trkpt lat="44.47506" lon="1.15234">
        <ele>94.5</ele>
        <time>2022-08-11T07:36:08Z</time>
      </trkpt>
      <trkpt lat="44.47506" lon="1.1524">
        <ele>95</ele>
        <time>2022-08-11T07:36:10Z</time>
      </trkpt>
      <trkpt lat="44.47505" lon="1.15244">
        <ele>95.3</ele>
        <time>2022-08-11T07:36:12Z</time>
      </trkpt>
      <trkpt lat="44.47505" lon="1.15249">
        <ele>95.7</ele>
        <time>2022-08-11T07:36:14Z</time>
      </trkpt>
      <trkpt lat="44.47505" lon="1.15252">
        <ele>96</ele>
        <time>2022-08-11T07:36:16Z</time>
      </trkpt>
      <trkpt lat="44.47504" lon="1.15258">
        <ele>96.6</ele>
        <time>2022-08-11T07:36:18Z</time>
      </trkpt>
      <trkpt lat="44.47503" lon="1.15261">
        <ele>96.9</ele>
        <time>2022-08-11T07:36:20Z</time>
      </trkpt>
      <trkpt lat="44.47503" lon="1.15266">
        <ele>97.3</ele>
        <time>2022-08-11T07:36:22Z</time>
      </trkpt>
      <trkpt lat="44.47503" lon="1.15269">
        <ele>97.5</ele>
        <time>2022-08-11T07:36:24Z</time>
      </trkpt>
      <trkpt lat="44.47506" lon="1.15271">
        <ele>97.6</ele>
        <time>2022-08-11T07:36:26Z</time>
      </trkpt>
      <trkpt lat="44.4751" lon="1.15272">
        <ele>97.5</ele>
        <time>2022-08-11T07:36:28Z</time>
      </trkpt>
      <trkpt lat="44.47514" lon="1.15272">
        <ele>97.5</ele>
        <time>2022-08-11T07:36:30Z</time>
      </trkpt>
      <trkpt lat="44.47517" lon="1.15275">
        <ele>97.6</ele>
        <time>2022-08-11T07:36:32Z</time>
      </trkpt>
      <trkpt lat="44.4752" lon="1.15276">
        <ele>97.7</ele>
        <time>2022-08-11T07:36:34Z</time>
      </trkpt>
      <trkpt lat="44.47523" lon="1.15275">
        <ele>97.6</ele>
        <time>2022-08-11T07:36:36Z</time>
      </trkpt>
      <trkpt lat="44.47526" lon="1.15276">
        <ele>97.6</ele>
        <time>2022-08-11T07:36:38Z</time>
      </trkpt>
      <trkpt lat="44.47528" lon="1.15277">
        <ele>97.6</ele>
        <time>2022-08-11T07:36:40Z</time>
      </trkpt>
      <trkpt lat="44.47532" lon="1.1528">
        <ele>97.8</ele>
        <time>2022-08-11T07:36:42Z</time>
      </trkpt>
      <trkpt lat="44.47534" lon="1.15282">
        <ele>97.9</ele>
        <time>2022-08-11T07:36:44Z</time>
      </trkpt>
      <trkpt lat="44.47537" lon="1.15282">
        <ele>97.9</ele>
        <time>2022-08-11T07:36:46Z</time>
      </trkpt>
      <trkpt lat="44.4754" lon="1.15285">
        <ele>98.1</ele>
        <time>2022-08-11T07:36:48Z</time>
      </trkpt>
      <trkpt lat="44.47542" lon="1.15289">
        <ele>98.4</ele>
        <time>2022-08-11T07:36:50Z</time>
      </trkpt>
      <trkpt lat="44.47546" lon="1.15292">
        <ele>98.7</ele>
        <time>2022-08-11T07:36:52Z</time>
      </trkpt>
      <trkpt lat="44.47548" lon="1.15295">
        <ele>99</ele>
        <time>2022-08-11T07:36:54Z</time>
      </trkpt>
      <trkpt lat="44.4755" lon="1.15299">
        <ele>99.3</ele>
        <time>2022-08-11T07:36:56Z</time>
      </trkpt>
      <trkpt lat="44.4755" lon="1.15303">
        <ele>99.7</ele>
        <time>2022-08-11T07:36:58Z</time>
      </trkpt>
      <trkpt lat="44.4755" lon="1.15308">
        <ele>100.4</ele>
        <time>2022-08-11T07:37:00Z</time>
      </trkpt>
      <trkpt lat="44.47548" lon="1.15311">
        <ele>100.7</ele>
        <time>2022-08-11T07:37:02Z</time>
      </trkpt>
      <trkpt lat="44.47545" lon="1.15316">
        <ele>101.2</ele>
        <time>2022-08-11T07:37:04Z</time>
      </trkpt>
      <trkpt lat="44.47543" lon="1.1532">
        <ele>101.6</ele>
        <time>2022-08-11T07:37:06Z</time>
      </trkpt>
      <trkpt lat="44.47542" lon="1.15324">
        <ele>102.1</ele>
        <time>2022-08-11T07:37:08Z</time>
      </trkpt>
      <trkpt lat="44.47543" lon="1.15328">
        <ele>102.5</ele>
        <time>2022-08-11T07:37:10Z</time>
      </trkpt>
      <trkpt lat="44.47543" lon="1.15333">
        <ele>103</ele>
        <time>2022-08-11T07:37:12Z</time>
      </trkpt>
      <trkpt lat="44.47545" lon="1.15337">
        <ele>103.4</ele>
        <time>2022-08-11T07:37:14Z</time>
      </trkpt>
      <trkpt lat="44.47547" lon="1.1534">
        <ele>103.7</ele>
        <time>2022-08-11T07:37:16Z</time>
      </trkpt>
      <trkpt lat="44.47549" lon="1.15343">
        <ele>104.1</ele>
        <time>2022-08-11T07:37:18Z</time>
      </trkpt>
      <trkpt lat="44.47551" lon="1.15346">
        <ele>104.4</ele>
        <time>2022-08-11T07:37:20Z</time>
      </trkpt>
      <trkpt lat="44.47553" lon="1.15348">
        <ele>104.7</ele>
        <time>2022-08-11T07:37:22Z</time>
      </trkpt>
      <trkpt lat="44.47556" lon="1.15351">
        <ele>104.9</ele>
        <time>2022-08-11T07:37:24Z</time>
      </trkpt>
      <trkpt lat="44.47558" lon="1.15353">
        <ele>105.2</ele>
        <time>2022-08-11T07:37:26Z</time>
      </trkpt>
      <trkpt lat="44.47559" lon="1.15355">
        <ele>105.4</ele>
        <time>2022-08-11T07:37:28Z</time>
      </trkpt>
      <trkpt lat="44.47562" lon="1.15355">
        <ele>105.5</ele>
        <time>2022-08-11T07:37:30Z</time>
      </trkpt>
      <trkpt lat="44.47565" lon="1.15356">
        <ele>105.6</ele>
        <time>2022-08-11T07:37:32Z</time>
      </trkpt>
      <trkpt lat="44.47567" lon="1.15357">
        <ele>105.7</ele>
        <time>2022-08-11T07:37:34Z</time>
      </trkpt>
      <trkpt lat="44.47571" lon="1.15358">
        <ele>105.9</ele>
        <time>2022-08-11T07:37:36Z</time>
      </trkpt>
      <trkpt lat="44.47574" lon="1.15359">
        <ele>106</ele>
        <time>2022-08-11T07:37:38Z</time>
      </trkpt>
      <trkpt lat="44.47577" lon="1.1536">
        <ele>106.2</ele>
        <time>2022-08-11T07:37:40Z</time>
      </trkpt>
      <trkpt lat="44.4758" lon="1.15362">
        <ele>106.4</ele>
        <time>2022-08-11T07:37:42Z</time>
      </trkpt>
      <trkpt lat="44.47582" lon="1.15365">
        <ele>106.8</ele>
        <time>2022-08-11T07:37:44Z</time>
      </trkpt>
      <trkpt lat="44.47584" lon="1.15369">
        <ele>107.3</ele>
        <time>2022-08-11T07:37:46Z</time>
      </trkpt>
      <trkpt lat="44.47585" lon="1.15372">
        <ele>107.5</ele>
        <time>2022-08-11T07:37:48Z</time>
      </trkpt>
      <trkpt lat="44.47587" lon="1.15375">
        <ele>107.6</ele>
        <time>2022-08-11T07:37:50Z</time>
      </trkpt>
      <trkpt lat="44.47589" lon="1.15379">
        <ele>107.8</ele>
        <time>2022-08-11T07:37:52Z</time>
      </trkpt>
      <trkpt lat="44.4759" lon="1.15383">
        <ele>108.2</ele>
        <time>2022-08-11T07:37:54Z</time>
      </trkpt>
      <trkpt lat="44.47591" lon="1.15386">
        <ele>108.4</ele>
        <time>2022-08-11T07:37:56Z</time>
      </trkpt>
      <trkpt lat="44.47593" lon="1.1539">
        <ele>108.7</ele>
        <time>2022-08-11T07:37:58Z</time>
      </trkpt>
      <trkpt lat="44.47594" lon="1.15394">
        <ele>109</ele>
        <time>2022-08-11T07:38:00Z</time>
      </trkpt>
      <trkpt lat="44.47596" lon="1.15398">
        <ele>109.2</ele>
        <time>2022-08-11T07:38:02Z</time>
      </trkpt>
      <trkpt lat="44.47598" lon="1.15401">
        <ele>109.3</ele>
        <time>2022-08-11T07:38:04Z</time>
      </trkpt>
      <trkpt lat="44.476" lon="1.15404">
        <ele>109.3</ele>
        <time>2022-08-11T07:38:06Z</time>
      </trkpt>
      <trkpt lat="44.47602" lon="1.15407">
        <ele>109.4</ele>
        <time>2022-08-11T07:38:08Z</time>
      </trkpt>
      <trkpt lat="44.47605" lon="1.15412">
        <ele>109.7</ele>
        <time>2022-08-11T07:38:10Z</time>
      </trkpt>
      <trkpt lat="44.47606" lon="1.15415">
        <ele>109.8</ele>
        <time>2022-08-11T07:38:12Z</time>
      </trkpt>
      <trkpt lat="44.47608" lon="1.15419">
        <ele>110.1</ele>
        <time>2022-08-11T07:38:14Z</time>
      </trkpt>
      <trkpt lat="44.47611" lon="1.15423">
        <ele>110.3</ele>
        <time>2022-08-11T07:38:16Z</time>
      </trkpt>
      <trkpt lat="44.47612" lon="1.15427">
        <ele>110.5</ele>
        <time>2022-08-11T07:38:18Z</time>
      </trkpt>
      <trkpt lat="44.47615" lon="1.15431">
        <ele>110.6</ele>
        <time>2022-08-11T07:38:20Z</time>
      </trkpt>
      <trkpt lat="44.47616" lon="1.15434">
        <ele>110.9</ele>
        <time>2022-08-11T07:38:22Z</time>
      </trkpt>
      <trkpt lat="44.47618" lon="1.15439">
        <ele>111.2</ele>
        <time>2022-08-11T07:38:24Z</time>
      </trkpt>
      <trkpt lat="44.4762" lon="1.15443">
        <ele>111.6</ele>
        <time>2022-08-11T07:38:26Z</time>
      </trkpt>
      <trkpt lat="44.4762" lon="1.15447">
        <ele>112</ele>
        <time>2022-08-11T07:38:28Z</time>
      </trkpt>
      <trkpt lat="44.47622" lon="1.15452">
        <ele>112.4</ele>
        <time>2022-08-11T07:38:30Z</time>
      </trkpt>
      <trkpt lat="44.47624" lon="1.15456">
        <ele>112.6</ele>
        <time>2022-08-11T07:38:32Z</time>
      </trkpt>
      <trkpt lat="44.47624" lon="1.1546">
        <ele>113.1</ele>
        <time>2022-08-11T07:38:34Z</time>
      </trkpt>
      <trkpt lat="44.47624" lon="1.15465">
        <ele>113.7</ele>
        <time>2022-08-11T07:38:36Z</time>
      </trkpt>
      <trkpt lat="44.47625" lon="1.15469">
        <ele>114.1</ele>
        <time>2022-08-11T07:38:38Z</time>
      </trkpt>
      <trkpt lat="44.47626" lon="1.15474">
        <ele>114.5</ele>
        <time>2022-08-11T07:38:40Z</time>
      </trkpt>
      <trkpt lat="44.47627" lon="1.15478">
        <ele>114.9</ele>
        <time>2022-08-11T07:38:42Z</time>
      </trkpt>
      <trkpt lat="44.47628" lon="1.15481">
        <ele>115.2</ele>
        <time>2022-08-11T07:38:44Z</time>
      </trkpt>
      <trkpt lat="44.47629" lon="1.15485">
        <ele>115.5</ele>
        <time>2022-08-11T07:38:46Z</time>
      </trkpt>
      <trkpt lat="44.47631" lon="1.15488">
        <ele>115.7</ele>
        <time>2022-08-11T07:38:48Z</time>
      </trkpt>
      <trkpt lat="44.47631" lon="1.15493">
        <ele>116.2</ele>
        <time>2022-08-11T07:38:50Z</time>
      </trkpt>
      <trkpt lat="44.47632" lon="1.15497">
        <ele>116.6</ele>
        <time>2022-08-11T07:38:52Z</time>
      </trkpt>
      <trkpt lat="44.47633" lon="1.15501">
        <ele>117.1</ele>
        <time>2022-08-11T07:38:54Z</time>
      </trkpt>
      <trkpt lat="44.47634" lon="1.15505">
        <ele>117.6</ele>
        <time>2022-08-11T07:38:56Z</time>
      </trkpt>
      <trkpt lat="44.47635" lon="1.15509">
        <ele>118.5</ele>
        <time>2022-08-11T07:38:58Z</time>
      </trkpt>
      <trkpt lat="44.47634" lon="1.15514">
        <ele>119.3</ele>
        <time>2022-08-11T07:39:00Z</time>
      </trkpt>
      <trkpt lat="44.47634" lon="1.15514">
        <ele>119.4</ele>
        <time>2022-08-11T07:39:02Z</time>
      </trkpt>
      <trkpt lat="44.47636" lon="1.1552">
        <ele>120.4</ele>
        <time>2022-08-11T07:39:04Z</time>
      </trkpt>
      <trkpt lat="44.47636" lon="1.15525">
        <ele>121.2</ele>
        <time>2022-08-11T07:39:06Z</time>
      </trkpt>
      <trkpt lat="44.47635" lon="1.15529">
        <ele>122.2</ele>
        <time>2022-08-11T07:39:08Z</time>
      </trkpt>
      <trkpt lat="44.47635" lon="1.15534">
        <ele>123.2</ele>
        <time>2022-08-11T07:39:10Z</time>
      </trkpt>
      <trkpt lat="44.47635" lon="1.15538">
        <ele>124</ele>
        <time>2022-08-11T07:39:12Z</time>
      </trkpt>
      <trkpt lat="44.47635" lon="1.15542">
        <ele>124.8</ele>
        <time>2022-08-11T07:39:14Z</time>
      </trkpt>
      <trkpt lat="44.47635" lon="1.15546">
        <ele>125.5</ele>
        <time>2022-08-11T07:39:16Z</time>
      </trkpt>
      <trkpt lat="44.47635" lon="1.1555">
        <ele>126.2</ele>
        <time>2022-08-11T07:39:18Z</time>
      </trkpt>
      <trkpt lat="44.47636" lon="1.15554">
        <ele>126.9</ele>
        <time>2022-08-11T07:39:20Z</time>
      </trkpt>
      <trkpt lat="44.47638" lon="1.15557">
        <ele>127.3</ele>
        <time>2022-08-11T07:39:22Z</time>
      </trkpt>
      <trkpt lat="44.47639" lon="1.1556">
        <ele>127.8</ele>
        <time>2022-08-11T07:39:24Z</time>
      </trkpt>
      <trkpt lat="44.47642" lon="1.15565">
        <ele>128.3</ele>
        <time>2022-08-11T07:39:26Z</time>
      </trkpt>
      <trkpt lat="44.47644" lon="1.15568">
        <ele>128.6</ele>
        <time>2022-08-11T07:39:28Z</time>
      </trkpt>
      <trkpt lat="44.47646" lon="1.15571">
        <ele>129.1</ele>
        <time>2022-08-11T07:39:30Z</time>
      </trkpt>
      <trkpt lat="44.47648" lon="1.15574">
        <ele>129.4</ele>
        <time>2022-08-11T07:39:32Z</time>
      </trkpt>
      <trkpt lat="44.4765" lon="1.15577">
        <ele>129.7</ele>
        <time>2022-08-11T07:39:34Z</time>
      </trkpt>
      <trkpt lat="44.47652" lon="1.1558">
        <ele>130.2</ele>
        <time>2022-08-11T07:39:36Z</time>
      </trkpt>
      <trkpt lat="44.47654" lon="1.15584">
        <ele>130.6</ele>
        <time>2022-08-11T07:39:38Z</time>
      </trkpt>
      <trkpt lat="44.47655" lon="1.15588">
        <ele>131.1</ele>
        <time>2022-08-11T07:39:40Z</time>
      </trkpt>
      <trkpt lat="44.47657" lon="1.15591">
        <ele>131.4</ele>
        <time>2022-08-11T07:39:42Z</time>
      </trkpt>
      <trkpt lat="44.47659" lon="1.15595">
        <ele>131.8</ele>
        <time>2022-08-11T07:39:44Z</time>
      </trkpt>
      <trkpt lat="44.47661" lon="1.15599">
        <ele>132.3</ele>
        <time>2022-08-11T07:39:46Z</time>
      </trkpt>
      <trkpt lat="44.47664" lon="1.15604">
        <ele>132.7</ele>
        <time>2022-08-11T07:39:48Z</time>
      </trkpt>
      <trkpt lat="44.47666" lon="1.15609">
        <ele>133.3</ele>
        <time>2022-08-11T07:39:50Z</time>
      </trkpt>
      <trkpt lat="44.4767" lon="1.15614">
        <ele>133.5</ele>
        <time>2022-08-11T07:39:52Z</time>
      </trkpt>
      <trkpt lat="44.47673" lon="1.15619">
        <ele>133.8</ele>
        <time>2022-08-11T07:39:54Z</time>
      </trkpt>
      <trkpt lat="44.47676" lon="1.15621">
        <ele>133.5</ele>
        <time>2022-08-11T07:39:56Z</time>
      </trkpt>
      <trkpt lat="44.47678" lon="1.15623">
        <ele>133.4</ele>
        <time>2022-08-11T07:39:58Z</time>
      </trkpt>
      <trkpt lat="44.47681" lon="1.15625">
        <ele>133.4</ele>
        <time>2022-08-11T07:40:00Z</time>
      </trkpt>
      <trkpt lat="44.47685" lon="1.15628">
        <ele>133.1</ele>
        <time>2022-08-11T07:40:02Z</time>
      </trkpt>
      <trkpt lat="44.47688" lon="1.15631">
        <ele>133.1</ele>
        <time>2022-08-11T07:40:04Z</time>
      </trkpt>
      <trkpt lat="44.47691" lon="1.15633">
        <ele>132.8</ele>
        <time>2022-08-11T07:40:06Z</time>
      </trkpt>
      <trkpt lat="44.47694" lon="1.15635">
        <ele>132.7</ele>
        <time>2022-08-11T07:40:08Z</time>
      </trkpt>
      <trkpt lat="44.47697" lon="1.15637">
        <ele>132.6</ele>
        <time>2022-08-11T07:40:10Z</time>
      </trkpt>
      <trkpt lat="44.47701" lon="1.15638">
        <ele>132.3</ele>
        <time>2022-08-11T07:40:12Z</time>
      </trkpt>
      <trkpt lat="44.47704" lon="1.15641">
        <ele>132.1</ele>
        <time>2022-08-11T07:40:14Z</time>
      </trkpt>
      <trkpt lat="44.47707" lon="1.15644">
        <ele>132.3</ele>
        <time>2022-08-11T07:40:16Z</time>
      </trkpt>
      <trkpt lat="44.47709" lon="1.15647">
        <ele>132.4</ele>
        <time>2022-08-11T07:40:18Z</time>
      </trkpt>
      <trkpt lat="44.47711" lon="1.1565">
        <ele>132.8</ele>
        <time>2022-08-11T07:40:20Z</time>
      </trkpt>
      <trkpt lat="44.47713" lon="1.15654">
        <ele>133.1</ele>
        <time>2022-08-11T07:40:22Z</time>
      </trkpt>
      <trkpt lat="44.47716" lon="1.15657">
        <ele>133.4</ele>
        <time>2022-08-11T07:40:24Z</time>
      </trkpt>
      <trkpt lat="44.47718" lon="1.15662">
        <ele>133.9</ele>
        <time>2022-08-11T07:40:26Z</time>
      </trkpt>
      <trkpt lat="44.47719" lon="1.15666">
        <ele>134.5</ele>
        <time>2022-08-11T07:40:28Z</time>
      </trkpt>
      <trkpt lat="44.47721" lon="1.15669">
        <ele>134.9</ele>
        <time>2022-08-11T07:40:30Z</time>
      </trkpt>
      <trkpt lat="44.47723" lon="1.15673">
        <ele>135.3</ele>
        <time>2022-08-11T07:40:32Z</time>
      </trkpt>
      <trkpt lat="44.47725" lon="1.15677">
        <ele>135.7</ele>
        <time>2022-08-11T07:40:34Z</time>
      </trkpt>
      <trkpt lat="44.47727" lon="1.15681">
        <ele>136.1</ele>
        <time>2022-08-11T07:40:36Z</time>
      </trkpt>
      <trkpt lat="44.4773" lon="1.15684">
        <ele>136.3</ele>
        <time>2022-08-11T07:40:38Z</time>
      </trkpt>
      <trkpt lat="44.47732" lon="1.15688">
        <ele>136.6</ele>
        <time>2022-08-11T07:40:40Z</time>
      </trkpt>
      <trkpt lat="44.47734" lon="1.1569">
        <ele>136.7</ele>
        <time>2022-08-11T07:40:42Z</time>
      </trkpt>
      <trkpt lat="44.47737" lon="1.15693">
        <ele>136.7</ele>
        <time>2022-08-11T07:40:44Z</time>
      </trkpt>
      <trkpt lat="44.47738" lon="1.15697">
        <ele>137.3</ele>
        <time>2022-08-11T07:40:46Z</time>
      </trkpt>
      <trkpt lat="44.47741" lon="1.15701">
        <ele>137.5</ele>
        <time>2022-08-11T07:40:48Z</time>
      </trkpt>
      <trkpt lat="44.47743" lon="1.15704">
        <ele>137.7</ele>
        <time>2022-08-11T07:40:50Z</time>
      </trkpt>
      <trkpt lat="44.47745" lon="1.15708">
        <ele>138.3</ele>
        <time>2022-08-11T07:40:52Z</time>
      </trkpt>
      <trkpt lat="44.47747" lon="1.15712">
        <ele>138.6</ele>
        <time>2022-08-11T07:40:54Z</time>
      </trkpt>
      <trkpt lat="44.47748" lon="1.15716">
        <ele>139.1</ele>
        <time>2022-08-11T07:40:56Z</time>
      </trkpt>
      <trkpt lat="44.47749" lon="1.15721">
        <ele>140</ele>
        <time>2022-08-11T07:40:58Z</time>
      </trkpt>
      <trkpt lat="44.47749" lon="1.15726">
        <ele>140.9</ele>
        <time>2022-08-11T07:41:00Z</time>
      </trkpt>
      <trkpt lat="44.47748" lon="1.1573">
        <ele>141.7</ele>
        <time>2022-08-11T07:41:02Z</time>
      </trkpt>
      <trkpt lat="44.47748" lon="1.15734">
        <ele>142.4</ele>
        <time>2022-08-11T07:41:04Z</time>
      </trkpt>
      <trkpt lat="44.47748" lon="1.15738">
        <ele>143.1</ele>
        <time>2022-08-11T07:41:06Z</time>
      </trkpt>
      <trkpt lat="44.47748" lon="1.15742">
        <ele>144</ele>
        <time>2022-08-11T07:41:08Z</time>
      </trkpt>
      <trkpt lat="44.47747" lon="1.15746">
        <ele>144.7</ele>
        <time>2022-08-11T07:41:10Z</time>
      </trkpt>
      <trkpt lat="44.47748" lon="1.1575">
        <ele>145.3</ele>
        <time>2022-08-11T07:41:12Z</time>
      </trkpt>
      <trkpt lat="44.47745" lon="1.15752">
        <ele>145.7</ele>
        <time>2022-08-11T07:41:14Z</time>
      </trkpt>
      <trkpt lat="44.47742" lon="1.15751">
        <ele>146.2</ele>
        <time>2022-08-11T07:41:16Z</time>
      </trkpt>
      <trkpt lat="44.4774" lon="1.15748">
        <ele>146.2</ele>
        <time>2022-08-11T07:41:18Z</time>
      </trkpt>
      <trkpt lat="44.4774" lon="1.15748">
        <ele>146.1</ele>
        <time>2022-08-11T07:41:20Z</time>
      </trkpt>
      <trkpt lat="44.4774" lon="1.15748">
        <ele>146.1</ele>
        <time>2022-08-11T07:41:22Z</time>
      </trkpt>
      <trkpt lat="44.4774" lon="1.15748">
        <ele>146.2</ele>
        <time>2022-08-11T07:41:24Z</time>
      </trkpt>
      <trkpt lat="44.4774" lon="1.15748">
        <ele>146.1</ele>
        <time>2022-08-11T07:41:26Z</time>
      </trkpt>
      <trkpt lat="44.47737" lon="1.15731">
        <ele>143.5</ele>
        <time>2022-08-11T07:41:36Z</time>
      </trkpt>
      <trkpt lat="44.47739" lon="1.15724">
        <ele>142</ele>
        <time>2022-08-11T07:41:38Z</time>
      </trkpt>
      <trkpt lat="44.47736" lon="1.15718">
        <ele>141.2</ele>
        <time>2022-08-11T07:41:40Z</time>
      </trkpt>
      <trkpt lat="44.47733" lon="1.15716">
        <ele>141.5</ele>
        <time>2022-08-11T07:41:42Z</time>
      </trkpt>
      <trkpt lat="44.4773" lon="1.15717">
        <ele>142.1</ele>
        <time>2022-08-11T07:41:44Z</time>
      </trkpt>
      <trkpt lat="44.47727" lon="1.15716">
        <ele>142.4</ele>
        <time>2022-08-11T07:41:46Z</time>
      </trkpt>
      <trkpt lat="44.47724" lon="1.15715">
        <ele>142.5</ele>
        <time>2022-08-11T07:41:48Z</time>
      </trkpt>
      <trkpt lat="44.47722" lon="1.15714">
        <ele>142.7</ele>
        <time>2022-08-11T07:41:50Z</time>
      </trkpt>
      <trkpt lat="44.47721" lon="1.15711">
        <ele>142.4</ele>
        <time>2022-08-11T07:41:52Z</time>
      </trkpt>
      <trkpt lat="44.47719" lon="1.15708">
        <ele>142.1</ele>
        <time>2022-08-11T07:41:54Z</time>
      </trkpt>
      <trkpt lat="44.47717" lon="1.15708">
        <ele>142.4</ele>
        <time>2022-08-11T07:41:56Z</time>
      </trkpt>
      <trkpt lat="44.47718" lon="1.15709">
        <ele>142.5</ele>
        <time>2022-08-11T07:41:58Z</time>
      </trkpt>
      <trkpt lat="44.47718" lon="1.15709">
        <ele>142.4</ele>
        <time>2022-08-11T07:42:00Z</time>
      </trkpt>
      <trkpt lat="44.47718" lon="1.15709">
        <ele>142.5</ele>
        <time>2022-08-11T07:42:02Z</time>
      </trkpt>
      <trkpt lat="44.47723" lon="1.15719">
        <ele>143.4</ele>
        <time>2022-08-11T08:01:20Z</time>
      </trkpt>
      <trkpt lat="44.47727" lon="1.15722">
        <ele>143.5</ele>
        <time>2022-08-11T08:01:22Z</time>
      </trkpt>
      <trkpt lat="44.47728" lon="1.15727">
        <ele>144.1</ele>
        <time>2022-08-11T08:01:24Z</time>
      </trkpt>
      <trkpt lat="44.47732" lon="1.15732">
        <ele>144.4</ele>
        <time>2022-08-11T08:01:26Z</time>
      </trkpt>
      <trkpt lat="44.47735" lon="1.15735">
        <ele>144.4</ele>
        <time>2022-08-11T08:01:28Z</time>
      </trkpt>
      <trkpt lat="44.47737" lon="1.15739">
        <ele>144.8</ele>
        <time>2022-08-11T08:01:30Z</time>
      </trkpt>
      <trkpt lat="44.47739" lon="1.15743">
        <ele>145.3</ele>
        <time>2022-08-11T08:01:32Z</time>
      </trkpt>
      <trkpt lat="44.47741" lon="1.15749">
        <ele>146</ele>
        <time>2022-08-11T08:01:34Z</time>
      </trkpt>
      <trkpt lat="44.47743" lon="1.15754">
        <ele>146</ele>
        <time>2022-08-11T08:01:36Z</time>
      </trkpt>
      <trkpt lat="44.47745" lon="1.15755">
        <ele>145.6</ele>
        <time>2022-08-11T08:01:38Z</time>
      </trkpt>
      <trkpt lat="44.47748" lon="1.15751">
        <ele>145.2</ele>
        <time>2022-08-11T08:01:40Z</time>
      </trkpt>
      <trkpt lat="44.47748" lon="1.15742">
        <ele>143.9</ele>
        <time>2022-08-11T08:01:42Z</time>
      </trkpt>
      <trkpt lat="44.47748" lon="1.15733">
        <ele>142.2</ele>
        <time>2022-08-11T08:01:44Z</time>
      </trkpt>
      <trkpt lat="44.47749" lon="1.15718">
        <ele>139.5</ele>
        <time>2022-08-11T08:01:46Z</time>
      </trkpt>
      <trkpt lat="44.47747" lon="1.15706">
        <ele>137.6</ele>
        <time>2022-08-11T08:01:48Z</time>
      </trkpt>
      <trkpt lat="44.47738" lon="1.15697">
        <ele>137.4</ele>
        <time>2022-08-11T08:01:50Z</time>
      </trkpt>
      <trkpt lat="44.47729" lon="1.15686">
        <ele>136.6</ele>
        <time>2022-08-11T08:01:52Z</time>
      </trkpt>
      <trkpt lat="44.47723" lon="1.15675">
        <ele>135.8</ele>
        <time>2022-08-11T08:01:54Z</time>
      </trkpt>
      <trkpt lat="44.47717" lon="1.15661">
        <ele>134</ele>
        <time>2022-08-11T08:01:56Z</time>
      </trkpt>
      <trkpt lat="44.4771" lon="1.15646">
        <ele>132.1</ele>
        <time>2022-08-11T08:01:58Z</time>
      </trkpt>
      <trkpt lat="44.477" lon="1.15638">
        <ele>132.3</ele>
        <time>2022-08-11T08:02:00Z</time>
      </trkpt>
      <trkpt lat="44.47686" lon="1.15629">
        <ele>133.2</ele>
        <time>2022-08-11T08:02:02Z</time>
      </trkpt>
      <trkpt lat="44.47673" lon="1.15619">
        <ele>133.7</ele>
        <time>2022-08-11T08:02:04Z</time>
      </trkpt>
      <trkpt lat="44.47662" lon="1.15606">
        <ele>133.3</ele>
        <time>2022-08-11T08:02:06Z</time>
      </trkpt>
      <trkpt lat="44.47655" lon="1.1559">
        <ele>131.5</ele>
        <time>2022-08-11T08:02:08Z</time>
      </trkpt>
      <trkpt lat="44.47647" lon="1.15576">
        <ele>129.8</ele>
        <time>2022-08-11T08:02:10Z</time>
      </trkpt>
      <trkpt lat="44.47638" lon="1.15561">
        <ele>128.2</ele>
        <time>2022-08-11T08:02:12Z</time>
      </trkpt>
      <trkpt lat="44.47633" lon="1.15549">
        <ele>126.4</ele>
        <time>2022-08-11T08:02:14Z</time>
      </trkpt>
      <trkpt lat="44.47635" lon="1.1553">
        <ele>122.4</ele>
        <time>2022-08-11T08:02:16Z</time>
      </trkpt>
      <trkpt lat="44.47635" lon="1.15513">
        <ele>119.2</ele>
        <time>2022-08-11T08:02:18Z</time>
      </trkpt>
      <trkpt lat="44.47631" lon="1.15497">
        <ele>116.8</ele>
        <time>2022-08-11T08:02:20Z</time>
      </trkpt>
      <trkpt lat="44.47626" lon="1.1548">
        <ele>115.3</ele>
        <time>2022-08-11T08:02:22Z</time>
      </trkpt>
      <trkpt lat="44.47622" lon="1.15461">
        <ele>113.5</ele>
        <time>2022-08-11T08:02:24Z</time>
      </trkpt>
      <trkpt lat="44.47618" lon="1.15444">
        <ele>111.9</ele>
        <time>2022-08-11T08:02:26Z</time>
      </trkpt>
      <trkpt lat="44.47612" lon="1.15429">
        <ele>110.8</ele>
        <time>2022-08-11T08:02:28Z</time>
      </trkpt>
      <trkpt lat="44.47604" lon="1.15414">
        <ele>110</ele>
        <time>2022-08-11T08:02:30Z</time>
      </trkpt>
      <trkpt lat="44.47595" lon="1.15398">
        <ele>109.3</ele>
        <time>2022-08-11T08:02:32Z</time>
      </trkpt>
      <trkpt lat="44.47589" lon="1.15384">
        <ele>108.3</ele>
        <time>2022-08-11T08:02:34Z</time>
      </trkpt>
      <trkpt lat="44.47584" lon="1.15368">
        <ele>107.1</ele>
        <time>2022-08-11T08:02:36Z</time>
      </trkpt>
      <trkpt lat="44.47577" lon="1.15356">
        <ele>105.6</ele>
        <time>2022-08-11T08:02:38Z</time>
      </trkpt>
      <trkpt lat="44.47564" lon="1.15354">
        <ele>105.4</ele>
        <time>2022-08-11T08:02:40Z</time>
      </trkpt>
      <trkpt lat="44.47554" lon="1.1535">
        <ele>104.9</ele>
        <time>2022-08-11T08:02:42Z</time>
      </trkpt>
      <trkpt lat="44.47546" lon="1.1534">
        <ele>103.7</ele>
        <time>2022-08-11T08:02:44Z</time>
      </trkpt>
      <trkpt lat="44.47541" lon="1.15329">
        <ele>102.6</ele>
        <time>2022-08-11T08:02:46Z</time>
      </trkpt>
      <trkpt lat="44.47545" lon="1.15321">
        <ele>101.7</ele>
        <time>2022-08-11T08:02:48Z</time>
      </trkpt>
      <trkpt lat="44.47549" lon="1.15315">
        <ele>101.1</ele>
        <time>2022-08-11T08:02:50Z</time>
      </trkpt>
      <trkpt lat="44.47553" lon="1.15307">
        <ele>100.2</ele>
        <time>2022-08-11T08:02:52Z</time>
      </trkpt>
      <trkpt lat="44.47554" lon="1.15303">
        <ele>99.7</ele>
        <time>2022-08-11T08:02:54Z</time>
      </trkpt>
      <trkpt lat="44.47554" lon="1.15304">
        <ele>99.9</ele>
        <time>2022-08-11T08:02:56Z</time>
      </trkpt>
      <trkpt lat="44.47554" lon="1.15304">
        <ele>99.9</ele>
        <time>2022-08-11T08:02:58Z</time>
      </trkpt>
      <trkpt lat="44.47554" lon="1.15303">
        <ele>99.8</ele>
        <time>2022-08-11T08:03:00Z</time>
      </trkpt>
      <trkpt lat="44.47554" lon="1.15303">
        <ele>99.8</ele>
        <time>2022-08-11T08:03:02Z</time>
      </trkpt>
      <trkpt lat="44.47554" lon="1.15302">
        <ele>99.6</ele>
        <time>2022-08-11T08:03:04Z</time>
      </trkpt>
      <trkpt lat="44.47538" lon="1.15283">
        <ele>97.9</ele>
        <time>2022-08-11T08:03:18Z</time>
      </trkpt>
      <trkpt lat="44.4753" lon="1.1528">
        <ele>97.8</ele>
        <time>2022-08-11T08:03:20Z</time>
      </trkpt>
      <trkpt lat="44.47521" lon="1.15277">
        <ele>97.7</ele>
        <time>2022-08-11T08:03:22Z</time>
      </trkpt>
      <trkpt lat="44.47513" lon="1.15277">
        <ele>97.9</ele>
        <time>2022-08-11T08:03:24Z</time>
      </trkpt>
      <trkpt lat="44.47505" lon="1.15272">
        <ele>97.7</ele>
        <time>2022-08-11T08:03:26Z</time>
      </trkpt>
      <trkpt lat="44.47499" lon="1.15269">
        <ele>97.5</ele>
        <time>2022-08-11T08:03:28Z</time>
      </trkpt>
      <trkpt lat="44.47502" lon="1.15256">
        <ele>96.5</ele>
        <time>2022-08-11T08:03:30Z</time>
      </trkpt>
      <trkpt lat="44.47503" lon="1.15245">
        <ele>95.5</ele>
        <time>2022-08-11T08:03:32Z</time>
      </trkpt>
      <trkpt lat="44.47503" lon="1.15233">
        <ele>94.5</ele>
        <time>2022-08-11T08:03:34Z</time>
      </trkpt>
      <trkpt lat="44.47506" lon="1.15226">
        <ele>93.8</ele>
        <time>2022-08-11T08:03:36Z</time>
      </trkpt>
      <trkpt lat="44.47507" lon="1.15221">
        <ele>93.4</ele>
        <time>2022-08-11T08:03:38Z</time>
      </trkpt>
      <trkpt lat="44.47507" lon="1.15219">
        <ele>93.2</ele>
        <time>2022-08-11T08:03:40Z</time>
      </trkpt>
      <trkpt lat="44.47508" lon="1.15215">
        <ele>92.8</ele>
        <time>2022-08-11T08:03:42Z</time>
      </trkpt>
      <trkpt lat="44.47512" lon="1.15212">
        <ele>92.5</ele>
        <time>2022-08-11T08:03:44Z</time>
      </trkpt>
      <trkpt lat="44.47516" lon="1.15208">
        <ele>92.1</ele>
        <time>2022-08-11T08:03:46Z</time>
      </trkpt>
      <trkpt lat="44.47521" lon="1.15204">
        <ele>91.6</ele>
        <time>2022-08-11T08:03:48Z</time>
      </trkpt>
      <trkpt lat="44.47528" lon="1.15198">
        <ele>91.1</ele>
        <time>2022-08-11T08:03:50Z</time>
      </trkpt>
      <trkpt lat="44.47534" lon="1.15195">
        <ele>90.7</ele>
        <time>2022-08-11T08:03:52Z</time>
      </trkpt>
      <trkpt lat="44.47541" lon="1.15191">
        <ele>90.2</ele>
        <time>2022-08-11T08:03:54Z</time>
      </trkpt>
      <trkpt lat="44.47546" lon="1.15187">
        <ele>89.9</ele>
        <time>2022-08-11T08:03:56Z</time>
      </trkpt>
      <trkpt lat="44.47549" lon="1.15181">
        <ele>89.4</ele>
        <time>2022-08-11T08:03:58Z</time>
      </trkpt>
      <trkpt lat="44.47552" lon="1.15175">
        <ele>89</ele>
        <time>2022-08-11T08:04:00Z</time>
      </trkpt>
      <trkpt lat="44.47555" lon="1.1517">
        <ele>88.6</ele>
        <time>2022-08-11T08:04:02Z</time>
      </trkpt>
      <trkpt lat="44.4756" lon="1.15162">
        <ele>88.2</ele>
        <time>2022-08-11T08:04:04Z</time>
      </trkpt>
      <trkpt lat="44.47566" lon="1.15153">
        <ele>87.9</ele>
        <time>2022-08-11T08:04:06Z</time>
      </trkpt>
      <trkpt lat="44.47572" lon="1.15146">
        <ele>87.6</ele>
        <time>2022-08-11T08:04:08Z</time>
      </trkpt>
      <trkpt lat="44.47577" lon="1.15136">
        <ele>87.3</ele>
        <time>2022-08-11T08:04:10Z</time>
      </trkpt>
      <trkpt lat="44.47582" lon="1.15128">
        <ele>87.1</ele>
        <time>2022-08-11T08:04:12Z</time>
      </trkpt>
      <trkpt lat="44.47588" lon="1.15118">
        <ele>86.8</ele>
        <time>2022-08-11T08:04:14Z</time>
      </trkpt>
      <trkpt lat="44.47594" lon="1.1511">
        <ele>86.6</ele>
        <time>2022-08-11T08:04:16Z</time>
      </trkpt>
      <trkpt lat="44.476" lon="1.151">
        <ele>86.3</ele>
        <time>2022-08-11T08:04:18Z</time>
      </trkpt>
      <trkpt lat="44.47605" lon="1.15091">
        <ele>86</ele>
        <time>2022-08-11T08:04:20Z</time>
      </trkpt>
      <trkpt lat="44.47611" lon="1.15081">
        <ele>85.7</ele>
        <time>2022-08-11T08:04:22Z</time>
      </trkpt>
      <trkpt lat="44.47617" lon="1.15072">
        <ele>85.7</ele>
        <time>2022-08-11T08:04:24Z</time>
      </trkpt>
      <trkpt lat="44.47623" lon="1.15062">
        <ele>85.8</ele>
        <time>2022-08-11T08:04:26Z</time>
      </trkpt>
      <trkpt lat="44.47629" lon="1.15052">
        <ele>85.8</ele>
        <time>2022-08-11T08:04:28Z</time>
      </trkpt>
      <trkpt lat="44.47636" lon="1.15043">
        <ele>85.9</ele>
        <time>2022-08-11T08:04:30Z</time>
      </trkpt>
      <trkpt lat="44.47642" lon="1.15034">
        <ele>85.9</ele>
        <time>2022-08-11T08:04:32Z</time>
      </trkpt>
      <trkpt lat="44.47647" lon="1.15024">
        <ele>85.9</ele>
        <time>2022-08-11T08:04:34Z</time>
      </trkpt>
      <trkpt lat="44.47653" lon="1.15016">
        <ele>86</ele>
        <time>2022-08-11T08:04:36Z</time>
      </trkpt>
      <trkpt lat="44.47658" lon="1.15007">
        <ele>86</ele>
        <time>2022-08-11T08:04:38Z</time>
      </trkpt>
      <trkpt lat="44.47664" lon="1.14999">
        <ele>86</ele>
        <time>2022-08-11T08:04:40Z</time>
      </trkpt>
      <trkpt lat="44.4767" lon="1.1499">
        <ele>86</ele>
        <time>2022-08-11T08:04:42Z</time>
      </trkpt>
      <trkpt lat="44.47676" lon="1.14982">
        <ele>85.9</ele>
        <time>2022-08-11T08:04:44Z</time>
      </trkpt>
      <trkpt lat="44.47682" lon="1.14974">
        <ele>85.9</ele>
        <time>2022-08-11T08:04:46Z</time>
      </trkpt>
      <trkpt lat="44.47687" lon="1.14965">
        <ele>85.9</ele>
        <time>2022-08-11T08:04:48Z</time>
      </trkpt>
      <trkpt lat="44.47693" lon="1.14956">
        <ele>85.9</ele>
        <time>2022-08-11T08:04:50Z</time>
      </trkpt>
      <trkpt lat="44.47699" lon="1.14946">
        <ele>85.9</ele>
        <time>2022-08-11T08:04:52Z</time>
      </trkpt>
      <trkpt lat="44.47703" lon="1.14937">
        <ele>85.9</ele>
        <time>2022-08-11T08:04:54Z</time>
      </trkpt>
      <trkpt lat="44.47707" lon="1.14925">
        <ele>85.9</ele>
        <time>2022-08-11T08:04:56Z</time>
      </trkpt>
      <trkpt lat="44.47711" lon="1.14914">
        <ele>86</ele>
        <time>2022-08-11T08:04:58Z</time>
      </trkpt>
      <trkpt lat="44.47715" lon="1.14902">
        <ele>86.1</ele>
        <time>2022-08-11T08:05:00Z</time>
      </trkpt>
      <trkpt lat="44.47719" lon="1.1489">
        <ele>86.2</ele>
        <time>2022-08-11T08:05:02Z</time>
      </trkpt>
      <trkpt lat="44.47723" lon="1.14879">
        <ele>86.3</ele>
        <time>2022-08-11T08:05:04Z</time>
      </trkpt>
      <trkpt lat="44.47727" lon="1.14867">
        <ele>86.4</ele>
        <time>2022-08-11T08:05:06Z</time>
      </trkpt>
      <trkpt lat="44.47731" lon="1.14855">
        <ele>86.6</ele>
        <time>2022-08-11T08:05:08Z</time>
      </trkpt>
      <trkpt lat="44.47734" lon="1.14844">
        <ele>86.7</ele>
        <time>2022-08-11T08:05:10Z</time>
      </trkpt>
      <trkpt lat="44.47738" lon="1.14832">
        <ele>86.9</ele>
        <time>2022-08-11T08:05:12Z</time>
      </trkpt>
      <trkpt lat="44.47742" lon="1.14821">
        <ele>87.1</ele>
        <time>2022-08-11T08:05:14Z</time>
      </trkpt>
      <trkpt lat="44.47744" lon="1.1481">
        <ele>87.2</ele>
        <time>2022-08-11T08:05:16Z</time>
      </trkpt>
      <trkpt lat="44.47748" lon="1.14799">
        <ele>87.4</ele>
        <time>2022-08-11T08:05:18Z</time>
      </trkpt>
      <trkpt lat="44.47752" lon="1.14788">
        <ele>87.5</ele>
        <time>2022-08-11T08:05:20Z</time>
      </trkpt>
      <trkpt lat="44.47756" lon="1.14777">
        <ele>87.6</ele>
        <time>2022-08-11T08:05:22Z</time>
      </trkpt>
      <trkpt lat="44.4776" lon="1.14766">
        <ele>87.8</ele>
        <time>2022-08-11T08:05:24Z</time>
      </trkpt>
      <trkpt lat="44.47764" lon="1.14756">
        <ele>87.9</ele>
        <time>2022-08-11T08:05:26Z</time>
      </trkpt>
      <trkpt lat="44.47769" lon="1.14745">
        <ele>87.9</ele>
        <time>2022-08-11T08:05:28Z</time>
      </trkpt>
      <trkpt lat="44.47776" lon="1.14738">
        <ele>87.9</ele>
        <time>2022-08-11T08:05:30Z</time>
      </trkpt>
      <trkpt lat="44.47784" lon="1.14733">
        <ele>87.8</ele>
        <time>2022-08-11T08:05:32Z</time>
      </trkpt>
      <trkpt lat="44.4779" lon="1.14726">
        <ele>87.7</ele>
        <time>2022-08-11T08:05:34Z</time>
      </trkpt>
      <trkpt lat="44.47788" lon="1.14714">
        <ele>87.6</ele>
        <time>2022-08-11T08:05:36Z</time>
      </trkpt>
      <trkpt lat="44.47783" lon="1.14706">
        <ele>87.5</ele>
        <time>2022-08-11T08:05:38Z</time>
      </trkpt>
      <trkpt lat="44.47778" lon="1.14699">
        <ele>87.4</ele>
        <time>2022-08-11T08:05:40Z</time>
      </trkpt>
      <trkpt lat="44.47773" lon="1.14692">
        <ele>87.3</ele>
        <time>2022-08-11T08:05:42Z</time>
      </trkpt>
      <trkpt lat="44.47767" lon="1.14686">
        <ele>87.2</ele>
        <time>2022-08-11T08:05:44Z</time>
      </trkpt>
      <trkpt lat="44.47761" lon="1.14678">
        <ele>87.1</ele>
        <time>2022-08-11T08:05:46Z</time>
      </trkpt>
      <trkpt lat="44.47753" lon="1.14671">
        <ele>87</ele>
        <time>2022-08-11T08:05:48Z</time>
      </trkpt>
      <trkpt lat="44.47745" lon="1.14662">
        <ele>86.8</ele>
        <time>2022-08-11T08:05:50Z</time>
      </trkpt>
      <trkpt lat="44.47736" lon="1.14655">
        <ele>86.6</ele>
        <time>2022-08-11T08:05:52Z</time>
      </trkpt>
      <trkpt lat="44.47728" lon="1.14645">
        <ele>86.4</ele>
        <time>2022-08-11T08:05:54Z</time>
      </trkpt>
      <trkpt lat="44.47724" lon="1.14633">
        <ele>86.1</ele>
        <time>2022-08-11T08:05:56Z</time>
      </trkpt>
      <trkpt lat="44.47725" lon="1.14621">
        <ele>85.9</ele>
        <time>2022-08-11T08:05:58Z</time>
      </trkpt>
      <trkpt lat="44.47727" lon="1.1461">
        <ele>85.7</ele>
        <time>2022-08-11T08:06:00Z</time>
      </trkpt>
      <trkpt lat="44.47728" lon="1.14599">
        <ele>85.5</ele>
        <time>2022-08-11T08:06:02Z</time>
      </trkpt>
      <trkpt lat="44.47728" lon="1.14587">
        <ele>85.3</ele>
        <time>2022-08-11T08:06:04Z</time>
      </trkpt>
      <trkpt lat="44.4773" lon="1.14573">
        <ele>85.2</ele>
        <time>2022-08-11T08:06:06Z</time>
      </trkpt>
      <trkpt lat="44.47728" lon="1.1456">
        <ele>85.1</ele>
        <time>2022-08-11T08:06:08Z</time>
      </trkpt>
      <trkpt lat="44.47723" lon="1.14554">
        <ele>85.1</ele>
        <time>2022-08-11T08:06:10Z</time>
      </trkpt>
      <trkpt lat="44.47718" lon="1.1455">
        <ele>85.1</ele>
        <time>2022-08-11T08:06:12Z</time>
      </trkpt>
      <trkpt lat="44.47713" lon="1.14547">
        <ele>85.2</ele>
        <time>2022-08-11T08:06:14Z</time>
      </trkpt>
      <trkpt lat="44.4771" lon="1.14543">
        <ele>85.2</ele>
        <time>2022-08-11T08:06:16Z</time>
      </trkpt>
      <trkpt lat="44.47706" lon="1.14537">
        <ele>85.3</ele>
        <time>2022-08-11T08:06:18Z</time>
      </trkpt>
      <trkpt lat="44.47702" lon="1.14532">
        <ele>85.3</ele>
        <time>2022-08-11T08:06:20Z</time>
      </trkpt>
      <trkpt lat="44.47697" lon="1.14529">
        <ele>85.4</ele>
        <time>2022-08-11T08:06:22Z</time>
      </trkpt>
      <trkpt lat="44.47693" lon="1.14531">
        <ele>85.5</ele>
        <time>2022-08-11T08:06:24Z</time>
      </trkpt>
      <trkpt lat="44.47689" lon="1.14533">
        <ele>85.6</ele>
        <time>2022-08-11T08:06:26Z</time>
      </trkpt>
      <trkpt lat="44.47685" lon="1.14533">
        <ele>85.6</ele>
        <time>2022-08-11T08:06:28Z</time>
      </trkpt>
      <trkpt lat="44.47682" lon="1.14533">
        <ele>85.7</ele>
        <time>2022-08-11T08:06:30Z</time>
      </trkpt>
      <trkpt lat="44.47678" lon="1.14531">
        <ele>85.8</ele>
        <time>2022-08-11T08:06:32Z</time>
      </trkpt>
      <trkpt lat="44.47675" lon="1.14527">
        <ele>85.8</ele>
        <time>2022-08-11T08:06:34Z</time>
      </trkpt>
      <trkpt lat="44.47671" lon="1.14526">
        <ele>85.9</ele>
        <time>2022-08-11T08:06:36Z</time>
      </trkpt>
      <trkpt lat="44.47667" lon="1.14526">
        <ele>86</ele>
        <time>2022-08-11T08:06:38Z</time>
      </trkpt>
      <trkpt lat="44.47663" lon="1.14526">
        <ele>86</ele>
        <time>2022-08-11T08:06:40Z</time>
      </trkpt>
      <trkpt lat="44.47659" lon="1.14526">
        <ele>86</ele>
        <time>2022-08-11T08:06:42Z</time>
      </trkpt>
      <trkpt lat="44.47656" lon="1.14527">
        <ele>86</ele>
        <time>2022-08-11T08:06:44Z</time>
      </trkpt>
      <trkpt lat="44.47651" lon="1.14528">
        <ele>86.1</ele>
        <time>2022-08-11T08:06:46Z</time>
      </trkpt>
      <trkpt lat="44.47647" lon="1.14531">
        <ele>86.1</ele>
        <time>2022-08-11T08:06:48Z</time>
      </trkpt>
      <trkpt lat="44.47643" lon="1.14533">
        <ele>86.1</ele>
        <time>2022-08-11T08:06:50Z</time>
      </trkpt>
      <trkpt lat="44.47639" lon="1.14534">
        <ele>86.1</ele>
        <time>2022-08-11T08:06:52Z</time>
      </trkpt>
      <trkpt lat="44.47634" lon="1.14538">
        <ele>86.2</ele>
        <time>2022-08-11T08:06:54Z</time>
      </trkpt>
      <trkpt lat="44.47629" lon="1.14538">
        <ele>86.2</ele>
        <time>2022-08-11T08:06:56Z</time>
      </trkpt>
      <trkpt lat="44.47624" lon="1.14538">
        <ele>86.2</ele>
        <time>2022-08-11T08:06:58Z</time>
      </trkpt>
      <trkpt lat="44.47618" lon="1.14538">
        <ele>86.3</ele>
        <time>2022-08-11T08:07:00Z</time>
      </trkpt>
      <trkpt lat="44.47613" lon="1.14537">
        <ele>86.3</ele>
        <time>2022-08-11T08:07:02Z</time>
      </trkpt>
      <trkpt lat="44.47607" lon="1.14536">
        <ele>86.3</ele>
        <time>2022-08-11T08:07:04Z</time>
      </trkpt>
      <trkpt lat="44.47602" lon="1.14534">
        <ele>86.3</ele>
        <time>2022-08-11T08:07:06Z</time>
      </trkpt>
      <trkpt lat="44.47596" lon="1.14532">
        <ele>86.3</ele>
        <time>2022-08-11T08:07:08Z</time>
      </trkpt>
      <trkpt lat="44.47591" lon="1.14526">
        <ele>86.3</ele>
        <time>2022-08-11T08:07:10Z</time>
      </trkpt>
      <trkpt lat="44.47586" lon="1.14522">
        <ele>86.3</ele>
        <time>2022-08-11T08:07:12Z</time>
      </trkpt>
      <trkpt lat="44.47581" lon="1.14517">
        <ele>86.2</ele>
        <time>2022-08-11T08:07:14Z</time>
      </trkpt>
      <trkpt lat="44.47573" lon="1.14514">
        <ele>86.3</ele>
        <time>2022-08-11T08:07:16Z</time>
      </trkpt>
      <trkpt lat="44.47566" lon="1.14512">
        <ele>86.3</ele>
        <time>2022-08-11T08:07:18Z</time>
      </trkpt>
      <trkpt lat="44.47558" lon="1.1451">
        <ele>86.4</ele>
        <time>2022-08-11T08:07:20Z</time>
      </trkpt>
      <trkpt lat="44.4755" lon="1.14508">
        <ele>86.4</ele>
        <time>2022-08-11T08:07:22Z</time>
      </trkpt>
      <trkpt lat="44.47543" lon="1.14506">
        <ele>86.5</ele>
        <time>2022-08-11T08:07:24Z</time>
      </trkpt>
      <trkpt lat="44.47535" lon="1.14504">
        <ele>86.6</ele>
        <time>2022-08-11T08:07:26Z</time>
      </trkpt>
      <trkpt lat="44.47527" lon="1.14502">
        <ele>86.7</ele>
        <time>2022-08-11T08:07:28Z</time>
      </trkpt>
      <trkpt lat="44.47519" lon="1.14499">
        <ele>86.8</ele>
        <time>2022-08-11T08:07:30Z</time>
      </trkpt>
      <trkpt lat="44.47511" lon="1.14496">
        <ele>86.9</ele>
        <time>2022-08-11T08:07:32Z</time>
      </trkpt>
      <trkpt lat="44.47504" lon="1.14493">
        <ele>87</ele>
        <time>2022-08-11T08:07:34Z</time>
      </trkpt>
      <trkpt lat="44.47497" lon="1.14492">
        <ele>87.9</ele>
        <time>2022-08-11T08:07:36Z</time>
      </trkpt>
      <trkpt lat="44.47491" lon="1.1449">
        <ele>89.7</ele>
        <time>2022-08-11T08:07:38Z</time>
      </trkpt>
      <trkpt lat="44.47486" lon="1.14488">
        <ele>91.2</ele>
        <time>2022-08-11T08:07:40Z</time>
      </trkpt>
      <trkpt lat="44.47481" lon="1.14486">
        <ele>92.7</ele>
        <time>2022-08-11T08:07:42Z</time>
      </trkpt>
      <trkpt lat="44.47479" lon="1.14479">
        <ele>93.3</ele>
        <time>2022-08-11T08:07:44Z</time>
      </trkpt>
      <trkpt lat="44.47481" lon="1.14471">
        <ele>93.1</ele>
        <time>2022-08-11T08:07:46Z</time>
      </trkpt>
      <trkpt lat="44.47483" lon="1.14463">
        <ele>92.6</ele>
        <time>2022-08-11T08:07:48Z</time>
      </trkpt>
      <trkpt lat="44.47486" lon="1.14454">
        <ele>92.1</ele>
        <time>2022-08-11T08:07:50Z</time>
      </trkpt>
      <trkpt lat="44.47488" lon="1.14445">
        <ele>91.5</ele>
        <time>2022-08-11T08:07:52Z</time>
      </trkpt>
      <trkpt lat="44.47491" lon="1.14436">
        <ele>90.8</ele>
        <time>2022-08-11T08:07:54Z</time>
      </trkpt>
      <trkpt lat="44.47494" lon="1.14427">
        <ele>90.1</ele>
        <time>2022-08-11T08:07:56Z</time>
      </trkpt>
      <trkpt lat="44.47497" lon="1.14418">
        <ele>89.2</ele>
        <time>2022-08-11T08:07:58Z</time>
      </trkpt>
      <trkpt lat="44.475" lon="1.14409">
        <ele>88.4</ele>
        <time>2022-08-11T08:08:00Z</time>
      </trkpt>
      <trkpt lat="44.47502" lon="1.144">
        <ele>88.5</ele>
        <time>2022-08-11T08:08:02Z</time>
      </trkpt>
      <trkpt lat="44.47505" lon="1.14391">
        <ele>88.7</ele>
        <time>2022-08-11T08:08:04Z</time>
      </trkpt>
      <trkpt lat="44.47508" lon="1.14381">
        <ele>88.8</ele>
        <time>2022-08-11T08:08:06Z</time>
      </trkpt>
      <trkpt lat="44.4751" lon="1.14372">
        <ele>88.9</ele>
        <time>2022-08-11T08:08:08Z</time>
      </trkpt>
      <trkpt lat="44.47513" lon="1.14363">
        <ele>89</ele>
        <time>2022-08-11T08:08:10Z</time>
      </trkpt>
      <trkpt lat="44.47516" lon="1.14354">
        <ele>89.1</ele>
        <time>2022-08-11T08:08:12Z</time>
      </trkpt>
      <trkpt lat="44.47519" lon="1.14345">
        <ele>89.1</ele>
        <time>2022-08-11T08:08:14Z</time>
      </trkpt>
      <trkpt lat="44.47521" lon="1.14336">
        <ele>89.2</ele>
        <time>2022-08-11T08:08:16Z</time>
      </trkpt>
      <trkpt lat="44.47524" lon="1.14326">
        <ele>89.4</ele>
        <time>2022-08-11T08:08:18Z</time>
      </trkpt>
      <trkpt lat="44.47527" lon="1.14317">
        <ele>89.7</ele>
        <time>2022-08-11T08:08:20Z</time>
      </trkpt>
      <trkpt lat="44.47529" lon="1.14307">
        <ele>89.9</ele>
        <time>2022-08-11T08:08:22Z</time>
      </trkpt>
      <trkpt lat="44.47532" lon="1.14299">
        <ele>90.1</ele>
        <time>2022-08-11T08:08:24Z</time>
      </trkpt>
      <trkpt lat="44.47535" lon="1.1429">
        <ele>90.2</ele>
        <time>2022-08-11T08:08:26Z</time>
      </trkpt>
      <trkpt lat="44.47537" lon="1.14279">
        <ele>90.5</ele>
        <time>2022-08-11T08:08:28Z</time>
      </trkpt>
      <trkpt lat="44.47539" lon="1.14268">
        <ele>90.7</ele>
        <time>2022-08-11T08:08:30Z</time>
      </trkpt>
      <trkpt lat="44.47541" lon="1.14257">
        <ele>90.8</ele>
        <time>2022-08-11T08:08:32Z</time>
      </trkpt>
      <trkpt lat="44.47543" lon="1.14245">
        <ele>91</ele>
        <time>2022-08-11T08:08:34Z</time>
      </trkpt>
      <trkpt lat="44.47544" lon="1.14233">
        <ele>91.8</ele>
        <time>2022-08-11T08:08:36Z</time>
      </trkpt>
      <trkpt lat="44.47547" lon="1.1422">
        <ele>92.1</ele>
        <time>2022-08-11T08:08:38Z</time>
      </trkpt>
      <trkpt lat="44.47549" lon="1.14207">
        <ele>92.6</ele>
        <time>2022-08-11T08:08:40Z</time>
      </trkpt>
      <trkpt lat="44.47551" lon="1.14193">
        <ele>92.9</ele>
        <time>2022-08-11T08:08:42Z</time>
      </trkpt>
      <trkpt lat="44.47553" lon="1.1418">
        <ele>93.1</ele>
        <time>2022-08-11T08:08:44Z</time>
      </trkpt>
      <trkpt lat="44.47556" lon="1.14167">
        <ele>93.3</ele>
        <time>2022-08-11T08:08:46Z</time>
      </trkpt>
      <trkpt lat="44.47558" lon="1.14153">
        <ele>94</ele>
        <time>2022-08-11T08:08:48Z</time>
      </trkpt>
      <trkpt lat="44.4756" lon="1.1414">
        <ele>94.6</ele>
        <time>2022-08-11T08:08:50Z</time>
      </trkpt>
      <trkpt lat="44.47562" lon="1.14126">
        <ele>95</ele>
        <time>2022-08-11T08:08:52Z</time>
      </trkpt>
      <trkpt lat="44.47564" lon="1.14113">
        <ele>95.5</ele>
        <time>2022-08-11T08:08:54Z</time>
      </trkpt>
      <trkpt lat="44.47567" lon="1.14098">
        <ele>95.8</ele>
        <time>2022-08-11T08:08:56Z</time>
      </trkpt>
      <trkpt lat="44.4757" lon="1.14084">
        <ele>95.7</ele>
        <time>2022-08-11T08:08:58Z</time>
      </trkpt>
      <trkpt lat="44.47571" lon="1.14069">
        <ele>96.7</ele>
        <time>2022-08-11T08:09:00Z</time>
      </trkpt>
      <trkpt lat="44.47573" lon="1.14054">
        <ele>97.4</ele>
        <time>2022-08-11T08:09:02Z</time>
      </trkpt>
      <trkpt lat="44.47576" lon="1.14039">
        <ele>97.8</ele>
        <time>2022-08-11T08:09:04Z</time>
      </trkpt>
      <trkpt lat="44.47578" lon="1.14023">
        <ele>97.9</ele>
        <time>2022-08-11T08:09:06Z</time>
      </trkpt>
      <trkpt lat="44.4758" lon="1.14007">
        <ele>98.2</ele>
        <time>2022-08-11T08:09:08Z</time>
      </trkpt>
      <trkpt lat="44.47583" lon="1.13993">
        <ele>98.7</ele>
        <time>2022-08-11T08:09:10Z</time>
      </trkpt>
      <trkpt lat="44.47587" lon="1.13978">
        <ele>101.6</ele>
        <time>2022-08-11T08:09:12Z</time>
      </trkpt>
      <trkpt lat="44.47589" lon="1.13966">
        <ele>104</ele>
        <time>2022-08-11T08:09:14Z</time>
      </trkpt>
      <trkpt lat="44.47594" lon="1.13951">
        <ele>105.9</ele>
        <time>2022-08-11T08:09:16Z</time>
      </trkpt>
      <trkpt lat="44.47598" lon="1.13937">
        <ele>107.7</ele>
        <time>2022-08-11T08:09:18Z</time>
      </trkpt>
      <trkpt lat="44.47603" lon="1.13924">
        <ele>108.5</ele>
        <time>2022-08-11T08:09:20Z</time>
      </trkpt>
      <trkpt lat="44.47608" lon="1.13911">
        <ele>108.9</ele>
        <time>2022-08-11T08:09:22Z</time>
      </trkpt>
      <trkpt lat="44.47611" lon="1.13897">
        <ele>109.5</ele>
        <time>2022-08-11T08:09:24Z</time>
      </trkpt>
      <trkpt lat="44.47616" lon="1.13884">
        <ele>109.3</ele>
        <time>2022-08-11T08:09:26Z</time>
      </trkpt>
      <trkpt lat="44.47619" lon="1.1387">
        <ele>109.5</ele>
        <time>2022-08-11T08:09:28Z</time>
      </trkpt>
      <trkpt lat="44.47625" lon="1.13859">
        <ele>108.5</ele>
        <time>2022-08-11T08:09:30Z</time>
      </trkpt>
      <trkpt lat="44.4763" lon="1.13845">
        <ele>107.5</ele>
        <time>2022-08-11T08:09:32Z</time>
      </trkpt>
      <trkpt lat="44.47635" lon="1.13834">
        <ele>106</ele>
        <time>2022-08-11T08:09:34Z</time>
      </trkpt>
      <trkpt lat="44.4764" lon="1.13821">
        <ele>103.5</ele>
        <time>2022-08-11T08:09:36Z</time>
      </trkpt>
      <trkpt lat="44.47647" lon="1.1381">
        <ele>99.9</ele>
        <time>2022-08-11T08:09:38Z</time>
      </trkpt>
      <trkpt lat="44.47652" lon="1.13797">
        <ele>97.2</ele>
        <time>2022-08-11T08:09:40Z</time>
      </trkpt>
      <trkpt lat="44.47657" lon="1.13786">
        <ele>95.1</ele>
        <time>2022-08-11T08:09:42Z</time>
      </trkpt>
      <trkpt lat="44.47661" lon="1.13774">
        <ele>93.5</ele>
        <time>2022-08-11T08:09:44Z</time>
      </trkpt>
      <trkpt lat="44.47666" lon="1.13763">
        <ele>91.8</ele>
        <time>2022-08-11T08:09:46Z</time>
      </trkpt>
      <trkpt lat="44.47672" lon="1.13754">
        <ele>91.4</ele>
        <time>2022-08-11T08:09:48Z</time>
      </trkpt>
      <trkpt lat="44.47677" lon="1.13744">
        <ele>91.5</ele>
        <time>2022-08-11T08:09:50Z</time>
      </trkpt>
      <trkpt lat="44.47681" lon="1.13737">
        <ele>91.5</ele>
        <time>2022-08-11T08:09:52Z</time>
      </trkpt>
      <trkpt lat="44.47687" lon="1.1373">
        <ele>91.6</ele>
        <time>2022-08-11T08:09:54Z</time>
      </trkpt>
      <trkpt lat="44.47691" lon="1.13721">
        <ele>91.9</ele>
        <time>2022-08-11T08:09:56Z</time>
      </trkpt>
      <trkpt lat="44.47697" lon="1.13714">
        <ele>92.2</ele>
        <time>2022-08-11T08:09:58Z</time>
      </trkpt>
      <trkpt lat="44.47701" lon="1.13707">
        <ele>92.4</ele>
        <time>2022-08-11T08:10:00Z</time>
      </trkpt>
      <trkpt lat="44.47706" lon="1.137">
        <ele>92.8</ele>
        <time>2022-08-11T08:10:02Z</time>
      </trkpt>
      <trkpt lat="44.47711" lon="1.13694">
        <ele>93.1</ele>
        <time>2022-08-11T08:10:04Z</time>
      </trkpt>
      <trkpt lat="44.47716" lon="1.13688">
        <ele>93.5</ele>
        <time>2022-08-11T08:10:06Z</time>
      </trkpt>
      <trkpt lat="44.47722" lon="1.13682">
        <ele>93.9</ele>
        <time>2022-08-11T08:10:08Z</time>
      </trkpt>
      <trkpt lat="44.47727" lon="1.13676">
        <ele>94.3</ele>
        <time>2022-08-11T08:10:10Z</time>
      </trkpt>
      <trkpt lat="44.47733" lon="1.13669">
        <ele>95</ele>
        <time>2022-08-11T08:10:12Z</time>
      </trkpt>
      <trkpt lat="44.47739" lon="1.13662">
        <ele>97</ele>
        <time>2022-08-11T08:10:14Z</time>
      </trkpt>
      <trkpt lat="44.47745" lon="1.13657">
        <ele>99</ele>
        <time>2022-08-11T08:10:16Z</time>
      </trkpt>
      <trkpt lat="44.47751" lon="1.13652">
        <ele>100.9</ele>
        <time>2022-08-11T08:10:18Z</time>
      </trkpt>
      <trkpt lat="44.47756" lon="1.13645">
        <ele>102.5</ele>
        <time>2022-08-11T08:10:20Z</time>
      </trkpt>
      <trkpt lat="44.47762" lon="1.1364">
        <ele>103.5</ele>
        <time>2022-08-11T08:10:22Z</time>
      </trkpt>
      <trkpt lat="44.47767" lon="1.13636">
        <ele>103.8</ele>
        <time>2022-08-11T08:10:24Z</time>
      </trkpt>
      <trkpt lat="44.47774" lon="1.1363">
        <ele>104.4</ele>
        <time>2022-08-11T08:10:26Z</time>
      </trkpt>
      <trkpt lat="44.47778" lon="1.13624">
        <ele>105.5</ele>
        <time>2022-08-11T08:10:28Z</time>
      </trkpt>
      <trkpt lat="44.47783" lon="1.1362">
        <ele>105.6</ele>
        <time>2022-08-11T08:10:30Z</time>
      </trkpt>
      <trkpt lat="44.4779" lon="1.13614">
        <ele>105.9</ele>
        <time>2022-08-11T08:10:32Z</time>
      </trkpt>
      <trkpt lat="44.47794" lon="1.13611">
        <ele>105.7</ele>
        <time>2022-08-11T08:10:34Z</time>
      </trkpt>
      <trkpt lat="44.47799" lon="1.13606">
        <ele>105.8</ele>
        <time>2022-08-11T08:10:36Z</time>
      </trkpt>
      <trkpt lat="44.47803" lon="1.136">
        <ele>106.2</ele>
        <time>2022-08-11T08:10:38Z</time>
      </trkpt>
      <trkpt lat="44.47808" lon="1.13595">
        <ele>106.2</ele>
        <time>2022-08-11T08:10:40Z</time>
      </trkpt>
      <trkpt lat="44.47814" lon="1.13589">
        <ele>106</ele>
        <time>2022-08-11T08:10:42Z</time>
      </trkpt>
      <trkpt lat="44.47819" lon="1.13586">
        <ele>105.2</ele>
        <time>2022-08-11T08:10:44Z</time>
      </trkpt>
      <trkpt lat="44.47824" lon="1.13579">
        <ele>106.5</ele>
        <time>2022-08-11T08:10:46Z</time>
      </trkpt>
      <trkpt lat="44.47827" lon="1.13576">
        <ele>107.1</ele>
        <time>2022-08-11T08:10:48Z</time>
      </trkpt>
      <trkpt lat="44.47834" lon="1.13572">
        <ele>107.1</ele>
        <time>2022-08-11T08:10:50Z</time>
      </trkpt>
      <trkpt lat="44.47839" lon="1.13568">
        <ele>107.8</ele>
        <time>2022-08-11T08:10:52Z</time>
      </trkpt>
      <trkpt lat="44.47844" lon="1.13564">
        <ele>109</ele>
        <time>2022-08-11T08:10:54Z</time>
      </trkpt>
      <trkpt lat="44.47848" lon="1.13559">
        <ele>110.1</ele>
        <time>2022-08-11T08:10:56Z</time>
      </trkpt>
      <trkpt lat="44.47853" lon="1.13555">
        <ele>110.8</ele>
        <time>2022-08-11T08:10:58Z</time>
      </trkpt>
      <trkpt lat="44.47858" lon="1.13549">
        <ele>112</ele>
        <time>2022-08-11T08:11:00Z</time>
      </trkpt>
      <trkpt lat="44.47864" lon="1.13545">
        <ele>111.9</ele>
        <time>2022-08-11T08:11:02Z</time>
      </trkpt>
      <trkpt lat="44.4787" lon="1.1354">
        <ele>111.8</ele>
        <time>2022-08-11T08:11:04Z</time>
      </trkpt>
      <trkpt lat="44.47874" lon="1.13536">
        <ele>112</ele>
        <time>2022-08-11T08:11:06Z</time>
      </trkpt>
      <trkpt lat="44.47879" lon="1.13531">
        <ele>112</ele>
        <time>2022-08-11T08:11:08Z</time>
      </trkpt>
      <trkpt lat="44.47884" lon="1.13527">
        <ele>111.6</ele>
        <time>2022-08-11T08:11:10Z</time>
      </trkpt>
      <trkpt lat="44.4789" lon="1.13522">
        <ele>111.2</ele>
        <time>2022-08-11T08:11:12Z</time>
      </trkpt>
      <trkpt lat="44.47895" lon="1.13517">
        <ele>110.3</ele>
        <time>2022-08-11T08:11:14Z</time>
      </trkpt>
      <trkpt lat="44.47901" lon="1.13512">
        <ele>109.3</ele>
        <time>2022-08-11T08:11:16Z</time>
      </trkpt>
      <trkpt lat="44.47907" lon="1.13509">
        <ele>107.6</ele>
        <time>2022-08-11T08:11:18Z</time>
      </trkpt>
      <trkpt lat="44.47913" lon="1.13502">
        <ele>106.3</ele>
        <time>2022-08-11T08:11:20Z</time>
      </trkpt>
      <trkpt lat="44.47921" lon="1.13496">
        <ele>106.3</ele>
        <time>2022-08-11T08:11:22Z</time>
      </trkpt>
      <trkpt lat="44.47929" lon="1.13491">
        <ele>106.8</ele>
        <time>2022-08-11T08:11:24Z</time>
      </trkpt>
      <trkpt lat="44.47937" lon="1.13483">
        <ele>109.4</ele>
        <time>2022-08-11T08:11:26Z</time>
      </trkpt>
      <trkpt lat="44.47944" lon="1.13476">
        <ele>110.3</ele>
        <time>2022-08-11T08:11:28Z</time>
      </trkpt>
      <trkpt lat="44.47954" lon="1.13469">
        <ele>110.7</ele>
        <time>2022-08-11T08:11:30Z</time>
      </trkpt>
      <trkpt lat="44.47961" lon="1.13465">
        <ele>110.3</ele>
        <time>2022-08-11T08:11:32Z</time>
      </trkpt>
      <trkpt lat="44.47968" lon="1.13458">
        <ele>110.8</ele>
        <time>2022-08-11T08:11:34Z</time>
      </trkpt>
      <trkpt lat="44.47977" lon="1.13452">
        <ele>110</ele>
        <time>2022-08-11T08:11:36Z</time>
      </trkpt>
      <trkpt lat="44.47987" lon="1.13446">
        <ele>108.2</ele>
        <time>2022-08-11T08:11:38Z</time>
      </trkpt>
      <trkpt lat="44.47996" lon="1.1344">
        <ele>106.9</ele>
        <time>2022-08-11T08:11:40Z</time>
      </trkpt>
      <trkpt lat="44.48006" lon="1.13434">
        <ele>105.8</ele>
        <time>2022-08-11T08:11:42Z</time>
      </trkpt>
      <trkpt lat="44.48015" lon="1.13427">
        <ele>105.4</ele>
        <time>2022-08-11T08:11:44Z</time>
      </trkpt>
      <trkpt lat="44.48026" lon="1.13423">
        <ele>103.8</ele>
        <time>2022-08-11T08:11:46Z</time>
      </trkpt>
      <trkpt lat="44.48036" lon="1.13415">
        <ele>103.2</ele>
        <time>2022-08-11T08:11:48Z</time>
      </trkpt>
      <trkpt lat="44.48046" lon="1.13409">
        <ele>103.7</ele>
        <time>2022-08-11T08:11:50Z</time>
      </trkpt>
      <trkpt lat="44.48057" lon="1.13401">
        <ele>104.4</ele>
        <time>2022-08-11T08:11:52Z</time>
      </trkpt>
      <trkpt lat="44.48068" lon="1.13394">
        <ele>104.1</ele>
        <time>2022-08-11T08:11:54Z</time>
      </trkpt>
      <trkpt lat="44.48079" lon="1.13386">
        <ele>104.8</ele>
        <time>2022-08-11T08:11:56Z</time>
      </trkpt>
      <trkpt lat="44.48089" lon="1.13379">
        <ele>105.1</ele>
        <time>2022-08-11T08:11:58Z</time>
      </trkpt>
      <trkpt lat="44.48099" lon="1.13372">
        <ele>106.1</ele>
        <time>2022-08-11T08:12:00Z</time>
      </trkpt>
      <trkpt lat="44.4811" lon="1.13365">
        <ele>106.7</ele>
        <time>2022-08-11T08:12:02Z</time>
      </trkpt>
      <trkpt lat="44.48121" lon="1.13359">
        <ele>106.7</ele>
        <time>2022-08-11T08:12:04Z</time>
      </trkpt>
      <trkpt lat="44.48132" lon="1.13351">
        <ele>106.6</ele>
        <time>2022-08-11T08:12:06Z</time>
      </trkpt>
      <trkpt lat="44.48144" lon="1.13345">
        <ele>105.5</ele>
        <time>2022-08-11T08:12:08Z</time>
      </trkpt>
      <trkpt lat="44.48155" lon="1.13339">
        <ele>104</ele>
        <time>2022-08-11T08:12:10Z</time>
      </trkpt>
      <trkpt lat="44.48166" lon="1.13334">
        <ele>102.1</ele>
        <time>2022-08-11T08:12:12Z</time>
      </trkpt>
      <trkpt lat="44.48175" lon="1.13329">
        <ele>102.6</ele>
        <time>2022-08-11T08:12:14Z</time>
      </trkpt>
      <trkpt lat="44.48185" lon="1.13323">
        <ele>103.7</ele>
        <time>2022-08-11T08:12:16Z</time>
      </trkpt>
      <trkpt lat="44.48195" lon="1.13317">
        <ele>104.2</ele>
        <time>2022-08-11T08:12:18Z</time>
      </trkpt>
      <trkpt lat="44.48204" lon="1.13312">
        <ele>104.4</ele>
        <time>2022-08-11T08:12:20Z</time>
      </trkpt>
      <trkpt lat="44.48213" lon="1.13307">
        <ele>104.9</ele>
        <time>2022-08-11T08:12:22Z</time>
      </trkpt>
      <trkpt lat="44.48222" lon="1.13302">
        <ele>104.5</ele>
        <time>2022-08-11T08:12:24Z</time>
      </trkpt>
      <trkpt lat="44.48233" lon="1.13296">
        <ele>104.6</ele>
        <time>2022-08-11T08:12:26Z</time>
      </trkpt>
      <trkpt lat="44.48243" lon="1.1329">
        <ele>104.1</ele>
        <time>2022-08-11T08:12:28Z</time>
      </trkpt>
      <trkpt lat="44.48251" lon="1.13285">
        <ele>103.9</ele>
        <time>2022-08-11T08:12:30Z</time>
      </trkpt>
      <trkpt lat="44.4826" lon="1.13279">
        <ele>104.5</ele>
        <time>2022-08-11T08:12:32Z</time>
      </trkpt>
      <trkpt lat="44.48269" lon="1.13274">
        <ele>105</ele>
        <time>2022-08-11T08:12:34Z</time>
      </trkpt>
      <trkpt lat="44.48278" lon="1.13269">
        <ele>105.3</ele>
        <time>2022-08-11T08:12:36Z</time>
      </trkpt>
      <trkpt lat="44.48287" lon="1.13265">
        <ele>105.4</ele>
        <time>2022-08-11T08:12:38Z</time>
      </trkpt>
      <trkpt lat="44.48297" lon="1.13262">
        <ele>104.9</ele>
        <time>2022-08-11T08:12:40Z</time>
      </trkpt>
      <trkpt lat="44.48306" lon="1.13259">
        <ele>104.5</ele>
        <time>2022-08-11T08:12:42Z</time>
      </trkpt>
      <trkpt lat="44.48316" lon="1.13261">
        <ele>102.9</ele>
        <time>2022-08-11T08:12:44Z</time>
      </trkpt>
      <trkpt lat="44.48325" lon="1.13256">
        <ele>102.9</ele>
        <time>2022-08-11T08:12:46Z</time>
      </trkpt>
      <trkpt lat="44.4833" lon="1.13252">
        <ele>103.1</ele>
        <time>2022-08-11T08:12:48Z</time>
      </trkpt>
      <trkpt lat="44.48342" lon="1.13245">
        <ele>103.2</ele>
        <time>2022-08-11T08:12:50Z</time>
      </trkpt>
      <trkpt lat="44.4835" lon="1.13243">
        <ele>102.9</ele>
        <time>2022-08-11T08:12:52Z</time>
      </trkpt>
      <trkpt lat="44.48359" lon="1.13239">
        <ele>102.8</ele>
        <time>2022-08-11T08:12:54Z</time>
      </trkpt>
      <trkpt lat="44.48369" lon="1.13235">
        <ele>102.5</ele>
        <time>2022-08-11T08:12:56Z</time>
      </trkpt>
      <trkpt lat="44.48377" lon="1.13232">
        <ele>102.2</ele>
        <time>2022-08-11T08:12:58Z</time>
      </trkpt>
      <trkpt lat="44.48387" lon="1.13228">
        <ele>101.8</ele>
        <time>2022-08-11T08:13:00Z</time>
      </trkpt>
      <trkpt lat="44.48397" lon="1.13227">
        <ele>100.6</ele>
        <time>2022-08-11T08:13:02Z</time>
      </trkpt>
      <trkpt lat="44.48409" lon="1.13224">
        <ele>99.5</ele>
        <time>2022-08-11T08:13:04Z</time>
      </trkpt>
      <trkpt lat="44.48418" lon="1.13224">
        <ele>98</ele>
        <time>2022-08-11T08:13:06Z</time>
      </trkpt>
      <trkpt lat="44.48429" lon="1.13222">
        <ele>97.6</ele>
        <time>2022-08-11T08:13:08Z</time>
      </trkpt>
      <trkpt lat="44.4844" lon="1.13221">
        <ele>96.9</ele>
        <time>2022-08-11T08:13:10Z</time>
      </trkpt>
      <trkpt lat="44.4845" lon="1.1322">
        <ele>96.2</ele>
        <time>2022-08-11T08:13:12Z</time>
      </trkpt>
      <trkpt lat="44.48459" lon="1.13218">
        <ele>95.8</ele>
        <time>2022-08-11T08:13:14Z</time>
      </trkpt>
      <trkpt lat="44.48468" lon="1.13214">
        <ele>95.7</ele>
        <time>2022-08-11T08:13:16Z</time>
      </trkpt>
      <trkpt lat="44.48478" lon="1.13213">
        <ele>95.1</ele>
        <time>2022-08-11T08:13:18Z</time>
      </trkpt>
      <trkpt lat="44.48488" lon="1.13208">
        <ele>95.2</ele>
        <time>2022-08-11T08:13:20Z</time>
      </trkpt>
      <trkpt lat="44.48497" lon="1.13203">
        <ele>95.5</ele>
        <time>2022-08-11T08:13:22Z</time>
      </trkpt>
      <trkpt lat="44.48506" lon="1.132">
        <ele>95.6</ele>
        <time>2022-08-11T08:13:24Z</time>
      </trkpt>
      <trkpt lat="44.48516" lon="1.13195">
        <ele>96.1</ele>
        <time>2022-08-11T08:13:26Z</time>
      </trkpt>
      <trkpt lat="44.48525" lon="1.1319">
        <ele>96.8</ele>
        <time>2022-08-11T08:13:28Z</time>
      </trkpt>
      <trkpt lat="44.48534" lon="1.13189">
        <ele>96.7</ele>
        <time>2022-08-11T08:13:30Z</time>
      </trkpt>
      <trkpt lat="44.48544" lon="1.13184">
        <ele>97.1</ele>
        <time>2022-08-11T08:13:32Z</time>
      </trkpt>
      <trkpt lat="44.48553" lon="1.13181">
        <ele>97.3</ele>
        <time>2022-08-11T08:13:34Z</time>
      </trkpt>
      <trkpt lat="44.48561" lon="1.13177">
        <ele>97.5</ele>
        <time>2022-08-11T08:13:36Z</time>
      </trkpt>
      <trkpt lat="44.48571" lon="1.13175">
        <ele>97.3</ele>
        <time>2022-08-11T08:13:38Z</time>
      </trkpt>
      <trkpt lat="44.48581" lon="1.13173">
        <ele>97.1</ele>
        <time>2022-08-11T08:13:40Z</time>
      </trkpt>
      <trkpt lat="44.4859" lon="1.1317">
        <ele>96.8</ele>
        <time>2022-08-11T08:13:42Z</time>
      </trkpt>
      <trkpt lat="44.48599" lon="1.13169">
        <ele>96</ele>
        <time>2022-08-11T08:13:44Z</time>
      </trkpt>
      <trkpt lat="44.48608" lon="1.13167">
        <ele>95.3</ele>
        <time>2022-08-11T08:13:46Z</time>
      </trkpt>
      <trkpt lat="44.48616" lon="1.13164">
        <ele>95</ele>
        <time>2022-08-11T08:13:48Z</time>
      </trkpt>
      <trkpt lat="44.48625" lon="1.13164">
        <ele>94.3</ele>
        <time>2022-08-11T08:13:50Z</time>
      </trkpt>
      <trkpt lat="44.48634" lon="1.13162">
        <ele>93.9</ele>
        <time>2022-08-11T08:13:52Z</time>
      </trkpt>
      <trkpt lat="44.48643" lon="1.13158">
        <ele>93.8</ele>
        <time>2022-08-11T08:13:54Z</time>
      </trkpt>
      <trkpt lat="44.48652" lon="1.13156">
        <ele>93.5</ele>
        <time>2022-08-11T08:13:56Z</time>
      </trkpt>
      <trkpt lat="44.48661" lon="1.13153">
        <ele>93.4</ele>
        <time>2022-08-11T08:13:58Z</time>
      </trkpt>
      <trkpt lat="44.4867" lon="1.1315">
        <ele>93.5</ele>
        <time>2022-08-11T08:14:00Z</time>
      </trkpt>
      <trkpt lat="44.48679" lon="1.13147">
        <ele>93.5</ele>
        <time>2022-08-11T08:14:02Z</time>
      </trkpt>
      <trkpt lat="44.48688" lon="1.13144">
        <ele>93.6</ele>
        <time>2022-08-11T08:14:04Z</time>
      </trkpt>
      <trkpt lat="44.48697" lon="1.13141">
        <ele>93.7</ele>
        <time>2022-08-11T08:14:06Z</time>
      </trkpt>
      <trkpt lat="44.48707" lon="1.13138">
        <ele>93.5</ele>
        <time>2022-08-11T08:14:08Z</time>
      </trkpt>
      <trkpt lat="44.48716" lon="1.13134">
        <ele>93.3</ele>
        <time>2022-08-11T08:14:10Z</time>
      </trkpt>
      <trkpt lat="44.48725" lon="1.13129">
        <ele>93.1</ele>
        <time>2022-08-11T08:14:12Z</time>
      </trkpt>
      <trkpt lat="44.48736" lon="1.13126">
        <ele>92.5</ele>
        <time>2022-08-11T08:14:14Z</time>
      </trkpt>
      <trkpt lat="44.48745" lon="1.13123">
        <ele>91.9</ele>
        <time>2022-08-11T08:14:16Z</time>
      </trkpt>
      <trkpt lat="44.48754" lon="1.13119">
        <ele>91.5</ele>
        <time>2022-08-11T08:14:18Z</time>
      </trkpt>
      <trkpt lat="44.48764" lon="1.13116">
        <ele>91.5</ele>
        <time>2022-08-11T08:14:20Z</time>
      </trkpt>
      <trkpt lat="44.48772" lon="1.13113">
        <ele>91.3</ele>
        <time>2022-08-11T08:14:22Z</time>
      </trkpt>
      <trkpt lat="44.48781" lon="1.1311">
        <ele>91.2</ele>
        <time>2022-08-11T08:14:24Z</time>
      </trkpt>
      <trkpt lat="44.48789" lon="1.13108">
        <ele>90.8</ele>
        <time>2022-08-11T08:14:26Z</time>
      </trkpt>
      <trkpt lat="44.48798" lon="1.13106">
        <ele>90.4</ele>
        <time>2022-08-11T08:14:28Z</time>
      </trkpt>
      <trkpt lat="44.48805" lon="1.13105">
        <ele>90</ele>
        <time>2022-08-11T08:14:30Z</time>
      </trkpt>
      <trkpt lat="44.48813" lon="1.13103">
        <ele>89.6</ele>
        <time>2022-08-11T08:14:32Z</time>
      </trkpt>
      <trkpt lat="44.48821" lon="1.131">
        <ele>89.1</ele>
        <time>2022-08-11T08:14:34Z</time>
      </trkpt>
      <trkpt lat="44.4883" lon="1.13097">
        <ele>88.6</ele>
        <time>2022-08-11T08:14:36Z</time>
      </trkpt>
      <trkpt lat="44.48838" lon="1.13095">
        <ele>88.3</ele>
        <time>2022-08-11T08:14:38Z</time>
      </trkpt>
      <trkpt lat="44.48846" lon="1.13092">
        <ele>88.3</ele>
        <time>2022-08-11T08:14:40Z</time>
      </trkpt>
      <trkpt lat="44.48856" lon="1.1309">
        <ele>88.1</ele>
        <time>2022-08-11T08:14:42Z</time>
      </trkpt>
      <trkpt lat="44.48865" lon="1.13087">
        <ele>88.1</ele>
        <time>2022-08-11T08:14:44Z</time>
      </trkpt>
      <trkpt lat="44.48875" lon="1.13085">
        <ele>88</ele>
        <time>2022-08-11T08:14:46Z</time>
      </trkpt>
      <trkpt lat="44.48885" lon="1.13083">
        <ele>87.8</ele>
        <time>2022-08-11T08:14:48Z</time>
      </trkpt>
      <trkpt lat="44.48895" lon="1.1308">
        <ele>87.7</ele>
        <time>2022-08-11T08:14:50Z</time>
      </trkpt>
      <trkpt lat="44.48905" lon="1.13078">
        <ele>87.6</ele>
        <time>2022-08-11T08:14:52Z</time>
      </trkpt>
      <trkpt lat="44.48915" lon="1.13074">
        <ele>87.6</ele>
        <time>2022-08-11T08:14:54Z</time>
      </trkpt>
      <trkpt lat="44.48925" lon="1.13072">
        <ele>87.5</ele>
        <time>2022-08-11T08:14:56Z</time>
      </trkpt>
      <trkpt lat="44.48935" lon="1.13069">
        <ele>87.6</ele>
        <time>2022-08-11T08:14:58Z</time>
      </trkpt>
      <trkpt lat="44.48945" lon="1.13066">
        <ele>87.5</ele>
        <time>2022-08-11T08:15:00Z</time>
      </trkpt>
      <trkpt lat="44.48955" lon="1.13065">
        <ele>87.4</ele>
        <time>2022-08-11T08:15:02Z</time>
      </trkpt>
      <trkpt lat="44.48966" lon="1.13062">
        <ele>87.4</ele>
        <time>2022-08-11T08:15:04Z</time>
      </trkpt>
      <trkpt lat="44.48976" lon="1.1306">
        <ele>87.3</ele>
        <time>2022-08-11T08:15:06Z</time>
      </trkpt>
      <trkpt lat="44.48986" lon="1.13059">
        <ele>87.1</ele>
        <time>2022-08-11T08:15:08Z</time>
      </trkpt>
      <trkpt lat="44.48996" lon="1.13059">
        <ele>86.9</ele>
        <time>2022-08-11T08:15:10Z</time>
      </trkpt>
      <trkpt lat="44.49006" lon="1.1306">
        <ele>86.8</ele>
        <time>2022-08-11T08:15:12Z</time>
      </trkpt>
      <trkpt lat="44.49016" lon="1.13062">
        <ele>86.8</ele>
        <time>2022-08-11T08:15:14Z</time>
      </trkpt>
      <trkpt lat="44.49025" lon="1.13063">
        <ele>86.7</ele>
        <time>2022-08-11T08:15:16Z</time>
      </trkpt>
      <trkpt lat="44.49036" lon="1.13064">
        <ele>86.7</ele>
        <time>2022-08-11T08:15:18Z</time>
      </trkpt>
      <trkpt lat="44.49046" lon="1.13066">
        <ele>86.6</ele>
        <time>2022-08-11T08:15:20Z</time>
      </trkpt>
      <trkpt lat="44.49055" lon="1.13068">
        <ele>86.6</ele>
        <time>2022-08-11T08:15:22Z</time>
      </trkpt>
      <trkpt lat="44.49066" lon="1.13069">
        <ele>86.5</ele>
        <time>2022-08-11T08:15:24Z</time>
      </trkpt>
      <trkpt lat="44.49077" lon="1.13071">
        <ele>86.5</ele>
        <time>2022-08-11T08:15:26Z</time>
      </trkpt>
      <trkpt lat="44.49087" lon="1.13073">
        <ele>86.4</ele>
        <time>2022-08-11T08:15:28Z</time>
      </trkpt>
      <trkpt lat="44.49097" lon="1.13075">
        <ele>86.3</ele>
        <time>2022-08-11T08:15:30Z</time>
      </trkpt>
      <trkpt lat="44.49108" lon="1.13078">
        <ele>86.2</ele>
        <time>2022-08-11T08:15:32Z</time>
      </trkpt>
      <trkpt lat="44.49118" lon="1.13081">
        <ele>86.1</ele>
        <time>2022-08-11T08:15:34Z</time>
      </trkpt>
      <trkpt lat="44.49128" lon="1.13084">
        <ele>86</ele>
        <time>2022-08-11T08:15:36Z</time>
      </trkpt>
      <trkpt lat="44.49138" lon="1.13087">
        <ele>85.9</ele>
        <time>2022-08-11T08:15:38Z</time>
      </trkpt>
      <trkpt lat="44.49149" lon="1.1309">
        <ele>85.8</ele>
        <time>2022-08-11T08:15:40Z</time>
      </trkpt>
      <trkpt lat="44.49159" lon="1.13094">
        <ele>85.6</ele>
        <time>2022-08-11T08:15:42Z</time>
      </trkpt>
      <trkpt lat="44.49169" lon="1.13097">
        <ele>85.5</ele>
        <time>2022-08-11T08:15:44Z</time>
      </trkpt>
      <trkpt lat="44.49179" lon="1.131">
        <ele>85.4</ele>
        <time>2022-08-11T08:15:46Z</time>
      </trkpt>
      <trkpt lat="44.49189" lon="1.13103">
        <ele>85.3</ele>
        <time>2022-08-11T08:15:48Z</time>
      </trkpt>
      <trkpt lat="44.49199" lon="1.13107">
        <ele>85.3</ele>
        <time>2022-08-11T08:15:50Z</time>
      </trkpt>
      <trkpt lat="44.49209" lon="1.1311">
        <ele>85.2</ele>
        <time>2022-08-11T08:15:52Z</time>
      </trkpt>
      <trkpt lat="44.49218" lon="1.13113">
        <ele>85.2</ele>
        <time>2022-08-11T08:15:54Z</time>
      </trkpt>
      <trkpt lat="44.49228" lon="1.13116">
        <ele>85.1</ele>
        <time>2022-08-11T08:15:56Z</time>
      </trkpt>
      <trkpt lat="44.49238" lon="1.13119">
        <ele>85.1</ele>
        <time>2022-08-11T08:15:58Z</time>
      </trkpt>
      <trkpt lat="44.49248" lon="1.13122">
        <ele>85.1</ele>
        <time>2022-08-11T08:16:00Z</time>
      </trkpt>
      <trkpt lat="44.49257" lon="1.13125">
        <ele>85.1</ele>
        <time>2022-08-11T08:16:02Z</time>
      </trkpt>
      <trkpt lat="44.49267" lon="1.13128">
        <ele>85.1</ele>
        <time>2022-08-11T08:16:04Z</time>
      </trkpt>
      <trkpt lat="44.49276" lon="1.13131">
        <ele>85.2</ele>
        <time>2022-08-11T08:16:06Z</time>
      </trkpt>
      <trkpt lat="44.49286" lon="1.13134">
        <ele>85.3</ele>
        <time>2022-08-11T08:16:08Z</time>
      </trkpt>
      <trkpt lat="44.49295" lon="1.13137">
        <ele>85.4</ele>
        <time>2022-08-11T08:16:10Z</time>
      </trkpt>
      <trkpt lat="44.49306" lon="1.1314">
        <ele>85.6</ele>
        <time>2022-08-11T08:16:12Z</time>
      </trkpt>
      <trkpt lat="44.49315" lon="1.13143">
        <ele>85.7</ele>
        <time>2022-08-11T08:16:14Z</time>
      </trkpt>
      <trkpt lat="44.49324" lon="1.13146">
        <ele>85.8</ele>
        <time>2022-08-11T08:16:16Z</time>
      </trkpt>
      <trkpt lat="44.49334" lon="1.13149">
        <ele>86</ele>
        <time>2022-08-11T08:16:18Z</time>
      </trkpt>
      <trkpt lat="44.49343" lon="1.13152">
        <ele>86</ele>
        <time>2022-08-11T08:16:20Z</time>
      </trkpt>
      <trkpt lat="44.49352" lon="1.13155">
        <ele>86</ele>
        <time>2022-08-11T08:16:22Z</time>
      </trkpt>
      <trkpt lat="44.49362" lon="1.13158">
        <ele>86</ele>
        <time>2022-08-11T08:16:24Z</time>
      </trkpt>
      <trkpt lat="44.49372" lon="1.13161">
        <ele>86</ele>
        <time>2022-08-11T08:16:26Z</time>
      </trkpt>
      <trkpt lat="44.49381" lon="1.13163">
        <ele>86</ele>
        <time>2022-08-11T08:16:28Z</time>
      </trkpt>
      <trkpt lat="44.49391" lon="1.13166">
        <ele>86</ele>
        <time>2022-08-11T08:16:30Z</time>
      </trkpt>
      <trkpt lat="44.494" lon="1.13169">
        <ele>85.9</ele>
        <time>2022-08-11T08:16:32Z</time>
      </trkpt>
      <trkpt lat="44.49409" lon="1.13171">
        <ele>85.9</ele>
        <time>2022-08-11T08:16:34Z</time>
      </trkpt>
      <trkpt lat="44.49419" lon="1.13174">
        <ele>85.8</ele>
        <time>2022-08-11T08:16:36Z</time>
      </trkpt>
      <trkpt lat="44.49428" lon="1.13177">
        <ele>85.8</ele>
        <time>2022-08-11T08:16:38Z</time>
      </trkpt>
      <trkpt lat="44.49437" lon="1.1318">
        <ele>85.7</ele>
        <time>2022-08-11T08:16:40Z</time>
      </trkpt>
      <trkpt lat="44.49446" lon="1.13183">
        <ele>85.7</ele>
        <time>2022-08-11T08:16:42Z</time>
      </trkpt>
      <trkpt lat="44.49455" lon="1.13186">
        <ele>85.6</ele>
        <time>2022-08-11T08:16:44Z</time>
      </trkpt>
      <trkpt lat="44.49464" lon="1.13189">
        <ele>85.6</ele>
        <time>2022-08-11T08:16:46Z</time>
      </trkpt>
      <trkpt lat="44.49473" lon="1.13192">
        <ele>85.6</ele>
        <time>2022-08-11T08:16:48Z</time>
      </trkpt>
      <trkpt lat="44.49482" lon="1.13195">
        <ele>85.6</ele>
        <time>2022-08-11T08:16:50Z</time>
      </trkpt>
      <trkpt lat="44.49491" lon="1.13197">
        <ele>85.6</ele>
        <time>2022-08-11T08:16:52Z</time>
      </trkpt>
      <trkpt lat="44.495" lon="1.13201">
        <ele>85.6</ele>
        <time>2022-08-11T08:16:54Z</time>
      </trkpt>
      <trkpt lat="44.49509" lon="1.13203">
        <ele>85.7</ele>
        <time>2022-08-11T08:16:56Z</time>
      </trkpt>
      <trkpt lat="44.49519" lon="1.13206">
        <ele>85.7</ele>
        <time>2022-08-11T08:16:58Z</time>
      </trkpt>
      <trkpt lat="44.49528" lon="1.13209">
        <ele>85.8</ele>
        <time>2022-08-11T08:17:00Z</time>
      </trkpt>
      <trkpt lat="44.49537" lon="1.13211">
        <ele>85.9</ele>
        <time>2022-08-11T08:17:02Z</time>
      </trkpt>
      <trkpt lat="44.49545" lon="1.13214">
        <ele>86</ele>
        <time>2022-08-11T08:17:04Z</time>
      </trkpt>
      <trkpt lat="44.49554" lon="1.13217">
        <ele>86</ele>
        <time>2022-08-11T08:17:06Z</time>
      </trkpt>
      <trkpt lat="44.49562" lon="1.13219">
        <ele>86.1</ele>
        <time>2022-08-11T08:17:08Z</time>
      </trkpt>
      <trkpt lat="44.49571" lon="1.13222">
        <ele>86.2</ele>
        <time>2022-08-11T08:17:10Z</time>
      </trkpt>
      <trkpt lat="44.49579" lon="1.13224">
        <ele>86.3</ele>
        <time>2022-08-11T08:17:12Z</time>
      </trkpt>
      <trkpt lat="44.49587" lon="1.13226">
        <ele>86.3</ele>
        <time>2022-08-11T08:17:14Z</time>
      </trkpt>
      <trkpt lat="44.49596" lon="1.13228">
        <ele>86.2</ele>
        <time>2022-08-11T08:17:16Z</time>
      </trkpt>
      <trkpt lat="44.49604" lon="1.13231">
        <ele>86.2</ele>
        <time>2022-08-11T08:17:18Z</time>
      </trkpt>
      <trkpt lat="44.49613" lon="1.13233">
        <ele>86.1</ele>
        <time>2022-08-11T08:17:20Z</time>
      </trkpt>
      <trkpt lat="44.49622" lon="1.13235">
        <ele>86.1</ele>
        <time>2022-08-11T08:17:22Z</time>
      </trkpt>
      <trkpt lat="44.4963" lon="1.13238">
        <ele>86.1</ele>
        <time>2022-08-11T08:17:24Z</time>
      </trkpt>
      <trkpt lat="44.49639" lon="1.1324">
        <ele>86</ele>
        <time>2022-08-11T08:17:26Z</time>
      </trkpt>
      <trkpt lat="44.49647" lon="1.13241">
        <ele>86</ele>
        <time>2022-08-11T08:17:28Z</time>
      </trkpt>
      <trkpt lat="44.49656" lon="1.13243">
        <ele>86</ele>
        <time>2022-08-11T08:17:30Z</time>
      </trkpt>
      <trkpt lat="44.49665" lon="1.13245">
        <ele>86</ele>
        <time>2022-08-11T08:17:32Z</time>
      </trkpt>
      <trkpt lat="44.49674" lon="1.13246">
        <ele>85.9</ele>
        <time>2022-08-11T08:17:34Z</time>
      </trkpt>
      <trkpt lat="44.49683" lon="1.13247">
        <ele>85.8</ele>
        <time>2022-08-11T08:17:36Z</time>
      </trkpt>
      <trkpt lat="44.49692" lon="1.13248">
        <ele>85.7</ele>
        <time>2022-08-11T08:17:38Z</time>
      </trkpt>
      <trkpt lat="44.49702" lon="1.1325">
        <ele>85.6</ele>
        <time>2022-08-11T08:17:40Z</time>
      </trkpt>
      <trkpt lat="44.49711" lon="1.13251">
        <ele>85.5</ele>
        <time>2022-08-11T08:17:42Z</time>
      </trkpt>
      <trkpt lat="44.4972" lon="1.13251">
        <ele>85.3</ele>
        <time>2022-08-11T08:17:44Z</time>
      </trkpt>
      <trkpt lat="44.49729" lon="1.13251">
        <ele>85.2</ele>
        <time>2022-08-11T08:17:46Z</time>
      </trkpt>
      <trkpt lat="44.49738" lon="1.13251">
        <ele>85.1</ele>
        <time>2022-08-11T08:17:48Z</time>
      </trkpt>
      <trkpt lat="44.49747" lon="1.1325">
        <ele>85</ele>
        <time>2022-08-11T08:17:50Z</time>
      </trkpt>
      <trkpt lat="44.49757" lon="1.13251">
        <ele>85.1</ele>
        <time>2022-08-11T08:17:52Z</time>
      </trkpt>
      <trkpt lat="44.49767" lon="1.13249">
        <ele>85.2</ele>
        <time>2022-08-11T08:17:54Z</time>
      </trkpt>
      <trkpt lat="44.49776" lon="1.13247">
        <ele>85.3</ele>
        <time>2022-08-11T08:17:56Z</time>
      </trkpt>
      <trkpt lat="44.49786" lon="1.13245">
        <ele>85.4</ele>
        <time>2022-08-11T08:17:58Z</time>
      </trkpt>
      <trkpt lat="44.49796" lon="1.13241">
        <ele>85.5</ele>
        <time>2022-08-11T08:18:00Z</time>
      </trkpt>
      <trkpt lat="44.49805" lon="1.13237">
        <ele>85.7</ele>
        <time>2022-08-11T08:18:02Z</time>
      </trkpt>
      <trkpt lat="44.49815" lon="1.13233">
        <ele>85.8</ele>
        <time>2022-08-11T08:18:04Z</time>
      </trkpt>
      <trkpt lat="44.49824" lon="1.13228">
        <ele>85.9</ele>
        <time>2022-08-11T08:18:06Z</time>
      </trkpt>
      <trkpt lat="44.49833" lon="1.13224">
        <ele>86</ele>
        <time>2022-08-11T08:18:08Z</time>
      </trkpt>
      <trkpt lat="44.49841" lon="1.1322">
        <ele>86</ele>
        <time>2022-08-11T08:18:10Z</time>
      </trkpt>
      <trkpt lat="44.49849" lon="1.1322">
        <ele>85.9</ele>
        <time>2022-08-11T08:18:12Z</time>
      </trkpt>
      <trkpt lat="44.49853" lon="1.13231">
        <ele>85.9</ele>
        <time>2022-08-11T08:18:14Z</time>
      </trkpt>
      <trkpt lat="44.49855" lon="1.13243">
        <ele>85.8</ele>
        <time>2022-08-11T08:18:16Z</time>
      </trkpt>
      <trkpt lat="44.49858" lon="1.13255">
        <ele>85.7</ele>
        <time>2022-08-11T08:18:18Z</time>
      </trkpt>
      <trkpt lat="44.4986" lon="1.13267">
        <ele>85.5</ele>
        <time>2022-08-11T08:18:20Z</time>
      </trkpt>
      <trkpt lat="44.49863" lon="1.13279">
        <ele>85.4</ele>
        <time>2022-08-11T08:18:22Z</time>
      </trkpt>
      <trkpt lat="44.49866" lon="1.13292">
        <ele>85.3</ele>
        <time>2022-08-11T08:18:24Z</time>
      </trkpt>
      <trkpt lat="44.49868" lon="1.13304">
        <ele>85.2</ele>
        <time>2022-08-11T08:18:26Z</time>
      </trkpt>
      <trkpt lat="44.49871" lon="1.13316">
        <ele>85.1</ele>
        <time>2022-08-11T08:18:28Z</time>
      </trkpt>
      <trkpt lat="44.49873" lon="1.13328">
        <ele>85</ele>
        <time>2022-08-11T08:18:30Z</time>
      </trkpt>
      <trkpt lat="44.49876" lon="1.13339">
        <ele>84.9</ele>
        <time>2022-08-11T08:18:32Z</time>
      </trkpt>
      <trkpt lat="44.49879" lon="1.13351">
        <ele>84.5</ele>
        <time>2022-08-11T08:18:34Z</time>
      </trkpt>
      <trkpt lat="44.49881" lon="1.13363">
        <ele>84.2</ele>
        <time>2022-08-11T08:18:36Z</time>
      </trkpt>
      <trkpt lat="44.49883" lon="1.13374">
        <ele>83.9</ele>
        <time>2022-08-11T08:18:38Z</time>
      </trkpt>
      <trkpt lat="44.49887" lon="1.13385">
        <ele>83.6</ele>
        <time>2022-08-11T08:18:40Z</time>
      </trkpt>
      <trkpt lat="44.4989" lon="1.13398">
        <ele>83.2</ele>
        <time>2022-08-11T08:18:42Z</time>
      </trkpt>
      <trkpt lat="44.49893" lon="1.13412">
        <ele>82.7</ele>
        <time>2022-08-11T08:18:44Z</time>
      </trkpt>
      <trkpt lat="44.49896" lon="1.13427">
        <ele>82.5</ele>
        <time>2022-08-11T08:18:46Z</time>
      </trkpt>
      <trkpt lat="44.499" lon="1.13443">
        <ele>82.3</ele>
        <time>2022-08-11T08:18:48Z</time>
      </trkpt>
      <trkpt lat="44.49903" lon="1.13458">
        <ele>82.2</ele>
        <time>2022-08-11T08:18:50Z</time>
      </trkpt>
      <trkpt lat="44.49906" lon="1.13473">
        <ele>82.2</ele>
        <time>2022-08-11T08:18:52Z</time>
      </trkpt>
      <trkpt lat="44.49909" lon="1.13485">
        <ele>82.1</ele>
        <time>2022-08-11T08:18:54Z</time>
      </trkpt>
      <trkpt lat="44.49911" lon="1.13497">
        <ele>82.1</ele>
        <time>2022-08-11T08:18:56Z</time>
      </trkpt>
      <trkpt lat="44.49914" lon="1.13505">
        <ele>82.1</ele>
        <time>2022-08-11T08:18:58Z</time>
      </trkpt>
      <trkpt lat="44.49916" lon="1.13508">
        <ele>82.1</ele>
        <time>2022-08-11T08:19:00Z</time>
      </trkpt>
      <trkpt lat="44.4992" lon="1.13509">
        <ele>82.1</ele>
        <time>2022-08-11T08:19:02Z</time>
      </trkpt>
      <trkpt lat="44.49927" lon="1.13507">
        <ele>82.2</ele>
        <time>2022-08-11T08:19:04Z</time>
      </trkpt>
      <trkpt lat="44.49935" lon="1.13505">
        <ele>82.2</ele>
        <time>2022-08-11T08:19:06Z</time>
      </trkpt>
      <trkpt lat="44.49944" lon="1.13504">
        <ele>82.3</ele>
        <time>2022-08-11T08:19:08Z</time>
      </trkpt>
      <trkpt lat="44.49951" lon="1.13502">
        <ele>82.4</ele>
        <time>2022-08-11T08:19:10Z</time>
      </trkpt>
      <trkpt lat="44.49959" lon="1.135">
        <ele>82.5</ele>
        <time>2022-08-11T08:19:12Z</time>
      </trkpt>
      <trkpt lat="44.49967" lon="1.13499">
        <ele>82.6</ele>
        <time>2022-08-11T08:19:14Z</time>
      </trkpt>
      <trkpt lat="44.49974" lon="1.13497">
        <ele>82.7</ele>
        <time>2022-08-11T08:19:16Z</time>
      </trkpt>
      <trkpt lat="44.49982" lon="1.13494">
        <ele>82.8</ele>
        <time>2022-08-11T08:19:18Z</time>
      </trkpt>
      <trkpt lat="44.49989" lon="1.13492">
        <ele>82.9</ele>
        <time>2022-08-11T08:19:20Z</time>
      </trkpt>
      <trkpt lat="44.49997" lon="1.1349">
        <ele>83</ele>
        <time>2022-08-11T08:19:22Z</time>
      </trkpt>
      <trkpt lat="44.50005" lon="1.13489">
        <ele>83.1</ele>
        <time>2022-08-11T08:19:24Z</time>
      </trkpt>
      <trkpt lat="44.50012" lon="1.13486">
        <ele>83.2</ele>
        <time>2022-08-11T08:19:26Z</time>
      </trkpt>
      <trkpt lat="44.5002" lon="1.13483">
        <ele>83.3</ele>
        <time>2022-08-11T08:19:28Z</time>
      </trkpt>
      <trkpt lat="44.50027" lon="1.13479">
        <ele>83.4</ele>
        <time>2022-08-11T08:19:30Z</time>
      </trkpt>
      <trkpt lat="44.50035" lon="1.13477">
        <ele>83.5</ele>
        <time>2022-08-11T08:19:32Z</time>
      </trkpt>
      <trkpt lat="44.50043" lon="1.13474">
        <ele>83.7</ele>
        <time>2022-08-11T08:19:34Z</time>
      </trkpt>
      <trkpt lat="44.5005" lon="1.13471">
        <ele>83.8</ele>
        <time>2022-08-11T08:19:36Z</time>
      </trkpt>
      <trkpt lat="44.50056" lon="1.13468">
        <ele>83.9</ele>
        <time>2022-08-11T08:19:38Z</time>
      </trkpt>
      <trkpt lat="44.50063" lon="1.13464">
        <ele>84.1</ele>
        <time>2022-08-11T08:19:40Z</time>
      </trkpt>
      <trkpt lat="44.50071" lon="1.1346">
        <ele>84.2</ele>
        <time>2022-08-11T08:19:42Z</time>
      </trkpt>
      <trkpt lat="44.50078" lon="1.13457">
        <ele>84.4</ele>
        <time>2022-08-11T08:19:44Z</time>
      </trkpt>
      <trkpt lat="44.50085" lon="1.13454">
        <ele>84.5</ele>
        <time>2022-08-11T08:19:46Z</time>
      </trkpt>
      <trkpt lat="44.50092" lon="1.1345">
        <ele>84.5</ele>
        <time>2022-08-11T08:19:48Z</time>
      </trkpt>
      <trkpt lat="44.50099" lon="1.13446">
        <ele>84.5</ele>
        <time>2022-08-11T08:19:50Z</time>
      </trkpt>
      <trkpt lat="44.50105" lon="1.13442">
        <ele>84.4</ele>
        <time>2022-08-11T08:19:52Z</time>
      </trkpt>
      <trkpt lat="44.5011" lon="1.1344">
        <ele>84.4</ele>
        <time>2022-08-11T08:19:54Z</time>
      </trkpt>
      <trkpt lat="44.50115" lon="1.1344">
        <ele>84.3</ele>
        <time>2022-08-11T08:19:56Z</time>
      </trkpt>
      <trkpt lat="44.5012" lon="1.13442">
        <ele>84.3</ele>
        <time>2022-08-11T08:19:58Z</time>
      </trkpt>
      <trkpt lat="44.50124" lon="1.13448">
        <ele>84.1</ele>
        <time>2022-08-11T08:20:00Z</time>
      </trkpt>
      <trkpt lat="44.5013" lon="1.13452">
        <ele>84</ele>
        <time>2022-08-11T08:20:02Z</time>
      </trkpt>
      <trkpt lat="44.50135" lon="1.13457">
        <ele>83.9</ele>
        <time>2022-08-11T08:20:04Z</time>
      </trkpt>
      <trkpt lat="44.50141" lon="1.13464">
        <ele>83.7</ele>
        <time>2022-08-11T08:20:06Z</time>
      </trkpt>
      <trkpt lat="44.50145" lon="1.13473">
        <ele>83.6</ele>
        <time>2022-08-11T08:20:08Z</time>
      </trkpt>
      <trkpt lat="44.50149" lon="1.13483">
        <ele>83.4</ele>
        <time>2022-08-11T08:20:10Z</time>
      </trkpt>
      <trkpt lat="44.50152" lon="1.13492">
        <ele>83.3</ele>
        <time>2022-08-11T08:20:12Z</time>
      </trkpt>
      <trkpt lat="44.50156" lon="1.13502">
        <ele>83.1</ele>
        <time>2022-08-11T08:20:14Z</time>
      </trkpt>
      <trkpt lat="44.5016" lon="1.13512">
        <ele>82.8</ele>
        <time>2022-08-11T08:20:16Z</time>
      </trkpt>
      <trkpt lat="44.50163" lon="1.13522">
        <ele>82.5</ele>
        <time>2022-08-11T08:20:18Z</time>
      </trkpt>
      <trkpt lat="44.50167" lon="1.13532">
        <ele>82.2</ele>
        <time>2022-08-11T08:20:20Z</time>
      </trkpt>
      <trkpt lat="44.5017" lon="1.13541">
        <ele>82</ele>
        <time>2022-08-11T08:20:22Z</time>
      </trkpt>
      <trkpt lat="44.50174" lon="1.13545">
        <ele>81.8</ele>
        <time>2022-08-11T08:20:24Z</time>
      </trkpt>
      <trkpt lat="44.50177" lon="1.13546">
        <ele>81.8</ele>
        <time>2022-08-11T08:20:26Z</time>
      </trkpt>
      <trkpt lat="44.50179" lon="1.13548">
        <ele>81.8</ele>
        <time>2022-08-11T08:20:28Z</time>
      </trkpt>
      <trkpt lat="44.50179" lon="1.13549">
        <ele>81.7</ele>
        <time>2022-08-11T08:20:30Z</time>
      </trkpt>
      <trkpt lat="44.50179" lon="1.13549">
        <ele>81.7</ele>
        <time>2022-08-11T08:20:32Z</time>
      </trkpt>
      <trkpt lat="44.5018" lon="1.13549">
        <ele>81.7</ele>
        <time>2022-08-11T08:20:34Z</time>
      </trkpt>
      <trkpt lat="44.5018" lon="1.13549">
        <ele>81.7</ele>
        <time>2022-08-11T08:20:36Z</time>
      </trkpt>
      <trkpt lat="44.50181" lon="1.1355">
        <ele>81.7</ele>
        <time>2022-08-11T08:20:38Z</time>
      </trkpt>
      <trkpt lat="44.50175" lon="1.13574">
        <ele>81.3</ele>
        <time>2022-08-11T08:22:32Z</time>
      </trkpt>
      <trkpt lat="44.50178" lon="1.13581">
        <ele>81.2</ele>
        <time>2022-08-11T08:22:34Z</time>
      </trkpt>
      <trkpt lat="44.50179" lon="1.13587">
        <ele>81.2</ele>
        <time>2022-08-11T08:22:36Z</time>
      </trkpt>
      <trkpt lat="44.50181" lon="1.13593">
        <ele>81.3</ele>
        <time>2022-08-11T08:22:38Z</time>
      </trkpt>
      <trkpt lat="44.50182" lon="1.13599">
        <ele>81.3</ele>
        <time>2022-08-11T08:22:40Z</time>
      </trkpt>
      <trkpt lat="44.50183" lon="1.13605">
        <ele>81.4</ele>
        <time>2022-08-11T08:22:42Z</time>
      </trkpt>
      <trkpt lat="44.50184" lon="1.13611">
        <ele>81.5</ele>
        <time>2022-08-11T08:22:44Z</time>
      </trkpt>
      <trkpt lat="44.50185" lon="1.13617">
        <ele>81.5</ele>
        <time>2022-08-11T08:22:46Z</time>
      </trkpt>
      <trkpt lat="44.50186" lon="1.13624">
        <ele>81.6</ele>
        <time>2022-08-11T08:22:48Z</time>
      </trkpt>
      <trkpt lat="44.50188" lon="1.1363">
        <ele>81.7</ele>
        <time>2022-08-11T08:22:50Z</time>
      </trkpt>
      <trkpt lat="44.50189" lon="1.13638">
        <ele>81.7</ele>
        <time>2022-08-11T08:22:52Z</time>
      </trkpt>
      <trkpt lat="44.50191" lon="1.13645">
        <ele>81.8</ele>
        <time>2022-08-11T08:22:54Z</time>
      </trkpt>
      <trkpt lat="44.50192" lon="1.13654">
        <ele>81.9</ele>
        <time>2022-08-11T08:22:56Z</time>
      </trkpt>
      <trkpt lat="44.50194" lon="1.13663">
        <ele>82</ele>
        <time>2022-08-11T08:22:58Z</time>
      </trkpt>
      <trkpt lat="44.50196" lon="1.13673">
        <ele>82.5</ele>
        <time>2022-08-11T08:23:00Z</time>
      </trkpt>
      <trkpt lat="44.50198" lon="1.13684">
        <ele>83.3</ele>
        <time>2022-08-11T08:23:02Z</time>
      </trkpt>
      <trkpt lat="44.502" lon="1.13696">
        <ele>84.2</ele>
        <time>2022-08-11T08:23:04Z</time>
      </trkpt>
      <trkpt lat="44.50202" lon="1.13709">
        <ele>85.1</ele>
        <time>2022-08-11T08:23:06Z</time>
      </trkpt>
      <trkpt lat="44.50205" lon="1.13721">
        <ele>86</ele>
        <time>2022-08-11T08:23:08Z</time>
      </trkpt>
      <trkpt lat="44.50207" lon="1.13732">
        <ele>86.8</ele>
        <time>2022-08-11T08:23:10Z</time>
      </trkpt>
      <trkpt lat="44.50209" lon="1.13742">
        <ele>87.4</ele>
        <time>2022-08-11T08:23:12Z</time>
      </trkpt>
      <trkpt lat="44.5021" lon="1.13751">
        <ele>88</ele>
        <time>2022-08-11T08:23:14Z</time>
      </trkpt>
      <trkpt lat="44.50212" lon="1.13759">
        <ele>88.8</ele>
        <time>2022-08-11T08:23:16Z</time>
      </trkpt>
      <trkpt lat="44.50214" lon="1.13766">
        <ele>89.4</ele>
        <time>2022-08-11T08:23:18Z</time>
      </trkpt>
      <trkpt lat="44.50215" lon="1.13775">
        <ele>90.1</ele>
        <time>2022-08-11T08:23:20Z</time>
      </trkpt>
      <trkpt lat="44.50217" lon="1.13784">
        <ele>90.8</ele>
        <time>2022-08-11T08:23:22Z</time>
      </trkpt>
      <trkpt lat="44.50219" lon="1.13792">
        <ele>91.3</ele>
        <time>2022-08-11T08:23:24Z</time>
      </trkpt>
      <trkpt lat="44.50221" lon="1.138">
        <ele>91.8</ele>
        <time>2022-08-11T08:23:26Z</time>
      </trkpt>
      <trkpt lat="44.50222" lon="1.13807">
        <ele>92.2</ele>
        <time>2022-08-11T08:23:28Z</time>
      </trkpt>
      <trkpt lat="44.50224" lon="1.13813">
        <ele>92.5</ele>
        <time>2022-08-11T08:23:30Z</time>
      </trkpt>
      <trkpt lat="44.50225" lon="1.13821">
        <ele>92.9</ele>
        <time>2022-08-11T08:23:32Z</time>
      </trkpt>
      <trkpt lat="44.50227" lon="1.13828">
        <ele>93.3</ele>
        <time>2022-08-11T08:23:34Z</time>
      </trkpt>
      <trkpt lat="44.50228" lon="1.13836">
        <ele>93.5</ele>
        <time>2022-08-11T08:23:36Z</time>
      </trkpt>
      <trkpt lat="44.5023" lon="1.13844">
        <ele>93.6</ele>
        <time>2022-08-11T08:23:38Z</time>
      </trkpt>
      <trkpt lat="44.50231" lon="1.13853">
        <ele>93.8</ele>
        <time>2022-08-11T08:23:40Z</time>
      </trkpt>
      <trkpt lat="44.50233" lon="1.13861">
        <ele>93.8</ele>
        <time>2022-08-11T08:23:42Z</time>
      </trkpt>
      <trkpt lat="44.50236" lon="1.13868">
        <ele>93.7</ele>
        <time>2022-08-11T08:23:44Z</time>
      </trkpt>
      <trkpt lat="44.50237" lon="1.13876">
        <ele>93.7</ele>
        <time>2022-08-11T08:23:46Z</time>
      </trkpt>
      <trkpt lat="44.50239" lon="1.13884">
        <ele>93.7</ele>
        <time>2022-08-11T08:23:48Z</time>
      </trkpt>
      <trkpt lat="44.50239" lon="1.13892">
        <ele>94.2</ele>
        <time>2022-08-11T08:23:50Z</time>
      </trkpt>
      <trkpt lat="44.50242" lon="1.13899">
        <ele>93.9</ele>
        <time>2022-08-11T08:23:52Z</time>
      </trkpt>
      <trkpt lat="44.50245" lon="1.13907">
        <ele>93.7</ele>
        <time>2022-08-11T08:23:54Z</time>
      </trkpt>
      <trkpt lat="44.50245" lon="1.13914">
        <ele>93.9</ele>
        <time>2022-08-11T08:23:56Z</time>
      </trkpt>
      <trkpt lat="44.50246" lon="1.13921">
        <ele>93.7</ele>
        <time>2022-08-11T08:23:58Z</time>
      </trkpt>
      <trkpt lat="44.50248" lon="1.13929">
        <ele>93.3</ele>
        <time>2022-08-11T08:24:00Z</time>
      </trkpt>
      <trkpt lat="44.50249" lon="1.13936">
        <ele>93.1</ele>
        <time>2022-08-11T08:24:02Z</time>
      </trkpt>
      <trkpt lat="44.50252" lon="1.13942">
        <ele>93.2</ele>
        <time>2022-08-11T08:24:04Z</time>
      </trkpt>
      <trkpt lat="44.50255" lon="1.13947">
        <ele>93.7</ele>
        <time>2022-08-11T08:24:06Z</time>
      </trkpt>
      <trkpt lat="44.50257" lon="1.13951">
        <ele>94</ele>
        <time>2022-08-11T08:24:08Z</time>
      </trkpt>
      <trkpt lat="44.50261" lon="1.13955">
        <ele>94.4</ele>
        <time>2022-08-11T08:24:10Z</time>
      </trkpt>
      <trkpt lat="44.50262" lon="1.13958">
        <ele>94.7</ele>
        <time>2022-08-11T08:24:12Z</time>
      </trkpt>
      <trkpt lat="44.50264" lon="1.13962">
        <ele>94.9</ele>
        <time>2022-08-11T08:24:14Z</time>
      </trkpt>
      <trkpt lat="44.50264" lon="1.13967">
        <ele>95</ele>
        <time>2022-08-11T08:24:16Z</time>
      </trkpt>
      <trkpt lat="44.50263" lon="1.13971">
        <ele>94.9</ele>
        <time>2022-08-11T08:24:18Z</time>
      </trkpt>
      <trkpt lat="44.50263" lon="1.13975">
        <ele>94.9</ele>
        <time>2022-08-11T08:24:20Z</time>
      </trkpt>
      <trkpt lat="44.50261" lon="1.1398">
        <ele>94.7</ele>
        <time>2022-08-11T08:24:22Z</time>
      </trkpt>
      <trkpt lat="44.50258" lon="1.13985">
        <ele>94.3</ele>
        <time>2022-08-11T08:24:24Z</time>
      </trkpt>
      <trkpt lat="44.50256" lon="1.13991">
        <ele>94</ele>
        <time>2022-08-11T08:24:26Z</time>
      </trkpt>
      <trkpt lat="44.50255" lon="1.13998">
        <ele>93.8</ele>
        <time>2022-08-11T08:24:28Z</time>
      </trkpt>
      <trkpt lat="44.50256" lon="1.14003">
        <ele>94</ele>
        <time>2022-08-11T08:24:30Z</time>
      </trkpt>
      <trkpt lat="44.50255" lon="1.14009">
        <ele>94</ele>
        <time>2022-08-11T08:24:32Z</time>
      </trkpt>
      <trkpt lat="44.50257" lon="1.14013">
        <ele>94.4</ele>
        <time>2022-08-11T08:24:34Z</time>
      </trkpt>
      <trkpt lat="44.5026" lon="1.14013">
        <ele>94.9</ele>
        <time>2022-08-11T08:24:36Z</time>
      </trkpt>
      <trkpt lat="44.50259" lon="1.14011">
        <ele>94.8</ele>
        <time>2022-08-11T08:24:38Z</time>
      </trkpt>
      <trkpt lat="44.50258" lon="1.14011">
        <ele>94.6</ele>
        <time>2022-08-11T08:24:40Z</time>
      </trkpt>
      <trkpt lat="44.50256" lon="1.1401">
        <ele>94.3</ele>
        <time>2022-08-11T08:24:42Z</time>
      </trkpt>
      <trkpt lat="44.50256" lon="1.14009">
        <ele>94.1</ele>
        <time>2022-08-11T08:24:44Z</time>
      </trkpt>
      <trkpt lat="44.50256" lon="1.14009">
        <ele>94.1</ele>
        <time>2022-08-11T08:24:46Z</time>
      </trkpt>
      <trkpt lat="44.50256" lon="1.14008">
        <ele>94.2</ele>
        <time>2022-08-11T08:24:48Z</time>
      </trkpt>
      <trkpt lat="44.50256" lon="1.14007">
        <ele>94.1</ele>
        <time>2022-08-11T08:24:50Z</time>
      </trkpt>
      <trkpt lat="44.50256" lon="1.14007">
        <ele>94.1</ele>
        <time>2022-08-11T08:24:52Z</time>
      </trkpt>
      <trkpt lat="44.50255" lon="1.14006">
        <ele>93.9</ele>
        <time>2022-08-11T08:24:56Z</time>
      </trkpt>
      <trkpt lat="44.50254" lon="1.14006">
        <ele>93.7</ele>
        <time>2022-08-11T08:25:00Z</time>
      </trkpt>
      <trkpt lat="44.50253" lon="1.14006">
        <ele>93.6</ele>
        <time>2022-08-11T08:25:02Z</time>
      </trkpt>
      <trkpt lat="44.50253" lon="1.14007">
        <ele>93.6</ele>
        <time>2022-08-11T08:25:04Z</time>
      </trkpt>
      <trkpt lat="44.50253" lon="1.14006">
        <ele>93.6</ele>
        <time>2022-08-11T08:25:06Z</time>
      </trkpt>
      <trkpt lat="44.50253" lon="1.14007">
        <ele>93.6</ele>
        <time>2022-08-11T08:25:08Z</time>
      </trkpt>
      <trkpt lat="44.50253" lon="1.14006">
        <ele>93.6</ele>
        <time>2022-08-11T08:25:10Z</time>
      </trkpt>
      <trkpt lat="44.50253" lon="1.14006">
        <ele>93.6</ele>
        <time>2022-08-11T08:25:12Z</time>
      </trkpt>
      <trkpt lat="44.50252" lon="1.14006">
        <ele>93.5</ele>
        <time>2022-08-11T08:25:14Z</time>
      </trkpt>
      <trkpt lat="44.50253" lon="1.14006">
        <ele>93.7</ele>
        <time>2022-08-11T08:25:16Z</time>
      </trkpt>
      <trkpt lat="44.50253" lon="1.14006">
        <ele>93.6</ele>
        <time>2022-08-11T08:25:18Z</time>
      </trkpt>
      <trkpt lat="44.50253" lon="1.14006">
        <ele>93.6</ele>
        <time>2022-08-11T08:25:20Z</time>
      </trkpt>
      <trkpt lat="44.50253" lon="1.14006">
        <ele>93.6</ele>
        <time>2022-08-11T08:25:22Z</time>
      </trkpt>
      <trkpt lat="44.50253" lon="1.14006">
        <ele>93.6</ele>
        <time>2022-08-11T08:25:24Z</time>
      </trkpt>
      <trkpt lat="44.50253" lon="1.14006">
        <ele>93.5</ele>
        <time>2022-08-11T08:25:26Z</time>
      </trkpt>
      <trkpt lat="44.50253" lon="1.14007">
        <ele>93.6</ele>
        <time>2022-08-11T08:25:30Z</time>
      </trkpt>
      <trkpt lat="44.50253" lon="1.14009">
        <ele>93.6</ele>
        <time>2022-08-11T08:25:32Z</time>
      </trkpt>
      <trkpt lat="44.50253" lon="1.14009">
        <ele>93.6</ele>
        <time>2022-08-11T08:25:34Z</time>
      </trkpt>
      <trkpt lat="44.50253" lon="1.14009">
        <ele>93.6</ele>
        <time>2022-08-11T08:25:36Z</time>
      </trkpt>
      <trkpt lat="44.50252" lon="1.14009">
        <ele>93.4</ele>
        <time>2022-08-11T08:25:38Z</time>
      </trkpt>
      <trkpt lat="44.50252" lon="1.14009">
        <ele>93.4</ele>
        <time>2022-08-11T08:25:40Z</time>
      </trkpt>
      <trkpt lat="44.50252" lon="1.14009">
        <ele>93.4</ele>
        <time>2022-08-11T08:25:44Z</time>
      </trkpt>
      <trkpt lat="44.50254" lon="1.14011">
        <ele>93.8</ele>
        <time>2022-08-11T08:25:48Z</time>
      </trkpt>
      <trkpt lat="44.50253" lon="1.1401">
        <ele>93.6</ele>
        <time>2022-08-11T08:25:52Z</time>
      </trkpt>
      <trkpt lat="44.50253" lon="1.1401">
        <ele>93.6</ele>
        <time>2022-08-11T08:25:56Z</time>
      </trkpt>
      <trkpt lat="44.50253" lon="1.14009">
        <ele>93.6</ele>
        <time>2022-08-11T08:25:58Z</time>
      </trkpt>
      <trkpt lat="44.50252" lon="1.14008">
        <ele>93.5</ele>
        <time>2022-08-11T08:26:00Z</time>
      </trkpt>
      <trkpt lat="44.50252" lon="1.14008">
        <ele>93.5</ele>
        <time>2022-08-11T08:26:02Z</time>
      </trkpt>
      <trkpt lat="44.50253" lon="1.14008">
        <ele>93.6</ele>
        <time>2022-08-11T08:26:04Z</time>
      </trkpt>
      <trkpt lat="44.50253" lon="1.14009">
        <ele>93.6</ele>
        <time>2022-08-11T08:26:06Z</time>
      </trkpt>
      <trkpt lat="44.50253" lon="1.14009">
        <ele>93.6</ele>
        <time>2022-08-11T08:26:08Z</time>
      </trkpt>
      <trkpt lat="44.50251" lon="1.14008">
        <ele>93.3</ele>
        <time>2022-08-11T08:26:12Z</time>
      </trkpt>
      <trkpt lat="44.50252" lon="1.14007">
        <ele>93.4</ele>
        <time>2022-08-11T08:26:14Z</time>
      </trkpt>
      <trkpt lat="44.50252" lon="1.14007">
        <ele>93.4</ele>
        <time>2022-08-11T08:26:16Z</time>
      </trkpt>
      <trkpt lat="44.50252" lon="1.14007">
        <ele>93.4</ele>
        <time>2022-08-11T08:26:18Z</time>
      </trkpt>
      <trkpt lat="44.50252" lon="1.14007">
        <ele>93.4</ele>
        <time>2022-08-11T08:26:20Z</time>
      </trkpt>
      <trkpt lat="44.50252" lon="1.14007">
        <ele>93.4</ele>
        <time>2022-08-11T08:26:24Z</time>
      </trkpt>
      <trkpt lat="44.50252" lon="1.14007">
        <ele>93.4</ele>
        <time>2022-08-11T08:26:26Z</time>
      </trkpt>
      <trkpt lat="44.50252" lon="1.14007">
        <ele>93.4</ele>
        <time>2022-08-11T08:26:28Z</time>
      </trkpt>
      <trkpt lat="44.50252" lon="1.14008">
        <ele>93.5</ele>
        <time>2022-08-11T08:26:30Z</time>
      </trkpt>
      <trkpt lat="44.50252" lon="1.14008">
        <ele>93.5</ele>
        <time>2022-08-11T08:26:32Z</time>
      </trkpt>
      <trkpt lat="44.50253" lon="1.14009">
        <ele>93.6</ele>
        <time>2022-08-11T08:26:34Z</time>
      </trkpt>
      <trkpt lat="44.50253" lon="1.14009">
        <ele>93.6</ele>
        <time>2022-08-11T08:26:38Z</time>
      </trkpt>
      <trkpt lat="44.50253" lon="1.14009">
        <ele>93.6</ele>
        <time>2022-08-11T08:26:42Z</time>
      </trkpt>
      <trkpt lat="44.50251" lon="1.14009">
        <ele>93.3</ele>
        <time>2022-08-11T08:26:44Z</time>
      </trkpt>
      <trkpt lat="44.50251" lon="1.14009">
        <ele>93.3</ele>
        <time>2022-08-11T08:26:46Z</time>
      </trkpt>
      <trkpt lat="44.50251" lon="1.14009">
        <ele>93.3</ele>
        <time>2022-08-11T08:26:50Z</time>
      </trkpt>
      <trkpt lat="44.50251" lon="1.14009">
        <ele>93.2</ele>
        <time>2022-08-11T08:26:52Z</time>
      </trkpt>
      <trkpt lat="44.5025" lon="1.14009">
        <ele>93.2</ele>
        <time>2022-08-11T08:26:54Z</time>
      </trkpt>
      <trkpt lat="44.5025" lon="1.14009">
        <ele>93.2</ele>
        <time>2022-08-11T08:26:56Z</time>
      </trkpt>
      <trkpt lat="44.50251" lon="1.14008">
        <ele>93.2</ele>
        <time>2022-08-11T08:26:58Z</time>
      </trkpt>
      <trkpt lat="44.50251" lon="1.14008">
        <ele>93.2</ele>
        <time>2022-08-11T08:27:00Z</time>
      </trkpt>
      <trkpt lat="44.50251" lon="1.14008">
        <ele>93.2</ele>
        <time>2022-08-11T08:27:02Z</time>
      </trkpt>
      <trkpt lat="44.50251" lon="1.14007">
        <ele>93.2</ele>
        <time>2022-08-11T08:27:04Z</time>
      </trkpt>
      <trkpt lat="44.50252" lon="1.14008">
        <ele>93.4</ele>
        <time>2022-08-11T08:27:08Z</time>
      </trkpt>
      <trkpt lat="44.50251" lon="1.14008">
        <ele>93.4</ele>
        <time>2022-08-11T08:27:10Z</time>
      </trkpt>
      <trkpt lat="44.50251" lon="1.14008">
        <ele>93.4</ele>
        <time>2022-08-11T08:27:12Z</time>
      </trkpt>
      <trkpt lat="44.50251" lon="1.14008">
        <ele>93.3</ele>
        <time>2022-08-11T08:27:14Z</time>
      </trkpt>
      <trkpt lat="44.50251" lon="1.14008">
        <ele>93.3</ele>
        <time>2022-08-11T08:27:16Z</time>
      </trkpt>
      <trkpt lat="44.50251" lon="1.1401">
        <ele>93.3</ele>
        <time>2022-08-11T08:27:18Z</time>
      </trkpt>
      <trkpt lat="44.50252" lon="1.14012">
        <ele>93.5</ele>
        <time>2022-08-11T08:27:20Z</time>
      </trkpt>
      <trkpt lat="44.50253" lon="1.1401">
        <ele>93.6</ele>
        <time>2022-08-11T08:27:22Z</time>
      </trkpt>
      <trkpt lat="44.50252" lon="1.1401">
        <ele>93.5</ele>
        <time>2022-08-11T08:27:24Z</time>
      </trkpt>
      <trkpt lat="44.50253" lon="1.1401">
        <ele>93.6</ele>
        <time>2022-08-11T08:27:26Z</time>
      </trkpt>
      <trkpt lat="44.50252" lon="1.14009">
        <ele>93.5</ele>
        <time>2022-08-11T08:27:28Z</time>
      </trkpt>
      <trkpt lat="44.50252" lon="1.14009">
        <ele>93.5</ele>
        <time>2022-08-11T08:27:30Z</time>
      </trkpt>
      <trkpt lat="44.50252" lon="1.14009">
        <ele>93.5</ele>
        <time>2022-08-11T08:27:32Z</time>
      </trkpt>
      <trkpt lat="44.50252" lon="1.14009">
        <ele>93.5</ele>
        <time>2022-08-11T08:27:34Z</time>
      </trkpt>
      <trkpt lat="44.50252" lon="1.1401">
        <ele>93.5</ele>
        <time>2022-08-11T08:27:36Z</time>
      </trkpt>
      <trkpt lat="44.50251" lon="1.1401">
        <ele>93.4</ele>
        <time>2022-08-11T08:27:38Z</time>
      </trkpt>
      <trkpt lat="44.50252" lon="1.1401">
        <ele>93.4</ele>
        <time>2022-08-11T08:27:40Z</time>
      </trkpt>
      <trkpt lat="44.50252" lon="1.1401">
        <ele>93.5</ele>
        <time>2022-08-11T08:27:42Z</time>
      </trkpt>
      <trkpt lat="44.50252" lon="1.14012">
        <ele>93.6</ele>
        <time>2022-08-11T08:27:44Z</time>
      </trkpt>
      <trkpt lat="44.50253" lon="1.14014">
        <ele>93.7</ele>
        <time>2022-08-11T08:27:46Z</time>
      </trkpt>
      <trkpt lat="44.50254" lon="1.14015">
        <ele>93.9</ele>
        <time>2022-08-11T08:27:48Z</time>
      </trkpt>
      <trkpt lat="44.50257" lon="1.14015">
        <ele>94.4</ele>
        <time>2022-08-11T08:27:50Z</time>
      </trkpt>
      <trkpt lat="44.50257" lon="1.14017">
        <ele>94.4</ele>
        <time>2022-08-11T08:27:52Z</time>
      </trkpt>
      <trkpt lat="44.50259" lon="1.14016">
        <ele>94.8</ele>
        <time>2022-08-11T08:27:54Z</time>
      </trkpt>
      <trkpt lat="44.50259" lon="1.14017">
        <ele>94.8</ele>
        <time>2022-08-11T08:27:56Z</time>
      </trkpt>
      <trkpt lat="44.5026" lon="1.1402">
        <ele>95.2</ele>
        <time>2022-08-11T08:27:58Z</time>
      </trkpt>
      <trkpt lat="44.50262" lon="1.14021">
        <ele>95.4</ele>
        <time>2022-08-11T08:28:00Z</time>
      </trkpt>
      <trkpt lat="44.50262" lon="1.14021">
        <ele>95.5</ele>
        <time>2022-08-11T08:28:02Z</time>
      </trkpt>
      <trkpt lat="44.50263" lon="1.1402">
        <ele>95.6</ele>
        <time>2022-08-11T08:28:04Z</time>
      </trkpt>
      <trkpt lat="44.50263" lon="1.14019">
        <ele>95.6</ele>
        <time>2022-08-11T08:28:06Z</time>
      </trkpt>
      <trkpt lat="44.50263" lon="1.14018">
        <ele>95.7</ele>
        <time>2022-08-11T08:28:08Z</time>
      </trkpt>
      <trkpt lat="44.50263" lon="1.14018">
        <ele>95.6</ele>
        <time>2022-08-11T08:28:10Z</time>
      </trkpt>
      <trkpt lat="44.50262" lon="1.14019">
        <ele>95.4</ele>
        <time>2022-08-11T08:28:12Z</time>
      </trkpt>
      <trkpt lat="44.50261" lon="1.14021">
        <ele>95.3</ele>
        <time>2022-08-11T08:28:14Z</time>
      </trkpt>
      <trkpt lat="44.50261" lon="1.14022">
        <ele>95.4</ele>
        <time>2022-08-11T08:28:16Z</time>
      </trkpt>
      <trkpt lat="44.50261" lon="1.14022">
        <ele>95.3</ele>
        <time>2022-08-11T08:28:18Z</time>
      </trkpt>
      <trkpt lat="44.50261" lon="1.14023">
        <ele>95.3</ele>
        <time>2022-08-11T08:28:20Z</time>
      </trkpt>
      <trkpt lat="44.5026" lon="1.14024">
        <ele>95.3</ele>
        <time>2022-08-11T08:28:22Z</time>
      </trkpt>
      <trkpt lat="44.50261" lon="1.14026">
        <ele>95.4</ele>
        <time>2022-08-11T08:28:24Z</time>
      </trkpt>
      <trkpt lat="44.5026" lon="1.14028">
        <ele>95.3</ele>
        <time>2022-08-11T08:28:26Z</time>
      </trkpt>
      <trkpt lat="44.5026" lon="1.14031">
        <ele>95.4</ele>
        <time>2022-08-11T08:28:28Z</time>
      </trkpt>
      <trkpt lat="44.5026" lon="1.14031">
        <ele>95.4</ele>
        <time>2022-08-11T08:28:30Z</time>
      </trkpt>
      <trkpt lat="44.50259" lon="1.14033">
        <ele>95.2</ele>
        <time>2022-08-11T08:28:32Z</time>
      </trkpt>
      <trkpt lat="44.50259" lon="1.14034">
        <ele>95.2</ele>
        <time>2022-08-11T08:28:34Z</time>
      </trkpt>
      <trkpt lat="44.50259" lon="1.14035">
        <ele>95.2</ele>
        <time>2022-08-11T08:28:36Z</time>
      </trkpt>
      <trkpt lat="44.50258" lon="1.14034">
        <ele>95</ele>
        <time>2022-08-11T08:28:38Z</time>
      </trkpt>
      <trkpt lat="44.50256" lon="1.14034">
        <ele>94.6</ele>
        <time>2022-08-11T08:28:40Z</time>
      </trkpt>
      <trkpt lat="44.50255" lon="1.14035">
        <ele>94.5</ele>
        <time>2022-08-11T08:28:42Z</time>
      </trkpt>
      <trkpt lat="44.50254" lon="1.14034">
        <ele>94.3</ele>
        <time>2022-08-11T08:28:44Z</time>
      </trkpt>
      <trkpt lat="44.50254" lon="1.14036">
        <ele>94.2</ele>
        <time>2022-08-11T08:28:46Z</time>
      </trkpt>
      <trkpt lat="44.50253" lon="1.14037">
        <ele>94.1</ele>
        <time>2022-08-11T08:28:48Z</time>
      </trkpt>
      <trkpt lat="44.50253" lon="1.14039">
        <ele>94.1</ele>
        <time>2022-08-11T08:28:50Z</time>
      </trkpt>
      <trkpt lat="44.50253" lon="1.1404">
        <ele>94.1</ele>
        <time>2022-08-11T08:28:52Z</time>
      </trkpt>
      <trkpt lat="44.50253" lon="1.14041">
        <ele>94.1</ele>
        <time>2022-08-11T08:28:54Z</time>
      </trkpt>
      <trkpt lat="44.50254" lon="1.14043">
        <ele>94.3</ele>
        <time>2022-08-11T08:28:56Z</time>
      </trkpt>
      <trkpt lat="44.50254" lon="1.14045">
        <ele>94.3</ele>
        <time>2022-08-11T08:28:58Z</time>
      </trkpt>
      <trkpt lat="44.50254" lon="1.14047">
        <ele>94.4</ele>
        <time>2022-08-11T08:29:00Z</time>
      </trkpt>
      <trkpt lat="44.50254" lon="1.14049">
        <ele>94.5</ele>
        <time>2022-08-11T08:29:02Z</time>
      </trkpt>
      <trkpt lat="44.50254" lon="1.14052">
        <ele>94.5</ele>
        <time>2022-08-11T08:29:04Z</time>
      </trkpt>
      <trkpt lat="44.50254" lon="1.14054">
        <ele>94.5</ele>
        <time>2022-08-11T08:29:06Z</time>
      </trkpt>
      <trkpt lat="44.50254" lon="1.14055">
        <ele>94.5</ele>
        <time>2022-08-11T08:29:08Z</time>
      </trkpt>
      <trkpt lat="44.50253" lon="1.14056">
        <ele>94.4</ele>
        <time>2022-08-11T08:29:10Z</time>
      </trkpt>
      <trkpt lat="44.50253" lon="1.14058">
        <ele>94.4</ele>
        <time>2022-08-11T08:29:12Z</time>
      </trkpt>
      <trkpt lat="44.50253" lon="1.14059">
        <ele>94.3</ele>
        <time>2022-08-11T08:29:14Z</time>
      </trkpt>
      <trkpt lat="44.50252" lon="1.1406">
        <ele>94.1</ele>
        <time>2022-08-11T08:29:16Z</time>
      </trkpt>
      <trkpt lat="44.50252" lon="1.14061">
        <ele>94.1</ele>
        <time>2022-08-11T08:29:18Z</time>
      </trkpt>
      <trkpt lat="44.50252" lon="1.14063">
        <ele>94.2</ele>
        <time>2022-08-11T08:29:20Z</time>
      </trkpt>
      <trkpt lat="44.50252" lon="1.14065">
        <ele>94.3</ele>
        <time>2022-08-11T08:29:22Z</time>
      </trkpt>
      <trkpt lat="44.50252" lon="1.14067">
        <ele>94.3</ele>
        <time>2022-08-11T08:29:24Z</time>
      </trkpt>
      <trkpt lat="44.50252" lon="1.14069">
        <ele>94.3</ele>
        <time>2022-08-11T08:29:26Z</time>
      </trkpt>
      <trkpt lat="44.50252" lon="1.14071">
        <ele>94.3</ele>
        <time>2022-08-11T08:29:28Z</time>
      </trkpt>
      <trkpt lat="44.50252" lon="1.14072">
        <ele>94.4</ele>
        <time>2022-08-11T08:29:30Z</time>
      </trkpt>
      <trkpt lat="44.50252" lon="1.14074">
        <ele>94.3</ele>
        <time>2022-08-11T08:29:32Z</time>
      </trkpt>
      <trkpt lat="44.50251" lon="1.14075">
        <ele>94.2</ele>
        <time>2022-08-11T08:29:34Z</time>
      </trkpt>
      <trkpt lat="44.50251" lon="1.14076">
        <ele>94</ele>
        <time>2022-08-11T08:29:36Z</time>
      </trkpt>
      <trkpt lat="44.50251" lon="1.14078">
        <ele>94.1</ele>
        <time>2022-08-11T08:29:38Z</time>
      </trkpt>
      <trkpt lat="44.5025" lon="1.14079">
        <ele>94</ele>
        <time>2022-08-11T08:29:40Z</time>
      </trkpt>
      <trkpt lat="44.50249" lon="1.1408">
        <ele>94</ele>
        <time>2022-08-11T08:29:42Z</time>
      </trkpt>
      <trkpt lat="44.50249" lon="1.14084">
        <ele>94.1</ele>
        <time>2022-08-11T08:29:44Z</time>
      </trkpt>
      <trkpt lat="44.5025" lon="1.14086">
        <ele>94.2</ele>
        <time>2022-08-11T08:29:46Z</time>
      </trkpt>
      <trkpt lat="44.50251" lon="1.14089">
        <ele>94.7</ele>
        <time>2022-08-11T08:29:48Z</time>
      </trkpt>
      <trkpt lat="44.50252" lon="1.1409">
        <ele>95</ele>
        <time>2022-08-11T08:29:50Z</time>
      </trkpt>
      <trkpt lat="44.50253" lon="1.14093">
        <ele>95.4</ele>
        <time>2022-08-11T08:29:52Z</time>
      </trkpt>
      <trkpt lat="44.50254" lon="1.14093">
        <ele>95.7</ele>
        <time>2022-08-11T08:29:54Z</time>
      </trkpt>
      <trkpt lat="44.50255" lon="1.14094">
        <ele>95.9</ele>
        <time>2022-08-11T08:29:56Z</time>
      </trkpt>
      <trkpt lat="44.50256" lon="1.14095">
        <ele>96.4</ele>
        <time>2022-08-11T08:29:58Z</time>
      </trkpt>
      <trkpt lat="44.50258" lon="1.14096">
        <ele>97</ele>
        <time>2022-08-11T08:30:00Z</time>
      </trkpt>
      <trkpt lat="44.50258" lon="1.14096">
        <ele>97</ele>
        <time>2022-08-11T08:30:02Z</time>
      </trkpt>
      <trkpt lat="44.50258" lon="1.14097">
        <ele>97.2</ele>
        <time>2022-08-11T08:30:04Z</time>
      </trkpt>
      <trkpt lat="44.50259" lon="1.14097">
        <ele>97.3</ele>
        <time>2022-08-11T08:30:06Z</time>
      </trkpt>
      <trkpt lat="44.50261" lon="1.14096">
        <ele>97.7</ele>
        <time>2022-08-11T08:30:08Z</time>
      </trkpt>
      <trkpt lat="44.50262" lon="1.14094">
        <ele>98</ele>
        <time>2022-08-11T08:30:10Z</time>
      </trkpt>
      <trkpt lat="44.50264" lon="1.14094">
        <ele>98.3</ele>
        <time>2022-08-11T08:30:12Z</time>
      </trkpt>
      <trkpt lat="44.50265" lon="1.14092">
        <ele>98.4</ele>
        <time>2022-08-11T08:30:14Z</time>
      </trkpt>
      <trkpt lat="44.50265" lon="1.14092">
        <ele>98.6</ele>
        <time>2022-08-11T08:30:16Z</time>
      </trkpt>
      <trkpt lat="44.50266" lon="1.1409">
        <ele>98.7</ele>
        <time>2022-08-11T08:30:18Z</time>
      </trkpt>
      <trkpt lat="44.50267" lon="1.1409">
        <ele>98.9</ele>
        <time>2022-08-11T08:30:20Z</time>
      </trkpt>
      <trkpt lat="44.50268" lon="1.14088">
        <ele>98.9</ele>
        <time>2022-08-11T08:30:22Z</time>
      </trkpt>
      <trkpt lat="44.50268" lon="1.14087">
        <ele>99</ele>
        <time>2022-08-11T08:30:24Z</time>
      </trkpt>
      <trkpt lat="44.50268" lon="1.14086">
        <ele>98.8</ele>
        <time>2022-08-11T08:30:26Z</time>
      </trkpt>
      <trkpt lat="44.50269" lon="1.14085">
        <ele>98.9</ele>
        <time>2022-08-11T08:30:28Z</time>
      </trkpt>
      <trkpt lat="44.5027" lon="1.14085">
        <ele>99.1</ele>
        <time>2022-08-11T08:30:30Z</time>
      </trkpt>
      <trkpt lat="44.50272" lon="1.14084">
        <ele>99.5</ele>
        <time>2022-08-11T08:30:32Z</time>
      </trkpt>
      <trkpt lat="44.50272" lon="1.14083">
        <ele>99.6</ele>
        <time>2022-08-11T08:30:34Z</time>
      </trkpt>
      <trkpt lat="44.50272" lon="1.14082">
        <ele>99.5</ele>
        <time>2022-08-11T08:30:36Z</time>
      </trkpt>
      <trkpt lat="44.50272" lon="1.14081">
        <ele>99.5</ele>
        <time>2022-08-11T08:30:38Z</time>
      </trkpt>
      <trkpt lat="44.50272" lon="1.1408">
        <ele>99.5</ele>
        <time>2022-08-11T08:30:40Z</time>
      </trkpt>
      <trkpt lat="44.50273" lon="1.14079">
        <ele>99.7</ele>
        <time>2022-08-11T08:30:42Z</time>
      </trkpt>
      <trkpt lat="44.50274" lon="1.14078">
        <ele>99.8</ele>
        <time>2022-08-11T08:30:44Z</time>
      </trkpt>
      <trkpt lat="44.50273" lon="1.14077">
        <ele>99.7</ele>
        <time>2022-08-11T08:30:46Z</time>
      </trkpt>
      <trkpt lat="44.50273" lon="1.14076">
        <ele>99.5</ele>
        <time>2022-08-11T08:30:48Z</time>
      </trkpt>
      <trkpt lat="44.50272" lon="1.14075">
        <ele>99.3</ele>
        <time>2022-08-11T08:30:50Z</time>
      </trkpt>
      <trkpt lat="44.50272" lon="1.14074">
        <ele>99.3</ele>
        <time>2022-08-11T08:30:52Z</time>
      </trkpt>
      <trkpt lat="44.50272" lon="1.14074">
        <ele>99.2</ele>
        <time>2022-08-11T08:30:54Z</time>
      </trkpt>
      <trkpt lat="44.50272" lon="1.14071">
        <ele>99.2</ele>
        <time>2022-08-11T08:30:56Z</time>
      </trkpt>
      <trkpt lat="44.50273" lon="1.14069">
        <ele>99.2</ele>
        <time>2022-08-11T08:30:58Z</time>
      </trkpt>
      <trkpt lat="44.50274" lon="1.14068">
        <ele>99.6</ele>
        <time>2022-08-11T08:31:00Z</time>
      </trkpt>
      <trkpt lat="44.50275" lon="1.14067">
        <ele>99.7</ele>
        <time>2022-08-11T08:31:02Z</time>
      </trkpt>
      <trkpt lat="44.50275" lon="1.14066">
        <ele>99.6</ele>
        <time>2022-08-11T08:31:04Z</time>
      </trkpt>
      <trkpt lat="44.50275" lon="1.14064">
        <ele>99.6</ele>
        <time>2022-08-11T08:31:06Z</time>
      </trkpt>
      <trkpt lat="44.50273" lon="1.14063">
        <ele>99.2</ele>
        <time>2022-08-11T08:31:08Z</time>
      </trkpt>
      <trkpt lat="44.50274" lon="1.14063">
        <ele>99.4</ele>
        <time>2022-08-11T08:31:10Z</time>
      </trkpt>
      <trkpt lat="44.50274" lon="1.14062">
        <ele>99.3</ele>
        <time>2022-08-11T08:31:12Z</time>
      </trkpt>
      <trkpt lat="44.50274" lon="1.14061">
        <ele>99.2</ele>
        <time>2022-08-11T08:31:14Z</time>
      </trkpt>
      <trkpt lat="44.50274" lon="1.1406">
        <ele>99.1</ele>
        <time>2022-08-11T08:31:16Z</time>
      </trkpt>
      <trkpt lat="44.50273" lon="1.14057">
        <ele>98.9</ele>
        <time>2022-08-11T08:31:20Z</time>
      </trkpt>
      <trkpt lat="44.50273" lon="1.14057">
        <ele>98.8</ele>
        <time>2022-08-11T08:31:22Z</time>
      </trkpt>
      <trkpt lat="44.50274" lon="1.14056">
        <ele>99.1</ele>
        <time>2022-08-11T08:31:24Z</time>
      </trkpt>
      <trkpt lat="44.50275" lon="1.14055">
        <ele>99.2</ele>
        <time>2022-08-11T08:31:26Z</time>
      </trkpt>
      <trkpt lat="44.50275" lon="1.14055">
        <ele>99.2</ele>
        <time>2022-08-11T08:31:28Z</time>
      </trkpt>
      <trkpt lat="44.50274" lon="1.14054">
        <ele>99</ele>
        <time>2022-08-11T08:31:30Z</time>
      </trkpt>
      <trkpt lat="44.50274" lon="1.14054">
        <ele>98.9</ele>
        <time>2022-08-11T08:31:32Z</time>
      </trkpt>
      <trkpt lat="44.50274" lon="1.14054">
        <ele>99</ele>
        <time>2022-08-11T08:31:34Z</time>
      </trkpt>
      <trkpt lat="44.50274" lon="1.14055">
        <ele>99</ele>
        <time>2022-08-11T08:31:36Z</time>
      </trkpt>
      <trkpt lat="44.50275" lon="1.14054">
        <ele>99.1</ele>
        <time>2022-08-11T08:31:38Z</time>
      </trkpt>
      <trkpt lat="44.50275" lon="1.14053">
        <ele>99.3</ele>
        <time>2022-08-11T08:31:40Z</time>
      </trkpt>
      <trkpt lat="44.50275" lon="1.14052">
        <ele>99.2</ele>
        <time>2022-08-11T08:31:42Z</time>
      </trkpt>
      <trkpt lat="44.50276" lon="1.1405">
        <ele>99.2</ele>
        <time>2022-08-11T08:31:44Z</time>
      </trkpt>
      <trkpt lat="44.50277" lon="1.14049">
        <ele>99.4</ele>
        <time>2022-08-11T08:31:46Z</time>
      </trkpt>
      <trkpt lat="44.50277" lon="1.14049">
        <ele>99.4</ele>
        <time>2022-08-11T08:31:48Z</time>
      </trkpt>
      <trkpt lat="44.50276" lon="1.1405">
        <ele>99.2</ele>
        <time>2022-08-11T08:31:50Z</time>
      </trkpt>
      <trkpt lat="44.50274" lon="1.14049">
        <ele>98.9</ele>
        <time>2022-08-11T08:31:52Z</time>
      </trkpt>
      <trkpt lat="44.50273" lon="1.1405">
        <ele>98.7</ele>
        <time>2022-08-11T08:31:54Z</time>
      </trkpt>
      <trkpt lat="44.50273" lon="1.14049">
        <ele>98.6</ele>
        <time>2022-08-11T08:31:56Z</time>
      </trkpt>
      <trkpt lat="44.50273" lon="1.14048">
        <ele>98.6</ele>
        <time>2022-08-11T08:31:58Z</time>
      </trkpt>
      <trkpt lat="44.50273" lon="1.14047">
        <ele>98.5</ele>
        <time>2022-08-11T08:32:00Z</time>
      </trkpt>
      <trkpt lat="44.50272" lon="1.14046">
        <ele>98.3</ele>
        <time>2022-08-11T08:32:02Z</time>
      </trkpt>
      <trkpt lat="44.50271" lon="1.14047">
        <ele>98</ele>
        <time>2022-08-11T08:32:04Z</time>
      </trkpt>
      <trkpt lat="44.50272" lon="1.14045">
        <ele>98.3</ele>
        <time>2022-08-11T08:32:06Z</time>
      </trkpt>
      <trkpt lat="44.50273" lon="1.14043">
        <ele>98.5</ele>
        <time>2022-08-11T08:32:08Z</time>
      </trkpt>
      <trkpt lat="44.50274" lon="1.14042">
        <ele>98.5</ele>
        <time>2022-08-11T08:32:10Z</time>
      </trkpt>
      <trkpt lat="44.50274" lon="1.14041">
        <ele>98.6</ele>
        <time>2022-08-11T08:32:12Z</time>
      </trkpt>
      <trkpt lat="44.50274" lon="1.14042">
        <ele>98.5</ele>
        <time>2022-08-11T08:32:14Z</time>
      </trkpt>
      <trkpt lat="44.50274" lon="1.1404">
        <ele>98.5</ele>
        <time>2022-08-11T08:32:16Z</time>
      </trkpt>
      <trkpt lat="44.50274" lon="1.14038">
        <ele>98.5</ele>
        <time>2022-08-11T08:32:18Z</time>
      </trkpt>
      <trkpt lat="44.50275" lon="1.14037">
        <ele>98.6</ele>
        <time>2022-08-11T08:32:20Z</time>
      </trkpt>
      <trkpt lat="44.50275" lon="1.14036">
        <ele>98.6</ele>
        <time>2022-08-11T08:32:22Z</time>
      </trkpt>
      <trkpt lat="44.50275" lon="1.14033">
        <ele>98.5</ele>
        <time>2022-08-11T08:32:24Z</time>
      </trkpt>
      <trkpt lat="44.50276" lon="1.14032">
        <ele>98.6</ele>
        <time>2022-08-11T08:32:26Z</time>
      </trkpt>
      <trkpt lat="44.50276" lon="1.14031">
        <ele>98.6</ele>
        <time>2022-08-11T08:32:28Z</time>
      </trkpt>
      <trkpt lat="44.50276" lon="1.14029">
        <ele>98.6</ele>
        <time>2022-08-11T08:32:30Z</time>
      </trkpt>
      <trkpt lat="44.50277" lon="1.14028">
        <ele>98.5</ele>
        <time>2022-08-11T08:32:32Z</time>
      </trkpt>
      <trkpt lat="44.50278" lon="1.14027">
        <ele>98.9</ele>
        <time>2022-08-11T08:32:34Z</time>
      </trkpt>
      <trkpt lat="44.50279" lon="1.14026">
        <ele>99</ele>
        <time>2022-08-11T08:32:36Z</time>
      </trkpt>
      <trkpt lat="44.5028" lon="1.14025">
        <ele>99.1</ele>
        <time>2022-08-11T08:32:38Z</time>
      </trkpt>
      <trkpt lat="44.50281" lon="1.14025">
        <ele>99.2</ele>
        <time>2022-08-11T08:32:40Z</time>
      </trkpt>
      <trkpt lat="44.50282" lon="1.14025">
        <ele>99.4</ele>
        <time>2022-08-11T08:32:42Z</time>
      </trkpt>
      <trkpt lat="44.50282" lon="1.14023">
        <ele>99.4</ele>
        <time>2022-08-11T08:32:44Z</time>
      </trkpt>
      <trkpt lat="44.50282" lon="1.14022">
        <ele>99.4</ele>
        <time>2022-08-11T08:32:46Z</time>
      </trkpt>
      <trkpt lat="44.50282" lon="1.1402">
        <ele>99.3</ele>
        <time>2022-08-11T08:32:48Z</time>
      </trkpt>
      <trkpt lat="44.50283" lon="1.14018">
        <ele>99.3</ele>
        <time>2022-08-11T08:32:50Z</time>
      </trkpt>
      <trkpt lat="44.50283" lon="1.14016">
        <ele>99.2</ele>
        <time>2022-08-11T08:32:52Z</time>
      </trkpt>
      <trkpt lat="44.50283" lon="1.14016">
        <ele>99.3</ele>
        <time>2022-08-11T08:32:54Z</time>
      </trkpt>
      <trkpt lat="44.50281" lon="1.14016">
        <ele>99</ele>
        <time>2022-08-11T08:32:56Z</time>
      </trkpt>
      <trkpt lat="44.50281" lon="1.14016">
        <ele>98.9</ele>
        <time>2022-08-11T08:32:58Z</time>
      </trkpt>
      <trkpt lat="44.50281" lon="1.14015">
        <ele>98.9</ele>
        <time>2022-08-11T08:33:00Z</time>
      </trkpt>
      <trkpt lat="44.50282" lon="1.14013">
        <ele>99</ele>
        <time>2022-08-11T08:33:02Z</time>
      </trkpt>
      <trkpt lat="44.50282" lon="1.14011">
        <ele>98.9</ele>
        <time>2022-08-11T08:33:04Z</time>
      </trkpt>
      <trkpt lat="44.50283" lon="1.1401">
        <ele>99</ele>
        <time>2022-08-11T08:33:06Z</time>
      </trkpt>
      <trkpt lat="44.50283" lon="1.14009">
        <ele>98.9</ele>
        <time>2022-08-11T08:33:08Z</time>
      </trkpt>
      <trkpt lat="44.50284" lon="1.14009">
        <ele>99</ele>
        <time>2022-08-11T08:33:10Z</time>
      </trkpt>
      <trkpt lat="44.50283" lon="1.14007">
        <ele>98.9</ele>
        <time>2022-08-11T08:33:12Z</time>
      </trkpt>
      <trkpt lat="44.50284" lon="1.14005">
        <ele>98.9</ele>
        <time>2022-08-11T08:33:14Z</time>
      </trkpt>
      <trkpt lat="44.50284" lon="1.14002">
        <ele>98.8</ele>
        <time>2022-08-11T08:33:16Z</time>
      </trkpt>
      <trkpt lat="44.50285" lon="1.14">
        <ele>98.9</ele>
        <time>2022-08-11T08:33:18Z</time>
      </trkpt>
      <trkpt lat="44.50284" lon="1.14">
        <ele>98.7</ele>
        <time>2022-08-11T08:33:20Z</time>
      </trkpt>
      <trkpt lat="44.50283" lon="1.13996">
        <ele>98.5</ele>
        <time>2022-08-11T08:33:22Z</time>
      </trkpt>
      <trkpt lat="44.50283" lon="1.13995">
        <ele>98.4</ele>
        <time>2022-08-11T08:33:24Z</time>
      </trkpt>
      <trkpt lat="44.50284" lon="1.13992">
        <ele>98.5</ele>
        <time>2022-08-11T08:33:26Z</time>
      </trkpt>
      <trkpt lat="44.50282" lon="1.1399">
        <ele>98.2</ele>
        <time>2022-08-11T08:33:28Z</time>
      </trkpt>
      <trkpt lat="44.50281" lon="1.13988">
        <ele>97.9</ele>
        <time>2022-08-11T08:33:30Z</time>
      </trkpt>
      <trkpt lat="44.5028" lon="1.13988">
        <ele>97.8</ele>
        <time>2022-08-11T08:33:32Z</time>
      </trkpt>
      <trkpt lat="44.50281" lon="1.13987">
        <ele>98</ele>
        <time>2022-08-11T08:33:34Z</time>
      </trkpt>
      <trkpt lat="44.50281" lon="1.13987">
        <ele>98</ele>
        <time>2022-08-11T08:33:36Z</time>
      </trkpt>
      <trkpt lat="44.50282" lon="1.13988">
        <ele>98.1</ele>
        <time>2022-08-11T08:33:38Z</time>
      </trkpt>
      <trkpt lat="44.5028" lon="1.13988">
        <ele>97.9</ele>
        <time>2022-08-11T08:33:40Z</time>
      </trkpt>
      <trkpt lat="44.5028" lon="1.13988">
        <ele>97.8</ele>
        <time>2022-08-11T08:33:42Z</time>
      </trkpt>
      <trkpt lat="44.50281" lon="1.13987">
        <ele>98</ele>
        <time>2022-08-11T08:33:44Z</time>
      </trkpt>
      <trkpt lat="44.50281" lon="1.13986">
        <ele>98</ele>
        <time>2022-08-11T08:33:46Z</time>
      </trkpt>
      <trkpt lat="44.5028" lon="1.13985">
        <ele>97.8</ele>
        <time>2022-08-11T08:33:48Z</time>
      </trkpt>
      <trkpt lat="44.5028" lon="1.13983">
        <ele>97.6</ele>
        <time>2022-08-11T08:33:50Z</time>
      </trkpt>
      <trkpt lat="44.50279" lon="1.13982">
        <ele>97.6</ele>
        <time>2022-08-11T08:33:52Z</time>
      </trkpt>
      <trkpt lat="44.50279" lon="1.13981">
        <ele>97.5</ele>
        <time>2022-08-11T08:33:54Z</time>
      </trkpt>
      <trkpt lat="44.50279" lon="1.1398">
        <ele>97.5</ele>
        <time>2022-08-11T08:33:56Z</time>
      </trkpt>
      <trkpt lat="44.5028" lon="1.13979">
        <ele>97.6</ele>
        <time>2022-08-11T08:33:58Z</time>
      </trkpt>
      <trkpt lat="44.50279" lon="1.13977">
        <ele>97.5</ele>
        <time>2022-08-11T08:34:00Z</time>
      </trkpt>
      <trkpt lat="44.50279" lon="1.13975">
        <ele>97.4</ele>
        <time>2022-08-11T08:34:02Z</time>
      </trkpt>
      <trkpt lat="44.50279" lon="1.13973">
        <ele>97.3</ele>
        <time>2022-08-11T08:34:04Z</time>
      </trkpt>
      <trkpt lat="44.50279" lon="1.13971">
        <ele>97.3</ele>
        <time>2022-08-11T08:34:06Z</time>
      </trkpt>
      <trkpt lat="44.50279" lon="1.13971">
        <ele>97.3</ele>
        <time>2022-08-11T08:34:08Z</time>
      </trkpt>
      <trkpt lat="44.50279" lon="1.13971">
        <ele>97.3</ele>
        <time>2022-08-11T08:34:10Z</time>
      </trkpt>
      <trkpt lat="44.50279" lon="1.13972">
        <ele>97.2</ele>
        <time>2022-08-11T08:34:12Z</time>
      </trkpt>
      <trkpt lat="44.50279" lon="1.13972">
        <ele>97.2</ele>
        <time>2022-08-11T08:34:14Z</time>
      </trkpt>
      <trkpt lat="44.50279" lon="1.13971">
        <ele>97.3</ele>
        <time>2022-08-11T08:34:16Z</time>
      </trkpt>
      <trkpt lat="44.50279" lon="1.13969">
        <ele>97.3</ele>
        <time>2022-08-11T08:34:18Z</time>
      </trkpt>
      <trkpt lat="44.5028" lon="1.13968">
        <ele>97.4</ele>
        <time>2022-08-11T08:34:20Z</time>
      </trkpt>
      <trkpt lat="44.50281" lon="1.13967">
        <ele>97.5</ele>
        <time>2022-08-11T08:34:22Z</time>
      </trkpt>
      <trkpt lat="44.50282" lon="1.13967">
        <ele>97.6</ele>
        <time>2022-08-11T08:34:24Z</time>
      </trkpt>
      <trkpt lat="44.50282" lon="1.13967">
        <ele>97.6</ele>
        <time>2022-08-11T08:34:26Z</time>
      </trkpt>
      <trkpt lat="44.50282" lon="1.13966">
        <ele>97.6</ele>
        <time>2022-08-11T08:34:28Z</time>
      </trkpt>
      <trkpt lat="44.50283" lon="1.13964">
        <ele>97.7</ele>
        <time>2022-08-11T08:34:30Z</time>
      </trkpt>
      <trkpt lat="44.50284" lon="1.13963">
        <ele>97.8</ele>
        <time>2022-08-11T08:34:32Z</time>
      </trkpt>
      <trkpt lat="44.50284" lon="1.13961">
        <ele>97.8</ele>
        <time>2022-08-11T08:34:34Z</time>
      </trkpt>
      <trkpt lat="44.50285" lon="1.13957">
        <ele>97.8</ele>
        <time>2022-08-11T08:34:36Z</time>
      </trkpt>
      <trkpt lat="44.50285" lon="1.13955">
        <ele>97.7</ele>
        <time>2022-08-11T08:34:38Z</time>
      </trkpt>
      <trkpt lat="44.50284" lon="1.13952">
        <ele>97.6</ele>
        <time>2022-08-11T08:34:40Z</time>
      </trkpt>
      <trkpt lat="44.50284" lon="1.1395">
        <ele>97.5</ele>
        <time>2022-08-11T08:34:42Z</time>
      </trkpt>
      <trkpt lat="44.50284" lon="1.13948">
        <ele>97.4</ele>
        <time>2022-08-11T08:34:44Z</time>
      </trkpt>
      <trkpt lat="44.50283" lon="1.13946">
        <ele>97.3</ele>
        <time>2022-08-11T08:34:46Z</time>
      </trkpt>
      <trkpt lat="44.50284" lon="1.13943">
        <ele>97.3</ele>
        <time>2022-08-11T08:34:48Z</time>
      </trkpt>
      <trkpt lat="44.50284" lon="1.13941">
        <ele>97.2</ele>
        <time>2022-08-11T08:34:50Z</time>
      </trkpt>
      <trkpt lat="44.50284" lon="1.1394">
        <ele>97.2</ele>
        <time>2022-08-11T08:34:52Z</time>
      </trkpt>
      <trkpt lat="44.50284" lon="1.13939">
        <ele>97.2</ele>
        <time>2022-08-11T08:34:54Z</time>
      </trkpt>
      <trkpt lat="44.50285" lon="1.13936">
        <ele>97.2</ele>
        <time>2022-08-11T08:34:56Z</time>
      </trkpt>
      <trkpt lat="44.50284" lon="1.13937">
        <ele>97.2</ele>
        <time>2022-08-11T08:34:58Z</time>
      </trkpt>
      <trkpt lat="44.50285" lon="1.13937">
        <ele>97.3</ele>
        <time>2022-08-11T08:35:00Z</time>
      </trkpt>
      <trkpt lat="44.50287" lon="1.13937">
        <ele>97.5</ele>
        <time>2022-08-11T08:35:02Z</time>
      </trkpt>
      <trkpt lat="44.50288" lon="1.13937">
        <ele>97.6</ele>
        <time>2022-08-11T08:35:04Z</time>
      </trkpt>
      <trkpt lat="44.50289" lon="1.13937">
        <ele>97.7</ele>
        <time>2022-08-11T08:35:06Z</time>
      </trkpt>
      <trkpt lat="44.5029" lon="1.13939">
        <ele>97.9</ele>
        <time>2022-08-11T08:35:08Z</time>
      </trkpt>
      <trkpt lat="44.5029" lon="1.13939">
        <ele>98</ele>
        <time>2022-08-11T08:35:10Z</time>
      </trkpt>
      <trkpt lat="44.50291" lon="1.13939">
        <ele>98.1</ele>
        <time>2022-08-11T08:35:12Z</time>
      </trkpt>
      <trkpt lat="44.50291" lon="1.13939">
        <ele>98.1</ele>
        <time>2022-08-11T08:35:14Z</time>
      </trkpt>
      <trkpt lat="44.50291" lon="1.13938">
        <ele>98</ele>
        <time>2022-08-11T08:35:16Z</time>
      </trkpt>
      <trkpt lat="44.5029" lon="1.13936">
        <ele>97.9</ele>
        <time>2022-08-11T08:35:18Z</time>
      </trkpt>
      <trkpt lat="44.5029" lon="1.13935">
        <ele>97.8</ele>
        <time>2022-08-11T08:35:20Z</time>
      </trkpt>
      <trkpt lat="44.5029" lon="1.13933">
        <ele>97.8</ele>
        <time>2022-08-11T08:35:22Z</time>
      </trkpt>
      <trkpt lat="44.5029" lon="1.13933">
        <ele>97.8</ele>
        <time>2022-08-11T08:35:24Z</time>
      </trkpt>
      <trkpt lat="44.50291" lon="1.13932">
        <ele>97.9</ele>
        <time>2022-08-11T08:35:26Z</time>
      </trkpt>
      <trkpt lat="44.50291" lon="1.13931">
        <ele>97.9</ele>
        <time>2022-08-11T08:35:28Z</time>
      </trkpt>
      <trkpt lat="44.50291" lon="1.13931">
        <ele>97.9</ele>
        <time>2022-08-11T08:35:30Z</time>
      </trkpt>
      <trkpt lat="44.50291" lon="1.13929">
        <ele>97.8</ele>
        <time>2022-08-11T08:35:32Z</time>
      </trkpt>
      <trkpt lat="44.5029" lon="1.13929">
        <ele>97.7</ele>
        <time>2022-08-11T08:35:34Z</time>
      </trkpt>
      <trkpt lat="44.50287" lon="1.13927">
        <ele>97.3</ele>
        <time>2022-08-11T08:35:36Z</time>
      </trkpt>
      <trkpt lat="44.50285" lon="1.13926">
        <ele>97</ele>
        <time>2022-08-11T08:35:38Z</time>
      </trkpt>
      <trkpt lat="44.50284" lon="1.13925">
        <ele>96.9</ele>
        <time>2022-08-11T08:35:40Z</time>
      </trkpt>
      <trkpt lat="44.50282" lon="1.13926">
        <ele>96.7</ele>
        <time>2022-08-11T08:35:42Z</time>
      </trkpt>
      <trkpt lat="44.50281" lon="1.13927">
        <ele>96.6</ele>
        <time>2022-08-11T08:35:44Z</time>
      </trkpt>
      <trkpt lat="44.5028" lon="1.13928">
        <ele>96.5</ele>
        <time>2022-08-11T08:35:46Z</time>
      </trkpt>
      <trkpt lat="44.50279" lon="1.1393">
        <ele>96.4</ele>
        <time>2022-08-11T08:35:48Z</time>
      </trkpt>
      <trkpt lat="44.50278" lon="1.13933">
        <ele>96.4</ele>
        <time>2022-08-11T08:35:50Z</time>
      </trkpt>
      <trkpt lat="44.50278" lon="1.13936">
        <ele>96.4</ele>
        <time>2022-08-11T08:35:52Z</time>
      </trkpt>
      <trkpt lat="44.50278" lon="1.13939">
        <ele>96.5</ele>
        <time>2022-08-11T08:35:54Z</time>
      </trkpt>
      <trkpt lat="44.50278" lon="1.13941">
        <ele>96.5</ele>
        <time>2022-08-11T08:35:56Z</time>
      </trkpt>
      <trkpt lat="44.50277" lon="1.13943">
        <ele>96.5</ele>
        <time>2022-08-11T08:35:58Z</time>
      </trkpt>
      <trkpt lat="44.50277" lon="1.13943">
        <ele>96.5</ele>
        <time>2022-08-11T08:36:00Z</time>
      </trkpt>
      <trkpt lat="44.50277" lon="1.13941">
        <ele>96.4</ele>
        <time>2022-08-11T08:36:02Z</time>
      </trkpt>
      <trkpt lat="44.50277" lon="1.13939">
        <ele>96.3</ele>
        <time>2022-08-11T08:36:04Z</time>
      </trkpt>
      <trkpt lat="44.50274" lon="1.13936">
        <ele>95.9</ele>
        <time>2022-08-11T08:36:06Z</time>
      </trkpt>
      <trkpt lat="44.50272" lon="1.13936">
        <ele>95.7</ele>
        <time>2022-08-11T08:36:08Z</time>
      </trkpt>
      <trkpt lat="44.50271" lon="1.13936">
        <ele>95.5</ele>
        <time>2022-08-11T08:36:10Z</time>
      </trkpt>
      <trkpt lat="44.5027" lon="1.13935">
        <ele>95.4</ele>
        <time>2022-08-11T08:36:12Z</time>
      </trkpt>
      <trkpt lat="44.5027" lon="1.13936">
        <ele>95.4</ele>
        <time>2022-08-11T08:36:14Z</time>
      </trkpt>
      <trkpt lat="44.50269" lon="1.13935">
        <ele>95.3</ele>
        <time>2022-08-11T08:36:16Z</time>
      </trkpt>
      <trkpt lat="44.50268" lon="1.13932">
        <ele>95.1</ele>
        <time>2022-08-11T08:36:18Z</time>
      </trkpt>
      <trkpt lat="44.50267" lon="1.1393">
        <ele>95</ele>
        <time>2022-08-11T08:36:20Z</time>
      </trkpt>
      <trkpt lat="44.50267" lon="1.13928">
        <ele>95</ele>
        <time>2022-08-11T08:36:22Z</time>
      </trkpt>
      <trkpt lat="44.50268" lon="1.13928">
        <ele>95.1</ele>
        <time>2022-08-11T08:36:24Z</time>
      </trkpt>
      <trkpt lat="44.50269" lon="1.13924">
        <ele>95.1</ele>
        <time>2022-08-11T08:36:26Z</time>
      </trkpt>
      <trkpt lat="44.50269" lon="1.13922">
        <ele>95.1</ele>
        <time>2022-08-11T08:36:28Z</time>
      </trkpt>
      <trkpt lat="44.50269" lon="1.13918">
        <ele>95.1</ele>
        <time>2022-08-11T08:36:30Z</time>
      </trkpt>
      <trkpt lat="44.50269" lon="1.13917">
        <ele>95</ele>
        <time>2022-08-11T08:36:32Z</time>
      </trkpt>
      <trkpt lat="44.50269" lon="1.13914">
        <ele>95</ele>
        <time>2022-08-11T08:36:34Z</time>
      </trkpt>
      <trkpt lat="44.50271" lon="1.13911">
        <ele>95.1</ele>
        <time>2022-08-11T08:36:36Z</time>
      </trkpt>
      <trkpt lat="44.50271" lon="1.13909">
        <ele>95</ele>
        <time>2022-08-11T08:36:38Z</time>
      </trkpt>
      <trkpt lat="44.50271" lon="1.13906">
        <ele>95</ele>
        <time>2022-08-11T08:36:40Z</time>
      </trkpt>
      <trkpt lat="44.50271" lon="1.13903">
        <ele>94.8</ele>
        <time>2022-08-11T08:36:42Z</time>
      </trkpt>
      <trkpt lat="44.50272" lon="1.139">
        <ele>94.8</ele>
        <time>2022-08-11T08:36:44Z</time>
      </trkpt>
      <trkpt lat="44.50272" lon="1.13896">
        <ele>94.7</ele>
        <time>2022-08-11T08:36:46Z</time>
      </trkpt>
      <trkpt lat="44.50271" lon="1.13893">
        <ele>94.5</ele>
        <time>2022-08-11T08:36:48Z</time>
      </trkpt>
      <trkpt lat="44.50272" lon="1.13889">
        <ele>94.5</ele>
        <time>2022-08-11T08:36:50Z</time>
      </trkpt>
      <trkpt lat="44.50273" lon="1.13887">
        <ele>94.5</ele>
        <time>2022-08-11T08:36:52Z</time>
      </trkpt>
      <trkpt lat="44.50272" lon="1.13885">
        <ele>94.3</ele>
        <time>2022-08-11T08:36:54Z</time>
      </trkpt>
      <trkpt lat="44.50271" lon="1.13884">
        <ele>94.2</ele>
        <time>2022-08-11T08:36:56Z</time>
      </trkpt>
      <trkpt lat="44.50272" lon="1.1388">
        <ele>94.2</ele>
        <time>2022-08-11T08:36:58Z</time>
      </trkpt>
      <trkpt lat="44.50273" lon="1.13878">
        <ele>94.2</ele>
        <time>2022-08-11T08:37:00Z</time>
      </trkpt>
      <trkpt lat="44.50274" lon="1.13877">
        <ele>94.3</ele>
        <time>2022-08-11T08:37:02Z</time>
      </trkpt>
      <trkpt lat="44.50275" lon="1.13874">
        <ele>94.3</ele>
        <time>2022-08-11T08:37:04Z</time>
      </trkpt>
      <trkpt lat="44.50276" lon="1.13872">
        <ele>94.4</ele>
        <time>2022-08-11T08:37:06Z</time>
      </trkpt>
      <trkpt lat="44.50277" lon="1.13869">
        <ele>94.4</ele>
        <time>2022-08-11T08:37:08Z</time>
      </trkpt>
      <trkpt lat="44.50278" lon="1.13866">
        <ele>94.4</ele>
        <time>2022-08-11T08:37:10Z</time>
      </trkpt>
      <trkpt lat="44.50278" lon="1.13864">
        <ele>94.4</ele>
        <time>2022-08-11T08:37:12Z</time>
      </trkpt>
      <trkpt lat="44.50278" lon="1.13861">
        <ele>94.3</ele>
        <time>2022-08-11T08:37:14Z</time>
      </trkpt>
      <trkpt lat="44.50279" lon="1.13859">
        <ele>94.3</ele>
        <time>2022-08-11T08:37:16Z</time>
      </trkpt>
      <trkpt lat="44.50279" lon="1.13856">
        <ele>94.2</ele>
        <time>2022-08-11T08:37:18Z</time>
      </trkpt>
      <trkpt lat="44.50278" lon="1.13853">
        <ele>94</ele>
        <time>2022-08-11T08:37:20Z</time>
      </trkpt>
      <trkpt lat="44.50279" lon="1.1385">
        <ele>94</ele>
        <time>2022-08-11T08:37:22Z</time>
      </trkpt>
      <trkpt lat="44.50279" lon="1.13847">
        <ele>94</ele>
        <time>2022-08-11T08:37:24Z</time>
      </trkpt>
      <trkpt lat="44.5028" lon="1.13845">
        <ele>94</ele>
        <time>2022-08-11T08:37:26Z</time>
      </trkpt>
      <trkpt lat="44.50281" lon="1.13842">
        <ele>93.9</ele>
        <time>2022-08-11T08:37:28Z</time>
      </trkpt>
      <trkpt lat="44.50281" lon="1.1384">
        <ele>93.9</ele>
        <time>2022-08-11T08:37:30Z</time>
      </trkpt>
      <trkpt lat="44.50282" lon="1.13838">
        <ele>93.9</ele>
        <time>2022-08-11T08:37:32Z</time>
      </trkpt>
      <trkpt lat="44.50282" lon="1.13834">
        <ele>93.8</ele>
        <time>2022-08-11T08:37:34Z</time>
      </trkpt>
      <trkpt lat="44.50282" lon="1.13832">
        <ele>93.8</ele>
        <time>2022-08-11T08:37:36Z</time>
      </trkpt>
      <trkpt lat="44.50282" lon="1.13829">
        <ele>93.8</ele>
        <time>2022-08-11T08:37:38Z</time>
      </trkpt>
      <trkpt lat="44.50282" lon="1.13828">
        <ele>93.8</ele>
        <time>2022-08-11T08:37:40Z</time>
      </trkpt>
      <trkpt lat="44.50283" lon="1.13826">
        <ele>93.9</ele>
        <time>2022-08-11T08:37:42Z</time>
      </trkpt>
      <trkpt lat="44.50252" lon="1.14025">
        <ele>93.7</ele>
        <time>2022-08-11T09:57:51Z</time>
      </trkpt>
      <trkpt lat="44.5025" lon="1.13979">
        <ele>93</ele>
        <time>2022-08-11T09:59:59Z</time>
      </trkpt>
      <trkpt lat="44.50253" lon="1.13971">
        <ele>93.4</ele>
        <time>2022-08-11T10:00:01Z</time>
      </trkpt>
      <trkpt lat="44.50257" lon="1.13965">
        <ele>93.9</ele>
        <time>2022-08-11T10:00:03Z</time>
      </trkpt>
      <trkpt lat="44.50262" lon="1.13958">
        <ele>94.6</ele>
        <time>2022-08-11T10:00:05Z</time>
      </trkpt>
      <trkpt lat="44.50265" lon="1.13951">
        <ele>94.9</ele>
        <time>2022-08-11T10:00:07Z</time>
      </trkpt>
      <trkpt lat="44.50265" lon="1.13945">
        <ele>94.9</ele>
        <time>2022-08-11T10:00:09Z</time>
      </trkpt>
      <trkpt lat="44.50258" lon="1.13944">
        <ele>94</ele>
        <time>2022-08-11T10:00:11Z</time>
      </trkpt>
      <trkpt lat="44.50251" lon="1.13941">
        <ele>93.1</ele>
        <time>2022-08-11T10:00:13Z</time>
      </trkpt>
      <trkpt lat="44.50247" lon="1.13934">
        <ele>93.5</ele>
        <time>2022-08-11T10:00:15Z</time>
      </trkpt>
      <trkpt lat="44.50243" lon="1.13926">
        <ele>94.4</ele>
        <time>2022-08-11T10:00:17Z</time>
      </trkpt>
      <trkpt lat="44.50238" lon="1.13917">
        <ele>95.2</ele>
        <time>2022-08-11T10:00:19Z</time>
      </trkpt>
      <trkpt lat="44.50236" lon="1.13906">
        <ele>95.3</ele>
        <time>2022-08-11T10:00:21Z</time>
      </trkpt>
      <trkpt lat="44.50233" lon="1.13895">
        <ele>95.2</ele>
        <time>2022-08-11T10:00:23Z</time>
      </trkpt>
      <trkpt lat="44.50231" lon="1.13883">
        <ele>95.1</ele>
        <time>2022-08-11T10:00:25Z</time>
      </trkpt>
      <trkpt lat="44.5023" lon="1.13872">
        <ele>94.8</ele>
        <time>2022-08-11T10:00:27Z</time>
      </trkpt>
      <trkpt lat="44.50227" lon="1.1386">
        <ele>94.8</ele>
        <time>2022-08-11T10:00:29Z</time>
      </trkpt>
      <trkpt lat="44.50225" lon="1.13848">
        <ele>94.6</ele>
        <time>2022-08-11T10:00:31Z</time>
      </trkpt>
      <trkpt lat="44.50222" lon="1.13835">
        <ele>94.4</ele>
        <time>2022-08-11T10:00:33Z</time>
      </trkpt>
      <trkpt lat="44.50219" lon="1.13821">
        <ele>93.8</ele>
        <time>2022-08-11T10:00:35Z</time>
      </trkpt>
      <trkpt lat="44.50218" lon="1.13808">
        <ele>92.8</ele>
        <time>2022-08-11T10:00:37Z</time>
      </trkpt>
      <trkpt lat="44.50216" lon="1.13794">
        <ele>91.8</ele>
        <time>2022-08-11T10:00:39Z</time>
      </trkpt>
      <trkpt lat="44.50213" lon="1.13779">
        <ele>90.6</ele>
        <time>2022-08-11T10:00:41Z</time>
      </trkpt>
      <trkpt lat="44.5021" lon="1.13764">
        <ele>89.3</ele>
        <time>2022-08-11T10:00:43Z</time>
      </trkpt>
      <trkpt lat="44.50207" lon="1.13748">
        <ele>87.9</ele>
        <time>2022-08-11T10:00:45Z</time>
      </trkpt>
      <trkpt lat="44.50205" lon="1.13733">
        <ele>86.9</ele>
        <time>2022-08-11T10:00:47Z</time>
      </trkpt>
      <trkpt lat="44.50202" lon="1.13716">
        <ele>85.6</ele>
        <time>2022-08-11T10:00:49Z</time>
      </trkpt>
      <trkpt lat="44.50198" lon="1.13699">
        <ele>84.4</ele>
        <time>2022-08-11T10:00:51Z</time>
      </trkpt>
      <trkpt lat="44.50196" lon="1.13684">
        <ele>83.3</ele>
        <time>2022-08-11T10:00:53Z</time>
      </trkpt>
      <trkpt lat="44.50193" lon="1.13671">
        <ele>82.3</ele>
        <time>2022-08-11T10:00:55Z</time>
      </trkpt>
      <trkpt lat="44.50191" lon="1.13659">
        <ele>81.9</ele>
        <time>2022-08-11T10:00:57Z</time>
      </trkpt>
      <trkpt lat="44.5019" lon="1.13649">
        <ele>81.9</ele>
        <time>2022-08-11T10:00:59Z</time>
      </trkpt>
      <trkpt lat="44.50189" lon="1.1364">
        <ele>81.8</ele>
        <time>2022-08-11T10:01:01Z</time>
      </trkpt>
      <trkpt lat="44.50187" lon="1.13632">
        <ele>81.7</ele>
        <time>2022-08-11T10:01:03Z</time>
      </trkpt>
      <trkpt lat="44.50185" lon="1.13624">
        <ele>81.6</ele>
        <time>2022-08-11T10:01:05Z</time>
      </trkpt>
      <trkpt lat="44.50185" lon="1.13616">
        <ele>81.5</ele>
        <time>2022-08-11T10:01:07Z</time>
      </trkpt>
      <trkpt lat="44.50183" lon="1.13607">
        <ele>81.4</ele>
        <time>2022-08-11T10:01:09Z</time>
      </trkpt>
      <trkpt lat="44.50181" lon="1.13597">
        <ele>81.3</ele>
        <time>2022-08-11T10:01:11Z</time>
      </trkpt>
      <trkpt lat="44.50179" lon="1.13586">
        <ele>81.2</ele>
        <time>2022-08-11T10:01:13Z</time>
      </trkpt>
      <trkpt lat="44.50177" lon="1.13573">
        <ele>81.3</ele>
        <time>2022-08-11T10:01:15Z</time>
      </trkpt>
      <trkpt lat="44.50174" lon="1.13559">
        <ele>81.6</ele>
        <time>2022-08-11T10:01:17Z</time>
      </trkpt>
      <trkpt lat="44.50171" lon="1.13545">
        <ele>81.9</ele>
        <time>2022-08-11T10:01:19Z</time>
      </trkpt>
      <trkpt lat="44.50167" lon="1.13531">
        <ele>82.2</ele>
        <time>2022-08-11T10:01:21Z</time>
      </trkpt>
      <trkpt lat="44.50162" lon="1.13518">
        <ele>82.6</ele>
        <time>2022-08-11T10:01:23Z</time>
      </trkpt>
      <trkpt lat="44.50159" lon="1.13506">
        <ele>83</ele>
        <time>2022-08-11T10:01:25Z</time>
      </trkpt>
      <trkpt lat="44.50156" lon="1.13496">
        <ele>83.2</ele>
        <time>2022-08-11T10:01:27Z</time>
      </trkpt>
      <trkpt lat="44.50152" lon="1.13485">
        <ele>83.4</ele>
        <time>2022-08-11T10:01:29Z</time>
      </trkpt>
      <trkpt lat="44.50149" lon="1.13476">
        <ele>83.5</ele>
        <time>2022-08-11T10:01:31Z</time>
      </trkpt>
      <trkpt lat="44.50146" lon="1.13466">
        <ele>83.7</ele>
        <time>2022-08-11T10:01:33Z</time>
      </trkpt>
      <trkpt lat="44.50143" lon="1.13457">
        <ele>83.8</ele>
        <time>2022-08-11T10:01:35Z</time>
      </trkpt>
      <trkpt lat="44.50142" lon="1.13448">
        <ele>83.9</ele>
        <time>2022-08-11T10:01:37Z</time>
      </trkpt>
      <trkpt lat="44.50143" lon="1.13438">
        <ele>84</ele>
        <time>2022-08-11T10:01:39Z</time>
      </trkpt>
      <trkpt lat="44.50146" lon="1.13428">
        <ele>84.1</ele>
        <time>2022-08-11T10:01:41Z</time>
      </trkpt>
      <trkpt lat="44.50151" lon="1.13418">
        <ele>84.2</ele>
        <time>2022-08-11T10:01:43Z</time>
      </trkpt>
      <trkpt lat="44.50162" lon="1.13411">
        <ele>84.1</ele>
        <time>2022-08-11T10:01:45Z</time>
      </trkpt>
      <trkpt lat="44.50172" lon="1.13406">
        <ele>84.1</ele>
        <time>2022-08-11T10:01:47Z</time>
      </trkpt>
      <trkpt lat="44.5018" lon="1.13401">
        <ele>84.1</ele>
        <time>2022-08-11T10:01:49Z</time>
      </trkpt>
      <trkpt lat="44.50185" lon="1.13399">
        <ele>84</ele>
        <time>2022-08-11T10:01:51Z</time>
      </trkpt>
      <trkpt lat="44.50189" lon="1.13398">
        <ele>84</ele>
        <time>2022-08-11T10:01:53Z</time>
      </trkpt>
      <trkpt lat="44.50192" lon="1.13405">
        <ele>83.9</ele>
        <time>2022-08-11T10:01:55Z</time>
      </trkpt>
      <trkpt lat="44.50193" lon="1.13414">
        <ele>83.7</ele>
        <time>2022-08-11T10:01:57Z</time>
      </trkpt>
      <trkpt lat="44.50195" lon="1.13423">
        <ele>83.5</ele>
        <time>2022-08-11T10:01:59Z</time>
      </trkpt>
      <trkpt lat="44.50198" lon="1.13432">
        <ele>83.3</ele>
        <time>2022-08-11T10:02:01Z</time>
      </trkpt>
      <trkpt lat="44.50201" lon="1.13442">
        <ele>83</ele>
        <time>2022-08-11T10:02:03Z</time>
      </trkpt>
      <trkpt lat="44.50203" lon="1.13452">
        <ele>82.8</ele>
        <time>2022-08-11T10:02:05Z</time>
      </trkpt>
      <trkpt lat="44.50205" lon="1.13462">
        <ele>82.5</ele>
        <time>2022-08-11T10:02:07Z</time>
      </trkpt>
      <trkpt lat="44.50208" lon="1.13471">
        <ele>82.2</ele>
        <time>2022-08-11T10:02:09Z</time>
      </trkpt>
      <trkpt lat="44.50209" lon="1.13479">
        <ele>82</ele>
        <time>2022-08-11T10:02:11Z</time>
      </trkpt>
      <trkpt lat="44.50212" lon="1.13488">
        <ele>81.7</ele>
        <time>2022-08-11T10:02:13Z</time>
      </trkpt>
      <trkpt lat="44.50213" lon="1.13497">
        <ele>81.4</ele>
        <time>2022-08-11T10:02:15Z</time>
      </trkpt>
      <trkpt lat="44.50215" lon="1.13506">
        <ele>81.3</ele>
        <time>2022-08-11T10:02:17Z</time>
      </trkpt>
      <trkpt lat="44.50217" lon="1.13515">
        <ele>81.3</ele>
        <time>2022-08-11T10:02:19Z</time>
      </trkpt>
      <trkpt lat="44.50223" lon="1.13522">
        <ele>81.2</ele>
        <time>2022-08-11T10:02:21Z</time>
      </trkpt>
      <trkpt lat="44.5023" lon="1.13519">
        <ele>80.9</ele>
        <time>2022-08-11T10:02:23Z</time>
      </trkpt>
      <trkpt lat="44.50236" lon="1.13516">
        <ele>80.8</ele>
        <time>2022-08-11T10:02:25Z</time>
      </trkpt>
      <trkpt lat="44.50241" lon="1.13513">
        <ele>80.6</ele>
        <time>2022-08-11T10:02:27Z</time>
      </trkpt>
      <trkpt lat="44.50247" lon="1.13512">
        <ele>80.4</ele>
        <time>2022-08-11T10:02:29Z</time>
      </trkpt>
      <trkpt lat="44.50253" lon="1.13509">
        <ele>80.3</ele>
        <time>2022-08-11T10:02:31Z</time>
      </trkpt>
      <trkpt lat="44.50259" lon="1.13505">
        <ele>80.4</ele>
        <time>2022-08-11T10:02:33Z</time>
      </trkpt>
      <trkpt lat="44.50263" lon="1.13503">
        <ele>80.4</ele>
        <time>2022-08-11T10:02:35Z</time>
      </trkpt>
      <trkpt lat="44.50268" lon="1.13505">
        <ele>80.6</ele>
        <time>2022-08-11T10:02:37Z</time>
      </trkpt>
      <trkpt lat="44.50274" lon="1.13503">
        <ele>80.7</ele>
        <time>2022-08-11T10:02:39Z</time>
      </trkpt>
      <trkpt lat="44.50278" lon="1.135">
        <ele>80.7</ele>
        <time>2022-08-11T10:02:41Z</time>
      </trkpt>
      <trkpt lat="44.50284" lon="1.13498">
        <ele>80.9</ele>
        <time>2022-08-11T10:02:43Z</time>
      </trkpt>
      <trkpt lat="44.5029" lon="1.13496">
        <ele>81.1</ele>
        <time>2022-08-11T10:02:45Z</time>
      </trkpt>
      <trkpt lat="44.50296" lon="1.13493">
        <ele>81.2</ele>
        <time>2022-08-11T10:02:47Z</time>
      </trkpt>
      <trkpt lat="44.503" lon="1.1349">
        <ele>81.4</ele>
        <time>2022-08-11T10:02:49Z</time>
      </trkpt>
      <trkpt lat="44.50305" lon="1.13487">
        <ele>81.6</ele>
        <time>2022-08-11T10:02:51Z</time>
      </trkpt>
      <trkpt lat="44.50309" lon="1.13485">
        <ele>81.7</ele>
        <time>2022-08-11T10:02:53Z</time>
      </trkpt>
      <trkpt lat="44.50312" lon="1.13482">
        <ele>81.8</ele>
        <time>2022-08-11T10:02:55Z</time>
      </trkpt>
      <trkpt lat="44.50316" lon="1.13478">
        <ele>82</ele>
        <time>2022-08-11T10:02:57Z</time>
      </trkpt>
      <trkpt lat="44.5032" lon="1.13476">
        <ele>82.1</ele>
        <time>2022-08-11T10:02:59Z</time>
      </trkpt>
      <trkpt lat="44.50323" lon="1.13473">
        <ele>82.2</ele>
        <time>2022-08-11T10:03:01Z</time>
      </trkpt>
      <trkpt lat="44.50327" lon="1.13469">
        <ele>82.3</ele>
        <time>2022-08-11T10:03:03Z</time>
      </trkpt>
      <trkpt lat="44.50331" lon="1.13464">
        <ele>82.4</ele>
        <time>2022-08-11T10:03:05Z</time>
      </trkpt>
      <trkpt lat="44.50334" lon="1.13459">
        <ele>82.5</ele>
        <time>2022-08-11T10:03:07Z</time>
      </trkpt>
      <trkpt lat="44.50339" lon="1.13455">
        <ele>83</ele>
        <time>2022-08-11T10:03:09Z</time>
      </trkpt>
      <trkpt lat="44.50341" lon="1.1345">
        <ele>83.2</ele>
        <time>2022-08-11T10:03:11Z</time>
      </trkpt>
      <trkpt lat="44.50346" lon="1.13444">
        <ele>83.4</ele>
        <time>2022-08-11T10:03:13Z</time>
      </trkpt>
      <trkpt lat="44.5035" lon="1.1344">
        <ele>83.5</ele>
        <time>2022-08-11T10:03:15Z</time>
      </trkpt>
      <trkpt lat="44.50354" lon="1.13433">
        <ele>83.4</ele>
        <time>2022-08-11T10:03:17Z</time>
      </trkpt>
      <trkpt lat="44.50358" lon="1.13427">
        <ele>83.2</ele>
        <time>2022-08-11T10:03:19Z</time>
      </trkpt>
      <trkpt lat="44.50363" lon="1.13421">
        <ele>82.9</ele>
        <time>2022-08-11T10:03:21Z</time>
      </trkpt>
      <trkpt lat="44.50369" lon="1.13414">
        <ele>82.6</ele>
        <time>2022-08-11T10:03:23Z</time>
      </trkpt>
      <trkpt lat="44.50374" lon="1.13407">
        <ele>82.5</ele>
        <time>2022-08-11T10:03:25Z</time>
      </trkpt>
      <trkpt lat="44.50379" lon="1.134">
        <ele>82.4</ele>
        <time>2022-08-11T10:03:27Z</time>
      </trkpt>
      <trkpt lat="44.50385" lon="1.13393">
        <ele>82.3</ele>
        <time>2022-08-11T10:03:29Z</time>
      </trkpt>
      <trkpt lat="44.50391" lon="1.13386">
        <ele>82.2</ele>
        <time>2022-08-11T10:03:31Z</time>
      </trkpt>
      <trkpt lat="44.50397" lon="1.13379">
        <ele>82.1</ele>
        <time>2022-08-11T10:03:33Z</time>
      </trkpt>
      <trkpt lat="44.50404" lon="1.13372">
        <ele>82.1</ele>
        <time>2022-08-11T10:03:35Z</time>
      </trkpt>
      <trkpt lat="44.50409" lon="1.13365">
        <ele>82</ele>
        <time>2022-08-11T10:03:37Z</time>
      </trkpt>
      <trkpt lat="44.50415" lon="1.13358">
        <ele>82</ele>
        <time>2022-08-11T10:03:39Z</time>
      </trkpt>
      <trkpt lat="44.5042" lon="1.1335">
        <ele>82.3</ele>
        <time>2022-08-11T10:03:41Z</time>
      </trkpt>
      <trkpt lat="44.50427" lon="1.13342">
        <ele>82.8</ele>
        <time>2022-08-11T10:03:43Z</time>
      </trkpt>
      <trkpt lat="44.50433" lon="1.13334">
        <ele>83.2</ele>
        <time>2022-08-11T10:03:45Z</time>
      </trkpt>
      <trkpt lat="44.50439" lon="1.13326">
        <ele>83.4</ele>
        <time>2022-08-11T10:03:47Z</time>
      </trkpt>
      <trkpt lat="44.50445" lon="1.13319">
        <ele>83.6</ele>
        <time>2022-08-11T10:03:49Z</time>
      </trkpt>
      <trkpt lat="44.5045" lon="1.13312">
        <ele>83.7</ele>
        <time>2022-08-11T10:03:51Z</time>
      </trkpt>
      <trkpt lat="44.50456" lon="1.13304">
        <ele>83.7</ele>
        <time>2022-08-11T10:03:53Z</time>
      </trkpt>
      <trkpt lat="44.50462" lon="1.13298">
        <ele>83.6</ele>
        <time>2022-08-11T10:03:55Z</time>
      </trkpt>
      <trkpt lat="44.50467" lon="1.13291">
        <ele>83.5</ele>
        <time>2022-08-11T10:03:57Z</time>
      </trkpt>
      <trkpt lat="44.50472" lon="1.13284">
        <ele>83.2</ele>
        <time>2022-08-11T10:03:59Z</time>
      </trkpt>
      <trkpt lat="44.50477" lon="1.13276">
        <ele>82.8</ele>
        <time>2022-08-11T10:04:01Z</time>
      </trkpt>
      <trkpt lat="44.50481" lon="1.13268">
        <ele>82.4</ele>
        <time>2022-08-11T10:04:03Z</time>
      </trkpt>
      <trkpt lat="44.50486" lon="1.13261">
        <ele>81.9</ele>
        <time>2022-08-11T10:04:05Z</time>
      </trkpt>
      <trkpt lat="44.5049" lon="1.13255">
        <ele>81.5</ele>
        <time>2022-08-11T10:04:07Z</time>
      </trkpt>
      <trkpt lat="44.50494" lon="1.1325">
        <ele>81.1</ele>
        <time>2022-08-11T10:04:09Z</time>
      </trkpt>
      <trkpt lat="44.50495" lon="1.13242">
        <ele>81.2</ele>
        <time>2022-08-11T10:04:11Z</time>
      </trkpt>
      <trkpt lat="44.50498" lon="1.13234">
        <ele>81.2</ele>
        <time>2022-08-11T10:04:13Z</time>
      </trkpt>
      <trkpt lat="44.50502" lon="1.13226">
        <ele>81.2</ele>
        <time>2022-08-11T10:04:15Z</time>
      </trkpt>
      <trkpt lat="44.50507" lon="1.13217">
        <ele>81.2</ele>
        <time>2022-08-11T10:04:17Z</time>
      </trkpt>
      <trkpt lat="44.50513" lon="1.13209">
        <ele>81.1</ele>
        <time>2022-08-11T10:04:19Z</time>
      </trkpt>
      <trkpt lat="44.50519" lon="1.132">
        <ele>81</ele>
        <time>2022-08-11T10:04:21Z</time>
      </trkpt>
      <trkpt lat="44.50525" lon="1.13193">
        <ele>80.8</ele>
        <time>2022-08-11T10:04:23Z</time>
      </trkpt>
      <trkpt lat="44.50529" lon="1.13185">
        <ele>80.6</ele>
        <time>2022-08-11T10:04:25Z</time>
      </trkpt>
      <trkpt lat="44.50532" lon="1.13179">
        <ele>80.5</ele>
        <time>2022-08-11T10:04:27Z</time>
      </trkpt>
      <trkpt lat="44.50531" lon="1.13173">
        <ele>80.5</ele>
        <time>2022-08-11T10:04:29Z</time>
      </trkpt>
      <trkpt lat="44.50528" lon="1.13166">
        <ele>80.7</ele>
        <time>2022-08-11T10:04:31Z</time>
      </trkpt>
      <trkpt lat="44.50524" lon="1.1316">
        <ele>80.9</ele>
        <time>2022-08-11T10:04:33Z</time>
      </trkpt>
      <trkpt lat="44.50521" lon="1.13154">
        <ele>81.1</ele>
        <time>2022-08-11T10:04:35Z</time>
      </trkpt>
      <trkpt lat="44.50518" lon="1.13152">
        <ele>81.2</ele>
        <time>2022-08-11T10:04:37Z</time>
      </trkpt>
      <trkpt lat="44.50516" lon="1.13147">
        <ele>81.4</ele>
        <time>2022-08-11T10:04:39Z</time>
      </trkpt>
      <trkpt lat="44.50512" lon="1.13142">
        <ele>81.5</ele>
        <time>2022-08-11T10:04:41Z</time>
      </trkpt>
      <trkpt lat="44.5051" lon="1.13137">
        <ele>81.7</ele>
        <time>2022-08-11T10:04:43Z</time>
      </trkpt>
      <trkpt lat="44.50507" lon="1.13133">
        <ele>81.8</ele>
        <time>2022-08-11T10:04:45Z</time>
      </trkpt>
      <trkpt lat="44.50503" lon="1.13129">
        <ele>81.9</ele>
        <time>2022-08-11T10:04:47Z</time>
      </trkpt>
      <trkpt lat="44.505" lon="1.13125">
        <ele>82</ele>
        <time>2022-08-11T10:04:49Z</time>
      </trkpt>
      <trkpt lat="44.50497" lon="1.1312">
        <ele>82</ele>
        <time>2022-08-11T10:04:51Z</time>
      </trkpt>
      <trkpt lat="44.50493" lon="1.13115">
        <ele>82</ele>
        <time>2022-08-11T10:04:53Z</time>
      </trkpt>
      <trkpt lat="44.5049" lon="1.13109">
        <ele>82</ele>
        <time>2022-08-11T10:04:55Z</time>
      </trkpt>
      <trkpt lat="44.50486" lon="1.13103">
        <ele>82</ele>
        <time>2022-08-11T10:04:57Z</time>
      </trkpt>
      <trkpt lat="44.50483" lon="1.13097">
        <ele>82</ele>
        <time>2022-08-11T10:04:59Z</time>
      </trkpt>
      <trkpt lat="44.5048" lon="1.13092">
        <ele>82</ele>
        <time>2022-08-11T10:05:01Z</time>
      </trkpt>
      <trkpt lat="44.50477" lon="1.13085">
        <ele>82</ele>
        <time>2022-08-11T10:05:03Z</time>
      </trkpt>
      <trkpt lat="44.50474" lon="1.13077">
        <ele>82</ele>
        <time>2022-08-11T10:05:05Z</time>
      </trkpt>
      <trkpt lat="44.50471" lon="1.13071">
        <ele>82.1</ele>
        <time>2022-08-11T10:05:07Z</time>
      </trkpt>
      <trkpt lat="44.50469" lon="1.13064">
        <ele>82.1</ele>
        <time>2022-08-11T10:05:09Z</time>
      </trkpt>
      <trkpt lat="44.50466" lon="1.13057">
        <ele>82.1</ele>
        <time>2022-08-11T10:05:11Z</time>
      </trkpt>
      <trkpt lat="44.50463" lon="1.13049">
        <ele>82.2</ele>
        <time>2022-08-11T10:05:13Z</time>
      </trkpt>
      <trkpt lat="44.5046" lon="1.13043">
        <ele>82.2</ele>
        <time>2022-08-11T10:05:15Z</time>
      </trkpt>
      <trkpt lat="44.50456" lon="1.13036">
        <ele>82.3</ele>
        <time>2022-08-11T10:05:17Z</time>
      </trkpt>
      <trkpt lat="44.50453" lon="1.13029">
        <ele>82.4</ele>
        <time>2022-08-11T10:05:19Z</time>
      </trkpt>
      <trkpt lat="44.50449" lon="1.13022">
        <ele>82.4</ele>
        <time>2022-08-11T10:05:21Z</time>
      </trkpt>
      <trkpt lat="44.50446" lon="1.13015">
        <ele>82.5</ele>
        <time>2022-08-11T10:05:23Z</time>
      </trkpt>
      <trkpt lat="44.50442" lon="1.13008">
        <ele>82.6</ele>
        <time>2022-08-11T10:05:25Z</time>
      </trkpt>
      <trkpt lat="44.50438" lon="1.13002">
        <ele>82.7</ele>
        <time>2022-08-11T10:05:27Z</time>
      </trkpt>
      <trkpt lat="44.50434" lon="1.12995">
        <ele>82.8</ele>
        <time>2022-08-11T10:05:29Z</time>
      </trkpt>
      <trkpt lat="44.50431" lon="1.12988">
        <ele>83</ele>
        <time>2022-08-11T10:05:31Z</time>
      </trkpt>
      <trkpt lat="44.50426" lon="1.12983">
        <ele>83.1</ele>
        <time>2022-08-11T10:05:33Z</time>
      </trkpt>
      <trkpt lat="44.50422" lon="1.12977">
        <ele>83.2</ele>
        <time>2022-08-11T10:05:35Z</time>
      </trkpt>
      <trkpt lat="44.50418" lon="1.12972">
        <ele>83.3</ele>
        <time>2022-08-11T10:05:37Z</time>
      </trkpt>
      <trkpt lat="44.50414" lon="1.12966">
        <ele>83.4</ele>
        <time>2022-08-11T10:05:39Z</time>
      </trkpt>
      <trkpt lat="44.50409" lon="1.12959">
        <ele>83.5</ele>
        <time>2022-08-11T10:05:41Z</time>
      </trkpt>
      <trkpt lat="44.50405" lon="1.12953">
        <ele>83.6</ele>
        <time>2022-08-11T10:05:43Z</time>
      </trkpt>
      <trkpt lat="44.50401" lon="1.12947">
        <ele>83.8</ele>
        <time>2022-08-11T10:05:45Z</time>
      </trkpt>
      <trkpt lat="44.50397" lon="1.1294">
        <ele>83.9</ele>
        <time>2022-08-11T10:05:47Z</time>
      </trkpt>
      <trkpt lat="44.50392" lon="1.12935">
        <ele>84</ele>
        <time>2022-08-11T10:05:49Z</time>
      </trkpt>
      <trkpt lat="44.50388" lon="1.12928">
        <ele>84.2</ele>
        <time>2022-08-11T10:05:51Z</time>
      </trkpt>
      <trkpt lat="44.50384" lon="1.12923">
        <ele>84.3</ele>
        <time>2022-08-11T10:05:53Z</time>
      </trkpt>
      <trkpt lat="44.5038" lon="1.12917">
        <ele>84.4</ele>
        <time>2022-08-11T10:05:55Z</time>
      </trkpt>
      <trkpt lat="44.50377" lon="1.12911">
        <ele>84.6</ele>
        <time>2022-08-11T10:05:57Z</time>
      </trkpt>
      <trkpt lat="44.50376" lon="1.12904">
        <ele>84.7</ele>
        <time>2022-08-11T10:05:59Z</time>
      </trkpt>
      <trkpt lat="44.50377" lon="1.12897">
        <ele>84.8</ele>
        <time>2022-08-11T10:06:01Z</time>
      </trkpt>
      <trkpt lat="44.50382" lon="1.12893">
        <ele>84.9</ele>
        <time>2022-08-11T10:06:03Z</time>
      </trkpt>
      <trkpt lat="44.50388" lon="1.12889">
        <ele>84.9</ele>
        <time>2022-08-11T10:06:05Z</time>
      </trkpt>
      <trkpt lat="44.50393" lon="1.12883">
        <ele>85</ele>
        <time>2022-08-11T10:06:07Z</time>
      </trkpt>
      <trkpt lat="44.50399" lon="1.12878">
        <ele>85</ele>
        <time>2022-08-11T10:06:09Z</time>
      </trkpt>
      <trkpt lat="44.50404" lon="1.12872">
        <ele>85.1</ele>
        <time>2022-08-11T10:06:11Z</time>
      </trkpt>
      <trkpt lat="44.5041" lon="1.12866">
        <ele>85.3</ele>
        <time>2022-08-11T10:06:13Z</time>
      </trkpt>
      <trkpt lat="44.50416" lon="1.12859">
        <ele>85.4</ele>
        <time>2022-08-11T10:06:15Z</time>
      </trkpt>
      <trkpt lat="44.50422" lon="1.12853">
        <ele>85.4</ele>
        <time>2022-08-11T10:06:17Z</time>
      </trkpt>
      <trkpt lat="44.50427" lon="1.12845">
        <ele>85.5</ele>
        <time>2022-08-11T10:06:19Z</time>
      </trkpt>
      <trkpt lat="44.50433" lon="1.12838">
        <ele>85.5</ele>
        <time>2022-08-11T10:06:21Z</time>
      </trkpt>
      <trkpt lat="44.5044" lon="1.1283">
        <ele>85.4</ele>
        <time>2022-08-11T10:06:23Z</time>
      </trkpt>
      <trkpt lat="44.50446" lon="1.12823">
        <ele>85.2</ele>
        <time>2022-08-11T10:06:25Z</time>
      </trkpt>
      <trkpt lat="44.50453" lon="1.12815">
        <ele>85</ele>
        <time>2022-08-11T10:06:27Z</time>
      </trkpt>
      <trkpt lat="44.5046" lon="1.12807">
        <ele>84.8</ele>
        <time>2022-08-11T10:06:29Z</time>
      </trkpt>
      <trkpt lat="44.50467" lon="1.12798">
        <ele>84.5</ele>
        <time>2022-08-11T10:06:31Z</time>
      </trkpt>
      <trkpt lat="44.50474" lon="1.1279">
        <ele>84.3</ele>
        <time>2022-08-11T10:06:33Z</time>
      </trkpt>
      <trkpt lat="44.50481" lon="1.12782">
        <ele>84</ele>
        <time>2022-08-11T10:06:35Z</time>
      </trkpt>
      <trkpt lat="44.50489" lon="1.12774">
        <ele>83.7</ele>
        <time>2022-08-11T10:06:37Z</time>
      </trkpt>
      <trkpt lat="44.50496" lon="1.12765">
        <ele>83.3</ele>
        <time>2022-08-11T10:06:39Z</time>
      </trkpt>
      <trkpt lat="44.50503" lon="1.12756">
        <ele>83.1</ele>
        <time>2022-08-11T10:06:41Z</time>
      </trkpt>
      <trkpt lat="44.50511" lon="1.12747">
        <ele>83.1</ele>
        <time>2022-08-11T10:06:43Z</time>
      </trkpt>
      <trkpt lat="44.50518" lon="1.12738">
        <ele>83.3</ele>
        <time>2022-08-11T10:06:45Z</time>
      </trkpt>
      <trkpt lat="44.50525" lon="1.12729">
        <ele>83.6</ele>
        <time>2022-08-11T10:06:47Z</time>
      </trkpt>
      <trkpt lat="44.50532" lon="1.12721">
        <ele>84</ele>
        <time>2022-08-11T10:06:49Z</time>
      </trkpt>
      <trkpt lat="44.50539" lon="1.12712">
        <ele>84.3</ele>
        <time>2022-08-11T10:06:51Z</time>
      </trkpt>
      <trkpt lat="44.50546" lon="1.12703">
        <ele>84.8</ele>
        <time>2022-08-11T10:06:53Z</time>
      </trkpt>
      <trkpt lat="44.50553" lon="1.12693">
        <ele>85.2</ele>
        <time>2022-08-11T10:06:55Z</time>
      </trkpt>
      <trkpt lat="44.5056" lon="1.12683">
        <ele>85.8</ele>
        <time>2022-08-11T10:06:57Z</time>
      </trkpt>
      <trkpt lat="44.50567" lon="1.12674">
        <ele>86.3</ele>
        <time>2022-08-11T10:06:59Z</time>
      </trkpt>
      <trkpt lat="44.50573" lon="1.12664">
        <ele>86.9</ele>
        <time>2022-08-11T10:07:01Z</time>
      </trkpt>
      <trkpt lat="44.5058" lon="1.12655">
        <ele>87.4</ele>
        <time>2022-08-11T10:07:03Z</time>
      </trkpt>
      <trkpt lat="44.50587" lon="1.12645">
        <ele>87.6</ele>
        <time>2022-08-11T10:07:05Z</time>
      </trkpt>
      <trkpt lat="44.50593" lon="1.12636">
        <ele>87.5</ele>
        <time>2022-08-11T10:07:07Z</time>
      </trkpt>
      <trkpt lat="44.50599" lon="1.12626">
        <ele>87.5</ele>
        <time>2022-08-11T10:07:09Z</time>
      </trkpt>
      <trkpt lat="44.50606" lon="1.12617">
        <ele>87.4</ele>
        <time>2022-08-11T10:07:11Z</time>
      </trkpt>
      <trkpt lat="44.50612" lon="1.12608">
        <ele>87.3</ele>
        <time>2022-08-11T10:07:13Z</time>
      </trkpt>
      <trkpt lat="44.50618" lon="1.12598">
        <ele>87.1</ele>
        <time>2022-08-11T10:07:15Z</time>
      </trkpt>
      <trkpt lat="44.50625" lon="1.1259">
        <ele>86.9</ele>
        <time>2022-08-11T10:07:17Z</time>
      </trkpt>
      <trkpt lat="44.50631" lon="1.1258">
        <ele>86.6</ele>
        <time>2022-08-11T10:07:19Z</time>
      </trkpt>
      <trkpt lat="44.50637" lon="1.12571">
        <ele>86.1</ele>
        <time>2022-08-11T10:07:21Z</time>
      </trkpt>
      <trkpt lat="44.50643" lon="1.12562">
        <ele>85.7</ele>
        <time>2022-08-11T10:07:23Z</time>
      </trkpt>
      <trkpt lat="44.50649" lon="1.12553">
        <ele>85.3</ele>
        <time>2022-08-11T10:07:25Z</time>
      </trkpt>
      <trkpt lat="44.50656" lon="1.12544">
        <ele>85</ele>
        <time>2022-08-11T10:07:27Z</time>
      </trkpt>
      <trkpt lat="44.50659" lon="1.12532">
        <ele>84.9</ele>
        <time>2022-08-11T10:07:29Z</time>
      </trkpt>
      <trkpt lat="44.5066" lon="1.12521">
        <ele>85</ele>
        <time>2022-08-11T10:07:31Z</time>
      </trkpt>
      <trkpt lat="44.5066" lon="1.12509">
        <ele>85.1</ele>
        <time>2022-08-11T10:07:33Z</time>
      </trkpt>
      <trkpt lat="44.5066" lon="1.125">
        <ele>85.2</ele>
        <time>2022-08-11T10:07:35Z</time>
      </trkpt>
      <trkpt lat="44.50661" lon="1.12489">
        <ele>85.1</ele>
        <time>2022-08-11T10:07:37Z</time>
      </trkpt>
      <trkpt lat="44.50664" lon="1.12481">
        <ele>85.1</ele>
        <time>2022-08-11T10:07:39Z</time>
      </trkpt>
      <trkpt lat="44.50666" lon="1.12472">
        <ele>85</ele>
        <time>2022-08-11T10:07:41Z</time>
      </trkpt>
      <trkpt lat="44.50669" lon="1.12462">
        <ele>84.9</ele>
        <time>2022-08-11T10:07:43Z</time>
      </trkpt>
      <trkpt lat="44.50672" lon="1.12453">
        <ele>84.9</ele>
        <time>2022-08-11T10:07:45Z</time>
      </trkpt>
      <trkpt lat="44.50675" lon="1.12443">
        <ele>84.8</ele>
        <time>2022-08-11T10:07:47Z</time>
      </trkpt>
      <trkpt lat="44.50679" lon="1.12432">
        <ele>84.7</ele>
        <time>2022-08-11T10:07:49Z</time>
      </trkpt>
      <trkpt lat="44.50683" lon="1.12421">
        <ele>84.6</ele>
        <time>2022-08-11T10:07:51Z</time>
      </trkpt>
      <trkpt lat="44.50688" lon="1.1241">
        <ele>84.5</ele>
        <time>2022-08-11T10:07:53Z</time>
      </trkpt>
      <trkpt lat="44.50693" lon="1.12398">
        <ele>84.4</ele>
        <time>2022-08-11T10:07:55Z</time>
      </trkpt>
      <trkpt lat="44.50698" lon="1.12387">
        <ele>84.2</ele>
        <time>2022-08-11T10:07:57Z</time>
      </trkpt>
      <trkpt lat="44.50703" lon="1.12374">
        <ele>84.1</ele>
        <time>2022-08-11T10:07:59Z</time>
      </trkpt>
      <trkpt lat="44.50707" lon="1.12362">
        <ele>84</ele>
        <time>2022-08-11T10:08:01Z</time>
      </trkpt>
      <trkpt lat="44.50712" lon="1.1235">
        <ele>83.9</ele>
        <time>2022-08-11T10:08:03Z</time>
      </trkpt>
      <trkpt lat="44.50717" lon="1.12338">
        <ele>83.8</ele>
        <time>2022-08-11T10:08:05Z</time>
      </trkpt>
      <trkpt lat="44.50722" lon="1.12325">
        <ele>83.7</ele>
        <time>2022-08-11T10:08:07Z</time>
      </trkpt>
      <trkpt lat="44.50727" lon="1.12312">
        <ele>83.7</ele>
        <time>2022-08-11T10:08:09Z</time>
      </trkpt>
      <trkpt lat="44.50732" lon="1.123">
        <ele>83.7</ele>
        <time>2022-08-11T10:08:11Z</time>
      </trkpt>
      <trkpt lat="44.50737" lon="1.12288">
        <ele>83.7</ele>
        <time>2022-08-11T10:08:13Z</time>
      </trkpt>
      <trkpt lat="44.50741" lon="1.12275">
        <ele>83.8</ele>
        <time>2022-08-11T10:08:15Z</time>
      </trkpt>
      <trkpt lat="44.50744" lon="1.12261">
        <ele>83.9</ele>
        <time>2022-08-11T10:08:17Z</time>
      </trkpt>
      <trkpt lat="44.50747" lon="1.12247">
        <ele>84</ele>
        <time>2022-08-11T10:08:19Z</time>
      </trkpt>
      <trkpt lat="44.50751" lon="1.12235">
        <ele>83.8</ele>
        <time>2022-08-11T10:08:21Z</time>
      </trkpt>
      <trkpt lat="44.50754" lon="1.12224">
        <ele>83.6</ele>
        <time>2022-08-11T10:08:23Z</time>
      </trkpt>
      <trkpt lat="44.50756" lon="1.12211">
        <ele>83.4</ele>
        <time>2022-08-11T10:08:25Z</time>
      </trkpt>
      <trkpt lat="44.50759" lon="1.12198">
        <ele>83.2</ele>
        <time>2022-08-11T10:08:27Z</time>
      </trkpt>
      <trkpt lat="44.50762" lon="1.12185">
        <ele>83</ele>
        <time>2022-08-11T10:08:29Z</time>
      </trkpt>
      <trkpt lat="44.50765" lon="1.12172">
        <ele>82.9</ele>
        <time>2022-08-11T10:08:31Z</time>
      </trkpt>
      <trkpt lat="44.50768" lon="1.12159">
        <ele>82.9</ele>
        <time>2022-08-11T10:08:33Z</time>
      </trkpt>
      <trkpt lat="44.5077" lon="1.12147">
        <ele>82.9</ele>
        <time>2022-08-11T10:08:35Z</time>
      </trkpt>
      <trkpt lat="44.50772" lon="1.12135">
        <ele>83</ele>
        <time>2022-08-11T10:08:37Z</time>
      </trkpt>
      <trkpt lat="44.50774" lon="1.12123">
        <ele>83.1</ele>
        <time>2022-08-11T10:08:39Z</time>
      </trkpt>
      <trkpt lat="44.50777" lon="1.12112">
        <ele>83.1</ele>
        <time>2022-08-11T10:08:41Z</time>
      </trkpt>
      <trkpt lat="44.5078" lon="1.12101">
        <ele>83.2</ele>
        <time>2022-08-11T10:08:43Z</time>
      </trkpt>
      <trkpt lat="44.50782" lon="1.12089">
        <ele>83.2</ele>
        <time>2022-08-11T10:08:45Z</time>
      </trkpt>
      <trkpt lat="44.50785" lon="1.12077">
        <ele>83.1</ele>
        <time>2022-08-11T10:08:47Z</time>
      </trkpt>
      <trkpt lat="44.50787" lon="1.12066">
        <ele>83</ele>
        <time>2022-08-11T10:08:49Z</time>
      </trkpt>
      <trkpt lat="44.50789" lon="1.12053">
        <ele>82.9</ele>
        <time>2022-08-11T10:08:51Z</time>
      </trkpt>
      <trkpt lat="44.50791" lon="1.12042">
        <ele>82.8</ele>
        <time>2022-08-11T10:08:53Z</time>
      </trkpt>
      <trkpt lat="44.50793" lon="1.1203">
        <ele>82.6</ele>
        <time>2022-08-11T10:08:55Z</time>
      </trkpt>
      <trkpt lat="44.50794" lon="1.12017">
        <ele>82.5</ele>
        <time>2022-08-11T10:08:57Z</time>
      </trkpt>
      <trkpt lat="44.50795" lon="1.12005">
        <ele>82.4</ele>
        <time>2022-08-11T10:08:59Z</time>
      </trkpt>
      <trkpt lat="44.50795" lon="1.11993">
        <ele>82.4</ele>
        <time>2022-08-11T10:09:01Z</time>
      </trkpt>
      <trkpt lat="44.50796" lon="1.11981">
        <ele>82.5</ele>
        <time>2022-08-11T10:09:03Z</time>
      </trkpt>
      <trkpt lat="44.50797" lon="1.11968">
        <ele>82.5</ele>
        <time>2022-08-11T10:09:05Z</time>
      </trkpt>
      <trkpt lat="44.50797" lon="1.11955">
        <ele>82.6</ele>
        <time>2022-08-11T10:09:07Z</time>
      </trkpt>
      <trkpt lat="44.50798" lon="1.11943">
        <ele>82.7</ele>
        <time>2022-08-11T10:09:09Z</time>
      </trkpt>
      <trkpt lat="44.50798" lon="1.1193">
        <ele>82.7</ele>
        <time>2022-08-11T10:09:11Z</time>
      </trkpt>
      <trkpt lat="44.50798" lon="1.11918">
        <ele>82.8</ele>
        <time>2022-08-11T10:09:13Z</time>
      </trkpt>
      <trkpt lat="44.50798" lon="1.11905">
        <ele>82.9</ele>
        <time>2022-08-11T10:09:15Z</time>
      </trkpt>
      <trkpt lat="44.50798" lon="1.11893">
        <ele>83</ele>
        <time>2022-08-11T10:09:17Z</time>
      </trkpt>
      <trkpt lat="44.50797" lon="1.1188">
        <ele>83.1</ele>
        <time>2022-08-11T10:09:19Z</time>
      </trkpt>
      <trkpt lat="44.50797" lon="1.11868">
        <ele>83.2</ele>
        <time>2022-08-11T10:09:21Z</time>
      </trkpt>
      <trkpt lat="44.50796" lon="1.11856">
        <ele>83.3</ele>
        <time>2022-08-11T10:09:23Z</time>
      </trkpt>
      <trkpt lat="44.50794" lon="1.11843">
        <ele>83.4</ele>
        <time>2022-08-11T10:09:25Z</time>
      </trkpt>
      <trkpt lat="44.50793" lon="1.1183">
        <ele>83.5</ele>
        <time>2022-08-11T10:09:27Z</time>
      </trkpt>
      <trkpt lat="44.50792" lon="1.11818">
        <ele>83.7</ele>
        <time>2022-08-11T10:09:29Z</time>
      </trkpt>
      <trkpt lat="44.5079" lon="1.11805">
        <ele>83.8</ele>
        <time>2022-08-11T10:09:31Z</time>
      </trkpt>
      <trkpt lat="44.50789" lon="1.11794">
        <ele>84</ele>
        <time>2022-08-11T10:09:33Z</time>
      </trkpt>
      <trkpt lat="44.50788" lon="1.11782">
        <ele>84.2</ele>
        <time>2022-08-11T10:09:35Z</time>
      </trkpt>
      <trkpt lat="44.50787" lon="1.11769">
        <ele>84.3</ele>
        <time>2022-08-11T10:09:37Z</time>
      </trkpt>
      <trkpt lat="44.50786" lon="1.11758">
        <ele>84.5</ele>
        <time>2022-08-11T10:09:39Z</time>
      </trkpt>
      <trkpt lat="44.50785" lon="1.11745">
        <ele>84.6</ele>
        <time>2022-08-11T10:09:41Z</time>
      </trkpt>
      <trkpt lat="44.50784" lon="1.11733">
        <ele>84.6</ele>
        <time>2022-08-11T10:09:43Z</time>
      </trkpt>
      <trkpt lat="44.50783" lon="1.1172">
        <ele>84.6</ele>
        <time>2022-08-11T10:09:45Z</time>
      </trkpt>
      <trkpt lat="44.50782" lon="1.11708">
        <ele>84.6</ele>
        <time>2022-08-11T10:09:47Z</time>
      </trkpt>
      <trkpt lat="44.50782" lon="1.11696">
        <ele>84.6</ele>
        <time>2022-08-11T10:09:49Z</time>
      </trkpt>
      <trkpt lat="44.50781" lon="1.11684">
        <ele>84.6</ele>
        <time>2022-08-11T10:09:51Z</time>
      </trkpt>
      <trkpt lat="44.5078" lon="1.11671">
        <ele>84.6</ele>
        <time>2022-08-11T10:09:53Z</time>
      </trkpt>
      <trkpt lat="44.5078" lon="1.11659">
        <ele>84.6</ele>
        <time>2022-08-11T10:09:55Z</time>
      </trkpt>
      <trkpt lat="44.50779" lon="1.11646">
        <ele>84.5</ele>
        <time>2022-08-11T10:09:57Z</time>
      </trkpt>
      <trkpt lat="44.50778" lon="1.11634">
        <ele>84.4</ele>
        <time>2022-08-11T10:09:59Z</time>
      </trkpt>
      <trkpt lat="44.50777" lon="1.11621">
        <ele>84.3</ele>
        <time>2022-08-11T10:10:01Z</time>
      </trkpt>
      <trkpt lat="44.50776" lon="1.11609">
        <ele>84.3</ele>
        <time>2022-08-11T10:10:03Z</time>
      </trkpt>
      <trkpt lat="44.50774" lon="1.11596">
        <ele>84.2</ele>
        <time>2022-08-11T10:10:05Z</time>
      </trkpt>
      <trkpt lat="44.50773" lon="1.11584">
        <ele>84.2</ele>
        <time>2022-08-11T10:10:07Z</time>
      </trkpt>
      <trkpt lat="44.50771" lon="1.11571">
        <ele>84</ele>
        <time>2022-08-11T10:10:09Z</time>
      </trkpt>
      <trkpt lat="44.5077" lon="1.11558">
        <ele>83.8</ele>
        <time>2022-08-11T10:10:11Z</time>
      </trkpt>
      <trkpt lat="44.5077" lon="1.11546">
        <ele>83.5</ele>
        <time>2022-08-11T10:10:13Z</time>
      </trkpt>
      <trkpt lat="44.50768" lon="1.11533">
        <ele>83.3</ele>
        <time>2022-08-11T10:10:15Z</time>
      </trkpt>
      <trkpt lat="44.50768" lon="1.11521">
        <ele>83</ele>
        <time>2022-08-11T10:10:17Z</time>
      </trkpt>
      <trkpt lat="44.50767" lon="1.11508">
        <ele>82.8</ele>
        <time>2022-08-11T10:10:19Z</time>
      </trkpt>
      <trkpt lat="44.50766" lon="1.11495">
        <ele>82.7</ele>
        <time>2022-08-11T10:10:21Z</time>
      </trkpt>
      <trkpt lat="44.50766" lon="1.11481">
        <ele>82.8</ele>
        <time>2022-08-11T10:10:23Z</time>
      </trkpt>
      <trkpt lat="44.50765" lon="1.11468">
        <ele>82.9</ele>
        <time>2022-08-11T10:10:25Z</time>
      </trkpt>
      <trkpt lat="44.50765" lon="1.11455">
        <ele>83.1</ele>
        <time>2022-08-11T10:10:27Z</time>
      </trkpt>
      <trkpt lat="44.50765" lon="1.11442">
        <ele>83.2</ele>
        <time>2022-08-11T10:10:29Z</time>
      </trkpt>
      <trkpt lat="44.50764" lon="1.11428">
        <ele>83.4</ele>
        <time>2022-08-11T10:10:31Z</time>
      </trkpt>
      <trkpt lat="44.50763" lon="1.11415">
        <ele>83.6</ele>
        <time>2022-08-11T10:10:33Z</time>
      </trkpt>
      <trkpt lat="44.50762" lon="1.11402">
        <ele>83.7</ele>
        <time>2022-08-11T10:10:35Z</time>
      </trkpt>
      <trkpt lat="44.50762" lon="1.11389">
        <ele>83.9</ele>
        <time>2022-08-11T10:10:37Z</time>
      </trkpt>
      <trkpt lat="44.50761" lon="1.11376">
        <ele>84.1</ele>
        <time>2022-08-11T10:10:39Z</time>
      </trkpt>
      <trkpt lat="44.5076" lon="1.11363">
        <ele>84.3</ele>
        <time>2022-08-11T10:10:41Z</time>
      </trkpt>
      <trkpt lat="44.50759" lon="1.1135">
        <ele>84.5</ele>
        <time>2022-08-11T10:10:43Z</time>
      </trkpt>
      <trkpt lat="44.50758" lon="1.11338">
        <ele>84.7</ele>
        <time>2022-08-11T10:10:45Z</time>
      </trkpt>
      <trkpt lat="44.50754" lon="1.11326">
        <ele>84.7</ele>
        <time>2022-08-11T10:10:47Z</time>
      </trkpt>
      <trkpt lat="44.50748" lon="1.11317">
        <ele>84.6</ele>
        <time>2022-08-11T10:10:49Z</time>
      </trkpt>
      <trkpt lat="44.5074" lon="1.11314">
        <ele>84.6</ele>
        <time>2022-08-11T10:10:51Z</time>
      </trkpt>
      <trkpt lat="44.50732" lon="1.11313">
        <ele>84.6</ele>
        <time>2022-08-11T10:10:53Z</time>
      </trkpt>
      <trkpt lat="44.50724" lon="1.11314">
        <ele>84.6</ele>
        <time>2022-08-11T10:10:55Z</time>
      </trkpt>
      <trkpt lat="44.50716" lon="1.11315">
        <ele>84.7</ele>
        <time>2022-08-11T10:10:57Z</time>
      </trkpt>
      <trkpt lat="44.50708" lon="1.11317">
        <ele>84.7</ele>
        <time>2022-08-11T10:10:59Z</time>
      </trkpt>
      <trkpt lat="44.50701" lon="1.11319">
        <ele>84.8</ele>
        <time>2022-08-11T10:11:01Z</time>
      </trkpt>
      <trkpt lat="44.50693" lon="1.1132">
        <ele>84.8</ele>
        <time>2022-08-11T10:11:03Z</time>
      </trkpt>
      <trkpt lat="44.50686" lon="1.11321">
        <ele>84.8</ele>
        <time>2022-08-11T10:11:05Z</time>
      </trkpt>
      <trkpt lat="44.50679" lon="1.11323">
        <ele>84.9</ele>
        <time>2022-08-11T10:11:07Z</time>
      </trkpt>
      <trkpt lat="44.50672" lon="1.11324">
        <ele>84.9</ele>
        <time>2022-08-11T10:11:09Z</time>
      </trkpt>
      <trkpt lat="44.50666" lon="1.11325">
        <ele>84.9</ele>
        <time>2022-08-11T10:11:11Z</time>
      </trkpt>
      <trkpt lat="44.50659" lon="1.11327">
        <ele>84.8</ele>
        <time>2022-08-11T10:11:13Z</time>
      </trkpt>
      <trkpt lat="44.50652" lon="1.11327">
        <ele>84.8</ele>
        <time>2022-08-11T10:11:15Z</time>
      </trkpt>
      <trkpt lat="44.50645" lon="1.11328">
        <ele>84.7</ele>
        <time>2022-08-11T10:11:17Z</time>
      </trkpt>
      <trkpt lat="44.50638" lon="1.11329">
        <ele>84.6</ele>
        <time>2022-08-11T10:11:19Z</time>
      </trkpt>
      <trkpt lat="44.50632" lon="1.1133">
        <ele>84.6</ele>
        <time>2022-08-11T10:11:21Z</time>
      </trkpt>
      <trkpt lat="44.50625" lon="1.11331">
        <ele>84.5</ele>
        <time>2022-08-11T10:11:23Z</time>
      </trkpt>
      <trkpt lat="44.50619" lon="1.11331">
        <ele>84.4</ele>
        <time>2022-08-11T10:11:25Z</time>
      </trkpt>
      <trkpt lat="44.50612" lon="1.11333">
        <ele>84.3</ele>
        <time>2022-08-11T10:11:27Z</time>
      </trkpt>
      <trkpt lat="44.50606" lon="1.11333">
        <ele>84.3</ele>
        <time>2022-08-11T10:11:29Z</time>
      </trkpt>
      <trkpt lat="44.506" lon="1.11333">
        <ele>84.2</ele>
        <time>2022-08-11T10:11:31Z</time>
      </trkpt>
      <trkpt lat="44.50594" lon="1.11333">
        <ele>84.1</ele>
        <time>2022-08-11T10:11:33Z</time>
      </trkpt>
      <trkpt lat="44.50589" lon="1.11329">
        <ele>84.1</ele>
        <time>2022-08-11T10:11:35Z</time>
      </trkpt>
      <trkpt lat="44.50583" lon="1.11321">
        <ele>84.2</ele>
        <time>2022-08-11T10:11:37Z</time>
      </trkpt>
      <trkpt lat="44.5058" lon="1.11312">
        <ele>84.3</ele>
        <time>2022-08-11T10:11:39Z</time>
      </trkpt>
      <trkpt lat="44.50577" lon="1.11302">
        <ele>84.5</ele>
        <time>2022-08-11T10:11:41Z</time>
      </trkpt>
      <trkpt lat="44.50576" lon="1.11291">
        <ele>84.6</ele>
        <time>2022-08-11T10:11:43Z</time>
      </trkpt>
      <trkpt lat="44.50574" lon="1.1128">
        <ele>84.7</ele>
        <time>2022-08-11T10:11:45Z</time>
      </trkpt>
      <trkpt lat="44.50572" lon="1.11269">
        <ele>84.8</ele>
        <time>2022-08-11T10:11:47Z</time>
      </trkpt>
      <trkpt lat="44.50571" lon="1.11257">
        <ele>84.9</ele>
        <time>2022-08-11T10:11:49Z</time>
      </trkpt>
      <trkpt lat="44.50569" lon="1.11245">
        <ele>85</ele>
        <time>2022-08-11T10:11:51Z</time>
      </trkpt>
      <trkpt lat="44.50569" lon="1.11235">
        <ele>85</ele>
        <time>2022-08-11T10:11:53Z</time>
      </trkpt>
      <trkpt lat="44.50567" lon="1.11223">
        <ele>85</ele>
        <time>2022-08-11T10:11:55Z</time>
      </trkpt>
      <trkpt lat="44.50566" lon="1.11212">
        <ele>85</ele>
        <time>2022-08-11T10:11:57Z</time>
      </trkpt>
      <trkpt lat="44.50565" lon="1.112">
        <ele>85</ele>
        <time>2022-08-11T10:11:59Z</time>
      </trkpt>
      <trkpt lat="44.50563" lon="1.11187">
        <ele>85</ele>
        <time>2022-08-11T10:12:01Z</time>
      </trkpt>
      <trkpt lat="44.50562" lon="1.11175">
        <ele>85</ele>
        <time>2022-08-11T10:12:03Z</time>
      </trkpt>
      <trkpt lat="44.5056" lon="1.11162">
        <ele>85</ele>
        <time>2022-08-11T10:12:05Z</time>
      </trkpt>
      <trkpt lat="44.50559" lon="1.1115">
        <ele>85.1</ele>
        <time>2022-08-11T10:12:07Z</time>
      </trkpt>
      <trkpt lat="44.50558" lon="1.11138">
        <ele>85.1</ele>
        <time>2022-08-11T10:12:09Z</time>
      </trkpt>
      <trkpt lat="44.50557" lon="1.11126">
        <ele>85.2</ele>
        <time>2022-08-11T10:12:11Z</time>
      </trkpt>
      <trkpt lat="44.50555" lon="1.11115">
        <ele>85.2</ele>
        <time>2022-08-11T10:12:13Z</time>
      </trkpt>
      <trkpt lat="44.50554" lon="1.11103">
        <ele>85.2</ele>
        <time>2022-08-11T10:12:15Z</time>
      </trkpt>
      <trkpt lat="44.50552" lon="1.11091">
        <ele>85.2</ele>
        <time>2022-08-11T10:12:17Z</time>
      </trkpt>
      <trkpt lat="44.5055" lon="1.11079">
        <ele>85.2</ele>
        <time>2022-08-11T10:12:19Z</time>
      </trkpt>
      <trkpt lat="44.50549" lon="1.11068">
        <ele>85.1</ele>
        <time>2022-08-11T10:12:21Z</time>
      </trkpt>
      <trkpt lat="44.50547" lon="1.11055">
        <ele>85.1</ele>
        <time>2022-08-11T10:12:23Z</time>
      </trkpt>
      <trkpt lat="44.50545" lon="1.11043">
        <ele>85</ele>
        <time>2022-08-11T10:12:25Z</time>
      </trkpt>
      <trkpt lat="44.50544" lon="1.11031">
        <ele>85</ele>
        <time>2022-08-11T10:12:27Z</time>
      </trkpt>
      <trkpt lat="44.50542" lon="1.11019">
        <ele>85</ele>
        <time>2022-08-11T10:12:29Z</time>
      </trkpt>
      <trkpt lat="44.5054" lon="1.11007">
        <ele>85</ele>
        <time>2022-08-11T10:12:31Z</time>
      </trkpt>
      <trkpt lat="44.50538" lon="1.10995">
        <ele>85</ele>
        <time>2022-08-11T10:12:33Z</time>
      </trkpt>
      <trkpt lat="44.50537" lon="1.10983">
        <ele>85</ele>
        <time>2022-08-11T10:12:35Z</time>
      </trkpt>
      <trkpt lat="44.50535" lon="1.10972">
        <ele>85.1</ele>
        <time>2022-08-11T10:12:37Z</time>
      </trkpt>
      <trkpt lat="44.50534" lon="1.10961">
        <ele>85.2</ele>
        <time>2022-08-11T10:12:39Z</time>
      </trkpt>
      <trkpt lat="44.50532" lon="1.10949">
        <ele>85.3</ele>
        <time>2022-08-11T10:12:41Z</time>
      </trkpt>
      <trkpt lat="44.5053" lon="1.10936">
        <ele>85.4</ele>
        <time>2022-08-11T10:12:43Z</time>
      </trkpt>
      <trkpt lat="44.50528" lon="1.10924">
        <ele>85.6</ele>
        <time>2022-08-11T10:12:45Z</time>
      </trkpt>
      <trkpt lat="44.50527" lon="1.10911">
        <ele>85.8</ele>
        <time>2022-08-11T10:12:47Z</time>
      </trkpt>
      <trkpt lat="44.50525" lon="1.10898">
        <ele>86.1</ele>
        <time>2022-08-11T10:12:49Z</time>
      </trkpt>
      <trkpt lat="44.50524" lon="1.10886">
        <ele>86.3</ele>
        <time>2022-08-11T10:12:51Z</time>
      </trkpt>
      <trkpt lat="44.50523" lon="1.10873">
        <ele>86.6</ele>
        <time>2022-08-11T10:12:53Z</time>
      </trkpt>
      <trkpt lat="44.50522" lon="1.10861">
        <ele>86.8</ele>
        <time>2022-08-11T10:12:55Z</time>
      </trkpt>
      <trkpt lat="44.50521" lon="1.10848">
        <ele>87</ele>
        <time>2022-08-11T10:12:57Z</time>
      </trkpt>
      <trkpt lat="44.50521" lon="1.10836">
        <ele>87.2</ele>
        <time>2022-08-11T10:12:59Z</time>
      </trkpt>
      <trkpt lat="44.50521" lon="1.10824">
        <ele>87</ele>
        <time>2022-08-11T10:13:01Z</time>
      </trkpt>
      <trkpt lat="44.50521" lon="1.10811">
        <ele>86.8</ele>
        <time>2022-08-11T10:13:03Z</time>
      </trkpt>
      <trkpt lat="44.5052" lon="1.10798">
        <ele>86.6</ele>
        <time>2022-08-11T10:13:05Z</time>
      </trkpt>
      <trkpt lat="44.50518" lon="1.10786">
        <ele>86.4</ele>
        <time>2022-08-11T10:13:07Z</time>
      </trkpt>
      <trkpt lat="44.50515" lon="1.10774">
        <ele>86.2</ele>
        <time>2022-08-11T10:13:09Z</time>
      </trkpt>
      <trkpt lat="44.50511" lon="1.10763">
        <ele>86</ele>
        <time>2022-08-11T10:13:11Z</time>
      </trkpt>
      <trkpt lat="44.50507" lon="1.10752">
        <ele>85.9</ele>
        <time>2022-08-11T10:13:13Z</time>
      </trkpt>
      <trkpt lat="44.50502" lon="1.10741">
        <ele>85.7</ele>
        <time>2022-08-11T10:13:15Z</time>
      </trkpt>
      <trkpt lat="44.50498" lon="1.1073">
        <ele>85.5</ele>
        <time>2022-08-11T10:13:17Z</time>
      </trkpt>
      <trkpt lat="44.50493" lon="1.10718">
        <ele>85.2</ele>
        <time>2022-08-11T10:13:19Z</time>
      </trkpt>
      <trkpt lat="44.50489" lon="1.10707">
        <ele>85</ele>
        <time>2022-08-11T10:13:21Z</time>
      </trkpt>
      <trkpt lat="44.50485" lon="1.10695">
        <ele>84.7</ele>
        <time>2022-08-11T10:13:23Z</time>
      </trkpt>
      <trkpt lat="44.5048" lon="1.10683">
        <ele>84.5</ele>
        <time>2022-08-11T10:13:25Z</time>
      </trkpt>
      <trkpt lat="44.50476" lon="1.10672">
        <ele>84.4</ele>
        <time>2022-08-11T10:13:27Z</time>
      </trkpt>
      <trkpt lat="44.50473" lon="1.10659">
        <ele>84.3</ele>
        <time>2022-08-11T10:13:29Z</time>
      </trkpt>
      <trkpt lat="44.5047" lon="1.10647">
        <ele>84.2</ele>
        <time>2022-08-11T10:13:31Z</time>
      </trkpt>
      <trkpt lat="44.50467" lon="1.10635">
        <ele>84.2</ele>
        <time>2022-08-11T10:13:33Z</time>
      </trkpt>
      <trkpt lat="44.50463" lon="1.10622">
        <ele>84.1</ele>
        <time>2022-08-11T10:13:35Z</time>
      </trkpt>
      <trkpt lat="44.5046" lon="1.10609">
        <ele>84.1</ele>
        <time>2022-08-11T10:13:37Z</time>
      </trkpt>
      <trkpt lat="44.50457" lon="1.10595">
        <ele>84.1</ele>
        <time>2022-08-11T10:13:39Z</time>
      </trkpt>
      <trkpt lat="44.50453" lon="1.10582">
        <ele>84.1</ele>
        <time>2022-08-11T10:13:41Z</time>
      </trkpt>
      <trkpt lat="44.5045" lon="1.10569">
        <ele>84.1</ele>
        <time>2022-08-11T10:13:43Z</time>
      </trkpt>
      <trkpt lat="44.50446" lon="1.10555">
        <ele>84.1</ele>
        <time>2022-08-11T10:13:45Z</time>
      </trkpt>
      <trkpt lat="44.50443" lon="1.10543">
        <ele>84</ele>
        <time>2022-08-11T10:13:47Z</time>
      </trkpt>
      <trkpt lat="44.50438" lon="1.10529">
        <ele>84</ele>
        <time>2022-08-11T10:13:49Z</time>
      </trkpt>
      <trkpt lat="44.50434" lon="1.10515">
        <ele>83.9</ele>
        <time>2022-08-11T10:13:51Z</time>
      </trkpt>
      <trkpt lat="44.50429" lon="1.10503">
        <ele>83.9</ele>
        <time>2022-08-11T10:13:53Z</time>
      </trkpt>
      <trkpt lat="44.50424" lon="1.10491">
        <ele>83.9</ele>
        <time>2022-08-11T10:13:55Z</time>
      </trkpt>
      <trkpt lat="44.50419" lon="1.10479">
        <ele>84</ele>
        <time>2022-08-11T10:13:57Z</time>
      </trkpt>
      <trkpt lat="44.50413" lon="1.10468">
        <ele>83.9</ele>
        <time>2022-08-11T10:13:59Z</time>
      </trkpt>
      <trkpt lat="44.50406" lon="1.10458">
        <ele>83.8</ele>
        <time>2022-08-11T10:14:01Z</time>
      </trkpt>
      <trkpt lat="44.504" lon="1.10448">
        <ele>83.7</ele>
        <time>2022-08-11T10:14:03Z</time>
      </trkpt>
      <trkpt lat="44.50394" lon="1.10438">
        <ele>83.5</ele>
        <time>2022-08-11T10:14:05Z</time>
      </trkpt>
      <trkpt lat="44.50388" lon="1.10428">
        <ele>83.4</ele>
        <time>2022-08-11T10:14:07Z</time>
      </trkpt>
      <trkpt lat="44.50383" lon="1.10417">
        <ele>83.2</ele>
        <time>2022-08-11T10:14:09Z</time>
      </trkpt>
      <trkpt lat="44.50378" lon="1.10407">
        <ele>82.9</ele>
        <time>2022-08-11T10:14:11Z</time>
      </trkpt>
      <trkpt lat="44.50373" lon="1.10397">
        <ele>82.7</ele>
        <time>2022-08-11T10:14:13Z</time>
      </trkpt>
      <trkpt lat="44.50368" lon="1.10386">
        <ele>82.5</ele>
        <time>2022-08-11T10:14:15Z</time>
      </trkpt>
      <trkpt lat="44.50363" lon="1.10375">
        <ele>82.4</ele>
        <time>2022-08-11T10:14:17Z</time>
      </trkpt>
      <trkpt lat="44.50357" lon="1.10364">
        <ele>82.2</ele>
        <time>2022-08-11T10:14:19Z</time>
      </trkpt>
      <trkpt lat="44.50352" lon="1.10353">
        <ele>82.1</ele>
        <time>2022-08-11T10:14:21Z</time>
      </trkpt>
      <trkpt lat="44.50347" lon="1.10343">
        <ele>82</ele>
        <time>2022-08-11T10:14:23Z</time>
      </trkpt>
      <trkpt lat="44.50342" lon="1.10332">
        <ele>82</ele>
        <time>2022-08-11T10:14:25Z</time>
      </trkpt>
      <trkpt lat="44.50337" lon="1.10322">
        <ele>81.9</ele>
        <time>2022-08-11T10:14:27Z</time>
      </trkpt>
      <trkpt lat="44.50332" lon="1.10311">
        <ele>81.8</ele>
        <time>2022-08-11T10:14:29Z</time>
      </trkpt>
      <trkpt lat="44.50327" lon="1.10301">
        <ele>81.7</ele>
        <time>2022-08-11T10:14:31Z</time>
      </trkpt>
      <trkpt lat="44.50322" lon="1.1029">
        <ele>81.7</ele>
        <time>2022-08-11T10:14:33Z</time>
      </trkpt>
      <trkpt lat="44.50317" lon="1.10279">
        <ele>81.7</ele>
        <time>2022-08-11T10:14:35Z</time>
      </trkpt>
      <trkpt lat="44.50312" lon="1.10269">
        <ele>81.7</ele>
        <time>2022-08-11T10:14:37Z</time>
      </trkpt>
      <trkpt lat="44.50307" lon="1.10259">
        <ele>81.7</ele>
        <time>2022-08-11T10:14:39Z</time>
      </trkpt>
      <trkpt lat="44.50303" lon="1.10248">
        <ele>81.7</ele>
        <time>2022-08-11T10:14:41Z</time>
      </trkpt>
      <trkpt lat="44.50298" lon="1.10238">
        <ele>81.9</ele>
        <time>2022-08-11T10:14:43Z</time>
      </trkpt>
      <trkpt lat="44.50292" lon="1.10229">
        <ele>82</ele>
        <time>2022-08-11T10:14:45Z</time>
      </trkpt>
      <trkpt lat="44.50285" lon="1.10222">
        <ele>82.2</ele>
        <time>2022-08-11T10:14:47Z</time>
      </trkpt>
      <trkpt lat="44.50278" lon="1.10219">
        <ele>82.3</ele>
        <time>2022-08-11T10:14:49Z</time>
      </trkpt>
      <trkpt lat="44.50269" lon="1.1022">
        <ele>82.5</ele>
        <time>2022-08-11T10:14:51Z</time>
      </trkpt>
      <trkpt lat="44.50262" lon="1.10225">
        <ele>82.7</ele>
        <time>2022-08-11T10:14:53Z</time>
      </trkpt>
      <trkpt lat="44.50255" lon="1.10231">
        <ele>82.9</ele>
        <time>2022-08-11T10:14:55Z</time>
      </trkpt>
      <trkpt lat="44.50247" lon="1.10237">
        <ele>83</ele>
        <time>2022-08-11T10:14:57Z</time>
      </trkpt>
      <trkpt lat="44.5024" lon="1.10243">
        <ele>83</ele>
        <time>2022-08-11T10:14:59Z</time>
      </trkpt>
      <trkpt lat="44.50233" lon="1.1025">
        <ele>83</ele>
        <time>2022-08-11T10:15:01Z</time>
      </trkpt>
      <trkpt lat="44.50227" lon="1.10256">
        <ele>83</ele>
        <time>2022-08-11T10:15:03Z</time>
      </trkpt>
      <trkpt lat="44.5022" lon="1.10263">
        <ele>83</ele>
        <time>2022-08-11T10:15:05Z</time>
      </trkpt>
      <trkpt lat="44.50213" lon="1.10269">
        <ele>83</ele>
        <time>2022-08-11T10:15:07Z</time>
      </trkpt>
      <trkpt lat="44.50206" lon="1.10275">
        <ele>83</ele>
        <time>2022-08-11T10:15:09Z</time>
      </trkpt>
      <trkpt lat="44.50199" lon="1.10281">
        <ele>83</ele>
        <time>2022-08-11T10:15:11Z</time>
      </trkpt>
      <trkpt lat="44.50193" lon="1.10288">
        <ele>83</ele>
        <time>2022-08-11T10:15:13Z</time>
      </trkpt>
      <trkpt lat="44.50186" lon="1.10294">
        <ele>83</ele>
        <time>2022-08-11T10:15:15Z</time>
      </trkpt>
      <trkpt lat="44.50179" lon="1.103">
        <ele>83</ele>
        <time>2022-08-11T10:15:17Z</time>
      </trkpt>
      <trkpt lat="44.50173" lon="1.10305">
        <ele>83</ele>
        <time>2022-08-11T10:15:19Z</time>
      </trkpt>
      <trkpt lat="44.50166" lon="1.10311">
        <ele>83</ele>
        <time>2022-08-11T10:15:21Z</time>
      </trkpt>
      <trkpt lat="44.5016" lon="1.10317">
        <ele>83.1</ele>
        <time>2022-08-11T10:15:23Z</time>
      </trkpt>
      <trkpt lat="44.50154" lon="1.10322">
        <ele>83.3</ele>
        <time>2022-08-11T10:15:25Z</time>
      </trkpt>
      <trkpt lat="44.50148" lon="1.10328">
        <ele>83.4</ele>
        <time>2022-08-11T10:15:27Z</time>
      </trkpt>
      <trkpt lat="44.50142" lon="1.10334">
        <ele>83.6</ele>
        <time>2022-08-11T10:15:29Z</time>
      </trkpt>
      <trkpt lat="44.50135" lon="1.1034">
        <ele>83.8</ele>
        <time>2022-08-11T10:15:31Z</time>
      </trkpt>
      <trkpt lat="44.50129" lon="1.10346">
        <ele>84.1</ele>
        <time>2022-08-11T10:15:33Z</time>
      </trkpt>
      <trkpt lat="44.50123" lon="1.10352">
        <ele>84.3</ele>
        <time>2022-08-11T10:15:35Z</time>
      </trkpt>
      <trkpt lat="44.50116" lon="1.10357">
        <ele>84.5</ele>
        <time>2022-08-11T10:15:37Z</time>
      </trkpt>
      <trkpt lat="44.5011" lon="1.10363">
        <ele>84.7</ele>
        <time>2022-08-11T10:15:39Z</time>
      </trkpt>
      <trkpt lat="44.50104" lon="1.10368">
        <ele>84.9</ele>
        <time>2022-08-11T10:15:41Z</time>
      </trkpt>
      <trkpt lat="44.50098" lon="1.10374">
        <ele>85.1</ele>
        <time>2022-08-11T10:15:43Z</time>
      </trkpt>
      <trkpt lat="44.50092" lon="1.1038">
        <ele>85.3</ele>
        <time>2022-08-11T10:15:45Z</time>
      </trkpt>
      <trkpt lat="44.50087" lon="1.10385">
        <ele>85.5</ele>
        <time>2022-08-11T10:15:47Z</time>
      </trkpt>
      <trkpt lat="44.50081" lon="1.1039">
        <ele>85.7</ele>
        <time>2022-08-11T10:15:49Z</time>
      </trkpt>
      <trkpt lat="44.50076" lon="1.10395">
        <ele>85.9</ele>
        <time>2022-08-11T10:15:51Z</time>
      </trkpt>
      <trkpt lat="44.5007" lon="1.10399">
        <ele>86.1</ele>
        <time>2022-08-11T10:15:53Z</time>
      </trkpt>
      <trkpt lat="44.50065" lon="1.10403">
        <ele>86.2</ele>
        <time>2022-08-11T10:15:55Z</time>
      </trkpt>
      <trkpt lat="44.5006" lon="1.10407">
        <ele>86.4</ele>
        <time>2022-08-11T10:15:57Z</time>
      </trkpt>
      <trkpt lat="44.50056" lon="1.10411">
        <ele>86.6</ele>
        <time>2022-08-11T10:15:59Z</time>
      </trkpt>
      <trkpt lat="44.50052" lon="1.10414">
        <ele>86.7</ele>
        <time>2022-08-11T10:16:01Z</time>
      </trkpt>
      <trkpt lat="44.50048" lon="1.10417">
        <ele>86.9</ele>
        <time>2022-08-11T10:16:03Z</time>
      </trkpt>
      <trkpt lat="44.50045" lon="1.10422">
        <ele>87</ele>
        <time>2022-08-11T10:16:05Z</time>
      </trkpt>
      <trkpt lat="44.50042" lon="1.10424">
        <ele>87</ele>
        <time>2022-08-11T10:16:07Z</time>
      </trkpt>
      <trkpt lat="44.50038" lon="1.10421">
        <ele>87.1</ele>
        <time>2022-08-11T10:16:09Z</time>
      </trkpt>
      <trkpt lat="44.50038" lon="1.10414">
        <ele>87</ele>
        <time>2022-08-11T10:16:11Z</time>
      </trkpt>
      <trkpt lat="44.50035" lon="1.10407">
        <ele>87</ele>
        <time>2022-08-11T10:16:13Z</time>
      </trkpt>
      <trkpt lat="44.50032" lon="1.10398">
        <ele>86.9</ele>
        <time>2022-08-11T10:16:15Z</time>
      </trkpt>
      <trkpt lat="44.5003" lon="1.10388">
        <ele>86.7</ele>
        <time>2022-08-11T10:16:17Z</time>
      </trkpt>
      <trkpt lat="44.50027" lon="1.10377">
        <ele>86.6</ele>
        <time>2022-08-11T10:16:19Z</time>
      </trkpt>
      <trkpt lat="44.50023" lon="1.10367">
        <ele>86.4</ele>
        <time>2022-08-11T10:16:21Z</time>
      </trkpt>
      <trkpt lat="44.50021" lon="1.10356">
        <ele>86.2</ele>
        <time>2022-08-11T10:16:23Z</time>
      </trkpt>
      <trkpt lat="44.50017" lon="1.10345">
        <ele>86</ele>
        <time>2022-08-11T10:16:25Z</time>
      </trkpt>
      <trkpt lat="44.50014" lon="1.10334">
        <ele>85.8</ele>
        <time>2022-08-11T10:16:27Z</time>
      </trkpt>
      <trkpt lat="44.50009" lon="1.10321">
        <ele>85.7</ele>
        <time>2022-08-11T10:16:29Z</time>
      </trkpt>
      <trkpt lat="44.50005" lon="1.10309">
        <ele>85.6</ele>
        <time>2022-08-11T10:16:31Z</time>
      </trkpt>
      <trkpt lat="44.50001" lon="1.10297">
        <ele>85.5</ele>
        <time>2022-08-11T10:16:33Z</time>
      </trkpt>
      <trkpt lat="44.49997" lon="1.10285">
        <ele>85.5</ele>
        <time>2022-08-11T10:16:35Z</time>
      </trkpt>
      <trkpt lat="44.49992" lon="1.10272">
        <ele>85.4</ele>
        <time>2022-08-11T10:16:37Z</time>
      </trkpt>
      <trkpt lat="44.49988" lon="1.10259">
        <ele>85.3</ele>
        <time>2022-08-11T10:16:39Z</time>
      </trkpt>
      <trkpt lat="44.49983" lon="1.10246">
        <ele>85.1</ele>
        <time>2022-08-11T10:16:41Z</time>
      </trkpt>
      <trkpt lat="44.49979" lon="1.10234">
        <ele>84.9</ele>
        <time>2022-08-11T10:16:43Z</time>
      </trkpt>
      <trkpt lat="44.49974" lon="1.10221">
        <ele>84.6</ele>
        <time>2022-08-11T10:16:45Z</time>
      </trkpt>
      <trkpt lat="44.49969" lon="1.10208">
        <ele>84.4</ele>
        <time>2022-08-11T10:16:47Z</time>
      </trkpt>
      <trkpt lat="44.49964" lon="1.10195">
        <ele>84.1</ele>
        <time>2022-08-11T10:16:49Z</time>
      </trkpt>
      <trkpt lat="44.49958" lon="1.10182">
        <ele>83.9</ele>
        <time>2022-08-11T10:16:51Z</time>
      </trkpt>
      <trkpt lat="44.49953" lon="1.10169">
        <ele>83.6</ele>
        <time>2022-08-11T10:16:53Z</time>
      </trkpt>
      <trkpt lat="44.49948" lon="1.10157">
        <ele>83.5</ele>
        <time>2022-08-11T10:16:55Z</time>
      </trkpt>
      <trkpt lat="44.49943" lon="1.10144">
        <ele>83.5</ele>
        <time>2022-08-11T10:16:57Z</time>
      </trkpt>
      <trkpt lat="44.49939" lon="1.10131">
        <ele>83.4</ele>
        <time>2022-08-11T10:16:59Z</time>
      </trkpt>
      <trkpt lat="44.49933" lon="1.10118">
        <ele>83.3</ele>
        <time>2022-08-11T10:17:01Z</time>
      </trkpt>
      <trkpt lat="44.49928" lon="1.10105">
        <ele>83.2</ele>
        <time>2022-08-11T10:17:03Z</time>
      </trkpt>
      <trkpt lat="44.49923" lon="1.10092">
        <ele>83.1</ele>
        <time>2022-08-11T10:17:05Z</time>
      </trkpt>
      <trkpt lat="44.49918" lon="1.10079">
        <ele>83</ele>
        <time>2022-08-11T10:17:07Z</time>
      </trkpt>
      <trkpt lat="44.49913" lon="1.10067">
        <ele>83.1</ele>
        <time>2022-08-11T10:17:09Z</time>
      </trkpt>
      <trkpt lat="44.49908" lon="1.10054">
        <ele>83.3</ele>
        <time>2022-08-11T10:17:11Z</time>
      </trkpt>
      <trkpt lat="44.49903" lon="1.10041">
        <ele>83.4</ele>
        <time>2022-08-11T10:17:13Z</time>
      </trkpt>
      <trkpt lat="44.49899" lon="1.10028">
        <ele>83.5</ele>
        <time>2022-08-11T10:17:15Z</time>
      </trkpt>
      <trkpt lat="44.49895" lon="1.10015">
        <ele>83.6</ele>
        <time>2022-08-11T10:17:17Z</time>
      </trkpt>
      <trkpt lat="44.49891" lon="1.10003">
        <ele>83.6</ele>
        <time>2022-08-11T10:17:19Z</time>
      </trkpt>
      <trkpt lat="44.49888" lon="1.09991">
        <ele>83.7</ele>
        <time>2022-08-11T10:17:21Z</time>
      </trkpt>
      <trkpt lat="44.49884" lon="1.09978">
        <ele>83.8</ele>
        <time>2022-08-11T10:17:23Z</time>
      </trkpt>
      <trkpt lat="44.4988" lon="1.09965">
        <ele>83.9</ele>
        <time>2022-08-11T10:17:25Z</time>
      </trkpt>
      <trkpt lat="44.49877" lon="1.09953">
        <ele>84</ele>
        <time>2022-08-11T10:17:27Z</time>
      </trkpt>
      <trkpt lat="44.49874" lon="1.09939">
        <ele>84</ele>
        <time>2022-08-11T10:17:29Z</time>
      </trkpt>
      <trkpt lat="44.49871" lon="1.09925">
        <ele>84.1</ele>
        <time>2022-08-11T10:17:31Z</time>
      </trkpt>
      <trkpt lat="44.4987" lon="1.09911">
        <ele>84</ele>
        <time>2022-08-11T10:17:33Z</time>
      </trkpt>
      <trkpt lat="44.49868" lon="1.09897">
        <ele>83.7</ele>
        <time>2022-08-11T10:17:35Z</time>
      </trkpt>
      <trkpt lat="44.49866" lon="1.09883">
        <ele>83.3</ele>
        <time>2022-08-11T10:17:37Z</time>
      </trkpt>
      <trkpt lat="44.49865" lon="1.09868">
        <ele>82.9</ele>
        <time>2022-08-11T10:17:39Z</time>
      </trkpt>
      <trkpt lat="44.49866" lon="1.09853">
        <ele>82.5</ele>
        <time>2022-08-11T10:17:41Z</time>
      </trkpt>
      <trkpt lat="44.49867" lon="1.09836">
        <ele>82.1</ele>
        <time>2022-08-11T10:17:43Z</time>
      </trkpt>
      <trkpt lat="44.49867" lon="1.09821">
        <ele>82.1</ele>
        <time>2022-08-11T10:17:45Z</time>
      </trkpt>
      <trkpt lat="44.49868" lon="1.09806">
        <ele>82.1</ele>
        <time>2022-08-11T10:17:47Z</time>
      </trkpt>
      <trkpt lat="44.49869" lon="1.09792">
        <ele>82.2</ele>
        <time>2022-08-11T10:17:49Z</time>
      </trkpt>
      <trkpt lat="44.49871" lon="1.09778">
        <ele>82.3</ele>
        <time>2022-08-11T10:17:51Z</time>
      </trkpt>
      <trkpt lat="44.49872" lon="1.09764">
        <ele>82.4</ele>
        <time>2022-08-11T10:17:53Z</time>
      </trkpt>
      <trkpt lat="44.49874" lon="1.0975">
        <ele>82.5</ele>
        <time>2022-08-11T10:17:55Z</time>
      </trkpt>
      <trkpt lat="44.49877" lon="1.09737">
        <ele>82.3</ele>
        <time>2022-08-11T10:17:57Z</time>
      </trkpt>
      <trkpt lat="44.4988" lon="1.09723">
        <ele>82.1</ele>
        <time>2022-08-11T10:17:59Z</time>
      </trkpt>
      <trkpt lat="44.49884" lon="1.0971">
        <ele>81.8</ele>
        <time>2022-08-11T10:18:01Z</time>
      </trkpt>
      <trkpt lat="44.49887" lon="1.09696">
        <ele>81.6</ele>
        <time>2022-08-11T10:18:03Z</time>
      </trkpt>
      <trkpt lat="44.49892" lon="1.09683">
        <ele>81.3</ele>
        <time>2022-08-11T10:18:05Z</time>
      </trkpt>
      <trkpt lat="44.49896" lon="1.0967">
        <ele>81.1</ele>
        <time>2022-08-11T10:18:07Z</time>
      </trkpt>
      <trkpt lat="44.49901" lon="1.09658">
        <ele>80.8</ele>
        <time>2022-08-11T10:18:09Z</time>
      </trkpt>
      <trkpt lat="44.49907" lon="1.09646">
        <ele>80.6</ele>
        <time>2022-08-11T10:18:11Z</time>
      </trkpt>
      <trkpt lat="44.49912" lon="1.09634">
        <ele>80.3</ele>
        <time>2022-08-11T10:18:13Z</time>
      </trkpt>
      <trkpt lat="44.49917" lon="1.09623">
        <ele>79.9</ele>
        <time>2022-08-11T10:18:15Z</time>
      </trkpt>
      <trkpt lat="44.49922" lon="1.09611">
        <ele>79.5</ele>
        <time>2022-08-11T10:18:17Z</time>
      </trkpt>
      <trkpt lat="44.49926" lon="1.09599">
        <ele>79.2</ele>
        <time>2022-08-11T10:18:19Z</time>
      </trkpt>
      <trkpt lat="44.49931" lon="1.09587">
        <ele>78.9</ele>
        <time>2022-08-11T10:18:21Z</time>
      </trkpt>
      <trkpt lat="44.49936" lon="1.09577">
        <ele>78.9</ele>
        <time>2022-08-11T10:18:23Z</time>
      </trkpt>
      <trkpt lat="44.4994" lon="1.09566">
        <ele>78.9</ele>
        <time>2022-08-11T10:18:25Z</time>
      </trkpt>
      <trkpt lat="44.49944" lon="1.09557">
        <ele>79</ele>
        <time>2022-08-11T10:18:27Z</time>
      </trkpt>
      <trkpt lat="44.49948" lon="1.09547">
        <ele>79.1</ele>
        <time>2022-08-11T10:18:29Z</time>
      </trkpt>
      <trkpt lat="44.49952" lon="1.09536">
        <ele>79.1</ele>
        <time>2022-08-11T10:18:31Z</time>
      </trkpt>
      <trkpt lat="44.49957" lon="1.09527">
        <ele>79.2</ele>
        <time>2022-08-11T10:18:33Z</time>
      </trkpt>
      <trkpt lat="44.49961" lon="1.09517">
        <ele>79.3</ele>
        <time>2022-08-11T10:18:35Z</time>
      </trkpt>
      <trkpt lat="44.49965" lon="1.09508">
        <ele>79.3</ele>
        <time>2022-08-11T10:18:37Z</time>
      </trkpt>
      <trkpt lat="44.49969" lon="1.09497">
        <ele>79.4</ele>
        <time>2022-08-11T10:18:39Z</time>
      </trkpt>
      <trkpt lat="44.49973" lon="1.09486">
        <ele>79.4</ele>
        <time>2022-08-11T10:18:41Z</time>
      </trkpt>
      <trkpt lat="44.49977" lon="1.09475">
        <ele>79.5</ele>
        <time>2022-08-11T10:18:43Z</time>
      </trkpt>
      <trkpt lat="44.49982" lon="1.09465">
        <ele>79.7</ele>
        <time>2022-08-11T10:18:45Z</time>
      </trkpt>
      <trkpt lat="44.49985" lon="1.09454">
        <ele>79.9</ele>
        <time>2022-08-11T10:18:47Z</time>
      </trkpt>
      <trkpt lat="44.4999" lon="1.09445">
        <ele>80.1</ele>
        <time>2022-08-11T10:18:49Z</time>
      </trkpt>
      <trkpt lat="44.49993" lon="1.09436">
        <ele>80.4</ele>
        <time>2022-08-11T10:18:51Z</time>
      </trkpt>
      <trkpt lat="44.49997" lon="1.09426">
        <ele>80.7</ele>
        <time>2022-08-11T10:18:53Z</time>
      </trkpt>
      <trkpt lat="44.50001" lon="1.09415">
        <ele>81</ele>
        <time>2022-08-11T10:18:55Z</time>
      </trkpt>
      <trkpt lat="44.50006" lon="1.09404">
        <ele>80.9</ele>
        <time>2022-08-11T10:18:57Z</time>
      </trkpt>
      <trkpt lat="44.5001" lon="1.09394">
        <ele>80.9</ele>
        <time>2022-08-11T10:18:59Z</time>
      </trkpt>
      <trkpt lat="44.50014" lon="1.09383">
        <ele>80.9</ele>
        <time>2022-08-11T10:19:01Z</time>
      </trkpt>
      <trkpt lat="44.50019" lon="1.09372">
        <ele>80.9</ele>
        <time>2022-08-11T10:19:03Z</time>
      </trkpt>
      <trkpt lat="44.50023" lon="1.09362">
        <ele>80.9</ele>
        <time>2022-08-11T10:19:05Z</time>
      </trkpt>
      <trkpt lat="44.50028" lon="1.09352">
        <ele>80.9</ele>
        <time>2022-08-11T10:19:07Z</time>
      </trkpt>
      <trkpt lat="44.50032" lon="1.09342">
        <ele>81</ele>
        <time>2022-08-11T10:19:09Z</time>
      </trkpt>
      <trkpt lat="44.50036" lon="1.09333">
        <ele>81</ele>
        <time>2022-08-11T10:19:11Z</time>
      </trkpt>
      <trkpt lat="44.5004" lon="1.09321">
        <ele>81.1</ele>
        <time>2022-08-11T10:19:13Z</time>
      </trkpt>
      <trkpt lat="44.50044" lon="1.09311">
        <ele>81.1</ele>
        <time>2022-08-11T10:19:15Z</time>
      </trkpt>
      <trkpt lat="44.50049" lon="1.09299">
        <ele>81.2</ele>
        <time>2022-08-11T10:19:17Z</time>
      </trkpt>
      <trkpt lat="44.50054" lon="1.0929">
        <ele>81.3</ele>
        <time>2022-08-11T10:19:19Z</time>
      </trkpt>
      <trkpt lat="44.50058" lon="1.09278">
        <ele>81.5</ele>
        <time>2022-08-11T10:19:21Z</time>
      </trkpt>
      <trkpt lat="44.50063" lon="1.09268">
        <ele>81.6</ele>
        <time>2022-08-11T10:19:23Z</time>
      </trkpt>
      <trkpt lat="44.50067" lon="1.09257">
        <ele>81.7</ele>
        <time>2022-08-11T10:19:25Z</time>
      </trkpt>
      <trkpt lat="44.50071" lon="1.09245">
        <ele>81.8</ele>
        <time>2022-08-11T10:19:27Z</time>
      </trkpt>
      <trkpt lat="44.50076" lon="1.09235">
        <ele>81.7</ele>
        <time>2022-08-11T10:19:29Z</time>
      </trkpt>
      <trkpt lat="44.50081" lon="1.09225">
        <ele>81.7</ele>
        <time>2022-08-11T10:19:31Z</time>
      </trkpt>
      <trkpt lat="44.50086" lon="1.09214">
        <ele>81.5</ele>
        <time>2022-08-11T10:19:33Z</time>
      </trkpt>
      <trkpt lat="44.5009" lon="1.09203">
        <ele>81.3</ele>
        <time>2022-08-11T10:19:35Z</time>
      </trkpt>
      <trkpt lat="44.50095" lon="1.09193">
        <ele>81.2</ele>
        <time>2022-08-11T10:19:37Z</time>
      </trkpt>
      <trkpt lat="44.50099" lon="1.09181">
        <ele>81.1</ele>
        <time>2022-08-11T10:19:39Z</time>
      </trkpt>
      <trkpt lat="44.50105" lon="1.09171">
        <ele>81</ele>
        <time>2022-08-11T10:19:41Z</time>
      </trkpt>
      <trkpt lat="44.50108" lon="1.09159">
        <ele>81.1</ele>
        <time>2022-08-11T10:19:43Z</time>
      </trkpt>
      <trkpt lat="44.50113" lon="1.09148">
        <ele>81.2</ele>
        <time>2022-08-11T10:19:45Z</time>
      </trkpt>
      <trkpt lat="44.50119" lon="1.09139">
        <ele>81.4</ele>
        <time>2022-08-11T10:19:47Z</time>
      </trkpt>
      <trkpt lat="44.50122" lon="1.09126">
        <ele>81.7</ele>
        <time>2022-08-11T10:19:49Z</time>
      </trkpt>
      <trkpt lat="44.50125" lon="1.09116">
        <ele>81.9</ele>
        <time>2022-08-11T10:19:51Z</time>
      </trkpt>
      <trkpt lat="44.5013" lon="1.09106">
        <ele>82.2</ele>
        <time>2022-08-11T10:19:53Z</time>
      </trkpt>
      <trkpt lat="44.50134" lon="1.09095">
        <ele>82.6</ele>
        <time>2022-08-11T10:19:55Z</time>
      </trkpt>
      <trkpt lat="44.50139" lon="1.09085">
        <ele>83</ele>
        <time>2022-08-11T10:19:57Z</time>
      </trkpt>
      <trkpt lat="44.50143" lon="1.09075">
        <ele>83.3</ele>
        <time>2022-08-11T10:19:59Z</time>
      </trkpt>
      <trkpt lat="44.50147" lon="1.09064">
        <ele>83.6</ele>
        <time>2022-08-11T10:20:01Z</time>
      </trkpt>
      <trkpt lat="44.50151" lon="1.09053">
        <ele>84</ele>
        <time>2022-08-11T10:20:03Z</time>
      </trkpt>
      <trkpt lat="44.50155" lon="1.09042">
        <ele>84.4</ele>
        <time>2022-08-11T10:20:05Z</time>
      </trkpt>
      <trkpt lat="44.5016" lon="1.0903">
        <ele>84.9</ele>
        <time>2022-08-11T10:20:07Z</time>
      </trkpt>
      <trkpt lat="44.50165" lon="1.0902">
        <ele>85.4</ele>
        <time>2022-08-11T10:20:09Z</time>
      </trkpt>
      <trkpt lat="44.50169" lon="1.09009">
        <ele>85.9</ele>
        <time>2022-08-11T10:20:11Z</time>
      </trkpt>
      <trkpt lat="44.50174" lon="1.08997">
        <ele>86.3</ele>
        <time>2022-08-11T10:20:13Z</time>
      </trkpt>
      <trkpt lat="44.50179" lon="1.08987">
        <ele>86.6</ele>
        <time>2022-08-11T10:20:15Z</time>
      </trkpt>
      <trkpt lat="44.50184" lon="1.08976">
        <ele>86.9</ele>
        <time>2022-08-11T10:20:17Z</time>
      </trkpt>
      <trkpt lat="44.50188" lon="1.08964">
        <ele>87.2</ele>
        <time>2022-08-11T10:20:19Z</time>
      </trkpt>
      <trkpt lat="44.50192" lon="1.08953">
        <ele>87.4</ele>
        <time>2022-08-11T10:20:21Z</time>
      </trkpt>
      <trkpt lat="44.50196" lon="1.08942">
        <ele>87.6</ele>
        <time>2022-08-11T10:20:23Z</time>
      </trkpt>
      <trkpt lat="44.50201" lon="1.08931">
        <ele>87.8</ele>
        <time>2022-08-11T10:20:25Z</time>
      </trkpt>
      <trkpt lat="44.50205" lon="1.0892">
        <ele>88</ele>
        <time>2022-08-11T10:20:27Z</time>
      </trkpt>
      <trkpt lat="44.5021" lon="1.08909">
        <ele>88</ele>
        <time>2022-08-11T10:20:29Z</time>
      </trkpt>
      <trkpt lat="44.50214" lon="1.08898">
        <ele>88.1</ele>
        <time>2022-08-11T10:20:31Z</time>
      </trkpt>
      <trkpt lat="44.50219" lon="1.08887">
        <ele>88.1</ele>
        <time>2022-08-11T10:20:33Z</time>
      </trkpt>
      <trkpt lat="44.50224" lon="1.08877">
        <ele>88.1</ele>
        <time>2022-08-11T10:20:35Z</time>
      </trkpt>
      <trkpt lat="44.50229" lon="1.08865">
        <ele>88.2</ele>
        <time>2022-08-11T10:20:37Z</time>
      </trkpt>
      <trkpt lat="44.50234" lon="1.08854">
        <ele>88.1</ele>
        <time>2022-08-11T10:20:39Z</time>
      </trkpt>
      <trkpt lat="44.50239" lon="1.08843">
        <ele>88.1</ele>
        <time>2022-08-11T10:20:41Z</time>
      </trkpt>
      <trkpt lat="44.50244" lon="1.0883">
        <ele>88.1</ele>
        <time>2022-08-11T10:20:43Z</time>
      </trkpt>
      <trkpt lat="44.50248" lon="1.08819">
        <ele>88.2</ele>
        <time>2022-08-11T10:20:45Z</time>
      </trkpt>
      <trkpt lat="44.50253" lon="1.08808">
        <ele>88.3</ele>
        <time>2022-08-11T10:20:47Z</time>
      </trkpt>
      <trkpt lat="44.50257" lon="1.08796">
        <ele>88.5</ele>
        <time>2022-08-11T10:20:49Z</time>
      </trkpt>
      <trkpt lat="44.50262" lon="1.08785">
        <ele>88.6</ele>
        <time>2022-08-11T10:20:51Z</time>
      </trkpt>
      <trkpt lat="44.50267" lon="1.08774">
        <ele>88.7</ele>
        <time>2022-08-11T10:20:53Z</time>
      </trkpt>
      <trkpt lat="44.50272" lon="1.08762">
        <ele>88.9</ele>
        <time>2022-08-11T10:20:55Z</time>
      </trkpt>
      <trkpt lat="44.50277" lon="1.08752">
        <ele>89</ele>
        <time>2022-08-11T10:20:57Z</time>
      </trkpt>
      <trkpt lat="44.50282" lon="1.0874">
        <ele>89.1</ele>
        <time>2022-08-11T10:20:59Z</time>
      </trkpt>
      <trkpt lat="44.50287" lon="1.0873">
        <ele>89.2</ele>
        <time>2022-08-11T10:21:01Z</time>
      </trkpt>
      <trkpt lat="44.50291" lon="1.08719">
        <ele>89.4</ele>
        <time>2022-08-11T10:21:03Z</time>
      </trkpt>
      <trkpt lat="44.50295" lon="1.08708">
        <ele>89.5</ele>
        <time>2022-08-11T10:21:05Z</time>
      </trkpt>
      <trkpt lat="44.503" lon="1.08696">
        <ele>89.8</ele>
        <time>2022-08-11T10:21:07Z</time>
      </trkpt>
      <trkpt lat="44.50304" lon="1.08684">
        <ele>90</ele>
        <time>2022-08-11T10:21:09Z</time>
      </trkpt>
      <trkpt lat="44.50309" lon="1.08674">
        <ele>90.3</ele>
        <time>2022-08-11T10:21:11Z</time>
      </trkpt>
      <trkpt lat="44.50314" lon="1.08662">
        <ele>90.4</ele>
        <time>2022-08-11T10:21:13Z</time>
      </trkpt>
      <trkpt lat="44.50319" lon="1.0865">
        <ele>90.3</ele>
        <time>2022-08-11T10:21:15Z</time>
      </trkpt>
      <trkpt lat="44.50323" lon="1.08639">
        <ele>90.2</ele>
        <time>2022-08-11T10:21:17Z</time>
      </trkpt>
      <trkpt lat="44.50328" lon="1.08628">
        <ele>90</ele>
        <time>2022-08-11T10:21:19Z</time>
      </trkpt>
      <trkpt lat="44.50333" lon="1.08616">
        <ele>89.8</ele>
        <time>2022-08-11T10:21:21Z</time>
      </trkpt>
      <trkpt lat="44.50337" lon="1.08603">
        <ele>89.5</ele>
        <time>2022-08-11T10:21:23Z</time>
      </trkpt>
      <trkpt lat="44.50342" lon="1.08592">
        <ele>89.4</ele>
        <time>2022-08-11T10:21:25Z</time>
      </trkpt>
      <trkpt lat="44.50347" lon="1.0858">
        <ele>89.3</ele>
        <time>2022-08-11T10:21:27Z</time>
      </trkpt>
      <trkpt lat="44.50352" lon="1.08568">
        <ele>89.3</ele>
        <time>2022-08-11T10:21:29Z</time>
      </trkpt>
      <trkpt lat="44.50356" lon="1.08556">
        <ele>89.2</ele>
        <time>2022-08-11T10:21:31Z</time>
      </trkpt>
      <trkpt lat="44.50361" lon="1.08544">
        <ele>89.2</ele>
        <time>2022-08-11T10:21:33Z</time>
      </trkpt>
      <trkpt lat="44.50367" lon="1.08534">
        <ele>89.2</ele>
        <time>2022-08-11T10:21:35Z</time>
      </trkpt>
      <trkpt lat="44.50371" lon="1.08521">
        <ele>89.2</ele>
        <time>2022-08-11T10:21:37Z</time>
      </trkpt>
      <trkpt lat="44.50376" lon="1.08509">
        <ele>89.1</ele>
        <time>2022-08-11T10:21:39Z</time>
      </trkpt>
      <trkpt lat="44.5038" lon="1.08498">
        <ele>89.1</ele>
        <time>2022-08-11T10:21:41Z</time>
      </trkpt>
      <trkpt lat="44.50386" lon="1.08486">
        <ele>89.3</ele>
        <time>2022-08-11T10:21:43Z</time>
      </trkpt>
      <trkpt lat="44.50391" lon="1.08475">
        <ele>89.5</ele>
        <time>2022-08-11T10:21:45Z</time>
      </trkpt>
      <trkpt lat="44.50395" lon="1.08463">
        <ele>89.6</ele>
        <time>2022-08-11T10:21:47Z</time>
      </trkpt>
      <trkpt lat="44.504" lon="1.08451">
        <ele>89.7</ele>
        <time>2022-08-11T10:21:49Z</time>
      </trkpt>
      <trkpt lat="44.50404" lon="1.0844">
        <ele>89.8</ele>
        <time>2022-08-11T10:21:51Z</time>
      </trkpt>
      <trkpt lat="44.50409" lon="1.08429">
        <ele>89.9</ele>
        <time>2022-08-11T10:21:53Z</time>
      </trkpt>
      <trkpt lat="44.50414" lon="1.08419">
        <ele>90</ele>
        <time>2022-08-11T10:21:55Z</time>
      </trkpt>
      <trkpt lat="44.50419" lon="1.08407">
        <ele>90</ele>
        <time>2022-08-11T10:21:57Z</time>
      </trkpt>
      <trkpt lat="44.50424" lon="1.08394">
        <ele>89.9</ele>
        <time>2022-08-11T10:21:59Z</time>
      </trkpt>
      <trkpt lat="44.50429" lon="1.08384">
        <ele>89.8</ele>
        <time>2022-08-11T10:22:01Z</time>
      </trkpt>
      <trkpt lat="44.50434" lon="1.08371">
        <ele>89.7</ele>
        <time>2022-08-11T10:22:03Z</time>
      </trkpt>
      <trkpt lat="44.50439" lon="1.08359">
        <ele>89.6</ele>
        <time>2022-08-11T10:22:05Z</time>
      </trkpt>
      <trkpt lat="44.50444" lon="1.08349">
        <ele>89.4</ele>
        <time>2022-08-11T10:22:07Z</time>
      </trkpt>
      <trkpt lat="44.50448" lon="1.08336">
        <ele>89.3</ele>
        <time>2022-08-11T10:22:09Z</time>
      </trkpt>
      <trkpt lat="44.50453" lon="1.08324">
        <ele>89.1</ele>
        <time>2022-08-11T10:22:11Z</time>
      </trkpt>
      <trkpt lat="44.50458" lon="1.08313">
        <ele>88.9</ele>
        <time>2022-08-11T10:22:13Z</time>
      </trkpt>
      <trkpt lat="44.50463" lon="1.08301">
        <ele>88.7</ele>
        <time>2022-08-11T10:22:15Z</time>
      </trkpt>
      <trkpt lat="44.50468" lon="1.08289">
        <ele>88.6</ele>
        <time>2022-08-11T10:22:17Z</time>
      </trkpt>
      <trkpt lat="44.50473" lon="1.08277">
        <ele>88.4</ele>
        <time>2022-08-11T10:22:19Z</time>
      </trkpt>
      <trkpt lat="44.50478" lon="1.08265">
        <ele>88.3</ele>
        <time>2022-08-11T10:22:21Z</time>
      </trkpt>
      <trkpt lat="44.50483" lon="1.08254">
        <ele>88.2</ele>
        <time>2022-08-11T10:22:23Z</time>
      </trkpt>
      <trkpt lat="44.50488" lon="1.08241">
        <ele>88.1</ele>
        <time>2022-08-11T10:22:25Z</time>
      </trkpt>
      <trkpt lat="44.50492" lon="1.08229">
        <ele>88</ele>
        <time>2022-08-11T10:22:27Z</time>
      </trkpt>
      <trkpt lat="44.50496" lon="1.08218">
        <ele>88</ele>
        <time>2022-08-11T10:22:29Z</time>
      </trkpt>
      <trkpt lat="44.50501" lon="1.08206">
        <ele>88</ele>
        <time>2022-08-11T10:22:31Z</time>
      </trkpt>
      <trkpt lat="44.50506" lon="1.08194">
        <ele>88</ele>
        <time>2022-08-11T10:22:33Z</time>
      </trkpt>
      <trkpt lat="44.5051" lon="1.08182">
        <ele>88</ele>
        <time>2022-08-11T10:22:35Z</time>
      </trkpt>
      <trkpt lat="44.50515" lon="1.0817">
        <ele>88</ele>
        <time>2022-08-11T10:22:37Z</time>
      </trkpt>
      <trkpt lat="44.5052" lon="1.08158">
        <ele>87.9</ele>
        <time>2022-08-11T10:22:39Z</time>
      </trkpt>
      <trkpt lat="44.50525" lon="1.08147">
        <ele>87.7</ele>
        <time>2022-08-11T10:22:41Z</time>
      </trkpt>
      <trkpt lat="44.50528" lon="1.08136">
        <ele>87.5</ele>
        <time>2022-08-11T10:22:43Z</time>
      </trkpt>
      <trkpt lat="44.50532" lon="1.08126">
        <ele>87.3</ele>
        <time>2022-08-11T10:22:45Z</time>
      </trkpt>
      <trkpt lat="44.50536" lon="1.08116">
        <ele>87.1</ele>
        <time>2022-08-11T10:22:47Z</time>
      </trkpt>
      <trkpt lat="44.5054" lon="1.08106">
        <ele>86.9</ele>
        <time>2022-08-11T10:22:49Z</time>
      </trkpt>
      <trkpt lat="44.50544" lon="1.08097">
        <ele>86.7</ele>
        <time>2022-08-11T10:22:51Z</time>
      </trkpt>
      <trkpt lat="44.50548" lon="1.08088">
        <ele>86.5</ele>
        <time>2022-08-11T10:22:53Z</time>
      </trkpt>
      <trkpt lat="44.50552" lon="1.08079">
        <ele>86.4</ele>
        <time>2022-08-11T10:22:55Z</time>
      </trkpt>
      <trkpt lat="44.50556" lon="1.08071">
        <ele>86.5</ele>
        <time>2022-08-11T10:22:57Z</time>
      </trkpt>
      <trkpt lat="44.5056" lon="1.08063">
        <ele>86.5</ele>
        <time>2022-08-11T10:22:59Z</time>
      </trkpt>
      <trkpt lat="44.50564" lon="1.08058">
        <ele>86.5</ele>
        <time>2022-08-11T10:23:01Z</time>
      </trkpt>
      <trkpt lat="44.50567" lon="1.08052">
        <ele>86.6</ele>
        <time>2022-08-11T10:23:03Z</time>
      </trkpt>
      <trkpt lat="44.50565" lon="1.08047">
        <ele>86.7</ele>
        <time>2022-08-11T10:23:05Z</time>
      </trkpt>
      <trkpt lat="44.50566" lon="1.08044">
        <ele>86.7</ele>
        <time>2022-08-11T10:23:07Z</time>
      </trkpt>
      <trkpt lat="44.50566" lon="1.08045">
        <ele>86.7</ele>
        <time>2022-08-11T10:23:09Z</time>
      </trkpt>
      <trkpt lat="44.50566" lon="1.08045">
        <ele>86.7</ele>
        <time>2022-08-11T10:23:11Z</time>
      </trkpt>
      <trkpt lat="44.50566" lon="1.08045">
        <ele>86.7</ele>
        <time>2022-08-11T10:23:15Z</time>
      </trkpt>
      <trkpt lat="44.50568" lon="1.0802">
        <ele>86.9</ele>
        <time>2022-08-11T10:23:37Z</time>
      </trkpt>
      <trkpt lat="44.50571" lon="1.08022">
        <ele>86.9</ele>
        <time>2022-08-11T10:23:39Z</time>
      </trkpt>
      <trkpt lat="44.50572" lon="1.0802">
        <ele>86.9</ele>
        <time>2022-08-11T10:23:41Z</time>
      </trkpt>
      <trkpt lat="44.50571" lon="1.08015">
        <ele>87</ele>
        <time>2022-08-11T10:23:43Z</time>
      </trkpt>
      <trkpt lat="44.50574" lon="1.08008">
        <ele>87</ele>
        <time>2022-08-11T10:23:45Z</time>
      </trkpt>
      <trkpt lat="44.50577" lon="1.08002">
        <ele>87.1</ele>
        <time>2022-08-11T10:23:47Z</time>
      </trkpt>
      <trkpt lat="44.50581" lon="1.07994">
        <ele>87.2</ele>
        <time>2022-08-11T10:23:49Z</time>
      </trkpt>
      <trkpt lat="44.50584" lon="1.07985">
        <ele>87.4</ele>
        <time>2022-08-11T10:23:51Z</time>
      </trkpt>
      <trkpt lat="44.50587" lon="1.07976">
        <ele>87.7</ele>
        <time>2022-08-11T10:23:53Z</time>
      </trkpt>
      <trkpt lat="44.50591" lon="1.07966">
        <ele>88</ele>
        <time>2022-08-11T10:23:55Z</time>
      </trkpt>
      <trkpt lat="44.50594" lon="1.07956">
        <ele>88.3</ele>
        <time>2022-08-11T10:23:57Z</time>
      </trkpt>
      <trkpt lat="44.50598" lon="1.07947">
        <ele>88.6</ele>
        <time>2022-08-11T10:23:59Z</time>
      </trkpt>
      <trkpt lat="44.50601" lon="1.07938">
        <ele>88.8</ele>
        <time>2022-08-11T10:24:01Z</time>
      </trkpt>
      <trkpt lat="44.50604" lon="1.07928">
        <ele>89.1</ele>
        <time>2022-08-11T10:24:03Z</time>
      </trkpt>
      <trkpt lat="44.50608" lon="1.07918">
        <ele>89.3</ele>
        <time>2022-08-11T10:24:05Z</time>
      </trkpt>
      <trkpt lat="44.50612" lon="1.07908">
        <ele>89.3</ele>
        <time>2022-08-11T10:24:07Z</time>
      </trkpt>
      <trkpt lat="44.50616" lon="1.07898">
        <ele>89.3</ele>
        <time>2022-08-11T10:24:09Z</time>
      </trkpt>
      <trkpt lat="44.5062" lon="1.07888">
        <ele>89.3</ele>
        <time>2022-08-11T10:24:11Z</time>
      </trkpt>
      <trkpt lat="44.50625" lon="1.07878">
        <ele>89.3</ele>
        <time>2022-08-11T10:24:13Z</time>
      </trkpt>
      <trkpt lat="44.50628" lon="1.07867">
        <ele>89.3</ele>
        <time>2022-08-11T10:24:15Z</time>
      </trkpt>
      <trkpt lat="44.50632" lon="1.07855">
        <ele>89.3</ele>
        <time>2022-08-11T10:24:17Z</time>
      </trkpt>
      <trkpt lat="44.50637" lon="1.07843">
        <ele>89.3</ele>
        <time>2022-08-11T10:24:19Z</time>
      </trkpt>
      <trkpt lat="44.50642" lon="1.07831">
        <ele>89.4</ele>
        <time>2022-08-11T10:24:21Z</time>
      </trkpt>
      <trkpt lat="44.50648" lon="1.07818">
        <ele>89.4</ele>
        <time>2022-08-11T10:24:23Z</time>
      </trkpt>
      <trkpt lat="44.50653" lon="1.07807">
        <ele>89.4</ele>
        <time>2022-08-11T10:24:25Z</time>
      </trkpt>
      <trkpt lat="44.50658" lon="1.07795">
        <ele>89.3</ele>
        <time>2022-08-11T10:24:27Z</time>
      </trkpt>
      <trkpt lat="44.50663" lon="1.07783">
        <ele>89.3</ele>
        <time>2022-08-11T10:24:29Z</time>
      </trkpt>
      <trkpt lat="44.50668" lon="1.0777">
        <ele>89.2</ele>
        <time>2022-08-11T10:24:31Z</time>
      </trkpt>
      <trkpt lat="44.50673" lon="1.07758">
        <ele>89</ele>
        <time>2022-08-11T10:24:33Z</time>
      </trkpt>
      <trkpt lat="44.50678" lon="1.07746">
        <ele>88.8</ele>
        <time>2022-08-11T10:24:35Z</time>
      </trkpt>
      <trkpt lat="44.50683" lon="1.07733">
        <ele>88.4</ele>
        <time>2022-08-11T10:24:37Z</time>
      </trkpt>
      <trkpt lat="44.50688" lon="1.07721">
        <ele>88.1</ele>
        <time>2022-08-11T10:24:39Z</time>
      </trkpt>
      <trkpt lat="44.50692" lon="1.07708">
        <ele>87.8</ele>
        <time>2022-08-11T10:24:41Z</time>
      </trkpt>
      <trkpt lat="44.50697" lon="1.07697">
        <ele>87.6</ele>
        <time>2022-08-11T10:24:43Z</time>
      </trkpt>
      <trkpt lat="44.50702" lon="1.07685">
        <ele>87.3</ele>
        <time>2022-08-11T10:24:45Z</time>
      </trkpt>
      <trkpt lat="44.50708" lon="1.07674">
        <ele>87.1</ele>
        <time>2022-08-11T10:24:47Z</time>
      </trkpt>
      <trkpt lat="44.50712" lon="1.07661">
        <ele>87</ele>
        <time>2022-08-11T10:24:49Z</time>
      </trkpt>
      <trkpt lat="44.50717" lon="1.07648">
        <ele>87</ele>
        <time>2022-08-11T10:24:51Z</time>
      </trkpt>
      <trkpt lat="44.50722" lon="1.07635">
        <ele>87.1</ele>
        <time>2022-08-11T10:24:53Z</time>
      </trkpt>
      <trkpt lat="44.50728" lon="1.07624">
        <ele>87.2</ele>
        <time>2022-08-11T10:24:55Z</time>
      </trkpt>
      <trkpt lat="44.50734" lon="1.07612">
        <ele>87.4</ele>
        <time>2022-08-11T10:24:57Z</time>
      </trkpt>
      <trkpt lat="44.50738" lon="1.07599">
        <ele>87.6</ele>
        <time>2022-08-11T10:24:59Z</time>
      </trkpt>
      <trkpt lat="44.50743" lon="1.07587">
        <ele>87.8</ele>
        <time>2022-08-11T10:25:01Z</time>
      </trkpt>
      <trkpt lat="44.5075" lon="1.07577">
        <ele>87.9</ele>
        <time>2022-08-11T10:25:03Z</time>
      </trkpt>
      <trkpt lat="44.50756" lon="1.07565">
        <ele>87.8</ele>
        <time>2022-08-11T10:25:05Z</time>
      </trkpt>
      <trkpt lat="44.50763" lon="1.07554">
        <ele>87.7</ele>
        <time>2022-08-11T10:25:07Z</time>
      </trkpt>
      <trkpt lat="44.50769" lon="1.07543">
        <ele>87.6</ele>
        <time>2022-08-11T10:25:09Z</time>
      </trkpt>
      <trkpt lat="44.50774" lon="1.07531">
        <ele>87.6</ele>
        <time>2022-08-11T10:25:11Z</time>
      </trkpt>
      <trkpt lat="44.50781" lon="1.0752">
        <ele>87.5</ele>
        <time>2022-08-11T10:25:13Z</time>
      </trkpt>
      <trkpt lat="44.50786" lon="1.07508">
        <ele>87.5</ele>
        <time>2022-08-11T10:25:15Z</time>
      </trkpt>
      <trkpt lat="44.50791" lon="1.07498">
        <ele>87.4</ele>
        <time>2022-08-11T10:25:17Z</time>
      </trkpt>
      <trkpt lat="44.50796" lon="1.07486">
        <ele>87.2</ele>
        <time>2022-08-11T10:25:19Z</time>
      </trkpt>
      <trkpt lat="44.50801" lon="1.07475">
        <ele>87.1</ele>
        <time>2022-08-11T10:25:21Z</time>
      </trkpt>
      <trkpt lat="44.50806" lon="1.07465">
        <ele>87</ele>
        <time>2022-08-11T10:25:23Z</time>
      </trkpt>
      <trkpt lat="44.50809" lon="1.07458">
        <ele>86.9</ele>
        <time>2022-08-11T10:25:25Z</time>
      </trkpt>
      <trkpt lat="44.50811" lon="1.07454">
        <ele>86.9</ele>
        <time>2022-08-11T10:25:27Z</time>
      </trkpt>
      <trkpt lat="44.50814" lon="1.07449">
        <ele>86.9</ele>
        <time>2022-08-11T10:25:29Z</time>
      </trkpt>
      <trkpt lat="44.50818" lon="1.0744">
        <ele>86.8</ele>
        <time>2022-08-11T10:25:31Z</time>
      </trkpt>
      <trkpt lat="44.50822" lon="1.0743">
        <ele>86.8</ele>
        <time>2022-08-11T10:25:33Z</time>
      </trkpt>
      <trkpt lat="44.50826" lon="1.0742">
        <ele>86.8</ele>
        <time>2022-08-11T10:25:35Z</time>
      </trkpt>
      <trkpt lat="44.50831" lon="1.07409">
        <ele>86.7</ele>
        <time>2022-08-11T10:25:37Z</time>
      </trkpt>
      <trkpt lat="44.50835" lon="1.07398">
        <ele>86.6</ele>
        <time>2022-08-11T10:25:39Z</time>
      </trkpt>
      <trkpt lat="44.5084" lon="1.07387">
        <ele>86.3</ele>
        <time>2022-08-11T10:25:41Z</time>
      </trkpt>
      <trkpt lat="44.50843" lon="1.07375">
        <ele>86</ele>
        <time>2022-08-11T10:25:43Z</time>
      </trkpt>
      <trkpt lat="44.50848" lon="1.07363">
        <ele>85.7</ele>
        <time>2022-08-11T10:25:45Z</time>
      </trkpt>
      <trkpt lat="44.50853" lon="1.07351">
        <ele>85.4</ele>
        <time>2022-08-11T10:25:47Z</time>
      </trkpt>
      <trkpt lat="44.50859" lon="1.07339">
        <ele>85.1</ele>
        <time>2022-08-11T10:25:49Z</time>
      </trkpt>
      <trkpt lat="44.50863" lon="1.07326">
        <ele>84.9</ele>
        <time>2022-08-11T10:25:51Z</time>
      </trkpt>
      <trkpt lat="44.50869" lon="1.07314">
        <ele>84.9</ele>
        <time>2022-08-11T10:25:53Z</time>
      </trkpt>
      <trkpt lat="44.50874" lon="1.07301">
        <ele>84.8</ele>
        <time>2022-08-11T10:25:55Z</time>
      </trkpt>
      <trkpt lat="44.50879" lon="1.07289">
        <ele>84.8</ele>
        <time>2022-08-11T10:25:57Z</time>
      </trkpt>
      <trkpt lat="44.50884" lon="1.07276">
        <ele>84.7</ele>
        <time>2022-08-11T10:25:59Z</time>
      </trkpt>
      <trkpt lat="44.50889" lon="1.07262">
        <ele>84.7</ele>
        <time>2022-08-11T10:26:01Z</time>
      </trkpt>
      <trkpt lat="44.50895" lon="1.07251">
        <ele>84.7</ele>
        <time>2022-08-11T10:26:03Z</time>
      </trkpt>
      <trkpt lat="44.509" lon="1.07238">
        <ele>84.9</ele>
        <time>2022-08-11T10:26:05Z</time>
      </trkpt>
      <trkpt lat="44.50905" lon="1.07226">
        <ele>85.1</ele>
        <time>2022-08-11T10:26:07Z</time>
      </trkpt>
      <trkpt lat="44.50911" lon="1.07213">
        <ele>85.3</ele>
        <time>2022-08-11T10:26:09Z</time>
      </trkpt>
      <trkpt lat="44.50915" lon="1.07199">
        <ele>85.6</ele>
        <time>2022-08-11T10:26:11Z</time>
      </trkpt>
      <trkpt lat="44.5092" lon="1.07187">
        <ele>85.7</ele>
        <time>2022-08-11T10:26:13Z</time>
      </trkpt>
      <trkpt lat="44.50926" lon="1.07173">
        <ele>85.8</ele>
        <time>2022-08-11T10:26:15Z</time>
      </trkpt>
      <trkpt lat="44.50931" lon="1.0716">
        <ele>85.7</ele>
        <time>2022-08-11T10:26:17Z</time>
      </trkpt>
      <trkpt lat="44.50937" lon="1.07148">
        <ele>85.4</ele>
        <time>2022-08-11T10:26:19Z</time>
      </trkpt>
      <trkpt lat="44.50942" lon="1.07135">
        <ele>85.2</ele>
        <time>2022-08-11T10:26:21Z</time>
      </trkpt>
      <trkpt lat="44.50948" lon="1.07122">
        <ele>85</ele>
        <time>2022-08-11T10:26:23Z</time>
      </trkpt>
      <trkpt lat="44.50953" lon="1.07109">
        <ele>84.8</ele>
        <time>2022-08-11T10:26:25Z</time>
      </trkpt>
      <trkpt lat="44.50958" lon="1.07096">
        <ele>84.7</ele>
        <time>2022-08-11T10:26:27Z</time>
      </trkpt>
      <trkpt lat="44.50963" lon="1.07083">
        <ele>84.6</ele>
        <time>2022-08-11T10:26:29Z</time>
      </trkpt>
      <trkpt lat="44.50968" lon="1.07071">
        <ele>84.5</ele>
        <time>2022-08-11T10:26:31Z</time>
      </trkpt>
      <trkpt lat="44.50974" lon="1.07058">
        <ele>84.4</ele>
        <time>2022-08-11T10:26:33Z</time>
      </trkpt>
      <trkpt lat="44.50979" lon="1.07045">
        <ele>84.3</ele>
        <time>2022-08-11T10:26:35Z</time>
      </trkpt>
      <trkpt lat="44.50984" lon="1.07032">
        <ele>84.2</ele>
        <time>2022-08-11T10:26:37Z</time>
      </trkpt>
      <trkpt lat="44.5099" lon="1.07019">
        <ele>84.1</ele>
        <time>2022-08-11T10:26:39Z</time>
      </trkpt>
      <trkpt lat="44.50995" lon="1.07005">
        <ele>84</ele>
        <time>2022-08-11T10:26:41Z</time>
      </trkpt>
      <trkpt lat="44.51001" lon="1.06993">
        <ele>83.9</ele>
        <time>2022-08-11T10:26:43Z</time>
      </trkpt>
      <trkpt lat="44.51006" lon="1.06979">
        <ele>83.7</ele>
        <time>2022-08-11T10:26:45Z</time>
      </trkpt>
      <trkpt lat="44.51012" lon="1.06966">
        <ele>83.5</ele>
        <time>2022-08-11T10:26:47Z</time>
      </trkpt>
      <trkpt lat="44.51017" lon="1.06954">
        <ele>83.4</ele>
        <time>2022-08-11T10:26:49Z</time>
      </trkpt>
      <trkpt lat="44.51023" lon="1.06941">
        <ele>83.2</ele>
        <time>2022-08-11T10:26:51Z</time>
      </trkpt>
      <trkpt lat="44.51028" lon="1.06928">
        <ele>83.1</ele>
        <time>2022-08-11T10:26:53Z</time>
      </trkpt>
      <trkpt lat="44.51034" lon="1.06914">
        <ele>83</ele>
        <time>2022-08-11T10:26:55Z</time>
      </trkpt>
      <trkpt lat="44.51039" lon="1.06902">
        <ele>82.7</ele>
        <time>2022-08-11T10:26:57Z</time>
      </trkpt>
      <trkpt lat="44.51045" lon="1.06889">
        <ele>82.5</ele>
        <time>2022-08-11T10:26:59Z</time>
      </trkpt>
      <trkpt lat="44.5105" lon="1.06875">
        <ele>82.3</ele>
        <time>2022-08-11T10:27:01Z</time>
      </trkpt>
      <trkpt lat="44.51054" lon="1.06863">
        <ele>82.1</ele>
        <time>2022-08-11T10:27:03Z</time>
      </trkpt>
      <trkpt lat="44.51059" lon="1.06851">
        <ele>82</ele>
        <time>2022-08-11T10:27:05Z</time>
      </trkpt>
      <trkpt lat="44.51063" lon="1.0684">
        <ele>81.9</ele>
        <time>2022-08-11T10:27:07Z</time>
      </trkpt>
      <trkpt lat="44.51068" lon="1.06828">
        <ele>81.8</ele>
        <time>2022-08-11T10:27:09Z</time>
      </trkpt>
      <trkpt lat="44.51074" lon="1.06815">
        <ele>81.9</ele>
        <time>2022-08-11T10:27:11Z</time>
      </trkpt>
      <trkpt lat="44.51079" lon="1.06803">
        <ele>81.9</ele>
        <time>2022-08-11T10:27:13Z</time>
      </trkpt>
      <trkpt lat="44.51083" lon="1.0679">
        <ele>82</ele>
        <time>2022-08-11T10:27:15Z</time>
      </trkpt>
      <trkpt lat="44.51089" lon="1.06778">
        <ele>82.1</ele>
        <time>2022-08-11T10:27:17Z</time>
      </trkpt>
      <trkpt lat="44.51093" lon="1.06765">
        <ele>82.1</ele>
        <time>2022-08-11T10:27:19Z</time>
      </trkpt>
      <trkpt lat="44.511" lon="1.06752">
        <ele>82.2</ele>
        <time>2022-08-11T10:27:21Z</time>
      </trkpt>
      <trkpt lat="44.51105" lon="1.06739">
        <ele>82.1</ele>
        <time>2022-08-11T10:27:23Z</time>
      </trkpt>
      <trkpt lat="44.51111" lon="1.06728">
        <ele>82.1</ele>
        <time>2022-08-11T10:27:25Z</time>
      </trkpt>
      <trkpt lat="44.51116" lon="1.06715">
        <ele>82</ele>
        <time>2022-08-11T10:27:27Z</time>
      </trkpt>
      <trkpt lat="44.51121" lon="1.06703">
        <ele>81.9</ele>
        <time>2022-08-11T10:27:29Z</time>
      </trkpt>
      <trkpt lat="44.51127" lon="1.0669">
        <ele>81.8</ele>
        <time>2022-08-11T10:27:31Z</time>
      </trkpt>
      <trkpt lat="44.51132" lon="1.06678">
        <ele>81.7</ele>
        <time>2022-08-11T10:27:33Z</time>
      </trkpt>
      <trkpt lat="44.51137" lon="1.06665">
        <ele>81.6</ele>
        <time>2022-08-11T10:27:35Z</time>
      </trkpt>
      <trkpt lat="44.51143" lon="1.06652">
        <ele>81.5</ele>
        <time>2022-08-11T10:27:37Z</time>
      </trkpt>
      <trkpt lat="44.51148" lon="1.06638">
        <ele>81.4</ele>
        <time>2022-08-11T10:27:39Z</time>
      </trkpt>
      <trkpt lat="44.51153" lon="1.06626">
        <ele>81.3</ele>
        <time>2022-08-11T10:27:41Z</time>
      </trkpt>
      <trkpt lat="44.51158" lon="1.06612">
        <ele>81.2</ele>
        <time>2022-08-11T10:27:43Z</time>
      </trkpt>
      <trkpt lat="44.51163" lon="1.06599">
        <ele>81.1</ele>
        <time>2022-08-11T10:27:45Z</time>
      </trkpt>
      <trkpt lat="44.51168" lon="1.06588">
        <ele>81.1</ele>
        <time>2022-08-11T10:27:47Z</time>
      </trkpt>
      <trkpt lat="44.51173" lon="1.06575">
        <ele>81.1</ele>
        <time>2022-08-11T10:27:49Z</time>
      </trkpt>
      <trkpt lat="44.51178" lon="1.06563">
        <ele>81</ele>
        <time>2022-08-11T10:27:51Z</time>
      </trkpt>
      <trkpt lat="44.51182" lon="1.0655">
        <ele>81</ele>
        <time>2022-08-11T10:27:53Z</time>
      </trkpt>
      <trkpt lat="44.51187" lon="1.06537">
        <ele>81</ele>
        <time>2022-08-11T10:27:55Z</time>
      </trkpt>
      <trkpt lat="44.51192" lon="1.06524">
        <ele>81.1</ele>
        <time>2022-08-11T10:27:57Z</time>
      </trkpt>
      <trkpt lat="44.51196" lon="1.06512">
        <ele>81.2</ele>
        <time>2022-08-11T10:27:59Z</time>
      </trkpt>
      <trkpt lat="44.512" lon="1.06499">
        <ele>81.4</ele>
        <time>2022-08-11T10:28:01Z</time>
      </trkpt>
      <trkpt lat="44.51204" lon="1.06487">
        <ele>81.9</ele>
        <time>2022-08-11T10:28:03Z</time>
      </trkpt>
      <trkpt lat="44.51208" lon="1.06472">
        <ele>82.3</ele>
        <time>2022-08-11T10:28:05Z</time>
      </trkpt>
      <trkpt lat="44.51212" lon="1.06459">
        <ele>82.7</ele>
        <time>2022-08-11T10:28:07Z</time>
      </trkpt>
      <trkpt lat="44.51215" lon="1.06446">
        <ele>83.1</ele>
        <time>2022-08-11T10:28:09Z</time>
      </trkpt>
      <trkpt lat="44.51219" lon="1.06432">
        <ele>83.4</ele>
        <time>2022-08-11T10:28:11Z</time>
      </trkpt>
      <trkpt lat="44.51221" lon="1.06419">
        <ele>83.6</ele>
        <time>2022-08-11T10:28:13Z</time>
      </trkpt>
      <trkpt lat="44.51224" lon="1.06404">
        <ele>83.5</ele>
        <time>2022-08-11T10:28:15Z</time>
      </trkpt>
      <trkpt lat="44.51227" lon="1.06391">
        <ele>83.5</ele>
        <time>2022-08-11T10:28:17Z</time>
      </trkpt>
      <trkpt lat="44.5123" lon="1.0638">
        <ele>83.5</ele>
        <time>2022-08-11T10:28:19Z</time>
      </trkpt>
      <trkpt lat="44.51231" lon="1.06366">
        <ele>83.3</ele>
        <time>2022-08-11T10:28:21Z</time>
      </trkpt>
      <trkpt lat="44.51232" lon="1.06353">
        <ele>83.2</ele>
        <time>2022-08-11T10:28:23Z</time>
      </trkpt>
      <trkpt lat="44.51233" lon="1.06341">
        <ele>83.1</ele>
        <time>2022-08-11T10:28:25Z</time>
      </trkpt>
      <trkpt lat="44.51235" lon="1.06329">
        <ele>83.1</ele>
        <time>2022-08-11T10:28:27Z</time>
      </trkpt>
      <trkpt lat="44.51236" lon="1.06317">
        <ele>83.1</ele>
        <time>2022-08-11T10:28:29Z</time>
      </trkpt>
      <trkpt lat="44.51237" lon="1.06308">
        <ele>83.2</ele>
        <time>2022-08-11T10:28:31Z</time>
      </trkpt>
      <trkpt lat="44.51237" lon="1.06301">
        <ele>83.1</ele>
        <time>2022-08-11T10:28:33Z</time>
      </trkpt>
      <trkpt lat="44.51236" lon="1.06296">
        <ele>83.1</ele>
        <time>2022-08-11T10:28:35Z</time>
      </trkpt>
      <trkpt lat="44.51237" lon="1.0629">
        <ele>83.2</ele>
        <time>2022-08-11T10:28:37Z</time>
      </trkpt>
      <trkpt lat="44.51239" lon="1.06282">
        <ele>83.3</ele>
        <time>2022-08-11T10:28:39Z</time>
      </trkpt>
      <trkpt lat="44.51238" lon="1.06271">
        <ele>83.2</ele>
        <time>2022-08-11T10:28:41Z</time>
      </trkpt>
      <trkpt lat="44.51238" lon="1.06259">
        <ele>83.1</ele>
        <time>2022-08-11T10:28:43Z</time>
      </trkpt>
      <trkpt lat="44.51238" lon="1.06245">
        <ele>83.1</ele>
        <time>2022-08-11T10:28:45Z</time>
      </trkpt>
      <trkpt lat="44.51238" lon="1.06233">
        <ele>82.9</ele>
        <time>2022-08-11T10:28:47Z</time>
      </trkpt>
      <trkpt lat="44.51238" lon="1.0622">
        <ele>82.8</ele>
        <time>2022-08-11T10:28:49Z</time>
      </trkpt>
      <trkpt lat="44.51239" lon="1.06206">
        <ele>82.7</ele>
        <time>2022-08-11T10:28:51Z</time>
      </trkpt>
      <trkpt lat="44.5124" lon="1.06192">
        <ele>82.6</ele>
        <time>2022-08-11T10:28:53Z</time>
      </trkpt>
      <trkpt lat="44.51239" lon="1.06179">
        <ele>82.5</ele>
        <time>2022-08-11T10:28:55Z</time>
      </trkpt>
      <trkpt lat="44.5124" lon="1.06165">
        <ele>82.4</ele>
        <time>2022-08-11T10:28:57Z</time>
      </trkpt>
      <trkpt lat="44.5124" lon="1.06151">
        <ele>82.4</ele>
        <time>2022-08-11T10:28:59Z</time>
      </trkpt>
      <trkpt lat="44.51239" lon="1.06137">
        <ele>82.3</ele>
        <time>2022-08-11T10:29:01Z</time>
      </trkpt>
      <trkpt lat="44.51238" lon="1.06123">
        <ele>82.3</ele>
        <time>2022-08-11T10:29:03Z</time>
      </trkpt>
      <trkpt lat="44.51238" lon="1.06108">
        <ele>82.3</ele>
        <time>2022-08-11T10:29:05Z</time>
      </trkpt>
      <trkpt lat="44.51238" lon="1.06093">
        <ele>82.3</ele>
        <time>2022-08-11T10:29:07Z</time>
      </trkpt>
      <trkpt lat="44.51237" lon="1.0608">
        <ele>82.4</ele>
        <time>2022-08-11T10:29:09Z</time>
      </trkpt>
      <trkpt lat="44.51238" lon="1.06065">
        <ele>83</ele>
        <time>2022-08-11T10:29:11Z</time>
      </trkpt>
      <trkpt lat="44.51237" lon="1.06051">
        <ele>83.5</ele>
        <time>2022-08-11T10:29:13Z</time>
      </trkpt>
      <trkpt lat="44.51237" lon="1.06037">
        <ele>84</ele>
        <time>2022-08-11T10:29:15Z</time>
      </trkpt>
      <trkpt lat="44.51237" lon="1.06024">
        <ele>84.5</ele>
        <time>2022-08-11T10:29:17Z</time>
      </trkpt>
      <trkpt lat="44.51237" lon="1.0601">
        <ele>85.1</ele>
        <time>2022-08-11T10:29:19Z</time>
      </trkpt>
      <trkpt lat="44.51237" lon="1.05996">
        <ele>85.7</ele>
        <time>2022-08-11T10:29:21Z</time>
      </trkpt>
      <trkpt lat="44.51237" lon="1.05981">
        <ele>86.6</ele>
        <time>2022-08-11T10:29:23Z</time>
      </trkpt>
      <trkpt lat="44.51238" lon="1.05968">
        <ele>87.5</ele>
        <time>2022-08-11T10:29:25Z</time>
      </trkpt>
      <trkpt lat="44.51235" lon="1.05956">
        <ele>87.9</ele>
        <time>2022-08-11T10:29:27Z</time>
      </trkpt>
      <trkpt lat="44.51237" lon="1.05943">
        <ele>88.9</ele>
        <time>2022-08-11T10:29:29Z</time>
      </trkpt>
      <trkpt lat="44.51236" lon="1.05932">
        <ele>89.5</ele>
        <time>2022-08-11T10:29:31Z</time>
      </trkpt>
      <trkpt lat="44.51236" lon="1.05919">
        <ele>90.3</ele>
        <time>2022-08-11T10:29:33Z</time>
      </trkpt>
      <trkpt lat="44.51236" lon="1.05907">
        <ele>91.7</ele>
        <time>2022-08-11T10:29:35Z</time>
      </trkpt>
      <trkpt lat="44.51236" lon="1.05895">
        <ele>93.3</ele>
        <time>2022-08-11T10:29:37Z</time>
      </trkpt>
      <trkpt lat="44.51236" lon="1.05883">
        <ele>94.9</ele>
        <time>2022-08-11T10:29:39Z</time>
      </trkpt>
      <trkpt lat="44.51234" lon="1.05871">
        <ele>96</ele>
        <time>2022-08-11T10:29:41Z</time>
      </trkpt>
      <trkpt lat="44.51234" lon="1.05858">
        <ele>97.7</ele>
        <time>2022-08-11T10:29:43Z</time>
      </trkpt>
      <trkpt lat="44.51233" lon="1.05845">
        <ele>99.2</ele>
        <time>2022-08-11T10:29:45Z</time>
      </trkpt>
      <trkpt lat="44.51233" lon="1.05832">
        <ele>100.7</ele>
        <time>2022-08-11T10:29:47Z</time>
      </trkpt>
      <trkpt lat="44.51232" lon="1.05817">
        <ele>103.4</ele>
        <time>2022-08-11T10:29:49Z</time>
      </trkpt>
      <trkpt lat="44.5123" lon="1.05804">
        <ele>105.6</ele>
        <time>2022-08-11T10:29:51Z</time>
      </trkpt>
      <trkpt lat="44.51229" lon="1.05791">
        <ele>107.5</ele>
        <time>2022-08-11T10:29:53Z</time>
      </trkpt>
      <trkpt lat="44.51226" lon="1.05778">
        <ele>109.1</ele>
        <time>2022-08-11T10:29:55Z</time>
      </trkpt>
      <trkpt lat="44.51223" lon="1.05765">
        <ele>109.9</ele>
        <time>2022-08-11T10:29:57Z</time>
      </trkpt>
      <trkpt lat="44.51219" lon="1.05752">
        <ele>110.3</ele>
        <time>2022-08-11T10:29:59Z</time>
      </trkpt>
      <trkpt lat="44.51215" lon="1.05739">
        <ele>110.9</ele>
        <time>2022-08-11T10:30:01Z</time>
      </trkpt>
      <trkpt lat="44.5121" lon="1.05726">
        <ele>110.9</ele>
        <time>2022-08-11T10:30:03Z</time>
      </trkpt>
      <trkpt lat="44.51205" lon="1.05713">
        <ele>110.8</ele>
        <time>2022-08-11T10:30:05Z</time>
      </trkpt>
      <trkpt lat="44.512" lon="1.057">
        <ele>110.3</ele>
        <time>2022-08-11T10:30:07Z</time>
      </trkpt>
      <trkpt lat="44.51194" lon="1.05686">
        <ele>109.1</ele>
        <time>2022-08-11T10:30:09Z</time>
      </trkpt>
      <trkpt lat="44.51189" lon="1.05673">
        <ele>108.6</ele>
        <time>2022-08-11T10:30:11Z</time>
      </trkpt>
      <trkpt lat="44.51185" lon="1.0566">
        <ele>108.6</ele>
        <time>2022-08-11T10:30:13Z</time>
      </trkpt>
      <trkpt lat="44.51178" lon="1.05647">
        <ele>107.3</ele>
        <time>2022-08-11T10:30:15Z</time>
      </trkpt>
      <trkpt lat="44.51171" lon="1.05637">
        <ele>105.7</ele>
        <time>2022-08-11T10:30:17Z</time>
      </trkpt>
      <trkpt lat="44.51165" lon="1.05626">
        <ele>104.9</ele>
        <time>2022-08-11T10:30:19Z</time>
      </trkpt>
      <trkpt lat="44.5116" lon="1.05616">
        <ele>105.7</ele>
        <time>2022-08-11T10:30:21Z</time>
      </trkpt>
      <trkpt lat="44.51153" lon="1.05605">
        <ele>105.8</ele>
        <time>2022-08-11T10:30:23Z</time>
      </trkpt>
      <trkpt lat="44.51147" lon="1.05595">
        <ele>105.3</ele>
        <time>2022-08-11T10:30:25Z</time>
      </trkpt>
      <trkpt lat="44.5114" lon="1.05584">
        <ele>104.6</ele>
        <time>2022-08-11T10:30:27Z</time>
      </trkpt>
      <trkpt lat="44.51133" lon="1.05573">
        <ele>104.2</ele>
        <time>2022-08-11T10:30:29Z</time>
      </trkpt>
      <trkpt lat="44.51126" lon="1.05561">
        <ele>103.5</ele>
        <time>2022-08-11T10:30:31Z</time>
      </trkpt>
      <trkpt lat="44.51119" lon="1.0555">
        <ele>102.7</ele>
        <time>2022-08-11T10:30:33Z</time>
      </trkpt>
      <trkpt lat="44.51112" lon="1.05538">
        <ele>101.3</ele>
        <time>2022-08-11T10:30:35Z</time>
      </trkpt>
      <trkpt lat="44.51105" lon="1.05527">
        <ele>99.1</ele>
        <time>2022-08-11T10:30:37Z</time>
      </trkpt>
      <trkpt lat="44.51098" lon="1.05515">
        <ele>97</ele>
        <time>2022-08-11T10:30:39Z</time>
      </trkpt>
      <trkpt lat="44.51092" lon="1.05504">
        <ele>94.9</ele>
        <time>2022-08-11T10:30:41Z</time>
      </trkpt>
      <trkpt lat="44.51085" lon="1.05493">
        <ele>93.1</ele>
        <time>2022-08-11T10:30:43Z</time>
      </trkpt>
      <trkpt lat="44.51078" lon="1.05482">
        <ele>93.8</ele>
        <time>2022-08-11T10:30:45Z</time>
      </trkpt>
      <trkpt lat="44.51071" lon="1.0547">
        <ele>95.4</ele>
        <time>2022-08-11T10:30:47Z</time>
      </trkpt>
      <trkpt lat="44.51064" lon="1.0546">
        <ele>96.4</ele>
        <time>2022-08-11T10:30:49Z</time>
      </trkpt>
      <trkpt lat="44.51057" lon="1.05448">
        <ele>97.1</ele>
        <time>2022-08-11T10:30:51Z</time>
      </trkpt>
      <trkpt lat="44.51051" lon="1.05437">
        <ele>97.3</ele>
        <time>2022-08-11T10:30:53Z</time>
      </trkpt>
      <trkpt lat="44.51045" lon="1.05425">
        <ele>97.6</ele>
        <time>2022-08-11T10:30:55Z</time>
      </trkpt>
      <trkpt lat="44.51037" lon="1.05414">
        <ele>97.2</ele>
        <time>2022-08-11T10:30:57Z</time>
      </trkpt>
      <trkpt lat="44.51034" lon="1.05399">
        <ele>99.5</ele>
        <time>2022-08-11T10:30:59Z</time>
      </trkpt>
      <trkpt lat="44.51027" lon="1.05389">
        <ele>99.1</ele>
        <time>2022-08-11T10:31:01Z</time>
      </trkpt>
      <trkpt lat="44.51018" lon="1.05378">
        <ele>97.8</ele>
        <time>2022-08-11T10:31:03Z</time>
      </trkpt>
      <trkpt lat="44.51012" lon="1.05367">
        <ele>97.3</ele>
        <time>2022-08-11T10:31:05Z</time>
      </trkpt>
      <trkpt lat="44.51004" lon="1.05358">
        <ele>95.4</ele>
        <time>2022-08-11T10:31:07Z</time>
      </trkpt>
      <trkpt lat="44.50996" lon="1.05346">
        <ele>95</ele>
        <time>2022-08-11T10:31:09Z</time>
      </trkpt>
      <trkpt lat="44.5099" lon="1.05336">
        <ele>95.3</ele>
        <time>2022-08-11T10:31:11Z</time>
      </trkpt>
      <trkpt lat="44.50982" lon="1.05325">
        <ele>96.3</ele>
        <time>2022-08-11T10:31:13Z</time>
      </trkpt>
      <trkpt lat="44.50975" lon="1.05315">
        <ele>97.5</ele>
        <time>2022-08-11T10:31:15Z</time>
      </trkpt>
      <trkpt lat="44.50968" lon="1.05305">
        <ele>98.2</ele>
        <time>2022-08-11T10:31:17Z</time>
      </trkpt>
      <trkpt lat="44.50962" lon="1.05293">
        <ele>99.4</ele>
        <time>2022-08-11T10:31:19Z</time>
      </trkpt>
      <trkpt lat="44.50952" lon="1.05285">
        <ele>98.4</ele>
        <time>2022-08-11T10:31:21Z</time>
      </trkpt>
      <trkpt lat="44.50945" lon="1.05276">
        <ele>98.3</ele>
        <time>2022-08-11T10:31:23Z</time>
      </trkpt>
      <trkpt lat="44.50937" lon="1.05267">
        <ele>97.5</ele>
        <time>2022-08-11T10:31:25Z</time>
      </trkpt>
      <trkpt lat="44.50929" lon="1.05258">
        <ele>96.1</ele>
        <time>2022-08-11T10:31:27Z</time>
      </trkpt>
      <trkpt lat="44.50921" lon="1.05249">
        <ele>94.8</ele>
        <time>2022-08-11T10:31:29Z</time>
      </trkpt>
      <trkpt lat="44.50913" lon="1.05239">
        <ele>96.2</ele>
        <time>2022-08-11T10:31:31Z</time>
      </trkpt>
      <trkpt lat="44.50904" lon="1.05233">
        <ele>96.6</ele>
        <time>2022-08-11T10:31:33Z</time>
      </trkpt>
      <trkpt lat="44.50894" lon="1.05226">
        <ele>96.8</ele>
        <time>2022-08-11T10:31:35Z</time>
      </trkpt>
      <trkpt lat="44.50885" lon="1.05218">
        <ele>97</ele>
        <time>2022-08-11T10:31:37Z</time>
      </trkpt>
      <trkpt lat="44.50875" lon="1.05208">
        <ele>97.6</ele>
        <time>2022-08-11T10:31:39Z</time>
      </trkpt>
      <trkpt lat="44.50866" lon="1.05202">
        <ele>96.9</ele>
        <time>2022-08-11T10:31:41Z</time>
      </trkpt>
      <trkpt lat="44.50857" lon="1.05196">
        <ele>95.7</ele>
        <time>2022-08-11T10:31:43Z</time>
      </trkpt>
      <trkpt lat="44.50847" lon="1.05188">
        <ele>95.1</ele>
        <time>2022-08-11T10:31:45Z</time>
      </trkpt>
      <trkpt lat="44.50837" lon="1.05182">
        <ele>93.4</ele>
        <time>2022-08-11T10:31:47Z</time>
      </trkpt>
      <trkpt lat="44.50829" lon="1.05173">
        <ele>93.2</ele>
        <time>2022-08-11T10:31:49Z</time>
      </trkpt>
      <trkpt lat="44.50818" lon="1.05167">
        <ele>93</ele>
        <time>2022-08-11T10:31:51Z</time>
      </trkpt>
      <trkpt lat="44.50809" lon="1.05159">
        <ele>94.5</ele>
        <time>2022-08-11T10:31:53Z</time>
      </trkpt>
      <trkpt lat="44.50799" lon="1.05151">
        <ele>95.9</ele>
        <time>2022-08-11T10:31:55Z</time>
      </trkpt>
      <trkpt lat="44.50791" lon="1.05141">
        <ele>97.7</ele>
        <time>2022-08-11T10:31:57Z</time>
      </trkpt>
      <trkpt lat="44.50781" lon="1.05136">
        <ele>97.2</ele>
        <time>2022-08-11T10:31:59Z</time>
      </trkpt>
      <trkpt lat="44.50773" lon="1.05128">
        <ele>97.9</ele>
        <time>2022-08-11T10:32:01Z</time>
      </trkpt>
      <trkpt lat="44.50764" lon="1.0512">
        <ele>98</ele>
        <time>2022-08-11T10:32:03Z</time>
      </trkpt>
      <trkpt lat="44.50754" lon="1.05114">
        <ele>97</ele>
        <time>2022-08-11T10:32:05Z</time>
      </trkpt>
      <trkpt lat="44.50745" lon="1.05106">
        <ele>96.9</ele>
        <time>2022-08-11T10:32:07Z</time>
      </trkpt>
      <trkpt lat="44.50735" lon="1.05099">
        <ele>97</ele>
        <time>2022-08-11T10:32:09Z</time>
      </trkpt>
      <trkpt lat="44.50725" lon="1.05093">
        <ele>96.3</ele>
        <time>2022-08-11T10:32:11Z</time>
      </trkpt>
      <trkpt lat="44.50718" lon="1.05086">
        <ele>96.4</ele>
        <time>2022-08-11T10:32:13Z</time>
      </trkpt>
      <trkpt lat="44.50707" lon="1.05079">
        <ele>96.5</ele>
        <time>2022-08-11T10:32:15Z</time>
      </trkpt>
      <trkpt lat="44.50697" lon="1.05073">
        <ele>96.6</ele>
        <time>2022-08-11T10:32:17Z</time>
      </trkpt>
      <trkpt lat="44.50686" lon="1.05068">
        <ele>96.2</ele>
        <time>2022-08-11T10:32:19Z</time>
      </trkpt>
      <trkpt lat="44.50676" lon="1.05062">
        <ele>96.4</ele>
        <time>2022-08-11T10:32:21Z</time>
      </trkpt>
      <trkpt lat="44.50665" lon="1.05056">
        <ele>96.2</ele>
        <time>2022-08-11T10:32:23Z</time>
      </trkpt>
      <trkpt lat="44.50654" lon="1.05054">
        <ele>95.7</ele>
        <time>2022-08-11T10:32:25Z</time>
      </trkpt>
      <trkpt lat="44.50644" lon="1.05049">
        <ele>95.8</ele>
        <time>2022-08-11T10:32:27Z</time>
      </trkpt>
      <trkpt lat="44.50633" lon="1.05044">
        <ele>95.9</ele>
        <time>2022-08-11T10:32:29Z</time>
      </trkpt>
      <trkpt lat="44.50621" lon="1.05043">
        <ele>94.7</ele>
        <time>2022-08-11T10:32:31Z</time>
      </trkpt>
      <trkpt lat="44.50611" lon="1.05039">
        <ele>94.2</ele>
        <time>2022-08-11T10:32:33Z</time>
      </trkpt>
      <trkpt lat="44.506" lon="1.05035">
        <ele>93.7</ele>
        <time>2022-08-11T10:32:35Z</time>
      </trkpt>
      <trkpt lat="44.50589" lon="1.05032">
        <ele>92.9</ele>
        <time>2022-08-11T10:32:37Z</time>
      </trkpt>
      <trkpt lat="44.50578" lon="1.05026">
        <ele>93</ele>
        <time>2022-08-11T10:32:39Z</time>
      </trkpt>
      <trkpt lat="44.50567" lon="1.05022">
        <ele>92.8</ele>
        <time>2022-08-11T10:32:41Z</time>
      </trkpt>
      <trkpt lat="44.50556" lon="1.05019">
        <ele>92.5</ele>
        <time>2022-08-11T10:32:43Z</time>
      </trkpt>
      <trkpt lat="44.50545" lon="1.05015">
        <ele>92.3</ele>
        <time>2022-08-11T10:32:45Z</time>
      </trkpt>
      <trkpt lat="44.50534" lon="1.05011">
        <ele>91.9</ele>
        <time>2022-08-11T10:32:47Z</time>
      </trkpt>
      <trkpt lat="44.50523" lon="1.05007">
        <ele>91.4</ele>
        <time>2022-08-11T10:32:49Z</time>
      </trkpt>
      <trkpt lat="44.50513" lon="1.05002">
        <ele>91.2</ele>
        <time>2022-08-11T10:32:51Z</time>
      </trkpt>
      <trkpt lat="44.50501" lon="1.04999">
        <ele>90.7</ele>
        <time>2022-08-11T10:32:53Z</time>
      </trkpt>
      <trkpt lat="44.50491" lon="1.04994">
        <ele>92</ele>
        <time>2022-08-11T10:32:55Z</time>
      </trkpt>
      <trkpt lat="44.50479" lon="1.04991">
        <ele>92.5</ele>
        <time>2022-08-11T10:32:57Z</time>
      </trkpt>
      <trkpt lat="44.50468" lon="1.04987">
        <ele>93.2</ele>
        <time>2022-08-11T10:32:59Z</time>
      </trkpt>
      <trkpt lat="44.50458" lon="1.04983">
        <ele>94</ele>
        <time>2022-08-11T10:33:01Z</time>
      </trkpt>
      <trkpt lat="44.50447" lon="1.04981">
        <ele>94</ele>
        <time>2022-08-11T10:33:03Z</time>
      </trkpt>
      <trkpt lat="44.50437" lon="1.04976">
        <ele>94.8</ele>
        <time>2022-08-11T10:33:05Z</time>
      </trkpt>
      <trkpt lat="44.50426" lon="1.04973">
        <ele>94.7</ele>
        <time>2022-08-11T10:33:07Z</time>
      </trkpt>
      <trkpt lat="44.50415" lon="1.04971">
        <ele>94.4</ele>
        <time>2022-08-11T10:33:09Z</time>
      </trkpt>
      <trkpt lat="44.50405" lon="1.04967">
        <ele>94.4</ele>
        <time>2022-08-11T10:33:11Z</time>
      </trkpt>
      <trkpt lat="44.50396" lon="1.04961">
        <ele>95.4</ele>
        <time>2022-08-11T10:33:13Z</time>
      </trkpt>
      <trkpt lat="44.50384" lon="1.0496">
        <ele>94.7</ele>
        <time>2022-08-11T10:33:15Z</time>
      </trkpt>
      <trkpt lat="44.50374" lon="1.04956">
        <ele>94.5</ele>
        <time>2022-08-11T10:33:17Z</time>
      </trkpt>
      <trkpt lat="44.50362" lon="1.04953">
        <ele>94.1</ele>
        <time>2022-08-11T10:33:19Z</time>
      </trkpt>
      <trkpt lat="44.50353" lon="1.04949">
        <ele>94.2</ele>
        <time>2022-08-11T10:33:21Z</time>
      </trkpt>
      <trkpt lat="44.50341" lon="1.04947">
        <ele>93.4</ele>
        <time>2022-08-11T10:33:23Z</time>
      </trkpt>
      <trkpt lat="44.50331" lon="1.04941">
        <ele>93.6</ele>
        <time>2022-08-11T10:33:25Z</time>
      </trkpt>
      <trkpt lat="44.5032" lon="1.04938">
        <ele>93.3</ele>
        <time>2022-08-11T10:33:27Z</time>
      </trkpt>
      <trkpt lat="44.5031" lon="1.04935">
        <ele>93.2</ele>
        <time>2022-08-11T10:33:29Z</time>
      </trkpt>
      <trkpt lat="44.50299" lon="1.04933">
        <ele>92.6</ele>
        <time>2022-08-11T10:33:31Z</time>
      </trkpt>
      <trkpt lat="44.50288" lon="1.04929">
        <ele>92.3</ele>
        <time>2022-08-11T10:33:33Z</time>
      </trkpt>
      <trkpt lat="44.50278" lon="1.04925">
        <ele>92.2</ele>
        <time>2022-08-11T10:33:35Z</time>
      </trkpt>
      <trkpt lat="44.50267" lon="1.04922">
        <ele>91.7</ele>
        <time>2022-08-11T10:33:37Z</time>
      </trkpt>
      <trkpt lat="44.50258" lon="1.04917">
        <ele>91.7</ele>
        <time>2022-08-11T10:33:39Z</time>
      </trkpt>
      <trkpt lat="44.50246" lon="1.04917">
        <ele>90.8</ele>
        <time>2022-08-11T10:33:41Z</time>
      </trkpt>
      <trkpt lat="44.50235" lon="1.04914">
        <ele>91.8</ele>
        <time>2022-08-11T10:33:43Z</time>
      </trkpt>
      <trkpt lat="44.50226" lon="1.0491">
        <ele>93.7</ele>
        <time>2022-08-11T10:33:45Z</time>
      </trkpt>
      <trkpt lat="44.50216" lon="1.04906">
        <ele>95</ele>
        <time>2022-08-11T10:33:47Z</time>
      </trkpt>
      <trkpt lat="44.50204" lon="1.04905">
        <ele>94.9</ele>
        <time>2022-08-11T10:33:49Z</time>
      </trkpt>
      <trkpt lat="44.50195" lon="1.04901">
        <ele>96.2</ele>
        <time>2022-08-11T10:33:51Z</time>
      </trkpt>
      <trkpt lat="44.50185" lon="1.04896">
        <ele>97.7</ele>
        <time>2022-08-11T10:33:53Z</time>
      </trkpt>
      <trkpt lat="44.50174" lon="1.04894">
        <ele>97.9</ele>
        <time>2022-08-11T10:33:55Z</time>
      </trkpt>
      <trkpt lat="44.50163" lon="1.04894">
        <ele>97.2</ele>
        <time>2022-08-11T10:33:57Z</time>
      </trkpt>
      <trkpt lat="44.50152" lon="1.04891">
        <ele>97.6</ele>
        <time>2022-08-11T10:33:59Z</time>
      </trkpt>
      <trkpt lat="44.50142" lon="1.04889">
        <ele>97.4</ele>
        <time>2022-08-11T10:34:01Z</time>
      </trkpt>
      <trkpt lat="44.50133" lon="1.04886">
        <ele>98</ele>
        <time>2022-08-11T10:34:03Z</time>
      </trkpt>
      <trkpt lat="44.50122" lon="1.04886">
        <ele>97.3</ele>
        <time>2022-08-11T10:34:05Z</time>
      </trkpt>
      <trkpt lat="44.50113" lon="1.04883">
        <ele>97.6</ele>
        <time>2022-08-11T10:34:07Z</time>
      </trkpt>
      <trkpt lat="44.50102" lon="1.04884">
        <ele>96.3</ele>
        <time>2022-08-11T10:34:09Z</time>
      </trkpt>
      <trkpt lat="44.50094" lon="1.0488">
        <ele>97.2</ele>
        <time>2022-08-11T10:34:11Z</time>
      </trkpt>
      <trkpt lat="44.50084" lon="1.04881">
        <ele>96.1</ele>
        <time>2022-08-11T10:34:13Z</time>
      </trkpt>
      <trkpt lat="44.50074" lon="1.04883">
        <ele>94.7</ele>
        <time>2022-08-11T10:34:15Z</time>
      </trkpt>
      <trkpt lat="44.50066" lon="1.04878">
        <ele>95.9</ele>
        <time>2022-08-11T10:34:17Z</time>
      </trkpt>
      <trkpt lat="44.50057" lon="1.04877">
        <ele>95.5</ele>
        <time>2022-08-11T10:34:19Z</time>
      </trkpt>
      <trkpt lat="44.50048" lon="1.04878">
        <ele>94.6</ele>
        <time>2022-08-11T10:34:21Z</time>
      </trkpt>
      <trkpt lat="44.50039" lon="1.04876">
        <ele>94.8</ele>
        <time>2022-08-11T10:34:23Z</time>
      </trkpt>
      <trkpt lat="44.5003" lon="1.04874">
        <ele>94.6</ele>
        <time>2022-08-11T10:34:25Z</time>
      </trkpt>
      <trkpt lat="44.50021" lon="1.04875">
        <ele>93.8</ele>
        <time>2022-08-11T10:34:27Z</time>
      </trkpt>
      <trkpt lat="44.50013" lon="1.04873">
        <ele>93.7</ele>
        <time>2022-08-11T10:34:29Z</time>
      </trkpt>
      <trkpt lat="44.50004" lon="1.04871">
        <ele>94</ele>
        <time>2022-08-11T10:34:31Z</time>
      </trkpt>
      <trkpt lat="44.49996" lon="1.04869">
        <ele>93.8</ele>
        <time>2022-08-11T10:34:33Z</time>
      </trkpt>
      <trkpt lat="44.49988" lon="1.04869">
        <ele>93.1</ele>
        <time>2022-08-11T10:34:35Z</time>
      </trkpt>
      <trkpt lat="44.4998" lon="1.04868">
        <ele>92.4</ele>
        <time>2022-08-11T10:34:37Z</time>
      </trkpt>
      <trkpt lat="44.49973" lon="1.04866">
        <ele>92.3</ele>
        <time>2022-08-11T10:34:39Z</time>
      </trkpt>
      <trkpt lat="44.49965" lon="1.04864">
        <ele>91.8</ele>
        <time>2022-08-11T10:34:41Z</time>
      </trkpt>
      <trkpt lat="44.49958" lon="1.04863">
        <ele>91.2</ele>
        <time>2022-08-11T10:34:43Z</time>
      </trkpt>
      <trkpt lat="44.4995" lon="1.04864">
        <ele>90</ele>
        <time>2022-08-11T10:34:45Z</time>
      </trkpt>
      <trkpt lat="44.49944" lon="1.04862">
        <ele>89.7</ele>
        <time>2022-08-11T10:34:47Z</time>
      </trkpt>
      <trkpt lat="44.49936" lon="1.04862">
        <ele>88.7</ele>
        <time>2022-08-11T10:34:49Z</time>
      </trkpt>
      <trkpt lat="44.49928" lon="1.04861">
        <ele>87.9</ele>
        <time>2022-08-11T10:34:51Z</time>
      </trkpt>
      <trkpt lat="44.49921" lon="1.0486">
        <ele>87.1</ele>
        <time>2022-08-11T10:34:53Z</time>
      </trkpt>
      <trkpt lat="44.49914" lon="1.0486">
        <ele>86.4</ele>
        <time>2022-08-11T10:34:55Z</time>
      </trkpt>
      <trkpt lat="44.49906" lon="1.04861">
        <ele>85.8</ele>
        <time>2022-08-11T10:34:57Z</time>
      </trkpt>
      <trkpt lat="44.499" lon="1.04859">
        <ele>85.9</ele>
        <time>2022-08-11T10:34:59Z</time>
      </trkpt>
      <trkpt lat="44.49894" lon="1.04858">
        <ele>85.7</ele>
        <time>2022-08-11T10:35:01Z</time>
      </trkpt>
      <trkpt lat="44.49889" lon="1.04856">
        <ele>85.9</ele>
        <time>2022-08-11T10:35:03Z</time>
      </trkpt>
      <trkpt lat="44.49883" lon="1.04854">
        <ele>85.9</ele>
        <time>2022-08-11T10:35:05Z</time>
      </trkpt>
      <trkpt lat="44.49877" lon="1.04852">
        <ele>85.8</ele>
        <time>2022-08-11T10:35:07Z</time>
      </trkpt>
      <trkpt lat="44.4987" lon="1.0485">
        <ele>85.6</ele>
        <time>2022-08-11T10:35:09Z</time>
      </trkpt>
      <trkpt lat="44.49863" lon="1.04852">
        <ele>85</ele>
        <time>2022-08-11T10:35:11Z</time>
      </trkpt>
      <trkpt lat="44.49855" lon="1.04851">
        <ele>84.6</ele>
        <time>2022-08-11T10:35:13Z</time>
      </trkpt>
      <trkpt lat="44.49848" lon="1.04852">
        <ele>84.1</ele>
        <time>2022-08-11T10:35:15Z</time>
      </trkpt>
      <trkpt lat="44.49841" lon="1.04851">
        <ele>83.7</ele>
        <time>2022-08-11T10:35:17Z</time>
      </trkpt>
      <trkpt lat="44.49834" lon="1.04851">
        <ele>83.4</ele>
        <time>2022-08-11T10:35:19Z</time>
      </trkpt>
      <trkpt lat="44.49827" lon="1.04851">
        <ele>83.2</ele>
        <time>2022-08-11T10:35:21Z</time>
      </trkpt>
      <trkpt lat="44.4982" lon="1.0485">
        <ele>83.3</ele>
        <time>2022-08-11T10:35:23Z</time>
      </trkpt>
      <trkpt lat="44.49813" lon="1.0485">
        <ele>83.3</ele>
        <time>2022-08-11T10:35:25Z</time>
      </trkpt>
      <trkpt lat="44.49807" lon="1.0485">
        <ele>83.3</ele>
        <time>2022-08-11T10:35:27Z</time>
      </trkpt>
      <trkpt lat="44.498" lon="1.04849">
        <ele>83.3</ele>
        <time>2022-08-11T10:35:29Z</time>
      </trkpt>
      <trkpt lat="44.49794" lon="1.04848">
        <ele>83.4</ele>
        <time>2022-08-11T10:35:31Z</time>
      </trkpt>
      <trkpt lat="44.49788" lon="1.04849">
        <ele>83.3</ele>
        <time>2022-08-11T10:35:33Z</time>
      </trkpt>
      <trkpt lat="44.49784" lon="1.04849">
        <ele>83.3</ele>
        <time>2022-08-11T10:35:35Z</time>
      </trkpt>
      <trkpt lat="44.49778" lon="1.04848">
        <ele>83.3</ele>
        <time>2022-08-11T10:35:37Z</time>
      </trkpt>
      <trkpt lat="44.49773" lon="1.04849">
        <ele>83.3</ele>
        <time>2022-08-11T10:35:39Z</time>
      </trkpt>
      <trkpt lat="44.49766" lon="1.04848">
        <ele>83.3</ele>
        <time>2022-08-11T10:35:41Z</time>
      </trkpt>
      <trkpt lat="44.49759" lon="1.04849">
        <ele>83.2</ele>
        <time>2022-08-11T10:35:43Z</time>
      </trkpt>
      <trkpt lat="44.49751" lon="1.04851">
        <ele>82.9</ele>
        <time>2022-08-11T10:35:45Z</time>
      </trkpt>
      <trkpt lat="44.49743" lon="1.04852">
        <ele>82.8</ele>
        <time>2022-08-11T10:35:47Z</time>
      </trkpt>
      <trkpt lat="44.49735" lon="1.04853">
        <ele>82.7</ele>
        <time>2022-08-11T10:35:49Z</time>
      </trkpt>
      <trkpt lat="44.49728" lon="1.04853">
        <ele>82.7</ele>
        <time>2022-08-11T10:35:51Z</time>
      </trkpt>
      <trkpt lat="44.49721" lon="1.0485">
        <ele>83</ele>
        <time>2022-08-11T10:35:53Z</time>
      </trkpt>
      <trkpt lat="44.49713" lon="1.04853">
        <ele>82.7</ele>
        <time>2022-08-11T10:35:55Z</time>
      </trkpt>
      <trkpt lat="44.49705" lon="1.04853">
        <ele>82.6</ele>
        <time>2022-08-11T10:35:57Z</time>
      </trkpt>
      <trkpt lat="44.49697" lon="1.04854">
        <ele>82.5</ele>
        <time>2022-08-11T10:35:59Z</time>
      </trkpt>
      <trkpt lat="44.49691" lon="1.04856">
        <ele>82.3</ele>
        <time>2022-08-11T10:36:01Z</time>
      </trkpt>
      <trkpt lat="44.49682" lon="1.04855">
        <ele>82.3</ele>
        <time>2022-08-11T10:36:03Z</time>
      </trkpt>
      <trkpt lat="44.49675" lon="1.04857">
        <ele>82.2</ele>
        <time>2022-08-11T10:36:05Z</time>
      </trkpt>
      <trkpt lat="44.49669" lon="1.04859">
        <ele>82</ele>
        <time>2022-08-11T10:36:07Z</time>
      </trkpt>
      <trkpt lat="44.49661" lon="1.04858">
        <ele>82.2</ele>
        <time>2022-08-11T10:36:09Z</time>
      </trkpt>
      <trkpt lat="44.49654" lon="1.04858">
        <ele>82.4</ele>
        <time>2022-08-11T10:36:11Z</time>
      </trkpt>
      <trkpt lat="44.49647" lon="1.04858">
        <ele>82.5</ele>
        <time>2022-08-11T10:36:13Z</time>
      </trkpt>
      <trkpt lat="44.4964" lon="1.04859">
        <ele>82.6</ele>
        <time>2022-08-11T10:36:15Z</time>
      </trkpt>
      <trkpt lat="44.49634" lon="1.0486">
        <ele>82.6</ele>
        <time>2022-08-11T10:36:17Z</time>
      </trkpt>
      <trkpt lat="44.49628" lon="1.0486">
        <ele>82.8</ele>
        <time>2022-08-11T10:36:19Z</time>
      </trkpt>
      <trkpt lat="44.49621" lon="1.04859">
        <ele>83</ele>
        <time>2022-08-11T10:36:21Z</time>
      </trkpt>
      <trkpt lat="44.49615" lon="1.0486">
        <ele>83.1</ele>
        <time>2022-08-11T10:36:23Z</time>
      </trkpt>
      <trkpt lat="44.49609" lon="1.0486">
        <ele>83.1</ele>
        <time>2022-08-11T10:36:25Z</time>
      </trkpt>
      <trkpt lat="44.49603" lon="1.04861">
        <ele>83.2</ele>
        <time>2022-08-11T10:36:27Z</time>
      </trkpt>
      <trkpt lat="44.49597" lon="1.04861">
        <ele>83.4</ele>
        <time>2022-08-11T10:36:29Z</time>
      </trkpt>
      <trkpt lat="44.49592" lon="1.04861">
        <ele>83.5</ele>
        <time>2022-08-11T10:36:31Z</time>
      </trkpt>
      <trkpt lat="44.49588" lon="1.04861">
        <ele>83.5</ele>
        <time>2022-08-11T10:36:33Z</time>
      </trkpt>
      <trkpt lat="44.49585" lon="1.04862">
        <ele>83.5</ele>
        <time>2022-08-11T10:36:35Z</time>
      </trkpt>
      <trkpt lat="44.49582" lon="1.04862">
        <ele>83.6</ele>
        <time>2022-08-11T10:36:37Z</time>
      </trkpt>
      <trkpt lat="44.49581" lon="1.04863">
        <ele>83.5</ele>
        <time>2022-08-11T10:36:39Z</time>
      </trkpt>
      <trkpt lat="44.49581" lon="1.04863">
        <ele>83.5</ele>
        <time>2022-08-11T10:36:41Z</time>
      </trkpt>
      <trkpt lat="44.49581" lon="1.04863">
        <ele>83.5</ele>
        <time>2022-08-11T10:36:43Z</time>
      </trkpt>
      <trkpt lat="44.4958" lon="1.04863">
        <ele>83.6</ele>
        <time>2022-08-11T10:36:45Z</time>
      </trkpt>
      <trkpt lat="44.49579" lon="1.04863">
        <ele>83.5</ele>
        <time>2022-08-11T10:36:47Z</time>
      </trkpt>
      <trkpt lat="44.49565" lon="1.04858">
        <ele>84.5</ele>
        <time>2022-08-11T10:41:47Z</time>
      </trkpt>
      <trkpt lat="44.49559" lon="1.04857">
        <ele>84.7</ele>
        <time>2022-08-11T10:41:49Z</time>
      </trkpt>
      <trkpt lat="44.49554" lon="1.04857">
        <ele>84.9</ele>
        <time>2022-08-11T10:41:51Z</time>
      </trkpt>
      <trkpt lat="44.49548" lon="1.04857">
        <ele>85.1</ele>
        <time>2022-08-11T10:41:53Z</time>
      </trkpt>
      <trkpt lat="44.49542" lon="1.04857">
        <ele>85.2</ele>
        <time>2022-08-11T10:41:55Z</time>
      </trkpt>
      <trkpt lat="44.49537" lon="1.04856">
        <ele>85.5</ele>
        <time>2022-08-11T10:41:57Z</time>
      </trkpt>
      <trkpt lat="44.49531" lon="1.04853">
        <ele>85.9</ele>
        <time>2022-08-11T10:41:59Z</time>
      </trkpt>
      <trkpt lat="44.49525" lon="1.04853">
        <ele>86</ele>
        <time>2022-08-11T10:42:01Z</time>
      </trkpt>
      <trkpt lat="44.49519" lon="1.04852">
        <ele>86.3</ele>
        <time>2022-08-11T10:42:03Z</time>
      </trkpt>
      <trkpt lat="44.49513" lon="1.0485">
        <ele>86.5</ele>
        <time>2022-08-11T10:42:05Z</time>
      </trkpt>
      <trkpt lat="44.49507" lon="1.04848">
        <ele>86.8</ele>
        <time>2022-08-11T10:42:07Z</time>
      </trkpt>
      <trkpt lat="44.49501" lon="1.04848">
        <ele>87</ele>
        <time>2022-08-11T10:42:09Z</time>
      </trkpt>
      <trkpt lat="44.49495" lon="1.04847">
        <ele>87.1</ele>
        <time>2022-08-11T10:42:11Z</time>
      </trkpt>
      <trkpt lat="44.49488" lon="1.04846">
        <ele>87.3</ele>
        <time>2022-08-11T10:42:13Z</time>
      </trkpt>
      <trkpt lat="44.49481" lon="1.04844">
        <ele>87.6</ele>
        <time>2022-08-11T10:42:15Z</time>
      </trkpt>
      <trkpt lat="44.49474" lon="1.04842">
        <ele>87.8</ele>
        <time>2022-08-11T10:42:17Z</time>
      </trkpt>
      <trkpt lat="44.49466" lon="1.04841">
        <ele>88</ele>
        <time>2022-08-11T10:42:19Z</time>
      </trkpt>
      <trkpt lat="44.49459" lon="1.04839">
        <ele>88.2</ele>
        <time>2022-08-11T10:42:21Z</time>
      </trkpt>
      <trkpt lat="44.49452" lon="1.04835">
        <ele>88.5</ele>
        <time>2022-08-11T10:42:23Z</time>
      </trkpt>
      <trkpt lat="44.49445" lon="1.04832">
        <ele>88.6</ele>
        <time>2022-08-11T10:42:25Z</time>
      </trkpt>
      <trkpt lat="44.49437" lon="1.0483">
        <ele>88.7</ele>
        <time>2022-08-11T10:42:27Z</time>
      </trkpt>
      <trkpt lat="44.4943" lon="1.04828">
        <ele>88.7</ele>
        <time>2022-08-11T10:42:29Z</time>
      </trkpt>
      <trkpt lat="44.49424" lon="1.04826">
        <ele>88.7</ele>
        <time>2022-08-11T10:42:31Z</time>
      </trkpt>
      <trkpt lat="44.49417" lon="1.04822">
        <ele>88.7</ele>
        <time>2022-08-11T10:42:33Z</time>
      </trkpt>
      <trkpt lat="44.49411" lon="1.04819">
        <ele>88.5</ele>
        <time>2022-08-11T10:42:35Z</time>
      </trkpt>
      <trkpt lat="44.49404" lon="1.04816">
        <ele>88.2</ele>
        <time>2022-08-11T10:42:37Z</time>
      </trkpt>
      <trkpt lat="44.49396" lon="1.04814">
        <ele>88</ele>
        <time>2022-08-11T10:42:39Z</time>
      </trkpt>
      <trkpt lat="44.49389" lon="1.04812">
        <ele>87.7</ele>
        <time>2022-08-11T10:42:41Z</time>
      </trkpt>
      <trkpt lat="44.49381" lon="1.04809">
        <ele>87.5</ele>
        <time>2022-08-11T10:42:43Z</time>
      </trkpt>
      <trkpt lat="44.49374" lon="1.04806">
        <ele>87.3</ele>
        <time>2022-08-11T10:42:45Z</time>
      </trkpt>
      <trkpt lat="44.49367" lon="1.04803">
        <ele>87.1</ele>
        <time>2022-08-11T10:42:47Z</time>
      </trkpt>
      <trkpt lat="44.49361" lon="1.04798">
        <ele>87</ele>
        <time>2022-08-11T10:42:49Z</time>
      </trkpt>
      <trkpt lat="44.49354" lon="1.04794">
        <ele>86.9</ele>
        <time>2022-08-11T10:42:51Z</time>
      </trkpt>
      <trkpt lat="44.49348" lon="1.0479">
        <ele>86.8</ele>
        <time>2022-08-11T10:42:53Z</time>
      </trkpt>
      <trkpt lat="44.49342" lon="1.04786">
        <ele>86.7</ele>
        <time>2022-08-11T10:42:55Z</time>
      </trkpt>
      <trkpt lat="44.49335" lon="1.04782">
        <ele>86.6</ele>
        <time>2022-08-11T10:42:57Z</time>
      </trkpt>
      <trkpt lat="44.49329" lon="1.04779">
        <ele>86.6</ele>
        <time>2022-08-11T10:42:59Z</time>
      </trkpt>
      <trkpt lat="44.49323" lon="1.04776">
        <ele>86.7</ele>
        <time>2022-08-11T10:43:01Z</time>
      </trkpt>
      <trkpt lat="44.49317" lon="1.04774">
        <ele>86.7</ele>
        <time>2022-08-11T10:43:03Z</time>
      </trkpt>
      <trkpt lat="44.49311" lon="1.04769">
        <ele>86.9</ele>
        <time>2022-08-11T10:43:05Z</time>
      </trkpt>
      <trkpt lat="44.49304" lon="1.04766">
        <ele>87</ele>
        <time>2022-08-11T10:43:07Z</time>
      </trkpt>
      <trkpt lat="44.49298" lon="1.04761">
        <ele>87.1</ele>
        <time>2022-08-11T10:43:09Z</time>
      </trkpt>
      <trkpt lat="44.49293" lon="1.04756">
        <ele>87.3</ele>
        <time>2022-08-11T10:43:11Z</time>
      </trkpt>
      <trkpt lat="44.49286" lon="1.04751">
        <ele>87.5</ele>
        <time>2022-08-11T10:43:13Z</time>
      </trkpt>
      <trkpt lat="44.4928" lon="1.04747">
        <ele>87.6</ele>
        <time>2022-08-11T10:43:15Z</time>
      </trkpt>
      <trkpt lat="44.49275" lon="1.04743">
        <ele>87.7</ele>
        <time>2022-08-11T10:43:17Z</time>
      </trkpt>
      <trkpt lat="44.49269" lon="1.04739">
        <ele>87.7</ele>
        <time>2022-08-11T10:43:19Z</time>
      </trkpt>
      <trkpt lat="44.49263" lon="1.04735">
        <ele>87.8</ele>
        <time>2022-08-11T10:43:21Z</time>
      </trkpt>
      <trkpt lat="44.49257" lon="1.04731">
        <ele>87.9</ele>
        <time>2022-08-11T10:43:23Z</time>
      </trkpt>
      <trkpt lat="44.49251" lon="1.04726">
        <ele>88</ele>
        <time>2022-08-11T10:43:25Z</time>
      </trkpt>
      <trkpt lat="44.49245" lon="1.04722">
        <ele>87.9</ele>
        <time>2022-08-11T10:43:27Z</time>
      </trkpt>
      <trkpt lat="44.49239" lon="1.04717">
        <ele>87.8</ele>
        <time>2022-08-11T10:43:29Z</time>
      </trkpt>
      <trkpt lat="44.49232" lon="1.04712">
        <ele>87.7</ele>
        <time>2022-08-11T10:43:31Z</time>
      </trkpt>
      <trkpt lat="44.49227" lon="1.04707">
        <ele>87.6</ele>
        <time>2022-08-11T10:43:33Z</time>
      </trkpt>
      <trkpt lat="44.49221" lon="1.04702">
        <ele>87.5</ele>
        <time>2022-08-11T10:43:35Z</time>
      </trkpt>
      <trkpt lat="44.49215" lon="1.04698">
        <ele>87.4</ele>
        <time>2022-08-11T10:43:37Z</time>
      </trkpt>
      <trkpt lat="44.4921" lon="1.04694">
        <ele>87.4</ele>
        <time>2022-08-11T10:43:39Z</time>
      </trkpt>
      <trkpt lat="44.49204" lon="1.04689">
        <ele>87.3</ele>
        <time>2022-08-11T10:43:41Z</time>
      </trkpt>
      <trkpt lat="44.49199" lon="1.04684">
        <ele>87.3</ele>
        <time>2022-08-11T10:43:43Z</time>
      </trkpt>
      <trkpt lat="44.49193" lon="1.0468">
        <ele>87.2</ele>
        <time>2022-08-11T10:43:45Z</time>
      </trkpt>
      <trkpt lat="44.49189" lon="1.04677">
        <ele>87.2</ele>
        <time>2022-08-11T10:43:47Z</time>
      </trkpt>
      <trkpt lat="44.49184" lon="1.04673">
        <ele>87.1</ele>
        <time>2022-08-11T10:43:49Z</time>
      </trkpt>
      <trkpt lat="44.49178" lon="1.04672">
        <ele>87.1</ele>
        <time>2022-08-11T10:43:51Z</time>
      </trkpt>
      <trkpt lat="44.49172" lon="1.04669">
        <ele>87</ele>
        <time>2022-08-11T10:43:53Z</time>
      </trkpt>
      <trkpt lat="44.49167" lon="1.04666">
        <ele>87</ele>
        <time>2022-08-11T10:43:55Z</time>
      </trkpt>
      <trkpt lat="44.49162" lon="1.04662">
        <ele>87.1</ele>
        <time>2022-08-11T10:43:57Z</time>
      </trkpt>
      <trkpt lat="44.49156" lon="1.0466">
        <ele>87.1</ele>
        <time>2022-08-11T10:43:59Z</time>
      </trkpt>
      <trkpt lat="44.49151" lon="1.04656">
        <ele>87.2</ele>
        <time>2022-08-11T10:44:01Z</time>
      </trkpt>
      <trkpt lat="44.49146" lon="1.04654">
        <ele>87.2</ele>
        <time>2022-08-11T10:44:03Z</time>
      </trkpt>
      <trkpt lat="44.49142" lon="1.04652">
        <ele>87.2</ele>
        <time>2022-08-11T10:44:05Z</time>
      </trkpt>
      <trkpt lat="44.49138" lon="1.04656">
        <ele>87.2</ele>
        <time>2022-08-11T10:44:07Z</time>
      </trkpt>
      <trkpt lat="44.49137" lon="1.04664">
        <ele>87</ele>
        <time>2022-08-11T10:44:09Z</time>
      </trkpt>
      <trkpt lat="44.49136" lon="1.04672">
        <ele>86.9</ele>
        <time>2022-08-11T10:44:11Z</time>
      </trkpt>
      <trkpt lat="44.49135" lon="1.04682">
        <ele>86.7</ele>
        <time>2022-08-11T10:44:13Z</time>
      </trkpt>
      <trkpt lat="44.49134" lon="1.04692">
        <ele>86.6</ele>
        <time>2022-08-11T10:44:15Z</time>
      </trkpt>
      <trkpt lat="44.49134" lon="1.04702">
        <ele>86.4</ele>
        <time>2022-08-11T10:44:17Z</time>
      </trkpt>
      <trkpt lat="44.49134" lon="1.04712">
        <ele>86.2</ele>
        <time>2022-08-11T10:44:19Z</time>
      </trkpt>
      <trkpt lat="44.49135" lon="1.04724">
        <ele>86.1</ele>
        <time>2022-08-11T10:44:21Z</time>
      </trkpt>
      <trkpt lat="44.49137" lon="1.04735">
        <ele>85.9</ele>
        <time>2022-08-11T10:44:23Z</time>
      </trkpt>
      <trkpt lat="44.49141" lon="1.04746">
        <ele>85.7</ele>
        <time>2022-08-11T10:44:25Z</time>
      </trkpt>
      <trkpt lat="44.49145" lon="1.04759">
        <ele>85.6</ele>
        <time>2022-08-11T10:44:27Z</time>
      </trkpt>
      <trkpt lat="44.49148" lon="1.04773">
        <ele>85.5</ele>
        <time>2022-08-11T10:44:29Z</time>
      </trkpt>
      <trkpt lat="44.4915" lon="1.04788">
        <ele>85.3</ele>
        <time>2022-08-11T10:44:31Z</time>
      </trkpt>
      <trkpt lat="44.49146" lon="1.04803">
        <ele>85.1</ele>
        <time>2022-08-11T10:44:33Z</time>
      </trkpt>
      <trkpt lat="44.49138" lon="1.04817">
        <ele>84.9</ele>
        <time>2022-08-11T10:44:35Z</time>
      </trkpt>
      <trkpt lat="44.49125" lon="1.04821">
        <ele>84.6</ele>
        <time>2022-08-11T10:44:37Z</time>
      </trkpt>
      <trkpt lat="44.49112" lon="1.04822">
        <ele>84.5</ele>
        <time>2022-08-11T10:44:39Z</time>
      </trkpt>
      <trkpt lat="44.49097" lon="1.04824">
        <ele>84.3</ele>
        <time>2022-08-11T10:44:41Z</time>
      </trkpt>
      <trkpt lat="44.49083" lon="1.04824">
        <ele>84.1</ele>
        <time>2022-08-11T10:44:43Z</time>
      </trkpt>
      <trkpt lat="44.4907" lon="1.04824">
        <ele>84.1</ele>
        <time>2022-08-11T10:44:45Z</time>
      </trkpt>
      <trkpt lat="44.49056" lon="1.04826">
        <ele>84.1</ele>
        <time>2022-08-11T10:44:47Z</time>
      </trkpt>
      <trkpt lat="44.49043" lon="1.04827">
        <ele>84.1</ele>
        <time>2022-08-11T10:44:49Z</time>
      </trkpt>
      <trkpt lat="44.49029" lon="1.04832">
        <ele>84</ele>
        <time>2022-08-11T10:44:51Z</time>
      </trkpt>
      <trkpt lat="44.49017" lon="1.0484">
        <ele>83.7</ele>
        <time>2022-08-11T10:44:53Z</time>
      </trkpt>
      <trkpt lat="44.49005" lon="1.0485">
        <ele>83.2</ele>
        <time>2022-08-11T10:44:55Z</time>
      </trkpt>
      <trkpt lat="44.48992" lon="1.04859">
        <ele>82.5</ele>
        <time>2022-08-11T10:44:57Z</time>
      </trkpt>
      <trkpt lat="44.48978" lon="1.04865">
        <ele>81.7</ele>
        <time>2022-08-11T10:44:59Z</time>
      </trkpt>
      <trkpt lat="44.48963" lon="1.04871">
        <ele>81</ele>
        <time>2022-08-11T10:45:01Z</time>
      </trkpt>
      <trkpt lat="44.48948" lon="1.04876">
        <ele>80.4</ele>
        <time>2022-08-11T10:45:03Z</time>
      </trkpt>
      <trkpt lat="44.48933" lon="1.04881">
        <ele>79.9</ele>
        <time>2022-08-11T10:45:05Z</time>
      </trkpt>
      <trkpt lat="44.48919" lon="1.04884">
        <ele>79.4</ele>
        <time>2022-08-11T10:45:07Z</time>
      </trkpt>
      <trkpt lat="44.48905" lon="1.04885">
        <ele>79.2</ele>
        <time>2022-08-11T10:45:09Z</time>
      </trkpt>
      <trkpt lat="44.48892" lon="1.04886">
        <ele>79</ele>
        <time>2022-08-11T10:45:11Z</time>
      </trkpt>
      <trkpt lat="44.48879" lon="1.04889">
        <ele>78.7</ele>
        <time>2022-08-11T10:45:13Z</time>
      </trkpt>
      <trkpt lat="44.48869" lon="1.04893">
        <ele>78.4</ele>
        <time>2022-08-11T10:45:15Z</time>
      </trkpt>
      <trkpt lat="44.48858" lon="1.04898">
        <ele>78.1</ele>
        <time>2022-08-11T10:45:17Z</time>
      </trkpt>
      <trkpt lat="44.48847" lon="1.04901">
        <ele>77.8</ele>
        <time>2022-08-11T10:45:19Z</time>
      </trkpt>
      <trkpt lat="44.48836" lon="1.04906">
        <ele>77.4</ele>
        <time>2022-08-11T10:45:21Z</time>
      </trkpt>
      <trkpt lat="44.48826" lon="1.04908">
        <ele>77.6</ele>
        <time>2022-08-11T10:45:23Z</time>
      </trkpt>
      <trkpt lat="44.48815" lon="1.04909">
        <ele>77.9</ele>
        <time>2022-08-11T10:45:25Z</time>
      </trkpt>
      <trkpt lat="44.48805" lon="1.04912">
        <ele>78.2</ele>
        <time>2022-08-11T10:45:27Z</time>
      </trkpt>
      <trkpt lat="44.48795" lon="1.04914">
        <ele>78.5</ele>
        <time>2022-08-11T10:45:29Z</time>
      </trkpt>
      <trkpt lat="44.48786" lon="1.04916">
        <ele>78.7</ele>
        <time>2022-08-11T10:45:31Z</time>
      </trkpt>
      <trkpt lat="44.48776" lon="1.04917">
        <ele>79</ele>
        <time>2022-08-11T10:45:33Z</time>
      </trkpt>
      <trkpt lat="44.48767" lon="1.04916">
        <ele>79.4</ele>
        <time>2022-08-11T10:45:35Z</time>
      </trkpt>
      <trkpt lat="44.48758" lon="1.04916">
        <ele>79.8</ele>
        <time>2022-08-11T10:45:37Z</time>
      </trkpt>
      <trkpt lat="44.48749" lon="1.04916">
        <ele>80</ele>
        <time>2022-08-11T10:45:39Z</time>
      </trkpt>
      <trkpt lat="44.4874" lon="1.04916">
        <ele>80</ele>
        <time>2022-08-11T10:45:41Z</time>
      </trkpt>
      <trkpt lat="44.48732" lon="1.04917">
        <ele>80</ele>
        <time>2022-08-11T10:45:43Z</time>
      </trkpt>
      <trkpt lat="44.48724" lon="1.04917">
        <ele>80</ele>
        <time>2022-08-11T10:45:45Z</time>
      </trkpt>
      <trkpt lat="44.48716" lon="1.04919">
        <ele>79.9</ele>
        <time>2022-08-11T10:45:47Z</time>
      </trkpt>
      <trkpt lat="44.48708" lon="1.04918">
        <ele>79.9</ele>
        <time>2022-08-11T10:45:49Z</time>
      </trkpt>
      <trkpt lat="44.487" lon="1.04919">
        <ele>79.8</ele>
        <time>2022-08-11T10:45:51Z</time>
      </trkpt>
      <trkpt lat="44.48692" lon="1.0492">
        <ele>79.8</ele>
        <time>2022-08-11T10:45:53Z</time>
      </trkpt>
      <trkpt lat="44.48685" lon="1.0492">
        <ele>79.8</ele>
        <time>2022-08-11T10:45:55Z</time>
      </trkpt>
      <trkpt lat="44.48678" lon="1.04922">
        <ele>79.7</ele>
        <time>2022-08-11T10:45:57Z</time>
      </trkpt>
      <trkpt lat="44.48671" lon="1.04922">
        <ele>79.7</ele>
        <time>2022-08-11T10:45:59Z</time>
      </trkpt>
      <trkpt lat="44.48663" lon="1.04923">
        <ele>79.6</ele>
        <time>2022-08-11T10:46:01Z</time>
      </trkpt>
      <trkpt lat="44.48656" lon="1.04924">
        <ele>79.4</ele>
        <time>2022-08-11T10:46:03Z</time>
      </trkpt>
      <trkpt lat="44.48649" lon="1.04925">
        <ele>79.3</ele>
        <time>2022-08-11T10:46:05Z</time>
      </trkpt>
      <trkpt lat="44.48643" lon="1.04927">
        <ele>79.1</ele>
        <time>2022-08-11T10:46:07Z</time>
      </trkpt>
      <trkpt lat="44.48636" lon="1.04926">
        <ele>79.1</ele>
        <time>2022-08-11T10:46:09Z</time>
      </trkpt>
      <trkpt lat="44.48629" lon="1.04928">
        <ele>78.9</ele>
        <time>2022-08-11T10:46:11Z</time>
      </trkpt>
      <trkpt lat="44.48622" lon="1.04929">
        <ele>78.8</ele>
        <time>2022-08-11T10:46:13Z</time>
      </trkpt>
      <trkpt lat="44.48614" lon="1.0493">
        <ele>78.7</ele>
        <time>2022-08-11T10:46:15Z</time>
      </trkpt>
      <trkpt lat="44.48607" lon="1.0493">
        <ele>78.6</ele>
        <time>2022-08-11T10:46:17Z</time>
      </trkpt>
      <trkpt lat="44.486" lon="1.04932">
        <ele>78.4</ele>
        <time>2022-08-11T10:46:19Z</time>
      </trkpt>
      <trkpt lat="44.48592" lon="1.04933">
        <ele>78.3</ele>
        <time>2022-08-11T10:46:21Z</time>
      </trkpt>
      <trkpt lat="44.48584" lon="1.04935">
        <ele>78.1</ele>
        <time>2022-08-11T10:46:23Z</time>
      </trkpt>
      <trkpt lat="44.48576" lon="1.04936">
        <ele>78.2</ele>
        <time>2022-08-11T10:46:25Z</time>
      </trkpt>
      <trkpt lat="44.48568" lon="1.04937">
        <ele>78.2</ele>
        <time>2022-08-11T10:46:27Z</time>
      </trkpt>
      <trkpt lat="44.48559" lon="1.04938">
        <ele>78.2</ele>
        <time>2022-08-11T10:46:29Z</time>
      </trkpt>
      <trkpt lat="44.48551" lon="1.0494">
        <ele>78.1</ele>
        <time>2022-08-11T10:46:31Z</time>
      </trkpt>
      <trkpt lat="44.48541" lon="1.04944">
        <ele>78</ele>
        <time>2022-08-11T10:46:33Z</time>
      </trkpt>
      <trkpt lat="44.48533" lon="1.04947">
        <ele>77.9</ele>
        <time>2022-08-11T10:46:35Z</time>
      </trkpt>
      <trkpt lat="44.48524" lon="1.04951">
        <ele>77.8</ele>
        <time>2022-08-11T10:46:37Z</time>
      </trkpt>
      <trkpt lat="44.48515" lon="1.04956">
        <ele>77.6</ele>
        <time>2022-08-11T10:46:39Z</time>
      </trkpt>
      <trkpt lat="44.48507" lon="1.04961">
        <ele>77.3</ele>
        <time>2022-08-11T10:46:41Z</time>
      </trkpt>
      <trkpt lat="44.48498" lon="1.04964">
        <ele>77.2</ele>
        <time>2022-08-11T10:46:43Z</time>
      </trkpt>
      <trkpt lat="44.48489" lon="1.04968">
        <ele>77.1</ele>
        <time>2022-08-11T10:46:45Z</time>
      </trkpt>
      <trkpt lat="44.48481" lon="1.0497">
        <ele>77</ele>
        <time>2022-08-11T10:46:47Z</time>
      </trkpt>
      <trkpt lat="44.48472" lon="1.04972">
        <ele>77</ele>
        <time>2022-08-11T10:46:49Z</time>
      </trkpt>
      <trkpt lat="44.48463" lon="1.04975">
        <ele>77</ele>
        <time>2022-08-11T10:46:51Z</time>
      </trkpt>
      <trkpt lat="44.48455" lon="1.04976">
        <ele>77</ele>
        <time>2022-08-11T10:46:53Z</time>
      </trkpt>
      <trkpt lat="44.48446" lon="1.04977">
        <ele>77</ele>
        <time>2022-08-11T10:46:55Z</time>
      </trkpt>
      <trkpt lat="44.48438" lon="1.04978">
        <ele>77.1</ele>
        <time>2022-08-11T10:46:57Z</time>
      </trkpt>
      <trkpt lat="44.48429" lon="1.04979">
        <ele>77.1</ele>
        <time>2022-08-11T10:46:59Z</time>
      </trkpt>
      <trkpt lat="44.48421" lon="1.0498">
        <ele>77.1</ele>
        <time>2022-08-11T10:47:01Z</time>
      </trkpt>
      <trkpt lat="44.48413" lon="1.0498">
        <ele>77.4</ele>
        <time>2022-08-11T10:47:03Z</time>
      </trkpt>
      <trkpt lat="44.48404" lon="1.0498">
        <ele>77.7</ele>
        <time>2022-08-11T10:47:05Z</time>
      </trkpt>
      <trkpt lat="44.48395" lon="1.04981">
        <ele>78</ele>
        <time>2022-08-11T10:47:07Z</time>
      </trkpt>
      <trkpt lat="44.48386" lon="1.04981">
        <ele>78.3</ele>
        <time>2022-08-11T10:47:09Z</time>
      </trkpt>
      <trkpt lat="44.48378" lon="1.0498">
        <ele>78.6</ele>
        <time>2022-08-11T10:47:11Z</time>
      </trkpt>
      <trkpt lat="44.48369" lon="1.04981">
        <ele>78.9</ele>
        <time>2022-08-11T10:47:13Z</time>
      </trkpt>
      <trkpt lat="44.48361" lon="1.04981">
        <ele>79.2</ele>
        <time>2022-08-11T10:47:15Z</time>
      </trkpt>
      <trkpt lat="44.48352" lon="1.0498">
        <ele>79.6</ele>
        <time>2022-08-11T10:47:17Z</time>
      </trkpt>
      <trkpt lat="44.48343" lon="1.0498">
        <ele>79.9</ele>
        <time>2022-08-11T10:47:19Z</time>
      </trkpt>
      <trkpt lat="44.48334" lon="1.04979">
        <ele>80.2</ele>
        <time>2022-08-11T10:47:21Z</time>
      </trkpt>
      <trkpt lat="44.48325" lon="1.04977">
        <ele>80</ele>
        <time>2022-08-11T10:47:23Z</time>
      </trkpt>
      <trkpt lat="44.48316" lon="1.04977">
        <ele>79.8</ele>
        <time>2022-08-11T10:47:25Z</time>
      </trkpt>
      <trkpt lat="44.48308" lon="1.04975">
        <ele>79.6</ele>
        <time>2022-08-11T10:47:27Z</time>
      </trkpt>
      <trkpt lat="44.483" lon="1.04973">
        <ele>79.4</ele>
        <time>2022-08-11T10:47:29Z</time>
      </trkpt>
      <trkpt lat="44.48291" lon="1.04972">
        <ele>79.2</ele>
        <time>2022-08-11T10:47:31Z</time>
      </trkpt>
      <trkpt lat="44.48282" lon="1.0497">
        <ele>79</ele>
        <time>2022-08-11T10:47:33Z</time>
      </trkpt>
      <trkpt lat="44.48274" lon="1.04967">
        <ele>78.8</ele>
        <time>2022-08-11T10:47:35Z</time>
      </trkpt>
      <trkpt lat="44.48266" lon="1.04965">
        <ele>78.7</ele>
        <time>2022-08-11T10:47:37Z</time>
      </trkpt>
      <trkpt lat="44.48259" lon="1.04963">
        <ele>78.6</ele>
        <time>2022-08-11T10:47:39Z</time>
      </trkpt>
      <trkpt lat="44.4825" lon="1.0496">
        <ele>78.5</ele>
        <time>2022-08-11T10:47:41Z</time>
      </trkpt>
      <trkpt lat="44.48242" lon="1.04956">
        <ele>78.3</ele>
        <time>2022-08-11T10:47:43Z</time>
      </trkpt>
      <trkpt lat="44.48235" lon="1.04954">
        <ele>78.1</ele>
        <time>2022-08-11T10:47:45Z</time>
      </trkpt>
      <trkpt lat="44.48227" lon="1.04951">
        <ele>77.9</ele>
        <time>2022-08-11T10:47:47Z</time>
      </trkpt>
      <trkpt lat="44.4822" lon="1.04946">
        <ele>77.8</ele>
        <time>2022-08-11T10:47:49Z</time>
      </trkpt>
      <trkpt lat="44.48212" lon="1.04941">
        <ele>77.7</ele>
        <time>2022-08-11T10:47:51Z</time>
      </trkpt>
      <trkpt lat="44.48204" lon="1.04936">
        <ele>77.6</ele>
        <time>2022-08-11T10:47:53Z</time>
      </trkpt>
      <trkpt lat="44.48197" lon="1.0493">
        <ele>77.6</ele>
        <time>2022-08-11T10:47:55Z</time>
      </trkpt>
      <trkpt lat="44.4819" lon="1.04924">
        <ele>77.6</ele>
        <time>2022-08-11T10:47:57Z</time>
      </trkpt>
      <trkpt lat="44.48184" lon="1.04917">
        <ele>77.6</ele>
        <time>2022-08-11T10:47:59Z</time>
      </trkpt>
      <trkpt lat="44.48179" lon="1.04909">
        <ele>77.5</ele>
        <time>2022-08-11T10:48:01Z</time>
      </trkpt>
      <trkpt lat="44.48173" lon="1.04901">
        <ele>77.4</ele>
        <time>2022-08-11T10:48:03Z</time>
      </trkpt>
      <trkpt lat="44.48167" lon="1.04892">
        <ele>77.3</ele>
        <time>2022-08-11T10:48:05Z</time>
      </trkpt>
      <trkpt lat="44.48162" lon="1.04883">
        <ele>77.3</ele>
        <time>2022-08-11T10:48:07Z</time>
      </trkpt>
      <trkpt lat="44.48158" lon="1.04875">
        <ele>77.4</ele>
        <time>2022-08-11T10:48:09Z</time>
      </trkpt>
      <trkpt lat="44.48152" lon="1.04864">
        <ele>77.5</ele>
        <time>2022-08-11T10:48:11Z</time>
      </trkpt>
      <trkpt lat="44.48147" lon="1.04854">
        <ele>77.6</ele>
        <time>2022-08-11T10:48:13Z</time>
      </trkpt>
      <trkpt lat="44.48142" lon="1.04845">
        <ele>77.8</ele>
        <time>2022-08-11T10:48:15Z</time>
      </trkpt>
      <trkpt lat="44.48136" lon="1.04835">
        <ele>78</ele>
        <time>2022-08-11T10:48:17Z</time>
      </trkpt>
      <trkpt lat="44.48133" lon="1.04825">
        <ele>78.1</ele>
        <time>2022-08-11T10:48:19Z</time>
      </trkpt>
      <trkpt lat="44.48129" lon="1.04814">
        <ele>78.1</ele>
        <time>2022-08-11T10:48:21Z</time>
      </trkpt>
      <trkpt lat="44.48126" lon="1.04804">
        <ele>78.2</ele>
        <time>2022-08-11T10:48:23Z</time>
      </trkpt>
      <trkpt lat="44.48122" lon="1.04794">
        <ele>78.2</ele>
        <time>2022-08-11T10:48:25Z</time>
      </trkpt>
      <trkpt lat="44.48118" lon="1.04783">
        <ele>78.3</ele>
        <time>2022-08-11T10:48:27Z</time>
      </trkpt>
      <trkpt lat="44.48115" lon="1.04773">
        <ele>78.3</ele>
        <time>2022-08-11T10:48:29Z</time>
      </trkpt>
      <trkpt lat="44.48113" lon="1.04761">
        <ele>78.3</ele>
        <time>2022-08-11T10:48:31Z</time>
      </trkpt>
      <trkpt lat="44.4811" lon="1.0475">
        <ele>78.3</ele>
        <time>2022-08-11T10:48:33Z</time>
      </trkpt>
      <trkpt lat="44.48106" lon="1.0474">
        <ele>78.4</ele>
        <time>2022-08-11T10:48:35Z</time>
      </trkpt>
      <trkpt lat="44.48104" lon="1.0473">
        <ele>78.4</ele>
        <time>2022-08-11T10:48:37Z</time>
      </trkpt>
      <trkpt lat="44.48101" lon="1.04719">
        <ele>78.5</ele>
        <time>2022-08-11T10:48:39Z</time>
      </trkpt>
      <trkpt lat="44.48099" lon="1.04709">
        <ele>78.6</ele>
        <time>2022-08-11T10:48:41Z</time>
      </trkpt>
      <trkpt lat="44.48095" lon="1.04699">
        <ele>78.7</ele>
        <time>2022-08-11T10:48:43Z</time>
      </trkpt>
      <trkpt lat="44.48092" lon="1.04687">
        <ele>78.8</ele>
        <time>2022-08-11T10:48:45Z</time>
      </trkpt>
      <trkpt lat="44.4809" lon="1.04676">
        <ele>78.9</ele>
        <time>2022-08-11T10:48:47Z</time>
      </trkpt>
      <trkpt lat="44.48087" lon="1.04666">
        <ele>79</ele>
        <time>2022-08-11T10:48:49Z</time>
      </trkpt>
      <trkpt lat="44.48084" lon="1.04656">
        <ele>79</ele>
        <time>2022-08-11T10:48:51Z</time>
      </trkpt>
      <trkpt lat="44.48081" lon="1.04646">
        <ele>78.9</ele>
        <time>2022-08-11T10:48:53Z</time>
      </trkpt>
      <trkpt lat="44.48078" lon="1.04635">
        <ele>78.8</ele>
        <time>2022-08-11T10:48:55Z</time>
      </trkpt>
      <trkpt lat="44.48075" lon="1.04625">
        <ele>78.7</ele>
        <time>2022-08-11T10:48:57Z</time>
      </trkpt>
      <trkpt lat="44.48073" lon="1.04615">
        <ele>78.6</ele>
        <time>2022-08-11T10:48:59Z</time>
      </trkpt>
      <trkpt lat="44.4807" lon="1.04606">
        <ele>78.5</ele>
        <time>2022-08-11T10:49:01Z</time>
      </trkpt>
      <trkpt lat="44.48068" lon="1.04596">
        <ele>78.5</ele>
        <time>2022-08-11T10:49:03Z</time>
      </trkpt>
      <trkpt lat="44.48066" lon="1.04585">
        <ele>78.4</ele>
        <time>2022-08-11T10:49:05Z</time>
      </trkpt>
      <trkpt lat="44.48063" lon="1.04575">
        <ele>78.3</ele>
        <time>2022-08-11T10:49:07Z</time>
      </trkpt>
      <trkpt lat="44.48061" lon="1.04564">
        <ele>78.3</ele>
        <time>2022-08-11T10:49:09Z</time>
      </trkpt>
      <trkpt lat="44.4806" lon="1.04554">
        <ele>78.3</ele>
        <time>2022-08-11T10:49:11Z</time>
      </trkpt>
      <trkpt lat="44.48059" lon="1.04543">
        <ele>78.4</ele>
        <time>2022-08-11T10:49:13Z</time>
      </trkpt>
      <trkpt lat="44.48058" lon="1.04532">
        <ele>78.5</ele>
        <time>2022-08-11T10:49:15Z</time>
      </trkpt>
      <trkpt lat="44.48058" lon="1.04522">
        <ele>78.5</ele>
        <time>2022-08-11T10:49:17Z</time>
      </trkpt>
      <trkpt lat="44.48058" lon="1.04511">
        <ele>78.6</ele>
        <time>2022-08-11T10:49:19Z</time>
      </trkpt>
      <trkpt lat="44.48057" lon="1.04501">
        <ele>78.7</ele>
        <time>2022-08-11T10:49:21Z</time>
      </trkpt>
      <trkpt lat="44.48057" lon="1.04491">
        <ele>78.9</ele>
        <time>2022-08-11T10:49:23Z</time>
      </trkpt>
      <trkpt lat="44.48057" lon="1.04481">
        <ele>79.2</ele>
        <time>2022-08-11T10:49:25Z</time>
      </trkpt>
      <trkpt lat="44.48056" lon="1.04471">
        <ele>79.5</ele>
        <time>2022-08-11T10:49:27Z</time>
      </trkpt>
      <trkpt lat="44.48056" lon="1.04461">
        <ele>79.8</ele>
        <time>2022-08-11T10:49:29Z</time>
      </trkpt>
      <trkpt lat="44.48056" lon="1.04451">
        <ele>80.1</ele>
        <time>2022-08-11T10:49:31Z</time>
      </trkpt>
      <trkpt lat="44.48056" lon="1.04441">
        <ele>80.3</ele>
        <time>2022-08-11T10:49:33Z</time>
      </trkpt>
      <trkpt lat="44.48055" lon="1.04432">
        <ele>80.6</ele>
        <time>2022-08-11T10:49:35Z</time>
      </trkpt>
      <trkpt lat="44.48055" lon="1.04423">
        <ele>80.8</ele>
        <time>2022-08-11T10:49:37Z</time>
      </trkpt>
      <trkpt lat="44.48055" lon="1.04415">
        <ele>81</ele>
        <time>2022-08-11T10:49:39Z</time>
      </trkpt>
      <trkpt lat="44.48055" lon="1.04407">
        <ele>81.2</ele>
        <time>2022-08-11T10:49:41Z</time>
      </trkpt>
      <trkpt lat="44.48055" lon="1.044">
        <ele>81.3</ele>
        <time>2022-08-11T10:49:43Z</time>
      </trkpt>
      <trkpt lat="44.48055" lon="1.04393">
        <ele>81.5</ele>
        <time>2022-08-11T10:49:45Z</time>
      </trkpt>
      <trkpt lat="44.48054" lon="1.04386">
        <ele>81.6</ele>
        <time>2022-08-11T10:49:47Z</time>
      </trkpt>
      <trkpt lat="44.48054" lon="1.04378">
        <ele>81.7</ele>
        <time>2022-08-11T10:49:49Z</time>
      </trkpt>
      <trkpt lat="44.48053" lon="1.04371">
        <ele>81.9</ele>
        <time>2022-08-11T10:49:51Z</time>
      </trkpt>
      <trkpt lat="44.48052" lon="1.04363">
        <ele>82</ele>
        <time>2022-08-11T10:49:53Z</time>
      </trkpt>
      <trkpt lat="44.4805" lon="1.04357">
        <ele>82.1</ele>
        <time>2022-08-11T10:49:55Z</time>
      </trkpt>
      <trkpt lat="44.48046" lon="1.04352">
        <ele>82.1</ele>
        <time>2022-08-11T10:49:57Z</time>
      </trkpt>
      <trkpt lat="44.48041" lon="1.04348">
        <ele>82.1</ele>
        <time>2022-08-11T10:49:59Z</time>
      </trkpt>
      <trkpt lat="44.48037" lon="1.04345">
        <ele>82.2</ele>
        <time>2022-08-11T10:50:01Z</time>
      </trkpt>
      <trkpt lat="44.48032" lon="1.04343">
        <ele>82.1</ele>
        <time>2022-08-11T10:50:03Z</time>
      </trkpt>
      <trkpt lat="44.48025" lon="1.04341">
        <ele>82.1</ele>
        <time>2022-08-11T10:50:05Z</time>
      </trkpt>
      <trkpt lat="44.48019" lon="1.04338">
        <ele>82.1</ele>
        <time>2022-08-11T10:50:07Z</time>
      </trkpt>
      <trkpt lat="44.48012" lon="1.04334">
        <ele>82.1</ele>
        <time>2022-08-11T10:50:09Z</time>
      </trkpt>
      <trkpt lat="44.48007" lon="1.04329">
        <ele>82.2</ele>
        <time>2022-08-11T10:50:11Z</time>
      </trkpt>
      <trkpt lat="44.48" lon="1.04324">
        <ele>82.2</ele>
        <time>2022-08-11T10:50:13Z</time>
      </trkpt>
      <trkpt lat="44.47994" lon="1.04318">
        <ele>82.1</ele>
        <time>2022-08-11T10:50:15Z</time>
      </trkpt>
      <trkpt lat="44.47987" lon="1.04312">
        <ele>81.9</ele>
        <time>2022-08-11T10:50:17Z</time>
      </trkpt>
      <trkpt lat="44.47981" lon="1.04305">
        <ele>81.9</ele>
        <time>2022-08-11T10:50:19Z</time>
      </trkpt>
      <trkpt lat="44.47977" lon="1.04299">
        <ele>81.8</ele>
        <time>2022-08-11T10:50:21Z</time>
      </trkpt>
      <trkpt lat="44.47971" lon="1.04291">
        <ele>81.8</ele>
        <time>2022-08-11T10:50:23Z</time>
      </trkpt>
      <trkpt lat="44.47968" lon="1.04281">
        <ele>82</ele>
        <time>2022-08-11T10:50:25Z</time>
      </trkpt>
      <trkpt lat="44.47966" lon="1.0427">
        <ele>82.2</ele>
        <time>2022-08-11T10:50:27Z</time>
      </trkpt>
      <trkpt lat="44.47963" lon="1.0426">
        <ele>82.4</ele>
        <time>2022-08-11T10:50:29Z</time>
      </trkpt>
      <trkpt lat="44.47961" lon="1.0425">
        <ele>82.6</ele>
        <time>2022-08-11T10:50:31Z</time>
      </trkpt>
      <trkpt lat="44.47959" lon="1.04239">
        <ele>82.5</ele>
        <time>2022-08-11T10:50:33Z</time>
      </trkpt>
      <trkpt lat="44.47957" lon="1.04229">
        <ele>82.5</ele>
        <time>2022-08-11T10:50:35Z</time>
      </trkpt>
      <trkpt lat="44.47956" lon="1.04218">
        <ele>82.4</ele>
        <time>2022-08-11T10:50:37Z</time>
      </trkpt>
      <trkpt lat="44.47953" lon="1.04207">
        <ele>82.3</ele>
        <time>2022-08-11T10:50:39Z</time>
      </trkpt>
      <trkpt lat="44.47951" lon="1.04194">
        <ele>82.2</ele>
        <time>2022-08-11T10:50:41Z</time>
      </trkpt>
      <trkpt lat="44.47949" lon="1.04182">
        <ele>82.2</ele>
        <time>2022-08-11T10:50:43Z</time>
      </trkpt>
      <trkpt lat="44.47946" lon="1.0417">
        <ele>82.1</ele>
        <time>2022-08-11T10:50:45Z</time>
      </trkpt>
      <trkpt lat="44.47944" lon="1.04157">
        <ele>82.1</ele>
        <time>2022-08-11T10:50:47Z</time>
      </trkpt>
      <trkpt lat="44.4794" lon="1.04144">
        <ele>82.2</ele>
        <time>2022-08-11T10:50:49Z</time>
      </trkpt>
      <trkpt lat="44.47937" lon="1.04131">
        <ele>82.3</ele>
        <time>2022-08-11T10:50:51Z</time>
      </trkpt>
      <trkpt lat="44.47933" lon="1.04118">
        <ele>82.4</ele>
        <time>2022-08-11T10:50:53Z</time>
      </trkpt>
      <trkpt lat="44.4793" lon="1.04106">
        <ele>82.6</ele>
        <time>2022-08-11T10:50:55Z</time>
      </trkpt>
      <trkpt lat="44.47926" lon="1.04093">
        <ele>82.8</ele>
        <time>2022-08-11T10:50:57Z</time>
      </trkpt>
      <trkpt lat="44.47922" lon="1.0408">
        <ele>83</ele>
        <time>2022-08-11T10:50:59Z</time>
      </trkpt>
      <trkpt lat="44.47917" lon="1.04067">
        <ele>83</ele>
        <time>2022-08-11T10:51:01Z</time>
      </trkpt>
      <trkpt lat="44.47914" lon="1.04054">
        <ele>82.8</ele>
        <time>2022-08-11T10:51:03Z</time>
      </trkpt>
      <trkpt lat="44.4791" lon="1.04042">
        <ele>82.7</ele>
        <time>2022-08-11T10:51:05Z</time>
      </trkpt>
      <trkpt lat="44.47907" lon="1.0403">
        <ele>82.5</ele>
        <time>2022-08-11T10:51:07Z</time>
      </trkpt>
      <trkpt lat="44.47905" lon="1.04018">
        <ele>82.4</ele>
        <time>2022-08-11T10:51:09Z</time>
      </trkpt>
      <trkpt lat="44.47903" lon="1.04007">
        <ele>82.3</ele>
        <time>2022-08-11T10:51:11Z</time>
      </trkpt>
      <trkpt lat="44.47901" lon="1.03996">
        <ele>82.3</ele>
        <time>2022-08-11T10:51:13Z</time>
      </trkpt>
      <trkpt lat="44.47899" lon="1.03985">
        <ele>82.2</ele>
        <time>2022-08-11T10:51:15Z</time>
      </trkpt>
      <trkpt lat="44.47897" lon="1.03975">
        <ele>82.2</ele>
        <time>2022-08-11T10:51:17Z</time>
      </trkpt>
      <trkpt lat="44.47894" lon="1.03964">
        <ele>82.1</ele>
        <time>2022-08-11T10:51:19Z</time>
      </trkpt>
      <trkpt lat="44.47893" lon="1.03955">
        <ele>82.2</ele>
        <time>2022-08-11T10:51:21Z</time>
      </trkpt>
      <trkpt lat="44.47891" lon="1.03946">
        <ele>82.2</ele>
        <time>2022-08-11T10:51:23Z</time>
      </trkpt>
      <trkpt lat="44.4789" lon="1.03936">
        <ele>82.2</ele>
        <time>2022-08-11T10:51:25Z</time>
      </trkpt>
      <trkpt lat="44.47887" lon="1.03926">
        <ele>82.2</ele>
        <time>2022-08-11T10:51:27Z</time>
      </trkpt>
      <trkpt lat="44.47885" lon="1.03917">
        <ele>82.2</ele>
        <time>2022-08-11T10:51:29Z</time>
      </trkpt>
      <trkpt lat="44.47883" lon="1.03906">
        <ele>82.2</ele>
        <time>2022-08-11T10:51:31Z</time>
      </trkpt>
      <trkpt lat="44.4788" lon="1.03895">
        <ele>82.2</ele>
        <time>2022-08-11T10:51:33Z</time>
      </trkpt>
      <trkpt lat="44.47877" lon="1.03883">
        <ele>82.2</ele>
        <time>2022-08-11T10:51:35Z</time>
      </trkpt>
      <trkpt lat="44.47874" lon="1.03872">
        <ele>82.3</ele>
        <time>2022-08-11T10:51:37Z</time>
      </trkpt>
      <trkpt lat="44.47871" lon="1.03861">
        <ele>82.3</ele>
        <time>2022-08-11T10:51:39Z</time>
      </trkpt>
      <trkpt lat="44.47868" lon="1.0385">
        <ele>82.3</ele>
        <time>2022-08-11T10:51:41Z</time>
      </trkpt>
      <trkpt lat="44.47863" lon="1.03839">
        <ele>82.3</ele>
        <time>2022-08-11T10:51:43Z</time>
      </trkpt>
      <trkpt lat="44.47859" lon="1.03827">
        <ele>82.3</ele>
        <time>2022-08-11T10:51:45Z</time>
      </trkpt>
      <trkpt lat="44.47854" lon="1.03817">
        <ele>82.2</ele>
        <time>2022-08-11T10:51:47Z</time>
      </trkpt>
      <trkpt lat="44.47849" lon="1.03806">
        <ele>82.1</ele>
        <time>2022-08-11T10:51:49Z</time>
      </trkpt>
      <trkpt lat="44.47843" lon="1.03795">
        <ele>82.1</ele>
        <time>2022-08-11T10:51:51Z</time>
      </trkpt>
      <trkpt lat="44.47839" lon="1.03785">
        <ele>82</ele>
        <time>2022-08-11T10:51:53Z</time>
      </trkpt>
      <trkpt lat="44.47833" lon="1.03774">
        <ele>82</ele>
        <time>2022-08-11T10:51:55Z</time>
      </trkpt>
      <trkpt lat="44.47828" lon="1.03765">
        <ele>81.7</ele>
        <time>2022-08-11T10:51:57Z</time>
      </trkpt>
      <trkpt lat="44.47822" lon="1.03758">
        <ele>81.3</ele>
        <time>2022-08-11T10:51:59Z</time>
      </trkpt>
      <trkpt lat="44.47813" lon="1.03753">
        <ele>80.8</ele>
        <time>2022-08-11T10:52:01Z</time>
      </trkpt>
      <trkpt lat="44.47803" lon="1.03751">
        <ele>80.2</ele>
        <time>2022-08-11T10:52:03Z</time>
      </trkpt>
      <trkpt lat="44.47791" lon="1.03751">
        <ele>79.5</ele>
        <time>2022-08-11T10:52:05Z</time>
      </trkpt>
      <trkpt lat="44.47779" lon="1.03745">
        <ele>78.8</ele>
        <time>2022-08-11T10:52:07Z</time>
      </trkpt>
      <trkpt lat="44.4777" lon="1.03732">
        <ele>78.3</ele>
        <time>2022-08-11T10:52:09Z</time>
      </trkpt>
      <trkpt lat="44.47765" lon="1.03714">
        <ele>78.3</ele>
        <time>2022-08-11T10:52:11Z</time>
      </trkpt>
      <trkpt lat="44.47764" lon="1.03696">
        <ele>78.4</ele>
        <time>2022-08-11T10:52:13Z</time>
      </trkpt>
      <trkpt lat="44.47762" lon="1.03678">
        <ele>78.4</ele>
        <time>2022-08-11T10:52:15Z</time>
      </trkpt>
      <trkpt lat="44.47759" lon="1.03661">
        <ele>78.5</ele>
        <time>2022-08-11T10:52:17Z</time>
      </trkpt>
      <trkpt lat="44.47757" lon="1.03644">
        <ele>78.6</ele>
        <time>2022-08-11T10:52:19Z</time>
      </trkpt>
      <trkpt lat="44.47754" lon="1.03629">
        <ele>78.6</ele>
        <time>2022-08-11T10:52:21Z</time>
      </trkpt>
      <trkpt lat="44.47751" lon="1.03613">
        <ele>78.7</ele>
        <time>2022-08-11T10:52:23Z</time>
      </trkpt>
      <trkpt lat="44.47748" lon="1.03599">
        <ele>78.7</ele>
        <time>2022-08-11T10:52:25Z</time>
      </trkpt>
      <trkpt lat="44.47746" lon="1.03585">
        <ele>78.8</ele>
        <time>2022-08-11T10:52:27Z</time>
      </trkpt>
      <trkpt lat="44.47744" lon="1.03571">
        <ele>79</ele>
        <time>2022-08-11T10:52:29Z</time>
      </trkpt>
      <trkpt lat="44.47742" lon="1.03558">
        <ele>79.1</ele>
        <time>2022-08-11T10:52:31Z</time>
      </trkpt>
      <trkpt lat="44.4774" lon="1.03546">
        <ele>79.3</ele>
        <time>2022-08-11T10:52:33Z</time>
      </trkpt>
      <trkpt lat="44.47738" lon="1.03532">
        <ele>79.4</ele>
        <time>2022-08-11T10:52:35Z</time>
      </trkpt>
      <trkpt lat="44.47736" lon="1.0352">
        <ele>79.5</ele>
        <time>2022-08-11T10:52:37Z</time>
      </trkpt>
      <trkpt lat="44.47734" lon="1.03507">
        <ele>79.6</ele>
        <time>2022-08-11T10:52:39Z</time>
      </trkpt>
      <trkpt lat="44.47733" lon="1.03494">
        <ele>79.6</ele>
        <time>2022-08-11T10:52:41Z</time>
      </trkpt>
      <trkpt lat="44.47732" lon="1.03481">
        <ele>79.5</ele>
        <time>2022-08-11T10:52:43Z</time>
      </trkpt>
      <trkpt lat="44.47731" lon="1.03468">
        <ele>79.4</ele>
        <time>2022-08-11T10:52:45Z</time>
      </trkpt>
      <trkpt lat="44.4773" lon="1.03455">
        <ele>79.3</ele>
        <time>2022-08-11T10:52:47Z</time>
      </trkpt>
      <trkpt lat="44.4773" lon="1.03443">
        <ele>79.3</ele>
        <time>2022-08-11T10:52:49Z</time>
      </trkpt>
      <trkpt lat="44.47731" lon="1.0343">
        <ele>79.4</ele>
        <time>2022-08-11T10:52:51Z</time>
      </trkpt>
      <trkpt lat="44.47736" lon="1.03419">
        <ele>79.8</ele>
        <time>2022-08-11T10:52:53Z</time>
      </trkpt>
      <trkpt lat="44.47743" lon="1.03409">
        <ele>80.3</ele>
        <time>2022-08-11T10:52:55Z</time>
      </trkpt>
      <trkpt lat="44.47751" lon="1.03401">
        <ele>80.8</ele>
        <time>2022-08-11T10:52:57Z</time>
      </trkpt>
      <trkpt lat="44.47758" lon="1.03393">
        <ele>80.8</ele>
        <time>2022-08-11T10:52:59Z</time>
      </trkpt>
      <trkpt lat="44.47764" lon="1.03382">
        <ele>80.8</ele>
        <time>2022-08-11T10:53:01Z</time>
      </trkpt>
      <trkpt lat="44.47767" lon="1.0337">
        <ele>80.6</ele>
        <time>2022-08-11T10:53:03Z</time>
      </trkpt>
      <trkpt lat="44.47769" lon="1.03357">
        <ele>80.5</ele>
        <time>2022-08-11T10:53:05Z</time>
      </trkpt>
      <trkpt lat="44.47769" lon="1.03345">
        <ele>80.4</ele>
        <time>2022-08-11T10:53:07Z</time>
      </trkpt>
      <trkpt lat="44.47768" lon="1.03332">
        <ele>80.2</ele>
        <time>2022-08-11T10:53:09Z</time>
      </trkpt>
      <trkpt lat="44.47769" lon="1.03319">
        <ele>80.1</ele>
        <time>2022-08-11T10:53:11Z</time>
      </trkpt>
      <trkpt lat="44.47769" lon="1.03305">
        <ele>80</ele>
        <time>2022-08-11T10:53:13Z</time>
      </trkpt>
      <trkpt lat="44.47769" lon="1.03291">
        <ele>79.8</ele>
        <time>2022-08-11T10:53:15Z</time>
      </trkpt>
      <trkpt lat="44.47768" lon="1.03277">
        <ele>79.7</ele>
        <time>2022-08-11T10:53:17Z</time>
      </trkpt>
      <trkpt lat="44.47768" lon="1.03263">
        <ele>79.6</ele>
        <time>2022-08-11T10:53:19Z</time>
      </trkpt>
      <trkpt lat="44.47769" lon="1.03249">
        <ele>79.5</ele>
        <time>2022-08-11T10:53:21Z</time>
      </trkpt>
      <trkpt lat="44.4777" lon="1.03236">
        <ele>79.5</ele>
        <time>2022-08-11T10:53:23Z</time>
      </trkpt>
      <trkpt lat="44.47771" lon="1.03222">
        <ele>79.5</ele>
        <time>2022-08-11T10:53:25Z</time>
      </trkpt>
      <trkpt lat="44.47772" lon="1.03208">
        <ele>79.5</ele>
        <time>2022-08-11T10:53:27Z</time>
      </trkpt>
      <trkpt lat="44.47772" lon="1.03194">
        <ele>79.5</ele>
        <time>2022-08-11T10:53:29Z</time>
      </trkpt>
      <trkpt lat="44.47774" lon="1.0318">
        <ele>79.6</ele>
        <time>2022-08-11T10:53:31Z</time>
      </trkpt>
      <trkpt lat="44.47775" lon="1.03165">
        <ele>79.6</ele>
        <time>2022-08-11T10:53:33Z</time>
      </trkpt>
      <trkpt lat="44.47777" lon="1.03151">
        <ele>79.5</ele>
        <time>2022-08-11T10:53:35Z</time>
      </trkpt>
      <trkpt lat="44.47779" lon="1.03137">
        <ele>79.5</ele>
        <time>2022-08-11T10:53:37Z</time>
      </trkpt>
      <trkpt lat="44.47781" lon="1.03123">
        <ele>79.4</ele>
        <time>2022-08-11T10:53:39Z</time>
      </trkpt>
      <trkpt lat="44.47784" lon="1.03109">
        <ele>79.4</ele>
        <time>2022-08-11T10:53:41Z</time>
      </trkpt>
      <trkpt lat="44.47786" lon="1.03094">
        <ele>79.4</ele>
        <time>2022-08-11T10:53:43Z</time>
      </trkpt>
      <trkpt lat="44.47789" lon="1.0308">
        <ele>79.4</ele>
        <time>2022-08-11T10:53:45Z</time>
      </trkpt>
      <trkpt lat="44.47791" lon="1.03065">
        <ele>79.4</ele>
        <time>2022-08-11T10:53:47Z</time>
      </trkpt>
      <trkpt lat="44.47795" lon="1.03051">
        <ele>79.4</ele>
        <time>2022-08-11T10:53:49Z</time>
      </trkpt>
      <trkpt lat="44.47797" lon="1.03038">
        <ele>79.4</ele>
        <time>2022-08-11T10:53:51Z</time>
      </trkpt>
      <trkpt lat="44.478" lon="1.03023">
        <ele>79.4</ele>
        <time>2022-08-11T10:53:53Z</time>
      </trkpt>
      <trkpt lat="44.47803" lon="1.03009">
        <ele>79.3</ele>
        <time>2022-08-11T10:53:55Z</time>
      </trkpt>
      <trkpt lat="44.47806" lon="1.02995">
        <ele>79.3</ele>
        <time>2022-08-11T10:53:57Z</time>
      </trkpt>
      <trkpt lat="44.47808" lon="1.0298">
        <ele>79.2</ele>
        <time>2022-08-11T10:53:59Z</time>
      </trkpt>
      <trkpt lat="44.47811" lon="1.02966">
        <ele>79.1</ele>
        <time>2022-08-11T10:54:01Z</time>
      </trkpt>
      <trkpt lat="44.47813" lon="1.02953">
        <ele>78.9</ele>
        <time>2022-08-11T10:54:03Z</time>
      </trkpt>
      <trkpt lat="44.47814" lon="1.02938">
        <ele>78.8</ele>
        <time>2022-08-11T10:54:05Z</time>
      </trkpt>
      <trkpt lat="44.47817" lon="1.02924">
        <ele>78.7</ele>
        <time>2022-08-11T10:54:07Z</time>
      </trkpt>
      <trkpt lat="44.47819" lon="1.0291">
        <ele>78.7</ele>
        <time>2022-08-11T10:54:09Z</time>
      </trkpt>
      <trkpt lat="44.47822" lon="1.02897">
        <ele>78.9</ele>
        <time>2022-08-11T10:54:11Z</time>
      </trkpt>
      <trkpt lat="44.47824" lon="1.02884">
        <ele>79</ele>
        <time>2022-08-11T10:54:13Z</time>
      </trkpt>
      <trkpt lat="44.47826" lon="1.02871">
        <ele>79.2</ele>
        <time>2022-08-11T10:54:15Z</time>
      </trkpt>
      <trkpt lat="44.47827" lon="1.02858">
        <ele>79.4</ele>
        <time>2022-08-11T10:54:17Z</time>
      </trkpt>
      <trkpt lat="44.47829" lon="1.02845">
        <ele>79.6</ele>
        <time>2022-08-11T10:54:19Z</time>
      </trkpt>
      <trkpt lat="44.47832" lon="1.02832">
        <ele>79.9</ele>
        <time>2022-08-11T10:54:21Z</time>
      </trkpt>
      <trkpt lat="44.47835" lon="1.0282">
        <ele>79.7</ele>
        <time>2022-08-11T10:54:23Z</time>
      </trkpt>
      <trkpt lat="44.47836" lon="1.02808">
        <ele>79.4</ele>
        <time>2022-08-11T10:54:25Z</time>
      </trkpt>
      <trkpt lat="44.47838" lon="1.02796">
        <ele>79.2</ele>
        <time>2022-08-11T10:54:27Z</time>
      </trkpt>
      <trkpt lat="44.4784" lon="1.02783">
        <ele>79</ele>
        <time>2022-08-11T10:54:29Z</time>
      </trkpt>
      <trkpt lat="44.47844" lon="1.0277">
        <ele>78.8</ele>
        <time>2022-08-11T10:54:31Z</time>
      </trkpt>
      <trkpt lat="44.47846" lon="1.02759">
        <ele>78.6</ele>
        <time>2022-08-11T10:54:33Z</time>
      </trkpt>
      <trkpt lat="44.47849" lon="1.02746">
        <ele>78.5</ele>
        <time>2022-08-11T10:54:35Z</time>
      </trkpt>
      <trkpt lat="44.47852" lon="1.02732">
        <ele>78.5</ele>
        <time>2022-08-11T10:54:37Z</time>
      </trkpt>
      <trkpt lat="44.47856" lon="1.02718">
        <ele>78.5</ele>
        <time>2022-08-11T10:54:39Z</time>
      </trkpt>
      <trkpt lat="44.47859" lon="1.02704">
        <ele>78.5</ele>
        <time>2022-08-11T10:54:41Z</time>
      </trkpt>
      <trkpt lat="44.47863" lon="1.02691">
        <ele>78.6</ele>
        <time>2022-08-11T10:54:43Z</time>
      </trkpt>
      <trkpt lat="44.47867" lon="1.02678">
        <ele>78.7</ele>
        <time>2022-08-11T10:54:45Z</time>
      </trkpt>
      <trkpt lat="44.4787" lon="1.02667">
        <ele>78.8</ele>
        <time>2022-08-11T10:54:47Z</time>
      </trkpt>
      <trkpt lat="44.47874" lon="1.02654">
        <ele>78.9</ele>
        <time>2022-08-11T10:54:49Z</time>
      </trkpt>
      <trkpt lat="44.47877" lon="1.02641">
        <ele>79</ele>
        <time>2022-08-11T10:54:51Z</time>
      </trkpt>
      <trkpt lat="44.47881" lon="1.02629">
        <ele>79.2</ele>
        <time>2022-08-11T10:54:53Z</time>
      </trkpt>
      <trkpt lat="44.47886" lon="1.02617">
        <ele>79.4</ele>
        <time>2022-08-11T10:54:55Z</time>
      </trkpt>
      <trkpt lat="44.47889" lon="1.02605">
        <ele>79.7</ele>
        <time>2022-08-11T10:54:57Z</time>
      </trkpt>
      <trkpt lat="44.47894" lon="1.02594">
        <ele>80.1</ele>
        <time>2022-08-11T10:54:59Z</time>
      </trkpt>
      <trkpt lat="44.47897" lon="1.02583">
        <ele>80.4</ele>
        <time>2022-08-11T10:55:01Z</time>
      </trkpt>
      <trkpt lat="44.47903" lon="1.0257">
        <ele>80.7</ele>
        <time>2022-08-11T10:55:03Z</time>
      </trkpt>
      <trkpt lat="44.47907" lon="1.02558">
        <ele>80.9</ele>
        <time>2022-08-11T10:55:05Z</time>
      </trkpt>
      <trkpt lat="44.47911" lon="1.02546">
        <ele>81.1</ele>
        <time>2022-08-11T10:55:07Z</time>
      </trkpt>
      <trkpt lat="44.47914" lon="1.02535">
        <ele>81.2</ele>
        <time>2022-08-11T10:55:09Z</time>
      </trkpt>
      <trkpt lat="44.47918" lon="1.02526">
        <ele>81.4</ele>
        <time>2022-08-11T10:55:11Z</time>
      </trkpt>
      <trkpt lat="44.47922" lon="1.02516">
        <ele>81.4</ele>
        <time>2022-08-11T10:55:13Z</time>
      </trkpt>
      <trkpt lat="44.47927" lon="1.02505">
        <ele>81.5</ele>
        <time>2022-08-11T10:55:15Z</time>
      </trkpt>
      <trkpt lat="44.47932" lon="1.02495">
        <ele>81.6</ele>
        <time>2022-08-11T10:55:17Z</time>
      </trkpt>
      <trkpt lat="44.47935" lon="1.02487">
        <ele>81.6</ele>
        <time>2022-08-11T10:55:19Z</time>
      </trkpt>
      <trkpt lat="44.47939" lon="1.02478">
        <ele>81.7</ele>
        <time>2022-08-11T10:55:21Z</time>
      </trkpt>
      <trkpt lat="44.47943" lon="1.02465">
        <ele>81.7</ele>
        <time>2022-08-11T10:55:23Z</time>
      </trkpt>
      <trkpt lat="44.47946" lon="1.02456">
        <ele>81.7</ele>
        <time>2022-08-11T10:55:25Z</time>
      </trkpt>
      <trkpt lat="44.47948" lon="1.02444">
        <ele>81.7</ele>
        <time>2022-08-11T10:55:27Z</time>
      </trkpt>
      <trkpt lat="44.4795" lon="1.02431">
        <ele>81.6</ele>
        <time>2022-08-11T10:55:29Z</time>
      </trkpt>
      <trkpt lat="44.47952" lon="1.02418">
        <ele>81.6</ele>
        <time>2022-08-11T10:55:31Z</time>
      </trkpt>
      <trkpt lat="44.47955" lon="1.02405">
        <ele>81.5</ele>
        <time>2022-08-11T10:55:33Z</time>
      </trkpt>
      <trkpt lat="44.47958" lon="1.0239">
        <ele>81.4</ele>
        <time>2022-08-11T10:55:35Z</time>
      </trkpt>
      <trkpt lat="44.47961" lon="1.02375">
        <ele>81.2</ele>
        <time>2022-08-11T10:55:37Z</time>
      </trkpt>
      <trkpt lat="44.47964" lon="1.02361">
        <ele>81.1</ele>
        <time>2022-08-11T10:55:39Z</time>
      </trkpt>
      <trkpt lat="44.47967" lon="1.02347">
        <ele>81.1</ele>
        <time>2022-08-11T10:55:41Z</time>
      </trkpt>
      <trkpt lat="44.4797" lon="1.02332">
        <ele>81.1</ele>
        <time>2022-08-11T10:55:43Z</time>
      </trkpt>
      <trkpt lat="44.47972" lon="1.02316">
        <ele>80.9</ele>
        <time>2022-08-11T10:55:45Z</time>
      </trkpt>
      <trkpt lat="44.47976" lon="1.02302">
        <ele>80.8</ele>
        <time>2022-08-11T10:55:47Z</time>
      </trkpt>
      <trkpt lat="44.47979" lon="1.02287">
        <ele>80.6</ele>
        <time>2022-08-11T10:55:49Z</time>
      </trkpt>
      <trkpt lat="44.47983" lon="1.02275">
        <ele>80.6</ele>
        <time>2022-08-11T10:55:51Z</time>
      </trkpt>
      <trkpt lat="44.47986" lon="1.02264">
        <ele>80.4</ele>
        <time>2022-08-11T10:55:53Z</time>
      </trkpt>
      <trkpt lat="44.47988" lon="1.02253">
        <ele>80.3</ele>
        <time>2022-08-11T10:55:55Z</time>
      </trkpt>
      <trkpt lat="44.4799" lon="1.02243">
        <ele>80</ele>
        <time>2022-08-11T10:55:57Z</time>
      </trkpt>
      <trkpt lat="44.47993" lon="1.02231">
        <ele>79.7</ele>
        <time>2022-08-11T10:55:59Z</time>
      </trkpt>
      <trkpt lat="44.47996" lon="1.02223">
        <ele>79.4</ele>
        <time>2022-08-11T10:56:01Z</time>
      </trkpt>
      <trkpt lat="44.47999" lon="1.02213">
        <ele>79.2</ele>
        <time>2022-08-11T10:56:03Z</time>
      </trkpt>
      <trkpt lat="44.48003" lon="1.02203">
        <ele>78.9</ele>
        <time>2022-08-11T10:56:05Z</time>
      </trkpt>
      <trkpt lat="44.48007" lon="1.02194">
        <ele>78.8</ele>
        <time>2022-08-11T10:56:07Z</time>
      </trkpt>
      <trkpt lat="44.4801" lon="1.02185">
        <ele>78.6</ele>
        <time>2022-08-11T10:56:09Z</time>
      </trkpt>
      <trkpt lat="44.48013" lon="1.02174">
        <ele>78.4</ele>
        <time>2022-08-11T10:56:11Z</time>
      </trkpt>
      <trkpt lat="44.48016" lon="1.02164">
        <ele>78.3</ele>
        <time>2022-08-11T10:56:13Z</time>
      </trkpt>
      <trkpt lat="44.4802" lon="1.02153">
        <ele>78.4</ele>
        <time>2022-08-11T10:56:15Z</time>
      </trkpt>
      <trkpt lat="44.48023" lon="1.02141">
        <ele>78.4</ele>
        <time>2022-08-11T10:56:17Z</time>
      </trkpt>
      <trkpt lat="44.48027" lon="1.02128">
        <ele>78.5</ele>
        <time>2022-08-11T10:56:19Z</time>
      </trkpt>
      <trkpt lat="44.48031" lon="1.02116">
        <ele>78.6</ele>
        <time>2022-08-11T10:56:21Z</time>
      </trkpt>
      <trkpt lat="44.48034" lon="1.02103">
        <ele>78.7</ele>
        <time>2022-08-11T10:56:23Z</time>
      </trkpt>
      <trkpt lat="44.48039" lon="1.0209">
        <ele>78.9</ele>
        <time>2022-08-11T10:56:25Z</time>
      </trkpt>
      <trkpt lat="44.48043" lon="1.02076">
        <ele>78.9</ele>
        <time>2022-08-11T10:56:27Z</time>
      </trkpt>
      <trkpt lat="44.48048" lon="1.02064">
        <ele>78.8</ele>
        <time>2022-08-11T10:56:29Z</time>
      </trkpt>
      <trkpt lat="44.48052" lon="1.02051">
        <ele>78.7</ele>
        <time>2022-08-11T10:56:31Z</time>
      </trkpt>
      <trkpt lat="44.48057" lon="1.02037">
        <ele>78.6</ele>
        <time>2022-08-11T10:56:33Z</time>
      </trkpt>
      <trkpt lat="44.48061" lon="1.02025">
        <ele>78.5</ele>
        <time>2022-08-11T10:56:35Z</time>
      </trkpt>
      <trkpt lat="44.48066" lon="1.02011">
        <ele>78.2</ele>
        <time>2022-08-11T10:56:37Z</time>
      </trkpt>
      <trkpt lat="44.48072" lon="1.01997">
        <ele>78.1</ele>
        <time>2022-08-11T10:56:39Z</time>
      </trkpt>
      <trkpt lat="44.48077" lon="1.01983">
        <ele>77.9</ele>
        <time>2022-08-11T10:56:41Z</time>
      </trkpt>
      <trkpt lat="44.48081" lon="1.01968">
        <ele>77.7</ele>
        <time>2022-08-11T10:56:43Z</time>
      </trkpt>
      <trkpt lat="44.48086" lon="1.01954">
        <ele>77.5</ele>
        <time>2022-08-11T10:56:45Z</time>
      </trkpt>
      <trkpt lat="44.48091" lon="1.01939">
        <ele>77.3</ele>
        <time>2022-08-11T10:56:47Z</time>
      </trkpt>
      <trkpt lat="44.48096" lon="1.01925">
        <ele>77.1</ele>
        <time>2022-08-11T10:56:49Z</time>
      </trkpt>
      <trkpt lat="44.48099" lon="1.01913">
        <ele>76.9</ele>
        <time>2022-08-11T10:56:51Z</time>
      </trkpt>
      <trkpt lat="44.48101" lon="1.01896">
        <ele>76.6</ele>
        <time>2022-08-11T10:56:53Z</time>
      </trkpt>
      <trkpt lat="44.48103" lon="1.01881">
        <ele>76.5</ele>
        <time>2022-08-11T10:56:55Z</time>
      </trkpt>
      <trkpt lat="44.48104" lon="1.01865">
        <ele>76.2</ele>
        <time>2022-08-11T10:56:57Z</time>
      </trkpt>
      <trkpt lat="44.48106" lon="1.01849">
        <ele>75.9</ele>
        <time>2022-08-11T10:56:59Z</time>
      </trkpt>
      <trkpt lat="44.48107" lon="1.01834">
        <ele>75.7</ele>
        <time>2022-08-11T10:57:01Z</time>
      </trkpt>
      <trkpt lat="44.48108" lon="1.0182">
        <ele>75.7</ele>
        <time>2022-08-11T10:57:03Z</time>
      </trkpt>
      <trkpt lat="44.48109" lon="1.01805">
        <ele>75.7</ele>
        <time>2022-08-11T10:57:05Z</time>
      </trkpt>
      <trkpt lat="44.48111" lon="1.0179">
        <ele>75.6</ele>
        <time>2022-08-11T10:57:07Z</time>
      </trkpt>
      <trkpt lat="44.48111" lon="1.01774">
        <ele>75.5</ele>
        <time>2022-08-11T10:57:09Z</time>
      </trkpt>
      <trkpt lat="44.48112" lon="1.01759">
        <ele>75.5</ele>
        <time>2022-08-11T10:57:11Z</time>
      </trkpt>
      <trkpt lat="44.48113" lon="1.01744">
        <ele>75.4</ele>
        <time>2022-08-11T10:57:13Z</time>
      </trkpt>
      <trkpt lat="44.48115" lon="1.01729">
        <ele>75.4</ele>
        <time>2022-08-11T10:57:15Z</time>
      </trkpt>
      <trkpt lat="44.48116" lon="1.01713">
        <ele>75.4</ele>
        <time>2022-08-11T10:57:17Z</time>
      </trkpt>
      <trkpt lat="44.48117" lon="1.017">
        <ele>75.4</ele>
        <time>2022-08-11T10:57:19Z</time>
      </trkpt>
      <trkpt lat="44.48118" lon="1.01686">
        <ele>75.4</ele>
        <time>2022-08-11T10:57:21Z</time>
      </trkpt>
      <trkpt lat="44.48119" lon="1.01673">
        <ele>75.3</ele>
        <time>2022-08-11T10:57:23Z</time>
      </trkpt>
      <trkpt lat="44.48121" lon="1.0166">
        <ele>75.3</ele>
        <time>2022-08-11T10:57:25Z</time>
      </trkpt>
      <trkpt lat="44.48122" lon="1.01646">
        <ele>75.1</ele>
        <time>2022-08-11T10:57:27Z</time>
      </trkpt>
      <trkpt lat="44.48123" lon="1.01633">
        <ele>75</ele>
        <time>2022-08-11T10:57:29Z</time>
      </trkpt>
      <trkpt lat="44.48125" lon="1.01621">
        <ele>74.9</ele>
        <time>2022-08-11T10:57:31Z</time>
      </trkpt>
      <trkpt lat="44.48126" lon="1.0161">
        <ele>74.9</ele>
        <time>2022-08-11T10:57:33Z</time>
      </trkpt>
      <trkpt lat="44.48128" lon="1.01602">
        <ele>74.8</ele>
        <time>2022-08-11T10:57:35Z</time>
      </trkpt>
      <trkpt lat="44.48129" lon="1.0159">
        <ele>74.7</ele>
        <time>2022-08-11T10:57:37Z</time>
      </trkpt>
      <trkpt lat="44.48131" lon="1.01581">
        <ele>74.7</ele>
        <time>2022-08-11T10:57:39Z</time>
      </trkpt>
      <trkpt lat="44.48131" lon="1.01573">
        <ele>74.8</ele>
        <time>2022-08-11T10:57:41Z</time>
      </trkpt>
      <trkpt lat="44.48132" lon="1.01565">
        <ele>74.8</ele>
        <time>2022-08-11T10:57:43Z</time>
      </trkpt>
      <trkpt lat="44.48133" lon="1.01556">
        <ele>74.8</ele>
        <time>2022-08-11T10:57:45Z</time>
      </trkpt>
      <trkpt lat="44.48134" lon="1.01548">
        <ele>74.9</ele>
        <time>2022-08-11T10:57:47Z</time>
      </trkpt>
      <trkpt lat="44.4814" lon="1.01545">
        <ele>75.2</ele>
        <time>2022-08-11T10:57:49Z</time>
      </trkpt>
      <trkpt lat="44.48144" lon="1.0154">
        <ele>75.4</ele>
        <time>2022-08-11T10:57:51Z</time>
      </trkpt>
      <trkpt lat="44.48146" lon="1.0154">
        <ele>75.5</ele>
        <time>2022-08-11T10:57:53Z</time>
      </trkpt>
      <trkpt lat="44.48146" lon="1.0154">
        <ele>75.5</ele>
        <time>2022-08-11T10:57:55Z</time>
      </trkpt>
      <trkpt lat="44.48146" lon="1.01539">
        <ele>75.5</ele>
        <time>2022-08-11T10:57:57Z</time>
      </trkpt>
      <trkpt lat="44.48146" lon="1.01538">
        <ele>75.5</ele>
        <time>2022-08-11T10:57:59Z</time>
      </trkpt>
      <trkpt lat="44.48146" lon="1.01538">
        <ele>75.5</ele>
        <time>2022-08-11T10:58:01Z</time>
      </trkpt>
      <trkpt lat="44.48144" lon="1.01511">
        <ele>75.6</ele>
        <time>2022-08-11T11:01:27Z</time>
      </trkpt>
      <trkpt lat="44.48144" lon="1.01505">
        <ele>75.6</ele>
        <time>2022-08-11T11:01:29Z</time>
      </trkpt>
      <trkpt lat="44.48146" lon="1.01499">
        <ele>75.8</ele>
        <time>2022-08-11T11:01:31Z</time>
      </trkpt>
      <trkpt lat="44.48148" lon="1.01493">
        <ele>75.8</ele>
        <time>2022-08-11T11:01:33Z</time>
      </trkpt>
      <trkpt lat="44.48149" lon="1.01486">
        <ele>75.8</ele>
        <time>2022-08-11T11:01:35Z</time>
      </trkpt>
      <trkpt lat="44.4815" lon="1.01479">
        <ele>75.8</ele>
        <time>2022-08-11T11:01:37Z</time>
      </trkpt>
      <trkpt lat="44.48153" lon="1.01472">
        <ele>75.9</ele>
        <time>2022-08-11T11:01:39Z</time>
      </trkpt>
      <trkpt lat="44.48155" lon="1.01464">
        <ele>75.9</ele>
        <time>2022-08-11T11:01:41Z</time>
      </trkpt>
      <trkpt lat="44.48158" lon="1.01456">
        <ele>76</ele>
        <time>2022-08-11T11:01:43Z</time>
      </trkpt>
      <trkpt lat="44.48159" lon="1.01448">
        <ele>76</ele>
        <time>2022-08-11T11:01:45Z</time>
      </trkpt>
      <trkpt lat="44.48161" lon="1.01439">
        <ele>76</ele>
        <time>2022-08-11T11:01:47Z</time>
      </trkpt>
      <trkpt lat="44.48164" lon="1.01431">
        <ele>76</ele>
        <time>2022-08-11T11:01:49Z</time>
      </trkpt>
      <trkpt lat="44.48165" lon="1.01421">
        <ele>76</ele>
        <time>2022-08-11T11:01:51Z</time>
      </trkpt>
      <trkpt lat="44.48167" lon="1.01411">
        <ele>75.9</ele>
        <time>2022-08-11T11:01:53Z</time>
      </trkpt>
      <trkpt lat="44.48169" lon="1.01401">
        <ele>75.9</ele>
        <time>2022-08-11T11:01:55Z</time>
      </trkpt>
      <trkpt lat="44.48172" lon="1.01392">
        <ele>75.8</ele>
        <time>2022-08-11T11:01:57Z</time>
      </trkpt>
      <trkpt lat="44.48174" lon="1.01382">
        <ele>75.8</ele>
        <time>2022-08-11T11:01:59Z</time>
      </trkpt>
      <trkpt lat="44.48176" lon="1.01373">
        <ele>75.7</ele>
        <time>2022-08-11T11:02:01Z</time>
      </trkpt>
      <trkpt lat="44.48179" lon="1.01363">
        <ele>75.6</ele>
        <time>2022-08-11T11:02:03Z</time>
      </trkpt>
      <trkpt lat="44.48181" lon="1.01354">
        <ele>75.6</ele>
        <time>2022-08-11T11:02:05Z</time>
      </trkpt>
      <trkpt lat="44.48183" lon="1.01344">
        <ele>75.5</ele>
        <time>2022-08-11T11:02:07Z</time>
      </trkpt>
      <trkpt lat="44.48185" lon="1.01335">
        <ele>75.5</ele>
        <time>2022-08-11T11:02:09Z</time>
      </trkpt>
      <trkpt lat="44.4819" lon="1.01326">
        <ele>75.4</ele>
        <time>2022-08-11T11:02:11Z</time>
      </trkpt>
      <trkpt lat="44.48194" lon="1.01316">
        <ele>75.4</ele>
        <time>2022-08-11T11:02:13Z</time>
      </trkpt>
      <trkpt lat="44.48197" lon="1.01307">
        <ele>75.3</ele>
        <time>2022-08-11T11:02:15Z</time>
      </trkpt>
      <trkpt lat="44.482" lon="1.01295">
        <ele>75.3</ele>
        <time>2022-08-11T11:02:17Z</time>
      </trkpt>
      <trkpt lat="44.48205" lon="1.01283">
        <ele>75.3</ele>
        <time>2022-08-11T11:02:19Z</time>
      </trkpt>
      <trkpt lat="44.4821" lon="1.0127">
        <ele>75.3</ele>
        <time>2022-08-11T11:02:21Z</time>
      </trkpt>
      <trkpt lat="44.48214" lon="1.01257">
        <ele>75.4</ele>
        <time>2022-08-11T11:02:23Z</time>
      </trkpt>
      <trkpt lat="44.4822" lon="1.01244">
        <ele>75.4</ele>
        <time>2022-08-11T11:02:25Z</time>
      </trkpt>
      <trkpt lat="44.48225" lon="1.0123">
        <ele>75.4</ele>
        <time>2022-08-11T11:02:27Z</time>
      </trkpt>
      <trkpt lat="44.48231" lon="1.01215">
        <ele>75.3</ele>
        <time>2022-08-11T11:02:29Z</time>
      </trkpt>
      <trkpt lat="44.48237" lon="1.01201">
        <ele>75.3</ele>
        <time>2022-08-11T11:02:31Z</time>
      </trkpt>
      <trkpt lat="44.48243" lon="1.01186">
        <ele>75.2</ele>
        <time>2022-08-11T11:02:33Z</time>
      </trkpt>
      <trkpt lat="44.48249" lon="1.01172">
        <ele>75.1</ele>
        <time>2022-08-11T11:02:35Z</time>
      </trkpt>
      <trkpt lat="44.48255" lon="1.01158">
        <ele>74.9</ele>
        <time>2022-08-11T11:02:37Z</time>
      </trkpt>
      <trkpt lat="44.48262" lon="1.01145">
        <ele>74.7</ele>
        <time>2022-08-11T11:02:39Z</time>
      </trkpt>
      <trkpt lat="44.48269" lon="1.01132">
        <ele>74.5</ele>
        <time>2022-08-11T11:02:41Z</time>
      </trkpt>
      <trkpt lat="44.48277" lon="1.01115">
        <ele>74.3</ele>
        <time>2022-08-11T11:02:43Z</time>
      </trkpt>
      <trkpt lat="44.48284" lon="1.01097">
        <ele>74.1</ele>
        <time>2022-08-11T11:02:45Z</time>
      </trkpt>
      <trkpt lat="44.48291" lon="1.01083">
        <ele>74</ele>
        <time>2022-08-11T11:02:47Z</time>
      </trkpt>
      <trkpt lat="44.48291" lon="1.01077">
        <ele>74</ele>
        <time>2022-08-11T11:02:49Z</time>
      </trkpt>
      <trkpt lat="44.48297" lon="1.01069">
        <ele>74</ele>
        <time>2022-08-11T11:02:51Z</time>
      </trkpt>
      <trkpt lat="44.48302" lon="1.01063">
        <ele>74.1</ele>
        <time>2022-08-11T11:02:53Z</time>
      </trkpt>
      <trkpt lat="44.48305" lon="1.01058">
        <ele>74.1</ele>
        <time>2022-08-11T11:02:55Z</time>
      </trkpt>
      <trkpt lat="44.48312" lon="1.01028">
        <ele>74</ele>
        <time>2022-08-11T11:02:57Z</time>
      </trkpt>
      <trkpt lat="44.48317" lon="1.01016">
        <ele>74</ele>
        <time>2022-08-11T11:02:59Z</time>
      </trkpt>
      <trkpt lat="44.48322" lon="1.01005">
        <ele>73.9</ele>
        <time>2022-08-11T11:03:01Z</time>
      </trkpt>
      <trkpt lat="44.48327" lon="1.00994">
        <ele>73.9</ele>
        <time>2022-08-11T11:03:03Z</time>
      </trkpt>
      <trkpt lat="44.48331" lon="1.00985">
        <ele>73.8</ele>
        <time>2022-08-11T11:03:05Z</time>
      </trkpt>
      <trkpt lat="44.48336" lon="1.00974">
        <ele>73.7</ele>
        <time>2022-08-11T11:03:07Z</time>
      </trkpt>
      <trkpt lat="44.4834" lon="1.00963">
        <ele>73.6</ele>
        <time>2022-08-11T11:03:09Z</time>
      </trkpt>
      <trkpt lat="44.48346" lon="1.00953">
        <ele>73.6</ele>
        <time>2022-08-11T11:03:11Z</time>
      </trkpt>
      <trkpt lat="44.48349" lon="1.00943">
        <ele>73.6</ele>
        <time>2022-08-11T11:03:13Z</time>
      </trkpt>
      <trkpt lat="44.48354" lon="1.00934">
        <ele>73.6</ele>
        <time>2022-08-11T11:03:15Z</time>
      </trkpt>
      <trkpt lat="44.48358" lon="1.00925">
        <ele>73.6</ele>
        <time>2022-08-11T11:03:17Z</time>
      </trkpt>
      <trkpt lat="44.48362" lon="1.00915">
        <ele>73.7</ele>
        <time>2022-08-11T11:03:19Z</time>
      </trkpt>
      <trkpt lat="44.48365" lon="1.00907">
        <ele>73.8</ele>
        <time>2022-08-11T11:03:21Z</time>
      </trkpt>
      <trkpt lat="44.4837" lon="1.00898">
        <ele>73.9</ele>
        <time>2022-08-11T11:03:23Z</time>
      </trkpt>
      <trkpt lat="44.48375" lon="1.0089">
        <ele>74</ele>
        <time>2022-08-11T11:03:25Z</time>
      </trkpt>
      <trkpt lat="44.48378" lon="1.0088">
        <ele>74.1</ele>
        <time>2022-08-11T11:03:27Z</time>
      </trkpt>
      <trkpt lat="44.48382" lon="1.00872">
        <ele>74.2</ele>
        <time>2022-08-11T11:03:29Z</time>
      </trkpt>
      <trkpt lat="44.48386" lon="1.00863">
        <ele>74.3</ele>
        <time>2022-08-11T11:03:31Z</time>
      </trkpt>
      <trkpt lat="44.4839" lon="1.00853">
        <ele>74.4</ele>
        <time>2022-08-11T11:03:33Z</time>
      </trkpt>
      <trkpt lat="44.48394" lon="1.00843">
        <ele>74.5</ele>
        <time>2022-08-11T11:03:35Z</time>
      </trkpt>
      <trkpt lat="44.48399" lon="1.00832">
        <ele>74.6</ele>
        <time>2022-08-11T11:03:37Z</time>
      </trkpt>
      <trkpt lat="44.48405" lon="1.00823">
        <ele>74.6</ele>
        <time>2022-08-11T11:03:39Z</time>
      </trkpt>
      <trkpt lat="44.4841" lon="1.00812">
        <ele>74.6</ele>
        <time>2022-08-11T11:03:41Z</time>
      </trkpt>
      <trkpt lat="44.48416" lon="1.00801">
        <ele>74.6</ele>
        <time>2022-08-11T11:03:43Z</time>
      </trkpt>
      <trkpt lat="44.48422" lon="1.0079">
        <ele>74.6</ele>
        <time>2022-08-11T11:03:45Z</time>
      </trkpt>
      <trkpt lat="44.48428" lon="1.0078">
        <ele>74.5</ele>
        <time>2022-08-11T11:03:47Z</time>
      </trkpt>
      <trkpt lat="44.48434" lon="1.00768">
        <ele>74.4</ele>
        <time>2022-08-11T11:03:49Z</time>
      </trkpt>
      <trkpt lat="44.4844" lon="1.00756">
        <ele>74.4</ele>
        <time>2022-08-11T11:03:51Z</time>
      </trkpt>
      <trkpt lat="44.48446" lon="1.00744">
        <ele>74.3</ele>
        <time>2022-08-11T11:03:53Z</time>
      </trkpt>
      <trkpt lat="44.48452" lon="1.00733">
        <ele>74.2</ele>
        <time>2022-08-11T11:03:55Z</time>
      </trkpt>
      <trkpt lat="44.48458" lon="1.00722">
        <ele>74.1</ele>
        <time>2022-08-11T11:03:57Z</time>
      </trkpt>
      <trkpt lat="44.48463" lon="1.0071">
        <ele>74.1</ele>
        <time>2022-08-11T11:03:59Z</time>
      </trkpt>
      <trkpt lat="44.48469" lon="1.007">
        <ele>74</ele>
        <time>2022-08-11T11:04:01Z</time>
      </trkpt>
      <trkpt lat="44.48474" lon="1.00689">
        <ele>74</ele>
        <time>2022-08-11T11:04:03Z</time>
      </trkpt>
      <trkpt lat="44.4848" lon="1.00678">
        <ele>73.9</ele>
        <time>2022-08-11T11:04:05Z</time>
      </trkpt>
      <trkpt lat="44.48486" lon="1.00668">
        <ele>73.9</ele>
        <time>2022-08-11T11:04:07Z</time>
      </trkpt>
      <trkpt lat="44.48492" lon="1.00657">
        <ele>73.9</ele>
        <time>2022-08-11T11:04:09Z</time>
      </trkpt>
      <trkpt lat="44.48498" lon="1.00646">
        <ele>74</ele>
        <time>2022-08-11T11:04:11Z</time>
      </trkpt>
      <trkpt lat="44.48505" lon="1.00636">
        <ele>74.1</ele>
        <time>2022-08-11T11:04:13Z</time>
      </trkpt>
      <trkpt lat="44.48511" lon="1.00625">
        <ele>74.2</ele>
        <time>2022-08-11T11:04:15Z</time>
      </trkpt>
      <trkpt lat="44.48517" lon="1.00615">
        <ele>74.3</ele>
        <time>2022-08-11T11:04:17Z</time>
      </trkpt>
      <trkpt lat="44.48523" lon="1.00606">
        <ele>74.4</ele>
        <time>2022-08-11T11:04:19Z</time>
      </trkpt>
      <trkpt lat="44.48529" lon="1.00596">
        <ele>74.4</ele>
        <time>2022-08-11T11:04:21Z</time>
      </trkpt>
      <trkpt lat="44.48534" lon="1.00587">
        <ele>74.4</ele>
        <time>2022-08-11T11:04:23Z</time>
      </trkpt>
      <trkpt lat="44.48539" lon="1.00579">
        <ele>74.5</ele>
        <time>2022-08-11T11:04:25Z</time>
      </trkpt>
      <trkpt lat="44.48544" lon="1.00573">
        <ele>74.5</ele>
        <time>2022-08-11T11:04:27Z</time>
      </trkpt>
      <trkpt lat="44.48548" lon="1.00566">
        <ele>74.6</ele>
        <time>2022-08-11T11:04:29Z</time>
      </trkpt>
      <trkpt lat="44.48551" lon="1.0056">
        <ele>74.6</ele>
        <time>2022-08-11T11:04:31Z</time>
      </trkpt>
      <trkpt lat="44.48553" lon="1.00552">
        <ele>74.6</ele>
        <time>2022-08-11T11:04:33Z</time>
      </trkpt>
      <trkpt lat="44.48556" lon="1.00544">
        <ele>74.7</ele>
        <time>2022-08-11T11:04:35Z</time>
      </trkpt>
      <trkpt lat="44.48559" lon="1.00536">
        <ele>74.7</ele>
        <time>2022-08-11T11:04:37Z</time>
      </trkpt>
      <trkpt lat="44.48563" lon="1.00528">
        <ele>74.8</ele>
        <time>2022-08-11T11:04:39Z</time>
      </trkpt>
      <trkpt lat="44.48567" lon="1.0052">
        <ele>74.8</ele>
        <time>2022-08-11T11:04:41Z</time>
      </trkpt>
      <trkpt lat="44.48571" lon="1.0051">
        <ele>74.8</ele>
        <time>2022-08-11T11:04:43Z</time>
      </trkpt>
      <trkpt lat="44.48575" lon="1.00501">
        <ele>74.9</ele>
        <time>2022-08-11T11:04:45Z</time>
      </trkpt>
      <trkpt lat="44.48579" lon="1.00492">
        <ele>74.9</ele>
        <time>2022-08-11T11:04:47Z</time>
      </trkpt>
      <trkpt lat="44.48583" lon="1.00482">
        <ele>75</ele>
        <time>2022-08-11T11:04:49Z</time>
      </trkpt>
      <trkpt lat="44.48587" lon="1.00473">
        <ele>75</ele>
        <time>2022-08-11T11:04:51Z</time>
      </trkpt>
      <trkpt lat="44.48591" lon="1.00464">
        <ele>75</ele>
        <time>2022-08-11T11:04:53Z</time>
      </trkpt>
      <trkpt lat="44.48595" lon="1.00454">
        <ele>75</ele>
        <time>2022-08-11T11:04:55Z</time>
      </trkpt>
      <trkpt lat="44.48598" lon="1.00445">
        <ele>74.9</ele>
        <time>2022-08-11T11:04:57Z</time>
      </trkpt>
      <trkpt lat="44.48602" lon="1.00435">
        <ele>74.9</ele>
        <time>2022-08-11T11:04:59Z</time>
      </trkpt>
      <trkpt lat="44.48607" lon="1.00426">
        <ele>74.8</ele>
        <time>2022-08-11T11:05:01Z</time>
      </trkpt>
      <trkpt lat="44.48611" lon="1.00416">
        <ele>74.7</ele>
        <time>2022-08-11T11:05:03Z</time>
      </trkpt>
      <trkpt lat="44.48615" lon="1.00406">
        <ele>74.5</ele>
        <time>2022-08-11T11:05:05Z</time>
      </trkpt>
      <trkpt lat="44.4862" lon="1.00395">
        <ele>74.3</ele>
        <time>2022-08-11T11:05:07Z</time>
      </trkpt>
      <trkpt lat="44.48624" lon="1.00384">
        <ele>74.1</ele>
        <time>2022-08-11T11:05:09Z</time>
      </trkpt>
      <trkpt lat="44.48629" lon="1.00373">
        <ele>74</ele>
        <time>2022-08-11T11:05:11Z</time>
      </trkpt>
      <trkpt lat="44.48634" lon="1.00362">
        <ele>73.9</ele>
        <time>2022-08-11T11:05:13Z</time>
      </trkpt>
      <trkpt lat="44.48639" lon="1.00351">
        <ele>73.8</ele>
        <time>2022-08-11T11:05:15Z</time>
      </trkpt>
      <trkpt lat="44.48644" lon="1.0034">
        <ele>73.8</ele>
        <time>2022-08-11T11:05:17Z</time>
      </trkpt>
      <trkpt lat="44.48649" lon="1.00328">
        <ele>73.8</ele>
        <time>2022-08-11T11:05:19Z</time>
      </trkpt>
      <trkpt lat="44.48654" lon="1.00317">
        <ele>73.8</ele>
        <time>2022-08-11T11:05:21Z</time>
      </trkpt>
      <trkpt lat="44.48659" lon="1.00305">
        <ele>73.9</ele>
        <time>2022-08-11T11:05:23Z</time>
      </trkpt>
      <trkpt lat="44.48664" lon="1.00293">
        <ele>73.9</ele>
        <time>2022-08-11T11:05:25Z</time>
      </trkpt>
      <trkpt lat="44.48669" lon="1.00281">
        <ele>74</ele>
        <time>2022-08-11T11:05:27Z</time>
      </trkpt>
      <trkpt lat="44.48673" lon="1.00269">
        <ele>74.1</ele>
        <time>2022-08-11T11:05:29Z</time>
      </trkpt>
      <trkpt lat="44.48679" lon="1.00257">
        <ele>74.1</ele>
        <time>2022-08-11T11:05:31Z</time>
      </trkpt>
      <trkpt lat="44.48683" lon="1.00246">
        <ele>74.2</ele>
        <time>2022-08-11T11:05:33Z</time>
      </trkpt>
      <trkpt lat="44.48688" lon="1.00234">
        <ele>74.1</ele>
        <time>2022-08-11T11:05:35Z</time>
      </trkpt>
      <trkpt lat="44.48693" lon="1.00222">
        <ele>74</ele>
        <time>2022-08-11T11:05:37Z</time>
      </trkpt>
      <trkpt lat="44.48698" lon="1.00211">
        <ele>73.9</ele>
        <time>2022-08-11T11:05:39Z</time>
      </trkpt>
      <trkpt lat="44.48703" lon="1.00199">
        <ele>73.8</ele>
        <time>2022-08-11T11:05:41Z</time>
      </trkpt>
      <trkpt lat="44.48708" lon="1.00187">
        <ele>73.7</ele>
        <time>2022-08-11T11:05:43Z</time>
      </trkpt>
      <trkpt lat="44.48714" lon="1.00175">
        <ele>73.7</ele>
        <time>2022-08-11T11:05:45Z</time>
      </trkpt>
      <trkpt lat="44.48719" lon="1.00164">
        <ele>73.6</ele>
        <time>2022-08-11T11:05:47Z</time>
      </trkpt>
      <trkpt lat="44.48724" lon="1.00153">
        <ele>73.6</ele>
        <time>2022-08-11T11:05:49Z</time>
      </trkpt>
      <trkpt lat="44.4873" lon="1.00142">
        <ele>73.5</ele>
        <time>2022-08-11T11:05:51Z</time>
      </trkpt>
      <trkpt lat="44.48736" lon="1.0013">
        <ele>73.5</ele>
        <time>2022-08-11T11:05:53Z</time>
      </trkpt>
      <trkpt lat="44.48742" lon="1.0012">
        <ele>73.4</ele>
        <time>2022-08-11T11:05:55Z</time>
      </trkpt>
      <trkpt lat="44.48747" lon="1.0011">
        <ele>73.3</ele>
        <time>2022-08-11T11:05:57Z</time>
      </trkpt>
      <trkpt lat="44.48753" lon="1.00099">
        <ele>73.2</ele>
        <time>2022-08-11T11:05:59Z</time>
      </trkpt>
      <trkpt lat="44.48759" lon="1.00089">
        <ele>73.2</ele>
        <time>2022-08-11T11:06:01Z</time>
      </trkpt>
      <trkpt lat="44.48764" lon="1.00079">
        <ele>73.2</ele>
        <time>2022-08-11T11:06:03Z</time>
      </trkpt>
      <trkpt lat="44.4877" lon="1.00068">
        <ele>73.3</ele>
        <time>2022-08-11T11:06:05Z</time>
      </trkpt>
      <trkpt lat="44.48776" lon="1.00058">
        <ele>73.4</ele>
        <time>2022-08-11T11:06:07Z</time>
      </trkpt>
      <trkpt lat="44.48782" lon="1.00049">
        <ele>73.5</ele>
        <time>2022-08-11T11:06:09Z</time>
      </trkpt>
      <trkpt lat="44.48787" lon="1.00038">
        <ele>73.5</ele>
        <time>2022-08-11T11:06:11Z</time>
      </trkpt>
      <trkpt lat="44.48793" lon="1.00028">
        <ele>73.5</ele>
        <time>2022-08-11T11:06:13Z</time>
      </trkpt>
      <trkpt lat="44.488" lon="1.00018">
        <ele>73.4</ele>
        <time>2022-08-11T11:06:15Z</time>
      </trkpt>
      <trkpt lat="44.48806" lon="1.00008">
        <ele>73.4</ele>
        <time>2022-08-11T11:06:17Z</time>
      </trkpt>
      <trkpt lat="44.48813" lon="0.99997">
        <ele>73.3</ele>
        <time>2022-08-11T11:06:19Z</time>
      </trkpt>
      <trkpt lat="44.48819" lon="0.99987">
        <ele>73.3</ele>
        <time>2022-08-11T11:06:21Z</time>
      </trkpt>
      <trkpt lat="44.48825" lon="0.99977">
        <ele>73.3</ele>
        <time>2022-08-11T11:06:23Z</time>
      </trkpt>
      <trkpt lat="44.48831" lon="0.99968">
        <ele>73.4</ele>
        <time>2022-08-11T11:06:25Z</time>
      </trkpt>
      <trkpt lat="44.48837" lon="0.99959">
        <ele>73.6</ele>
        <time>2022-08-11T11:06:27Z</time>
      </trkpt>
      <trkpt lat="44.48843" lon="0.99949">
        <ele>73.8</ele>
        <time>2022-08-11T11:06:29Z</time>
      </trkpt>
      <trkpt lat="44.48848" lon="0.99939">
        <ele>74</ele>
        <time>2022-08-11T11:06:31Z</time>
      </trkpt>
      <trkpt lat="44.48854" lon="0.9993">
        <ele>74.2</ele>
        <time>2022-08-11T11:06:33Z</time>
      </trkpt>
      <trkpt lat="44.48859" lon="0.9992">
        <ele>74.3</ele>
        <time>2022-08-11T11:06:35Z</time>
      </trkpt>
      <trkpt lat="44.48865" lon="0.99911">
        <ele>74.5</ele>
        <time>2022-08-11T11:06:37Z</time>
      </trkpt>
      <trkpt lat="44.48871" lon="0.99901">
        <ele>74.7</ele>
        <time>2022-08-11T11:06:39Z</time>
      </trkpt>
      <trkpt lat="44.48875" lon="0.99891">
        <ele>74.8</ele>
        <time>2022-08-11T11:06:41Z</time>
      </trkpt>
      <trkpt lat="44.48881" lon="0.9988">
        <ele>75</ele>
        <time>2022-08-11T11:06:43Z</time>
      </trkpt>
      <trkpt lat="44.48886" lon="0.99869">
        <ele>75.1</ele>
        <time>2022-08-11T11:06:45Z</time>
      </trkpt>
      <trkpt lat="44.48888" lon="0.99858">
        <ele>75.1</ele>
        <time>2022-08-11T11:06:47Z</time>
      </trkpt>
      <trkpt lat="44.48893" lon="0.99849">
        <ele>75.2</ele>
        <time>2022-08-11T11:06:49Z</time>
      </trkpt>
      <trkpt lat="44.48896" lon="0.9984">
        <ele>75.2</ele>
        <time>2022-08-11T11:06:51Z</time>
      </trkpt>
      <trkpt lat="44.48899" lon="0.9983">
        <ele>75.2</ele>
        <time>2022-08-11T11:06:53Z</time>
      </trkpt>
      <trkpt lat="44.48902" lon="0.99821">
        <ele>75</ele>
        <time>2022-08-11T11:06:55Z</time>
      </trkpt>
      <trkpt lat="44.48905" lon="0.99812">
        <ele>74.9</ele>
        <time>2022-08-11T11:06:57Z</time>
      </trkpt>
      <trkpt lat="44.48907" lon="0.99802">
        <ele>74.7</ele>
        <time>2022-08-11T11:06:59Z</time>
      </trkpt>
      <trkpt lat="44.48909" lon="0.99792">
        <ele>74.6</ele>
        <time>2022-08-11T11:07:01Z</time>
      </trkpt>
      <trkpt lat="44.48911" lon="0.99782">
        <ele>74.4</ele>
        <time>2022-08-11T11:07:03Z</time>
      </trkpt>
      <trkpt lat="44.48913" lon="0.99771">
        <ele>74.3</ele>
        <time>2022-08-11T11:07:05Z</time>
      </trkpt>
      <trkpt lat="44.48916" lon="0.9976">
        <ele>74.1</ele>
        <time>2022-08-11T11:07:07Z</time>
      </trkpt>
      <trkpt lat="44.48917" lon="0.99754">
        <ele>74</ele>
        <time>2022-08-11T11:07:09Z</time>
      </trkpt>
      <trkpt lat="44.48919" lon="0.99749">
        <ele>73.9</ele>
        <time>2022-08-11T11:07:11Z</time>
      </trkpt>
      <trkpt lat="44.4892" lon="0.99744">
        <ele>73.8</ele>
        <time>2022-08-11T11:07:13Z</time>
      </trkpt>
      <trkpt lat="44.4892" lon="0.99738">
        <ele>73.6</ele>
        <time>2022-08-11T11:07:15Z</time>
      </trkpt>
      <trkpt lat="44.48922" lon="0.99733">
        <ele>73.5</ele>
        <time>2022-08-11T11:07:17Z</time>
      </trkpt>
      <trkpt lat="44.48924" lon="0.99727">
        <ele>73.3</ele>
        <time>2022-08-11T11:07:19Z</time>
      </trkpt>
      <trkpt lat="44.48927" lon="0.99722">
        <ele>73.2</ele>
        <time>2022-08-11T11:07:21Z</time>
      </trkpt>
      <trkpt lat="44.48929" lon="0.99716">
        <ele>73</ele>
        <time>2022-08-11T11:07:23Z</time>
      </trkpt>
      <trkpt lat="44.48932" lon="0.99709">
        <ele>72.8</ele>
        <time>2022-08-11T11:07:25Z</time>
      </trkpt>
      <trkpt lat="44.48935" lon="0.99701">
        <ele>72.6</ele>
        <time>2022-08-11T11:07:27Z</time>
      </trkpt>
      <trkpt lat="44.48938" lon="0.99693">
        <ele>72.5</ele>
        <time>2022-08-11T11:07:29Z</time>
      </trkpt>
      <trkpt lat="44.48941" lon="0.99684">
        <ele>72.3</ele>
        <time>2022-08-11T11:07:31Z</time>
      </trkpt>
      <trkpt lat="44.48944" lon="0.99675">
        <ele>72.1</ele>
        <time>2022-08-11T11:07:33Z</time>
      </trkpt>
      <trkpt lat="44.48946" lon="0.99666">
        <ele>72</ele>
        <time>2022-08-11T11:07:35Z</time>
      </trkpt>
      <trkpt lat="44.4895" lon="0.99656">
        <ele>72.1</ele>
        <time>2022-08-11T11:07:37Z</time>
      </trkpt>
      <trkpt lat="44.48953" lon="0.99647">
        <ele>72.1</ele>
        <time>2022-08-11T11:07:39Z</time>
      </trkpt>
      <trkpt lat="44.48955" lon="0.99638">
        <ele>72.2</ele>
        <time>2022-08-11T11:07:41Z</time>
      </trkpt>
      <trkpt lat="44.48958" lon="0.99629">
        <ele>72.2</ele>
        <time>2022-08-11T11:07:43Z</time>
      </trkpt>
      <trkpt lat="44.48961" lon="0.99619">
        <ele>72.3</ele>
        <time>2022-08-11T11:07:45Z</time>
      </trkpt>
      <trkpt lat="44.48964" lon="0.99609">
        <ele>72.3</ele>
        <time>2022-08-11T11:07:47Z</time>
      </trkpt>
      <trkpt lat="44.48966" lon="0.996">
        <ele>72.3</ele>
        <time>2022-08-11T11:07:49Z</time>
      </trkpt>
      <trkpt lat="44.48969" lon="0.99592">
        <ele>72.3</ele>
        <time>2022-08-11T11:07:51Z</time>
      </trkpt>
      <trkpt lat="44.48972" lon="0.99582">
        <ele>72.3</ele>
        <time>2022-08-11T11:07:53Z</time>
      </trkpt>
      <trkpt lat="44.48976" lon="0.99572">
        <ele>72.4</ele>
        <time>2022-08-11T11:07:55Z</time>
      </trkpt>
      <trkpt lat="44.4898" lon="0.99561">
        <ele>72.4</ele>
        <time>2022-08-11T11:07:57Z</time>
      </trkpt>
      <trkpt lat="44.48985" lon="0.99552">
        <ele>72.5</ele>
        <time>2022-08-11T11:07:59Z</time>
      </trkpt>
      <trkpt lat="44.48989" lon="0.99542">
        <ele>72.6</ele>
        <time>2022-08-11T11:08:01Z</time>
      </trkpt>
      <trkpt lat="44.48994" lon="0.99533">
        <ele>72.6</ele>
        <time>2022-08-11T11:08:03Z</time>
      </trkpt>
      <trkpt lat="44.48999" lon="0.99525">
        <ele>72.7</ele>
        <time>2022-08-11T11:08:05Z</time>
      </trkpt>
      <trkpt lat="44.49004" lon="0.99516">
        <ele>72.8</ele>
        <time>2022-08-11T11:08:07Z</time>
      </trkpt>
      <trkpt lat="44.49009" lon="0.99508">
        <ele>72.8</ele>
        <time>2022-08-11T11:08:09Z</time>
      </trkpt>
      <trkpt lat="44.49012" lon="0.99499">
        <ele>72.8</ele>
        <time>2022-08-11T11:08:11Z</time>
      </trkpt>
      <trkpt lat="44.49015" lon="0.99494">
        <ele>72.7</ele>
        <time>2022-08-11T11:08:13Z</time>
      </trkpt>
      <trkpt lat="44.49018" lon="0.99491">
        <ele>72.6</ele>
        <time>2022-08-11T11:08:15Z</time>
      </trkpt>
      <trkpt lat="44.49019" lon="0.9949">
        <ele>72.6</ele>
        <time>2022-08-11T11:08:17Z</time>
      </trkpt>
      <trkpt lat="44.49019" lon="0.99491">
        <ele>72.6</ele>
        <time>2022-08-11T11:08:19Z</time>
      </trkpt>
      <trkpt lat="44.49018" lon="0.9949">
        <ele>72.6</ele>
        <time>2022-08-11T11:08:21Z</time>
      </trkpt>
      <trkpt lat="44.49018" lon="0.99489">
        <ele>72.6</ele>
        <time>2022-08-11T11:08:23Z</time>
      </trkpt>
      <trkpt lat="44.49018" lon="0.99489">
        <ele>72.5</ele>
        <time>2022-08-11T11:08:25Z</time>
      </trkpt>
      <trkpt lat="44.49035" lon="0.9947">
        <ele>72</ele>
        <time>2022-08-11T11:09:13Z</time>
      </trkpt>
      <trkpt lat="44.49038" lon="0.99462">
        <ele>71.8</ele>
        <time>2022-08-11T11:09:15Z</time>
      </trkpt>
      <trkpt lat="44.49043" lon="0.99455">
        <ele>71.7</ele>
        <time>2022-08-11T11:09:17Z</time>
      </trkpt>
      <trkpt lat="44.49048" lon="0.99448">
        <ele>71.5</ele>
        <time>2022-08-11T11:09:19Z</time>
      </trkpt>
      <trkpt lat="44.49052" lon="0.9944">
        <ele>71.4</ele>
        <time>2022-08-11T11:09:21Z</time>
      </trkpt>
      <trkpt lat="44.49058" lon="0.99433">
        <ele>71.3</ele>
        <time>2022-08-11T11:09:23Z</time>
      </trkpt>
      <trkpt lat="44.49062" lon="0.99425">
        <ele>71.1</ele>
        <time>2022-08-11T11:09:25Z</time>
      </trkpt>
      <trkpt lat="44.49068" lon="0.99417">
        <ele>71</ele>
        <time>2022-08-11T11:09:27Z</time>
      </trkpt>
      <trkpt lat="44.49074" lon="0.99408">
        <ele>71</ele>
        <time>2022-08-11T11:09:29Z</time>
      </trkpt>
      <trkpt lat="44.4908" lon="0.994">
        <ele>71</ele>
        <time>2022-08-11T11:09:31Z</time>
      </trkpt>
      <trkpt lat="44.49086" lon="0.99391">
        <ele>71</ele>
        <time>2022-08-11T11:09:33Z</time>
      </trkpt>
      <trkpt lat="44.49093" lon="0.99383">
        <ele>71.1</ele>
        <time>2022-08-11T11:09:35Z</time>
      </trkpt>
      <trkpt lat="44.49099" lon="0.99374">
        <ele>71.1</ele>
        <time>2022-08-11T11:09:37Z</time>
      </trkpt>
      <trkpt lat="44.49105" lon="0.99366">
        <ele>71.1</ele>
        <time>2022-08-11T11:09:39Z</time>
      </trkpt>
      <trkpt lat="44.49111" lon="0.99358">
        <ele>71.1</ele>
        <time>2022-08-11T11:09:41Z</time>
      </trkpt>
      <trkpt lat="44.49118" lon="0.9935">
        <ele>71.1</ele>
        <time>2022-08-11T11:09:43Z</time>
      </trkpt>
      <trkpt lat="44.49124" lon="0.99342">
        <ele>71.1</ele>
        <time>2022-08-11T11:09:45Z</time>
      </trkpt>
      <trkpt lat="44.4913" lon="0.99334">
        <ele>71</ele>
        <time>2022-08-11T11:09:47Z</time>
      </trkpt>
      <trkpt lat="44.49136" lon="0.99326">
        <ele>70.9</ele>
        <time>2022-08-11T11:09:49Z</time>
      </trkpt>
      <trkpt lat="44.49142" lon="0.99318">
        <ele>70.7</ele>
        <time>2022-08-11T11:09:51Z</time>
      </trkpt>
      <trkpt lat="44.49149" lon="0.99309">
        <ele>70.5</ele>
        <time>2022-08-11T11:09:53Z</time>
      </trkpt>
      <trkpt lat="44.49156" lon="0.993">
        <ele>70.2</ele>
        <time>2022-08-11T11:09:55Z</time>
      </trkpt>
      <trkpt lat="44.49161" lon="0.99291">
        <ele>70</ele>
        <time>2022-08-11T11:09:57Z</time>
      </trkpt>
      <trkpt lat="44.49168" lon="0.99282">
        <ele>69.8</ele>
        <time>2022-08-11T11:09:59Z</time>
      </trkpt>
      <trkpt lat="44.49174" lon="0.99272">
        <ele>69.5</ele>
        <time>2022-08-11T11:10:01Z</time>
      </trkpt>
      <trkpt lat="44.4918" lon="0.99262">
        <ele>69.3</ele>
        <time>2022-08-11T11:10:03Z</time>
      </trkpt>
      <trkpt lat="44.49187" lon="0.99253">
        <ele>69.1</ele>
        <time>2022-08-11T11:10:05Z</time>
      </trkpt>
      <trkpt lat="44.49193" lon="0.99243">
        <ele>68.9</ele>
        <time>2022-08-11T11:10:07Z</time>
      </trkpt>
      <trkpt lat="44.49199" lon="0.99233">
        <ele>68.9</ele>
        <time>2022-08-11T11:10:09Z</time>
      </trkpt>
      <trkpt lat="44.49206" lon="0.99223">
        <ele>68.8</ele>
        <time>2022-08-11T11:10:11Z</time>
      </trkpt>
      <trkpt lat="44.49212" lon="0.99213">
        <ele>68.8</ele>
        <time>2022-08-11T11:10:13Z</time>
      </trkpt>
      <trkpt lat="44.49217" lon="0.99202">
        <ele>68.8</ele>
        <time>2022-08-11T11:10:15Z</time>
      </trkpt>
      <trkpt lat="44.49223" lon="0.9919">
        <ele>68.8</ele>
        <time>2022-08-11T11:10:17Z</time>
      </trkpt>
      <trkpt lat="44.49226" lon="0.99176">
        <ele>68.7</ele>
        <time>2022-08-11T11:10:19Z</time>
      </trkpt>
      <trkpt lat="44.49228" lon="0.99161">
        <ele>68.7</ele>
        <time>2022-08-11T11:10:21Z</time>
      </trkpt>
      <trkpt lat="44.4923" lon="0.99147">
        <ele>68.5</ele>
        <time>2022-08-11T11:10:23Z</time>
      </trkpt>
      <trkpt lat="44.49233" lon="0.99132">
        <ele>68.4</ele>
        <time>2022-08-11T11:10:25Z</time>
      </trkpt>
      <trkpt lat="44.49238" lon="0.99117">
        <ele>68.3</ele>
        <time>2022-08-11T11:10:27Z</time>
      </trkpt>
      <trkpt lat="44.49244" lon="0.99105">
        <ele>68.2</ele>
        <time>2022-08-11T11:10:29Z</time>
      </trkpt>
      <trkpt lat="44.49251" lon="0.99093">
        <ele>68.1</ele>
        <time>2022-08-11T11:10:31Z</time>
      </trkpt>
      <trkpt lat="44.49258" lon="0.99083">
        <ele>68</ele>
        <time>2022-08-11T11:10:33Z</time>
      </trkpt>
      <trkpt lat="44.49266" lon="0.99074">
        <ele>68</ele>
        <time>2022-08-11T11:10:35Z</time>
      </trkpt>
      <trkpt lat="44.49274" lon="0.99069">
        <ele>68</ele>
        <time>2022-08-11T11:10:37Z</time>
      </trkpt>
      <trkpt lat="44.49282" lon="0.9906">
        <ele>68</ele>
        <time>2022-08-11T11:10:39Z</time>
      </trkpt>
      <trkpt lat="44.49291" lon="0.99054">
        <ele>68</ele>
        <time>2022-08-11T11:10:41Z</time>
      </trkpt>
      <trkpt lat="44.49299" lon="0.99048">
        <ele>68</ele>
        <time>2022-08-11T11:10:43Z</time>
      </trkpt>
      <trkpt lat="44.49308" lon="0.99042">
        <ele>68</ele>
        <time>2022-08-11T11:10:45Z</time>
      </trkpt>
      <trkpt lat="44.49315" lon="0.99036">
        <ele>68</ele>
        <time>2022-08-11T11:10:47Z</time>
      </trkpt>
      <trkpt lat="44.49322" lon="0.9903">
        <ele>68</ele>
        <time>2022-08-11T11:10:49Z</time>
      </trkpt>
      <trkpt lat="44.49328" lon="0.99023">
        <ele>68</ele>
        <time>2022-08-11T11:10:51Z</time>
      </trkpt>
      <trkpt lat="44.49336" lon="0.99016">
        <ele>68</ele>
        <time>2022-08-11T11:10:53Z</time>
      </trkpt>
      <trkpt lat="44.49343" lon="0.9901">
        <ele>68</ele>
        <time>2022-08-11T11:10:55Z</time>
      </trkpt>
      <trkpt lat="44.49351" lon="0.99002">
        <ele>68</ele>
        <time>2022-08-11T11:10:57Z</time>
      </trkpt>
      <trkpt lat="44.49359" lon="0.98994">
        <ele>67.9</ele>
        <time>2022-08-11T11:10:59Z</time>
      </trkpt>
      <trkpt lat="44.49366" lon="0.98986">
        <ele>67.7</ele>
        <time>2022-08-11T11:11:01Z</time>
      </trkpt>
      <trkpt lat="44.49373" lon="0.98979">
        <ele>67.5</ele>
        <time>2022-08-11T11:11:03Z</time>
      </trkpt>
      <trkpt lat="44.49381" lon="0.98969">
        <ele>67.2</ele>
        <time>2022-08-11T11:11:05Z</time>
      </trkpt>
      <trkpt lat="44.49389" lon="0.98961">
        <ele>66.9</ele>
        <time>2022-08-11T11:11:07Z</time>
      </trkpt>
      <trkpt lat="44.49397" lon="0.98952">
        <ele>66.6</ele>
        <time>2022-08-11T11:11:09Z</time>
      </trkpt>
      <trkpt lat="44.49404" lon="0.98944">
        <ele>66.2</ele>
        <time>2022-08-11T11:11:11Z</time>
      </trkpt>
      <trkpt lat="44.49411" lon="0.98938">
        <ele>65.9</ele>
        <time>2022-08-11T11:11:13Z</time>
      </trkpt>
      <trkpt lat="44.49419" lon="0.9893">
        <ele>65.6</ele>
        <time>2022-08-11T11:11:15Z</time>
      </trkpt>
      <trkpt lat="44.49425" lon="0.98923">
        <ele>65.6</ele>
        <time>2022-08-11T11:11:17Z</time>
      </trkpt>
      <trkpt lat="44.49431" lon="0.98916">
        <ele>65.7</ele>
        <time>2022-08-11T11:11:19Z</time>
      </trkpt>
      <trkpt lat="44.49437" lon="0.98909">
        <ele>66.1</ele>
        <time>2022-08-11T11:11:21Z</time>
      </trkpt>
      <trkpt lat="44.49442" lon="0.98904">
        <ele>66.4</ele>
        <time>2022-08-11T11:11:23Z</time>
      </trkpt>
      <trkpt lat="44.49448" lon="0.98896">
        <ele>66.7</ele>
        <time>2022-08-11T11:11:25Z</time>
      </trkpt>
      <trkpt lat="44.49453" lon="0.9889">
        <ele>67</ele>
        <time>2022-08-11T11:11:27Z</time>
      </trkpt>
      <trkpt lat="44.49459" lon="0.98884">
        <ele>67.2</ele>
        <time>2022-08-11T11:11:29Z</time>
      </trkpt>
      <trkpt lat="44.49464" lon="0.98878">
        <ele>67.4</ele>
        <time>2022-08-11T11:11:31Z</time>
      </trkpt>
      <trkpt lat="44.49469" lon="0.98873">
        <ele>67.6</ele>
        <time>2022-08-11T11:11:33Z</time>
      </trkpt>
      <trkpt lat="44.49475" lon="0.98867">
        <ele>67.7</ele>
        <time>2022-08-11T11:11:35Z</time>
      </trkpt>
      <trkpt lat="44.4948" lon="0.98859">
        <ele>67.9</ele>
        <time>2022-08-11T11:11:37Z</time>
      </trkpt>
      <trkpt lat="44.49486" lon="0.98852">
        <ele>68</ele>
        <time>2022-08-11T11:11:39Z</time>
      </trkpt>
      <trkpt lat="44.49493" lon="0.98843">
        <ele>68</ele>
        <time>2022-08-11T11:11:41Z</time>
      </trkpt>
      <trkpt lat="44.49498" lon="0.98837">
        <ele>68</ele>
        <time>2022-08-11T11:11:43Z</time>
      </trkpt>
      <trkpt lat="44.49505" lon="0.9883">
        <ele>68.1</ele>
        <time>2022-08-11T11:11:45Z</time>
      </trkpt>
      <trkpt lat="44.49511" lon="0.98821">
        <ele>68.1</ele>
        <time>2022-08-11T11:11:47Z</time>
      </trkpt>
      <trkpt lat="44.49518" lon="0.98816">
        <ele>68.1</ele>
        <time>2022-08-11T11:11:49Z</time>
      </trkpt>
      <trkpt lat="44.49526" lon="0.98814">
        <ele>68.2</ele>
        <time>2022-08-11T11:11:51Z</time>
      </trkpt>
      <trkpt lat="44.49532" lon="0.98812">
        <ele>68.2</ele>
        <time>2022-08-11T11:11:53Z</time>
      </trkpt>
      <trkpt lat="44.49537" lon="0.98808">
        <ele>68.2</ele>
        <time>2022-08-11T11:11:55Z</time>
      </trkpt>
      <trkpt lat="44.49543" lon="0.98805">
        <ele>68.2</ele>
        <time>2022-08-11T11:11:57Z</time>
      </trkpt>
      <trkpt lat="44.49549" lon="0.98801">
        <ele>68.1</ele>
        <time>2022-08-11T11:11:59Z</time>
      </trkpt>
      <trkpt lat="44.49556" lon="0.98799">
        <ele>68.1</ele>
        <time>2022-08-11T11:12:01Z</time>
      </trkpt>
      <trkpt lat="44.49562" lon="0.98799">
        <ele>68.1</ele>
        <time>2022-08-11T11:12:03Z</time>
      </trkpt>
      <trkpt lat="44.49568" lon="0.98799">
        <ele>68.1</ele>
        <time>2022-08-11T11:12:05Z</time>
      </trkpt>
      <trkpt lat="44.49574" lon="0.98798">
        <ele>68.1</ele>
        <time>2022-08-11T11:12:07Z</time>
      </trkpt>
      <trkpt lat="44.4958" lon="0.98796">
        <ele>68.1</ele>
        <time>2022-08-11T11:12:09Z</time>
      </trkpt>
      <trkpt lat="44.49587" lon="0.98795">
        <ele>68.2</ele>
        <time>2022-08-11T11:12:11Z</time>
      </trkpt>
      <trkpt lat="44.49594" lon="0.98793">
        <ele>68.5</ele>
        <time>2022-08-11T11:12:13Z</time>
      </trkpt>
      <trkpt lat="44.49601" lon="0.98792">
        <ele>68.7</ele>
        <time>2022-08-11T11:12:15Z</time>
      </trkpt>
      <trkpt lat="44.49607" lon="0.98789">
        <ele>69</ele>
        <time>2022-08-11T11:12:17Z</time>
      </trkpt>
      <trkpt lat="44.49613" lon="0.98782">
        <ele>69.1</ele>
        <time>2022-08-11T11:12:19Z</time>
      </trkpt>
      <trkpt lat="44.49616" lon="0.98771">
        <ele>69</ele>
        <time>2022-08-11T11:12:21Z</time>
      </trkpt>
      <trkpt lat="44.49618" lon="0.98764">
        <ele>68.9</ele>
        <time>2022-08-11T11:12:23Z</time>
      </trkpt>
      <trkpt lat="44.49616" lon="0.9876">
        <ele>68.8</ele>
        <time>2022-08-11T11:12:25Z</time>
      </trkpt>
      <trkpt lat="44.49614" lon="0.98751">
        <ele>68.5</ele>
        <time>2022-08-11T11:12:27Z</time>
      </trkpt>
      <trkpt lat="44.4961" lon="0.98744">
        <ele>68.2</ele>
        <time>2022-08-11T11:12:29Z</time>
      </trkpt>
      <trkpt lat="44.49606" lon="0.9874">
        <ele>68</ele>
        <time>2022-08-11T11:12:31Z</time>
      </trkpt>
      <trkpt lat="44.49603" lon="0.98735">
        <ele>67.8</ele>
        <time>2022-08-11T11:12:33Z</time>
      </trkpt>
      <trkpt lat="44.49605" lon="0.98729">
        <ele>67.8</ele>
        <time>2022-08-11T11:12:35Z</time>
      </trkpt>
      <trkpt lat="44.49608" lon="0.98726">
        <ele>67.9</ele>
        <time>2022-08-11T11:12:37Z</time>
      </trkpt>
      <trkpt lat="44.49612" lon="0.98725">
        <ele>68.1</ele>
        <time>2022-08-11T11:12:39Z</time>
      </trkpt>
      <trkpt lat="44.49614" lon="0.98721">
        <ele>68.1</ele>
        <time>2022-08-11T11:12:41Z</time>
      </trkpt>
      <trkpt lat="44.49611" lon="0.98715">
        <ele>67.9</ele>
        <time>2022-08-11T11:12:43Z</time>
      </trkpt>
      <trkpt lat="44.49608" lon="0.98708">
        <ele>67.7</ele>
        <time>2022-08-11T11:12:45Z</time>
      </trkpt>
      <trkpt lat="44.49604" lon="0.987">
        <ele>67.4</ele>
        <time>2022-08-11T11:12:47Z</time>
      </trkpt>
      <trkpt lat="44.49603" lon="0.98691">
        <ele>67.3</ele>
        <time>2022-08-11T11:12:49Z</time>
      </trkpt>
      <trkpt lat="44.49606" lon="0.98682">
        <ele>67.3</ele>
        <time>2022-08-11T11:12:51Z</time>
      </trkpt>
      <trkpt lat="44.4961" lon="0.98674">
        <ele>67.3</ele>
        <time>2022-08-11T11:12:53Z</time>
      </trkpt>
      <trkpt lat="44.49612" lon="0.98668">
        <ele>67.4</ele>
        <time>2022-08-11T11:12:55Z</time>
      </trkpt>
      <trkpt lat="44.49612" lon="0.98669">
        <ele>67.4</ele>
        <time>2022-08-11T11:12:57Z</time>
      </trkpt>
      <trkpt lat="44.49612" lon="0.98669">
        <ele>67.4</ele>
        <time>2022-08-11T11:12:59Z</time>
      </trkpt>
      <trkpt lat="44.49611" lon="0.98668">
        <ele>67.4</ele>
        <time>2022-08-11T11:13:01Z</time>
      </trkpt>
      <trkpt lat="44.49611" lon="0.98669">
        <ele>67.4</ele>
        <time>2022-08-11T11:13:03Z</time>
      </trkpt>
      <trkpt lat="44.49611" lon="0.98669">
        <ele>67.4</ele>
        <time>2022-08-11T11:13:05Z</time>
      </trkpt>
      <trkpt lat="44.49606" lon="0.98687">
        <ele>67.3</ele>
        <time>2022-08-11T11:13:31Z</time>
      </trkpt>
      <trkpt lat="44.49606" lon="0.98694">
        <ele>67.4</ele>
        <time>2022-08-11T11:13:33Z</time>
      </trkpt>
      <trkpt lat="44.49608" lon="0.98701">
        <ele>67.6</ele>
        <time>2022-08-11T11:13:35Z</time>
      </trkpt>
      <trkpt lat="44.49612" lon="0.98707">
        <ele>67.9</ele>
        <time>2022-08-11T11:13:37Z</time>
      </trkpt>
      <trkpt lat="44.49615" lon="0.9871">
        <ele>68.1</ele>
        <time>2022-08-11T11:13:39Z</time>
      </trkpt>
      <trkpt lat="44.49618" lon="0.98714">
        <ele>68.2</ele>
        <time>2022-08-11T11:13:41Z</time>
      </trkpt>
      <trkpt lat="44.49623" lon="0.98718">
        <ele>68.5</ele>
        <time>2022-08-11T11:13:43Z</time>
      </trkpt>
      <trkpt lat="44.49626" lon="0.98725">
        <ele>68.7</ele>
        <time>2022-08-11T11:13:45Z</time>
      </trkpt>
      <trkpt lat="44.49628" lon="0.98732">
        <ele>68.9</ele>
        <time>2022-08-11T11:13:47Z</time>
      </trkpt>
      <trkpt lat="44.4963" lon="0.98739">
        <ele>69.1</ele>
        <time>2022-08-11T11:13:49Z</time>
      </trkpt>
      <trkpt lat="44.49633" lon="0.98744">
        <ele>69.3</ele>
        <time>2022-08-11T11:13:51Z</time>
      </trkpt>
      <trkpt lat="44.49635" lon="0.98749">
        <ele>69.5</ele>
        <time>2022-08-11T11:13:53Z</time>
      </trkpt>
      <trkpt lat="44.49638" lon="0.98754">
        <ele>69.7</ele>
        <time>2022-08-11T11:13:55Z</time>
      </trkpt>
      <trkpt lat="44.49641" lon="0.98758">
        <ele>69.9</ele>
        <time>2022-08-11T11:13:57Z</time>
      </trkpt>
      <trkpt lat="44.49644" lon="0.98762">
        <ele>70.1</ele>
        <time>2022-08-11T11:13:59Z</time>
      </trkpt>
      <trkpt lat="44.49646" lon="0.98766">
        <ele>70.2</ele>
        <time>2022-08-11T11:14:01Z</time>
      </trkpt>
      <trkpt lat="44.49648" lon="0.9877">
        <ele>70.4</ele>
        <time>2022-08-11T11:14:03Z</time>
      </trkpt>
      <trkpt lat="44.49651" lon="0.98773">
        <ele>70.6</ele>
        <time>2022-08-11T11:14:05Z</time>
      </trkpt>
      <trkpt lat="44.49652" lon="0.98773">
        <ele>70.6</ele>
        <time>2022-08-11T11:14:07Z</time>
      </trkpt>
      <trkpt lat="44.49655" lon="0.98777">
        <ele>70.8</ele>
        <time>2022-08-11T11:14:09Z</time>
      </trkpt>
      <trkpt lat="44.49659" lon="0.98779">
        <ele>71</ele>
        <time>2022-08-11T11:14:11Z</time>
      </trkpt>
      <trkpt lat="44.49662" lon="0.98781">
        <ele>71.2</ele>
        <time>2022-08-11T11:14:13Z</time>
      </trkpt>
      <trkpt lat="44.49666" lon="0.98782">
        <ele>71.4</ele>
        <time>2022-08-11T11:14:15Z</time>
      </trkpt>
      <trkpt lat="44.49671" lon="0.98782">
        <ele>71.7</ele>
        <time>2022-08-11T11:14:17Z</time>
      </trkpt>
      <trkpt lat="44.49676" lon="0.98782">
        <ele>71.9</ele>
        <time>2022-08-11T11:14:19Z</time>
      </trkpt>
      <trkpt lat="44.49679" lon="0.98783">
        <ele>72.1</ele>
        <time>2022-08-11T11:14:21Z</time>
      </trkpt>
      <trkpt lat="44.49681" lon="0.98785">
        <ele>72.3</ele>
        <time>2022-08-11T11:14:23Z</time>
      </trkpt>
      <trkpt lat="44.49681" lon="0.98786">
        <ele>72.3</ele>
        <time>2022-08-11T11:14:25Z</time>
      </trkpt>
      <trkpt lat="44.49681" lon="0.98787">
        <ele>72.3</ele>
        <time>2022-08-11T11:14:27Z</time>
      </trkpt>
      <trkpt lat="44.49681" lon="0.98787">
        <ele>72.3</ele>
        <time>2022-08-11T11:14:29Z</time>
      </trkpt>
      <trkpt lat="44.49682" lon="0.98788">
        <ele>72.4</ele>
        <time>2022-08-11T11:14:31Z</time>
      </trkpt>
      <trkpt lat="44.49682" lon="0.98788">
        <ele>72.4</ele>
        <time>2022-08-11T11:14:33Z</time>
      </trkpt>
      <trkpt lat="44.49696" lon="0.98779">
        <ele>73.2</ele>
        <time>2022-08-11T11:14:53Z</time>
      </trkpt>
      <trkpt lat="44.49697" lon="0.98771">
        <ele>73.3</ele>
        <time>2022-08-11T11:14:55Z</time>
      </trkpt>
      <trkpt lat="44.49698" lon="0.98764">
        <ele>73.3</ele>
        <time>2022-08-11T11:14:57Z</time>
      </trkpt>
      <trkpt lat="44.49699" lon="0.98756">
        <ele>73.4</ele>
        <time>2022-08-11T11:14:59Z</time>
      </trkpt>
      <trkpt lat="44.497" lon="0.98749">
        <ele>73.4</ele>
        <time>2022-08-11T11:15:01Z</time>
      </trkpt>
      <trkpt lat="44.49701" lon="0.98741">
        <ele>73.3</ele>
        <time>2022-08-11T11:15:03Z</time>
      </trkpt>
      <trkpt lat="44.49702" lon="0.98735">
        <ele>73.3</ele>
        <time>2022-08-11T11:15:05Z</time>
      </trkpt>
      <trkpt lat="44.49704" lon="0.98726">
        <ele>73.2</ele>
        <time>2022-08-11T11:15:07Z</time>
      </trkpt>
      <trkpt lat="44.49705" lon="0.98718">
        <ele>73.2</ele>
        <time>2022-08-11T11:15:09Z</time>
      </trkpt>
      <trkpt lat="44.49706" lon="0.98711">
        <ele>73.2</ele>
        <time>2022-08-11T11:15:11Z</time>
      </trkpt>
      <trkpt lat="44.49707" lon="0.98705">
        <ele>73.1</ele>
        <time>2022-08-11T11:15:13Z</time>
      </trkpt>
      <trkpt lat="44.49707" lon="0.98698">
        <ele>73</ele>
        <time>2022-08-11T11:15:15Z</time>
      </trkpt>
      <trkpt lat="44.49708" lon="0.98692">
        <ele>72.9</ele>
        <time>2022-08-11T11:15:17Z</time>
      </trkpt>
      <trkpt lat="44.49709" lon="0.98686">
        <ele>72.9</ele>
        <time>2022-08-11T11:15:19Z</time>
      </trkpt>
      <trkpt lat="44.49711" lon="0.9868">
        <ele>72.9</ele>
        <time>2022-08-11T11:15:21Z</time>
      </trkpt>
      <trkpt lat="44.49711" lon="0.98672">
        <ele>72.8</ele>
        <time>2022-08-11T11:15:23Z</time>
      </trkpt>
      <trkpt lat="44.49712" lon="0.98664">
        <ele>72.7</ele>
        <time>2022-08-11T11:15:25Z</time>
      </trkpt>
      <trkpt lat="44.49711" lon="0.98655">
        <ele>72.4</ele>
        <time>2022-08-11T11:15:27Z</time>
      </trkpt>
      <trkpt lat="44.49714" lon="0.98649">
        <ele>72.5</ele>
        <time>2022-08-11T11:15:29Z</time>
      </trkpt>
      <trkpt lat="44.49716" lon="0.98642">
        <ele>72.5</ele>
        <time>2022-08-11T11:15:31Z</time>
      </trkpt>
      <trkpt lat="44.49716" lon="0.98633">
        <ele>72.3</ele>
        <time>2022-08-11T11:15:33Z</time>
      </trkpt>
      <trkpt lat="44.49718" lon="0.98623">
        <ele>72.2</ele>
        <time>2022-08-11T11:15:35Z</time>
      </trkpt>
      <trkpt lat="44.49719" lon="0.98614">
        <ele>72.1</ele>
        <time>2022-08-11T11:15:37Z</time>
      </trkpt>
      <trkpt lat="44.4972" lon="0.98603">
        <ele>71.9</ele>
        <time>2022-08-11T11:15:39Z</time>
      </trkpt>
      <trkpt lat="44.49722" lon="0.98591">
        <ele>71.8</ele>
        <time>2022-08-11T11:15:41Z</time>
      </trkpt>
      <trkpt lat="44.49724" lon="0.9858">
        <ele>71.7</ele>
        <time>2022-08-11T11:15:43Z</time>
      </trkpt>
      <trkpt lat="44.49726" lon="0.98568">
        <ele>71.6</ele>
        <time>2022-08-11T11:15:45Z</time>
      </trkpt>
      <trkpt lat="44.49727" lon="0.98557">
        <ele>71.5</ele>
        <time>2022-08-11T11:15:47Z</time>
      </trkpt>
      <trkpt lat="44.4973" lon="0.98545">
        <ele>71.5</ele>
        <time>2022-08-11T11:15:49Z</time>
      </trkpt>
      <trkpt lat="44.49732" lon="0.98533">
        <ele>71.3</ele>
        <time>2022-08-11T11:15:51Z</time>
      </trkpt>
      <trkpt lat="44.49734" lon="0.9852">
        <ele>71.1</ele>
        <time>2022-08-11T11:15:53Z</time>
      </trkpt>
      <trkpt lat="44.49737" lon="0.98508">
        <ele>71</ele>
        <time>2022-08-11T11:15:55Z</time>
      </trkpt>
      <trkpt lat="44.49738" lon="0.98497">
        <ele>70.9</ele>
        <time>2022-08-11T11:15:57Z</time>
      </trkpt>
      <trkpt lat="44.4974" lon="0.98486">
        <ele>71.1</ele>
        <time>2022-08-11T11:15:59Z</time>
      </trkpt>
      <trkpt lat="44.49742" lon="0.98474">
        <ele>71.3</ele>
        <time>2022-08-11T11:16:01Z</time>
      </trkpt>
      <trkpt lat="44.49745" lon="0.98462">
        <ele>71.5</ele>
        <time>2022-08-11T11:16:03Z</time>
      </trkpt>
      <trkpt lat="44.49749" lon="0.9845">
        <ele>71.6</ele>
        <time>2022-08-11T11:16:05Z</time>
      </trkpt>
      <trkpt lat="44.49751" lon="0.98438">
        <ele>72.1</ele>
        <time>2022-08-11T11:16:07Z</time>
      </trkpt>
      <trkpt lat="44.49754" lon="0.98427">
        <ele>73</ele>
        <time>2022-08-11T11:16:09Z</time>
      </trkpt>
      <trkpt lat="44.49758" lon="0.98417">
        <ele>74.4</ele>
        <time>2022-08-11T11:16:11Z</time>
      </trkpt>
      <trkpt lat="44.49762" lon="0.98406">
        <ele>75.1</ele>
        <time>2022-08-11T11:16:13Z</time>
      </trkpt>
      <trkpt lat="44.49764" lon="0.98394">
        <ele>75.5</ele>
        <time>2022-08-11T11:16:15Z</time>
      </trkpt>
      <trkpt lat="44.49768" lon="0.98386">
        <ele>76.3</ele>
        <time>2022-08-11T11:16:17Z</time>
      </trkpt>
      <trkpt lat="44.4977" lon="0.98376">
        <ele>76.4</ele>
        <time>2022-08-11T11:16:19Z</time>
      </trkpt>
      <trkpt lat="44.49772" lon="0.98367">
        <ele>76.9</ele>
        <time>2022-08-11T11:16:21Z</time>
      </trkpt>
      <trkpt lat="44.49776" lon="0.98362">
        <ele>77.6</ele>
        <time>2022-08-11T11:16:23Z</time>
      </trkpt>
      <trkpt lat="44.49778" lon="0.98357">
        <ele>78</ele>
        <time>2022-08-11T11:16:25Z</time>
      </trkpt>
      <trkpt lat="44.49777" lon="0.98353">
        <ele>77.8</ele>
        <time>2022-08-11T11:16:27Z</time>
      </trkpt>
      <trkpt lat="44.49779" lon="0.98342">
        <ele>78</ele>
        <time>2022-08-11T11:16:29Z</time>
      </trkpt>
      <trkpt lat="44.49782" lon="0.98332">
        <ele>78.5</ele>
        <time>2022-08-11T11:16:31Z</time>
      </trkpt>
      <trkpt lat="44.49785" lon="0.98323">
        <ele>79</ele>
        <time>2022-08-11T11:16:33Z</time>
      </trkpt>
      <trkpt lat="44.49788" lon="0.98313">
        <ele>79.5</ele>
        <time>2022-08-11T11:16:35Z</time>
      </trkpt>
      <trkpt lat="44.49792" lon="0.98302">
        <ele>80.1</ele>
        <time>2022-08-11T11:16:37Z</time>
      </trkpt>
      <trkpt lat="44.49795" lon="0.98291">
        <ele>80.5</ele>
        <time>2022-08-11T11:16:39Z</time>
      </trkpt>
      <trkpt lat="44.49798" lon="0.98279">
        <ele>80.9</ele>
        <time>2022-08-11T11:16:41Z</time>
      </trkpt>
      <trkpt lat="44.49802" lon="0.98267">
        <ele>81.4</ele>
        <time>2022-08-11T11:16:43Z</time>
      </trkpt>
      <trkpt lat="44.49806" lon="0.98254">
        <ele>81.9</ele>
        <time>2022-08-11T11:16:45Z</time>
      </trkpt>
      <trkpt lat="44.49809" lon="0.98242">
        <ele>82.5</ele>
        <time>2022-08-11T11:16:47Z</time>
      </trkpt>
      <trkpt lat="44.49813" lon="0.98228">
        <ele>83.2</ele>
        <time>2022-08-11T11:16:49Z</time>
      </trkpt>
      <trkpt lat="44.49816" lon="0.98216">
        <ele>83.8</ele>
        <time>2022-08-11T11:16:51Z</time>
      </trkpt>
      <trkpt lat="44.4982" lon="0.98203">
        <ele>84.4</ele>
        <time>2022-08-11T11:16:53Z</time>
      </trkpt>
      <trkpt lat="44.49824" lon="0.9819">
        <ele>84.9</ele>
        <time>2022-08-11T11:16:55Z</time>
      </trkpt>
      <trkpt lat="44.49828" lon="0.98177">
        <ele>85.3</ele>
        <time>2022-08-11T11:16:57Z</time>
      </trkpt>
      <trkpt lat="44.49831" lon="0.98164">
        <ele>85.5</ele>
        <time>2022-08-11T11:16:59Z</time>
      </trkpt>
      <trkpt lat="44.49834" lon="0.98152">
        <ele>85.6</ele>
        <time>2022-08-11T11:17:01Z</time>
      </trkpt>
      <trkpt lat="44.49837" lon="0.9814">
        <ele>86.6</ele>
        <time>2022-08-11T11:17:03Z</time>
      </trkpt>
      <trkpt lat="44.4984" lon="0.98128">
        <ele>87.6</ele>
        <time>2022-08-11T11:17:05Z</time>
      </trkpt>
      <trkpt lat="44.49842" lon="0.98115">
        <ele>88.2</ele>
        <time>2022-08-11T11:17:07Z</time>
      </trkpt>
      <trkpt lat="44.49844" lon="0.98103">
        <ele>88.4</ele>
        <time>2022-08-11T11:17:09Z</time>
      </trkpt>
      <trkpt lat="44.49846" lon="0.98091">
        <ele>88.8</ele>
        <time>2022-08-11T11:17:11Z</time>
      </trkpt>
      <trkpt lat="44.49847" lon="0.98079">
        <ele>88.7</ele>
        <time>2022-08-11T11:17:13Z</time>
      </trkpt>
      <trkpt lat="44.49849" lon="0.98066">
        <ele>89.7</ele>
        <time>2022-08-11T11:17:15Z</time>
      </trkpt>
      <trkpt lat="44.49847" lon="0.98052">
        <ele>88.7</ele>
        <time>2022-08-11T11:17:17Z</time>
      </trkpt>
      <trkpt lat="44.49848" lon="0.9804">
        <ele>89.2</ele>
        <time>2022-08-11T11:17:19Z</time>
      </trkpt>
      <trkpt lat="44.49849" lon="0.98026">
        <ele>89.5</ele>
        <time>2022-08-11T11:17:21Z</time>
      </trkpt>
      <trkpt lat="44.49848" lon="0.98014">
        <ele>89.2</ele>
        <time>2022-08-11T11:17:23Z</time>
      </trkpt>
      <trkpt lat="44.49849" lon="0.98001">
        <ele>89.4</ele>
        <time>2022-08-11T11:17:25Z</time>
      </trkpt>
      <trkpt lat="44.49849" lon="0.97987">
        <ele>90.3</ele>
        <time>2022-08-11T11:17:27Z</time>
      </trkpt>
      <trkpt lat="44.49848" lon="0.97976">
        <ele>90.3</ele>
        <time>2022-08-11T11:17:29Z</time>
      </trkpt>
      <trkpt lat="44.49848" lon="0.97964">
        <ele>90.6</ele>
        <time>2022-08-11T11:17:31Z</time>
      </trkpt>
      <trkpt lat="44.49847" lon="0.97953">
        <ele>90.7</ele>
        <time>2022-08-11T11:17:33Z</time>
      </trkpt>
      <trkpt lat="44.49846" lon="0.9794">
        <ele>91.2</ele>
        <time>2022-08-11T11:17:35Z</time>
      </trkpt>
      <trkpt lat="44.49846" lon="0.97928">
        <ele>91.7</ele>
        <time>2022-08-11T11:17:37Z</time>
      </trkpt>
      <trkpt lat="44.49844" lon="0.97916">
        <ele>91.5</ele>
        <time>2022-08-11T11:17:39Z</time>
      </trkpt>
      <trkpt lat="44.49844" lon="0.97904">
        <ele>91.6</ele>
        <time>2022-08-11T11:17:41Z</time>
      </trkpt>
      <trkpt lat="44.49843" lon="0.97891">
        <ele>91.9</ele>
        <time>2022-08-11T11:17:43Z</time>
      </trkpt>
      <trkpt lat="44.49842" lon="0.97877">
        <ele>92</ele>
        <time>2022-08-11T11:17:45Z</time>
      </trkpt>
      <trkpt lat="44.49841" lon="0.97865">
        <ele>91.7</ele>
        <time>2022-08-11T11:17:47Z</time>
      </trkpt>
      <trkpt lat="44.49841" lon="0.97853">
        <ele>92.4</ele>
        <time>2022-08-11T11:17:49Z</time>
      </trkpt>
      <trkpt lat="44.4984" lon="0.9784">
        <ele>92.3</ele>
        <time>2022-08-11T11:17:51Z</time>
      </trkpt>
      <trkpt lat="44.49839" lon="0.97826">
        <ele>92.6</ele>
        <time>2022-08-11T11:17:53Z</time>
      </trkpt>
      <trkpt lat="44.49838" lon="0.97813">
        <ele>93.2</ele>
        <time>2022-08-11T11:17:55Z</time>
      </trkpt>
      <trkpt lat="44.49837" lon="0.97798">
        <ele>93.8</ele>
        <time>2022-08-11T11:17:57Z</time>
      </trkpt>
      <trkpt lat="44.49834" lon="0.97783">
        <ele>93.8</ele>
        <time>2022-08-11T11:17:59Z</time>
      </trkpt>
      <trkpt lat="44.49832" lon="0.9777">
        <ele>94.1</ele>
        <time>2022-08-11T11:18:01Z</time>
      </trkpt>
      <trkpt lat="44.49829" lon="0.97758">
        <ele>94.2</ele>
        <time>2022-08-11T11:18:03Z</time>
      </trkpt>
      <trkpt lat="44.49827" lon="0.97745">
        <ele>94.8</ele>
        <time>2022-08-11T11:18:05Z</time>
      </trkpt>
      <trkpt lat="44.49825" lon="0.97732">
        <ele>95.9</ele>
        <time>2022-08-11T11:18:07Z</time>
      </trkpt>
      <trkpt lat="44.49822" lon="0.97718">
        <ele>96.6</ele>
        <time>2022-08-11T11:18:09Z</time>
      </trkpt>
      <trkpt lat="44.49819" lon="0.97703">
        <ele>97.1</ele>
        <time>2022-08-11T11:18:11Z</time>
      </trkpt>
      <trkpt lat="44.49819" lon="0.97688">
        <ele>98.6</ele>
        <time>2022-08-11T11:18:13Z</time>
      </trkpt>
      <trkpt lat="44.49816" lon="0.97679">
        <ele>98.4</ele>
        <time>2022-08-11T11:18:15Z</time>
      </trkpt>
      <trkpt lat="44.49813" lon="0.97666">
        <ele>98.4</ele>
        <time>2022-08-11T11:18:17Z</time>
      </trkpt>
      <trkpt lat="44.49809" lon="0.97654">
        <ele>98.2</ele>
        <time>2022-08-11T11:18:19Z</time>
      </trkpt>
      <trkpt lat="44.49806" lon="0.97644">
        <ele>98.3</ele>
        <time>2022-08-11T11:18:21Z</time>
      </trkpt>
      <trkpt lat="44.49804" lon="0.97632">
        <ele>98.6</ele>
        <time>2022-08-11T11:18:23Z</time>
      </trkpt>
      <trkpt lat="44.498" lon="0.97622">
        <ele>97.8</ele>
        <time>2022-08-11T11:18:25Z</time>
      </trkpt>
      <trkpt lat="44.49795" lon="0.9761">
        <ele>96.9</ele>
        <time>2022-08-11T11:18:27Z</time>
      </trkpt>
      <trkpt lat="44.49791" lon="0.97597">
        <ele>96.5</ele>
        <time>2022-08-11T11:18:29Z</time>
      </trkpt>
      <trkpt lat="44.49789" lon="0.97581">
        <ele>96.8</ele>
        <time>2022-08-11T11:18:31Z</time>
      </trkpt>
      <trkpt lat="44.49786" lon="0.97566">
        <ele>97.3</ele>
        <time>2022-08-11T11:18:33Z</time>
      </trkpt>
      <trkpt lat="44.49782" lon="0.97553">
        <ele>97.2</ele>
        <time>2022-08-11T11:18:35Z</time>
      </trkpt>
      <trkpt lat="44.49778" lon="0.9754">
        <ele>96.9</ele>
        <time>2022-08-11T11:18:37Z</time>
      </trkpt>
      <trkpt lat="44.49775" lon="0.97527">
        <ele>96.5</ele>
        <time>2022-08-11T11:18:39Z</time>
      </trkpt>
      <trkpt lat="44.49771" lon="0.97515">
        <ele>95.9</ele>
        <time>2022-08-11T11:18:41Z</time>
      </trkpt>
      <trkpt lat="44.49769" lon="0.97506">
        <ele>96.1</ele>
        <time>2022-08-11T11:18:43Z</time>
      </trkpt>
      <trkpt lat="44.4977" lon="0.97496">
        <ele>97.5</ele>
        <time>2022-08-11T11:18:45Z</time>
      </trkpt>
      <trkpt lat="44.49772" lon="0.97486">
        <ele>100.3</ele>
        <time>2022-08-11T11:18:47Z</time>
      </trkpt>
      <trkpt lat="44.49774" lon="0.97476">
        <ele>102.7</ele>
        <time>2022-08-11T11:18:49Z</time>
      </trkpt>
      <trkpt lat="44.49775" lon="0.97462">
        <ele>104.8</ele>
        <time>2022-08-11T11:18:51Z</time>
      </trkpt>
      <trkpt lat="44.49769" lon="0.97446">
        <ele>103.2</ele>
        <time>2022-08-11T11:18:53Z</time>
      </trkpt>
      <trkpt lat="44.49756" lon="0.97424">
        <ele>97.6</ele>
        <time>2022-08-11T11:18:55Z</time>
      </trkpt>
      <trkpt lat="44.49748" lon="0.97409">
        <ele>95</ele>
        <time>2022-08-11T11:18:57Z</time>
      </trkpt>
      <trkpt lat="44.49743" lon="0.97393">
        <ele>95.1</ele>
        <time>2022-08-11T11:18:59Z</time>
      </trkpt>
      <trkpt lat="44.49737" lon="0.97375">
        <ele>94.8</ele>
        <time>2022-08-11T11:19:01Z</time>
      </trkpt>
      <trkpt lat="44.49729" lon="0.9736">
        <ele>93.7</ele>
        <time>2022-08-11T11:19:03Z</time>
      </trkpt>
      <trkpt lat="44.49725" lon="0.97351">
        <ele>93.2</ele>
        <time>2022-08-11T11:19:05Z</time>
      </trkpt>
      <trkpt lat="44.49723" lon="0.97342">
        <ele>93.2</ele>
        <time>2022-08-11T11:19:07Z</time>
      </trkpt>
      <trkpt lat="44.49724" lon="0.97339">
        <ele>93.5</ele>
        <time>2022-08-11T11:19:09Z</time>
      </trkpt>
      <trkpt lat="44.49721" lon="0.97331">
        <ele>93.1</ele>
        <time>2022-08-11T11:19:11Z</time>
      </trkpt>
      <trkpt lat="44.49719" lon="0.97321">
        <ele>92.4</ele>
        <time>2022-08-11T11:19:13Z</time>
      </trkpt>
      <trkpt lat="44.49715" lon="0.97312">
        <ele>91.5</ele>
        <time>2022-08-11T11:19:15Z</time>
      </trkpt>
      <trkpt lat="44.49713" lon="0.97305">
        <ele>90.8</ele>
        <time>2022-08-11T11:19:17Z</time>
      </trkpt>
      <trkpt lat="44.4971" lon="0.97297">
        <ele>90</ele>
        <time>2022-08-11T11:19:19Z</time>
      </trkpt>
      <trkpt lat="44.49708" lon="0.97288">
        <ele>89.1</ele>
        <time>2022-08-11T11:19:21Z</time>
      </trkpt>
      <trkpt lat="44.49704" lon="0.97278">
        <ele>87.8</ele>
        <time>2022-08-11T11:19:23Z</time>
      </trkpt>
      <trkpt lat="44.49701" lon="0.97268">
        <ele>86.6</ele>
        <time>2022-08-11T11:19:25Z</time>
      </trkpt>
      <trkpt lat="44.49697" lon="0.97259">
        <ele>84.8</ele>
        <time>2022-08-11T11:19:27Z</time>
      </trkpt>
      <trkpt lat="44.49694" lon="0.97249">
        <ele>83.7</ele>
        <time>2022-08-11T11:19:29Z</time>
      </trkpt>
      <trkpt lat="44.49692" lon="0.97239">
        <ele>83.1</ele>
        <time>2022-08-11T11:19:31Z</time>
      </trkpt>
      <trkpt lat="44.49688" lon="0.9723">
        <ele>82.4</ele>
        <time>2022-08-11T11:19:33Z</time>
      </trkpt>
      <trkpt lat="44.49685" lon="0.9722">
        <ele>81.9</ele>
        <time>2022-08-11T11:19:35Z</time>
      </trkpt>
      <trkpt lat="44.49682" lon="0.9721">
        <ele>81.4</ele>
        <time>2022-08-11T11:19:37Z</time>
      </trkpt>
      <trkpt lat="44.49678" lon="0.972">
        <ele>80.7</ele>
        <time>2022-08-11T11:19:39Z</time>
      </trkpt>
      <trkpt lat="44.49675" lon="0.9719">
        <ele>80.6</ele>
        <time>2022-08-11T11:19:41Z</time>
      </trkpt>
      <trkpt lat="44.49673" lon="0.97181">
        <ele>80.6</ele>
        <time>2022-08-11T11:19:43Z</time>
      </trkpt>
      <trkpt lat="44.4967" lon="0.97172">
        <ele>80.6</ele>
        <time>2022-08-11T11:19:45Z</time>
      </trkpt>
      <trkpt lat="44.49666" lon="0.97161">
        <ele>80.9</ele>
        <time>2022-08-11T11:19:47Z</time>
      </trkpt>
      <trkpt lat="44.49663" lon="0.97151">
        <ele>82.2</ele>
        <time>2022-08-11T11:19:49Z</time>
      </trkpt>
      <trkpt lat="44.49659" lon="0.97141">
        <ele>83.2</ele>
        <time>2022-08-11T11:19:51Z</time>
      </trkpt>
      <trkpt lat="44.49656" lon="0.97131">
        <ele>84.4</ele>
        <time>2022-08-11T11:19:53Z</time>
      </trkpt>
      <trkpt lat="44.49652" lon="0.9712">
        <ele>85.1</ele>
        <time>2022-08-11T11:19:55Z</time>
      </trkpt>
      <trkpt lat="44.49648" lon="0.9711">
        <ele>85.8</ele>
        <time>2022-08-11T11:19:57Z</time>
      </trkpt>
      <trkpt lat="44.49644" lon="0.971">
        <ele>86.1</ele>
        <time>2022-08-11T11:19:59Z</time>
      </trkpt>
      <trkpt lat="44.4964" lon="0.97089">
        <ele>86.6</ele>
        <time>2022-08-11T11:20:01Z</time>
      </trkpt>
      <trkpt lat="44.49635" lon="0.97079">
        <ele>86</ele>
        <time>2022-08-11T11:20:03Z</time>
      </trkpt>
      <trkpt lat="44.49631" lon="0.97068">
        <ele>85.1</ele>
        <time>2022-08-11T11:20:05Z</time>
      </trkpt>
      <trkpt lat="44.49626" lon="0.97056">
        <ele>84</ele>
        <time>2022-08-11T11:20:07Z</time>
      </trkpt>
      <trkpt lat="44.49622" lon="0.97045">
        <ele>83.1</ele>
        <time>2022-08-11T11:20:09Z</time>
      </trkpt>
      <trkpt lat="44.49619" lon="0.97034">
        <ele>82.6</ele>
        <time>2022-08-11T11:20:11Z</time>
      </trkpt>
      <trkpt lat="44.49616" lon="0.97025">
        <ele>81.7</ele>
        <time>2022-08-11T11:20:13Z</time>
      </trkpt>
      <trkpt lat="44.49612" lon="0.97014">
        <ele>80.9</ele>
        <time>2022-08-11T11:20:15Z</time>
      </trkpt>
      <trkpt lat="44.49609" lon="0.97005">
        <ele>80.2</ele>
        <time>2022-08-11T11:20:17Z</time>
      </trkpt>
      <trkpt lat="44.49604" lon="0.96994">
        <ele>79.5</ele>
        <time>2022-08-11T11:20:19Z</time>
      </trkpt>
      <trkpt lat="44.49601" lon="0.96983">
        <ele>79.7</ele>
        <time>2022-08-11T11:20:21Z</time>
      </trkpt>
      <trkpt lat="44.49598" lon="0.96974">
        <ele>79.6</ele>
        <time>2022-08-11T11:20:23Z</time>
      </trkpt>
      <trkpt lat="44.49594" lon="0.96965">
        <ele>79.4</ele>
        <time>2022-08-11T11:20:25Z</time>
      </trkpt>
      <trkpt lat="44.4959" lon="0.96956">
        <ele>79.1</ele>
        <time>2022-08-11T11:20:27Z</time>
      </trkpt>
      <trkpt lat="44.49587" lon="0.96946">
        <ele>79.3</ele>
        <time>2022-08-11T11:20:29Z</time>
      </trkpt>
      <trkpt lat="44.49584" lon="0.96936">
        <ele>79.2</ele>
        <time>2022-08-11T11:20:31Z</time>
      </trkpt>
      <trkpt lat="44.49579" lon="0.96927">
        <ele>79.5</ele>
        <time>2022-08-11T11:20:33Z</time>
      </trkpt>
      <trkpt lat="44.49575" lon="0.96916">
        <ele>79.7</ele>
        <time>2022-08-11T11:20:35Z</time>
      </trkpt>
      <trkpt lat="44.4957" lon="0.96906">
        <ele>80.1</ele>
        <time>2022-08-11T11:20:37Z</time>
      </trkpt>
      <trkpt lat="44.49567" lon="0.96896">
        <ele>80.6</ele>
        <time>2022-08-11T11:20:39Z</time>
      </trkpt>
      <trkpt lat="44.49563" lon="0.96886">
        <ele>81</ele>
        <time>2022-08-11T11:20:41Z</time>
      </trkpt>
      <trkpt lat="44.49557" lon="0.96876">
        <ele>81.1</ele>
        <time>2022-08-11T11:20:43Z</time>
      </trkpt>
      <trkpt lat="44.49554" lon="0.96867">
        <ele>81.3</ele>
        <time>2022-08-11T11:20:45Z</time>
      </trkpt>
      <trkpt lat="44.49551" lon="0.96857">
        <ele>81.7</ele>
        <time>2022-08-11T11:20:47Z</time>
      </trkpt>
      <trkpt lat="44.49548" lon="0.96848">
        <ele>81.9</ele>
        <time>2022-08-11T11:20:49Z</time>
      </trkpt>
      <trkpt lat="44.49544" lon="0.96839">
        <ele>81.9</ele>
        <time>2022-08-11T11:20:51Z</time>
      </trkpt>
      <trkpt lat="44.49539" lon="0.9683">
        <ele>81.6</ele>
        <time>2022-08-11T11:20:53Z</time>
      </trkpt>
      <trkpt lat="44.49536" lon="0.96823">
        <ele>81.1</ele>
        <time>2022-08-11T11:20:55Z</time>
      </trkpt>
      <trkpt lat="44.49533" lon="0.96816">
        <ele>80.7</ele>
        <time>2022-08-11T11:20:57Z</time>
      </trkpt>
      <trkpt lat="44.49534" lon="0.96805">
        <ele>81.1</ele>
        <time>2022-08-11T11:20:59Z</time>
      </trkpt>
      <trkpt lat="44.49532" lon="0.96794">
        <ele>81.1</ele>
        <time>2022-08-11T11:21:01Z</time>
      </trkpt>
      <trkpt lat="44.49529" lon="0.96783">
        <ele>80.9</ele>
        <time>2022-08-11T11:21:03Z</time>
      </trkpt>
      <trkpt lat="44.49527" lon="0.96766">
        <ele>81.1</ele>
        <time>2022-08-11T11:21:05Z</time>
      </trkpt>
      <trkpt lat="44.49527" lon="0.96746">
        <ele>81.5</ele>
        <time>2022-08-11T11:21:07Z</time>
      </trkpt>
      <trkpt lat="44.49517" lon="0.9676">
        <ele>79.5</ele>
        <time>2022-08-11T11:21:09Z</time>
      </trkpt>
      <trkpt lat="44.49504" lon="0.96777">
        <ele>76.4</ele>
        <time>2022-08-11T11:21:11Z</time>
      </trkpt>
      <trkpt lat="44.49499" lon="0.9677">
        <ele>76</ele>
        <time>2022-08-11T11:21:13Z</time>
      </trkpt>
      <trkpt lat="44.49497" lon="0.96763">
        <ele>76.1</ele>
        <time>2022-08-11T11:21:15Z</time>
      </trkpt>
      <trkpt lat="44.49492" lon="0.96757">
        <ele>76</ele>
        <time>2022-08-11T11:21:17Z</time>
      </trkpt>
      <trkpt lat="44.4949" lon="0.96753">
        <ele>76</ele>
        <time>2022-08-11T11:21:19Z</time>
      </trkpt>
      <trkpt lat="44.49486" lon="0.96748">
        <ele>75.9</ele>
        <time>2022-08-11T11:21:21Z</time>
      </trkpt>
      <trkpt lat="44.49484" lon="0.96744">
        <ele>75.7</ele>
        <time>2022-08-11T11:21:23Z</time>
      </trkpt>
      <trkpt lat="44.49481" lon="0.96738">
        <ele>75.5</ele>
        <time>2022-08-11T11:21:25Z</time>
      </trkpt>
      <trkpt lat="44.49479" lon="0.96734">
        <ele>75.4</ele>
        <time>2022-08-11T11:21:27Z</time>
      </trkpt>
      <trkpt lat="44.49479" lon="0.9673">
        <ele>75.4</ele>
        <time>2022-08-11T11:21:29Z</time>
      </trkpt>
      <trkpt lat="44.49479" lon="0.96732">
        <ele>75.4</ele>
        <time>2022-08-11T11:21:31Z</time>
      </trkpt>
      <trkpt lat="44.49479" lon="0.96732">
        <ele>75.4</ele>
        <time>2022-08-11T11:21:33Z</time>
      </trkpt>
      <trkpt lat="44.4948" lon="0.96733">
        <ele>75.5</ele>
        <time>2022-08-11T11:21:35Z</time>
      </trkpt>
      <trkpt lat="44.4948" lon="0.96732">
        <ele>75.5</ele>
        <time>2022-08-11T11:21:37Z</time>
      </trkpt>
      <trkpt lat="44.4948" lon="0.96731">
        <ele>75.5</ele>
        <time>2022-08-11T11:21:39Z</time>
      </trkpt>
      <trkpt lat="44.49486" lon="0.96706">
        <ele>76.2</ele>
        <time>2022-08-11T11:52:34Z</time>
      </trkpt>
      <trkpt lat="44.49486" lon="0.96706">
        <ele>76.2</ele>
        <time>2022-08-11T11:52:35Z</time>
      </trkpt>
      <trkpt lat="44.49506" lon="0.96652">
        <ele>79.2</ele>
        <time>2022-08-11T15:08:41Z</time>
      </trkpt>
      <trkpt lat="44.49489" lon="0.96656">
        <ele>77.2</ele>
        <time>2022-08-11T15:08:43Z</time>
      </trkpt>
      <trkpt lat="44.49472" lon="0.96643">
        <ele>75.8</ele>
        <time>2022-08-11T15:10:03Z</time>
      </trkpt>
      <trkpt lat="44.4947" lon="0.96638">
        <ele>75.7</ele>
        <time>2022-08-11T15:10:05Z</time>
      </trkpt>
      <trkpt lat="44.49468" lon="0.96633">
        <ele>75.6</ele>
        <time>2022-08-11T15:10:07Z</time>
      </trkpt>
      <trkpt lat="44.49467" lon="0.96627">
        <ele>75.6</ele>
        <time>2022-08-11T15:10:09Z</time>
      </trkpt>
      <trkpt lat="44.49467" lon="0.96619">
        <ele>75.8</ele>
        <time>2022-08-11T15:10:11Z</time>
      </trkpt>
      <trkpt lat="44.49467" lon="0.96611">
        <ele>75.9</ele>
        <time>2022-08-11T15:10:13Z</time>
      </trkpt>
      <trkpt lat="44.49466" lon="0.96605">
        <ele>75.9</ele>
        <time>2022-08-11T15:10:15Z</time>
      </trkpt>
      <trkpt lat="44.49466" lon="0.96599">
        <ele>76</ele>
        <time>2022-08-11T15:10:17Z</time>
      </trkpt>
      <trkpt lat="44.49466" lon="0.96594">
        <ele>76.1</ele>
        <time>2022-08-11T15:10:19Z</time>
      </trkpt>
      <trkpt lat="44.49465" lon="0.96592">
        <ele>76.1</ele>
        <time>2022-08-11T15:10:21Z</time>
      </trkpt>
      <trkpt lat="44.49462" lon="0.9659">
        <ele>75.8</ele>
        <time>2022-08-11T15:10:23Z</time>
      </trkpt>
      <trkpt lat="44.49459" lon="0.96587">
        <ele>75.5</ele>
        <time>2022-08-11T15:10:25Z</time>
      </trkpt>
      <trkpt lat="44.49455" lon="0.96585">
        <ele>75.1</ele>
        <time>2022-08-11T15:10:27Z</time>
      </trkpt>
      <trkpt lat="44.49452" lon="0.96581">
        <ele>74.9</ele>
        <time>2022-08-11T15:10:29Z</time>
      </trkpt>
      <trkpt lat="44.49449" lon="0.96575">
        <ele>74.8</ele>
        <time>2022-08-11T15:10:31Z</time>
      </trkpt>
      <trkpt lat="44.49447" lon="0.9657">
        <ele>74.9</ele>
        <time>2022-08-11T15:10:33Z</time>
      </trkpt>
      <trkpt lat="44.49446" lon="0.96568">
        <ele>74.9</ele>
        <time>2022-08-11T15:10:35Z</time>
      </trkpt>
      <trkpt lat="44.49447" lon="0.96565">
        <ele>75.1</ele>
        <time>2022-08-11T15:10:37Z</time>
      </trkpt>
      <trkpt lat="44.49446" lon="0.96558">
        <ele>75.3</ele>
        <time>2022-08-11T15:10:39Z</time>
      </trkpt>
      <trkpt lat="44.49443" lon="0.96552">
        <ele>75.1</ele>
        <time>2022-08-11T15:10:41Z</time>
      </trkpt>
      <trkpt lat="44.4944" lon="0.96546">
        <ele>75</ele>
        <time>2022-08-11T15:10:43Z</time>
      </trkpt>
      <trkpt lat="44.49437" lon="0.9654">
        <ele>74.8</ele>
        <time>2022-08-11T15:10:45Z</time>
      </trkpt>
      <trkpt lat="44.49434" lon="0.96535">
        <ele>74.4</ele>
        <time>2022-08-11T15:10:47Z</time>
      </trkpt>
      <trkpt lat="44.49432" lon="0.9653">
        <ele>74.2</ele>
        <time>2022-08-11T15:10:49Z</time>
      </trkpt>
      <trkpt lat="44.4943" lon="0.96524">
        <ele>74</ele>
        <time>2022-08-11T15:10:51Z</time>
      </trkpt>
      <trkpt lat="44.49427" lon="0.96517">
        <ele>73.8</ele>
        <time>2022-08-11T15:10:53Z</time>
      </trkpt>
      <trkpt lat="44.49424" lon="0.96511">
        <ele>73.3</ele>
        <time>2022-08-11T15:10:55Z</time>
      </trkpt>
      <trkpt lat="44.49421" lon="0.96504">
        <ele>72.9</ele>
        <time>2022-08-11T15:10:57Z</time>
      </trkpt>
      <trkpt lat="44.49419" lon="0.96496">
        <ele>72.5</ele>
        <time>2022-08-11T15:10:59Z</time>
      </trkpt>
      <trkpt lat="44.49416" lon="0.96489">
        <ele>72.1</ele>
        <time>2022-08-11T15:11:01Z</time>
      </trkpt>
      <trkpt lat="44.49412" lon="0.96483">
        <ele>72</ele>
        <time>2022-08-11T15:11:03Z</time>
      </trkpt>
      <trkpt lat="44.49409" lon="0.96474">
        <ele>72</ele>
        <time>2022-08-11T15:11:05Z</time>
      </trkpt>
      <trkpt lat="44.49409" lon="0.96465">
        <ele>72.1</ele>
        <time>2022-08-11T15:11:07Z</time>
      </trkpt>
      <trkpt lat="44.49412" lon="0.96458">
        <ele>72.3</ele>
        <time>2022-08-11T15:11:09Z</time>
      </trkpt>
      <trkpt lat="44.49413" lon="0.96453">
        <ele>72.4</ele>
        <time>2022-08-11T15:11:11Z</time>
      </trkpt>
      <trkpt lat="44.49416" lon="0.96452">
        <ele>72.5</ele>
        <time>2022-08-11T15:11:13Z</time>
      </trkpt>
      <trkpt lat="44.49417" lon="0.96445">
        <ele>72.7</ele>
        <time>2022-08-11T15:11:15Z</time>
      </trkpt>
      <trkpt lat="44.49415" lon="0.96439">
        <ele>72.7</ele>
        <time>2022-08-11T15:11:17Z</time>
      </trkpt>
      <trkpt lat="44.49412" lon="0.96433">
        <ele>72.6</ele>
        <time>2022-08-11T15:11:19Z</time>
      </trkpt>
      <trkpt lat="44.49408" lon="0.96426">
        <ele>72.5</ele>
        <time>2022-08-11T15:11:21Z</time>
      </trkpt>
      <trkpt lat="44.49404" lon="0.96419">
        <ele>72.4</ele>
        <time>2022-08-11T15:11:23Z</time>
      </trkpt>
      <trkpt lat="44.49399" lon="0.96413">
        <ele>72.4</ele>
        <time>2022-08-11T15:11:25Z</time>
      </trkpt>
      <trkpt lat="44.49395" lon="0.96405">
        <ele>72.7</ele>
        <time>2022-08-11T15:11:27Z</time>
      </trkpt>
      <trkpt lat="44.49392" lon="0.96397">
        <ele>73</ele>
        <time>2022-08-11T15:11:29Z</time>
      </trkpt>
      <trkpt lat="44.49389" lon="0.96389">
        <ele>73.3</ele>
        <time>2022-08-11T15:11:31Z</time>
      </trkpt>
      <trkpt lat="44.49385" lon="0.96383">
        <ele>73.5</ele>
        <time>2022-08-11T15:11:33Z</time>
      </trkpt>
      <trkpt lat="44.49381" lon="0.96378">
        <ele>73.5</ele>
        <time>2022-08-11T15:11:35Z</time>
      </trkpt>
      <trkpt lat="44.49376" lon="0.96373">
        <ele>73.5</ele>
        <time>2022-08-11T15:11:37Z</time>
      </trkpt>
      <trkpt lat="44.49372" lon="0.96368">
        <ele>73.5</ele>
        <time>2022-08-11T15:11:39Z</time>
      </trkpt>
      <trkpt lat="44.49369" lon="0.96363">
        <ele>73.5</ele>
        <time>2022-08-11T15:11:41Z</time>
      </trkpt>
      <trkpt lat="44.49366" lon="0.96358">
        <ele>73.5</ele>
        <time>2022-08-11T15:11:43Z</time>
      </trkpt>
      <trkpt lat="44.49365" lon="0.96351">
        <ele>73.8</ele>
        <time>2022-08-11T15:11:45Z</time>
      </trkpt>
      <trkpt lat="44.49362" lon="0.96343">
        <ele>74</ele>
        <time>2022-08-11T15:11:47Z</time>
      </trkpt>
      <trkpt lat="44.49358" lon="0.96337">
        <ele>73.9</ele>
        <time>2022-08-11T15:11:49Z</time>
      </trkpt>
      <trkpt lat="44.49351" lon="0.96337">
        <ele>73.3</ele>
        <time>2022-08-11T15:11:51Z</time>
      </trkpt>
      <trkpt lat="44.49347" lon="0.96343">
        <ele>72.7</ele>
        <time>2022-08-11T15:11:53Z</time>
      </trkpt>
      <trkpt lat="44.49344" lon="0.96351">
        <ele>72.2</ele>
        <time>2022-08-11T15:11:55Z</time>
      </trkpt>
      <trkpt lat="44.4934" lon="0.96359">
        <ele>71.6</ele>
        <time>2022-08-11T15:11:57Z</time>
      </trkpt>
      <trkpt lat="44.49336" lon="0.96368">
        <ele>70.9</ele>
        <time>2022-08-11T15:11:59Z</time>
      </trkpt>
      <trkpt lat="44.4933" lon="0.96375">
        <ele>70.5</ele>
        <time>2022-08-11T15:12:01Z</time>
      </trkpt>
      <trkpt lat="44.49323" lon="0.96384">
        <ele>70.3</ele>
        <time>2022-08-11T15:12:03Z</time>
      </trkpt>
      <trkpt lat="44.49316" lon="0.96392">
        <ele>70.2</ele>
        <time>2022-08-11T15:12:05Z</time>
      </trkpt>
      <trkpt lat="44.49308" lon="0.96401">
        <ele>70.1</ele>
        <time>2022-08-11T15:12:07Z</time>
      </trkpt>
      <trkpt lat="44.493" lon="0.9641">
        <ele>70</ele>
        <time>2022-08-11T15:12:09Z</time>
      </trkpt>
      <trkpt lat="44.49291" lon="0.9642">
        <ele>69.9</ele>
        <time>2022-08-11T15:12:11Z</time>
      </trkpt>
      <trkpt lat="44.49282" lon="0.96431">
        <ele>69.8</ele>
        <time>2022-08-11T15:12:13Z</time>
      </trkpt>
      <trkpt lat="44.49273" lon="0.96442">
        <ele>69.7</ele>
        <time>2022-08-11T15:12:15Z</time>
      </trkpt>
      <trkpt lat="44.49264" lon="0.96453">
        <ele>69.5</ele>
        <time>2022-08-11T15:12:17Z</time>
      </trkpt>
      <trkpt lat="44.49254" lon="0.96464">
        <ele>69.3</ele>
        <time>2022-08-11T15:12:19Z</time>
      </trkpt>
      <trkpt lat="44.49243" lon="0.96476">
        <ele>69.1</ele>
        <time>2022-08-11T15:12:21Z</time>
      </trkpt>
      <trkpt lat="44.49233" lon="0.96489">
        <ele>69.1</ele>
        <time>2022-08-11T15:12:23Z</time>
      </trkpt>
      <trkpt lat="44.49222" lon="0.96502">
        <ele>69</ele>
        <time>2022-08-11T15:12:25Z</time>
      </trkpt>
      <trkpt lat="44.4921" lon="0.96515">
        <ele>69.3</ele>
        <time>2022-08-11T15:12:27Z</time>
      </trkpt>
      <trkpt lat="44.49199" lon="0.96529">
        <ele>69.6</ele>
        <time>2022-08-11T15:12:29Z</time>
      </trkpt>
      <trkpt lat="44.49187" lon="0.96543">
        <ele>69.9</ele>
        <time>2022-08-11T15:12:31Z</time>
      </trkpt>
      <trkpt lat="44.49176" lon="0.96556">
        <ele>70.1</ele>
        <time>2022-08-11T15:12:33Z</time>
      </trkpt>
      <trkpt lat="44.49164" lon="0.9657">
        <ele>70.2</ele>
        <time>2022-08-11T15:12:35Z</time>
      </trkpt>
      <trkpt lat="44.49153" lon="0.96583">
        <ele>70.2</ele>
        <time>2022-08-11T15:12:37Z</time>
      </trkpt>
      <trkpt lat="44.49143" lon="0.96594">
        <ele>70.3</ele>
        <time>2022-08-11T15:12:39Z</time>
      </trkpt>
      <trkpt lat="44.49134" lon="0.96605">
        <ele>70.5</ele>
        <time>2022-08-11T15:12:41Z</time>
      </trkpt>
      <trkpt lat="44.49126" lon="0.96615">
        <ele>70.7</ele>
        <time>2022-08-11T15:12:43Z</time>
      </trkpt>
      <trkpt lat="44.49118" lon="0.96625">
        <ele>70.9</ele>
        <time>2022-08-11T15:12:45Z</time>
      </trkpt>
      <trkpt lat="44.49111" lon="0.96634">
        <ele>71.1</ele>
        <time>2022-08-11T15:12:47Z</time>
      </trkpt>
      <trkpt lat="44.49104" lon="0.96642">
        <ele>71.3</ele>
        <time>2022-08-11T15:12:49Z</time>
      </trkpt>
      <trkpt lat="44.49097" lon="0.9665">
        <ele>71.5</ele>
        <time>2022-08-11T15:12:51Z</time>
      </trkpt>
      <trkpt lat="44.4909" lon="0.96658">
        <ele>71.7</ele>
        <time>2022-08-11T15:12:53Z</time>
      </trkpt>
      <trkpt lat="44.49084" lon="0.96666">
        <ele>72</ele>
        <time>2022-08-11T15:12:55Z</time>
      </trkpt>
      <trkpt lat="44.49078" lon="0.96675">
        <ele>72.2</ele>
        <time>2022-08-11T15:12:57Z</time>
      </trkpt>
      <trkpt lat="44.49073" lon="0.96683">
        <ele>72.5</ele>
        <time>2022-08-11T15:12:59Z</time>
      </trkpt>
      <trkpt lat="44.49068" lon="0.96691">
        <ele>72.7</ele>
        <time>2022-08-11T15:13:01Z</time>
      </trkpt>
      <trkpt lat="44.49063" lon="0.967">
        <ele>72.9</ele>
        <time>2022-08-11T15:13:03Z</time>
      </trkpt>
      <trkpt lat="44.49059" lon="0.96708">
        <ele>73</ele>
        <time>2022-08-11T15:13:05Z</time>
      </trkpt>
      <trkpt lat="44.49056" lon="0.96717">
        <ele>73.1</ele>
        <time>2022-08-11T15:13:07Z</time>
      </trkpt>
      <trkpt lat="44.49053" lon="0.96724">
        <ele>73.2</ele>
        <time>2022-08-11T15:13:09Z</time>
      </trkpt>
      <trkpt lat="44.4905" lon="0.96731">
        <ele>73.3</ele>
        <time>2022-08-11T15:13:11Z</time>
      </trkpt>
      <trkpt lat="44.49048" lon="0.96738">
        <ele>73.3</ele>
        <time>2022-08-11T15:13:13Z</time>
      </trkpt>
      <trkpt lat="44.49046" lon="0.96744">
        <ele>73.4</ele>
        <time>2022-08-11T15:13:15Z</time>
      </trkpt>
      <trkpt lat="44.49042" lon="0.96748">
        <ele>73.5</ele>
        <time>2022-08-11T15:13:17Z</time>
      </trkpt>
      <trkpt lat="44.49036" lon="0.96752">
        <ele>73.7</ele>
        <time>2022-08-11T15:13:19Z</time>
      </trkpt>
      <trkpt lat="44.49033" lon="0.96759">
        <ele>73.9</ele>
        <time>2022-08-11T15:13:21Z</time>
      </trkpt>
      <trkpt lat="44.49031" lon="0.96768">
        <ele>74.1</ele>
        <time>2022-08-11T15:13:23Z</time>
      </trkpt>
      <trkpt lat="44.49033" lon="0.96776">
        <ele>74.1</ele>
        <time>2022-08-11T15:13:25Z</time>
      </trkpt>
      <trkpt lat="44.49037" lon="0.96783">
        <ele>74.1</ele>
        <time>2022-08-11T15:13:27Z</time>
      </trkpt>
      <trkpt lat="44.49043" lon="0.96787">
        <ele>73.9</ele>
        <time>2022-08-11T15:13:29Z</time>
      </trkpt>
      <trkpt lat="44.4905" lon="0.96785">
        <ele>73.6</ele>
        <time>2022-08-11T15:13:31Z</time>
      </trkpt>
      <trkpt lat="44.49056" lon="0.96781">
        <ele>73.3</ele>
        <time>2022-08-11T15:13:33Z</time>
      </trkpt>
      <trkpt lat="44.49064" lon="0.96777">
        <ele>73</ele>
        <time>2022-08-11T15:13:35Z</time>
      </trkpt>
      <trkpt lat="44.49072" lon="0.96779">
        <ele>72.8</ele>
        <time>2022-08-11T15:13:37Z</time>
      </trkpt>
      <trkpt lat="44.49078" lon="0.96789">
        <ele>72.6</ele>
        <time>2022-08-11T15:13:39Z</time>
      </trkpt>
      <trkpt lat="44.49084" lon="0.968">
        <ele>72.6</ele>
        <time>2022-08-11T15:13:41Z</time>
      </trkpt>
      <trkpt lat="44.4909" lon="0.9681">
        <ele>72.6</ele>
        <time>2022-08-11T15:13:43Z</time>
      </trkpt>
      <trkpt lat="44.49096" lon="0.96821">
        <ele>72.5</ele>
        <time>2022-08-11T15:13:45Z</time>
      </trkpt>
      <trkpt lat="44.49102" lon="0.96831">
        <ele>72.5</ele>
        <time>2022-08-11T15:13:47Z</time>
      </trkpt>
      <trkpt lat="44.49108" lon="0.96841">
        <ele>72.5</ele>
        <time>2022-08-11T15:13:49Z</time>
      </trkpt>
      <trkpt lat="44.49113" lon="0.96851">
        <ele>72.4</ele>
        <time>2022-08-11T15:13:51Z</time>
      </trkpt>
      <trkpt lat="44.49119" lon="0.96861">
        <ele>72.3</ele>
        <time>2022-08-11T15:13:53Z</time>
      </trkpt>
      <trkpt lat="44.49124" lon="0.9687">
        <ele>72.2</ele>
        <time>2022-08-11T15:13:55Z</time>
      </trkpt>
      <trkpt lat="44.4913" lon="0.9688">
        <ele>72.1</ele>
        <time>2022-08-11T15:13:57Z</time>
      </trkpt>
      <trkpt lat="44.4913" lon="0.96892">
        <ele>72.2</ele>
        <time>2022-08-11T15:13:59Z</time>
      </trkpt>
      <trkpt lat="44.49127" lon="0.96899">
        <ele>72.3</ele>
        <time>2022-08-11T15:14:01Z</time>
      </trkpt>
      <trkpt lat="44.49126" lon="0.96903">
        <ele>72.4</ele>
        <time>2022-08-11T15:14:03Z</time>
      </trkpt>
      <trkpt lat="44.49127" lon="0.96902">
        <ele>72.4</ele>
        <time>2022-08-11T15:14:05Z</time>
      </trkpt>
      <trkpt lat="44.49128" lon="0.96911">
        <ele>72.4</ele>
        <time>2022-08-11T15:14:07Z</time>
      </trkpt>
      <trkpt lat="44.4913" lon="0.96913">
        <ele>72.3</ele>
        <time>2022-08-11T15:14:09Z</time>
      </trkpt>
      <trkpt lat="44.49132" lon="0.96915">
        <ele>72.2</ele>
        <time>2022-08-11T15:14:11Z</time>
      </trkpt>
      <trkpt lat="44.49133" lon="0.96915">
        <ele>72.2</ele>
        <time>2022-08-11T15:14:13Z</time>
      </trkpt>
      <trkpt lat="44.49134" lon="0.96914">
        <ele>72.2</ele>
        <time>2022-08-11T15:14:15Z</time>
      </trkpt>
      <trkpt lat="44.49134" lon="0.96914">
        <ele>72.2</ele>
        <time>2022-08-11T15:14:19Z</time>
      </trkpt>
      <trkpt lat="44.49108" lon="0.96832">
        <ele>72.4</ele>
        <time>2022-08-11T15:29:45Z</time>
      </trkpt>
      <trkpt lat="44.49104" lon="0.96825">
        <ele>72.4</ele>
        <time>2022-08-11T15:29:47Z</time>
      </trkpt>
      <trkpt lat="44.49101" lon="0.96819">
        <ele>72.4</ele>
        <time>2022-08-11T15:29:49Z</time>
      </trkpt>
      <trkpt lat="44.49097" lon="0.96812">
        <ele>72.4</ele>
        <time>2022-08-11T15:29:51Z</time>
      </trkpt>
      <trkpt lat="44.49094" lon="0.96804">
        <ele>72.4</ele>
        <time>2022-08-11T15:29:53Z</time>
      </trkpt>
      <trkpt lat="44.49089" lon="0.96797">
        <ele>72.4</ele>
        <time>2022-08-11T15:29:55Z</time>
      </trkpt>
      <trkpt lat="44.49086" lon="0.96791">
        <ele>72.4</ele>
        <time>2022-08-11T15:29:57Z</time>
      </trkpt>
      <trkpt lat="44.49082" lon="0.96784">
        <ele>72.4</ele>
        <time>2022-08-11T15:29:59Z</time>
      </trkpt>
      <trkpt lat="44.49079" lon="0.96779">
        <ele>72.5</ele>
        <time>2022-08-11T15:30:01Z</time>
      </trkpt>
      <trkpt lat="44.49075" lon="0.96774">
        <ele>72.6</ele>
        <time>2022-08-11T15:30:03Z</time>
      </trkpt>
      <trkpt lat="44.49071" lon="0.96772">
        <ele>72.7</ele>
        <time>2022-08-11T15:30:05Z</time>
      </trkpt>
      <trkpt lat="44.49066" lon="0.9677">
        <ele>72.9</ele>
        <time>2022-08-11T15:30:07Z</time>
      </trkpt>
      <trkpt lat="44.49062" lon="0.96766">
        <ele>73</ele>
        <time>2022-08-11T15:30:09Z</time>
      </trkpt>
      <trkpt lat="44.4906" lon="0.96758">
        <ele>72.9</ele>
        <time>2022-08-11T15:30:11Z</time>
      </trkpt>
      <trkpt lat="44.49058" lon="0.9675">
        <ele>72.9</ele>
        <time>2022-08-11T15:30:13Z</time>
      </trkpt>
      <trkpt lat="44.49055" lon="0.96741">
        <ele>73</ele>
        <time>2022-08-11T15:30:15Z</time>
      </trkpt>
      <trkpt lat="44.49058" lon="0.96731">
        <ele>73</ele>
        <time>2022-08-11T15:30:17Z</time>
      </trkpt>
      <trkpt lat="44.49062" lon="0.96722">
        <ele>72.8</ele>
        <time>2022-08-11T15:30:19Z</time>
      </trkpt>
      <trkpt lat="44.49068" lon="0.96711">
        <ele>72.7</ele>
        <time>2022-08-11T15:30:21Z</time>
      </trkpt>
      <trkpt lat="44.49072" lon="0.967">
        <ele>72.5</ele>
        <time>2022-08-11T15:30:23Z</time>
      </trkpt>
      <trkpt lat="44.49079" lon="0.96689">
        <ele>72.2</ele>
        <time>2022-08-11T15:30:25Z</time>
      </trkpt>
      <trkpt lat="44.49085" lon="0.96679">
        <ele>72</ele>
        <time>2022-08-11T15:30:27Z</time>
      </trkpt>
      <trkpt lat="44.49093" lon="0.96668">
        <ele>71.8</ele>
        <time>2022-08-11T15:30:29Z</time>
      </trkpt>
      <trkpt lat="44.49101" lon="0.96658">
        <ele>71.5</ele>
        <time>2022-08-11T15:30:31Z</time>
      </trkpt>
      <trkpt lat="44.49109" lon="0.96647">
        <ele>71.2</ele>
        <time>2022-08-11T15:30:33Z</time>
      </trkpt>
      <trkpt lat="44.49118" lon="0.96636">
        <ele>70.9</ele>
        <time>2022-08-11T15:30:35Z</time>
      </trkpt>
      <trkpt lat="44.49128" lon="0.96626">
        <ele>70.7</ele>
        <time>2022-08-11T15:30:37Z</time>
      </trkpt>
      <trkpt lat="44.49137" lon="0.96615">
        <ele>70.5</ele>
        <time>2022-08-11T15:30:39Z</time>
      </trkpt>
      <trkpt lat="44.49146" lon="0.96603">
        <ele>70.3</ele>
        <time>2022-08-11T15:30:41Z</time>
      </trkpt>
      <trkpt lat="44.49156" lon="0.96592">
        <ele>70.1</ele>
        <time>2022-08-11T15:30:43Z</time>
      </trkpt>
      <trkpt lat="44.49166" lon="0.96579">
        <ele>70.1</ele>
        <time>2022-08-11T15:30:45Z</time>
      </trkpt>
      <trkpt lat="44.49176" lon="0.96567">
        <ele>69.9</ele>
        <time>2022-08-11T15:30:47Z</time>
      </trkpt>
      <trkpt lat="44.49186" lon="0.96556">
        <ele>69.8</ele>
        <time>2022-08-11T15:30:49Z</time>
      </trkpt>
      <trkpt lat="44.49195" lon="0.96544">
        <ele>69.6</ele>
        <time>2022-08-11T15:30:51Z</time>
      </trkpt>
      <trkpt lat="44.49203" lon="0.96534">
        <ele>69.5</ele>
        <time>2022-08-11T15:30:53Z</time>
      </trkpt>
      <trkpt lat="44.49211" lon="0.96525">
        <ele>69.3</ele>
        <time>2022-08-11T15:30:55Z</time>
      </trkpt>
      <trkpt lat="44.49218" lon="0.96516">
        <ele>69.1</ele>
        <time>2022-08-11T15:30:57Z</time>
      </trkpt>
      <trkpt lat="44.49225" lon="0.96509">
        <ele>68.9</ele>
        <time>2022-08-11T15:30:59Z</time>
      </trkpt>
      <trkpt lat="44.49231" lon="0.96502">
        <ele>68.7</ele>
        <time>2022-08-11T15:31:01Z</time>
      </trkpt>
      <trkpt lat="44.49236" lon="0.96495">
        <ele>68.7</ele>
        <time>2022-08-11T15:31:03Z</time>
      </trkpt>
      <trkpt lat="44.49242" lon="0.96488">
        <ele>68.7</ele>
        <time>2022-08-11T15:31:05Z</time>
      </trkpt>
      <trkpt lat="44.49247" lon="0.96482">
        <ele>68.8</ele>
        <time>2022-08-11T15:31:07Z</time>
      </trkpt>
      <trkpt lat="44.49252" lon="0.96476">
        <ele>68.8</ele>
        <time>2022-08-11T15:31:09Z</time>
      </trkpt>
      <trkpt lat="44.49258" lon="0.9647">
        <ele>69</ele>
        <time>2022-08-11T15:31:11Z</time>
      </trkpt>
      <trkpt lat="44.49263" lon="0.96464">
        <ele>69.2</ele>
        <time>2022-08-11T15:31:13Z</time>
      </trkpt>
      <trkpt lat="44.49268" lon="0.96458">
        <ele>69.3</ele>
        <time>2022-08-11T15:31:15Z</time>
      </trkpt>
      <trkpt lat="44.49273" lon="0.96452">
        <ele>69.4</ele>
        <time>2022-08-11T15:31:17Z</time>
      </trkpt>
      <trkpt lat="44.49277" lon="0.96446">
        <ele>69.5</ele>
        <time>2022-08-11T15:31:19Z</time>
      </trkpt>
      <trkpt lat="44.49282" lon="0.96441">
        <ele>69.6</ele>
        <time>2022-08-11T15:31:21Z</time>
      </trkpt>
      <trkpt lat="44.49287" lon="0.96436">
        <ele>69.6</ele>
        <time>2022-08-11T15:31:23Z</time>
      </trkpt>
      <trkpt lat="44.49291" lon="0.9643">
        <ele>69.7</ele>
        <time>2022-08-11T15:31:25Z</time>
      </trkpt>
      <trkpt lat="44.49296" lon="0.96425">
        <ele>69.7</ele>
        <time>2022-08-11T15:31:27Z</time>
      </trkpt>
      <trkpt lat="44.49301" lon="0.96419">
        <ele>69.7</ele>
        <time>2022-08-11T15:31:29Z</time>
      </trkpt>
      <trkpt lat="44.49305" lon="0.96414">
        <ele>69.8</ele>
        <time>2022-08-11T15:31:31Z</time>
      </trkpt>
      <trkpt lat="44.4931" lon="0.96408">
        <ele>69.8</ele>
        <time>2022-08-11T15:31:33Z</time>
      </trkpt>
      <trkpt lat="44.49314" lon="0.96403">
        <ele>69.9</ele>
        <time>2022-08-11T15:31:35Z</time>
      </trkpt>
      <trkpt lat="44.49319" lon="0.96397">
        <ele>70</ele>
        <time>2022-08-11T15:31:37Z</time>
      </trkpt>
      <trkpt lat="44.49323" lon="0.96392">
        <ele>70.1</ele>
        <time>2022-08-11T15:31:39Z</time>
      </trkpt>
      <trkpt lat="44.49328" lon="0.96386">
        <ele>70.2</ele>
        <time>2022-08-11T15:31:41Z</time>
      </trkpt>
      <trkpt lat="44.49333" lon="0.96381">
        <ele>70.3</ele>
        <time>2022-08-11T15:31:43Z</time>
      </trkpt>
      <trkpt lat="44.49337" lon="0.96376">
        <ele>70.7</ele>
        <time>2022-08-11T15:31:45Z</time>
      </trkpt>
      <trkpt lat="44.49341" lon="0.9637">
        <ele>71.2</ele>
        <time>2022-08-11T15:31:47Z</time>
      </trkpt>
      <trkpt lat="44.49346" lon="0.96366">
        <ele>71.7</ele>
        <time>2022-08-11T15:31:49Z</time>
      </trkpt>
      <trkpt lat="44.49352" lon="0.96363">
        <ele>72.3</ele>
        <time>2022-08-11T15:31:51Z</time>
      </trkpt>
      <trkpt lat="44.49359" lon="0.96361">
        <ele>72.9</ele>
        <time>2022-08-11T15:31:53Z</time>
      </trkpt>
      <trkpt lat="44.49364" lon="0.96352">
        <ele>73.6</ele>
        <time>2022-08-11T15:31:55Z</time>
      </trkpt>
      <trkpt lat="44.49362" lon="0.96341">
        <ele>74</ele>
        <time>2022-08-11T15:31:57Z</time>
      </trkpt>
      <trkpt lat="44.49356" lon="0.96333">
        <ele>73.9</ele>
        <time>2022-08-11T15:31:59Z</time>
      </trkpt>
      <trkpt lat="44.4935" lon="0.96327">
        <ele>73.6</ele>
        <time>2022-08-11T15:32:01Z</time>
      </trkpt>
      <trkpt lat="44.49346" lon="0.96321">
        <ele>73.5</ele>
        <time>2022-08-11T15:32:03Z</time>
      </trkpt>
      <trkpt lat="44.49342" lon="0.96314">
        <ele>73.3</ele>
        <time>2022-08-11T15:32:05Z</time>
      </trkpt>
      <trkpt lat="44.49337" lon="0.96307">
        <ele>73</ele>
        <time>2022-08-11T15:32:07Z</time>
      </trkpt>
      <trkpt lat="44.49333" lon="0.963">
        <ele>72.8</ele>
        <time>2022-08-11T15:32:09Z</time>
      </trkpt>
      <trkpt lat="44.49328" lon="0.96292">
        <ele>72.9</ele>
        <time>2022-08-11T15:32:11Z</time>
      </trkpt>
      <trkpt lat="44.49323" lon="0.96285">
        <ele>73</ele>
        <time>2022-08-11T15:32:13Z</time>
      </trkpt>
      <trkpt lat="44.49318" lon="0.96278">
        <ele>73.1</ele>
        <time>2022-08-11T15:32:15Z</time>
      </trkpt>
      <trkpt lat="44.49313" lon="0.9627">
        <ele>73.1</ele>
        <time>2022-08-11T15:32:17Z</time>
      </trkpt>
      <trkpt lat="44.49308" lon="0.96262">
        <ele>73.2</ele>
        <time>2022-08-11T15:32:19Z</time>
      </trkpt>
      <trkpt lat="44.49302" lon="0.96254">
        <ele>73.2</ele>
        <time>2022-08-11T15:32:21Z</time>
      </trkpt>
      <trkpt lat="44.49297" lon="0.96246">
        <ele>73.1</ele>
        <time>2022-08-11T15:32:23Z</time>
      </trkpt>
      <trkpt lat="44.4929" lon="0.96235">
        <ele>72.8</ele>
        <time>2022-08-11T15:32:25Z</time>
      </trkpt>
      <trkpt lat="44.49284" lon="0.96226">
        <ele>72.5</ele>
        <time>2022-08-11T15:32:27Z</time>
      </trkpt>
      <trkpt lat="44.49277" lon="0.96217">
        <ele>72.2</ele>
        <time>2022-08-11T15:32:29Z</time>
      </trkpt>
      <trkpt lat="44.4927" lon="0.96207">
        <ele>72</ele>
        <time>2022-08-11T15:32:31Z</time>
      </trkpt>
      <trkpt lat="44.49263" lon="0.96197">
        <ele>71.7</ele>
        <time>2022-08-11T15:32:33Z</time>
      </trkpt>
      <trkpt lat="44.49256" lon="0.96186">
        <ele>71.4</ele>
        <time>2022-08-11T15:32:35Z</time>
      </trkpt>
      <trkpt lat="44.49248" lon="0.96174">
        <ele>71</ele>
        <time>2022-08-11T15:32:37Z</time>
      </trkpt>
      <trkpt lat="44.4924" lon="0.96162">
        <ele>70.8</ele>
        <time>2022-08-11T15:32:39Z</time>
      </trkpt>
      <trkpt lat="44.49232" lon="0.9615">
        <ele>70.6</ele>
        <time>2022-08-11T15:32:41Z</time>
      </trkpt>
      <trkpt lat="44.49224" lon="0.96137">
        <ele>70.4</ele>
        <time>2022-08-11T15:32:43Z</time>
      </trkpt>
      <trkpt lat="44.49218" lon="0.96127">
        <ele>70.2</ele>
        <time>2022-08-11T15:32:45Z</time>
      </trkpt>
      <trkpt lat="44.49218" lon="0.96121">
        <ele>70.2</ele>
        <time>2022-08-11T15:32:47Z</time>
      </trkpt>
      <trkpt lat="44.49224" lon="0.96123">
        <ele>70.4</ele>
        <time>2022-08-11T15:32:49Z</time>
      </trkpt>
      <trkpt lat="44.49227" lon="0.9613">
        <ele>70.4</ele>
        <time>2022-08-11T15:32:51Z</time>
      </trkpt>
      <trkpt lat="44.4923" lon="0.96136">
        <ele>70.5</ele>
        <time>2022-08-11T15:32:53Z</time>
      </trkpt>
      <trkpt lat="44.49233" lon="0.96136">
        <ele>70.6</ele>
        <time>2022-08-11T15:32:55Z</time>
      </trkpt>
      <trkpt lat="44.49238" lon="0.96131">
        <ele>70.7</ele>
        <time>2022-08-11T15:32:57Z</time>
      </trkpt>
      <trkpt lat="44.49243" lon="0.96126">
        <ele>70.8</ele>
        <time>2022-08-11T15:32:59Z</time>
      </trkpt>
      <trkpt lat="44.49248" lon="0.96121">
        <ele>71</ele>
        <time>2022-08-11T15:33:01Z</time>
      </trkpt>
      <trkpt lat="44.49249" lon="0.96119">
        <ele>71</ele>
        <time>2022-08-11T15:33:03Z</time>
      </trkpt>
      <trkpt lat="44.49248" lon="0.96114">
        <ele>71</ele>
        <time>2022-08-11T15:33:05Z</time>
      </trkpt>
      <trkpt lat="44.49245" lon="0.96108">
        <ele>70.9</ele>
        <time>2022-08-11T15:33:07Z</time>
      </trkpt>
      <trkpt lat="44.49241" lon="0.96103">
        <ele>70.8</ele>
        <time>2022-08-11T15:33:09Z</time>
      </trkpt>
      <trkpt lat="44.49239" lon="0.96096">
        <ele>70.7</ele>
        <time>2022-08-11T15:33:11Z</time>
      </trkpt>
      <trkpt lat="44.49237" lon="0.9609">
        <ele>70.7</ele>
        <time>2022-08-11T15:33:13Z</time>
      </trkpt>
      <trkpt lat="44.49232" lon="0.96079">
        <ele>70.7</ele>
        <time>2022-08-11T15:33:15Z</time>
      </trkpt>
      <trkpt lat="44.49229" lon="0.96071">
        <ele>70.7</ele>
        <time>2022-08-11T15:33:17Z</time>
      </trkpt>
      <trkpt lat="44.49225" lon="0.96064">
        <ele>70.8</ele>
        <time>2022-08-11T15:33:19Z</time>
      </trkpt>
      <trkpt lat="44.49221" lon="0.96055">
        <ele>70.9</ele>
        <time>2022-08-11T15:33:21Z</time>
      </trkpt>
      <trkpt lat="44.49217" lon="0.96047">
        <ele>70.9</ele>
        <time>2022-08-11T15:33:23Z</time>
      </trkpt>
      <trkpt lat="44.49214" lon="0.96038">
        <ele>71</ele>
        <time>2022-08-11T15:33:25Z</time>
      </trkpt>
      <trkpt lat="44.4921" lon="0.96029">
        <ele>71</ele>
        <time>2022-08-11T15:33:27Z</time>
      </trkpt>
      <trkpt lat="44.49206" lon="0.9602">
        <ele>71.1</ele>
        <time>2022-08-11T15:33:29Z</time>
      </trkpt>
      <trkpt lat="44.49202" lon="0.96011">
        <ele>71.1</ele>
        <time>2022-08-11T15:33:31Z</time>
      </trkpt>
      <trkpt lat="44.49198" lon="0.96002">
        <ele>71.1</ele>
        <time>2022-08-11T15:33:33Z</time>
      </trkpt>
      <trkpt lat="44.49194" lon="0.95992">
        <ele>71.2</ele>
        <time>2022-08-11T15:33:35Z</time>
      </trkpt>
      <trkpt lat="44.4919" lon="0.95983">
        <ele>71.4</ele>
        <time>2022-08-11T15:33:37Z</time>
      </trkpt>
      <trkpt lat="44.49186" lon="0.95973">
        <ele>71.5</ele>
        <time>2022-08-11T15:33:39Z</time>
      </trkpt>
      <trkpt lat="44.49182" lon="0.95964">
        <ele>71.6</ele>
        <time>2022-08-11T15:33:41Z</time>
      </trkpt>
      <trkpt lat="44.49178" lon="0.95954">
        <ele>71.7</ele>
        <time>2022-08-11T15:33:43Z</time>
      </trkpt>
      <trkpt lat="44.49175" lon="0.95945">
        <ele>71.7</ele>
        <time>2022-08-11T15:33:45Z</time>
      </trkpt>
      <trkpt lat="44.4917" lon="0.95936">
        <ele>71.7</ele>
        <time>2022-08-11T15:33:47Z</time>
      </trkpt>
      <trkpt lat="44.49166" lon="0.95927">
        <ele>71.8</ele>
        <time>2022-08-11T15:33:49Z</time>
      </trkpt>
      <trkpt lat="44.49162" lon="0.95918">
        <ele>71.8</ele>
        <time>2022-08-11T15:33:51Z</time>
      </trkpt>
      <trkpt lat="44.49159" lon="0.95909">
        <ele>72</ele>
        <time>2022-08-11T15:33:53Z</time>
      </trkpt>
      <trkpt lat="44.49155" lon="0.959">
        <ele>72.1</ele>
        <time>2022-08-11T15:33:55Z</time>
      </trkpt>
      <trkpt lat="44.49151" lon="0.95891">
        <ele>72.2</ele>
        <time>2022-08-11T15:33:57Z</time>
      </trkpt>
      <trkpt lat="44.49147" lon="0.95881">
        <ele>72.4</ele>
        <time>2022-08-11T15:33:59Z</time>
      </trkpt>
      <trkpt lat="44.49143" lon="0.95873">
        <ele>72.4</ele>
        <time>2022-08-11T15:34:01Z</time>
      </trkpt>
      <trkpt lat="44.49139" lon="0.95864">
        <ele>72.5</ele>
        <time>2022-08-11T15:34:03Z</time>
      </trkpt>
      <trkpt lat="44.49135" lon="0.95854">
        <ele>72.6</ele>
        <time>2022-08-11T15:34:05Z</time>
      </trkpt>
      <trkpt lat="44.49131" lon="0.95845">
        <ele>72.6</ele>
        <time>2022-08-11T15:34:07Z</time>
      </trkpt>
      <trkpt lat="44.49128" lon="0.95837">
        <ele>72.6</ele>
        <time>2022-08-11T15:34:09Z</time>
      </trkpt>
      <trkpt lat="44.49124" lon="0.95828">
        <ele>72.7</ele>
        <time>2022-08-11T15:34:11Z</time>
      </trkpt>
      <trkpt lat="44.4912" lon="0.95819">
        <ele>72.9</ele>
        <time>2022-08-11T15:34:13Z</time>
      </trkpt>
      <trkpt lat="44.49116" lon="0.95811">
        <ele>72.9</ele>
        <time>2022-08-11T15:34:15Z</time>
      </trkpt>
      <trkpt lat="44.49112" lon="0.95802">
        <ele>73</ele>
        <time>2022-08-11T15:34:17Z</time>
      </trkpt>
      <trkpt lat="44.49108" lon="0.95793">
        <ele>72.9</ele>
        <time>2022-08-11T15:34:19Z</time>
      </trkpt>
      <trkpt lat="44.49104" lon="0.95784">
        <ele>72.9</ele>
        <time>2022-08-11T15:34:21Z</time>
      </trkpt>
      <trkpt lat="44.491" lon="0.95775">
        <ele>72.7</ele>
        <time>2022-08-11T15:34:23Z</time>
      </trkpt>
      <trkpt lat="44.49096" lon="0.95767">
        <ele>72.4</ele>
        <time>2022-08-11T15:34:25Z</time>
      </trkpt>
      <trkpt lat="44.49092" lon="0.95758">
        <ele>72.1</ele>
        <time>2022-08-11T15:34:27Z</time>
      </trkpt>
      <trkpt lat="44.49089" lon="0.95749">
        <ele>72</ele>
        <time>2022-08-11T15:34:29Z</time>
      </trkpt>
      <trkpt lat="44.49086" lon="0.95739">
        <ele>72.3</ele>
        <time>2022-08-11T15:34:31Z</time>
      </trkpt>
      <trkpt lat="44.49082" lon="0.9573">
        <ele>72.5</ele>
        <time>2022-08-11T15:34:33Z</time>
      </trkpt>
      <trkpt lat="44.49078" lon="0.95721">
        <ele>73</ele>
        <time>2022-08-11T15:34:35Z</time>
      </trkpt>
      <trkpt lat="44.49074" lon="0.95713">
        <ele>73.4</ele>
        <time>2022-08-11T15:34:37Z</time>
      </trkpt>
      <trkpt lat="44.4907" lon="0.95703">
        <ele>73.9</ele>
        <time>2022-08-11T15:34:39Z</time>
      </trkpt>
      <trkpt lat="44.49067" lon="0.95695">
        <ele>74.2</ele>
        <time>2022-08-11T15:34:41Z</time>
      </trkpt>
      <trkpt lat="44.49063" lon="0.95686">
        <ele>74.5</ele>
        <time>2022-08-11T15:34:43Z</time>
      </trkpt>
      <trkpt lat="44.4906" lon="0.95677">
        <ele>74.7</ele>
        <time>2022-08-11T15:34:45Z</time>
      </trkpt>
      <trkpt lat="44.49056" lon="0.95668">
        <ele>75</ele>
        <time>2022-08-11T15:34:47Z</time>
      </trkpt>
      <trkpt lat="44.49053" lon="0.95659">
        <ele>75.5</ele>
        <time>2022-08-11T15:34:49Z</time>
      </trkpt>
      <trkpt lat="44.49049" lon="0.9565">
        <ele>75.8</ele>
        <time>2022-08-11T15:34:51Z</time>
      </trkpt>
      <trkpt lat="44.49045" lon="0.95641">
        <ele>76.2</ele>
        <time>2022-08-11T15:34:53Z</time>
      </trkpt>
      <trkpt lat="44.49041" lon="0.95631">
        <ele>76.4</ele>
        <time>2022-08-11T15:34:55Z</time>
      </trkpt>
      <trkpt lat="44.49037" lon="0.95623">
        <ele>76.5</ele>
        <time>2022-08-11T15:34:57Z</time>
      </trkpt>
      <trkpt lat="44.49034" lon="0.95613">
        <ele>76.7</ele>
        <time>2022-08-11T15:34:59Z</time>
      </trkpt>
      <trkpt lat="44.4903" lon="0.95603">
        <ele>76.6</ele>
        <time>2022-08-11T15:35:01Z</time>
      </trkpt>
      <trkpt lat="44.49026" lon="0.95593">
        <ele>76.6</ele>
        <time>2022-08-11T15:35:03Z</time>
      </trkpt>
      <trkpt lat="44.49022" lon="0.95583">
        <ele>76.5</ele>
        <time>2022-08-11T15:35:05Z</time>
      </trkpt>
      <trkpt lat="44.49019" lon="0.95574">
        <ele>76.3</ele>
        <time>2022-08-11T15:35:07Z</time>
      </trkpt>
      <trkpt lat="44.49015" lon="0.95564">
        <ele>76.1</ele>
        <time>2022-08-11T15:35:09Z</time>
      </trkpt>
      <trkpt lat="44.49012" lon="0.95554">
        <ele>75.9</ele>
        <time>2022-08-11T15:35:11Z</time>
      </trkpt>
      <trkpt lat="44.49009" lon="0.95544">
        <ele>75.6</ele>
        <time>2022-08-11T15:35:13Z</time>
      </trkpt>
      <trkpt lat="44.49006" lon="0.95535">
        <ele>75.3</ele>
        <time>2022-08-11T15:35:15Z</time>
      </trkpt>
      <trkpt lat="44.49004" lon="0.95525">
        <ele>75.1</ele>
        <time>2022-08-11T15:35:17Z</time>
      </trkpt>
      <trkpt lat="44.49001" lon="0.95515">
        <ele>74.8</ele>
        <time>2022-08-11T15:35:19Z</time>
      </trkpt>
      <trkpt lat="44.48999" lon="0.95505">
        <ele>74.8</ele>
        <time>2022-08-11T15:35:21Z</time>
      </trkpt>
      <trkpt lat="44.48997" lon="0.95495">
        <ele>75</ele>
        <time>2022-08-11T15:35:23Z</time>
      </trkpt>
      <trkpt lat="44.48995" lon="0.95485">
        <ele>75.4</ele>
        <time>2022-08-11T15:35:25Z</time>
      </trkpt>
      <trkpt lat="44.48992" lon="0.95474">
        <ele>75.6</ele>
        <time>2022-08-11T15:35:27Z</time>
      </trkpt>
      <trkpt lat="44.4899" lon="0.95464">
        <ele>75.9</ele>
        <time>2022-08-11T15:35:29Z</time>
      </trkpt>
      <trkpt lat="44.48988" lon="0.95454">
        <ele>76.2</ele>
        <time>2022-08-11T15:35:31Z</time>
      </trkpt>
      <trkpt lat="44.48986" lon="0.95443">
        <ele>76.4</ele>
        <time>2022-08-11T15:35:33Z</time>
      </trkpt>
      <trkpt lat="44.48985" lon="0.95432">
        <ele>76.7</ele>
        <time>2022-08-11T15:35:35Z</time>
      </trkpt>
      <trkpt lat="44.48982" lon="0.95423">
        <ele>76.8</ele>
        <time>2022-08-11T15:35:37Z</time>
      </trkpt>
      <trkpt lat="44.48981" lon="0.95413">
        <ele>76.9</ele>
        <time>2022-08-11T15:35:39Z</time>
      </trkpt>
      <trkpt lat="44.4898" lon="0.95403">
        <ele>76.7</ele>
        <time>2022-08-11T15:35:41Z</time>
      </trkpt>
      <trkpt lat="44.48979" lon="0.95392">
        <ele>76.4</ele>
        <time>2022-08-11T15:35:43Z</time>
      </trkpt>
      <trkpt lat="44.48979" lon="0.9538">
        <ele>76.1</ele>
        <time>2022-08-11T15:35:45Z</time>
      </trkpt>
      <trkpt lat="44.48977" lon="0.95369">
        <ele>75.9</ele>
        <time>2022-08-11T15:35:47Z</time>
      </trkpt>
      <trkpt lat="44.48975" lon="0.95358">
        <ele>75.6</ele>
        <time>2022-08-11T15:35:49Z</time>
      </trkpt>
      <trkpt lat="44.48974" lon="0.95348">
        <ele>75.3</ele>
        <time>2022-08-11T15:35:51Z</time>
      </trkpt>
      <trkpt lat="44.48973" lon="0.95336">
        <ele>75.1</ele>
        <time>2022-08-11T15:35:53Z</time>
      </trkpt>
      <trkpt lat="44.48972" lon="0.95325">
        <ele>74.8</ele>
        <time>2022-08-11T15:35:55Z</time>
      </trkpt>
      <trkpt lat="44.48971" lon="0.95315">
        <ele>74.6</ele>
        <time>2022-08-11T15:35:57Z</time>
      </trkpt>
      <trkpt lat="44.48971" lon="0.95304">
        <ele>74.3</ele>
        <time>2022-08-11T15:35:59Z</time>
      </trkpt>
      <trkpt lat="44.4897" lon="0.95294">
        <ele>74.1</ele>
        <time>2022-08-11T15:36:01Z</time>
      </trkpt>
      <trkpt lat="44.48968" lon="0.95283">
        <ele>73.8</ele>
        <time>2022-08-11T15:36:03Z</time>
      </trkpt>
      <trkpt lat="44.48967" lon="0.95272">
        <ele>73.6</ele>
        <time>2022-08-11T15:36:05Z</time>
      </trkpt>
      <trkpt lat="44.48966" lon="0.95261">
        <ele>73.4</ele>
        <time>2022-08-11T15:36:07Z</time>
      </trkpt>
      <trkpt lat="44.48964" lon="0.9525">
        <ele>73.1</ele>
        <time>2022-08-11T15:36:09Z</time>
      </trkpt>
      <trkpt lat="44.48964" lon="0.95239">
        <ele>73.1</ele>
        <time>2022-08-11T15:36:11Z</time>
      </trkpt>
      <trkpt lat="44.48962" lon="0.95228">
        <ele>73.1</ele>
        <time>2022-08-11T15:36:13Z</time>
      </trkpt>
      <trkpt lat="44.48961" lon="0.95218">
        <ele>73</ele>
        <time>2022-08-11T15:36:15Z</time>
      </trkpt>
      <trkpt lat="44.4896" lon="0.95207">
        <ele>73</ele>
        <time>2022-08-11T15:36:17Z</time>
      </trkpt>
      <trkpt lat="44.48959" lon="0.95197">
        <ele>73</ele>
        <time>2022-08-11T15:36:19Z</time>
      </trkpt>
      <trkpt lat="44.48957" lon="0.95186">
        <ele>73</ele>
        <time>2022-08-11T15:36:21Z</time>
      </trkpt>
      <trkpt lat="44.48956" lon="0.95175">
        <ele>73</ele>
        <time>2022-08-11T15:36:23Z</time>
      </trkpt>
      <trkpt lat="44.48955" lon="0.95165">
        <ele>73</ele>
        <time>2022-08-11T15:36:25Z</time>
      </trkpt>
      <trkpt lat="44.48955" lon="0.95155">
        <ele>72.6</ele>
        <time>2022-08-11T15:36:27Z</time>
      </trkpt>
      <trkpt lat="44.48953" lon="0.95144">
        <ele>72.3</ele>
        <time>2022-08-11T15:36:29Z</time>
      </trkpt>
      <trkpt lat="44.48953" lon="0.95134">
        <ele>72</ele>
        <time>2022-08-11T15:36:31Z</time>
      </trkpt>
      <trkpt lat="44.48953" lon="0.95124">
        <ele>71.7</ele>
        <time>2022-08-11T15:36:33Z</time>
      </trkpt>
      <trkpt lat="44.48951" lon="0.95113">
        <ele>71.3</ele>
        <time>2022-08-11T15:36:35Z</time>
      </trkpt>
      <trkpt lat="44.48951" lon="0.95103">
        <ele>71</ele>
        <time>2022-08-11T15:36:37Z</time>
      </trkpt>
      <trkpt lat="44.48949" lon="0.95093">
        <ele>70.7</ele>
        <time>2022-08-11T15:36:39Z</time>
      </trkpt>
      <trkpt lat="44.48948" lon="0.95083">
        <ele>70.4</ele>
        <time>2022-08-11T15:36:41Z</time>
      </trkpt>
      <trkpt lat="44.48947" lon="0.95073">
        <ele>70.2</ele>
        <time>2022-08-11T15:36:43Z</time>
      </trkpt>
      <trkpt lat="44.48947" lon="0.95064">
        <ele>70</ele>
        <time>2022-08-11T15:36:45Z</time>
      </trkpt>
      <trkpt lat="44.48946" lon="0.95054">
        <ele>69.9</ele>
        <time>2022-08-11T15:36:47Z</time>
      </trkpt>
      <trkpt lat="44.48945" lon="0.95045">
        <ele>69.7</ele>
        <time>2022-08-11T15:36:49Z</time>
      </trkpt>
      <trkpt lat="44.48944" lon="0.95036">
        <ele>69.6</ele>
        <time>2022-08-11T15:36:51Z</time>
      </trkpt>
      <trkpt lat="44.48944" lon="0.95025">
        <ele>69.4</ele>
        <time>2022-08-11T15:36:53Z</time>
      </trkpt>
      <trkpt lat="44.48943" lon="0.95015">
        <ele>69.2</ele>
        <time>2022-08-11T15:36:55Z</time>
      </trkpt>
      <trkpt lat="44.48942" lon="0.95006">
        <ele>69.1</ele>
        <time>2022-08-11T15:36:57Z</time>
      </trkpt>
      <trkpt lat="44.48941" lon="0.94996">
        <ele>69</ele>
        <time>2022-08-11T15:36:59Z</time>
      </trkpt>
      <trkpt lat="44.4894" lon="0.94986">
        <ele>69.1</ele>
        <time>2022-08-11T15:37:01Z</time>
      </trkpt>
      <trkpt lat="44.48939" lon="0.94976">
        <ele>69.2</ele>
        <time>2022-08-11T15:37:03Z</time>
      </trkpt>
      <trkpt lat="44.48938" lon="0.94966">
        <ele>69.3</ele>
        <time>2022-08-11T15:37:05Z</time>
      </trkpt>
      <trkpt lat="44.48938" lon="0.94956">
        <ele>69.4</ele>
        <time>2022-08-11T15:37:07Z</time>
      </trkpt>
      <trkpt lat="44.48936" lon="0.94945">
        <ele>69.5</ele>
        <time>2022-08-11T15:37:09Z</time>
      </trkpt>
      <trkpt lat="44.48935" lon="0.94934">
        <ele>69.6</ele>
        <time>2022-08-11T15:37:11Z</time>
      </trkpt>
      <trkpt lat="44.48934" lon="0.94924">
        <ele>69.7</ele>
        <time>2022-08-11T15:37:13Z</time>
      </trkpt>
      <trkpt lat="44.48934" lon="0.94914">
        <ele>69.8</ele>
        <time>2022-08-11T15:37:15Z</time>
      </trkpt>
      <trkpt lat="44.48933" lon="0.94903">
        <ele>69.9</ele>
        <time>2022-08-11T15:37:17Z</time>
      </trkpt>
      <trkpt lat="44.48932" lon="0.94893">
        <ele>70.1</ele>
        <time>2022-08-11T15:37:19Z</time>
      </trkpt>
      <trkpt lat="44.48931" lon="0.94882">
        <ele>70.2</ele>
        <time>2022-08-11T15:37:21Z</time>
      </trkpt>
      <trkpt lat="44.48929" lon="0.94871">
        <ele>70.3</ele>
        <time>2022-08-11T15:37:23Z</time>
      </trkpt>
      <trkpt lat="44.48928" lon="0.9486">
        <ele>70.5</ele>
        <time>2022-08-11T15:37:25Z</time>
      </trkpt>
      <trkpt lat="44.48927" lon="0.94849">
        <ele>70.6</ele>
        <time>2022-08-11T15:37:27Z</time>
      </trkpt>
      <trkpt lat="44.48926" lon="0.94838">
        <ele>70.7</ele>
        <time>2022-08-11T15:37:29Z</time>
      </trkpt>
      <trkpt lat="44.48925" lon="0.94826">
        <ele>71</ele>
        <time>2022-08-11T15:37:31Z</time>
      </trkpt>
      <trkpt lat="44.48925" lon="0.94817">
        <ele>71.2</ele>
        <time>2022-08-11T15:37:33Z</time>
      </trkpt>
      <trkpt lat="44.48923" lon="0.94805">
        <ele>71.5</ele>
        <time>2022-08-11T15:37:35Z</time>
      </trkpt>
      <trkpt lat="44.48922" lon="0.94794">
        <ele>71.8</ele>
        <time>2022-08-11T15:37:37Z</time>
      </trkpt>
      <trkpt lat="44.48921" lon="0.94783">
        <ele>72.1</ele>
        <time>2022-08-11T15:37:39Z</time>
      </trkpt>
      <trkpt lat="44.4892" lon="0.94773">
        <ele>72.3</ele>
        <time>2022-08-11T15:37:41Z</time>
      </trkpt>
      <trkpt lat="44.48919" lon="0.94762">
        <ele>72.6</ele>
        <time>2022-08-11T15:37:43Z</time>
      </trkpt>
      <trkpt lat="44.48918" lon="0.94751">
        <ele>72.9</ele>
        <time>2022-08-11T15:37:45Z</time>
      </trkpt>
      <trkpt lat="44.48917" lon="0.94741">
        <ele>73</ele>
        <time>2022-08-11T15:37:47Z</time>
      </trkpt>
      <trkpt lat="44.48916" lon="0.9473">
        <ele>73</ele>
        <time>2022-08-11T15:37:49Z</time>
      </trkpt>
      <trkpt lat="44.48915" lon="0.94719">
        <ele>72.9</ele>
        <time>2022-08-11T15:37:51Z</time>
      </trkpt>
      <trkpt lat="44.48914" lon="0.94708">
        <ele>72.9</ele>
        <time>2022-08-11T15:37:53Z</time>
      </trkpt>
      <trkpt lat="44.48913" lon="0.94697">
        <ele>72.9</ele>
        <time>2022-08-11T15:37:55Z</time>
      </trkpt>
      <trkpt lat="44.48912" lon="0.94688">
        <ele>72.9</ele>
        <time>2022-08-11T15:37:57Z</time>
      </trkpt>
      <trkpt lat="44.48911" lon="0.94678">
        <ele>72.9</ele>
        <time>2022-08-11T15:37:59Z</time>
      </trkpt>
      <trkpt lat="44.4891" lon="0.94669">
        <ele>72.9</ele>
        <time>2022-08-11T15:38:01Z</time>
      </trkpt>
      <trkpt lat="44.48909" lon="0.94659">
        <ele>73.3</ele>
        <time>2022-08-11T15:38:03Z</time>
      </trkpt>
      <trkpt lat="44.48908" lon="0.94648">
        <ele>73.7</ele>
        <time>2022-08-11T15:38:05Z</time>
      </trkpt>
      <trkpt lat="44.48907" lon="0.94637">
        <ele>74.2</ele>
        <time>2022-08-11T15:38:07Z</time>
      </trkpt>
      <trkpt lat="44.48906" lon="0.94627">
        <ele>74.6</ele>
        <time>2022-08-11T15:38:09Z</time>
      </trkpt>
      <trkpt lat="44.48906" lon="0.94619">
        <ele>74.9</ele>
        <time>2022-08-11T15:38:11Z</time>
      </trkpt>
      <trkpt lat="44.48905" lon="0.94611">
        <ele>75.2</ele>
        <time>2022-08-11T15:38:13Z</time>
      </trkpt>
      <trkpt lat="44.48906" lon="0.94609">
        <ele>75.4</ele>
        <time>2022-08-11T15:38:15Z</time>
      </trkpt>
      <trkpt lat="44.48907" lon="0.94609">
        <ele>75.4</ele>
        <time>2022-08-11T15:38:17Z</time>
      </trkpt>
      <trkpt lat="44.48906" lon="0.94607">
        <ele>75.4</ele>
        <time>2022-08-11T15:38:19Z</time>
      </trkpt>
      <trkpt lat="44.48905" lon="0.94604">
        <ele>75.6</ele>
        <time>2022-08-11T15:38:21Z</time>
      </trkpt>
      <trkpt lat="44.48904" lon="0.94602">
        <ele>75.6</ele>
        <time>2022-08-11T15:38:23Z</time>
      </trkpt>
      <trkpt lat="44.48902" lon="0.94598">
        <ele>75.7</ele>
        <time>2022-08-11T15:38:25Z</time>
      </trkpt>
      <trkpt lat="44.48902" lon="0.94591">
        <ele>76</ele>
        <time>2022-08-11T15:38:27Z</time>
      </trkpt>
      <trkpt lat="44.48903" lon="0.94585">
        <ele>76.3</ele>
        <time>2022-08-11T15:38:29Z</time>
      </trkpt>
      <trkpt lat="44.48902" lon="0.94582">
        <ele>76.4</ele>
        <time>2022-08-11T15:38:31Z</time>
      </trkpt>
      <trkpt lat="44.489" lon="0.94578">
        <ele>76.6</ele>
        <time>2022-08-11T15:38:33Z</time>
      </trkpt>
      <trkpt lat="44.48899" lon="0.94574">
        <ele>76.8</ele>
        <time>2022-08-11T15:38:35Z</time>
      </trkpt>
      <trkpt lat="44.48897" lon="0.94568">
        <ele>77.1</ele>
        <time>2022-08-11T15:38:37Z</time>
      </trkpt>
      <trkpt lat="44.48895" lon="0.94562">
        <ele>77.4</ele>
        <time>2022-08-11T15:38:39Z</time>
      </trkpt>
      <trkpt lat="44.48893" lon="0.94557">
        <ele>77.7</ele>
        <time>2022-08-11T15:38:41Z</time>
      </trkpt>
      <trkpt lat="44.48891" lon="0.94556">
        <ele>77.7</ele>
        <time>2022-08-11T15:38:43Z</time>
      </trkpt>
      <trkpt lat="44.48885" lon="0.94553">
        <ele>77.5</ele>
        <time>2022-08-11T15:38:45Z</time>
      </trkpt>
      <trkpt lat="44.48882" lon="0.9455">
        <ele>77.6</ele>
        <time>2022-08-11T15:38:47Z</time>
      </trkpt>
      <trkpt lat="44.48882" lon="0.94547">
        <ele>77.8</ele>
        <time>2022-08-11T15:38:49Z</time>
      </trkpt>
      <trkpt lat="44.48882" lon="0.94542">
        <ele>78.1</ele>
        <time>2022-08-11T15:38:51Z</time>
      </trkpt>
      <trkpt lat="44.48882" lon="0.94537">
        <ele>78.4</ele>
        <time>2022-08-11T15:38:53Z</time>
      </trkpt>
      <trkpt lat="44.48883" lon="0.94532">
        <ele>78.8</ele>
        <time>2022-08-11T15:38:55Z</time>
      </trkpt>
      <trkpt lat="44.48882" lon="0.94526">
        <ele>79.2</ele>
        <time>2022-08-11T15:38:57Z</time>
      </trkpt>
      <trkpt lat="44.48881" lon="0.94521">
        <ele>79.5</ele>
        <time>2022-08-11T15:38:59Z</time>
      </trkpt>
      <trkpt lat="44.4888" lon="0.94516">
        <ele>79.8</ele>
        <time>2022-08-11T15:39:01Z</time>
      </trkpt>
      <trkpt lat="44.48879" lon="0.94512">
        <ele>79.9</ele>
        <time>2022-08-11T15:39:03Z</time>
      </trkpt>
      <trkpt lat="44.48877" lon="0.94506">
        <ele>80.2</ele>
        <time>2022-08-11T15:39:05Z</time>
      </trkpt>
      <trkpt lat="44.48876" lon="0.94502">
        <ele>80.4</ele>
        <time>2022-08-11T15:39:07Z</time>
      </trkpt>
      <trkpt lat="44.48874" lon="0.94494">
        <ele>80.5</ele>
        <time>2022-08-11T15:39:09Z</time>
      </trkpt>
      <trkpt lat="44.48873" lon="0.94487">
        <ele>80.5</ele>
        <time>2022-08-11T15:39:11Z</time>
      </trkpt>
      <trkpt lat="44.48872" lon="0.94481">
        <ele>80.6</ele>
        <time>2022-08-11T15:39:13Z</time>
      </trkpt>
      <trkpt lat="44.4887" lon="0.94475">
        <ele>80.5</ele>
        <time>2022-08-11T15:39:15Z</time>
      </trkpt>
      <trkpt lat="44.48868" lon="0.94469">
        <ele>80.5</ele>
        <time>2022-08-11T15:39:17Z</time>
      </trkpt>
      <trkpt lat="44.48865" lon="0.94464">
        <ele>80.5</ele>
        <time>2022-08-11T15:39:19Z</time>
      </trkpt>
      <trkpt lat="44.48863" lon="0.94458">
        <ele>80.4</ele>
        <time>2022-08-11T15:39:21Z</time>
      </trkpt>
      <trkpt lat="44.48861" lon="0.94453">
        <ele>80.4</ele>
        <time>2022-08-11T15:39:23Z</time>
      </trkpt>
      <trkpt lat="44.48859" lon="0.94448">
        <ele>80.4</ele>
        <time>2022-08-11T15:39:25Z</time>
      </trkpt>
      <trkpt lat="44.48857" lon="0.94443">
        <ele>80.4</ele>
        <time>2022-08-11T15:39:27Z</time>
      </trkpt>
      <trkpt lat="44.48856" lon="0.94438">
        <ele>80.4</ele>
        <time>2022-08-11T15:39:29Z</time>
      </trkpt>
      <trkpt lat="44.48853" lon="0.94433">
        <ele>80.4</ele>
        <time>2022-08-11T15:39:31Z</time>
      </trkpt>
      <trkpt lat="44.48851" lon="0.94427">
        <ele>80.4</ele>
        <time>2022-08-11T15:39:33Z</time>
      </trkpt>
      <trkpt lat="44.48848" lon="0.94421">
        <ele>80.4</ele>
        <time>2022-08-11T15:39:35Z</time>
      </trkpt>
      <trkpt lat="44.48845" lon="0.94416">
        <ele>80.4</ele>
        <time>2022-08-11T15:39:37Z</time>
      </trkpt>
      <trkpt lat="44.48842" lon="0.9441">
        <ele>80.2</ele>
        <time>2022-08-11T15:39:39Z</time>
      </trkpt>
      <trkpt lat="44.48839" lon="0.94404">
        <ele>80</ele>
        <time>2022-08-11T15:39:41Z</time>
      </trkpt>
      <trkpt lat="44.48835" lon="0.94398">
        <ele>79.8</ele>
        <time>2022-08-11T15:39:43Z</time>
      </trkpt>
      <trkpt lat="44.48831" lon="0.94392">
        <ele>79.6</ele>
        <time>2022-08-11T15:39:45Z</time>
      </trkpt>
      <trkpt lat="44.48828" lon="0.94387">
        <ele>79.5</ele>
        <time>2022-08-11T15:39:47Z</time>
      </trkpt>
      <trkpt lat="44.48825" lon="0.94382">
        <ele>79.3</ele>
        <time>2022-08-11T15:39:49Z</time>
      </trkpt>
      <trkpt lat="44.48822" lon="0.94377">
        <ele>79.2</ele>
        <time>2022-08-11T15:39:51Z</time>
      </trkpt>
      <trkpt lat="44.48819" lon="0.94373">
        <ele>79.1</ele>
        <time>2022-08-11T15:39:53Z</time>
      </trkpt>
      <trkpt lat="44.48816" lon="0.94369">
        <ele>79</ele>
        <time>2022-08-11T15:39:55Z</time>
      </trkpt>
      <trkpt lat="44.48813" lon="0.94366">
        <ele>78.9</ele>
        <time>2022-08-11T15:39:57Z</time>
      </trkpt>
      <trkpt lat="44.4881" lon="0.94366">
        <ele>78.8</ele>
        <time>2022-08-11T15:39:59Z</time>
      </trkpt>
      <trkpt lat="44.48805" lon="0.94366">
        <ele>78.7</ele>
        <time>2022-08-11T15:40:01Z</time>
      </trkpt>
      <trkpt lat="44.48802" lon="0.94368">
        <ele>78.6</ele>
        <time>2022-08-11T15:40:03Z</time>
      </trkpt>
      <trkpt lat="44.48799" lon="0.94364">
        <ele>78.5</ele>
        <time>2022-08-11T15:40:05Z</time>
      </trkpt>
      <trkpt lat="44.48801" lon="0.94356">
        <ele>78.6</ele>
        <time>2022-08-11T15:40:07Z</time>
      </trkpt>
      <trkpt lat="44.48805" lon="0.94351">
        <ele>78.7</ele>
        <time>2022-08-11T15:40:09Z</time>
      </trkpt>
      <trkpt lat="44.48809" lon="0.94346">
        <ele>78.7</ele>
        <time>2022-08-11T15:40:11Z</time>
      </trkpt>
      <trkpt lat="44.48812" lon="0.94339">
        <ele>78.8</ele>
        <time>2022-08-11T15:40:13Z</time>
      </trkpt>
      <trkpt lat="44.48816" lon="0.94331">
        <ele>78.8</ele>
        <time>2022-08-11T15:40:15Z</time>
      </trkpt>
      <trkpt lat="44.48821" lon="0.94325">
        <ele>78.7</ele>
        <time>2022-08-11T15:40:17Z</time>
      </trkpt>
      <trkpt lat="44.48825" lon="0.94318">
        <ele>78.7</ele>
        <time>2022-08-11T15:40:19Z</time>
      </trkpt>
      <trkpt lat="44.48828" lon="0.94311">
        <ele>78.7</ele>
        <time>2022-08-11T15:40:21Z</time>
      </trkpt>
      <trkpt lat="44.48832" lon="0.94303">
        <ele>78.6</ele>
        <time>2022-08-11T15:40:23Z</time>
      </trkpt>
      <trkpt lat="44.48836" lon="0.94296">
        <ele>78.7</ele>
        <time>2022-08-11T15:40:25Z</time>
      </trkpt>
      <trkpt lat="44.4884" lon="0.94289">
        <ele>78.8</ele>
        <time>2022-08-11T15:40:27Z</time>
      </trkpt>
      <trkpt lat="44.48844" lon="0.94282">
        <ele>78.9</ele>
        <time>2022-08-11T15:40:29Z</time>
      </trkpt>
      <trkpt lat="44.48848" lon="0.94275">
        <ele>79</ele>
        <time>2022-08-11T15:40:31Z</time>
      </trkpt>
      <trkpt lat="44.48853" lon="0.94268">
        <ele>79.2</ele>
        <time>2022-08-11T15:40:33Z</time>
      </trkpt>
      <trkpt lat="44.48857" lon="0.94261">
        <ele>79.4</ele>
        <time>2022-08-11T15:40:35Z</time>
      </trkpt>
      <trkpt lat="44.48861" lon="0.94253">
        <ele>79.7</ele>
        <time>2022-08-11T15:40:37Z</time>
      </trkpt>
      <trkpt lat="44.48865" lon="0.94246">
        <ele>79.9</ele>
        <time>2022-08-11T15:40:39Z</time>
      </trkpt>
      <trkpt lat="44.48869" lon="0.94239">
        <ele>80.1</ele>
        <time>2022-08-11T15:40:41Z</time>
      </trkpt>
      <trkpt lat="44.48873" lon="0.94232">
        <ele>80.4</ele>
        <time>2022-08-11T15:40:43Z</time>
      </trkpt>
      <trkpt lat="44.48877" lon="0.94225">
        <ele>80.6</ele>
        <time>2022-08-11T15:40:45Z</time>
      </trkpt>
      <trkpt lat="44.48881" lon="0.94219">
        <ele>80.8</ele>
        <time>2022-08-11T15:40:47Z</time>
      </trkpt>
      <trkpt lat="44.48884" lon="0.94213">
        <ele>81.1</ele>
        <time>2022-08-11T15:40:49Z</time>
      </trkpt>
      <trkpt lat="44.48888" lon="0.94207">
        <ele>81.3</ele>
        <time>2022-08-11T15:40:51Z</time>
      </trkpt>
      <trkpt lat="44.48891" lon="0.94201">
        <ele>81.5</ele>
        <time>2022-08-11T15:40:53Z</time>
      </trkpt>
      <trkpt lat="44.48894" lon="0.94195">
        <ele>81.7</ele>
        <time>2022-08-11T15:40:55Z</time>
      </trkpt>
      <trkpt lat="44.48897" lon="0.94189">
        <ele>81.8</ele>
        <time>2022-08-11T15:40:57Z</time>
      </trkpt>
      <trkpt lat="44.48901" lon="0.94183">
        <ele>82</ele>
        <time>2022-08-11T15:40:59Z</time>
      </trkpt>
      <trkpt lat="44.48903" lon="0.94178">
        <ele>82.2</ele>
        <time>2022-08-11T15:41:01Z</time>
      </trkpt>
      <trkpt lat="44.48907" lon="0.94173">
        <ele>82.4</ele>
        <time>2022-08-11T15:41:03Z</time>
      </trkpt>
      <trkpt lat="44.4891" lon="0.94168">
        <ele>82.6</ele>
        <time>2022-08-11T15:41:05Z</time>
      </trkpt>
      <trkpt lat="44.48912" lon="0.94163">
        <ele>82.8</ele>
        <time>2022-08-11T15:41:07Z</time>
      </trkpt>
      <trkpt lat="44.48915" lon="0.94158">
        <ele>83.1</ele>
        <time>2022-08-11T15:41:09Z</time>
      </trkpt>
      <trkpt lat="44.48918" lon="0.94153">
        <ele>83.5</ele>
        <time>2022-08-11T15:41:11Z</time>
      </trkpt>
      <trkpt lat="44.48922" lon="0.94148">
        <ele>83.9</ele>
        <time>2022-08-11T15:41:13Z</time>
      </trkpt>
      <trkpt lat="44.48925" lon="0.94143">
        <ele>84.4</ele>
        <time>2022-08-11T15:41:15Z</time>
      </trkpt>
      <trkpt lat="44.48928" lon="0.94139">
        <ele>84.9</ele>
        <time>2022-08-11T15:41:17Z</time>
      </trkpt>
      <trkpt lat="44.48931" lon="0.94135">
        <ele>85.3</ele>
        <time>2022-08-11T15:41:19Z</time>
      </trkpt>
      <trkpt lat="44.48934" lon="0.94131">
        <ele>85.8</ele>
        <time>2022-08-11T15:41:21Z</time>
      </trkpt>
      <trkpt lat="44.48937" lon="0.94126">
        <ele>86.3</ele>
        <time>2022-08-11T15:41:23Z</time>
      </trkpt>
      <trkpt lat="44.48938" lon="0.9412">
        <ele>86.7</ele>
        <time>2022-08-11T15:41:25Z</time>
      </trkpt>
      <trkpt lat="44.48942" lon="0.94116">
        <ele>87.2</ele>
        <time>2022-08-11T15:41:27Z</time>
      </trkpt>
      <trkpt lat="44.48946" lon="0.94113">
        <ele>87.9</ele>
        <time>2022-08-11T15:41:29Z</time>
      </trkpt>
      <trkpt lat="44.48949" lon="0.9411">
        <ele>88.5</ele>
        <time>2022-08-11T15:41:31Z</time>
      </trkpt>
      <trkpt lat="44.48953" lon="0.94107">
        <ele>89</ele>
        <time>2022-08-11T15:41:33Z</time>
      </trkpt>
      <trkpt lat="44.48957" lon="0.94105">
        <ele>89.6</ele>
        <time>2022-08-11T15:41:35Z</time>
      </trkpt>
      <trkpt lat="44.48961" lon="0.94103">
        <ele>90.2</ele>
        <time>2022-08-11T15:41:37Z</time>
      </trkpt>
      <trkpt lat="44.48965" lon="0.94102">
        <ele>90.8</ele>
        <time>2022-08-11T15:41:39Z</time>
      </trkpt>
      <trkpt lat="44.48969" lon="0.94102">
        <ele>91.4</ele>
        <time>2022-08-11T15:41:41Z</time>
      </trkpt>
      <trkpt lat="44.48973" lon="0.94101">
        <ele>92</ele>
        <time>2022-08-11T15:41:43Z</time>
      </trkpt>
      <trkpt lat="44.48977" lon="0.94101">
        <ele>92.5</ele>
        <time>2022-08-11T15:41:45Z</time>
      </trkpt>
      <trkpt lat="44.48981" lon="0.94102">
        <ele>92.9</ele>
        <time>2022-08-11T15:41:47Z</time>
      </trkpt>
      <trkpt lat="44.48985" lon="0.94104">
        <ele>93.3</ele>
        <time>2022-08-11T15:41:49Z</time>
      </trkpt>
      <trkpt lat="44.48989" lon="0.94106">
        <ele>93.6</ele>
        <time>2022-08-11T15:41:51Z</time>
      </trkpt>
      <trkpt lat="44.48992" lon="0.94108">
        <ele>93.9</ele>
        <time>2022-08-11T15:41:53Z</time>
      </trkpt>
      <trkpt lat="44.48996" lon="0.94111">
        <ele>94.1</ele>
        <time>2022-08-11T15:41:55Z</time>
      </trkpt>
      <trkpt lat="44.49" lon="0.94114">
        <ele>94.4</ele>
        <time>2022-08-11T15:41:57Z</time>
      </trkpt>
      <trkpt lat="44.49003" lon="0.94117">
        <ele>94.7</ele>
        <time>2022-08-11T15:41:59Z</time>
      </trkpt>
      <trkpt lat="44.49007" lon="0.94121">
        <ele>95.1</ele>
        <time>2022-08-11T15:42:01Z</time>
      </trkpt>
      <trkpt lat="44.4901" lon="0.94125">
        <ele>95.3</ele>
        <time>2022-08-11T15:42:03Z</time>
      </trkpt>
      <trkpt lat="44.49013" lon="0.94129">
        <ele>95.4</ele>
        <time>2022-08-11T15:42:05Z</time>
      </trkpt>
      <trkpt lat="44.49016" lon="0.94133">
        <ele>95.6</ele>
        <time>2022-08-11T15:42:07Z</time>
      </trkpt>
      <trkpt lat="44.49019" lon="0.94137">
        <ele>95.8</ele>
        <time>2022-08-11T15:42:09Z</time>
      </trkpt>
      <trkpt lat="44.49022" lon="0.94142">
        <ele>96</ele>
        <time>2022-08-11T15:42:11Z</time>
      </trkpt>
      <trkpt lat="44.49025" lon="0.94146">
        <ele>96.1</ele>
        <time>2022-08-11T15:42:13Z</time>
      </trkpt>
      <trkpt lat="44.49028" lon="0.9415">
        <ele>96.3</ele>
        <time>2022-08-11T15:42:15Z</time>
      </trkpt>
      <trkpt lat="44.4903" lon="0.94154">
        <ele>96.5</ele>
        <time>2022-08-11T15:42:17Z</time>
      </trkpt>
      <trkpt lat="44.49032" lon="0.94158">
        <ele>96.5</ele>
        <time>2022-08-11T15:42:19Z</time>
      </trkpt>
      <trkpt lat="44.49035" lon="0.94163">
        <ele>96.5</ele>
        <time>2022-08-11T15:42:21Z</time>
      </trkpt>
      <trkpt lat="44.49037" lon="0.94167">
        <ele>96.7</ele>
        <time>2022-08-11T15:42:23Z</time>
      </trkpt>
      <trkpt lat="44.49039" lon="0.94171">
        <ele>96.8</ele>
        <time>2022-08-11T15:42:25Z</time>
      </trkpt>
      <trkpt lat="44.49042" lon="0.94175">
        <ele>97</ele>
        <time>2022-08-11T15:42:27Z</time>
      </trkpt>
      <trkpt lat="44.49044" lon="0.94178">
        <ele>97.2</ele>
        <time>2022-08-11T15:42:29Z</time>
      </trkpt>
      <trkpt lat="44.49046" lon="0.94182">
        <ele>97.3</ele>
        <time>2022-08-11T15:42:31Z</time>
      </trkpt>
      <trkpt lat="44.49049" lon="0.94186">
        <ele>97.6</ele>
        <time>2022-08-11T15:42:33Z</time>
      </trkpt>
      <trkpt lat="44.49051" lon="0.9419">
        <ele>97.7</ele>
        <time>2022-08-11T15:42:35Z</time>
      </trkpt>
      <trkpt lat="44.49054" lon="0.94195">
        <ele>97.9</ele>
        <time>2022-08-11T15:42:37Z</time>
      </trkpt>
      <trkpt lat="44.49056" lon="0.94198">
        <ele>98.1</ele>
        <time>2022-08-11T15:42:39Z</time>
      </trkpt>
      <trkpt lat="44.49058" lon="0.94201">
        <ele>98.2</ele>
        <time>2022-08-11T15:42:41Z</time>
      </trkpt>
      <trkpt lat="44.49059" lon="0.94204">
        <ele>98.2</ele>
        <time>2022-08-11T15:42:43Z</time>
      </trkpt>
      <trkpt lat="44.49061" lon="0.94207">
        <ele>98.4</ele>
        <time>2022-08-11T15:42:45Z</time>
      </trkpt>
      <trkpt lat="44.49063" lon="0.9421">
        <ele>98.5</ele>
        <time>2022-08-11T15:42:47Z</time>
      </trkpt>
      <trkpt lat="44.49065" lon="0.94212">
        <ele>98.7</ele>
        <time>2022-08-11T15:42:49Z</time>
      </trkpt>
      <trkpt lat="44.49093" lon="0.94227">
        <ele>100.7</ele>
        <time>2022-08-11T15:43:09Z</time>
      </trkpt>
      <trkpt lat="44.49096" lon="0.94229">
        <ele>100.7</ele>
        <time>2022-08-11T15:43:11Z</time>
      </trkpt>
      <trkpt lat="44.49098" lon="0.94232">
        <ele>100.5</ele>
        <time>2022-08-11T15:43:13Z</time>
      </trkpt>
      <trkpt lat="44.491" lon="0.94235">
        <ele>100.3</ele>
        <time>2022-08-11T15:43:15Z</time>
      </trkpt>
      <trkpt lat="44.49101" lon="0.94238">
        <ele>100.1</ele>
        <time>2022-08-11T15:43:17Z</time>
      </trkpt>
      <trkpt lat="44.49102" lon="0.94241">
        <ele>99.9</ele>
        <time>2022-08-11T15:43:19Z</time>
      </trkpt>
      <trkpt lat="44.49102" lon="0.94244">
        <ele>99.7</ele>
        <time>2022-08-11T15:43:21Z</time>
      </trkpt>
      <trkpt lat="44.49103" lon="0.94248">
        <ele>99.4</ele>
        <time>2022-08-11T15:43:23Z</time>
      </trkpt>
      <trkpt lat="44.49106" lon="0.94249">
        <ele>99.4</ele>
        <time>2022-08-11T15:43:25Z</time>
      </trkpt>
      <trkpt lat="44.49107" lon="0.94247">
        <ele>99.5</ele>
        <time>2022-08-11T15:43:27Z</time>
      </trkpt>
      <trkpt lat="44.49109" lon="0.94246">
        <ele>99.6</ele>
        <time>2022-08-11T15:43:29Z</time>
      </trkpt>
      <trkpt lat="44.49112" lon="0.94246">
        <ele>99.6</ele>
        <time>2022-08-11T15:43:31Z</time>
      </trkpt>
      <trkpt lat="44.49115" lon="0.94246">
        <ele>99.7</ele>
        <time>2022-08-11T15:43:33Z</time>
      </trkpt>
      <trkpt lat="44.49118" lon="0.94246">
        <ele>99.7</ele>
        <time>2022-08-11T15:43:35Z</time>
      </trkpt>
      <trkpt lat="44.49123" lon="0.94245">
        <ele>99.8</ele>
        <time>2022-08-11T15:43:37Z</time>
      </trkpt>
      <trkpt lat="44.49125" lon="0.94247">
        <ele>99.7</ele>
        <time>2022-08-11T15:43:39Z</time>
      </trkpt>
      <trkpt lat="44.49127" lon="0.94249">
        <ele>99.6</ele>
        <time>2022-08-11T15:43:41Z</time>
      </trkpt>
      <trkpt lat="44.49129" lon="0.94254">
        <ele>99.5</ele>
        <time>2022-08-11T15:43:43Z</time>
      </trkpt>
      <trkpt lat="44.49129" lon="0.94257">
        <ele>99.4</ele>
        <time>2022-08-11T15:43:45Z</time>
      </trkpt>
      <trkpt lat="44.49131" lon="0.94262">
        <ele>99.4</ele>
        <time>2022-08-11T15:43:47Z</time>
      </trkpt>
      <trkpt lat="44.49133" lon="0.94268">
        <ele>99.3</ele>
        <time>2022-08-11T15:43:49Z</time>
      </trkpt>
      <trkpt lat="44.49135" lon="0.94274">
        <ele>99.3</ele>
        <time>2022-08-11T15:43:51Z</time>
      </trkpt>
      <trkpt lat="44.49137" lon="0.94279">
        <ele>99.3</ele>
        <time>2022-08-11T15:43:53Z</time>
      </trkpt>
      <trkpt lat="44.49138" lon="0.94285">
        <ele>99.4</ele>
        <time>2022-08-11T15:43:55Z</time>
      </trkpt>
      <trkpt lat="44.4914" lon="0.94291">
        <ele>99.4</ele>
        <time>2022-08-11T15:43:57Z</time>
      </trkpt>
      <trkpt lat="44.49142" lon="0.94296">
        <ele>99.5</ele>
        <time>2022-08-11T15:43:59Z</time>
      </trkpt>
      <trkpt lat="44.49144" lon="0.943">
        <ele>99.6</ele>
        <time>2022-08-11T15:44:01Z</time>
      </trkpt>
      <trkpt lat="44.49146" lon="0.94304">
        <ele>99.8</ele>
        <time>2022-08-11T15:44:03Z</time>
      </trkpt>
      <trkpt lat="44.49149" lon="0.94308">
        <ele>100</ele>
        <time>2022-08-11T15:44:05Z</time>
      </trkpt>
      <trkpt lat="44.49152" lon="0.94312">
        <ele>100.3</ele>
        <time>2022-08-11T15:44:07Z</time>
      </trkpt>
      <trkpt lat="44.49156" lon="0.94315">
        <ele>100.6</ele>
        <time>2022-08-11T15:44:09Z</time>
      </trkpt>
      <trkpt lat="44.49158" lon="0.9432">
        <ele>100.9</ele>
        <time>2022-08-11T15:44:11Z</time>
      </trkpt>
      <trkpt lat="44.4916" lon="0.94325">
        <ele>101.2</ele>
        <time>2022-08-11T15:44:13Z</time>
      </trkpt>
      <trkpt lat="44.49164" lon="0.94328">
        <ele>101.5</ele>
        <time>2022-08-11T15:44:15Z</time>
      </trkpt>
      <trkpt lat="44.49165" lon="0.94329">
        <ele>101.7</ele>
        <time>2022-08-11T15:44:17Z</time>
      </trkpt>
      <trkpt lat="44.49165" lon="0.9433">
        <ele>101.7</ele>
        <time>2022-08-11T15:44:19Z</time>
      </trkpt>
      <trkpt lat="44.49165" lon="0.9433">
        <ele>101.7</ele>
        <time>2022-08-11T15:44:21Z</time>
      </trkpt>
      <trkpt lat="44.49165" lon="0.9433">
        <ele>101.8</ele>
        <time>2022-08-11T15:44:23Z</time>
      </trkpt>
      <trkpt lat="44.49165" lon="0.9433">
        <ele>101.8</ele>
        <time>2022-08-11T15:44:25Z</time>
      </trkpt>
      <trkpt lat="44.49155" lon="0.94318">
        <ele>100.6</ele>
        <time>2022-08-11T16:05:31Z</time>
      </trkpt>
      <trkpt lat="44.49152" lon="0.94316">
        <ele>100.3</ele>
        <time>2022-08-11T16:05:33Z</time>
      </trkpt>
      <trkpt lat="44.49148" lon="0.94317">
        <ele>100</ele>
        <time>2022-08-11T16:05:35Z</time>
      </trkpt>
      <trkpt lat="44.49147" lon="0.94313">
        <ele>99.8</ele>
        <time>2022-08-11T16:05:37Z</time>
      </trkpt>
      <trkpt lat="44.49144" lon="0.9431">
        <ele>99.6</ele>
        <time>2022-08-11T16:05:39Z</time>
      </trkpt>
      <trkpt lat="44.4914" lon="0.94305">
        <ele>99.3</ele>
        <time>2022-08-11T16:05:41Z</time>
      </trkpt>
      <trkpt lat="44.49138" lon="0.94298">
        <ele>99.2</ele>
        <time>2022-08-11T16:05:43Z</time>
      </trkpt>
      <trkpt lat="44.49136" lon="0.94289">
        <ele>99.2</ele>
        <time>2022-08-11T16:05:45Z</time>
      </trkpt>
      <trkpt lat="44.49133" lon="0.94282">
        <ele>99.1</ele>
        <time>2022-08-11T16:05:47Z</time>
      </trkpt>
      <trkpt lat="44.49131" lon="0.94276">
        <ele>99.1</ele>
        <time>2022-08-11T16:05:49Z</time>
      </trkpt>
      <trkpt lat="44.49129" lon="0.94269">
        <ele>99.2</ele>
        <time>2022-08-11T16:05:51Z</time>
      </trkpt>
      <trkpt lat="44.49127" lon="0.94263">
        <ele>99.2</ele>
        <time>2022-08-11T16:05:53Z</time>
      </trkpt>
      <trkpt lat="44.49125" lon="0.94258">
        <ele>99.3</ele>
        <time>2022-08-11T16:05:55Z</time>
      </trkpt>
      <trkpt lat="44.49124" lon="0.94252">
        <ele>99.4</ele>
        <time>2022-08-11T16:05:57Z</time>
      </trkpt>
      <trkpt lat="44.49122" lon="0.94244">
        <ele>99.9</ele>
        <time>2022-08-11T16:05:59Z</time>
      </trkpt>
      <trkpt lat="44.4912" lon="0.94236">
        <ele>100.4</ele>
        <time>2022-08-11T16:06:01Z</time>
      </trkpt>
      <trkpt lat="44.49119" lon="0.94233">
        <ele>100.6</ele>
        <time>2022-08-11T16:06:03Z</time>
      </trkpt>
      <trkpt lat="44.49117" lon="0.94231">
        <ele>100.8</ele>
        <time>2022-08-11T16:06:05Z</time>
      </trkpt>
      <trkpt lat="44.49119" lon="0.94228">
        <ele>101</ele>
        <time>2022-08-11T16:06:07Z</time>
      </trkpt>
      <trkpt lat="44.49119" lon="0.94225">
        <ele>101.2</ele>
        <time>2022-08-11T16:06:09Z</time>
      </trkpt>
      <trkpt lat="44.49119" lon="0.94222">
        <ele>101.5</ele>
        <time>2022-08-11T16:06:11Z</time>
      </trkpt>
      <trkpt lat="44.4912" lon="0.94217">
        <ele>101.8</ele>
        <time>2022-08-11T16:06:13Z</time>
      </trkpt>
      <trkpt lat="44.49121" lon="0.94213">
        <ele>102.1</ele>
        <time>2022-08-11T16:06:15Z</time>
      </trkpt>
      <trkpt lat="44.49122" lon="0.94209">
        <ele>102.4</ele>
        <time>2022-08-11T16:06:17Z</time>
      </trkpt>
      <trkpt lat="44.49123" lon="0.94205">
        <ele>102.7</ele>
        <time>2022-08-11T16:06:19Z</time>
      </trkpt>
      <trkpt lat="44.49124" lon="0.94201">
        <ele>103.1</ele>
        <time>2022-08-11T16:06:21Z</time>
      </trkpt>
      <trkpt lat="44.49125" lon="0.94196">
        <ele>103.4</ele>
        <time>2022-08-11T16:06:23Z</time>
      </trkpt>
      <trkpt lat="44.49127" lon="0.94192">
        <ele>103.7</ele>
        <time>2022-08-11T16:06:25Z</time>
      </trkpt>
      <trkpt lat="44.49128" lon="0.94188">
        <ele>104</ele>
        <time>2022-08-11T16:06:27Z</time>
      </trkpt>
      <trkpt lat="44.49128" lon="0.94182">
        <ele>104.4</ele>
        <time>2022-08-11T16:06:29Z</time>
      </trkpt>
      <trkpt lat="44.49129" lon="0.94178">
        <ele>104.7</ele>
        <time>2022-08-11T16:06:31Z</time>
      </trkpt>
      <trkpt lat="44.4913" lon="0.94174">
        <ele>105</ele>
        <time>2022-08-11T16:06:33Z</time>
      </trkpt>
      <trkpt lat="44.49132" lon="0.94171">
        <ele>105.3</ele>
        <time>2022-08-11T16:06:35Z</time>
      </trkpt>
      <trkpt lat="44.49133" lon="0.94168">
        <ele>105.5</ele>
        <time>2022-08-11T16:06:37Z</time>
      </trkpt>
      <trkpt lat="44.49135" lon="0.94164">
        <ele>105.7</ele>
        <time>2022-08-11T16:06:39Z</time>
      </trkpt>
      <trkpt lat="44.49136" lon="0.94161">
        <ele>105.9</ele>
        <time>2022-08-11T16:06:41Z</time>
      </trkpt>
      <trkpt lat="44.49135" lon="0.94156">
        <ele>106.1</ele>
        <time>2022-08-11T16:06:43Z</time>
      </trkpt>
      <trkpt lat="44.49137" lon="0.94152">
        <ele>106.3</ele>
        <time>2022-08-11T16:06:45Z</time>
      </trkpt>
      <trkpt lat="44.49138" lon="0.94148">
        <ele>106.5</ele>
        <time>2022-08-11T16:06:47Z</time>
      </trkpt>
      <trkpt lat="44.49139" lon="0.94145">
        <ele>106.7</ele>
        <time>2022-08-11T16:06:49Z</time>
      </trkpt>
      <trkpt lat="44.49139" lon="0.94141">
        <ele>106.9</ele>
        <time>2022-08-11T16:06:51Z</time>
      </trkpt>
      <trkpt lat="44.4914" lon="0.94135">
        <ele>107.2</ele>
        <time>2022-08-11T16:06:53Z</time>
      </trkpt>
      <trkpt lat="44.49141" lon="0.94131">
        <ele>107.4</ele>
        <time>2022-08-11T16:06:55Z</time>
      </trkpt>
      <trkpt lat="44.49141" lon="0.94126">
        <ele>107.6</ele>
        <time>2022-08-11T16:06:57Z</time>
      </trkpt>
      <trkpt lat="44.49141" lon="0.94122">
        <ele>107.8</ele>
        <time>2022-08-11T16:06:59Z</time>
      </trkpt>
      <trkpt lat="44.49142" lon="0.94118">
        <ele>108</ele>
        <time>2022-08-11T16:07:01Z</time>
      </trkpt>
      <trkpt lat="44.49142" lon="0.94113">
        <ele>108.2</ele>
        <time>2022-08-11T16:07:03Z</time>
      </trkpt>
      <trkpt lat="44.49142" lon="0.94106">
        <ele>108.5</ele>
        <time>2022-08-11T16:07:05Z</time>
      </trkpt>
      <trkpt lat="44.49143" lon="0.941">
        <ele>108.8</ele>
        <time>2022-08-11T16:07:07Z</time>
      </trkpt>
      <trkpt lat="44.4914" lon="0.94095">
        <ele>109.1</ele>
        <time>2022-08-11T16:07:09Z</time>
      </trkpt>
      <trkpt lat="44.49137" lon="0.94092">
        <ele>109.3</ele>
        <time>2022-08-11T16:07:11Z</time>
      </trkpt>
      <trkpt lat="44.49138" lon="0.9409">
        <ele>109.4</ele>
        <time>2022-08-11T16:07:13Z</time>
      </trkpt>
      <trkpt lat="44.49138" lon="0.94092">
        <ele>109.3</ele>
        <time>2022-08-11T16:07:15Z</time>
      </trkpt>
      <trkpt lat="44.49138" lon="0.94092">
        <ele>109.3</ele>
        <time>2022-08-11T16:07:17Z</time>
      </trkpt>
      <trkpt lat="44.49137" lon="0.94091">
        <ele>109.3</ele>
        <time>2022-08-11T16:07:19Z</time>
      </trkpt>
      <trkpt lat="44.49136" lon="0.94087">
        <ele>109.5</ele>
        <time>2022-08-11T16:07:21Z</time>
      </trkpt>
      <trkpt lat="44.49137" lon="0.94081">
        <ele>109.8</ele>
        <time>2022-08-11T16:07:23Z</time>
      </trkpt>
      <trkpt lat="44.49139" lon="0.94076">
        <ele>109.8</ele>
        <time>2022-08-11T16:07:25Z</time>
      </trkpt>
      <trkpt lat="44.49139" lon="0.94069">
        <ele>110</ele>
        <time>2022-08-11T16:07:27Z</time>
      </trkpt>
      <trkpt lat="44.49138" lon="0.94063">
        <ele>110.2</ele>
        <time>2022-08-11T16:07:29Z</time>
      </trkpt>
      <trkpt lat="44.49138" lon="0.94056">
        <ele>110.4</ele>
        <time>2022-08-11T16:07:31Z</time>
      </trkpt>
      <trkpt lat="44.49138" lon="0.94049">
        <ele>110.6</ele>
        <time>2022-08-11T16:07:33Z</time>
      </trkpt>
      <trkpt lat="44.49137" lon="0.94041">
        <ele>110.8</ele>
        <time>2022-08-11T16:07:35Z</time>
      </trkpt>
      <trkpt lat="44.49136" lon="0.94034">
        <ele>111</ele>
        <time>2022-08-11T16:07:37Z</time>
      </trkpt>
      <trkpt lat="44.49136" lon="0.94026">
        <ele>111.2</ele>
        <time>2022-08-11T16:07:39Z</time>
      </trkpt>
      <trkpt lat="44.49136" lon="0.94018">
        <ele>111.5</ele>
        <time>2022-08-11T16:07:41Z</time>
      </trkpt>
      <trkpt lat="44.49136" lon="0.94011">
        <ele>111.7</ele>
        <time>2022-08-11T16:07:43Z</time>
      </trkpt>
      <trkpt lat="44.49135" lon="0.94004">
        <ele>111.9</ele>
        <time>2022-08-11T16:07:45Z</time>
      </trkpt>
      <trkpt lat="44.49134" lon="0.93997">
        <ele>112.2</ele>
        <time>2022-08-11T16:07:47Z</time>
      </trkpt>
      <trkpt lat="44.49134" lon="0.93989">
        <ele>112.5</ele>
        <time>2022-08-11T16:07:49Z</time>
      </trkpt>
      <trkpt lat="44.49134" lon="0.93981">
        <ele>112.8</ele>
        <time>2022-08-11T16:07:51Z</time>
      </trkpt>
      <trkpt lat="44.49133" lon="0.93974">
        <ele>113.1</ele>
        <time>2022-08-11T16:07:53Z</time>
      </trkpt>
      <trkpt lat="44.49133" lon="0.93966">
        <ele>113.4</ele>
        <time>2022-08-11T16:07:55Z</time>
      </trkpt>
      <trkpt lat="44.49133" lon="0.93959">
        <ele>113.7</ele>
        <time>2022-08-11T16:07:57Z</time>
      </trkpt>
      <trkpt lat="44.49132" lon="0.93951">
        <ele>114</ele>
        <time>2022-08-11T16:07:59Z</time>
      </trkpt>
      <trkpt lat="44.49131" lon="0.93944">
        <ele>114.3</ele>
        <time>2022-08-11T16:08:01Z</time>
      </trkpt>
      <trkpt lat="44.4913" lon="0.93936">
        <ele>114.7</ele>
        <time>2022-08-11T16:08:03Z</time>
      </trkpt>
      <trkpt lat="44.4913" lon="0.93928">
        <ele>115</ele>
        <time>2022-08-11T16:08:05Z</time>
      </trkpt>
      <trkpt lat="44.49129" lon="0.93921">
        <ele>115.4</ele>
        <time>2022-08-11T16:08:07Z</time>
      </trkpt>
      <trkpt lat="44.49129" lon="0.93913">
        <ele>115.5</ele>
        <time>2022-08-11T16:08:09Z</time>
      </trkpt>
      <trkpt lat="44.49128" lon="0.93906">
        <ele>115.5</ele>
        <time>2022-08-11T16:08:11Z</time>
      </trkpt>
      <trkpt lat="44.49127" lon="0.93899">
        <ele>115.7</ele>
        <time>2022-08-11T16:08:13Z</time>
      </trkpt>
      <trkpt lat="44.49126" lon="0.93891">
        <ele>115.7</ele>
        <time>2022-08-11T16:08:15Z</time>
      </trkpt>
      <trkpt lat="44.49125" lon="0.93883">
        <ele>115.8</ele>
        <time>2022-08-11T16:08:17Z</time>
      </trkpt>
      <trkpt lat="44.49123" lon="0.93875">
        <ele>115.9</ele>
        <time>2022-08-11T16:08:19Z</time>
      </trkpt>
      <trkpt lat="44.49122" lon="0.93867">
        <ele>116</ele>
        <time>2022-08-11T16:08:21Z</time>
      </trkpt>
      <trkpt lat="44.49121" lon="0.93859">
        <ele>116.1</ele>
        <time>2022-08-11T16:08:23Z</time>
      </trkpt>
      <trkpt lat="44.49119" lon="0.93851">
        <ele>116.3</ele>
        <time>2022-08-11T16:08:25Z</time>
      </trkpt>
      <trkpt lat="44.49117" lon="0.93843">
        <ele>116.4</ele>
        <time>2022-08-11T16:08:27Z</time>
      </trkpt>
      <trkpt lat="44.49116" lon="0.93835">
        <ele>116.5</ele>
        <time>2022-08-11T16:08:29Z</time>
      </trkpt>
      <trkpt lat="44.49114" lon="0.93828">
        <ele>116.7</ele>
        <time>2022-08-11T16:08:31Z</time>
      </trkpt>
      <trkpt lat="44.49112" lon="0.9382">
        <ele>116.8</ele>
        <time>2022-08-11T16:08:33Z</time>
      </trkpt>
      <trkpt lat="44.4911" lon="0.93813">
        <ele>116.9</ele>
        <time>2022-08-11T16:08:35Z</time>
      </trkpt>
      <trkpt lat="44.49108" lon="0.93806">
        <ele>117.1</ele>
        <time>2022-08-11T16:08:37Z</time>
      </trkpt>
      <trkpt lat="44.49106" lon="0.93799">
        <ele>117.3</ele>
        <time>2022-08-11T16:08:39Z</time>
      </trkpt>
      <trkpt lat="44.49104" lon="0.93793">
        <ele>117.5</ele>
        <time>2022-08-11T16:08:41Z</time>
      </trkpt>
      <trkpt lat="44.49102" lon="0.93787">
        <ele>117.7</ele>
        <time>2022-08-11T16:08:43Z</time>
      </trkpt>
      <trkpt lat="44.49099" lon="0.93782">
        <ele>118</ele>
        <time>2022-08-11T16:08:45Z</time>
      </trkpt>
      <trkpt lat="44.49096" lon="0.93777">
        <ele>118.4</ele>
        <time>2022-08-11T16:08:47Z</time>
      </trkpt>
      <trkpt lat="44.49093" lon="0.93772">
        <ele>118.8</ele>
        <time>2022-08-11T16:08:49Z</time>
      </trkpt>
      <trkpt lat="44.4909" lon="0.93768">
        <ele>119.2</ele>
        <time>2022-08-11T16:08:51Z</time>
      </trkpt>
      <trkpt lat="44.49088" lon="0.93763">
        <ele>119.5</ele>
        <time>2022-08-11T16:08:53Z</time>
      </trkpt>
      <trkpt lat="44.49085" lon="0.9376">
        <ele>119.8</ele>
        <time>2022-08-11T16:08:55Z</time>
      </trkpt>
      <trkpt lat="44.49081" lon="0.93757">
        <ele>120</ele>
        <time>2022-08-11T16:08:57Z</time>
      </trkpt>
      <trkpt lat="44.49078" lon="0.93753">
        <ele>120.1</ele>
        <time>2022-08-11T16:08:59Z</time>
      </trkpt>
      <trkpt lat="44.49075" lon="0.9375">
        <ele>120.1</ele>
        <time>2022-08-11T16:09:01Z</time>
      </trkpt>
      <trkpt lat="44.49072" lon="0.93746">
        <ele>120.1</ele>
        <time>2022-08-11T16:09:03Z</time>
      </trkpt>
      <trkpt lat="44.49069" lon="0.93742">
        <ele>120.1</ele>
        <time>2022-08-11T16:09:05Z</time>
      </trkpt>
      <trkpt lat="44.49066" lon="0.93737">
        <ele>120.1</ele>
        <time>2022-08-11T16:09:07Z</time>
      </trkpt>
      <trkpt lat="44.49064" lon="0.93733">
        <ele>120.1</ele>
        <time>2022-08-11T16:09:09Z</time>
      </trkpt>
      <trkpt lat="44.49061" lon="0.9373">
        <ele>120.1</ele>
        <time>2022-08-11T16:09:11Z</time>
      </trkpt>
      <trkpt lat="44.49058" lon="0.93727">
        <ele>120.1</ele>
        <time>2022-08-11T16:09:13Z</time>
      </trkpt>
      <trkpt lat="44.49056" lon="0.93722">
        <ele>120.1</ele>
        <time>2022-08-11T16:09:15Z</time>
      </trkpt>
      <trkpt lat="44.49054" lon="0.93718">
        <ele>120.1</ele>
        <time>2022-08-11T16:09:17Z</time>
      </trkpt>
      <trkpt lat="44.49051" lon="0.93714">
        <ele>120.1</ele>
        <time>2022-08-11T16:09:19Z</time>
      </trkpt>
      <trkpt lat="44.49049" lon="0.93711">
        <ele>120.1</ele>
        <time>2022-08-11T16:09:21Z</time>
      </trkpt>
      <trkpt lat="44.49046" lon="0.93707">
        <ele>120.2</ele>
        <time>2022-08-11T16:09:23Z</time>
      </trkpt>
      <trkpt lat="44.49044" lon="0.93703">
        <ele>120.2</ele>
        <time>2022-08-11T16:09:25Z</time>
      </trkpt>
      <trkpt lat="44.49041" lon="0.937">
        <ele>120.2</ele>
        <time>2022-08-11T16:09:27Z</time>
      </trkpt>
      <trkpt lat="44.49039" lon="0.93696">
        <ele>120.2</ele>
        <time>2022-08-11T16:09:29Z</time>
      </trkpt>
      <trkpt lat="44.49037" lon="0.93692">
        <ele>120.3</ele>
        <time>2022-08-11T16:09:31Z</time>
      </trkpt>
      <trkpt lat="44.49034" lon="0.93688">
        <ele>120.3</ele>
        <time>2022-08-11T16:09:33Z</time>
      </trkpt>
      <trkpt lat="44.49031" lon="0.93684">
        <ele>120.3</ele>
        <time>2022-08-11T16:09:35Z</time>
      </trkpt>
      <trkpt lat="44.49029" lon="0.93679">
        <ele>120.4</ele>
        <time>2022-08-11T16:09:37Z</time>
      </trkpt>
      <trkpt lat="44.49026" lon="0.93674">
        <ele>120.4</ele>
        <time>2022-08-11T16:09:39Z</time>
      </trkpt>
      <trkpt lat="44.49023" lon="0.93668">
        <ele>120.5</ele>
        <time>2022-08-11T16:09:41Z</time>
      </trkpt>
      <trkpt lat="44.49019" lon="0.93661">
        <ele>120.7</ele>
        <time>2022-08-11T16:09:43Z</time>
      </trkpt>
      <trkpt lat="44.49016" lon="0.93653">
        <ele>121</ele>
        <time>2022-08-11T16:09:45Z</time>
      </trkpt>
      <trkpt lat="44.49013" lon="0.93645">
        <ele>121.2</ele>
        <time>2022-08-11T16:09:47Z</time>
      </trkpt>
      <trkpt lat="44.4901" lon="0.93637">
        <ele>121.5</ele>
        <time>2022-08-11T16:09:49Z</time>
      </trkpt>
      <trkpt lat="44.49007" lon="0.93629">
        <ele>121.8</ele>
        <time>2022-08-11T16:09:51Z</time>
      </trkpt>
      <trkpt lat="44.49004" lon="0.93621">
        <ele>122</ele>
        <time>2022-08-11T16:09:53Z</time>
      </trkpt>
      <trkpt lat="44.49002" lon="0.93613">
        <ele>122.3</ele>
        <time>2022-08-11T16:09:55Z</time>
      </trkpt>
      <trkpt lat="44.48999" lon="0.93604">
        <ele>122.4</ele>
        <time>2022-08-11T16:09:57Z</time>
      </trkpt>
      <trkpt lat="44.48996" lon="0.93596">
        <ele>122.5</ele>
        <time>2022-08-11T16:09:59Z</time>
      </trkpt>
      <trkpt lat="44.48993" lon="0.93587">
        <ele>122.6</ele>
        <time>2022-08-11T16:10:01Z</time>
      </trkpt>
      <trkpt lat="44.48991" lon="0.93579">
        <ele>122.9</ele>
        <time>2022-08-11T16:10:03Z</time>
      </trkpt>
      <trkpt lat="44.48988" lon="0.93571">
        <ele>123.4</ele>
        <time>2022-08-11T16:10:05Z</time>
      </trkpt>
      <trkpt lat="44.48985" lon="0.93563">
        <ele>123.9</ele>
        <time>2022-08-11T16:10:07Z</time>
      </trkpt>
      <trkpt lat="44.48982" lon="0.93556">
        <ele>124.3</ele>
        <time>2022-08-11T16:10:09Z</time>
      </trkpt>
      <trkpt lat="44.4898" lon="0.93548">
        <ele>124.9</ele>
        <time>2022-08-11T16:10:11Z</time>
      </trkpt>
      <trkpt lat="44.48978" lon="0.9354">
        <ele>125.3</ele>
        <time>2022-08-11T16:10:13Z</time>
      </trkpt>
      <trkpt lat="44.48976" lon="0.93533">
        <ele>125.7</ele>
        <time>2022-08-11T16:10:15Z</time>
      </trkpt>
      <trkpt lat="44.48974" lon="0.93526">
        <ele>126.1</ele>
        <time>2022-08-11T16:10:17Z</time>
      </trkpt>
      <trkpt lat="44.48971" lon="0.9352">
        <ele>126.4</ele>
        <time>2022-08-11T16:10:19Z</time>
      </trkpt>
      <trkpt lat="44.48969" lon="0.93514">
        <ele>126.8</ele>
        <time>2022-08-11T16:10:21Z</time>
      </trkpt>
      <trkpt lat="44.48968" lon="0.93507">
        <ele>127.2</ele>
        <time>2022-08-11T16:10:23Z</time>
      </trkpt>
      <trkpt lat="44.48967" lon="0.93501">
        <ele>127.6</ele>
        <time>2022-08-11T16:10:25Z</time>
      </trkpt>
      <trkpt lat="44.48967" lon="0.93495">
        <ele>128</ele>
        <time>2022-08-11T16:10:27Z</time>
      </trkpt>
      <trkpt lat="44.48967" lon="0.93488">
        <ele>128.4</ele>
        <time>2022-08-11T16:10:29Z</time>
      </trkpt>
      <trkpt lat="44.48968" lon="0.93483">
        <ele>128.9</ele>
        <time>2022-08-11T16:10:31Z</time>
      </trkpt>
      <trkpt lat="44.4897" lon="0.93477">
        <ele>129.4</ele>
        <time>2022-08-11T16:10:33Z</time>
      </trkpt>
      <trkpt lat="44.48972" lon="0.93473">
        <ele>129.9</ele>
        <time>2022-08-11T16:10:35Z</time>
      </trkpt>
      <trkpt lat="44.48975" lon="0.93469">
        <ele>130.3</ele>
        <time>2022-08-11T16:10:37Z</time>
      </trkpt>
      <trkpt lat="44.48978" lon="0.93465">
        <ele>130.8</ele>
        <time>2022-08-11T16:10:39Z</time>
      </trkpt>
      <trkpt lat="44.48981" lon="0.93462">
        <ele>131.2</ele>
        <time>2022-08-11T16:10:41Z</time>
      </trkpt>
      <trkpt lat="44.48985" lon="0.93459">
        <ele>131.6</ele>
        <time>2022-08-11T16:10:43Z</time>
      </trkpt>
      <trkpt lat="44.48989" lon="0.93456">
        <ele>132</ele>
        <time>2022-08-11T16:10:45Z</time>
      </trkpt>
      <trkpt lat="44.48992" lon="0.93454">
        <ele>132.3</ele>
        <time>2022-08-11T16:10:47Z</time>
      </trkpt>
      <trkpt lat="44.48996" lon="0.93451">
        <ele>132.7</ele>
        <time>2022-08-11T16:10:49Z</time>
      </trkpt>
      <trkpt lat="44.49" lon="0.93449">
        <ele>133</ele>
        <time>2022-08-11T16:10:51Z</time>
      </trkpt>
      <trkpt lat="44.49003" lon="0.93447">
        <ele>132.9</ele>
        <time>2022-08-11T16:10:53Z</time>
      </trkpt>
      <trkpt lat="44.49007" lon="0.93444">
        <ele>132.6</ele>
        <time>2022-08-11T16:10:55Z</time>
      </trkpt>
      <trkpt lat="44.49012" lon="0.93441">
        <ele>132.2</ele>
        <time>2022-08-11T16:10:57Z</time>
      </trkpt>
      <trkpt lat="44.49017" lon="0.93438">
        <ele>131.9</ele>
        <time>2022-08-11T16:10:59Z</time>
      </trkpt>
      <trkpt lat="44.49022" lon="0.93435">
        <ele>131.4</ele>
        <time>2022-08-11T16:11:01Z</time>
      </trkpt>
      <trkpt lat="44.49029" lon="0.93431">
        <ele>130.8</ele>
        <time>2022-08-11T16:11:03Z</time>
      </trkpt>
      <trkpt lat="44.49036" lon="0.93427">
        <ele>130.2</ele>
        <time>2022-08-11T16:11:05Z</time>
      </trkpt>
      <trkpt lat="44.49046" lon="0.9342">
        <ele>129.4</ele>
        <time>2022-08-11T16:11:07Z</time>
      </trkpt>
      <trkpt lat="44.49055" lon="0.9341">
        <ele>128.7</ele>
        <time>2022-08-11T16:11:09Z</time>
      </trkpt>
      <trkpt lat="44.4906" lon="0.93398">
        <ele>128.7</ele>
        <time>2022-08-11T16:11:11Z</time>
      </trkpt>
      <trkpt lat="44.49065" lon="0.93385">
        <ele>128.9</ele>
        <time>2022-08-11T16:11:13Z</time>
      </trkpt>
      <trkpt lat="44.49069" lon="0.9337">
        <ele>129.2</ele>
        <time>2022-08-11T16:11:15Z</time>
      </trkpt>
      <trkpt lat="44.49073" lon="0.93357">
        <ele>129.5</ele>
        <time>2022-08-11T16:11:17Z</time>
      </trkpt>
      <trkpt lat="44.49078" lon="0.93343">
        <ele>129.9</ele>
        <time>2022-08-11T16:11:19Z</time>
      </trkpt>
      <trkpt lat="44.49083" lon="0.93329">
        <ele>130.1</ele>
        <time>2022-08-11T16:11:21Z</time>
      </trkpt>
      <trkpt lat="44.49087" lon="0.93315">
        <ele>129.8</ele>
        <time>2022-08-11T16:11:23Z</time>
      </trkpt>
      <trkpt lat="44.49091" lon="0.93302">
        <ele>129.4</ele>
        <time>2022-08-11T16:11:25Z</time>
      </trkpt>
      <trkpt lat="44.49094" lon="0.9329">
        <ele>129.1</ele>
        <time>2022-08-11T16:11:27Z</time>
      </trkpt>
      <trkpt lat="44.49098" lon="0.93278">
        <ele>128.8</ele>
        <time>2022-08-11T16:11:29Z</time>
      </trkpt>
      <trkpt lat="44.49101" lon="0.93267">
        <ele>128.6</ele>
        <time>2022-08-11T16:11:31Z</time>
      </trkpt>
      <trkpt lat="44.49104" lon="0.93257">
        <ele>128.5</ele>
        <time>2022-08-11T16:11:33Z</time>
      </trkpt>
      <trkpt lat="44.49107" lon="0.93247">
        <ele>128.3</ele>
        <time>2022-08-11T16:11:35Z</time>
      </trkpt>
      <trkpt lat="44.49111" lon="0.93237">
        <ele>128.2</ele>
        <time>2022-08-11T16:11:37Z</time>
      </trkpt>
      <trkpt lat="44.49115" lon="0.93228">
        <ele>128</ele>
        <time>2022-08-11T16:11:39Z</time>
      </trkpt>
      <trkpt lat="44.49118" lon="0.93219">
        <ele>128</ele>
        <time>2022-08-11T16:11:41Z</time>
      </trkpt>
      <trkpt lat="44.49122" lon="0.93212">
        <ele>127.8</ele>
        <time>2022-08-11T16:11:43Z</time>
      </trkpt>
      <trkpt lat="44.49126" lon="0.93205">
        <ele>127.8</ele>
        <time>2022-08-11T16:11:45Z</time>
      </trkpt>
      <trkpt lat="44.49129" lon="0.93198">
        <ele>127.9</ele>
        <time>2022-08-11T16:11:47Z</time>
      </trkpt>
      <trkpt lat="44.49133" lon="0.93192">
        <ele>128</ele>
        <time>2022-08-11T16:11:49Z</time>
      </trkpt>
      <trkpt lat="44.49137" lon="0.93187">
        <ele>128</ele>
        <time>2022-08-11T16:11:51Z</time>
      </trkpt>
      <trkpt lat="44.4914" lon="0.93182">
        <ele>128.1</ele>
        <time>2022-08-11T16:11:53Z</time>
      </trkpt>
      <trkpt lat="44.49143" lon="0.93175">
        <ele>128.4</ele>
        <time>2022-08-11T16:11:55Z</time>
      </trkpt>
      <trkpt lat="44.49147" lon="0.93169">
        <ele>128.7</ele>
        <time>2022-08-11T16:11:57Z</time>
      </trkpt>
      <trkpt lat="44.4915" lon="0.93164">
        <ele>128.8</ele>
        <time>2022-08-11T16:11:59Z</time>
      </trkpt>
      <trkpt lat="44.49154" lon="0.93158">
        <ele>128.8</ele>
        <time>2022-08-11T16:12:01Z</time>
      </trkpt>
      <trkpt lat="44.49157" lon="0.93153">
        <ele>128.8</ele>
        <time>2022-08-11T16:12:03Z</time>
      </trkpt>
      <trkpt lat="44.4916" lon="0.93148">
        <ele>128.9</ele>
        <time>2022-08-11T16:12:05Z</time>
      </trkpt>
      <trkpt lat="44.49163" lon="0.93143">
        <ele>128.9</ele>
        <time>2022-08-11T16:12:07Z</time>
      </trkpt>
      <trkpt lat="44.49167" lon="0.93138">
        <ele>129.1</ele>
        <time>2022-08-11T16:12:09Z</time>
      </trkpt>
      <trkpt lat="44.4917" lon="0.93133">
        <ele>129.1</ele>
        <time>2022-08-11T16:12:11Z</time>
      </trkpt>
      <trkpt lat="44.49173" lon="0.93128">
        <ele>129.1</ele>
        <time>2022-08-11T16:12:13Z</time>
      </trkpt>
      <trkpt lat="44.49175" lon="0.93124">
        <ele>129.2</ele>
        <time>2022-08-11T16:12:15Z</time>
      </trkpt>
      <trkpt lat="44.49178" lon="0.93119">
        <ele>129.3</ele>
        <time>2022-08-11T16:12:17Z</time>
      </trkpt>
      <trkpt lat="44.49181" lon="0.93115">
        <ele>129.4</ele>
        <time>2022-08-11T16:12:19Z</time>
      </trkpt>
      <trkpt lat="44.49184" lon="0.93111">
        <ele>129.5</ele>
        <time>2022-08-11T16:12:21Z</time>
      </trkpt>
      <trkpt lat="44.49187" lon="0.93107">
        <ele>129.5</ele>
        <time>2022-08-11T16:12:23Z</time>
      </trkpt>
      <trkpt lat="44.4919" lon="0.93103">
        <ele>129.7</ele>
        <time>2022-08-11T16:12:25Z</time>
      </trkpt>
      <trkpt lat="44.49193" lon="0.931">
        <ele>129.8</ele>
        <time>2022-08-11T16:12:27Z</time>
      </trkpt>
      <trkpt lat="44.49196" lon="0.93097">
        <ele>129.9</ele>
        <time>2022-08-11T16:12:29Z</time>
      </trkpt>
      <trkpt lat="44.49198" lon="0.93094">
        <ele>130</ele>
        <time>2022-08-11T16:12:31Z</time>
      </trkpt>
      <trkpt lat="44.49202" lon="0.93091">
        <ele>130.1</ele>
        <time>2022-08-11T16:12:33Z</time>
      </trkpt>
      <trkpt lat="44.49205" lon="0.93088">
        <ele>130.3</ele>
        <time>2022-08-11T16:12:35Z</time>
      </trkpt>
      <trkpt lat="44.49208" lon="0.93083">
        <ele>130.5</ele>
        <time>2022-08-11T16:12:37Z</time>
      </trkpt>
      <trkpt lat="44.49212" lon="0.9308">
        <ele>130.2</ele>
        <time>2022-08-11T16:12:39Z</time>
      </trkpt>
      <trkpt lat="44.49216" lon="0.93076">
        <ele>130</ele>
        <time>2022-08-11T16:12:41Z</time>
      </trkpt>
      <trkpt lat="44.49221" lon="0.93072">
        <ele>129.7</ele>
        <time>2022-08-11T16:12:43Z</time>
      </trkpt>
      <trkpt lat="44.49226" lon="0.93068">
        <ele>129.5</ele>
        <time>2022-08-11T16:12:45Z</time>
      </trkpt>
      <trkpt lat="44.4923" lon="0.93063">
        <ele>129.3</ele>
        <time>2022-08-11T16:12:47Z</time>
      </trkpt>
      <trkpt lat="44.49235" lon="0.93058">
        <ele>129.1</ele>
        <time>2022-08-11T16:12:49Z</time>
      </trkpt>
      <trkpt lat="44.4924" lon="0.93054">
        <ele>128.9</ele>
        <time>2022-08-11T16:12:51Z</time>
      </trkpt>
      <trkpt lat="44.49246" lon="0.93048">
        <ele>128.7</ele>
        <time>2022-08-11T16:12:53Z</time>
      </trkpt>
      <trkpt lat="44.49252" lon="0.93042">
        <ele>128.6</ele>
        <time>2022-08-11T16:12:55Z</time>
      </trkpt>
      <trkpt lat="44.49258" lon="0.93036">
        <ele>128.6</ele>
        <time>2022-08-11T16:12:57Z</time>
      </trkpt>
      <trkpt lat="44.49264" lon="0.93029">
        <ele>128.6</ele>
        <time>2022-08-11T16:12:59Z</time>
      </trkpt>
      <trkpt lat="44.49269" lon="0.93023">
        <ele>128.8</ele>
        <time>2022-08-11T16:13:01Z</time>
      </trkpt>
      <trkpt lat="44.49275" lon="0.93017">
        <ele>129</ele>
        <time>2022-08-11T16:13:03Z</time>
      </trkpt>
      <trkpt lat="44.4928" lon="0.93011">
        <ele>129.3</ele>
        <time>2022-08-11T16:13:05Z</time>
      </trkpt>
      <trkpt lat="44.49286" lon="0.93005">
        <ele>129.6</ele>
        <time>2022-08-11T16:13:07Z</time>
      </trkpt>
      <trkpt lat="44.49291" lon="0.92999">
        <ele>129.9</ele>
        <time>2022-08-11T16:13:09Z</time>
      </trkpt>
      <trkpt lat="44.49296" lon="0.92993">
        <ele>130</ele>
        <time>2022-08-11T16:13:11Z</time>
      </trkpt>
      <trkpt lat="44.49301" lon="0.92987">
        <ele>130.1</ele>
        <time>2022-08-11T16:13:13Z</time>
      </trkpt>
      <trkpt lat="44.49306" lon="0.92981">
        <ele>130.3</ele>
        <time>2022-08-11T16:13:15Z</time>
      </trkpt>
      <trkpt lat="44.49311" lon="0.92976">
        <ele>130.5</ele>
        <time>2022-08-11T16:13:17Z</time>
      </trkpt>
      <trkpt lat="44.49316" lon="0.92969">
        <ele>130.7</ele>
        <time>2022-08-11T16:13:19Z</time>
      </trkpt>
      <trkpt lat="44.49322" lon="0.92963">
        <ele>131</ele>
        <time>2022-08-11T16:13:21Z</time>
      </trkpt>
      <trkpt lat="44.49327" lon="0.92957">
        <ele>131.4</ele>
        <time>2022-08-11T16:13:23Z</time>
      </trkpt>
      <trkpt lat="44.49333" lon="0.92949">
        <ele>131.7</ele>
        <time>2022-08-11T16:13:25Z</time>
      </trkpt>
      <trkpt lat="44.49338" lon="0.92942">
        <ele>131.5</ele>
        <time>2022-08-11T16:13:27Z</time>
      </trkpt>
      <trkpt lat="44.49343" lon="0.92934">
        <ele>131.4</ele>
        <time>2022-08-11T16:13:29Z</time>
      </trkpt>
      <trkpt lat="44.49348" lon="0.92926">
        <ele>131.3</ele>
        <time>2022-08-11T16:13:31Z</time>
      </trkpt>
      <trkpt lat="44.49352" lon="0.92919">
        <ele>131.2</ele>
        <time>2022-08-11T16:13:33Z</time>
      </trkpt>
      <trkpt lat="44.49356" lon="0.92911">
        <ele>131.1</ele>
        <time>2022-08-11T16:13:35Z</time>
      </trkpt>
      <trkpt lat="44.49361" lon="0.92903">
        <ele>131.1</ele>
        <time>2022-08-11T16:13:37Z</time>
      </trkpt>
      <trkpt lat="44.49365" lon="0.92896">
        <ele>131</ele>
        <time>2022-08-11T16:13:39Z</time>
      </trkpt>
      <trkpt lat="44.4937" lon="0.92887">
        <ele>131</ele>
        <time>2022-08-11T16:13:41Z</time>
      </trkpt>
      <trkpt lat="44.49375" lon="0.92879">
        <ele>131</ele>
        <time>2022-08-11T16:13:43Z</time>
      </trkpt>
      <trkpt lat="44.49379" lon="0.92871">
        <ele>131.1</ele>
        <time>2022-08-11T16:13:45Z</time>
      </trkpt>
      <trkpt lat="44.49383" lon="0.92862">
        <ele>131.2</ele>
        <time>2022-08-11T16:13:47Z</time>
      </trkpt>
      <trkpt lat="44.49388" lon="0.92854">
        <ele>131.4</ele>
        <time>2022-08-11T16:13:49Z</time>
      </trkpt>
      <trkpt lat="44.49393" lon="0.92845">
        <ele>131.6</ele>
        <time>2022-08-11T16:13:51Z</time>
      </trkpt>
      <trkpt lat="44.49397" lon="0.92833">
        <ele>131.8</ele>
        <time>2022-08-11T16:13:53Z</time>
      </trkpt>
      <trkpt lat="44.49401" lon="0.92824">
        <ele>131.7</ele>
        <time>2022-08-11T16:13:55Z</time>
      </trkpt>
      <trkpt lat="44.49406" lon="0.92814">
        <ele>131.7</ele>
        <time>2022-08-11T16:13:57Z</time>
      </trkpt>
      <trkpt lat="44.4941" lon="0.92804">
        <ele>131.6</ele>
        <time>2022-08-11T16:13:59Z</time>
      </trkpt>
      <trkpt lat="44.49415" lon="0.92795">
        <ele>131.5</ele>
        <time>2022-08-11T16:14:01Z</time>
      </trkpt>
      <trkpt lat="44.4942" lon="0.92786">
        <ele>131.3</ele>
        <time>2022-08-11T16:14:03Z</time>
      </trkpt>
      <trkpt lat="44.49426" lon="0.92777">
        <ele>131</ele>
        <time>2022-08-11T16:14:05Z</time>
      </trkpt>
      <trkpt lat="44.4943" lon="0.92768">
        <ele>130.8</ele>
        <time>2022-08-11T16:14:07Z</time>
      </trkpt>
      <trkpt lat="44.49435" lon="0.9276">
        <ele>130.6</ele>
        <time>2022-08-11T16:14:09Z</time>
      </trkpt>
      <trkpt lat="44.4944" lon="0.92752">
        <ele>130.6</ele>
        <time>2022-08-11T16:14:11Z</time>
      </trkpt>
      <trkpt lat="44.49446" lon="0.92744">
        <ele>130.5</ele>
        <time>2022-08-11T16:14:13Z</time>
      </trkpt>
      <trkpt lat="44.49451" lon="0.92738">
        <ele>130.4</ele>
        <time>2022-08-11T16:14:15Z</time>
      </trkpt>
      <trkpt lat="44.49457" lon="0.9273">
        <ele>130.2</ele>
        <time>2022-08-11T16:14:17Z</time>
      </trkpt>
      <trkpt lat="44.49463" lon="0.92723">
        <ele>130.2</ele>
        <time>2022-08-11T16:14:19Z</time>
      </trkpt>
      <trkpt lat="44.4947" lon="0.92717">
        <ele>130.2</ele>
        <time>2022-08-11T16:14:21Z</time>
      </trkpt>
      <trkpt lat="44.49479" lon="0.92711">
        <ele>130.3</ele>
        <time>2022-08-11T16:14:23Z</time>
      </trkpt>
      <trkpt lat="44.49488" lon="0.92706">
        <ele>130.5</ele>
        <time>2022-08-11T16:14:25Z</time>
      </trkpt>
      <trkpt lat="44.49498" lon="0.92704">
        <ele>130.8</ele>
        <time>2022-08-11T16:14:27Z</time>
      </trkpt>
      <trkpt lat="44.49508" lon="0.92702">
        <ele>130.9</ele>
        <time>2022-08-11T16:14:29Z</time>
      </trkpt>
      <trkpt lat="44.49518" lon="0.92701">
        <ele>131</ele>
        <time>2022-08-11T16:14:31Z</time>
      </trkpt>
      <trkpt lat="44.49528" lon="0.92701">
        <ele>131.1</ele>
        <time>2022-08-11T16:14:33Z</time>
      </trkpt>
      <trkpt lat="44.49537" lon="0.92701">
        <ele>131.2</ele>
        <time>2022-08-11T16:14:35Z</time>
      </trkpt>
      <trkpt lat="44.49546" lon="0.92701">
        <ele>131.3</ele>
        <time>2022-08-11T16:14:37Z</time>
      </trkpt>
      <trkpt lat="44.49555" lon="0.927">
        <ele>131.5</ele>
        <time>2022-08-11T16:14:39Z</time>
      </trkpt>
      <trkpt lat="44.49564" lon="0.92698">
        <ele>131.6</ele>
        <time>2022-08-11T16:14:41Z</time>
      </trkpt>
      <trkpt lat="44.49573" lon="0.92697">
        <ele>131.8</ele>
        <time>2022-08-11T16:14:43Z</time>
      </trkpt>
      <trkpt lat="44.49581" lon="0.92695">
        <ele>131.9</ele>
        <time>2022-08-11T16:14:45Z</time>
      </trkpt>
      <trkpt lat="44.49589" lon="0.92693">
        <ele>132</ele>
        <time>2022-08-11T16:14:47Z</time>
      </trkpt>
      <trkpt lat="44.49597" lon="0.9269">
        <ele>132.1</ele>
        <time>2022-08-11T16:14:49Z</time>
      </trkpt>
      <trkpt lat="44.49604" lon="0.92687">
        <ele>132.1</ele>
        <time>2022-08-11T16:14:51Z</time>
      </trkpt>
      <trkpt lat="44.49611" lon="0.92685">
        <ele>132.2</ele>
        <time>2022-08-11T16:14:53Z</time>
      </trkpt>
      <trkpt lat="44.49617" lon="0.92682">
        <ele>132.3</ele>
        <time>2022-08-11T16:14:55Z</time>
      </trkpt>
      <trkpt lat="44.49624" lon="0.92679">
        <ele>132.4</ele>
        <time>2022-08-11T16:14:57Z</time>
      </trkpt>
      <trkpt lat="44.4963" lon="0.92676">
        <ele>132.5</ele>
        <time>2022-08-11T16:14:59Z</time>
      </trkpt>
      <trkpt lat="44.49636" lon="0.92673">
        <ele>132.7</ele>
        <time>2022-08-11T16:15:01Z</time>
      </trkpt>
      <trkpt lat="44.49641" lon="0.9267">
        <ele>132.8</ele>
        <time>2022-08-11T16:15:03Z</time>
      </trkpt>
      <trkpt lat="44.49646" lon="0.92666">
        <ele>133</ele>
        <time>2022-08-11T16:15:05Z</time>
      </trkpt>
      <trkpt lat="44.49652" lon="0.92663">
        <ele>133.1</ele>
        <time>2022-08-11T16:15:07Z</time>
      </trkpt>
      <trkpt lat="44.49657" lon="0.92659">
        <ele>133.3</ele>
        <time>2022-08-11T16:15:09Z</time>
      </trkpt>
      <trkpt lat="44.49662" lon="0.92655">
        <ele>133.5</ele>
        <time>2022-08-11T16:15:11Z</time>
      </trkpt>
      <trkpt lat="44.49667" lon="0.92651">
        <ele>133.8</ele>
        <time>2022-08-11T16:15:13Z</time>
      </trkpt>
      <trkpt lat="44.49671" lon="0.92646">
        <ele>133.9</ele>
        <time>2022-08-11T16:15:15Z</time>
      </trkpt>
      <trkpt lat="44.49676" lon="0.92641">
        <ele>134.1</ele>
        <time>2022-08-11T16:15:17Z</time>
      </trkpt>
      <trkpt lat="44.49681" lon="0.92637">
        <ele>134.2</ele>
        <time>2022-08-11T16:15:19Z</time>
      </trkpt>
      <trkpt lat="44.49686" lon="0.92633">
        <ele>134.4</ele>
        <time>2022-08-11T16:15:21Z</time>
      </trkpt>
      <trkpt lat="44.49691" lon="0.92628">
        <ele>134.6</ele>
        <time>2022-08-11T16:15:23Z</time>
      </trkpt>
      <trkpt lat="44.49696" lon="0.92623">
        <ele>134.8</ele>
        <time>2022-08-11T16:15:25Z</time>
      </trkpt>
      <trkpt lat="44.49701" lon="0.92617">
        <ele>135.1</ele>
        <time>2022-08-11T16:15:27Z</time>
      </trkpt>
      <trkpt lat="44.49705" lon="0.92612">
        <ele>135.3</ele>
        <time>2022-08-11T16:15:29Z</time>
      </trkpt>
      <trkpt lat="44.4971" lon="0.92607">
        <ele>135.6</ele>
        <time>2022-08-11T16:15:31Z</time>
      </trkpt>
      <trkpt lat="44.49714" lon="0.92601">
        <ele>135.9</ele>
        <time>2022-08-11T16:15:33Z</time>
      </trkpt>
      <trkpt lat="44.49719" lon="0.92596">
        <ele>136.2</ele>
        <time>2022-08-11T16:15:35Z</time>
      </trkpt>
      <trkpt lat="44.49723" lon="0.9259">
        <ele>136.6</ele>
        <time>2022-08-11T16:15:37Z</time>
      </trkpt>
      <trkpt lat="44.49728" lon="0.92585">
        <ele>136.9</ele>
        <time>2022-08-11T16:15:39Z</time>
      </trkpt>
      <trkpt lat="44.49732" lon="0.92579">
        <ele>137.4</ele>
        <time>2022-08-11T16:15:41Z</time>
      </trkpt>
      <trkpt lat="44.49736" lon="0.92572">
        <ele>137.9</ele>
        <time>2022-08-11T16:15:43Z</time>
      </trkpt>
      <trkpt lat="44.49741" lon="0.92567">
        <ele>138.5</ele>
        <time>2022-08-11T16:15:45Z</time>
      </trkpt>
      <trkpt lat="44.49745" lon="0.9256">
        <ele>139.1</ele>
        <time>2022-08-11T16:15:47Z</time>
      </trkpt>
      <trkpt lat="44.49749" lon="0.92554">
        <ele>139.8</ele>
        <time>2022-08-11T16:15:49Z</time>
      </trkpt>
      <trkpt lat="44.49753" lon="0.92547">
        <ele>140.2</ele>
        <time>2022-08-11T16:15:51Z</time>
      </trkpt>
      <trkpt lat="44.49757" lon="0.92542">
        <ele>140.3</ele>
        <time>2022-08-11T16:15:53Z</time>
      </trkpt>
      <trkpt lat="44.49762" lon="0.92535">
        <ele>140.5</ele>
        <time>2022-08-11T16:15:55Z</time>
      </trkpt>
      <trkpt lat="44.49767" lon="0.92528">
        <ele>140.7</ele>
        <time>2022-08-11T16:15:57Z</time>
      </trkpt>
      <trkpt lat="44.49771" lon="0.92521">
        <ele>140.9</ele>
        <time>2022-08-11T16:15:59Z</time>
      </trkpt>
      <trkpt lat="44.49776" lon="0.92516">
        <ele>140.8</ele>
        <time>2022-08-11T16:16:01Z</time>
      </trkpt>
      <trkpt lat="44.49781" lon="0.92509">
        <ele>140.9</ele>
        <time>2022-08-11T16:16:03Z</time>
      </trkpt>
      <trkpt lat="44.49786" lon="0.92504">
        <ele>140.8</ele>
        <time>2022-08-11T16:16:05Z</time>
      </trkpt>
      <trkpt lat="44.49792" lon="0.92498">
        <ele>140.7</ele>
        <time>2022-08-11T16:16:07Z</time>
      </trkpt>
      <trkpt lat="44.49797" lon="0.92492">
        <ele>140.6</ele>
        <time>2022-08-11T16:16:09Z</time>
      </trkpt>
      <trkpt lat="44.49803" lon="0.92486">
        <ele>140.6</ele>
        <time>2022-08-11T16:16:11Z</time>
      </trkpt>
      <trkpt lat="44.49808" lon="0.92479">
        <ele>140.7</ele>
        <time>2022-08-11T16:16:13Z</time>
      </trkpt>
      <trkpt lat="44.49814" lon="0.92474">
        <ele>140.6</ele>
        <time>2022-08-11T16:16:15Z</time>
      </trkpt>
      <trkpt lat="44.4982" lon="0.92468">
        <ele>140.7</ele>
        <time>2022-08-11T16:16:17Z</time>
      </trkpt>
      <trkpt lat="44.49825" lon="0.92461">
        <ele>140.9</ele>
        <time>2022-08-11T16:16:19Z</time>
      </trkpt>
      <trkpt lat="44.49831" lon="0.92455">
        <ele>141.1</ele>
        <time>2022-08-11T16:16:21Z</time>
      </trkpt>
      <trkpt lat="44.49836" lon="0.92447">
        <ele>141.5</ele>
        <time>2022-08-11T16:16:23Z</time>
      </trkpt>
      <trkpt lat="44.49842" lon="0.92441">
        <ele>141.8</ele>
        <time>2022-08-11T16:16:25Z</time>
      </trkpt>
      <trkpt lat="44.49847" lon="0.92434">
        <ele>142.1</ele>
        <time>2022-08-11T16:16:27Z</time>
      </trkpt>
      <trkpt lat="44.49852" lon="0.92427">
        <ele>142.3</ele>
        <time>2022-08-11T16:16:29Z</time>
      </trkpt>
      <trkpt lat="44.49858" lon="0.92421">
        <ele>142.5</ele>
        <time>2022-08-11T16:16:31Z</time>
      </trkpt>
      <trkpt lat="44.49862" lon="0.92414">
        <ele>142.7</ele>
        <time>2022-08-11T16:16:33Z</time>
      </trkpt>
      <trkpt lat="44.49867" lon="0.92409">
        <ele>142.6</ele>
        <time>2022-08-11T16:16:35Z</time>
      </trkpt>
      <trkpt lat="44.49872" lon="0.92403">
        <ele>142.5</ele>
        <time>2022-08-11T16:16:37Z</time>
      </trkpt>
      <trkpt lat="44.49876" lon="0.92396">
        <ele>142.6</ele>
        <time>2022-08-11T16:16:39Z</time>
      </trkpt>
      <trkpt lat="44.49881" lon="0.92391">
        <ele>142.5</ele>
        <time>2022-08-11T16:16:41Z</time>
      </trkpt>
      <trkpt lat="44.49886" lon="0.92386">
        <ele>142.5</ele>
        <time>2022-08-11T16:16:43Z</time>
      </trkpt>
      <trkpt lat="44.4989" lon="0.92381">
        <ele>142.5</ele>
        <time>2022-08-11T16:16:45Z</time>
      </trkpt>
      <trkpt lat="44.49895" lon="0.92376">
        <ele>142.5</ele>
        <time>2022-08-11T16:16:47Z</time>
      </trkpt>
      <trkpt lat="44.499" lon="0.92371">
        <ele>142.5</ele>
        <time>2022-08-11T16:16:49Z</time>
      </trkpt>
      <trkpt lat="44.49904" lon="0.92366">
        <ele>142.5</ele>
        <time>2022-08-11T16:16:51Z</time>
      </trkpt>
      <trkpt lat="44.49909" lon="0.92361">
        <ele>142.5</ele>
        <time>2022-08-11T16:16:53Z</time>
      </trkpt>
      <trkpt lat="44.49914" lon="0.92356">
        <ele>142.6</ele>
        <time>2022-08-11T16:16:55Z</time>
      </trkpt>
      <trkpt lat="44.49918" lon="0.9235">
        <ele>142.8</ele>
        <time>2022-08-11T16:16:57Z</time>
      </trkpt>
      <trkpt lat="44.49923" lon="0.92345">
        <ele>143.3</ele>
        <time>2022-08-11T16:16:59Z</time>
      </trkpt>
      <trkpt lat="44.49927" lon="0.92339">
        <ele>143.8</ele>
        <time>2022-08-11T16:17:01Z</time>
      </trkpt>
      <trkpt lat="44.49932" lon="0.92333">
        <ele>144.4</ele>
        <time>2022-08-11T16:17:03Z</time>
      </trkpt>
      <trkpt lat="44.49938" lon="0.92328">
        <ele>144.9</ele>
        <time>2022-08-11T16:17:05Z</time>
      </trkpt>
      <trkpt lat="44.49943" lon="0.92322">
        <ele>145.5</ele>
        <time>2022-08-11T16:17:07Z</time>
      </trkpt>
      <trkpt lat="44.49949" lon="0.92315">
        <ele>146.2</ele>
        <time>2022-08-11T16:17:09Z</time>
      </trkpt>
      <trkpt lat="44.49954" lon="0.92308">
        <ele>146.9</ele>
        <time>2022-08-11T16:17:11Z</time>
      </trkpt>
      <trkpt lat="44.49961" lon="0.92302">
        <ele>147.5</ele>
        <time>2022-08-11T16:17:13Z</time>
      </trkpt>
      <trkpt lat="44.49967" lon="0.92295">
        <ele>148.1</ele>
        <time>2022-08-11T16:17:15Z</time>
      </trkpt>
      <trkpt lat="44.49974" lon="0.92289">
        <ele>148.8</ele>
        <time>2022-08-11T16:17:17Z</time>
      </trkpt>
      <trkpt lat="44.4998" lon="0.92282">
        <ele>149.4</ele>
        <time>2022-08-11T16:17:19Z</time>
      </trkpt>
      <trkpt lat="44.49987" lon="0.92275">
        <ele>150</ele>
        <time>2022-08-11T16:17:21Z</time>
      </trkpt>
      <trkpt lat="44.49994" lon="0.92269">
        <ele>150.5</ele>
        <time>2022-08-11T16:17:23Z</time>
      </trkpt>
      <trkpt lat="44.50001" lon="0.92264">
        <ele>151</ele>
        <time>2022-08-11T16:17:25Z</time>
      </trkpt>
      <trkpt lat="44.50009" lon="0.92259">
        <ele>151.4</ele>
        <time>2022-08-11T16:17:27Z</time>
      </trkpt>
      <trkpt lat="44.50016" lon="0.92256">
        <ele>151.6</ele>
        <time>2022-08-11T16:17:29Z</time>
      </trkpt>
      <trkpt lat="44.50025" lon="0.92253">
        <ele>151.8</ele>
        <time>2022-08-11T16:17:31Z</time>
      </trkpt>
      <trkpt lat="44.50034" lon="0.92251">
        <ele>151.9</ele>
        <time>2022-08-11T16:17:33Z</time>
      </trkpt>
      <trkpt lat="44.50042" lon="0.9225">
        <ele>152</ele>
        <time>2022-08-11T16:17:35Z</time>
      </trkpt>
      <trkpt lat="44.50052" lon="0.9225">
        <ele>152</ele>
        <time>2022-08-11T16:17:37Z</time>
      </trkpt>
      <trkpt lat="44.5006" lon="0.9225">
        <ele>152</ele>
        <time>2022-08-11T16:17:39Z</time>
      </trkpt>
      <trkpt lat="44.50068" lon="0.92251">
        <ele>152</ele>
        <time>2022-08-11T16:17:41Z</time>
      </trkpt>
      <trkpt lat="44.50077" lon="0.9225">
        <ele>152</ele>
        <time>2022-08-11T16:17:43Z</time>
      </trkpt>
      <trkpt lat="44.50085" lon="0.92248">
        <ele>152.1</ele>
        <time>2022-08-11T16:17:45Z</time>
      </trkpt>
      <trkpt lat="44.50094" lon="0.92247">
        <ele>152.3</ele>
        <time>2022-08-11T16:17:47Z</time>
      </trkpt>
      <trkpt lat="44.50103" lon="0.92244">
        <ele>152.5</ele>
        <time>2022-08-11T16:17:49Z</time>
      </trkpt>
      <trkpt lat="44.5011" lon="0.92242">
        <ele>152.7</ele>
        <time>2022-08-11T16:17:51Z</time>
      </trkpt>
      <trkpt lat="44.50119" lon="0.92238">
        <ele>153</ele>
        <time>2022-08-11T16:17:53Z</time>
      </trkpt>
      <trkpt lat="44.50125" lon="0.92235">
        <ele>153.1</ele>
        <time>2022-08-11T16:17:55Z</time>
      </trkpt>
      <trkpt lat="44.50133" lon="0.9223">
        <ele>153.4</ele>
        <time>2022-08-11T16:17:57Z</time>
      </trkpt>
      <trkpt lat="44.5014" lon="0.92225">
        <ele>153.6</ele>
        <time>2022-08-11T16:17:59Z</time>
      </trkpt>
      <trkpt lat="44.50146" lon="0.92222">
        <ele>153.7</ele>
        <time>2022-08-11T16:18:01Z</time>
      </trkpt>
      <trkpt lat="44.5015" lon="0.92216">
        <ele>153.8</ele>
        <time>2022-08-11T16:18:03Z</time>
      </trkpt>
      <trkpt lat="44.50156" lon="0.92213">
        <ele>153.9</ele>
        <time>2022-08-11T16:18:05Z</time>
      </trkpt>
      <trkpt lat="44.50159" lon="0.92206">
        <ele>154.1</ele>
        <time>2022-08-11T16:18:07Z</time>
      </trkpt>
      <trkpt lat="44.50162" lon="0.92201">
        <ele>154.2</ele>
        <time>2022-08-11T16:18:09Z</time>
      </trkpt>
      <trkpt lat="44.50166" lon="0.92195">
        <ele>154.3</ele>
        <time>2022-08-11T16:18:11Z</time>
      </trkpt>
      <trkpt lat="44.5017" lon="0.92191">
        <ele>154.2</ele>
        <time>2022-08-11T16:18:13Z</time>
      </trkpt>
      <trkpt lat="44.50173" lon="0.92185">
        <ele>154</ele>
        <time>2022-08-11T16:18:15Z</time>
      </trkpt>
      <trkpt lat="44.50177" lon="0.92181">
        <ele>153.8</ele>
        <time>2022-08-11T16:18:17Z</time>
      </trkpt>
      <trkpt lat="44.5018" lon="0.92175">
        <ele>153.6</ele>
        <time>2022-08-11T16:18:19Z</time>
      </trkpt>
      <trkpt lat="44.50183" lon="0.9217">
        <ele>153.3</ele>
        <time>2022-08-11T16:18:21Z</time>
      </trkpt>
      <trkpt lat="44.50187" lon="0.92165">
        <ele>153.1</ele>
        <time>2022-08-11T16:18:23Z</time>
      </trkpt>
      <trkpt lat="44.5019" lon="0.92159">
        <ele>152.8</ele>
        <time>2022-08-11T16:18:25Z</time>
      </trkpt>
      <trkpt lat="44.50194" lon="0.92154">
        <ele>152.5</ele>
        <time>2022-08-11T16:18:27Z</time>
      </trkpt>
      <trkpt lat="44.50198" lon="0.9215">
        <ele>152.2</ele>
        <time>2022-08-11T16:18:29Z</time>
      </trkpt>
      <trkpt lat="44.50202" lon="0.92146">
        <ele>151.8</ele>
        <time>2022-08-11T16:18:31Z</time>
      </trkpt>
      <trkpt lat="44.50206" lon="0.92142">
        <ele>151.5</ele>
        <time>2022-08-11T16:18:33Z</time>
      </trkpt>
      <trkpt lat="44.5021" lon="0.92139">
        <ele>151.2</ele>
        <time>2022-08-11T16:18:35Z</time>
      </trkpt>
      <trkpt lat="44.50214" lon="0.92136">
        <ele>150.8</ele>
        <time>2022-08-11T16:18:37Z</time>
      </trkpt>
      <trkpt lat="44.50217" lon="0.92132">
        <ele>150.7</ele>
        <time>2022-08-11T16:18:39Z</time>
      </trkpt>
      <trkpt lat="44.5022" lon="0.92128">
        <ele>150.5</ele>
        <time>2022-08-11T16:18:41Z</time>
      </trkpt>
      <trkpt lat="44.50223" lon="0.92123">
        <ele>150.3</ele>
        <time>2022-08-11T16:18:43Z</time>
      </trkpt>
      <trkpt lat="44.50226" lon="0.92118">
        <ele>150.2</ele>
        <time>2022-08-11T16:18:45Z</time>
      </trkpt>
      <trkpt lat="44.50229" lon="0.92113">
        <ele>150</ele>
        <time>2022-08-11T16:18:47Z</time>
      </trkpt>
      <trkpt lat="44.50233" lon="0.92108">
        <ele>149.8</ele>
        <time>2022-08-11T16:18:49Z</time>
      </trkpt>
      <trkpt lat="44.50236" lon="0.92103">
        <ele>149.6</ele>
        <time>2022-08-11T16:18:51Z</time>
      </trkpt>
      <trkpt lat="44.5024" lon="0.92098">
        <ele>149.4</ele>
        <time>2022-08-11T16:18:53Z</time>
      </trkpt>
      <trkpt lat="44.50244" lon="0.92093">
        <ele>149.2</ele>
        <time>2022-08-11T16:18:55Z</time>
      </trkpt>
      <trkpt lat="44.50248" lon="0.92087">
        <ele>149</ele>
        <time>2022-08-11T16:18:57Z</time>
      </trkpt>
      <trkpt lat="44.50253" lon="0.92081">
        <ele>148.8</ele>
        <time>2022-08-11T16:18:59Z</time>
      </trkpt>
      <trkpt lat="44.50257" lon="0.92075">
        <ele>148.7</ele>
        <time>2022-08-11T16:19:01Z</time>
      </trkpt>
      <trkpt lat="44.50262" lon="0.92069">
        <ele>148.6</ele>
        <time>2022-08-11T16:19:03Z</time>
      </trkpt>
      <trkpt lat="44.50266" lon="0.92062">
        <ele>148.5</ele>
        <time>2022-08-11T16:19:05Z</time>
      </trkpt>
      <trkpt lat="44.50271" lon="0.92055">
        <ele>148.4</ele>
        <time>2022-08-11T16:19:07Z</time>
      </trkpt>
      <trkpt lat="44.50276" lon="0.92049">
        <ele>148.3</ele>
        <time>2022-08-11T16:19:09Z</time>
      </trkpt>
      <trkpt lat="44.50281" lon="0.92041">
        <ele>148.3</ele>
        <time>2022-08-11T16:19:11Z</time>
      </trkpt>
      <trkpt lat="44.50286" lon="0.92034">
        <ele>148.3</ele>
        <time>2022-08-11T16:19:13Z</time>
      </trkpt>
      <trkpt lat="44.50292" lon="0.92027">
        <ele>148.4</ele>
        <time>2022-08-11T16:19:15Z</time>
      </trkpt>
      <trkpt lat="44.50297" lon="0.92018">
        <ele>148.5</ele>
        <time>2022-08-11T16:19:17Z</time>
      </trkpt>
      <trkpt lat="44.50302" lon="0.9201">
        <ele>148.6</ele>
        <time>2022-08-11T16:19:19Z</time>
      </trkpt>
      <trkpt lat="44.50308" lon="0.92002">
        <ele>148.8</ele>
        <time>2022-08-11T16:19:21Z</time>
      </trkpt>
      <trkpt lat="44.50313" lon="0.91993">
        <ele>148.9</ele>
        <time>2022-08-11T16:19:23Z</time>
      </trkpt>
      <trkpt lat="44.50318" lon="0.91983">
        <ele>149</ele>
        <time>2022-08-11T16:19:25Z</time>
      </trkpt>
      <trkpt lat="44.50323" lon="0.91974">
        <ele>149</ele>
        <time>2022-08-11T16:19:27Z</time>
      </trkpt>
      <trkpt lat="44.50328" lon="0.91964">
        <ele>149.1</ele>
        <time>2022-08-11T16:19:29Z</time>
      </trkpt>
      <trkpt lat="44.50333" lon="0.91954">
        <ele>149.1</ele>
        <time>2022-08-11T16:19:31Z</time>
      </trkpt>
      <trkpt lat="44.50338" lon="0.91945">
        <ele>149.1</ele>
        <time>2022-08-11T16:19:33Z</time>
      </trkpt>
      <trkpt lat="44.50343" lon="0.91935">
        <ele>149.2</ele>
        <time>2022-08-11T16:19:35Z</time>
      </trkpt>
      <trkpt lat="44.50347" lon="0.91926">
        <ele>149.4</ele>
        <time>2022-08-11T16:19:37Z</time>
      </trkpt>
      <trkpt lat="44.50352" lon="0.91917">
        <ele>149.5</ele>
        <time>2022-08-11T16:19:39Z</time>
      </trkpt>
      <trkpt lat="44.50357" lon="0.91909">
        <ele>149.7</ele>
        <time>2022-08-11T16:19:41Z</time>
      </trkpt>
      <trkpt lat="44.50363" lon="0.919">
        <ele>150</ele>
        <time>2022-08-11T16:19:43Z</time>
      </trkpt>
      <trkpt lat="44.50367" lon="0.91891">
        <ele>150.3</ele>
        <time>2022-08-11T16:19:45Z</time>
      </trkpt>
      <trkpt lat="44.50371" lon="0.91882">
        <ele>150.5</ele>
        <time>2022-08-11T16:19:47Z</time>
      </trkpt>
      <trkpt lat="44.50376" lon="0.91874">
        <ele>150.8</ele>
        <time>2022-08-11T16:19:49Z</time>
      </trkpt>
      <trkpt lat="44.5038" lon="0.91865">
        <ele>151.1</ele>
        <time>2022-08-11T16:19:51Z</time>
      </trkpt>
      <trkpt lat="44.50384" lon="0.91857">
        <ele>151.4</ele>
        <time>2022-08-11T16:19:53Z</time>
      </trkpt>
      <trkpt lat="44.50388" lon="0.91849">
        <ele>151.7</ele>
        <time>2022-08-11T16:19:55Z</time>
      </trkpt>
      <trkpt lat="44.50393" lon="0.91842">
        <ele>151.9</ele>
        <time>2022-08-11T16:19:57Z</time>
      </trkpt>
      <trkpt lat="44.50398" lon="0.91834">
        <ele>152.2</ele>
        <time>2022-08-11T16:19:59Z</time>
      </trkpt>
      <trkpt lat="44.50402" lon="0.91826">
        <ele>152.3</ele>
        <time>2022-08-11T16:20:01Z</time>
      </trkpt>
      <trkpt lat="44.50406" lon="0.91817">
        <ele>152.3</ele>
        <time>2022-08-11T16:20:03Z</time>
      </trkpt>
      <trkpt lat="44.50411" lon="0.9181">
        <ele>152.4</ele>
        <time>2022-08-11T16:20:05Z</time>
      </trkpt>
      <trkpt lat="44.50415" lon="0.91802">
        <ele>152.4</ele>
        <time>2022-08-11T16:20:07Z</time>
      </trkpt>
      <trkpt lat="44.50419" lon="0.91794">
        <ele>152.3</ele>
        <time>2022-08-11T16:20:09Z</time>
      </trkpt>
      <trkpt lat="44.50423" lon="0.91785">
        <ele>152.1</ele>
        <time>2022-08-11T16:20:11Z</time>
      </trkpt>
      <trkpt lat="44.50427" lon="0.91778">
        <ele>151.9</ele>
        <time>2022-08-11T16:20:13Z</time>
      </trkpt>
      <trkpt lat="44.50431" lon="0.91769">
        <ele>151.8</ele>
        <time>2022-08-11T16:20:15Z</time>
      </trkpt>
      <trkpt lat="44.50435" lon="0.9176">
        <ele>151.7</ele>
        <time>2022-08-11T16:20:17Z</time>
      </trkpt>
      <trkpt lat="44.50437" lon="0.91751">
        <ele>151.7</ele>
        <time>2022-08-11T16:20:19Z</time>
      </trkpt>
      <trkpt lat="44.50439" lon="0.91742">
        <ele>151.9</ele>
        <time>2022-08-11T16:20:21Z</time>
      </trkpt>
      <trkpt lat="44.50441" lon="0.91733">
        <ele>152</ele>
        <time>2022-08-11T16:20:23Z</time>
      </trkpt>
      <trkpt lat="44.50443" lon="0.91724">
        <ele>152.2</ele>
        <time>2022-08-11T16:20:25Z</time>
      </trkpt>
      <trkpt lat="44.50443" lon="0.91715">
        <ele>152.5</ele>
        <time>2022-08-11T16:20:27Z</time>
      </trkpt>
      <trkpt lat="44.50443" lon="0.91705">
        <ele>152.8</ele>
        <time>2022-08-11T16:20:29Z</time>
      </trkpt>
      <trkpt lat="44.50443" lon="0.91696">
        <ele>153.1</ele>
        <time>2022-08-11T16:20:31Z</time>
      </trkpt>
      <trkpt lat="44.50443" lon="0.91687">
        <ele>153.4</ele>
        <time>2022-08-11T16:20:33Z</time>
      </trkpt>
      <trkpt lat="44.50442" lon="0.91677">
        <ele>153.7</ele>
        <time>2022-08-11T16:20:35Z</time>
      </trkpt>
      <trkpt lat="44.50441" lon="0.91668">
        <ele>154</ele>
        <time>2022-08-11T16:20:37Z</time>
      </trkpt>
      <trkpt lat="44.5044" lon="0.91658">
        <ele>154.4</ele>
        <time>2022-08-11T16:20:39Z</time>
      </trkpt>
      <trkpt lat="44.5044" lon="0.91648">
        <ele>154.8</ele>
        <time>2022-08-11T16:20:41Z</time>
      </trkpt>
      <trkpt lat="44.50439" lon="0.91639">
        <ele>155.2</ele>
        <time>2022-08-11T16:20:43Z</time>
      </trkpt>
      <trkpt lat="44.50438" lon="0.91629">
        <ele>155.6</ele>
        <time>2022-08-11T16:20:45Z</time>
      </trkpt>
      <trkpt lat="44.50437" lon="0.9162">
        <ele>156</ele>
        <time>2022-08-11T16:20:47Z</time>
      </trkpt>
      <trkpt lat="44.50436" lon="0.9161">
        <ele>156.4</ele>
        <time>2022-08-11T16:20:49Z</time>
      </trkpt>
      <trkpt lat="44.50435" lon="0.91601">
        <ele>156.8</ele>
        <time>2022-08-11T16:20:51Z</time>
      </trkpt>
      <trkpt lat="44.50435" lon="0.91593">
        <ele>157.2</ele>
        <time>2022-08-11T16:20:53Z</time>
      </trkpt>
      <trkpt lat="44.50434" lon="0.91582">
        <ele>157.6</ele>
        <time>2022-08-11T16:20:55Z</time>
      </trkpt>
      <trkpt lat="44.50433" lon="0.91574">
        <ele>157.8</ele>
        <time>2022-08-11T16:20:57Z</time>
      </trkpt>
      <trkpt lat="44.50432" lon="0.91565">
        <ele>158</ele>
        <time>2022-08-11T16:20:59Z</time>
      </trkpt>
      <trkpt lat="44.50431" lon="0.91556">
        <ele>158.1</ele>
        <time>2022-08-11T16:21:01Z</time>
      </trkpt>
      <trkpt lat="44.5043" lon="0.91548">
        <ele>158.3</ele>
        <time>2022-08-11T16:21:03Z</time>
      </trkpt>
      <trkpt lat="44.50429" lon="0.91539">
        <ele>158.5</ele>
        <time>2022-08-11T16:21:05Z</time>
      </trkpt>
      <trkpt lat="44.50429" lon="0.9153">
        <ele>158.7</ele>
        <time>2022-08-11T16:21:07Z</time>
      </trkpt>
      <trkpt lat="44.50428" lon="0.91522">
        <ele>158.9</ele>
        <time>2022-08-11T16:21:09Z</time>
      </trkpt>
      <trkpt lat="44.50427" lon="0.91513">
        <ele>159.1</ele>
        <time>2022-08-11T16:21:11Z</time>
      </trkpt>
      <trkpt lat="44.50426" lon="0.91505">
        <ele>159.3</ele>
        <time>2022-08-11T16:21:13Z</time>
      </trkpt>
      <trkpt lat="44.50425" lon="0.91496">
        <ele>159.5</ele>
        <time>2022-08-11T16:21:15Z</time>
      </trkpt>
      <trkpt lat="44.50425" lon="0.91488">
        <ele>159.4</ele>
        <time>2022-08-11T16:21:17Z</time>
      </trkpt>
      <trkpt lat="44.50424" lon="0.9148">
        <ele>159.4</ele>
        <time>2022-08-11T16:21:19Z</time>
      </trkpt>
      <trkpt lat="44.50423" lon="0.91472">
        <ele>159.4</ele>
        <time>2022-08-11T16:21:21Z</time>
      </trkpt>
      <trkpt lat="44.50422" lon="0.91464">
        <ele>159.4</ele>
        <time>2022-08-11T16:21:23Z</time>
      </trkpt>
      <trkpt lat="44.50422" lon="0.91455">
        <ele>159.3</ele>
        <time>2022-08-11T16:21:25Z</time>
      </trkpt>
      <trkpt lat="44.5042" lon="0.91447">
        <ele>159.3</ele>
        <time>2022-08-11T16:21:27Z</time>
      </trkpt>
      <trkpt lat="44.5042" lon="0.91437">
        <ele>159.2</ele>
        <time>2022-08-11T16:21:29Z</time>
      </trkpt>
      <trkpt lat="44.5042" lon="0.91428">
        <ele>159.1</ele>
        <time>2022-08-11T16:21:31Z</time>
      </trkpt>
      <trkpt lat="44.50419" lon="0.91418">
        <ele>159</ele>
        <time>2022-08-11T16:21:33Z</time>
      </trkpt>
      <trkpt lat="44.50418" lon="0.91407">
        <ele>158.6</ele>
        <time>2022-08-11T16:21:35Z</time>
      </trkpt>
      <trkpt lat="44.50417" lon="0.91396">
        <ele>158.3</ele>
        <time>2022-08-11T16:21:37Z</time>
      </trkpt>
      <trkpt lat="44.50416" lon="0.91385">
        <ele>157.8</ele>
        <time>2022-08-11T16:21:39Z</time>
      </trkpt>
      <trkpt lat="44.50415" lon="0.91372">
        <ele>157.2</ele>
        <time>2022-08-11T16:21:41Z</time>
      </trkpt>
      <trkpt lat="44.50414" lon="0.91357">
        <ele>156.6</ele>
        <time>2022-08-11T16:21:43Z</time>
      </trkpt>
      <trkpt lat="44.50413" lon="0.91341">
        <ele>155.9</ele>
        <time>2022-08-11T16:21:45Z</time>
      </trkpt>
      <trkpt lat="44.50411" lon="0.91323">
        <ele>154.9</ele>
        <time>2022-08-11T16:21:47Z</time>
      </trkpt>
      <trkpt lat="44.5041" lon="0.91304">
        <ele>153.7</ele>
        <time>2022-08-11T16:21:49Z</time>
      </trkpt>
      <trkpt lat="44.50407" lon="0.91284">
        <ele>152.4</ele>
        <time>2022-08-11T16:21:51Z</time>
      </trkpt>
      <trkpt lat="44.50403" lon="0.91263">
        <ele>150.9</ele>
        <time>2022-08-11T16:21:53Z</time>
      </trkpt>
      <trkpt lat="44.50397" lon="0.91241">
        <ele>149.6</ele>
        <time>2022-08-11T16:21:55Z</time>
      </trkpt>
      <trkpt lat="44.50388" lon="0.91222">
        <ele>148.6</ele>
        <time>2022-08-11T16:21:57Z</time>
      </trkpt>
      <trkpt lat="44.50376" lon="0.91203">
        <ele>147.4</ele>
        <time>2022-08-11T16:21:59Z</time>
      </trkpt>
      <trkpt lat="44.50364" lon="0.91184">
        <ele>146.3</ele>
        <time>2022-08-11T16:22:01Z</time>
      </trkpt>
      <trkpt lat="44.50351" lon="0.91165">
        <ele>145</ele>
        <time>2022-08-11T16:22:03Z</time>
      </trkpt>
      <trkpt lat="44.50338" lon="0.91146">
        <ele>144.2</ele>
        <time>2022-08-11T16:22:05Z</time>
      </trkpt>
      <trkpt lat="44.50325" lon="0.91126">
        <ele>143.9</ele>
        <time>2022-08-11T16:22:07Z</time>
      </trkpt>
      <trkpt lat="44.50312" lon="0.91108">
        <ele>143.7</ele>
        <time>2022-08-11T16:22:09Z</time>
      </trkpt>
      <trkpt lat="44.50301" lon="0.91091">
        <ele>143.6</ele>
        <time>2022-08-11T16:22:11Z</time>
      </trkpt>
      <trkpt lat="44.50289" lon="0.91074">
        <ele>143.2</ele>
        <time>2022-08-11T16:22:13Z</time>
      </trkpt>
      <trkpt lat="44.50284" lon="0.91054">
        <ele>142.4</ele>
        <time>2022-08-11T16:22:15Z</time>
      </trkpt>
      <trkpt lat="44.50284" lon="0.91034">
        <ele>141.7</ele>
        <time>2022-08-11T16:22:17Z</time>
      </trkpt>
      <trkpt lat="44.50291" lon="0.91017">
        <ele>141.5</ele>
        <time>2022-08-11T16:22:19Z</time>
      </trkpt>
      <trkpt lat="44.503" lon="0.91005">
        <ele>141.7</ele>
        <time>2022-08-11T16:22:21Z</time>
      </trkpt>
      <trkpt lat="44.5031" lon="0.90993">
        <ele>142.2</ele>
        <time>2022-08-11T16:22:23Z</time>
      </trkpt>
      <trkpt lat="44.50318" lon="0.90982">
        <ele>142.6</ele>
        <time>2022-08-11T16:22:25Z</time>
      </trkpt>
      <trkpt lat="44.50327" lon="0.90972">
        <ele>143.2</ele>
        <time>2022-08-11T16:22:27Z</time>
      </trkpt>
      <trkpt lat="44.50335" lon="0.90961">
        <ele>143.6</ele>
        <time>2022-08-11T16:22:29Z</time>
      </trkpt>
      <trkpt lat="44.50342" lon="0.90951">
        <ele>143.7</ele>
        <time>2022-08-11T16:22:31Z</time>
      </trkpt>
      <trkpt lat="44.50349" lon="0.90941">
        <ele>143.8</ele>
        <time>2022-08-11T16:22:33Z</time>
      </trkpt>
      <trkpt lat="44.50355" lon="0.90931">
        <ele>144.1</ele>
        <time>2022-08-11T16:22:35Z</time>
      </trkpt>
      <trkpt lat="44.5036" lon="0.90921">
        <ele>144.3</ele>
        <time>2022-08-11T16:22:37Z</time>
      </trkpt>
      <trkpt lat="44.50364" lon="0.9091">
        <ele>144.5</ele>
        <time>2022-08-11T16:22:39Z</time>
      </trkpt>
      <trkpt lat="44.50367" lon="0.909">
        <ele>144.7</ele>
        <time>2022-08-11T16:22:41Z</time>
      </trkpt>
      <trkpt lat="44.5037" lon="0.9089">
        <ele>145</ele>
        <time>2022-08-11T16:22:43Z</time>
      </trkpt>
      <trkpt lat="44.50371" lon="0.9088">
        <ele>145.2</ele>
        <time>2022-08-11T16:22:45Z</time>
      </trkpt>
      <trkpt lat="44.50373" lon="0.9087">
        <ele>145.4</ele>
        <time>2022-08-11T16:22:47Z</time>
      </trkpt>
      <trkpt lat="44.50374" lon="0.9086">
        <ele>145.6</ele>
        <time>2022-08-11T16:22:49Z</time>
      </trkpt>
      <trkpt lat="44.50374" lon="0.90852">
        <ele>145.7</ele>
        <time>2022-08-11T16:22:51Z</time>
      </trkpt>
      <trkpt lat="44.50374" lon="0.90844">
        <ele>145.8</ele>
        <time>2022-08-11T16:22:53Z</time>
      </trkpt>
      <trkpt lat="44.50374" lon="0.90837">
        <ele>145.9</ele>
        <time>2022-08-11T16:22:55Z</time>
      </trkpt>
      <trkpt lat="44.50375" lon="0.9083">
        <ele>146.1</ele>
        <time>2022-08-11T16:22:57Z</time>
      </trkpt>
      <trkpt lat="44.50376" lon="0.90822">
        <ele>146.4</ele>
        <time>2022-08-11T16:22:59Z</time>
      </trkpt>
      <trkpt lat="44.50377" lon="0.90815">
        <ele>146.6</ele>
        <time>2022-08-11T16:23:01Z</time>
      </trkpt>
      <trkpt lat="44.50377" lon="0.90808">
        <ele>146.8</ele>
        <time>2022-08-11T16:23:03Z</time>
      </trkpt>
      <trkpt lat="44.50377" lon="0.90801">
        <ele>147</ele>
        <time>2022-08-11T16:23:05Z</time>
      </trkpt>
      <trkpt lat="44.50378" lon="0.90795">
        <ele>147.2</ele>
        <time>2022-08-11T16:23:07Z</time>
      </trkpt>
      <trkpt lat="44.50378" lon="0.90788">
        <ele>147.4</ele>
        <time>2022-08-11T16:23:09Z</time>
      </trkpt>
      <trkpt lat="44.5038" lon="0.90781">
        <ele>147.7</ele>
        <time>2022-08-11T16:23:11Z</time>
      </trkpt>
      <trkpt lat="44.50381" lon="0.90774">
        <ele>148</ele>
        <time>2022-08-11T16:23:13Z</time>
      </trkpt>
      <trkpt lat="44.50382" lon="0.90767">
        <ele>148.3</ele>
        <time>2022-08-11T16:23:15Z</time>
      </trkpt>
      <trkpt lat="44.50384" lon="0.90761">
        <ele>148.6</ele>
        <time>2022-08-11T16:23:17Z</time>
      </trkpt>
      <trkpt lat="44.50386" lon="0.90755">
        <ele>148.9</ele>
        <time>2022-08-11T16:23:19Z</time>
      </trkpt>
      <trkpt lat="44.50387" lon="0.90748">
        <ele>149.2</ele>
        <time>2022-08-11T16:23:21Z</time>
      </trkpt>
      <trkpt lat="44.50389" lon="0.90742">
        <ele>149.4</ele>
        <time>2022-08-11T16:23:23Z</time>
      </trkpt>
      <trkpt lat="44.50391" lon="0.90736">
        <ele>149.7</ele>
        <time>2022-08-11T16:23:25Z</time>
      </trkpt>
      <trkpt lat="44.50393" lon="0.9073">
        <ele>150</ele>
        <time>2022-08-11T16:23:27Z</time>
      </trkpt>
      <trkpt lat="44.50395" lon="0.90724">
        <ele>150.2</ele>
        <time>2022-08-11T16:23:29Z</time>
      </trkpt>
      <trkpt lat="44.50397" lon="0.90718">
        <ele>150.5</ele>
        <time>2022-08-11T16:23:31Z</time>
      </trkpt>
      <trkpt lat="44.504" lon="0.90712">
        <ele>150.8</ele>
        <time>2022-08-11T16:23:33Z</time>
      </trkpt>
      <trkpt lat="44.50402" lon="0.90706">
        <ele>151.1</ele>
        <time>2022-08-11T16:23:35Z</time>
      </trkpt>
      <trkpt lat="44.50404" lon="0.90701">
        <ele>151.4</ele>
        <time>2022-08-11T16:23:37Z</time>
      </trkpt>
      <trkpt lat="44.50407" lon="0.90695">
        <ele>151.7</ele>
        <time>2022-08-11T16:23:39Z</time>
      </trkpt>
      <trkpt lat="44.50409" lon="0.90689">
        <ele>152</ele>
        <time>2022-08-11T16:23:41Z</time>
      </trkpt>
      <trkpt lat="44.50412" lon="0.90684">
        <ele>152.3</ele>
        <time>2022-08-11T16:23:43Z</time>
      </trkpt>
      <trkpt lat="44.50414" lon="0.90678">
        <ele>152.6</ele>
        <time>2022-08-11T16:23:45Z</time>
      </trkpt>
      <trkpt lat="44.50417" lon="0.90673">
        <ele>152.9</ele>
        <time>2022-08-11T16:23:47Z</time>
      </trkpt>
      <trkpt lat="44.50419" lon="0.90667">
        <ele>153.1</ele>
        <time>2022-08-11T16:23:49Z</time>
      </trkpt>
      <trkpt lat="44.50422" lon="0.90662">
        <ele>153.4</ele>
        <time>2022-08-11T16:23:51Z</time>
      </trkpt>
      <trkpt lat="44.50425" lon="0.90657">
        <ele>153.6</ele>
        <time>2022-08-11T16:23:53Z</time>
      </trkpt>
      <trkpt lat="44.50428" lon="0.90652">
        <ele>153.9</ele>
        <time>2022-08-11T16:23:55Z</time>
      </trkpt>
      <trkpt lat="44.50432" lon="0.90648">
        <ele>154.2</ele>
        <time>2022-08-11T16:23:57Z</time>
      </trkpt>
      <trkpt lat="44.50436" lon="0.90643">
        <ele>154.5</ele>
        <time>2022-08-11T16:23:59Z</time>
      </trkpt>
      <trkpt lat="44.5044" lon="0.90639">
        <ele>154.8</ele>
        <time>2022-08-11T16:24:01Z</time>
      </trkpt>
      <trkpt lat="44.50444" lon="0.90635">
        <ele>155</ele>
        <time>2022-08-11T16:24:03Z</time>
      </trkpt>
      <trkpt lat="44.50447" lon="0.90631">
        <ele>155.3</ele>
        <time>2022-08-11T16:24:05Z</time>
      </trkpt>
      <trkpt lat="44.50451" lon="0.90628">
        <ele>155.6</ele>
        <time>2022-08-11T16:24:07Z</time>
      </trkpt>
      <trkpt lat="44.50456" lon="0.90624">
        <ele>155.9</ele>
        <time>2022-08-11T16:24:09Z</time>
      </trkpt>
      <trkpt lat="44.5046" lon="0.90621">
        <ele>156.2</ele>
        <time>2022-08-11T16:24:11Z</time>
      </trkpt>
      <trkpt lat="44.50466" lon="0.90619">
        <ele>156.5</ele>
        <time>2022-08-11T16:24:13Z</time>
      </trkpt>
      <trkpt lat="44.50471" lon="0.90616">
        <ele>156.8</ele>
        <time>2022-08-11T16:24:15Z</time>
      </trkpt>
      <trkpt lat="44.50477" lon="0.90613">
        <ele>157.2</ele>
        <time>2022-08-11T16:24:17Z</time>
      </trkpt>
      <trkpt lat="44.50482" lon="0.90611">
        <ele>157.5</ele>
        <time>2022-08-11T16:24:19Z</time>
      </trkpt>
      <trkpt lat="44.50488" lon="0.90608">
        <ele>157.8</ele>
        <time>2022-08-11T16:24:21Z</time>
      </trkpt>
      <trkpt lat="44.50493" lon="0.90606">
        <ele>158.1</ele>
        <time>2022-08-11T16:24:23Z</time>
      </trkpt>
      <trkpt lat="44.50498" lon="0.90603">
        <ele>158.4</ele>
        <time>2022-08-11T16:24:25Z</time>
      </trkpt>
      <trkpt lat="44.50504" lon="0.90602">
        <ele>158.7</ele>
        <time>2022-08-11T16:24:27Z</time>
      </trkpt>
      <trkpt lat="44.5051" lon="0.906">
        <ele>159</ele>
        <time>2022-08-11T16:24:29Z</time>
      </trkpt>
      <trkpt lat="44.50516" lon="0.90597">
        <ele>159.3</ele>
        <time>2022-08-11T16:24:31Z</time>
      </trkpt>
      <trkpt lat="44.50522" lon="0.90594">
        <ele>159.6</ele>
        <time>2022-08-11T16:24:33Z</time>
      </trkpt>
      <trkpt lat="44.50529" lon="0.90592">
        <ele>159.9</ele>
        <time>2022-08-11T16:24:35Z</time>
      </trkpt>
      <trkpt lat="44.50535" lon="0.90589">
        <ele>160.2</ele>
        <time>2022-08-11T16:24:37Z</time>
      </trkpt>
      <trkpt lat="44.50542" lon="0.90586">
        <ele>160.5</ele>
        <time>2022-08-11T16:24:39Z</time>
      </trkpt>
      <trkpt lat="44.50547" lon="0.90583">
        <ele>160.7</ele>
        <time>2022-08-11T16:24:41Z</time>
      </trkpt>
      <trkpt lat="44.50554" lon="0.90581">
        <ele>160.9</ele>
        <time>2022-08-11T16:24:43Z</time>
      </trkpt>
      <trkpt lat="44.50559" lon="0.90579">
        <ele>161</ele>
        <time>2022-08-11T16:24:45Z</time>
      </trkpt>
      <trkpt lat="44.50565" lon="0.90577">
        <ele>161.2</ele>
        <time>2022-08-11T16:24:47Z</time>
      </trkpt>
      <trkpt lat="44.50571" lon="0.90575">
        <ele>161.3</ele>
        <time>2022-08-11T16:24:49Z</time>
      </trkpt>
      <trkpt lat="44.50577" lon="0.90573">
        <ele>161.4</ele>
        <time>2022-08-11T16:24:51Z</time>
      </trkpt>
      <trkpt lat="44.50581" lon="0.90571">
        <ele>161.5</ele>
        <time>2022-08-11T16:24:53Z</time>
      </trkpt>
      <trkpt lat="44.50587" lon="0.90569">
        <ele>161.4</ele>
        <time>2022-08-11T16:24:55Z</time>
      </trkpt>
      <trkpt lat="44.50591" lon="0.90566">
        <ele>161.3</ele>
        <time>2022-08-11T16:24:57Z</time>
      </trkpt>
      <trkpt lat="44.50595" lon="0.90565">
        <ele>161.2</ele>
        <time>2022-08-11T16:24:59Z</time>
      </trkpt>
      <trkpt lat="44.50599" lon="0.90566">
        <ele>161.2</ele>
        <time>2022-08-11T16:25:01Z</time>
      </trkpt>
      <trkpt lat="44.506" lon="0.90565">
        <ele>161.1</ele>
        <time>2022-08-11T16:25:03Z</time>
      </trkpt>
      <trkpt lat="44.506" lon="0.90565">
        <ele>161.1</ele>
        <time>2022-08-11T16:25:05Z</time>
      </trkpt>
      <trkpt lat="44.506" lon="0.90565">
        <ele>161.1</ele>
        <time>2022-08-11T16:25:07Z</time>
      </trkpt>
      <trkpt lat="44.506" lon="0.90565">
        <ele>161.1</ele>
        <time>2022-08-11T16:25:09Z</time>
      </trkpt>
      <trkpt lat="44.50599" lon="0.90564">
        <ele>161.1</ele>
        <time>2022-08-11T16:25:11Z</time>
      </trkpt>
      <trkpt lat="44.5062" lon="0.90553">
        <ele>160.5</ele>
        <time>2022-08-11T16:25:35Z</time>
      </trkpt>
      <trkpt lat="44.50626" lon="0.90551">
        <ele>160.3</ele>
        <time>2022-08-11T16:25:37Z</time>
      </trkpt>
      <trkpt lat="44.50633" lon="0.90549">
        <ele>160.2</ele>
        <time>2022-08-11T16:25:39Z</time>
      </trkpt>
      <trkpt lat="44.5064" lon="0.90546">
        <ele>160</ele>
        <time>2022-08-11T16:25:41Z</time>
      </trkpt>
      <trkpt lat="44.50647" lon="0.90543">
        <ele>159.8</ele>
        <time>2022-08-11T16:25:43Z</time>
      </trkpt>
      <trkpt lat="44.50655" lon="0.90541">
        <ele>159.6</ele>
        <time>2022-08-11T16:25:45Z</time>
      </trkpt>
      <trkpt lat="44.50663" lon="0.90537">
        <ele>159.4</ele>
        <time>2022-08-11T16:25:47Z</time>
      </trkpt>
      <trkpt lat="44.50671" lon="0.90534">
        <ele>159.3</ele>
        <time>2022-08-11T16:25:49Z</time>
      </trkpt>
      <trkpt lat="44.5068" lon="0.90531">
        <ele>159.4</ele>
        <time>2022-08-11T16:25:51Z</time>
      </trkpt>
      <trkpt lat="44.50688" lon="0.90528">
        <ele>159.4</ele>
        <time>2022-08-11T16:25:53Z</time>
      </trkpt>
      <trkpt lat="44.50697" lon="0.90524">
        <ele>159.5</ele>
        <time>2022-08-11T16:25:55Z</time>
      </trkpt>
      <trkpt lat="44.50705" lon="0.90521">
        <ele>159.6</ele>
        <time>2022-08-11T16:25:57Z</time>
      </trkpt>
      <trkpt lat="44.50713" lon="0.90517">
        <ele>159.6</ele>
        <time>2022-08-11T16:25:59Z</time>
      </trkpt>
      <trkpt lat="44.50722" lon="0.90514">
        <ele>159.7</ele>
        <time>2022-08-11T16:26:01Z</time>
      </trkpt>
      <trkpt lat="44.50731" lon="0.90511">
        <ele>159.8</ele>
        <time>2022-08-11T16:26:03Z</time>
      </trkpt>
      <trkpt lat="44.50741" lon="0.90507">
        <ele>160</ele>
        <time>2022-08-11T16:26:05Z</time>
      </trkpt>
      <trkpt lat="44.5075" lon="0.90502">
        <ele>160.1</ele>
        <time>2022-08-11T16:26:07Z</time>
      </trkpt>
      <trkpt lat="44.5076" lon="0.90499">
        <ele>159.9</ele>
        <time>2022-08-11T16:26:09Z</time>
      </trkpt>
      <trkpt lat="44.5077" lon="0.90495">
        <ele>159.8</ele>
        <time>2022-08-11T16:26:11Z</time>
      </trkpt>
      <trkpt lat="44.5078" lon="0.90491">
        <ele>159.6</ele>
        <time>2022-08-11T16:26:13Z</time>
      </trkpt>
      <trkpt lat="44.50791" lon="0.90487">
        <ele>159.4</ele>
        <time>2022-08-11T16:26:15Z</time>
      </trkpt>
      <trkpt lat="44.50801" lon="0.90483">
        <ele>159.2</ele>
        <time>2022-08-11T16:26:17Z</time>
      </trkpt>
      <trkpt lat="44.50811" lon="0.90479">
        <ele>159</ele>
        <time>2022-08-11T16:26:19Z</time>
      </trkpt>
      <trkpt lat="44.50821" lon="0.90472">
        <ele>158.7</ele>
        <time>2022-08-11T16:26:21Z</time>
      </trkpt>
      <trkpt lat="44.50829" lon="0.90463">
        <ele>158.2</ele>
        <time>2022-08-11T16:26:23Z</time>
      </trkpt>
      <trkpt lat="44.50835" lon="0.90452">
        <ele>157.7</ele>
        <time>2022-08-11T16:26:25Z</time>
      </trkpt>
      <trkpt lat="44.50842" lon="0.90441">
        <ele>157.3</ele>
        <time>2022-08-11T16:26:27Z</time>
      </trkpt>
      <trkpt lat="44.50848" lon="0.90428">
        <ele>156.9</ele>
        <time>2022-08-11T16:26:29Z</time>
      </trkpt>
      <trkpt lat="44.50855" lon="0.90416">
        <ele>156.5</ele>
        <time>2022-08-11T16:26:31Z</time>
      </trkpt>
      <trkpt lat="44.50862" lon="0.90403">
        <ele>156</ele>
        <time>2022-08-11T16:26:33Z</time>
      </trkpt>
      <trkpt lat="44.50868" lon="0.90391">
        <ele>155.6</ele>
        <time>2022-08-11T16:26:35Z</time>
      </trkpt>
      <trkpt lat="44.50874" lon="0.90378">
        <ele>155.1</ele>
        <time>2022-08-11T16:26:37Z</time>
      </trkpt>
      <trkpt lat="44.50881" lon="0.90365">
        <ele>154.8</ele>
        <time>2022-08-11T16:26:39Z</time>
      </trkpt>
      <trkpt lat="44.50888" lon="0.90352">
        <ele>154.4</ele>
        <time>2022-08-11T16:26:41Z</time>
      </trkpt>
      <trkpt lat="44.50895" lon="0.9034">
        <ele>154.2</ele>
        <time>2022-08-11T16:26:43Z</time>
      </trkpt>
      <trkpt lat="44.50902" lon="0.90327">
        <ele>154.2</ele>
        <time>2022-08-11T16:26:45Z</time>
      </trkpt>
      <trkpt lat="44.50909" lon="0.90314">
        <ele>154.4</ele>
        <time>2022-08-11T16:26:47Z</time>
      </trkpt>
      <trkpt lat="44.50916" lon="0.90301">
        <ele>154.6</ele>
        <time>2022-08-11T16:26:49Z</time>
      </trkpt>
      <trkpt lat="44.50922" lon="0.9029">
        <ele>154.8</ele>
        <time>2022-08-11T16:26:51Z</time>
      </trkpt>
      <trkpt lat="44.50928" lon="0.90278">
        <ele>155.1</ele>
        <time>2022-08-11T16:26:53Z</time>
      </trkpt>
      <trkpt lat="44.50933" lon="0.90266">
        <ele>155.5</ele>
        <time>2022-08-11T16:26:55Z</time>
      </trkpt>
      <trkpt lat="44.50938" lon="0.90256">
        <ele>155.8</ele>
        <time>2022-08-11T16:26:57Z</time>
      </trkpt>
      <trkpt lat="44.50944" lon="0.90246">
        <ele>156.2</ele>
        <time>2022-08-11T16:26:59Z</time>
      </trkpt>
      <trkpt lat="44.5095" lon="0.90236">
        <ele>156.3</ele>
        <time>2022-08-11T16:27:01Z</time>
      </trkpt>
      <trkpt lat="44.50955" lon="0.90226">
        <ele>156.4</ele>
        <time>2022-08-11T16:27:03Z</time>
      </trkpt>
      <trkpt lat="44.50961" lon="0.90216">
        <ele>156.5</ele>
        <time>2022-08-11T16:27:05Z</time>
      </trkpt>
      <trkpt lat="44.50966" lon="0.90206">
        <ele>156.4</ele>
        <time>2022-08-11T16:27:07Z</time>
      </trkpt>
      <trkpt lat="44.50971" lon="0.90195">
        <ele>156.4</ele>
        <time>2022-08-11T16:27:09Z</time>
      </trkpt>
      <trkpt lat="44.50976" lon="0.90185">
        <ele>156.3</ele>
        <time>2022-08-11T16:27:11Z</time>
      </trkpt>
      <trkpt lat="44.50982" lon="0.90174">
        <ele>156.3</ele>
        <time>2022-08-11T16:27:13Z</time>
      </trkpt>
      <trkpt lat="44.50988" lon="0.90164">
        <ele>156.1</ele>
        <time>2022-08-11T16:27:15Z</time>
      </trkpt>
      <trkpt lat="44.50994" lon="0.90154">
        <ele>156.1</ele>
        <time>2022-08-11T16:27:17Z</time>
      </trkpt>
      <trkpt lat="44.51" lon="0.90144">
        <ele>155.9</ele>
        <time>2022-08-11T16:27:19Z</time>
      </trkpt>
      <trkpt lat="44.51006" lon="0.90134">
        <ele>155.8</ele>
        <time>2022-08-11T16:27:21Z</time>
      </trkpt>
      <trkpt lat="44.51011" lon="0.90125">
        <ele>155.8</ele>
        <time>2022-08-11T16:27:23Z</time>
      </trkpt>
      <trkpt lat="44.51017" lon="0.90117">
        <ele>155.8</ele>
        <time>2022-08-11T16:27:25Z</time>
      </trkpt>
      <trkpt lat="44.51023" lon="0.90108">
        <ele>155.9</ele>
        <time>2022-08-11T16:27:27Z</time>
      </trkpt>
      <trkpt lat="44.51028" lon="0.90099">
        <ele>155.9</ele>
        <time>2022-08-11T16:27:29Z</time>
      </trkpt>
      <trkpt lat="44.51033" lon="0.9009">
        <ele>156</ele>
        <time>2022-08-11T16:27:31Z</time>
      </trkpt>
      <trkpt lat="44.51038" lon="0.90081">
        <ele>156.2</ele>
        <time>2022-08-11T16:27:33Z</time>
      </trkpt>
      <trkpt lat="44.51042" lon="0.90072">
        <ele>156.3</ele>
        <time>2022-08-11T16:27:35Z</time>
      </trkpt>
      <trkpt lat="44.51045" lon="0.90062">
        <ele>156.4</ele>
        <time>2022-08-11T16:27:37Z</time>
      </trkpt>
      <trkpt lat="44.51049" lon="0.90053">
        <ele>156.6</ele>
        <time>2022-08-11T16:27:39Z</time>
      </trkpt>
      <trkpt lat="44.51052" lon="0.90045">
        <ele>156.7</ele>
        <time>2022-08-11T16:27:41Z</time>
      </trkpt>
      <trkpt lat="44.51055" lon="0.90035">
        <ele>156.8</ele>
        <time>2022-08-11T16:27:43Z</time>
      </trkpt>
      <trkpt lat="44.51058" lon="0.90026">
        <ele>157</ele>
        <time>2022-08-11T16:27:45Z</time>
      </trkpt>
      <trkpt lat="44.51062" lon="0.90017">
        <ele>157.2</ele>
        <time>2022-08-11T16:27:47Z</time>
      </trkpt>
      <trkpt lat="44.51066" lon="0.90008">
        <ele>157.4</ele>
        <time>2022-08-11T16:27:49Z</time>
      </trkpt>
      <trkpt lat="44.5107" lon="0.9">
        <ele>157.7</ele>
        <time>2022-08-11T16:27:51Z</time>
      </trkpt>
      <trkpt lat="44.51073" lon="0.89991">
        <ele>157.7</ele>
        <time>2022-08-11T16:27:53Z</time>
      </trkpt>
      <trkpt lat="44.51076" lon="0.89983">
        <ele>157.8</ele>
        <time>2022-08-11T16:27:55Z</time>
      </trkpt>
      <trkpt lat="44.5108" lon="0.89975">
        <ele>157.8</ele>
        <time>2022-08-11T16:27:57Z</time>
      </trkpt>
      <trkpt lat="44.51083" lon="0.89967">
        <ele>157.8</ele>
        <time>2022-08-11T16:27:59Z</time>
      </trkpt>
      <trkpt lat="44.51088" lon="0.89959">
        <ele>157.9</ele>
        <time>2022-08-11T16:28:01Z</time>
      </trkpt>
      <trkpt lat="44.51091" lon="0.8995">
        <ele>157.9</ele>
        <time>2022-08-11T16:28:03Z</time>
      </trkpt>
      <trkpt lat="44.51096" lon="0.89941">
        <ele>158</ele>
        <time>2022-08-11T16:28:05Z</time>
      </trkpt>
      <trkpt lat="44.511" lon="0.89932">
        <ele>158.1</ele>
        <time>2022-08-11T16:28:07Z</time>
      </trkpt>
      <trkpt lat="44.51104" lon="0.89923">
        <ele>158.2</ele>
        <time>2022-08-11T16:28:09Z</time>
      </trkpt>
      <trkpt lat="44.51108" lon="0.89914">
        <ele>158.3</ele>
        <time>2022-08-11T16:28:11Z</time>
      </trkpt>
      <trkpt lat="44.51112" lon="0.89906">
        <ele>158.4</ele>
        <time>2022-08-11T16:28:13Z</time>
      </trkpt>
      <trkpt lat="44.51116" lon="0.89898">
        <ele>158.6</ele>
        <time>2022-08-11T16:28:15Z</time>
      </trkpt>
      <trkpt lat="44.5112" lon="0.89891">
        <ele>158.8</ele>
        <time>2022-08-11T16:28:17Z</time>
      </trkpt>
      <trkpt lat="44.51124" lon="0.89884">
        <ele>158.9</ele>
        <time>2022-08-11T16:28:19Z</time>
      </trkpt>
      <trkpt lat="44.51127" lon="0.89877">
        <ele>159</ele>
        <time>2022-08-11T16:28:21Z</time>
      </trkpt>
      <trkpt lat="44.51131" lon="0.89871">
        <ele>159.2</ele>
        <time>2022-08-11T16:28:23Z</time>
      </trkpt>
      <trkpt lat="44.51135" lon="0.89865">
        <ele>159.4</ele>
        <time>2022-08-11T16:28:25Z</time>
      </trkpt>
      <trkpt lat="44.51139" lon="0.89858">
        <ele>159.5</ele>
        <time>2022-08-11T16:28:27Z</time>
      </trkpt>
      <trkpt lat="44.51143" lon="0.89851">
        <ele>159.6</ele>
        <time>2022-08-11T16:28:29Z</time>
      </trkpt>
      <trkpt lat="44.51148" lon="0.89845">
        <ele>159.8</ele>
        <time>2022-08-11T16:28:31Z</time>
      </trkpt>
      <trkpt lat="44.51153" lon="0.8984">
        <ele>160.1</ele>
        <time>2022-08-11T16:28:33Z</time>
      </trkpt>
      <trkpt lat="44.51157" lon="0.89834">
        <ele>160.2</ele>
        <time>2022-08-11T16:28:35Z</time>
      </trkpt>
      <trkpt lat="44.51161" lon="0.89829">
        <ele>160.6</ele>
        <time>2022-08-11T16:28:37Z</time>
      </trkpt>
      <trkpt lat="44.51166" lon="0.89825">
        <ele>161</ele>
        <time>2022-08-11T16:28:39Z</time>
      </trkpt>
      <trkpt lat="44.51172" lon="0.89821">
        <ele>161.3</ele>
        <time>2022-08-11T16:28:41Z</time>
      </trkpt>
      <trkpt lat="44.51177" lon="0.89817">
        <ele>161.5</ele>
        <time>2022-08-11T16:28:43Z</time>
      </trkpt>
      <trkpt lat="44.51182" lon="0.89814">
        <ele>161.7</ele>
        <time>2022-08-11T16:28:45Z</time>
      </trkpt>
      <trkpt lat="44.51186" lon="0.8981">
        <ele>161.9</ele>
        <time>2022-08-11T16:28:47Z</time>
      </trkpt>
      <trkpt lat="44.5119" lon="0.89807">
        <ele>162</ele>
        <time>2022-08-11T16:28:49Z</time>
      </trkpt>
      <trkpt lat="44.51194" lon="0.89804">
        <ele>162.2</ele>
        <time>2022-08-11T16:28:51Z</time>
      </trkpt>
      <trkpt lat="44.51198" lon="0.89802">
        <ele>162.3</ele>
        <time>2022-08-11T16:28:53Z</time>
      </trkpt>
      <trkpt lat="44.51202" lon="0.89798">
        <ele>162.4</ele>
        <time>2022-08-11T16:28:55Z</time>
      </trkpt>
      <trkpt lat="44.51207" lon="0.89795">
        <ele>162.5</ele>
        <time>2022-08-11T16:28:57Z</time>
      </trkpt>
      <trkpt lat="44.51211" lon="0.89794">
        <ele>162.7</ele>
        <time>2022-08-11T16:28:59Z</time>
      </trkpt>
      <trkpt lat="44.51217" lon="0.89791">
        <ele>162.8</ele>
        <time>2022-08-11T16:29:01Z</time>
      </trkpt>
      <trkpt lat="44.51222" lon="0.89788">
        <ele>162.9</ele>
        <time>2022-08-11T16:29:03Z</time>
      </trkpt>
      <trkpt lat="44.51228" lon="0.89784">
        <ele>162.9</ele>
        <time>2022-08-11T16:29:05Z</time>
      </trkpt>
      <trkpt lat="44.51234" lon="0.8978">
        <ele>163</ele>
        <time>2022-08-11T16:29:07Z</time>
      </trkpt>
      <trkpt lat="44.5124" lon="0.89777">
        <ele>163</ele>
        <time>2022-08-11T16:29:09Z</time>
      </trkpt>
      <trkpt lat="44.51247" lon="0.89773">
        <ele>163</ele>
        <time>2022-08-11T16:29:11Z</time>
      </trkpt>
      <trkpt lat="44.51254" lon="0.89769">
        <ele>163</ele>
        <time>2022-08-11T16:29:13Z</time>
      </trkpt>
      <trkpt lat="44.5126" lon="0.89763">
        <ele>163.1</ele>
        <time>2022-08-11T16:29:15Z</time>
      </trkpt>
      <trkpt lat="44.51267" lon="0.89758">
        <ele>163.1</ele>
        <time>2022-08-11T16:29:17Z</time>
      </trkpt>
      <trkpt lat="44.51273" lon="0.89751">
        <ele>163.1</ele>
        <time>2022-08-11T16:29:19Z</time>
      </trkpt>
      <trkpt lat="44.51279" lon="0.89742">
        <ele>163.3</ele>
        <time>2022-08-11T16:29:21Z</time>
      </trkpt>
      <trkpt lat="44.51284" lon="0.89734">
        <ele>163.4</ele>
        <time>2022-08-11T16:29:23Z</time>
      </trkpt>
      <trkpt lat="44.51289" lon="0.89724">
        <ele>163.5</ele>
        <time>2022-08-11T16:29:25Z</time>
      </trkpt>
      <trkpt lat="44.51293" lon="0.89714">
        <ele>163.6</ele>
        <time>2022-08-11T16:29:27Z</time>
      </trkpt>
      <trkpt lat="44.51297" lon="0.89704">
        <ele>163.8</ele>
        <time>2022-08-11T16:29:29Z</time>
      </trkpt>
      <trkpt lat="44.513" lon="0.89693">
        <ele>163.9</ele>
        <time>2022-08-11T16:29:31Z</time>
      </trkpt>
      <trkpt lat="44.51304" lon="0.89682">
        <ele>164</ele>
        <time>2022-08-11T16:29:33Z</time>
      </trkpt>
      <trkpt lat="44.51308" lon="0.89672">
        <ele>164.2</ele>
        <time>2022-08-11T16:29:35Z</time>
      </trkpt>
      <trkpt lat="44.51312" lon="0.89662">
        <ele>164.5</ele>
        <time>2022-08-11T16:29:37Z</time>
      </trkpt>
      <trkpt lat="44.51316" lon="0.89651">
        <ele>164.9</ele>
        <time>2022-08-11T16:29:39Z</time>
      </trkpt>
      <trkpt lat="44.5132" lon="0.8964">
        <ele>165.3</ele>
        <time>2022-08-11T16:29:41Z</time>
      </trkpt>
      <trkpt lat="44.51323" lon="0.89629">
        <ele>165.7</ele>
        <time>2022-08-11T16:29:43Z</time>
      </trkpt>
      <trkpt lat="44.51327" lon="0.89619">
        <ele>166.1</ele>
        <time>2022-08-11T16:29:45Z</time>
      </trkpt>
      <trkpt lat="44.51331" lon="0.89608">
        <ele>166.5</ele>
        <time>2022-08-11T16:29:47Z</time>
      </trkpt>
      <trkpt lat="44.51336" lon="0.89598">
        <ele>166.9</ele>
        <time>2022-08-11T16:29:49Z</time>
      </trkpt>
      <trkpt lat="44.51342" lon="0.89589">
        <ele>167.2</ele>
        <time>2022-08-11T16:29:51Z</time>
      </trkpt>
      <trkpt lat="44.51347" lon="0.89581">
        <ele>167.5</ele>
        <time>2022-08-11T16:29:53Z</time>
      </trkpt>
      <trkpt lat="44.51353" lon="0.89572">
        <ele>167.7</ele>
        <time>2022-08-11T16:29:55Z</time>
      </trkpt>
      <trkpt lat="44.51359" lon="0.89563">
        <ele>167.9</ele>
        <time>2022-08-11T16:29:57Z</time>
      </trkpt>
      <trkpt lat="44.51365" lon="0.89556">
        <ele>168</ele>
        <time>2022-08-11T16:29:59Z</time>
      </trkpt>
      <trkpt lat="44.51371" lon="0.89549">
        <ele>168.2</ele>
        <time>2022-08-11T16:30:01Z</time>
      </trkpt>
      <trkpt lat="44.51376" lon="0.89541">
        <ele>168.3</ele>
        <time>2022-08-11T16:30:03Z</time>
      </trkpt>
      <trkpt lat="44.51381" lon="0.89534">
        <ele>168.4</ele>
        <time>2022-08-11T16:30:05Z</time>
      </trkpt>
      <trkpt lat="44.51387" lon="0.89527">
        <ele>168.5</ele>
        <time>2022-08-11T16:30:07Z</time>
      </trkpt>
      <trkpt lat="44.51392" lon="0.8952">
        <ele>168.6</ele>
        <time>2022-08-11T16:30:09Z</time>
      </trkpt>
      <trkpt lat="44.51398" lon="0.89515">
        <ele>168.7</ele>
        <time>2022-08-11T16:30:11Z</time>
      </trkpt>
      <trkpt lat="44.51403" lon="0.8951">
        <ele>168.8</ele>
        <time>2022-08-11T16:30:13Z</time>
      </trkpt>
      <trkpt lat="44.51409" lon="0.89505">
        <ele>168.9</ele>
        <time>2022-08-11T16:30:15Z</time>
      </trkpt>
      <trkpt lat="44.51414" lon="0.895">
        <ele>168.9</ele>
        <time>2022-08-11T16:30:17Z</time>
      </trkpt>
      <trkpt lat="44.51419" lon="0.89495">
        <ele>168.9</ele>
        <time>2022-08-11T16:30:19Z</time>
      </trkpt>
      <trkpt lat="44.51425" lon="0.8949">
        <ele>169</ele>
        <time>2022-08-11T16:30:21Z</time>
      </trkpt>
      <trkpt lat="44.5143" lon="0.89486">
        <ele>169.2</ele>
        <time>2022-08-11T16:30:23Z</time>
      </trkpt>
      <trkpt lat="44.51435" lon="0.89482">
        <ele>169.2</ele>
        <time>2022-08-11T16:30:25Z</time>
      </trkpt>
      <trkpt lat="44.5144" lon="0.89478">
        <ele>169.3</ele>
        <time>2022-08-11T16:30:27Z</time>
      </trkpt>
      <trkpt lat="44.51446" lon="0.89473">
        <ele>169.4</ele>
        <time>2022-08-11T16:30:29Z</time>
      </trkpt>
      <trkpt lat="44.51451" lon="0.89468">
        <ele>169.5</ele>
        <time>2022-08-11T16:30:31Z</time>
      </trkpt>
      <trkpt lat="44.51458" lon="0.89463">
        <ele>169.6</ele>
        <time>2022-08-11T16:30:33Z</time>
      </trkpt>
      <trkpt lat="44.51463" lon="0.89457">
        <ele>169.7</ele>
        <time>2022-08-11T16:30:35Z</time>
      </trkpt>
      <trkpt lat="44.5147" lon="0.89452">
        <ele>169.8</ele>
        <time>2022-08-11T16:30:37Z</time>
      </trkpt>
      <trkpt lat="44.51476" lon="0.89447">
        <ele>169.9</ele>
        <time>2022-08-11T16:30:39Z</time>
      </trkpt>
      <trkpt lat="44.51483" lon="0.89441">
        <ele>170.1</ele>
        <time>2022-08-11T16:30:41Z</time>
      </trkpt>
      <trkpt lat="44.5149" lon="0.89435">
        <ele>170.2</ele>
        <time>2022-08-11T16:30:43Z</time>
      </trkpt>
      <trkpt lat="44.51497" lon="0.89429">
        <ele>170.3</ele>
        <time>2022-08-11T16:30:45Z</time>
      </trkpt>
      <trkpt lat="44.51505" lon="0.89423">
        <ele>170.5</ele>
        <time>2022-08-11T16:30:47Z</time>
      </trkpt>
      <trkpt lat="44.51513" lon="0.89417">
        <ele>170.8</ele>
        <time>2022-08-11T16:30:49Z</time>
      </trkpt>
      <trkpt lat="44.51522" lon="0.89411">
        <ele>171</ele>
        <time>2022-08-11T16:30:51Z</time>
      </trkpt>
      <trkpt lat="44.5153" lon="0.89405">
        <ele>171.1</ele>
        <time>2022-08-11T16:30:53Z</time>
      </trkpt>
      <trkpt lat="44.51539" lon="0.89398">
        <ele>171.3</ele>
        <time>2022-08-11T16:30:55Z</time>
      </trkpt>
      <trkpt lat="44.51546" lon="0.89391">
        <ele>171.5</ele>
        <time>2022-08-11T16:30:57Z</time>
      </trkpt>
      <trkpt lat="44.51555" lon="0.89387">
        <ele>171.8</ele>
        <time>2022-08-11T16:30:59Z</time>
      </trkpt>
      <trkpt lat="44.51561" lon="0.89382">
        <ele>172.1</ele>
        <time>2022-08-11T16:31:01Z</time>
      </trkpt>
      <trkpt lat="44.51567" lon="0.89377">
        <ele>172.3</ele>
        <time>2022-08-11T16:31:03Z</time>
      </trkpt>
      <trkpt lat="44.51574" lon="0.89372">
        <ele>172.7</ele>
        <time>2022-08-11T16:31:05Z</time>
      </trkpt>
      <trkpt lat="44.5158" lon="0.89369">
        <ele>173</ele>
        <time>2022-08-11T16:31:07Z</time>
      </trkpt>
      <trkpt lat="44.51586" lon="0.89365">
        <ele>173.2</ele>
        <time>2022-08-11T16:31:09Z</time>
      </trkpt>
      <trkpt lat="44.51591" lon="0.89359">
        <ele>173</ele>
        <time>2022-08-11T16:31:11Z</time>
      </trkpt>
      <trkpt lat="44.51597" lon="0.89355">
        <ele>172.9</ele>
        <time>2022-08-11T16:31:13Z</time>
      </trkpt>
      <trkpt lat="44.51602" lon="0.89351">
        <ele>172.7</ele>
        <time>2022-08-11T16:31:15Z</time>
      </trkpt>
      <trkpt lat="44.51606" lon="0.89345">
        <ele>172.5</ele>
        <time>2022-08-11T16:31:17Z</time>
      </trkpt>
      <trkpt lat="44.5161" lon="0.89339">
        <ele>172.2</ele>
        <time>2022-08-11T16:31:19Z</time>
      </trkpt>
      <trkpt lat="44.51614" lon="0.89334">
        <ele>172</ele>
        <time>2022-08-11T16:31:21Z</time>
      </trkpt>
      <trkpt lat="44.51617" lon="0.89329">
        <ele>171.9</ele>
        <time>2022-08-11T16:31:23Z</time>
      </trkpt>
      <trkpt lat="44.51621" lon="0.89325">
        <ele>171.8</ele>
        <time>2022-08-11T16:31:25Z</time>
      </trkpt>
      <trkpt lat="44.51625" lon="0.8932">
        <ele>171.8</ele>
        <time>2022-08-11T16:31:27Z</time>
      </trkpt>
      <trkpt lat="44.51629" lon="0.89314">
        <ele>171.7</ele>
        <time>2022-08-11T16:31:29Z</time>
      </trkpt>
      <trkpt lat="44.51634" lon="0.89309">
        <ele>171.6</ele>
        <time>2022-08-11T16:31:31Z</time>
      </trkpt>
      <trkpt lat="44.51639" lon="0.89303">
        <ele>171.5</ele>
        <time>2022-08-11T16:31:33Z</time>
      </trkpt>
      <trkpt lat="44.51643" lon="0.89298">
        <ele>171.4</ele>
        <time>2022-08-11T16:31:35Z</time>
      </trkpt>
      <trkpt lat="44.51649" lon="0.89292">
        <ele>171.4</ele>
        <time>2022-08-11T16:31:37Z</time>
      </trkpt>
      <trkpt lat="44.51655" lon="0.89285">
        <ele>171.3</ele>
        <time>2022-08-11T16:31:39Z</time>
      </trkpt>
      <trkpt lat="44.51661" lon="0.89279">
        <ele>171.3</ele>
        <time>2022-08-11T16:31:41Z</time>
      </trkpt>
      <trkpt lat="44.51668" lon="0.89273">
        <ele>171.2</ele>
        <time>2022-08-11T16:31:43Z</time>
      </trkpt>
      <trkpt lat="44.51676" lon="0.89266">
        <ele>170.9</ele>
        <time>2022-08-11T16:31:45Z</time>
      </trkpt>
      <trkpt lat="44.51683" lon="0.89259">
        <ele>170.6</ele>
        <time>2022-08-11T16:31:47Z</time>
      </trkpt>
      <trkpt lat="44.51691" lon="0.89253">
        <ele>170.2</ele>
        <time>2022-08-11T16:31:49Z</time>
      </trkpt>
      <trkpt lat="44.517" lon="0.89246">
        <ele>169.8</ele>
        <time>2022-08-11T16:31:51Z</time>
      </trkpt>
      <trkpt lat="44.51708" lon="0.89238">
        <ele>169.6</ele>
        <time>2022-08-11T16:31:53Z</time>
      </trkpt>
      <trkpt lat="44.51717" lon="0.89231">
        <ele>169.3</ele>
        <time>2022-08-11T16:31:55Z</time>
      </trkpt>
      <trkpt lat="44.51727" lon="0.89224">
        <ele>168.9</ele>
        <time>2022-08-11T16:31:57Z</time>
      </trkpt>
      <trkpt lat="44.51736" lon="0.89215">
        <ele>168.6</ele>
        <time>2022-08-11T16:31:59Z</time>
      </trkpt>
      <trkpt lat="44.51746" lon="0.89207">
        <ele>168.2</ele>
        <time>2022-08-11T16:32:01Z</time>
      </trkpt>
      <trkpt lat="44.51756" lon="0.89199">
        <ele>167.9</ele>
        <time>2022-08-11T16:32:03Z</time>
      </trkpt>
      <trkpt lat="44.51767" lon="0.8919">
        <ele>167.8</ele>
        <time>2022-08-11T16:32:05Z</time>
      </trkpt>
      <trkpt lat="44.51776" lon="0.8918">
        <ele>167.5</ele>
        <time>2022-08-11T16:32:07Z</time>
      </trkpt>
      <trkpt lat="44.51786" lon="0.89171">
        <ele>167.2</ele>
        <time>2022-08-11T16:32:09Z</time>
      </trkpt>
      <trkpt lat="44.51795" lon="0.89158">
        <ele>166.9</ele>
        <time>2022-08-11T16:32:11Z</time>
      </trkpt>
      <trkpt lat="44.51804" lon="0.89146">
        <ele>166.5</ele>
        <time>2022-08-11T16:32:13Z</time>
      </trkpt>
      <trkpt lat="44.51812" lon="0.89133">
        <ele>165.9</ele>
        <time>2022-08-11T16:32:15Z</time>
      </trkpt>
      <trkpt lat="44.5182" lon="0.8912">
        <ele>165.2</ele>
        <time>2022-08-11T16:32:17Z</time>
      </trkpt>
      <trkpt lat="44.51828" lon="0.89106">
        <ele>164.2</ele>
        <time>2022-08-11T16:32:19Z</time>
      </trkpt>
      <trkpt lat="44.51836" lon="0.89093">
        <ele>163.5</ele>
        <time>2022-08-11T16:32:21Z</time>
      </trkpt>
      <trkpt lat="44.51843" lon="0.89079">
        <ele>163.3</ele>
        <time>2022-08-11T16:32:23Z</time>
      </trkpt>
      <trkpt lat="44.51851" lon="0.89065">
        <ele>163.2</ele>
        <time>2022-08-11T16:32:25Z</time>
      </trkpt>
      <trkpt lat="44.51858" lon="0.89051">
        <ele>163</ele>
        <time>2022-08-11T16:32:27Z</time>
      </trkpt>
      <trkpt lat="44.51865" lon="0.89037">
        <ele>162.8</ele>
        <time>2022-08-11T16:32:29Z</time>
      </trkpt>
      <trkpt lat="44.51872" lon="0.89023">
        <ele>162.7</ele>
        <time>2022-08-11T16:32:31Z</time>
      </trkpt>
      <trkpt lat="44.51878" lon="0.8901">
        <ele>162.5</ele>
        <time>2022-08-11T16:32:33Z</time>
      </trkpt>
      <trkpt lat="44.51885" lon="0.88997">
        <ele>162.4</ele>
        <time>2022-08-11T16:32:35Z</time>
      </trkpt>
      <trkpt lat="44.5189" lon="0.88985">
        <ele>162.6</ele>
        <time>2022-08-11T16:32:37Z</time>
      </trkpt>
      <trkpt lat="44.51895" lon="0.88972">
        <ele>162.8</ele>
        <time>2022-08-11T16:32:39Z</time>
      </trkpt>
      <trkpt lat="44.519" lon="0.88961">
        <ele>163</ele>
        <time>2022-08-11T16:32:41Z</time>
      </trkpt>
      <trkpt lat="44.51905" lon="0.8895">
        <ele>163.3</ele>
        <time>2022-08-11T16:32:43Z</time>
      </trkpt>
      <trkpt lat="44.5191" lon="0.8894">
        <ele>163.5</ele>
        <time>2022-08-11T16:32:45Z</time>
      </trkpt>
      <trkpt lat="44.51914" lon="0.8893">
        <ele>163.8</ele>
        <time>2022-08-11T16:32:47Z</time>
      </trkpt>
      <trkpt lat="44.51918" lon="0.8892">
        <ele>164</ele>
        <time>2022-08-11T16:32:49Z</time>
      </trkpt>
      <trkpt lat="44.51922" lon="0.8891">
        <ele>164.1</ele>
        <time>2022-08-11T16:32:51Z</time>
      </trkpt>
      <trkpt lat="44.51925" lon="0.88901">
        <ele>164.2</ele>
        <time>2022-08-11T16:32:53Z</time>
      </trkpt>
      <trkpt lat="44.51929" lon="0.88892">
        <ele>164.2</ele>
        <time>2022-08-11T16:32:55Z</time>
      </trkpt>
      <trkpt lat="44.51933" lon="0.88884">
        <ele>164.3</ele>
        <time>2022-08-11T16:32:57Z</time>
      </trkpt>
      <trkpt lat="44.51936" lon="0.88876">
        <ele>164.4</ele>
        <time>2022-08-11T16:32:59Z</time>
      </trkpt>
      <trkpt lat="44.51939" lon="0.88868">
        <ele>164.4</ele>
        <time>2022-08-11T16:33:01Z</time>
      </trkpt>
      <trkpt lat="44.51942" lon="0.8886">
        <ele>164.5</ele>
        <time>2022-08-11T16:33:03Z</time>
      </trkpt>
      <trkpt lat="44.51946" lon="0.88853">
        <ele>164.5</ele>
        <time>2022-08-11T16:33:05Z</time>
      </trkpt>
      <trkpt lat="44.51948" lon="0.88845">
        <ele>164.5</ele>
        <time>2022-08-11T16:33:07Z</time>
      </trkpt>
      <trkpt lat="44.51952" lon="0.88836">
        <ele>164.6</ele>
        <time>2022-08-11T16:33:09Z</time>
      </trkpt>
      <trkpt lat="44.51955" lon="0.88828">
        <ele>164.6</ele>
        <time>2022-08-11T16:33:11Z</time>
      </trkpt>
      <trkpt lat="44.51958" lon="0.8882">
        <ele>164.7</ele>
        <time>2022-08-11T16:33:13Z</time>
      </trkpt>
      <trkpt lat="44.51961" lon="0.88812">
        <ele>164.7</ele>
        <time>2022-08-11T16:33:15Z</time>
      </trkpt>
      <trkpt lat="44.51964" lon="0.88803">
        <ele>164.8</ele>
        <time>2022-08-11T16:33:17Z</time>
      </trkpt>
      <trkpt lat="44.51968" lon="0.88794">
        <ele>165</ele>
        <time>2022-08-11T16:33:19Z</time>
      </trkpt>
      <trkpt lat="44.51972" lon="0.88785">
        <ele>165.1</ele>
        <time>2022-08-11T16:33:21Z</time>
      </trkpt>
      <trkpt lat="44.51975" lon="0.88776">
        <ele>165.3</ele>
        <time>2022-08-11T16:33:23Z</time>
      </trkpt>
      <trkpt lat="44.51979" lon="0.88767">
        <ele>165.4</ele>
        <time>2022-08-11T16:33:25Z</time>
      </trkpt>
      <trkpt lat="44.51983" lon="0.88759">
        <ele>165.6</ele>
        <time>2022-08-11T16:33:27Z</time>
      </trkpt>
      <trkpt lat="44.51987" lon="0.8875">
        <ele>165.8</ele>
        <time>2022-08-11T16:33:29Z</time>
      </trkpt>
      <trkpt lat="44.51991" lon="0.88743">
        <ele>165.8</ele>
        <time>2022-08-11T16:33:31Z</time>
      </trkpt>
      <trkpt lat="44.51995" lon="0.88734">
        <ele>165.7</ele>
        <time>2022-08-11T16:33:33Z</time>
      </trkpt>
      <trkpt lat="44.51999" lon="0.88726">
        <ele>165.7</ele>
        <time>2022-08-11T16:33:35Z</time>
      </trkpt>
      <trkpt lat="44.52003" lon="0.88718">
        <ele>165.7</ele>
        <time>2022-08-11T16:33:37Z</time>
      </trkpt>
      <trkpt lat="44.52008" lon="0.8871">
        <ele>165.8</ele>
        <time>2022-08-11T16:33:39Z</time>
      </trkpt>
      <trkpt lat="44.52012" lon="0.88703">
        <ele>165.9</ele>
        <time>2022-08-11T16:33:41Z</time>
      </trkpt>
      <trkpt lat="44.52017" lon="0.88696">
        <ele>166.1</ele>
        <time>2022-08-11T16:33:43Z</time>
      </trkpt>
      <trkpt lat="44.52021" lon="0.8869">
        <ele>166.4</ele>
        <time>2022-08-11T16:33:45Z</time>
      </trkpt>
      <trkpt lat="44.52024" lon="0.88686">
        <ele>166.6</ele>
        <time>2022-08-11T16:33:47Z</time>
      </trkpt>
      <trkpt lat="44.52026" lon="0.88683">
        <ele>166.7</ele>
        <time>2022-08-11T16:33:49Z</time>
      </trkpt>
      <trkpt lat="44.52026" lon="0.88683">
        <ele>166.7</ele>
        <time>2022-08-11T16:33:51Z</time>
      </trkpt>
      <trkpt lat="44.52026" lon="0.88683">
        <ele>166.7</ele>
        <time>2022-08-11T16:33:53Z</time>
      </trkpt>
      <trkpt lat="44.52026" lon="0.88683">
        <ele>166.7</ele>
        <time>2022-08-11T16:33:55Z</time>
      </trkpt>
      <trkpt lat="44.52026" lon="0.88683">
        <ele>166.7</ele>
        <time>2022-08-11T16:33:59Z</time>
      </trkpt>
      <trkpt lat="44.52039" lon="0.8866">
        <ele>167.5</ele>
        <time>2022-08-11T16:34:35Z</time>
      </trkpt>
      <trkpt lat="44.52042" lon="0.88653">
        <ele>167.6</ele>
        <time>2022-08-11T16:34:37Z</time>
      </trkpt>
      <trkpt lat="44.52046" lon="0.88648">
        <ele>167.7</ele>
        <time>2022-08-11T16:34:39Z</time>
      </trkpt>
      <trkpt lat="44.52051" lon="0.88642">
        <ele>167.8</ele>
        <time>2022-08-11T16:34:41Z</time>
      </trkpt>
      <trkpt lat="44.52055" lon="0.88637">
        <ele>167.8</ele>
        <time>2022-08-11T16:34:43Z</time>
      </trkpt>
      <trkpt lat="44.52058" lon="0.88631">
        <ele>167.9</ele>
        <time>2022-08-11T16:34:45Z</time>
      </trkpt>
      <trkpt lat="44.52062" lon="0.88625">
        <ele>168</ele>
        <time>2022-08-11T16:34:47Z</time>
      </trkpt>
      <trkpt lat="44.52066" lon="0.88619">
        <ele>168</ele>
        <time>2022-08-11T16:34:49Z</time>
      </trkpt>
      <trkpt lat="44.5207" lon="0.88613">
        <ele>168.1</ele>
        <time>2022-08-11T16:34:51Z</time>
      </trkpt>
      <trkpt lat="44.52074" lon="0.88607">
        <ele>168.2</ele>
        <time>2022-08-11T16:34:53Z</time>
      </trkpt>
      <trkpt lat="44.52077" lon="0.88601">
        <ele>168.2</ele>
        <time>2022-08-11T16:34:55Z</time>
      </trkpt>
      <trkpt lat="44.52081" lon="0.88595">
        <ele>168.2</ele>
        <time>2022-08-11T16:34:57Z</time>
      </trkpt>
      <trkpt lat="44.52084" lon="0.88588">
        <ele>168.2</ele>
        <time>2022-08-11T16:34:59Z</time>
      </trkpt>
      <trkpt lat="44.52089" lon="0.88582">
        <ele>168</ele>
        <time>2022-08-11T16:35:01Z</time>
      </trkpt>
      <trkpt lat="44.52092" lon="0.88575">
        <ele>167.7</ele>
        <time>2022-08-11T16:35:03Z</time>
      </trkpt>
      <trkpt lat="44.52096" lon="0.88569">
        <ele>167.6</ele>
        <time>2022-08-11T16:35:05Z</time>
      </trkpt>
      <trkpt lat="44.52101" lon="0.88562">
        <ele>167.3</ele>
        <time>2022-08-11T16:35:07Z</time>
      </trkpt>
      <trkpt lat="44.52105" lon="0.88555">
        <ele>167.2</ele>
        <time>2022-08-11T16:35:09Z</time>
      </trkpt>
      <trkpt lat="44.5211" lon="0.88549">
        <ele>167.1</ele>
        <time>2022-08-11T16:35:11Z</time>
      </trkpt>
      <trkpt lat="44.52115" lon="0.88541">
        <ele>166.9</ele>
        <time>2022-08-11T16:35:13Z</time>
      </trkpt>
      <trkpt lat="44.5212" lon="0.88533">
        <ele>166.8</ele>
        <time>2022-08-11T16:35:15Z</time>
      </trkpt>
      <trkpt lat="44.52124" lon="0.88526">
        <ele>166.8</ele>
        <time>2022-08-11T16:35:17Z</time>
      </trkpt>
      <trkpt lat="44.52129" lon="0.88519">
        <ele>166.7</ele>
        <time>2022-08-11T16:35:19Z</time>
      </trkpt>
      <trkpt lat="44.52134" lon="0.88511">
        <ele>166.7</ele>
        <time>2022-08-11T16:35:21Z</time>
      </trkpt>
      <trkpt lat="44.52139" lon="0.88504">
        <ele>166.8</ele>
        <time>2022-08-11T16:35:23Z</time>
      </trkpt>
      <trkpt lat="44.52144" lon="0.88496">
        <ele>166.8</ele>
        <time>2022-08-11T16:35:25Z</time>
      </trkpt>
      <trkpt lat="44.52149" lon="0.88488">
        <ele>166.7</ele>
        <time>2022-08-11T16:35:27Z</time>
      </trkpt>
      <trkpt lat="44.52154" lon="0.8848">
        <ele>166.6</ele>
        <time>2022-08-11T16:35:29Z</time>
      </trkpt>
      <trkpt lat="44.52159" lon="0.88472">
        <ele>166.6</ele>
        <time>2022-08-11T16:35:31Z</time>
      </trkpt>
      <trkpt lat="44.52165" lon="0.88463">
        <ele>166.6</ele>
        <time>2022-08-11T16:35:33Z</time>
      </trkpt>
      <trkpt lat="44.5217" lon="0.88454">
        <ele>166.2</ele>
        <time>2022-08-11T16:35:35Z</time>
      </trkpt>
      <trkpt lat="44.52176" lon="0.88446">
        <ele>165.7</ele>
        <time>2022-08-11T16:35:37Z</time>
      </trkpt>
      <trkpt lat="44.52182" lon="0.88436">
        <ele>165.3</ele>
        <time>2022-08-11T16:35:39Z</time>
      </trkpt>
      <trkpt lat="44.52188" lon="0.88427">
        <ele>165</ele>
        <time>2022-08-11T16:35:41Z</time>
      </trkpt>
      <trkpt lat="44.52194" lon="0.88418">
        <ele>164.7</ele>
        <time>2022-08-11T16:35:43Z</time>
      </trkpt>
      <trkpt lat="44.522" lon="0.88409">
        <ele>164.7</ele>
        <time>2022-08-11T16:35:45Z</time>
      </trkpt>
      <trkpt lat="44.52206" lon="0.88399">
        <ele>164.8</ele>
        <time>2022-08-11T16:35:47Z</time>
      </trkpt>
      <trkpt lat="44.52213" lon="0.88389">
        <ele>165</ele>
        <time>2022-08-11T16:35:49Z</time>
      </trkpt>
      <trkpt lat="44.52219" lon="0.8838">
        <ele>165.2</ele>
        <time>2022-08-11T16:35:51Z</time>
      </trkpt>
      <trkpt lat="44.52225" lon="0.8837">
        <ele>165.5</ele>
        <time>2022-08-11T16:35:53Z</time>
      </trkpt>
      <trkpt lat="44.52231" lon="0.88361">
        <ele>165.8</ele>
        <time>2022-08-11T16:35:55Z</time>
      </trkpt>
      <trkpt lat="44.52236" lon="0.88353">
        <ele>166.1</ele>
        <time>2022-08-11T16:35:57Z</time>
      </trkpt>
      <trkpt lat="44.52242" lon="0.88344">
        <ele>166.5</ele>
        <time>2022-08-11T16:35:59Z</time>
      </trkpt>
      <trkpt lat="44.52246" lon="0.88335">
        <ele>166.8</ele>
        <time>2022-08-11T16:36:01Z</time>
      </trkpt>
      <trkpt lat="44.52251" lon="0.88325">
        <ele>167.6</ele>
        <time>2022-08-11T16:36:03Z</time>
      </trkpt>
      <trkpt lat="44.52255" lon="0.88316">
        <ele>168</ele>
        <time>2022-08-11T16:36:05Z</time>
      </trkpt>
      <trkpt lat="44.52259" lon="0.88306">
        <ele>168.4</ele>
        <time>2022-08-11T16:36:07Z</time>
      </trkpt>
      <trkpt lat="44.52264" lon="0.88297">
        <ele>168.8</ele>
        <time>2022-08-11T16:36:09Z</time>
      </trkpt>
      <trkpt lat="44.52267" lon="0.88287">
        <ele>169.4</ele>
        <time>2022-08-11T16:36:11Z</time>
      </trkpt>
      <trkpt lat="44.5227" lon="0.88275">
        <ele>170.1</ele>
        <time>2022-08-11T16:36:13Z</time>
      </trkpt>
      <trkpt lat="44.52272" lon="0.88264">
        <ele>170.9</ele>
        <time>2022-08-11T16:36:15Z</time>
      </trkpt>
      <trkpt lat="44.52275" lon="0.8825">
        <ele>171.9</ele>
        <time>2022-08-11T16:36:17Z</time>
      </trkpt>
      <trkpt lat="44.52276" lon="0.88237">
        <ele>172</ele>
        <time>2022-08-11T16:36:19Z</time>
      </trkpt>
      <trkpt lat="44.52282" lon="0.88224">
        <ele>171.7</ele>
        <time>2022-08-11T16:36:21Z</time>
      </trkpt>
      <trkpt lat="44.52288" lon="0.8821">
        <ele>171.7</ele>
        <time>2022-08-11T16:36:23Z</time>
      </trkpt>
      <trkpt lat="44.52297" lon="0.88197">
        <ele>171.6</ele>
        <time>2022-08-11T16:36:25Z</time>
      </trkpt>
      <trkpt lat="44.52307" lon="0.88187">
        <ele>171.6</ele>
        <time>2022-08-11T16:36:27Z</time>
      </trkpt>
      <trkpt lat="44.5232" lon="0.88184">
        <ele>171.3</ele>
        <time>2022-08-11T16:36:29Z</time>
      </trkpt>
      <trkpt lat="44.52332" lon="0.88179">
        <ele>171.3</ele>
        <time>2022-08-11T16:36:31Z</time>
      </trkpt>
      <trkpt lat="44.52345" lon="0.88173">
        <ele>171.2</ele>
        <time>2022-08-11T16:36:33Z</time>
      </trkpt>
      <trkpt lat="44.52358" lon="0.8817">
        <ele>170.8</ele>
        <time>2022-08-11T16:36:35Z</time>
      </trkpt>
      <trkpt lat="44.52371" lon="0.88167">
        <ele>170.6</ele>
        <time>2022-08-11T16:36:37Z</time>
      </trkpt>
      <trkpt lat="44.52384" lon="0.88164">
        <ele>170.3</ele>
        <time>2022-08-11T16:36:39Z</time>
      </trkpt>
      <trkpt lat="44.52397" lon="0.88162">
        <ele>169.9</ele>
        <time>2022-08-11T16:36:41Z</time>
      </trkpt>
      <trkpt lat="44.52411" lon="0.88162">
        <ele>169.4</ele>
        <time>2022-08-11T16:36:43Z</time>
      </trkpt>
      <trkpt lat="44.52427" lon="0.88164">
        <ele>168.9</ele>
        <time>2022-08-11T16:36:45Z</time>
      </trkpt>
      <trkpt lat="44.52441" lon="0.88168">
        <ele>168.3</ele>
        <time>2022-08-11T16:36:47Z</time>
      </trkpt>
      <trkpt lat="44.52455" lon="0.88175">
        <ele>167.4</ele>
        <time>2022-08-11T16:36:49Z</time>
      </trkpt>
      <trkpt lat="44.52469" lon="0.88186">
        <ele>166.2</ele>
        <time>2022-08-11T16:36:51Z</time>
      </trkpt>
      <trkpt lat="44.52483" lon="0.88198">
        <ele>165</ele>
        <time>2022-08-11T16:36:53Z</time>
      </trkpt>
      <trkpt lat="44.52495" lon="0.88212">
        <ele>163.8</ele>
        <time>2022-08-11T16:36:55Z</time>
      </trkpt>
      <trkpt lat="44.52506" lon="0.88227">
        <ele>162.5</ele>
        <time>2022-08-11T16:36:57Z</time>
      </trkpt>
      <trkpt lat="44.52518" lon="0.88239">
        <ele>161.2</ele>
        <time>2022-08-11T16:36:59Z</time>
      </trkpt>
      <trkpt lat="44.52531" lon="0.88248">
        <ele>160</ele>
        <time>2022-08-11T16:37:01Z</time>
      </trkpt>
      <trkpt lat="44.52545" lon="0.88254">
        <ele>158.9</ele>
        <time>2022-08-11T16:37:03Z</time>
      </trkpt>
      <trkpt lat="44.52561" lon="0.88255">
        <ele>158.3</ele>
        <time>2022-08-11T16:37:05Z</time>
      </trkpt>
      <trkpt lat="44.52575" lon="0.88251">
        <ele>158.2</ele>
        <time>2022-08-11T16:37:07Z</time>
      </trkpt>
      <trkpt lat="44.52589" lon="0.88243">
        <ele>158.2</ele>
        <time>2022-08-11T16:37:09Z</time>
      </trkpt>
      <trkpt lat="44.52603" lon="0.88232">
        <ele>158.2</ele>
        <time>2022-08-11T16:37:11Z</time>
      </trkpt>
      <trkpt lat="44.52617" lon="0.88222">
        <ele>158.1</ele>
        <time>2022-08-11T16:37:13Z</time>
      </trkpt>
      <trkpt lat="44.52632" lon="0.88212">
        <ele>157.9</ele>
        <time>2022-08-11T16:37:15Z</time>
      </trkpt>
      <trkpt lat="44.52647" lon="0.88204">
        <ele>157.4</ele>
        <time>2022-08-11T16:37:17Z</time>
      </trkpt>
      <trkpt lat="44.52663" lon="0.88195">
        <ele>156.8</ele>
        <time>2022-08-11T16:37:19Z</time>
      </trkpt>
      <trkpt lat="44.52679" lon="0.88187">
        <ele>156.8</ele>
        <time>2022-08-11T16:37:21Z</time>
      </trkpt>
      <trkpt lat="44.52695" lon="0.88181">
        <ele>156.9</ele>
        <time>2022-08-11T16:37:23Z</time>
      </trkpt>
      <trkpt lat="44.52711" lon="0.88179">
        <ele>156.8</ele>
        <time>2022-08-11T16:37:25Z</time>
      </trkpt>
      <trkpt lat="44.52728" lon="0.88174">
        <ele>156.8</ele>
        <time>2022-08-11T16:37:27Z</time>
      </trkpt>
      <trkpt lat="44.52744" lon="0.88173">
        <ele>156.7</ele>
        <time>2022-08-11T16:37:29Z</time>
      </trkpt>
      <trkpt lat="44.52762" lon="0.88172">
        <ele>155.7</ele>
        <time>2022-08-11T16:37:31Z</time>
      </trkpt>
      <trkpt lat="44.52778" lon="0.88172">
        <ele>154.4</ele>
        <time>2022-08-11T16:37:33Z</time>
      </trkpt>
      <trkpt lat="44.52794" lon="0.88175">
        <ele>152.9</ele>
        <time>2022-08-11T16:37:35Z</time>
      </trkpt>
      <trkpt lat="44.52809" lon="0.8818">
        <ele>151.4</ele>
        <time>2022-08-11T16:37:37Z</time>
      </trkpt>
      <trkpt lat="44.52824" lon="0.88182">
        <ele>150</ele>
        <time>2022-08-11T16:37:39Z</time>
      </trkpt>
      <trkpt lat="44.52836" lon="0.88189">
        <ele>148.9</ele>
        <time>2022-08-11T16:37:41Z</time>
      </trkpt>
      <trkpt lat="44.52848" lon="0.88193">
        <ele>148.7</ele>
        <time>2022-08-11T16:37:43Z</time>
      </trkpt>
      <trkpt lat="44.52858" lon="0.882">
        <ele>148.4</ele>
        <time>2022-08-11T16:37:45Z</time>
      </trkpt>
      <trkpt lat="44.52868" lon="0.88205">
        <ele>148.3</ele>
        <time>2022-08-11T16:37:47Z</time>
      </trkpt>
      <trkpt lat="44.52877" lon="0.8821">
        <ele>148.2</ele>
        <time>2022-08-11T16:37:49Z</time>
      </trkpt>
      <trkpt lat="44.52885" lon="0.88216">
        <ele>148.2</ele>
        <time>2022-08-11T16:37:51Z</time>
      </trkpt>
      <trkpt lat="44.52893" lon="0.88222">
        <ele>148.3</ele>
        <time>2022-08-11T16:37:53Z</time>
      </trkpt>
      <trkpt lat="44.529" lon="0.88228">
        <ele>148.4</ele>
        <time>2022-08-11T16:37:55Z</time>
      </trkpt>
      <trkpt lat="44.52907" lon="0.88235">
        <ele>148.6</ele>
        <time>2022-08-11T16:37:57Z</time>
      </trkpt>
      <trkpt lat="44.52913" lon="0.88241">
        <ele>148.8</ele>
        <time>2022-08-11T16:37:59Z</time>
      </trkpt>
      <trkpt lat="44.5292" lon="0.88247">
        <ele>149</ele>
        <time>2022-08-11T16:38:01Z</time>
      </trkpt>
      <trkpt lat="44.52926" lon="0.88254">
        <ele>149</ele>
        <time>2022-08-11T16:38:03Z</time>
      </trkpt>
      <trkpt lat="44.52932" lon="0.88261">
        <ele>148.9</ele>
        <time>2022-08-11T16:38:05Z</time>
      </trkpt>
      <trkpt lat="44.52938" lon="0.88268">
        <ele>148.8</ele>
        <time>2022-08-11T16:38:07Z</time>
      </trkpt>
      <trkpt lat="44.52944" lon="0.88273">
        <ele>148.9</ele>
        <time>2022-08-11T16:38:09Z</time>
      </trkpt>
      <trkpt lat="44.52949" lon="0.88282">
        <ele>148.8</ele>
        <time>2022-08-11T16:38:11Z</time>
      </trkpt>
      <trkpt lat="44.52954" lon="0.88288">
        <ele>148.9</ele>
        <time>2022-08-11T16:38:13Z</time>
      </trkpt>
      <trkpt lat="44.5296" lon="0.88294">
        <ele>149</ele>
        <time>2022-08-11T16:38:15Z</time>
      </trkpt>
      <trkpt lat="44.52966" lon="0.88301">
        <ele>149.2</ele>
        <time>2022-08-11T16:38:17Z</time>
      </trkpt>
      <trkpt lat="44.52971" lon="0.88306">
        <ele>149.4</ele>
        <time>2022-08-11T16:38:19Z</time>
      </trkpt>
      <trkpt lat="44.52976" lon="0.88313">
        <ele>149.6</ele>
        <time>2022-08-11T16:38:21Z</time>
      </trkpt>
      <trkpt lat="44.52982" lon="0.88319">
        <ele>149.9</ele>
        <time>2022-08-11T16:38:23Z</time>
      </trkpt>
      <trkpt lat="44.52987" lon="0.88326">
        <ele>150.2</ele>
        <time>2022-08-11T16:38:25Z</time>
      </trkpt>
      <trkpt lat="44.52993" lon="0.88332">
        <ele>150.5</ele>
        <time>2022-08-11T16:38:27Z</time>
      </trkpt>
      <trkpt lat="44.52998" lon="0.88339">
        <ele>150.7</ele>
        <time>2022-08-11T16:38:29Z</time>
      </trkpt>
      <trkpt lat="44.53003" lon="0.88345">
        <ele>150.8</ele>
        <time>2022-08-11T16:38:31Z</time>
      </trkpt>
      <trkpt lat="44.5301" lon="0.88353">
        <ele>150.8</ele>
        <time>2022-08-11T16:38:33Z</time>
      </trkpt>
      <trkpt lat="44.53016" lon="0.8836">
        <ele>150.8</ele>
        <time>2022-08-11T16:38:35Z</time>
      </trkpt>
      <trkpt lat="44.53021" lon="0.88367">
        <ele>150.9</ele>
        <time>2022-08-11T16:38:37Z</time>
      </trkpt>
      <trkpt lat="44.53028" lon="0.88375">
        <ele>151</ele>
        <time>2022-08-11T16:38:39Z</time>
      </trkpt>
      <trkpt lat="44.53035" lon="0.88382">
        <ele>151.2</ele>
        <time>2022-08-11T16:38:41Z</time>
      </trkpt>
      <trkpt lat="44.53042" lon="0.8839">
        <ele>151.5</ele>
        <time>2022-08-11T16:38:43Z</time>
      </trkpt>
      <trkpt lat="44.5305" lon="0.88399">
        <ele>151.9</ele>
        <time>2022-08-11T16:38:45Z</time>
      </trkpt>
      <trkpt lat="44.53057" lon="0.88407">
        <ele>152.4</ele>
        <time>2022-08-11T16:38:47Z</time>
      </trkpt>
      <trkpt lat="44.53065" lon="0.88417">
        <ele>152.9</ele>
        <time>2022-08-11T16:38:49Z</time>
      </trkpt>
      <trkpt lat="44.53073" lon="0.88425">
        <ele>153</ele>
        <time>2022-08-11T16:38:51Z</time>
      </trkpt>
      <trkpt lat="44.5308" lon="0.88434">
        <ele>153</ele>
        <time>2022-08-11T16:38:53Z</time>
      </trkpt>
      <trkpt lat="44.53088" lon="0.88443">
        <ele>152.8</ele>
        <time>2022-08-11T16:38:55Z</time>
      </trkpt>
      <trkpt lat="44.53095" lon="0.88452">
        <ele>152.5</ele>
        <time>2022-08-11T16:38:57Z</time>
      </trkpt>
      <trkpt lat="44.53102" lon="0.88459">
        <ele>152.3</ele>
        <time>2022-08-11T16:38:59Z</time>
      </trkpt>
      <trkpt lat="44.53109" lon="0.88468">
        <ele>152.1</ele>
        <time>2022-08-11T16:39:01Z</time>
      </trkpt>
      <trkpt lat="44.53116" lon="0.88477">
        <ele>152</ele>
        <time>2022-08-11T16:39:03Z</time>
      </trkpt>
      <trkpt lat="44.53124" lon="0.88485">
        <ele>151.9</ele>
        <time>2022-08-11T16:39:05Z</time>
      </trkpt>
      <trkpt lat="44.53131" lon="0.88493">
        <ele>151.9</ele>
        <time>2022-08-11T16:39:07Z</time>
      </trkpt>
      <trkpt lat="44.53138" lon="0.88501">
        <ele>152</ele>
        <time>2022-08-11T16:39:09Z</time>
      </trkpt>
      <trkpt lat="44.53145" lon="0.8851">
        <ele>152</ele>
        <time>2022-08-11T16:39:11Z</time>
      </trkpt>
      <trkpt lat="44.53152" lon="0.88519">
        <ele>152.1</ele>
        <time>2022-08-11T16:39:13Z</time>
      </trkpt>
      <trkpt lat="44.53159" lon="0.88528">
        <ele>152.1</ele>
        <time>2022-08-11T16:39:15Z</time>
      </trkpt>
      <trkpt lat="44.53166" lon="0.88536">
        <ele>152.1</ele>
        <time>2022-08-11T16:39:17Z</time>
      </trkpt>
      <trkpt lat="44.53174" lon="0.88545">
        <ele>151.3</ele>
        <time>2022-08-11T16:39:19Z</time>
      </trkpt>
      <trkpt lat="44.53181" lon="0.88554">
        <ele>150.6</ele>
        <time>2022-08-11T16:39:21Z</time>
      </trkpt>
      <trkpt lat="44.53188" lon="0.88563">
        <ele>149.9</ele>
        <time>2022-08-11T16:39:23Z</time>
      </trkpt>
      <trkpt lat="44.53196" lon="0.88571">
        <ele>149.3</ele>
        <time>2022-08-11T16:39:25Z</time>
      </trkpt>
      <trkpt lat="44.53203" lon="0.8858">
        <ele>148.8</ele>
        <time>2022-08-11T16:39:27Z</time>
      </trkpt>
      <trkpt lat="44.5321" lon="0.88588">
        <ele>148.6</ele>
        <time>2022-08-11T16:39:29Z</time>
      </trkpt>
      <trkpt lat="44.53217" lon="0.88597">
        <ele>148.5</ele>
        <time>2022-08-11T16:39:31Z</time>
      </trkpt>
      <trkpt lat="44.53224" lon="0.88605">
        <ele>148.4</ele>
        <time>2022-08-11T16:39:33Z</time>
      </trkpt>
      <trkpt lat="44.53232" lon="0.88613">
        <ele>148.4</ele>
        <time>2022-08-11T16:39:35Z</time>
      </trkpt>
      <trkpt lat="44.5324" lon="0.8862">
        <ele>148.3</ele>
        <time>2022-08-11T16:39:37Z</time>
      </trkpt>
      <trkpt lat="44.53248" lon="0.88628">
        <ele>148.2</ele>
        <time>2022-08-11T16:39:39Z</time>
      </trkpt>
      <trkpt lat="44.53256" lon="0.88634">
        <ele>148.3</ele>
        <time>2022-08-11T16:39:41Z</time>
      </trkpt>
      <trkpt lat="44.53264" lon="0.8864">
        <ele>148.3</ele>
        <time>2022-08-11T16:39:43Z</time>
      </trkpt>
      <trkpt lat="44.53273" lon="0.88645">
        <ele>148.2</ele>
        <time>2022-08-11T16:39:45Z</time>
      </trkpt>
      <trkpt lat="44.53281" lon="0.88649">
        <ele>148.1</ele>
        <time>2022-08-11T16:39:47Z</time>
      </trkpt>
      <trkpt lat="44.53288" lon="0.88652">
        <ele>148</ele>
        <time>2022-08-11T16:39:49Z</time>
      </trkpt>
      <trkpt lat="44.53296" lon="0.88655">
        <ele>147.8</ele>
        <time>2022-08-11T16:39:51Z</time>
      </trkpt>
      <trkpt lat="44.53304" lon="0.88657">
        <ele>147.7</ele>
        <time>2022-08-11T16:39:53Z</time>
      </trkpt>
      <trkpt lat="44.53312" lon="0.88659">
        <ele>147.5</ele>
        <time>2022-08-11T16:39:55Z</time>
      </trkpt>
      <trkpt lat="44.5332" lon="0.88662">
        <ele>147.3</ele>
        <time>2022-08-11T16:39:57Z</time>
      </trkpt>
      <trkpt lat="44.53329" lon="0.88663">
        <ele>147.1</ele>
        <time>2022-08-11T16:39:59Z</time>
      </trkpt>
      <trkpt lat="44.53337" lon="0.88665">
        <ele>147</ele>
        <time>2022-08-11T16:40:01Z</time>
      </trkpt>
      <trkpt lat="44.53344" lon="0.88665">
        <ele>147.1</ele>
        <time>2022-08-11T16:40:03Z</time>
      </trkpt>
      <trkpt lat="44.53354" lon="0.88667">
        <ele>147.3</ele>
        <time>2022-08-11T16:40:05Z</time>
      </trkpt>
      <trkpt lat="44.53362" lon="0.88668">
        <ele>147.4</ele>
        <time>2022-08-11T16:40:07Z</time>
      </trkpt>
      <trkpt lat="44.53371" lon="0.88669">
        <ele>147.5</ele>
        <time>2022-08-11T16:40:09Z</time>
      </trkpt>
      <trkpt lat="44.53379" lon="0.88669">
        <ele>147.6</ele>
        <time>2022-08-11T16:40:11Z</time>
      </trkpt>
      <trkpt lat="44.53386" lon="0.8867">
        <ele>147.7</ele>
        <time>2022-08-11T16:40:13Z</time>
      </trkpt>
      <trkpt lat="44.53394" lon="0.88672">
        <ele>147.9</ele>
        <time>2022-08-11T16:40:15Z</time>
      </trkpt>
      <trkpt lat="44.53402" lon="0.88672">
        <ele>148</ele>
        <time>2022-08-11T16:40:17Z</time>
      </trkpt>
      <trkpt lat="44.5341" lon="0.88673">
        <ele>148.1</ele>
        <time>2022-08-11T16:40:19Z</time>
      </trkpt>
      <trkpt lat="44.53418" lon="0.88674">
        <ele>148.2</ele>
        <time>2022-08-11T16:40:21Z</time>
      </trkpt>
      <trkpt lat="44.53426" lon="0.88675">
        <ele>148.2</ele>
        <time>2022-08-11T16:40:23Z</time>
      </trkpt>
      <trkpt lat="44.53433" lon="0.88676">
        <ele>148.3</ele>
        <time>2022-08-11T16:40:25Z</time>
      </trkpt>
      <trkpt lat="44.5344" lon="0.88677">
        <ele>148.3</ele>
        <time>2022-08-11T16:40:27Z</time>
      </trkpt>
      <trkpt lat="44.53448" lon="0.88677">
        <ele>148.4</ele>
        <time>2022-08-11T16:40:29Z</time>
      </trkpt>
      <trkpt lat="44.53455" lon="0.88678">
        <ele>148.4</ele>
        <time>2022-08-11T16:40:31Z</time>
      </trkpt>
      <trkpt lat="44.53463" lon="0.88679">
        <ele>148.5</ele>
        <time>2022-08-11T16:40:33Z</time>
      </trkpt>
      <trkpt lat="44.53471" lon="0.8868">
        <ele>148.5</ele>
        <time>2022-08-11T16:40:35Z</time>
      </trkpt>
      <trkpt lat="44.53478" lon="0.88681">
        <ele>148.6</ele>
        <time>2022-08-11T16:40:37Z</time>
      </trkpt>
      <trkpt lat="44.53487" lon="0.88681">
        <ele>148.6</ele>
        <time>2022-08-11T16:40:39Z</time>
      </trkpt>
      <trkpt lat="44.53494" lon="0.88682">
        <ele>148.7</ele>
        <time>2022-08-11T16:40:41Z</time>
      </trkpt>
      <trkpt lat="44.53503" lon="0.88683">
        <ele>148.7</ele>
        <time>2022-08-11T16:40:43Z</time>
      </trkpt>
      <trkpt lat="44.53512" lon="0.88684">
        <ele>148.5</ele>
        <time>2022-08-11T16:40:45Z</time>
      </trkpt>
      <trkpt lat="44.5352" lon="0.88685">
        <ele>148.3</ele>
        <time>2022-08-11T16:40:47Z</time>
      </trkpt>
      <trkpt lat="44.53528" lon="0.88684">
        <ele>148</ele>
        <time>2022-08-11T16:40:49Z</time>
      </trkpt>
      <trkpt lat="44.53537" lon="0.88683">
        <ele>147.7</ele>
        <time>2022-08-11T16:40:51Z</time>
      </trkpt>
      <trkpt lat="44.53545" lon="0.88679">
        <ele>147.4</ele>
        <time>2022-08-11T16:40:53Z</time>
      </trkpt>
      <trkpt lat="44.53554" lon="0.88675">
        <ele>147</ele>
        <time>2022-08-11T16:40:55Z</time>
      </trkpt>
      <trkpt lat="44.53563" lon="0.88669">
        <ele>146.6</ele>
        <time>2022-08-11T16:40:57Z</time>
      </trkpt>
      <trkpt lat="44.5357" lon="0.88662">
        <ele>146.3</ele>
        <time>2022-08-11T16:40:59Z</time>
      </trkpt>
      <trkpt lat="44.53577" lon="0.88654">
        <ele>146.1</ele>
        <time>2022-08-11T16:41:01Z</time>
      </trkpt>
      <trkpt lat="44.53583" lon="0.88645">
        <ele>146</ele>
        <time>2022-08-11T16:41:03Z</time>
      </trkpt>
      <trkpt lat="44.53587" lon="0.88635">
        <ele>145.7</ele>
        <time>2022-08-11T16:41:05Z</time>
      </trkpt>
      <trkpt lat="44.53592" lon="0.88624">
        <ele>145.3</ele>
        <time>2022-08-11T16:41:07Z</time>
      </trkpt>
      <trkpt lat="44.53596" lon="0.88612">
        <ele>145.1</ele>
        <time>2022-08-11T16:41:09Z</time>
      </trkpt>
      <trkpt lat="44.53599" lon="0.886">
        <ele>144.8</ele>
        <time>2022-08-11T16:41:11Z</time>
      </trkpt>
      <trkpt lat="44.53603" lon="0.88587">
        <ele>144.6</ele>
        <time>2022-08-11T16:41:13Z</time>
      </trkpt>
      <trkpt lat="44.53606" lon="0.88575">
        <ele>144.6</ele>
        <time>2022-08-11T16:41:15Z</time>
      </trkpt>
      <trkpt lat="44.53611" lon="0.88562">
        <ele>144.6</ele>
        <time>2022-08-11T16:41:17Z</time>
      </trkpt>
      <trkpt lat="44.53616" lon="0.88552">
        <ele>144.6</ele>
        <time>2022-08-11T16:41:19Z</time>
      </trkpt>
      <trkpt lat="44.53623" lon="0.88544">
        <ele>144.5</ele>
        <time>2022-08-11T16:41:21Z</time>
      </trkpt>
      <trkpt lat="44.53629" lon="0.88537">
        <ele>144.5</ele>
        <time>2022-08-11T16:41:23Z</time>
      </trkpt>
      <trkpt lat="44.53635" lon="0.88529">
        <ele>144.5</ele>
        <time>2022-08-11T16:41:25Z</time>
      </trkpt>
      <trkpt lat="44.53642" lon="0.88522">
        <ele>144.6</ele>
        <time>2022-08-11T16:41:27Z</time>
      </trkpt>
      <trkpt lat="44.53649" lon="0.88516">
        <ele>144.7</ele>
        <time>2022-08-11T16:41:29Z</time>
      </trkpt>
      <trkpt lat="44.53655" lon="0.88509">
        <ele>144.8</ele>
        <time>2022-08-11T16:41:31Z</time>
      </trkpt>
      <trkpt lat="44.53661" lon="0.88502">
        <ele>145</ele>
        <time>2022-08-11T16:41:33Z</time>
      </trkpt>
      <trkpt lat="44.53666" lon="0.88495">
        <ele>145.1</ele>
        <time>2022-08-11T16:41:35Z</time>
      </trkpt>
      <trkpt lat="44.53672" lon="0.88488">
        <ele>145</ele>
        <time>2022-08-11T16:41:37Z</time>
      </trkpt>
      <trkpt lat="44.53677" lon="0.88481">
        <ele>145</ele>
        <time>2022-08-11T16:41:39Z</time>
      </trkpt>
      <trkpt lat="44.53682" lon="0.88475">
        <ele>145</ele>
        <time>2022-08-11T16:41:41Z</time>
      </trkpt>
      <trkpt lat="44.53687" lon="0.88469">
        <ele>145.2</ele>
        <time>2022-08-11T16:41:43Z</time>
      </trkpt>
      <trkpt lat="44.53692" lon="0.88462">
        <ele>145.4</ele>
        <time>2022-08-11T16:41:45Z</time>
      </trkpt>
      <trkpt lat="44.53697" lon="0.88455">
        <ele>145.8</ele>
        <time>2022-08-11T16:41:47Z</time>
      </trkpt>
      <trkpt lat="44.53702" lon="0.88449">
        <ele>146.3</ele>
        <time>2022-08-11T16:41:49Z</time>
      </trkpt>
      <trkpt lat="44.53706" lon="0.88442">
        <ele>146.9</ele>
        <time>2022-08-11T16:41:51Z</time>
      </trkpt>
      <trkpt lat="44.53711" lon="0.88435">
        <ele>147.6</ele>
        <time>2022-08-11T16:41:53Z</time>
      </trkpt>
      <trkpt lat="44.53716" lon="0.88428">
        <ele>148.3</ele>
        <time>2022-08-11T16:41:55Z</time>
      </trkpt>
      <trkpt lat="44.53721" lon="0.8842">
        <ele>149.2</ele>
        <time>2022-08-11T16:41:57Z</time>
      </trkpt>
      <trkpt lat="44.53725" lon="0.88412">
        <ele>149.9</ele>
        <time>2022-08-11T16:41:59Z</time>
      </trkpt>
      <trkpt lat="44.5373" lon="0.88405">
        <ele>150.3</ele>
        <time>2022-08-11T16:42:01Z</time>
      </trkpt>
      <trkpt lat="44.53735" lon="0.88397">
        <ele>150.7</ele>
        <time>2022-08-11T16:42:03Z</time>
      </trkpt>
      <trkpt lat="44.5374" lon="0.88389">
        <ele>151.2</ele>
        <time>2022-08-11T16:42:05Z</time>
      </trkpt>
      <trkpt lat="44.53746" lon="0.88381">
        <ele>151.7</ele>
        <time>2022-08-11T16:42:07Z</time>
      </trkpt>
      <trkpt lat="44.53751" lon="0.88372">
        <ele>151.9</ele>
        <time>2022-08-11T16:42:09Z</time>
      </trkpt>
      <trkpt lat="44.53756" lon="0.88364">
        <ele>151.7</ele>
        <time>2022-08-11T16:42:11Z</time>
      </trkpt>
      <trkpt lat="44.53762" lon="0.88356">
        <ele>151.4</ele>
        <time>2022-08-11T16:42:13Z</time>
      </trkpt>
      <trkpt lat="44.53767" lon="0.88347">
        <ele>151.1</ele>
        <time>2022-08-11T16:42:15Z</time>
      </trkpt>
      <trkpt lat="44.53772" lon="0.88338">
        <ele>151</ele>
        <time>2022-08-11T16:42:17Z</time>
      </trkpt>
      <trkpt lat="44.53778" lon="0.88328">
        <ele>150.5</ele>
        <time>2022-08-11T16:42:19Z</time>
      </trkpt>
      <trkpt lat="44.53784" lon="0.88318">
        <ele>149.9</ele>
        <time>2022-08-11T16:42:21Z</time>
      </trkpt>
      <trkpt lat="44.53789" lon="0.88307">
        <ele>149.3</ele>
        <time>2022-08-11T16:42:23Z</time>
      </trkpt>
      <trkpt lat="44.53795" lon="0.88295">
        <ele>148.8</ele>
        <time>2022-08-11T16:42:25Z</time>
      </trkpt>
      <trkpt lat="44.53801" lon="0.88284">
        <ele>148.3</ele>
        <time>2022-08-11T16:42:27Z</time>
      </trkpt>
      <trkpt lat="44.53807" lon="0.88272">
        <ele>147.8</ele>
        <time>2022-08-11T16:42:29Z</time>
      </trkpt>
      <trkpt lat="44.53812" lon="0.8826">
        <ele>147.4</ele>
        <time>2022-08-11T16:42:31Z</time>
      </trkpt>
      <trkpt lat="44.53818" lon="0.88249">
        <ele>146.9</ele>
        <time>2022-08-11T16:42:33Z</time>
      </trkpt>
      <trkpt lat="44.53824" lon="0.88237">
        <ele>146.3</ele>
        <time>2022-08-11T16:42:35Z</time>
      </trkpt>
      <trkpt lat="44.53829" lon="0.88226">
        <ele>145.9</ele>
        <time>2022-08-11T16:42:37Z</time>
      </trkpt>
      <trkpt lat="44.53834" lon="0.88214">
        <ele>145.5</ele>
        <time>2022-08-11T16:42:39Z</time>
      </trkpt>
      <trkpt lat="44.5384" lon="0.88202">
        <ele>145</ele>
        <time>2022-08-11T16:42:41Z</time>
      </trkpt>
      <trkpt lat="44.53846" lon="0.88189">
        <ele>144.6</ele>
        <time>2022-08-11T16:42:43Z</time>
      </trkpt>
      <trkpt lat="44.53852" lon="0.88174">
        <ele>144.3</ele>
        <time>2022-08-11T16:42:45Z</time>
      </trkpt>
      <trkpt lat="44.53859" lon="0.88158">
        <ele>143.9</ele>
        <time>2022-08-11T16:42:47Z</time>
      </trkpt>
      <trkpt lat="44.53866" lon="0.88142">
        <ele>143.3</ele>
        <time>2022-08-11T16:42:49Z</time>
      </trkpt>
      <trkpt lat="44.53873" lon="0.88125">
        <ele>142.8</ele>
        <time>2022-08-11T16:42:51Z</time>
      </trkpt>
      <trkpt lat="44.5388" lon="0.88108">
        <ele>142.4</ele>
        <time>2022-08-11T16:42:53Z</time>
      </trkpt>
      <trkpt lat="44.53888" lon="0.88091">
        <ele>142.1</ele>
        <time>2022-08-11T16:42:55Z</time>
      </trkpt>
      <trkpt lat="44.53895" lon="0.88073">
        <ele>141.7</ele>
        <time>2022-08-11T16:42:57Z</time>
      </trkpt>
      <trkpt lat="44.53903" lon="0.88055">
        <ele>141.2</ele>
        <time>2022-08-11T16:42:59Z</time>
      </trkpt>
      <trkpt lat="44.53911" lon="0.88035">
        <ele>140.4</ele>
        <time>2022-08-11T16:43:01Z</time>
      </trkpt>
      <trkpt lat="44.53919" lon="0.88016">
        <ele>139.5</ele>
        <time>2022-08-11T16:43:03Z</time>
      </trkpt>
      <trkpt lat="44.53928" lon="0.87998">
        <ele>138.8</ele>
        <time>2022-08-11T16:43:05Z</time>
      </trkpt>
      <trkpt lat="44.53937" lon="0.87979">
        <ele>138.7</ele>
        <time>2022-08-11T16:43:07Z</time>
      </trkpt>
      <trkpt lat="44.53946" lon="0.87959">
        <ele>138.6</ele>
        <time>2022-08-11T16:43:09Z</time>
      </trkpt>
      <trkpt lat="44.53956" lon="0.8794">
        <ele>138.4</ele>
        <time>2022-08-11T16:43:11Z</time>
      </trkpt>
      <trkpt lat="44.53966" lon="0.87922">
        <ele>138.2</ele>
        <time>2022-08-11T16:43:13Z</time>
      </trkpt>
      <trkpt lat="44.53976" lon="0.87903">
        <ele>137.6</ele>
        <time>2022-08-11T16:43:15Z</time>
      </trkpt>
      <trkpt lat="44.53987" lon="0.87884">
        <ele>136.8</ele>
        <time>2022-08-11T16:43:17Z</time>
      </trkpt>
      <trkpt lat="44.53999" lon="0.87865">
        <ele>135.8</ele>
        <time>2022-08-11T16:43:19Z</time>
      </trkpt>
      <trkpt lat="44.5401" lon="0.87846">
        <ele>134.8</ele>
        <time>2022-08-11T16:43:21Z</time>
      </trkpt>
      <trkpt lat="44.54021" lon="0.87826">
        <ele>134</ele>
        <time>2022-08-11T16:43:23Z</time>
      </trkpt>
      <trkpt lat="44.54033" lon="0.87806">
        <ele>133.2</ele>
        <time>2022-08-11T16:43:25Z</time>
      </trkpt>
      <trkpt lat="44.54044" lon="0.87787">
        <ele>132.3</ele>
        <time>2022-08-11T16:43:27Z</time>
      </trkpt>
      <trkpt lat="44.54055" lon="0.87768">
        <ele>131.1</ele>
        <time>2022-08-11T16:43:29Z</time>
      </trkpt>
      <trkpt lat="44.54066" lon="0.87749">
        <ele>129.7</ele>
        <time>2022-08-11T16:43:31Z</time>
      </trkpt>
      <trkpt lat="44.54077" lon="0.87731">
        <ele>129</ele>
        <time>2022-08-11T16:43:33Z</time>
      </trkpt>
      <trkpt lat="44.54088" lon="0.87712">
        <ele>128.8</ele>
        <time>2022-08-11T16:43:35Z</time>
      </trkpt>
      <trkpt lat="44.54098" lon="0.87693">
        <ele>128.6</ele>
        <time>2022-08-11T16:43:37Z</time>
      </trkpt>
      <trkpt lat="44.54109" lon="0.87674">
        <ele>128.1</ele>
        <time>2022-08-11T16:43:39Z</time>
      </trkpt>
      <trkpt lat="44.5412" lon="0.87655">
        <ele>127.9</ele>
        <time>2022-08-11T16:43:41Z</time>
      </trkpt>
      <trkpt lat="44.54132" lon="0.87637">
        <ele>127.9</ele>
        <time>2022-08-11T16:43:43Z</time>
      </trkpt>
      <trkpt lat="44.54143" lon="0.87619">
        <ele>128</ele>
        <time>2022-08-11T16:43:45Z</time>
      </trkpt>
      <trkpt lat="44.54155" lon="0.87602">
        <ele>127.9</ele>
        <time>2022-08-11T16:43:47Z</time>
      </trkpt>
      <trkpt lat="44.54169" lon="0.87585">
        <ele>127.8</ele>
        <time>2022-08-11T16:43:49Z</time>
      </trkpt>
      <trkpt lat="44.54183" lon="0.8757">
        <ele>127.5</ele>
        <time>2022-08-11T16:43:51Z</time>
      </trkpt>
      <trkpt lat="44.54197" lon="0.87556">
        <ele>127.1</ele>
        <time>2022-08-11T16:43:53Z</time>
      </trkpt>
      <trkpt lat="44.54212" lon="0.87543">
        <ele>126.6</ele>
        <time>2022-08-11T16:43:55Z</time>
      </trkpt>
      <trkpt lat="44.54228" lon="0.8753">
        <ele>125.8</ele>
        <time>2022-08-11T16:43:57Z</time>
      </trkpt>
      <trkpt lat="44.54244" lon="0.87519">
        <ele>124.8</ele>
        <time>2022-08-11T16:43:59Z</time>
      </trkpt>
      <trkpt lat="44.5426" lon="0.87508">
        <ele>124</ele>
        <time>2022-08-11T16:44:01Z</time>
      </trkpt>
      <trkpt lat="44.54276" lon="0.87499">
        <ele>123.2</ele>
        <time>2022-08-11T16:44:03Z</time>
      </trkpt>
      <trkpt lat="44.54293" lon="0.8749">
        <ele>122.6</ele>
        <time>2022-08-11T16:44:05Z</time>
      </trkpt>
      <trkpt lat="44.5431" lon="0.87481">
        <ele>121.9</ele>
        <time>2022-08-11T16:44:07Z</time>
      </trkpt>
      <trkpt lat="44.54326" lon="0.87473">
        <ele>121.2</ele>
        <time>2022-08-11T16:44:09Z</time>
      </trkpt>
      <trkpt lat="44.54343" lon="0.87465">
        <ele>120.2</ele>
        <time>2022-08-11T16:44:11Z</time>
      </trkpt>
      <trkpt lat="44.54359" lon="0.87457">
        <ele>119.1</ele>
        <time>2022-08-11T16:44:13Z</time>
      </trkpt>
      <trkpt lat="44.54376" lon="0.87449">
        <ele>117.8</ele>
        <time>2022-08-11T16:44:15Z</time>
      </trkpt>
      <trkpt lat="44.54393" lon="0.8744">
        <ele>116.3</ele>
        <time>2022-08-11T16:44:17Z</time>
      </trkpt>
      <trkpt lat="44.54409" lon="0.87432">
        <ele>114.7</ele>
        <time>2022-08-11T16:44:19Z</time>
      </trkpt>
      <trkpt lat="44.54426" lon="0.87423">
        <ele>113.3</ele>
        <time>2022-08-11T16:44:21Z</time>
      </trkpt>
      <trkpt lat="44.54443" lon="0.87416">
        <ele>112.2</ele>
        <time>2022-08-11T16:44:23Z</time>
      </trkpt>
      <trkpt lat="44.54459" lon="0.87408">
        <ele>111.8</ele>
        <time>2022-08-11T16:44:25Z</time>
      </trkpt>
      <trkpt lat="44.54476" lon="0.87398">
        <ele>111.3</ele>
        <time>2022-08-11T16:44:27Z</time>
      </trkpt>
      <trkpt lat="44.54492" lon="0.87389">
        <ele>110.4</ele>
        <time>2022-08-11T16:44:29Z</time>
      </trkpt>
      <trkpt lat="44.54509" lon="0.87382">
        <ele>109.5</ele>
        <time>2022-08-11T16:44:31Z</time>
      </trkpt>
      <trkpt lat="44.54527" lon="0.87373">
        <ele>108.5</ele>
        <time>2022-08-11T16:44:33Z</time>
      </trkpt>
      <trkpt lat="44.54544" lon="0.87364">
        <ele>107.2</ele>
        <time>2022-08-11T16:44:35Z</time>
      </trkpt>
      <trkpt lat="44.54561" lon="0.87356">
        <ele>105.7</ele>
        <time>2022-08-11T16:44:37Z</time>
      </trkpt>
      <trkpt lat="44.54578" lon="0.87347">
        <ele>103.9</ele>
        <time>2022-08-11T16:44:39Z</time>
      </trkpt>
      <trkpt lat="44.54595" lon="0.87338">
        <ele>103</ele>
        <time>2022-08-11T16:44:41Z</time>
      </trkpt>
      <trkpt lat="44.54612" lon="0.8733">
        <ele>102.7</ele>
        <time>2022-08-11T16:44:43Z</time>
      </trkpt>
      <trkpt lat="44.5463" lon="0.87322">
        <ele>102.4</ele>
        <time>2022-08-11T16:44:45Z</time>
      </trkpt>
      <trkpt lat="44.54647" lon="0.87314">
        <ele>102.2</ele>
        <time>2022-08-11T16:44:47Z</time>
      </trkpt>
      <trkpt lat="44.54663" lon="0.87305">
        <ele>102</ele>
        <time>2022-08-11T16:44:49Z</time>
      </trkpt>
      <trkpt lat="44.54678" lon="0.87298">
        <ele>102.1</ele>
        <time>2022-08-11T16:44:51Z</time>
      </trkpt>
      <trkpt lat="44.54693" lon="0.8729">
        <ele>102.3</ele>
        <time>2022-08-11T16:44:53Z</time>
      </trkpt>
      <trkpt lat="44.54708" lon="0.87283">
        <ele>102.5</ele>
        <time>2022-08-11T16:44:55Z</time>
      </trkpt>
      <trkpt lat="44.54721" lon="0.87277">
        <ele>102.7</ele>
        <time>2022-08-11T16:44:57Z</time>
      </trkpt>
      <trkpt lat="44.54733" lon="0.8727">
        <ele>102.8</ele>
        <time>2022-08-11T16:44:59Z</time>
      </trkpt>
      <trkpt lat="44.54745" lon="0.87265">
        <ele>102.9</ele>
        <time>2022-08-11T16:45:01Z</time>
      </trkpt>
      <trkpt lat="44.54756" lon="0.8726">
        <ele>103.1</ele>
        <time>2022-08-11T16:45:03Z</time>
      </trkpt>
      <trkpt lat="44.54766" lon="0.87254">
        <ele>103.4</ele>
        <time>2022-08-11T16:45:05Z</time>
      </trkpt>
      <trkpt lat="44.54775" lon="0.87248">
        <ele>103.6</ele>
        <time>2022-08-11T16:45:07Z</time>
      </trkpt>
      <trkpt lat="44.54784" lon="0.87245">
        <ele>103.8</ele>
        <time>2022-08-11T16:45:09Z</time>
      </trkpt>
      <trkpt lat="44.54792" lon="0.87241">
        <ele>104</ele>
        <time>2022-08-11T16:45:11Z</time>
      </trkpt>
      <trkpt lat="44.54799" lon="0.87238">
        <ele>104.2</ele>
        <time>2022-08-11T16:45:13Z</time>
      </trkpt>
      <trkpt lat="44.54806" lon="0.87234">
        <ele>104.3</ele>
        <time>2022-08-11T16:45:15Z</time>
      </trkpt>
      <trkpt lat="44.54812" lon="0.87231">
        <ele>104.4</ele>
        <time>2022-08-11T16:45:17Z</time>
      </trkpt>
      <trkpt lat="44.54819" lon="0.87227">
        <ele>104.5</ele>
        <time>2022-08-11T16:45:19Z</time>
      </trkpt>
      <trkpt lat="44.54825" lon="0.87222">
        <ele>104.5</ele>
        <time>2022-08-11T16:45:21Z</time>
      </trkpt>
      <trkpt lat="44.54833" lon="0.87218">
        <ele>104.6</ele>
        <time>2022-08-11T16:45:23Z</time>
      </trkpt>
      <trkpt lat="44.5484" lon="0.87215">
        <ele>104.6</ele>
        <time>2022-08-11T16:45:25Z</time>
      </trkpt>
      <trkpt lat="44.54847" lon="0.87213">
        <ele>104.7</ele>
        <time>2022-08-11T16:45:27Z</time>
      </trkpt>
      <trkpt lat="44.54854" lon="0.8721">
        <ele>104.8</ele>
        <time>2022-08-11T16:45:29Z</time>
      </trkpt>
      <trkpt lat="44.5486" lon="0.87208">
        <ele>104.8</ele>
        <time>2022-08-11T16:45:31Z</time>
      </trkpt>
      <trkpt lat="44.54865" lon="0.87206">
        <ele>104.9</ele>
        <time>2022-08-11T16:45:33Z</time>
      </trkpt>
      <trkpt lat="44.5487" lon="0.87206">
        <ele>104.9</ele>
        <time>2022-08-11T16:45:35Z</time>
      </trkpt>
      <trkpt lat="44.54874" lon="0.87205">
        <ele>105</ele>
        <time>2022-08-11T16:45:37Z</time>
      </trkpt>
      <trkpt lat="44.54876" lon="0.87203">
        <ele>105</ele>
        <time>2022-08-11T16:45:39Z</time>
      </trkpt>
      <trkpt lat="44.54876" lon="0.87203">
        <ele>105</ele>
        <time>2022-08-11T16:45:41Z</time>
      </trkpt>
      <trkpt lat="44.54876" lon="0.87203">
        <ele>105</ele>
        <time>2022-08-11T16:45:43Z</time>
      </trkpt>
      <trkpt lat="44.54877" lon="0.87203">
        <ele>105</ele>
        <time>2022-08-11T16:45:45Z</time>
      </trkpt>
      <trkpt lat="44.54877" lon="0.87203">
        <ele>105</ele>
        <time>2022-08-11T16:45:47Z</time>
      </trkpt>
      <trkpt lat="44.54891" lon="0.87191">
        <ele>105.3</ele>
        <time>2022-08-11T16:52:27Z</time>
      </trkpt>
      <trkpt lat="44.54894" lon="0.87185">
        <ele>105.4</ele>
        <time>2022-08-11T16:52:29Z</time>
      </trkpt>
      <trkpt lat="44.54898" lon="0.87179">
        <ele>105.5</ele>
        <time>2022-08-11T16:52:31Z</time>
      </trkpt>
      <trkpt lat="44.54901" lon="0.87173">
        <ele>105.6</ele>
        <time>2022-08-11T16:52:33Z</time>
      </trkpt>
      <trkpt lat="44.54905" lon="0.87168">
        <ele>105.7</ele>
        <time>2022-08-11T16:52:35Z</time>
      </trkpt>
      <trkpt lat="44.54908" lon="0.87164">
        <ele>105.9</ele>
        <time>2022-08-11T16:52:37Z</time>
      </trkpt>
      <trkpt lat="44.54911" lon="0.87161">
        <ele>106</ele>
        <time>2022-08-11T16:52:39Z</time>
      </trkpt>
      <trkpt lat="44.54915" lon="0.8716">
        <ele>106.1</ele>
        <time>2022-08-11T16:52:41Z</time>
      </trkpt>
      <trkpt lat="44.54918" lon="0.87158">
        <ele>106.3</ele>
        <time>2022-08-11T16:52:43Z</time>
      </trkpt>
      <trkpt lat="44.54922" lon="0.87156">
        <ele>106.7</ele>
        <time>2022-08-11T16:52:45Z</time>
      </trkpt>
      <trkpt lat="44.54927" lon="0.87155">
        <ele>107</ele>
        <time>2022-08-11T16:52:47Z</time>
      </trkpt>
      <trkpt lat="44.5493" lon="0.87158">
        <ele>107.2</ele>
        <time>2022-08-11T16:52:49Z</time>
      </trkpt>
      <trkpt lat="44.54932" lon="0.87161">
        <ele>107.4</ele>
        <time>2022-08-11T16:52:51Z</time>
      </trkpt>
      <trkpt lat="44.54934" lon="0.87163">
        <ele>107.5</ele>
        <time>2022-08-11T16:52:53Z</time>
      </trkpt>
      <trkpt lat="44.54937" lon="0.87166">
        <ele>107.7</ele>
        <time>2022-08-11T16:52:55Z</time>
      </trkpt>
      <trkpt lat="44.54939" lon="0.87168">
        <ele>107.9</ele>
        <time>2022-08-11T16:52:57Z</time>
      </trkpt>
      <trkpt lat="44.5494" lon="0.87173">
        <ele>108</ele>
        <time>2022-08-11T16:52:59Z</time>
      </trkpt>
      <trkpt lat="44.54942" lon="0.87179">
        <ele>108.2</ele>
        <time>2022-08-11T16:53:01Z</time>
      </trkpt>
      <trkpt lat="44.54945" lon="0.87185">
        <ele>108.4</ele>
        <time>2022-08-11T16:53:03Z</time>
      </trkpt>
      <trkpt lat="44.54946" lon="0.87192">
        <ele>108.6</ele>
        <time>2022-08-11T16:53:05Z</time>
      </trkpt>
      <trkpt lat="44.54947" lon="0.87199">
        <ele>108.8</ele>
        <time>2022-08-11T16:53:07Z</time>
      </trkpt>
      <trkpt lat="44.54949" lon="0.87206">
        <ele>109</ele>
        <time>2022-08-11T16:53:09Z</time>
      </trkpt>
      <trkpt lat="44.5495" lon="0.87213">
        <ele>109.2</ele>
        <time>2022-08-11T16:53:11Z</time>
      </trkpt>
      <trkpt lat="44.54952" lon="0.8722">
        <ele>109.4</ele>
        <time>2022-08-11T16:53:13Z</time>
      </trkpt>
      <trkpt lat="44.54953" lon="0.87227">
        <ele>109.6</ele>
        <time>2022-08-11T16:53:15Z</time>
      </trkpt>
      <trkpt lat="44.54955" lon="0.87233">
        <ele>109.9</ele>
        <time>2022-08-11T16:53:17Z</time>
      </trkpt>
      <trkpt lat="44.54956" lon="0.87239">
        <ele>110.1</ele>
        <time>2022-08-11T16:53:19Z</time>
      </trkpt>
      <trkpt lat="44.54959" lon="0.87243">
        <ele>110.5</ele>
        <time>2022-08-11T16:53:21Z</time>
      </trkpt>
      <trkpt lat="44.54959" lon="0.87248">
        <ele>110.5</ele>
        <time>2022-08-11T16:53:23Z</time>
      </trkpt>
      <trkpt lat="44.54958" lon="0.87252">
        <ele>110.4</ele>
        <time>2022-08-11T16:53:25Z</time>
      </trkpt>
      <trkpt lat="44.54959" lon="0.87255">
        <ele>110.4</ele>
        <time>2022-08-11T16:53:27Z</time>
      </trkpt>
      <trkpt lat="44.54959" lon="0.87257">
        <ele>110.4</ele>
        <time>2022-08-11T16:53:29Z</time>
      </trkpt>
      <trkpt lat="44.54959" lon="0.87257">
        <ele>110.4</ele>
        <time>2022-08-11T16:53:31Z</time>
      </trkpt>
      <trkpt lat="44.54959" lon="0.87257">
        <ele>110.4</ele>
        <time>2022-08-11T16:53:33Z</time>
      </trkpt>
      <trkpt lat="44.54959" lon="0.87257">
        <ele>110.4</ele>
        <time>2022-08-11T16:53:35Z</time>
      </trkpt>
      <trkpt lat="44.54957" lon="0.87255">
        <ele>110.2</ele>
        <time>2022-08-11T16:54:05Z</time>
      </trkpt>
      <trkpt lat="44.54959" lon="0.87262">
        <ele>110.2</ele>
        <time>2022-08-11T16:54:07Z</time>
      </trkpt>
      <trkpt lat="44.54961" lon="0.87269">
        <ele>110.2</ele>
        <time>2022-08-11T16:54:09Z</time>
      </trkpt>
      <trkpt lat="44.54962" lon="0.87276">
        <ele>110.2</ele>
        <time>2022-08-11T16:54:11Z</time>
      </trkpt>
      <trkpt lat="44.54965" lon="0.87284">
        <ele>110.2</ele>
        <time>2022-08-11T16:54:13Z</time>
      </trkpt>
      <trkpt lat="44.54967" lon="0.87291">
        <ele>110.1</ele>
        <time>2022-08-11T16:54:15Z</time>
      </trkpt>
      <trkpt lat="44.54969" lon="0.87298">
        <ele>110.1</ele>
        <time>2022-08-11T16:54:17Z</time>
      </trkpt>
      <trkpt lat="44.54971" lon="0.87305">
        <ele>110</ele>
        <time>2022-08-11T16:54:19Z</time>
      </trkpt>
      <trkpt lat="44.54974" lon="0.87312">
        <ele>110</ele>
        <time>2022-08-11T16:54:21Z</time>
      </trkpt>
      <trkpt lat="44.54977" lon="0.87319">
        <ele>109.9</ele>
        <time>2022-08-11T16:54:23Z</time>
      </trkpt>
      <trkpt lat="44.5498" lon="0.87327">
        <ele>109.9</ele>
        <time>2022-08-11T16:54:25Z</time>
      </trkpt>
      <trkpt lat="44.54984" lon="0.87334">
        <ele>109.8</ele>
        <time>2022-08-11T16:54:27Z</time>
      </trkpt>
      <trkpt lat="44.54988" lon="0.87342">
        <ele>109.9</ele>
        <time>2022-08-11T16:54:29Z</time>
      </trkpt>
      <trkpt lat="44.54992" lon="0.87349">
        <ele>109.9</ele>
        <time>2022-08-11T16:54:31Z</time>
      </trkpt>
      <trkpt lat="44.54996" lon="0.87357">
        <ele>109.9</ele>
        <time>2022-08-11T16:54:33Z</time>
      </trkpt>
      <trkpt lat="44.55" lon="0.87364">
        <ele>109.9</ele>
        <time>2022-08-11T16:54:35Z</time>
      </trkpt>
      <trkpt lat="44.55004" lon="0.87371">
        <ele>110.3</ele>
        <time>2022-08-11T16:54:37Z</time>
      </trkpt>
      <trkpt lat="44.55008" lon="0.87378">
        <ele>110.6</ele>
        <time>2022-08-11T16:54:39Z</time>
      </trkpt>
      <trkpt lat="44.55011" lon="0.87385">
        <ele>110.9</ele>
        <time>2022-08-11T16:54:41Z</time>
      </trkpt>
      <trkpt lat="44.55015" lon="0.87392">
        <ele>111.1</ele>
        <time>2022-08-11T16:54:43Z</time>
      </trkpt>
      <trkpt lat="44.55019" lon="0.87398">
        <ele>111.4</ele>
        <time>2022-08-11T16:54:45Z</time>
      </trkpt>
      <trkpt lat="44.55022" lon="0.87405">
        <ele>111.5</ele>
        <time>2022-08-11T16:54:47Z</time>
      </trkpt>
      <trkpt lat="44.55026" lon="0.87412">
        <ele>111.7</ele>
        <time>2022-08-11T16:54:49Z</time>
      </trkpt>
      <trkpt lat="44.55029" lon="0.87419">
        <ele>111.8</ele>
        <time>2022-08-11T16:54:51Z</time>
      </trkpt>
      <trkpt lat="44.55033" lon="0.87427">
        <ele>111.8</ele>
        <time>2022-08-11T16:54:53Z</time>
      </trkpt>
      <trkpt lat="44.55036" lon="0.87434">
        <ele>111.9</ele>
        <time>2022-08-11T16:54:55Z</time>
      </trkpt>
      <trkpt lat="44.5504" lon="0.87443">
        <ele>111.7</ele>
        <time>2022-08-11T16:54:57Z</time>
      </trkpt>
      <trkpt lat="44.55044" lon="0.87452">
        <ele>111.6</ele>
        <time>2022-08-11T16:54:59Z</time>
      </trkpt>
      <trkpt lat="44.55049" lon="0.87461">
        <ele>111.3</ele>
        <time>2022-08-11T16:55:01Z</time>
      </trkpt>
      <trkpt lat="44.55054" lon="0.8747">
        <ele>111</ele>
        <time>2022-08-11T16:55:03Z</time>
      </trkpt>
      <trkpt lat="44.5506" lon="0.87479">
        <ele>110.6</ele>
        <time>2022-08-11T16:55:05Z</time>
      </trkpt>
      <trkpt lat="44.55066" lon="0.87486">
        <ele>110.2</ele>
        <time>2022-08-11T16:55:07Z</time>
      </trkpt>
      <trkpt lat="44.55073" lon="0.87493">
        <ele>109.6</ele>
        <time>2022-08-11T16:55:09Z</time>
      </trkpt>
      <trkpt lat="44.5508" lon="0.87501">
        <ele>108.9</ele>
        <time>2022-08-11T16:55:11Z</time>
      </trkpt>
      <trkpt lat="44.55088" lon="0.87508">
        <ele>109.4</ele>
        <time>2022-08-11T16:55:13Z</time>
      </trkpt>
      <trkpt lat="44.55096" lon="0.87515">
        <ele>110.3</ele>
        <time>2022-08-11T16:55:15Z</time>
      </trkpt>
      <trkpt lat="44.55103" lon="0.87521">
        <ele>110.9</ele>
        <time>2022-08-11T16:55:17Z</time>
      </trkpt>
      <trkpt lat="44.5511" lon="0.87528">
        <ele>111.5</ele>
        <time>2022-08-11T16:55:19Z</time>
      </trkpt>
      <trkpt lat="44.55116" lon="0.87535">
        <ele>111.8</ele>
        <time>2022-08-11T16:55:21Z</time>
      </trkpt>
      <trkpt lat="44.55122" lon="0.87542">
        <ele>112.1</ele>
        <time>2022-08-11T16:55:23Z</time>
      </trkpt>
      <trkpt lat="44.55127" lon="0.87549">
        <ele>112.2</ele>
        <time>2022-08-11T16:55:25Z</time>
      </trkpt>
      <trkpt lat="44.55133" lon="0.87556">
        <ele>112.3</ele>
        <time>2022-08-11T16:55:27Z</time>
      </trkpt>
      <trkpt lat="44.55137" lon="0.87565">
        <ele>112</ele>
        <time>2022-08-11T16:55:29Z</time>
      </trkpt>
      <trkpt lat="44.5514" lon="0.87574">
        <ele>111.6</ele>
        <time>2022-08-11T16:55:31Z</time>
      </trkpt>
      <trkpt lat="44.55144" lon="0.87582">
        <ele>111.2</ele>
        <time>2022-08-11T16:55:33Z</time>
      </trkpt>
      <trkpt lat="44.55147" lon="0.87591">
        <ele>110.9</ele>
        <time>2022-08-11T16:55:35Z</time>
      </trkpt>
      <trkpt lat="44.55151" lon="0.87599">
        <ele>110.7</ele>
        <time>2022-08-11T16:55:37Z</time>
      </trkpt>
      <trkpt lat="44.55155" lon="0.87607">
        <ele>110.4</ele>
        <time>2022-08-11T16:55:39Z</time>
      </trkpt>
      <trkpt lat="44.55159" lon="0.87615">
        <ele>110.2</ele>
        <time>2022-08-11T16:55:41Z</time>
      </trkpt>
      <trkpt lat="44.55164" lon="0.87623">
        <ele>109.9</ele>
        <time>2022-08-11T16:55:43Z</time>
      </trkpt>
      <trkpt lat="44.55168" lon="0.87631">
        <ele>109.7</ele>
        <time>2022-08-11T16:55:45Z</time>
      </trkpt>
      <trkpt lat="44.55172" lon="0.87637">
        <ele>109.9</ele>
        <time>2022-08-11T16:55:47Z</time>
      </trkpt>
      <trkpt lat="44.55176" lon="0.87644">
        <ele>110.2</ele>
        <time>2022-08-11T16:55:49Z</time>
      </trkpt>
      <trkpt lat="44.5518" lon="0.8765">
        <ele>110.4</ele>
        <time>2022-08-11T16:55:51Z</time>
      </trkpt>
      <trkpt lat="44.55185" lon="0.87655">
        <ele>110.8</ele>
        <time>2022-08-11T16:55:53Z</time>
      </trkpt>
      <trkpt lat="44.55189" lon="0.8766">
        <ele>111.2</ele>
        <time>2022-08-11T16:55:55Z</time>
      </trkpt>
      <trkpt lat="44.55194" lon="0.87667">
        <ele>111.6</ele>
        <time>2022-08-11T16:55:57Z</time>
      </trkpt>
      <trkpt lat="44.552" lon="0.87675">
        <ele>112.1</ele>
        <time>2022-08-11T16:55:59Z</time>
      </trkpt>
      <trkpt lat="44.55206" lon="0.87682">
        <ele>112.4</ele>
        <time>2022-08-11T16:56:01Z</time>
      </trkpt>
      <trkpt lat="44.55212" lon="0.87689">
        <ele>112.8</ele>
        <time>2022-08-11T16:56:03Z</time>
      </trkpt>
      <trkpt lat="44.55218" lon="0.87696">
        <ele>112.9</ele>
        <time>2022-08-11T16:56:05Z</time>
      </trkpt>
      <trkpt lat="44.55224" lon="0.87704">
        <ele>113</ele>
        <time>2022-08-11T16:56:07Z</time>
      </trkpt>
      <trkpt lat="44.55229" lon="0.87712">
        <ele>112.8</ele>
        <time>2022-08-11T16:56:09Z</time>
      </trkpt>
      <trkpt lat="44.55235" lon="0.87719">
        <ele>112.6</ele>
        <time>2022-08-11T16:56:11Z</time>
      </trkpt>
      <trkpt lat="44.55241" lon="0.87726">
        <ele>112.4</ele>
        <time>2022-08-11T16:56:13Z</time>
      </trkpt>
      <trkpt lat="44.55247" lon="0.87733">
        <ele>111.9</ele>
        <time>2022-08-11T16:56:15Z</time>
      </trkpt>
      <trkpt lat="44.55253" lon="0.87741">
        <ele>111.5</ele>
        <time>2022-08-11T16:56:17Z</time>
      </trkpt>
      <trkpt lat="44.5526" lon="0.87749">
        <ele>111.2</ele>
        <time>2022-08-11T16:56:19Z</time>
      </trkpt>
      <trkpt lat="44.55266" lon="0.87758">
        <ele>111.3</ele>
        <time>2022-08-11T16:56:21Z</time>
      </trkpt>
      <trkpt lat="44.55272" lon="0.87765">
        <ele>111.5</ele>
        <time>2022-08-11T16:56:23Z</time>
      </trkpt>
      <trkpt lat="44.55278" lon="0.87772">
        <ele>111.6</ele>
        <time>2022-08-11T16:56:25Z</time>
      </trkpt>
      <trkpt lat="44.55283" lon="0.8778">
        <ele>111.6</ele>
        <time>2022-08-11T16:56:27Z</time>
      </trkpt>
      <trkpt lat="44.55287" lon="0.87788">
        <ele>111.4</ele>
        <time>2022-08-11T16:56:29Z</time>
      </trkpt>
      <trkpt lat="44.55291" lon="0.87798">
        <ele>111</ele>
        <time>2022-08-11T16:56:31Z</time>
      </trkpt>
      <trkpt lat="44.55293" lon="0.87808">
        <ele>110.5</ele>
        <time>2022-08-11T16:56:33Z</time>
      </trkpt>
      <trkpt lat="44.55296" lon="0.87818">
        <ele>109.9</ele>
        <time>2022-08-11T16:56:35Z</time>
      </trkpt>
      <trkpt lat="44.55298" lon="0.87828">
        <ele>109.3</ele>
        <time>2022-08-11T16:56:37Z</time>
      </trkpt>
      <trkpt lat="44.553" lon="0.87837">
        <ele>108.9</ele>
        <time>2022-08-11T16:56:39Z</time>
      </trkpt>
      <trkpt lat="44.55302" lon="0.87846">
        <ele>108.7</ele>
        <time>2022-08-11T16:56:41Z</time>
      </trkpt>
      <trkpt lat="44.55303" lon="0.87856">
        <ele>108.4</ele>
        <time>2022-08-11T16:56:43Z</time>
      </trkpt>
      <trkpt lat="44.55304" lon="0.87866">
        <ele>108.1</ele>
        <time>2022-08-11T16:56:45Z</time>
      </trkpt>
      <trkpt lat="44.55305" lon="0.87876">
        <ele>107.8</ele>
        <time>2022-08-11T16:56:47Z</time>
      </trkpt>
      <trkpt lat="44.55306" lon="0.87886">
        <ele>107.4</ele>
        <time>2022-08-11T16:56:49Z</time>
      </trkpt>
      <trkpt lat="44.55307" lon="0.87898">
        <ele>107.1</ele>
        <time>2022-08-11T16:56:51Z</time>
      </trkpt>
      <trkpt lat="44.55308" lon="0.8791">
        <ele>106.6</ele>
        <time>2022-08-11T16:56:53Z</time>
      </trkpt>
      <trkpt lat="44.55308" lon="0.87922">
        <ele>106.5</ele>
        <time>2022-08-11T16:56:55Z</time>
      </trkpt>
      <trkpt lat="44.55308" lon="0.87934">
        <ele>106.8</ele>
        <time>2022-08-11T16:56:57Z</time>
      </trkpt>
      <trkpt lat="44.55309" lon="0.87946">
        <ele>107</ele>
        <time>2022-08-11T16:56:59Z</time>
      </trkpt>
      <trkpt lat="44.5531" lon="0.87957">
        <ele>107.3</ele>
        <time>2022-08-11T16:57:01Z</time>
      </trkpt>
      <trkpt lat="44.55311" lon="0.87968">
        <ele>107.5</ele>
        <time>2022-08-11T16:57:03Z</time>
      </trkpt>
      <trkpt lat="44.55311" lon="0.87979">
        <ele>107.8</ele>
        <time>2022-08-11T16:57:05Z</time>
      </trkpt>
      <trkpt lat="44.55312" lon="0.8799">
        <ele>108</ele>
        <time>2022-08-11T16:57:07Z</time>
      </trkpt>
      <trkpt lat="44.55312" lon="0.88">
        <ele>108.2</ele>
        <time>2022-08-11T16:57:09Z</time>
      </trkpt>
      <trkpt lat="44.55312" lon="0.88009">
        <ele>108.7</ele>
        <time>2022-08-11T16:57:11Z</time>
      </trkpt>
      <trkpt lat="44.55312" lon="0.88019">
        <ele>109.1</ele>
        <time>2022-08-11T16:57:13Z</time>
      </trkpt>
      <trkpt lat="44.55311" lon="0.88028">
        <ele>109.6</ele>
        <time>2022-08-11T16:57:15Z</time>
      </trkpt>
      <trkpt lat="44.55309" lon="0.88037">
        <ele>109.9</ele>
        <time>2022-08-11T16:57:17Z</time>
      </trkpt>
      <trkpt lat="44.55307" lon="0.88044">
        <ele>110.2</ele>
        <time>2022-08-11T16:57:19Z</time>
      </trkpt>
      <trkpt lat="44.55304" lon="0.88051">
        <ele>110.4</ele>
        <time>2022-08-11T16:57:21Z</time>
      </trkpt>
      <trkpt lat="44.55301" lon="0.88057">
        <ele>110.6</ele>
        <time>2022-08-11T16:57:23Z</time>
      </trkpt>
      <trkpt lat="44.55299" lon="0.88063">
        <ele>110.8</ele>
        <time>2022-08-11T16:57:25Z</time>
      </trkpt>
      <trkpt lat="44.55295" lon="0.88069">
        <ele>110.9</ele>
        <time>2022-08-11T16:57:27Z</time>
      </trkpt>
      <trkpt lat="44.55292" lon="0.88074">
        <ele>111</ele>
        <time>2022-08-11T16:57:29Z</time>
      </trkpt>
      <trkpt lat="44.55288" lon="0.88079">
        <ele>111.2</ele>
        <time>2022-08-11T16:57:31Z</time>
      </trkpt>
      <trkpt lat="44.55285" lon="0.88085">
        <ele>111.3</ele>
        <time>2022-08-11T16:57:33Z</time>
      </trkpt>
      <trkpt lat="44.55282" lon="0.8809">
        <ele>111.5</ele>
        <time>2022-08-11T16:57:35Z</time>
      </trkpt>
      <trkpt lat="44.55278" lon="0.88095">
        <ele>111.6</ele>
        <time>2022-08-11T16:57:37Z</time>
      </trkpt>
      <trkpt lat="44.55275" lon="0.88099">
        <ele>111.8</ele>
        <time>2022-08-11T16:57:39Z</time>
      </trkpt>
      <trkpt lat="44.55272" lon="0.88103">
        <ele>111.9</ele>
        <time>2022-08-11T16:57:41Z</time>
      </trkpt>
      <trkpt lat="44.5527" lon="0.88107">
        <ele>112</ele>
        <time>2022-08-11T16:57:43Z</time>
      </trkpt>
      <trkpt lat="44.55267" lon="0.8811">
        <ele>112.2</ele>
        <time>2022-08-11T16:57:45Z</time>
      </trkpt>
      <trkpt lat="44.55264" lon="0.88114">
        <ele>112.3</ele>
        <time>2022-08-11T16:57:47Z</time>
      </trkpt>
      <trkpt lat="44.55262" lon="0.88119">
        <ele>112.5</ele>
        <time>2022-08-11T16:57:49Z</time>
      </trkpt>
      <trkpt lat="44.55264" lon="0.88126">
        <ele>113</ele>
        <time>2022-08-11T16:57:51Z</time>
      </trkpt>
      <trkpt lat="44.55269" lon="0.88131">
        <ele>113.4</ele>
        <time>2022-08-11T16:57:53Z</time>
      </trkpt>
      <trkpt lat="44.55274" lon="0.88135">
        <ele>113.8</ele>
        <time>2022-08-11T16:57:55Z</time>
      </trkpt>
      <trkpt lat="44.55278" lon="0.88139">
        <ele>114.2</ele>
        <time>2022-08-11T16:57:57Z</time>
      </trkpt>
      <trkpt lat="44.55283" lon="0.88143">
        <ele>114.5</ele>
        <time>2022-08-11T16:57:59Z</time>
      </trkpt>
      <trkpt lat="44.55287" lon="0.88146">
        <ele>114.7</ele>
        <time>2022-08-11T16:58:01Z</time>
      </trkpt>
      <trkpt lat="44.55291" lon="0.8815">
        <ele>115.1</ele>
        <time>2022-08-11T16:58:03Z</time>
      </trkpt>
      <trkpt lat="44.55296" lon="0.88153">
        <ele>115.4</ele>
        <time>2022-08-11T16:58:05Z</time>
      </trkpt>
      <trkpt lat="44.553" lon="0.88156">
        <ele>115.7</ele>
        <time>2022-08-11T16:58:07Z</time>
      </trkpt>
      <trkpt lat="44.55304" lon="0.8816">
        <ele>115.9</ele>
        <time>2022-08-11T16:58:09Z</time>
      </trkpt>
      <trkpt lat="44.55308" lon="0.88162">
        <ele>116.1</ele>
        <time>2022-08-11T16:58:11Z</time>
      </trkpt>
      <trkpt lat="44.55312" lon="0.88165">
        <ele>116.4</ele>
        <time>2022-08-11T16:58:13Z</time>
      </trkpt>
      <trkpt lat="44.55316" lon="0.88169">
        <ele>116.7</ele>
        <time>2022-08-11T16:58:15Z</time>
      </trkpt>
      <trkpt lat="44.5532" lon="0.88171">
        <ele>117</ele>
        <time>2022-08-11T16:58:17Z</time>
      </trkpt>
      <trkpt lat="44.55324" lon="0.88175">
        <ele>117.3</ele>
        <time>2022-08-11T16:58:19Z</time>
      </trkpt>
      <trkpt lat="44.55327" lon="0.88178">
        <ele>117.6</ele>
        <time>2022-08-11T16:58:21Z</time>
      </trkpt>
      <trkpt lat="44.55332" lon="0.8818">
        <ele>117.8</ele>
        <time>2022-08-11T16:58:23Z</time>
      </trkpt>
      <trkpt lat="44.55336" lon="0.88183">
        <ele>118.2</ele>
        <time>2022-08-11T16:58:25Z</time>
      </trkpt>
      <trkpt lat="44.55339" lon="0.88186">
        <ele>118.6</ele>
        <time>2022-08-11T16:58:27Z</time>
      </trkpt>
      <trkpt lat="44.55342" lon="0.88188">
        <ele>119</ele>
        <time>2022-08-11T16:58:29Z</time>
      </trkpt>
      <trkpt lat="44.55346" lon="0.88191">
        <ele>119.4</ele>
        <time>2022-08-11T16:58:31Z</time>
      </trkpt>
      <trkpt lat="44.5535" lon="0.88194">
        <ele>119.8</ele>
        <time>2022-08-11T16:58:33Z</time>
      </trkpt>
      <trkpt lat="44.55353" lon="0.88197">
        <ele>120.2</ele>
        <time>2022-08-11T16:58:35Z</time>
      </trkpt>
      <trkpt lat="44.55357" lon="0.88199">
        <ele>120.6</ele>
        <time>2022-08-11T16:58:37Z</time>
      </trkpt>
      <trkpt lat="44.5536" lon="0.88203">
        <ele>120.9</ele>
        <time>2022-08-11T16:58:39Z</time>
      </trkpt>
      <trkpt lat="44.55364" lon="0.88206">
        <ele>121.2</ele>
        <time>2022-08-11T16:58:41Z</time>
      </trkpt>
      <trkpt lat="44.55367" lon="0.88209">
        <ele>121.6</ele>
        <time>2022-08-11T16:58:43Z</time>
      </trkpt>
      <trkpt lat="44.55371" lon="0.88212">
        <ele>121.9</ele>
        <time>2022-08-11T16:58:45Z</time>
      </trkpt>
      <trkpt lat="44.55375" lon="0.88215">
        <ele>122.2</ele>
        <time>2022-08-11T16:58:47Z</time>
      </trkpt>
      <trkpt lat="44.55379" lon="0.88218">
        <ele>122.4</ele>
        <time>2022-08-11T16:58:49Z</time>
      </trkpt>
      <trkpt lat="44.55383" lon="0.88221">
        <ele>122.7</ele>
        <time>2022-08-11T16:58:51Z</time>
      </trkpt>
      <trkpt lat="44.55387" lon="0.88225">
        <ele>122.9</ele>
        <time>2022-08-11T16:58:53Z</time>
      </trkpt>
      <trkpt lat="44.55391" lon="0.88229">
        <ele>123.2</ele>
        <time>2022-08-11T16:58:55Z</time>
      </trkpt>
      <trkpt lat="44.55395" lon="0.88233">
        <ele>123.4</ele>
        <time>2022-08-11T16:58:57Z</time>
      </trkpt>
      <trkpt lat="44.554" lon="0.88237">
        <ele>123.6</ele>
        <time>2022-08-11T16:58:59Z</time>
      </trkpt>
      <trkpt lat="44.55405" lon="0.88242">
        <ele>123.7</ele>
        <time>2022-08-11T16:59:01Z</time>
      </trkpt>
      <trkpt lat="44.5541" lon="0.88247">
        <ele>123.9</ele>
        <time>2022-08-11T16:59:03Z</time>
      </trkpt>
      <trkpt lat="44.55416" lon="0.88253">
        <ele>124.1</ele>
        <time>2022-08-11T16:59:05Z</time>
      </trkpt>
      <trkpt lat="44.55421" lon="0.8826">
        <ele>124</ele>
        <time>2022-08-11T16:59:07Z</time>
      </trkpt>
      <trkpt lat="44.55427" lon="0.88267">
        <ele>123.6</ele>
        <time>2022-08-11T16:59:09Z</time>
      </trkpt>
      <trkpt lat="44.55433" lon="0.88274">
        <ele>123.2</ele>
        <time>2022-08-11T16:59:11Z</time>
      </trkpt>
      <trkpt lat="44.55439" lon="0.88282">
        <ele>122.9</ele>
        <time>2022-08-11T16:59:13Z</time>
      </trkpt>
      <trkpt lat="44.55445" lon="0.88291">
        <ele>122.4</ele>
        <time>2022-08-11T16:59:15Z</time>
      </trkpt>
      <trkpt lat="44.55452" lon="0.88301">
        <ele>121.8</ele>
        <time>2022-08-11T16:59:17Z</time>
      </trkpt>
      <trkpt lat="44.55458" lon="0.88311">
        <ele>121.3</ele>
        <time>2022-08-11T16:59:19Z</time>
      </trkpt>
      <trkpt lat="44.55465" lon="0.88321">
        <ele>120.5</ele>
        <time>2022-08-11T16:59:21Z</time>
      </trkpt>
      <trkpt lat="44.55471" lon="0.88333">
        <ele>119.8</ele>
        <time>2022-08-11T16:59:23Z</time>
      </trkpt>
      <trkpt lat="44.55478" lon="0.88345">
        <ele>119.9</ele>
        <time>2022-08-11T16:59:25Z</time>
      </trkpt>
      <trkpt lat="44.55485" lon="0.88357">
        <ele>119.9</ele>
        <time>2022-08-11T16:59:27Z</time>
      </trkpt>
      <trkpt lat="44.55492" lon="0.88369">
        <ele>120.1</ele>
        <time>2022-08-11T16:59:29Z</time>
      </trkpt>
      <trkpt lat="44.55499" lon="0.88382">
        <ele>120.2</ele>
        <time>2022-08-11T16:59:31Z</time>
      </trkpt>
      <trkpt lat="44.55506" lon="0.88395">
        <ele>121.1</ele>
        <time>2022-08-11T16:59:33Z</time>
      </trkpt>
      <trkpt lat="44.55512" lon="0.88408">
        <ele>122.1</ele>
        <time>2022-08-11T16:59:35Z</time>
      </trkpt>
      <trkpt lat="44.55519" lon="0.88422">
        <ele>123.4</ele>
        <time>2022-08-11T16:59:37Z</time>
      </trkpt>
      <trkpt lat="44.55526" lon="0.88436">
        <ele>125.3</ele>
        <time>2022-08-11T16:59:39Z</time>
      </trkpt>
      <trkpt lat="44.55534" lon="0.88452">
        <ele>127</ele>
        <time>2022-08-11T16:59:41Z</time>
      </trkpt>
      <trkpt lat="44.5554" lon="0.88465">
        <ele>128.3</ele>
        <time>2022-08-11T16:59:43Z</time>
      </trkpt>
      <trkpt lat="44.55547" lon="0.8848">
        <ele>129.3</ele>
        <time>2022-08-11T16:59:45Z</time>
      </trkpt>
      <trkpt lat="44.55554" lon="0.88494">
        <ele>130</ele>
        <time>2022-08-11T16:59:47Z</time>
      </trkpt>
      <trkpt lat="44.5556" lon="0.88507">
        <ele>130.6</ele>
        <time>2022-08-11T16:59:49Z</time>
      </trkpt>
      <trkpt lat="44.55567" lon="0.88518">
        <ele>131.2</ele>
        <time>2022-08-11T16:59:51Z</time>
      </trkpt>
      <trkpt lat="44.55574" lon="0.88529">
        <ele>131.7</ele>
        <time>2022-08-11T16:59:53Z</time>
      </trkpt>
      <trkpt lat="44.55581" lon="0.8854">
        <ele>132.5</ele>
        <time>2022-08-11T16:59:55Z</time>
      </trkpt>
      <trkpt lat="44.55589" lon="0.88547">
        <ele>133</ele>
        <time>2022-08-11T16:59:57Z</time>
      </trkpt>
      <trkpt lat="44.55596" lon="0.88553">
        <ele>133.5</ele>
        <time>2022-08-11T16:59:59Z</time>
      </trkpt>
      <trkpt lat="44.55603" lon="0.88558">
        <ele>133.9</ele>
        <time>2022-08-11T17:00:01Z</time>
      </trkpt>
      <trkpt lat="44.55609" lon="0.88561">
        <ele>134.1</ele>
        <time>2022-08-11T17:00:03Z</time>
      </trkpt>
      <trkpt lat="44.55616" lon="0.88565">
        <ele>134.2</ele>
        <time>2022-08-11T17:00:05Z</time>
      </trkpt>
      <trkpt lat="44.55622" lon="0.88566">
        <ele>134.1</ele>
        <time>2022-08-11T17:00:07Z</time>
      </trkpt>
      <trkpt lat="44.55629" lon="0.88567">
        <ele>133.8</ele>
        <time>2022-08-11T17:00:09Z</time>
      </trkpt>
      <trkpt lat="44.55635" lon="0.88567">
        <ele>133.4</ele>
        <time>2022-08-11T17:00:11Z</time>
      </trkpt>
      <trkpt lat="44.55642" lon="0.88565">
        <ele>132.8</ele>
        <time>2022-08-11T17:00:13Z</time>
      </trkpt>
      <trkpt lat="44.55648" lon="0.88563">
        <ele>132.2</ele>
        <time>2022-08-11T17:00:15Z</time>
      </trkpt>
      <trkpt lat="44.55652" lon="0.88561">
        <ele>131.6</ele>
        <time>2022-08-11T17:00:17Z</time>
      </trkpt>
      <trkpt lat="44.55653" lon="0.88561">
        <ele>131.6</ele>
        <time>2022-08-11T17:00:19Z</time>
      </trkpt>
      <trkpt lat="44.55653" lon="0.88561">
        <ele>131.6</ele>
        <time>2022-08-11T17:00:21Z</time>
      </trkpt>
      <trkpt lat="44.55653" lon="0.8856">
        <ele>131.5</ele>
        <time>2022-08-11T17:00:23Z</time>
      </trkpt>
      <trkpt lat="44.55653" lon="0.8856">
        <ele>131.4</ele>
        <time>2022-08-11T17:00:25Z</time>
      </trkpt>
      <trkpt lat="44.55653" lon="0.8856">
        <ele>131.4</ele>
        <time>2022-08-11T17:00:27Z</time>
      </trkpt>
      <trkpt lat="44.55673" lon="0.88535">
        <ele>127.9</ele>
        <time>2022-08-11T17:01:21Z</time>
      </trkpt>
      <trkpt lat="44.5568" lon="0.88532">
        <ele>128.2</ele>
        <time>2022-08-11T17:01:23Z</time>
      </trkpt>
      <trkpt lat="44.55685" lon="0.88531">
        <ele>128.6</ele>
        <time>2022-08-11T17:01:25Z</time>
      </trkpt>
      <trkpt lat="44.55691" lon="0.88525">
        <ele>128.2</ele>
        <time>2022-08-11T17:01:27Z</time>
      </trkpt>
      <trkpt lat="44.55697" lon="0.8852">
        <ele>127.9</ele>
        <time>2022-08-11T17:01:29Z</time>
      </trkpt>
      <trkpt lat="44.55703" lon="0.88516">
        <ele>127.7</ele>
        <time>2022-08-11T17:01:31Z</time>
      </trkpt>
      <trkpt lat="44.55707" lon="0.8851">
        <ele>126.7</ele>
        <time>2022-08-11T17:01:33Z</time>
      </trkpt>
      <trkpt lat="44.55708" lon="0.88508">
        <ele>126.2</ele>
        <time>2022-08-11T17:01:35Z</time>
      </trkpt>
      <trkpt lat="44.55708" lon="0.88504">
        <ele>125.4</ele>
        <time>2022-08-11T17:01:37Z</time>
      </trkpt>
      <trkpt lat="44.55705" lon="0.88497">
        <ele>124.4</ele>
        <time>2022-08-11T17:01:39Z</time>
      </trkpt>
      <trkpt lat="44.55703" lon="0.8849">
        <ele>124.8</ele>
        <time>2022-08-11T17:01:41Z</time>
      </trkpt>
      <trkpt lat="44.55704" lon="0.88483">
        <ele>125.2</ele>
        <time>2022-08-11T17:01:43Z</time>
      </trkpt>
      <trkpt lat="44.55705" lon="0.88477">
        <ele>125.5</ele>
        <time>2022-08-11T17:01:45Z</time>
      </trkpt>
      <trkpt lat="44.55707" lon="0.88472">
        <ele>125.8</ele>
        <time>2022-08-11T17:01:47Z</time>
      </trkpt>
      <trkpt lat="44.55705" lon="0.88469">
        <ele>126</ele>
        <time>2022-08-11T17:01:49Z</time>
      </trkpt>
      <trkpt lat="44.55703" lon="0.88468">
        <ele>126</ele>
        <time>2022-08-11T17:01:51Z</time>
      </trkpt>
      <trkpt lat="44.55699" lon="0.88462">
        <ele>126.4</ele>
        <time>2022-08-11T17:01:53Z</time>
      </trkpt>
      <trkpt lat="44.55696" lon="0.88462">
        <ele>126.4</ele>
        <time>2022-08-11T17:01:55Z</time>
      </trkpt>
      <trkpt lat="44.55693" lon="0.8846">
        <ele>126.5</ele>
        <time>2022-08-11T17:01:57Z</time>
      </trkpt>
      <trkpt lat="44.55731" lon="0.88447">
        <ele>126.3</ele>
        <time>2022-08-11T17:01:59Z</time>
      </trkpt>
      <trkpt lat="44.55734" lon="0.88443">
        <ele>126.2</ele>
        <time>2022-08-11T17:02:01Z</time>
      </trkpt>
      <trkpt lat="44.55736" lon="0.88439">
        <ele>126.2</ele>
        <time>2022-08-11T17:02:03Z</time>
      </trkpt>
      <trkpt lat="44.55739" lon="0.88434">
        <ele>126</ele>
        <time>2022-08-11T17:02:05Z</time>
      </trkpt>
      <trkpt lat="44.55743" lon="0.88433">
        <ele>125.8</ele>
        <time>2022-08-11T17:02:07Z</time>
      </trkpt>
      <trkpt lat="44.55746" lon="0.88429">
        <ele>125.5</ele>
        <time>2022-08-11T17:02:09Z</time>
      </trkpt>
      <trkpt lat="44.5575" lon="0.88425">
        <ele>125.2</ele>
        <time>2022-08-11T17:02:11Z</time>
      </trkpt>
      <trkpt lat="44.55753" lon="0.88421">
        <ele>125</ele>
        <time>2022-08-11T17:02:13Z</time>
      </trkpt>
      <trkpt lat="44.55756" lon="0.88416">
        <ele>124.8</ele>
        <time>2022-08-11T17:02:15Z</time>
      </trkpt>
      <trkpt lat="44.55759" lon="0.88411">
        <ele>125.5</ele>
        <time>2022-08-11T17:02:17Z</time>
      </trkpt>
      <trkpt lat="44.55762" lon="0.88409">
        <ele>125.6</ele>
        <time>2022-08-11T17:02:19Z</time>
      </trkpt>
      <trkpt lat="44.55767" lon="0.88406">
        <ele>125.9</ele>
        <time>2022-08-11T17:02:21Z</time>
      </trkpt>
      <trkpt lat="44.5577" lon="0.88401">
        <ele>126.5</ele>
        <time>2022-08-11T17:02:23Z</time>
      </trkpt>
      <trkpt lat="44.55773" lon="0.88399">
        <ele>126.5</ele>
        <time>2022-08-11T17:02:25Z</time>
      </trkpt>
      <trkpt lat="44.55777" lon="0.88395">
        <ele>126.8</ele>
        <time>2022-08-11T17:02:27Z</time>
      </trkpt>
      <trkpt lat="44.55777" lon="0.88393">
        <ele>127.1</ele>
        <time>2022-08-11T17:02:29Z</time>
      </trkpt>
      <trkpt lat="44.55777" lon="0.88393">
        <ele>127.1</ele>
        <time>2022-08-11T17:02:31Z</time>
      </trkpt>
      <trkpt lat="44.55777" lon="0.88392">
        <ele>127.2</ele>
        <time>2022-08-11T17:02:33Z</time>
      </trkpt>
      <trkpt lat="44.55776" lon="0.8839">
        <ele>127.5</ele>
        <time>2022-08-11T17:02:37Z</time>
      </trkpt>
      <trkpt lat="44.55853" lon="0.88362">
        <ele>123.7</ele>
        <time>2022-08-11T17:10:15Z</time>
      </trkpt>
      <trkpt lat="44.5586" lon="0.88362">
        <ele>123.9</ele>
        <time>2022-08-11T17:10:17Z</time>
      </trkpt>
      <trkpt lat="44.55867" lon="0.88362">
        <ele>124.2</ele>
        <time>2022-08-11T17:10:19Z</time>
      </trkpt>
      <trkpt lat="44.55875" lon="0.88365">
        <ele>124.3</ele>
        <time>2022-08-11T17:10:21Z</time>
      </trkpt>
      <trkpt lat="44.55882" lon="0.88367">
        <ele>124.4</ele>
        <time>2022-08-11T17:10:23Z</time>
      </trkpt>
      <trkpt lat="44.55889" lon="0.88372">
        <ele>124.3</ele>
        <time>2022-08-11T17:10:25Z</time>
      </trkpt>
      <trkpt lat="44.55895" lon="0.88378">
        <ele>124.2</ele>
        <time>2022-08-11T17:10:27Z</time>
      </trkpt>
      <trkpt lat="44.559" lon="0.88385">
        <ele>123.9</ele>
        <time>2022-08-11T17:10:29Z</time>
      </trkpt>
      <trkpt lat="44.55906" lon="0.88391">
        <ele>123.6</ele>
        <time>2022-08-11T17:10:31Z</time>
      </trkpt>
      <trkpt lat="44.55912" lon="0.88398">
        <ele>123.3</ele>
        <time>2022-08-11T17:10:33Z</time>
      </trkpt>
      <trkpt lat="44.55917" lon="0.88405">
        <ele>123</ele>
        <time>2022-08-11T17:10:35Z</time>
      </trkpt>
      <trkpt lat="44.55923" lon="0.88412">
        <ele>123.3</ele>
        <time>2022-08-11T17:10:37Z</time>
      </trkpt>
      <trkpt lat="44.55927" lon="0.8842">
        <ele>124</ele>
        <time>2022-08-11T17:10:39Z</time>
      </trkpt>
      <trkpt lat="44.55933" lon="0.88427">
        <ele>125.4</ele>
        <time>2022-08-11T17:10:41Z</time>
      </trkpt>
      <trkpt lat="44.55939" lon="0.88434">
        <ele>126.6</ele>
        <time>2022-08-11T17:10:43Z</time>
      </trkpt>
      <trkpt lat="44.55945" lon="0.88442">
        <ele>127.6</ele>
        <time>2022-08-11T17:10:45Z</time>
      </trkpt>
      <trkpt lat="44.5595" lon="0.8845">
        <ele>128.3</ele>
        <time>2022-08-11T17:10:47Z</time>
      </trkpt>
      <trkpt lat="44.55955" lon="0.88458">
        <ele>128.8</ele>
        <time>2022-08-11T17:10:49Z</time>
      </trkpt>
      <trkpt lat="44.55961" lon="0.88466">
        <ele>129.2</ele>
        <time>2022-08-11T17:10:51Z</time>
      </trkpt>
      <trkpt lat="44.55966" lon="0.88475">
        <ele>129.2</ele>
        <time>2022-08-11T17:10:53Z</time>
      </trkpt>
      <trkpt lat="44.55971" lon="0.88483">
        <ele>129.1</ele>
        <time>2022-08-11T17:10:55Z</time>
      </trkpt>
      <trkpt lat="44.55976" lon="0.88492">
        <ele>128.7</ele>
        <time>2022-08-11T17:10:57Z</time>
      </trkpt>
      <trkpt lat="44.55981" lon="0.88501">
        <ele>128.2</ele>
        <time>2022-08-11T17:10:59Z</time>
      </trkpt>
      <trkpt lat="44.55985" lon="0.88509">
        <ele>128.5</ele>
        <time>2022-08-11T17:11:01Z</time>
      </trkpt>
      <trkpt lat="44.55991" lon="0.88518">
        <ele>128.6</ele>
        <time>2022-08-11T17:11:03Z</time>
      </trkpt>
      <trkpt lat="44.55995" lon="0.88527">
        <ele>128.6</ele>
        <time>2022-08-11T17:11:05Z</time>
      </trkpt>
      <trkpt lat="44.55999" lon="0.88536">
        <ele>128.4</ele>
        <time>2022-08-11T17:11:07Z</time>
      </trkpt>
      <trkpt lat="44.56004" lon="0.88545">
        <ele>129.3</ele>
        <time>2022-08-11T17:11:09Z</time>
      </trkpt>
      <trkpt lat="44.56008" lon="0.88554">
        <ele>130</ele>
        <time>2022-08-11T17:11:11Z</time>
      </trkpt>
      <trkpt lat="44.56012" lon="0.88563">
        <ele>130.4</ele>
        <time>2022-08-11T17:11:13Z</time>
      </trkpt>
      <trkpt lat="44.56013" lon="0.88569">
        <ele>130.5</ele>
        <time>2022-08-11T17:11:15Z</time>
      </trkpt>
      <trkpt lat="44.56012" lon="0.88573">
        <ele>130.5</ele>
        <time>2022-08-11T17:11:17Z</time>
      </trkpt>
      <trkpt lat="44.56013" lon="0.88576">
        <ele>130.5</ele>
        <time>2022-08-11T17:11:19Z</time>
      </trkpt>
      <trkpt lat="44.56014" lon="0.88578">
        <ele>130.5</ele>
        <time>2022-08-11T17:11:21Z</time>
      </trkpt>
      <trkpt lat="44.56013" lon="0.88578">
        <ele>130.5</ele>
        <time>2022-08-11T17:11:23Z</time>
      </trkpt>
      <trkpt lat="44.56013" lon="0.88578">
        <ele>130.5</ele>
        <time>2022-08-11T17:11:25Z</time>
      </trkpt>
      <trkpt lat="44.56013" lon="0.88578">
        <ele>130.5</ele>
        <time>2022-08-11T17:11:27Z</time>
      </trkpt>
      <trkpt lat="44.56015" lon="0.88597">
        <ele>129.9</ele>
        <time>2022-08-11T17:12:41Z</time>
      </trkpt>
      <trkpt lat="44.56014" lon="0.88601">
        <ele>129.8</ele>
        <time>2022-08-11T17:12:43Z</time>
      </trkpt>
      <trkpt lat="44.56014" lon="0.88607">
        <ele>129.5</ele>
        <time>2022-08-11T17:12:45Z</time>
      </trkpt>
      <trkpt lat="44.56014" lon="0.88613">
        <ele>129.3</ele>
        <time>2022-08-11T17:12:47Z</time>
      </trkpt>
      <trkpt lat="44.56014" lon="0.88619">
        <ele>129</ele>
        <time>2022-08-11T17:12:49Z</time>
      </trkpt>
      <trkpt lat="44.56014" lon="0.88625">
        <ele>128.8</ele>
        <time>2022-08-11T17:12:51Z</time>
      </trkpt>
      <trkpt lat="44.56013" lon="0.88631">
        <ele>128.5</ele>
        <time>2022-08-11T17:12:53Z</time>
      </trkpt>
      <trkpt lat="44.56013" lon="0.88637">
        <ele>128.3</ele>
        <time>2022-08-11T17:12:55Z</time>
      </trkpt>
      <trkpt lat="44.56012" lon="0.88642">
        <ele>128.1</ele>
        <time>2022-08-11T17:12:57Z</time>
      </trkpt>
      <trkpt lat="44.56012" lon="0.88648">
        <ele>127.9</ele>
        <time>2022-08-11T17:12:59Z</time>
      </trkpt>
      <trkpt lat="44.56012" lon="0.88653">
        <ele>127.6</ele>
        <time>2022-08-11T17:13:01Z</time>
      </trkpt>
      <trkpt lat="44.56013" lon="0.88659">
        <ele>127.4</ele>
        <time>2022-08-11T17:13:03Z</time>
      </trkpt>
      <trkpt lat="44.56012" lon="0.88664">
        <ele>127.2</ele>
        <time>2022-08-11T17:13:05Z</time>
      </trkpt>
      <trkpt lat="44.56011" lon="0.8867">
        <ele>127.3</ele>
        <time>2022-08-11T17:13:07Z</time>
      </trkpt>
      <trkpt lat="44.5601" lon="0.88676">
        <ele>127.6</ele>
        <time>2022-08-11T17:13:09Z</time>
      </trkpt>
      <trkpt lat="44.56008" lon="0.88681">
        <ele>127.9</ele>
        <time>2022-08-11T17:13:11Z</time>
      </trkpt>
      <trkpt lat="44.56006" lon="0.88686">
        <ele>128.3</ele>
        <time>2022-08-11T17:13:13Z</time>
      </trkpt>
      <trkpt lat="44.56004" lon="0.88692">
        <ele>128.6</ele>
        <time>2022-08-11T17:13:15Z</time>
      </trkpt>
      <trkpt lat="44.56002" lon="0.88697">
        <ele>128.9</ele>
        <time>2022-08-11T17:13:17Z</time>
      </trkpt>
      <trkpt lat="44.55999" lon="0.88702">
        <ele>129.9</ele>
        <time>2022-08-11T17:13:19Z</time>
      </trkpt>
      <trkpt lat="44.55996" lon="0.88707">
        <ele>131.3</ele>
        <time>2022-08-11T17:13:21Z</time>
      </trkpt>
      <trkpt lat="44.55994" lon="0.88711">
        <ele>132.3</ele>
        <time>2022-08-11T17:13:23Z</time>
      </trkpt>
      <trkpt lat="44.55992" lon="0.88716">
        <ele>133.7</ele>
        <time>2022-08-11T17:13:25Z</time>
      </trkpt>
      <trkpt lat="44.55989" lon="0.8872">
        <ele>135.1</ele>
        <time>2022-08-11T17:13:27Z</time>
      </trkpt>
      <trkpt lat="44.55987" lon="0.88724">
        <ele>136.2</ele>
        <time>2022-08-11T17:13:29Z</time>
      </trkpt>
      <trkpt lat="44.55985" lon="0.88729">
        <ele>137.1</ele>
        <time>2022-08-11T17:13:31Z</time>
      </trkpt>
      <trkpt lat="44.55983" lon="0.88733">
        <ele>138.2</ele>
        <time>2022-08-11T17:13:33Z</time>
      </trkpt>
      <trkpt lat="44.55981" lon="0.88737">
        <ele>139.6</ele>
        <time>2022-08-11T17:13:35Z</time>
      </trkpt>
      <trkpt lat="44.55979" lon="0.88743">
        <ele>140.7</ele>
        <time>2022-08-11T17:13:37Z</time>
      </trkpt>
      <trkpt lat="44.55978" lon="0.88748">
        <ele>141.4</ele>
        <time>2022-08-11T17:13:39Z</time>
      </trkpt>
      <trkpt lat="44.55976" lon="0.88753">
        <ele>142.7</ele>
        <time>2022-08-11T17:13:41Z</time>
      </trkpt>
      <trkpt lat="44.55975" lon="0.88758">
        <ele>143.9</ele>
        <time>2022-08-11T17:13:43Z</time>
      </trkpt>
      <trkpt lat="44.55975" lon="0.88763">
        <ele>144.6</ele>
        <time>2022-08-11T17:13:45Z</time>
      </trkpt>
      <trkpt lat="44.55975" lon="0.88767">
        <ele>145.4</ele>
        <time>2022-08-11T17:13:47Z</time>
      </trkpt>
      <trkpt lat="44.55976" lon="0.88771">
        <ele>145.8</ele>
        <time>2022-08-11T17:13:49Z</time>
      </trkpt>
      <trkpt lat="44.55976" lon="0.88775">
        <ele>146.2</ele>
        <time>2022-08-11T17:13:51Z</time>
      </trkpt>
      <trkpt lat="44.55976" lon="0.88779">
        <ele>146.8</ele>
        <time>2022-08-11T17:13:53Z</time>
      </trkpt>
      <trkpt lat="44.55977" lon="0.88784">
        <ele>147.3</ele>
        <time>2022-08-11T17:13:55Z</time>
      </trkpt>
      <trkpt lat="44.55977" lon="0.88788">
        <ele>147.7</ele>
        <time>2022-08-11T17:13:57Z</time>
      </trkpt>
      <trkpt lat="44.55977" lon="0.88792">
        <ele>148.4</ele>
        <time>2022-08-11T17:13:59Z</time>
      </trkpt>
      <trkpt lat="44.55979" lon="0.88796">
        <ele>148.3</ele>
        <time>2022-08-11T17:14:01Z</time>
      </trkpt>
      <trkpt lat="44.55981" lon="0.888">
        <ele>148.2</ele>
        <time>2022-08-11T17:14:03Z</time>
      </trkpt>
      <trkpt lat="44.55981" lon="0.88804">
        <ele>148.7</ele>
        <time>2022-08-11T17:14:05Z</time>
      </trkpt>
      <trkpt lat="44.55981" lon="0.88807">
        <ele>149.3</ele>
        <time>2022-08-11T17:14:07Z</time>
      </trkpt>
      <trkpt lat="44.55983" lon="0.88811">
        <ele>149.3</ele>
        <time>2022-08-11T17:14:09Z</time>
      </trkpt>
      <trkpt lat="44.55984" lon="0.88815">
        <ele>149.5</ele>
        <time>2022-08-11T17:14:11Z</time>
      </trkpt>
      <trkpt lat="44.55985" lon="0.88818">
        <ele>149.4</ele>
        <time>2022-08-11T17:14:13Z</time>
      </trkpt>
      <trkpt lat="44.55986" lon="0.88821">
        <ele>149.6</ele>
        <time>2022-08-11T17:14:15Z</time>
      </trkpt>
      <trkpt lat="44.55987" lon="0.88824">
        <ele>149.9</ele>
        <time>2022-08-11T17:14:17Z</time>
      </trkpt>
      <trkpt lat="44.55989" lon="0.88828">
        <ele>150</ele>
        <time>2022-08-11T17:14:19Z</time>
      </trkpt>
      <trkpt lat="44.5599" lon="0.88832">
        <ele>150.2</ele>
        <time>2022-08-11T17:14:21Z</time>
      </trkpt>
      <trkpt lat="44.55992" lon="0.88835">
        <ele>150.2</ele>
        <time>2022-08-11T17:14:23Z</time>
      </trkpt>
      <trkpt lat="44.55993" lon="0.88838">
        <ele>150.4</ele>
        <time>2022-08-11T17:14:25Z</time>
      </trkpt>
      <trkpt lat="44.55993" lon="0.88841">
        <ele>150.7</ele>
        <time>2022-08-11T17:14:27Z</time>
      </trkpt>
      <trkpt lat="44.55994" lon="0.88844">
        <ele>150.9</ele>
        <time>2022-08-11T17:14:29Z</time>
      </trkpt>
      <trkpt lat="44.55995" lon="0.88847">
        <ele>151.1</ele>
        <time>2022-08-11T17:14:31Z</time>
      </trkpt>
      <trkpt lat="44.55996" lon="0.8885">
        <ele>151.5</ele>
        <time>2022-08-11T17:14:33Z</time>
      </trkpt>
      <trkpt lat="44.55998" lon="0.88853">
        <ele>151.4</ele>
        <time>2022-08-11T17:14:35Z</time>
      </trkpt>
      <trkpt lat="44.56" lon="0.88855">
        <ele>151.1</ele>
        <time>2022-08-11T17:14:37Z</time>
      </trkpt>
      <trkpt lat="44.56002" lon="0.88857">
        <ele>151.4</ele>
        <time>2022-08-11T17:14:39Z</time>
      </trkpt>
      <trkpt lat="44.56005" lon="0.88859">
        <ele>151.5</ele>
        <time>2022-08-11T17:14:41Z</time>
      </trkpt>
      <trkpt lat="44.56008" lon="0.8886">
        <ele>151.4</ele>
        <time>2022-08-11T17:14:43Z</time>
      </trkpt>
      <trkpt lat="44.56008" lon="0.88861">
        <ele>151.7</ele>
        <time>2022-08-11T17:14:45Z</time>
      </trkpt>
      <trkpt lat="44.56008" lon="0.8886">
        <ele>151.5</ele>
        <time>2022-08-11T17:14:47Z</time>
      </trkpt>
      <trkpt lat="44.56009" lon="0.88859">
        <ele>151.3</ele>
        <time>2022-08-11T17:14:49Z</time>
      </trkpt>
      <trkpt lat="44.56008" lon="0.88859">
        <ele>151.2</ele>
        <time>2022-08-11T17:14:51Z</time>
      </trkpt>
      <trkpt lat="44.56014" lon="0.88867">
        <ele>152.3</ele>
        <time>2022-08-11T17:15:07Z</time>
      </trkpt>
      <trkpt lat="44.56015" lon="0.88871">
        <ele>152.8</ele>
        <time>2022-08-11T17:15:09Z</time>
      </trkpt>
      <trkpt lat="44.56017" lon="0.88874">
        <ele>153.3</ele>
        <time>2022-08-11T17:15:11Z</time>
      </trkpt>
      <trkpt lat="44.56019" lon="0.88878">
        <ele>153.7</ele>
        <time>2022-08-11T17:15:13Z</time>
      </trkpt>
      <trkpt lat="44.56022" lon="0.8888">
        <ele>153.9</ele>
        <time>2022-08-11T17:15:15Z</time>
      </trkpt>
      <trkpt lat="44.56024" lon="0.88883">
        <ele>154.2</ele>
        <time>2022-08-11T17:15:17Z</time>
      </trkpt>
      <trkpt lat="44.56026" lon="0.88886">
        <ele>154.5</ele>
        <time>2022-08-11T17:15:19Z</time>
      </trkpt>
      <trkpt lat="44.56028" lon="0.88889">
        <ele>154.9</ele>
        <time>2022-08-11T17:15:21Z</time>
      </trkpt>
      <trkpt lat="44.56031" lon="0.88891">
        <ele>155</ele>
        <time>2022-08-11T17:15:23Z</time>
      </trkpt>
      <trkpt lat="44.56034" lon="0.88893">
        <ele>155</ele>
        <time>2022-08-11T17:15:25Z</time>
      </trkpt>
      <trkpt lat="44.56037" lon="0.88894">
        <ele>154.9</ele>
        <time>2022-08-11T17:15:27Z</time>
      </trkpt>
      <trkpt lat="44.5604" lon="0.88896">
        <ele>154.9</ele>
        <time>2022-08-11T17:15:29Z</time>
      </trkpt>
      <trkpt lat="44.56041" lon="0.88898">
        <ele>154.9</ele>
        <time>2022-08-11T17:15:31Z</time>
      </trkpt>
      <trkpt lat="44.56044" lon="0.889">
        <ele>155</ele>
        <time>2022-08-11T17:15:33Z</time>
      </trkpt>
      <trkpt lat="44.56047" lon="0.88902">
        <ele>155</ele>
        <time>2022-08-11T17:15:35Z</time>
      </trkpt>
      <trkpt lat="44.56049" lon="0.88903">
        <ele>155</ele>
        <time>2022-08-11T17:15:37Z</time>
      </trkpt>
      <trkpt lat="44.56051" lon="0.88905">
        <ele>155.1</ele>
        <time>2022-08-11T17:15:39Z</time>
      </trkpt>
      <trkpt lat="44.56053" lon="0.88908">
        <ele>155.3</ele>
        <time>2022-08-11T17:15:41Z</time>
      </trkpt>
      <trkpt lat="44.56055" lon="0.88908">
        <ele>155.1</ele>
        <time>2022-08-11T17:15:43Z</time>
      </trkpt>
      <trkpt lat="44.56056" lon="0.8891">
        <ele>155.3</ele>
        <time>2022-08-11T17:15:45Z</time>
      </trkpt>
      <trkpt lat="44.56059" lon="0.88911">
        <ele>155.1</ele>
        <time>2022-08-11T17:15:47Z</time>
      </trkpt>
      <trkpt lat="44.56062" lon="0.88913">
        <ele>155</ele>
        <time>2022-08-11T17:15:49Z</time>
      </trkpt>
      <trkpt lat="44.56065" lon="0.88914">
        <ele>154.8</ele>
        <time>2022-08-11T17:15:51Z</time>
      </trkpt>
      <trkpt lat="44.56068" lon="0.88916">
        <ele>154.7</ele>
        <time>2022-08-11T17:15:53Z</time>
      </trkpt>
      <trkpt lat="44.5607" lon="0.88916">
        <ele>154.5</ele>
        <time>2022-08-11T17:15:55Z</time>
      </trkpt>
      <trkpt lat="44.56072" lon="0.88919">
        <ele>154.9</ele>
        <time>2022-08-11T17:15:57Z</time>
      </trkpt>
      <trkpt lat="44.56074" lon="0.8892">
        <ele>154.8</ele>
        <time>2022-08-11T17:15:59Z</time>
      </trkpt>
      <trkpt lat="44.56076" lon="0.88917">
        <ele>153.9</ele>
        <time>2022-08-11T17:16:01Z</time>
      </trkpt>
      <trkpt lat="44.56078" lon="0.88916">
        <ele>153.6</ele>
        <time>2022-08-11T17:16:03Z</time>
      </trkpt>
      <trkpt lat="44.5608" lon="0.8892">
        <ele>154.1</ele>
        <time>2022-08-11T17:16:05Z</time>
      </trkpt>
      <trkpt lat="44.56079" lon="0.88926">
        <ele>155.4</ele>
        <time>2022-08-11T17:16:07Z</time>
      </trkpt>
      <trkpt lat="44.56076" lon="0.88927">
        <ele>156</ele>
        <time>2022-08-11T17:16:09Z</time>
      </trkpt>
      <trkpt lat="44.56073" lon="0.88927">
        <ele>156.3</ele>
        <time>2022-08-11T17:16:11Z</time>
      </trkpt>
      <trkpt lat="44.56072" lon="0.88926">
        <ele>156.2</ele>
        <time>2022-08-11T17:16:13Z</time>
      </trkpt>
      <trkpt lat="44.56071" lon="0.88926">
        <ele>156.2</ele>
        <time>2022-08-11T17:16:15Z</time>
      </trkpt>
      <trkpt lat="44.56082" lon="0.88909">
        <ele>152.2</ele>
        <time>2022-08-11T17:18:55Z</time>
      </trkpt>
      <trkpt lat="44.56085" lon="0.88911">
        <ele>152.3</ele>
        <time>2022-08-11T17:18:57Z</time>
      </trkpt>
      <trkpt lat="44.5609" lon="0.88912">
        <ele>152.8</ele>
        <time>2022-08-11T17:18:59Z</time>
      </trkpt>
      <trkpt lat="44.56092" lon="0.88911">
        <ele>152.7</ele>
        <time>2022-08-11T17:19:01Z</time>
      </trkpt>
      <trkpt lat="44.56095" lon="0.8891">
        <ele>152.7</ele>
        <time>2022-08-11T17:19:03Z</time>
      </trkpt>
      <trkpt lat="44.56098" lon="0.8891">
        <ele>152.9</ele>
        <time>2022-08-11T17:19:05Z</time>
      </trkpt>
      <trkpt lat="44.56101" lon="0.88915">
        <ele>153.8</ele>
        <time>2022-08-11T17:19:07Z</time>
      </trkpt>
      <trkpt lat="44.56103" lon="0.8892">
        <ele>154.8</ele>
        <time>2022-08-11T17:19:09Z</time>
      </trkpt>
      <trkpt lat="44.56107" lon="0.88924">
        <ele>155.6</ele>
        <time>2022-08-11T17:19:11Z</time>
      </trkpt>
      <trkpt lat="44.5611" lon="0.88928">
        <ele>156.4</ele>
        <time>2022-08-11T17:19:13Z</time>
      </trkpt>
      <trkpt lat="44.56114" lon="0.88932">
        <ele>157.1</ele>
        <time>2022-08-11T17:19:15Z</time>
      </trkpt>
      <trkpt lat="44.56115" lon="0.88932">
        <ele>157.2</ele>
        <time>2022-08-11T17:19:17Z</time>
      </trkpt>
      <trkpt lat="44.56115" lon="0.88932">
        <ele>157.1</ele>
        <time>2022-08-11T17:19:19Z</time>
      </trkpt>
      <trkpt lat="44.56115" lon="0.88933">
        <ele>157.2</ele>
        <time>2022-08-11T17:19:21Z</time>
      </trkpt>
      <trkpt lat="44.56115" lon="0.88934">
        <ele>157.3</ele>
        <time>2022-08-11T17:19:23Z</time>
      </trkpt>
      <trkpt lat="44.56115" lon="0.88934">
        <ele>157.4</ele>
        <time>2022-08-11T17:19:25Z</time>
      </trkpt>
      <trkpt lat="44.56126" lon="0.88944">
        <ele>159</ele>
        <time>2022-08-11T17:19:39Z</time>
      </trkpt>
      <trkpt lat="44.56129" lon="0.88946">
        <ele>159.3</ele>
        <time>2022-08-11T17:19:41Z</time>
      </trkpt>
      <trkpt lat="44.56132" lon="0.88949">
        <ele>159.5</ele>
        <time>2022-08-11T17:19:43Z</time>
      </trkpt>
      <trkpt lat="44.56135" lon="0.8895">
        <ele>159.7</ele>
        <time>2022-08-11T17:19:45Z</time>
      </trkpt>
      <trkpt lat="44.56138" lon="0.88953">
        <ele>160</ele>
        <time>2022-08-11T17:19:47Z</time>
      </trkpt>
      <trkpt lat="44.56141" lon="0.88956">
        <ele>160.2</ele>
        <time>2022-08-11T17:19:49Z</time>
      </trkpt>
      <trkpt lat="44.56143" lon="0.88959">
        <ele>160.4</ele>
        <time>2022-08-11T17:19:51Z</time>
      </trkpt>
      <trkpt lat="44.56146" lon="0.8896">
        <ele>160.5</ele>
        <time>2022-08-11T17:19:53Z</time>
      </trkpt>
      <trkpt lat="44.56148" lon="0.88962">
        <ele>160.6</ele>
        <time>2022-08-11T17:19:55Z</time>
      </trkpt>
      <trkpt lat="44.56151" lon="0.88966">
        <ele>160.8</ele>
        <time>2022-08-11T17:19:57Z</time>
      </trkpt>
      <trkpt lat="44.56154" lon="0.88967">
        <ele>160.9</ele>
        <time>2022-08-11T17:19:59Z</time>
      </trkpt>
      <trkpt lat="44.56156" lon="0.88969">
        <ele>160.9</ele>
        <time>2022-08-11T17:20:01Z</time>
      </trkpt>
      <trkpt lat="44.56158" lon="0.88973">
        <ele>161.1</ele>
        <time>2022-08-11T17:20:03Z</time>
      </trkpt>
      <trkpt lat="44.5616" lon="0.88977">
        <ele>161.3</ele>
        <time>2022-08-11T17:20:05Z</time>
      </trkpt>
      <trkpt lat="44.56161" lon="0.8898">
        <ele>161.4</ele>
        <time>2022-08-11T17:20:07Z</time>
      </trkpt>
      <trkpt lat="44.56161" lon="0.88986">
        <ele>161.8</ele>
        <time>2022-08-11T17:20:09Z</time>
      </trkpt>
      <trkpt lat="44.56162" lon="0.88991">
        <ele>162</ele>
        <time>2022-08-11T17:20:11Z</time>
      </trkpt>
      <trkpt lat="44.56163" lon="0.88995">
        <ele>162.1</ele>
        <time>2022-08-11T17:20:13Z</time>
      </trkpt>
      <trkpt lat="44.56165" lon="0.88998">
        <ele>162</ele>
        <time>2022-08-11T17:20:15Z</time>
      </trkpt>
      <trkpt lat="44.56168" lon="0.89002">
        <ele>162.3</ele>
        <time>2022-08-11T17:20:17Z</time>
      </trkpt>
      <trkpt lat="44.56171" lon="0.89004">
        <ele>162.9</ele>
        <time>2022-08-11T17:20:19Z</time>
      </trkpt>
      <trkpt lat="44.56172" lon="0.89006">
        <ele>163.2</ele>
        <time>2022-08-11T17:20:21Z</time>
      </trkpt>
      <trkpt lat="44.56174" lon="0.89008">
        <ele>163.6</ele>
        <time>2022-08-11T17:20:23Z</time>
      </trkpt>
      <trkpt lat="44.56175" lon="0.89011">
        <ele>163.9</ele>
        <time>2022-08-11T17:20:25Z</time>
      </trkpt>
      <trkpt lat="44.56175" lon="0.89014">
        <ele>164</ele>
        <time>2022-08-11T17:20:27Z</time>
      </trkpt>
      <trkpt lat="44.56174" lon="0.89014">
        <ele>163.9</ele>
        <time>2022-08-11T17:20:29Z</time>
      </trkpt>
      <trkpt lat="44.56175" lon="0.89015">
        <ele>164</ele>
        <time>2022-08-11T17:20:31Z</time>
      </trkpt>
      <trkpt lat="44.56174" lon="0.89016">
        <ele>163.9</ele>
        <time>2022-08-11T17:20:33Z</time>
      </trkpt>
      <trkpt lat="44.56163" lon="0.89021">
        <ele>163.7</ele>
        <time>2022-08-11T17:35:10Z</time>
      </trkpt>
      <trkpt lat="44.56162" lon="0.89021">
        <ele>163.8</ele>
        <time>2022-08-11T17:35:12Z</time>
      </trkpt>
    </trkseg>
      <trkpt lat="44.56232" lon="0.88741">
        <ele>121.0572776</ele>
        <time>2022-08-12T06:09:36Z</time>
      </trkpt>
      <trkpt lat="44.56226" lon="0.88737">
        <ele>120.1079978</ele>
        <time>2022-08-12T06:09:37Z</time>
      </trkpt>
      <trkpt lat="44.56226" lon="0.88735">
        <ele>121.4605979</ele>
        <time>2022-08-12T06:09:39Z</time>
      </trkpt>
      <trkpt lat="44.56226" lon="0.88736">
        <ele>120.9435691</ele>
        <time>2022-08-12T06:09:41Z</time>
      </trkpt>
      <trkpt lat="44.56224" lon="0.88736">
        <ele>121.2699851</ele>
        <time>2022-08-12T06:09:43Z</time>
      </trkpt>
      <trkpt lat="44.56225" lon="0.88737">
        <ele>121.4253196</ele>
        <time>2022-08-12T06:09:45Z</time>
      </trkpt>
      <trkpt lat="44.56225" lon="0.88737">
        <ele>121.9669456</ele>
        <time>2022-08-12T06:09:47Z</time>
      </trkpt>
      <trkpt lat="44.56225" lon="0.88737">
        <ele>123.0996971</ele>
        <time>2022-08-12T06:09:49Z</time>
      </trkpt>
      <trkpt lat="44.56225" lon="0.88738">
        <ele>122.8266258</ele>
        <time>2022-08-12T06:09:51Z</time>
      </trkpt>
      <trkpt lat="44.56226" lon="0.88738">
        <ele>123.1342431</ele>
        <time>2022-08-12T06:09:53Z</time>
      </trkpt>
      <trkpt lat="44.56231" lon="0.88742">
        <ele>122.0862085</ele>
        <time>2022-08-12T06:09:55Z</time>
      </trkpt>
      <trkpt lat="44.56236" lon="0.88744">
        <ele>121.7474029</ele>
        <time>2022-08-12T06:09:57Z</time>
      </trkpt>
      <trkpt lat="44.56241" lon="0.88742">
        <ele>121.3024565</ele>
        <time>2022-08-12T06:09:59Z</time>
      </trkpt>
      <trkpt lat="44.56247" lon="0.88743">
        <ele>120.6290558</ele>
        <time>2022-08-12T06:10:01Z</time>
      </trkpt>
      <trkpt lat="44.56251" lon="0.88742">
        <ele>120.2015653</ele>
        <time>2022-08-12T06:10:03Z</time>
      </trkpt>
      <trkpt lat="44.56254" lon="0.88742">
        <ele>119.5346339</ele>
        <time>2022-08-12T06:10:05Z</time>
      </trkpt>
      <trkpt lat="44.56256" lon="0.88742">
        <ele>119.7009158</ele>
        <time>2022-08-12T06:10:07Z</time>
      </trkpt>
      <trkpt lat="44.56256" lon="0.8874">
        <ele>119.8299591</ele>
        <time>2022-08-12T06:10:09Z</time>
      </trkpt>
      <trkpt lat="44.56256" lon="0.88741">
        <ele>119.8465178</ele>
        <time>2022-08-12T06:10:11Z</time>
      </trkpt>
      <trkpt lat="44.56256" lon="0.88742">
        <ele>119.9168615</ele>
        <time>2022-08-12T06:10:13Z</time>
      </trkpt>
      <trkpt lat="44.56256" lon="0.88741">
        <ele>119.8474093</ele>
        <time>2022-08-12T06:10:15Z</time>
      </trkpt>
      <trkpt lat="44.56256" lon="0.88739">
        <ele>119.8096946</ele>
        <time>2022-08-12T06:10:17Z</time>
      </trkpt>
      <trkpt lat="44.56256" lon="0.88739">
        <ele>119.953912</ele>
        <time>2022-08-12T06:10:19Z</time>
      </trkpt>
      <trkpt lat="44.56255" lon="0.88738">
        <ele>119.7915535</ele>
        <time>2022-08-12T06:10:21Z</time>
      </trkpt>
      <trkpt lat="44.56255" lon="0.88734">
        <ele>119.7377602</ele>
        <time>2022-08-12T06:10:25Z</time>
      </trkpt>
      <trkpt lat="44.56256" lon="0.88734">
        <ele>119.5057301</ele>
        <time>2022-08-12T06:10:27Z</time>
      </trkpt>
      <trkpt lat="44.5626" lon="0.88733">
        <ele>119.5639708</ele>
        <time>2022-08-12T06:10:29Z</time>
      </trkpt>
      <trkpt lat="44.56267" lon="0.88737">
        <ele>119.2678139</ele>
        <time>2022-08-12T06:10:31Z</time>
      </trkpt>
      <trkpt lat="44.56274" lon="0.88737">
        <ele>119.4308599</ele>
        <time>2022-08-12T06:10:33Z</time>
      </trkpt>
      <trkpt lat="44.56281" lon="0.88738">
        <ele>119.8100756</ele>
        <time>2022-08-12T06:10:35Z</time>
      </trkpt>
      <trkpt lat="44.56287" lon="0.8874">
        <ele>119.8383895</ele>
        <time>2022-08-12T06:10:37Z</time>
      </trkpt>
      <trkpt lat="44.56292" lon="0.8874">
        <ele>119.880488</ele>
        <time>2022-08-12T06:10:39Z</time>
      </trkpt>
      <trkpt lat="44.56297" lon="0.88743">
        <ele>120.4807128</ele>
        <time>2022-08-12T06:10:41Z</time>
      </trkpt>
      <trkpt lat="44.56301" lon="0.88744">
        <ele>120.5859641</ele>
        <time>2022-08-12T06:10:43Z</time>
      </trkpt>
      <trkpt lat="44.56305" lon="0.88745">
        <ele>120.7387993</ele>
        <time>2022-08-12T06:10:45Z</time>
      </trkpt>
      <trkpt lat="44.56309" lon="0.88745">
        <ele>121.1571607</ele>
        <time>2022-08-12T06:10:47Z</time>
      </trkpt>
      <trkpt lat="44.56315" lon="0.88748">
        <ele>121.0628099</ele>
        <time>2022-08-12T06:10:49Z</time>
      </trkpt>
      <trkpt lat="44.56321" lon="0.88749">
        <ele>121.3735276</ele>
        <time>2022-08-12T06:10:51Z</time>
      </trkpt>
      <trkpt lat="44.56327" lon="0.88753">
        <ele>121.384023</ele>
        <time>2022-08-12T06:10:53Z</time>
      </trkpt>
      <trkpt lat="44.56333" lon="0.88755">
        <ele>121.8428575</ele>
        <time>2022-08-12T06:10:55Z</time>
      </trkpt>
      <trkpt lat="44.56338" lon="0.88757">
        <ele>122.3599855</ele>
        <time>2022-08-12T06:10:57Z</time>
      </trkpt>
      <trkpt lat="44.56344" lon="0.88759">
        <ele>122.7654632</ele>
        <time>2022-08-12T06:10:59Z</time>
      </trkpt>
      <trkpt lat="44.56348" lon="0.88761">
        <ele>123.087888</ele>
        <time>2022-08-12T06:11:01Z</time>
      </trkpt>
      <trkpt lat="44.56354" lon="0.88762">
        <ele>123.9698937</ele>
        <time>2022-08-12T06:11:03Z</time>
      </trkpt>
      <trkpt lat="44.56361" lon="0.88763">
        <ele>124.1255124</ele>
        <time>2022-08-12T06:11:05Z</time>
      </trkpt>
      <trkpt lat="44.56366" lon="0.88765">
        <ele>124.3595267</ele>
        <time>2022-08-12T06:11:07Z</time>
      </trkpt>
      <trkpt lat="44.56371" lon="0.88767">
        <ele>124.960977</ele>
        <time>2022-08-12T06:11:09Z</time>
      </trkpt>
      <trkpt lat="44.56378" lon="0.88768">
        <ele>125.0720031</ele>
        <time>2022-08-12T06:11:11Z</time>
      </trkpt>
      <trkpt lat="44.56383" lon="0.88768">
        <ele>125.8312426</ele>
        <time>2022-08-12T06:11:13Z</time>
      </trkpt>
      <trkpt lat="44.56391" lon="0.88765">
        <ele>125.6166717</ele>
        <time>2022-08-12T06:11:15Z</time>
      </trkpt>
      <trkpt lat="44.56399" lon="0.88763">
        <ele>125.6712457</ele>
        <time>2022-08-12T06:11:17Z</time>
      </trkpt>
      <trkpt lat="44.56407" lon="0.88763">
        <ele>125.9356494</ele>
        <time>2022-08-12T06:11:19Z</time>
      </trkpt>
      <trkpt lat="44.56414" lon="0.88758">
        <ele>125.4126828</ele>
        <time>2022-08-12T06:11:21Z</time>
      </trkpt>
      <trkpt lat="44.5642" lon="0.88754">
        <ele>125.002195</ele>
        <time>2022-08-12T06:11:23Z</time>
      </trkpt>
      <trkpt lat="44.56426" lon="0.88747">
        <ele>124.9327856</ele>
        <time>2022-08-12T06:11:25Z</time>
      </trkpt>
      <trkpt lat="44.56433" lon="0.88743">
        <ele>124.4876766</ele>
        <time>2022-08-12T06:11:27Z</time>
      </trkpt>
      <trkpt lat="44.56438" lon="0.88738">
        <ele>123.9007022</ele>
        <time>2022-08-12T06:11:29Z</time>
      </trkpt>
      <trkpt lat="44.56444" lon="0.88734">
        <ele>123.6773966</ele>
        <time>2022-08-12T06:11:31Z</time>
      </trkpt>
      <trkpt lat="44.5645" lon="0.88729">
        <ele>123.3103753</ele>
        <time>2022-08-12T06:11:33Z</time>
      </trkpt>
      <trkpt lat="44.56457" lon="0.88725">
        <ele>123.218392</ele>
        <time>2022-08-12T06:11:35Z</time>
      </trkpt>
      <trkpt lat="44.56463" lon="0.8872">
        <ele>122.9842239</ele>
        <time>2022-08-12T06:11:37Z</time>
      </trkpt>
      <trkpt lat="44.5647" lon="0.88717">
        <ele>122.9462487</ele>
        <time>2022-08-12T06:11:39Z</time>
      </trkpt>
      <trkpt lat="44.56478" lon="0.88713">
        <ele>122.4783416</ele>
        <time>2022-08-12T06:11:41Z</time>
      </trkpt>
      <trkpt lat="44.56485" lon="0.8871">
        <ele>122.6378753</ele>
        <time>2022-08-12T06:11:43Z</time>
      </trkpt>
      <trkpt lat="44.56492" lon="0.88706">
        <ele>122.0888242</ele>
        <time>2022-08-12T06:11:45Z</time>
      </trkpt>
      <trkpt lat="44.56501" lon="0.88706">
        <ele>122.9590962</ele>
        <time>2022-08-12T06:11:47Z</time>
      </trkpt>
      <trkpt lat="44.56509" lon="0.88705">
        <ele>122.8073181</ele>
        <time>2022-08-12T06:11:49Z</time>
      </trkpt>
      <trkpt lat="44.56517" lon="0.88706">
        <ele>122.9377587</ele>
        <time>2022-08-12T06:11:51Z</time>
      </trkpt>
      <trkpt lat="44.56526" lon="0.88707">
        <ele>123.1818043</ele>
        <time>2022-08-12T06:11:53Z</time>
      </trkpt>
      <trkpt lat="44.56534" lon="0.8871">
        <ele>123.0895048</ele>
        <time>2022-08-12T06:11:55Z</time>
      </trkpt>
      <trkpt lat="44.56543" lon="0.88713">
        <ele>123.3497041</ele>
        <time>2022-08-12T06:11:57Z</time>
      </trkpt>
      <trkpt lat="44.56552" lon="0.88717">
        <ele>123.8712523</ele>
        <time>2022-08-12T06:11:59Z</time>
      </trkpt>
      <trkpt lat="44.5656" lon="0.88723">
        <ele>123.1548169</ele>
        <time>2022-08-12T06:12:01Z</time>
      </trkpt>
      <trkpt lat="44.56567" lon="0.88731">
        <ele>122.3207282</ele>
        <time>2022-08-12T06:12:03Z</time>
      </trkpt>
      <trkpt lat="44.56574" lon="0.88738">
        <ele>123.4036221</ele>
        <time>2022-08-12T06:12:05Z</time>
      </trkpt>
      <trkpt lat="44.56582" lon="0.88745">
        <ele>123.8616957</ele>
        <time>2022-08-12T06:12:07Z</time>
      </trkpt>
      <trkpt lat="44.56589" lon="0.8875">
        <ele>123.7455818</ele>
        <time>2022-08-12T06:12:09Z</time>
      </trkpt>
      <trkpt lat="44.56596" lon="0.88758">
        <ele>123.6412604</ele>
        <time>2022-08-12T06:12:11Z</time>
      </trkpt>
      <trkpt lat="44.56603" lon="0.88765">
        <ele>125.0762236</ele>
        <time>2022-08-12T06:12:13Z</time>
      </trkpt>
      <trkpt lat="44.56611" lon="0.88772">
        <ele>124.6761781</ele>
        <time>2022-08-12T06:12:15Z</time>
      </trkpt>
      <trkpt lat="44.56618" lon="0.88779">
        <ele>123.5469696</ele>
        <time>2022-08-12T06:12:17Z</time>
      </trkpt>
      <trkpt lat="44.56626" lon="0.88787">
        <ele>124.5189286</ele>
        <time>2022-08-12T06:12:19Z</time>
      </trkpt>
      <trkpt lat="44.56633" lon="0.88794">
        <ele>124.6063388</ele>
        <time>2022-08-12T06:12:21Z</time>
      </trkpt>
      <trkpt lat="44.56641" lon="0.888">
        <ele>124.9617217</ele>
        <time>2022-08-12T06:12:23Z</time>
      </trkpt>
      <trkpt lat="44.56648" lon="0.88808">
        <ele>124.8295074</ele>
        <time>2022-08-12T06:12:25Z</time>
      </trkpt>
      <trkpt lat="44.56655" lon="0.88813">
        <ele>125.1723864</ele>
        <time>2022-08-12T06:12:27Z</time>
      </trkpt>
      <trkpt lat="44.56662" lon="0.88818">
        <ele>125.2874098</ele>
        <time>2022-08-12T06:12:29Z</time>
      </trkpt>
      <trkpt lat="44.5667" lon="0.88823">
        <ele>125.1346141</ele>
        <time>2022-08-12T06:12:31Z</time>
      </trkpt>
      <trkpt lat="44.56678" lon="0.88828">
        <ele>125.0999721</ele>
        <time>2022-08-12T06:12:33Z</time>
      </trkpt>
      <trkpt lat="44.56686" lon="0.88831">
        <ele>124.7267328</ele>
        <time>2022-08-12T06:12:35Z</time>
      </trkpt>
      <trkpt lat="44.56693" lon="0.88833">
        <ele>124.7321886</ele>
        <time>2022-08-12T06:12:37Z</time>
      </trkpt>
      <trkpt lat="44.56704" lon="0.88832">
        <ele>124.3566577</ele>
        <time>2022-08-12T06:12:39Z</time>
      </trkpt>
      <trkpt lat="44.56712" lon="0.88835">
        <ele>124.0915953</ele>
        <time>2022-08-12T06:12:41Z</time>
      </trkpt>
      <trkpt lat="44.56721" lon="0.88835">
        <ele>124.289921</ele>
        <time>2022-08-12T06:12:43Z</time>
      </trkpt>
      <trkpt lat="44.56729" lon="0.88835">
        <ele>124.5111415</ele>
        <time>2022-08-12T06:12:45Z</time>
      </trkpt>
      <trkpt lat="44.56738" lon="0.88836">
        <ele>124.4596059</ele>
        <time>2022-08-12T06:12:47Z</time>
      </trkpt>
      <trkpt lat="44.56746" lon="0.88832">
        <ele>124.9547439</ele>
        <time>2022-08-12T06:12:49Z</time>
      </trkpt>
      <trkpt lat="44.56752" lon="0.88829">
        <ele>123.6294656</ele>
        <time>2022-08-12T06:12:51Z</time>
      </trkpt>
      <trkpt lat="44.56761" lon="0.88825">
        <ele>123.7058227</ele>
        <time>2022-08-12T06:12:53Z</time>
      </trkpt>
      <trkpt lat="44.56769" lon="0.8882">
        <ele>124.1832714</ele>
        <time>2022-08-12T06:12:55Z</time>
      </trkpt>
      <trkpt lat="44.56777" lon="0.88816">
        <ele>124.1316962</ele>
        <time>2022-08-12T06:12:57Z</time>
      </trkpt>
      <trkpt lat="44.56785" lon="0.8881">
        <ele>123.6720751</ele>
        <time>2022-08-12T06:12:59Z</time>
      </trkpt>
      <trkpt lat="44.56792" lon="0.88804">
        <ele>122.7080012</ele>
        <time>2022-08-12T06:13:01Z</time>
      </trkpt>
      <trkpt lat="44.56801" lon="0.88799">
        <ele>123.0192828</ele>
        <time>2022-08-12T06:13:03Z</time>
      </trkpt>
      <trkpt lat="44.56809" lon="0.88796">
        <ele>122.9857543</ele>
        <time>2022-08-12T06:13:05Z</time>
      </trkpt>
      <trkpt lat="44.56818" lon="0.88793">
        <ele>123.0447506</ele>
        <time>2022-08-12T06:13:07Z</time>
      </trkpt>
      <trkpt lat="44.56827" lon="0.88792">
        <ele>122.9433681</ele>
        <time>2022-08-12T06:13:09Z</time>
      </trkpt>
      <trkpt lat="44.56836" lon="0.88791">
        <ele>123.3193009</ele>
        <time>2022-08-12T06:13:11Z</time>
      </trkpt>
      <trkpt lat="44.56843" lon="0.88792">
        <ele>123.6723835</ele>
        <time>2022-08-12T06:13:13Z</time>
      </trkpt>
      <trkpt lat="44.56854" lon="0.88791">
        <ele>123.91084</ele>
        <time>2022-08-12T06:13:15Z</time>
      </trkpt>
      <trkpt lat="44.56863" lon="0.88791">
        <ele>124.1718443</ele>
        <time>2022-08-12T06:13:17Z</time>
      </trkpt>
      <trkpt lat="44.56872" lon="0.88791">
        <ele>123.8076634</ele>
        <time>2022-08-12T06:13:19Z</time>
      </trkpt>
      <trkpt lat="44.56881" lon="0.88791">
        <ele>124.0851689</ele>
        <time>2022-08-12T06:13:21Z</time>
      </trkpt>
      <trkpt lat="44.56889" lon="0.88789">
        <ele>124.2475251</ele>
        <time>2022-08-12T06:13:23Z</time>
      </trkpt>
      <trkpt lat="44.56898" lon="0.88787">
        <ele>123.7754767</ele>
        <time>2022-08-12T06:13:25Z</time>
      </trkpt>
      <trkpt lat="44.56907" lon="0.88786">
        <ele>124.1524287</ele>
        <time>2022-08-12T06:13:27Z</time>
      </trkpt>
      <trkpt lat="44.56915" lon="0.88782">
        <ele>124.3507001</ele>
        <time>2022-08-12T06:13:29Z</time>
      </trkpt>
      <trkpt lat="44.56923" lon="0.88779">
        <ele>123.9108942</ele>
        <time>2022-08-12T06:13:31Z</time>
      </trkpt>
      <trkpt lat="44.56932" lon="0.88775">
        <ele>124.5877964</ele>
        <time>2022-08-12T06:13:33Z</time>
      </trkpt>
      <trkpt lat="44.5694" lon="0.8877">
        <ele>123.9365367</ele>
        <time>2022-08-12T06:13:35Z</time>
      </trkpt>
      <trkpt lat="44.56947" lon="0.88765">
        <ele>124.0412211</ele>
        <time>2022-08-12T06:13:37Z</time>
      </trkpt>
      <trkpt lat="44.56955" lon="0.88759">
        <ele>124.052726</ele>
        <time>2022-08-12T06:13:39Z</time>
      </trkpt>
      <trkpt lat="44.56962" lon="0.88754">
        <ele>124.2597311</ele>
        <time>2022-08-12T06:13:41Z</time>
      </trkpt>
      <trkpt lat="44.5697" lon="0.8875">
        <ele>124.1696267</ele>
        <time>2022-08-12T06:13:43Z</time>
      </trkpt>
      <trkpt lat="44.56978" lon="0.88744">
        <ele>123.5900489</ele>
        <time>2022-08-12T06:13:45Z</time>
      </trkpt>
      <trkpt lat="44.56985" lon="0.88738">
        <ele>124.3467566</ele>
        <time>2022-08-12T06:13:47Z</time>
      </trkpt>
      <trkpt lat="44.56993" lon="0.88734">
        <ele>124.0381795</ele>
        <time>2022-08-12T06:13:49Z</time>
      </trkpt>
      <trkpt lat="44.57001" lon="0.8873">
        <ele>123.560554</ele>
        <time>2022-08-12T06:13:51Z</time>
      </trkpt>
      <trkpt lat="44.57008" lon="0.88724">
        <ele>123.750475</ele>
        <time>2022-08-12T06:13:53Z</time>
      </trkpt>
      <trkpt lat="44.57015" lon="0.88719">
        <ele>123.974288</ele>
        <time>2022-08-12T06:13:55Z</time>
      </trkpt>
      <trkpt lat="44.57022" lon="0.88714">
        <ele>123.6373012</ele>
        <time>2022-08-12T06:13:57Z</time>
      </trkpt>
      <trkpt lat="44.57029" lon="0.88708">
        <ele>124.0806717</ele>
        <time>2022-08-12T06:13:59Z</time>
      </trkpt>
      <trkpt lat="44.57036" lon="0.88703">
        <ele>123.9738605</ele>
        <time>2022-08-12T06:14:01Z</time>
      </trkpt>
      <trkpt lat="44.57042" lon="0.88697">
        <ele>124.1759373</ele>
        <time>2022-08-12T06:14:03Z</time>
      </trkpt>
      <trkpt lat="44.57047" lon="0.88691">
        <ele>124.2219266</ele>
        <time>2022-08-12T06:14:05Z</time>
      </trkpt>
      <trkpt lat="44.57053" lon="0.88683">
        <ele>124.5911091</ele>
        <time>2022-08-12T06:14:07Z</time>
      </trkpt>
      <trkpt lat="44.57059" lon="0.88677">
        <ele>123.6665334</ele>
        <time>2022-08-12T06:14:09Z</time>
      </trkpt>
      <trkpt lat="44.57063" lon="0.88669">
        <ele>124.3785429</ele>
        <time>2022-08-12T06:14:11Z</time>
      </trkpt>
      <trkpt lat="44.57068" lon="0.88661">
        <ele>124.5625887</ele>
        <time>2022-08-12T06:14:13Z</time>
      </trkpt>
      <trkpt lat="44.57072" lon="0.88653">
        <ele>124.7552386</ele>
        <time>2022-08-12T06:14:15Z</time>
      </trkpt>
      <trkpt lat="44.57076" lon="0.88644">
        <ele>124.6827758</ele>
        <time>2022-08-12T06:14:17Z</time>
      </trkpt>
      <trkpt lat="44.5708" lon="0.88636">
        <ele>124.54486</ele>
        <time>2022-08-12T06:14:19Z</time>
      </trkpt>
      <trkpt lat="44.57084" lon="0.88628">
        <ele>124.7817943</ele>
        <time>2022-08-12T06:14:21Z</time>
      </trkpt>
      <trkpt lat="44.57086" lon="0.88619">
        <ele>124.6873852</ele>
        <time>2022-08-12T06:14:23Z</time>
      </trkpt>
      <trkpt lat="44.57089" lon="0.88609">
        <ele>124.9965755</ele>
        <time>2022-08-12T06:14:25Z</time>
      </trkpt>
      <trkpt lat="44.57092" lon="0.886">
        <ele>125.1313507</ele>
        <time>2022-08-12T06:14:27Z</time>
      </trkpt>
      <trkpt lat="44.57095" lon="0.88591">
        <ele>126.1662338</ele>
        <time>2022-08-12T06:14:29Z</time>
      </trkpt>
      <trkpt lat="44.57096" lon="0.88582">
        <ele>127.225598</ele>
        <time>2022-08-12T06:14:31Z</time>
      </trkpt>
      <trkpt lat="44.57099" lon="0.88573">
        <ele>127.1392835</ele>
        <time>2022-08-12T06:14:33Z</time>
      </trkpt>
      <trkpt lat="44.57101" lon="0.88563">
        <ele>127.0996837</ele>
        <time>2022-08-12T06:14:35Z</time>
      </trkpt>
      <trkpt lat="44.57102" lon="0.88553">
        <ele>126.8462208</ele>
        <time>2022-08-12T06:14:37Z</time>
      </trkpt>
      <trkpt lat="44.57105" lon="0.88542">
        <ele>126.9375579</ele>
        <time>2022-08-12T06:14:39Z</time>
      </trkpt>
      <trkpt lat="44.57109" lon="0.88534">
        <ele>126.6352676</ele>
        <time>2022-08-12T06:14:41Z</time>
      </trkpt>
      <trkpt lat="44.57111" lon="0.88524">
        <ele>126.9884481</ele>
        <time>2022-08-12T06:14:43Z</time>
      </trkpt>
      <trkpt lat="44.57113" lon="0.88514">
        <ele>127.2830923</ele>
        <time>2022-08-12T06:14:45Z</time>
      </trkpt>
      <trkpt lat="44.57117" lon="0.88504">
        <ele>127.4239001</ele>
        <time>2022-08-12T06:14:47Z</time>
      </trkpt>
      <trkpt lat="44.57119" lon="0.88494">
        <ele>127.506121</ele>
        <time>2022-08-12T06:14:49Z</time>
      </trkpt>
      <trkpt lat="44.57121" lon="0.88484">
        <ele>127.0171989</ele>
        <time>2022-08-12T06:14:51Z</time>
      </trkpt>
      <trkpt lat="44.57122" lon="0.88473">
        <ele>127.7411787</ele>
        <time>2022-08-12T06:14:53Z</time>
      </trkpt>
      <trkpt lat="44.57123" lon="0.88462">
        <ele>127.7265634</ele>
        <time>2022-08-12T06:14:55Z</time>
      </trkpt>
      <trkpt lat="44.57123" lon="0.88451">
        <ele>128.1204546</ele>
        <time>2022-08-12T06:14:57Z</time>
      </trkpt>
      <trkpt lat="44.57122" lon="0.88439">
        <ele>127.7295342</ele>
        <time>2022-08-12T06:14:59Z</time>
      </trkpt>
      <trkpt lat="44.57121" lon="0.88428">
        <ele>127.3427859</ele>
        <time>2022-08-12T06:15:01Z</time>
      </trkpt>
      <trkpt lat="44.57118" lon="0.88416">
        <ele>127.8830133</ele>
        <time>2022-08-12T06:15:03Z</time>
      </trkpt>
      <trkpt lat="44.57116" lon="0.88405">
        <ele>127.2611679</ele>
        <time>2022-08-12T06:15:05Z</time>
      </trkpt>
      <trkpt lat="44.57112" lon="0.88393">
        <ele>127.5792164</ele>
        <time>2022-08-12T06:15:07Z</time>
      </trkpt>
      <trkpt lat="44.57109" lon="0.88381">
        <ele>127.2703515</ele>
        <time>2022-08-12T06:15:09Z</time>
      </trkpt>
      <trkpt lat="44.57107" lon="0.88368">
        <ele>127.0050815</ele>
        <time>2022-08-12T06:15:11Z</time>
      </trkpt>
      <trkpt lat="44.57104" lon="0.88356">
        <ele>126.9400772</ele>
        <time>2022-08-12T06:15:13Z</time>
      </trkpt>
      <trkpt lat="44.57101" lon="0.88344">
        <ele>126.8430734</ele>
        <time>2022-08-12T06:15:15Z</time>
      </trkpt>
      <trkpt lat="44.57099" lon="0.88331">
        <ele>127.1178839</ele>
        <time>2022-08-12T06:15:17Z</time>
      </trkpt>
      <trkpt lat="44.57096" lon="0.88318">
        <ele>127.3133262</ele>
        <time>2022-08-12T06:15:19Z</time>
      </trkpt>
      <trkpt lat="44.57093" lon="0.88305">
        <ele>126.9461095</ele>
        <time>2022-08-12T06:15:21Z</time>
      </trkpt>
      <trkpt lat="44.5709" lon="0.88293">
        <ele>127.0468232</ele>
        <time>2022-08-12T06:15:23Z</time>
      </trkpt>
      <trkpt lat="44.57087" lon="0.88279">
        <ele>127.3063091</ele>
        <time>2022-08-12T06:15:25Z</time>
      </trkpt>
      <trkpt lat="44.57083" lon="0.88267">
        <ele>126.7879602</ele>
        <time>2022-08-12T06:15:27Z</time>
      </trkpt>
      <trkpt lat="44.5708" lon="0.88253">
        <ele>126.5686677</ele>
        <time>2022-08-12T06:15:29Z</time>
      </trkpt>
      <trkpt lat="44.57077" lon="0.8824">
        <ele>126.4175735</ele>
        <time>2022-08-12T06:15:31Z</time>
      </trkpt>
      <trkpt lat="44.57076" lon="0.88226">
        <ele>126.687908</ele>
        <time>2022-08-12T06:15:33Z</time>
      </trkpt>
      <trkpt lat="44.57074" lon="0.88213">
        <ele>126.7777124</ele>
        <time>2022-08-12T06:15:35Z</time>
      </trkpt>
      <trkpt lat="44.57072" lon="0.882">
        <ele>126.2503415</ele>
        <time>2022-08-12T06:15:37Z</time>
      </trkpt>
      <trkpt lat="44.57072" lon="0.88188">
        <ele>126.0459663</ele>
        <time>2022-08-12T06:15:39Z</time>
      </trkpt>
      <trkpt lat="44.57072" lon="0.88174">
        <ele>126.9158379</ele>
        <time>2022-08-12T06:15:41Z</time>
      </trkpt>
      <trkpt lat="44.57072" lon="0.88162">
        <ele>127.3088184</ele>
        <time>2022-08-12T06:15:43Z</time>
      </trkpt>
      <trkpt lat="44.57073" lon="0.8815">
        <ele>126.6996962</ele>
        <time>2022-08-12T06:15:45Z</time>
      </trkpt>
      <trkpt lat="44.57074" lon="0.88139">
        <ele>127.3964346</ele>
        <time>2022-08-12T06:15:47Z</time>
      </trkpt>
      <trkpt lat="44.57076" lon="0.88128">
        <ele>127.6354439</ele>
        <time>2022-08-12T06:15:49Z</time>
      </trkpt>
      <trkpt lat="44.57078" lon="0.88118">
        <ele>127.8147653</ele>
        <time>2022-08-12T06:15:51Z</time>
      </trkpt>
      <trkpt lat="44.5708" lon="0.88107">
        <ele>128.0486041</ele>
        <time>2022-08-12T06:15:53Z</time>
      </trkpt>
      <trkpt lat="44.57083" lon="0.88096">
        <ele>128.1316383</ele>
        <time>2022-08-12T06:15:55Z</time>
      </trkpt>
      <trkpt lat="44.57086" lon="0.88086">
        <ele>128.1727183</ele>
        <time>2022-08-12T06:15:57Z</time>
      </trkpt>
      <trkpt lat="44.5709" lon="0.88077">
        <ele>128.1358705</ele>
        <time>2022-08-12T06:15:59Z</time>
      </trkpt>
      <trkpt lat="44.57093" lon="0.88067">
        <ele>128.524644</ele>
        <time>2022-08-12T06:16:01Z</time>
      </trkpt>
      <trkpt lat="44.57097" lon="0.88059">
        <ele>128.7847995</ele>
        <time>2022-08-12T06:16:03Z</time>
      </trkpt>
      <trkpt lat="44.57102" lon="0.88052">
        <ele>128.2966379</ele>
        <time>2022-08-12T06:16:05Z</time>
      </trkpt>
      <trkpt lat="44.57106" lon="0.88044">
        <ele>128.4322087</ele>
        <time>2022-08-12T06:16:07Z</time>
      </trkpt>
      <trkpt lat="44.5711" lon="0.88037">
        <ele>128.5679505</ele>
        <time>2022-08-12T06:16:09Z</time>
      </trkpt>
      <trkpt lat="44.57115" lon="0.8803">
        <ele>128.465305</ele>
        <time>2022-08-12T06:16:11Z</time>
      </trkpt>
      <trkpt lat="44.57119" lon="0.88023">
        <ele>128.3098029</ele>
        <time>2022-08-12T06:16:13Z</time>
      </trkpt>
      <trkpt lat="44.57124" lon="0.88018">
        <ele>128.6472162</ele>
        <time>2022-08-12T06:16:15Z</time>
      </trkpt>
      <trkpt lat="44.5713" lon="0.88014">
        <ele>127.8407066</ele>
        <time>2022-08-12T06:16:17Z</time>
      </trkpt>
      <trkpt lat="44.57135" lon="0.88008">
        <ele>128.2855448</ele>
        <time>2022-08-12T06:16:19Z</time>
      </trkpt>
      <trkpt lat="44.57142" lon="0.88005">
        <ele>128.6506708</ele>
        <time>2022-08-12T06:16:21Z</time>
      </trkpt>
      <trkpt lat="44.57147" lon="0.88003">
        <ele>128.1292325</ele>
        <time>2022-08-12T06:16:23Z</time>
      </trkpt>
      <trkpt lat="44.57153" lon="0.88">
        <ele>128.0534294</ele>
        <time>2022-08-12T06:16:25Z</time>
      </trkpt>
      <trkpt lat="44.57158" lon="0.87998">
        <ele>127.9118598</ele>
        <time>2022-08-12T06:16:27Z</time>
      </trkpt>
      <trkpt lat="44.57164" lon="0.87998">
        <ele>127.8193372</ele>
        <time>2022-08-12T06:16:29Z</time>
      </trkpt>
      <trkpt lat="44.57171" lon="0.87996">
        <ele>127.833888</ele>
        <time>2022-08-12T06:16:31Z</time>
      </trkpt>
      <trkpt lat="44.57177" lon="0.87997">
        <ele>127.6781831</ele>
        <time>2022-08-12T06:16:33Z</time>
      </trkpt>
      <trkpt lat="44.57184" lon="0.87997">
        <ele>127.8570601</ele>
        <time>2022-08-12T06:16:35Z</time>
      </trkpt>
      <trkpt lat="44.5719" lon="0.87999">
        <ele>127.8968121</ele>
        <time>2022-08-12T06:16:37Z</time>
      </trkpt>
      <trkpt lat="44.57196" lon="0.88">
        <ele>127.9310142</ele>
        <time>2022-08-12T06:16:39Z</time>
      </trkpt>
      <trkpt lat="44.57201" lon="0.88003">
        <ele>127.9136255</ele>
        <time>2022-08-12T06:16:41Z</time>
      </trkpt>
      <trkpt lat="44.57207" lon="0.88005">
        <ele>127.8935593</ele>
        <time>2022-08-12T06:16:43Z</time>
      </trkpt>
      <trkpt lat="44.57213" lon="0.88006">
        <ele>128.0139974</ele>
        <time>2022-08-12T06:16:45Z</time>
      </trkpt>
      <trkpt lat="44.57221" lon="0.8801">
        <ele>128.2582603</ele>
        <time>2022-08-12T06:16:47Z</time>
      </trkpt>
      <trkpt lat="44.57228" lon="0.88015">
        <ele>128.5967146</ele>
        <time>2022-08-12T06:16:49Z</time>
      </trkpt>
      <trkpt lat="44.57236" lon="0.88018">
        <ele>128.2174592</ele>
        <time>2022-08-12T06:16:51Z</time>
      </trkpt>
      <trkpt lat="44.57243" lon="0.88022">
        <ele>128.4147624</ele>
        <time>2022-08-12T06:16:53Z</time>
      </trkpt>
      <trkpt lat="44.57251" lon="0.88027">
        <ele>128.1498139</ele>
        <time>2022-08-12T06:16:55Z</time>
      </trkpt>
      <trkpt lat="44.57258" lon="0.88033">
        <ele>128.086789</ele>
        <time>2022-08-12T06:16:57Z</time>
      </trkpt>
      <trkpt lat="44.57267" lon="0.88038">
        <ele>128.13263</ele>
        <time>2022-08-12T06:16:59Z</time>
      </trkpt>
      <trkpt lat="44.57275" lon="0.88042">
        <ele>128.666951</ele>
        <time>2022-08-12T06:17:01Z</time>
      </trkpt>
      <trkpt lat="44.57282" lon="0.88048">
        <ele>128.3422364</ele>
        <time>2022-08-12T06:17:03Z</time>
      </trkpt>
      <trkpt lat="44.5729" lon="0.88052">
        <ele>128.409585</ele>
        <time>2022-08-12T06:17:05Z</time>
      </trkpt>
      <trkpt lat="44.57299" lon="0.88057">
        <ele>128.7594429</ele>
        <time>2022-08-12T06:17:07Z</time>
      </trkpt>
      <trkpt lat="44.57307" lon="0.88062">
        <ele>128.4356957</ele>
        <time>2022-08-12T06:17:09Z</time>
      </trkpt>
      <trkpt lat="44.57315" lon="0.88066">
        <ele>128.7266211</ele>
        <time>2022-08-12T06:17:11Z</time>
      </trkpt>
      <trkpt lat="44.57324" lon="0.88074">
        <ele>128.4102933</ele>
        <time>2022-08-12T06:17:13Z</time>
      </trkpt>
      <trkpt lat="44.57332" lon="0.88079">
        <ele>128.5467836</ele>
        <time>2022-08-12T06:17:15Z</time>
      </trkpt>
      <trkpt lat="44.57341" lon="0.88085">
        <ele>128.3424249</ele>
        <time>2022-08-12T06:17:17Z</time>
      </trkpt>
      <trkpt lat="44.57349" lon="0.8809">
        <ele>128.5168349</ele>
        <time>2022-08-12T06:17:19Z</time>
      </trkpt>
      <trkpt lat="44.57358" lon="0.88095">
        <ele>128.8582899</ele>
        <time>2022-08-12T06:17:21Z</time>
      </trkpt>
      <trkpt lat="44.57366" lon="0.88101">
        <ele>127.7126617</ele>
        <time>2022-08-12T06:17:23Z</time>
      </trkpt>
      <trkpt lat="44.57375" lon="0.88106">
        <ele>128.8824329</ele>
        <time>2022-08-12T06:17:25Z</time>
      </trkpt>
      <trkpt lat="44.57383" lon="0.88111">
        <ele>128.9331689</ele>
        <time>2022-08-12T06:17:27Z</time>
      </trkpt>
      <trkpt lat="44.57393" lon="0.88116">
        <ele>128.1764333</ele>
        <time>2022-08-12T06:17:29Z</time>
      </trkpt>
      <trkpt lat="44.57402" lon="0.88121">
        <ele>128.4593889</ele>
        <time>2022-08-12T06:17:31Z</time>
      </trkpt>
      <trkpt lat="44.57413" lon="0.88128">
        <ele>128.0862183</ele>
        <time>2022-08-12T06:17:33Z</time>
      </trkpt>
      <trkpt lat="44.57419" lon="0.88134">
        <ele>128.4642804</ele>
        <time>2022-08-12T06:17:35Z</time>
      </trkpt>
      <trkpt lat="44.57427" lon="0.88138">
        <ele>128.6680938</ele>
        <time>2022-08-12T06:17:37Z</time>
      </trkpt>
      <trkpt lat="44.57436" lon="0.88148">
        <ele>128.736655</ele>
        <time>2022-08-12T06:17:39Z</time>
      </trkpt>
      <trkpt lat="44.57445" lon="0.88154">
        <ele>128.6918695</ele>
        <time>2022-08-12T06:17:41Z</time>
      </trkpt>
      <trkpt lat="44.57452" lon="0.88159">
        <ele>129.6413238</ele>
        <time>2022-08-12T06:17:43Z</time>
      </trkpt>
      <trkpt lat="44.57461" lon="0.88165">
        <ele>129.8627258</ele>
        <time>2022-08-12T06:17:45Z</time>
      </trkpt>
      <trkpt lat="44.57469" lon="0.88171">
        <ele>129.5103859</ele>
        <time>2022-08-12T06:17:47Z</time>
      </trkpt>
      <trkpt lat="44.57476" lon="0.88177">
        <ele>129.0802985</ele>
        <time>2022-08-12T06:17:49Z</time>
      </trkpt>
      <trkpt lat="44.57484" lon="0.88181">
        <ele>129.8346002</ele>
        <time>2022-08-12T06:17:51Z</time>
      </trkpt>
      <trkpt lat="44.57492" lon="0.88182">
        <ele>131.278498</ele>
        <time>2022-08-12T06:17:53Z</time>
      </trkpt>
      <trkpt lat="44.575" lon="0.88184">
        <ele>130.8271024</ele>
        <time>2022-08-12T06:17:55Z</time>
      </trkpt>
      <trkpt lat="44.57508" lon="0.88186">
        <ele>131.3612362</ele>
        <time>2022-08-12T06:17:57Z</time>
      </trkpt>
      <trkpt lat="44.57516" lon="0.88186">
        <ele>131.0694462</ele>
        <time>2022-08-12T06:17:59Z</time>
      </trkpt>
      <trkpt lat="44.57523" lon="0.88182">
        <ele>132.1144779</ele>
        <time>2022-08-12T06:18:01Z</time>
      </trkpt>
      <trkpt lat="44.57531" lon="0.8818">
        <ele>132.294603</ele>
        <time>2022-08-12T06:18:03Z</time>
      </trkpt>
      <trkpt lat="44.57539" lon="0.88176">
        <ele>132.0854575</ele>
        <time>2022-08-12T06:18:05Z</time>
      </trkpt>
      <trkpt lat="44.57545" lon="0.88172">
        <ele>132.5427442</ele>
        <time>2022-08-12T06:18:07Z</time>
      </trkpt>
      <trkpt lat="44.5755" lon="0.88166">
        <ele>132.7197815</ele>
        <time>2022-08-12T06:18:09Z</time>
      </trkpt>
      <trkpt lat="44.57556" lon="0.88161">
        <ele>133.4900297</ele>
        <time>2022-08-12T06:18:11Z</time>
      </trkpt>
      <trkpt lat="44.5756" lon="0.88154">
        <ele>133.2935147</ele>
        <time>2022-08-12T06:18:13Z</time>
      </trkpt>
      <trkpt lat="44.57563" lon="0.88145">
        <ele>134.5778363</ele>
        <time>2022-08-12T06:18:15Z</time>
      </trkpt>
      <trkpt lat="44.57566" lon="0.88135">
        <ele>134.4703415</ele>
        <time>2022-08-12T06:18:17Z</time>
      </trkpt>
      <trkpt lat="44.5757" lon="0.88128">
        <ele>134.3864539</ele>
        <time>2022-08-12T06:18:19Z</time>
      </trkpt>
      <trkpt lat="44.57573" lon="0.88119">
        <ele>134.9697886</ele>
        <time>2022-08-12T06:18:21Z</time>
      </trkpt>
      <trkpt lat="44.57576" lon="0.8811">
        <ele>135.3182211</ele>
        <time>2022-08-12T06:18:23Z</time>
      </trkpt>
      <trkpt lat="44.57579" lon="0.88102">
        <ele>134.7602566</ele>
        <time>2022-08-12T06:18:25Z</time>
      </trkpt>
      <trkpt lat="44.57581" lon="0.88093">
        <ele>134.5806966</ele>
        <time>2022-08-12T06:18:27Z</time>
      </trkpt>
      <trkpt lat="44.57583" lon="0.88082">
        <ele>135.060063</ele>
        <time>2022-08-12T06:18:29Z</time>
      </trkpt>
      <trkpt lat="44.57586" lon="0.88073">
        <ele>134.1605903</ele>
        <time>2022-08-12T06:18:31Z</time>
      </trkpt>
      <trkpt lat="44.57588" lon="0.88064">
        <ele>133.9824661</ele>
        <time>2022-08-12T06:18:33Z</time>
      </trkpt>
      <trkpt lat="44.5759" lon="0.88055">
        <ele>134.3389337</ele>
        <time>2022-08-12T06:18:35Z</time>
      </trkpt>
      <trkpt lat="44.57591" lon="0.88045">
        <ele>133.880627</ele>
        <time>2022-08-12T06:18:37Z</time>
      </trkpt>
      <trkpt lat="44.57593" lon="0.88037">
        <ele>133.8404887</ele>
        <time>2022-08-12T06:18:39Z</time>
      </trkpt>
      <trkpt lat="44.57594" lon="0.88029">
        <ele>133.7709343</ele>
        <time>2022-08-12T06:18:41Z</time>
      </trkpt>
      <trkpt lat="44.57594" lon="0.8802">
        <ele>133.2201744</ele>
        <time>2022-08-12T06:18:43Z</time>
      </trkpt>
      <trkpt lat="44.57595" lon="0.88011">
        <ele>133.7604087</ele>
        <time>2022-08-12T06:18:45Z</time>
      </trkpt>
      <trkpt lat="44.57596" lon="0.88003">
        <ele>134.3289179</ele>
        <time>2022-08-12T06:18:47Z</time>
      </trkpt>
      <trkpt lat="44.57596" lon="0.87995">
        <ele>134.4464657</ele>
        <time>2022-08-12T06:18:49Z</time>
      </trkpt>
      <trkpt lat="44.57596" lon="0.87986">
        <ele>134.0179586</ele>
        <time>2022-08-12T06:18:51Z</time>
      </trkpt>
      <trkpt lat="44.57595" lon="0.87978">
        <ele>134.173549</ele>
        <time>2022-08-12T06:18:53Z</time>
      </trkpt>
      <trkpt lat="44.57595" lon="0.87971">
        <ele>134.23191</ele>
        <time>2022-08-12T06:18:55Z</time>
      </trkpt>
      <trkpt lat="44.57595" lon="0.87963">
        <ele>133.7307269</ele>
        <time>2022-08-12T06:18:57Z</time>
      </trkpt>
      <trkpt lat="44.57594" lon="0.87956">
        <ele>133.7432246</ele>
        <time>2022-08-12T06:18:59Z</time>
      </trkpt>
      <trkpt lat="44.57593" lon="0.87949">
        <ele>133.5983226</ele>
        <time>2022-08-12T06:19:01Z</time>
      </trkpt>
      <trkpt lat="44.57592" lon="0.87941">
        <ele>133.5347624</ele>
        <time>2022-08-12T06:19:03Z</time>
      </trkpt>
      <trkpt lat="44.57592" lon="0.87933">
        <ele>133.4526038</ele>
        <time>2022-08-12T06:19:05Z</time>
      </trkpt>
      <trkpt lat="44.57591" lon="0.87926">
        <ele>133.5381881</ele>
        <time>2022-08-12T06:19:07Z</time>
      </trkpt>
      <trkpt lat="44.5759" lon="0.87919">
        <ele>133.6179929</ele>
        <time>2022-08-12T06:19:09Z</time>
      </trkpt>
      <trkpt lat="44.57589" lon="0.87912">
        <ele>133.6070499</ele>
        <time>2022-08-12T06:19:11Z</time>
      </trkpt>
      <trkpt lat="44.57589" lon="0.87905">
        <ele>133.3609234</ele>
        <time>2022-08-12T06:19:13Z</time>
      </trkpt>
      <trkpt lat="44.57589" lon="0.87898">
        <ele>133.4258766</ele>
        <time>2022-08-12T06:19:15Z</time>
      </trkpt>
      <trkpt lat="44.57588" lon="0.87891">
        <ele>132.9513575</ele>
        <time>2022-08-12T06:19:17Z</time>
      </trkpt>
      <trkpt lat="44.57588" lon="0.87884">
        <ele>133.6288668</ele>
        <time>2022-08-12T06:19:19Z</time>
      </trkpt>
      <trkpt lat="44.57588" lon="0.87877">
        <ele>133.4175352</ele>
        <time>2022-08-12T06:19:21Z</time>
      </trkpt>
      <trkpt lat="44.57589" lon="0.87869">
        <ele>133.6942543</ele>
        <time>2022-08-12T06:19:23Z</time>
      </trkpt>
      <trkpt lat="44.57593" lon="0.8786">
        <ele>133.6913196</ele>
        <time>2022-08-12T06:19:25Z</time>
      </trkpt>
      <trkpt lat="44.57596" lon="0.8785">
        <ele>134.5515321</ele>
        <time>2022-08-12T06:19:27Z</time>
      </trkpt>
      <trkpt lat="44.576" lon="0.87843">
        <ele>133.9478839</ele>
        <time>2022-08-12T06:19:29Z</time>
      </trkpt>
      <trkpt lat="44.57606" lon="0.87835">
        <ele>133.716378</ele>
        <time>2022-08-12T06:19:31Z</time>
      </trkpt>
      <trkpt lat="44.57614" lon="0.87831">
        <ele>133.9525993</ele>
        <time>2022-08-12T06:19:33Z</time>
      </trkpt>
      <trkpt lat="44.57622" lon="0.87827">
        <ele>133.678573</ele>
        <time>2022-08-12T06:19:35Z</time>
      </trkpt>
      <trkpt lat="44.5763" lon="0.87825">
        <ele>133.274883</ele>
        <time>2022-08-12T06:19:37Z</time>
      </trkpt>
      <trkpt lat="44.57638" lon="0.87826">
        <ele>134.2094801</ele>
        <time>2022-08-12T06:19:39Z</time>
      </trkpt>
      <trkpt lat="44.57647" lon="0.87829">
        <ele>134.3229091</ele>
        <time>2022-08-12T06:19:41Z</time>
      </trkpt>
      <trkpt lat="44.57656" lon="0.87829">
        <ele>134.5539476</ele>
        <time>2022-08-12T06:19:43Z</time>
      </trkpt>
      <trkpt lat="44.57665" lon="0.87833">
        <ele>134.7765706</ele>
        <time>2022-08-12T06:19:45Z</time>
      </trkpt>
      <trkpt lat="44.57675" lon="0.87835">
        <ele>134.8389991</ele>
        <time>2022-08-12T06:19:47Z</time>
      </trkpt>
      <trkpt lat="44.57684" lon="0.87837">
        <ele>135.318588</ele>
        <time>2022-08-12T06:19:49Z</time>
      </trkpt>
      <trkpt lat="44.57693" lon="0.87841">
        <ele>135.537876</ele>
        <time>2022-08-12T06:19:51Z</time>
      </trkpt>
      <trkpt lat="44.57702" lon="0.87841">
        <ele>135.4062555</ele>
        <time>2022-08-12T06:19:53Z</time>
      </trkpt>
      <trkpt lat="44.57711" lon="0.87842">
        <ele>134.8772673</ele>
        <time>2022-08-12T06:19:55Z</time>
      </trkpt>
      <trkpt lat="44.5772" lon="0.87841">
        <ele>134.9812619</ele>
        <time>2022-08-12T06:19:57Z</time>
      </trkpt>
      <trkpt lat="44.5773" lon="0.87842">
        <ele>135.4744888</ele>
        <time>2022-08-12T06:19:59Z</time>
      </trkpt>
      <trkpt lat="44.5774" lon="0.87841">
        <ele>134.3514223</ele>
        <time>2022-08-12T06:20:01Z</time>
      </trkpt>
      <trkpt lat="44.57748" lon="0.87839">
        <ele>133.4473596</ele>
        <time>2022-08-12T06:20:03Z</time>
      </trkpt>
      <trkpt lat="44.57758" lon="0.87836">
        <ele>133.9875623</ele>
        <time>2022-08-12T06:20:05Z</time>
      </trkpt>
      <trkpt lat="44.57766" lon="0.87832">
        <ele>133.802932</ele>
        <time>2022-08-12T06:20:07Z</time>
      </trkpt>
      <trkpt lat="44.57774" lon="0.87829">
        <ele>133.8206095</ele>
        <time>2022-08-12T06:20:09Z</time>
      </trkpt>
      <trkpt lat="44.57782" lon="0.87826">
        <ele>133.9119951</ele>
        <time>2022-08-12T06:20:11Z</time>
      </trkpt>
      <trkpt lat="44.57789" lon="0.87822">
        <ele>134.1835771</ele>
        <time>2022-08-12T06:20:13Z</time>
      </trkpt>
      <trkpt lat="44.57797" lon="0.87818">
        <ele>133.9474233</ele>
        <time>2022-08-12T06:20:15Z</time>
      </trkpt>
      <trkpt lat="44.57805" lon="0.87814">
        <ele>133.880256</ele>
        <time>2022-08-12T06:20:17Z</time>
      </trkpt>
      <trkpt lat="44.57812" lon="0.87809">
        <ele>133.9661545</ele>
        <time>2022-08-12T06:20:19Z</time>
      </trkpt>
      <trkpt lat="44.5782" lon="0.87804">
        <ele>133.5469068</ele>
        <time>2022-08-12T06:20:21Z</time>
      </trkpt>
      <trkpt lat="44.57827" lon="0.87798">
        <ele>133.2989315</ele>
        <time>2022-08-12T06:20:23Z</time>
      </trkpt>
      <trkpt lat="44.57835" lon="0.87793">
        <ele>133.2213015</ele>
        <time>2022-08-12T06:20:25Z</time>
      </trkpt>
      <trkpt lat="44.57843" lon="0.87788">
        <ele>133.315894</ele>
        <time>2022-08-12T06:20:27Z</time>
      </trkpt>
      <trkpt lat="44.57851" lon="0.87783">
        <ele>133.8716938</ele>
        <time>2022-08-12T06:20:29Z</time>
      </trkpt>
      <trkpt lat="44.5786" lon="0.87777">
        <ele>133.0800052</ele>
        <time>2022-08-12T06:20:31Z</time>
      </trkpt>
      <trkpt lat="44.57868" lon="0.8777">
        <ele>133.1237726</ele>
        <time>2022-08-12T06:20:33Z</time>
      </trkpt>
      <trkpt lat="44.57876" lon="0.87764">
        <ele>133.4329844</ele>
        <time>2022-08-12T06:20:35Z</time>
      </trkpt>
      <trkpt lat="44.57884" lon="0.87758">
        <ele>133.4866136</ele>
        <time>2022-08-12T06:20:37Z</time>
      </trkpt>
      <trkpt lat="44.57891" lon="0.8775">
        <ele>133.7703139</ele>
        <time>2022-08-12T06:20:39Z</time>
      </trkpt>
      <trkpt lat="44.57897" lon="0.87738">
        <ele>134.4610588</ele>
        <time>2022-08-12T06:20:41Z</time>
      </trkpt>
      <trkpt lat="44.57902" lon="0.87728">
        <ele>134.8346224</ele>
        <time>2022-08-12T06:20:43Z</time>
      </trkpt>
      <trkpt lat="44.57907" lon="0.87716">
        <ele>134.6420953</ele>
        <time>2022-08-12T06:20:45Z</time>
      </trkpt>
      <trkpt lat="44.57912" lon="0.87704">
        <ele>134.3298829</ele>
        <time>2022-08-12T06:20:47Z</time>
      </trkpt>
      <trkpt lat="44.57917" lon="0.87694">
        <ele>134.3116271</ele>
        <time>2022-08-12T06:20:49Z</time>
      </trkpt>
      <trkpt lat="44.5792" lon="0.87682">
        <ele>134.0710527</ele>
        <time>2022-08-12T06:20:51Z</time>
      </trkpt>
      <trkpt lat="44.57922" lon="0.8767">
        <ele>134.4120071</ele>
        <time>2022-08-12T06:20:53Z</time>
      </trkpt>
      <trkpt lat="44.57924" lon="0.87658">
        <ele>133.193943</ele>
        <time>2022-08-12T06:20:55Z</time>
      </trkpt>
      <trkpt lat="44.57928" lon="0.87646">
        <ele>132.6760866</ele>
        <time>2022-08-12T06:20:57Z</time>
      </trkpt>
      <trkpt lat="44.57934" lon="0.87636">
        <ele>132.3197084</ele>
        <time>2022-08-12T06:20:59Z</time>
      </trkpt>
      <trkpt lat="44.57941" lon="0.87629">
        <ele>132.0019079</ele>
        <time>2022-08-12T06:21:01Z</time>
      </trkpt>
      <trkpt lat="44.57951" lon="0.87629">
        <ele>132.4348033</ele>
        <time>2022-08-12T06:21:03Z</time>
      </trkpt>
      <trkpt lat="44.57958" lon="0.87636">
        <ele>132.5753283</ele>
        <time>2022-08-12T06:21:05Z</time>
      </trkpt>
      <trkpt lat="44.57967" lon="0.87646">
        <ele>132.8505718</ele>
        <time>2022-08-12T06:21:07Z</time>
      </trkpt>
      <trkpt lat="44.57973" lon="0.87654">
        <ele>132.357451</ele>
        <time>2022-08-12T06:21:09Z</time>
      </trkpt>
      <trkpt lat="44.57979" lon="0.87663">
        <ele>133.1886398</ele>
        <time>2022-08-12T06:21:11Z</time>
      </trkpt>
      <trkpt lat="44.57987" lon="0.8767">
        <ele>132.5497379</ele>
        <time>2022-08-12T06:21:13Z</time>
      </trkpt>
      <trkpt lat="44.57992" lon="0.87678">
        <ele>132.7681844</ele>
        <time>2022-08-12T06:21:15Z</time>
      </trkpt>
      <trkpt lat="44.57999" lon="0.87686">
        <ele>132.5611568</ele>
        <time>2022-08-12T06:21:17Z</time>
      </trkpt>
      <trkpt lat="44.58004" lon="0.87695">
        <ele>133.0348428</ele>
        <time>2022-08-12T06:21:19Z</time>
      </trkpt>
      <trkpt lat="44.58009" lon="0.87705">
        <ele>133.337762</ele>
        <time>2022-08-12T06:21:21Z</time>
      </trkpt>
      <trkpt lat="44.58011" lon="0.87715">
        <ele>133.3824364</ele>
        <time>2022-08-12T06:21:23Z</time>
      </trkpt>
      <trkpt lat="44.58015" lon="0.87725">
        <ele>134.0149677</ele>
        <time>2022-08-12T06:21:25Z</time>
      </trkpt>
      <trkpt lat="44.58017" lon="0.87736">
        <ele>134.1858298</ele>
        <time>2022-08-12T06:21:27Z</time>
      </trkpt>
      <trkpt lat="44.58018" lon="0.87746">
        <ele>134.7140876</ele>
        <time>2022-08-12T06:21:29Z</time>
      </trkpt>
      <trkpt lat="44.5802" lon="0.87757">
        <ele>134.3330318</ele>
        <time>2022-08-12T06:21:31Z</time>
      </trkpt>
      <trkpt lat="44.58021" lon="0.87768">
        <ele>134.4886818</ele>
        <time>2022-08-12T06:21:33Z</time>
      </trkpt>
      <trkpt lat="44.5802" lon="0.87779">
        <ele>134.5018211</ele>
        <time>2022-08-12T06:21:35Z</time>
      </trkpt>
      <trkpt lat="44.58018" lon="0.8779">
        <ele>134.7508813</ele>
        <time>2022-08-12T06:21:37Z</time>
      </trkpt>
      <trkpt lat="44.58014" lon="0.87799">
        <ele>135.4675228</ele>
        <time>2022-08-12T06:21:39Z</time>
      </trkpt>
      <trkpt lat="44.58014" lon="0.8781">
        <ele>135.0137493</ele>
        <time>2022-08-12T06:21:41Z</time>
      </trkpt>
      <trkpt lat="44.58013" lon="0.8782">
        <ele>136.4075699</ele>
        <time>2022-08-12T06:21:43Z</time>
      </trkpt>
      <trkpt lat="44.58014" lon="0.87831">
        <ele>135.6227485</ele>
        <time>2022-08-12T06:21:45Z</time>
      </trkpt>
      <trkpt lat="44.58015" lon="0.87844">
        <ele>136.3775061</ele>
        <time>2022-08-12T06:21:47Z</time>
      </trkpt>
      <trkpt lat="44.58018" lon="0.87855">
        <ele>136.2839459</ele>
        <time>2022-08-12T06:21:49Z</time>
      </trkpt>
      <trkpt lat="44.58023" lon="0.87865">
        <ele>135.5213573</ele>
        <time>2022-08-12T06:21:51Z</time>
      </trkpt>
      <trkpt lat="44.58028" lon="0.87875">
        <ele>135.6683462</ele>
        <time>2022-08-12T06:21:53Z</time>
      </trkpt>
      <trkpt lat="44.58034" lon="0.87882">
        <ele>136.0666697</ele>
        <time>2022-08-12T06:21:55Z</time>
      </trkpt>
      <trkpt lat="44.5804" lon="0.87888">
        <ele>136.8710675</ele>
        <time>2022-08-12T06:21:57Z</time>
      </trkpt>
      <trkpt lat="44.58047" lon="0.87892">
        <ele>136.5047808</ele>
        <time>2022-08-12T06:21:59Z</time>
      </trkpt>
      <trkpt lat="44.58054" lon="0.87895">
        <ele>137.4169732</ele>
        <time>2022-08-12T06:22:01Z</time>
      </trkpt>
      <trkpt lat="44.58061" lon="0.87896">
        <ele>137.1390136</ele>
        <time>2022-08-12T06:22:03Z</time>
      </trkpt>
      <trkpt lat="44.58068" lon="0.87894">
        <ele>137.8580743</ele>
        <time>2022-08-12T06:22:05Z</time>
      </trkpt>
      <trkpt lat="44.58076" lon="0.87892">
        <ele>137.8679504</ele>
        <time>2022-08-12T06:22:07Z</time>
      </trkpt>
      <trkpt lat="44.58082" lon="0.87887">
        <ele>137.7576863</ele>
        <time>2022-08-12T06:22:09Z</time>
      </trkpt>
      <trkpt lat="44.58089" lon="0.87882">
        <ele>138.2154933</ele>
        <time>2022-08-12T06:22:11Z</time>
      </trkpt>
      <trkpt lat="44.58095" lon="0.87876">
        <ele>138.4851966</ele>
        <time>2022-08-12T06:22:13Z</time>
      </trkpt>
      <trkpt lat="44.581" lon="0.8787">
        <ele>138.1628041</ele>
        <time>2022-08-12T06:22:15Z</time>
      </trkpt>
      <trkpt lat="44.58105" lon="0.87862">
        <ele>138.3636453</ele>
        <time>2022-08-12T06:22:17Z</time>
      </trkpt>
      <trkpt lat="44.5811" lon="0.87856">
        <ele>138.2818175</ele>
        <time>2022-08-12T06:22:19Z</time>
      </trkpt>
      <trkpt lat="44.58116" lon="0.87849">
        <ele>138.1616043</ele>
        <time>2022-08-12T06:22:21Z</time>
      </trkpt>
      <trkpt lat="44.58122" lon="0.87842">
        <ele>138.2316817</ele>
        <time>2022-08-12T06:22:23Z</time>
      </trkpt>
      <trkpt lat="44.58128" lon="0.87836">
        <ele>138.1820657</ele>
        <time>2022-08-12T06:22:25Z</time>
      </trkpt>
      <trkpt lat="44.58134" lon="0.87829">
        <ele>137.908101</ele>
        <time>2022-08-12T06:22:27Z</time>
      </trkpt>
      <trkpt lat="44.58139" lon="0.87822">
        <ele>137.8218769</ele>
        <time>2022-08-12T06:22:29Z</time>
      </trkpt>
      <trkpt lat="44.58145" lon="0.87815">
        <ele>137.5699169</ele>
        <time>2022-08-12T06:22:31Z</time>
      </trkpt>
      <trkpt lat="44.58152" lon="0.87809">
        <ele>137.4506469</ele>
        <time>2022-08-12T06:22:33Z</time>
      </trkpt>
      <trkpt lat="44.58158" lon="0.87804">
        <ele>137.1721138</ele>
        <time>2022-08-12T06:22:35Z</time>
      </trkpt>
      <trkpt lat="44.58165" lon="0.87802">
        <ele>137.4966353</ele>
        <time>2022-08-12T06:22:37Z</time>
      </trkpt>
      <trkpt lat="44.58172" lon="0.87798">
        <ele>137.6393736</ele>
        <time>2022-08-12T06:22:39Z</time>
      </trkpt>
      <trkpt lat="44.58179" lon="0.87796">
        <ele>137.0880662</ele>
        <time>2022-08-12T06:22:41Z</time>
      </trkpt>
      <trkpt lat="44.58187" lon="0.87797">
        <ele>136.849175</ele>
        <time>2022-08-12T06:22:43Z</time>
      </trkpt>
      <trkpt lat="44.58193" lon="0.87796">
        <ele>137.0791601</ele>
        <time>2022-08-12T06:22:45Z</time>
      </trkpt>
      <trkpt lat="44.582" lon="0.87795">
        <ele>137.07006</ele>
        <time>2022-08-12T06:22:47Z</time>
      </trkpt>
      <trkpt lat="44.58206" lon="0.87794">
        <ele>137.0514998</ele>
        <time>2022-08-12T06:22:49Z</time>
      </trkpt>
      <trkpt lat="44.58213" lon="0.87793">
        <ele>137.3504266</ele>
        <time>2022-08-12T06:22:51Z</time>
      </trkpt>
      <trkpt lat="44.5822" lon="0.87792">
        <ele>137.7134955</ele>
        <time>2022-08-12T06:22:53Z</time>
      </trkpt>
      <trkpt lat="44.58227" lon="0.87793">
        <ele>137.8115447</ele>
        <time>2022-08-12T06:22:55Z</time>
      </trkpt>
      <trkpt lat="44.58234" lon="0.87793">
        <ele>137.9823414</ele>
        <time>2022-08-12T06:22:57Z</time>
      </trkpt>
      <trkpt lat="44.58241" lon="0.87794">
        <ele>138.1558099</ele>
        <time>2022-08-12T06:22:59Z</time>
      </trkpt>
      <trkpt lat="44.58248" lon="0.87795">
        <ele>137.9882994</ele>
        <time>2022-08-12T06:23:01Z</time>
      </trkpt>
      <trkpt lat="44.58255" lon="0.87795">
        <ele>138.3397677</ele>
        <time>2022-08-12T06:23:03Z</time>
      </trkpt>
      <trkpt lat="44.58261" lon="0.87796">
        <ele>138.4358113</ele>
        <time>2022-08-12T06:23:05Z</time>
      </trkpt>
      <trkpt lat="44.58267" lon="0.87796">
        <ele>138.4391205</ele>
        <time>2022-08-12T06:23:07Z</time>
      </trkpt>
      <trkpt lat="44.58273" lon="0.87796">
        <ele>138.0648551</ele>
        <time>2022-08-12T06:23:09Z</time>
      </trkpt>
      <trkpt lat="44.58279" lon="0.87798">
        <ele>137.5037869</ele>
        <time>2022-08-12T06:23:11Z</time>
      </trkpt>
      <trkpt lat="44.58285" lon="0.87802">
        <ele>137.4561342</ele>
        <time>2022-08-12T06:23:13Z</time>
      </trkpt>
      <trkpt lat="44.58288" lon="0.87811">
        <ele>137.05669</ele>
        <time>2022-08-12T06:23:15Z</time>
      </trkpt>
      <trkpt lat="44.58291" lon="0.87819">
        <ele>137.3832901</ele>
        <time>2022-08-12T06:23:17Z</time>
      </trkpt>
      <trkpt lat="44.58291" lon="0.87828">
        <ele>137.0719723</ele>
        <time>2022-08-12T06:23:19Z</time>
      </trkpt>
      <trkpt lat="44.58291" lon="0.87838">
        <ele>137.0221553</ele>
        <time>2022-08-12T06:23:21Z</time>
      </trkpt>
      <trkpt lat="44.5829" lon="0.87848">
        <ele>137.9532354</ele>
        <time>2022-08-12T06:23:23Z</time>
      </trkpt>
      <trkpt lat="44.58289" lon="0.87858">
        <ele>137.4736429</ele>
        <time>2022-08-12T06:23:25Z</time>
      </trkpt>
      <trkpt lat="44.58287" lon="0.87868">
        <ele>137.6740101</ele>
        <time>2022-08-12T06:23:27Z</time>
      </trkpt>
      <trkpt lat="44.58286" lon="0.87878">
        <ele>138.1387015</ele>
        <time>2022-08-12T06:23:29Z</time>
      </trkpt>
      <trkpt lat="44.58286" lon="0.87888">
        <ele>138.5082992</ele>
        <time>2022-08-12T06:23:31Z</time>
      </trkpt>
      <trkpt lat="44.58288" lon="0.87898">
        <ele>139.4446539</ele>
        <time>2022-08-12T06:23:33Z</time>
      </trkpt>
      <trkpt lat="44.5829" lon="0.87909">
        <ele>140.4539948</ele>
        <time>2022-08-12T06:23:35Z</time>
      </trkpt>
      <trkpt lat="44.58294" lon="0.87918">
        <ele>140.3759648</ele>
        <time>2022-08-12T06:23:37Z</time>
      </trkpt>
      <trkpt lat="44.58296" lon="0.87927">
        <ele>140.986967</ele>
        <time>2022-08-12T06:23:39Z</time>
      </trkpt>
      <trkpt lat="44.58302" lon="0.87937">
        <ele>139.8488275</ele>
        <time>2022-08-12T06:23:41Z</time>
      </trkpt>
      <trkpt lat="44.58306" lon="0.87946">
        <ele>140.6860715</ele>
        <time>2022-08-12T06:23:43Z</time>
      </trkpt>
      <trkpt lat="44.58312" lon="0.87955">
        <ele>140.5932575</ele>
        <time>2022-08-12T06:23:45Z</time>
      </trkpt>
      <trkpt lat="44.58319" lon="0.87962">
        <ele>141.1254556</ele>
        <time>2022-08-12T06:23:47Z</time>
      </trkpt>
      <trkpt lat="44.58325" lon="0.8797">
        <ele>141.0555325</ele>
        <time>2022-08-12T06:23:49Z</time>
      </trkpt>
      <trkpt lat="44.58332" lon="0.87976">
        <ele>141.2798467</ele>
        <time>2022-08-12T06:23:51Z</time>
      </trkpt>
      <trkpt lat="44.58336" lon="0.87983">
        <ele>141.2420806</ele>
        <time>2022-08-12T06:23:53Z</time>
      </trkpt>
      <trkpt lat="44.58342" lon="0.87988">
        <ele>140.7111725</ele>
        <time>2022-08-12T06:23:55Z</time>
      </trkpt>
      <trkpt lat="44.58349" lon="0.87994">
        <ele>140.8509823</ele>
        <time>2022-08-12T06:23:57Z</time>
      </trkpt>
      <trkpt lat="44.58355" lon="0.88002">
        <ele>140.1039998</ele>
        <time>2022-08-12T06:23:59Z</time>
      </trkpt>
      <trkpt lat="44.58362" lon="0.88006">
        <ele>140.8724549</ele>
        <time>2022-08-12T06:24:01Z</time>
      </trkpt>
      <trkpt lat="44.58369" lon="0.88012">
        <ele>140.4209444</ele>
        <time>2022-08-12T06:24:03Z</time>
      </trkpt>
      <trkpt lat="44.58376" lon="0.88019">
        <ele>140.618928</ele>
        <time>2022-08-12T06:24:05Z</time>
      </trkpt>
      <trkpt lat="44.58383" lon="0.88026">
        <ele>141.1325261</ele>
        <time>2022-08-12T06:24:07Z</time>
      </trkpt>
      <trkpt lat="44.58391" lon="0.88034">
        <ele>140.9711081</ele>
        <time>2022-08-12T06:24:09Z</time>
      </trkpt>
      <trkpt lat="44.58397" lon="0.88038">
        <ele>141.4356836</ele>
        <time>2022-08-12T06:24:11Z</time>
      </trkpt>
      <trkpt lat="44.58403" lon="0.88045">
        <ele>141.6287711</ele>
        <time>2022-08-12T06:24:13Z</time>
      </trkpt>
      <trkpt lat="44.5841" lon="0.88051">
        <ele>142.6681548</ele>
        <time>2022-08-12T06:24:15Z</time>
      </trkpt>
      <trkpt lat="44.58418" lon="0.88055">
        <ele>142.5405622</ele>
        <time>2022-08-12T06:24:17Z</time>
      </trkpt>
      <trkpt lat="44.58425" lon="0.8806">
        <ele>142.920747</ele>
        <time>2022-08-12T06:24:19Z</time>
      </trkpt>
      <trkpt lat="44.58433" lon="0.88064">
        <ele>143.2757859</ele>
        <time>2022-08-12T06:24:21Z</time>
      </trkpt>
      <trkpt lat="44.58441" lon="0.88065">
        <ele>142.7989016</ele>
        <time>2022-08-12T06:24:23Z</time>
      </trkpt>
      <trkpt lat="44.58451" lon="0.88067">
        <ele>143.7795863</ele>
        <time>2022-08-12T06:24:25Z</time>
      </trkpt>
      <trkpt lat="44.58458" lon="0.88068">
        <ele>143.985246</ele>
        <time>2022-08-12T06:24:27Z</time>
      </trkpt>
      <trkpt lat="44.58468" lon="0.88067">
        <ele>144.2321932</ele>
        <time>2022-08-12T06:24:29Z</time>
      </trkpt>
      <trkpt lat="44.58476" lon="0.88066">
        <ele>143.3793847</ele>
        <time>2022-08-12T06:24:31Z</time>
      </trkpt>
      <trkpt lat="44.58485" lon="0.88063">
        <ele>144.0771377</ele>
        <time>2022-08-12T06:24:33Z</time>
      </trkpt>
      <trkpt lat="44.58492" lon="0.88058">
        <ele>144.0353672</ele>
        <time>2022-08-12T06:24:35Z</time>
      </trkpt>
      <trkpt lat="44.58498" lon="0.88051">
        <ele>143.9921583</ele>
        <time>2022-08-12T06:24:37Z</time>
      </trkpt>
      <trkpt lat="44.58504" lon="0.88044">
        <ele>144.068942</ele>
        <time>2022-08-12T06:24:39Z</time>
      </trkpt>
      <trkpt lat="44.58509" lon="0.88035">
        <ele>143.1195748</ele>
        <time>2022-08-12T06:24:41Z</time>
      </trkpt>
      <trkpt lat="44.58514" lon="0.88026">
        <ele>143.4577888</ele>
        <time>2022-08-12T06:24:43Z</time>
      </trkpt>
      <trkpt lat="44.58518" lon="0.88016">
        <ele>142.6609008</ele>
        <time>2022-08-12T06:24:45Z</time>
      </trkpt>
      <trkpt lat="44.58522" lon="0.88005">
        <ele>143.0896721</ele>
        <time>2022-08-12T06:24:47Z</time>
      </trkpt>
      <trkpt lat="44.58527" lon="0.87996">
        <ele>142.4822805</ele>
        <time>2022-08-12T06:24:49Z</time>
      </trkpt>
      <trkpt lat="44.58534" lon="0.87989">
        <ele>142.0493287</ele>
        <time>2022-08-12T06:24:51Z</time>
      </trkpt>
      <trkpt lat="44.58541" lon="0.87984">
        <ele>141.5216323</ele>
        <time>2022-08-12T06:24:53Z</time>
      </trkpt>
      <trkpt lat="44.58548" lon="0.8798">
        <ele>140.9829339</ele>
        <time>2022-08-12T06:24:55Z</time>
      </trkpt>
      <trkpt lat="44.58557" lon="0.87981">
        <ele>142.0459868</ele>
        <time>2022-08-12T06:24:57Z</time>
      </trkpt>
      <trkpt lat="44.58566" lon="0.87985">
        <ele>141.8976248</ele>
        <time>2022-08-12T06:24:59Z</time>
      </trkpt>
      <trkpt lat="44.58575" lon="0.8799">
        <ele>142.018177</ele>
        <time>2022-08-12T06:25:01Z</time>
      </trkpt>
      <trkpt lat="44.58583" lon="0.87996">
        <ele>141.6026614</ele>
        <time>2022-08-12T06:25:03Z</time>
      </trkpt>
      <trkpt lat="44.58591" lon="0.88003">
        <ele>141.2015244</ele>
        <time>2022-08-12T06:25:05Z</time>
      </trkpt>
      <trkpt lat="44.586" lon="0.88009">
        <ele>141.6603277</ele>
        <time>2022-08-12T06:25:07Z</time>
      </trkpt>
      <trkpt lat="44.58608" lon="0.88015">
        <ele>141.7204407</ele>
        <time>2022-08-12T06:25:09Z</time>
      </trkpt>
      <trkpt lat="44.58617" lon="0.88021">
        <ele>141.9091685</ele>
        <time>2022-08-12T06:25:11Z</time>
      </trkpt>
      <trkpt lat="44.58625" lon="0.88027">
        <ele>142.516751</ele>
        <time>2022-08-12T06:25:13Z</time>
      </trkpt>
      <trkpt lat="44.58633" lon="0.88032">
        <ele>143.0069763</ele>
        <time>2022-08-12T06:25:15Z</time>
      </trkpt>
      <trkpt lat="44.58641" lon="0.88038">
        <ele>142.7104546</ele>
        <time>2022-08-12T06:25:17Z</time>
      </trkpt>
      <trkpt lat="44.58649" lon="0.88043">
        <ele>143.6020232</ele>
        <time>2022-08-12T06:25:19Z</time>
      </trkpt>
      <trkpt lat="44.58657" lon="0.88048">
        <ele>144.4375581</ele>
        <time>2022-08-12T06:25:21Z</time>
      </trkpt>
      <trkpt lat="44.58665" lon="0.88054">
        <ele>144.3430095</ele>
        <time>2022-08-12T06:25:23Z</time>
      </trkpt>
      <trkpt lat="44.58673" lon="0.88059">
        <ele>144.5725925</ele>
        <time>2022-08-12T06:25:25Z</time>
      </trkpt>
      <trkpt lat="44.58682" lon="0.88064">
        <ele>145.2872791</ele>
        <time>2022-08-12T06:25:27Z</time>
      </trkpt>
      <trkpt lat="44.58688" lon="0.88068">
        <ele>146.267863</ele>
        <time>2022-08-12T06:25:29Z</time>
      </trkpt>
      <trkpt lat="44.58696" lon="0.88074">
        <ele>147.9110529</ele>
        <time>2022-08-12T06:25:31Z</time>
      </trkpt>
      <trkpt lat="44.58704" lon="0.88074">
        <ele>149.539777</ele>
        <time>2022-08-12T06:25:33Z</time>
      </trkpt>
      <trkpt lat="44.58711" lon="0.88076">
        <ele>148.3538442</ele>
        <time>2022-08-12T06:25:35Z</time>
      </trkpt>
      <trkpt lat="44.58719" lon="0.88076">
        <ele>148.6453982</ele>
        <time>2022-08-12T06:25:37Z</time>
      </trkpt>
      <trkpt lat="44.58727" lon="0.88074">
        <ele>148.6412494</ele>
        <time>2022-08-12T06:25:39Z</time>
      </trkpt>
      <trkpt lat="44.58734" lon="0.88071">
        <ele>148.5608027</ele>
        <time>2022-08-12T06:25:41Z</time>
      </trkpt>
      <trkpt lat="44.58741" lon="0.88068">
        <ele>148.4878502</ele>
        <time>2022-08-12T06:25:43Z</time>
      </trkpt>
      <trkpt lat="44.58747" lon="0.88066">
        <ele>148.5694227</ele>
        <time>2022-08-12T06:25:45Z</time>
      </trkpt>
      <trkpt lat="44.58753" lon="0.88064">
        <ele>147.6818972</ele>
        <time>2022-08-12T06:25:47Z</time>
      </trkpt>
      <trkpt lat="44.58759" lon="0.88064">
        <ele>147.2298498</ele>
        <time>2022-08-12T06:25:49Z</time>
      </trkpt>
      <trkpt lat="44.58765" lon="0.88066">
        <ele>146.7167896</ele>
        <time>2022-08-12T06:25:51Z</time>
      </trkpt>
      <trkpt lat="44.58772" lon="0.88068">
        <ele>148.358289</ele>
        <time>2022-08-12T06:25:53Z</time>
      </trkpt>
      <trkpt lat="44.58778" lon="0.88071">
        <ele>146.6940101</ele>
        <time>2022-08-12T06:25:55Z</time>
      </trkpt>
      <trkpt lat="44.58784" lon="0.88075">
        <ele>146.761181</ele>
        <time>2022-08-12T06:25:57Z</time>
      </trkpt>
      <trkpt lat="44.5879" lon="0.88079">
        <ele>146.770853</ele>
        <time>2022-08-12T06:25:59Z</time>
      </trkpt>
      <trkpt lat="44.58796" lon="0.88085">
        <ele>146.7697144</ele>
        <time>2022-08-12T06:26:01Z</time>
      </trkpt>
      <trkpt lat="44.58801" lon="0.88091">
        <ele>146.819092</ele>
        <time>2022-08-12T06:26:03Z</time>
      </trkpt>
      <trkpt lat="44.58806" lon="0.88098">
        <ele>146.5505358</ele>
        <time>2022-08-12T06:26:05Z</time>
      </trkpt>
      <trkpt lat="44.58811" lon="0.88105">
        <ele>146.4548562</ele>
        <time>2022-08-12T06:26:07Z</time>
      </trkpt>
      <trkpt lat="44.58815" lon="0.88113">
        <ele>146.7178159</ele>
        <time>2022-08-12T06:26:09Z</time>
      </trkpt>
      <trkpt lat="44.58819" lon="0.8812">
        <ele>146.9805417</ele>
        <time>2022-08-12T06:26:11Z</time>
      </trkpt>
      <trkpt lat="44.58822" lon="0.88128">
        <ele>147.162022</ele>
        <time>2022-08-12T06:26:13Z</time>
      </trkpt>
      <trkpt lat="44.58824" lon="0.88136">
        <ele>147.3113722</ele>
        <time>2022-08-12T06:26:15Z</time>
      </trkpt>
      <trkpt lat="44.58826" lon="0.88144">
        <ele>147.341557</ele>
        <time>2022-08-12T06:26:17Z</time>
      </trkpt>
      <trkpt lat="44.58828" lon="0.88151">
        <ele>147.5812673</ele>
        <time>2022-08-12T06:26:19Z</time>
      </trkpt>
      <trkpt lat="44.58829" lon="0.88156">
        <ele>147.3384001</ele>
        <time>2022-08-12T06:26:21Z</time>
      </trkpt>
      <trkpt lat="44.5883" lon="0.88157">
        <ele>147.4367381</ele>
        <time>2022-08-12T06:26:23Z</time>
      </trkpt>
      <trkpt lat="44.5883" lon="0.88156">
        <ele>147.1455959</ele>
        <time>2022-08-12T06:26:25Z</time>
      </trkpt>
      <trkpt lat="44.5883" lon="0.88156">
        <ele>147.1212188</ele>
        <time>2022-08-12T06:26:27Z</time>
      </trkpt>
      <trkpt lat="44.58829" lon="0.88158">
        <ele>146.8006534</ele>
        <time>2022-08-12T06:26:31Z</time>
      </trkpt>
      <trkpt lat="44.58829" lon="0.88158">
        <ele>146.7470582</ele>
        <time>2022-08-12T06:26:33Z</time>
      </trkpt>
      <trkpt lat="44.58829" lon="0.88158">
        <ele>146.7470582</ele>
        <time>2022-08-12T06:26:37Z</time>
      </trkpt>
      <trkpt lat="44.58829" lon="0.88158">
        <ele>146.7470582</ele>
        <time>2022-08-12T06:26:41Z</time>
      </trkpt>
      <trkpt lat="44.58829" lon="0.88158">
        <ele>146.7470582</ele>
        <time>2022-08-12T06:26:45Z</time>
      </trkpt>
      <trkpt lat="44.58829" lon="0.88158">
        <ele>146.7470582</ele>
        <time>2022-08-12T06:26:49Z</time>
      </trkpt>
      <trkpt lat="44.5883" lon="0.88158">
        <ele>147.594367</ele>
        <time>2022-08-12T06:26:51Z</time>
      </trkpt>
      <trkpt lat="44.58831" lon="0.88158">
        <ele>147.4636795</ele>
        <time>2022-08-12T06:26:53Z</time>
      </trkpt>
      <trkpt lat="44.58831" lon="0.88158">
        <ele>147.4761873</ele>
        <time>2022-08-12T06:26:55Z</time>
      </trkpt>
      <trkpt lat="44.58831" lon="0.88158">
        <ele>147.4761873</ele>
        <time>2022-08-12T06:26:59Z</time>
      </trkpt>
      <trkpt lat="44.58831" lon="0.88158">
        <ele>147.4761873</ele>
        <time>2022-08-12T06:27:03Z</time>
      </trkpt>
      <trkpt lat="44.58831" lon="0.88158">
        <ele>147.4761873</ele>
        <time>2022-08-12T06:27:07Z</time>
      </trkpt>
      <trkpt lat="44.58831" lon="0.88158">
        <ele>147.4761873</ele>
        <time>2022-08-12T06:27:11Z</time>
      </trkpt>
      <trkpt lat="44.58831" lon="0.88158">
        <ele>147.4761873</ele>
        <time>2022-08-12T06:27:15Z</time>
      </trkpt>
      <trkpt lat="44.58831" lon="0.88158">
        <ele>147.4761873</ele>
        <time>2022-08-12T06:27:19Z</time>
      </trkpt>
      <trkpt lat="44.58831" lon="0.88158">
        <ele>147.4761873</ele>
        <time>2022-08-12T06:27:23Z</time>
      </trkpt>
      <trkpt lat="44.58831" lon="0.88158">
        <ele>147.4761873</ele>
        <time>2022-08-12T06:27:27Z</time>
      </trkpt>
      <trkpt lat="44.58831" lon="0.88158">
        <ele>147.4761873</ele>
        <time>2022-08-12T06:27:31Z</time>
      </trkpt>
      <trkpt lat="44.58835" lon="0.88157">
        <ele>148.0043699</ele>
        <time>2022-08-12T06:27:33Z</time>
      </trkpt>
      <trkpt lat="44.58835" lon="0.88157">
        <ele>147.9904014</ele>
        <time>2022-08-12T06:27:35Z</time>
      </trkpt>
      <trkpt lat="44.58835" lon="0.88158">
        <ele>148.0669731</ele>
        <time>2022-08-12T06:27:37Z</time>
      </trkpt>
      <trkpt lat="44.58835" lon="0.88158">
        <ele>148.056349</ele>
        <time>2022-08-12T06:27:39Z</time>
      </trkpt>
      <trkpt lat="44.58835" lon="0.88158">
        <ele>147.9542426</ele>
        <time>2022-08-12T06:27:41Z</time>
      </trkpt>
      <trkpt lat="44.58835" lon="0.88158">
        <ele>147.7105529</ele>
        <time>2022-08-12T06:27:45Z</time>
      </trkpt>
      <trkpt lat="44.58835" lon="0.88158">
        <ele>147.5684708</ele>
        <time>2022-08-12T06:27:47Z</time>
      </trkpt>
      <trkpt lat="44.58835" lon="0.88158">
        <ele>147.5649527</ele>
        <time>2022-08-12T06:27:49Z</time>
      </trkpt>
      <trkpt lat="44.58835" lon="0.88158">
        <ele>147.4231402</ele>
        <time>2022-08-12T06:27:51Z</time>
      </trkpt>
      <trkpt lat="44.58834" lon="0.88158">
        <ele>147.0668349</ele>
        <time>2022-08-12T06:27:53Z</time>
      </trkpt>
      <trkpt lat="44.58835" lon="0.88159">
        <ele>147.5885487</ele>
        <time>2022-08-12T06:27:55Z</time>
      </trkpt>
      <trkpt lat="44.58836" lon="0.88161">
        <ele>147.2365852</ele>
        <time>2022-08-12T06:27:57Z</time>
      </trkpt>
      <trkpt lat="44.58837" lon="0.88165">
        <ele>147.5746302</ele>
        <time>2022-08-12T06:27:59Z</time>
      </trkpt>
      <trkpt lat="44.58838" lon="0.88171">
        <ele>147.0610246</ele>
        <time>2022-08-12T06:28:01Z</time>
      </trkpt>
      <trkpt lat="44.5884" lon="0.88178">
        <ele>147.261407</ele>
        <time>2022-08-12T06:28:03Z</time>
      </trkpt>
      <trkpt lat="44.58841" lon="0.88187">
        <ele>147.1905654</ele>
        <time>2022-08-12T06:28:05Z</time>
      </trkpt>
      <trkpt lat="44.58843" lon="0.88196">
        <ele>147.1194343</ele>
        <time>2022-08-12T06:28:07Z</time>
      </trkpt>
      <trkpt lat="44.58846" lon="0.88205">
        <ele>147.2217438</ele>
        <time>2022-08-12T06:28:09Z</time>
      </trkpt>
      <trkpt lat="44.58847" lon="0.88215">
        <ele>147.4400711</ele>
        <time>2022-08-12T06:28:11Z</time>
      </trkpt>
      <trkpt lat="44.5885" lon="0.88226">
        <ele>147.7435799</ele>
        <time>2022-08-12T06:28:13Z</time>
      </trkpt>
      <trkpt lat="44.58852" lon="0.88235">
        <ele>147.4122303</ele>
        <time>2022-08-12T06:28:15Z</time>
      </trkpt>
      <trkpt lat="44.58853" lon="0.88245">
        <ele>147.4758321</ele>
        <time>2022-08-12T06:28:17Z</time>
      </trkpt>
      <trkpt lat="44.58856" lon="0.88254">
        <ele>147.7119997</ele>
        <time>2022-08-12T06:28:19Z</time>
      </trkpt>
      <trkpt lat="44.58859" lon="0.88263">
        <ele>147.5629235</ele>
        <time>2022-08-12T06:28:21Z</time>
      </trkpt>
      <trkpt lat="44.58861" lon="0.88272">
        <ele>147.3067994</ele>
        <time>2022-08-12T06:28:23Z</time>
      </trkpt>
      <trkpt lat="44.58864" lon="0.8828">
        <ele>147.2890792</ele>
        <time>2022-08-12T06:28:25Z</time>
      </trkpt>
      <trkpt lat="44.58869" lon="0.88287">
        <ele>147.5120382</ele>
        <time>2022-08-12T06:28:27Z</time>
      </trkpt>
      <trkpt lat="44.58873" lon="0.88295">
        <ele>147.4320919</ele>
        <time>2022-08-12T06:28:29Z</time>
      </trkpt>
      <trkpt lat="44.58878" lon="0.88302">
        <ele>147.4331746</ele>
        <time>2022-08-12T06:28:31Z</time>
      </trkpt>
      <trkpt lat="44.58882" lon="0.88308">
        <ele>147.889232</ele>
        <time>2022-08-12T06:28:33Z</time>
      </trkpt>
      <trkpt lat="44.58886" lon="0.88314">
        <ele>148.0733034</ele>
        <time>2022-08-12T06:28:35Z</time>
      </trkpt>
      <trkpt lat="44.58889" lon="0.88318">
        <ele>147.9889198</ele>
        <time>2022-08-12T06:28:37Z</time>
      </trkpt>
      <trkpt lat="44.58894" lon="0.88321">
        <ele>147.9180999</ele>
        <time>2022-08-12T06:28:39Z</time>
      </trkpt>
      <trkpt lat="44.589" lon="0.8832">
        <ele>147.8594513</ele>
        <time>2022-08-12T06:28:41Z</time>
      </trkpt>
      <trkpt lat="44.58904" lon="0.88313">
        <ele>147.7544832</ele>
        <time>2022-08-12T06:28:43Z</time>
      </trkpt>
      <trkpt lat="44.58907" lon="0.88307">
        <ele>147.6020831</ele>
        <time>2022-08-12T06:28:45Z</time>
      </trkpt>
      <trkpt lat="44.5891" lon="0.88302">
        <ele>146.9053372</ele>
        <time>2022-08-12T06:28:47Z</time>
      </trkpt>
      <trkpt lat="44.58913" lon="0.88296">
        <ele>146.0226981</ele>
        <time>2022-08-12T06:28:49Z</time>
      </trkpt>
      <trkpt lat="44.58917" lon="0.8829">
        <ele>146.4243952</ele>
        <time>2022-08-12T06:28:51Z</time>
      </trkpt>
      <trkpt lat="44.58921" lon="0.88284">
        <ele>147.1080542</ele>
        <time>2022-08-12T06:28:53Z</time>
      </trkpt>
      <trkpt lat="44.58924" lon="0.8828">
        <ele>147.4898025</ele>
        <time>2022-08-12T06:28:55Z</time>
      </trkpt>
      <trkpt lat="44.58926" lon="0.88277">
        <ele>147.588405</ele>
        <time>2022-08-12T06:28:57Z</time>
      </trkpt>
      <trkpt lat="44.58926" lon="0.88276">
        <ele>147.9715179</ele>
        <time>2022-08-12T06:28:59Z</time>
      </trkpt>
      <trkpt lat="44.58926" lon="0.88276">
        <ele>148.0784566</ele>
        <time>2022-08-12T06:29:01Z</time>
      </trkpt>
      <trkpt lat="44.58926" lon="0.88275">
        <ele>148.0174086</ele>
        <time>2022-08-12T06:29:03Z</time>
      </trkpt>
      <trkpt lat="44.58926" lon="0.88275">
        <ele>148.1595244</ele>
        <time>2022-08-12T06:29:05Z</time>
      </trkpt>
      <trkpt lat="44.58925" lon="0.88274">
        <ele>148.3572141</ele>
        <time>2022-08-12T06:29:07Z</time>
      </trkpt>
      <trkpt lat="44.58925" lon="0.88274">
        <ele>148.3572141</ele>
        <time>2022-08-12T06:29:11Z</time>
      </trkpt>
      <trkpt lat="44.58925" lon="0.88274">
        <ele>148.3572141</ele>
        <time>2022-08-12T06:29:15Z</time>
      </trkpt>
      <trkpt lat="44.58925" lon="0.88274">
        <ele>148.3572141</ele>
        <time>2022-08-12T06:29:19Z</time>
      </trkpt>
      <trkpt lat="44.58925" lon="0.88274">
        <ele>148.3572141</ele>
        <time>2022-08-12T06:29:23Z</time>
      </trkpt>
      <trkpt lat="44.58925" lon="0.88274">
        <ele>148.3572141</ele>
        <time>2022-08-12T06:29:27Z</time>
      </trkpt>
      <trkpt lat="44.58925" lon="0.88274">
        <ele>148.3572141</ele>
        <time>2022-08-12T06:29:31Z</time>
      </trkpt>
      <trkpt lat="44.58926" lon="0.88275">
        <ele>147.9794148</ele>
        <time>2022-08-12T06:29:35Z</time>
      </trkpt>
      <trkpt lat="44.58926" lon="0.88274">
        <ele>148.2325958</ele>
        <time>2022-08-12T06:29:37Z</time>
      </trkpt>
      <trkpt lat="44.58926" lon="0.88274">
        <ele>148.0876415</ele>
        <time>2022-08-12T06:29:39Z</time>
      </trkpt>
      <trkpt lat="44.58926" lon="0.88274">
        <ele>148.0667024</ele>
        <time>2022-08-12T06:29:41Z</time>
      </trkpt>
      <trkpt lat="44.58926" lon="0.88274">
        <ele>147.9214261</ele>
        <time>2022-08-12T06:29:43Z</time>
      </trkpt>
      <trkpt lat="44.58926" lon="0.88273">
        <ele>147.7959595</ele>
        <time>2022-08-12T06:29:45Z</time>
      </trkpt>
      <trkpt lat="44.58927" lon="0.88271">
        <ele>148.1417082</ele>
        <time>2022-08-12T06:29:47Z</time>
      </trkpt>
      <trkpt lat="44.58931" lon="0.8827">
        <ele>148.0389917</ele>
        <time>2022-08-12T06:29:49Z</time>
      </trkpt>
      <trkpt lat="44.58937" lon="0.88266">
        <ele>148.6304387</ele>
        <time>2022-08-12T06:29:51Z</time>
      </trkpt>
      <trkpt lat="44.58944" lon="0.88264">
        <ele>148.8572478</ele>
        <time>2022-08-12T06:29:53Z</time>
      </trkpt>
      <trkpt lat="44.58951" lon="0.88263">
        <ele>149.0684786</ele>
        <time>2022-08-12T06:29:55Z</time>
      </trkpt>
      <trkpt lat="44.58957" lon="0.88262">
        <ele>149.2239145</ele>
        <time>2022-08-12T06:29:57Z</time>
      </trkpt>
      <trkpt lat="44.58963" lon="0.88261">
        <ele>149.9552875</ele>
        <time>2022-08-12T06:29:59Z</time>
      </trkpt>
      <trkpt lat="44.58969" lon="0.88258">
        <ele>150.7271898</ele>
        <time>2022-08-12T06:30:01Z</time>
      </trkpt>
      <trkpt lat="44.58974" lon="0.88256">
        <ele>151.6547688</ele>
        <time>2022-08-12T06:30:03Z</time>
      </trkpt>
      <trkpt lat="44.58979" lon="0.88255">
        <ele>151.9399512</ele>
        <time>2022-08-12T06:30:05Z</time>
      </trkpt>
      <trkpt lat="44.58984" lon="0.88255">
        <ele>152.5310258</ele>
        <time>2022-08-12T06:30:07Z</time>
      </trkpt>
      <trkpt lat="44.58987" lon="0.88255">
        <ele>152.7171085</ele>
        <time>2022-08-12T06:30:09Z</time>
      </trkpt>
      <trkpt lat="44.58991" lon="0.88256">
        <ele>152.4948183</ele>
        <time>2022-08-12T06:30:11Z</time>
      </trkpt>
      <trkpt lat="44.58994" lon="0.88256">
        <ele>152.9707057</ele>
        <time>2022-08-12T06:30:13Z</time>
      </trkpt>
      <trkpt lat="44.58999" lon="0.88254">
        <ele>153.6737785</ele>
        <time>2022-08-12T06:30:15Z</time>
      </trkpt>
      <trkpt lat="44.59004" lon="0.88252">
        <ele>154.415233</ele>
        <time>2022-08-12T06:30:17Z</time>
      </trkpt>
      <trkpt lat="44.59007" lon="0.88251">
        <ele>153.3590066</ele>
        <time>2022-08-12T06:30:19Z</time>
      </trkpt>
      <trkpt lat="44.5901" lon="0.88252">
        <ele>153.7712676</ele>
        <time>2022-08-12T06:30:21Z</time>
      </trkpt>
      <trkpt lat="44.59014" lon="0.88251">
        <ele>154.0861442</ele>
        <time>2022-08-12T06:30:23Z</time>
      </trkpt>
      <trkpt lat="44.59017" lon="0.88248">
        <ele>154.6819631</ele>
        <time>2022-08-12T06:30:25Z</time>
      </trkpt>
      <trkpt lat="44.59019" lon="0.88246">
        <ele>155.3044455</ele>
        <time>2022-08-12T06:30:27Z</time>
      </trkpt>
      <trkpt lat="44.59022" lon="0.88243">
        <ele>156.0883277</ele>
        <time>2022-08-12T06:30:29Z</time>
      </trkpt>
      <trkpt lat="44.59024" lon="0.88238">
        <ele>156.7204619</ele>
        <time>2022-08-12T06:30:31Z</time>
      </trkpt>
      <trkpt lat="44.59024" lon="0.88234">
        <ele>157.338554</ele>
        <time>2022-08-12T06:30:33Z</time>
      </trkpt>
      <trkpt lat="44.59025" lon="0.88231">
        <ele>158.0113248</ele>
        <time>2022-08-12T06:30:35Z</time>
      </trkpt>
      <trkpt lat="44.59026" lon="0.88229">
        <ele>158.1799257</ele>
        <time>2022-08-12T06:30:37Z</time>
      </trkpt>
      <trkpt lat="44.59026" lon="0.88226">
        <ele>158.4670261</ele>
        <time>2022-08-12T06:30:39Z</time>
      </trkpt>
      <trkpt lat="44.59024" lon="0.88222">
        <ele>159.0265156</ele>
        <time>2022-08-12T06:30:41Z</time>
      </trkpt>
      <trkpt lat="44.59023" lon="0.88218">
        <ele>159.2337641</ele>
        <time>2022-08-12T06:30:43Z</time>
      </trkpt>
      <trkpt lat="44.59021" lon="0.88213">
        <ele>159.9559335</ele>
        <time>2022-08-12T06:30:45Z</time>
      </trkpt>
      <trkpt lat="44.5902" lon="0.88208">
        <ele>160.5655597</ele>
        <time>2022-08-12T06:30:47Z</time>
      </trkpt>
      <trkpt lat="44.59017" lon="0.88205">
        <ele>161.0627457</ele>
        <time>2022-08-12T06:30:49Z</time>
      </trkpt>
      <trkpt lat="44.59015" lon="0.88203">
        <ele>161.2995729</ele>
        <time>2022-08-12T06:30:51Z</time>
      </trkpt>
      <trkpt lat="44.59012" lon="0.88199">
        <ele>161.3938231</ele>
        <time>2022-08-12T06:30:53Z</time>
      </trkpt>
      <trkpt lat="44.5901" lon="0.88195">
        <ele>162.0196142</ele>
        <time>2022-08-12T06:30:55Z</time>
      </trkpt>
      <trkpt lat="44.59008" lon="0.88192">
        <ele>162.1173848</ele>
        <time>2022-08-12T06:30:57Z</time>
      </trkpt>
      <trkpt lat="44.59006" lon="0.88188">
        <ele>162.2225302</ele>
        <time>2022-08-12T06:30:59Z</time>
      </trkpt>
      <trkpt lat="44.59004" lon="0.88185">
        <ele>162.3946974</ele>
        <time>2022-08-12T06:31:01Z</time>
      </trkpt>
      <trkpt lat="44.59001" lon="0.88184">
        <ele>162.1493135</ele>
        <time>2022-08-12T06:31:03Z</time>
      </trkpt>
      <trkpt lat="44.58999" lon="0.88182">
        <ele>162.2058472</ele>
        <time>2022-08-12T06:31:05Z</time>
      </trkpt>
      <trkpt lat="44.58998" lon="0.88179">
        <ele>161.7256466</ele>
        <time>2022-08-12T06:31:07Z</time>
      </trkpt>
      <trkpt lat="44.58996" lon="0.88177">
        <ele>161.9177347</ele>
        <time>2022-08-12T06:31:09Z</time>
      </trkpt>
      <trkpt lat="44.58993" lon="0.88175">
        <ele>161.6516365</ele>
        <time>2022-08-12T06:31:11Z</time>
      </trkpt>
      <trkpt lat="44.5899" lon="0.88173">
        <ele>161.9736018</ele>
        <time>2022-08-12T06:31:13Z</time>
      </trkpt>
      <trkpt lat="44.58989" lon="0.8817">
        <ele>161.8541903</ele>
        <time>2022-08-12T06:31:15Z</time>
      </trkpt>
      <trkpt lat="44.58987" lon="0.88168">
        <ele>161.8113719</ele>
        <time>2022-08-12T06:31:17Z</time>
      </trkpt>
      <trkpt lat="44.58986" lon="0.88169">
        <ele>161.6696786</ele>
        <time>2022-08-12T06:31:19Z</time>
      </trkpt>
      <trkpt lat="44.58984" lon="0.88171">
        <ele>161.9396964</ele>
        <time>2022-08-12T06:31:21Z</time>
      </trkpt>
      <trkpt lat="44.58985" lon="0.88174">
        <ele>161.7016267</ele>
        <time>2022-08-12T06:31:23Z</time>
      </trkpt>
      <trkpt lat="44.58987" lon="0.88175">
        <ele>161.5502463</ele>
        <time>2022-08-12T06:31:25Z</time>
      </trkpt>
      <trkpt lat="44.58987" lon="0.88174">
        <ele>161.9283589</ele>
        <time>2022-08-12T06:31:27Z</time>
      </trkpt>
      <trkpt lat="44.58987" lon="0.88174">
        <ele>161.9283589</ele>
        <time>2022-08-12T06:31:31Z</time>
      </trkpt>
      <trkpt lat="44.58987" lon="0.88174">
        <ele>161.9283589</ele>
        <time>2022-08-12T06:31:35Z</time>
      </trkpt>
      <trkpt lat="44.58987" lon="0.88174">
        <ele>161.9283589</ele>
        <time>2022-08-12T06:31:39Z</time>
      </trkpt>
      <trkpt lat="44.58987" lon="0.88174">
        <ele>161.9283589</ele>
        <time>2022-08-12T06:31:43Z</time>
      </trkpt>
      <trkpt lat="44.58987" lon="0.88174">
        <ele>161.9283589</ele>
        <time>2022-08-12T06:31:47Z</time>
      </trkpt>
      <trkpt lat="44.58991" lon="0.8817">
        <ele>161.8219243</ele>
        <time>2022-08-12T06:31:49Z</time>
      </trkpt>
      <trkpt lat="44.58991" lon="0.8817">
        <ele>161.8219243</ele>
        <time>2022-08-12T06:31:53Z</time>
      </trkpt>
      <trkpt lat="44.58991" lon="0.88171">
        <ele>162.3121344</ele>
        <time>2022-08-12T06:31:57Z</time>
      </trkpt>
      <trkpt lat="44.58991" lon="0.88171">
        <ele>162.3121344</ele>
        <time>2022-08-12T06:32:01Z</time>
      </trkpt>
      <trkpt lat="44.58991" lon="0.88171">
        <ele>162.3121344</ele>
        <time>2022-08-12T06:32:05Z</time>
      </trkpt>
      <trkpt lat="44.58991" lon="0.88171">
        <ele>162.4839249</ele>
        <time>2022-08-12T06:32:07Z</time>
      </trkpt>
      <trkpt lat="44.58991" lon="0.88171">
        <ele>162.4258888</ele>
        <time>2022-08-12T06:32:09Z</time>
      </trkpt>
      <trkpt lat="44.58991" lon="0.88172">
        <ele>162.3768029</ele>
        <time>2022-08-12T06:32:11Z</time>
      </trkpt>
      <trkpt lat="44.58991" lon="0.88173">
        <ele>162.5794868</ele>
        <time>2022-08-12T06:32:13Z</time>
      </trkpt>
      <trkpt lat="44.58992" lon="0.88174">
        <ele>162.7624779</ele>
        <time>2022-08-12T06:32:15Z</time>
      </trkpt>
      <trkpt lat="44.58991" lon="0.88176">
        <ele>162.8120502</ele>
        <time>2022-08-12T06:32:17Z</time>
      </trkpt>
      <trkpt lat="44.58992" lon="0.88177">
        <ele>162.0514683</ele>
        <time>2022-08-12T06:32:19Z</time>
      </trkpt>
      <trkpt lat="44.58991" lon="0.88177">
        <ele>162.5335462</ele>
        <time>2022-08-12T06:32:21Z</time>
      </trkpt>
      <trkpt lat="44.58991" lon="0.88178">
        <ele>162.5424518</ele>
        <time>2022-08-12T06:32:23Z</time>
      </trkpt>
      <trkpt lat="44.58991" lon="0.88178">
        <ele>162.5050053</ele>
        <time>2022-08-12T06:32:25Z</time>
      </trkpt>
      <trkpt lat="44.58991" lon="0.88178">
        <ele>162.5050053</ele>
        <time>2022-08-12T06:32:29Z</time>
      </trkpt>
      <trkpt lat="44.58991" lon="0.88178">
        <ele>162.5050053</ele>
        <time>2022-08-12T06:32:33Z</time>
      </trkpt>
      <trkpt lat="44.58991" lon="0.88178">
        <ele>162.5050053</ele>
        <time>2022-08-12T06:32:37Z</time>
      </trkpt>
      <trkpt lat="44.58991" lon="0.88178">
        <ele>162.5050053</ele>
        <time>2022-08-12T06:32:41Z</time>
      </trkpt>
      <trkpt lat="44.58991" lon="0.88178">
        <ele>162.5050053</ele>
        <time>2022-08-12T06:32:45Z</time>
      </trkpt>
      <trkpt lat="44.58991" lon="0.88178">
        <ele>162.5050053</ele>
        <time>2022-08-12T06:32:49Z</time>
      </trkpt>
      <trkpt lat="44.58991" lon="0.88178">
        <ele>162.5050053</ele>
        <time>2022-08-12T06:32:53Z</time>
      </trkpt>
      <trkpt lat="44.58985" lon="0.88175">
        <ele>162.3605961</ele>
        <time>2022-08-12T06:32:57Z</time>
      </trkpt>
      <trkpt lat="44.58984" lon="0.88174">
        <ele>162.0011527</ele>
        <time>2022-08-12T06:33:01Z</time>
      </trkpt>
      <trkpt lat="44.58984" lon="0.88174">
        <ele>162.0011527</ele>
        <time>2022-08-12T06:33:05Z</time>
      </trkpt>
      <trkpt lat="44.58984" lon="0.88174">
        <ele>162.0011527</ele>
        <time>2022-08-12T06:33:09Z</time>
      </trkpt>
      <trkpt lat="44.58984" lon="0.88174">
        <ele>162.0011527</ele>
        <time>2022-08-12T06:33:13Z</time>
      </trkpt>
      <trkpt lat="44.58984" lon="0.88174">
        <ele>162.0011527</ele>
        <time>2022-08-12T06:33:17Z</time>
      </trkpt>
      <trkpt lat="44.58984" lon="0.88174">
        <ele>162.0011527</ele>
        <time>2022-08-12T06:33:21Z</time>
      </trkpt>
      <trkpt lat="44.58984" lon="0.88174">
        <ele>162.0011527</ele>
        <time>2022-08-12T06:33:25Z</time>
      </trkpt>
      <trkpt lat="44.58984" lon="0.88174">
        <ele>162.0011527</ele>
        <time>2022-08-12T06:33:29Z</time>
      </trkpt>
      <trkpt lat="44.58984" lon="0.88174">
        <ele>162.0011527</ele>
        <time>2022-08-12T06:33:33Z</time>
      </trkpt>
      <trkpt lat="44.58984" lon="0.88174">
        <ele>162.0011527</ele>
        <time>2022-08-12T06:33:37Z</time>
      </trkpt>
      <trkpt lat="44.58984" lon="0.88174">
        <ele>162.0011527</ele>
        <time>2022-08-12T06:33:41Z</time>
      </trkpt>
      <trkpt lat="44.58984" lon="0.88174">
        <ele>162.0011527</ele>
        <time>2022-08-12T06:33:45Z</time>
      </trkpt>
      <trkpt lat="44.58984" lon="0.88174">
        <ele>162.0011527</ele>
        <time>2022-08-12T06:33:49Z</time>
      </trkpt>
      <trkpt lat="44.58984" lon="0.88174">
        <ele>162.0011527</ele>
        <time>2022-08-12T06:33:53Z</time>
      </trkpt>
      <trkpt lat="44.58984" lon="0.88174">
        <ele>162.0011527</ele>
        <time>2022-08-12T06:33:57Z</time>
      </trkpt>
      <trkpt lat="44.58984" lon="0.88174">
        <ele>162.0011527</ele>
        <time>2022-08-12T06:34:01Z</time>
      </trkpt>
      <trkpt lat="44.58984" lon="0.88174">
        <ele>162.0011527</ele>
        <time>2022-08-12T06:34:05Z</time>
      </trkpt>
      <trkpt lat="44.58984" lon="0.88174">
        <ele>162.0011527</ele>
        <time>2022-08-12T06:34:09Z</time>
      </trkpt>
      <trkpt lat="44.58984" lon="0.88174">
        <ele>162.0011527</ele>
        <time>2022-08-12T06:34:13Z</time>
      </trkpt>
      <trkpt lat="44.58984" lon="0.88174">
        <ele>162.0011527</ele>
        <time>2022-08-12T06:34:17Z</time>
      </trkpt>
      <trkpt lat="44.58984" lon="0.88174">
        <ele>162.0011527</ele>
        <time>2022-08-12T06:34:21Z</time>
      </trkpt>
      <trkpt lat="44.58984" lon="0.88174">
        <ele>162.0011527</ele>
        <time>2022-08-12T06:34:25Z</time>
      </trkpt>
      <trkpt lat="44.58984" lon="0.88174">
        <ele>162.0011527</ele>
        <time>2022-08-12T06:34:29Z</time>
      </trkpt>
      <trkpt lat="44.58984" lon="0.88174">
        <ele>162.0011527</ele>
        <time>2022-08-12T06:34:33Z</time>
      </trkpt>
      <trkpt lat="44.58984" lon="0.88174">
        <ele>162.0011527</ele>
        <time>2022-08-12T06:34:37Z</time>
      </trkpt>
      <trkpt lat="44.58984" lon="0.88174">
        <ele>162.0011527</ele>
        <time>2022-08-12T06:34:41Z</time>
      </trkpt>
      <trkpt lat="44.58984" lon="0.88174">
        <ele>162.0011527</ele>
        <time>2022-08-12T06:34:45Z</time>
      </trkpt>
      <trkpt lat="44.58984" lon="0.88174">
        <ele>162.0011527</ele>
        <time>2022-08-12T06:34:49Z</time>
      </trkpt>
      <trkpt lat="44.58984" lon="0.88174">
        <ele>162.0011527</ele>
        <time>2022-08-12T06:34:53Z</time>
      </trkpt>
      <trkpt lat="44.58984" lon="0.88174">
        <ele>162.0011527</ele>
        <time>2022-08-12T06:34:57Z</time>
      </trkpt>
      <trkpt lat="44.58984" lon="0.88174">
        <ele>162.0011527</ele>
        <time>2022-08-12T06:35:01Z</time>
      </trkpt>
      <trkpt lat="44.58984" lon="0.88177">
        <ele>160.9441884</ele>
        <time>2022-08-12T06:35:03Z</time>
      </trkpt>
      <trkpt lat="44.58984" lon="0.88177">
        <ele>160.9096086</ele>
        <time>2022-08-12T06:35:05Z</time>
      </trkpt>
      <trkpt lat="44.58984" lon="0.88177">
        <ele>160.9096086</ele>
        <time>2022-08-12T06:35:09Z</time>
      </trkpt>
      <trkpt lat="44.58984" lon="0.88177">
        <ele>160.6050853</ele>
        <time>2022-08-12T06:35:11Z</time>
      </trkpt>
      <trkpt lat="44.58984" lon="0.88177">
        <ele>160.6050853</ele>
        <time>2022-08-12T06:35:15Z</time>
      </trkpt>
      <trkpt lat="44.58984" lon="0.88177">
        <ele>160.6050853</ele>
        <time>2022-08-12T06:35:19Z</time>
      </trkpt>
      <trkpt lat="44.58984" lon="0.88177">
        <ele>160.6050853</ele>
        <time>2022-08-12T06:35:23Z</time>
      </trkpt>
      <trkpt lat="44.58983" lon="0.88175">
        <ele>160.7625239</ele>
        <time>2022-08-12T06:35:25Z</time>
      </trkpt>
      <trkpt lat="44.58983" lon="0.88175">
        <ele>160.7625239</ele>
        <time>2022-08-12T06:35:29Z</time>
      </trkpt>
      <trkpt lat="44.58983" lon="0.88175">
        <ele>160.7625239</ele>
        <time>2022-08-12T06:35:33Z</time>
      </trkpt>
      <trkpt lat="44.58983" lon="0.88175">
        <ele>160.7625239</ele>
        <time>2022-08-12T06:35:37Z</time>
      </trkpt>
      <trkpt lat="44.58983" lon="0.88175">
        <ele>160.7625239</ele>
        <time>2022-08-12T06:35:41Z</time>
      </trkpt>
      <trkpt lat="44.58983" lon="0.88175">
        <ele>160.7625239</ele>
        <time>2022-08-12T06:35:45Z</time>
      </trkpt>
      <trkpt lat="44.58983" lon="0.88175">
        <ele>160.7625239</ele>
        <time>2022-08-12T06:35:49Z</time>
      </trkpt>
      <trkpt lat="44.58983" lon="0.88175">
        <ele>160.7625239</ele>
        <time>2022-08-12T06:35:53Z</time>
      </trkpt>
      <trkpt lat="44.58983" lon="0.88175">
        <ele>160.7625239</ele>
        <time>2022-08-12T06:35:57Z</time>
      </trkpt>
      <trkpt lat="44.58983" lon="0.88175">
        <ele>160.7625239</ele>
        <time>2022-08-12T06:36:01Z</time>
      </trkpt>
      <trkpt lat="44.58983" lon="0.88175">
        <ele>160.7625239</ele>
        <time>2022-08-12T06:36:05Z</time>
      </trkpt>
      <trkpt lat="44.58983" lon="0.88175">
        <ele>160.7625239</ele>
        <time>2022-08-12T06:36:09Z</time>
      </trkpt>
      <trkpt lat="44.58983" lon="0.88175">
        <ele>160.7625239</ele>
        <time>2022-08-12T06:36:13Z</time>
      </trkpt>
      <trkpt lat="44.58983" lon="0.88175">
        <ele>160.7625239</ele>
        <time>2022-08-12T06:36:17Z</time>
      </trkpt>
      <trkpt lat="44.58983" lon="0.88175">
        <ele>160.7625239</ele>
        <time>2022-08-12T06:36:21Z</time>
      </trkpt>
      <trkpt lat="44.58983" lon="0.88175">
        <ele>160.7625239</ele>
        <time>2022-08-12T06:36:25Z</time>
      </trkpt>
      <trkpt lat="44.58983" lon="0.88175">
        <ele>160.7625239</ele>
        <time>2022-08-12T06:36:29Z</time>
      </trkpt>
      <trkpt lat="44.58983" lon="0.88175">
        <ele>160.7625239</ele>
        <time>2022-08-12T06:36:33Z</time>
      </trkpt>
      <trkpt lat="44.58983" lon="0.88175">
        <ele>160.7625239</ele>
        <time>2022-08-12T06:36:37Z</time>
      </trkpt>
      <trkpt lat="44.58983" lon="0.88175">
        <ele>160.7625239</ele>
        <time>2022-08-12T06:36:41Z</time>
      </trkpt>
      <trkpt lat="44.58983" lon="0.88175">
        <ele>160.7625239</ele>
        <time>2022-08-12T06:36:45Z</time>
      </trkpt>
      <trkpt lat="44.58983" lon="0.88175">
        <ele>160.7625239</ele>
        <time>2022-08-12T06:36:49Z</time>
      </trkpt>
      <trkpt lat="44.58983" lon="0.88175">
        <ele>160.7625239</ele>
        <time>2022-08-12T06:36:53Z</time>
      </trkpt>
      <trkpt lat="44.58983" lon="0.88175">
        <ele>160.7625239</ele>
        <time>2022-08-12T06:36:57Z</time>
      </trkpt>
      <trkpt lat="44.58983" lon="0.88175">
        <ele>160.7625239</ele>
        <time>2022-08-12T06:37:01Z</time>
      </trkpt>
      <trkpt lat="44.58983" lon="0.88175">
        <ele>160.7625239</ele>
        <time>2022-08-12T06:37:05Z</time>
      </trkpt>
      <trkpt lat="44.58983" lon="0.88175">
        <ele>160.7625239</ele>
        <time>2022-08-12T06:37:09Z</time>
      </trkpt>
      <trkpt lat="44.58983" lon="0.88175">
        <ele>160.7625239</ele>
        <time>2022-08-12T06:37:13Z</time>
      </trkpt>
      <trkpt lat="44.58983" lon="0.88175">
        <ele>160.7625239</ele>
        <time>2022-08-12T06:37:17Z</time>
      </trkpt>
      <trkpt lat="44.58983" lon="0.88175">
        <ele>160.7625239</ele>
        <time>2022-08-12T06:37:21Z</time>
      </trkpt>
      <trkpt lat="44.58983" lon="0.88175">
        <ele>160.7625239</ele>
        <time>2022-08-12T06:37:25Z</time>
      </trkpt>
      <trkpt lat="44.58983" lon="0.88175">
        <ele>160.7625239</ele>
        <time>2022-08-12T06:37:29Z</time>
      </trkpt>
      <trkpt lat="44.58983" lon="0.88175">
        <ele>160.7625239</ele>
        <time>2022-08-12T06:37:33Z</time>
      </trkpt>
      <trkpt lat="44.58983" lon="0.88175">
        <ele>160.7625239</ele>
        <time>2022-08-12T06:37:37Z</time>
      </trkpt>
      <trkpt lat="44.58983" lon="0.88175">
        <ele>160.7625239</ele>
        <time>2022-08-12T06:37:41Z</time>
      </trkpt>
      <trkpt lat="44.58983" lon="0.88175">
        <ele>160.7625239</ele>
        <time>2022-08-12T06:37:45Z</time>
      </trkpt>
      <trkpt lat="44.58983" lon="0.88175">
        <ele>160.7625239</ele>
        <time>2022-08-12T06:37:49Z</time>
      </trkpt>
      <trkpt lat="44.58983" lon="0.88175">
        <ele>160.7625239</ele>
        <time>2022-08-12T06:37:53Z</time>
      </trkpt>
      <trkpt lat="44.58983" lon="0.88175">
        <ele>160.7625239</ele>
        <time>2022-08-12T06:37:57Z</time>
      </trkpt>
      <trkpt lat="44.58983" lon="0.88175">
        <ele>160.7625239</ele>
        <time>2022-08-12T06:38:01Z</time>
      </trkpt>
      <trkpt lat="44.58983" lon="0.88175">
        <ele>160.7625239</ele>
        <time>2022-08-12T06:38:05Z</time>
      </trkpt>
      <trkpt lat="44.58983" lon="0.88175">
        <ele>160.7625239</ele>
        <time>2022-08-12T06:38:09Z</time>
      </trkpt>
      <trkpt lat="44.58983" lon="0.88175">
        <ele>160.7625239</ele>
        <time>2022-08-12T06:38:13Z</time>
      </trkpt>
      <trkpt lat="44.58983" lon="0.88175">
        <ele>160.7625239</ele>
        <time>2022-08-12T06:38:17Z</time>
      </trkpt>
      <trkpt lat="44.58983" lon="0.88175">
        <ele>160.7625239</ele>
        <time>2022-08-12T06:38:21Z</time>
      </trkpt>
      <trkpt lat="44.58983" lon="0.88175">
        <ele>160.7625239</ele>
        <time>2022-08-12T06:38:25Z</time>
      </trkpt>
      <trkpt lat="44.58983" lon="0.88175">
        <ele>160.7625239</ele>
        <time>2022-08-12T06:38:29Z</time>
      </trkpt>
      <trkpt lat="44.58983" lon="0.88175">
        <ele>160.7625239</ele>
        <time>2022-08-12T06:38:33Z</time>
      </trkpt>
      <trkpt lat="44.58983" lon="0.88175">
        <ele>160.7625239</ele>
        <time>2022-08-12T06:38:37Z</time>
      </trkpt>
      <trkpt lat="44.58983" lon="0.88175">
        <ele>160.7625239</ele>
        <time>2022-08-12T06:38:41Z</time>
      </trkpt>
      <trkpt lat="44.58983" lon="0.88175">
        <ele>160.7625239</ele>
        <time>2022-08-12T06:38:45Z</time>
      </trkpt>
      <trkpt lat="44.58983" lon="0.88175">
        <ele>160.7625239</ele>
        <time>2022-08-12T06:38:49Z</time>
      </trkpt>
      <trkpt lat="44.58983" lon="0.88175">
        <ele>160.7625239</ele>
        <time>2022-08-12T06:38:53Z</time>
      </trkpt>
      <trkpt lat="44.58983" lon="0.88175">
        <ele>160.7625239</ele>
        <time>2022-08-12T06:38:57Z</time>
      </trkpt>
      <trkpt lat="44.58983" lon="0.88175">
        <ele>160.7625239</ele>
        <time>2022-08-12T06:39:01Z</time>
      </trkpt>
      <trkpt lat="44.58983" lon="0.88175">
        <ele>160.7625239</ele>
        <time>2022-08-12T06:39:05Z</time>
      </trkpt>
      <trkpt lat="44.58983" lon="0.88175">
        <ele>160.7625239</ele>
        <time>2022-08-12T06:39:09Z</time>
      </trkpt>
      <trkpt lat="44.58983" lon="0.88175">
        <ele>160.7625239</ele>
        <time>2022-08-12T06:39:13Z</time>
      </trkpt>
      <trkpt lat="44.58983" lon="0.88175">
        <ele>160.7625239</ele>
        <time>2022-08-12T06:39:17Z</time>
      </trkpt>
      <trkpt lat="44.58983" lon="0.88175">
        <ele>160.7625239</ele>
        <time>2022-08-12T06:39:21Z</time>
      </trkpt>
      <trkpt lat="44.58983" lon="0.88175">
        <ele>160.7625239</ele>
        <time>2022-08-12T06:39:25Z</time>
      </trkpt>
      <trkpt lat="44.58983" lon="0.88175">
        <ele>160.7625239</ele>
        <time>2022-08-12T06:39:29Z</time>
      </trkpt>
      <trkpt lat="44.58983" lon="0.88175">
        <ele>160.7625239</ele>
        <time>2022-08-12T06:39:33Z</time>
      </trkpt>
      <trkpt lat="44.58983" lon="0.88175">
        <ele>160.7625239</ele>
        <time>2022-08-12T06:39:37Z</time>
      </trkpt>
      <trkpt lat="44.58983" lon="0.88175">
        <ele>160.7625239</ele>
        <time>2022-08-12T06:39:41Z</time>
      </trkpt>
      <trkpt lat="44.58983" lon="0.88175">
        <ele>160.7625239</ele>
        <time>2022-08-12T06:39:45Z</time>
      </trkpt>
      <trkpt lat="44.58983" lon="0.88175">
        <ele>160.7625239</ele>
        <time>2022-08-12T06:39:49Z</time>
      </trkpt>
      <trkpt lat="44.58983" lon="0.88175">
        <ele>160.7625239</ele>
        <time>2022-08-12T06:39:53Z</time>
      </trkpt>
      <trkpt lat="44.58983" lon="0.88175">
        <ele>160.7625239</ele>
        <time>2022-08-12T06:39:57Z</time>
      </trkpt>
      <trkpt lat="44.58983" lon="0.88175">
        <ele>160.7625239</ele>
        <time>2022-08-12T06:40:01Z</time>
      </trkpt>
      <trkpt lat="44.58983" lon="0.88175">
        <ele>160.7625239</ele>
        <time>2022-08-12T06:40:05Z</time>
      </trkpt>
      <trkpt lat="44.58983" lon="0.88175">
        <ele>160.7625239</ele>
        <time>2022-08-12T06:40:09Z</time>
      </trkpt>
      <trkpt lat="44.58983" lon="0.88175">
        <ele>160.7625239</ele>
        <time>2022-08-12T06:40:13Z</time>
      </trkpt>
      <trkpt lat="44.58983" lon="0.88175">
        <ele>160.7625239</ele>
        <time>2022-08-12T06:40:17Z</time>
      </trkpt>
      <trkpt lat="44.58983" lon="0.88175">
        <ele>160.7625239</ele>
        <time>2022-08-12T06:40:21Z</time>
      </trkpt>
      <trkpt lat="44.58983" lon="0.88175">
        <ele>160.7625239</ele>
        <time>2022-08-12T06:40:25Z</time>
      </trkpt>
      <trkpt lat="44.58983" lon="0.88175">
        <ele>160.7625239</ele>
        <time>2022-08-12T06:40:29Z</time>
      </trkpt>
      <trkpt lat="44.58983" lon="0.88175">
        <ele>160.7625239</ele>
        <time>2022-08-12T06:40:33Z</time>
      </trkpt>
      <trkpt lat="44.58983" lon="0.88175">
        <ele>160.7625239</ele>
        <time>2022-08-12T06:40:37Z</time>
      </trkpt>
      <trkpt lat="44.58983" lon="0.88175">
        <ele>160.7625239</ele>
        <time>2022-08-12T06:40:41Z</time>
      </trkpt>
      <trkpt lat="44.58983" lon="0.88175">
        <ele>160.7625239</ele>
        <time>2022-08-12T06:40:45Z</time>
      </trkpt>
      <trkpt lat="44.58983" lon="0.88175">
        <ele>160.7625239</ele>
        <time>2022-08-12T06:40:49Z</time>
      </trkpt>
      <trkpt lat="44.58983" lon="0.88175">
        <ele>160.7625239</ele>
        <time>2022-08-12T06:40:53Z</time>
      </trkpt>
      <trkpt lat="44.58983" lon="0.88175">
        <ele>160.7625239</ele>
        <time>2022-08-12T06:40:57Z</time>
      </trkpt>
      <trkpt lat="44.58983" lon="0.88175">
        <ele>160.7625239</ele>
        <time>2022-08-12T06:41:01Z</time>
      </trkpt>
      <trkpt lat="44.58983" lon="0.88175">
        <ele>160.7625239</ele>
        <time>2022-08-12T06:41:05Z</time>
      </trkpt>
      <trkpt lat="44.58983" lon="0.88175">
        <ele>160.7625239</ele>
        <time>2022-08-12T06:41:09Z</time>
      </trkpt>
      <trkpt lat="44.58983" lon="0.88175">
        <ele>160.7625239</ele>
        <time>2022-08-12T06:41:13Z</time>
      </trkpt>
      <trkpt lat="44.58983" lon="0.88175">
        <ele>160.7625239</ele>
        <time>2022-08-12T06:41:17Z</time>
      </trkpt>
      <trkpt lat="44.58983" lon="0.88175">
        <ele>160.7625239</ele>
        <time>2022-08-12T06:41:21Z</time>
      </trkpt>
      <trkpt lat="44.58983" lon="0.88175">
        <ele>160.7625239</ele>
        <time>2022-08-12T06:41:25Z</time>
      </trkpt>
      <trkpt lat="44.58983" lon="0.88175">
        <ele>160.7625239</ele>
        <time>2022-08-12T06:41:29Z</time>
      </trkpt>
      <trkpt lat="44.58983" lon="0.88175">
        <ele>160.7625239</ele>
        <time>2022-08-12T06:41:33Z</time>
      </trkpt>
      <trkpt lat="44.58983" lon="0.88175">
        <ele>160.7625239</ele>
        <time>2022-08-12T06:41:37Z</time>
      </trkpt>
      <trkpt lat="44.58983" lon="0.88175">
        <ele>160.7625239</ele>
        <time>2022-08-12T06:41:41Z</time>
      </trkpt>
      <trkpt lat="44.58983" lon="0.88175">
        <ele>160.7625239</ele>
        <time>2022-08-12T06:41:45Z</time>
      </trkpt>
      <trkpt lat="44.58983" lon="0.88175">
        <ele>160.7625239</ele>
        <time>2022-08-12T06:41:49Z</time>
      </trkpt>
      <trkpt lat="44.58983" lon="0.88175">
        <ele>160.7625239</ele>
        <time>2022-08-12T06:41:53Z</time>
      </trkpt>
      <trkpt lat="44.58983" lon="0.88175">
        <ele>160.7625239</ele>
        <time>2022-08-12T06:41:57Z</time>
      </trkpt>
      <trkpt lat="44.58983" lon="0.88175">
        <ele>160.7625239</ele>
        <time>2022-08-12T06:42:01Z</time>
      </trkpt>
      <trkpt lat="44.58983" lon="0.88175">
        <ele>160.7625239</ele>
        <time>2022-08-12T06:42:05Z</time>
      </trkpt>
      <trkpt lat="44.58983" lon="0.88175">
        <ele>160.7625239</ele>
        <time>2022-08-12T06:42:09Z</time>
      </trkpt>
      <trkpt lat="44.58983" lon="0.88175">
        <ele>160.7625239</ele>
        <time>2022-08-12T06:42:13Z</time>
      </trkpt>
      <trkpt lat="44.58983" lon="0.88175">
        <ele>160.7625239</ele>
        <time>2022-08-12T06:42:17Z</time>
      </trkpt>
      <trkpt lat="44.58983" lon="0.88175">
        <ele>160.7625239</ele>
        <time>2022-08-12T06:42:21Z</time>
      </trkpt>
      <trkpt lat="44.58983" lon="0.88175">
        <ele>160.7625239</ele>
        <time>2022-08-12T06:42:25Z</time>
      </trkpt>
      <trkpt lat="44.58983" lon="0.88175">
        <ele>160.7625239</ele>
        <time>2022-08-12T06:42:29Z</time>
      </trkpt>
      <trkpt lat="44.58983" lon="0.88175">
        <ele>160.7625239</ele>
        <time>2022-08-12T06:42:33Z</time>
      </trkpt>
      <trkpt lat="44.58983" lon="0.88175">
        <ele>160.7625239</ele>
        <time>2022-08-12T06:42:37Z</time>
      </trkpt>
      <trkpt lat="44.58983" lon="0.88175">
        <ele>160.7625239</ele>
        <time>2022-08-12T06:42:41Z</time>
      </trkpt>
      <trkpt lat="44.58983" lon="0.88175">
        <ele>160.7625239</ele>
        <time>2022-08-12T06:42:45Z</time>
      </trkpt>
      <trkpt lat="44.58983" lon="0.88173">
        <ele>161.2945565</ele>
        <time>2022-08-12T06:42:47Z</time>
      </trkpt>
      <trkpt lat="44.58983" lon="0.88173">
        <ele>161.306069</ele>
        <time>2022-08-12T06:42:49Z</time>
      </trkpt>
      <trkpt lat="44.58983" lon="0.88174">
        <ele>161.3496344</ele>
        <time>2022-08-12T06:42:53Z</time>
      </trkpt>
      <trkpt lat="44.58983" lon="0.88174">
        <ele>161.3882864</ele>
        <time>2022-08-12T06:42:55Z</time>
      </trkpt>
      <trkpt lat="44.58983" lon="0.88174">
        <ele>161.3882864</ele>
        <time>2022-08-12T06:42:59Z</time>
      </trkpt>
      <trkpt lat="44.58983" lon="0.88174">
        <ele>161.3882864</ele>
        <time>2022-08-12T06:43:03Z</time>
      </trkpt>
      <trkpt lat="44.58983" lon="0.88174">
        <ele>161.3882864</ele>
        <time>2022-08-12T06:43:07Z</time>
      </trkpt>
      <trkpt lat="44.58983" lon="0.88174">
        <ele>161.3882864</ele>
        <time>2022-08-12T06:43:11Z</time>
      </trkpt>
      <trkpt lat="44.58983" lon="0.88175">
        <ele>161.0633288</ele>
        <time>2022-08-12T06:43:13Z</time>
      </trkpt>
      <trkpt lat="44.58983" lon="0.88175">
        <ele>161.0633288</ele>
        <time>2022-08-12T06:43:17Z</time>
      </trkpt>
      <trkpt lat="44.58983" lon="0.88175">
        <ele>161.0633288</ele>
        <time>2022-08-12T06:43:21Z</time>
      </trkpt>
      <trkpt lat="44.58983" lon="0.88175">
        <ele>161.0633288</ele>
        <time>2022-08-12T06:43:25Z</time>
      </trkpt>
      <trkpt lat="44.58983" lon="0.88175">
        <ele>161.0633288</ele>
        <time>2022-08-12T06:43:29Z</time>
      </trkpt>
      <trkpt lat="44.58983" lon="0.88175">
        <ele>161.0633288</ele>
        <time>2022-08-12T06:43:33Z</time>
      </trkpt>
      <trkpt lat="44.58983" lon="0.88175">
        <ele>161.0633288</ele>
        <time>2022-08-12T06:43:37Z</time>
      </trkpt>
      <trkpt lat="44.58983" lon="0.88175">
        <ele>161.0633288</ele>
        <time>2022-08-12T06:43:41Z</time>
      </trkpt>
      <trkpt lat="44.58983" lon="0.88175">
        <ele>161.0633288</ele>
        <time>2022-08-12T06:43:45Z</time>
      </trkpt>
      <trkpt lat="44.58983" lon="0.88175">
        <ele>161.0633288</ele>
        <time>2022-08-12T06:43:49Z</time>
      </trkpt>
      <trkpt lat="44.58983" lon="0.88175">
        <ele>161.0633288</ele>
        <time>2022-08-12T06:43:53Z</time>
      </trkpt>
      <trkpt lat="44.58983" lon="0.88175">
        <ele>161.0633288</ele>
        <time>2022-08-12T06:43:57Z</time>
      </trkpt>
      <trkpt lat="44.58985" lon="0.88173">
        <ele>161.2126467</ele>
        <time>2022-08-12T06:43:59Z</time>
      </trkpt>
      <trkpt lat="44.58985" lon="0.88172">
        <ele>161.1864051</ele>
        <time>2022-08-12T06:44:01Z</time>
      </trkpt>
      <trkpt lat="44.58985" lon="0.88172">
        <ele>161.1864051</ele>
        <time>2022-08-12T06:44:05Z</time>
      </trkpt>
      <trkpt lat="44.58985" lon="0.88172">
        <ele>161.1864051</ele>
        <time>2022-08-12T06:44:09Z</time>
      </trkpt>
      <trkpt lat="44.58985" lon="0.88172">
        <ele>161.1864051</ele>
        <time>2022-08-12T06:44:13Z</time>
      </trkpt>
      <trkpt lat="44.58985" lon="0.88172">
        <ele>161.1864051</ele>
        <time>2022-08-12T06:44:17Z</time>
      </trkpt>
      <trkpt lat="44.58985" lon="0.88172">
        <ele>161.1864051</ele>
        <time>2022-08-12T06:44:21Z</time>
      </trkpt>
      <trkpt lat="44.58986" lon="0.88175">
        <ele>161.0151273</ele>
        <time>2022-08-12T06:44:23Z</time>
      </trkpt>
      <trkpt lat="44.58986" lon="0.88175">
        <ele>160.9947715</ele>
        <time>2022-08-12T06:44:25Z</time>
      </trkpt>
      <trkpt lat="44.58987" lon="0.88175">
        <ele>161.0386348</ele>
        <time>2022-08-12T06:44:27Z</time>
      </trkpt>
      <trkpt lat="44.58987" lon="0.88175">
        <ele>160.9507363</ele>
        <time>2022-08-12T06:44:29Z</time>
      </trkpt>
      <trkpt lat="44.58988" lon="0.88175">
        <ele>161.0069482</ele>
        <time>2022-08-12T06:44:31Z</time>
      </trkpt>
      <trkpt lat="44.58988" lon="0.88175">
        <ele>161.157164</ele>
        <time>2022-08-12T06:44:33Z</time>
      </trkpt>
      <trkpt lat="44.58988" lon="0.88175">
        <ele>161.2333108</ele>
        <time>2022-08-12T06:44:35Z</time>
      </trkpt>
      <trkpt lat="44.58988" lon="0.88175">
        <ele>161.223516</ele>
        <time>2022-08-12T06:44:37Z</time>
      </trkpt>
      <trkpt lat="44.58988" lon="0.88175">
        <ele>161.223516</ele>
        <time>2022-08-12T06:44:41Z</time>
      </trkpt>
      <trkpt lat="44.58988" lon="0.88173">
        <ele>161.4917756</ele>
        <time>2022-08-12T06:44:45Z</time>
      </trkpt>
      <trkpt lat="44.58988" lon="0.88173">
        <ele>161.4917756</ele>
        <time>2022-08-12T06:44:49Z</time>
      </trkpt>
      <trkpt lat="44.58988" lon="0.88173">
        <ele>161.4917756</ele>
        <time>2022-08-12T06:44:53Z</time>
      </trkpt>
      <trkpt lat="44.58988" lon="0.88173">
        <ele>161.4917756</ele>
        <time>2022-08-12T06:44:57Z</time>
      </trkpt>
      <trkpt lat="44.58988" lon="0.88173">
        <ele>161.4917756</ele>
        <time>2022-08-12T06:45:01Z</time>
      </trkpt>
      <trkpt lat="44.58988" lon="0.88172">
        <ele>161.7033164</ele>
        <time>2022-08-12T06:45:03Z</time>
      </trkpt>
      <trkpt lat="44.58988" lon="0.88172">
        <ele>161.7033164</ele>
        <time>2022-08-12T06:45:07Z</time>
      </trkpt>
      <trkpt lat="44.58988" lon="0.88172">
        <ele>161.7033164</ele>
        <time>2022-08-12T06:45:11Z</time>
      </trkpt>
      <trkpt lat="44.58988" lon="0.88172">
        <ele>161.6297294</ele>
        <time>2022-08-12T06:45:15Z</time>
      </trkpt>
      <trkpt lat="44.58987" lon="0.88172">
        <ele>161.6797757</ele>
        <time>2022-08-12T06:45:17Z</time>
      </trkpt>
      <trkpt lat="44.58988" lon="0.88172">
        <ele>161.7461008</ele>
        <time>2022-08-12T06:45:19Z</time>
      </trkpt>
      <trkpt lat="44.58988" lon="0.88172">
        <ele>161.6495458</ele>
        <time>2022-08-12T06:45:21Z</time>
      </trkpt>
      <trkpt lat="44.58988" lon="0.88172">
        <ele>161.5049299</ele>
        <time>2022-08-12T06:45:23Z</time>
      </trkpt>
      <trkpt lat="44.58988" lon="0.88173">
        <ele>161.397859</ele>
        <time>2022-08-12T06:45:25Z</time>
      </trkpt>
      <trkpt lat="44.58988" lon="0.88173">
        <ele>161.3930312</ele>
        <time>2022-08-12T06:45:27Z</time>
      </trkpt>
      <trkpt lat="44.58988" lon="0.88173">
        <ele>161.4048461</ele>
        <time>2022-08-12T06:45:29Z</time>
      </trkpt>
      <trkpt lat="44.58989" lon="0.88174">
        <ele>161.2721232</ele>
        <time>2022-08-12T06:45:31Z</time>
      </trkpt>
      <trkpt lat="44.58989" lon="0.88174">
        <ele>161.1697298</ele>
        <time>2022-08-12T06:45:33Z</time>
      </trkpt>
      <trkpt lat="44.58989" lon="0.88174">
        <ele>161.289152</ele>
        <time>2022-08-12T06:45:35Z</time>
      </trkpt>
      <trkpt lat="44.58989" lon="0.88174">
        <ele>161.36712</ele>
        <time>2022-08-12T06:45:37Z</time>
      </trkpt>
      <trkpt lat="44.58989" lon="0.88174">
        <ele>161.4956177</ele>
        <time>2022-08-12T06:45:39Z</time>
      </trkpt>
      <trkpt lat="44.58989" lon="0.88174">
        <ele>161.4886396</ele>
        <time>2022-08-12T06:45:41Z</time>
      </trkpt>
      <trkpt lat="44.58989" lon="0.88174">
        <ele>161.4886396</ele>
        <time>2022-08-12T06:45:45Z</time>
      </trkpt>
      <trkpt lat="44.58989" lon="0.88172">
        <ele>161.6937496</ele>
        <time>2022-08-12T06:45:47Z</time>
      </trkpt>
      <trkpt lat="44.58989" lon="0.88172">
        <ele>161.6937496</ele>
        <time>2022-08-12T06:45:51Z</time>
      </trkpt>
      <trkpt lat="44.58989" lon="0.88172">
        <ele>161.6937496</ele>
        <time>2022-08-12T06:45:55Z</time>
      </trkpt>
      <trkpt lat="44.58988" lon="0.88169">
        <ele>162.0447957</ele>
        <time>2022-08-12T06:45:59Z</time>
      </trkpt>
      <trkpt lat="44.58988" lon="0.8817">
        <ele>161.9204344</ele>
        <time>2022-08-12T06:46:01Z</time>
      </trkpt>
      <trkpt lat="44.58989" lon="0.8817">
        <ele>161.8645301</ele>
        <time>2022-08-12T06:46:03Z</time>
      </trkpt>
      <trkpt lat="44.58989" lon="0.88171">
        <ele>161.7676845</ele>
        <time>2022-08-12T06:46:05Z</time>
      </trkpt>
      <trkpt lat="44.58989" lon="0.88171">
        <ele>161.8024496</ele>
        <time>2022-08-12T06:46:07Z</time>
      </trkpt>
      <trkpt lat="44.58989" lon="0.88171">
        <ele>161.810637</ele>
        <time>2022-08-12T06:46:09Z</time>
      </trkpt>
      <trkpt lat="44.58989" lon="0.88171">
        <ele>161.810637</ele>
        <time>2022-08-12T06:46:13Z</time>
      </trkpt>
      <trkpt lat="44.58989" lon="0.88172">
        <ele>161.7469976</ele>
        <time>2022-08-12T06:46:17Z</time>
      </trkpt>
      <trkpt lat="44.58989" lon="0.88172">
        <ele>161.7469976</ele>
        <time>2022-08-12T06:46:21Z</time>
      </trkpt>
      <trkpt lat="44.58989" lon="0.88172">
        <ele>162.0933731</ele>
        <time>2022-08-12T06:46:23Z</time>
      </trkpt>
      <trkpt lat="44.58989" lon="0.88172">
        <ele>162.1841971</ele>
        <time>2022-08-12T06:46:25Z</time>
      </trkpt>
      <trkpt lat="44.58989" lon="0.88172">
        <ele>162.1841971</ele>
        <time>2022-08-12T06:46:29Z</time>
      </trkpt>
      <trkpt lat="44.58988" lon="0.88171">
        <ele>162.0103342</ele>
        <time>2022-08-12T06:46:31Z</time>
      </trkpt>
      <trkpt lat="44.58988" lon="0.88171">
        <ele>162.0103342</ele>
        <time>2022-08-12T06:46:35Z</time>
      </trkpt>
      <trkpt lat="44.58988" lon="0.88171">
        <ele>162.0103342</ele>
        <time>2022-08-12T06:46:39Z</time>
      </trkpt>
      <trkpt lat="44.58989" lon="0.88171">
        <ele>161.2615019</ele>
        <time>2022-08-12T06:46:43Z</time>
      </trkpt>
      <trkpt lat="44.5899" lon="0.88172">
        <ele>161.3367138</ele>
        <time>2022-08-12T06:46:45Z</time>
      </trkpt>
      <trkpt lat="44.58994" lon="0.88175">
        <ele>161.5996095</ele>
        <time>2022-08-12T06:46:47Z</time>
      </trkpt>
      <trkpt lat="44.58997" lon="0.88177">
        <ele>161.5204863</ele>
        <time>2022-08-12T06:46:49Z</time>
      </trkpt>
      <trkpt lat="44.59" lon="0.8818">
        <ele>162.1742471</ele>
        <time>2022-08-12T06:46:51Z</time>
      </trkpt>
      <trkpt lat="44.59003" lon="0.88184">
        <ele>162.2728259</ele>
        <time>2022-08-12T06:46:53Z</time>
      </trkpt>
      <trkpt lat="44.59007" lon="0.88187">
        <ele>161.5689524</ele>
        <time>2022-08-12T06:46:55Z</time>
      </trkpt>
      <trkpt lat="44.59011" lon="0.88191">
        <ele>161.6581071</ele>
        <time>2022-08-12T06:46:57Z</time>
      </trkpt>
      <trkpt lat="44.59015" lon="0.88196">
        <ele>160.9327759</ele>
        <time>2022-08-12T06:46:59Z</time>
      </trkpt>
      <trkpt lat="44.59018" lon="0.88201">
        <ele>160.620243</ele>
        <time>2022-08-12T06:47:01Z</time>
      </trkpt>
      <trkpt lat="44.5902" lon="0.88206">
        <ele>160.4022392</ele>
        <time>2022-08-12T06:47:03Z</time>
      </trkpt>
      <trkpt lat="44.59022" lon="0.88209">
        <ele>160.3487496</ele>
        <time>2022-08-12T06:47:05Z</time>
      </trkpt>
      <trkpt lat="44.59023" lon="0.88213">
        <ele>160.0767673</ele>
        <time>2022-08-12T06:47:07Z</time>
      </trkpt>
      <trkpt lat="44.59025" lon="0.88216">
        <ele>159.792002</ele>
        <time>2022-08-12T06:47:09Z</time>
      </trkpt>
      <trkpt lat="44.59027" lon="0.88222">
        <ele>159.3196433</ele>
        <time>2022-08-12T06:47:11Z</time>
      </trkpt>
      <trkpt lat="44.59027" lon="0.8823">
        <ele>158.9559542</ele>
        <time>2022-08-12T06:47:13Z</time>
      </trkpt>
      <trkpt lat="44.59027" lon="0.88238">
        <ele>158.1727552</ele>
        <time>2022-08-12T06:47:15Z</time>
      </trkpt>
      <trkpt lat="44.59023" lon="0.88248">
        <ele>156.3492142</ele>
        <time>2022-08-12T06:47:17Z</time>
      </trkpt>
      <trkpt lat="44.59014" lon="0.88253">
        <ele>155.9294939</ele>
        <time>2022-08-12T06:47:19Z</time>
      </trkpt>
      <trkpt lat="44.59006" lon="0.88255">
        <ele>153.7388333</ele>
        <time>2022-08-12T06:47:21Z</time>
      </trkpt>
      <trkpt lat="44.58996" lon="0.88258">
        <ele>152.7267428</ele>
        <time>2022-08-12T06:47:23Z</time>
      </trkpt>
      <trkpt lat="44.58986" lon="0.88259">
        <ele>151.0010412</ele>
        <time>2022-08-12T06:47:25Z</time>
      </trkpt>
      <trkpt lat="44.58977" lon="0.88261">
        <ele>150.5356437</ele>
        <time>2022-08-12T06:47:27Z</time>
      </trkpt>
      <trkpt lat="44.58967" lon="0.88263">
        <ele>148.9489255</ele>
        <time>2022-08-12T06:47:29Z</time>
      </trkpt>
      <trkpt lat="44.58954" lon="0.88266">
        <ele>147.8309158</ele>
        <time>2022-08-12T06:47:31Z</time>
      </trkpt>
      <trkpt lat="44.58941" lon="0.8827">
        <ele>147.9272501</ele>
        <time>2022-08-12T06:47:33Z</time>
      </trkpt>
      <trkpt lat="44.58927" lon="0.88276">
        <ele>147.6284979</ele>
        <time>2022-08-12T06:47:35Z</time>
      </trkpt>
      <trkpt lat="44.58916" lon="0.88286">
        <ele>147.9009342</ele>
        <time>2022-08-12T06:47:37Z</time>
      </trkpt>
      <trkpt lat="44.58908" lon="0.88299">
        <ele>148.3352901</ele>
        <time>2022-08-12T06:47:39Z</time>
      </trkpt>
      <trkpt lat="44.58903" lon="0.88311">
        <ele>148.3578749</ele>
        <time>2022-08-12T06:47:41Z</time>
      </trkpt>
      <trkpt lat="44.58897" lon="0.88319">
        <ele>148.0931488</ele>
        <time>2022-08-12T06:47:43Z</time>
      </trkpt>
      <trkpt lat="44.58896" lon="0.88329">
        <ele>148.1283478</ele>
        <time>2022-08-12T06:47:45Z</time>
      </trkpt>
      <trkpt lat="44.58899" lon="0.88335">
        <ele>148.5515712</ele>
        <time>2022-08-12T06:47:47Z</time>
      </trkpt>
      <trkpt lat="44.58904" lon="0.88335">
        <ele>148.9009659</ele>
        <time>2022-08-12T06:47:49Z</time>
      </trkpt>
      <trkpt lat="44.58909" lon="0.88339">
        <ele>149.2352962</ele>
        <time>2022-08-12T06:47:51Z</time>
      </trkpt>
      <trkpt lat="44.58912" lon="0.88342">
        <ele>149.2699798</ele>
        <time>2022-08-12T06:47:53Z</time>
      </trkpt>
      <trkpt lat="44.58917" lon="0.88345">
        <ele>149.4304272</ele>
        <time>2022-08-12T06:47:55Z</time>
      </trkpt>
      <trkpt lat="44.58921" lon="0.88349">
        <ele>149.3350105</ele>
        <time>2022-08-12T06:47:57Z</time>
      </trkpt>
      <trkpt lat="44.58926" lon="0.88352">
        <ele>149.7820868</ele>
        <time>2022-08-12T06:47:59Z</time>
      </trkpt>
      <trkpt lat="44.58931" lon="0.88354">
        <ele>150.2562707</ele>
        <time>2022-08-12T06:48:01Z</time>
      </trkpt>
      <trkpt lat="44.58936" lon="0.88356">
        <ele>150.6098695</ele>
        <time>2022-08-12T06:48:03Z</time>
      </trkpt>
      <trkpt lat="44.58941" lon="0.8836">
        <ele>150.7175521</ele>
        <time>2022-08-12T06:48:05Z</time>
      </trkpt>
      <trkpt lat="44.58946" lon="0.88363">
        <ele>150.9977971</ele>
        <time>2022-08-12T06:48:07Z</time>
      </trkpt>
      <trkpt lat="44.58952" lon="0.88366">
        <ele>150.4608427</ele>
        <time>2022-08-12T06:48:09Z</time>
      </trkpt>
      <trkpt lat="44.58957" lon="0.88369">
        <ele>150.7836354</ele>
        <time>2022-08-12T06:48:11Z</time>
      </trkpt>
      <trkpt lat="44.58963" lon="0.88372">
        <ele>151.1143662</ele>
        <time>2022-08-12T06:48:13Z</time>
      </trkpt>
      <trkpt lat="44.58968" lon="0.88375">
        <ele>151.0790289</ele>
        <time>2022-08-12T06:48:15Z</time>
      </trkpt>
      <trkpt lat="44.58973" lon="0.88377">
        <ele>151.3436093</ele>
        <time>2022-08-12T06:48:17Z</time>
      </trkpt>
      <trkpt lat="44.58978" lon="0.88381">
        <ele>151.3749356</ele>
        <time>2022-08-12T06:48:19Z</time>
      </trkpt>
      <trkpt lat="44.58984" lon="0.88384">
        <ele>151.6058056</ele>
        <time>2022-08-12T06:48:21Z</time>
      </trkpt>
      <trkpt lat="44.58989" lon="0.88387">
        <ele>151.9119211</ele>
        <time>2022-08-12T06:48:23Z</time>
      </trkpt>
      <trkpt lat="44.58995" lon="0.8839">
        <ele>152.3914928</ele>
        <time>2022-08-12T06:48:25Z</time>
      </trkpt>
      <trkpt lat="44.59" lon="0.88393">
        <ele>151.9922629</ele>
        <time>2022-08-12T06:48:27Z</time>
      </trkpt>
      <trkpt lat="44.59006" lon="0.88396">
        <ele>152.0632002</ele>
        <time>2022-08-12T06:48:29Z</time>
      </trkpt>
      <trkpt lat="44.59012" lon="0.88398">
        <ele>151.5224039</ele>
        <time>2022-08-12T06:48:31Z</time>
      </trkpt>
      <trkpt lat="44.59017" lon="0.88401">
        <ele>151.8217204</ele>
        <time>2022-08-12T06:48:33Z</time>
      </trkpt>
      <trkpt lat="44.59025" lon="0.88403">
        <ele>152.0666808</ele>
        <time>2022-08-12T06:48:35Z</time>
      </trkpt>
      <trkpt lat="44.59031" lon="0.88405">
        <ele>152.1998706</ele>
        <time>2022-08-12T06:48:37Z</time>
      </trkpt>
      <trkpt lat="44.59038" lon="0.88405">
        <ele>151.8903034</ele>
        <time>2022-08-12T06:48:39Z</time>
      </trkpt>
      <trkpt lat="44.59044" lon="0.88406">
        <ele>151.5452541</ele>
        <time>2022-08-12T06:48:41Z</time>
      </trkpt>
      <trkpt lat="44.59051" lon="0.88408">
        <ele>151.8926134</ele>
        <time>2022-08-12T06:48:43Z</time>
      </trkpt>
      <trkpt lat="44.59059" lon="0.88407">
        <ele>151.8425307</ele>
        <time>2022-08-12T06:48:45Z</time>
      </trkpt>
      <trkpt lat="44.59066" lon="0.88407">
        <ele>152.2182006</ele>
        <time>2022-08-12T06:48:47Z</time>
      </trkpt>
      <trkpt lat="44.59074" lon="0.88406">
        <ele>152.2202881</ele>
        <time>2022-08-12T06:48:49Z</time>
      </trkpt>
      <trkpt lat="44.59081" lon="0.88406">
        <ele>152.1917232</ele>
        <time>2022-08-12T06:48:51Z</time>
      </trkpt>
      <trkpt lat="44.59089" lon="0.88407">
        <ele>151.6300993</ele>
        <time>2022-08-12T06:48:53Z</time>
      </trkpt>
      <trkpt lat="44.59097" lon="0.88407">
        <ele>151.9813759</ele>
        <time>2022-08-12T06:48:55Z</time>
      </trkpt>
      <trkpt lat="44.59105" lon="0.88406">
        <ele>152.2395523</ele>
        <time>2022-08-12T06:48:57Z</time>
      </trkpt>
      <trkpt lat="44.59112" lon="0.88405">
        <ele>151.7810856</ele>
        <time>2022-08-12T06:48:59Z</time>
      </trkpt>
      <trkpt lat="44.59119" lon="0.88404">
        <ele>151.6543392</ele>
        <time>2022-08-12T06:49:01Z</time>
      </trkpt>
      <trkpt lat="44.59128" lon="0.88407">
        <ele>151.3065772</ele>
        <time>2022-08-12T06:49:03Z</time>
      </trkpt>
      <trkpt lat="44.59136" lon="0.88407">
        <ele>150.1773047</ele>
        <time>2022-08-12T06:49:05Z</time>
      </trkpt>
      <trkpt lat="44.59145" lon="0.88409">
        <ele>150.6729158</ele>
        <time>2022-08-12T06:49:07Z</time>
      </trkpt>
      <trkpt lat="44.59154" lon="0.88413">
        <ele>150.3986438</ele>
        <time>2022-08-12T06:49:09Z</time>
      </trkpt>
      <trkpt lat="44.59161" lon="0.88418">
        <ele>150.1398132</ele>
        <time>2022-08-12T06:49:11Z</time>
      </trkpt>
      <trkpt lat="44.59168" lon="0.88426">
        <ele>150.2987603</ele>
        <time>2022-08-12T06:49:13Z</time>
      </trkpt>
      <trkpt lat="44.59175" lon="0.88435">
        <ele>149.6041453</ele>
        <time>2022-08-12T06:49:15Z</time>
      </trkpt>
      <trkpt lat="44.59181" lon="0.88446">
        <ele>149.3212514</ele>
        <time>2022-08-12T06:49:17Z</time>
      </trkpt>
      <trkpt lat="44.59185" lon="0.88457">
        <ele>149.7259391</ele>
        <time>2022-08-12T06:49:19Z</time>
      </trkpt>
      <trkpt lat="44.59189" lon="0.88469">
        <ele>149.5356745</ele>
        <time>2022-08-12T06:49:21Z</time>
      </trkpt>
      <trkpt lat="44.59192" lon="0.8848">
        <ele>149.778074</ele>
        <time>2022-08-12T06:49:23Z</time>
      </trkpt>
      <trkpt lat="44.59195" lon="0.88492">
        <ele>149.8049903</ele>
        <time>2022-08-12T06:49:25Z</time>
      </trkpt>
      <trkpt lat="44.59199" lon="0.88503">
        <ele>149.8158176</ele>
        <time>2022-08-12T06:49:27Z</time>
      </trkpt>
      <trkpt lat="44.59202" lon="0.88515">
        <ele>149.7542464</ele>
        <time>2022-08-12T06:49:29Z</time>
      </trkpt>
      <trkpt lat="44.59206" lon="0.88527">
        <ele>150.1129953</ele>
        <time>2022-08-12T06:49:31Z</time>
      </trkpt>
      <trkpt lat="44.59209" lon="0.88538">
        <ele>150.0966929</ele>
        <time>2022-08-12T06:49:33Z</time>
      </trkpt>
      <trkpt lat="44.59213" lon="0.88549">
        <ele>150.3259296</ele>
        <time>2022-08-12T06:49:35Z</time>
      </trkpt>
      <trkpt lat="44.59215" lon="0.8856">
        <ele>150.7919395</ele>
        <time>2022-08-12T06:49:37Z</time>
      </trkpt>
      <trkpt lat="44.59218" lon="0.88571">
        <ele>150.6329144</ele>
        <time>2022-08-12T06:49:39Z</time>
      </trkpt>
      <trkpt lat="44.59222" lon="0.88583">
        <ele>150.7046696</ele>
        <time>2022-08-12T06:49:41Z</time>
      </trkpt>
      <trkpt lat="44.59224" lon="0.88593">
        <ele>150.8730469</ele>
        <time>2022-08-12T06:49:43Z</time>
      </trkpt>
      <trkpt lat="44.59227" lon="0.88604">
        <ele>150.764052</ele>
        <time>2022-08-12T06:49:45Z</time>
      </trkpt>
      <trkpt lat="44.5923" lon="0.88615">
        <ele>150.8853651</ele>
        <time>2022-08-12T06:49:47Z</time>
      </trkpt>
      <trkpt lat="44.59233" lon="0.88626">
        <ele>150.8532097</ele>
        <time>2022-08-12T06:49:49Z</time>
      </trkpt>
      <trkpt lat="44.59236" lon="0.88636">
        <ele>150.7092194</ele>
        <time>2022-08-12T06:49:51Z</time>
      </trkpt>
      <trkpt lat="44.59239" lon="0.88647">
        <ele>150.9352519</ele>
        <time>2022-08-12T06:49:53Z</time>
      </trkpt>
      <trkpt lat="44.59242" lon="0.88657">
        <ele>150.9703266</ele>
        <time>2022-08-12T06:49:55Z</time>
      </trkpt>
      <trkpt lat="44.59245" lon="0.88668">
        <ele>150.6622312</ele>
        <time>2022-08-12T06:49:57Z</time>
      </trkpt>
      <trkpt lat="44.59248" lon="0.88679">
        <ele>150.6541223</ele>
        <time>2022-08-12T06:49:59Z</time>
      </trkpt>
      <trkpt lat="44.59251" lon="0.88691">
        <ele>150.6752436</ele>
        <time>2022-08-12T06:50:01Z</time>
      </trkpt>
      <trkpt lat="44.59254" lon="0.88704">
        <ele>150.469216</ele>
        <time>2022-08-12T06:50:03Z</time>
      </trkpt>
      <trkpt lat="44.59258" lon="0.88716">
        <ele>150.377836</ele>
        <time>2022-08-12T06:50:05Z</time>
      </trkpt>
      <trkpt lat="44.59261" lon="0.88728">
        <ele>150.3724954</ele>
        <time>2022-08-12T06:50:07Z</time>
      </trkpt>
      <trkpt lat="44.59265" lon="0.8874">
        <ele>150.2662767</ele>
        <time>2022-08-12T06:50:09Z</time>
      </trkpt>
      <trkpt lat="44.59268" lon="0.88751">
        <ele>150.4086793</ele>
        <time>2022-08-12T06:50:11Z</time>
      </trkpt>
      <trkpt lat="44.59271" lon="0.88762">
        <ele>150.4796051</ele>
        <time>2022-08-12T06:50:13Z</time>
      </trkpt>
      <trkpt lat="44.59273" lon="0.88773">
        <ele>150.4191298</ele>
        <time>2022-08-12T06:50:15Z</time>
      </trkpt>
      <trkpt lat="44.59276" lon="0.88783">
        <ele>150.2609011</ele>
        <time>2022-08-12T06:50:17Z</time>
      </trkpt>
      <trkpt lat="44.59279" lon="0.88793">
        <ele>150.2617784</ele>
        <time>2022-08-12T06:50:19Z</time>
      </trkpt>
      <trkpt lat="44.59282" lon="0.88803">
        <ele>150.4331964</ele>
        <time>2022-08-12T06:50:21Z</time>
      </trkpt>
      <trkpt lat="44.59285" lon="0.88814">
        <ele>150.619072</ele>
        <time>2022-08-12T06:50:23Z</time>
      </trkpt>
      <trkpt lat="44.59288" lon="0.88824">
        <ele>150.6395747</ele>
        <time>2022-08-12T06:50:25Z</time>
      </trkpt>
      <trkpt lat="44.59291" lon="0.88835">
        <ele>151.0650561</ele>
        <time>2022-08-12T06:50:27Z</time>
      </trkpt>
      <trkpt lat="44.59295" lon="0.88845">
        <ele>151.3064601</ele>
        <time>2022-08-12T06:50:29Z</time>
      </trkpt>
      <trkpt lat="44.59298" lon="0.88855">
        <ele>151.6395014</ele>
        <time>2022-08-12T06:50:31Z</time>
      </trkpt>
      <trkpt lat="44.593" lon="0.88865">
        <ele>151.9919253</ele>
        <time>2022-08-12T06:50:33Z</time>
      </trkpt>
      <trkpt lat="44.59302" lon="0.88874">
        <ele>152.1187754</ele>
        <time>2022-08-12T06:50:35Z</time>
      </trkpt>
      <trkpt lat="44.59305" lon="0.88883">
        <ele>152.5150497</ele>
        <time>2022-08-12T06:50:37Z</time>
      </trkpt>
      <trkpt lat="44.59308" lon="0.88892">
        <ele>152.4929268</ele>
        <time>2022-08-12T06:50:39Z</time>
      </trkpt>
      <trkpt lat="44.5931" lon="0.88901">
        <ele>152.774577</ele>
        <time>2022-08-12T06:50:41Z</time>
      </trkpt>
      <trkpt lat="44.59313" lon="0.88909">
        <ele>152.9096669</ele>
        <time>2022-08-12T06:50:43Z</time>
      </trkpt>
      <trkpt lat="44.59315" lon="0.88917">
        <ele>153.1283074</ele>
        <time>2022-08-12T06:50:45Z</time>
      </trkpt>
      <trkpt lat="44.59318" lon="0.88925">
        <ele>153.3692822</ele>
        <time>2022-08-12T06:50:47Z</time>
      </trkpt>
      <trkpt lat="44.59319" lon="0.88932">
        <ele>153.5258825</ele>
        <time>2022-08-12T06:50:49Z</time>
      </trkpt>
      <trkpt lat="44.59321" lon="0.8894">
        <ele>153.7488875</ele>
        <time>2022-08-12T06:50:51Z</time>
      </trkpt>
      <trkpt lat="44.59323" lon="0.88948">
        <ele>153.6767076</ele>
        <time>2022-08-12T06:50:53Z</time>
      </trkpt>
      <trkpt lat="44.59326" lon="0.88955">
        <ele>153.8580439</ele>
        <time>2022-08-12T06:50:55Z</time>
      </trkpt>
      <trkpt lat="44.59328" lon="0.88963">
        <ele>154.2568371</ele>
        <time>2022-08-12T06:50:57Z</time>
      </trkpt>
      <trkpt lat="44.5933" lon="0.8897">
        <ele>154.2730368</ele>
        <time>2022-08-12T06:50:59Z</time>
      </trkpt>
      <trkpt lat="44.59332" lon="0.88977">
        <ele>154.4912461</ele>
        <time>2022-08-12T06:51:01Z</time>
      </trkpt>
      <trkpt lat="44.59334" lon="0.88984">
        <ele>154.4799022</ele>
        <time>2022-08-12T06:51:03Z</time>
      </trkpt>
      <trkpt lat="44.59336" lon="0.8899">
        <ele>154.7155969</ele>
        <time>2022-08-12T06:51:05Z</time>
      </trkpt>
      <trkpt lat="44.59339" lon="0.88997">
        <ele>155.116691</ele>
        <time>2022-08-12T06:51:07Z</time>
      </trkpt>
      <trkpt lat="44.59342" lon="0.89002">
        <ele>155.3632099</ele>
        <time>2022-08-12T06:51:09Z</time>
      </trkpt>
      <trkpt lat="44.59344" lon="0.89008">
        <ele>155.8786199</ele>
        <time>2022-08-12T06:51:11Z</time>
      </trkpt>
      <trkpt lat="44.59347" lon="0.89013">
        <ele>155.9069575</ele>
        <time>2022-08-12T06:51:13Z</time>
      </trkpt>
      <trkpt lat="44.5935" lon="0.89019">
        <ele>156.0673366</ele>
        <time>2022-08-12T06:51:15Z</time>
      </trkpt>
      <trkpt lat="44.59353" lon="0.89025">
        <ele>156.5916487</ele>
        <time>2022-08-12T06:51:17Z</time>
      </trkpt>
      <trkpt lat="44.59356" lon="0.89031">
        <ele>156.6977789</ele>
        <time>2022-08-12T06:51:19Z</time>
      </trkpt>
      <trkpt lat="44.59359" lon="0.89036">
        <ele>156.9707992</ele>
        <time>2022-08-12T06:51:21Z</time>
      </trkpt>
      <trkpt lat="44.59362" lon="0.8904">
        <ele>156.8007053</ele>
        <time>2022-08-12T06:51:23Z</time>
      </trkpt>
      <trkpt lat="44.59365" lon="0.89045">
        <ele>156.8726526</ele>
        <time>2022-08-12T06:51:25Z</time>
      </trkpt>
      <trkpt lat="44.59369" lon="0.8905">
        <ele>156.8597866</ele>
        <time>2022-08-12T06:51:27Z</time>
      </trkpt>
      <trkpt lat="44.59373" lon="0.89055">
        <ele>157.2423201</ele>
        <time>2022-08-12T06:51:29Z</time>
      </trkpt>
      <trkpt lat="44.59377" lon="0.8906">
        <ele>156.9372146</ele>
        <time>2022-08-12T06:51:31Z</time>
      </trkpt>
      <trkpt lat="44.59381" lon="0.89065">
        <ele>156.6273108</ele>
        <time>2022-08-12T06:51:33Z</time>
      </trkpt>
      <trkpt lat="44.59386" lon="0.8907">
        <ele>156.5501834</ele>
        <time>2022-08-12T06:51:35Z</time>
      </trkpt>
      <trkpt lat="44.59391" lon="0.89075">
        <ele>156.4217415</ele>
        <time>2022-08-12T06:51:37Z</time>
      </trkpt>
      <trkpt lat="44.59397" lon="0.8908">
        <ele>157.0427132</ele>
        <time>2022-08-12T06:51:39Z</time>
      </trkpt>
      <trkpt lat="44.59403" lon="0.89086">
        <ele>156.6822644</ele>
        <time>2022-08-12T06:51:41Z</time>
      </trkpt>
      <trkpt lat="44.59409" lon="0.89091">
        <ele>156.5525761</ele>
        <time>2022-08-12T06:51:43Z</time>
      </trkpt>
      <trkpt lat="44.59415" lon="0.89096">
        <ele>156.6906373</ele>
        <time>2022-08-12T06:51:45Z</time>
      </trkpt>
      <trkpt lat="44.59421" lon="0.89102">
        <ele>156.8982489</ele>
        <time>2022-08-12T06:51:47Z</time>
      </trkpt>
      <trkpt lat="44.59427" lon="0.89108">
        <ele>156.7602148</ele>
        <time>2022-08-12T06:51:49Z</time>
      </trkpt>
      <trkpt lat="44.59433" lon="0.89115">
        <ele>156.7925998</ele>
        <time>2022-08-12T06:51:51Z</time>
      </trkpt>
      <trkpt lat="44.5944" lon="0.8912">
        <ele>156.701798</ele>
        <time>2022-08-12T06:51:53Z</time>
      </trkpt>
      <trkpt lat="44.59446" lon="0.89127">
        <ele>156.9642436</ele>
        <time>2022-08-12T06:51:55Z</time>
      </trkpt>
      <trkpt lat="44.59452" lon="0.89133">
        <ele>156.9409115</ele>
        <time>2022-08-12T06:51:57Z</time>
      </trkpt>
      <trkpt lat="44.59458" lon="0.89138">
        <ele>157.116336</ele>
        <time>2022-08-12T06:51:59Z</time>
      </trkpt>
      <trkpt lat="44.59465" lon="0.89144">
        <ele>157.3851327</ele>
        <time>2022-08-12T06:52:01Z</time>
      </trkpt>
      <trkpt lat="44.59471" lon="0.89151">
        <ele>157.3870115</ele>
        <time>2022-08-12T06:52:03Z</time>
      </trkpt>
      <trkpt lat="44.59477" lon="0.89156">
        <ele>157.1430018</ele>
        <time>2022-08-12T06:52:05Z</time>
      </trkpt>
      <trkpt lat="44.59484" lon="0.89162">
        <ele>157.6635382</ele>
        <time>2022-08-12T06:52:07Z</time>
      </trkpt>
      <trkpt lat="44.5949" lon="0.89169">
        <ele>158.0478889</ele>
        <time>2022-08-12T06:52:09Z</time>
      </trkpt>
      <trkpt lat="44.59497" lon="0.89174">
        <ele>158.4190024</ele>
        <time>2022-08-12T06:52:11Z</time>
      </trkpt>
      <trkpt lat="44.59504" lon="0.89181">
        <ele>158.5142401</ele>
        <time>2022-08-12T06:52:13Z</time>
      </trkpt>
      <trkpt lat="44.5951" lon="0.89188">
        <ele>158.356527</ele>
        <time>2022-08-12T06:52:15Z</time>
      </trkpt>
      <trkpt lat="44.59517" lon="0.89194">
        <ele>158.5381439</ele>
        <time>2022-08-12T06:52:17Z</time>
      </trkpt>
      <trkpt lat="44.59524" lon="0.89201">
        <ele>158.5761214</ele>
        <time>2022-08-12T06:52:19Z</time>
      </trkpt>
      <trkpt lat="44.59531" lon="0.89207">
        <ele>158.7122858</ele>
        <time>2022-08-12T06:52:21Z</time>
      </trkpt>
      <trkpt lat="44.59538" lon="0.89214">
        <ele>158.8782517</ele>
        <time>2022-08-12T06:52:23Z</time>
      </trkpt>
      <trkpt lat="44.59545" lon="0.89221">
        <ele>159.0078553</ele>
        <time>2022-08-12T06:52:25Z</time>
      </trkpt>
      <trkpt lat="44.59552" lon="0.89227">
        <ele>159.2507905</ele>
        <time>2022-08-12T06:52:27Z</time>
      </trkpt>
      <trkpt lat="44.59558" lon="0.89232">
        <ele>159.5532611</ele>
        <time>2022-08-12T06:52:29Z</time>
      </trkpt>
      <trkpt lat="44.59564" lon="0.89238">
        <ele>159.8487488</ele>
        <time>2022-08-12T06:52:31Z</time>
      </trkpt>
      <trkpt lat="44.59569" lon="0.89244">
        <ele>159.9679475</ele>
        <time>2022-08-12T06:52:33Z</time>
      </trkpt>
      <trkpt lat="44.59575" lon="0.89249">
        <ele>160.0693243</ele>
        <time>2022-08-12T06:52:35Z</time>
      </trkpt>
      <trkpt lat="44.59581" lon="0.89254">
        <ele>160.3787817</ele>
        <time>2022-08-12T06:52:37Z</time>
      </trkpt>
      <trkpt lat="44.59586" lon="0.89259">
        <ele>160.317579</ele>
        <time>2022-08-12T06:52:39Z</time>
      </trkpt>
      <trkpt lat="44.59591" lon="0.89264">
        <ele>160.2661424</ele>
        <time>2022-08-12T06:52:41Z</time>
      </trkpt>
      <trkpt lat="44.59597" lon="0.89269">
        <ele>160.4618059</ele>
        <time>2022-08-12T06:52:43Z</time>
      </trkpt>
      <trkpt lat="44.59602" lon="0.89273">
        <ele>160.2750796</ele>
        <time>2022-08-12T06:52:45Z</time>
      </trkpt>
      <trkpt lat="44.59607" lon="0.89277">
        <ele>160.3530846</ele>
        <time>2022-08-12T06:52:47Z</time>
      </trkpt>
      <trkpt lat="44.59613" lon="0.89281">
        <ele>160.5780783</ele>
        <time>2022-08-12T06:52:49Z</time>
      </trkpt>
      <trkpt lat="44.59618" lon="0.89285">
        <ele>160.2769668</ele>
        <time>2022-08-12T06:52:51Z</time>
      </trkpt>
      <trkpt lat="44.59624" lon="0.89289">
        <ele>160.1134842</ele>
        <time>2022-08-12T06:52:53Z</time>
      </trkpt>
      <trkpt lat="44.5963" lon="0.89292">
        <ele>160.1209134</ele>
        <time>2022-08-12T06:52:55Z</time>
      </trkpt>
      <trkpt lat="44.59636" lon="0.89294">
        <ele>160.1192149</ele>
        <time>2022-08-12T06:52:57Z</time>
      </trkpt>
      <trkpt lat="44.59642" lon="0.89297">
        <ele>160.2954184</ele>
        <time>2022-08-12T06:52:59Z</time>
      </trkpt>
      <trkpt lat="44.59649" lon="0.893">
        <ele>159.9262619</ele>
        <time>2022-08-12T06:53:01Z</time>
      </trkpt>
      <trkpt lat="44.59656" lon="0.89301">
        <ele>159.9934896</ele>
        <time>2022-08-12T06:53:03Z</time>
      </trkpt>
      <trkpt lat="44.59662" lon="0.89304">
        <ele>159.6845783</ele>
        <time>2022-08-12T06:53:05Z</time>
      </trkpt>
      <trkpt lat="44.5967" lon="0.89306">
        <ele>159.4701914</ele>
        <time>2022-08-12T06:53:07Z</time>
      </trkpt>
      <trkpt lat="44.59677" lon="0.89308">
        <ele>159.3254496</ele>
        <time>2022-08-12T06:53:09Z</time>
      </trkpt>
      <trkpt lat="44.59685" lon="0.89311">
        <ele>159.4192533</ele>
        <time>2022-08-12T06:53:11Z</time>
      </trkpt>
      <trkpt lat="44.59693" lon="0.89314">
        <ele>159.112044</ele>
        <time>2022-08-12T06:53:13Z</time>
      </trkpt>
      <trkpt lat="44.59701" lon="0.89318">
        <ele>158.9757824</ele>
        <time>2022-08-12T06:53:15Z</time>
      </trkpt>
      <trkpt lat="44.59709" lon="0.89321">
        <ele>159.1619793</ele>
        <time>2022-08-12T06:53:17Z</time>
      </trkpt>
      <trkpt lat="44.59717" lon="0.89325">
        <ele>159.0983248</ele>
        <time>2022-08-12T06:53:19Z</time>
      </trkpt>
      <trkpt lat="44.59725" lon="0.89329">
        <ele>158.8236576</ele>
        <time>2022-08-12T06:53:21Z</time>
      </trkpt>
      <trkpt lat="44.59732" lon="0.89334">
        <ele>158.8478363</ele>
        <time>2022-08-12T06:53:23Z</time>
      </trkpt>
      <trkpt lat="44.5974" lon="0.89339">
        <ele>158.5733735</ele>
        <time>2022-08-12T06:53:25Z</time>
      </trkpt>
      <trkpt lat="44.59747" lon="0.89346">
        <ele>158.6738604</ele>
        <time>2022-08-12T06:53:27Z</time>
      </trkpt>
      <trkpt lat="44.59754" lon="0.89353">
        <ele>159.145243</ele>
        <time>2022-08-12T06:53:29Z</time>
      </trkpt>
      <trkpt lat="44.5976" lon="0.89361">
        <ele>158.9888198</ele>
        <time>2022-08-12T06:53:31Z</time>
      </trkpt>
      <trkpt lat="44.59766" lon="0.8937">
        <ele>158.8759732</ele>
        <time>2022-08-12T06:53:33Z</time>
      </trkpt>
      <trkpt lat="44.59771" lon="0.89381">
        <ele>159.1472692</ele>
        <time>2022-08-12T06:53:35Z</time>
      </trkpt>
      <trkpt lat="44.59776" lon="0.89392">
        <ele>159.7417714</ele>
        <time>2022-08-12T06:53:37Z</time>
      </trkpt>
      <trkpt lat="44.5978" lon="0.89404">
        <ele>159.9270008</ele>
        <time>2022-08-12T06:53:39Z</time>
      </trkpt>
      <trkpt lat="44.59783" lon="0.89415">
        <ele>160.536559</ele>
        <time>2022-08-12T06:53:41Z</time>
      </trkpt>
      <trkpt lat="44.59786" lon="0.89425">
        <ele>160.9496265</ele>
        <time>2022-08-12T06:53:43Z</time>
      </trkpt>
      <trkpt lat="44.59789" lon="0.89435">
        <ele>161.2193755</ele>
        <time>2022-08-12T06:53:45Z</time>
      </trkpt>
      <trkpt lat="44.59792" lon="0.89445">
        <ele>161.4281464</ele>
        <time>2022-08-12T06:53:47Z</time>
      </trkpt>
      <trkpt lat="44.59795" lon="0.89454">
        <ele>161.5205311</ele>
        <time>2022-08-12T06:53:49Z</time>
      </trkpt>
      <trkpt lat="44.59798" lon="0.89462">
        <ele>161.3040998</ele>
        <time>2022-08-12T06:53:51Z</time>
      </trkpt>
      <trkpt lat="44.59801" lon="0.89471">
        <ele>161.7571948</ele>
        <time>2022-08-12T06:53:53Z</time>
      </trkpt>
      <trkpt lat="44.59804" lon="0.89478">
        <ele>161.5985422</ele>
        <time>2022-08-12T06:53:55Z</time>
      </trkpt>
      <trkpt lat="44.59809" lon="0.89486">
        <ele>161.8357584</ele>
        <time>2022-08-12T06:53:57Z</time>
      </trkpt>
      <trkpt lat="44.59814" lon="0.89492">
        <ele>161.5828556</ele>
        <time>2022-08-12T06:53:59Z</time>
      </trkpt>
      <trkpt lat="44.59819" lon="0.89497">
        <ele>161.9002433</ele>
        <time>2022-08-12T06:54:01Z</time>
      </trkpt>
      <trkpt lat="44.59825" lon="0.895">
        <ele>162.060167</ele>
        <time>2022-08-12T06:54:03Z</time>
      </trkpt>
      <trkpt lat="44.59831" lon="0.89503">
        <ele>161.8789089</ele>
        <time>2022-08-12T06:54:05Z</time>
      </trkpt>
      <trkpt lat="44.59838" lon="0.89506">
        <ele>162.1093589</ele>
        <time>2022-08-12T06:54:07Z</time>
      </trkpt>
      <trkpt lat="44.59844" lon="0.89508">
        <ele>162.1573317</ele>
        <time>2022-08-12T06:54:09Z</time>
      </trkpt>
      <trkpt lat="44.59851" lon="0.8951">
        <ele>162.0629624</ele>
        <time>2022-08-12T06:54:11Z</time>
      </trkpt>
      <trkpt lat="44.59858" lon="0.89511">
        <ele>162.5408964</ele>
        <time>2022-08-12T06:54:13Z</time>
      </trkpt>
      <trkpt lat="44.59865" lon="0.89513">
        <ele>162.8810724</ele>
        <time>2022-08-12T06:54:15Z</time>
      </trkpt>
      <trkpt lat="44.59872" lon="0.89514">
        <ele>163.1456186</ele>
        <time>2022-08-12T06:54:17Z</time>
      </trkpt>
      <trkpt lat="44.59878" lon="0.89517">
        <ele>163.309905</ele>
        <time>2022-08-12T06:54:19Z</time>
      </trkpt>
      <trkpt lat="44.59885" lon="0.89518">
        <ele>163.673003</ele>
        <time>2022-08-12T06:54:21Z</time>
      </trkpt>
      <trkpt lat="44.59891" lon="0.8952">
        <ele>164.1979225</ele>
        <time>2022-08-12T06:54:23Z</time>
      </trkpt>
      <trkpt lat="44.59897" lon="0.89522">
        <ele>164.8318426</ele>
        <time>2022-08-12T06:54:25Z</time>
      </trkpt>
      <trkpt lat="44.59903" lon="0.89523">
        <ele>164.9584316</ele>
        <time>2022-08-12T06:54:27Z</time>
      </trkpt>
      <trkpt lat="44.59909" lon="0.89524">
        <ele>165.4175669</ele>
        <time>2022-08-12T06:54:29Z</time>
      </trkpt>
      <trkpt lat="44.59914" lon="0.89527">
        <ele>165.5731518</ele>
        <time>2022-08-12T06:54:31Z</time>
      </trkpt>
      <trkpt lat="44.5992" lon="0.89528">
        <ele>165.6488998</ele>
        <time>2022-08-12T06:54:33Z</time>
      </trkpt>
      <trkpt lat="44.59926" lon="0.8953">
        <ele>165.7922488</ele>
        <time>2022-08-12T06:54:35Z</time>
      </trkpt>
      <trkpt lat="44.59932" lon="0.89532">
        <ele>166.1559816</ele>
        <time>2022-08-12T06:54:37Z</time>
      </trkpt>
      <trkpt lat="44.59938" lon="0.89533">
        <ele>167.2690687</ele>
        <time>2022-08-12T06:54:39Z</time>
      </trkpt>
      <trkpt lat="44.59942" lon="0.89535">
        <ele>167.4369776</ele>
        <time>2022-08-12T06:54:41Z</time>
      </trkpt>
      <trkpt lat="44.59949" lon="0.89535">
        <ele>168.221437</ele>
        <time>2022-08-12T06:54:43Z</time>
      </trkpt>
      <trkpt lat="44.59955" lon="0.89538">
        <ele>168.0843532</ele>
        <time>2022-08-12T06:54:45Z</time>
      </trkpt>
      <trkpt lat="44.59961" lon="0.89539">
        <ele>168.2901233</ele>
        <time>2022-08-12T06:54:47Z</time>
      </trkpt>
      <trkpt lat="44.59968" lon="0.8954">
        <ele>168.7197175</ele>
        <time>2022-08-12T06:54:49Z</time>
      </trkpt>
      <trkpt lat="44.59973" lon="0.89541">
        <ele>168.6411452</ele>
        <time>2022-08-12T06:54:51Z</time>
      </trkpt>
      <trkpt lat="44.59979" lon="0.89542">
        <ele>168.7164662</ele>
        <time>2022-08-12T06:54:53Z</time>
      </trkpt>
      <trkpt lat="44.59985" lon="0.89542">
        <ele>169.2723035</ele>
        <time>2022-08-12T06:54:55Z</time>
      </trkpt>
      <trkpt lat="44.59991" lon="0.89542">
        <ele>169.5477082</ele>
        <time>2022-08-12T06:54:57Z</time>
      </trkpt>
      <trkpt lat="44.59996" lon="0.89541">
        <ele>169.563609</ele>
        <time>2022-08-12T06:54:59Z</time>
      </trkpt>
      <trkpt lat="44.60001" lon="0.89539">
        <ele>169.8906847</ele>
        <time>2022-08-12T06:55:01Z</time>
      </trkpt>
      <trkpt lat="44.60006" lon="0.89537">
        <ele>170.177375</ele>
        <time>2022-08-12T06:55:03Z</time>
      </trkpt>
      <trkpt lat="44.60011" lon="0.89534">
        <ele>170.1076229</ele>
        <time>2022-08-12T06:55:05Z</time>
      </trkpt>
      <trkpt lat="44.60015" lon="0.89532">
        <ele>170.2024417</ele>
        <time>2022-08-12T06:55:07Z</time>
      </trkpt>
      <trkpt lat="44.60019" lon="0.89528">
        <ele>170.5544335</ele>
        <time>2022-08-12T06:55:09Z</time>
      </trkpt>
      <trkpt lat="44.60023" lon="0.89525">
        <ele>171.2525159</ele>
        <time>2022-08-12T06:55:11Z</time>
      </trkpt>
      <trkpt lat="44.60028" lon="0.89523">
        <ele>170.9605078</ele>
        <time>2022-08-12T06:55:13Z</time>
      </trkpt>
      <trkpt lat="44.60032" lon="0.89521">
        <ele>171.0146333</ele>
        <time>2022-08-12T06:55:15Z</time>
      </trkpt>
      <trkpt lat="44.60036" lon="0.89519">
        <ele>170.8157155</ele>
        <time>2022-08-12T06:55:17Z</time>
      </trkpt>
      <trkpt lat="44.6004" lon="0.89516">
        <ele>171.5720532</ele>
        <time>2022-08-12T06:55:19Z</time>
      </trkpt>
      <trkpt lat="44.60045" lon="0.89514">
        <ele>172.0124941</ele>
        <time>2022-08-12T06:55:21Z</time>
      </trkpt>
      <trkpt lat="44.60049" lon="0.89513">
        <ele>171.911356</ele>
        <time>2022-08-12T06:55:23Z</time>
      </trkpt>
      <trkpt lat="44.60053" lon="0.89511">
        <ele>171.629262</ele>
        <time>2022-08-12T06:55:25Z</time>
      </trkpt>
      <trkpt lat="44.60057" lon="0.89508">
        <ele>171.9412814</ele>
        <time>2022-08-12T06:55:27Z</time>
      </trkpt>
      <trkpt lat="44.60062" lon="0.89505">
        <ele>172.0532544</ele>
        <time>2022-08-12T06:55:29Z</time>
      </trkpt>
      <trkpt lat="44.60066" lon="0.89504">
        <ele>172.2017594</ele>
        <time>2022-08-12T06:55:31Z</time>
      </trkpt>
      <trkpt lat="44.6007" lon="0.89503">
        <ele>172.6364646</ele>
        <time>2022-08-12T06:55:33Z</time>
      </trkpt>
      <trkpt lat="44.60074" lon="0.895">
        <ele>172.6784437</ele>
        <time>2022-08-12T06:55:35Z</time>
      </trkpt>
      <trkpt lat="44.60076" lon="0.89495">
        <ele>173.6793925</ele>
        <time>2022-08-12T06:55:37Z</time>
      </trkpt>
      <trkpt lat="44.60079" lon="0.89488">
        <ele>173.046709</ele>
        <time>2022-08-12T06:55:39Z</time>
      </trkpt>
      <trkpt lat="44.60081" lon="0.89481">
        <ele>173.5194066</ele>
        <time>2022-08-12T06:55:41Z</time>
      </trkpt>
      <trkpt lat="44.60082" lon="0.89475">
        <ele>173.3246737</ele>
        <time>2022-08-12T06:55:43Z</time>
      </trkpt>
      <trkpt lat="44.60084" lon="0.89468">
        <ele>173.2444849</ele>
        <time>2022-08-12T06:55:45Z</time>
      </trkpt>
      <trkpt lat="44.60087" lon="0.89462">
        <ele>173.3560146</ele>
        <time>2022-08-12T06:55:47Z</time>
      </trkpt>
      <trkpt lat="44.60089" lon="0.89455">
        <ele>173.5268027</ele>
        <time>2022-08-12T06:55:49Z</time>
      </trkpt>
      <trkpt lat="44.60091" lon="0.8945">
        <ele>173.0292494</ele>
        <time>2022-08-12T06:55:51Z</time>
      </trkpt>
      <trkpt lat="44.60095" lon="0.89443">
        <ele>172.935681</ele>
        <time>2022-08-12T06:55:53Z</time>
      </trkpt>
      <trkpt lat="44.60098" lon="0.89437">
        <ele>172.7460368</ele>
        <time>2022-08-12T06:55:55Z</time>
      </trkpt>
      <trkpt lat="44.60101" lon="0.89431">
        <ele>172.6383955</ele>
        <time>2022-08-12T06:55:57Z</time>
      </trkpt>
      <trkpt lat="44.60104" lon="0.89426">
        <ele>172.2140936</ele>
        <time>2022-08-12T06:55:59Z</time>
      </trkpt>
      <trkpt lat="44.60108" lon="0.8942">
        <ele>172.1735137</ele>
        <time>2022-08-12T06:56:01Z</time>
      </trkpt>
      <trkpt lat="44.60111" lon="0.89414">
        <ele>171.75294</ele>
        <time>2022-08-12T06:56:03Z</time>
      </trkpt>
      <trkpt lat="44.60115" lon="0.89408">
        <ele>171.6081147</ele>
        <time>2022-08-12T06:56:05Z</time>
      </trkpt>
      <trkpt lat="44.60118" lon="0.894">
        <ele>171.3546501</ele>
        <time>2022-08-12T06:56:07Z</time>
      </trkpt>
      <trkpt lat="44.60121" lon="0.89393">
        <ele>171.5306765</ele>
        <time>2022-08-12T06:56:09Z</time>
      </trkpt>
      <trkpt lat="44.60123" lon="0.89384">
        <ele>171.379351</ele>
        <time>2022-08-12T06:56:11Z</time>
      </trkpt>
      <trkpt lat="44.60123" lon="0.89374">
        <ele>171.1855916</ele>
        <time>2022-08-12T06:56:13Z</time>
      </trkpt>
      <trkpt lat="44.60124" lon="0.89364">
        <ele>171.060119</ele>
        <time>2022-08-12T06:56:15Z</time>
      </trkpt>
      <trkpt lat="44.60125" lon="0.89354">
        <ele>171.1464663</ele>
        <time>2022-08-12T06:56:17Z</time>
      </trkpt>
      <trkpt lat="44.60126" lon="0.89344">
        <ele>171.3863638</ele>
        <time>2022-08-12T06:56:19Z</time>
      </trkpt>
      <trkpt lat="44.60127" lon="0.89334">
        <ele>171.2430724</ele>
        <time>2022-08-12T06:56:21Z</time>
      </trkpt>
      <trkpt lat="44.60128" lon="0.89324">
        <ele>171.172836</ele>
        <time>2022-08-12T06:56:23Z</time>
      </trkpt>
      <trkpt lat="44.60129" lon="0.89312">
        <ele>171.0897358</ele>
        <time>2022-08-12T06:56:25Z</time>
      </trkpt>
      <trkpt lat="44.6013" lon="0.89302">
        <ele>170.8551924</ele>
        <time>2022-08-12T06:56:27Z</time>
      </trkpt>
      <trkpt lat="44.60131" lon="0.89292">
        <ele>170.4706558</ele>
        <time>2022-08-12T06:56:29Z</time>
      </trkpt>
      <trkpt lat="44.60132" lon="0.89282">
        <ele>170.6230649</ele>
        <time>2022-08-12T06:56:31Z</time>
      </trkpt>
      <trkpt lat="44.60133" lon="0.89273">
        <ele>170.4785094</ele>
        <time>2022-08-12T06:56:33Z</time>
      </trkpt>
      <trkpt lat="44.60133" lon="0.89263">
        <ele>170.3570817</ele>
        <time>2022-08-12T06:56:35Z</time>
      </trkpt>
      <trkpt lat="44.60134" lon="0.89255">
        <ele>170.6136823</ele>
        <time>2022-08-12T06:56:37Z</time>
      </trkpt>
      <trkpt lat="44.60135" lon="0.89247">
        <ele>170.7314073</ele>
        <time>2022-08-12T06:56:39Z</time>
      </trkpt>
      <trkpt lat="44.60135" lon="0.89238">
        <ele>170.8753371</ele>
        <time>2022-08-12T06:56:41Z</time>
      </trkpt>
      <trkpt lat="44.60133" lon="0.89229">
        <ele>171.2631927</ele>
        <time>2022-08-12T06:56:43Z</time>
      </trkpt>
      <trkpt lat="44.60129" lon="0.89221">
        <ele>171.6087094</ele>
        <time>2022-08-12T06:56:45Z</time>
      </trkpt>
      <trkpt lat="44.60125" lon="0.89213">
        <ele>171.9027381</ele>
        <time>2022-08-12T06:56:47Z</time>
      </trkpt>
      <trkpt lat="44.6012" lon="0.89205">
        <ele>172.0911267</ele>
        <time>2022-08-12T06:56:49Z</time>
      </trkpt>
      <trkpt lat="44.60117" lon="0.89197">
        <ele>172.7852554</ele>
        <time>2022-08-12T06:56:51Z</time>
      </trkpt>
      <trkpt lat="44.60114" lon="0.89189">
        <ele>172.9213926</ele>
        <time>2022-08-12T06:56:53Z</time>
      </trkpt>
      <trkpt lat="44.60111" lon="0.89181">
        <ele>173.3181212</ele>
        <time>2022-08-12T06:56:55Z</time>
      </trkpt>
      <trkpt lat="44.60107" lon="0.89174">
        <ele>173.4136757</ele>
        <time>2022-08-12T06:56:57Z</time>
      </trkpt>
      <trkpt lat="44.60104" lon="0.89167">
        <ele>173.7526077</ele>
        <time>2022-08-12T06:56:59Z</time>
      </trkpt>
      <trkpt lat="44.60101" lon="0.89159">
        <ele>174.3011682</ele>
        <time>2022-08-12T06:57:01Z</time>
      </trkpt>
      <trkpt lat="44.60098" lon="0.89151">
        <ele>174.7407123</ele>
        <time>2022-08-12T06:57:03Z</time>
      </trkpt>
      <trkpt lat="44.60095" lon="0.89145">
        <ele>174.7574036</ele>
        <time>2022-08-12T06:57:05Z</time>
      </trkpt>
      <trkpt lat="44.60092" lon="0.89138">
        <ele>175.1803533</ele>
        <time>2022-08-12T06:57:07Z</time>
      </trkpt>
      <trkpt lat="44.6009" lon="0.89131">
        <ele>175.4281806</ele>
        <time>2022-08-12T06:57:09Z</time>
      </trkpt>
      <trkpt lat="44.60087" lon="0.89124">
        <ele>175.7445448</ele>
        <time>2022-08-12T06:57:11Z</time>
      </trkpt>
      <trkpt lat="44.60084" lon="0.89118">
        <ele>176.165239</ele>
        <time>2022-08-12T06:57:13Z</time>
      </trkpt>
      <trkpt lat="44.60081" lon="0.89111">
        <ele>176.3427047</ele>
        <time>2022-08-12T06:57:15Z</time>
      </trkpt>
      <trkpt lat="44.60079" lon="0.89105">
        <ele>176.7121029</ele>
        <time>2022-08-12T06:57:17Z</time>
      </trkpt>
      <trkpt lat="44.60076" lon="0.89099">
        <ele>177.2450949</ele>
        <time>2022-08-12T06:57:19Z</time>
      </trkpt>
      <trkpt lat="44.60074" lon="0.89092">
        <ele>177.268251</ele>
        <time>2022-08-12T06:57:21Z</time>
      </trkpt>
      <trkpt lat="44.60071" lon="0.89087">
        <ele>177.7276808</ele>
        <time>2022-08-12T06:57:23Z</time>
      </trkpt>
      <trkpt lat="44.60069" lon="0.89082">
        <ele>178.1736506</ele>
        <time>2022-08-12T06:57:25Z</time>
      </trkpt>
      <trkpt lat="44.60067" lon="0.89077">
        <ele>178.3067269</ele>
        <time>2022-08-12T06:57:27Z</time>
      </trkpt>
      <trkpt lat="44.60067" lon="0.89071">
        <ele>178.551979</ele>
        <time>2022-08-12T06:57:29Z</time>
      </trkpt>
      <trkpt lat="44.60064" lon="0.89065">
        <ele>179.1220657</ele>
        <time>2022-08-12T06:57:31Z</time>
      </trkpt>
      <trkpt lat="44.60063" lon="0.89059">
        <ele>179.4917103</ele>
        <time>2022-08-12T06:57:33Z</time>
      </trkpt>
      <trkpt lat="44.60062" lon="0.89053">
        <ele>179.6081035</ele>
        <time>2022-08-12T06:57:35Z</time>
      </trkpt>
      <trkpt lat="44.60061" lon="0.89047">
        <ele>179.7620036</ele>
        <time>2022-08-12T06:57:37Z</time>
      </trkpt>
      <trkpt lat="44.6006" lon="0.89041">
        <ele>180.0756524</ele>
        <time>2022-08-12T06:57:39Z</time>
      </trkpt>
      <trkpt lat="44.60059" lon="0.89035">
        <ele>180.2734901</ele>
        <time>2022-08-12T06:57:41Z</time>
      </trkpt>
      <trkpt lat="44.60058" lon="0.89029">
        <ele>180.7592683</ele>
        <time>2022-08-12T06:57:43Z</time>
      </trkpt>
      <trkpt lat="44.60057" lon="0.89024">
        <ele>180.8132754</ele>
        <time>2022-08-12T06:57:45Z</time>
      </trkpt>
      <trkpt lat="44.60058" lon="0.89018">
        <ele>181.0790825</ele>
        <time>2022-08-12T06:57:47Z</time>
      </trkpt>
      <trkpt lat="44.60058" lon="0.89012">
        <ele>181.3462085</ele>
        <time>2022-08-12T06:57:49Z</time>
      </trkpt>
      <trkpt lat="44.60058" lon="0.89007">
        <ele>181.5865126</ele>
        <time>2022-08-12T06:57:51Z</time>
      </trkpt>
      <trkpt lat="44.60059" lon="0.89002">
        <ele>181.7873875</ele>
        <time>2022-08-12T06:57:53Z</time>
      </trkpt>
      <trkpt lat="44.60059" lon="0.88996">
        <ele>181.8909513</ele>
        <time>2022-08-12T06:57:55Z</time>
      </trkpt>
      <trkpt lat="44.60059" lon="0.8899">
        <ele>182.2585008</ele>
        <time>2022-08-12T06:57:57Z</time>
      </trkpt>
      <trkpt lat="44.6006" lon="0.88985">
        <ele>182.4243766</ele>
        <time>2022-08-12T06:57:59Z</time>
      </trkpt>
      <trkpt lat="44.60061" lon="0.88979">
        <ele>182.7683761</ele>
        <time>2022-08-12T06:58:01Z</time>
      </trkpt>
      <trkpt lat="44.60062" lon="0.88974">
        <ele>182.8122958</ele>
        <time>2022-08-12T06:58:03Z</time>
      </trkpt>
      <trkpt lat="44.60063" lon="0.88969">
        <ele>182.9964339</ele>
        <time>2022-08-12T06:58:05Z</time>
      </trkpt>
      <trkpt lat="44.60064" lon="0.88964">
        <ele>182.8993677</ele>
        <time>2022-08-12T06:58:07Z</time>
      </trkpt>
      <trkpt lat="44.60066" lon="0.88958">
        <ele>183.3528158</ele>
        <time>2022-08-12T06:58:09Z</time>
      </trkpt>
      <trkpt lat="44.60067" lon="0.88953">
        <ele>183.6188804</ele>
        <time>2022-08-12T06:58:11Z</time>
      </trkpt>
      <trkpt lat="44.60068" lon="0.88948">
        <ele>183.8490823</ele>
        <time>2022-08-12T06:58:13Z</time>
      </trkpt>
      <trkpt lat="44.60069" lon="0.88943">
        <ele>184.072621</ele>
        <time>2022-08-12T06:58:15Z</time>
      </trkpt>
      <trkpt lat="44.60071" lon="0.88938">
        <ele>184.6086314</ele>
        <time>2022-08-12T06:58:17Z</time>
      </trkpt>
      <trkpt lat="44.60073" lon="0.88933">
        <ele>184.5465147</ele>
        <time>2022-08-12T06:58:19Z</time>
      </trkpt>
      <trkpt lat="44.60075" lon="0.88928">
        <ele>184.2145874</ele>
        <time>2022-08-12T06:58:21Z</time>
      </trkpt>
      <trkpt lat="44.60076" lon="0.88923">
        <ele>183.7836527</ele>
        <time>2022-08-12T06:58:23Z</time>
      </trkpt>
      <trkpt lat="44.60078" lon="0.88918">
        <ele>184.0956971</ele>
        <time>2022-08-12T06:58:25Z</time>
      </trkpt>
      <trkpt lat="44.60079" lon="0.88913">
        <ele>184.1319026</ele>
        <time>2022-08-12T06:58:27Z</time>
      </trkpt>
      <trkpt lat="44.6008" lon="0.88906">
        <ele>184.3447488</ele>
        <time>2022-08-12T06:58:29Z</time>
      </trkpt>
      <trkpt lat="44.60081" lon="0.88901">
        <ele>184.8876848</ele>
        <time>2022-08-12T06:58:31Z</time>
      </trkpt>
      <trkpt lat="44.60083" lon="0.88896">
        <ele>185.4196253</ele>
        <time>2022-08-12T06:58:33Z</time>
      </trkpt>
      <trkpt lat="44.60084" lon="0.88889">
        <ele>185.5787681</ele>
        <time>2022-08-12T06:58:35Z</time>
      </trkpt>
      <trkpt lat="44.60085" lon="0.88884">
        <ele>186.263621</ele>
        <time>2022-08-12T06:58:37Z</time>
      </trkpt>
      <trkpt lat="44.60085" lon="0.88878">
        <ele>186.8853433</ele>
        <time>2022-08-12T06:58:39Z</time>
      </trkpt>
      <trkpt lat="44.60086" lon="0.88872">
        <ele>187.163318</ele>
        <time>2022-08-12T06:58:41Z</time>
      </trkpt>
      <trkpt lat="44.60086" lon="0.88867">
        <ele>187.1701829</ele>
        <time>2022-08-12T06:58:43Z</time>
      </trkpt>
      <trkpt lat="44.60086" lon="0.88861">
        <ele>187.747295</ele>
        <time>2022-08-12T06:58:45Z</time>
      </trkpt>
      <trkpt lat="44.60086" lon="0.88856">
        <ele>187.6843022</ele>
        <time>2022-08-12T06:58:47Z</time>
      </trkpt>
      <trkpt lat="44.60085" lon="0.88851">
        <ele>187.5530441</ele>
        <time>2022-08-12T06:58:49Z</time>
      </trkpt>
      <trkpt lat="44.60085" lon="0.88845">
        <ele>188.2938118</ele>
        <time>2022-08-12T06:58:51Z</time>
      </trkpt>
      <trkpt lat="44.60085" lon="0.88839">
        <ele>189.0811549</ele>
        <time>2022-08-12T06:58:53Z</time>
      </trkpt>
      <trkpt lat="44.60084" lon="0.88833">
        <ele>189.202216</ele>
        <time>2022-08-12T06:58:55Z</time>
      </trkpt>
      <trkpt lat="44.60083" lon="0.88828">
        <ele>189.4932325</ele>
        <time>2022-08-12T06:58:57Z</time>
      </trkpt>
      <trkpt lat="44.60082" lon="0.88822">
        <ele>189.6548683</ele>
        <time>2022-08-12T06:58:59Z</time>
      </trkpt>
      <trkpt lat="44.60082" lon="0.88816">
        <ele>190.2236166</ele>
        <time>2022-08-12T06:59:01Z</time>
      </trkpt>
      <trkpt lat="44.60081" lon="0.88811">
        <ele>190.4838434</ele>
        <time>2022-08-12T06:59:03Z</time>
      </trkpt>
      <trkpt lat="44.6008" lon="0.88805">
        <ele>190.9352741</ele>
        <time>2022-08-12T06:59:05Z</time>
      </trkpt>
      <trkpt lat="44.60079" lon="0.888">
        <ele>191.2587831</ele>
        <time>2022-08-12T06:59:07Z</time>
      </trkpt>
      <trkpt lat="44.60078" lon="0.88794">
        <ele>191.8627635</ele>
        <time>2022-08-12T06:59:09Z</time>
      </trkpt>
      <trkpt lat="44.60077" lon="0.88788">
        <ele>192.0238709</ele>
        <time>2022-08-12T06:59:11Z</time>
      </trkpt>
      <trkpt lat="44.60076" lon="0.88783">
        <ele>192.3814035</ele>
        <time>2022-08-12T06:59:13Z</time>
      </trkpt>
      <trkpt lat="44.60076" lon="0.88777">
        <ele>193.00074</ele>
        <time>2022-08-12T06:59:15Z</time>
      </trkpt>
      <trkpt lat="44.60075" lon="0.88772">
        <ele>193.283641</ele>
        <time>2022-08-12T06:59:17Z</time>
      </trkpt>
      <trkpt lat="44.60074" lon="0.88766">
        <ele>193.4852345</ele>
        <time>2022-08-12T06:59:19Z</time>
      </trkpt>
      <trkpt lat="44.60074" lon="0.88761">
        <ele>193.7416871</ele>
        <time>2022-08-12T06:59:21Z</time>
      </trkpt>
      <trkpt lat="44.60073" lon="0.88756">
        <ele>194.3628928</ele>
        <time>2022-08-12T06:59:23Z</time>
      </trkpt>
      <trkpt lat="44.60072" lon="0.8875">
        <ele>194.6046177</ele>
        <time>2022-08-12T06:59:25Z</time>
      </trkpt>
      <trkpt lat="44.60071" lon="0.88744">
        <ele>194.7252228</ele>
        <time>2022-08-12T06:59:27Z</time>
      </trkpt>
      <trkpt lat="44.60071" lon="0.88738">
        <ele>194.7257742</ele>
        <time>2022-08-12T06:59:29Z</time>
      </trkpt>
      <trkpt lat="44.6007" lon="0.88732">
        <ele>194.4973575</ele>
        <time>2022-08-12T06:59:31Z</time>
      </trkpt>
      <trkpt lat="44.6007" lon="0.88726">
        <ele>194.6996017</ele>
        <time>2022-08-12T06:59:33Z</time>
      </trkpt>
      <trkpt lat="44.60069" lon="0.88719">
        <ele>195.0420875</ele>
        <time>2022-08-12T06:59:35Z</time>
      </trkpt>
      <trkpt lat="44.60068" lon="0.88713">
        <ele>195.1077062</ele>
        <time>2022-08-12T06:59:37Z</time>
      </trkpt>
      <trkpt lat="44.60067" lon="0.88706">
        <ele>194.9737217</ele>
        <time>2022-08-12T06:59:39Z</time>
      </trkpt>
      <trkpt lat="44.60066" lon="0.88701">
        <ele>195.1525983</ele>
        <time>2022-08-12T06:59:41Z</time>
      </trkpt>
      <trkpt lat="44.60065" lon="0.88695">
        <ele>194.9635574</ele>
        <time>2022-08-12T06:59:43Z</time>
      </trkpt>
      <trkpt lat="44.60064" lon="0.88689">
        <ele>195.0480609</ele>
        <time>2022-08-12T06:59:45Z</time>
      </trkpt>
      <trkpt lat="44.60064" lon="0.88683">
        <ele>195.4144239</ele>
        <time>2022-08-12T06:59:47Z</time>
      </trkpt>
      <trkpt lat="44.60062" lon="0.88676">
        <ele>195.3253843</ele>
        <time>2022-08-12T06:59:49Z</time>
      </trkpt>
      <trkpt lat="44.60062" lon="0.88669">
        <ele>195.2347245</ele>
        <time>2022-08-12T06:59:51Z</time>
      </trkpt>
      <trkpt lat="44.60061" lon="0.88663">
        <ele>195.4020943</ele>
        <time>2022-08-12T06:59:53Z</time>
      </trkpt>
      <trkpt lat="44.6006" lon="0.88656">
        <ele>195.8632939</ele>
        <time>2022-08-12T06:59:55Z</time>
      </trkpt>
      <trkpt lat="44.6006" lon="0.88649">
        <ele>195.7581103</ele>
        <time>2022-08-12T06:59:57Z</time>
      </trkpt>
      <trkpt lat="44.60059" lon="0.88642">
        <ele>196.0870322</ele>
        <time>2022-08-12T06:59:59Z</time>
      </trkpt>
      <trkpt lat="44.60058" lon="0.88635">
        <ele>195.9156714</ele>
        <time>2022-08-12T07:00:01Z</time>
      </trkpt>
      <trkpt lat="44.60057" lon="0.88628">
        <ele>195.9619715</ele>
        <time>2022-08-12T07:00:03Z</time>
      </trkpt>
      <trkpt lat="44.60056" lon="0.88622">
        <ele>195.6810388</ele>
        <time>2022-08-12T07:00:05Z</time>
      </trkpt>
      <trkpt lat="44.60054" lon="0.88615">
        <ele>196.0192995</ele>
        <time>2022-08-12T07:00:07Z</time>
      </trkpt>
      <trkpt lat="44.60053" lon="0.88608">
        <ele>195.5747148</ele>
        <time>2022-08-12T07:00:09Z</time>
      </trkpt>
      <trkpt lat="44.60052" lon="0.88601">
        <ele>195.3992581</ele>
        <time>2022-08-12T07:00:11Z</time>
      </trkpt>
      <trkpt lat="44.60051" lon="0.88593">
        <ele>195.3742325</ele>
        <time>2022-08-12T07:00:13Z</time>
      </trkpt>
      <trkpt lat="44.60049" lon="0.88583">
        <ele>195.3041085</ele>
        <time>2022-08-12T07:00:15Z</time>
      </trkpt>
      <trkpt lat="44.60046" lon="0.88573">
        <ele>195.1256147</ele>
        <time>2022-08-12T07:00:17Z</time>
      </trkpt>
      <trkpt lat="44.60045" lon="0.88562">
        <ele>194.5608912</ele>
        <time>2022-08-12T07:00:19Z</time>
      </trkpt>
      <trkpt lat="44.60042" lon="0.8855">
        <ele>194.2932362</ele>
        <time>2022-08-12T07:00:21Z</time>
      </trkpt>
      <trkpt lat="44.6004" lon="0.88537">
        <ele>193.578035</ele>
        <time>2022-08-12T07:00:23Z</time>
      </trkpt>
      <trkpt lat="44.60036" lon="0.88523">
        <ele>193.8279776</ele>
        <time>2022-08-12T07:00:25Z</time>
      </trkpt>
      <trkpt lat="44.60034" lon="0.88508">
        <ele>194.1087385</ele>
        <time>2022-08-12T07:00:27Z</time>
      </trkpt>
      <trkpt lat="44.60029" lon="0.88492">
        <ele>192.6653772</ele>
        <time>2022-08-12T07:00:29Z</time>
      </trkpt>
      <trkpt lat="44.60026" lon="0.88476">
        <ele>191.8361028</ele>
        <time>2022-08-12T07:00:31Z</time>
      </trkpt>
      <trkpt lat="44.60022" lon="0.88459">
        <ele>191.6481327</ele>
        <time>2022-08-12T07:00:33Z</time>
      </trkpt>
      <trkpt lat="44.60018" lon="0.88443">
        <ele>190.4504726</ele>
        <time>2022-08-12T07:00:35Z</time>
      </trkpt>
      <trkpt lat="44.60015" lon="0.88426">
        <ele>190.1718839</ele>
        <time>2022-08-12T07:00:37Z</time>
      </trkpt>
      <trkpt lat="44.60011" lon="0.88411">
        <ele>189.3706812</ele>
        <time>2022-08-12T07:00:39Z</time>
      </trkpt>
      <trkpt lat="44.60008" lon="0.88396">
        <ele>189.8918412</ele>
        <time>2022-08-12T07:00:41Z</time>
      </trkpt>
      <trkpt lat="44.60005" lon="0.88382">
        <ele>190.0177646</ele>
        <time>2022-08-12T07:00:43Z</time>
      </trkpt>
      <trkpt lat="44.60002" lon="0.8837">
        <ele>189.7128325</ele>
        <time>2022-08-12T07:00:45Z</time>
      </trkpt>
      <trkpt lat="44.60001" lon="0.88359">
        <ele>189.5449709</ele>
        <time>2022-08-12T07:00:47Z</time>
      </trkpt>
      <trkpt lat="44.59998" lon="0.88346">
        <ele>189.8964775</ele>
        <time>2022-08-12T07:00:49Z</time>
      </trkpt>
      <trkpt lat="44.59996" lon="0.88336">
        <ele>190.0232412</ele>
        <time>2022-08-12T07:00:51Z</time>
      </trkpt>
      <trkpt lat="44.59996" lon="0.88325">
        <ele>190.0312365</ele>
        <time>2022-08-12T07:00:53Z</time>
      </trkpt>
      <trkpt lat="44.59995" lon="0.88315">
        <ele>190.2409648</ele>
        <time>2022-08-12T07:00:55Z</time>
      </trkpt>
      <trkpt lat="44.59995" lon="0.88304">
        <ele>191.1084678</ele>
        <time>2022-08-12T07:00:57Z</time>
      </trkpt>
      <trkpt lat="44.59993" lon="0.88293">
        <ele>191.2560686</ele>
        <time>2022-08-12T07:00:59Z</time>
      </trkpt>
      <trkpt lat="44.59992" lon="0.88282">
        <ele>192.3832218</ele>
        <time>2022-08-12T07:01:01Z</time>
      </trkpt>
      <trkpt lat="44.59992" lon="0.88273">
        <ele>192.6484538</ele>
        <time>2022-08-12T07:01:03Z</time>
      </trkpt>
      <trkpt lat="44.59991" lon="0.88263">
        <ele>192.8589314</ele>
        <time>2022-08-12T07:01:05Z</time>
      </trkpt>
      <trkpt lat="44.59991" lon="0.88253">
        <ele>192.7817274</ele>
        <time>2022-08-12T07:01:07Z</time>
      </trkpt>
      <trkpt lat="44.5999" lon="0.88244">
        <ele>192.8576563</ele>
        <time>2022-08-12T07:01:09Z</time>
      </trkpt>
      <trkpt lat="44.59989" lon="0.88237">
        <ele>192.8219187</ele>
        <time>2022-08-12T07:01:11Z</time>
      </trkpt>
      <trkpt lat="44.59989" lon="0.88228">
        <ele>192.240691</ele>
        <time>2022-08-12T07:01:13Z</time>
      </trkpt>
      <trkpt lat="44.59988" lon="0.88221">
        <ele>192.8986489</ele>
        <time>2022-08-12T07:01:15Z</time>
      </trkpt>
      <trkpt lat="44.59987" lon="0.88212">
        <ele>193.3288507</ele>
        <time>2022-08-12T07:01:17Z</time>
      </trkpt>
      <trkpt lat="44.59987" lon="0.88204">
        <ele>193.8776904</ele>
        <time>2022-08-12T07:01:19Z</time>
      </trkpt>
      <trkpt lat="44.59986" lon="0.88195">
        <ele>193.7866847</ele>
        <time>2022-08-12T07:01:21Z</time>
      </trkpt>
      <trkpt lat="44.59986" lon="0.88188">
        <ele>193.2477149</ele>
        <time>2022-08-12T07:01:23Z</time>
      </trkpt>
      <trkpt lat="44.59986" lon="0.88179">
        <ele>193.9643503</ele>
        <time>2022-08-12T07:01:25Z</time>
      </trkpt>
      <trkpt lat="44.59985" lon="0.88171">
        <ele>193.9505838</ele>
        <time>2022-08-12T07:01:27Z</time>
      </trkpt>
      <trkpt lat="44.59984" lon="0.88162">
        <ele>194.5875609</ele>
        <time>2022-08-12T07:01:29Z</time>
      </trkpt>
      <trkpt lat="44.59983" lon="0.88154">
        <ele>194.4310072</ele>
        <time>2022-08-12T07:01:31Z</time>
      </trkpt>
      <trkpt lat="44.59983" lon="0.88146">
        <ele>194.8332787</ele>
        <time>2022-08-12T07:01:33Z</time>
      </trkpt>
      <trkpt lat="44.59981" lon="0.88138">
        <ele>194.7509029</ele>
        <time>2022-08-12T07:01:35Z</time>
      </trkpt>
      <trkpt lat="44.59981" lon="0.88131">
        <ele>194.5425166</ele>
        <time>2022-08-12T07:01:37Z</time>
      </trkpt>
      <trkpt lat="44.5998" lon="0.88123">
        <ele>194.4637243</ele>
        <time>2022-08-12T07:01:39Z</time>
      </trkpt>
      <trkpt lat="44.59979" lon="0.88113">
        <ele>194.8818494</ele>
        <time>2022-08-12T07:01:41Z</time>
      </trkpt>
      <trkpt lat="44.59978" lon="0.88106">
        <ele>194.3984067</ele>
        <time>2022-08-12T07:01:43Z</time>
      </trkpt>
      <trkpt lat="44.59978" lon="0.88098">
        <ele>194.4535378</ele>
        <time>2022-08-12T07:01:45Z</time>
      </trkpt>
      <trkpt lat="44.59976" lon="0.8809">
        <ele>194.9373706</ele>
        <time>2022-08-12T07:01:47Z</time>
      </trkpt>
      <trkpt lat="44.59976" lon="0.88082">
        <ele>195.0460016</ele>
        <time>2022-08-12T07:01:49Z</time>
      </trkpt>
      <trkpt lat="44.59975" lon="0.88074">
        <ele>195.298333</ele>
        <time>2022-08-12T07:01:51Z</time>
      </trkpt>
      <trkpt lat="44.59975" lon="0.88067">
        <ele>195.3820549</ele>
        <time>2022-08-12T07:01:53Z</time>
      </trkpt>
      <trkpt lat="44.59974" lon="0.88059">
        <ele>195.9165568</ele>
        <time>2022-08-12T07:01:55Z</time>
      </trkpt>
      <trkpt lat="44.59973" lon="0.8805">
        <ele>196.716835</ele>
        <time>2022-08-12T07:01:57Z</time>
      </trkpt>
      <trkpt lat="44.59973" lon="0.88044">
        <ele>196.5528839</ele>
        <time>2022-08-12T07:01:59Z</time>
      </trkpt>
      <trkpt lat="44.59971" lon="0.88036">
        <ele>197.5081978</ele>
        <time>2022-08-12T07:02:01Z</time>
      </trkpt>
      <trkpt lat="44.59971" lon="0.8803">
        <ele>196.1895075</ele>
        <time>2022-08-12T07:02:03Z</time>
      </trkpt>
      <trkpt lat="44.59969" lon="0.88022">
        <ele>195.7097399</ele>
        <time>2022-08-12T07:02:05Z</time>
      </trkpt>
      <trkpt lat="44.59968" lon="0.88016">
        <ele>196.7886934</ele>
        <time>2022-08-12T07:02:07Z</time>
      </trkpt>
      <trkpt lat="44.59966" lon="0.88007">
        <ele>196.2605489</ele>
        <time>2022-08-12T07:02:09Z</time>
      </trkpt>
      <trkpt lat="44.59965" lon="0.87999">
        <ele>195.6277586</ele>
        <time>2022-08-12T07:02:11Z</time>
      </trkpt>
      <trkpt lat="44.59963" lon="0.87991">
        <ele>195.1968766</ele>
        <time>2022-08-12T07:02:13Z</time>
      </trkpt>
      <trkpt lat="44.59962" lon="0.87981">
        <ele>194.0600206</ele>
        <time>2022-08-12T07:02:15Z</time>
      </trkpt>
      <trkpt lat="44.59961" lon="0.87971">
        <ele>194.5472096</ele>
        <time>2022-08-12T07:02:17Z</time>
      </trkpt>
      <trkpt lat="44.59958" lon="0.8796">
        <ele>194.1071311</ele>
        <time>2022-08-12T07:02:19Z</time>
      </trkpt>
      <trkpt lat="44.59956" lon="0.87948">
        <ele>193.7017696</ele>
        <time>2022-08-12T07:02:21Z</time>
      </trkpt>
      <trkpt lat="44.59952" lon="0.87936">
        <ele>193.4559918</ele>
        <time>2022-08-12T07:02:23Z</time>
      </trkpt>
      <trkpt lat="44.59949" lon="0.87922">
        <ele>193.4318427</ele>
        <time>2022-08-12T07:02:25Z</time>
      </trkpt>
      <trkpt lat="44.59946" lon="0.87907">
        <ele>192.6777195</ele>
        <time>2022-08-12T07:02:27Z</time>
      </trkpt>
      <trkpt lat="44.59946" lon="0.87891">
        <ele>190.8788275</ele>
        <time>2022-08-12T07:02:29Z</time>
      </trkpt>
      <trkpt lat="44.59945" lon="0.87875">
        <ele>189.7790608</ele>
        <time>2022-08-12T07:02:31Z</time>
      </trkpt>
      <trkpt lat="44.59948" lon="0.87855">
        <ele>189.3949185</ele>
        <time>2022-08-12T07:02:33Z</time>
      </trkpt>
      <trkpt lat="44.59953" lon="0.87834">
        <ele>188.2061316</ele>
        <time>2022-08-12T07:02:35Z</time>
      </trkpt>
      <trkpt lat="44.5996" lon="0.87814">
        <ele>187.3938621</ele>
        <time>2022-08-12T07:02:37Z</time>
      </trkpt>
      <trkpt lat="44.5997" lon="0.87792">
        <ele>187.8345683</ele>
        <time>2022-08-12T07:02:39Z</time>
      </trkpt>
      <trkpt lat="44.59981" lon="0.87773">
        <ele>185.9765852</ele>
        <time>2022-08-12T07:02:41Z</time>
      </trkpt>
      <trkpt lat="44.59993" lon="0.87752">
        <ele>185.1563428</ele>
        <time>2022-08-12T07:02:43Z</time>
      </trkpt>
      <trkpt lat="44.60004" lon="0.87728">
        <ele>184.0385593</ele>
        <time>2022-08-12T07:02:45Z</time>
      </trkpt>
      <trkpt lat="44.60016" lon="0.87707">
        <ele>182.2881065</ele>
        <time>2022-08-12T07:02:47Z</time>
      </trkpt>
      <trkpt lat="44.60027" lon="0.87686">
        <ele>180.398943</ele>
        <time>2022-08-12T07:02:49Z</time>
      </trkpt>
      <trkpt lat="44.6004" lon="0.87666">
        <ele>179.0095213</ele>
        <time>2022-08-12T07:02:51Z</time>
      </trkpt>
      <trkpt lat="44.60055" lon="0.87648">
        <ele>178.0705773</ele>
        <time>2022-08-12T07:02:53Z</time>
      </trkpt>
      <trkpt lat="44.60072" lon="0.8764">
        <ele>176.3317788</ele>
        <time>2022-08-12T07:02:55Z</time>
      </trkpt>
      <trkpt lat="44.60089" lon="0.87636">
        <ele>175.2646113</ele>
        <time>2022-08-12T07:02:57Z</time>
      </trkpt>
      <trkpt lat="44.60105" lon="0.87641">
        <ele>174.0601233</ele>
        <time>2022-08-12T07:02:59Z</time>
      </trkpt>
      <trkpt lat="44.60118" lon="0.87653">
        <ele>171.6060388</ele>
        <time>2022-08-12T07:03:01Z</time>
      </trkpt>
      <trkpt lat="44.60119" lon="0.87594">
        <ele>173.6403991</ele>
        <time>2022-08-12T07:03:03Z</time>
      </trkpt>
      <trkpt lat="44.60124" lon="0.87579">
        <ele>172.9285084</ele>
        <time>2022-08-12T07:03:05Z</time>
      </trkpt>
      <trkpt lat="44.60127" lon="0.87563">
        <ele>172.0036179</ele>
        <time>2022-08-12T07:03:07Z</time>
      </trkpt>
      <trkpt lat="44.60129" lon="0.87547">
        <ele>170.8428696</ele>
        <time>2022-08-12T07:03:09Z</time>
      </trkpt>
      <trkpt lat="44.6013" lon="0.87532">
        <ele>170.2586018</ele>
        <time>2022-08-12T07:03:11Z</time>
      </trkpt>
      <trkpt lat="44.6013" lon="0.87514">
        <ele>169.3119844</ele>
        <time>2022-08-12T07:03:13Z</time>
      </trkpt>
      <trkpt lat="44.60131" lon="0.87498">
        <ele>168.3677176</ele>
        <time>2022-08-12T07:03:15Z</time>
      </trkpt>
      <trkpt lat="44.60129" lon="0.87481">
        <ele>167.4799281</ele>
        <time>2022-08-12T07:03:17Z</time>
      </trkpt>
      <trkpt lat="44.60126" lon="0.87465">
        <ele>166.7941557</ele>
        <time>2022-08-12T07:03:19Z</time>
      </trkpt>
      <trkpt lat="44.60122" lon="0.87448">
        <ele>166.0865962</ele>
        <time>2022-08-12T07:03:21Z</time>
      </trkpt>
      <trkpt lat="44.60117" lon="0.8743">
        <ele>164.6835233</ele>
        <time>2022-08-12T07:03:23Z</time>
      </trkpt>
      <trkpt lat="44.6011" lon="0.87412">
        <ele>164.2880338</ele>
        <time>2022-08-12T07:03:25Z</time>
      </trkpt>
      <trkpt lat="44.60101" lon="0.87397">
        <ele>163.9220862</ele>
        <time>2022-08-12T07:03:27Z</time>
      </trkpt>
      <trkpt lat="44.60092" lon="0.87382">
        <ele>162.5778531</ele>
        <time>2022-08-12T07:03:29Z</time>
      </trkpt>
      <trkpt lat="44.60083" lon="0.87368">
        <ele>162.2835496</ele>
        <time>2022-08-12T07:03:31Z</time>
      </trkpt>
      <trkpt lat="44.60074" lon="0.87354">
        <ele>162.1843186</ele>
        <time>2022-08-12T07:03:33Z</time>
      </trkpt>
      <trkpt lat="44.60065" lon="0.87342">
        <ele>161.6773888</ele>
        <time>2022-08-12T07:03:35Z</time>
      </trkpt>
      <trkpt lat="44.60057" lon="0.8733">
        <ele>160.9687725</ele>
        <time>2022-08-12T07:03:37Z</time>
      </trkpt>
      <trkpt lat="44.6005" lon="0.87319">
        <ele>160.2041953</ele>
        <time>2022-08-12T07:03:39Z</time>
      </trkpt>
      <trkpt lat="44.60044" lon="0.87309">
        <ele>158.9230538</ele>
        <time>2022-08-12T07:03:41Z</time>
      </trkpt>
      <trkpt lat="44.60039" lon="0.873">
        <ele>158.5303134</ele>
        <time>2022-08-12T07:03:43Z</time>
      </trkpt>
      <trkpt lat="44.60035" lon="0.87288">
        <ele>157.727114</ele>
        <time>2022-08-12T07:03:45Z</time>
      </trkpt>
      <trkpt lat="44.60033" lon="0.87275">
        <ele>156.6882715</ele>
        <time>2022-08-12T07:03:47Z</time>
      </trkpt>
      <trkpt lat="44.60032" lon="0.87264">
        <ele>155.9261298</ele>
        <time>2022-08-12T07:03:49Z</time>
      </trkpt>
      <trkpt lat="44.60032" lon="0.87252">
        <ele>155.483529</ele>
        <time>2022-08-12T07:03:51Z</time>
      </trkpt>
      <trkpt lat="44.60032" lon="0.87238">
        <ele>155.4485698</ele>
        <time>2022-08-12T07:03:53Z</time>
      </trkpt>
      <trkpt lat="44.60032" lon="0.87224">
        <ele>154.7629685</ele>
        <time>2022-08-12T07:03:55Z</time>
      </trkpt>
      <trkpt lat="44.60031" lon="0.8721">
        <ele>154.6876279</ele>
        <time>2022-08-12T07:03:57Z</time>
      </trkpt>
      <trkpt lat="44.60031" lon="0.87196">
        <ele>154.3932175</ele>
        <time>2022-08-12T07:03:59Z</time>
      </trkpt>
      <trkpt lat="44.6003" lon="0.87183">
        <ele>154.8754148</ele>
        <time>2022-08-12T07:04:01Z</time>
      </trkpt>
      <trkpt lat="44.6003" lon="0.87171">
        <ele>155.2479962</ele>
        <time>2022-08-12T07:04:03Z</time>
      </trkpt>
      <trkpt lat="44.60029" lon="0.87159">
        <ele>155.3753587</ele>
        <time>2022-08-12T07:04:05Z</time>
      </trkpt>
      <trkpt lat="44.60027" lon="0.87148">
        <ele>155.5010959</ele>
        <time>2022-08-12T07:04:07Z</time>
      </trkpt>
      <trkpt lat="44.60026" lon="0.87138">
        <ele>156.0127329</ele>
        <time>2022-08-12T07:04:09Z</time>
      </trkpt>
      <trkpt lat="44.60025" lon="0.87128">
        <ele>156.3112836</ele>
        <time>2022-08-12T07:04:11Z</time>
      </trkpt>
      <trkpt lat="44.60023" lon="0.87119">
        <ele>156.9440897</ele>
        <time>2022-08-12T07:04:13Z</time>
      </trkpt>
      <trkpt lat="44.60022" lon="0.87111">
        <ele>157.1805248</ele>
        <time>2022-08-12T07:04:15Z</time>
      </trkpt>
      <trkpt lat="44.60021" lon="0.87102">
        <ele>157.6544227</ele>
        <time>2022-08-12T07:04:17Z</time>
      </trkpt>
      <trkpt lat="44.60019" lon="0.87093">
        <ele>157.7159903</ele>
        <time>2022-08-12T07:04:19Z</time>
      </trkpt>
      <trkpt lat="44.60017" lon="0.87084">
        <ele>158.2185094</ele>
        <time>2022-08-12T07:04:21Z</time>
      </trkpt>
      <trkpt lat="44.60015" lon="0.87076">
        <ele>158.5631106</ele>
        <time>2022-08-12T07:04:23Z</time>
      </trkpt>
      <trkpt lat="44.60013" lon="0.87069">
        <ele>158.9355857</ele>
        <time>2022-08-12T07:04:25Z</time>
      </trkpt>
      <trkpt lat="44.60012" lon="0.87061">
        <ele>159.7250064</ele>
        <time>2022-08-12T07:04:27Z</time>
      </trkpt>
      <trkpt lat="44.6001" lon="0.87054">
        <ele>159.6475068</ele>
        <time>2022-08-12T07:04:29Z</time>
      </trkpt>
      <trkpt lat="44.60009" lon="0.87046">
        <ele>159.473639</ele>
        <time>2022-08-12T07:04:31Z</time>
      </trkpt>
      <trkpt lat="44.60006" lon="0.87039">
        <ele>160.6011368</ele>
        <time>2022-08-12T07:04:33Z</time>
      </trkpt>
      <trkpt lat="44.60006" lon="0.87032">
        <ele>160.953834</ele>
        <time>2022-08-12T07:04:35Z</time>
      </trkpt>
      <trkpt lat="44.60003" lon="0.87024">
        <ele>160.7040024</ele>
        <time>2022-08-12T07:04:37Z</time>
      </trkpt>
      <trkpt lat="44.60003" lon="0.87018">
        <ele>161.2731121</ele>
        <time>2022-08-12T07:04:39Z</time>
      </trkpt>
      <trkpt lat="44.60002" lon="0.8701">
        <ele>161.1207371</ele>
        <time>2022-08-12T07:04:41Z</time>
      </trkpt>
      <trkpt lat="44.59999" lon="0.87003">
        <ele>161.1681803</ele>
        <time>2022-08-12T07:04:43Z</time>
      </trkpt>
      <trkpt lat="44.59997" lon="0.86995">
        <ele>161.1207988</ele>
        <time>2022-08-12T07:04:45Z</time>
      </trkpt>
      <trkpt lat="44.59995" lon="0.86986">
        <ele>160.4067048</ele>
        <time>2022-08-12T07:04:47Z</time>
      </trkpt>
      <trkpt lat="44.59993" lon="0.86976">
        <ele>160.274336</ele>
        <time>2022-08-12T07:04:49Z</time>
      </trkpt>
      <trkpt lat="44.5999" lon="0.86967">
        <ele>159.8216282</ele>
        <time>2022-08-12T07:04:51Z</time>
      </trkpt>
      <trkpt lat="44.59986" lon="0.86956">
        <ele>158.8447519</ele>
        <time>2022-08-12T07:04:53Z</time>
      </trkpt>
      <trkpt lat="44.5998" lon="0.86945">
        <ele>158.8594982</ele>
        <time>2022-08-12T07:04:55Z</time>
      </trkpt>
      <trkpt lat="44.59973" lon="0.86932">
        <ele>158.2866147</ele>
        <time>2022-08-12T07:04:57Z</time>
      </trkpt>
      <trkpt lat="44.59967" lon="0.86918">
        <ele>157.7032019</ele>
        <time>2022-08-12T07:04:59Z</time>
      </trkpt>
      <trkpt lat="44.59961" lon="0.86902">
        <ele>156.9960751</ele>
        <time>2022-08-12T07:05:01Z</time>
      </trkpt>
      <trkpt lat="44.59956" lon="0.86886">
        <ele>157.0396515</ele>
        <time>2022-08-12T07:05:03Z</time>
      </trkpt>
      <trkpt lat="44.59951" lon="0.86871">
        <ele>156.9977528</ele>
        <time>2022-08-12T07:05:05Z</time>
      </trkpt>
      <trkpt lat="44.59948" lon="0.86856">
        <ele>156.8030607</ele>
        <time>2022-08-12T07:05:07Z</time>
      </trkpt>
      <trkpt lat="44.59943" lon="0.86841">
        <ele>156.4630182</ele>
        <time>2022-08-12T07:05:09Z</time>
      </trkpt>
      <trkpt lat="44.59938" lon="0.86827">
        <ele>156.8156614</ele>
        <time>2022-08-12T07:05:11Z</time>
      </trkpt>
      <trkpt lat="44.59934" lon="0.86813">
        <ele>156.4189753</ele>
        <time>2022-08-12T07:05:13Z</time>
      </trkpt>
      <trkpt lat="44.59929" lon="0.86801">
        <ele>156.940958</ele>
        <time>2022-08-12T07:05:15Z</time>
      </trkpt>
      <trkpt lat="44.59925" lon="0.86789">
        <ele>156.9780763</ele>
        <time>2022-08-12T07:05:17Z</time>
      </trkpt>
      <trkpt lat="44.59922" lon="0.86778">
        <ele>157.482427</ele>
        <time>2022-08-12T07:05:19Z</time>
      </trkpt>
      <trkpt lat="44.59917" lon="0.86769">
        <ele>156.6481947</ele>
        <time>2022-08-12T07:05:21Z</time>
      </trkpt>
      <trkpt lat="44.59915" lon="0.8676">
        <ele>156.4643813</ele>
        <time>2022-08-12T07:05:23Z</time>
      </trkpt>
      <trkpt lat="44.5991" lon="0.86752">
        <ele>156.381288</ele>
        <time>2022-08-12T07:05:25Z</time>
      </trkpt>
      <trkpt lat="44.59907" lon="0.86744">
        <ele>156.9778384</ele>
        <time>2022-08-12T07:05:27Z</time>
      </trkpt>
      <trkpt lat="44.59904" lon="0.86737">
        <ele>157.5527543</ele>
        <time>2022-08-12T07:05:29Z</time>
      </trkpt>
      <trkpt lat="44.59899" lon="0.86729">
        <ele>157.6824268</ele>
        <time>2022-08-12T07:05:31Z</time>
      </trkpt>
      <trkpt lat="44.59896" lon="0.86722">
        <ele>158.069993</ele>
        <time>2022-08-12T07:05:33Z</time>
      </trkpt>
      <trkpt lat="44.59892" lon="0.86716">
        <ele>158.0557667</ele>
        <time>2022-08-12T07:05:35Z</time>
      </trkpt>
      <trkpt lat="44.59889" lon="0.8671">
        <ele>157.8194194</ele>
        <time>2022-08-12T07:05:37Z</time>
      </trkpt>
      <trkpt lat="44.59885" lon="0.86704">
        <ele>157.7302858</ele>
        <time>2022-08-12T07:05:39Z</time>
      </trkpt>
      <trkpt lat="44.59882" lon="0.86698">
        <ele>158.6723153</ele>
        <time>2022-08-12T07:05:41Z</time>
      </trkpt>
      <trkpt lat="44.59877" lon="0.86693">
        <ele>158.883463</ele>
        <time>2022-08-12T07:05:43Z</time>
      </trkpt>
      <trkpt lat="44.59873" lon="0.86686">
        <ele>159.2776489</ele>
        <time>2022-08-12T07:05:45Z</time>
      </trkpt>
      <trkpt lat="44.59869" lon="0.86681">
        <ele>159.5384954</ele>
        <time>2022-08-12T07:05:47Z</time>
      </trkpt>
      <trkpt lat="44.59864" lon="0.86675">
        <ele>160.0299388</ele>
        <time>2022-08-12T07:05:49Z</time>
      </trkpt>
      <trkpt lat="44.59859" lon="0.8667">
        <ele>160.2694236</ele>
        <time>2022-08-12T07:05:51Z</time>
      </trkpt>
      <trkpt lat="44.59854" lon="0.86663">
        <ele>160.5047901</ele>
        <time>2022-08-12T07:05:53Z</time>
      </trkpt>
      <trkpt lat="44.59849" lon="0.86657">
        <ele>160.7319408</ele>
        <time>2022-08-12T07:05:55Z</time>
      </trkpt>
      <trkpt lat="44.59844" lon="0.86651">
        <ele>161.0821042</ele>
        <time>2022-08-12T07:05:57Z</time>
      </trkpt>
      <trkpt lat="44.59839" lon="0.86645">
        <ele>161.026504</ele>
        <time>2022-08-12T07:05:59Z</time>
      </trkpt>
      <trkpt lat="44.59834" lon="0.86639">
        <ele>161.4829067</ele>
        <time>2022-08-12T07:06:01Z</time>
      </trkpt>
      <trkpt lat="44.59828" lon="0.86632">
        <ele>161.7600656</ele>
        <time>2022-08-12T07:06:03Z</time>
      </trkpt>
      <trkpt lat="44.59822" lon="0.86626">
        <ele>162.3669417</ele>
        <time>2022-08-12T07:06:05Z</time>
      </trkpt>
      <trkpt lat="44.59816" lon="0.86619">
        <ele>162.4399849</ele>
        <time>2022-08-12T07:06:07Z</time>
      </trkpt>
      <trkpt lat="44.5981" lon="0.86612">
        <ele>162.9288557</ele>
        <time>2022-08-12T07:06:09Z</time>
      </trkpt>
      <trkpt lat="44.59803" lon="0.86605">
        <ele>163.4020119</ele>
        <time>2022-08-12T07:06:11Z</time>
      </trkpt>
      <trkpt lat="44.59797" lon="0.86597">
        <ele>163.7820834</ele>
        <time>2022-08-12T07:06:13Z</time>
      </trkpt>
      <trkpt lat="44.59789" lon="0.86591">
        <ele>164.1063327</ele>
        <time>2022-08-12T07:06:15Z</time>
      </trkpt>
      <trkpt lat="44.59782" lon="0.86584">
        <ele>164.5093732</ele>
        <time>2022-08-12T07:06:17Z</time>
      </trkpt>
      <trkpt lat="44.59776" lon="0.86578">
        <ele>165.1410847</ele>
        <time>2022-08-12T07:06:19Z</time>
      </trkpt>
      <trkpt lat="44.5977" lon="0.86571">
        <ele>165.804895</ele>
        <time>2022-08-12T07:06:21Z</time>
      </trkpt>
      <trkpt lat="44.59764" lon="0.86568">
        <ele>166.3306959</ele>
        <time>2022-08-12T07:06:23Z</time>
      </trkpt>
      <trkpt lat="44.59758" lon="0.86563">
        <ele>166.6541278</ele>
        <time>2022-08-12T07:06:25Z</time>
      </trkpt>
      <trkpt lat="44.59753" lon="0.86558">
        <ele>167.0859085</ele>
        <time>2022-08-12T07:06:27Z</time>
      </trkpt>
      <trkpt lat="44.59748" lon="0.86553">
        <ele>167.4239921</ele>
        <time>2022-08-12T07:06:29Z</time>
      </trkpt>
      <trkpt lat="44.59743" lon="0.86548">
        <ele>167.759754</ele>
        <time>2022-08-12T07:06:31Z</time>
      </trkpt>
      <trkpt lat="44.59739" lon="0.86543">
        <ele>168.2744366</ele>
        <time>2022-08-12T07:06:33Z</time>
      </trkpt>
      <trkpt lat="44.59735" lon="0.86537">
        <ele>168.2942422</ele>
        <time>2022-08-12T07:06:35Z</time>
      </trkpt>
      <trkpt lat="44.5973" lon="0.86534">
        <ele>168.8355628</ele>
        <time>2022-08-12T07:06:37Z</time>
      </trkpt>
      <trkpt lat="44.59727" lon="0.86528">
        <ele>168.9752321</ele>
        <time>2022-08-12T07:06:39Z</time>
      </trkpt>
      <trkpt lat="44.59722" lon="0.86524">
        <ele>169.6271798</ele>
        <time>2022-08-12T07:06:41Z</time>
      </trkpt>
      <trkpt lat="44.59718" lon="0.8652">
        <ele>169.9330487</ele>
        <time>2022-08-12T07:06:43Z</time>
      </trkpt>
      <trkpt lat="44.59715" lon="0.86514">
        <ele>170.1969346</ele>
        <time>2022-08-12T07:06:45Z</time>
      </trkpt>
      <trkpt lat="44.59712" lon="0.86509">
        <ele>170.3155651</ele>
        <time>2022-08-12T07:06:47Z</time>
      </trkpt>
      <trkpt lat="44.59708" lon="0.86504">
        <ele>170.5354583</ele>
        <time>2022-08-12T07:06:49Z</time>
      </trkpt>
      <trkpt lat="44.59704" lon="0.86499">
        <ele>170.8441172</ele>
        <time>2022-08-12T07:06:51Z</time>
      </trkpt>
      <trkpt lat="44.597" lon="0.86495">
        <ele>171.1500848</ele>
        <time>2022-08-12T07:06:53Z</time>
      </trkpt>
      <trkpt lat="44.59696" lon="0.86491">
        <ele>171.4758687</ele>
        <time>2022-08-12T07:06:55Z</time>
      </trkpt>
      <trkpt lat="44.59692" lon="0.86486">
        <ele>171.6686477</ele>
        <time>2022-08-12T07:06:57Z</time>
      </trkpt>
      <trkpt lat="44.59689" lon="0.8648">
        <ele>171.3900685</ele>
        <time>2022-08-12T07:06:59Z</time>
      </trkpt>
      <trkpt lat="44.59686" lon="0.86476">
        <ele>171.4545114</ele>
        <time>2022-08-12T07:07:01Z</time>
      </trkpt>
      <trkpt lat="44.59682" lon="0.86471">
        <ele>171.6710904</ele>
        <time>2022-08-12T07:07:03Z</time>
      </trkpt>
      <trkpt lat="44.59679" lon="0.86466">
        <ele>171.7299657</ele>
        <time>2022-08-12T07:07:05Z</time>
      </trkpt>
      <trkpt lat="44.59675" lon="0.8646">
        <ele>171.5032798</ele>
        <time>2022-08-12T07:07:07Z</time>
      </trkpt>
      <trkpt lat="44.59671" lon="0.86455">
        <ele>171.621335</ele>
        <time>2022-08-12T07:07:09Z</time>
      </trkpt>
      <trkpt lat="44.59666" lon="0.8645">
        <ele>171.7721951</ele>
        <time>2022-08-12T07:07:11Z</time>
      </trkpt>
      <trkpt lat="44.59661" lon="0.86443">
        <ele>172.0430305</ele>
        <time>2022-08-12T07:07:13Z</time>
      </trkpt>
      <trkpt lat="44.59657" lon="0.86436">
        <ele>171.8030748</ele>
        <time>2022-08-12T07:07:15Z</time>
      </trkpt>
      <trkpt lat="44.59652" lon="0.86427">
        <ele>171.6153002</ele>
        <time>2022-08-12T07:07:17Z</time>
      </trkpt>
      <trkpt lat="44.59648" lon="0.86419">
        <ele>171.4816036</ele>
        <time>2022-08-12T07:07:19Z</time>
      </trkpt>
      <trkpt lat="44.59643" lon="0.8641">
        <ele>171.4788134</ele>
        <time>2022-08-12T07:07:21Z</time>
      </trkpt>
      <trkpt lat="44.59639" lon="0.86399">
        <ele>171.1884335</ele>
        <time>2022-08-12T07:07:23Z</time>
      </trkpt>
      <trkpt lat="44.59635" lon="0.8639">
        <ele>171.0152722</ele>
        <time>2022-08-12T07:07:25Z</time>
      </trkpt>
      <trkpt lat="44.59631" lon="0.8638">
        <ele>170.7643396</ele>
        <time>2022-08-12T07:07:27Z</time>
      </trkpt>
      <trkpt lat="44.59629" lon="0.8637">
        <ele>170.2503138</ele>
        <time>2022-08-12T07:07:29Z</time>
      </trkpt>
      <trkpt lat="44.59624" lon="0.86359">
        <ele>170.182432</ele>
        <time>2022-08-12T07:07:31Z</time>
      </trkpt>
      <trkpt lat="44.59621" lon="0.86349">
        <ele>169.638804</ele>
        <time>2022-08-12T07:07:33Z</time>
      </trkpt>
      <trkpt lat="44.59616" lon="0.86338">
        <ele>169.1218044</ele>
        <time>2022-08-12T07:07:35Z</time>
      </trkpt>
      <trkpt lat="44.59613" lon="0.86327">
        <ele>168.8482518</ele>
        <time>2022-08-12T07:07:37Z</time>
      </trkpt>
      <trkpt lat="44.5961" lon="0.86316">
        <ele>168.5715728</ele>
        <time>2022-08-12T07:07:39Z</time>
      </trkpt>
      <trkpt lat="44.59607" lon="0.86305">
        <ele>168.4483104</ele>
        <time>2022-08-12T07:07:41Z</time>
      </trkpt>
      <trkpt lat="44.59604" lon="0.86294">
        <ele>168.2876231</ele>
        <time>2022-08-12T07:07:43Z</time>
      </trkpt>
      <trkpt lat="44.59603" lon="0.86283">
        <ele>168.1125554</ele>
        <time>2022-08-12T07:07:45Z</time>
      </trkpt>
      <trkpt lat="44.59602" lon="0.86272">
        <ele>168.3419974</ele>
        <time>2022-08-12T07:07:47Z</time>
      </trkpt>
      <trkpt lat="44.59601" lon="0.86261">
        <ele>168.5225705</ele>
        <time>2022-08-12T07:07:49Z</time>
      </trkpt>
      <trkpt lat="44.596" lon="0.86249">
        <ele>168.5369145</ele>
        <time>2022-08-12T07:07:51Z</time>
      </trkpt>
      <trkpt lat="44.59599" lon="0.86238">
        <ele>168.8234088</ele>
        <time>2022-08-12T07:07:53Z</time>
      </trkpt>
      <trkpt lat="44.59599" lon="0.86227">
        <ele>168.9944389</ele>
        <time>2022-08-12T07:07:55Z</time>
      </trkpt>
      <trkpt lat="44.59599" lon="0.86216">
        <ele>169.3224773</ele>
        <time>2022-08-12T07:07:57Z</time>
      </trkpt>
      <trkpt lat="44.59598" lon="0.86204">
        <ele>169.6344664</ele>
        <time>2022-08-12T07:07:59Z</time>
      </trkpt>
      <trkpt lat="44.59597" lon="0.86192">
        <ele>169.5706612</ele>
        <time>2022-08-12T07:08:01Z</time>
      </trkpt>
      <trkpt lat="44.59597" lon="0.8618">
        <ele>169.3690692</ele>
        <time>2022-08-12T07:08:03Z</time>
      </trkpt>
      <trkpt lat="44.59597" lon="0.86167">
        <ele>169.6029606</ele>
        <time>2022-08-12T07:08:05Z</time>
      </trkpt>
      <trkpt lat="44.59596" lon="0.86154">
        <ele>169.6185325</ele>
        <time>2022-08-12T07:08:07Z</time>
      </trkpt>
      <trkpt lat="44.59596" lon="0.86141">
        <ele>169.8393178</ele>
        <time>2022-08-12T07:08:09Z</time>
      </trkpt>
      <trkpt lat="44.59595" lon="0.86127">
        <ele>169.8207469</ele>
        <time>2022-08-12T07:08:11Z</time>
      </trkpt>
      <trkpt lat="44.59595" lon="0.86114">
        <ele>170.0323251</ele>
        <time>2022-08-12T07:08:13Z</time>
      </trkpt>
      <trkpt lat="44.59594" lon="0.86101">
        <ele>170.2866378</ele>
        <time>2022-08-12T07:08:15Z</time>
      </trkpt>
      <trkpt lat="44.59593" lon="0.86088">
        <ele>170.5929738</ele>
        <time>2022-08-12T07:08:17Z</time>
      </trkpt>
      <trkpt lat="44.59592" lon="0.86074">
        <ele>170.7944946</ele>
        <time>2022-08-12T07:08:19Z</time>
      </trkpt>
      <trkpt lat="44.59592" lon="0.86061">
        <ele>171.1373127</ele>
        <time>2022-08-12T07:08:21Z</time>
      </trkpt>
      <trkpt lat="44.59591" lon="0.86048">
        <ele>171.4462259</ele>
        <time>2022-08-12T07:08:23Z</time>
      </trkpt>
      <trkpt lat="44.5959" lon="0.86035">
        <ele>171.4955996</ele>
        <time>2022-08-12T07:08:25Z</time>
      </trkpt>
      <trkpt lat="44.59589" lon="0.86024">
        <ele>171.6775066</ele>
        <time>2022-08-12T07:08:27Z</time>
      </trkpt>
      <trkpt lat="44.59589" lon="0.86013">
        <ele>171.8971294</ele>
        <time>2022-08-12T07:08:29Z</time>
      </trkpt>
      <trkpt lat="44.59588" lon="0.86003">
        <ele>171.9567646</ele>
        <time>2022-08-12T07:08:31Z</time>
      </trkpt>
      <trkpt lat="44.59587" lon="0.85994">
        <ele>172.1256087</ele>
        <time>2022-08-12T07:08:33Z</time>
      </trkpt>
      <trkpt lat="44.59586" lon="0.85985">
        <ele>172.2334351</ele>
        <time>2022-08-12T07:08:35Z</time>
      </trkpt>
      <trkpt lat="44.59586" lon="0.85977">
        <ele>172.313904</ele>
        <time>2022-08-12T07:08:37Z</time>
      </trkpt>
      <trkpt lat="44.59585" lon="0.85969">
        <ele>172.5009071</ele>
        <time>2022-08-12T07:08:39Z</time>
      </trkpt>
      <trkpt lat="44.59584" lon="0.8596">
        <ele>172.6780393</ele>
        <time>2022-08-12T07:08:41Z</time>
      </trkpt>
      <trkpt lat="44.59583" lon="0.85952">
        <ele>173.1873361</ele>
        <time>2022-08-12T07:08:43Z</time>
      </trkpt>
      <trkpt lat="44.59581" lon="0.85945">
        <ele>173.5678938</ele>
        <time>2022-08-12T07:08:45Z</time>
      </trkpt>
      <trkpt lat="44.5958" lon="0.85937">
        <ele>174.0743196</ele>
        <time>2022-08-12T07:08:47Z</time>
      </trkpt>
      <trkpt lat="44.59578" lon="0.8593">
        <ele>174.434963</ele>
        <time>2022-08-12T07:08:49Z</time>
      </trkpt>
      <trkpt lat="44.59576" lon="0.85923">
        <ele>174.8594928</ele>
        <time>2022-08-12T07:08:51Z</time>
      </trkpt>
      <trkpt lat="44.59574" lon="0.85917">
        <ele>175.1028586</ele>
        <time>2022-08-12T07:08:53Z</time>
      </trkpt>
      <trkpt lat="44.59573" lon="0.85909">
        <ele>175.4611676</ele>
        <time>2022-08-12T07:08:55Z</time>
      </trkpt>
      <trkpt lat="44.59571" lon="0.85903">
        <ele>175.7895762</ele>
        <time>2022-08-12T07:08:57Z</time>
      </trkpt>
      <trkpt lat="44.59569" lon="0.85896">
        <ele>175.9667489</ele>
        <time>2022-08-12T07:08:59Z</time>
      </trkpt>
      <trkpt lat="44.59568" lon="0.8589">
        <ele>176.2850648</ele>
        <time>2022-08-12T07:09:01Z</time>
      </trkpt>
      <trkpt lat="44.59565" lon="0.85883">
        <ele>176.7176598</ele>
        <time>2022-08-12T07:09:03Z</time>
      </trkpt>
      <trkpt lat="44.59563" lon="0.85877">
        <ele>177.1015394</ele>
        <time>2022-08-12T07:09:05Z</time>
      </trkpt>
      <trkpt lat="44.59561" lon="0.8587">
        <ele>177.2913723</ele>
        <time>2022-08-12T07:09:07Z</time>
      </trkpt>
      <trkpt lat="44.59559" lon="0.85864">
        <ele>177.6188607</ele>
        <time>2022-08-12T07:09:09Z</time>
      </trkpt>
      <trkpt lat="44.59556" lon="0.85857">
        <ele>177.7725423</ele>
        <time>2022-08-12T07:09:11Z</time>
      </trkpt>
      <trkpt lat="44.59553" lon="0.85851">
        <ele>178.1230357</ele>
        <time>2022-08-12T07:09:13Z</time>
      </trkpt>
      <trkpt lat="44.59551" lon="0.85845">
        <ele>178.3470995</ele>
        <time>2022-08-12T07:09:15Z</time>
      </trkpt>
      <trkpt lat="44.59548" lon="0.85838">
        <ele>178.6838578</ele>
        <time>2022-08-12T07:09:17Z</time>
      </trkpt>
      <trkpt lat="44.59546" lon="0.85832">
        <ele>178.8368756</ele>
        <time>2022-08-12T07:09:19Z</time>
      </trkpt>
      <trkpt lat="44.59543" lon="0.85826">
        <ele>179.0905412</ele>
        <time>2022-08-12T07:09:21Z</time>
      </trkpt>
      <trkpt lat="44.59541" lon="0.8582">
        <ele>179.3426888</ele>
        <time>2022-08-12T07:09:23Z</time>
      </trkpt>
      <trkpt lat="44.59538" lon="0.85814">
        <ele>179.7201103</ele>
        <time>2022-08-12T07:09:25Z</time>
      </trkpt>
      <trkpt lat="44.59535" lon="0.85808">
        <ele>180.0520831</ele>
        <time>2022-08-12T07:09:27Z</time>
      </trkpt>
      <trkpt lat="44.59533" lon="0.85802">
        <ele>180.1890001</ele>
        <time>2022-08-12T07:09:29Z</time>
      </trkpt>
      <trkpt lat="44.5953" lon="0.85795">
        <ele>180.5127284</ele>
        <time>2022-08-12T07:09:31Z</time>
      </trkpt>
      <trkpt lat="44.59527" lon="0.8579">
        <ele>180.8881866</ele>
        <time>2022-08-12T07:09:33Z</time>
      </trkpt>
      <trkpt lat="44.59524" lon="0.85784">
        <ele>181.130029</ele>
        <time>2022-08-12T07:09:35Z</time>
      </trkpt>
      <trkpt lat="44.59521" lon="0.85778">
        <ele>181.414003</ele>
        <time>2022-08-12T07:09:37Z</time>
      </trkpt>
      <trkpt lat="44.59518" lon="0.85771">
        <ele>181.5448103</ele>
        <time>2022-08-12T07:09:39Z</time>
      </trkpt>
      <trkpt lat="44.59516" lon="0.85766">
        <ele>181.9551048</ele>
        <time>2022-08-12T07:09:41Z</time>
      </trkpt>
      <trkpt lat="44.59513" lon="0.85759">
        <ele>182.1027571</ele>
        <time>2022-08-12T07:09:43Z</time>
      </trkpt>
      <trkpt lat="44.59509" lon="0.85753">
        <ele>182.3237975</ele>
        <time>2022-08-12T07:09:45Z</time>
      </trkpt>
      <trkpt lat="44.59506" lon="0.85745">
        <ele>182.6691031</ele>
        <time>2022-08-12T07:09:47Z</time>
      </trkpt>
      <trkpt lat="44.59503" lon="0.85738">
        <ele>182.9306341</ele>
        <time>2022-08-12T07:09:49Z</time>
      </trkpt>
      <trkpt lat="44.595" lon="0.85731">
        <ele>182.8542987</ele>
        <time>2022-08-12T07:09:51Z</time>
      </trkpt>
      <trkpt lat="44.59497" lon="0.85723">
        <ele>182.8086061</ele>
        <time>2022-08-12T07:09:53Z</time>
      </trkpt>
      <trkpt lat="44.59494" lon="0.85715">
        <ele>182.9979564</ele>
        <time>2022-08-12T07:09:55Z</time>
      </trkpt>
      <trkpt lat="44.59491" lon="0.85705">
        <ele>182.9070463</ele>
        <time>2022-08-12T07:09:57Z</time>
      </trkpt>
      <trkpt lat="44.5949" lon="0.85695">
        <ele>182.796153</ele>
        <time>2022-08-12T07:09:59Z</time>
      </trkpt>
      <trkpt lat="44.59491" lon="0.85684">
        <ele>182.5593651</ele>
        <time>2022-08-12T07:10:01Z</time>
      </trkpt>
      <trkpt lat="44.59491" lon="0.8568">
        <ele>182.1480886</ele>
        <time>2022-08-12T07:10:03Z</time>
      </trkpt>
      <trkpt lat="44.59491" lon="0.85675">
        <ele>182.0919468</ele>
        <time>2022-08-12T07:10:05Z</time>
      </trkpt>
      <trkpt lat="44.59491" lon="0.85669">
        <ele>181.8016164</ele>
        <time>2022-08-12T07:10:07Z</time>
      </trkpt>
      <trkpt lat="44.59492" lon="0.85661">
        <ele>181.6872068</ele>
        <time>2022-08-12T07:10:09Z</time>
      </trkpt>
      <trkpt lat="44.59493" lon="0.85652">
        <ele>181.3317124</ele>
        <time>2022-08-12T07:10:11Z</time>
      </trkpt>
      <trkpt lat="44.59495" lon="0.8564">
        <ele>180.8856741</ele>
        <time>2022-08-12T07:10:13Z</time>
      </trkpt>
      <trkpt lat="44.59496" lon="0.85628">
        <ele>180.5159534</ele>
        <time>2022-08-12T07:10:15Z</time>
      </trkpt>
      <trkpt lat="44.59498" lon="0.85615">
        <ele>179.7606387</ele>
        <time>2022-08-12T07:10:17Z</time>
      </trkpt>
      <trkpt lat="44.59499" lon="0.85603">
        <ele>178.8948066</ele>
        <time>2022-08-12T07:10:19Z</time>
      </trkpt>
      <trkpt lat="44.59501" lon="0.85589">
        <ele>178.1272307</ele>
        <time>2022-08-12T07:10:21Z</time>
      </trkpt>
      <trkpt lat="44.59503" lon="0.85576">
        <ele>177.6244788</ele>
        <time>2022-08-12T07:10:23Z</time>
      </trkpt>
      <trkpt lat="44.59504" lon="0.85563">
        <ele>176.7861577</ele>
        <time>2022-08-12T07:10:25Z</time>
      </trkpt>
      <trkpt lat="44.59506" lon="0.85549">
        <ele>176.3796844</ele>
        <time>2022-08-12T07:10:27Z</time>
      </trkpt>
      <trkpt lat="44.59508" lon="0.85533">
        <ele>175.9817955</ele>
        <time>2022-08-12T07:10:29Z</time>
      </trkpt>
      <trkpt lat="44.5951" lon="0.85518">
        <ele>175.462354</ele>
        <time>2022-08-12T07:10:31Z</time>
      </trkpt>
      <trkpt lat="44.59512" lon="0.85502">
        <ele>175.4790342</ele>
        <time>2022-08-12T07:10:33Z</time>
      </trkpt>
      <trkpt lat="44.59513" lon="0.85486">
        <ele>174.6179066</ele>
        <time>2022-08-12T07:10:35Z</time>
      </trkpt>
      <trkpt lat="44.59515" lon="0.8547">
        <ele>174.1577978</ele>
        <time>2022-08-12T07:10:37Z</time>
      </trkpt>
      <trkpt lat="44.59517" lon="0.85454">
        <ele>173.6338164</ele>
        <time>2022-08-12T07:10:39Z</time>
      </trkpt>
      <trkpt lat="44.59519" lon="0.85437">
        <ele>173.0777625</ele>
        <time>2022-08-12T07:10:41Z</time>
      </trkpt>
      <trkpt lat="44.59521" lon="0.8542">
        <ele>172.0943789</ele>
        <time>2022-08-12T07:10:43Z</time>
      </trkpt>
      <trkpt lat="44.59523" lon="0.85403">
        <ele>171.3171547</ele>
        <time>2022-08-12T07:10:45Z</time>
      </trkpt>
      <trkpt lat="44.59525" lon="0.85386">
        <ele>170.6172217</ele>
        <time>2022-08-12T07:10:47Z</time>
      </trkpt>
      <trkpt lat="44.59528" lon="0.85368">
        <ele>169.6989833</ele>
        <time>2022-08-12T07:10:49Z</time>
      </trkpt>
      <trkpt lat="44.59533" lon="0.85349">
        <ele>169.0731042</ele>
        <time>2022-08-12T07:10:51Z</time>
      </trkpt>
      <trkpt lat="44.5954" lon="0.85329">
        <ele>168.2921544</ele>
        <time>2022-08-12T07:10:53Z</time>
      </trkpt>
      <trkpt lat="44.59548" lon="0.8531">
        <ele>167.1661992</ele>
        <time>2022-08-12T07:10:55Z</time>
      </trkpt>
      <trkpt lat="44.5956" lon="0.85293">
        <ele>166.4693881</ele>
        <time>2022-08-12T07:10:57Z</time>
      </trkpt>
      <trkpt lat="44.59572" lon="0.85277">
        <ele>165.8157171</ele>
        <time>2022-08-12T07:10:59Z</time>
      </trkpt>
      <trkpt lat="44.59585" lon="0.85262">
        <ele>165.2351868</ele>
        <time>2022-08-12T07:11:01Z</time>
      </trkpt>
      <trkpt lat="44.59598" lon="0.85247">
        <ele>164.325374</ele>
        <time>2022-08-12T07:11:03Z</time>
      </trkpt>
      <trkpt lat="44.59611" lon="0.85232">
        <ele>163.705245</ele>
        <time>2022-08-12T07:11:05Z</time>
      </trkpt>
      <trkpt lat="44.59626" lon="0.85217">
        <ele>163.3229102</ele>
        <time>2022-08-12T07:11:07Z</time>
      </trkpt>
      <trkpt lat="44.5964" lon="0.85203">
        <ele>162.4678636</ele>
        <time>2022-08-12T07:11:09Z</time>
      </trkpt>
      <trkpt lat="44.59655" lon="0.85186">
        <ele>161.3973157</ele>
        <time>2022-08-12T07:11:11Z</time>
      </trkpt>
      <trkpt lat="44.59669" lon="0.85169">
        <ele>160.2903561</ele>
        <time>2022-08-12T07:11:13Z</time>
      </trkpt>
      <trkpt lat="44.59684" lon="0.85151">
        <ele>159.7194231</ele>
        <time>2022-08-12T07:11:15Z</time>
      </trkpt>
      <trkpt lat="44.597" lon="0.85133">
        <ele>159.153732</ele>
        <time>2022-08-12T07:11:17Z</time>
      </trkpt>
      <trkpt lat="44.59715" lon="0.85113">
        <ele>158.005402</ele>
        <time>2022-08-12T07:11:19Z</time>
      </trkpt>
      <trkpt lat="44.59731" lon="0.85096">
        <ele>157.1293913</ele>
        <time>2022-08-12T07:11:21Z</time>
      </trkpt>
      <trkpt lat="44.59746" lon="0.85078">
        <ele>155.957389</ele>
        <time>2022-08-12T07:11:23Z</time>
      </trkpt>
      <trkpt lat="44.59763" lon="0.85061">
        <ele>154.4403667</ele>
        <time>2022-08-12T07:11:25Z</time>
      </trkpt>
      <trkpt lat="44.59778" lon="0.85041">
        <ele>152.889448</ele>
        <time>2022-08-12T07:11:27Z</time>
      </trkpt>
      <trkpt lat="44.59793" lon="0.85021">
        <ele>152.0239497</ele>
        <time>2022-08-12T07:11:29Z</time>
      </trkpt>
      <trkpt lat="44.59806" lon="0.85003">
        <ele>151.4514405</ele>
        <time>2022-08-12T07:11:31Z</time>
      </trkpt>
      <trkpt lat="44.59814" lon="0.84981">
        <ele>150.1020775</ele>
        <time>2022-08-12T07:11:33Z</time>
      </trkpt>
      <trkpt lat="44.59821" lon="0.84953">
        <ele>150.5825435</ele>
        <time>2022-08-12T07:11:35Z</time>
      </trkpt>
      <trkpt lat="44.59823" lon="0.84927">
        <ele>150.4113795</ele>
        <time>2022-08-12T07:11:37Z</time>
      </trkpt>
      <trkpt lat="44.59824" lon="0.84899">
        <ele>150.2157984</ele>
        <time>2022-08-12T07:11:39Z</time>
      </trkpt>
      <trkpt lat="44.59822" lon="0.8487">
        <ele>150.488357</ele>
        <time>2022-08-12T07:11:41Z</time>
      </trkpt>
      <trkpt lat="44.59817" lon="0.84838">
        <ele>150.7481857</ele>
        <time>2022-08-12T07:11:43Z</time>
      </trkpt>
      <trkpt lat="44.59808" lon="0.84805">
        <ele>149.8011529</ele>
        <time>2022-08-12T07:11:45Z</time>
      </trkpt>
      <trkpt lat="44.59791" lon="0.84771">
        <ele>148.143668</ele>
        <time>2022-08-12T07:11:47Z</time>
      </trkpt>
      <trkpt lat="44.59771" lon="0.84731">
        <ele>144.6862083</ele>
        <time>2022-08-12T07:11:49Z</time>
      </trkpt>
      <trkpt lat="44.59809" lon="0.84734">
        <ele>143.6727637</ele>
        <time>2022-08-12T07:11:51Z</time>
      </trkpt>
      <trkpt lat="44.59804" lon="0.84704">
        <ele>143.618065</ele>
        <time>2022-08-12T07:11:53Z</time>
      </trkpt>
      <trkpt lat="44.59801" lon="0.84673">
        <ele>143.1634344</ele>
        <time>2022-08-12T07:11:55Z</time>
      </trkpt>
      <trkpt lat="44.59798" lon="0.84642">
        <ele>142.5695727</ele>
        <time>2022-08-12T07:11:57Z</time>
      </trkpt>
      <trkpt lat="44.59795" lon="0.84614">
        <ele>141.8140636</ele>
        <time>2022-08-12T07:11:59Z</time>
      </trkpt>
      <trkpt lat="44.59795" lon="0.84591">
        <ele>140.6801749</ele>
        <time>2022-08-12T07:12:01Z</time>
      </trkpt>
      <trkpt lat="44.59802" lon="0.84569">
        <ele>139.5987039</ele>
        <time>2022-08-12T07:12:03Z</time>
      </trkpt>
      <trkpt lat="44.59815" lon="0.84553">
        <ele>138.5964805</ele>
        <time>2022-08-12T07:12:05Z</time>
      </trkpt>
      <trkpt lat="44.59831" lon="0.84545">
        <ele>137.9209269</ele>
        <time>2022-08-12T07:12:07Z</time>
      </trkpt>
      <trkpt lat="44.59848" lon="0.84537">
        <ele>137.2139136</ele>
        <time>2022-08-12T07:12:09Z</time>
      </trkpt>
      <trkpt lat="44.59863" lon="0.84528">
        <ele>136.5726607</ele>
        <time>2022-08-12T07:12:11Z</time>
      </trkpt>
      <trkpt lat="44.59879" lon="0.84519">
        <ele>135.7332065</ele>
        <time>2022-08-12T07:12:13Z</time>
      </trkpt>
      <trkpt lat="44.59894" lon="0.84509">
        <ele>135.1897917</ele>
        <time>2022-08-12T07:12:15Z</time>
      </trkpt>
      <trkpt lat="44.59909" lon="0.84495">
        <ele>135.1390488</ele>
        <time>2022-08-12T07:12:17Z</time>
      </trkpt>
      <trkpt lat="44.59923" lon="0.8448">
        <ele>134.2921861</ele>
        <time>2022-08-12T07:12:19Z</time>
      </trkpt>
      <trkpt lat="44.59937" lon="0.84466">
        <ele>134.0466137</ele>
        <time>2022-08-12T07:12:21Z</time>
      </trkpt>
      <trkpt lat="44.59951" lon="0.8445">
        <ele>133.3512986</ele>
        <time>2022-08-12T07:12:23Z</time>
      </trkpt>
      <trkpt lat="44.59964" lon="0.84434">
        <ele>133.4654145</ele>
        <time>2022-08-12T07:12:25Z</time>
      </trkpt>
      <trkpt lat="44.59977" lon="0.8442">
        <ele>133.3876024</ele>
        <time>2022-08-12T07:12:27Z</time>
      </trkpt>
      <trkpt lat="44.5999" lon="0.84408">
        <ele>133.214408</ele>
        <time>2022-08-12T07:12:29Z</time>
      </trkpt>
      <trkpt lat="44.60002" lon="0.84394">
        <ele>133.027529</ele>
        <time>2022-08-12T07:12:31Z</time>
      </trkpt>
      <trkpt lat="44.60013" lon="0.84381">
        <ele>132.822707</ele>
        <time>2022-08-12T07:12:33Z</time>
      </trkpt>
      <trkpt lat="44.60025" lon="0.84369">
        <ele>132.1789418</ele>
        <time>2022-08-12T07:12:35Z</time>
      </trkpt>
      <trkpt lat="44.60036" lon="0.84357">
        <ele>131.7656651</ele>
        <time>2022-08-12T07:12:37Z</time>
      </trkpt>
      <trkpt lat="44.60048" lon="0.84344">
        <ele>131.3523566</ele>
        <time>2022-08-12T07:12:39Z</time>
      </trkpt>
      <trkpt lat="44.6006" lon="0.84332">
        <ele>130.350923</ele>
        <time>2022-08-12T07:12:41Z</time>
      </trkpt>
      <trkpt lat="44.60071" lon="0.84319">
        <ele>129.7001722</ele>
        <time>2022-08-12T07:12:43Z</time>
      </trkpt>
      <trkpt lat="44.60084" lon="0.84306">
        <ele>129.3901319</ele>
        <time>2022-08-12T07:12:45Z</time>
      </trkpt>
      <trkpt lat="44.60096" lon="0.84293">
        <ele>128.3556862</ele>
        <time>2022-08-12T07:12:47Z</time>
      </trkpt>
      <trkpt lat="44.60107" lon="0.84278">
        <ele>127.285689</ele>
        <time>2022-08-12T07:12:49Z</time>
      </trkpt>
      <trkpt lat="44.60116" lon="0.84259">
        <ele>127.0971913</ele>
        <time>2022-08-12T07:12:51Z</time>
      </trkpt>
      <trkpt lat="44.60123" lon="0.84237">
        <ele>126.1705853</ele>
        <time>2022-08-12T07:12:53Z</time>
      </trkpt>
      <trkpt lat="44.60129" lon="0.84216">
        <ele>125.4042892</ele>
        <time>2022-08-12T07:12:55Z</time>
      </trkpt>
      <trkpt lat="44.60134" lon="0.84193">
        <ele>124.9477454</ele>
        <time>2022-08-12T07:12:57Z</time>
      </trkpt>
      <trkpt lat="44.60138" lon="0.8417">
        <ele>125.1001107</ele>
        <time>2022-08-12T07:12:59Z</time>
      </trkpt>
      <trkpt lat="44.60142" lon="0.84149">
        <ele>124.8537511</ele>
        <time>2022-08-12T07:13:01Z</time>
      </trkpt>
      <trkpt lat="44.60142" lon="0.84127">
        <ele>125.2604017</ele>
        <time>2022-08-12T07:13:03Z</time>
      </trkpt>
      <trkpt lat="44.60142" lon="0.84106">
        <ele>125.5922834</ele>
        <time>2022-08-12T07:13:05Z</time>
      </trkpt>
      <trkpt lat="44.60142" lon="0.84087">
        <ele>125.5221132</ele>
        <time>2022-08-12T07:13:07Z</time>
      </trkpt>
      <trkpt lat="44.60141" lon="0.8407">
        <ele>125.6456224</ele>
        <time>2022-08-12T07:13:09Z</time>
      </trkpt>
      <trkpt lat="44.60141" lon="0.84055">
        <ele>126.1794441</ele>
        <time>2022-08-12T07:13:11Z</time>
      </trkpt>
      <trkpt lat="44.60141" lon="0.8404">
        <ele>126.5614401</ele>
        <time>2022-08-12T07:13:13Z</time>
      </trkpt>
      <trkpt lat="44.60141" lon="0.84026">
        <ele>126.9716649</ele>
        <time>2022-08-12T07:13:15Z</time>
      </trkpt>
      <trkpt lat="44.60141" lon="0.84013">
        <ele>127.377557</ele>
        <time>2022-08-12T07:13:17Z</time>
      </trkpt>
      <trkpt lat="44.6014" lon="0.84001">
        <ele>127.6449635</ele>
        <time>2022-08-12T07:13:19Z</time>
      </trkpt>
      <trkpt lat="44.6014" lon="0.83989">
        <ele>127.9150368</ele>
        <time>2022-08-12T07:13:21Z</time>
      </trkpt>
      <trkpt lat="44.6014" lon="0.83978">
        <ele>128.324803</ele>
        <time>2022-08-12T07:13:23Z</time>
      </trkpt>
      <trkpt lat="44.6014" lon="0.83968">
        <ele>128.2263792</ele>
        <time>2022-08-12T07:13:25Z</time>
      </trkpt>
      <trkpt lat="44.60139" lon="0.83957">
        <ele>128.66347</ele>
        <time>2022-08-12T07:13:27Z</time>
      </trkpt>
      <trkpt lat="44.60139" lon="0.83947">
        <ele>129.43052</ele>
        <time>2022-08-12T07:13:29Z</time>
      </trkpt>
      <trkpt lat="44.60139" lon="0.83937">
        <ele>129.9199478</ele>
        <time>2022-08-12T07:13:31Z</time>
      </trkpt>
      <trkpt lat="44.60139" lon="0.83928">
        <ele>130.4869335</ele>
        <time>2022-08-12T07:13:33Z</time>
      </trkpt>
      <trkpt lat="44.60138" lon="0.83921">
        <ele>130.8241726</ele>
        <time>2022-08-12T07:13:35Z</time>
      </trkpt>
      <trkpt lat="44.60138" lon="0.83913">
        <ele>130.852521</ele>
        <time>2022-08-12T07:13:37Z</time>
      </trkpt>
      <trkpt lat="44.60139" lon="0.83906">
        <ele>131.028084</ele>
        <time>2022-08-12T07:13:39Z</time>
      </trkpt>
      <trkpt lat="44.60139" lon="0.83899">
        <ele>131.3123208</ele>
        <time>2022-08-12T07:13:41Z</time>
      </trkpt>
      <trkpt lat="44.60139" lon="0.83892">
        <ele>131.4183838</ele>
        <time>2022-08-12T07:13:43Z</time>
      </trkpt>
      <trkpt lat="44.6014" lon="0.83884">
        <ele>132.1842953</ele>
        <time>2022-08-12T07:13:45Z</time>
      </trkpt>
      <trkpt lat="44.60141" lon="0.83877">
        <ele>132.159645</ele>
        <time>2022-08-12T07:13:47Z</time>
      </trkpt>
      <trkpt lat="44.60142" lon="0.8387">
        <ele>132.5517947</ele>
        <time>2022-08-12T07:13:49Z</time>
      </trkpt>
      <trkpt lat="44.60144" lon="0.83863">
        <ele>132.848211</ele>
        <time>2022-08-12T07:13:51Z</time>
      </trkpt>
      <trkpt lat="44.60146" lon="0.83856">
        <ele>132.5727757</ele>
        <time>2022-08-12T07:13:53Z</time>
      </trkpt>
      <trkpt lat="44.60147" lon="0.8385">
        <ele>132.804431</ele>
        <time>2022-08-12T07:13:55Z</time>
      </trkpt>
      <trkpt lat="44.60149" lon="0.83844">
        <ele>132.7277866</ele>
        <time>2022-08-12T07:13:57Z</time>
      </trkpt>
      <trkpt lat="44.60151" lon="0.83838">
        <ele>132.4962784</ele>
        <time>2022-08-12T07:13:59Z</time>
      </trkpt>
      <trkpt lat="44.60153" lon="0.83833">
        <ele>132.5963935</ele>
        <time>2022-08-12T07:14:01Z</time>
      </trkpt>
      <trkpt lat="44.60156" lon="0.83828">
        <ele>132.5605818</ele>
        <time>2022-08-12T07:14:03Z</time>
      </trkpt>
      <trkpt lat="44.60158" lon="0.83824">
        <ele>132.0602909</ele>
        <time>2022-08-12T07:14:05Z</time>
      </trkpt>
      <trkpt lat="44.60161" lon="0.83819">
        <ele>131.8605915</ele>
        <time>2022-08-12T07:14:07Z</time>
      </trkpt>
      <trkpt lat="44.60164" lon="0.83814">
        <ele>131.2293238</ele>
        <time>2022-08-12T07:14:09Z</time>
      </trkpt>
      <trkpt lat="44.60167" lon="0.83809">
        <ele>130.956343</ele>
        <time>2022-08-12T07:14:11Z</time>
      </trkpt>
      <trkpt lat="44.6017" lon="0.83804">
        <ele>131.2273845</ele>
        <time>2022-08-12T07:14:13Z</time>
      </trkpt>
      <trkpt lat="44.60174" lon="0.83799">
        <ele>131.3262492</ele>
        <time>2022-08-12T07:14:15Z</time>
      </trkpt>
      <trkpt lat="44.60178" lon="0.83795">
        <ele>131.6086237</ele>
        <time>2022-08-12T07:14:17Z</time>
      </trkpt>
      <trkpt lat="44.60182" lon="0.83789">
        <ele>131.6209362</ele>
        <time>2022-08-12T07:14:19Z</time>
      </trkpt>
      <trkpt lat="44.60187" lon="0.83784">
        <ele>131.728693</ele>
        <time>2022-08-12T07:14:21Z</time>
      </trkpt>
      <trkpt lat="44.60192" lon="0.83779">
        <ele>131.503101</ele>
        <time>2022-08-12T07:14:23Z</time>
      </trkpt>
      <trkpt lat="44.60197" lon="0.83773">
        <ele>131.5898935</ele>
        <time>2022-08-12T07:14:25Z</time>
      </trkpt>
      <trkpt lat="44.60205" lon="0.83768">
        <ele>132.109342</ele>
        <time>2022-08-12T07:14:27Z</time>
      </trkpt>
      <trkpt lat="44.60213" lon="0.83763">
        <ele>131.7684121</ele>
        <time>2022-08-12T07:14:29Z</time>
      </trkpt>
      <trkpt lat="44.60221" lon="0.83757">
        <ele>131.6934187</ele>
        <time>2022-08-12T07:14:31Z</time>
      </trkpt>
      <trkpt lat="44.60231" lon="0.83751">
        <ele>131.5813974</ele>
        <time>2022-08-12T07:14:33Z</time>
      </trkpt>
      <trkpt lat="44.6024" lon="0.83744">
        <ele>131.2929725</ele>
        <time>2022-08-12T07:14:35Z</time>
      </trkpt>
      <trkpt lat="44.6025" lon="0.83738">
        <ele>131.2616573</ele>
        <time>2022-08-12T07:14:37Z</time>
      </trkpt>
      <trkpt lat="44.6026" lon="0.83732">
        <ele>131.8316221</ele>
        <time>2022-08-12T07:14:39Z</time>
      </trkpt>
      <trkpt lat="44.6027" lon="0.83725">
        <ele>132.4404083</ele>
        <time>2022-08-12T07:14:41Z</time>
      </trkpt>
      <trkpt lat="44.60279" lon="0.83718">
        <ele>132.6483166</ele>
        <time>2022-08-12T07:14:43Z</time>
      </trkpt>
      <trkpt lat="44.60288" lon="0.83713">
        <ele>132.6713661</ele>
        <time>2022-08-12T07:14:45Z</time>
      </trkpt>
      <trkpt lat="44.60296" lon="0.83707">
        <ele>133.2994641</ele>
        <time>2022-08-12T07:14:47Z</time>
      </trkpt>
      <trkpt lat="44.60304" lon="0.837">
        <ele>133.7929657</ele>
        <time>2022-08-12T07:14:49Z</time>
      </trkpt>
      <trkpt lat="44.6031" lon="0.83694">
        <ele>134.6406</ele>
        <time>2022-08-12T07:14:51Z</time>
      </trkpt>
      <trkpt lat="44.60315" lon="0.83689">
        <ele>135.4756385</ele>
        <time>2022-08-12T07:14:53Z</time>
      </trkpt>
      <trkpt lat="44.6032" lon="0.83682">
        <ele>135.6933275</ele>
        <time>2022-08-12T07:14:55Z</time>
      </trkpt>
      <trkpt lat="44.60324" lon="0.83676">
        <ele>136.1307472</ele>
        <time>2022-08-12T07:14:57Z</time>
      </trkpt>
      <trkpt lat="44.60327" lon="0.8367">
        <ele>136.6314873</ele>
        <time>2022-08-12T07:14:59Z</time>
      </trkpt>
      <trkpt lat="44.60329" lon="0.83664">
        <ele>137.0290231</ele>
        <time>2022-08-12T07:15:01Z</time>
      </trkpt>
      <trkpt lat="44.60332" lon="0.83658">
        <ele>137.4622498</ele>
        <time>2022-08-12T07:15:03Z</time>
      </trkpt>
      <trkpt lat="44.60334" lon="0.83652">
        <ele>137.8364442</ele>
        <time>2022-08-12T07:15:05Z</time>
      </trkpt>
      <trkpt lat="44.60337" lon="0.83646">
        <ele>138.1410404</ele>
        <time>2022-08-12T07:15:07Z</time>
      </trkpt>
      <trkpt lat="44.60339" lon="0.8364">
        <ele>138.6038255</ele>
        <time>2022-08-12T07:15:09Z</time>
      </trkpt>
      <trkpt lat="44.60341" lon="0.83633">
        <ele>138.5804562</ele>
        <time>2022-08-12T07:15:11Z</time>
      </trkpt>
      <trkpt lat="44.60344" lon="0.83628">
        <ele>138.8951275</ele>
        <time>2022-08-12T07:15:13Z</time>
      </trkpt>
      <trkpt lat="44.60346" lon="0.83621">
        <ele>139.1144469</ele>
        <time>2022-08-12T07:15:15Z</time>
      </trkpt>
      <trkpt lat="44.60348" lon="0.83615">
        <ele>139.1885617</ele>
        <time>2022-08-12T07:15:17Z</time>
      </trkpt>
      <trkpt lat="44.6035" lon="0.83609">
        <ele>139.7939113</ele>
        <time>2022-08-12T07:15:19Z</time>
      </trkpt>
      <trkpt lat="44.60352" lon="0.83603">
        <ele>139.8098011</ele>
        <time>2022-08-12T07:15:21Z</time>
      </trkpt>
      <trkpt lat="44.60355" lon="0.83597">
        <ele>140.2019701</ele>
        <time>2022-08-12T07:15:23Z</time>
      </trkpt>
      <trkpt lat="44.60357" lon="0.83591">
        <ele>140.2604779</ele>
        <time>2022-08-12T07:15:25Z</time>
      </trkpt>
      <trkpt lat="44.60359" lon="0.83585">
        <ele>140.3303983</ele>
        <time>2022-08-12T07:15:27Z</time>
      </trkpt>
      <trkpt lat="44.60361" lon="0.83579">
        <ele>140.5038352</ele>
        <time>2022-08-12T07:15:29Z</time>
      </trkpt>
      <trkpt lat="44.60363" lon="0.83573">
        <ele>140.6408588</ele>
        <time>2022-08-12T07:15:31Z</time>
      </trkpt>
      <trkpt lat="44.60365" lon="0.83567">
        <ele>140.6749824</ele>
        <time>2022-08-12T07:15:33Z</time>
      </trkpt>
      <trkpt lat="44.60368" lon="0.83561">
        <ele>141.1635465</ele>
        <time>2022-08-12T07:15:35Z</time>
      </trkpt>
      <trkpt lat="44.6037" lon="0.83555">
        <ele>141.678256</ele>
        <time>2022-08-12T07:15:37Z</time>
      </trkpt>
      <trkpt lat="44.60372" lon="0.83549">
        <ele>141.9091432</ele>
        <time>2022-08-12T07:15:39Z</time>
      </trkpt>
      <trkpt lat="44.60374" lon="0.83544">
        <ele>142.183813</ele>
        <time>2022-08-12T07:15:41Z</time>
      </trkpt>
      <trkpt lat="44.60376" lon="0.83539">
        <ele>142.2087363</ele>
        <time>2022-08-12T07:15:43Z</time>
      </trkpt>
      <trkpt lat="44.60378" lon="0.83533">
        <ele>142.6515045</ele>
        <time>2022-08-12T07:15:45Z</time>
      </trkpt>
      <trkpt lat="44.6038" lon="0.83528">
        <ele>142.8478117</ele>
        <time>2022-08-12T07:15:47Z</time>
      </trkpt>
      <trkpt lat="44.60382" lon="0.83522">
        <ele>142.8132787</ele>
        <time>2022-08-12T07:15:49Z</time>
      </trkpt>
      <trkpt lat="44.60385" lon="0.83516">
        <ele>142.8568959</ele>
        <time>2022-08-12T07:15:51Z</time>
      </trkpt>
      <trkpt lat="44.60387" lon="0.8351">
        <ele>142.8682169</ele>
        <time>2022-08-12T07:15:53Z</time>
      </trkpt>
      <trkpt lat="44.60389" lon="0.83503">
        <ele>142.2676611</ele>
        <time>2022-08-12T07:15:55Z</time>
      </trkpt>
      <trkpt lat="44.60392" lon="0.83495">
        <ele>142.3985035</ele>
        <time>2022-08-12T07:15:57Z</time>
      </trkpt>
      <trkpt lat="44.60394" lon="0.83488">
        <ele>142.4048108</ele>
        <time>2022-08-12T07:15:59Z</time>
      </trkpt>
      <trkpt lat="44.60397" lon="0.8348">
        <ele>142.871315</ele>
        <time>2022-08-12T07:16:01Z</time>
      </trkpt>
      <trkpt lat="44.604" lon="0.83471">
        <ele>143.0416229</ele>
        <time>2022-08-12T07:16:03Z</time>
      </trkpt>
      <trkpt lat="44.60402" lon="0.83463">
        <ele>142.7921721</ele>
        <time>2022-08-12T07:16:05Z</time>
      </trkpt>
      <trkpt lat="44.60404" lon="0.83455">
        <ele>142.7863567</ele>
        <time>2022-08-12T07:16:07Z</time>
      </trkpt>
      <trkpt lat="44.60406" lon="0.83446">
        <ele>142.8026371</ele>
        <time>2022-08-12T07:16:09Z</time>
      </trkpt>
      <trkpt lat="44.60408" lon="0.83437">
        <ele>142.5466474</ele>
        <time>2022-08-12T07:16:11Z</time>
      </trkpt>
      <trkpt lat="44.60409" lon="0.83428">
        <ele>142.7350905</ele>
        <time>2022-08-12T07:16:13Z</time>
      </trkpt>
      <trkpt lat="44.6041" lon="0.83418">
        <ele>142.4184759</ele>
        <time>2022-08-12T07:16:15Z</time>
      </trkpt>
      <trkpt lat="44.60411" lon="0.83408">
        <ele>142.366419</ele>
        <time>2022-08-12T07:16:17Z</time>
      </trkpt>
      <trkpt lat="44.60412" lon="0.83399">
        <ele>142.5675366</ele>
        <time>2022-08-12T07:16:19Z</time>
      </trkpt>
      <trkpt lat="44.60413" lon="0.8339">
        <ele>142.9424151</ele>
        <time>2022-08-12T07:16:21Z</time>
      </trkpt>
      <trkpt lat="44.60413" lon="0.83381">
        <ele>143.1286915</ele>
        <time>2022-08-12T07:16:23Z</time>
      </trkpt>
      <trkpt lat="44.60413" lon="0.83372">
        <ele>143.2392534</ele>
        <time>2022-08-12T07:16:25Z</time>
      </trkpt>
      <trkpt lat="44.60413" lon="0.83363">
        <ele>143.3353899</ele>
        <time>2022-08-12T07:16:27Z</time>
      </trkpt>
      <trkpt lat="44.60413" lon="0.83355">
        <ele>143.8346319</ele>
        <time>2022-08-12T07:16:29Z</time>
      </trkpt>
      <trkpt lat="44.60412" lon="0.83346">
        <ele>144.5059132</ele>
        <time>2022-08-12T07:16:31Z</time>
      </trkpt>
      <trkpt lat="44.60412" lon="0.83337">
        <ele>144.5002319</ele>
        <time>2022-08-12T07:16:33Z</time>
      </trkpt>
      <trkpt lat="44.60411" lon="0.83329">
        <ele>145.1290081</ele>
        <time>2022-08-12T07:16:35Z</time>
      </trkpt>
      <trkpt lat="44.6041" lon="0.83319">
        <ele>145.3312847</ele>
        <time>2022-08-12T07:16:37Z</time>
      </trkpt>
      <trkpt lat="44.60409" lon="0.83312">
        <ele>145.9537779</ele>
        <time>2022-08-12T07:16:39Z</time>
      </trkpt>
      <trkpt lat="44.60409" lon="0.83306">
        <ele>146.4397516</ele>
        <time>2022-08-12T07:16:41Z</time>
      </trkpt>
      <trkpt lat="44.60409" lon="0.83301">
        <ele>147.16207</ele>
        <time>2022-08-12T07:16:43Z</time>
      </trkpt>
      <trkpt lat="44.60408" lon="0.83296">
        <ele>147.2013365</ele>
        <time>2022-08-12T07:16:45Z</time>
      </trkpt>
      <trkpt lat="44.60408" lon="0.83291">
        <ele>147.3932517</ele>
        <time>2022-08-12T07:16:47Z</time>
      </trkpt>
      <trkpt lat="44.60408" lon="0.83286">
        <ele>147.7897132</ele>
        <time>2022-08-12T07:16:49Z</time>
      </trkpt>
      <trkpt lat="44.60408" lon="0.83281">
        <ele>147.5303559</ele>
        <time>2022-08-12T07:16:51Z</time>
      </trkpt>
      <trkpt lat="44.60407" lon="0.83277">
        <ele>147.6197056</ele>
        <time>2022-08-12T07:16:53Z</time>
      </trkpt>
      <trkpt lat="44.60407" lon="0.8327">
        <ele>147.5899919</ele>
        <time>2022-08-12T07:16:55Z</time>
      </trkpt>
      <trkpt lat="44.60406" lon="0.83264">
        <ele>147.993773</ele>
        <time>2022-08-12T07:16:57Z</time>
      </trkpt>
      <trkpt lat="44.60405" lon="0.83258">
        <ele>147.9885677</ele>
        <time>2022-08-12T07:16:59Z</time>
      </trkpt>
      <trkpt lat="44.60405" lon="0.83252">
        <ele>147.4235121</ele>
        <time>2022-08-12T07:17:01Z</time>
      </trkpt>
      <trkpt lat="44.60405" lon="0.83246">
        <ele>147.6959966</ele>
        <time>2022-08-12T07:17:03Z</time>
      </trkpt>
      <trkpt lat="44.60406" lon="0.83238">
        <ele>147.0930108</ele>
        <time>2022-08-12T07:17:05Z</time>
      </trkpt>
      <trkpt lat="44.60406" lon="0.83231">
        <ele>147.297861</ele>
        <time>2022-08-12T07:17:07Z</time>
      </trkpt>
      <trkpt lat="44.60406" lon="0.83225">
        <ele>146.7131684</ele>
        <time>2022-08-12T07:17:09Z</time>
      </trkpt>
      <trkpt lat="44.60406" lon="0.83219">
        <ele>146.9454876</ele>
        <time>2022-08-12T07:17:11Z</time>
      </trkpt>
      <trkpt lat="44.60407" lon="0.83214">
        <ele>146.6350432</ele>
        <time>2022-08-12T07:17:13Z</time>
      </trkpt>
      <trkpt lat="44.60408" lon="0.83208">
        <ele>146.2975041</ele>
        <time>2022-08-12T07:17:15Z</time>
      </trkpt>
      <trkpt lat="44.60408" lon="0.83203">
        <ele>146.1487201</ele>
        <time>2022-08-12T07:17:17Z</time>
      </trkpt>
      <trkpt lat="44.60412" lon="0.832">
        <ele>146.120461</ele>
        <time>2022-08-12T07:17:19Z</time>
      </trkpt>
      <trkpt lat="44.60412" lon="0.83196">
        <ele>145.9778876</ele>
        <time>2022-08-12T07:17:21Z</time>
      </trkpt>
      <trkpt lat="44.60411" lon="0.83194">
        <ele>146.1127762</ele>
        <time>2022-08-12T07:17:23Z</time>
      </trkpt>
      <trkpt lat="44.60411" lon="0.83195">
        <ele>146.4548726</ele>
        <time>2022-08-12T07:17:25Z</time>
      </trkpt>
      <trkpt lat="44.60411" lon="0.83195">
        <ele>146.8191733</ele>
        <time>2022-08-12T07:17:27Z</time>
      </trkpt>
      <trkpt lat="44.60411" lon="0.83196">
        <ele>146.7430868</ele>
        <time>2022-08-12T07:17:29Z</time>
      </trkpt>
      <trkpt lat="44.60411" lon="0.83196">
        <ele>146.6587415</ele>
        <time>2022-08-12T07:17:33Z</time>
      </trkpt>
      <trkpt lat="44.60411" lon="0.83196">
        <ele>146.6077627</ele>
        <time>2022-08-12T07:17:35Z</time>
      </trkpt>
      <trkpt lat="44.60411" lon="0.83196">
        <ele>146.681727</ele>
        <time>2022-08-12T07:17:37Z</time>
      </trkpt>
      <trkpt lat="44.60411" lon="0.83196">
        <ele>147.0606295</ele>
        <time>2022-08-12T07:17:39Z</time>
      </trkpt>
      <trkpt lat="44.60411" lon="0.83196">
        <ele>147.3470169</ele>
        <time>2022-08-12T07:17:41Z</time>
      </trkpt>
      <trkpt lat="44.60411" lon="0.83195">
        <ele>147.4293736</ele>
        <time>2022-08-12T07:17:45Z</time>
      </trkpt>
      <trkpt lat="44.60411" lon="0.83195">
        <ele>147.6166397</ele>
        <time>2022-08-12T07:17:47Z</time>
      </trkpt>
      <trkpt lat="44.6041" lon="0.83195">
        <ele>147.9170334</ele>
        <time>2022-08-12T07:17:51Z</time>
      </trkpt>
      <trkpt lat="44.6041" lon="0.83195">
        <ele>147.9498581</ele>
        <time>2022-08-12T07:17:53Z</time>
      </trkpt>
      <trkpt lat="44.6041" lon="0.83195">
        <ele>147.9498581</ele>
        <time>2022-08-12T07:17:57Z</time>
      </trkpt>
      <trkpt lat="44.6041" lon="0.83195">
        <ele>147.9498581</ele>
        <time>2022-08-12T07:18:01Z</time>
      </trkpt>
      <trkpt lat="44.6041" lon="0.83195">
        <ele>147.9498581</ele>
        <time>2022-08-12T07:18:05Z</time>
      </trkpt>
      <trkpt lat="44.6041" lon="0.83195">
        <ele>147.9498581</ele>
        <time>2022-08-12T07:18:09Z</time>
      </trkpt>
      <trkpt lat="44.60411" lon="0.83195">
        <ele>148.1629776</ele>
        <time>2022-08-12T07:18:13Z</time>
      </trkpt>
      <trkpt lat="44.60411" lon="0.83195">
        <ele>148.1629776</ele>
        <time>2022-08-12T07:18:17Z</time>
      </trkpt>
      <trkpt lat="44.60411" lon="0.83195">
        <ele>148.1629776</ele>
        <time>2022-08-12T07:18:21Z</time>
      </trkpt>
      <trkpt lat="44.60411" lon="0.83195">
        <ele>147.8867862</ele>
        <time>2022-08-12T07:18:25Z</time>
      </trkpt>
      <trkpt lat="44.60411" lon="0.83195">
        <ele>147.5728867</ele>
        <time>2022-08-12T07:18:27Z</time>
      </trkpt>
      <trkpt lat="44.60411" lon="0.83195">
        <ele>147.5728867</ele>
        <time>2022-08-12T07:18:31Z</time>
      </trkpt>
      <trkpt lat="44.60411" lon="0.83195">
        <ele>147.5728867</ele>
        <time>2022-08-12T07:18:35Z</time>
      </trkpt>
      <trkpt lat="44.60411" lon="0.83195">
        <ele>147.5728867</ele>
        <time>2022-08-12T07:18:39Z</time>
      </trkpt>
      <trkpt lat="44.60411" lon="0.83195">
        <ele>147.5728867</ele>
        <time>2022-08-12T07:18:43Z</time>
      </trkpt>
      <trkpt lat="44.60411" lon="0.83195">
        <ele>147.5728867</ele>
        <time>2022-08-12T07:18:47Z</time>
      </trkpt>
      <trkpt lat="44.60411" lon="0.83195">
        <ele>147.8741964</ele>
        <time>2022-08-12T07:18:51Z</time>
      </trkpt>
      <trkpt lat="44.60411" lon="0.83195">
        <ele>147.699183</ele>
        <time>2022-08-12T07:18:53Z</time>
      </trkpt>
      <trkpt lat="44.60411" lon="0.83195">
        <ele>147.4864712</ele>
        <time>2022-08-12T07:18:55Z</time>
      </trkpt>
      <trkpt lat="44.60411" lon="0.83195">
        <ele>147.3410556</ele>
        <time>2022-08-12T07:18:57Z</time>
      </trkpt>
      <trkpt lat="44.60411" lon="0.83194">
        <ele>147.2963548</ele>
        <time>2022-08-12T07:18:59Z</time>
      </trkpt>
      <trkpt lat="44.60411" lon="0.83194">
        <ele>147.1216032</ele>
        <time>2022-08-12T07:19:01Z</time>
      </trkpt>
      <trkpt lat="44.60411" lon="0.83194">
        <ele>147.2583719</ele>
        <time>2022-08-12T07:19:03Z</time>
      </trkpt>
      <trkpt lat="44.6041" lon="0.83194">
        <ele>147.5128194</ele>
        <time>2022-08-12T07:19:07Z</time>
      </trkpt>
      <trkpt lat="44.6041" lon="0.83195">
        <ele>147.926621</ele>
        <time>2022-08-12T07:19:09Z</time>
      </trkpt>
      <trkpt lat="44.60409" lon="0.83193">
        <ele>147.8671027</ele>
        <time>2022-08-12T07:19:11Z</time>
      </trkpt>
      <trkpt lat="44.60409" lon="0.83189">
        <ele>148.1262739</ele>
        <time>2022-08-12T07:19:13Z</time>
      </trkpt>
      <trkpt lat="44.60411" lon="0.83184">
        <ele>148.3447652</ele>
        <time>2022-08-12T07:19:15Z</time>
      </trkpt>
      <trkpt lat="44.60414" lon="0.83177">
        <ele>147.7103317</ele>
        <time>2022-08-12T07:19:17Z</time>
      </trkpt>
      <trkpt lat="44.60417" lon="0.83169">
        <ele>147.1527195</ele>
        <time>2022-08-12T07:19:19Z</time>
      </trkpt>
      <trkpt lat="44.60421" lon="0.83158">
        <ele>146.148258</ele>
        <time>2022-08-12T07:19:21Z</time>
      </trkpt>
      <trkpt lat="44.60425" lon="0.83146">
        <ele>145.3511627</ele>
        <time>2022-08-12T07:19:23Z</time>
      </trkpt>
      <trkpt lat="44.6043" lon="0.83132">
        <ele>145.330036</ele>
        <time>2022-08-12T07:19:25Z</time>
      </trkpt>
      <trkpt lat="44.60436" lon="0.83116">
        <ele>144.0917143</ele>
        <time>2022-08-12T07:19:27Z</time>
      </trkpt>
      <trkpt lat="44.60442" lon="0.83098">
        <ele>142.7871443</ele>
        <time>2022-08-12T07:19:29Z</time>
      </trkpt>
      <trkpt lat="44.6045" lon="0.83081">
        <ele>141.6342835</ele>
        <time>2022-08-12T07:19:31Z</time>
      </trkpt>
      <trkpt lat="44.60459" lon="0.83062">
        <ele>140.6476475</ele>
        <time>2022-08-12T07:19:33Z</time>
      </trkpt>
      <trkpt lat="44.6047" lon="0.83044">
        <ele>139.7358496</ele>
        <time>2022-08-12T07:19:35Z</time>
      </trkpt>
      <trkpt lat="44.60483" lon="0.83025">
        <ele>138.2590292</ele>
        <time>2022-08-12T07:19:37Z</time>
      </trkpt>
      <trkpt lat="44.60496" lon="0.83004">
        <ele>136.6137841</ele>
        <time>2022-08-12T07:19:39Z</time>
      </trkpt>
      <trkpt lat="44.6051" lon="0.82982">
        <ele>134.7362095</ele>
        <time>2022-08-12T07:19:41Z</time>
      </trkpt>
      <trkpt lat="44.60524" lon="0.8296">
        <ele>133.3545372</ele>
        <time>2022-08-12T07:19:43Z</time>
      </trkpt>
      <trkpt lat="44.60539" lon="0.82938">
        <ele>132.0972139</ele>
        <time>2022-08-12T07:19:45Z</time>
      </trkpt>
      <trkpt lat="44.60552" lon="0.82918">
        <ele>130.0240081</ele>
        <time>2022-08-12T07:19:47Z</time>
      </trkpt>
      <trkpt lat="44.60563" lon="0.82897">
        <ele>128.7241269</ele>
        <time>2022-08-12T07:19:49Z</time>
      </trkpt>
      <trkpt lat="44.60569" lon="0.82872">
        <ele>127.4907414</ele>
        <time>2022-08-12T07:19:51Z</time>
      </trkpt>
      <trkpt lat="44.60572" lon="0.82845">
        <ele>126.0930344</ele>
        <time>2022-08-12T07:19:53Z</time>
      </trkpt>
      <trkpt lat="44.60572" lon="0.82816">
        <ele>124.3835421</ele>
        <time>2022-08-12T07:19:55Z</time>
      </trkpt>
      <trkpt lat="44.60575" lon="0.82787">
        <ele>123.249251</ele>
        <time>2022-08-12T07:19:57Z</time>
      </trkpt>
      <trkpt lat="44.60583" lon="0.82759">
        <ele>122.2322259</ele>
        <time>2022-08-12T07:19:59Z</time>
      </trkpt>
      <trkpt lat="44.60593" lon="0.82732">
        <ele>120.8120972</ele>
        <time>2022-08-12T07:20:01Z</time>
      </trkpt>
      <trkpt lat="44.60604" lon="0.82705">
        <ele>119.3116101</ele>
        <time>2022-08-12T07:20:03Z</time>
      </trkpt>
      <trkpt lat="44.60616" lon="0.82678">
        <ele>117.5770862</ele>
        <time>2022-08-12T07:20:05Z</time>
      </trkpt>
      <trkpt lat="44.60627" lon="0.8265">
        <ele>115.7648609</ele>
        <time>2022-08-12T07:20:07Z</time>
      </trkpt>
      <trkpt lat="44.60639" lon="0.82621">
        <ele>114.0026636</ele>
        <time>2022-08-12T07:20:09Z</time>
      </trkpt>
      <trkpt lat="44.60651" lon="0.82592">
        <ele>112.595824</ele>
        <time>2022-08-12T07:20:11Z</time>
      </trkpt>
      <trkpt lat="44.60661" lon="0.82562">
        <ele>111.8607697</ele>
        <time>2022-08-12T07:20:13Z</time>
      </trkpt>
      <trkpt lat="44.6067" lon="0.82532">
        <ele>112.0048175</ele>
        <time>2022-08-12T07:20:15Z</time>
      </trkpt>
      <trkpt lat="44.60677" lon="0.82506">
        <ele>111.2272197</ele>
        <time>2022-08-12T07:20:17Z</time>
      </trkpt>
      <trkpt lat="44.60682" lon="0.82484">
        <ele>111.4593943</ele>
        <time>2022-08-12T07:20:19Z</time>
      </trkpt>
      <trkpt lat="44.60687" lon="0.82467">
        <ele>111.6324239</ele>
        <time>2022-08-12T07:20:21Z</time>
      </trkpt>
      <trkpt lat="44.6069" lon="0.82457">
        <ele>112.1995821</ele>
        <time>2022-08-12T07:20:23Z</time>
      </trkpt>
      <trkpt lat="44.60692" lon="0.82452">
        <ele>112.7403781</ele>
        <time>2022-08-12T07:20:25Z</time>
      </trkpt>
      <trkpt lat="44.60694" lon="0.82447">
        <ele>112.9915803</ele>
        <time>2022-08-12T07:20:27Z</time>
      </trkpt>
      <trkpt lat="44.60698" lon="0.8244">
        <ele>113.2298285</ele>
        <time>2022-08-12T07:20:29Z</time>
      </trkpt>
      <trkpt lat="44.60703" lon="0.82434">
        <ele>113.5503029</ele>
        <time>2022-08-12T07:20:31Z</time>
      </trkpt>
      <trkpt lat="44.60707" lon="0.82429">
        <ele>114.3093688</ele>
        <time>2022-08-12T07:20:33Z</time>
      </trkpt>
      <trkpt lat="44.60712" lon="0.82424">
        <ele>114.7971896</ele>
        <time>2022-08-12T07:20:35Z</time>
      </trkpt>
      <trkpt lat="44.60715" lon="0.82421">
        <ele>115.5674303</ele>
        <time>2022-08-12T07:20:37Z</time>
      </trkpt>
      <trkpt lat="44.60718" lon="0.82417">
        <ele>115.966854</ele>
        <time>2022-08-12T07:20:39Z</time>
      </trkpt>
      <trkpt lat="44.60721" lon="0.82412">
        <ele>115.7532776</ele>
        <time>2022-08-12T07:20:41Z</time>
      </trkpt>
      <trkpt lat="44.60725" lon="0.82408">
        <ele>115.8110477</ele>
        <time>2022-08-12T07:20:43Z</time>
      </trkpt>
      <trkpt lat="44.6073" lon="0.82404">
        <ele>115.7893533</ele>
        <time>2022-08-12T07:20:45Z</time>
      </trkpt>
      <trkpt lat="44.60734" lon="0.824">
        <ele>116.1673791</ele>
        <time>2022-08-12T07:20:47Z</time>
      </trkpt>
      <trkpt lat="44.60737" lon="0.82396">
        <ele>116.2277696</ele>
        <time>2022-08-12T07:20:49Z</time>
      </trkpt>
      <trkpt lat="44.60741" lon="0.82392">
        <ele>116.4059082</ele>
        <time>2022-08-12T07:20:51Z</time>
      </trkpt>
      <trkpt lat="44.60745" lon="0.82387">
        <ele>116.5031517</ele>
        <time>2022-08-12T07:20:53Z</time>
      </trkpt>
      <trkpt lat="44.60749" lon="0.82383">
        <ele>116.7473519</ele>
        <time>2022-08-12T07:20:55Z</time>
      </trkpt>
      <trkpt lat="44.60753" lon="0.8238">
        <ele>116.7916627</ele>
        <time>2022-08-12T07:20:57Z</time>
      </trkpt>
      <trkpt lat="44.60756" lon="0.82375">
        <ele>116.8489419</ele>
        <time>2022-08-12T07:20:59Z</time>
      </trkpt>
      <trkpt lat="44.6076" lon="0.82371">
        <ele>116.6705412</ele>
        <time>2022-08-12T07:21:01Z</time>
      </trkpt>
      <trkpt lat="44.60764" lon="0.82366">
        <ele>116.9119288</ele>
        <time>2022-08-12T07:21:03Z</time>
      </trkpt>
      <trkpt lat="44.60769" lon="0.82361">
        <ele>117.0560301</ele>
        <time>2022-08-12T07:21:05Z</time>
      </trkpt>
      <trkpt lat="44.60773" lon="0.82356">
        <ele>117.3015166</ele>
        <time>2022-08-12T07:21:07Z</time>
      </trkpt>
      <trkpt lat="44.60778" lon="0.82352">
        <ele>117.4347962</ele>
        <time>2022-08-12T07:21:09Z</time>
      </trkpt>
      <trkpt lat="44.60782" lon="0.82347">
        <ele>117.3063223</ele>
        <time>2022-08-12T07:21:11Z</time>
      </trkpt>
      <trkpt lat="44.60787" lon="0.82342">
        <ele>117.3362895</ele>
        <time>2022-08-12T07:21:13Z</time>
      </trkpt>
      <trkpt lat="44.60791" lon="0.82336">
        <ele>117.4018034</ele>
        <time>2022-08-12T07:21:15Z</time>
      </trkpt>
      <trkpt lat="44.60796" lon="0.82331">
        <ele>117.5745819</ele>
        <time>2022-08-12T07:21:17Z</time>
      </trkpt>
      <trkpt lat="44.60801" lon="0.82327">
        <ele>117.7272517</ele>
        <time>2022-08-12T07:21:19Z</time>
      </trkpt>
      <trkpt lat="44.60805" lon="0.82321">
        <ele>118.1106088</ele>
        <time>2022-08-12T07:21:21Z</time>
      </trkpt>
      <trkpt lat="44.6081" lon="0.82316">
        <ele>118.2062179</ele>
        <time>2022-08-12T07:21:23Z</time>
      </trkpt>
      <trkpt lat="44.60814" lon="0.82312">
        <ele>118.668674</ele>
        <time>2022-08-12T07:21:25Z</time>
      </trkpt>
      <trkpt lat="44.60819" lon="0.82308">
        <ele>118.8836537</ele>
        <time>2022-08-12T07:21:27Z</time>
      </trkpt>
      <trkpt lat="44.60824" lon="0.82303">
        <ele>119.2630081</ele>
        <time>2022-08-12T07:21:29Z</time>
      </trkpt>
      <trkpt lat="44.60829" lon="0.82299">
        <ele>119.6401387</ele>
        <time>2022-08-12T07:21:31Z</time>
      </trkpt>
      <trkpt lat="44.60833" lon="0.82296">
        <ele>119.9971659</ele>
        <time>2022-08-12T07:21:33Z</time>
      </trkpt>
      <trkpt lat="44.60837" lon="0.82292">
        <ele>120.2721942</ele>
        <time>2022-08-12T07:21:35Z</time>
      </trkpt>
      <trkpt lat="44.60842" lon="0.82289">
        <ele>120.540328</ele>
        <time>2022-08-12T07:21:37Z</time>
      </trkpt>
      <trkpt lat="44.60846" lon="0.82286">
        <ele>121.282118</ele>
        <time>2022-08-12T07:21:39Z</time>
      </trkpt>
      <trkpt lat="44.6085" lon="0.82284">
        <ele>121.9655632</ele>
        <time>2022-08-12T07:21:41Z</time>
      </trkpt>
      <trkpt lat="44.60854" lon="0.82282">
        <ele>122.2958412</ele>
        <time>2022-08-12T07:21:43Z</time>
      </trkpt>
      <trkpt lat="44.60857" lon="0.82281">
        <ele>122.7989938</ele>
        <time>2022-08-12T07:21:45Z</time>
      </trkpt>
      <trkpt lat="44.6086" lon="0.82279">
        <ele>123.021233</ele>
        <time>2022-08-12T07:21:47Z</time>
      </trkpt>
      <trkpt lat="44.60864" lon="0.82278">
        <ele>123.349831</ele>
        <time>2022-08-12T07:21:49Z</time>
      </trkpt>
      <trkpt lat="44.60867" lon="0.82277">
        <ele>123.7386256</ele>
        <time>2022-08-12T07:21:51Z</time>
      </trkpt>
      <trkpt lat="44.6087" lon="0.82276">
        <ele>124.1717562</ele>
        <time>2022-08-12T07:21:53Z</time>
      </trkpt>
      <trkpt lat="44.60874" lon="0.82275">
        <ele>124.3657759</ele>
        <time>2022-08-12T07:21:55Z</time>
      </trkpt>
      <trkpt lat="44.60877" lon="0.82275">
        <ele>124.571985</ele>
        <time>2022-08-12T07:21:57Z</time>
      </trkpt>
      <trkpt lat="44.60881" lon="0.82276">
        <ele>124.7087061</ele>
        <time>2022-08-12T07:21:59Z</time>
      </trkpt>
      <trkpt lat="44.60884" lon="0.82276">
        <ele>124.8831793</ele>
        <time>2022-08-12T07:22:01Z</time>
      </trkpt>
      <trkpt lat="44.60888" lon="0.82275">
        <ele>124.6713779</ele>
        <time>2022-08-12T07:22:03Z</time>
      </trkpt>
      <trkpt lat="44.60891" lon="0.82275">
        <ele>124.5389818</ele>
        <time>2022-08-12T07:22:05Z</time>
      </trkpt>
      <trkpt lat="44.60894" lon="0.82275">
        <ele>124.7080571</ele>
        <time>2022-08-12T07:22:07Z</time>
      </trkpt>
      <trkpt lat="44.60897" lon="0.82276">
        <ele>124.9241868</ele>
        <time>2022-08-12T07:22:09Z</time>
      </trkpt>
      <trkpt lat="44.60902" lon="0.82275">
        <ele>124.8252685</ele>
        <time>2022-08-12T07:22:11Z</time>
      </trkpt>
      <trkpt lat="44.60905" lon="0.82275">
        <ele>125.0484134</ele>
        <time>2022-08-12T07:22:13Z</time>
      </trkpt>
      <trkpt lat="44.60909" lon="0.82275">
        <ele>124.6087565</ele>
        <time>2022-08-12T07:22:15Z</time>
      </trkpt>
      <trkpt lat="44.60912" lon="0.82275">
        <ele>124.4611076</ele>
        <time>2022-08-12T07:22:17Z</time>
      </trkpt>
      <trkpt lat="44.60916" lon="0.82276">
        <ele>124.4213458</ele>
        <time>2022-08-12T07:22:19Z</time>
      </trkpt>
      <trkpt lat="44.60919" lon="0.82276">
        <ele>124.580741</ele>
        <time>2022-08-12T07:22:21Z</time>
      </trkpt>
      <trkpt lat="44.60923" lon="0.82275">
        <ele>124.7470408</ele>
        <time>2022-08-12T07:22:23Z</time>
      </trkpt>
      <trkpt lat="44.60926" lon="0.82275">
        <ele>124.5080021</ele>
        <time>2022-08-12T07:22:25Z</time>
      </trkpt>
      <trkpt lat="44.60929" lon="0.82276">
        <ele>124.5342103</ele>
        <time>2022-08-12T07:22:27Z</time>
      </trkpt>
      <trkpt lat="44.60932" lon="0.82276">
        <ele>124.5654269</ele>
        <time>2022-08-12T07:22:29Z</time>
      </trkpt>
      <trkpt lat="44.60936" lon="0.82277">
        <ele>124.3850525</ele>
        <time>2022-08-12T07:22:31Z</time>
      </trkpt>
      <trkpt lat="44.60939" lon="0.82277">
        <ele>124.2560262</ele>
        <time>2022-08-12T07:22:33Z</time>
      </trkpt>
      <trkpt lat="44.60944" lon="0.82277">
        <ele>124.1273132</ele>
        <time>2022-08-12T07:22:35Z</time>
      </trkpt>
      <trkpt lat="44.60947" lon="0.82277">
        <ele>124.1623557</ele>
        <time>2022-08-12T07:22:37Z</time>
      </trkpt>
      <trkpt lat="44.60951" lon="0.82277">
        <ele>124.550799</ele>
        <time>2022-08-12T07:22:39Z</time>
      </trkpt>
      <trkpt lat="44.60954" lon="0.82277">
        <ele>124.4256427</ele>
        <time>2022-08-12T07:22:41Z</time>
      </trkpt>
      <trkpt lat="44.60958" lon="0.82277">
        <ele>124.5044553</ele>
        <time>2022-08-12T07:22:43Z</time>
      </trkpt>
      <trkpt lat="44.60962" lon="0.82276">
        <ele>125.6776448</ele>
        <time>2022-08-12T07:22:45Z</time>
      </trkpt>
      <trkpt lat="44.60966" lon="0.82275">
        <ele>125.848411</ele>
        <time>2022-08-12T07:22:47Z</time>
      </trkpt>
      <trkpt lat="44.60969" lon="0.82275">
        <ele>126.6233923</ele>
        <time>2022-08-12T07:22:49Z</time>
      </trkpt>
      <trkpt lat="44.60973" lon="0.82275">
        <ele>126.9248694</ele>
        <time>2022-08-12T07:22:51Z</time>
      </trkpt>
      <trkpt lat="44.60976" lon="0.82274">
        <ele>127.674184</ele>
        <time>2022-08-12T07:22:53Z</time>
      </trkpt>
      <trkpt lat="44.6098" lon="0.82273">
        <ele>127.9803647</ele>
        <time>2022-08-12T07:22:55Z</time>
      </trkpt>
      <trkpt lat="44.60983" lon="0.82271">
        <ele>128.2584338</ele>
        <time>2022-08-12T07:22:57Z</time>
      </trkpt>
      <trkpt lat="44.60986" lon="0.82269">
        <ele>128.2814974</ele>
        <time>2022-08-12T07:22:59Z</time>
      </trkpt>
      <trkpt lat="44.60989" lon="0.82267">
        <ele>129.21693</ele>
        <time>2022-08-12T07:23:01Z</time>
      </trkpt>
      <trkpt lat="44.60992" lon="0.82265">
        <ele>129.7484189</ele>
        <time>2022-08-12T07:23:03Z</time>
      </trkpt>
      <trkpt lat="44.60995" lon="0.82263">
        <ele>130.414311</ele>
        <time>2022-08-12T07:23:05Z</time>
      </trkpt>
      <trkpt lat="44.60999" lon="0.82263">
        <ele>130.6136093</ele>
        <time>2022-08-12T07:23:07Z</time>
      </trkpt>
      <trkpt lat="44.60999" lon="0.82263">
        <ele>130.8802302</ele>
        <time>2022-08-12T07:23:09Z</time>
      </trkpt>
      <trkpt lat="44.60999" lon="0.82263">
        <ele>130.5929495</ele>
        <time>2022-08-12T07:23:11Z</time>
      </trkpt>
      <trkpt lat="44.60999" lon="0.82263">
        <ele>130.5898408</ele>
        <time>2022-08-12T07:23:13Z</time>
      </trkpt>
      <trkpt lat="44.61" lon="0.82263">
        <ele>131.4783945</ele>
        <time>2022-08-12T07:23:15Z</time>
      </trkpt>
      <trkpt lat="44.61" lon="0.82262">
        <ele>131.7773813</ele>
        <time>2022-08-12T07:23:17Z</time>
      </trkpt>
      <trkpt lat="44.61001" lon="0.82263">
        <ele>131.9705093</ele>
        <time>2022-08-12T07:23:19Z</time>
      </trkpt>
      <trkpt lat="44.61" lon="0.82263">
        <ele>132.0026163</ele>
        <time>2022-08-12T07:23:21Z</time>
      </trkpt>
      <trkpt lat="44.61" lon="0.82263">
        <ele>131.9550059</ele>
        <time>2022-08-12T07:23:25Z</time>
      </trkpt>
      <trkpt lat="44.61" lon="0.82263">
        <ele>131.6409357</ele>
        <time>2022-08-12T07:23:27Z</time>
      </trkpt>
      <trkpt lat="44.61" lon="0.82263">
        <ele>131.6409357</ele>
        <time>2022-08-12T07:23:31Z</time>
      </trkpt>
      <trkpt lat="44.61" lon="0.82263">
        <ele>131.6409357</ele>
        <time>2022-08-12T07:23:35Z</time>
      </trkpt>
      <trkpt lat="44.61" lon="0.82263">
        <ele>131.6409357</ele>
        <time>2022-08-12T07:23:39Z</time>
      </trkpt>
      <trkpt lat="44.61" lon="0.82263">
        <ele>131.6409357</ele>
        <time>2022-08-12T07:23:43Z</time>
      </trkpt>
      <trkpt lat="44.61001" lon="0.82264">
        <ele>134.817726</ele>
        <time>2022-08-12T07:23:45Z</time>
      </trkpt>
      <trkpt lat="44.61001" lon="0.82264">
        <ele>135.0916806</ele>
        <time>2022-08-12T07:23:47Z</time>
      </trkpt>
      <trkpt lat="44.61002" lon="0.82264">
        <ele>134.5554221</ele>
        <time>2022-08-12T07:23:49Z</time>
      </trkpt>
      <trkpt lat="44.61001" lon="0.82264">
        <ele>133.8049782</ele>
        <time>2022-08-12T07:23:51Z</time>
      </trkpt>
      <trkpt lat="44.61" lon="0.82264">
        <ele>133.9325212</ele>
        <time>2022-08-12T07:23:53Z</time>
      </trkpt>
      <trkpt lat="44.61001" lon="0.82263">
        <ele>134.070556</ele>
        <time>2022-08-12T07:23:55Z</time>
      </trkpt>
      <trkpt lat="44.61" lon="0.82263">
        <ele>133.8879882</ele>
        <time>2022-08-12T07:23:57Z</time>
      </trkpt>
      <trkpt lat="44.61" lon="0.82263">
        <ele>133.9973109</ele>
        <time>2022-08-12T07:23:59Z</time>
      </trkpt>
      <trkpt lat="44.61" lon="0.82263">
        <ele>134.6100101</ele>
        <time>2022-08-12T07:24:03Z</time>
      </trkpt>
      <trkpt lat="44.61" lon="0.82263">
        <ele>134.0840616</ele>
        <time>2022-08-12T07:24:05Z</time>
      </trkpt>
      <trkpt lat="44.61001" lon="0.82263">
        <ele>133.7947981</ele>
        <time>2022-08-12T07:24:07Z</time>
      </trkpt>
      <trkpt lat="44.61" lon="0.82262">
        <ele>134.7598584</ele>
        <time>2022-08-12T07:24:09Z</time>
      </trkpt>
      <trkpt lat="44.61" lon="0.82262">
        <ele>133.9942514</ele>
        <time>2022-08-12T07:24:11Z</time>
      </trkpt>
      <trkpt lat="44.61" lon="0.82261">
        <ele>133.2223557</ele>
        <time>2022-08-12T07:24:13Z</time>
      </trkpt>
      <trkpt lat="44.61" lon="0.82262">
        <ele>132.6670982</ele>
        <time>2022-08-12T07:24:15Z</time>
      </trkpt>
      <trkpt lat="44.61" lon="0.82262">
        <ele>132.2067431</ele>
        <time>2022-08-12T07:24:17Z</time>
      </trkpt>
      <trkpt lat="44.61" lon="0.82262">
        <ele>132.0141869</ele>
        <time>2022-08-12T07:24:19Z</time>
      </trkpt>
      <trkpt lat="44.61" lon="0.82262">
        <ele>132.2951879</ele>
        <time>2022-08-12T07:24:21Z</time>
      </trkpt>
      <trkpt lat="44.61002" lon="0.8226">
        <ele>132.7334277</ele>
        <time>2022-08-12T07:24:23Z</time>
      </trkpt>
      <trkpt lat="44.61005" lon="0.82257">
        <ele>133.1562812</ele>
        <time>2022-08-12T07:24:25Z</time>
      </trkpt>
      <trkpt lat="44.61008" lon="0.82254">
        <ele>133.5364909</ele>
        <time>2022-08-12T07:24:27Z</time>
      </trkpt>
      <trkpt lat="44.61011" lon="0.82252">
        <ele>133.2906913</ele>
        <time>2022-08-12T07:24:29Z</time>
      </trkpt>
      <trkpt lat="44.61014" lon="0.8225">
        <ele>133.4733372</ele>
        <time>2022-08-12T07:24:31Z</time>
      </trkpt>
      <trkpt lat="44.61017" lon="0.82248">
        <ele>133.7741396</ele>
        <time>2022-08-12T07:24:33Z</time>
      </trkpt>
      <trkpt lat="44.61021" lon="0.82245">
        <ele>133.7296708</ele>
        <time>2022-08-12T07:24:35Z</time>
      </trkpt>
      <trkpt lat="44.61023" lon="0.82243">
        <ele>133.8533429</ele>
        <time>2022-08-12T07:24:37Z</time>
      </trkpt>
      <trkpt lat="44.61027" lon="0.82241">
        <ele>134.0259738</ele>
        <time>2022-08-12T07:24:39Z</time>
      </trkpt>
      <trkpt lat="44.61029" lon="0.82238">
        <ele>134.2221668</ele>
        <time>2022-08-12T07:24:41Z</time>
      </trkpt>
      <trkpt lat="44.61032" lon="0.82235">
        <ele>133.9215346</ele>
        <time>2022-08-12T07:24:43Z</time>
      </trkpt>
      <trkpt lat="44.61036" lon="0.82233">
        <ele>134.1969932</ele>
        <time>2022-08-12T07:24:45Z</time>
      </trkpt>
      <trkpt lat="44.61039" lon="0.8223">
        <ele>134.5026928</ele>
        <time>2022-08-12T07:24:47Z</time>
      </trkpt>
      <trkpt lat="44.61042" lon="0.82228">
        <ele>135.2636884</ele>
        <time>2022-08-12T07:24:49Z</time>
      </trkpt>
      <trkpt lat="44.61045" lon="0.82225">
        <ele>135.3105388</ele>
        <time>2022-08-12T07:24:51Z</time>
      </trkpt>
      <trkpt lat="44.61048" lon="0.82222">
        <ele>135.6335305</ele>
        <time>2022-08-12T07:24:53Z</time>
      </trkpt>
      <trkpt lat="44.61051" lon="0.8222">
        <ele>135.7545714</ele>
        <time>2022-08-12T07:24:55Z</time>
      </trkpt>
      <trkpt lat="44.61054" lon="0.82217">
        <ele>136.0074755</ele>
        <time>2022-08-12T07:24:57Z</time>
      </trkpt>
      <trkpt lat="44.61057" lon="0.82215">
        <ele>136.6096688</ele>
        <time>2022-08-12T07:24:59Z</time>
      </trkpt>
      <trkpt lat="44.61061" lon="0.82212">
        <ele>136.742655</ele>
        <time>2022-08-12T07:25:01Z</time>
      </trkpt>
      <trkpt lat="44.61064" lon="0.82209">
        <ele>136.661625</ele>
        <time>2022-08-12T07:25:03Z</time>
      </trkpt>
      <trkpt lat="44.61067" lon="0.82207">
        <ele>136.8609019</ele>
        <time>2022-08-12T07:25:05Z</time>
      </trkpt>
      <trkpt lat="44.6107" lon="0.82204">
        <ele>137.0450572</ele>
        <time>2022-08-12T07:25:07Z</time>
      </trkpt>
      <trkpt lat="44.61073" lon="0.82201">
        <ele>137.3969529</ele>
        <time>2022-08-12T07:25:09Z</time>
      </trkpt>
      <trkpt lat="44.61076" lon="0.82199">
        <ele>137.399412</ele>
        <time>2022-08-12T07:25:11Z</time>
      </trkpt>
      <trkpt lat="44.6108" lon="0.82196">
        <ele>137.9692988</ele>
        <time>2022-08-12T07:25:13Z</time>
      </trkpt>
      <trkpt lat="44.61083" lon="0.82194">
        <ele>138.7248295</ele>
        <time>2022-08-12T07:25:15Z</time>
      </trkpt>
      <trkpt lat="44.61086" lon="0.82191">
        <ele>138.8558188</ele>
        <time>2022-08-12T07:25:17Z</time>
      </trkpt>
      <trkpt lat="44.61089" lon="0.82188">
        <ele>138.890815</ele>
        <time>2022-08-12T07:25:19Z</time>
      </trkpt>
      <trkpt lat="44.61091" lon="0.82186">
        <ele>139.6590267</ele>
        <time>2022-08-12T07:25:21Z</time>
      </trkpt>
      <trkpt lat="44.61095" lon="0.82184">
        <ele>139.5093403</ele>
        <time>2022-08-12T07:25:23Z</time>
      </trkpt>
      <trkpt lat="44.61098" lon="0.82181">
        <ele>139.554128</ele>
        <time>2022-08-12T07:25:25Z</time>
      </trkpt>
      <trkpt lat="44.61103" lon="0.82176">
        <ele>140.2516595</ele>
        <time>2022-08-12T07:25:27Z</time>
      </trkpt>
      <trkpt lat="44.61107" lon="0.82173">
        <ele>140.3281555</ele>
        <time>2022-08-12T07:25:29Z</time>
      </trkpt>
      <trkpt lat="44.61111" lon="0.8217">
        <ele>140.1918175</ele>
        <time>2022-08-12T07:25:31Z</time>
      </trkpt>
      <trkpt lat="44.61115" lon="0.82167">
        <ele>140.3022214</ele>
        <time>2022-08-12T07:25:33Z</time>
      </trkpt>
      <trkpt lat="44.61118" lon="0.82165">
        <ele>140.5046509</ele>
        <time>2022-08-12T07:25:35Z</time>
      </trkpt>
      <trkpt lat="44.61122" lon="0.82161">
        <ele>140.6178242</ele>
        <time>2022-08-12T07:25:37Z</time>
      </trkpt>
      <trkpt lat="44.61126" lon="0.82158">
        <ele>140.5910173</ele>
        <time>2022-08-12T07:25:39Z</time>
      </trkpt>
      <trkpt lat="44.6113" lon="0.82155">
        <ele>140.7480043</ele>
        <time>2022-08-12T07:25:41Z</time>
      </trkpt>
      <trkpt lat="44.61134" lon="0.82152">
        <ele>140.5821307</ele>
        <time>2022-08-12T07:25:43Z</time>
      </trkpt>
      <trkpt lat="44.61137" lon="0.82149">
        <ele>141.2754027</ele>
        <time>2022-08-12T07:25:45Z</time>
      </trkpt>
      <trkpt lat="44.6114" lon="0.82145">
        <ele>141.8477814</ele>
        <time>2022-08-12T07:25:47Z</time>
      </trkpt>
      <trkpt lat="44.61144" lon="0.82142">
        <ele>142.2562567</ele>
        <time>2022-08-12T07:25:49Z</time>
      </trkpt>
      <trkpt lat="44.61147" lon="0.82139">
        <ele>142.5973545</ele>
        <time>2022-08-12T07:25:51Z</time>
      </trkpt>
      <trkpt lat="44.61151" lon="0.82136">
        <ele>142.8402562</ele>
        <time>2022-08-12T07:25:53Z</time>
      </trkpt>
      <trkpt lat="44.61155" lon="0.82133">
        <ele>142.6975115</ele>
        <time>2022-08-12T07:25:55Z</time>
      </trkpt>
      <trkpt lat="44.61158" lon="0.82129">
        <ele>144.0162485</ele>
        <time>2022-08-12T07:25:57Z</time>
      </trkpt>
      <trkpt lat="44.61162" lon="0.82127">
        <ele>144.4841462</ele>
        <time>2022-08-12T07:25:59Z</time>
      </trkpt>
      <trkpt lat="44.61166" lon="0.82124">
        <ele>144.6533429</ele>
        <time>2022-08-12T07:26:01Z</time>
      </trkpt>
      <trkpt lat="44.6117" lon="0.82121">
        <ele>145.4240903</ele>
        <time>2022-08-12T07:26:03Z</time>
      </trkpt>
      <trkpt lat="44.61173" lon="0.82119">
        <ele>146.0542283</ele>
        <time>2022-08-12T07:26:05Z</time>
      </trkpt>
      <trkpt lat="44.61177" lon="0.82116">
        <ele>146.2481615</ele>
        <time>2022-08-12T07:26:07Z</time>
      </trkpt>
      <trkpt lat="44.6118" lon="0.82113">
        <ele>146.6645017</ele>
        <time>2022-08-12T07:26:09Z</time>
      </trkpt>
      <trkpt lat="44.61184" lon="0.8211">
        <ele>146.7169979</ele>
        <time>2022-08-12T07:26:11Z</time>
      </trkpt>
      <trkpt lat="44.61188" lon="0.82107">
        <ele>147.2509239</ele>
        <time>2022-08-12T07:26:13Z</time>
      </trkpt>
      <trkpt lat="44.61191" lon="0.82104">
        <ele>147.2954103</ele>
        <time>2022-08-12T07:26:15Z</time>
      </trkpt>
      <trkpt lat="44.61195" lon="0.82102">
        <ele>147.8256479</ele>
        <time>2022-08-12T07:26:17Z</time>
      </trkpt>
      <trkpt lat="44.61198" lon="0.82099">
        <ele>148.2009378</ele>
        <time>2022-08-12T07:26:19Z</time>
      </trkpt>
      <trkpt lat="44.61202" lon="0.82096">
        <ele>148.4283032</ele>
        <time>2022-08-12T07:26:21Z</time>
      </trkpt>
      <trkpt lat="44.61205" lon="0.82093">
        <ele>148.6166038</ele>
        <time>2022-08-12T07:26:23Z</time>
      </trkpt>
      <trkpt lat="44.61208" lon="0.8209">
        <ele>148.6211824</ele>
        <time>2022-08-12T07:26:25Z</time>
      </trkpt>
      <trkpt lat="44.61212" lon="0.82087">
        <ele>149.2970128</ele>
        <time>2022-08-12T07:26:27Z</time>
      </trkpt>
      <trkpt lat="44.61215" lon="0.82084">
        <ele>149.6041612</ele>
        <time>2022-08-12T07:26:29Z</time>
      </trkpt>
      <trkpt lat="44.61218" lon="0.82081">
        <ele>149.545327</ele>
        <time>2022-08-12T07:26:31Z</time>
      </trkpt>
      <trkpt lat="44.61221" lon="0.82079">
        <ele>150.2991329</ele>
        <time>2022-08-12T07:26:33Z</time>
      </trkpt>
      <trkpt lat="44.61224" lon="0.82075">
        <ele>150.8434373</ele>
        <time>2022-08-12T07:26:35Z</time>
      </trkpt>
      <trkpt lat="44.61227" lon="0.82072">
        <ele>150.9903753</ele>
        <time>2022-08-12T07:26:37Z</time>
      </trkpt>
      <trkpt lat="44.61231" lon="0.8207">
        <ele>151.4250032</ele>
        <time>2022-08-12T07:26:39Z</time>
      </trkpt>
      <trkpt lat="44.61234" lon="0.82066">
        <ele>151.8477821</ele>
        <time>2022-08-12T07:26:41Z</time>
      </trkpt>
      <trkpt lat="44.61238" lon="0.82064">
        <ele>152.0913536</ele>
        <time>2022-08-12T07:26:43Z</time>
      </trkpt>
      <trkpt lat="44.61241" lon="0.82061">
        <ele>152.7619728</ele>
        <time>2022-08-12T07:26:45Z</time>
      </trkpt>
      <trkpt lat="44.61245" lon="0.82058">
        <ele>152.5368612</ele>
        <time>2022-08-12T07:26:47Z</time>
      </trkpt>
      <trkpt lat="44.61249" lon="0.82056">
        <ele>152.7881347</ele>
        <time>2022-08-12T07:26:49Z</time>
      </trkpt>
      <trkpt lat="44.61252" lon="0.82053">
        <ele>152.8859982</ele>
        <time>2022-08-12T07:26:51Z</time>
      </trkpt>
      <trkpt lat="44.61256" lon="0.8205">
        <ele>153.08668</ele>
        <time>2022-08-12T07:26:53Z</time>
      </trkpt>
      <trkpt lat="44.6126" lon="0.82048">
        <ele>153.0088023</ele>
        <time>2022-08-12T07:26:55Z</time>
      </trkpt>
      <trkpt lat="44.61263" lon="0.82045">
        <ele>152.8133413</ele>
        <time>2022-08-12T07:26:57Z</time>
      </trkpt>
      <trkpt lat="44.61266" lon="0.82042">
        <ele>153.3384648</ele>
        <time>2022-08-12T07:26:59Z</time>
      </trkpt>
      <trkpt lat="44.6127" lon="0.82038">
        <ele>153.5876407</ele>
        <time>2022-08-12T07:27:01Z</time>
      </trkpt>
      <trkpt lat="44.61274" lon="0.82036">
        <ele>154.0034695</ele>
        <time>2022-08-12T07:27:03Z</time>
      </trkpt>
      <trkpt lat="44.61277" lon="0.82033">
        <ele>154.2530616</ele>
        <time>2022-08-12T07:27:05Z</time>
      </trkpt>
      <trkpt lat="44.61281" lon="0.8203">
        <ele>153.8225737</ele>
        <time>2022-08-12T07:27:07Z</time>
      </trkpt>
      <trkpt lat="44.61284" lon="0.82027">
        <ele>153.9935394</ele>
        <time>2022-08-12T07:27:09Z</time>
      </trkpt>
      <trkpt lat="44.61287" lon="0.82024">
        <ele>154.3745732</ele>
        <time>2022-08-12T07:27:11Z</time>
      </trkpt>
      <trkpt lat="44.61291" lon="0.82021">
        <ele>154.4001268</ele>
        <time>2022-08-12T07:27:13Z</time>
      </trkpt>
      <trkpt lat="44.61294" lon="0.82018">
        <ele>154.9316412</ele>
        <time>2022-08-12T07:27:15Z</time>
      </trkpt>
      <trkpt lat="44.61298" lon="0.82015">
        <ele>155.0825356</ele>
        <time>2022-08-12T07:27:17Z</time>
      </trkpt>
      <trkpt lat="44.61301" lon="0.82011">
        <ele>155.3849973</ele>
        <time>2022-08-12T07:27:19Z</time>
      </trkpt>
      <trkpt lat="44.61305" lon="0.82009">
        <ele>155.4552917</ele>
        <time>2022-08-12T07:27:21Z</time>
      </trkpt>
      <trkpt lat="44.61308" lon="0.82006">
        <ele>155.6905817</ele>
        <time>2022-08-12T07:27:23Z</time>
      </trkpt>
      <trkpt lat="44.61312" lon="0.82003">
        <ele>155.519324</ele>
        <time>2022-08-12T07:27:25Z</time>
      </trkpt>
      <trkpt lat="44.61315" lon="0.82">
        <ele>155.3880256</ele>
        <time>2022-08-12T07:27:27Z</time>
      </trkpt>
      <trkpt lat="44.61319" lon="0.81997">
        <ele>155.5255533</ele>
        <time>2022-08-12T07:27:29Z</time>
      </trkpt>
      <trkpt lat="44.61322" lon="0.81995">
        <ele>155.4185917</ele>
        <time>2022-08-12T07:27:31Z</time>
      </trkpt>
      <trkpt lat="44.61325" lon="0.81993">
        <ele>155.7861958</ele>
        <time>2022-08-12T07:27:33Z</time>
      </trkpt>
      <trkpt lat="44.61328" lon="0.8199">
        <ele>155.7636033</ele>
        <time>2022-08-12T07:27:35Z</time>
      </trkpt>
      <trkpt lat="44.61332" lon="0.81987">
        <ele>155.7317471</ele>
        <time>2022-08-12T07:27:37Z</time>
      </trkpt>
      <trkpt lat="44.61336" lon="0.81984">
        <ele>155.9688818</ele>
        <time>2022-08-12T07:27:39Z</time>
      </trkpt>
      <trkpt lat="44.61339" lon="0.8198">
        <ele>156.1260626</ele>
        <time>2022-08-12T07:27:41Z</time>
      </trkpt>
      <trkpt lat="44.61343" lon="0.81977">
        <ele>156.1240261</ele>
        <time>2022-08-12T07:27:43Z</time>
      </trkpt>
      <trkpt lat="44.61346" lon="0.81975">
        <ele>156.037542</ele>
        <time>2022-08-12T07:27:45Z</time>
      </trkpt>
      <trkpt lat="44.6135" lon="0.81972">
        <ele>155.9654685</ele>
        <time>2022-08-12T07:27:47Z</time>
      </trkpt>
      <trkpt lat="44.61354" lon="0.81968">
        <ele>156.1135166</ele>
        <time>2022-08-12T07:27:49Z</time>
      </trkpt>
      <trkpt lat="44.61358" lon="0.81964">
        <ele>156.2317131</ele>
        <time>2022-08-12T07:27:51Z</time>
      </trkpt>
      <trkpt lat="44.61362" lon="0.81961">
        <ele>156.4224802</ele>
        <time>2022-08-12T07:27:53Z</time>
      </trkpt>
      <trkpt lat="44.61366" lon="0.81958">
        <ele>156.4885433</ele>
        <time>2022-08-12T07:27:55Z</time>
      </trkpt>
      <trkpt lat="44.6137" lon="0.81955">
        <ele>156.4983609</ele>
        <time>2022-08-12T07:27:57Z</time>
      </trkpt>
      <trkpt lat="44.61374" lon="0.81951">
        <ele>156.2272958</ele>
        <time>2022-08-12T07:27:59Z</time>
      </trkpt>
      <trkpt lat="44.61379" lon="0.81948">
        <ele>156.2775147</ele>
        <time>2022-08-12T07:28:01Z</time>
      </trkpt>
      <trkpt lat="44.61384" lon="0.81944">
        <ele>156.3374509</ele>
        <time>2022-08-12T07:28:03Z</time>
      </trkpt>
      <trkpt lat="44.61388" lon="0.8194">
        <ele>156.4511598</ele>
        <time>2022-08-12T07:28:05Z</time>
      </trkpt>
      <trkpt lat="44.61393" lon="0.81936">
        <ele>156.6985395</ele>
        <time>2022-08-12T07:28:07Z</time>
      </trkpt>
      <trkpt lat="44.61397" lon="0.81932">
        <ele>156.5411084</ele>
        <time>2022-08-12T07:28:09Z</time>
      </trkpt>
      <trkpt lat="44.61403" lon="0.81928">
        <ele>156.6868769</ele>
        <time>2022-08-12T07:28:11Z</time>
      </trkpt>
      <trkpt lat="44.61409" lon="0.81923">
        <ele>156.0152558</ele>
        <time>2022-08-12T07:28:13Z</time>
      </trkpt>
      <trkpt lat="44.61414" lon="0.81918">
        <ele>156.0634863</ele>
        <time>2022-08-12T07:28:15Z</time>
      </trkpt>
      <trkpt lat="44.6142" lon="0.81914">
        <ele>156.4749609</ele>
        <time>2022-08-12T07:28:17Z</time>
      </trkpt>
      <trkpt lat="44.61425" lon="0.81908">
        <ele>155.8725916</ele>
        <time>2022-08-12T07:28:19Z</time>
      </trkpt>
      <trkpt lat="44.6143" lon="0.81903">
        <ele>156.2705738</ele>
        <time>2022-08-12T07:28:21Z</time>
      </trkpt>
      <trkpt lat="44.61435" lon="0.81899">
        <ele>155.7704881</ele>
        <time>2022-08-12T07:28:23Z</time>
      </trkpt>
      <trkpt lat="44.6144" lon="0.81894">
        <ele>155.9649981</ele>
        <time>2022-08-12T07:28:25Z</time>
      </trkpt>
      <trkpt lat="44.61445" lon="0.8189">
        <ele>156.00899</ele>
        <time>2022-08-12T07:28:27Z</time>
      </trkpt>
      <trkpt lat="44.61451" lon="0.81885">
        <ele>155.8372844</ele>
        <time>2022-08-12T07:28:29Z</time>
      </trkpt>
      <trkpt lat="44.61457" lon="0.81881">
        <ele>155.5251614</ele>
        <time>2022-08-12T07:28:31Z</time>
      </trkpt>
      <trkpt lat="44.61461" lon="0.81877">
        <ele>155.4856891</ele>
        <time>2022-08-12T07:28:33Z</time>
      </trkpt>
      <trkpt lat="44.61466" lon="0.81875">
        <ele>155.4726912</ele>
        <time>2022-08-12T07:28:35Z</time>
      </trkpt>
      <trkpt lat="44.61467" lon="0.81874">
        <ele>154.4048033</ele>
        <time>2022-08-12T07:28:37Z</time>
      </trkpt>
      <trkpt lat="44.61466" lon="0.81874">
        <ele>154.2997527</ele>
        <time>2022-08-12T07:28:39Z</time>
      </trkpt>
      <trkpt lat="44.61467" lon="0.81874">
        <ele>154.5784075</ele>
        <time>2022-08-12T07:28:41Z</time>
      </trkpt>
      <trkpt lat="44.61467" lon="0.81874">
        <ele>154.8188814</ele>
        <time>2022-08-12T07:28:43Z</time>
      </trkpt>
      <trkpt lat="44.61467" lon="0.81874">
        <ele>154.8145928</ele>
        <time>2022-08-12T07:28:45Z</time>
      </trkpt>
      <trkpt lat="44.61467" lon="0.81874">
        <ele>154.8145928</ele>
        <time>2022-08-12T07:28:49Z</time>
      </trkpt>
      <trkpt lat="44.61467" lon="0.81874">
        <ele>154.8145928</ele>
        <time>2022-08-12T07:28:53Z</time>
      </trkpt>
      <trkpt lat="44.61467" lon="0.81874">
        <ele>154.8145928</ele>
        <time>2022-08-12T07:28:57Z</time>
      </trkpt>
      <trkpt lat="44.61467" lon="0.81874">
        <ele>154.8145928</ele>
        <time>2022-08-12T07:29:01Z</time>
      </trkpt>
      <trkpt lat="44.61467" lon="0.81874">
        <ele>154.8145928</ele>
        <time>2022-08-12T07:29:05Z</time>
      </trkpt>
      <trkpt lat="44.61467" lon="0.81872">
        <ele>151.0574</ele>
        <time>2022-08-12T07:29:07Z</time>
      </trkpt>
      <trkpt lat="44.61467" lon="0.81872">
        <ele>151.0574</ele>
        <time>2022-08-12T07:29:11Z</time>
      </trkpt>
      <trkpt lat="44.61467" lon="0.81872">
        <ele>151.0574</ele>
        <time>2022-08-12T07:29:15Z</time>
      </trkpt>
      <trkpt lat="44.61467" lon="0.81872">
        <ele>151.0574</ele>
        <time>2022-08-12T07:29:19Z</time>
      </trkpt>
      <trkpt lat="44.61468" lon="0.81873">
        <ele>152.0923938</ele>
        <time>2022-08-12T07:29:21Z</time>
      </trkpt>
      <trkpt lat="44.61469" lon="0.81873">
        <ele>151.8356597</ele>
        <time>2022-08-12T07:29:23Z</time>
      </trkpt>
      <trkpt lat="44.61469" lon="0.81873">
        <ele>151.6973716</ele>
        <time>2022-08-12T07:29:25Z</time>
      </trkpt>
      <trkpt lat="44.61468" lon="0.81873">
        <ele>151.3538687</ele>
        <time>2022-08-12T07:29:27Z</time>
      </trkpt>
      <trkpt lat="44.61469" lon="0.81873">
        <ele>150.5232305</ele>
        <time>2022-08-12T07:29:29Z</time>
      </trkpt>
      <trkpt lat="44.61469" lon="0.81872">
        <ele>149.8573143</ele>
        <time>2022-08-12T07:29:31Z</time>
      </trkpt>
      <trkpt lat="44.61469" lon="0.81871">
        <ele>149.2540232</ele>
        <time>2022-08-12T07:29:33Z</time>
      </trkpt>
      <trkpt lat="44.61469" lon="0.81871">
        <ele>148.7926601</ele>
        <time>2022-08-12T07:29:35Z</time>
      </trkpt>
      <trkpt lat="44.61469" lon="0.8187">
        <ele>148.6773554</ele>
        <time>2022-08-12T07:29:37Z</time>
      </trkpt>
      <trkpt lat="44.61469" lon="0.8187">
        <ele>147.6881765</ele>
        <time>2022-08-12T07:29:39Z</time>
      </trkpt>
      <trkpt lat="44.61469" lon="0.8187">
        <ele>148.6401311</ele>
        <time>2022-08-12T07:29:41Z</time>
      </trkpt>
      <trkpt lat="44.61471" lon="0.81868">
        <ele>149.3487438</ele>
        <time>2022-08-12T07:29:43Z</time>
      </trkpt>
      <trkpt lat="44.61473" lon="0.81865">
        <ele>149.3302093</ele>
        <time>2022-08-12T07:29:45Z</time>
      </trkpt>
      <trkpt lat="44.61474" lon="0.81862">
        <ele>149.0867678</ele>
        <time>2022-08-12T07:29:47Z</time>
      </trkpt>
      <trkpt lat="44.61478" lon="0.81859">
        <ele>150.2249761</ele>
        <time>2022-08-12T07:29:49Z</time>
      </trkpt>
      <trkpt lat="44.61481" lon="0.81858">
        <ele>151.7340732</ele>
        <time>2022-08-12T07:29:51Z</time>
      </trkpt>
      <trkpt lat="44.61485" lon="0.81853">
        <ele>152.3549917</ele>
        <time>2022-08-12T07:29:53Z</time>
      </trkpt>
      <trkpt lat="44.61489" lon="0.8185">
        <ele>153.2098077</ele>
        <time>2022-08-12T07:29:55Z</time>
      </trkpt>
      <trkpt lat="44.61493" lon="0.81846">
        <ele>152.8061619</ele>
        <time>2022-08-12T07:29:57Z</time>
      </trkpt>
      <trkpt lat="44.61496" lon="0.81843">
        <ele>153.1351468</ele>
        <time>2022-08-12T07:29:59Z</time>
      </trkpt>
      <trkpt lat="44.615" lon="0.8184">
        <ele>153.7413491</ele>
        <time>2022-08-12T07:30:01Z</time>
      </trkpt>
      <trkpt lat="44.61503" lon="0.81838">
        <ele>154.1990429</ele>
        <time>2022-08-12T07:30:03Z</time>
      </trkpt>
      <trkpt lat="44.61508" lon="0.81835">
        <ele>155.090975</ele>
        <time>2022-08-12T07:30:05Z</time>
      </trkpt>
      <trkpt lat="44.61512" lon="0.81829">
        <ele>155.8982119</ele>
        <time>2022-08-12T07:30:07Z</time>
      </trkpt>
      <trkpt lat="44.61518" lon="0.81825">
        <ele>156.0689686</ele>
        <time>2022-08-12T07:30:09Z</time>
      </trkpt>
      <trkpt lat="44.61524" lon="0.81821">
        <ele>156.675905</ele>
        <time>2022-08-12T07:30:11Z</time>
      </trkpt>
      <trkpt lat="44.61529" lon="0.81815">
        <ele>156.7272418</ele>
        <time>2022-08-12T07:30:13Z</time>
      </trkpt>
      <trkpt lat="44.61535" lon="0.81812">
        <ele>156.641245</ele>
        <time>2022-08-12T07:30:15Z</time>
      </trkpt>
      <trkpt lat="44.61541" lon="0.81807">
        <ele>157.0589775</ele>
        <time>2022-08-12T07:30:17Z</time>
      </trkpt>
      <trkpt lat="44.61548" lon="0.81803">
        <ele>156.8133694</ele>
        <time>2022-08-12T07:30:19Z</time>
      </trkpt>
      <trkpt lat="44.61553" lon="0.81798">
        <ele>157.0738377</ele>
        <time>2022-08-12T07:30:21Z</time>
      </trkpt>
      <trkpt lat="44.61558" lon="0.81792">
        <ele>158.202791</ele>
        <time>2022-08-12T07:30:23Z</time>
      </trkpt>
      <trkpt lat="44.61565" lon="0.81787">
        <ele>158.2536852</ele>
        <time>2022-08-12T07:30:25Z</time>
      </trkpt>
      <trkpt lat="44.61572" lon="0.81781">
        <ele>158.3426406</ele>
        <time>2022-08-12T07:30:27Z</time>
      </trkpt>
      <trkpt lat="44.61578" lon="0.81774">
        <ele>158.2697373</ele>
        <time>2022-08-12T07:30:29Z</time>
      </trkpt>
      <trkpt lat="44.61587" lon="0.81769">
        <ele>157.9342609</ele>
        <time>2022-08-12T07:30:31Z</time>
      </trkpt>
      <trkpt lat="44.61594" lon="0.81762">
        <ele>156.5980207</ele>
        <time>2022-08-12T07:30:33Z</time>
      </trkpt>
      <trkpt lat="44.61601" lon="0.81755">
        <ele>156.83979</ele>
        <time>2022-08-12T07:30:35Z</time>
      </trkpt>
      <trkpt lat="44.6161" lon="0.81748">
        <ele>156.7741684</ele>
        <time>2022-08-12T07:30:37Z</time>
      </trkpt>
      <trkpt lat="44.61618" lon="0.81741">
        <ele>156.0252347</ele>
        <time>2022-08-12T07:30:39Z</time>
      </trkpt>
      <trkpt lat="44.61627" lon="0.81735">
        <ele>155.9439791</ele>
        <time>2022-08-12T07:30:41Z</time>
      </trkpt>
      <trkpt lat="44.61634" lon="0.81726">
        <ele>155.7969565</ele>
        <time>2022-08-12T07:30:43Z</time>
      </trkpt>
      <trkpt lat="44.61641" lon="0.8172">
        <ele>155.2828579</ele>
        <time>2022-08-12T07:30:45Z</time>
      </trkpt>
      <trkpt lat="44.61647" lon="0.81712">
        <ele>154.9318985</ele>
        <time>2022-08-12T07:30:47Z</time>
      </trkpt>
      <trkpt lat="44.61654" lon="0.81704">
        <ele>155.0971697</ele>
        <time>2022-08-12T07:30:49Z</time>
      </trkpt>
      <trkpt lat="44.61658" lon="0.81697">
        <ele>156.2172667</ele>
        <time>2022-08-12T07:30:51Z</time>
      </trkpt>
      <trkpt lat="44.61662" lon="0.8169">
        <ele>156.5245015</ele>
        <time>2022-08-12T07:30:53Z</time>
      </trkpt>
      <trkpt lat="44.61666" lon="0.81683">
        <ele>156.934695</ele>
        <time>2022-08-12T07:30:55Z</time>
      </trkpt>
      <trkpt lat="44.61671" lon="0.81676">
        <ele>156.868343</ele>
        <time>2022-08-12T07:30:57Z</time>
      </trkpt>
      <trkpt lat="44.61673" lon="0.81667">
        <ele>157.035817</ele>
        <time>2022-08-12T07:30:59Z</time>
      </trkpt>
      <trkpt lat="44.61676" lon="0.81659">
        <ele>157.639526</ele>
        <time>2022-08-12T07:31:01Z</time>
      </trkpt>
      <trkpt lat="44.6168" lon="0.81652">
        <ele>158.3837036</ele>
        <time>2022-08-12T07:31:03Z</time>
      </trkpt>
      <trkpt lat="44.61681" lon="0.81643">
        <ele>158.3544785</ele>
        <time>2022-08-12T07:31:05Z</time>
      </trkpt>
      <trkpt lat="44.61683" lon="0.81635">
        <ele>158.5987311</ele>
        <time>2022-08-12T07:31:07Z</time>
      </trkpt>
      <trkpt lat="44.61685" lon="0.81628">
        <ele>158.1814532</ele>
        <time>2022-08-12T07:31:09Z</time>
      </trkpt>
      <trkpt lat="44.61688" lon="0.81621">
        <ele>157.6956176</ele>
        <time>2022-08-12T07:31:11Z</time>
      </trkpt>
      <trkpt lat="44.61689" lon="0.81612">
        <ele>158.8088767</ele>
        <time>2022-08-12T07:31:13Z</time>
      </trkpt>
      <trkpt lat="44.61691" lon="0.81605">
        <ele>158.6558173</ele>
        <time>2022-08-12T07:31:15Z</time>
      </trkpt>
      <trkpt lat="44.61692" lon="0.81598">
        <ele>158.6958884</ele>
        <time>2022-08-12T07:31:17Z</time>
      </trkpt>
      <trkpt lat="44.61694" lon="0.8159">
        <ele>159.1580218</ele>
        <time>2022-08-12T07:31:19Z</time>
      </trkpt>
      <trkpt lat="44.61696" lon="0.81581">
        <ele>158.3735628</ele>
        <time>2022-08-12T07:31:21Z</time>
      </trkpt>
      <trkpt lat="44.61698" lon="0.81573">
        <ele>158.7685452</ele>
        <time>2022-08-12T07:31:23Z</time>
      </trkpt>
      <trkpt lat="44.617" lon="0.81564">
        <ele>159.1502886</ele>
        <time>2022-08-12T07:31:25Z</time>
      </trkpt>
      <trkpt lat="44.61703" lon="0.81554">
        <ele>157.8051106</ele>
        <time>2022-08-12T07:31:27Z</time>
      </trkpt>
      <trkpt lat="44.61706" lon="0.81543">
        <ele>157.0113669</ele>
        <time>2022-08-12T07:31:29Z</time>
      </trkpt>
      <trkpt lat="44.61708" lon="0.81532">
        <ele>156.6147516</ele>
        <time>2022-08-12T07:31:31Z</time>
      </trkpt>
      <trkpt lat="44.61712" lon="0.81521">
        <ele>156.5069501</ele>
        <time>2022-08-12T07:31:33Z</time>
      </trkpt>
      <trkpt lat="44.61714" lon="0.81509">
        <ele>156.3570004</ele>
        <time>2022-08-12T07:31:35Z</time>
      </trkpt>
      <trkpt lat="44.61717" lon="0.81496">
        <ele>155.8086076</ele>
        <time>2022-08-12T07:31:37Z</time>
      </trkpt>
      <trkpt lat="44.61721" lon="0.8148">
        <ele>155.0717799</ele>
        <time>2022-08-12T07:31:39Z</time>
      </trkpt>
      <trkpt lat="44.61725" lon="0.81462">
        <ele>154.6522879</ele>
        <time>2022-08-12T07:31:41Z</time>
      </trkpt>
      <trkpt lat="44.6173" lon="0.81443">
        <ele>153.7922825</ele>
        <time>2022-08-12T07:31:43Z</time>
      </trkpt>
      <trkpt lat="44.61735" lon="0.81423">
        <ele>152.1655635</ele>
        <time>2022-08-12T07:31:45Z</time>
      </trkpt>
      <trkpt lat="44.6174" lon="0.81404">
        <ele>152.2541723</ele>
        <time>2022-08-12T07:31:47Z</time>
      </trkpt>
      <trkpt lat="44.61746" lon="0.81386">
        <ele>152.4559061</ele>
        <time>2022-08-12T07:31:49Z</time>
      </trkpt>
      <trkpt lat="44.61753" lon="0.81371">
        <ele>151.948123</ele>
        <time>2022-08-12T07:31:51Z</time>
      </trkpt>
      <trkpt lat="44.61762" lon="0.81357">
        <ele>152.4976901</ele>
        <time>2022-08-12T07:31:53Z</time>
      </trkpt>
      <trkpt lat="44.61772" lon="0.81347">
        <ele>153.1035966</ele>
        <time>2022-08-12T07:31:55Z</time>
      </trkpt>
      <trkpt lat="44.61782" lon="0.81336">
        <ele>152.4940953</ele>
        <time>2022-08-12T07:31:57Z</time>
      </trkpt>
      <trkpt lat="44.61792" lon="0.81326">
        <ele>152.3568981</ele>
        <time>2022-08-12T07:31:59Z</time>
      </trkpt>
      <trkpt lat="44.61803" lon="0.81317">
        <ele>151.6851894</ele>
        <time>2022-08-12T07:32:01Z</time>
      </trkpt>
      <trkpt lat="44.61813" lon="0.81306">
        <ele>151.9482008</ele>
        <time>2022-08-12T07:32:03Z</time>
      </trkpt>
      <trkpt lat="44.61823" lon="0.81295">
        <ele>152.6426245</ele>
        <time>2022-08-12T07:32:05Z</time>
      </trkpt>
      <trkpt lat="44.61834" lon="0.81285">
        <ele>151.8606487</ele>
        <time>2022-08-12T07:32:07Z</time>
      </trkpt>
      <trkpt lat="44.61844" lon="0.81273">
        <ele>151.7720097</ele>
        <time>2022-08-12T07:32:09Z</time>
      </trkpt>
      <trkpt lat="44.61852" lon="0.81261">
        <ele>150.9618593</ele>
        <time>2022-08-12T07:32:11Z</time>
      </trkpt>
      <trkpt lat="44.6186" lon="0.81248">
        <ele>151.0669365</ele>
        <time>2022-08-12T07:32:13Z</time>
      </trkpt>
      <trkpt lat="44.61866" lon="0.81236">
        <ele>151.8622654</ele>
        <time>2022-08-12T07:32:15Z</time>
      </trkpt>
      <trkpt lat="44.61872" lon="0.81224">
        <ele>152.1051936</ele>
        <time>2022-08-12T07:32:17Z</time>
      </trkpt>
      <trkpt lat="44.61877" lon="0.81213">
        <ele>152.9392754</ele>
        <time>2022-08-12T07:32:19Z</time>
      </trkpt>
      <trkpt lat="44.61882" lon="0.81203">
        <ele>153.720052</ele>
        <time>2022-08-12T07:32:21Z</time>
      </trkpt>
      <trkpt lat="44.61886" lon="0.81192">
        <ele>154.7122243</ele>
        <time>2022-08-12T07:32:23Z</time>
      </trkpt>
      <trkpt lat="44.61891" lon="0.81183">
        <ele>155.0652328</ele>
        <time>2022-08-12T07:32:25Z</time>
      </trkpt>
      <trkpt lat="44.61894" lon="0.81174">
        <ele>155.983246</ele>
        <time>2022-08-12T07:32:27Z</time>
      </trkpt>
      <trkpt lat="44.61898" lon="0.81165">
        <ele>156.0641735</ele>
        <time>2022-08-12T07:32:29Z</time>
      </trkpt>
      <trkpt lat="44.61902" lon="0.81157">
        <ele>156.5346277</ele>
        <time>2022-08-12T07:32:31Z</time>
      </trkpt>
      <trkpt lat="44.61905" lon="0.81149">
        <ele>156.8337751</ele>
        <time>2022-08-12T07:32:33Z</time>
      </trkpt>
      <trkpt lat="44.61909" lon="0.81141">
        <ele>157.1113692</ele>
        <time>2022-08-12T07:32:35Z</time>
      </trkpt>
      <trkpt lat="44.61912" lon="0.81133">
        <ele>157.6390093</ele>
        <time>2022-08-12T07:32:37Z</time>
      </trkpt>
      <trkpt lat="44.61915" lon="0.81126">
        <ele>157.6428845</ele>
        <time>2022-08-12T07:32:39Z</time>
      </trkpt>
      <trkpt lat="44.61918" lon="0.81119">
        <ele>157.9554324</ele>
        <time>2022-08-12T07:32:41Z</time>
      </trkpt>
      <trkpt lat="44.61921" lon="0.81112">
        <ele>158.1836031</ele>
        <time>2022-08-12T07:32:43Z</time>
      </trkpt>
      <trkpt lat="44.61924" lon="0.81105">
        <ele>158.172854</ele>
        <time>2022-08-12T07:32:45Z</time>
      </trkpt>
      <trkpt lat="44.61927" lon="0.81099">
        <ele>158.2177736</ele>
        <time>2022-08-12T07:32:47Z</time>
      </trkpt>
      <trkpt lat="44.6193" lon="0.81094">
        <ele>158.4554196</ele>
        <time>2022-08-12T07:32:49Z</time>
      </trkpt>
      <trkpt lat="44.61932" lon="0.81088">
        <ele>158.782346</ele>
        <time>2022-08-12T07:32:51Z</time>
      </trkpt>
      <trkpt lat="44.61935" lon="0.81082">
        <ele>158.6950251</ele>
        <time>2022-08-12T07:32:53Z</time>
      </trkpt>
      <trkpt lat="44.61937" lon="0.81077">
        <ele>159.4398013</ele>
        <time>2022-08-12T07:32:55Z</time>
      </trkpt>
      <trkpt lat="44.61939" lon="0.81071">
        <ele>159.1356926</ele>
        <time>2022-08-12T07:32:57Z</time>
      </trkpt>
      <trkpt lat="44.61942" lon="0.81063">
        <ele>159.2818021</ele>
        <time>2022-08-12T07:32:59Z</time>
      </trkpt>
      <trkpt lat="44.61947" lon="0.81053">
        <ele>159.2260367</ele>
        <time>2022-08-12T07:33:01Z</time>
      </trkpt>
      <trkpt lat="44.61954" lon="0.81042">
        <ele>158.116006</ele>
        <time>2022-08-12T07:33:03Z</time>
      </trkpt>
      <trkpt lat="44.61962" lon="0.8103">
        <ele>157.6485968</ele>
        <time>2022-08-12T07:33:05Z</time>
      </trkpt>
      <trkpt lat="44.61971" lon="0.81017">
        <ele>157.0222144</ele>
        <time>2022-08-12T07:33:07Z</time>
      </trkpt>
      <trkpt lat="44.61981" lon="0.81003">
        <ele>157.1688723</ele>
        <time>2022-08-12T07:33:09Z</time>
      </trkpt>
      <trkpt lat="44.6199" lon="0.8099">
        <ele>157.2671075</ele>
        <time>2022-08-12T07:33:11Z</time>
      </trkpt>
      <trkpt lat="44.61999" lon="0.80978">
        <ele>157.2569348</ele>
        <time>2022-08-12T07:33:13Z</time>
      </trkpt>
      <trkpt lat="44.62007" lon="0.80966">
        <ele>157.2683967</ele>
        <time>2022-08-12T07:33:15Z</time>
      </trkpt>
      <trkpt lat="44.62014" lon="0.80956">
        <ele>158.1683229</ele>
        <time>2022-08-12T07:33:17Z</time>
      </trkpt>
      <trkpt lat="44.62022" lon="0.80948">
        <ele>158.9036558</ele>
        <time>2022-08-12T07:33:19Z</time>
      </trkpt>
      <trkpt lat="44.62029" lon="0.80942">
        <ele>159.2246011</ele>
        <time>2022-08-12T07:33:21Z</time>
      </trkpt>
      <trkpt lat="44.62037" lon="0.80937">
        <ele>160.0541213</ele>
        <time>2022-08-12T07:33:23Z</time>
      </trkpt>
      <trkpt lat="44.62044" lon="0.80933">
        <ele>159.9771018</ele>
        <time>2022-08-12T07:33:25Z</time>
      </trkpt>
      <trkpt lat="44.62052" lon="0.80929">
        <ele>159.726154</ele>
        <time>2022-08-12T07:33:27Z</time>
      </trkpt>
      <trkpt lat="44.62061" lon="0.80926">
        <ele>159.3504651</ele>
        <time>2022-08-12T07:33:29Z</time>
      </trkpt>
      <trkpt lat="44.62071" lon="0.80923">
        <ele>158.2951823</ele>
        <time>2022-08-12T07:33:31Z</time>
      </trkpt>
      <trkpt lat="44.62083" lon="0.80919">
        <ele>157.8395874</ele>
        <time>2022-08-12T07:33:33Z</time>
      </trkpt>
      <trkpt lat="44.62097" lon="0.80914">
        <ele>156.6190239</ele>
        <time>2022-08-12T07:33:35Z</time>
      </trkpt>
      <trkpt lat="44.62111" lon="0.8091">
        <ele>155.4377478</ele>
        <time>2022-08-12T07:33:37Z</time>
      </trkpt>
      <trkpt lat="44.62125" lon="0.80905">
        <ele>155.4801818</ele>
        <time>2022-08-12T07:33:39Z</time>
      </trkpt>
      <trkpt lat="44.62139" lon="0.80901">
        <ele>155.6712237</ele>
        <time>2022-08-12T07:33:41Z</time>
      </trkpt>
      <trkpt lat="44.62153" lon="0.80895">
        <ele>156.1117358</ele>
        <time>2022-08-12T07:33:43Z</time>
      </trkpt>
      <trkpt lat="44.62165" lon="0.80889">
        <ele>155.8430375</ele>
        <time>2022-08-12T07:33:45Z</time>
      </trkpt>
      <trkpt lat="44.62177" lon="0.80882">
        <ele>157.0372209</ele>
        <time>2022-08-12T07:33:47Z</time>
      </trkpt>
      <trkpt lat="44.62188" lon="0.80873">
        <ele>157.907905</ele>
        <time>2022-08-12T07:33:49Z</time>
      </trkpt>
      <trkpt lat="44.62196" lon="0.80866">
        <ele>158.1546158</ele>
        <time>2022-08-12T07:33:51Z</time>
      </trkpt>
      <trkpt lat="44.62204" lon="0.80857">
        <ele>158.2802802</ele>
        <time>2022-08-12T07:33:53Z</time>
      </trkpt>
      <trkpt lat="44.62209" lon="0.8085">
        <ele>159.9096599</ele>
        <time>2022-08-12T07:33:55Z</time>
      </trkpt>
      <trkpt lat="44.62214" lon="0.80844">
        <ele>159.9676082</ele>
        <time>2022-08-12T07:33:57Z</time>
      </trkpt>
      <trkpt lat="44.62218" lon="0.80838">
        <ele>161.0256244</ele>
        <time>2022-08-12T07:33:59Z</time>
      </trkpt>
      <trkpt lat="44.62221" lon="0.80833">
        <ele>161.1064905</ele>
        <time>2022-08-12T07:34:01Z</time>
      </trkpt>
      <trkpt lat="44.62223" lon="0.80828">
        <ele>161.1984489</ele>
        <time>2022-08-12T07:34:03Z</time>
      </trkpt>
      <trkpt lat="44.62226" lon="0.80824">
        <ele>161.6872963</ele>
        <time>2022-08-12T07:34:05Z</time>
      </trkpt>
      <trkpt lat="44.62229" lon="0.8082">
        <ele>161.7083993</ele>
        <time>2022-08-12T07:34:07Z</time>
      </trkpt>
      <trkpt lat="44.62232" lon="0.80815">
        <ele>161.894274</ele>
        <time>2022-08-12T07:34:09Z</time>
      </trkpt>
      <trkpt lat="44.62235" lon="0.80812">
        <ele>162.2480743</ele>
        <time>2022-08-12T07:34:11Z</time>
      </trkpt>
      <trkpt lat="44.62238" lon="0.80808">
        <ele>162.4931435</ele>
        <time>2022-08-12T07:34:13Z</time>
      </trkpt>
      <trkpt lat="44.6224" lon="0.80803">
        <ele>162.6340676</ele>
        <time>2022-08-12T07:34:15Z</time>
      </trkpt>
      <trkpt lat="44.62243" lon="0.808">
        <ele>162.2346382</ele>
        <time>2022-08-12T07:34:17Z</time>
      </trkpt>
      <trkpt lat="44.62245" lon="0.80795">
        <ele>162.9715517</ele>
        <time>2022-08-12T07:34:19Z</time>
      </trkpt>
      <trkpt lat="44.62248" lon="0.80793">
        <ele>162.5723021</ele>
        <time>2022-08-12T07:34:21Z</time>
      </trkpt>
      <trkpt lat="44.62251" lon="0.80788">
        <ele>162.6674452</ele>
        <time>2022-08-12T07:34:23Z</time>
      </trkpt>
      <trkpt lat="44.62254" lon="0.80785">
        <ele>163.39636</ele>
        <time>2022-08-12T07:34:25Z</time>
      </trkpt>
      <trkpt lat="44.62257" lon="0.8078">
        <ele>164.0785015</ele>
        <time>2022-08-12T07:34:27Z</time>
      </trkpt>
      <trkpt lat="44.62259" lon="0.80776">
        <ele>164.674816</ele>
        <time>2022-08-12T07:34:29Z</time>
      </trkpt>
      <trkpt lat="44.62262" lon="0.80773">
        <ele>164.2139488</ele>
        <time>2022-08-12T07:34:31Z</time>
      </trkpt>
      <trkpt lat="44.62265" lon="0.80768">
        <ele>165.0285196</ele>
        <time>2022-08-12T07:34:33Z</time>
      </trkpt>
      <trkpt lat="44.62268" lon="0.80764">
        <ele>165.1090408</ele>
        <time>2022-08-12T07:34:35Z</time>
      </trkpt>
      <trkpt lat="44.62271" lon="0.80759">
        <ele>165.8316277</ele>
        <time>2022-08-12T07:34:37Z</time>
      </trkpt>
      <trkpt lat="44.62274" lon="0.80755">
        <ele>166.3508534</ele>
        <time>2022-08-12T07:34:39Z</time>
      </trkpt>
      <trkpt lat="44.62276" lon="0.80751">
        <ele>166.1262246</ele>
        <time>2022-08-12T07:34:41Z</time>
      </trkpt>
      <trkpt lat="44.62279" lon="0.80746">
        <ele>166.965648</ele>
        <time>2022-08-12T07:34:43Z</time>
      </trkpt>
      <trkpt lat="44.62282" lon="0.80742">
        <ele>167.4665176</ele>
        <time>2022-08-12T07:34:45Z</time>
      </trkpt>
      <trkpt lat="44.62285" lon="0.80738">
        <ele>167.4427049</ele>
        <time>2022-08-12T07:34:47Z</time>
      </trkpt>
      <trkpt lat="44.62288" lon="0.80733">
        <ele>167.5930125</ele>
        <time>2022-08-12T07:34:49Z</time>
      </trkpt>
      <trkpt lat="44.62291" lon="0.80729">
        <ele>168.3781832</ele>
        <time>2022-08-12T07:34:51Z</time>
      </trkpt>
      <trkpt lat="44.62294" lon="0.80725">
        <ele>168.9188207</ele>
        <time>2022-08-12T07:34:53Z</time>
      </trkpt>
      <trkpt lat="44.62297" lon="0.80721">
        <ele>169.6094583</ele>
        <time>2022-08-12T07:34:55Z</time>
      </trkpt>
      <trkpt lat="44.62299" lon="0.80717">
        <ele>169.4714896</ele>
        <time>2022-08-12T07:34:57Z</time>
      </trkpt>
      <trkpt lat="44.62302" lon="0.80714">
        <ele>169.3745912</ele>
        <time>2022-08-12T07:34:59Z</time>
      </trkpt>
      <trkpt lat="44.62305" lon="0.8071">
        <ele>169.7769152</ele>
        <time>2022-08-12T07:35:01Z</time>
      </trkpt>
      <trkpt lat="44.62308" lon="0.80707">
        <ele>169.9950576</ele>
        <time>2022-08-12T07:35:03Z</time>
      </trkpt>
      <trkpt lat="44.6231" lon="0.80703">
        <ele>170.7330305</ele>
        <time>2022-08-12T07:35:05Z</time>
      </trkpt>
      <trkpt lat="44.62313" lon="0.80699">
        <ele>170.3398534</ele>
        <time>2022-08-12T07:35:07Z</time>
      </trkpt>
      <trkpt lat="44.62316" lon="0.80696">
        <ele>170.3383121</ele>
        <time>2022-08-12T07:35:09Z</time>
      </trkpt>
      <trkpt lat="44.62319" lon="0.80692">
        <ele>170.5062092</ele>
        <time>2022-08-12T07:35:11Z</time>
      </trkpt>
      <trkpt lat="44.62322" lon="0.80689">
        <ele>170.2454005</ele>
        <time>2022-08-12T07:35:13Z</time>
      </trkpt>
      <trkpt lat="44.62326" lon="0.80685">
        <ele>169.7060415</ele>
        <time>2022-08-12T07:35:15Z</time>
      </trkpt>
      <trkpt lat="44.62329" lon="0.8068">
        <ele>169.7188833</ele>
        <time>2022-08-12T07:35:17Z</time>
      </trkpt>
      <trkpt lat="44.62334" lon="0.80675">
        <ele>168.954211</ele>
        <time>2022-08-12T07:35:19Z</time>
      </trkpt>
      <trkpt lat="44.62337" lon="0.80671">
        <ele>169.0619704</ele>
        <time>2022-08-12T07:35:21Z</time>
      </trkpt>
      <trkpt lat="44.62341" lon="0.80667">
        <ele>168.6320754</ele>
        <time>2022-08-12T07:35:23Z</time>
      </trkpt>
      <trkpt lat="44.62345" lon="0.80663">
        <ele>168.8915959</ele>
        <time>2022-08-12T07:35:25Z</time>
      </trkpt>
      <trkpt lat="44.62348" lon="0.80658">
        <ele>168.7640038</ele>
        <time>2022-08-12T07:35:27Z</time>
      </trkpt>
      <trkpt lat="44.62353" lon="0.80653">
        <ele>168.9176951</ele>
        <time>2022-08-12T07:35:29Z</time>
      </trkpt>
      <trkpt lat="44.62358" lon="0.80648">
        <ele>168.6762808</ele>
        <time>2022-08-12T07:35:31Z</time>
      </trkpt>
      <trkpt lat="44.62362" lon="0.80642">
        <ele>168.4831316</ele>
        <time>2022-08-12T07:35:33Z</time>
      </trkpt>
      <trkpt lat="44.62366" lon="0.80638">
        <ele>168.6625734</ele>
        <time>2022-08-12T07:35:35Z</time>
      </trkpt>
      <trkpt lat="44.62369" lon="0.80633">
        <ele>169.0694088</ele>
        <time>2022-08-12T07:35:37Z</time>
      </trkpt>
      <trkpt lat="44.62374" lon="0.80628">
        <ele>169.3956804</ele>
        <time>2022-08-12T07:35:39Z</time>
      </trkpt>
      <trkpt lat="44.62379" lon="0.80623">
        <ele>169.637983</ele>
        <time>2022-08-12T07:35:41Z</time>
      </trkpt>
      <trkpt lat="44.62383" lon="0.80617">
        <ele>169.4991232</ele>
        <time>2022-08-12T07:35:43Z</time>
      </trkpt>
      <trkpt lat="44.62387" lon="0.80613">
        <ele>169.2059026</ele>
        <time>2022-08-12T07:35:45Z</time>
      </trkpt>
      <trkpt lat="44.62391" lon="0.80607">
        <ele>169.4112051</ele>
        <time>2022-08-12T07:35:47Z</time>
      </trkpt>
      <trkpt lat="44.62396" lon="0.80603">
        <ele>169.5174566</ele>
        <time>2022-08-12T07:35:49Z</time>
      </trkpt>
      <trkpt lat="44.624" lon="0.80596">
        <ele>169.3805889</ele>
        <time>2022-08-12T07:35:51Z</time>
      </trkpt>
      <trkpt lat="44.62404" lon="0.80591">
        <ele>169.4551154</ele>
        <time>2022-08-12T07:35:53Z</time>
      </trkpt>
      <trkpt lat="44.62408" lon="0.80586">
        <ele>169.7654758</ele>
        <time>2022-08-12T07:35:55Z</time>
      </trkpt>
      <trkpt lat="44.62412" lon="0.80581">
        <ele>169.3702492</ele>
        <time>2022-08-12T07:35:57Z</time>
      </trkpt>
      <trkpt lat="44.62416" lon="0.80575">
        <ele>169.2507854</ele>
        <time>2022-08-12T07:35:59Z</time>
      </trkpt>
      <trkpt lat="44.62419" lon="0.8057">
        <ele>169.4809997</ele>
        <time>2022-08-12T07:36:01Z</time>
      </trkpt>
      <trkpt lat="44.62422" lon="0.80562">
        <ele>169.1960952</ele>
        <time>2022-08-12T07:36:03Z</time>
      </trkpt>
      <trkpt lat="44.62425" lon="0.80555">
        <ele>169.3132016</ele>
        <time>2022-08-12T07:36:05Z</time>
      </trkpt>
      <trkpt lat="44.62428" lon="0.80547">
        <ele>168.7469047</ele>
        <time>2022-08-12T07:36:07Z</time>
      </trkpt>
      <trkpt lat="44.6243" lon="0.80538">
        <ele>168.3232028</ele>
        <time>2022-08-12T07:36:09Z</time>
      </trkpt>
      <trkpt lat="44.62433" lon="0.80528">
        <ele>167.9722035</ele>
        <time>2022-08-12T07:36:11Z</time>
      </trkpt>
      <trkpt lat="44.62435" lon="0.80516">
        <ele>167.56776</ele>
        <time>2022-08-12T07:36:13Z</time>
      </trkpt>
      <trkpt lat="44.62436" lon="0.80504">
        <ele>166.786969</ele>
        <time>2022-08-12T07:36:15Z</time>
      </trkpt>
      <trkpt lat="44.62438" lon="0.80493">
        <ele>166.5371935</ele>
        <time>2022-08-12T07:36:17Z</time>
      </trkpt>
      <trkpt lat="44.62438" lon="0.80479">
        <ele>166.0813502</ele>
        <time>2022-08-12T07:36:19Z</time>
      </trkpt>
      <trkpt lat="44.62439" lon="0.80466">
        <ele>166.1205132</ele>
        <time>2022-08-12T07:36:21Z</time>
      </trkpt>
      <trkpt lat="44.6244" lon="0.80451">
        <ele>165.8608568</ele>
        <time>2022-08-12T07:36:23Z</time>
      </trkpt>
      <trkpt lat="44.62441" lon="0.80437">
        <ele>165.184351</ele>
        <time>2022-08-12T07:36:25Z</time>
      </trkpt>
      <trkpt lat="44.62441" lon="0.80422">
        <ele>165.7781796</ele>
        <time>2022-08-12T07:36:27Z</time>
      </trkpt>
      <trkpt lat="44.62442" lon="0.80409">
        <ele>165.8276472</ele>
        <time>2022-08-12T07:36:29Z</time>
      </trkpt>
      <trkpt lat="44.62441" lon="0.80395">
        <ele>166.4844201</ele>
        <time>2022-08-12T07:36:31Z</time>
      </trkpt>
      <trkpt lat="44.62439" lon="0.80382">
        <ele>167.0610993</ele>
        <time>2022-08-12T07:36:33Z</time>
      </trkpt>
      <trkpt lat="44.62438" lon="0.80369">
        <ele>167.2948693</ele>
        <time>2022-08-12T07:36:35Z</time>
      </trkpt>
      <trkpt lat="44.62435" lon="0.80358">
        <ele>167.2406583</ele>
        <time>2022-08-12T07:36:37Z</time>
      </trkpt>
      <trkpt lat="44.62432" lon="0.80347">
        <ele>167.2600684</ele>
        <time>2022-08-12T07:36:39Z</time>
      </trkpt>
      <trkpt lat="44.62429" lon="0.80337">
        <ele>167.5538675</ele>
        <time>2022-08-12T07:36:41Z</time>
      </trkpt>
      <trkpt lat="44.62426" lon="0.80326">
        <ele>167.3896942</ele>
        <time>2022-08-12T07:36:43Z</time>
      </trkpt>
      <trkpt lat="44.62423" lon="0.80316">
        <ele>167.3649677</ele>
        <time>2022-08-12T07:36:45Z</time>
      </trkpt>
      <trkpt lat="44.62419" lon="0.80306">
        <ele>167.8276624</ele>
        <time>2022-08-12T07:36:47Z</time>
      </trkpt>
      <trkpt lat="44.62417" lon="0.80296">
        <ele>167.7110961</ele>
        <time>2022-08-12T07:36:49Z</time>
      </trkpt>
      <trkpt lat="44.62414" lon="0.80286">
        <ele>166.8961089</ele>
        <time>2022-08-12T07:36:51Z</time>
      </trkpt>
      <trkpt lat="44.62411" lon="0.80277">
        <ele>166.9494705</ele>
        <time>2022-08-12T07:36:53Z</time>
      </trkpt>
      <trkpt lat="44.62408" lon="0.80266">
        <ele>166.7958486</ele>
        <time>2022-08-12T07:36:55Z</time>
      </trkpt>
      <trkpt lat="44.62406" lon="0.80256">
        <ele>166.7138419</ele>
        <time>2022-08-12T07:36:57Z</time>
      </trkpt>
      <trkpt lat="44.62402" lon="0.80246">
        <ele>166.0882644</ele>
        <time>2022-08-12T07:36:59Z</time>
      </trkpt>
      <trkpt lat="44.624" lon="0.80236">
        <ele>166.4713548</ele>
        <time>2022-08-12T07:37:01Z</time>
      </trkpt>
      <trkpt lat="44.62396" lon="0.80226">
        <ele>166.3140441</ele>
        <time>2022-08-12T07:37:03Z</time>
      </trkpt>
      <trkpt lat="44.62394" lon="0.80216">
        <ele>166.2109831</ele>
        <time>2022-08-12T07:37:05Z</time>
      </trkpt>
      <trkpt lat="44.6239" lon="0.80206">
        <ele>165.928322</ele>
        <time>2022-08-12T07:37:07Z</time>
      </trkpt>
      <trkpt lat="44.62387" lon="0.80195">
        <ele>165.7622961</ele>
        <time>2022-08-12T07:37:09Z</time>
      </trkpt>
      <trkpt lat="44.62384" lon="0.80184">
        <ele>165.5644293</ele>
        <time>2022-08-12T07:37:11Z</time>
      </trkpt>
      <trkpt lat="44.62381" lon="0.80173">
        <ele>165.4237002</ele>
        <time>2022-08-12T07:37:13Z</time>
      </trkpt>
      <trkpt lat="44.62377" lon="0.80161">
        <ele>165.1355646</ele>
        <time>2022-08-12T07:37:15Z</time>
      </trkpt>
      <trkpt lat="44.62374" lon="0.80149">
        <ele>165.2368039</ele>
        <time>2022-08-12T07:37:17Z</time>
      </trkpt>
      <trkpt lat="44.6237" lon="0.80136">
        <ele>164.9393841</ele>
        <time>2022-08-12T07:37:19Z</time>
      </trkpt>
      <trkpt lat="44.62365" lon="0.80123">
        <ele>165.1277428</ele>
        <time>2022-08-12T07:37:21Z</time>
      </trkpt>
      <trkpt lat="44.62361" lon="0.80109">
        <ele>164.9474503</ele>
        <time>2022-08-12T07:37:23Z</time>
      </trkpt>
      <trkpt lat="44.62357" lon="0.80096">
        <ele>164.8148662</ele>
        <time>2022-08-12T07:37:25Z</time>
      </trkpt>
      <trkpt lat="44.62353" lon="0.80081">
        <ele>164.9701555</ele>
        <time>2022-08-12T07:37:27Z</time>
      </trkpt>
      <trkpt lat="44.62349" lon="0.80066">
        <ele>164.5553772</ele>
        <time>2022-08-12T07:37:29Z</time>
      </trkpt>
      <trkpt lat="44.62347" lon="0.8005">
        <ele>164.0831394</ele>
        <time>2022-08-12T07:37:31Z</time>
      </trkpt>
      <trkpt lat="44.62346" lon="0.80033">
        <ele>164.0934132</ele>
        <time>2022-08-12T07:37:33Z</time>
      </trkpt>
      <trkpt lat="44.62348" lon="0.80016">
        <ele>163.8055095</ele>
        <time>2022-08-12T07:37:35Z</time>
      </trkpt>
      <trkpt lat="44.6235" lon="0.80001">
        <ele>163.2666659</ele>
        <time>2022-08-12T07:37:37Z</time>
      </trkpt>
      <trkpt lat="44.62353" lon="0.79985">
        <ele>163.8048144</ele>
        <time>2022-08-12T07:37:39Z</time>
      </trkpt>
      <trkpt lat="44.62358" lon="0.79972">
        <ele>163.0807919</ele>
        <time>2022-08-12T07:37:41Z</time>
      </trkpt>
      <trkpt lat="44.62361" lon="0.79958">
        <ele>164.1038495</ele>
        <time>2022-08-12T07:37:43Z</time>
      </trkpt>
      <trkpt lat="44.62365" lon="0.79946">
        <ele>164.5228055</ele>
        <time>2022-08-12T07:37:45Z</time>
      </trkpt>
      <trkpt lat="44.6237" lon="0.79935">
        <ele>164.2909609</ele>
        <time>2022-08-12T07:37:47Z</time>
      </trkpt>
      <trkpt lat="44.62375" lon="0.79923">
        <ele>164.3751708</ele>
        <time>2022-08-12T07:37:49Z</time>
      </trkpt>
      <trkpt lat="44.6238" lon="0.79912">
        <ele>165.0640101</ele>
        <time>2022-08-12T07:37:51Z</time>
      </trkpt>
      <trkpt lat="44.62385" lon="0.79899">
        <ele>164.418626</ele>
        <time>2022-08-12T07:37:53Z</time>
      </trkpt>
      <trkpt lat="44.62391" lon="0.79887">
        <ele>164.7521307</ele>
        <time>2022-08-12T07:37:55Z</time>
      </trkpt>
      <trkpt lat="44.62396" lon="0.79874">
        <ele>164.3352392</ele>
        <time>2022-08-12T07:37:57Z</time>
      </trkpt>
      <trkpt lat="44.62402" lon="0.79861">
        <ele>165.0831937</ele>
        <time>2022-08-12T07:37:59Z</time>
      </trkpt>
      <trkpt lat="44.62407" lon="0.79847">
        <ele>163.8466833</ele>
        <time>2022-08-12T07:38:01Z</time>
      </trkpt>
      <trkpt lat="44.62413" lon="0.79832">
        <ele>163.6165438</ele>
        <time>2022-08-12T07:38:03Z</time>
      </trkpt>
      <trkpt lat="44.6242" lon="0.79816">
        <ele>163.06004</ele>
        <time>2022-08-12T07:38:05Z</time>
      </trkpt>
      <trkpt lat="44.62426" lon="0.79799">
        <ele>162.4584728</ele>
        <time>2022-08-12T07:38:07Z</time>
      </trkpt>
      <trkpt lat="44.62433" lon="0.79781">
        <ele>162.4540138</ele>
        <time>2022-08-12T07:38:09Z</time>
      </trkpt>
      <trkpt lat="44.6244" lon="0.79762">
        <ele>161.8172975</ele>
        <time>2022-08-12T07:38:11Z</time>
      </trkpt>
      <trkpt lat="44.62449" lon="0.79744">
        <ele>161.544752</ele>
        <time>2022-08-12T07:38:13Z</time>
      </trkpt>
      <trkpt lat="44.62458" lon="0.79726">
        <ele>160.9946633</ele>
        <time>2022-08-12T07:38:15Z</time>
      </trkpt>
      <trkpt lat="44.62468" lon="0.79709">
        <ele>160.5246107</ele>
        <time>2022-08-12T07:38:17Z</time>
      </trkpt>
      <trkpt lat="44.62479" lon="0.79691">
        <ele>159.9309556</ele>
        <time>2022-08-12T07:38:19Z</time>
      </trkpt>
      <trkpt lat="44.6249" lon="0.79674">
        <ele>159.3184124</ele>
        <time>2022-08-12T07:38:21Z</time>
      </trkpt>
      <trkpt lat="44.62502" lon="0.79657">
        <ele>158.8701489</ele>
        <time>2022-08-12T07:38:23Z</time>
      </trkpt>
      <trkpt lat="44.62513" lon="0.79641">
        <ele>158.8166096</ele>
        <time>2022-08-12T07:38:25Z</time>
      </trkpt>
      <trkpt lat="44.62525" lon="0.79626">
        <ele>158.8490269</ele>
        <time>2022-08-12T07:38:27Z</time>
      </trkpt>
      <trkpt lat="44.62537" lon="0.79611">
        <ele>158.0475341</ele>
        <time>2022-08-12T07:38:29Z</time>
      </trkpt>
      <trkpt lat="44.6255" lon="0.79595">
        <ele>157.3562384</ele>
        <time>2022-08-12T07:38:31Z</time>
      </trkpt>
      <trkpt lat="44.62563" lon="0.79579">
        <ele>156.5922308</ele>
        <time>2022-08-12T07:38:33Z</time>
      </trkpt>
      <trkpt lat="44.62575" lon="0.79563">
        <ele>156.1543996</ele>
        <time>2022-08-12T07:38:35Z</time>
      </trkpt>
      <trkpt lat="44.62587" lon="0.79547">
        <ele>155.6013803</ele>
        <time>2022-08-12T07:38:37Z</time>
      </trkpt>
      <trkpt lat="44.62599" lon="0.79532">
        <ele>154.2084618</ele>
        <time>2022-08-12T07:38:39Z</time>
      </trkpt>
      <trkpt lat="44.62612" lon="0.79517">
        <ele>153.5815104</ele>
        <time>2022-08-12T07:38:41Z</time>
      </trkpt>
      <trkpt lat="44.62622" lon="0.79504">
        <ele>151.960312</ele>
        <time>2022-08-12T07:38:43Z</time>
      </trkpt>
      <trkpt lat="44.62632" lon="0.79492">
        <ele>150.7055138</ele>
        <time>2022-08-12T07:38:45Z</time>
      </trkpt>
      <trkpt lat="44.62642" lon="0.79478">
        <ele>149.4007364</ele>
        <time>2022-08-12T07:38:47Z</time>
      </trkpt>
      <trkpt lat="44.62654" lon="0.79462">
        <ele>147.4574563</ele>
        <time>2022-08-12T07:38:49Z</time>
      </trkpt>
      <trkpt lat="44.62668" lon="0.79446">
        <ele>146.0416895</ele>
        <time>2022-08-12T07:38:51Z</time>
      </trkpt>
      <trkpt lat="44.62681" lon="0.79429">
        <ele>145.4529244</ele>
        <time>2022-08-12T07:38:53Z</time>
      </trkpt>
      <trkpt lat="44.62697" lon="0.79415">
        <ele>144.0399476</ele>
        <time>2022-08-12T07:38:55Z</time>
      </trkpt>
      <trkpt lat="44.62713" lon="0.79399">
        <ele>142.8482316</ele>
        <time>2022-08-12T07:38:57Z</time>
      </trkpt>
      <trkpt lat="44.62731" lon="0.79386">
        <ele>141.2595645</ele>
        <time>2022-08-12T07:38:59Z</time>
      </trkpt>
      <trkpt lat="44.62745" lon="0.79371">
        <ele>140.207593</ele>
        <time>2022-08-12T07:39:01Z</time>
      </trkpt>
      <trkpt lat="44.62758" lon="0.79351">
        <ele>138.3159978</ele>
        <time>2022-08-12T07:39:03Z</time>
      </trkpt>
      <trkpt lat="44.62765" lon="0.79325">
        <ele>137.1265015</ele>
        <time>2022-08-12T07:39:05Z</time>
      </trkpt>
      <trkpt lat="44.62769" lon="0.79297">
        <ele>135.3503604</ele>
        <time>2022-08-12T07:39:07Z</time>
      </trkpt>
      <trkpt lat="44.62772" lon="0.79267">
        <ele>133.6595292</ele>
        <time>2022-08-12T07:39:09Z</time>
      </trkpt>
      <trkpt lat="44.62777" lon="0.79238">
        <ele>131.8622069</ele>
        <time>2022-08-12T07:39:11Z</time>
      </trkpt>
      <trkpt lat="44.62785" lon="0.7921">
        <ele>130.885652</ele>
        <time>2022-08-12T07:39:13Z</time>
      </trkpt>
      <trkpt lat="44.62796" lon="0.79181">
        <ele>129.0856246</ele>
        <time>2022-08-12T07:39:15Z</time>
      </trkpt>
      <trkpt lat="44.62807" lon="0.79153">
        <ele>126.9229069</ele>
        <time>2022-08-12T07:39:17Z</time>
      </trkpt>
      <trkpt lat="44.62818" lon="0.79122">
        <ele>124.9547768</ele>
        <time>2022-08-12T07:39:19Z</time>
      </trkpt>
      <trkpt lat="44.6283" lon="0.79091">
        <ele>123.2144075</ele>
        <time>2022-08-12T07:39:21Z</time>
      </trkpt>
      <trkpt lat="44.6284" lon="0.79058">
        <ele>121.7482175</ele>
        <time>2022-08-12T07:39:23Z</time>
      </trkpt>
      <trkpt lat="44.6285" lon="0.79025">
        <ele>119.4744869</ele>
        <time>2022-08-12T07:39:25Z</time>
      </trkpt>
      <trkpt lat="44.62859" lon="0.78991">
        <ele>117.3718039</ele>
        <time>2022-08-12T07:39:27Z</time>
      </trkpt>
      <trkpt lat="44.6287" lon="0.78956">
        <ele>115.1887508</ele>
        <time>2022-08-12T07:39:29Z</time>
      </trkpt>
      <trkpt lat="44.6288" lon="0.78923">
        <ele>114.5793721</ele>
        <time>2022-08-12T07:39:31Z</time>
      </trkpt>
      <trkpt lat="44.62892" lon="0.78891">
        <ele>114.6307634</ele>
        <time>2022-08-12T07:39:33Z</time>
      </trkpt>
      <trkpt lat="44.629" lon="0.78863">
        <ele>116.119362</ele>
        <time>2022-08-12T07:39:35Z</time>
      </trkpt>
      <trkpt lat="44.62904" lon="0.78835">
        <ele>117.1563302</ele>
        <time>2022-08-12T07:39:37Z</time>
      </trkpt>
      <trkpt lat="44.62906" lon="0.78814">
        <ele>118.8050125</ele>
        <time>2022-08-12T07:39:39Z</time>
      </trkpt>
      <trkpt lat="44.62908" lon="0.78795">
        <ele>119.2218349</ele>
        <time>2022-08-12T07:39:41Z</time>
      </trkpt>
      <trkpt lat="44.6291" lon="0.78779">
        <ele>120.1898979</ele>
        <time>2022-08-12T07:39:43Z</time>
      </trkpt>
      <trkpt lat="44.62911" lon="0.78766">
        <ele>121.5841848</ele>
        <time>2022-08-12T07:39:45Z</time>
      </trkpt>
      <trkpt lat="44.62912" lon="0.78756">
        <ele>122.7470191</ele>
        <time>2022-08-12T07:39:47Z</time>
      </trkpt>
      <trkpt lat="44.62912" lon="0.78747">
        <ele>122.8309343</ele>
        <time>2022-08-12T07:39:49Z</time>
      </trkpt>
      <trkpt lat="44.62913" lon="0.7874">
        <ele>123.1340378</ele>
        <time>2022-08-12T07:39:51Z</time>
      </trkpt>
      <trkpt lat="44.62914" lon="0.78733">
        <ele>123.4230389</ele>
        <time>2022-08-12T07:39:53Z</time>
      </trkpt>
      <trkpt lat="44.62914" lon="0.78726">
        <ele>123.8971674</ele>
        <time>2022-08-12T07:39:55Z</time>
      </trkpt>
      <trkpt lat="44.62914" lon="0.7872">
        <ele>123.9260445</ele>
        <time>2022-08-12T07:39:57Z</time>
      </trkpt>
      <trkpt lat="44.62915" lon="0.78714">
        <ele>124.1290511</ele>
        <time>2022-08-12T07:39:59Z</time>
      </trkpt>
      <trkpt lat="44.62916" lon="0.78708">
        <ele>124.0129148</ele>
        <time>2022-08-12T07:40:01Z</time>
      </trkpt>
      <trkpt lat="44.62918" lon="0.78703">
        <ele>124.5115381</ele>
        <time>2022-08-12T07:40:03Z</time>
      </trkpt>
      <trkpt lat="44.62919" lon="0.78698">
        <ele>124.978714</ele>
        <time>2022-08-12T07:40:05Z</time>
      </trkpt>
      <trkpt lat="44.62921" lon="0.78693">
        <ele>125.2044526</ele>
        <time>2022-08-12T07:40:07Z</time>
      </trkpt>
      <trkpt lat="44.62923" lon="0.78687">
        <ele>125.7047691</ele>
        <time>2022-08-12T07:40:09Z</time>
      </trkpt>
      <trkpt lat="44.62925" lon="0.78683">
        <ele>126.8482488</ele>
        <time>2022-08-12T07:40:11Z</time>
      </trkpt>
      <trkpt lat="44.62927" lon="0.78679">
        <ele>127.2791595</ele>
        <time>2022-08-12T07:40:13Z</time>
      </trkpt>
      <trkpt lat="44.62929" lon="0.78675">
        <ele>127.7146098</ele>
        <time>2022-08-12T07:40:15Z</time>
      </trkpt>
      <trkpt lat="44.62932" lon="0.78672">
        <ele>127.9283054</ele>
        <time>2022-08-12T07:40:17Z</time>
      </trkpt>
      <trkpt lat="44.62934" lon="0.78668">
        <ele>128.7782908</ele>
        <time>2022-08-12T07:40:19Z</time>
      </trkpt>
      <trkpt lat="44.62936" lon="0.78664">
        <ele>128.9516385</ele>
        <time>2022-08-12T07:40:21Z</time>
      </trkpt>
      <trkpt lat="44.62938" lon="0.7866">
        <ele>129.1443515</ele>
        <time>2022-08-12T07:40:23Z</time>
      </trkpt>
      <trkpt lat="44.62941" lon="0.78657">
        <ele>129.0444691</ele>
        <time>2022-08-12T07:40:25Z</time>
      </trkpt>
      <trkpt lat="44.62944" lon="0.78653">
        <ele>129.1297029</ele>
        <time>2022-08-12T07:40:27Z</time>
      </trkpt>
      <trkpt lat="44.62946" lon="0.7865">
        <ele>129.5161129</ele>
        <time>2022-08-12T07:40:29Z</time>
      </trkpt>
      <trkpt lat="44.62949" lon="0.78646">
        <ele>129.6894768</ele>
        <time>2022-08-12T07:40:31Z</time>
      </trkpt>
      <trkpt lat="44.62951" lon="0.78643">
        <ele>129.9663654</ele>
        <time>2022-08-12T07:40:33Z</time>
      </trkpt>
      <trkpt lat="44.62954" lon="0.7864">
        <ele>130.2808211</ele>
        <time>2022-08-12T07:40:35Z</time>
      </trkpt>
      <trkpt lat="44.62957" lon="0.78636">
        <ele>130.4022943</ele>
        <time>2022-08-12T07:40:37Z</time>
      </trkpt>
      <trkpt lat="44.62959" lon="0.78633">
        <ele>130.5294172</ele>
        <time>2022-08-12T07:40:39Z</time>
      </trkpt>
      <trkpt lat="44.62962" lon="0.78628">
        <ele>131.0697726</ele>
        <time>2022-08-12T07:40:41Z</time>
      </trkpt>
      <trkpt lat="44.62963" lon="0.78625">
        <ele>131.2068235</ele>
        <time>2022-08-12T07:40:43Z</time>
      </trkpt>
      <trkpt lat="44.62965" lon="0.78621">
        <ele>131.6144452</ele>
        <time>2022-08-12T07:40:45Z</time>
      </trkpt>
      <trkpt lat="44.62967" lon="0.78617">
        <ele>131.8433212</ele>
        <time>2022-08-12T07:40:47Z</time>
      </trkpt>
      <trkpt lat="44.6297" lon="0.78613">
        <ele>132.297394</ele>
        <time>2022-08-12T07:40:49Z</time>
      </trkpt>
      <trkpt lat="44.62972" lon="0.78609">
        <ele>132.3990342</ele>
        <time>2022-08-12T07:40:51Z</time>
      </trkpt>
      <trkpt lat="44.62975" lon="0.78604">
        <ele>133.0135171</ele>
        <time>2022-08-12T07:40:53Z</time>
      </trkpt>
      <trkpt lat="44.62977" lon="0.786">
        <ele>133.1648735</ele>
        <time>2022-08-12T07:40:55Z</time>
      </trkpt>
      <trkpt lat="44.6298" lon="0.78596">
        <ele>133.4489141</ele>
        <time>2022-08-12T07:40:57Z</time>
      </trkpt>
      <trkpt lat="44.62982" lon="0.78591">
        <ele>133.3875192</ele>
        <time>2022-08-12T07:40:59Z</time>
      </trkpt>
      <trkpt lat="44.62985" lon="0.78587">
        <ele>133.4570512</ele>
        <time>2022-08-12T07:41:01Z</time>
      </trkpt>
      <trkpt lat="44.62987" lon="0.78583">
        <ele>133.4915204</ele>
        <time>2022-08-12T07:41:03Z</time>
      </trkpt>
      <trkpt lat="44.62989" lon="0.78579">
        <ele>133.6057924</ele>
        <time>2022-08-12T07:41:05Z</time>
      </trkpt>
      <trkpt lat="44.62992" lon="0.78574">
        <ele>133.6143656</ele>
        <time>2022-08-12T07:41:07Z</time>
      </trkpt>
      <trkpt lat="44.62994" lon="0.7857">
        <ele>133.8175332</ele>
        <time>2022-08-12T07:41:09Z</time>
      </trkpt>
      <trkpt lat="44.62996" lon="0.78565">
        <ele>134.3544751</ele>
        <time>2022-08-12T07:41:11Z</time>
      </trkpt>
      <trkpt lat="44.62999" lon="0.7856">
        <ele>134.701317</ele>
        <time>2022-08-12T07:41:13Z</time>
      </trkpt>
      <trkpt lat="44.63002" lon="0.78555">
        <ele>135.2042845</ele>
        <time>2022-08-12T07:41:15Z</time>
      </trkpt>
      <trkpt lat="44.63004" lon="0.7855">
        <ele>135.2074108</ele>
        <time>2022-08-12T07:41:17Z</time>
      </trkpt>
      <trkpt lat="44.63007" lon="0.78545">
        <ele>135.6536854</ele>
        <time>2022-08-12T07:41:19Z</time>
      </trkpt>
      <trkpt lat="44.63009" lon="0.78541">
        <ele>136.1946884</ele>
        <time>2022-08-12T07:41:21Z</time>
      </trkpt>
      <trkpt lat="44.63013" lon="0.78536">
        <ele>136.2721355</ele>
        <time>2022-08-12T07:41:23Z</time>
      </trkpt>
      <trkpt lat="44.63015" lon="0.78531">
        <ele>136.7316258</ele>
        <time>2022-08-12T07:41:25Z</time>
      </trkpt>
      <trkpt lat="44.63018" lon="0.78526">
        <ele>136.7892149</ele>
        <time>2022-08-12T07:41:27Z</time>
      </trkpt>
      <trkpt lat="44.63021" lon="0.78521">
        <ele>137.0085081</ele>
        <time>2022-08-12T07:41:29Z</time>
      </trkpt>
      <trkpt lat="44.63024" lon="0.78517">
        <ele>137.5957709</ele>
        <time>2022-08-12T07:41:31Z</time>
      </trkpt>
      <trkpt lat="44.63027" lon="0.78512">
        <ele>137.515786</ele>
        <time>2022-08-12T07:41:33Z</time>
      </trkpt>
      <trkpt lat="44.6303" lon="0.78507">
        <ele>137.6584237</ele>
        <time>2022-08-12T07:41:35Z</time>
      </trkpt>
      <trkpt lat="44.63033" lon="0.78502">
        <ele>138.0318547</ele>
        <time>2022-08-12T07:41:37Z</time>
      </trkpt>
      <trkpt lat="44.63037" lon="0.78498">
        <ele>137.954941</ele>
        <time>2022-08-12T07:41:39Z</time>
      </trkpt>
      <trkpt lat="44.6304" lon="0.78493">
        <ele>138.5235548</ele>
        <time>2022-08-12T07:41:41Z</time>
      </trkpt>
      <trkpt lat="44.63043" lon="0.78489">
        <ele>138.2415847</ele>
        <time>2022-08-12T07:41:43Z</time>
      </trkpt>
      <trkpt lat="44.63047" lon="0.78484">
        <ele>138.1461321</ele>
        <time>2022-08-12T07:41:45Z</time>
      </trkpt>
      <trkpt lat="44.6305" lon="0.7848">
        <ele>137.8169944</ele>
        <time>2022-08-12T07:41:47Z</time>
      </trkpt>
      <trkpt lat="44.63054" lon="0.78476">
        <ele>137.5599386</ele>
        <time>2022-08-12T07:41:49Z</time>
      </trkpt>
      <trkpt lat="44.63058" lon="0.78473">
        <ele>137.6649002</ele>
        <time>2022-08-12T07:41:51Z</time>
      </trkpt>
      <trkpt lat="44.63062" lon="0.78469">
        <ele>137.7782128</ele>
        <time>2022-08-12T07:41:53Z</time>
      </trkpt>
      <trkpt lat="44.63067" lon="0.78464">
        <ele>137.9069634</ele>
        <time>2022-08-12T07:41:55Z</time>
      </trkpt>
      <trkpt lat="44.63072" lon="0.78461">
        <ele>138.1162854</ele>
        <time>2022-08-12T07:41:57Z</time>
      </trkpt>
      <trkpt lat="44.63077" lon="0.78457">
        <ele>137.9765295</ele>
        <time>2022-08-12T07:41:59Z</time>
      </trkpt>
      <trkpt lat="44.63082" lon="0.78453">
        <ele>137.8569978</ele>
        <time>2022-08-12T07:42:01Z</time>
      </trkpt>
      <trkpt lat="44.63088" lon="0.78449">
        <ele>138.1201711</ele>
        <time>2022-08-12T07:42:03Z</time>
      </trkpt>
      <trkpt lat="44.63093" lon="0.78446">
        <ele>138.7429266</ele>
        <time>2022-08-12T07:42:05Z</time>
      </trkpt>
      <trkpt lat="44.63098" lon="0.78443">
        <ele>138.6158295</ele>
        <time>2022-08-12T07:42:07Z</time>
      </trkpt>
      <trkpt lat="44.63104" lon="0.78439">
        <ele>138.68537</ele>
        <time>2022-08-12T07:42:09Z</time>
      </trkpt>
      <trkpt lat="44.63109" lon="0.78436">
        <ele>138.2390624</ele>
        <time>2022-08-12T07:42:11Z</time>
      </trkpt>
      <trkpt lat="44.63114" lon="0.78433">
        <ele>138.4750949</ele>
        <time>2022-08-12T07:42:13Z</time>
      </trkpt>
      <trkpt lat="44.63119" lon="0.78429">
        <ele>138.0278158</ele>
        <time>2022-08-12T07:42:15Z</time>
      </trkpt>
      <trkpt lat="44.63124" lon="0.78426">
        <ele>138.3593392</ele>
        <time>2022-08-12T07:42:17Z</time>
      </trkpt>
      <trkpt lat="44.6313" lon="0.78422">
        <ele>138.5888433</ele>
        <time>2022-08-12T07:42:19Z</time>
      </trkpt>
      <trkpt lat="44.63135" lon="0.78419">
        <ele>139.0186262</ele>
        <time>2022-08-12T07:42:21Z</time>
      </trkpt>
      <trkpt lat="44.6314" lon="0.78414">
        <ele>138.6747598</ele>
        <time>2022-08-12T07:42:23Z</time>
      </trkpt>
      <trkpt lat="44.63144" lon="0.78411">
        <ele>138.822842</ele>
        <time>2022-08-12T07:42:25Z</time>
      </trkpt>
      <trkpt lat="44.6315" lon="0.78408">
        <ele>139.1917536</ele>
        <time>2022-08-12T07:42:27Z</time>
      </trkpt>
      <trkpt lat="44.63154" lon="0.78404">
        <ele>139.3058159</ele>
        <time>2022-08-12T07:42:29Z</time>
      </trkpt>
      <trkpt lat="44.63159" lon="0.784">
        <ele>139.1526047</ele>
        <time>2022-08-12T07:42:31Z</time>
      </trkpt>
      <trkpt lat="44.63164" lon="0.78395">
        <ele>139.2955254</ele>
        <time>2022-08-12T07:42:33Z</time>
      </trkpt>
      <trkpt lat="44.63169" lon="0.78391">
        <ele>139.732691</ele>
        <time>2022-08-12T07:42:35Z</time>
      </trkpt>
      <trkpt lat="44.63174" lon="0.78387">
        <ele>140.0055847</ele>
        <time>2022-08-12T07:42:37Z</time>
      </trkpt>
      <trkpt lat="44.63178" lon="0.78383">
        <ele>140.075718</ele>
        <time>2022-08-12T07:42:39Z</time>
      </trkpt>
      <trkpt lat="44.63182" lon="0.78378">
        <ele>139.9692115</ele>
        <time>2022-08-12T07:42:41Z</time>
      </trkpt>
      <trkpt lat="44.63187" lon="0.78374">
        <ele>140.922875</ele>
        <time>2022-08-12T07:42:43Z</time>
      </trkpt>
      <trkpt lat="44.63191" lon="0.78369">
        <ele>141.452024</ele>
        <time>2022-08-12T07:42:45Z</time>
      </trkpt>
      <trkpt lat="44.63195" lon="0.78364">
        <ele>141.8343778</ele>
        <time>2022-08-12T07:42:47Z</time>
      </trkpt>
      <trkpt lat="44.63199" lon="0.78359">
        <ele>142.0697887</ele>
        <time>2022-08-12T07:42:49Z</time>
      </trkpt>
      <trkpt lat="44.63203" lon="0.78355">
        <ele>142.0780385</ele>
        <time>2022-08-12T07:42:51Z</time>
      </trkpt>
      <trkpt lat="44.63207" lon="0.7835">
        <ele>142.4668215</ele>
        <time>2022-08-12T07:42:53Z</time>
      </trkpt>
      <trkpt lat="44.63212" lon="0.78346">
        <ele>143.2773381</ele>
        <time>2022-08-12T07:42:55Z</time>
      </trkpt>
      <trkpt lat="44.63216" lon="0.7834">
        <ele>143.5084184</ele>
        <time>2022-08-12T07:42:57Z</time>
      </trkpt>
      <trkpt lat="44.63222" lon="0.78334">
        <ele>143.7123216</ele>
        <time>2022-08-12T07:42:59Z</time>
      </trkpt>
      <trkpt lat="44.63227" lon="0.7833">
        <ele>144.0101362</ele>
        <time>2022-08-12T07:43:01Z</time>
      </trkpt>
      <trkpt lat="44.63231" lon="0.78325">
        <ele>144.1650733</ele>
        <time>2022-08-12T07:43:03Z</time>
      </trkpt>
      <trkpt lat="44.63235" lon="0.7832">
        <ele>144.3559975</ele>
        <time>2022-08-12T07:43:05Z</time>
      </trkpt>
      <trkpt lat="44.63239" lon="0.78316">
        <ele>144.7144766</ele>
        <time>2022-08-12T07:43:07Z</time>
      </trkpt>
      <trkpt lat="44.63243" lon="0.78311">
        <ele>144.9806533</ele>
        <time>2022-08-12T07:43:09Z</time>
      </trkpt>
      <trkpt lat="44.63246" lon="0.78307">
        <ele>144.976613</ele>
        <time>2022-08-12T07:43:11Z</time>
      </trkpt>
      <trkpt lat="44.63251" lon="0.78303">
        <ele>146.0600204</ele>
        <time>2022-08-12T07:43:13Z</time>
      </trkpt>
      <trkpt lat="44.63255" lon="0.78299">
        <ele>146.0062655</ele>
        <time>2022-08-12T07:43:15Z</time>
      </trkpt>
      <trkpt lat="44.63258" lon="0.78294">
        <ele>146.3776729</ele>
        <time>2022-08-12T07:43:17Z</time>
      </trkpt>
      <trkpt lat="44.63262" lon="0.7829">
        <ele>146.3822395</ele>
        <time>2022-08-12T07:43:19Z</time>
      </trkpt>
      <trkpt lat="44.63266" lon="0.78285">
        <ele>146.3772759</ele>
        <time>2022-08-12T07:43:21Z</time>
      </trkpt>
      <trkpt lat="44.6327" lon="0.78281">
        <ele>146.7084547</ele>
        <time>2022-08-12T07:43:23Z</time>
      </trkpt>
      <trkpt lat="44.63274" lon="0.78277">
        <ele>146.809754</ele>
        <time>2022-08-12T07:43:25Z</time>
      </trkpt>
      <trkpt lat="44.63278" lon="0.78273">
        <ele>146.9853073</ele>
        <time>2022-08-12T07:43:27Z</time>
      </trkpt>
      <trkpt lat="44.63282" lon="0.78269">
        <ele>147.2587484</ele>
        <time>2022-08-12T07:43:29Z</time>
      </trkpt>
      <trkpt lat="44.63286" lon="0.78265">
        <ele>147.1835458</ele>
        <time>2022-08-12T07:43:31Z</time>
      </trkpt>
      <trkpt lat="44.6329" lon="0.7826">
        <ele>147.4199843</ele>
        <time>2022-08-12T07:43:33Z</time>
      </trkpt>
      <trkpt lat="44.63293" lon="0.78256">
        <ele>147.4741466</ele>
        <time>2022-08-12T07:43:35Z</time>
      </trkpt>
      <trkpt lat="44.63297" lon="0.78252">
        <ele>147.7769588</ele>
        <time>2022-08-12T07:43:37Z</time>
      </trkpt>
      <trkpt lat="44.633" lon="0.78248">
        <ele>148.2866558</ele>
        <time>2022-08-12T07:43:39Z</time>
      </trkpt>
      <trkpt lat="44.63303" lon="0.78244">
        <ele>148.5624057</ele>
        <time>2022-08-12T07:43:41Z</time>
      </trkpt>
      <trkpt lat="44.63308" lon="0.7824">
        <ele>148.9938712</ele>
        <time>2022-08-12T07:43:43Z</time>
      </trkpt>
      <trkpt lat="44.63312" lon="0.78236">
        <ele>148.8608374</ele>
        <time>2022-08-12T07:43:45Z</time>
      </trkpt>
      <trkpt lat="44.63315" lon="0.78232">
        <ele>148.9873612</ele>
        <time>2022-08-12T07:43:47Z</time>
      </trkpt>
      <trkpt lat="44.63319" lon="0.78228">
        <ele>148.9275028</ele>
        <time>2022-08-12T07:43:49Z</time>
      </trkpt>
      <trkpt lat="44.63323" lon="0.78224">
        <ele>149.284841</ele>
        <time>2022-08-12T07:43:51Z</time>
      </trkpt>
      <trkpt lat="44.63326" lon="0.78221">
        <ele>149.1958703</ele>
        <time>2022-08-12T07:43:53Z</time>
      </trkpt>
      <trkpt lat="44.63327" lon="0.78219">
        <ele>149.5117024</ele>
        <time>2022-08-12T07:43:55Z</time>
      </trkpt>
      <trkpt lat="44.63327" lon="0.7822">
        <ele>149.5857354</ele>
        <time>2022-08-12T07:43:57Z</time>
      </trkpt>
      <trkpt lat="44.63327" lon="0.7822">
        <ele>149.5669704</ele>
        <time>2022-08-12T07:43:59Z</time>
      </trkpt>
      <trkpt lat="44.63327" lon="0.7822">
        <ele>149.8136129</ele>
        <time>2022-08-12T07:44:01Z</time>
      </trkpt>
      <trkpt lat="44.63327" lon="0.7822">
        <ele>149.9101218</ele>
        <time>2022-08-12T07:44:03Z</time>
      </trkpt>
      <trkpt lat="44.63327" lon="0.7822">
        <ele>149.9101218</ele>
        <time>2022-08-12T07:44:07Z</time>
      </trkpt>
      <trkpt lat="44.63327" lon="0.7822">
        <ele>149.9101218</ele>
        <time>2022-08-12T07:44:11Z</time>
      </trkpt>
      <trkpt lat="44.63327" lon="0.7822">
        <ele>149.9101218</ele>
        <time>2022-08-12T07:44:15Z</time>
      </trkpt>
      <trkpt lat="44.63327" lon="0.7822">
        <ele>149.9101218</ele>
        <time>2022-08-12T07:44:19Z</time>
      </trkpt>
      <trkpt lat="44.63327" lon="0.78219">
        <ele>145.6869332</ele>
        <time>2022-08-12T07:44:23Z</time>
      </trkpt>
      <trkpt lat="44.63327" lon="0.78219">
        <ele>146.3582451</ele>
        <time>2022-08-12T07:44:27Z</time>
      </trkpt>
      <trkpt lat="44.63327" lon="0.78219">
        <ele>146.3582451</ele>
        <time>2022-08-12T07:44:31Z</time>
      </trkpt>
      <trkpt lat="44.63327" lon="0.78219">
        <ele>146.3582451</ele>
        <time>2022-08-12T07:44:35Z</time>
      </trkpt>
      <trkpt lat="44.63326" lon="0.7822">
        <ele>147.0266299</ele>
        <time>2022-08-12T07:44:37Z</time>
      </trkpt>
      <trkpt lat="44.63326" lon="0.7822">
        <ele>147.3215252</ele>
        <time>2022-08-12T07:44:39Z</time>
      </trkpt>
      <trkpt lat="44.63326" lon="0.7822">
        <ele>147.7088395</ele>
        <time>2022-08-12T07:44:41Z</time>
      </trkpt>
      <trkpt lat="44.63326" lon="0.7822">
        <ele>147.2553131</ele>
        <time>2022-08-12T07:44:43Z</time>
      </trkpt>
      <trkpt lat="44.63326" lon="0.7822">
        <ele>147.3199261</ele>
        <time>2022-08-12T07:44:45Z</time>
      </trkpt>
      <trkpt lat="44.63326" lon="0.7822">
        <ele>147.5361093</ele>
        <time>2022-08-12T07:44:47Z</time>
      </trkpt>
      <trkpt lat="44.63326" lon="0.7822">
        <ele>147.3249412</ele>
        <time>2022-08-12T07:44:49Z</time>
      </trkpt>
      <trkpt lat="44.63326" lon="0.7822">
        <ele>147.2652553</ele>
        <time>2022-08-12T07:44:51Z</time>
      </trkpt>
      <trkpt lat="44.63326" lon="0.7822">
        <ele>147.2462039</ele>
        <time>2022-08-12T07:44:53Z</time>
      </trkpt>
      <trkpt lat="44.63326" lon="0.7822">
        <ele>147.2099677</ele>
        <time>2022-08-12T07:44:55Z</time>
      </trkpt>
      <trkpt lat="44.63327" lon="0.7822">
        <ele>147.4638509</ele>
        <time>2022-08-12T07:44:57Z</time>
      </trkpt>
      <trkpt lat="44.63327" lon="0.7822">
        <ele>147.9090771</ele>
        <time>2022-08-12T07:44:59Z</time>
      </trkpt>
      <trkpt lat="44.63327" lon="0.7822">
        <ele>148.2236084</ele>
        <time>2022-08-12T07:45:01Z</time>
      </trkpt>
      <trkpt lat="44.63327" lon="0.7822">
        <ele>148.2196941</ele>
        <time>2022-08-12T07:45:03Z</time>
      </trkpt>
      <trkpt lat="44.63326" lon="0.7822">
        <ele>148.1798138</ele>
        <time>2022-08-12T07:45:05Z</time>
      </trkpt>
      <trkpt lat="44.63326" lon="0.7822">
        <ele>148.3334483</ele>
        <time>2022-08-12T07:45:07Z</time>
      </trkpt>
      <trkpt lat="44.63327" lon="0.7822">
        <ele>148.7623131</ele>
        <time>2022-08-12T07:45:09Z</time>
      </trkpt>
      <trkpt lat="44.63329" lon="0.78217">
        <ele>148.6580038</ele>
        <time>2022-08-12T07:45:11Z</time>
      </trkpt>
      <trkpt lat="44.63332" lon="0.78214">
        <ele>148.7288991</ele>
        <time>2022-08-12T07:45:13Z</time>
      </trkpt>
      <trkpt lat="44.63336" lon="0.7821">
        <ele>148.7482162</ele>
        <time>2022-08-12T07:45:15Z</time>
      </trkpt>
      <trkpt lat="44.63339" lon="0.78206">
        <ele>148.7405391</ele>
        <time>2022-08-12T07:45:17Z</time>
      </trkpt>
      <trkpt lat="44.63341" lon="0.78201">
        <ele>148.9411861</ele>
        <time>2022-08-12T07:45:19Z</time>
      </trkpt>
      <trkpt lat="44.63344" lon="0.78197">
        <ele>148.7449745</ele>
        <time>2022-08-12T07:45:21Z</time>
      </trkpt>
      <trkpt lat="44.63346" lon="0.7819">
        <ele>148.765332</ele>
        <time>2022-08-12T07:45:23Z</time>
      </trkpt>
      <trkpt lat="44.63347" lon="0.78184">
        <ele>148.0503907</ele>
        <time>2022-08-12T07:45:25Z</time>
      </trkpt>
      <trkpt lat="44.6335" lon="0.78177">
        <ele>147.5396389</ele>
        <time>2022-08-12T07:45:27Z</time>
      </trkpt>
      <trkpt lat="44.63351" lon="0.78167">
        <ele>147.2599845</ele>
        <time>2022-08-12T07:45:29Z</time>
      </trkpt>
      <trkpt lat="44.63352" lon="0.78153">
        <ele>146.3236996</ele>
        <time>2022-08-12T07:45:31Z</time>
      </trkpt>
      <trkpt lat="44.63353" lon="0.78137">
        <ele>145.2595101</ele>
        <time>2022-08-12T07:45:33Z</time>
      </trkpt>
      <trkpt lat="44.63355" lon="0.78119">
        <ele>144.412591</ele>
        <time>2022-08-12T07:45:35Z</time>
      </trkpt>
      <trkpt lat="44.63362" lon="0.781">
        <ele>143.6624907</ele>
        <time>2022-08-12T07:45:37Z</time>
      </trkpt>
      <trkpt lat="44.63371" lon="0.78083">
        <ele>142.7109911</ele>
        <time>2022-08-12T07:45:39Z</time>
      </trkpt>
      <trkpt lat="44.63379" lon="0.78066">
        <ele>141.1453878</ele>
        <time>2022-08-12T07:45:41Z</time>
      </trkpt>
      <trkpt lat="44.63384" lon="0.78046">
        <ele>139.7622781</ele>
        <time>2022-08-12T07:45:43Z</time>
      </trkpt>
      <trkpt lat="44.63384" lon="0.78024">
        <ele>138.7597109</ele>
        <time>2022-08-12T07:45:45Z</time>
      </trkpt>
      <trkpt lat="44.63381" lon="0.78001">
        <ele>137.494267</ele>
        <time>2022-08-12T07:45:47Z</time>
      </trkpt>
      <trkpt lat="44.6338" lon="0.77978">
        <ele>136.3390269</ele>
        <time>2022-08-12T07:45:49Z</time>
      </trkpt>
      <trkpt lat="44.63381" lon="0.77954">
        <ele>134.7940839</ele>
        <time>2022-08-12T07:45:51Z</time>
      </trkpt>
      <trkpt lat="44.63385" lon="0.77929">
        <ele>133.6933942</ele>
        <time>2022-08-12T07:45:53Z</time>
      </trkpt>
      <trkpt lat="44.63388" lon="0.77909">
        <ele>132.6012616</ele>
        <time>2022-08-12T07:45:55Z</time>
      </trkpt>
      <trkpt lat="44.63393" lon="0.7789">
        <ele>131.900936</ele>
        <time>2022-08-12T07:45:57Z</time>
      </trkpt>
      <trkpt lat="44.63396" lon="0.77874">
        <ele>130.9676589</ele>
        <time>2022-08-12T07:45:59Z</time>
      </trkpt>
      <trkpt lat="44.63398" lon="0.7786">
        <ele>130.4732646</ele>
        <time>2022-08-12T07:46:01Z</time>
      </trkpt>
      <trkpt lat="44.63401" lon="0.77846">
        <ele>129.7641116</ele>
        <time>2022-08-12T07:46:03Z</time>
      </trkpt>
      <trkpt lat="44.63404" lon="0.77833">
        <ele>129.6117826</ele>
        <time>2022-08-12T07:46:05Z</time>
      </trkpt>
      <trkpt lat="44.63406" lon="0.77821">
        <ele>129.6462834</ele>
        <time>2022-08-12T07:46:07Z</time>
      </trkpt>
      <trkpt lat="44.63409" lon="0.7781">
        <ele>128.9424586</ele>
        <time>2022-08-12T07:46:09Z</time>
      </trkpt>
      <trkpt lat="44.63413" lon="0.77797">
        <ele>128.542807</ele>
        <time>2022-08-12T07:46:11Z</time>
      </trkpt>
      <trkpt lat="44.63417" lon="0.77783">
        <ele>127.5233173</ele>
        <time>2022-08-12T07:46:13Z</time>
      </trkpt>
      <trkpt lat="44.63421" lon="0.77767">
        <ele>126.7740797</ele>
        <time>2022-08-12T07:46:15Z</time>
      </trkpt>
      <trkpt lat="44.63426" lon="0.77752">
        <ele>125.9486769</ele>
        <time>2022-08-12T07:46:17Z</time>
      </trkpt>
      <trkpt lat="44.63432" lon="0.77734">
        <ele>124.8847087</ele>
        <time>2022-08-12T07:46:19Z</time>
      </trkpt>
      <trkpt lat="44.6344" lon="0.77716">
        <ele>123.6236954</ele>
        <time>2022-08-12T07:46:21Z</time>
      </trkpt>
      <trkpt lat="44.63448" lon="0.77697">
        <ele>122.4623007</ele>
        <time>2022-08-12T07:46:23Z</time>
      </trkpt>
      <trkpt lat="44.63457" lon="0.77676">
        <ele>121.7603947</ele>
        <time>2022-08-12T07:46:25Z</time>
      </trkpt>
      <trkpt lat="44.63465" lon="0.77654">
        <ele>120.6254139</ele>
        <time>2022-08-12T07:46:27Z</time>
      </trkpt>
      <trkpt lat="44.63473" lon="0.7763">
        <ele>119.447893</ele>
        <time>2022-08-12T07:46:29Z</time>
      </trkpt>
      <trkpt lat="44.6348" lon="0.77605">
        <ele>117.5448363</ele>
        <time>2022-08-12T07:46:31Z</time>
      </trkpt>
      <trkpt lat="44.63487" lon="0.77578">
        <ele>117.3958292</ele>
        <time>2022-08-12T07:46:33Z</time>
      </trkpt>
      <trkpt lat="44.63497" lon="0.77551">
        <ele>116.2302467</ele>
        <time>2022-08-12T07:46:35Z</time>
      </trkpt>
      <trkpt lat="44.63507" lon="0.77525">
        <ele>115.6144661</ele>
        <time>2022-08-12T07:46:37Z</time>
      </trkpt>
      <trkpt lat="44.63516" lon="0.77499">
        <ele>114.5263529</ele>
        <time>2022-08-12T07:46:39Z</time>
      </trkpt>
      <trkpt lat="44.63529" lon="0.77469">
        <ele>113.2305004</ele>
        <time>2022-08-12T07:46:41Z</time>
      </trkpt>
      <trkpt lat="44.63544" lon="0.77437">
        <ele>112.2005029</ele>
        <time>2022-08-12T07:46:43Z</time>
      </trkpt>
      <trkpt lat="44.63546" lon="0.77427">
        <ele>112.4587877</ele>
        <time>2022-08-12T07:46:45Z</time>
      </trkpt>
      <trkpt lat="44.63556" lon="0.77403">
        <ele>112.173356</ele>
        <time>2022-08-12T07:46:47Z</time>
      </trkpt>
      <trkpt lat="44.63566" lon="0.7738">
        <ele>111.5840433</ele>
        <time>2022-08-12T07:46:49Z</time>
      </trkpt>
      <trkpt lat="44.63576" lon="0.77357">
        <ele>111.2096584</ele>
        <time>2022-08-12T07:46:51Z</time>
      </trkpt>
      <trkpt lat="44.63585" lon="0.77336">
        <ele>111.4197491</ele>
        <time>2022-08-12T07:46:53Z</time>
      </trkpt>
      <trkpt lat="44.63595" lon="0.77317">
        <ele>111.2850647</ele>
        <time>2022-08-12T07:46:55Z</time>
      </trkpt>
      <trkpt lat="44.63605" lon="0.77298">
        <ele>111.2309183</ele>
        <time>2022-08-12T07:46:57Z</time>
      </trkpt>
      <trkpt lat="44.63615" lon="0.77281">
        <ele>111.3872707</ele>
        <time>2022-08-12T07:46:59Z</time>
      </trkpt>
      <trkpt lat="44.63624" lon="0.77266">
        <ele>111.1380814</ele>
        <time>2022-08-12T07:47:01Z</time>
      </trkpt>
      <trkpt lat="44.63634" lon="0.77251">
        <ele>111.364905</ele>
        <time>2022-08-12T07:47:03Z</time>
      </trkpt>
      <trkpt lat="44.63643" lon="0.77237">
        <ele>110.9979918</ele>
        <time>2022-08-12T07:47:05Z</time>
      </trkpt>
      <trkpt lat="44.63652" lon="0.77225">
        <ele>110.8990803</ele>
        <time>2022-08-12T07:47:07Z</time>
      </trkpt>
      <trkpt lat="44.63661" lon="0.77211">
        <ele>110.9372351</ele>
        <time>2022-08-12T07:47:09Z</time>
      </trkpt>
      <trkpt lat="44.63669" lon="0.77199">
        <ele>110.3933009</ele>
        <time>2022-08-12T07:47:11Z</time>
      </trkpt>
      <trkpt lat="44.63677" lon="0.77186">
        <ele>110.8114148</ele>
        <time>2022-08-12T07:47:13Z</time>
      </trkpt>
      <trkpt lat="44.63686" lon="0.77174">
        <ele>110.8334584</ele>
        <time>2022-08-12T07:47:15Z</time>
      </trkpt>
      <trkpt lat="44.63693" lon="0.77163">
        <ele>110.8878184</ele>
        <time>2022-08-12T07:47:17Z</time>
      </trkpt>
      <trkpt lat="44.63701" lon="0.77152">
        <ele>110.8386207</ele>
        <time>2022-08-12T07:47:19Z</time>
      </trkpt>
      <trkpt lat="44.63707" lon="0.77141">
        <ele>111.4934309</ele>
        <time>2022-08-12T07:47:21Z</time>
      </trkpt>
      <trkpt lat="44.63712" lon="0.77128">
        <ele>111.130905</ele>
        <time>2022-08-12T07:47:23Z</time>
      </trkpt>
      <trkpt lat="44.63715" lon="0.77114">
        <ele>110.8994064</ele>
        <time>2022-08-12T07:47:25Z</time>
      </trkpt>
      <trkpt lat="44.63717" lon="0.77104">
        <ele>110.7363083</ele>
        <time>2022-08-12T07:47:27Z</time>
      </trkpt>
      <trkpt lat="44.6372" lon="0.77093">
        <ele>110.9255719</ele>
        <time>2022-08-12T07:47:29Z</time>
      </trkpt>
      <trkpt lat="44.63722" lon="0.77082">
        <ele>110.8653471</ele>
        <time>2022-08-12T07:47:31Z</time>
      </trkpt>
      <trkpt lat="44.63724" lon="0.77072">
        <ele>110.8330458</ele>
        <time>2022-08-12T07:47:33Z</time>
      </trkpt>
      <trkpt lat="44.63726" lon="0.77063">
        <ele>111.1327309</ele>
        <time>2022-08-12T07:47:35Z</time>
      </trkpt>
      <trkpt lat="44.63729" lon="0.77052">
        <ele>110.6284027</ele>
        <time>2022-08-12T07:47:37Z</time>
      </trkpt>
      <trkpt lat="44.63731" lon="0.77042">
        <ele>110.4438441</ele>
        <time>2022-08-12T07:47:39Z</time>
      </trkpt>
      <trkpt lat="44.63733" lon="0.77031">
        <ele>110.1330642</ele>
        <time>2022-08-12T07:47:41Z</time>
      </trkpt>
      <trkpt lat="44.63736" lon="0.77021">
        <ele>109.7631732</ele>
        <time>2022-08-12T07:47:43Z</time>
      </trkpt>
      <trkpt lat="44.6374" lon="0.7701">
        <ele>109.5622263</ele>
        <time>2022-08-12T07:47:45Z</time>
      </trkpt>
      <trkpt lat="44.63745" lon="0.76999">
        <ele>109.3198212</ele>
        <time>2022-08-12T07:47:47Z</time>
      </trkpt>
      <trkpt lat="44.6375" lon="0.76989">
        <ele>108.8913217</ele>
        <time>2022-08-12T07:47:49Z</time>
      </trkpt>
      <trkpt lat="44.63755" lon="0.76978">
        <ele>108.3468017</ele>
        <time>2022-08-12T07:47:51Z</time>
      </trkpt>
      <trkpt lat="44.63762" lon="0.76967">
        <ele>108.4126178</ele>
        <time>2022-08-12T07:47:53Z</time>
      </trkpt>
      <trkpt lat="44.63768" lon="0.76957">
        <ele>108.0411189</ele>
        <time>2022-08-12T07:47:55Z</time>
      </trkpt>
      <trkpt lat="44.63774" lon="0.76947">
        <ele>107.5766147</ele>
        <time>2022-08-12T07:47:57Z</time>
      </trkpt>
      <trkpt lat="44.6378" lon="0.76936">
        <ele>106.8205298</ele>
        <time>2022-08-12T07:47:59Z</time>
      </trkpt>
      <trkpt lat="44.63787" lon="0.76926">
        <ele>105.9563791</ele>
        <time>2022-08-12T07:48:01Z</time>
      </trkpt>
      <trkpt lat="44.63794" lon="0.76916">
        <ele>105.3522909</ele>
        <time>2022-08-12T07:48:03Z</time>
      </trkpt>
      <trkpt lat="44.63799" lon="0.76907">
        <ele>105.0302821</ele>
        <time>2022-08-12T07:48:05Z</time>
      </trkpt>
      <trkpt lat="44.63805" lon="0.76897">
        <ele>104.547428</ele>
        <time>2022-08-12T07:48:07Z</time>
      </trkpt>
      <trkpt lat="44.6381" lon="0.76889">
        <ele>104.5617113</ele>
        <time>2022-08-12T07:48:09Z</time>
      </trkpt>
      <trkpt lat="44.63815" lon="0.7688">
        <ele>104.0451494</ele>
        <time>2022-08-12T07:48:11Z</time>
      </trkpt>
      <trkpt lat="44.6382" lon="0.76871">
        <ele>103.8052531</ele>
        <time>2022-08-12T07:48:13Z</time>
      </trkpt>
      <trkpt lat="44.63825" lon="0.76863">
        <ele>103.2741882</ele>
        <time>2022-08-12T07:48:15Z</time>
      </trkpt>
      <trkpt lat="44.6383" lon="0.76855">
        <ele>102.968289</ele>
        <time>2022-08-12T07:48:17Z</time>
      </trkpt>
      <trkpt lat="44.63835" lon="0.76848">
        <ele>102.8370203</ele>
        <time>2022-08-12T07:48:19Z</time>
      </trkpt>
      <trkpt lat="44.6384" lon="0.76849">
        <ele>102.9533387</ele>
        <time>2022-08-12T07:48:21Z</time>
      </trkpt>
      <trkpt lat="44.63842" lon="0.76851">
        <ele>103.284623</ele>
        <time>2022-08-12T07:48:23Z</time>
      </trkpt>
      <trkpt lat="44.63841" lon="0.7685">
        <ele>103.2455901</ele>
        <time>2022-08-12T07:48:25Z</time>
      </trkpt>
      <trkpt lat="44.63842" lon="0.7685">
        <ele>104.0116537</ele>
        <time>2022-08-12T07:48:27Z</time>
      </trkpt>
      <trkpt lat="44.63842" lon="0.76851">
        <ele>103.7178169</ele>
        <time>2022-08-12T07:48:29Z</time>
      </trkpt>
      <trkpt lat="44.63843" lon="0.76851">
        <ele>103.5346917</ele>
        <time>2022-08-12T07:48:31Z</time>
      </trkpt>
      <trkpt lat="44.63843" lon="0.76851">
        <ele>103.425115</ele>
        <time>2022-08-12T07:48:33Z</time>
      </trkpt>
      <trkpt lat="44.63844" lon="0.76852">
        <ele>103.28331</ele>
        <time>2022-08-12T07:48:35Z</time>
      </trkpt>
      <trkpt lat="44.63845" lon="0.76855">
        <ele>103.554237</ele>
        <time>2022-08-12T07:48:37Z</time>
      </trkpt>
      <trkpt lat="44.63843" lon="0.76858">
        <ele>103.8794322</ele>
        <time>2022-08-12T07:48:39Z</time>
      </trkpt>
      <trkpt lat="44.63841" lon="0.76861">
        <ele>104.1463969</ele>
        <time>2022-08-12T07:48:41Z</time>
      </trkpt>
      <trkpt lat="44.6384" lon="0.76866">
        <ele>104.2680444</ele>
        <time>2022-08-12T07:48:43Z</time>
      </trkpt>
      <trkpt lat="44.63839" lon="0.76873">
        <ele>104.7883366</ele>
        <time>2022-08-12T07:48:45Z</time>
      </trkpt>
      <trkpt lat="44.63837" lon="0.76882">
        <ele>104.5527032</ele>
        <time>2022-08-12T07:48:47Z</time>
      </trkpt>
      <trkpt lat="44.63835" lon="0.7689">
        <ele>104.7963426</ele>
        <time>2022-08-12T07:48:49Z</time>
      </trkpt>
      <trkpt lat="44.63834" lon="0.76898">
        <ele>105.2513582</ele>
        <time>2022-08-12T07:48:51Z</time>
      </trkpt>
      <trkpt lat="44.63832" lon="0.76906">
        <ele>105.0770697</ele>
        <time>2022-08-12T07:48:53Z</time>
      </trkpt>
      <trkpt lat="44.63831" lon="0.76913">
        <ele>105.0258688</ele>
        <time>2022-08-12T07:48:55Z</time>
      </trkpt>
      <trkpt lat="44.6383" lon="0.7692">
        <ele>104.7701555</ele>
        <time>2022-08-12T07:48:57Z</time>
      </trkpt>
      <trkpt lat="44.63829" lon="0.76928">
        <ele>104.98205</ele>
        <time>2022-08-12T07:48:59Z</time>
      </trkpt>
      <trkpt lat="44.63828" lon="0.76935">
        <ele>104.6812978</ele>
        <time>2022-08-12T07:49:01Z</time>
      </trkpt>
      <trkpt lat="44.63826" lon="0.76943">
        <ele>105.2129862</ele>
        <time>2022-08-12T07:49:03Z</time>
      </trkpt>
      <trkpt lat="44.63826" lon="0.76951">
        <ele>105.2839497</ele>
        <time>2022-08-12T07:49:05Z</time>
      </trkpt>
      <trkpt lat="44.63825" lon="0.76958">
        <ele>105.5851868</ele>
        <time>2022-08-12T07:49:07Z</time>
      </trkpt>
      <trkpt lat="44.63824" lon="0.76966">
        <ele>105.1740476</ele>
        <time>2022-08-12T07:49:09Z</time>
      </trkpt>
      <trkpt lat="44.63823" lon="0.76972">
        <ele>105.5295948</ele>
        <time>2022-08-12T07:49:11Z</time>
      </trkpt>
      <trkpt lat="44.63823" lon="0.76978">
        <ele>106.0896559</ele>
        <time>2022-08-12T07:49:13Z</time>
      </trkpt>
      <trkpt lat="44.63823" lon="0.76984">
        <ele>106.1939163</ele>
        <time>2022-08-12T07:49:15Z</time>
      </trkpt>
      <trkpt lat="44.63823" lon="0.76987">
        <ele>106.198701</ele>
        <time>2022-08-12T07:49:17Z</time>
      </trkpt>
      <trkpt lat="44.63826" lon="0.76991">
        <ele>106.0507188</ele>
        <time>2022-08-12T07:49:19Z</time>
      </trkpt>
      <trkpt lat="44.6383" lon="0.76993">
        <ele>106.2024394</ele>
        <time>2022-08-12T07:49:21Z</time>
      </trkpt>
      <trkpt lat="44.63833" lon="0.76993">
        <ele>106.253869</ele>
        <time>2022-08-12T07:49:23Z</time>
      </trkpt>
      <trkpt lat="44.63837" lon="0.76992">
        <ele>105.728239</ele>
        <time>2022-08-12T07:49:25Z</time>
      </trkpt>
      <trkpt lat="44.63841" lon="0.76989">
        <ele>105.5770876</ele>
        <time>2022-08-12T07:49:27Z</time>
      </trkpt>
      <trkpt lat="44.63845" lon="0.76989">
        <ele>105.964201</ele>
        <time>2022-08-12T07:49:29Z</time>
      </trkpt>
      <trkpt lat="44.6385" lon="0.76988">
        <ele>105.1963311</ele>
        <time>2022-08-12T07:49:31Z</time>
      </trkpt>
      <trkpt lat="44.63856" lon="0.76986">
        <ele>104.8584157</ele>
        <time>2022-08-12T07:49:33Z</time>
      </trkpt>
      <trkpt lat="44.63861" lon="0.76983">
        <ele>104.7585985</ele>
        <time>2022-08-12T07:49:35Z</time>
      </trkpt>
      <trkpt lat="44.63867" lon="0.76982">
        <ele>104.7682416</ele>
        <time>2022-08-12T07:49:37Z</time>
      </trkpt>
      <trkpt lat="44.63873" lon="0.7698">
        <ele>104.458351</ele>
        <time>2022-08-12T07:49:39Z</time>
      </trkpt>
      <trkpt lat="44.63879" lon="0.76978">
        <ele>103.9998315</ele>
        <time>2022-08-12T07:49:41Z</time>
      </trkpt>
      <trkpt lat="44.63884" lon="0.76977">
        <ele>104.4124723</ele>
        <time>2022-08-12T07:49:43Z</time>
      </trkpt>
      <trkpt lat="44.6389" lon="0.76975">
        <ele>104.2574073</ele>
        <time>2022-08-12T07:49:45Z</time>
      </trkpt>
      <trkpt lat="44.63894" lon="0.76975">
        <ele>103.9224999</ele>
        <time>2022-08-12T07:49:47Z</time>
      </trkpt>
      <trkpt lat="44.63899" lon="0.76971">
        <ele>103.3990947</ele>
        <time>2022-08-12T07:49:49Z</time>
      </trkpt>
      <trkpt lat="44.63902" lon="0.76969">
        <ele>102.713917</ele>
        <time>2022-08-12T07:49:51Z</time>
      </trkpt>
      <trkpt lat="44.63906" lon="0.76968">
        <ele>102.4505495</ele>
        <time>2022-08-12T07:49:53Z</time>
      </trkpt>
      <trkpt lat="44.6391" lon="0.76965">
        <ele>102.6193746</ele>
        <time>2022-08-12T07:49:55Z</time>
      </trkpt>
      <trkpt lat="44.63915" lon="0.76967">
        <ele>102.3447893</ele>
        <time>2022-08-12T07:49:57Z</time>
      </trkpt>
      <trkpt lat="44.6392" lon="0.76969">
        <ele>102.9048015</ele>
        <time>2022-08-12T07:49:59Z</time>
      </trkpt>
      <trkpt lat="44.63922" lon="0.76973">
        <ele>102.2980142</ele>
        <time>2022-08-12T07:50:01Z</time>
      </trkpt>
      <trkpt lat="44.63925" lon="0.76975">
        <ele>102.0731412</ele>
        <time>2022-08-12T07:50:03Z</time>
      </trkpt>
      <trkpt lat="44.63925" lon="0.7698">
        <ele>101.3314738</ele>
        <time>2022-08-12T07:50:05Z</time>
      </trkpt>
      <trkpt lat="44.63924" lon="0.76982">
        <ele>104.0774286</ele>
        <time>2022-08-12T07:50:07Z</time>
      </trkpt>
      <trkpt lat="44.63924" lon="0.76982">
        <ele>104.1098311</ele>
        <time>2022-08-12T07:50:09Z</time>
      </trkpt>
      <trkpt lat="44.63924" lon="0.76982">
        <ele>104.1618867</ele>
        <time>2022-08-12T07:50:11Z</time>
      </trkpt>
      <trkpt lat="44.63925" lon="0.76982">
        <ele>105.1773876</ele>
        <time>2022-08-12T07:50:13Z</time>
      </trkpt>
      <trkpt lat="44.63924" lon="0.76982">
        <ele>105.3560956</ele>
        <time>2022-08-12T07:50:15Z</time>
      </trkpt>
      <trkpt lat="44.63925" lon="0.76983">
        <ele>105.394569</ele>
        <time>2022-08-12T07:50:17Z</time>
      </trkpt>
      <trkpt lat="44.63925" lon="0.76984">
        <ele>105.4600735</ele>
        <time>2022-08-12T07:50:19Z</time>
      </trkpt>
      <trkpt lat="44.63925" lon="0.76984">
        <ele>105.4033786</ele>
        <time>2022-08-12T07:50:21Z</time>
      </trkpt>
      <trkpt lat="44.63925" lon="0.76984">
        <ele>105.216081</ele>
        <time>2022-08-12T07:50:23Z</time>
      </trkpt>
      <trkpt lat="44.63925" lon="0.76984">
        <ele>105.216081</ele>
        <time>2022-08-12T07:50:27Z</time>
      </trkpt>
      <trkpt lat="44.63925" lon="0.76984">
        <ele>102.6664844</ele>
        <time>2022-08-12T07:50:29Z</time>
      </trkpt>
      <trkpt lat="44.63925" lon="0.76984">
        <ele>102.7335138</ele>
        <time>2022-08-12T07:50:31Z</time>
      </trkpt>
      <trkpt lat="44.63925" lon="0.76984">
        <ele>103.035706</ele>
        <time>2022-08-12T07:50:33Z</time>
      </trkpt>
      <trkpt lat="44.63925" lon="0.76984">
        <ele>102.928373</ele>
        <time>2022-08-12T07:50:35Z</time>
      </trkpt>
      <trkpt lat="44.63925" lon="0.76984">
        <ele>102.928373</ele>
        <time>2022-08-12T07:50:39Z</time>
      </trkpt>
      <trkpt lat="44.63925" lon="0.76984">
        <ele>102.928373</ele>
        <time>2022-08-12T07:50:43Z</time>
      </trkpt>
      <trkpt lat="44.63925" lon="0.76984">
        <ele>102.928373</ele>
        <time>2022-08-12T07:50:47Z</time>
      </trkpt>
      <trkpt lat="44.63925" lon="0.76984">
        <ele>102.928373</ele>
        <time>2022-08-12T07:50:51Z</time>
      </trkpt>
      <trkpt lat="44.63925" lon="0.76984">
        <ele>102.928373</ele>
        <time>2022-08-12T07:50:55Z</time>
      </trkpt>
      <trkpt lat="44.63925" lon="0.76984">
        <ele>102.928373</ele>
        <time>2022-08-12T07:50:59Z</time>
      </trkpt>
      <trkpt lat="44.63925" lon="0.76984">
        <ele>102.928373</ele>
        <time>2022-08-12T07:51:03Z</time>
      </trkpt>
      <trkpt lat="44.63925" lon="0.76984">
        <ele>102.928373</ele>
        <time>2022-08-12T07:51:07Z</time>
      </trkpt>
      <trkpt lat="44.63925" lon="0.76984">
        <ele>102.928373</ele>
        <time>2022-08-12T07:51:11Z</time>
      </trkpt>
      <trkpt lat="44.63923" lon="0.76985">
        <ele>105.4630723</ele>
        <time>2022-08-12T07:51:13Z</time>
      </trkpt>
      <trkpt lat="44.63923" lon="0.76985">
        <ele>105.0365309</ele>
        <time>2022-08-12T07:51:15Z</time>
      </trkpt>
      <trkpt lat="44.63923" lon="0.76985">
        <ele>105.361632</ele>
        <time>2022-08-12T07:51:17Z</time>
      </trkpt>
      <trkpt lat="44.63923" lon="0.76985">
        <ele>105.361632</ele>
        <time>2022-08-12T07:51:21Z</time>
      </trkpt>
      <trkpt lat="44.63923" lon="0.76985">
        <ele>105.361632</ele>
        <time>2022-08-12T07:51:25Z</time>
      </trkpt>
      <trkpt lat="44.63924" lon="0.76985">
        <ele>105.4715285</ele>
        <time>2022-08-12T07:51:27Z</time>
      </trkpt>
      <trkpt lat="44.63924" lon="0.76985">
        <ele>105.152087</ele>
        <time>2022-08-12T07:51:31Z</time>
      </trkpt>
      <trkpt lat="44.63924" lon="0.76985">
        <ele>105.152087</ele>
        <time>2022-08-12T07:51:35Z</time>
      </trkpt>
      <trkpt lat="44.63925" lon="0.76984">
        <ele>105.8392014</ele>
        <time>2022-08-12T07:51:39Z</time>
      </trkpt>
      <trkpt lat="44.63925" lon="0.76984">
        <ele>105.8392014</ele>
        <time>2022-08-12T07:51:43Z</time>
      </trkpt>
      <trkpt lat="44.63926" lon="0.76983">
        <ele>106.824468</ele>
        <time>2022-08-12T07:51:47Z</time>
      </trkpt>
      <trkpt lat="44.63927" lon="0.76983">
        <ele>106.89833</ele>
        <time>2022-08-12T07:51:49Z</time>
      </trkpt>
      <trkpt lat="44.63927" lon="0.76983">
        <ele>106.2593975</ele>
        <time>2022-08-12T07:51:51Z</time>
      </trkpt>
      <trkpt lat="44.63926" lon="0.76984">
        <ele>106.6451053</ele>
        <time>2022-08-12T07:51:53Z</time>
      </trkpt>
      <trkpt lat="44.63926" lon="0.76984">
        <ele>106.2643598</ele>
        <time>2022-08-12T07:51:55Z</time>
      </trkpt>
      <trkpt lat="44.63926" lon="0.76984">
        <ele>104.99022</ele>
        <time>2022-08-12T07:51:57Z</time>
      </trkpt>
      <trkpt lat="44.63926" lon="0.76984">
        <ele>104.5690749</ele>
        <time>2022-08-12T07:51:59Z</time>
      </trkpt>
      <trkpt lat="44.63926" lon="0.76985">
        <ele>104.0169843</ele>
        <time>2022-08-12T07:52:01Z</time>
      </trkpt>
      <trkpt lat="44.63926" lon="0.76985">
        <ele>104.2156585</ele>
        <time>2022-08-12T07:52:03Z</time>
      </trkpt>
      <trkpt lat="44.63926" lon="0.76984">
        <ele>104.1177936</ele>
        <time>2022-08-12T07:52:05Z</time>
      </trkpt>
      <trkpt lat="44.63925" lon="0.76983">
        <ele>103.4843878</ele>
        <time>2022-08-12T07:52:07Z</time>
      </trkpt>
      <trkpt lat="44.63925" lon="0.76983">
        <ele>103.6679921</ele>
        <time>2022-08-12T07:52:09Z</time>
      </trkpt>
      <trkpt lat="44.63925" lon="0.76982">
        <ele>103.6004982</ele>
        <time>2022-08-12T07:52:11Z</time>
      </trkpt>
      <trkpt lat="44.63925" lon="0.76982">
        <ele>102.8589106</ele>
        <time>2022-08-12T07:52:13Z</time>
      </trkpt>
      <trkpt lat="44.63925" lon="0.76982">
        <ele>102.6220702</ele>
        <time>2022-08-12T07:52:15Z</time>
      </trkpt>
      <trkpt lat="44.63925" lon="0.76982">
        <ele>102.2790798</ele>
        <time>2022-08-12T07:52:17Z</time>
      </trkpt>
      <trkpt lat="44.63925" lon="0.76981">
        <ele>102.2902967</ele>
        <time>2022-08-12T07:52:19Z</time>
      </trkpt>
      <trkpt lat="44.63925" lon="0.76981">
        <ele>102.3798076</ele>
        <time>2022-08-12T07:52:21Z</time>
      </trkpt>
      <trkpt lat="44.63924" lon="0.76981">
        <ele>102.4019597</ele>
        <time>2022-08-12T07:52:23Z</time>
      </trkpt>
      <trkpt lat="44.63925" lon="0.76979">
        <ele>102.2084467</ele>
        <time>2022-08-12T07:52:25Z</time>
      </trkpt>
      <trkpt lat="44.63925" lon="0.76976">
        <ele>101.7064932</ele>
        <time>2022-08-12T07:52:27Z</time>
      </trkpt>
      <trkpt lat="44.63924" lon="0.76973">
        <ele>102.0102817</ele>
        <time>2022-08-12T07:52:29Z</time>
      </trkpt>
      <trkpt lat="44.63923" lon="0.76971">
        <ele>102.8409276</ele>
        <time>2022-08-12T07:52:31Z</time>
      </trkpt>
      <trkpt lat="44.63921" lon="0.7697">
        <ele>102.940814</ele>
        <time>2022-08-12T07:52:33Z</time>
      </trkpt>
      <trkpt lat="44.63919" lon="0.76969">
        <ele>102.8713626</ele>
        <time>2022-08-12T07:52:35Z</time>
      </trkpt>
      <trkpt lat="44.63918" lon="0.76969">
        <ele>102.4481689</ele>
        <time>2022-08-12T07:52:37Z</time>
      </trkpt>
      <trkpt lat="44.63917" lon="0.76969">
        <ele>102.3010601</ele>
        <time>2022-08-12T07:52:39Z</time>
      </trkpt>
      <trkpt lat="44.63917" lon="0.76969">
        <ele>102.2180635</ele>
        <time>2022-08-12T07:52:41Z</time>
      </trkpt>
      <trkpt lat="44.63916" lon="0.76969">
        <ele>102.370594</ele>
        <time>2022-08-12T07:52:43Z</time>
      </trkpt>
      <trkpt lat="44.63915" lon="0.76969">
        <ele>102.9158603</ele>
        <time>2022-08-12T07:52:45Z</time>
      </trkpt>
      <trkpt lat="44.63915" lon="0.76969">
        <ele>102.2974528</ele>
        <time>2022-08-12T07:52:47Z</time>
      </trkpt>
      <trkpt lat="44.63915" lon="0.76969">
        <ele>102.1816055</ele>
        <time>2022-08-12T07:52:49Z</time>
      </trkpt>
      <trkpt lat="44.63915" lon="0.7697">
        <ele>102.4708945</ele>
        <time>2022-08-12T07:52:51Z</time>
      </trkpt>
      <trkpt lat="44.63914" lon="0.7697">
        <ele>101.8808647</ele>
        <time>2022-08-12T07:52:53Z</time>
      </trkpt>
      <trkpt lat="44.63913" lon="0.7697">
        <ele>101.8021488</ele>
        <time>2022-08-12T07:52:55Z</time>
      </trkpt>
      <trkpt lat="44.63913" lon="0.76971">
        <ele>101.4220129</ele>
        <time>2022-08-12T07:52:57Z</time>
      </trkpt>
      <trkpt lat="44.63913" lon="0.76971">
        <ele>101.7376329</ele>
        <time>2022-08-12T07:52:59Z</time>
      </trkpt>
      <trkpt lat="44.63912" lon="0.76972">
        <ele>101.7098222</ele>
        <time>2022-08-12T07:53:01Z</time>
      </trkpt>
      <trkpt lat="44.63912" lon="0.76973">
        <ele>101.6017563</ele>
        <time>2022-08-12T07:53:03Z</time>
      </trkpt>
      <trkpt lat="44.63913" lon="0.76973">
        <ele>101.2094382</ele>
        <time>2022-08-12T07:53:05Z</time>
      </trkpt>
      <trkpt lat="44.63913" lon="0.76974">
        <ele>101.3425714</ele>
        <time>2022-08-12T07:53:07Z</time>
      </trkpt>
      <trkpt lat="44.63912" lon="0.76974">
        <ele>100.7393118</ele>
        <time>2022-08-12T07:53:09Z</time>
      </trkpt>
      <trkpt lat="44.63912" lon="0.76975">
        <ele>100.4234195</ele>
        <time>2022-08-12T07:53:11Z</time>
      </trkpt>
      <trkpt lat="44.63912" lon="0.76976">
        <ele>100.9536902</ele>
        <time>2022-08-12T07:53:13Z</time>
      </trkpt>
      <trkpt lat="44.63912" lon="0.76977">
        <ele>100.5934528</ele>
        <time>2022-08-12T07:53:15Z</time>
      </trkpt>
      <trkpt lat="44.63912" lon="0.76977">
        <ele>100.4099966</ele>
        <time>2022-08-12T07:53:17Z</time>
      </trkpt>
      <trkpt lat="44.63912" lon="0.76976">
        <ele>100.2083529</ele>
        <time>2022-08-12T07:53:19Z</time>
      </trkpt>
      <trkpt lat="44.63912" lon="0.76976">
        <ele>100.6503425</ele>
        <time>2022-08-12T07:53:21Z</time>
      </trkpt>
      <trkpt lat="44.63912" lon="0.76976">
        <ele>100.4517365</ele>
        <time>2022-08-12T07:53:23Z</time>
      </trkpt>
      <trkpt lat="44.63911" lon="0.76977">
        <ele>100.4490848</ele>
        <time>2022-08-12T07:53:25Z</time>
      </trkpt>
      <trkpt lat="44.63912" lon="0.76977">
        <ele>100.1275217</ele>
        <time>2022-08-12T07:53:27Z</time>
      </trkpt>
      <trkpt lat="44.63911" lon="0.76977">
        <ele>100.1950461</ele>
        <time>2022-08-12T07:53:29Z</time>
      </trkpt>
      <trkpt lat="44.6391" lon="0.76977">
        <ele>99.4847972</ele>
        <time>2022-08-12T07:53:31Z</time>
      </trkpt>
      <trkpt lat="44.6391" lon="0.76977">
        <ele>99.3593358</ele>
        <time>2022-08-12T07:53:33Z</time>
      </trkpt>
      <trkpt lat="44.63909" lon="0.76977">
        <ele>98.9270218</ele>
        <time>2022-08-12T07:53:35Z</time>
      </trkpt>
      <trkpt lat="44.63908" lon="0.76976">
        <ele>98.0653936</ele>
        <time>2022-08-12T07:53:37Z</time>
      </trkpt>
      <trkpt lat="44.63907" lon="0.76976">
        <ele>97.8766267</ele>
        <time>2022-08-12T07:53:39Z</time>
      </trkpt>
      <trkpt lat="44.63908" lon="0.76976">
        <ele>97.7238033</ele>
        <time>2022-08-12T07:53:41Z</time>
      </trkpt>
      <trkpt lat="44.63908" lon="0.76976">
        <ele>97.7173765</ele>
        <time>2022-08-12T07:53:43Z</time>
      </trkpt>
      <trkpt lat="44.63909" lon="0.76977">
        <ele>98.0178033</ele>
        <time>2022-08-12T07:53:45Z</time>
      </trkpt>
      <trkpt lat="44.63909" lon="0.76976">
        <ele>97.8364608</ele>
        <time>2022-08-12T07:53:47Z</time>
      </trkpt>
      <trkpt lat="44.63909" lon="0.76977">
        <ele>97.5452159</ele>
        <time>2022-08-12T07:53:49Z</time>
      </trkpt>
      <trkpt lat="44.63909" lon="0.76977">
        <ele>97.73589</ele>
        <time>2022-08-12T07:53:51Z</time>
      </trkpt>
      <trkpt lat="44.63909" lon="0.76977">
        <ele>97.5715213</ele>
        <time>2022-08-12T07:53:53Z</time>
      </trkpt>
      <trkpt lat="44.63909" lon="0.76977">
        <ele>97.3144522</ele>
        <time>2022-08-12T07:53:55Z</time>
      </trkpt>
      <trkpt lat="44.63909" lon="0.76977">
        <ele>97.2289256</ele>
        <time>2022-08-12T07:53:57Z</time>
      </trkpt>
      <trkpt lat="44.63909" lon="0.76977">
        <ele>96.9447101</ele>
        <time>2022-08-12T07:53:59Z</time>
      </trkpt>
      <trkpt lat="44.63909" lon="0.76977">
        <ele>96.9447101</ele>
        <time>2022-08-12T07:54:03Z</time>
      </trkpt>
      <trkpt lat="44.63909" lon="0.76977">
        <ele>96.9447101</ele>
        <time>2022-08-12T07:54:07Z</time>
      </trkpt>
      <trkpt lat="44.63909" lon="0.76977">
        <ele>96.9447101</ele>
        <time>2022-08-12T07:54:11Z</time>
      </trkpt>
      <trkpt lat="44.63909" lon="0.76977">
        <ele>96.9447101</ele>
        <time>2022-08-12T07:54:15Z</time>
      </trkpt>
      <trkpt lat="44.63909" lon="0.76977">
        <ele>96.9447101</ele>
        <time>2022-08-12T07:54:19Z</time>
      </trkpt>
      <trkpt lat="44.63909" lon="0.76977">
        <ele>96.9447101</ele>
        <time>2022-08-12T07:54:23Z</time>
      </trkpt>
      <trkpt lat="44.63909" lon="0.76977">
        <ele>96.9447101</ele>
        <time>2022-08-12T07:54:27Z</time>
      </trkpt>
      <trkpt lat="44.63909" lon="0.76977">
        <ele>96.9447101</ele>
        <time>2022-08-12T07:54:31Z</time>
      </trkpt>
      <trkpt lat="44.63909" lon="0.76977">
        <ele>96.9447101</ele>
        <time>2022-08-12T07:54:35Z</time>
      </trkpt>
      <trkpt lat="44.63909" lon="0.76977">
        <ele>96.9447101</ele>
        <time>2022-08-12T07:54:39Z</time>
      </trkpt>
      <trkpt lat="44.63909" lon="0.76977">
        <ele>96.9447101</ele>
        <time>2022-08-12T07:54:43Z</time>
      </trkpt>
      <trkpt lat="44.63909" lon="0.76976">
        <ele>98.4783222</ele>
        <time>2022-08-12T07:54:45Z</time>
      </trkpt>
      <trkpt lat="44.63909" lon="0.76976">
        <ele>98.4960533</ele>
        <time>2022-08-12T07:54:47Z</time>
      </trkpt>
      <trkpt lat="44.63909" lon="0.76976">
        <ele>98.5109801</ele>
        <time>2022-08-12T07:54:49Z</time>
      </trkpt>
      <trkpt lat="44.63908" lon="0.76976">
        <ele>98.6282321</ele>
        <time>2022-08-12T07:54:51Z</time>
      </trkpt>
      <trkpt lat="44.63909" lon="0.76976">
        <ele>98.6270871</ele>
        <time>2022-08-12T07:54:53Z</time>
      </trkpt>
      <trkpt lat="44.63909" lon="0.76976">
        <ele>98.6239849</ele>
        <time>2022-08-12T07:54:55Z</time>
      </trkpt>
      <trkpt lat="44.63909" lon="0.76976">
        <ele>98.6239849</ele>
        <time>2022-08-12T07:54:59Z</time>
      </trkpt>
      <trkpt lat="44.63909" lon="0.76976">
        <ele>98.6239849</ele>
        <time>2022-08-12T07:55:03Z</time>
      </trkpt>
      <trkpt lat="44.63908" lon="0.76976">
        <ele>98.7007707</ele>
        <time>2022-08-12T07:55:07Z</time>
      </trkpt>
      <trkpt lat="44.63908" lon="0.76976">
        <ele>98.6723141</ele>
        <time>2022-08-12T07:55:09Z</time>
      </trkpt>
      <trkpt lat="44.63908" lon="0.76976">
        <ele>98.651889</ele>
        <time>2022-08-12T07:55:11Z</time>
      </trkpt>
      <trkpt lat="44.63909" lon="0.76976">
        <ele>98.6296278</ele>
        <time>2022-08-12T07:55:13Z</time>
      </trkpt>
      <trkpt lat="44.63909" lon="0.76976">
        <ele>98.7421852</ele>
        <time>2022-08-12T07:55:15Z</time>
      </trkpt>
      <trkpt lat="44.63909" lon="0.76976">
        <ele>98.7421852</ele>
        <time>2022-08-12T07:55:19Z</time>
      </trkpt>
      <trkpt lat="44.63909" lon="0.76977">
        <ele>98.8847267</ele>
        <time>2022-08-12T07:55:21Z</time>
      </trkpt>
      <trkpt lat="44.63909" lon="0.76977">
        <ele>98.8404779</ele>
        <time>2022-08-12T07:55:23Z</time>
      </trkpt>
      <trkpt lat="44.63908" lon="0.76977">
        <ele>98.7547599</ele>
        <time>2022-08-12T07:55:25Z</time>
      </trkpt>
      <trkpt lat="44.63908" lon="0.76977">
        <ele>98.8654127</ele>
        <time>2022-08-12T07:55:27Z</time>
      </trkpt>
      <trkpt lat="44.6391" lon="0.76977">
        <ele>98.33752</ele>
        <time>2022-08-12T07:55:31Z</time>
      </trkpt>
      <trkpt lat="44.6391" lon="0.76977">
        <ele>98.1845269</ele>
        <time>2022-08-12T07:55:33Z</time>
      </trkpt>
      <trkpt lat="44.6391" lon="0.76977">
        <ele>98.1845269</ele>
        <time>2022-08-12T07:55:37Z</time>
      </trkpt>
      <trkpt lat="44.6391" lon="0.76977">
        <ele>98.1845269</ele>
        <time>2022-08-12T07:55:41Z</time>
      </trkpt>
      <trkpt lat="44.6391" lon="0.76977">
        <ele>98.1845269</ele>
        <time>2022-08-12T07:55:45Z</time>
      </trkpt>
      <trkpt lat="44.6391" lon="0.76977">
        <ele>98.1845269</ele>
        <time>2022-08-12T07:55:49Z</time>
      </trkpt>
      <trkpt lat="44.63912" lon="0.76977">
        <ele>98.0100781</ele>
        <time>2022-08-12T07:55:53Z</time>
      </trkpt>
      <trkpt lat="44.63912" lon="0.76977">
        <ele>97.964827</ele>
        <time>2022-08-12T07:55:55Z</time>
      </trkpt>
      <trkpt lat="44.63912" lon="0.76977">
        <ele>98.0083225</ele>
        <time>2022-08-12T07:55:57Z</time>
      </trkpt>
      <trkpt lat="44.63912" lon="0.76977">
        <ele>97.7290234</ele>
        <time>2022-08-12T07:56:01Z</time>
      </trkpt>
      <trkpt lat="44.63912" lon="0.76977">
        <ele>97.7977772</ele>
        <time>2022-08-12T07:56:03Z</time>
      </trkpt>
      <trkpt lat="44.63911" lon="0.76976">
        <ele>97.6090625</ele>
        <time>2022-08-12T07:56:05Z</time>
      </trkpt>
      <trkpt lat="44.63911" lon="0.76976">
        <ele>97.3996297</ele>
        <time>2022-08-12T07:56:07Z</time>
      </trkpt>
      <trkpt lat="44.63911" lon="0.76976">
        <ele>97.3996297</ele>
        <time>2022-08-12T07:56:11Z</time>
      </trkpt>
      <trkpt lat="44.63911" lon="0.76976">
        <ele>97.3996297</ele>
        <time>2022-08-12T07:56:15Z</time>
      </trkpt>
      <trkpt lat="44.63911" lon="0.76976">
        <ele>97.3996297</ele>
        <time>2022-08-12T07:56:19Z</time>
      </trkpt>
      <trkpt lat="44.63911" lon="0.76976">
        <ele>97.3996297</ele>
        <time>2022-08-12T07:56:23Z</time>
      </trkpt>
      <trkpt lat="44.63911" lon="0.76976">
        <ele>97.3996297</ele>
        <time>2022-08-12T07:56:27Z</time>
      </trkpt>
      <trkpt lat="44.63911" lon="0.76976">
        <ele>97.3996297</ele>
        <time>2022-08-12T07:56:31Z</time>
      </trkpt>
      <trkpt lat="44.63911" lon="0.76976">
        <ele>97.3996297</ele>
        <time>2022-08-12T07:56:35Z</time>
      </trkpt>
      <trkpt lat="44.63911" lon="0.76976">
        <ele>97.3996297</ele>
        <time>2022-08-12T07:56:39Z</time>
      </trkpt>
      <trkpt lat="44.63911" lon="0.76976">
        <ele>97.3996297</ele>
        <time>2022-08-12T07:56:43Z</time>
      </trkpt>
      <trkpt lat="44.63911" lon="0.76976">
        <ele>97.3996297</ele>
        <time>2022-08-12T07:56:47Z</time>
      </trkpt>
      <trkpt lat="44.63911" lon="0.76976">
        <ele>97.3996297</ele>
        <time>2022-08-12T07:56:51Z</time>
      </trkpt>
      <trkpt lat="44.63911" lon="0.76976">
        <ele>97.3996297</ele>
        <time>2022-08-12T07:56:55Z</time>
      </trkpt>
      <trkpt lat="44.63911" lon="0.76976">
        <ele>97.3996297</ele>
        <time>2022-08-12T07:56:59Z</time>
      </trkpt>
      <trkpt lat="44.63911" lon="0.76976">
        <ele>97.3996297</ele>
        <time>2022-08-12T07:57:03Z</time>
      </trkpt>
      <trkpt lat="44.63911" lon="0.76974">
        <ele>96.6087233</ele>
        <time>2022-08-12T07:57:07Z</time>
      </trkpt>
      <trkpt lat="44.63911" lon="0.76974">
        <ele>96.6087233</ele>
        <time>2022-08-12T07:57:11Z</time>
      </trkpt>
      <trkpt lat="44.63912" lon="0.76975">
        <ele>96.6225469</ele>
        <time>2022-08-12T07:57:13Z</time>
      </trkpt>
      <trkpt lat="44.63912" lon="0.76975">
        <ele>96.5816521</ele>
        <time>2022-08-12T07:57:15Z</time>
      </trkpt>
      <trkpt lat="44.63912" lon="0.76975">
        <ele>96.555393</ele>
        <time>2022-08-12T07:57:17Z</time>
      </trkpt>
      <trkpt lat="44.63912" lon="0.76975">
        <ele>96.5387707</ele>
        <time>2022-08-12T07:57:19Z</time>
      </trkpt>
      <trkpt lat="44.63912" lon="0.76976">
        <ele>96.5138413</ele>
        <time>2022-08-12T07:57:21Z</time>
      </trkpt>
      <trkpt lat="44.63912" lon="0.76976">
        <ele>96.4306079</ele>
        <time>2022-08-12T07:57:23Z</time>
      </trkpt>
      <trkpt lat="44.63912" lon="0.76976">
        <ele>96.3129035</ele>
        <time>2022-08-12T07:57:25Z</time>
      </trkpt>
      <trkpt lat="44.63912" lon="0.76976">
        <ele>96.2712701</ele>
        <time>2022-08-12T07:57:27Z</time>
      </trkpt>
      <trkpt lat="44.63912" lon="0.76976">
        <ele>96.2712701</ele>
        <time>2022-08-12T07:57:31Z</time>
      </trkpt>
      <trkpt lat="44.63912" lon="0.76976">
        <ele>96.2712701</ele>
        <time>2022-08-12T07:57:35Z</time>
      </trkpt>
      <trkpt lat="44.63912" lon="0.76976">
        <ele>96.2712701</ele>
        <time>2022-08-12T07:57:39Z</time>
      </trkpt>
      <trkpt lat="44.63912" lon="0.76976">
        <ele>96.2712701</ele>
        <time>2022-08-12T07:57:43Z</time>
      </trkpt>
      <trkpt lat="44.63912" lon="0.76976">
        <ele>96.2712701</ele>
        <time>2022-08-12T07:57:47Z</time>
      </trkpt>
      <trkpt lat="44.63912" lon="0.76976">
        <ele>96.2712701</ele>
        <time>2022-08-12T07:57:51Z</time>
      </trkpt>
      <trkpt lat="44.63912" lon="0.76976">
        <ele>96.2712701</ele>
        <time>2022-08-12T07:57:55Z</time>
      </trkpt>
      <trkpt lat="44.63912" lon="0.76976">
        <ele>96.2712701</ele>
        <time>2022-08-12T07:57:59Z</time>
      </trkpt>
      <trkpt lat="44.63912" lon="0.76976">
        <ele>96.2712701</ele>
        <time>2022-08-12T07:58:03Z</time>
      </trkpt>
      <trkpt lat="44.63912" lon="0.76978">
        <ele>96.8088383</ele>
        <time>2022-08-12T07:58:07Z</time>
      </trkpt>
      <trkpt lat="44.63912" lon="0.76978">
        <ele>96.8989724</ele>
        <time>2022-08-12T07:58:09Z</time>
      </trkpt>
      <trkpt lat="44.63912" lon="0.76978">
        <ele>96.9305107</ele>
        <time>2022-08-12T07:58:11Z</time>
      </trkpt>
      <trkpt lat="44.63912" lon="0.76978">
        <ele>97.1129511</ele>
        <time>2022-08-12T07:58:13Z</time>
      </trkpt>
      <trkpt lat="44.63912" lon="0.76978">
        <ele>97.191905</ele>
        <time>2022-08-12T07:58:15Z</time>
      </trkpt>
      <trkpt lat="44.63912" lon="0.76977">
        <ele>97.155078</ele>
        <time>2022-08-12T07:58:19Z</time>
      </trkpt>
      <trkpt lat="44.63911" lon="0.76977">
        <ele>97.1803199</ele>
        <time>2022-08-12T07:58:21Z</time>
      </trkpt>
      <trkpt lat="44.63912" lon="0.76977">
        <ele>97.0756472</ele>
        <time>2022-08-12T07:58:23Z</time>
      </trkpt>
      <trkpt lat="44.63912" lon="0.76977">
        <ele>97.1498757</ele>
        <time>2022-08-12T07:58:25Z</time>
      </trkpt>
      <trkpt lat="44.63912" lon="0.76977">
        <ele>97.0507559</ele>
        <time>2022-08-12T07:58:27Z</time>
      </trkpt>
      <trkpt lat="44.63912" lon="0.76977">
        <ele>97.0507559</ele>
        <time>2022-08-12T07:58:31Z</time>
      </trkpt>
      <trkpt lat="44.63912" lon="0.76977">
        <ele>96.9131123</ele>
        <time>2022-08-12T07:58:35Z</time>
      </trkpt>
      <trkpt lat="44.63912" lon="0.76977">
        <ele>96.8777376</ele>
        <time>2022-08-12T07:58:37Z</time>
      </trkpt>
      <trkpt lat="44.63912" lon="0.76977">
        <ele>96.8777376</ele>
        <time>2022-08-12T07:58:41Z</time>
      </trkpt>
      <trkpt lat="44.63912" lon="0.76977">
        <ele>96.8777376</ele>
        <time>2022-08-12T07:58:45Z</time>
      </trkpt>
      <trkpt lat="44.63912" lon="0.76977">
        <ele>96.8777376</ele>
        <time>2022-08-12T07:58:49Z</time>
      </trkpt>
      <trkpt lat="44.63912" lon="0.76977">
        <ele>96.8777376</ele>
        <time>2022-08-12T07:58:53Z</time>
      </trkpt>
      <trkpt lat="44.63912" lon="0.76977">
        <ele>96.8777376</ele>
        <time>2022-08-12T07:58:57Z</time>
      </trkpt>
      <trkpt lat="44.63912" lon="0.76977">
        <ele>96.8777376</ele>
        <time>2022-08-12T07:59:01Z</time>
      </trkpt>
      <trkpt lat="44.63912" lon="0.76977">
        <ele>96.8777376</ele>
        <time>2022-08-12T07:59:05Z</time>
      </trkpt>
      <trkpt lat="44.63912" lon="0.76977">
        <ele>96.8777376</ele>
        <time>2022-08-12T07:59:09Z</time>
      </trkpt>
      <trkpt lat="44.63912" lon="0.76977">
        <ele>96.8777376</ele>
        <time>2022-08-12T07:59:13Z</time>
      </trkpt>
      <trkpt lat="44.63912" lon="0.76976">
        <ele>95.7966057</ele>
        <time>2022-08-12T07:59:15Z</time>
      </trkpt>
      <trkpt lat="44.63912" lon="0.76976">
        <ele>95.8428113</ele>
        <time>2022-08-12T07:59:17Z</time>
      </trkpt>
      <trkpt lat="44.63912" lon="0.76976">
        <ele>95.7839704</ele>
        <time>2022-08-12T07:59:21Z</time>
      </trkpt>
      <trkpt lat="44.63912" lon="0.76976">
        <ele>95.6552973</ele>
        <time>2022-08-12T07:59:23Z</time>
      </trkpt>
      <trkpt lat="44.63912" lon="0.76976">
        <ele>95.7271207</ele>
        <time>2022-08-12T07:59:25Z</time>
      </trkpt>
      <trkpt lat="44.63912" lon="0.76976">
        <ele>95.6183075</ele>
        <time>2022-08-12T07:59:27Z</time>
      </trkpt>
      <trkpt lat="44.63912" lon="0.76976">
        <ele>95.68721</ele>
        <time>2022-08-12T07:59:29Z</time>
      </trkpt>
      <trkpt lat="44.63912" lon="0.76976">
        <ele>95.6841984</ele>
        <time>2022-08-12T07:59:31Z</time>
      </trkpt>
      <trkpt lat="44.63912" lon="0.76976">
        <ele>95.5939186</ele>
        <time>2022-08-12T07:59:33Z</time>
      </trkpt>
      <trkpt lat="44.63913" lon="0.76977">
        <ele>95.3141468</ele>
        <time>2022-08-12T07:59:35Z</time>
      </trkpt>
      <trkpt lat="44.63913" lon="0.76976">
        <ele>95.2730645</ele>
        <time>2022-08-12T07:59:37Z</time>
      </trkpt>
      <trkpt lat="44.63913" lon="0.76975">
        <ele>95.1379443</ele>
        <time>2022-08-12T07:59:39Z</time>
      </trkpt>
      <trkpt lat="44.63912" lon="0.76976">
        <ele>95.7440503</ele>
        <time>2022-08-12T07:59:41Z</time>
      </trkpt>
      <trkpt lat="44.63913" lon="0.76976">
        <ele>95.7687621</ele>
        <time>2022-08-12T07:59:43Z</time>
      </trkpt>
      <trkpt lat="44.63913" lon="0.76976">
        <ele>96.1950204</ele>
        <time>2022-08-12T07:59:45Z</time>
      </trkpt>
      <trkpt lat="44.63913" lon="0.76976">
        <ele>96.3698296</ele>
        <time>2022-08-12T07:59:47Z</time>
      </trkpt>
      <trkpt lat="44.63913" lon="0.76976">
        <ele>96.6378643</ele>
        <time>2022-08-12T07:59:49Z</time>
      </trkpt>
      <trkpt lat="44.63913" lon="0.76976">
        <ele>97.3159203</ele>
        <time>2022-08-12T07:59:51Z</time>
      </trkpt>
      <trkpt lat="44.63913" lon="0.76975">
        <ele>97.5814742</ele>
        <time>2022-08-12T07:59:53Z</time>
      </trkpt>
      <trkpt lat="44.63913" lon="0.76975">
        <ele>97.7045425</ele>
        <time>2022-08-12T07:59:55Z</time>
      </trkpt>
      <trkpt lat="44.63914" lon="0.76976">
        <ele>98.170684</ele>
        <time>2022-08-12T07:59:57Z</time>
      </trkpt>
      <trkpt lat="44.63914" lon="0.76976">
        <ele>98.1970677</ele>
        <time>2022-08-12T07:59:59Z</time>
      </trkpt>
      <trkpt lat="44.63914" lon="0.76976">
        <ele>98.4430996</ele>
        <time>2022-08-12T08:00:01Z</time>
      </trkpt>
      <trkpt lat="44.63914" lon="0.76976">
        <ele>98.8644934</ele>
        <time>2022-08-12T08:00:03Z</time>
      </trkpt>
      <trkpt lat="44.63914" lon="0.76976">
        <ele>99.3060636</ele>
        <time>2022-08-12T08:00:05Z</time>
      </trkpt>
      <trkpt lat="44.63915" lon="0.76975">
        <ele>99.0301255</ele>
        <time>2022-08-12T08:00:07Z</time>
      </trkpt>
      <trkpt lat="44.63915" lon="0.76975">
        <ele>99.2282417</ele>
        <time>2022-08-12T08:00:09Z</time>
      </trkpt>
      <trkpt lat="44.63915" lon="0.76975">
        <ele>99.2282417</ele>
        <time>2022-08-12T08:00:13Z</time>
      </trkpt>
      <trkpt lat="44.63915" lon="0.76975">
        <ele>99.2282417</ele>
        <time>2022-08-12T08:00:17Z</time>
      </trkpt>
      <trkpt lat="44.63915" lon="0.76975">
        <ele>99.2282417</ele>
        <time>2022-08-12T08:00:21Z</time>
      </trkpt>
      <trkpt lat="44.63915" lon="0.76975">
        <ele>99.2282417</ele>
        <time>2022-08-12T08:00:25Z</time>
      </trkpt>
      <trkpt lat="44.63915" lon="0.76975">
        <ele>99.2282417</ele>
        <time>2022-08-12T08:00:29Z</time>
      </trkpt>
      <trkpt lat="44.63915" lon="0.76975">
        <ele>99.2282417</ele>
        <time>2022-08-12T08:00:33Z</time>
      </trkpt>
      <trkpt lat="44.63915" lon="0.76975">
        <ele>99.2282417</ele>
        <time>2022-08-12T08:00:37Z</time>
      </trkpt>
      <trkpt lat="44.63915" lon="0.76975">
        <ele>99.2282417</ele>
        <time>2022-08-12T08:00:41Z</time>
      </trkpt>
      <trkpt lat="44.63915" lon="0.76975">
        <ele>99.2282417</ele>
        <time>2022-08-12T08:00:45Z</time>
      </trkpt>
      <trkpt lat="44.63915" lon="0.76975">
        <ele>99.2282417</ele>
        <time>2022-08-12T08:00:49Z</time>
      </trkpt>
      <trkpt lat="44.63915" lon="0.76975">
        <ele>99.2282417</ele>
        <time>2022-08-12T08:00:53Z</time>
      </trkpt>
      <trkpt lat="44.63915" lon="0.76975">
        <ele>99.2282417</ele>
        <time>2022-08-12T08:00:57Z</time>
      </trkpt>
      <trkpt lat="44.63915" lon="0.76975">
        <ele>99.2282417</ele>
        <time>2022-08-12T08:01:01Z</time>
      </trkpt>
      <trkpt lat="44.63915" lon="0.76975">
        <ele>99.2282417</ele>
        <time>2022-08-12T08:01:05Z</time>
      </trkpt>
      <trkpt lat="44.63917" lon="0.76977">
        <ele>100.380051</ele>
        <time>2022-08-12T08:01:09Z</time>
      </trkpt>
      <trkpt lat="44.63917" lon="0.76977">
        <ele>100.2708352</ele>
        <time>2022-08-12T08:01:11Z</time>
      </trkpt>
      <trkpt lat="44.63916" lon="0.76977">
        <ele>99.9421171</ele>
        <time>2022-08-12T08:01:13Z</time>
      </trkpt>
      <trkpt lat="44.63915" lon="0.76977">
        <ele>99.980197</ele>
        <time>2022-08-12T08:01:15Z</time>
      </trkpt>
      <trkpt lat="44.63916" lon="0.76976">
        <ele>99.4639317</ele>
        <time>2022-08-12T08:01:17Z</time>
      </trkpt>
      <trkpt lat="44.63916" lon="0.76976">
        <ele>99.5563951</ele>
        <time>2022-08-12T08:01:19Z</time>
      </trkpt>
    </trkseg>
      <trkpt lat="44.63908" lon="0.76969">
        <ele>100.2</ele>
        <time>2022-08-14T13:34:59Z</time>
      </trkpt>
      <trkpt lat="44.63908" lon="0.76969">
        <ele>100.2</ele>
        <time>2022-08-14T13:35:00Z</time>
      </trkpt>
      <trkpt lat="44.63904" lon="0.76972">
        <ele>100.3</ele>
        <time>2022-08-14T13:38:56Z</time>
      </trkpt>
      <trkpt lat="44.63901" lon="0.76974">
        <ele>100.3</ele>
        <time>2022-08-14T13:38:58Z</time>
      </trkpt>
      <trkpt lat="44.63898" lon="0.76974">
        <ele>100.4</ele>
        <time>2022-08-14T13:39:00Z</time>
      </trkpt>
      <trkpt lat="44.63894" lon="0.76975">
        <ele>100.5</ele>
        <time>2022-08-14T13:39:02Z</time>
      </trkpt>
      <trkpt lat="44.63892" lon="0.76976">
        <ele>100.5</ele>
        <time>2022-08-14T13:39:04Z</time>
      </trkpt>
      <trkpt lat="44.63887" lon="0.76977">
        <ele>100.6</ele>
        <time>2022-08-14T13:39:06Z</time>
      </trkpt>
      <trkpt lat="44.63882" lon="0.76979">
        <ele>100.7</ele>
        <time>2022-08-14T13:39:08Z</time>
      </trkpt>
      <trkpt lat="44.63877" lon="0.76981">
        <ele>100.9</ele>
        <time>2022-08-14T13:39:10Z</time>
      </trkpt>
      <trkpt lat="44.63872" lon="0.76983">
        <ele>101</ele>
        <time>2022-08-14T13:39:12Z</time>
      </trkpt>
      <trkpt lat="44.63868" lon="0.76985">
        <ele>101.1</ele>
        <time>2022-08-14T13:39:14Z</time>
      </trkpt>
      <trkpt lat="44.63864" lon="0.76987">
        <ele>101.2</ele>
        <time>2022-08-14T13:39:16Z</time>
      </trkpt>
      <trkpt lat="44.6386" lon="0.76989">
        <ele>101.3</ele>
        <time>2022-08-14T13:39:18Z</time>
      </trkpt>
      <trkpt lat="44.63856" lon="0.7699">
        <ele>101.4</ele>
        <time>2022-08-14T13:39:20Z</time>
      </trkpt>
      <trkpt lat="44.63852" lon="0.7699">
        <ele>101.5</ele>
        <time>2022-08-14T13:39:22Z</time>
      </trkpt>
      <trkpt lat="44.63848" lon="0.76992">
        <ele>101.6</ele>
        <time>2022-08-14T13:39:24Z</time>
      </trkpt>
      <trkpt lat="44.63844" lon="0.76993">
        <ele>101.7</ele>
        <time>2022-08-14T13:39:26Z</time>
      </trkpt>
      <trkpt lat="44.63839" lon="0.76994">
        <ele>101.8</ele>
        <time>2022-08-14T13:39:28Z</time>
      </trkpt>
      <trkpt lat="44.63836" lon="0.76995">
        <ele>101.9</ele>
        <time>2022-08-14T13:39:30Z</time>
      </trkpt>
      <trkpt lat="44.63832" lon="0.76995">
        <ele>102</ele>
        <time>2022-08-14T13:39:32Z</time>
      </trkpt>
      <trkpt lat="44.63829" lon="0.76993">
        <ele>102</ele>
        <time>2022-08-14T13:39:34Z</time>
      </trkpt>
      <trkpt lat="44.63827" lon="0.76988">
        <ele>102</ele>
        <time>2022-08-14T13:39:36Z</time>
      </trkpt>
      <trkpt lat="44.63828" lon="0.76981">
        <ele>101.9</ele>
        <time>2022-08-14T13:39:38Z</time>
      </trkpt>
      <trkpt lat="44.6383" lon="0.76974">
        <ele>101.7</ele>
        <time>2022-08-14T13:39:40Z</time>
      </trkpt>
      <trkpt lat="44.6383" lon="0.76964">
        <ele>101.6</ele>
        <time>2022-08-14T13:39:42Z</time>
      </trkpt>
      <trkpt lat="44.63831" lon="0.76954">
        <ele>101.5</ele>
        <time>2022-08-14T13:39:44Z</time>
      </trkpt>
      <trkpt lat="44.63832" lon="0.76944">
        <ele>101.3</ele>
        <time>2022-08-14T13:39:46Z</time>
      </trkpt>
      <trkpt lat="44.63833" lon="0.76933">
        <ele>101.2</ele>
        <time>2022-08-14T13:39:48Z</time>
      </trkpt>
      <trkpt lat="44.63835" lon="0.76922">
        <ele>101</ele>
        <time>2022-08-14T13:39:50Z</time>
      </trkpt>
      <trkpt lat="44.63837" lon="0.7691">
        <ele>100.9</ele>
        <time>2022-08-14T13:39:52Z</time>
      </trkpt>
      <trkpt lat="44.63839" lon="0.76901">
        <ele>100.7</ele>
        <time>2022-08-14T13:39:54Z</time>
      </trkpt>
      <trkpt lat="44.63841" lon="0.76893">
        <ele>100.6</ele>
        <time>2022-08-14T13:39:56Z</time>
      </trkpt>
      <trkpt lat="44.63842" lon="0.76887">
        <ele>100.5</ele>
        <time>2022-08-14T13:39:58Z</time>
      </trkpt>
      <trkpt lat="44.63843" lon="0.76881">
        <ele>100.4</ele>
        <time>2022-08-14T13:40:00Z</time>
      </trkpt>
      <trkpt lat="44.63845" lon="0.76871">
        <ele>100.2</ele>
        <time>2022-08-14T13:40:02Z</time>
      </trkpt>
      <trkpt lat="44.63846" lon="0.7686">
        <ele>100.1</ele>
        <time>2022-08-14T13:40:04Z</time>
      </trkpt>
      <trkpt lat="44.63845" lon="0.76851">
        <ele>100</ele>
        <time>2022-08-14T13:40:06Z</time>
      </trkpt>
      <trkpt lat="44.63841" lon="0.76845">
        <ele>100</ele>
        <time>2022-08-14T13:40:08Z</time>
      </trkpt>
      <trkpt lat="44.63834" lon="0.76848">
        <ele>100.2</ele>
        <time>2022-08-14T13:40:10Z</time>
      </trkpt>
      <trkpt lat="44.63829" lon="0.76858">
        <ele>100.2</ele>
        <time>2022-08-14T13:40:12Z</time>
      </trkpt>
      <trkpt lat="44.63824" lon="0.76866">
        <ele>100.2</ele>
        <time>2022-08-14T13:40:14Z</time>
      </trkpt>
      <trkpt lat="44.6382" lon="0.76874">
        <ele>100.2</ele>
        <time>2022-08-14T13:40:16Z</time>
      </trkpt>
      <trkpt lat="44.63815" lon="0.76882">
        <ele>100.1</ele>
        <time>2022-08-14T13:40:18Z</time>
      </trkpt>
      <trkpt lat="44.63811" lon="0.7689">
        <ele>100.1</ele>
        <time>2022-08-14T13:40:20Z</time>
      </trkpt>
      <trkpt lat="44.63807" lon="0.76896">
        <ele>100.1</ele>
        <time>2022-08-14T13:40:22Z</time>
      </trkpt>
      <trkpt lat="44.63803" lon="0.76903">
        <ele>100.1</ele>
        <time>2022-08-14T13:40:24Z</time>
      </trkpt>
      <trkpt lat="44.63799" lon="0.76909">
        <ele>100.1</ele>
        <time>2022-08-14T13:40:26Z</time>
      </trkpt>
      <trkpt lat="44.63795" lon="0.76916">
        <ele>100.1</ele>
        <time>2022-08-14T13:40:28Z</time>
      </trkpt>
      <trkpt lat="44.63792" lon="0.7692">
        <ele>100.2</ele>
        <time>2022-08-14T13:40:30Z</time>
      </trkpt>
      <trkpt lat="44.6379" lon="0.76928">
        <ele>100.4</ele>
        <time>2022-08-14T13:40:32Z</time>
      </trkpt>
      <trkpt lat="44.63786" lon="0.76932">
        <ele>100.6</ele>
        <time>2022-08-14T13:40:34Z</time>
      </trkpt>
      <trkpt lat="44.63784" lon="0.76937">
        <ele>100.8</ele>
        <time>2022-08-14T13:40:36Z</time>
      </trkpt>
      <trkpt lat="44.63781" lon="0.76942">
        <ele>101</ele>
        <time>2022-08-14T13:40:38Z</time>
      </trkpt>
      <trkpt lat="44.63777" lon="0.76947">
        <ele>101.3</ele>
        <time>2022-08-14T13:40:40Z</time>
      </trkpt>
      <trkpt lat="44.63773" lon="0.76954">
        <ele>101.6</ele>
        <time>2022-08-14T13:40:42Z</time>
      </trkpt>
      <trkpt lat="44.63769" lon="0.76958">
        <ele>101.9</ele>
        <time>2022-08-14T13:40:44Z</time>
      </trkpt>
      <trkpt lat="44.63765" lon="0.76964">
        <ele>102.3</ele>
        <time>2022-08-14T13:40:46Z</time>
      </trkpt>
      <trkpt lat="44.63762" lon="0.76971">
        <ele>102.8</ele>
        <time>2022-08-14T13:40:48Z</time>
      </trkpt>
      <trkpt lat="44.63758" lon="0.76977">
        <ele>103.2</ele>
        <time>2022-08-14T13:40:50Z</time>
      </trkpt>
      <trkpt lat="44.63754" lon="0.76981">
        <ele>103.6</ele>
        <time>2022-08-14T13:40:52Z</time>
      </trkpt>
      <trkpt lat="44.63752" lon="0.76986">
        <ele>103.9</ele>
        <time>2022-08-14T13:40:54Z</time>
      </trkpt>
      <trkpt lat="44.63749" lon="0.76991">
        <ele>104.4</ele>
        <time>2022-08-14T13:40:56Z</time>
      </trkpt>
      <trkpt lat="44.63747" lon="0.76996">
        <ele>104.8</ele>
        <time>2022-08-14T13:40:58Z</time>
      </trkpt>
      <trkpt lat="44.63745" lon="0.77001">
        <ele>105.1</ele>
        <time>2022-08-14T13:41:00Z</time>
      </trkpt>
      <trkpt lat="44.63743" lon="0.77007">
        <ele>105.3</ele>
        <time>2022-08-14T13:41:02Z</time>
      </trkpt>
      <trkpt lat="44.6374" lon="0.77014">
        <ele>105.4</ele>
        <time>2022-08-14T13:41:04Z</time>
      </trkpt>
      <trkpt lat="44.63737" lon="0.7702">
        <ele>105.6</ele>
        <time>2022-08-14T13:41:06Z</time>
      </trkpt>
      <trkpt lat="44.63736" lon="0.77027">
        <ele>105.8</ele>
        <time>2022-08-14T13:41:08Z</time>
      </trkpt>
      <trkpt lat="44.63734" lon="0.77034">
        <ele>106</ele>
        <time>2022-08-14T13:41:10Z</time>
      </trkpt>
      <trkpt lat="44.63732" lon="0.77041">
        <ele>106.1</ele>
        <time>2022-08-14T13:41:12Z</time>
      </trkpt>
      <trkpt lat="44.6373" lon="0.77048">
        <ele>106.3</ele>
        <time>2022-08-14T13:41:14Z</time>
      </trkpt>
      <trkpt lat="44.63729" lon="0.77056">
        <ele>106.5</ele>
        <time>2022-08-14T13:41:16Z</time>
      </trkpt>
      <trkpt lat="44.63726" lon="0.77065">
        <ele>106.8</ele>
        <time>2022-08-14T13:41:18Z</time>
      </trkpt>
      <trkpt lat="44.63724" lon="0.77074">
        <ele>107.1</ele>
        <time>2022-08-14T13:41:20Z</time>
      </trkpt>
      <trkpt lat="44.63722" lon="0.77083">
        <ele>107.4</ele>
        <time>2022-08-14T13:41:22Z</time>
      </trkpt>
      <trkpt lat="44.6372" lon="0.77094">
        <ele>107.1</ele>
        <time>2022-08-14T13:41:24Z</time>
      </trkpt>
      <trkpt lat="44.63718" lon="0.77103">
        <ele>107</ele>
        <time>2022-08-14T13:41:26Z</time>
      </trkpt>
      <trkpt lat="44.63716" lon="0.77114">
        <ele>106.7</ele>
        <time>2022-08-14T13:41:28Z</time>
      </trkpt>
      <trkpt lat="44.63713" lon="0.77123">
        <ele>106.6</ele>
        <time>2022-08-14T13:41:30Z</time>
      </trkpt>
      <trkpt lat="44.63709" lon="0.7713">
        <ele>106.5</ele>
        <time>2022-08-14T13:41:32Z</time>
      </trkpt>
      <trkpt lat="44.63703" lon="0.77137">
        <ele>106.6</ele>
        <time>2022-08-14T13:41:34Z</time>
      </trkpt>
      <trkpt lat="44.63699" lon="0.77142">
        <ele>106.6</ele>
        <time>2022-08-14T13:41:36Z</time>
      </trkpt>
      <trkpt lat="44.63695" lon="0.77151">
        <ele>106.5</ele>
        <time>2022-08-14T13:41:38Z</time>
      </trkpt>
      <trkpt lat="44.63691" lon="0.77159">
        <ele>106.4</ele>
        <time>2022-08-14T13:41:40Z</time>
      </trkpt>
      <trkpt lat="44.63686" lon="0.77168">
        <ele>106.3</ele>
        <time>2022-08-14T13:41:42Z</time>
      </trkpt>
      <trkpt lat="44.63681" lon="0.77177">
        <ele>106.7</ele>
        <time>2022-08-14T13:41:44Z</time>
      </trkpt>
      <trkpt lat="44.63674" lon="0.77186">
        <ele>107</ele>
        <time>2022-08-14T13:41:46Z</time>
      </trkpt>
      <trkpt lat="44.63669" lon="0.77194">
        <ele>107.3</ele>
        <time>2022-08-14T13:41:48Z</time>
      </trkpt>
      <trkpt lat="44.63663" lon="0.77203">
        <ele>107.3</ele>
        <time>2022-08-14T13:41:50Z</time>
      </trkpt>
      <trkpt lat="44.63658" lon="0.77211">
        <ele>107.2</ele>
        <time>2022-08-14T13:41:52Z</time>
      </trkpt>
      <trkpt lat="44.63652" lon="0.77219">
        <ele>107</ele>
        <time>2022-08-14T13:41:54Z</time>
      </trkpt>
      <trkpt lat="44.63646" lon="0.77227">
        <ele>106.9</ele>
        <time>2022-08-14T13:41:56Z</time>
      </trkpt>
      <trkpt lat="44.63641" lon="0.77233">
        <ele>106.7</ele>
        <time>2022-08-14T13:41:58Z</time>
      </trkpt>
      <trkpt lat="44.63636" lon="0.77243">
        <ele>106.5</ele>
        <time>2022-08-14T13:42:00Z</time>
      </trkpt>
      <trkpt lat="44.6363" lon="0.77253">
        <ele>106.4</ele>
        <time>2022-08-14T13:42:02Z</time>
      </trkpt>
      <trkpt lat="44.63623" lon="0.77263">
        <ele>106.6</ele>
        <time>2022-08-14T13:42:04Z</time>
      </trkpt>
      <trkpt lat="44.63617" lon="0.77275">
        <ele>106.8</ele>
        <time>2022-08-14T13:42:06Z</time>
      </trkpt>
      <trkpt lat="44.63611" lon="0.77286">
        <ele>107</ele>
        <time>2022-08-14T13:42:08Z</time>
      </trkpt>
      <trkpt lat="44.63607" lon="0.77296">
        <ele>107.1</ele>
        <time>2022-08-14T13:42:10Z</time>
      </trkpt>
      <trkpt lat="44.63602" lon="0.77306">
        <ele>107.2</ele>
        <time>2022-08-14T13:42:12Z</time>
      </trkpt>
      <trkpt lat="44.63598" lon="0.77314">
        <ele>107.3</ele>
        <time>2022-08-14T13:42:14Z</time>
      </trkpt>
      <trkpt lat="44.63594" lon="0.77319">
        <ele>107.2</ele>
        <time>2022-08-14T13:42:16Z</time>
      </trkpt>
      <trkpt lat="44.63592" lon="0.77328">
        <ele>107.4</ele>
        <time>2022-08-14T13:42:18Z</time>
      </trkpt>
      <trkpt lat="44.63588" lon="0.77336">
        <ele>107.5</ele>
        <time>2022-08-14T13:42:20Z</time>
      </trkpt>
      <trkpt lat="44.63584" lon="0.77344">
        <ele>107.7</ele>
        <time>2022-08-14T13:42:22Z</time>
      </trkpt>
      <trkpt lat="44.63582" lon="0.77351">
        <ele>108</ele>
        <time>2022-08-14T13:42:24Z</time>
      </trkpt>
      <trkpt lat="44.63581" lon="0.77357">
        <ele>108.4</ele>
        <time>2022-08-14T13:42:26Z</time>
      </trkpt>
      <trkpt lat="44.63577" lon="0.77365">
        <ele>108.8</ele>
        <time>2022-08-14T13:42:28Z</time>
      </trkpt>
      <trkpt lat="44.63575" lon="0.77372">
        <ele>109.1</ele>
        <time>2022-08-14T13:42:30Z</time>
      </trkpt>
      <trkpt lat="44.63573" lon="0.77382">
        <ele>109.6</ele>
        <time>2022-08-14T13:42:32Z</time>
      </trkpt>
      <trkpt lat="44.63569" lon="0.77391">
        <ele>110.1</ele>
        <time>2022-08-14T13:42:34Z</time>
      </trkpt>
      <trkpt lat="44.63564" lon="0.77402">
        <ele>110.5</ele>
        <time>2022-08-14T13:42:36Z</time>
      </trkpt>
      <trkpt lat="44.6356" lon="0.77412">
        <ele>110.9</ele>
        <time>2022-08-14T13:42:38Z</time>
      </trkpt>
      <trkpt lat="44.63556" lon="0.77421">
        <ele>111.2</ele>
        <time>2022-08-14T13:42:40Z</time>
      </trkpt>
      <trkpt lat="44.63552" lon="0.7743">
        <ele>111.5</ele>
        <time>2022-08-14T13:42:42Z</time>
      </trkpt>
      <trkpt lat="44.63548" lon="0.77439">
        <ele>111.7</ele>
        <time>2022-08-14T13:42:44Z</time>
      </trkpt>
      <trkpt lat="44.63545" lon="0.77448">
        <ele>111.9</ele>
        <time>2022-08-14T13:42:46Z</time>
      </trkpt>
      <trkpt lat="44.6354" lon="0.77457">
        <ele>112.1</ele>
        <time>2022-08-14T13:42:48Z</time>
      </trkpt>
      <trkpt lat="44.63538" lon="0.77467">
        <ele>112.4</ele>
        <time>2022-08-14T13:42:50Z</time>
      </trkpt>
      <trkpt lat="44.63535" lon="0.77476">
        <ele>112.7</ele>
        <time>2022-08-14T13:42:52Z</time>
      </trkpt>
      <trkpt lat="44.63532" lon="0.77485">
        <ele>112.9</ele>
        <time>2022-08-14T13:42:54Z</time>
      </trkpt>
      <trkpt lat="44.63528" lon="0.77493">
        <ele>113.1</ele>
        <time>2022-08-14T13:42:56Z</time>
      </trkpt>
      <trkpt lat="44.63525" lon="0.77503">
        <ele>113.4</ele>
        <time>2022-08-14T13:42:58Z</time>
      </trkpt>
      <trkpt lat="44.63522" lon="0.77513">
        <ele>114</ele>
        <time>2022-08-14T13:43:00Z</time>
      </trkpt>
      <trkpt lat="44.63519" lon="0.77523">
        <ele>114.5</ele>
        <time>2022-08-14T13:43:02Z</time>
      </trkpt>
      <trkpt lat="44.63516" lon="0.77532">
        <ele>115</ele>
        <time>2022-08-14T13:43:04Z</time>
      </trkpt>
      <trkpt lat="44.63513" lon="0.77542">
        <ele>115.4</ele>
        <time>2022-08-14T13:43:06Z</time>
      </trkpt>
      <trkpt lat="44.6351" lon="0.7755">
        <ele>115.8</ele>
        <time>2022-08-14T13:43:08Z</time>
      </trkpt>
      <trkpt lat="44.63507" lon="0.77558">
        <ele>116</ele>
        <time>2022-08-14T13:43:10Z</time>
      </trkpt>
      <trkpt lat="44.63504" lon="0.77567">
        <ele>116.4</ele>
        <time>2022-08-14T13:43:12Z</time>
      </trkpt>
      <trkpt lat="44.635" lon="0.77575">
        <ele>116.5</ele>
        <time>2022-08-14T13:43:14Z</time>
      </trkpt>
      <trkpt lat="44.63496" lon="0.77585">
        <ele>117</ele>
        <time>2022-08-14T13:43:16Z</time>
      </trkpt>
      <trkpt lat="44.63491" lon="0.77595">
        <ele>117.6</ele>
        <time>2022-08-14T13:43:18Z</time>
      </trkpt>
      <trkpt lat="44.63487" lon="0.77605">
        <ele>118.2</ele>
        <time>2022-08-14T13:43:20Z</time>
      </trkpt>
      <trkpt lat="44.63483" lon="0.77613">
        <ele>118.7</ele>
        <time>2022-08-14T13:43:22Z</time>
      </trkpt>
      <trkpt lat="44.63479" lon="0.77624">
        <ele>119.3</ele>
        <time>2022-08-14T13:43:24Z</time>
      </trkpt>
      <trkpt lat="44.63475" lon="0.77632">
        <ele>119.7</ele>
        <time>2022-08-14T13:43:26Z</time>
      </trkpt>
      <trkpt lat="44.63472" lon="0.77641">
        <ele>120.2</ele>
        <time>2022-08-14T13:43:28Z</time>
      </trkpt>
      <trkpt lat="44.63468" lon="0.77649">
        <ele>120.7</ele>
        <time>2022-08-14T13:43:30Z</time>
      </trkpt>
      <trkpt lat="44.63465" lon="0.77657">
        <ele>121.1</ele>
        <time>2022-08-14T13:43:32Z</time>
      </trkpt>
      <trkpt lat="44.63462" lon="0.77665">
        <ele>121.5</ele>
        <time>2022-08-14T13:43:34Z</time>
      </trkpt>
      <trkpt lat="44.63459" lon="0.77671">
        <ele>121.7</ele>
        <time>2022-08-14T13:43:36Z</time>
      </trkpt>
      <trkpt lat="44.63456" lon="0.77679">
        <ele>121.8</ele>
        <time>2022-08-14T13:43:38Z</time>
      </trkpt>
      <trkpt lat="44.63453" lon="0.77686">
        <ele>122</ele>
        <time>2022-08-14T13:43:40Z</time>
      </trkpt>
      <trkpt lat="44.63451" lon="0.77693">
        <ele>122.1</ele>
        <time>2022-08-14T13:43:42Z</time>
      </trkpt>
      <trkpt lat="44.63447" lon="0.77699">
        <ele>122.2</ele>
        <time>2022-08-14T13:43:44Z</time>
      </trkpt>
      <trkpt lat="44.63444" lon="0.77705">
        <ele>122.2</ele>
        <time>2022-08-14T13:43:46Z</time>
      </trkpt>
      <trkpt lat="44.63441" lon="0.77712">
        <ele>122.3</ele>
        <time>2022-08-14T13:43:48Z</time>
      </trkpt>
      <trkpt lat="44.63439" lon="0.77719">
        <ele>122.4</ele>
        <time>2022-08-14T13:43:50Z</time>
      </trkpt>
      <trkpt lat="44.63436" lon="0.77725">
        <ele>122.4</ele>
        <time>2022-08-14T13:43:52Z</time>
      </trkpt>
      <trkpt lat="44.63433" lon="0.77732">
        <ele>122.5</ele>
        <time>2022-08-14T13:43:54Z</time>
      </trkpt>
      <trkpt lat="44.63431" lon="0.77738">
        <ele>122.5</ele>
        <time>2022-08-14T13:43:56Z</time>
      </trkpt>
      <trkpt lat="44.63429" lon="0.77744">
        <ele>122.6</ele>
        <time>2022-08-14T13:43:58Z</time>
      </trkpt>
      <trkpt lat="44.63427" lon="0.77749">
        <ele>122.6</ele>
        <time>2022-08-14T13:44:00Z</time>
      </trkpt>
      <trkpt lat="44.63425" lon="0.77755">
        <ele>122.7</ele>
        <time>2022-08-14T13:44:02Z</time>
      </trkpt>
      <trkpt lat="44.63423" lon="0.77761">
        <ele>122.9</ele>
        <time>2022-08-14T13:44:04Z</time>
      </trkpt>
      <trkpt lat="44.63421" lon="0.77767">
        <ele>123.1</ele>
        <time>2022-08-14T13:44:06Z</time>
      </trkpt>
      <trkpt lat="44.63419" lon="0.77773">
        <ele>123.3</ele>
        <time>2022-08-14T13:44:08Z</time>
      </trkpt>
      <trkpt lat="44.63417" lon="0.77779">
        <ele>123.4</ele>
        <time>2022-08-14T13:44:10Z</time>
      </trkpt>
      <trkpt lat="44.63416" lon="0.77785">
        <ele>123.7</ele>
        <time>2022-08-14T13:44:12Z</time>
      </trkpt>
      <trkpt lat="44.63414" lon="0.77792">
        <ele>124.1</ele>
        <time>2022-08-14T13:44:14Z</time>
      </trkpt>
      <trkpt lat="44.63412" lon="0.77798">
        <ele>124.4</ele>
        <time>2022-08-14T13:44:16Z</time>
      </trkpt>
      <trkpt lat="44.63411" lon="0.77804">
        <ele>124.7</ele>
        <time>2022-08-14T13:44:18Z</time>
      </trkpt>
      <trkpt lat="44.6341" lon="0.7781">
        <ele>125</ele>
        <time>2022-08-14T13:44:20Z</time>
      </trkpt>
      <trkpt lat="44.63409" lon="0.77816">
        <ele>125.3</ele>
        <time>2022-08-14T13:44:22Z</time>
      </trkpt>
      <trkpt lat="44.63407" lon="0.77822">
        <ele>125.7</ele>
        <time>2022-08-14T13:44:24Z</time>
      </trkpt>
      <trkpt lat="44.63406" lon="0.77828">
        <ele>126</ele>
        <time>2022-08-14T13:44:26Z</time>
      </trkpt>
      <trkpt lat="44.63405" lon="0.77834">
        <ele>126.3</ele>
        <time>2022-08-14T13:44:28Z</time>
      </trkpt>
      <trkpt lat="44.63403" lon="0.77841">
        <ele>126.8</ele>
        <time>2022-08-14T13:44:30Z</time>
      </trkpt>
      <trkpt lat="44.63402" lon="0.77846">
        <ele>127.2</ele>
        <time>2022-08-14T13:44:32Z</time>
      </trkpt>
      <trkpt lat="44.634" lon="0.77852">
        <ele>127.6</ele>
        <time>2022-08-14T13:44:34Z</time>
      </trkpt>
      <trkpt lat="44.634" lon="0.77859">
        <ele>128.1</ele>
        <time>2022-08-14T13:44:36Z</time>
      </trkpt>
      <trkpt lat="44.63398" lon="0.77865">
        <ele>128.5</ele>
        <time>2022-08-14T13:44:38Z</time>
      </trkpt>
      <trkpt lat="44.63397" lon="0.77871">
        <ele>129</ele>
        <time>2022-08-14T13:44:40Z</time>
      </trkpt>
      <trkpt lat="44.63396" lon="0.77876">
        <ele>129.3</ele>
        <time>2022-08-14T13:44:42Z</time>
      </trkpt>
      <trkpt lat="44.63395" lon="0.77881">
        <ele>129.6</ele>
        <time>2022-08-14T13:44:44Z</time>
      </trkpt>
      <trkpt lat="44.63394" lon="0.77887">
        <ele>130</ele>
        <time>2022-08-14T13:44:46Z</time>
      </trkpt>
      <trkpt lat="44.63393" lon="0.77893">
        <ele>130.4</ele>
        <time>2022-08-14T13:44:48Z</time>
      </trkpt>
      <trkpt lat="44.63392" lon="0.77898">
        <ele>130.8</ele>
        <time>2022-08-14T13:44:50Z</time>
      </trkpt>
      <trkpt lat="44.63391" lon="0.77903">
        <ele>131.1</ele>
        <time>2022-08-14T13:44:52Z</time>
      </trkpt>
      <trkpt lat="44.6339" lon="0.77909">
        <ele>131.5</ele>
        <time>2022-08-14T13:44:54Z</time>
      </trkpt>
      <trkpt lat="44.63389" lon="0.77916">
        <ele>132</ele>
        <time>2022-08-14T13:44:56Z</time>
      </trkpt>
      <trkpt lat="44.63388" lon="0.77921">
        <ele>132.3</ele>
        <time>2022-08-14T13:44:58Z</time>
      </trkpt>
      <trkpt lat="44.63388" lon="0.77926">
        <ele>132.6</ele>
        <time>2022-08-14T13:45:00Z</time>
      </trkpt>
      <trkpt lat="44.63386" lon="0.77931">
        <ele>132.8</ele>
        <time>2022-08-14T13:45:02Z</time>
      </trkpt>
      <trkpt lat="44.63384" lon="0.77935">
        <ele>133.1</ele>
        <time>2022-08-14T13:45:04Z</time>
      </trkpt>
      <trkpt lat="44.63384" lon="0.7794">
        <ele>133.4</ele>
        <time>2022-08-14T13:45:06Z</time>
      </trkpt>
      <trkpt lat="44.63383" lon="0.77945">
        <ele>133.7</ele>
        <time>2022-08-14T13:45:08Z</time>
      </trkpt>
      <trkpt lat="44.63382" lon="0.7795">
        <ele>134</ele>
        <time>2022-08-14T13:45:10Z</time>
      </trkpt>
      <trkpt lat="44.63382" lon="0.77956">
        <ele>134.3</ele>
        <time>2022-08-14T13:45:12Z</time>
      </trkpt>
      <trkpt lat="44.63382" lon="0.77961">
        <ele>134.6</ele>
        <time>2022-08-14T13:45:14Z</time>
      </trkpt>
      <trkpt lat="44.63382" lon="0.77966">
        <ele>135</ele>
        <time>2022-08-14T13:45:16Z</time>
      </trkpt>
      <trkpt lat="44.63381" lon="0.77971">
        <ele>135.3</ele>
        <time>2022-08-14T13:45:18Z</time>
      </trkpt>
      <trkpt lat="44.6338" lon="0.77976">
        <ele>135.6</ele>
        <time>2022-08-14T13:45:20Z</time>
      </trkpt>
      <trkpt lat="44.6338" lon="0.77982">
        <ele>135.9</ele>
        <time>2022-08-14T13:45:22Z</time>
      </trkpt>
      <trkpt lat="44.63381" lon="0.77987">
        <ele>136.2</ele>
        <time>2022-08-14T13:45:24Z</time>
      </trkpt>
      <trkpt lat="44.63382" lon="0.77992">
        <ele>136.5</ele>
        <time>2022-08-14T13:45:26Z</time>
      </trkpt>
      <trkpt lat="44.63382" lon="0.77998">
        <ele>136.9</ele>
        <time>2022-08-14T13:45:28Z</time>
      </trkpt>
      <trkpt lat="44.63382" lon="0.78003">
        <ele>137.2</ele>
        <time>2022-08-14T13:45:30Z</time>
      </trkpt>
      <trkpt lat="44.63382" lon="0.78009">
        <ele>137.6</ele>
        <time>2022-08-14T13:45:32Z</time>
      </trkpt>
      <trkpt lat="44.63383" lon="0.78013">
        <ele>137.9</ele>
        <time>2022-08-14T13:45:34Z</time>
      </trkpt>
      <trkpt lat="44.63383" lon="0.78019">
        <ele>138.3</ele>
        <time>2022-08-14T13:45:36Z</time>
      </trkpt>
      <trkpt lat="44.63383" lon="0.78024">
        <ele>138.6</ele>
        <time>2022-08-14T13:45:38Z</time>
      </trkpt>
      <trkpt lat="44.63384" lon="0.78029">
        <ele>138.9</ele>
        <time>2022-08-14T13:45:40Z</time>
      </trkpt>
      <trkpt lat="44.63384" lon="0.78034">
        <ele>139.3</ele>
        <time>2022-08-14T13:45:42Z</time>
      </trkpt>
      <trkpt lat="44.63384" lon="0.78039">
        <ele>139.6</ele>
        <time>2022-08-14T13:45:44Z</time>
      </trkpt>
      <trkpt lat="44.63384" lon="0.78043">
        <ele>139.9</ele>
        <time>2022-08-14T13:45:46Z</time>
      </trkpt>
      <trkpt lat="44.63383" lon="0.78047">
        <ele>140.2</ele>
        <time>2022-08-14T13:45:48Z</time>
      </trkpt>
      <trkpt lat="44.63382" lon="0.78052">
        <ele>140.5</ele>
        <time>2022-08-14T13:45:50Z</time>
      </trkpt>
      <trkpt lat="44.63381" lon="0.78056">
        <ele>140.7</ele>
        <time>2022-08-14T13:45:52Z</time>
      </trkpt>
      <trkpt lat="44.6338" lon="0.78061">
        <ele>141</ele>
        <time>2022-08-14T13:45:54Z</time>
      </trkpt>
      <trkpt lat="44.63379" lon="0.78065">
        <ele>141.3</ele>
        <time>2022-08-14T13:45:56Z</time>
      </trkpt>
      <trkpt lat="44.63377" lon="0.78069">
        <ele>141.6</ele>
        <time>2022-08-14T13:45:58Z</time>
      </trkpt>
      <trkpt lat="44.63376" lon="0.78074">
        <ele>141.9</ele>
        <time>2022-08-14T13:46:00Z</time>
      </trkpt>
      <trkpt lat="44.63374" lon="0.78078">
        <ele>142.1</ele>
        <time>2022-08-14T13:46:02Z</time>
      </trkpt>
      <trkpt lat="44.63372" lon="0.78081">
        <ele>142.3</ele>
        <time>2022-08-14T13:46:04Z</time>
      </trkpt>
      <trkpt lat="44.63369" lon="0.78085">
        <ele>142.4</ele>
        <time>2022-08-14T13:46:06Z</time>
      </trkpt>
      <trkpt lat="44.63367" lon="0.7809">
        <ele>142.5</ele>
        <time>2022-08-14T13:46:08Z</time>
      </trkpt>
      <trkpt lat="44.63366" lon="0.78094">
        <ele>142.5</ele>
        <time>2022-08-14T13:46:10Z</time>
      </trkpt>
      <trkpt lat="44.63363" lon="0.78099">
        <ele>142.6</ele>
        <time>2022-08-14T13:46:12Z</time>
      </trkpt>
      <trkpt lat="44.63361" lon="0.78103">
        <ele>142.7</ele>
        <time>2022-08-14T13:46:14Z</time>
      </trkpt>
      <trkpt lat="44.63359" lon="0.78107">
        <ele>142.7</ele>
        <time>2022-08-14T13:46:16Z</time>
      </trkpt>
      <trkpt lat="44.63356" lon="0.78111">
        <ele>142.8</ele>
        <time>2022-08-14T13:46:18Z</time>
      </trkpt>
      <trkpt lat="44.63355" lon="0.78116">
        <ele>142.9</ele>
        <time>2022-08-14T13:46:20Z</time>
      </trkpt>
      <trkpt lat="44.63354" lon="0.78121">
        <ele>143.1</ele>
        <time>2022-08-14T13:46:22Z</time>
      </trkpt>
      <trkpt lat="44.63353" lon="0.78125">
        <ele>143.2</ele>
        <time>2022-08-14T13:46:24Z</time>
      </trkpt>
      <trkpt lat="44.63353" lon="0.7813">
        <ele>143.3</ele>
        <time>2022-08-14T13:46:26Z</time>
      </trkpt>
      <trkpt lat="44.63352" lon="0.78135">
        <ele>143.4</ele>
        <time>2022-08-14T13:46:28Z</time>
      </trkpt>
      <trkpt lat="44.63352" lon="0.78139">
        <ele>143.5</ele>
        <time>2022-08-14T13:46:30Z</time>
      </trkpt>
      <trkpt lat="44.63352" lon="0.78142">
        <ele>143.6</ele>
        <time>2022-08-14T13:46:32Z</time>
      </trkpt>
      <trkpt lat="44.63352" lon="0.78146">
        <ele>143.6</ele>
        <time>2022-08-14T13:46:34Z</time>
      </trkpt>
      <trkpt lat="44.63352" lon="0.7815">
        <ele>143.7</ele>
        <time>2022-08-14T13:46:36Z</time>
      </trkpt>
      <trkpt lat="44.63352" lon="0.78153">
        <ele>143.8</ele>
        <time>2022-08-14T13:46:38Z</time>
      </trkpt>
      <trkpt lat="44.63351" lon="0.78157">
        <ele>143.9</ele>
        <time>2022-08-14T13:46:40Z</time>
      </trkpt>
      <trkpt lat="44.63351" lon="0.78162">
        <ele>144</ele>
        <time>2022-08-14T13:46:42Z</time>
      </trkpt>
      <trkpt lat="44.63351" lon="0.78166">
        <ele>144.1</ele>
        <time>2022-08-14T13:46:44Z</time>
      </trkpt>
      <trkpt lat="44.6335" lon="0.78169">
        <ele>144.1</ele>
        <time>2022-08-14T13:46:46Z</time>
      </trkpt>
      <trkpt lat="44.6335" lon="0.78173">
        <ele>144.1</ele>
        <time>2022-08-14T13:46:48Z</time>
      </trkpt>
      <trkpt lat="44.63348" lon="0.78179">
        <ele>144</ele>
        <time>2022-08-14T13:46:50Z</time>
      </trkpt>
      <trkpt lat="44.63347" lon="0.78184">
        <ele>144</ele>
        <time>2022-08-14T13:46:52Z</time>
      </trkpt>
      <trkpt lat="44.63346" lon="0.78187">
        <ele>144</ele>
        <time>2022-08-14T13:46:54Z</time>
      </trkpt>
      <trkpt lat="44.63344" lon="0.78191">
        <ele>144</ele>
        <time>2022-08-14T13:46:56Z</time>
      </trkpt>
      <trkpt lat="44.63343" lon="0.78194">
        <ele>144.1</ele>
        <time>2022-08-14T13:46:58Z</time>
      </trkpt>
      <trkpt lat="44.6334" lon="0.78198">
        <ele>144.2</ele>
        <time>2022-08-14T13:47:00Z</time>
      </trkpt>
      <trkpt lat="44.63338" lon="0.78201">
        <ele>144.3</ele>
        <time>2022-08-14T13:47:02Z</time>
      </trkpt>
      <trkpt lat="44.63335" lon="0.78205">
        <ele>144.4</ele>
        <time>2022-08-14T13:47:04Z</time>
      </trkpt>
      <trkpt lat="44.63334" lon="0.78207">
        <ele>144.5</ele>
        <time>2022-08-14T13:47:06Z</time>
      </trkpt>
      <trkpt lat="44.63332" lon="0.78209">
        <ele>144.5</ele>
        <time>2022-08-14T13:47:08Z</time>
      </trkpt>
      <trkpt lat="44.63331" lon="0.78209">
        <ele>144.5</ele>
        <time>2022-08-14T13:47:10Z</time>
      </trkpt>
      <trkpt lat="44.63331" lon="0.78209">
        <ele>144.5</ele>
        <time>2022-08-14T13:47:12Z</time>
      </trkpt>
      <trkpt lat="44.63332" lon="0.78209">
        <ele>144.5</ele>
        <time>2022-08-14T13:47:14Z</time>
      </trkpt>
      <trkpt lat="44.63332" lon="0.78208">
        <ele>144.5</ele>
        <time>2022-08-14T13:47:16Z</time>
      </trkpt>
      <trkpt lat="44.63332" lon="0.78208">
        <ele>144.5</ele>
        <time>2022-08-14T13:47:18Z</time>
      </trkpt>
      <trkpt lat="44.63324" lon="0.7822">
        <ele>144.3</ele>
        <time>2022-08-14T13:50:54Z</time>
      </trkpt>
      <trkpt lat="44.63322" lon="0.78221">
        <ele>144.2</ele>
        <time>2022-08-14T13:50:56Z</time>
      </trkpt>
      <trkpt lat="44.63321" lon="0.78222">
        <ele>144.2</ele>
        <time>2022-08-14T13:50:58Z</time>
      </trkpt>
      <trkpt lat="44.63321" lon="0.78222">
        <ele>144.2</ele>
        <time>2022-08-14T13:51:00Z</time>
      </trkpt>
      <trkpt lat="44.63321" lon="0.78222">
        <ele>144.2</ele>
        <time>2022-08-14T13:51:02Z</time>
      </trkpt>
      <trkpt lat="44.63321" lon="0.78222">
        <ele>144.2</ele>
        <time>2022-08-14T13:51:04Z</time>
      </trkpt>
      <trkpt lat="44.63321" lon="0.78223">
        <ele>144.2</ele>
        <time>2022-08-14T13:51:06Z</time>
      </trkpt>
      <trkpt lat="44.63319" lon="0.78226">
        <ele>144.1</ele>
        <time>2022-08-14T13:51:08Z</time>
      </trkpt>
      <trkpt lat="44.63316" lon="0.78229">
        <ele>144</ele>
        <time>2022-08-14T13:51:10Z</time>
      </trkpt>
      <trkpt lat="44.63313" lon="0.78233">
        <ele>144</ele>
        <time>2022-08-14T13:51:12Z</time>
      </trkpt>
      <trkpt lat="44.63308" lon="0.78239">
        <ele>143.8</ele>
        <time>2022-08-14T13:51:14Z</time>
      </trkpt>
      <trkpt lat="44.63303" lon="0.78245">
        <ele>143.7</ele>
        <time>2022-08-14T13:51:16Z</time>
      </trkpt>
      <trkpt lat="44.63296" lon="0.78252">
        <ele>143.4</ele>
        <time>2022-08-14T13:51:18Z</time>
      </trkpt>
      <trkpt lat="44.63289" lon="0.78261">
        <ele>142.7</ele>
        <time>2022-08-14T13:51:20Z</time>
      </trkpt>
      <trkpt lat="44.6328" lon="0.7827">
        <ele>142</ele>
        <time>2022-08-14T13:51:22Z</time>
      </trkpt>
      <trkpt lat="44.63271" lon="0.7828">
        <ele>141.3</ele>
        <time>2022-08-14T13:51:24Z</time>
      </trkpt>
      <trkpt lat="44.63262" lon="0.78292">
        <ele>140.5</ele>
        <time>2022-08-14T13:51:26Z</time>
      </trkpt>
      <trkpt lat="44.63251" lon="0.78303">
        <ele>139.8</ele>
        <time>2022-08-14T13:51:28Z</time>
      </trkpt>
      <trkpt lat="44.6324" lon="0.78316">
        <ele>139.6</ele>
        <time>2022-08-14T13:51:30Z</time>
      </trkpt>
      <trkpt lat="44.63228" lon="0.7833">
        <ele>139.5</ele>
        <time>2022-08-14T13:51:32Z</time>
      </trkpt>
      <trkpt lat="44.63215" lon="0.78343">
        <ele>139.1</ele>
        <time>2022-08-14T13:51:34Z</time>
      </trkpt>
      <trkpt lat="44.63202" lon="0.78358">
        <ele>138.4</ele>
        <time>2022-08-14T13:51:36Z</time>
      </trkpt>
      <trkpt lat="44.63188" lon="0.78373">
        <ele>137.6</ele>
        <time>2022-08-14T13:51:38Z</time>
      </trkpt>
      <trkpt lat="44.63174" lon="0.78387">
        <ele>136.8</ele>
        <time>2022-08-14T13:51:40Z</time>
      </trkpt>
      <trkpt lat="44.6316" lon="0.784">
        <ele>136</ele>
        <time>2022-08-14T13:51:42Z</time>
      </trkpt>
      <trkpt lat="44.63145" lon="0.7841">
        <ele>135.4</ele>
        <time>2022-08-14T13:51:44Z</time>
      </trkpt>
      <trkpt lat="44.6313" lon="0.78421">
        <ele>135</ele>
        <time>2022-08-14T13:51:46Z</time>
      </trkpt>
      <trkpt lat="44.63115" lon="0.7843">
        <ele>134.9</ele>
        <time>2022-08-14T13:51:48Z</time>
      </trkpt>
      <trkpt lat="44.631" lon="0.78439">
        <ele>134.9</ele>
        <time>2022-08-14T13:51:50Z</time>
      </trkpt>
      <trkpt lat="44.63086" lon="0.78448">
        <ele>135</ele>
        <time>2022-08-14T13:51:52Z</time>
      </trkpt>
      <trkpt lat="44.63072" lon="0.78457">
        <ele>134.6</ele>
        <time>2022-08-14T13:51:54Z</time>
      </trkpt>
      <trkpt lat="44.6306" lon="0.78467">
        <ele>133.9</ele>
        <time>2022-08-14T13:51:56Z</time>
      </trkpt>
      <trkpt lat="44.63048" lon="0.78478">
        <ele>133.1</ele>
        <time>2022-08-14T13:51:58Z</time>
      </trkpt>
      <trkpt lat="44.63038" lon="0.78491">
        <ele>132.1</ele>
        <time>2022-08-14T13:52:00Z</time>
      </trkpt>
      <trkpt lat="44.6303" lon="0.78502">
        <ele>131.3</ele>
        <time>2022-08-14T13:52:02Z</time>
      </trkpt>
      <trkpt lat="44.63022" lon="0.78514">
        <ele>131</ele>
        <time>2022-08-14T13:52:04Z</time>
      </trkpt>
      <trkpt lat="44.63014" lon="0.78527">
        <ele>130.7</ele>
        <time>2022-08-14T13:52:06Z</time>
      </trkpt>
      <trkpt lat="44.63007" lon="0.78541">
        <ele>130.5</ele>
        <time>2022-08-14T13:52:08Z</time>
      </trkpt>
      <trkpt lat="44.62999" lon="0.78555">
        <ele>130.3</ele>
        <time>2022-08-14T13:52:10Z</time>
      </trkpt>
      <trkpt lat="44.6299" lon="0.78571">
        <ele>129.9</ele>
        <time>2022-08-14T13:52:12Z</time>
      </trkpt>
      <trkpt lat="44.62982" lon="0.78586">
        <ele>129.3</ele>
        <time>2022-08-14T13:52:14Z</time>
      </trkpt>
      <trkpt lat="44.62972" lon="0.78603">
        <ele>128.8</ele>
        <time>2022-08-14T13:52:16Z</time>
      </trkpt>
      <trkpt lat="44.62962" lon="0.7862">
        <ele>128</ele>
        <time>2022-08-14T13:52:18Z</time>
      </trkpt>
      <trkpt lat="44.62951" lon="0.78638">
        <ele>127.1</ele>
        <time>2022-08-14T13:52:20Z</time>
      </trkpt>
      <trkpt lat="44.62939" lon="0.78656">
        <ele>125.9</ele>
        <time>2022-08-14T13:52:22Z</time>
      </trkpt>
      <trkpt lat="44.62927" lon="0.78671">
        <ele>124.5</ele>
        <time>2022-08-14T13:52:24Z</time>
      </trkpt>
      <trkpt lat="44.62919" lon="0.78687">
        <ele>122.9</ele>
        <time>2022-08-14T13:52:26Z</time>
      </trkpt>
      <trkpt lat="44.62914" lon="0.78708">
        <ele>121.5</ele>
        <time>2022-08-14T13:52:28Z</time>
      </trkpt>
      <trkpt lat="44.62912" lon="0.78732">
        <ele>119.9</ele>
        <time>2022-08-14T13:52:30Z</time>
      </trkpt>
      <trkpt lat="44.62909" lon="0.78759">
        <ele>118.2</ele>
        <time>2022-08-14T13:52:32Z</time>
      </trkpt>
      <trkpt lat="44.62907" lon="0.78786">
        <ele>116.3</ele>
        <time>2022-08-14T13:52:34Z</time>
      </trkpt>
      <trkpt lat="44.62905" lon="0.78815">
        <ele>114.2</ele>
        <time>2022-08-14T13:52:36Z</time>
      </trkpt>
      <trkpt lat="44.62902" lon="0.78846">
        <ele>112.8</ele>
        <time>2022-08-14T13:52:38Z</time>
      </trkpt>
      <trkpt lat="44.62895" lon="0.78875">
        <ele>112.2</ele>
        <time>2022-08-14T13:52:40Z</time>
      </trkpt>
      <trkpt lat="44.62887" lon="0.78903">
        <ele>111.9</ele>
        <time>2022-08-14T13:52:42Z</time>
      </trkpt>
      <trkpt lat="44.62877" lon="0.78929">
        <ele>112</ele>
        <time>2022-08-14T13:52:44Z</time>
      </trkpt>
      <trkpt lat="44.62868" lon="0.78953">
        <ele>112.4</ele>
        <time>2022-08-14T13:52:46Z</time>
      </trkpt>
      <trkpt lat="44.62862" lon="0.78977">
        <ele>112.8</ele>
        <time>2022-08-14T13:52:48Z</time>
      </trkpt>
      <trkpt lat="44.62856" lon="0.78997">
        <ele>113.2</ele>
        <time>2022-08-14T13:52:50Z</time>
      </trkpt>
      <trkpt lat="44.62851" lon="0.79015">
        <ele>114</ele>
        <time>2022-08-14T13:52:52Z</time>
      </trkpt>
      <trkpt lat="44.62846" lon="0.7903">
        <ele>114.9</ele>
        <time>2022-08-14T13:52:54Z</time>
      </trkpt>
      <trkpt lat="44.62843" lon="0.79043">
        <ele>115.6</ele>
        <time>2022-08-14T13:52:56Z</time>
      </trkpt>
      <trkpt lat="44.62839" lon="0.79055">
        <ele>116.3</ele>
        <time>2022-08-14T13:52:58Z</time>
      </trkpt>
      <trkpt lat="44.62836" lon="0.79065">
        <ele>117</ele>
        <time>2022-08-14T13:53:00Z</time>
      </trkpt>
      <trkpt lat="44.62833" lon="0.79073">
        <ele>117.5</ele>
        <time>2022-08-14T13:53:02Z</time>
      </trkpt>
      <trkpt lat="44.62831" lon="0.79081">
        <ele>117.9</ele>
        <time>2022-08-14T13:53:04Z</time>
      </trkpt>
      <trkpt lat="44.62828" lon="0.79088">
        <ele>118.5</ele>
        <time>2022-08-14T13:53:06Z</time>
      </trkpt>
      <trkpt lat="44.62826" lon="0.79095">
        <ele>119.3</ele>
        <time>2022-08-14T13:53:08Z</time>
      </trkpt>
      <trkpt lat="44.62824" lon="0.79102">
        <ele>120</ele>
        <time>2022-08-14T13:53:10Z</time>
      </trkpt>
      <trkpt lat="44.62822" lon="0.79108">
        <ele>120.6</ele>
        <time>2022-08-14T13:53:12Z</time>
      </trkpt>
      <trkpt lat="44.6282" lon="0.79113">
        <ele>121.1</ele>
        <time>2022-08-14T13:53:14Z</time>
      </trkpt>
      <trkpt lat="44.62818" lon="0.79118">
        <ele>121.5</ele>
        <time>2022-08-14T13:53:16Z</time>
      </trkpt>
      <trkpt lat="44.62816" lon="0.79124">
        <ele>122.1</ele>
        <time>2022-08-14T13:53:18Z</time>
      </trkpt>
      <trkpt lat="44.62814" lon="0.79129">
        <ele>122.5</ele>
        <time>2022-08-14T13:53:20Z</time>
      </trkpt>
      <trkpt lat="44.62813" lon="0.79134">
        <ele>123</ele>
        <time>2022-08-14T13:53:22Z</time>
      </trkpt>
      <trkpt lat="44.62811" lon="0.79139">
        <ele>123.4</ele>
        <time>2022-08-14T13:53:24Z</time>
      </trkpt>
      <trkpt lat="44.62809" lon="0.79144">
        <ele>123.8</ele>
        <time>2022-08-14T13:53:26Z</time>
      </trkpt>
      <trkpt lat="44.62808" lon="0.79148">
        <ele>124.1</ele>
        <time>2022-08-14T13:53:28Z</time>
      </trkpt>
      <trkpt lat="44.62806" lon="0.79154">
        <ele>124.6</ele>
        <time>2022-08-14T13:53:30Z</time>
      </trkpt>
      <trkpt lat="44.62804" lon="0.79158">
        <ele>124.9</ele>
        <time>2022-08-14T13:53:32Z</time>
      </trkpt>
      <trkpt lat="44.62801" lon="0.79163">
        <ele>125.1</ele>
        <time>2022-08-14T13:53:34Z</time>
      </trkpt>
      <trkpt lat="44.62799" lon="0.79168">
        <ele>125.5</ele>
        <time>2022-08-14T13:53:36Z</time>
      </trkpt>
      <trkpt lat="44.62797" lon="0.79173">
        <ele>125.8</ele>
        <time>2022-08-14T13:53:38Z</time>
      </trkpt>
      <trkpt lat="44.62795" lon="0.79179">
        <ele>126.1</ele>
        <time>2022-08-14T13:53:40Z</time>
      </trkpt>
      <trkpt lat="44.62794" lon="0.79183">
        <ele>126.4</ele>
        <time>2022-08-14T13:53:42Z</time>
      </trkpt>
      <trkpt lat="44.62791" lon="0.79189">
        <ele>126.7</ele>
        <time>2022-08-14T13:53:44Z</time>
      </trkpt>
      <trkpt lat="44.62789" lon="0.79194">
        <ele>127</ele>
        <time>2022-08-14T13:53:46Z</time>
      </trkpt>
      <trkpt lat="44.62788" lon="0.79199">
        <ele>127.2</ele>
        <time>2022-08-14T13:53:48Z</time>
      </trkpt>
      <trkpt lat="44.62786" lon="0.79204">
        <ele>127.5</ele>
        <time>2022-08-14T13:53:50Z</time>
      </trkpt>
      <trkpt lat="44.62784" lon="0.7921">
        <ele>127.8</ele>
        <time>2022-08-14T13:53:52Z</time>
      </trkpt>
      <trkpt lat="44.62782" lon="0.79215">
        <ele>128.1</ele>
        <time>2022-08-14T13:53:54Z</time>
      </trkpt>
      <trkpt lat="44.62781" lon="0.7922">
        <ele>128.4</ele>
        <time>2022-08-14T13:53:56Z</time>
      </trkpt>
      <trkpt lat="44.62778" lon="0.79225">
        <ele>128.5</ele>
        <time>2022-08-14T13:53:58Z</time>
      </trkpt>
      <trkpt lat="44.62777" lon="0.79231">
        <ele>128.9</ele>
        <time>2022-08-14T13:54:00Z</time>
      </trkpt>
      <trkpt lat="44.62776" lon="0.79236">
        <ele>129.2</ele>
        <time>2022-08-14T13:54:02Z</time>
      </trkpt>
      <trkpt lat="44.62775" lon="0.79243">
        <ele>129.6</ele>
        <time>2022-08-14T13:54:04Z</time>
      </trkpt>
      <trkpt lat="44.62774" lon="0.79249">
        <ele>129.9</ele>
        <time>2022-08-14T13:54:06Z</time>
      </trkpt>
      <trkpt lat="44.62773" lon="0.79254">
        <ele>130.1</ele>
        <time>2022-08-14T13:54:08Z</time>
      </trkpt>
      <trkpt lat="44.62772" lon="0.7926">
        <ele>130.2</ele>
        <time>2022-08-14T13:54:10Z</time>
      </trkpt>
      <trkpt lat="44.62771" lon="0.79265">
        <ele>130.3</ele>
        <time>2022-08-14T13:54:12Z</time>
      </trkpt>
      <trkpt lat="44.62772" lon="0.7927">
        <ele>130.5</ele>
        <time>2022-08-14T13:54:14Z</time>
      </trkpt>
      <trkpt lat="44.62771" lon="0.79275">
        <ele>130.6</ele>
        <time>2022-08-14T13:54:16Z</time>
      </trkpt>
      <trkpt lat="44.62771" lon="0.79281">
        <ele>130.8</ele>
        <time>2022-08-14T13:54:18Z</time>
      </trkpt>
      <trkpt lat="44.6277" lon="0.79286">
        <ele>130.9</ele>
        <time>2022-08-14T13:54:20Z</time>
      </trkpt>
      <trkpt lat="44.6277" lon="0.7929">
        <ele>131</ele>
        <time>2022-08-14T13:54:22Z</time>
      </trkpt>
      <trkpt lat="44.62769" lon="0.79295">
        <ele>131.2</ele>
        <time>2022-08-14T13:54:24Z</time>
      </trkpt>
      <trkpt lat="44.62769" lon="0.793">
        <ele>131.3</ele>
        <time>2022-08-14T13:54:26Z</time>
      </trkpt>
      <trkpt lat="44.62768" lon="0.79305">
        <ele>131.4</ele>
        <time>2022-08-14T13:54:28Z</time>
      </trkpt>
      <trkpt lat="44.62768" lon="0.79311">
        <ele>131.6</ele>
        <time>2022-08-14T13:54:30Z</time>
      </trkpt>
      <trkpt lat="44.62767" lon="0.79316">
        <ele>131.8</ele>
        <time>2022-08-14T13:54:32Z</time>
      </trkpt>
      <trkpt lat="44.62767" lon="0.79321">
        <ele>132</ele>
        <time>2022-08-14T13:54:34Z</time>
      </trkpt>
      <trkpt lat="44.62766" lon="0.79326">
        <ele>132.1</ele>
        <time>2022-08-14T13:54:36Z</time>
      </trkpt>
      <trkpt lat="44.62764" lon="0.79331">
        <ele>132.2</ele>
        <time>2022-08-14T13:54:38Z</time>
      </trkpt>
      <trkpt lat="44.62762" lon="0.79336">
        <ele>132.4</ele>
        <time>2022-08-14T13:54:40Z</time>
      </trkpt>
      <trkpt lat="44.62761" lon="0.79341">
        <ele>132.5</ele>
        <time>2022-08-14T13:54:42Z</time>
      </trkpt>
      <trkpt lat="44.6276" lon="0.79345">
        <ele>132.7</ele>
        <time>2022-08-14T13:54:44Z</time>
      </trkpt>
      <trkpt lat="44.62758" lon="0.7935">
        <ele>132.8</ele>
        <time>2022-08-14T13:54:46Z</time>
      </trkpt>
      <trkpt lat="44.62756" lon="0.79353">
        <ele>133</ele>
        <time>2022-08-14T13:54:48Z</time>
      </trkpt>
      <trkpt lat="44.62754" lon="0.79358">
        <ele>133.2</ele>
        <time>2022-08-14T13:54:50Z</time>
      </trkpt>
      <trkpt lat="44.62752" lon="0.79362">
        <ele>133.3</ele>
        <time>2022-08-14T13:54:52Z</time>
      </trkpt>
      <trkpt lat="44.62749" lon="0.79365">
        <ele>133.5</ele>
        <time>2022-08-14T13:54:54Z</time>
      </trkpt>
      <trkpt lat="44.62747" lon="0.79368">
        <ele>133.7</ele>
        <time>2022-08-14T13:54:56Z</time>
      </trkpt>
      <trkpt lat="44.62744" lon="0.79371">
        <ele>134</ele>
        <time>2022-08-14T13:54:58Z</time>
      </trkpt>
      <trkpt lat="44.62742" lon="0.79374">
        <ele>134.2</ele>
        <time>2022-08-14T13:55:00Z</time>
      </trkpt>
      <trkpt lat="44.6274" lon="0.79377">
        <ele>134.4</ele>
        <time>2022-08-14T13:55:02Z</time>
      </trkpt>
      <trkpt lat="44.62737" lon="0.7938">
        <ele>134.7</ele>
        <time>2022-08-14T13:55:04Z</time>
      </trkpt>
      <trkpt lat="44.62734" lon="0.79382">
        <ele>134.9</ele>
        <time>2022-08-14T13:55:06Z</time>
      </trkpt>
      <trkpt lat="44.62731" lon="0.79385">
        <ele>135.2</ele>
        <time>2022-08-14T13:55:08Z</time>
      </trkpt>
      <trkpt lat="44.62728" lon="0.79388">
        <ele>135.6</ele>
        <time>2022-08-14T13:55:10Z</time>
      </trkpt>
      <trkpt lat="44.62725" lon="0.79389">
        <ele>135.8</ele>
        <time>2022-08-14T13:55:12Z</time>
      </trkpt>
      <trkpt lat="44.62723" lon="0.79391">
        <ele>136.1</ele>
        <time>2022-08-14T13:55:14Z</time>
      </trkpt>
      <trkpt lat="44.6272" lon="0.79394">
        <ele>136.4</ele>
        <time>2022-08-14T13:55:16Z</time>
      </trkpt>
      <trkpt lat="44.62716" lon="0.79397">
        <ele>136.8</ele>
        <time>2022-08-14T13:55:18Z</time>
      </trkpt>
      <trkpt lat="44.62713" lon="0.794">
        <ele>137.2</ele>
        <time>2022-08-14T13:55:20Z</time>
      </trkpt>
      <trkpt lat="44.6271" lon="0.79402">
        <ele>137.6</ele>
        <time>2022-08-14T13:55:22Z</time>
      </trkpt>
      <trkpt lat="44.62708" lon="0.79404">
        <ele>137.9</ele>
        <time>2022-08-14T13:55:24Z</time>
      </trkpt>
      <trkpt lat="44.62704" lon="0.79406">
        <ele>138.3</ele>
        <time>2022-08-14T13:55:26Z</time>
      </trkpt>
      <trkpt lat="44.62701" lon="0.79409">
        <ele>138.8</ele>
        <time>2022-08-14T13:55:28Z</time>
      </trkpt>
      <trkpt lat="44.62699" lon="0.79412">
        <ele>139.2</ele>
        <time>2022-08-14T13:55:30Z</time>
      </trkpt>
      <trkpt lat="44.62696" lon="0.79414">
        <ele>139.6</ele>
        <time>2022-08-14T13:55:32Z</time>
      </trkpt>
      <trkpt lat="44.62694" lon="0.79416">
        <ele>140</ele>
        <time>2022-08-14T13:55:34Z</time>
      </trkpt>
      <trkpt lat="44.62691" lon="0.79418">
        <ele>140.3</ele>
        <time>2022-08-14T13:55:36Z</time>
      </trkpt>
      <trkpt lat="44.62688" lon="0.79421">
        <ele>140.7</ele>
        <time>2022-08-14T13:55:38Z</time>
      </trkpt>
      <trkpt lat="44.62686" lon="0.79423">
        <ele>141</ele>
        <time>2022-08-14T13:55:40Z</time>
      </trkpt>
      <trkpt lat="44.62683" lon="0.79426">
        <ele>141.4</ele>
        <time>2022-08-14T13:55:42Z</time>
      </trkpt>
      <trkpt lat="44.6268" lon="0.79429">
        <ele>141.8</ele>
        <time>2022-08-14T13:55:44Z</time>
      </trkpt>
      <trkpt lat="44.62678" lon="0.79432">
        <ele>142.2</ele>
        <time>2022-08-14T13:55:46Z</time>
      </trkpt>
      <trkpt lat="44.62674" lon="0.79435">
        <ele>142.6</ele>
        <time>2022-08-14T13:55:48Z</time>
      </trkpt>
      <trkpt lat="44.62672" lon="0.79438">
        <ele>143.1</ele>
        <time>2022-08-14T13:55:50Z</time>
      </trkpt>
      <trkpt lat="44.62669" lon="0.79442">
        <ele>143.6</ele>
        <time>2022-08-14T13:55:52Z</time>
      </trkpt>
      <trkpt lat="44.62666" lon="0.79445">
        <ele>144</ele>
        <time>2022-08-14T13:55:54Z</time>
      </trkpt>
      <trkpt lat="44.62663" lon="0.79449">
        <ele>144.3</ele>
        <time>2022-08-14T13:55:56Z</time>
      </trkpt>
      <trkpt lat="44.62661" lon="0.79453">
        <ele>144.6</ele>
        <time>2022-08-14T13:55:58Z</time>
      </trkpt>
      <trkpt lat="44.62658" lon="0.79457">
        <ele>144.8</ele>
        <time>2022-08-14T13:56:00Z</time>
      </trkpt>
      <trkpt lat="44.62655" lon="0.7946">
        <ele>145</ele>
        <time>2022-08-14T13:56:02Z</time>
      </trkpt>
      <trkpt lat="44.62653" lon="0.79463">
        <ele>145.2</ele>
        <time>2022-08-14T13:56:04Z</time>
      </trkpt>
      <trkpt lat="44.6265" lon="0.79467">
        <ele>145.4</ele>
        <time>2022-08-14T13:56:06Z</time>
      </trkpt>
      <trkpt lat="44.62647" lon="0.7947">
        <ele>145.7</ele>
        <time>2022-08-14T13:56:08Z</time>
      </trkpt>
      <trkpt lat="44.62645" lon="0.79474">
        <ele>145.9</ele>
        <time>2022-08-14T13:56:10Z</time>
      </trkpt>
      <trkpt lat="44.62642" lon="0.79476">
        <ele>146.1</ele>
        <time>2022-08-14T13:56:12Z</time>
      </trkpt>
      <trkpt lat="44.62639" lon="0.7948">
        <ele>146.4</ele>
        <time>2022-08-14T13:56:14Z</time>
      </trkpt>
      <trkpt lat="44.62637" lon="0.79483">
        <ele>146.7</ele>
        <time>2022-08-14T13:56:16Z</time>
      </trkpt>
      <trkpt lat="44.62634" lon="0.79486">
        <ele>146.9</ele>
        <time>2022-08-14T13:56:18Z</time>
      </trkpt>
      <trkpt lat="44.62632" lon="0.79491">
        <ele>147.2</ele>
        <time>2022-08-14T13:56:20Z</time>
      </trkpt>
      <trkpt lat="44.62629" lon="0.79494">
        <ele>147.5</ele>
        <time>2022-08-14T13:56:22Z</time>
      </trkpt>
      <trkpt lat="44.62627" lon="0.79497">
        <ele>147.7</ele>
        <time>2022-08-14T13:56:24Z</time>
      </trkpt>
      <trkpt lat="44.62624" lon="0.795">
        <ele>148</ele>
        <time>2022-08-14T13:56:26Z</time>
      </trkpt>
      <trkpt lat="44.62622" lon="0.79503">
        <ele>148.2</ele>
        <time>2022-08-14T13:56:28Z</time>
      </trkpt>
      <trkpt lat="44.62619" lon="0.79506">
        <ele>148.3</ele>
        <time>2022-08-14T13:56:30Z</time>
      </trkpt>
      <trkpt lat="44.62617" lon="0.7951">
        <ele>148.6</ele>
        <time>2022-08-14T13:56:32Z</time>
      </trkpt>
      <trkpt lat="44.62614" lon="0.79514">
        <ele>148.8</ele>
        <time>2022-08-14T13:56:34Z</time>
      </trkpt>
      <trkpt lat="44.62611" lon="0.79516">
        <ele>149</ele>
        <time>2022-08-14T13:56:36Z</time>
      </trkpt>
      <trkpt lat="44.62608" lon="0.7952">
        <ele>149.2</ele>
        <time>2022-08-14T13:56:38Z</time>
      </trkpt>
      <trkpt lat="44.62606" lon="0.79523">
        <ele>149.5</ele>
        <time>2022-08-14T13:56:40Z</time>
      </trkpt>
      <trkpt lat="44.62603" lon="0.79527">
        <ele>149.8</ele>
        <time>2022-08-14T13:56:42Z</time>
      </trkpt>
      <trkpt lat="44.626" lon="0.79531">
        <ele>150.1</ele>
        <time>2022-08-14T13:56:44Z</time>
      </trkpt>
      <trkpt lat="44.62597" lon="0.79533">
        <ele>150.4</ele>
        <time>2022-08-14T13:56:46Z</time>
      </trkpt>
      <trkpt lat="44.62595" lon="0.79537">
        <ele>150.7</ele>
        <time>2022-08-14T13:56:48Z</time>
      </trkpt>
      <trkpt lat="44.62592" lon="0.79539">
        <ele>151</ele>
        <time>2022-08-14T13:56:50Z</time>
      </trkpt>
      <trkpt lat="44.62589" lon="0.79544">
        <ele>151.5</ele>
        <time>2022-08-14T13:56:52Z</time>
      </trkpt>
      <trkpt lat="44.62586" lon="0.79548">
        <ele>151.9</ele>
        <time>2022-08-14T13:56:54Z</time>
      </trkpt>
      <trkpt lat="44.62583" lon="0.7955">
        <ele>152.2</ele>
        <time>2022-08-14T13:56:56Z</time>
      </trkpt>
      <trkpt lat="44.6258" lon="0.79554">
        <ele>152.3</ele>
        <time>2022-08-14T13:56:58Z</time>
      </trkpt>
      <trkpt lat="44.62577" lon="0.7956">
        <ele>152.5</ele>
        <time>2022-08-14T13:57:00Z</time>
      </trkpt>
      <trkpt lat="44.62574" lon="0.79563">
        <ele>152.6</ele>
        <time>2022-08-14T13:57:02Z</time>
      </trkpt>
      <trkpt lat="44.62571" lon="0.79568">
        <ele>152.7</ele>
        <time>2022-08-14T13:57:04Z</time>
      </trkpt>
      <trkpt lat="44.62568" lon="0.79573">
        <ele>152.8</ele>
        <time>2022-08-14T13:57:06Z</time>
      </trkpt>
      <trkpt lat="44.62564" lon="0.79576">
        <ele>152.8</ele>
        <time>2022-08-14T13:57:08Z</time>
      </trkpt>
      <trkpt lat="44.62561" lon="0.7958">
        <ele>152.9</ele>
        <time>2022-08-14T13:57:10Z</time>
      </trkpt>
      <trkpt lat="44.62558" lon="0.79584">
        <ele>152.9</ele>
        <time>2022-08-14T13:57:12Z</time>
      </trkpt>
      <trkpt lat="44.62555" lon="0.79587">
        <ele>152.7</ele>
        <time>2022-08-14T13:57:14Z</time>
      </trkpt>
      <trkpt lat="44.62553" lon="0.79592">
        <ele>152.6</ele>
        <time>2022-08-14T13:57:16Z</time>
      </trkpt>
      <trkpt lat="44.6255" lon="0.79596">
        <ele>152.5</ele>
        <time>2022-08-14T13:57:18Z</time>
      </trkpt>
      <trkpt lat="44.62548" lon="0.796">
        <ele>152.4</ele>
        <time>2022-08-14T13:57:20Z</time>
      </trkpt>
      <trkpt lat="44.62544" lon="0.79603">
        <ele>152.3</ele>
        <time>2022-08-14T13:57:22Z</time>
      </trkpt>
      <trkpt lat="44.62541" lon="0.79608">
        <ele>152.2</ele>
        <time>2022-08-14T13:57:24Z</time>
      </trkpt>
      <trkpt lat="44.62537" lon="0.79611">
        <ele>152.1</ele>
        <time>2022-08-14T13:57:26Z</time>
      </trkpt>
      <trkpt lat="44.62534" lon="0.79616">
        <ele>152.1</ele>
        <time>2022-08-14T13:57:28Z</time>
      </trkpt>
      <trkpt lat="44.6253" lon="0.79619">
        <ele>152.1</ele>
        <time>2022-08-14T13:57:30Z</time>
      </trkpt>
      <trkpt lat="44.62526" lon="0.79623">
        <ele>152.2</ele>
        <time>2022-08-14T13:57:32Z</time>
      </trkpt>
      <trkpt lat="44.62524" lon="0.79626">
        <ele>152.3</ele>
        <time>2022-08-14T13:57:34Z</time>
      </trkpt>
      <trkpt lat="44.6252" lon="0.79632">
        <ele>152.5</ele>
        <time>2022-08-14T13:57:36Z</time>
      </trkpt>
      <trkpt lat="44.62516" lon="0.79637">
        <ele>152.7</ele>
        <time>2022-08-14T13:57:38Z</time>
      </trkpt>
      <trkpt lat="44.62513" lon="0.79642">
        <ele>153</ele>
        <time>2022-08-14T13:57:40Z</time>
      </trkpt>
      <trkpt lat="44.6251" lon="0.79646">
        <ele>153.3</ele>
        <time>2022-08-14T13:57:42Z</time>
      </trkpt>
      <trkpt lat="44.62506" lon="0.79651">
        <ele>153.7</ele>
        <time>2022-08-14T13:57:44Z</time>
      </trkpt>
      <trkpt lat="44.62503" lon="0.79656">
        <ele>154.1</ele>
        <time>2022-08-14T13:57:46Z</time>
      </trkpt>
      <trkpt lat="44.62499" lon="0.79661">
        <ele>154.5</ele>
        <time>2022-08-14T13:57:48Z</time>
      </trkpt>
      <trkpt lat="44.62495" lon="0.79666">
        <ele>154.9</ele>
        <time>2022-08-14T13:57:50Z</time>
      </trkpt>
      <trkpt lat="44.62491" lon="0.79672">
        <ele>154.9</ele>
        <time>2022-08-14T13:57:52Z</time>
      </trkpt>
      <trkpt lat="44.62487" lon="0.79677">
        <ele>155</ele>
        <time>2022-08-14T13:57:54Z</time>
      </trkpt>
      <trkpt lat="44.62484" lon="0.79682">
        <ele>155.1</ele>
        <time>2022-08-14T13:57:56Z</time>
      </trkpt>
      <trkpt lat="44.62481" lon="0.79687">
        <ele>155.1</ele>
        <time>2022-08-14T13:57:58Z</time>
      </trkpt>
      <trkpt lat="44.62478" lon="0.79692">
        <ele>155.2</ele>
        <time>2022-08-14T13:58:00Z</time>
      </trkpt>
      <trkpt lat="44.62475" lon="0.79697">
        <ele>155.3</ele>
        <time>2022-08-14T13:58:02Z</time>
      </trkpt>
      <trkpt lat="44.62472" lon="0.79701">
        <ele>155.4</ele>
        <time>2022-08-14T13:58:04Z</time>
      </trkpt>
      <trkpt lat="44.6247" lon="0.79706">
        <ele>155.6</ele>
        <time>2022-08-14T13:58:06Z</time>
      </trkpt>
      <trkpt lat="44.62467" lon="0.79712">
        <ele>155.7</ele>
        <time>2022-08-14T13:58:08Z</time>
      </trkpt>
      <trkpt lat="44.62464" lon="0.79717">
        <ele>155.9</ele>
        <time>2022-08-14T13:58:10Z</time>
      </trkpt>
      <trkpt lat="44.62461" lon="0.79722">
        <ele>156</ele>
        <time>2022-08-14T13:58:12Z</time>
      </trkpt>
      <trkpt lat="44.62458" lon="0.79727">
        <ele>156.2</ele>
        <time>2022-08-14T13:58:14Z</time>
      </trkpt>
      <trkpt lat="44.62455" lon="0.79733">
        <ele>156.4</ele>
        <time>2022-08-14T13:58:16Z</time>
      </trkpt>
      <trkpt lat="44.62453" lon="0.79737">
        <ele>156.5</ele>
        <time>2022-08-14T13:58:18Z</time>
      </trkpt>
      <trkpt lat="44.6245" lon="0.79742">
        <ele>156.7</ele>
        <time>2022-08-14T13:58:20Z</time>
      </trkpt>
      <trkpt lat="44.62447" lon="0.79747">
        <ele>156.9</ele>
        <time>2022-08-14T13:58:22Z</time>
      </trkpt>
      <trkpt lat="44.62445" lon="0.79753">
        <ele>157.1</ele>
        <time>2022-08-14T13:58:24Z</time>
      </trkpt>
      <trkpt lat="44.62443" lon="0.79758">
        <ele>157.3</ele>
        <time>2022-08-14T13:58:26Z</time>
      </trkpt>
      <trkpt lat="44.6244" lon="0.79763">
        <ele>157.6</ele>
        <time>2022-08-14T13:58:28Z</time>
      </trkpt>
      <trkpt lat="44.62437" lon="0.79769">
        <ele>157.9</ele>
        <time>2022-08-14T13:58:30Z</time>
      </trkpt>
      <trkpt lat="44.62435" lon="0.79775">
        <ele>158.2</ele>
        <time>2022-08-14T13:58:32Z</time>
      </trkpt>
      <trkpt lat="44.62433" lon="0.7978">
        <ele>158.5</ele>
        <time>2022-08-14T13:58:34Z</time>
      </trkpt>
      <trkpt lat="44.62432" lon="0.79786">
        <ele>158.8</ele>
        <time>2022-08-14T13:58:36Z</time>
      </trkpt>
      <trkpt lat="44.62429" lon="0.79791">
        <ele>159.1</ele>
        <time>2022-08-14T13:58:38Z</time>
      </trkpt>
      <trkpt lat="44.62427" lon="0.79797">
        <ele>159.5</ele>
        <time>2022-08-14T13:58:40Z</time>
      </trkpt>
      <trkpt lat="44.62426" lon="0.79803">
        <ele>159.8</ele>
        <time>2022-08-14T13:58:42Z</time>
      </trkpt>
      <trkpt lat="44.62423" lon="0.79809">
        <ele>160.3</ele>
        <time>2022-08-14T13:58:44Z</time>
      </trkpt>
      <trkpt lat="44.62421" lon="0.79815">
        <ele>160.7</ele>
        <time>2022-08-14T13:58:46Z</time>
      </trkpt>
      <trkpt lat="44.62419" lon="0.79821">
        <ele>161.1</ele>
        <time>2022-08-14T13:58:48Z</time>
      </trkpt>
      <trkpt lat="44.62416" lon="0.79826">
        <ele>161.6</ele>
        <time>2022-08-14T13:58:50Z</time>
      </trkpt>
      <trkpt lat="44.62414" lon="0.79832">
        <ele>161.9</ele>
        <time>2022-08-14T13:58:52Z</time>
      </trkpt>
      <trkpt lat="44.62412" lon="0.79837">
        <ele>162.1</ele>
        <time>2022-08-14T13:58:54Z</time>
      </trkpt>
      <trkpt lat="44.6241" lon="0.79843">
        <ele>162.2</ele>
        <time>2022-08-14T13:58:56Z</time>
      </trkpt>
      <trkpt lat="44.62407" lon="0.79849">
        <ele>162.3</ele>
        <time>2022-08-14T13:58:58Z</time>
      </trkpt>
      <trkpt lat="44.62405" lon="0.79855">
        <ele>162.4</ele>
        <time>2022-08-14T13:59:00Z</time>
      </trkpt>
      <trkpt lat="44.62402" lon="0.79861">
        <ele>162.5</ele>
        <time>2022-08-14T13:59:02Z</time>
      </trkpt>
      <trkpt lat="44.624" lon="0.79866">
        <ele>162.6</ele>
        <time>2022-08-14T13:59:04Z</time>
      </trkpt>
      <trkpt lat="44.62398" lon="0.79871">
        <ele>162.7</ele>
        <time>2022-08-14T13:59:06Z</time>
      </trkpt>
      <trkpt lat="44.62395" lon="0.79877">
        <ele>162.8</ele>
        <time>2022-08-14T13:59:08Z</time>
      </trkpt>
      <trkpt lat="44.62393" lon="0.79882">
        <ele>162.8</ele>
        <time>2022-08-14T13:59:10Z</time>
      </trkpt>
      <trkpt lat="44.62391" lon="0.79888">
        <ele>162.9</ele>
        <time>2022-08-14T13:59:12Z</time>
      </trkpt>
      <trkpt lat="44.62388" lon="0.79893">
        <ele>162.9</ele>
        <time>2022-08-14T13:59:14Z</time>
      </trkpt>
      <trkpt lat="44.62386" lon="0.799">
        <ele>163</ele>
        <time>2022-08-14T13:59:16Z</time>
      </trkpt>
      <trkpt lat="44.62383" lon="0.79905">
        <ele>163</ele>
        <time>2022-08-14T13:59:18Z</time>
      </trkpt>
      <trkpt lat="44.6238" lon="0.79911">
        <ele>163</ele>
        <time>2022-08-14T13:59:20Z</time>
      </trkpt>
      <trkpt lat="44.62376" lon="0.79917">
        <ele>163</ele>
        <time>2022-08-14T13:59:22Z</time>
      </trkpt>
      <trkpt lat="44.62374" lon="0.79924">
        <ele>163</ele>
        <time>2022-08-14T13:59:24Z</time>
      </trkpt>
      <trkpt lat="44.62371" lon="0.7993">
        <ele>163</ele>
        <time>2022-08-14T13:59:26Z</time>
      </trkpt>
      <trkpt lat="44.62368" lon="0.79936">
        <ele>162.9</ele>
        <time>2022-08-14T13:59:28Z</time>
      </trkpt>
      <trkpt lat="44.62365" lon="0.79943">
        <ele>162.9</ele>
        <time>2022-08-14T13:59:30Z</time>
      </trkpt>
      <trkpt lat="44.62362" lon="0.79951">
        <ele>162.8</ele>
        <time>2022-08-14T13:59:32Z</time>
      </trkpt>
      <trkpt lat="44.6236" lon="0.79959">
        <ele>162.8</ele>
        <time>2022-08-14T13:59:34Z</time>
      </trkpt>
      <trkpt lat="44.62357" lon="0.79967">
        <ele>162.7</ele>
        <time>2022-08-14T13:59:36Z</time>
      </trkpt>
      <trkpt lat="44.62354" lon="0.79975">
        <ele>162.7</ele>
        <time>2022-08-14T13:59:38Z</time>
      </trkpt>
      <trkpt lat="44.62352" lon="0.79985">
        <ele>162.6</ele>
        <time>2022-08-14T13:59:40Z</time>
      </trkpt>
      <trkpt lat="44.62349" lon="0.79996">
        <ele>162.6</ele>
        <time>2022-08-14T13:59:42Z</time>
      </trkpt>
      <trkpt lat="44.62348" lon="0.80005">
        <ele>162.6</ele>
        <time>2022-08-14T13:59:44Z</time>
      </trkpt>
      <trkpt lat="44.62345" lon="0.80011">
        <ele>162.6</ele>
        <time>2022-08-14T13:59:46Z</time>
      </trkpt>
      <trkpt lat="44.62342" lon="0.80018">
        <ele>162.5</ele>
        <time>2022-08-14T13:59:48Z</time>
      </trkpt>
      <trkpt lat="44.62341" lon="0.80024">
        <ele>162.6</ele>
        <time>2022-08-14T13:59:50Z</time>
      </trkpt>
      <trkpt lat="44.62342" lon="0.8003">
        <ele>162.7</ele>
        <time>2022-08-14T13:59:52Z</time>
      </trkpt>
      <trkpt lat="44.62343" lon="0.80032">
        <ele>162.7</ele>
        <time>2022-08-14T13:59:54Z</time>
      </trkpt>
      <trkpt lat="44.62343" lon="0.80032">
        <ele>162.7</ele>
        <time>2022-08-14T13:59:56Z</time>
      </trkpt>
      <trkpt lat="44.62344" lon="0.80034">
        <ele>162.8</ele>
        <time>2022-08-14T13:59:58Z</time>
      </trkpt>
      <trkpt lat="44.62344" lon="0.80033">
        <ele>162.8</ele>
        <time>2022-08-14T14:00:00Z</time>
      </trkpt>
      <trkpt lat="44.62347" lon="0.80033">
        <ele>162.9</ele>
        <time>2022-08-14T14:00:02Z</time>
      </trkpt>
      <trkpt lat="44.62352" lon="0.80061">
        <ele>163.4</ele>
        <time>2022-08-14T14:00:48Z</time>
      </trkpt>
      <trkpt lat="44.62352" lon="0.80069">
        <ele>163.5</ele>
        <time>2022-08-14T14:00:50Z</time>
      </trkpt>
      <trkpt lat="44.62353" lon="0.80077">
        <ele>163.6</ele>
        <time>2022-08-14T14:00:52Z</time>
      </trkpt>
      <trkpt lat="44.62355" lon="0.80085">
        <ele>163.8</ele>
        <time>2022-08-14T14:00:54Z</time>
      </trkpt>
      <trkpt lat="44.62357" lon="0.80092">
        <ele>164</ele>
        <time>2022-08-14T14:00:56Z</time>
      </trkpt>
      <trkpt lat="44.62359" lon="0.80099">
        <ele>164.1</ele>
        <time>2022-08-14T14:00:58Z</time>
      </trkpt>
      <trkpt lat="44.62361" lon="0.80107">
        <ele>164.3</ele>
        <time>2022-08-14T14:01:00Z</time>
      </trkpt>
      <trkpt lat="44.62363" lon="0.80114">
        <ele>164.5</ele>
        <time>2022-08-14T14:01:02Z</time>
      </trkpt>
      <trkpt lat="44.62365" lon="0.80122">
        <ele>164.7</ele>
        <time>2022-08-14T14:01:04Z</time>
      </trkpt>
      <trkpt lat="44.62368" lon="0.8013">
        <ele>164.9</ele>
        <time>2022-08-14T14:01:06Z</time>
      </trkpt>
      <trkpt lat="44.6237" lon="0.80139">
        <ele>165.2</ele>
        <time>2022-08-14T14:01:08Z</time>
      </trkpt>
      <trkpt lat="44.62372" lon="0.80147">
        <ele>165.5</ele>
        <time>2022-08-14T14:01:10Z</time>
      </trkpt>
      <trkpt lat="44.62374" lon="0.80155">
        <ele>165.8</ele>
        <time>2022-08-14T14:01:12Z</time>
      </trkpt>
      <trkpt lat="44.62377" lon="0.80163">
        <ele>166.1</ele>
        <time>2022-08-14T14:01:14Z</time>
      </trkpt>
      <trkpt lat="44.62379" lon="0.80171">
        <ele>166.2</ele>
        <time>2022-08-14T14:01:16Z</time>
      </trkpt>
      <trkpt lat="44.62382" lon="0.80179">
        <ele>166.3</ele>
        <time>2022-08-14T14:01:18Z</time>
      </trkpt>
      <trkpt lat="44.62384" lon="0.80187">
        <ele>166.4</ele>
        <time>2022-08-14T14:01:20Z</time>
      </trkpt>
      <trkpt lat="44.62386" lon="0.80194">
        <ele>166.5</ele>
        <time>2022-08-14T14:01:22Z</time>
      </trkpt>
      <trkpt lat="44.62389" lon="0.80202">
        <ele>166.6</ele>
        <time>2022-08-14T14:01:24Z</time>
      </trkpt>
      <trkpt lat="44.62391" lon="0.8021">
        <ele>166.7</ele>
        <time>2022-08-14T14:01:26Z</time>
      </trkpt>
      <trkpt lat="44.62394" lon="0.80218">
        <ele>166.9</ele>
        <time>2022-08-14T14:01:28Z</time>
      </trkpt>
      <trkpt lat="44.62396" lon="0.80226">
        <ele>167</ele>
        <time>2022-08-14T14:01:30Z</time>
      </trkpt>
      <trkpt lat="44.62399" lon="0.80234">
        <ele>167.2</ele>
        <time>2022-08-14T14:01:32Z</time>
      </trkpt>
      <trkpt lat="44.62401" lon="0.80243">
        <ele>167.4</ele>
        <time>2022-08-14T14:01:34Z</time>
      </trkpt>
      <trkpt lat="44.62404" lon="0.80251">
        <ele>167.6</ele>
        <time>2022-08-14T14:01:36Z</time>
      </trkpt>
      <trkpt lat="44.62406" lon="0.8026">
        <ele>167.6</ele>
        <time>2022-08-14T14:01:38Z</time>
      </trkpt>
      <trkpt lat="44.62409" lon="0.8027">
        <ele>167.7</ele>
        <time>2022-08-14T14:01:40Z</time>
      </trkpt>
      <trkpt lat="44.62412" lon="0.80279">
        <ele>167.8</ele>
        <time>2022-08-14T14:01:42Z</time>
      </trkpt>
      <trkpt lat="44.62415" lon="0.80289">
        <ele>167.9</ele>
        <time>2022-08-14T14:01:44Z</time>
      </trkpt>
      <trkpt lat="44.62419" lon="0.80299">
        <ele>168</ele>
        <time>2022-08-14T14:01:46Z</time>
      </trkpt>
      <trkpt lat="44.62421" lon="0.80309">
        <ele>167.9</ele>
        <time>2022-08-14T14:01:48Z</time>
      </trkpt>
      <trkpt lat="44.62425" lon="0.8032">
        <ele>168</ele>
        <time>2022-08-14T14:01:50Z</time>
      </trkpt>
      <trkpt lat="44.62428" lon="0.80331">
        <ele>168.1</ele>
        <time>2022-08-14T14:01:52Z</time>
      </trkpt>
      <trkpt lat="44.62431" lon="0.80342">
        <ele>168</ele>
        <time>2022-08-14T14:01:54Z</time>
      </trkpt>
      <trkpt lat="44.62434" lon="0.80354">
        <ele>167.8</ele>
        <time>2022-08-14T14:01:56Z</time>
      </trkpt>
      <trkpt lat="44.62437" lon="0.80367">
        <ele>167.6</ele>
        <time>2022-08-14T14:01:58Z</time>
      </trkpt>
      <trkpt lat="44.6244" lon="0.80381">
        <ele>167.4</ele>
        <time>2022-08-14T14:02:00Z</time>
      </trkpt>
      <trkpt lat="44.62441" lon="0.80395">
        <ele>167</ele>
        <time>2022-08-14T14:02:02Z</time>
      </trkpt>
      <trkpt lat="44.62442" lon="0.80409">
        <ele>166.6</ele>
        <time>2022-08-14T14:02:04Z</time>
      </trkpt>
      <trkpt lat="44.62442" lon="0.80422">
        <ele>166.5</ele>
        <time>2022-08-14T14:02:06Z</time>
      </trkpt>
      <trkpt lat="44.62441" lon="0.80437">
        <ele>166.6</ele>
        <time>2022-08-14T14:02:08Z</time>
      </trkpt>
      <trkpt lat="44.6244" lon="0.8045">
        <ele>166.9</ele>
        <time>2022-08-14T14:02:10Z</time>
      </trkpt>
      <trkpt lat="44.62439" lon="0.80462">
        <ele>167</ele>
        <time>2022-08-14T14:02:12Z</time>
      </trkpt>
      <trkpt lat="44.62438" lon="0.80474">
        <ele>167.2</ele>
        <time>2022-08-14T14:02:14Z</time>
      </trkpt>
      <trkpt lat="44.62437" lon="0.80485">
        <ele>167.4</ele>
        <time>2022-08-14T14:02:16Z</time>
      </trkpt>
      <trkpt lat="44.62436" lon="0.80496">
        <ele>167.6</ele>
        <time>2022-08-14T14:02:18Z</time>
      </trkpt>
      <trkpt lat="44.62435" lon="0.80507">
        <ele>167.7</ele>
        <time>2022-08-14T14:02:20Z</time>
      </trkpt>
      <trkpt lat="44.62433" lon="0.80517">
        <ele>167.9</ele>
        <time>2022-08-14T14:02:22Z</time>
      </trkpt>
      <trkpt lat="44.62431" lon="0.80526">
        <ele>168</ele>
        <time>2022-08-14T14:02:24Z</time>
      </trkpt>
      <trkpt lat="44.6243" lon="0.80536">
        <ele>168.2</ele>
        <time>2022-08-14T14:02:26Z</time>
      </trkpt>
      <trkpt lat="44.62428" lon="0.80545">
        <ele>168.4</ele>
        <time>2022-08-14T14:02:28Z</time>
      </trkpt>
      <trkpt lat="44.62429" lon="0.80554">
        <ele>168.7</ele>
        <time>2022-08-14T14:02:30Z</time>
      </trkpt>
      <trkpt lat="44.62429" lon="0.80562">
        <ele>168.9</ele>
        <time>2022-08-14T14:02:32Z</time>
      </trkpt>
      <trkpt lat="44.62429" lon="0.80569">
        <ele>169.1</ele>
        <time>2022-08-14T14:02:34Z</time>
      </trkpt>
      <trkpt lat="44.62428" lon="0.80574">
        <ele>169.3</ele>
        <time>2022-08-14T14:02:36Z</time>
      </trkpt>
      <trkpt lat="44.6243" lon="0.80579">
        <ele>169.5</ele>
        <time>2022-08-14T14:02:38Z</time>
      </trkpt>
      <trkpt lat="44.62431" lon="0.8058">
        <ele>169.6</ele>
        <time>2022-08-14T14:02:40Z</time>
      </trkpt>
      <trkpt lat="44.62432" lon="0.8058">
        <ele>169.6</ele>
        <time>2022-08-14T14:02:42Z</time>
      </trkpt>
      <trkpt lat="44.62432" lon="0.8058">
        <ele>169.6</ele>
        <time>2022-08-14T14:02:44Z</time>
      </trkpt>
      <trkpt lat="44.62432" lon="0.8058">
        <ele>169.6</ele>
        <time>2022-08-14T14:02:46Z</time>
      </trkpt>
      <trkpt lat="44.62432" lon="0.80581">
        <ele>169.7</ele>
        <time>2022-08-14T14:02:48Z</time>
      </trkpt>
      <trkpt lat="44.62437" lon="0.80607">
        <ele>171.3</ele>
        <time>2022-08-14T14:03:02Z</time>
      </trkpt>
      <trkpt lat="44.62437" lon="0.80616">
        <ele>171.9</ele>
        <time>2022-08-14T14:03:04Z</time>
      </trkpt>
      <trkpt lat="44.62438" lon="0.80626">
        <ele>172.4</ele>
        <time>2022-08-14T14:03:06Z</time>
      </trkpt>
      <trkpt lat="44.62438" lon="0.80636">
        <ele>173</ele>
        <time>2022-08-14T14:03:08Z</time>
      </trkpt>
      <trkpt lat="44.62439" lon="0.80646">
        <ele>173.6</ele>
        <time>2022-08-14T14:03:10Z</time>
      </trkpt>
      <trkpt lat="44.62439" lon="0.80654">
        <ele>174</ele>
        <time>2022-08-14T14:03:12Z</time>
      </trkpt>
      <trkpt lat="44.6244" lon="0.80664">
        <ele>174.6</ele>
        <time>2022-08-14T14:03:14Z</time>
      </trkpt>
      <trkpt lat="44.62441" lon="0.80675">
        <ele>174.7</ele>
        <time>2022-08-14T14:03:16Z</time>
      </trkpt>
      <trkpt lat="44.62442" lon="0.80684">
        <ele>174.8</ele>
        <time>2022-08-14T14:03:18Z</time>
      </trkpt>
      <trkpt lat="44.62443" lon="0.80694">
        <ele>174.8</ele>
        <time>2022-08-14T14:03:20Z</time>
      </trkpt>
      <trkpt lat="44.62442" lon="0.80704">
        <ele>174.9</ele>
        <time>2022-08-14T14:03:22Z</time>
      </trkpt>
      <trkpt lat="44.62444" lon="0.80714">
        <ele>174.9</ele>
        <time>2022-08-14T14:03:24Z</time>
      </trkpt>
      <trkpt lat="44.62444" lon="0.80723">
        <ele>174.9</ele>
        <time>2022-08-14T14:03:26Z</time>
      </trkpt>
      <trkpt lat="44.62446" lon="0.80731">
        <ele>174.9</ele>
        <time>2022-08-14T14:03:28Z</time>
      </trkpt>
      <trkpt lat="44.62447" lon="0.8074">
        <ele>174.9</ele>
        <time>2022-08-14T14:03:30Z</time>
      </trkpt>
      <trkpt lat="44.62449" lon="0.80751">
        <ele>174.8</ele>
        <time>2022-08-14T14:03:32Z</time>
      </trkpt>
      <trkpt lat="44.62452" lon="0.80761">
        <ele>174.4</ele>
        <time>2022-08-14T14:03:34Z</time>
      </trkpt>
      <trkpt lat="44.62455" lon="0.80772">
        <ele>173.9</ele>
        <time>2022-08-14T14:03:36Z</time>
      </trkpt>
      <trkpt lat="44.62457" lon="0.80783">
        <ele>173.5</ele>
        <time>2022-08-14T14:03:38Z</time>
      </trkpt>
      <trkpt lat="44.6246" lon="0.80798">
        <ele>173</ele>
        <time>2022-08-14T14:03:40Z</time>
      </trkpt>
      <trkpt lat="44.62461" lon="0.80813">
        <ele>172.6</ele>
        <time>2022-08-14T14:03:42Z</time>
      </trkpt>
      <trkpt lat="44.62459" lon="0.80829">
        <ele>172.1</ele>
        <time>2022-08-14T14:03:44Z</time>
      </trkpt>
      <trkpt lat="44.62459" lon="0.80844">
        <ele>171.7</ele>
        <time>2022-08-14T14:03:46Z</time>
      </trkpt>
      <trkpt lat="44.62459" lon="0.8086">
        <ele>171.4</ele>
        <time>2022-08-14T14:03:48Z</time>
      </trkpt>
      <trkpt lat="44.62458" lon="0.80876">
        <ele>171</ele>
        <time>2022-08-14T14:03:50Z</time>
      </trkpt>
      <trkpt lat="44.62457" lon="0.80891">
        <ele>170.6</ele>
        <time>2022-08-14T14:03:52Z</time>
      </trkpt>
      <trkpt lat="44.62453" lon="0.80906">
        <ele>170.2</ele>
        <time>2022-08-14T14:03:54Z</time>
      </trkpt>
      <trkpt lat="44.62453" lon="0.80922">
        <ele>169.9</ele>
        <time>2022-08-14T14:03:56Z</time>
      </trkpt>
      <trkpt lat="44.62452" lon="0.80936">
        <ele>170</ele>
        <time>2022-08-14T14:03:58Z</time>
      </trkpt>
      <trkpt lat="44.62449" lon="0.80952">
        <ele>170.1</ele>
        <time>2022-08-14T14:04:00Z</time>
      </trkpt>
      <trkpt lat="44.62449" lon="0.80969">
        <ele>170.3</ele>
        <time>2022-08-14T14:04:02Z</time>
      </trkpt>
      <trkpt lat="44.6245" lon="0.80984">
        <ele>170.4</ele>
        <time>2022-08-14T14:04:04Z</time>
      </trkpt>
      <trkpt lat="44.62447" lon="0.80999">
        <ele>170.6</ele>
        <time>2022-08-14T14:04:06Z</time>
      </trkpt>
      <trkpt lat="44.62447" lon="0.81016">
        <ele>170.5</ele>
        <time>2022-08-14T14:04:08Z</time>
      </trkpt>
      <trkpt lat="44.62449" lon="0.81032">
        <ele>170.3</ele>
        <time>2022-08-14T14:04:10Z</time>
      </trkpt>
      <trkpt lat="44.6245" lon="0.81048">
        <ele>170.1</ele>
        <time>2022-08-14T14:04:12Z</time>
      </trkpt>
      <trkpt lat="44.62453" lon="0.81064">
        <ele>169.9</ele>
        <time>2022-08-14T14:04:14Z</time>
      </trkpt>
      <trkpt lat="44.62457" lon="0.81081">
        <ele>169.6</ele>
        <time>2022-08-14T14:04:16Z</time>
      </trkpt>
      <trkpt lat="44.62457" lon="0.81096">
        <ele>169.5</ele>
        <time>2022-08-14T14:04:18Z</time>
      </trkpt>
      <trkpt lat="44.62459" lon="0.81111">
        <ele>169.5</ele>
        <time>2022-08-14T14:04:20Z</time>
      </trkpt>
      <trkpt lat="44.6246" lon="0.81127">
        <ele>169.4</ele>
        <time>2022-08-14T14:04:22Z</time>
      </trkpt>
      <trkpt lat="44.62461" lon="0.81141">
        <ele>169.4</ele>
        <time>2022-08-14T14:04:24Z</time>
      </trkpt>
      <trkpt lat="44.62462" lon="0.81156">
        <ele>169.4</ele>
        <time>2022-08-14T14:04:26Z</time>
      </trkpt>
      <trkpt lat="44.62464" lon="0.81169">
        <ele>169.3</ele>
        <time>2022-08-14T14:04:28Z</time>
      </trkpt>
      <trkpt lat="44.62465" lon="0.81184">
        <ele>169.4</ele>
        <time>2022-08-14T14:04:30Z</time>
      </trkpt>
      <trkpt lat="44.62467" lon="0.81196">
        <ele>169.5</ele>
        <time>2022-08-14T14:04:32Z</time>
      </trkpt>
      <trkpt lat="44.62469" lon="0.8121">
        <ele>169.6</ele>
        <time>2022-08-14T14:04:34Z</time>
      </trkpt>
      <trkpt lat="44.62471" lon="0.81223">
        <ele>169.7</ele>
        <time>2022-08-14T14:04:36Z</time>
      </trkpt>
      <trkpt lat="44.62474" lon="0.81236">
        <ele>169.8</ele>
        <time>2022-08-14T14:04:38Z</time>
      </trkpt>
      <trkpt lat="44.62477" lon="0.81248">
        <ele>170</ele>
        <time>2022-08-14T14:04:40Z</time>
      </trkpt>
      <trkpt lat="44.62481" lon="0.81259">
        <ele>170.1</ele>
        <time>2022-08-14T14:04:42Z</time>
      </trkpt>
      <trkpt lat="44.62487" lon="0.81271">
        <ele>170.2</ele>
        <time>2022-08-14T14:04:44Z</time>
      </trkpt>
      <trkpt lat="44.62492" lon="0.81281">
        <ele>170.3</ele>
        <time>2022-08-14T14:04:46Z</time>
      </trkpt>
      <trkpt lat="44.62499" lon="0.81292">
        <ele>170.5</ele>
        <time>2022-08-14T14:04:48Z</time>
      </trkpt>
      <trkpt lat="44.62506" lon="0.813">
        <ele>170.2</ele>
        <time>2022-08-14T14:04:50Z</time>
      </trkpt>
      <trkpt lat="44.62511" lon="0.81311">
        <ele>170</ele>
        <time>2022-08-14T14:04:52Z</time>
      </trkpt>
      <trkpt lat="44.62516" lon="0.81321">
        <ele>169.7</ele>
        <time>2022-08-14T14:04:54Z</time>
      </trkpt>
      <trkpt lat="44.62523" lon="0.81331">
        <ele>169.3</ele>
        <time>2022-08-14T14:04:56Z</time>
      </trkpt>
      <trkpt lat="44.62528" lon="0.81341">
        <ele>168.9</ele>
        <time>2022-08-14T14:04:58Z</time>
      </trkpt>
      <trkpt lat="44.62536" lon="0.81351">
        <ele>168.2</ele>
        <time>2022-08-14T14:05:00Z</time>
      </trkpt>
      <trkpt lat="44.62542" lon="0.81361">
        <ele>167.6</ele>
        <time>2022-08-14T14:05:02Z</time>
      </trkpt>
      <trkpt lat="44.62548" lon="0.8137">
        <ele>167.1</ele>
        <time>2022-08-14T14:05:04Z</time>
      </trkpt>
      <trkpt lat="44.62554" lon="0.81379">
        <ele>166.6</ele>
        <time>2022-08-14T14:05:06Z</time>
      </trkpt>
      <trkpt lat="44.62558" lon="0.81389">
        <ele>166.1</ele>
        <time>2022-08-14T14:05:08Z</time>
      </trkpt>
      <trkpt lat="44.62566" lon="0.81396">
        <ele>165.5</ele>
        <time>2022-08-14T14:05:10Z</time>
      </trkpt>
      <trkpt lat="44.62571" lon="0.81405">
        <ele>165</ele>
        <time>2022-08-14T14:05:12Z</time>
      </trkpt>
      <trkpt lat="44.62577" lon="0.81413">
        <ele>164.5</ele>
        <time>2022-08-14T14:05:14Z</time>
      </trkpt>
      <trkpt lat="44.62583" lon="0.8142">
        <ele>164.1</ele>
        <time>2022-08-14T14:05:16Z</time>
      </trkpt>
      <trkpt lat="44.62588" lon="0.81429">
        <ele>164.3</ele>
        <time>2022-08-14T14:05:18Z</time>
      </trkpt>
      <trkpt lat="44.62593" lon="0.81437">
        <ele>164.4</ele>
        <time>2022-08-14T14:05:20Z</time>
      </trkpt>
      <trkpt lat="44.62599" lon="0.81444">
        <ele>164.5</ele>
        <time>2022-08-14T14:05:22Z</time>
      </trkpt>
      <trkpt lat="44.62603" lon="0.81451">
        <ele>164.6</ele>
        <time>2022-08-14T14:05:24Z</time>
      </trkpt>
      <trkpt lat="44.62608" lon="0.81458">
        <ele>164.7</ele>
        <time>2022-08-14T14:05:26Z</time>
      </trkpt>
      <trkpt lat="44.62613" lon="0.81466">
        <ele>164.9</ele>
        <time>2022-08-14T14:05:28Z</time>
      </trkpt>
      <trkpt lat="44.62619" lon="0.81473">
        <ele>165.1</ele>
        <time>2022-08-14T14:05:30Z</time>
      </trkpt>
      <trkpt lat="44.62624" lon="0.81481">
        <ele>165.2</ele>
        <time>2022-08-14T14:05:32Z</time>
      </trkpt>
      <trkpt lat="44.62629" lon="0.81489">
        <ele>165.4</ele>
        <time>2022-08-14T14:05:34Z</time>
      </trkpt>
      <trkpt lat="44.62633" lon="0.81497">
        <ele>165.7</ele>
        <time>2022-08-14T14:05:36Z</time>
      </trkpt>
      <trkpt lat="44.62636" lon="0.81506">
        <ele>165.8</ele>
        <time>2022-08-14T14:05:38Z</time>
      </trkpt>
      <trkpt lat="44.6264" lon="0.81514">
        <ele>165.8</ele>
        <time>2022-08-14T14:05:40Z</time>
      </trkpt>
      <trkpt lat="44.62643" lon="0.81523">
        <ele>165.9</ele>
        <time>2022-08-14T14:05:42Z</time>
      </trkpt>
      <trkpt lat="44.62646" lon="0.81532">
        <ele>166</ele>
        <time>2022-08-14T14:05:44Z</time>
      </trkpt>
      <trkpt lat="44.62649" lon="0.81542">
        <ele>166.1</ele>
        <time>2022-08-14T14:05:46Z</time>
      </trkpt>
      <trkpt lat="44.62653" lon="0.81551">
        <ele>166.3</ele>
        <time>2022-08-14T14:05:48Z</time>
      </trkpt>
      <trkpt lat="44.62656" lon="0.81561">
        <ele>166.4</ele>
        <time>2022-08-14T14:05:50Z</time>
      </trkpt>
      <trkpt lat="44.6266" lon="0.81571">
        <ele>166.7</ele>
        <time>2022-08-14T14:05:52Z</time>
      </trkpt>
      <trkpt lat="44.62663" lon="0.81581">
        <ele>166.9</ele>
        <time>2022-08-14T14:05:54Z</time>
      </trkpt>
      <trkpt lat="44.62667" lon="0.81591">
        <ele>167</ele>
        <time>2022-08-14T14:05:56Z</time>
      </trkpt>
      <trkpt lat="44.6267" lon="0.81601">
        <ele>167</ele>
        <time>2022-08-14T14:05:58Z</time>
      </trkpt>
      <trkpt lat="44.62674" lon="0.81611">
        <ele>167</ele>
        <time>2022-08-14T14:06:00Z</time>
      </trkpt>
      <trkpt lat="44.62677" lon="0.8162">
        <ele>167.1</ele>
        <time>2022-08-14T14:06:02Z</time>
      </trkpt>
      <trkpt lat="44.6268" lon="0.81631">
        <ele>167.2</ele>
        <time>2022-08-14T14:06:04Z</time>
      </trkpt>
      <trkpt lat="44.62683" lon="0.81641">
        <ele>167.4</ele>
        <time>2022-08-14T14:06:06Z</time>
      </trkpt>
      <trkpt lat="44.62687" lon="0.8165">
        <ele>167.5</ele>
        <time>2022-08-14T14:06:08Z</time>
      </trkpt>
      <trkpt lat="44.6269" lon="0.8166">
        <ele>167.8</ele>
        <time>2022-08-14T14:06:10Z</time>
      </trkpt>
      <trkpt lat="44.62693" lon="0.8167">
        <ele>167.9</ele>
        <time>2022-08-14T14:06:12Z</time>
      </trkpt>
      <trkpt lat="44.62697" lon="0.81679">
        <ele>167.8</ele>
        <time>2022-08-14T14:06:14Z</time>
      </trkpt>
      <trkpt lat="44.62702" lon="0.81688">
        <ele>167.7</ele>
        <time>2022-08-14T14:06:16Z</time>
      </trkpt>
      <trkpt lat="44.62707" lon="0.81696">
        <ele>167.6</ele>
        <time>2022-08-14T14:06:18Z</time>
      </trkpt>
      <trkpt lat="44.62711" lon="0.81705">
        <ele>167.4</ele>
        <time>2022-08-14T14:06:20Z</time>
      </trkpt>
      <trkpt lat="44.62717" lon="0.81711">
        <ele>167.3</ele>
        <time>2022-08-14T14:06:22Z</time>
      </trkpt>
      <trkpt lat="44.62723" lon="0.8172">
        <ele>167.1</ele>
        <time>2022-08-14T14:06:24Z</time>
      </trkpt>
      <trkpt lat="44.62728" lon="0.81729">
        <ele>166.8</ele>
        <time>2022-08-14T14:06:26Z</time>
      </trkpt>
      <trkpt lat="44.62735" lon="0.81737">
        <ele>166.6</ele>
        <time>2022-08-14T14:06:28Z</time>
      </trkpt>
      <trkpt lat="44.62742" lon="0.81745">
        <ele>166.2</ele>
        <time>2022-08-14T14:06:30Z</time>
      </trkpt>
      <trkpt lat="44.62748" lon="0.81755">
        <ele>165.7</ele>
        <time>2022-08-14T14:06:32Z</time>
      </trkpt>
      <trkpt lat="44.62756" lon="0.81766">
        <ele>164.9</ele>
        <time>2022-08-14T14:06:34Z</time>
      </trkpt>
      <trkpt lat="44.62763" lon="0.81776">
        <ele>164.2</ele>
        <time>2022-08-14T14:06:36Z</time>
      </trkpt>
      <trkpt lat="44.62771" lon="0.81786">
        <ele>163.5</ele>
        <time>2022-08-14T14:06:38Z</time>
      </trkpt>
      <trkpt lat="44.62779" lon="0.81797">
        <ele>162.9</ele>
        <time>2022-08-14T14:06:40Z</time>
      </trkpt>
      <trkpt lat="44.62788" lon="0.81807">
        <ele>162.5</ele>
        <time>2022-08-14T14:06:42Z</time>
      </trkpt>
      <trkpt lat="44.62796" lon="0.81819">
        <ele>162</ele>
        <time>2022-08-14T14:06:44Z</time>
      </trkpt>
      <trkpt lat="44.62805" lon="0.8183">
        <ele>161.8</ele>
        <time>2022-08-14T14:06:46Z</time>
      </trkpt>
      <trkpt lat="44.62814" lon="0.81841">
        <ele>161.6</ele>
        <time>2022-08-14T14:06:48Z</time>
      </trkpt>
      <trkpt lat="44.62823" lon="0.81852">
        <ele>161.6</ele>
        <time>2022-08-14T14:06:50Z</time>
      </trkpt>
      <trkpt lat="44.62832" lon="0.81864">
        <ele>161.6</ele>
        <time>2022-08-14T14:06:52Z</time>
      </trkpt>
      <trkpt lat="44.6284" lon="0.81876">
        <ele>161.4</ele>
        <time>2022-08-14T14:06:54Z</time>
      </trkpt>
      <trkpt lat="44.62849" lon="0.81888">
        <ele>161.1</ele>
        <time>2022-08-14T14:06:56Z</time>
      </trkpt>
      <trkpt lat="44.62857" lon="0.81901">
        <ele>160.9</ele>
        <time>2022-08-14T14:06:58Z</time>
      </trkpt>
      <trkpt lat="44.62865" lon="0.81913">
        <ele>160.6</ele>
        <time>2022-08-14T14:07:00Z</time>
      </trkpt>
      <trkpt lat="44.62873" lon="0.81926">
        <ele>160.5</ele>
        <time>2022-08-14T14:07:02Z</time>
      </trkpt>
      <trkpt lat="44.62881" lon="0.81939">
        <ele>160.3</ele>
        <time>2022-08-14T14:07:04Z</time>
      </trkpt>
      <trkpt lat="44.62888" lon="0.81951">
        <ele>160.2</ele>
        <time>2022-08-14T14:07:06Z</time>
      </trkpt>
      <trkpt lat="44.62896" lon="0.81963">
        <ele>160.1</ele>
        <time>2022-08-14T14:07:08Z</time>
      </trkpt>
      <trkpt lat="44.62903" lon="0.81975">
        <ele>160</ele>
        <time>2022-08-14T14:07:10Z</time>
      </trkpt>
      <trkpt lat="44.6291" lon="0.81986">
        <ele>160</ele>
        <time>2022-08-14T14:07:12Z</time>
      </trkpt>
      <trkpt lat="44.62917" lon="0.81997">
        <ele>160.1</ele>
        <time>2022-08-14T14:07:14Z</time>
      </trkpt>
      <trkpt lat="44.62924" lon="0.82008">
        <ele>160.4</ele>
        <time>2022-08-14T14:07:16Z</time>
      </trkpt>
      <trkpt lat="44.62931" lon="0.8202">
        <ele>160.6</ele>
        <time>2022-08-14T14:07:18Z</time>
      </trkpt>
      <trkpt lat="44.62938" lon="0.8203">
        <ele>160.8</ele>
        <time>2022-08-14T14:07:20Z</time>
      </trkpt>
      <trkpt lat="44.62945" lon="0.82042">
        <ele>160.9</ele>
        <time>2022-08-14T14:07:22Z</time>
      </trkpt>
      <trkpt lat="44.62951" lon="0.82055">
        <ele>160.7</ele>
        <time>2022-08-14T14:07:24Z</time>
      </trkpt>
      <trkpt lat="44.62956" lon="0.82068">
        <ele>160.5</ele>
        <time>2022-08-14T14:07:26Z</time>
      </trkpt>
      <trkpt lat="44.62962" lon="0.8208">
        <ele>160.3</ele>
        <time>2022-08-14T14:07:28Z</time>
      </trkpt>
      <trkpt lat="44.62968" lon="0.82091">
        <ele>160.3</ele>
        <time>2022-08-14T14:07:30Z</time>
      </trkpt>
      <trkpt lat="44.62974" lon="0.82104">
        <ele>160.2</ele>
        <time>2022-08-14T14:07:32Z</time>
      </trkpt>
      <trkpt lat="44.62979" lon="0.82115">
        <ele>160</ele>
        <time>2022-08-14T14:07:34Z</time>
      </trkpt>
      <trkpt lat="44.62984" lon="0.82125">
        <ele>159.9</ele>
        <time>2022-08-14T14:07:36Z</time>
      </trkpt>
      <trkpt lat="44.62987" lon="0.82135">
        <ele>159.7</ele>
        <time>2022-08-14T14:07:38Z</time>
      </trkpt>
      <trkpt lat="44.62992" lon="0.82144">
        <ele>159.6</ele>
        <time>2022-08-14T14:07:40Z</time>
      </trkpt>
      <trkpt lat="44.62995" lon="0.82152">
        <ele>159.4</ele>
        <time>2022-08-14T14:07:42Z</time>
      </trkpt>
      <trkpt lat="44.62999" lon="0.82161">
        <ele>159.2</ele>
        <time>2022-08-14T14:07:44Z</time>
      </trkpt>
      <trkpt lat="44.63004" lon="0.82171">
        <ele>159.2</ele>
        <time>2022-08-14T14:07:46Z</time>
      </trkpt>
      <trkpt lat="44.6301" lon="0.82181">
        <ele>159.7</ele>
        <time>2022-08-14T14:07:48Z</time>
      </trkpt>
      <trkpt lat="44.63015" lon="0.82191">
        <ele>160.2</ele>
        <time>2022-08-14T14:07:50Z</time>
      </trkpt>
      <trkpt lat="44.63019" lon="0.82201">
        <ele>160.8</ele>
        <time>2022-08-14T14:07:52Z</time>
      </trkpt>
      <trkpt lat="44.63023" lon="0.82211">
        <ele>161.3</ele>
        <time>2022-08-14T14:07:54Z</time>
      </trkpt>
      <trkpt lat="44.63028" lon="0.8222">
        <ele>161.9</ele>
        <time>2022-08-14T14:07:56Z</time>
      </trkpt>
      <trkpt lat="44.63032" lon="0.82229">
        <ele>162.5</ele>
        <time>2022-08-14T14:07:58Z</time>
      </trkpt>
      <trkpt lat="44.63036" lon="0.82238">
        <ele>163.1</ele>
        <time>2022-08-14T14:08:00Z</time>
      </trkpt>
      <trkpt lat="44.63039" lon="0.82247">
        <ele>163.7</ele>
        <time>2022-08-14T14:08:02Z</time>
      </trkpt>
      <trkpt lat="44.63042" lon="0.82256">
        <ele>164</ele>
        <time>2022-08-14T14:08:04Z</time>
      </trkpt>
      <trkpt lat="44.63045" lon="0.82264">
        <ele>164.1</ele>
        <time>2022-08-14T14:08:06Z</time>
      </trkpt>
      <trkpt lat="44.63048" lon="0.82273">
        <ele>164.1</ele>
        <time>2022-08-14T14:08:08Z</time>
      </trkpt>
      <trkpt lat="44.63051" lon="0.82282">
        <ele>164.2</ele>
        <time>2022-08-14T14:08:10Z</time>
      </trkpt>
      <trkpt lat="44.63053" lon="0.8229">
        <ele>164.2</ele>
        <time>2022-08-14T14:08:12Z</time>
      </trkpt>
      <trkpt lat="44.63055" lon="0.82297">
        <ele>164.3</ele>
        <time>2022-08-14T14:08:14Z</time>
      </trkpt>
      <trkpt lat="44.63058" lon="0.82305">
        <ele>164.3</ele>
        <time>2022-08-14T14:08:16Z</time>
      </trkpt>
      <trkpt lat="44.63059" lon="0.82313">
        <ele>164.3</ele>
        <time>2022-08-14T14:08:18Z</time>
      </trkpt>
      <trkpt lat="44.63061" lon="0.82321">
        <ele>164.3</ele>
        <time>2022-08-14T14:08:20Z</time>
      </trkpt>
      <trkpt lat="44.63063" lon="0.82328">
        <ele>164.3</ele>
        <time>2022-08-14T14:08:22Z</time>
      </trkpt>
      <trkpt lat="44.63065" lon="0.82335">
        <ele>164.4</ele>
        <time>2022-08-14T14:08:24Z</time>
      </trkpt>
      <trkpt lat="44.63067" lon="0.82343">
        <ele>164.7</ele>
        <time>2022-08-14T14:08:26Z</time>
      </trkpt>
      <trkpt lat="44.6307" lon="0.82351">
        <ele>165</ele>
        <time>2022-08-14T14:08:28Z</time>
      </trkpt>
      <trkpt lat="44.63073" lon="0.82359">
        <ele>165.3</ele>
        <time>2022-08-14T14:08:30Z</time>
      </trkpt>
      <trkpt lat="44.63075" lon="0.82367">
        <ele>165.6</ele>
        <time>2022-08-14T14:08:32Z</time>
      </trkpt>
      <trkpt lat="44.63077" lon="0.82375">
        <ele>165.9</ele>
        <time>2022-08-14T14:08:34Z</time>
      </trkpt>
      <trkpt lat="44.6308" lon="0.82383">
        <ele>166.1</ele>
        <time>2022-08-14T14:08:36Z</time>
      </trkpt>
      <trkpt lat="44.63081" lon="0.8239">
        <ele>166.3</ele>
        <time>2022-08-14T14:08:38Z</time>
      </trkpt>
      <trkpt lat="44.63084" lon="0.82397">
        <ele>166.5</ele>
        <time>2022-08-14T14:08:40Z</time>
      </trkpt>
      <trkpt lat="44.63086" lon="0.82404">
        <ele>166.7</ele>
        <time>2022-08-14T14:08:42Z</time>
      </trkpt>
      <trkpt lat="44.63087" lon="0.82411">
        <ele>166.9</ele>
        <time>2022-08-14T14:08:44Z</time>
      </trkpt>
      <trkpt lat="44.63089" lon="0.82418">
        <ele>167.1</ele>
        <time>2022-08-14T14:08:46Z</time>
      </trkpt>
      <trkpt lat="44.63091" lon="0.82424">
        <ele>167.2</ele>
        <time>2022-08-14T14:08:48Z</time>
      </trkpt>
      <trkpt lat="44.63093" lon="0.82432">
        <ele>167.3</ele>
        <time>2022-08-14T14:08:50Z</time>
      </trkpt>
      <trkpt lat="44.63094" lon="0.82439">
        <ele>167.4</ele>
        <time>2022-08-14T14:08:52Z</time>
      </trkpt>
      <trkpt lat="44.63097" lon="0.82446">
        <ele>167.5</ele>
        <time>2022-08-14T14:08:54Z</time>
      </trkpt>
      <trkpt lat="44.63099" lon="0.82453">
        <ele>167.6</ele>
        <time>2022-08-14T14:08:56Z</time>
      </trkpt>
      <trkpt lat="44.63101" lon="0.8246">
        <ele>167.7</ele>
        <time>2022-08-14T14:08:58Z</time>
      </trkpt>
      <trkpt lat="44.63103" lon="0.82467">
        <ele>167.8</ele>
        <time>2022-08-14T14:09:00Z</time>
      </trkpt>
      <trkpt lat="44.63106" lon="0.82474">
        <ele>168</ele>
        <time>2022-08-14T14:09:02Z</time>
      </trkpt>
      <trkpt lat="44.63108" lon="0.82482">
        <ele>168.1</ele>
        <time>2022-08-14T14:09:04Z</time>
      </trkpt>
      <trkpt lat="44.63111" lon="0.82489">
        <ele>168.2</ele>
        <time>2022-08-14T14:09:06Z</time>
      </trkpt>
      <trkpt lat="44.63113" lon="0.82497">
        <ele>168.3</ele>
        <time>2022-08-14T14:09:08Z</time>
      </trkpt>
      <trkpt lat="44.63116" lon="0.82505">
        <ele>168.5</ele>
        <time>2022-08-14T14:09:10Z</time>
      </trkpt>
      <trkpt lat="44.63119" lon="0.82513">
        <ele>168.6</ele>
        <time>2022-08-14T14:09:12Z</time>
      </trkpt>
      <trkpt lat="44.63122" lon="0.82522">
        <ele>168.7</ele>
        <time>2022-08-14T14:09:14Z</time>
      </trkpt>
      <trkpt lat="44.63125" lon="0.8253">
        <ele>168.9</ele>
        <time>2022-08-14T14:09:16Z</time>
      </trkpt>
      <trkpt lat="44.63128" lon="0.82539">
        <ele>169</ele>
        <time>2022-08-14T14:09:18Z</time>
      </trkpt>
      <trkpt lat="44.63132" lon="0.82548">
        <ele>169.2</ele>
        <time>2022-08-14T14:09:20Z</time>
      </trkpt>
      <trkpt lat="44.63136" lon="0.82557">
        <ele>169.3</ele>
        <time>2022-08-14T14:09:22Z</time>
      </trkpt>
      <trkpt lat="44.6314" lon="0.82567">
        <ele>169.5</ele>
        <time>2022-08-14T14:09:24Z</time>
      </trkpt>
      <trkpt lat="44.63144" lon="0.82576">
        <ele>169.6</ele>
        <time>2022-08-14T14:09:26Z</time>
      </trkpt>
      <trkpt lat="44.63148" lon="0.82585">
        <ele>169.8</ele>
        <time>2022-08-14T14:09:28Z</time>
      </trkpt>
      <trkpt lat="44.63153" lon="0.82595">
        <ele>169.7</ele>
        <time>2022-08-14T14:09:30Z</time>
      </trkpt>
      <trkpt lat="44.63157" lon="0.82605">
        <ele>169.6</ele>
        <time>2022-08-14T14:09:32Z</time>
      </trkpt>
      <trkpt lat="44.63162" lon="0.82614">
        <ele>169.6</ele>
        <time>2022-08-14T14:09:34Z</time>
      </trkpt>
      <trkpt lat="44.63167" lon="0.82624">
        <ele>169.5</ele>
        <time>2022-08-14T14:09:36Z</time>
      </trkpt>
      <trkpt lat="44.63171" lon="0.82633">
        <ele>169.3</ele>
        <time>2022-08-14T14:09:38Z</time>
      </trkpt>
      <trkpt lat="44.63177" lon="0.8264">
        <ele>169</ele>
        <time>2022-08-14T14:09:40Z</time>
      </trkpt>
      <trkpt lat="44.63182" lon="0.8265">
        <ele>168.8</ele>
        <time>2022-08-14T14:09:42Z</time>
      </trkpt>
      <trkpt lat="44.63187" lon="0.82659">
        <ele>168.6</ele>
        <time>2022-08-14T14:09:44Z</time>
      </trkpt>
      <trkpt lat="44.63193" lon="0.82666">
        <ele>168.4</ele>
        <time>2022-08-14T14:09:46Z</time>
      </trkpt>
      <trkpt lat="44.63199" lon="0.82673">
        <ele>168.3</ele>
        <time>2022-08-14T14:09:48Z</time>
      </trkpt>
      <trkpt lat="44.63204" lon="0.82681">
        <ele>168.3</ele>
        <time>2022-08-14T14:09:50Z</time>
      </trkpt>
      <trkpt lat="44.6321" lon="0.82689">
        <ele>168.4</ele>
        <time>2022-08-14T14:09:52Z</time>
      </trkpt>
      <trkpt lat="44.63215" lon="0.82698">
        <ele>168.4</ele>
        <time>2022-08-14T14:09:54Z</time>
      </trkpt>
      <trkpt lat="44.63222" lon="0.82704">
        <ele>168.4</ele>
        <time>2022-08-14T14:09:56Z</time>
      </trkpt>
      <trkpt lat="44.63228" lon="0.82712">
        <ele>168.5</ele>
        <time>2022-08-14T14:09:58Z</time>
      </trkpt>
      <trkpt lat="44.63233" lon="0.82719">
        <ele>168.5</ele>
        <time>2022-08-14T14:10:00Z</time>
      </trkpt>
      <trkpt lat="44.63239" lon="0.82726">
        <ele>168.6</ele>
        <time>2022-08-14T14:10:02Z</time>
      </trkpt>
      <trkpt lat="44.63245" lon="0.82733">
        <ele>168.7</ele>
        <time>2022-08-14T14:10:04Z</time>
      </trkpt>
      <trkpt lat="44.6325" lon="0.8274">
        <ele>168.8</ele>
        <time>2022-08-14T14:10:06Z</time>
      </trkpt>
      <trkpt lat="44.63255" lon="0.82748">
        <ele>168.9</ele>
        <time>2022-08-14T14:10:08Z</time>
      </trkpt>
      <trkpt lat="44.6326" lon="0.82755">
        <ele>169</ele>
        <time>2022-08-14T14:10:10Z</time>
      </trkpt>
      <trkpt lat="44.63265" lon="0.82762">
        <ele>169.1</ele>
        <time>2022-08-14T14:10:12Z</time>
      </trkpt>
      <trkpt lat="44.6327" lon="0.82769">
        <ele>169.2</ele>
        <time>2022-08-14T14:10:14Z</time>
      </trkpt>
      <trkpt lat="44.63276" lon="0.82776">
        <ele>169.3</ele>
        <time>2022-08-14T14:10:16Z</time>
      </trkpt>
      <trkpt lat="44.63281" lon="0.82783">
        <ele>169.4</ele>
        <time>2022-08-14T14:10:18Z</time>
      </trkpt>
      <trkpt lat="44.63286" lon="0.82789">
        <ele>169.5</ele>
        <time>2022-08-14T14:10:20Z</time>
      </trkpt>
      <trkpt lat="44.63291" lon="0.82796">
        <ele>169.6</ele>
        <time>2022-08-14T14:10:22Z</time>
      </trkpt>
      <trkpt lat="44.63296" lon="0.82803">
        <ele>169.7</ele>
        <time>2022-08-14T14:10:24Z</time>
      </trkpt>
      <trkpt lat="44.63302" lon="0.8281">
        <ele>169.8</ele>
        <time>2022-08-14T14:10:26Z</time>
      </trkpt>
      <trkpt lat="44.63307" lon="0.82817">
        <ele>169.9</ele>
        <time>2022-08-14T14:10:28Z</time>
      </trkpt>
      <trkpt lat="44.63312" lon="0.82825">
        <ele>170.1</ele>
        <time>2022-08-14T14:10:30Z</time>
      </trkpt>
      <trkpt lat="44.63317" lon="0.82833">
        <ele>170.2</ele>
        <time>2022-08-14T14:10:32Z</time>
      </trkpt>
      <trkpt lat="44.63321" lon="0.82842">
        <ele>170.2</ele>
        <time>2022-08-14T14:10:34Z</time>
      </trkpt>
      <trkpt lat="44.63327" lon="0.8285">
        <ele>170.3</ele>
        <time>2022-08-14T14:10:36Z</time>
      </trkpt>
      <trkpt lat="44.63332" lon="0.82858">
        <ele>170.3</ele>
        <time>2022-08-14T14:10:38Z</time>
      </trkpt>
      <trkpt lat="44.63338" lon="0.82866">
        <ele>170.2</ele>
        <time>2022-08-14T14:10:40Z</time>
      </trkpt>
      <trkpt lat="44.63343" lon="0.82874">
        <ele>170.1</ele>
        <time>2022-08-14T14:10:42Z</time>
      </trkpt>
      <trkpt lat="44.63349" lon="0.82882">
        <ele>169.9</ele>
        <time>2022-08-14T14:10:44Z</time>
      </trkpt>
      <trkpt lat="44.63355" lon="0.8289">
        <ele>169.8</ele>
        <time>2022-08-14T14:10:46Z</time>
      </trkpt>
      <trkpt lat="44.6336" lon="0.82899">
        <ele>169.8</ele>
        <time>2022-08-14T14:10:48Z</time>
      </trkpt>
      <trkpt lat="44.63365" lon="0.82908">
        <ele>169.7</ele>
        <time>2022-08-14T14:10:50Z</time>
      </trkpt>
      <trkpt lat="44.6337" lon="0.82916">
        <ele>169.7</ele>
        <time>2022-08-14T14:10:52Z</time>
      </trkpt>
      <trkpt lat="44.63374" lon="0.82925">
        <ele>169.5</ele>
        <time>2022-08-14T14:10:54Z</time>
      </trkpt>
      <trkpt lat="44.63379" lon="0.82934">
        <ele>169.3</ele>
        <time>2022-08-14T14:10:56Z</time>
      </trkpt>
      <trkpt lat="44.63383" lon="0.82943">
        <ele>169.2</ele>
        <time>2022-08-14T14:10:58Z</time>
      </trkpt>
      <trkpt lat="44.63387" lon="0.82953">
        <ele>169.2</ele>
        <time>2022-08-14T14:11:00Z</time>
      </trkpt>
      <trkpt lat="44.63391" lon="0.82962">
        <ele>169.2</ele>
        <time>2022-08-14T14:11:02Z</time>
      </trkpt>
      <trkpt lat="44.63395" lon="0.82973">
        <ele>169.2</ele>
        <time>2022-08-14T14:11:04Z</time>
      </trkpt>
      <trkpt lat="44.63398" lon="0.82982">
        <ele>169.4</ele>
        <time>2022-08-14T14:11:06Z</time>
      </trkpt>
      <trkpt lat="44.63402" lon="0.82991">
        <ele>169.5</ele>
        <time>2022-08-14T14:11:08Z</time>
      </trkpt>
      <trkpt lat="44.63406" lon="0.83">
        <ele>169.8</ele>
        <time>2022-08-14T14:11:10Z</time>
      </trkpt>
      <trkpt lat="44.6341" lon="0.8301">
        <ele>169.9</ele>
        <time>2022-08-14T14:11:12Z</time>
      </trkpt>
      <trkpt lat="44.63414" lon="0.83019">
        <ele>170.1</ele>
        <time>2022-08-14T14:11:14Z</time>
      </trkpt>
      <trkpt lat="44.63418" lon="0.83027">
        <ele>170.4</ele>
        <time>2022-08-14T14:11:16Z</time>
      </trkpt>
      <trkpt lat="44.63421" lon="0.83036">
        <ele>170.6</ele>
        <time>2022-08-14T14:11:18Z</time>
      </trkpt>
      <trkpt lat="44.63425" lon="0.83044">
        <ele>170.9</ele>
        <time>2022-08-14T14:11:20Z</time>
      </trkpt>
      <trkpt lat="44.63429" lon="0.83053">
        <ele>171.3</ele>
        <time>2022-08-14T14:11:22Z</time>
      </trkpt>
      <trkpt lat="44.63433" lon="0.83061">
        <ele>171.6</ele>
        <time>2022-08-14T14:11:24Z</time>
      </trkpt>
      <trkpt lat="44.63437" lon="0.83068">
        <ele>172</ele>
        <time>2022-08-14T14:11:26Z</time>
      </trkpt>
      <trkpt lat="44.63441" lon="0.83076">
        <ele>172.3</ele>
        <time>2022-08-14T14:11:28Z</time>
      </trkpt>
      <trkpt lat="44.63445" lon="0.83083">
        <ele>172.7</ele>
        <time>2022-08-14T14:11:30Z</time>
      </trkpt>
      <trkpt lat="44.63448" lon="0.8309">
        <ele>172.9</ele>
        <time>2022-08-14T14:11:32Z</time>
      </trkpt>
      <trkpt lat="44.63451" lon="0.83096">
        <ele>173.2</ele>
        <time>2022-08-14T14:11:34Z</time>
      </trkpt>
      <trkpt lat="44.63454" lon="0.83101">
        <ele>173.4</ele>
        <time>2022-08-14T14:11:36Z</time>
      </trkpt>
      <trkpt lat="44.63457" lon="0.83106">
        <ele>173.7</ele>
        <time>2022-08-14T14:11:38Z</time>
      </trkpt>
      <trkpt lat="44.63459" lon="0.83111">
        <ele>173.9</ele>
        <time>2022-08-14T14:11:40Z</time>
      </trkpt>
      <trkpt lat="44.63461" lon="0.83117">
        <ele>174.1</ele>
        <time>2022-08-14T14:11:42Z</time>
      </trkpt>
      <trkpt lat="44.63464" lon="0.83122">
        <ele>174.4</ele>
        <time>2022-08-14T14:11:44Z</time>
      </trkpt>
      <trkpt lat="44.63467" lon="0.83127">
        <ele>174.7</ele>
        <time>2022-08-14T14:11:46Z</time>
      </trkpt>
      <trkpt lat="44.63469" lon="0.83132">
        <ele>174.9</ele>
        <time>2022-08-14T14:11:48Z</time>
      </trkpt>
      <trkpt lat="44.63471" lon="0.83136">
        <ele>175.1</ele>
        <time>2022-08-14T14:11:50Z</time>
      </trkpt>
      <trkpt lat="44.63474" lon="0.83141">
        <ele>175.4</ele>
        <time>2022-08-14T14:11:52Z</time>
      </trkpt>
      <trkpt lat="44.63476" lon="0.83145">
        <ele>175.6</ele>
        <time>2022-08-14T14:11:54Z</time>
      </trkpt>
      <trkpt lat="44.63479" lon="0.8315">
        <ele>175.9</ele>
        <time>2022-08-14T14:11:56Z</time>
      </trkpt>
      <trkpt lat="44.63481" lon="0.83154">
        <ele>176.2</ele>
        <time>2022-08-14T14:11:58Z</time>
      </trkpt>
      <trkpt lat="44.63483" lon="0.83159">
        <ele>176.5</ele>
        <time>2022-08-14T14:12:00Z</time>
      </trkpt>
      <trkpt lat="44.63485" lon="0.83164">
        <ele>176.7</ele>
        <time>2022-08-14T14:12:02Z</time>
      </trkpt>
      <trkpt lat="44.63488" lon="0.83168">
        <ele>177</ele>
        <time>2022-08-14T14:12:04Z</time>
      </trkpt>
      <trkpt lat="44.63491" lon="0.83172">
        <ele>177.3</ele>
        <time>2022-08-14T14:12:06Z</time>
      </trkpt>
      <trkpt lat="44.63493" lon="0.83177">
        <ele>177.5</ele>
        <time>2022-08-14T14:12:08Z</time>
      </trkpt>
      <trkpt lat="44.63496" lon="0.83181">
        <ele>177.8</ele>
        <time>2022-08-14T14:12:10Z</time>
      </trkpt>
      <trkpt lat="44.63498" lon="0.83186">
        <ele>178.1</ele>
        <time>2022-08-14T14:12:12Z</time>
      </trkpt>
      <trkpt lat="44.63501" lon="0.83191">
        <ele>178.4</ele>
        <time>2022-08-14T14:12:14Z</time>
      </trkpt>
      <trkpt lat="44.63504" lon="0.83196">
        <ele>178.6</ele>
        <time>2022-08-14T14:12:16Z</time>
      </trkpt>
      <trkpt lat="44.63507" lon="0.83202">
        <ele>178.8</ele>
        <time>2022-08-14T14:12:18Z</time>
      </trkpt>
      <trkpt lat="44.6351" lon="0.83207">
        <ele>179.1</ele>
        <time>2022-08-14T14:12:20Z</time>
      </trkpt>
      <trkpt lat="44.63513" lon="0.83212">
        <ele>179.3</ele>
        <time>2022-08-14T14:12:22Z</time>
      </trkpt>
      <trkpt lat="44.63515" lon="0.83217">
        <ele>179.6</ele>
        <time>2022-08-14T14:12:24Z</time>
      </trkpt>
      <trkpt lat="44.63518" lon="0.83223">
        <ele>180</ele>
        <time>2022-08-14T14:12:26Z</time>
      </trkpt>
      <trkpt lat="44.6352" lon="0.83228">
        <ele>180.3</ele>
        <time>2022-08-14T14:12:28Z</time>
      </trkpt>
      <trkpt lat="44.63523" lon="0.83234">
        <ele>180.7</ele>
        <time>2022-08-14T14:12:30Z</time>
      </trkpt>
      <trkpt lat="44.63525" lon="0.8324">
        <ele>181.1</ele>
        <time>2022-08-14T14:12:32Z</time>
      </trkpt>
      <trkpt lat="44.63527" lon="0.83246">
        <ele>181.4</ele>
        <time>2022-08-14T14:12:34Z</time>
      </trkpt>
      <trkpt lat="44.63529" lon="0.83252">
        <ele>181.8</ele>
        <time>2022-08-14T14:12:36Z</time>
      </trkpt>
      <trkpt lat="44.6353" lon="0.83258">
        <ele>182.1</ele>
        <time>2022-08-14T14:12:38Z</time>
      </trkpt>
      <trkpt lat="44.63532" lon="0.83264">
        <ele>182.5</ele>
        <time>2022-08-14T14:12:40Z</time>
      </trkpt>
      <trkpt lat="44.63533" lon="0.8327">
        <ele>182.8</ele>
        <time>2022-08-14T14:12:42Z</time>
      </trkpt>
      <trkpt lat="44.63534" lon="0.83276">
        <ele>183.2</ele>
        <time>2022-08-14T14:12:44Z</time>
      </trkpt>
      <trkpt lat="44.63536" lon="0.83282">
        <ele>183.5</ele>
        <time>2022-08-14T14:12:46Z</time>
      </trkpt>
      <trkpt lat="44.63537" lon="0.83288">
        <ele>183.9</ele>
        <time>2022-08-14T14:12:48Z</time>
      </trkpt>
      <trkpt lat="44.63537" lon="0.83294">
        <ele>184.1</ele>
        <time>2022-08-14T14:12:50Z</time>
      </trkpt>
      <trkpt lat="44.63538" lon="0.83299">
        <ele>184.4</ele>
        <time>2022-08-14T14:12:52Z</time>
      </trkpt>
      <trkpt lat="44.63539" lon="0.83305">
        <ele>184.7</ele>
        <time>2022-08-14T14:12:54Z</time>
      </trkpt>
      <trkpt lat="44.6354" lon="0.83311">
        <ele>185</ele>
        <time>2022-08-14T14:12:56Z</time>
      </trkpt>
      <trkpt lat="44.63541" lon="0.83316">
        <ele>185.3</ele>
        <time>2022-08-14T14:12:58Z</time>
      </trkpt>
      <trkpt lat="44.63542" lon="0.83322">
        <ele>185.6</ele>
        <time>2022-08-14T14:13:00Z</time>
      </trkpt>
      <trkpt lat="44.63543" lon="0.83328">
        <ele>185.9</ele>
        <time>2022-08-14T14:13:02Z</time>
      </trkpt>
      <trkpt lat="44.63543" lon="0.83334">
        <ele>186.2</ele>
        <time>2022-08-14T14:13:04Z</time>
      </trkpt>
      <trkpt lat="44.63545" lon="0.83339">
        <ele>186.7</ele>
        <time>2022-08-14T14:13:06Z</time>
      </trkpt>
      <trkpt lat="44.63546" lon="0.83345">
        <ele>187.1</ele>
        <time>2022-08-14T14:13:08Z</time>
      </trkpt>
      <trkpt lat="44.63547" lon="0.83351">
        <ele>187.5</ele>
        <time>2022-08-14T14:13:10Z</time>
      </trkpt>
      <trkpt lat="44.63548" lon="0.83357">
        <ele>187.9</ele>
        <time>2022-08-14T14:13:12Z</time>
      </trkpt>
      <trkpt lat="44.63549" lon="0.83363">
        <ele>188.4</ele>
        <time>2022-08-14T14:13:14Z</time>
      </trkpt>
      <trkpt lat="44.6355" lon="0.83369">
        <ele>188.8</ele>
        <time>2022-08-14T14:13:16Z</time>
      </trkpt>
      <trkpt lat="44.6355" lon="0.83375">
        <ele>189.2</ele>
        <time>2022-08-14T14:13:18Z</time>
      </trkpt>
      <trkpt lat="44.63551" lon="0.83381">
        <ele>189.7</ele>
        <time>2022-08-14T14:13:20Z</time>
      </trkpt>
      <trkpt lat="44.63552" lon="0.83386">
        <ele>190.2</ele>
        <time>2022-08-14T14:13:22Z</time>
      </trkpt>
      <trkpt lat="44.63553" lon="0.83392">
        <ele>190.6</ele>
        <time>2022-08-14T14:13:24Z</time>
      </trkpt>
      <trkpt lat="44.63554" lon="0.83398">
        <ele>191</ele>
        <time>2022-08-14T14:13:26Z</time>
      </trkpt>
      <trkpt lat="44.63555" lon="0.83405">
        <ele>191.5</ele>
        <time>2022-08-14T14:13:28Z</time>
      </trkpt>
      <trkpt lat="44.63555" lon="0.83412">
        <ele>191.9</ele>
        <time>2022-08-14T14:13:30Z</time>
      </trkpt>
      <trkpt lat="44.63555" lon="0.83418">
        <ele>192.4</ele>
        <time>2022-08-14T14:13:32Z</time>
      </trkpt>
      <trkpt lat="44.63556" lon="0.83424">
        <ele>192.9</ele>
        <time>2022-08-14T14:13:34Z</time>
      </trkpt>
      <trkpt lat="44.63557" lon="0.83429">
        <ele>193.4</ele>
        <time>2022-08-14T14:13:36Z</time>
      </trkpt>
      <trkpt lat="44.63558" lon="0.83435">
        <ele>193.9</ele>
        <time>2022-08-14T14:13:38Z</time>
      </trkpt>
      <trkpt lat="44.63557" lon="0.83441">
        <ele>194.3</ele>
        <time>2022-08-14T14:13:40Z</time>
      </trkpt>
      <trkpt lat="44.63558" lon="0.83446">
        <ele>194.8</ele>
        <time>2022-08-14T14:13:42Z</time>
      </trkpt>
      <trkpt lat="44.63559" lon="0.83453">
        <ele>195.3</ele>
        <time>2022-08-14T14:13:44Z</time>
      </trkpt>
      <trkpt lat="44.63559" lon="0.83459">
        <ele>195.7</ele>
        <time>2022-08-14T14:13:46Z</time>
      </trkpt>
      <trkpt lat="44.6356" lon="0.83466">
        <ele>196.2</ele>
        <time>2022-08-14T14:13:48Z</time>
      </trkpt>
      <trkpt lat="44.63559" lon="0.83473">
        <ele>196.6</ele>
        <time>2022-08-14T14:13:50Z</time>
      </trkpt>
      <trkpt lat="44.63558" lon="0.8348">
        <ele>197</ele>
        <time>2022-08-14T14:13:52Z</time>
      </trkpt>
      <trkpt lat="44.63557" lon="0.83487">
        <ele>197.2</ele>
        <time>2022-08-14T14:13:54Z</time>
      </trkpt>
      <trkpt lat="44.63556" lon="0.83493">
        <ele>197.5</ele>
        <time>2022-08-14T14:13:56Z</time>
      </trkpt>
      <trkpt lat="44.63555" lon="0.83499">
        <ele>197.9</ele>
        <time>2022-08-14T14:13:58Z</time>
      </trkpt>
      <trkpt lat="44.63554" lon="0.83506">
        <ele>198.2</ele>
        <time>2022-08-14T14:14:00Z</time>
      </trkpt>
      <trkpt lat="44.63553" lon="0.83513">
        <ele>198.6</ele>
        <time>2022-08-14T14:14:02Z</time>
      </trkpt>
      <trkpt lat="44.63552" lon="0.8352">
        <ele>198.9</ele>
        <time>2022-08-14T14:14:04Z</time>
      </trkpt>
      <trkpt lat="44.63551" lon="0.83524">
        <ele>199.2</ele>
        <time>2022-08-14T14:14:06Z</time>
      </trkpt>
      <trkpt lat="44.6355" lon="0.83529">
        <ele>199.4</ele>
        <time>2022-08-14T14:14:08Z</time>
      </trkpt>
      <trkpt lat="44.63548" lon="0.83536">
        <ele>199.6</ele>
        <time>2022-08-14T14:14:10Z</time>
      </trkpt>
      <trkpt lat="44.63547" lon="0.83543">
        <ele>200</ele>
        <time>2022-08-14T14:14:12Z</time>
      </trkpt>
      <trkpt lat="44.63547" lon="0.83549">
        <ele>200.4</ele>
        <time>2022-08-14T14:14:14Z</time>
      </trkpt>
      <trkpt lat="44.63546" lon="0.83558">
        <ele>200.9</ele>
        <time>2022-08-14T14:14:16Z</time>
      </trkpt>
      <trkpt lat="44.63545" lon="0.83564">
        <ele>201.4</ele>
        <time>2022-08-14T14:14:18Z</time>
      </trkpt>
      <trkpt lat="44.63545" lon="0.8357">
        <ele>201.7</ele>
        <time>2022-08-14T14:14:20Z</time>
      </trkpt>
      <trkpt lat="44.63544" lon="0.83578">
        <ele>202.3</ele>
        <time>2022-08-14T14:14:22Z</time>
      </trkpt>
      <trkpt lat="44.63543" lon="0.83583">
        <ele>202.6</ele>
        <time>2022-08-14T14:14:24Z</time>
      </trkpt>
      <trkpt lat="44.63543" lon="0.8359">
        <ele>202.6</ele>
        <time>2022-08-14T14:14:26Z</time>
      </trkpt>
      <trkpt lat="44.63542" lon="0.83597">
        <ele>202.6</ele>
        <time>2022-08-14T14:14:28Z</time>
      </trkpt>
      <trkpt lat="44.63542" lon="0.83603">
        <ele>202.6</ele>
        <time>2022-08-14T14:14:30Z</time>
      </trkpt>
      <trkpt lat="44.63541" lon="0.83609">
        <ele>202.6</ele>
        <time>2022-08-14T14:14:32Z</time>
      </trkpt>
      <trkpt lat="44.63541" lon="0.83617">
        <ele>202.6</ele>
        <time>2022-08-14T14:14:34Z</time>
      </trkpt>
      <trkpt lat="44.6354" lon="0.83623">
        <ele>202.6</ele>
        <time>2022-08-14T14:14:36Z</time>
      </trkpt>
      <trkpt lat="44.6354" lon="0.8363">
        <ele>202.7</ele>
        <time>2022-08-14T14:14:38Z</time>
      </trkpt>
      <trkpt lat="44.6354" lon="0.83637">
        <ele>202.7</ele>
        <time>2022-08-14T14:14:40Z</time>
      </trkpt>
      <trkpt lat="44.6354" lon="0.83644">
        <ele>202.8</ele>
        <time>2022-08-14T14:14:42Z</time>
      </trkpt>
      <trkpt lat="44.6354" lon="0.83652">
        <ele>202.8</ele>
        <time>2022-08-14T14:14:44Z</time>
      </trkpt>
      <trkpt lat="44.63541" lon="0.8366">
        <ele>202.9</ele>
        <time>2022-08-14T14:14:46Z</time>
      </trkpt>
      <trkpt lat="44.63542" lon="0.83668">
        <ele>202.9</ele>
        <time>2022-08-14T14:14:48Z</time>
      </trkpt>
      <trkpt lat="44.63542" lon="0.83676">
        <ele>202.4</ele>
        <time>2022-08-14T14:14:50Z</time>
      </trkpt>
      <trkpt lat="44.63543" lon="0.83687">
        <ele>201.6</ele>
        <time>2022-08-14T14:14:52Z</time>
      </trkpt>
      <trkpt lat="44.63544" lon="0.83699">
        <ele>200.9</ele>
        <time>2022-08-14T14:14:54Z</time>
      </trkpt>
      <trkpt lat="44.63545" lon="0.83711">
        <ele>200.1</ele>
        <time>2022-08-14T14:14:56Z</time>
      </trkpt>
      <trkpt lat="44.63546" lon="0.83725">
        <ele>199.1</ele>
        <time>2022-08-14T14:14:58Z</time>
      </trkpt>
      <trkpt lat="44.63548" lon="0.8374">
        <ele>198.4</ele>
        <time>2022-08-14T14:15:00Z</time>
      </trkpt>
      <trkpt lat="44.63549" lon="0.83756">
        <ele>197.5</ele>
        <time>2022-08-14T14:15:02Z</time>
      </trkpt>
      <trkpt lat="44.6355" lon="0.83773">
        <ele>197</ele>
        <time>2022-08-14T14:15:04Z</time>
      </trkpt>
      <trkpt lat="44.63552" lon="0.8379">
        <ele>196.4</ele>
        <time>2022-08-14T14:15:06Z</time>
      </trkpt>
      <trkpt lat="44.63553" lon="0.83808">
        <ele>195.7</ele>
        <time>2022-08-14T14:15:08Z</time>
      </trkpt>
      <trkpt lat="44.63555" lon="0.83826">
        <ele>195</ele>
        <time>2022-08-14T14:15:10Z</time>
      </trkpt>
      <trkpt lat="44.63555" lon="0.83845">
        <ele>194.6</ele>
        <time>2022-08-14T14:15:12Z</time>
      </trkpt>
      <trkpt lat="44.63556" lon="0.83863">
        <ele>194.4</ele>
        <time>2022-08-14T14:15:14Z</time>
      </trkpt>
      <trkpt lat="44.63554" lon="0.8388">
        <ele>194.3</ele>
        <time>2022-08-14T14:15:16Z</time>
      </trkpt>
      <trkpt lat="44.63552" lon="0.83897">
        <ele>194.2</ele>
        <time>2022-08-14T14:15:18Z</time>
      </trkpt>
      <trkpt lat="44.63552" lon="0.83913">
        <ele>194.1</ele>
        <time>2022-08-14T14:15:20Z</time>
      </trkpt>
      <trkpt lat="44.63551" lon="0.83929">
        <ele>194</ele>
        <time>2022-08-14T14:15:22Z</time>
      </trkpt>
      <trkpt lat="44.63551" lon="0.83946">
        <ele>193.7</ele>
        <time>2022-08-14T14:15:24Z</time>
      </trkpt>
      <trkpt lat="44.63551" lon="0.83961">
        <ele>193.5</ele>
        <time>2022-08-14T14:15:26Z</time>
      </trkpt>
      <trkpt lat="44.6355" lon="0.83976">
        <ele>193.3</ele>
        <time>2022-08-14T14:15:28Z</time>
      </trkpt>
      <trkpt lat="44.6355" lon="0.8399">
        <ele>193.1</ele>
        <time>2022-08-14T14:15:30Z</time>
      </trkpt>
      <trkpt lat="44.63551" lon="0.83998">
        <ele>192.9</ele>
        <time>2022-08-14T14:15:32Z</time>
      </trkpt>
      <trkpt lat="44.63551" lon="0.84004">
        <ele>192.8</ele>
        <time>2022-08-14T14:15:34Z</time>
      </trkpt>
      <trkpt lat="44.63552" lon="0.84012">
        <ele>192.5</ele>
        <time>2022-08-14T14:15:36Z</time>
      </trkpt>
      <trkpt lat="44.63553" lon="0.84022">
        <ele>192.2</ele>
        <time>2022-08-14T14:15:38Z</time>
      </trkpt>
      <trkpt lat="44.63553" lon="0.84032">
        <ele>191.9</ele>
        <time>2022-08-14T14:15:40Z</time>
      </trkpt>
      <trkpt lat="44.63555" lon="0.84043">
        <ele>191.5</ele>
        <time>2022-08-14T14:15:42Z</time>
      </trkpt>
      <trkpt lat="44.63556" lon="0.84054">
        <ele>191.1</ele>
        <time>2022-08-14T14:15:44Z</time>
      </trkpt>
      <trkpt lat="44.63558" lon="0.84066">
        <ele>190.7</ele>
        <time>2022-08-14T14:15:46Z</time>
      </trkpt>
      <trkpt lat="44.6356" lon="0.84078">
        <ele>190.3</ele>
        <time>2022-08-14T14:15:48Z</time>
      </trkpt>
      <trkpt lat="44.63563" lon="0.8409">
        <ele>189.8</ele>
        <time>2022-08-14T14:15:50Z</time>
      </trkpt>
      <trkpt lat="44.63565" lon="0.84101">
        <ele>189.5</ele>
        <time>2022-08-14T14:15:52Z</time>
      </trkpt>
      <trkpt lat="44.63568" lon="0.84113">
        <ele>189.1</ele>
        <time>2022-08-14T14:15:54Z</time>
      </trkpt>
      <trkpt lat="44.6357" lon="0.84125">
        <ele>188.8</ele>
        <time>2022-08-14T14:15:56Z</time>
      </trkpt>
      <trkpt lat="44.63573" lon="0.84137">
        <ele>188.5</ele>
        <time>2022-08-14T14:15:58Z</time>
      </trkpt>
      <trkpt lat="44.63576" lon="0.84149">
        <ele>188.3</ele>
        <time>2022-08-14T14:16:00Z</time>
      </trkpt>
      <trkpt lat="44.63579" lon="0.84162">
        <ele>188.1</ele>
        <time>2022-08-14T14:16:02Z</time>
      </trkpt>
      <trkpt lat="44.6358" lon="0.84174">
        <ele>188.1</ele>
        <time>2022-08-14T14:16:04Z</time>
      </trkpt>
      <trkpt lat="44.63582" lon="0.84187">
        <ele>188.2</ele>
        <time>2022-08-14T14:16:06Z</time>
      </trkpt>
      <trkpt lat="44.63583" lon="0.84198">
        <ele>188.4</ele>
        <time>2022-08-14T14:16:08Z</time>
      </trkpt>
      <trkpt lat="44.63584" lon="0.84208">
        <ele>188.5</ele>
        <time>2022-08-14T14:16:10Z</time>
      </trkpt>
      <trkpt lat="44.63584" lon="0.84218">
        <ele>188.6</ele>
        <time>2022-08-14T14:16:12Z</time>
      </trkpt>
      <trkpt lat="44.63584" lon="0.84227">
        <ele>188.7</ele>
        <time>2022-08-14T14:16:14Z</time>
      </trkpt>
      <trkpt lat="44.63583" lon="0.84234">
        <ele>188.8</ele>
        <time>2022-08-14T14:16:16Z</time>
      </trkpt>
      <trkpt lat="44.63582" lon="0.84242">
        <ele>188.8</ele>
        <time>2022-08-14T14:16:18Z</time>
      </trkpt>
      <trkpt lat="44.63582" lon="0.84252">
        <ele>188.8</ele>
        <time>2022-08-14T14:16:20Z</time>
      </trkpt>
      <trkpt lat="44.63581" lon="0.84262">
        <ele>188.8</ele>
        <time>2022-08-14T14:16:22Z</time>
      </trkpt>
      <trkpt lat="44.6358" lon="0.84273">
        <ele>188.7</ele>
        <time>2022-08-14T14:16:24Z</time>
      </trkpt>
      <trkpt lat="44.63578" lon="0.84283">
        <ele>188.6</ele>
        <time>2022-08-14T14:16:26Z</time>
      </trkpt>
      <trkpt lat="44.63578" lon="0.84292">
        <ele>188.5</ele>
        <time>2022-08-14T14:16:28Z</time>
      </trkpt>
      <trkpt lat="44.63576" lon="0.843">
        <ele>188.4</ele>
        <time>2022-08-14T14:16:30Z</time>
      </trkpt>
      <trkpt lat="44.63575" lon="0.84309">
        <ele>188.4</ele>
        <time>2022-08-14T14:16:32Z</time>
      </trkpt>
      <trkpt lat="44.63573" lon="0.84316">
        <ele>188.3</ele>
        <time>2022-08-14T14:16:34Z</time>
      </trkpt>
      <trkpt lat="44.63573" lon="0.84325">
        <ele>188.3</ele>
        <time>2022-08-14T14:16:36Z</time>
      </trkpt>
      <trkpt lat="44.63572" lon="0.84333">
        <ele>188.3</ele>
        <time>2022-08-14T14:16:38Z</time>
      </trkpt>
      <trkpt lat="44.6357" lon="0.84341">
        <ele>188.4</ele>
        <time>2022-08-14T14:16:40Z</time>
      </trkpt>
      <trkpt lat="44.63569" lon="0.8435">
        <ele>188.4</ele>
        <time>2022-08-14T14:16:42Z</time>
      </trkpt>
      <trkpt lat="44.63568" lon="0.84358">
        <ele>188.6</ele>
        <time>2022-08-14T14:16:44Z</time>
      </trkpt>
      <trkpt lat="44.63565" lon="0.84367">
        <ele>188.6</ele>
        <time>2022-08-14T14:16:46Z</time>
      </trkpt>
      <trkpt lat="44.63565" lon="0.84377">
        <ele>188.8</ele>
        <time>2022-08-14T14:16:48Z</time>
      </trkpt>
      <trkpt lat="44.63563" lon="0.84387">
        <ele>188.9</ele>
        <time>2022-08-14T14:16:50Z</time>
      </trkpt>
      <trkpt lat="44.63561" lon="0.84397">
        <ele>189</ele>
        <time>2022-08-14T14:16:52Z</time>
      </trkpt>
      <trkpt lat="44.63559" lon="0.84406">
        <ele>189.2</ele>
        <time>2022-08-14T14:16:54Z</time>
      </trkpt>
      <trkpt lat="44.63556" lon="0.84416">
        <ele>189.3</ele>
        <time>2022-08-14T14:16:56Z</time>
      </trkpt>
      <trkpt lat="44.63554" lon="0.84426">
        <ele>189.4</ele>
        <time>2022-08-14T14:16:58Z</time>
      </trkpt>
      <trkpt lat="44.63552" lon="0.84435">
        <ele>189.5</ele>
        <time>2022-08-14T14:17:00Z</time>
      </trkpt>
      <trkpt lat="44.63549" lon="0.84445">
        <ele>189.7</ele>
        <time>2022-08-14T14:17:02Z</time>
      </trkpt>
      <trkpt lat="44.63547" lon="0.84455">
        <ele>189.8</ele>
        <time>2022-08-14T14:17:04Z</time>
      </trkpt>
      <trkpt lat="44.63544" lon="0.84465">
        <ele>189.9</ele>
        <time>2022-08-14T14:17:06Z</time>
      </trkpt>
      <trkpt lat="44.63542" lon="0.84476">
        <ele>190.1</ele>
        <time>2022-08-14T14:17:08Z</time>
      </trkpt>
      <trkpt lat="44.63541" lon="0.84487">
        <ele>190.3</ele>
        <time>2022-08-14T14:17:10Z</time>
      </trkpt>
      <trkpt lat="44.6354" lon="0.84498">
        <ele>190.4</ele>
        <time>2022-08-14T14:17:12Z</time>
      </trkpt>
      <trkpt lat="44.63539" lon="0.84509">
        <ele>190.4</ele>
        <time>2022-08-14T14:17:14Z</time>
      </trkpt>
      <trkpt lat="44.6354" lon="0.8452">
        <ele>190.4</ele>
        <time>2022-08-14T14:17:16Z</time>
      </trkpt>
      <trkpt lat="44.63541" lon="0.84531">
        <ele>190.3</ele>
        <time>2022-08-14T14:17:18Z</time>
      </trkpt>
      <trkpt lat="44.63542" lon="0.84543">
        <ele>190.2</ele>
        <time>2022-08-14T14:17:20Z</time>
      </trkpt>
      <trkpt lat="44.63543" lon="0.84554">
        <ele>190.2</ele>
        <time>2022-08-14T14:17:22Z</time>
      </trkpt>
      <trkpt lat="44.63546" lon="0.84563">
        <ele>190.2</ele>
        <time>2022-08-14T14:17:24Z</time>
      </trkpt>
      <trkpt lat="44.63548" lon="0.84573">
        <ele>190.2</ele>
        <time>2022-08-14T14:17:26Z</time>
      </trkpt>
      <trkpt lat="44.63549" lon="0.84582">
        <ele>190.2</ele>
        <time>2022-08-14T14:17:28Z</time>
      </trkpt>
      <trkpt lat="44.63551" lon="0.84592">
        <ele>190.3</ele>
        <time>2022-08-14T14:17:30Z</time>
      </trkpt>
      <trkpt lat="44.63554" lon="0.84602">
        <ele>190.4</ele>
        <time>2022-08-14T14:17:32Z</time>
      </trkpt>
      <trkpt lat="44.63557" lon="0.84611">
        <ele>190.6</ele>
        <time>2022-08-14T14:17:34Z</time>
      </trkpt>
      <trkpt lat="44.6356" lon="0.8462">
        <ele>190.8</ele>
        <time>2022-08-14T14:17:36Z</time>
      </trkpt>
      <trkpt lat="44.63563" lon="0.8463">
        <ele>190.9</ele>
        <time>2022-08-14T14:17:38Z</time>
      </trkpt>
      <trkpt lat="44.63566" lon="0.84639">
        <ele>191.1</ele>
        <time>2022-08-14T14:17:40Z</time>
      </trkpt>
      <trkpt lat="44.63569" lon="0.84648">
        <ele>191.3</ele>
        <time>2022-08-14T14:17:42Z</time>
      </trkpt>
      <trkpt lat="44.63572" lon="0.84658">
        <ele>191.5</ele>
        <time>2022-08-14T14:17:44Z</time>
      </trkpt>
      <trkpt lat="44.63575" lon="0.84667">
        <ele>191.7</ele>
        <time>2022-08-14T14:17:46Z</time>
      </trkpt>
      <trkpt lat="44.63577" lon="0.84676">
        <ele>191.9</ele>
        <time>2022-08-14T14:17:48Z</time>
      </trkpt>
      <trkpt lat="44.6358" lon="0.84685">
        <ele>192.1</ele>
        <time>2022-08-14T14:17:50Z</time>
      </trkpt>
      <trkpt lat="44.63582" lon="0.84695">
        <ele>192.3</ele>
        <time>2022-08-14T14:17:52Z</time>
      </trkpt>
      <trkpt lat="44.63584" lon="0.84704">
        <ele>192.4</ele>
        <time>2022-08-14T14:17:54Z</time>
      </trkpt>
      <trkpt lat="44.63586" lon="0.84714">
        <ele>192.5</ele>
        <time>2022-08-14T14:17:56Z</time>
      </trkpt>
      <trkpt lat="44.63587" lon="0.84724">
        <ele>192.6</ele>
        <time>2022-08-14T14:17:58Z</time>
      </trkpt>
      <trkpt lat="44.63588" lon="0.84734">
        <ele>192.8</ele>
        <time>2022-08-14T14:18:00Z</time>
      </trkpt>
      <trkpt lat="44.63589" lon="0.84745">
        <ele>192.9</ele>
        <time>2022-08-14T14:18:02Z</time>
      </trkpt>
      <trkpt lat="44.63589" lon="0.84756">
        <ele>193</ele>
        <time>2022-08-14T14:18:04Z</time>
      </trkpt>
      <trkpt lat="44.63589" lon="0.84767">
        <ele>193.1</ele>
        <time>2022-08-14T14:18:06Z</time>
      </trkpt>
      <trkpt lat="44.63589" lon="0.84779">
        <ele>193.3</ele>
        <time>2022-08-14T14:18:08Z</time>
      </trkpt>
      <trkpt lat="44.6359" lon="0.8479">
        <ele>193.4</ele>
        <time>2022-08-14T14:18:10Z</time>
      </trkpt>
      <trkpt lat="44.6359" lon="0.84802">
        <ele>193.5</ele>
        <time>2022-08-14T14:18:12Z</time>
      </trkpt>
      <trkpt lat="44.6359" lon="0.84814">
        <ele>193.7</ele>
        <time>2022-08-14T14:18:14Z</time>
      </trkpt>
      <trkpt lat="44.6359" lon="0.84825">
        <ele>193.8</ele>
        <time>2022-08-14T14:18:16Z</time>
      </trkpt>
      <trkpt lat="44.63591" lon="0.84837">
        <ele>193.9</ele>
        <time>2022-08-14T14:18:18Z</time>
      </trkpt>
      <trkpt lat="44.6359" lon="0.84848">
        <ele>193.9</ele>
        <time>2022-08-14T14:18:20Z</time>
      </trkpt>
      <trkpt lat="44.6359" lon="0.8486">
        <ele>193.9</ele>
        <time>2022-08-14T14:18:22Z</time>
      </trkpt>
      <trkpt lat="44.6359" lon="0.84871">
        <ele>193.9</ele>
        <time>2022-08-14T14:18:24Z</time>
      </trkpt>
      <trkpt lat="44.6359" lon="0.84882">
        <ele>193.9</ele>
        <time>2022-08-14T14:18:26Z</time>
      </trkpt>
      <trkpt lat="44.63589" lon="0.84892">
        <ele>193.9</ele>
        <time>2022-08-14T14:18:28Z</time>
      </trkpt>
      <trkpt lat="44.63588" lon="0.84902">
        <ele>193.9</ele>
        <time>2022-08-14T14:18:30Z</time>
      </trkpt>
      <trkpt lat="44.63586" lon="0.84914">
        <ele>194</ele>
        <time>2022-08-14T14:18:32Z</time>
      </trkpt>
      <trkpt lat="44.63585" lon="0.84924">
        <ele>194</ele>
        <time>2022-08-14T14:18:34Z</time>
      </trkpt>
      <trkpt lat="44.63583" lon="0.84935">
        <ele>194</ele>
        <time>2022-08-14T14:18:36Z</time>
      </trkpt>
      <trkpt lat="44.63581" lon="0.84946">
        <ele>194</ele>
        <time>2022-08-14T14:18:38Z</time>
      </trkpt>
      <trkpt lat="44.63579" lon="0.84957">
        <ele>194</ele>
        <time>2022-08-14T14:18:40Z</time>
      </trkpt>
      <trkpt lat="44.63577" lon="0.84969">
        <ele>194</ele>
        <time>2022-08-14T14:18:42Z</time>
      </trkpt>
      <trkpt lat="44.63574" lon="0.8498">
        <ele>194</ele>
        <time>2022-08-14T14:18:44Z</time>
      </trkpt>
      <trkpt lat="44.63572" lon="0.84992">
        <ele>194</ele>
        <time>2022-08-14T14:18:46Z</time>
      </trkpt>
      <trkpt lat="44.6357" lon="0.85004">
        <ele>193.9</ele>
        <time>2022-08-14T14:18:48Z</time>
      </trkpt>
      <trkpt lat="44.63568" lon="0.85016">
        <ele>193.7</ele>
        <time>2022-08-14T14:18:50Z</time>
      </trkpt>
      <trkpt lat="44.63565" lon="0.85028">
        <ele>193.4</ele>
        <time>2022-08-14T14:18:52Z</time>
      </trkpt>
      <trkpt lat="44.63563" lon="0.8504">
        <ele>193.1</ele>
        <time>2022-08-14T14:18:54Z</time>
      </trkpt>
      <trkpt lat="44.63561" lon="0.85053">
        <ele>192.9</ele>
        <time>2022-08-14T14:18:56Z</time>
      </trkpt>
      <trkpt lat="44.63558" lon="0.85064">
        <ele>192.7</ele>
        <time>2022-08-14T14:18:58Z</time>
      </trkpt>
      <trkpt lat="44.63556" lon="0.85076">
        <ele>192.5</ele>
        <time>2022-08-14T14:19:00Z</time>
      </trkpt>
      <trkpt lat="44.63554" lon="0.85088">
        <ele>192.3</ele>
        <time>2022-08-14T14:19:02Z</time>
      </trkpt>
      <trkpt lat="44.63551" lon="0.85099">
        <ele>192.3</ele>
        <time>2022-08-14T14:19:04Z</time>
      </trkpt>
      <trkpt lat="44.63549" lon="0.85111">
        <ele>192.3</ele>
        <time>2022-08-14T14:19:06Z</time>
      </trkpt>
      <trkpt lat="44.63547" lon="0.85122">
        <ele>192.4</ele>
        <time>2022-08-14T14:19:08Z</time>
      </trkpt>
      <trkpt lat="44.63545" lon="0.85133">
        <ele>192.4</ele>
        <time>2022-08-14T14:19:10Z</time>
      </trkpt>
      <trkpt lat="44.63544" lon="0.85144">
        <ele>192.4</ele>
        <time>2022-08-14T14:19:12Z</time>
      </trkpt>
      <trkpt lat="44.63543" lon="0.85154">
        <ele>192.5</ele>
        <time>2022-08-14T14:19:14Z</time>
      </trkpt>
      <trkpt lat="44.63542" lon="0.85164">
        <ele>192.5</ele>
        <time>2022-08-14T14:19:16Z</time>
      </trkpt>
      <trkpt lat="44.63541" lon="0.85174">
        <ele>193</ele>
        <time>2022-08-14T14:19:18Z</time>
      </trkpt>
      <trkpt lat="44.6354" lon="0.85184">
        <ele>193.6</ele>
        <time>2022-08-14T14:19:20Z</time>
      </trkpt>
      <trkpt lat="44.63539" lon="0.85194">
        <ele>194.2</ele>
        <time>2022-08-14T14:19:22Z</time>
      </trkpt>
      <trkpt lat="44.63539" lon="0.85204">
        <ele>194.8</ele>
        <time>2022-08-14T14:19:24Z</time>
      </trkpt>
      <trkpt lat="44.63538" lon="0.85214">
        <ele>195.4</ele>
        <time>2022-08-14T14:19:26Z</time>
      </trkpt>
      <trkpt lat="44.63537" lon="0.85224">
        <ele>196</ele>
        <time>2022-08-14T14:19:28Z</time>
      </trkpt>
      <trkpt lat="44.63537" lon="0.85233">
        <ele>196.6</ele>
        <time>2022-08-14T14:19:30Z</time>
      </trkpt>
      <trkpt lat="44.63535" lon="0.85243">
        <ele>197.2</ele>
        <time>2022-08-14T14:19:32Z</time>
      </trkpt>
      <trkpt lat="44.63535" lon="0.85252">
        <ele>197.7</ele>
        <time>2022-08-14T14:19:34Z</time>
      </trkpt>
      <trkpt lat="44.63534" lon="0.85262">
        <ele>198</ele>
        <time>2022-08-14T14:19:36Z</time>
      </trkpt>
      <trkpt lat="44.63533" lon="0.85271">
        <ele>198.4</ele>
        <time>2022-08-14T14:19:38Z</time>
      </trkpt>
      <trkpt lat="44.63532" lon="0.8528">
        <ele>198.7</ele>
        <time>2022-08-14T14:19:40Z</time>
      </trkpt>
      <trkpt lat="44.63532" lon="0.85289">
        <ele>199</ele>
        <time>2022-08-14T14:19:42Z</time>
      </trkpt>
      <trkpt lat="44.6353" lon="0.85298">
        <ele>199.4</ele>
        <time>2022-08-14T14:19:44Z</time>
      </trkpt>
      <trkpt lat="44.6353" lon="0.85307">
        <ele>199.7</ele>
        <time>2022-08-14T14:19:46Z</time>
      </trkpt>
      <trkpt lat="44.63529" lon="0.85316">
        <ele>200</ele>
        <time>2022-08-14T14:19:48Z</time>
      </trkpt>
      <trkpt lat="44.63528" lon="0.85325">
        <ele>200.4</ele>
        <time>2022-08-14T14:19:50Z</time>
      </trkpt>
      <trkpt lat="44.63527" lon="0.85333">
        <ele>200.7</ele>
        <time>2022-08-14T14:19:52Z</time>
      </trkpt>
      <trkpt lat="44.63526" lon="0.85343">
        <ele>200.4</ele>
        <time>2022-08-14T14:19:54Z</time>
      </trkpt>
      <trkpt lat="44.63525" lon="0.85353">
        <ele>200.1</ele>
        <time>2022-08-14T14:19:56Z</time>
      </trkpt>
      <trkpt lat="44.63524" lon="0.85363">
        <ele>199.8</ele>
        <time>2022-08-14T14:19:58Z</time>
      </trkpt>
      <trkpt lat="44.63524" lon="0.85373">
        <ele>199.6</ele>
        <time>2022-08-14T14:20:00Z</time>
      </trkpt>
      <trkpt lat="44.63522" lon="0.85383">
        <ele>199.3</ele>
        <time>2022-08-14T14:20:02Z</time>
      </trkpt>
      <trkpt lat="44.63522" lon="0.85394">
        <ele>198.9</ele>
        <time>2022-08-14T14:20:04Z</time>
      </trkpt>
      <trkpt lat="44.6352" lon="0.85405">
        <ele>198.6</ele>
        <time>2022-08-14T14:20:06Z</time>
      </trkpt>
      <trkpt lat="44.63518" lon="0.85417">
        <ele>198.2</ele>
        <time>2022-08-14T14:20:08Z</time>
      </trkpt>
      <trkpt lat="44.63517" lon="0.85429">
        <ele>197.9</ele>
        <time>2022-08-14T14:20:10Z</time>
      </trkpt>
      <trkpt lat="44.63514" lon="0.85441">
        <ele>197.5</ele>
        <time>2022-08-14T14:20:12Z</time>
      </trkpt>
      <trkpt lat="44.63508" lon="0.85456">
        <ele>197.1</ele>
        <time>2022-08-14T14:20:14Z</time>
      </trkpt>
      <trkpt lat="44.63502" lon="0.8547">
        <ele>196.7</ele>
        <time>2022-08-14T14:20:16Z</time>
      </trkpt>
      <trkpt lat="44.63493" lon="0.85484">
        <ele>196.6</ele>
        <time>2022-08-14T14:20:18Z</time>
      </trkpt>
      <trkpt lat="44.63483" lon="0.85496">
        <ele>196.7</ele>
        <time>2022-08-14T14:20:20Z</time>
      </trkpt>
      <trkpt lat="44.63473" lon="0.85509">
        <ele>196.8</ele>
        <time>2022-08-14T14:20:22Z</time>
      </trkpt>
      <trkpt lat="44.63464" lon="0.85522">
        <ele>196.8</ele>
        <time>2022-08-14T14:20:24Z</time>
      </trkpt>
      <trkpt lat="44.63457" lon="0.85535">
        <ele>196.7</ele>
        <time>2022-08-14T14:20:26Z</time>
      </trkpt>
      <trkpt lat="44.63449" lon="0.85549">
        <ele>196.5</ele>
        <time>2022-08-14T14:20:28Z</time>
      </trkpt>
      <trkpt lat="44.6344" lon="0.85559">
        <ele>196.4</ele>
        <time>2022-08-14T14:20:30Z</time>
      </trkpt>
      <trkpt lat="44.63433" lon="0.8557">
        <ele>196.2</ele>
        <time>2022-08-14T14:20:32Z</time>
      </trkpt>
      <trkpt lat="44.63426" lon="0.85579">
        <ele>196</ele>
        <time>2022-08-14T14:20:34Z</time>
      </trkpt>
      <trkpt lat="44.63419" lon="0.85589">
        <ele>196.1</ele>
        <time>2022-08-14T14:20:36Z</time>
      </trkpt>
      <trkpt lat="44.63413" lon="0.85597">
        <ele>196.6</ele>
        <time>2022-08-14T14:20:38Z</time>
      </trkpt>
      <trkpt lat="44.63408" lon="0.85606">
        <ele>197</ele>
        <time>2022-08-14T14:20:40Z</time>
      </trkpt>
      <trkpt lat="44.63403" lon="0.85614">
        <ele>197.5</ele>
        <time>2022-08-14T14:20:42Z</time>
      </trkpt>
      <trkpt lat="44.634" lon="0.85623">
        <ele>197.9</ele>
        <time>2022-08-14T14:20:44Z</time>
      </trkpt>
      <trkpt lat="44.63395" lon="0.85631">
        <ele>198.3</ele>
        <time>2022-08-14T14:20:46Z</time>
      </trkpt>
      <trkpt lat="44.63392" lon="0.85638">
        <ele>198.6</ele>
        <time>2022-08-14T14:20:48Z</time>
      </trkpt>
      <trkpt lat="44.63391" lon="0.85646">
        <ele>198.8</ele>
        <time>2022-08-14T14:20:50Z</time>
      </trkpt>
      <trkpt lat="44.63388" lon="0.85654">
        <ele>199.1</ele>
        <time>2022-08-14T14:20:52Z</time>
      </trkpt>
      <trkpt lat="44.63385" lon="0.85661">
        <ele>199.4</ele>
        <time>2022-08-14T14:20:54Z</time>
      </trkpt>
      <trkpt lat="44.63383" lon="0.85669">
        <ele>199.6</ele>
        <time>2022-08-14T14:20:56Z</time>
      </trkpt>
      <trkpt lat="44.63381" lon="0.85678">
        <ele>199.7</ele>
        <time>2022-08-14T14:20:58Z</time>
      </trkpt>
      <trkpt lat="44.63379" lon="0.85686">
        <ele>199.8</ele>
        <time>2022-08-14T14:21:00Z</time>
      </trkpt>
      <trkpt lat="44.63376" lon="0.85694">
        <ele>199.9</ele>
        <time>2022-08-14T14:21:02Z</time>
      </trkpt>
      <trkpt lat="44.63376" lon="0.85702">
        <ele>200</ele>
        <time>2022-08-14T14:21:04Z</time>
      </trkpt>
      <trkpt lat="44.63373" lon="0.8571">
        <ele>200.1</ele>
        <time>2022-08-14T14:21:06Z</time>
      </trkpt>
      <trkpt lat="44.63371" lon="0.85719">
        <ele>200.2</ele>
        <time>2022-08-14T14:21:08Z</time>
      </trkpt>
      <trkpt lat="44.63366" lon="0.85728">
        <ele>200.5</ele>
        <time>2022-08-14T14:21:10Z</time>
      </trkpt>
      <trkpt lat="44.63365" lon="0.85739">
        <ele>200.5</ele>
        <time>2022-08-14T14:21:12Z</time>
      </trkpt>
      <trkpt lat="44.63358" lon="0.8575">
        <ele>200.8</ele>
        <time>2022-08-14T14:21:14Z</time>
      </trkpt>
      <trkpt lat="44.63356" lon="0.85761">
        <ele>200.6</ele>
        <time>2022-08-14T14:21:16Z</time>
      </trkpt>
      <trkpt lat="44.63354" lon="0.85771">
        <ele>200.5</ele>
        <time>2022-08-14T14:21:18Z</time>
      </trkpt>
      <trkpt lat="44.63351" lon="0.85784">
        <ele>200.4</ele>
        <time>2022-08-14T14:21:20Z</time>
      </trkpt>
      <trkpt lat="44.63345" lon="0.85796">
        <ele>200.6</ele>
        <time>2022-08-14T14:21:22Z</time>
      </trkpt>
      <trkpt lat="44.63343" lon="0.85808">
        <ele>200.5</ele>
        <time>2022-08-14T14:21:24Z</time>
      </trkpt>
      <trkpt lat="44.63343" lon="0.8582">
        <ele>200.3</ele>
        <time>2022-08-14T14:21:26Z</time>
      </trkpt>
      <trkpt lat="44.63339" lon="0.85832">
        <ele>200.5</ele>
        <time>2022-08-14T14:21:28Z</time>
      </trkpt>
      <trkpt lat="44.63335" lon="0.85845">
        <ele>200.1</ele>
        <time>2022-08-14T14:21:30Z</time>
      </trkpt>
      <trkpt lat="44.63333" lon="0.85856">
        <ele>199.6</ele>
        <time>2022-08-14T14:21:32Z</time>
      </trkpt>
      <trkpt lat="44.63329" lon="0.8587">
        <ele>199</ele>
        <time>2022-08-14T14:21:34Z</time>
      </trkpt>
      <trkpt lat="44.63324" lon="0.85884">
        <ele>198.5</ele>
        <time>2022-08-14T14:21:36Z</time>
      </trkpt>
      <trkpt lat="44.63319" lon="0.85898">
        <ele>198</ele>
        <time>2022-08-14T14:21:38Z</time>
      </trkpt>
      <trkpt lat="44.63315" lon="0.85911">
        <ele>197.6</ele>
        <time>2022-08-14T14:21:40Z</time>
      </trkpt>
      <trkpt lat="44.63313" lon="0.85923">
        <ele>197.1</ele>
        <time>2022-08-14T14:21:42Z</time>
      </trkpt>
      <trkpt lat="44.63309" lon="0.85938">
        <ele>196.5</ele>
        <time>2022-08-14T14:21:44Z</time>
      </trkpt>
      <trkpt lat="44.63309" lon="0.85953">
        <ele>195.6</ele>
        <time>2022-08-14T14:21:46Z</time>
      </trkpt>
      <trkpt lat="44.63308" lon="0.85965">
        <ele>194.9</ele>
        <time>2022-08-14T14:21:48Z</time>
      </trkpt>
      <trkpt lat="44.63303" lon="0.85983">
        <ele>194.2</ele>
        <time>2022-08-14T14:21:50Z</time>
      </trkpt>
      <trkpt lat="44.63301" lon="0.85998">
        <ele>193.4</ele>
        <time>2022-08-14T14:21:52Z</time>
      </trkpt>
      <trkpt lat="44.63299" lon="0.86014">
        <ele>193</ele>
        <time>2022-08-14T14:21:54Z</time>
      </trkpt>
      <trkpt lat="44.63299" lon="0.86029">
        <ele>192.6</ele>
        <time>2022-08-14T14:21:56Z</time>
      </trkpt>
      <trkpt lat="44.63298" lon="0.86045">
        <ele>192.2</ele>
        <time>2022-08-14T14:21:58Z</time>
      </trkpt>
      <trkpt lat="44.63298" lon="0.8606">
        <ele>191.8</ele>
        <time>2022-08-14T14:22:00Z</time>
      </trkpt>
      <trkpt lat="44.63298" lon="0.86075">
        <ele>191.3</ele>
        <time>2022-08-14T14:22:02Z</time>
      </trkpt>
      <trkpt lat="44.63299" lon="0.86089">
        <ele>191.1</ele>
        <time>2022-08-14T14:22:04Z</time>
      </trkpt>
      <trkpt lat="44.63299" lon="0.86102">
        <ele>191.1</ele>
        <time>2022-08-14T14:22:06Z</time>
      </trkpt>
      <trkpt lat="44.63299" lon="0.86115">
        <ele>191.1</ele>
        <time>2022-08-14T14:22:08Z</time>
      </trkpt>
      <trkpt lat="44.63299" lon="0.86128">
        <ele>191.1</ele>
        <time>2022-08-14T14:22:10Z</time>
      </trkpt>
      <trkpt lat="44.63298" lon="0.8614">
        <ele>191.1</ele>
        <time>2022-08-14T14:22:12Z</time>
      </trkpt>
      <trkpt lat="44.63297" lon="0.86152">
        <ele>191.2</ele>
        <time>2022-08-14T14:22:14Z</time>
      </trkpt>
      <trkpt lat="44.63296" lon="0.86163">
        <ele>191.3</ele>
        <time>2022-08-14T14:22:16Z</time>
      </trkpt>
      <trkpt lat="44.63294" lon="0.86173">
        <ele>191.5</ele>
        <time>2022-08-14T14:22:18Z</time>
      </trkpt>
      <trkpt lat="44.63292" lon="0.86184">
        <ele>191.9</ele>
        <time>2022-08-14T14:22:20Z</time>
      </trkpt>
      <trkpt lat="44.63291" lon="0.86196">
        <ele>192.2</ele>
        <time>2022-08-14T14:22:22Z</time>
      </trkpt>
      <trkpt lat="44.63288" lon="0.86205">
        <ele>192.7</ele>
        <time>2022-08-14T14:22:24Z</time>
      </trkpt>
      <trkpt lat="44.63287" lon="0.86218">
        <ele>193</ele>
        <time>2022-08-14T14:22:26Z</time>
      </trkpt>
      <trkpt lat="44.63285" lon="0.8623">
        <ele>193.4</ele>
        <time>2022-08-14T14:22:28Z</time>
      </trkpt>
      <trkpt lat="44.63282" lon="0.86241">
        <ele>193.8</ele>
        <time>2022-08-14T14:22:30Z</time>
      </trkpt>
      <trkpt lat="44.63281" lon="0.86252">
        <ele>194.1</ele>
        <time>2022-08-14T14:22:32Z</time>
      </trkpt>
      <trkpt lat="44.6328" lon="0.86264">
        <ele>194</ele>
        <time>2022-08-14T14:22:34Z</time>
      </trkpt>
      <trkpt lat="44.63278" lon="0.86276">
        <ele>193.8</ele>
        <time>2022-08-14T14:22:36Z</time>
      </trkpt>
      <trkpt lat="44.63276" lon="0.86289">
        <ele>193.6</ele>
        <time>2022-08-14T14:22:38Z</time>
      </trkpt>
      <trkpt lat="44.63273" lon="0.86307">
        <ele>193.2</ele>
        <time>2022-08-14T14:22:40Z</time>
      </trkpt>
      <trkpt lat="44.63272" lon="0.86324">
        <ele>192.8</ele>
        <time>2022-08-14T14:22:42Z</time>
      </trkpt>
      <trkpt lat="44.63267" lon="0.86348">
        <ele>191.4</ele>
        <time>2022-08-14T14:22:44Z</time>
      </trkpt>
      <trkpt lat="44.63265" lon="0.8637">
        <ele>189.7</ele>
        <time>2022-08-14T14:22:46Z</time>
      </trkpt>
      <trkpt lat="44.63261" lon="0.86397">
        <ele>187.4</ele>
        <time>2022-08-14T14:22:48Z</time>
      </trkpt>
      <trkpt lat="44.63257" lon="0.86426">
        <ele>185.6</ele>
        <time>2022-08-14T14:22:50Z</time>
      </trkpt>
      <trkpt lat="44.63253" lon="0.86456">
        <ele>185.3</ele>
        <time>2022-08-14T14:22:52Z</time>
      </trkpt>
      <trkpt lat="44.63252" lon="0.86487">
        <ele>185.2</ele>
        <time>2022-08-14T14:22:54Z</time>
      </trkpt>
      <trkpt lat="44.63253" lon="0.86518">
        <ele>184.7</ele>
        <time>2022-08-14T14:22:56Z</time>
      </trkpt>
      <trkpt lat="44.63254" lon="0.86546">
        <ele>183.8</ele>
        <time>2022-08-14T14:22:58Z</time>
      </trkpt>
      <trkpt lat="44.63255" lon="0.86574">
        <ele>182.9</ele>
        <time>2022-08-14T14:23:00Z</time>
      </trkpt>
      <trkpt lat="44.63256" lon="0.86601">
        <ele>181.6</ele>
        <time>2022-08-14T14:23:02Z</time>
      </trkpt>
      <trkpt lat="44.63257" lon="0.86626">
        <ele>180.2</ele>
        <time>2022-08-14T14:23:04Z</time>
      </trkpt>
      <trkpt lat="44.63255" lon="0.8665">
        <ele>178.5</ele>
        <time>2022-08-14T14:23:06Z</time>
      </trkpt>
      <trkpt lat="44.63249" lon="0.86671">
        <ele>177.2</ele>
        <time>2022-08-14T14:23:08Z</time>
      </trkpt>
      <trkpt lat="44.63243" lon="0.86688">
        <ele>178</ele>
        <time>2022-08-14T14:23:10Z</time>
      </trkpt>
      <trkpt lat="44.63237" lon="0.86703">
        <ele>178.8</ele>
        <time>2022-08-14T14:23:12Z</time>
      </trkpt>
      <trkpt lat="44.63232" lon="0.86715">
        <ele>179.4</ele>
        <time>2022-08-14T14:23:14Z</time>
      </trkpt>
      <trkpt lat="44.63228" lon="0.86725">
        <ele>179.9</ele>
        <time>2022-08-14T14:23:16Z</time>
      </trkpt>
      <trkpt lat="44.63225" lon="0.86733">
        <ele>180.3</ele>
        <time>2022-08-14T14:23:18Z</time>
      </trkpt>
      <trkpt lat="44.63222" lon="0.8674">
        <ele>180.6</ele>
        <time>2022-08-14T14:23:20Z</time>
      </trkpt>
      <trkpt lat="44.63219" lon="0.86745">
        <ele>180.9</ele>
        <time>2022-08-14T14:23:22Z</time>
      </trkpt>
      <trkpt lat="44.63217" lon="0.8675">
        <ele>181.2</ele>
        <time>2022-08-14T14:23:24Z</time>
      </trkpt>
      <trkpt lat="44.63214" lon="0.86758">
        <ele>181.8</ele>
        <time>2022-08-14T14:23:26Z</time>
      </trkpt>
      <trkpt lat="44.63213" lon="0.86764">
        <ele>182.2</ele>
        <time>2022-08-14T14:23:28Z</time>
      </trkpt>
      <trkpt lat="44.6321" lon="0.86769">
        <ele>182.6</ele>
        <time>2022-08-14T14:23:30Z</time>
      </trkpt>
      <trkpt lat="44.6321" lon="0.86774">
        <ele>182.9</ele>
        <time>2022-08-14T14:23:32Z</time>
      </trkpt>
      <trkpt lat="44.63208" lon="0.86777">
        <ele>183.2</ele>
        <time>2022-08-14T14:23:34Z</time>
      </trkpt>
      <trkpt lat="44.63205" lon="0.86782">
        <ele>183.6</ele>
        <time>2022-08-14T14:23:36Z</time>
      </trkpt>
      <trkpt lat="44.63203" lon="0.86787">
        <ele>184</ele>
        <time>2022-08-14T14:23:38Z</time>
      </trkpt>
      <trkpt lat="44.63202" lon="0.86793">
        <ele>184.4</ele>
        <time>2022-08-14T14:23:40Z</time>
      </trkpt>
      <trkpt lat="44.632" lon="0.86797">
        <ele>184.8</ele>
        <time>2022-08-14T14:23:42Z</time>
      </trkpt>
      <trkpt lat="44.63198" lon="0.86801">
        <ele>185.1</ele>
        <time>2022-08-14T14:23:44Z</time>
      </trkpt>
      <trkpt lat="44.63195" lon="0.86806">
        <ele>185.6</ele>
        <time>2022-08-14T14:23:46Z</time>
      </trkpt>
      <trkpt lat="44.63194" lon="0.8681">
        <ele>185.9</ele>
        <time>2022-08-14T14:23:48Z</time>
      </trkpt>
      <trkpt lat="44.63192" lon="0.86814">
        <ele>186.2</ele>
        <time>2022-08-14T14:23:50Z</time>
      </trkpt>
      <trkpt lat="44.6319" lon="0.86816">
        <ele>186.5</ele>
        <time>2022-08-14T14:23:52Z</time>
      </trkpt>
      <trkpt lat="44.63189" lon="0.86818">
        <ele>186.7</ele>
        <time>2022-08-14T14:23:54Z</time>
      </trkpt>
      <trkpt lat="44.63188" lon="0.86821">
        <ele>186.9</ele>
        <time>2022-08-14T14:23:56Z</time>
      </trkpt>
      <trkpt lat="44.63187" lon="0.86824">
        <ele>187.2</ele>
        <time>2022-08-14T14:23:58Z</time>
      </trkpt>
      <trkpt lat="44.63185" lon="0.86828">
        <ele>187.6</ele>
        <time>2022-08-14T14:24:00Z</time>
      </trkpt>
      <trkpt lat="44.63182" lon="0.86831">
        <ele>187.9</ele>
        <time>2022-08-14T14:24:02Z</time>
      </trkpt>
      <trkpt lat="44.6318" lon="0.86833">
        <ele>188.2</ele>
        <time>2022-08-14T14:24:04Z</time>
      </trkpt>
      <trkpt lat="44.63178" lon="0.86837">
        <ele>188.5</ele>
        <time>2022-08-14T14:24:06Z</time>
      </trkpt>
      <trkpt lat="44.63176" lon="0.86841">
        <ele>188.7</ele>
        <time>2022-08-14T14:24:08Z</time>
      </trkpt>
      <trkpt lat="44.63174" lon="0.86844">
        <ele>189</ele>
        <time>2022-08-14T14:24:10Z</time>
      </trkpt>
      <trkpt lat="44.63172" lon="0.86846">
        <ele>189.2</ele>
        <time>2022-08-14T14:24:12Z</time>
      </trkpt>
      <trkpt lat="44.63168" lon="0.8685">
        <ele>189.5</ele>
        <time>2022-08-14T14:24:14Z</time>
      </trkpt>
      <trkpt lat="44.63165" lon="0.86855">
        <ele>189.7</ele>
        <time>2022-08-14T14:24:16Z</time>
      </trkpt>
      <trkpt lat="44.63163" lon="0.86858">
        <ele>189.8</ele>
        <time>2022-08-14T14:24:18Z</time>
      </trkpt>
      <trkpt lat="44.6316" lon="0.86863">
        <ele>190</ele>
        <time>2022-08-14T14:24:20Z</time>
      </trkpt>
      <trkpt lat="44.63157" lon="0.86866">
        <ele>190</ele>
        <time>2022-08-14T14:24:22Z</time>
      </trkpt>
      <trkpt lat="44.63154" lon="0.8687">
        <ele>190.2</ele>
        <time>2022-08-14T14:24:24Z</time>
      </trkpt>
      <trkpt lat="44.63152" lon="0.86873">
        <ele>190.3</ele>
        <time>2022-08-14T14:24:26Z</time>
      </trkpt>
      <trkpt lat="44.63149" lon="0.86877">
        <ele>190.4</ele>
        <time>2022-08-14T14:24:28Z</time>
      </trkpt>
      <trkpt lat="44.63146" lon="0.8688">
        <ele>190.5</ele>
        <time>2022-08-14T14:24:30Z</time>
      </trkpt>
      <trkpt lat="44.63144" lon="0.86884">
        <ele>190.6</ele>
        <time>2022-08-14T14:24:32Z</time>
      </trkpt>
      <trkpt lat="44.63141" lon="0.86888">
        <ele>190.8</ele>
        <time>2022-08-14T14:24:34Z</time>
      </trkpt>
      <trkpt lat="44.63138" lon="0.86893">
        <ele>191</ele>
        <time>2022-08-14T14:24:36Z</time>
      </trkpt>
      <trkpt lat="44.63135" lon="0.86897">
        <ele>191.1</ele>
        <time>2022-08-14T14:24:38Z</time>
      </trkpt>
      <trkpt lat="44.63132" lon="0.86901">
        <ele>191.3</ele>
        <time>2022-08-14T14:24:40Z</time>
      </trkpt>
      <trkpt lat="44.6313" lon="0.86904">
        <ele>191.4</ele>
        <time>2022-08-14T14:24:42Z</time>
      </trkpt>
      <trkpt lat="44.63129" lon="0.86903">
        <ele>191.4</ele>
        <time>2022-08-14T14:24:44Z</time>
      </trkpt>
      <trkpt lat="44.63129" lon="0.86903">
        <ele>191.4</ele>
        <time>2022-08-14T14:24:46Z</time>
      </trkpt>
      <trkpt lat="44.63129" lon="0.86903">
        <ele>191.4</ele>
        <time>2022-08-14T14:24:48Z</time>
      </trkpt>
      <trkpt lat="44.63128" lon="0.86904">
        <ele>191.4</ele>
        <time>2022-08-14T14:24:50Z</time>
      </trkpt>
      <trkpt lat="44.6312" lon="0.86919">
        <ele>192.2</ele>
        <time>2022-08-14T14:26:06Z</time>
      </trkpt>
      <trkpt lat="44.63117" lon="0.86923">
        <ele>192.4</ele>
        <time>2022-08-14T14:26:08Z</time>
      </trkpt>
      <trkpt lat="44.63114" lon="0.86927">
        <ele>192.6</ele>
        <time>2022-08-14T14:26:10Z</time>
      </trkpt>
      <trkpt lat="44.63111" lon="0.86931">
        <ele>192.9</ele>
        <time>2022-08-14T14:26:12Z</time>
      </trkpt>
      <trkpt lat="44.63108" lon="0.86935">
        <ele>193.1</ele>
        <time>2022-08-14T14:26:14Z</time>
      </trkpt>
      <trkpt lat="44.63105" lon="0.86937">
        <ele>193.2</ele>
        <time>2022-08-14T14:26:16Z</time>
      </trkpt>
      <trkpt lat="44.63103" lon="0.86942">
        <ele>193.5</ele>
        <time>2022-08-14T14:26:18Z</time>
      </trkpt>
      <trkpt lat="44.631" lon="0.86947">
        <ele>193.8</ele>
        <time>2022-08-14T14:26:20Z</time>
      </trkpt>
      <trkpt lat="44.63098" lon="0.86951">
        <ele>194.1</ele>
        <time>2022-08-14T14:26:22Z</time>
      </trkpt>
      <trkpt lat="44.63096" lon="0.86954">
        <ele>194.2</ele>
        <time>2022-08-14T14:26:24Z</time>
      </trkpt>
      <trkpt lat="44.63094" lon="0.86958">
        <ele>194.5</ele>
        <time>2022-08-14T14:26:26Z</time>
      </trkpt>
      <trkpt lat="44.63093" lon="0.86962">
        <ele>194.7</ele>
        <time>2022-08-14T14:26:28Z</time>
      </trkpt>
      <trkpt lat="44.6309" lon="0.86965">
        <ele>194.9</ele>
        <time>2022-08-14T14:26:30Z</time>
      </trkpt>
      <trkpt lat="44.63088" lon="0.86968">
        <ele>195.1</ele>
        <time>2022-08-14T14:26:32Z</time>
      </trkpt>
      <trkpt lat="44.63088" lon="0.86972">
        <ele>195.3</ele>
        <time>2022-08-14T14:26:34Z</time>
      </trkpt>
      <trkpt lat="44.63086" lon="0.86977">
        <ele>195.6</ele>
        <time>2022-08-14T14:26:36Z</time>
      </trkpt>
      <trkpt lat="44.63084" lon="0.86983">
        <ele>196</ele>
        <time>2022-08-14T14:26:38Z</time>
      </trkpt>
      <trkpt lat="44.63082" lon="0.86987">
        <ele>196.2</ele>
        <time>2022-08-14T14:26:40Z</time>
      </trkpt>
      <trkpt lat="44.63082" lon="0.86991">
        <ele>196.4</ele>
        <time>2022-08-14T14:26:42Z</time>
      </trkpt>
      <trkpt lat="44.6308" lon="0.86995">
        <ele>196.6</ele>
        <time>2022-08-14T14:26:44Z</time>
      </trkpt>
      <trkpt lat="44.63079" lon="0.87">
        <ele>196.9</ele>
        <time>2022-08-14T14:26:46Z</time>
      </trkpt>
      <trkpt lat="44.63078" lon="0.87005">
        <ele>197.4</ele>
        <time>2022-08-14T14:26:48Z</time>
      </trkpt>
      <trkpt lat="44.63078" lon="0.8701">
        <ele>197.9</ele>
        <time>2022-08-14T14:26:50Z</time>
      </trkpt>
      <trkpt lat="44.63078" lon="0.87015">
        <ele>198.4</ele>
        <time>2022-08-14T14:26:52Z</time>
      </trkpt>
      <trkpt lat="44.63078" lon="0.8702">
        <ele>198.8</ele>
        <time>2022-08-14T14:26:54Z</time>
      </trkpt>
      <trkpt lat="44.63079" lon="0.87023">
        <ele>199.3</ele>
        <time>2022-08-14T14:26:56Z</time>
      </trkpt>
      <trkpt lat="44.63079" lon="0.87027">
        <ele>199.7</ele>
        <time>2022-08-14T14:26:58Z</time>
      </trkpt>
      <trkpt lat="44.63079" lon="0.87032">
        <ele>200.2</ele>
        <time>2022-08-14T14:27:00Z</time>
      </trkpt>
      <trkpt lat="44.63081" lon="0.87036">
        <ele>200.7</ele>
        <time>2022-08-14T14:27:02Z</time>
      </trkpt>
      <trkpt lat="44.63082" lon="0.8704">
        <ele>201.2</ele>
        <time>2022-08-14T14:27:04Z</time>
      </trkpt>
      <trkpt lat="44.63083" lon="0.87043">
        <ele>201.7</ele>
        <time>2022-08-14T14:27:06Z</time>
      </trkpt>
      <trkpt lat="44.63084" lon="0.87047">
        <ele>202.1</ele>
        <time>2022-08-14T14:27:08Z</time>
      </trkpt>
      <trkpt lat="44.63085" lon="0.87051">
        <ele>202.5</ele>
        <time>2022-08-14T14:27:10Z</time>
      </trkpt>
      <trkpt lat="44.63086" lon="0.87055">
        <ele>203</ele>
        <time>2022-08-14T14:27:12Z</time>
      </trkpt>
      <trkpt lat="44.63087" lon="0.87059">
        <ele>203.5</ele>
        <time>2022-08-14T14:27:14Z</time>
      </trkpt>
      <trkpt lat="44.63089" lon="0.87063">
        <ele>203.9</ele>
        <time>2022-08-14T14:27:16Z</time>
      </trkpt>
      <trkpt lat="44.63091" lon="0.87066">
        <ele>204.3</ele>
        <time>2022-08-14T14:27:18Z</time>
      </trkpt>
      <trkpt lat="44.63093" lon="0.8707">
        <ele>204.8</ele>
        <time>2022-08-14T14:27:20Z</time>
      </trkpt>
      <trkpt lat="44.63094" lon="0.87074">
        <ele>205.4</ele>
        <time>2022-08-14T14:27:22Z</time>
      </trkpt>
      <trkpt lat="44.63095" lon="0.87078">
        <ele>205.9</ele>
        <time>2022-08-14T14:27:24Z</time>
      </trkpt>
      <trkpt lat="44.63097" lon="0.87082">
        <ele>206.3</ele>
        <time>2022-08-14T14:27:26Z</time>
      </trkpt>
      <trkpt lat="44.63099" lon="0.87085">
        <ele>206.7</ele>
        <time>2022-08-14T14:27:28Z</time>
      </trkpt>
      <trkpt lat="44.63102" lon="0.87088">
        <ele>207.1</ele>
        <time>2022-08-14T14:27:30Z</time>
      </trkpt>
      <trkpt lat="44.63104" lon="0.87091">
        <ele>207.6</ele>
        <time>2022-08-14T14:27:32Z</time>
      </trkpt>
      <trkpt lat="44.63106" lon="0.87095">
        <ele>208.1</ele>
        <time>2022-08-14T14:27:34Z</time>
      </trkpt>
      <trkpt lat="44.63106" lon="0.87099">
        <ele>208.6</ele>
        <time>2022-08-14T14:27:36Z</time>
      </trkpt>
      <trkpt lat="44.63107" lon="0.87103">
        <ele>209.1</ele>
        <time>2022-08-14T14:27:38Z</time>
      </trkpt>
      <trkpt lat="44.63109" lon="0.87107">
        <ele>209.6</ele>
        <time>2022-08-14T14:27:40Z</time>
      </trkpt>
      <trkpt lat="44.63111" lon="0.87111">
        <ele>210.2</ele>
        <time>2022-08-14T14:27:42Z</time>
      </trkpt>
      <trkpt lat="44.63112" lon="0.87115">
        <ele>210.7</ele>
        <time>2022-08-14T14:27:44Z</time>
      </trkpt>
      <trkpt lat="44.63114" lon="0.87119">
        <ele>211.4</ele>
        <time>2022-08-14T14:27:46Z</time>
      </trkpt>
      <trkpt lat="44.63116" lon="0.87122">
        <ele>211.9</ele>
        <time>2022-08-14T14:27:48Z</time>
      </trkpt>
      <trkpt lat="44.63118" lon="0.87124">
        <ele>212.3</ele>
        <time>2022-08-14T14:27:50Z</time>
      </trkpt>
      <trkpt lat="44.6312" lon="0.87126">
        <ele>212.7</ele>
        <time>2022-08-14T14:27:52Z</time>
      </trkpt>
      <trkpt lat="44.63123" lon="0.87125">
        <ele>212.8</ele>
        <time>2022-08-14T14:27:54Z</time>
      </trkpt>
      <trkpt lat="44.63126" lon="0.87123">
        <ele>212.9</ele>
        <time>2022-08-14T14:27:56Z</time>
      </trkpt>
      <trkpt lat="44.63128" lon="0.87123">
        <ele>213</ele>
        <time>2022-08-14T14:27:58Z</time>
      </trkpt>
      <trkpt lat="44.63129" lon="0.87122">
        <ele>212.9</ele>
        <time>2022-08-14T14:28:00Z</time>
      </trkpt>
      <trkpt lat="44.63129" lon="0.87122">
        <ele>212.9</ele>
        <time>2022-08-14T14:28:02Z</time>
      </trkpt>
      <trkpt lat="44.63129" lon="0.87123">
        <ele>213.1</ele>
        <time>2022-08-14T14:28:04Z</time>
      </trkpt>
      <trkpt lat="44.63128" lon="0.87124">
        <ele>213.2</ele>
        <time>2022-08-14T14:28:06Z</time>
      </trkpt>
      <trkpt lat="44.63193" lon="0.87196">
        <ele>224.7</ele>
        <time>2022-08-14T14:44:28Z</time>
      </trkpt>
      <trkpt lat="44.63116" lon="0.87135">
        <ele>213.5</ele>
        <time>2022-08-14T16:08:30Z</time>
      </trkpt>
      <trkpt lat="44.63116" lon="0.87135">
        <ele>213.4</ele>
        <time>2022-08-14T16:08:31Z</time>
      </trkpt>
      <trkpt lat="44.63133" lon="0.8712">
        <ele>213</ele>
        <time>2022-08-14T16:11:17Z</time>
      </trkpt>
      <trkpt lat="44.63137" lon="0.87118">
        <ele>212.9</ele>
        <time>2022-08-14T16:11:19Z</time>
      </trkpt>
      <trkpt lat="44.63141" lon="0.87116">
        <ele>213</ele>
        <time>2022-08-14T16:11:21Z</time>
      </trkpt>
      <trkpt lat="44.63146" lon="0.87112">
        <ele>212.7</ele>
        <time>2022-08-14T16:11:23Z</time>
      </trkpt>
      <trkpt lat="44.6315" lon="0.87112">
        <ele>213.1</ele>
        <time>2022-08-14T16:11:25Z</time>
      </trkpt>
      <trkpt lat="44.63154" lon="0.87111">
        <ele>213.2</ele>
        <time>2022-08-14T16:11:27Z</time>
      </trkpt>
      <trkpt lat="44.63158" lon="0.8711">
        <ele>213.2</ele>
        <time>2022-08-14T16:11:29Z</time>
      </trkpt>
      <trkpt lat="44.63163" lon="0.8711">
        <ele>213.5</ele>
        <time>2022-08-14T16:11:31Z</time>
      </trkpt>
      <trkpt lat="44.63168" lon="0.8711">
        <ele>213.7</ele>
        <time>2022-08-14T16:11:33Z</time>
      </trkpt>
      <trkpt lat="44.63173" lon="0.87109">
        <ele>213.5</ele>
        <time>2022-08-14T16:11:35Z</time>
      </trkpt>
      <trkpt lat="44.63179" lon="0.87109">
        <ele>213.3</ele>
        <time>2022-08-14T16:11:37Z</time>
      </trkpt>
      <trkpt lat="44.63184" lon="0.87109">
        <ele>213.3</ele>
        <time>2022-08-14T16:11:39Z</time>
      </trkpt>
      <trkpt lat="44.63189" lon="0.8711">
        <ele>213.2</ele>
        <time>2022-08-14T16:11:41Z</time>
      </trkpt>
      <trkpt lat="44.63195" lon="0.8711">
        <ele>213.2</ele>
        <time>2022-08-14T16:11:43Z</time>
      </trkpt>
      <trkpt lat="44.63201" lon="0.87111">
        <ele>213.2</ele>
        <time>2022-08-14T16:11:45Z</time>
      </trkpt>
      <trkpt lat="44.63205" lon="0.87113">
        <ele>213.4</ele>
        <time>2022-08-14T16:11:47Z</time>
      </trkpt>
      <trkpt lat="44.63208" lon="0.87115">
        <ele>213.6</ele>
        <time>2022-08-14T16:11:49Z</time>
      </trkpt>
      <trkpt lat="44.63212" lon="0.87115">
        <ele>213.6</ele>
        <time>2022-08-14T16:11:51Z</time>
      </trkpt>
      <trkpt lat="44.63216" lon="0.87116">
        <ele>213.6</ele>
        <time>2022-08-14T16:11:53Z</time>
      </trkpt>
      <trkpt lat="44.63221" lon="0.87118">
        <ele>213.8</ele>
        <time>2022-08-14T16:11:55Z</time>
      </trkpt>
      <trkpt lat="44.63228" lon="0.87122">
        <ele>214.2</ele>
        <time>2022-08-14T16:11:57Z</time>
      </trkpt>
      <trkpt lat="44.63232" lon="0.87127">
        <ele>214.8</ele>
        <time>2022-08-14T16:11:59Z</time>
      </trkpt>
      <trkpt lat="44.63237" lon="0.87131">
        <ele>215.2</ele>
        <time>2022-08-14T16:12:01Z</time>
      </trkpt>
      <trkpt lat="44.63242" lon="0.87135">
        <ele>215.7</ele>
        <time>2022-08-14T16:12:03Z</time>
      </trkpt>
      <trkpt lat="44.63247" lon="0.87139">
        <ele>216.1</ele>
        <time>2022-08-14T16:12:05Z</time>
      </trkpt>
      <trkpt lat="44.6325" lon="0.87143">
        <ele>216.5</ele>
        <time>2022-08-14T16:12:07Z</time>
      </trkpt>
      <trkpt lat="44.63254" lon="0.87148">
        <ele>216.5</ele>
        <time>2022-08-14T16:12:09Z</time>
      </trkpt>
      <trkpt lat="44.63258" lon="0.87153">
        <ele>216.4</ele>
        <time>2022-08-14T16:12:11Z</time>
      </trkpt>
      <trkpt lat="44.63261" lon="0.87158">
        <ele>216.3</ele>
        <time>2022-08-14T16:12:13Z</time>
      </trkpt>
      <trkpt lat="44.63265" lon="0.87164">
        <ele>216.2</ele>
        <time>2022-08-14T16:12:15Z</time>
      </trkpt>
      <trkpt lat="44.63269" lon="0.8717">
        <ele>216.2</ele>
        <time>2022-08-14T16:12:17Z</time>
      </trkpt>
      <trkpt lat="44.63272" lon="0.87176">
        <ele>216.3</ele>
        <time>2022-08-14T16:12:19Z</time>
      </trkpt>
      <trkpt lat="44.63275" lon="0.87183">
        <ele>216.5</ele>
        <time>2022-08-14T16:12:21Z</time>
      </trkpt>
      <trkpt lat="44.63278" lon="0.87189">
        <ele>216.6</ele>
        <time>2022-08-14T16:12:23Z</time>
      </trkpt>
      <trkpt lat="44.63281" lon="0.87197">
        <ele>216.9</ele>
        <time>2022-08-14T16:12:25Z</time>
      </trkpt>
      <trkpt lat="44.63283" lon="0.87205">
        <ele>217.4</ele>
        <time>2022-08-14T16:12:27Z</time>
      </trkpt>
      <trkpt lat="44.63285" lon="0.87213">
        <ele>218</ele>
        <time>2022-08-14T16:12:29Z</time>
      </trkpt>
      <trkpt lat="44.63287" lon="0.87221">
        <ele>218.7</ele>
        <time>2022-08-14T16:12:31Z</time>
      </trkpt>
      <trkpt lat="44.63289" lon="0.8723">
        <ele>219.6</ele>
        <time>2022-08-14T16:12:33Z</time>
      </trkpt>
      <trkpt lat="44.63291" lon="0.8724">
        <ele>220.4</ele>
        <time>2022-08-14T16:12:35Z</time>
      </trkpt>
      <trkpt lat="44.63292" lon="0.8725">
        <ele>221.3</ele>
        <time>2022-08-14T16:12:37Z</time>
      </trkpt>
      <trkpt lat="44.63294" lon="0.87261">
        <ele>220.9</ele>
        <time>2022-08-14T16:12:39Z</time>
      </trkpt>
      <trkpt lat="44.63296" lon="0.87271">
        <ele>220.4</ele>
        <time>2022-08-14T16:12:41Z</time>
      </trkpt>
      <trkpt lat="44.63297" lon="0.8728">
        <ele>220.1</ele>
        <time>2022-08-14T16:12:43Z</time>
      </trkpt>
      <trkpt lat="44.633" lon="0.87291">
        <ele>219.7</ele>
        <time>2022-08-14T16:12:45Z</time>
      </trkpt>
      <trkpt lat="44.63302" lon="0.87301">
        <ele>219.3</ele>
        <time>2022-08-14T16:12:47Z</time>
      </trkpt>
      <trkpt lat="44.63306" lon="0.87312">
        <ele>218.8</ele>
        <time>2022-08-14T16:12:49Z</time>
      </trkpt>
      <trkpt lat="44.63311" lon="0.87323">
        <ele>218.2</ele>
        <time>2022-08-14T16:12:51Z</time>
      </trkpt>
      <trkpt lat="44.63317" lon="0.87333">
        <ele>217.7</ele>
        <time>2022-08-14T16:12:53Z</time>
      </trkpt>
      <trkpt lat="44.63324" lon="0.87343">
        <ele>216.5</ele>
        <time>2022-08-14T16:12:55Z</time>
      </trkpt>
      <trkpt lat="44.6333" lon="0.87349">
        <ele>215.7</ele>
        <time>2022-08-14T16:12:57Z</time>
      </trkpt>
      <trkpt lat="44.63335" lon="0.87355">
        <ele>215.1</ele>
        <time>2022-08-14T16:12:59Z</time>
      </trkpt>
      <trkpt lat="44.63338" lon="0.8736">
        <ele>214.8</ele>
        <time>2022-08-14T16:13:01Z</time>
      </trkpt>
      <trkpt lat="44.63338" lon="0.87361">
        <ele>214.8</ele>
        <time>2022-08-14T16:13:03Z</time>
      </trkpt>
      <trkpt lat="44.63338" lon="0.87361">
        <ele>214.8</ele>
        <time>2022-08-14T16:13:05Z</time>
      </trkpt>
      <trkpt lat="44.63338" lon="0.87361">
        <ele>214.8</ele>
        <time>2022-08-14T16:13:07Z</time>
      </trkpt>
      <trkpt lat="44.63338" lon="0.87361">
        <ele>214.8</ele>
        <time>2022-08-14T16:13:09Z</time>
      </trkpt>
      <trkpt lat="44.63338" lon="0.87361">
        <ele>214.8</ele>
        <time>2022-08-14T16:13:11Z</time>
      </trkpt>
      <trkpt lat="44.6335" lon="0.87381">
        <ele>213.6</ele>
        <time>2022-08-14T16:13:51Z</time>
      </trkpt>
      <trkpt lat="44.63356" lon="0.87392">
        <ele>213.2</ele>
        <time>2022-08-14T16:13:53Z</time>
      </trkpt>
      <trkpt lat="44.63362" lon="0.87405">
        <ele>212.8</ele>
        <time>2022-08-14T16:13:55Z</time>
      </trkpt>
      <trkpt lat="44.63368" lon="0.87419">
        <ele>212.5</ele>
        <time>2022-08-14T16:13:57Z</time>
      </trkpt>
      <trkpt lat="44.63374" lon="0.87434">
        <ele>211.7</ele>
        <time>2022-08-14T16:13:59Z</time>
      </trkpt>
      <trkpt lat="44.6338" lon="0.8745">
        <ele>210.8</ele>
        <time>2022-08-14T16:14:01Z</time>
      </trkpt>
      <trkpt lat="44.63387" lon="0.87465">
        <ele>209.9</ele>
        <time>2022-08-14T16:14:03Z</time>
      </trkpt>
      <trkpt lat="44.63394" lon="0.87482">
        <ele>208.8</ele>
        <time>2022-08-14T16:14:05Z</time>
      </trkpt>
      <trkpt lat="44.63401" lon="0.875">
        <ele>207.5</ele>
        <time>2022-08-14T16:14:07Z</time>
      </trkpt>
      <trkpt lat="44.63409" lon="0.87519">
        <ele>206.4</ele>
        <time>2022-08-14T16:14:09Z</time>
      </trkpt>
      <trkpt lat="44.63417" lon="0.87537">
        <ele>205.3</ele>
        <time>2022-08-14T16:14:11Z</time>
      </trkpt>
      <trkpt lat="44.63425" lon="0.87556">
        <ele>204.7</ele>
        <time>2022-08-14T16:14:13Z</time>
      </trkpt>
      <trkpt lat="44.63433" lon="0.87574">
        <ele>204.1</ele>
        <time>2022-08-14T16:14:15Z</time>
      </trkpt>
      <trkpt lat="44.63441" lon="0.87593">
        <ele>204</ele>
        <time>2022-08-14T16:14:17Z</time>
      </trkpt>
      <trkpt lat="44.63448" lon="0.87611">
        <ele>204.1</ele>
        <time>2022-08-14T16:14:19Z</time>
      </trkpt>
      <trkpt lat="44.63456" lon="0.87629">
        <ele>204</ele>
        <time>2022-08-14T16:14:21Z</time>
      </trkpt>
      <trkpt lat="44.63462" lon="0.87648">
        <ele>203.6</ele>
        <time>2022-08-14T16:14:23Z</time>
      </trkpt>
      <trkpt lat="44.63465" lon="0.87669">
        <ele>203</ele>
        <time>2022-08-14T16:14:25Z</time>
      </trkpt>
      <trkpt lat="44.63467" lon="0.87689">
        <ele>202.3</ele>
        <time>2022-08-14T16:14:27Z</time>
      </trkpt>
      <trkpt lat="44.63472" lon="0.8771">
        <ele>201.5</ele>
        <time>2022-08-14T16:14:29Z</time>
      </trkpt>
      <trkpt lat="44.63473" lon="0.8773">
        <ele>200.9</ele>
        <time>2022-08-14T16:14:31Z</time>
      </trkpt>
      <trkpt lat="44.6348" lon="0.87741">
        <ele>200.2</ele>
        <time>2022-08-14T16:14:33Z</time>
      </trkpt>
      <trkpt lat="44.63485" lon="0.87758">
        <ele>200</ele>
        <time>2022-08-14T16:14:35Z</time>
      </trkpt>
      <trkpt lat="44.63489" lon="0.87773">
        <ele>200.5</ele>
        <time>2022-08-14T16:14:37Z</time>
      </trkpt>
      <trkpt lat="44.63494" lon="0.87786">
        <ele>200.9</ele>
        <time>2022-08-14T16:14:39Z</time>
      </trkpt>
      <trkpt lat="44.63496" lon="0.87797">
        <ele>201.4</ele>
        <time>2022-08-14T16:14:41Z</time>
      </trkpt>
      <trkpt lat="44.63499" lon="0.87811">
        <ele>201.9</ele>
        <time>2022-08-14T16:14:43Z</time>
      </trkpt>
      <trkpt lat="44.63498" lon="0.87822">
        <ele>202.5</ele>
        <time>2022-08-14T16:14:45Z</time>
      </trkpt>
      <trkpt lat="44.63501" lon="0.87835">
        <ele>203.2</ele>
        <time>2022-08-14T16:14:47Z</time>
      </trkpt>
      <trkpt lat="44.63508" lon="0.87845">
        <ele>204.4</ele>
        <time>2022-08-14T16:14:49Z</time>
      </trkpt>
      <trkpt lat="44.63513" lon="0.87844">
        <ele>204.5</ele>
        <time>2022-08-14T16:14:51Z</time>
      </trkpt>
      <trkpt lat="44.63517" lon="0.87846">
        <ele>204.9</ele>
        <time>2022-08-14T16:14:53Z</time>
      </trkpt>
      <trkpt lat="44.63521" lon="0.8785">
        <ele>205.4</ele>
        <time>2022-08-14T16:14:55Z</time>
      </trkpt>
      <trkpt lat="44.63527" lon="0.87854">
        <ele>206</ele>
        <time>2022-08-14T16:14:57Z</time>
      </trkpt>
      <trkpt lat="44.63531" lon="0.8786">
        <ele>206.7</ele>
        <time>2022-08-14T16:14:59Z</time>
      </trkpt>
      <trkpt lat="44.63537" lon="0.87865">
        <ele>207.5</ele>
        <time>2022-08-14T16:15:01Z</time>
      </trkpt>
      <trkpt lat="44.63541" lon="0.8787">
        <ele>208</ele>
        <time>2022-08-14T16:15:03Z</time>
      </trkpt>
      <trkpt lat="44.63545" lon="0.87875">
        <ele>208.6</ele>
        <time>2022-08-14T16:15:05Z</time>
      </trkpt>
      <trkpt lat="44.6355" lon="0.87879">
        <ele>209.2</ele>
        <time>2022-08-14T16:15:07Z</time>
      </trkpt>
      <trkpt lat="44.63555" lon="0.87885">
        <ele>210</ele>
        <time>2022-08-14T16:15:09Z</time>
      </trkpt>
      <trkpt lat="44.6356" lon="0.8789">
        <ele>210.6</ele>
        <time>2022-08-14T16:15:11Z</time>
      </trkpt>
      <trkpt lat="44.63563" lon="0.87894">
        <ele>211.1</ele>
        <time>2022-08-14T16:15:13Z</time>
      </trkpt>
      <trkpt lat="44.63568" lon="0.87898">
        <ele>211.7</ele>
        <time>2022-08-14T16:15:15Z</time>
      </trkpt>
      <trkpt lat="44.63571" lon="0.87902">
        <ele>212.2</ele>
        <time>2022-08-14T16:15:17Z</time>
      </trkpt>
      <trkpt lat="44.63574" lon="0.87906">
        <ele>212.7</ele>
        <time>2022-08-14T16:15:19Z</time>
      </trkpt>
      <trkpt lat="44.63578" lon="0.8791">
        <ele>213.2</ele>
        <time>2022-08-14T16:15:21Z</time>
      </trkpt>
      <trkpt lat="44.63581" lon="0.87914">
        <ele>213.7</ele>
        <time>2022-08-14T16:15:23Z</time>
      </trkpt>
      <trkpt lat="44.63584" lon="0.87918">
        <ele>214</ele>
        <time>2022-08-14T16:15:25Z</time>
      </trkpt>
      <trkpt lat="44.63587" lon="0.8792">
        <ele>214</ele>
        <time>2022-08-14T16:15:27Z</time>
      </trkpt>
      <trkpt lat="44.6359" lon="0.87922">
        <ele>214.1</ele>
        <time>2022-08-14T16:15:29Z</time>
      </trkpt>
      <trkpt lat="44.63594" lon="0.87925">
        <ele>214.1</ele>
        <time>2022-08-14T16:15:31Z</time>
      </trkpt>
      <trkpt lat="44.63598" lon="0.87928">
        <ele>214.2</ele>
        <time>2022-08-14T16:15:33Z</time>
      </trkpt>
      <trkpt lat="44.63601" lon="0.8793">
        <ele>214.2</ele>
        <time>2022-08-14T16:15:35Z</time>
      </trkpt>
      <trkpt lat="44.63604" lon="0.87933">
        <ele>214.2</ele>
        <time>2022-08-14T16:15:37Z</time>
      </trkpt>
      <trkpt lat="44.63607" lon="0.87936">
        <ele>214.2</ele>
        <time>2022-08-14T16:15:39Z</time>
      </trkpt>
      <trkpt lat="44.6361" lon="0.87938">
        <ele>214.2</ele>
        <time>2022-08-14T16:15:41Z</time>
      </trkpt>
      <trkpt lat="44.63613" lon="0.87941">
        <ele>214.2</ele>
        <time>2022-08-14T16:15:43Z</time>
      </trkpt>
      <trkpt lat="44.63616" lon="0.87943">
        <ele>214.3</ele>
        <time>2022-08-14T16:15:45Z</time>
      </trkpt>
      <trkpt lat="44.63618" lon="0.87945">
        <ele>214.3</ele>
        <time>2022-08-14T16:15:47Z</time>
      </trkpt>
      <trkpt lat="44.63621" lon="0.87948">
        <ele>214.3</ele>
        <time>2022-08-14T16:15:49Z</time>
      </trkpt>
      <trkpt lat="44.63624" lon="0.8795">
        <ele>214.3</ele>
        <time>2022-08-14T16:15:51Z</time>
      </trkpt>
      <trkpt lat="44.63626" lon="0.87952">
        <ele>214.3</ele>
        <time>2022-08-14T16:15:53Z</time>
      </trkpt>
      <trkpt lat="44.6363" lon="0.87954">
        <ele>214.3</ele>
        <time>2022-08-14T16:15:55Z</time>
      </trkpt>
      <trkpt lat="44.63633" lon="0.87956">
        <ele>214.3</ele>
        <time>2022-08-14T16:15:57Z</time>
      </trkpt>
      <trkpt lat="44.63635" lon="0.87957">
        <ele>214.3</ele>
        <time>2022-08-14T16:15:59Z</time>
      </trkpt>
      <trkpt lat="44.63639" lon="0.87959">
        <ele>214.3</ele>
        <time>2022-08-14T16:16:01Z</time>
      </trkpt>
      <trkpt lat="44.63643" lon="0.87961">
        <ele>214.3</ele>
        <time>2022-08-14T16:16:03Z</time>
      </trkpt>
      <trkpt lat="44.63649" lon="0.87965">
        <ele>214.3</ele>
        <time>2022-08-14T16:16:05Z</time>
      </trkpt>
      <trkpt lat="44.63655" lon="0.87969">
        <ele>214.3</ele>
        <time>2022-08-14T16:16:07Z</time>
      </trkpt>
      <trkpt lat="44.63664" lon="0.87973">
        <ele>214.3</ele>
        <time>2022-08-14T16:16:09Z</time>
      </trkpt>
      <trkpt lat="44.63672" lon="0.87978">
        <ele>214</ele>
        <time>2022-08-14T16:16:11Z</time>
      </trkpt>
      <trkpt lat="44.63681" lon="0.87984">
        <ele>213.6</ele>
        <time>2022-08-14T16:16:13Z</time>
      </trkpt>
      <trkpt lat="44.63691" lon="0.8799">
        <ele>213.1</ele>
        <time>2022-08-14T16:16:15Z</time>
      </trkpt>
      <trkpt lat="44.63702" lon="0.87997">
        <ele>212.4</ele>
        <time>2022-08-14T16:16:17Z</time>
      </trkpt>
      <trkpt lat="44.63714" lon="0.88004">
        <ele>211.9</ele>
        <time>2022-08-14T16:16:19Z</time>
      </trkpt>
      <trkpt lat="44.63723" lon="0.88009">
        <ele>211.6</ele>
        <time>2022-08-14T16:16:21Z</time>
      </trkpt>
      <trkpt lat="44.63734" lon="0.88016">
        <ele>211.3</ele>
        <time>2022-08-14T16:16:23Z</time>
      </trkpt>
      <trkpt lat="44.63746" lon="0.88023">
        <ele>211</ele>
        <time>2022-08-14T16:16:25Z</time>
      </trkpt>
      <trkpt lat="44.63756" lon="0.88031">
        <ele>210.7</ele>
        <time>2022-08-14T16:16:27Z</time>
      </trkpt>
      <trkpt lat="44.63768" lon="0.88039">
        <ele>210</ele>
        <time>2022-08-14T16:16:29Z</time>
      </trkpt>
      <trkpt lat="44.63778" lon="0.88044">
        <ele>209.4</ele>
        <time>2022-08-14T16:16:31Z</time>
      </trkpt>
      <trkpt lat="44.63788" lon="0.8805">
        <ele>208.7</ele>
        <time>2022-08-14T16:16:33Z</time>
      </trkpt>
      <trkpt lat="44.63799" lon="0.88054">
        <ele>207.8</ele>
        <time>2022-08-14T16:16:35Z</time>
      </trkpt>
      <trkpt lat="44.63812" lon="0.8806">
        <ele>206.8</ele>
        <time>2022-08-14T16:16:37Z</time>
      </trkpt>
      <trkpt lat="44.63825" lon="0.88066">
        <ele>205.7</ele>
        <time>2022-08-14T16:16:39Z</time>
      </trkpt>
      <trkpt lat="44.63837" lon="0.88069">
        <ele>204.8</ele>
        <time>2022-08-14T16:16:41Z</time>
      </trkpt>
      <trkpt lat="44.63847" lon="0.88073">
        <ele>204.3</ele>
        <time>2022-08-14T16:16:43Z</time>
      </trkpt>
      <trkpt lat="44.63859" lon="0.88077">
        <ele>203.7</ele>
        <time>2022-08-14T16:16:45Z</time>
      </trkpt>
      <trkpt lat="44.63868" lon="0.8808">
        <ele>203.3</ele>
        <time>2022-08-14T16:16:47Z</time>
      </trkpt>
      <trkpt lat="44.63877" lon="0.88085">
        <ele>202.9</ele>
        <time>2022-08-14T16:16:49Z</time>
      </trkpt>
      <trkpt lat="44.63887" lon="0.88088">
        <ele>202.5</ele>
        <time>2022-08-14T16:16:51Z</time>
      </trkpt>
      <trkpt lat="44.63899" lon="0.88091">
        <ele>202</ele>
        <time>2022-08-14T16:16:53Z</time>
      </trkpt>
      <trkpt lat="44.63911" lon="0.88096">
        <ele>201.4</ele>
        <time>2022-08-14T16:16:55Z</time>
      </trkpt>
      <trkpt lat="44.63924" lon="0.88101">
        <ele>201</ele>
        <time>2022-08-14T16:16:57Z</time>
      </trkpt>
      <trkpt lat="44.63936" lon="0.88106">
        <ele>200.8</ele>
        <time>2022-08-14T16:16:59Z</time>
      </trkpt>
      <trkpt lat="44.6395" lon="0.88111">
        <ele>200.5</ele>
        <time>2022-08-14T16:17:01Z</time>
      </trkpt>
      <trkpt lat="44.63963" lon="0.88115">
        <ele>200.3</ele>
        <time>2022-08-14T16:17:03Z</time>
      </trkpt>
      <trkpt lat="44.63974" lon="0.88119">
        <ele>200.1</ele>
        <time>2022-08-14T16:17:05Z</time>
      </trkpt>
      <trkpt lat="44.63985" lon="0.88122">
        <ele>199.8</ele>
        <time>2022-08-14T16:17:07Z</time>
      </trkpt>
      <trkpt lat="44.63999" lon="0.88127">
        <ele>199.6</ele>
        <time>2022-08-14T16:17:09Z</time>
      </trkpt>
      <trkpt lat="44.64014" lon="0.8813">
        <ele>199.3</ele>
        <time>2022-08-14T16:17:11Z</time>
      </trkpt>
      <trkpt lat="44.6403" lon="0.88136">
        <ele>199</ele>
        <time>2022-08-14T16:17:13Z</time>
      </trkpt>
      <trkpt lat="44.64045" lon="0.88143">
        <ele>198.8</ele>
        <time>2022-08-14T16:17:15Z</time>
      </trkpt>
      <trkpt lat="44.64057" lon="0.88151">
        <ele>198.6</ele>
        <time>2022-08-14T16:17:17Z</time>
      </trkpt>
      <trkpt lat="44.6407" lon="0.88159">
        <ele>198.3</ele>
        <time>2022-08-14T16:17:19Z</time>
      </trkpt>
      <trkpt lat="44.64082" lon="0.8817">
        <ele>198</ele>
        <time>2022-08-14T16:17:21Z</time>
      </trkpt>
      <trkpt lat="44.64093" lon="0.8818">
        <ele>197.8</ele>
        <time>2022-08-14T16:17:23Z</time>
      </trkpt>
      <trkpt lat="44.64102" lon="0.88186">
        <ele>197.6</ele>
        <time>2022-08-14T16:17:25Z</time>
      </trkpt>
      <trkpt lat="44.64114" lon="0.8819">
        <ele>197.6</ele>
        <time>2022-08-14T16:17:27Z</time>
      </trkpt>
      <trkpt lat="44.64122" lon="0.88196">
        <ele>197.5</ele>
        <time>2022-08-14T16:17:29Z</time>
      </trkpt>
      <trkpt lat="44.64131" lon="0.88201">
        <ele>197.5</ele>
        <time>2022-08-14T16:17:31Z</time>
      </trkpt>
      <trkpt lat="44.6414" lon="0.88207">
        <ele>197.5</ele>
        <time>2022-08-14T16:17:33Z</time>
      </trkpt>
      <trkpt lat="44.64148" lon="0.88213">
        <ele>197.5</ele>
        <time>2022-08-14T16:17:35Z</time>
      </trkpt>
      <trkpt lat="44.64157" lon="0.88216">
        <ele>197.6</ele>
        <time>2022-08-14T16:17:37Z</time>
      </trkpt>
      <trkpt lat="44.64165" lon="0.88219">
        <ele>197.6</ele>
        <time>2022-08-14T16:17:39Z</time>
      </trkpt>
      <trkpt lat="44.64173" lon="0.88221">
        <ele>197.8</ele>
        <time>2022-08-14T16:17:41Z</time>
      </trkpt>
      <trkpt lat="44.64179" lon="0.88225">
        <ele>198</ele>
        <time>2022-08-14T16:17:43Z</time>
      </trkpt>
      <trkpt lat="44.64185" lon="0.88227">
        <ele>198.2</ele>
        <time>2022-08-14T16:17:45Z</time>
      </trkpt>
      <trkpt lat="44.64191" lon="0.8823">
        <ele>198.4</ele>
        <time>2022-08-14T16:17:47Z</time>
      </trkpt>
      <trkpt lat="44.64197" lon="0.88233">
        <ele>198.6</ele>
        <time>2022-08-14T16:17:49Z</time>
      </trkpt>
      <trkpt lat="44.64201" lon="0.88234">
        <ele>198.7</ele>
        <time>2022-08-14T16:17:51Z</time>
      </trkpt>
      <trkpt lat="44.64206" lon="0.88236">
        <ele>198.9</ele>
        <time>2022-08-14T16:17:53Z</time>
      </trkpt>
      <trkpt lat="44.6421" lon="0.88239">
        <ele>199</ele>
        <time>2022-08-14T16:17:55Z</time>
      </trkpt>
      <trkpt lat="44.64214" lon="0.88241">
        <ele>199.1</ele>
        <time>2022-08-14T16:17:57Z</time>
      </trkpt>
      <trkpt lat="44.64217" lon="0.88242">
        <ele>199.2</ele>
        <time>2022-08-14T16:17:59Z</time>
      </trkpt>
      <trkpt lat="44.64221" lon="0.88243">
        <ele>199.3</ele>
        <time>2022-08-14T16:18:01Z</time>
      </trkpt>
      <trkpt lat="44.64225" lon="0.88245">
        <ele>199.4</ele>
        <time>2022-08-14T16:18:03Z</time>
      </trkpt>
      <trkpt lat="44.64229" lon="0.88248">
        <ele>199.5</ele>
        <time>2022-08-14T16:18:05Z</time>
      </trkpt>
      <trkpt lat="44.64233" lon="0.8825">
        <ele>199.6</ele>
        <time>2022-08-14T16:18:07Z</time>
      </trkpt>
      <trkpt lat="44.64237" lon="0.88251">
        <ele>199.7</ele>
        <time>2022-08-14T16:18:09Z</time>
      </trkpt>
      <trkpt lat="44.64241" lon="0.88254">
        <ele>200</ele>
        <time>2022-08-14T16:18:11Z</time>
      </trkpt>
      <trkpt lat="44.64245" lon="0.88254">
        <ele>200.1</ele>
        <time>2022-08-14T16:18:13Z</time>
      </trkpt>
      <trkpt lat="44.6425" lon="0.88257">
        <ele>200.4</ele>
        <time>2022-08-14T16:18:15Z</time>
      </trkpt>
      <trkpt lat="44.64253" lon="0.88259">
        <ele>200.6</ele>
        <time>2022-08-14T16:18:17Z</time>
      </trkpt>
      <trkpt lat="44.64258" lon="0.88261">
        <ele>200.9</ele>
        <time>2022-08-14T16:18:19Z</time>
      </trkpt>
      <trkpt lat="44.64263" lon="0.88263">
        <ele>201.2</ele>
        <time>2022-08-14T16:18:21Z</time>
      </trkpt>
      <trkpt lat="44.64267" lon="0.88265">
        <ele>201.5</ele>
        <time>2022-08-14T16:18:23Z</time>
      </trkpt>
      <trkpt lat="44.64272" lon="0.88268">
        <ele>201.8</ele>
        <time>2022-08-14T16:18:25Z</time>
      </trkpt>
      <trkpt lat="44.64276" lon="0.88271">
        <ele>202.2</ele>
        <time>2022-08-14T16:18:27Z</time>
      </trkpt>
      <trkpt lat="44.64279" lon="0.88273">
        <ele>202.4</ele>
        <time>2022-08-14T16:18:29Z</time>
      </trkpt>
      <trkpt lat="44.64284" lon="0.88276">
        <ele>202.8</ele>
        <time>2022-08-14T16:18:31Z</time>
      </trkpt>
      <trkpt lat="44.64288" lon="0.88278">
        <ele>203</ele>
        <time>2022-08-14T16:18:33Z</time>
      </trkpt>
      <trkpt lat="44.64291" lon="0.88282">
        <ele>203.3</ele>
        <time>2022-08-14T16:18:35Z</time>
      </trkpt>
      <trkpt lat="44.64295" lon="0.88286">
        <ele>203.7</ele>
        <time>2022-08-14T16:18:37Z</time>
      </trkpt>
      <trkpt lat="44.643" lon="0.88288">
        <ele>204</ele>
        <time>2022-08-14T16:18:39Z</time>
      </trkpt>
      <trkpt lat="44.64304" lon="0.88291">
        <ele>204.2</ele>
        <time>2022-08-14T16:18:41Z</time>
      </trkpt>
      <trkpt lat="44.64307" lon="0.88294">
        <ele>204.5</ele>
        <time>2022-08-14T16:18:43Z</time>
      </trkpt>
      <trkpt lat="44.64311" lon="0.88297">
        <ele>204.8</ele>
        <time>2022-08-14T16:18:45Z</time>
      </trkpt>
      <trkpt lat="44.64316" lon="0.883">
        <ele>205.1</ele>
        <time>2022-08-14T16:18:47Z</time>
      </trkpt>
      <trkpt lat="44.64319" lon="0.88303">
        <ele>205.3</ele>
        <time>2022-08-14T16:18:49Z</time>
      </trkpt>
      <trkpt lat="44.64323" lon="0.88305">
        <ele>205.6</ele>
        <time>2022-08-14T16:18:51Z</time>
      </trkpt>
      <trkpt lat="44.64326" lon="0.88308">
        <ele>205.8</ele>
        <time>2022-08-14T16:18:53Z</time>
      </trkpt>
      <trkpt lat="44.64331" lon="0.88311">
        <ele>206.1</ele>
        <time>2022-08-14T16:18:55Z</time>
      </trkpt>
      <trkpt lat="44.64334" lon="0.88315">
        <ele>206.3</ele>
        <time>2022-08-14T16:18:57Z</time>
      </trkpt>
      <trkpt lat="44.64338" lon="0.88318">
        <ele>206.5</ele>
        <time>2022-08-14T16:18:59Z</time>
      </trkpt>
      <trkpt lat="44.64341" lon="0.8832">
        <ele>206.6</ele>
        <time>2022-08-14T16:19:01Z</time>
      </trkpt>
      <trkpt lat="44.64344" lon="0.88323">
        <ele>206.6</ele>
        <time>2022-08-14T16:19:03Z</time>
      </trkpt>
      <trkpt lat="44.64349" lon="0.88325">
        <ele>206.7</ele>
        <time>2022-08-14T16:19:05Z</time>
      </trkpt>
      <trkpt lat="44.64352" lon="0.88328">
        <ele>206.8</ele>
        <time>2022-08-14T16:19:07Z</time>
      </trkpt>
      <trkpt lat="44.64356" lon="0.88329">
        <ele>206.9</ele>
        <time>2022-08-14T16:19:09Z</time>
      </trkpt>
      <trkpt lat="44.6436" lon="0.88332">
        <ele>207</ele>
        <time>2022-08-14T16:19:11Z</time>
      </trkpt>
      <trkpt lat="44.64363" lon="0.88335">
        <ele>207.1</ele>
        <time>2022-08-14T16:19:13Z</time>
      </trkpt>
      <trkpt lat="44.64365" lon="0.88337">
        <ele>207.2</ele>
        <time>2022-08-14T16:19:15Z</time>
      </trkpt>
      <trkpt lat="44.64369" lon="0.8834">
        <ele>207.3</ele>
        <time>2022-08-14T16:19:17Z</time>
      </trkpt>
      <trkpt lat="44.64373" lon="0.88343">
        <ele>207.4</ele>
        <time>2022-08-14T16:19:19Z</time>
      </trkpt>
      <trkpt lat="44.64375" lon="0.88344">
        <ele>207.5</ele>
        <time>2022-08-14T16:19:21Z</time>
      </trkpt>
      <trkpt lat="44.64379" lon="0.88345">
        <ele>207.5</ele>
        <time>2022-08-14T16:19:23Z</time>
      </trkpt>
      <trkpt lat="44.64382" lon="0.88347">
        <ele>207.6</ele>
        <time>2022-08-14T16:19:25Z</time>
      </trkpt>
      <trkpt lat="44.64386" lon="0.88348">
        <ele>207.6</ele>
        <time>2022-08-14T16:19:27Z</time>
      </trkpt>
      <trkpt lat="44.64386" lon="0.88348">
        <ele>207.7</ele>
        <time>2022-08-14T16:19:29Z</time>
      </trkpt>
      <trkpt lat="44.64387" lon="0.88348">
        <ele>207.7</ele>
        <time>2022-08-14T16:19:31Z</time>
      </trkpt>
      <trkpt lat="44.64387" lon="0.88349">
        <ele>207.7</ele>
        <time>2022-08-14T16:19:33Z</time>
      </trkpt>
      <trkpt lat="44.64388" lon="0.88348">
        <ele>207.7</ele>
        <time>2022-08-14T16:19:35Z</time>
      </trkpt>
      <trkpt lat="44.64388" lon="0.88348">
        <ele>207.6</ele>
        <time>2022-08-14T16:19:37Z</time>
      </trkpt>
      <trkpt lat="44.64411" lon="0.88366">
        <ele>208.5</ele>
        <time>2022-08-14T16:21:03Z</time>
      </trkpt>
      <trkpt lat="44.64419" lon="0.88371">
        <ele>208.8</ele>
        <time>2022-08-14T16:21:05Z</time>
      </trkpt>
      <trkpt lat="44.64427" lon="0.88375">
        <ele>208.8</ele>
        <time>2022-08-14T16:21:07Z</time>
      </trkpt>
      <trkpt lat="44.64436" lon="0.8838">
        <ele>208.9</ele>
        <time>2022-08-14T16:21:09Z</time>
      </trkpt>
      <trkpt lat="44.64443" lon="0.88386">
        <ele>209.1</ele>
        <time>2022-08-14T16:21:11Z</time>
      </trkpt>
      <trkpt lat="44.64449" lon="0.88391">
        <ele>209.3</ele>
        <time>2022-08-14T16:21:13Z</time>
      </trkpt>
      <trkpt lat="44.64456" lon="0.88397">
        <ele>209.5</ele>
        <time>2022-08-14T16:21:15Z</time>
      </trkpt>
      <trkpt lat="44.64463" lon="0.88404">
        <ele>209.7</ele>
        <time>2022-08-14T16:21:17Z</time>
      </trkpt>
      <trkpt lat="44.64468" lon="0.8841">
        <ele>210</ele>
        <time>2022-08-14T16:21:19Z</time>
      </trkpt>
      <trkpt lat="44.64472" lon="0.88414">
        <ele>210.2</ele>
        <time>2022-08-14T16:21:21Z</time>
      </trkpt>
      <trkpt lat="44.64473" lon="0.88415">
        <ele>210.2</ele>
        <time>2022-08-14T16:21:23Z</time>
      </trkpt>
      <trkpt lat="44.64473" lon="0.88416">
        <ele>210.3</ele>
        <time>2022-08-14T16:21:25Z</time>
      </trkpt>
      <trkpt lat="44.64474" lon="0.88416">
        <ele>210.3</ele>
        <time>2022-08-14T16:21:27Z</time>
      </trkpt>
      <trkpt lat="44.64474" lon="0.88416">
        <ele>210.3</ele>
        <time>2022-08-14T16:21:29Z</time>
      </trkpt>
      <trkpt lat="44.64474" lon="0.88417">
        <ele>210.3</ele>
        <time>2022-08-14T16:21:31Z</time>
      </trkpt>
      <trkpt lat="44.64484" lon="0.88434">
        <ele>210.6</ele>
        <time>2022-08-14T16:22:05Z</time>
      </trkpt>
      <trkpt lat="44.64488" lon="0.88437">
        <ele>210.6</ele>
        <time>2022-08-14T16:22:07Z</time>
      </trkpt>
      <trkpt lat="44.64494" lon="0.88443">
        <ele>210.7</ele>
        <time>2022-08-14T16:22:09Z</time>
      </trkpt>
      <trkpt lat="44.64499" lon="0.88451">
        <ele>210.8</ele>
        <time>2022-08-14T16:22:11Z</time>
      </trkpt>
      <trkpt lat="44.64506" lon="0.88459">
        <ele>210.9</ele>
        <time>2022-08-14T16:22:13Z</time>
      </trkpt>
      <trkpt lat="44.64514" lon="0.88468">
        <ele>211</ele>
        <time>2022-08-14T16:22:15Z</time>
      </trkpt>
      <trkpt lat="44.64522" lon="0.88478">
        <ele>211.1</ele>
        <time>2022-08-14T16:22:17Z</time>
      </trkpt>
      <trkpt lat="44.64532" lon="0.88487">
        <ele>211.3</ele>
        <time>2022-08-14T16:22:19Z</time>
      </trkpt>
      <trkpt lat="44.64542" lon="0.88496">
        <ele>211.4</ele>
        <time>2022-08-14T16:22:21Z</time>
      </trkpt>
      <trkpt lat="44.64552" lon="0.88504">
        <ele>211.4</ele>
        <time>2022-08-14T16:22:23Z</time>
      </trkpt>
      <trkpt lat="44.64563" lon="0.8851">
        <ele>211.2</ele>
        <time>2022-08-14T16:22:25Z</time>
      </trkpt>
      <trkpt lat="44.64573" lon="0.88512">
        <ele>211.1</ele>
        <time>2022-08-14T16:22:27Z</time>
      </trkpt>
      <trkpt lat="44.64582" lon="0.88515">
        <ele>211</ele>
        <time>2022-08-14T16:22:29Z</time>
      </trkpt>
      <trkpt lat="44.64591" lon="0.88517">
        <ele>210.5</ele>
        <time>2022-08-14T16:22:31Z</time>
      </trkpt>
      <trkpt lat="44.64604" lon="0.8852">
        <ele>209.8</ele>
        <time>2022-08-14T16:22:33Z</time>
      </trkpt>
      <trkpt lat="44.64616" lon="0.88521">
        <ele>209</ele>
        <time>2022-08-14T16:22:35Z</time>
      </trkpt>
      <trkpt lat="44.6463" lon="0.88524">
        <ele>208.1</ele>
        <time>2022-08-14T16:22:37Z</time>
      </trkpt>
      <trkpt lat="44.64643" lon="0.88528">
        <ele>207.2</ele>
        <time>2022-08-14T16:22:39Z</time>
      </trkpt>
      <trkpt lat="44.64658" lon="0.88529">
        <ele>206.2</ele>
        <time>2022-08-14T16:22:41Z</time>
      </trkpt>
      <trkpt lat="44.64676" lon="0.88533">
        <ele>204.9</ele>
        <time>2022-08-14T16:22:43Z</time>
      </trkpt>
      <trkpt lat="44.64693" lon="0.88536">
        <ele>203.9</ele>
        <time>2022-08-14T16:22:45Z</time>
      </trkpt>
      <trkpt lat="44.64709" lon="0.88538">
        <ele>202.9</ele>
        <time>2022-08-14T16:22:47Z</time>
      </trkpt>
      <trkpt lat="44.64726" lon="0.88542">
        <ele>201.7</ele>
        <time>2022-08-14T16:22:49Z</time>
      </trkpt>
      <trkpt lat="44.64742" lon="0.88546">
        <ele>200.7</ele>
        <time>2022-08-14T16:22:51Z</time>
      </trkpt>
      <trkpt lat="44.64758" lon="0.88549">
        <ele>199.7</ele>
        <time>2022-08-14T16:22:53Z</time>
      </trkpt>
      <trkpt lat="44.64776" lon="0.88552">
        <ele>198.8</ele>
        <time>2022-08-14T16:22:55Z</time>
      </trkpt>
      <trkpt lat="44.64795" lon="0.88556">
        <ele>197.9</ele>
        <time>2022-08-14T16:22:57Z</time>
      </trkpt>
      <trkpt lat="44.64812" lon="0.88559">
        <ele>197</ele>
        <time>2022-08-14T16:22:59Z</time>
      </trkpt>
      <trkpt lat="44.64825" lon="0.88563">
        <ele>196.3</ele>
        <time>2022-08-14T16:23:01Z</time>
      </trkpt>
      <trkpt lat="44.64843" lon="0.8856">
        <ele>195.2</ele>
        <time>2022-08-14T16:23:03Z</time>
      </trkpt>
      <trkpt lat="44.64861" lon="0.88558">
        <ele>193.6</ele>
        <time>2022-08-14T16:23:05Z</time>
      </trkpt>
      <trkpt lat="44.6488" lon="0.88553">
        <ele>191.9</ele>
        <time>2022-08-14T16:23:07Z</time>
      </trkpt>
      <trkpt lat="44.64897" lon="0.88548">
        <ele>190.3</ele>
        <time>2022-08-14T16:23:09Z</time>
      </trkpt>
      <trkpt lat="44.64916" lon="0.88544">
        <ele>188.6</ele>
        <time>2022-08-14T16:23:11Z</time>
      </trkpt>
      <trkpt lat="44.64934" lon="0.88545">
        <ele>189.4</ele>
        <time>2022-08-14T16:23:13Z</time>
      </trkpt>
      <trkpt lat="44.6495" lon="0.88547">
        <ele>190.1</ele>
        <time>2022-08-14T16:23:15Z</time>
      </trkpt>
      <trkpt lat="44.64965" lon="0.88554">
        <ele>190.7</ele>
        <time>2022-08-14T16:23:17Z</time>
      </trkpt>
      <trkpt lat="44.64979" lon="0.88552">
        <ele>191.5</ele>
        <time>2022-08-14T16:23:19Z</time>
      </trkpt>
      <trkpt lat="44.64991" lon="0.88556">
        <ele>191.9</ele>
        <time>2022-08-14T16:23:21Z</time>
      </trkpt>
      <trkpt lat="44.65003" lon="0.88558">
        <ele>192.4</ele>
        <time>2022-08-14T16:23:23Z</time>
      </trkpt>
      <trkpt lat="44.65014" lon="0.8856">
        <ele>193.1</ele>
        <time>2022-08-14T16:23:25Z</time>
      </trkpt>
      <trkpt lat="44.65021" lon="0.88562">
        <ele>193.5</ele>
        <time>2022-08-14T16:23:27Z</time>
      </trkpt>
      <trkpt lat="44.65026" lon="0.88562">
        <ele>193.8</ele>
        <time>2022-08-14T16:23:29Z</time>
      </trkpt>
      <trkpt lat="44.6503" lon="0.88563">
        <ele>194</ele>
        <time>2022-08-14T16:23:31Z</time>
      </trkpt>
      <trkpt lat="44.65034" lon="0.88564">
        <ele>194.2</ele>
        <time>2022-08-14T16:23:33Z</time>
      </trkpt>
      <trkpt lat="44.65038" lon="0.88566">
        <ele>194.4</ele>
        <time>2022-08-14T16:23:35Z</time>
      </trkpt>
      <trkpt lat="44.65041" lon="0.88566">
        <ele>194.6</ele>
        <time>2022-08-14T16:23:37Z</time>
      </trkpt>
      <trkpt lat="44.65047" lon="0.88567">
        <ele>194.9</ele>
        <time>2022-08-14T16:23:39Z</time>
      </trkpt>
      <trkpt lat="44.65051" lon="0.8857">
        <ele>195</ele>
        <time>2022-08-14T16:23:41Z</time>
      </trkpt>
      <trkpt lat="44.65054" lon="0.8857">
        <ele>195.2</ele>
        <time>2022-08-14T16:23:43Z</time>
      </trkpt>
      <trkpt lat="44.65057" lon="0.88571">
        <ele>195.3</ele>
        <time>2022-08-14T16:23:45Z</time>
      </trkpt>
      <trkpt lat="44.65061" lon="0.88572">
        <ele>195.5</ele>
        <time>2022-08-14T16:23:47Z</time>
      </trkpt>
      <trkpt lat="44.65066" lon="0.88573">
        <ele>195.7</ele>
        <time>2022-08-14T16:23:49Z</time>
      </trkpt>
      <trkpt lat="44.65069" lon="0.88574">
        <ele>195.9</ele>
        <time>2022-08-14T16:23:51Z</time>
      </trkpt>
      <trkpt lat="44.65073" lon="0.88575">
        <ele>196</ele>
        <time>2022-08-14T16:23:53Z</time>
      </trkpt>
      <trkpt lat="44.65077" lon="0.88577">
        <ele>196.1</ele>
        <time>2022-08-14T16:23:55Z</time>
      </trkpt>
      <trkpt lat="44.6508" lon="0.88578">
        <ele>196.3</ele>
        <time>2022-08-14T16:23:57Z</time>
      </trkpt>
      <trkpt lat="44.65084" lon="0.88579">
        <ele>196.4</ele>
        <time>2022-08-14T16:23:59Z</time>
      </trkpt>
      <trkpt lat="44.65087" lon="0.8858">
        <ele>196.7</ele>
        <time>2022-08-14T16:24:01Z</time>
      </trkpt>
      <trkpt lat="44.65091" lon="0.88581">
        <ele>196.9</ele>
        <time>2022-08-14T16:24:03Z</time>
      </trkpt>
      <trkpt lat="44.65096" lon="0.88583">
        <ele>197.2</ele>
        <time>2022-08-14T16:24:05Z</time>
      </trkpt>
      <trkpt lat="44.65098" lon="0.88586">
        <ele>197.4</ele>
        <time>2022-08-14T16:24:07Z</time>
      </trkpt>
      <trkpt lat="44.65101" lon="0.88586">
        <ele>197.7</ele>
        <time>2022-08-14T16:24:09Z</time>
      </trkpt>
      <trkpt lat="44.65103" lon="0.88586">
        <ele>197.9</ele>
        <time>2022-08-14T16:24:11Z</time>
      </trkpt>
      <trkpt lat="44.65106" lon="0.88588">
        <ele>198.1</ele>
        <time>2022-08-14T16:24:13Z</time>
      </trkpt>
      <trkpt lat="44.65108" lon="0.8859">
        <ele>198.3</ele>
        <time>2022-08-14T16:24:15Z</time>
      </trkpt>
      <trkpt lat="44.6511" lon="0.88591">
        <ele>198.6</ele>
        <time>2022-08-14T16:24:17Z</time>
      </trkpt>
      <trkpt lat="44.65113" lon="0.8859">
        <ele>198.8</ele>
        <time>2022-08-14T16:24:19Z</time>
      </trkpt>
      <trkpt lat="44.65116" lon="0.88591">
        <ele>199.1</ele>
        <time>2022-08-14T16:24:21Z</time>
      </trkpt>
      <trkpt lat="44.65118" lon="0.88594">
        <ele>199.3</ele>
        <time>2022-08-14T16:24:23Z</time>
      </trkpt>
      <trkpt lat="44.65121" lon="0.88597">
        <ele>199.5</ele>
        <time>2022-08-14T16:24:25Z</time>
      </trkpt>
      <trkpt lat="44.65123" lon="0.88598">
        <ele>199.7</ele>
        <time>2022-08-14T16:24:27Z</time>
      </trkpt>
      <trkpt lat="44.65126" lon="0.88599">
        <ele>200</ele>
        <time>2022-08-14T16:24:29Z</time>
      </trkpt>
      <trkpt lat="44.65128" lon="0.886">
        <ele>200.2</ele>
        <time>2022-08-14T16:24:31Z</time>
      </trkpt>
      <trkpt lat="44.65132" lon="0.88601">
        <ele>200.5</ele>
        <time>2022-08-14T16:24:33Z</time>
      </trkpt>
      <trkpt lat="44.65134" lon="0.88603">
        <ele>200.7</ele>
        <time>2022-08-14T16:24:35Z</time>
      </trkpt>
      <trkpt lat="44.65136" lon="0.88604">
        <ele>200.9</ele>
        <time>2022-08-14T16:24:37Z</time>
      </trkpt>
      <trkpt lat="44.65139" lon="0.88605">
        <ele>201.2</ele>
        <time>2022-08-14T16:24:39Z</time>
      </trkpt>
      <trkpt lat="44.65142" lon="0.88606">
        <ele>201.4</ele>
        <time>2022-08-14T16:24:41Z</time>
      </trkpt>
      <trkpt lat="44.65145" lon="0.88609">
        <ele>201.7</ele>
        <time>2022-08-14T16:24:43Z</time>
      </trkpt>
      <trkpt lat="44.65149" lon="0.8861">
        <ele>202.1</ele>
        <time>2022-08-14T16:24:45Z</time>
      </trkpt>
      <trkpt lat="44.65152" lon="0.88612">
        <ele>202.3</ele>
        <time>2022-08-14T16:24:47Z</time>
      </trkpt>
      <trkpt lat="44.65156" lon="0.88614">
        <ele>202.6</ele>
        <time>2022-08-14T16:24:49Z</time>
      </trkpt>
      <trkpt lat="44.65159" lon="0.88616">
        <ele>202.9</ele>
        <time>2022-08-14T16:24:51Z</time>
      </trkpt>
      <trkpt lat="44.65162" lon="0.88617">
        <ele>203.2</ele>
        <time>2022-08-14T16:24:53Z</time>
      </trkpt>
      <trkpt lat="44.65165" lon="0.88618">
        <ele>203.5</ele>
        <time>2022-08-14T16:24:55Z</time>
      </trkpt>
      <trkpt lat="44.65168" lon="0.8862">
        <ele>203.6</ele>
        <time>2022-08-14T16:24:57Z</time>
      </trkpt>
      <trkpt lat="44.65172" lon="0.88621">
        <ele>203.5</ele>
        <time>2022-08-14T16:24:59Z</time>
      </trkpt>
      <trkpt lat="44.65175" lon="0.88621">
        <ele>203.5</ele>
        <time>2022-08-14T16:25:01Z</time>
      </trkpt>
      <trkpt lat="44.65178" lon="0.88622">
        <ele>203.5</ele>
        <time>2022-08-14T16:25:03Z</time>
      </trkpt>
      <trkpt lat="44.65181" lon="0.88621">
        <ele>203.5</ele>
        <time>2022-08-14T16:25:05Z</time>
      </trkpt>
      <trkpt lat="44.65184" lon="0.88621">
        <ele>203.5</ele>
        <time>2022-08-14T16:25:07Z</time>
      </trkpt>
      <trkpt lat="44.65187" lon="0.8862">
        <ele>203.5</ele>
        <time>2022-08-14T16:25:09Z</time>
      </trkpt>
      <trkpt lat="44.65189" lon="0.8862">
        <ele>203.5</ele>
        <time>2022-08-14T16:25:11Z</time>
      </trkpt>
      <trkpt lat="44.65194" lon="0.88619">
        <ele>203.5</ele>
        <time>2022-08-14T16:25:13Z</time>
      </trkpt>
      <trkpt lat="44.65197" lon="0.88618">
        <ele>203.5</ele>
        <time>2022-08-14T16:25:15Z</time>
      </trkpt>
      <trkpt lat="44.652" lon="0.88617">
        <ele>203.5</ele>
        <time>2022-08-14T16:25:17Z</time>
      </trkpt>
      <trkpt lat="44.65233" lon="0.88569">
        <ele>203.2</ele>
        <time>2022-08-14T16:26:07Z</time>
      </trkpt>
      <trkpt lat="44.65236" lon="0.88565">
        <ele>203.2</ele>
        <time>2022-08-14T16:26:09Z</time>
      </trkpt>
      <trkpt lat="44.65238" lon="0.8856">
        <ele>203.1</ele>
        <time>2022-08-14T16:26:11Z</time>
      </trkpt>
      <trkpt lat="44.6524" lon="0.88555">
        <ele>203.1</ele>
        <time>2022-08-14T16:26:13Z</time>
      </trkpt>
      <trkpt lat="44.65242" lon="0.8855">
        <ele>203.1</ele>
        <time>2022-08-14T16:26:15Z</time>
      </trkpt>
      <trkpt lat="44.65244" lon="0.88545">
        <ele>203.1</ele>
        <time>2022-08-14T16:26:17Z</time>
      </trkpt>
      <trkpt lat="44.65246" lon="0.88541">
        <ele>203</ele>
        <time>2022-08-14T16:26:19Z</time>
      </trkpt>
      <trkpt lat="44.65249" lon="0.88538">
        <ele>203</ele>
        <time>2022-08-14T16:26:21Z</time>
      </trkpt>
      <trkpt lat="44.6525" lon="0.88534">
        <ele>203</ele>
        <time>2022-08-14T16:26:23Z</time>
      </trkpt>
      <trkpt lat="44.65253" lon="0.8853">
        <ele>202.9</ele>
        <time>2022-08-14T16:26:25Z</time>
      </trkpt>
      <trkpt lat="44.65256" lon="0.88527">
        <ele>202.8</ele>
        <time>2022-08-14T16:26:27Z</time>
      </trkpt>
      <trkpt lat="44.65256" lon="0.88524">
        <ele>202.8</ele>
        <time>2022-08-14T16:26:29Z</time>
      </trkpt>
      <trkpt lat="44.65252" lon="0.88522">
        <ele>202.9</ele>
        <time>2022-08-14T16:26:31Z</time>
      </trkpt>
      <trkpt lat="44.65249" lon="0.88521">
        <ele>203</ele>
        <time>2022-08-14T16:26:33Z</time>
      </trkpt>
      <trkpt lat="44.65246" lon="0.88522">
        <ele>203</ele>
        <time>2022-08-14T16:26:35Z</time>
      </trkpt>
      <trkpt lat="44.65246" lon="0.88522">
        <ele>203.1</ele>
        <time>2022-08-14T16:26:37Z</time>
      </trkpt>
      <trkpt lat="44.65245" lon="0.88522">
        <ele>203.1</ele>
        <time>2022-08-14T16:26:39Z</time>
      </trkpt>
      <trkpt lat="44.65245" lon="0.88522">
        <ele>203.1</ele>
        <time>2022-08-14T16:26:41Z</time>
      </trkpt>
      <trkpt lat="44.65245" lon="0.88522">
        <ele>203.1</ele>
        <time>2022-08-14T16:26:43Z</time>
      </trkpt>
      <trkpt lat="44.65245" lon="0.88522">
        <ele>203.1</ele>
        <time>2022-08-14T16:26:45Z</time>
      </trkpt>
      <trkpt lat="44.6526" lon="0.88529">
        <ele>202.7</ele>
        <time>2022-08-14T16:27:55Z</time>
      </trkpt>
      <trkpt lat="44.65266" lon="0.88527">
        <ele>202.5</ele>
        <time>2022-08-14T16:27:57Z</time>
      </trkpt>
      <trkpt lat="44.65271" lon="0.88524">
        <ele>202.3</ele>
        <time>2022-08-14T16:27:59Z</time>
      </trkpt>
      <trkpt lat="44.65276" lon="0.88522">
        <ele>202.1</ele>
        <time>2022-08-14T16:28:01Z</time>
      </trkpt>
      <trkpt lat="44.65283" lon="0.8852">
        <ele>201.9</ele>
        <time>2022-08-14T16:28:03Z</time>
      </trkpt>
      <trkpt lat="44.6529" lon="0.88517">
        <ele>201.6</ele>
        <time>2022-08-14T16:28:05Z</time>
      </trkpt>
      <trkpt lat="44.65299" lon="0.88513">
        <ele>201.3</ele>
        <time>2022-08-14T16:28:07Z</time>
      </trkpt>
      <trkpt lat="44.65309" lon="0.88511">
        <ele>201</ele>
        <time>2022-08-14T16:28:09Z</time>
      </trkpt>
      <trkpt lat="44.65319" lon="0.88506">
        <ele>200.6</ele>
        <time>2022-08-14T16:28:11Z</time>
      </trkpt>
      <trkpt lat="44.65329" lon="0.88503">
        <ele>200.2</ele>
        <time>2022-08-14T16:28:13Z</time>
      </trkpt>
      <trkpt lat="44.6534" lon="0.88499">
        <ele>200</ele>
        <time>2022-08-14T16:28:15Z</time>
      </trkpt>
      <trkpt lat="44.6535" lon="0.88493">
        <ele>200</ele>
        <time>2022-08-14T16:28:17Z</time>
      </trkpt>
      <trkpt lat="44.65359" lon="0.88481">
        <ele>200.2</ele>
        <time>2022-08-14T16:28:19Z</time>
      </trkpt>
      <trkpt lat="44.65367" lon="0.88466">
        <ele>200.3</ele>
        <time>2022-08-14T16:28:21Z</time>
      </trkpt>
      <trkpt lat="44.65374" lon="0.88446">
        <ele>200.5</ele>
        <time>2022-08-14T16:28:23Z</time>
      </trkpt>
      <trkpt lat="44.65383" lon="0.88425">
        <ele>200.5</ele>
        <time>2022-08-14T16:28:25Z</time>
      </trkpt>
      <trkpt lat="44.65394" lon="0.88405">
        <ele>200.3</ele>
        <time>2022-08-14T16:28:27Z</time>
      </trkpt>
      <trkpt lat="44.65409" lon="0.88388">
        <ele>199.8</ele>
        <time>2022-08-14T16:28:29Z</time>
      </trkpt>
      <trkpt lat="44.65421" lon="0.88371">
        <ele>199.3</ele>
        <time>2022-08-14T16:28:31Z</time>
      </trkpt>
      <trkpt lat="44.65433" lon="0.88357">
        <ele>198.5</ele>
        <time>2022-08-14T16:28:33Z</time>
      </trkpt>
      <trkpt lat="44.65446" lon="0.88345">
        <ele>197.5</ele>
        <time>2022-08-14T16:28:35Z</time>
      </trkpt>
      <trkpt lat="44.6546" lon="0.88336">
        <ele>196.4</ele>
        <time>2022-08-14T16:28:37Z</time>
      </trkpt>
      <trkpt lat="44.65474" lon="0.88327">
        <ele>195.2</ele>
        <time>2022-08-14T16:28:39Z</time>
      </trkpt>
      <trkpt lat="44.6549" lon="0.88323">
        <ele>193.9</ele>
        <time>2022-08-14T16:28:41Z</time>
      </trkpt>
      <trkpt lat="44.65507" lon="0.88314">
        <ele>192.8</ele>
        <time>2022-08-14T16:28:43Z</time>
      </trkpt>
      <trkpt lat="44.65521" lon="0.88305">
        <ele>192</ele>
        <time>2022-08-14T16:28:45Z</time>
      </trkpt>
      <trkpt lat="44.65534" lon="0.88292">
        <ele>191.2</ele>
        <time>2022-08-14T16:28:47Z</time>
      </trkpt>
      <trkpt lat="44.65549" lon="0.8828">
        <ele>190.3</ele>
        <time>2022-08-14T16:28:49Z</time>
      </trkpt>
      <trkpt lat="44.65561" lon="0.88254">
        <ele>189.6</ele>
        <time>2022-08-14T16:28:51Z</time>
      </trkpt>
      <trkpt lat="44.65574" lon="0.88232">
        <ele>189.4</ele>
        <time>2022-08-14T16:28:53Z</time>
      </trkpt>
      <trkpt lat="44.65588" lon="0.88212">
        <ele>189.3</ele>
        <time>2022-08-14T16:28:55Z</time>
      </trkpt>
      <trkpt lat="44.65601" lon="0.88192">
        <ele>189.2</ele>
        <time>2022-08-14T16:28:57Z</time>
      </trkpt>
      <trkpt lat="44.65615" lon="0.88176">
        <ele>188.4</ele>
        <time>2022-08-14T16:28:59Z</time>
      </trkpt>
      <trkpt lat="44.65631" lon="0.88161">
        <ele>187.2</ele>
        <time>2022-08-14T16:29:01Z</time>
      </trkpt>
      <trkpt lat="44.65644" lon="0.88144">
        <ele>186.3</ele>
        <time>2022-08-14T16:29:03Z</time>
      </trkpt>
      <trkpt lat="44.65657" lon="0.88129">
        <ele>185.4</ele>
        <time>2022-08-14T16:29:05Z</time>
      </trkpt>
      <trkpt lat="44.65671" lon="0.88114">
        <ele>184.4</ele>
        <time>2022-08-14T16:29:07Z</time>
      </trkpt>
      <trkpt lat="44.65683" lon="0.88098">
        <ele>183.5</ele>
        <time>2022-08-14T16:29:09Z</time>
      </trkpt>
      <trkpt lat="44.65697" lon="0.88085">
        <ele>182.1</ele>
        <time>2022-08-14T16:29:11Z</time>
      </trkpt>
      <trkpt lat="44.65712" lon="0.88073">
        <ele>180.6</ele>
        <time>2022-08-14T16:29:13Z</time>
      </trkpt>
      <trkpt lat="44.65727" lon="0.88061">
        <ele>179</ele>
        <time>2022-08-14T16:29:15Z</time>
      </trkpt>
      <trkpt lat="44.65744" lon="0.88051">
        <ele>177</ele>
        <time>2022-08-14T16:29:17Z</time>
      </trkpt>
      <trkpt lat="44.6576" lon="0.88043">
        <ele>174.7</ele>
        <time>2022-08-14T16:29:19Z</time>
      </trkpt>
      <trkpt lat="44.65781" lon="0.88035">
        <ele>171.7</ele>
        <time>2022-08-14T16:29:21Z</time>
      </trkpt>
      <trkpt lat="44.65797" lon="0.88026">
        <ele>169.3</ele>
        <time>2022-08-14T16:29:23Z</time>
      </trkpt>
      <trkpt lat="44.65809" lon="0.88019">
        <ele>167.3</ele>
        <time>2022-08-14T16:29:25Z</time>
      </trkpt>
      <trkpt lat="44.65822" lon="0.88016">
        <ele>165.4</ele>
        <time>2022-08-14T16:29:27Z</time>
      </trkpt>
      <trkpt lat="44.65835" lon="0.88013">
        <ele>163.5</ele>
        <time>2022-08-14T16:29:29Z</time>
      </trkpt>
      <trkpt lat="44.65847" lon="0.8801">
        <ele>161.9</ele>
        <time>2022-08-14T16:29:31Z</time>
      </trkpt>
      <trkpt lat="44.65858" lon="0.88005">
        <ele>160.6</ele>
        <time>2022-08-14T16:29:33Z</time>
      </trkpt>
      <trkpt lat="44.65869" lon="0.88002">
        <ele>159.3</ele>
        <time>2022-08-14T16:29:35Z</time>
      </trkpt>
      <trkpt lat="44.65882" lon="0.88001">
        <ele>157.8</ele>
        <time>2022-08-14T16:29:37Z</time>
      </trkpt>
      <trkpt lat="44.65894" lon="0.88001">
        <ele>156.5</ele>
        <time>2022-08-14T16:29:39Z</time>
      </trkpt>
      <trkpt lat="44.65906" lon="0.88003">
        <ele>155.2</ele>
        <time>2022-08-14T16:29:41Z</time>
      </trkpt>
      <trkpt lat="44.65918" lon="0.88002">
        <ele>153.9</ele>
        <time>2022-08-14T16:29:43Z</time>
      </trkpt>
      <trkpt lat="44.65928" lon="0.87999">
        <ele>152.7</ele>
        <time>2022-08-14T16:29:45Z</time>
      </trkpt>
      <trkpt lat="44.65937" lon="0.87992">
        <ele>151.6</ele>
        <time>2022-08-14T16:29:47Z</time>
      </trkpt>
      <trkpt lat="44.65944" lon="0.87983">
        <ele>150.7</ele>
        <time>2022-08-14T16:29:49Z</time>
      </trkpt>
      <trkpt lat="44.65949" lon="0.87976">
        <ele>150.1</ele>
        <time>2022-08-14T16:29:51Z</time>
      </trkpt>
      <trkpt lat="44.65953" lon="0.87969">
        <ele>149.6</ele>
        <time>2022-08-14T16:29:53Z</time>
      </trkpt>
      <trkpt lat="44.65954" lon="0.87959">
        <ele>149.4</ele>
        <time>2022-08-14T16:29:55Z</time>
      </trkpt>
      <trkpt lat="44.65953" lon="0.87947">
        <ele>149.3</ele>
        <time>2022-08-14T16:29:57Z</time>
      </trkpt>
      <trkpt lat="44.6595" lon="0.87932">
        <ele>149.2</ele>
        <time>2022-08-14T16:29:59Z</time>
      </trkpt>
      <trkpt lat="44.65947" lon="0.87916">
        <ele>149.2</ele>
        <time>2022-08-14T16:30:01Z</time>
      </trkpt>
      <trkpt lat="44.65944" lon="0.879">
        <ele>149.8</ele>
        <time>2022-08-14T16:30:03Z</time>
      </trkpt>
      <trkpt lat="44.65943" lon="0.87886">
        <ele>150.3</ele>
        <time>2022-08-14T16:30:05Z</time>
      </trkpt>
      <trkpt lat="44.65943" lon="0.87873">
        <ele>150.7</ele>
        <time>2022-08-14T16:30:07Z</time>
      </trkpt>
      <trkpt lat="44.65944" lon="0.87861">
        <ele>151</ele>
        <time>2022-08-14T16:30:09Z</time>
      </trkpt>
      <trkpt lat="44.65945" lon="0.87847">
        <ele>151.3</ele>
        <time>2022-08-14T16:30:11Z</time>
      </trkpt>
      <trkpt lat="44.65949" lon="0.8783">
        <ele>151.3</ele>
        <time>2022-08-14T16:30:13Z</time>
      </trkpt>
      <trkpt lat="44.65951" lon="0.87813">
        <ele>151.8</ele>
        <time>2022-08-14T16:30:15Z</time>
      </trkpt>
      <trkpt lat="44.65955" lon="0.87794">
        <ele>151.7</ele>
        <time>2022-08-14T16:30:17Z</time>
      </trkpt>
      <trkpt lat="44.6596" lon="0.87776">
        <ele>151.3</ele>
        <time>2022-08-14T16:30:19Z</time>
      </trkpt>
      <trkpt lat="44.65967" lon="0.87756">
        <ele>150.4</ele>
        <time>2022-08-14T16:30:21Z</time>
      </trkpt>
      <trkpt lat="44.65973" lon="0.87737">
        <ele>149.2</ele>
        <time>2022-08-14T16:30:23Z</time>
      </trkpt>
      <trkpt lat="44.6598" lon="0.87717">
        <ele>147.5</ele>
        <time>2022-08-14T16:30:25Z</time>
      </trkpt>
      <trkpt lat="44.65986" lon="0.87699">
        <ele>145.9</ele>
        <time>2022-08-14T16:30:27Z</time>
      </trkpt>
      <trkpt lat="44.65993" lon="0.87682">
        <ele>144.2</ele>
        <time>2022-08-14T16:30:29Z</time>
      </trkpt>
      <trkpt lat="44.66" lon="0.87667">
        <ele>142</ele>
        <time>2022-08-14T16:30:31Z</time>
      </trkpt>
      <trkpt lat="44.66007" lon="0.87652">
        <ele>142.6</ele>
        <time>2022-08-14T16:30:33Z</time>
      </trkpt>
      <trkpt lat="44.66014" lon="0.87638">
        <ele>142.8</ele>
        <time>2022-08-14T16:30:35Z</time>
      </trkpt>
      <trkpt lat="44.66021" lon="0.87626">
        <ele>142.7</ele>
        <time>2022-08-14T16:30:37Z</time>
      </trkpt>
      <trkpt lat="44.66027" lon="0.87614">
        <ele>142.4</ele>
        <time>2022-08-14T16:30:39Z</time>
      </trkpt>
      <trkpt lat="44.66032" lon="0.87603">
        <ele>141.9</ele>
        <time>2022-08-14T16:30:41Z</time>
      </trkpt>
      <trkpt lat="44.66038" lon="0.8759">
        <ele>141.1</ele>
        <time>2022-08-14T16:30:43Z</time>
      </trkpt>
      <trkpt lat="44.66049" lon="0.87578">
        <ele>139.8</ele>
        <time>2022-08-14T16:30:45Z</time>
      </trkpt>
      <trkpt lat="44.66056" lon="0.87565">
        <ele>139.3</ele>
        <time>2022-08-14T16:30:47Z</time>
      </trkpt>
      <trkpt lat="44.66063" lon="0.87554">
        <ele>138.9</ele>
        <time>2022-08-14T16:30:49Z</time>
      </trkpt>
      <trkpt lat="44.66071" lon="0.87543">
        <ele>138.4</ele>
        <time>2022-08-14T16:30:51Z</time>
      </trkpt>
      <trkpt lat="44.66079" lon="0.87534">
        <ele>137.9</ele>
        <time>2022-08-14T16:30:53Z</time>
      </trkpt>
      <trkpt lat="44.66089" lon="0.87526">
        <ele>137.5</ele>
        <time>2022-08-14T16:30:55Z</time>
      </trkpt>
      <trkpt lat="44.66099" lon="0.8752">
        <ele>137.4</ele>
        <time>2022-08-14T16:30:57Z</time>
      </trkpt>
      <trkpt lat="44.66111" lon="0.87515">
        <ele>137</ele>
        <time>2022-08-14T16:30:59Z</time>
      </trkpt>
      <trkpt lat="44.66123" lon="0.87513">
        <ele>136.5</ele>
        <time>2022-08-14T16:31:01Z</time>
      </trkpt>
      <trkpt lat="44.66134" lon="0.8752">
        <ele>135.9</ele>
        <time>2022-08-14T16:31:03Z</time>
      </trkpt>
      <trkpt lat="44.66145" lon="0.87531">
        <ele>135.5</ele>
        <time>2022-08-14T16:31:05Z</time>
      </trkpt>
      <trkpt lat="44.66157" lon="0.87541">
        <ele>135.2</ele>
        <time>2022-08-14T16:31:07Z</time>
      </trkpt>
      <trkpt lat="44.66168" lon="0.87548">
        <ele>135.1</ele>
        <time>2022-08-14T16:31:09Z</time>
      </trkpt>
      <trkpt lat="44.66179" lon="0.8755">
        <ele>134.9</ele>
        <time>2022-08-14T16:31:11Z</time>
      </trkpt>
      <trkpt lat="44.66189" lon="0.87549">
        <ele>134.7</ele>
        <time>2022-08-14T16:31:13Z</time>
      </trkpt>
      <trkpt lat="44.662" lon="0.87548">
        <ele>134.4</ele>
        <time>2022-08-14T16:31:15Z</time>
      </trkpt>
      <trkpt lat="44.66211" lon="0.87544">
        <ele>134.2</ele>
        <time>2022-08-14T16:31:17Z</time>
      </trkpt>
      <trkpt lat="44.66221" lon="0.87541">
        <ele>134</ele>
        <time>2022-08-14T16:31:19Z</time>
      </trkpt>
      <trkpt lat="44.66232" lon="0.87539">
        <ele>133.8</ele>
        <time>2022-08-14T16:31:21Z</time>
      </trkpt>
      <trkpt lat="44.66243" lon="0.87537">
        <ele>133.7</ele>
        <time>2022-08-14T16:31:23Z</time>
      </trkpt>
      <trkpt lat="44.66253" lon="0.87534">
        <ele>133.6</ele>
        <time>2022-08-14T16:31:25Z</time>
      </trkpt>
      <trkpt lat="44.66262" lon="0.87529">
        <ele>133.8</ele>
        <time>2022-08-14T16:31:27Z</time>
      </trkpt>
      <trkpt lat="44.6627" lon="0.87523">
        <ele>134</ele>
        <time>2022-08-14T16:31:29Z</time>
      </trkpt>
      <trkpt lat="44.66277" lon="0.87515">
        <ele>134.3</ele>
        <time>2022-08-14T16:31:31Z</time>
      </trkpt>
      <trkpt lat="44.66284" lon="0.87507">
        <ele>134.6</ele>
        <time>2022-08-14T16:31:33Z</time>
      </trkpt>
      <trkpt lat="44.66291" lon="0.87498">
        <ele>135.1</ele>
        <time>2022-08-14T16:31:35Z</time>
      </trkpt>
      <trkpt lat="44.66299" lon="0.8749">
        <ele>135.9</ele>
        <time>2022-08-14T16:31:37Z</time>
      </trkpt>
      <trkpt lat="44.66306" lon="0.87483">
        <ele>136.7</ele>
        <time>2022-08-14T16:31:39Z</time>
      </trkpt>
      <trkpt lat="44.66312" lon="0.87476">
        <ele>137.6</ele>
        <time>2022-08-14T16:31:41Z</time>
      </trkpt>
      <trkpt lat="44.66317" lon="0.8747">
        <ele>138.4</ele>
        <time>2022-08-14T16:31:43Z</time>
      </trkpt>
      <trkpt lat="44.66323" lon="0.87463">
        <ele>139.3</ele>
        <time>2022-08-14T16:31:45Z</time>
      </trkpt>
      <trkpt lat="44.66328" lon="0.8746">
        <ele>140</ele>
        <time>2022-08-14T16:31:47Z</time>
      </trkpt>
      <trkpt lat="44.66335" lon="0.87461">
        <ele>140.5</ele>
        <time>2022-08-14T16:31:49Z</time>
      </trkpt>
      <trkpt lat="44.66341" lon="0.87467">
        <ele>140.7</ele>
        <time>2022-08-14T16:31:51Z</time>
      </trkpt>
      <trkpt lat="44.66347" lon="0.87474">
        <ele>140.7</ele>
        <time>2022-08-14T16:31:53Z</time>
      </trkpt>
      <trkpt lat="44.66353" lon="0.8748">
        <ele>140.9</ele>
        <time>2022-08-14T16:31:55Z</time>
      </trkpt>
      <trkpt lat="44.6636" lon="0.87487">
        <ele>141.1</ele>
        <time>2022-08-14T16:31:57Z</time>
      </trkpt>
      <trkpt lat="44.66366" lon="0.87495">
        <ele>141.2</ele>
        <time>2022-08-14T16:31:59Z</time>
      </trkpt>
      <trkpt lat="44.66372" lon="0.87503">
        <ele>141.3</ele>
        <time>2022-08-14T16:32:01Z</time>
      </trkpt>
      <trkpt lat="44.66379" lon="0.87511">
        <ele>141.6</ele>
        <time>2022-08-14T16:32:03Z</time>
      </trkpt>
      <trkpt lat="44.66385" lon="0.87518">
        <ele>141.9</ele>
        <time>2022-08-14T16:32:05Z</time>
      </trkpt>
      <trkpt lat="44.66392" lon="0.87526">
        <ele>142</ele>
        <time>2022-08-14T16:32:07Z</time>
      </trkpt>
      <trkpt lat="44.66398" lon="0.87534">
        <ele>142.1</ele>
        <time>2022-08-14T16:32:09Z</time>
      </trkpt>
      <trkpt lat="44.66403" lon="0.87542">
        <ele>142</ele>
        <time>2022-08-14T16:32:11Z</time>
      </trkpt>
      <trkpt lat="44.66409" lon="0.8755">
        <ele>141.8</ele>
        <time>2022-08-14T16:32:13Z</time>
      </trkpt>
      <trkpt lat="44.66416" lon="0.87557">
        <ele>141.7</ele>
        <time>2022-08-14T16:32:15Z</time>
      </trkpt>
      <trkpt lat="44.66421" lon="0.87565">
        <ele>141.7</ele>
        <time>2022-08-14T16:32:17Z</time>
      </trkpt>
      <trkpt lat="44.66427" lon="0.87572">
        <ele>141.9</ele>
        <time>2022-08-14T16:32:19Z</time>
      </trkpt>
      <trkpt lat="44.66433" lon="0.8758">
        <ele>142</ele>
        <time>2022-08-14T16:32:21Z</time>
      </trkpt>
      <trkpt lat="44.6644" lon="0.87587">
        <ele>142.2</ele>
        <time>2022-08-14T16:32:23Z</time>
      </trkpt>
      <trkpt lat="44.66446" lon="0.87594">
        <ele>142.3</ele>
        <time>2022-08-14T16:32:25Z</time>
      </trkpt>
      <trkpt lat="44.66452" lon="0.87602">
        <ele>142.3</ele>
        <time>2022-08-14T16:32:27Z</time>
      </trkpt>
      <trkpt lat="44.66458" lon="0.87609">
        <ele>142.2</ele>
        <time>2022-08-14T16:32:29Z</time>
      </trkpt>
      <trkpt lat="44.66464" lon="0.87615">
        <ele>142.2</ele>
        <time>2022-08-14T16:32:31Z</time>
      </trkpt>
      <trkpt lat="44.66469" lon="0.87622">
        <ele>141.9</ele>
        <time>2022-08-14T16:32:33Z</time>
      </trkpt>
      <trkpt lat="44.66476" lon="0.87629">
        <ele>141.7</ele>
        <time>2022-08-14T16:32:35Z</time>
      </trkpt>
      <trkpt lat="44.66482" lon="0.87635">
        <ele>141.5</ele>
        <time>2022-08-14T16:32:37Z</time>
      </trkpt>
      <trkpt lat="44.66488" lon="0.87642">
        <ele>141.1</ele>
        <time>2022-08-14T16:32:39Z</time>
      </trkpt>
      <trkpt lat="44.66495" lon="0.87648">
        <ele>140.7</ele>
        <time>2022-08-14T16:32:41Z</time>
      </trkpt>
      <trkpt lat="44.66501" lon="0.87654">
        <ele>140.2</ele>
        <time>2022-08-14T16:32:43Z</time>
      </trkpt>
      <trkpt lat="44.66507" lon="0.8766">
        <ele>139.9</ele>
        <time>2022-08-14T16:32:45Z</time>
      </trkpt>
      <trkpt lat="44.66514" lon="0.87665">
        <ele>139.9</ele>
        <time>2022-08-14T16:32:47Z</time>
      </trkpt>
      <trkpt lat="44.66521" lon="0.87671">
        <ele>140.3</ele>
        <time>2022-08-14T16:32:49Z</time>
      </trkpt>
      <trkpt lat="44.66527" lon="0.87678">
        <ele>140.6</ele>
        <time>2022-08-14T16:32:51Z</time>
      </trkpt>
      <trkpt lat="44.66535" lon="0.87683">
        <ele>141.1</ele>
        <time>2022-08-14T16:32:53Z</time>
      </trkpt>
      <trkpt lat="44.66542" lon="0.87688">
        <ele>141.5</ele>
        <time>2022-08-14T16:32:55Z</time>
      </trkpt>
      <trkpt lat="44.66548" lon="0.87695">
        <ele>141.6</ele>
        <time>2022-08-14T16:32:57Z</time>
      </trkpt>
      <trkpt lat="44.66556" lon="0.87699">
        <ele>141.9</ele>
        <time>2022-08-14T16:32:59Z</time>
      </trkpt>
      <trkpt lat="44.66563" lon="0.87705">
        <ele>142.1</ele>
        <time>2022-08-14T16:33:01Z</time>
      </trkpt>
      <trkpt lat="44.6657" lon="0.87711">
        <ele>142.1</ele>
        <time>2022-08-14T16:33:03Z</time>
      </trkpt>
      <trkpt lat="44.66577" lon="0.87717">
        <ele>142.1</ele>
        <time>2022-08-14T16:33:05Z</time>
      </trkpt>
      <trkpt lat="44.66585" lon="0.87724">
        <ele>141.9</ele>
        <time>2022-08-14T16:33:07Z</time>
      </trkpt>
      <trkpt lat="44.66592" lon="0.8773">
        <ele>141.5</ele>
        <time>2022-08-14T16:33:09Z</time>
      </trkpt>
      <trkpt lat="44.66601" lon="0.87737">
        <ele>141.1</ele>
        <time>2022-08-14T16:33:11Z</time>
      </trkpt>
      <trkpt lat="44.66609" lon="0.87744">
        <ele>140.6</ele>
        <time>2022-08-14T16:33:13Z</time>
      </trkpt>
      <trkpt lat="44.66617" lon="0.87751">
        <ele>140.2</ele>
        <time>2022-08-14T16:33:15Z</time>
      </trkpt>
      <trkpt lat="44.66626" lon="0.87757">
        <ele>140.1</ele>
        <time>2022-08-14T16:33:17Z</time>
      </trkpt>
      <trkpt lat="44.66634" lon="0.87764">
        <ele>139.9</ele>
        <time>2022-08-14T16:33:19Z</time>
      </trkpt>
      <trkpt lat="44.66643" lon="0.8777">
        <ele>139.7</ele>
        <time>2022-08-14T16:33:21Z</time>
      </trkpt>
      <trkpt lat="44.66651" lon="0.87778">
        <ele>139.5</ele>
        <time>2022-08-14T16:33:23Z</time>
      </trkpt>
      <trkpt lat="44.66659" lon="0.87785">
        <ele>139.3</ele>
        <time>2022-08-14T16:33:25Z</time>
      </trkpt>
      <trkpt lat="44.66668" lon="0.87791">
        <ele>139.2</ele>
        <time>2022-08-14T16:33:27Z</time>
      </trkpt>
      <trkpt lat="44.66676" lon="0.87799">
        <ele>139.7</ele>
        <time>2022-08-14T16:33:29Z</time>
      </trkpt>
      <trkpt lat="44.66684" lon="0.87807">
        <ele>140.3</ele>
        <time>2022-08-14T16:33:31Z</time>
      </trkpt>
      <trkpt lat="44.66693" lon="0.87815">
        <ele>140.8</ele>
        <time>2022-08-14T16:33:33Z</time>
      </trkpt>
      <trkpt lat="44.66701" lon="0.87823">
        <ele>141.3</ele>
        <time>2022-08-14T16:33:35Z</time>
      </trkpt>
      <trkpt lat="44.66709" lon="0.87831">
        <ele>141.8</ele>
        <time>2022-08-14T16:33:37Z</time>
      </trkpt>
      <trkpt lat="44.66717" lon="0.8784">
        <ele>142.2</ele>
        <time>2022-08-14T16:33:39Z</time>
      </trkpt>
      <trkpt lat="44.66725" lon="0.87849">
        <ele>142.6</ele>
        <time>2022-08-14T16:33:41Z</time>
      </trkpt>
      <trkpt lat="44.66732" lon="0.87859">
        <ele>142.7</ele>
        <time>2022-08-14T16:33:43Z</time>
      </trkpt>
      <trkpt lat="44.66739" lon="0.87868">
        <ele>142.6</ele>
        <time>2022-08-14T16:33:45Z</time>
      </trkpt>
      <trkpt lat="44.66747" lon="0.87877">
        <ele>142.5</ele>
        <time>2022-08-14T16:33:47Z</time>
      </trkpt>
      <trkpt lat="44.66754" lon="0.87887">
        <ele>142.6</ele>
        <time>2022-08-14T16:33:49Z</time>
      </trkpt>
      <trkpt lat="44.66761" lon="0.87896">
        <ele>143.1</ele>
        <time>2022-08-14T16:33:51Z</time>
      </trkpt>
      <trkpt lat="44.66768" lon="0.87905">
        <ele>143.6</ele>
        <time>2022-08-14T16:33:53Z</time>
      </trkpt>
      <trkpt lat="44.66776" lon="0.87915">
        <ele>143.9</ele>
        <time>2022-08-14T16:33:55Z</time>
      </trkpt>
      <trkpt lat="44.66783" lon="0.87924">
        <ele>144.3</ele>
        <time>2022-08-14T16:33:57Z</time>
      </trkpt>
      <trkpt lat="44.6679" lon="0.87934">
        <ele>144.6</ele>
        <time>2022-08-14T16:33:59Z</time>
      </trkpt>
      <trkpt lat="44.66797" lon="0.87942">
        <ele>144.7</ele>
        <time>2022-08-14T16:34:01Z</time>
      </trkpt>
      <trkpt lat="44.66804" lon="0.87951">
        <ele>144.6</ele>
        <time>2022-08-14T16:34:03Z</time>
      </trkpt>
      <trkpt lat="44.66811" lon="0.8796">
        <ele>144.3</ele>
        <time>2022-08-14T16:34:05Z</time>
      </trkpt>
      <trkpt lat="44.66818" lon="0.87968">
        <ele>143.8</ele>
        <time>2022-08-14T16:34:07Z</time>
      </trkpt>
      <trkpt lat="44.66824" lon="0.87976">
        <ele>143.2</ele>
        <time>2022-08-14T16:34:09Z</time>
      </trkpt>
      <trkpt lat="44.66831" lon="0.87985">
        <ele>142.3</ele>
        <time>2022-08-14T16:34:11Z</time>
      </trkpt>
      <trkpt lat="44.66838" lon="0.87993">
        <ele>142</ele>
        <time>2022-08-14T16:34:13Z</time>
      </trkpt>
      <trkpt lat="44.66844" lon="0.88002">
        <ele>142.2</ele>
        <time>2022-08-14T16:34:15Z</time>
      </trkpt>
      <trkpt lat="44.66851" lon="0.8801">
        <ele>143.1</ele>
        <time>2022-08-14T16:34:17Z</time>
      </trkpt>
      <trkpt lat="44.66858" lon="0.88018">
        <ele>143.7</ele>
        <time>2022-08-14T16:34:19Z</time>
      </trkpt>
      <trkpt lat="44.66864" lon="0.88027">
        <ele>144.3</ele>
        <time>2022-08-14T16:34:21Z</time>
      </trkpt>
      <trkpt lat="44.66871" lon="0.88035">
        <ele>144.7</ele>
        <time>2022-08-14T16:34:23Z</time>
      </trkpt>
      <trkpt lat="44.66877" lon="0.88043">
        <ele>144.9</ele>
        <time>2022-08-14T16:34:25Z</time>
      </trkpt>
      <trkpt lat="44.66883" lon="0.88051">
        <ele>145</ele>
        <time>2022-08-14T16:34:27Z</time>
      </trkpt>
      <trkpt lat="44.66889" lon="0.88059">
        <ele>144.9</ele>
        <time>2022-08-14T16:34:29Z</time>
      </trkpt>
      <trkpt lat="44.66895" lon="0.88068">
        <ele>144.7</ele>
        <time>2022-08-14T16:34:31Z</time>
      </trkpt>
      <trkpt lat="44.66901" lon="0.88077">
        <ele>144.3</ele>
        <time>2022-08-14T16:34:33Z</time>
      </trkpt>
      <trkpt lat="44.66907" lon="0.88085">
        <ele>143.9</ele>
        <time>2022-08-14T16:34:35Z</time>
      </trkpt>
      <trkpt lat="44.66912" lon="0.88094">
        <ele>143.8</ele>
        <time>2022-08-14T16:34:37Z</time>
      </trkpt>
      <trkpt lat="44.66917" lon="0.88104">
        <ele>143.5</ele>
        <time>2022-08-14T16:34:39Z</time>
      </trkpt>
      <trkpt lat="44.66921" lon="0.88114">
        <ele>143.6</ele>
        <time>2022-08-14T16:34:41Z</time>
      </trkpt>
      <trkpt lat="44.66926" lon="0.88123">
        <ele>143.7</ele>
        <time>2022-08-14T16:34:43Z</time>
      </trkpt>
      <trkpt lat="44.66931" lon="0.88132">
        <ele>143.8</ele>
        <time>2022-08-14T16:34:45Z</time>
      </trkpt>
      <trkpt lat="44.66935" lon="0.88141">
        <ele>143.8</ele>
        <time>2022-08-14T16:34:47Z</time>
      </trkpt>
      <trkpt lat="44.66939" lon="0.8815">
        <ele>143.8</ele>
        <time>2022-08-14T16:34:49Z</time>
      </trkpt>
      <trkpt lat="44.66943" lon="0.8816">
        <ele>143.8</ele>
        <time>2022-08-14T16:34:51Z</time>
      </trkpt>
      <trkpt lat="44.66947" lon="0.8817">
        <ele>144</ele>
        <time>2022-08-14T16:34:53Z</time>
      </trkpt>
      <trkpt lat="44.66952" lon="0.88181">
        <ele>144.4</ele>
        <time>2022-08-14T16:34:55Z</time>
      </trkpt>
      <trkpt lat="44.66955" lon="0.88191">
        <ele>144.5</ele>
        <time>2022-08-14T16:34:57Z</time>
      </trkpt>
      <trkpt lat="44.66959" lon="0.88202">
        <ele>144.7</ele>
        <time>2022-08-14T16:34:59Z</time>
      </trkpt>
      <trkpt lat="44.66964" lon="0.88213">
        <ele>144.8</ele>
        <time>2022-08-14T16:35:01Z</time>
      </trkpt>
      <trkpt lat="44.66968" lon="0.88223">
        <ele>144.8</ele>
        <time>2022-08-14T16:35:03Z</time>
      </trkpt>
      <trkpt lat="44.66971" lon="0.88235">
        <ele>144.7</ele>
        <time>2022-08-14T16:35:05Z</time>
      </trkpt>
      <trkpt lat="44.66975" lon="0.88247">
        <ele>144.5</ele>
        <time>2022-08-14T16:35:07Z</time>
      </trkpt>
      <trkpt lat="44.6698" lon="0.88259">
        <ele>144.5</ele>
        <time>2022-08-14T16:35:09Z</time>
      </trkpt>
      <trkpt lat="44.66984" lon="0.88271">
        <ele>144.4</ele>
        <time>2022-08-14T16:35:11Z</time>
      </trkpt>
      <trkpt lat="44.66988" lon="0.88283">
        <ele>144.4</ele>
        <time>2022-08-14T16:35:13Z</time>
      </trkpt>
      <trkpt lat="44.66992" lon="0.88296">
        <ele>144.2</ele>
        <time>2022-08-14T16:35:15Z</time>
      </trkpt>
      <trkpt lat="44.66996" lon="0.88309">
        <ele>143.9</ele>
        <time>2022-08-14T16:35:17Z</time>
      </trkpt>
      <trkpt lat="44.67" lon="0.88322">
        <ele>143.5</ele>
        <time>2022-08-14T16:35:19Z</time>
      </trkpt>
      <trkpt lat="44.67003" lon="0.88335">
        <ele>143.5</ele>
        <time>2022-08-14T16:35:21Z</time>
      </trkpt>
      <trkpt lat="44.67005" lon="0.88348">
        <ele>143.8</ele>
        <time>2022-08-14T16:35:23Z</time>
      </trkpt>
      <trkpt lat="44.67008" lon="0.8836">
        <ele>144.1</ele>
        <time>2022-08-14T16:35:25Z</time>
      </trkpt>
      <trkpt lat="44.6701" lon="0.88373">
        <ele>144.2</ele>
        <time>2022-08-14T16:35:27Z</time>
      </trkpt>
      <trkpt lat="44.67013" lon="0.88386">
        <ele>144.3</ele>
        <time>2022-08-14T16:35:29Z</time>
      </trkpt>
      <trkpt lat="44.67016" lon="0.88398">
        <ele>144.4</ele>
        <time>2022-08-14T16:35:31Z</time>
      </trkpt>
      <trkpt lat="44.67018" lon="0.88411">
        <ele>144.5</ele>
        <time>2022-08-14T16:35:33Z</time>
      </trkpt>
      <trkpt lat="44.67021" lon="0.88423">
        <ele>144.6</ele>
        <time>2022-08-14T16:35:35Z</time>
      </trkpt>
      <trkpt lat="44.67025" lon="0.88436">
        <ele>144.8</ele>
        <time>2022-08-14T16:35:37Z</time>
      </trkpt>
      <trkpt lat="44.67028" lon="0.88448">
        <ele>144.9</ele>
        <time>2022-08-14T16:35:39Z</time>
      </trkpt>
      <trkpt lat="44.67032" lon="0.88461">
        <ele>145.1</ele>
        <time>2022-08-14T16:35:41Z</time>
      </trkpt>
      <trkpt lat="44.67037" lon="0.88473">
        <ele>145.4</ele>
        <time>2022-08-14T16:35:43Z</time>
      </trkpt>
      <trkpt lat="44.67042" lon="0.88485">
        <ele>145.7</ele>
        <time>2022-08-14T16:35:45Z</time>
      </trkpt>
      <trkpt lat="44.67048" lon="0.88497">
        <ele>146</ele>
        <time>2022-08-14T16:35:47Z</time>
      </trkpt>
      <trkpt lat="44.67054" lon="0.88509">
        <ele>146.3</ele>
        <time>2022-08-14T16:35:49Z</time>
      </trkpt>
      <trkpt lat="44.67061" lon="0.88521">
        <ele>146.4</ele>
        <time>2022-08-14T16:35:51Z</time>
      </trkpt>
      <trkpt lat="44.67068" lon="0.88534">
        <ele>146.3</ele>
        <time>2022-08-14T16:35:53Z</time>
      </trkpt>
      <trkpt lat="44.67076" lon="0.88546">
        <ele>146</ele>
        <time>2022-08-14T16:35:55Z</time>
      </trkpt>
      <trkpt lat="44.67083" lon="0.88557">
        <ele>145.5</ele>
        <time>2022-08-14T16:35:57Z</time>
      </trkpt>
      <trkpt lat="44.67091" lon="0.88568">
        <ele>146.1</ele>
        <time>2022-08-14T16:35:59Z</time>
      </trkpt>
      <trkpt lat="44.67099" lon="0.88578">
        <ele>146.6</ele>
        <time>2022-08-14T16:36:01Z</time>
      </trkpt>
      <trkpt lat="44.67107" lon="0.88589">
        <ele>147.2</ele>
        <time>2022-08-14T16:36:03Z</time>
      </trkpt>
      <trkpt lat="44.67116" lon="0.88597">
        <ele>148</ele>
        <time>2022-08-14T16:36:05Z</time>
      </trkpt>
      <trkpt lat="44.67124" lon="0.88606">
        <ele>148.5</ele>
        <time>2022-08-14T16:36:07Z</time>
      </trkpt>
      <trkpt lat="44.67132" lon="0.88615">
        <ele>148.8</ele>
        <time>2022-08-14T16:36:09Z</time>
      </trkpt>
      <trkpt lat="44.6714" lon="0.88623">
        <ele>148.7</ele>
        <time>2022-08-14T16:36:11Z</time>
      </trkpt>
      <trkpt lat="44.67148" lon="0.88632">
        <ele>148.5</ele>
        <time>2022-08-14T16:36:13Z</time>
      </trkpt>
      <trkpt lat="44.67157" lon="0.8864">
        <ele>148</ele>
        <time>2022-08-14T16:36:15Z</time>
      </trkpt>
      <trkpt lat="44.67164" lon="0.88648">
        <ele>147.1</ele>
        <time>2022-08-14T16:36:17Z</time>
      </trkpt>
      <trkpt lat="44.67172" lon="0.88657">
        <ele>146.7</ele>
        <time>2022-08-14T16:36:19Z</time>
      </trkpt>
      <trkpt lat="44.6718" lon="0.88665">
        <ele>146.5</ele>
        <time>2022-08-14T16:36:21Z</time>
      </trkpt>
      <trkpt lat="44.67188" lon="0.88673">
        <ele>147</ele>
        <time>2022-08-14T16:36:23Z</time>
      </trkpt>
      <trkpt lat="44.67196" lon="0.88681">
        <ele>147.5</ele>
        <time>2022-08-14T16:36:25Z</time>
      </trkpt>
      <trkpt lat="44.67203" lon="0.88688">
        <ele>147.9</ele>
        <time>2022-08-14T16:36:27Z</time>
      </trkpt>
      <trkpt lat="44.67212" lon="0.88695">
        <ele>148.4</ele>
        <time>2022-08-14T16:36:29Z</time>
      </trkpt>
      <trkpt lat="44.6722" lon="0.88701">
        <ele>148.7</ele>
        <time>2022-08-14T16:36:31Z</time>
      </trkpt>
      <trkpt lat="44.67228" lon="0.88708">
        <ele>148.8</ele>
        <time>2022-08-14T16:36:33Z</time>
      </trkpt>
      <trkpt lat="44.67236" lon="0.88713">
        <ele>149</ele>
        <time>2022-08-14T16:36:35Z</time>
      </trkpt>
      <trkpt lat="44.67244" lon="0.88719">
        <ele>149</ele>
        <time>2022-08-14T16:36:37Z</time>
      </trkpt>
      <trkpt lat="44.67253" lon="0.88725">
        <ele>148.8</ele>
        <time>2022-08-14T16:36:39Z</time>
      </trkpt>
      <trkpt lat="44.67261" lon="0.88729">
        <ele>148.4</ele>
        <time>2022-08-14T16:36:41Z</time>
      </trkpt>
      <trkpt lat="44.67269" lon="0.88734">
        <ele>148</ele>
        <time>2022-08-14T16:36:43Z</time>
      </trkpt>
      <trkpt lat="44.67278" lon="0.8874">
        <ele>147.5</ele>
        <time>2022-08-14T16:36:45Z</time>
      </trkpt>
      <trkpt lat="44.67286" lon="0.88745">
        <ele>147</ele>
        <time>2022-08-14T16:36:47Z</time>
      </trkpt>
      <trkpt lat="44.67295" lon="0.8875">
        <ele>146.6</ele>
        <time>2022-08-14T16:36:49Z</time>
      </trkpt>
      <trkpt lat="44.67303" lon="0.88756">
        <ele>146.7</ele>
        <time>2022-08-14T16:36:51Z</time>
      </trkpt>
      <trkpt lat="44.67311" lon="0.88761">
        <ele>146.6</ele>
        <time>2022-08-14T16:36:53Z</time>
      </trkpt>
      <trkpt lat="44.67319" lon="0.88766">
        <ele>146.6</ele>
        <time>2022-08-14T16:36:55Z</time>
      </trkpt>
      <trkpt lat="44.67328" lon="0.88772">
        <ele>146.6</ele>
        <time>2022-08-14T16:36:57Z</time>
      </trkpt>
      <trkpt lat="44.67335" lon="0.88777">
        <ele>146.6</ele>
        <time>2022-08-14T16:36:59Z</time>
      </trkpt>
      <trkpt lat="44.67343" lon="0.88783">
        <ele>146.8</ele>
        <time>2022-08-14T16:37:01Z</time>
      </trkpt>
      <trkpt lat="44.67351" lon="0.88789">
        <ele>147.1</ele>
        <time>2022-08-14T16:37:03Z</time>
      </trkpt>
      <trkpt lat="44.67359" lon="0.88796">
        <ele>147.2</ele>
        <time>2022-08-14T16:37:05Z</time>
      </trkpt>
      <trkpt lat="44.67366" lon="0.88803">
        <ele>147.2</ele>
        <time>2022-08-14T16:37:07Z</time>
      </trkpt>
      <trkpt lat="44.67374" lon="0.8881">
        <ele>147.2</ele>
        <time>2022-08-14T16:37:09Z</time>
      </trkpt>
      <trkpt lat="44.67381" lon="0.88818">
        <ele>147.1</ele>
        <time>2022-08-14T16:37:11Z</time>
      </trkpt>
      <trkpt lat="44.67388" lon="0.88825">
        <ele>147</ele>
        <time>2022-08-14T16:37:13Z</time>
      </trkpt>
      <trkpt lat="44.67394" lon="0.88832">
        <ele>146.7</ele>
        <time>2022-08-14T16:37:15Z</time>
      </trkpt>
      <trkpt lat="44.674" lon="0.8884">
        <ele>146.7</ele>
        <time>2022-08-14T16:37:17Z</time>
      </trkpt>
      <trkpt lat="44.67406" lon="0.88847">
        <ele>146.7</ele>
        <time>2022-08-14T16:37:19Z</time>
      </trkpt>
      <trkpt lat="44.67412" lon="0.88855">
        <ele>146.5</ele>
        <time>2022-08-14T16:37:21Z</time>
      </trkpt>
      <trkpt lat="44.67419" lon="0.88862">
        <ele>146.5</ele>
        <time>2022-08-14T16:37:23Z</time>
      </trkpt>
      <trkpt lat="44.67424" lon="0.8887">
        <ele>146.6</ele>
        <time>2022-08-14T16:37:25Z</time>
      </trkpt>
      <trkpt lat="44.6743" lon="0.88878">
        <ele>146.7</ele>
        <time>2022-08-14T16:37:27Z</time>
      </trkpt>
      <trkpt lat="44.67435" lon="0.88886">
        <ele>146.7</ele>
        <time>2022-08-14T16:37:29Z</time>
      </trkpt>
      <trkpt lat="44.6744" lon="0.88894">
        <ele>146.7</ele>
        <time>2022-08-14T16:37:31Z</time>
      </trkpt>
      <trkpt lat="44.67446" lon="0.88902">
        <ele>146.6</ele>
        <time>2022-08-14T16:37:33Z</time>
      </trkpt>
      <trkpt lat="44.67452" lon="0.8891">
        <ele>146.4</ele>
        <time>2022-08-14T16:37:35Z</time>
      </trkpt>
      <trkpt lat="44.67457" lon="0.88919">
        <ele>146.3</ele>
        <time>2022-08-14T16:37:37Z</time>
      </trkpt>
      <trkpt lat="44.67462" lon="0.88927">
        <ele>146.5</ele>
        <time>2022-08-14T16:37:39Z</time>
      </trkpt>
      <trkpt lat="44.67467" lon="0.88935">
        <ele>146.6</ele>
        <time>2022-08-14T16:37:41Z</time>
      </trkpt>
      <trkpt lat="44.67472" lon="0.88944">
        <ele>146.7</ele>
        <time>2022-08-14T16:37:43Z</time>
      </trkpt>
      <trkpt lat="44.67477" lon="0.88952">
        <ele>146.7</ele>
        <time>2022-08-14T16:37:45Z</time>
      </trkpt>
      <trkpt lat="44.67481" lon="0.88959">
        <ele>146.6</ele>
        <time>2022-08-14T16:37:47Z</time>
      </trkpt>
      <trkpt lat="44.67486" lon="0.88967">
        <ele>146.4</ele>
        <time>2022-08-14T16:37:49Z</time>
      </trkpt>
      <trkpt lat="44.6749" lon="0.88974">
        <ele>146.2</ele>
        <time>2022-08-14T16:37:51Z</time>
      </trkpt>
      <trkpt lat="44.67495" lon="0.88982">
        <ele>145.9</ele>
        <time>2022-08-14T16:37:53Z</time>
      </trkpt>
      <trkpt lat="44.67499" lon="0.8899">
        <ele>145.6</ele>
        <time>2022-08-14T16:37:55Z</time>
      </trkpt>
      <trkpt lat="44.67503" lon="0.88997">
        <ele>145.6</ele>
        <time>2022-08-14T16:37:57Z</time>
      </trkpt>
      <trkpt lat="44.67508" lon="0.89004">
        <ele>145.9</ele>
        <time>2022-08-14T16:37:59Z</time>
      </trkpt>
      <trkpt lat="44.67512" lon="0.89012">
        <ele>146.3</ele>
        <time>2022-08-14T16:38:01Z</time>
      </trkpt>
      <trkpt lat="44.67516" lon="0.89019">
        <ele>146.7</ele>
        <time>2022-08-14T16:38:03Z</time>
      </trkpt>
      <trkpt lat="44.6752" lon="0.89027">
        <ele>147</ele>
        <time>2022-08-14T16:38:05Z</time>
      </trkpt>
      <trkpt lat="44.67524" lon="0.89034">
        <ele>147.2</ele>
        <time>2022-08-14T16:38:07Z</time>
      </trkpt>
      <trkpt lat="44.67527" lon="0.8904">
        <ele>147.5</ele>
        <time>2022-08-14T16:38:09Z</time>
      </trkpt>
      <trkpt lat="44.67531" lon="0.89046">
        <ele>147.7</ele>
        <time>2022-08-14T16:38:11Z</time>
      </trkpt>
      <trkpt lat="44.67534" lon="0.89052">
        <ele>147.9</ele>
        <time>2022-08-14T16:38:13Z</time>
      </trkpt>
      <trkpt lat="44.67538" lon="0.89058">
        <ele>148</ele>
        <time>2022-08-14T16:38:15Z</time>
      </trkpt>
      <trkpt lat="44.67541" lon="0.89064">
        <ele>148.1</ele>
        <time>2022-08-14T16:38:17Z</time>
      </trkpt>
      <trkpt lat="44.67543" lon="0.8907">
        <ele>148.1</ele>
        <time>2022-08-14T16:38:19Z</time>
      </trkpt>
      <trkpt lat="44.67546" lon="0.89076">
        <ele>148.2</ele>
        <time>2022-08-14T16:38:21Z</time>
      </trkpt>
      <trkpt lat="44.67549" lon="0.89081">
        <ele>148.2</ele>
        <time>2022-08-14T16:38:23Z</time>
      </trkpt>
      <trkpt lat="44.67551" lon="0.89087">
        <ele>148.4</ele>
        <time>2022-08-14T16:38:25Z</time>
      </trkpt>
      <trkpt lat="44.67554" lon="0.89093">
        <ele>148.7</ele>
        <time>2022-08-14T16:38:27Z</time>
      </trkpt>
      <trkpt lat="44.67557" lon="0.89099">
        <ele>149</ele>
        <time>2022-08-14T16:38:29Z</time>
      </trkpt>
      <trkpt lat="44.67559" lon="0.89104">
        <ele>149.3</ele>
        <time>2022-08-14T16:38:31Z</time>
      </trkpt>
      <trkpt lat="44.67562" lon="0.8911">
        <ele>149.6</ele>
        <time>2022-08-14T16:38:33Z</time>
      </trkpt>
      <trkpt lat="44.67564" lon="0.89116">
        <ele>149.9</ele>
        <time>2022-08-14T16:38:35Z</time>
      </trkpt>
      <trkpt lat="44.67567" lon="0.89121">
        <ele>150.2</ele>
        <time>2022-08-14T16:38:37Z</time>
      </trkpt>
      <trkpt lat="44.67569" lon="0.89128">
        <ele>150.4</ele>
        <time>2022-08-14T16:38:39Z</time>
      </trkpt>
      <trkpt lat="44.67571" lon="0.89134">
        <ele>150.7</ele>
        <time>2022-08-14T16:38:41Z</time>
      </trkpt>
      <trkpt lat="44.67574" lon="0.89139">
        <ele>150.9</ele>
        <time>2022-08-14T16:38:43Z</time>
      </trkpt>
      <trkpt lat="44.67576" lon="0.89144">
        <ele>151.2</ele>
        <time>2022-08-14T16:38:45Z</time>
      </trkpt>
      <trkpt lat="44.67579" lon="0.8915">
        <ele>151.4</ele>
        <time>2022-08-14T16:38:47Z</time>
      </trkpt>
      <trkpt lat="44.67581" lon="0.89155">
        <ele>151.7</ele>
        <time>2022-08-14T16:38:49Z</time>
      </trkpt>
      <trkpt lat="44.67583" lon="0.8916">
        <ele>151.9</ele>
        <time>2022-08-14T16:38:51Z</time>
      </trkpt>
      <trkpt lat="44.67585" lon="0.89165">
        <ele>152.1</ele>
        <time>2022-08-14T16:38:53Z</time>
      </trkpt>
      <trkpt lat="44.67587" lon="0.8917">
        <ele>152.2</ele>
        <time>2022-08-14T16:38:55Z</time>
      </trkpt>
      <trkpt lat="44.67589" lon="0.89175">
        <ele>152.4</ele>
        <time>2022-08-14T16:38:57Z</time>
      </trkpt>
      <trkpt lat="44.67591" lon="0.8918">
        <ele>152.5</ele>
        <time>2022-08-14T16:38:59Z</time>
      </trkpt>
      <trkpt lat="44.67593" lon="0.89185">
        <ele>152.8</ele>
        <time>2022-08-14T16:39:01Z</time>
      </trkpt>
      <trkpt lat="44.67595" lon="0.8919">
        <ele>153</ele>
        <time>2022-08-14T16:39:03Z</time>
      </trkpt>
      <trkpt lat="44.67597" lon="0.89195">
        <ele>153.2</ele>
        <time>2022-08-14T16:39:05Z</time>
      </trkpt>
      <trkpt lat="44.67599" lon="0.892">
        <ele>153.5</ele>
        <time>2022-08-14T16:39:07Z</time>
      </trkpt>
      <trkpt lat="44.676" lon="0.89205">
        <ele>153.8</ele>
        <time>2022-08-14T16:39:09Z</time>
      </trkpt>
      <trkpt lat="44.67602" lon="0.89209">
        <ele>154.1</ele>
        <time>2022-08-14T16:39:11Z</time>
      </trkpt>
      <trkpt lat="44.67605" lon="0.89213">
        <ele>154.4</ele>
        <time>2022-08-14T16:39:13Z</time>
      </trkpt>
      <trkpt lat="44.67607" lon="0.89217">
        <ele>154.8</ele>
        <time>2022-08-14T16:39:15Z</time>
      </trkpt>
      <trkpt lat="44.67608" lon="0.89222">
        <ele>155.1</ele>
        <time>2022-08-14T16:39:17Z</time>
      </trkpt>
      <trkpt lat="44.6761" lon="0.89227">
        <ele>155.4</ele>
        <time>2022-08-14T16:39:19Z</time>
      </trkpt>
      <trkpt lat="44.67612" lon="0.89232">
        <ele>155.8</ele>
        <time>2022-08-14T16:39:21Z</time>
      </trkpt>
      <trkpt lat="44.67613" lon="0.89237">
        <ele>156.2</ele>
        <time>2022-08-14T16:39:23Z</time>
      </trkpt>
      <trkpt lat="44.67615" lon="0.89241">
        <ele>156.6</ele>
        <time>2022-08-14T16:39:25Z</time>
      </trkpt>
      <trkpt lat="44.67616" lon="0.89246">
        <ele>156.9</ele>
        <time>2022-08-14T16:39:27Z</time>
      </trkpt>
      <trkpt lat="44.67618" lon="0.8925">
        <ele>157.4</ele>
        <time>2022-08-14T16:39:29Z</time>
      </trkpt>
      <trkpt lat="44.6762" lon="0.89255">
        <ele>157.6</ele>
        <time>2022-08-14T16:39:31Z</time>
      </trkpt>
      <trkpt lat="44.67621" lon="0.8926">
        <ele>157.8</ele>
        <time>2022-08-14T16:39:33Z</time>
      </trkpt>
      <trkpt lat="44.67623" lon="0.89265">
        <ele>158.1</ele>
        <time>2022-08-14T16:39:35Z</time>
      </trkpt>
      <trkpt lat="44.67625" lon="0.89269">
        <ele>158.4</ele>
        <time>2022-08-14T16:39:37Z</time>
      </trkpt>
      <trkpt lat="44.67628" lon="0.89273">
        <ele>158.7</ele>
        <time>2022-08-14T16:39:39Z</time>
      </trkpt>
      <trkpt lat="44.6763" lon="0.89278">
        <ele>158.9</ele>
        <time>2022-08-14T16:39:41Z</time>
      </trkpt>
      <trkpt lat="44.67631" lon="0.89282">
        <ele>159.1</ele>
        <time>2022-08-14T16:39:43Z</time>
      </trkpt>
      <trkpt lat="44.67633" lon="0.89287">
        <ele>159.4</ele>
        <time>2022-08-14T16:39:45Z</time>
      </trkpt>
      <trkpt lat="44.67635" lon="0.89291">
        <ele>159.7</ele>
        <time>2022-08-14T16:39:47Z</time>
      </trkpt>
      <trkpt lat="44.67637" lon="0.89295">
        <ele>160</ele>
        <time>2022-08-14T16:39:49Z</time>
      </trkpt>
      <trkpt lat="44.67639" lon="0.89299">
        <ele>160.4</ele>
        <time>2022-08-14T16:39:51Z</time>
      </trkpt>
      <trkpt lat="44.67642" lon="0.89304">
        <ele>160.7</ele>
        <time>2022-08-14T16:39:53Z</time>
      </trkpt>
      <trkpt lat="44.67644" lon="0.89308">
        <ele>161</ele>
        <time>2022-08-14T16:39:55Z</time>
      </trkpt>
      <trkpt lat="44.67646" lon="0.89312">
        <ele>161.4</ele>
        <time>2022-08-14T16:39:57Z</time>
      </trkpt>
      <trkpt lat="44.67648" lon="0.89317">
        <ele>161.8</ele>
        <time>2022-08-14T16:39:59Z</time>
      </trkpt>
      <trkpt lat="44.6765" lon="0.89321">
        <ele>162.1</ele>
        <time>2022-08-14T16:40:01Z</time>
      </trkpt>
      <trkpt lat="44.67653" lon="0.89325">
        <ele>162.6</ele>
        <time>2022-08-14T16:40:03Z</time>
      </trkpt>
      <trkpt lat="44.67656" lon="0.8933">
        <ele>163.1</ele>
        <time>2022-08-14T16:40:05Z</time>
      </trkpt>
      <trkpt lat="44.67658" lon="0.89334">
        <ele>163.4</ele>
        <time>2022-08-14T16:40:07Z</time>
      </trkpt>
      <trkpt lat="44.67661" lon="0.89339">
        <ele>163.7</ele>
        <time>2022-08-14T16:40:09Z</time>
      </trkpt>
      <trkpt lat="44.67663" lon="0.89343">
        <ele>163.9</ele>
        <time>2022-08-14T16:40:11Z</time>
      </trkpt>
      <trkpt lat="44.67666" lon="0.89348">
        <ele>164.2</ele>
        <time>2022-08-14T16:40:13Z</time>
      </trkpt>
      <trkpt lat="44.67669" lon="0.89352">
        <ele>164.4</ele>
        <time>2022-08-14T16:40:15Z</time>
      </trkpt>
      <trkpt lat="44.67671" lon="0.89357">
        <ele>164.5</ele>
        <time>2022-08-14T16:40:17Z</time>
      </trkpt>
      <trkpt lat="44.67674" lon="0.89362">
        <ele>164.8</ele>
        <time>2022-08-14T16:40:19Z</time>
      </trkpt>
      <trkpt lat="44.67677" lon="0.89367">
        <ele>165.1</ele>
        <time>2022-08-14T16:40:21Z</time>
      </trkpt>
      <trkpt lat="44.6768" lon="0.89372">
        <ele>165.3</ele>
        <time>2022-08-14T16:40:23Z</time>
      </trkpt>
      <trkpt lat="44.67683" lon="0.89376">
        <ele>165.5</ele>
        <time>2022-08-14T16:40:25Z</time>
      </trkpt>
      <trkpt lat="44.67686" lon="0.89381">
        <ele>165.9</ele>
        <time>2022-08-14T16:40:27Z</time>
      </trkpt>
      <trkpt lat="44.67689" lon="0.89386">
        <ele>166.2</ele>
        <time>2022-08-14T16:40:29Z</time>
      </trkpt>
      <trkpt lat="44.67691" lon="0.8939">
        <ele>166.4</ele>
        <time>2022-08-14T16:40:31Z</time>
      </trkpt>
      <trkpt lat="44.67694" lon="0.89395">
        <ele>166.6</ele>
        <time>2022-08-14T16:40:33Z</time>
      </trkpt>
      <trkpt lat="44.67697" lon="0.894">
        <ele>167</ele>
        <time>2022-08-14T16:40:35Z</time>
      </trkpt>
      <trkpt lat="44.677" lon="0.89404">
        <ele>167.4</ele>
        <time>2022-08-14T16:40:37Z</time>
      </trkpt>
      <trkpt lat="44.67703" lon="0.89408">
        <ele>167.7</ele>
        <time>2022-08-14T16:40:39Z</time>
      </trkpt>
      <trkpt lat="44.67705" lon="0.89413">
        <ele>168</ele>
        <time>2022-08-14T16:40:41Z</time>
      </trkpt>
      <trkpt lat="44.67708" lon="0.89417">
        <ele>168.3</ele>
        <time>2022-08-14T16:40:43Z</time>
      </trkpt>
      <trkpt lat="44.67711" lon="0.89421">
        <ele>168.5</ele>
        <time>2022-08-14T16:40:45Z</time>
      </trkpt>
      <trkpt lat="44.67714" lon="0.89425">
        <ele>168.7</ele>
        <time>2022-08-14T16:40:47Z</time>
      </trkpt>
      <trkpt lat="44.67717" lon="0.89428">
        <ele>168.9</ele>
        <time>2022-08-14T16:40:49Z</time>
      </trkpt>
      <trkpt lat="44.67721" lon="0.89432">
        <ele>169.1</ele>
        <time>2022-08-14T16:40:51Z</time>
      </trkpt>
      <trkpt lat="44.67724" lon="0.89435">
        <ele>169.4</ele>
        <time>2022-08-14T16:40:53Z</time>
      </trkpt>
      <trkpt lat="44.67728" lon="0.89439">
        <ele>169.7</ele>
        <time>2022-08-14T16:40:55Z</time>
      </trkpt>
      <trkpt lat="44.67731" lon="0.89443">
        <ele>170</ele>
        <time>2022-08-14T16:40:57Z</time>
      </trkpt>
      <trkpt lat="44.67734" lon="0.89446">
        <ele>170.3</ele>
        <time>2022-08-14T16:40:59Z</time>
      </trkpt>
      <trkpt lat="44.67738" lon="0.89449">
        <ele>170.6</ele>
        <time>2022-08-14T16:41:01Z</time>
      </trkpt>
      <trkpt lat="44.67741" lon="0.89452">
        <ele>171</ele>
        <time>2022-08-14T16:41:03Z</time>
      </trkpt>
      <trkpt lat="44.67744" lon="0.89455">
        <ele>171.3</ele>
        <time>2022-08-14T16:41:05Z</time>
      </trkpt>
      <trkpt lat="44.67747" lon="0.89458">
        <ele>171.6</ele>
        <time>2022-08-14T16:41:07Z</time>
      </trkpt>
      <trkpt lat="44.6775" lon="0.89461">
        <ele>171.8</ele>
        <time>2022-08-14T16:41:09Z</time>
      </trkpt>
      <trkpt lat="44.67753" lon="0.89465">
        <ele>172</ele>
        <time>2022-08-14T16:41:11Z</time>
      </trkpt>
      <trkpt lat="44.67755" lon="0.89469">
        <ele>172.2</ele>
        <time>2022-08-14T16:41:13Z</time>
      </trkpt>
      <trkpt lat="44.67758" lon="0.89473">
        <ele>172.3</ele>
        <time>2022-08-14T16:41:15Z</time>
      </trkpt>
      <trkpt lat="44.6776" lon="0.89478">
        <ele>172.6</ele>
        <time>2022-08-14T16:41:17Z</time>
      </trkpt>
      <trkpt lat="44.67763" lon="0.89482">
        <ele>172.8</ele>
        <time>2022-08-14T16:41:19Z</time>
      </trkpt>
      <trkpt lat="44.67766" lon="0.89486">
        <ele>173.1</ele>
        <time>2022-08-14T16:41:21Z</time>
      </trkpt>
      <trkpt lat="44.67768" lon="0.89491">
        <ele>173.4</ele>
        <time>2022-08-14T16:41:23Z</time>
      </trkpt>
      <trkpt lat="44.67771" lon="0.89495">
        <ele>173.6</ele>
        <time>2022-08-14T16:41:25Z</time>
      </trkpt>
      <trkpt lat="44.67773" lon="0.895">
        <ele>173.9</ele>
        <time>2022-08-14T16:41:27Z</time>
      </trkpt>
      <trkpt lat="44.67776" lon="0.89504">
        <ele>174.1</ele>
        <time>2022-08-14T16:41:29Z</time>
      </trkpt>
      <trkpt lat="44.67779" lon="0.89508">
        <ele>174.2</ele>
        <time>2022-08-14T16:41:31Z</time>
      </trkpt>
      <trkpt lat="44.67781" lon="0.89513">
        <ele>174.3</ele>
        <time>2022-08-14T16:41:33Z</time>
      </trkpt>
      <trkpt lat="44.67784" lon="0.89516">
        <ele>174.4</ele>
        <time>2022-08-14T16:41:35Z</time>
      </trkpt>
      <trkpt lat="44.67787" lon="0.8952">
        <ele>174.7</ele>
        <time>2022-08-14T16:41:37Z</time>
      </trkpt>
      <trkpt lat="44.6779" lon="0.89525">
        <ele>174.8</ele>
        <time>2022-08-14T16:41:39Z</time>
      </trkpt>
      <trkpt lat="44.67792" lon="0.89529">
        <ele>175</ele>
        <time>2022-08-14T16:41:41Z</time>
      </trkpt>
      <trkpt lat="44.67795" lon="0.89533">
        <ele>175.2</ele>
        <time>2022-08-14T16:41:43Z</time>
      </trkpt>
      <trkpt lat="44.67798" lon="0.89537">
        <ele>175.5</ele>
        <time>2022-08-14T16:41:45Z</time>
      </trkpt>
      <trkpt lat="44.67801" lon="0.89542">
        <ele>175.6</ele>
        <time>2022-08-14T16:41:47Z</time>
      </trkpt>
      <trkpt lat="44.67804" lon="0.89546">
        <ele>176</ele>
        <time>2022-08-14T16:41:49Z</time>
      </trkpt>
      <trkpt lat="44.67808" lon="0.8955">
        <ele>176.3</ele>
        <time>2022-08-14T16:41:51Z</time>
      </trkpt>
      <trkpt lat="44.67811" lon="0.89554">
        <ele>176.6</ele>
        <time>2022-08-14T16:41:53Z</time>
      </trkpt>
      <trkpt lat="44.67813" lon="0.89558">
        <ele>176.8</ele>
        <time>2022-08-14T16:41:55Z</time>
      </trkpt>
      <trkpt lat="44.67816" lon="0.89562">
        <ele>176.9</ele>
        <time>2022-08-14T16:41:57Z</time>
      </trkpt>
      <trkpt lat="44.67818" lon="0.89566">
        <ele>177.1</ele>
        <time>2022-08-14T16:41:59Z</time>
      </trkpt>
      <trkpt lat="44.67821" lon="0.8957">
        <ele>177.3</ele>
        <time>2022-08-14T16:42:01Z</time>
      </trkpt>
      <trkpt lat="44.67823" lon="0.89574">
        <ele>177.4</ele>
        <time>2022-08-14T16:42:03Z</time>
      </trkpt>
      <trkpt lat="44.67826" lon="0.89578">
        <ele>177.7</ele>
        <time>2022-08-14T16:42:05Z</time>
      </trkpt>
      <trkpt lat="44.67828" lon="0.89582">
        <ele>177.8</ele>
        <time>2022-08-14T16:42:07Z</time>
      </trkpt>
      <trkpt lat="44.6783" lon="0.89586">
        <ele>177.9</ele>
        <time>2022-08-14T16:42:09Z</time>
      </trkpt>
      <trkpt lat="44.67833" lon="0.8959">
        <ele>178.2</ele>
        <time>2022-08-14T16:42:11Z</time>
      </trkpt>
      <trkpt lat="44.67836" lon="0.89595">
        <ele>178.1</ele>
        <time>2022-08-14T16:42:13Z</time>
      </trkpt>
      <trkpt lat="44.67839" lon="0.89598">
        <ele>178.1</ele>
        <time>2022-08-14T16:42:15Z</time>
      </trkpt>
      <trkpt lat="44.67842" lon="0.89601">
        <ele>178.2</ele>
        <time>2022-08-14T16:42:17Z</time>
      </trkpt>
      <trkpt lat="44.67845" lon="0.89604">
        <ele>178.2</ele>
        <time>2022-08-14T16:42:19Z</time>
      </trkpt>
      <trkpt lat="44.67848" lon="0.89607">
        <ele>178.3</ele>
        <time>2022-08-14T16:42:21Z</time>
      </trkpt>
      <trkpt lat="44.67851" lon="0.89609">
        <ele>178.4</ele>
        <time>2022-08-14T16:42:23Z</time>
      </trkpt>
      <trkpt lat="44.67854" lon="0.89611">
        <ele>178.7</ele>
        <time>2022-08-14T16:42:25Z</time>
      </trkpt>
      <trkpt lat="44.67858" lon="0.89612">
        <ele>179</ele>
        <time>2022-08-14T16:42:27Z</time>
      </trkpt>
      <trkpt lat="44.67861" lon="0.89614">
        <ele>179.2</ele>
        <time>2022-08-14T16:42:29Z</time>
      </trkpt>
      <trkpt lat="44.67864" lon="0.89615">
        <ele>179.5</ele>
        <time>2022-08-14T16:42:31Z</time>
      </trkpt>
      <trkpt lat="44.67867" lon="0.89615">
        <ele>179.9</ele>
        <time>2022-08-14T16:42:33Z</time>
      </trkpt>
      <trkpt lat="44.6787" lon="0.89615">
        <ele>180.4</ele>
        <time>2022-08-14T16:42:35Z</time>
      </trkpt>
      <trkpt lat="44.67874" lon="0.89615">
        <ele>180.8</ele>
        <time>2022-08-14T16:42:37Z</time>
      </trkpt>
      <trkpt lat="44.67877" lon="0.89615">
        <ele>181.3</ele>
        <time>2022-08-14T16:42:39Z</time>
      </trkpt>
      <trkpt lat="44.6788" lon="0.89615">
        <ele>181.8</ele>
        <time>2022-08-14T16:42:41Z</time>
      </trkpt>
      <trkpt lat="44.67883" lon="0.89615">
        <ele>182.2</ele>
        <time>2022-08-14T16:42:43Z</time>
      </trkpt>
      <trkpt lat="44.67885" lon="0.89617">
        <ele>182.2</ele>
        <time>2022-08-14T16:42:45Z</time>
      </trkpt>
      <trkpt lat="44.67887" lon="0.89617">
        <ele>182.5</ele>
        <time>2022-08-14T16:42:47Z</time>
      </trkpt>
      <trkpt lat="44.67888" lon="0.89616">
        <ele>182.6</ele>
        <time>2022-08-14T16:42:49Z</time>
      </trkpt>
      <trkpt lat="44.67887" lon="0.89616">
        <ele>182.6</ele>
        <time>2022-08-14T16:42:51Z</time>
      </trkpt>
      <trkpt lat="44.67887" lon="0.89616">
        <ele>182.6</ele>
        <time>2022-08-14T16:42:53Z</time>
      </trkpt>
      <trkpt lat="44.67887" lon="0.89616">
        <ele>182.6</ele>
        <time>2022-08-14T16:42:55Z</time>
      </trkpt>
      <trkpt lat="44.67885" lon="0.89603">
        <ele>184.4</ele>
        <time>2022-08-14T16:43:21Z</time>
      </trkpt>
      <trkpt lat="44.67882" lon="0.89599">
        <ele>184.7</ele>
        <time>2022-08-14T16:43:23Z</time>
      </trkpt>
      <trkpt lat="44.67881" lon="0.89595">
        <ele>185.1</ele>
        <time>2022-08-14T16:43:25Z</time>
      </trkpt>
      <trkpt lat="44.67881" lon="0.89591">
        <ele>185.7</ele>
        <time>2022-08-14T16:43:27Z</time>
      </trkpt>
      <trkpt lat="44.67881" lon="0.89587">
        <ele>186.4</ele>
        <time>2022-08-14T16:43:29Z</time>
      </trkpt>
      <trkpt lat="44.67879" lon="0.89583">
        <ele>186.7</ele>
        <time>2022-08-14T16:43:31Z</time>
      </trkpt>
      <trkpt lat="44.67877" lon="0.89578">
        <ele>186.8</ele>
        <time>2022-08-14T16:43:33Z</time>
      </trkpt>
      <trkpt lat="44.67876" lon="0.89574">
        <ele>187</ele>
        <time>2022-08-14T16:43:35Z</time>
      </trkpt>
      <trkpt lat="44.67875" lon="0.89568">
        <ele>187.4</ele>
        <time>2022-08-14T16:43:37Z</time>
      </trkpt>
      <trkpt lat="44.67875" lon="0.89563">
        <ele>187.8</ele>
        <time>2022-08-14T16:43:39Z</time>
      </trkpt>
      <trkpt lat="44.67875" lon="0.89558">
        <ele>188.2</ele>
        <time>2022-08-14T16:43:41Z</time>
      </trkpt>
      <trkpt lat="44.67874" lon="0.89553">
        <ele>188.5</ele>
        <time>2022-08-14T16:43:43Z</time>
      </trkpt>
      <trkpt lat="44.67872" lon="0.89549">
        <ele>188.7</ele>
        <time>2022-08-14T16:43:45Z</time>
      </trkpt>
      <trkpt lat="44.67871" lon="0.89545">
        <ele>188.9</ele>
        <time>2022-08-14T16:43:47Z</time>
      </trkpt>
      <trkpt lat="44.67869" lon="0.89541">
        <ele>189.1</ele>
        <time>2022-08-14T16:43:49Z</time>
      </trkpt>
      <trkpt lat="44.67869" lon="0.89535">
        <ele>189.5</ele>
        <time>2022-08-14T16:43:51Z</time>
      </trkpt>
      <trkpt lat="44.67868" lon="0.8953">
        <ele>189.9</ele>
        <time>2022-08-14T16:43:53Z</time>
      </trkpt>
      <trkpt lat="44.67867" lon="0.89525">
        <ele>190.2</ele>
        <time>2022-08-14T16:43:55Z</time>
      </trkpt>
      <trkpt lat="44.67866" lon="0.89521">
        <ele>190.6</ele>
        <time>2022-08-14T16:43:57Z</time>
      </trkpt>
      <trkpt lat="44.67866" lon="0.89515">
        <ele>191</ele>
        <time>2022-08-14T16:43:59Z</time>
      </trkpt>
      <trkpt lat="44.67865" lon="0.89511">
        <ele>191.3</ele>
        <time>2022-08-14T16:44:01Z</time>
      </trkpt>
      <trkpt lat="44.67863" lon="0.89508">
        <ele>191.4</ele>
        <time>2022-08-14T16:44:03Z</time>
      </trkpt>
      <trkpt lat="44.67863" lon="0.89503">
        <ele>191.9</ele>
        <time>2022-08-14T16:44:05Z</time>
      </trkpt>
      <trkpt lat="44.67863" lon="0.89498">
        <ele>192.3</ele>
        <time>2022-08-14T16:44:07Z</time>
      </trkpt>
      <trkpt lat="44.67864" lon="0.89494">
        <ele>192.5</ele>
        <time>2022-08-14T16:44:09Z</time>
      </trkpt>
      <trkpt lat="44.67866" lon="0.8949">
        <ele>192.8</ele>
        <time>2022-08-14T16:44:11Z</time>
      </trkpt>
      <trkpt lat="44.67869" lon="0.89489">
        <ele>193.1</ele>
        <time>2022-08-14T16:44:13Z</time>
      </trkpt>
      <trkpt lat="44.67872" lon="0.89488">
        <ele>193.4</ele>
        <time>2022-08-14T16:44:15Z</time>
      </trkpt>
      <trkpt lat="44.67875" lon="0.89487">
        <ele>193.7</ele>
        <time>2022-08-14T16:44:17Z</time>
      </trkpt>
      <trkpt lat="44.67878" lon="0.89486">
        <ele>194</ele>
        <time>2022-08-14T16:44:19Z</time>
      </trkpt>
      <trkpt lat="44.67881" lon="0.89484">
        <ele>194.4</ele>
        <time>2022-08-14T16:44:21Z</time>
      </trkpt>
      <trkpt lat="44.67884" lon="0.89482">
        <ele>194.7</ele>
        <time>2022-08-14T16:44:23Z</time>
      </trkpt>
      <trkpt lat="44.67887" lon="0.89481">
        <ele>195</ele>
        <time>2022-08-14T16:44:25Z</time>
      </trkpt>
      <trkpt lat="44.67891" lon="0.89481">
        <ele>195.5</ele>
        <time>2022-08-14T16:44:27Z</time>
      </trkpt>
      <trkpt lat="44.67895" lon="0.89481">
        <ele>195.9</ele>
        <time>2022-08-14T16:44:29Z</time>
      </trkpt>
      <trkpt lat="44.67899" lon="0.8948">
        <ele>196.3</ele>
        <time>2022-08-14T16:44:31Z</time>
      </trkpt>
      <trkpt lat="44.67904" lon="0.89481">
        <ele>196.7</ele>
        <time>2022-08-14T16:44:33Z</time>
      </trkpt>
      <trkpt lat="44.67907" lon="0.8948">
        <ele>197.1</ele>
        <time>2022-08-14T16:44:35Z</time>
      </trkpt>
      <trkpt lat="44.67911" lon="0.89479">
        <ele>197.5</ele>
        <time>2022-08-14T16:44:37Z</time>
      </trkpt>
      <trkpt lat="44.67915" lon="0.89478">
        <ele>197.8</ele>
        <time>2022-08-14T16:44:39Z</time>
      </trkpt>
      <trkpt lat="44.67919" lon="0.89477">
        <ele>198.1</ele>
        <time>2022-08-14T16:44:41Z</time>
      </trkpt>
      <trkpt lat="44.67923" lon="0.89475">
        <ele>198.3</ele>
        <time>2022-08-14T16:44:43Z</time>
      </trkpt>
      <trkpt lat="44.67927" lon="0.89475">
        <ele>198.5</ele>
        <time>2022-08-14T16:44:45Z</time>
      </trkpt>
      <trkpt lat="44.67931" lon="0.89474">
        <ele>198.7</ele>
        <time>2022-08-14T16:44:47Z</time>
      </trkpt>
      <trkpt lat="44.67936" lon="0.89473">
        <ele>198.9</ele>
        <time>2022-08-14T16:44:49Z</time>
      </trkpt>
      <trkpt lat="44.6794" lon="0.89472">
        <ele>199</ele>
        <time>2022-08-14T16:44:51Z</time>
      </trkpt>
      <trkpt lat="44.67943" lon="0.89473">
        <ele>199.2</ele>
        <time>2022-08-14T16:44:53Z</time>
      </trkpt>
      <trkpt lat="44.67948" lon="0.89472">
        <ele>199.4</ele>
        <time>2022-08-14T16:44:55Z</time>
      </trkpt>
      <trkpt lat="44.67952" lon="0.89471">
        <ele>199.6</ele>
        <time>2022-08-14T16:44:57Z</time>
      </trkpt>
      <trkpt lat="44.67956" lon="0.89471">
        <ele>199.7</ele>
        <time>2022-08-14T16:44:59Z</time>
      </trkpt>
      <trkpt lat="44.6796" lon="0.8947">
        <ele>199.9</ele>
        <time>2022-08-14T16:45:01Z</time>
      </trkpt>
      <trkpt lat="44.67964" lon="0.89469">
        <ele>200.1</ele>
        <time>2022-08-14T16:45:03Z</time>
      </trkpt>
      <trkpt lat="44.67968" lon="0.89469">
        <ele>200.3</ele>
        <time>2022-08-14T16:45:05Z</time>
      </trkpt>
      <trkpt lat="44.67972" lon="0.8947">
        <ele>200.4</ele>
        <time>2022-08-14T16:45:07Z</time>
      </trkpt>
      <trkpt lat="44.67975" lon="0.89468">
        <ele>200.5</ele>
        <time>2022-08-14T16:45:09Z</time>
      </trkpt>
      <trkpt lat="44.67979" lon="0.89468">
        <ele>200.7</ele>
        <time>2022-08-14T16:45:11Z</time>
      </trkpt>
      <trkpt lat="44.67983" lon="0.89469">
        <ele>200.9</ele>
        <time>2022-08-14T16:45:13Z</time>
      </trkpt>
      <trkpt lat="44.67986" lon="0.89468">
        <ele>201</ele>
        <time>2022-08-14T16:45:15Z</time>
      </trkpt>
      <trkpt lat="44.67987" lon="0.89466">
        <ele>201.1</ele>
        <time>2022-08-14T16:45:17Z</time>
      </trkpt>
      <trkpt lat="44.6799" lon="0.89467">
        <ele>201.2</ele>
        <time>2022-08-14T16:45:19Z</time>
      </trkpt>
      <trkpt lat="44.6799" lon="0.89465">
        <ele>201.2</ele>
        <time>2022-08-14T16:45:21Z</time>
      </trkpt>
      <trkpt lat="44.67995" lon="0.89459">
        <ele>201.3</ele>
        <time>2022-08-14T16:45:23Z</time>
      </trkpt>
      <trkpt lat="44.68001" lon="0.89459">
        <ele>201.5</ele>
        <time>2022-08-14T16:45:25Z</time>
      </trkpt>
      <trkpt lat="44.68005" lon="0.89458">
        <ele>201.5</ele>
        <time>2022-08-14T16:45:27Z</time>
      </trkpt>
      <trkpt lat="44.68007" lon="0.89452">
        <ele>201.4</ele>
        <time>2022-08-14T16:45:29Z</time>
      </trkpt>
      <trkpt lat="44.68008" lon="0.89451">
        <ele>201.4</ele>
        <time>2022-08-14T16:45:31Z</time>
      </trkpt>
      <trkpt lat="44.68008" lon="0.89447">
        <ele>201.4</ele>
        <time>2022-08-14T16:45:33Z</time>
      </trkpt>
      <trkpt lat="44.68008" lon="0.89442">
        <ele>201.3</ele>
        <time>2022-08-14T16:45:35Z</time>
      </trkpt>
      <trkpt lat="44.6801" lon="0.89441">
        <ele>201.3</ele>
        <time>2022-08-14T16:45:37Z</time>
      </trkpt>
      <trkpt lat="44.68011" lon="0.89438">
        <ele>201.3</ele>
        <time>2022-08-14T16:45:39Z</time>
      </trkpt>
      <trkpt lat="44.68011" lon="0.89437">
        <ele>201.3</ele>
        <time>2022-08-14T16:45:41Z</time>
      </trkpt>
      <trkpt lat="44.68012" lon="0.89438">
        <ele>201.3</ele>
        <time>2022-08-14T16:45:43Z</time>
      </trkpt>
      <trkpt lat="44.68012" lon="0.89439">
        <ele>201.3</ele>
        <time>2022-08-14T16:45:45Z</time>
      </trkpt>
      <trkpt lat="44.68007" lon="0.89392">
        <ele>198.8</ele>
        <time>2022-08-14T17:21:26Z</time>
      </trkpt>
      <trkpt lat="44.68014" lon="0.89395">
        <ele>199.2</ele>
        <time>2022-08-14T17:21:27Z</time>
      </trkpt>
      <trkpt lat="44.68031" lon="0.8939">
        <ele>199.2</ele>
        <time>2022-08-14T17:21:30Z</time>
      </trkpt>
      <trkpt lat="44.68034" lon="0.89392">
        <ele>199.4</ele>
        <time>2022-08-14T17:21:32Z</time>
      </trkpt>
      <trkpt lat="44.6804" lon="0.89394">
        <ele>199.7</ele>
        <time>2022-08-14T17:21:34Z</time>
      </trkpt>
      <trkpt lat="44.68044" lon="0.89394">
        <ele>199.8</ele>
        <time>2022-08-14T17:21:36Z</time>
      </trkpt>
      <trkpt lat="44.68046" lon="0.89394">
        <ele>199.9</ele>
        <time>2022-08-14T17:21:38Z</time>
      </trkpt>
      <trkpt lat="44.6805" lon="0.89395">
        <ele>200</ele>
        <time>2022-08-14T17:21:40Z</time>
      </trkpt>
      <trkpt lat="44.68053" lon="0.89395">
        <ele>200</ele>
        <time>2022-08-14T17:21:42Z</time>
      </trkpt>
      <trkpt lat="44.68057" lon="0.89394">
        <ele>200.1</ele>
        <time>2022-08-14T17:21:44Z</time>
      </trkpt>
      <trkpt lat="44.68063" lon="0.89394">
        <ele>200.2</ele>
        <time>2022-08-14T17:21:46Z</time>
      </trkpt>
      <trkpt lat="44.68066" lon="0.89394">
        <ele>200.3</ele>
        <time>2022-08-14T17:21:48Z</time>
      </trkpt>
      <trkpt lat="44.68068" lon="0.89395">
        <ele>200.3</ele>
        <time>2022-08-14T17:21:50Z</time>
      </trkpt>
      <trkpt lat="44.68067" lon="0.89395">
        <ele>200.4</ele>
        <time>2022-08-14T17:21:52Z</time>
      </trkpt>
      <trkpt lat="44.68067" lon="0.89397">
        <ele>200.5</ele>
        <time>2022-08-14T17:21:54Z</time>
      </trkpt>
      <trkpt lat="44.68068" lon="0.89398">
        <ele>200.5</ele>
        <time>2022-08-14T17:21:56Z</time>
      </trkpt>
      <trkpt lat="44.68073" lon="0.89402">
        <ele>201</ele>
        <time>2022-08-14T17:21:58Z</time>
      </trkpt>
      <trkpt lat="44.68075" lon="0.894">
        <ele>200.9</ele>
        <time>2022-08-14T17:22:00Z</time>
      </trkpt>
      <trkpt lat="44.68078" lon="0.89398">
        <ele>200.8</ele>
        <time>2022-08-14T17:22:02Z</time>
      </trkpt>
      <trkpt lat="44.68081" lon="0.89397">
        <ele>200.7</ele>
        <time>2022-08-14T17:22:04Z</time>
      </trkpt>
      <trkpt lat="44.68083" lon="0.89395">
        <ele>200.7</ele>
        <time>2022-08-14T17:22:06Z</time>
      </trkpt>
      <trkpt lat="44.68083" lon="0.89394">
        <ele>200.6</ele>
        <time>2022-08-14T17:22:08Z</time>
      </trkpt>
      <trkpt lat="44.68083" lon="0.89393">
        <ele>200.6</ele>
        <time>2022-08-14T17:22:10Z</time>
      </trkpt>
      <trkpt lat="44.68083" lon="0.89393">
        <ele>200.6</ele>
        <time>2022-08-14T17:22:12Z</time>
      </trkpt>
      <trkpt lat="44.68084" lon="0.89393">
        <ele>200.6</ele>
        <time>2022-08-14T17:22:14Z</time>
      </trkpt>
      <trkpt lat="44.68093" lon="0.8939">
        <ele>200.5</ele>
        <time>2022-08-14T17:22:28Z</time>
      </trkpt>
      <trkpt lat="44.68098" lon="0.8939">
        <ele>200.6</ele>
        <time>2022-08-14T17:22:30Z</time>
      </trkpt>
      <trkpt lat="44.68102" lon="0.89389">
        <ele>200.5</ele>
        <time>2022-08-14T17:22:32Z</time>
      </trkpt>
      <trkpt lat="44.68107" lon="0.89387">
        <ele>200.5</ele>
        <time>2022-08-14T17:22:34Z</time>
      </trkpt>
      <trkpt lat="44.68111" lon="0.89386">
        <ele>200.5</ele>
        <time>2022-08-14T17:22:36Z</time>
      </trkpt>
      <trkpt lat="44.68115" lon="0.89385">
        <ele>200.5</ele>
        <time>2022-08-14T17:22:38Z</time>
      </trkpt>
      <trkpt lat="44.6812" lon="0.89385">
        <ele>200.6</ele>
        <time>2022-08-14T17:22:40Z</time>
      </trkpt>
      <trkpt lat="44.68125" lon="0.89385">
        <ele>200.7</ele>
        <time>2022-08-14T17:22:42Z</time>
      </trkpt>
      <trkpt lat="44.6813" lon="0.89386">
        <ele>200.8</ele>
        <time>2022-08-14T17:22:44Z</time>
      </trkpt>
      <trkpt lat="44.68133" lon="0.89385">
        <ele>200.8</ele>
        <time>2022-08-14T17:22:46Z</time>
      </trkpt>
      <trkpt lat="44.6814" lon="0.89383">
        <ele>200.8</ele>
        <time>2022-08-14T17:22:48Z</time>
      </trkpt>
      <trkpt lat="44.68144" lon="0.89382">
        <ele>200.8</ele>
        <time>2022-08-14T17:22:50Z</time>
      </trkpt>
      <trkpt lat="44.68149" lon="0.89382">
        <ele>200.9</ele>
        <time>2022-08-14T17:22:52Z</time>
      </trkpt>
      <trkpt lat="44.68153" lon="0.8938">
        <ele>200.9</ele>
        <time>2022-08-14T17:22:54Z</time>
      </trkpt>
      <trkpt lat="44.68158" lon="0.89379">
        <ele>200.9</ele>
        <time>2022-08-14T17:22:56Z</time>
      </trkpt>
      <trkpt lat="44.68163" lon="0.89378">
        <ele>201</ele>
        <time>2022-08-14T17:22:58Z</time>
      </trkpt>
      <trkpt lat="44.68167" lon="0.89378">
        <ele>201.1</ele>
        <time>2022-08-14T17:23:00Z</time>
      </trkpt>
      <trkpt lat="44.68171" lon="0.89379">
        <ele>201.1</ele>
        <time>2022-08-14T17:23:02Z</time>
      </trkpt>
      <trkpt lat="44.68176" lon="0.89378">
        <ele>201.2</ele>
        <time>2022-08-14T17:23:04Z</time>
      </trkpt>
      <trkpt lat="44.68182" lon="0.89378">
        <ele>201.2</ele>
        <time>2022-08-14T17:23:06Z</time>
      </trkpt>
      <trkpt lat="44.68186" lon="0.89377">
        <ele>201.3</ele>
        <time>2022-08-14T17:23:08Z</time>
      </trkpt>
      <trkpt lat="44.68192" lon="0.89378">
        <ele>201.3</ele>
        <time>2022-08-14T17:23:10Z</time>
      </trkpt>
      <trkpt lat="44.68195" lon="0.89378">
        <ele>201.4</ele>
        <time>2022-08-14T17:23:12Z</time>
      </trkpt>
      <trkpt lat="44.68199" lon="0.8938">
        <ele>201.4</ele>
        <time>2022-08-14T17:23:14Z</time>
      </trkpt>
      <trkpt lat="44.68202" lon="0.89378">
        <ele>201.4</ele>
        <time>2022-08-14T17:23:16Z</time>
      </trkpt>
      <trkpt lat="44.68205" lon="0.89376">
        <ele>201.5</ele>
        <time>2022-08-14T17:23:18Z</time>
      </trkpt>
      <trkpt lat="44.68209" lon="0.89377">
        <ele>201.5</ele>
        <time>2022-08-14T17:23:20Z</time>
      </trkpt>
      <trkpt lat="44.68216" lon="0.89378">
        <ele>201.6</ele>
        <time>2022-08-14T17:23:22Z</time>
      </trkpt>
      <trkpt lat="44.68222" lon="0.89378">
        <ele>201.6</ele>
        <time>2022-08-14T17:23:24Z</time>
      </trkpt>
      <trkpt lat="44.68227" lon="0.89377">
        <ele>201.7</ele>
        <time>2022-08-14T17:23:26Z</time>
      </trkpt>
      <trkpt lat="44.68231" lon="0.89376">
        <ele>201.8</ele>
        <time>2022-08-14T17:23:28Z</time>
      </trkpt>
      <trkpt lat="44.68235" lon="0.89375">
        <ele>201.8</ele>
        <time>2022-08-14T17:23:30Z</time>
      </trkpt>
      <trkpt lat="44.68239" lon="0.89373">
        <ele>201.9</ele>
        <time>2022-08-14T17:23:32Z</time>
      </trkpt>
      <trkpt lat="44.68243" lon="0.89372">
        <ele>202</ele>
        <time>2022-08-14T17:23:34Z</time>
      </trkpt>
      <trkpt lat="44.6825" lon="0.89372">
        <ele>202.1</ele>
        <time>2022-08-14T17:23:36Z</time>
      </trkpt>
      <trkpt lat="44.68255" lon="0.89372">
        <ele>202.1</ele>
        <time>2022-08-14T17:23:38Z</time>
      </trkpt>
      <trkpt lat="44.6826" lon="0.8937">
        <ele>202.1</ele>
        <time>2022-08-14T17:23:40Z</time>
      </trkpt>
      <trkpt lat="44.68266" lon="0.89369">
        <ele>202.1</ele>
        <time>2022-08-14T17:23:42Z</time>
      </trkpt>
      <trkpt lat="44.68271" lon="0.89369">
        <ele>202.1</ele>
        <time>2022-08-14T17:23:44Z</time>
      </trkpt>
      <trkpt lat="44.68277" lon="0.89368">
        <ele>202.1</ele>
        <time>2022-08-14T17:23:46Z</time>
      </trkpt>
      <trkpt lat="44.68283" lon="0.89368">
        <ele>202.1</ele>
        <time>2022-08-14T17:23:48Z</time>
      </trkpt>
      <trkpt lat="44.68289" lon="0.89368">
        <ele>202.1</ele>
        <time>2022-08-14T17:23:50Z</time>
      </trkpt>
      <trkpt lat="44.68295" lon="0.89367">
        <ele>202.1</ele>
        <time>2022-08-14T17:23:52Z</time>
      </trkpt>
      <trkpt lat="44.68302" lon="0.89366">
        <ele>202.1</ele>
        <time>2022-08-14T17:23:54Z</time>
      </trkpt>
      <trkpt lat="44.68308" lon="0.89366">
        <ele>202.1</ele>
        <time>2022-08-14T17:23:56Z</time>
      </trkpt>
      <trkpt lat="44.68314" lon="0.89364">
        <ele>202.1</ele>
        <time>2022-08-14T17:23:58Z</time>
      </trkpt>
      <trkpt lat="44.68321" lon="0.89362">
        <ele>202</ele>
        <time>2022-08-14T17:24:00Z</time>
      </trkpt>
      <trkpt lat="44.68327" lon="0.89361">
        <ele>202</ele>
        <time>2022-08-14T17:24:02Z</time>
      </trkpt>
      <trkpt lat="44.68332" lon="0.89361">
        <ele>202</ele>
        <time>2022-08-14T17:24:04Z</time>
      </trkpt>
      <trkpt lat="44.68337" lon="0.8936">
        <ele>202</ele>
        <time>2022-08-14T17:24:06Z</time>
      </trkpt>
      <trkpt lat="44.68341" lon="0.8936">
        <ele>202</ele>
        <time>2022-08-14T17:24:08Z</time>
      </trkpt>
      <trkpt lat="44.68346" lon="0.8936">
        <ele>202</ele>
        <time>2022-08-14T17:24:10Z</time>
      </trkpt>
      <trkpt lat="44.68351" lon="0.89359">
        <ele>202.1</ele>
        <time>2022-08-14T17:24:12Z</time>
      </trkpt>
      <trkpt lat="44.68355" lon="0.89356">
        <ele>202.1</ele>
        <time>2022-08-14T17:24:14Z</time>
      </trkpt>
      <trkpt lat="44.6836" lon="0.89356">
        <ele>202.1</ele>
        <time>2022-08-14T17:24:16Z</time>
      </trkpt>
      <trkpt lat="44.68366" lon="0.89356">
        <ele>202.1</ele>
        <time>2022-08-14T17:24:18Z</time>
      </trkpt>
      <trkpt lat="44.68371" lon="0.89356">
        <ele>202.1</ele>
        <time>2022-08-14T17:24:20Z</time>
      </trkpt>
      <trkpt lat="44.68377" lon="0.89355">
        <ele>202.1</ele>
        <time>2022-08-14T17:24:22Z</time>
      </trkpt>
      <trkpt lat="44.68382" lon="0.89355">
        <ele>202.2</ele>
        <time>2022-08-14T17:24:24Z</time>
      </trkpt>
      <trkpt lat="44.68388" lon="0.89354">
        <ele>202.2</ele>
        <time>2022-08-14T17:24:26Z</time>
      </trkpt>
      <trkpt lat="44.68395" lon="0.89353">
        <ele>202.2</ele>
        <time>2022-08-14T17:24:28Z</time>
      </trkpt>
      <trkpt lat="44.68401" lon="0.89352">
        <ele>202.2</ele>
        <time>2022-08-14T17:24:30Z</time>
      </trkpt>
      <trkpt lat="44.68408" lon="0.89352">
        <ele>202.2</ele>
        <time>2022-08-14T17:24:32Z</time>
      </trkpt>
      <trkpt lat="44.68414" lon="0.8935">
        <ele>202.2</ele>
        <time>2022-08-14T17:24:34Z</time>
      </trkpt>
      <trkpt lat="44.68421" lon="0.89349">
        <ele>202.3</ele>
        <time>2022-08-14T17:24:36Z</time>
      </trkpt>
      <trkpt lat="44.68427" lon="0.89349">
        <ele>202.5</ele>
        <time>2022-08-14T17:24:38Z</time>
      </trkpt>
      <trkpt lat="44.68434" lon="0.89348">
        <ele>202.6</ele>
        <time>2022-08-14T17:24:40Z</time>
      </trkpt>
      <trkpt lat="44.68441" lon="0.89346">
        <ele>202.8</ele>
        <time>2022-08-14T17:24:42Z</time>
      </trkpt>
      <trkpt lat="44.68447" lon="0.89345">
        <ele>202.9</ele>
        <time>2022-08-14T17:24:44Z</time>
      </trkpt>
      <trkpt lat="44.68454" lon="0.89344">
        <ele>203.1</ele>
        <time>2022-08-14T17:24:46Z</time>
      </trkpt>
      <trkpt lat="44.6846" lon="0.89342">
        <ele>203.2</ele>
        <time>2022-08-14T17:24:48Z</time>
      </trkpt>
      <trkpt lat="44.68466" lon="0.89339">
        <ele>203.3</ele>
        <time>2022-08-14T17:24:50Z</time>
      </trkpt>
      <trkpt lat="44.68472" lon="0.89336">
        <ele>203.4</ele>
        <time>2022-08-14T17:24:52Z</time>
      </trkpt>
      <trkpt lat="44.68478" lon="0.89332">
        <ele>203.5</ele>
        <time>2022-08-14T17:24:54Z</time>
      </trkpt>
      <trkpt lat="44.68484" lon="0.89329">
        <ele>203.6</ele>
        <time>2022-08-14T17:24:56Z</time>
      </trkpt>
      <trkpt lat="44.68489" lon="0.89325">
        <ele>203.6</ele>
        <time>2022-08-14T17:24:58Z</time>
      </trkpt>
      <trkpt lat="44.68495" lon="0.8932">
        <ele>203.7</ele>
        <time>2022-08-14T17:25:00Z</time>
      </trkpt>
      <trkpt lat="44.685" lon="0.89315">
        <ele>203.8</ele>
        <time>2022-08-14T17:25:02Z</time>
      </trkpt>
      <trkpt lat="44.68506" lon="0.89311">
        <ele>203.9</ele>
        <time>2022-08-14T17:25:04Z</time>
      </trkpt>
      <trkpt lat="44.68511" lon="0.89305">
        <ele>204</ele>
        <time>2022-08-14T17:25:06Z</time>
      </trkpt>
      <trkpt lat="44.68516" lon="0.89299">
        <ele>204</ele>
        <time>2022-08-14T17:25:08Z</time>
      </trkpt>
      <trkpt lat="44.68522" lon="0.89293">
        <ele>204</ele>
        <time>2022-08-14T17:25:10Z</time>
      </trkpt>
      <trkpt lat="44.68527" lon="0.89286">
        <ele>204</ele>
        <time>2022-08-14T17:25:12Z</time>
      </trkpt>
      <trkpt lat="44.68532" lon="0.8928">
        <ele>204</ele>
        <time>2022-08-14T17:25:14Z</time>
      </trkpt>
      <trkpt lat="44.68537" lon="0.89272">
        <ele>203.9</ele>
        <time>2022-08-14T17:25:16Z</time>
      </trkpt>
      <trkpt lat="44.68542" lon="0.89265">
        <ele>203.9</ele>
        <time>2022-08-14T17:25:18Z</time>
      </trkpt>
      <trkpt lat="44.68547" lon="0.89258">
        <ele>203.8</ele>
        <time>2022-08-14T17:25:20Z</time>
      </trkpt>
      <trkpt lat="44.68552" lon="0.8925">
        <ele>203.6</ele>
        <time>2022-08-14T17:25:22Z</time>
      </trkpt>
      <trkpt lat="44.68556" lon="0.89242">
        <ele>203.5</ele>
        <time>2022-08-14T17:25:24Z</time>
      </trkpt>
      <trkpt lat="44.68561" lon="0.89233">
        <ele>203.5</ele>
        <time>2022-08-14T17:25:26Z</time>
      </trkpt>
      <trkpt lat="44.68565" lon="0.89224">
        <ele>203.4</ele>
        <time>2022-08-14T17:25:28Z</time>
      </trkpt>
      <trkpt lat="44.68569" lon="0.89215">
        <ele>203.3</ele>
        <time>2022-08-14T17:25:30Z</time>
      </trkpt>
      <trkpt lat="44.68573" lon="0.89206">
        <ele>203.3</ele>
        <time>2022-08-14T17:25:32Z</time>
      </trkpt>
      <trkpt lat="44.68577" lon="0.89197">
        <ele>203.2</ele>
        <time>2022-08-14T17:25:34Z</time>
      </trkpt>
      <trkpt lat="44.68581" lon="0.89189">
        <ele>203.2</ele>
        <time>2022-08-14T17:25:36Z</time>
      </trkpt>
      <trkpt lat="44.68585" lon="0.89179">
        <ele>203.2</ele>
        <time>2022-08-14T17:25:38Z</time>
      </trkpt>
      <trkpt lat="44.68589" lon="0.8917">
        <ele>203</ele>
        <time>2022-08-14T17:25:40Z</time>
      </trkpt>
      <trkpt lat="44.68593" lon="0.8916">
        <ele>202.8</ele>
        <time>2022-08-14T17:25:42Z</time>
      </trkpt>
      <trkpt lat="44.68596" lon="0.89151">
        <ele>202.5</ele>
        <time>2022-08-14T17:25:44Z</time>
      </trkpt>
      <trkpt lat="44.686" lon="0.89142">
        <ele>202.3</ele>
        <time>2022-08-14T17:25:46Z</time>
      </trkpt>
      <trkpt lat="44.68604" lon="0.89133">
        <ele>202.1</ele>
        <time>2022-08-14T17:25:48Z</time>
      </trkpt>
      <trkpt lat="44.68608" lon="0.89124">
        <ele>201.9</ele>
        <time>2022-08-14T17:25:50Z</time>
      </trkpt>
      <trkpt lat="44.68612" lon="0.89115">
        <ele>201.8</ele>
        <time>2022-08-14T17:25:52Z</time>
      </trkpt>
      <trkpt lat="44.68616" lon="0.89105">
        <ele>201.7</ele>
        <time>2022-08-14T17:25:54Z</time>
      </trkpt>
      <trkpt lat="44.6862" lon="0.89095">
        <ele>201.6</ele>
        <time>2022-08-14T17:25:56Z</time>
      </trkpt>
      <trkpt lat="44.68623" lon="0.89087">
        <ele>201.5</ele>
        <time>2022-08-14T17:25:58Z</time>
      </trkpt>
      <trkpt lat="44.68627" lon="0.89079">
        <ele>201.6</ele>
        <time>2022-08-14T17:26:00Z</time>
      </trkpt>
      <trkpt lat="44.6863" lon="0.89072">
        <ele>201.8</ele>
        <time>2022-08-14T17:26:02Z</time>
      </trkpt>
      <trkpt lat="44.68632" lon="0.89065">
        <ele>202</ele>
        <time>2022-08-14T17:26:04Z</time>
      </trkpt>
      <trkpt lat="44.68635" lon="0.89059">
        <ele>202.1</ele>
        <time>2022-08-14T17:26:06Z</time>
      </trkpt>
      <trkpt lat="44.68637" lon="0.89054">
        <ele>202.3</ele>
        <time>2022-08-14T17:26:08Z</time>
      </trkpt>
      <trkpt lat="44.68639" lon="0.89051">
        <ele>202.4</ele>
        <time>2022-08-14T17:26:10Z</time>
      </trkpt>
      <trkpt lat="44.68639" lon="0.89052">
        <ele>202.4</ele>
        <time>2022-08-14T17:26:12Z</time>
      </trkpt>
      <trkpt lat="44.68639" lon="0.89052">
        <ele>202.4</ele>
        <time>2022-08-14T17:26:14Z</time>
      </trkpt>
      <trkpt lat="44.68639" lon="0.89052">
        <ele>202.4</ele>
        <time>2022-08-14T17:26:16Z</time>
      </trkpt>
      <trkpt lat="44.68639" lon="0.89052">
        <ele>202.4</ele>
        <time>2022-08-14T17:26:18Z</time>
      </trkpt>
      <trkpt lat="44.68639" lon="0.89051">
        <ele>202.4</ele>
        <time>2022-08-14T17:26:24Z</time>
      </trkpt>
      <trkpt lat="44.68638" lon="0.8905">
        <ele>202.4</ele>
        <time>2022-08-14T17:26:28Z</time>
      </trkpt>
      <trkpt lat="44.68638" lon="0.89049">
        <ele>202.4</ele>
        <time>2022-08-14T17:26:30Z</time>
      </trkpt>
      <trkpt lat="44.68638" lon="0.89049">
        <ele>202.4</ele>
        <time>2022-08-14T17:26:32Z</time>
      </trkpt>
      <trkpt lat="44.68637" lon="0.89045">
        <ele>202.4</ele>
        <time>2022-08-14T17:26:34Z</time>
      </trkpt>
      <trkpt lat="44.68634" lon="0.89046">
        <ele>202.3</ele>
        <time>2022-08-14T17:26:36Z</time>
      </trkpt>
      <trkpt lat="44.68631" lon="0.89051">
        <ele>202.1</ele>
        <time>2022-08-14T17:26:38Z</time>
      </trkpt>
      <trkpt lat="44.68627" lon="0.89053">
        <ele>201.9</ele>
        <time>2022-08-14T17:26:40Z</time>
      </trkpt>
      <trkpt lat="44.68626" lon="0.89057">
        <ele>201.8</ele>
        <time>2022-08-14T17:26:42Z</time>
      </trkpt>
      <trkpt lat="44.68627" lon="0.89059">
        <ele>201.9</ele>
        <time>2022-08-14T17:26:44Z</time>
      </trkpt>
      <trkpt lat="44.68627" lon="0.89058">
        <ele>201.9</ele>
        <time>2022-08-14T17:26:46Z</time>
      </trkpt>
      <trkpt lat="44.68627" lon="0.89058">
        <ele>201.9</ele>
        <time>2022-08-14T17:26:50Z</time>
      </trkpt>
      <trkpt lat="44.68624" lon="0.89078">
        <ele>201.5</ele>
        <time>2022-08-14T17:27:06Z</time>
      </trkpt>
      <trkpt lat="44.68621" lon="0.89086">
        <ele>201.4</ele>
        <time>2022-08-14T17:27:08Z</time>
      </trkpt>
      <trkpt lat="44.68617" lon="0.89094">
        <ele>201.5</ele>
        <time>2022-08-14T17:27:10Z</time>
      </trkpt>
      <trkpt lat="44.68613" lon="0.89104">
        <ele>201.5</ele>
        <time>2022-08-14T17:27:12Z</time>
      </trkpt>
      <trkpt lat="44.6861" lon="0.89113">
        <ele>201.7</ele>
        <time>2022-08-14T17:27:14Z</time>
      </trkpt>
      <trkpt lat="44.68606" lon="0.89123">
        <ele>201.9</ele>
        <time>2022-08-14T17:27:16Z</time>
      </trkpt>
      <trkpt lat="44.68602" lon="0.89132">
        <ele>202</ele>
        <time>2022-08-14T17:27:18Z</time>
      </trkpt>
      <trkpt lat="44.68597" lon="0.89142">
        <ele>202.3</ele>
        <time>2022-08-14T17:27:20Z</time>
      </trkpt>
      <trkpt lat="44.68594" lon="0.89151">
        <ele>202.5</ele>
        <time>2022-08-14T17:27:22Z</time>
      </trkpt>
      <trkpt lat="44.68591" lon="0.89161">
        <ele>202.8</ele>
        <time>2022-08-14T17:27:24Z</time>
      </trkpt>
      <trkpt lat="44.68587" lon="0.8917">
        <ele>203</ele>
        <time>2022-08-14T17:27:26Z</time>
      </trkpt>
      <trkpt lat="44.68583" lon="0.89179">
        <ele>203.1</ele>
        <time>2022-08-14T17:27:28Z</time>
      </trkpt>
      <trkpt lat="44.6858" lon="0.8919">
        <ele>203.2</ele>
        <time>2022-08-14T17:27:30Z</time>
      </trkpt>
      <trkpt lat="44.68576" lon="0.89199">
        <ele>203.2</ele>
        <time>2022-08-14T17:27:32Z</time>
      </trkpt>
      <trkpt lat="44.68572" lon="0.89207">
        <ele>203.3</ele>
        <time>2022-08-14T17:27:34Z</time>
      </trkpt>
      <trkpt lat="44.68568" lon="0.89215">
        <ele>203.3</ele>
        <time>2022-08-14T17:27:36Z</time>
      </trkpt>
      <trkpt lat="44.68565" lon="0.89223">
        <ele>203.4</ele>
        <time>2022-08-14T17:27:38Z</time>
      </trkpt>
      <trkpt lat="44.68562" lon="0.89229">
        <ele>203.4</ele>
        <time>2022-08-14T17:27:40Z</time>
      </trkpt>
      <trkpt lat="44.68559" lon="0.89237">
        <ele>203.5</ele>
        <time>2022-08-14T17:27:42Z</time>
      </trkpt>
      <trkpt lat="44.68557" lon="0.89245">
        <ele>203.6</ele>
        <time>2022-08-14T17:27:44Z</time>
      </trkpt>
      <trkpt lat="44.6856" lon="0.89256">
        <ele>203.9</ele>
        <time>2022-08-14T17:27:46Z</time>
      </trkpt>
      <trkpt lat="44.68566" lon="0.89259">
        <ele>204.1</ele>
        <time>2022-08-14T17:27:48Z</time>
      </trkpt>
      <trkpt lat="44.68572" lon="0.89258">
        <ele>204.1</ele>
        <time>2022-08-14T17:27:50Z</time>
      </trkpt>
      <trkpt lat="44.68577" lon="0.89258">
        <ele>204.2</ele>
        <time>2022-08-14T17:27:52Z</time>
      </trkpt>
      <trkpt lat="44.68583" lon="0.89258">
        <ele>204.3</ele>
        <time>2022-08-14T17:27:54Z</time>
      </trkpt>
      <trkpt lat="44.68589" lon="0.89258">
        <ele>204.4</ele>
        <time>2022-08-14T17:27:56Z</time>
      </trkpt>
      <trkpt lat="44.68594" lon="0.89258">
        <ele>204.5</ele>
        <time>2022-08-14T17:27:58Z</time>
      </trkpt>
      <trkpt lat="44.68601" lon="0.89257">
        <ele>204.7</ele>
        <time>2022-08-14T17:28:00Z</time>
      </trkpt>
      <trkpt lat="44.68607" lon="0.89258">
        <ele>204.8</ele>
        <time>2022-08-14T17:28:02Z</time>
      </trkpt>
      <trkpt lat="44.68613" lon="0.89258">
        <ele>205</ele>
        <time>2022-08-14T17:28:04Z</time>
      </trkpt>
      <trkpt lat="44.68619" lon="0.89259">
        <ele>205.1</ele>
        <time>2022-08-14T17:28:06Z</time>
      </trkpt>
      <trkpt lat="44.68625" lon="0.89258">
        <ele>205.2</ele>
        <time>2022-08-14T17:28:08Z</time>
      </trkpt>
      <trkpt lat="44.68632" lon="0.89258">
        <ele>205.4</ele>
        <time>2022-08-14T17:28:10Z</time>
      </trkpt>
      <trkpt lat="44.68638" lon="0.89259">
        <ele>205.6</ele>
        <time>2022-08-14T17:28:12Z</time>
      </trkpt>
      <trkpt lat="44.68644" lon="0.89259">
        <ele>205.7</ele>
        <time>2022-08-14T17:28:14Z</time>
      </trkpt>
      <trkpt lat="44.6865" lon="0.8926">
        <ele>205.9</ele>
        <time>2022-08-14T17:28:16Z</time>
      </trkpt>
      <trkpt lat="44.68656" lon="0.89259">
        <ele>206</ele>
        <time>2022-08-14T17:28:18Z</time>
      </trkpt>
      <trkpt lat="44.68663" lon="0.89259">
        <ele>206.1</ele>
        <time>2022-08-14T17:28:20Z</time>
      </trkpt>
      <trkpt lat="44.68669" lon="0.8926">
        <ele>206.2</ele>
        <time>2022-08-14T17:28:22Z</time>
      </trkpt>
      <trkpt lat="44.68675" lon="0.8926">
        <ele>206.1</ele>
        <time>2022-08-14T17:28:24Z</time>
      </trkpt>
      <trkpt lat="44.68681" lon="0.89261">
        <ele>206.1</ele>
        <time>2022-08-14T17:28:26Z</time>
      </trkpt>
      <trkpt lat="44.68688" lon="0.89262">
        <ele>206</ele>
        <time>2022-08-14T17:28:28Z</time>
      </trkpt>
      <trkpt lat="44.68695" lon="0.89264">
        <ele>205.9</ele>
        <time>2022-08-14T17:28:30Z</time>
      </trkpt>
      <trkpt lat="44.68702" lon="0.89265">
        <ele>205.9</ele>
        <time>2022-08-14T17:28:32Z</time>
      </trkpt>
      <trkpt lat="44.68709" lon="0.89266">
        <ele>205.8</ele>
        <time>2022-08-14T17:28:34Z</time>
      </trkpt>
      <trkpt lat="44.68716" lon="0.89268">
        <ele>205.7</ele>
        <time>2022-08-14T17:28:36Z</time>
      </trkpt>
      <trkpt lat="44.68723" lon="0.8927">
        <ele>205.6</ele>
        <time>2022-08-14T17:28:38Z</time>
      </trkpt>
      <trkpt lat="44.68731" lon="0.89272">
        <ele>205.6</ele>
        <time>2022-08-14T17:28:40Z</time>
      </trkpt>
      <trkpt lat="44.68738" lon="0.89273">
        <ele>205.5</ele>
        <time>2022-08-14T17:28:42Z</time>
      </trkpt>
      <trkpt lat="44.68746" lon="0.89275">
        <ele>205.4</ele>
        <time>2022-08-14T17:28:44Z</time>
      </trkpt>
      <trkpt lat="44.68753" lon="0.89278">
        <ele>205.3</ele>
        <time>2022-08-14T17:28:46Z</time>
      </trkpt>
      <trkpt lat="44.68761" lon="0.89279">
        <ele>205.3</ele>
        <time>2022-08-14T17:28:48Z</time>
      </trkpt>
      <trkpt lat="44.68768" lon="0.89281">
        <ele>205.2</ele>
        <time>2022-08-14T17:28:50Z</time>
      </trkpt>
      <trkpt lat="44.68774" lon="0.89283">
        <ele>205.2</ele>
        <time>2022-08-14T17:28:52Z</time>
      </trkpt>
      <trkpt lat="44.68782" lon="0.89285">
        <ele>205.2</ele>
        <time>2022-08-14T17:28:54Z</time>
      </trkpt>
      <trkpt lat="44.68789" lon="0.89286">
        <ele>205.2</ele>
        <time>2022-08-14T17:28:56Z</time>
      </trkpt>
      <trkpt lat="44.68796" lon="0.89288">
        <ele>205.2</ele>
        <time>2022-08-14T17:28:58Z</time>
      </trkpt>
      <trkpt lat="44.68803" lon="0.8929">
        <ele>205.2</ele>
        <time>2022-08-14T17:29:00Z</time>
      </trkpt>
      <trkpt lat="44.6881" lon="0.89292">
        <ele>205.2</ele>
        <time>2022-08-14T17:29:02Z</time>
      </trkpt>
      <trkpt lat="44.68817" lon="0.89294">
        <ele>205.1</ele>
        <time>2022-08-14T17:29:04Z</time>
      </trkpt>
      <trkpt lat="44.68824" lon="0.89295">
        <ele>205.1</ele>
        <time>2022-08-14T17:29:06Z</time>
      </trkpt>
      <trkpt lat="44.68831" lon="0.89297">
        <ele>205.1</ele>
        <time>2022-08-14T17:29:08Z</time>
      </trkpt>
      <trkpt lat="44.68838" lon="0.89298">
        <ele>205.2</ele>
        <time>2022-08-14T17:29:10Z</time>
      </trkpt>
      <trkpt lat="44.68845" lon="0.893">
        <ele>205.4</ele>
        <time>2022-08-14T17:29:12Z</time>
      </trkpt>
      <trkpt lat="44.68852" lon="0.89302">
        <ele>205.6</ele>
        <time>2022-08-14T17:29:14Z</time>
      </trkpt>
      <trkpt lat="44.68858" lon="0.89303">
        <ele>205.8</ele>
        <time>2022-08-14T17:29:16Z</time>
      </trkpt>
      <trkpt lat="44.68866" lon="0.89305">
        <ele>206</ele>
        <time>2022-08-14T17:29:18Z</time>
      </trkpt>
      <trkpt lat="44.68872" lon="0.89307">
        <ele>206.1</ele>
        <time>2022-08-14T17:29:20Z</time>
      </trkpt>
      <trkpt lat="44.68879" lon="0.89308">
        <ele>206.3</ele>
        <time>2022-08-14T17:29:22Z</time>
      </trkpt>
      <trkpt lat="44.68886" lon="0.89311">
        <ele>206.6</ele>
        <time>2022-08-14T17:29:24Z</time>
      </trkpt>
      <trkpt lat="44.68893" lon="0.89313">
        <ele>206.8</ele>
        <time>2022-08-14T17:29:26Z</time>
      </trkpt>
      <trkpt lat="44.68899" lon="0.89316">
        <ele>207</ele>
        <time>2022-08-14T17:29:28Z</time>
      </trkpt>
      <trkpt lat="44.68906" lon="0.8932">
        <ele>207.3</ele>
        <time>2022-08-14T17:29:30Z</time>
      </trkpt>
      <trkpt lat="44.68914" lon="0.89323">
        <ele>207.6</ele>
        <time>2022-08-14T17:29:32Z</time>
      </trkpt>
      <trkpt lat="44.68921" lon="0.89327">
        <ele>207.6</ele>
        <time>2022-08-14T17:29:34Z</time>
      </trkpt>
      <trkpt lat="44.68929" lon="0.89331">
        <ele>207.5</ele>
        <time>2022-08-14T17:29:36Z</time>
      </trkpt>
      <trkpt lat="44.68938" lon="0.89335">
        <ele>207.3</ele>
        <time>2022-08-14T17:29:38Z</time>
      </trkpt>
      <trkpt lat="44.68946" lon="0.89339">
        <ele>207</ele>
        <time>2022-08-14T17:29:40Z</time>
      </trkpt>
      <trkpt lat="44.68955" lon="0.89343">
        <ele>206.8</ele>
        <time>2022-08-14T17:29:42Z</time>
      </trkpt>
      <trkpt lat="44.68963" lon="0.89347">
        <ele>206.6</ele>
        <time>2022-08-14T17:29:44Z</time>
      </trkpt>
      <trkpt lat="44.68971" lon="0.89351">
        <ele>206.3</ele>
        <time>2022-08-14T17:29:46Z</time>
      </trkpt>
      <trkpt lat="44.6898" lon="0.89355">
        <ele>206</ele>
        <time>2022-08-14T17:29:48Z</time>
      </trkpt>
      <trkpt lat="44.68988" lon="0.89359">
        <ele>205.8</ele>
        <time>2022-08-14T17:29:50Z</time>
      </trkpt>
      <trkpt lat="44.68996" lon="0.89363">
        <ele>205.5</ele>
        <time>2022-08-14T17:29:52Z</time>
      </trkpt>
      <trkpt lat="44.69004" lon="0.89367">
        <ele>205.4</ele>
        <time>2022-08-14T17:29:54Z</time>
      </trkpt>
      <trkpt lat="44.69013" lon="0.8937">
        <ele>205.5</ele>
        <time>2022-08-14T17:29:56Z</time>
      </trkpt>
      <trkpt lat="44.69021" lon="0.89374">
        <ele>205.6</ele>
        <time>2022-08-14T17:29:58Z</time>
      </trkpt>
      <trkpt lat="44.69029" lon="0.89378">
        <ele>205.7</ele>
        <time>2022-08-14T17:30:00Z</time>
      </trkpt>
      <trkpt lat="44.69037" lon="0.89382">
        <ele>205.8</ele>
        <time>2022-08-14T17:30:02Z</time>
      </trkpt>
      <trkpt lat="44.69045" lon="0.89386">
        <ele>206</ele>
        <time>2022-08-14T17:30:04Z</time>
      </trkpt>
      <trkpt lat="44.69053" lon="0.8939">
        <ele>206.1</ele>
        <time>2022-08-14T17:30:06Z</time>
      </trkpt>
      <trkpt lat="44.69062" lon="0.89394">
        <ele>206.3</ele>
        <time>2022-08-14T17:30:08Z</time>
      </trkpt>
      <trkpt lat="44.69071" lon="0.89398">
        <ele>206.4</ele>
        <time>2022-08-14T17:30:10Z</time>
      </trkpt>
      <trkpt lat="44.6908" lon="0.89403">
        <ele>206.6</ele>
        <time>2022-08-14T17:30:12Z</time>
      </trkpt>
      <trkpt lat="44.69089" lon="0.89407">
        <ele>206.7</ele>
        <time>2022-08-14T17:30:14Z</time>
      </trkpt>
      <trkpt lat="44.69099" lon="0.89412">
        <ele>206.5</ele>
        <time>2022-08-14T17:30:16Z</time>
      </trkpt>
      <trkpt lat="44.69108" lon="0.89416">
        <ele>206.4</ele>
        <time>2022-08-14T17:30:18Z</time>
      </trkpt>
      <trkpt lat="44.69119" lon="0.89422">
        <ele>206.1</ele>
        <time>2022-08-14T17:30:20Z</time>
      </trkpt>
      <trkpt lat="44.69129" lon="0.89426">
        <ele>205.9</ele>
        <time>2022-08-14T17:30:22Z</time>
      </trkpt>
      <trkpt lat="44.6914" lon="0.89432">
        <ele>205.6</ele>
        <time>2022-08-14T17:30:24Z</time>
      </trkpt>
      <trkpt lat="44.69152" lon="0.89437">
        <ele>205.4</ele>
        <time>2022-08-14T17:30:26Z</time>
      </trkpt>
      <trkpt lat="44.69163" lon="0.89442">
        <ele>205.1</ele>
        <time>2022-08-14T17:30:28Z</time>
      </trkpt>
      <trkpt lat="44.69174" lon="0.89447">
        <ele>204.9</ele>
        <time>2022-08-14T17:30:30Z</time>
      </trkpt>
      <trkpt lat="44.69185" lon="0.89452">
        <ele>204.7</ele>
        <time>2022-08-14T17:30:32Z</time>
      </trkpt>
      <trkpt lat="44.69196" lon="0.89457">
        <ele>204.5</ele>
        <time>2022-08-14T17:30:34Z</time>
      </trkpt>
      <trkpt lat="44.69207" lon="0.89462">
        <ele>204.3</ele>
        <time>2022-08-14T17:30:36Z</time>
      </trkpt>
      <trkpt lat="44.69218" lon="0.89468">
        <ele>204.2</ele>
        <time>2022-08-14T17:30:38Z</time>
      </trkpt>
      <trkpt lat="44.69228" lon="0.89473">
        <ele>204</ele>
        <time>2022-08-14T17:30:40Z</time>
      </trkpt>
      <trkpt lat="44.69239" lon="0.89478">
        <ele>203.9</ele>
        <time>2022-08-14T17:30:42Z</time>
      </trkpt>
      <trkpt lat="44.69251" lon="0.89483">
        <ele>203.8</ele>
        <time>2022-08-14T17:30:44Z</time>
      </trkpt>
      <trkpt lat="44.69261" lon="0.89489">
        <ele>203.7</ele>
        <time>2022-08-14T17:30:46Z</time>
      </trkpt>
      <trkpt lat="44.69272" lon="0.89494">
        <ele>203.6</ele>
        <time>2022-08-14T17:30:48Z</time>
      </trkpt>
      <trkpt lat="44.69283" lon="0.89499">
        <ele>203.6</ele>
        <time>2022-08-14T17:30:50Z</time>
      </trkpt>
      <trkpt lat="44.69294" lon="0.89504">
        <ele>203.6</ele>
        <time>2022-08-14T17:30:52Z</time>
      </trkpt>
      <trkpt lat="44.69304" lon="0.89509">
        <ele>203.5</ele>
        <time>2022-08-14T17:30:54Z</time>
      </trkpt>
      <trkpt lat="44.69315" lon="0.89514">
        <ele>203.5</ele>
        <time>2022-08-14T17:30:56Z</time>
      </trkpt>
      <trkpt lat="44.69326" lon="0.89519">
        <ele>203.5</ele>
        <time>2022-08-14T17:30:58Z</time>
      </trkpt>
      <trkpt lat="44.69336" lon="0.89524">
        <ele>203.6</ele>
        <time>2022-08-14T17:31:00Z</time>
      </trkpt>
      <trkpt lat="44.69347" lon="0.89528">
        <ele>203.7</ele>
        <time>2022-08-14T17:31:02Z</time>
      </trkpt>
      <trkpt lat="44.69357" lon="0.89531">
        <ele>203.9</ele>
        <time>2022-08-14T17:31:04Z</time>
      </trkpt>
      <trkpt lat="44.69368" lon="0.89534">
        <ele>204</ele>
        <time>2022-08-14T17:31:06Z</time>
      </trkpt>
      <trkpt lat="44.69378" lon="0.89537">
        <ele>204.1</ele>
        <time>2022-08-14T17:31:08Z</time>
      </trkpt>
      <trkpt lat="44.69388" lon="0.89539">
        <ele>204.3</ele>
        <time>2022-08-14T17:31:10Z</time>
      </trkpt>
      <trkpt lat="44.69398" lon="0.89541">
        <ele>204.4</ele>
        <time>2022-08-14T17:31:12Z</time>
      </trkpt>
      <trkpt lat="44.69408" lon="0.89544">
        <ele>204.5</ele>
        <time>2022-08-14T17:31:14Z</time>
      </trkpt>
      <trkpt lat="44.69418" lon="0.89546">
        <ele>204.6</ele>
        <time>2022-08-14T17:31:16Z</time>
      </trkpt>
      <trkpt lat="44.69429" lon="0.89548">
        <ele>204.6</ele>
        <time>2022-08-14T17:31:18Z</time>
      </trkpt>
      <trkpt lat="44.69439" lon="0.8955">
        <ele>204.5</ele>
        <time>2022-08-14T17:31:20Z</time>
      </trkpt>
      <trkpt lat="44.69448" lon="0.89552">
        <ele>204.5</ele>
        <time>2022-08-14T17:31:22Z</time>
      </trkpt>
      <trkpt lat="44.69458" lon="0.89554">
        <ele>204.4</ele>
        <time>2022-08-14T17:31:24Z</time>
      </trkpt>
      <trkpt lat="44.69467" lon="0.89556">
        <ele>204.4</ele>
        <time>2022-08-14T17:31:26Z</time>
      </trkpt>
      <trkpt lat="44.69477" lon="0.89558">
        <ele>204.4</ele>
        <time>2022-08-14T17:31:28Z</time>
      </trkpt>
      <trkpt lat="44.69486" lon="0.8956">
        <ele>204.3</ele>
        <time>2022-08-14T17:31:30Z</time>
      </trkpt>
      <trkpt lat="44.69495" lon="0.89562">
        <ele>204.3</ele>
        <time>2022-08-14T17:31:32Z</time>
      </trkpt>
      <trkpt lat="44.69504" lon="0.89563">
        <ele>204.4</ele>
        <time>2022-08-14T17:31:34Z</time>
      </trkpt>
      <trkpt lat="44.69513" lon="0.89565">
        <ele>204.7</ele>
        <time>2022-08-14T17:31:36Z</time>
      </trkpt>
      <trkpt lat="44.69522" lon="0.89567">
        <ele>205</ele>
        <time>2022-08-14T17:31:38Z</time>
      </trkpt>
      <trkpt lat="44.69531" lon="0.8957">
        <ele>205.4</ele>
        <time>2022-08-14T17:31:40Z</time>
      </trkpt>
      <trkpt lat="44.69539" lon="0.89572">
        <ele>205.7</ele>
        <time>2022-08-14T17:31:42Z</time>
      </trkpt>
      <trkpt lat="44.69548" lon="0.89574">
        <ele>205.9</ele>
        <time>2022-08-14T17:31:44Z</time>
      </trkpt>
      <trkpt lat="44.69557" lon="0.89575">
        <ele>206.2</ele>
        <time>2022-08-14T17:31:46Z</time>
      </trkpt>
      <trkpt lat="44.69565" lon="0.89577">
        <ele>206.5</ele>
        <time>2022-08-14T17:31:48Z</time>
      </trkpt>
      <trkpt lat="44.69574" lon="0.89579">
        <ele>206.7</ele>
        <time>2022-08-14T17:31:50Z</time>
      </trkpt>
      <trkpt lat="44.69582" lon="0.8958">
        <ele>206.9</ele>
        <time>2022-08-14T17:31:52Z</time>
      </trkpt>
      <trkpt lat="44.6959" lon="0.89581">
        <ele>207</ele>
        <time>2022-08-14T17:31:54Z</time>
      </trkpt>
      <trkpt lat="44.69598" lon="0.89583">
        <ele>207.2</ele>
        <time>2022-08-14T17:31:56Z</time>
      </trkpt>
      <trkpt lat="44.69606" lon="0.89584">
        <ele>207.3</ele>
        <time>2022-08-14T17:31:58Z</time>
      </trkpt>
      <trkpt lat="44.69613" lon="0.89586">
        <ele>207.5</ele>
        <time>2022-08-14T17:32:00Z</time>
      </trkpt>
      <trkpt lat="44.69621" lon="0.89587">
        <ele>207.6</ele>
        <time>2022-08-14T17:32:02Z</time>
      </trkpt>
      <trkpt lat="44.69628" lon="0.89588">
        <ele>207.7</ele>
        <time>2022-08-14T17:32:04Z</time>
      </trkpt>
      <trkpt lat="44.69635" lon="0.89589">
        <ele>207.9</ele>
        <time>2022-08-14T17:32:06Z</time>
      </trkpt>
      <trkpt lat="44.69642" lon="0.89591">
        <ele>208.1</ele>
        <time>2022-08-14T17:32:08Z</time>
      </trkpt>
      <trkpt lat="44.69648" lon="0.89592">
        <ele>208.2</ele>
        <time>2022-08-14T17:32:10Z</time>
      </trkpt>
      <trkpt lat="44.69655" lon="0.89593">
        <ele>208.3</ele>
        <time>2022-08-14T17:32:12Z</time>
      </trkpt>
      <trkpt lat="44.69662" lon="0.89595">
        <ele>208.5</ele>
        <time>2022-08-14T17:32:14Z</time>
      </trkpt>
      <trkpt lat="44.69669" lon="0.89596">
        <ele>208.8</ele>
        <time>2022-08-14T17:32:16Z</time>
      </trkpt>
      <trkpt lat="44.69675" lon="0.89598">
        <ele>209.3</ele>
        <time>2022-08-14T17:32:18Z</time>
      </trkpt>
      <trkpt lat="44.69681" lon="0.89599">
        <ele>209.8</ele>
        <time>2022-08-14T17:32:20Z</time>
      </trkpt>
      <trkpt lat="44.69687" lon="0.89601">
        <ele>210.3</ele>
        <time>2022-08-14T17:32:22Z</time>
      </trkpt>
      <trkpt lat="44.69693" lon="0.89602">
        <ele>210.8</ele>
        <time>2022-08-14T17:32:24Z</time>
      </trkpt>
      <trkpt lat="44.697" lon="0.89603">
        <ele>211.4</ele>
        <time>2022-08-14T17:32:26Z</time>
      </trkpt>
      <trkpt lat="44.69706" lon="0.89605">
        <ele>212</ele>
        <time>2022-08-14T17:32:28Z</time>
      </trkpt>
      <trkpt lat="44.69712" lon="0.89605">
        <ele>212.4</ele>
        <time>2022-08-14T17:32:30Z</time>
      </trkpt>
      <trkpt lat="44.69717" lon="0.89606">
        <ele>212.9</ele>
        <time>2022-08-14T17:32:32Z</time>
      </trkpt>
      <trkpt lat="44.69722" lon="0.89608">
        <ele>213.4</ele>
        <time>2022-08-14T17:32:34Z</time>
      </trkpt>
      <trkpt lat="44.69728" lon="0.8961">
        <ele>214</ele>
        <time>2022-08-14T17:32:36Z</time>
      </trkpt>
      <trkpt lat="44.69735" lon="0.89612">
        <ele>214.6</ele>
        <time>2022-08-14T17:32:38Z</time>
      </trkpt>
      <trkpt lat="44.6974" lon="0.89613">
        <ele>215</ele>
        <time>2022-08-14T17:32:40Z</time>
      </trkpt>
      <trkpt lat="44.69746" lon="0.89613">
        <ele>215.5</ele>
        <time>2022-08-14T17:32:42Z</time>
      </trkpt>
      <trkpt lat="44.69751" lon="0.89614">
        <ele>215.9</ele>
        <time>2022-08-14T17:32:44Z</time>
      </trkpt>
      <trkpt lat="44.69757" lon="0.89615">
        <ele>216.3</ele>
        <time>2022-08-14T17:32:46Z</time>
      </trkpt>
      <trkpt lat="44.69761" lon="0.89616">
        <ele>216.7</ele>
        <time>2022-08-14T17:32:48Z</time>
      </trkpt>
      <trkpt lat="44.69768" lon="0.89617">
        <ele>217.2</ele>
        <time>2022-08-14T17:32:50Z</time>
      </trkpt>
      <trkpt lat="44.69775" lon="0.89617">
        <ele>217.7</ele>
        <time>2022-08-14T17:32:52Z</time>
      </trkpt>
      <trkpt lat="44.69779" lon="0.89618">
        <ele>218</ele>
        <time>2022-08-14T17:32:54Z</time>
      </trkpt>
      <trkpt lat="44.69786" lon="0.8962">
        <ele>218.5</ele>
        <time>2022-08-14T17:32:56Z</time>
      </trkpt>
      <trkpt lat="44.69791" lon="0.89621">
        <ele>218.8</ele>
        <time>2022-08-14T17:32:58Z</time>
      </trkpt>
      <trkpt lat="44.69796" lon="0.89622">
        <ele>219.2</ele>
        <time>2022-08-14T17:33:00Z</time>
      </trkpt>
      <trkpt lat="44.69801" lon="0.89623">
        <ele>219.5</ele>
        <time>2022-08-14T17:33:02Z</time>
      </trkpt>
      <trkpt lat="44.69808" lon="0.89624">
        <ele>219.9</ele>
        <time>2022-08-14T17:33:04Z</time>
      </trkpt>
      <trkpt lat="44.69813" lon="0.89624">
        <ele>220.3</ele>
        <time>2022-08-14T17:33:06Z</time>
      </trkpt>
      <trkpt lat="44.69818" lon="0.89625">
        <ele>220.6</ele>
        <time>2022-08-14T17:33:08Z</time>
      </trkpt>
      <trkpt lat="44.69826" lon="0.89626">
        <ele>221.1</ele>
        <time>2022-08-14T17:33:10Z</time>
      </trkpt>
      <trkpt lat="44.69831" lon="0.89627">
        <ele>221.4</ele>
        <time>2022-08-14T17:33:12Z</time>
      </trkpt>
      <trkpt lat="44.69836" lon="0.89629">
        <ele>221.6</ele>
        <time>2022-08-14T17:33:14Z</time>
      </trkpt>
      <trkpt lat="44.69842" lon="0.8963">
        <ele>221.7</ele>
        <time>2022-08-14T17:33:16Z</time>
      </trkpt>
      <trkpt lat="44.69847" lon="0.89632">
        <ele>221.7</ele>
        <time>2022-08-14T17:33:18Z</time>
      </trkpt>
      <trkpt lat="44.69853" lon="0.89633">
        <ele>221.8</ele>
        <time>2022-08-14T17:33:20Z</time>
      </trkpt>
      <trkpt lat="44.69859" lon="0.89634">
        <ele>221.9</ele>
        <time>2022-08-14T17:33:22Z</time>
      </trkpt>
      <trkpt lat="44.69866" lon="0.89633">
        <ele>222</ele>
        <time>2022-08-14T17:33:24Z</time>
      </trkpt>
      <trkpt lat="44.69872" lon="0.89635">
        <ele>222.1</ele>
        <time>2022-08-14T17:33:26Z</time>
      </trkpt>
      <trkpt lat="44.69878" lon="0.89638">
        <ele>222.2</ele>
        <time>2022-08-14T17:33:28Z</time>
      </trkpt>
      <trkpt lat="44.69885" lon="0.89639">
        <ele>222.3</ele>
        <time>2022-08-14T17:33:30Z</time>
      </trkpt>
      <trkpt lat="44.69893" lon="0.89641">
        <ele>222.4</ele>
        <time>2022-08-14T17:33:32Z</time>
      </trkpt>
      <trkpt lat="44.69902" lon="0.89642">
        <ele>222.5</ele>
        <time>2022-08-14T17:33:34Z</time>
      </trkpt>
      <trkpt lat="44.69912" lon="0.89645">
        <ele>222.7</ele>
        <time>2022-08-14T17:33:36Z</time>
      </trkpt>
      <trkpt lat="44.6992" lon="0.89647">
        <ele>222.7</ele>
        <time>2022-08-14T17:33:38Z</time>
      </trkpt>
      <trkpt lat="44.69926" lon="0.89648">
        <ele>222.7</ele>
        <time>2022-08-14T17:33:40Z</time>
      </trkpt>
      <trkpt lat="44.69936" lon="0.8965">
        <ele>222.6</ele>
        <time>2022-08-14T17:33:42Z</time>
      </trkpt>
      <trkpt lat="44.69945" lon="0.89655">
        <ele>222.5</ele>
        <time>2022-08-14T17:33:44Z</time>
      </trkpt>
      <trkpt lat="44.69955" lon="0.89658">
        <ele>222.4</ele>
        <time>2022-08-14T17:33:46Z</time>
      </trkpt>
      <trkpt lat="44.69965" lon="0.89663">
        <ele>222.4</ele>
        <time>2022-08-14T17:33:48Z</time>
      </trkpt>
      <trkpt lat="44.69975" lon="0.89669">
        <ele>222.3</ele>
        <time>2022-08-14T17:33:50Z</time>
      </trkpt>
      <trkpt lat="44.69983" lon="0.89674">
        <ele>222.2</ele>
        <time>2022-08-14T17:33:52Z</time>
      </trkpt>
      <trkpt lat="44.6999" lon="0.89679">
        <ele>222.1</ele>
        <time>2022-08-14T17:33:54Z</time>
      </trkpt>
      <trkpt lat="44.70002" lon="0.89686">
        <ele>221.9</ele>
        <time>2022-08-14T17:33:56Z</time>
      </trkpt>
      <trkpt lat="44.70013" lon="0.89693">
        <ele>221.4</ele>
        <time>2022-08-14T17:33:58Z</time>
      </trkpt>
      <trkpt lat="44.70025" lon="0.89698">
        <ele>220.8</ele>
        <time>2022-08-14T17:34:00Z</time>
      </trkpt>
      <trkpt lat="44.70033" lon="0.89704">
        <ele>220.4</ele>
        <time>2022-08-14T17:34:02Z</time>
      </trkpt>
      <trkpt lat="44.70044" lon="0.89713">
        <ele>219.9</ele>
        <time>2022-08-14T17:34:04Z</time>
      </trkpt>
      <trkpt lat="44.70056" lon="0.89721">
        <ele>219.3</ele>
        <time>2022-08-14T17:34:06Z</time>
      </trkpt>
      <trkpt lat="44.70069" lon="0.89729">
        <ele>218.7</ele>
        <time>2022-08-14T17:34:08Z</time>
      </trkpt>
      <trkpt lat="44.70082" lon="0.89736">
        <ele>218.1</ele>
        <time>2022-08-14T17:34:10Z</time>
      </trkpt>
      <trkpt lat="44.70094" lon="0.89748">
        <ele>217.2</ele>
        <time>2022-08-14T17:34:12Z</time>
      </trkpt>
      <trkpt lat="44.70104" lon="0.89755">
        <ele>216.3</ele>
        <time>2022-08-14T17:34:14Z</time>
      </trkpt>
      <trkpt lat="44.70117" lon="0.89764">
        <ele>215.3</ele>
        <time>2022-08-14T17:34:16Z</time>
      </trkpt>
      <trkpt lat="44.70128" lon="0.89774">
        <ele>214.4</ele>
        <time>2022-08-14T17:34:18Z</time>
      </trkpt>
      <trkpt lat="44.70137" lon="0.89787">
        <ele>213.7</ele>
        <time>2022-08-14T17:34:20Z</time>
      </trkpt>
      <trkpt lat="44.70145" lon="0.89795">
        <ele>213.2</ele>
        <time>2022-08-14T17:34:22Z</time>
      </trkpt>
      <trkpt lat="44.7015" lon="0.89805">
        <ele>212.8</ele>
        <time>2022-08-14T17:34:24Z</time>
      </trkpt>
      <trkpt lat="44.70153" lon="0.89811">
        <ele>212.6</ele>
        <time>2022-08-14T17:34:26Z</time>
      </trkpt>
      <trkpt lat="44.70156" lon="0.89814">
        <ele>212.5</ele>
        <time>2022-08-14T17:34:28Z</time>
      </trkpt>
      <trkpt lat="44.70156" lon="0.89812">
        <ele>212.5</ele>
        <time>2022-08-14T17:34:30Z</time>
      </trkpt>
      <trkpt lat="44.70156" lon="0.89812">
        <ele>212.5</ele>
        <time>2022-08-14T17:34:32Z</time>
      </trkpt>
      <trkpt lat="44.70155" lon="0.89813">
        <ele>212.5</ele>
        <time>2022-08-14T17:34:34Z</time>
      </trkpt>
      <trkpt lat="44.70156" lon="0.89812">
        <ele>212.5</ele>
        <time>2022-08-14T17:34:36Z</time>
      </trkpt>
      <trkpt lat="44.70169" lon="0.89819">
        <ele>211.8</ele>
        <time>2022-08-14T17:35:04Z</time>
      </trkpt>
      <trkpt lat="44.70174" lon="0.89814">
        <ele>211.4</ele>
        <time>2022-08-14T17:35:06Z</time>
      </trkpt>
      <trkpt lat="44.70179" lon="0.89803">
        <ele>211</ele>
        <time>2022-08-14T17:35:08Z</time>
      </trkpt>
      <trkpt lat="44.70185" lon="0.89792">
        <ele>210.6</ele>
        <time>2022-08-14T17:35:10Z</time>
      </trkpt>
      <trkpt lat="44.7019" lon="0.8978">
        <ele>210.2</ele>
        <time>2022-08-14T17:35:12Z</time>
      </trkpt>
      <trkpt lat="44.70196" lon="0.8977">
        <ele>209.8</ele>
        <time>2022-08-14T17:35:14Z</time>
      </trkpt>
      <trkpt lat="44.70199" lon="0.89762">
        <ele>209.6</ele>
        <time>2022-08-14T17:35:16Z</time>
      </trkpt>
      <trkpt lat="44.70203" lon="0.89754">
        <ele>209.3</ele>
        <time>2022-08-14T17:35:18Z</time>
      </trkpt>
      <trkpt lat="44.70206" lon="0.89747">
        <ele>209.2</ele>
        <time>2022-08-14T17:35:20Z</time>
      </trkpt>
      <trkpt lat="44.70211" lon="0.8974">
        <ele>209</ele>
        <time>2022-08-14T17:35:22Z</time>
      </trkpt>
      <trkpt lat="44.70214" lon="0.89733">
        <ele>208.8</ele>
        <time>2022-08-14T17:35:24Z</time>
      </trkpt>
      <trkpt lat="44.70217" lon="0.89726">
        <ele>208.7</ele>
        <time>2022-08-14T17:35:26Z</time>
      </trkpt>
      <trkpt lat="44.7022" lon="0.89719">
        <ele>208.6</ele>
        <time>2022-08-14T17:35:28Z</time>
      </trkpt>
      <trkpt lat="44.70224" lon="0.89712">
        <ele>208.5</ele>
        <time>2022-08-14T17:35:30Z</time>
      </trkpt>
      <trkpt lat="44.70228" lon="0.89704">
        <ele>208.4</ele>
        <time>2022-08-14T17:35:32Z</time>
      </trkpt>
      <trkpt lat="44.70232" lon="0.89697">
        <ele>208.3</ele>
        <time>2022-08-14T17:35:34Z</time>
      </trkpt>
      <trkpt lat="44.70236" lon="0.89689">
        <ele>208.2</ele>
        <time>2022-08-14T17:35:36Z</time>
      </trkpt>
      <trkpt lat="44.7024" lon="0.89682">
        <ele>208.2</ele>
        <time>2022-08-14T17:35:38Z</time>
      </trkpt>
      <trkpt lat="44.70243" lon="0.89673">
        <ele>208.2</ele>
        <time>2022-08-14T17:35:40Z</time>
      </trkpt>
      <trkpt lat="44.70247" lon="0.89665">
        <ele>208.3</ele>
        <time>2022-08-14T17:35:42Z</time>
      </trkpt>
      <trkpt lat="44.70252" lon="0.89657">
        <ele>208.8</ele>
        <time>2022-08-14T17:35:44Z</time>
      </trkpt>
      <trkpt lat="44.70256" lon="0.89647">
        <ele>209.4</ele>
        <time>2022-08-14T17:35:46Z</time>
      </trkpt>
      <trkpt lat="44.70261" lon="0.89638">
        <ele>209.6</ele>
        <time>2022-08-14T17:35:48Z</time>
      </trkpt>
      <trkpt lat="44.70265" lon="0.89628">
        <ele>210</ele>
        <time>2022-08-14T17:35:50Z</time>
      </trkpt>
      <trkpt lat="44.70271" lon="0.89617">
        <ele>210.2</ele>
        <time>2022-08-14T17:35:52Z</time>
      </trkpt>
      <trkpt lat="44.70276" lon="0.89606">
        <ele>210.3</ele>
        <time>2022-08-14T17:35:54Z</time>
      </trkpt>
      <trkpt lat="44.70281" lon="0.89593">
        <ele>210.6</ele>
        <time>2022-08-14T17:35:56Z</time>
      </trkpt>
      <trkpt lat="44.70286" lon="0.89581">
        <ele>210.5</ele>
        <time>2022-08-14T17:35:58Z</time>
      </trkpt>
      <trkpt lat="44.70291" lon="0.89566">
        <ele>209.7</ele>
        <time>2022-08-14T17:36:00Z</time>
      </trkpt>
      <trkpt lat="44.70296" lon="0.89552">
        <ele>209.1</ele>
        <time>2022-08-14T17:36:02Z</time>
      </trkpt>
      <trkpt lat="44.70299" lon="0.89537">
        <ele>208.7</ele>
        <time>2022-08-14T17:36:04Z</time>
      </trkpt>
      <trkpt lat="44.70302" lon="0.89521">
        <ele>208.6</ele>
        <time>2022-08-14T17:36:06Z</time>
      </trkpt>
      <trkpt lat="44.70304" lon="0.89506">
        <ele>208.5</ele>
        <time>2022-08-14T17:36:08Z</time>
      </trkpt>
      <trkpt lat="44.70306" lon="0.89489">
        <ele>208.4</ele>
        <time>2022-08-14T17:36:10Z</time>
      </trkpt>
      <trkpt lat="44.70307" lon="0.89473">
        <ele>208.5</ele>
        <time>2022-08-14T17:36:12Z</time>
      </trkpt>
      <trkpt lat="44.70311" lon="0.89457">
        <ele>208.3</ele>
        <time>2022-08-14T17:36:14Z</time>
      </trkpt>
      <trkpt lat="44.70314" lon="0.89441">
        <ele>208.3</ele>
        <time>2022-08-14T17:36:16Z</time>
      </trkpt>
      <trkpt lat="44.70316" lon="0.89425">
        <ele>208.3</ele>
        <time>2022-08-14T17:36:18Z</time>
      </trkpt>
      <trkpt lat="44.70317" lon="0.89412">
        <ele>208.2</ele>
        <time>2022-08-14T17:36:20Z</time>
      </trkpt>
      <trkpt lat="44.70318" lon="0.89398">
        <ele>207.7</ele>
        <time>2022-08-14T17:36:22Z</time>
      </trkpt>
      <trkpt lat="44.70317" lon="0.89385">
        <ele>207.3</ele>
        <time>2022-08-14T17:36:24Z</time>
      </trkpt>
      <trkpt lat="44.70315" lon="0.89373">
        <ele>207.1</ele>
        <time>2022-08-14T17:36:26Z</time>
      </trkpt>
      <trkpt lat="44.70312" lon="0.89363">
        <ele>207</ele>
        <time>2022-08-14T17:36:28Z</time>
      </trkpt>
      <trkpt lat="44.70309" lon="0.89352">
        <ele>207</ele>
        <time>2022-08-14T17:36:30Z</time>
      </trkpt>
      <trkpt lat="44.70304" lon="0.89341">
        <ele>207.1</ele>
        <time>2022-08-14T17:36:32Z</time>
      </trkpt>
      <trkpt lat="44.70298" lon="0.89332">
        <ele>207.4</ele>
        <time>2022-08-14T17:36:34Z</time>
      </trkpt>
      <trkpt lat="44.70291" lon="0.89322">
        <ele>207.7</ele>
        <time>2022-08-14T17:36:36Z</time>
      </trkpt>
      <trkpt lat="44.70285" lon="0.89315">
        <ele>207.9</ele>
        <time>2022-08-14T17:36:38Z</time>
      </trkpt>
      <trkpt lat="44.70281" lon="0.89307">
        <ele>207.9</ele>
        <time>2022-08-14T17:36:40Z</time>
      </trkpt>
      <trkpt lat="44.7028" lon="0.89301">
        <ele>207.9</ele>
        <time>2022-08-14T17:36:42Z</time>
      </trkpt>
      <trkpt lat="44.70281" lon="0.89292">
        <ele>207.4</ele>
        <time>2022-08-14T17:36:44Z</time>
      </trkpt>
      <trkpt lat="44.70286" lon="0.89288">
        <ele>206.8</ele>
        <time>2022-08-14T17:36:46Z</time>
      </trkpt>
      <trkpt lat="44.70292" lon="0.89293">
        <ele>206.6</ele>
        <time>2022-08-14T17:36:48Z</time>
      </trkpt>
      <trkpt lat="44.70294" lon="0.89297">
        <ele>206.5</ele>
        <time>2022-08-14T17:36:50Z</time>
      </trkpt>
      <trkpt lat="44.70292" lon="0.89302">
        <ele>206.8</ele>
        <time>2022-08-14T17:36:52Z</time>
      </trkpt>
      <trkpt lat="44.70287" lon="0.89301">
        <ele>207.2</ele>
        <time>2022-08-14T17:36:54Z</time>
      </trkpt>
      <trkpt lat="44.70284" lon="0.89301">
        <ele>207.5</ele>
        <time>2022-08-14T17:36:56Z</time>
      </trkpt>
      <trkpt lat="44.70281" lon="0.89298">
        <ele>207.6</ele>
        <time>2022-08-14T17:36:58Z</time>
      </trkpt>
      <trkpt lat="44.70277" lon="0.89292">
        <ele>207.7</ele>
        <time>2022-08-14T17:37:00Z</time>
      </trkpt>
      <trkpt lat="44.70273" lon="0.89285">
        <ele>207.8</ele>
        <time>2022-08-14T17:37:02Z</time>
      </trkpt>
      <trkpt lat="44.70269" lon="0.8928">
        <ele>207.9</ele>
        <time>2022-08-14T17:37:04Z</time>
      </trkpt>
      <trkpt lat="44.70265" lon="0.89272">
        <ele>207.9</ele>
        <time>2022-08-14T17:37:06Z</time>
      </trkpt>
      <trkpt lat="44.7026" lon="0.89264">
        <ele>207.9</ele>
        <time>2022-08-14T17:37:08Z</time>
      </trkpt>
      <trkpt lat="44.70254" lon="0.89254">
        <ele>207.9</ele>
        <time>2022-08-14T17:37:10Z</time>
      </trkpt>
      <trkpt lat="44.70248" lon="0.89242">
        <ele>207.9</ele>
        <time>2022-08-14T17:37:12Z</time>
      </trkpt>
      <trkpt lat="44.70243" lon="0.8923">
        <ele>207.7</ele>
        <time>2022-08-14T17:37:14Z</time>
      </trkpt>
      <trkpt lat="44.70238" lon="0.89219">
        <ele>207.7</ele>
        <time>2022-08-14T17:37:16Z</time>
      </trkpt>
      <trkpt lat="44.70236" lon="0.89207">
        <ele>207.5</ele>
        <time>2022-08-14T17:37:18Z</time>
      </trkpt>
      <trkpt lat="44.70235" lon="0.89195">
        <ele>207.3</ele>
        <time>2022-08-14T17:37:20Z</time>
      </trkpt>
      <trkpt lat="44.70235" lon="0.89181">
        <ele>207</ele>
        <time>2022-08-14T17:37:22Z</time>
      </trkpt>
      <trkpt lat="44.70233" lon="0.8917">
        <ele>206.9</ele>
        <time>2022-08-14T17:37:24Z</time>
      </trkpt>
      <trkpt lat="44.70233" lon="0.89162">
        <ele>206.8</ele>
        <time>2022-08-14T17:37:26Z</time>
      </trkpt>
      <trkpt lat="44.70232" lon="0.89147">
        <ele>206.7</ele>
        <time>2022-08-14T17:37:28Z</time>
      </trkpt>
      <trkpt lat="44.70234" lon="0.89137">
        <ele>206.5</ele>
        <time>2022-08-14T17:37:30Z</time>
      </trkpt>
      <trkpt lat="44.70231" lon="0.89121">
        <ele>206.6</ele>
        <time>2022-08-14T17:37:32Z</time>
      </trkpt>
      <trkpt lat="44.70229" lon="0.89108">
        <ele>206.7</ele>
        <time>2022-08-14T17:37:34Z</time>
      </trkpt>
      <trkpt lat="44.70226" lon="0.89097">
        <ele>206.8</ele>
        <time>2022-08-14T17:37:36Z</time>
      </trkpt>
      <trkpt lat="44.70224" lon="0.89091">
        <ele>206.9</ele>
        <time>2022-08-14T17:37:38Z</time>
      </trkpt>
      <trkpt lat="44.70224" lon="0.89085">
        <ele>206.8</ele>
        <time>2022-08-14T17:37:40Z</time>
      </trkpt>
      <trkpt lat="44.70224" lon="0.89077">
        <ele>206.7</ele>
        <time>2022-08-14T17:37:42Z</time>
      </trkpt>
      <trkpt lat="44.70223" lon="0.8907">
        <ele>206.6</ele>
        <time>2022-08-14T17:37:44Z</time>
      </trkpt>
      <trkpt lat="44.70223" lon="0.89063">
        <ele>206.5</ele>
        <time>2022-08-14T17:37:46Z</time>
      </trkpt>
      <trkpt lat="44.70224" lon="0.89058">
        <ele>206.3</ele>
        <time>2022-08-14T17:37:48Z</time>
      </trkpt>
      <trkpt lat="44.70227" lon="0.89059">
        <ele>206.1</ele>
        <time>2022-08-14T17:37:50Z</time>
      </trkpt>
      <trkpt lat="44.70228" lon="0.89059">
        <ele>206.1</ele>
        <time>2022-08-14T17:37:52Z</time>
      </trkpt>
      <trkpt lat="44.70228" lon="0.89059">
        <ele>206</ele>
        <time>2022-08-14T17:37:54Z</time>
      </trkpt>
      <trkpt lat="44.70229" lon="0.89058">
        <ele>206</ele>
        <time>2022-08-14T17:37:56Z</time>
      </trkpt>
      <trkpt lat="44.70238" lon="0.89064">
        <ele>205.5</ele>
        <time>2022-08-14T17:38:10Z</time>
      </trkpt>
      <trkpt lat="44.70243" lon="0.8907">
        <ele>205.3</ele>
        <time>2022-08-14T17:38:12Z</time>
      </trkpt>
      <trkpt lat="44.70247" lon="0.89075">
        <ele>205.1</ele>
        <time>2022-08-14T17:38:14Z</time>
      </trkpt>
      <trkpt lat="44.70253" lon="0.89081">
        <ele>204.8</ele>
        <time>2022-08-14T17:38:16Z</time>
      </trkpt>
      <trkpt lat="44.70258" lon="0.89085">
        <ele>204.6</ele>
        <time>2022-08-14T17:38:18Z</time>
      </trkpt>
      <trkpt lat="44.70263" lon="0.8909">
        <ele>204.4</ele>
        <time>2022-08-14T17:38:20Z</time>
      </trkpt>
      <trkpt lat="44.70269" lon="0.89096">
        <ele>204.2</ele>
        <time>2022-08-14T17:38:22Z</time>
      </trkpt>
      <trkpt lat="44.70275" lon="0.89101">
        <ele>203.9</ele>
        <time>2022-08-14T17:38:24Z</time>
      </trkpt>
      <trkpt lat="44.70281" lon="0.89108">
        <ele>203.7</ele>
        <time>2022-08-14T17:38:26Z</time>
      </trkpt>
      <trkpt lat="44.70287" lon="0.89116">
        <ele>203.4</ele>
        <time>2022-08-14T17:38:28Z</time>
      </trkpt>
      <trkpt lat="44.70294" lon="0.89121">
        <ele>203.1</ele>
        <time>2022-08-14T17:38:30Z</time>
      </trkpt>
      <trkpt lat="44.703" lon="0.89127">
        <ele>202.8</ele>
        <time>2022-08-14T17:38:32Z</time>
      </trkpt>
      <trkpt lat="44.70308" lon="0.89133">
        <ele>202.4</ele>
        <time>2022-08-14T17:38:34Z</time>
      </trkpt>
      <trkpt lat="44.70314" lon="0.89138">
        <ele>202.1</ele>
        <time>2022-08-14T17:38:36Z</time>
      </trkpt>
      <trkpt lat="44.70322" lon="0.89144">
        <ele>201.6</ele>
        <time>2022-08-14T17:38:38Z</time>
      </trkpt>
      <trkpt lat="44.70328" lon="0.89149">
        <ele>201.3</ele>
        <time>2022-08-14T17:38:40Z</time>
      </trkpt>
      <trkpt lat="44.70336" lon="0.89154">
        <ele>201</ele>
        <time>2022-08-14T17:38:42Z</time>
      </trkpt>
      <trkpt lat="44.70342" lon="0.89158">
        <ele>201.1</ele>
        <time>2022-08-14T17:38:44Z</time>
      </trkpt>
      <trkpt lat="44.70349" lon="0.89163">
        <ele>201.2</ele>
        <time>2022-08-14T17:38:46Z</time>
      </trkpt>
      <trkpt lat="44.70354" lon="0.89167">
        <ele>201.3</ele>
        <time>2022-08-14T17:38:48Z</time>
      </trkpt>
      <trkpt lat="44.7036" lon="0.8917">
        <ele>201.4</ele>
        <time>2022-08-14T17:38:50Z</time>
      </trkpt>
      <trkpt lat="44.70366" lon="0.89174">
        <ele>201.4</ele>
        <time>2022-08-14T17:38:52Z</time>
      </trkpt>
      <trkpt lat="44.70372" lon="0.89178">
        <ele>201.5</ele>
        <time>2022-08-14T17:38:54Z</time>
      </trkpt>
      <trkpt lat="44.70378" lon="0.89181">
        <ele>201.6</ele>
        <time>2022-08-14T17:38:56Z</time>
      </trkpt>
      <trkpt lat="44.70384" lon="0.89183">
        <ele>201.7</ele>
        <time>2022-08-14T17:38:58Z</time>
      </trkpt>
      <trkpt lat="44.70389" lon="0.89186">
        <ele>201.7</ele>
        <time>2022-08-14T17:39:00Z</time>
      </trkpt>
      <trkpt lat="44.70394" lon="0.89187">
        <ele>201.8</ele>
        <time>2022-08-14T17:39:02Z</time>
      </trkpt>
      <trkpt lat="44.70398" lon="0.8919">
        <ele>201.8</ele>
        <time>2022-08-14T17:39:04Z</time>
      </trkpt>
      <trkpt lat="44.70402" lon="0.8919">
        <ele>201.9</ele>
        <time>2022-08-14T17:39:06Z</time>
      </trkpt>
      <trkpt lat="44.70407" lon="0.8919">
        <ele>201.9</ele>
        <time>2022-08-14T17:39:08Z</time>
      </trkpt>
      <trkpt lat="44.70411" lon="0.89192">
        <ele>202</ele>
        <time>2022-08-14T17:39:10Z</time>
      </trkpt>
      <trkpt lat="44.70415" lon="0.89193">
        <ele>202</ele>
        <time>2022-08-14T17:39:12Z</time>
      </trkpt>
      <trkpt lat="44.70418" lon="0.89193">
        <ele>202.1</ele>
        <time>2022-08-14T17:39:14Z</time>
      </trkpt>
      <trkpt lat="44.70422" lon="0.89197">
        <ele>202.2</ele>
        <time>2022-08-14T17:39:16Z</time>
      </trkpt>
      <trkpt lat="44.70423" lon="0.89198">
        <ele>202.3</ele>
        <time>2022-08-14T17:39:18Z</time>
      </trkpt>
      <trkpt lat="44.70426" lon="0.89201">
        <ele>202.4</ele>
        <time>2022-08-14T17:39:20Z</time>
      </trkpt>
      <trkpt lat="44.70428" lon="0.89202">
        <ele>202.5</ele>
        <time>2022-08-14T17:39:22Z</time>
      </trkpt>
      <trkpt lat="44.70431" lon="0.89203">
        <ele>202.7</ele>
        <time>2022-08-14T17:39:24Z</time>
      </trkpt>
      <trkpt lat="44.70434" lon="0.89204">
        <ele>202.8</ele>
        <time>2022-08-14T17:39:26Z</time>
      </trkpt>
      <trkpt lat="44.70437" lon="0.89206">
        <ele>203</ele>
        <time>2022-08-14T17:39:28Z</time>
      </trkpt>
      <trkpt lat="44.70439" lon="0.89211">
        <ele>203.1</ele>
        <time>2022-08-14T17:39:30Z</time>
      </trkpt>
      <trkpt lat="44.70444" lon="0.89216">
        <ele>203.4</ele>
        <time>2022-08-14T17:39:32Z</time>
      </trkpt>
      <trkpt lat="44.70448" lon="0.89219">
        <ele>203.6</ele>
        <time>2022-08-14T17:39:34Z</time>
      </trkpt>
      <trkpt lat="44.70452" lon="0.89222">
        <ele>203.8</ele>
        <time>2022-08-14T17:39:36Z</time>
      </trkpt>
      <trkpt lat="44.70457" lon="0.89226">
        <ele>204.1</ele>
        <time>2022-08-14T17:39:38Z</time>
      </trkpt>
      <trkpt lat="44.70459" lon="0.8923">
        <ele>204.3</ele>
        <time>2022-08-14T17:39:40Z</time>
      </trkpt>
      <trkpt lat="44.70463" lon="0.89236">
        <ele>204.6</ele>
        <time>2022-08-14T17:39:42Z</time>
      </trkpt>
      <trkpt lat="44.70469" lon="0.89239">
        <ele>205</ele>
        <time>2022-08-14T17:39:44Z</time>
      </trkpt>
      <trkpt lat="44.70474" lon="0.89244">
        <ele>205.3</ele>
        <time>2022-08-14T17:39:46Z</time>
      </trkpt>
      <trkpt lat="44.70476" lon="0.89247">
        <ele>205.5</ele>
        <time>2022-08-14T17:39:48Z</time>
      </trkpt>
      <trkpt lat="44.70482" lon="0.89253">
        <ele>205.9</ele>
        <time>2022-08-14T17:39:50Z</time>
      </trkpt>
      <trkpt lat="44.70485" lon="0.89256">
        <ele>206.1</ele>
        <time>2022-08-14T17:39:52Z</time>
      </trkpt>
      <trkpt lat="44.70491" lon="0.89259">
        <ele>206.5</ele>
        <time>2022-08-14T17:39:54Z</time>
      </trkpt>
      <trkpt lat="44.70495" lon="0.89263">
        <ele>206.7</ele>
        <time>2022-08-14T17:39:56Z</time>
      </trkpt>
      <trkpt lat="44.70499" lon="0.89267">
        <ele>206.9</ele>
        <time>2022-08-14T17:39:58Z</time>
      </trkpt>
      <trkpt lat="44.70505" lon="0.89273">
        <ele>207</ele>
        <time>2022-08-14T17:40:00Z</time>
      </trkpt>
      <trkpt lat="44.70507" lon="0.89276">
        <ele>207</ele>
        <time>2022-08-14T17:40:02Z</time>
      </trkpt>
      <trkpt lat="44.70511" lon="0.8928">
        <ele>207</ele>
        <time>2022-08-14T17:40:04Z</time>
      </trkpt>
      <trkpt lat="44.70514" lon="0.89285">
        <ele>207</ele>
        <time>2022-08-14T17:40:06Z</time>
      </trkpt>
      <trkpt lat="44.70517" lon="0.89287">
        <ele>207</ele>
        <time>2022-08-14T17:40:08Z</time>
      </trkpt>
      <trkpt lat="44.70517" lon="0.89286">
        <ele>207</ele>
        <time>2022-08-14T17:40:10Z</time>
      </trkpt>
      <trkpt lat="44.70517" lon="0.89286">
        <ele>207</ele>
        <time>2022-08-14T17:40:12Z</time>
      </trkpt>
      <trkpt lat="44.70516" lon="0.89289">
        <ele>207</ele>
        <time>2022-08-14T17:40:14Z</time>
      </trkpt>
      <trkpt lat="44.70516" lon="0.89288">
        <ele>207</ele>
        <time>2022-08-14T17:40:16Z</time>
      </trkpt>
    </trkseg>
      <trkpt lat="44.70558" lon="0.8935">
        <ele>206</ele>
        <time>2022-08-15T06:18:14Z</time>
      </trkpt>
      <trkpt lat="44.70559" lon="0.89352">
        <ele>205.9</ele>
        <time>2022-08-15T06:18:15Z</time>
      </trkpt>
      <trkpt lat="44.70573" lon="0.89329">
        <ele>206.2</ele>
        <time>2022-08-15T06:19:00Z</time>
      </trkpt>
      <trkpt lat="44.70574" lon="0.89333">
        <ele>206.1</ele>
        <time>2022-08-15T06:19:02Z</time>
      </trkpt>
      <trkpt lat="44.70574" lon="0.89337">
        <ele>206</ele>
        <time>2022-08-15T06:19:04Z</time>
      </trkpt>
      <trkpt lat="44.70574" lon="0.89342">
        <ele>205.8</ele>
        <time>2022-08-15T06:19:06Z</time>
      </trkpt>
      <trkpt lat="44.70574" lon="0.89347">
        <ele>205.7</ele>
        <time>2022-08-15T06:19:08Z</time>
      </trkpt>
      <trkpt lat="44.70573" lon="0.89351">
        <ele>205.6</ele>
        <time>2022-08-15T06:19:10Z</time>
      </trkpt>
      <trkpt lat="44.70574" lon="0.89354">
        <ele>205.5</ele>
        <time>2022-08-15T06:19:12Z</time>
      </trkpt>
      <trkpt lat="44.70577" lon="0.89357">
        <ele>205.3</ele>
        <time>2022-08-15T06:19:14Z</time>
      </trkpt>
      <trkpt lat="44.70579" lon="0.8936">
        <ele>205.2</ele>
        <time>2022-08-15T06:19:16Z</time>
      </trkpt>
      <trkpt lat="44.70583" lon="0.89363">
        <ele>204.9</ele>
        <time>2022-08-15T06:19:18Z</time>
      </trkpt>
      <trkpt lat="44.70586" lon="0.89365">
        <ele>204.7</ele>
        <time>2022-08-15T06:19:20Z</time>
      </trkpt>
      <trkpt lat="44.70589" lon="0.89364">
        <ele>204.5</ele>
        <time>2022-08-15T06:19:22Z</time>
      </trkpt>
      <trkpt lat="44.70595" lon="0.89364">
        <ele>204.1</ele>
        <time>2022-08-15T06:19:24Z</time>
      </trkpt>
      <trkpt lat="44.70602" lon="0.89361">
        <ele>203.7</ele>
        <time>2022-08-15T06:19:26Z</time>
      </trkpt>
      <trkpt lat="44.70611" lon="0.89359">
        <ele>203.1</ele>
        <time>2022-08-15T06:19:28Z</time>
      </trkpt>
      <trkpt lat="44.70614" lon="0.89358">
        <ele>203</ele>
        <time>2022-08-15T06:19:30Z</time>
      </trkpt>
      <trkpt lat="44.70618" lon="0.89355">
        <ele>202.8</ele>
        <time>2022-08-15T06:19:32Z</time>
      </trkpt>
      <trkpt lat="44.70623" lon="0.89355">
        <ele>202.4</ele>
        <time>2022-08-15T06:19:34Z</time>
      </trkpt>
      <trkpt lat="44.7063" lon="0.89356">
        <ele>201.9</ele>
        <time>2022-08-15T06:19:36Z</time>
      </trkpt>
      <trkpt lat="44.70637" lon="0.89355">
        <ele>201.5</ele>
        <time>2022-08-15T06:19:38Z</time>
      </trkpt>
      <trkpt lat="44.70641" lon="0.89357">
        <ele>201.1</ele>
        <time>2022-08-15T06:19:40Z</time>
      </trkpt>
      <trkpt lat="44.7065" lon="0.8936">
        <ele>200.3</ele>
        <time>2022-08-15T06:19:42Z</time>
      </trkpt>
      <trkpt lat="44.70656" lon="0.89361">
        <ele>199.7</ele>
        <time>2022-08-15T06:19:44Z</time>
      </trkpt>
      <trkpt lat="44.7066" lon="0.89366">
        <ele>199.2</ele>
        <time>2022-08-15T06:19:46Z</time>
      </trkpt>
      <trkpt lat="44.70666" lon="0.89374">
        <ele>198.1</ele>
        <time>2022-08-15T06:19:48Z</time>
      </trkpt>
      <trkpt lat="44.70671" lon="0.89381">
        <ele>197.3</ele>
        <time>2022-08-15T06:19:50Z</time>
      </trkpt>
      <trkpt lat="44.70676" lon="0.89386">
        <ele>196.5</ele>
        <time>2022-08-15T06:19:52Z</time>
      </trkpt>
      <trkpt lat="44.7068" lon="0.89388">
        <ele>196.2</ele>
        <time>2022-08-15T06:19:54Z</time>
      </trkpt>
      <trkpt lat="44.70684" lon="0.8939">
        <ele>195.8</ele>
        <time>2022-08-15T06:19:56Z</time>
      </trkpt>
      <trkpt lat="44.70687" lon="0.89391">
        <ele>195.5</ele>
        <time>2022-08-15T06:19:58Z</time>
      </trkpt>
      <trkpt lat="44.70693" lon="0.89393">
        <ele>195.1</ele>
        <time>2022-08-15T06:20:00Z</time>
      </trkpt>
      <trkpt lat="44.70697" lon="0.89396">
        <ele>194.7</ele>
        <time>2022-08-15T06:20:02Z</time>
      </trkpt>
      <trkpt lat="44.70701" lon="0.89399">
        <ele>194.4</ele>
        <time>2022-08-15T06:20:04Z</time>
      </trkpt>
      <trkpt lat="44.70704" lon="0.894">
        <ele>194.2</ele>
        <time>2022-08-15T06:20:06Z</time>
      </trkpt>
      <trkpt lat="44.70706" lon="0.89401">
        <ele>194</ele>
        <time>2022-08-15T06:20:08Z</time>
      </trkpt>
      <trkpt lat="44.70707" lon="0.89402">
        <ele>193.9</ele>
        <time>2022-08-15T06:20:10Z</time>
      </trkpt>
      <trkpt lat="44.70709" lon="0.89402">
        <ele>193.8</ele>
        <time>2022-08-15T06:20:12Z</time>
      </trkpt>
      <trkpt lat="44.70713" lon="0.89404">
        <ele>193.6</ele>
        <time>2022-08-15T06:20:14Z</time>
      </trkpt>
      <trkpt lat="44.70716" lon="0.89405">
        <ele>193.4</ele>
        <time>2022-08-15T06:20:16Z</time>
      </trkpt>
      <trkpt lat="44.7072" lon="0.89407">
        <ele>193.2</ele>
        <time>2022-08-15T06:20:18Z</time>
      </trkpt>
      <trkpt lat="44.70725" lon="0.89406">
        <ele>193</ele>
        <time>2022-08-15T06:20:20Z</time>
      </trkpt>
      <trkpt lat="44.70731" lon="0.89407">
        <ele>192.7</ele>
        <time>2022-08-15T06:20:22Z</time>
      </trkpt>
      <trkpt lat="44.70737" lon="0.89406">
        <ele>192.4</ele>
        <time>2022-08-15T06:20:24Z</time>
      </trkpt>
      <trkpt lat="44.70741" lon="0.89406">
        <ele>192.2</ele>
        <time>2022-08-15T06:20:26Z</time>
      </trkpt>
      <trkpt lat="44.70746" lon="0.89407">
        <ele>192</ele>
        <time>2022-08-15T06:20:28Z</time>
      </trkpt>
      <trkpt lat="44.70751" lon="0.89406">
        <ele>191.8</ele>
        <time>2022-08-15T06:20:30Z</time>
      </trkpt>
      <trkpt lat="44.70757" lon="0.89407">
        <ele>192.3</ele>
        <time>2022-08-15T06:20:32Z</time>
      </trkpt>
      <trkpt lat="44.70762" lon="0.89408">
        <ele>192.7</ele>
        <time>2022-08-15T06:20:34Z</time>
      </trkpt>
      <trkpt lat="44.70766" lon="0.89408">
        <ele>193</ele>
        <time>2022-08-15T06:20:36Z</time>
      </trkpt>
      <trkpt lat="44.7077" lon="0.89408">
        <ele>193.4</ele>
        <time>2022-08-15T06:20:38Z</time>
      </trkpt>
      <trkpt lat="44.70774" lon="0.89409">
        <ele>193.8</ele>
        <time>2022-08-15T06:20:40Z</time>
      </trkpt>
      <trkpt lat="44.70778" lon="0.89408">
        <ele>194.1</ele>
        <time>2022-08-15T06:20:42Z</time>
      </trkpt>
      <trkpt lat="44.70781" lon="0.89407">
        <ele>194.2</ele>
        <time>2022-08-15T06:20:44Z</time>
      </trkpt>
      <trkpt lat="44.70784" lon="0.89407">
        <ele>194.5</ele>
        <time>2022-08-15T06:20:46Z</time>
      </trkpt>
      <trkpt lat="44.70789" lon="0.89407">
        <ele>194.9</ele>
        <time>2022-08-15T06:20:48Z</time>
      </trkpt>
      <trkpt lat="44.70792" lon="0.89408">
        <ele>195.2</ele>
        <time>2022-08-15T06:20:50Z</time>
      </trkpt>
      <trkpt lat="44.70795" lon="0.89409">
        <ele>195.5</ele>
        <time>2022-08-15T06:20:52Z</time>
      </trkpt>
      <trkpt lat="44.70799" lon="0.8941">
        <ele>195.8</ele>
        <time>2022-08-15T06:20:54Z</time>
      </trkpt>
      <trkpt lat="44.70801" lon="0.89413">
        <ele>196.1</ele>
        <time>2022-08-15T06:20:56Z</time>
      </trkpt>
      <trkpt lat="44.70802" lon="0.89416">
        <ele>196.3</ele>
        <time>2022-08-15T06:20:58Z</time>
      </trkpt>
      <trkpt lat="44.70803" lon="0.89418">
        <ele>196.5</ele>
        <time>2022-08-15T06:21:00Z</time>
      </trkpt>
      <trkpt lat="44.70805" lon="0.89421">
        <ele>196.8</ele>
        <time>2022-08-15T06:21:02Z</time>
      </trkpt>
      <trkpt lat="44.70805" lon="0.89424">
        <ele>197</ele>
        <time>2022-08-15T06:21:04Z</time>
      </trkpt>
      <trkpt lat="44.70804" lon="0.89427">
        <ele>197.2</ele>
        <time>2022-08-15T06:21:06Z</time>
      </trkpt>
      <trkpt lat="44.70805" lon="0.8943">
        <ele>197.4</ele>
        <time>2022-08-15T06:21:08Z</time>
      </trkpt>
      <trkpt lat="44.70807" lon="0.89433">
        <ele>197.8</ele>
        <time>2022-08-15T06:21:10Z</time>
      </trkpt>
      <trkpt lat="44.70809" lon="0.89437">
        <ele>198.1</ele>
        <time>2022-08-15T06:21:12Z</time>
      </trkpt>
      <trkpt lat="44.70809" lon="0.89439">
        <ele>198.3</ele>
        <time>2022-08-15T06:21:14Z</time>
      </trkpt>
      <trkpt lat="44.70811" lon="0.89442">
        <ele>198.6</ele>
        <time>2022-08-15T06:21:16Z</time>
      </trkpt>
      <trkpt lat="44.70812" lon="0.89444">
        <ele>198.8</ele>
        <time>2022-08-15T06:21:18Z</time>
      </trkpt>
      <trkpt lat="44.70814" lon="0.89446">
        <ele>199.1</ele>
        <time>2022-08-15T06:21:20Z</time>
      </trkpt>
      <trkpt lat="44.70816" lon="0.8945">
        <ele>199.5</ele>
        <time>2022-08-15T06:21:22Z</time>
      </trkpt>
      <trkpt lat="44.70816" lon="0.89452">
        <ele>199.7</ele>
        <time>2022-08-15T06:21:24Z</time>
      </trkpt>
      <trkpt lat="44.70818" lon="0.89454">
        <ele>199.9</ele>
        <time>2022-08-15T06:21:26Z</time>
      </trkpt>
      <trkpt lat="44.70819" lon="0.89455">
        <ele>200.1</ele>
        <time>2022-08-15T06:21:28Z</time>
      </trkpt>
      <trkpt lat="44.70821" lon="0.89456">
        <ele>200.3</ele>
        <time>2022-08-15T06:21:30Z</time>
      </trkpt>
      <trkpt lat="44.70823" lon="0.89457">
        <ele>200.5</ele>
        <time>2022-08-15T06:21:32Z</time>
      </trkpt>
      <trkpt lat="44.70825" lon="0.89458">
        <ele>200.8</ele>
        <time>2022-08-15T06:21:34Z</time>
      </trkpt>
      <trkpt lat="44.70827" lon="0.89458">
        <ele>200.9</ele>
        <time>2022-08-15T06:21:36Z</time>
      </trkpt>
      <trkpt lat="44.70829" lon="0.8946">
        <ele>201.2</ele>
        <time>2022-08-15T06:21:38Z</time>
      </trkpt>
      <trkpt lat="44.70832" lon="0.8946">
        <ele>201.5</ele>
        <time>2022-08-15T06:21:40Z</time>
      </trkpt>
      <trkpt lat="44.70835" lon="0.8946">
        <ele>201.7</ele>
        <time>2022-08-15T06:21:42Z</time>
      </trkpt>
      <trkpt lat="44.70838" lon="0.89459">
        <ele>201.8</ele>
        <time>2022-08-15T06:21:44Z</time>
      </trkpt>
      <trkpt lat="44.70841" lon="0.89458">
        <ele>202</ele>
        <time>2022-08-15T06:21:46Z</time>
      </trkpt>
      <trkpt lat="44.70843" lon="0.89456">
        <ele>202</ele>
        <time>2022-08-15T06:21:48Z</time>
      </trkpt>
      <trkpt lat="44.70845" lon="0.89454">
        <ele>202</ele>
        <time>2022-08-15T06:21:50Z</time>
      </trkpt>
      <trkpt lat="44.70846" lon="0.89453">
        <ele>202.1</ele>
        <time>2022-08-15T06:21:52Z</time>
      </trkpt>
      <trkpt lat="44.70848" lon="0.89451">
        <ele>202.1</ele>
        <time>2022-08-15T06:21:54Z</time>
      </trkpt>
      <trkpt lat="44.70849" lon="0.89449">
        <ele>202.1</ele>
        <time>2022-08-15T06:21:56Z</time>
      </trkpt>
      <trkpt lat="44.7085" lon="0.89449">
        <ele>202.1</ele>
        <time>2022-08-15T06:21:58Z</time>
      </trkpt>
      <trkpt lat="44.70851" lon="0.89447">
        <ele>202.1</ele>
        <time>2022-08-15T06:22:00Z</time>
      </trkpt>
      <trkpt lat="44.70853" lon="0.89448">
        <ele>202.3</ele>
        <time>2022-08-15T06:22:02Z</time>
      </trkpt>
      <trkpt lat="44.7088" lon="0.89418">
        <ele>202.9</ele>
        <time>2022-08-15T06:23:06Z</time>
      </trkpt>
      <trkpt lat="44.70882" lon="0.89417">
        <ele>203.1</ele>
        <time>2022-08-15T06:23:08Z</time>
      </trkpt>
      <trkpt lat="44.70885" lon="0.89416">
        <ele>203.3</ele>
        <time>2022-08-15T06:23:10Z</time>
      </trkpt>
      <trkpt lat="44.70888" lon="0.89416">
        <ele>203.6</ele>
        <time>2022-08-15T06:23:12Z</time>
      </trkpt>
      <trkpt lat="44.70891" lon="0.89415">
        <ele>203.8</ele>
        <time>2022-08-15T06:23:14Z</time>
      </trkpt>
      <trkpt lat="44.70893" lon="0.89414">
        <ele>204</ele>
        <time>2022-08-15T06:23:16Z</time>
      </trkpt>
      <trkpt lat="44.70896" lon="0.89413">
        <ele>204.1</ele>
        <time>2022-08-15T06:23:18Z</time>
      </trkpt>
      <trkpt lat="44.70899" lon="0.89412">
        <ele>204.4</ele>
        <time>2022-08-15T06:23:20Z</time>
      </trkpt>
      <trkpt lat="44.70901" lon="0.8941">
        <ele>204.5</ele>
        <time>2022-08-15T06:23:22Z</time>
      </trkpt>
      <trkpt lat="44.70903" lon="0.89408">
        <ele>204.6</ele>
        <time>2022-08-15T06:23:24Z</time>
      </trkpt>
      <trkpt lat="44.70906" lon="0.89408">
        <ele>204.8</ele>
        <time>2022-08-15T06:23:26Z</time>
      </trkpt>
      <trkpt lat="44.70908" lon="0.89407">
        <ele>205</ele>
        <time>2022-08-15T06:23:28Z</time>
      </trkpt>
      <trkpt lat="44.70911" lon="0.89407">
        <ele>205.3</ele>
        <time>2022-08-15T06:23:30Z</time>
      </trkpt>
      <trkpt lat="44.70913" lon="0.89406">
        <ele>205.4</ele>
        <time>2022-08-15T06:23:32Z</time>
      </trkpt>
      <trkpt lat="44.70916" lon="0.89405">
        <ele>205.6</ele>
        <time>2022-08-15T06:23:34Z</time>
      </trkpt>
      <trkpt lat="44.70918" lon="0.89405">
        <ele>205.8</ele>
        <time>2022-08-15T06:23:36Z</time>
      </trkpt>
      <trkpt lat="44.70921" lon="0.89404">
        <ele>205.9</ele>
        <time>2022-08-15T06:23:38Z</time>
      </trkpt>
      <trkpt lat="44.70923" lon="0.89404">
        <ele>206</ele>
        <time>2022-08-15T06:23:40Z</time>
      </trkpt>
      <trkpt lat="44.70926" lon="0.89404">
        <ele>206.1</ele>
        <time>2022-08-15T06:23:42Z</time>
      </trkpt>
      <trkpt lat="44.70928" lon="0.89404">
        <ele>206.2</ele>
        <time>2022-08-15T06:23:44Z</time>
      </trkpt>
      <trkpt lat="44.70931" lon="0.89405">
        <ele>206.3</ele>
        <time>2022-08-15T06:23:46Z</time>
      </trkpt>
      <trkpt lat="44.70934" lon="0.89405">
        <ele>206.5</ele>
        <time>2022-08-15T06:23:48Z</time>
      </trkpt>
      <trkpt lat="44.70936" lon="0.89405">
        <ele>206.6</ele>
        <time>2022-08-15T06:23:50Z</time>
      </trkpt>
      <trkpt lat="44.70939" lon="0.89405">
        <ele>206.7</ele>
        <time>2022-08-15T06:23:52Z</time>
      </trkpt>
      <trkpt lat="44.70942" lon="0.89406">
        <ele>206.8</ele>
        <time>2022-08-15T06:23:54Z</time>
      </trkpt>
      <trkpt lat="44.70944" lon="0.89408">
        <ele>206.9</ele>
        <time>2022-08-15T06:23:56Z</time>
      </trkpt>
      <trkpt lat="44.70947" lon="0.89409">
        <ele>207</ele>
        <time>2022-08-15T06:23:58Z</time>
      </trkpt>
      <trkpt lat="44.70949" lon="0.89409">
        <ele>207.1</ele>
        <time>2022-08-15T06:24:00Z</time>
      </trkpt>
      <trkpt lat="44.70952" lon="0.8941">
        <ele>207.2</ele>
        <time>2022-08-15T06:24:02Z</time>
      </trkpt>
      <trkpt lat="44.70954" lon="0.89411">
        <ele>207.3</ele>
        <time>2022-08-15T06:24:04Z</time>
      </trkpt>
      <trkpt lat="44.70956" lon="0.89411">
        <ele>207.4</ele>
        <time>2022-08-15T06:24:06Z</time>
      </trkpt>
      <trkpt lat="44.70959" lon="0.89411">
        <ele>207.5</ele>
        <time>2022-08-15T06:24:08Z</time>
      </trkpt>
      <trkpt lat="44.70961" lon="0.89411">
        <ele>207.6</ele>
        <time>2022-08-15T06:24:10Z</time>
      </trkpt>
      <trkpt lat="44.70964" lon="0.89413">
        <ele>207.7</ele>
        <time>2022-08-15T06:24:12Z</time>
      </trkpt>
      <trkpt lat="44.70966" lon="0.89415">
        <ele>207.8</ele>
        <time>2022-08-15T06:24:14Z</time>
      </trkpt>
      <trkpt lat="44.70968" lon="0.89417">
        <ele>207.8</ele>
        <time>2022-08-15T06:24:16Z</time>
      </trkpt>
      <trkpt lat="44.7097" lon="0.89417">
        <ele>207.9</ele>
        <time>2022-08-15T06:24:18Z</time>
      </trkpt>
      <trkpt lat="44.70971" lon="0.89415">
        <ele>208</ele>
        <time>2022-08-15T06:24:20Z</time>
      </trkpt>
      <trkpt lat="44.7097" lon="0.89413">
        <ele>207.9</ele>
        <time>2022-08-15T06:24:22Z</time>
      </trkpt>
      <trkpt lat="44.70965" lon="0.89411">
        <ele>207.8</ele>
        <time>2022-08-15T06:24:24Z</time>
      </trkpt>
      <trkpt lat="44.70963" lon="0.89411">
        <ele>207.7</ele>
        <time>2022-08-15T06:24:26Z</time>
      </trkpt>
      <trkpt lat="44.70963" lon="0.89412">
        <ele>207.7</ele>
        <time>2022-08-15T06:24:28Z</time>
      </trkpt>
      <trkpt lat="44.70963" lon="0.89412">
        <ele>207.7</ele>
        <time>2022-08-15T06:24:30Z</time>
      </trkpt>
      <trkpt lat="44.70962" lon="0.89412">
        <ele>207.7</ele>
        <time>2022-08-15T06:24:34Z</time>
      </trkpt>
      <trkpt lat="44.70971" lon="0.89421">
        <ele>208</ele>
        <time>2022-08-15T06:26:26Z</time>
      </trkpt>
      <trkpt lat="44.70972" lon="0.89423">
        <ele>208</ele>
        <time>2022-08-15T06:26:28Z</time>
      </trkpt>
      <trkpt lat="44.70972" lon="0.89428">
        <ele>208</ele>
        <time>2022-08-15T06:26:30Z</time>
      </trkpt>
      <trkpt lat="44.70973" lon="0.89432">
        <ele>208</ele>
        <time>2022-08-15T06:26:32Z</time>
      </trkpt>
      <trkpt lat="44.70973" lon="0.89437">
        <ele>208</ele>
        <time>2022-08-15T06:26:34Z</time>
      </trkpt>
      <trkpt lat="44.70973" lon="0.89443">
        <ele>208</ele>
        <time>2022-08-15T06:26:36Z</time>
      </trkpt>
      <trkpt lat="44.70973" lon="0.89449">
        <ele>208</ele>
        <time>2022-08-15T06:26:38Z</time>
      </trkpt>
      <trkpt lat="44.70973" lon="0.89457">
        <ele>208</ele>
        <time>2022-08-15T06:26:40Z</time>
      </trkpt>
      <trkpt lat="44.70973" lon="0.89462">
        <ele>208</ele>
        <time>2022-08-15T06:26:42Z</time>
      </trkpt>
      <trkpt lat="44.70973" lon="0.89463">
        <ele>208</ele>
        <time>2022-08-15T06:26:44Z</time>
      </trkpt>
      <trkpt lat="44.70973" lon="0.89462">
        <ele>208</ele>
        <time>2022-08-15T06:26:46Z</time>
      </trkpt>
      <trkpt lat="44.70973" lon="0.89462">
        <ele>208</ele>
        <time>2022-08-15T06:26:48Z</time>
      </trkpt>
      <trkpt lat="44.70973" lon="0.89462">
        <ele>208</ele>
        <time>2022-08-15T06:26:50Z</time>
      </trkpt>
      <trkpt lat="44.70973" lon="0.89461">
        <ele>208</ele>
        <time>2022-08-15T06:26:52Z</time>
      </trkpt>
      <trkpt lat="44.70976" lon="0.89476">
        <ele>208</ele>
        <time>2022-08-15T06:27:00Z</time>
      </trkpt>
      <trkpt lat="44.70975" lon="0.89482">
        <ele>208</ele>
        <time>2022-08-15T06:27:02Z</time>
      </trkpt>
      <trkpt lat="44.70975" lon="0.89488">
        <ele>208</ele>
        <time>2022-08-15T06:27:04Z</time>
      </trkpt>
      <trkpt lat="44.70976" lon="0.89495">
        <ele>208</ele>
        <time>2022-08-15T06:27:06Z</time>
      </trkpt>
      <trkpt lat="44.70976" lon="0.89503">
        <ele>208.1</ele>
        <time>2022-08-15T06:27:08Z</time>
      </trkpt>
      <trkpt lat="44.70976" lon="0.89511">
        <ele>208.4</ele>
        <time>2022-08-15T06:27:10Z</time>
      </trkpt>
      <trkpt lat="44.70976" lon="0.89519">
        <ele>208.8</ele>
        <time>2022-08-15T06:27:12Z</time>
      </trkpt>
      <trkpt lat="44.70977" lon="0.89529">
        <ele>209.1</ele>
        <time>2022-08-15T06:27:14Z</time>
      </trkpt>
      <trkpt lat="44.70977" lon="0.89539">
        <ele>209.5</ele>
        <time>2022-08-15T06:27:16Z</time>
      </trkpt>
      <trkpt lat="44.70977" lon="0.89547">
        <ele>209.9</ele>
        <time>2022-08-15T06:27:18Z</time>
      </trkpt>
      <trkpt lat="44.70977" lon="0.89555">
        <ele>210.2</ele>
        <time>2022-08-15T06:27:20Z</time>
      </trkpt>
      <trkpt lat="44.70975" lon="0.89563">
        <ele>210.5</ele>
        <time>2022-08-15T06:27:22Z</time>
      </trkpt>
      <trkpt lat="44.70974" lon="0.89572">
        <ele>210.8</ele>
        <time>2022-08-15T06:27:24Z</time>
      </trkpt>
      <trkpt lat="44.70972" lon="0.8958">
        <ele>211.2</ele>
        <time>2022-08-15T06:27:26Z</time>
      </trkpt>
      <trkpt lat="44.70969" lon="0.89589">
        <ele>211.5</ele>
        <time>2022-08-15T06:27:28Z</time>
      </trkpt>
      <trkpt lat="44.70966" lon="0.89597">
        <ele>211.8</ele>
        <time>2022-08-15T06:27:30Z</time>
      </trkpt>
      <trkpt lat="44.70963" lon="0.89605">
        <ele>212</ele>
        <time>2022-08-15T06:27:32Z</time>
      </trkpt>
      <trkpt lat="44.70961" lon="0.89614">
        <ele>212.2</ele>
        <time>2022-08-15T06:27:34Z</time>
      </trkpt>
      <trkpt lat="44.70958" lon="0.89622">
        <ele>212.4</ele>
        <time>2022-08-15T06:27:36Z</time>
      </trkpt>
      <trkpt lat="44.70955" lon="0.89629">
        <ele>212.6</ele>
        <time>2022-08-15T06:27:38Z</time>
      </trkpt>
      <trkpt lat="44.70952" lon="0.89638">
        <ele>212.8</ele>
        <time>2022-08-15T06:27:40Z</time>
      </trkpt>
      <trkpt lat="44.7095" lon="0.89646">
        <ele>213</ele>
        <time>2022-08-15T06:27:42Z</time>
      </trkpt>
      <trkpt lat="44.70947" lon="0.89655">
        <ele>213.1</ele>
        <time>2022-08-15T06:27:44Z</time>
      </trkpt>
      <trkpt lat="44.70944" lon="0.89664">
        <ele>213.3</ele>
        <time>2022-08-15T06:27:46Z</time>
      </trkpt>
      <trkpt lat="44.7094" lon="0.89673">
        <ele>213.2</ele>
        <time>2022-08-15T06:27:48Z</time>
      </trkpt>
      <trkpt lat="44.70937" lon="0.89682">
        <ele>213</ele>
        <time>2022-08-15T06:27:50Z</time>
      </trkpt>
      <trkpt lat="44.70934" lon="0.89692">
        <ele>212.7</ele>
        <time>2022-08-15T06:27:52Z</time>
      </trkpt>
      <trkpt lat="44.7093" lon="0.89702">
        <ele>212.5</ele>
        <time>2022-08-15T06:27:54Z</time>
      </trkpt>
      <trkpt lat="44.70927" lon="0.89713">
        <ele>212.2</ele>
        <time>2022-08-15T06:27:56Z</time>
      </trkpt>
      <trkpt lat="44.70923" lon="0.89723">
        <ele>211.8</ele>
        <time>2022-08-15T06:27:58Z</time>
      </trkpt>
      <trkpt lat="44.7092" lon="0.89733">
        <ele>211.5</ele>
        <time>2022-08-15T06:28:00Z</time>
      </trkpt>
      <trkpt lat="44.70916" lon="0.89745">
        <ele>211.1</ele>
        <time>2022-08-15T06:28:02Z</time>
      </trkpt>
      <trkpt lat="44.70912" lon="0.89755">
        <ele>211.1</ele>
        <time>2022-08-15T06:28:04Z</time>
      </trkpt>
      <trkpt lat="44.70908" lon="0.89767">
        <ele>211.2</ele>
        <time>2022-08-15T06:28:06Z</time>
      </trkpt>
      <trkpt lat="44.70904" lon="0.89778">
        <ele>211.3</ele>
        <time>2022-08-15T06:28:08Z</time>
      </trkpt>
      <trkpt lat="44.709" lon="0.8979">
        <ele>211.4</ele>
        <time>2022-08-15T06:28:10Z</time>
      </trkpt>
      <trkpt lat="44.70896" lon="0.89801">
        <ele>211.5</ele>
        <time>2022-08-15T06:28:12Z</time>
      </trkpt>
      <trkpt lat="44.70892" lon="0.89812">
        <ele>211.6</ele>
        <time>2022-08-15T06:28:14Z</time>
      </trkpt>
      <trkpt lat="44.70888" lon="0.89824">
        <ele>211.7</ele>
        <time>2022-08-15T06:28:16Z</time>
      </trkpt>
      <trkpt lat="44.70884" lon="0.89835">
        <ele>211.7</ele>
        <time>2022-08-15T06:28:18Z</time>
      </trkpt>
      <trkpt lat="44.7088" lon="0.89848">
        <ele>211.6</ele>
        <time>2022-08-15T06:28:20Z</time>
      </trkpt>
      <trkpt lat="44.70876" lon="0.8986">
        <ele>211.5</ele>
        <time>2022-08-15T06:28:22Z</time>
      </trkpt>
      <trkpt lat="44.70872" lon="0.89873">
        <ele>211.4</ele>
        <time>2022-08-15T06:28:24Z</time>
      </trkpt>
      <trkpt lat="44.70867" lon="0.89886">
        <ele>211.3</ele>
        <time>2022-08-15T06:28:26Z</time>
      </trkpt>
      <trkpt lat="44.70863" lon="0.89899">
        <ele>211.2</ele>
        <time>2022-08-15T06:28:28Z</time>
      </trkpt>
      <trkpt lat="44.70859" lon="0.89913">
        <ele>211.1</ele>
        <time>2022-08-15T06:28:30Z</time>
      </trkpt>
      <trkpt lat="44.70854" lon="0.89926">
        <ele>211.7</ele>
        <time>2022-08-15T06:28:32Z</time>
      </trkpt>
      <trkpt lat="44.7085" lon="0.89939">
        <ele>212.4</ele>
        <time>2022-08-15T06:28:34Z</time>
      </trkpt>
      <trkpt lat="44.70846" lon="0.89952">
        <ele>213</ele>
        <time>2022-08-15T06:28:36Z</time>
      </trkpt>
      <trkpt lat="44.70842" lon="0.89964">
        <ele>213.6</ele>
        <time>2022-08-15T06:28:38Z</time>
      </trkpt>
      <trkpt lat="44.70838" lon="0.89976">
        <ele>214.1</ele>
        <time>2022-08-15T06:28:40Z</time>
      </trkpt>
      <trkpt lat="44.70833" lon="0.89987">
        <ele>214.5</ele>
        <time>2022-08-15T06:28:42Z</time>
      </trkpt>
      <trkpt lat="44.7083" lon="0.89998">
        <ele>215</ele>
        <time>2022-08-15T06:28:44Z</time>
      </trkpt>
      <trkpt lat="44.70828" lon="0.90007">
        <ele>215.2</ele>
        <time>2022-08-15T06:28:46Z</time>
      </trkpt>
      <trkpt lat="44.70825" lon="0.90016">
        <ele>215.3</ele>
        <time>2022-08-15T06:28:48Z</time>
      </trkpt>
      <trkpt lat="44.70823" lon="0.90024">
        <ele>215.4</ele>
        <time>2022-08-15T06:28:50Z</time>
      </trkpt>
      <trkpt lat="44.70819" lon="0.90033">
        <ele>215.5</ele>
        <time>2022-08-15T06:28:52Z</time>
      </trkpt>
      <trkpt lat="44.70816" lon="0.90041">
        <ele>215.5</ele>
        <time>2022-08-15T06:28:54Z</time>
      </trkpt>
      <trkpt lat="44.70814" lon="0.90048">
        <ele>215.5</ele>
        <time>2022-08-15T06:28:56Z</time>
      </trkpt>
      <trkpt lat="44.70811" lon="0.90055">
        <ele>215.5</ele>
        <time>2022-08-15T06:28:58Z</time>
      </trkpt>
      <trkpt lat="44.70811" lon="0.90062">
        <ele>215.5</ele>
        <time>2022-08-15T06:29:00Z</time>
      </trkpt>
      <trkpt lat="44.70806" lon="0.90065">
        <ele>215.4</ele>
        <time>2022-08-15T06:29:02Z</time>
      </trkpt>
      <trkpt lat="44.70806" lon="0.90069">
        <ele>215.4</ele>
        <time>2022-08-15T06:29:04Z</time>
      </trkpt>
      <trkpt lat="44.70806" lon="0.90071">
        <ele>215.4</ele>
        <time>2022-08-15T06:29:06Z</time>
      </trkpt>
      <trkpt lat="44.70806" lon="0.90072">
        <ele>215.4</ele>
        <time>2022-08-15T06:29:08Z</time>
      </trkpt>
      <trkpt lat="44.70806" lon="0.90072">
        <ele>215.4</ele>
        <time>2022-08-15T06:29:12Z</time>
      </trkpt>
      <trkpt lat="44.7079" lon="0.90084">
        <ele>215</ele>
        <time>2022-08-15T06:29:40Z</time>
      </trkpt>
      <trkpt lat="44.70783" lon="0.90084">
        <ele>214.8</ele>
        <time>2022-08-15T06:29:42Z</time>
      </trkpt>
      <trkpt lat="44.70775" lon="0.90085">
        <ele>214.6</ele>
        <time>2022-08-15T06:29:44Z</time>
      </trkpt>
      <trkpt lat="44.70767" lon="0.90085">
        <ele>214.4</ele>
        <time>2022-08-15T06:29:46Z</time>
      </trkpt>
      <trkpt lat="44.70759" lon="0.90084">
        <ele>214.2</ele>
        <time>2022-08-15T06:29:48Z</time>
      </trkpt>
      <trkpt lat="44.70749" lon="0.90086">
        <ele>214</ele>
        <time>2022-08-15T06:29:50Z</time>
      </trkpt>
      <trkpt lat="44.7074" lon="0.90087">
        <ele>214</ele>
        <time>2022-08-15T06:29:52Z</time>
      </trkpt>
      <trkpt lat="44.70732" lon="0.90088">
        <ele>214.1</ele>
        <time>2022-08-15T06:29:54Z</time>
      </trkpt>
      <trkpt lat="44.70722" lon="0.90089">
        <ele>214.1</ele>
        <time>2022-08-15T06:29:56Z</time>
      </trkpt>
      <trkpt lat="44.70714" lon="0.90089">
        <ele>214.1</ele>
        <time>2022-08-15T06:29:58Z</time>
      </trkpt>
      <trkpt lat="44.70704" lon="0.90091">
        <ele>214.1</ele>
        <time>2022-08-15T06:30:00Z</time>
      </trkpt>
      <trkpt lat="44.70695" lon="0.9009">
        <ele>214.1</ele>
        <time>2022-08-15T06:30:02Z</time>
      </trkpt>
      <trkpt lat="44.70685" lon="0.90092">
        <ele>214.1</ele>
        <time>2022-08-15T06:30:04Z</time>
      </trkpt>
      <trkpt lat="44.70676" lon="0.90094">
        <ele>214.1</ele>
        <time>2022-08-15T06:30:06Z</time>
      </trkpt>
      <trkpt lat="44.70666" lon="0.90096">
        <ele>214.1</ele>
        <time>2022-08-15T06:30:08Z</time>
      </trkpt>
      <trkpt lat="44.70656" lon="0.90097">
        <ele>214.1</ele>
        <time>2022-08-15T06:30:10Z</time>
      </trkpt>
      <trkpt lat="44.70645" lon="0.90099">
        <ele>214</ele>
        <time>2022-08-15T06:30:12Z</time>
      </trkpt>
      <trkpt lat="44.70634" lon="0.901">
        <ele>214</ele>
        <time>2022-08-15T06:30:14Z</time>
      </trkpt>
      <trkpt lat="44.70623" lon="0.901">
        <ele>213.9</ele>
        <time>2022-08-15T06:30:16Z</time>
      </trkpt>
      <trkpt lat="44.70612" lon="0.90098">
        <ele>213.8</ele>
        <time>2022-08-15T06:30:18Z</time>
      </trkpt>
      <trkpt lat="44.70604" lon="0.90099">
        <ele>213.7</ele>
        <time>2022-08-15T06:30:20Z</time>
      </trkpt>
      <trkpt lat="44.706" lon="0.90106">
        <ele>213.9</ele>
        <time>2022-08-15T06:30:22Z</time>
      </trkpt>
      <trkpt lat="44.70601" lon="0.90113">
        <ele>214.1</ele>
        <time>2022-08-15T06:30:24Z</time>
      </trkpt>
      <trkpt lat="44.70606" lon="0.9012">
        <ele>214.4</ele>
        <time>2022-08-15T06:30:26Z</time>
      </trkpt>
      <trkpt lat="44.70611" lon="0.90129">
        <ele>214.6</ele>
        <time>2022-08-15T06:30:28Z</time>
      </trkpt>
      <trkpt lat="44.70615" lon="0.90137">
        <ele>214.8</ele>
        <time>2022-08-15T06:30:30Z</time>
      </trkpt>
      <trkpt lat="44.70621" lon="0.90143">
        <ele>215</ele>
        <time>2022-08-15T06:30:32Z</time>
      </trkpt>
      <trkpt lat="44.70626" lon="0.9015">
        <ele>215.1</ele>
        <time>2022-08-15T06:30:34Z</time>
      </trkpt>
      <trkpt lat="44.70631" lon="0.90157">
        <ele>215.2</ele>
        <time>2022-08-15T06:30:36Z</time>
      </trkpt>
      <trkpt lat="44.70635" lon="0.90163">
        <ele>215.3</ele>
        <time>2022-08-15T06:30:38Z</time>
      </trkpt>
      <trkpt lat="44.7064" lon="0.90169">
        <ele>215.4</ele>
        <time>2022-08-15T06:30:40Z</time>
      </trkpt>
      <trkpt lat="44.70645" lon="0.90175">
        <ele>215.5</ele>
        <time>2022-08-15T06:30:42Z</time>
      </trkpt>
      <trkpt lat="44.70647" lon="0.90182">
        <ele>215.8</ele>
        <time>2022-08-15T06:30:44Z</time>
      </trkpt>
      <trkpt lat="44.70651" lon="0.90187">
        <ele>215.9</ele>
        <time>2022-08-15T06:30:46Z</time>
      </trkpt>
      <trkpt lat="44.70655" lon="0.90192">
        <ele>216</ele>
        <time>2022-08-15T06:30:48Z</time>
      </trkpt>
      <trkpt lat="44.7066" lon="0.90197">
        <ele>216.2</ele>
        <time>2022-08-15T06:30:50Z</time>
      </trkpt>
      <trkpt lat="44.70664" lon="0.90204">
        <ele>216.4</ele>
        <time>2022-08-15T06:30:52Z</time>
      </trkpt>
      <trkpt lat="44.70669" lon="0.9021">
        <ele>216.5</ele>
        <time>2022-08-15T06:30:54Z</time>
      </trkpt>
      <trkpt lat="44.70672" lon="0.90216">
        <ele>216.7</ele>
        <time>2022-08-15T06:30:56Z</time>
      </trkpt>
      <trkpt lat="44.70676" lon="0.90223">
        <ele>216.9</ele>
        <time>2022-08-15T06:30:58Z</time>
      </trkpt>
      <trkpt lat="44.7068" lon="0.90228">
        <ele>217</ele>
        <time>2022-08-15T06:31:00Z</time>
      </trkpt>
      <trkpt lat="44.70684" lon="0.90232">
        <ele>217</ele>
        <time>2022-08-15T06:31:02Z</time>
      </trkpt>
      <trkpt lat="44.70687" lon="0.90238">
        <ele>217.1</ele>
        <time>2022-08-15T06:31:04Z</time>
      </trkpt>
      <trkpt lat="44.7069" lon="0.90243">
        <ele>217.2</ele>
        <time>2022-08-15T06:31:06Z</time>
      </trkpt>
      <trkpt lat="44.70693" lon="0.90248">
        <ele>217.3</ele>
        <time>2022-08-15T06:31:08Z</time>
      </trkpt>
      <trkpt lat="44.70695" lon="0.90253">
        <ele>217.4</ele>
        <time>2022-08-15T06:31:10Z</time>
      </trkpt>
      <trkpt lat="44.70699" lon="0.90257">
        <ele>217.4</ele>
        <time>2022-08-15T06:31:12Z</time>
      </trkpt>
      <trkpt lat="44.70702" lon="0.90262">
        <ele>217.4</ele>
        <time>2022-08-15T06:31:14Z</time>
      </trkpt>
      <trkpt lat="44.70705" lon="0.90267">
        <ele>217.4</ele>
        <time>2022-08-15T06:31:16Z</time>
      </trkpt>
      <trkpt lat="44.70708" lon="0.90271">
        <ele>217.4</ele>
        <time>2022-08-15T06:31:18Z</time>
      </trkpt>
      <trkpt lat="44.70709" lon="0.90277">
        <ele>217.5</ele>
        <time>2022-08-15T06:31:20Z</time>
      </trkpt>
      <trkpt lat="44.7071" lon="0.90279">
        <ele>217.5</ele>
        <time>2022-08-15T06:31:22Z</time>
      </trkpt>
      <trkpt lat="44.7071" lon="0.90279">
        <ele>217.5</ele>
        <time>2022-08-15T06:31:24Z</time>
      </trkpt>
      <trkpt lat="44.7071" lon="0.9028">
        <ele>217.5</ele>
        <time>2022-08-15T06:31:26Z</time>
      </trkpt>
      <trkpt lat="44.7071" lon="0.9028">
        <ele>217.5</ele>
        <time>2022-08-15T06:31:28Z</time>
      </trkpt>
      <trkpt lat="44.7071" lon="0.9028">
        <ele>217.5</ele>
        <time>2022-08-15T06:31:30Z</time>
      </trkpt>
      <trkpt lat="44.70694" lon="0.90254">
        <ele>217.4</ele>
        <time>2022-08-15T06:33:58Z</time>
      </trkpt>
      <trkpt lat="44.70688" lon="0.90242">
        <ele>217.3</ele>
        <time>2022-08-15T06:34:00Z</time>
      </trkpt>
      <trkpt lat="44.70681" lon="0.90231">
        <ele>217.1</ele>
        <time>2022-08-15T06:34:02Z</time>
      </trkpt>
      <trkpt lat="44.70674" lon="0.9022">
        <ele>216.8</ele>
        <time>2022-08-15T06:34:04Z</time>
      </trkpt>
      <trkpt lat="44.70666" lon="0.90209">
        <ele>216.5</ele>
        <time>2022-08-15T06:34:06Z</time>
      </trkpt>
      <trkpt lat="44.70658" lon="0.90197">
        <ele>216.2</ele>
        <time>2022-08-15T06:34:08Z</time>
      </trkpt>
      <trkpt lat="44.7065" lon="0.90185">
        <ele>215.8</ele>
        <time>2022-08-15T06:34:10Z</time>
      </trkpt>
      <trkpt lat="44.70642" lon="0.90173">
        <ele>215.5</ele>
        <time>2022-08-15T06:34:12Z</time>
      </trkpt>
      <trkpt lat="44.70634" lon="0.9016">
        <ele>215.2</ele>
        <time>2022-08-15T06:34:14Z</time>
      </trkpt>
      <trkpt lat="44.70629" lon="0.90153">
        <ele>215.1</ele>
        <time>2022-08-15T06:34:16Z</time>
      </trkpt>
      <trkpt lat="44.70627" lon="0.90155">
        <ele>215.2</ele>
        <time>2022-08-15T06:34:18Z</time>
      </trkpt>
      <trkpt lat="44.70628" lon="0.90157">
        <ele>215.2</ele>
        <time>2022-08-15T06:34:20Z</time>
      </trkpt>
      <trkpt lat="44.70631" lon="0.9016">
        <ele>215.3</ele>
        <time>2022-08-15T06:34:22Z</time>
      </trkpt>
      <trkpt lat="44.70634" lon="0.90162">
        <ele>215.3</ele>
        <time>2022-08-15T06:34:24Z</time>
      </trkpt>
      <trkpt lat="44.70639" lon="0.90167">
        <ele>215.3</ele>
        <time>2022-08-15T06:34:26Z</time>
      </trkpt>
      <trkpt lat="44.70643" lon="0.90173">
        <ele>215.5</ele>
        <time>2022-08-15T06:34:28Z</time>
      </trkpt>
      <trkpt lat="44.70646" lon="0.90179">
        <ele>215.7</ele>
        <time>2022-08-15T06:34:30Z</time>
      </trkpt>
      <trkpt lat="44.7065" lon="0.90185">
        <ele>215.8</ele>
        <time>2022-08-15T06:34:32Z</time>
      </trkpt>
      <trkpt lat="44.70655" lon="0.90191">
        <ele>216</ele>
        <time>2022-08-15T06:34:34Z</time>
      </trkpt>
      <trkpt lat="44.7066" lon="0.90196">
        <ele>216.1</ele>
        <time>2022-08-15T06:34:36Z</time>
      </trkpt>
      <trkpt lat="44.70664" lon="0.90202">
        <ele>216.3</ele>
        <time>2022-08-15T06:34:38Z</time>
      </trkpt>
      <trkpt lat="44.70669" lon="0.90208">
        <ele>216.5</ele>
        <time>2022-08-15T06:34:40Z</time>
      </trkpt>
      <trkpt lat="44.70674" lon="0.90215">
        <ele>216.6</ele>
        <time>2022-08-15T06:34:42Z</time>
      </trkpt>
      <trkpt lat="44.70678" lon="0.90221">
        <ele>216.8</ele>
        <time>2022-08-15T06:34:44Z</time>
      </trkpt>
      <trkpt lat="44.70682" lon="0.90227">
        <ele>216.9</ele>
        <time>2022-08-15T06:34:46Z</time>
      </trkpt>
      <trkpt lat="44.70686" lon="0.90234">
        <ele>217</ele>
        <time>2022-08-15T06:34:48Z</time>
      </trkpt>
      <trkpt lat="44.7069" lon="0.90239">
        <ele>217.1</ele>
        <time>2022-08-15T06:34:50Z</time>
      </trkpt>
      <trkpt lat="44.70693" lon="0.90245">
        <ele>217.2</ele>
        <time>2022-08-15T06:34:52Z</time>
      </trkpt>
      <trkpt lat="44.70697" lon="0.90252">
        <ele>217.3</ele>
        <time>2022-08-15T06:34:54Z</time>
      </trkpt>
      <trkpt lat="44.707" lon="0.90257">
        <ele>217.3</ele>
        <time>2022-08-15T06:34:56Z</time>
      </trkpt>
      <trkpt lat="44.70703" lon="0.90265">
        <ele>217.4</ele>
        <time>2022-08-15T06:34:58Z</time>
      </trkpt>
      <trkpt lat="44.70706" lon="0.9027">
        <ele>217.4</ele>
        <time>2022-08-15T06:35:00Z</time>
      </trkpt>
      <trkpt lat="44.70709" lon="0.90277">
        <ele>217.5</ele>
        <time>2022-08-15T06:35:02Z</time>
      </trkpt>
      <trkpt lat="44.7071" lon="0.90278">
        <ele>217.5</ele>
        <time>2022-08-15T06:35:04Z</time>
      </trkpt>
      <trkpt lat="44.70711" lon="0.90277">
        <ele>217.4</ele>
        <time>2022-08-15T06:35:06Z</time>
      </trkpt>
      <trkpt lat="44.70711" lon="0.90278">
        <ele>217.4</ele>
        <time>2022-08-15T06:35:08Z</time>
      </trkpt>
      <trkpt lat="44.70711" lon="0.90278">
        <ele>217.5</ele>
        <time>2022-08-15T06:35:10Z</time>
      </trkpt>
      <trkpt lat="44.7072" lon="0.903">
        <ele>217.7</ele>
        <time>2022-08-15T06:36:36Z</time>
      </trkpt>
      <trkpt lat="44.70722" lon="0.90307">
        <ele>217.8</ele>
        <time>2022-08-15T06:36:38Z</time>
      </trkpt>
      <trkpt lat="44.70724" lon="0.90314">
        <ele>217.9</ele>
        <time>2022-08-15T06:36:40Z</time>
      </trkpt>
      <trkpt lat="44.70726" lon="0.90321">
        <ele>218</ele>
        <time>2022-08-15T06:36:42Z</time>
      </trkpt>
      <trkpt lat="44.70729" lon="0.90327">
        <ele>218.1</ele>
        <time>2022-08-15T06:36:44Z</time>
      </trkpt>
      <trkpt lat="44.70731" lon="0.90334">
        <ele>218.2</ele>
        <time>2022-08-15T06:36:46Z</time>
      </trkpt>
      <trkpt lat="44.70734" lon="0.9034">
        <ele>218.3</ele>
        <time>2022-08-15T06:36:48Z</time>
      </trkpt>
      <trkpt lat="44.70736" lon="0.90346">
        <ele>218.4</ele>
        <time>2022-08-15T06:36:50Z</time>
      </trkpt>
      <trkpt lat="44.70738" lon="0.90352">
        <ele>218.5</ele>
        <time>2022-08-15T06:36:52Z</time>
      </trkpt>
      <trkpt lat="44.70741" lon="0.90356">
        <ele>218.6</ele>
        <time>2022-08-15T06:36:54Z</time>
      </trkpt>
      <trkpt lat="44.70742" lon="0.90361">
        <ele>218.7</ele>
        <time>2022-08-15T06:36:56Z</time>
      </trkpt>
      <trkpt lat="44.70744" lon="0.90364">
        <ele>218.7</ele>
        <time>2022-08-15T06:36:58Z</time>
      </trkpt>
      <trkpt lat="44.70745" lon="0.90369">
        <ele>218.8</ele>
        <time>2022-08-15T06:37:00Z</time>
      </trkpt>
      <trkpt lat="44.70748" lon="0.90374">
        <ele>219</ele>
        <time>2022-08-15T06:37:02Z</time>
      </trkpt>
      <trkpt lat="44.7075" lon="0.9038">
        <ele>219.1</ele>
        <time>2022-08-15T06:37:04Z</time>
      </trkpt>
      <trkpt lat="44.70753" lon="0.90386">
        <ele>219.3</ele>
        <time>2022-08-15T06:37:06Z</time>
      </trkpt>
      <trkpt lat="44.70755" lon="0.90394">
        <ele>219.4</ele>
        <time>2022-08-15T06:37:08Z</time>
      </trkpt>
      <trkpt lat="44.70758" lon="0.904">
        <ele>219.6</ele>
        <time>2022-08-15T06:37:10Z</time>
      </trkpt>
      <trkpt lat="44.70761" lon="0.90406">
        <ele>219.8</ele>
        <time>2022-08-15T06:37:12Z</time>
      </trkpt>
      <trkpt lat="44.70764" lon="0.90411">
        <ele>219.9</ele>
        <time>2022-08-15T06:37:14Z</time>
      </trkpt>
      <trkpt lat="44.70767" lon="0.90417">
        <ele>220</ele>
        <time>2022-08-15T06:37:16Z</time>
      </trkpt>
      <trkpt lat="44.70769" lon="0.90425">
        <ele>220.1</ele>
        <time>2022-08-15T06:37:18Z</time>
      </trkpt>
      <trkpt lat="44.70772" lon="0.90432">
        <ele>220.2</ele>
        <time>2022-08-15T06:37:20Z</time>
      </trkpt>
      <trkpt lat="44.70775" lon="0.90439">
        <ele>220.3</ele>
        <time>2022-08-15T06:37:22Z</time>
      </trkpt>
      <trkpt lat="44.70778" lon="0.90447">
        <ele>220.5</ele>
        <time>2022-08-15T06:37:24Z</time>
      </trkpt>
      <trkpt lat="44.70781" lon="0.90455">
        <ele>220.6</ele>
        <time>2022-08-15T06:37:26Z</time>
      </trkpt>
      <trkpt lat="44.70785" lon="0.90463">
        <ele>220.8</ele>
        <time>2022-08-15T06:37:28Z</time>
      </trkpt>
      <trkpt lat="44.70789" lon="0.90469">
        <ele>220.9</ele>
        <time>2022-08-15T06:37:30Z</time>
      </trkpt>
      <trkpt lat="44.70792" lon="0.90476">
        <ele>221.1</ele>
        <time>2022-08-15T06:37:32Z</time>
      </trkpt>
      <trkpt lat="44.70796" lon="0.90482">
        <ele>221.2</ele>
        <time>2022-08-15T06:37:34Z</time>
      </trkpt>
      <trkpt lat="44.70802" lon="0.90489">
        <ele>221.4</ele>
        <time>2022-08-15T06:37:36Z</time>
      </trkpt>
      <trkpt lat="44.70807" lon="0.90496">
        <ele>221.6</ele>
        <time>2022-08-15T06:37:38Z</time>
      </trkpt>
      <trkpt lat="44.70812" lon="0.90503">
        <ele>221.8</ele>
        <time>2022-08-15T06:37:40Z</time>
      </trkpt>
      <trkpt lat="44.70816" lon="0.9051">
        <ele>222</ele>
        <time>2022-08-15T06:37:42Z</time>
      </trkpt>
      <trkpt lat="44.7082" lon="0.90517">
        <ele>222.2</ele>
        <time>2022-08-15T06:37:44Z</time>
      </trkpt>
      <trkpt lat="44.70824" lon="0.90525">
        <ele>222.4</ele>
        <time>2022-08-15T06:37:46Z</time>
      </trkpt>
      <trkpt lat="44.7083" lon="0.90533">
        <ele>222.7</ele>
        <time>2022-08-15T06:37:48Z</time>
      </trkpt>
      <trkpt lat="44.70835" lon="0.9054">
        <ele>223</ele>
        <time>2022-08-15T06:37:50Z</time>
      </trkpt>
      <trkpt lat="44.70839" lon="0.90547">
        <ele>223.3</ele>
        <time>2022-08-15T06:37:52Z</time>
      </trkpt>
      <trkpt lat="44.70844" lon="0.90554">
        <ele>223.7</ele>
        <time>2022-08-15T06:37:54Z</time>
      </trkpt>
      <trkpt lat="44.70848" lon="0.90562">
        <ele>224</ele>
        <time>2022-08-15T06:37:56Z</time>
      </trkpt>
      <trkpt lat="44.70852" lon="0.90568">
        <ele>224.3</ele>
        <time>2022-08-15T06:37:58Z</time>
      </trkpt>
      <trkpt lat="44.70858" lon="0.90575">
        <ele>224.7</ele>
        <time>2022-08-15T06:38:00Z</time>
      </trkpt>
      <trkpt lat="44.70861" lon="0.90583">
        <ele>225</ele>
        <time>2022-08-15T06:38:02Z</time>
      </trkpt>
      <trkpt lat="44.70865" lon="0.90591">
        <ele>225.1</ele>
        <time>2022-08-15T06:38:04Z</time>
      </trkpt>
      <trkpt lat="44.70869" lon="0.90599">
        <ele>225.1</ele>
        <time>2022-08-15T06:38:06Z</time>
      </trkpt>
      <trkpt lat="44.70872" lon="0.90607">
        <ele>225.1</ele>
        <time>2022-08-15T06:38:08Z</time>
      </trkpt>
      <trkpt lat="44.70875" lon="0.90615">
        <ele>225.1</ele>
        <time>2022-08-15T06:38:10Z</time>
      </trkpt>
      <trkpt lat="44.70879" lon="0.90623">
        <ele>225.1</ele>
        <time>2022-08-15T06:38:12Z</time>
      </trkpt>
      <trkpt lat="44.70881" lon="0.90632">
        <ele>225.1</ele>
        <time>2022-08-15T06:38:14Z</time>
      </trkpt>
      <trkpt lat="44.70886" lon="0.9064">
        <ele>225</ele>
        <time>2022-08-15T06:38:16Z</time>
      </trkpt>
      <trkpt lat="44.70888" lon="0.90649">
        <ele>224.9</ele>
        <time>2022-08-15T06:38:18Z</time>
      </trkpt>
      <trkpt lat="44.70893" lon="0.90658">
        <ele>224.9</ele>
        <time>2022-08-15T06:38:20Z</time>
      </trkpt>
      <trkpt lat="44.70895" lon="0.90667">
        <ele>224.7</ele>
        <time>2022-08-15T06:38:22Z</time>
      </trkpt>
      <trkpt lat="44.70899" lon="0.90675">
        <ele>224.7</ele>
        <time>2022-08-15T06:38:24Z</time>
      </trkpt>
      <trkpt lat="44.70901" lon="0.90687">
        <ele>224.6</ele>
        <time>2022-08-15T06:38:26Z</time>
      </trkpt>
      <trkpt lat="44.70904" lon="0.90696">
        <ele>224.5</ele>
        <time>2022-08-15T06:38:28Z</time>
      </trkpt>
      <trkpt lat="44.70907" lon="0.90706">
        <ele>224.4</ele>
        <time>2022-08-15T06:38:30Z</time>
      </trkpt>
      <trkpt lat="44.70911" lon="0.90716">
        <ele>224.3</ele>
        <time>2022-08-15T06:38:32Z</time>
      </trkpt>
      <trkpt lat="44.70915" lon="0.90725">
        <ele>224.3</ele>
        <time>2022-08-15T06:38:34Z</time>
      </trkpt>
      <trkpt lat="44.70919" lon="0.90735">
        <ele>224.3</ele>
        <time>2022-08-15T06:38:36Z</time>
      </trkpt>
      <trkpt lat="44.70922" lon="0.90744">
        <ele>224.3</ele>
        <time>2022-08-15T06:38:38Z</time>
      </trkpt>
      <trkpt lat="44.70925" lon="0.90754">
        <ele>224.5</ele>
        <time>2022-08-15T06:38:40Z</time>
      </trkpt>
      <trkpt lat="44.70928" lon="0.90764">
        <ele>224.8</ele>
        <time>2022-08-15T06:38:42Z</time>
      </trkpt>
      <trkpt lat="44.70931" lon="0.90774">
        <ele>225.1</ele>
        <time>2022-08-15T06:38:44Z</time>
      </trkpt>
      <trkpt lat="44.70934" lon="0.90783">
        <ele>225.4</ele>
        <time>2022-08-15T06:38:46Z</time>
      </trkpt>
      <trkpt lat="44.70938" lon="0.90792">
        <ele>225.6</ele>
        <time>2022-08-15T06:38:48Z</time>
      </trkpt>
      <trkpt lat="44.70941" lon="0.90802">
        <ele>225.9</ele>
        <time>2022-08-15T06:38:50Z</time>
      </trkpt>
      <trkpt lat="44.70945" lon="0.9081">
        <ele>226.1</ele>
        <time>2022-08-15T06:38:52Z</time>
      </trkpt>
      <trkpt lat="44.70948" lon="0.90819">
        <ele>226.2</ele>
        <time>2022-08-15T06:38:54Z</time>
      </trkpt>
      <trkpt lat="44.70952" lon="0.90827">
        <ele>226.4</ele>
        <time>2022-08-15T06:38:56Z</time>
      </trkpt>
      <trkpt lat="44.70953" lon="0.90836">
        <ele>226.4</ele>
        <time>2022-08-15T06:38:58Z</time>
      </trkpt>
      <trkpt lat="44.70958" lon="0.90843">
        <ele>226.3</ele>
        <time>2022-08-15T06:39:00Z</time>
      </trkpt>
      <trkpt lat="44.70962" lon="0.90852">
        <ele>226.2</ele>
        <time>2022-08-15T06:39:02Z</time>
      </trkpt>
      <trkpt lat="44.70965" lon="0.90861">
        <ele>226.1</ele>
        <time>2022-08-15T06:39:04Z</time>
      </trkpt>
      <trkpt lat="44.70969" lon="0.90869">
        <ele>225.9</ele>
        <time>2022-08-15T06:39:06Z</time>
      </trkpt>
      <trkpt lat="44.70972" lon="0.9088">
        <ele>225.7</ele>
        <time>2022-08-15T06:39:08Z</time>
      </trkpt>
      <trkpt lat="44.70974" lon="0.90887">
        <ele>225.6</ele>
        <time>2022-08-15T06:39:10Z</time>
      </trkpt>
      <trkpt lat="44.70976" lon="0.90897">
        <ele>225.4</ele>
        <time>2022-08-15T06:39:12Z</time>
      </trkpt>
      <trkpt lat="44.70977" lon="0.90909">
        <ele>225.2</ele>
        <time>2022-08-15T06:39:14Z</time>
      </trkpt>
      <trkpt lat="44.70978" lon="0.90918">
        <ele>225</ele>
        <time>2022-08-15T06:39:16Z</time>
      </trkpt>
      <trkpt lat="44.70979" lon="0.90928">
        <ele>224.8</ele>
        <time>2022-08-15T06:39:18Z</time>
      </trkpt>
      <trkpt lat="44.7098" lon="0.90937">
        <ele>224.7</ele>
        <time>2022-08-15T06:39:20Z</time>
      </trkpt>
      <trkpt lat="44.70981" lon="0.90949">
        <ele>224.5</ele>
        <time>2022-08-15T06:39:22Z</time>
      </trkpt>
      <trkpt lat="44.70982" lon="0.90959">
        <ele>224.4</ele>
        <time>2022-08-15T06:39:24Z</time>
      </trkpt>
      <trkpt lat="44.70983" lon="0.9097">
        <ele>224.2</ele>
        <time>2022-08-15T06:39:26Z</time>
      </trkpt>
      <trkpt lat="44.70983" lon="0.90981">
        <ele>224.1</ele>
        <time>2022-08-15T06:39:28Z</time>
      </trkpt>
      <trkpt lat="44.70984" lon="0.90992">
        <ele>223.9</ele>
        <time>2022-08-15T06:39:30Z</time>
      </trkpt>
      <trkpt lat="44.70985" lon="0.91003">
        <ele>223.8</ele>
        <time>2022-08-15T06:39:32Z</time>
      </trkpt>
      <trkpt lat="44.70985" lon="0.91013">
        <ele>223.7</ele>
        <time>2022-08-15T06:39:34Z</time>
      </trkpt>
      <trkpt lat="44.70986" lon="0.91024">
        <ele>223.6</ele>
        <time>2022-08-15T06:39:36Z</time>
      </trkpt>
      <trkpt lat="44.70987" lon="0.91034">
        <ele>223.6</ele>
        <time>2022-08-15T06:39:38Z</time>
      </trkpt>
      <trkpt lat="44.70987" lon="0.91045">
        <ele>223.5</ele>
        <time>2022-08-15T06:39:40Z</time>
      </trkpt>
      <trkpt lat="44.70988" lon="0.91055">
        <ele>223.4</ele>
        <time>2022-08-15T06:39:42Z</time>
      </trkpt>
      <trkpt lat="44.70988" lon="0.91065">
        <ele>223.3</ele>
        <time>2022-08-15T06:39:44Z</time>
      </trkpt>
      <trkpt lat="44.70988" lon="0.91077">
        <ele>223.2</ele>
        <time>2022-08-15T06:39:46Z</time>
      </trkpt>
      <trkpt lat="44.70988" lon="0.91087">
        <ele>223.2</ele>
        <time>2022-08-15T06:39:48Z</time>
      </trkpt>
      <trkpt lat="44.70988" lon="0.91097">
        <ele>223.3</ele>
        <time>2022-08-15T06:39:50Z</time>
      </trkpt>
      <trkpt lat="44.70987" lon="0.91108">
        <ele>223.4</ele>
        <time>2022-08-15T06:39:52Z</time>
      </trkpt>
      <trkpt lat="44.70986" lon="0.91117">
        <ele>223.5</ele>
        <time>2022-08-15T06:39:54Z</time>
      </trkpt>
      <trkpt lat="44.70985" lon="0.91127">
        <ele>223.6</ele>
        <time>2022-08-15T06:39:56Z</time>
      </trkpt>
      <trkpt lat="44.70984" lon="0.91136">
        <ele>223.7</ele>
        <time>2022-08-15T06:39:58Z</time>
      </trkpt>
      <trkpt lat="44.70982" lon="0.91144">
        <ele>223.8</ele>
        <time>2022-08-15T06:40:00Z</time>
      </trkpt>
      <trkpt lat="44.7098" lon="0.91152">
        <ele>223.9</ele>
        <time>2022-08-15T06:40:02Z</time>
      </trkpt>
      <trkpt lat="44.70979" lon="0.91158">
        <ele>223.9</ele>
        <time>2022-08-15T06:40:04Z</time>
      </trkpt>
      <trkpt lat="44.70978" lon="0.91165">
        <ele>224</ele>
        <time>2022-08-15T06:40:06Z</time>
      </trkpt>
      <trkpt lat="44.70976" lon="0.91172">
        <ele>224</ele>
        <time>2022-08-15T06:40:08Z</time>
      </trkpt>
      <trkpt lat="44.70975" lon="0.91178">
        <ele>224.1</ele>
        <time>2022-08-15T06:40:10Z</time>
      </trkpt>
      <trkpt lat="44.70973" lon="0.91184">
        <ele>224.1</ele>
        <time>2022-08-15T06:40:12Z</time>
      </trkpt>
      <trkpt lat="44.70972" lon="0.9119">
        <ele>224.1</ele>
        <time>2022-08-15T06:40:14Z</time>
      </trkpt>
      <trkpt lat="44.70971" lon="0.91192">
        <ele>224.1</ele>
        <time>2022-08-15T06:40:16Z</time>
      </trkpt>
      <trkpt lat="44.7097" lon="0.91196">
        <ele>224.1</ele>
        <time>2022-08-15T06:40:18Z</time>
      </trkpt>
      <trkpt lat="44.70969" lon="0.91202">
        <ele>224.1</ele>
        <time>2022-08-15T06:40:20Z</time>
      </trkpt>
      <trkpt lat="44.70967" lon="0.91208">
        <ele>224.1</ele>
        <time>2022-08-15T06:40:22Z</time>
      </trkpt>
      <trkpt lat="44.70966" lon="0.91214">
        <ele>224.1</ele>
        <time>2022-08-15T06:40:24Z</time>
      </trkpt>
      <trkpt lat="44.70964" lon="0.91221">
        <ele>224.1</ele>
        <time>2022-08-15T06:40:26Z</time>
      </trkpt>
      <trkpt lat="44.70963" lon="0.91228">
        <ele>224.1</ele>
        <time>2022-08-15T06:40:28Z</time>
      </trkpt>
      <trkpt lat="44.70961" lon="0.91236">
        <ele>224.1</ele>
        <time>2022-08-15T06:40:30Z</time>
      </trkpt>
      <trkpt lat="44.70959" lon="0.91246">
        <ele>224</ele>
        <time>2022-08-15T06:40:32Z</time>
      </trkpt>
      <trkpt lat="44.70958" lon="0.91256">
        <ele>223.9</ele>
        <time>2022-08-15T06:40:34Z</time>
      </trkpt>
      <trkpt lat="44.70956" lon="0.91267">
        <ele>223.8</ele>
        <time>2022-08-15T06:40:36Z</time>
      </trkpt>
      <trkpt lat="44.70955" lon="0.91279">
        <ele>223.8</ele>
        <time>2022-08-15T06:40:38Z</time>
      </trkpt>
      <trkpt lat="44.70954" lon="0.91291">
        <ele>223.7</ele>
        <time>2022-08-15T06:40:40Z</time>
      </trkpt>
      <trkpt lat="44.70953" lon="0.91303">
        <ele>223.6</ele>
        <time>2022-08-15T06:40:42Z</time>
      </trkpt>
      <trkpt lat="44.70952" lon="0.91316">
        <ele>223.5</ele>
        <time>2022-08-15T06:40:44Z</time>
      </trkpt>
      <trkpt lat="44.70952" lon="0.91328">
        <ele>223.5</ele>
        <time>2022-08-15T06:40:46Z</time>
      </trkpt>
      <trkpt lat="44.70951" lon="0.9134">
        <ele>223.5</ele>
        <time>2022-08-15T06:40:48Z</time>
      </trkpt>
      <trkpt lat="44.70951" lon="0.91352">
        <ele>223.7</ele>
        <time>2022-08-15T06:40:50Z</time>
      </trkpt>
      <trkpt lat="44.7095" lon="0.91363">
        <ele>223.9</ele>
        <time>2022-08-15T06:40:52Z</time>
      </trkpt>
      <trkpt lat="44.70949" lon="0.91373">
        <ele>224.1</ele>
        <time>2022-08-15T06:40:54Z</time>
      </trkpt>
      <trkpt lat="44.70948" lon="0.91385">
        <ele>224.2</ele>
        <time>2022-08-15T06:40:56Z</time>
      </trkpt>
      <trkpt lat="44.70946" lon="0.91395">
        <ele>224.4</ele>
        <time>2022-08-15T06:40:58Z</time>
      </trkpt>
      <trkpt lat="44.70945" lon="0.91407">
        <ele>224.5</ele>
        <time>2022-08-15T06:41:00Z</time>
      </trkpt>
      <trkpt lat="44.70943" lon="0.91418">
        <ele>224.6</ele>
        <time>2022-08-15T06:41:02Z</time>
      </trkpt>
      <trkpt lat="44.70942" lon="0.91428">
        <ele>224.7</ele>
        <time>2022-08-15T06:41:04Z</time>
      </trkpt>
      <trkpt lat="44.7094" lon="0.91439">
        <ele>224.8</ele>
        <time>2022-08-15T06:41:06Z</time>
      </trkpt>
      <trkpt lat="44.70938" lon="0.9145">
        <ele>224.8</ele>
        <time>2022-08-15T06:41:08Z</time>
      </trkpt>
      <trkpt lat="44.70936" lon="0.91461">
        <ele>224.8</ele>
        <time>2022-08-15T06:41:10Z</time>
      </trkpt>
      <trkpt lat="44.70934" lon="0.91473">
        <ele>224.8</ele>
        <time>2022-08-15T06:41:12Z</time>
      </trkpt>
      <trkpt lat="44.70932" lon="0.91485">
        <ele>224.8</ele>
        <time>2022-08-15T06:41:14Z</time>
      </trkpt>
      <trkpt lat="44.70931" lon="0.91498">
        <ele>224.8</ele>
        <time>2022-08-15T06:41:16Z</time>
      </trkpt>
      <trkpt lat="44.7093" lon="0.91511">
        <ele>225.1</ele>
        <time>2022-08-15T06:41:18Z</time>
      </trkpt>
      <trkpt lat="44.70929" lon="0.91523">
        <ele>225.4</ele>
        <time>2022-08-15T06:41:20Z</time>
      </trkpt>
      <trkpt lat="44.7093" lon="0.91536">
        <ele>225.8</ele>
        <time>2022-08-15T06:41:22Z</time>
      </trkpt>
      <trkpt lat="44.7093" lon="0.91549">
        <ele>226.2</ele>
        <time>2022-08-15T06:41:24Z</time>
      </trkpt>
      <trkpt lat="44.70931" lon="0.91562">
        <ele>226.6</ele>
        <time>2022-08-15T06:41:26Z</time>
      </trkpt>
      <trkpt lat="44.70933" lon="0.91575">
        <ele>227</ele>
        <time>2022-08-15T06:41:28Z</time>
      </trkpt>
      <trkpt lat="44.70935" lon="0.91586">
        <ele>227.3</ele>
        <time>2022-08-15T06:41:30Z</time>
      </trkpt>
      <trkpt lat="44.70936" lon="0.91598">
        <ele>227.7</ele>
        <time>2022-08-15T06:41:32Z</time>
      </trkpt>
      <trkpt lat="44.70938" lon="0.91609">
        <ele>228</ele>
        <time>2022-08-15T06:41:34Z</time>
      </trkpt>
      <trkpt lat="44.7094" lon="0.91619">
        <ele>228.3</ele>
        <time>2022-08-15T06:41:36Z</time>
      </trkpt>
      <trkpt lat="44.70942" lon="0.9163">
        <ele>228.6</ele>
        <time>2022-08-15T06:41:38Z</time>
      </trkpt>
      <trkpt lat="44.70944" lon="0.91639">
        <ele>228.9</ele>
        <time>2022-08-15T06:41:40Z</time>
      </trkpt>
      <trkpt lat="44.70947" lon="0.91649">
        <ele>229.2</ele>
        <time>2022-08-15T06:41:42Z</time>
      </trkpt>
      <trkpt lat="44.7095" lon="0.91657">
        <ele>229.4</ele>
        <time>2022-08-15T06:41:44Z</time>
      </trkpt>
      <trkpt lat="44.70952" lon="0.91665">
        <ele>229.5</ele>
        <time>2022-08-15T06:41:46Z</time>
      </trkpt>
      <trkpt lat="44.70954" lon="0.91672">
        <ele>229.9</ele>
        <time>2022-08-15T06:41:48Z</time>
      </trkpt>
      <trkpt lat="44.70956" lon="0.91678">
        <ele>230.4</ele>
        <time>2022-08-15T06:41:50Z</time>
      </trkpt>
      <trkpt lat="44.70958" lon="0.91685">
        <ele>230.9</ele>
        <time>2022-08-15T06:41:52Z</time>
      </trkpt>
      <trkpt lat="44.70961" lon="0.91691">
        <ele>231.4</ele>
        <time>2022-08-15T06:41:54Z</time>
      </trkpt>
      <trkpt lat="44.70962" lon="0.91698">
        <ele>231.9</ele>
        <time>2022-08-15T06:41:56Z</time>
      </trkpt>
      <trkpt lat="44.70964" lon="0.91705">
        <ele>232.4</ele>
        <time>2022-08-15T06:41:58Z</time>
      </trkpt>
      <trkpt lat="44.70965" lon="0.91711">
        <ele>232.8</ele>
        <time>2022-08-15T06:42:00Z</time>
      </trkpt>
      <trkpt lat="44.70967" lon="0.91718">
        <ele>233.3</ele>
        <time>2022-08-15T06:42:02Z</time>
      </trkpt>
      <trkpt lat="44.70968" lon="0.91724">
        <ele>233.8</ele>
        <time>2022-08-15T06:42:04Z</time>
      </trkpt>
      <trkpt lat="44.70968" lon="0.91731">
        <ele>234.3</ele>
        <time>2022-08-15T06:42:06Z</time>
      </trkpt>
      <trkpt lat="44.70968" lon="0.91738">
        <ele>234.8</ele>
        <time>2022-08-15T06:42:08Z</time>
      </trkpt>
      <trkpt lat="44.70967" lon="0.91744">
        <ele>235.3</ele>
        <time>2022-08-15T06:42:10Z</time>
      </trkpt>
      <trkpt lat="44.70967" lon="0.91751">
        <ele>235.8</ele>
        <time>2022-08-15T06:42:12Z</time>
      </trkpt>
      <trkpt lat="44.70965" lon="0.91757">
        <ele>236.1</ele>
        <time>2022-08-15T06:42:14Z</time>
      </trkpt>
      <trkpt lat="44.70964" lon="0.91764">
        <ele>236.4</ele>
        <time>2022-08-15T06:42:16Z</time>
      </trkpt>
      <trkpt lat="44.70961" lon="0.9177">
        <ele>236.7</ele>
        <time>2022-08-15T06:42:18Z</time>
      </trkpt>
      <trkpt lat="44.70959" lon="0.91776">
        <ele>236.9</ele>
        <time>2022-08-15T06:42:20Z</time>
      </trkpt>
      <trkpt lat="44.70955" lon="0.91782">
        <ele>237.2</ele>
        <time>2022-08-15T06:42:22Z</time>
      </trkpt>
      <trkpt lat="44.70951" lon="0.91789">
        <ele>237.5</ele>
        <time>2022-08-15T06:42:24Z</time>
      </trkpt>
      <trkpt lat="44.70947" lon="0.91795">
        <ele>237.8</ele>
        <time>2022-08-15T06:42:26Z</time>
      </trkpt>
      <trkpt lat="44.70943" lon="0.91802">
        <ele>238</ele>
        <time>2022-08-15T06:42:28Z</time>
      </trkpt>
      <trkpt lat="44.70938" lon="0.91808">
        <ele>238.2</ele>
        <time>2022-08-15T06:42:30Z</time>
      </trkpt>
      <trkpt lat="44.70934" lon="0.91816">
        <ele>238.5</ele>
        <time>2022-08-15T06:42:32Z</time>
      </trkpt>
      <trkpt lat="44.70929" lon="0.91823">
        <ele>238.7</ele>
        <time>2022-08-15T06:42:34Z</time>
      </trkpt>
      <trkpt lat="44.70924" lon="0.9183">
        <ele>238.9</ele>
        <time>2022-08-15T06:42:36Z</time>
      </trkpt>
      <trkpt lat="44.70918" lon="0.91838">
        <ele>238.9</ele>
        <time>2022-08-15T06:42:38Z</time>
      </trkpt>
      <trkpt lat="44.70913" lon="0.91847">
        <ele>238.7</ele>
        <time>2022-08-15T06:42:40Z</time>
      </trkpt>
      <trkpt lat="44.70908" lon="0.91855">
        <ele>238.3</ele>
        <time>2022-08-15T06:42:42Z</time>
      </trkpt>
      <trkpt lat="44.70903" lon="0.91863">
        <ele>238</ele>
        <time>2022-08-15T06:42:44Z</time>
      </trkpt>
      <trkpt lat="44.70899" lon="0.91872">
        <ele>237.7</ele>
        <time>2022-08-15T06:42:46Z</time>
      </trkpt>
      <trkpt lat="44.70894" lon="0.91882">
        <ele>237.3</ele>
        <time>2022-08-15T06:42:48Z</time>
      </trkpt>
      <trkpt lat="44.70891" lon="0.91892">
        <ele>237.1</ele>
        <time>2022-08-15T06:42:50Z</time>
      </trkpt>
      <trkpt lat="44.70887" lon="0.91902">
        <ele>236.8</ele>
        <time>2022-08-15T06:42:52Z</time>
      </trkpt>
      <trkpt lat="44.70884" lon="0.91911">
        <ele>236.5</ele>
        <time>2022-08-15T06:42:54Z</time>
      </trkpt>
      <trkpt lat="44.70881" lon="0.91923">
        <ele>236.2</ele>
        <time>2022-08-15T06:42:56Z</time>
      </trkpt>
      <trkpt lat="44.70879" lon="0.9193">
        <ele>236.1</ele>
        <time>2022-08-15T06:42:58Z</time>
      </trkpt>
      <trkpt lat="44.70874" lon="0.91943">
        <ele>235.8</ele>
        <time>2022-08-15T06:43:00Z</time>
      </trkpt>
      <trkpt lat="44.7087" lon="0.91955">
        <ele>235.6</ele>
        <time>2022-08-15T06:43:02Z</time>
      </trkpt>
      <trkpt lat="44.70867" lon="0.91966">
        <ele>235.4</ele>
        <time>2022-08-15T06:43:04Z</time>
      </trkpt>
      <trkpt lat="44.70865" lon="0.9198">
        <ele>235.2</ele>
        <time>2022-08-15T06:43:06Z</time>
      </trkpt>
      <trkpt lat="44.70861" lon="0.91993">
        <ele>235</ele>
        <time>2022-08-15T06:43:08Z</time>
      </trkpt>
      <trkpt lat="44.70857" lon="0.92005">
        <ele>234.8</ele>
        <time>2022-08-15T06:43:10Z</time>
      </trkpt>
      <trkpt lat="44.70854" lon="0.92018">
        <ele>234.5</ele>
        <time>2022-08-15T06:43:12Z</time>
      </trkpt>
      <trkpt lat="44.70851" lon="0.92031">
        <ele>234.2</ele>
        <time>2022-08-15T06:43:14Z</time>
      </trkpt>
      <trkpt lat="44.70847" lon="0.92044">
        <ele>233.9</ele>
        <time>2022-08-15T06:43:16Z</time>
      </trkpt>
      <trkpt lat="44.70844" lon="0.92054">
        <ele>233.7</ele>
        <time>2022-08-15T06:43:18Z</time>
      </trkpt>
      <trkpt lat="44.70841" lon="0.92065">
        <ele>233.4</ele>
        <time>2022-08-15T06:43:20Z</time>
      </trkpt>
      <trkpt lat="44.70838" lon="0.92079">
        <ele>233.2</ele>
        <time>2022-08-15T06:43:22Z</time>
      </trkpt>
      <trkpt lat="44.70833" lon="0.9209">
        <ele>233</ele>
        <time>2022-08-15T06:43:24Z</time>
      </trkpt>
      <trkpt lat="44.70832" lon="0.921">
        <ele>233</ele>
        <time>2022-08-15T06:43:26Z</time>
      </trkpt>
      <trkpt lat="44.70831" lon="0.92108">
        <ele>233.1</ele>
        <time>2022-08-15T06:43:28Z</time>
      </trkpt>
      <trkpt lat="44.70827" lon="0.92119">
        <ele>233.2</ele>
        <time>2022-08-15T06:43:30Z</time>
      </trkpt>
      <trkpt lat="44.70824" lon="0.92131">
        <ele>233.2</ele>
        <time>2022-08-15T06:43:32Z</time>
      </trkpt>
      <trkpt lat="44.7082" lon="0.92143">
        <ele>233.4</ele>
        <time>2022-08-15T06:43:34Z</time>
      </trkpt>
      <trkpt lat="44.70815" lon="0.92154">
        <ele>233.6</ele>
        <time>2022-08-15T06:43:36Z</time>
      </trkpt>
      <trkpt lat="44.70812" lon="0.92168">
        <ele>233.8</ele>
        <time>2022-08-15T06:43:38Z</time>
      </trkpt>
      <trkpt lat="44.70806" lon="0.92179">
        <ele>233.9</ele>
        <time>2022-08-15T06:43:40Z</time>
      </trkpt>
      <trkpt lat="44.70804" lon="0.92193">
        <ele>233.8</ele>
        <time>2022-08-15T06:43:42Z</time>
      </trkpt>
      <trkpt lat="44.70801" lon="0.92205">
        <ele>233.9</ele>
        <time>2022-08-15T06:43:44Z</time>
      </trkpt>
      <trkpt lat="44.70797" lon="0.92216">
        <ele>234</ele>
        <time>2022-08-15T06:43:46Z</time>
      </trkpt>
      <trkpt lat="44.70794" lon="0.92227">
        <ele>234</ele>
        <time>2022-08-15T06:43:48Z</time>
      </trkpt>
      <trkpt lat="44.7079" lon="0.92238">
        <ele>234.1</ele>
        <time>2022-08-15T06:43:50Z</time>
      </trkpt>
      <trkpt lat="44.70787" lon="0.92248">
        <ele>234.2</ele>
        <time>2022-08-15T06:43:52Z</time>
      </trkpt>
      <trkpt lat="44.70783" lon="0.92258">
        <ele>234.2</ele>
        <time>2022-08-15T06:43:54Z</time>
      </trkpt>
      <trkpt lat="44.70779" lon="0.92266">
        <ele>234.1</ele>
        <time>2022-08-15T06:43:56Z</time>
      </trkpt>
      <trkpt lat="44.70776" lon="0.92275">
        <ele>234</ele>
        <time>2022-08-15T06:43:58Z</time>
      </trkpt>
      <trkpt lat="44.70771" lon="0.92282">
        <ele>233.9</ele>
        <time>2022-08-15T06:44:00Z</time>
      </trkpt>
      <trkpt lat="44.70766" lon="0.9229">
        <ele>233.9</ele>
        <time>2022-08-15T06:44:02Z</time>
      </trkpt>
      <trkpt lat="44.70763" lon="0.92296">
        <ele>233.8</ele>
        <time>2022-08-15T06:44:04Z</time>
      </trkpt>
      <trkpt lat="44.70759" lon="0.92303">
        <ele>233.7</ele>
        <time>2022-08-15T06:44:06Z</time>
      </trkpt>
      <trkpt lat="44.70755" lon="0.92309">
        <ele>233.7</ele>
        <time>2022-08-15T06:44:08Z</time>
      </trkpt>
      <trkpt lat="44.70752" lon="0.92314">
        <ele>233.6</ele>
        <time>2022-08-15T06:44:10Z</time>
      </trkpt>
      <trkpt lat="44.70749" lon="0.9232">
        <ele>233.5</ele>
        <time>2022-08-15T06:44:12Z</time>
      </trkpt>
      <trkpt lat="44.70745" lon="0.92325">
        <ele>233.3</ele>
        <time>2022-08-15T06:44:14Z</time>
      </trkpt>
      <trkpt lat="44.70742" lon="0.92331">
        <ele>233.2</ele>
        <time>2022-08-15T06:44:16Z</time>
      </trkpt>
      <trkpt lat="44.70739" lon="0.92337">
        <ele>233.1</ele>
        <time>2022-08-15T06:44:18Z</time>
      </trkpt>
      <trkpt lat="44.70735" lon="0.92342">
        <ele>233.2</ele>
        <time>2022-08-15T06:44:20Z</time>
      </trkpt>
      <trkpt lat="44.70732" lon="0.92348">
        <ele>233.2</ele>
        <time>2022-08-15T06:44:22Z</time>
      </trkpt>
      <trkpt lat="44.7073" lon="0.92353">
        <ele>233.3</ele>
        <time>2022-08-15T06:44:24Z</time>
      </trkpt>
      <trkpt lat="44.70727" lon="0.92357">
        <ele>233.4</ele>
        <time>2022-08-15T06:44:26Z</time>
      </trkpt>
      <trkpt lat="44.70725" lon="0.9236">
        <ele>233.5</ele>
        <time>2022-08-15T06:44:28Z</time>
      </trkpt>
      <trkpt lat="44.70724" lon="0.92364">
        <ele>233.5</ele>
        <time>2022-08-15T06:44:30Z</time>
      </trkpt>
      <trkpt lat="44.70722" lon="0.92369">
        <ele>233.6</ele>
        <time>2022-08-15T06:44:32Z</time>
      </trkpt>
      <trkpt lat="44.70721" lon="0.92377">
        <ele>233.7</ele>
        <time>2022-08-15T06:44:34Z</time>
      </trkpt>
      <trkpt lat="44.70722" lon="0.92386">
        <ele>233.7</ele>
        <time>2022-08-15T06:44:36Z</time>
      </trkpt>
      <trkpt lat="44.70726" lon="0.92396">
        <ele>233.6</ele>
        <time>2022-08-15T06:44:38Z</time>
      </trkpt>
      <trkpt lat="44.70729" lon="0.92406">
        <ele>233.5</ele>
        <time>2022-08-15T06:44:40Z</time>
      </trkpt>
      <trkpt lat="44.70732" lon="0.92418">
        <ele>233.3</ele>
        <time>2022-08-15T06:44:42Z</time>
      </trkpt>
      <trkpt lat="44.70734" lon="0.9243">
        <ele>233.3</ele>
        <time>2022-08-15T06:44:44Z</time>
      </trkpt>
      <trkpt lat="44.70737" lon="0.92443">
        <ele>233.3</ele>
        <time>2022-08-15T06:44:46Z</time>
      </trkpt>
      <trkpt lat="44.70739" lon="0.92456">
        <ele>233.3</ele>
        <time>2022-08-15T06:44:48Z</time>
      </trkpt>
      <trkpt lat="44.70741" lon="0.92469">
        <ele>233.3</ele>
        <time>2022-08-15T06:44:50Z</time>
      </trkpt>
      <trkpt lat="44.70742" lon="0.92482">
        <ele>233.4</ele>
        <time>2022-08-15T06:44:52Z</time>
      </trkpt>
      <trkpt lat="44.70743" lon="0.92497">
        <ele>233.5</ele>
        <time>2022-08-15T06:44:54Z</time>
      </trkpt>
      <trkpt lat="44.70744" lon="0.92512">
        <ele>233.2</ele>
        <time>2022-08-15T06:44:56Z</time>
      </trkpt>
      <trkpt lat="44.70744" lon="0.92526">
        <ele>232.8</ele>
        <time>2022-08-15T06:44:58Z</time>
      </trkpt>
      <trkpt lat="44.70745" lon="0.92542">
        <ele>232.3</ele>
        <time>2022-08-15T06:45:00Z</time>
      </trkpt>
      <trkpt lat="44.70746" lon="0.92558">
        <ele>231.9</ele>
        <time>2022-08-15T06:45:02Z</time>
      </trkpt>
      <trkpt lat="44.70746" lon="0.92574">
        <ele>231.4</ele>
        <time>2022-08-15T06:45:04Z</time>
      </trkpt>
      <trkpt lat="44.70747" lon="0.92591">
        <ele>231.1</ele>
        <time>2022-08-15T06:45:06Z</time>
      </trkpt>
      <trkpt lat="44.70749" lon="0.92608">
        <ele>231.1</ele>
        <time>2022-08-15T06:45:08Z</time>
      </trkpt>
      <trkpt lat="44.7075" lon="0.92624">
        <ele>231</ele>
        <time>2022-08-15T06:45:10Z</time>
      </trkpt>
      <trkpt lat="44.70752" lon="0.92641">
        <ele>231.1</ele>
        <time>2022-08-15T06:45:12Z</time>
      </trkpt>
      <trkpt lat="44.70754" lon="0.92657">
        <ele>231.3</ele>
        <time>2022-08-15T06:45:14Z</time>
      </trkpt>
      <trkpt lat="44.70756" lon="0.92674">
        <ele>231.4</ele>
        <time>2022-08-15T06:45:16Z</time>
      </trkpt>
      <trkpt lat="44.70759" lon="0.92691">
        <ele>231.4</ele>
        <time>2022-08-15T06:45:18Z</time>
      </trkpt>
      <trkpt lat="44.70761" lon="0.92708">
        <ele>231.5</ele>
        <time>2022-08-15T06:45:20Z</time>
      </trkpt>
      <trkpt lat="44.70764" lon="0.92725">
        <ele>231.5</ele>
        <time>2022-08-15T06:45:22Z</time>
      </trkpt>
      <trkpt lat="44.70766" lon="0.92743">
        <ele>231.6</ele>
        <time>2022-08-15T06:45:24Z</time>
      </trkpt>
      <trkpt lat="44.70768" lon="0.92763">
        <ele>231.2</ele>
        <time>2022-08-15T06:45:26Z</time>
      </trkpt>
      <trkpt lat="44.70771" lon="0.92782">
        <ele>230.5</ele>
        <time>2022-08-15T06:45:28Z</time>
      </trkpt>
      <trkpt lat="44.70773" lon="0.92802">
        <ele>229.8</ele>
        <time>2022-08-15T06:45:30Z</time>
      </trkpt>
      <trkpt lat="44.70774" lon="0.92823">
        <ele>228.9</ele>
        <time>2022-08-15T06:45:32Z</time>
      </trkpt>
      <trkpt lat="44.70774" lon="0.92844">
        <ele>228.3</ele>
        <time>2022-08-15T06:45:34Z</time>
      </trkpt>
      <trkpt lat="44.70773" lon="0.92864">
        <ele>227.9</ele>
        <time>2022-08-15T06:45:36Z</time>
      </trkpt>
      <trkpt lat="44.70773" lon="0.92885">
        <ele>227.6</ele>
        <time>2022-08-15T06:45:38Z</time>
      </trkpt>
      <trkpt lat="44.70772" lon="0.92906">
        <ele>227.2</ele>
        <time>2022-08-15T06:45:40Z</time>
      </trkpt>
      <trkpt lat="44.70771" lon="0.92927">
        <ele>227.2</ele>
        <time>2022-08-15T06:45:42Z</time>
      </trkpt>
      <trkpt lat="44.70771" lon="0.92948">
        <ele>227.7</ele>
        <time>2022-08-15T06:45:44Z</time>
      </trkpt>
      <trkpt lat="44.7077" lon="0.92969">
        <ele>228.1</ele>
        <time>2022-08-15T06:45:46Z</time>
      </trkpt>
      <trkpt lat="44.7077" lon="0.9299">
        <ele>228.5</ele>
        <time>2022-08-15T06:45:48Z</time>
      </trkpt>
      <trkpt lat="44.7077" lon="0.93011">
        <ele>229</ele>
        <time>2022-08-15T06:45:50Z</time>
      </trkpt>
      <trkpt lat="44.7077" lon="0.93031">
        <ele>229.7</ele>
        <time>2022-08-15T06:45:52Z</time>
      </trkpt>
      <trkpt lat="44.70771" lon="0.93051">
        <ele>230.3</ele>
        <time>2022-08-15T06:45:54Z</time>
      </trkpt>
      <trkpt lat="44.70771" lon="0.93071">
        <ele>230.9</ele>
        <time>2022-08-15T06:45:56Z</time>
      </trkpt>
      <trkpt lat="44.70772" lon="0.93091">
        <ele>231.2</ele>
        <time>2022-08-15T06:45:58Z</time>
      </trkpt>
      <trkpt lat="44.70773" lon="0.93111">
        <ele>231.1</ele>
        <time>2022-08-15T06:46:00Z</time>
      </trkpt>
      <trkpt lat="44.70775" lon="0.93131">
        <ele>231</ele>
        <time>2022-08-15T06:46:02Z</time>
      </trkpt>
      <trkpt lat="44.70777" lon="0.93151">
        <ele>230.8</ele>
        <time>2022-08-15T06:46:04Z</time>
      </trkpt>
      <trkpt lat="44.70779" lon="0.93171">
        <ele>230.7</ele>
        <time>2022-08-15T06:46:06Z</time>
      </trkpt>
      <trkpt lat="44.70783" lon="0.9319">
        <ele>230.7</ele>
        <time>2022-08-15T06:46:08Z</time>
      </trkpt>
      <trkpt lat="44.70787" lon="0.93209">
        <ele>230.6</ele>
        <time>2022-08-15T06:46:10Z</time>
      </trkpt>
      <trkpt lat="44.70792" lon="0.93228">
        <ele>230.5</ele>
        <time>2022-08-15T06:46:12Z</time>
      </trkpt>
      <trkpt lat="44.70797" lon="0.93246">
        <ele>230.3</ele>
        <time>2022-08-15T06:46:14Z</time>
      </trkpt>
      <trkpt lat="44.70803" lon="0.93265">
        <ele>229.7</ele>
        <time>2022-08-15T06:46:16Z</time>
      </trkpt>
      <trkpt lat="44.70808" lon="0.93282">
        <ele>229</ele>
        <time>2022-08-15T06:46:18Z</time>
      </trkpt>
      <trkpt lat="44.70814" lon="0.933">
        <ele>228</ele>
        <time>2022-08-15T06:46:20Z</time>
      </trkpt>
      <trkpt lat="44.70822" lon="0.93316">
        <ele>226.8</ele>
        <time>2022-08-15T06:46:22Z</time>
      </trkpt>
      <trkpt lat="44.7083" lon="0.93331">
        <ele>225.4</ele>
        <time>2022-08-15T06:46:24Z</time>
      </trkpt>
      <trkpt lat="44.70838" lon="0.93344">
        <ele>225.3</ele>
        <time>2022-08-15T06:46:26Z</time>
      </trkpt>
      <trkpt lat="44.70847" lon="0.93358">
        <ele>225.5</ele>
        <time>2022-08-15T06:46:28Z</time>
      </trkpt>
      <trkpt lat="44.70856" lon="0.93371">
        <ele>225.5</ele>
        <time>2022-08-15T06:46:30Z</time>
      </trkpt>
      <trkpt lat="44.70866" lon="0.93384">
        <ele>225.1</ele>
        <time>2022-08-15T06:46:32Z</time>
      </trkpt>
      <trkpt lat="44.70875" lon="0.93397">
        <ele>224.5</ele>
        <time>2022-08-15T06:46:34Z</time>
      </trkpt>
      <trkpt lat="44.70885" lon="0.93411">
        <ele>223.5</ele>
        <time>2022-08-15T06:46:36Z</time>
      </trkpt>
      <trkpt lat="44.70893" lon="0.93424">
        <ele>223</ele>
        <time>2022-08-15T06:46:38Z</time>
      </trkpt>
      <trkpt lat="44.70902" lon="0.93437">
        <ele>222.9</ele>
        <time>2022-08-15T06:46:40Z</time>
      </trkpt>
      <trkpt lat="44.7091" lon="0.93446">
        <ele>222.8</ele>
        <time>2022-08-15T06:46:42Z</time>
      </trkpt>
      <trkpt lat="44.70918" lon="0.93451">
        <ele>222.7</ele>
        <time>2022-08-15T06:46:44Z</time>
      </trkpt>
      <trkpt lat="44.70933" lon="0.93449">
        <ele>222.2</ele>
        <time>2022-08-15T06:46:46Z</time>
      </trkpt>
      <trkpt lat="44.70947" lon="0.93445">
        <ele>221.8</ele>
        <time>2022-08-15T06:46:48Z</time>
      </trkpt>
      <trkpt lat="44.7096" lon="0.93438">
        <ele>221</ele>
        <time>2022-08-15T06:46:50Z</time>
      </trkpt>
      <trkpt lat="44.70971" lon="0.93428">
        <ele>219.9</ele>
        <time>2022-08-15T06:46:52Z</time>
      </trkpt>
      <trkpt lat="44.70983" lon="0.93419">
        <ele>218.8</ele>
        <time>2022-08-15T06:46:54Z</time>
      </trkpt>
      <trkpt lat="44.70993" lon="0.93405">
        <ele>219</ele>
        <time>2022-08-15T06:46:56Z</time>
      </trkpt>
      <trkpt lat="44.71015" lon="0.93423">
        <ele>219.2</ele>
        <time>2022-08-15T06:46:58Z</time>
      </trkpt>
      <trkpt lat="44.71026" lon="0.93419">
        <ele>219.2</ele>
        <time>2022-08-15T06:47:00Z</time>
      </trkpt>
      <trkpt lat="44.71038" lon="0.93415">
        <ele>219.4</ele>
        <time>2022-08-15T06:47:02Z</time>
      </trkpt>
      <trkpt lat="44.7105" lon="0.93411">
        <ele>219.9</ele>
        <time>2022-08-15T06:47:04Z</time>
      </trkpt>
      <trkpt lat="44.71062" lon="0.93408">
        <ele>220.3</ele>
        <time>2022-08-15T06:47:06Z</time>
      </trkpt>
      <trkpt lat="44.71074" lon="0.93404">
        <ele>220.6</ele>
        <time>2022-08-15T06:47:08Z</time>
      </trkpt>
      <trkpt lat="44.71087" lon="0.93399">
        <ele>220.8</ele>
        <time>2022-08-15T06:47:10Z</time>
      </trkpt>
      <trkpt lat="44.71099" lon="0.93396">
        <ele>220.6</ele>
        <time>2022-08-15T06:47:12Z</time>
      </trkpt>
      <trkpt lat="44.71112" lon="0.93391">
        <ele>220.5</ele>
        <time>2022-08-15T06:47:14Z</time>
      </trkpt>
      <trkpt lat="44.71125" lon="0.93387">
        <ele>220.3</ele>
        <time>2022-08-15T06:47:16Z</time>
      </trkpt>
      <trkpt lat="44.71139" lon="0.93385">
        <ele>220.2</ele>
        <time>2022-08-15T06:47:18Z</time>
      </trkpt>
      <trkpt lat="44.71153" lon="0.93384">
        <ele>220.1</ele>
        <time>2022-08-15T06:47:20Z</time>
      </trkpt>
      <trkpt lat="44.71167" lon="0.93385">
        <ele>220</ele>
        <time>2022-08-15T06:47:22Z</time>
      </trkpt>
      <trkpt lat="44.7118" lon="0.93385">
        <ele>220.4</ele>
        <time>2022-08-15T06:47:24Z</time>
      </trkpt>
      <trkpt lat="44.71194" lon="0.9339">
        <ele>220.8</ele>
        <time>2022-08-15T06:47:26Z</time>
      </trkpt>
      <trkpt lat="44.71209" lon="0.93393">
        <ele>221.2</ele>
        <time>2022-08-15T06:47:28Z</time>
      </trkpt>
      <trkpt lat="44.71224" lon="0.93397">
        <ele>221.5</ele>
        <time>2022-08-15T06:47:30Z</time>
      </trkpt>
      <trkpt lat="44.71238" lon="0.93402">
        <ele>221.9</ele>
        <time>2022-08-15T06:47:32Z</time>
      </trkpt>
      <trkpt lat="44.71253" lon="0.93407">
        <ele>222</ele>
        <time>2022-08-15T06:47:34Z</time>
      </trkpt>
      <trkpt lat="44.71265" lon="0.93412">
        <ele>221.4</ele>
        <time>2022-08-15T06:47:36Z</time>
      </trkpt>
      <trkpt lat="44.71279" lon="0.93415">
        <ele>220.6</ele>
        <time>2022-08-15T06:47:38Z</time>
      </trkpt>
      <trkpt lat="44.71293" lon="0.93418">
        <ele>220</ele>
        <time>2022-08-15T06:47:40Z</time>
      </trkpt>
      <trkpt lat="44.71307" lon="0.93421">
        <ele>219.5</ele>
        <time>2022-08-15T06:47:42Z</time>
      </trkpt>
      <trkpt lat="44.71321" lon="0.93424">
        <ele>218.8</ele>
        <time>2022-08-15T06:47:44Z</time>
      </trkpt>
      <trkpt lat="44.71335" lon="0.93425">
        <ele>218.2</ele>
        <time>2022-08-15T06:47:46Z</time>
      </trkpt>
      <trkpt lat="44.7135" lon="0.93427">
        <ele>218</ele>
        <time>2022-08-15T06:47:48Z</time>
      </trkpt>
      <trkpt lat="44.71365" lon="0.93428">
        <ele>217.7</ele>
        <time>2022-08-15T06:47:50Z</time>
      </trkpt>
      <trkpt lat="44.71378" lon="0.9343">
        <ele>217.5</ele>
        <time>2022-08-15T06:47:52Z</time>
      </trkpt>
      <trkpt lat="44.71392" lon="0.9343">
        <ele>217.3</ele>
        <time>2022-08-15T06:47:54Z</time>
      </trkpt>
      <trkpt lat="44.71405" lon="0.93433">
        <ele>217</ele>
        <time>2022-08-15T06:47:56Z</time>
      </trkpt>
      <trkpt lat="44.71419" lon="0.93436">
        <ele>216.7</ele>
        <time>2022-08-15T06:47:58Z</time>
      </trkpt>
      <trkpt lat="44.71432" lon="0.9344">
        <ele>216.5</ele>
        <time>2022-08-15T06:48:00Z</time>
      </trkpt>
      <trkpt lat="44.71446" lon="0.93447">
        <ele>216.1</ele>
        <time>2022-08-15T06:48:02Z</time>
      </trkpt>
      <trkpt lat="44.71459" lon="0.93453">
        <ele>215.7</ele>
        <time>2022-08-15T06:48:04Z</time>
      </trkpt>
      <trkpt lat="44.71472" lon="0.9346">
        <ele>215.1</ele>
        <time>2022-08-15T06:48:06Z</time>
      </trkpt>
      <trkpt lat="44.71484" lon="0.93468">
        <ele>214.4</ele>
        <time>2022-08-15T06:48:08Z</time>
      </trkpt>
      <trkpt lat="44.71496" lon="0.93477">
        <ele>213.5</ele>
        <time>2022-08-15T06:48:10Z</time>
      </trkpt>
      <trkpt lat="44.71508" lon="0.93487">
        <ele>212.6</ele>
        <time>2022-08-15T06:48:12Z</time>
      </trkpt>
      <trkpt lat="44.71519" lon="0.93497">
        <ele>211.5</ele>
        <time>2022-08-15T06:48:14Z</time>
      </trkpt>
      <trkpt lat="44.71529" lon="0.93507">
        <ele>211.2</ele>
        <time>2022-08-15T06:48:16Z</time>
      </trkpt>
      <trkpt lat="44.71539" lon="0.93518">
        <ele>211</ele>
        <time>2022-08-15T06:48:18Z</time>
      </trkpt>
      <trkpt lat="44.71549" lon="0.9353">
        <ele>210.8</ele>
        <time>2022-08-15T06:48:20Z</time>
      </trkpt>
      <trkpt lat="44.71559" lon="0.93542">
        <ele>210.4</ele>
        <time>2022-08-15T06:48:22Z</time>
      </trkpt>
      <trkpt lat="44.71569" lon="0.93553">
        <ele>209.9</ele>
        <time>2022-08-15T06:48:24Z</time>
      </trkpt>
      <trkpt lat="44.7158" lon="0.93565">
        <ele>209.3</ele>
        <time>2022-08-15T06:48:26Z</time>
      </trkpt>
      <trkpt lat="44.7159" lon="0.93576">
        <ele>208.8</ele>
        <time>2022-08-15T06:48:28Z</time>
      </trkpt>
      <trkpt lat="44.716" lon="0.93588">
        <ele>208.7</ele>
        <time>2022-08-15T06:48:30Z</time>
      </trkpt>
      <trkpt lat="44.7161" lon="0.93599">
        <ele>208.9</ele>
        <time>2022-08-15T06:48:32Z</time>
      </trkpt>
      <trkpt lat="44.7162" lon="0.93611">
        <ele>208.9</ele>
        <time>2022-08-15T06:48:34Z</time>
      </trkpt>
      <trkpt lat="44.7163" lon="0.93622">
        <ele>208.8</ele>
        <time>2022-08-15T06:48:36Z</time>
      </trkpt>
      <trkpt lat="44.7164" lon="0.93633">
        <ele>208.5</ele>
        <time>2022-08-15T06:48:38Z</time>
      </trkpt>
      <trkpt lat="44.7165" lon="0.93644">
        <ele>208</ele>
        <time>2022-08-15T06:48:40Z</time>
      </trkpt>
      <trkpt lat="44.71661" lon="0.93655">
        <ele>207.4</ele>
        <time>2022-08-15T06:48:42Z</time>
      </trkpt>
      <trkpt lat="44.71671" lon="0.93667">
        <ele>206.9</ele>
        <time>2022-08-15T06:48:44Z</time>
      </trkpt>
      <trkpt lat="44.71681" lon="0.93678">
        <ele>207.9</ele>
        <time>2022-08-15T06:48:46Z</time>
      </trkpt>
      <trkpt lat="44.71691" lon="0.9369">
        <ele>208.8</ele>
        <time>2022-08-15T06:48:48Z</time>
      </trkpt>
      <trkpt lat="44.717" lon="0.93701">
        <ele>209.3</ele>
        <time>2022-08-15T06:48:50Z</time>
      </trkpt>
      <trkpt lat="44.7171" lon="0.93712">
        <ele>209.5</ele>
        <time>2022-08-15T06:48:52Z</time>
      </trkpt>
      <trkpt lat="44.71717" lon="0.93722">
        <ele>209.5</ele>
        <time>2022-08-15T06:48:54Z</time>
      </trkpt>
      <trkpt lat="44.71725" lon="0.9373">
        <ele>209.2</ele>
        <time>2022-08-15T06:48:56Z</time>
      </trkpt>
      <trkpt lat="44.71732" lon="0.93738">
        <ele>208.9</ele>
        <time>2022-08-15T06:48:58Z</time>
      </trkpt>
      <trkpt lat="44.71739" lon="0.93748">
        <ele>208.5</ele>
        <time>2022-08-15T06:49:00Z</time>
      </trkpt>
      <trkpt lat="44.71744" lon="0.93759">
        <ele>208.1</ele>
        <time>2022-08-15T06:49:02Z</time>
      </trkpt>
      <trkpt lat="44.71749" lon="0.93771">
        <ele>207.8</ele>
        <time>2022-08-15T06:49:04Z</time>
      </trkpt>
      <trkpt lat="44.71753" lon="0.93783">
        <ele>208.4</ele>
        <time>2022-08-15T06:49:06Z</time>
      </trkpt>
      <trkpt lat="44.71758" lon="0.93795">
        <ele>209.2</ele>
        <time>2022-08-15T06:49:08Z</time>
      </trkpt>
      <trkpt lat="44.71759" lon="0.93807">
        <ele>209.8</ele>
        <time>2022-08-15T06:49:10Z</time>
      </trkpt>
      <trkpt lat="44.71761" lon="0.93821">
        <ele>210.4</ele>
        <time>2022-08-15T06:49:12Z</time>
      </trkpt>
      <trkpt lat="44.71762" lon="0.93834">
        <ele>211.1</ele>
        <time>2022-08-15T06:49:14Z</time>
      </trkpt>
      <trkpt lat="44.71762" lon="0.93849">
        <ele>211.6</ele>
        <time>2022-08-15T06:49:16Z</time>
      </trkpt>
      <trkpt lat="44.71761" lon="0.93863">
        <ele>212</ele>
        <time>2022-08-15T06:49:18Z</time>
      </trkpt>
      <trkpt lat="44.71759" lon="0.93877">
        <ele>212.4</ele>
        <time>2022-08-15T06:49:20Z</time>
      </trkpt>
      <trkpt lat="44.71756" lon="0.93891">
        <ele>212.7</ele>
        <time>2022-08-15T06:49:22Z</time>
      </trkpt>
      <trkpt lat="44.71754" lon="0.93904">
        <ele>212.9</ele>
        <time>2022-08-15T06:49:24Z</time>
      </trkpt>
      <trkpt lat="44.71751" lon="0.93917">
        <ele>213.1</ele>
        <time>2022-08-15T06:49:26Z</time>
      </trkpt>
      <trkpt lat="44.71747" lon="0.9393">
        <ele>213.3</ele>
        <time>2022-08-15T06:49:28Z</time>
      </trkpt>
      <trkpt lat="44.71744" lon="0.93942">
        <ele>213.5</ele>
        <time>2022-08-15T06:49:30Z</time>
      </trkpt>
      <trkpt lat="44.71741" lon="0.93955">
        <ele>213.8</ele>
        <time>2022-08-15T06:49:32Z</time>
      </trkpt>
      <trkpt lat="44.71738" lon="0.93967">
        <ele>213.9</ele>
        <time>2022-08-15T06:49:34Z</time>
      </trkpt>
      <trkpt lat="44.71735" lon="0.9398">
        <ele>214</ele>
        <time>2022-08-15T06:49:36Z</time>
      </trkpt>
      <trkpt lat="44.71733" lon="0.93992">
        <ele>214.1</ele>
        <time>2022-08-15T06:49:38Z</time>
      </trkpt>
      <trkpt lat="44.7173" lon="0.94004">
        <ele>214.1</ele>
        <time>2022-08-15T06:49:40Z</time>
      </trkpt>
      <trkpt lat="44.71728" lon="0.94017">
        <ele>213.8</ele>
        <time>2022-08-15T06:49:42Z</time>
      </trkpt>
      <trkpt lat="44.71725" lon="0.94029">
        <ele>213.5</ele>
        <time>2022-08-15T06:49:44Z</time>
      </trkpt>
      <trkpt lat="44.71722" lon="0.9404">
        <ele>213.2</ele>
        <time>2022-08-15T06:49:46Z</time>
      </trkpt>
      <trkpt lat="44.71719" lon="0.94052">
        <ele>212.9</ele>
        <time>2022-08-15T06:49:48Z</time>
      </trkpt>
      <trkpt lat="44.71715" lon="0.94062">
        <ele>212.5</ele>
        <time>2022-08-15T06:49:50Z</time>
      </trkpt>
      <trkpt lat="44.7171" lon="0.94073">
        <ele>212</ele>
        <time>2022-08-15T06:49:52Z</time>
      </trkpt>
      <trkpt lat="44.71704" lon="0.94082">
        <ele>211.5</ele>
        <time>2022-08-15T06:49:54Z</time>
      </trkpt>
      <trkpt lat="44.71698" lon="0.94091">
        <ele>211.5</ele>
        <time>2022-08-15T06:49:56Z</time>
      </trkpt>
      <trkpt lat="44.71692" lon="0.94098">
        <ele>211.6</ele>
        <time>2022-08-15T06:49:58Z</time>
      </trkpt>
      <trkpt lat="44.71685" lon="0.94105">
        <ele>211.5</ele>
        <time>2022-08-15T06:50:00Z</time>
      </trkpt>
      <trkpt lat="44.7168" lon="0.94112">
        <ele>211.4</ele>
        <time>2022-08-15T06:50:02Z</time>
      </trkpt>
      <trkpt lat="44.71674" lon="0.9412">
        <ele>211.3</ele>
        <time>2022-08-15T06:50:04Z</time>
      </trkpt>
      <trkpt lat="44.71668" lon="0.94128">
        <ele>211.1</ele>
        <time>2022-08-15T06:50:06Z</time>
      </trkpt>
      <trkpt lat="44.71663" lon="0.94135">
        <ele>211</ele>
        <time>2022-08-15T06:50:08Z</time>
      </trkpt>
      <trkpt lat="44.71658" lon="0.94144">
        <ele>211.1</ele>
        <time>2022-08-15T06:50:10Z</time>
      </trkpt>
      <trkpt lat="44.71654" lon="0.94153">
        <ele>211.2</ele>
        <time>2022-08-15T06:50:12Z</time>
      </trkpt>
      <trkpt lat="44.7165" lon="0.94161">
        <ele>211.2</ele>
        <time>2022-08-15T06:50:14Z</time>
      </trkpt>
      <trkpt lat="44.71645" lon="0.9417">
        <ele>211.6</ele>
        <time>2022-08-15T06:50:16Z</time>
      </trkpt>
      <trkpt lat="44.71642" lon="0.94178">
        <ele>212.4</ele>
        <time>2022-08-15T06:50:18Z</time>
      </trkpt>
      <trkpt lat="44.71638" lon="0.94188">
        <ele>213.4</ele>
        <time>2022-08-15T06:50:20Z</time>
      </trkpt>
      <trkpt lat="44.71635" lon="0.94197">
        <ele>214.3</ele>
        <time>2022-08-15T06:50:22Z</time>
      </trkpt>
      <trkpt lat="44.71631" lon="0.94207">
        <ele>215.1</ele>
        <time>2022-08-15T06:50:24Z</time>
      </trkpt>
      <trkpt lat="44.71629" lon="0.94217">
        <ele>216</ele>
        <time>2022-08-15T06:50:26Z</time>
      </trkpt>
      <trkpt lat="44.71626" lon="0.94226">
        <ele>216.8</ele>
        <time>2022-08-15T06:50:28Z</time>
      </trkpt>
      <trkpt lat="44.71624" lon="0.94235">
        <ele>217.6</ele>
        <time>2022-08-15T06:50:30Z</time>
      </trkpt>
      <trkpt lat="44.71622" lon="0.94244">
        <ele>218.4</ele>
        <time>2022-08-15T06:50:32Z</time>
      </trkpt>
      <trkpt lat="44.7162" lon="0.94253">
        <ele>219</ele>
        <time>2022-08-15T06:50:34Z</time>
      </trkpt>
      <trkpt lat="44.71617" lon="0.94262">
        <ele>219.4</ele>
        <time>2022-08-15T06:50:36Z</time>
      </trkpt>
      <trkpt lat="44.71616" lon="0.9427">
        <ele>219.8</ele>
        <time>2022-08-15T06:50:38Z</time>
      </trkpt>
      <trkpt lat="44.71613" lon="0.94279">
        <ele>220.1</ele>
        <time>2022-08-15T06:50:40Z</time>
      </trkpt>
      <trkpt lat="44.71611" lon="0.94287">
        <ele>220.5</ele>
        <time>2022-08-15T06:50:42Z</time>
      </trkpt>
      <trkpt lat="44.7161" lon="0.94295">
        <ele>220.8</ele>
        <time>2022-08-15T06:50:44Z</time>
      </trkpt>
      <trkpt lat="44.71608" lon="0.94304">
        <ele>221.1</ele>
        <time>2022-08-15T06:50:46Z</time>
      </trkpt>
      <trkpt lat="44.71606" lon="0.94312">
        <ele>221.4</ele>
        <time>2022-08-15T06:50:48Z</time>
      </trkpt>
      <trkpt lat="44.71604" lon="0.9432">
        <ele>221.6</ele>
        <time>2022-08-15T06:50:50Z</time>
      </trkpt>
      <trkpt lat="44.71602" lon="0.94328">
        <ele>221.9</ele>
        <time>2022-08-15T06:50:52Z</time>
      </trkpt>
      <trkpt lat="44.716" lon="0.94336">
        <ele>222</ele>
        <time>2022-08-15T06:50:54Z</time>
      </trkpt>
      <trkpt lat="44.71598" lon="0.94344">
        <ele>221.8</ele>
        <time>2022-08-15T06:50:56Z</time>
      </trkpt>
      <trkpt lat="44.71596" lon="0.94351">
        <ele>221.6</ele>
        <time>2022-08-15T06:50:58Z</time>
      </trkpt>
      <trkpt lat="44.71594" lon="0.94359">
        <ele>221.4</ele>
        <time>2022-08-15T06:51:00Z</time>
      </trkpt>
      <trkpt lat="44.71592" lon="0.94366">
        <ele>221.1</ele>
        <time>2022-08-15T06:51:02Z</time>
      </trkpt>
      <trkpt lat="44.71589" lon="0.94374">
        <ele>220.9</ele>
        <time>2022-08-15T06:51:04Z</time>
      </trkpt>
      <trkpt lat="44.71587" lon="0.94381">
        <ele>220.7</ele>
        <time>2022-08-15T06:51:06Z</time>
      </trkpt>
      <trkpt lat="44.71585" lon="0.94389">
        <ele>220.5</ele>
        <time>2022-08-15T06:51:08Z</time>
      </trkpt>
      <trkpt lat="44.71583" lon="0.94397">
        <ele>220.3</ele>
        <time>2022-08-15T06:51:10Z</time>
      </trkpt>
      <trkpt lat="44.7158" lon="0.94404">
        <ele>220.5</ele>
        <time>2022-08-15T06:51:12Z</time>
      </trkpt>
      <trkpt lat="44.71578" lon="0.94412">
        <ele>220.6</ele>
        <time>2022-08-15T06:51:14Z</time>
      </trkpt>
      <trkpt lat="44.71576" lon="0.94419">
        <ele>221</ele>
        <time>2022-08-15T06:51:16Z</time>
      </trkpt>
      <trkpt lat="44.71574" lon="0.94427">
        <ele>221.6</ele>
        <time>2022-08-15T06:51:18Z</time>
      </trkpt>
      <trkpt lat="44.71572" lon="0.94434">
        <ele>222.2</ele>
        <time>2022-08-15T06:51:20Z</time>
      </trkpt>
      <trkpt lat="44.7157" lon="0.94442">
        <ele>222.8</ele>
        <time>2022-08-15T06:51:22Z</time>
      </trkpt>
      <trkpt lat="44.71568" lon="0.94449">
        <ele>223.4</ele>
        <time>2022-08-15T06:51:24Z</time>
      </trkpt>
      <trkpt lat="44.71566" lon="0.94456">
        <ele>223.9</ele>
        <time>2022-08-15T06:51:26Z</time>
      </trkpt>
      <trkpt lat="44.71563" lon="0.94464">
        <ele>224.5</ele>
        <time>2022-08-15T06:51:28Z</time>
      </trkpt>
      <trkpt lat="44.71561" lon="0.94471">
        <ele>225.1</ele>
        <time>2022-08-15T06:51:30Z</time>
      </trkpt>
      <trkpt lat="44.7156" lon="0.94478">
        <ele>225.6</ele>
        <time>2022-08-15T06:51:32Z</time>
      </trkpt>
      <trkpt lat="44.71558" lon="0.94485">
        <ele>226.1</ele>
        <time>2022-08-15T06:51:34Z</time>
      </trkpt>
      <trkpt lat="44.71556" lon="0.94492">
        <ele>226.6</ele>
        <time>2022-08-15T06:51:36Z</time>
      </trkpt>
      <trkpt lat="44.71554" lon="0.94499">
        <ele>227.1</ele>
        <time>2022-08-15T06:51:38Z</time>
      </trkpt>
      <trkpt lat="44.71552" lon="0.94506">
        <ele>227.6</ele>
        <time>2022-08-15T06:51:40Z</time>
      </trkpt>
      <trkpt lat="44.7155" lon="0.94513">
        <ele>228.1</ele>
        <time>2022-08-15T06:51:42Z</time>
      </trkpt>
      <trkpt lat="44.71548" lon="0.9452">
        <ele>228.6</ele>
        <time>2022-08-15T06:51:44Z</time>
      </trkpt>
      <trkpt lat="44.71547" lon="0.94527">
        <ele>229</ele>
        <time>2022-08-15T06:51:46Z</time>
      </trkpt>
      <trkpt lat="44.71545" lon="0.94534">
        <ele>229.4</ele>
        <time>2022-08-15T06:51:48Z</time>
      </trkpt>
      <trkpt lat="44.71543" lon="0.94541">
        <ele>229.8</ele>
        <time>2022-08-15T06:51:50Z</time>
      </trkpt>
      <trkpt lat="44.71541" lon="0.94548">
        <ele>230.3</ele>
        <time>2022-08-15T06:51:52Z</time>
      </trkpt>
      <trkpt lat="44.7154" lon="0.94555">
        <ele>230.6</ele>
        <time>2022-08-15T06:51:54Z</time>
      </trkpt>
      <trkpt lat="44.71539" lon="0.94563">
        <ele>231</ele>
        <time>2022-08-15T06:51:56Z</time>
      </trkpt>
      <trkpt lat="44.71538" lon="0.9457">
        <ele>231.4</ele>
        <time>2022-08-15T06:51:58Z</time>
      </trkpt>
      <trkpt lat="44.71536" lon="0.94577">
        <ele>231.7</ele>
        <time>2022-08-15T06:52:00Z</time>
      </trkpt>
      <trkpt lat="44.71536" lon="0.94585">
        <ele>232</ele>
        <time>2022-08-15T06:52:02Z</time>
      </trkpt>
      <trkpt lat="44.71535" lon="0.94592">
        <ele>232.2</ele>
        <time>2022-08-15T06:52:04Z</time>
      </trkpt>
      <trkpt lat="44.71535" lon="0.946">
        <ele>232.3</ele>
        <time>2022-08-15T06:52:06Z</time>
      </trkpt>
      <trkpt lat="44.71535" lon="0.94607">
        <ele>232.5</ele>
        <time>2022-08-15T06:52:08Z</time>
      </trkpt>
      <trkpt lat="44.71535" lon="0.94614">
        <ele>232.6</ele>
        <time>2022-08-15T06:52:10Z</time>
      </trkpt>
      <trkpt lat="44.71535" lon="0.94622">
        <ele>232.8</ele>
        <time>2022-08-15T06:52:12Z</time>
      </trkpt>
      <trkpt lat="44.71534" lon="0.94629">
        <ele>233</ele>
        <time>2022-08-15T06:52:14Z</time>
      </trkpt>
      <trkpt lat="44.71535" lon="0.94636">
        <ele>233</ele>
        <time>2022-08-15T06:52:16Z</time>
      </trkpt>
      <trkpt lat="44.71536" lon="0.94644">
        <ele>233.2</ele>
        <time>2022-08-15T06:52:18Z</time>
      </trkpt>
      <trkpt lat="44.71536" lon="0.94651">
        <ele>233.2</ele>
        <time>2022-08-15T06:52:20Z</time>
      </trkpt>
      <trkpt lat="44.71538" lon="0.94659">
        <ele>233.2</ele>
        <time>2022-08-15T06:52:22Z</time>
      </trkpt>
      <trkpt lat="44.71539" lon="0.94665">
        <ele>233.2</ele>
        <time>2022-08-15T06:52:24Z</time>
      </trkpt>
      <trkpt lat="44.7154" lon="0.94672">
        <ele>233.3</ele>
        <time>2022-08-15T06:52:26Z</time>
      </trkpt>
      <trkpt lat="44.71542" lon="0.94678">
        <ele>233.4</ele>
        <time>2022-08-15T06:52:28Z</time>
      </trkpt>
      <trkpt lat="44.71543" lon="0.94685">
        <ele>233.5</ele>
        <time>2022-08-15T06:52:30Z</time>
      </trkpt>
      <trkpt lat="44.71546" lon="0.94691">
        <ele>233.5</ele>
        <time>2022-08-15T06:52:32Z</time>
      </trkpt>
      <trkpt lat="44.7155" lon="0.94697">
        <ele>233.3</ele>
        <time>2022-08-15T06:52:34Z</time>
      </trkpt>
      <trkpt lat="44.71552" lon="0.94703">
        <ele>233.3</ele>
        <time>2022-08-15T06:52:36Z</time>
      </trkpt>
      <trkpt lat="44.71554" lon="0.94708">
        <ele>233.3</ele>
        <time>2022-08-15T06:52:38Z</time>
      </trkpt>
      <trkpt lat="44.71557" lon="0.94713">
        <ele>233.2</ele>
        <time>2022-08-15T06:52:40Z</time>
      </trkpt>
      <trkpt lat="44.7156" lon="0.94718">
        <ele>233.1</ele>
        <time>2022-08-15T06:52:42Z</time>
      </trkpt>
      <trkpt lat="44.71564" lon="0.94722">
        <ele>232.9</ele>
        <time>2022-08-15T06:52:44Z</time>
      </trkpt>
      <trkpt lat="44.71566" lon="0.94727">
        <ele>232.8</ele>
        <time>2022-08-15T06:52:46Z</time>
      </trkpt>
      <trkpt lat="44.71569" lon="0.94731">
        <ele>232.7</ele>
        <time>2022-08-15T06:52:48Z</time>
      </trkpt>
      <trkpt lat="44.71572" lon="0.94736">
        <ele>232.5</ele>
        <time>2022-08-15T06:52:50Z</time>
      </trkpt>
      <trkpt lat="44.71576" lon="0.94741">
        <ele>232.4</ele>
        <time>2022-08-15T06:52:52Z</time>
      </trkpt>
      <trkpt lat="44.71579" lon="0.94747">
        <ele>232.3</ele>
        <time>2022-08-15T06:52:54Z</time>
      </trkpt>
      <trkpt lat="44.71583" lon="0.94752">
        <ele>232.1</ele>
        <time>2022-08-15T06:52:56Z</time>
      </trkpt>
      <trkpt lat="44.71587" lon="0.94756">
        <ele>232.3</ele>
        <time>2022-08-15T06:52:58Z</time>
      </trkpt>
      <trkpt lat="44.7159" lon="0.94761">
        <ele>232.5</ele>
        <time>2022-08-15T06:53:00Z</time>
      </trkpt>
      <trkpt lat="44.71593" lon="0.94767">
        <ele>232.6</ele>
        <time>2022-08-15T06:53:02Z</time>
      </trkpt>
      <trkpt lat="44.71596" lon="0.94773">
        <ele>232.9</ele>
        <time>2022-08-15T06:53:04Z</time>
      </trkpt>
      <trkpt lat="44.71599" lon="0.94778">
        <ele>233.1</ele>
        <time>2022-08-15T06:53:06Z</time>
      </trkpt>
      <trkpt lat="44.71602" lon="0.94784">
        <ele>233.3</ele>
        <time>2022-08-15T06:53:08Z</time>
      </trkpt>
      <trkpt lat="44.71606" lon="0.9479">
        <ele>233.6</ele>
        <time>2022-08-15T06:53:10Z</time>
      </trkpt>
      <trkpt lat="44.71609" lon="0.94795">
        <ele>233.8</ele>
        <time>2022-08-15T06:53:12Z</time>
      </trkpt>
      <trkpt lat="44.71612" lon="0.948">
        <ele>234</ele>
        <time>2022-08-15T06:53:14Z</time>
      </trkpt>
      <trkpt lat="44.71614" lon="0.94807">
        <ele>234.2</ele>
        <time>2022-08-15T06:53:16Z</time>
      </trkpt>
      <trkpt lat="44.71616" lon="0.94813">
        <ele>234.3</ele>
        <time>2022-08-15T06:53:18Z</time>
      </trkpt>
      <trkpt lat="44.71618" lon="0.94819">
        <ele>234.5</ele>
        <time>2022-08-15T06:53:20Z</time>
      </trkpt>
      <trkpt lat="44.7162" lon="0.94825">
        <ele>234.6</ele>
        <time>2022-08-15T06:53:22Z</time>
      </trkpt>
      <trkpt lat="44.71621" lon="0.94831">
        <ele>234.8</ele>
        <time>2022-08-15T06:53:24Z</time>
      </trkpt>
      <trkpt lat="44.71623" lon="0.94837">
        <ele>235</ele>
        <time>2022-08-15T06:53:26Z</time>
      </trkpt>
      <trkpt lat="44.71624" lon="0.94843">
        <ele>235.2</ele>
        <time>2022-08-15T06:53:28Z</time>
      </trkpt>
      <trkpt lat="44.71625" lon="0.94848">
        <ele>235.5</ele>
        <time>2022-08-15T06:53:30Z</time>
      </trkpt>
      <trkpt lat="44.71627" lon="0.94854">
        <ele>235.7</ele>
        <time>2022-08-15T06:53:32Z</time>
      </trkpt>
      <trkpt lat="44.71627" lon="0.9486">
        <ele>235.9</ele>
        <time>2022-08-15T06:53:34Z</time>
      </trkpt>
      <trkpt lat="44.71628" lon="0.94865">
        <ele>236.1</ele>
        <time>2022-08-15T06:53:36Z</time>
      </trkpt>
      <trkpt lat="44.71629" lon="0.94871">
        <ele>236.3</ele>
        <time>2022-08-15T06:53:38Z</time>
      </trkpt>
      <trkpt lat="44.71631" lon="0.94877">
        <ele>236.6</ele>
        <time>2022-08-15T06:53:40Z</time>
      </trkpt>
      <trkpt lat="44.71632" lon="0.94883">
        <ele>236.8</ele>
        <time>2022-08-15T06:53:42Z</time>
      </trkpt>
      <trkpt lat="44.71633" lon="0.94888">
        <ele>237</ele>
        <time>2022-08-15T06:53:44Z</time>
      </trkpt>
      <trkpt lat="44.71635" lon="0.94894">
        <ele>237.2</ele>
        <time>2022-08-15T06:53:46Z</time>
      </trkpt>
      <trkpt lat="44.71637" lon="0.94899">
        <ele>237.4</ele>
        <time>2022-08-15T06:53:48Z</time>
      </trkpt>
      <trkpt lat="44.71639" lon="0.94903">
        <ele>237.6</ele>
        <time>2022-08-15T06:53:50Z</time>
      </trkpt>
      <trkpt lat="44.7164" lon="0.94908">
        <ele>237.8</ele>
        <time>2022-08-15T06:53:52Z</time>
      </trkpt>
      <trkpt lat="44.71642" lon="0.94912">
        <ele>238</ele>
        <time>2022-08-15T06:53:54Z</time>
      </trkpt>
      <trkpt lat="44.71643" lon="0.94916">
        <ele>238.1</ele>
        <time>2022-08-15T06:53:56Z</time>
      </trkpt>
      <trkpt lat="44.71645" lon="0.9492">
        <ele>238.4</ele>
        <time>2022-08-15T06:53:58Z</time>
      </trkpt>
      <trkpt lat="44.71648" lon="0.94924">
        <ele>238.7</ele>
        <time>2022-08-15T06:54:00Z</time>
      </trkpt>
      <trkpt lat="44.71649" lon="0.94928">
        <ele>239</ele>
        <time>2022-08-15T06:54:02Z</time>
      </trkpt>
      <trkpt lat="44.71651" lon="0.94933">
        <ele>239.2</ele>
        <time>2022-08-15T06:54:04Z</time>
      </trkpt>
      <trkpt lat="44.71654" lon="0.94937">
        <ele>239.5</ele>
        <time>2022-08-15T06:54:06Z</time>
      </trkpt>
      <trkpt lat="44.71656" lon="0.9494">
        <ele>239.7</ele>
        <time>2022-08-15T06:54:08Z</time>
      </trkpt>
      <trkpt lat="44.71658" lon="0.94945">
        <ele>239.9</ele>
        <time>2022-08-15T06:54:10Z</time>
      </trkpt>
      <trkpt lat="44.7166" lon="0.94949">
        <ele>240.1</ele>
        <time>2022-08-15T06:54:12Z</time>
      </trkpt>
      <trkpt lat="44.71662" lon="0.94953">
        <ele>240.3</ele>
        <time>2022-08-15T06:54:14Z</time>
      </trkpt>
      <trkpt lat="44.71665" lon="0.94956">
        <ele>240.4</ele>
        <time>2022-08-15T06:54:16Z</time>
      </trkpt>
      <trkpt lat="44.71667" lon="0.94959">
        <ele>240.5</ele>
        <time>2022-08-15T06:54:18Z</time>
      </trkpt>
      <trkpt lat="44.7167" lon="0.94962">
        <ele>241</ele>
        <time>2022-08-15T06:54:20Z</time>
      </trkpt>
      <trkpt lat="44.71672" lon="0.94965">
        <ele>241.3</ele>
        <time>2022-08-15T06:54:22Z</time>
      </trkpt>
      <trkpt lat="44.71676" lon="0.94968">
        <ele>241.8</ele>
        <time>2022-08-15T06:54:24Z</time>
      </trkpt>
      <trkpt lat="44.71679" lon="0.9497">
        <ele>242.2</ele>
        <time>2022-08-15T06:54:26Z</time>
      </trkpt>
      <trkpt lat="44.71683" lon="0.94972">
        <ele>242.6</ele>
        <time>2022-08-15T06:54:28Z</time>
      </trkpt>
      <trkpt lat="44.71685" lon="0.94974">
        <ele>242.9</ele>
        <time>2022-08-15T06:54:30Z</time>
      </trkpt>
      <trkpt lat="44.71689" lon="0.94975">
        <ele>243.3</ele>
        <time>2022-08-15T06:54:32Z</time>
      </trkpt>
      <trkpt lat="44.71693" lon="0.94977">
        <ele>243.7</ele>
        <time>2022-08-15T06:54:34Z</time>
      </trkpt>
      <trkpt lat="44.71697" lon="0.94979">
        <ele>244.1</ele>
        <time>2022-08-15T06:54:36Z</time>
      </trkpt>
      <trkpt lat="44.717" lon="0.94979">
        <ele>244.5</ele>
        <time>2022-08-15T06:54:38Z</time>
      </trkpt>
      <trkpt lat="44.71704" lon="0.94981">
        <ele>244.9</ele>
        <time>2022-08-15T06:54:40Z</time>
      </trkpt>
      <trkpt lat="44.71707" lon="0.94981">
        <ele>245.2</ele>
        <time>2022-08-15T06:54:42Z</time>
      </trkpt>
      <trkpt lat="44.71711" lon="0.9498">
        <ele>245.5</ele>
        <time>2022-08-15T06:54:44Z</time>
      </trkpt>
      <trkpt lat="44.71715" lon="0.94981">
        <ele>245.9</ele>
        <time>2022-08-15T06:54:46Z</time>
      </trkpt>
      <trkpt lat="44.71719" lon="0.94983">
        <ele>246.3</ele>
        <time>2022-08-15T06:54:48Z</time>
      </trkpt>
      <trkpt lat="44.71723" lon="0.94983">
        <ele>246.7</ele>
        <time>2022-08-15T06:54:50Z</time>
      </trkpt>
      <trkpt lat="44.71728" lon="0.94984">
        <ele>247.1</ele>
        <time>2022-08-15T06:54:52Z</time>
      </trkpt>
      <trkpt lat="44.71732" lon="0.94985">
        <ele>247.5</ele>
        <time>2022-08-15T06:54:54Z</time>
      </trkpt>
      <trkpt lat="44.71736" lon="0.94986">
        <ele>247.8</ele>
        <time>2022-08-15T06:54:56Z</time>
      </trkpt>
      <trkpt lat="44.7174" lon="0.94987">
        <ele>248.2</ele>
        <time>2022-08-15T06:54:58Z</time>
      </trkpt>
      <trkpt lat="44.71744" lon="0.94989">
        <ele>248.6</ele>
        <time>2022-08-15T06:55:00Z</time>
      </trkpt>
      <trkpt lat="44.71748" lon="0.94989">
        <ele>249</ele>
        <time>2022-08-15T06:55:02Z</time>
      </trkpt>
      <trkpt lat="44.71752" lon="0.94991">
        <ele>249.3</ele>
        <time>2022-08-15T06:55:04Z</time>
      </trkpt>
      <trkpt lat="44.71756" lon="0.94992">
        <ele>249.5</ele>
        <time>2022-08-15T06:55:06Z</time>
      </trkpt>
      <trkpt lat="44.71759" lon="0.94994">
        <ele>249.6</ele>
        <time>2022-08-15T06:55:08Z</time>
      </trkpt>
      <trkpt lat="44.71762" lon="0.94998">
        <ele>249.7</ele>
        <time>2022-08-15T06:55:10Z</time>
      </trkpt>
      <trkpt lat="44.71766" lon="0.94999">
        <ele>250</ele>
        <time>2022-08-15T06:55:12Z</time>
      </trkpt>
      <trkpt lat="44.71769" lon="0.95002">
        <ele>250.3</ele>
        <time>2022-08-15T06:55:14Z</time>
      </trkpt>
      <trkpt lat="44.71772" lon="0.95003">
        <ele>250.5</ele>
        <time>2022-08-15T06:55:16Z</time>
      </trkpt>
      <trkpt lat="44.71777" lon="0.95005">
        <ele>250.9</ele>
        <time>2022-08-15T06:55:18Z</time>
      </trkpt>
      <trkpt lat="44.71782" lon="0.95007">
        <ele>251.3</ele>
        <time>2022-08-15T06:55:20Z</time>
      </trkpt>
      <trkpt lat="44.71786" lon="0.95009">
        <ele>251.6</ele>
        <time>2022-08-15T06:55:22Z</time>
      </trkpt>
      <trkpt lat="44.7179" lon="0.95013">
        <ele>252</ele>
        <time>2022-08-15T06:55:24Z</time>
      </trkpt>
      <trkpt lat="44.71793" lon="0.95015">
        <ele>252.2</ele>
        <time>2022-08-15T06:55:26Z</time>
      </trkpt>
      <trkpt lat="44.71799" lon="0.95018">
        <ele>252.6</ele>
        <time>2022-08-15T06:55:28Z</time>
      </trkpt>
      <trkpt lat="44.71802" lon="0.9502">
        <ele>252.8</ele>
        <time>2022-08-15T06:55:30Z</time>
      </trkpt>
      <trkpt lat="44.71806" lon="0.95022">
        <ele>253</ele>
        <time>2022-08-15T06:55:32Z</time>
      </trkpt>
      <trkpt lat="44.71809" lon="0.95024">
        <ele>253.3</ele>
        <time>2022-08-15T06:55:34Z</time>
      </trkpt>
      <trkpt lat="44.71812" lon="0.95026">
        <ele>253.5</ele>
        <time>2022-08-15T06:55:36Z</time>
      </trkpt>
      <trkpt lat="44.71815" lon="0.95029">
        <ele>253.6</ele>
        <time>2022-08-15T06:55:38Z</time>
      </trkpt>
      <trkpt lat="44.7182" lon="0.95032">
        <ele>253.9</ele>
        <time>2022-08-15T06:55:40Z</time>
      </trkpt>
      <trkpt lat="44.71824" lon="0.95035">
        <ele>254.1</ele>
        <time>2022-08-15T06:55:42Z</time>
      </trkpt>
      <trkpt lat="44.71828" lon="0.95039">
        <ele>254.3</ele>
        <time>2022-08-15T06:55:44Z</time>
      </trkpt>
      <trkpt lat="44.71832" lon="0.95042">
        <ele>254.5</ele>
        <time>2022-08-15T06:55:46Z</time>
      </trkpt>
      <trkpt lat="44.71837" lon="0.95046">
        <ele>254.4</ele>
        <time>2022-08-15T06:55:48Z</time>
      </trkpt>
      <trkpt lat="44.7184" lon="0.95049">
        <ele>254.4</ele>
        <time>2022-08-15T06:55:50Z</time>
      </trkpt>
      <trkpt lat="44.71843" lon="0.95053">
        <ele>254.3</ele>
        <time>2022-08-15T06:55:52Z</time>
      </trkpt>
      <trkpt lat="44.71847" lon="0.95055">
        <ele>254.2</ele>
        <time>2022-08-15T06:55:54Z</time>
      </trkpt>
      <trkpt lat="44.71851" lon="0.95057">
        <ele>254.1</ele>
        <time>2022-08-15T06:55:56Z</time>
      </trkpt>
      <trkpt lat="44.71855" lon="0.9506">
        <ele>254</ele>
        <time>2022-08-15T06:55:58Z</time>
      </trkpt>
      <trkpt lat="44.71857" lon="0.95063">
        <ele>254</ele>
        <time>2022-08-15T06:56:00Z</time>
      </trkpt>
      <trkpt lat="44.71859" lon="0.95065">
        <ele>253.9</ele>
        <time>2022-08-15T06:56:02Z</time>
      </trkpt>
      <trkpt lat="44.71863" lon="0.95067">
        <ele>253.8</ele>
        <time>2022-08-15T06:56:04Z</time>
      </trkpt>
      <trkpt lat="44.71866" lon="0.95069">
        <ele>253.7</ele>
        <time>2022-08-15T06:56:06Z</time>
      </trkpt>
      <trkpt lat="44.71871" lon="0.95072">
        <ele>253.6</ele>
        <time>2022-08-15T06:56:08Z</time>
      </trkpt>
      <trkpt lat="44.71875" lon="0.95076">
        <ele>253.5</ele>
        <time>2022-08-15T06:56:10Z</time>
      </trkpt>
      <trkpt lat="44.7188" lon="0.95079">
        <ele>253.3</ele>
        <time>2022-08-15T06:56:12Z</time>
      </trkpt>
      <trkpt lat="44.71886" lon="0.95082">
        <ele>253.1</ele>
        <time>2022-08-15T06:56:14Z</time>
      </trkpt>
      <trkpt lat="44.7189" lon="0.95085">
        <ele>253</ele>
        <time>2022-08-15T06:56:16Z</time>
      </trkpt>
      <trkpt lat="44.71894" lon="0.95088">
        <ele>253</ele>
        <time>2022-08-15T06:56:18Z</time>
      </trkpt>
      <trkpt lat="44.71899" lon="0.95092">
        <ele>252.9</ele>
        <time>2022-08-15T06:56:20Z</time>
      </trkpt>
      <trkpt lat="44.71902" lon="0.95095">
        <ele>252.9</ele>
        <time>2022-08-15T06:56:22Z</time>
      </trkpt>
      <trkpt lat="44.71907" lon="0.951">
        <ele>252.8</ele>
        <time>2022-08-15T06:56:24Z</time>
      </trkpt>
      <trkpt lat="44.71911" lon="0.95103">
        <ele>252.7</ele>
        <time>2022-08-15T06:56:26Z</time>
      </trkpt>
      <trkpt lat="44.71916" lon="0.95105">
        <ele>252.6</ele>
        <time>2022-08-15T06:56:28Z</time>
      </trkpt>
      <trkpt lat="44.71918" lon="0.95108">
        <ele>252.5</ele>
        <time>2022-08-15T06:56:30Z</time>
      </trkpt>
      <trkpt lat="44.71924" lon="0.95113">
        <ele>252.5</ele>
        <time>2022-08-15T06:56:32Z</time>
      </trkpt>
      <trkpt lat="44.71929" lon="0.95118">
        <ele>252.4</ele>
        <time>2022-08-15T06:56:34Z</time>
      </trkpt>
      <trkpt lat="44.71933" lon="0.95122">
        <ele>252.3</ele>
        <time>2022-08-15T06:56:36Z</time>
      </trkpt>
      <trkpt lat="44.71937" lon="0.95127">
        <ele>252.2</ele>
        <time>2022-08-15T06:56:38Z</time>
      </trkpt>
      <trkpt lat="44.71942" lon="0.95135">
        <ele>252.1</ele>
        <time>2022-08-15T06:56:40Z</time>
      </trkpt>
      <trkpt lat="44.71947" lon="0.95143">
        <ele>251.9</ele>
        <time>2022-08-15T06:56:42Z</time>
      </trkpt>
      <trkpt lat="44.71951" lon="0.95154">
        <ele>251.8</ele>
        <time>2022-08-15T06:56:44Z</time>
      </trkpt>
      <trkpt lat="44.71957" lon="0.95164">
        <ele>251.6</ele>
        <time>2022-08-15T06:56:46Z</time>
      </trkpt>
      <trkpt lat="44.71962" lon="0.95177">
        <ele>251.2</ele>
        <time>2022-08-15T06:56:48Z</time>
      </trkpt>
      <trkpt lat="44.71966" lon="0.95191">
        <ele>250.8</ele>
        <time>2022-08-15T06:56:50Z</time>
      </trkpt>
      <trkpt lat="44.71972" lon="0.95206">
        <ele>250.2</ele>
        <time>2022-08-15T06:56:52Z</time>
      </trkpt>
      <trkpt lat="44.71977" lon="0.95221">
        <ele>249.6</ele>
        <time>2022-08-15T06:56:54Z</time>
      </trkpt>
      <trkpt lat="44.71984" lon="0.95237">
        <ele>248.8</ele>
        <time>2022-08-15T06:56:56Z</time>
      </trkpt>
      <trkpt lat="44.7199" lon="0.95255">
        <ele>247.9</ele>
        <time>2022-08-15T06:56:58Z</time>
      </trkpt>
      <trkpt lat="44.71996" lon="0.95273">
        <ele>246.8</ele>
        <time>2022-08-15T06:57:00Z</time>
      </trkpt>
      <trkpt lat="44.72002" lon="0.95293">
        <ele>245.9</ele>
        <time>2022-08-15T06:57:02Z</time>
      </trkpt>
      <trkpt lat="44.72007" lon="0.95313">
        <ele>245.1</ele>
        <time>2022-08-15T06:57:04Z</time>
      </trkpt>
      <trkpt lat="44.72012" lon="0.95335">
        <ele>244.4</ele>
        <time>2022-08-15T06:57:06Z</time>
      </trkpt>
      <trkpt lat="44.72017" lon="0.95358">
        <ele>243.7</ele>
        <time>2022-08-15T06:57:08Z</time>
      </trkpt>
      <trkpt lat="44.72022" lon="0.95381">
        <ele>243.1</ele>
        <time>2022-08-15T06:57:10Z</time>
      </trkpt>
      <trkpt lat="44.72028" lon="0.95405">
        <ele>242.5</ele>
        <time>2022-08-15T06:57:12Z</time>
      </trkpt>
      <trkpt lat="44.72034" lon="0.95428">
        <ele>242.1</ele>
        <time>2022-08-15T06:57:14Z</time>
      </trkpt>
      <trkpt lat="44.72041" lon="0.95451">
        <ele>241.8</ele>
        <time>2022-08-15T06:57:16Z</time>
      </trkpt>
      <trkpt lat="44.72049" lon="0.95473">
        <ele>241.7</ele>
        <time>2022-08-15T06:57:18Z</time>
      </trkpt>
      <trkpt lat="44.72057" lon="0.95493">
        <ele>241.7</ele>
        <time>2022-08-15T06:57:20Z</time>
      </trkpt>
      <trkpt lat="44.72067" lon="0.95511">
        <ele>242.1</ele>
        <time>2022-08-15T06:57:22Z</time>
      </trkpt>
      <trkpt lat="44.72079" lon="0.95526">
        <ele>242.3</ele>
        <time>2022-08-15T06:57:24Z</time>
      </trkpt>
      <trkpt lat="44.72091" lon="0.9554">
        <ele>242.4</ele>
        <time>2022-08-15T06:57:26Z</time>
      </trkpt>
      <trkpt lat="44.72105" lon="0.95553">
        <ele>242.4</ele>
        <time>2022-08-15T06:57:28Z</time>
      </trkpt>
      <trkpt lat="44.72119" lon="0.95565">
        <ele>242.2</ele>
        <time>2022-08-15T06:57:30Z</time>
      </trkpt>
      <trkpt lat="44.72132" lon="0.95577">
        <ele>241.9</ele>
        <time>2022-08-15T06:57:32Z</time>
      </trkpt>
      <trkpt lat="44.72145" lon="0.9559">
        <ele>241.5</ele>
        <time>2022-08-15T06:57:34Z</time>
      </trkpt>
      <trkpt lat="44.72158" lon="0.95601">
        <ele>241.2</ele>
        <time>2022-08-15T06:57:36Z</time>
      </trkpt>
      <trkpt lat="44.72169" lon="0.9561">
        <ele>241.1</ele>
        <time>2022-08-15T06:57:38Z</time>
      </trkpt>
      <trkpt lat="44.72178" lon="0.95621">
        <ele>241.2</ele>
        <time>2022-08-15T06:57:40Z</time>
      </trkpt>
      <trkpt lat="44.72181" lon="0.95636">
        <ele>241</ele>
        <time>2022-08-15T06:57:42Z</time>
      </trkpt>
      <trkpt lat="44.72182" lon="0.9565">
        <ele>240.9</ele>
        <time>2022-08-15T06:57:44Z</time>
      </trkpt>
      <trkpt lat="44.72185" lon="0.95662">
        <ele>240.6</ele>
        <time>2022-08-15T06:57:46Z</time>
      </trkpt>
      <trkpt lat="44.72189" lon="0.95671">
        <ele>240.8</ele>
        <time>2022-08-15T06:57:48Z</time>
      </trkpt>
      <trkpt lat="44.72194" lon="0.9568">
        <ele>241.4</ele>
        <time>2022-08-15T06:57:50Z</time>
      </trkpt>
      <trkpt lat="44.72197" lon="0.95687">
        <ele>241.9</ele>
        <time>2022-08-15T06:57:52Z</time>
      </trkpt>
      <trkpt lat="44.72199" lon="0.95694">
        <ele>242.3</ele>
        <time>2022-08-15T06:57:54Z</time>
      </trkpt>
      <trkpt lat="44.72202" lon="0.95699">
        <ele>242.6</ele>
        <time>2022-08-15T06:57:56Z</time>
      </trkpt>
      <trkpt lat="44.72203" lon="0.95705">
        <ele>243</ele>
        <time>2022-08-15T06:57:58Z</time>
      </trkpt>
      <trkpt lat="44.72203" lon="0.9571">
        <ele>243.4</ele>
        <time>2022-08-15T06:58:00Z</time>
      </trkpt>
      <trkpt lat="44.72207" lon="0.95724">
        <ele>244.2</ele>
        <time>2022-08-15T06:58:02Z</time>
      </trkpt>
      <trkpt lat="44.72209" lon="0.95729">
        <ele>244.5</ele>
        <time>2022-08-15T06:58:04Z</time>
      </trkpt>
      <trkpt lat="44.72211" lon="0.95736">
        <ele>244.8</ele>
        <time>2022-08-15T06:58:06Z</time>
      </trkpt>
      <trkpt lat="44.72212" lon="0.95741">
        <ele>245.1</ele>
        <time>2022-08-15T06:58:08Z</time>
      </trkpt>
      <trkpt lat="44.72214" lon="0.95747">
        <ele>245.3</ele>
        <time>2022-08-15T06:58:10Z</time>
      </trkpt>
      <trkpt lat="44.72217" lon="0.95751">
        <ele>245.4</ele>
        <time>2022-08-15T06:58:12Z</time>
      </trkpt>
      <trkpt lat="44.7222" lon="0.95755">
        <ele>245.6</ele>
        <time>2022-08-15T06:58:14Z</time>
      </trkpt>
      <trkpt lat="44.72223" lon="0.9576">
        <ele>245.8</ele>
        <time>2022-08-15T06:58:16Z</time>
      </trkpt>
      <trkpt lat="44.72226" lon="0.95764">
        <ele>245.9</ele>
        <time>2022-08-15T06:58:18Z</time>
      </trkpt>
      <trkpt lat="44.72229" lon="0.95767">
        <ele>245.9</ele>
        <time>2022-08-15T06:58:20Z</time>
      </trkpt>
      <trkpt lat="44.72233" lon="0.95769">
        <ele>245.8</ele>
        <time>2022-08-15T06:58:22Z</time>
      </trkpt>
      <trkpt lat="44.72237" lon="0.95775">
        <ele>246</ele>
        <time>2022-08-15T06:58:24Z</time>
      </trkpt>
      <trkpt lat="44.72242" lon="0.95778">
        <ele>246</ele>
        <time>2022-08-15T06:58:26Z</time>
      </trkpt>
      <trkpt lat="44.72246" lon="0.95783">
        <ele>246.1</ele>
        <time>2022-08-15T06:58:28Z</time>
      </trkpt>
      <trkpt lat="44.7225" lon="0.95787">
        <ele>246.1</ele>
        <time>2022-08-15T06:58:30Z</time>
      </trkpt>
      <trkpt lat="44.72255" lon="0.95792">
        <ele>246.2</ele>
        <time>2022-08-15T06:58:32Z</time>
      </trkpt>
      <trkpt lat="44.72259" lon="0.95796">
        <ele>246.3</ele>
        <time>2022-08-15T06:58:34Z</time>
      </trkpt>
      <trkpt lat="44.72262" lon="0.958">
        <ele>246.5</ele>
        <time>2022-08-15T06:58:36Z</time>
      </trkpt>
      <trkpt lat="44.72266" lon="0.95803">
        <ele>246.4</ele>
        <time>2022-08-15T06:58:38Z</time>
      </trkpt>
      <trkpt lat="44.72266" lon="0.95804">
        <ele>246.5</ele>
        <time>2022-08-15T06:58:40Z</time>
      </trkpt>
      <trkpt lat="44.72266" lon="0.95804">
        <ele>246.4</ele>
        <time>2022-08-15T06:58:42Z</time>
      </trkpt>
      <trkpt lat="44.72267" lon="0.95804">
        <ele>246.4</ele>
        <time>2022-08-15T06:58:44Z</time>
      </trkpt>
      <trkpt lat="44.72267" lon="0.95804">
        <ele>246.4</ele>
        <time>2022-08-15T06:58:46Z</time>
      </trkpt>
      <trkpt lat="44.72277" lon="0.9582">
        <ele>246.8</ele>
        <time>2022-08-15T06:59:40Z</time>
      </trkpt>
      <trkpt lat="44.7228" lon="0.95824">
        <ele>246.8</ele>
        <time>2022-08-15T06:59:42Z</time>
      </trkpt>
      <trkpt lat="44.72283" lon="0.95827">
        <ele>246.8</ele>
        <time>2022-08-15T06:59:44Z</time>
      </trkpt>
      <trkpt lat="44.72289" lon="0.95833">
        <ele>246.7</ele>
        <time>2022-08-15T06:59:46Z</time>
      </trkpt>
      <trkpt lat="44.72294" lon="0.95838">
        <ele>246.4</ele>
        <time>2022-08-15T06:59:48Z</time>
      </trkpt>
      <trkpt lat="44.72298" lon="0.95844">
        <ele>246.1</ele>
        <time>2022-08-15T06:59:50Z</time>
      </trkpt>
      <trkpt lat="44.72301" lon="0.95851">
        <ele>245.9</ele>
        <time>2022-08-15T06:59:52Z</time>
      </trkpt>
      <trkpt lat="44.72304" lon="0.95857">
        <ele>245.7</ele>
        <time>2022-08-15T06:59:54Z</time>
      </trkpt>
      <trkpt lat="44.72307" lon="0.95863">
        <ele>245.6</ele>
        <time>2022-08-15T06:59:56Z</time>
      </trkpt>
      <trkpt lat="44.7231" lon="0.95869">
        <ele>245.4</ele>
        <time>2022-08-15T06:59:58Z</time>
      </trkpt>
      <trkpt lat="44.72312" lon="0.95875">
        <ele>245.3</ele>
        <time>2022-08-15T07:00:00Z</time>
      </trkpt>
      <trkpt lat="44.72314" lon="0.9588">
        <ele>245.2</ele>
        <time>2022-08-15T07:00:02Z</time>
      </trkpt>
      <trkpt lat="44.72317" lon="0.95887">
        <ele>245</ele>
        <time>2022-08-15T07:00:04Z</time>
      </trkpt>
      <trkpt lat="44.7232" lon="0.95893">
        <ele>244.9</ele>
        <time>2022-08-15T07:00:06Z</time>
      </trkpt>
      <trkpt lat="44.72322" lon="0.95901">
        <ele>244.7</ele>
        <time>2022-08-15T07:00:08Z</time>
      </trkpt>
      <trkpt lat="44.72325" lon="0.95908">
        <ele>244.6</ele>
        <time>2022-08-15T07:00:10Z</time>
      </trkpt>
      <trkpt lat="44.72327" lon="0.95914">
        <ele>244.5</ele>
        <time>2022-08-15T07:00:12Z</time>
      </trkpt>
      <trkpt lat="44.7233" lon="0.95921">
        <ele>244.2</ele>
        <time>2022-08-15T07:00:14Z</time>
      </trkpt>
      <trkpt lat="44.72332" lon="0.95928">
        <ele>243.8</ele>
        <time>2022-08-15T07:00:16Z</time>
      </trkpt>
      <trkpt lat="44.72335" lon="0.95936">
        <ele>243.5</ele>
        <time>2022-08-15T07:00:18Z</time>
      </trkpt>
      <trkpt lat="44.72339" lon="0.95943">
        <ele>243.4</ele>
        <time>2022-08-15T07:00:20Z</time>
      </trkpt>
      <trkpt lat="44.72343" lon="0.95951">
        <ele>243.3</ele>
        <time>2022-08-15T07:00:22Z</time>
      </trkpt>
      <trkpt lat="44.72346" lon="0.9596">
        <ele>243.2</ele>
        <time>2022-08-15T07:00:24Z</time>
      </trkpt>
      <trkpt lat="44.72351" lon="0.95968">
        <ele>243.2</ele>
        <time>2022-08-15T07:00:26Z</time>
      </trkpt>
      <trkpt lat="44.72356" lon="0.95977">
        <ele>243.3</ele>
        <time>2022-08-15T07:00:28Z</time>
      </trkpt>
      <trkpt lat="44.72362" lon="0.95984">
        <ele>243.4</ele>
        <time>2022-08-15T07:00:30Z</time>
      </trkpt>
      <trkpt lat="44.72368" lon="0.95991">
        <ele>243.7</ele>
        <time>2022-08-15T07:00:32Z</time>
      </trkpt>
      <trkpt lat="44.72375" lon="0.95997">
        <ele>244</ele>
        <time>2022-08-15T07:00:34Z</time>
      </trkpt>
      <trkpt lat="44.72381" lon="0.96004">
        <ele>244.1</ele>
        <time>2022-08-15T07:00:36Z</time>
      </trkpt>
      <trkpt lat="44.72388" lon="0.96011">
        <ele>244</ele>
        <time>2022-08-15T07:00:38Z</time>
      </trkpt>
      <trkpt lat="44.72394" lon="0.96018">
        <ele>243.9</ele>
        <time>2022-08-15T07:00:40Z</time>
      </trkpt>
      <trkpt lat="44.72402" lon="0.96024">
        <ele>243.9</ele>
        <time>2022-08-15T07:00:42Z</time>
      </trkpt>
      <trkpt lat="44.72409" lon="0.96034">
        <ele>243.6</ele>
        <time>2022-08-15T07:00:44Z</time>
      </trkpt>
      <trkpt lat="44.72416" lon="0.96042">
        <ele>243.4</ele>
        <time>2022-08-15T07:00:46Z</time>
      </trkpt>
      <trkpt lat="44.72422" lon="0.96054">
        <ele>242.1</ele>
        <time>2022-08-15T07:00:48Z</time>
      </trkpt>
      <trkpt lat="44.72429" lon="0.96067">
        <ele>240.8</ele>
        <time>2022-08-15T07:00:50Z</time>
      </trkpt>
      <trkpt lat="44.72434" lon="0.96081">
        <ele>239.6</ele>
        <time>2022-08-15T07:00:52Z</time>
      </trkpt>
      <trkpt lat="44.7244" lon="0.96094">
        <ele>238.6</ele>
        <time>2022-08-15T07:00:54Z</time>
      </trkpt>
      <trkpt lat="44.72445" lon="0.96109">
        <ele>237.7</ele>
        <time>2022-08-15T07:00:56Z</time>
      </trkpt>
      <trkpt lat="44.72451" lon="0.96123">
        <ele>237</ele>
        <time>2022-08-15T07:00:58Z</time>
      </trkpt>
      <trkpt lat="44.72456" lon="0.96139">
        <ele>236.5</ele>
        <time>2022-08-15T07:01:00Z</time>
      </trkpt>
      <trkpt lat="44.72463" lon="0.96153">
        <ele>236.3</ele>
        <time>2022-08-15T07:01:02Z</time>
      </trkpt>
      <trkpt lat="44.7247" lon="0.96167">
        <ele>236.3</ele>
        <time>2022-08-15T07:01:04Z</time>
      </trkpt>
      <trkpt lat="44.72477" lon="0.96178">
        <ele>236.6</ele>
        <time>2022-08-15T07:01:06Z</time>
      </trkpt>
      <trkpt lat="44.72482" lon="0.96188">
        <ele>236.9</ele>
        <time>2022-08-15T07:01:08Z</time>
      </trkpt>
      <trkpt lat="44.72488" lon="0.96197">
        <ele>237.2</ele>
        <time>2022-08-15T07:01:10Z</time>
      </trkpt>
      <trkpt lat="44.72493" lon="0.96206">
        <ele>237.6</ele>
        <time>2022-08-15T07:01:12Z</time>
      </trkpt>
      <trkpt lat="44.72497" lon="0.96216">
        <ele>238</ele>
        <time>2022-08-15T07:01:14Z</time>
      </trkpt>
      <trkpt lat="44.72501" lon="0.96225">
        <ele>238.3</ele>
        <time>2022-08-15T07:01:16Z</time>
      </trkpt>
      <trkpt lat="44.72504" lon="0.96235">
        <ele>238.4</ele>
        <time>2022-08-15T07:01:18Z</time>
      </trkpt>
      <trkpt lat="44.72508" lon="0.96244">
        <ele>238.6</ele>
        <time>2022-08-15T07:01:20Z</time>
      </trkpt>
      <trkpt lat="44.72511" lon="0.96253">
        <ele>238.5</ele>
        <time>2022-08-15T07:01:22Z</time>
      </trkpt>
      <trkpt lat="44.72514" lon="0.96259">
        <ele>238.3</ele>
        <time>2022-08-15T07:01:24Z</time>
      </trkpt>
      <trkpt lat="44.72518" lon="0.96262">
        <ele>238</ele>
        <time>2022-08-15T07:01:26Z</time>
      </trkpt>
      <trkpt lat="44.72523" lon="0.96263">
        <ele>237.8</ele>
        <time>2022-08-15T07:01:28Z</time>
      </trkpt>
      <trkpt lat="44.72527" lon="0.96262">
        <ele>237.7</ele>
        <time>2022-08-15T07:01:30Z</time>
      </trkpt>
      <trkpt lat="44.72533" lon="0.9626">
        <ele>237.5</ele>
        <time>2022-08-15T07:01:32Z</time>
      </trkpt>
      <trkpt lat="44.72538" lon="0.96258">
        <ele>237.4</ele>
        <time>2022-08-15T07:01:34Z</time>
      </trkpt>
      <trkpt lat="44.72542" lon="0.96256">
        <ele>237.3</ele>
        <time>2022-08-15T07:01:36Z</time>
      </trkpt>
      <trkpt lat="44.72545" lon="0.96255">
        <ele>237.2</ele>
        <time>2022-08-15T07:01:38Z</time>
      </trkpt>
      <trkpt lat="44.72547" lon="0.96257">
        <ele>237.1</ele>
        <time>2022-08-15T07:01:40Z</time>
      </trkpt>
      <trkpt lat="44.72548" lon="0.96258">
        <ele>237.1</ele>
        <time>2022-08-15T07:01:42Z</time>
      </trkpt>
      <trkpt lat="44.72548" lon="0.96258">
        <ele>237</ele>
        <time>2022-08-15T07:01:44Z</time>
      </trkpt>
      <trkpt lat="44.72549" lon="0.96259">
        <ele>237</ele>
        <time>2022-08-15T07:01:46Z</time>
      </trkpt>
      <trkpt lat="44.72549" lon="0.9626">
        <ele>236.9</ele>
        <time>2022-08-15T07:01:48Z</time>
      </trkpt>
      <trkpt lat="44.72601" lon="0.9623">
        <ele>233.3</ele>
        <time>2022-08-15T07:08:26Z</time>
      </trkpt>
      <trkpt lat="44.72611" lon="0.96234">
        <ele>233.1</ele>
        <time>2022-08-15T07:08:28Z</time>
      </trkpt>
      <trkpt lat="44.7262" lon="0.96241">
        <ele>233.1</ele>
        <time>2022-08-15T07:08:30Z</time>
      </trkpt>
      <trkpt lat="44.72627" lon="0.96249">
        <ele>233.3</ele>
        <time>2022-08-15T07:08:32Z</time>
      </trkpt>
      <trkpt lat="44.72633" lon="0.96256">
        <ele>232.7</ele>
        <time>2022-08-15T07:08:34Z</time>
      </trkpt>
      <trkpt lat="44.72638" lon="0.96262">
        <ele>232</ele>
        <time>2022-08-15T07:08:36Z</time>
      </trkpt>
      <trkpt lat="44.72644" lon="0.96268">
        <ele>231.2</ele>
        <time>2022-08-15T07:08:38Z</time>
      </trkpt>
      <trkpt lat="44.72652" lon="0.96274">
        <ele>230.4</ele>
        <time>2022-08-15T07:08:40Z</time>
      </trkpt>
      <trkpt lat="44.72661" lon="0.96278">
        <ele>229.4</ele>
        <time>2022-08-15T07:08:42Z</time>
      </trkpt>
      <trkpt lat="44.72672" lon="0.96282">
        <ele>228</ele>
        <time>2022-08-15T07:08:44Z</time>
      </trkpt>
      <trkpt lat="44.72687" lon="0.96285">
        <ele>226.1</ele>
        <time>2022-08-15T07:08:46Z</time>
      </trkpt>
      <trkpt lat="44.72705" lon="0.96289">
        <ele>223.9</ele>
        <time>2022-08-15T07:08:48Z</time>
      </trkpt>
      <trkpt lat="44.72721" lon="0.96292">
        <ele>221.8</ele>
        <time>2022-08-15T07:08:50Z</time>
      </trkpt>
      <trkpt lat="44.72736" lon="0.96295">
        <ele>219.9</ele>
        <time>2022-08-15T07:08:52Z</time>
      </trkpt>
      <trkpt lat="44.72749" lon="0.96297">
        <ele>218.3</ele>
        <time>2022-08-15T07:08:54Z</time>
      </trkpt>
      <trkpt lat="44.72763" lon="0.96299">
        <ele>217</ele>
        <time>2022-08-15T07:08:56Z</time>
      </trkpt>
      <trkpt lat="44.72775" lon="0.96302">
        <ele>215.7</ele>
        <time>2022-08-15T07:08:58Z</time>
      </trkpt>
      <trkpt lat="44.72782" lon="0.96306">
        <ele>214.7</ele>
        <time>2022-08-15T07:09:00Z</time>
      </trkpt>
      <trkpt lat="44.7279" lon="0.9631">
        <ele>213.6</ele>
        <time>2022-08-15T07:09:02Z</time>
      </trkpt>
      <trkpt lat="44.72833" lon="0.96319">
        <ele>208.1</ele>
        <time>2022-08-15T07:09:04Z</time>
      </trkpt>
      <trkpt lat="44.72853" lon="0.96326">
        <ele>209.9</ele>
        <time>2022-08-15T07:09:06Z</time>
      </trkpt>
      <trkpt lat="44.72869" lon="0.96332">
        <ele>211.3</ele>
        <time>2022-08-15T07:09:08Z</time>
      </trkpt>
      <trkpt lat="44.72881" lon="0.96348">
        <ele>211.2</ele>
        <time>2022-08-15T07:09:10Z</time>
      </trkpt>
      <trkpt lat="44.72888" lon="0.96363">
        <ele>210</ele>
        <time>2022-08-15T07:09:12Z</time>
      </trkpt>
      <trkpt lat="44.72892" lon="0.96374">
        <ele>208.8</ele>
        <time>2022-08-15T07:09:14Z</time>
      </trkpt>
      <trkpt lat="44.72898" lon="0.96383">
        <ele>208.1</ele>
        <time>2022-08-15T07:09:16Z</time>
      </trkpt>
      <trkpt lat="44.72904" lon="0.96385">
        <ele>208</ele>
        <time>2022-08-15T07:09:18Z</time>
      </trkpt>
      <trkpt lat="44.72908" lon="0.96386">
        <ele>208.1</ele>
        <time>2022-08-15T07:09:20Z</time>
      </trkpt>
      <trkpt lat="44.72911" lon="0.96386">
        <ele>208.2</ele>
        <time>2022-08-15T07:09:22Z</time>
      </trkpt>
      <trkpt lat="44.72916" lon="0.96384">
        <ele>208.9</ele>
        <time>2022-08-15T07:09:24Z</time>
      </trkpt>
      <trkpt lat="44.72921" lon="0.96382">
        <ele>209.5</ele>
        <time>2022-08-15T07:09:26Z</time>
      </trkpt>
      <trkpt lat="44.72927" lon="0.96382">
        <ele>209.9</ele>
        <time>2022-08-15T07:09:28Z</time>
      </trkpt>
      <trkpt lat="44.72931" lon="0.96384">
        <ele>209.7</ele>
        <time>2022-08-15T07:09:30Z</time>
      </trkpt>
      <trkpt lat="44.72937" lon="0.96384">
        <ele>209.9</ele>
        <time>2022-08-15T07:09:32Z</time>
      </trkpt>
      <trkpt lat="44.72942" lon="0.96385">
        <ele>210.1</ele>
        <time>2022-08-15T07:09:34Z</time>
      </trkpt>
      <trkpt lat="44.72947" lon="0.96386">
        <ele>210.2</ele>
        <time>2022-08-15T07:09:36Z</time>
      </trkpt>
      <trkpt lat="44.72952" lon="0.96386">
        <ele>210.5</ele>
        <time>2022-08-15T07:09:38Z</time>
      </trkpt>
      <trkpt lat="44.72956" lon="0.96385">
        <ele>210.9</ele>
        <time>2022-08-15T07:09:40Z</time>
      </trkpt>
      <trkpt lat="44.7296" lon="0.96383">
        <ele>211.5</ele>
        <time>2022-08-15T07:09:42Z</time>
      </trkpt>
      <trkpt lat="44.72965" lon="0.96382">
        <ele>211.8</ele>
        <time>2022-08-15T07:09:44Z</time>
      </trkpt>
      <trkpt lat="44.72969" lon="0.96381">
        <ele>212.3</ele>
        <time>2022-08-15T07:09:46Z</time>
      </trkpt>
      <trkpt lat="44.72974" lon="0.96379">
        <ele>212.8</ele>
        <time>2022-08-15T07:09:48Z</time>
      </trkpt>
      <trkpt lat="44.72978" lon="0.96378">
        <ele>213.3</ele>
        <time>2022-08-15T07:09:50Z</time>
      </trkpt>
      <trkpt lat="44.72983" lon="0.96377">
        <ele>213.8</ele>
        <time>2022-08-15T07:09:52Z</time>
      </trkpt>
      <trkpt lat="44.72987" lon="0.96375">
        <ele>214.3</ele>
        <time>2022-08-15T07:09:54Z</time>
      </trkpt>
      <trkpt lat="44.72991" lon="0.96374">
        <ele>214.8</ele>
        <time>2022-08-15T07:09:56Z</time>
      </trkpt>
      <trkpt lat="44.72995" lon="0.96372">
        <ele>215.2</ele>
        <time>2022-08-15T07:09:58Z</time>
      </trkpt>
      <trkpt lat="44.72999" lon="0.96372">
        <ele>215.5</ele>
        <time>2022-08-15T07:10:00Z</time>
      </trkpt>
      <trkpt lat="44.73002" lon="0.9637">
        <ele>216</ele>
        <time>2022-08-15T07:10:02Z</time>
      </trkpt>
      <trkpt lat="44.73006" lon="0.9637">
        <ele>216.4</ele>
        <time>2022-08-15T07:10:04Z</time>
      </trkpt>
      <trkpt lat="44.73011" lon="0.96369">
        <ele>216.9</ele>
        <time>2022-08-15T07:10:06Z</time>
      </trkpt>
      <trkpt lat="44.73014" lon="0.9637">
        <ele>217.1</ele>
        <time>2022-08-15T07:10:08Z</time>
      </trkpt>
      <trkpt lat="44.73018" lon="0.9637">
        <ele>217.5</ele>
        <time>2022-08-15T07:10:10Z</time>
      </trkpt>
      <trkpt lat="44.73021" lon="0.96369">
        <ele>217.8</ele>
        <time>2022-08-15T07:10:12Z</time>
      </trkpt>
      <trkpt lat="44.73026" lon="0.9637">
        <ele>218.2</ele>
        <time>2022-08-15T07:10:14Z</time>
      </trkpt>
      <trkpt lat="44.73029" lon="0.9637">
        <ele>218.3</ele>
        <time>2022-08-15T07:10:16Z</time>
      </trkpt>
      <trkpt lat="44.73033" lon="0.96371">
        <ele>218.6</ele>
        <time>2022-08-15T07:10:18Z</time>
      </trkpt>
      <trkpt lat="44.73037" lon="0.96372">
        <ele>218.8</ele>
        <time>2022-08-15T07:10:20Z</time>
      </trkpt>
      <trkpt lat="44.73041" lon="0.96373">
        <ele>218.9</ele>
        <time>2022-08-15T07:10:22Z</time>
      </trkpt>
      <trkpt lat="44.73044" lon="0.96373">
        <ele>219.1</ele>
        <time>2022-08-15T07:10:24Z</time>
      </trkpt>
      <trkpt lat="44.73048" lon="0.96374">
        <ele>219.2</ele>
        <time>2022-08-15T07:10:26Z</time>
      </trkpt>
      <trkpt lat="44.73052" lon="0.96376">
        <ele>219.3</ele>
        <time>2022-08-15T07:10:28Z</time>
      </trkpt>
      <trkpt lat="44.73055" lon="0.96377">
        <ele>219.2</ele>
        <time>2022-08-15T07:10:30Z</time>
      </trkpt>
      <trkpt lat="44.73059" lon="0.96377">
        <ele>219.5</ele>
        <time>2022-08-15T07:10:32Z</time>
      </trkpt>
      <trkpt lat="44.73063" lon="0.96378">
        <ele>219.7</ele>
        <time>2022-08-15T07:10:34Z</time>
      </trkpt>
      <trkpt lat="44.73066" lon="0.96379">
        <ele>219.7</ele>
        <time>2022-08-15T07:10:36Z</time>
      </trkpt>
      <trkpt lat="44.7307" lon="0.9638">
        <ele>219.9</ele>
        <time>2022-08-15T07:10:38Z</time>
      </trkpt>
      <trkpt lat="44.73072" lon="0.9638">
        <ele>220.1</ele>
        <time>2022-08-15T07:10:40Z</time>
      </trkpt>
      <trkpt lat="44.73076" lon="0.9638">
        <ele>220.3</ele>
        <time>2022-08-15T07:10:42Z</time>
      </trkpt>
      <trkpt lat="44.7308" lon="0.96382">
        <ele>220.2</ele>
        <time>2022-08-15T07:10:44Z</time>
      </trkpt>
      <trkpt lat="44.73085" lon="0.96383">
        <ele>220.4</ele>
        <time>2022-08-15T07:10:46Z</time>
      </trkpt>
      <trkpt lat="44.73089" lon="0.96385">
        <ele>220.4</ele>
        <time>2022-08-15T07:10:48Z</time>
      </trkpt>
      <trkpt lat="44.73092" lon="0.96386">
        <ele>220.5</ele>
        <time>2022-08-15T07:10:50Z</time>
      </trkpt>
      <trkpt lat="44.73097" lon="0.96387">
        <ele>220.8</ele>
        <time>2022-08-15T07:10:52Z</time>
      </trkpt>
      <trkpt lat="44.73103" lon="0.96389">
        <ele>220.8</ele>
        <time>2022-08-15T07:10:54Z</time>
      </trkpt>
      <trkpt lat="44.73107" lon="0.96391">
        <ele>220.9</ele>
        <time>2022-08-15T07:10:56Z</time>
      </trkpt>
      <trkpt lat="44.73112" lon="0.96392">
        <ele>221.1</ele>
        <time>2022-08-15T07:10:58Z</time>
      </trkpt>
      <trkpt lat="44.73116" lon="0.96394">
        <ele>221.1</ele>
        <time>2022-08-15T07:11:00Z</time>
      </trkpt>
      <trkpt lat="44.73121" lon="0.96397">
        <ele>221</ele>
        <time>2022-08-15T07:11:02Z</time>
      </trkpt>
      <trkpt lat="44.73124" lon="0.96397">
        <ele>221.3</ele>
        <time>2022-08-15T07:11:04Z</time>
      </trkpt>
      <trkpt lat="44.73128" lon="0.96398">
        <ele>221.5</ele>
        <time>2022-08-15T07:11:06Z</time>
      </trkpt>
      <trkpt lat="44.73134" lon="0.964">
        <ele>221.7</ele>
        <time>2022-08-15T07:11:08Z</time>
      </trkpt>
      <trkpt lat="44.73138" lon="0.964">
        <ele>222.1</ele>
        <time>2022-08-15T07:11:10Z</time>
      </trkpt>
      <trkpt lat="44.73142" lon="0.964">
        <ele>222.5</ele>
        <time>2022-08-15T07:11:12Z</time>
      </trkpt>
      <trkpt lat="44.73147" lon="0.96401">
        <ele>222.8</ele>
        <time>2022-08-15T07:11:14Z</time>
      </trkpt>
      <trkpt lat="44.73149" lon="0.96401">
        <ele>223</ele>
        <time>2022-08-15T07:11:16Z</time>
      </trkpt>
      <trkpt lat="44.73154" lon="0.96402">
        <ele>223.2</ele>
        <time>2022-08-15T07:11:18Z</time>
      </trkpt>
      <trkpt lat="44.73158" lon="0.96402">
        <ele>223.7</ele>
        <time>2022-08-15T07:11:20Z</time>
      </trkpt>
      <trkpt lat="44.73162" lon="0.96402">
        <ele>224.2</ele>
        <time>2022-08-15T07:11:22Z</time>
      </trkpt>
      <trkpt lat="44.73166" lon="0.96401">
        <ele>224.7</ele>
        <time>2022-08-15T07:11:24Z</time>
      </trkpt>
      <trkpt lat="44.73171" lon="0.96402">
        <ele>224.8</ele>
        <time>2022-08-15T07:11:26Z</time>
      </trkpt>
      <trkpt lat="44.73174" lon="0.96402">
        <ele>224.8</ele>
        <time>2022-08-15T07:11:28Z</time>
      </trkpt>
      <trkpt lat="44.73178" lon="0.96401">
        <ele>225.2</ele>
        <time>2022-08-15T07:11:30Z</time>
      </trkpt>
      <trkpt lat="44.73183" lon="0.964">
        <ele>225.6</ele>
        <time>2022-08-15T07:11:32Z</time>
      </trkpt>
      <trkpt lat="44.73186" lon="0.96397">
        <ele>226.1</ele>
        <time>2022-08-15T07:11:34Z</time>
      </trkpt>
      <trkpt lat="44.73191" lon="0.96396">
        <ele>226.4</ele>
        <time>2022-08-15T07:11:36Z</time>
      </trkpt>
      <trkpt lat="44.73196" lon="0.96395">
        <ele>226.8</ele>
        <time>2022-08-15T07:11:38Z</time>
      </trkpt>
      <trkpt lat="44.732" lon="0.96395">
        <ele>227</ele>
        <time>2022-08-15T07:11:40Z</time>
      </trkpt>
      <trkpt lat="44.73203" lon="0.96395">
        <ele>226.9</ele>
        <time>2022-08-15T07:11:42Z</time>
      </trkpt>
      <trkpt lat="44.73205" lon="0.96394">
        <ele>227.1</ele>
        <time>2022-08-15T07:11:44Z</time>
      </trkpt>
      <trkpt lat="44.73208" lon="0.96394">
        <ele>227.4</ele>
        <time>2022-08-15T07:11:46Z</time>
      </trkpt>
      <trkpt lat="44.73215" lon="0.96393">
        <ele>227.6</ele>
        <time>2022-08-15T07:11:48Z</time>
      </trkpt>
      <trkpt lat="44.73219" lon="0.96391">
        <ele>228</ele>
        <time>2022-08-15T07:11:50Z</time>
      </trkpt>
      <trkpt lat="44.73222" lon="0.96391">
        <ele>228.2</ele>
        <time>2022-08-15T07:11:52Z</time>
      </trkpt>
      <trkpt lat="44.73226" lon="0.96391">
        <ele>228.4</ele>
        <time>2022-08-15T07:11:54Z</time>
      </trkpt>
      <trkpt lat="44.73228" lon="0.96389">
        <ele>228.7</ele>
        <time>2022-08-15T07:11:56Z</time>
      </trkpt>
      <trkpt lat="44.73232" lon="0.96386">
        <ele>229.3</ele>
        <time>2022-08-15T07:11:58Z</time>
      </trkpt>
      <trkpt lat="44.73235" lon="0.96384">
        <ele>229.7</ele>
        <time>2022-08-15T07:12:00Z</time>
      </trkpt>
      <trkpt lat="44.7324" lon="0.96381">
        <ele>230.2</ele>
        <time>2022-08-15T07:12:02Z</time>
      </trkpt>
      <trkpt lat="44.73286" lon="0.96347">
        <ele>232.8</ele>
        <time>2022-08-15T07:12:26Z</time>
      </trkpt>
      <trkpt lat="44.73292" lon="0.96345">
        <ele>232.6</ele>
        <time>2022-08-15T07:12:28Z</time>
      </trkpt>
      <trkpt lat="44.73296" lon="0.96344">
        <ele>232.3</ele>
        <time>2022-08-15T07:12:30Z</time>
      </trkpt>
      <trkpt lat="44.733" lon="0.96345">
        <ele>231.9</ele>
        <time>2022-08-15T07:12:32Z</time>
      </trkpt>
      <trkpt lat="44.73305" lon="0.96346">
        <ele>231.4</ele>
        <time>2022-08-15T07:12:34Z</time>
      </trkpt>
      <trkpt lat="44.73311" lon="0.96346">
        <ele>230.9</ele>
        <time>2022-08-15T07:12:36Z</time>
      </trkpt>
      <trkpt lat="44.73316" lon="0.96347">
        <ele>230.3</ele>
        <time>2022-08-15T07:12:38Z</time>
      </trkpt>
      <trkpt lat="44.73322" lon="0.96349">
        <ele>229.6</ele>
        <time>2022-08-15T07:12:40Z</time>
      </trkpt>
      <trkpt lat="44.73327" lon="0.96351">
        <ele>229</ele>
        <time>2022-08-15T07:12:42Z</time>
      </trkpt>
      <trkpt lat="44.73332" lon="0.96353">
        <ele>228.4</ele>
        <time>2022-08-15T07:12:44Z</time>
      </trkpt>
      <trkpt lat="44.73338" lon="0.96355">
        <ele>228</ele>
        <time>2022-08-15T07:12:46Z</time>
      </trkpt>
      <trkpt lat="44.73344" lon="0.96355">
        <ele>227.8</ele>
        <time>2022-08-15T07:12:48Z</time>
      </trkpt>
      <trkpt lat="44.73349" lon="0.96354">
        <ele>227.7</ele>
        <time>2022-08-15T07:12:50Z</time>
      </trkpt>
      <trkpt lat="44.73355" lon="0.96352">
        <ele>227.6</ele>
        <time>2022-08-15T07:12:52Z</time>
      </trkpt>
      <trkpt lat="44.73361" lon="0.96349">
        <ele>227.5</ele>
        <time>2022-08-15T07:12:54Z</time>
      </trkpt>
      <trkpt lat="44.73367" lon="0.96346">
        <ele>227.5</ele>
        <time>2022-08-15T07:12:56Z</time>
      </trkpt>
      <trkpt lat="44.73372" lon="0.96343">
        <ele>227.5</ele>
        <time>2022-08-15T07:12:58Z</time>
      </trkpt>
      <trkpt lat="44.73378" lon="0.96341">
        <ele>227.4</ele>
        <time>2022-08-15T07:13:00Z</time>
      </trkpt>
      <trkpt lat="44.73383" lon="0.96339">
        <ele>227.3</ele>
        <time>2022-08-15T07:13:02Z</time>
      </trkpt>
      <trkpt lat="44.7339" lon="0.96336">
        <ele>227.2</ele>
        <time>2022-08-15T07:13:04Z</time>
      </trkpt>
      <trkpt lat="44.73397" lon="0.96332">
        <ele>226.9</ele>
        <time>2022-08-15T07:13:06Z</time>
      </trkpt>
      <trkpt lat="44.73406" lon="0.96328">
        <ele>226.5</ele>
        <time>2022-08-15T07:13:08Z</time>
      </trkpt>
      <trkpt lat="44.73414" lon="0.96324">
        <ele>226.1</ele>
        <time>2022-08-15T07:13:10Z</time>
      </trkpt>
      <trkpt lat="44.73423" lon="0.96319">
        <ele>225.7</ele>
        <time>2022-08-15T07:13:12Z</time>
      </trkpt>
      <trkpt lat="44.73432" lon="0.96314">
        <ele>225.2</ele>
        <time>2022-08-15T07:13:14Z</time>
      </trkpt>
      <trkpt lat="44.73441" lon="0.96308">
        <ele>224.7</ele>
        <time>2022-08-15T07:13:16Z</time>
      </trkpt>
      <trkpt lat="44.7345" lon="0.96304">
        <ele>224.3</ele>
        <time>2022-08-15T07:13:18Z</time>
      </trkpt>
      <trkpt lat="44.73459" lon="0.96301">
        <ele>223.8</ele>
        <time>2022-08-15T07:13:20Z</time>
      </trkpt>
      <trkpt lat="44.7347" lon="0.96295">
        <ele>223.1</ele>
        <time>2022-08-15T07:13:22Z</time>
      </trkpt>
      <trkpt lat="44.73481" lon="0.96289">
        <ele>222.5</ele>
        <time>2022-08-15T07:13:24Z</time>
      </trkpt>
      <trkpt lat="44.73492" lon="0.96283">
        <ele>221.8</ele>
        <time>2022-08-15T07:13:26Z</time>
      </trkpt>
      <trkpt lat="44.73504" lon="0.96277">
        <ele>221.2</ele>
        <time>2022-08-15T07:13:28Z</time>
      </trkpt>
      <trkpt lat="44.73515" lon="0.96268">
        <ele>220.6</ele>
        <time>2022-08-15T07:13:30Z</time>
      </trkpt>
      <trkpt lat="44.73527" lon="0.96259">
        <ele>220.1</ele>
        <time>2022-08-15T07:13:32Z</time>
      </trkpt>
      <trkpt lat="44.73539" lon="0.96249">
        <ele>219.6</ele>
        <time>2022-08-15T07:13:34Z</time>
      </trkpt>
      <trkpt lat="44.73551" lon="0.96237">
        <ele>219.6</ele>
        <time>2022-08-15T07:13:36Z</time>
      </trkpt>
      <trkpt lat="44.73562" lon="0.96228">
        <ele>219.5</ele>
        <time>2022-08-15T07:13:38Z</time>
      </trkpt>
      <trkpt lat="44.73573" lon="0.96218">
        <ele>219.5</ele>
        <time>2022-08-15T07:13:40Z</time>
      </trkpt>
      <trkpt lat="44.73583" lon="0.96209">
        <ele>219.5</ele>
        <time>2022-08-15T07:13:42Z</time>
      </trkpt>
      <trkpt lat="44.73592" lon="0.96202">
        <ele>219.5</ele>
        <time>2022-08-15T07:13:44Z</time>
      </trkpt>
      <trkpt lat="44.73604" lon="0.9619">
        <ele>219.5</ele>
        <time>2022-08-15T07:13:46Z</time>
      </trkpt>
      <trkpt lat="44.73615" lon="0.96178">
        <ele>219.5</ele>
        <time>2022-08-15T07:13:48Z</time>
      </trkpt>
      <trkpt lat="44.73625" lon="0.96169">
        <ele>219.4</ele>
        <time>2022-08-15T07:13:50Z</time>
      </trkpt>
      <trkpt lat="44.73635" lon="0.9616">
        <ele>219.3</ele>
        <time>2022-08-15T07:13:52Z</time>
      </trkpt>
      <trkpt lat="44.73644" lon="0.9615">
        <ele>219.3</ele>
        <time>2022-08-15T07:13:54Z</time>
      </trkpt>
      <trkpt lat="44.73653" lon="0.9614">
        <ele>219.3</ele>
        <time>2022-08-15T07:13:56Z</time>
      </trkpt>
      <trkpt lat="44.73664" lon="0.9613">
        <ele>219.4</ele>
        <time>2022-08-15T07:13:58Z</time>
      </trkpt>
      <trkpt lat="44.73675" lon="0.9612">
        <ele>219.3</ele>
        <time>2022-08-15T07:14:00Z</time>
      </trkpt>
      <trkpt lat="44.73686" lon="0.96111">
        <ele>219</ele>
        <time>2022-08-15T07:14:02Z</time>
      </trkpt>
      <trkpt lat="44.73697" lon="0.96101">
        <ele>218.6</ele>
        <time>2022-08-15T07:14:04Z</time>
      </trkpt>
      <trkpt lat="44.73709" lon="0.96092">
        <ele>217.9</ele>
        <time>2022-08-15T07:14:06Z</time>
      </trkpt>
      <trkpt lat="44.73721" lon="0.96083">
        <ele>217.1</ele>
        <time>2022-08-15T07:14:08Z</time>
      </trkpt>
      <trkpt lat="44.73733" lon="0.96076">
        <ele>216.4</ele>
        <time>2022-08-15T07:14:10Z</time>
      </trkpt>
      <trkpt lat="44.73746" lon="0.96071">
        <ele>215.5</ele>
        <time>2022-08-15T07:14:12Z</time>
      </trkpt>
      <trkpt lat="44.73757" lon="0.96068">
        <ele>214.5</ele>
        <time>2022-08-15T07:14:14Z</time>
      </trkpt>
      <trkpt lat="44.73769" lon="0.96063">
        <ele>213.3</ele>
        <time>2022-08-15T07:14:16Z</time>
      </trkpt>
      <trkpt lat="44.73779" lon="0.96057">
        <ele>212.3</ele>
        <time>2022-08-15T07:14:18Z</time>
      </trkpt>
      <trkpt lat="44.73786" lon="0.96053">
        <ele>211.5</ele>
        <time>2022-08-15T07:14:20Z</time>
      </trkpt>
      <trkpt lat="44.73788" lon="0.96056">
        <ele>211.4</ele>
        <time>2022-08-15T07:14:22Z</time>
      </trkpt>
      <trkpt lat="44.73788" lon="0.96057">
        <ele>211.3</ele>
        <time>2022-08-15T07:14:24Z</time>
      </trkpt>
      <trkpt lat="44.73791" lon="0.96058">
        <ele>211.1</ele>
        <time>2022-08-15T07:14:26Z</time>
      </trkpt>
      <trkpt lat="44.73791" lon="0.96058">
        <ele>211.1</ele>
        <time>2022-08-15T07:14:28Z</time>
      </trkpt>
      <trkpt lat="44.73791" lon="0.96059">
        <ele>211.1</ele>
        <time>2022-08-15T07:14:30Z</time>
      </trkpt>
      <trkpt lat="44.73791" lon="0.96059">
        <ele>211.1</ele>
        <time>2022-08-15T07:14:32Z</time>
      </trkpt>
      <trkpt lat="44.73795" lon="0.96065">
        <ele>210.7</ele>
        <time>2022-08-15T07:14:34Z</time>
      </trkpt>
      <trkpt lat="44.73797" lon="0.96074">
        <ele>210.5</ele>
        <time>2022-08-15T07:14:36Z</time>
      </trkpt>
      <trkpt lat="44.73799" lon="0.96085">
        <ele>210.4</ele>
        <time>2022-08-15T07:14:38Z</time>
      </trkpt>
      <trkpt lat="44.73803" lon="0.96095">
        <ele>210.3</ele>
        <time>2022-08-15T07:14:40Z</time>
      </trkpt>
      <trkpt lat="44.7381" lon="0.96104">
        <ele>210.1</ele>
        <time>2022-08-15T07:14:42Z</time>
      </trkpt>
      <trkpt lat="44.73816" lon="0.96109">
        <ele>209.8</ele>
        <time>2022-08-15T07:14:44Z</time>
      </trkpt>
      <trkpt lat="44.73821" lon="0.96117">
        <ele>209.7</ele>
        <time>2022-08-15T07:14:46Z</time>
      </trkpt>
      <trkpt lat="44.73826" lon="0.96124">
        <ele>209.6</ele>
        <time>2022-08-15T07:14:48Z</time>
      </trkpt>
      <trkpt lat="44.73831" lon="0.96132">
        <ele>209.6</ele>
        <time>2022-08-15T07:14:50Z</time>
      </trkpt>
      <trkpt lat="44.73835" lon="0.9614">
        <ele>209.6</ele>
        <time>2022-08-15T07:14:52Z</time>
      </trkpt>
      <trkpt lat="44.73838" lon="0.96148">
        <ele>209.7</ele>
        <time>2022-08-15T07:14:54Z</time>
      </trkpt>
      <trkpt lat="44.73842" lon="0.96155">
        <ele>209.6</ele>
        <time>2022-08-15T07:14:56Z</time>
      </trkpt>
      <trkpt lat="44.73846" lon="0.96162">
        <ele>209.6</ele>
        <time>2022-08-15T07:14:58Z</time>
      </trkpt>
      <trkpt lat="44.73849" lon="0.96169">
        <ele>209.6</ele>
        <time>2022-08-15T07:15:00Z</time>
      </trkpt>
      <trkpt lat="44.73854" lon="0.96176">
        <ele>209.5</ele>
        <time>2022-08-15T07:15:02Z</time>
      </trkpt>
      <trkpt lat="44.7386" lon="0.96182">
        <ele>209.2</ele>
        <time>2022-08-15T07:15:04Z</time>
      </trkpt>
      <trkpt lat="44.73866" lon="0.96189">
        <ele>208.9</ele>
        <time>2022-08-15T07:15:06Z</time>
      </trkpt>
      <trkpt lat="44.73874" lon="0.96197">
        <ele>208.4</ele>
        <time>2022-08-15T07:15:08Z</time>
      </trkpt>
      <trkpt lat="44.73883" lon="0.96207">
        <ele>207.7</ele>
        <time>2022-08-15T07:15:10Z</time>
      </trkpt>
      <trkpt lat="44.73892" lon="0.96216">
        <ele>207</ele>
        <time>2022-08-15T07:15:12Z</time>
      </trkpt>
      <trkpt lat="44.73903" lon="0.96224">
        <ele>206</ele>
        <time>2022-08-15T07:15:14Z</time>
      </trkpt>
      <trkpt lat="44.73917" lon="0.96225">
        <ele>204.4</ele>
        <time>2022-08-15T07:15:16Z</time>
      </trkpt>
      <trkpt lat="44.73931" lon="0.96223">
        <ele>203.9</ele>
        <time>2022-08-15T07:15:18Z</time>
      </trkpt>
      <trkpt lat="44.73946" lon="0.96223">
        <ele>203.5</ele>
        <time>2022-08-15T07:15:20Z</time>
      </trkpt>
      <trkpt lat="44.73962" lon="0.96223">
        <ele>203.1</ele>
        <time>2022-08-15T07:15:22Z</time>
      </trkpt>
      <trkpt lat="44.73976" lon="0.96223">
        <ele>202.7</ele>
        <time>2022-08-15T07:15:24Z</time>
      </trkpt>
      <trkpt lat="44.7399" lon="0.96225">
        <ele>202.3</ele>
        <time>2022-08-15T07:15:26Z</time>
      </trkpt>
      <trkpt lat="44.74002" lon="0.96227">
        <ele>201.9</ele>
        <time>2022-08-15T07:15:28Z</time>
      </trkpt>
      <trkpt lat="44.74015" lon="0.96231">
        <ele>201.4</ele>
        <time>2022-08-15T07:15:30Z</time>
      </trkpt>
      <trkpt lat="44.74027" lon="0.96236">
        <ele>201</ele>
        <time>2022-08-15T07:15:32Z</time>
      </trkpt>
      <trkpt lat="44.74038" lon="0.96241">
        <ele>200.6</ele>
        <time>2022-08-15T07:15:34Z</time>
      </trkpt>
      <trkpt lat="44.74048" lon="0.96243">
        <ele>200.2</ele>
        <time>2022-08-15T07:15:36Z</time>
      </trkpt>
      <trkpt lat="44.74056" lon="0.96243">
        <ele>199.9</ele>
        <time>2022-08-15T07:15:38Z</time>
      </trkpt>
      <trkpt lat="44.74064" lon="0.96243">
        <ele>199.7</ele>
        <time>2022-08-15T07:15:40Z</time>
      </trkpt>
      <trkpt lat="44.74071" lon="0.96245">
        <ele>199.4</ele>
        <time>2022-08-15T07:15:42Z</time>
      </trkpt>
      <trkpt lat="44.74077" lon="0.96255">
        <ele>199.3</ele>
        <time>2022-08-15T07:15:44Z</time>
      </trkpt>
      <trkpt lat="44.74078" lon="0.96269">
        <ele>199.6</ele>
        <time>2022-08-15T07:15:46Z</time>
      </trkpt>
      <trkpt lat="44.74077" lon="0.96283">
        <ele>200</ele>
        <time>2022-08-15T07:15:48Z</time>
      </trkpt>
      <trkpt lat="44.74078" lon="0.96297">
        <ele>200.3</ele>
        <time>2022-08-15T07:15:50Z</time>
      </trkpt>
      <trkpt lat="44.74083" lon="0.9631">
        <ele>200.5</ele>
        <time>2022-08-15T07:15:52Z</time>
      </trkpt>
      <trkpt lat="44.74091" lon="0.9632">
        <ele>200.2</ele>
        <time>2022-08-15T07:15:54Z</time>
      </trkpt>
      <trkpt lat="44.741" lon="0.96328">
        <ele>199.9</ele>
        <time>2022-08-15T07:15:56Z</time>
      </trkpt>
      <trkpt lat="44.74109" lon="0.96336">
        <ele>199.6</ele>
        <time>2022-08-15T07:15:58Z</time>
      </trkpt>
      <trkpt lat="44.74118" lon="0.96344">
        <ele>199.4</ele>
        <time>2022-08-15T07:16:00Z</time>
      </trkpt>
      <trkpt lat="44.74126" lon="0.96351">
        <ele>199.3</ele>
        <time>2022-08-15T07:16:02Z</time>
      </trkpt>
      <trkpt lat="44.74135" lon="0.96358">
        <ele>199.2</ele>
        <time>2022-08-15T07:16:04Z</time>
      </trkpt>
      <trkpt lat="44.74142" lon="0.96362">
        <ele>199</ele>
        <time>2022-08-15T07:16:06Z</time>
      </trkpt>
      <trkpt lat="44.74148" lon="0.96366">
        <ele>198.9</ele>
        <time>2022-08-15T07:16:08Z</time>
      </trkpt>
      <trkpt lat="44.74154" lon="0.96372">
        <ele>199</ele>
        <time>2022-08-15T07:16:10Z</time>
      </trkpt>
      <trkpt lat="44.74161" lon="0.96379">
        <ele>199</ele>
        <time>2022-08-15T07:16:12Z</time>
      </trkpt>
      <trkpt lat="44.74169" lon="0.96386">
        <ele>199</ele>
        <time>2022-08-15T07:16:14Z</time>
      </trkpt>
      <trkpt lat="44.74178" lon="0.96393">
        <ele>198.7</ele>
        <time>2022-08-15T07:16:16Z</time>
      </trkpt>
      <trkpt lat="44.74186" lon="0.96401">
        <ele>198.6</ele>
        <time>2022-08-15T07:16:18Z</time>
      </trkpt>
      <trkpt lat="44.74194" lon="0.96408">
        <ele>198.3</ele>
        <time>2022-08-15T07:16:20Z</time>
      </trkpt>
      <trkpt lat="44.74199" lon="0.96412">
        <ele>198.1</ele>
        <time>2022-08-15T07:16:22Z</time>
      </trkpt>
      <trkpt lat="44.74203" lon="0.96415">
        <ele>197.8</ele>
        <time>2022-08-15T07:16:24Z</time>
      </trkpt>
      <trkpt lat="44.74205" lon="0.96418">
        <ele>197.8</ele>
        <time>2022-08-15T07:16:26Z</time>
      </trkpt>
      <trkpt lat="44.74205" lon="0.96417">
        <ele>197.8</ele>
        <time>2022-08-15T07:16:28Z</time>
      </trkpt>
      <trkpt lat="44.74205" lon="0.96417">
        <ele>197.8</ele>
        <time>2022-08-15T07:16:30Z</time>
      </trkpt>
      <trkpt lat="44.74205" lon="0.96417">
        <ele>197.8</ele>
        <time>2022-08-15T07:16:32Z</time>
      </trkpt>
      <trkpt lat="44.74205" lon="0.96417">
        <ele>197.8</ele>
        <time>2022-08-15T07:16:34Z</time>
      </trkpt>
      <trkpt lat="44.74217" lon="0.96418">
        <ele>196.8</ele>
        <time>2022-08-15T07:17:40Z</time>
      </trkpt>
      <trkpt lat="44.74224" lon="0.96421">
        <ele>196.4</ele>
        <time>2022-08-15T07:17:42Z</time>
      </trkpt>
      <trkpt lat="44.74232" lon="0.96425">
        <ele>195.9</ele>
        <time>2022-08-15T07:17:44Z</time>
      </trkpt>
      <trkpt lat="44.74242" lon="0.9643">
        <ele>195.3</ele>
        <time>2022-08-15T07:17:46Z</time>
      </trkpt>
      <trkpt lat="44.74254" lon="0.96434">
        <ele>194.5</ele>
        <time>2022-08-15T07:17:48Z</time>
      </trkpt>
      <trkpt lat="44.74266" lon="0.96438">
        <ele>193.6</ele>
        <time>2022-08-15T07:17:50Z</time>
      </trkpt>
      <trkpt lat="44.7428" lon="0.96445">
        <ele>192.7</ele>
        <time>2022-08-15T07:17:52Z</time>
      </trkpt>
      <trkpt lat="44.74294" lon="0.9645">
        <ele>191.9</ele>
        <time>2022-08-15T07:17:54Z</time>
      </trkpt>
      <trkpt lat="44.74307" lon="0.96455">
        <ele>191</ele>
        <time>2022-08-15T07:17:56Z</time>
      </trkpt>
      <trkpt lat="44.74319" lon="0.9646">
        <ele>190.3</ele>
        <time>2022-08-15T07:17:58Z</time>
      </trkpt>
      <trkpt lat="44.74332" lon="0.96466">
        <ele>189.7</ele>
        <time>2022-08-15T07:18:00Z</time>
      </trkpt>
      <trkpt lat="44.74345" lon="0.96472">
        <ele>188.6</ele>
        <time>2022-08-15T07:18:02Z</time>
      </trkpt>
      <trkpt lat="44.74356" lon="0.96479">
        <ele>187.7</ele>
        <time>2022-08-15T07:18:04Z</time>
      </trkpt>
      <trkpt lat="44.74368" lon="0.96487">
        <ele>186.5</ele>
        <time>2022-08-15T07:18:06Z</time>
      </trkpt>
      <trkpt lat="44.7438" lon="0.96495">
        <ele>185.1</ele>
        <time>2022-08-15T07:18:08Z</time>
      </trkpt>
      <trkpt lat="44.74394" lon="0.96502">
        <ele>183.3</ele>
        <time>2022-08-15T07:18:10Z</time>
      </trkpt>
      <trkpt lat="44.74406" lon="0.96514">
        <ele>181.6</ele>
        <time>2022-08-15T07:18:12Z</time>
      </trkpt>
      <trkpt lat="44.74418" lon="0.96531">
        <ele>180.2</ele>
        <time>2022-08-15T07:18:14Z</time>
      </trkpt>
      <trkpt lat="44.74427" lon="0.96545">
        <ele>179.7</ele>
        <time>2022-08-15T07:18:16Z</time>
      </trkpt>
      <trkpt lat="44.74429" lon="0.9656">
        <ele>179.7</ele>
        <time>2022-08-15T07:18:18Z</time>
      </trkpt>
      <trkpt lat="44.74435" lon="0.96575">
        <ele>179.4</ele>
        <time>2022-08-15T07:18:20Z</time>
      </trkpt>
      <trkpt lat="44.74436" lon="0.96584">
        <ele>179.4</ele>
        <time>2022-08-15T07:18:22Z</time>
      </trkpt>
      <trkpt lat="44.74441" lon="0.9659">
        <ele>179.3</ele>
        <time>2022-08-15T07:18:24Z</time>
      </trkpt>
      <trkpt lat="44.74446" lon="0.96593">
        <ele>179.1</ele>
        <time>2022-08-15T07:18:26Z</time>
      </trkpt>
      <trkpt lat="44.74453" lon="0.96596">
        <ele>178.7</ele>
        <time>2022-08-15T07:18:28Z</time>
      </trkpt>
      <trkpt lat="44.74461" lon="0.96597">
        <ele>178.1</ele>
        <time>2022-08-15T07:18:30Z</time>
      </trkpt>
      <trkpt lat="44.74468" lon="0.966">
        <ele>177.7</ele>
        <time>2022-08-15T07:18:32Z</time>
      </trkpt>
      <trkpt lat="44.74475" lon="0.96602">
        <ele>177.2</ele>
        <time>2022-08-15T07:18:34Z</time>
      </trkpt>
      <trkpt lat="44.74481" lon="0.96605">
        <ele>176.9</ele>
        <time>2022-08-15T07:18:36Z</time>
      </trkpt>
      <trkpt lat="44.74488" lon="0.96607">
        <ele>176.4</ele>
        <time>2022-08-15T07:18:38Z</time>
      </trkpt>
      <trkpt lat="44.74494" lon="0.96609">
        <ele>176</ele>
        <time>2022-08-15T07:18:40Z</time>
      </trkpt>
      <trkpt lat="44.745" lon="0.96614">
        <ele>175.9</ele>
        <time>2022-08-15T07:18:42Z</time>
      </trkpt>
      <trkpt lat="44.74507" lon="0.96617">
        <ele>176.4</ele>
        <time>2022-08-15T07:18:44Z</time>
      </trkpt>
      <trkpt lat="44.74513" lon="0.96621">
        <ele>177</ele>
        <time>2022-08-15T07:18:46Z</time>
      </trkpt>
      <trkpt lat="44.74521" lon="0.96622">
        <ele>177.5</ele>
        <time>2022-08-15T07:18:48Z</time>
      </trkpt>
      <trkpt lat="44.74524" lon="0.96628">
        <ele>178</ele>
        <time>2022-08-15T07:18:50Z</time>
      </trkpt>
      <trkpt lat="44.74528" lon="0.96631">
        <ele>178.3</ele>
        <time>2022-08-15T07:18:52Z</time>
      </trkpt>
      <trkpt lat="44.74527" lon="0.9663">
        <ele>178.2</ele>
        <time>2022-08-15T07:18:54Z</time>
      </trkpt>
      <trkpt lat="44.74528" lon="0.9663">
        <ele>178.3</ele>
        <time>2022-08-15T07:18:56Z</time>
      </trkpt>
      <trkpt lat="44.74527" lon="0.9663">
        <ele>178.3</ele>
        <time>2022-08-15T07:18:58Z</time>
      </trkpt>
      <trkpt lat="44.74527" lon="0.9663">
        <ele>178.3</ele>
        <time>2022-08-15T07:19:00Z</time>
      </trkpt>
      <trkpt lat="44.74538" lon="0.96633">
        <ele>179</ele>
        <time>2022-08-15T07:19:22Z</time>
      </trkpt>
      <trkpt lat="44.74543" lon="0.96635">
        <ele>179.4</ele>
        <time>2022-08-15T07:19:24Z</time>
      </trkpt>
      <trkpt lat="44.74548" lon="0.96638">
        <ele>179.8</ele>
        <time>2022-08-15T07:19:26Z</time>
      </trkpt>
      <trkpt lat="44.74554" lon="0.96641">
        <ele>180.2</ele>
        <time>2022-08-15T07:19:28Z</time>
      </trkpt>
      <trkpt lat="44.74559" lon="0.96643">
        <ele>180.6</ele>
        <time>2022-08-15T07:19:30Z</time>
      </trkpt>
      <trkpt lat="44.74564" lon="0.96647">
        <ele>181.1</ele>
        <time>2022-08-15T07:19:32Z</time>
      </trkpt>
      <trkpt lat="44.7457" lon="0.9665">
        <ele>181.5</ele>
        <time>2022-08-15T07:19:34Z</time>
      </trkpt>
      <trkpt lat="44.74576" lon="0.96652">
        <ele>181.9</ele>
        <time>2022-08-15T07:19:36Z</time>
      </trkpt>
      <trkpt lat="44.74583" lon="0.96654">
        <ele>182.4</ele>
        <time>2022-08-15T07:19:38Z</time>
      </trkpt>
      <trkpt lat="44.74589" lon="0.96657">
        <ele>182.4</ele>
        <time>2022-08-15T07:19:40Z</time>
      </trkpt>
      <trkpt lat="44.74595" lon="0.96659">
        <ele>182.4</ele>
        <time>2022-08-15T07:19:42Z</time>
      </trkpt>
      <trkpt lat="44.746" lon="0.96661">
        <ele>182.4</ele>
        <time>2022-08-15T07:19:44Z</time>
      </trkpt>
      <trkpt lat="44.74605" lon="0.96665">
        <ele>182.4</ele>
        <time>2022-08-15T07:19:46Z</time>
      </trkpt>
      <trkpt lat="44.74611" lon="0.96667">
        <ele>182.3</ele>
        <time>2022-08-15T07:19:48Z</time>
      </trkpt>
      <trkpt lat="44.74616" lon="0.96669">
        <ele>182.3</ele>
        <time>2022-08-15T07:19:50Z</time>
      </trkpt>
      <trkpt lat="44.74622" lon="0.96672">
        <ele>182.4</ele>
        <time>2022-08-15T07:19:52Z</time>
      </trkpt>
      <trkpt lat="44.74627" lon="0.96676">
        <ele>182.5</ele>
        <time>2022-08-15T07:19:54Z</time>
      </trkpt>
      <trkpt lat="44.74633" lon="0.96678">
        <ele>182.4</ele>
        <time>2022-08-15T07:19:56Z</time>
      </trkpt>
      <trkpt lat="44.74639" lon="0.9668">
        <ele>182.4</ele>
        <time>2022-08-15T07:19:58Z</time>
      </trkpt>
      <trkpt lat="44.74645" lon="0.96684">
        <ele>182.5</ele>
        <time>2022-08-15T07:20:00Z</time>
      </trkpt>
      <trkpt lat="44.7465" lon="0.96686">
        <ele>182.5</ele>
        <time>2022-08-15T07:20:02Z</time>
      </trkpt>
      <trkpt lat="44.74656" lon="0.96689">
        <ele>182.5</ele>
        <time>2022-08-15T07:20:04Z</time>
      </trkpt>
      <trkpt lat="44.74659" lon="0.96691">
        <ele>182.6</ele>
        <time>2022-08-15T07:20:06Z</time>
      </trkpt>
      <trkpt lat="44.74666" lon="0.96694">
        <ele>182.7</ele>
        <time>2022-08-15T07:20:08Z</time>
      </trkpt>
      <trkpt lat="44.74671" lon="0.96697">
        <ele>182.9</ele>
        <time>2022-08-15T07:20:10Z</time>
      </trkpt>
      <trkpt lat="44.74677" lon="0.96699">
        <ele>183.1</ele>
        <time>2022-08-15T07:20:12Z</time>
      </trkpt>
      <trkpt lat="44.74682" lon="0.96702">
        <ele>183.4</ele>
        <time>2022-08-15T07:20:14Z</time>
      </trkpt>
      <trkpt lat="44.74687" lon="0.96704">
        <ele>183.6</ele>
        <time>2022-08-15T07:20:16Z</time>
      </trkpt>
      <trkpt lat="44.74692" lon="0.96707">
        <ele>183.9</ele>
        <time>2022-08-15T07:20:18Z</time>
      </trkpt>
      <trkpt lat="44.74698" lon="0.96709">
        <ele>184.1</ele>
        <time>2022-08-15T07:20:20Z</time>
      </trkpt>
      <trkpt lat="44.74703" lon="0.96712">
        <ele>184.4</ele>
        <time>2022-08-15T07:20:22Z</time>
      </trkpt>
      <trkpt lat="44.74707" lon="0.96714">
        <ele>184.5</ele>
        <time>2022-08-15T07:20:24Z</time>
      </trkpt>
      <trkpt lat="44.74713" lon="0.96716">
        <ele>184.7</ele>
        <time>2022-08-15T07:20:26Z</time>
      </trkpt>
      <trkpt lat="44.74718" lon="0.96719">
        <ele>185</ele>
        <time>2022-08-15T07:20:28Z</time>
      </trkpt>
      <trkpt lat="44.74721" lon="0.96721">
        <ele>185.1</ele>
        <time>2022-08-15T07:20:30Z</time>
      </trkpt>
      <trkpt lat="44.74727" lon="0.96723">
        <ele>185.3</ele>
        <time>2022-08-15T07:20:32Z</time>
      </trkpt>
      <trkpt lat="44.74732" lon="0.96724">
        <ele>185.5</ele>
        <time>2022-08-15T07:20:34Z</time>
      </trkpt>
      <trkpt lat="44.74737" lon="0.96725">
        <ele>185.6</ele>
        <time>2022-08-15T07:20:36Z</time>
      </trkpt>
      <trkpt lat="44.74741" lon="0.96728">
        <ele>185.8</ele>
        <time>2022-08-15T07:20:38Z</time>
      </trkpt>
      <trkpt lat="44.74747" lon="0.96731">
        <ele>186</ele>
        <time>2022-08-15T07:20:40Z</time>
      </trkpt>
      <trkpt lat="44.74752" lon="0.96733">
        <ele>186.3</ele>
        <time>2022-08-15T07:20:42Z</time>
      </trkpt>
      <trkpt lat="44.74758" lon="0.96735">
        <ele>186.5</ele>
        <time>2022-08-15T07:20:44Z</time>
      </trkpt>
      <trkpt lat="44.74762" lon="0.96737">
        <ele>186.7</ele>
        <time>2022-08-15T07:20:46Z</time>
      </trkpt>
      <trkpt lat="44.74767" lon="0.9674">
        <ele>187</ele>
        <time>2022-08-15T07:20:48Z</time>
      </trkpt>
      <trkpt lat="44.74773" lon="0.96741">
        <ele>187.2</ele>
        <time>2022-08-15T07:20:50Z</time>
      </trkpt>
      <trkpt lat="44.74778" lon="0.96743">
        <ele>187.4</ele>
        <time>2022-08-15T07:20:52Z</time>
      </trkpt>
      <trkpt lat="44.74784" lon="0.96744">
        <ele>187.6</ele>
        <time>2022-08-15T07:20:54Z</time>
      </trkpt>
      <trkpt lat="44.74788" lon="0.96747">
        <ele>187.8</ele>
        <time>2022-08-15T07:20:56Z</time>
      </trkpt>
      <trkpt lat="44.74793" lon="0.96749">
        <ele>188</ele>
        <time>2022-08-15T07:20:58Z</time>
      </trkpt>
      <trkpt lat="44.74798" lon="0.96751">
        <ele>188.2</ele>
        <time>2022-08-15T07:21:00Z</time>
      </trkpt>
      <trkpt lat="44.74803" lon="0.96754">
        <ele>188.5</ele>
        <time>2022-08-15T07:21:02Z</time>
      </trkpt>
      <trkpt lat="44.74808" lon="0.96757">
        <ele>188.7</ele>
        <time>2022-08-15T07:21:04Z</time>
      </trkpt>
      <trkpt lat="44.74812" lon="0.9676">
        <ele>188.9</ele>
        <time>2022-08-15T07:21:06Z</time>
      </trkpt>
      <trkpt lat="44.74817" lon="0.96764">
        <ele>189.2</ele>
        <time>2022-08-15T07:21:08Z</time>
      </trkpt>
      <trkpt lat="44.74823" lon="0.96767">
        <ele>189.4</ele>
        <time>2022-08-15T07:21:10Z</time>
      </trkpt>
      <trkpt lat="44.74828" lon="0.96771">
        <ele>189.7</ele>
        <time>2022-08-15T07:21:12Z</time>
      </trkpt>
      <trkpt lat="44.74832" lon="0.96775">
        <ele>189.9</ele>
        <time>2022-08-15T07:21:14Z</time>
      </trkpt>
      <trkpt lat="44.74838" lon="0.96778">
        <ele>189.9</ele>
        <time>2022-08-15T07:21:16Z</time>
      </trkpt>
      <trkpt lat="44.74842" lon="0.96782">
        <ele>190</ele>
        <time>2022-08-15T07:21:18Z</time>
      </trkpt>
      <trkpt lat="44.74847" lon="0.96787">
        <ele>190</ele>
        <time>2022-08-15T07:21:20Z</time>
      </trkpt>
      <trkpt lat="44.74851" lon="0.96792">
        <ele>190.1</ele>
        <time>2022-08-15T07:21:22Z</time>
      </trkpt>
      <trkpt lat="44.74855" lon="0.96798">
        <ele>190.2</ele>
        <time>2022-08-15T07:21:24Z</time>
      </trkpt>
      <trkpt lat="44.7486" lon="0.96804">
        <ele>190.2</ele>
        <time>2022-08-15T07:21:26Z</time>
      </trkpt>
      <trkpt lat="44.74865" lon="0.9681">
        <ele>190.3</ele>
        <time>2022-08-15T07:21:28Z</time>
      </trkpt>
      <trkpt lat="44.74872" lon="0.96816">
        <ele>190.2</ele>
        <time>2022-08-15T07:21:30Z</time>
      </trkpt>
      <trkpt lat="44.74876" lon="0.96825">
        <ele>190.3</ele>
        <time>2022-08-15T07:21:32Z</time>
      </trkpt>
      <trkpt lat="44.7488" lon="0.96833">
        <ele>190.3</ele>
        <time>2022-08-15T07:21:34Z</time>
      </trkpt>
      <trkpt lat="44.74884" lon="0.96842">
        <ele>190.2</ele>
        <time>2022-08-15T07:21:36Z</time>
      </trkpt>
      <trkpt lat="44.74888" lon="0.96852">
        <ele>190</ele>
        <time>2022-08-15T07:21:38Z</time>
      </trkpt>
      <trkpt lat="44.74892" lon="0.96862">
        <ele>189.8</ele>
        <time>2022-08-15T07:21:40Z</time>
      </trkpt>
      <trkpt lat="44.74896" lon="0.96872">
        <ele>189.6</ele>
        <time>2022-08-15T07:21:42Z</time>
      </trkpt>
      <trkpt lat="44.74901" lon="0.96883">
        <ele>189.3</ele>
        <time>2022-08-15T07:21:44Z</time>
      </trkpt>
      <trkpt lat="44.74906" lon="0.96894">
        <ele>188.9</ele>
        <time>2022-08-15T07:21:46Z</time>
      </trkpt>
      <trkpt lat="44.74911" lon="0.96906">
        <ele>188.5</ele>
        <time>2022-08-15T07:21:48Z</time>
      </trkpt>
      <trkpt lat="44.74917" lon="0.96918">
        <ele>188</ele>
        <time>2022-08-15T07:21:50Z</time>
      </trkpt>
      <trkpt lat="44.74922" lon="0.9693">
        <ele>187.2</ele>
        <time>2022-08-15T07:21:52Z</time>
      </trkpt>
      <trkpt lat="44.74928" lon="0.96941">
        <ele>186.6</ele>
        <time>2022-08-15T07:21:54Z</time>
      </trkpt>
      <trkpt lat="44.74934" lon="0.96954">
        <ele>185.9</ele>
        <time>2022-08-15T07:21:56Z</time>
      </trkpt>
      <trkpt lat="44.74941" lon="0.96966">
        <ele>185.3</ele>
        <time>2022-08-15T07:21:58Z</time>
      </trkpt>
      <trkpt lat="44.74947" lon="0.96979">
        <ele>184.8</ele>
        <time>2022-08-15T07:22:00Z</time>
      </trkpt>
      <trkpt lat="44.74954" lon="0.96991">
        <ele>184.3</ele>
        <time>2022-08-15T07:22:02Z</time>
      </trkpt>
      <trkpt lat="44.74961" lon="0.97004">
        <ele>183.8</ele>
        <time>2022-08-15T07:22:04Z</time>
      </trkpt>
      <trkpt lat="44.74969" lon="0.97017">
        <ele>183.3</ele>
        <time>2022-08-15T07:22:06Z</time>
      </trkpt>
      <trkpt lat="44.74977" lon="0.97029">
        <ele>182.7</ele>
        <time>2022-08-15T07:22:08Z</time>
      </trkpt>
      <trkpt lat="44.74985" lon="0.97043">
        <ele>182.2</ele>
        <time>2022-08-15T07:22:10Z</time>
      </trkpt>
      <trkpt lat="44.74994" lon="0.97057">
        <ele>181.6</ele>
        <time>2022-08-15T07:22:12Z</time>
      </trkpt>
      <trkpt lat="44.75002" lon="0.97072">
        <ele>181.2</ele>
        <time>2022-08-15T07:22:14Z</time>
      </trkpt>
      <trkpt lat="44.75011" lon="0.97085">
        <ele>181.1</ele>
        <time>2022-08-15T07:22:16Z</time>
      </trkpt>
      <trkpt lat="44.75019" lon="0.971">
        <ele>181.4</ele>
        <time>2022-08-15T07:22:18Z</time>
      </trkpt>
      <trkpt lat="44.75028" lon="0.97115">
        <ele>181.7</ele>
        <time>2022-08-15T07:22:20Z</time>
      </trkpt>
      <trkpt lat="44.75037" lon="0.97129">
        <ele>182</ele>
        <time>2022-08-15T07:22:22Z</time>
      </trkpt>
      <trkpt lat="44.75046" lon="0.97143">
        <ele>182.3</ele>
        <time>2022-08-15T07:22:24Z</time>
      </trkpt>
      <trkpt lat="44.75056" lon="0.97159">
        <ele>182.6</ele>
        <time>2022-08-15T07:22:26Z</time>
      </trkpt>
      <trkpt lat="44.75064" lon="0.97172">
        <ele>182.9</ele>
        <time>2022-08-15T07:22:28Z</time>
      </trkpt>
      <trkpt lat="44.75072" lon="0.97185">
        <ele>183.5</ele>
        <time>2022-08-15T07:22:30Z</time>
      </trkpt>
      <trkpt lat="44.75079" lon="0.97197">
        <ele>184</ele>
        <time>2022-08-15T07:22:32Z</time>
      </trkpt>
      <trkpt lat="44.75086" lon="0.97208">
        <ele>184.7</ele>
        <time>2022-08-15T07:22:34Z</time>
      </trkpt>
      <trkpt lat="44.75092" lon="0.97219">
        <ele>185.4</ele>
        <time>2022-08-15T07:22:36Z</time>
      </trkpt>
      <trkpt lat="44.75098" lon="0.97228">
        <ele>186.1</ele>
        <time>2022-08-15T07:22:38Z</time>
      </trkpt>
      <trkpt lat="44.75104" lon="0.97236">
        <ele>186.7</ele>
        <time>2022-08-15T07:22:40Z</time>
      </trkpt>
      <trkpt lat="44.75108" lon="0.97244">
        <ele>187.3</ele>
        <time>2022-08-15T07:22:42Z</time>
      </trkpt>
      <trkpt lat="44.75113" lon="0.97253">
        <ele>187.8</ele>
        <time>2022-08-15T07:22:44Z</time>
      </trkpt>
      <trkpt lat="44.75118" lon="0.97261">
        <ele>188.1</ele>
        <time>2022-08-15T07:22:46Z</time>
      </trkpt>
      <trkpt lat="44.75122" lon="0.97268">
        <ele>188.5</ele>
        <time>2022-08-15T07:22:48Z</time>
      </trkpt>
      <trkpt lat="44.75127" lon="0.97276">
        <ele>188.8</ele>
        <time>2022-08-15T07:22:50Z</time>
      </trkpt>
      <trkpt lat="44.75132" lon="0.97282">
        <ele>189.1</ele>
        <time>2022-08-15T07:22:52Z</time>
      </trkpt>
      <trkpt lat="44.75136" lon="0.9729">
        <ele>189.3</ele>
        <time>2022-08-15T07:22:54Z</time>
      </trkpt>
      <trkpt lat="44.7514" lon="0.97297">
        <ele>189.6</ele>
        <time>2022-08-15T07:22:56Z</time>
      </trkpt>
      <trkpt lat="44.75145" lon="0.97304">
        <ele>189.9</ele>
        <time>2022-08-15T07:22:58Z</time>
      </trkpt>
      <trkpt lat="44.75149" lon="0.97311">
        <ele>190.1</ele>
        <time>2022-08-15T07:23:00Z</time>
      </trkpt>
      <trkpt lat="44.75154" lon="0.97318">
        <ele>190.3</ele>
        <time>2022-08-15T07:23:02Z</time>
      </trkpt>
      <trkpt lat="44.75158" lon="0.97324">
        <ele>190.6</ele>
        <time>2022-08-15T07:23:04Z</time>
      </trkpt>
      <trkpt lat="44.75161" lon="0.97331">
        <ele>190.7</ele>
        <time>2022-08-15T07:23:06Z</time>
      </trkpt>
      <trkpt lat="44.75166" lon="0.97337">
        <ele>190.9</ele>
        <time>2022-08-15T07:23:08Z</time>
      </trkpt>
      <trkpt lat="44.7517" lon="0.97343">
        <ele>191.1</ele>
        <time>2022-08-15T07:23:10Z</time>
      </trkpt>
      <trkpt lat="44.75173" lon="0.9735">
        <ele>191.2</ele>
        <time>2022-08-15T07:23:12Z</time>
      </trkpt>
      <trkpt lat="44.75177" lon="0.97356">
        <ele>191.3</ele>
        <time>2022-08-15T07:23:14Z</time>
      </trkpt>
      <trkpt lat="44.75181" lon="0.97362">
        <ele>191.4</ele>
        <time>2022-08-15T07:23:16Z</time>
      </trkpt>
      <trkpt lat="44.75186" lon="0.97367">
        <ele>191.5</ele>
        <time>2022-08-15T07:23:18Z</time>
      </trkpt>
      <trkpt lat="44.75189" lon="0.97374">
        <ele>191.6</ele>
        <time>2022-08-15T07:23:20Z</time>
      </trkpt>
      <trkpt lat="44.75192" lon="0.97381">
        <ele>191.6</ele>
        <time>2022-08-15T07:23:22Z</time>
      </trkpt>
      <trkpt lat="44.75196" lon="0.97387">
        <ele>191.7</ele>
        <time>2022-08-15T07:23:24Z</time>
      </trkpt>
      <trkpt lat="44.752" lon="0.97393">
        <ele>191.7</ele>
        <time>2022-08-15T07:23:26Z</time>
      </trkpt>
      <trkpt lat="44.75204" lon="0.97399">
        <ele>191.7</ele>
        <time>2022-08-15T07:23:28Z</time>
      </trkpt>
      <trkpt lat="44.75208" lon="0.97406">
        <ele>191.7</ele>
        <time>2022-08-15T07:23:30Z</time>
      </trkpt>
      <trkpt lat="44.75212" lon="0.97412">
        <ele>191.7</ele>
        <time>2022-08-15T07:23:32Z</time>
      </trkpt>
      <trkpt lat="44.75215" lon="0.97418">
        <ele>191.7</ele>
        <time>2022-08-15T07:23:34Z</time>
      </trkpt>
      <trkpt lat="44.75219" lon="0.97424">
        <ele>191.7</ele>
        <time>2022-08-15T07:23:36Z</time>
      </trkpt>
      <trkpt lat="44.75223" lon="0.9743">
        <ele>191.7</ele>
        <time>2022-08-15T07:23:38Z</time>
      </trkpt>
      <trkpt lat="44.75226" lon="0.97436">
        <ele>191.7</ele>
        <time>2022-08-15T07:23:40Z</time>
      </trkpt>
      <trkpt lat="44.7523" lon="0.97442">
        <ele>191.6</ele>
        <time>2022-08-15T07:23:42Z</time>
      </trkpt>
      <trkpt lat="44.75234" lon="0.97448">
        <ele>191.5</ele>
        <time>2022-08-15T07:23:44Z</time>
      </trkpt>
      <trkpt lat="44.75238" lon="0.97454">
        <ele>191.4</ele>
        <time>2022-08-15T07:23:46Z</time>
      </trkpt>
      <trkpt lat="44.75242" lon="0.9746">
        <ele>191.3</ele>
        <time>2022-08-15T07:23:48Z</time>
      </trkpt>
      <trkpt lat="44.75246" lon="0.97466">
        <ele>191.2</ele>
        <time>2022-08-15T07:23:50Z</time>
      </trkpt>
      <trkpt lat="44.7525" lon="0.97473">
        <ele>191</ele>
        <time>2022-08-15T07:23:52Z</time>
      </trkpt>
      <trkpt lat="44.75255" lon="0.97479">
        <ele>190.8</ele>
        <time>2022-08-15T07:23:54Z</time>
      </trkpt>
      <trkpt lat="44.75259" lon="0.97485">
        <ele>190.6</ele>
        <time>2022-08-15T07:23:56Z</time>
      </trkpt>
      <trkpt lat="44.75264" lon="0.97491">
        <ele>190.3</ele>
        <time>2022-08-15T07:23:58Z</time>
      </trkpt>
      <trkpt lat="44.7527" lon="0.97497">
        <ele>190.1</ele>
        <time>2022-08-15T07:24:00Z</time>
      </trkpt>
      <trkpt lat="44.75275" lon="0.97503">
        <ele>190</ele>
        <time>2022-08-15T07:24:02Z</time>
      </trkpt>
      <trkpt lat="44.75283" lon="0.97509">
        <ele>190</ele>
        <time>2022-08-15T07:24:04Z</time>
      </trkpt>
      <trkpt lat="44.7529" lon="0.97515">
        <ele>190</ele>
        <time>2022-08-15T07:24:06Z</time>
      </trkpt>
      <trkpt lat="44.75298" lon="0.97522">
        <ele>190</ele>
        <time>2022-08-15T07:24:08Z</time>
      </trkpt>
      <trkpt lat="44.75307" lon="0.97531">
        <ele>190</ele>
        <time>2022-08-15T07:24:10Z</time>
      </trkpt>
      <trkpt lat="44.75316" lon="0.97541">
        <ele>190</ele>
        <time>2022-08-15T07:24:12Z</time>
      </trkpt>
      <trkpt lat="44.75324" lon="0.97554">
        <ele>190</ele>
        <time>2022-08-15T07:24:14Z</time>
      </trkpt>
      <trkpt lat="44.75333" lon="0.97568">
        <ele>190</ele>
        <time>2022-08-15T07:24:16Z</time>
      </trkpt>
      <trkpt lat="44.7534" lon="0.97583">
        <ele>189.8</ele>
        <time>2022-08-15T07:24:18Z</time>
      </trkpt>
      <trkpt lat="44.75347" lon="0.97599">
        <ele>189</ele>
        <time>2022-08-15T07:24:20Z</time>
      </trkpt>
      <trkpt lat="44.75355" lon="0.97616">
        <ele>188.3</ele>
        <time>2022-08-15T07:24:22Z</time>
      </trkpt>
      <trkpt lat="44.75363" lon="0.97632">
        <ele>187.6</ele>
        <time>2022-08-15T07:24:24Z</time>
      </trkpt>
      <trkpt lat="44.7537" lon="0.97648">
        <ele>187</ele>
        <time>2022-08-15T07:24:26Z</time>
      </trkpt>
      <trkpt lat="44.75378" lon="0.97664">
        <ele>186.5</ele>
        <time>2022-08-15T07:24:28Z</time>
      </trkpt>
      <trkpt lat="44.75386" lon="0.97681">
        <ele>186.1</ele>
        <time>2022-08-15T07:24:30Z</time>
      </trkpt>
      <trkpt lat="44.75394" lon="0.97697">
        <ele>185.6</ele>
        <time>2022-08-15T07:24:32Z</time>
      </trkpt>
      <trkpt lat="44.75402" lon="0.97714">
        <ele>185.1</ele>
        <time>2022-08-15T07:24:34Z</time>
      </trkpt>
      <trkpt lat="44.7541" lon="0.9773">
        <ele>184.6</ele>
        <time>2022-08-15T07:24:36Z</time>
      </trkpt>
      <trkpt lat="44.75418" lon="0.97746">
        <ele>184.1</ele>
        <time>2022-08-15T07:24:38Z</time>
      </trkpt>
      <trkpt lat="44.75426" lon="0.97763">
        <ele>183.7</ele>
        <time>2022-08-15T07:24:40Z</time>
      </trkpt>
      <trkpt lat="44.75434" lon="0.97779">
        <ele>183.4</ele>
        <time>2022-08-15T07:24:42Z</time>
      </trkpt>
      <trkpt lat="44.75443" lon="0.97794">
        <ele>183.2</ele>
        <time>2022-08-15T07:24:44Z</time>
      </trkpt>
      <trkpt lat="44.75453" lon="0.97809">
        <ele>182.9</ele>
        <time>2022-08-15T07:24:46Z</time>
      </trkpt>
      <trkpt lat="44.75466" lon="0.9782">
        <ele>182.6</ele>
        <time>2022-08-15T07:24:48Z</time>
      </trkpt>
      <trkpt lat="44.75478" lon="0.97829">
        <ele>182.3</ele>
        <time>2022-08-15T07:24:50Z</time>
      </trkpt>
      <trkpt lat="44.75491" lon="0.97837">
        <ele>182</ele>
        <time>2022-08-15T07:24:52Z</time>
      </trkpt>
      <trkpt lat="44.75505" lon="0.97843">
        <ele>181.8</ele>
        <time>2022-08-15T07:24:54Z</time>
      </trkpt>
      <trkpt lat="44.75518" lon="0.97849">
        <ele>181.8</ele>
        <time>2022-08-15T07:24:56Z</time>
      </trkpt>
      <trkpt lat="44.75531" lon="0.97856">
        <ele>181.9</ele>
        <time>2022-08-15T07:24:58Z</time>
      </trkpt>
      <trkpt lat="44.75544" lon="0.97864">
        <ele>182</ele>
        <time>2022-08-15T07:25:00Z</time>
      </trkpt>
      <trkpt lat="44.75557" lon="0.9787">
        <ele>182.3</ele>
        <time>2022-08-15T07:25:02Z</time>
      </trkpt>
      <trkpt lat="44.7557" lon="0.97876">
        <ele>182.7</ele>
        <time>2022-08-15T07:25:04Z</time>
      </trkpt>
      <trkpt lat="44.75582" lon="0.97883">
        <ele>183.1</ele>
        <time>2022-08-15T07:25:06Z</time>
      </trkpt>
      <trkpt lat="44.75593" lon="0.97889">
        <ele>183.6</ele>
        <time>2022-08-15T07:25:08Z</time>
      </trkpt>
      <trkpt lat="44.75605" lon="0.97895">
        <ele>184</ele>
        <time>2022-08-15T07:25:10Z</time>
      </trkpt>
      <trkpt lat="44.75616" lon="0.979">
        <ele>184.4</ele>
        <time>2022-08-15T07:25:12Z</time>
      </trkpt>
      <trkpt lat="44.75625" lon="0.97904">
        <ele>184.7</ele>
        <time>2022-08-15T07:25:14Z</time>
      </trkpt>
      <trkpt lat="44.75633" lon="0.9791">
        <ele>185</ele>
        <time>2022-08-15T07:25:16Z</time>
      </trkpt>
      <trkpt lat="44.75642" lon="0.97916">
        <ele>185.4</ele>
        <time>2022-08-15T07:25:18Z</time>
      </trkpt>
      <trkpt lat="44.7565" lon="0.97923">
        <ele>185.6</ele>
        <time>2022-08-15T07:25:20Z</time>
      </trkpt>
      <trkpt lat="44.75658" lon="0.97929">
        <ele>185.8</ele>
        <time>2022-08-15T07:25:22Z</time>
      </trkpt>
      <trkpt lat="44.75665" lon="0.97936">
        <ele>186</ele>
        <time>2022-08-15T07:25:24Z</time>
      </trkpt>
      <trkpt lat="44.75672" lon="0.97945">
        <ele>185.8</ele>
        <time>2022-08-15T07:25:26Z</time>
      </trkpt>
      <trkpt lat="44.75679" lon="0.97951">
        <ele>185.6</ele>
        <time>2022-08-15T07:25:28Z</time>
      </trkpt>
      <trkpt lat="44.75686" lon="0.97959">
        <ele>185.4</ele>
        <time>2022-08-15T07:25:30Z</time>
      </trkpt>
      <trkpt lat="44.75693" lon="0.97966">
        <ele>185.3</ele>
        <time>2022-08-15T07:25:32Z</time>
      </trkpt>
      <trkpt lat="44.75699" lon="0.97974">
        <ele>185.2</ele>
        <time>2022-08-15T07:25:34Z</time>
      </trkpt>
      <trkpt lat="44.75707" lon="0.9798">
        <ele>185.2</ele>
        <time>2022-08-15T07:25:36Z</time>
      </trkpt>
      <trkpt lat="44.75714" lon="0.97988">
        <ele>185.2</ele>
        <time>2022-08-15T07:25:38Z</time>
      </trkpt>
      <trkpt lat="44.75722" lon="0.97995">
        <ele>185.2</ele>
        <time>2022-08-15T07:25:40Z</time>
      </trkpt>
      <trkpt lat="44.75731" lon="0.98002">
        <ele>185.2</ele>
        <time>2022-08-15T07:25:42Z</time>
      </trkpt>
      <trkpt lat="44.7574" lon="0.98008">
        <ele>185</ele>
        <time>2022-08-15T07:25:44Z</time>
      </trkpt>
      <trkpt lat="44.75749" lon="0.98015">
        <ele>184.8</ele>
        <time>2022-08-15T07:25:46Z</time>
      </trkpt>
      <trkpt lat="44.75759" lon="0.98022">
        <ele>184.5</ele>
        <time>2022-08-15T07:25:48Z</time>
      </trkpt>
      <trkpt lat="44.75767" lon="0.98029">
        <ele>184.3</ele>
        <time>2022-08-15T07:25:50Z</time>
      </trkpt>
      <trkpt lat="44.75778" lon="0.98037">
        <ele>184.1</ele>
        <time>2022-08-15T07:25:52Z</time>
      </trkpt>
      <trkpt lat="44.75788" lon="0.98044">
        <ele>184.1</ele>
        <time>2022-08-15T07:25:54Z</time>
      </trkpt>
      <trkpt lat="44.75798" lon="0.98052">
        <ele>184.2</ele>
        <time>2022-08-15T07:25:56Z</time>
      </trkpt>
      <trkpt lat="44.75809" lon="0.98058">
        <ele>184.4</ele>
        <time>2022-08-15T07:25:58Z</time>
      </trkpt>
      <trkpt lat="44.7582" lon="0.98064">
        <ele>184.8</ele>
        <time>2022-08-15T07:26:00Z</time>
      </trkpt>
      <trkpt lat="44.75831" lon="0.9807">
        <ele>185.2</ele>
        <time>2022-08-15T07:26:02Z</time>
      </trkpt>
      <trkpt lat="44.75843" lon="0.98075">
        <ele>184.9</ele>
        <time>2022-08-15T07:26:04Z</time>
      </trkpt>
      <trkpt lat="44.75854" lon="0.98077">
        <ele>184.2</ele>
        <time>2022-08-15T07:26:06Z</time>
      </trkpt>
      <trkpt lat="44.75866" lon="0.98082">
        <ele>183.6</ele>
        <time>2022-08-15T07:26:08Z</time>
      </trkpt>
      <trkpt lat="44.75878" lon="0.98085">
        <ele>182.8</ele>
        <time>2022-08-15T07:26:10Z</time>
      </trkpt>
      <trkpt lat="44.75889" lon="0.98088">
        <ele>182</ele>
        <time>2022-08-15T07:26:12Z</time>
      </trkpt>
      <trkpt lat="44.75901" lon="0.98091">
        <ele>181.3</ele>
        <time>2022-08-15T07:26:14Z</time>
      </trkpt>
      <trkpt lat="44.75912" lon="0.98095">
        <ele>180.5</ele>
        <time>2022-08-15T07:26:16Z</time>
      </trkpt>
      <trkpt lat="44.75922" lon="0.98099">
        <ele>180.3</ele>
        <time>2022-08-15T07:26:18Z</time>
      </trkpt>
      <trkpt lat="44.75934" lon="0.98101">
        <ele>180.6</ele>
        <time>2022-08-15T07:26:20Z</time>
      </trkpt>
      <trkpt lat="44.75945" lon="0.98104">
        <ele>180.8</ele>
        <time>2022-08-15T07:26:22Z</time>
      </trkpt>
      <trkpt lat="44.75955" lon="0.98108">
        <ele>181.1</ele>
        <time>2022-08-15T07:26:24Z</time>
      </trkpt>
      <trkpt lat="44.75966" lon="0.98111">
        <ele>181.3</ele>
        <time>2022-08-15T07:26:26Z</time>
      </trkpt>
      <trkpt lat="44.75976" lon="0.98113">
        <ele>181.5</ele>
        <time>2022-08-15T07:26:28Z</time>
      </trkpt>
      <trkpt lat="44.75986" lon="0.98116">
        <ele>181.7</ele>
        <time>2022-08-15T07:26:30Z</time>
      </trkpt>
      <trkpt lat="44.75996" lon="0.98119">
        <ele>181.9</ele>
        <time>2022-08-15T07:26:32Z</time>
      </trkpt>
      <trkpt lat="44.76006" lon="0.98121">
        <ele>182.7</ele>
        <time>2022-08-15T07:26:34Z</time>
      </trkpt>
      <trkpt lat="44.76015" lon="0.98124">
        <ele>183.5</ele>
        <time>2022-08-15T07:26:36Z</time>
      </trkpt>
      <trkpt lat="44.76025" lon="0.98126">
        <ele>184.5</ele>
        <time>2022-08-15T07:26:38Z</time>
      </trkpt>
      <trkpt lat="44.76033" lon="0.98128">
        <ele>185.3</ele>
        <time>2022-08-15T07:26:40Z</time>
      </trkpt>
      <trkpt lat="44.76041" lon="0.9813">
        <ele>186.2</ele>
        <time>2022-08-15T07:26:42Z</time>
      </trkpt>
      <trkpt lat="44.76049" lon="0.98133">
        <ele>187.1</ele>
        <time>2022-08-15T07:26:44Z</time>
      </trkpt>
      <trkpt lat="44.76057" lon="0.98136">
        <ele>187.9</ele>
        <time>2022-08-15T07:26:46Z</time>
      </trkpt>
      <trkpt lat="44.76065" lon="0.98139">
        <ele>188.8</ele>
        <time>2022-08-15T07:26:48Z</time>
      </trkpt>
      <trkpt lat="44.76073" lon="0.98143">
        <ele>189.6</ele>
        <time>2022-08-15T07:26:50Z</time>
      </trkpt>
      <trkpt lat="44.7608" lon="0.98146">
        <ele>190.4</ele>
        <time>2022-08-15T07:26:52Z</time>
      </trkpt>
      <trkpt lat="44.76089" lon="0.98145">
        <ele>190.4</ele>
        <time>2022-08-15T07:26:54Z</time>
      </trkpt>
      <trkpt lat="44.76097" lon="0.98146">
        <ele>190.1</ele>
        <time>2022-08-15T07:26:56Z</time>
      </trkpt>
      <trkpt lat="44.76104" lon="0.98149">
        <ele>189.8</ele>
        <time>2022-08-15T07:26:58Z</time>
      </trkpt>
      <trkpt lat="44.76112" lon="0.98152">
        <ele>189.5</ele>
        <time>2022-08-15T07:27:00Z</time>
      </trkpt>
      <trkpt lat="44.76119" lon="0.98153">
        <ele>189.2</ele>
        <time>2022-08-15T07:27:02Z</time>
      </trkpt>
      <trkpt lat="44.76126" lon="0.98154">
        <ele>188.9</ele>
        <time>2022-08-15T07:27:04Z</time>
      </trkpt>
      <trkpt lat="44.76133" lon="0.98155">
        <ele>188.6</ele>
        <time>2022-08-15T07:27:06Z</time>
      </trkpt>
      <trkpt lat="44.76139" lon="0.98158">
        <ele>188.5</ele>
        <time>2022-08-15T07:27:08Z</time>
      </trkpt>
      <trkpt lat="44.76147" lon="0.98159">
        <ele>188.3</ele>
        <time>2022-08-15T07:27:10Z</time>
      </trkpt>
      <trkpt lat="44.76153" lon="0.98163">
        <ele>188.3</ele>
        <time>2022-08-15T07:27:12Z</time>
      </trkpt>
      <trkpt lat="44.7616" lon="0.98163">
        <ele>188</ele>
        <time>2022-08-15T07:27:14Z</time>
      </trkpt>
      <trkpt lat="44.76167" lon="0.98166">
        <ele>187.9</ele>
        <time>2022-08-15T07:27:16Z</time>
      </trkpt>
      <trkpt lat="44.76172" lon="0.98169">
        <ele>187.9</ele>
        <time>2022-08-15T07:27:18Z</time>
      </trkpt>
      <trkpt lat="44.7618" lon="0.98172">
        <ele>187.7</ele>
        <time>2022-08-15T07:27:20Z</time>
      </trkpt>
      <trkpt lat="44.76186" lon="0.98175">
        <ele>187.5</ele>
        <time>2022-08-15T07:27:22Z</time>
      </trkpt>
      <trkpt lat="44.76193" lon="0.98179">
        <ele>187.4</ele>
        <time>2022-08-15T07:27:24Z</time>
      </trkpt>
      <trkpt lat="44.76199" lon="0.98183">
        <ele>187.3</ele>
        <time>2022-08-15T07:27:26Z</time>
      </trkpt>
      <trkpt lat="44.76206" lon="0.98189">
        <ele>187.2</ele>
        <time>2022-08-15T07:27:28Z</time>
      </trkpt>
      <trkpt lat="44.76212" lon="0.98197">
        <ele>187.2</ele>
        <time>2022-08-15T07:27:30Z</time>
      </trkpt>
      <trkpt lat="44.76218" lon="0.98205">
        <ele>187.3</ele>
        <time>2022-08-15T07:27:32Z</time>
      </trkpt>
      <trkpt lat="44.76225" lon="0.98214">
        <ele>187.3</ele>
        <time>2022-08-15T07:27:34Z</time>
      </trkpt>
      <trkpt lat="44.76231" lon="0.98224">
        <ele>187.3</ele>
        <time>2022-08-15T07:27:36Z</time>
      </trkpt>
      <trkpt lat="44.76238" lon="0.98235">
        <ele>187.3</ele>
        <time>2022-08-15T07:27:38Z</time>
      </trkpt>
      <trkpt lat="44.76245" lon="0.98245">
        <ele>187.1</ele>
        <time>2022-08-15T07:27:40Z</time>
      </trkpt>
      <trkpt lat="44.76253" lon="0.98256">
        <ele>187.3</ele>
        <time>2022-08-15T07:27:42Z</time>
      </trkpt>
      <trkpt lat="44.76261" lon="0.98267">
        <ele>187.6</ele>
        <time>2022-08-15T07:27:44Z</time>
      </trkpt>
      <trkpt lat="44.76269" lon="0.98279">
        <ele>187.8</ele>
        <time>2022-08-15T07:27:46Z</time>
      </trkpt>
      <trkpt lat="44.76278" lon="0.98291">
        <ele>188</ele>
        <time>2022-08-15T07:27:48Z</time>
      </trkpt>
      <trkpt lat="44.76285" lon="0.98303">
        <ele>188.1</ele>
        <time>2022-08-15T07:27:50Z</time>
      </trkpt>
      <trkpt lat="44.76294" lon="0.98315">
        <ele>187.9</ele>
        <time>2022-08-15T07:27:52Z</time>
      </trkpt>
      <trkpt lat="44.76302" lon="0.98327">
        <ele>187.7</ele>
        <time>2022-08-15T07:27:54Z</time>
      </trkpt>
      <trkpt lat="44.7631" lon="0.98339">
        <ele>187.2</ele>
        <time>2022-08-15T07:27:56Z</time>
      </trkpt>
      <trkpt lat="44.76319" lon="0.9835">
        <ele>186.3</ele>
        <time>2022-08-15T07:27:58Z</time>
      </trkpt>
      <trkpt lat="44.76328" lon="0.9836">
        <ele>185.5</ele>
        <time>2022-08-15T07:28:00Z</time>
      </trkpt>
      <trkpt lat="44.76338" lon="0.9837">
        <ele>184.9</ele>
        <time>2022-08-15T07:28:02Z</time>
      </trkpt>
      <trkpt lat="44.76348" lon="0.98378">
        <ele>184.7</ele>
        <time>2022-08-15T07:28:04Z</time>
      </trkpt>
      <trkpt lat="44.76359" lon="0.98383">
        <ele>184.5</ele>
        <time>2022-08-15T07:28:06Z</time>
      </trkpt>
      <trkpt lat="44.7637" lon="0.98387">
        <ele>184.2</ele>
        <time>2022-08-15T07:28:08Z</time>
      </trkpt>
      <trkpt lat="44.76381" lon="0.9839">
        <ele>184.1</ele>
        <time>2022-08-15T07:28:10Z</time>
      </trkpt>
      <trkpt lat="44.76391" lon="0.98392">
        <ele>183.9</ele>
        <time>2022-08-15T07:28:12Z</time>
      </trkpt>
      <trkpt lat="44.76402" lon="0.98395">
        <ele>183.7</ele>
        <time>2022-08-15T07:28:14Z</time>
      </trkpt>
      <trkpt lat="44.76412" lon="0.98397">
        <ele>183.6</ele>
        <time>2022-08-15T07:28:16Z</time>
      </trkpt>
      <trkpt lat="44.76422" lon="0.984">
        <ele>183.6</ele>
        <time>2022-08-15T07:28:18Z</time>
      </trkpt>
      <trkpt lat="44.76432" lon="0.98403">
        <ele>183.6</ele>
        <time>2022-08-15T07:28:20Z</time>
      </trkpt>
      <trkpt lat="44.76442" lon="0.98405">
        <ele>183.7</ele>
        <time>2022-08-15T07:28:22Z</time>
      </trkpt>
      <trkpt lat="44.76451" lon="0.98407">
        <ele>183.7</ele>
        <time>2022-08-15T07:28:24Z</time>
      </trkpt>
      <trkpt lat="44.7646" lon="0.9841">
        <ele>183.8</ele>
        <time>2022-08-15T07:28:26Z</time>
      </trkpt>
      <trkpt lat="44.76469" lon="0.98411">
        <ele>183.8</ele>
        <time>2022-08-15T07:28:28Z</time>
      </trkpt>
      <trkpt lat="44.76478" lon="0.98414">
        <ele>183.9</ele>
        <time>2022-08-15T07:28:30Z</time>
      </trkpt>
      <trkpt lat="44.76486" lon="0.98416">
        <ele>184</ele>
        <time>2022-08-15T07:28:32Z</time>
      </trkpt>
      <trkpt lat="44.76494" lon="0.98418">
        <ele>184</ele>
        <time>2022-08-15T07:28:34Z</time>
      </trkpt>
      <trkpt lat="44.76502" lon="0.9842">
        <ele>184.1</ele>
        <time>2022-08-15T07:28:36Z</time>
      </trkpt>
      <trkpt lat="44.7651" lon="0.98422">
        <ele>184.5</ele>
        <time>2022-08-15T07:28:38Z</time>
      </trkpt>
      <trkpt lat="44.76517" lon="0.98424">
        <ele>184.7</ele>
        <time>2022-08-15T07:28:40Z</time>
      </trkpt>
      <trkpt lat="44.76524" lon="0.98426">
        <ele>185</ele>
        <time>2022-08-15T07:28:42Z</time>
      </trkpt>
      <trkpt lat="44.76531" lon="0.98428">
        <ele>185.3</ele>
        <time>2022-08-15T07:28:44Z</time>
      </trkpt>
      <trkpt lat="44.76537" lon="0.9843">
        <ele>185.5</ele>
        <time>2022-08-15T07:28:46Z</time>
      </trkpt>
      <trkpt lat="44.76544" lon="0.98431">
        <ele>185.8</ele>
        <time>2022-08-15T07:28:48Z</time>
      </trkpt>
      <trkpt lat="44.76551" lon="0.98434">
        <ele>186</ele>
        <time>2022-08-15T07:28:50Z</time>
      </trkpt>
      <trkpt lat="44.76558" lon="0.98437">
        <ele>186.2</ele>
        <time>2022-08-15T07:28:52Z</time>
      </trkpt>
      <trkpt lat="44.76566" lon="0.98439">
        <ele>186.5</ele>
        <time>2022-08-15T07:28:54Z</time>
      </trkpt>
      <trkpt lat="44.76573" lon="0.98442">
        <ele>186.7</ele>
        <time>2022-08-15T07:28:56Z</time>
      </trkpt>
      <trkpt lat="44.76581" lon="0.98445">
        <ele>186.9</ele>
        <time>2022-08-15T07:28:58Z</time>
      </trkpt>
      <trkpt lat="44.76589" lon="0.98449">
        <ele>186.8</ele>
        <time>2022-08-15T07:29:00Z</time>
      </trkpt>
      <trkpt lat="44.76597" lon="0.98453">
        <ele>186.5</ele>
        <time>2022-08-15T07:29:02Z</time>
      </trkpt>
      <trkpt lat="44.76605" lon="0.98457">
        <ele>186.2</ele>
        <time>2022-08-15T07:29:04Z</time>
      </trkpt>
      <trkpt lat="44.76612" lon="0.98461">
        <ele>186</ele>
        <time>2022-08-15T07:29:06Z</time>
      </trkpt>
      <trkpt lat="44.76621" lon="0.98467">
        <ele>185.7</ele>
        <time>2022-08-15T07:29:08Z</time>
      </trkpt>
      <trkpt lat="44.7663" lon="0.98471">
        <ele>185.5</ele>
        <time>2022-08-15T07:29:10Z</time>
      </trkpt>
      <trkpt lat="44.76639" lon="0.98477">
        <ele>185.3</ele>
        <time>2022-08-15T07:29:12Z</time>
      </trkpt>
      <trkpt lat="44.76649" lon="0.98482">
        <ele>185.1</ele>
        <time>2022-08-15T07:29:14Z</time>
      </trkpt>
      <trkpt lat="44.76658" lon="0.98487">
        <ele>184.9</ele>
        <time>2022-08-15T07:29:16Z</time>
      </trkpt>
      <trkpt lat="44.76667" lon="0.98492">
        <ele>184.8</ele>
        <time>2022-08-15T07:29:18Z</time>
      </trkpt>
      <trkpt lat="44.76676" lon="0.98497">
        <ele>184.9</ele>
        <time>2022-08-15T07:29:20Z</time>
      </trkpt>
      <trkpt lat="44.76686" lon="0.98502">
        <ele>185</ele>
        <time>2022-08-15T07:29:22Z</time>
      </trkpt>
      <trkpt lat="44.76695" lon="0.98507">
        <ele>185</ele>
        <time>2022-08-15T07:29:24Z</time>
      </trkpt>
      <trkpt lat="44.76704" lon="0.98513">
        <ele>185.1</ele>
        <time>2022-08-15T07:29:26Z</time>
      </trkpt>
      <trkpt lat="44.76713" lon="0.98519">
        <ele>185.2</ele>
        <time>2022-08-15T07:29:28Z</time>
      </trkpt>
      <trkpt lat="44.76722" lon="0.98523">
        <ele>185.3</ele>
        <time>2022-08-15T07:29:30Z</time>
      </trkpt>
      <trkpt lat="44.7673" lon="0.98529">
        <ele>185.4</ele>
        <time>2022-08-15T07:29:32Z</time>
      </trkpt>
      <trkpt lat="44.7674" lon="0.98533">
        <ele>185.7</ele>
        <time>2022-08-15T07:29:34Z</time>
      </trkpt>
      <trkpt lat="44.76748" lon="0.98538">
        <ele>185.9</ele>
        <time>2022-08-15T07:29:36Z</time>
      </trkpt>
      <trkpt lat="44.76757" lon="0.98543">
        <ele>186.2</ele>
        <time>2022-08-15T07:29:38Z</time>
      </trkpt>
      <trkpt lat="44.76764" lon="0.98547">
        <ele>186.5</ele>
        <time>2022-08-15T07:29:40Z</time>
      </trkpt>
      <trkpt lat="44.76772" lon="0.98551">
        <ele>186.8</ele>
        <time>2022-08-15T07:29:42Z</time>
      </trkpt>
      <trkpt lat="44.76779" lon="0.98555">
        <ele>187</ele>
        <time>2022-08-15T07:29:44Z</time>
      </trkpt>
      <trkpt lat="44.76787" lon="0.9856">
        <ele>187.3</ele>
        <time>2022-08-15T07:29:46Z</time>
      </trkpt>
      <trkpt lat="44.76794" lon="0.98565">
        <ele>187.4</ele>
        <time>2022-08-15T07:29:48Z</time>
      </trkpt>
      <trkpt lat="44.76802" lon="0.9857">
        <ele>187.6</ele>
        <time>2022-08-15T07:29:50Z</time>
      </trkpt>
      <trkpt lat="44.76809" lon="0.98575">
        <ele>187.7</ele>
        <time>2022-08-15T07:29:52Z</time>
      </trkpt>
      <trkpt lat="44.76817" lon="0.98579">
        <ele>187.8</ele>
        <time>2022-08-15T07:29:54Z</time>
      </trkpt>
      <trkpt lat="44.76824" lon="0.98583">
        <ele>187.9</ele>
        <time>2022-08-15T07:29:56Z</time>
      </trkpt>
      <trkpt lat="44.76831" lon="0.98589">
        <ele>187.8</ele>
        <time>2022-08-15T07:29:58Z</time>
      </trkpt>
      <trkpt lat="44.76838" lon="0.98594">
        <ele>187.7</ele>
        <time>2022-08-15T07:30:00Z</time>
      </trkpt>
      <trkpt lat="44.76844" lon="0.98601">
        <ele>187.5</ele>
        <time>2022-08-15T07:30:02Z</time>
      </trkpt>
      <trkpt lat="44.76851" lon="0.98608">
        <ele>187.3</ele>
        <time>2022-08-15T07:30:04Z</time>
      </trkpt>
      <trkpt lat="44.76857" lon="0.98615">
        <ele>187.1</ele>
        <time>2022-08-15T07:30:06Z</time>
      </trkpt>
      <trkpt lat="44.76864" lon="0.98623">
        <ele>186.8</ele>
        <time>2022-08-15T07:30:08Z</time>
      </trkpt>
      <trkpt lat="44.7687" lon="0.98632">
        <ele>186.7</ele>
        <time>2022-08-15T07:30:10Z</time>
      </trkpt>
      <trkpt lat="44.76877" lon="0.9864">
        <ele>186.5</ele>
        <time>2022-08-15T07:30:12Z</time>
      </trkpt>
      <trkpt lat="44.76884" lon="0.9865">
        <ele>186.3</ele>
        <time>2022-08-15T07:30:14Z</time>
      </trkpt>
      <trkpt lat="44.76891" lon="0.9866">
        <ele>186.1</ele>
        <time>2022-08-15T07:30:16Z</time>
      </trkpt>
      <trkpt lat="44.76898" lon="0.9867">
        <ele>185.9</ele>
        <time>2022-08-15T07:30:18Z</time>
      </trkpt>
      <trkpt lat="44.76905" lon="0.9868">
        <ele>185.8</ele>
        <time>2022-08-15T07:30:20Z</time>
      </trkpt>
      <trkpt lat="44.76913" lon="0.9869">
        <ele>185.7</ele>
        <time>2022-08-15T07:30:22Z</time>
      </trkpt>
      <trkpt lat="44.7692" lon="0.987">
        <ele>185.4</ele>
        <time>2022-08-15T07:30:24Z</time>
      </trkpt>
      <trkpt lat="44.76928" lon="0.9871">
        <ele>184.9</ele>
        <time>2022-08-15T07:30:26Z</time>
      </trkpt>
      <trkpt lat="44.76936" lon="0.9872">
        <ele>184.6</ele>
        <time>2022-08-15T07:30:28Z</time>
      </trkpt>
      <trkpt lat="44.76945" lon="0.98729">
        <ele>184.4</ele>
        <time>2022-08-15T07:30:30Z</time>
      </trkpt>
      <trkpt lat="44.76955" lon="0.98738">
        <ele>184.3</ele>
        <time>2022-08-15T07:30:32Z</time>
      </trkpt>
      <trkpt lat="44.76964" lon="0.98746">
        <ele>184.3</ele>
        <time>2022-08-15T07:30:34Z</time>
      </trkpt>
      <trkpt lat="44.76974" lon="0.98754">
        <ele>184.3</ele>
        <time>2022-08-15T07:30:36Z</time>
      </trkpt>
      <trkpt lat="44.76984" lon="0.9876">
        <ele>184.1</ele>
        <time>2022-08-15T07:30:38Z</time>
      </trkpt>
      <trkpt lat="44.76995" lon="0.98768">
        <ele>184</ele>
        <time>2022-08-15T07:30:40Z</time>
      </trkpt>
      <trkpt lat="44.77005" lon="0.98775">
        <ele>184.1</ele>
        <time>2022-08-15T07:30:42Z</time>
      </trkpt>
      <trkpt lat="44.77016" lon="0.98783">
        <ele>184.2</ele>
        <time>2022-08-15T07:30:44Z</time>
      </trkpt>
      <trkpt lat="44.77027" lon="0.9879">
        <ele>184.5</ele>
        <time>2022-08-15T07:30:46Z</time>
      </trkpt>
      <trkpt lat="44.77037" lon="0.98797">
        <ele>184.7</ele>
        <time>2022-08-15T07:30:48Z</time>
      </trkpt>
      <trkpt lat="44.77047" lon="0.98803">
        <ele>185.1</ele>
        <time>2022-08-15T07:30:50Z</time>
      </trkpt>
      <trkpt lat="44.77058" lon="0.98811">
        <ele>185.5</ele>
        <time>2022-08-15T07:30:52Z</time>
      </trkpt>
      <trkpt lat="44.77068" lon="0.98818">
        <ele>186</ele>
        <time>2022-08-15T07:30:54Z</time>
      </trkpt>
      <trkpt lat="44.77077" lon="0.98825">
        <ele>186.5</ele>
        <time>2022-08-15T07:30:56Z</time>
      </trkpt>
      <trkpt lat="44.77086" lon="0.98831">
        <ele>186.9</ele>
        <time>2022-08-15T07:30:58Z</time>
      </trkpt>
      <trkpt lat="44.77096" lon="0.98837">
        <ele>187</ele>
        <time>2022-08-15T07:31:00Z</time>
      </trkpt>
      <trkpt lat="44.77104" lon="0.98843">
        <ele>187.1</ele>
        <time>2022-08-15T07:31:02Z</time>
      </trkpt>
      <trkpt lat="44.77112" lon="0.9885">
        <ele>187.2</ele>
        <time>2022-08-15T07:31:04Z</time>
      </trkpt>
      <trkpt lat="44.7712" lon="0.98858">
        <ele>187.4</ele>
        <time>2022-08-15T07:31:06Z</time>
      </trkpt>
      <trkpt lat="44.77127" lon="0.98865">
        <ele>187.6</ele>
        <time>2022-08-15T07:31:08Z</time>
      </trkpt>
      <trkpt lat="44.77134" lon="0.98873">
        <ele>187.9</ele>
        <time>2022-08-15T07:31:10Z</time>
      </trkpt>
      <trkpt lat="44.77141" lon="0.98881">
        <ele>188.2</ele>
        <time>2022-08-15T07:31:12Z</time>
      </trkpt>
      <trkpt lat="44.77147" lon="0.98889">
        <ele>188.5</ele>
        <time>2022-08-15T07:31:14Z</time>
      </trkpt>
      <trkpt lat="44.77153" lon="0.98897">
        <ele>188.9</ele>
        <time>2022-08-15T07:31:16Z</time>
      </trkpt>
      <trkpt lat="44.7716" lon="0.98905">
        <ele>189.4</ele>
        <time>2022-08-15T07:31:18Z</time>
      </trkpt>
      <trkpt lat="44.77166" lon="0.98913">
        <ele>189.8</ele>
        <time>2022-08-15T07:31:20Z</time>
      </trkpt>
      <trkpt lat="44.77172" lon="0.98921">
        <ele>190.1</ele>
        <time>2022-08-15T07:31:22Z</time>
      </trkpt>
      <trkpt lat="44.77178" lon="0.98928">
        <ele>190.2</ele>
        <time>2022-08-15T07:31:24Z</time>
      </trkpt>
      <trkpt lat="44.77184" lon="0.98936">
        <ele>190.3</ele>
        <time>2022-08-15T07:31:26Z</time>
      </trkpt>
      <trkpt lat="44.7719" lon="0.98945">
        <ele>190.3</ele>
        <time>2022-08-15T07:31:28Z</time>
      </trkpt>
      <trkpt lat="44.77197" lon="0.98953">
        <ele>190.3</ele>
        <time>2022-08-15T07:31:30Z</time>
      </trkpt>
      <trkpt lat="44.77204" lon="0.98961">
        <ele>190.3</ele>
        <time>2022-08-15T07:31:32Z</time>
      </trkpt>
      <trkpt lat="44.77211" lon="0.9897">
        <ele>190.3</ele>
        <time>2022-08-15T07:31:34Z</time>
      </trkpt>
      <trkpt lat="44.77218" lon="0.98978">
        <ele>190.2</ele>
        <time>2022-08-15T07:31:36Z</time>
      </trkpt>
      <trkpt lat="44.77224" lon="0.98987">
        <ele>190.1</ele>
        <time>2022-08-15T07:31:38Z</time>
      </trkpt>
      <trkpt lat="44.77232" lon="0.98996">
        <ele>189.9</ele>
        <time>2022-08-15T07:31:40Z</time>
      </trkpt>
      <trkpt lat="44.77239" lon="0.99006">
        <ele>189.5</ele>
        <time>2022-08-15T07:31:42Z</time>
      </trkpt>
      <trkpt lat="44.77247" lon="0.99015">
        <ele>189</ele>
        <time>2022-08-15T07:31:44Z</time>
      </trkpt>
      <trkpt lat="44.77253" lon="0.99025">
        <ele>188.8</ele>
        <time>2022-08-15T07:31:46Z</time>
      </trkpt>
      <trkpt lat="44.77261" lon="0.99034">
        <ele>188.9</ele>
        <time>2022-08-15T07:31:48Z</time>
      </trkpt>
      <trkpt lat="44.77268" lon="0.99044">
        <ele>189</ele>
        <time>2022-08-15T07:31:50Z</time>
      </trkpt>
      <trkpt lat="44.77276" lon="0.99053">
        <ele>189.3</ele>
        <time>2022-08-15T07:31:52Z</time>
      </trkpt>
      <trkpt lat="44.77284" lon="0.99063">
        <ele>189.6</ele>
        <time>2022-08-15T07:31:54Z</time>
      </trkpt>
      <trkpt lat="44.77291" lon="0.99072">
        <ele>189.9</ele>
        <time>2022-08-15T07:31:56Z</time>
      </trkpt>
      <trkpt lat="44.773" lon="0.99082">
        <ele>190.4</ele>
        <time>2022-08-15T07:31:58Z</time>
      </trkpt>
      <trkpt lat="44.77307" lon="0.99092">
        <ele>190.8</ele>
        <time>2022-08-15T07:32:00Z</time>
      </trkpt>
      <trkpt lat="44.77314" lon="0.99102">
        <ele>191.2</ele>
        <time>2022-08-15T07:32:02Z</time>
      </trkpt>
      <trkpt lat="44.77322" lon="0.99111">
        <ele>191.7</ele>
        <time>2022-08-15T07:32:04Z</time>
      </trkpt>
      <trkpt lat="44.77328" lon="0.99121">
        <ele>192</ele>
        <time>2022-08-15T07:32:06Z</time>
      </trkpt>
      <trkpt lat="44.77336" lon="0.9913">
        <ele>192.5</ele>
        <time>2022-08-15T07:32:08Z</time>
      </trkpt>
      <trkpt lat="44.77344" lon="0.9914">
        <ele>192.5</ele>
        <time>2022-08-15T07:32:10Z</time>
      </trkpt>
      <trkpt lat="44.7735" lon="0.9915">
        <ele>192.4</ele>
        <time>2022-08-15T07:32:12Z</time>
      </trkpt>
      <trkpt lat="44.77358" lon="0.99161">
        <ele>192.4</ele>
        <time>2022-08-15T07:32:14Z</time>
      </trkpt>
      <trkpt lat="44.77364" lon="0.99171">
        <ele>192.2</ele>
        <time>2022-08-15T07:32:16Z</time>
      </trkpt>
      <trkpt lat="44.77371" lon="0.99181">
        <ele>191.9</ele>
        <time>2022-08-15T07:32:18Z</time>
      </trkpt>
      <trkpt lat="44.77378" lon="0.99192">
        <ele>191.7</ele>
        <time>2022-08-15T07:32:20Z</time>
      </trkpt>
      <trkpt lat="44.77385" lon="0.99202">
        <ele>191.5</ele>
        <time>2022-08-15T07:32:22Z</time>
      </trkpt>
      <trkpt lat="44.77391" lon="0.99212">
        <ele>191.3</ele>
        <time>2022-08-15T07:32:24Z</time>
      </trkpt>
      <trkpt lat="44.77398" lon="0.99223">
        <ele>191.1</ele>
        <time>2022-08-15T07:32:26Z</time>
      </trkpt>
      <trkpt lat="44.77405" lon="0.99233">
        <ele>191</ele>
        <time>2022-08-15T07:32:28Z</time>
      </trkpt>
      <trkpt lat="44.77412" lon="0.99244">
        <ele>190.9</ele>
        <time>2022-08-15T07:32:30Z</time>
      </trkpt>
      <trkpt lat="44.77418" lon="0.99255">
        <ele>190.9</ele>
        <time>2022-08-15T07:32:32Z</time>
      </trkpt>
      <trkpt lat="44.77424" lon="0.99267">
        <ele>190.8</ele>
        <time>2022-08-15T07:32:34Z</time>
      </trkpt>
      <trkpt lat="44.77431" lon="0.99279">
        <ele>190.8</ele>
        <time>2022-08-15T07:32:36Z</time>
      </trkpt>
      <trkpt lat="44.77436" lon="0.99291">
        <ele>190.7</ele>
        <time>2022-08-15T07:32:38Z</time>
      </trkpt>
      <trkpt lat="44.77441" lon="0.99303">
        <ele>190.4</ele>
        <time>2022-08-15T07:32:40Z</time>
      </trkpt>
      <trkpt lat="44.77445" lon="0.99317">
        <ele>190.1</ele>
        <time>2022-08-15T07:32:42Z</time>
      </trkpt>
      <trkpt lat="44.77449" lon="0.99331">
        <ele>189.6</ele>
        <time>2022-08-15T07:32:44Z</time>
      </trkpt>
      <trkpt lat="44.77453" lon="0.99345">
        <ele>189.6</ele>
        <time>2022-08-15T07:32:46Z</time>
      </trkpt>
      <trkpt lat="44.77456" lon="0.99358">
        <ele>189.7</ele>
        <time>2022-08-15T07:32:48Z</time>
      </trkpt>
      <trkpt lat="44.77459" lon="0.99372">
        <ele>189.6</ele>
        <time>2022-08-15T07:32:50Z</time>
      </trkpt>
      <trkpt lat="44.77463" lon="0.99385">
        <ele>189.6</ele>
        <time>2022-08-15T07:32:52Z</time>
      </trkpt>
      <trkpt lat="44.77467" lon="0.99397">
        <ele>189.6</ele>
        <time>2022-08-15T07:32:54Z</time>
      </trkpt>
      <trkpt lat="44.77471" lon="0.99409">
        <ele>189.5</ele>
        <time>2022-08-15T07:32:56Z</time>
      </trkpt>
      <trkpt lat="44.77476" lon="0.99419">
        <ele>189.4</ele>
        <time>2022-08-15T07:32:58Z</time>
      </trkpt>
      <trkpt lat="44.77483" lon="0.99429">
        <ele>189.2</ele>
        <time>2022-08-15T07:33:00Z</time>
      </trkpt>
      <trkpt lat="44.7749" lon="0.99437">
        <ele>189.1</ele>
        <time>2022-08-15T07:33:02Z</time>
      </trkpt>
      <trkpt lat="44.77499" lon="0.99444">
        <ele>189</ele>
        <time>2022-08-15T07:33:04Z</time>
      </trkpt>
      <trkpt lat="44.7751" lon="0.99449">
        <ele>189</ele>
        <time>2022-08-15T07:33:06Z</time>
      </trkpt>
      <trkpt lat="44.77522" lon="0.99452">
        <ele>189.3</ele>
        <time>2022-08-15T07:33:08Z</time>
      </trkpt>
      <trkpt lat="44.77534" lon="0.99455">
        <ele>189.5</ele>
        <time>2022-08-15T07:33:10Z</time>
      </trkpt>
      <trkpt lat="44.77547" lon="0.99456">
        <ele>189.9</ele>
        <time>2022-08-15T07:33:12Z</time>
      </trkpt>
      <trkpt lat="44.7756" lon="0.99459">
        <ele>190.1</ele>
        <time>2022-08-15T07:33:14Z</time>
      </trkpt>
      <trkpt lat="44.77574" lon="0.99465">
        <ele>190</ele>
        <time>2022-08-15T07:33:16Z</time>
      </trkpt>
      <trkpt lat="44.77586" lon="0.99474">
        <ele>189.6</ele>
        <time>2022-08-15T07:33:18Z</time>
      </trkpt>
      <trkpt lat="44.77598" lon="0.99486">
        <ele>188.8</ele>
        <time>2022-08-15T07:33:20Z</time>
      </trkpt>
      <trkpt lat="44.77608" lon="0.99498">
        <ele>188</ele>
        <time>2022-08-15T07:33:22Z</time>
      </trkpt>
      <trkpt lat="44.77617" lon="0.99512">
        <ele>187.4</ele>
        <time>2022-08-15T07:33:24Z</time>
      </trkpt>
      <trkpt lat="44.77626" lon="0.99526">
        <ele>186.8</ele>
        <time>2022-08-15T07:33:26Z</time>
      </trkpt>
      <trkpt lat="44.77635" lon="0.99539">
        <ele>186.3</ele>
        <time>2022-08-15T07:33:28Z</time>
      </trkpt>
      <trkpt lat="44.77643" lon="0.99551">
        <ele>185.9</ele>
        <time>2022-08-15T07:33:30Z</time>
      </trkpt>
      <trkpt lat="44.7765" lon="0.99563">
        <ele>185.4</ele>
        <time>2022-08-15T07:33:32Z</time>
      </trkpt>
      <trkpt lat="44.77657" lon="0.99575">
        <ele>185</ele>
        <time>2022-08-15T07:33:34Z</time>
      </trkpt>
      <trkpt lat="44.77664" lon="0.99588">
        <ele>184.8</ele>
        <time>2022-08-15T07:33:36Z</time>
      </trkpt>
      <trkpt lat="44.77668" lon="0.996">
        <ele>185.1</ele>
        <time>2022-08-15T07:33:38Z</time>
      </trkpt>
      <trkpt lat="44.77672" lon="0.99613">
        <ele>185.3</ele>
        <time>2022-08-15T07:33:40Z</time>
      </trkpt>
      <trkpt lat="44.77676" lon="0.99627">
        <ele>185.6</ele>
        <time>2022-08-15T07:33:42Z</time>
      </trkpt>
      <trkpt lat="44.77677" lon="0.99642">
        <ele>185.7</ele>
        <time>2022-08-15T07:33:44Z</time>
      </trkpt>
      <trkpt lat="44.77677" lon="0.99657">
        <ele>185.7</ele>
        <time>2022-08-15T07:33:46Z</time>
      </trkpt>
      <trkpt lat="44.77675" lon="0.99672">
        <ele>185.5</ele>
        <time>2022-08-15T07:33:48Z</time>
      </trkpt>
      <trkpt lat="44.77672" lon="0.99687">
        <ele>185.2</ele>
        <time>2022-08-15T07:33:50Z</time>
      </trkpt>
      <trkpt lat="44.77667" lon="0.997">
        <ele>184.6</ele>
        <time>2022-08-15T07:33:52Z</time>
      </trkpt>
      <trkpt lat="44.77663" lon="0.99715">
        <ele>184.1</ele>
        <time>2022-08-15T07:33:54Z</time>
      </trkpt>
      <trkpt lat="44.77658" lon="0.99726">
        <ele>183.4</ele>
        <time>2022-08-15T07:33:56Z</time>
      </trkpt>
      <trkpt lat="44.77652" lon="0.99738">
        <ele>182.8</ele>
        <time>2022-08-15T07:33:58Z</time>
      </trkpt>
      <trkpt lat="44.77646" lon="0.99748">
        <ele>182.1</ele>
        <time>2022-08-15T07:34:00Z</time>
      </trkpt>
      <trkpt lat="44.77641" lon="0.99758">
        <ele>181.9</ele>
        <time>2022-08-15T07:34:02Z</time>
      </trkpt>
      <trkpt lat="44.77635" lon="0.9977">
        <ele>182</ele>
        <time>2022-08-15T07:34:04Z</time>
      </trkpt>
      <trkpt lat="44.77629" lon="0.99781">
        <ele>182</ele>
        <time>2022-08-15T07:34:06Z</time>
      </trkpt>
      <trkpt lat="44.77623" lon="0.99791">
        <ele>182</ele>
        <time>2022-08-15T07:34:08Z</time>
      </trkpt>
      <trkpt lat="44.77617" lon="0.99802">
        <ele>182.1</ele>
        <time>2022-08-15T07:34:10Z</time>
      </trkpt>
      <trkpt lat="44.77611" lon="0.99811">
        <ele>182.1</ele>
        <time>2022-08-15T07:34:12Z</time>
      </trkpt>
      <trkpt lat="44.77605" lon="0.99821">
        <ele>182.1</ele>
        <time>2022-08-15T07:34:14Z</time>
      </trkpt>
      <trkpt lat="44.77598" lon="0.99829">
        <ele>182</ele>
        <time>2022-08-15T07:34:16Z</time>
      </trkpt>
      <trkpt lat="44.77592" lon="0.99838">
        <ele>182</ele>
        <time>2022-08-15T07:34:18Z</time>
      </trkpt>
      <trkpt lat="44.77584" lon="0.99848">
        <ele>181.9</ele>
        <time>2022-08-15T07:34:20Z</time>
      </trkpt>
      <trkpt lat="44.77577" lon="0.99856">
        <ele>181.8</ele>
        <time>2022-08-15T07:34:22Z</time>
      </trkpt>
      <trkpt lat="44.77569" lon="0.99864">
        <ele>181.7</ele>
        <time>2022-08-15T07:34:24Z</time>
      </trkpt>
      <trkpt lat="44.77561" lon="0.99872">
        <ele>181.8</ele>
        <time>2022-08-15T07:34:26Z</time>
      </trkpt>
      <trkpt lat="44.77552" lon="0.9988">
        <ele>181.9</ele>
        <time>2022-08-15T07:34:28Z</time>
      </trkpt>
      <trkpt lat="44.77544" lon="0.99887">
        <ele>182</ele>
        <time>2022-08-15T07:34:30Z</time>
      </trkpt>
      <trkpt lat="44.77535" lon="0.99895">
        <ele>182.2</ele>
        <time>2022-08-15T07:34:32Z</time>
      </trkpt>
      <trkpt lat="44.77527" lon="0.99903">
        <ele>182.6</ele>
        <time>2022-08-15T07:34:34Z</time>
      </trkpt>
      <trkpt lat="44.77518" lon="0.99909">
        <ele>182.8</ele>
        <time>2022-08-15T07:34:36Z</time>
      </trkpt>
      <trkpt lat="44.77509" lon="0.99916">
        <ele>183.2</ele>
        <time>2022-08-15T07:34:38Z</time>
      </trkpt>
      <trkpt lat="44.775" lon="0.99923">
        <ele>183.1</ele>
        <time>2022-08-15T07:34:40Z</time>
      </trkpt>
      <trkpt lat="44.7749" lon="0.99929">
        <ele>182.3</ele>
        <time>2022-08-15T07:34:42Z</time>
      </trkpt>
      <trkpt lat="44.77481" lon="0.99936">
        <ele>181.5</ele>
        <time>2022-08-15T07:34:44Z</time>
      </trkpt>
      <trkpt lat="44.77473" lon="0.99943">
        <ele>181</ele>
        <time>2022-08-15T07:34:46Z</time>
      </trkpt>
      <trkpt lat="44.77466" lon="0.99952">
        <ele>180.5</ele>
        <time>2022-08-15T07:34:48Z</time>
      </trkpt>
      <trkpt lat="44.77461" lon="0.99963">
        <ele>180.4</ele>
        <time>2022-08-15T07:34:50Z</time>
      </trkpt>
      <trkpt lat="44.77459" lon="0.99977">
        <ele>180.7</ele>
        <time>2022-08-15T07:34:52Z</time>
      </trkpt>
      <trkpt lat="44.7746" lon="0.99992">
        <ele>181.3</ele>
        <time>2022-08-15T07:34:54Z</time>
      </trkpt>
      <trkpt lat="44.77463" lon="1.00007">
        <ele>181.6</ele>
        <time>2022-08-15T07:34:56Z</time>
      </trkpt>
      <trkpt lat="44.77467" lon="1.00023">
        <ele>181.1</ele>
        <time>2022-08-15T07:34:58Z</time>
      </trkpt>
      <trkpt lat="44.77472" lon="1.0004">
        <ele>180.6</ele>
        <time>2022-08-15T07:35:00Z</time>
      </trkpt>
      <trkpt lat="44.77476" lon="1.00057">
        <ele>179.9</ele>
        <time>2022-08-15T07:35:02Z</time>
      </trkpt>
      <trkpt lat="44.7748" lon="1.00075">
        <ele>179</ele>
        <time>2022-08-15T07:35:04Z</time>
      </trkpt>
      <trkpt lat="44.77483" lon="1.00093">
        <ele>178</ele>
        <time>2022-08-15T07:35:06Z</time>
      </trkpt>
      <trkpt lat="44.77484" lon="1.00112">
        <ele>176.9</ele>
        <time>2022-08-15T07:35:08Z</time>
      </trkpt>
      <trkpt lat="44.77482" lon="1.00128">
        <ele>175.9</ele>
        <time>2022-08-15T07:35:10Z</time>
      </trkpt>
      <trkpt lat="44.77479" lon="1.00142">
        <ele>174.8</ele>
        <time>2022-08-15T07:35:12Z</time>
      </trkpt>
      <trkpt lat="44.77475" lon="1.00158">
        <ele>173.4</ele>
        <time>2022-08-15T07:35:14Z</time>
      </trkpt>
      <trkpt lat="44.7747" lon="1.00174">
        <ele>172.7</ele>
        <time>2022-08-15T07:35:16Z</time>
      </trkpt>
      <trkpt lat="44.77465" lon="1.0019">
        <ele>172.7</ele>
        <time>2022-08-15T07:35:18Z</time>
      </trkpt>
      <trkpt lat="44.77459" lon="1.00206">
        <ele>172.5</ele>
        <time>2022-08-15T07:35:20Z</time>
      </trkpt>
      <trkpt lat="44.77452" lon="1.00222">
        <ele>172.2</ele>
        <time>2022-08-15T07:35:22Z</time>
      </trkpt>
      <trkpt lat="44.77446" lon="1.00237">
        <ele>171.9</ele>
        <time>2022-08-15T07:35:24Z</time>
      </trkpt>
      <trkpt lat="44.77439" lon="1.00252">
        <ele>171.5</ele>
        <time>2022-08-15T07:35:26Z</time>
      </trkpt>
      <trkpt lat="44.77432" lon="1.00266">
        <ele>171.5</ele>
        <time>2022-08-15T07:35:28Z</time>
      </trkpt>
      <trkpt lat="44.77426" lon="1.00281">
        <ele>171.5</ele>
        <time>2022-08-15T07:35:30Z</time>
      </trkpt>
      <trkpt lat="44.7742" lon="1.00293">
        <ele>171.4</ele>
        <time>2022-08-15T07:35:32Z</time>
      </trkpt>
      <trkpt lat="44.77415" lon="1.00305">
        <ele>171.2</ele>
        <time>2022-08-15T07:35:34Z</time>
      </trkpt>
      <trkpt lat="44.7741" lon="1.00317">
        <ele>170.8</ele>
        <time>2022-08-15T07:35:36Z</time>
      </trkpt>
      <trkpt lat="44.77405" lon="1.00328">
        <ele>170.3</ele>
        <time>2022-08-15T07:35:38Z</time>
      </trkpt>
      <trkpt lat="44.774" lon="1.00338">
        <ele>169.7</ele>
        <time>2022-08-15T07:35:40Z</time>
      </trkpt>
      <trkpt lat="44.77396" lon="1.00348">
        <ele>168.8</ele>
        <time>2022-08-15T07:35:42Z</time>
      </trkpt>
      <trkpt lat="44.77392" lon="1.0036">
        <ele>168.2</ele>
        <time>2022-08-15T07:35:44Z</time>
      </trkpt>
      <trkpt lat="44.7739" lon="1.00373">
        <ele>167.8</ele>
        <time>2022-08-15T07:35:46Z</time>
      </trkpt>
      <trkpt lat="44.77389" lon="1.00385">
        <ele>167.6</ele>
        <time>2022-08-15T07:35:48Z</time>
      </trkpt>
      <trkpt lat="44.77389" lon="1.00397">
        <ele>167.7</ele>
        <time>2022-08-15T07:35:50Z</time>
      </trkpt>
      <trkpt lat="44.77392" lon="1.00408">
        <ele>168.2</ele>
        <time>2022-08-15T07:35:52Z</time>
      </trkpt>
      <trkpt lat="44.77393" lon="1.0042">
        <ele>168.4</ele>
        <time>2022-08-15T07:35:54Z</time>
      </trkpt>
      <trkpt lat="44.77395" lon="1.00431">
        <ele>168.6</ele>
        <time>2022-08-15T07:35:56Z</time>
      </trkpt>
      <trkpt lat="44.77399" lon="1.00441">
        <ele>169</ele>
        <time>2022-08-15T07:35:58Z</time>
      </trkpt>
      <trkpt lat="44.77401" lon="1.0045">
        <ele>169.3</ele>
        <time>2022-08-15T07:36:00Z</time>
      </trkpt>
      <trkpt lat="44.77404" lon="1.00458">
        <ele>169.6</ele>
        <time>2022-08-15T07:36:02Z</time>
      </trkpt>
      <trkpt lat="44.77408" lon="1.00466">
        <ele>170.3</ele>
        <time>2022-08-15T07:36:04Z</time>
      </trkpt>
      <trkpt lat="44.77411" lon="1.00473">
        <ele>170.5</ele>
        <time>2022-08-15T07:36:06Z</time>
      </trkpt>
      <trkpt lat="44.77414" lon="1.0048">
        <ele>171.1</ele>
        <time>2022-08-15T07:36:08Z</time>
      </trkpt>
      <trkpt lat="44.77418" lon="1.00487">
        <ele>171.5</ele>
        <time>2022-08-15T07:36:10Z</time>
      </trkpt>
      <trkpt lat="44.77421" lon="1.00493">
        <ele>171.6</ele>
        <time>2022-08-15T07:36:12Z</time>
      </trkpt>
      <trkpt lat="44.77424" lon="1.00498">
        <ele>171.7</ele>
        <time>2022-08-15T07:36:14Z</time>
      </trkpt>
      <trkpt lat="44.77428" lon="1.00503">
        <ele>171.5</ele>
        <time>2022-08-15T07:36:16Z</time>
      </trkpt>
      <trkpt lat="44.77431" lon="1.00509">
        <ele>171</ele>
        <time>2022-08-15T07:36:18Z</time>
      </trkpt>
      <trkpt lat="44.77435" lon="1.00515">
        <ele>170.5</ele>
        <time>2022-08-15T07:36:20Z</time>
      </trkpt>
      <trkpt lat="44.77438" lon="1.0052">
        <ele>170</ele>
        <time>2022-08-15T07:36:22Z</time>
      </trkpt>
      <trkpt lat="44.7744" lon="1.00524">
        <ele>169.6</ele>
        <time>2022-08-15T07:36:24Z</time>
      </trkpt>
      <trkpt lat="44.77441" lon="1.00526">
        <ele>169.5</ele>
        <time>2022-08-15T07:36:26Z</time>
      </trkpt>
      <trkpt lat="44.77443" lon="1.00528">
        <ele>169.3</ele>
        <time>2022-08-15T07:36:28Z</time>
      </trkpt>
      <trkpt lat="44.77444" lon="1.00529">
        <ele>169.3</ele>
        <time>2022-08-15T07:36:30Z</time>
      </trkpt>
      <trkpt lat="44.77444" lon="1.00528">
        <ele>169.3</ele>
        <time>2022-08-15T07:36:32Z</time>
      </trkpt>
      <trkpt lat="44.77444" lon="1.00528">
        <ele>169.3</ele>
        <time>2022-08-15T07:36:34Z</time>
      </trkpt>
      <trkpt lat="44.77443" lon="1.00528">
        <ele>169.3</ele>
        <time>2022-08-15T07:36:38Z</time>
      </trkpt>
      <trkpt lat="44.77455" lon="1.00535">
        <ele>169.3</ele>
        <time>2022-08-15T07:38:04Z</time>
      </trkpt>
      <trkpt lat="44.77459" lon="1.00539">
        <ele>168.9</ele>
        <time>2022-08-15T07:38:06Z</time>
      </trkpt>
      <trkpt lat="44.77465" lon="1.00542">
        <ele>168.9</ele>
        <time>2022-08-15T07:38:08Z</time>
      </trkpt>
      <trkpt lat="44.77471" lon="1.00545">
        <ele>168.9</ele>
        <time>2022-08-15T07:38:10Z</time>
      </trkpt>
      <trkpt lat="44.77477" lon="1.00546">
        <ele>169.2</ele>
        <time>2022-08-15T07:38:12Z</time>
      </trkpt>
      <trkpt lat="44.77484" lon="1.00549">
        <ele>169.3</ele>
        <time>2022-08-15T07:38:14Z</time>
      </trkpt>
      <trkpt lat="44.77491" lon="1.0055">
        <ele>169.5</ele>
        <time>2022-08-15T07:38:16Z</time>
      </trkpt>
      <trkpt lat="44.77498" lon="1.00551">
        <ele>169.9</ele>
        <time>2022-08-15T07:38:18Z</time>
      </trkpt>
      <trkpt lat="44.77506" lon="1.00552">
        <ele>170</ele>
        <time>2022-08-15T07:38:20Z</time>
      </trkpt>
      <trkpt lat="44.77513" lon="1.00553">
        <ele>170</ele>
        <time>2022-08-15T07:38:22Z</time>
      </trkpt>
      <trkpt lat="44.7752" lon="1.00553">
        <ele>170.2</ele>
        <time>2022-08-15T07:38:24Z</time>
      </trkpt>
      <trkpt lat="44.77528" lon="1.00553">
        <ele>170.4</ele>
        <time>2022-08-15T07:38:26Z</time>
      </trkpt>
      <trkpt lat="44.77535" lon="1.00553">
        <ele>170.5</ele>
        <time>2022-08-15T07:38:28Z</time>
      </trkpt>
      <trkpt lat="44.77542" lon="1.00553">
        <ele>170.6</ele>
        <time>2022-08-15T07:38:30Z</time>
      </trkpt>
      <trkpt lat="44.77549" lon="1.00556">
        <ele>170.5</ele>
        <time>2022-08-15T07:38:32Z</time>
      </trkpt>
      <trkpt lat="44.77557" lon="1.00558">
        <ele>170.4</ele>
        <time>2022-08-15T07:38:34Z</time>
      </trkpt>
      <trkpt lat="44.77564" lon="1.00561">
        <ele>170.3</ele>
        <time>2022-08-15T07:38:36Z</time>
      </trkpt>
      <trkpt lat="44.77571" lon="1.00565">
        <ele>170.2</ele>
        <time>2022-08-15T07:38:38Z</time>
      </trkpt>
      <trkpt lat="44.77578" lon="1.00567">
        <ele>170.2</ele>
        <time>2022-08-15T07:38:40Z</time>
      </trkpt>
      <trkpt lat="44.77585" lon="1.00568">
        <ele>170.3</ele>
        <time>2022-08-15T07:38:42Z</time>
      </trkpt>
      <trkpt lat="44.77591" lon="1.00567">
        <ele>170.8</ele>
        <time>2022-08-15T07:38:44Z</time>
      </trkpt>
      <trkpt lat="44.77599" lon="1.00564">
        <ele>171.3</ele>
        <time>2022-08-15T07:38:46Z</time>
      </trkpt>
      <trkpt lat="44.77602" lon="1.00559">
        <ele>171.7</ele>
        <time>2022-08-15T07:38:48Z</time>
      </trkpt>
      <trkpt lat="44.77607" lon="1.00557">
        <ele>172.1</ele>
        <time>2022-08-15T07:38:50Z</time>
      </trkpt>
      <trkpt lat="44.77612" lon="1.00556">
        <ele>172.3</ele>
        <time>2022-08-15T07:38:52Z</time>
      </trkpt>
      <trkpt lat="44.77616" lon="1.00557">
        <ele>172.4</ele>
        <time>2022-08-15T07:38:54Z</time>
      </trkpt>
      <trkpt lat="44.77619" lon="1.00559">
        <ele>172.4</ele>
        <time>2022-08-15T07:38:56Z</time>
      </trkpt>
      <trkpt lat="44.77621" lon="1.00559">
        <ele>172.5</ele>
        <time>2022-08-15T07:38:58Z</time>
      </trkpt>
      <trkpt lat="44.77621" lon="1.00558">
        <ele>172.5</ele>
        <time>2022-08-15T07:39:00Z</time>
      </trkpt>
      <trkpt lat="44.77621" lon="1.00558">
        <ele>172.6</ele>
        <time>2022-08-15T07:39:02Z</time>
      </trkpt>
      <trkpt lat="44.77621" lon="1.00558">
        <ele>172.6</ele>
        <time>2022-08-15T07:39:04Z</time>
      </trkpt>
      <trkpt lat="44.77621" lon="1.00559">
        <ele>172.5</ele>
        <time>2022-08-15T07:39:06Z</time>
      </trkpt>
      <trkpt lat="44.7763" lon="1.00578">
        <ele>172.1</ele>
        <time>2022-08-15T07:39:24Z</time>
      </trkpt>
      <trkpt lat="44.77633" lon="1.00583">
        <ele>172</ele>
        <time>2022-08-15T07:39:26Z</time>
      </trkpt>
      <trkpt lat="44.77634" lon="1.00588">
        <ele>171.9</ele>
        <time>2022-08-15T07:39:28Z</time>
      </trkpt>
      <trkpt lat="44.77637" lon="1.00593">
        <ele>172</ele>
        <time>2022-08-15T07:39:30Z</time>
      </trkpt>
      <trkpt lat="44.77638" lon="1.00596">
        <ele>171.9</ele>
        <time>2022-08-15T07:39:32Z</time>
      </trkpt>
      <trkpt lat="44.77638" lon="1.006">
        <ele>171.8</ele>
        <time>2022-08-15T07:39:34Z</time>
      </trkpt>
      <trkpt lat="44.77639" lon="1.00603">
        <ele>171.8</ele>
        <time>2022-08-15T07:39:36Z</time>
      </trkpt>
      <trkpt lat="44.7764" lon="1.00608">
        <ele>171.8</ele>
        <time>2022-08-15T07:39:38Z</time>
      </trkpt>
      <trkpt lat="44.77641" lon="1.00611">
        <ele>171.7</ele>
        <time>2022-08-15T07:39:40Z</time>
      </trkpt>
      <trkpt lat="44.77644" lon="1.00617">
        <ele>171.8</ele>
        <time>2022-08-15T07:39:42Z</time>
      </trkpt>
      <trkpt lat="44.77644" lon="1.00623">
        <ele>171.7</ele>
        <time>2022-08-15T07:39:44Z</time>
      </trkpt>
      <trkpt lat="44.77644" lon="1.00628">
        <ele>171.5</ele>
        <time>2022-08-15T07:39:46Z</time>
      </trkpt>
      <trkpt lat="44.77644" lon="1.00633">
        <ele>171.4</ele>
        <time>2022-08-15T07:39:48Z</time>
      </trkpt>
      <trkpt lat="44.77645" lon="1.00637">
        <ele>171.4</ele>
        <time>2022-08-15T07:39:50Z</time>
      </trkpt>
      <trkpt lat="44.77644" lon="1.00641">
        <ele>171.2</ele>
        <time>2022-08-15T07:39:52Z</time>
      </trkpt>
      <trkpt lat="44.77644" lon="1.00646">
        <ele>171</ele>
        <time>2022-08-15T07:39:54Z</time>
      </trkpt>
      <trkpt lat="44.77644" lon="1.00648">
        <ele>171</ele>
        <time>2022-08-15T07:39:56Z</time>
      </trkpt>
      <trkpt lat="44.77643" lon="1.00648">
        <ele>171</ele>
        <time>2022-08-15T07:39:58Z</time>
      </trkpt>
      <trkpt lat="44.77643" lon="1.00648">
        <ele>171</ele>
        <time>2022-08-15T07:40:00Z</time>
      </trkpt>
      <trkpt lat="44.77642" lon="1.00648">
        <ele>170.9</ele>
        <time>2022-08-15T07:40:02Z</time>
      </trkpt>
      <trkpt lat="44.77643" lon="1.00647">
        <ele>170.9</ele>
        <time>2022-08-15T07:40:04Z</time>
      </trkpt>
      <trkpt lat="44.77645" lon="1.00652">
        <ele>171</ele>
        <time>2022-08-15T07:40:46Z</time>
      </trkpt>
      <trkpt lat="44.77645" lon="1.00652">
        <ele>171</ele>
        <time>2022-08-15T07:40:50Z</time>
      </trkpt>
      <trkpt lat="44.77642" lon="1.00652">
        <ele>170.8</ele>
        <time>2022-08-15T07:40:54Z</time>
      </trkpt>
      <trkpt lat="44.77642" lon="1.00654">
        <ele>170.7</ele>
        <time>2022-08-15T07:40:56Z</time>
      </trkpt>
      <trkpt lat="44.77641" lon="1.00657">
        <ele>170.5</ele>
        <time>2022-08-15T07:40:58Z</time>
      </trkpt>
      <trkpt lat="44.7764" lon="1.00662">
        <ele>170.2</ele>
        <time>2022-08-15T07:41:00Z</time>
      </trkpt>
      <trkpt lat="44.77639" lon="1.00667">
        <ele>170.1</ele>
        <time>2022-08-15T07:41:02Z</time>
      </trkpt>
      <trkpt lat="44.77639" lon="1.00669">
        <ele>170.1</ele>
        <time>2022-08-15T07:41:04Z</time>
      </trkpt>
      <trkpt lat="44.7764" lon="1.00668">
        <ele>170.2</ele>
        <time>2022-08-15T07:41:06Z</time>
      </trkpt>
      <trkpt lat="44.7764" lon="1.00668">
        <ele>170.2</ele>
        <time>2022-08-15T07:41:08Z</time>
      </trkpt>
      <trkpt lat="44.7764" lon="1.00669">
        <ele>170.2</ele>
        <time>2022-08-15T07:41:12Z</time>
      </trkpt>
      <trkpt lat="44.7764" lon="1.00692">
        <ele>170.3</ele>
        <time>2022-08-15T07:41:54Z</time>
      </trkpt>
      <trkpt lat="44.77641" lon="1.00699">
        <ele>170.4</ele>
        <time>2022-08-15T07:41:56Z</time>
      </trkpt>
      <trkpt lat="44.7764" lon="1.00704">
        <ele>170.4</ele>
        <time>2022-08-15T07:41:58Z</time>
      </trkpt>
      <trkpt lat="44.77639" lon="1.00709">
        <ele>170.4</ele>
        <time>2022-08-15T07:42:00Z</time>
      </trkpt>
      <trkpt lat="44.77638" lon="1.00714">
        <ele>170.3</ele>
        <time>2022-08-15T07:42:02Z</time>
      </trkpt>
      <trkpt lat="44.77637" lon="1.0072">
        <ele>170.3</ele>
        <time>2022-08-15T07:42:04Z</time>
      </trkpt>
      <trkpt lat="44.77637" lon="1.00725">
        <ele>170.4</ele>
        <time>2022-08-15T07:42:06Z</time>
      </trkpt>
      <trkpt lat="44.77636" lon="1.00729">
        <ele>170.3</ele>
        <time>2022-08-15T07:42:08Z</time>
      </trkpt>
      <trkpt lat="44.77634" lon="1.00734">
        <ele>170.2</ele>
        <time>2022-08-15T07:42:10Z</time>
      </trkpt>
      <trkpt lat="44.77634" lon="1.0074">
        <ele>170.3</ele>
        <time>2022-08-15T07:42:12Z</time>
      </trkpt>
      <trkpt lat="44.77633" lon="1.00745">
        <ele>170.3</ele>
        <time>2022-08-15T07:42:14Z</time>
      </trkpt>
      <trkpt lat="44.77632" lon="1.0075">
        <ele>170.4</ele>
        <time>2022-08-15T07:42:16Z</time>
      </trkpt>
      <trkpt lat="44.77633" lon="1.00756">
        <ele>170.5</ele>
        <time>2022-08-15T07:42:18Z</time>
      </trkpt>
      <trkpt lat="44.77632" lon="1.0076">
        <ele>170.6</ele>
        <time>2022-08-15T07:42:20Z</time>
      </trkpt>
      <trkpt lat="44.7763" lon="1.00763">
        <ele>170.6</ele>
        <time>2022-08-15T07:42:22Z</time>
      </trkpt>
      <trkpt lat="44.77627" lon="1.00766">
        <ele>170.6</ele>
        <time>2022-08-15T07:42:24Z</time>
      </trkpt>
      <trkpt lat="44.77624" lon="1.00769">
        <ele>170.6</ele>
        <time>2022-08-15T07:42:26Z</time>
      </trkpt>
      <trkpt lat="44.77624" lon="1.00772">
        <ele>170.8</ele>
        <time>2022-08-15T07:42:28Z</time>
      </trkpt>
      <trkpt lat="44.77624" lon="1.00776">
        <ele>170.9</ele>
        <time>2022-08-15T07:42:30Z</time>
      </trkpt>
      <trkpt lat="44.77625" lon="1.00775">
        <ele>170.9</ele>
        <time>2022-08-15T07:42:32Z</time>
      </trkpt>
      <trkpt lat="44.77625" lon="1.00775">
        <ele>170.9</ele>
        <time>2022-08-15T07:42:34Z</time>
      </trkpt>
      <trkpt lat="44.77625" lon="1.00775">
        <ele>170.9</ele>
        <time>2022-08-15T07:42:36Z</time>
      </trkpt>
      <trkpt lat="44.77626" lon="1.00777">
        <ele>171</ele>
        <time>2022-08-15T07:42:38Z</time>
      </trkpt>
      <trkpt lat="44.77585" lon="1.00798">
        <ele>171.5</ele>
        <time>2022-08-15T07:52:04Z</time>
      </trkpt>
      <trkpt lat="44.77586" lon="1.008">
        <ele>171.6</ele>
        <time>2022-08-15T07:52:06Z</time>
      </trkpt>
      <trkpt lat="44.77585" lon="1.00801">
        <ele>171.7</ele>
        <time>2022-08-15T07:52:08Z</time>
      </trkpt>
      <trkpt lat="44.77582" lon="1.00802">
        <ele>171.4</ele>
        <time>2022-08-15T07:52:10Z</time>
      </trkpt>
      <trkpt lat="44.77581" lon="1.00804">
        <ele>171</ele>
        <time>2022-08-15T07:52:12Z</time>
      </trkpt>
      <trkpt lat="44.77579" lon="1.00805">
        <ele>170.6</ele>
        <time>2022-08-15T07:52:14Z</time>
      </trkpt>
      <trkpt lat="44.77576" lon="1.00809">
        <ele>170</ele>
        <time>2022-08-15T07:52:16Z</time>
      </trkpt>
      <trkpt lat="44.77574" lon="1.00811">
        <ele>169.6</ele>
        <time>2022-08-15T07:52:18Z</time>
      </trkpt>
      <trkpt lat="44.77573" lon="1.00813">
        <ele>169.4</ele>
        <time>2022-08-15T07:52:20Z</time>
      </trkpt>
      <trkpt lat="44.77572" lon="1.00816">
        <ele>169.2</ele>
        <time>2022-08-15T07:52:22Z</time>
      </trkpt>
      <trkpt lat="44.7757" lon="1.00818">
        <ele>168.7</ele>
        <time>2022-08-15T07:52:24Z</time>
      </trkpt>
      <trkpt lat="44.77567" lon="1.00819">
        <ele>167.9</ele>
        <time>2022-08-15T07:52:26Z</time>
      </trkpt>
      <trkpt lat="44.77566" lon="1.0082">
        <ele>167.7</ele>
        <time>2022-08-15T07:52:28Z</time>
      </trkpt>
      <trkpt lat="44.77566" lon="1.00822">
        <ele>167.8</ele>
        <time>2022-08-15T07:52:30Z</time>
      </trkpt>
      <trkpt lat="44.777" lon="1.00579">
        <ele>171.8</ele>
        <time>2022-08-15T08:30:05Z</time>
      </trkpt>
      <trkpt lat="44.77626" lon="1.00771">
        <ele>170.8</ele>
        <time>2022-08-15T08:42:46Z</time>
      </trkpt>
      <trkpt lat="44.77622" lon="1.00783">
        <ele>171.1</ele>
        <time>2022-08-15T08:42:48Z</time>
      </trkpt>
      <trkpt lat="44.77632" lon="1.00792">
        <ele>171.6</ele>
        <time>2022-08-15T08:45:20Z</time>
      </trkpt>
      <trkpt lat="44.77634" lon="1.00792">
        <ele>171.6</ele>
        <time>2022-08-15T08:45:22Z</time>
      </trkpt>
      <trkpt lat="44.77635" lon="1.00791">
        <ele>171.6</ele>
        <time>2022-08-15T08:45:24Z</time>
      </trkpt>
      <trkpt lat="44.77641" lon="1.00793">
        <ele>171.7</ele>
        <time>2022-08-15T08:45:26Z</time>
      </trkpt>
      <trkpt lat="44.77649" lon="1.00792">
        <ele>171.8</ele>
        <time>2022-08-15T08:45:28Z</time>
      </trkpt>
      <trkpt lat="44.77656" lon="1.00788">
        <ele>171.8</ele>
        <time>2022-08-15T08:45:30Z</time>
      </trkpt>
      <trkpt lat="44.77663" lon="1.00785">
        <ele>171.9</ele>
        <time>2022-08-15T08:45:32Z</time>
      </trkpt>
      <trkpt lat="44.7767" lon="1.00781">
        <ele>171</ele>
        <time>2022-08-15T08:45:34Z</time>
      </trkpt>
      <trkpt lat="44.77672" lon="1.00772">
        <ele>170.4</ele>
        <time>2022-08-15T08:45:36Z</time>
      </trkpt>
      <trkpt lat="44.77672" lon="1.00759">
        <ele>170.5</ele>
        <time>2022-08-15T08:45:38Z</time>
      </trkpt>
      <trkpt lat="44.77675" lon="1.00745">
        <ele>170</ele>
        <time>2022-08-15T08:45:40Z</time>
      </trkpt>
      <trkpt lat="44.77677" lon="1.00732">
        <ele>169.7</ele>
        <time>2022-08-15T08:45:42Z</time>
      </trkpt>
      <trkpt lat="44.7768" lon="1.00722">
        <ele>169.2</ele>
        <time>2022-08-15T08:45:44Z</time>
      </trkpt>
      <trkpt lat="44.77683" lon="1.00712">
        <ele>168.7</ele>
        <time>2022-08-15T08:45:46Z</time>
      </trkpt>
      <trkpt lat="44.77686" lon="1.00704">
        <ele>168.3</ele>
        <time>2022-08-15T08:45:48Z</time>
      </trkpt>
      <trkpt lat="44.77689" lon="1.00696">
        <ele>167.9</ele>
        <time>2022-08-15T08:45:50Z</time>
      </trkpt>
      <trkpt lat="44.77692" lon="1.00689">
        <ele>167.6</ele>
        <time>2022-08-15T08:45:52Z</time>
      </trkpt>
      <trkpt lat="44.77695" lon="1.00682">
        <ele>167.3</ele>
        <time>2022-08-15T08:45:54Z</time>
      </trkpt>
      <trkpt lat="44.77698" lon="1.00676">
        <ele>167</ele>
        <time>2022-08-15T08:45:56Z</time>
      </trkpt>
      <trkpt lat="44.77701" lon="1.00669">
        <ele>166.8</ele>
        <time>2022-08-15T08:45:58Z</time>
      </trkpt>
      <trkpt lat="44.77704" lon="1.00664">
        <ele>166.5</ele>
        <time>2022-08-15T08:46:00Z</time>
      </trkpt>
      <trkpt lat="44.77706" lon="1.00658">
        <ele>166.4</ele>
        <time>2022-08-15T08:46:02Z</time>
      </trkpt>
      <trkpt lat="44.77708" lon="1.00654">
        <ele>166.4</ele>
        <time>2022-08-15T08:46:04Z</time>
      </trkpt>
      <trkpt lat="44.77708" lon="1.00649">
        <ele>166.8</ele>
        <time>2022-08-15T08:46:06Z</time>
      </trkpt>
      <trkpt lat="44.77706" lon="1.00643">
        <ele>167.5</ele>
        <time>2022-08-15T08:46:08Z</time>
      </trkpt>
      <trkpt lat="44.77703" lon="1.00639">
        <ele>168.1</ele>
        <time>2022-08-15T08:46:10Z</time>
      </trkpt>
      <trkpt lat="44.777" lon="1.00635">
        <ele>168.7</ele>
        <time>2022-08-15T08:46:12Z</time>
      </trkpt>
      <trkpt lat="44.77698" lon="1.00631">
        <ele>169.2</ele>
        <time>2022-08-15T08:46:14Z</time>
      </trkpt>
      <trkpt lat="44.77695" lon="1.00629">
        <ele>169.7</ele>
        <time>2022-08-15T08:46:16Z</time>
      </trkpt>
      <trkpt lat="44.77693" lon="1.00626">
        <ele>170.1</ele>
        <time>2022-08-15T08:46:18Z</time>
      </trkpt>
      <trkpt lat="44.7769" lon="1.00625">
        <ele>170.6</ele>
        <time>2022-08-15T08:46:20Z</time>
      </trkpt>
      <trkpt lat="44.77688" lon="1.00622">
        <ele>171</ele>
        <time>2022-08-15T08:46:22Z</time>
      </trkpt>
      <trkpt lat="44.77685" lon="1.00619">
        <ele>171.4</ele>
        <time>2022-08-15T08:46:24Z</time>
      </trkpt>
      <trkpt lat="44.77681" lon="1.00618">
        <ele>171.9</ele>
        <time>2022-08-15T08:46:26Z</time>
      </trkpt>
      <trkpt lat="44.77678" lon="1.00616">
        <ele>172.2</ele>
        <time>2022-08-15T08:46:28Z</time>
      </trkpt>
      <trkpt lat="44.77676" lon="1.00614">
        <ele>172.6</ele>
        <time>2022-08-15T08:46:30Z</time>
      </trkpt>
      <trkpt lat="44.77673" lon="1.00611">
        <ele>172.9</ele>
        <time>2022-08-15T08:46:32Z</time>
      </trkpt>
      <trkpt lat="44.77671" lon="1.00609">
        <ele>173.2</ele>
        <time>2022-08-15T08:46:34Z</time>
      </trkpt>
      <trkpt lat="44.77667" lon="1.00609">
        <ele>173.7</ele>
        <time>2022-08-15T08:46:36Z</time>
      </trkpt>
      <trkpt lat="44.77664" lon="1.00607">
        <ele>173.5</ele>
        <time>2022-08-15T08:46:38Z</time>
      </trkpt>
      <trkpt lat="44.77661" lon="1.00604">
        <ele>173.3</ele>
        <time>2022-08-15T08:46:40Z</time>
      </trkpt>
      <trkpt lat="44.77657" lon="1.00602">
        <ele>173.1</ele>
        <time>2022-08-15T08:46:42Z</time>
      </trkpt>
      <trkpt lat="44.77655" lon="1.00596">
        <ele>173.1</ele>
        <time>2022-08-15T08:46:44Z</time>
      </trkpt>
      <trkpt lat="44.77654" lon="1.00591">
        <ele>173.1</ele>
        <time>2022-08-15T08:46:46Z</time>
      </trkpt>
      <trkpt lat="44.77651" lon="1.00585">
        <ele>173</ele>
        <time>2022-08-15T08:46:48Z</time>
      </trkpt>
      <trkpt lat="44.77651" lon="1.00578">
        <ele>173.2</ele>
        <time>2022-08-15T08:46:50Z</time>
      </trkpt>
      <trkpt lat="44.7765" lon="1.00571">
        <ele>173.3</ele>
        <time>2022-08-15T08:46:52Z</time>
      </trkpt>
      <trkpt lat="44.77648" lon="1.00567">
        <ele>173.4</ele>
        <time>2022-08-15T08:46:54Z</time>
      </trkpt>
      <trkpt lat="44.77647" lon="1.0056">
        <ele>173.5</ele>
        <time>2022-08-15T08:46:56Z</time>
      </trkpt>
      <trkpt lat="44.77645" lon="1.00554">
        <ele>173.6</ele>
        <time>2022-08-15T08:46:58Z</time>
      </trkpt>
      <trkpt lat="44.77644" lon="1.00549">
        <ele>173.7</ele>
        <time>2022-08-15T08:47:00Z</time>
      </trkpt>
      <trkpt lat="44.77644" lon="1.00543">
        <ele>173.9</ele>
        <time>2022-08-15T08:47:02Z</time>
      </trkpt>
      <trkpt lat="44.77647" lon="1.0054">
        <ele>174.1</ele>
        <time>2022-08-15T08:47:04Z</time>
      </trkpt>
      <trkpt lat="44.77649" lon="1.00537">
        <ele>174.2</ele>
        <time>2022-08-15T08:47:06Z</time>
      </trkpt>
      <trkpt lat="44.77652" lon="1.00535">
        <ele>174.3</ele>
        <time>2022-08-15T08:47:08Z</time>
      </trkpt>
      <trkpt lat="44.77654" lon="1.00532">
        <ele>174.4</ele>
        <time>2022-08-15T08:47:10Z</time>
      </trkpt>
      <trkpt lat="44.77656" lon="1.00529">
        <ele>174.5</ele>
        <time>2022-08-15T08:47:12Z</time>
      </trkpt>
      <trkpt lat="44.77657" lon="1.00526">
        <ele>174.6</ele>
        <time>2022-08-15T08:47:14Z</time>
      </trkpt>
      <trkpt lat="44.7766" lon="1.00525">
        <ele>174.6</ele>
        <time>2022-08-15T08:47:16Z</time>
      </trkpt>
      <trkpt lat="44.7766" lon="1.00524">
        <ele>174.7</ele>
        <time>2022-08-15T08:47:18Z</time>
      </trkpt>
      <trkpt lat="44.7766" lon="1.00524">
        <ele>174.7</ele>
        <time>2022-08-15T08:47:20Z</time>
      </trkpt>
      <trkpt lat="44.7766" lon="1.00523">
        <ele>174.7</ele>
        <time>2022-08-15T08:47:22Z</time>
      </trkpt>
      <trkpt lat="44.7766" lon="1.00523">
        <ele>174.7</ele>
        <time>2022-08-15T08:47:24Z</time>
      </trkpt>
      <trkpt lat="44.7767" lon="1.00513">
        <ele>174.8</ele>
        <time>2022-08-15T08:47:32Z</time>
      </trkpt>
      <trkpt lat="44.77674" lon="1.0051">
        <ele>174.9</ele>
        <time>2022-08-15T08:47:34Z</time>
      </trkpt>
      <trkpt lat="44.77677" lon="1.00507">
        <ele>175</ele>
        <time>2022-08-15T08:47:36Z</time>
      </trkpt>
      <trkpt lat="44.77681" lon="1.00504">
        <ele>175.1</ele>
        <time>2022-08-15T08:47:38Z</time>
      </trkpt>
      <trkpt lat="44.77685" lon="1.00502">
        <ele>175.2</ele>
        <time>2022-08-15T08:47:40Z</time>
      </trkpt>
      <trkpt lat="44.77688" lon="1.005">
        <ele>175.3</ele>
        <time>2022-08-15T08:47:42Z</time>
      </trkpt>
      <trkpt lat="44.77691" lon="1.00497">
        <ele>175.4</ele>
        <time>2022-08-15T08:47:44Z</time>
      </trkpt>
      <trkpt lat="44.77695" lon="1.00494">
        <ele>175.6</ele>
        <time>2022-08-15T08:47:46Z</time>
      </trkpt>
      <trkpt lat="44.77698" lon="1.00492">
        <ele>175.8</ele>
        <time>2022-08-15T08:47:48Z</time>
      </trkpt>
      <trkpt lat="44.777" lon="1.00491">
        <ele>175.9</ele>
        <time>2022-08-15T08:47:50Z</time>
      </trkpt>
      <trkpt lat="44.77701" lon="1.00488">
        <ele>176.1</ele>
        <time>2022-08-15T08:47:52Z</time>
      </trkpt>
      <trkpt lat="44.77703" lon="1.00486">
        <ele>176.2</ele>
        <time>2022-08-15T08:47:54Z</time>
      </trkpt>
      <trkpt lat="44.77705" lon="1.00484">
        <ele>176.3</ele>
        <time>2022-08-15T08:47:56Z</time>
      </trkpt>
      <trkpt lat="44.77707" lon="1.00482">
        <ele>176.4</ele>
        <time>2022-08-15T08:47:58Z</time>
      </trkpt>
      <trkpt lat="44.77707" lon="1.00478">
        <ele>176.7</ele>
        <time>2022-08-15T08:48:00Z</time>
      </trkpt>
      <trkpt lat="44.77709" lon="1.00476">
        <ele>176.8</ele>
        <time>2022-08-15T08:48:02Z</time>
      </trkpt>
      <trkpt lat="44.77712" lon="1.00475">
        <ele>176.9</ele>
        <time>2022-08-15T08:48:04Z</time>
      </trkpt>
      <trkpt lat="44.77715" lon="1.00472">
        <ele>177.1</ele>
        <time>2022-08-15T08:48:06Z</time>
      </trkpt>
      <trkpt lat="44.77718" lon="1.00471">
        <ele>177.2</ele>
        <time>2022-08-15T08:48:08Z</time>
      </trkpt>
      <trkpt lat="44.77721" lon="1.00469">
        <ele>177.4</ele>
        <time>2022-08-15T08:48:10Z</time>
      </trkpt>
      <trkpt lat="44.77724" lon="1.00466">
        <ele>177.6</ele>
        <time>2022-08-15T08:48:12Z</time>
      </trkpt>
      <trkpt lat="44.77727" lon="1.00464">
        <ele>177.8</ele>
        <time>2022-08-15T08:48:14Z</time>
      </trkpt>
      <trkpt lat="44.7773" lon="1.00461">
        <ele>178</ele>
        <time>2022-08-15T08:48:16Z</time>
      </trkpt>
      <trkpt lat="44.77733" lon="1.00459">
        <ele>178.1</ele>
        <time>2022-08-15T08:48:18Z</time>
      </trkpt>
      <trkpt lat="44.77736" lon="1.00456">
        <ele>178.4</ele>
        <time>2022-08-15T08:48:20Z</time>
      </trkpt>
      <trkpt lat="44.7774" lon="1.00453">
        <ele>178.6</ele>
        <time>2022-08-15T08:48:22Z</time>
      </trkpt>
      <trkpt lat="44.77743" lon="1.0045">
        <ele>178.8</ele>
        <time>2022-08-15T08:48:24Z</time>
      </trkpt>
      <trkpt lat="44.77746" lon="1.00447">
        <ele>179.1</ele>
        <time>2022-08-15T08:48:26Z</time>
      </trkpt>
      <trkpt lat="44.77749" lon="1.00444">
        <ele>179.4</ele>
        <time>2022-08-15T08:48:28Z</time>
      </trkpt>
      <trkpt lat="44.77752" lon="1.00441">
        <ele>179.2</ele>
        <time>2022-08-15T08:48:30Z</time>
      </trkpt>
      <trkpt lat="44.77756" lon="1.00439">
        <ele>178.9</ele>
        <time>2022-08-15T08:48:32Z</time>
      </trkpt>
      <trkpt lat="44.77759" lon="1.00436">
        <ele>178.7</ele>
        <time>2022-08-15T08:48:34Z</time>
      </trkpt>
      <trkpt lat="44.77762" lon="1.00432">
        <ele>178.6</ele>
        <time>2022-08-15T08:48:36Z</time>
      </trkpt>
      <trkpt lat="44.77766" lon="1.00431">
        <ele>178.3</ele>
        <time>2022-08-15T08:48:38Z</time>
      </trkpt>
      <trkpt lat="44.77768" lon="1.00428">
        <ele>178.2</ele>
        <time>2022-08-15T08:48:40Z</time>
      </trkpt>
      <trkpt lat="44.77771" lon="1.00424">
        <ele>178.2</ele>
        <time>2022-08-15T08:48:42Z</time>
      </trkpt>
      <trkpt lat="44.77774" lon="1.00421">
        <ele>178.1</ele>
        <time>2022-08-15T08:48:44Z</time>
      </trkpt>
      <trkpt lat="44.77777" lon="1.00417">
        <ele>178.1</ele>
        <time>2022-08-15T08:48:46Z</time>
      </trkpt>
      <trkpt lat="44.7778" lon="1.00415">
        <ele>177.9</ele>
        <time>2022-08-15T08:48:48Z</time>
      </trkpt>
      <trkpt lat="44.77783" lon="1.0041">
        <ele>177.8</ele>
        <time>2022-08-15T08:48:50Z</time>
      </trkpt>
      <trkpt lat="44.77785" lon="1.00406">
        <ele>177.8</ele>
        <time>2022-08-15T08:48:52Z</time>
      </trkpt>
      <trkpt lat="44.77789" lon="1.00401">
        <ele>177.7</ele>
        <time>2022-08-15T08:48:54Z</time>
      </trkpt>
      <trkpt lat="44.77791" lon="1.00396">
        <ele>177.8</ele>
        <time>2022-08-15T08:48:56Z</time>
      </trkpt>
      <trkpt lat="44.77792" lon="1.00391">
        <ele>178</ele>
        <time>2022-08-15T08:48:58Z</time>
      </trkpt>
      <trkpt lat="44.77795" lon="1.00385">
        <ele>178</ele>
        <time>2022-08-15T08:49:00Z</time>
      </trkpt>
      <trkpt lat="44.77796" lon="1.0038">
        <ele>178.2</ele>
        <time>2022-08-15T08:49:02Z</time>
      </trkpt>
      <trkpt lat="44.77797" lon="1.00375">
        <ele>178.4</ele>
        <time>2022-08-15T08:49:04Z</time>
      </trkpt>
      <trkpt lat="44.77799" lon="1.00369">
        <ele>178.5</ele>
        <time>2022-08-15T08:49:06Z</time>
      </trkpt>
      <trkpt lat="44.778" lon="1.00363">
        <ele>178.7</ele>
        <time>2022-08-15T08:49:08Z</time>
      </trkpt>
      <trkpt lat="44.77801" lon="1.00357">
        <ele>178.9</ele>
        <time>2022-08-15T08:49:10Z</time>
      </trkpt>
      <trkpt lat="44.77802" lon="1.0035">
        <ele>179.1</ele>
        <time>2022-08-15T08:49:12Z</time>
      </trkpt>
      <trkpt lat="44.77803" lon="1.00344">
        <ele>179.4</ele>
        <time>2022-08-15T08:49:14Z</time>
      </trkpt>
      <trkpt lat="44.77803" lon="1.00337">
        <ele>179.8</ele>
        <time>2022-08-15T08:49:16Z</time>
      </trkpt>
      <trkpt lat="44.77803" lon="1.00331">
        <ele>180.1</ele>
        <time>2022-08-15T08:49:18Z</time>
      </trkpt>
      <trkpt lat="44.77803" lon="1.00325">
        <ele>180.2</ele>
        <time>2022-08-15T08:49:20Z</time>
      </trkpt>
      <trkpt lat="44.77803" lon="1.00319">
        <ele>180.4</ele>
        <time>2022-08-15T08:49:22Z</time>
      </trkpt>
      <trkpt lat="44.77802" lon="1.00312">
        <ele>180.7</ele>
        <time>2022-08-15T08:49:24Z</time>
      </trkpt>
      <trkpt lat="44.77801" lon="1.00306">
        <ele>180.9</ele>
        <time>2022-08-15T08:49:26Z</time>
      </trkpt>
      <trkpt lat="44.778" lon="1.00299">
        <ele>181.2</ele>
        <time>2022-08-15T08:49:28Z</time>
      </trkpt>
      <trkpt lat="44.77799" lon="1.00293">
        <ele>181.5</ele>
        <time>2022-08-15T08:49:30Z</time>
      </trkpt>
      <trkpt lat="44.77799" lon="1.00287">
        <ele>181.7</ele>
        <time>2022-08-15T08:49:32Z</time>
      </trkpt>
      <trkpt lat="44.77797" lon="1.0028">
        <ele>182.1</ele>
        <time>2022-08-15T08:49:34Z</time>
      </trkpt>
      <trkpt lat="44.77797" lon="1.00273">
        <ele>182.3</ele>
        <time>2022-08-15T08:49:36Z</time>
      </trkpt>
      <trkpt lat="44.77795" lon="1.00267">
        <ele>182.6</ele>
        <time>2022-08-15T08:49:38Z</time>
      </trkpt>
      <trkpt lat="44.77795" lon="1.0026">
        <ele>182.9</ele>
        <time>2022-08-15T08:49:40Z</time>
      </trkpt>
      <trkpt lat="44.77794" lon="1.00254">
        <ele>183.1</ele>
        <time>2022-08-15T08:49:42Z</time>
      </trkpt>
      <trkpt lat="44.77794" lon="1.00247">
        <ele>183.4</ele>
        <time>2022-08-15T08:49:44Z</time>
      </trkpt>
      <trkpt lat="44.77794" lon="1.0024">
        <ele>183.9</ele>
        <time>2022-08-15T08:49:46Z</time>
      </trkpt>
      <trkpt lat="44.77795" lon="1.00233">
        <ele>184.2</ele>
        <time>2022-08-15T08:49:48Z</time>
      </trkpt>
      <trkpt lat="44.77796" lon="1.00226">
        <ele>184.6</ele>
        <time>2022-08-15T08:49:50Z</time>
      </trkpt>
      <trkpt lat="44.77797" lon="1.00219">
        <ele>185</ele>
        <time>2022-08-15T08:49:52Z</time>
      </trkpt>
      <trkpt lat="44.77798" lon="1.00212">
        <ele>185.3</ele>
        <time>2022-08-15T08:49:54Z</time>
      </trkpt>
      <trkpt lat="44.77799" lon="1.00205">
        <ele>185.8</ele>
        <time>2022-08-15T08:49:56Z</time>
      </trkpt>
      <trkpt lat="44.77801" lon="1.00199">
        <ele>186</ele>
        <time>2022-08-15T08:49:58Z</time>
      </trkpt>
      <trkpt lat="44.77804" lon="1.00193">
        <ele>186.1</ele>
        <time>2022-08-15T08:50:00Z</time>
      </trkpt>
      <trkpt lat="44.77806" lon="1.00188">
        <ele>186.3</ele>
        <time>2022-08-15T08:50:02Z</time>
      </trkpt>
      <trkpt lat="44.77808" lon="1.00182">
        <ele>186.6</ele>
        <time>2022-08-15T08:50:04Z</time>
      </trkpt>
      <trkpt lat="44.77812" lon="1.00176">
        <ele>186.8</ele>
        <time>2022-08-15T08:50:06Z</time>
      </trkpt>
      <trkpt lat="44.77815" lon="1.00171">
        <ele>187</ele>
        <time>2022-08-15T08:50:08Z</time>
      </trkpt>
      <trkpt lat="44.77819" lon="1.00166">
        <ele>187.1</ele>
        <time>2022-08-15T08:50:10Z</time>
      </trkpt>
      <trkpt lat="44.77822" lon="1.00161">
        <ele>187.1</ele>
        <time>2022-08-15T08:50:12Z</time>
      </trkpt>
      <trkpt lat="44.77826" lon="1.00155">
        <ele>187.2</ele>
        <time>2022-08-15T08:50:14Z</time>
      </trkpt>
      <trkpt lat="44.7783" lon="1.00151">
        <ele>187.2</ele>
        <time>2022-08-15T08:50:16Z</time>
      </trkpt>
      <trkpt lat="44.77834" lon="1.00146">
        <ele>187.2</ele>
        <time>2022-08-15T08:50:18Z</time>
      </trkpt>
      <trkpt lat="44.77838" lon="1.0014">
        <ele>187.4</ele>
        <time>2022-08-15T08:50:20Z</time>
      </trkpt>
      <trkpt lat="44.77842" lon="1.00135">
        <ele>187.5</ele>
        <time>2022-08-15T08:50:22Z</time>
      </trkpt>
      <trkpt lat="44.77846" lon="1.0013">
        <ele>187.7</ele>
        <time>2022-08-15T08:50:24Z</time>
      </trkpt>
      <trkpt lat="44.7785" lon="1.00125">
        <ele>187.8</ele>
        <time>2022-08-15T08:50:26Z</time>
      </trkpt>
      <trkpt lat="44.77854" lon="1.0012">
        <ele>188</ele>
        <time>2022-08-15T08:50:28Z</time>
      </trkpt>
      <trkpt lat="44.77858" lon="1.00114">
        <ele>188.2</ele>
        <time>2022-08-15T08:50:30Z</time>
      </trkpt>
      <trkpt lat="44.77863" lon="1.00109">
        <ele>188.4</ele>
        <time>2022-08-15T08:50:32Z</time>
      </trkpt>
      <trkpt lat="44.77867" lon="1.00103">
        <ele>188.7</ele>
        <time>2022-08-15T08:50:34Z</time>
      </trkpt>
      <trkpt lat="44.77872" lon="1.00099">
        <ele>188.8</ele>
        <time>2022-08-15T08:50:36Z</time>
      </trkpt>
      <trkpt lat="44.77876" lon="1.00094">
        <ele>189.1</ele>
        <time>2022-08-15T08:50:38Z</time>
      </trkpt>
      <trkpt lat="44.7788" lon="1.00089">
        <ele>189.5</ele>
        <time>2022-08-15T08:50:40Z</time>
      </trkpt>
      <trkpt lat="44.77883" lon="1.00084">
        <ele>189.7</ele>
        <time>2022-08-15T08:50:42Z</time>
      </trkpt>
      <trkpt lat="44.77887" lon="1.0008">
        <ele>189.9</ele>
        <time>2022-08-15T08:50:44Z</time>
      </trkpt>
      <trkpt lat="44.77891" lon="1.00076">
        <ele>189.9</ele>
        <time>2022-08-15T08:50:46Z</time>
      </trkpt>
      <trkpt lat="44.77895" lon="1.00072">
        <ele>190</ele>
        <time>2022-08-15T08:50:48Z</time>
      </trkpt>
      <trkpt lat="44.77898" lon="1.00068">
        <ele>190</ele>
        <time>2022-08-15T08:50:50Z</time>
      </trkpt>
      <trkpt lat="44.77902" lon="1.00064">
        <ele>190.1</ele>
        <time>2022-08-15T08:50:52Z</time>
      </trkpt>
      <trkpt lat="44.77906" lon="1.00059">
        <ele>190.2</ele>
        <time>2022-08-15T08:50:54Z</time>
      </trkpt>
      <trkpt lat="44.77909" lon="1.00056">
        <ele>190.2</ele>
        <time>2022-08-15T08:50:56Z</time>
      </trkpt>
      <trkpt lat="44.77913" lon="1.00051">
        <ele>190.3</ele>
        <time>2022-08-15T08:50:58Z</time>
      </trkpt>
      <trkpt lat="44.77917" lon="1.00047">
        <ele>190.3</ele>
        <time>2022-08-15T08:51:00Z</time>
      </trkpt>
      <trkpt lat="44.7792" lon="1.00043">
        <ele>190.5</ele>
        <time>2022-08-15T08:51:02Z</time>
      </trkpt>
      <trkpt lat="44.77924" lon="1.00039">
        <ele>190.6</ele>
        <time>2022-08-15T08:51:04Z</time>
      </trkpt>
      <trkpt lat="44.77927" lon="1.00034">
        <ele>190.8</ele>
        <time>2022-08-15T08:51:06Z</time>
      </trkpt>
      <trkpt lat="44.77932" lon="1.00031">
        <ele>190.9</ele>
        <time>2022-08-15T08:51:08Z</time>
      </trkpt>
      <trkpt lat="44.77935" lon="1.00026">
        <ele>191</ele>
        <time>2022-08-15T08:51:10Z</time>
      </trkpt>
      <trkpt lat="44.77939" lon="1.00021">
        <ele>191</ele>
        <time>2022-08-15T08:51:12Z</time>
      </trkpt>
      <trkpt lat="44.77942" lon="1.00016">
        <ele>191.1</ele>
        <time>2022-08-15T08:51:14Z</time>
      </trkpt>
      <trkpt lat="44.77946" lon="1.00012">
        <ele>191.1</ele>
        <time>2022-08-15T08:51:16Z</time>
      </trkpt>
      <trkpt lat="44.7795" lon="1.00008">
        <ele>191.1</ele>
        <time>2022-08-15T08:51:18Z</time>
      </trkpt>
      <trkpt lat="44.77954" lon="1.00002">
        <ele>191.1</ele>
        <time>2022-08-15T08:51:20Z</time>
      </trkpt>
      <trkpt lat="44.77958" lon="0.99996">
        <ele>190.9</ele>
        <time>2022-08-15T08:51:22Z</time>
      </trkpt>
      <trkpt lat="44.77963" lon="0.9999">
        <ele>190.6</ele>
        <time>2022-08-15T08:51:24Z</time>
      </trkpt>
      <trkpt lat="44.7797" lon="0.99983">
        <ele>190.2</ele>
        <time>2022-08-15T08:51:26Z</time>
      </trkpt>
      <trkpt lat="44.77977" lon="0.99976">
        <ele>189.7</ele>
        <time>2022-08-15T08:51:28Z</time>
      </trkpt>
      <trkpt lat="44.77985" lon="0.99966">
        <ele>189</ele>
        <time>2022-08-15T08:51:30Z</time>
      </trkpt>
      <trkpt lat="44.77995" lon="0.99956">
        <ele>188.1</ele>
        <time>2022-08-15T08:51:32Z</time>
      </trkpt>
      <trkpt lat="44.78005" lon="0.99949">
        <ele>187.4</ele>
        <time>2022-08-15T08:51:34Z</time>
      </trkpt>
      <trkpt lat="44.78017" lon="0.99943">
        <ele>186.9</ele>
        <time>2022-08-15T08:51:36Z</time>
      </trkpt>
      <trkpt lat="44.78028" lon="0.99938">
        <ele>186.4</ele>
        <time>2022-08-15T08:51:38Z</time>
      </trkpt>
      <trkpt lat="44.7804" lon="0.99934">
        <ele>185.9</ele>
        <time>2022-08-15T08:51:40Z</time>
      </trkpt>
      <trkpt lat="44.78052" lon="0.99929">
        <ele>185.4</ele>
        <time>2022-08-15T08:51:42Z</time>
      </trkpt>
      <trkpt lat="44.78061" lon="0.99926">
        <ele>185</ele>
        <time>2022-08-15T08:51:44Z</time>
      </trkpt>
      <trkpt lat="44.78071" lon="0.99922">
        <ele>184.6</ele>
        <time>2022-08-15T08:51:46Z</time>
      </trkpt>
      <trkpt lat="44.78082" lon="0.99918">
        <ele>184.1</ele>
        <time>2022-08-15T08:51:48Z</time>
      </trkpt>
      <trkpt lat="44.78093" lon="0.99912">
        <ele>183.1</ele>
        <time>2022-08-15T08:51:50Z</time>
      </trkpt>
      <trkpt lat="44.78105" lon="0.99907">
        <ele>182</ele>
        <time>2022-08-15T08:51:52Z</time>
      </trkpt>
      <trkpt lat="44.78118" lon="0.99902">
        <ele>180.9</ele>
        <time>2022-08-15T08:51:54Z</time>
      </trkpt>
      <trkpt lat="44.7813" lon="0.99898">
        <ele>179.9</ele>
        <time>2022-08-15T08:51:56Z</time>
      </trkpt>
      <trkpt lat="44.78144" lon="0.99895">
        <ele>178.9</ele>
        <time>2022-08-15T08:51:58Z</time>
      </trkpt>
      <trkpt lat="44.78158" lon="0.99895">
        <ele>178</ele>
        <time>2022-08-15T08:52:00Z</time>
      </trkpt>
      <trkpt lat="44.7817" lon="0.99895">
        <ele>177.2</ele>
        <time>2022-08-15T08:52:02Z</time>
      </trkpt>
      <trkpt lat="44.78181" lon="0.99897">
        <ele>176.5</ele>
        <time>2022-08-15T08:52:04Z</time>
      </trkpt>
      <trkpt lat="44.7819" lon="0.99905">
        <ele>176.4</ele>
        <time>2022-08-15T08:52:06Z</time>
      </trkpt>
      <trkpt lat="44.78194" lon="0.99921">
        <ele>177.3</ele>
        <time>2022-08-15T08:52:08Z</time>
      </trkpt>
      <trkpt lat="44.78194" lon="0.99932">
        <ele>177.9</ele>
        <time>2022-08-15T08:52:10Z</time>
      </trkpt>
      <trkpt lat="44.78198" lon="0.9994">
        <ele>178.1</ele>
        <time>2022-08-15T08:52:12Z</time>
      </trkpt>
      <trkpt lat="44.78203" lon="0.99947">
        <ele>178.1</ele>
        <time>2022-08-15T08:52:14Z</time>
      </trkpt>
      <trkpt lat="44.78209" lon="0.99954">
        <ele>178</ele>
        <time>2022-08-15T08:52:16Z</time>
      </trkpt>
      <trkpt lat="44.78215" lon="0.99963">
        <ele>177.8</ele>
        <time>2022-08-15T08:52:18Z</time>
      </trkpt>
      <trkpt lat="44.78221" lon="0.99972">
        <ele>177.7</ele>
        <time>2022-08-15T08:52:20Z</time>
      </trkpt>
      <trkpt lat="44.78229" lon="0.9998">
        <ele>177.4</ele>
        <time>2022-08-15T08:52:22Z</time>
      </trkpt>
      <trkpt lat="44.78236" lon="0.99991">
        <ele>177.2</ele>
        <time>2022-08-15T08:52:24Z</time>
      </trkpt>
      <trkpt lat="44.78245" lon="1">
        <ele>176.6</ele>
        <time>2022-08-15T08:52:26Z</time>
      </trkpt>
      <trkpt lat="44.78253" lon="1.0001">
        <ele>176.1</ele>
        <time>2022-08-15T08:52:28Z</time>
      </trkpt>
      <trkpt lat="44.78261" lon="1.00021">
        <ele>175.5</ele>
        <time>2022-08-15T08:52:30Z</time>
      </trkpt>
      <trkpt lat="44.7827" lon="1.00033">
        <ele>175</ele>
        <time>2022-08-15T08:52:32Z</time>
      </trkpt>
      <trkpt lat="44.7828" lon="1.00044">
        <ele>174.5</ele>
        <time>2022-08-15T08:52:34Z</time>
      </trkpt>
      <trkpt lat="44.78291" lon="1.00057">
        <ele>174.1</ele>
        <time>2022-08-15T08:52:36Z</time>
      </trkpt>
      <trkpt lat="44.78303" lon="1.00065">
        <ele>173.5</ele>
        <time>2022-08-15T08:52:38Z</time>
      </trkpt>
      <trkpt lat="44.78316" lon="1.0007">
        <ele>172.6</ele>
        <time>2022-08-15T08:52:40Z</time>
      </trkpt>
      <trkpt lat="44.78329" lon="1.00071">
        <ele>171.5</ele>
        <time>2022-08-15T08:52:42Z</time>
      </trkpt>
      <trkpt lat="44.78342" lon="1.00071">
        <ele>171.5</ele>
        <time>2022-08-15T08:52:44Z</time>
      </trkpt>
      <trkpt lat="44.78354" lon="1.0007">
        <ele>172</ele>
        <time>2022-08-15T08:52:46Z</time>
      </trkpt>
      <trkpt lat="44.78367" lon="1.00068">
        <ele>172.4</ele>
        <time>2022-08-15T08:52:48Z</time>
      </trkpt>
      <trkpt lat="44.78377" lon="1.00065">
        <ele>172.6</ele>
        <time>2022-08-15T08:52:50Z</time>
      </trkpt>
      <trkpt lat="44.78387" lon="1.00062">
        <ele>172.7</ele>
        <time>2022-08-15T08:52:52Z</time>
      </trkpt>
      <trkpt lat="44.78395" lon="1.00058">
        <ele>172.7</ele>
        <time>2022-08-15T08:52:54Z</time>
      </trkpt>
      <trkpt lat="44.78402" lon="1.00055">
        <ele>172.7</ele>
        <time>2022-08-15T08:52:56Z</time>
      </trkpt>
      <trkpt lat="44.78409" lon="1.00052">
        <ele>172.7</ele>
        <time>2022-08-15T08:52:58Z</time>
      </trkpt>
      <trkpt lat="44.78415" lon="1.00047">
        <ele>172.5</ele>
        <time>2022-08-15T08:53:00Z</time>
      </trkpt>
      <trkpt lat="44.7842" lon="1.00043">
        <ele>172.5</ele>
        <time>2022-08-15T08:53:02Z</time>
      </trkpt>
      <trkpt lat="44.78427" lon="1.0004">
        <ele>173</ele>
        <time>2022-08-15T08:53:04Z</time>
      </trkpt>
      <trkpt lat="44.78433" lon="1.00036">
        <ele>173.3</ele>
        <time>2022-08-15T08:53:06Z</time>
      </trkpt>
      <trkpt lat="44.78438" lon="1.00033">
        <ele>173.6</ele>
        <time>2022-08-15T08:53:08Z</time>
      </trkpt>
      <trkpt lat="44.78443" lon="1.0003">
        <ele>173.9</ele>
        <time>2022-08-15T08:53:10Z</time>
      </trkpt>
      <trkpt lat="44.78448" lon="1.00027">
        <ele>174.4</ele>
        <time>2022-08-15T08:53:12Z</time>
      </trkpt>
      <trkpt lat="44.78452" lon="1.00024">
        <ele>174.7</ele>
        <time>2022-08-15T08:53:14Z</time>
      </trkpt>
      <trkpt lat="44.78457" lon="1.00021">
        <ele>175.1</ele>
        <time>2022-08-15T08:53:16Z</time>
      </trkpt>
      <trkpt lat="44.78462" lon="1.00018">
        <ele>175.5</ele>
        <time>2022-08-15T08:53:18Z</time>
      </trkpt>
      <trkpt lat="44.78467" lon="1.00014">
        <ele>176</ele>
        <time>2022-08-15T08:53:20Z</time>
      </trkpt>
      <trkpt lat="44.78471" lon="1.0001">
        <ele>176.3</ele>
        <time>2022-08-15T08:53:22Z</time>
      </trkpt>
      <trkpt lat="44.78476" lon="1.00006">
        <ele>176.8</ele>
        <time>2022-08-15T08:53:24Z</time>
      </trkpt>
      <trkpt lat="44.78479" lon="1.00002">
        <ele>177.1</ele>
        <time>2022-08-15T08:53:26Z</time>
      </trkpt>
      <trkpt lat="44.78484" lon="0.99997">
        <ele>177.5</ele>
        <time>2022-08-15T08:53:28Z</time>
      </trkpt>
      <trkpt lat="44.78488" lon="0.99993">
        <ele>177.9</ele>
        <time>2022-08-15T08:53:30Z</time>
      </trkpt>
      <trkpt lat="44.78492" lon="0.99988">
        <ele>178.3</ele>
        <time>2022-08-15T08:53:32Z</time>
      </trkpt>
      <trkpt lat="44.78495" lon="0.99984">
        <ele>178.7</ele>
        <time>2022-08-15T08:53:34Z</time>
      </trkpt>
      <trkpt lat="44.78498" lon="0.99979">
        <ele>179</ele>
        <time>2022-08-15T08:53:36Z</time>
      </trkpt>
      <trkpt lat="44.78502" lon="0.99973">
        <ele>179.2</ele>
        <time>2022-08-15T08:53:38Z</time>
      </trkpt>
      <trkpt lat="44.78505" lon="0.99967">
        <ele>179.1</ele>
        <time>2022-08-15T08:53:40Z</time>
      </trkpt>
      <trkpt lat="44.78509" lon="0.99961">
        <ele>179.2</ele>
        <time>2022-08-15T08:53:42Z</time>
      </trkpt>
      <trkpt lat="44.78513" lon="0.99955">
        <ele>179.2</ele>
        <time>2022-08-15T08:53:44Z</time>
      </trkpt>
      <trkpt lat="44.78517" lon="0.99948">
        <ele>179.3</ele>
        <time>2022-08-15T08:53:46Z</time>
      </trkpt>
      <trkpt lat="44.78521" lon="0.99942">
        <ele>179.4</ele>
        <time>2022-08-15T08:53:48Z</time>
      </trkpt>
      <trkpt lat="44.78524" lon="0.99936">
        <ele>179.5</ele>
        <time>2022-08-15T08:53:50Z</time>
      </trkpt>
      <trkpt lat="44.78528" lon="0.9993">
        <ele>179.7</ele>
        <time>2022-08-15T08:53:52Z</time>
      </trkpt>
      <trkpt lat="44.78531" lon="0.99924">
        <ele>179.8</ele>
        <time>2022-08-15T08:53:54Z</time>
      </trkpt>
      <trkpt lat="44.78535" lon="0.99918">
        <ele>179.9</ele>
        <time>2022-08-15T08:53:56Z</time>
      </trkpt>
      <trkpt lat="44.78538" lon="0.99913">
        <ele>180.1</ele>
        <time>2022-08-15T08:53:58Z</time>
      </trkpt>
      <trkpt lat="44.78543" lon="0.99908">
        <ele>180.4</ele>
        <time>2022-08-15T08:54:00Z</time>
      </trkpt>
      <trkpt lat="44.78547" lon="0.99902">
        <ele>180.7</ele>
        <time>2022-08-15T08:54:02Z</time>
      </trkpt>
      <trkpt lat="44.78551" lon="0.99897">
        <ele>181</ele>
        <time>2022-08-15T08:54:04Z</time>
      </trkpt>
      <trkpt lat="44.78554" lon="0.99892">
        <ele>181.3</ele>
        <time>2022-08-15T08:54:06Z</time>
      </trkpt>
      <trkpt lat="44.78559" lon="0.99887">
        <ele>181.6</ele>
        <time>2022-08-15T08:54:08Z</time>
      </trkpt>
      <trkpt lat="44.78563" lon="0.99882">
        <ele>182</ele>
        <time>2022-08-15T08:54:10Z</time>
      </trkpt>
      <trkpt lat="44.78567" lon="0.99877">
        <ele>182.4</ele>
        <time>2022-08-15T08:54:12Z</time>
      </trkpt>
      <trkpt lat="44.78572" lon="0.99873">
        <ele>182.8</ele>
        <time>2022-08-15T08:54:14Z</time>
      </trkpt>
      <trkpt lat="44.78577" lon="0.99869">
        <ele>183.3</ele>
        <time>2022-08-15T08:54:16Z</time>
      </trkpt>
      <trkpt lat="44.78581" lon="0.99864">
        <ele>183.8</ele>
        <time>2022-08-15T08:54:18Z</time>
      </trkpt>
      <trkpt lat="44.78586" lon="0.99858">
        <ele>184</ele>
        <time>2022-08-15T08:54:20Z</time>
      </trkpt>
      <trkpt lat="44.78591" lon="0.99854">
        <ele>184</ele>
        <time>2022-08-15T08:54:22Z</time>
      </trkpt>
      <trkpt lat="44.78595" lon="0.99849">
        <ele>184.1</ele>
        <time>2022-08-15T08:54:24Z</time>
      </trkpt>
      <trkpt lat="44.786" lon="0.99844">
        <ele>184.1</ele>
        <time>2022-08-15T08:54:26Z</time>
      </trkpt>
      <trkpt lat="44.78604" lon="0.99838">
        <ele>184.2</ele>
        <time>2022-08-15T08:54:28Z</time>
      </trkpt>
      <trkpt lat="44.78608" lon="0.99834">
        <ele>184.3</ele>
        <time>2022-08-15T08:54:30Z</time>
      </trkpt>
      <trkpt lat="44.78612" lon="0.99829">
        <ele>184.2</ele>
        <time>2022-08-15T08:54:32Z</time>
      </trkpt>
      <trkpt lat="44.78616" lon="0.99825">
        <ele>184.1</ele>
        <time>2022-08-15T08:54:34Z</time>
      </trkpt>
      <trkpt lat="44.7862" lon="0.99819">
        <ele>184</ele>
        <time>2022-08-15T08:54:36Z</time>
      </trkpt>
      <trkpt lat="44.78625" lon="0.99814">
        <ele>183.9</ele>
        <time>2022-08-15T08:54:38Z</time>
      </trkpt>
      <trkpt lat="44.7863" lon="0.99808">
        <ele>183.8</ele>
        <time>2022-08-15T08:54:40Z</time>
      </trkpt>
      <trkpt lat="44.78634" lon="0.99802">
        <ele>183.7</ele>
        <time>2022-08-15T08:54:42Z</time>
      </trkpt>
      <trkpt lat="44.78639" lon="0.99796">
        <ele>183.6</ele>
        <time>2022-08-15T08:54:44Z</time>
      </trkpt>
      <trkpt lat="44.78644" lon="0.9979">
        <ele>183.5</ele>
        <time>2022-08-15T08:54:46Z</time>
      </trkpt>
      <trkpt lat="44.78649" lon="0.99784">
        <ele>183.5</ele>
        <time>2022-08-15T08:54:48Z</time>
      </trkpt>
      <trkpt lat="44.78655" lon="0.99778">
        <ele>183.4</ele>
        <time>2022-08-15T08:54:50Z</time>
      </trkpt>
      <trkpt lat="44.78661" lon="0.99772">
        <ele>183.4</ele>
        <time>2022-08-15T08:54:52Z</time>
      </trkpt>
      <trkpt lat="44.78668" lon="0.99766">
        <ele>183.3</ele>
        <time>2022-08-15T08:54:54Z</time>
      </trkpt>
      <trkpt lat="44.78674" lon="0.9976">
        <ele>182.6</ele>
        <time>2022-08-15T08:54:56Z</time>
      </trkpt>
      <trkpt lat="44.78682" lon="0.99754">
        <ele>181.8</ele>
        <time>2022-08-15T08:54:58Z</time>
      </trkpt>
      <trkpt lat="44.78692" lon="0.99749">
        <ele>180.9</ele>
        <time>2022-08-15T08:55:00Z</time>
      </trkpt>
      <trkpt lat="44.78702" lon="0.99743">
        <ele>179.9</ele>
        <time>2022-08-15T08:55:02Z</time>
      </trkpt>
      <trkpt lat="44.78713" lon="0.99738">
        <ele>178.9</ele>
        <time>2022-08-15T08:55:04Z</time>
      </trkpt>
      <trkpt lat="44.78725" lon="0.99733">
        <ele>177.7</ele>
        <time>2022-08-15T08:55:06Z</time>
      </trkpt>
      <trkpt lat="44.78739" lon="0.99728">
        <ele>176.4</ele>
        <time>2022-08-15T08:55:08Z</time>
      </trkpt>
      <trkpt lat="44.78757" lon="0.99724">
        <ele>174.6</ele>
        <time>2022-08-15T08:55:10Z</time>
      </trkpt>
      <trkpt lat="44.78776" lon="0.99725">
        <ele>172.1</ele>
        <time>2022-08-15T08:55:12Z</time>
      </trkpt>
      <trkpt lat="44.78797" lon="0.99726">
        <ele>169.5</ele>
        <time>2022-08-15T08:55:14Z</time>
      </trkpt>
      <trkpt lat="44.7882" lon="0.99725">
        <ele>166.7</ele>
        <time>2022-08-15T08:55:16Z</time>
      </trkpt>
      <trkpt lat="44.78841" lon="0.99724">
        <ele>165</ele>
        <time>2022-08-15T08:55:18Z</time>
      </trkpt>
      <trkpt lat="44.7886" lon="0.99721">
        <ele>165</ele>
        <time>2022-08-15T08:55:20Z</time>
      </trkpt>
      <trkpt lat="44.78878" lon="0.99716">
        <ele>165</ele>
        <time>2022-08-15T08:55:22Z</time>
      </trkpt>
      <trkpt lat="44.78893" lon="0.99709">
        <ele>165</ele>
        <time>2022-08-15T08:55:24Z</time>
      </trkpt>
      <trkpt lat="44.78907" lon="0.99703">
        <ele>165</ele>
        <time>2022-08-15T08:55:26Z</time>
      </trkpt>
      <trkpt lat="44.7892" lon="0.99693">
        <ele>164.8</ele>
        <time>2022-08-15T08:55:28Z</time>
      </trkpt>
      <trkpt lat="44.78932" lon="0.99683">
        <ele>164.2</ele>
        <time>2022-08-15T08:55:30Z</time>
      </trkpt>
      <trkpt lat="44.78941" lon="0.99672">
        <ele>163.8</ele>
        <time>2022-08-15T08:55:32Z</time>
      </trkpt>
      <trkpt lat="44.7895" lon="0.99659">
        <ele>162.9</ele>
        <time>2022-08-15T08:55:34Z</time>
      </trkpt>
      <trkpt lat="44.78959" lon="0.99651">
        <ele>162</ele>
        <time>2022-08-15T08:55:36Z</time>
      </trkpt>
      <trkpt lat="44.7897" lon="0.99653">
        <ele>161.6</ele>
        <time>2022-08-15T08:55:38Z</time>
      </trkpt>
      <trkpt lat="44.78981" lon="0.99662">
        <ele>161.6</ele>
        <time>2022-08-15T08:55:40Z</time>
      </trkpt>
      <trkpt lat="44.78991" lon="0.99671">
        <ele>161.4</ele>
        <time>2022-08-15T08:55:42Z</time>
      </trkpt>
      <trkpt lat="44.79001" lon="0.99677">
        <ele>160.7</ele>
        <time>2022-08-15T08:55:44Z</time>
      </trkpt>
      <trkpt lat="44.79011" lon="0.99683">
        <ele>159.8</ele>
        <time>2022-08-15T08:55:46Z</time>
      </trkpt>
      <trkpt lat="44.79021" lon="0.99688">
        <ele>158.9</ele>
        <time>2022-08-15T08:55:48Z</time>
      </trkpt>
      <trkpt lat="44.79031" lon="0.99693">
        <ele>158</ele>
        <time>2022-08-15T08:55:50Z</time>
      </trkpt>
      <trkpt lat="44.79041" lon="0.99696">
        <ele>157.1</ele>
        <time>2022-08-15T08:55:52Z</time>
      </trkpt>
      <trkpt lat="44.79049" lon="0.99699">
        <ele>156.4</ele>
        <time>2022-08-15T08:55:54Z</time>
      </trkpt>
      <trkpt lat="44.79057" lon="0.99703">
        <ele>155.7</ele>
        <time>2022-08-15T08:55:56Z</time>
      </trkpt>
      <trkpt lat="44.79065" lon="0.99706">
        <ele>155</ele>
        <time>2022-08-15T08:55:58Z</time>
      </trkpt>
      <trkpt lat="44.79074" lon="0.99707">
        <ele>154.3</ele>
        <time>2022-08-15T08:56:00Z</time>
      </trkpt>
      <trkpt lat="44.79085" lon="0.99703">
        <ele>153.5</ele>
        <time>2022-08-15T08:56:02Z</time>
      </trkpt>
      <trkpt lat="44.79096" lon="0.99698">
        <ele>152.6</ele>
        <time>2022-08-15T08:56:04Z</time>
      </trkpt>
      <trkpt lat="44.79107" lon="0.99692">
        <ele>151.7</ele>
        <time>2022-08-15T08:56:06Z</time>
      </trkpt>
      <trkpt lat="44.79119" lon="0.99687">
        <ele>150.5</ele>
        <time>2022-08-15T08:56:08Z</time>
      </trkpt>
      <trkpt lat="44.79132" lon="0.99686">
        <ele>149.2</ele>
        <time>2022-08-15T08:56:10Z</time>
      </trkpt>
      <trkpt lat="44.79145" lon="0.99686">
        <ele>147.7</ele>
        <time>2022-08-15T08:56:12Z</time>
      </trkpt>
      <trkpt lat="44.7916" lon="0.99688">
        <ele>146.2</ele>
        <time>2022-08-15T08:56:14Z</time>
      </trkpt>
      <trkpt lat="44.79176" lon="0.9969">
        <ele>145.6</ele>
        <time>2022-08-15T08:56:16Z</time>
      </trkpt>
      <trkpt lat="44.79192" lon="0.99691">
        <ele>145.5</ele>
        <time>2022-08-15T08:56:18Z</time>
      </trkpt>
      <trkpt lat="44.79207" lon="0.99687">
        <ele>145.3</ele>
        <time>2022-08-15T08:56:20Z</time>
      </trkpt>
      <trkpt lat="44.79222" lon="0.99678">
        <ele>144.9</ele>
        <time>2022-08-15T08:56:22Z</time>
      </trkpt>
      <trkpt lat="44.79237" lon="0.99669">
        <ele>144.3</ele>
        <time>2022-08-15T08:56:24Z</time>
      </trkpt>
      <trkpt lat="44.79254" lon="0.99661">
        <ele>143.4</ele>
        <time>2022-08-15T08:56:26Z</time>
      </trkpt>
      <trkpt lat="44.79272" lon="0.99654">
        <ele>142.1</ele>
        <time>2022-08-15T08:56:28Z</time>
      </trkpt>
      <trkpt lat="44.79292" lon="0.99648">
        <ele>140.8</ele>
        <time>2022-08-15T08:56:30Z</time>
      </trkpt>
      <trkpt lat="44.79309" lon="0.99643">
        <ele>139.6</ele>
        <time>2022-08-15T08:56:32Z</time>
      </trkpt>
      <trkpt lat="44.79325" lon="0.99637">
        <ele>138.3</ele>
        <time>2022-08-15T08:56:34Z</time>
      </trkpt>
      <trkpt lat="44.79339" lon="0.99631">
        <ele>136.7</ele>
        <time>2022-08-15T08:56:36Z</time>
      </trkpt>
      <trkpt lat="44.79355" lon="0.99624">
        <ele>134.1</ele>
        <time>2022-08-15T08:56:38Z</time>
      </trkpt>
      <trkpt lat="44.7937" lon="0.99612">
        <ele>131.9</ele>
        <time>2022-08-15T08:56:40Z</time>
      </trkpt>
      <trkpt lat="44.79387" lon="0.996">
        <ele>130</ele>
        <time>2022-08-15T08:56:42Z</time>
      </trkpt>
      <trkpt lat="44.79404" lon="0.99587">
        <ele>128.8</ele>
        <time>2022-08-15T08:56:44Z</time>
      </trkpt>
      <trkpt lat="44.79421" lon="0.99573">
        <ele>126.9</ele>
        <time>2022-08-15T08:56:46Z</time>
      </trkpt>
      <trkpt lat="44.79439" lon="0.99558">
        <ele>124.8</ele>
        <time>2022-08-15T08:56:48Z</time>
      </trkpt>
      <trkpt lat="44.79456" lon="0.99544">
        <ele>123.2</ele>
        <time>2022-08-15T08:56:50Z</time>
      </trkpt>
      <trkpt lat="44.79474" lon="0.99533">
        <ele>122.1</ele>
        <time>2022-08-15T08:56:52Z</time>
      </trkpt>
      <trkpt lat="44.79493" lon="0.99528">
        <ele>121.2</ele>
        <time>2022-08-15T08:56:54Z</time>
      </trkpt>
      <trkpt lat="44.79514" lon="0.99525">
        <ele>120.1</ele>
        <time>2022-08-15T08:56:56Z</time>
      </trkpt>
      <trkpt lat="44.79535" lon="0.99524">
        <ele>118.6</ele>
        <time>2022-08-15T08:56:58Z</time>
      </trkpt>
      <trkpt lat="44.79558" lon="0.99527">
        <ele>117.1</ele>
        <time>2022-08-15T08:57:00Z</time>
      </trkpt>
      <trkpt lat="44.79579" lon="0.99533">
        <ele>115.5</ele>
        <time>2022-08-15T08:57:02Z</time>
      </trkpt>
      <trkpt lat="44.79601" lon="0.99541">
        <ele>114.6</ele>
        <time>2022-08-15T08:57:04Z</time>
      </trkpt>
      <trkpt lat="44.79623" lon="0.9955">
        <ele>113.8</ele>
        <time>2022-08-15T08:57:06Z</time>
      </trkpt>
      <trkpt lat="44.79645" lon="0.9956">
        <ele>113.1</ele>
        <time>2022-08-15T08:57:08Z</time>
      </trkpt>
      <trkpt lat="44.79667" lon="0.99574">
        <ele>112.2</ele>
        <time>2022-08-15T08:57:10Z</time>
      </trkpt>
      <trkpt lat="44.79687" lon="0.99586">
        <ele>111.1</ele>
        <time>2022-08-15T08:57:12Z</time>
      </trkpt>
      <trkpt lat="44.79705" lon="0.99596">
        <ele>109.9</ele>
        <time>2022-08-15T08:57:14Z</time>
      </trkpt>
      <trkpt lat="44.79723" lon="0.99599">
        <ele>109</ele>
        <time>2022-08-15T08:57:16Z</time>
      </trkpt>
      <trkpt lat="44.79741" lon="0.99596">
        <ele>108.5</ele>
        <time>2022-08-15T08:57:18Z</time>
      </trkpt>
      <trkpt lat="44.79759" lon="0.99591">
        <ele>107.7</ele>
        <time>2022-08-15T08:57:20Z</time>
      </trkpt>
      <trkpt lat="44.79775" lon="0.99587">
        <ele>106.6</ele>
        <time>2022-08-15T08:57:22Z</time>
      </trkpt>
      <trkpt lat="44.7979" lon="0.99578">
        <ele>105.9</ele>
        <time>2022-08-15T08:57:24Z</time>
      </trkpt>
      <trkpt lat="44.79802" lon="0.99563">
        <ele>105.8</ele>
        <time>2022-08-15T08:57:26Z</time>
      </trkpt>
      <trkpt lat="44.79811" lon="0.9954">
        <ele>106.3</ele>
        <time>2022-08-15T08:57:28Z</time>
      </trkpt>
      <trkpt lat="44.79822" lon="0.99518">
        <ele>106.3</ele>
        <time>2022-08-15T08:57:30Z</time>
      </trkpt>
      <trkpt lat="44.79833" lon="0.99495">
        <ele>105.5</ele>
        <time>2022-08-15T08:57:32Z</time>
      </trkpt>
      <trkpt lat="44.79845" lon="0.99472">
        <ele>103.1</ele>
        <time>2022-08-15T08:57:34Z</time>
      </trkpt>
      <trkpt lat="44.7986" lon="0.9945">
        <ele>100.4</ele>
        <time>2022-08-15T08:57:36Z</time>
      </trkpt>
      <trkpt lat="44.79875" lon="0.99429">
        <ele>97.2</ele>
        <time>2022-08-15T08:57:38Z</time>
      </trkpt>
      <trkpt lat="44.79889" lon="0.99409">
        <ele>93.7</ele>
        <time>2022-08-15T08:57:40Z</time>
      </trkpt>
      <trkpt lat="44.79905" lon="0.99386">
        <ele>90.2</ele>
        <time>2022-08-15T08:57:42Z</time>
      </trkpt>
      <trkpt lat="44.79921" lon="0.99366">
        <ele>87.3</ele>
        <time>2022-08-15T08:57:44Z</time>
      </trkpt>
      <trkpt lat="44.79936" lon="0.99345">
        <ele>84.8</ele>
        <time>2022-08-15T08:57:46Z</time>
      </trkpt>
      <trkpt lat="44.79947" lon="0.99324">
        <ele>84.6</ele>
        <time>2022-08-15T08:57:48Z</time>
      </trkpt>
      <trkpt lat="44.79961" lon="0.9931">
        <ele>86.1</ele>
        <time>2022-08-15T08:57:50Z</time>
      </trkpt>
      <trkpt lat="44.79978" lon="0.99309">
        <ele>86.4</ele>
        <time>2022-08-15T08:57:52Z</time>
      </trkpt>
      <trkpt lat="44.79993" lon="0.99314">
        <ele>85.7</ele>
        <time>2022-08-15T08:57:54Z</time>
      </trkpt>
      <trkpt lat="44.80006" lon="0.9932">
        <ele>85.4</ele>
        <time>2022-08-15T08:57:56Z</time>
      </trkpt>
      <trkpt lat="44.80019" lon="0.99324">
        <ele>85.7</ele>
        <time>2022-08-15T08:57:58Z</time>
      </trkpt>
      <trkpt lat="44.80032" lon="0.99329">
        <ele>85.7</ele>
        <time>2022-08-15T08:58:00Z</time>
      </trkpt>
      <trkpt lat="44.80043" lon="0.99334">
        <ele>85.6</ele>
        <time>2022-08-15T08:58:02Z</time>
      </trkpt>
      <trkpt lat="44.80055" lon="0.99337">
        <ele>86.1</ele>
        <time>2022-08-15T08:58:04Z</time>
      </trkpt>
      <trkpt lat="44.80066" lon="0.99339">
        <ele>86.6</ele>
        <time>2022-08-15T08:58:06Z</time>
      </trkpt>
      <trkpt lat="44.80076" lon="0.99344">
        <ele>86.6</ele>
        <time>2022-08-15T08:58:08Z</time>
      </trkpt>
      <trkpt lat="44.80086" lon="0.99346">
        <ele>86.8</ele>
        <time>2022-08-15T08:58:10Z</time>
      </trkpt>
      <trkpt lat="44.80095" lon="0.99346">
        <ele>86.8</ele>
        <time>2022-08-15T08:58:12Z</time>
      </trkpt>
      <trkpt lat="44.80103" lon="0.99346">
        <ele>86.8</ele>
        <time>2022-08-15T08:58:14Z</time>
      </trkpt>
      <trkpt lat="44.80112" lon="0.99348">
        <ele>86.6</ele>
        <time>2022-08-15T08:58:16Z</time>
      </trkpt>
      <trkpt lat="44.8012" lon="0.99348">
        <ele>86.5</ele>
        <time>2022-08-15T08:58:18Z</time>
      </trkpt>
      <trkpt lat="44.80127" lon="0.99349">
        <ele>86.4</ele>
        <time>2022-08-15T08:58:20Z</time>
      </trkpt>
      <trkpt lat="44.80135" lon="0.9935">
        <ele>86.3</ele>
        <time>2022-08-15T08:58:22Z</time>
      </trkpt>
      <trkpt lat="44.80142" lon="0.9935">
        <ele>86.2</ele>
        <time>2022-08-15T08:58:24Z</time>
      </trkpt>
      <trkpt lat="44.80148" lon="0.99351">
        <ele>86.1</ele>
        <time>2022-08-15T08:58:26Z</time>
      </trkpt>
      <trkpt lat="44.80153" lon="0.99352">
        <ele>86.1</ele>
        <time>2022-08-15T08:58:28Z</time>
      </trkpt>
      <trkpt lat="44.80159" lon="0.99352">
        <ele>86</ele>
        <time>2022-08-15T08:58:30Z</time>
      </trkpt>
      <trkpt lat="44.80163" lon="0.99353">
        <ele>85.8</ele>
        <time>2022-08-15T08:58:32Z</time>
      </trkpt>
      <trkpt lat="44.80168" lon="0.99354">
        <ele>85.9</ele>
        <time>2022-08-15T08:58:34Z</time>
      </trkpt>
      <trkpt lat="44.80173" lon="0.99354">
        <ele>86.2</ele>
        <time>2022-08-15T08:58:36Z</time>
      </trkpt>
      <trkpt lat="44.80177" lon="0.99355">
        <ele>86.4</ele>
        <time>2022-08-15T08:58:38Z</time>
      </trkpt>
      <trkpt lat="44.80182" lon="0.99357">
        <ele>86.5</ele>
        <time>2022-08-15T08:58:40Z</time>
      </trkpt>
      <trkpt lat="44.80187" lon="0.99359">
        <ele>86.6</ele>
        <time>2022-08-15T08:58:42Z</time>
      </trkpt>
      <trkpt lat="44.80191" lon="0.99361">
        <ele>86.8</ele>
        <time>2022-08-15T08:58:44Z</time>
      </trkpt>
      <trkpt lat="44.80195" lon="0.99362">
        <ele>86.9</ele>
        <time>2022-08-15T08:58:46Z</time>
      </trkpt>
      <trkpt lat="44.80199" lon="0.99365">
        <ele>87</ele>
        <time>2022-08-15T08:58:48Z</time>
      </trkpt>
      <trkpt lat="44.80204" lon="0.99367">
        <ele>87.1</ele>
        <time>2022-08-15T08:58:50Z</time>
      </trkpt>
      <trkpt lat="44.80207" lon="0.9937">
        <ele>87.1</ele>
        <time>2022-08-15T08:58:52Z</time>
      </trkpt>
      <trkpt lat="44.80212" lon="0.99372">
        <ele>87.3</ele>
        <time>2022-08-15T08:58:54Z</time>
      </trkpt>
      <trkpt lat="44.80215" lon="0.99375">
        <ele>87.3</ele>
        <time>2022-08-15T08:58:56Z</time>
      </trkpt>
      <trkpt lat="44.80218" lon="0.99376">
        <ele>87.4</ele>
        <time>2022-08-15T08:58:58Z</time>
      </trkpt>
      <trkpt lat="44.80221" lon="0.99378">
        <ele>87.4</ele>
        <time>2022-08-15T08:59:00Z</time>
      </trkpt>
      <trkpt lat="44.80224" lon="0.99381">
        <ele>87.5</ele>
        <time>2022-08-15T08:59:02Z</time>
      </trkpt>
      <trkpt lat="44.80227" lon="0.99383">
        <ele>87.6</ele>
        <time>2022-08-15T08:59:04Z</time>
      </trkpt>
      <trkpt lat="44.8023" lon="0.99385">
        <ele>87.7</ele>
        <time>2022-08-15T08:59:06Z</time>
      </trkpt>
      <trkpt lat="44.80233" lon="0.99387">
        <ele>87.7</ele>
        <time>2022-08-15T08:59:08Z</time>
      </trkpt>
      <trkpt lat="44.80237" lon="0.9939">
        <ele>87.9</ele>
        <time>2022-08-15T08:59:10Z</time>
      </trkpt>
      <trkpt lat="44.8024" lon="0.99392">
        <ele>87.9</ele>
        <time>2022-08-15T08:59:12Z</time>
      </trkpt>
      <trkpt lat="44.80243" lon="0.99394">
        <ele>88</ele>
        <time>2022-08-15T08:59:14Z</time>
      </trkpt>
      <trkpt lat="44.80245" lon="0.99395">
        <ele>88.1</ele>
        <time>2022-08-15T08:59:16Z</time>
      </trkpt>
      <trkpt lat="44.80244" lon="0.99395">
        <ele>88.1</ele>
        <time>2022-08-15T08:59:18Z</time>
      </trkpt>
      <trkpt lat="44.80244" lon="0.99395">
        <ele>88.1</ele>
        <time>2022-08-15T08:59:20Z</time>
      </trkpt>
      <trkpt lat="44.80244" lon="0.99395">
        <ele>88.1</ele>
        <time>2022-08-15T08:59:22Z</time>
      </trkpt>
      <trkpt lat="44.80245" lon="0.99395">
        <ele>88.1</ele>
        <time>2022-08-15T08:59:24Z</time>
      </trkpt>
      <trkpt lat="44.80266" lon="0.99411">
        <ele>87.7</ele>
        <time>2022-08-15T09:00:30Z</time>
      </trkpt>
      <trkpt lat="44.80271" lon="0.99416">
        <ele>87.5</ele>
        <time>2022-08-15T09:00:32Z</time>
      </trkpt>
      <trkpt lat="44.80277" lon="0.9942">
        <ele>87.3</ele>
        <time>2022-08-15T09:00:34Z</time>
      </trkpt>
      <trkpt lat="44.80282" lon="0.99427">
        <ele>86.8</ele>
        <time>2022-08-15T09:00:36Z</time>
      </trkpt>
      <trkpt lat="44.80289" lon="0.99433">
        <ele>86.5</ele>
        <time>2022-08-15T09:00:38Z</time>
      </trkpt>
      <trkpt lat="44.80296" lon="0.9944">
        <ele>86.2</ele>
        <time>2022-08-15T09:00:40Z</time>
      </trkpt>
      <trkpt lat="44.80303" lon="0.99447">
        <ele>86</ele>
        <time>2022-08-15T09:00:42Z</time>
      </trkpt>
      <trkpt lat="44.80311" lon="0.99455">
        <ele>85.9</ele>
        <time>2022-08-15T09:00:44Z</time>
      </trkpt>
      <trkpt lat="44.80319" lon="0.99464">
        <ele>85.8</ele>
        <time>2022-08-15T09:00:46Z</time>
      </trkpt>
      <trkpt lat="44.80326" lon="0.99474">
        <ele>85.7</ele>
        <time>2022-08-15T09:00:48Z</time>
      </trkpt>
      <trkpt lat="44.80333" lon="0.99485">
        <ele>85.7</ele>
        <time>2022-08-15T09:00:50Z</time>
      </trkpt>
      <trkpt lat="44.8034" lon="0.99494">
        <ele>85.5</ele>
        <time>2022-08-15T09:00:52Z</time>
      </trkpt>
      <trkpt lat="44.80347" lon="0.99505">
        <ele>85.2</ele>
        <time>2022-08-15T09:00:54Z</time>
      </trkpt>
      <trkpt lat="44.80354" lon="0.99515">
        <ele>85</ele>
        <time>2022-08-15T09:00:56Z</time>
      </trkpt>
      <trkpt lat="44.80361" lon="0.99525">
        <ele>84.8</ele>
        <time>2022-08-15T09:00:58Z</time>
      </trkpt>
      <trkpt lat="44.80367" lon="0.99538">
        <ele>84.5</ele>
        <time>2022-08-15T09:01:00Z</time>
      </trkpt>
      <trkpt lat="44.80374" lon="0.99549">
        <ele>84.4</ele>
        <time>2022-08-15T09:01:02Z</time>
      </trkpt>
      <trkpt lat="44.80382" lon="0.9956">
        <ele>84.4</ele>
        <time>2022-08-15T09:01:04Z</time>
      </trkpt>
      <trkpt lat="44.80388" lon="0.99573">
        <ele>84.3</ele>
        <time>2022-08-15T09:01:06Z</time>
      </trkpt>
      <trkpt lat="44.80393" lon="0.99587">
        <ele>84.2</ele>
        <time>2022-08-15T09:01:08Z</time>
      </trkpt>
      <trkpt lat="44.80396" lon="0.99601">
        <ele>84.4</ele>
        <time>2022-08-15T09:01:10Z</time>
      </trkpt>
      <trkpt lat="44.80398" lon="0.99617">
        <ele>84.4</ele>
        <time>2022-08-15T09:01:12Z</time>
      </trkpt>
      <trkpt lat="44.80399" lon="0.99633">
        <ele>84.4</ele>
        <time>2022-08-15T09:01:14Z</time>
      </trkpt>
      <trkpt lat="44.804" lon="0.99648">
        <ele>84.3</ele>
        <time>2022-08-15T09:01:16Z</time>
      </trkpt>
      <trkpt lat="44.80401" lon="0.99664">
        <ele>84.4</ele>
        <time>2022-08-15T09:01:18Z</time>
      </trkpt>
      <trkpt lat="44.80406" lon="0.99679">
        <ele>84.3</ele>
        <time>2022-08-15T09:01:20Z</time>
      </trkpt>
      <trkpt lat="44.80413" lon="0.99692">
        <ele>84.2</ele>
        <time>2022-08-15T09:01:22Z</time>
      </trkpt>
      <trkpt lat="44.80424" lon="0.99704">
        <ele>83.3</ele>
        <time>2022-08-15T09:01:24Z</time>
      </trkpt>
      <trkpt lat="44.80437" lon="0.99718">
        <ele>81.9</ele>
        <time>2022-08-15T09:01:26Z</time>
      </trkpt>
      <trkpt lat="44.8045" lon="0.99732">
        <ele>80.6</ele>
        <time>2022-08-15T09:01:28Z</time>
      </trkpt>
      <trkpt lat="44.80463" lon="0.99751">
        <ele>79.3</ele>
        <time>2022-08-15T09:01:30Z</time>
      </trkpt>
      <trkpt lat="44.80475" lon="0.99773">
        <ele>78.7</ele>
        <time>2022-08-15T09:01:32Z</time>
      </trkpt>
      <trkpt lat="44.80485" lon="0.99798">
        <ele>78.3</ele>
        <time>2022-08-15T09:01:34Z</time>
      </trkpt>
      <trkpt lat="44.80496" lon="0.99817">
        <ele>78.1</ele>
        <time>2022-08-15T09:01:36Z</time>
      </trkpt>
      <trkpt lat="44.80511" lon="0.99828">
        <ele>78.4</ele>
        <time>2022-08-15T09:01:38Z</time>
      </trkpt>
      <trkpt lat="44.80524" lon="0.99837">
        <ele>78.7</ele>
        <time>2022-08-15T09:01:40Z</time>
      </trkpt>
      <trkpt lat="44.80534" lon="0.99847">
        <ele>78.5</ele>
        <time>2022-08-15T09:01:42Z</time>
      </trkpt>
      <trkpt lat="44.80541" lon="0.99859">
        <ele>78.1</ele>
        <time>2022-08-15T09:01:44Z</time>
      </trkpt>
      <trkpt lat="44.80546" lon="0.99868">
        <ele>77.8</ele>
        <time>2022-08-15T09:01:46Z</time>
      </trkpt>
      <trkpt lat="44.80551" lon="0.99876">
        <ele>77.5</ele>
        <time>2022-08-15T09:01:48Z</time>
      </trkpt>
      <trkpt lat="44.80555" lon="0.99884">
        <ele>77.1</ele>
        <time>2022-08-15T09:01:50Z</time>
      </trkpt>
      <trkpt lat="44.8056" lon="0.9989">
        <ele>77</ele>
        <time>2022-08-15T09:01:52Z</time>
      </trkpt>
      <trkpt lat="44.80566" lon="0.99895">
        <ele>76.8</ele>
        <time>2022-08-15T09:01:54Z</time>
      </trkpt>
      <trkpt lat="44.80571" lon="0.99899">
        <ele>76.7</ele>
        <time>2022-08-15T09:01:56Z</time>
      </trkpt>
      <trkpt lat="44.80576" lon="0.99902">
        <ele>76.7</ele>
        <time>2022-08-15T09:01:58Z</time>
      </trkpt>
      <trkpt lat="44.80581" lon="0.99906">
        <ele>76.6</ele>
        <time>2022-08-15T09:02:00Z</time>
      </trkpt>
      <trkpt lat="44.80586" lon="0.99911">
        <ele>76.4</ele>
        <time>2022-08-15T09:02:02Z</time>
      </trkpt>
      <trkpt lat="44.8059" lon="0.99916">
        <ele>76.3</ele>
        <time>2022-08-15T09:02:04Z</time>
      </trkpt>
      <trkpt lat="44.80594" lon="0.99921">
        <ele>76.2</ele>
        <time>2022-08-15T09:02:06Z</time>
      </trkpt>
      <trkpt lat="44.80597" lon="0.99929">
        <ele>75.9</ele>
        <time>2022-08-15T09:02:08Z</time>
      </trkpt>
      <trkpt lat="44.80599" lon="0.99935">
        <ele>75.6</ele>
        <time>2022-08-15T09:02:10Z</time>
      </trkpt>
      <trkpt lat="44.806" lon="0.99942">
        <ele>75.3</ele>
        <time>2022-08-15T09:02:12Z</time>
      </trkpt>
      <trkpt lat="44.80601" lon="0.99948">
        <ele>75.1</ele>
        <time>2022-08-15T09:02:14Z</time>
      </trkpt>
      <trkpt lat="44.80602" lon="0.99955">
        <ele>74.7</ele>
        <time>2022-08-15T09:02:16Z</time>
      </trkpt>
      <trkpt lat="44.80605" lon="0.99963">
        <ele>74.4</ele>
        <time>2022-08-15T09:02:18Z</time>
      </trkpt>
      <trkpt lat="44.8061" lon="0.99971">
        <ele>74.2</ele>
        <time>2022-08-15T09:02:20Z</time>
      </trkpt>
      <trkpt lat="44.80617" lon="0.99976">
        <ele>74.1</ele>
        <time>2022-08-15T09:02:22Z</time>
      </trkpt>
      <trkpt lat="44.80627" lon="0.99979">
        <ele>74.2</ele>
        <time>2022-08-15T09:02:24Z</time>
      </trkpt>
      <trkpt lat="44.80636" lon="0.99982">
        <ele>74.3</ele>
        <time>2022-08-15T09:02:26Z</time>
      </trkpt>
      <trkpt lat="44.80643" lon="0.99984">
        <ele>74.3</ele>
        <time>2022-08-15T09:02:28Z</time>
      </trkpt>
      <trkpt lat="44.80651" lon="0.99987">
        <ele>74.4</ele>
        <time>2022-08-15T09:02:30Z</time>
      </trkpt>
      <trkpt lat="44.80658" lon="0.9999">
        <ele>74.4</ele>
        <time>2022-08-15T09:02:32Z</time>
      </trkpt>
      <trkpt lat="44.80666" lon="0.99992">
        <ele>74.5</ele>
        <time>2022-08-15T09:02:34Z</time>
      </trkpt>
      <trkpt lat="44.80674" lon="0.99994">
        <ele>74.7</ele>
        <time>2022-08-15T09:02:36Z</time>
      </trkpt>
      <trkpt lat="44.80682" lon="0.99997">
        <ele>74.9</ele>
        <time>2022-08-15T09:02:38Z</time>
      </trkpt>
      <trkpt lat="44.80691" lon="1">
        <ele>75.2</ele>
        <time>2022-08-15T09:02:40Z</time>
      </trkpt>
      <trkpt lat="44.80698" lon="1.00004">
        <ele>75.2</ele>
        <time>2022-08-15T09:02:42Z</time>
      </trkpt>
      <trkpt lat="44.80704" lon="1.00008">
        <ele>75.2</ele>
        <time>2022-08-15T09:02:44Z</time>
      </trkpt>
      <trkpt lat="44.8071" lon="1.00015">
        <ele>75</ele>
        <time>2022-08-15T09:02:46Z</time>
      </trkpt>
      <trkpt lat="44.80714" lon="1.00024">
        <ele>74.5</ele>
        <time>2022-08-15T09:02:48Z</time>
      </trkpt>
      <trkpt lat="44.80717" lon="1.00034">
        <ele>73.9</ele>
        <time>2022-08-15T09:02:50Z</time>
      </trkpt>
      <trkpt lat="44.8072" lon="1.00043">
        <ele>73.3</ele>
        <time>2022-08-15T09:02:52Z</time>
      </trkpt>
      <trkpt lat="44.80723" lon="1.00051">
        <ele>72.8</ele>
        <time>2022-08-15T09:02:54Z</time>
      </trkpt>
      <trkpt lat="44.80723" lon="1.00059">
        <ele>72.2</ele>
        <time>2022-08-15T09:02:56Z</time>
      </trkpt>
      <trkpt lat="44.80724" lon="1.00063">
        <ele>71.9</ele>
        <time>2022-08-15T09:02:58Z</time>
      </trkpt>
      <trkpt lat="44.80724" lon="1.00066">
        <ele>71.7</ele>
        <time>2022-08-15T09:03:00Z</time>
      </trkpt>
      <trkpt lat="44.80724" lon="1.00069">
        <ele>71.5</ele>
        <time>2022-08-15T09:03:02Z</time>
      </trkpt>
      <trkpt lat="44.80726" lon="1.00075">
        <ele>71.1</ele>
        <time>2022-08-15T09:03:04Z</time>
      </trkpt>
      <trkpt lat="44.80728" lon="1.00081">
        <ele>70.6</ele>
        <time>2022-08-15T09:03:06Z</time>
      </trkpt>
      <trkpt lat="44.80732" lon="1.00091">
        <ele>70.2</ele>
        <time>2022-08-15T09:03:08Z</time>
      </trkpt>
      <trkpt lat="44.80735" lon="1.00105">
        <ele>69.5</ele>
        <time>2022-08-15T09:03:10Z</time>
      </trkpt>
      <trkpt lat="44.80738" lon="1.00121">
        <ele>68.6</ele>
        <time>2022-08-15T09:03:12Z</time>
      </trkpt>
      <trkpt lat="44.80742" lon="1.00139">
        <ele>67.6</ele>
        <time>2022-08-15T09:03:14Z</time>
      </trkpt>
      <trkpt lat="44.80746" lon="1.00157">
        <ele>66.6</ele>
        <time>2022-08-15T09:03:16Z</time>
      </trkpt>
      <trkpt lat="44.8075" lon="1.00174">
        <ele>66</ele>
        <time>2022-08-15T09:03:18Z</time>
      </trkpt>
      <trkpt lat="44.80754" lon="1.0019">
        <ele>66</ele>
        <time>2022-08-15T09:03:20Z</time>
      </trkpt>
      <trkpt lat="44.8076" lon="1.00205">
        <ele>66</ele>
        <time>2022-08-15T09:03:22Z</time>
      </trkpt>
      <trkpt lat="44.80765" lon="1.0022">
        <ele>66</ele>
        <time>2022-08-15T09:03:24Z</time>
      </trkpt>
      <trkpt lat="44.8077" lon="1.00236">
        <ele>66</ele>
        <time>2022-08-15T09:03:26Z</time>
      </trkpt>
      <trkpt lat="44.80776" lon="1.0025">
        <ele>66</ele>
        <time>2022-08-15T09:03:28Z</time>
      </trkpt>
      <trkpt lat="44.80782" lon="1.00265">
        <ele>66</ele>
        <time>2022-08-15T09:03:30Z</time>
      </trkpt>
      <trkpt lat="44.80786" lon="1.0028">
        <ele>66</ele>
        <time>2022-08-15T09:03:32Z</time>
      </trkpt>
      <trkpt lat="44.80792" lon="1.00293">
        <ele>66</ele>
        <time>2022-08-15T09:03:34Z</time>
      </trkpt>
      <trkpt lat="44.80793" lon="1.00306">
        <ele>66</ele>
        <time>2022-08-15T09:03:36Z</time>
      </trkpt>
      <trkpt lat="44.80794" lon="1.0032">
        <ele>66</ele>
        <time>2022-08-15T09:03:38Z</time>
      </trkpt>
      <trkpt lat="44.80796" lon="1.00336">
        <ele>66.2</ele>
        <time>2022-08-15T09:03:40Z</time>
      </trkpt>
      <trkpt lat="44.80797" lon="1.0035">
        <ele>67</ele>
        <time>2022-08-15T09:03:42Z</time>
      </trkpt>
      <trkpt lat="44.80798" lon="1.00365">
        <ele>67.9</ele>
        <time>2022-08-15T09:03:44Z</time>
      </trkpt>
      <trkpt lat="44.80798" lon="1.00378">
        <ele>68.8</ele>
        <time>2022-08-15T09:03:46Z</time>
      </trkpt>
      <trkpt lat="44.80799" lon="1.0039">
        <ele>69.5</ele>
        <time>2022-08-15T09:03:48Z</time>
      </trkpt>
      <trkpt lat="44.808" lon="1.00398">
        <ele>70</ele>
        <time>2022-08-15T09:03:50Z</time>
      </trkpt>
      <trkpt lat="44.80801" lon="1.00401">
        <ele>70.3</ele>
        <time>2022-08-15T09:03:52Z</time>
      </trkpt>
      <trkpt lat="44.80805" lon="1.00403">
        <ele>70.5</ele>
        <time>2022-08-15T09:03:54Z</time>
      </trkpt>
      <trkpt lat="44.8081" lon="1.00406">
        <ele>70.8</ele>
        <time>2022-08-15T09:03:56Z</time>
      </trkpt>
      <trkpt lat="44.80817" lon="1.00404">
        <ele>70.7</ele>
        <time>2022-08-15T09:03:58Z</time>
      </trkpt>
      <trkpt lat="44.80823" lon="1.004">
        <ele>70.6</ele>
        <time>2022-08-15T09:04:00Z</time>
      </trkpt>
      <trkpt lat="44.8083" lon="1.00396">
        <ele>70.5</ele>
        <time>2022-08-15T09:04:02Z</time>
      </trkpt>
      <trkpt lat="44.80838" lon="1.00393">
        <ele>70.8</ele>
        <time>2022-08-15T09:04:04Z</time>
      </trkpt>
      <trkpt lat="44.80846" lon="1.00389">
        <ele>71.5</ele>
        <time>2022-08-15T09:04:06Z</time>
      </trkpt>
      <trkpt lat="44.80853" lon="1.00385">
        <ele>72</ele>
        <time>2022-08-15T09:04:08Z</time>
      </trkpt>
      <trkpt lat="44.80861" lon="1.00383">
        <ele>72.6</ele>
        <time>2022-08-15T09:04:10Z</time>
      </trkpt>
      <trkpt lat="44.80869" lon="1.00379">
        <ele>73</ele>
        <time>2022-08-15T09:04:12Z</time>
      </trkpt>
      <trkpt lat="44.80877" lon="1.00376">
        <ele>73.6</ele>
        <time>2022-08-15T09:04:14Z</time>
      </trkpt>
      <trkpt lat="44.80885" lon="1.00373">
        <ele>73.9</ele>
        <time>2022-08-15T09:04:16Z</time>
      </trkpt>
      <trkpt lat="44.80892" lon="1.0037">
        <ele>74.3</ele>
        <time>2022-08-15T09:04:18Z</time>
      </trkpt>
      <trkpt lat="44.80901" lon="1.00367">
        <ele>74.6</ele>
        <time>2022-08-15T09:04:20Z</time>
      </trkpt>
      <trkpt lat="44.80909" lon="1.00364">
        <ele>74.8</ele>
        <time>2022-08-15T09:04:22Z</time>
      </trkpt>
      <trkpt lat="44.80918" lon="1.0036">
        <ele>74.8</ele>
        <time>2022-08-15T09:04:24Z</time>
      </trkpt>
      <trkpt lat="44.80927" lon="1.00357">
        <ele>74.6</ele>
        <time>2022-08-15T09:04:26Z</time>
      </trkpt>
      <trkpt lat="44.80936" lon="1.00354">
        <ele>74.5</ele>
        <time>2022-08-15T09:04:28Z</time>
      </trkpt>
      <trkpt lat="44.80945" lon="1.00351">
        <ele>74.3</ele>
        <time>2022-08-15T09:04:30Z</time>
      </trkpt>
      <trkpt lat="44.80953" lon="1.00348">
        <ele>74</ele>
        <time>2022-08-15T09:04:32Z</time>
      </trkpt>
      <trkpt lat="44.80963" lon="1.00345">
        <ele>73.8</ele>
        <time>2022-08-15T09:04:34Z</time>
      </trkpt>
      <trkpt lat="44.80972" lon="1.00342">
        <ele>73.2</ele>
        <time>2022-08-15T09:04:36Z</time>
      </trkpt>
      <trkpt lat="44.80981" lon="1.00339">
        <ele>72.9</ele>
        <time>2022-08-15T09:04:38Z</time>
      </trkpt>
      <trkpt lat="44.8099" lon="1.00336">
        <ele>72.5</ele>
        <time>2022-08-15T09:04:40Z</time>
      </trkpt>
      <trkpt lat="44.81" lon="1.00333">
        <ele>72</ele>
        <time>2022-08-15T09:04:42Z</time>
      </trkpt>
      <trkpt lat="44.81009" lon="1.0033">
        <ele>72.2</ele>
        <time>2022-08-15T09:04:44Z</time>
      </trkpt>
      <trkpt lat="44.81018" lon="1.00327">
        <ele>72.4</ele>
        <time>2022-08-15T09:04:46Z</time>
      </trkpt>
      <trkpt lat="44.81028" lon="1.00324">
        <ele>72.6</ele>
        <time>2022-08-15T09:04:48Z</time>
      </trkpt>
      <trkpt lat="44.81036" lon="1.00321">
        <ele>72.7</ele>
        <time>2022-08-15T09:04:50Z</time>
      </trkpt>
      <trkpt lat="44.81045" lon="1.00318">
        <ele>72.8</ele>
        <time>2022-08-15T09:04:52Z</time>
      </trkpt>
      <trkpt lat="44.81054" lon="1.00315">
        <ele>72.8</ele>
        <time>2022-08-15T09:04:54Z</time>
      </trkpt>
      <trkpt lat="44.81063" lon="1.00314">
        <ele>73</ele>
        <time>2022-08-15T09:04:56Z</time>
      </trkpt>
      <trkpt lat="44.81073" lon="1.00313">
        <ele>73.2</ele>
        <time>2022-08-15T09:04:58Z</time>
      </trkpt>
      <trkpt lat="44.81082" lon="1.00311">
        <ele>73.3</ele>
        <time>2022-08-15T09:05:00Z</time>
      </trkpt>
      <trkpt lat="44.81092" lon="1.00309">
        <ele>73.4</ele>
        <time>2022-08-15T09:05:02Z</time>
      </trkpt>
      <trkpt lat="44.81101" lon="1.00307">
        <ele>73.4</ele>
        <time>2022-08-15T09:05:04Z</time>
      </trkpt>
      <trkpt lat="44.8111" lon="1.00306">
        <ele>73.6</ele>
        <time>2022-08-15T09:05:06Z</time>
      </trkpt>
      <trkpt lat="44.81118" lon="1.00306">
        <ele>73.8</ele>
        <time>2022-08-15T09:05:08Z</time>
      </trkpt>
      <trkpt lat="44.81125" lon="1.00307">
        <ele>74.2</ele>
        <time>2022-08-15T09:05:10Z</time>
      </trkpt>
      <trkpt lat="44.81133" lon="1.00311">
        <ele>74.8</ele>
        <time>2022-08-15T09:05:12Z</time>
      </trkpt>
      <trkpt lat="44.81141" lon="1.00311">
        <ele>75.1</ele>
        <time>2022-08-15T09:05:14Z</time>
      </trkpt>
      <trkpt lat="44.81148" lon="1.00309">
        <ele>75.1</ele>
        <time>2022-08-15T09:05:16Z</time>
      </trkpt>
      <trkpt lat="44.81156" lon="1.00304">
        <ele>74.8</ele>
        <time>2022-08-15T09:05:18Z</time>
      </trkpt>
      <trkpt lat="44.81164" lon="1.00299">
        <ele>74.6</ele>
        <time>2022-08-15T09:05:20Z</time>
      </trkpt>
      <trkpt lat="44.81172" lon="1.00295">
        <ele>73.9</ele>
        <time>2022-08-15T09:05:22Z</time>
      </trkpt>
      <trkpt lat="44.81181" lon="1.0029">
        <ele>73</ele>
        <time>2022-08-15T09:05:24Z</time>
      </trkpt>
      <trkpt lat="44.8119" lon="1.00284">
        <ele>72</ele>
        <time>2022-08-15T09:05:26Z</time>
      </trkpt>
      <trkpt lat="44.81199" lon="1.00281">
        <ele>71.3</ele>
        <time>2022-08-15T09:05:28Z</time>
      </trkpt>
      <trkpt lat="44.81206" lon="1.00276">
        <ele>70.7</ele>
        <time>2022-08-15T09:05:30Z</time>
      </trkpt>
      <trkpt lat="44.81213" lon="1.00272">
        <ele>70.1</ele>
        <time>2022-08-15T09:05:32Z</time>
      </trkpt>
      <trkpt lat="44.81221" lon="1.00269">
        <ele>69.6</ele>
        <time>2022-08-15T09:05:34Z</time>
      </trkpt>
      <trkpt lat="44.81233" lon="1.0027">
        <ele>69.2</ele>
        <time>2022-08-15T09:05:36Z</time>
      </trkpt>
      <trkpt lat="44.81245" lon="1.00271">
        <ele>68.7</ele>
        <time>2022-08-15T09:05:38Z</time>
      </trkpt>
      <trkpt lat="44.81257" lon="1.00272">
        <ele>68.4</ele>
        <time>2022-08-15T09:05:40Z</time>
      </trkpt>
      <trkpt lat="44.81267" lon="1.00274">
        <ele>68.2</ele>
        <time>2022-08-15T09:05:42Z</time>
      </trkpt>
      <trkpt lat="44.81276" lon="1.00272">
        <ele>68</ele>
        <time>2022-08-15T09:05:44Z</time>
      </trkpt>
      <trkpt lat="44.81286" lon="1.00265">
        <ele>67.7</ele>
        <time>2022-08-15T09:05:46Z</time>
      </trkpt>
      <trkpt lat="44.81295" lon="1.00258">
        <ele>67.5</ele>
        <time>2022-08-15T09:05:48Z</time>
      </trkpt>
      <trkpt lat="44.81303" lon="1.00249">
        <ele>67.4</ele>
        <time>2022-08-15T09:05:50Z</time>
      </trkpt>
      <trkpt lat="44.81311" lon="1.00242">
        <ele>67.2</ele>
        <time>2022-08-15T09:05:52Z</time>
      </trkpt>
      <trkpt lat="44.8132" lon="1.00234">
        <ele>67.1</ele>
        <time>2022-08-15T09:05:54Z</time>
      </trkpt>
      <trkpt lat="44.81328" lon="1.0023">
        <ele>67.1</ele>
        <time>2022-08-15T09:05:56Z</time>
      </trkpt>
      <trkpt lat="44.81334" lon="1.00221">
        <ele>67</ele>
        <time>2022-08-15T09:05:58Z</time>
      </trkpt>
      <trkpt lat="44.81342" lon="1.00215">
        <ele>66.9</ele>
        <time>2022-08-15T09:06:00Z</time>
      </trkpt>
      <trkpt lat="44.8135" lon="1.00211">
        <ele>66.8</ele>
        <time>2022-08-15T09:06:02Z</time>
      </trkpt>
      <trkpt lat="44.81357" lon="1.00204">
        <ele>66.7</ele>
        <time>2022-08-15T09:06:04Z</time>
      </trkpt>
      <trkpt lat="44.81365" lon="1.00199">
        <ele>66.5</ele>
        <time>2022-08-15T09:06:06Z</time>
      </trkpt>
      <trkpt lat="44.81373" lon="1.00195">
        <ele>66.4</ele>
        <time>2022-08-15T09:06:08Z</time>
      </trkpt>
      <trkpt lat="44.81378" lon="1.00192">
        <ele>66.3</ele>
        <time>2022-08-15T09:06:10Z</time>
      </trkpt>
      <trkpt lat="44.81387" lon="1.00189">
        <ele>66.1</ele>
        <time>2022-08-15T09:06:12Z</time>
      </trkpt>
      <trkpt lat="44.81394" lon="1.00187">
        <ele>65.9</ele>
        <time>2022-08-15T09:06:14Z</time>
      </trkpt>
      <trkpt lat="44.81401" lon="1.00185">
        <ele>65.7</ele>
        <time>2022-08-15T09:06:16Z</time>
      </trkpt>
      <trkpt lat="44.81408" lon="1.00184">
        <ele>65.6</ele>
        <time>2022-08-15T09:06:18Z</time>
      </trkpt>
      <trkpt lat="44.81414" lon="1.00182">
        <ele>65.4</ele>
        <time>2022-08-15T09:06:20Z</time>
      </trkpt>
      <trkpt lat="44.8142" lon="1.00179">
        <ele>65.6</ele>
        <time>2022-08-15T09:06:22Z</time>
      </trkpt>
      <trkpt lat="44.81426" lon="1.00177">
        <ele>65.9</ele>
        <time>2022-08-15T09:06:24Z</time>
      </trkpt>
      <trkpt lat="44.81432" lon="1.00175">
        <ele>66.4</ele>
        <time>2022-08-15T09:06:26Z</time>
      </trkpt>
      <trkpt lat="44.81437" lon="1.00173">
        <ele>66.6</ele>
        <time>2022-08-15T09:06:28Z</time>
      </trkpt>
      <trkpt lat="44.81442" lon="1.0017">
        <ele>67</ele>
        <time>2022-08-15T09:06:30Z</time>
      </trkpt>
      <trkpt lat="44.81447" lon="1.00168">
        <ele>67.2</ele>
        <time>2022-08-15T09:06:32Z</time>
      </trkpt>
      <trkpt lat="44.81452" lon="1.00166">
        <ele>67.5</ele>
        <time>2022-08-15T09:06:34Z</time>
      </trkpt>
      <trkpt lat="44.81456" lon="1.00163">
        <ele>67.7</ele>
        <time>2022-08-15T09:06:36Z</time>
      </trkpt>
      <trkpt lat="44.8146" lon="1.00161">
        <ele>68</ele>
        <time>2022-08-15T09:06:38Z</time>
      </trkpt>
      <trkpt lat="44.81464" lon="1.00159">
        <ele>68.3</ele>
        <time>2022-08-15T09:06:40Z</time>
      </trkpt>
      <trkpt lat="44.81468" lon="1.00158">
        <ele>68.6</ele>
        <time>2022-08-15T09:06:42Z</time>
      </trkpt>
      <trkpt lat="44.81472" lon="1.00157">
        <ele>68.8</ele>
        <time>2022-08-15T09:06:44Z</time>
      </trkpt>
      <trkpt lat="44.81475" lon="1.00156">
        <ele>69</ele>
        <time>2022-08-15T09:06:46Z</time>
      </trkpt>
      <trkpt lat="44.81476" lon="1.00155">
        <ele>69.1</ele>
        <time>2022-08-15T09:06:48Z</time>
      </trkpt>
      <trkpt lat="44.81477" lon="1.00155">
        <ele>69.2</ele>
        <time>2022-08-15T09:06:50Z</time>
      </trkpt>
      <trkpt lat="44.81477" lon="1.00155">
        <ele>69.2</ele>
        <time>2022-08-15T09:06:52Z</time>
      </trkpt>
      <trkpt lat="44.81478" lon="1.00156">
        <ele>69.2</ele>
        <time>2022-08-15T09:06:54Z</time>
      </trkpt>
      <trkpt lat="44.81489" lon="1.00135">
        <ele>69.8</ele>
        <time>2022-08-15T09:07:12Z</time>
      </trkpt>
      <trkpt lat="44.81491" lon="1.00126">
        <ele>69.8</ele>
        <time>2022-08-15T09:07:14Z</time>
      </trkpt>
      <trkpt lat="44.81493" lon="1.00116">
        <ele>69.8</ele>
        <time>2022-08-15T09:07:16Z</time>
      </trkpt>
      <trkpt lat="44.81495" lon="1.00105">
        <ele>69.8</ele>
        <time>2022-08-15T09:07:18Z</time>
      </trkpt>
      <trkpt lat="44.81497" lon="1.00095">
        <ele>69.9</ele>
        <time>2022-08-15T09:07:20Z</time>
      </trkpt>
      <trkpt lat="44.81499" lon="1.00084">
        <ele>70</ele>
        <time>2022-08-15T09:07:22Z</time>
      </trkpt>
      <trkpt lat="44.81502" lon="1.00072">
        <ele>69.7</ele>
        <time>2022-08-15T09:07:24Z</time>
      </trkpt>
      <trkpt lat="44.81504" lon="1.00059">
        <ele>69.5</ele>
        <time>2022-08-15T09:07:26Z</time>
      </trkpt>
      <trkpt lat="44.81507" lon="1.00046">
        <ele>69.2</ele>
        <time>2022-08-15T09:07:28Z</time>
      </trkpt>
      <trkpt lat="44.81511" lon="1.00032">
        <ele>68.9</ele>
        <time>2022-08-15T09:07:30Z</time>
      </trkpt>
      <trkpt lat="44.81515" lon="1.00018">
        <ele>68.6</ele>
        <time>2022-08-15T09:07:32Z</time>
      </trkpt>
      <trkpt lat="44.81519" lon="1.00002">
        <ele>68</ele>
        <time>2022-08-15T09:07:34Z</time>
      </trkpt>
      <trkpt lat="44.81522" lon="0.99987">
        <ele>67.7</ele>
        <time>2022-08-15T09:07:36Z</time>
      </trkpt>
      <trkpt lat="44.81526" lon="0.99972">
        <ele>67.5</ele>
        <time>2022-08-15T09:07:38Z</time>
      </trkpt>
      <trkpt lat="44.81531" lon="0.99958">
        <ele>67.3</ele>
        <time>2022-08-15T09:07:40Z</time>
      </trkpt>
      <trkpt lat="44.81536" lon="0.99944">
        <ele>67.1</ele>
        <time>2022-08-15T09:07:42Z</time>
      </trkpt>
      <trkpt lat="44.81543" lon="0.99931">
        <ele>67</ele>
        <time>2022-08-15T09:07:44Z</time>
      </trkpt>
      <trkpt lat="44.8155" lon="0.99918">
        <ele>66.9</ele>
        <time>2022-08-15T09:07:46Z</time>
      </trkpt>
      <trkpt lat="44.81558" lon="0.99906">
        <ele>66.8</ele>
        <time>2022-08-15T09:07:48Z</time>
      </trkpt>
      <trkpt lat="44.81566" lon="0.99894">
        <ele>66.7</ele>
        <time>2022-08-15T09:07:50Z</time>
      </trkpt>
      <trkpt lat="44.81574" lon="0.99881">
        <ele>66.5</ele>
        <time>2022-08-15T09:07:52Z</time>
      </trkpt>
      <trkpt lat="44.81582" lon="0.99869">
        <ele>66.3</ele>
        <time>2022-08-15T09:07:54Z</time>
      </trkpt>
      <trkpt lat="44.81591" lon="0.99857">
        <ele>66</ele>
        <time>2022-08-15T09:07:56Z</time>
      </trkpt>
      <trkpt lat="44.816" lon="0.99846">
        <ele>65.8</ele>
        <time>2022-08-15T09:07:58Z</time>
      </trkpt>
      <trkpt lat="44.81611" lon="0.99837">
        <ele>65.5</ele>
        <time>2022-08-15T09:08:00Z</time>
      </trkpt>
      <trkpt lat="44.81623" lon="0.9983">
        <ele>65.4</ele>
        <time>2022-08-15T09:08:02Z</time>
      </trkpt>
      <trkpt lat="44.81636" lon="0.99827">
        <ele>65.4</ele>
        <time>2022-08-15T09:08:04Z</time>
      </trkpt>
      <trkpt lat="44.81649" lon="0.99825">
        <ele>65.4</ele>
        <time>2022-08-15T09:08:06Z</time>
      </trkpt>
      <trkpt lat="44.81661" lon="0.99824">
        <ele>65.5</ele>
        <time>2022-08-15T09:08:08Z</time>
      </trkpt>
      <trkpt lat="44.81674" lon="0.99822">
        <ele>65.5</ele>
        <time>2022-08-15T09:08:10Z</time>
      </trkpt>
      <trkpt lat="44.81686" lon="0.99821">
        <ele>65.4</ele>
        <time>2022-08-15T09:08:12Z</time>
      </trkpt>
      <trkpt lat="44.817" lon="0.9982">
        <ele>65.3</ele>
        <time>2022-08-15T09:08:14Z</time>
      </trkpt>
      <trkpt lat="44.81713" lon="0.99818">
        <ele>65.3</ele>
        <time>2022-08-15T09:08:16Z</time>
      </trkpt>
      <trkpt lat="44.81727" lon="0.99817">
        <ele>65.2</ele>
        <time>2022-08-15T09:08:18Z</time>
      </trkpt>
      <trkpt lat="44.8174" lon="0.99815">
        <ele>65.1</ele>
        <time>2022-08-15T09:08:20Z</time>
      </trkpt>
      <trkpt lat="44.81752" lon="0.99814">
        <ele>65.1</ele>
        <time>2022-08-15T09:08:22Z</time>
      </trkpt>
      <trkpt lat="44.81765" lon="0.99813">
        <ele>65.1</ele>
        <time>2022-08-15T09:08:24Z</time>
      </trkpt>
      <trkpt lat="44.81779" lon="0.99811">
        <ele>65.2</ele>
        <time>2022-08-15T09:08:26Z</time>
      </trkpt>
      <trkpt lat="44.81793" lon="0.9981">
        <ele>65.3</ele>
        <time>2022-08-15T09:08:28Z</time>
      </trkpt>
      <trkpt lat="44.81806" lon="0.99808">
        <ele>65.3</ele>
        <time>2022-08-15T09:08:30Z</time>
      </trkpt>
      <trkpt lat="44.8182" lon="0.99807">
        <ele>65.3</ele>
        <time>2022-08-15T09:08:32Z</time>
      </trkpt>
      <trkpt lat="44.81833" lon="0.99806">
        <ele>65.3</ele>
        <time>2022-08-15T09:08:34Z</time>
      </trkpt>
      <trkpt lat="44.81848" lon="0.99804">
        <ele>65.1</ele>
        <time>2022-08-15T09:08:36Z</time>
      </trkpt>
      <trkpt lat="44.81865" lon="0.99802">
        <ele>64.7</ele>
        <time>2022-08-15T09:08:38Z</time>
      </trkpt>
      <trkpt lat="44.8188" lon="0.998">
        <ele>64.5</ele>
        <time>2022-08-15T09:08:40Z</time>
      </trkpt>
      <trkpt lat="44.8189" lon="0.99798">
        <ele>64.2</ele>
        <time>2022-08-15T09:08:42Z</time>
      </trkpt>
      <trkpt lat="44.81894" lon="0.99798">
        <ele>64.1</ele>
        <time>2022-08-15T09:08:44Z</time>
      </trkpt>
      <trkpt lat="44.81904" lon="0.99797">
        <ele>63.9</ele>
        <time>2022-08-15T09:08:46Z</time>
      </trkpt>
      <trkpt lat="44.81914" lon="0.99795">
        <ele>63.7</ele>
        <time>2022-08-15T09:08:48Z</time>
      </trkpt>
      <trkpt lat="44.81925" lon="0.99795">
        <ele>63.8</ele>
        <time>2022-08-15T09:08:50Z</time>
      </trkpt>
      <trkpt lat="44.81934" lon="0.99796">
        <ele>63.9</ele>
        <time>2022-08-15T09:08:52Z</time>
      </trkpt>
      <trkpt lat="44.81944" lon="0.99798">
        <ele>64.2</ele>
        <time>2022-08-15T09:08:54Z</time>
      </trkpt>
      <trkpt lat="44.81954" lon="0.998">
        <ele>64.5</ele>
        <time>2022-08-15T09:08:56Z</time>
      </trkpt>
      <trkpt lat="44.81965" lon="0.99802">
        <ele>64.8</ele>
        <time>2022-08-15T09:08:58Z</time>
      </trkpt>
      <trkpt lat="44.81976" lon="0.99805">
        <ele>65.2</ele>
        <time>2022-08-15T09:09:00Z</time>
      </trkpt>
      <trkpt lat="44.81986" lon="0.99808">
        <ele>65.7</ele>
        <time>2022-08-15T09:09:02Z</time>
      </trkpt>
      <trkpt lat="44.81997" lon="0.99811">
        <ele>66.3</ele>
        <time>2022-08-15T09:09:04Z</time>
      </trkpt>
      <trkpt lat="44.82006" lon="0.99814">
        <ele>66.7</ele>
        <time>2022-08-15T09:09:06Z</time>
      </trkpt>
      <trkpt lat="44.82016" lon="0.99816">
        <ele>67</ele>
        <time>2022-08-15T09:09:08Z</time>
      </trkpt>
      <trkpt lat="44.82024" lon="0.99817">
        <ele>67.1</ele>
        <time>2022-08-15T09:09:10Z</time>
      </trkpt>
      <trkpt lat="44.82034" lon="0.99817">
        <ele>67.1</ele>
        <time>2022-08-15T09:09:12Z</time>
      </trkpt>
      <trkpt lat="44.82043" lon="0.99817">
        <ele>67.1</ele>
        <time>2022-08-15T09:09:14Z</time>
      </trkpt>
      <trkpt lat="44.82053" lon="0.99816">
        <ele>67.1</ele>
        <time>2022-08-15T09:09:16Z</time>
      </trkpt>
      <trkpt lat="44.82062" lon="0.99815">
        <ele>67</ele>
        <time>2022-08-15T09:09:18Z</time>
      </trkpt>
      <trkpt lat="44.82072" lon="0.99814">
        <ele>66.8</ele>
        <time>2022-08-15T09:09:20Z</time>
      </trkpt>
      <trkpt lat="44.82081" lon="0.99812">
        <ele>66.7</ele>
        <time>2022-08-15T09:09:22Z</time>
      </trkpt>
      <trkpt lat="44.8209" lon="0.99811">
        <ele>66.6</ele>
        <time>2022-08-15T09:09:24Z</time>
      </trkpt>
      <trkpt lat="44.82099" lon="0.99808">
        <ele>66.4</ele>
        <time>2022-08-15T09:09:26Z</time>
      </trkpt>
      <trkpt lat="44.82108" lon="0.99807">
        <ele>66.4</ele>
        <time>2022-08-15T09:09:28Z</time>
      </trkpt>
      <trkpt lat="44.82116" lon="0.99805">
        <ele>66.4</ele>
        <time>2022-08-15T09:09:30Z</time>
      </trkpt>
      <trkpt lat="44.82124" lon="0.99804">
        <ele>66.3</ele>
        <time>2022-08-15T09:09:32Z</time>
      </trkpt>
      <trkpt lat="44.82132" lon="0.99801">
        <ele>66.2</ele>
        <time>2022-08-15T09:09:34Z</time>
      </trkpt>
      <trkpt lat="44.82141" lon="0.99799">
        <ele>66.1</ele>
        <time>2022-08-15T09:09:36Z</time>
      </trkpt>
      <trkpt lat="44.82149" lon="0.99797">
        <ele>66.1</ele>
        <time>2022-08-15T09:09:38Z</time>
      </trkpt>
      <trkpt lat="44.82157" lon="0.99796">
        <ele>66.1</ele>
        <time>2022-08-15T09:09:40Z</time>
      </trkpt>
      <trkpt lat="44.82165" lon="0.99793">
        <ele>66.1</ele>
        <time>2022-08-15T09:09:42Z</time>
      </trkpt>
      <trkpt lat="44.82171" lon="0.99792">
        <ele>66.2</ele>
        <time>2022-08-15T09:09:44Z</time>
      </trkpt>
      <trkpt lat="44.82176" lon="0.99791">
        <ele>66.3</ele>
        <time>2022-08-15T09:09:46Z</time>
      </trkpt>
      <trkpt lat="44.82179" lon="0.9979">
        <ele>66.3</ele>
        <time>2022-08-15T09:09:48Z</time>
      </trkpt>
      <trkpt lat="44.82181" lon="0.99791">
        <ele>66.4</ele>
        <time>2022-08-15T09:09:50Z</time>
      </trkpt>
      <trkpt lat="44.82181" lon="0.9979">
        <ele>66.4</ele>
        <time>2022-08-15T09:09:52Z</time>
      </trkpt>
      <trkpt lat="44.82181" lon="0.9979">
        <ele>66.4</ele>
        <time>2022-08-15T09:09:54Z</time>
      </trkpt>
      <trkpt lat="44.82181" lon="0.9979">
        <ele>66.4</ele>
        <time>2022-08-15T09:09:56Z</time>
      </trkpt>
      <trkpt lat="44.82185" lon="0.99788">
        <ele>66.4</ele>
        <time>2022-08-15T09:09:58Z</time>
      </trkpt>
      <trkpt lat="44.82188" lon="0.99779">
        <ele>65.9</ele>
        <time>2022-08-15T09:10:00Z</time>
      </trkpt>
      <trkpt lat="44.82187" lon="0.99764">
        <ele>64.8</ele>
        <time>2022-08-15T09:10:02Z</time>
      </trkpt>
      <trkpt lat="44.82185" lon="0.99749">
        <ele>63.6</ele>
        <time>2022-08-15T09:10:04Z</time>
      </trkpt>
      <trkpt lat="44.82183" lon="0.99732">
        <ele>62.8</ele>
        <time>2022-08-15T09:10:06Z</time>
      </trkpt>
      <trkpt lat="44.82181" lon="0.99713">
        <ele>61.9</ele>
        <time>2022-08-15T09:10:08Z</time>
      </trkpt>
      <trkpt lat="44.82178" lon="0.99693">
        <ele>61.1</ele>
        <time>2022-08-15T09:10:10Z</time>
      </trkpt>
      <trkpt lat="44.82176" lon="0.99673">
        <ele>60.3</ele>
        <time>2022-08-15T09:10:12Z</time>
      </trkpt>
      <trkpt lat="44.82174" lon="0.99653">
        <ele>60.1</ele>
        <time>2022-08-15T09:10:14Z</time>
      </trkpt>
      <trkpt lat="44.82171" lon="0.99633">
        <ele>60.4</ele>
        <time>2022-08-15T09:10:16Z</time>
      </trkpt>
      <trkpt lat="44.82169" lon="0.99613">
        <ele>60.6</ele>
        <time>2022-08-15T09:10:18Z</time>
      </trkpt>
      <trkpt lat="44.82167" lon="0.99593">
        <ele>60.9</ele>
        <time>2022-08-15T09:10:20Z</time>
      </trkpt>
      <trkpt lat="44.82166" lon="0.99574">
        <ele>60.9</ele>
        <time>2022-08-15T09:10:22Z</time>
      </trkpt>
      <trkpt lat="44.82164" lon="0.99555">
        <ele>60.7</ele>
        <time>2022-08-15T09:10:24Z</time>
      </trkpt>
      <trkpt lat="44.82162" lon="0.99537">
        <ele>60.6</ele>
        <time>2022-08-15T09:10:26Z</time>
      </trkpt>
      <trkpt lat="44.82161" lon="0.99519">
        <ele>60.4</ele>
        <time>2022-08-15T09:10:28Z</time>
      </trkpt>
      <trkpt lat="44.8216" lon="0.99502">
        <ele>60.2</ele>
        <time>2022-08-15T09:10:30Z</time>
      </trkpt>
      <trkpt lat="44.8216" lon="0.99484">
        <ele>60</ele>
        <time>2022-08-15T09:10:32Z</time>
      </trkpt>
      <trkpt lat="44.82161" lon="0.99467">
        <ele>59.8</ele>
        <time>2022-08-15T09:10:34Z</time>
      </trkpt>
      <trkpt lat="44.82162" lon="0.9945">
        <ele>59.5</ele>
        <time>2022-08-15T09:10:36Z</time>
      </trkpt>
      <trkpt lat="44.82164" lon="0.99434">
        <ele>59.3</ele>
        <time>2022-08-15T09:10:38Z</time>
      </trkpt>
      <trkpt lat="44.82166" lon="0.99418">
        <ele>59</ele>
        <time>2022-08-15T09:10:40Z</time>
      </trkpt>
      <trkpt lat="44.8217" lon="0.99402">
        <ele>59.3</ele>
        <time>2022-08-15T09:10:42Z</time>
      </trkpt>
      <trkpt lat="44.82173" lon="0.99386">
        <ele>59.6</ele>
        <time>2022-08-15T09:10:44Z</time>
      </trkpt>
      <trkpt lat="44.82177" lon="0.99372">
        <ele>60</ele>
        <time>2022-08-15T09:10:46Z</time>
      </trkpt>
      <trkpt lat="44.82181" lon="0.99358">
        <ele>60.2</ele>
        <time>2022-08-15T09:10:48Z</time>
      </trkpt>
      <trkpt lat="44.82186" lon="0.99343">
        <ele>60.5</ele>
        <time>2022-08-15T09:10:50Z</time>
      </trkpt>
      <trkpt lat="44.82192" lon="0.9933">
        <ele>60.8</ele>
        <time>2022-08-15T09:10:52Z</time>
      </trkpt>
      <trkpt lat="44.82198" lon="0.99317">
        <ele>60.9</ele>
        <time>2022-08-15T09:10:54Z</time>
      </trkpt>
      <trkpt lat="44.82205" lon="0.99304">
        <ele>61.1</ele>
        <time>2022-08-15T09:10:56Z</time>
      </trkpt>
      <trkpt lat="44.82212" lon="0.99291">
        <ele>61.2</ele>
        <time>2022-08-15T09:10:58Z</time>
      </trkpt>
      <trkpt lat="44.82219" lon="0.99279">
        <ele>61.3</ele>
        <time>2022-08-15T09:11:00Z</time>
      </trkpt>
      <trkpt lat="44.82226" lon="0.99267">
        <ele>61.3</ele>
        <time>2022-08-15T09:11:02Z</time>
      </trkpt>
      <trkpt lat="44.82233" lon="0.99255">
        <ele>61.3</ele>
        <time>2022-08-15T09:11:04Z</time>
      </trkpt>
      <trkpt lat="44.82241" lon="0.99243">
        <ele>61.3</ele>
        <time>2022-08-15T09:11:06Z</time>
      </trkpt>
      <trkpt lat="44.82248" lon="0.99231">
        <ele>61.3</ele>
        <time>2022-08-15T09:11:08Z</time>
      </trkpt>
      <trkpt lat="44.82256" lon="0.9922">
        <ele>61.2</ele>
        <time>2022-08-15T09:11:10Z</time>
      </trkpt>
      <trkpt lat="44.82263" lon="0.99209">
        <ele>61.3</ele>
        <time>2022-08-15T09:11:12Z</time>
      </trkpt>
      <trkpt lat="44.8227" lon="0.99198">
        <ele>61.3</ele>
        <time>2022-08-15T09:11:14Z</time>
      </trkpt>
      <trkpt lat="44.82277" lon="0.99187">
        <ele>61.4</ele>
        <time>2022-08-15T09:11:16Z</time>
      </trkpt>
      <trkpt lat="44.82283" lon="0.99175">
        <ele>61.5</ele>
        <time>2022-08-15T09:11:18Z</time>
      </trkpt>
      <trkpt lat="44.82289" lon="0.99163">
        <ele>61.5</ele>
        <time>2022-08-15T09:11:20Z</time>
      </trkpt>
      <trkpt lat="44.82293" lon="0.9915">
        <ele>61.4</ele>
        <time>2022-08-15T09:11:22Z</time>
      </trkpt>
      <trkpt lat="44.82297" lon="0.99137">
        <ele>61.2</ele>
        <time>2022-08-15T09:11:24Z</time>
      </trkpt>
      <trkpt lat="44.82301" lon="0.99124">
        <ele>61.1</ele>
        <time>2022-08-15T09:11:26Z</time>
      </trkpt>
      <trkpt lat="44.82304" lon="0.99112">
        <ele>60.9</ele>
        <time>2022-08-15T09:11:28Z</time>
      </trkpt>
      <trkpt lat="44.82306" lon="0.99099">
        <ele>60.8</ele>
        <time>2022-08-15T09:11:30Z</time>
      </trkpt>
      <trkpt lat="44.82307" lon="0.99086">
        <ele>60.6</ele>
        <time>2022-08-15T09:11:32Z</time>
      </trkpt>
      <trkpt lat="44.82309" lon="0.99074">
        <ele>60.6</ele>
        <time>2022-08-15T09:11:34Z</time>
      </trkpt>
      <trkpt lat="44.82309" lon="0.99062">
        <ele>60.6</ele>
        <time>2022-08-15T09:11:36Z</time>
      </trkpt>
      <trkpt lat="44.82309" lon="0.9905">
        <ele>60.6</ele>
        <time>2022-08-15T09:11:38Z</time>
      </trkpt>
      <trkpt lat="44.82309" lon="0.99039">
        <ele>60.6</ele>
        <time>2022-08-15T09:11:40Z</time>
      </trkpt>
      <trkpt lat="44.82308" lon="0.99027">
        <ele>60.6</ele>
        <time>2022-08-15T09:11:42Z</time>
      </trkpt>
      <trkpt lat="44.82307" lon="0.99016">
        <ele>60.6</ele>
        <time>2022-08-15T09:11:44Z</time>
      </trkpt>
      <trkpt lat="44.82305" lon="0.99004">
        <ele>60.7</ele>
        <time>2022-08-15T09:11:46Z</time>
      </trkpt>
      <trkpt lat="44.82302" lon="0.98993">
        <ele>60.8</ele>
        <time>2022-08-15T09:11:48Z</time>
      </trkpt>
      <trkpt lat="44.82301" lon="0.98983">
        <ele>60.9</ele>
        <time>2022-08-15T09:11:50Z</time>
      </trkpt>
      <trkpt lat="44.82298" lon="0.98973">
        <ele>61</ele>
        <time>2022-08-15T09:11:52Z</time>
      </trkpt>
      <trkpt lat="44.82297" lon="0.98964">
        <ele>61.1</ele>
        <time>2022-08-15T09:11:54Z</time>
      </trkpt>
      <trkpt lat="44.82298" lon="0.98954">
        <ele>61.1</ele>
        <time>2022-08-15T09:11:56Z</time>
      </trkpt>
      <trkpt lat="44.82303" lon="0.98945">
        <ele>61</ele>
        <time>2022-08-15T09:11:58Z</time>
      </trkpt>
      <trkpt lat="44.82309" lon="0.98939">
        <ele>60.8</ele>
        <time>2022-08-15T09:12:00Z</time>
      </trkpt>
      <trkpt lat="44.82317" lon="0.98937">
        <ele>60.6</ele>
        <time>2022-08-15T09:12:02Z</time>
      </trkpt>
      <trkpt lat="44.82325" lon="0.98939">
        <ele>60.3</ele>
        <time>2022-08-15T09:12:04Z</time>
      </trkpt>
      <trkpt lat="44.82333" lon="0.98941">
        <ele>60</ele>
        <time>2022-08-15T09:12:06Z</time>
      </trkpt>
      <trkpt lat="44.82341" lon="0.98944">
        <ele>59.9</ele>
        <time>2022-08-15T09:12:08Z</time>
      </trkpt>
      <trkpt lat="44.8235" lon="0.98947">
        <ele>59.9</ele>
        <time>2022-08-15T09:12:10Z</time>
      </trkpt>
      <trkpt lat="44.82359" lon="0.9895">
        <ele>59.8</ele>
        <time>2022-08-15T09:12:12Z</time>
      </trkpt>
      <trkpt lat="44.82369" lon="0.98953">
        <ele>59.8</ele>
        <time>2022-08-15T09:12:14Z</time>
      </trkpt>
      <trkpt lat="44.82377" lon="0.98956">
        <ele>59.7</ele>
        <time>2022-08-15T09:12:16Z</time>
      </trkpt>
      <trkpt lat="44.82386" lon="0.98959">
        <ele>59.7</ele>
        <time>2022-08-15T09:12:18Z</time>
      </trkpt>
      <trkpt lat="44.82396" lon="0.98962">
        <ele>59.7</ele>
        <time>2022-08-15T09:12:20Z</time>
      </trkpt>
      <trkpt lat="44.82405" lon="0.98965">
        <ele>59.6</ele>
        <time>2022-08-15T09:12:22Z</time>
      </trkpt>
      <trkpt lat="44.82414" lon="0.98968">
        <ele>59.6</ele>
        <time>2022-08-15T09:12:24Z</time>
      </trkpt>
      <trkpt lat="44.82423" lon="0.98971">
        <ele>59.5</ele>
        <time>2022-08-15T09:12:26Z</time>
      </trkpt>
      <trkpt lat="44.82432" lon="0.98975">
        <ele>59.4</ele>
        <time>2022-08-15T09:12:28Z</time>
      </trkpt>
      <trkpt lat="44.82441" lon="0.98978">
        <ele>59.2</ele>
        <time>2022-08-15T09:12:30Z</time>
      </trkpt>
      <trkpt lat="44.82451" lon="0.98982">
        <ele>59.1</ele>
        <time>2022-08-15T09:12:32Z</time>
      </trkpt>
      <trkpt lat="44.8246" lon="0.98985">
        <ele>58.9</ele>
        <time>2022-08-15T09:12:34Z</time>
      </trkpt>
      <trkpt lat="44.82468" lon="0.98987">
        <ele>58.7</ele>
        <time>2022-08-15T09:12:36Z</time>
      </trkpt>
      <trkpt lat="44.82477" lon="0.9899">
        <ele>58.5</ele>
        <time>2022-08-15T09:12:38Z</time>
      </trkpt>
      <trkpt lat="44.82485" lon="0.98993">
        <ele>58.3</ele>
        <time>2022-08-15T09:12:40Z</time>
      </trkpt>
      <trkpt lat="44.82493" lon="0.98996">
        <ele>58.2</ele>
        <time>2022-08-15T09:12:42Z</time>
      </trkpt>
      <trkpt lat="44.82502" lon="0.98999">
        <ele>57.9</ele>
        <time>2022-08-15T09:12:44Z</time>
      </trkpt>
      <trkpt lat="44.8251" lon="0.99002">
        <ele>57.3</ele>
        <time>2022-08-15T09:12:46Z</time>
      </trkpt>
      <trkpt lat="44.82518" lon="0.99005">
        <ele>56.7</ele>
        <time>2022-08-15T09:12:48Z</time>
      </trkpt>
      <trkpt lat="44.82527" lon="0.99007">
        <ele>56.2</ele>
        <time>2022-08-15T09:12:50Z</time>
      </trkpt>
      <trkpt lat="44.82535" lon="0.9901">
        <ele>55.6</ele>
        <time>2022-08-15T09:12:52Z</time>
      </trkpt>
      <trkpt lat="44.82542" lon="0.99012">
        <ele>55.2</ele>
        <time>2022-08-15T09:12:54Z</time>
      </trkpt>
      <trkpt lat="44.82549" lon="0.99014">
        <ele>54.7</ele>
        <time>2022-08-15T09:12:56Z</time>
      </trkpt>
      <trkpt lat="44.82557" lon="0.99017">
        <ele>54.3</ele>
        <time>2022-08-15T09:12:58Z</time>
      </trkpt>
      <trkpt lat="44.82563" lon="0.99018">
        <ele>54</ele>
        <time>2022-08-15T09:13:00Z</time>
      </trkpt>
      <trkpt lat="44.82569" lon="0.99021">
        <ele>53.7</ele>
        <time>2022-08-15T09:13:02Z</time>
      </trkpt>
      <trkpt lat="44.82575" lon="0.99023">
        <ele>53.3</ele>
        <time>2022-08-15T09:13:04Z</time>
      </trkpt>
      <trkpt lat="44.82582" lon="0.99025">
        <ele>53</ele>
        <time>2022-08-15T09:13:06Z</time>
      </trkpt>
      <trkpt lat="44.82589" lon="0.99027">
        <ele>53</ele>
        <time>2022-08-15T09:13:08Z</time>
      </trkpt>
      <trkpt lat="44.82597" lon="0.99031">
        <ele>53.2</ele>
        <time>2022-08-15T09:13:10Z</time>
      </trkpt>
      <trkpt lat="44.82605" lon="0.99034">
        <ele>53.3</ele>
        <time>2022-08-15T09:13:12Z</time>
      </trkpt>
      <trkpt lat="44.82612" lon="0.99037">
        <ele>53.4</ele>
        <time>2022-08-15T09:13:14Z</time>
      </trkpt>
      <trkpt lat="44.8262" lon="0.99039">
        <ele>53.4</ele>
        <time>2022-08-15T09:13:16Z</time>
      </trkpt>
      <trkpt lat="44.82628" lon="0.99042">
        <ele>53.5</ele>
        <time>2022-08-15T09:13:18Z</time>
      </trkpt>
      <trkpt lat="44.82636" lon="0.99045">
        <ele>53.6</ele>
        <time>2022-08-15T09:13:20Z</time>
      </trkpt>
      <trkpt lat="44.82644" lon="0.99048">
        <ele>53.6</ele>
        <time>2022-08-15T09:13:22Z</time>
      </trkpt>
      <trkpt lat="44.82653" lon="0.99051">
        <ele>53.6</ele>
        <time>2022-08-15T09:13:24Z</time>
      </trkpt>
      <trkpt lat="44.82662" lon="0.99054">
        <ele>53.7</ele>
        <time>2022-08-15T09:13:26Z</time>
      </trkpt>
      <trkpt lat="44.82671" lon="0.99057">
        <ele>53.8</ele>
        <time>2022-08-15T09:13:28Z</time>
      </trkpt>
      <trkpt lat="44.82679" lon="0.9906">
        <ele>54</ele>
        <time>2022-08-15T09:13:30Z</time>
      </trkpt>
      <trkpt lat="44.82688" lon="0.99063">
        <ele>54.3</ele>
        <time>2022-08-15T09:13:32Z</time>
      </trkpt>
      <trkpt lat="44.82698" lon="0.99067">
        <ele>54.5</ele>
        <time>2022-08-15T09:13:34Z</time>
      </trkpt>
      <trkpt lat="44.82707" lon="0.9907">
        <ele>54.8</ele>
        <time>2022-08-15T09:13:36Z</time>
      </trkpt>
      <trkpt lat="44.82718" lon="0.99074">
        <ele>55.1</ele>
        <time>2022-08-15T09:13:38Z</time>
      </trkpt>
      <trkpt lat="44.82729" lon="0.99077">
        <ele>55.4</ele>
        <time>2022-08-15T09:13:40Z</time>
      </trkpt>
      <trkpt lat="44.8274" lon="0.99081">
        <ele>55.7</ele>
        <time>2022-08-15T09:13:42Z</time>
      </trkpt>
      <trkpt lat="44.82751" lon="0.99086">
        <ele>56</ele>
        <time>2022-08-15T09:13:44Z</time>
      </trkpt>
      <trkpt lat="44.82762" lon="0.9909">
        <ele>56.1</ele>
        <time>2022-08-15T09:13:46Z</time>
      </trkpt>
      <trkpt lat="44.82773" lon="0.99093">
        <ele>56.2</ele>
        <time>2022-08-15T09:13:48Z</time>
      </trkpt>
      <trkpt lat="44.82784" lon="0.99097">
        <ele>56.3</ele>
        <time>2022-08-15T09:13:50Z</time>
      </trkpt>
      <trkpt lat="44.82795" lon="0.99101">
        <ele>56.4</ele>
        <time>2022-08-15T09:13:52Z</time>
      </trkpt>
      <trkpt lat="44.82807" lon="0.99105">
        <ele>56.5</ele>
        <time>2022-08-15T09:13:54Z</time>
      </trkpt>
      <trkpt lat="44.8282" lon="0.99109">
        <ele>56.6</ele>
        <time>2022-08-15T09:13:56Z</time>
      </trkpt>
      <trkpt lat="44.82831" lon="0.99113">
        <ele>56.6</ele>
        <time>2022-08-15T09:13:58Z</time>
      </trkpt>
      <trkpt lat="44.82843" lon="0.99118">
        <ele>56.4</ele>
        <time>2022-08-15T09:14:00Z</time>
      </trkpt>
      <trkpt lat="44.82855" lon="0.99122">
        <ele>56.3</ele>
        <time>2022-08-15T09:14:02Z</time>
      </trkpt>
      <trkpt lat="44.82867" lon="0.99127">
        <ele>56.1</ele>
        <time>2022-08-15T09:14:04Z</time>
      </trkpt>
      <trkpt lat="44.82879" lon="0.99131">
        <ele>56</ele>
        <time>2022-08-15T09:14:06Z</time>
      </trkpt>
      <trkpt lat="44.82891" lon="0.99134">
        <ele>55.9</ele>
        <time>2022-08-15T09:14:08Z</time>
      </trkpt>
      <trkpt lat="44.82903" lon="0.99136">
        <ele>55.8</ele>
        <time>2022-08-15T09:14:10Z</time>
      </trkpt>
      <trkpt lat="44.82914" lon="0.99138">
        <ele>55.7</ele>
        <time>2022-08-15T09:14:12Z</time>
      </trkpt>
      <trkpt lat="44.82925" lon="0.99138">
        <ele>55.9</ele>
        <time>2022-08-15T09:14:14Z</time>
      </trkpt>
      <trkpt lat="44.82936" lon="0.99136">
        <ele>56.2</ele>
        <time>2022-08-15T09:14:16Z</time>
      </trkpt>
      <trkpt lat="44.82947" lon="0.99135">
        <ele>56.5</ele>
        <time>2022-08-15T09:14:18Z</time>
      </trkpt>
      <trkpt lat="44.82958" lon="0.99132">
        <ele>56.8</ele>
        <time>2022-08-15T09:14:20Z</time>
      </trkpt>
      <trkpt lat="44.82968" lon="0.99129">
        <ele>57</ele>
        <time>2022-08-15T09:14:22Z</time>
      </trkpt>
      <trkpt lat="44.82978" lon="0.99124">
        <ele>57.3</ele>
        <time>2022-08-15T09:14:24Z</time>
      </trkpt>
      <trkpt lat="44.82988" lon="0.9912">
        <ele>57.6</ele>
        <time>2022-08-15T09:14:26Z</time>
      </trkpt>
      <trkpt lat="44.82997" lon="0.99115">
        <ele>57.9</ele>
        <time>2022-08-15T09:14:28Z</time>
      </trkpt>
      <trkpt lat="44.83007" lon="0.99108">
        <ele>58.1</ele>
        <time>2022-08-15T09:14:30Z</time>
      </trkpt>
      <trkpt lat="44.83016" lon="0.99102">
        <ele>58.3</ele>
        <time>2022-08-15T09:14:32Z</time>
      </trkpt>
      <trkpt lat="44.83025" lon="0.99095">
        <ele>58.5</ele>
        <time>2022-08-15T09:14:34Z</time>
      </trkpt>
      <trkpt lat="44.83033" lon="0.99088">
        <ele>58.8</ele>
        <time>2022-08-15T09:14:36Z</time>
      </trkpt>
      <trkpt lat="44.83041" lon="0.99082">
        <ele>59</ele>
        <time>2022-08-15T09:14:38Z</time>
      </trkpt>
      <trkpt lat="44.83049" lon="0.99078">
        <ele>59.2</ele>
        <time>2022-08-15T09:14:40Z</time>
      </trkpt>
      <trkpt lat="44.83058" lon="0.9908">
        <ele>59.4</ele>
        <time>2022-08-15T09:14:42Z</time>
      </trkpt>
      <trkpt lat="44.83067" lon="0.99086">
        <ele>59.6</ele>
        <time>2022-08-15T09:14:44Z</time>
      </trkpt>
      <trkpt lat="44.83074" lon="0.99094">
        <ele>59.7</ele>
        <time>2022-08-15T09:14:46Z</time>
      </trkpt>
      <trkpt lat="44.83081" lon="0.99104">
        <ele>59.7</ele>
        <time>2022-08-15T09:14:48Z</time>
      </trkpt>
      <trkpt lat="44.83088" lon="0.99114">
        <ele>59.9</ele>
        <time>2022-08-15T09:14:50Z</time>
      </trkpt>
      <trkpt lat="44.83093" lon="0.99125">
        <ele>60.1</ele>
        <time>2022-08-15T09:14:52Z</time>
      </trkpt>
      <trkpt lat="44.831" lon="0.99136">
        <ele>60.4</ele>
        <time>2022-08-15T09:14:54Z</time>
      </trkpt>
      <trkpt lat="44.83106" lon="0.99146">
        <ele>60.6</ele>
        <time>2022-08-15T09:14:56Z</time>
      </trkpt>
      <trkpt lat="44.83112" lon="0.99157">
        <ele>60.9</ele>
        <time>2022-08-15T09:14:58Z</time>
      </trkpt>
      <trkpt lat="44.83119" lon="0.99169">
        <ele>61.1</ele>
        <time>2022-08-15T09:15:00Z</time>
      </trkpt>
      <trkpt lat="44.83125" lon="0.9918">
        <ele>61.3</ele>
        <time>2022-08-15T09:15:02Z</time>
      </trkpt>
      <trkpt lat="44.83132" lon="0.99191">
        <ele>61.4</ele>
        <time>2022-08-15T09:15:04Z</time>
      </trkpt>
      <trkpt lat="44.83138" lon="0.99202">
        <ele>61.6</ele>
        <time>2022-08-15T09:15:06Z</time>
      </trkpt>
      <trkpt lat="44.83145" lon="0.99213">
        <ele>61.7</ele>
        <time>2022-08-15T09:15:08Z</time>
      </trkpt>
      <trkpt lat="44.83151" lon="0.99225">
        <ele>61.8</ele>
        <time>2022-08-15T09:15:10Z</time>
      </trkpt>
      <trkpt lat="44.83158" lon="0.99235">
        <ele>61.9</ele>
        <time>2022-08-15T09:15:12Z</time>
      </trkpt>
      <trkpt lat="44.83164" lon="0.99247">
        <ele>61.9</ele>
        <time>2022-08-15T09:15:14Z</time>
      </trkpt>
      <trkpt lat="44.8317" lon="0.99258">
        <ele>62.4</ele>
        <time>2022-08-15T09:15:16Z</time>
      </trkpt>
      <trkpt lat="44.83176" lon="0.99269">
        <ele>63.2</ele>
        <time>2022-08-15T09:15:18Z</time>
      </trkpt>
      <trkpt lat="44.83183" lon="0.99279">
        <ele>63.9</ele>
        <time>2022-08-15T09:15:20Z</time>
      </trkpt>
      <trkpt lat="44.83189" lon="0.9929">
        <ele>64.5</ele>
        <time>2022-08-15T09:15:22Z</time>
      </trkpt>
      <trkpt lat="44.83195" lon="0.993">
        <ele>64.9</ele>
        <time>2022-08-15T09:15:24Z</time>
      </trkpt>
      <trkpt lat="44.83201" lon="0.99311">
        <ele>65.3</ele>
        <time>2022-08-15T09:15:26Z</time>
      </trkpt>
      <trkpt lat="44.83206" lon="0.99321">
        <ele>65.5</ele>
        <time>2022-08-15T09:15:28Z</time>
      </trkpt>
      <trkpt lat="44.83212" lon="0.99331">
        <ele>65.8</ele>
        <time>2022-08-15T09:15:30Z</time>
      </trkpt>
      <trkpt lat="44.83219" lon="0.99341">
        <ele>66.2</ele>
        <time>2022-08-15T09:15:32Z</time>
      </trkpt>
      <trkpt lat="44.83224" lon="0.99351">
        <ele>66.6</ele>
        <time>2022-08-15T09:15:34Z</time>
      </trkpt>
      <trkpt lat="44.8323" lon="0.99362">
        <ele>66.8</ele>
        <time>2022-08-15T09:15:36Z</time>
      </trkpt>
      <trkpt lat="44.83236" lon="0.99372">
        <ele>67.1</ele>
        <time>2022-08-15T09:15:38Z</time>
      </trkpt>
      <trkpt lat="44.83241" lon="0.99382">
        <ele>67.2</ele>
        <time>2022-08-15T09:15:40Z</time>
      </trkpt>
      <trkpt lat="44.83247" lon="0.99392">
        <ele>67.2</ele>
        <time>2022-08-15T09:15:42Z</time>
      </trkpt>
      <trkpt lat="44.83253" lon="0.99403">
        <ele>67.8</ele>
        <time>2022-08-15T09:15:44Z</time>
      </trkpt>
      <trkpt lat="44.83259" lon="0.99413">
        <ele>68.7</ele>
        <time>2022-08-15T09:15:46Z</time>
      </trkpt>
      <trkpt lat="44.83265" lon="0.99423">
        <ele>69.6</ele>
        <time>2022-08-15T09:15:48Z</time>
      </trkpt>
      <trkpt lat="44.83272" lon="0.99434">
        <ele>70.4</ele>
        <time>2022-08-15T09:15:50Z</time>
      </trkpt>
      <trkpt lat="44.83278" lon="0.99445">
        <ele>71.1</ele>
        <time>2022-08-15T09:15:52Z</time>
      </trkpt>
      <trkpt lat="44.83284" lon="0.99455">
        <ele>71.7</ele>
        <time>2022-08-15T09:15:54Z</time>
      </trkpt>
      <trkpt lat="44.8329" lon="0.99466">
        <ele>72.2</ele>
        <time>2022-08-15T09:15:56Z</time>
      </trkpt>
      <trkpt lat="44.83296" lon="0.99476">
        <ele>72.6</ele>
        <time>2022-08-15T09:15:58Z</time>
      </trkpt>
      <trkpt lat="44.83302" lon="0.99487">
        <ele>72.9</ele>
        <time>2022-08-15T09:16:00Z</time>
      </trkpt>
      <trkpt lat="44.83309" lon="0.99497">
        <ele>73.3</ele>
        <time>2022-08-15T09:16:02Z</time>
      </trkpt>
      <trkpt lat="44.83315" lon="0.99508">
        <ele>73.1</ele>
        <time>2022-08-15T09:16:04Z</time>
      </trkpt>
      <trkpt lat="44.83321" lon="0.99519">
        <ele>72.8</ele>
        <time>2022-08-15T09:16:06Z</time>
      </trkpt>
      <trkpt lat="44.83327" lon="0.99529">
        <ele>72.2</ele>
        <time>2022-08-15T09:16:08Z</time>
      </trkpt>
      <trkpt lat="44.83333" lon="0.99539">
        <ele>71.4</ele>
        <time>2022-08-15T09:16:10Z</time>
      </trkpt>
      <trkpt lat="44.83338" lon="0.99549">
        <ele>72.1</ele>
        <time>2022-08-15T09:16:12Z</time>
      </trkpt>
      <trkpt lat="44.83344" lon="0.99558">
        <ele>73.1</ele>
        <time>2022-08-15T09:16:14Z</time>
      </trkpt>
      <trkpt lat="44.83349" lon="0.9957">
        <ele>73.4</ele>
        <time>2022-08-15T09:16:16Z</time>
      </trkpt>
      <trkpt lat="44.83355" lon="0.9958">
        <ele>74.2</ele>
        <time>2022-08-15T09:16:18Z</time>
      </trkpt>
      <trkpt lat="44.83361" lon="0.9959">
        <ele>75.4</ele>
        <time>2022-08-15T09:16:20Z</time>
      </trkpt>
      <trkpt lat="44.83367" lon="0.996">
        <ele>76.4</ele>
        <time>2022-08-15T09:16:22Z</time>
      </trkpt>
      <trkpt lat="44.83373" lon="0.99611">
        <ele>76.9</ele>
        <time>2022-08-15T09:16:24Z</time>
      </trkpt>
      <trkpt lat="44.83379" lon="0.99621">
        <ele>77.2</ele>
        <time>2022-08-15T09:16:26Z</time>
      </trkpt>
      <trkpt lat="44.83385" lon="0.99631">
        <ele>77.2</ele>
        <time>2022-08-15T09:16:28Z</time>
      </trkpt>
      <trkpt lat="44.83391" lon="0.99641">
        <ele>76.8</ele>
        <time>2022-08-15T09:16:30Z</time>
      </trkpt>
      <trkpt lat="44.83396" lon="0.99652">
        <ele>75.8</ele>
        <time>2022-08-15T09:16:32Z</time>
      </trkpt>
      <trkpt lat="44.83403" lon="0.99662">
        <ele>75</ele>
        <time>2022-08-15T09:16:34Z</time>
      </trkpt>
      <trkpt lat="44.83409" lon="0.99672">
        <ele>74.2</ele>
        <time>2022-08-15T09:16:36Z</time>
      </trkpt>
      <trkpt lat="44.83414" lon="0.99683">
        <ele>73.5</ele>
        <time>2022-08-15T09:16:38Z</time>
      </trkpt>
      <trkpt lat="44.83421" lon="0.99693">
        <ele>74.1</ele>
        <time>2022-08-15T09:16:40Z</time>
      </trkpt>
      <trkpt lat="44.83427" lon="0.99703">
        <ele>75.4</ele>
        <time>2022-08-15T09:16:42Z</time>
      </trkpt>
      <trkpt lat="44.83433" lon="0.99713">
        <ele>76</ele>
        <time>2022-08-15T09:16:44Z</time>
      </trkpt>
      <trkpt lat="44.83439" lon="0.99723">
        <ele>76.6</ele>
        <time>2022-08-15T09:16:46Z</time>
      </trkpt>
      <trkpt lat="44.83445" lon="0.99732">
        <ele>77.2</ele>
        <time>2022-08-15T09:16:48Z</time>
      </trkpt>
      <trkpt lat="44.83451" lon="0.99742">
        <ele>77.2</ele>
        <time>2022-08-15T09:16:50Z</time>
      </trkpt>
      <trkpt lat="44.83457" lon="0.99752">
        <ele>77.4</ele>
        <time>2022-08-15T09:16:52Z</time>
      </trkpt>
      <trkpt lat="44.83462" lon="0.99763">
        <ele>78.3</ele>
        <time>2022-08-15T09:16:54Z</time>
      </trkpt>
      <trkpt lat="44.83468" lon="0.99772">
        <ele>78.8</ele>
        <time>2022-08-15T09:16:56Z</time>
      </trkpt>
      <trkpt lat="44.83474" lon="0.99783">
        <ele>78.7</ele>
        <time>2022-08-15T09:16:58Z</time>
      </trkpt>
      <trkpt lat="44.8348" lon="0.99794">
        <ele>78.4</ele>
        <time>2022-08-15T09:17:00Z</time>
      </trkpt>
      <trkpt lat="44.83486" lon="0.99804">
        <ele>77.8</ele>
        <time>2022-08-15T09:17:02Z</time>
      </trkpt>
      <trkpt lat="44.83492" lon="0.99814">
        <ele>76.7</ele>
        <time>2022-08-15T09:17:04Z</time>
      </trkpt>
      <trkpt lat="44.83498" lon="0.99825">
        <ele>75</ele>
        <time>2022-08-15T09:17:06Z</time>
      </trkpt>
      <trkpt lat="44.83504" lon="0.99836">
        <ele>74.7</ele>
        <time>2022-08-15T09:17:08Z</time>
      </trkpt>
      <trkpt lat="44.8351" lon="0.99846">
        <ele>76.4</ele>
        <time>2022-08-15T09:17:10Z</time>
      </trkpt>
      <trkpt lat="44.83516" lon="0.99857">
        <ele>77.8</ele>
        <time>2022-08-15T09:17:12Z</time>
      </trkpt>
      <trkpt lat="44.83522" lon="0.99868">
        <ele>78.7</ele>
        <time>2022-08-15T09:17:14Z</time>
      </trkpt>
      <trkpt lat="44.83528" lon="0.99878">
        <ele>79.5</ele>
        <time>2022-08-15T09:17:16Z</time>
      </trkpt>
      <trkpt lat="44.83535" lon="0.99889">
        <ele>79.7</ele>
        <time>2022-08-15T09:17:18Z</time>
      </trkpt>
      <trkpt lat="44.83541" lon="0.99901">
        <ele>79.4</ele>
        <time>2022-08-15T09:17:20Z</time>
      </trkpt>
      <trkpt lat="44.83547" lon="0.99911">
        <ele>79</ele>
        <time>2022-08-15T09:17:22Z</time>
      </trkpt>
      <trkpt lat="44.83554" lon="0.99922">
        <ele>78.5</ele>
        <time>2022-08-15T09:17:24Z</time>
      </trkpt>
      <trkpt lat="44.8356" lon="0.99933">
        <ele>78.2</ele>
        <time>2022-08-15T09:17:26Z</time>
      </trkpt>
      <trkpt lat="44.83567" lon="0.99944">
        <ele>77.7</ele>
        <time>2022-08-15T09:17:28Z</time>
      </trkpt>
      <trkpt lat="44.83573" lon="0.99954">
        <ele>76.9</ele>
        <time>2022-08-15T09:17:30Z</time>
      </trkpt>
      <trkpt lat="44.8358" lon="0.99965">
        <ele>75.8</ele>
        <time>2022-08-15T09:17:32Z</time>
      </trkpt>
      <trkpt lat="44.83586" lon="0.99975">
        <ele>74.7</ele>
        <time>2022-08-15T09:17:34Z</time>
      </trkpt>
      <trkpt lat="44.83592" lon="0.99986">
        <ele>73.7</ele>
        <time>2022-08-15T09:17:36Z</time>
      </trkpt>
      <trkpt lat="44.83598" lon="0.99997">
        <ele>72.8</ele>
        <time>2022-08-15T09:17:38Z</time>
      </trkpt>
      <trkpt lat="44.83605" lon="1.00007">
        <ele>72.9</ele>
        <time>2022-08-15T09:17:40Z</time>
      </trkpt>
      <trkpt lat="44.83611" lon="1.00017">
        <ele>73.2</ele>
        <time>2022-08-15T09:17:42Z</time>
      </trkpt>
      <trkpt lat="44.83617" lon="1.00027">
        <ele>73.2</ele>
        <time>2022-08-15T09:17:44Z</time>
      </trkpt>
      <trkpt lat="44.83623" lon="1.00038">
        <ele>73.2</ele>
        <time>2022-08-15T09:17:46Z</time>
      </trkpt>
      <trkpt lat="44.8363" lon="1.00047">
        <ele>73.1</ele>
        <time>2022-08-15T09:17:48Z</time>
      </trkpt>
      <trkpt lat="44.83636" lon="1.00057">
        <ele>72.8</ele>
        <time>2022-08-15T09:17:50Z</time>
      </trkpt>
      <trkpt lat="44.83643" lon="1.00068">
        <ele>72.2</ele>
        <time>2022-08-15T09:17:52Z</time>
      </trkpt>
      <trkpt lat="44.83649" lon="1.00078">
        <ele>71.5</ele>
        <time>2022-08-15T09:17:54Z</time>
      </trkpt>
      <trkpt lat="44.83655" lon="1.00088">
        <ele>70.9</ele>
        <time>2022-08-15T09:17:56Z</time>
      </trkpt>
      <trkpt lat="44.83662" lon="1.00098">
        <ele>70.7</ele>
        <time>2022-08-15T09:17:58Z</time>
      </trkpt>
      <trkpt lat="44.83668" lon="1.00108">
        <ele>71.1</ele>
        <time>2022-08-15T09:18:00Z</time>
      </trkpt>
      <trkpt lat="44.83676" lon="1.00118">
        <ele>72.8</ele>
        <time>2022-08-15T09:18:02Z</time>
      </trkpt>
      <trkpt lat="44.83684" lon="1.00128">
        <ele>74.3</ele>
        <time>2022-08-15T09:18:04Z</time>
      </trkpt>
      <trkpt lat="44.83691" lon="1.00139">
        <ele>75.3</ele>
        <time>2022-08-15T09:18:06Z</time>
      </trkpt>
      <trkpt lat="44.83698" lon="1.0015">
        <ele>76</ele>
        <time>2022-08-15T09:18:08Z</time>
      </trkpt>
      <trkpt lat="44.83705" lon="1.00161">
        <ele>76.5</ele>
        <time>2022-08-15T09:18:10Z</time>
      </trkpt>
      <trkpt lat="44.83712" lon="1.00171">
        <ele>77.1</ele>
        <time>2022-08-15T09:18:12Z</time>
      </trkpt>
      <trkpt lat="44.8372" lon="1.00182">
        <ele>77.2</ele>
        <time>2022-08-15T09:18:14Z</time>
      </trkpt>
      <trkpt lat="44.83727" lon="1.00192">
        <ele>77.2</ele>
        <time>2022-08-15T09:18:16Z</time>
      </trkpt>
      <trkpt lat="44.83734" lon="1.00202">
        <ele>76.7</ele>
        <time>2022-08-15T09:18:18Z</time>
      </trkpt>
      <trkpt lat="44.83742" lon="1.00213">
        <ele>75.9</ele>
        <time>2022-08-15T09:18:20Z</time>
      </trkpt>
      <trkpt lat="44.83749" lon="1.00223">
        <ele>74.7</ele>
        <time>2022-08-15T09:18:22Z</time>
      </trkpt>
      <trkpt lat="44.83757" lon="1.00233">
        <ele>75.1</ele>
        <time>2022-08-15T09:18:24Z</time>
      </trkpt>
      <trkpt lat="44.83764" lon="1.00243">
        <ele>75.5</ele>
        <time>2022-08-15T09:18:26Z</time>
      </trkpt>
      <trkpt lat="44.83772" lon="1.00253">
        <ele>76.2</ele>
        <time>2022-08-15T09:18:28Z</time>
      </trkpt>
      <trkpt lat="44.8378" lon="1.00264">
        <ele>77.4</ele>
        <time>2022-08-15T09:18:30Z</time>
      </trkpt>
      <trkpt lat="44.83787" lon="1.00274">
        <ele>78.3</ele>
        <time>2022-08-15T09:18:32Z</time>
      </trkpt>
      <trkpt lat="44.83795" lon="1.00285">
        <ele>78.6</ele>
        <time>2022-08-15T09:18:34Z</time>
      </trkpt>
      <trkpt lat="44.83803" lon="1.00295">
        <ele>78.8</ele>
        <time>2022-08-15T09:18:36Z</time>
      </trkpt>
      <trkpt lat="44.8381" lon="1.00304">
        <ele>78.7</ele>
        <time>2022-08-15T09:18:38Z</time>
      </trkpt>
      <trkpt lat="44.83818" lon="1.00314">
        <ele>78.1</ele>
        <time>2022-08-15T09:18:40Z</time>
      </trkpt>
      <trkpt lat="44.83825" lon="1.00324">
        <ele>77.1</ele>
        <time>2022-08-15T09:18:42Z</time>
      </trkpt>
      <trkpt lat="44.83833" lon="1.00334">
        <ele>75.9</ele>
        <time>2022-08-15T09:18:44Z</time>
      </trkpt>
      <trkpt lat="44.83841" lon="1.00344">
        <ele>76.9</ele>
        <time>2022-08-15T09:18:46Z</time>
      </trkpt>
      <trkpt lat="44.83848" lon="1.00354">
        <ele>77.2</ele>
        <time>2022-08-15T09:18:48Z</time>
      </trkpt>
      <trkpt lat="44.83855" lon="1.00366">
        <ele>77.2</ele>
        <time>2022-08-15T09:18:50Z</time>
      </trkpt>
      <trkpt lat="44.83863" lon="1.00375">
        <ele>77.5</ele>
        <time>2022-08-15T09:18:52Z</time>
      </trkpt>
      <trkpt lat="44.83871" lon="1.00384">
        <ele>77.4</ele>
        <time>2022-08-15T09:18:54Z</time>
      </trkpt>
      <trkpt lat="44.83878" lon="1.00395">
        <ele>76.7</ele>
        <time>2022-08-15T09:18:56Z</time>
      </trkpt>
      <trkpt lat="44.83885" lon="1.00405">
        <ele>75.8</ele>
        <time>2022-08-15T09:18:58Z</time>
      </trkpt>
      <trkpt lat="44.83892" lon="1.00415">
        <ele>74.6</ele>
        <time>2022-08-15T09:19:00Z</time>
      </trkpt>
      <trkpt lat="44.839" lon="1.00425">
        <ele>74.4</ele>
        <time>2022-08-15T09:19:02Z</time>
      </trkpt>
      <trkpt lat="44.83907" lon="1.00434">
        <ele>74.4</ele>
        <time>2022-08-15T09:19:04Z</time>
      </trkpt>
      <trkpt lat="44.83915" lon="1.00444">
        <ele>74.1</ele>
        <time>2022-08-15T09:19:06Z</time>
      </trkpt>
      <trkpt lat="44.83922" lon="1.00454">
        <ele>74.4</ele>
        <time>2022-08-15T09:19:08Z</time>
      </trkpt>
      <trkpt lat="44.83929" lon="1.00463">
        <ele>75</ele>
        <time>2022-08-15T09:19:10Z</time>
      </trkpt>
      <trkpt lat="44.83937" lon="1.00472">
        <ele>75.4</ele>
        <time>2022-08-15T09:19:12Z</time>
      </trkpt>
      <trkpt lat="44.83944" lon="1.00482">
        <ele>75.9</ele>
        <time>2022-08-15T09:19:14Z</time>
      </trkpt>
      <trkpt lat="44.83951" lon="1.00491">
        <ele>76.4</ele>
        <time>2022-08-15T09:19:16Z</time>
      </trkpt>
      <trkpt lat="44.83958" lon="1.00502">
        <ele>76.6</ele>
        <time>2022-08-15T09:19:18Z</time>
      </trkpt>
      <trkpt lat="44.83966" lon="1.00511">
        <ele>77.4</ele>
        <time>2022-08-15T09:19:20Z</time>
      </trkpt>
      <trkpt lat="44.83974" lon="1.0052">
        <ele>77.8</ele>
        <time>2022-08-15T09:19:22Z</time>
      </trkpt>
      <trkpt lat="44.83981" lon="1.00531">
        <ele>77.6</ele>
        <time>2022-08-15T09:19:24Z</time>
      </trkpt>
      <trkpt lat="44.83988" lon="1.00542">
        <ele>77</ele>
        <time>2022-08-15T09:19:26Z</time>
      </trkpt>
      <trkpt lat="44.83995" lon="1.00551">
        <ele>76.3</ele>
        <time>2022-08-15T09:19:28Z</time>
      </trkpt>
      <trkpt lat="44.84002" lon="1.00562">
        <ele>75.4</ele>
        <time>2022-08-15T09:19:30Z</time>
      </trkpt>
      <trkpt lat="44.84008" lon="1.00571">
        <ele>75.1</ele>
        <time>2022-08-15T09:19:32Z</time>
      </trkpt>
      <trkpt lat="44.84015" lon="1.00582">
        <ele>74.7</ele>
        <time>2022-08-15T09:19:34Z</time>
      </trkpt>
      <trkpt lat="44.84022" lon="1.00592">
        <ele>75.2</ele>
        <time>2022-08-15T09:19:36Z</time>
      </trkpt>
      <trkpt lat="44.84029" lon="1.00601">
        <ele>75.9</ele>
        <time>2022-08-15T09:19:38Z</time>
      </trkpt>
      <trkpt lat="44.84035" lon="1.00611">
        <ele>76.1</ele>
        <time>2022-08-15T09:19:40Z</time>
      </trkpt>
      <trkpt lat="44.84042" lon="1.00621">
        <ele>76.2</ele>
        <time>2022-08-15T09:19:42Z</time>
      </trkpt>
      <trkpt lat="44.84049" lon="1.00632">
        <ele>76.1</ele>
        <time>2022-08-15T09:19:44Z</time>
      </trkpt>
      <trkpt lat="44.84056" lon="1.00642">
        <ele>75.8</ele>
        <time>2022-08-15T09:19:46Z</time>
      </trkpt>
      <trkpt lat="44.84063" lon="1.00651">
        <ele>75.5</ele>
        <time>2022-08-15T09:19:48Z</time>
      </trkpt>
      <trkpt lat="44.8407" lon="1.00661">
        <ele>74.8</ele>
        <time>2022-08-15T09:19:50Z</time>
      </trkpt>
      <trkpt lat="44.84077" lon="1.0067">
        <ele>74.5</ele>
        <time>2022-08-15T09:19:52Z</time>
      </trkpt>
      <trkpt lat="44.84083" lon="1.00679">
        <ele>74.4</ele>
        <time>2022-08-15T09:19:54Z</time>
      </trkpt>
      <trkpt lat="44.84089" lon="1.00689">
        <ele>73.7</ele>
        <time>2022-08-15T09:19:56Z</time>
      </trkpt>
      <trkpt lat="44.84095" lon="1.00699">
        <ele>73.1</ele>
        <time>2022-08-15T09:19:58Z</time>
      </trkpt>
      <trkpt lat="44.84101" lon="1.00709">
        <ele>72.8</ele>
        <time>2022-08-15T09:20:00Z</time>
      </trkpt>
      <trkpt lat="44.84107" lon="1.00719">
        <ele>72.8</ele>
        <time>2022-08-15T09:20:02Z</time>
      </trkpt>
      <trkpt lat="44.84114" lon="1.0073">
        <ele>72.9</ele>
        <time>2022-08-15T09:20:04Z</time>
      </trkpt>
      <trkpt lat="44.84121" lon="1.00742">
        <ele>73.2</ele>
        <time>2022-08-15T09:20:06Z</time>
      </trkpt>
      <trkpt lat="44.84127" lon="1.00755">
        <ele>73.6</ele>
        <time>2022-08-15T09:20:08Z</time>
      </trkpt>
      <trkpt lat="44.84133" lon="1.00768">
        <ele>74</ele>
        <time>2022-08-15T09:20:10Z</time>
      </trkpt>
      <trkpt lat="44.8414" lon="1.00781">
        <ele>74.5</ele>
        <time>2022-08-15T09:20:12Z</time>
      </trkpt>
      <trkpt lat="44.84147" lon="1.00795">
        <ele>74.8</ele>
        <time>2022-08-15T09:20:14Z</time>
      </trkpt>
      <trkpt lat="44.84154" lon="1.00808">
        <ele>74.9</ele>
        <time>2022-08-15T09:20:16Z</time>
      </trkpt>
      <trkpt lat="44.84161" lon="1.00822">
        <ele>75.1</ele>
        <time>2022-08-15T09:20:18Z</time>
      </trkpt>
      <trkpt lat="44.84169" lon="1.00836">
        <ele>75.4</ele>
        <time>2022-08-15T09:20:20Z</time>
      </trkpt>
      <trkpt lat="44.84176" lon="1.0085">
        <ele>76.3</ele>
        <time>2022-08-15T09:20:22Z</time>
      </trkpt>
      <trkpt lat="44.84183" lon="1.00864">
        <ele>76.8</ele>
        <time>2022-08-15T09:20:24Z</time>
      </trkpt>
      <trkpt lat="44.8419" lon="1.00878">
        <ele>77.3</ele>
        <time>2022-08-15T09:20:26Z</time>
      </trkpt>
      <trkpt lat="44.84197" lon="1.00892">
        <ele>77.4</ele>
        <time>2022-08-15T09:20:28Z</time>
      </trkpt>
      <trkpt lat="44.84204" lon="1.00906">
        <ele>77.4</ele>
        <time>2022-08-15T09:20:30Z</time>
      </trkpt>
      <trkpt lat="44.84211" lon="1.0092">
        <ele>77.3</ele>
        <time>2022-08-15T09:20:32Z</time>
      </trkpt>
      <trkpt lat="44.84218" lon="1.00934">
        <ele>77</ele>
        <time>2022-08-15T09:20:34Z</time>
      </trkpt>
      <trkpt lat="44.84226" lon="1.00948">
        <ele>76.5</ele>
        <time>2022-08-15T09:20:36Z</time>
      </trkpt>
      <trkpt lat="44.84234" lon="1.00963">
        <ele>75.1</ele>
        <time>2022-08-15T09:20:38Z</time>
      </trkpt>
      <trkpt lat="44.84242" lon="1.00977">
        <ele>73.5</ele>
        <time>2022-08-15T09:20:40Z</time>
      </trkpt>
      <trkpt lat="44.84249" lon="1.00992">
        <ele>71.1</ele>
        <time>2022-08-15T09:20:42Z</time>
      </trkpt>
      <trkpt lat="44.84257" lon="1.01006">
        <ele>71</ele>
        <time>2022-08-15T09:20:44Z</time>
      </trkpt>
      <trkpt lat="44.84265" lon="1.0102">
        <ele>71.9</ele>
        <time>2022-08-15T09:20:46Z</time>
      </trkpt>
      <trkpt lat="44.84273" lon="1.01033">
        <ele>72.7</ele>
        <time>2022-08-15T09:20:48Z</time>
      </trkpt>
      <trkpt lat="44.84281" lon="1.01046">
        <ele>73.3</ele>
        <time>2022-08-15T09:20:50Z</time>
      </trkpt>
      <trkpt lat="44.84289" lon="1.01059">
        <ele>73.4</ele>
        <time>2022-08-15T09:20:52Z</time>
      </trkpt>
      <trkpt lat="44.84298" lon="1.01073">
        <ele>73</ele>
        <time>2022-08-15T09:20:54Z</time>
      </trkpt>
      <trkpt lat="44.84306" lon="1.01086">
        <ele>72.5</ele>
        <time>2022-08-15T09:20:56Z</time>
      </trkpt>
      <trkpt lat="44.84315" lon="1.01098">
        <ele>72.7</ele>
        <time>2022-08-15T09:20:58Z</time>
      </trkpt>
      <trkpt lat="44.84323" lon="1.01111">
        <ele>72.3</ele>
        <time>2022-08-15T09:21:00Z</time>
      </trkpt>
      <trkpt lat="44.84332" lon="1.01124">
        <ele>71.5</ele>
        <time>2022-08-15T09:21:02Z</time>
      </trkpt>
      <trkpt lat="44.84341" lon="1.01137">
        <ele>71.8</ele>
        <time>2022-08-15T09:21:04Z</time>
      </trkpt>
      <trkpt lat="44.8435" lon="1.01149">
        <ele>72.3</ele>
        <time>2022-08-15T09:21:06Z</time>
      </trkpt>
      <trkpt lat="44.84359" lon="1.01162">
        <ele>72.4</ele>
        <time>2022-08-15T09:21:08Z</time>
      </trkpt>
      <trkpt lat="44.84368" lon="1.01174">
        <ele>72.9</ele>
        <time>2022-08-15T09:21:10Z</time>
      </trkpt>
      <trkpt lat="44.84376" lon="1.01186">
        <ele>73.3</ele>
        <time>2022-08-15T09:21:12Z</time>
      </trkpt>
      <trkpt lat="44.84384" lon="1.01198">
        <ele>73.3</ele>
        <time>2022-08-15T09:21:14Z</time>
      </trkpt>
      <trkpt lat="44.84392" lon="1.0121">
        <ele>72.7</ele>
        <time>2022-08-15T09:21:16Z</time>
      </trkpt>
      <trkpt lat="44.844" lon="1.01221">
        <ele>71.8</ele>
        <time>2022-08-15T09:21:18Z</time>
      </trkpt>
      <trkpt lat="44.84407" lon="1.01232">
        <ele>70.4</ele>
        <time>2022-08-15T09:21:20Z</time>
      </trkpt>
      <trkpt lat="44.84415" lon="1.01243">
        <ele>68.7</ele>
        <time>2022-08-15T09:21:22Z</time>
      </trkpt>
      <trkpt lat="44.84422" lon="1.01253">
        <ele>67.1</ele>
        <time>2022-08-15T09:21:24Z</time>
      </trkpt>
      <trkpt lat="44.84429" lon="1.01265">
        <ele>66.7</ele>
        <time>2022-08-15T09:21:26Z</time>
      </trkpt>
      <trkpt lat="44.84436" lon="1.01276">
        <ele>66.4</ele>
        <time>2022-08-15T09:21:28Z</time>
      </trkpt>
      <trkpt lat="44.84442" lon="1.01287">
        <ele>66.1</ele>
        <time>2022-08-15T09:21:30Z</time>
      </trkpt>
      <trkpt lat="44.84449" lon="1.01299">
        <ele>65.9</ele>
        <time>2022-08-15T09:21:32Z</time>
      </trkpt>
      <trkpt lat="44.84456" lon="1.01309">
        <ele>65.7</ele>
        <time>2022-08-15T09:21:34Z</time>
      </trkpt>
      <trkpt lat="44.84461" lon="1.01321">
        <ele>65.5</ele>
        <time>2022-08-15T09:21:36Z</time>
      </trkpt>
      <trkpt lat="44.84467" lon="1.01331">
        <ele>65.4</ele>
        <time>2022-08-15T09:21:38Z</time>
      </trkpt>
      <trkpt lat="44.84473" lon="1.01341">
        <ele>65.6</ele>
        <time>2022-08-15T09:21:40Z</time>
      </trkpt>
      <trkpt lat="44.84478" lon="1.0135">
        <ele>65.9</ele>
        <time>2022-08-15T09:21:42Z</time>
      </trkpt>
      <trkpt lat="44.84482" lon="1.0136">
        <ele>66.2</ele>
        <time>2022-08-15T09:21:44Z</time>
      </trkpt>
      <trkpt lat="44.84487" lon="1.01371">
        <ele>66.4</ele>
        <time>2022-08-15T09:21:46Z</time>
      </trkpt>
      <trkpt lat="44.84492" lon="1.01382">
        <ele>66.7</ele>
        <time>2022-08-15T09:21:48Z</time>
      </trkpt>
      <trkpt lat="44.84497" lon="1.01393">
        <ele>67</ele>
        <time>2022-08-15T09:21:50Z</time>
      </trkpt>
      <trkpt lat="44.84502" lon="1.01404">
        <ele>68</ele>
        <time>2022-08-15T09:21:52Z</time>
      </trkpt>
      <trkpt lat="44.84508" lon="1.01416">
        <ele>69.8</ele>
        <time>2022-08-15T09:21:54Z</time>
      </trkpt>
      <trkpt lat="44.84513" lon="1.01427">
        <ele>71</ele>
        <time>2022-08-15T09:21:56Z</time>
      </trkpt>
      <trkpt lat="44.84519" lon="1.01439">
        <ele>71.9</ele>
        <time>2022-08-15T09:21:58Z</time>
      </trkpt>
      <trkpt lat="44.84524" lon="1.0145">
        <ele>72.5</ele>
        <time>2022-08-15T09:22:00Z</time>
      </trkpt>
      <trkpt lat="44.8453" lon="1.01462">
        <ele>73.1</ele>
        <time>2022-08-15T09:22:02Z</time>
      </trkpt>
      <trkpt lat="44.84536" lon="1.01474">
        <ele>73.4</ele>
        <time>2022-08-15T09:22:04Z</time>
      </trkpt>
      <trkpt lat="44.84542" lon="1.01485">
        <ele>73.5</ele>
        <time>2022-08-15T09:22:06Z</time>
      </trkpt>
      <trkpt lat="44.84548" lon="1.01496">
        <ele>73.5</ele>
        <time>2022-08-15T09:22:08Z</time>
      </trkpt>
      <trkpt lat="44.84554" lon="1.01507">
        <ele>73.4</ele>
        <time>2022-08-15T09:22:10Z</time>
      </trkpt>
      <trkpt lat="44.84561" lon="1.01518">
        <ele>73</ele>
        <time>2022-08-15T09:22:12Z</time>
      </trkpt>
      <trkpt lat="44.84567" lon="1.0153">
        <ele>72.4</ele>
        <time>2022-08-15T09:22:14Z</time>
      </trkpt>
      <trkpt lat="44.84574" lon="1.01539">
        <ele>71.9</ele>
        <time>2022-08-15T09:22:16Z</time>
      </trkpt>
      <trkpt lat="44.84581" lon="1.01549">
        <ele>71.2</ele>
        <time>2022-08-15T09:22:18Z</time>
      </trkpt>
      <trkpt lat="44.84587" lon="1.0156">
        <ele>71</ele>
        <time>2022-08-15T09:22:20Z</time>
      </trkpt>
      <trkpt lat="44.84595" lon="1.01571">
        <ele>71.3</ele>
        <time>2022-08-15T09:22:22Z</time>
      </trkpt>
      <trkpt lat="44.84603" lon="1.0158">
        <ele>71.9</ele>
        <time>2022-08-15T09:22:24Z</time>
      </trkpt>
      <trkpt lat="44.84611" lon="1.01591">
        <ele>72.9</ele>
        <time>2022-08-15T09:22:26Z</time>
      </trkpt>
      <trkpt lat="44.84619" lon="1.01602">
        <ele>73.8</ele>
        <time>2022-08-15T09:22:28Z</time>
      </trkpt>
      <trkpt lat="44.84626" lon="1.01612">
        <ele>74.4</ele>
        <time>2022-08-15T09:22:30Z</time>
      </trkpt>
      <trkpt lat="44.84634" lon="1.01623">
        <ele>74.5</ele>
        <time>2022-08-15T09:22:32Z</time>
      </trkpt>
      <trkpt lat="44.84642" lon="1.01634">
        <ele>74.1</ele>
        <time>2022-08-15T09:22:34Z</time>
      </trkpt>
      <trkpt lat="44.8465" lon="1.01644">
        <ele>73.4</ele>
        <time>2022-08-15T09:22:36Z</time>
      </trkpt>
      <trkpt lat="44.84658" lon="1.01655">
        <ele>72.4</ele>
        <time>2022-08-15T09:22:38Z</time>
      </trkpt>
      <trkpt lat="44.84666" lon="1.01666">
        <ele>71</ele>
        <time>2022-08-15T09:22:40Z</time>
      </trkpt>
      <trkpt lat="44.84674" lon="1.01676">
        <ele>72</ele>
        <time>2022-08-15T09:22:42Z</time>
      </trkpt>
      <trkpt lat="44.84682" lon="1.01687">
        <ele>72.7</ele>
        <time>2022-08-15T09:22:44Z</time>
      </trkpt>
      <trkpt lat="44.84691" lon="1.01698">
        <ele>73.2</ele>
        <time>2022-08-15T09:22:46Z</time>
      </trkpt>
      <trkpt lat="44.84699" lon="1.01709">
        <ele>73.4</ele>
        <time>2022-08-15T09:22:48Z</time>
      </trkpt>
      <trkpt lat="44.84708" lon="1.01719">
        <ele>73.2</ele>
        <time>2022-08-15T09:22:50Z</time>
      </trkpt>
      <trkpt lat="44.84716" lon="1.01729">
        <ele>72.8</ele>
        <time>2022-08-15T09:22:52Z</time>
      </trkpt>
      <trkpt lat="44.84725" lon="1.01737">
        <ele>72.5</ele>
        <time>2022-08-15T09:22:54Z</time>
      </trkpt>
      <trkpt lat="44.84733" lon="1.01747">
        <ele>71.3</ele>
        <time>2022-08-15T09:22:56Z</time>
      </trkpt>
      <trkpt lat="44.84742" lon="1.01756">
        <ele>70.9</ele>
        <time>2022-08-15T09:22:58Z</time>
      </trkpt>
      <trkpt lat="44.84751" lon="1.01766">
        <ele>70.7</ele>
        <time>2022-08-15T09:23:00Z</time>
      </trkpt>
      <trkpt lat="44.8476" lon="1.01776">
        <ele>70.8</ele>
        <time>2022-08-15T09:23:02Z</time>
      </trkpt>
      <trkpt lat="44.84768" lon="1.01785">
        <ele>70.8</ele>
        <time>2022-08-15T09:23:04Z</time>
      </trkpt>
      <trkpt lat="44.84778" lon="1.01794">
        <ele>70.9</ele>
        <time>2022-08-15T09:23:06Z</time>
      </trkpt>
      <trkpt lat="44.84786" lon="1.01803">
        <ele>70.6</ele>
        <time>2022-08-15T09:23:08Z</time>
      </trkpt>
      <trkpt lat="44.84795" lon="1.01812">
        <ele>70.3</ele>
        <time>2022-08-15T09:23:10Z</time>
      </trkpt>
      <trkpt lat="44.84803" lon="1.01819">
        <ele>70</ele>
        <time>2022-08-15T09:23:12Z</time>
      </trkpt>
      <trkpt lat="44.84812" lon="1.01828">
        <ele>69.4</ele>
        <time>2022-08-15T09:23:14Z</time>
      </trkpt>
      <trkpt lat="44.84819" lon="1.01836">
        <ele>68.9</ele>
        <time>2022-08-15T09:23:16Z</time>
      </trkpt>
      <trkpt lat="44.84827" lon="1.01844">
        <ele>69.2</ele>
        <time>2022-08-15T09:23:18Z</time>
      </trkpt>
      <trkpt lat="44.84835" lon="1.01852">
        <ele>69.6</ele>
        <time>2022-08-15T09:23:20Z</time>
      </trkpt>
      <trkpt lat="44.84843" lon="1.0186">
        <ele>70.3</ele>
        <time>2022-08-15T09:23:22Z</time>
      </trkpt>
      <trkpt lat="44.84852" lon="1.01867">
        <ele>71</ele>
        <time>2022-08-15T09:23:24Z</time>
      </trkpt>
      <trkpt lat="44.8486" lon="1.01874">
        <ele>71.3</ele>
        <time>2022-08-15T09:23:26Z</time>
      </trkpt>
      <trkpt lat="44.84868" lon="1.01881">
        <ele>71.3</ele>
        <time>2022-08-15T09:23:28Z</time>
      </trkpt>
      <trkpt lat="44.84875" lon="1.01888">
        <ele>71.1</ele>
        <time>2022-08-15T09:23:30Z</time>
      </trkpt>
      <trkpt lat="44.84883" lon="1.01894">
        <ele>70.8</ele>
        <time>2022-08-15T09:23:32Z</time>
      </trkpt>
      <trkpt lat="44.84891" lon="1.01901">
        <ele>70.1</ele>
        <time>2022-08-15T09:23:34Z</time>
      </trkpt>
      <trkpt lat="44.84898" lon="1.01907">
        <ele>69.4</ele>
        <time>2022-08-15T09:23:36Z</time>
      </trkpt>
      <trkpt lat="44.84906" lon="1.01912">
        <ele>68.6</ele>
        <time>2022-08-15T09:23:38Z</time>
      </trkpt>
      <trkpt lat="44.84914" lon="1.01918">
        <ele>67.7</ele>
        <time>2022-08-15T09:23:40Z</time>
      </trkpt>
      <trkpt lat="44.84921" lon="1.01923">
        <ele>68.4</ele>
        <time>2022-08-15T09:23:42Z</time>
      </trkpt>
      <trkpt lat="44.8493" lon="1.01926">
        <ele>70.4</ele>
        <time>2022-08-15T09:23:44Z</time>
      </trkpt>
      <trkpt lat="44.8494" lon="1.01928">
        <ele>72.5</ele>
        <time>2022-08-15T09:23:46Z</time>
      </trkpt>
      <trkpt lat="44.8495" lon="1.01929">
        <ele>74.6</ele>
        <time>2022-08-15T09:23:48Z</time>
      </trkpt>
      <trkpt lat="44.8496" lon="1.0193">
        <ele>77</ele>
        <time>2022-08-15T09:23:50Z</time>
      </trkpt>
      <trkpt lat="44.8497" lon="1.01931">
        <ele>79.3</ele>
        <time>2022-08-15T09:23:52Z</time>
      </trkpt>
      <trkpt lat="44.84979" lon="1.01932">
        <ele>81.2</ele>
        <time>2022-08-15T09:23:54Z</time>
      </trkpt>
      <trkpt lat="44.84989" lon="1.01932">
        <ele>83.5</ele>
        <time>2022-08-15T09:23:56Z</time>
      </trkpt>
      <trkpt lat="44.85" lon="1.01935">
        <ele>85.3</ele>
        <time>2022-08-15T09:23:58Z</time>
      </trkpt>
      <trkpt lat="44.85011" lon="1.01937">
        <ele>86.3</ele>
        <time>2022-08-15T09:24:00Z</time>
      </trkpt>
      <trkpt lat="44.85022" lon="1.01942">
        <ele>86.1</ele>
        <time>2022-08-15T09:24:02Z</time>
      </trkpt>
      <trkpt lat="44.85032" lon="1.01947">
        <ele>85.8</ele>
        <time>2022-08-15T09:24:04Z</time>
      </trkpt>
      <trkpt lat="44.85043" lon="1.01951">
        <ele>85.6</ele>
        <time>2022-08-15T09:24:06Z</time>
      </trkpt>
      <trkpt lat="44.85054" lon="1.01955">
        <ele>85.4</ele>
        <time>2022-08-15T09:24:08Z</time>
      </trkpt>
      <trkpt lat="44.85065" lon="1.01957">
        <ele>86.2</ele>
        <time>2022-08-15T09:24:10Z</time>
      </trkpt>
      <trkpt lat="44.85076" lon="1.01957">
        <ele>87.1</ele>
        <time>2022-08-15T09:24:12Z</time>
      </trkpt>
      <trkpt lat="44.85087" lon="1.0196">
        <ele>87</ele>
        <time>2022-08-15T09:24:14Z</time>
      </trkpt>
      <trkpt lat="44.85098" lon="1.01961">
        <ele>86.6</ele>
        <time>2022-08-15T09:24:16Z</time>
      </trkpt>
      <trkpt lat="44.85108" lon="1.01963">
        <ele>85.9</ele>
        <time>2022-08-15T09:24:18Z</time>
      </trkpt>
      <trkpt lat="44.85119" lon="1.01966">
        <ele>84.9</ele>
        <time>2022-08-15T09:24:20Z</time>
      </trkpt>
      <trkpt lat="44.8513" lon="1.01969">
        <ele>83.7</ele>
        <time>2022-08-15T09:24:22Z</time>
      </trkpt>
      <trkpt lat="44.85141" lon="1.01973">
        <ele>82.4</ele>
        <time>2022-08-15T09:24:24Z</time>
      </trkpt>
      <trkpt lat="44.85151" lon="1.01976">
        <ele>81.2</ele>
        <time>2022-08-15T09:24:26Z</time>
      </trkpt>
      <trkpt lat="44.85162" lon="1.0198">
        <ele>79.6</ele>
        <time>2022-08-15T09:24:28Z</time>
      </trkpt>
      <trkpt lat="44.85172" lon="1.01983">
        <ele>78.2</ele>
        <time>2022-08-15T09:24:30Z</time>
      </trkpt>
      <trkpt lat="44.85182" lon="1.01986">
        <ele>76.8</ele>
        <time>2022-08-15T09:24:32Z</time>
      </trkpt>
      <trkpt lat="44.85191" lon="1.01989">
        <ele>75.5</ele>
        <time>2022-08-15T09:24:34Z</time>
      </trkpt>
      <trkpt lat="44.852" lon="1.01991">
        <ele>74.9</ele>
        <time>2022-08-15T09:24:36Z</time>
      </trkpt>
      <trkpt lat="44.85209" lon="1.01992">
        <ele>74.3</ele>
        <time>2022-08-15T09:24:38Z</time>
      </trkpt>
      <trkpt lat="44.85219" lon="1.01991">
        <ele>74.7</ele>
        <time>2022-08-15T09:24:40Z</time>
      </trkpt>
      <trkpt lat="44.85228" lon="1.01986">
        <ele>75.7</ele>
        <time>2022-08-15T09:24:42Z</time>
      </trkpt>
      <trkpt lat="44.85238" lon="1.01983">
        <ele>76.1</ele>
        <time>2022-08-15T09:24:44Z</time>
      </trkpt>
      <trkpt lat="44.85247" lon="1.01978">
        <ele>76.6</ele>
        <time>2022-08-15T09:24:46Z</time>
      </trkpt>
      <trkpt lat="44.85256" lon="1.01974">
        <ele>76.8</ele>
        <time>2022-08-15T09:24:48Z</time>
      </trkpt>
      <trkpt lat="44.85265" lon="1.01973">
        <ele>76.6</ele>
        <time>2022-08-15T09:24:50Z</time>
      </trkpt>
      <trkpt lat="44.85273" lon="1.01976">
        <ele>75.8</ele>
        <time>2022-08-15T09:24:52Z</time>
      </trkpt>
      <trkpt lat="44.85283" lon="1.01982">
        <ele>74.5</ele>
        <time>2022-08-15T09:24:54Z</time>
      </trkpt>
      <trkpt lat="44.85293" lon="1.01986">
        <ele>73.5</ele>
        <time>2022-08-15T09:24:56Z</time>
      </trkpt>
      <trkpt lat="44.85303" lon="1.01989">
        <ele>72.7</ele>
        <time>2022-08-15T09:24:58Z</time>
      </trkpt>
      <trkpt lat="44.85312" lon="1.0199">
        <ele>72.3</ele>
        <time>2022-08-15T09:25:00Z</time>
      </trkpt>
      <trkpt lat="44.85322" lon="1.0199">
        <ele>71.9</ele>
        <time>2022-08-15T09:25:02Z</time>
      </trkpt>
      <trkpt lat="44.85331" lon="1.0199">
        <ele>71.5</ele>
        <time>2022-08-15T09:25:04Z</time>
      </trkpt>
      <trkpt lat="44.85341" lon="1.0199">
        <ele>72.4</ele>
        <time>2022-08-15T09:25:06Z</time>
      </trkpt>
      <trkpt lat="44.8535" lon="1.01991">
        <ele>73.5</ele>
        <time>2022-08-15T09:25:08Z</time>
      </trkpt>
      <trkpt lat="44.85358" lon="1.01991">
        <ele>74.7</ele>
        <time>2022-08-15T09:25:10Z</time>
      </trkpt>
      <trkpt lat="44.85367" lon="1.01993">
        <ele>75.4</ele>
        <time>2022-08-15T09:25:12Z</time>
      </trkpt>
      <trkpt lat="44.85375" lon="1.01995">
        <ele>76</ele>
        <time>2022-08-15T09:25:14Z</time>
      </trkpt>
      <trkpt lat="44.85385" lon="1.01998">
        <ele>76.7</ele>
        <time>2022-08-15T09:25:16Z</time>
      </trkpt>
      <trkpt lat="44.85393" lon="1.02">
        <ele>77.1</ele>
        <time>2022-08-15T09:25:18Z</time>
      </trkpt>
      <trkpt lat="44.85402" lon="1.02003">
        <ele>77.7</ele>
        <time>2022-08-15T09:25:20Z</time>
      </trkpt>
      <trkpt lat="44.85411" lon="1.02006">
        <ele>78.1</ele>
        <time>2022-08-15T09:25:22Z</time>
      </trkpt>
      <trkpt lat="44.8542" lon="1.02009">
        <ele>78.8</ele>
        <time>2022-08-15T09:25:24Z</time>
      </trkpt>
      <trkpt lat="44.85428" lon="1.02012">
        <ele>79.5</ele>
        <time>2022-08-15T09:25:26Z</time>
      </trkpt>
      <trkpt lat="44.85437" lon="1.02015">
        <ele>80</ele>
        <time>2022-08-15T09:25:28Z</time>
      </trkpt>
      <trkpt lat="44.85446" lon="1.02018">
        <ele>80.8</ele>
        <time>2022-08-15T09:25:30Z</time>
      </trkpt>
      <trkpt lat="44.85456" lon="1.0202">
        <ele>81.4</ele>
        <time>2022-08-15T09:25:32Z</time>
      </trkpt>
      <trkpt lat="44.85465" lon="1.02023">
        <ele>82.1</ele>
        <time>2022-08-15T09:25:34Z</time>
      </trkpt>
      <trkpt lat="44.85475" lon="1.02025">
        <ele>82.5</ele>
        <time>2022-08-15T09:25:36Z</time>
      </trkpt>
      <trkpt lat="44.85485" lon="1.02028">
        <ele>83</ele>
        <time>2022-08-15T09:25:38Z</time>
      </trkpt>
      <trkpt lat="44.85494" lon="1.02032">
        <ele>83</ele>
        <time>2022-08-15T09:25:40Z</time>
      </trkpt>
      <trkpt lat="44.85503" lon="1.02037">
        <ele>82.7</ele>
        <time>2022-08-15T09:25:42Z</time>
      </trkpt>
      <trkpt lat="44.85512" lon="1.02041">
        <ele>82.7</ele>
        <time>2022-08-15T09:25:44Z</time>
      </trkpt>
      <trkpt lat="44.85522" lon="1.02047">
        <ele>82.3</ele>
        <time>2022-08-15T09:25:46Z</time>
      </trkpt>
      <trkpt lat="44.85531" lon="1.02052">
        <ele>81.7</ele>
        <time>2022-08-15T09:25:48Z</time>
      </trkpt>
      <trkpt lat="44.85541" lon="1.02057">
        <ele>80.7</ele>
        <time>2022-08-15T09:25:50Z</time>
      </trkpt>
      <trkpt lat="44.85551" lon="1.02064">
        <ele>79</ele>
        <time>2022-08-15T09:25:52Z</time>
      </trkpt>
      <trkpt lat="44.8556" lon="1.0207">
        <ele>77.3</ele>
        <time>2022-08-15T09:25:54Z</time>
      </trkpt>
      <trkpt lat="44.8557" lon="1.02077">
        <ele>75.1</ele>
        <time>2022-08-15T09:25:56Z</time>
      </trkpt>
      <trkpt lat="44.85579" lon="1.02084">
        <ele>72.6</ele>
        <time>2022-08-15T09:25:58Z</time>
      </trkpt>
      <trkpt lat="44.85588" lon="1.0209">
        <ele>73.2</ele>
        <time>2022-08-15T09:26:00Z</time>
      </trkpt>
      <trkpt lat="44.85598" lon="1.021">
        <ele>73.9</ele>
        <time>2022-08-15T09:26:02Z</time>
      </trkpt>
      <trkpt lat="44.85607" lon="1.02108">
        <ele>74.3</ele>
        <time>2022-08-15T09:26:04Z</time>
      </trkpt>
      <trkpt lat="44.85616" lon="1.02116">
        <ele>74.5</ele>
        <time>2022-08-15T09:26:06Z</time>
      </trkpt>
      <trkpt lat="44.85625" lon="1.02125">
        <ele>74.1</ele>
        <time>2022-08-15T09:26:08Z</time>
      </trkpt>
      <trkpt lat="44.85634" lon="1.02132">
        <ele>73.6</ele>
        <time>2022-08-15T09:26:10Z</time>
      </trkpt>
      <trkpt lat="44.85643" lon="1.02142">
        <ele>72.3</ele>
        <time>2022-08-15T09:26:12Z</time>
      </trkpt>
      <trkpt lat="44.85652" lon="1.0215">
        <ele>71</ele>
        <time>2022-08-15T09:26:14Z</time>
      </trkpt>
      <trkpt lat="44.85662" lon="1.02157">
        <ele>69.6</ele>
        <time>2022-08-15T09:26:16Z</time>
      </trkpt>
      <trkpt lat="44.85671" lon="1.02165">
        <ele>68.3</ele>
        <time>2022-08-15T09:26:18Z</time>
      </trkpt>
      <trkpt lat="44.85681" lon="1.02172">
        <ele>68.8</ele>
        <time>2022-08-15T09:26:20Z</time>
      </trkpt>
      <trkpt lat="44.85691" lon="1.02177">
        <ele>69.7</ele>
        <time>2022-08-15T09:26:22Z</time>
      </trkpt>
      <trkpt lat="44.85701" lon="1.02182">
        <ele>70.4</ele>
        <time>2022-08-15T09:26:24Z</time>
      </trkpt>
      <trkpt lat="44.85711" lon="1.02187">
        <ele>70.9</ele>
        <time>2022-08-15T09:26:26Z</time>
      </trkpt>
      <trkpt lat="44.85721" lon="1.02192">
        <ele>71.3</ele>
        <time>2022-08-15T09:26:28Z</time>
      </trkpt>
      <trkpt lat="44.85732" lon="1.02196">
        <ele>71.6</ele>
        <time>2022-08-15T09:26:30Z</time>
      </trkpt>
      <trkpt lat="44.85742" lon="1.02201">
        <ele>71.5</ele>
        <time>2022-08-15T09:26:32Z</time>
      </trkpt>
      <trkpt lat="44.85752" lon="1.02205">
        <ele>71.5</ele>
        <time>2022-08-15T09:26:34Z</time>
      </trkpt>
      <trkpt lat="44.85762" lon="1.02211">
        <ele>71.5</ele>
        <time>2022-08-15T09:26:36Z</time>
      </trkpt>
      <trkpt lat="44.85772" lon="1.02215">
        <ele>71.5</ele>
        <time>2022-08-15T09:26:38Z</time>
      </trkpt>
      <trkpt lat="44.85781" lon="1.0222">
        <ele>71.2</ele>
        <time>2022-08-15T09:26:40Z</time>
      </trkpt>
      <trkpt lat="44.8579" lon="1.02225">
        <ele>70.9</ele>
        <time>2022-08-15T09:26:42Z</time>
      </trkpt>
      <trkpt lat="44.858" lon="1.02229">
        <ele>70.5</ele>
        <time>2022-08-15T09:26:44Z</time>
      </trkpt>
      <trkpt lat="44.8581" lon="1.02234">
        <ele>70</ele>
        <time>2022-08-15T09:26:46Z</time>
      </trkpt>
      <trkpt lat="44.85819" lon="1.02238">
        <ele>69.4</ele>
        <time>2022-08-15T09:26:48Z</time>
      </trkpt>
      <trkpt lat="44.85829" lon="1.02242">
        <ele>68.5</ele>
        <time>2022-08-15T09:26:50Z</time>
      </trkpt>
      <trkpt lat="44.85838" lon="1.02247">
        <ele>68.1</ele>
        <time>2022-08-15T09:26:52Z</time>
      </trkpt>
      <trkpt lat="44.85848" lon="1.02251">
        <ele>68.1</ele>
        <time>2022-08-15T09:26:54Z</time>
      </trkpt>
      <trkpt lat="44.85857" lon="1.02256">
        <ele>68.9</ele>
        <time>2022-08-15T09:26:56Z</time>
      </trkpt>
      <trkpt lat="44.85866" lon="1.0226">
        <ele>69.7</ele>
        <time>2022-08-15T09:26:58Z</time>
      </trkpt>
      <trkpt lat="44.85875" lon="1.02265">
        <ele>70.3</ele>
        <time>2022-08-15T09:27:00Z</time>
      </trkpt>
      <trkpt lat="44.85884" lon="1.02269">
        <ele>71</ele>
        <time>2022-08-15T09:27:02Z</time>
      </trkpt>
      <trkpt lat="44.85894" lon="1.02273">
        <ele>71.6</ele>
        <time>2022-08-15T09:27:04Z</time>
      </trkpt>
      <trkpt lat="44.85904" lon="1.02277">
        <ele>72.3</ele>
        <time>2022-08-15T09:27:06Z</time>
      </trkpt>
      <trkpt lat="44.85913" lon="1.02282">
        <ele>72.4</ele>
        <time>2022-08-15T09:27:08Z</time>
      </trkpt>
      <trkpt lat="44.85923" lon="1.02287">
        <ele>72.7</ele>
        <time>2022-08-15T09:27:10Z</time>
      </trkpt>
      <trkpt lat="44.85932" lon="1.02292">
        <ele>73</ele>
        <time>2022-08-15T09:27:12Z</time>
      </trkpt>
      <trkpt lat="44.85942" lon="1.02297">
        <ele>73</ele>
        <time>2022-08-15T09:27:14Z</time>
      </trkpt>
      <trkpt lat="44.85952" lon="1.02301">
        <ele>72.9</ele>
        <time>2022-08-15T09:27:16Z</time>
      </trkpt>
      <trkpt lat="44.85962" lon="1.02306">
        <ele>72.7</ele>
        <time>2022-08-15T09:27:18Z</time>
      </trkpt>
      <trkpt lat="44.85972" lon="1.0231">
        <ele>72.2</ele>
        <time>2022-08-15T09:27:20Z</time>
      </trkpt>
      <trkpt lat="44.85982" lon="1.02314">
        <ele>71.6</ele>
        <time>2022-08-15T09:27:22Z</time>
      </trkpt>
      <trkpt lat="44.85992" lon="1.02319">
        <ele>70.8</ele>
        <time>2022-08-15T09:27:24Z</time>
      </trkpt>
      <trkpt lat="44.86002" lon="1.02323">
        <ele>70</ele>
        <time>2022-08-15T09:27:26Z</time>
      </trkpt>
      <trkpt lat="44.86012" lon="1.02328">
        <ele>69.5</ele>
        <time>2022-08-15T09:27:28Z</time>
      </trkpt>
      <trkpt lat="44.86022" lon="1.02333">
        <ele>68.6</ele>
        <time>2022-08-15T09:27:30Z</time>
      </trkpt>
      <trkpt lat="44.86032" lon="1.02338">
        <ele>69</ele>
        <time>2022-08-15T09:27:32Z</time>
      </trkpt>
      <trkpt lat="44.86042" lon="1.02342">
        <ele>69.4</ele>
        <time>2022-08-15T09:27:34Z</time>
      </trkpt>
      <trkpt lat="44.86052" lon="1.02347">
        <ele>69.7</ele>
        <time>2022-08-15T09:27:36Z</time>
      </trkpt>
      <trkpt lat="44.86062" lon="1.02352">
        <ele>69.9</ele>
        <time>2022-08-15T09:27:38Z</time>
      </trkpt>
      <trkpt lat="44.86072" lon="1.02356">
        <ele>70</ele>
        <time>2022-08-15T09:27:40Z</time>
      </trkpt>
      <trkpt lat="44.86082" lon="1.02361">
        <ele>69.9</ele>
        <time>2022-08-15T09:27:42Z</time>
      </trkpt>
      <trkpt lat="44.86091" lon="1.02366">
        <ele>70.1</ele>
        <time>2022-08-15T09:27:44Z</time>
      </trkpt>
      <trkpt lat="44.86101" lon="1.02371">
        <ele>70.3</ele>
        <time>2022-08-15T09:27:46Z</time>
      </trkpt>
      <trkpt lat="44.86111" lon="1.02376">
        <ele>70.4</ele>
        <time>2022-08-15T09:27:48Z</time>
      </trkpt>
      <trkpt lat="44.86121" lon="1.0238">
        <ele>70.5</ele>
        <time>2022-08-15T09:27:50Z</time>
      </trkpt>
      <trkpt lat="44.86131" lon="1.02384">
        <ele>70.5</ele>
        <time>2022-08-15T09:27:52Z</time>
      </trkpt>
      <trkpt lat="44.86141" lon="1.02389">
        <ele>70.5</ele>
        <time>2022-08-15T09:27:54Z</time>
      </trkpt>
      <trkpt lat="44.8615" lon="1.02393">
        <ele>70.4</ele>
        <time>2022-08-15T09:27:56Z</time>
      </trkpt>
      <trkpt lat="44.8616" lon="1.02398">
        <ele>70.2</ele>
        <time>2022-08-15T09:27:58Z</time>
      </trkpt>
      <trkpt lat="44.8617" lon="1.02402">
        <ele>70.2</ele>
        <time>2022-08-15T09:28:00Z</time>
      </trkpt>
      <trkpt lat="44.8618" lon="1.02406">
        <ele>70.4</ele>
        <time>2022-08-15T09:28:02Z</time>
      </trkpt>
      <trkpt lat="44.86189" lon="1.02411">
        <ele>70.4</ele>
        <time>2022-08-15T09:28:04Z</time>
      </trkpt>
      <trkpt lat="44.86198" lon="1.02416">
        <ele>70</ele>
        <time>2022-08-15T09:28:06Z</time>
      </trkpt>
      <trkpt lat="44.86208" lon="1.0242">
        <ele>70.5</ele>
        <time>2022-08-15T09:28:08Z</time>
      </trkpt>
      <trkpt lat="44.86217" lon="1.02425">
        <ele>70.9</ele>
        <time>2022-08-15T09:28:10Z</time>
      </trkpt>
      <trkpt lat="44.86226" lon="1.02429">
        <ele>71.3</ele>
        <time>2022-08-15T09:28:12Z</time>
      </trkpt>
      <trkpt lat="44.86235" lon="1.02434">
        <ele>71.6</ele>
        <time>2022-08-15T09:28:14Z</time>
      </trkpt>
      <trkpt lat="44.86244" lon="1.02438">
        <ele>71.9</ele>
        <time>2022-08-15T09:28:16Z</time>
      </trkpt>
      <trkpt lat="44.86254" lon="1.02442">
        <ele>72.5</ele>
        <time>2022-08-15T09:28:18Z</time>
      </trkpt>
      <trkpt lat="44.86263" lon="1.02446">
        <ele>73.8</ele>
        <time>2022-08-15T09:28:20Z</time>
      </trkpt>
      <trkpt lat="44.86272" lon="1.02451">
        <ele>74.7</ele>
        <time>2022-08-15T09:28:22Z</time>
      </trkpt>
      <trkpt lat="44.86281" lon="1.02455">
        <ele>75.4</ele>
        <time>2022-08-15T09:28:24Z</time>
      </trkpt>
      <trkpt lat="44.8629" lon="1.02458">
        <ele>76.4</ele>
        <time>2022-08-15T09:28:26Z</time>
      </trkpt>
      <trkpt lat="44.86299" lon="1.02463">
        <ele>77</ele>
        <time>2022-08-15T09:28:28Z</time>
      </trkpt>
      <trkpt lat="44.86308" lon="1.02468">
        <ele>77.2</ele>
        <time>2022-08-15T09:28:30Z</time>
      </trkpt>
      <trkpt lat="44.86318" lon="1.02472">
        <ele>77.5</ele>
        <time>2022-08-15T09:28:32Z</time>
      </trkpt>
      <trkpt lat="44.86328" lon="1.02477">
        <ele>77.6</ele>
        <time>2022-08-15T09:28:34Z</time>
      </trkpt>
      <trkpt lat="44.86337" lon="1.02482">
        <ele>77.5</ele>
        <time>2022-08-15T09:28:36Z</time>
      </trkpt>
      <trkpt lat="44.86347" lon="1.02488">
        <ele>77.4</ele>
        <time>2022-08-15T09:28:38Z</time>
      </trkpt>
      <trkpt lat="44.86356" lon="1.02494">
        <ele>77</ele>
        <time>2022-08-15T09:28:40Z</time>
      </trkpt>
      <trkpt lat="44.86366" lon="1.02499">
        <ele>76.8</ele>
        <time>2022-08-15T09:28:42Z</time>
      </trkpt>
      <trkpt lat="44.86376" lon="1.02506">
        <ele>77</ele>
        <time>2022-08-15T09:28:44Z</time>
      </trkpt>
      <trkpt lat="44.86386" lon="1.02512">
        <ele>77.1</ele>
        <time>2022-08-15T09:28:46Z</time>
      </trkpt>
      <trkpt lat="44.86395" lon="1.02519">
        <ele>77</ele>
        <time>2022-08-15T09:28:48Z</time>
      </trkpt>
      <trkpt lat="44.86404" lon="1.02526">
        <ele>76.6</ele>
        <time>2022-08-15T09:28:50Z</time>
      </trkpt>
      <trkpt lat="44.86413" lon="1.02533">
        <ele>76</ele>
        <time>2022-08-15T09:28:52Z</time>
      </trkpt>
      <trkpt lat="44.86422" lon="1.0254">
        <ele>74.7</ele>
        <time>2022-08-15T09:28:54Z</time>
      </trkpt>
      <trkpt lat="44.86431" lon="1.02548">
        <ele>73.2</ele>
        <time>2022-08-15T09:28:56Z</time>
      </trkpt>
      <trkpt lat="44.8644" lon="1.02557">
        <ele>71.6</ele>
        <time>2022-08-15T09:28:58Z</time>
      </trkpt>
      <trkpt lat="44.86448" lon="1.02565">
        <ele>70.2</ele>
        <time>2022-08-15T09:29:00Z</time>
      </trkpt>
      <trkpt lat="44.86456" lon="1.02573">
        <ele>69.1</ele>
        <time>2022-08-15T09:29:02Z</time>
      </trkpt>
      <trkpt lat="44.86465" lon="1.02582">
        <ele>67.9</ele>
        <time>2022-08-15T09:29:04Z</time>
      </trkpt>
      <trkpt lat="44.86473" lon="1.02592">
        <ele>68.1</ele>
        <time>2022-08-15T09:29:06Z</time>
      </trkpt>
      <trkpt lat="44.86481" lon="1.02602">
        <ele>68.4</ele>
        <time>2022-08-15T09:29:08Z</time>
      </trkpt>
      <trkpt lat="44.86489" lon="1.02612">
        <ele>68.6</ele>
        <time>2022-08-15T09:29:10Z</time>
      </trkpt>
      <trkpt lat="44.86497" lon="1.02623">
        <ele>68.8</ele>
        <time>2022-08-15T09:29:12Z</time>
      </trkpt>
      <trkpt lat="44.86504" lon="1.02634">
        <ele>69.5</ele>
        <time>2022-08-15T09:29:14Z</time>
      </trkpt>
      <trkpt lat="44.86512" lon="1.02646">
        <ele>70.8</ele>
        <time>2022-08-15T09:29:16Z</time>
      </trkpt>
      <trkpt lat="44.86519" lon="1.02657">
        <ele>72.3</ele>
        <time>2022-08-15T09:29:18Z</time>
      </trkpt>
      <trkpt lat="44.86526" lon="1.02669">
        <ele>73.7</ele>
        <time>2022-08-15T09:29:20Z</time>
      </trkpt>
      <trkpt lat="44.86533" lon="1.0268">
        <ele>74.5</ele>
        <time>2022-08-15T09:29:22Z</time>
      </trkpt>
      <trkpt lat="44.86539" lon="1.02693">
        <ele>75</ele>
        <time>2022-08-15T09:29:24Z</time>
      </trkpt>
      <trkpt lat="44.86546" lon="1.02705">
        <ele>75.4</ele>
        <time>2022-08-15T09:29:26Z</time>
      </trkpt>
      <trkpt lat="44.86552" lon="1.02718">
        <ele>75.4</ele>
        <time>2022-08-15T09:29:28Z</time>
      </trkpt>
      <trkpt lat="44.86558" lon="1.02731">
        <ele>75.2</ele>
        <time>2022-08-15T09:29:30Z</time>
      </trkpt>
      <trkpt lat="44.86564" lon="1.02745">
        <ele>74.6</ele>
        <time>2022-08-15T09:29:32Z</time>
      </trkpt>
      <trkpt lat="44.8657" lon="1.02758">
        <ele>73.9</ele>
        <time>2022-08-15T09:29:34Z</time>
      </trkpt>
      <trkpt lat="44.86575" lon="1.02772">
        <ele>73.1</ele>
        <time>2022-08-15T09:29:36Z</time>
      </trkpt>
      <trkpt lat="44.8658" lon="1.02785">
        <ele>72</ele>
        <time>2022-08-15T09:29:38Z</time>
      </trkpt>
      <trkpt lat="44.86586" lon="1.02798">
        <ele>71.2</ele>
        <time>2022-08-15T09:29:40Z</time>
      </trkpt>
      <trkpt lat="44.86591" lon="1.02812">
        <ele>70.8</ele>
        <time>2022-08-15T09:29:42Z</time>
      </trkpt>
      <trkpt lat="44.86596" lon="1.02825">
        <ele>70.2</ele>
        <time>2022-08-15T09:29:44Z</time>
      </trkpt>
      <trkpt lat="44.86601" lon="1.02838">
        <ele>69.7</ele>
        <time>2022-08-15T09:29:46Z</time>
      </trkpt>
      <trkpt lat="44.86606" lon="1.02851">
        <ele>69.7</ele>
        <time>2022-08-15T09:29:48Z</time>
      </trkpt>
      <trkpt lat="44.86611" lon="1.02865">
        <ele>69.7</ele>
        <time>2022-08-15T09:29:50Z</time>
      </trkpt>
      <trkpt lat="44.86616" lon="1.02878">
        <ele>69.4</ele>
        <time>2022-08-15T09:29:52Z</time>
      </trkpt>
      <trkpt lat="44.86621" lon="1.0289">
        <ele>69</ele>
        <time>2022-08-15T09:29:54Z</time>
      </trkpt>
      <trkpt lat="44.86626" lon="1.02903">
        <ele>68.5</ele>
        <time>2022-08-15T09:29:56Z</time>
      </trkpt>
      <trkpt lat="44.86631" lon="1.02916">
        <ele>67.9</ele>
        <time>2022-08-15T09:29:58Z</time>
      </trkpt>
      <trkpt lat="44.86635" lon="1.02928">
        <ele>67.9</ele>
        <time>2022-08-15T09:30:00Z</time>
      </trkpt>
      <trkpt lat="44.8664" lon="1.0294">
        <ele>67.8</ele>
        <time>2022-08-15T09:30:02Z</time>
      </trkpt>
      <trkpt lat="44.86644" lon="1.02952">
        <ele>67.6</ele>
        <time>2022-08-15T09:30:04Z</time>
      </trkpt>
      <trkpt lat="44.86649" lon="1.02963">
        <ele>67.4</ele>
        <time>2022-08-15T09:30:06Z</time>
      </trkpt>
      <trkpt lat="44.86653" lon="1.02975">
        <ele>66.9</ele>
        <time>2022-08-15T09:30:08Z</time>
      </trkpt>
      <trkpt lat="44.86657" lon="1.02986">
        <ele>66.4</ele>
        <time>2022-08-15T09:30:10Z</time>
      </trkpt>
      <trkpt lat="44.86662" lon="1.02998">
        <ele>65.9</ele>
        <time>2022-08-15T09:30:12Z</time>
      </trkpt>
      <trkpt lat="44.86666" lon="1.03009">
        <ele>65.7</ele>
        <time>2022-08-15T09:30:14Z</time>
      </trkpt>
      <trkpt lat="44.8667" lon="1.03021">
        <ele>66.3</ele>
        <time>2022-08-15T09:30:16Z</time>
      </trkpt>
      <trkpt lat="44.86675" lon="1.03032">
        <ele>67</ele>
        <time>2022-08-15T09:30:18Z</time>
      </trkpt>
      <trkpt lat="44.86679" lon="1.03043">
        <ele>67.4</ele>
        <time>2022-08-15T09:30:20Z</time>
      </trkpt>
      <trkpt lat="44.86683" lon="1.03055">
        <ele>67.6</ele>
        <time>2022-08-15T09:30:22Z</time>
      </trkpt>
      <trkpt lat="44.86688" lon="1.03065">
        <ele>67.8</ele>
        <time>2022-08-15T09:30:24Z</time>
      </trkpt>
      <trkpt lat="44.86691" lon="1.03076">
        <ele>67.7</ele>
        <time>2022-08-15T09:30:26Z</time>
      </trkpt>
      <trkpt lat="44.86695" lon="1.03087">
        <ele>67.6</ele>
        <time>2022-08-15T09:30:28Z</time>
      </trkpt>
      <trkpt lat="44.86699" lon="1.03097">
        <ele>67.8</ele>
        <time>2022-08-15T09:30:30Z</time>
      </trkpt>
      <trkpt lat="44.86702" lon="1.03107">
        <ele>67.8</ele>
        <time>2022-08-15T09:30:32Z</time>
      </trkpt>
      <trkpt lat="44.86706" lon="1.03117">
        <ele>67.8</ele>
        <time>2022-08-15T09:30:34Z</time>
      </trkpt>
      <trkpt lat="44.8671" lon="1.03127">
        <ele>67.9</ele>
        <time>2022-08-15T09:30:36Z</time>
      </trkpt>
      <trkpt lat="44.86714" lon="1.03138">
        <ele>67.8</ele>
        <time>2022-08-15T09:30:38Z</time>
      </trkpt>
      <trkpt lat="44.86718" lon="1.03149">
        <ele>67.8</ele>
        <time>2022-08-15T09:30:40Z</time>
      </trkpt>
      <trkpt lat="44.86723" lon="1.03159">
        <ele>67.7</ele>
        <time>2022-08-15T09:30:42Z</time>
      </trkpt>
      <trkpt lat="44.86727" lon="1.0317">
        <ele>67.7</ele>
        <time>2022-08-15T09:30:44Z</time>
      </trkpt>
      <trkpt lat="44.8673" lon="1.03181">
        <ele>67.7</ele>
        <time>2022-08-15T09:30:46Z</time>
      </trkpt>
      <trkpt lat="44.86735" lon="1.03192">
        <ele>67.7</ele>
        <time>2022-08-15T09:30:48Z</time>
      </trkpt>
      <trkpt lat="44.86739" lon="1.03202">
        <ele>67.7</ele>
        <time>2022-08-15T09:30:50Z</time>
      </trkpt>
      <trkpt lat="44.86743" lon="1.03214">
        <ele>67.7</ele>
        <time>2022-08-15T09:30:52Z</time>
      </trkpt>
      <trkpt lat="44.86747" lon="1.03224">
        <ele>67.7</ele>
        <time>2022-08-15T09:30:54Z</time>
      </trkpt>
      <trkpt lat="44.86751" lon="1.03235">
        <ele>67.8</ele>
        <time>2022-08-15T09:30:56Z</time>
      </trkpt>
      <trkpt lat="44.86755" lon="1.03247">
        <ele>68.1</ele>
        <time>2022-08-15T09:30:58Z</time>
      </trkpt>
      <trkpt lat="44.86759" lon="1.03258">
        <ele>68.6</ele>
        <time>2022-08-15T09:31:00Z</time>
      </trkpt>
      <trkpt lat="44.86763" lon="1.03269">
        <ele>69.1</ele>
        <time>2022-08-15T09:31:02Z</time>
      </trkpt>
      <trkpt lat="44.86768" lon="1.03279">
        <ele>69.7</ele>
        <time>2022-08-15T09:31:04Z</time>
      </trkpt>
      <trkpt lat="44.86773" lon="1.0329">
        <ele>70.2</ele>
        <time>2022-08-15T09:31:06Z</time>
      </trkpt>
      <trkpt lat="44.86777" lon="1.03301">
        <ele>70.6</ele>
        <time>2022-08-15T09:31:08Z</time>
      </trkpt>
      <trkpt lat="44.86781" lon="1.03313">
        <ele>70.9</ele>
        <time>2022-08-15T09:31:10Z</time>
      </trkpt>
      <trkpt lat="44.86785" lon="1.03324">
        <ele>71.3</ele>
        <time>2022-08-15T09:31:12Z</time>
      </trkpt>
      <trkpt lat="44.86789" lon="1.03335">
        <ele>71.4</ele>
        <time>2022-08-15T09:31:14Z</time>
      </trkpt>
      <trkpt lat="44.86794" lon="1.03346">
        <ele>71.6</ele>
        <time>2022-08-15T09:31:16Z</time>
      </trkpt>
      <trkpt lat="44.86798" lon="1.03358">
        <ele>71.6</ele>
        <time>2022-08-15T09:31:18Z</time>
      </trkpt>
      <trkpt lat="44.86802" lon="1.03369">
        <ele>71.5</ele>
        <time>2022-08-15T09:31:20Z</time>
      </trkpt>
      <trkpt lat="44.86807" lon="1.0338">
        <ele>71.3</ele>
        <time>2022-08-15T09:31:22Z</time>
      </trkpt>
      <trkpt lat="44.86811" lon="1.03391">
        <ele>71</ele>
        <time>2022-08-15T09:31:24Z</time>
      </trkpt>
      <trkpt lat="44.86815" lon="1.03402">
        <ele>70.6</ele>
        <time>2022-08-15T09:31:26Z</time>
      </trkpt>
      <trkpt lat="44.8682" lon="1.03413">
        <ele>70.1</ele>
        <time>2022-08-15T09:31:28Z</time>
      </trkpt>
      <trkpt lat="44.86825" lon="1.03424">
        <ele>69.9</ele>
        <time>2022-08-15T09:31:30Z</time>
      </trkpt>
      <trkpt lat="44.86829" lon="1.03435">
        <ele>69.7</ele>
        <time>2022-08-15T09:31:32Z</time>
      </trkpt>
      <trkpt lat="44.86833" lon="1.03446">
        <ele>69.6</ele>
        <time>2022-08-15T09:31:34Z</time>
      </trkpt>
      <trkpt lat="44.86837" lon="1.03457">
        <ele>70.1</ele>
        <time>2022-08-15T09:31:36Z</time>
      </trkpt>
      <trkpt lat="44.86841" lon="1.03468">
        <ele>70.6</ele>
        <time>2022-08-15T09:31:38Z</time>
      </trkpt>
      <trkpt lat="44.86846" lon="1.03479">
        <ele>71</ele>
        <time>2022-08-15T09:31:40Z</time>
      </trkpt>
      <trkpt lat="44.8685" lon="1.0349">
        <ele>71.5</ele>
        <time>2022-08-15T09:31:42Z</time>
      </trkpt>
      <trkpt lat="44.86855" lon="1.03501">
        <ele>71.8</ele>
        <time>2022-08-15T09:31:44Z</time>
      </trkpt>
      <trkpt lat="44.86859" lon="1.03512">
        <ele>72.3</ele>
        <time>2022-08-15T09:31:46Z</time>
      </trkpt>
      <trkpt lat="44.86863" lon="1.03523">
        <ele>72.5</ele>
        <time>2022-08-15T09:31:48Z</time>
      </trkpt>
      <trkpt lat="44.86867" lon="1.03535">
        <ele>72.6</ele>
        <time>2022-08-15T09:31:50Z</time>
      </trkpt>
      <trkpt lat="44.86871" lon="1.03546">
        <ele>72.7</ele>
        <time>2022-08-15T09:31:52Z</time>
      </trkpt>
      <trkpt lat="44.86874" lon="1.03556">
        <ele>72.7</ele>
        <time>2022-08-15T09:31:54Z</time>
      </trkpt>
      <trkpt lat="44.86878" lon="1.03567">
        <ele>72.5</ele>
        <time>2022-08-15T09:31:56Z</time>
      </trkpt>
      <trkpt lat="44.86881" lon="1.03578">
        <ele>72.3</ele>
        <time>2022-08-15T09:31:58Z</time>
      </trkpt>
      <trkpt lat="44.86884" lon="1.0359">
        <ele>72.1</ele>
        <time>2022-08-15T09:32:00Z</time>
      </trkpt>
      <trkpt lat="44.86887" lon="1.03601">
        <ele>71.9</ele>
        <time>2022-08-15T09:32:02Z</time>
      </trkpt>
      <trkpt lat="44.86889" lon="1.03614">
        <ele>71.7</ele>
        <time>2022-08-15T09:32:04Z</time>
      </trkpt>
      <trkpt lat="44.86892" lon="1.03626">
        <ele>71.4</ele>
        <time>2022-08-15T09:32:06Z</time>
      </trkpt>
      <trkpt lat="44.86894" lon="1.03638">
        <ele>71.1</ele>
        <time>2022-08-15T09:32:08Z</time>
      </trkpt>
      <trkpt lat="44.86897" lon="1.0365">
        <ele>70.7</ele>
        <time>2022-08-15T09:32:10Z</time>
      </trkpt>
      <trkpt lat="44.86899" lon="1.03662">
        <ele>70.2</ele>
        <time>2022-08-15T09:32:12Z</time>
      </trkpt>
      <trkpt lat="44.86901" lon="1.03675">
        <ele>69.7</ele>
        <time>2022-08-15T09:32:14Z</time>
      </trkpt>
      <trkpt lat="44.86903" lon="1.03687">
        <ele>69.3</ele>
        <time>2022-08-15T09:32:16Z</time>
      </trkpt>
      <trkpt lat="44.86905" lon="1.03699">
        <ele>68.9</ele>
        <time>2022-08-15T09:32:18Z</time>
      </trkpt>
      <trkpt lat="44.86908" lon="1.0371">
        <ele>68.6</ele>
        <time>2022-08-15T09:32:20Z</time>
      </trkpt>
      <trkpt lat="44.8691" lon="1.03721">
        <ele>68.1</ele>
        <time>2022-08-15T09:32:22Z</time>
      </trkpt>
      <trkpt lat="44.86912" lon="1.03733">
        <ele>67.7</ele>
        <time>2022-08-15T09:32:24Z</time>
      </trkpt>
      <trkpt lat="44.86914" lon="1.03744">
        <ele>67.2</ele>
        <time>2022-08-15T09:32:26Z</time>
      </trkpt>
      <trkpt lat="44.86917" lon="1.03756">
        <ele>66.8</ele>
        <time>2022-08-15T09:32:28Z</time>
      </trkpt>
      <trkpt lat="44.86919" lon="1.03768">
        <ele>66.6</ele>
        <time>2022-08-15T09:32:30Z</time>
      </trkpt>
      <trkpt lat="44.86922" lon="1.0378">
        <ele>66.5</ele>
        <time>2022-08-15T09:32:32Z</time>
      </trkpt>
      <trkpt lat="44.86924" lon="1.03791">
        <ele>66.3</ele>
        <time>2022-08-15T09:32:34Z</time>
      </trkpt>
      <trkpt lat="44.86927" lon="1.03803">
        <ele>66.2</ele>
        <time>2022-08-15T09:32:36Z</time>
      </trkpt>
      <trkpt lat="44.86929" lon="1.03815">
        <ele>66</ele>
        <time>2022-08-15T09:32:38Z</time>
      </trkpt>
      <trkpt lat="44.86931" lon="1.03827">
        <ele>65.8</ele>
        <time>2022-08-15T09:32:40Z</time>
      </trkpt>
      <trkpt lat="44.86934" lon="1.03839">
        <ele>65.9</ele>
        <time>2022-08-15T09:32:42Z</time>
      </trkpt>
      <trkpt lat="44.86936" lon="1.03851">
        <ele>66.3</ele>
        <time>2022-08-15T09:32:44Z</time>
      </trkpt>
      <trkpt lat="44.86937" lon="1.03864">
        <ele>66.5</ele>
        <time>2022-08-15T09:32:46Z</time>
      </trkpt>
      <trkpt lat="44.86937" lon="1.03877">
        <ele>66.6</ele>
        <time>2022-08-15T09:32:48Z</time>
      </trkpt>
      <trkpt lat="44.86937" lon="1.0389">
        <ele>66.7</ele>
        <time>2022-08-15T09:32:50Z</time>
      </trkpt>
      <trkpt lat="44.86937" lon="1.03902">
        <ele>66.8</ele>
        <time>2022-08-15T09:32:52Z</time>
      </trkpt>
      <trkpt lat="44.86936" lon="1.03915">
        <ele>66.9</ele>
        <time>2022-08-15T09:32:54Z</time>
      </trkpt>
      <trkpt lat="44.86936" lon="1.03928">
        <ele>67.3</ele>
        <time>2022-08-15T09:32:56Z</time>
      </trkpt>
      <trkpt lat="44.86935" lon="1.0394">
        <ele>67.8</ele>
        <time>2022-08-15T09:32:58Z</time>
      </trkpt>
      <trkpt lat="44.86934" lon="1.03953">
        <ele>68.3</ele>
        <time>2022-08-15T09:33:00Z</time>
      </trkpt>
      <trkpt lat="44.86934" lon="1.03966">
        <ele>68.8</ele>
        <time>2022-08-15T09:33:02Z</time>
      </trkpt>
      <trkpt lat="44.86933" lon="1.03978">
        <ele>69.3</ele>
        <time>2022-08-15T09:33:04Z</time>
      </trkpt>
      <trkpt lat="44.86933" lon="1.03991">
        <ele>69.8</ele>
        <time>2022-08-15T09:33:06Z</time>
      </trkpt>
      <trkpt lat="44.86933" lon="1.04003">
        <ele>70.2</ele>
        <time>2022-08-15T09:33:08Z</time>
      </trkpt>
      <trkpt lat="44.86933" lon="1.04015">
        <ele>70.2</ele>
        <time>2022-08-15T09:33:10Z</time>
      </trkpt>
      <trkpt lat="44.86933" lon="1.04027">
        <ele>70.3</ele>
        <time>2022-08-15T09:33:12Z</time>
      </trkpt>
      <trkpt lat="44.86932" lon="1.04039">
        <ele>70.3</ele>
        <time>2022-08-15T09:33:14Z</time>
      </trkpt>
      <trkpt lat="44.86933" lon="1.04052">
        <ele>70.3</ele>
        <time>2022-08-15T09:33:16Z</time>
      </trkpt>
      <trkpt lat="44.86931" lon="1.04064">
        <ele>70.3</ele>
        <time>2022-08-15T09:33:18Z</time>
      </trkpt>
      <trkpt lat="44.8693" lon="1.04074">
        <ele>70.3</ele>
        <time>2022-08-15T09:33:20Z</time>
      </trkpt>
      <trkpt lat="44.8693" lon="1.04085">
        <ele>70.3</ele>
        <time>2022-08-15T09:33:22Z</time>
      </trkpt>
      <trkpt lat="44.8693" lon="1.04096">
        <ele>70.3</ele>
        <time>2022-08-15T09:33:24Z</time>
      </trkpt>
      <trkpt lat="44.86929" lon="1.04106">
        <ele>70.3</ele>
        <time>2022-08-15T09:33:26Z</time>
      </trkpt>
      <trkpt lat="44.86929" lon="1.04116">
        <ele>70.2</ele>
        <time>2022-08-15T09:33:28Z</time>
      </trkpt>
      <trkpt lat="44.86928" lon="1.04125">
        <ele>70.2</ele>
        <time>2022-08-15T09:33:30Z</time>
      </trkpt>
      <trkpt lat="44.86926" lon="1.04133">
        <ele>70.1</ele>
        <time>2022-08-15T09:33:32Z</time>
      </trkpt>
      <trkpt lat="44.86926" lon="1.04139">
        <ele>70</ele>
        <time>2022-08-15T09:33:34Z</time>
      </trkpt>
      <trkpt lat="44.86926" lon="1.04145">
        <ele>70</ele>
        <time>2022-08-15T09:33:36Z</time>
      </trkpt>
      <trkpt lat="44.86925" lon="1.04149">
        <ele>69.9</ele>
        <time>2022-08-15T09:33:38Z</time>
      </trkpt>
      <trkpt lat="44.86925" lon="1.04152">
        <ele>69.9</ele>
        <time>2022-08-15T09:33:40Z</time>
      </trkpt>
      <trkpt lat="44.86924" lon="1.04155">
        <ele>69.8</ele>
        <time>2022-08-15T09:33:42Z</time>
      </trkpt>
      <trkpt lat="44.86924" lon="1.04156">
        <ele>69.7</ele>
        <time>2022-08-15T09:33:44Z</time>
      </trkpt>
      <trkpt lat="44.86924" lon="1.04156">
        <ele>69.7</ele>
        <time>2022-08-15T09:33:46Z</time>
      </trkpt>
      <trkpt lat="44.86935" lon="1.04168">
        <ele>70.8</ele>
        <time>2022-08-15T09:34:02Z</time>
      </trkpt>
      <trkpt lat="44.86942" lon="1.04167">
        <ele>71.4</ele>
        <time>2022-08-15T09:34:04Z</time>
      </trkpt>
      <trkpt lat="44.86945" lon="1.0417">
        <ele>71.9</ele>
        <time>2022-08-15T09:34:06Z</time>
      </trkpt>
      <trkpt lat="44.86946" lon="1.04175">
        <ele>72.2</ele>
        <time>2022-08-15T09:34:08Z</time>
      </trkpt>
      <trkpt lat="44.86945" lon="1.04183">
        <ele>72.5</ele>
        <time>2022-08-15T09:34:10Z</time>
      </trkpt>
      <trkpt lat="44.86944" lon="1.0419">
        <ele>72.6</ele>
        <time>2022-08-15T09:34:12Z</time>
      </trkpt>
      <trkpt lat="44.86943" lon="1.04198">
        <ele>72.8</ele>
        <time>2022-08-15T09:34:14Z</time>
      </trkpt>
      <trkpt lat="44.86941" lon="1.04205">
        <ele>72.9</ele>
        <time>2022-08-15T09:34:16Z</time>
      </trkpt>
      <trkpt lat="44.86939" lon="1.04213">
        <ele>72.9</ele>
        <time>2022-08-15T09:34:18Z</time>
      </trkpt>
      <trkpt lat="44.86938" lon="1.0422">
        <ele>72.9</ele>
        <time>2022-08-15T09:34:20Z</time>
      </trkpt>
      <trkpt lat="44.86938" lon="1.04226">
        <ele>73.1</ele>
        <time>2022-08-15T09:34:22Z</time>
      </trkpt>
      <trkpt lat="44.86941" lon="1.0423">
        <ele>73.9</ele>
        <time>2022-08-15T09:34:24Z</time>
      </trkpt>
      <trkpt lat="44.86944" lon="1.0423">
        <ele>74.5</ele>
        <time>2022-08-15T09:34:26Z</time>
      </trkpt>
      <trkpt lat="44.86946" lon="1.0423">
        <ele>74.7</ele>
        <time>2022-08-15T09:34:28Z</time>
      </trkpt>
      <trkpt lat="44.86947" lon="1.04231">
        <ele>74.9</ele>
        <time>2022-08-15T09:34:30Z</time>
      </trkpt>
      <trkpt lat="44.8695" lon="1.04229">
        <ele>75.3</ele>
        <time>2022-08-15T09:34:32Z</time>
      </trkpt>
      <trkpt lat="44.86954" lon="1.0423">
        <ele>76</ele>
        <time>2022-08-15T09:34:34Z</time>
      </trkpt>
      <trkpt lat="44.86958" lon="1.04231">
        <ele>76.7</ele>
        <time>2022-08-15T09:34:36Z</time>
      </trkpt>
      <trkpt lat="44.86961" lon="1.04228">
        <ele>77.1</ele>
        <time>2022-08-15T09:34:38Z</time>
      </trkpt>
      <trkpt lat="44.86963" lon="1.04225">
        <ele>77.3</ele>
        <time>2022-08-15T09:34:40Z</time>
      </trkpt>
      <trkpt lat="44.86965" lon="1.0422">
        <ele>77.2</ele>
        <time>2022-08-15T09:34:42Z</time>
      </trkpt>
      <trkpt lat="44.86966" lon="1.04217">
        <ele>77.3</ele>
        <time>2022-08-15T09:34:44Z</time>
      </trkpt>
      <trkpt lat="44.86968" lon="1.04214">
        <ele>77.3</ele>
        <time>2022-08-15T09:34:46Z</time>
      </trkpt>
      <trkpt lat="44.8697" lon="1.04214">
        <ele>77.6</ele>
        <time>2022-08-15T09:34:48Z</time>
      </trkpt>
      <trkpt lat="44.86971" lon="1.04212">
        <ele>77.7</ele>
        <time>2022-08-15T09:34:50Z</time>
      </trkpt>
      <trkpt lat="44.86974" lon="1.04212">
        <ele>78.1</ele>
        <time>2022-08-15T09:34:52Z</time>
      </trkpt>
      <trkpt lat="44.86963" lon="1.04226">
        <ele>77.3</ele>
        <time>2022-08-15T09:35:12Z</time>
      </trkpt>
      <trkpt lat="44.86959" lon="1.04232">
        <ele>77.1</ele>
        <time>2022-08-15T09:35:14Z</time>
      </trkpt>
      <trkpt lat="44.86954" lon="1.04231">
        <ele>76.1</ele>
        <time>2022-08-15T09:35:16Z</time>
      </trkpt>
      <trkpt lat="44.8695" lon="1.04233">
        <ele>75.5</ele>
        <time>2022-08-15T09:35:18Z</time>
      </trkpt>
      <trkpt lat="44.86948" lon="1.04237">
        <ele>75.4</ele>
        <time>2022-08-15T09:35:20Z</time>
      </trkpt>
      <trkpt lat="44.86947" lon="1.04241">
        <ele>75.5</ele>
        <time>2022-08-15T09:35:22Z</time>
      </trkpt>
      <trkpt lat="44.86946" lon="1.04245">
        <ele>75.5</ele>
        <time>2022-08-15T09:35:24Z</time>
      </trkpt>
      <trkpt lat="44.86946" lon="1.04248">
        <ele>75.6</ele>
        <time>2022-08-15T09:35:26Z</time>
      </trkpt>
      <trkpt lat="44.86944" lon="1.04254">
        <ele>75.6</ele>
        <time>2022-08-15T09:35:28Z</time>
      </trkpt>
      <trkpt lat="44.86944" lon="1.04259">
        <ele>75.6</ele>
        <time>2022-08-15T09:35:30Z</time>
      </trkpt>
      <trkpt lat="44.86942" lon="1.04264">
        <ele>75.5</ele>
        <time>2022-08-15T09:35:32Z</time>
      </trkpt>
      <trkpt lat="44.86941" lon="1.04269">
        <ele>75.7</ele>
        <time>2022-08-15T09:35:34Z</time>
      </trkpt>
      <trkpt lat="44.8694" lon="1.04274">
        <ele>75.6</ele>
        <time>2022-08-15T09:35:36Z</time>
      </trkpt>
      <trkpt lat="44.86938" lon="1.04279">
        <ele>75.5</ele>
        <time>2022-08-15T09:35:38Z</time>
      </trkpt>
      <trkpt lat="44.86936" lon="1.04284">
        <ele>75.4</ele>
        <time>2022-08-15T09:35:40Z</time>
      </trkpt>
      <trkpt lat="44.86934" lon="1.0429">
        <ele>75.2</ele>
        <time>2022-08-15T09:35:42Z</time>
      </trkpt>
      <trkpt lat="44.86932" lon="1.04297">
        <ele>75.1</ele>
        <time>2022-08-15T09:35:44Z</time>
      </trkpt>
      <trkpt lat="44.86931" lon="1.04304">
        <ele>75.1</ele>
        <time>2022-08-15T09:35:46Z</time>
      </trkpt>
      <trkpt lat="44.8693" lon="1.04312">
        <ele>75.2</ele>
        <time>2022-08-15T09:35:48Z</time>
      </trkpt>
      <trkpt lat="44.86929" lon="1.04319">
        <ele>75.3</ele>
        <time>2022-08-15T09:35:50Z</time>
      </trkpt>
      <trkpt lat="44.86928" lon="1.04325">
        <ele>75.5</ele>
        <time>2022-08-15T09:35:52Z</time>
      </trkpt>
      <trkpt lat="44.86929" lon="1.04332">
        <ele>75.8</ele>
        <time>2022-08-15T09:35:54Z</time>
      </trkpt>
      <trkpt lat="44.86928" lon="1.04339">
        <ele>75.8</ele>
        <time>2022-08-15T09:35:56Z</time>
      </trkpt>
      <trkpt lat="44.86928" lon="1.04346">
        <ele>75.8</ele>
        <time>2022-08-15T09:35:58Z</time>
      </trkpt>
      <trkpt lat="44.86929" lon="1.04353">
        <ele>76.1</ele>
        <time>2022-08-15T09:36:00Z</time>
      </trkpt>
      <trkpt lat="44.86928" lon="1.04356">
        <ele>76</ele>
        <time>2022-08-15T09:36:02Z</time>
      </trkpt>
      <trkpt lat="44.86929" lon="1.04365">
        <ele>76.2</ele>
        <time>2022-08-15T09:36:04Z</time>
      </trkpt>
      <trkpt lat="44.86928" lon="1.04368">
        <ele>76</ele>
        <time>2022-08-15T09:36:06Z</time>
      </trkpt>
      <trkpt lat="44.86927" lon="1.04368">
        <ele>75.9</ele>
        <time>2022-08-15T09:36:08Z</time>
      </trkpt>
      <trkpt lat="44.86927" lon="1.04368">
        <ele>75.9</ele>
        <time>2022-08-15T09:36:10Z</time>
      </trkpt>
      <trkpt lat="44.86927" lon="1.04369">
        <ele>75.9</ele>
        <time>2022-08-15T09:36:12Z</time>
      </trkpt>
      <trkpt lat="44.86927" lon="1.04369">
        <ele>75.9</ele>
        <time>2022-08-15T09:36:14Z</time>
      </trkpt>
      <trkpt lat="44.86914" lon="1.04368">
        <ele>73.1</ele>
        <time>2022-08-15T09:36:38Z</time>
      </trkpt>
      <trkpt lat="44.86912" lon="1.04367">
        <ele>73</ele>
        <time>2022-08-15T09:36:40Z</time>
      </trkpt>
      <trkpt lat="44.86914" lon="1.04361">
        <ele>73</ele>
        <time>2022-08-15T09:36:42Z</time>
      </trkpt>
      <trkpt lat="44.86913" lon="1.0435">
        <ele>72.8</ele>
        <time>2022-08-15T09:36:44Z</time>
      </trkpt>
      <trkpt lat="44.86912" lon="1.0434">
        <ele>72.6</ele>
        <time>2022-08-15T09:36:46Z</time>
      </trkpt>
      <trkpt lat="44.86915" lon="1.04331">
        <ele>72.7</ele>
        <time>2022-08-15T09:36:48Z</time>
      </trkpt>
      <trkpt lat="44.86915" lon="1.04323">
        <ele>72.4</ele>
        <time>2022-08-15T09:36:50Z</time>
      </trkpt>
      <trkpt lat="44.86916" lon="1.04318">
        <ele>72.4</ele>
        <time>2022-08-15T09:36:52Z</time>
      </trkpt>
      <trkpt lat="44.86916" lon="1.04312">
        <ele>72.1</ele>
        <time>2022-08-15T09:36:54Z</time>
      </trkpt>
      <trkpt lat="44.86917" lon="1.04306">
        <ele>72.1</ele>
        <time>2022-08-15T09:36:56Z</time>
      </trkpt>
      <trkpt lat="44.86916" lon="1.04305">
        <ele>71.9</ele>
        <time>2022-08-15T09:36:58Z</time>
      </trkpt>
      <trkpt lat="44.86915" lon="1.04305">
        <ele>71.8</ele>
        <time>2022-08-15T09:37:00Z</time>
      </trkpt>
      <trkpt lat="44.86915" lon="1.04305">
        <ele>71.8</ele>
        <time>2022-08-15T09:37:02Z</time>
      </trkpt>
      <trkpt lat="44.86915" lon="1.04305">
        <ele>71.8</ele>
        <time>2022-08-15T09:37:04Z</time>
      </trkpt>
      <trkpt lat="44.86909" lon="1.04284">
        <ele>70.6</ele>
        <time>2022-08-15T10:08:59Z</time>
      </trkpt>
      <trkpt lat="44.86913" lon="1.04305">
        <ele>71.6</ele>
        <time>2022-08-15T10:09:01Z</time>
      </trkpt>
      <trkpt lat="44.8692" lon="1.0428">
        <ele>71.7</ele>
        <time>2022-08-15T10:10:07Z</time>
      </trkpt>
      <trkpt lat="44.86921" lon="1.04274">
        <ele>71.7</ele>
        <time>2022-08-15T10:10:09Z</time>
      </trkpt>
      <trkpt lat="44.86923" lon="1.04266">
        <ele>71.8</ele>
        <time>2022-08-15T10:10:11Z</time>
      </trkpt>
      <trkpt lat="44.86924" lon="1.04258">
        <ele>71.8</ele>
        <time>2022-08-15T10:10:13Z</time>
      </trkpt>
      <trkpt lat="44.86926" lon="1.04252">
        <ele>71.8</ele>
        <time>2022-08-15T10:10:15Z</time>
      </trkpt>
      <trkpt lat="44.86925" lon="1.04244">
        <ele>71.5</ele>
        <time>2022-08-15T10:10:17Z</time>
      </trkpt>
      <trkpt lat="44.86923" lon="1.0424">
        <ele>71.1</ele>
        <time>2022-08-15T10:10:19Z</time>
      </trkpt>
      <trkpt lat="44.86919" lon="1.04243">
        <ele>70.3</ele>
        <time>2022-08-15T10:10:21Z</time>
      </trkpt>
      <trkpt lat="44.86913" lon="1.04247">
        <ele>69.8</ele>
        <time>2022-08-15T10:10:23Z</time>
      </trkpt>
      <trkpt lat="44.86906" lon="1.04253">
        <ele>69.4</ele>
        <time>2022-08-15T10:10:25Z</time>
      </trkpt>
      <trkpt lat="44.86901" lon="1.0426">
        <ele>69.3</ele>
        <time>2022-08-15T10:10:27Z</time>
      </trkpt>
      <trkpt lat="44.86898" lon="1.0427">
        <ele>69.4</ele>
        <time>2022-08-15T10:10:29Z</time>
      </trkpt>
      <trkpt lat="44.86895" lon="1.0428">
        <ele>69.4</ele>
        <time>2022-08-15T10:10:31Z</time>
      </trkpt>
      <trkpt lat="44.86891" lon="1.04287">
        <ele>69.3</ele>
        <time>2022-08-15T10:10:33Z</time>
      </trkpt>
      <trkpt lat="44.86886" lon="1.04284">
        <ele>68.8</ele>
        <time>2022-08-15T10:10:35Z</time>
      </trkpt>
      <trkpt lat="44.86879" lon="1.04282">
        <ele>68.2</ele>
        <time>2022-08-15T10:10:37Z</time>
      </trkpt>
      <trkpt lat="44.86873" lon="1.04278">
        <ele>67.7</ele>
        <time>2022-08-15T10:10:39Z</time>
      </trkpt>
      <trkpt lat="44.86867" lon="1.04276">
        <ele>67.2</ele>
        <time>2022-08-15T10:10:41Z</time>
      </trkpt>
      <trkpt lat="44.86861" lon="1.04275">
        <ele>66.7</ele>
        <time>2022-08-15T10:10:43Z</time>
      </trkpt>
      <trkpt lat="44.86855" lon="1.04274">
        <ele>66.3</ele>
        <time>2022-08-15T10:10:45Z</time>
      </trkpt>
      <trkpt lat="44.8685" lon="1.04279">
        <ele>66</ele>
        <time>2022-08-15T10:10:47Z</time>
      </trkpt>
      <trkpt lat="44.86851" lon="1.04286">
        <ele>66</ele>
        <time>2022-08-15T10:10:49Z</time>
      </trkpt>
      <trkpt lat="44.86849" lon="1.04293">
        <ele>65.8</ele>
        <time>2022-08-15T10:10:51Z</time>
      </trkpt>
      <trkpt lat="44.86849" lon="1.04301">
        <ele>65.8</ele>
        <time>2022-08-15T10:10:53Z</time>
      </trkpt>
      <trkpt lat="44.86848" lon="1.04309">
        <ele>65.7</ele>
        <time>2022-08-15T10:10:55Z</time>
      </trkpt>
      <trkpt lat="44.86847" lon="1.04318">
        <ele>65.5</ele>
        <time>2022-08-15T10:10:57Z</time>
      </trkpt>
      <trkpt lat="44.86846" lon="1.04326">
        <ele>65.4</ele>
        <time>2022-08-15T10:10:59Z</time>
      </trkpt>
      <trkpt lat="44.86844" lon="1.04335">
        <ele>65.2</ele>
        <time>2022-08-15T10:11:01Z</time>
      </trkpt>
      <trkpt lat="44.86842" lon="1.04344">
        <ele>65.1</ele>
        <time>2022-08-15T10:11:03Z</time>
      </trkpt>
      <trkpt lat="44.86841" lon="1.04354">
        <ele>65</ele>
        <time>2022-08-15T10:11:05Z</time>
      </trkpt>
      <trkpt lat="44.8684" lon="1.04362">
        <ele>65</ele>
        <time>2022-08-15T10:11:07Z</time>
      </trkpt>
      <trkpt lat="44.86839" lon="1.0437">
        <ele>65</ele>
        <time>2022-08-15T10:11:09Z</time>
      </trkpt>
      <trkpt lat="44.86838" lon="1.04377">
        <ele>65</ele>
        <time>2022-08-15T10:11:11Z</time>
      </trkpt>
      <trkpt lat="44.86837" lon="1.04384">
        <ele>65</ele>
        <time>2022-08-15T10:11:13Z</time>
      </trkpt>
      <trkpt lat="44.86836" lon="1.0439">
        <ele>65</ele>
        <time>2022-08-15T10:11:15Z</time>
      </trkpt>
      <trkpt lat="44.86835" lon="1.04399">
        <ele>65</ele>
        <time>2022-08-15T10:11:17Z</time>
      </trkpt>
      <trkpt lat="44.86834" lon="1.04406">
        <ele>64.9</ele>
        <time>2022-08-15T10:11:19Z</time>
      </trkpt>
      <trkpt lat="44.86832" lon="1.04413">
        <ele>64.9</ele>
        <time>2022-08-15T10:11:21Z</time>
      </trkpt>
      <trkpt lat="44.86831" lon="1.0442">
        <ele>65</ele>
        <time>2022-08-15T10:11:23Z</time>
      </trkpt>
      <trkpt lat="44.8683" lon="1.04425">
        <ele>65</ele>
        <time>2022-08-15T10:11:25Z</time>
      </trkpt>
      <trkpt lat="44.86829" lon="1.04431">
        <ele>65.1</ele>
        <time>2022-08-15T10:11:27Z</time>
      </trkpt>
      <trkpt lat="44.86828" lon="1.04437">
        <ele>65.1</ele>
        <time>2022-08-15T10:11:29Z</time>
      </trkpt>
      <trkpt lat="44.86828" lon="1.04442">
        <ele>65.2</ele>
        <time>2022-08-15T10:11:31Z</time>
      </trkpt>
      <trkpt lat="44.8683" lon="1.04447">
        <ele>65.3</ele>
        <time>2022-08-15T10:11:33Z</time>
      </trkpt>
      <trkpt lat="44.86835" lon="1.0445">
        <ele>65.5</ele>
        <time>2022-08-15T10:11:35Z</time>
      </trkpt>
      <trkpt lat="44.86839" lon="1.04452">
        <ele>66</ele>
        <time>2022-08-15T10:11:37Z</time>
      </trkpt>
      <trkpt lat="44.86844" lon="1.04455">
        <ele>66.5</ele>
        <time>2022-08-15T10:11:39Z</time>
      </trkpt>
      <trkpt lat="44.86849" lon="1.04458">
        <ele>67.1</ele>
        <time>2022-08-15T10:11:41Z</time>
      </trkpt>
      <trkpt lat="44.86854" lon="1.04461">
        <ele>67.6</ele>
        <time>2022-08-15T10:11:43Z</time>
      </trkpt>
      <trkpt lat="44.86858" lon="1.04466">
        <ele>68.1</ele>
        <time>2022-08-15T10:11:45Z</time>
      </trkpt>
      <trkpt lat="44.86862" lon="1.04471">
        <ele>68.5</ele>
        <time>2022-08-15T10:11:47Z</time>
      </trkpt>
      <trkpt lat="44.8686" lon="1.04478">
        <ele>68.4</ele>
        <time>2022-08-15T10:11:49Z</time>
      </trkpt>
      <trkpt lat="44.86856" lon="1.04483">
        <ele>68.1</ele>
        <time>2022-08-15T10:11:51Z</time>
      </trkpt>
      <trkpt lat="44.86854" lon="1.04491">
        <ele>67.9</ele>
        <time>2022-08-15T10:11:53Z</time>
      </trkpt>
      <trkpt lat="44.86852" lon="1.04499">
        <ele>67.8</ele>
        <time>2022-08-15T10:11:55Z</time>
      </trkpt>
      <trkpt lat="44.86849" lon="1.04505">
        <ele>67.5</ele>
        <time>2022-08-15T10:11:57Z</time>
      </trkpt>
      <trkpt lat="44.86846" lon="1.04512">
        <ele>67.3</ele>
        <time>2022-08-15T10:11:59Z</time>
      </trkpt>
      <trkpt lat="44.86844" lon="1.0452">
        <ele>67.2</ele>
        <time>2022-08-15T10:12:01Z</time>
      </trkpt>
      <trkpt lat="44.86841" lon="1.04528">
        <ele>67</ele>
        <time>2022-08-15T10:12:03Z</time>
      </trkpt>
      <trkpt lat="44.86839" lon="1.04536">
        <ele>66.9</ele>
        <time>2022-08-15T10:12:05Z</time>
      </trkpt>
      <trkpt lat="44.86836" lon="1.04545">
        <ele>66.8</ele>
        <time>2022-08-15T10:12:07Z</time>
      </trkpt>
      <trkpt lat="44.86833" lon="1.04555">
        <ele>66.7</ele>
        <time>2022-08-15T10:12:09Z</time>
      </trkpt>
      <trkpt lat="44.86831" lon="1.04565">
        <ele>66.7</ele>
        <time>2022-08-15T10:12:11Z</time>
      </trkpt>
      <trkpt lat="44.86828" lon="1.04574">
        <ele>66.8</ele>
        <time>2022-08-15T10:12:13Z</time>
      </trkpt>
      <trkpt lat="44.86825" lon="1.04583">
        <ele>66.8</ele>
        <time>2022-08-15T10:12:15Z</time>
      </trkpt>
      <trkpt lat="44.86821" lon="1.0459">
        <ele>66.6</ele>
        <time>2022-08-15T10:12:17Z</time>
      </trkpt>
      <trkpt lat="44.86818" lon="1.04599">
        <ele>66.5</ele>
        <time>2022-08-15T10:12:19Z</time>
      </trkpt>
      <trkpt lat="44.86813" lon="1.04607">
        <ele>66.4</ele>
        <time>2022-08-15T10:12:21Z</time>
      </trkpt>
      <trkpt lat="44.86809" lon="1.04616">
        <ele>66.3</ele>
        <time>2022-08-15T10:12:23Z</time>
      </trkpt>
      <trkpt lat="44.86805" lon="1.04624">
        <ele>66.2</ele>
        <time>2022-08-15T10:12:25Z</time>
      </trkpt>
      <trkpt lat="44.86801" lon="1.04634">
        <ele>66.1</ele>
        <time>2022-08-15T10:12:27Z</time>
      </trkpt>
      <trkpt lat="44.86799" lon="1.04645">
        <ele>66</ele>
        <time>2022-08-15T10:12:29Z</time>
      </trkpt>
      <trkpt lat="44.868" lon="1.04656">
        <ele>66</ele>
        <time>2022-08-15T10:12:31Z</time>
      </trkpt>
      <trkpt lat="44.86801" lon="1.04666">
        <ele>66</ele>
        <time>2022-08-15T10:12:33Z</time>
      </trkpt>
      <trkpt lat="44.86802" lon="1.04677">
        <ele>66</ele>
        <time>2022-08-15T10:12:35Z</time>
      </trkpt>
      <trkpt lat="44.86804" lon="1.04687">
        <ele>65.9</ele>
        <time>2022-08-15T10:12:37Z</time>
      </trkpt>
      <trkpt lat="44.86805" lon="1.04696">
        <ele>65.9</ele>
        <time>2022-08-15T10:12:39Z</time>
      </trkpt>
      <trkpt lat="44.86807" lon="1.04706">
        <ele>65.9</ele>
        <time>2022-08-15T10:12:41Z</time>
      </trkpt>
      <trkpt lat="44.86809" lon="1.04715">
        <ele>65.8</ele>
        <time>2022-08-15T10:12:43Z</time>
      </trkpt>
      <trkpt lat="44.86811" lon="1.04724">
        <ele>65.8</ele>
        <time>2022-08-15T10:12:45Z</time>
      </trkpt>
      <trkpt lat="44.86813" lon="1.04734">
        <ele>65.8</ele>
        <time>2022-08-15T10:12:47Z</time>
      </trkpt>
      <trkpt lat="44.86814" lon="1.04742">
        <ele>65.8</ele>
        <time>2022-08-15T10:12:49Z</time>
      </trkpt>
      <trkpt lat="44.86817" lon="1.04753">
        <ele>65.9</ele>
        <time>2022-08-15T10:12:51Z</time>
      </trkpt>
      <trkpt lat="44.86819" lon="1.04762">
        <ele>66.1</ele>
        <time>2022-08-15T10:12:53Z</time>
      </trkpt>
      <trkpt lat="44.86821" lon="1.04771">
        <ele>66.3</ele>
        <time>2022-08-15T10:12:55Z</time>
      </trkpt>
      <trkpt lat="44.86823" lon="1.04781">
        <ele>66.6</ele>
        <time>2022-08-15T10:12:57Z</time>
      </trkpt>
      <trkpt lat="44.86826" lon="1.04789">
        <ele>66.8</ele>
        <time>2022-08-15T10:12:59Z</time>
      </trkpt>
      <trkpt lat="44.86828" lon="1.04797">
        <ele>67</ele>
        <time>2022-08-15T10:13:01Z</time>
      </trkpt>
      <trkpt lat="44.86831" lon="1.04805">
        <ele>67.3</ele>
        <time>2022-08-15T10:13:03Z</time>
      </trkpt>
      <trkpt lat="44.86834" lon="1.04813">
        <ele>67.6</ele>
        <time>2022-08-15T10:13:05Z</time>
      </trkpt>
      <trkpt lat="44.86837" lon="1.04821">
        <ele>67.9</ele>
        <time>2022-08-15T10:13:07Z</time>
      </trkpt>
      <trkpt lat="44.86841" lon="1.04828">
        <ele>68.2</ele>
        <time>2022-08-15T10:13:09Z</time>
      </trkpt>
      <trkpt lat="44.86844" lon="1.04835">
        <ele>68.5</ele>
        <time>2022-08-15T10:13:11Z</time>
      </trkpt>
      <trkpt lat="44.86848" lon="1.04841">
        <ele>68.6</ele>
        <time>2022-08-15T10:13:13Z</time>
      </trkpt>
      <trkpt lat="44.86851" lon="1.04846">
        <ele>68.6</ele>
        <time>2022-08-15T10:13:15Z</time>
      </trkpt>
      <trkpt lat="44.86854" lon="1.04851">
        <ele>68.7</ele>
        <time>2022-08-15T10:13:17Z</time>
      </trkpt>
      <trkpt lat="44.86856" lon="1.04856">
        <ele>68.7</ele>
        <time>2022-08-15T10:13:19Z</time>
      </trkpt>
      <trkpt lat="44.86858" lon="1.04859">
        <ele>68.7</ele>
        <time>2022-08-15T10:13:21Z</time>
      </trkpt>
      <trkpt lat="44.86859" lon="1.0486">
        <ele>68.7</ele>
        <time>2022-08-15T10:13:23Z</time>
      </trkpt>
      <trkpt lat="44.86859" lon="1.0486">
        <ele>68.7</ele>
        <time>2022-08-15T10:13:25Z</time>
      </trkpt>
      <trkpt lat="44.8686" lon="1.0486">
        <ele>68.7</ele>
        <time>2022-08-15T10:13:27Z</time>
      </trkpt>
      <trkpt lat="44.8686" lon="1.0486">
        <ele>68.7</ele>
        <time>2022-08-15T10:13:29Z</time>
      </trkpt>
      <trkpt lat="44.8686" lon="1.0486">
        <ele>68.8</ele>
        <time>2022-08-15T10:13:31Z</time>
      </trkpt>
      <trkpt lat="44.86853" lon="1.04875">
        <ele>68.2</ele>
        <time>2022-08-15T10:13:51Z</time>
      </trkpt>
      <trkpt lat="44.86847" lon="1.04881">
        <ele>67.9</ele>
        <time>2022-08-15T10:13:53Z</time>
      </trkpt>
      <trkpt lat="44.86842" lon="1.04887">
        <ele>67.6</ele>
        <time>2022-08-15T10:13:55Z</time>
      </trkpt>
      <trkpt lat="44.86837" lon="1.04893">
        <ele>67.4</ele>
        <time>2022-08-15T10:13:57Z</time>
      </trkpt>
      <trkpt lat="44.86832" lon="1.04901">
        <ele>67.2</ele>
        <time>2022-08-15T10:13:59Z</time>
      </trkpt>
      <trkpt lat="44.86827" lon="1.04906">
        <ele>67</ele>
        <time>2022-08-15T10:14:01Z</time>
      </trkpt>
      <trkpt lat="44.86822" lon="1.04913">
        <ele>66.9</ele>
        <time>2022-08-15T10:14:03Z</time>
      </trkpt>
      <trkpt lat="44.86817" lon="1.04921">
        <ele>66.9</ele>
        <time>2022-08-15T10:14:05Z</time>
      </trkpt>
      <trkpt lat="44.86811" lon="1.04926">
        <ele>66.8</ele>
        <time>2022-08-15T10:14:07Z</time>
      </trkpt>
      <trkpt lat="44.86806" lon="1.04929">
        <ele>66.8</ele>
        <time>2022-08-15T10:14:09Z</time>
      </trkpt>
      <trkpt lat="44.868" lon="1.04932">
        <ele>66.8</ele>
        <time>2022-08-15T10:14:11Z</time>
      </trkpt>
      <trkpt lat="44.86792" lon="1.04933">
        <ele>66.7</ele>
        <time>2022-08-15T10:14:13Z</time>
      </trkpt>
      <trkpt lat="44.86783" lon="1.04933">
        <ele>66.6</ele>
        <time>2022-08-15T10:14:15Z</time>
      </trkpt>
      <trkpt lat="44.86774" lon="1.0493">
        <ele>66.5</ele>
        <time>2022-08-15T10:14:17Z</time>
      </trkpt>
      <trkpt lat="44.86765" lon="1.04926">
        <ele>66.3</ele>
        <time>2022-08-15T10:14:19Z</time>
      </trkpt>
      <trkpt lat="44.86757" lon="1.04921">
        <ele>66.1</ele>
        <time>2022-08-15T10:14:21Z</time>
      </trkpt>
      <trkpt lat="44.86748" lon="1.04915">
        <ele>65.9</ele>
        <time>2022-08-15T10:14:23Z</time>
      </trkpt>
      <trkpt lat="44.86739" lon="1.04909">
        <ele>65.6</ele>
        <time>2022-08-15T10:14:25Z</time>
      </trkpt>
      <trkpt lat="44.8673" lon="1.04904">
        <ele>65.3</ele>
        <time>2022-08-15T10:14:27Z</time>
      </trkpt>
      <trkpt lat="44.86722" lon="1.04899">
        <ele>65</ele>
        <time>2022-08-15T10:14:29Z</time>
      </trkpt>
      <trkpt lat="44.86712" lon="1.04893">
        <ele>64.6</ele>
        <time>2022-08-15T10:14:31Z</time>
      </trkpt>
      <trkpt lat="44.86703" lon="1.04889">
        <ele>64.3</ele>
        <time>2022-08-15T10:14:33Z</time>
      </trkpt>
      <trkpt lat="44.86692" lon="1.04884">
        <ele>63.9</ele>
        <time>2022-08-15T10:14:35Z</time>
      </trkpt>
      <trkpt lat="44.86683" lon="1.04878">
        <ele>63.6</ele>
        <time>2022-08-15T10:14:37Z</time>
      </trkpt>
      <trkpt lat="44.86673" lon="1.04871">
        <ele>63.2</ele>
        <time>2022-08-15T10:14:39Z</time>
      </trkpt>
      <trkpt lat="44.86664" lon="1.04865">
        <ele>63</ele>
        <time>2022-08-15T10:14:41Z</time>
      </trkpt>
      <trkpt lat="44.86655" lon="1.04856">
        <ele>63.1</ele>
        <time>2022-08-15T10:14:43Z</time>
      </trkpt>
      <trkpt lat="44.86645" lon="1.04847">
        <ele>63.1</ele>
        <time>2022-08-15T10:14:45Z</time>
      </trkpt>
      <trkpt lat="44.86636" lon="1.04839">
        <ele>63.1</ele>
        <time>2022-08-15T10:14:47Z</time>
      </trkpt>
      <trkpt lat="44.86627" lon="1.04831">
        <ele>63</ele>
        <time>2022-08-15T10:14:49Z</time>
      </trkpt>
      <trkpt lat="44.86619" lon="1.0482">
        <ele>63</ele>
        <time>2022-08-15T10:14:51Z</time>
      </trkpt>
      <trkpt lat="44.86609" lon="1.04812">
        <ele>63.1</ele>
        <time>2022-08-15T10:14:53Z</time>
      </trkpt>
      <trkpt lat="44.866" lon="1.04804">
        <ele>63.2</ele>
        <time>2022-08-15T10:14:55Z</time>
      </trkpt>
      <trkpt lat="44.86592" lon="1.04795">
        <ele>63.4</ele>
        <time>2022-08-15T10:14:57Z</time>
      </trkpt>
      <trkpt lat="44.86583" lon="1.04788">
        <ele>63.5</ele>
        <time>2022-08-15T10:14:59Z</time>
      </trkpt>
      <trkpt lat="44.86576" lon="1.0478">
        <ele>63.6</ele>
        <time>2022-08-15T10:15:01Z</time>
      </trkpt>
      <trkpt lat="44.86568" lon="1.04772">
        <ele>63.6</ele>
        <time>2022-08-15T10:15:03Z</time>
      </trkpt>
      <trkpt lat="44.8656" lon="1.04765">
        <ele>63.6</ele>
        <time>2022-08-15T10:15:05Z</time>
      </trkpt>
      <trkpt lat="44.86552" lon="1.04759">
        <ele>63.6</ele>
        <time>2022-08-15T10:15:07Z</time>
      </trkpt>
      <trkpt lat="44.86547" lon="1.04752">
        <ele>63.6</ele>
        <time>2022-08-15T10:15:09Z</time>
      </trkpt>
      <trkpt lat="44.8654" lon="1.04744">
        <ele>63.5</ele>
        <time>2022-08-15T10:15:11Z</time>
      </trkpt>
      <trkpt lat="44.86534" lon="1.04738">
        <ele>63.4</ele>
        <time>2022-08-15T10:15:13Z</time>
      </trkpt>
      <trkpt lat="44.86528" lon="1.04732">
        <ele>63.3</ele>
        <time>2022-08-15T10:15:15Z</time>
      </trkpt>
      <trkpt lat="44.86522" lon="1.04726">
        <ele>63.3</ele>
        <time>2022-08-15T10:15:17Z</time>
      </trkpt>
      <trkpt lat="44.86515" lon="1.04721">
        <ele>63.2</ele>
        <time>2022-08-15T10:15:19Z</time>
      </trkpt>
      <trkpt lat="44.86508" lon="1.04715">
        <ele>63.1</ele>
        <time>2022-08-15T10:15:21Z</time>
      </trkpt>
      <trkpt lat="44.86502" lon="1.04708">
        <ele>63</ele>
        <time>2022-08-15T10:15:23Z</time>
      </trkpt>
      <trkpt lat="44.86496" lon="1.04702">
        <ele>62.9</ele>
        <time>2022-08-15T10:15:25Z</time>
      </trkpt>
      <trkpt lat="44.86488" lon="1.04696">
        <ele>62.7</ele>
        <time>2022-08-15T10:15:27Z</time>
      </trkpt>
      <trkpt lat="44.86482" lon="1.04689">
        <ele>62.6</ele>
        <time>2022-08-15T10:15:29Z</time>
      </trkpt>
      <trkpt lat="44.86475" lon="1.04683">
        <ele>62.4</ele>
        <time>2022-08-15T10:15:31Z</time>
      </trkpt>
      <trkpt lat="44.86469" lon="1.04681">
        <ele>62.3</ele>
        <time>2022-08-15T10:15:33Z</time>
      </trkpt>
      <trkpt lat="44.86464" lon="1.0468">
        <ele>62.1</ele>
        <time>2022-08-15T10:15:35Z</time>
      </trkpt>
      <trkpt lat="44.86461" lon="1.04681">
        <ele>62.1</ele>
        <time>2022-08-15T10:15:37Z</time>
      </trkpt>
      <trkpt lat="44.86461" lon="1.04681">
        <ele>62.1</ele>
        <time>2022-08-15T10:15:39Z</time>
      </trkpt>
      <trkpt lat="44.86461" lon="1.04681">
        <ele>62.1</ele>
        <time>2022-08-15T10:15:41Z</time>
      </trkpt>
      <trkpt lat="44.86461" lon="1.04681">
        <ele>62.1</ele>
        <time>2022-08-15T10:15:43Z</time>
      </trkpt>
      <trkpt lat="44.86461" lon="1.04681">
        <ele>62.1</ele>
        <time>2022-08-15T10:15:47Z</time>
      </trkpt>
      <trkpt lat="44.86459" lon="1.04712">
        <ele>62</ele>
        <time>2022-08-15T10:16:17Z</time>
      </trkpt>
      <trkpt lat="44.86461" lon="1.04722">
        <ele>62.1</ele>
        <time>2022-08-15T10:16:19Z</time>
      </trkpt>
      <trkpt lat="44.86462" lon="1.04733">
        <ele>62.1</ele>
        <time>2022-08-15T10:16:21Z</time>
      </trkpt>
      <trkpt lat="44.86464" lon="1.04745">
        <ele>62.1</ele>
        <time>2022-08-15T10:16:23Z</time>
      </trkpt>
      <trkpt lat="44.86467" lon="1.04757">
        <ele>62.3</ele>
        <time>2022-08-15T10:16:25Z</time>
      </trkpt>
      <trkpt lat="44.86469" lon="1.04768">
        <ele>62.5</ele>
        <time>2022-08-15T10:16:27Z</time>
      </trkpt>
      <trkpt lat="44.8647" lon="1.04779">
        <ele>62.6</ele>
        <time>2022-08-15T10:16:29Z</time>
      </trkpt>
      <trkpt lat="44.86471" lon="1.0479">
        <ele>62.8</ele>
        <time>2022-08-15T10:16:31Z</time>
      </trkpt>
      <trkpt lat="44.86472" lon="1.048">
        <ele>62.9</ele>
        <time>2022-08-15T10:16:33Z</time>
      </trkpt>
      <trkpt lat="44.86473" lon="1.04809">
        <ele>63.1</ele>
        <time>2022-08-15T10:16:35Z</time>
      </trkpt>
      <trkpt lat="44.86474" lon="1.04818">
        <ele>63.2</ele>
        <time>2022-08-15T10:16:37Z</time>
      </trkpt>
      <trkpt lat="44.86475" lon="1.04826">
        <ele>63.3</ele>
        <time>2022-08-15T10:16:39Z</time>
      </trkpt>
      <trkpt lat="44.86475" lon="1.04836">
        <ele>63.4</ele>
        <time>2022-08-15T10:16:41Z</time>
      </trkpt>
      <trkpt lat="44.86476" lon="1.04844">
        <ele>63.5</ele>
        <time>2022-08-15T10:16:43Z</time>
      </trkpt>
      <trkpt lat="44.86476" lon="1.04853">
        <ele>63.5</ele>
        <time>2022-08-15T10:16:45Z</time>
      </trkpt>
      <trkpt lat="44.86476" lon="1.0486">
        <ele>63.5</ele>
        <time>2022-08-15T10:16:47Z</time>
      </trkpt>
      <trkpt lat="44.86477" lon="1.04868">
        <ele>63.6</ele>
        <time>2022-08-15T10:16:49Z</time>
      </trkpt>
      <trkpt lat="44.86477" lon="1.04878">
        <ele>63.6</ele>
        <time>2022-08-15T10:16:51Z</time>
      </trkpt>
      <trkpt lat="44.86477" lon="1.04889">
        <ele>63.6</ele>
        <time>2022-08-15T10:16:53Z</time>
      </trkpt>
      <trkpt lat="44.86475" lon="1.049">
        <ele>63.6</ele>
        <time>2022-08-15T10:16:55Z</time>
      </trkpt>
      <trkpt lat="44.8647" lon="1.04905">
        <ele>63.6</ele>
        <time>2022-08-15T10:16:57Z</time>
      </trkpt>
      <trkpt lat="44.86465" lon="1.04911">
        <ele>63.6</ele>
        <time>2022-08-15T10:16:59Z</time>
      </trkpt>
      <trkpt lat="44.8646" lon="1.04921">
        <ele>63.5</ele>
        <time>2022-08-15T10:17:01Z</time>
      </trkpt>
      <trkpt lat="44.86459" lon="1.04933">
        <ele>63.5</ele>
        <time>2022-08-15T10:17:03Z</time>
      </trkpt>
      <trkpt lat="44.86458" lon="1.04948">
        <ele>63.5</ele>
        <time>2022-08-15T10:17:05Z</time>
      </trkpt>
      <trkpt lat="44.86457" lon="1.04963">
        <ele>63.5</ele>
        <time>2022-08-15T10:17:07Z</time>
      </trkpt>
      <trkpt lat="44.86455" lon="1.04979">
        <ele>63.5</ele>
        <time>2022-08-15T10:17:09Z</time>
      </trkpt>
      <trkpt lat="44.86452" lon="1.04995">
        <ele>63.6</ele>
        <time>2022-08-15T10:17:11Z</time>
      </trkpt>
      <trkpt lat="44.8645" lon="1.0501">
        <ele>63.6</ele>
        <time>2022-08-15T10:17:13Z</time>
      </trkpt>
      <trkpt lat="44.86446" lon="1.05024">
        <ele>63.7</ele>
        <time>2022-08-15T10:17:15Z</time>
      </trkpt>
      <trkpt lat="44.86442" lon="1.05038">
        <ele>63.7</ele>
        <time>2022-08-15T10:17:17Z</time>
      </trkpt>
      <trkpt lat="44.86439" lon="1.05052">
        <ele>63.6</ele>
        <time>2022-08-15T10:17:19Z</time>
      </trkpt>
      <trkpt lat="44.86434" lon="1.05066">
        <ele>63.5</ele>
        <time>2022-08-15T10:17:21Z</time>
      </trkpt>
      <trkpt lat="44.86429" lon="1.0508">
        <ele>63.3</ele>
        <time>2022-08-15T10:17:23Z</time>
      </trkpt>
      <trkpt lat="44.86425" lon="1.05094">
        <ele>63.4</ele>
        <time>2022-08-15T10:17:25Z</time>
      </trkpt>
      <trkpt lat="44.86421" lon="1.05108">
        <ele>63.5</ele>
        <time>2022-08-15T10:17:27Z</time>
      </trkpt>
      <trkpt lat="44.86417" lon="1.05121">
        <ele>63.4</ele>
        <time>2022-08-15T10:17:29Z</time>
      </trkpt>
      <trkpt lat="44.86412" lon="1.05133">
        <ele>63.6</ele>
        <time>2022-08-15T10:17:31Z</time>
      </trkpt>
      <trkpt lat="44.86407" lon="1.05145">
        <ele>63.7</ele>
        <time>2022-08-15T10:17:33Z</time>
      </trkpt>
      <trkpt lat="44.86401" lon="1.05157">
        <ele>63.9</ele>
        <time>2022-08-15T10:17:35Z</time>
      </trkpt>
      <trkpt lat="44.86396" lon="1.0517">
        <ele>64.1</ele>
        <time>2022-08-15T10:17:37Z</time>
      </trkpt>
      <trkpt lat="44.86391" lon="1.05182">
        <ele>64.5</ele>
        <time>2022-08-15T10:17:39Z</time>
      </trkpt>
      <trkpt lat="44.86385" lon="1.05194">
        <ele>64.8</ele>
        <time>2022-08-15T10:17:41Z</time>
      </trkpt>
      <trkpt lat="44.8638" lon="1.05206">
        <ele>65</ele>
        <time>2022-08-15T10:17:43Z</time>
      </trkpt>
      <trkpt lat="44.86375" lon="1.05218">
        <ele>65.2</ele>
        <time>2022-08-15T10:17:45Z</time>
      </trkpt>
      <trkpt lat="44.8637" lon="1.05228">
        <ele>65.3</ele>
        <time>2022-08-15T10:17:47Z</time>
      </trkpt>
      <trkpt lat="44.86366" lon="1.05237">
        <ele>65.3</ele>
        <time>2022-08-15T10:17:49Z</time>
      </trkpt>
      <trkpt lat="44.86362" lon="1.05247">
        <ele>65.3</ele>
        <time>2022-08-15T10:17:51Z</time>
      </trkpt>
      <trkpt lat="44.86357" lon="1.05257">
        <ele>65.7</ele>
        <time>2022-08-15T10:17:53Z</time>
      </trkpt>
      <trkpt lat="44.86353" lon="1.05268">
        <ele>66.2</ele>
        <time>2022-08-15T10:17:55Z</time>
      </trkpt>
      <trkpt lat="44.86348" lon="1.05278">
        <ele>66.5</ele>
        <time>2022-08-15T10:17:57Z</time>
      </trkpt>
      <trkpt lat="44.86343" lon="1.05289">
        <ele>66.6</ele>
        <time>2022-08-15T10:17:59Z</time>
      </trkpt>
      <trkpt lat="44.86338" lon="1.053">
        <ele>66.5</ele>
        <time>2022-08-15T10:18:01Z</time>
      </trkpt>
      <trkpt lat="44.86332" lon="1.05314">
        <ele>66.2</ele>
        <time>2022-08-15T10:18:03Z</time>
      </trkpt>
      <trkpt lat="44.86326" lon="1.05327">
        <ele>66.3</ele>
        <time>2022-08-15T10:18:05Z</time>
      </trkpt>
      <trkpt lat="44.8632" lon="1.0534">
        <ele>66.8</ele>
        <time>2022-08-15T10:18:07Z</time>
      </trkpt>
      <trkpt lat="44.86315" lon="1.05352">
        <ele>67.6</ele>
        <time>2022-08-15T10:18:09Z</time>
      </trkpt>
      <trkpt lat="44.86309" lon="1.05365">
        <ele>68.2</ele>
        <time>2022-08-15T10:18:11Z</time>
      </trkpt>
      <trkpt lat="44.86303" lon="1.05378">
        <ele>68.6</ele>
        <time>2022-08-15T10:18:13Z</time>
      </trkpt>
      <trkpt lat="44.86297" lon="1.05391">
        <ele>68.8</ele>
        <time>2022-08-15T10:18:15Z</time>
      </trkpt>
      <trkpt lat="44.86292" lon="1.05403">
        <ele>68.7</ele>
        <time>2022-08-15T10:18:17Z</time>
      </trkpt>
      <trkpt lat="44.86287" lon="1.05415">
        <ele>68.5</ele>
        <time>2022-08-15T10:18:19Z</time>
      </trkpt>
      <trkpt lat="44.86281" lon="1.05427">
        <ele>68.2</ele>
        <time>2022-08-15T10:18:21Z</time>
      </trkpt>
      <trkpt lat="44.86276" lon="1.05439">
        <ele>67.8</ele>
        <time>2022-08-15T10:18:23Z</time>
      </trkpt>
      <trkpt lat="44.86271" lon="1.05451">
        <ele>67.4</ele>
        <time>2022-08-15T10:18:25Z</time>
      </trkpt>
      <trkpt lat="44.86265" lon="1.05462">
        <ele>66.8</ele>
        <time>2022-08-15T10:18:27Z</time>
      </trkpt>
      <trkpt lat="44.86261" lon="1.05473">
        <ele>66.3</ele>
        <time>2022-08-15T10:18:29Z</time>
      </trkpt>
      <trkpt lat="44.86256" lon="1.05484">
        <ele>65.7</ele>
        <time>2022-08-15T10:18:31Z</time>
      </trkpt>
      <trkpt lat="44.86251" lon="1.05494">
        <ele>65.1</ele>
        <time>2022-08-15T10:18:33Z</time>
      </trkpt>
      <trkpt lat="44.86246" lon="1.05504">
        <ele>65.2</ele>
        <time>2022-08-15T10:18:35Z</time>
      </trkpt>
      <trkpt lat="44.86239" lon="1.05513">
        <ele>65.7</ele>
        <time>2022-08-15T10:18:37Z</time>
      </trkpt>
      <trkpt lat="44.86233" lon="1.05522">
        <ele>66.2</ele>
        <time>2022-08-15T10:18:39Z</time>
      </trkpt>
      <trkpt lat="44.86226" lon="1.0553">
        <ele>66.5</ele>
        <time>2022-08-15T10:18:41Z</time>
      </trkpt>
      <trkpt lat="44.86219" lon="1.05538">
        <ele>66.6</ele>
        <time>2022-08-15T10:18:43Z</time>
      </trkpt>
      <trkpt lat="44.86211" lon="1.05547">
        <ele>66.7</ele>
        <time>2022-08-15T10:18:45Z</time>
      </trkpt>
      <trkpt lat="44.86204" lon="1.05555">
        <ele>66.6</ele>
        <time>2022-08-15T10:18:47Z</time>
      </trkpt>
      <trkpt lat="44.86197" lon="1.05562">
        <ele>66.3</ele>
        <time>2022-08-15T10:18:49Z</time>
      </trkpt>
      <trkpt lat="44.86189" lon="1.05569">
        <ele>66</ele>
        <time>2022-08-15T10:18:51Z</time>
      </trkpt>
      <trkpt lat="44.86182" lon="1.05577">
        <ele>65.5</ele>
        <time>2022-08-15T10:18:53Z</time>
      </trkpt>
      <trkpt lat="44.86175" lon="1.05584">
        <ele>65</ele>
        <time>2022-08-15T10:18:55Z</time>
      </trkpt>
      <trkpt lat="44.86167" lon="1.05591">
        <ele>64.5</ele>
        <time>2022-08-15T10:18:57Z</time>
      </trkpt>
      <trkpt lat="44.8616" lon="1.05597">
        <ele>64.5</ele>
        <time>2022-08-15T10:18:59Z</time>
      </trkpt>
      <trkpt lat="44.86153" lon="1.05604">
        <ele>64.7</ele>
        <time>2022-08-15T10:19:01Z</time>
      </trkpt>
      <trkpt lat="44.86147" lon="1.0561">
        <ele>64.7</ele>
        <time>2022-08-15T10:19:03Z</time>
      </trkpt>
      <trkpt lat="44.86141" lon="1.05616">
        <ele>64.8</ele>
        <time>2022-08-15T10:19:05Z</time>
      </trkpt>
      <trkpt lat="44.86135" lon="1.05623">
        <ele>64.9</ele>
        <time>2022-08-15T10:19:07Z</time>
      </trkpt>
      <trkpt lat="44.8613" lon="1.05631">
        <ele>65.1</ele>
        <time>2022-08-15T10:19:09Z</time>
      </trkpt>
      <trkpt lat="44.86126" lon="1.05641">
        <ele>65.3</ele>
        <time>2022-08-15T10:19:11Z</time>
      </trkpt>
      <trkpt lat="44.86122" lon="1.05649">
        <ele>65.5</ele>
        <time>2022-08-15T10:19:13Z</time>
      </trkpt>
      <trkpt lat="44.86117" lon="1.05659">
        <ele>65.7</ele>
        <time>2022-08-15T10:19:15Z</time>
      </trkpt>
      <trkpt lat="44.86113" lon="1.05668">
        <ele>65.9</ele>
        <time>2022-08-15T10:19:17Z</time>
      </trkpt>
      <trkpt lat="44.86109" lon="1.05678">
        <ele>66</ele>
        <time>2022-08-15T10:19:19Z</time>
      </trkpt>
      <trkpt lat="44.86105" lon="1.05688">
        <ele>66.2</ele>
        <time>2022-08-15T10:19:21Z</time>
      </trkpt>
      <trkpt lat="44.86101" lon="1.05698">
        <ele>66.2</ele>
        <time>2022-08-15T10:19:23Z</time>
      </trkpt>
      <trkpt lat="44.86098" lon="1.05707">
        <ele>66.3</ele>
        <time>2022-08-15T10:19:25Z</time>
      </trkpt>
      <trkpt lat="44.86094" lon="1.05717">
        <ele>66.2</ele>
        <time>2022-08-15T10:19:27Z</time>
      </trkpt>
      <trkpt lat="44.8609" lon="1.05726">
        <ele>66.1</ele>
        <time>2022-08-15T10:19:29Z</time>
      </trkpt>
      <trkpt lat="44.86086" lon="1.05736">
        <ele>65.9</ele>
        <time>2022-08-15T10:19:31Z</time>
      </trkpt>
      <trkpt lat="44.86082" lon="1.05745">
        <ele>65.8</ele>
        <time>2022-08-15T10:19:33Z</time>
      </trkpt>
      <trkpt lat="44.86078" lon="1.05755">
        <ele>66</ele>
        <time>2022-08-15T10:19:35Z</time>
      </trkpt>
      <trkpt lat="44.86073" lon="1.05764">
        <ele>66.2</ele>
        <time>2022-08-15T10:19:37Z</time>
      </trkpt>
      <trkpt lat="44.86068" lon="1.05773">
        <ele>66.3</ele>
        <time>2022-08-15T10:19:39Z</time>
      </trkpt>
      <trkpt lat="44.86063" lon="1.05782">
        <ele>66.4</ele>
        <time>2022-08-15T10:19:41Z</time>
      </trkpt>
      <trkpt lat="44.86059" lon="1.05792">
        <ele>66.6</ele>
        <time>2022-08-15T10:19:43Z</time>
      </trkpt>
      <trkpt lat="44.86055" lon="1.05802">
        <ele>66.7</ele>
        <time>2022-08-15T10:19:45Z</time>
      </trkpt>
      <trkpt lat="44.86051" lon="1.05812">
        <ele>66.9</ele>
        <time>2022-08-15T10:19:47Z</time>
      </trkpt>
      <trkpt lat="44.86048" lon="1.05822">
        <ele>67</ele>
        <time>2022-08-15T10:19:49Z</time>
      </trkpt>
      <trkpt lat="44.86045" lon="1.05833">
        <ele>67.2</ele>
        <time>2022-08-15T10:19:51Z</time>
      </trkpt>
      <trkpt lat="44.86043" lon="1.05844">
        <ele>67.5</ele>
        <time>2022-08-15T10:19:53Z</time>
      </trkpt>
      <trkpt lat="44.86041" lon="1.05855">
        <ele>67.9</ele>
        <time>2022-08-15T10:19:55Z</time>
      </trkpt>
      <trkpt lat="44.86042" lon="1.05864">
        <ele>68.3</ele>
        <time>2022-08-15T10:19:57Z</time>
      </trkpt>
      <trkpt lat="44.86041" lon="1.05873">
        <ele>68.6</ele>
        <time>2022-08-15T10:19:59Z</time>
      </trkpt>
      <trkpt lat="44.86041" lon="1.05884">
        <ele>69.1</ele>
        <time>2022-08-15T10:20:01Z</time>
      </trkpt>
      <trkpt lat="44.86041" lon="1.05893">
        <ele>69.5</ele>
        <time>2022-08-15T10:20:03Z</time>
      </trkpt>
      <trkpt lat="44.86042" lon="1.05904">
        <ele>70</ele>
        <time>2022-08-15T10:20:05Z</time>
      </trkpt>
      <trkpt lat="44.86042" lon="1.05915">
        <ele>70.4</ele>
        <time>2022-08-15T10:20:07Z</time>
      </trkpt>
      <trkpt lat="44.86042" lon="1.05925">
        <ele>70.8</ele>
        <time>2022-08-15T10:20:09Z</time>
      </trkpt>
      <trkpt lat="44.86043" lon="1.05935">
        <ele>71.1</ele>
        <time>2022-08-15T10:20:11Z</time>
      </trkpt>
      <trkpt lat="44.86042" lon="1.05946">
        <ele>71.3</ele>
        <time>2022-08-15T10:20:13Z</time>
      </trkpt>
      <trkpt lat="44.86041" lon="1.05957">
        <ele>71.3</ele>
        <time>2022-08-15T10:20:15Z</time>
      </trkpt>
      <trkpt lat="44.86037" lon="1.05969">
        <ele>71</ele>
        <time>2022-08-15T10:20:17Z</time>
      </trkpt>
      <trkpt lat="44.86032" lon="1.05981">
        <ele>70.3</ele>
        <time>2022-08-15T10:20:19Z</time>
      </trkpt>
      <trkpt lat="44.86027" lon="1.05993">
        <ele>69.4</ele>
        <time>2022-08-15T10:20:21Z</time>
      </trkpt>
      <trkpt lat="44.86021" lon="1.06004">
        <ele>68.4</ele>
        <time>2022-08-15T10:20:23Z</time>
      </trkpt>
      <trkpt lat="44.86017" lon="1.06015">
        <ele>67.5</ele>
        <time>2022-08-15T10:20:25Z</time>
      </trkpt>
      <trkpt lat="44.86011" lon="1.06026">
        <ele>66.5</ele>
        <time>2022-08-15T10:20:27Z</time>
      </trkpt>
      <trkpt lat="44.86006" lon="1.06037">
        <ele>65.4</ele>
        <time>2022-08-15T10:20:29Z</time>
      </trkpt>
      <trkpt lat="44.86001" lon="1.06048">
        <ele>64.3</ele>
        <time>2022-08-15T10:20:31Z</time>
      </trkpt>
      <trkpt lat="44.85996" lon="1.06059">
        <ele>63.9</ele>
        <time>2022-08-15T10:20:33Z</time>
      </trkpt>
      <trkpt lat="44.85991" lon="1.0607">
        <ele>63.8</ele>
        <time>2022-08-15T10:20:35Z</time>
      </trkpt>
      <trkpt lat="44.85986" lon="1.06081">
        <ele>63.6</ele>
        <time>2022-08-15T10:20:37Z</time>
      </trkpt>
      <trkpt lat="44.85981" lon="1.06092">
        <ele>63.9</ele>
        <time>2022-08-15T10:20:39Z</time>
      </trkpt>
      <trkpt lat="44.85977" lon="1.06103">
        <ele>64.3</ele>
        <time>2022-08-15T10:20:41Z</time>
      </trkpt>
      <trkpt lat="44.85972" lon="1.06113">
        <ele>64.5</ele>
        <time>2022-08-15T10:20:43Z</time>
      </trkpt>
      <trkpt lat="44.85967" lon="1.06124">
        <ele>64.8</ele>
        <time>2022-08-15T10:20:45Z</time>
      </trkpt>
      <trkpt lat="44.85962" lon="1.06134">
        <ele>65</ele>
        <time>2022-08-15T10:20:47Z</time>
      </trkpt>
      <trkpt lat="44.85958" lon="1.06145">
        <ele>65.2</ele>
        <time>2022-08-15T10:20:49Z</time>
      </trkpt>
      <trkpt lat="44.85953" lon="1.06156">
        <ele>65.4</ele>
        <time>2022-08-15T10:20:51Z</time>
      </trkpt>
      <trkpt lat="44.85949" lon="1.06166">
        <ele>65.5</ele>
        <time>2022-08-15T10:20:53Z</time>
      </trkpt>
      <trkpt lat="44.85944" lon="1.06176">
        <ele>65.3</ele>
        <time>2022-08-15T10:20:55Z</time>
      </trkpt>
      <trkpt lat="44.85939" lon="1.06186">
        <ele>65.1</ele>
        <time>2022-08-15T10:20:57Z</time>
      </trkpt>
      <trkpt lat="44.85934" lon="1.06196">
        <ele>64.9</ele>
        <time>2022-08-15T10:20:59Z</time>
      </trkpt>
      <trkpt lat="44.8593" lon="1.06206">
        <ele>64.7</ele>
        <time>2022-08-15T10:21:01Z</time>
      </trkpt>
      <trkpt lat="44.85926" lon="1.06216">
        <ele>64.5</ele>
        <time>2022-08-15T10:21:03Z</time>
      </trkpt>
      <trkpt lat="44.85921" lon="1.06227">
        <ele>64.2</ele>
        <time>2022-08-15T10:21:05Z</time>
      </trkpt>
      <trkpt lat="44.85916" lon="1.06237">
        <ele>64</ele>
        <time>2022-08-15T10:21:07Z</time>
      </trkpt>
      <trkpt lat="44.85912" lon="1.06247">
        <ele>63.9</ele>
        <time>2022-08-15T10:21:09Z</time>
      </trkpt>
      <trkpt lat="44.85907" lon="1.06256">
        <ele>63.8</ele>
        <time>2022-08-15T10:21:11Z</time>
      </trkpt>
      <trkpt lat="44.85902" lon="1.06268">
        <ele>63.8</ele>
        <time>2022-08-15T10:21:13Z</time>
      </trkpt>
      <trkpt lat="44.85897" lon="1.06279">
        <ele>63.7</ele>
        <time>2022-08-15T10:21:15Z</time>
      </trkpt>
      <trkpt lat="44.85892" lon="1.0629">
        <ele>63.6</ele>
        <time>2022-08-15T10:21:17Z</time>
      </trkpt>
      <trkpt lat="44.85886" lon="1.06301">
        <ele>63.4</ele>
        <time>2022-08-15T10:21:19Z</time>
      </trkpt>
      <trkpt lat="44.85881" lon="1.06312">
        <ele>63.3</ele>
        <time>2022-08-15T10:21:21Z</time>
      </trkpt>
      <trkpt lat="44.85876" lon="1.06323">
        <ele>63</ele>
        <time>2022-08-15T10:21:23Z</time>
      </trkpt>
      <trkpt lat="44.8587" lon="1.06334">
        <ele>62.8</ele>
        <time>2022-08-15T10:21:25Z</time>
      </trkpt>
      <trkpt lat="44.85865" lon="1.06346">
        <ele>62.9</ele>
        <time>2022-08-15T10:21:27Z</time>
      </trkpt>
      <trkpt lat="44.8586" lon="1.06358">
        <ele>62.9</ele>
        <time>2022-08-15T10:21:29Z</time>
      </trkpt>
      <trkpt lat="44.85854" lon="1.0637">
        <ele>63</ele>
        <time>2022-08-15T10:21:31Z</time>
      </trkpt>
      <trkpt lat="44.85848" lon="1.06381">
        <ele>63</ele>
        <time>2022-08-15T10:21:33Z</time>
      </trkpt>
      <trkpt lat="44.85842" lon="1.06394">
        <ele>62.9</ele>
        <time>2022-08-15T10:21:35Z</time>
      </trkpt>
      <trkpt lat="44.85836" lon="1.06405">
        <ele>62.9</ele>
        <time>2022-08-15T10:21:37Z</time>
      </trkpt>
      <trkpt lat="44.8583" lon="1.06417">
        <ele>63</ele>
        <time>2022-08-15T10:21:39Z</time>
      </trkpt>
      <trkpt lat="44.85825" lon="1.0643">
        <ele>63.4</ele>
        <time>2022-08-15T10:21:41Z</time>
      </trkpt>
      <trkpt lat="44.85819" lon="1.06442">
        <ele>63.8</ele>
        <time>2022-08-15T10:21:43Z</time>
      </trkpt>
      <trkpt lat="44.85813" lon="1.06455">
        <ele>64.1</ele>
        <time>2022-08-15T10:21:45Z</time>
      </trkpt>
      <trkpt lat="44.85808" lon="1.06467">
        <ele>64.4</ele>
        <time>2022-08-15T10:21:47Z</time>
      </trkpt>
      <trkpt lat="44.85802" lon="1.0648">
        <ele>64.7</ele>
        <time>2022-08-15T10:21:49Z</time>
      </trkpt>
      <trkpt lat="44.85796" lon="1.06492">
        <ele>64.9</ele>
        <time>2022-08-15T10:21:51Z</time>
      </trkpt>
      <trkpt lat="44.85789" lon="1.06503">
        <ele>65</ele>
        <time>2022-08-15T10:21:53Z</time>
      </trkpt>
      <trkpt lat="44.85781" lon="1.06514">
        <ele>65.1</ele>
        <time>2022-08-15T10:21:55Z</time>
      </trkpt>
      <trkpt lat="44.85774" lon="1.06523">
        <ele>65.1</ele>
        <time>2022-08-15T10:21:57Z</time>
      </trkpt>
      <trkpt lat="44.85766" lon="1.06532">
        <ele>64.9</ele>
        <time>2022-08-15T10:21:59Z</time>
      </trkpt>
      <trkpt lat="44.8576" lon="1.06542">
        <ele>64.7</ele>
        <time>2022-08-15T10:22:01Z</time>
      </trkpt>
      <trkpt lat="44.85754" lon="1.06554">
        <ele>64.7</ele>
        <time>2022-08-15T10:22:03Z</time>
      </trkpt>
      <trkpt lat="44.85748" lon="1.06564">
        <ele>64.5</ele>
        <time>2022-08-15T10:22:05Z</time>
      </trkpt>
      <trkpt lat="44.85742" lon="1.06574">
        <ele>64.5</ele>
        <time>2022-08-15T10:22:07Z</time>
      </trkpt>
      <trkpt lat="44.85737" lon="1.06585">
        <ele>64.5</ele>
        <time>2022-08-15T10:22:09Z</time>
      </trkpt>
      <trkpt lat="44.85732" lon="1.06595">
        <ele>64.5</ele>
        <time>2022-08-15T10:22:11Z</time>
      </trkpt>
      <trkpt lat="44.85727" lon="1.06606">
        <ele>64.4</ele>
        <time>2022-08-15T10:22:13Z</time>
      </trkpt>
      <trkpt lat="44.85724" lon="1.06616">
        <ele>64.5</ele>
        <time>2022-08-15T10:22:15Z</time>
      </trkpt>
      <trkpt lat="44.85722" lon="1.06627">
        <ele>64.5</ele>
        <time>2022-08-15T10:22:17Z</time>
      </trkpt>
      <trkpt lat="44.85721" lon="1.06637">
        <ele>64.6</ele>
        <time>2022-08-15T10:22:19Z</time>
      </trkpt>
      <trkpt lat="44.8572" lon="1.06644">
        <ele>64.6</ele>
        <time>2022-08-15T10:22:21Z</time>
      </trkpt>
      <trkpt lat="44.85716" lon="1.06653">
        <ele>64.6</ele>
        <time>2022-08-15T10:22:23Z</time>
      </trkpt>
      <trkpt lat="44.85711" lon="1.06664">
        <ele>64.6</ele>
        <time>2022-08-15T10:22:25Z</time>
      </trkpt>
      <trkpt lat="44.85708" lon="1.06679">
        <ele>65.1</ele>
        <time>2022-08-15T10:22:27Z</time>
      </trkpt>
      <trkpt lat="44.85704" lon="1.06693">
        <ele>65.6</ele>
        <time>2022-08-15T10:22:29Z</time>
      </trkpt>
      <trkpt lat="44.857" lon="1.06707">
        <ele>65.9</ele>
        <time>2022-08-15T10:22:31Z</time>
      </trkpt>
      <trkpt lat="44.85695" lon="1.06719">
        <ele>66.1</ele>
        <time>2022-08-15T10:22:33Z</time>
      </trkpt>
      <trkpt lat="44.8569" lon="1.0673">
        <ele>66.2</ele>
        <time>2022-08-15T10:22:35Z</time>
      </trkpt>
      <trkpt lat="44.85684" lon="1.06742">
        <ele>66.2</ele>
        <time>2022-08-15T10:22:37Z</time>
      </trkpt>
      <trkpt lat="44.85678" lon="1.06754">
        <ele>66.1</ele>
        <time>2022-08-15T10:22:39Z</time>
      </trkpt>
      <trkpt lat="44.85673" lon="1.06766">
        <ele>65.9</ele>
        <time>2022-08-15T10:22:41Z</time>
      </trkpt>
      <trkpt lat="44.85668" lon="1.06777">
        <ele>65.5</ele>
        <time>2022-08-15T10:22:43Z</time>
      </trkpt>
      <trkpt lat="44.85663" lon="1.06789">
        <ele>65.3</ele>
        <time>2022-08-15T10:22:45Z</time>
      </trkpt>
      <trkpt lat="44.85657" lon="1.068">
        <ele>65.3</ele>
        <time>2022-08-15T10:22:47Z</time>
      </trkpt>
      <trkpt lat="44.85652" lon="1.06811">
        <ele>65.2</ele>
        <time>2022-08-15T10:22:49Z</time>
      </trkpt>
      <trkpt lat="44.85647" lon="1.06821">
        <ele>65.2</ele>
        <time>2022-08-15T10:22:51Z</time>
      </trkpt>
      <trkpt lat="44.85643" lon="1.06832">
        <ele>65.1</ele>
        <time>2022-08-15T10:22:53Z</time>
      </trkpt>
      <trkpt lat="44.85638" lon="1.06845">
        <ele>65.3</ele>
        <time>2022-08-15T10:22:55Z</time>
      </trkpt>
      <trkpt lat="44.85632" lon="1.06857">
        <ele>65.4</ele>
        <time>2022-08-15T10:22:57Z</time>
      </trkpt>
      <trkpt lat="44.85627" lon="1.06869">
        <ele>65.5</ele>
        <time>2022-08-15T10:22:59Z</time>
      </trkpt>
      <trkpt lat="44.85621" lon="1.06881">
        <ele>65.5</ele>
        <time>2022-08-15T10:23:01Z</time>
      </trkpt>
      <trkpt lat="44.85617" lon="1.06893">
        <ele>65.5</ele>
        <time>2022-08-15T10:23:03Z</time>
      </trkpt>
      <trkpt lat="44.85611" lon="1.06905">
        <ele>65.4</ele>
        <time>2022-08-15T10:23:05Z</time>
      </trkpt>
      <trkpt lat="44.85606" lon="1.06917">
        <ele>65.4</ele>
        <time>2022-08-15T10:23:07Z</time>
      </trkpt>
      <trkpt lat="44.85601" lon="1.06928">
        <ele>65.4</ele>
        <time>2022-08-15T10:23:09Z</time>
      </trkpt>
      <trkpt lat="44.85595" lon="1.0694">
        <ele>65.3</ele>
        <time>2022-08-15T10:23:11Z</time>
      </trkpt>
      <trkpt lat="44.8559" lon="1.06952">
        <ele>65.3</ele>
        <time>2022-08-15T10:23:13Z</time>
      </trkpt>
      <trkpt lat="44.85585" lon="1.06964">
        <ele>65.2</ele>
        <time>2022-08-15T10:23:15Z</time>
      </trkpt>
      <trkpt lat="44.85579" lon="1.06974">
        <ele>65.2</ele>
        <time>2022-08-15T10:23:17Z</time>
      </trkpt>
      <trkpt lat="44.85573" lon="1.06985">
        <ele>65.2</ele>
        <time>2022-08-15T10:23:19Z</time>
      </trkpt>
      <trkpt lat="44.85567" lon="1.06996">
        <ele>65.1</ele>
        <time>2022-08-15T10:23:21Z</time>
      </trkpt>
      <trkpt lat="44.85561" lon="1.07006">
        <ele>65.3</ele>
        <time>2022-08-15T10:23:23Z</time>
      </trkpt>
      <trkpt lat="44.85555" lon="1.07016">
        <ele>65.4</ele>
        <time>2022-08-15T10:23:25Z</time>
      </trkpt>
      <trkpt lat="44.85549" lon="1.07027">
        <ele>65.6</ele>
        <time>2022-08-15T10:23:27Z</time>
      </trkpt>
      <trkpt lat="44.85543" lon="1.07037">
        <ele>65.7</ele>
        <time>2022-08-15T10:23:29Z</time>
      </trkpt>
      <trkpt lat="44.85538" lon="1.07046">
        <ele>65.7</ele>
        <time>2022-08-15T10:23:31Z</time>
      </trkpt>
      <trkpt lat="44.85533" lon="1.07056">
        <ele>65.7</ele>
        <time>2022-08-15T10:23:33Z</time>
      </trkpt>
      <trkpt lat="44.85527" lon="1.07066">
        <ele>65.7</ele>
        <time>2022-08-15T10:23:35Z</time>
      </trkpt>
      <trkpt lat="44.85521" lon="1.07078">
        <ele>65.6</ele>
        <time>2022-08-15T10:23:37Z</time>
      </trkpt>
      <trkpt lat="44.85515" lon="1.07089">
        <ele>65.7</ele>
        <time>2022-08-15T10:23:39Z</time>
      </trkpt>
      <trkpt lat="44.85508" lon="1.071">
        <ele>66.1</ele>
        <time>2022-08-15T10:23:41Z</time>
      </trkpt>
      <trkpt lat="44.85501" lon="1.0711">
        <ele>66.1</ele>
        <time>2022-08-15T10:23:43Z</time>
      </trkpt>
      <trkpt lat="44.85494" lon="1.07122">
        <ele>66.5</ele>
        <time>2022-08-15T10:23:45Z</time>
      </trkpt>
      <trkpt lat="44.85486" lon="1.07133">
        <ele>66.9</ele>
        <time>2022-08-15T10:23:47Z</time>
      </trkpt>
      <trkpt lat="44.85479" lon="1.07143">
        <ele>67.1</ele>
        <time>2022-08-15T10:23:49Z</time>
      </trkpt>
      <trkpt lat="44.85471" lon="1.07152">
        <ele>67.2</ele>
        <time>2022-08-15T10:23:51Z</time>
      </trkpt>
      <trkpt lat="44.85464" lon="1.07162">
        <ele>67.2</ele>
        <time>2022-08-15T10:23:53Z</time>
      </trkpt>
      <trkpt lat="44.85456" lon="1.07172">
        <ele>67.3</ele>
        <time>2022-08-15T10:23:55Z</time>
      </trkpt>
      <trkpt lat="44.85449" lon="1.07182">
        <ele>67.3</ele>
        <time>2022-08-15T10:23:57Z</time>
      </trkpt>
      <trkpt lat="44.85441" lon="1.07191">
        <ele>67.1</ele>
        <time>2022-08-15T10:23:59Z</time>
      </trkpt>
      <trkpt lat="44.85434" lon="1.07199">
        <ele>66.7</ele>
        <time>2022-08-15T10:24:01Z</time>
      </trkpt>
      <trkpt lat="44.85426" lon="1.07208">
        <ele>66.1</ele>
        <time>2022-08-15T10:24:03Z</time>
      </trkpt>
      <trkpt lat="44.85417" lon="1.07217">
        <ele>65.3</ele>
        <time>2022-08-15T10:24:05Z</time>
      </trkpt>
      <trkpt lat="44.85408" lon="1.07227">
        <ele>65.1</ele>
        <time>2022-08-15T10:24:07Z</time>
      </trkpt>
      <trkpt lat="44.854" lon="1.07236">
        <ele>65</ele>
        <time>2022-08-15T10:24:09Z</time>
      </trkpt>
      <trkpt lat="44.85392" lon="1.07246">
        <ele>64.8</ele>
        <time>2022-08-15T10:24:11Z</time>
      </trkpt>
      <trkpt lat="44.85384" lon="1.07255">
        <ele>64.8</ele>
        <time>2022-08-15T10:24:13Z</time>
      </trkpt>
      <trkpt lat="44.85376" lon="1.07264">
        <ele>65</ele>
        <time>2022-08-15T10:24:15Z</time>
      </trkpt>
      <trkpt lat="44.85368" lon="1.07272">
        <ele>65</ele>
        <time>2022-08-15T10:24:17Z</time>
      </trkpt>
      <trkpt lat="44.8536" lon="1.0728">
        <ele>64.8</ele>
        <time>2022-08-15T10:24:19Z</time>
      </trkpt>
      <trkpt lat="44.85352" lon="1.07289">
        <ele>64.6</ele>
        <time>2022-08-15T10:24:21Z</time>
      </trkpt>
      <trkpt lat="44.85345" lon="1.07298">
        <ele>64.2</ele>
        <time>2022-08-15T10:24:23Z</time>
      </trkpt>
      <trkpt lat="44.85337" lon="1.07307">
        <ele>63.7</ele>
        <time>2022-08-15T10:24:25Z</time>
      </trkpt>
      <trkpt lat="44.85329" lon="1.07316">
        <ele>63.5</ele>
        <time>2022-08-15T10:24:27Z</time>
      </trkpt>
      <trkpt lat="44.85321" lon="1.07324">
        <ele>63.6</ele>
        <time>2022-08-15T10:24:29Z</time>
      </trkpt>
      <trkpt lat="44.85313" lon="1.07331">
        <ele>63.7</ele>
        <time>2022-08-15T10:24:31Z</time>
      </trkpt>
      <trkpt lat="44.85306" lon="1.0734">
        <ele>63.9</ele>
        <time>2022-08-15T10:24:33Z</time>
      </trkpt>
      <trkpt lat="44.85298" lon="1.07349">
        <ele>64.1</ele>
        <time>2022-08-15T10:24:35Z</time>
      </trkpt>
      <trkpt lat="44.8529" lon="1.07357">
        <ele>64.2</ele>
        <time>2022-08-15T10:24:37Z</time>
      </trkpt>
      <trkpt lat="44.85282" lon="1.07366">
        <ele>64.1</ele>
        <time>2022-08-15T10:24:39Z</time>
      </trkpt>
      <trkpt lat="44.85275" lon="1.07375">
        <ele>64</ele>
        <time>2022-08-15T10:24:41Z</time>
      </trkpt>
      <trkpt lat="44.85267" lon="1.07383">
        <ele>63.8</ele>
        <time>2022-08-15T10:24:43Z</time>
      </trkpt>
      <trkpt lat="44.85259" lon="1.07391">
        <ele>63.5</ele>
        <time>2022-08-15T10:24:45Z</time>
      </trkpt>
      <trkpt lat="44.85252" lon="1.07398">
        <ele>63.1</ele>
        <time>2022-08-15T10:24:47Z</time>
      </trkpt>
      <trkpt lat="44.85245" lon="1.07405">
        <ele>63</ele>
        <time>2022-08-15T10:24:49Z</time>
      </trkpt>
      <trkpt lat="44.85238" lon="1.07412">
        <ele>63</ele>
        <time>2022-08-15T10:24:51Z</time>
      </trkpt>
      <trkpt lat="44.85231" lon="1.07417">
        <ele>63</ele>
        <time>2022-08-15T10:24:53Z</time>
      </trkpt>
      <trkpt lat="44.85223" lon="1.07421">
        <ele>63.1</ele>
        <time>2022-08-15T10:24:55Z</time>
      </trkpt>
      <trkpt lat="44.85215" lon="1.07425">
        <ele>63.2</ele>
        <time>2022-08-15T10:24:57Z</time>
      </trkpt>
      <trkpt lat="44.85208" lon="1.07428">
        <ele>63.3</ele>
        <time>2022-08-15T10:24:59Z</time>
      </trkpt>
      <trkpt lat="44.85201" lon="1.07433">
        <ele>63.4</ele>
        <time>2022-08-15T10:25:01Z</time>
      </trkpt>
      <trkpt lat="44.85194" lon="1.07438">
        <ele>63.4</ele>
        <time>2022-08-15T10:25:03Z</time>
      </trkpt>
      <trkpt lat="44.85188" lon="1.07443">
        <ele>63.5</ele>
        <time>2022-08-15T10:25:05Z</time>
      </trkpt>
      <trkpt lat="44.85181" lon="1.07448">
        <ele>63.5</ele>
        <time>2022-08-15T10:25:07Z</time>
      </trkpt>
      <trkpt lat="44.85176" lon="1.07453">
        <ele>63.5</ele>
        <time>2022-08-15T10:25:09Z</time>
      </trkpt>
      <trkpt lat="44.85172" lon="1.07458">
        <ele>63.6</ele>
        <time>2022-08-15T10:25:11Z</time>
      </trkpt>
      <trkpt lat="44.85169" lon="1.07464">
        <ele>63.6</ele>
        <time>2022-08-15T10:25:13Z</time>
      </trkpt>
      <trkpt lat="44.85167" lon="1.07468">
        <ele>63.6</ele>
        <time>2022-08-15T10:25:15Z</time>
      </trkpt>
      <trkpt lat="44.85165" lon="1.07473">
        <ele>63.7</ele>
        <time>2022-08-15T10:25:17Z</time>
      </trkpt>
      <trkpt lat="44.85163" lon="1.07479">
        <ele>63.8</ele>
        <time>2022-08-15T10:25:19Z</time>
      </trkpt>
      <trkpt lat="44.85159" lon="1.07484">
        <ele>63.9</ele>
        <time>2022-08-15T10:25:21Z</time>
      </trkpt>
      <trkpt lat="44.85155" lon="1.07491">
        <ele>63.9</ele>
        <time>2022-08-15T10:25:23Z</time>
      </trkpt>
      <trkpt lat="44.8515" lon="1.075">
        <ele>64</ele>
        <time>2022-08-15T10:25:25Z</time>
      </trkpt>
      <trkpt lat="44.85145" lon="1.07508">
        <ele>63.8</ele>
        <time>2022-08-15T10:25:27Z</time>
      </trkpt>
      <trkpt lat="44.85139" lon="1.07517">
        <ele>63.7</ele>
        <time>2022-08-15T10:25:29Z</time>
      </trkpt>
      <trkpt lat="44.85133" lon="1.07525">
        <ele>63.5</ele>
        <time>2022-08-15T10:25:31Z</time>
      </trkpt>
      <trkpt lat="44.85126" lon="1.07533">
        <ele>63.4</ele>
        <time>2022-08-15T10:25:33Z</time>
      </trkpt>
      <trkpt lat="44.85119" lon="1.07541">
        <ele>63.3</ele>
        <time>2022-08-15T10:25:35Z</time>
      </trkpt>
      <trkpt lat="44.85112" lon="1.0755">
        <ele>63.2</ele>
        <time>2022-08-15T10:25:37Z</time>
      </trkpt>
      <trkpt lat="44.85105" lon="1.07558">
        <ele>63.1</ele>
        <time>2022-08-15T10:25:39Z</time>
      </trkpt>
      <trkpt lat="44.85097" lon="1.07565">
        <ele>63.1</ele>
        <time>2022-08-15T10:25:41Z</time>
      </trkpt>
      <trkpt lat="44.8509" lon="1.07574">
        <ele>63</ele>
        <time>2022-08-15T10:25:43Z</time>
      </trkpt>
      <trkpt lat="44.85082" lon="1.07582">
        <ele>63</ele>
        <time>2022-08-15T10:25:45Z</time>
      </trkpt>
      <trkpt lat="44.85074" lon="1.0759">
        <ele>62.8</ele>
        <time>2022-08-15T10:25:47Z</time>
      </trkpt>
      <trkpt lat="44.85067" lon="1.07599">
        <ele>62.7</ele>
        <time>2022-08-15T10:25:49Z</time>
      </trkpt>
      <trkpt lat="44.8506" lon="1.07606">
        <ele>62.5</ele>
        <time>2022-08-15T10:25:51Z</time>
      </trkpt>
      <trkpt lat="44.85052" lon="1.07614">
        <ele>62.4</ele>
        <time>2022-08-15T10:25:53Z</time>
      </trkpt>
      <trkpt lat="44.85045" lon="1.07622">
        <ele>62.3</ele>
        <time>2022-08-15T10:25:55Z</time>
      </trkpt>
      <trkpt lat="44.85038" lon="1.0763">
        <ele>62.2</ele>
        <time>2022-08-15T10:25:57Z</time>
      </trkpt>
      <trkpt lat="44.8503" lon="1.07638">
        <ele>62.1</ele>
        <time>2022-08-15T10:25:59Z</time>
      </trkpt>
      <trkpt lat="44.85023" lon="1.07645">
        <ele>62.1</ele>
        <time>2022-08-15T10:26:01Z</time>
      </trkpt>
      <trkpt lat="44.85016" lon="1.07653">
        <ele>62</ele>
        <time>2022-08-15T10:26:03Z</time>
      </trkpt>
      <trkpt lat="44.85009" lon="1.07662">
        <ele>62</ele>
        <time>2022-08-15T10:26:05Z</time>
      </trkpt>
      <trkpt lat="44.85002" lon="1.07669">
        <ele>62</ele>
        <time>2022-08-15T10:26:07Z</time>
      </trkpt>
      <trkpt lat="44.84994" lon="1.07677">
        <ele>62.1</ele>
        <time>2022-08-15T10:26:09Z</time>
      </trkpt>
      <trkpt lat="44.84987" lon="1.07684">
        <ele>62.2</ele>
        <time>2022-08-15T10:26:11Z</time>
      </trkpt>
      <trkpt lat="44.8498" lon="1.07693">
        <ele>62.3</ele>
        <time>2022-08-15T10:26:13Z</time>
      </trkpt>
      <trkpt lat="44.84973" lon="1.077">
        <ele>62.4</ele>
        <time>2022-08-15T10:26:15Z</time>
      </trkpt>
      <trkpt lat="44.84965" lon="1.07708">
        <ele>62.5</ele>
        <time>2022-08-15T10:26:17Z</time>
      </trkpt>
      <trkpt lat="44.84958" lon="1.07716">
        <ele>62.6</ele>
        <time>2022-08-15T10:26:19Z</time>
      </trkpt>
      <trkpt lat="44.8495" lon="1.07725">
        <ele>62.7</ele>
        <time>2022-08-15T10:26:21Z</time>
      </trkpt>
      <trkpt lat="44.84942" lon="1.07732">
        <ele>62.8</ele>
        <time>2022-08-15T10:26:23Z</time>
      </trkpt>
      <trkpt lat="44.84935" lon="1.07741">
        <ele>62.9</ele>
        <time>2022-08-15T10:26:25Z</time>
      </trkpt>
      <trkpt lat="44.84927" lon="1.07749">
        <ele>63</ele>
        <time>2022-08-15T10:26:27Z</time>
      </trkpt>
      <trkpt lat="44.84919" lon="1.07758">
        <ele>63.1</ele>
        <time>2022-08-15T10:26:29Z</time>
      </trkpt>
      <trkpt lat="44.84911" lon="1.07766">
        <ele>63.1</ele>
        <time>2022-08-15T10:26:31Z</time>
      </trkpt>
      <trkpt lat="44.84903" lon="1.07774">
        <ele>63.1</ele>
        <time>2022-08-15T10:26:33Z</time>
      </trkpt>
      <trkpt lat="44.84895" lon="1.07783">
        <ele>63</ele>
        <time>2022-08-15T10:26:35Z</time>
      </trkpt>
      <trkpt lat="44.84887" lon="1.07791">
        <ele>63</ele>
        <time>2022-08-15T10:26:37Z</time>
      </trkpt>
      <trkpt lat="44.84879" lon="1.07799">
        <ele>62.9</ele>
        <time>2022-08-15T10:26:39Z</time>
      </trkpt>
      <trkpt lat="44.84872" lon="1.07808">
        <ele>62.8</ele>
        <time>2022-08-15T10:26:41Z</time>
      </trkpt>
      <trkpt lat="44.84864" lon="1.07816">
        <ele>62.7</ele>
        <time>2022-08-15T10:26:43Z</time>
      </trkpt>
      <trkpt lat="44.84856" lon="1.07825">
        <ele>62.5</ele>
        <time>2022-08-15T10:26:45Z</time>
      </trkpt>
      <trkpt lat="44.84849" lon="1.07833">
        <ele>62.4</ele>
        <time>2022-08-15T10:26:47Z</time>
      </trkpt>
      <trkpt lat="44.84841" lon="1.07842">
        <ele>62.3</ele>
        <time>2022-08-15T10:26:49Z</time>
      </trkpt>
      <trkpt lat="44.84834" lon="1.07851">
        <ele>62.2</ele>
        <time>2022-08-15T10:26:51Z</time>
      </trkpt>
      <trkpt lat="44.84826" lon="1.07859">
        <ele>62.5</ele>
        <time>2022-08-15T10:26:53Z</time>
      </trkpt>
      <trkpt lat="44.84818" lon="1.07868">
        <ele>62.7</ele>
        <time>2022-08-15T10:26:55Z</time>
      </trkpt>
      <trkpt lat="44.8481" lon="1.07876">
        <ele>62.9</ele>
        <time>2022-08-15T10:26:57Z</time>
      </trkpt>
      <trkpt lat="44.84802" lon="1.07885">
        <ele>63.1</ele>
        <time>2022-08-15T10:26:59Z</time>
      </trkpt>
      <trkpt lat="44.84794" lon="1.07894">
        <ele>63.3</ele>
        <time>2022-08-15T10:27:01Z</time>
      </trkpt>
      <trkpt lat="44.84786" lon="1.07902">
        <ele>63.5</ele>
        <time>2022-08-15T10:27:03Z</time>
      </trkpt>
      <trkpt lat="44.84778" lon="1.07911">
        <ele>63.6</ele>
        <time>2022-08-15T10:27:05Z</time>
      </trkpt>
      <trkpt lat="44.84769" lon="1.0792">
        <ele>63.8</ele>
        <time>2022-08-15T10:27:07Z</time>
      </trkpt>
      <trkpt lat="44.84762" lon="1.07929">
        <ele>63.9</ele>
        <time>2022-08-15T10:27:09Z</time>
      </trkpt>
      <trkpt lat="44.84754" lon="1.07937">
        <ele>64</ele>
        <time>2022-08-15T10:27:11Z</time>
      </trkpt>
      <trkpt lat="44.84747" lon="1.07945">
        <ele>63.9</ele>
        <time>2022-08-15T10:27:13Z</time>
      </trkpt>
      <trkpt lat="44.84739" lon="1.07952">
        <ele>63.7</ele>
        <time>2022-08-15T10:27:15Z</time>
      </trkpt>
      <trkpt lat="44.84732" lon="1.07961">
        <ele>63.6</ele>
        <time>2022-08-15T10:27:17Z</time>
      </trkpt>
      <trkpt lat="44.84724" lon="1.07969">
        <ele>63.4</ele>
        <time>2022-08-15T10:27:19Z</time>
      </trkpt>
      <trkpt lat="44.84717" lon="1.07977">
        <ele>63.2</ele>
        <time>2022-08-15T10:27:21Z</time>
      </trkpt>
      <trkpt lat="44.84709" lon="1.07985">
        <ele>63</ele>
        <time>2022-08-15T10:27:23Z</time>
      </trkpt>
      <trkpt lat="44.84701" lon="1.07993">
        <ele>62.8</ele>
        <time>2022-08-15T10:27:25Z</time>
      </trkpt>
      <trkpt lat="44.84693" lon="1.08002">
        <ele>62.6</ele>
        <time>2022-08-15T10:27:27Z</time>
      </trkpt>
      <trkpt lat="44.84686" lon="1.0801">
        <ele>62.5</ele>
        <time>2022-08-15T10:27:29Z</time>
      </trkpt>
      <trkpt lat="44.84678" lon="1.08019">
        <ele>62.4</ele>
        <time>2022-08-15T10:27:31Z</time>
      </trkpt>
      <trkpt lat="44.8467" lon="1.08027">
        <ele>62.4</ele>
        <time>2022-08-15T10:27:33Z</time>
      </trkpt>
      <trkpt lat="44.84663" lon="1.08036">
        <ele>62.4</ele>
        <time>2022-08-15T10:27:35Z</time>
      </trkpt>
      <trkpt lat="44.84655" lon="1.08045">
        <ele>62.5</ele>
        <time>2022-08-15T10:27:37Z</time>
      </trkpt>
      <trkpt lat="44.84647" lon="1.08053">
        <ele>62.6</ele>
        <time>2022-08-15T10:27:39Z</time>
      </trkpt>
      <trkpt lat="44.84639" lon="1.08061">
        <ele>62.6</ele>
        <time>2022-08-15T10:27:41Z</time>
      </trkpt>
      <trkpt lat="44.84632" lon="1.08069">
        <ele>62.8</ele>
        <time>2022-08-15T10:27:43Z</time>
      </trkpt>
      <trkpt lat="44.84624" lon="1.08078">
        <ele>62.9</ele>
        <time>2022-08-15T10:27:45Z</time>
      </trkpt>
      <trkpt lat="44.84617" lon="1.08085">
        <ele>63</ele>
        <time>2022-08-15T10:27:47Z</time>
      </trkpt>
      <trkpt lat="44.8461" lon="1.08094">
        <ele>63</ele>
        <time>2022-08-15T10:27:49Z</time>
      </trkpt>
      <trkpt lat="44.84602" lon="1.08102">
        <ele>62.9</ele>
        <time>2022-08-15T10:27:51Z</time>
      </trkpt>
      <trkpt lat="44.84595" lon="1.0811">
        <ele>63</ele>
        <time>2022-08-15T10:27:53Z</time>
      </trkpt>
      <trkpt lat="44.84587" lon="1.08119">
        <ele>63</ele>
        <time>2022-08-15T10:27:55Z</time>
      </trkpt>
      <trkpt lat="44.8458" lon="1.08128">
        <ele>63</ele>
        <time>2022-08-15T10:27:57Z</time>
      </trkpt>
      <trkpt lat="44.84572" lon="1.08136">
        <ele>62.9</ele>
        <time>2022-08-15T10:27:59Z</time>
      </trkpt>
      <trkpt lat="44.84565" lon="1.08143">
        <ele>62.9</ele>
        <time>2022-08-15T10:28:01Z</time>
      </trkpt>
      <trkpt lat="44.84558" lon="1.08151">
        <ele>62.9</ele>
        <time>2022-08-15T10:28:03Z</time>
      </trkpt>
      <trkpt lat="44.8455" lon="1.08158">
        <ele>63</ele>
        <time>2022-08-15T10:28:05Z</time>
      </trkpt>
      <trkpt lat="44.84542" lon="1.08165">
        <ele>63</ele>
        <time>2022-08-15T10:28:07Z</time>
      </trkpt>
      <trkpt lat="44.84534" lon="1.08171">
        <ele>63</ele>
        <time>2022-08-15T10:28:09Z</time>
      </trkpt>
      <trkpt lat="44.84526" lon="1.08176">
        <ele>62.9</ele>
        <time>2022-08-15T10:28:11Z</time>
      </trkpt>
      <trkpt lat="44.84518" lon="1.08179">
        <ele>62.8</ele>
        <time>2022-08-15T10:28:13Z</time>
      </trkpt>
      <trkpt lat="44.84511" lon="1.08182">
        <ele>62.8</ele>
        <time>2022-08-15T10:28:15Z</time>
      </trkpt>
      <trkpt lat="44.84503" lon="1.08185">
        <ele>62.8</ele>
        <time>2022-08-15T10:28:17Z</time>
      </trkpt>
      <trkpt lat="44.84496" lon="1.0819">
        <ele>62.6</ele>
        <time>2022-08-15T10:28:19Z</time>
      </trkpt>
      <trkpt lat="44.84491" lon="1.08197">
        <ele>62.5</ele>
        <time>2022-08-15T10:28:21Z</time>
      </trkpt>
      <trkpt lat="44.84488" lon="1.08205">
        <ele>62.3</ele>
        <time>2022-08-15T10:28:23Z</time>
      </trkpt>
      <trkpt lat="44.84488" lon="1.08211">
        <ele>62.3</ele>
        <time>2022-08-15T10:28:25Z</time>
      </trkpt>
      <trkpt lat="44.84487" lon="1.08213">
        <ele>62.2</ele>
        <time>2022-08-15T10:28:27Z</time>
      </trkpt>
      <trkpt lat="44.84487" lon="1.08215">
        <ele>62.2</ele>
        <time>2022-08-15T10:28:29Z</time>
      </trkpt>
      <trkpt lat="44.84485" lon="1.08218">
        <ele>62.1</ele>
        <time>2022-08-15T10:28:31Z</time>
      </trkpt>
      <trkpt lat="44.84483" lon="1.0822">
        <ele>62.1</ele>
        <time>2022-08-15T10:28:33Z</time>
      </trkpt>
      <trkpt lat="44.84479" lon="1.08224">
        <ele>62</ele>
        <time>2022-08-15T10:28:35Z</time>
      </trkpt>
      <trkpt lat="44.84476" lon="1.08227">
        <ele>61.9</ele>
        <time>2022-08-15T10:28:37Z</time>
      </trkpt>
      <trkpt lat="44.84471" lon="1.08232">
        <ele>61.8</ele>
        <time>2022-08-15T10:28:39Z</time>
      </trkpt>
      <trkpt lat="44.84466" lon="1.08237">
        <ele>61.7</ele>
        <time>2022-08-15T10:28:41Z</time>
      </trkpt>
      <trkpt lat="44.84461" lon="1.08243">
        <ele>61.6</ele>
        <time>2022-08-15T10:28:43Z</time>
      </trkpt>
      <trkpt lat="44.84456" lon="1.08248">
        <ele>61.5</ele>
        <time>2022-08-15T10:28:45Z</time>
      </trkpt>
      <trkpt lat="44.84451" lon="1.08254">
        <ele>61.4</ele>
        <time>2022-08-15T10:28:47Z</time>
      </trkpt>
      <trkpt lat="44.84446" lon="1.08261">
        <ele>61.4</ele>
        <time>2022-08-15T10:28:49Z</time>
      </trkpt>
      <trkpt lat="44.84441" lon="1.08268">
        <ele>61.4</ele>
        <time>2022-08-15T10:28:51Z</time>
      </trkpt>
      <trkpt lat="44.84435" lon="1.08275">
        <ele>61.3</ele>
        <time>2022-08-15T10:28:53Z</time>
      </trkpt>
      <trkpt lat="44.84429" lon="1.08282">
        <ele>61.2</ele>
        <time>2022-08-15T10:28:55Z</time>
      </trkpt>
      <trkpt lat="44.84423" lon="1.08291">
        <ele>61.1</ele>
        <time>2022-08-15T10:28:57Z</time>
      </trkpt>
      <trkpt lat="44.84416" lon="1.08299">
        <ele>61</ele>
        <time>2022-08-15T10:28:59Z</time>
      </trkpt>
      <trkpt lat="44.84409" lon="1.08305">
        <ele>61</ele>
        <time>2022-08-15T10:29:01Z</time>
      </trkpt>
      <trkpt lat="44.84401" lon="1.0831">
        <ele>61</ele>
        <time>2022-08-15T10:29:03Z</time>
      </trkpt>
      <trkpt lat="44.84392" lon="1.08315">
        <ele>61.1</ele>
        <time>2022-08-15T10:29:05Z</time>
      </trkpt>
      <trkpt lat="44.84384" lon="1.08319">
        <ele>61.2</ele>
        <time>2022-08-15T10:29:07Z</time>
      </trkpt>
      <trkpt lat="44.84376" lon="1.08321">
        <ele>61.3</ele>
        <time>2022-08-15T10:29:09Z</time>
      </trkpt>
      <trkpt lat="44.84368" lon="1.08324">
        <ele>61.4</ele>
        <time>2022-08-15T10:29:11Z</time>
      </trkpt>
      <trkpt lat="44.84359" lon="1.08325">
        <ele>61.5</ele>
        <time>2022-08-15T10:29:13Z</time>
      </trkpt>
      <trkpt lat="44.84351" lon="1.08326">
        <ele>61.6</ele>
        <time>2022-08-15T10:29:15Z</time>
      </trkpt>
      <trkpt lat="44.84343" lon="1.08327">
        <ele>61.7</ele>
        <time>2022-08-15T10:29:17Z</time>
      </trkpt>
      <trkpt lat="44.84334" lon="1.08329">
        <ele>61.8</ele>
        <time>2022-08-15T10:29:19Z</time>
      </trkpt>
      <trkpt lat="44.84326" lon="1.0833">
        <ele>61.8</ele>
        <time>2022-08-15T10:29:21Z</time>
      </trkpt>
      <trkpt lat="44.84317" lon="1.08331">
        <ele>61.7</ele>
        <time>2022-08-15T10:29:23Z</time>
      </trkpt>
      <trkpt lat="44.84309" lon="1.08332">
        <ele>61.7</ele>
        <time>2022-08-15T10:29:25Z</time>
      </trkpt>
      <trkpt lat="44.843" lon="1.08335">
        <ele>61.6</ele>
        <time>2022-08-15T10:29:27Z</time>
      </trkpt>
      <trkpt lat="44.84292" lon="1.08338">
        <ele>61.6</ele>
        <time>2022-08-15T10:29:29Z</time>
      </trkpt>
      <trkpt lat="44.84284" lon="1.08342">
        <ele>61.5</ele>
        <time>2022-08-15T10:29:31Z</time>
      </trkpt>
      <trkpt lat="44.84277" lon="1.08348">
        <ele>61.5</ele>
        <time>2022-08-15T10:29:33Z</time>
      </trkpt>
      <trkpt lat="44.84269" lon="1.08354">
        <ele>61.5</ele>
        <time>2022-08-15T10:29:35Z</time>
      </trkpt>
      <trkpt lat="44.84262" lon="1.08362">
        <ele>61.5</ele>
        <time>2022-08-15T10:29:37Z</time>
      </trkpt>
      <trkpt lat="44.84256" lon="1.08371">
        <ele>61.5</ele>
        <time>2022-08-15T10:29:39Z</time>
      </trkpt>
      <trkpt lat="44.8425" lon="1.08381">
        <ele>61.6</ele>
        <time>2022-08-15T10:29:41Z</time>
      </trkpt>
      <trkpt lat="44.84245" lon="1.08391">
        <ele>61.7</ele>
        <time>2022-08-15T10:29:43Z</time>
      </trkpt>
      <trkpt lat="44.8424" lon="1.08402">
        <ele>61.9</ele>
        <time>2022-08-15T10:29:45Z</time>
      </trkpt>
      <trkpt lat="44.84234" lon="1.08412">
        <ele>62.1</ele>
        <time>2022-08-15T10:29:47Z</time>
      </trkpt>
      <trkpt lat="44.84228" lon="1.08423">
        <ele>62.3</ele>
        <time>2022-08-15T10:29:49Z</time>
      </trkpt>
      <trkpt lat="44.84223" lon="1.08433">
        <ele>62.5</ele>
        <time>2022-08-15T10:29:51Z</time>
      </trkpt>
      <trkpt lat="44.84217" lon="1.08443">
        <ele>62.7</ele>
        <time>2022-08-15T10:29:53Z</time>
      </trkpt>
      <trkpt lat="44.84212" lon="1.08454">
        <ele>62.7</ele>
        <time>2022-08-15T10:29:55Z</time>
      </trkpt>
      <trkpt lat="44.84206" lon="1.08464">
        <ele>62.8</ele>
        <time>2022-08-15T10:29:57Z</time>
      </trkpt>
      <trkpt lat="44.84201" lon="1.08475">
        <ele>62.8</ele>
        <time>2022-08-15T10:29:59Z</time>
      </trkpt>
      <trkpt lat="44.84195" lon="1.08485">
        <ele>62.7</ele>
        <time>2022-08-15T10:30:01Z</time>
      </trkpt>
      <trkpt lat="44.84189" lon="1.08495">
        <ele>62.6</ele>
        <time>2022-08-15T10:30:03Z</time>
      </trkpt>
      <trkpt lat="44.84183" lon="1.08505">
        <ele>62.7</ele>
        <time>2022-08-15T10:30:05Z</time>
      </trkpt>
      <trkpt lat="44.84177" lon="1.08515">
        <ele>62.9</ele>
        <time>2022-08-15T10:30:07Z</time>
      </trkpt>
      <trkpt lat="44.84171" lon="1.08525">
        <ele>63.1</ele>
        <time>2022-08-15T10:30:09Z</time>
      </trkpt>
      <trkpt lat="44.84165" lon="1.08534">
        <ele>63.2</ele>
        <time>2022-08-15T10:30:11Z</time>
      </trkpt>
      <trkpt lat="44.84158" lon="1.08544">
        <ele>63.2</ele>
        <time>2022-08-15T10:30:13Z</time>
      </trkpt>
      <trkpt lat="44.84151" lon="1.08552">
        <ele>63.2</ele>
        <time>2022-08-15T10:30:15Z</time>
      </trkpt>
      <trkpt lat="44.84144" lon="1.08561">
        <ele>63.2</ele>
        <time>2022-08-15T10:30:17Z</time>
      </trkpt>
      <trkpt lat="44.84137" lon="1.0857">
        <ele>63.2</ele>
        <time>2022-08-15T10:30:19Z</time>
      </trkpt>
      <trkpt lat="44.8413" lon="1.08579">
        <ele>63.1</ele>
        <time>2022-08-15T10:30:21Z</time>
      </trkpt>
      <trkpt lat="44.84123" lon="1.08588">
        <ele>63.3</ele>
        <time>2022-08-15T10:30:23Z</time>
      </trkpt>
      <trkpt lat="44.84116" lon="1.08597">
        <ele>63.7</ele>
        <time>2022-08-15T10:30:25Z</time>
      </trkpt>
      <trkpt lat="44.84109" lon="1.08606">
        <ele>63.9</ele>
        <time>2022-08-15T10:30:27Z</time>
      </trkpt>
      <trkpt lat="44.84102" lon="1.08615">
        <ele>64</ele>
        <time>2022-08-15T10:30:29Z</time>
      </trkpt>
      <trkpt lat="44.84095" lon="1.08624">
        <ele>64</ele>
        <time>2022-08-15T10:30:31Z</time>
      </trkpt>
      <trkpt lat="44.84088" lon="1.08633">
        <ele>63.8</ele>
        <time>2022-08-15T10:30:33Z</time>
      </trkpt>
      <trkpt lat="44.8408" lon="1.08641">
        <ele>63.6</ele>
        <time>2022-08-15T10:30:35Z</time>
      </trkpt>
      <trkpt lat="44.84073" lon="1.08649">
        <ele>63.7</ele>
        <time>2022-08-15T10:30:37Z</time>
      </trkpt>
      <trkpt lat="44.84066" lon="1.08658">
        <ele>63.8</ele>
        <time>2022-08-15T10:30:39Z</time>
      </trkpt>
      <trkpt lat="44.84059" lon="1.08667">
        <ele>63.9</ele>
        <time>2022-08-15T10:30:41Z</time>
      </trkpt>
      <trkpt lat="44.84052" lon="1.08674">
        <ele>64.3</ele>
        <time>2022-08-15T10:30:43Z</time>
      </trkpt>
      <trkpt lat="44.84045" lon="1.08682">
        <ele>64.6</ele>
        <time>2022-08-15T10:30:45Z</time>
      </trkpt>
      <trkpt lat="44.84038" lon="1.08689">
        <ele>64.7</ele>
        <time>2022-08-15T10:30:47Z</time>
      </trkpt>
      <trkpt lat="44.8403" lon="1.08697">
        <ele>64.6</ele>
        <time>2022-08-15T10:30:49Z</time>
      </trkpt>
      <trkpt lat="44.84022" lon="1.08704">
        <ele>64.3</ele>
        <time>2022-08-15T10:30:51Z</time>
      </trkpt>
      <trkpt lat="44.84014" lon="1.08711">
        <ele>63.7</ele>
        <time>2022-08-15T10:30:53Z</time>
      </trkpt>
      <trkpt lat="44.84006" lon="1.08718">
        <ele>63</ele>
        <time>2022-08-15T10:30:55Z</time>
      </trkpt>
      <trkpt lat="44.83998" lon="1.08725">
        <ele>62.3</ele>
        <time>2022-08-15T10:30:57Z</time>
      </trkpt>
      <trkpt lat="44.83989" lon="1.08731">
        <ele>62.3</ele>
        <time>2022-08-15T10:30:59Z</time>
      </trkpt>
      <trkpt lat="44.83981" lon="1.08737">
        <ele>62.3</ele>
        <time>2022-08-15T10:31:01Z</time>
      </trkpt>
      <trkpt lat="44.83973" lon="1.08744">
        <ele>62.2</ele>
        <time>2022-08-15T10:31:03Z</time>
      </trkpt>
      <trkpt lat="44.83966" lon="1.0875">
        <ele>62.2</ele>
        <time>2022-08-15T10:31:05Z</time>
      </trkpt>
      <trkpt lat="44.83958" lon="1.08758">
        <ele>62.5</ele>
        <time>2022-08-15T10:31:07Z</time>
      </trkpt>
      <trkpt lat="44.83951" lon="1.08766">
        <ele>62.7</ele>
        <time>2022-08-15T10:31:09Z</time>
      </trkpt>
      <trkpt lat="44.83945" lon="1.08773">
        <ele>62.8</ele>
        <time>2022-08-15T10:31:11Z</time>
      </trkpt>
      <trkpt lat="44.83939" lon="1.0878">
        <ele>62.8</ele>
        <time>2022-08-15T10:31:13Z</time>
      </trkpt>
      <trkpt lat="44.83934" lon="1.08787">
        <ele>62.9</ele>
        <time>2022-08-15T10:31:15Z</time>
      </trkpt>
      <trkpt lat="44.83929" lon="1.08795">
        <ele>62.8</ele>
        <time>2022-08-15T10:31:17Z</time>
      </trkpt>
      <trkpt lat="44.83925" lon="1.08803">
        <ele>62.8</ele>
        <time>2022-08-15T10:31:19Z</time>
      </trkpt>
      <trkpt lat="44.83922" lon="1.08811">
        <ele>62.8</ele>
        <time>2022-08-15T10:31:21Z</time>
      </trkpt>
      <trkpt lat="44.83918" lon="1.08818">
        <ele>62.8</ele>
        <time>2022-08-15T10:31:23Z</time>
      </trkpt>
      <trkpt lat="44.83917" lon="1.08823">
        <ele>62.8</ele>
        <time>2022-08-15T10:31:25Z</time>
      </trkpt>
      <trkpt lat="44.83913" lon="1.08827">
        <ele>62.9</ele>
        <time>2022-08-15T10:31:27Z</time>
      </trkpt>
      <trkpt lat="44.83909" lon="1.08832">
        <ele>63</ele>
        <time>2022-08-15T10:31:29Z</time>
      </trkpt>
      <trkpt lat="44.83904" lon="1.08835">
        <ele>63.1</ele>
        <time>2022-08-15T10:31:31Z</time>
      </trkpt>
      <trkpt lat="44.83898" lon="1.08836">
        <ele>63.1</ele>
        <time>2022-08-15T10:31:33Z</time>
      </trkpt>
      <trkpt lat="44.83893" lon="1.08839">
        <ele>63.3</ele>
        <time>2022-08-15T10:31:35Z</time>
      </trkpt>
      <trkpt lat="44.83887" lon="1.08846">
        <ele>63.7</ele>
        <time>2022-08-15T10:31:37Z</time>
      </trkpt>
      <trkpt lat="44.83882" lon="1.08855">
        <ele>64.1</ele>
        <time>2022-08-15T10:31:39Z</time>
      </trkpt>
      <trkpt lat="44.83876" lon="1.08865">
        <ele>64.5</ele>
        <time>2022-08-15T10:31:41Z</time>
      </trkpt>
      <trkpt lat="44.83872" lon="1.08875">
        <ele>64.9</ele>
        <time>2022-08-15T10:31:43Z</time>
      </trkpt>
      <trkpt lat="44.83867" lon="1.08885">
        <ele>65.2</ele>
        <time>2022-08-15T10:31:45Z</time>
      </trkpt>
      <trkpt lat="44.83863" lon="1.08893">
        <ele>65.4</ele>
        <time>2022-08-15T10:31:47Z</time>
      </trkpt>
      <trkpt lat="44.83858" lon="1.089">
        <ele>65.5</ele>
        <time>2022-08-15T10:31:49Z</time>
      </trkpt>
      <trkpt lat="44.83853" lon="1.08908">
        <ele>65.7</ele>
        <time>2022-08-15T10:31:51Z</time>
      </trkpt>
      <trkpt lat="44.83849" lon="1.08916">
        <ele>65.7</ele>
        <time>2022-08-15T10:31:53Z</time>
      </trkpt>
      <trkpt lat="44.83843" lon="1.08922">
        <ele>65.8</ele>
        <time>2022-08-15T10:31:55Z</time>
      </trkpt>
      <trkpt lat="44.83838" lon="1.08929">
        <ele>65.9</ele>
        <time>2022-08-15T10:31:57Z</time>
      </trkpt>
      <trkpt lat="44.83832" lon="1.08936">
        <ele>66.1</ele>
        <time>2022-08-15T10:31:59Z</time>
      </trkpt>
      <trkpt lat="44.83827" lon="1.08942">
        <ele>66.3</ele>
        <time>2022-08-15T10:32:01Z</time>
      </trkpt>
      <trkpt lat="44.83821" lon="1.08948">
        <ele>66.5</ele>
        <time>2022-08-15T10:32:03Z</time>
      </trkpt>
      <trkpt lat="44.83815" lon="1.08954">
        <ele>66.6</ele>
        <time>2022-08-15T10:32:05Z</time>
      </trkpt>
      <trkpt lat="44.8381" lon="1.08959">
        <ele>66.7</ele>
        <time>2022-08-15T10:32:07Z</time>
      </trkpt>
      <trkpt lat="44.83805" lon="1.08965">
        <ele>66.8</ele>
        <time>2022-08-15T10:32:09Z</time>
      </trkpt>
      <trkpt lat="44.838" lon="1.08971">
        <ele>66.9</ele>
        <time>2022-08-15T10:32:11Z</time>
      </trkpt>
      <trkpt lat="44.83794" lon="1.08976">
        <ele>66.9</ele>
        <time>2022-08-15T10:32:13Z</time>
      </trkpt>
      <trkpt lat="44.83788" lon="1.08978">
        <ele>66.8</ele>
        <time>2022-08-15T10:32:15Z</time>
      </trkpt>
      <trkpt lat="44.83782" lon="1.0898">
        <ele>66.6</ele>
        <time>2022-08-15T10:32:17Z</time>
      </trkpt>
      <trkpt lat="44.83775" lon="1.0898">
        <ele>66.3</ele>
        <time>2022-08-15T10:32:19Z</time>
      </trkpt>
      <trkpt lat="44.83768" lon="1.0898">
        <ele>66</ele>
        <time>2022-08-15T10:32:21Z</time>
      </trkpt>
      <trkpt lat="44.83759" lon="1.0898">
        <ele>65.6</ele>
        <time>2022-08-15T10:32:23Z</time>
      </trkpt>
      <trkpt lat="44.8375" lon="1.0898">
        <ele>65.3</ele>
        <time>2022-08-15T10:32:25Z</time>
      </trkpt>
      <trkpt lat="44.83742" lon="1.08982">
        <ele>65.1</ele>
        <time>2022-08-15T10:32:27Z</time>
      </trkpt>
      <trkpt lat="44.83733" lon="1.08982">
        <ele>64.9</ele>
        <time>2022-08-15T10:32:29Z</time>
      </trkpt>
      <trkpt lat="44.83724" lon="1.08984">
        <ele>64.7</ele>
        <time>2022-08-15T10:32:31Z</time>
      </trkpt>
      <trkpt lat="44.83715" lon="1.08985">
        <ele>64.5</ele>
        <time>2022-08-15T10:32:33Z</time>
      </trkpt>
      <trkpt lat="44.83706" lon="1.08987">
        <ele>64.3</ele>
        <time>2022-08-15T10:32:35Z</time>
      </trkpt>
      <trkpt lat="44.83697" lon="1.08988">
        <ele>64</ele>
        <time>2022-08-15T10:32:37Z</time>
      </trkpt>
      <trkpt lat="44.83688" lon="1.08988">
        <ele>63.8</ele>
        <time>2022-08-15T10:32:39Z</time>
      </trkpt>
      <trkpt lat="44.83679" lon="1.08989">
        <ele>63.5</ele>
        <time>2022-08-15T10:32:41Z</time>
      </trkpt>
      <trkpt lat="44.8367" lon="1.08989">
        <ele>63.2</ele>
        <time>2022-08-15T10:32:43Z</time>
      </trkpt>
      <trkpt lat="44.83661" lon="1.0899">
        <ele>63.2</ele>
        <time>2022-08-15T10:32:45Z</time>
      </trkpt>
      <trkpt lat="44.83653" lon="1.08991">
        <ele>63.2</ele>
        <time>2022-08-15T10:32:47Z</time>
      </trkpt>
      <trkpt lat="44.83644" lon="1.08993">
        <ele>63.3</ele>
        <time>2022-08-15T10:32:49Z</time>
      </trkpt>
      <trkpt lat="44.83635" lon="1.08995">
        <ele>63.4</ele>
        <time>2022-08-15T10:32:51Z</time>
      </trkpt>
      <trkpt lat="44.83626" lon="1.08998">
        <ele>63.5</ele>
        <time>2022-08-15T10:32:53Z</time>
      </trkpt>
      <trkpt lat="44.83617" lon="1.09003">
        <ele>63.7</ele>
        <time>2022-08-15T10:32:55Z</time>
      </trkpt>
      <trkpt lat="44.83608" lon="1.09009">
        <ele>63.8</ele>
        <time>2022-08-15T10:32:57Z</time>
      </trkpt>
      <trkpt lat="44.836" lon="1.09014">
        <ele>63.9</ele>
        <time>2022-08-15T10:32:59Z</time>
      </trkpt>
      <trkpt lat="44.83592" lon="1.09021">
        <ele>64</ele>
        <time>2022-08-15T10:33:01Z</time>
      </trkpt>
      <trkpt lat="44.83583" lon="1.09027">
        <ele>64</ele>
        <time>2022-08-15T10:33:03Z</time>
      </trkpt>
      <trkpt lat="44.83575" lon="1.09034">
        <ele>64</ele>
        <time>2022-08-15T10:33:05Z</time>
      </trkpt>
      <trkpt lat="44.83567" lon="1.0904">
        <ele>64</ele>
        <time>2022-08-15T10:33:07Z</time>
      </trkpt>
      <trkpt lat="44.83559" lon="1.09046">
        <ele>64</ele>
        <time>2022-08-15T10:33:09Z</time>
      </trkpt>
      <trkpt lat="44.83552" lon="1.0905">
        <ele>64</ele>
        <time>2022-08-15T10:33:11Z</time>
      </trkpt>
      <trkpt lat="44.83544" lon="1.09056">
        <ele>64</ele>
        <time>2022-08-15T10:33:13Z</time>
      </trkpt>
      <trkpt lat="44.83536" lon="1.09061">
        <ele>64</ele>
        <time>2022-08-15T10:33:15Z</time>
      </trkpt>
      <trkpt lat="44.83528" lon="1.09068">
        <ele>64</ele>
        <time>2022-08-15T10:33:17Z</time>
      </trkpt>
      <trkpt lat="44.83521" lon="1.09074">
        <ele>64</ele>
        <time>2022-08-15T10:33:19Z</time>
      </trkpt>
      <trkpt lat="44.83513" lon="1.09079">
        <ele>64</ele>
        <time>2022-08-15T10:33:21Z</time>
      </trkpt>
      <trkpt lat="44.83505" lon="1.09085">
        <ele>64</ele>
        <time>2022-08-15T10:33:23Z</time>
      </trkpt>
      <trkpt lat="44.83498" lon="1.09092">
        <ele>64</ele>
        <time>2022-08-15T10:33:25Z</time>
      </trkpt>
      <trkpt lat="44.83491" lon="1.09099">
        <ele>63.9</ele>
        <time>2022-08-15T10:33:27Z</time>
      </trkpt>
      <trkpt lat="44.83485" lon="1.09105">
        <ele>63.8</ele>
        <time>2022-08-15T10:33:29Z</time>
      </trkpt>
      <trkpt lat="44.83478" lon="1.09112">
        <ele>63.7</ele>
        <time>2022-08-15T10:33:31Z</time>
      </trkpt>
      <trkpt lat="44.83472" lon="1.09119">
        <ele>63.7</ele>
        <time>2022-08-15T10:33:33Z</time>
      </trkpt>
      <trkpt lat="44.83466" lon="1.09128">
        <ele>63.8</ele>
        <time>2022-08-15T10:33:35Z</time>
      </trkpt>
      <trkpt lat="44.83458" lon="1.09135">
        <ele>63.7</ele>
        <time>2022-08-15T10:33:37Z</time>
      </trkpt>
      <trkpt lat="44.83451" lon="1.0914">
        <ele>63.7</ele>
        <time>2022-08-15T10:33:39Z</time>
      </trkpt>
      <trkpt lat="44.83445" lon="1.09147">
        <ele>63.8</ele>
        <time>2022-08-15T10:33:41Z</time>
      </trkpt>
      <trkpt lat="44.83441" lon="1.09149">
        <ele>63.8</ele>
        <time>2022-08-15T10:33:43Z</time>
      </trkpt>
      <trkpt lat="44.83441" lon="1.09149">
        <ele>63.8</ele>
        <time>2022-08-15T10:33:45Z</time>
      </trkpt>
      <trkpt lat="44.83441" lon="1.09149">
        <ele>63.8</ele>
        <time>2022-08-15T10:33:47Z</time>
      </trkpt>
      <trkpt lat="44.83441" lon="1.09149">
        <ele>63.8</ele>
        <time>2022-08-15T10:33:49Z</time>
      </trkpt>
      <trkpt lat="44.83441" lon="1.0915">
        <ele>63.8</ele>
        <time>2022-08-15T10:33:51Z</time>
      </trkpt>
      <trkpt lat="44.83442" lon="1.0915">
        <ele>63.8</ele>
        <time>2022-08-15T10:33:53Z</time>
      </trkpt>
      <trkpt lat="44.8345" lon="1.09166">
        <ele>64.4</ele>
        <time>2022-08-15T10:34:13Z</time>
      </trkpt>
      <trkpt lat="44.83453" lon="1.09172">
        <ele>64.5</ele>
        <time>2022-08-15T10:34:15Z</time>
      </trkpt>
      <trkpt lat="44.83456" lon="1.09177">
        <ele>64.7</ele>
        <time>2022-08-15T10:34:17Z</time>
      </trkpt>
      <trkpt lat="44.8346" lon="1.09177">
        <ele>64.7</ele>
        <time>2022-08-15T10:34:19Z</time>
      </trkpt>
      <trkpt lat="44.83455" lon="1.09188">
        <ele>64.8</ele>
        <time>2022-08-15T10:34:21Z</time>
      </trkpt>
      <trkpt lat="44.83456" lon="1.09198">
        <ele>65</ele>
        <time>2022-08-15T10:34:23Z</time>
      </trkpt>
      <trkpt lat="44.83454" lon="1.09205">
        <ele>65.2</ele>
        <time>2022-08-15T10:34:25Z</time>
      </trkpt>
      <trkpt lat="44.83452" lon="1.09215">
        <ele>65.3</ele>
        <time>2022-08-15T10:34:27Z</time>
      </trkpt>
      <trkpt lat="44.83453" lon="1.09222">
        <ele>65.5</ele>
        <time>2022-08-15T10:34:29Z</time>
      </trkpt>
      <trkpt lat="44.83456" lon="1.09223">
        <ele>65.5</ele>
        <time>2022-08-15T10:34:31Z</time>
      </trkpt>
      <trkpt lat="44.83462" lon="1.09228">
        <ele>65.6</ele>
        <time>2022-08-15T10:34:33Z</time>
      </trkpt>
      <trkpt lat="44.83466" lon="1.09234">
        <ele>65.7</ele>
        <time>2022-08-15T10:34:35Z</time>
      </trkpt>
      <trkpt lat="44.83469" lon="1.09241">
        <ele>65.8</ele>
        <time>2022-08-15T10:34:37Z</time>
      </trkpt>
      <trkpt lat="44.8347" lon="1.09249">
        <ele>66</ele>
        <time>2022-08-15T10:34:39Z</time>
      </trkpt>
      <trkpt lat="44.83473" lon="1.09256">
        <ele>66.2</ele>
        <time>2022-08-15T10:34:41Z</time>
      </trkpt>
      <trkpt lat="44.83473" lon="1.09265">
        <ele>66.4</ele>
        <time>2022-08-15T10:34:43Z</time>
      </trkpt>
      <trkpt lat="44.83473" lon="1.09274">
        <ele>66.7</ele>
        <time>2022-08-15T10:34:45Z</time>
      </trkpt>
      <trkpt lat="44.83475" lon="1.09281">
        <ele>66.9</ele>
        <time>2022-08-15T10:34:47Z</time>
      </trkpt>
      <trkpt lat="44.83474" lon="1.09288">
        <ele>67.1</ele>
        <time>2022-08-15T10:34:49Z</time>
      </trkpt>
      <trkpt lat="44.83475" lon="1.09296">
        <ele>67.3</ele>
        <time>2022-08-15T10:34:51Z</time>
      </trkpt>
      <trkpt lat="44.83476" lon="1.09304">
        <ele>67.6</ele>
        <time>2022-08-15T10:34:53Z</time>
      </trkpt>
      <trkpt lat="44.83477" lon="1.09312">
        <ele>67.8</ele>
        <time>2022-08-15T10:34:55Z</time>
      </trkpt>
      <trkpt lat="44.83477" lon="1.09321">
        <ele>68.1</ele>
        <time>2022-08-15T10:34:57Z</time>
      </trkpt>
      <trkpt lat="44.83478" lon="1.0933">
        <ele>68.4</ele>
        <time>2022-08-15T10:34:59Z</time>
      </trkpt>
      <trkpt lat="44.83477" lon="1.09339">
        <ele>68.5</ele>
        <time>2022-08-15T10:35:01Z</time>
      </trkpt>
      <trkpt lat="44.83475" lon="1.09349">
        <ele>68.4</ele>
        <time>2022-08-15T10:35:03Z</time>
      </trkpt>
      <trkpt lat="44.83474" lon="1.0936">
        <ele>68.4</ele>
        <time>2022-08-15T10:35:05Z</time>
      </trkpt>
      <trkpt lat="44.83473" lon="1.0937">
        <ele>68.4</ele>
        <time>2022-08-15T10:35:07Z</time>
      </trkpt>
      <trkpt lat="44.83472" lon="1.09381">
        <ele>68.3</ele>
        <time>2022-08-15T10:35:09Z</time>
      </trkpt>
      <trkpt lat="44.83471" lon="1.09392">
        <ele>68.3</ele>
        <time>2022-08-15T10:35:11Z</time>
      </trkpt>
      <trkpt lat="44.83469" lon="1.09403">
        <ele>68.2</ele>
        <time>2022-08-15T10:35:13Z</time>
      </trkpt>
      <trkpt lat="44.83469" lon="1.09413">
        <ele>68.1</ele>
        <time>2022-08-15T10:35:15Z</time>
      </trkpt>
      <trkpt lat="44.83469" lon="1.09424">
        <ele>68.1</ele>
        <time>2022-08-15T10:35:17Z</time>
      </trkpt>
      <trkpt lat="44.8347" lon="1.09435">
        <ele>68.1</ele>
        <time>2022-08-15T10:35:19Z</time>
      </trkpt>
      <trkpt lat="44.83472" lon="1.09446">
        <ele>68.2</ele>
        <time>2022-08-15T10:35:21Z</time>
      </trkpt>
      <trkpt lat="44.83475" lon="1.09456">
        <ele>68.3</ele>
        <time>2022-08-15T10:35:23Z</time>
      </trkpt>
      <trkpt lat="44.83477" lon="1.09465">
        <ele>68.4</ele>
        <time>2022-08-15T10:35:25Z</time>
      </trkpt>
      <trkpt lat="44.8348" lon="1.09475">
        <ele>68.4</ele>
        <time>2022-08-15T10:35:27Z</time>
      </trkpt>
      <trkpt lat="44.83482" lon="1.09483">
        <ele>68.5</ele>
        <time>2022-08-15T10:35:29Z</time>
      </trkpt>
      <trkpt lat="44.83485" lon="1.09492">
        <ele>68.5</ele>
        <time>2022-08-15T10:35:31Z</time>
      </trkpt>
      <trkpt lat="44.83487" lon="1.09501">
        <ele>68.5</ele>
        <time>2022-08-15T10:35:33Z</time>
      </trkpt>
      <trkpt lat="44.8349" lon="1.09511">
        <ele>68.6</ele>
        <time>2022-08-15T10:35:35Z</time>
      </trkpt>
      <trkpt lat="44.83492" lon="1.0952">
        <ele>68.7</ele>
        <time>2022-08-15T10:35:37Z</time>
      </trkpt>
      <trkpt lat="44.83494" lon="1.09529">
        <ele>68.8</ele>
        <time>2022-08-15T10:35:39Z</time>
      </trkpt>
      <trkpt lat="44.83495" lon="1.09539">
        <ele>68.8</ele>
        <time>2022-08-15T10:35:41Z</time>
      </trkpt>
      <trkpt lat="44.83496" lon="1.09548">
        <ele>68.9</ele>
        <time>2022-08-15T10:35:43Z</time>
      </trkpt>
      <trkpt lat="44.83496" lon="1.09558">
        <ele>68.9</ele>
        <time>2022-08-15T10:35:45Z</time>
      </trkpt>
      <trkpt lat="44.83495" lon="1.09569">
        <ele>68.9</ele>
        <time>2022-08-15T10:35:47Z</time>
      </trkpt>
      <trkpt lat="44.83493" lon="1.0958">
        <ele>68.8</ele>
        <time>2022-08-15T10:35:49Z</time>
      </trkpt>
      <trkpt lat="44.83491" lon="1.09591">
        <ele>68.7</ele>
        <time>2022-08-15T10:35:51Z</time>
      </trkpt>
      <trkpt lat="44.83489" lon="1.09603">
        <ele>68.5</ele>
        <time>2022-08-15T10:35:53Z</time>
      </trkpt>
      <trkpt lat="44.83486" lon="1.09614">
        <ele>68.3</ele>
        <time>2022-08-15T10:35:55Z</time>
      </trkpt>
      <trkpt lat="44.83484" lon="1.09625">
        <ele>68.1</ele>
        <time>2022-08-15T10:35:57Z</time>
      </trkpt>
      <trkpt lat="44.83482" lon="1.09637">
        <ele>67.9</ele>
        <time>2022-08-15T10:35:59Z</time>
      </trkpt>
      <trkpt lat="44.8348" lon="1.09649">
        <ele>67.7</ele>
        <time>2022-08-15T10:36:01Z</time>
      </trkpt>
      <trkpt lat="44.83478" lon="1.0966">
        <ele>67.5</ele>
        <time>2022-08-15T10:36:03Z</time>
      </trkpt>
      <trkpt lat="44.83476" lon="1.09672">
        <ele>67.4</ele>
        <time>2022-08-15T10:36:05Z</time>
      </trkpt>
      <trkpt lat="44.83473" lon="1.09684">
        <ele>67.4</ele>
        <time>2022-08-15T10:36:07Z</time>
      </trkpt>
      <trkpt lat="44.83471" lon="1.09696">
        <ele>67.3</ele>
        <time>2022-08-15T10:36:09Z</time>
      </trkpt>
      <trkpt lat="44.83469" lon="1.09708">
        <ele>67.3</ele>
        <time>2022-08-15T10:36:11Z</time>
      </trkpt>
      <trkpt lat="44.83467" lon="1.0972">
        <ele>67.2</ele>
        <time>2022-08-15T10:36:13Z</time>
      </trkpt>
      <trkpt lat="44.83465" lon="1.09732">
        <ele>67.2</ele>
        <time>2022-08-15T10:36:15Z</time>
      </trkpt>
      <trkpt lat="44.83464" lon="1.09745">
        <ele>67.1</ele>
        <time>2022-08-15T10:36:17Z</time>
      </trkpt>
      <trkpt lat="44.83462" lon="1.09758">
        <ele>67.1</ele>
        <time>2022-08-15T10:36:19Z</time>
      </trkpt>
      <trkpt lat="44.83461" lon="1.0977">
        <ele>67.1</ele>
        <time>2022-08-15T10:36:21Z</time>
      </trkpt>
      <trkpt lat="44.83459" lon="1.09783">
        <ele>67</ele>
        <time>2022-08-15T10:36:23Z</time>
      </trkpt>
      <trkpt lat="44.83458" lon="1.09797">
        <ele>67</ele>
        <time>2022-08-15T10:36:25Z</time>
      </trkpt>
      <trkpt lat="44.83456" lon="1.09809">
        <ele>66.9</ele>
        <time>2022-08-15T10:36:27Z</time>
      </trkpt>
      <trkpt lat="44.83454" lon="1.09822">
        <ele>66.8</ele>
        <time>2022-08-15T10:36:29Z</time>
      </trkpt>
      <trkpt lat="44.83452" lon="1.09835">
        <ele>66.7</ele>
        <time>2022-08-15T10:36:31Z</time>
      </trkpt>
      <trkpt lat="44.83449" lon="1.09848">
        <ele>66.8</ele>
        <time>2022-08-15T10:36:33Z</time>
      </trkpt>
      <trkpt lat="44.83447" lon="1.0986">
        <ele>66.9</ele>
        <time>2022-08-15T10:36:35Z</time>
      </trkpt>
      <trkpt lat="44.83445" lon="1.09872">
        <ele>67</ele>
        <time>2022-08-15T10:36:37Z</time>
      </trkpt>
      <trkpt lat="44.83443" lon="1.09882">
        <ele>67.1</ele>
        <time>2022-08-15T10:36:39Z</time>
      </trkpt>
      <trkpt lat="44.83441" lon="1.09892">
        <ele>67.2</ele>
        <time>2022-08-15T10:36:41Z</time>
      </trkpt>
      <trkpt lat="44.8344" lon="1.09901">
        <ele>67.3</ele>
        <time>2022-08-15T10:36:43Z</time>
      </trkpt>
      <trkpt lat="44.83436" lon="1.09908">
        <ele>67.3</ele>
        <time>2022-08-15T10:36:45Z</time>
      </trkpt>
      <trkpt lat="44.83429" lon="1.09912">
        <ele>67.2</ele>
        <time>2022-08-15T10:36:47Z</time>
      </trkpt>
      <trkpt lat="44.83427" lon="1.09923">
        <ele>67.2</ele>
        <time>2022-08-15T10:36:49Z</time>
      </trkpt>
      <trkpt lat="44.83428" lon="1.09934">
        <ele>67.1</ele>
        <time>2022-08-15T10:36:51Z</time>
      </trkpt>
      <trkpt lat="44.83429" lon="1.09946">
        <ele>67</ele>
        <time>2022-08-15T10:36:53Z</time>
      </trkpt>
      <trkpt lat="44.8343" lon="1.09957">
        <ele>66.9</ele>
        <time>2022-08-15T10:36:55Z</time>
      </trkpt>
      <trkpt lat="44.83432" lon="1.09968">
        <ele>66.9</ele>
        <time>2022-08-15T10:36:57Z</time>
      </trkpt>
      <trkpt lat="44.83434" lon="1.09977">
        <ele>66.8</ele>
        <time>2022-08-15T10:36:59Z</time>
      </trkpt>
      <trkpt lat="44.83437" lon="1.09987">
        <ele>66.8</ele>
        <time>2022-08-15T10:37:01Z</time>
      </trkpt>
      <trkpt lat="44.8344" lon="1.09998">
        <ele>66.9</ele>
        <time>2022-08-15T10:37:03Z</time>
      </trkpt>
      <trkpt lat="44.83443" lon="1.10008">
        <ele>66.8</ele>
        <time>2022-08-15T10:37:05Z</time>
      </trkpt>
      <trkpt lat="44.83446" lon="1.10018">
        <ele>66.7</ele>
        <time>2022-08-15T10:37:07Z</time>
      </trkpt>
      <trkpt lat="44.83448" lon="1.1003">
        <ele>66.5</ele>
        <time>2022-08-15T10:37:09Z</time>
      </trkpt>
      <trkpt lat="44.83449" lon="1.10041">
        <ele>66.3</ele>
        <time>2022-08-15T10:37:11Z</time>
      </trkpt>
      <trkpt lat="44.8345" lon="1.10051">
        <ele>66.1</ele>
        <time>2022-08-15T10:37:13Z</time>
      </trkpt>
      <trkpt lat="44.8345" lon="1.10061">
        <ele>65.9</ele>
        <time>2022-08-15T10:37:15Z</time>
      </trkpt>
      <trkpt lat="44.83451" lon="1.1007">
        <ele>65.7</ele>
        <time>2022-08-15T10:37:17Z</time>
      </trkpt>
      <trkpt lat="44.83451" lon="1.10078">
        <ele>65.5</ele>
        <time>2022-08-15T10:37:19Z</time>
      </trkpt>
      <trkpt lat="44.83451" lon="1.10088">
        <ele>65.4</ele>
        <time>2022-08-15T10:37:21Z</time>
      </trkpt>
      <trkpt lat="44.83452" lon="1.10098">
        <ele>65.3</ele>
        <time>2022-08-15T10:37:23Z</time>
      </trkpt>
      <trkpt lat="44.83453" lon="1.1011">
        <ele>65.3</ele>
        <time>2022-08-15T10:37:25Z</time>
      </trkpt>
      <trkpt lat="44.83454" lon="1.10121">
        <ele>65.2</ele>
        <time>2022-08-15T10:37:27Z</time>
      </trkpt>
      <trkpt lat="44.83455" lon="1.10133">
        <ele>65.1</ele>
        <time>2022-08-15T10:37:29Z</time>
      </trkpt>
      <trkpt lat="44.83456" lon="1.10145">
        <ele>65.1</ele>
        <time>2022-08-15T10:37:31Z</time>
      </trkpt>
      <trkpt lat="44.83458" lon="1.10157">
        <ele>65</ele>
        <time>2022-08-15T10:37:33Z</time>
      </trkpt>
      <trkpt lat="44.83459" lon="1.10169">
        <ele>65</ele>
        <time>2022-08-15T10:37:35Z</time>
      </trkpt>
      <trkpt lat="44.83461" lon="1.1018">
        <ele>65.2</ele>
        <time>2022-08-15T10:37:37Z</time>
      </trkpt>
      <trkpt lat="44.83462" lon="1.10192">
        <ele>65.4</ele>
        <time>2022-08-15T10:37:39Z</time>
      </trkpt>
      <trkpt lat="44.83463" lon="1.10203">
        <ele>65.5</ele>
        <time>2022-08-15T10:37:41Z</time>
      </trkpt>
      <trkpt lat="44.83464" lon="1.10215">
        <ele>65.6</ele>
        <time>2022-08-15T10:37:43Z</time>
      </trkpt>
      <trkpt lat="44.83466" lon="1.10227">
        <ele>65.8</ele>
        <time>2022-08-15T10:37:45Z</time>
      </trkpt>
      <trkpt lat="44.83468" lon="1.10238">
        <ele>65.9</ele>
        <time>2022-08-15T10:37:47Z</time>
      </trkpt>
      <trkpt lat="44.83469" lon="1.1025">
        <ele>66</ele>
        <time>2022-08-15T10:37:49Z</time>
      </trkpt>
      <trkpt lat="44.8347" lon="1.10262">
        <ele>66</ele>
        <time>2022-08-15T10:37:51Z</time>
      </trkpt>
      <trkpt lat="44.83472" lon="1.10274">
        <ele>66</ele>
        <time>2022-08-15T10:37:53Z</time>
      </trkpt>
      <trkpt lat="44.83472" lon="1.10286">
        <ele>66</ele>
        <time>2022-08-15T10:37:55Z</time>
      </trkpt>
      <trkpt lat="44.83474" lon="1.10298">
        <ele>66</ele>
        <time>2022-08-15T10:37:57Z</time>
      </trkpt>
      <trkpt lat="44.83475" lon="1.1031">
        <ele>66</ele>
        <time>2022-08-15T10:37:59Z</time>
      </trkpt>
      <trkpt lat="44.83476" lon="1.1032">
        <ele>66</ele>
        <time>2022-08-15T10:38:01Z</time>
      </trkpt>
      <trkpt lat="44.83477" lon="1.10331">
        <ele>66</ele>
        <time>2022-08-15T10:38:03Z</time>
      </trkpt>
      <trkpt lat="44.83479" lon="1.10342">
        <ele>66</ele>
        <time>2022-08-15T10:38:05Z</time>
      </trkpt>
      <trkpt lat="44.8348" lon="1.10352">
        <ele>66.1</ele>
        <time>2022-08-15T10:38:07Z</time>
      </trkpt>
      <trkpt lat="44.83481" lon="1.10361">
        <ele>66.1</ele>
        <time>2022-08-15T10:38:09Z</time>
      </trkpt>
      <trkpt lat="44.83481" lon="1.10371">
        <ele>66.1</ele>
        <time>2022-08-15T10:38:11Z</time>
      </trkpt>
      <trkpt lat="44.83484" lon="1.1038">
        <ele>66.1</ele>
        <time>2022-08-15T10:38:13Z</time>
      </trkpt>
      <trkpt lat="44.83485" lon="1.10389">
        <ele>66.1</ele>
        <time>2022-08-15T10:38:15Z</time>
      </trkpt>
      <trkpt lat="44.83486" lon="1.10399">
        <ele>66.1</ele>
        <time>2022-08-15T10:38:17Z</time>
      </trkpt>
      <trkpt lat="44.83487" lon="1.10409">
        <ele>66.1</ele>
        <time>2022-08-15T10:38:19Z</time>
      </trkpt>
      <trkpt lat="44.83489" lon="1.10418">
        <ele>66.2</ele>
        <time>2022-08-15T10:38:21Z</time>
      </trkpt>
      <trkpt lat="44.83489" lon="1.10428">
        <ele>66.2</ele>
        <time>2022-08-15T10:38:23Z</time>
      </trkpt>
      <trkpt lat="44.83491" lon="1.10437">
        <ele>66.3</ele>
        <time>2022-08-15T10:38:25Z</time>
      </trkpt>
      <trkpt lat="44.83492" lon="1.10447">
        <ele>66.4</ele>
        <time>2022-08-15T10:38:27Z</time>
      </trkpt>
      <trkpt lat="44.83493" lon="1.10457">
        <ele>66.5</ele>
        <time>2022-08-15T10:38:29Z</time>
      </trkpt>
      <trkpt lat="44.83494" lon="1.10467">
        <ele>66.6</ele>
        <time>2022-08-15T10:38:31Z</time>
      </trkpt>
      <trkpt lat="44.83495" lon="1.10478">
        <ele>66.8</ele>
        <time>2022-08-15T10:38:33Z</time>
      </trkpt>
      <trkpt lat="44.83496" lon="1.10488">
        <ele>66.9</ele>
        <time>2022-08-15T10:38:35Z</time>
      </trkpt>
      <trkpt lat="44.83498" lon="1.10499">
        <ele>67</ele>
        <time>2022-08-15T10:38:37Z</time>
      </trkpt>
      <trkpt lat="44.83499" lon="1.1051">
        <ele>67</ele>
        <time>2022-08-15T10:38:39Z</time>
      </trkpt>
      <trkpt lat="44.835" lon="1.10521">
        <ele>67</ele>
        <time>2022-08-15T10:38:41Z</time>
      </trkpt>
      <trkpt lat="44.83501" lon="1.10532">
        <ele>67</ele>
        <time>2022-08-15T10:38:43Z</time>
      </trkpt>
      <trkpt lat="44.83502" lon="1.10544">
        <ele>67</ele>
        <time>2022-08-15T10:38:45Z</time>
      </trkpt>
      <trkpt lat="44.83504" lon="1.10555">
        <ele>67</ele>
        <time>2022-08-15T10:38:47Z</time>
      </trkpt>
      <trkpt lat="44.83505" lon="1.10566">
        <ele>67</ele>
        <time>2022-08-15T10:38:49Z</time>
      </trkpt>
      <trkpt lat="44.83506" lon="1.10577">
        <ele>67</ele>
        <time>2022-08-15T10:38:51Z</time>
      </trkpt>
      <trkpt lat="44.83507" lon="1.10588">
        <ele>67</ele>
        <time>2022-08-15T10:38:53Z</time>
      </trkpt>
      <trkpt lat="44.83508" lon="1.106">
        <ele>66.9</ele>
        <time>2022-08-15T10:38:55Z</time>
      </trkpt>
      <trkpt lat="44.8351" lon="1.10613">
        <ele>66.8</ele>
        <time>2022-08-15T10:38:57Z</time>
      </trkpt>
      <trkpt lat="44.83511" lon="1.10625">
        <ele>66.7</ele>
        <time>2022-08-15T10:38:59Z</time>
      </trkpt>
      <trkpt lat="44.83512" lon="1.10637">
        <ele>66.6</ele>
        <time>2022-08-15T10:39:01Z</time>
      </trkpt>
      <trkpt lat="44.83513" lon="1.10649">
        <ele>66.6</ele>
        <time>2022-08-15T10:39:03Z</time>
      </trkpt>
      <trkpt lat="44.83514" lon="1.1066">
        <ele>66.5</ele>
        <time>2022-08-15T10:39:05Z</time>
      </trkpt>
      <trkpt lat="44.83516" lon="1.10672">
        <ele>66.6</ele>
        <time>2022-08-15T10:39:07Z</time>
      </trkpt>
      <trkpt lat="44.83517" lon="1.10684">
        <ele>66.8</ele>
        <time>2022-08-15T10:39:09Z</time>
      </trkpt>
      <trkpt lat="44.83518" lon="1.10696">
        <ele>66.9</ele>
        <time>2022-08-15T10:39:11Z</time>
      </trkpt>
      <trkpt lat="44.8352" lon="1.10708">
        <ele>67.1</ele>
        <time>2022-08-15T10:39:13Z</time>
      </trkpt>
      <trkpt lat="44.83521" lon="1.1072">
        <ele>67.2</ele>
        <time>2022-08-15T10:39:15Z</time>
      </trkpt>
      <trkpt lat="44.83522" lon="1.10732">
        <ele>67.4</ele>
        <time>2022-08-15T10:39:17Z</time>
      </trkpt>
      <trkpt lat="44.83524" lon="1.10744">
        <ele>67.5</ele>
        <time>2022-08-15T10:39:19Z</time>
      </trkpt>
      <trkpt lat="44.83525" lon="1.10757">
        <ele>67.6</ele>
        <time>2022-08-15T10:39:21Z</time>
      </trkpt>
      <trkpt lat="44.83526" lon="1.10769">
        <ele>67.6</ele>
        <time>2022-08-15T10:39:23Z</time>
      </trkpt>
      <trkpt lat="44.83527" lon="1.1078">
        <ele>67.5</ele>
        <time>2022-08-15T10:39:25Z</time>
      </trkpt>
      <trkpt lat="44.83528" lon="1.10791">
        <ele>67.5</ele>
        <time>2022-08-15T10:39:27Z</time>
      </trkpt>
      <trkpt lat="44.8353" lon="1.10802">
        <ele>67.5</ele>
        <time>2022-08-15T10:39:29Z</time>
      </trkpt>
      <trkpt lat="44.83531" lon="1.10814">
        <ele>67.5</ele>
        <time>2022-08-15T10:39:31Z</time>
      </trkpt>
      <trkpt lat="44.83532" lon="1.10827">
        <ele>67.4</ele>
        <time>2022-08-15T10:39:33Z</time>
      </trkpt>
      <trkpt lat="44.83533" lon="1.10839">
        <ele>67.4</ele>
        <time>2022-08-15T10:39:35Z</time>
      </trkpt>
      <trkpt lat="44.83535" lon="1.10852">
        <ele>67.5</ele>
        <time>2022-08-15T10:39:37Z</time>
      </trkpt>
      <trkpt lat="44.83536" lon="1.10865">
        <ele>67.7</ele>
        <time>2022-08-15T10:39:39Z</time>
      </trkpt>
      <trkpt lat="44.83537" lon="1.10877">
        <ele>67.7</ele>
        <time>2022-08-15T10:39:41Z</time>
      </trkpt>
      <trkpt lat="44.83539" lon="1.1089">
        <ele>67.8</ele>
        <time>2022-08-15T10:39:43Z</time>
      </trkpt>
      <trkpt lat="44.8354" lon="1.10903">
        <ele>67.9</ele>
        <time>2022-08-15T10:39:45Z</time>
      </trkpt>
      <trkpt lat="44.83541" lon="1.10916">
        <ele>68</ele>
        <time>2022-08-15T10:39:47Z</time>
      </trkpt>
      <trkpt lat="44.83543" lon="1.10929">
        <ele>68.1</ele>
        <time>2022-08-15T10:39:49Z</time>
      </trkpt>
      <trkpt lat="44.83545" lon="1.10942">
        <ele>68.3</ele>
        <time>2022-08-15T10:39:51Z</time>
      </trkpt>
      <trkpt lat="44.83546" lon="1.10955">
        <ele>68.5</ele>
        <time>2022-08-15T10:39:53Z</time>
      </trkpt>
      <trkpt lat="44.83547" lon="1.10968">
        <ele>68.6</ele>
        <time>2022-08-15T10:39:55Z</time>
      </trkpt>
      <trkpt lat="44.83549" lon="1.1098">
        <ele>68.8</ele>
        <time>2022-08-15T10:39:57Z</time>
      </trkpt>
      <trkpt lat="44.8355" lon="1.10992">
        <ele>68.9</ele>
        <time>2022-08-15T10:39:59Z</time>
      </trkpt>
      <trkpt lat="44.83551" lon="1.11005">
        <ele>68.9</ele>
        <time>2022-08-15T10:40:01Z</time>
      </trkpt>
      <trkpt lat="44.83553" lon="1.11016">
        <ele>68.6</ele>
        <time>2022-08-15T10:40:03Z</time>
      </trkpt>
      <trkpt lat="44.83554" lon="1.11028">
        <ele>68.3</ele>
        <time>2022-08-15T10:40:05Z</time>
      </trkpt>
      <trkpt lat="44.83555" lon="1.11041">
        <ele>68</ele>
        <time>2022-08-15T10:40:07Z</time>
      </trkpt>
      <trkpt lat="44.83557" lon="1.11053">
        <ele>67.7</ele>
        <time>2022-08-15T10:40:09Z</time>
      </trkpt>
      <trkpt lat="44.83558" lon="1.11065">
        <ele>67.4</ele>
        <time>2022-08-15T10:40:11Z</time>
      </trkpt>
      <trkpt lat="44.83559" lon="1.11078">
        <ele>67.1</ele>
        <time>2022-08-15T10:40:13Z</time>
      </trkpt>
      <trkpt lat="44.83561" lon="1.11091">
        <ele>67</ele>
        <time>2022-08-15T10:40:15Z</time>
      </trkpt>
      <trkpt lat="44.83563" lon="1.11103">
        <ele>67.1</ele>
        <time>2022-08-15T10:40:17Z</time>
      </trkpt>
      <trkpt lat="44.83564" lon="1.11116">
        <ele>67.1</ele>
        <time>2022-08-15T10:40:19Z</time>
      </trkpt>
      <trkpt lat="44.83566" lon="1.11129">
        <ele>67.1</ele>
        <time>2022-08-15T10:40:21Z</time>
      </trkpt>
      <trkpt lat="44.83567" lon="1.11141">
        <ele>67.1</ele>
        <time>2022-08-15T10:40:23Z</time>
      </trkpt>
      <trkpt lat="44.83569" lon="1.11154">
        <ele>67.1</ele>
        <time>2022-08-15T10:40:25Z</time>
      </trkpt>
      <trkpt lat="44.8357" lon="1.11165">
        <ele>67.2</ele>
        <time>2022-08-15T10:40:27Z</time>
      </trkpt>
      <trkpt lat="44.83571" lon="1.11178">
        <ele>67.3</ele>
        <time>2022-08-15T10:40:29Z</time>
      </trkpt>
      <trkpt lat="44.83572" lon="1.1119">
        <ele>67.4</ele>
        <time>2022-08-15T10:40:31Z</time>
      </trkpt>
      <trkpt lat="44.83574" lon="1.11202">
        <ele>67.5</ele>
        <time>2022-08-15T10:40:33Z</time>
      </trkpt>
      <trkpt lat="44.83575" lon="1.11214">
        <ele>67.6</ele>
        <time>2022-08-15T10:40:35Z</time>
      </trkpt>
      <trkpt lat="44.83576" lon="1.11227">
        <ele>67.7</ele>
        <time>2022-08-15T10:40:37Z</time>
      </trkpt>
      <trkpt lat="44.83578" lon="1.11239">
        <ele>67.9</ele>
        <time>2022-08-15T10:40:39Z</time>
      </trkpt>
      <trkpt lat="44.83579" lon="1.1125">
        <ele>68</ele>
        <time>2022-08-15T10:40:41Z</time>
      </trkpt>
      <trkpt lat="44.8358" lon="1.11262">
        <ele>67.9</ele>
        <time>2022-08-15T10:40:43Z</time>
      </trkpt>
      <trkpt lat="44.83581" lon="1.11273">
        <ele>67.7</ele>
        <time>2022-08-15T10:40:45Z</time>
      </trkpt>
      <trkpt lat="44.83582" lon="1.11286">
        <ele>67.6</ele>
        <time>2022-08-15T10:40:47Z</time>
      </trkpt>
      <trkpt lat="44.83584" lon="1.11298">
        <ele>67.4</ele>
        <time>2022-08-15T10:40:49Z</time>
      </trkpt>
      <trkpt lat="44.83585" lon="1.1131">
        <ele>67.3</ele>
        <time>2022-08-15T10:40:51Z</time>
      </trkpt>
      <trkpt lat="44.83586" lon="1.11322">
        <ele>67.2</ele>
        <time>2022-08-15T10:40:53Z</time>
      </trkpt>
      <trkpt lat="44.83587" lon="1.11334">
        <ele>67.1</ele>
        <time>2022-08-15T10:40:55Z</time>
      </trkpt>
      <trkpt lat="44.83588" lon="1.11346">
        <ele>67.2</ele>
        <time>2022-08-15T10:40:57Z</time>
      </trkpt>
      <trkpt lat="44.8359" lon="1.11357">
        <ele>67.2</ele>
        <time>2022-08-15T10:40:59Z</time>
      </trkpt>
      <trkpt lat="44.83591" lon="1.11368">
        <ele>67.3</ele>
        <time>2022-08-15T10:41:01Z</time>
      </trkpt>
      <trkpt lat="44.83593" lon="1.11379">
        <ele>67.3</ele>
        <time>2022-08-15T10:41:03Z</time>
      </trkpt>
      <trkpt lat="44.83594" lon="1.11391">
        <ele>67.4</ele>
        <time>2022-08-15T10:41:05Z</time>
      </trkpt>
      <trkpt lat="44.83595" lon="1.11402">
        <ele>67.4</ele>
        <time>2022-08-15T10:41:07Z</time>
      </trkpt>
      <trkpt lat="44.83596" lon="1.11414">
        <ele>67.5</ele>
        <time>2022-08-15T10:41:09Z</time>
      </trkpt>
      <trkpt lat="44.83597" lon="1.11424">
        <ele>67.6</ele>
        <time>2022-08-15T10:41:11Z</time>
      </trkpt>
      <trkpt lat="44.83598" lon="1.11436">
        <ele>67.7</ele>
        <time>2022-08-15T10:41:13Z</time>
      </trkpt>
      <trkpt lat="44.83599" lon="1.11448">
        <ele>67.8</ele>
        <time>2022-08-15T10:41:15Z</time>
      </trkpt>
      <trkpt lat="44.83599" lon="1.1146">
        <ele>67.9</ele>
        <time>2022-08-15T10:41:17Z</time>
      </trkpt>
      <trkpt lat="44.83599" lon="1.11473">
        <ele>68</ele>
        <time>2022-08-15T10:41:19Z</time>
      </trkpt>
      <trkpt lat="44.83599" lon="1.11486">
        <ele>68.1</ele>
        <time>2022-08-15T10:41:21Z</time>
      </trkpt>
      <trkpt lat="44.83598" lon="1.11499">
        <ele>68.2</ele>
        <time>2022-08-15T10:41:23Z</time>
      </trkpt>
      <trkpt lat="44.83597" lon="1.11511">
        <ele>68.2</ele>
        <time>2022-08-15T10:41:25Z</time>
      </trkpt>
      <trkpt lat="44.83597" lon="1.11523">
        <ele>68.2</ele>
        <time>2022-08-15T10:41:27Z</time>
      </trkpt>
      <trkpt lat="44.83596" lon="1.11534">
        <ele>68.2</ele>
        <time>2022-08-15T10:41:29Z</time>
      </trkpt>
      <trkpt lat="44.83596" lon="1.11545">
        <ele>68.2</ele>
        <time>2022-08-15T10:41:31Z</time>
      </trkpt>
      <trkpt lat="44.83597" lon="1.11556">
        <ele>68.2</ele>
        <time>2022-08-15T10:41:33Z</time>
      </trkpt>
      <trkpt lat="44.836" lon="1.11562">
        <ele>68.2</ele>
        <time>2022-08-15T10:41:35Z</time>
      </trkpt>
      <trkpt lat="44.83602" lon="1.11564">
        <ele>68.2</ele>
        <time>2022-08-15T10:41:37Z</time>
      </trkpt>
      <trkpt lat="44.83602" lon="1.11564">
        <ele>68.2</ele>
        <time>2022-08-15T10:41:39Z</time>
      </trkpt>
      <trkpt lat="44.83602" lon="1.11565">
        <ele>68.2</ele>
        <time>2022-08-15T10:41:41Z</time>
      </trkpt>
      <trkpt lat="44.83602" lon="1.11565">
        <ele>68.2</ele>
        <time>2022-08-15T10:41:43Z</time>
      </trkpt>
      <trkpt lat="44.83603" lon="1.11566">
        <ele>68.2</ele>
        <time>2022-08-15T10:42:19Z</time>
      </trkpt>
      <trkpt lat="44.83603" lon="1.11567">
        <ele>68.2</ele>
        <time>2022-08-15T10:42:21Z</time>
      </trkpt>
      <trkpt lat="44.83603" lon="1.11567">
        <ele>68.2</ele>
        <time>2022-08-15T10:42:23Z</time>
      </trkpt>
      <trkpt lat="44.83603" lon="1.11567">
        <ele>68.2</ele>
        <time>2022-08-15T10:42:25Z</time>
      </trkpt>
      <trkpt lat="44.83603" lon="1.11567">
        <ele>68.2</ele>
        <time>2022-08-15T10:42:29Z</time>
      </trkpt>
      <trkpt lat="44.83602" lon="1.1157">
        <ele>68.2</ele>
        <time>2022-08-15T10:42:31Z</time>
      </trkpt>
      <trkpt lat="44.836" lon="1.11575">
        <ele>68.2</ele>
        <time>2022-08-15T10:42:33Z</time>
      </trkpt>
      <trkpt lat="44.83596" lon="1.11577">
        <ele>68.2</ele>
        <time>2022-08-15T10:42:35Z</time>
      </trkpt>
      <trkpt lat="44.83597" lon="1.11578">
        <ele>68.2</ele>
        <time>2022-08-15T10:42:37Z</time>
      </trkpt>
      <trkpt lat="44.83597" lon="1.11578">
        <ele>68.2</ele>
        <time>2022-08-15T10:42:39Z</time>
      </trkpt>
      <trkpt lat="44.83596" lon="1.11577">
        <ele>68.2</ele>
        <time>2022-08-15T10:42:43Z</time>
      </trkpt>
      <trkpt lat="44.83594" lon="1.11569">
        <ele>68.1</ele>
        <time>2022-08-15T10:43:35Z</time>
      </trkpt>
      <trkpt lat="44.83599" lon="1.1157">
        <ele>68.2</ele>
        <time>2022-08-15T10:43:37Z</time>
      </trkpt>
      <trkpt lat="44.83603" lon="1.11569">
        <ele>68.2</ele>
        <time>2022-08-15T10:43:39Z</time>
      </trkpt>
      <trkpt lat="44.83608" lon="1.11567">
        <ele>68.3</ele>
        <time>2022-08-15T10:43:41Z</time>
      </trkpt>
      <trkpt lat="44.83613" lon="1.11567">
        <ele>68.4</ele>
        <time>2022-08-15T10:43:43Z</time>
      </trkpt>
      <trkpt lat="44.83619" lon="1.11565">
        <ele>68.4</ele>
        <time>2022-08-15T10:43:45Z</time>
      </trkpt>
      <trkpt lat="44.83623" lon="1.11564">
        <ele>68.5</ele>
        <time>2022-08-15T10:43:47Z</time>
      </trkpt>
      <trkpt lat="44.83629" lon="1.11563">
        <ele>68.5</ele>
        <time>2022-08-15T10:43:49Z</time>
      </trkpt>
      <trkpt lat="44.83635" lon="1.11563">
        <ele>68.6</ele>
        <time>2022-08-15T10:43:51Z</time>
      </trkpt>
      <trkpt lat="44.83641" lon="1.11564">
        <ele>68.7</ele>
        <time>2022-08-15T10:43:53Z</time>
      </trkpt>
      <trkpt lat="44.83646" lon="1.11568">
        <ele>68.7</ele>
        <time>2022-08-15T10:43:55Z</time>
      </trkpt>
      <trkpt lat="44.83649" lon="1.11573">
        <ele>68.8</ele>
        <time>2022-08-15T10:43:57Z</time>
      </trkpt>
      <trkpt lat="44.83651" lon="1.11579">
        <ele>68.8</ele>
        <time>2022-08-15T10:43:59Z</time>
      </trkpt>
      <trkpt lat="44.83653" lon="1.11586">
        <ele>68.8</ele>
        <time>2022-08-15T10:44:01Z</time>
      </trkpt>
      <trkpt lat="44.83656" lon="1.11592">
        <ele>68.7</ele>
        <time>2022-08-15T10:44:03Z</time>
      </trkpt>
      <trkpt lat="44.8366" lon="1.11599">
        <ele>68.7</ele>
        <time>2022-08-15T10:44:05Z</time>
      </trkpt>
      <trkpt lat="44.83664" lon="1.11604">
        <ele>68.7</ele>
        <time>2022-08-15T10:44:07Z</time>
      </trkpt>
      <trkpt lat="44.83669" lon="1.11607">
        <ele>68.7</ele>
        <time>2022-08-15T10:44:09Z</time>
      </trkpt>
      <trkpt lat="44.83673" lon="1.1161">
        <ele>68.6</ele>
        <time>2022-08-15T10:44:11Z</time>
      </trkpt>
      <trkpt lat="44.83674" lon="1.11613">
        <ele>68.6</ele>
        <time>2022-08-15T10:44:13Z</time>
      </trkpt>
      <trkpt lat="44.83674" lon="1.11612">
        <ele>68.6</ele>
        <time>2022-08-15T10:44:15Z</time>
      </trkpt>
      <trkpt lat="44.83674" lon="1.11612">
        <ele>68.6</ele>
        <time>2022-08-15T10:44:17Z</time>
      </trkpt>
      <trkpt lat="44.83675" lon="1.11614">
        <ele>68.5</ele>
        <time>2022-08-15T10:44:21Z</time>
      </trkpt>
      <trkpt lat="44.83678" lon="1.11619">
        <ele>68.4</ele>
        <time>2022-08-15T10:44:23Z</time>
      </trkpt>
      <trkpt lat="44.83679" lon="1.11629">
        <ele>68.3</ele>
        <time>2022-08-15T10:44:25Z</time>
      </trkpt>
      <trkpt lat="44.8368" lon="1.11639">
        <ele>68.2</ele>
        <time>2022-08-15T10:44:27Z</time>
      </trkpt>
      <trkpt lat="44.83681" lon="1.1165">
        <ele>68</ele>
        <time>2022-08-15T10:44:29Z</time>
      </trkpt>
      <trkpt lat="44.83683" lon="1.11661">
        <ele>67.9</ele>
        <time>2022-08-15T10:44:31Z</time>
      </trkpt>
      <trkpt lat="44.83684" lon="1.11673">
        <ele>67.8</ele>
        <time>2022-08-15T10:44:33Z</time>
      </trkpt>
      <trkpt lat="44.83686" lon="1.11685">
        <ele>67.9</ele>
        <time>2022-08-15T10:44:35Z</time>
      </trkpt>
      <trkpt lat="44.83688" lon="1.11697">
        <ele>67.9</ele>
        <time>2022-08-15T10:44:37Z</time>
      </trkpt>
      <trkpt lat="44.83689" lon="1.11709">
        <ele>68</ele>
        <time>2022-08-15T10:44:39Z</time>
      </trkpt>
      <trkpt lat="44.83691" lon="1.11722">
        <ele>68.1</ele>
        <time>2022-08-15T10:44:41Z</time>
      </trkpt>
      <trkpt lat="44.83693" lon="1.11735">
        <ele>68.2</ele>
        <time>2022-08-15T10:44:43Z</time>
      </trkpt>
      <trkpt lat="44.83694" lon="1.11748">
        <ele>68.3</ele>
        <time>2022-08-15T10:44:45Z</time>
      </trkpt>
      <trkpt lat="44.83696" lon="1.11761">
        <ele>68.4</ele>
        <time>2022-08-15T10:44:47Z</time>
      </trkpt>
      <trkpt lat="44.83698" lon="1.11773">
        <ele>68.6</ele>
        <time>2022-08-15T10:44:49Z</time>
      </trkpt>
      <trkpt lat="44.837" lon="1.11787">
        <ele>68.8</ele>
        <time>2022-08-15T10:44:51Z</time>
      </trkpt>
      <trkpt lat="44.83701" lon="1.118">
        <ele>68.9</ele>
        <time>2022-08-15T10:44:53Z</time>
      </trkpt>
      <trkpt lat="44.83703" lon="1.11813">
        <ele>69.1</ele>
        <time>2022-08-15T10:44:55Z</time>
      </trkpt>
      <trkpt lat="44.83705" lon="1.11827">
        <ele>69.3</ele>
        <time>2022-08-15T10:44:57Z</time>
      </trkpt>
      <trkpt lat="44.83707" lon="1.1184">
        <ele>69.3</ele>
        <time>2022-08-15T10:44:59Z</time>
      </trkpt>
      <trkpt lat="44.83709" lon="1.11854">
        <ele>69.1</ele>
        <time>2022-08-15T10:45:01Z</time>
      </trkpt>
      <trkpt lat="44.8371" lon="1.11867">
        <ele>69</ele>
        <time>2022-08-15T10:45:03Z</time>
      </trkpt>
      <trkpt lat="44.83713" lon="1.11881">
        <ele>68.8</ele>
        <time>2022-08-15T10:45:05Z</time>
      </trkpt>
      <trkpt lat="44.83715" lon="1.11894">
        <ele>68.6</ele>
        <time>2022-08-15T10:45:07Z</time>
      </trkpt>
      <trkpt lat="44.83716" lon="1.11907">
        <ele>68.4</ele>
        <time>2022-08-15T10:45:09Z</time>
      </trkpt>
      <trkpt lat="44.83718" lon="1.1192">
        <ele>68.2</ele>
        <time>2022-08-15T10:45:11Z</time>
      </trkpt>
      <trkpt lat="44.8372" lon="1.11934">
        <ele>68.1</ele>
        <time>2022-08-15T10:45:13Z</time>
      </trkpt>
      <trkpt lat="44.83722" lon="1.11947">
        <ele>68</ele>
        <time>2022-08-15T10:45:15Z</time>
      </trkpt>
      <trkpt lat="44.83723" lon="1.1196">
        <ele>67.8</ele>
        <time>2022-08-15T10:45:17Z</time>
      </trkpt>
      <trkpt lat="44.83725" lon="1.11973">
        <ele>67.7</ele>
        <time>2022-08-15T10:45:19Z</time>
      </trkpt>
      <trkpt lat="44.83727" lon="1.11987">
        <ele>67.6</ele>
        <time>2022-08-15T10:45:21Z</time>
      </trkpt>
      <trkpt lat="44.83729" lon="1.12">
        <ele>67.5</ele>
        <time>2022-08-15T10:45:23Z</time>
      </trkpt>
      <trkpt lat="44.8373" lon="1.12013">
        <ele>67.4</ele>
        <time>2022-08-15T10:45:25Z</time>
      </trkpt>
      <trkpt lat="44.83733" lon="1.12026">
        <ele>67.3</ele>
        <time>2022-08-15T10:45:27Z</time>
      </trkpt>
      <trkpt lat="44.83735" lon="1.1204">
        <ele>67.2</ele>
        <time>2022-08-15T10:45:29Z</time>
      </trkpt>
      <trkpt lat="44.83736" lon="1.12054">
        <ele>67.1</ele>
        <time>2022-08-15T10:45:31Z</time>
      </trkpt>
      <trkpt lat="44.83738" lon="1.12067">
        <ele>67</ele>
        <time>2022-08-15T10:45:33Z</time>
      </trkpt>
      <trkpt lat="44.8374" lon="1.1208">
        <ele>66.9</ele>
        <time>2022-08-15T10:45:35Z</time>
      </trkpt>
      <trkpt lat="44.83742" lon="1.12093">
        <ele>67</ele>
        <time>2022-08-15T10:45:37Z</time>
      </trkpt>
      <trkpt lat="44.83744" lon="1.12106">
        <ele>67.2</ele>
        <time>2022-08-15T10:45:39Z</time>
      </trkpt>
      <trkpt lat="44.83746" lon="1.1212">
        <ele>67.4</ele>
        <time>2022-08-15T10:45:41Z</time>
      </trkpt>
      <trkpt lat="44.83748" lon="1.12134">
        <ele>67.6</ele>
        <time>2022-08-15T10:45:43Z</time>
      </trkpt>
      <trkpt lat="44.83749" lon="1.12148">
        <ele>67.8</ele>
        <time>2022-08-15T10:45:45Z</time>
      </trkpt>
      <trkpt lat="44.83751" lon="1.12162">
        <ele>68</ele>
        <time>2022-08-15T10:45:47Z</time>
      </trkpt>
      <trkpt lat="44.83753" lon="1.12176">
        <ele>67.9</ele>
        <time>2022-08-15T10:45:49Z</time>
      </trkpt>
      <trkpt lat="44.83755" lon="1.1219">
        <ele>67.8</ele>
        <time>2022-08-15T10:45:51Z</time>
      </trkpt>
      <trkpt lat="44.83757" lon="1.12204">
        <ele>67.7</ele>
        <time>2022-08-15T10:45:53Z</time>
      </trkpt>
      <trkpt lat="44.83759" lon="1.12218">
        <ele>67.6</ele>
        <time>2022-08-15T10:45:55Z</time>
      </trkpt>
      <trkpt lat="44.83761" lon="1.12231">
        <ele>67.6</ele>
        <time>2022-08-15T10:45:57Z</time>
      </trkpt>
      <trkpt lat="44.83763" lon="1.12245">
        <ele>67.5</ele>
        <time>2022-08-15T10:45:59Z</time>
      </trkpt>
      <trkpt lat="44.83765" lon="1.12258">
        <ele>67.5</ele>
        <time>2022-08-15T10:46:01Z</time>
      </trkpt>
      <trkpt lat="44.83766" lon="1.12272">
        <ele>67.4</ele>
        <time>2022-08-15T10:46:03Z</time>
      </trkpt>
      <trkpt lat="44.83768" lon="1.12285">
        <ele>67.4</ele>
        <time>2022-08-15T10:46:05Z</time>
      </trkpt>
      <trkpt lat="44.83771" lon="1.12298">
        <ele>67.4</ele>
        <time>2022-08-15T10:46:07Z</time>
      </trkpt>
      <trkpt lat="44.83772" lon="1.12312">
        <ele>67.4</ele>
        <time>2022-08-15T10:46:09Z</time>
      </trkpt>
      <trkpt lat="44.83775" lon="1.12325">
        <ele>67.5</ele>
        <time>2022-08-15T10:46:11Z</time>
      </trkpt>
      <trkpt lat="44.83776" lon="1.12338">
        <ele>67.6</ele>
        <time>2022-08-15T10:46:13Z</time>
      </trkpt>
      <trkpt lat="44.83777" lon="1.12352">
        <ele>67.7</ele>
        <time>2022-08-15T10:46:15Z</time>
      </trkpt>
      <trkpt lat="44.8378" lon="1.12365">
        <ele>67.9</ele>
        <time>2022-08-15T10:46:17Z</time>
      </trkpt>
      <trkpt lat="44.83782" lon="1.12377">
        <ele>68</ele>
        <time>2022-08-15T10:46:19Z</time>
      </trkpt>
      <trkpt lat="44.83783" lon="1.1239">
        <ele>68.1</ele>
        <time>2022-08-15T10:46:21Z</time>
      </trkpt>
      <trkpt lat="44.83785" lon="1.12402">
        <ele>68.2</ele>
        <time>2022-08-15T10:46:23Z</time>
      </trkpt>
      <trkpt lat="44.83787" lon="1.12413">
        <ele>68.3</ele>
        <time>2022-08-15T10:46:25Z</time>
      </trkpt>
      <trkpt lat="44.83788" lon="1.12425">
        <ele>68.3</ele>
        <time>2022-08-15T10:46:27Z</time>
      </trkpt>
      <trkpt lat="44.8379" lon="1.12437">
        <ele>68.3</ele>
        <time>2022-08-15T10:46:29Z</time>
      </trkpt>
      <trkpt lat="44.83792" lon="1.12449">
        <ele>68.3</ele>
        <time>2022-08-15T10:46:31Z</time>
      </trkpt>
      <trkpt lat="44.83793" lon="1.12462">
        <ele>68.3</ele>
        <time>2022-08-15T10:46:33Z</time>
      </trkpt>
      <trkpt lat="44.83795" lon="1.12474">
        <ele>68.2</ele>
        <time>2022-08-15T10:46:35Z</time>
      </trkpt>
      <trkpt lat="44.83797" lon="1.12486">
        <ele>68.2</ele>
        <time>2022-08-15T10:46:37Z</time>
      </trkpt>
      <trkpt lat="44.83798" lon="1.12498">
        <ele>68.2</ele>
        <time>2022-08-15T10:46:39Z</time>
      </trkpt>
      <trkpt lat="44.838" lon="1.12509">
        <ele>68.3</ele>
        <time>2022-08-15T10:46:41Z</time>
      </trkpt>
      <trkpt lat="44.83802" lon="1.12522">
        <ele>68.4</ele>
        <time>2022-08-15T10:46:43Z</time>
      </trkpt>
      <trkpt lat="44.83803" lon="1.12534">
        <ele>68.5</ele>
        <time>2022-08-15T10:46:45Z</time>
      </trkpt>
      <trkpt lat="44.83805" lon="1.12546">
        <ele>68.7</ele>
        <time>2022-08-15T10:46:47Z</time>
      </trkpt>
      <trkpt lat="44.83806" lon="1.12558">
        <ele>68.8</ele>
        <time>2022-08-15T10:46:49Z</time>
      </trkpt>
      <trkpt lat="44.83808" lon="1.1257">
        <ele>69</ele>
        <time>2022-08-15T10:46:51Z</time>
      </trkpt>
      <trkpt lat="44.8381" lon="1.12581">
        <ele>69.1</ele>
        <time>2022-08-15T10:46:53Z</time>
      </trkpt>
      <trkpt lat="44.83808" lon="1.12587">
        <ele>69.2</ele>
        <time>2022-08-15T10:46:55Z</time>
      </trkpt>
      <trkpt lat="44.83806" lon="1.1259">
        <ele>69.2</ele>
        <time>2022-08-15T10:46:57Z</time>
      </trkpt>
      <trkpt lat="44.83805" lon="1.1259">
        <ele>69.1</ele>
        <time>2022-08-15T10:46:59Z</time>
      </trkpt>
      <trkpt lat="44.83805" lon="1.1259">
        <ele>69.1</ele>
        <time>2022-08-15T10:47:01Z</time>
      </trkpt>
      <trkpt lat="44.83805" lon="1.1259">
        <ele>69.1</ele>
        <time>2022-08-15T10:47:03Z</time>
      </trkpt>
      <trkpt lat="44.83805" lon="1.1259">
        <ele>69.1</ele>
        <time>2022-08-15T10:47:07Z</time>
      </trkpt>
      <trkpt lat="44.83814" lon="1.12619">
        <ele>70.3</ele>
        <time>2022-08-15T10:47:53Z</time>
      </trkpt>
      <trkpt lat="44.83816" lon="1.1263">
        <ele>70.7</ele>
        <time>2022-08-15T10:47:55Z</time>
      </trkpt>
      <trkpt lat="44.83817" lon="1.12641">
        <ele>71.1</ele>
        <time>2022-08-15T10:47:57Z</time>
      </trkpt>
      <trkpt lat="44.83819" lon="1.12653">
        <ele>71.5</ele>
        <time>2022-08-15T10:47:59Z</time>
      </trkpt>
      <trkpt lat="44.8382" lon="1.12664">
        <ele>72</ele>
        <time>2022-08-15T10:48:01Z</time>
      </trkpt>
      <trkpt lat="44.83822" lon="1.12675">
        <ele>72.5</ele>
        <time>2022-08-15T10:48:03Z</time>
      </trkpt>
      <trkpt lat="44.83823" lon="1.12687">
        <ele>73.1</ele>
        <time>2022-08-15T10:48:05Z</time>
      </trkpt>
      <trkpt lat="44.83824" lon="1.12698">
        <ele>73.6</ele>
        <time>2022-08-15T10:48:07Z</time>
      </trkpt>
      <trkpt lat="44.83824" lon="1.1271">
        <ele>74.1</ele>
        <time>2022-08-15T10:48:09Z</time>
      </trkpt>
      <trkpt lat="44.83823" lon="1.12721">
        <ele>74.6</ele>
        <time>2022-08-15T10:48:11Z</time>
      </trkpt>
      <trkpt lat="44.83822" lon="1.12733">
        <ele>75</ele>
        <time>2022-08-15T10:48:13Z</time>
      </trkpt>
      <trkpt lat="44.83821" lon="1.12745">
        <ele>75.3</ele>
        <time>2022-08-15T10:48:15Z</time>
      </trkpt>
      <trkpt lat="44.83819" lon="1.12756">
        <ele>75.6</ele>
        <time>2022-08-15T10:48:17Z</time>
      </trkpt>
      <trkpt lat="44.83816" lon="1.12767">
        <ele>75.9</ele>
        <time>2022-08-15T10:48:19Z</time>
      </trkpt>
      <trkpt lat="44.83814" lon="1.12778">
        <ele>76.2</ele>
        <time>2022-08-15T10:48:21Z</time>
      </trkpt>
      <trkpt lat="44.83811" lon="1.12789">
        <ele>76.4</ele>
        <time>2022-08-15T10:48:23Z</time>
      </trkpt>
      <trkpt lat="44.83808" lon="1.128">
        <ele>76.6</ele>
        <time>2022-08-15T10:48:25Z</time>
      </trkpt>
      <trkpt lat="44.83805" lon="1.12811">
        <ele>76.8</ele>
        <time>2022-08-15T10:48:27Z</time>
      </trkpt>
      <trkpt lat="44.83803" lon="1.12821">
        <ele>77</ele>
        <time>2022-08-15T10:48:29Z</time>
      </trkpt>
      <trkpt lat="44.83801" lon="1.12831">
        <ele>77.2</ele>
        <time>2022-08-15T10:48:31Z</time>
      </trkpt>
      <trkpt lat="44.83799" lon="1.12842">
        <ele>77.3</ele>
        <time>2022-08-15T10:48:33Z</time>
      </trkpt>
      <trkpt lat="44.83798" lon="1.12852">
        <ele>77.2</ele>
        <time>2022-08-15T10:48:35Z</time>
      </trkpt>
      <trkpt lat="44.83796" lon="1.12861">
        <ele>77.2</ele>
        <time>2022-08-15T10:48:37Z</time>
      </trkpt>
      <trkpt lat="44.83795" lon="1.12871">
        <ele>77.2</ele>
        <time>2022-08-15T10:48:39Z</time>
      </trkpt>
      <trkpt lat="44.83794" lon="1.12881">
        <ele>77.2</ele>
        <time>2022-08-15T10:48:41Z</time>
      </trkpt>
      <trkpt lat="44.83793" lon="1.12891">
        <ele>77.2</ele>
        <time>2022-08-15T10:48:43Z</time>
      </trkpt>
      <trkpt lat="44.83792" lon="1.12901">
        <ele>77.3</ele>
        <time>2022-08-15T10:48:45Z</time>
      </trkpt>
      <trkpt lat="44.83792" lon="1.12911">
        <ele>77.5</ele>
        <time>2022-08-15T10:48:47Z</time>
      </trkpt>
      <trkpt lat="44.83793" lon="1.1292">
        <ele>77.6</ele>
        <time>2022-08-15T10:48:49Z</time>
      </trkpt>
      <trkpt lat="44.83794" lon="1.1293">
        <ele>77.5</ele>
        <time>2022-08-15T10:48:51Z</time>
      </trkpt>
      <trkpt lat="44.83794" lon="1.12939">
        <ele>77.5</ele>
        <time>2022-08-15T10:48:53Z</time>
      </trkpt>
      <trkpt lat="44.83796" lon="1.12949">
        <ele>77.5</ele>
        <time>2022-08-15T10:48:55Z</time>
      </trkpt>
      <trkpt lat="44.83798" lon="1.12959">
        <ele>77.6</ele>
        <time>2022-08-15T10:48:57Z</time>
      </trkpt>
      <trkpt lat="44.838" lon="1.12968">
        <ele>77.8</ele>
        <time>2022-08-15T10:48:59Z</time>
      </trkpt>
      <trkpt lat="44.83803" lon="1.12977">
        <ele>78.1</ele>
        <time>2022-08-15T10:49:01Z</time>
      </trkpt>
      <trkpt lat="44.83806" lon="1.12986">
        <ele>78.4</ele>
        <time>2022-08-15T10:49:03Z</time>
      </trkpt>
      <trkpt lat="44.83808" lon="1.12994">
        <ele>78.6</ele>
        <time>2022-08-15T10:49:05Z</time>
      </trkpt>
      <trkpt lat="44.83811" lon="1.13002">
        <ele>78.9</ele>
        <time>2022-08-15T10:49:07Z</time>
      </trkpt>
      <trkpt lat="44.83814" lon="1.1301">
        <ele>78.8</ele>
        <time>2022-08-15T10:49:09Z</time>
      </trkpt>
      <trkpt lat="44.83816" lon="1.13018">
        <ele>78.8</ele>
        <time>2022-08-15T10:49:11Z</time>
      </trkpt>
      <trkpt lat="44.83819" lon="1.13025">
        <ele>78.9</ele>
        <time>2022-08-15T10:49:13Z</time>
      </trkpt>
      <trkpt lat="44.83822" lon="1.13032">
        <ele>78.9</ele>
        <time>2022-08-15T10:49:15Z</time>
      </trkpt>
      <trkpt lat="44.83826" lon="1.13039">
        <ele>79.1</ele>
        <time>2022-08-15T10:49:17Z</time>
      </trkpt>
      <trkpt lat="44.8383" lon="1.13045">
        <ele>79.2</ele>
        <time>2022-08-15T10:49:19Z</time>
      </trkpt>
      <trkpt lat="44.83832" lon="1.13051">
        <ele>79.2</ele>
        <time>2022-08-15T10:49:21Z</time>
      </trkpt>
      <trkpt lat="44.83837" lon="1.13057">
        <ele>79.9</ele>
        <time>2022-08-15T10:49:23Z</time>
      </trkpt>
      <trkpt lat="44.8384" lon="1.13063">
        <ele>80.4</ele>
        <time>2022-08-15T10:49:25Z</time>
      </trkpt>
      <trkpt lat="44.83844" lon="1.13069">
        <ele>81.2</ele>
        <time>2022-08-15T10:49:27Z</time>
      </trkpt>
      <trkpt lat="44.83848" lon="1.13075">
        <ele>82</ele>
        <time>2022-08-15T10:49:29Z</time>
      </trkpt>
      <trkpt lat="44.83851" lon="1.1308">
        <ele>82.6</ele>
        <time>2022-08-15T10:49:31Z</time>
      </trkpt>
      <trkpt lat="44.83856" lon="1.13086">
        <ele>83.8</ele>
        <time>2022-08-15T10:49:33Z</time>
      </trkpt>
      <trkpt lat="44.83859" lon="1.13091">
        <ele>84.3</ele>
        <time>2022-08-15T10:49:35Z</time>
      </trkpt>
      <trkpt lat="44.83862" lon="1.13097">
        <ele>84.8</ele>
        <time>2022-08-15T10:49:37Z</time>
      </trkpt>
      <trkpt lat="44.83867" lon="1.13103">
        <ele>85.7</ele>
        <time>2022-08-15T10:49:39Z</time>
      </trkpt>
      <trkpt lat="44.83871" lon="1.13109">
        <ele>86.2</ele>
        <time>2022-08-15T10:49:41Z</time>
      </trkpt>
      <trkpt lat="44.83874" lon="1.13114">
        <ele>86.7</ele>
        <time>2022-08-15T10:49:43Z</time>
      </trkpt>
      <trkpt lat="44.83878" lon="1.1312">
        <ele>87.3</ele>
        <time>2022-08-15T10:49:45Z</time>
      </trkpt>
      <trkpt lat="44.83881" lon="1.13126">
        <ele>87.8</ele>
        <time>2022-08-15T10:49:47Z</time>
      </trkpt>
      <trkpt lat="44.83884" lon="1.13132">
        <ele>88.1</ele>
        <time>2022-08-15T10:49:49Z</time>
      </trkpt>
      <trkpt lat="44.83889" lon="1.13138">
        <ele>88.8</ele>
        <time>2022-08-15T10:49:51Z</time>
      </trkpt>
      <trkpt lat="44.83892" lon="1.13144">
        <ele>89.3</ele>
        <time>2022-08-15T10:49:53Z</time>
      </trkpt>
      <trkpt lat="44.83895" lon="1.1315">
        <ele>89.5</ele>
        <time>2022-08-15T10:49:55Z</time>
      </trkpt>
      <trkpt lat="44.83899" lon="1.13155">
        <ele>90.2</ele>
        <time>2022-08-15T10:49:57Z</time>
      </trkpt>
      <trkpt lat="44.83902" lon="1.13161">
        <ele>90.5</ele>
        <time>2022-08-15T10:49:59Z</time>
      </trkpt>
      <trkpt lat="44.83905" lon="1.13167">
        <ele>90.8</ele>
        <time>2022-08-15T10:50:01Z</time>
      </trkpt>
      <trkpt lat="44.83908" lon="1.13173">
        <ele>90.5</ele>
        <time>2022-08-15T10:50:03Z</time>
      </trkpt>
      <trkpt lat="44.83912" lon="1.1318">
        <ele>90.2</ele>
        <time>2022-08-15T10:50:05Z</time>
      </trkpt>
      <trkpt lat="44.83916" lon="1.13185">
        <ele>90.1</ele>
        <time>2022-08-15T10:50:07Z</time>
      </trkpt>
      <trkpt lat="44.83919" lon="1.1319">
        <ele>90.2</ele>
        <time>2022-08-15T10:50:09Z</time>
      </trkpt>
      <trkpt lat="44.83923" lon="1.13197">
        <ele>90.1</ele>
        <time>2022-08-15T10:50:11Z</time>
      </trkpt>
      <trkpt lat="44.83927" lon="1.13203">
        <ele>90.4</ele>
        <time>2022-08-15T10:50:13Z</time>
      </trkpt>
      <trkpt lat="44.8393" lon="1.13209">
        <ele>90.5</ele>
        <time>2022-08-15T10:50:15Z</time>
      </trkpt>
      <trkpt lat="44.83933" lon="1.13216">
        <ele>90.7</ele>
        <time>2022-08-15T10:50:17Z</time>
      </trkpt>
      <trkpt lat="44.83937" lon="1.13222">
        <ele>91.1</ele>
        <time>2022-08-15T10:50:19Z</time>
      </trkpt>
      <trkpt lat="44.83941" lon="1.13229">
        <ele>91.7</ele>
        <time>2022-08-15T10:50:21Z</time>
      </trkpt>
      <trkpt lat="44.83944" lon="1.13236">
        <ele>91.8</ele>
        <time>2022-08-15T10:50:23Z</time>
      </trkpt>
      <trkpt lat="44.83946" lon="1.13244">
        <ele>91.8</ele>
        <time>2022-08-15T10:50:25Z</time>
      </trkpt>
      <trkpt lat="44.8395" lon="1.13251">
        <ele>92.5</ele>
        <time>2022-08-15T10:50:27Z</time>
      </trkpt>
      <trkpt lat="44.83953" lon="1.1326">
        <ele>92.9</ele>
        <time>2022-08-15T10:50:29Z</time>
      </trkpt>
      <trkpt lat="44.83956" lon="1.1327">
        <ele>93.4</ele>
        <time>2022-08-15T10:50:31Z</time>
      </trkpt>
      <trkpt lat="44.8396" lon="1.13281">
        <ele>93.9</ele>
        <time>2022-08-15T10:50:33Z</time>
      </trkpt>
      <trkpt lat="44.83963" lon="1.13293">
        <ele>94.1</ele>
        <time>2022-08-15T10:50:35Z</time>
      </trkpt>
      <trkpt lat="44.83967" lon="1.13304">
        <ele>94.4</ele>
        <time>2022-08-15T10:50:37Z</time>
      </trkpt>
      <trkpt lat="44.83972" lon="1.13318">
        <ele>95.2</ele>
        <time>2022-08-15T10:50:39Z</time>
      </trkpt>
      <trkpt lat="44.83977" lon="1.13332">
        <ele>95.5</ele>
        <time>2022-08-15T10:50:41Z</time>
      </trkpt>
      <trkpt lat="44.83982" lon="1.13346">
        <ele>96</ele>
        <time>2022-08-15T10:50:43Z</time>
      </trkpt>
      <trkpt lat="44.83987" lon="1.13362">
        <ele>96.3</ele>
        <time>2022-08-15T10:50:45Z</time>
      </trkpt>
      <trkpt lat="44.83993" lon="1.13378">
        <ele>96.3</ele>
        <time>2022-08-15T10:50:47Z</time>
      </trkpt>
      <trkpt lat="44.83998" lon="1.13395">
        <ele>95.7</ele>
        <time>2022-08-15T10:50:49Z</time>
      </trkpt>
      <trkpt lat="44.84004" lon="1.13411">
        <ele>95.8</ele>
        <time>2022-08-15T10:50:51Z</time>
      </trkpt>
      <trkpt lat="44.84011" lon="1.13429">
        <ele>96.5</ele>
        <time>2022-08-15T10:50:53Z</time>
      </trkpt>
      <trkpt lat="44.84017" lon="1.13446">
        <ele>97</ele>
        <time>2022-08-15T10:50:55Z</time>
      </trkpt>
      <trkpt lat="44.84023" lon="1.13465">
        <ele>97.3</ele>
        <time>2022-08-15T10:50:57Z</time>
      </trkpt>
      <trkpt lat="44.84029" lon="1.13483">
        <ele>98</ele>
        <time>2022-08-15T10:50:59Z</time>
      </trkpt>
      <trkpt lat="44.84035" lon="1.13501">
        <ele>98.7</ele>
        <time>2022-08-15T10:51:01Z</time>
      </trkpt>
      <trkpt lat="44.8404" lon="1.1352">
        <ele>97.9</ele>
        <time>2022-08-15T10:51:03Z</time>
      </trkpt>
      <trkpt lat="44.84046" lon="1.13538">
        <ele>96.9</ele>
        <time>2022-08-15T10:51:05Z</time>
      </trkpt>
      <trkpt lat="44.84049" lon="1.13556">
        <ele>94.5</ele>
        <time>2022-08-15T10:51:07Z</time>
      </trkpt>
      <trkpt lat="44.84055" lon="1.13573">
        <ele>93.2</ele>
        <time>2022-08-15T10:51:09Z</time>
      </trkpt>
      <trkpt lat="44.84059" lon="1.1359">
        <ele>90.6</ele>
        <time>2022-08-15T10:51:11Z</time>
      </trkpt>
      <trkpt lat="44.84064" lon="1.13607">
        <ele>88.6</ele>
        <time>2022-08-15T10:51:13Z</time>
      </trkpt>
      <trkpt lat="44.84067" lon="1.13626">
        <ele>85</ele>
        <time>2022-08-15T10:51:15Z</time>
      </trkpt>
      <trkpt lat="44.8407" lon="1.13644">
        <ele>81.6</ele>
        <time>2022-08-15T10:51:17Z</time>
      </trkpt>
      <trkpt lat="44.84073" lon="1.13661">
        <ele>78.2</ele>
        <time>2022-08-15T10:51:19Z</time>
      </trkpt>
      <trkpt lat="44.84077" lon="1.13678">
        <ele>76.6</ele>
        <time>2022-08-15T10:51:21Z</time>
      </trkpt>
      <trkpt lat="44.8408" lon="1.13694">
        <ele>75.8</ele>
        <time>2022-08-15T10:51:23Z</time>
      </trkpt>
      <trkpt lat="44.84084" lon="1.13713">
        <ele>74.7</ele>
        <time>2022-08-15T10:51:25Z</time>
      </trkpt>
      <trkpt lat="44.84083" lon="1.13732">
        <ele>73.3</ele>
        <time>2022-08-15T10:51:27Z</time>
      </trkpt>
      <trkpt lat="44.84083" lon="1.13752">
        <ele>72.2</ele>
        <time>2022-08-15T10:51:29Z</time>
      </trkpt>
      <trkpt lat="44.84079" lon="1.1377">
        <ele>74.5</ele>
        <time>2022-08-15T10:51:31Z</time>
      </trkpt>
      <trkpt lat="44.84075" lon="1.13786">
        <ele>76.2</ele>
        <time>2022-08-15T10:51:33Z</time>
      </trkpt>
      <trkpt lat="44.84071" lon="1.13801">
        <ele>77.5</ele>
        <time>2022-08-15T10:51:35Z</time>
      </trkpt>
      <trkpt lat="44.84065" lon="1.13814">
        <ele>78.2</ele>
        <time>2022-08-15T10:51:37Z</time>
      </trkpt>
      <trkpt lat="44.8406" lon="1.13827">
        <ele>78.8</ele>
        <time>2022-08-15T10:51:39Z</time>
      </trkpt>
      <trkpt lat="44.84055" lon="1.13838">
        <ele>79.5</ele>
        <time>2022-08-15T10:51:41Z</time>
      </trkpt>
      <trkpt lat="44.84051" lon="1.13851">
        <ele>81.3</ele>
        <time>2022-08-15T10:51:43Z</time>
      </trkpt>
      <trkpt lat="44.84048" lon="1.13864">
        <ele>82.9</ele>
        <time>2022-08-15T10:51:45Z</time>
      </trkpt>
      <trkpt lat="44.84046" lon="1.13878">
        <ele>84.9</ele>
        <time>2022-08-15T10:51:47Z</time>
      </trkpt>
      <trkpt lat="44.84044" lon="1.13891">
        <ele>86.5</ele>
        <time>2022-08-15T10:51:49Z</time>
      </trkpt>
      <trkpt lat="44.84042" lon="1.13906">
        <ele>88.3</ele>
        <time>2022-08-15T10:51:51Z</time>
      </trkpt>
      <trkpt lat="44.84041" lon="1.13921">
        <ele>90.2</ele>
        <time>2022-08-15T10:51:53Z</time>
      </trkpt>
      <trkpt lat="44.84039" lon="1.13935">
        <ele>90.7</ele>
        <time>2022-08-15T10:51:55Z</time>
      </trkpt>
      <trkpt lat="44.84038" lon="1.13949">
        <ele>91.3</ele>
        <time>2022-08-15T10:51:57Z</time>
      </trkpt>
      <trkpt lat="44.84037" lon="1.13963">
        <ele>92.1</ele>
        <time>2022-08-15T10:51:59Z</time>
      </trkpt>
      <trkpt lat="44.84035" lon="1.13977">
        <ele>92.5</ele>
        <time>2022-08-15T10:52:01Z</time>
      </trkpt>
      <trkpt lat="44.84033" lon="1.1399">
        <ele>92.9</ele>
        <time>2022-08-15T10:52:03Z</time>
      </trkpt>
      <trkpt lat="44.84031" lon="1.14003">
        <ele>92.7</ele>
        <time>2022-08-15T10:52:05Z</time>
      </trkpt>
      <trkpt lat="44.84029" lon="1.14017">
        <ele>91.5</ele>
        <time>2022-08-15T10:52:07Z</time>
      </trkpt>
      <trkpt lat="44.84028" lon="1.14031">
        <ele>90.9</ele>
        <time>2022-08-15T10:52:09Z</time>
      </trkpt>
      <trkpt lat="44.84025" lon="1.14043">
        <ele>89.7</ele>
        <time>2022-08-15T10:52:11Z</time>
      </trkpt>
      <trkpt lat="44.84024" lon="1.14056">
        <ele>88.9</ele>
        <time>2022-08-15T10:52:13Z</time>
      </trkpt>
      <trkpt lat="44.84022" lon="1.14069">
        <ele>87.9</ele>
        <time>2022-08-15T10:52:15Z</time>
      </trkpt>
      <trkpt lat="44.84019" lon="1.14082">
        <ele>86.6</ele>
        <time>2022-08-15T10:52:17Z</time>
      </trkpt>
      <trkpt lat="44.84017" lon="1.14095">
        <ele>85</ele>
        <time>2022-08-15T10:52:19Z</time>
      </trkpt>
      <trkpt lat="44.84015" lon="1.14107">
        <ele>83</ele>
        <time>2022-08-15T10:52:21Z</time>
      </trkpt>
      <trkpt lat="44.84012" lon="1.1412">
        <ele>81.1</ele>
        <time>2022-08-15T10:52:23Z</time>
      </trkpt>
      <trkpt lat="44.84008" lon="1.14134">
        <ele>79.1</ele>
        <time>2022-08-15T10:52:25Z</time>
      </trkpt>
      <trkpt lat="44.84006" lon="1.14146">
        <ele>77.8</ele>
        <time>2022-08-15T10:52:27Z</time>
      </trkpt>
      <trkpt lat="44.84003" lon="1.14157">
        <ele>76.4</ele>
        <time>2022-08-15T10:52:29Z</time>
      </trkpt>
      <trkpt lat="44.84001" lon="1.14169">
        <ele>75.3</ele>
        <time>2022-08-15T10:52:31Z</time>
      </trkpt>
      <trkpt lat="44.83998" lon="1.14177">
        <ele>75.1</ele>
        <time>2022-08-15T10:52:33Z</time>
      </trkpt>
      <trkpt lat="44.83996" lon="1.14184">
        <ele>75.1</ele>
        <time>2022-08-15T10:52:35Z</time>
      </trkpt>
      <trkpt lat="44.83995" lon="1.14186">
        <ele>75.1</ele>
        <time>2022-08-15T10:52:37Z</time>
      </trkpt>
      <trkpt lat="44.83995" lon="1.14189">
        <ele>75.1</ele>
        <time>2022-08-15T10:52:39Z</time>
      </trkpt>
      <trkpt lat="44.83995" lon="1.14189">
        <ele>75.1</ele>
        <time>2022-08-15T10:52:41Z</time>
      </trkpt>
      <trkpt lat="44.83995" lon="1.14189">
        <ele>75.1</ele>
        <time>2022-08-15T10:52:43Z</time>
      </trkpt>
      <trkpt lat="44.83995" lon="1.14189">
        <ele>75.1</ele>
        <time>2022-08-15T10:52:45Z</time>
      </trkpt>
      <trkpt lat="44.83993" lon="1.14194">
        <ele>75.1</ele>
        <time>2022-08-15T10:52:47Z</time>
      </trkpt>
      <trkpt lat="44.83992" lon="1.14197">
        <ele>75.1</ele>
        <time>2022-08-15T10:52:49Z</time>
      </trkpt>
      <trkpt lat="44.83992" lon="1.14203">
        <ele>75.1</ele>
        <time>2022-08-15T10:52:51Z</time>
      </trkpt>
      <trkpt lat="44.83988" lon="1.14208">
        <ele>75</ele>
        <time>2022-08-15T10:52:53Z</time>
      </trkpt>
      <trkpt lat="44.83985" lon="1.14206">
        <ele>74.6</ele>
        <time>2022-08-15T10:52:55Z</time>
      </trkpt>
      <trkpt lat="44.83982" lon="1.14203">
        <ele>74.3</ele>
        <time>2022-08-15T10:52:57Z</time>
      </trkpt>
      <trkpt lat="44.83978" lon="1.14202">
        <ele>74</ele>
        <time>2022-08-15T10:52:59Z</time>
      </trkpt>
      <trkpt lat="44.83976" lon="1.142">
        <ele>73.7</ele>
        <time>2022-08-15T10:53:01Z</time>
      </trkpt>
      <trkpt lat="44.83975" lon="1.14199">
        <ele>73.6</ele>
        <time>2022-08-15T10:53:03Z</time>
      </trkpt>
      <trkpt lat="44.83974" lon="1.14199">
        <ele>73.6</ele>
        <time>2022-08-15T10:53:05Z</time>
      </trkpt>
      <trkpt lat="44.83974" lon="1.14199">
        <ele>73.6</ele>
        <time>2022-08-15T10:53:07Z</time>
      </trkpt>
      <trkpt lat="44.83974" lon="1.14199">
        <ele>73.5</ele>
        <time>2022-08-15T10:53:11Z</time>
      </trkpt>
      <trkpt lat="44.83977" lon="1.14188">
        <ele>73.6</ele>
        <time>2022-08-15T13:20:53Z</time>
      </trkpt>
      <trkpt lat="44.83972" lon="1.14173">
        <ele>73.1</ele>
        <time>2022-08-15T13:20:54Z</time>
      </trkpt>
      <trkpt lat="44.83982" lon="1.14232">
        <ele>74.8</ele>
        <time>2022-08-15T13:23:43Z</time>
      </trkpt>
      <trkpt lat="44.83979" lon="1.14239">
        <ele>74.6</ele>
        <time>2022-08-15T13:23:45Z</time>
      </trkpt>
      <trkpt lat="44.83978" lon="1.14244">
        <ele>74.5</ele>
        <time>2022-08-15T13:23:47Z</time>
      </trkpt>
      <trkpt lat="44.83978" lon="1.14245">
        <ele>74.5</ele>
        <time>2022-08-15T13:23:49Z</time>
      </trkpt>
      <trkpt lat="44.83976" lon="1.14246">
        <ele>74.4</ele>
        <time>2022-08-15T13:23:51Z</time>
      </trkpt>
      <trkpt lat="44.83976" lon="1.14246">
        <ele>74.4</ele>
        <time>2022-08-15T13:23:53Z</time>
      </trkpt>
      <trkpt lat="44.83976" lon="1.14247">
        <ele>74.4</ele>
        <time>2022-08-15T13:23:55Z</time>
      </trkpt>
      <trkpt lat="44.83974" lon="1.14252">
        <ele>74.5</ele>
        <time>2022-08-15T13:23:57Z</time>
      </trkpt>
      <trkpt lat="44.83973" lon="1.14256">
        <ele>75.2</ele>
        <time>2022-08-15T13:23:59Z</time>
      </trkpt>
      <trkpt lat="44.83972" lon="1.14261">
        <ele>76</ele>
        <time>2022-08-15T13:24:01Z</time>
      </trkpt>
      <trkpt lat="44.8397" lon="1.14266">
        <ele>76.6</ele>
        <time>2022-08-15T13:24:03Z</time>
      </trkpt>
      <trkpt lat="44.83968" lon="1.14271">
        <ele>77.2</ele>
        <time>2022-08-15T13:24:05Z</time>
      </trkpt>
      <trkpt lat="44.83966" lon="1.14277">
        <ele>77.9</ele>
        <time>2022-08-15T13:24:07Z</time>
      </trkpt>
      <trkpt lat="44.83962" lon="1.14286">
        <ele>78.7</ele>
        <time>2022-08-15T13:24:09Z</time>
      </trkpt>
      <trkpt lat="44.83959" lon="1.14295">
        <ele>79.5</ele>
        <time>2022-08-15T13:24:11Z</time>
      </trkpt>
      <trkpt lat="44.83956" lon="1.14305">
        <ele>80</ele>
        <time>2022-08-15T13:24:13Z</time>
      </trkpt>
      <trkpt lat="44.83952" lon="1.14315">
        <ele>80.4</ele>
        <time>2022-08-15T13:24:15Z</time>
      </trkpt>
      <trkpt lat="44.83948" lon="1.14325">
        <ele>80.7</ele>
        <time>2022-08-15T13:24:17Z</time>
      </trkpt>
      <trkpt lat="44.83945" lon="1.14336">
        <ele>80.8</ele>
        <time>2022-08-15T13:24:19Z</time>
      </trkpt>
      <trkpt lat="44.83942" lon="1.14347">
        <ele>81.3</ele>
        <time>2022-08-15T13:24:21Z</time>
      </trkpt>
      <trkpt lat="44.83941" lon="1.14359">
        <ele>82.1</ele>
        <time>2022-08-15T13:24:23Z</time>
      </trkpt>
      <trkpt lat="44.83939" lon="1.14371">
        <ele>83.1</ele>
        <time>2022-08-15T13:24:25Z</time>
      </trkpt>
      <trkpt lat="44.83938" lon="1.14383">
        <ele>84.3</ele>
        <time>2022-08-15T13:24:27Z</time>
      </trkpt>
      <trkpt lat="44.83938" lon="1.14397">
        <ele>85.8</ele>
        <time>2022-08-15T13:24:29Z</time>
      </trkpt>
      <trkpt lat="44.83938" lon="1.14409">
        <ele>87.2</ele>
        <time>2022-08-15T13:24:31Z</time>
      </trkpt>
      <trkpt lat="44.83938" lon="1.14423">
        <ele>88.6</ele>
        <time>2022-08-15T13:24:33Z</time>
      </trkpt>
      <trkpt lat="44.83938" lon="1.14436">
        <ele>89.5</ele>
        <time>2022-08-15T13:24:35Z</time>
      </trkpt>
      <trkpt lat="44.83938" lon="1.14451">
        <ele>90.6</ele>
        <time>2022-08-15T13:24:37Z</time>
      </trkpt>
      <trkpt lat="44.83937" lon="1.14464">
        <ele>91.4</ele>
        <time>2022-08-15T13:24:39Z</time>
      </trkpt>
      <trkpt lat="44.83937" lon="1.14478">
        <ele>92.3</ele>
        <time>2022-08-15T13:24:41Z</time>
      </trkpt>
      <trkpt lat="44.83936" lon="1.14492">
        <ele>93.2</ele>
        <time>2022-08-15T13:24:43Z</time>
      </trkpt>
      <trkpt lat="44.83936" lon="1.14506">
        <ele>93.6</ele>
        <time>2022-08-15T13:24:45Z</time>
      </trkpt>
      <trkpt lat="44.83936" lon="1.1452">
        <ele>93.4</ele>
        <time>2022-08-15T13:24:47Z</time>
      </trkpt>
      <trkpt lat="44.83935" lon="1.14535">
        <ele>93.4</ele>
        <time>2022-08-15T13:24:49Z</time>
      </trkpt>
      <trkpt lat="44.83935" lon="1.14549">
        <ele>93.1</ele>
        <time>2022-08-15T13:24:51Z</time>
      </trkpt>
      <trkpt lat="44.83934" lon="1.14563">
        <ele>92.6</ele>
        <time>2022-08-15T13:24:53Z</time>
      </trkpt>
      <trkpt lat="44.83932" lon="1.14577">
        <ele>91.7</ele>
        <time>2022-08-15T13:24:55Z</time>
      </trkpt>
      <trkpt lat="44.83931" lon="1.14591">
        <ele>90.8</ele>
        <time>2022-08-15T13:24:57Z</time>
      </trkpt>
      <trkpt lat="44.83929" lon="1.14604">
        <ele>89.1</ele>
        <time>2022-08-15T13:24:59Z</time>
      </trkpt>
      <trkpt lat="44.83927" lon="1.14617">
        <ele>87.7</ele>
        <time>2022-08-15T13:25:01Z</time>
      </trkpt>
      <trkpt lat="44.83926" lon="1.14631">
        <ele>86.4</ele>
        <time>2022-08-15T13:25:03Z</time>
      </trkpt>
      <trkpt lat="44.83925" lon="1.14644">
        <ele>85.3</ele>
        <time>2022-08-15T13:25:05Z</time>
      </trkpt>
      <trkpt lat="44.83923" lon="1.14657">
        <ele>83.8</ele>
        <time>2022-08-15T13:25:07Z</time>
      </trkpt>
      <trkpt lat="44.83922" lon="1.14669">
        <ele>82.5</ele>
        <time>2022-08-15T13:25:09Z</time>
      </trkpt>
      <trkpt lat="44.83919" lon="1.14681">
        <ele>80.2</ele>
        <time>2022-08-15T13:25:11Z</time>
      </trkpt>
      <trkpt lat="44.83915" lon="1.14693">
        <ele>77.9</ele>
        <time>2022-08-15T13:25:13Z</time>
      </trkpt>
      <trkpt lat="44.8391" lon="1.14703">
        <ele>76.6</ele>
        <time>2022-08-15T13:25:15Z</time>
      </trkpt>
      <trkpt lat="44.83905" lon="1.14713">
        <ele>75.2</ele>
        <time>2022-08-15T13:25:17Z</time>
      </trkpt>
      <trkpt lat="44.83901" lon="1.14722">
        <ele>74</ele>
        <time>2022-08-15T13:25:19Z</time>
      </trkpt>
      <trkpt lat="44.83896" lon="1.14732">
        <ele>72.8</ele>
        <time>2022-08-15T13:25:21Z</time>
      </trkpt>
      <trkpt lat="44.83891" lon="1.14741">
        <ele>71.5</ele>
        <time>2022-08-15T13:25:23Z</time>
      </trkpt>
      <trkpt lat="44.83886" lon="1.14751">
        <ele>70.3</ele>
        <time>2022-08-15T13:25:25Z</time>
      </trkpt>
      <trkpt lat="44.83881" lon="1.14761">
        <ele>69.6</ele>
        <time>2022-08-15T13:25:27Z</time>
      </trkpt>
      <trkpt lat="44.83876" lon="1.14772">
        <ele>69.1</ele>
        <time>2022-08-15T13:25:29Z</time>
      </trkpt>
      <trkpt lat="44.83871" lon="1.14782">
        <ele>68.6</ele>
        <time>2022-08-15T13:25:31Z</time>
      </trkpt>
      <trkpt lat="44.83867" lon="1.1479">
        <ele>68.2</ele>
        <time>2022-08-15T13:25:33Z</time>
      </trkpt>
      <trkpt lat="44.83864" lon="1.14797">
        <ele>68</ele>
        <time>2022-08-15T13:25:35Z</time>
      </trkpt>
      <trkpt lat="44.8386" lon="1.14804">
        <ele>67.7</ele>
        <time>2022-08-15T13:25:37Z</time>
      </trkpt>
      <trkpt lat="44.83856" lon="1.14812">
        <ele>67.4</ele>
        <time>2022-08-15T13:25:39Z</time>
      </trkpt>
      <trkpt lat="44.83852" lon="1.14821">
        <ele>67.1</ele>
        <time>2022-08-15T13:25:41Z</time>
      </trkpt>
      <trkpt lat="44.83847" lon="1.1483">
        <ele>66.9</ele>
        <time>2022-08-15T13:25:43Z</time>
      </trkpt>
      <trkpt lat="44.83841" lon="1.14839">
        <ele>66.5</ele>
        <time>2022-08-15T13:25:45Z</time>
      </trkpt>
      <trkpt lat="44.83837" lon="1.14848">
        <ele>66.1</ele>
        <time>2022-08-15T13:25:47Z</time>
      </trkpt>
      <trkpt lat="44.83832" lon="1.14858">
        <ele>65.7</ele>
        <time>2022-08-15T13:25:49Z</time>
      </trkpt>
      <trkpt lat="44.83829" lon="1.14868">
        <ele>65.6</ele>
        <time>2022-08-15T13:25:51Z</time>
      </trkpt>
      <trkpt lat="44.83825" lon="1.14877">
        <ele>65.5</ele>
        <time>2022-08-15T13:25:53Z</time>
      </trkpt>
      <trkpt lat="44.83821" lon="1.14887">
        <ele>65.4</ele>
        <time>2022-08-15T13:25:55Z</time>
      </trkpt>
      <trkpt lat="44.83817" lon="1.14897">
        <ele>65.3</ele>
        <time>2022-08-15T13:25:57Z</time>
      </trkpt>
      <trkpt lat="44.83813" lon="1.14908">
        <ele>65.3</ele>
        <time>2022-08-15T13:25:59Z</time>
      </trkpt>
      <trkpt lat="44.83808" lon="1.14919">
        <ele>65.3</ele>
        <time>2022-08-15T13:26:01Z</time>
      </trkpt>
      <trkpt lat="44.83804" lon="1.1493">
        <ele>65.4</ele>
        <time>2022-08-15T13:26:03Z</time>
      </trkpt>
      <trkpt lat="44.838" lon="1.14941">
        <ele>65.5</ele>
        <time>2022-08-15T13:26:05Z</time>
      </trkpt>
      <trkpt lat="44.83795" lon="1.14952">
        <ele>65.6</ele>
        <time>2022-08-15T13:26:07Z</time>
      </trkpt>
      <trkpt lat="44.83791" lon="1.14963">
        <ele>65.8</ele>
        <time>2022-08-15T13:26:09Z</time>
      </trkpt>
      <trkpt lat="44.83786" lon="1.14975">
        <ele>66</ele>
        <time>2022-08-15T13:26:11Z</time>
      </trkpt>
      <trkpt lat="44.83782" lon="1.14986">
        <ele>66.1</ele>
        <time>2022-08-15T13:26:13Z</time>
      </trkpt>
      <trkpt lat="44.83777" lon="1.14999">
        <ele>66.3</ele>
        <time>2022-08-15T13:26:15Z</time>
      </trkpt>
      <trkpt lat="44.83774" lon="1.15012">
        <ele>66.4</ele>
        <time>2022-08-15T13:26:17Z</time>
      </trkpt>
      <trkpt lat="44.83768" lon="1.15023">
        <ele>66.4</ele>
        <time>2022-08-15T13:26:19Z</time>
      </trkpt>
      <trkpt lat="44.83763" lon="1.15036">
        <ele>66.4</ele>
        <time>2022-08-15T13:26:21Z</time>
      </trkpt>
      <trkpt lat="44.83757" lon="1.15046">
        <ele>66.4</ele>
        <time>2022-08-15T13:26:23Z</time>
      </trkpt>
      <trkpt lat="44.83751" lon="1.15058">
        <ele>66.3</ele>
        <time>2022-08-15T13:26:25Z</time>
      </trkpt>
      <trkpt lat="44.83744" lon="1.15069">
        <ele>66.2</ele>
        <time>2022-08-15T13:26:27Z</time>
      </trkpt>
      <trkpt lat="44.83738" lon="1.15078">
        <ele>66.2</ele>
        <time>2022-08-15T13:26:29Z</time>
      </trkpt>
      <trkpt lat="44.83729" lon="1.15089">
        <ele>66.3</ele>
        <time>2022-08-15T13:26:31Z</time>
      </trkpt>
      <trkpt lat="44.83722" lon="1.15097">
        <ele>66.6</ele>
        <time>2022-08-15T13:26:33Z</time>
      </trkpt>
      <trkpt lat="44.83714" lon="1.15106">
        <ele>66.8</ele>
        <time>2022-08-15T13:26:35Z</time>
      </trkpt>
      <trkpt lat="44.83706" lon="1.15113">
        <ele>67.1</ele>
        <time>2022-08-15T13:26:37Z</time>
      </trkpt>
      <trkpt lat="44.83699" lon="1.15119">
        <ele>67.3</ele>
        <time>2022-08-15T13:26:39Z</time>
      </trkpt>
      <trkpt lat="44.83691" lon="1.15126">
        <ele>67.6</ele>
        <time>2022-08-15T13:26:41Z</time>
      </trkpt>
      <trkpt lat="44.83683" lon="1.15131">
        <ele>67.8</ele>
        <time>2022-08-15T13:26:43Z</time>
      </trkpt>
      <trkpt lat="44.83675" lon="1.15136">
        <ele>68.1</ele>
        <time>2022-08-15T13:26:45Z</time>
      </trkpt>
      <trkpt lat="44.83666" lon="1.15141">
        <ele>68.4</ele>
        <time>2022-08-15T13:26:47Z</time>
      </trkpt>
      <trkpt lat="44.83657" lon="1.15146">
        <ele>68.4</ele>
        <time>2022-08-15T13:26:49Z</time>
      </trkpt>
      <trkpt lat="44.83648" lon="1.15151">
        <ele>68.5</ele>
        <time>2022-08-15T13:26:51Z</time>
      </trkpt>
      <trkpt lat="44.83639" lon="1.15155">
        <ele>68.5</ele>
        <time>2022-08-15T13:26:53Z</time>
      </trkpt>
      <trkpt lat="44.8363" lon="1.15159">
        <ele>68.5</ele>
        <time>2022-08-15T13:26:55Z</time>
      </trkpt>
      <trkpt lat="44.83621" lon="1.15161">
        <ele>68.4</ele>
        <time>2022-08-15T13:26:57Z</time>
      </trkpt>
      <trkpt lat="44.83612" lon="1.15165">
        <ele>68.3</ele>
        <time>2022-08-15T13:26:59Z</time>
      </trkpt>
      <trkpt lat="44.83604" lon="1.15168">
        <ele>68.2</ele>
        <time>2022-08-15T13:27:01Z</time>
      </trkpt>
      <trkpt lat="44.83594" lon="1.15171">
        <ele>68</ele>
        <time>2022-08-15T13:27:03Z</time>
      </trkpt>
      <trkpt lat="44.83586" lon="1.15175">
        <ele>67.8</ele>
        <time>2022-08-15T13:27:05Z</time>
      </trkpt>
      <trkpt lat="44.83577" lon="1.15179">
        <ele>67.5</ele>
        <time>2022-08-15T13:27:07Z</time>
      </trkpt>
      <trkpt lat="44.83568" lon="1.15182">
        <ele>67.4</ele>
        <time>2022-08-15T13:27:09Z</time>
      </trkpt>
      <trkpt lat="44.83559" lon="1.15184">
        <ele>67.3</ele>
        <time>2022-08-15T13:27:11Z</time>
      </trkpt>
      <trkpt lat="44.83551" lon="1.15188">
        <ele>67.2</ele>
        <time>2022-08-15T13:27:13Z</time>
      </trkpt>
      <trkpt lat="44.83542" lon="1.15191">
        <ele>67.1</ele>
        <time>2022-08-15T13:27:15Z</time>
      </trkpt>
      <trkpt lat="44.83533" lon="1.15194">
        <ele>67</ele>
        <time>2022-08-15T13:27:17Z</time>
      </trkpt>
      <trkpt lat="44.83524" lon="1.15197">
        <ele>67</ele>
        <time>2022-08-15T13:27:19Z</time>
      </trkpt>
      <trkpt lat="44.83515" lon="1.15201">
        <ele>67</ele>
        <time>2022-08-15T13:27:21Z</time>
      </trkpt>
      <trkpt lat="44.83506" lon="1.15203">
        <ele>67</ele>
        <time>2022-08-15T13:27:23Z</time>
      </trkpt>
      <trkpt lat="44.83498" lon="1.15205">
        <ele>67</ele>
        <time>2022-08-15T13:27:25Z</time>
      </trkpt>
      <trkpt lat="44.83489" lon="1.15209">
        <ele>66.9</ele>
        <time>2022-08-15T13:27:27Z</time>
      </trkpt>
      <trkpt lat="44.8348" lon="1.15212">
        <ele>66.8</ele>
        <time>2022-08-15T13:27:29Z</time>
      </trkpt>
      <trkpt lat="44.83472" lon="1.15215">
        <ele>66.7</ele>
        <time>2022-08-15T13:27:31Z</time>
      </trkpt>
      <trkpt lat="44.83463" lon="1.15218">
        <ele>66.6</ele>
        <time>2022-08-15T13:27:33Z</time>
      </trkpt>
      <trkpt lat="44.83455" lon="1.1522">
        <ele>66.5</ele>
        <time>2022-08-15T13:27:35Z</time>
      </trkpt>
      <trkpt lat="44.83446" lon="1.15225">
        <ele>66.4</ele>
        <time>2022-08-15T13:27:37Z</time>
      </trkpt>
      <trkpt lat="44.83438" lon="1.15229">
        <ele>66.3</ele>
        <time>2022-08-15T13:27:39Z</time>
      </trkpt>
      <trkpt lat="44.83429" lon="1.15234">
        <ele>66.2</ele>
        <time>2022-08-15T13:27:41Z</time>
      </trkpt>
      <trkpt lat="44.83421" lon="1.15239">
        <ele>66.1</ele>
        <time>2022-08-15T13:27:43Z</time>
      </trkpt>
      <trkpt lat="44.83414" lon="1.15245">
        <ele>66.1</ele>
        <time>2022-08-15T13:27:45Z</time>
      </trkpt>
      <trkpt lat="44.83407" lon="1.15253">
        <ele>66.3</ele>
        <time>2022-08-15T13:27:47Z</time>
      </trkpt>
      <trkpt lat="44.83403" lon="1.15263">
        <ele>66.5</ele>
        <time>2022-08-15T13:27:49Z</time>
      </trkpt>
      <trkpt lat="44.83398" lon="1.15275">
        <ele>66.7</ele>
        <time>2022-08-15T13:27:51Z</time>
      </trkpt>
      <trkpt lat="44.83394" lon="1.15286">
        <ele>67</ele>
        <time>2022-08-15T13:27:53Z</time>
      </trkpt>
      <trkpt lat="44.83391" lon="1.15298">
        <ele>67.2</ele>
        <time>2022-08-15T13:27:55Z</time>
      </trkpt>
      <trkpt lat="44.83388" lon="1.15311">
        <ele>67.4</ele>
        <time>2022-08-15T13:27:57Z</time>
      </trkpt>
      <trkpt lat="44.83385" lon="1.15324">
        <ele>67.7</ele>
        <time>2022-08-15T13:27:59Z</time>
      </trkpt>
      <trkpt lat="44.83382" lon="1.15337">
        <ele>67.8</ele>
        <time>2022-08-15T13:28:01Z</time>
      </trkpt>
      <trkpt lat="44.8338" lon="1.1535">
        <ele>67.9</ele>
        <time>2022-08-15T13:28:03Z</time>
      </trkpt>
      <trkpt lat="44.83377" lon="1.15363">
        <ele>68</ele>
        <time>2022-08-15T13:28:05Z</time>
      </trkpt>
      <trkpt lat="44.83373" lon="1.15375">
        <ele>68</ele>
        <time>2022-08-15T13:28:07Z</time>
      </trkpt>
      <trkpt lat="44.83367" lon="1.15385">
        <ele>68.1</ele>
        <time>2022-08-15T13:28:09Z</time>
      </trkpt>
      <trkpt lat="44.83362" lon="1.15392">
        <ele>68.1</ele>
        <time>2022-08-15T13:28:11Z</time>
      </trkpt>
      <trkpt lat="44.83355" lon="1.15399">
        <ele>68.1</ele>
        <time>2022-08-15T13:28:13Z</time>
      </trkpt>
      <trkpt lat="44.83348" lon="1.15405">
        <ele>68.1</ele>
        <time>2022-08-15T13:28:15Z</time>
      </trkpt>
      <trkpt lat="44.83339" lon="1.15406">
        <ele>68.1</ele>
        <time>2022-08-15T13:28:17Z</time>
      </trkpt>
      <trkpt lat="44.83331" lon="1.15402">
        <ele>68.2</ele>
        <time>2022-08-15T13:28:19Z</time>
      </trkpt>
      <trkpt lat="44.83325" lon="1.15394">
        <ele>68.4</ele>
        <time>2022-08-15T13:28:21Z</time>
      </trkpt>
      <trkpt lat="44.83318" lon="1.15386">
        <ele>68.5</ele>
        <time>2022-08-15T13:28:23Z</time>
      </trkpt>
      <trkpt lat="44.83313" lon="1.15377">
        <ele>68.6</ele>
        <time>2022-08-15T13:28:25Z</time>
      </trkpt>
      <trkpt lat="44.83307" lon="1.15368">
        <ele>68.7</ele>
        <time>2022-08-15T13:28:27Z</time>
      </trkpt>
      <trkpt lat="44.833" lon="1.1536">
        <ele>68.8</ele>
        <time>2022-08-15T13:28:29Z</time>
      </trkpt>
      <trkpt lat="44.83295" lon="1.15351">
        <ele>68.9</ele>
        <time>2022-08-15T13:28:31Z</time>
      </trkpt>
      <trkpt lat="44.83288" lon="1.15342">
        <ele>69</ele>
        <time>2022-08-15T13:28:33Z</time>
      </trkpt>
      <trkpt lat="44.83282" lon="1.15333">
        <ele>69</ele>
        <time>2022-08-15T13:28:35Z</time>
      </trkpt>
      <trkpt lat="44.83276" lon="1.15324">
        <ele>69</ele>
        <time>2022-08-15T13:28:37Z</time>
      </trkpt>
      <trkpt lat="44.8327" lon="1.15315">
        <ele>68.9</ele>
        <time>2022-08-15T13:28:39Z</time>
      </trkpt>
      <trkpt lat="44.83264" lon="1.15307">
        <ele>68.9</ele>
        <time>2022-08-15T13:28:41Z</time>
      </trkpt>
      <trkpt lat="44.83258" lon="1.153">
        <ele>69</ele>
        <time>2022-08-15T13:28:43Z</time>
      </trkpt>
      <trkpt lat="44.8325" lon="1.15294">
        <ele>69</ele>
        <time>2022-08-15T13:28:45Z</time>
      </trkpt>
      <trkpt lat="44.83241" lon="1.15291">
        <ele>69</ele>
        <time>2022-08-15T13:28:47Z</time>
      </trkpt>
      <trkpt lat="44.83233" lon="1.1529">
        <ele>69</ele>
        <time>2022-08-15T13:28:49Z</time>
      </trkpt>
      <trkpt lat="44.83224" lon="1.1529">
        <ele>69</ele>
        <time>2022-08-15T13:28:51Z</time>
      </trkpt>
      <trkpt lat="44.83215" lon="1.1529">
        <ele>69</ele>
        <time>2022-08-15T13:28:53Z</time>
      </trkpt>
      <trkpt lat="44.83206" lon="1.15288">
        <ele>68.9</ele>
        <time>2022-08-15T13:28:55Z</time>
      </trkpt>
      <trkpt lat="44.83196" lon="1.1529">
        <ele>69</ele>
        <time>2022-08-15T13:28:57Z</time>
      </trkpt>
      <trkpt lat="44.83186" lon="1.15289">
        <ele>69</ele>
        <time>2022-08-15T13:28:59Z</time>
      </trkpt>
      <trkpt lat="44.83177" lon="1.1529">
        <ele>69</ele>
        <time>2022-08-15T13:29:01Z</time>
      </trkpt>
      <trkpt lat="44.83168" lon="1.1529">
        <ele>69</ele>
        <time>2022-08-15T13:29:03Z</time>
      </trkpt>
      <trkpt lat="44.83158" lon="1.15289">
        <ele>68.8</ele>
        <time>2022-08-15T13:29:05Z</time>
      </trkpt>
      <trkpt lat="44.83148" lon="1.1529">
        <ele>68.7</ele>
        <time>2022-08-15T13:29:07Z</time>
      </trkpt>
      <trkpt lat="44.83139" lon="1.1529">
        <ele>68.6</ele>
        <time>2022-08-15T13:29:09Z</time>
      </trkpt>
      <trkpt lat="44.8313" lon="1.1529">
        <ele>68.5</ele>
        <time>2022-08-15T13:29:11Z</time>
      </trkpt>
      <trkpt lat="44.8312" lon="1.15291">
        <ele>68.4</ele>
        <time>2022-08-15T13:29:13Z</time>
      </trkpt>
      <trkpt lat="44.83111" lon="1.1529">
        <ele>68.3</ele>
        <time>2022-08-15T13:29:15Z</time>
      </trkpt>
      <trkpt lat="44.83102" lon="1.1529">
        <ele>68.2</ele>
        <time>2022-08-15T13:29:17Z</time>
      </trkpt>
      <trkpt lat="44.83093" lon="1.1529">
        <ele>68.1</ele>
        <time>2022-08-15T13:29:19Z</time>
      </trkpt>
      <trkpt lat="44.83084" lon="1.15291">
        <ele>68</ele>
        <time>2022-08-15T13:29:21Z</time>
      </trkpt>
      <trkpt lat="44.83075" lon="1.1529">
        <ele>68.3</ele>
        <time>2022-08-15T13:29:23Z</time>
      </trkpt>
      <trkpt lat="44.83067" lon="1.1529">
        <ele>68.6</ele>
        <time>2022-08-15T13:29:25Z</time>
      </trkpt>
      <trkpt lat="44.83059" lon="1.1529">
        <ele>69</ele>
        <time>2022-08-15T13:29:27Z</time>
      </trkpt>
      <trkpt lat="44.8305" lon="1.1529">
        <ele>69.3</ele>
        <time>2022-08-15T13:29:29Z</time>
      </trkpt>
      <trkpt lat="44.83042" lon="1.1529">
        <ele>69.7</ele>
        <time>2022-08-15T13:29:31Z</time>
      </trkpt>
      <trkpt lat="44.83034" lon="1.1529">
        <ele>70</ele>
        <time>2022-08-15T13:29:33Z</time>
      </trkpt>
      <trkpt lat="44.83026" lon="1.1529">
        <ele>70.4</ele>
        <time>2022-08-15T13:29:35Z</time>
      </trkpt>
      <trkpt lat="44.83019" lon="1.15291">
        <ele>70.7</ele>
        <time>2022-08-15T13:29:37Z</time>
      </trkpt>
      <trkpt lat="44.83011" lon="1.15291">
        <ele>71</ele>
        <time>2022-08-15T13:29:39Z</time>
      </trkpt>
      <trkpt lat="44.83004" lon="1.15291">
        <ele>71.3</ele>
        <time>2022-08-15T13:29:41Z</time>
      </trkpt>
      <trkpt lat="44.82997" lon="1.15291">
        <ele>71.5</ele>
        <time>2022-08-15T13:29:43Z</time>
      </trkpt>
      <trkpt lat="44.8299" lon="1.15291">
        <ele>71.6</ele>
        <time>2022-08-15T13:29:45Z</time>
      </trkpt>
      <trkpt lat="44.82983" lon="1.15292">
        <ele>71.8</ele>
        <time>2022-08-15T13:29:47Z</time>
      </trkpt>
      <trkpt lat="44.82977" lon="1.15292">
        <ele>71.9</ele>
        <time>2022-08-15T13:29:49Z</time>
      </trkpt>
      <trkpt lat="44.8297" lon="1.15293">
        <ele>72.1</ele>
        <time>2022-08-15T13:29:51Z</time>
      </trkpt>
      <trkpt lat="44.82964" lon="1.15295">
        <ele>72.3</ele>
        <time>2022-08-15T13:29:53Z</time>
      </trkpt>
      <trkpt lat="44.82957" lon="1.15297">
        <ele>72.4</ele>
        <time>2022-08-15T13:29:55Z</time>
      </trkpt>
      <trkpt lat="44.8295" lon="1.15299">
        <ele>72.6</ele>
        <time>2022-08-15T13:29:57Z</time>
      </trkpt>
      <trkpt lat="44.82943" lon="1.15302">
        <ele>72.8</ele>
        <time>2022-08-15T13:29:59Z</time>
      </trkpt>
      <trkpt lat="44.82936" lon="1.15304">
        <ele>73</ele>
        <time>2022-08-15T13:30:01Z</time>
      </trkpt>
      <trkpt lat="44.8293" lon="1.15308">
        <ele>73.2</ele>
        <time>2022-08-15T13:30:03Z</time>
      </trkpt>
      <trkpt lat="44.82923" lon="1.1531">
        <ele>73.3</ele>
        <time>2022-08-15T13:30:05Z</time>
      </trkpt>
      <trkpt lat="44.82916" lon="1.15314">
        <ele>73.6</ele>
        <time>2022-08-15T13:30:07Z</time>
      </trkpt>
      <trkpt lat="44.82909" lon="1.15317">
        <ele>73.9</ele>
        <time>2022-08-15T13:30:09Z</time>
      </trkpt>
      <trkpt lat="44.82902" lon="1.1532">
        <ele>74.2</ele>
        <time>2022-08-15T13:30:11Z</time>
      </trkpt>
      <trkpt lat="44.82895" lon="1.15323">
        <ele>74.5</ele>
        <time>2022-08-15T13:30:13Z</time>
      </trkpt>
      <trkpt lat="44.82887" lon="1.15326">
        <ele>74.9</ele>
        <time>2022-08-15T13:30:15Z</time>
      </trkpt>
      <trkpt lat="44.8288" lon="1.15329">
        <ele>75.2</ele>
        <time>2022-08-15T13:30:17Z</time>
      </trkpt>
      <trkpt lat="44.82873" lon="1.15332">
        <ele>75.6</ele>
        <time>2022-08-15T13:30:19Z</time>
      </trkpt>
      <trkpt lat="44.82866" lon="1.15337">
        <ele>75.9</ele>
        <time>2022-08-15T13:30:21Z</time>
      </trkpt>
      <trkpt lat="44.82858" lon="1.15339">
        <ele>76.2</ele>
        <time>2022-08-15T13:30:23Z</time>
      </trkpt>
      <trkpt lat="44.82851" lon="1.15341">
        <ele>76.4</ele>
        <time>2022-08-15T13:30:25Z</time>
      </trkpt>
      <trkpt lat="44.82844" lon="1.15346">
        <ele>76.8</ele>
        <time>2022-08-15T13:30:27Z</time>
      </trkpt>
      <trkpt lat="44.82836" lon="1.15349">
        <ele>77.1</ele>
        <time>2022-08-15T13:30:29Z</time>
      </trkpt>
      <trkpt lat="44.82828" lon="1.15352">
        <ele>77.2</ele>
        <time>2022-08-15T13:30:31Z</time>
      </trkpt>
      <trkpt lat="44.8282" lon="1.15354">
        <ele>77.1</ele>
        <time>2022-08-15T13:30:33Z</time>
      </trkpt>
      <trkpt lat="44.82812" lon="1.15358">
        <ele>77</ele>
        <time>2022-08-15T13:30:35Z</time>
      </trkpt>
      <trkpt lat="44.82805" lon="1.15362">
        <ele>77</ele>
        <time>2022-08-15T13:30:37Z</time>
      </trkpt>
      <trkpt lat="44.82797" lon="1.15366">
        <ele>77</ele>
        <time>2022-08-15T13:30:39Z</time>
      </trkpt>
      <trkpt lat="44.82789" lon="1.1537">
        <ele>76.9</ele>
        <time>2022-08-15T13:30:41Z</time>
      </trkpt>
      <trkpt lat="44.82782" lon="1.15374">
        <ele>76.9</ele>
        <time>2022-08-15T13:30:43Z</time>
      </trkpt>
      <trkpt lat="44.82775" lon="1.15378">
        <ele>76.8</ele>
        <time>2022-08-15T13:30:45Z</time>
      </trkpt>
      <trkpt lat="44.82768" lon="1.15381">
        <ele>76.8</ele>
        <time>2022-08-15T13:30:47Z</time>
      </trkpt>
      <trkpt lat="44.82761" lon="1.15384">
        <ele>76.7</ele>
        <time>2022-08-15T13:30:49Z</time>
      </trkpt>
      <trkpt lat="44.82753" lon="1.15388">
        <ele>76.7</ele>
        <time>2022-08-15T13:30:51Z</time>
      </trkpt>
      <trkpt lat="44.82746" lon="1.15391">
        <ele>76.6</ele>
        <time>2022-08-15T13:30:53Z</time>
      </trkpt>
      <trkpt lat="44.82739" lon="1.15394">
        <ele>76.3</ele>
        <time>2022-08-15T13:30:55Z</time>
      </trkpt>
      <trkpt lat="44.82732" lon="1.15397">
        <ele>76.1</ele>
        <time>2022-08-15T13:30:57Z</time>
      </trkpt>
      <trkpt lat="44.82725" lon="1.154">
        <ele>75.9</ele>
        <time>2022-08-15T13:30:59Z</time>
      </trkpt>
      <trkpt lat="44.82717" lon="1.15404">
        <ele>75.7</ele>
        <time>2022-08-15T13:31:01Z</time>
      </trkpt>
      <trkpt lat="44.8271" lon="1.15406">
        <ele>75.4</ele>
        <time>2022-08-15T13:31:03Z</time>
      </trkpt>
      <trkpt lat="44.82702" lon="1.1541">
        <ele>75.2</ele>
        <time>2022-08-15T13:31:05Z</time>
      </trkpt>
      <trkpt lat="44.82695" lon="1.15413">
        <ele>75</ele>
        <time>2022-08-15T13:31:07Z</time>
      </trkpt>
      <trkpt lat="44.82687" lon="1.15416">
        <ele>74.7</ele>
        <time>2022-08-15T13:31:09Z</time>
      </trkpt>
      <trkpt lat="44.82679" lon="1.1542">
        <ele>74.5</ele>
        <time>2022-08-15T13:31:11Z</time>
      </trkpt>
      <trkpt lat="44.82671" lon="1.15423">
        <ele>74.4</ele>
        <time>2022-08-15T13:31:13Z</time>
      </trkpt>
      <trkpt lat="44.82664" lon="1.15426">
        <ele>74.4</ele>
        <time>2022-08-15T13:31:15Z</time>
      </trkpt>
      <trkpt lat="44.82656" lon="1.15429">
        <ele>74.6</ele>
        <time>2022-08-15T13:31:17Z</time>
      </trkpt>
      <trkpt lat="44.82648" lon="1.15433">
        <ele>74.9</ele>
        <time>2022-08-15T13:31:19Z</time>
      </trkpt>
      <trkpt lat="44.8264" lon="1.15436">
        <ele>75.3</ele>
        <time>2022-08-15T13:31:21Z</time>
      </trkpt>
      <trkpt lat="44.82632" lon="1.1544">
        <ele>75.6</ele>
        <time>2022-08-15T13:31:23Z</time>
      </trkpt>
      <trkpt lat="44.82624" lon="1.15443">
        <ele>76</ele>
        <time>2022-08-15T13:31:25Z</time>
      </trkpt>
      <trkpt lat="44.82616" lon="1.15446">
        <ele>76.3</ele>
        <time>2022-08-15T13:31:27Z</time>
      </trkpt>
      <trkpt lat="44.82609" lon="1.1545">
        <ele>76.7</ele>
        <time>2022-08-15T13:31:29Z</time>
      </trkpt>
      <trkpt lat="44.82601" lon="1.15452">
        <ele>77.1</ele>
        <time>2022-08-15T13:31:31Z</time>
      </trkpt>
      <trkpt lat="44.82594" lon="1.15456">
        <ele>77.5</ele>
        <time>2022-08-15T13:31:33Z</time>
      </trkpt>
      <trkpt lat="44.82587" lon="1.15459">
        <ele>77.9</ele>
        <time>2022-08-15T13:31:35Z</time>
      </trkpt>
      <trkpt lat="44.8258" lon="1.15463">
        <ele>78.2</ele>
        <time>2022-08-15T13:31:37Z</time>
      </trkpt>
      <trkpt lat="44.82572" lon="1.15465">
        <ele>78.3</ele>
        <time>2022-08-15T13:31:39Z</time>
      </trkpt>
      <trkpt lat="44.82564" lon="1.15469">
        <ele>78.4</ele>
        <time>2022-08-15T13:31:41Z</time>
      </trkpt>
      <trkpt lat="44.82557" lon="1.15473">
        <ele>78.5</ele>
        <time>2022-08-15T13:31:43Z</time>
      </trkpt>
      <trkpt lat="44.82549" lon="1.15476">
        <ele>78.6</ele>
        <time>2022-08-15T13:31:45Z</time>
      </trkpt>
      <trkpt lat="44.82541" lon="1.1548">
        <ele>78.7</ele>
        <time>2022-08-15T13:31:47Z</time>
      </trkpt>
      <trkpt lat="44.82534" lon="1.15483">
        <ele>78.7</ele>
        <time>2022-08-15T13:31:49Z</time>
      </trkpt>
      <trkpt lat="44.82526" lon="1.1549">
        <ele>79</ele>
        <time>2022-08-15T13:31:51Z</time>
      </trkpt>
      <trkpt lat="44.82517" lon="1.15499">
        <ele>79.3</ele>
        <time>2022-08-15T13:31:53Z</time>
      </trkpt>
      <trkpt lat="44.8251" lon="1.15504">
        <ele>79.4</ele>
        <time>2022-08-15T13:31:55Z</time>
      </trkpt>
      <trkpt lat="44.82501" lon="1.15511">
        <ele>79.6</ele>
        <time>2022-08-15T13:31:57Z</time>
      </trkpt>
      <trkpt lat="44.82492" lon="1.1552">
        <ele>79.5</ele>
        <time>2022-08-15T13:31:59Z</time>
      </trkpt>
      <trkpt lat="44.82483" lon="1.15528">
        <ele>79.4</ele>
        <time>2022-08-15T13:32:01Z</time>
      </trkpt>
      <trkpt lat="44.82476" lon="1.15536">
        <ele>79.3</ele>
        <time>2022-08-15T13:32:03Z</time>
      </trkpt>
      <trkpt lat="44.82468" lon="1.15543">
        <ele>79.1</ele>
        <time>2022-08-15T13:32:05Z</time>
      </trkpt>
      <trkpt lat="44.82459" lon="1.15551">
        <ele>78.9</ele>
        <time>2022-08-15T13:32:07Z</time>
      </trkpt>
      <trkpt lat="44.82452" lon="1.15559">
        <ele>78.7</ele>
        <time>2022-08-15T13:32:09Z</time>
      </trkpt>
      <trkpt lat="44.82443" lon="1.15568">
        <ele>78.4</ele>
        <time>2022-08-15T13:32:11Z</time>
      </trkpt>
      <trkpt lat="44.82435" lon="1.15577">
        <ele>78.2</ele>
        <time>2022-08-15T13:32:13Z</time>
      </trkpt>
      <trkpt lat="44.82428" lon="1.15586">
        <ele>78</ele>
        <time>2022-08-15T13:32:15Z</time>
      </trkpt>
      <trkpt lat="44.8242" lon="1.15594">
        <ele>77.9</ele>
        <time>2022-08-15T13:32:17Z</time>
      </trkpt>
      <trkpt lat="44.82413" lon="1.15606">
        <ele>78.2</ele>
        <time>2022-08-15T13:32:19Z</time>
      </trkpt>
      <trkpt lat="44.82406" lon="1.15616">
        <ele>78.6</ele>
        <time>2022-08-15T13:32:21Z</time>
      </trkpt>
      <trkpt lat="44.82399" lon="1.15625">
        <ele>78.9</ele>
        <time>2022-08-15T13:32:23Z</time>
      </trkpt>
      <trkpt lat="44.82393" lon="1.15635">
        <ele>79.2</ele>
        <time>2022-08-15T13:32:25Z</time>
      </trkpt>
      <trkpt lat="44.82386" lon="1.15644">
        <ele>79.4</ele>
        <time>2022-08-15T13:32:27Z</time>
      </trkpt>
      <trkpt lat="44.8238" lon="1.15653">
        <ele>79.6</ele>
        <time>2022-08-15T13:32:29Z</time>
      </trkpt>
      <trkpt lat="44.82373" lon="1.15663">
        <ele>79.8</ele>
        <time>2022-08-15T13:32:31Z</time>
      </trkpt>
      <trkpt lat="44.82367" lon="1.15672">
        <ele>80.1</ele>
        <time>2022-08-15T13:32:33Z</time>
      </trkpt>
      <trkpt lat="44.8236" lon="1.15682">
        <ele>80.7</ele>
        <time>2022-08-15T13:32:35Z</time>
      </trkpt>
      <trkpt lat="44.82353" lon="1.15692">
        <ele>81.2</ele>
        <time>2022-08-15T13:32:37Z</time>
      </trkpt>
      <trkpt lat="44.82345" lon="1.15701">
        <ele>81.6</ele>
        <time>2022-08-15T13:32:39Z</time>
      </trkpt>
      <trkpt lat="44.82336" lon="1.15711">
        <ele>81.8</ele>
        <time>2022-08-15T13:32:41Z</time>
      </trkpt>
      <trkpt lat="44.82327" lon="1.15721">
        <ele>82</ele>
        <time>2022-08-15T13:32:43Z</time>
      </trkpt>
      <trkpt lat="44.82318" lon="1.15731">
        <ele>82.1</ele>
        <time>2022-08-15T13:32:45Z</time>
      </trkpt>
      <trkpt lat="44.82309" lon="1.15741">
        <ele>82</ele>
        <time>2022-08-15T13:32:47Z</time>
      </trkpt>
      <trkpt lat="44.823" lon="1.15751">
        <ele>81.9</ele>
        <time>2022-08-15T13:32:49Z</time>
      </trkpt>
      <trkpt lat="44.82291" lon="1.15762">
        <ele>81.9</ele>
        <time>2022-08-15T13:32:51Z</time>
      </trkpt>
      <trkpt lat="44.82281" lon="1.15774">
        <ele>81.9</ele>
        <time>2022-08-15T13:32:53Z</time>
      </trkpt>
      <trkpt lat="44.82272" lon="1.15785">
        <ele>81.6</ele>
        <time>2022-08-15T13:32:55Z</time>
      </trkpt>
      <trkpt lat="44.82264" lon="1.15798">
        <ele>81.3</ele>
        <time>2022-08-15T13:32:57Z</time>
      </trkpt>
      <trkpt lat="44.82255" lon="1.15812">
        <ele>80.7</ele>
        <time>2022-08-15T13:32:59Z</time>
      </trkpt>
      <trkpt lat="44.82246" lon="1.15826">
        <ele>80.2</ele>
        <time>2022-08-15T13:33:01Z</time>
      </trkpt>
      <trkpt lat="44.82236" lon="1.15841">
        <ele>80</ele>
        <time>2022-08-15T13:33:03Z</time>
      </trkpt>
      <trkpt lat="44.82227" lon="1.15856">
        <ele>79.8</ele>
        <time>2022-08-15T13:33:05Z</time>
      </trkpt>
      <trkpt lat="44.82218" lon="1.15872">
        <ele>79.4</ele>
        <time>2022-08-15T13:33:07Z</time>
      </trkpt>
      <trkpt lat="44.82209" lon="1.15888">
        <ele>78.9</ele>
        <time>2022-08-15T13:33:09Z</time>
      </trkpt>
      <trkpt lat="44.82201" lon="1.15906">
        <ele>78.4</ele>
        <time>2022-08-15T13:33:11Z</time>
      </trkpt>
      <trkpt lat="44.82194" lon="1.15923">
        <ele>77.9</ele>
        <time>2022-08-15T13:33:13Z</time>
      </trkpt>
      <trkpt lat="44.82188" lon="1.15943">
        <ele>77.1</ele>
        <time>2022-08-15T13:33:15Z</time>
      </trkpt>
      <trkpt lat="44.82183" lon="1.15962">
        <ele>76.4</ele>
        <time>2022-08-15T13:33:17Z</time>
      </trkpt>
      <trkpt lat="44.82179" lon="1.15983">
        <ele>75.9</ele>
        <time>2022-08-15T13:33:19Z</time>
      </trkpt>
      <trkpt lat="44.82177" lon="1.16004">
        <ele>75.6</ele>
        <time>2022-08-15T13:33:21Z</time>
      </trkpt>
      <trkpt lat="44.82176" lon="1.16024">
        <ele>75.9</ele>
        <time>2022-08-15T13:33:23Z</time>
      </trkpt>
      <trkpt lat="44.82176" lon="1.16047">
        <ele>76.4</ele>
        <time>2022-08-15T13:33:25Z</time>
      </trkpt>
      <trkpt lat="44.82177" lon="1.16068">
        <ele>77</ele>
        <time>2022-08-15T13:33:27Z</time>
      </trkpt>
      <trkpt lat="44.82178" lon="1.16089">
        <ele>77.6</ele>
        <time>2022-08-15T13:33:29Z</time>
      </trkpt>
      <trkpt lat="44.82179" lon="1.16111">
        <ele>78.1</ele>
        <time>2022-08-15T13:33:31Z</time>
      </trkpt>
      <trkpt lat="44.8218" lon="1.16132">
        <ele>78.7</ele>
        <time>2022-08-15T13:33:33Z</time>
      </trkpt>
      <trkpt lat="44.82182" lon="1.16153">
        <ele>79.6</ele>
        <time>2022-08-15T13:33:35Z</time>
      </trkpt>
      <trkpt lat="44.82184" lon="1.16174">
        <ele>80.6</ele>
        <time>2022-08-15T13:33:37Z</time>
      </trkpt>
      <trkpt lat="44.82187" lon="1.16194">
        <ele>81.5</ele>
        <time>2022-08-15T13:33:39Z</time>
      </trkpt>
      <trkpt lat="44.82191" lon="1.16214">
        <ele>82.8</ele>
        <time>2022-08-15T13:33:41Z</time>
      </trkpt>
      <trkpt lat="44.82195" lon="1.16233">
        <ele>84</ele>
        <time>2022-08-15T13:33:43Z</time>
      </trkpt>
      <trkpt lat="44.82199" lon="1.1625">
        <ele>85.4</ele>
        <time>2022-08-15T13:33:45Z</time>
      </trkpt>
      <trkpt lat="44.82203" lon="1.16269">
        <ele>85.5</ele>
        <time>2022-08-15T13:33:47Z</time>
      </trkpt>
      <trkpt lat="44.82207" lon="1.16285">
        <ele>85.6</ele>
        <time>2022-08-15T13:33:49Z</time>
      </trkpt>
      <trkpt lat="44.82211" lon="1.16301">
        <ele>85.8</ele>
        <time>2022-08-15T13:33:51Z</time>
      </trkpt>
      <trkpt lat="44.82214" lon="1.16317">
        <ele>85.6</ele>
        <time>2022-08-15T13:33:53Z</time>
      </trkpt>
      <trkpt lat="44.82218" lon="1.16333">
        <ele>85.5</ele>
        <time>2022-08-15T13:33:55Z</time>
      </trkpt>
      <trkpt lat="44.82222" lon="1.16349">
        <ele>85.2</ele>
        <time>2022-08-15T13:33:57Z</time>
      </trkpt>
      <trkpt lat="44.82226" lon="1.16365">
        <ele>84.7</ele>
        <time>2022-08-15T13:33:59Z</time>
      </trkpt>
      <trkpt lat="44.8223" lon="1.16383">
        <ele>83.9</ele>
        <time>2022-08-15T13:34:01Z</time>
      </trkpt>
      <trkpt lat="44.82235" lon="1.16399">
        <ele>83.2</ele>
        <time>2022-08-15T13:34:03Z</time>
      </trkpt>
      <trkpt lat="44.8224" lon="1.16414">
        <ele>82.4</ele>
        <time>2022-08-15T13:34:05Z</time>
      </trkpt>
      <trkpt lat="44.82245" lon="1.16431">
        <ele>81.3</ele>
        <time>2022-08-15T13:34:07Z</time>
      </trkpt>
      <trkpt lat="44.8225" lon="1.16446">
        <ele>80.1</ele>
        <time>2022-08-15T13:34:09Z</time>
      </trkpt>
      <trkpt lat="44.82256" lon="1.16461">
        <ele>81.9</ele>
        <time>2022-08-15T13:34:11Z</time>
      </trkpt>
      <trkpt lat="44.82262" lon="1.16474">
        <ele>83.4</ele>
        <time>2022-08-15T13:34:13Z</time>
      </trkpt>
      <trkpt lat="44.82267" lon="1.16489">
        <ele>84.2</ele>
        <time>2022-08-15T13:34:15Z</time>
      </trkpt>
      <trkpt lat="44.82274" lon="1.16502">
        <ele>85.8</ele>
        <time>2022-08-15T13:34:17Z</time>
      </trkpt>
      <trkpt lat="44.8228" lon="1.16515">
        <ele>87.9</ele>
        <time>2022-08-15T13:34:19Z</time>
      </trkpt>
      <trkpt lat="44.82287" lon="1.16529">
        <ele>89.1</ele>
        <time>2022-08-15T13:34:21Z</time>
      </trkpt>
      <trkpt lat="44.82292" lon="1.16542">
        <ele>89.8</ele>
        <time>2022-08-15T13:34:23Z</time>
      </trkpt>
      <trkpt lat="44.82299" lon="1.16554">
        <ele>90.7</ele>
        <time>2022-08-15T13:34:25Z</time>
      </trkpt>
      <trkpt lat="44.82305" lon="1.16566">
        <ele>90.9</ele>
        <time>2022-08-15T13:34:27Z</time>
      </trkpt>
      <trkpt lat="44.82311" lon="1.16579">
        <ele>90.6</ele>
        <time>2022-08-15T13:34:29Z</time>
      </trkpt>
      <trkpt lat="44.82318" lon="1.1659">
        <ele>90.7</ele>
        <time>2022-08-15T13:34:31Z</time>
      </trkpt>
      <trkpt lat="44.82324" lon="1.16602">
        <ele>90.5</ele>
        <time>2022-08-15T13:34:33Z</time>
      </trkpt>
      <trkpt lat="44.8233" lon="1.16614">
        <ele>90.1</ele>
        <time>2022-08-15T13:34:35Z</time>
      </trkpt>
      <trkpt lat="44.82335" lon="1.16626">
        <ele>89.6</ele>
        <time>2022-08-15T13:34:37Z</time>
      </trkpt>
      <trkpt lat="44.82341" lon="1.16638">
        <ele>90.6</ele>
        <time>2022-08-15T13:34:39Z</time>
      </trkpt>
      <trkpt lat="44.82346" lon="1.1665">
        <ele>91</ele>
        <time>2022-08-15T13:34:41Z</time>
      </trkpt>
      <trkpt lat="44.82352" lon="1.16662">
        <ele>91.9</ele>
        <time>2022-08-15T13:34:43Z</time>
      </trkpt>
      <trkpt lat="44.82357" lon="1.16674">
        <ele>92.7</ele>
        <time>2022-08-15T13:34:45Z</time>
      </trkpt>
      <trkpt lat="44.82363" lon="1.16686">
        <ele>93.8</ele>
        <time>2022-08-15T13:34:47Z</time>
      </trkpt>
      <trkpt lat="44.82368" lon="1.16697">
        <ele>94.8</ele>
        <time>2022-08-15T13:34:49Z</time>
      </trkpt>
      <trkpt lat="44.82373" lon="1.16709">
        <ele>94.9</ele>
        <time>2022-08-15T13:34:51Z</time>
      </trkpt>
      <trkpt lat="44.82378" lon="1.1672">
        <ele>95.1</ele>
        <time>2022-08-15T13:34:53Z</time>
      </trkpt>
      <trkpt lat="44.82383" lon="1.16731">
        <ele>95.1</ele>
        <time>2022-08-15T13:34:55Z</time>
      </trkpt>
      <trkpt lat="44.82388" lon="1.16745">
        <ele>94.5</ele>
        <time>2022-08-15T13:34:57Z</time>
      </trkpt>
      <trkpt lat="44.82392" lon="1.16758">
        <ele>93.8</ele>
        <time>2022-08-15T13:34:59Z</time>
      </trkpt>
      <trkpt lat="44.82396" lon="1.16769">
        <ele>93.3</ele>
        <time>2022-08-15T13:35:01Z</time>
      </trkpt>
      <trkpt lat="44.82399" lon="1.16784">
        <ele>92.1</ele>
        <time>2022-08-15T13:35:03Z</time>
      </trkpt>
      <trkpt lat="44.82403" lon="1.16799">
        <ele>90.6</ele>
        <time>2022-08-15T13:35:05Z</time>
      </trkpt>
      <trkpt lat="44.82405" lon="1.16812">
        <ele>89.1</ele>
        <time>2022-08-15T13:35:07Z</time>
      </trkpt>
      <trkpt lat="44.82409" lon="1.16827">
        <ele>87.3</ele>
        <time>2022-08-15T13:35:09Z</time>
      </trkpt>
      <trkpt lat="44.82413" lon="1.16841">
        <ele>86.3</ele>
        <time>2022-08-15T13:35:11Z</time>
      </trkpt>
      <trkpt lat="44.82416" lon="1.16855">
        <ele>85.3</ele>
        <time>2022-08-15T13:35:13Z</time>
      </trkpt>
      <trkpt lat="44.82421" lon="1.16867">
        <ele>87</ele>
        <time>2022-08-15T13:35:15Z</time>
      </trkpt>
      <trkpt lat="44.82427" lon="1.16879">
        <ele>88.9</ele>
        <time>2022-08-15T13:35:17Z</time>
      </trkpt>
      <trkpt lat="44.82431" lon="1.16892">
        <ele>89.7</ele>
        <time>2022-08-15T13:35:19Z</time>
      </trkpt>
      <trkpt lat="44.82436" lon="1.16904">
        <ele>91.5</ele>
        <time>2022-08-15T13:35:21Z</time>
      </trkpt>
      <trkpt lat="44.82441" lon="1.16917">
        <ele>92.5</ele>
        <time>2022-08-15T13:35:23Z</time>
      </trkpt>
      <trkpt lat="44.82446" lon="1.16931">
        <ele>94.3</ele>
        <time>2022-08-15T13:35:25Z</time>
      </trkpt>
      <trkpt lat="44.8245" lon="1.16945">
        <ele>95</ele>
        <time>2022-08-15T13:35:27Z</time>
      </trkpt>
      <trkpt lat="44.82454" lon="1.16958">
        <ele>96.1</ele>
        <time>2022-08-15T13:35:29Z</time>
      </trkpt>
      <trkpt lat="44.82459" lon="1.16971">
        <ele>97</ele>
        <time>2022-08-15T13:35:31Z</time>
      </trkpt>
      <trkpt lat="44.82462" lon="1.16984">
        <ele>97</ele>
        <time>2022-08-15T13:35:33Z</time>
      </trkpt>
      <trkpt lat="44.82465" lon="1.16998">
        <ele>96.8</ele>
        <time>2022-08-15T13:35:35Z</time>
      </trkpt>
      <trkpt lat="44.82467" lon="1.17012">
        <ele>96.4</ele>
        <time>2022-08-15T13:35:37Z</time>
      </trkpt>
      <trkpt lat="44.8247" lon="1.17026">
        <ele>96.4</ele>
        <time>2022-08-15T13:35:39Z</time>
      </trkpt>
      <trkpt lat="44.82475" lon="1.17039">
        <ele>97.1</ele>
        <time>2022-08-15T13:35:41Z</time>
      </trkpt>
      <trkpt lat="44.82478" lon="1.17053">
        <ele>96.6</ele>
        <time>2022-08-15T13:35:43Z</time>
      </trkpt>
      <trkpt lat="44.8248" lon="1.17068">
        <ele>95.9</ele>
        <time>2022-08-15T13:35:45Z</time>
      </trkpt>
      <trkpt lat="44.82484" lon="1.17082">
        <ele>95.4</ele>
        <time>2022-08-15T13:35:47Z</time>
      </trkpt>
      <trkpt lat="44.82487" lon="1.17096">
        <ele>95.1</ele>
        <time>2022-08-15T13:35:49Z</time>
      </trkpt>
      <trkpt lat="44.8249" lon="1.1711">
        <ele>94.8</ele>
        <time>2022-08-15T13:35:51Z</time>
      </trkpt>
      <trkpt lat="44.82495" lon="1.17123">
        <ele>94.6</ele>
        <time>2022-08-15T13:35:53Z</time>
      </trkpt>
      <trkpt lat="44.82498" lon="1.17138">
        <ele>93.7</ele>
        <time>2022-08-15T13:35:55Z</time>
      </trkpt>
      <trkpt lat="44.82501" lon="1.17153">
        <ele>93.4</ele>
        <time>2022-08-15T13:35:57Z</time>
      </trkpt>
      <trkpt lat="44.82503" lon="1.17167">
        <ele>93.5</ele>
        <time>2022-08-15T13:35:59Z</time>
      </trkpt>
      <trkpt lat="44.82505" lon="1.17182">
        <ele>93.3</ele>
        <time>2022-08-15T13:36:01Z</time>
      </trkpt>
      <trkpt lat="44.82507" lon="1.17197">
        <ele>93.5</ele>
        <time>2022-08-15T13:36:03Z</time>
      </trkpt>
      <trkpt lat="44.82509" lon="1.17212">
        <ele>93</ele>
        <time>2022-08-15T13:36:05Z</time>
      </trkpt>
      <trkpt lat="44.82512" lon="1.17227">
        <ele>93</ele>
        <time>2022-08-15T13:36:07Z</time>
      </trkpt>
      <trkpt lat="44.82513" lon="1.17242">
        <ele>92.3</ele>
        <time>2022-08-15T13:36:09Z</time>
      </trkpt>
      <trkpt lat="44.82515" lon="1.17258">
        <ele>91.7</ele>
        <time>2022-08-15T13:36:11Z</time>
      </trkpt>
      <trkpt lat="44.82517" lon="1.17273">
        <ele>91.7</ele>
        <time>2022-08-15T13:36:13Z</time>
      </trkpt>
      <trkpt lat="44.82519" lon="1.17287">
        <ele>91.3</ele>
        <time>2022-08-15T13:36:15Z</time>
      </trkpt>
      <trkpt lat="44.8252" lon="1.17302">
        <ele>91</ele>
        <time>2022-08-15T13:36:17Z</time>
      </trkpt>
      <trkpt lat="44.82522" lon="1.17315">
        <ele>90.8</ele>
        <time>2022-08-15T13:36:19Z</time>
      </trkpt>
      <trkpt lat="44.82524" lon="1.1733">
        <ele>90</ele>
        <time>2022-08-15T13:36:21Z</time>
      </trkpt>
      <trkpt lat="44.82524" lon="1.17345">
        <ele>88.8</ele>
        <time>2022-08-15T13:36:23Z</time>
      </trkpt>
      <trkpt lat="44.82527" lon="1.1736">
        <ele>88.6</ele>
        <time>2022-08-15T13:36:25Z</time>
      </trkpt>
      <trkpt lat="44.82529" lon="1.17375">
        <ele>88.2</ele>
        <time>2022-08-15T13:36:27Z</time>
      </trkpt>
      <trkpt lat="44.82531" lon="1.17389">
        <ele>87.3</ele>
        <time>2022-08-15T13:36:29Z</time>
      </trkpt>
      <trkpt lat="44.82534" lon="1.17404">
        <ele>86.8</ele>
        <time>2022-08-15T13:36:31Z</time>
      </trkpt>
      <trkpt lat="44.82535" lon="1.17419">
        <ele>85.4</ele>
        <time>2022-08-15T13:36:33Z</time>
      </trkpt>
      <trkpt lat="44.82537" lon="1.17434">
        <ele>85.2</ele>
        <time>2022-08-15T13:36:35Z</time>
      </trkpt>
      <trkpt lat="44.82539" lon="1.17448">
        <ele>85</ele>
        <time>2022-08-15T13:36:37Z</time>
      </trkpt>
      <trkpt lat="44.82541" lon="1.17462">
        <ele>84.5</ele>
        <time>2022-08-15T13:36:39Z</time>
      </trkpt>
      <trkpt lat="44.82544" lon="1.17476">
        <ele>84.5</ele>
        <time>2022-08-15T13:36:41Z</time>
      </trkpt>
      <trkpt lat="44.82549" lon="1.17489">
        <ele>84.6</ele>
        <time>2022-08-15T13:36:43Z</time>
      </trkpt>
      <trkpt lat="44.82555" lon="1.17499">
        <ele>85.4</ele>
        <time>2022-08-15T13:36:45Z</time>
      </trkpt>
      <trkpt lat="44.82563" lon="1.17507">
        <ele>85.9</ele>
        <time>2022-08-15T13:36:47Z</time>
      </trkpt>
      <trkpt lat="44.8257" lon="1.17515">
        <ele>86.4</ele>
        <time>2022-08-15T13:36:49Z</time>
      </trkpt>
      <trkpt lat="44.82578" lon="1.17523">
        <ele>86.6</ele>
        <time>2022-08-15T13:36:51Z</time>
      </trkpt>
      <trkpt lat="44.82586" lon="1.17531">
        <ele>87.5</ele>
        <time>2022-08-15T13:36:53Z</time>
      </trkpt>
      <trkpt lat="44.82593" lon="1.17539">
        <ele>90.3</ele>
        <time>2022-08-15T13:36:55Z</time>
      </trkpt>
      <trkpt lat="44.826" lon="1.17548">
        <ele>92.4</ele>
        <time>2022-08-15T13:36:57Z</time>
      </trkpt>
      <trkpt lat="44.82606" lon="1.17558">
        <ele>94</ele>
        <time>2022-08-15T13:36:59Z</time>
      </trkpt>
      <trkpt lat="44.82612" lon="1.17567">
        <ele>95.5</ele>
        <time>2022-08-15T13:37:01Z</time>
      </trkpt>
      <trkpt lat="44.82618" lon="1.17575">
        <ele>97.6</ele>
        <time>2022-08-15T13:37:03Z</time>
      </trkpt>
      <trkpt lat="44.82626" lon="1.17583">
        <ele>100.1</ele>
        <time>2022-08-15T13:37:05Z</time>
      </trkpt>
      <trkpt lat="44.82634" lon="1.17592">
        <ele>102.1</ele>
        <time>2022-08-15T13:37:07Z</time>
      </trkpt>
      <trkpt lat="44.82641" lon="1.176">
        <ele>103.5</ele>
        <time>2022-08-15T13:37:09Z</time>
      </trkpt>
      <trkpt lat="44.82646" lon="1.17609">
        <ele>103.1</ele>
        <time>2022-08-15T13:37:11Z</time>
      </trkpt>
      <trkpt lat="44.82654" lon="1.17617">
        <ele>103.7</ele>
        <time>2022-08-15T13:37:13Z</time>
      </trkpt>
      <trkpt lat="44.82659" lon="1.17628">
        <ele>102</ele>
        <time>2022-08-15T13:37:15Z</time>
      </trkpt>
      <trkpt lat="44.82664" lon="1.17638">
        <ele>99.6</ele>
        <time>2022-08-15T13:37:17Z</time>
      </trkpt>
      <trkpt lat="44.82669" lon="1.17651">
        <ele>96.5</ele>
        <time>2022-08-15T13:37:19Z</time>
      </trkpt>
      <trkpt lat="44.82675" lon="1.17662">
        <ele>95.4</ele>
        <time>2022-08-15T13:37:21Z</time>
      </trkpt>
      <trkpt lat="44.8268" lon="1.17674">
        <ele>94.8</ele>
        <time>2022-08-15T13:37:23Z</time>
      </trkpt>
      <trkpt lat="44.82684" lon="1.17686">
        <ele>95.7</ele>
        <time>2022-08-15T13:37:25Z</time>
      </trkpt>
      <trkpt lat="44.82687" lon="1.177">
        <ele>95.4</ele>
        <time>2022-08-15T13:37:27Z</time>
      </trkpt>
      <trkpt lat="44.82693" lon="1.17712">
        <ele>96.8</ele>
        <time>2022-08-15T13:37:29Z</time>
      </trkpt>
      <trkpt lat="44.82696" lon="1.17724">
        <ele>96.5</ele>
        <time>2022-08-15T13:37:31Z</time>
      </trkpt>
      <trkpt lat="44.82701" lon="1.17735">
        <ele>96.9</ele>
        <time>2022-08-15T13:37:33Z</time>
      </trkpt>
      <trkpt lat="44.82705" lon="1.17747">
        <ele>96.9</ele>
        <time>2022-08-15T13:37:35Z</time>
      </trkpt>
      <trkpt lat="44.82708" lon="1.1776">
        <ele>95.7</ele>
        <time>2022-08-15T13:37:37Z</time>
      </trkpt>
      <trkpt lat="44.8271" lon="1.17774">
        <ele>94</ele>
        <time>2022-08-15T13:37:39Z</time>
      </trkpt>
      <trkpt lat="44.82712" lon="1.17787">
        <ele>92</ele>
        <time>2022-08-15T13:37:41Z</time>
      </trkpt>
      <trkpt lat="44.82714" lon="1.178">
        <ele>89.8</ele>
        <time>2022-08-15T13:37:43Z</time>
      </trkpt>
      <trkpt lat="44.82715" lon="1.17813">
        <ele>87.4</ele>
        <time>2022-08-15T13:37:45Z</time>
      </trkpt>
      <trkpt lat="44.82716" lon="1.17827">
        <ele>84.7</ele>
        <time>2022-08-15T13:37:47Z</time>
      </trkpt>
      <trkpt lat="44.82715" lon="1.17841">
        <ele>82.8</ele>
        <time>2022-08-15T13:37:49Z</time>
      </trkpt>
      <trkpt lat="44.82715" lon="1.17853">
        <ele>82</ele>
        <time>2022-08-15T13:37:51Z</time>
      </trkpt>
      <trkpt lat="44.82714" lon="1.17865">
        <ele>81.1</ele>
        <time>2022-08-15T13:37:53Z</time>
      </trkpt>
      <trkpt lat="44.8271" lon="1.17878">
        <ele>79.8</ele>
        <time>2022-08-15T13:37:55Z</time>
      </trkpt>
      <trkpt lat="44.82706" lon="1.17891">
        <ele>78.3</ele>
        <time>2022-08-15T13:37:57Z</time>
      </trkpt>
      <trkpt lat="44.82702" lon="1.17905">
        <ele>77</ele>
        <time>2022-08-15T13:37:59Z</time>
      </trkpt>
      <trkpt lat="44.82697" lon="1.17917">
        <ele>75.8</ele>
        <time>2022-08-15T13:38:01Z</time>
      </trkpt>
      <trkpt lat="44.82693" lon="1.17932">
        <ele>76</ele>
        <time>2022-08-15T13:38:03Z</time>
      </trkpt>
      <trkpt lat="44.82689" lon="1.17946">
        <ele>76</ele>
        <time>2022-08-15T13:38:05Z</time>
      </trkpt>
      <trkpt lat="44.82684" lon="1.17959">
        <ele>75.7</ele>
        <time>2022-08-15T13:38:07Z</time>
      </trkpt>
      <trkpt lat="44.82679" lon="1.17972">
        <ele>75.2</ele>
        <time>2022-08-15T13:38:09Z</time>
      </trkpt>
      <trkpt lat="44.82674" lon="1.17986">
        <ele>74.5</ele>
        <time>2022-08-15T13:38:11Z</time>
      </trkpt>
      <trkpt lat="44.8267" lon="1.18">
        <ele>73.8</ele>
        <time>2022-08-15T13:38:13Z</time>
      </trkpt>
      <trkpt lat="44.82664" lon="1.18014">
        <ele>75.1</ele>
        <time>2022-08-15T13:38:15Z</time>
      </trkpt>
      <trkpt lat="44.82659" lon="1.18028">
        <ele>76.8</ele>
        <time>2022-08-15T13:38:17Z</time>
      </trkpt>
      <trkpt lat="44.82655" lon="1.18041">
        <ele>78.4</ele>
        <time>2022-08-15T13:38:19Z</time>
      </trkpt>
      <trkpt lat="44.82652" lon="1.18054">
        <ele>79.9</ele>
        <time>2022-08-15T13:38:21Z</time>
      </trkpt>
      <trkpt lat="44.82647" lon="1.18065">
        <ele>80.9</ele>
        <time>2022-08-15T13:38:23Z</time>
      </trkpt>
      <trkpt lat="44.82644" lon="1.18077">
        <ele>82.1</ele>
        <time>2022-08-15T13:38:25Z</time>
      </trkpt>
      <trkpt lat="44.8264" lon="1.18088">
        <ele>83.6</ele>
        <time>2022-08-15T13:38:27Z</time>
      </trkpt>
      <trkpt lat="44.82637" lon="1.18099">
        <ele>85.4</ele>
        <time>2022-08-15T13:38:29Z</time>
      </trkpt>
      <trkpt lat="44.82634" lon="1.18109">
        <ele>86.8</ele>
        <time>2022-08-15T13:38:31Z</time>
      </trkpt>
      <trkpt lat="44.8263" lon="1.18119">
        <ele>87.7</ele>
        <time>2022-08-15T13:38:33Z</time>
      </trkpt>
      <trkpt lat="44.82626" lon="1.1813">
        <ele>88.3</ele>
        <time>2022-08-15T13:38:35Z</time>
      </trkpt>
      <trkpt lat="44.82622" lon="1.18141">
        <ele>88.9</ele>
        <time>2022-08-15T13:38:37Z</time>
      </trkpt>
      <trkpt lat="44.82618" lon="1.18152">
        <ele>88.9</ele>
        <time>2022-08-15T13:38:39Z</time>
      </trkpt>
      <trkpt lat="44.82613" lon="1.18164">
        <ele>88.6</ele>
        <time>2022-08-15T13:38:41Z</time>
      </trkpt>
      <trkpt lat="44.82609" lon="1.18175">
        <ele>87.9</ele>
        <time>2022-08-15T13:38:43Z</time>
      </trkpt>
      <trkpt lat="44.82604" lon="1.18187">
        <ele>86.9</ele>
        <time>2022-08-15T13:38:45Z</time>
      </trkpt>
      <trkpt lat="44.826" lon="1.18198">
        <ele>85.5</ele>
        <time>2022-08-15T13:38:47Z</time>
      </trkpt>
      <trkpt lat="44.82595" lon="1.18209">
        <ele>83.7</ele>
        <time>2022-08-15T13:38:49Z</time>
      </trkpt>
      <trkpt lat="44.82591" lon="1.1822">
        <ele>81.6</ele>
        <time>2022-08-15T13:38:51Z</time>
      </trkpt>
      <trkpt lat="44.82587" lon="1.18231">
        <ele>79.2</ele>
        <time>2022-08-15T13:38:53Z</time>
      </trkpt>
      <trkpt lat="44.82582" lon="1.18242">
        <ele>76.7</ele>
        <time>2022-08-15T13:38:55Z</time>
      </trkpt>
      <trkpt lat="44.82578" lon="1.18253">
        <ele>76.8</ele>
        <time>2022-08-15T13:38:57Z</time>
      </trkpt>
      <trkpt lat="44.82574" lon="1.18264">
        <ele>78.1</ele>
        <time>2022-08-15T13:38:59Z</time>
      </trkpt>
      <trkpt lat="44.8257" lon="1.18272">
        <ele>78.9</ele>
        <time>2022-08-15T13:39:01Z</time>
      </trkpt>
      <trkpt lat="44.82569" lon="1.18273">
        <ele>78.9</ele>
        <time>2022-08-15T13:39:03Z</time>
      </trkpt>
      <trkpt lat="44.82568" lon="1.18275">
        <ele>79</ele>
        <time>2022-08-15T13:39:05Z</time>
      </trkpt>
      <trkpt lat="44.82568" lon="1.18275">
        <ele>79</ele>
        <time>2022-08-15T13:39:07Z</time>
      </trkpt>
      <trkpt lat="44.82566" lon="1.18281">
        <ele>79.5</ele>
        <time>2022-08-15T13:39:09Z</time>
      </trkpt>
      <trkpt lat="44.82563" lon="1.18287">
        <ele>79.9</ele>
        <time>2022-08-15T13:39:11Z</time>
      </trkpt>
      <trkpt lat="44.8256" lon="1.18296">
        <ele>80.6</ele>
        <time>2022-08-15T13:39:13Z</time>
      </trkpt>
      <trkpt lat="44.82557" lon="1.18304">
        <ele>81</ele>
        <time>2022-08-15T13:39:15Z</time>
      </trkpt>
      <trkpt lat="44.82554" lon="1.18313">
        <ele>81.3</ele>
        <time>2022-08-15T13:39:17Z</time>
      </trkpt>
      <trkpt lat="44.82551" lon="1.18321">
        <ele>81.7</ele>
        <time>2022-08-15T13:39:19Z</time>
      </trkpt>
      <trkpt lat="44.82547" lon="1.1833">
        <ele>81.8</ele>
        <time>2022-08-15T13:39:21Z</time>
      </trkpt>
      <trkpt lat="44.82545" lon="1.18337">
        <ele>82</ele>
        <time>2022-08-15T13:39:23Z</time>
      </trkpt>
      <trkpt lat="44.82542" lon="1.18344">
        <ele>82.2</ele>
        <time>2022-08-15T13:39:25Z</time>
      </trkpt>
      <trkpt lat="44.82538" lon="1.18353">
        <ele>82.6</ele>
        <time>2022-08-15T13:39:27Z</time>
      </trkpt>
      <trkpt lat="44.82535" lon="1.18362">
        <ele>82.6</ele>
        <time>2022-08-15T13:39:29Z</time>
      </trkpt>
      <trkpt lat="44.82531" lon="1.1837">
        <ele>82.7</ele>
        <time>2022-08-15T13:39:31Z</time>
      </trkpt>
      <trkpt lat="44.82528" lon="1.1838">
        <ele>82.5</ele>
        <time>2022-08-15T13:39:33Z</time>
      </trkpt>
      <trkpt lat="44.82524" lon="1.18388">
        <ele>81.7</ele>
        <time>2022-08-15T13:39:35Z</time>
      </trkpt>
      <trkpt lat="44.8252" lon="1.18398">
        <ele>81.2</ele>
        <time>2022-08-15T13:39:37Z</time>
      </trkpt>
      <trkpt lat="44.82516" lon="1.18408">
        <ele>80.4</ele>
        <time>2022-08-15T13:39:39Z</time>
      </trkpt>
      <trkpt lat="44.82513" lon="1.18416">
        <ele>79.8</ele>
        <time>2022-08-15T13:39:41Z</time>
      </trkpt>
      <trkpt lat="44.82509" lon="1.18425">
        <ele>78.5</ele>
        <time>2022-08-15T13:39:43Z</time>
      </trkpt>
      <trkpt lat="44.82504" lon="1.18435">
        <ele>76.9</ele>
        <time>2022-08-15T13:39:45Z</time>
      </trkpt>
      <trkpt lat="44.82499" lon="1.18445">
        <ele>75.3</ele>
        <time>2022-08-15T13:39:47Z</time>
      </trkpt>
      <trkpt lat="44.82494" lon="1.18454">
        <ele>75.8</ele>
        <time>2022-08-15T13:39:49Z</time>
      </trkpt>
      <trkpt lat="44.82489" lon="1.18465">
        <ele>76.2</ele>
        <time>2022-08-15T13:39:51Z</time>
      </trkpt>
      <trkpt lat="44.82484" lon="1.18474">
        <ele>76.6</ele>
        <time>2022-08-15T13:39:53Z</time>
      </trkpt>
      <trkpt lat="44.8248" lon="1.18483">
        <ele>76.8</ele>
        <time>2022-08-15T13:39:55Z</time>
      </trkpt>
      <trkpt lat="44.82475" lon="1.18494">
        <ele>76.9</ele>
        <time>2022-08-15T13:39:57Z</time>
      </trkpt>
      <trkpt lat="44.8247" lon="1.18504">
        <ele>76.9</ele>
        <time>2022-08-15T13:39:59Z</time>
      </trkpt>
      <trkpt lat="44.82465" lon="1.18513">
        <ele>76.7</ele>
        <time>2022-08-15T13:40:01Z</time>
      </trkpt>
      <trkpt lat="44.8246" lon="1.18524">
        <ele>76.4</ele>
        <time>2022-08-15T13:40:03Z</time>
      </trkpt>
      <trkpt lat="44.82455" lon="1.18535">
        <ele>75.9</ele>
        <time>2022-08-15T13:40:05Z</time>
      </trkpt>
      <trkpt lat="44.8245" lon="1.18545">
        <ele>75.2</ele>
        <time>2022-08-15T13:40:07Z</time>
      </trkpt>
      <trkpt lat="44.82444" lon="1.18555">
        <ele>74.4</ele>
        <time>2022-08-15T13:40:09Z</time>
      </trkpt>
      <trkpt lat="44.82438" lon="1.18565">
        <ele>73.3</ele>
        <time>2022-08-15T13:40:11Z</time>
      </trkpt>
      <trkpt lat="44.82432" lon="1.18574">
        <ele>72.1</ele>
        <time>2022-08-15T13:40:13Z</time>
      </trkpt>
      <trkpt lat="44.82426" lon="1.18584">
        <ele>70.9</ele>
        <time>2022-08-15T13:40:15Z</time>
      </trkpt>
      <trkpt lat="44.82419" lon="1.18594">
        <ele>69.9</ele>
        <time>2022-08-15T13:40:17Z</time>
      </trkpt>
      <trkpt lat="44.82412" lon="1.18603">
        <ele>69.6</ele>
        <time>2022-08-15T13:40:19Z</time>
      </trkpt>
      <trkpt lat="44.82405" lon="1.18612">
        <ele>69.7</ele>
        <time>2022-08-15T13:40:21Z</time>
      </trkpt>
      <trkpt lat="44.82398" lon="1.18622">
        <ele>69.7</ele>
        <time>2022-08-15T13:40:23Z</time>
      </trkpt>
      <trkpt lat="44.82391" lon="1.1863">
        <ele>69.7</ele>
        <time>2022-08-15T13:40:25Z</time>
      </trkpt>
      <trkpt lat="44.82383" lon="1.18637">
        <ele>69.6</ele>
        <time>2022-08-15T13:40:27Z</time>
      </trkpt>
      <trkpt lat="44.82376" lon="1.18646">
        <ele>69.5</ele>
        <time>2022-08-15T13:40:29Z</time>
      </trkpt>
      <trkpt lat="44.82369" lon="1.18655">
        <ele>69.4</ele>
        <time>2022-08-15T13:40:31Z</time>
      </trkpt>
      <trkpt lat="44.82362" lon="1.18663">
        <ele>69.3</ele>
        <time>2022-08-15T13:40:33Z</time>
      </trkpt>
      <trkpt lat="44.82355" lon="1.18671">
        <ele>69.2</ele>
        <time>2022-08-15T13:40:35Z</time>
      </trkpt>
      <trkpt lat="44.82348" lon="1.18679">
        <ele>69.1</ele>
        <time>2022-08-15T13:40:37Z</time>
      </trkpt>
      <trkpt lat="44.82341" lon="1.18687">
        <ele>68.9</ele>
        <time>2022-08-15T13:40:39Z</time>
      </trkpt>
      <trkpt lat="44.82333" lon="1.18696">
        <ele>68.7</ele>
        <time>2022-08-15T13:40:41Z</time>
      </trkpt>
      <trkpt lat="44.82326" lon="1.18705">
        <ele>69</ele>
        <time>2022-08-15T13:40:43Z</time>
      </trkpt>
      <trkpt lat="44.82318" lon="1.18713">
        <ele>69.4</ele>
        <time>2022-08-15T13:40:45Z</time>
      </trkpt>
      <trkpt lat="44.8231" lon="1.18722">
        <ele>69.7</ele>
        <time>2022-08-15T13:40:47Z</time>
      </trkpt>
      <trkpt lat="44.82302" lon="1.1873">
        <ele>70</ele>
        <time>2022-08-15T13:40:49Z</time>
      </trkpt>
      <trkpt lat="44.82294" lon="1.18738">
        <ele>70.2</ele>
        <time>2022-08-15T13:40:51Z</time>
      </trkpt>
      <trkpt lat="44.82286" lon="1.18746">
        <ele>70.5</ele>
        <time>2022-08-15T13:40:53Z</time>
      </trkpt>
      <trkpt lat="44.82278" lon="1.18753">
        <ele>70.7</ele>
        <time>2022-08-15T13:40:55Z</time>
      </trkpt>
      <trkpt lat="44.8227" lon="1.1876">
        <ele>71</ele>
        <time>2022-08-15T13:40:57Z</time>
      </trkpt>
      <trkpt lat="44.82262" lon="1.18767">
        <ele>71.3</ele>
        <time>2022-08-15T13:40:59Z</time>
      </trkpt>
      <trkpt lat="44.82254" lon="1.18775">
        <ele>71.6</ele>
        <time>2022-08-15T13:41:01Z</time>
      </trkpt>
      <trkpt lat="44.82246" lon="1.18781">
        <ele>71.7</ele>
        <time>2022-08-15T13:41:03Z</time>
      </trkpt>
      <trkpt lat="44.82238" lon="1.18789">
        <ele>71.8</ele>
        <time>2022-08-15T13:41:05Z</time>
      </trkpt>
      <trkpt lat="44.8223" lon="1.18795">
        <ele>71.9</ele>
        <time>2022-08-15T13:41:07Z</time>
      </trkpt>
      <trkpt lat="44.82222" lon="1.18803">
        <ele>71.9</ele>
        <time>2022-08-15T13:41:09Z</time>
      </trkpt>
      <trkpt lat="44.82214" lon="1.1881">
        <ele>72</ele>
        <time>2022-08-15T13:41:11Z</time>
      </trkpt>
      <trkpt lat="44.82206" lon="1.18817">
        <ele>72.1</ele>
        <time>2022-08-15T13:41:13Z</time>
      </trkpt>
      <trkpt lat="44.82198" lon="1.18823">
        <ele>72.1</ele>
        <time>2022-08-15T13:41:15Z</time>
      </trkpt>
      <trkpt lat="44.8219" lon="1.1883">
        <ele>72.2</ele>
        <time>2022-08-15T13:41:17Z</time>
      </trkpt>
      <trkpt lat="44.82182" lon="1.18838">
        <ele>72.3</ele>
        <time>2022-08-15T13:41:19Z</time>
      </trkpt>
      <trkpt lat="44.82174" lon="1.18845">
        <ele>72.4</ele>
        <time>2022-08-15T13:41:21Z</time>
      </trkpt>
      <trkpt lat="44.82166" lon="1.18852">
        <ele>72.4</ele>
        <time>2022-08-15T13:41:23Z</time>
      </trkpt>
      <trkpt lat="44.82157" lon="1.1886">
        <ele>72.4</ele>
        <time>2022-08-15T13:41:25Z</time>
      </trkpt>
      <trkpt lat="44.82149" lon="1.18868">
        <ele>72.4</ele>
        <time>2022-08-15T13:41:27Z</time>
      </trkpt>
      <trkpt lat="44.8214" lon="1.18875">
        <ele>72.4</ele>
        <time>2022-08-15T13:41:29Z</time>
      </trkpt>
      <trkpt lat="44.82132" lon="1.18882">
        <ele>72.3</ele>
        <time>2022-08-15T13:41:31Z</time>
      </trkpt>
      <trkpt lat="44.82125" lon="1.18889">
        <ele>72.2</ele>
        <time>2022-08-15T13:41:33Z</time>
      </trkpt>
      <trkpt lat="44.82116" lon="1.18897">
        <ele>72</ele>
        <time>2022-08-15T13:41:35Z</time>
      </trkpt>
      <trkpt lat="44.82108" lon="1.18904">
        <ele>71.8</ele>
        <time>2022-08-15T13:41:37Z</time>
      </trkpt>
      <trkpt lat="44.821" lon="1.18912">
        <ele>71.6</ele>
        <time>2022-08-15T13:41:39Z</time>
      </trkpt>
      <trkpt lat="44.82092" lon="1.18919">
        <ele>71.4</ele>
        <time>2022-08-15T13:41:41Z</time>
      </trkpt>
      <trkpt lat="44.82084" lon="1.18926">
        <ele>71.4</ele>
        <time>2022-08-15T13:41:43Z</time>
      </trkpt>
      <trkpt lat="44.82075" lon="1.18933">
        <ele>71.4</ele>
        <time>2022-08-15T13:41:45Z</time>
      </trkpt>
      <trkpt lat="44.82067" lon="1.1894">
        <ele>71.5</ele>
        <time>2022-08-15T13:41:47Z</time>
      </trkpt>
      <trkpt lat="44.8206" lon="1.18947">
        <ele>71.5</ele>
        <time>2022-08-15T13:41:49Z</time>
      </trkpt>
      <trkpt lat="44.82051" lon="1.18955">
        <ele>71.6</ele>
        <time>2022-08-15T13:41:51Z</time>
      </trkpt>
      <trkpt lat="44.82043" lon="1.18962">
        <ele>71.7</ele>
        <time>2022-08-15T13:41:53Z</time>
      </trkpt>
      <trkpt lat="44.82035" lon="1.1897">
        <ele>71.7</ele>
        <time>2022-08-15T13:41:55Z</time>
      </trkpt>
      <trkpt lat="44.82027" lon="1.18977">
        <ele>71.8</ele>
        <time>2022-08-15T13:41:57Z</time>
      </trkpt>
      <trkpt lat="44.8202" lon="1.18984">
        <ele>71.9</ele>
        <time>2022-08-15T13:41:59Z</time>
      </trkpt>
      <trkpt lat="44.82012" lon="1.18991">
        <ele>72</ele>
        <time>2022-08-15T13:42:01Z</time>
      </trkpt>
      <trkpt lat="44.82004" lon="1.18997">
        <ele>72</ele>
        <time>2022-08-15T13:42:03Z</time>
      </trkpt>
      <trkpt lat="44.81996" lon="1.19005">
        <ele>72.2</ele>
        <time>2022-08-15T13:42:05Z</time>
      </trkpt>
      <trkpt lat="44.81988" lon="1.19011">
        <ele>72.4</ele>
        <time>2022-08-15T13:42:07Z</time>
      </trkpt>
      <trkpt lat="44.8198" lon="1.19018">
        <ele>72.6</ele>
        <time>2022-08-15T13:42:09Z</time>
      </trkpt>
      <trkpt lat="44.81972" lon="1.19025">
        <ele>72.9</ele>
        <time>2022-08-15T13:42:11Z</time>
      </trkpt>
      <trkpt lat="44.81964" lon="1.19033">
        <ele>73.1</ele>
        <time>2022-08-15T13:42:13Z</time>
      </trkpt>
      <trkpt lat="44.81957" lon="1.19039">
        <ele>73.4</ele>
        <time>2022-08-15T13:42:15Z</time>
      </trkpt>
      <trkpt lat="44.81949" lon="1.19046">
        <ele>73.6</ele>
        <time>2022-08-15T13:42:17Z</time>
      </trkpt>
      <trkpt lat="44.81942" lon="1.19053">
        <ele>73.8</ele>
        <time>2022-08-15T13:42:19Z</time>
      </trkpt>
      <trkpt lat="44.81934" lon="1.1906">
        <ele>74.1</ele>
        <time>2022-08-15T13:42:21Z</time>
      </trkpt>
      <trkpt lat="44.81926" lon="1.19067">
        <ele>74.3</ele>
        <time>2022-08-15T13:42:23Z</time>
      </trkpt>
      <trkpt lat="44.81919" lon="1.19075">
        <ele>74.6</ele>
        <time>2022-08-15T13:42:25Z</time>
      </trkpt>
      <trkpt lat="44.81912" lon="1.1908">
        <ele>74.7</ele>
        <time>2022-08-15T13:42:27Z</time>
      </trkpt>
      <trkpt lat="44.81904" lon="1.19087">
        <ele>74.9</ele>
        <time>2022-08-15T13:42:29Z</time>
      </trkpt>
      <trkpt lat="44.81897" lon="1.19094">
        <ele>75</ele>
        <time>2022-08-15T13:42:31Z</time>
      </trkpt>
      <trkpt lat="44.81889" lon="1.19101">
        <ele>75.1</ele>
        <time>2022-08-15T13:42:33Z</time>
      </trkpt>
      <trkpt lat="44.81882" lon="1.19108">
        <ele>75.2</ele>
        <time>2022-08-15T13:42:35Z</time>
      </trkpt>
      <trkpt lat="44.81875" lon="1.19114">
        <ele>75.3</ele>
        <time>2022-08-15T13:42:37Z</time>
      </trkpt>
      <trkpt lat="44.81867" lon="1.19121">
        <ele>75.3</ele>
        <time>2022-08-15T13:42:39Z</time>
      </trkpt>
      <trkpt lat="44.81859" lon="1.19128">
        <ele>75.4</ele>
        <time>2022-08-15T13:42:41Z</time>
      </trkpt>
      <trkpt lat="44.81852" lon="1.19135">
        <ele>75.4</ele>
        <time>2022-08-15T13:42:43Z</time>
      </trkpt>
      <trkpt lat="44.81844" lon="1.19142">
        <ele>75.4</ele>
        <time>2022-08-15T13:42:45Z</time>
      </trkpt>
      <trkpt lat="44.81837" lon="1.19148">
        <ele>75.5</ele>
        <time>2022-08-15T13:42:47Z</time>
      </trkpt>
      <trkpt lat="44.81829" lon="1.19156">
        <ele>75.4</ele>
        <time>2022-08-15T13:42:49Z</time>
      </trkpt>
      <trkpt lat="44.81821" lon="1.19162">
        <ele>75.3</ele>
        <time>2022-08-15T13:42:51Z</time>
      </trkpt>
      <trkpt lat="44.81814" lon="1.19169">
        <ele>75.2</ele>
        <time>2022-08-15T13:42:53Z</time>
      </trkpt>
      <trkpt lat="44.81806" lon="1.19177">
        <ele>75.2</ele>
        <time>2022-08-15T13:42:55Z</time>
      </trkpt>
      <trkpt lat="44.81799" lon="1.19184">
        <ele>75.1</ele>
        <time>2022-08-15T13:42:57Z</time>
      </trkpt>
      <trkpt lat="44.81792" lon="1.1919">
        <ele>75.1</ele>
        <time>2022-08-15T13:42:59Z</time>
      </trkpt>
      <trkpt lat="44.81785" lon="1.19196">
        <ele>75.2</ele>
        <time>2022-08-15T13:43:01Z</time>
      </trkpt>
      <trkpt lat="44.81777" lon="1.19203">
        <ele>75.2</ele>
        <time>2022-08-15T13:43:03Z</time>
      </trkpt>
      <trkpt lat="44.81771" lon="1.19209">
        <ele>75.3</ele>
        <time>2022-08-15T13:43:05Z</time>
      </trkpt>
      <trkpt lat="44.81762" lon="1.19216">
        <ele>75.4</ele>
        <time>2022-08-15T13:43:07Z</time>
      </trkpt>
      <trkpt lat="44.81755" lon="1.19224">
        <ele>75.6</ele>
        <time>2022-08-15T13:43:09Z</time>
      </trkpt>
      <trkpt lat="44.81747" lon="1.1923">
        <ele>75.6</ele>
        <time>2022-08-15T13:43:11Z</time>
      </trkpt>
      <trkpt lat="44.81738" lon="1.19237">
        <ele>75.6</ele>
        <time>2022-08-15T13:43:13Z</time>
      </trkpt>
      <trkpt lat="44.81731" lon="1.19245">
        <ele>75.6</ele>
        <time>2022-08-15T13:43:15Z</time>
      </trkpt>
      <trkpt lat="44.81722" lon="1.19251">
        <ele>75.4</ele>
        <time>2022-08-15T13:43:17Z</time>
      </trkpt>
      <trkpt lat="44.81715" lon="1.19259">
        <ele>75.5</ele>
        <time>2022-08-15T13:43:19Z</time>
      </trkpt>
      <trkpt lat="44.81707" lon="1.19267">
        <ele>75.6</ele>
        <time>2022-08-15T13:43:21Z</time>
      </trkpt>
      <trkpt lat="44.81698" lon="1.19275">
        <ele>75.7</ele>
        <time>2022-08-15T13:43:23Z</time>
      </trkpt>
      <trkpt lat="44.8169" lon="1.19281">
        <ele>75.6</ele>
        <time>2022-08-15T13:43:25Z</time>
      </trkpt>
      <trkpt lat="44.81681" lon="1.19289">
        <ele>75.7</ele>
        <time>2022-08-15T13:43:27Z</time>
      </trkpt>
      <trkpt lat="44.81673" lon="1.19296">
        <ele>75.7</ele>
        <time>2022-08-15T13:43:29Z</time>
      </trkpt>
      <trkpt lat="44.81664" lon="1.19304">
        <ele>75.8</ele>
        <time>2022-08-15T13:43:31Z</time>
      </trkpt>
      <trkpt lat="44.81656" lon="1.19312">
        <ele>76.1</ele>
        <time>2022-08-15T13:43:33Z</time>
      </trkpt>
      <trkpt lat="44.81647" lon="1.19318">
        <ele>76.2</ele>
        <time>2022-08-15T13:43:35Z</time>
      </trkpt>
      <trkpt lat="44.81639" lon="1.19325">
        <ele>76.2</ele>
        <time>2022-08-15T13:43:37Z</time>
      </trkpt>
      <trkpt lat="44.8163" lon="1.19332">
        <ele>76.1</ele>
        <time>2022-08-15T13:43:39Z</time>
      </trkpt>
      <trkpt lat="44.81622" lon="1.19338">
        <ele>76.4</ele>
        <time>2022-08-15T13:43:41Z</time>
      </trkpt>
      <trkpt lat="44.81613" lon="1.19345">
        <ele>76.6</ele>
        <time>2022-08-15T13:43:43Z</time>
      </trkpt>
      <trkpt lat="44.81604" lon="1.19351">
        <ele>76.8</ele>
        <time>2022-08-15T13:43:45Z</time>
      </trkpt>
      <trkpt lat="44.81594" lon="1.19359">
        <ele>77</ele>
        <time>2022-08-15T13:43:47Z</time>
      </trkpt>
      <trkpt lat="44.81585" lon="1.19365">
        <ele>77.2</ele>
        <time>2022-08-15T13:43:49Z</time>
      </trkpt>
      <trkpt lat="44.81575" lon="1.19373">
        <ele>77.4</ele>
        <time>2022-08-15T13:43:51Z</time>
      </trkpt>
      <trkpt lat="44.81566" lon="1.1938">
        <ele>77.6</ele>
        <time>2022-08-15T13:43:53Z</time>
      </trkpt>
      <trkpt lat="44.81556" lon="1.19386">
        <ele>77.6</ele>
        <time>2022-08-15T13:43:55Z</time>
      </trkpt>
      <trkpt lat="44.81548" lon="1.19393">
        <ele>77.6</ele>
        <time>2022-08-15T13:43:57Z</time>
      </trkpt>
      <trkpt lat="44.81539" lon="1.19399">
        <ele>77.6</ele>
        <time>2022-08-15T13:43:59Z</time>
      </trkpt>
      <trkpt lat="44.8153" lon="1.19406">
        <ele>77.4</ele>
        <time>2022-08-15T13:44:01Z</time>
      </trkpt>
      <trkpt lat="44.81521" lon="1.19412">
        <ele>77.2</ele>
        <time>2022-08-15T13:44:03Z</time>
      </trkpt>
      <trkpt lat="44.81512" lon="1.19419">
        <ele>77.1</ele>
        <time>2022-08-15T13:44:05Z</time>
      </trkpt>
      <trkpt lat="44.81503" lon="1.19426">
        <ele>77.1</ele>
        <time>2022-08-15T13:44:07Z</time>
      </trkpt>
      <trkpt lat="44.81493" lon="1.19433">
        <ele>77.3</ele>
        <time>2022-08-15T13:44:09Z</time>
      </trkpt>
      <trkpt lat="44.81484" lon="1.1944">
        <ele>77.5</ele>
        <time>2022-08-15T13:44:11Z</time>
      </trkpt>
      <trkpt lat="44.81474" lon="1.19448">
        <ele>77.6</ele>
        <time>2022-08-15T13:44:13Z</time>
      </trkpt>
      <trkpt lat="44.81463" lon="1.19456">
        <ele>77.6</ele>
        <time>2022-08-15T13:44:15Z</time>
      </trkpt>
      <trkpt lat="44.81454" lon="1.19464">
        <ele>77.6</ele>
        <time>2022-08-15T13:44:17Z</time>
      </trkpt>
      <trkpt lat="44.81444" lon="1.19471">
        <ele>77.4</ele>
        <time>2022-08-15T13:44:19Z</time>
      </trkpt>
      <trkpt lat="44.81434" lon="1.19478">
        <ele>77.2</ele>
        <time>2022-08-15T13:44:21Z</time>
      </trkpt>
      <trkpt lat="44.81425" lon="1.19486">
        <ele>76.9</ele>
        <time>2022-08-15T13:44:23Z</time>
      </trkpt>
      <trkpt lat="44.81414" lon="1.19495">
        <ele>76.7</ele>
        <time>2022-08-15T13:44:25Z</time>
      </trkpt>
      <trkpt lat="44.81404" lon="1.19503">
        <ele>76.7</ele>
        <time>2022-08-15T13:44:27Z</time>
      </trkpt>
      <trkpt lat="44.81392" lon="1.19511">
        <ele>76.7</ele>
        <time>2022-08-15T13:44:29Z</time>
      </trkpt>
      <trkpt lat="44.81381" lon="1.19519">
        <ele>76.7</ele>
        <time>2022-08-15T13:44:31Z</time>
      </trkpt>
      <trkpt lat="44.8137" lon="1.19529">
        <ele>76.7</ele>
        <time>2022-08-15T13:44:33Z</time>
      </trkpt>
      <trkpt lat="44.81359" lon="1.19538">
        <ele>76.6</ele>
        <time>2022-08-15T13:44:35Z</time>
      </trkpt>
      <trkpt lat="44.81349" lon="1.19547">
        <ele>76.4</ele>
        <time>2022-08-15T13:44:37Z</time>
      </trkpt>
      <trkpt lat="44.81338" lon="1.19555">
        <ele>76.2</ele>
        <time>2022-08-15T13:44:39Z</time>
      </trkpt>
      <trkpt lat="44.81327" lon="1.19563">
        <ele>76.1</ele>
        <time>2022-08-15T13:44:41Z</time>
      </trkpt>
      <trkpt lat="44.81316" lon="1.19572">
        <ele>76.2</ele>
        <time>2022-08-15T13:44:43Z</time>
      </trkpt>
      <trkpt lat="44.81306" lon="1.1958">
        <ele>76.2</ele>
        <time>2022-08-15T13:44:45Z</time>
      </trkpt>
      <trkpt lat="44.81295" lon="1.19588">
        <ele>76.1</ele>
        <time>2022-08-15T13:44:47Z</time>
      </trkpt>
      <trkpt lat="44.81285" lon="1.19596">
        <ele>75.9</ele>
        <time>2022-08-15T13:44:49Z</time>
      </trkpt>
      <trkpt lat="44.81274" lon="1.19605">
        <ele>75.7</ele>
        <time>2022-08-15T13:44:51Z</time>
      </trkpt>
      <trkpt lat="44.81265" lon="1.19612">
        <ele>75.4</ele>
        <time>2022-08-15T13:44:53Z</time>
      </trkpt>
      <trkpt lat="44.81254" lon="1.1962">
        <ele>75.1</ele>
        <time>2022-08-15T13:44:55Z</time>
      </trkpt>
      <trkpt lat="44.81243" lon="1.19628">
        <ele>74.8</ele>
        <time>2022-08-15T13:44:57Z</time>
      </trkpt>
      <trkpt lat="44.81232" lon="1.19637">
        <ele>74.4</ele>
        <time>2022-08-15T13:44:59Z</time>
      </trkpt>
      <trkpt lat="44.81222" lon="1.19645">
        <ele>74.2</ele>
        <time>2022-08-15T13:45:01Z</time>
      </trkpt>
      <trkpt lat="44.81211" lon="1.19653">
        <ele>73.9</ele>
        <time>2022-08-15T13:45:03Z</time>
      </trkpt>
      <trkpt lat="44.812" lon="1.19661">
        <ele>73.7</ele>
        <time>2022-08-15T13:45:05Z</time>
      </trkpt>
      <trkpt lat="44.81189" lon="1.19669">
        <ele>73.6</ele>
        <time>2022-08-15T13:45:07Z</time>
      </trkpt>
      <trkpt lat="44.81178" lon="1.19676">
        <ele>73.5</ele>
        <time>2022-08-15T13:45:09Z</time>
      </trkpt>
      <trkpt lat="44.81166" lon="1.19683">
        <ele>73.4</ele>
        <time>2022-08-15T13:45:11Z</time>
      </trkpt>
      <trkpt lat="44.81154" lon="1.19689">
        <ele>73.6</ele>
        <time>2022-08-15T13:45:13Z</time>
      </trkpt>
      <trkpt lat="44.81143" lon="1.19694">
        <ele>73.9</ele>
        <time>2022-08-15T13:45:15Z</time>
      </trkpt>
      <trkpt lat="44.81131" lon="1.19699">
        <ele>74.1</ele>
        <time>2022-08-15T13:45:17Z</time>
      </trkpt>
      <trkpt lat="44.8112" lon="1.19703">
        <ele>74.4</ele>
        <time>2022-08-15T13:45:19Z</time>
      </trkpt>
      <trkpt lat="44.81109" lon="1.19707">
        <ele>74.6</ele>
        <time>2022-08-15T13:45:21Z</time>
      </trkpt>
      <trkpt lat="44.81099" lon="1.1971">
        <ele>74.9</ele>
        <time>2022-08-15T13:45:23Z</time>
      </trkpt>
      <trkpt lat="44.81088" lon="1.19712">
        <ele>75.1</ele>
        <time>2022-08-15T13:45:25Z</time>
      </trkpt>
      <trkpt lat="44.81078" lon="1.19714">
        <ele>75.3</ele>
        <time>2022-08-15T13:45:27Z</time>
      </trkpt>
      <trkpt lat="44.81068" lon="1.19716">
        <ele>75.4</ele>
        <time>2022-08-15T13:45:29Z</time>
      </trkpt>
      <trkpt lat="44.81058" lon="1.19717">
        <ele>75.5</ele>
        <time>2022-08-15T13:45:31Z</time>
      </trkpt>
      <trkpt lat="44.81048" lon="1.19719">
        <ele>75.6</ele>
        <time>2022-08-15T13:45:33Z</time>
      </trkpt>
      <trkpt lat="44.81039" lon="1.1972">
        <ele>75.7</ele>
        <time>2022-08-15T13:45:35Z</time>
      </trkpt>
      <trkpt lat="44.81029" lon="1.19722">
        <ele>75.9</ele>
        <time>2022-08-15T13:45:37Z</time>
      </trkpt>
      <trkpt lat="44.81019" lon="1.19723">
        <ele>76</ele>
        <time>2022-08-15T13:45:39Z</time>
      </trkpt>
      <trkpt lat="44.81009" lon="1.19726">
        <ele>76.2</ele>
        <time>2022-08-15T13:45:41Z</time>
      </trkpt>
      <trkpt lat="44.81" lon="1.19728">
        <ele>76.4</ele>
        <time>2022-08-15T13:45:43Z</time>
      </trkpt>
      <trkpt lat="44.80991" lon="1.19732">
        <ele>76.4</ele>
        <time>2022-08-15T13:45:45Z</time>
      </trkpt>
      <trkpt lat="44.80982" lon="1.19735">
        <ele>76.4</ele>
        <time>2022-08-15T13:45:47Z</time>
      </trkpt>
      <trkpt lat="44.80974" lon="1.19741">
        <ele>76.5</ele>
        <time>2022-08-15T13:45:49Z</time>
      </trkpt>
      <trkpt lat="44.80965" lon="1.19748">
        <ele>76.6</ele>
        <time>2022-08-15T13:45:51Z</time>
      </trkpt>
      <trkpt lat="44.80957" lon="1.19755">
        <ele>76.6</ele>
        <time>2022-08-15T13:45:53Z</time>
      </trkpt>
      <trkpt lat="44.80949" lon="1.19764">
        <ele>76.7</ele>
        <time>2022-08-15T13:45:55Z</time>
      </trkpt>
      <trkpt lat="44.80943" lon="1.19774">
        <ele>76.8</ele>
        <time>2022-08-15T13:45:57Z</time>
      </trkpt>
      <trkpt lat="44.80936" lon="1.19785">
        <ele>76.9</ele>
        <time>2022-08-15T13:45:59Z</time>
      </trkpt>
      <trkpt lat="44.80929" lon="1.19796">
        <ele>77.1</ele>
        <time>2022-08-15T13:46:01Z</time>
      </trkpt>
      <trkpt lat="44.80924" lon="1.19808">
        <ele>77.4</ele>
        <time>2022-08-15T13:46:03Z</time>
      </trkpt>
      <trkpt lat="44.80919" lon="1.1982">
        <ele>77.6</ele>
        <time>2022-08-15T13:46:05Z</time>
      </trkpt>
      <trkpt lat="44.80914" lon="1.19833">
        <ele>77.9</ele>
        <time>2022-08-15T13:46:07Z</time>
      </trkpt>
      <trkpt lat="44.80909" lon="1.19846">
        <ele>77.3</ele>
        <time>2022-08-15T13:46:09Z</time>
      </trkpt>
      <trkpt lat="44.80905" lon="1.19859">
        <ele>76.8</ele>
        <time>2022-08-15T13:46:11Z</time>
      </trkpt>
      <trkpt lat="44.809" lon="1.19871">
        <ele>76.3</ele>
        <time>2022-08-15T13:46:13Z</time>
      </trkpt>
      <trkpt lat="44.80895" lon="1.19884">
        <ele>75.7</ele>
        <time>2022-08-15T13:46:15Z</time>
      </trkpt>
      <trkpt lat="44.80891" lon="1.19897">
        <ele>75.2</ele>
        <time>2022-08-15T13:46:17Z</time>
      </trkpt>
      <trkpt lat="44.80887" lon="1.1991">
        <ele>74.8</ele>
        <time>2022-08-15T13:46:19Z</time>
      </trkpt>
      <trkpt lat="44.80884" lon="1.19923">
        <ele>74.5</ele>
        <time>2022-08-15T13:46:21Z</time>
      </trkpt>
      <trkpt lat="44.80881" lon="1.19937">
        <ele>74.4</ele>
        <time>2022-08-15T13:46:23Z</time>
      </trkpt>
      <trkpt lat="44.80877" lon="1.19951">
        <ele>74.3</ele>
        <time>2022-08-15T13:46:25Z</time>
      </trkpt>
      <trkpt lat="44.80875" lon="1.19964">
        <ele>74.3</ele>
        <time>2022-08-15T13:46:27Z</time>
      </trkpt>
      <trkpt lat="44.80873" lon="1.19978">
        <ele>74.3</ele>
        <time>2022-08-15T13:46:29Z</time>
      </trkpt>
      <trkpt lat="44.80871" lon="1.19992">
        <ele>74.3</ele>
        <time>2022-08-15T13:46:31Z</time>
      </trkpt>
      <trkpt lat="44.8087" lon="1.20006">
        <ele>74.2</ele>
        <time>2022-08-15T13:46:33Z</time>
      </trkpt>
      <trkpt lat="44.80869" lon="1.20021">
        <ele>73.9</ele>
        <time>2022-08-15T13:46:35Z</time>
      </trkpt>
      <trkpt lat="44.80868" lon="1.20035">
        <ele>73.6</ele>
        <time>2022-08-15T13:46:37Z</time>
      </trkpt>
      <trkpt lat="44.80868" lon="1.2005">
        <ele>73.3</ele>
        <time>2022-08-15T13:46:39Z</time>
      </trkpt>
      <trkpt lat="44.80867" lon="1.20065">
        <ele>73</ele>
        <time>2022-08-15T13:46:41Z</time>
      </trkpt>
      <trkpt lat="44.80867" lon="1.20079">
        <ele>72.7</ele>
        <time>2022-08-15T13:46:43Z</time>
      </trkpt>
      <trkpt lat="44.80867" lon="1.20094">
        <ele>72.7</ele>
        <time>2022-08-15T13:46:45Z</time>
      </trkpt>
      <trkpt lat="44.80867" lon="1.20109">
        <ele>72.8</ele>
        <time>2022-08-15T13:46:47Z</time>
      </trkpt>
      <trkpt lat="44.80867" lon="1.20123">
        <ele>72.9</ele>
        <time>2022-08-15T13:46:49Z</time>
      </trkpt>
      <trkpt lat="44.80867" lon="1.20138">
        <ele>73</ele>
        <time>2022-08-15T13:46:51Z</time>
      </trkpt>
      <trkpt lat="44.80867" lon="1.20151">
        <ele>73.1</ele>
        <time>2022-08-15T13:46:53Z</time>
      </trkpt>
      <trkpt lat="44.80867" lon="1.20165">
        <ele>73.2</ele>
        <time>2022-08-15T13:46:55Z</time>
      </trkpt>
      <trkpt lat="44.80867" lon="1.20179">
        <ele>73.2</ele>
        <time>2022-08-15T13:46:57Z</time>
      </trkpt>
      <trkpt lat="44.80867" lon="1.20192">
        <ele>73.2</ele>
        <time>2022-08-15T13:46:59Z</time>
      </trkpt>
      <trkpt lat="44.80867" lon="1.20206">
        <ele>73.2</ele>
        <time>2022-08-15T13:47:01Z</time>
      </trkpt>
      <trkpt lat="44.80867" lon="1.2022">
        <ele>73.2</ele>
        <time>2022-08-15T13:47:03Z</time>
      </trkpt>
      <trkpt lat="44.80867" lon="1.20234">
        <ele>73.2</ele>
        <time>2022-08-15T13:47:05Z</time>
      </trkpt>
      <trkpt lat="44.80866" lon="1.20248">
        <ele>73.2</ele>
        <time>2022-08-15T13:47:07Z</time>
      </trkpt>
      <trkpt lat="44.80867" lon="1.20262">
        <ele>73.5</ele>
        <time>2022-08-15T13:47:09Z</time>
      </trkpt>
      <trkpt lat="44.80867" lon="1.20275">
        <ele>73.9</ele>
        <time>2022-08-15T13:47:11Z</time>
      </trkpt>
      <trkpt lat="44.80867" lon="1.20289">
        <ele>74.3</ele>
        <time>2022-08-15T13:47:13Z</time>
      </trkpt>
      <trkpt lat="44.80867" lon="1.20301">
        <ele>74.7</ele>
        <time>2022-08-15T13:47:15Z</time>
      </trkpt>
      <trkpt lat="44.80865" lon="1.20313">
        <ele>75</ele>
        <time>2022-08-15T13:47:17Z</time>
      </trkpt>
      <trkpt lat="44.80863" lon="1.20321">
        <ele>75.3</ele>
        <time>2022-08-15T13:47:19Z</time>
      </trkpt>
      <trkpt lat="44.80863" lon="1.2032">
        <ele>75.2</ele>
        <time>2022-08-15T13:47:21Z</time>
      </trkpt>
      <trkpt lat="44.80864" lon="1.2032">
        <ele>75.2</ele>
        <time>2022-08-15T13:47:23Z</time>
      </trkpt>
      <trkpt lat="44.80864" lon="1.2032">
        <ele>75.2</ele>
        <time>2022-08-15T13:47:25Z</time>
      </trkpt>
      <trkpt lat="44.80864" lon="1.20319">
        <ele>75.2</ele>
        <time>2022-08-15T13:47:27Z</time>
      </trkpt>
      <trkpt lat="44.80865" lon="1.20319">
        <ele>75.2</ele>
        <time>2022-08-15T13:47:29Z</time>
      </trkpt>
      <trkpt lat="44.80872" lon="1.203">
        <ele>74.7</ele>
        <time>2022-08-15T13:48:37Z</time>
      </trkpt>
      <trkpt lat="44.8087" lon="1.20286">
        <ele>74.3</ele>
        <time>2022-08-15T13:48:39Z</time>
      </trkpt>
      <trkpt lat="44.8087" lon="1.20272">
        <ele>73.9</ele>
        <time>2022-08-15T13:48:41Z</time>
      </trkpt>
      <trkpt lat="44.8087" lon="1.20259">
        <ele>73.6</ele>
        <time>2022-08-15T13:48:43Z</time>
      </trkpt>
      <trkpt lat="44.8087" lon="1.20246">
        <ele>73.3</ele>
        <time>2022-08-15T13:48:45Z</time>
      </trkpt>
      <trkpt lat="44.8087" lon="1.20232">
        <ele>73.3</ele>
        <time>2022-08-15T13:48:47Z</time>
      </trkpt>
      <trkpt lat="44.80869" lon="1.20218">
        <ele>73.3</ele>
        <time>2022-08-15T13:48:49Z</time>
      </trkpt>
      <trkpt lat="44.80869" lon="1.20204">
        <ele>73.3</ele>
        <time>2022-08-15T13:48:51Z</time>
      </trkpt>
      <trkpt lat="44.8087" lon="1.2019">
        <ele>73.3</ele>
        <time>2022-08-15T13:48:53Z</time>
      </trkpt>
      <trkpt lat="44.8087" lon="1.20177">
        <ele>73.3</ele>
        <time>2022-08-15T13:48:55Z</time>
      </trkpt>
      <trkpt lat="44.8087" lon="1.20164">
        <ele>73.3</ele>
        <time>2022-08-15T13:48:57Z</time>
      </trkpt>
      <trkpt lat="44.8087" lon="1.20151">
        <ele>73.2</ele>
        <time>2022-08-15T13:48:59Z</time>
      </trkpt>
      <trkpt lat="44.8087" lon="1.20137">
        <ele>73.1</ele>
        <time>2022-08-15T13:49:01Z</time>
      </trkpt>
      <trkpt lat="44.8087" lon="1.20124">
        <ele>73.1</ele>
        <time>2022-08-15T13:49:03Z</time>
      </trkpt>
      <trkpt lat="44.80871" lon="1.20111">
        <ele>73</ele>
        <time>2022-08-15T13:49:05Z</time>
      </trkpt>
      <trkpt lat="44.80871" lon="1.20097">
        <ele>72.9</ele>
        <time>2022-08-15T13:49:07Z</time>
      </trkpt>
      <trkpt lat="44.80871" lon="1.20084">
        <ele>72.8</ele>
        <time>2022-08-15T13:49:09Z</time>
      </trkpt>
      <trkpt lat="44.80871" lon="1.20071">
        <ele>73</ele>
        <time>2022-08-15T13:49:11Z</time>
      </trkpt>
      <trkpt lat="44.80871" lon="1.20059">
        <ele>73.3</ele>
        <time>2022-08-15T13:49:13Z</time>
      </trkpt>
      <trkpt lat="44.80871" lon="1.20046">
        <ele>73.5</ele>
        <time>2022-08-15T13:49:15Z</time>
      </trkpt>
      <trkpt lat="44.80871" lon="1.20032">
        <ele>73.8</ele>
        <time>2022-08-15T13:49:17Z</time>
      </trkpt>
      <trkpt lat="44.80871" lon="1.20018">
        <ele>74</ele>
        <time>2022-08-15T13:49:19Z</time>
      </trkpt>
      <trkpt lat="44.80872" lon="1.20004">
        <ele>74.3</ele>
        <time>2022-08-15T13:49:21Z</time>
      </trkpt>
      <trkpt lat="44.80874" lon="1.19991">
        <ele>74.4</ele>
        <time>2022-08-15T13:49:23Z</time>
      </trkpt>
      <trkpt lat="44.80875" lon="1.1998">
        <ele>74.4</ele>
        <time>2022-08-15T13:49:25Z</time>
      </trkpt>
      <trkpt lat="44.80871" lon="1.19971">
        <ele>74.2</ele>
        <time>2022-08-15T13:49:27Z</time>
      </trkpt>
      <trkpt lat="44.80868" lon="1.1997">
        <ele>74</ele>
        <time>2022-08-15T13:49:29Z</time>
      </trkpt>
      <trkpt lat="44.80865" lon="1.19969">
        <ele>73.9</ele>
        <time>2022-08-15T13:49:31Z</time>
      </trkpt>
      <trkpt lat="44.80862" lon="1.19968">
        <ele>73.8</ele>
        <time>2022-08-15T13:49:33Z</time>
      </trkpt>
      <trkpt lat="44.8086" lon="1.19966">
        <ele>73.7</ele>
        <time>2022-08-15T13:49:35Z</time>
      </trkpt>
      <trkpt lat="44.80858" lon="1.19967">
        <ele>73.6</ele>
        <time>2022-08-15T13:49:37Z</time>
      </trkpt>
      <trkpt lat="44.80855" lon="1.19966">
        <ele>73.5</ele>
        <time>2022-08-15T13:49:39Z</time>
      </trkpt>
      <trkpt lat="44.80853" lon="1.19966">
        <ele>73.4</ele>
        <time>2022-08-15T13:49:41Z</time>
      </trkpt>
      <trkpt lat="44.8085" lon="1.19966">
        <ele>73.3</ele>
        <time>2022-08-15T13:49:43Z</time>
      </trkpt>
      <trkpt lat="44.80848" lon="1.19968">
        <ele>73.2</ele>
        <time>2022-08-15T13:49:45Z</time>
      </trkpt>
      <trkpt lat="44.80867" lon="1.19971">
        <ele>74</ele>
        <time>2022-08-15T13:59:59Z</time>
      </trkpt>
      <trkpt lat="44.8087" lon="1.19971">
        <ele>74.1</ele>
        <time>2022-08-15T14:00:01Z</time>
      </trkpt>
      <trkpt lat="44.80872" lon="1.19974">
        <ele>74.2</ele>
        <time>2022-08-15T14:00:03Z</time>
      </trkpt>
      <trkpt lat="44.80871" lon="1.19981">
        <ele>74.2</ele>
        <time>2022-08-15T14:00:05Z</time>
      </trkpt>
      <trkpt lat="44.80871" lon="1.19987">
        <ele>74.3</ele>
        <time>2022-08-15T14:00:07Z</time>
      </trkpt>
      <trkpt lat="44.8087" lon="1.19995">
        <ele>74.3</ele>
        <time>2022-08-15T14:00:09Z</time>
      </trkpt>
      <trkpt lat="44.80869" lon="1.20004">
        <ele>74.2</ele>
        <time>2022-08-15T14:00:11Z</time>
      </trkpt>
      <trkpt lat="44.80868" lon="1.20012">
        <ele>74</ele>
        <time>2022-08-15T14:00:13Z</time>
      </trkpt>
      <trkpt lat="44.80868" lon="1.20021">
        <ele>73.8</ele>
        <time>2022-08-15T14:00:15Z</time>
      </trkpt>
      <trkpt lat="44.80867" lon="1.2003">
        <ele>73.6</ele>
        <time>2022-08-15T14:00:17Z</time>
      </trkpt>
      <trkpt lat="44.80867" lon="1.2004">
        <ele>73.4</ele>
        <time>2022-08-15T14:00:19Z</time>
      </trkpt>
      <trkpt lat="44.80866" lon="1.20051">
        <ele>73.2</ele>
        <time>2022-08-15T14:00:21Z</time>
      </trkpt>
      <trkpt lat="44.80866" lon="1.20061">
        <ele>73</ele>
        <time>2022-08-15T14:00:23Z</time>
      </trkpt>
      <trkpt lat="44.80866" lon="1.20072">
        <ele>72.8</ele>
        <time>2022-08-15T14:00:25Z</time>
      </trkpt>
      <trkpt lat="44.80866" lon="1.20083">
        <ele>72.6</ele>
        <time>2022-08-15T14:00:27Z</time>
      </trkpt>
      <trkpt lat="44.80866" lon="1.20094">
        <ele>72.6</ele>
        <time>2022-08-15T14:00:29Z</time>
      </trkpt>
      <trkpt lat="44.80866" lon="1.20106">
        <ele>72.7</ele>
        <time>2022-08-15T14:00:31Z</time>
      </trkpt>
      <trkpt lat="44.80866" lon="1.20117">
        <ele>72.8</ele>
        <time>2022-08-15T14:00:33Z</time>
      </trkpt>
      <trkpt lat="44.80866" lon="1.20128">
        <ele>72.9</ele>
        <time>2022-08-15T14:00:35Z</time>
      </trkpt>
      <trkpt lat="44.80866" lon="1.2014">
        <ele>73</ele>
        <time>2022-08-15T14:00:37Z</time>
      </trkpt>
      <trkpt lat="44.80866" lon="1.20152">
        <ele>73.1</ele>
        <time>2022-08-15T14:00:39Z</time>
      </trkpt>
      <trkpt lat="44.80866" lon="1.20163">
        <ele>73.2</ele>
        <time>2022-08-15T14:00:41Z</time>
      </trkpt>
      <trkpt lat="44.80866" lon="1.20175">
        <ele>73.2</ele>
        <time>2022-08-15T14:00:43Z</time>
      </trkpt>
      <trkpt lat="44.80866" lon="1.20187">
        <ele>73.2</ele>
        <time>2022-08-15T14:00:45Z</time>
      </trkpt>
      <trkpt lat="44.80866" lon="1.202">
        <ele>73.2</ele>
        <time>2022-08-15T14:00:47Z</time>
      </trkpt>
      <trkpt lat="44.80866" lon="1.20212">
        <ele>73.2</ele>
        <time>2022-08-15T14:00:49Z</time>
      </trkpt>
      <trkpt lat="44.80866" lon="1.20225">
        <ele>73.2</ele>
        <time>2022-08-15T14:00:51Z</time>
      </trkpt>
      <trkpt lat="44.80866" lon="1.20237">
        <ele>73.2</ele>
        <time>2022-08-15T14:00:53Z</time>
      </trkpt>
      <trkpt lat="44.80866" lon="1.2025">
        <ele>73.2</ele>
        <time>2022-08-15T14:00:55Z</time>
      </trkpt>
      <trkpt lat="44.80866" lon="1.20262">
        <ele>73.5</ele>
        <time>2022-08-15T14:00:57Z</time>
      </trkpt>
      <trkpt lat="44.80866" lon="1.20274">
        <ele>73.9</ele>
        <time>2022-08-15T14:00:59Z</time>
      </trkpt>
      <trkpt lat="44.80866" lon="1.20285">
        <ele>74.2</ele>
        <time>2022-08-15T14:01:01Z</time>
      </trkpt>
      <trkpt lat="44.80866" lon="1.20297">
        <ele>74.5</ele>
        <time>2022-08-15T14:01:03Z</time>
      </trkpt>
      <trkpt lat="44.80866" lon="1.20308">
        <ele>74.9</ele>
        <time>2022-08-15T14:01:05Z</time>
      </trkpt>
      <trkpt lat="44.80866" lon="1.20319">
        <ele>75.2</ele>
        <time>2022-08-15T14:01:07Z</time>
      </trkpt>
      <trkpt lat="44.80866" lon="1.2033">
        <ele>75.5</ele>
        <time>2022-08-15T14:01:09Z</time>
      </trkpt>
      <trkpt lat="44.80866" lon="1.20341">
        <ele>75.6</ele>
        <time>2022-08-15T14:01:11Z</time>
      </trkpt>
      <trkpt lat="44.80866" lon="1.20352">
        <ele>75.5</ele>
        <time>2022-08-15T14:01:13Z</time>
      </trkpt>
      <trkpt lat="44.80866" lon="1.20362">
        <ele>75.5</ele>
        <time>2022-08-15T14:01:15Z</time>
      </trkpt>
      <trkpt lat="44.80866" lon="1.20373">
        <ele>75.4</ele>
        <time>2022-08-15T14:01:17Z</time>
      </trkpt>
      <trkpt lat="44.80866" lon="1.20384">
        <ele>75.3</ele>
        <time>2022-08-15T14:01:19Z</time>
      </trkpt>
      <trkpt lat="44.80866" lon="1.20395">
        <ele>75.3</ele>
        <time>2022-08-15T14:01:21Z</time>
      </trkpt>
      <trkpt lat="44.80867" lon="1.20405">
        <ele>75.3</ele>
        <time>2022-08-15T14:01:23Z</time>
      </trkpt>
      <trkpt lat="44.80867" lon="1.20415">
        <ele>75.2</ele>
        <time>2022-08-15T14:01:25Z</time>
      </trkpt>
      <trkpt lat="44.80867" lon="1.20424">
        <ele>75.3</ele>
        <time>2022-08-15T14:01:27Z</time>
      </trkpt>
      <trkpt lat="44.80867" lon="1.20435">
        <ele>75.5</ele>
        <time>2022-08-15T14:01:29Z</time>
      </trkpt>
      <trkpt lat="44.80867" lon="1.20445">
        <ele>75.7</ele>
        <time>2022-08-15T14:01:31Z</time>
      </trkpt>
      <trkpt lat="44.80866" lon="1.20451">
        <ele>75.8</ele>
        <time>2022-08-15T14:01:33Z</time>
      </trkpt>
      <trkpt lat="44.80866" lon="1.20454">
        <ele>75.8</ele>
        <time>2022-08-15T14:01:35Z</time>
      </trkpt>
      <trkpt lat="44.80866" lon="1.20455">
        <ele>75.8</ele>
        <time>2022-08-15T14:01:37Z</time>
      </trkpt>
      <trkpt lat="44.80866" lon="1.20458">
        <ele>75.9</ele>
        <time>2022-08-15T14:01:39Z</time>
      </trkpt>
      <trkpt lat="44.80866" lon="1.20461">
        <ele>75.9</ele>
        <time>2022-08-15T14:01:41Z</time>
      </trkpt>
      <trkpt lat="44.80866" lon="1.20469">
        <ele>76.1</ele>
        <time>2022-08-15T14:01:43Z</time>
      </trkpt>
      <trkpt lat="44.80867" lon="1.20478">
        <ele>76.2</ele>
        <time>2022-08-15T14:01:45Z</time>
      </trkpt>
      <trkpt lat="44.80866" lon="1.20486">
        <ele>76.3</ele>
        <time>2022-08-15T14:01:47Z</time>
      </trkpt>
      <trkpt lat="44.80866" lon="1.20492">
        <ele>76.4</ele>
        <time>2022-08-15T14:01:49Z</time>
      </trkpt>
      <trkpt lat="44.80867" lon="1.20496">
        <ele>76.5</ele>
        <time>2022-08-15T14:01:51Z</time>
      </trkpt>
      <trkpt lat="44.80866" lon="1.20501">
        <ele>76.6</ele>
        <time>2022-08-15T14:01:53Z</time>
      </trkpt>
      <trkpt lat="44.80867" lon="1.20507">
        <ele>76.6</ele>
        <time>2022-08-15T14:01:55Z</time>
      </trkpt>
      <trkpt lat="44.80867" lon="1.20512">
        <ele>76.6</ele>
        <time>2022-08-15T14:01:57Z</time>
      </trkpt>
      <trkpt lat="44.80867" lon="1.20518">
        <ele>76.6</ele>
        <time>2022-08-15T14:01:59Z</time>
      </trkpt>
      <trkpt lat="44.80866" lon="1.20519">
        <ele>76.6</ele>
        <time>2022-08-15T14:02:01Z</time>
      </trkpt>
      <trkpt lat="44.80866" lon="1.20524">
        <ele>76.6</ele>
        <time>2022-08-15T14:02:03Z</time>
      </trkpt>
      <trkpt lat="44.80867" lon="1.20526">
        <ele>76.6</ele>
        <time>2022-08-15T14:02:05Z</time>
      </trkpt>
      <trkpt lat="44.80866" lon="1.20528">
        <ele>76.6</ele>
        <time>2022-08-15T14:02:07Z</time>
      </trkpt>
      <trkpt lat="44.80866" lon="1.20531">
        <ele>76.6</ele>
        <time>2022-08-15T14:02:09Z</time>
      </trkpt>
      <trkpt lat="44.80866" lon="1.20537">
        <ele>76.6</ele>
        <time>2022-08-15T14:02:11Z</time>
      </trkpt>
      <trkpt lat="44.80867" lon="1.20541">
        <ele>76.6</ele>
        <time>2022-08-15T14:02:13Z</time>
      </trkpt>
      <trkpt lat="44.80864" lon="1.2055">
        <ele>76.5</ele>
        <time>2022-08-15T14:02:15Z</time>
      </trkpt>
      <trkpt lat="44.80861" lon="1.20557">
        <ele>76.3</ele>
        <time>2022-08-15T14:02:17Z</time>
      </trkpt>
      <trkpt lat="44.80855" lon="1.2056">
        <ele>76</ele>
        <time>2022-08-15T14:02:19Z</time>
      </trkpt>
      <trkpt lat="44.80846" lon="1.20558">
        <ele>75.6</ele>
        <time>2022-08-15T14:02:21Z</time>
      </trkpt>
      <trkpt lat="44.80836" lon="1.20554">
        <ele>75.1</ele>
        <time>2022-08-15T14:02:23Z</time>
      </trkpt>
      <trkpt lat="44.80827" lon="1.20552">
        <ele>74.9</ele>
        <time>2022-08-15T14:02:25Z</time>
      </trkpt>
      <trkpt lat="44.80817" lon="1.20548">
        <ele>74.7</ele>
        <time>2022-08-15T14:02:27Z</time>
      </trkpt>
      <trkpt lat="44.80808" lon="1.20545">
        <ele>74.5</ele>
        <time>2022-08-15T14:02:29Z</time>
      </trkpt>
      <trkpt lat="44.80798" lon="1.20541">
        <ele>74.4</ele>
        <time>2022-08-15T14:02:31Z</time>
      </trkpt>
      <trkpt lat="44.80788" lon="1.20538">
        <ele>74.2</ele>
        <time>2022-08-15T14:02:33Z</time>
      </trkpt>
      <trkpt lat="44.80779" lon="1.20534">
        <ele>74</ele>
        <time>2022-08-15T14:02:35Z</time>
      </trkpt>
      <trkpt lat="44.8077" lon="1.20531">
        <ele>73.8</ele>
        <time>2022-08-15T14:02:37Z</time>
      </trkpt>
      <trkpt lat="44.8076" lon="1.20527">
        <ele>73.5</ele>
        <time>2022-08-15T14:02:39Z</time>
      </trkpt>
      <trkpt lat="44.80751" lon="1.20523">
        <ele>73.3</ele>
        <time>2022-08-15T14:02:41Z</time>
      </trkpt>
      <trkpt lat="44.80742" lon="1.2052">
        <ele>73.1</ele>
        <time>2022-08-15T14:02:43Z</time>
      </trkpt>
      <trkpt lat="44.80733" lon="1.20517">
        <ele>73</ele>
        <time>2022-08-15T14:02:45Z</time>
      </trkpt>
      <trkpt lat="44.80724" lon="1.20513">
        <ele>72.9</ele>
        <time>2022-08-15T14:02:47Z</time>
      </trkpt>
      <trkpt lat="44.80715" lon="1.2051">
        <ele>72.7</ele>
        <time>2022-08-15T14:02:49Z</time>
      </trkpt>
      <trkpt lat="44.80707" lon="1.20507">
        <ele>72.6</ele>
        <time>2022-08-15T14:02:51Z</time>
      </trkpt>
      <trkpt lat="44.80698" lon="1.20504">
        <ele>72.4</ele>
        <time>2022-08-15T14:02:53Z</time>
      </trkpt>
      <trkpt lat="44.80689" lon="1.20501">
        <ele>72.3</ele>
        <time>2022-08-15T14:02:55Z</time>
      </trkpt>
      <trkpt lat="44.80681" lon="1.20498">
        <ele>72.1</ele>
        <time>2022-08-15T14:02:57Z</time>
      </trkpt>
      <trkpt lat="44.80672" lon="1.20495">
        <ele>72</ele>
        <time>2022-08-15T14:02:59Z</time>
      </trkpt>
      <trkpt lat="44.80664" lon="1.20493">
        <ele>71.8</ele>
        <time>2022-08-15T14:03:01Z</time>
      </trkpt>
      <trkpt lat="44.80655" lon="1.2049">
        <ele>71.5</ele>
        <time>2022-08-15T14:03:03Z</time>
      </trkpt>
      <trkpt lat="44.80646" lon="1.20487">
        <ele>71.2</ele>
        <time>2022-08-15T14:03:05Z</time>
      </trkpt>
      <trkpt lat="44.80637" lon="1.20484">
        <ele>70.9</ele>
        <time>2022-08-15T14:03:07Z</time>
      </trkpt>
      <trkpt lat="44.80628" lon="1.20481">
        <ele>70.7</ele>
        <time>2022-08-15T14:03:09Z</time>
      </trkpt>
      <trkpt lat="44.80619" lon="1.20478">
        <ele>70.5</ele>
        <time>2022-08-15T14:03:11Z</time>
      </trkpt>
      <trkpt lat="44.8061" lon="1.20474">
        <ele>70.3</ele>
        <time>2022-08-15T14:03:13Z</time>
      </trkpt>
      <trkpt lat="44.806" lon="1.2047">
        <ele>70.1</ele>
        <time>2022-08-15T14:03:15Z</time>
      </trkpt>
      <trkpt lat="44.80591" lon="1.20467">
        <ele>70</ele>
        <time>2022-08-15T14:03:17Z</time>
      </trkpt>
      <trkpt lat="44.80581" lon="1.20464">
        <ele>69.9</ele>
        <time>2022-08-15T14:03:19Z</time>
      </trkpt>
      <trkpt lat="44.80571" lon="1.2046">
        <ele>70.4</ele>
        <time>2022-08-15T14:03:21Z</time>
      </trkpt>
      <trkpt lat="44.80562" lon="1.20457">
        <ele>70.8</ele>
        <time>2022-08-15T14:03:23Z</time>
      </trkpt>
      <trkpt lat="44.80552" lon="1.20453">
        <ele>71.3</ele>
        <time>2022-08-15T14:03:25Z</time>
      </trkpt>
      <trkpt lat="44.80542" lon="1.2045">
        <ele>71.7</ele>
        <time>2022-08-15T14:03:27Z</time>
      </trkpt>
      <trkpt lat="44.80532" lon="1.20447">
        <ele>72.1</ele>
        <time>2022-08-15T14:03:29Z</time>
      </trkpt>
      <trkpt lat="44.80522" lon="1.20443">
        <ele>72.6</ele>
        <time>2022-08-15T14:03:31Z</time>
      </trkpt>
      <trkpt lat="44.80513" lon="1.2044">
        <ele>73</ele>
        <time>2022-08-15T14:03:33Z</time>
      </trkpt>
      <trkpt lat="44.80503" lon="1.20436">
        <ele>73.4</ele>
        <time>2022-08-15T14:03:35Z</time>
      </trkpt>
      <trkpt lat="44.80492" lon="1.20433">
        <ele>73.5</ele>
        <time>2022-08-15T14:03:37Z</time>
      </trkpt>
      <trkpt lat="44.80483" lon="1.20429">
        <ele>73.3</ele>
        <time>2022-08-15T14:03:39Z</time>
      </trkpt>
      <trkpt lat="44.80472" lon="1.20425">
        <ele>73.2</ele>
        <time>2022-08-15T14:03:41Z</time>
      </trkpt>
      <trkpt lat="44.80462" lon="1.20421">
        <ele>73</ele>
        <time>2022-08-15T14:03:43Z</time>
      </trkpt>
      <trkpt lat="44.80452" lon="1.20418">
        <ele>72.8</ele>
        <time>2022-08-15T14:03:45Z</time>
      </trkpt>
      <trkpt lat="44.80445" lon="1.20416">
        <ele>72.7</ele>
        <time>2022-08-15T14:03:47Z</time>
      </trkpt>
      <trkpt lat="44.80438" lon="1.20414">
        <ele>72.5</ele>
        <time>2022-08-15T14:03:49Z</time>
      </trkpt>
      <trkpt lat="44.80435" lon="1.20421">
        <ele>72.4</ele>
        <time>2022-08-15T14:03:51Z</time>
      </trkpt>
      <trkpt lat="44.80436" lon="1.20433">
        <ele>72.2</ele>
        <time>2022-08-15T14:03:53Z</time>
      </trkpt>
      <trkpt lat="44.80437" lon="1.20445">
        <ele>72.1</ele>
        <time>2022-08-15T14:03:55Z</time>
      </trkpt>
      <trkpt lat="44.80437" lon="1.20459">
        <ele>71.9</ele>
        <time>2022-08-15T14:03:57Z</time>
      </trkpt>
      <trkpt lat="44.80439" lon="1.20474">
        <ele>71.7</ele>
        <time>2022-08-15T14:03:59Z</time>
      </trkpt>
      <trkpt lat="44.80439" lon="1.20485">
        <ele>71.5</ele>
        <time>2022-08-15T14:04:01Z</time>
      </trkpt>
      <trkpt lat="44.8044" lon="1.20497">
        <ele>71.3</ele>
        <time>2022-08-15T14:04:03Z</time>
      </trkpt>
      <trkpt lat="44.80442" lon="1.20507">
        <ele>71.3</ele>
        <time>2022-08-15T14:04:05Z</time>
      </trkpt>
      <trkpt lat="44.80442" lon="1.20518">
        <ele>71.4</ele>
        <time>2022-08-15T14:04:07Z</time>
      </trkpt>
      <trkpt lat="44.80443" lon="1.20526">
        <ele>71.4</ele>
        <time>2022-08-15T14:04:09Z</time>
      </trkpt>
      <trkpt lat="44.80442" lon="1.20536">
        <ele>71.5</ele>
        <time>2022-08-15T14:04:11Z</time>
      </trkpt>
      <trkpt lat="44.80443" lon="1.20546">
        <ele>71.5</ele>
        <time>2022-08-15T14:04:13Z</time>
      </trkpt>
      <trkpt lat="44.80443" lon="1.20556">
        <ele>71.6</ele>
        <time>2022-08-15T14:04:15Z</time>
      </trkpt>
      <trkpt lat="44.80443" lon="1.20565">
        <ele>71.6</ele>
        <time>2022-08-15T14:04:17Z</time>
      </trkpt>
      <trkpt lat="44.80442" lon="1.20575">
        <ele>71.7</ele>
        <time>2022-08-15T14:04:19Z</time>
      </trkpt>
      <trkpt lat="44.80442" lon="1.20584">
        <ele>71.7</ele>
        <time>2022-08-15T14:04:21Z</time>
      </trkpt>
      <trkpt lat="44.80442" lon="1.20593">
        <ele>72</ele>
        <time>2022-08-15T14:04:23Z</time>
      </trkpt>
      <trkpt lat="44.80442" lon="1.20601">
        <ele>72.2</ele>
        <time>2022-08-15T14:04:25Z</time>
      </trkpt>
      <trkpt lat="44.80444" lon="1.20608">
        <ele>72.4</ele>
        <time>2022-08-15T14:04:27Z</time>
      </trkpt>
      <trkpt lat="44.80447" lon="1.20612">
        <ele>72.4</ele>
        <time>2022-08-15T14:04:29Z</time>
      </trkpt>
      <trkpt lat="44.80452" lon="1.20613">
        <ele>72.3</ele>
        <time>2022-08-15T14:04:31Z</time>
      </trkpt>
      <trkpt lat="44.80453" lon="1.20612">
        <ele>72.3</ele>
        <time>2022-08-15T14:04:33Z</time>
      </trkpt>
      <trkpt lat="44.80452" lon="1.20611">
        <ele>72.3</ele>
        <time>2022-08-15T14:04:35Z</time>
      </trkpt>
      <trkpt lat="44.80452" lon="1.20611">
        <ele>72.3</ele>
        <time>2022-08-15T14:04:37Z</time>
      </trkpt>
      <trkpt lat="44.80452" lon="1.20609">
        <ele>72.2</ele>
        <time>2022-08-15T14:04:39Z</time>
      </trkpt>
      <trkpt lat="44.80453" lon="1.20609">
        <ele>72.2</ele>
        <time>2022-08-15T14:04:41Z</time>
      </trkpt>
      <trkpt lat="44.80461" lon="1.20624">
        <ele>72.4</ele>
        <time>2022-08-15T14:09:51Z</time>
      </trkpt>
      <trkpt lat="44.80463" lon="1.2063">
        <ele>72.5</ele>
        <time>2022-08-15T14:09:53Z</time>
      </trkpt>
      <trkpt lat="44.80468" lon="1.20632">
        <ele>72.4</ele>
        <time>2022-08-15T14:09:55Z</time>
      </trkpt>
      <trkpt lat="44.80473" lon="1.20631">
        <ele>72.3</ele>
        <time>2022-08-15T14:09:57Z</time>
      </trkpt>
      <trkpt lat="44.80478" lon="1.20629">
        <ele>72.1</ele>
        <time>2022-08-15T14:09:59Z</time>
      </trkpt>
      <trkpt lat="44.80483" lon="1.20634">
        <ele>72.1</ele>
        <time>2022-08-15T14:10:01Z</time>
      </trkpt>
      <trkpt lat="44.80485" lon="1.20643">
        <ele>72.1</ele>
        <time>2022-08-15T14:10:03Z</time>
      </trkpt>
      <trkpt lat="44.80482" lon="1.20651">
        <ele>72.4</ele>
        <time>2022-08-15T14:10:05Z</time>
      </trkpt>
      <trkpt lat="44.80486" lon="1.20655">
        <ele>72.3</ele>
        <time>2022-08-15T14:10:07Z</time>
      </trkpt>
      <trkpt lat="44.80486" lon="1.20663">
        <ele>72.5</ele>
        <time>2022-08-15T14:10:09Z</time>
      </trkpt>
      <trkpt lat="44.80487" lon="1.20671">
        <ele>72.6</ele>
        <time>2022-08-15T14:10:11Z</time>
      </trkpt>
      <trkpt lat="44.80486" lon="1.20677">
        <ele>72.7</ele>
        <time>2022-08-15T14:10:13Z</time>
      </trkpt>
      <trkpt lat="44.80487" lon="1.20683">
        <ele>72.8</ele>
        <time>2022-08-15T14:10:15Z</time>
      </trkpt>
      <trkpt lat="44.80491" lon="1.20685">
        <ele>72.6</ele>
        <time>2022-08-15T14:10:17Z</time>
      </trkpt>
      <trkpt lat="44.80494" lon="1.2069">
        <ele>72.5</ele>
        <time>2022-08-15T14:10:19Z</time>
      </trkpt>
      <trkpt lat="44.80494" lon="1.20695">
        <ele>72.6</ele>
        <time>2022-08-15T14:10:21Z</time>
      </trkpt>
      <trkpt lat="44.80494" lon="1.20698">
        <ele>72.7</ele>
        <time>2022-08-15T14:10:23Z</time>
      </trkpt>
      <trkpt lat="44.80493" lon="1.20699">
        <ele>72.7</ele>
        <time>2022-08-15T14:10:25Z</time>
      </trkpt>
      <trkpt lat="44.80493" lon="1.20699">
        <ele>72.7</ele>
        <time>2022-08-15T14:10:27Z</time>
      </trkpt>
      <trkpt lat="44.80491" lon="1.20699">
        <ele>72.8</ele>
        <time>2022-08-15T14:10:29Z</time>
      </trkpt>
      <trkpt lat="44.80491" lon="1.20698">
        <ele>72.8</ele>
        <time>2022-08-15T14:10:31Z</time>
      </trkpt>
    </trkseg>
      <trkpt lat="44.80488" lon="1.20692">
        <ele>72.9</ele>
        <time>2022-08-15T14:58:18Z</time>
      </trkpt>
      <trkpt lat="44.80487" lon="1.20693">
        <ele>72.9</ele>
        <time>2022-08-15T14:58:19Z</time>
      </trkpt>
      <trkpt lat="44.80481" lon="1.20673">
        <ele>72.8</ele>
        <time>2022-08-15T14:59:37Z</time>
      </trkpt>
      <trkpt lat="44.8048" lon="1.20667">
        <ele>72.7</ele>
        <time>2022-08-15T14:59:39Z</time>
      </trkpt>
      <trkpt lat="44.8048" lon="1.20661">
        <ele>72.6</ele>
        <time>2022-08-15T14:59:41Z</time>
      </trkpt>
      <trkpt lat="44.80479" lon="1.20655">
        <ele>72.5</ele>
        <time>2022-08-15T14:59:43Z</time>
      </trkpt>
      <trkpt lat="44.80478" lon="1.2065">
        <ele>72.5</ele>
        <time>2022-08-15T14:59:45Z</time>
      </trkpt>
      <trkpt lat="44.8048" lon="1.20646">
        <ele>72.4</ele>
        <time>2022-08-15T14:59:47Z</time>
      </trkpt>
      <trkpt lat="44.8048" lon="1.20641">
        <ele>72.3</ele>
        <time>2022-08-15T14:59:49Z</time>
      </trkpt>
      <trkpt lat="44.8048" lon="1.20634">
        <ele>72.2</ele>
        <time>2022-08-15T14:59:51Z</time>
      </trkpt>
      <trkpt lat="44.80479" lon="1.20629">
        <ele>72.1</ele>
        <time>2022-08-15T14:59:53Z</time>
      </trkpt>
      <trkpt lat="44.8048" lon="1.20622">
        <ele>71.9</ele>
        <time>2022-08-15T14:59:55Z</time>
      </trkpt>
      <trkpt lat="44.8048" lon="1.20619">
        <ele>71.9</ele>
        <time>2022-08-15T14:59:57Z</time>
      </trkpt>
      <trkpt lat="44.80479" lon="1.20612">
        <ele>71.8</ele>
        <time>2022-08-15T14:59:59Z</time>
      </trkpt>
      <trkpt lat="44.80479" lon="1.20608">
        <ele>71.7</ele>
        <time>2022-08-15T15:00:01Z</time>
      </trkpt>
      <trkpt lat="44.80478" lon="1.20602">
        <ele>71.6</ele>
        <time>2022-08-15T15:00:03Z</time>
      </trkpt>
      <trkpt lat="44.80473" lon="1.20599">
        <ele>71.6</ele>
        <time>2022-08-15T15:00:05Z</time>
      </trkpt>
      <trkpt lat="44.80468" lon="1.20597">
        <ele>71.7</ele>
        <time>2022-08-15T15:00:07Z</time>
      </trkpt>
      <trkpt lat="44.80465" lon="1.20597">
        <ele>71.7</ele>
        <time>2022-08-15T15:00:09Z</time>
      </trkpt>
      <trkpt lat="44.8046" lon="1.20598">
        <ele>71.8</ele>
        <time>2022-08-15T15:00:11Z</time>
      </trkpt>
      <trkpt lat="44.80454" lon="1.20598">
        <ele>71.9</ele>
        <time>2022-08-15T15:00:13Z</time>
      </trkpt>
      <trkpt lat="44.80449" lon="1.206">
        <ele>72</ele>
        <time>2022-08-15T15:00:15Z</time>
      </trkpt>
      <trkpt lat="44.80445" lon="1.20601">
        <ele>72.1</ele>
        <time>2022-08-15T15:00:17Z</time>
      </trkpt>
      <trkpt lat="44.80442" lon="1.206">
        <ele>72.2</ele>
        <time>2022-08-15T15:00:19Z</time>
      </trkpt>
      <trkpt lat="44.80439" lon="1.20593">
        <ele>72</ele>
        <time>2022-08-15T15:00:21Z</time>
      </trkpt>
      <trkpt lat="44.80441" lon="1.20587">
        <ele>71.8</ele>
        <time>2022-08-15T15:00:23Z</time>
      </trkpt>
      <trkpt lat="44.80442" lon="1.2058">
        <ele>71.7</ele>
        <time>2022-08-15T15:00:25Z</time>
      </trkpt>
      <trkpt lat="44.80442" lon="1.20573">
        <ele>71.7</ele>
        <time>2022-08-15T15:00:27Z</time>
      </trkpt>
      <trkpt lat="44.80442" lon="1.20564">
        <ele>71.6</ele>
        <time>2022-08-15T15:00:29Z</time>
      </trkpt>
      <trkpt lat="44.80443" lon="1.20558">
        <ele>71.6</ele>
        <time>2022-08-15T15:00:31Z</time>
      </trkpt>
      <trkpt lat="44.80442" lon="1.20549">
        <ele>71.5</ele>
        <time>2022-08-15T15:00:33Z</time>
      </trkpt>
      <trkpt lat="44.80442" lon="1.2054">
        <ele>71.5</ele>
        <time>2022-08-15T15:00:35Z</time>
      </trkpt>
      <trkpt lat="44.80441" lon="1.20531">
        <ele>71.4</ele>
        <time>2022-08-15T15:00:37Z</time>
      </trkpt>
      <trkpt lat="44.80442" lon="1.20523">
        <ele>71.4</ele>
        <time>2022-08-15T15:00:39Z</time>
      </trkpt>
      <trkpt lat="44.8044" lon="1.20514">
        <ele>71.4</ele>
        <time>2022-08-15T15:00:41Z</time>
      </trkpt>
      <trkpt lat="44.8044" lon="1.20507">
        <ele>71.3</ele>
        <time>2022-08-15T15:00:43Z</time>
      </trkpt>
      <trkpt lat="44.8044" lon="1.20498">
        <ele>71.3</ele>
        <time>2022-08-15T15:00:45Z</time>
      </trkpt>
      <trkpt lat="44.80439" lon="1.20489">
        <ele>71.4</ele>
        <time>2022-08-15T15:00:47Z</time>
      </trkpt>
      <trkpt lat="44.80438" lon="1.20479">
        <ele>71.6</ele>
        <time>2022-08-15T15:00:49Z</time>
      </trkpt>
      <trkpt lat="44.80439" lon="1.20471">
        <ele>71.7</ele>
        <time>2022-08-15T15:00:51Z</time>
      </trkpt>
      <trkpt lat="44.80438" lon="1.20464">
        <ele>71.8</ele>
        <time>2022-08-15T15:00:53Z</time>
      </trkpt>
      <trkpt lat="44.80437" lon="1.20458">
        <ele>71.9</ele>
        <time>2022-08-15T15:00:55Z</time>
      </trkpt>
      <trkpt lat="44.80437" lon="1.20451">
        <ele>72</ele>
        <time>2022-08-15T15:00:57Z</time>
      </trkpt>
      <trkpt lat="44.80437" lon="1.20445">
        <ele>72.1</ele>
        <time>2022-08-15T15:00:59Z</time>
      </trkpt>
      <trkpt lat="44.80438" lon="1.2044">
        <ele>72.2</ele>
        <time>2022-08-15T15:01:01Z</time>
      </trkpt>
      <trkpt lat="44.80438" lon="1.20434">
        <ele>72.2</ele>
        <time>2022-08-15T15:01:03Z</time>
      </trkpt>
      <trkpt lat="44.80437" lon="1.2043">
        <ele>72.3</ele>
        <time>2022-08-15T15:01:05Z</time>
      </trkpt>
      <trkpt lat="44.80437" lon="1.20426">
        <ele>72.4</ele>
        <time>2022-08-15T15:01:07Z</time>
      </trkpt>
      <trkpt lat="44.80438" lon="1.20422">
        <ele>72.4</ele>
        <time>2022-08-15T15:01:09Z</time>
      </trkpt>
      <trkpt lat="44.80438" lon="1.20418">
        <ele>72.5</ele>
        <time>2022-08-15T15:01:11Z</time>
      </trkpt>
      <trkpt lat="44.80438" lon="1.20418">
        <ele>72.5</ele>
        <time>2022-08-15T15:01:13Z</time>
      </trkpt>
      <trkpt lat="44.80438" lon="1.20418">
        <ele>72.5</ele>
        <time>2022-08-15T15:01:15Z</time>
      </trkpt>
      <trkpt lat="44.80439" lon="1.20418">
        <ele>72.5</ele>
        <time>2022-08-15T15:01:17Z</time>
      </trkpt>
      <trkpt lat="44.80439" lon="1.20418">
        <ele>72.5</ele>
        <time>2022-08-15T15:01:19Z</time>
      </trkpt>
      <trkpt lat="44.80425" lon="1.20406">
        <ele>72.1</ele>
        <time>2022-08-15T15:01:41Z</time>
      </trkpt>
      <trkpt lat="44.80419" lon="1.20404">
        <ele>71.9</ele>
        <time>2022-08-15T15:01:43Z</time>
      </trkpt>
      <trkpt lat="44.80413" lon="1.20402">
        <ele>71.9</ele>
        <time>2022-08-15T15:01:45Z</time>
      </trkpt>
      <trkpt lat="44.80406" lon="1.20401">
        <ele>72.1</ele>
        <time>2022-08-15T15:01:47Z</time>
      </trkpt>
      <trkpt lat="44.80399" lon="1.20398">
        <ele>72.2</ele>
        <time>2022-08-15T15:01:49Z</time>
      </trkpt>
      <trkpt lat="44.80392" lon="1.20396">
        <ele>72.4</ele>
        <time>2022-08-15T15:01:51Z</time>
      </trkpt>
      <trkpt lat="44.80384" lon="1.20394">
        <ele>72.6</ele>
        <time>2022-08-15T15:01:53Z</time>
      </trkpt>
      <trkpt lat="44.80377" lon="1.20392">
        <ele>72.8</ele>
        <time>2022-08-15T15:01:55Z</time>
      </trkpt>
      <trkpt lat="44.8037" lon="1.2039">
        <ele>73</ele>
        <time>2022-08-15T15:01:57Z</time>
      </trkpt>
      <trkpt lat="44.80363" lon="1.20387">
        <ele>73.2</ele>
        <time>2022-08-15T15:01:59Z</time>
      </trkpt>
      <trkpt lat="44.80355" lon="1.20385">
        <ele>73.4</ele>
        <time>2022-08-15T15:02:01Z</time>
      </trkpt>
      <trkpt lat="44.80348" lon="1.20382">
        <ele>73.6</ele>
        <time>2022-08-15T15:02:03Z</time>
      </trkpt>
      <trkpt lat="44.80341" lon="1.20379">
        <ele>73.8</ele>
        <time>2022-08-15T15:02:05Z</time>
      </trkpt>
      <trkpt lat="44.80334" lon="1.20377">
        <ele>74</ele>
        <time>2022-08-15T15:02:07Z</time>
      </trkpt>
      <trkpt lat="44.80326" lon="1.20374">
        <ele>74.7</ele>
        <time>2022-08-15T15:02:09Z</time>
      </trkpt>
      <trkpt lat="44.80318" lon="1.20371">
        <ele>75.4</ele>
        <time>2022-08-15T15:02:11Z</time>
      </trkpt>
      <trkpt lat="44.8031" lon="1.20369">
        <ele>76</ele>
        <time>2022-08-15T15:02:13Z</time>
      </trkpt>
      <trkpt lat="44.80302" lon="1.20366">
        <ele>76.6</ele>
        <time>2022-08-15T15:02:15Z</time>
      </trkpt>
      <trkpt lat="44.80294" lon="1.20363">
        <ele>77.2</ele>
        <time>2022-08-15T15:02:17Z</time>
      </trkpt>
      <trkpt lat="44.80286" lon="1.2036">
        <ele>77.7</ele>
        <time>2022-08-15T15:02:19Z</time>
      </trkpt>
      <trkpt lat="44.80278" lon="1.20357">
        <ele>78.2</ele>
        <time>2022-08-15T15:02:21Z</time>
      </trkpt>
      <trkpt lat="44.8027" lon="1.20354">
        <ele>78.7</ele>
        <time>2022-08-15T15:02:23Z</time>
      </trkpt>
      <trkpt lat="44.80262" lon="1.20351">
        <ele>79.2</ele>
        <time>2022-08-15T15:02:25Z</time>
      </trkpt>
      <trkpt lat="44.80255" lon="1.20348">
        <ele>79.6</ele>
        <time>2022-08-15T15:02:27Z</time>
      </trkpt>
      <trkpt lat="44.80246" lon="1.20345">
        <ele>79.8</ele>
        <time>2022-08-15T15:02:29Z</time>
      </trkpt>
      <trkpt lat="44.80238" lon="1.20342">
        <ele>79.8</ele>
        <time>2022-08-15T15:02:31Z</time>
      </trkpt>
      <trkpt lat="44.80231" lon="1.20341">
        <ele>79.7</ele>
        <time>2022-08-15T15:02:33Z</time>
      </trkpt>
      <trkpt lat="44.80224" lon="1.20338">
        <ele>79.5</ele>
        <time>2022-08-15T15:02:35Z</time>
      </trkpt>
      <trkpt lat="44.80219" lon="1.20338">
        <ele>79.6</ele>
        <time>2022-08-15T15:02:37Z</time>
      </trkpt>
      <trkpt lat="44.80213" lon="1.20336">
        <ele>79.4</ele>
        <time>2022-08-15T15:02:39Z</time>
      </trkpt>
      <trkpt lat="44.80207" lon="1.20339">
        <ele>79.9</ele>
        <time>2022-08-15T15:02:41Z</time>
      </trkpt>
      <trkpt lat="44.80206" lon="1.20349">
        <ele>81.4</ele>
        <time>2022-08-15T15:02:43Z</time>
      </trkpt>
      <trkpt lat="44.80209" lon="1.20358">
        <ele>82.6</ele>
        <time>2022-08-15T15:02:45Z</time>
      </trkpt>
      <trkpt lat="44.80213" lon="1.20365">
        <ele>83.4</ele>
        <time>2022-08-15T15:02:47Z</time>
      </trkpt>
      <trkpt lat="44.80215" lon="1.20374">
        <ele>84.5</ele>
        <time>2022-08-15T15:02:49Z</time>
      </trkpt>
      <trkpt lat="44.80218" lon="1.20383">
        <ele>85.4</ele>
        <time>2022-08-15T15:02:51Z</time>
      </trkpt>
      <trkpt lat="44.8022" lon="1.20391">
        <ele>86.2</ele>
        <time>2022-08-15T15:02:53Z</time>
      </trkpt>
      <trkpt lat="44.80223" lon="1.20399">
        <ele>86.7</ele>
        <time>2022-08-15T15:02:55Z</time>
      </trkpt>
      <trkpt lat="44.80226" lon="1.20406">
        <ele>87</ele>
        <time>2022-08-15T15:02:57Z</time>
      </trkpt>
      <trkpt lat="44.80229" lon="1.2041">
        <ele>87</ele>
        <time>2022-08-15T15:02:59Z</time>
      </trkpt>
      <trkpt lat="44.8023" lon="1.20414">
        <ele>87.3</ele>
        <time>2022-08-15T15:03:01Z</time>
      </trkpt>
      <trkpt lat="44.80233" lon="1.2042">
        <ele>87.9</ele>
        <time>2022-08-15T15:03:03Z</time>
      </trkpt>
      <trkpt lat="44.80235" lon="1.20425">
        <ele>88.9</ele>
        <time>2022-08-15T15:03:05Z</time>
      </trkpt>
      <trkpt lat="44.80238" lon="1.2043">
        <ele>89.8</ele>
        <time>2022-08-15T15:03:07Z</time>
      </trkpt>
      <trkpt lat="44.8024" lon="1.20436">
        <ele>90.8</ele>
        <time>2022-08-15T15:03:09Z</time>
      </trkpt>
      <trkpt lat="44.80241" lon="1.20442">
        <ele>92</ele>
        <time>2022-08-15T15:03:11Z</time>
      </trkpt>
      <trkpt lat="44.80244" lon="1.20447">
        <ele>92.6</ele>
        <time>2022-08-15T15:03:13Z</time>
      </trkpt>
      <trkpt lat="44.80246" lon="1.20451">
        <ele>93.3</ele>
        <time>2022-08-15T15:03:15Z</time>
      </trkpt>
      <trkpt lat="44.80247" lon="1.20456">
        <ele>94.2</ele>
        <time>2022-08-15T15:03:17Z</time>
      </trkpt>
      <trkpt lat="44.8025" lon="1.20462">
        <ele>94.7</ele>
        <time>2022-08-15T15:03:19Z</time>
      </trkpt>
      <trkpt lat="44.80253" lon="1.20467">
        <ele>95.3</ele>
        <time>2022-08-15T15:03:21Z</time>
      </trkpt>
      <trkpt lat="44.80255" lon="1.20471">
        <ele>95.6</ele>
        <time>2022-08-15T15:03:23Z</time>
      </trkpt>
      <trkpt lat="44.80257" lon="1.20476">
        <ele>96.2</ele>
        <time>2022-08-15T15:03:25Z</time>
      </trkpt>
      <trkpt lat="44.8026" lon="1.2048">
        <ele>96.1</ele>
        <time>2022-08-15T15:03:27Z</time>
      </trkpt>
      <trkpt lat="44.80263" lon="1.20484">
        <ele>96</ele>
        <time>2022-08-15T15:03:29Z</time>
      </trkpt>
      <trkpt lat="44.80265" lon="1.20489">
        <ele>96.6</ele>
        <time>2022-08-15T15:03:31Z</time>
      </trkpt>
      <trkpt lat="44.80266" lon="1.20494">
        <ele>97.1</ele>
        <time>2022-08-15T15:03:33Z</time>
      </trkpt>
      <trkpt lat="44.80267" lon="1.20499">
        <ele>97.5</ele>
        <time>2022-08-15T15:03:35Z</time>
      </trkpt>
      <trkpt lat="44.8027" lon="1.20503">
        <ele>97.3</ele>
        <time>2022-08-15T15:03:37Z</time>
      </trkpt>
      <trkpt lat="44.80272" lon="1.20509">
        <ele>97.8</ele>
        <time>2022-08-15T15:03:39Z</time>
      </trkpt>
      <trkpt lat="44.80274" lon="1.20513">
        <ele>97.9</ele>
        <time>2022-08-15T15:03:41Z</time>
      </trkpt>
      <trkpt lat="44.80276" lon="1.20518">
        <ele>97.9</ele>
        <time>2022-08-15T15:03:43Z</time>
      </trkpt>
      <trkpt lat="44.80277" lon="1.20523">
        <ele>98.2</ele>
        <time>2022-08-15T15:03:45Z</time>
      </trkpt>
      <trkpt lat="44.80279" lon="1.20527">
        <ele>98.1</ele>
        <time>2022-08-15T15:03:47Z</time>
      </trkpt>
      <trkpt lat="44.80281" lon="1.20532">
        <ele>98.1</ele>
        <time>2022-08-15T15:03:49Z</time>
      </trkpt>
      <trkpt lat="44.80283" lon="1.20536">
        <ele>98.1</ele>
        <time>2022-08-15T15:03:51Z</time>
      </trkpt>
      <trkpt lat="44.80285" lon="1.20541">
        <ele>98.2</ele>
        <time>2022-08-15T15:03:53Z</time>
      </trkpt>
      <trkpt lat="44.80287" lon="1.20546">
        <ele>98</ele>
        <time>2022-08-15T15:03:55Z</time>
      </trkpt>
      <trkpt lat="44.80289" lon="1.20551">
        <ele>97.7</ele>
        <time>2022-08-15T15:03:57Z</time>
      </trkpt>
      <trkpt lat="44.80292" lon="1.20555">
        <ele>97.3</ele>
        <time>2022-08-15T15:03:59Z</time>
      </trkpt>
      <trkpt lat="44.80293" lon="1.2056">
        <ele>97.2</ele>
        <time>2022-08-15T15:04:01Z</time>
      </trkpt>
      <trkpt lat="44.80295" lon="1.20563">
        <ele>96.7</ele>
        <time>2022-08-15T15:04:03Z</time>
      </trkpt>
      <trkpt lat="44.80296" lon="1.20568">
        <ele>96.9</ele>
        <time>2022-08-15T15:04:05Z</time>
      </trkpt>
      <trkpt lat="44.80298" lon="1.20572">
        <ele>96.9</ele>
        <time>2022-08-15T15:04:07Z</time>
      </trkpt>
      <trkpt lat="44.803" lon="1.20577">
        <ele>96.4</ele>
        <time>2022-08-15T15:04:09Z</time>
      </trkpt>
      <trkpt lat="44.80301" lon="1.20581">
        <ele>96.6</ele>
        <time>2022-08-15T15:04:11Z</time>
      </trkpt>
      <trkpt lat="44.80302" lon="1.20585">
        <ele>96.4</ele>
        <time>2022-08-15T15:04:13Z</time>
      </trkpt>
      <trkpt lat="44.80304" lon="1.2059">
        <ele>96.5</ele>
        <time>2022-08-15T15:04:15Z</time>
      </trkpt>
      <trkpt lat="44.80304" lon="1.20595">
        <ele>97</ele>
        <time>2022-08-15T15:04:17Z</time>
      </trkpt>
      <trkpt lat="44.80305" lon="1.20599">
        <ele>97.1</ele>
        <time>2022-08-15T15:04:19Z</time>
      </trkpt>
      <trkpt lat="44.80306" lon="1.20604">
        <ele>97.5</ele>
        <time>2022-08-15T15:04:21Z</time>
      </trkpt>
      <trkpt lat="44.80307" lon="1.20609">
        <ele>97.8</ele>
        <time>2022-08-15T15:04:23Z</time>
      </trkpt>
      <trkpt lat="44.80308" lon="1.20613">
        <ele>97.6</ele>
        <time>2022-08-15T15:04:25Z</time>
      </trkpt>
      <trkpt lat="44.8031" lon="1.20617">
        <ele>97.1</ele>
        <time>2022-08-15T15:04:27Z</time>
      </trkpt>
      <trkpt lat="44.80311" lon="1.20621">
        <ele>97.3</ele>
        <time>2022-08-15T15:04:29Z</time>
      </trkpt>
      <trkpt lat="44.80312" lon="1.20626">
        <ele>97.5</ele>
        <time>2022-08-15T15:04:31Z</time>
      </trkpt>
      <trkpt lat="44.80312" lon="1.2063">
        <ele>98.1</ele>
        <time>2022-08-15T15:04:33Z</time>
      </trkpt>
      <trkpt lat="44.80314" lon="1.20635">
        <ele>97.9</ele>
        <time>2022-08-15T15:04:35Z</time>
      </trkpt>
      <trkpt lat="44.80315" lon="1.20639">
        <ele>98</ele>
        <time>2022-08-15T15:04:37Z</time>
      </trkpt>
      <trkpt lat="44.80316" lon="1.20643">
        <ele>98</ele>
        <time>2022-08-15T15:04:39Z</time>
      </trkpt>
      <trkpt lat="44.80317" lon="1.20648">
        <ele>98.1</ele>
        <time>2022-08-15T15:04:41Z</time>
      </trkpt>
      <trkpt lat="44.80319" lon="1.20652">
        <ele>97.7</ele>
        <time>2022-08-15T15:04:43Z</time>
      </trkpt>
      <trkpt lat="44.80321" lon="1.20656">
        <ele>97.2</ele>
        <time>2022-08-15T15:04:45Z</time>
      </trkpt>
      <trkpt lat="44.80322" lon="1.20661">
        <ele>97.1</ele>
        <time>2022-08-15T15:04:47Z</time>
      </trkpt>
      <trkpt lat="44.80323" lon="1.20665">
        <ele>97.1</ele>
        <time>2022-08-15T15:04:49Z</time>
      </trkpt>
      <trkpt lat="44.80324" lon="1.2067">
        <ele>97.4</ele>
        <time>2022-08-15T15:04:51Z</time>
      </trkpt>
      <trkpt lat="44.80325" lon="1.20673">
        <ele>97.6</ele>
        <time>2022-08-15T15:04:53Z</time>
      </trkpt>
      <trkpt lat="44.80327" lon="1.20678">
        <ele>97.6</ele>
        <time>2022-08-15T15:04:55Z</time>
      </trkpt>
      <trkpt lat="44.80329" lon="1.20682">
        <ele>97.6</ele>
        <time>2022-08-15T15:04:57Z</time>
      </trkpt>
      <trkpt lat="44.8033" lon="1.20686">
        <ele>98</ele>
        <time>2022-08-15T15:04:59Z</time>
      </trkpt>
      <trkpt lat="44.80332" lon="1.2069">
        <ele>97.8</ele>
        <time>2022-08-15T15:05:01Z</time>
      </trkpt>
      <trkpt lat="44.80334" lon="1.20694">
        <ele>97.8</ele>
        <time>2022-08-15T15:05:03Z</time>
      </trkpt>
      <trkpt lat="44.80336" lon="1.20699">
        <ele>98.5</ele>
        <time>2022-08-15T15:05:05Z</time>
      </trkpt>
      <trkpt lat="44.80338" lon="1.20703">
        <ele>99</ele>
        <time>2022-08-15T15:05:07Z</time>
      </trkpt>
      <trkpt lat="44.80339" lon="1.20707">
        <ele>99.5</ele>
        <time>2022-08-15T15:05:09Z</time>
      </trkpt>
      <trkpt lat="44.80341" lon="1.20711">
        <ele>99.8</ele>
        <time>2022-08-15T15:05:11Z</time>
      </trkpt>
      <trkpt lat="44.80342" lon="1.20714">
        <ele>100.4</ele>
        <time>2022-08-15T15:05:13Z</time>
      </trkpt>
      <trkpt lat="44.80344" lon="1.20719">
        <ele>100.8</ele>
        <time>2022-08-15T15:05:15Z</time>
      </trkpt>
      <trkpt lat="44.80346" lon="1.20723">
        <ele>101.1</ele>
        <time>2022-08-15T15:05:17Z</time>
      </trkpt>
      <trkpt lat="44.80346" lon="1.20727">
        <ele>101.7</ele>
        <time>2022-08-15T15:05:19Z</time>
      </trkpt>
      <trkpt lat="44.80348" lon="1.20731">
        <ele>102</ele>
        <time>2022-08-15T15:05:21Z</time>
      </trkpt>
      <trkpt lat="44.8035" lon="1.20735">
        <ele>102.2</ele>
        <time>2022-08-15T15:05:23Z</time>
      </trkpt>
      <trkpt lat="44.80352" lon="1.20739">
        <ele>102.5</ele>
        <time>2022-08-15T15:05:25Z</time>
      </trkpt>
      <trkpt lat="44.80353" lon="1.20744">
        <ele>102.8</ele>
        <time>2022-08-15T15:05:27Z</time>
      </trkpt>
      <trkpt lat="44.80355" lon="1.20748">
        <ele>103.2</ele>
        <time>2022-08-15T15:05:29Z</time>
      </trkpt>
      <trkpt lat="44.80356" lon="1.20752">
        <ele>103.7</ele>
        <time>2022-08-15T15:05:31Z</time>
      </trkpt>
      <trkpt lat="44.80357" lon="1.20757">
        <ele>104.3</ele>
        <time>2022-08-15T15:05:33Z</time>
      </trkpt>
      <trkpt lat="44.8036" lon="1.20762">
        <ele>104.4</ele>
        <time>2022-08-15T15:05:35Z</time>
      </trkpt>
      <trkpt lat="44.80363" lon="1.20766">
        <ele>104.5</ele>
        <time>2022-08-15T15:05:37Z</time>
      </trkpt>
      <trkpt lat="44.80365" lon="1.20772">
        <ele>104.9</ele>
        <time>2022-08-15T15:05:39Z</time>
      </trkpt>
      <trkpt lat="44.80366" lon="1.20777">
        <ele>105.6</ele>
        <time>2022-08-15T15:05:41Z</time>
      </trkpt>
      <trkpt lat="44.80368" lon="1.20782">
        <ele>106.1</ele>
        <time>2022-08-15T15:05:43Z</time>
      </trkpt>
      <trkpt lat="44.8037" lon="1.20786">
        <ele>106.4</ele>
        <time>2022-08-15T15:05:45Z</time>
      </trkpt>
      <trkpt lat="44.80372" lon="1.20791">
        <ele>106.6</ele>
        <time>2022-08-15T15:05:47Z</time>
      </trkpt>
      <trkpt lat="44.80373" lon="1.20796">
        <ele>106.9</ele>
        <time>2022-08-15T15:05:49Z</time>
      </trkpt>
      <trkpt lat="44.80376" lon="1.20801">
        <ele>107</ele>
        <time>2022-08-15T15:05:51Z</time>
      </trkpt>
      <trkpt lat="44.80377" lon="1.20806">
        <ele>107.4</ele>
        <time>2022-08-15T15:05:53Z</time>
      </trkpt>
      <trkpt lat="44.8038" lon="1.20811">
        <ele>107.6</ele>
        <time>2022-08-15T15:05:55Z</time>
      </trkpt>
      <trkpt lat="44.80381" lon="1.20817">
        <ele>108.1</ele>
        <time>2022-08-15T15:05:57Z</time>
      </trkpt>
      <trkpt lat="44.80383" lon="1.20821">
        <ele>108.3</ele>
        <time>2022-08-15T15:05:59Z</time>
      </trkpt>
      <trkpt lat="44.80385" lon="1.20827">
        <ele>108.4</ele>
        <time>2022-08-15T15:06:01Z</time>
      </trkpt>
      <trkpt lat="44.80386" lon="1.20831">
        <ele>108.6</ele>
        <time>2022-08-15T15:06:03Z</time>
      </trkpt>
      <trkpt lat="44.80387" lon="1.20836">
        <ele>109.1</ele>
        <time>2022-08-15T15:06:05Z</time>
      </trkpt>
      <trkpt lat="44.80388" lon="1.20841">
        <ele>109.4</ele>
        <time>2022-08-15T15:06:07Z</time>
      </trkpt>
      <trkpt lat="44.8039" lon="1.20846">
        <ele>109.8</ele>
        <time>2022-08-15T15:06:09Z</time>
      </trkpt>
      <trkpt lat="44.80391" lon="1.20851">
        <ele>109.9</ele>
        <time>2022-08-15T15:06:11Z</time>
      </trkpt>
      <trkpt lat="44.80393" lon="1.20855">
        <ele>109.5</ele>
        <time>2022-08-15T15:06:13Z</time>
      </trkpt>
      <trkpt lat="44.80395" lon="1.20859">
        <ele>109.5</ele>
        <time>2022-08-15T15:06:15Z</time>
      </trkpt>
      <trkpt lat="44.80396" lon="1.20864">
        <ele>110.1</ele>
        <time>2022-08-15T15:06:17Z</time>
      </trkpt>
      <trkpt lat="44.80398" lon="1.20868">
        <ele>109.9</ele>
        <time>2022-08-15T15:06:19Z</time>
      </trkpt>
      <trkpt lat="44.80399" lon="1.20873">
        <ele>110.1</ele>
        <time>2022-08-15T15:06:21Z</time>
      </trkpt>
      <trkpt lat="44.80401" lon="1.20877">
        <ele>110</ele>
        <time>2022-08-15T15:06:23Z</time>
      </trkpt>
      <trkpt lat="44.80401" lon="1.20882">
        <ele>110.5</ele>
        <time>2022-08-15T15:06:25Z</time>
      </trkpt>
      <trkpt lat="44.80403" lon="1.20887">
        <ele>110.5</ele>
        <time>2022-08-15T15:06:27Z</time>
      </trkpt>
      <trkpt lat="44.80404" lon="1.20891">
        <ele>111</ele>
        <time>2022-08-15T15:06:29Z</time>
      </trkpt>
      <trkpt lat="44.80405" lon="1.20897">
        <ele>111.6</ele>
        <time>2022-08-15T15:06:31Z</time>
      </trkpt>
      <trkpt lat="44.80406" lon="1.20901">
        <ele>112.1</ele>
        <time>2022-08-15T15:06:33Z</time>
      </trkpt>
      <trkpt lat="44.80407" lon="1.20906">
        <ele>112.1</ele>
        <time>2022-08-15T15:06:35Z</time>
      </trkpt>
      <trkpt lat="44.80408" lon="1.20911">
        <ele>112.4</ele>
        <time>2022-08-15T15:06:37Z</time>
      </trkpt>
      <trkpt lat="44.80409" lon="1.20916">
        <ele>113</ele>
        <time>2022-08-15T15:06:39Z</time>
      </trkpt>
      <trkpt lat="44.8041" lon="1.2092">
        <ele>113.4</ele>
        <time>2022-08-15T15:06:41Z</time>
      </trkpt>
      <trkpt lat="44.80411" lon="1.20925">
        <ele>114.1</ele>
        <time>2022-08-15T15:06:43Z</time>
      </trkpt>
      <trkpt lat="44.80412" lon="1.20929">
        <ele>114.5</ele>
        <time>2022-08-15T15:06:45Z</time>
      </trkpt>
      <trkpt lat="44.80414" lon="1.20934">
        <ele>114.8</ele>
        <time>2022-08-15T15:06:47Z</time>
      </trkpt>
      <trkpt lat="44.80415" lon="1.20939">
        <ele>115.2</ele>
        <time>2022-08-15T15:06:49Z</time>
      </trkpt>
      <trkpt lat="44.80416" lon="1.20943">
        <ele>115.7</ele>
        <time>2022-08-15T15:06:51Z</time>
      </trkpt>
      <trkpt lat="44.80418" lon="1.20949">
        <ele>116.2</ele>
        <time>2022-08-15T15:06:53Z</time>
      </trkpt>
      <trkpt lat="44.80418" lon="1.20953">
        <ele>117.1</ele>
        <time>2022-08-15T15:06:55Z</time>
      </trkpt>
      <trkpt lat="44.80419" lon="1.20958">
        <ele>117.8</ele>
        <time>2022-08-15T15:06:57Z</time>
      </trkpt>
      <trkpt lat="44.80421" lon="1.20963">
        <ele>118.2</ele>
        <time>2022-08-15T15:06:59Z</time>
      </trkpt>
      <trkpt lat="44.80422" lon="1.20967">
        <ele>118.5</ele>
        <time>2022-08-15T15:07:01Z</time>
      </trkpt>
      <trkpt lat="44.80424" lon="1.20973">
        <ele>118.9</ele>
        <time>2022-08-15T15:07:03Z</time>
      </trkpt>
      <trkpt lat="44.80425" lon="1.20977">
        <ele>119.1</ele>
        <time>2022-08-15T15:07:05Z</time>
      </trkpt>
      <trkpt lat="44.80426" lon="1.20982">
        <ele>119.9</ele>
        <time>2022-08-15T15:07:07Z</time>
      </trkpt>
      <trkpt lat="44.80427" lon="1.20986">
        <ele>119.9</ele>
        <time>2022-08-15T15:07:09Z</time>
      </trkpt>
      <trkpt lat="44.80428" lon="1.20991">
        <ele>120.8</ele>
        <time>2022-08-15T15:07:11Z</time>
      </trkpt>
      <trkpt lat="44.80429" lon="1.20996">
        <ele>121.1</ele>
        <time>2022-08-15T15:07:13Z</time>
      </trkpt>
      <trkpt lat="44.80429" lon="1.21">
        <ele>122</ele>
        <time>2022-08-15T15:07:15Z</time>
      </trkpt>
      <trkpt lat="44.8043" lon="1.21003">
        <ele>121.8</ele>
        <time>2022-08-15T15:07:17Z</time>
      </trkpt>
      <trkpt lat="44.80431" lon="1.21009">
        <ele>122</ele>
        <time>2022-08-15T15:07:19Z</time>
      </trkpt>
      <trkpt lat="44.80432" lon="1.21013">
        <ele>122.4</ele>
        <time>2022-08-15T15:07:21Z</time>
      </trkpt>
      <trkpt lat="44.80432" lon="1.21018">
        <ele>122.9</ele>
        <time>2022-08-15T15:07:23Z</time>
      </trkpt>
      <trkpt lat="44.80434" lon="1.21024">
        <ele>122.5</ele>
        <time>2022-08-15T15:07:25Z</time>
      </trkpt>
      <trkpt lat="44.80434" lon="1.21028">
        <ele>123.1</ele>
        <time>2022-08-15T15:07:27Z</time>
      </trkpt>
      <trkpt lat="44.80435" lon="1.21033">
        <ele>123.2</ele>
        <time>2022-08-15T15:07:29Z</time>
      </trkpt>
      <trkpt lat="44.80435" lon="1.21037">
        <ele>123.9</ele>
        <time>2022-08-15T15:07:31Z</time>
      </trkpt>
      <trkpt lat="44.80434" lon="1.21041">
        <ele>124.8</ele>
        <time>2022-08-15T15:07:33Z</time>
      </trkpt>
      <trkpt lat="44.80435" lon="1.21046">
        <ele>124.7</ele>
        <time>2022-08-15T15:07:35Z</time>
      </trkpt>
      <trkpt lat="44.80437" lon="1.21051">
        <ele>124.5</ele>
        <time>2022-08-15T15:07:37Z</time>
      </trkpt>
      <trkpt lat="44.80438" lon="1.21056">
        <ele>124.3</ele>
        <time>2022-08-15T15:07:39Z</time>
      </trkpt>
      <trkpt lat="44.80437" lon="1.2106">
        <ele>125.5</ele>
        <time>2022-08-15T15:07:41Z</time>
      </trkpt>
      <trkpt lat="44.80439" lon="1.21066">
        <ele>125.5</ele>
        <time>2022-08-15T15:07:43Z</time>
      </trkpt>
      <trkpt lat="44.80441" lon="1.2107">
        <ele>124.8</ele>
        <time>2022-08-15T15:07:45Z</time>
      </trkpt>
      <trkpt lat="44.80442" lon="1.21074">
        <ele>124.7</ele>
        <time>2022-08-15T15:07:47Z</time>
      </trkpt>
      <trkpt lat="44.80443" lon="1.21079">
        <ele>124.8</ele>
        <time>2022-08-15T15:07:49Z</time>
      </trkpt>
      <trkpt lat="44.80444" lon="1.21084">
        <ele>124.7</ele>
        <time>2022-08-15T15:07:51Z</time>
      </trkpt>
      <trkpt lat="44.80442" lon="1.21089">
        <ele>126.6</ele>
        <time>2022-08-15T15:07:53Z</time>
      </trkpt>
      <trkpt lat="44.80442" lon="1.21094">
        <ele>127.2</ele>
        <time>2022-08-15T15:07:55Z</time>
      </trkpt>
      <trkpt lat="44.80441" lon="1.21097">
        <ele>128.5</ele>
        <time>2022-08-15T15:07:57Z</time>
      </trkpt>
      <trkpt lat="44.80438" lon="1.211">
        <ele>130.6</ele>
        <time>2022-08-15T15:07:59Z</time>
      </trkpt>
      <trkpt lat="44.80433" lon="1.21098">
        <ele>133.4</ele>
        <time>2022-08-15T15:08:01Z</time>
      </trkpt>
      <trkpt lat="44.8043" lon="1.21094">
        <ele>134.5</ele>
        <time>2022-08-15T15:08:03Z</time>
      </trkpt>
      <trkpt lat="44.80428" lon="1.2109">
        <ele>135.3</ele>
        <time>2022-08-15T15:08:05Z</time>
      </trkpt>
      <trkpt lat="44.80426" lon="1.21085">
        <ele>135.5</ele>
        <time>2022-08-15T15:08:07Z</time>
      </trkpt>
      <trkpt lat="44.80425" lon="1.2108">
        <ele>135.7</ele>
        <time>2022-08-15T15:08:09Z</time>
      </trkpt>
      <trkpt lat="44.80422" lon="1.21073">
        <ele>136.1</ele>
        <time>2022-08-15T15:08:11Z</time>
      </trkpt>
      <trkpt lat="44.8042" lon="1.21069">
        <ele>136.7</ele>
        <time>2022-08-15T15:08:13Z</time>
      </trkpt>
      <trkpt lat="44.80418" lon="1.21063">
        <ele>137.1</ele>
        <time>2022-08-15T15:08:15Z</time>
      </trkpt>
      <trkpt lat="44.80416" lon="1.21058">
        <ele>137.9</ele>
        <time>2022-08-15T15:08:17Z</time>
      </trkpt>
      <trkpt lat="44.80413" lon="1.21055">
        <ele>138.9</ele>
        <time>2022-08-15T15:08:19Z</time>
      </trkpt>
      <trkpt lat="44.80412" lon="1.21049">
        <ele>138.6</ele>
        <time>2022-08-15T15:08:21Z</time>
      </trkpt>
      <trkpt lat="44.80408" lon="1.21043">
        <ele>139.8</ele>
        <time>2022-08-15T15:08:23Z</time>
      </trkpt>
      <trkpt lat="44.80406" lon="1.21036">
        <ele>139.8</ele>
        <time>2022-08-15T15:08:25Z</time>
      </trkpt>
      <trkpt lat="44.80406" lon="1.2103">
        <ele>139.1</ele>
        <time>2022-08-15T15:08:27Z</time>
      </trkpt>
      <trkpt lat="44.80404" lon="1.21025">
        <ele>139.3</ele>
        <time>2022-08-15T15:08:29Z</time>
      </trkpt>
      <trkpt lat="44.80401" lon="1.21019">
        <ele>139.5</ele>
        <time>2022-08-15T15:08:31Z</time>
      </trkpt>
      <trkpt lat="44.80399" lon="1.21013">
        <ele>139.6</ele>
        <time>2022-08-15T15:08:33Z</time>
      </trkpt>
      <trkpt lat="44.80398" lon="1.21005">
        <ele>139.3</ele>
        <time>2022-08-15T15:08:35Z</time>
      </trkpt>
      <trkpt lat="44.80396" lon="1.20999">
        <ele>139.1</ele>
        <time>2022-08-15T15:08:37Z</time>
      </trkpt>
      <trkpt lat="44.80393" lon="1.20994">
        <ele>139.6</ele>
        <time>2022-08-15T15:08:39Z</time>
      </trkpt>
      <trkpt lat="44.80391" lon="1.2099">
        <ele>139.8</ele>
        <time>2022-08-15T15:08:41Z</time>
      </trkpt>
      <trkpt lat="44.80388" lon="1.20985">
        <ele>140.2</ele>
        <time>2022-08-15T15:08:43Z</time>
      </trkpt>
      <trkpt lat="44.80386" lon="1.20978">
        <ele>139.8</ele>
        <time>2022-08-15T15:08:45Z</time>
      </trkpt>
      <trkpt lat="44.80383" lon="1.20972">
        <ele>139.8</ele>
        <time>2022-08-15T15:08:47Z</time>
      </trkpt>
      <trkpt lat="44.80381" lon="1.20966">
        <ele>139.3</ele>
        <time>2022-08-15T15:08:49Z</time>
      </trkpt>
      <trkpt lat="44.80378" lon="1.20961">
        <ele>139.8</ele>
        <time>2022-08-15T15:08:51Z</time>
      </trkpt>
      <trkpt lat="44.80375" lon="1.20955">
        <ele>140.1</ele>
        <time>2022-08-15T15:08:53Z</time>
      </trkpt>
      <trkpt lat="44.80372" lon="1.2095">
        <ele>140.9</ele>
        <time>2022-08-15T15:08:55Z</time>
      </trkpt>
      <trkpt lat="44.80369" lon="1.20942">
        <ele>140.7</ele>
        <time>2022-08-15T15:08:57Z</time>
      </trkpt>
      <trkpt lat="44.80366" lon="1.20938">
        <ele>141.6</ele>
        <time>2022-08-15T15:08:59Z</time>
      </trkpt>
      <trkpt lat="44.80362" lon="1.20932">
        <ele>142.4</ele>
        <time>2022-08-15T15:09:01Z</time>
      </trkpt>
      <trkpt lat="44.80358" lon="1.2093">
        <ele>144</ele>
        <time>2022-08-15T15:09:03Z</time>
      </trkpt>
      <trkpt lat="44.80355" lon="1.20923">
        <ele>144.5</ele>
        <time>2022-08-15T15:09:05Z</time>
      </trkpt>
      <trkpt lat="44.8035" lon="1.2092">
        <ele>146.3</ele>
        <time>2022-08-15T15:09:07Z</time>
      </trkpt>
      <trkpt lat="44.80347" lon="1.20914">
        <ele>146.8</ele>
        <time>2022-08-15T15:09:09Z</time>
      </trkpt>
      <trkpt lat="44.80345" lon="1.2091">
        <ele>147.2</ele>
        <time>2022-08-15T15:09:11Z</time>
      </trkpt>
      <trkpt lat="44.80341" lon="1.20903">
        <ele>148</ele>
        <time>2022-08-15T15:09:13Z</time>
      </trkpt>
      <trkpt lat="44.80335" lon="1.209">
        <ele>150.5</ele>
        <time>2022-08-15T15:09:15Z</time>
      </trkpt>
      <trkpt lat="44.80333" lon="1.20894">
        <ele>150.3</ele>
        <time>2022-08-15T15:09:17Z</time>
      </trkpt>
      <trkpt lat="44.8033" lon="1.20886">
        <ele>150</ele>
        <time>2022-08-15T15:09:19Z</time>
      </trkpt>
      <trkpt lat="44.80326" lon="1.20879">
        <ele>150.2</ele>
        <time>2022-08-15T15:09:21Z</time>
      </trkpt>
      <trkpt lat="44.80324" lon="1.20875">
        <ele>150.4</ele>
        <time>2022-08-15T15:09:23Z</time>
      </trkpt>
      <trkpt lat="44.80322" lon="1.20868">
        <ele>149.8</ele>
        <time>2022-08-15T15:09:25Z</time>
      </trkpt>
      <trkpt lat="44.80319" lon="1.2086">
        <ele>149.8</ele>
        <time>2022-08-15T15:09:27Z</time>
      </trkpt>
      <trkpt lat="44.80316" lon="1.20854">
        <ele>149.8</ele>
        <time>2022-08-15T15:09:29Z</time>
      </trkpt>
      <trkpt lat="44.80314" lon="1.20847">
        <ele>149.4</ele>
        <time>2022-08-15T15:09:31Z</time>
      </trkpt>
      <trkpt lat="44.80312" lon="1.2084">
        <ele>149.2</ele>
        <time>2022-08-15T15:09:33Z</time>
      </trkpt>
      <trkpt lat="44.8031" lon="1.20835">
        <ele>149</ele>
        <time>2022-08-15T15:09:35Z</time>
      </trkpt>
      <trkpt lat="44.80308" lon="1.20827">
        <ele>148.4</ele>
        <time>2022-08-15T15:09:37Z</time>
      </trkpt>
      <trkpt lat="44.80305" lon="1.20821">
        <ele>148.1</ele>
        <time>2022-08-15T15:09:39Z</time>
      </trkpt>
      <trkpt lat="44.80303" lon="1.20813">
        <ele>146.8</ele>
        <time>2022-08-15T15:09:41Z</time>
      </trkpt>
      <trkpt lat="44.80301" lon="1.20806">
        <ele>146.3</ele>
        <time>2022-08-15T15:09:43Z</time>
      </trkpt>
      <trkpt lat="44.80298" lon="1.20801">
        <ele>146.4</ele>
        <time>2022-08-15T15:09:45Z</time>
      </trkpt>
      <trkpt lat="44.80296" lon="1.20794">
        <ele>145.6</ele>
        <time>2022-08-15T15:09:47Z</time>
      </trkpt>
      <trkpt lat="44.80293" lon="1.20788">
        <ele>146.5</ele>
        <time>2022-08-15T15:09:49Z</time>
      </trkpt>
      <trkpt lat="44.80289" lon="1.20782">
        <ele>146.7</ele>
        <time>2022-08-15T15:09:51Z</time>
      </trkpt>
      <trkpt lat="44.80287" lon="1.20776">
        <ele>146.5</ele>
        <time>2022-08-15T15:09:53Z</time>
      </trkpt>
      <trkpt lat="44.80286" lon="1.20769">
        <ele>145.7</ele>
        <time>2022-08-15T15:09:55Z</time>
      </trkpt>
      <trkpt lat="44.80284" lon="1.20762">
        <ele>145</ele>
        <time>2022-08-15T15:09:57Z</time>
      </trkpt>
      <trkpt lat="44.80281" lon="1.20758">
        <ele>146.1</ele>
        <time>2022-08-15T15:09:59Z</time>
      </trkpt>
      <trkpt lat="44.80277" lon="1.2075">
        <ele>146.3</ele>
        <time>2022-08-15T15:10:01Z</time>
      </trkpt>
      <trkpt lat="44.80275" lon="1.20743">
        <ele>145.5</ele>
        <time>2022-08-15T15:10:03Z</time>
      </trkpt>
      <trkpt lat="44.80273" lon="1.20737">
        <ele>145.7</ele>
        <time>2022-08-15T15:10:05Z</time>
      </trkpt>
      <trkpt lat="44.80269" lon="1.20731">
        <ele>146.7</ele>
        <time>2022-08-15T15:10:07Z</time>
      </trkpt>
      <trkpt lat="44.80267" lon="1.20726">
        <ele>146.6</ele>
        <time>2022-08-15T15:10:09Z</time>
      </trkpt>
      <trkpt lat="44.80265" lon="1.20719">
        <ele>145.7</ele>
        <time>2022-08-15T15:10:11Z</time>
      </trkpt>
      <trkpt lat="44.80263" lon="1.20711">
        <ele>145.4</ele>
        <time>2022-08-15T15:10:13Z</time>
      </trkpt>
      <trkpt lat="44.8026" lon="1.20706">
        <ele>145.9</ele>
        <time>2022-08-15T15:10:15Z</time>
      </trkpt>
      <trkpt lat="44.80258" lon="1.20699">
        <ele>145.3</ele>
        <time>2022-08-15T15:10:17Z</time>
      </trkpt>
      <trkpt lat="44.80255" lon="1.20694">
        <ele>145.8</ele>
        <time>2022-08-15T15:10:19Z</time>
      </trkpt>
      <trkpt lat="44.80252" lon="1.20689">
        <ele>146.5</ele>
        <time>2022-08-15T15:10:21Z</time>
      </trkpt>
      <trkpt lat="44.80249" lon="1.20683">
        <ele>146.7</ele>
        <time>2022-08-15T15:10:23Z</time>
      </trkpt>
      <trkpt lat="44.80245" lon="1.20679">
        <ele>147.2</ele>
        <time>2022-08-15T15:10:25Z</time>
      </trkpt>
      <trkpt lat="44.80241" lon="1.20673">
        <ele>147.5</ele>
        <time>2022-08-15T15:10:27Z</time>
      </trkpt>
      <trkpt lat="44.80238" lon="1.2067">
        <ele>148.1</ele>
        <time>2022-08-15T15:10:29Z</time>
      </trkpt>
      <trkpt lat="44.80234" lon="1.20667">
        <ele>148.9</ele>
        <time>2022-08-15T15:10:31Z</time>
      </trkpt>
      <trkpt lat="44.8023" lon="1.20665">
        <ele>150</ele>
        <time>2022-08-15T15:10:33Z</time>
      </trkpt>
      <trkpt lat="44.80227" lon="1.2066">
        <ele>150.5</ele>
        <time>2022-08-15T15:10:35Z</time>
      </trkpt>
      <trkpt lat="44.80222" lon="1.20655">
        <ele>151.2</ele>
        <time>2022-08-15T15:10:37Z</time>
      </trkpt>
      <trkpt lat="44.80218" lon="1.20653">
        <ele>152.7</ele>
        <time>2022-08-15T15:10:39Z</time>
      </trkpt>
      <trkpt lat="44.80215" lon="1.20649">
        <ele>153.2</ele>
        <time>2022-08-15T15:10:41Z</time>
      </trkpt>
      <trkpt lat="44.80211" lon="1.20644">
        <ele>153.5</ele>
        <time>2022-08-15T15:10:43Z</time>
      </trkpt>
      <trkpt lat="44.80207" lon="1.20639">
        <ele>154</ele>
        <time>2022-08-15T15:10:45Z</time>
      </trkpt>
      <trkpt lat="44.80204" lon="1.20634">
        <ele>153.9</ele>
        <time>2022-08-15T15:10:47Z</time>
      </trkpt>
      <trkpt lat="44.802" lon="1.20628">
        <ele>154.5</ele>
        <time>2022-08-15T15:10:49Z</time>
      </trkpt>
      <trkpt lat="44.80195" lon="1.20624">
        <ele>155.7</ele>
        <time>2022-08-15T15:10:51Z</time>
      </trkpt>
      <trkpt lat="44.80191" lon="1.2062">
        <ele>156.5</ele>
        <time>2022-08-15T15:10:53Z</time>
      </trkpt>
      <trkpt lat="44.80187" lon="1.20615">
        <ele>157.1</ele>
        <time>2022-08-15T15:10:55Z</time>
      </trkpt>
      <trkpt lat="44.80185" lon="1.20607">
        <ele>155.8</ele>
        <time>2022-08-15T15:10:57Z</time>
      </trkpt>
      <trkpt lat="44.80183" lon="1.20601">
        <ele>155.4</ele>
        <time>2022-08-15T15:10:59Z</time>
      </trkpt>
      <trkpt lat="44.80179" lon="1.20595">
        <ele>155.6</ele>
        <time>2022-08-15T15:11:01Z</time>
      </trkpt>
      <trkpt lat="44.80176" lon="1.2059">
        <ele>155.7</ele>
        <time>2022-08-15T15:11:03Z</time>
      </trkpt>
      <trkpt lat="44.80173" lon="1.20585">
        <ele>155.7</ele>
        <time>2022-08-15T15:11:05Z</time>
      </trkpt>
      <trkpt lat="44.80171" lon="1.20578">
        <ele>154.4</ele>
        <time>2022-08-15T15:11:07Z</time>
      </trkpt>
      <trkpt lat="44.8017" lon="1.20571">
        <ele>152.9</ele>
        <time>2022-08-15T15:11:09Z</time>
      </trkpt>
      <trkpt lat="44.80167" lon="1.20566">
        <ele>152.8</ele>
        <time>2022-08-15T15:11:11Z</time>
      </trkpt>
      <trkpt lat="44.80163" lon="1.20564">
        <ele>151.3</ele>
        <time>2022-08-15T15:11:13Z</time>
      </trkpt>
      <trkpt lat="44.80158" lon="1.2056">
        <ele>149.4</ele>
        <time>2022-08-15T15:11:15Z</time>
      </trkpt>
      <trkpt lat="44.80154" lon="1.20558">
        <ele>147.7</ele>
        <time>2022-08-15T15:11:17Z</time>
      </trkpt>
      <trkpt lat="44.80149" lon="1.20556">
        <ele>146.4</ele>
        <time>2022-08-15T15:11:19Z</time>
      </trkpt>
      <trkpt lat="44.80145" lon="1.20555">
        <ele>145.2</ele>
        <time>2022-08-15T15:11:21Z</time>
      </trkpt>
      <trkpt lat="44.80141" lon="1.20556">
        <ele>144.4</ele>
        <time>2022-08-15T15:11:23Z</time>
      </trkpt>
      <trkpt lat="44.80136" lon="1.20557">
        <ele>143.9</ele>
        <time>2022-08-15T15:11:25Z</time>
      </trkpt>
      <trkpt lat="44.80132" lon="1.2056">
        <ele>143.8</ele>
        <time>2022-08-15T15:11:27Z</time>
      </trkpt>
      <trkpt lat="44.80128" lon="1.20562">
        <ele>143.9</ele>
        <time>2022-08-15T15:11:29Z</time>
      </trkpt>
      <trkpt lat="44.80123" lon="1.20565">
        <ele>143.8</ele>
        <time>2022-08-15T15:11:31Z</time>
      </trkpt>
      <trkpt lat="44.80119" lon="1.20567">
        <ele>143.9</ele>
        <time>2022-08-15T15:11:33Z</time>
      </trkpt>
      <trkpt lat="44.80116" lon="1.20571">
        <ele>144.5</ele>
        <time>2022-08-15T15:11:35Z</time>
      </trkpt>
      <trkpt lat="44.80112" lon="1.20574">
        <ele>144.9</ele>
        <time>2022-08-15T15:11:37Z</time>
      </trkpt>
      <trkpt lat="44.80109" lon="1.20578">
        <ele>145.6</ele>
        <time>2022-08-15T15:11:39Z</time>
      </trkpt>
      <trkpt lat="44.80106" lon="1.20582">
        <ele>146.5</ele>
        <time>2022-08-15T15:11:41Z</time>
      </trkpt>
      <trkpt lat="44.80102" lon="1.20587">
        <ele>147</ele>
        <time>2022-08-15T15:11:43Z</time>
      </trkpt>
      <trkpt lat="44.80098" lon="1.20591">
        <ele>147.3</ele>
        <time>2022-08-15T15:11:45Z</time>
      </trkpt>
      <trkpt lat="44.80095" lon="1.20596">
        <ele>147.6</ele>
        <time>2022-08-15T15:11:47Z</time>
      </trkpt>
      <trkpt lat="44.80092" lon="1.20602">
        <ele>148.1</ele>
        <time>2022-08-15T15:11:49Z</time>
      </trkpt>
      <trkpt lat="44.8009" lon="1.20607">
        <ele>148.6</ele>
        <time>2022-08-15T15:11:51Z</time>
      </trkpt>
      <trkpt lat="44.80087" lon="1.20612">
        <ele>149.1</ele>
        <time>2022-08-15T15:11:53Z</time>
      </trkpt>
      <trkpt lat="44.80086" lon="1.20617">
        <ele>149.7</ele>
        <time>2022-08-15T15:11:55Z</time>
      </trkpt>
      <trkpt lat="44.80084" lon="1.20622">
        <ele>150.1</ele>
        <time>2022-08-15T15:11:57Z</time>
      </trkpt>
      <trkpt lat="44.80082" lon="1.20628">
        <ele>150.4</ele>
        <time>2022-08-15T15:11:59Z</time>
      </trkpt>
      <trkpt lat="44.80081" lon="1.20633">
        <ele>150.8</ele>
        <time>2022-08-15T15:12:01Z</time>
      </trkpt>
      <trkpt lat="44.8008" lon="1.20639">
        <ele>151.4</ele>
        <time>2022-08-15T15:12:03Z</time>
      </trkpt>
      <trkpt lat="44.8008" lon="1.20644">
        <ele>152</ele>
        <time>2022-08-15T15:12:05Z</time>
      </trkpt>
      <trkpt lat="44.80079" lon="1.2065">
        <ele>153.1</ele>
        <time>2022-08-15T15:12:07Z</time>
      </trkpt>
      <trkpt lat="44.8008" lon="1.20657">
        <ele>154.5</ele>
        <time>2022-08-15T15:12:09Z</time>
      </trkpt>
      <trkpt lat="44.80081" lon="1.20663">
        <ele>156</ele>
        <time>2022-08-15T15:12:11Z</time>
      </trkpt>
      <trkpt lat="44.80082" lon="1.20669">
        <ele>157.3</ele>
        <time>2022-08-15T15:12:13Z</time>
      </trkpt>
      <trkpt lat="44.80083" lon="1.20674">
        <ele>157.7</ele>
        <time>2022-08-15T15:12:15Z</time>
      </trkpt>
      <trkpt lat="44.80085" lon="1.2068">
        <ele>157.7</ele>
        <time>2022-08-15T15:12:17Z</time>
      </trkpt>
      <trkpt lat="44.80086" lon="1.20686">
        <ele>157.9</ele>
        <time>2022-08-15T15:12:19Z</time>
      </trkpt>
      <trkpt lat="44.80088" lon="1.20692">
        <ele>158.1</ele>
        <time>2022-08-15T15:12:21Z</time>
      </trkpt>
      <trkpt lat="44.8009" lon="1.20697">
        <ele>158.3</ele>
        <time>2022-08-15T15:12:23Z</time>
      </trkpt>
      <trkpt lat="44.80091" lon="1.20703">
        <ele>158.6</ele>
        <time>2022-08-15T15:12:25Z</time>
      </trkpt>
      <trkpt lat="44.80094" lon="1.20709">
        <ele>159.2</ele>
        <time>2022-08-15T15:12:27Z</time>
      </trkpt>
      <trkpt lat="44.80096" lon="1.20715">
        <ele>159.7</ele>
        <time>2022-08-15T15:12:29Z</time>
      </trkpt>
      <trkpt lat="44.80098" lon="1.20721">
        <ele>160.2</ele>
        <time>2022-08-15T15:12:31Z</time>
      </trkpt>
      <trkpt lat="44.801" lon="1.20727">
        <ele>160.8</ele>
        <time>2022-08-15T15:12:33Z</time>
      </trkpt>
      <trkpt lat="44.80102" lon="1.20732">
        <ele>161.3</ele>
        <time>2022-08-15T15:12:35Z</time>
      </trkpt>
      <trkpt lat="44.80103" lon="1.20738">
        <ele>161.8</ele>
        <time>2022-08-15T15:12:37Z</time>
      </trkpt>
      <trkpt lat="44.80105" lon="1.20744">
        <ele>162.2</ele>
        <time>2022-08-15T15:12:39Z</time>
      </trkpt>
      <trkpt lat="44.80107" lon="1.20749">
        <ele>163</ele>
        <time>2022-08-15T15:12:41Z</time>
      </trkpt>
      <trkpt lat="44.80108" lon="1.20755">
        <ele>162.8</ele>
        <time>2022-08-15T15:12:43Z</time>
      </trkpt>
      <trkpt lat="44.8011" lon="1.20762">
        <ele>162.7</ele>
        <time>2022-08-15T15:12:45Z</time>
      </trkpt>
      <trkpt lat="44.80113" lon="1.20767">
        <ele>163.1</ele>
        <time>2022-08-15T15:12:47Z</time>
      </trkpt>
      <trkpt lat="44.80115" lon="1.20773">
        <ele>163.2</ele>
        <time>2022-08-15T15:12:49Z</time>
      </trkpt>
      <trkpt lat="44.80119" lon="1.20778">
        <ele>163.7</ele>
        <time>2022-08-15T15:12:51Z</time>
      </trkpt>
      <trkpt lat="44.8012" lon="1.20785">
        <ele>163.4</ele>
        <time>2022-08-15T15:12:53Z</time>
      </trkpt>
      <trkpt lat="44.80124" lon="1.20791">
        <ele>163.9</ele>
        <time>2022-08-15T15:12:55Z</time>
      </trkpt>
      <trkpt lat="44.80126" lon="1.20796">
        <ele>164.1</ele>
        <time>2022-08-15T15:12:57Z</time>
      </trkpt>
      <trkpt lat="44.80128" lon="1.20801">
        <ele>164.1</ele>
        <time>2022-08-15T15:12:59Z</time>
      </trkpt>
      <trkpt lat="44.8013" lon="1.20807">
        <ele>164.3</ele>
        <time>2022-08-15T15:13:01Z</time>
      </trkpt>
      <trkpt lat="44.80133" lon="1.20812">
        <ele>164.5</ele>
        <time>2022-08-15T15:13:03Z</time>
      </trkpt>
      <trkpt lat="44.80136" lon="1.20817">
        <ele>164.9</ele>
        <time>2022-08-15T15:13:05Z</time>
      </trkpt>
      <trkpt lat="44.80138" lon="1.20821">
        <ele>165.5</ele>
        <time>2022-08-15T15:13:07Z</time>
      </trkpt>
      <trkpt lat="44.80141" lon="1.20825">
        <ele>166</ele>
        <time>2022-08-15T15:13:09Z</time>
      </trkpt>
      <trkpt lat="44.80144" lon="1.2083">
        <ele>166.5</ele>
        <time>2022-08-15T15:13:11Z</time>
      </trkpt>
      <trkpt lat="44.80147" lon="1.20833">
        <ele>167.3</ele>
        <time>2022-08-15T15:13:13Z</time>
      </trkpt>
      <trkpt lat="44.80151" lon="1.20837">
        <ele>168</ele>
        <time>2022-08-15T15:13:15Z</time>
      </trkpt>
      <trkpt lat="44.80154" lon="1.20841">
        <ele>168.7</ele>
        <time>2022-08-15T15:13:17Z</time>
      </trkpt>
      <trkpt lat="44.80157" lon="1.20844">
        <ele>169.5</ele>
        <time>2022-08-15T15:13:19Z</time>
      </trkpt>
      <trkpt lat="44.80161" lon="1.20848">
        <ele>170.3</ele>
        <time>2022-08-15T15:13:21Z</time>
      </trkpt>
      <trkpt lat="44.80165" lon="1.20851">
        <ele>171.1</ele>
        <time>2022-08-15T15:13:23Z</time>
      </trkpt>
      <trkpt lat="44.80168" lon="1.20855">
        <ele>171.5</ele>
        <time>2022-08-15T15:13:25Z</time>
      </trkpt>
      <trkpt lat="44.80172" lon="1.20859">
        <ele>171.5</ele>
        <time>2022-08-15T15:13:27Z</time>
      </trkpt>
      <trkpt lat="44.80176" lon="1.20863">
        <ele>171.4</ele>
        <time>2022-08-15T15:13:29Z</time>
      </trkpt>
      <trkpt lat="44.80178" lon="1.20867">
        <ele>171.2</ele>
        <time>2022-08-15T15:13:31Z</time>
      </trkpt>
      <trkpt lat="44.80181" lon="1.20872">
        <ele>171.1</ele>
        <time>2022-08-15T15:13:33Z</time>
      </trkpt>
      <trkpt lat="44.80184" lon="1.20876">
        <ele>171</ele>
        <time>2022-08-15T15:13:35Z</time>
      </trkpt>
      <trkpt lat="44.80185" lon="1.20881">
        <ele>170.8</ele>
        <time>2022-08-15T15:13:37Z</time>
      </trkpt>
      <trkpt lat="44.80189" lon="1.20886">
        <ele>171.1</ele>
        <time>2022-08-15T15:13:39Z</time>
      </trkpt>
      <trkpt lat="44.8019" lon="1.20891">
        <ele>171</ele>
        <time>2022-08-15T15:13:41Z</time>
      </trkpt>
      <trkpt lat="44.80194" lon="1.20895">
        <ele>171.4</ele>
        <time>2022-08-15T15:13:43Z</time>
      </trkpt>
      <trkpt lat="44.80196" lon="1.209">
        <ele>171.6</ele>
        <time>2022-08-15T15:13:45Z</time>
      </trkpt>
      <trkpt lat="44.80198" lon="1.20905">
        <ele>171.8</ele>
        <time>2022-08-15T15:13:47Z</time>
      </trkpt>
      <trkpt lat="44.80199" lon="1.2091">
        <ele>171.9</ele>
        <time>2022-08-15T15:13:49Z</time>
      </trkpt>
      <trkpt lat="44.80201" lon="1.20916">
        <ele>172.2</ele>
        <time>2022-08-15T15:13:51Z</time>
      </trkpt>
      <trkpt lat="44.80202" lon="1.20921">
        <ele>172.5</ele>
        <time>2022-08-15T15:13:53Z</time>
      </trkpt>
      <trkpt lat="44.80202" lon="1.20927">
        <ele>172.6</ele>
        <time>2022-08-15T15:13:55Z</time>
      </trkpt>
      <trkpt lat="44.80202" lon="1.20933">
        <ele>172.8</ele>
        <time>2022-08-15T15:13:57Z</time>
      </trkpt>
      <trkpt lat="44.80202" lon="1.20939">
        <ele>173</ele>
        <time>2022-08-15T15:13:59Z</time>
      </trkpt>
      <trkpt lat="44.80202" lon="1.20945">
        <ele>173</ele>
        <time>2022-08-15T15:14:01Z</time>
      </trkpt>
      <trkpt lat="44.80201" lon="1.20951">
        <ele>173.1</ele>
        <time>2022-08-15T15:14:03Z</time>
      </trkpt>
      <trkpt lat="44.80201" lon="1.20957">
        <ele>173</ele>
        <time>2022-08-15T15:14:05Z</time>
      </trkpt>
      <trkpt lat="44.802" lon="1.20964">
        <ele>172.8</ele>
        <time>2022-08-15T15:14:07Z</time>
      </trkpt>
      <trkpt lat="44.80198" lon="1.2097">
        <ele>172.3</ele>
        <time>2022-08-15T15:14:09Z</time>
      </trkpt>
      <trkpt lat="44.80196" lon="1.20977">
        <ele>171.8</ele>
        <time>2022-08-15T15:14:11Z</time>
      </trkpt>
      <trkpt lat="44.80194" lon="1.20984">
        <ele>171.6</ele>
        <time>2022-08-15T15:14:13Z</time>
      </trkpt>
      <trkpt lat="44.80193" lon="1.20989">
        <ele>171.3</ele>
        <time>2022-08-15T15:14:15Z</time>
      </trkpt>
      <trkpt lat="44.80192" lon="1.20995">
        <ele>171.1</ele>
        <time>2022-08-15T15:14:17Z</time>
      </trkpt>
      <trkpt lat="44.80191" lon="1.21001">
        <ele>170.9</ele>
        <time>2022-08-15T15:14:19Z</time>
      </trkpt>
      <trkpt lat="44.8019" lon="1.21007">
        <ele>171.2</ele>
        <time>2022-08-15T15:14:21Z</time>
      </trkpt>
      <trkpt lat="44.8019" lon="1.21013">
        <ele>171.5</ele>
        <time>2022-08-15T15:14:23Z</time>
      </trkpt>
      <trkpt lat="44.80189" lon="1.21019">
        <ele>171.6</ele>
        <time>2022-08-15T15:14:25Z</time>
      </trkpt>
      <trkpt lat="44.80188" lon="1.21025">
        <ele>171.8</ele>
        <time>2022-08-15T15:14:27Z</time>
      </trkpt>
      <trkpt lat="44.80188" lon="1.21031">
        <ele>172.4</ele>
        <time>2022-08-15T15:14:29Z</time>
      </trkpt>
      <trkpt lat="44.80187" lon="1.21037">
        <ele>172.4</ele>
        <time>2022-08-15T15:14:31Z</time>
      </trkpt>
      <trkpt lat="44.80187" lon="1.21043">
        <ele>172.9</ele>
        <time>2022-08-15T15:14:33Z</time>
      </trkpt>
      <trkpt lat="44.80186" lon="1.21049">
        <ele>173.2</ele>
        <time>2022-08-15T15:14:35Z</time>
      </trkpt>
      <trkpt lat="44.80186" lon="1.21055">
        <ele>173.6</ele>
        <time>2022-08-15T15:14:37Z</time>
      </trkpt>
      <trkpt lat="44.80186" lon="1.21061">
        <ele>174</ele>
        <time>2022-08-15T15:14:39Z</time>
      </trkpt>
      <trkpt lat="44.80186" lon="1.21067">
        <ele>174.5</ele>
        <time>2022-08-15T15:14:41Z</time>
      </trkpt>
      <trkpt lat="44.80186" lon="1.21074">
        <ele>175</ele>
        <time>2022-08-15T15:14:43Z</time>
      </trkpt>
      <trkpt lat="44.80185" lon="1.21081">
        <ele>175.2</ele>
        <time>2022-08-15T15:14:45Z</time>
      </trkpt>
      <trkpt lat="44.80186" lon="1.21088">
        <ele>176.1</ele>
        <time>2022-08-15T15:14:47Z</time>
      </trkpt>
      <trkpt lat="44.80185" lon="1.21095">
        <ele>176.6</ele>
        <time>2022-08-15T15:14:49Z</time>
      </trkpt>
      <trkpt lat="44.80184" lon="1.21101">
        <ele>177</ele>
        <time>2022-08-15T15:14:51Z</time>
      </trkpt>
      <trkpt lat="44.80183" lon="1.21107">
        <ele>177.3</ele>
        <time>2022-08-15T15:14:53Z</time>
      </trkpt>
      <trkpt lat="44.80183" lon="1.21113">
        <ele>178</ele>
        <time>2022-08-15T15:14:55Z</time>
      </trkpt>
      <trkpt lat="44.80183" lon="1.2112">
        <ele>178.8</ele>
        <time>2022-08-15T15:14:57Z</time>
      </trkpt>
      <trkpt lat="44.80183" lon="1.21127">
        <ele>179.6</ele>
        <time>2022-08-15T15:14:59Z</time>
      </trkpt>
      <trkpt lat="44.80182" lon="1.21133">
        <ele>180.1</ele>
        <time>2022-08-15T15:15:01Z</time>
      </trkpt>
      <trkpt lat="44.80182" lon="1.21141">
        <ele>180.8</ele>
        <time>2022-08-15T15:15:03Z</time>
      </trkpt>
      <trkpt lat="44.8018" lon="1.21148">
        <ele>181.3</ele>
        <time>2022-08-15T15:15:05Z</time>
      </trkpt>
      <trkpt lat="44.80179" lon="1.21155">
        <ele>181.7</ele>
        <time>2022-08-15T15:15:07Z</time>
      </trkpt>
      <trkpt lat="44.80177" lon="1.2116">
        <ele>181.9</ele>
        <time>2022-08-15T15:15:09Z</time>
      </trkpt>
      <trkpt lat="44.80174" lon="1.21166">
        <ele>181.7</ele>
        <time>2022-08-15T15:15:11Z</time>
      </trkpt>
      <trkpt lat="44.8017" lon="1.21172">
        <ele>181.6</ele>
        <time>2022-08-15T15:15:13Z</time>
      </trkpt>
      <trkpt lat="44.80167" lon="1.21177">
        <ele>181.4</ele>
        <time>2022-08-15T15:15:15Z</time>
      </trkpt>
      <trkpt lat="44.80163" lon="1.21182">
        <ele>180.7</ele>
        <time>2022-08-15T15:15:17Z</time>
      </trkpt>
      <trkpt lat="44.80159" lon="1.21188">
        <ele>180</ele>
        <time>2022-08-15T15:15:19Z</time>
      </trkpt>
      <trkpt lat="44.80156" lon="1.21194">
        <ele>179.6</ele>
        <time>2022-08-15T15:15:21Z</time>
      </trkpt>
      <trkpt lat="44.80152" lon="1.21199">
        <ele>179</ele>
        <time>2022-08-15T15:15:23Z</time>
      </trkpt>
      <trkpt lat="44.80149" lon="1.21204">
        <ele>178.6</ele>
        <time>2022-08-15T15:15:25Z</time>
      </trkpt>
      <trkpt lat="44.80147" lon="1.21209">
        <ele>178.6</ele>
        <time>2022-08-15T15:15:27Z</time>
      </trkpt>
      <trkpt lat="44.80145" lon="1.21215">
        <ele>178.5</ele>
        <time>2022-08-15T15:15:29Z</time>
      </trkpt>
      <trkpt lat="44.80143" lon="1.2122">
        <ele>178.7</ele>
        <time>2022-08-15T15:15:31Z</time>
      </trkpt>
      <trkpt lat="44.80141" lon="1.21226">
        <ele>178.8</ele>
        <time>2022-08-15T15:15:33Z</time>
      </trkpt>
      <trkpt lat="44.80139" lon="1.21232">
        <ele>179.1</ele>
        <time>2022-08-15T15:15:35Z</time>
      </trkpt>
      <trkpt lat="44.80137" lon="1.21237">
        <ele>179.4</ele>
        <time>2022-08-15T15:15:37Z</time>
      </trkpt>
      <trkpt lat="44.80136" lon="1.21243">
        <ele>179.9</ele>
        <time>2022-08-15T15:15:39Z</time>
      </trkpt>
      <trkpt lat="44.80134" lon="1.21249">
        <ele>180</ele>
        <time>2022-08-15T15:15:41Z</time>
      </trkpt>
      <trkpt lat="44.80131" lon="1.21255">
        <ele>180.2</ele>
        <time>2022-08-15T15:15:43Z</time>
      </trkpt>
      <trkpt lat="44.8013" lon="1.21261">
        <ele>180.6</ele>
        <time>2022-08-15T15:15:45Z</time>
      </trkpt>
      <trkpt lat="44.80128" lon="1.21267">
        <ele>180.8</ele>
        <time>2022-08-15T15:15:47Z</time>
      </trkpt>
      <trkpt lat="44.80126" lon="1.21273">
        <ele>181.1</ele>
        <time>2022-08-15T15:15:49Z</time>
      </trkpt>
      <trkpt lat="44.80125" lon="1.21278">
        <ele>181.3</ele>
        <time>2022-08-15T15:15:51Z</time>
      </trkpt>
      <trkpt lat="44.80123" lon="1.21283">
        <ele>181.6</ele>
        <time>2022-08-15T15:15:53Z</time>
      </trkpt>
      <trkpt lat="44.80122" lon="1.21289">
        <ele>181.9</ele>
        <time>2022-08-15T15:15:55Z</time>
      </trkpt>
      <trkpt lat="44.8012" lon="1.21294">
        <ele>182.2</ele>
        <time>2022-08-15T15:15:57Z</time>
      </trkpt>
      <trkpt lat="44.80117" lon="1.213">
        <ele>182.4</ele>
        <time>2022-08-15T15:15:59Z</time>
      </trkpt>
      <trkpt lat="44.80116" lon="1.21305">
        <ele>182.9</ele>
        <time>2022-08-15T15:16:01Z</time>
      </trkpt>
      <trkpt lat="44.80115" lon="1.21308">
        <ele>183</ele>
        <time>2022-08-15T15:16:03Z</time>
      </trkpt>
      <trkpt lat="44.80114" lon="1.21311">
        <ele>183.2</ele>
        <time>2022-08-15T15:16:05Z</time>
      </trkpt>
      <trkpt lat="44.80114" lon="1.2131">
        <ele>183.1</ele>
        <time>2022-08-15T15:16:07Z</time>
      </trkpt>
      <trkpt lat="44.80114" lon="1.21309">
        <ele>182.9</ele>
        <time>2022-08-15T15:16:09Z</time>
      </trkpt>
      <trkpt lat="44.80113" lon="1.21309">
        <ele>182.8</ele>
        <time>2022-08-15T15:16:11Z</time>
      </trkpt>
      <trkpt lat="44.80105" lon="1.21327">
        <ele>183.6</ele>
        <time>2022-08-15T15:17:13Z</time>
      </trkpt>
      <trkpt lat="44.80103" lon="1.21332">
        <ele>184</ele>
        <time>2022-08-15T15:17:15Z</time>
      </trkpt>
      <trkpt lat="44.80102" lon="1.21338">
        <ele>184.5</ele>
        <time>2022-08-15T15:17:17Z</time>
      </trkpt>
      <trkpt lat="44.801" lon="1.21342">
        <ele>184.7</ele>
        <time>2022-08-15T15:17:19Z</time>
      </trkpt>
      <trkpt lat="44.801" lon="1.21347">
        <ele>185.2</ele>
        <time>2022-08-15T15:17:21Z</time>
      </trkpt>
      <trkpt lat="44.80101" lon="1.21351">
        <ele>185.9</ele>
        <time>2022-08-15T15:17:23Z</time>
      </trkpt>
      <trkpt lat="44.80103" lon="1.21354">
        <ele>186.8</ele>
        <time>2022-08-15T15:17:25Z</time>
      </trkpt>
      <trkpt lat="44.80106" lon="1.21357">
        <ele>187.6</ele>
        <time>2022-08-15T15:17:27Z</time>
      </trkpt>
      <trkpt lat="44.80109" lon="1.21357">
        <ele>188.1</ele>
        <time>2022-08-15T15:17:29Z</time>
      </trkpt>
      <trkpt lat="44.8011" lon="1.2136">
        <ele>188.8</ele>
        <time>2022-08-15T15:17:31Z</time>
      </trkpt>
      <trkpt lat="44.80112" lon="1.21364">
        <ele>189.4</ele>
        <time>2022-08-15T15:17:33Z</time>
      </trkpt>
      <trkpt lat="44.80112" lon="1.21368">
        <ele>189.9</ele>
        <time>2022-08-15T15:17:35Z</time>
      </trkpt>
      <trkpt lat="44.80113" lon="1.21372">
        <ele>190.5</ele>
        <time>2022-08-15T15:17:37Z</time>
      </trkpt>
      <trkpt lat="44.80114" lon="1.21377">
        <ele>191.1</ele>
        <time>2022-08-15T15:17:39Z</time>
      </trkpt>
      <trkpt lat="44.80115" lon="1.21379">
        <ele>191.5</ele>
        <time>2022-08-15T15:17:41Z</time>
      </trkpt>
      <trkpt lat="44.80115" lon="1.21383">
        <ele>192</ele>
        <time>2022-08-15T15:17:43Z</time>
      </trkpt>
      <trkpt lat="44.80112" lon="1.21386">
        <ele>191.9</ele>
        <time>2022-08-15T15:17:45Z</time>
      </trkpt>
      <trkpt lat="44.80109" lon="1.21388">
        <ele>191.6</ele>
        <time>2022-08-15T15:17:47Z</time>
      </trkpt>
      <trkpt lat="44.80106" lon="1.2139">
        <ele>191.4</ele>
        <time>2022-08-15T15:17:49Z</time>
      </trkpt>
      <trkpt lat="44.80102" lon="1.21392">
        <ele>191.1</ele>
        <time>2022-08-15T15:17:51Z</time>
      </trkpt>
      <trkpt lat="44.80099" lon="1.21394">
        <ele>190.9</ele>
        <time>2022-08-15T15:17:53Z</time>
      </trkpt>
      <trkpt lat="44.80096" lon="1.21396">
        <ele>190.7</ele>
        <time>2022-08-15T15:17:55Z</time>
      </trkpt>
      <trkpt lat="44.80093" lon="1.21399">
        <ele>190.6</ele>
        <time>2022-08-15T15:17:57Z</time>
      </trkpt>
      <trkpt lat="44.80089" lon="1.214">
        <ele>190.3</ele>
        <time>2022-08-15T15:17:59Z</time>
      </trkpt>
      <trkpt lat="44.80085" lon="1.21402">
        <ele>190.1</ele>
        <time>2022-08-15T15:18:01Z</time>
      </trkpt>
      <trkpt lat="44.80081" lon="1.21405">
        <ele>189.9</ele>
        <time>2022-08-15T15:18:03Z</time>
      </trkpt>
      <trkpt lat="44.80076" lon="1.21405">
        <ele>189.1</ele>
        <time>2022-08-15T15:18:05Z</time>
      </trkpt>
      <trkpt lat="44.80071" lon="1.21406">
        <ele>188.3</ele>
        <time>2022-08-15T15:18:07Z</time>
      </trkpt>
      <trkpt lat="44.80065" lon="1.21408">
        <ele>187.7</ele>
        <time>2022-08-15T15:18:09Z</time>
      </trkpt>
      <trkpt lat="44.8006" lon="1.21411">
        <ele>187.3</ele>
        <time>2022-08-15T15:18:11Z</time>
      </trkpt>
      <trkpt lat="44.80056" lon="1.21415">
        <ele>187</ele>
        <time>2022-08-15T15:18:13Z</time>
      </trkpt>
      <trkpt lat="44.8005" lon="1.21419">
        <ele>186.3</ele>
        <time>2022-08-15T15:18:15Z</time>
      </trkpt>
      <trkpt lat="44.80045" lon="1.21424">
        <ele>185.4</ele>
        <time>2022-08-15T15:18:17Z</time>
      </trkpt>
      <trkpt lat="44.80041" lon="1.21432">
        <ele>184.4</ele>
        <time>2022-08-15T15:18:19Z</time>
      </trkpt>
      <trkpt lat="44.80039" lon="1.21439">
        <ele>183.8</ele>
        <time>2022-08-15T15:18:21Z</time>
      </trkpt>
      <trkpt lat="44.80042" lon="1.21446">
        <ele>184.1</ele>
        <time>2022-08-15T15:18:23Z</time>
      </trkpt>
      <trkpt lat="44.80047" lon="1.2145">
        <ele>184.9</ele>
        <time>2022-08-15T15:18:25Z</time>
      </trkpt>
      <trkpt lat="44.80052" lon="1.21453">
        <ele>185.8</ele>
        <time>2022-08-15T15:18:27Z</time>
      </trkpt>
      <trkpt lat="44.80057" lon="1.21455">
        <ele>186.7</ele>
        <time>2022-08-15T15:18:29Z</time>
      </trkpt>
      <trkpt lat="44.80062" lon="1.21457">
        <ele>187.6</ele>
        <time>2022-08-15T15:18:31Z</time>
      </trkpt>
      <trkpt lat="44.80067" lon="1.21459">
        <ele>188.4</ele>
        <time>2022-08-15T15:18:33Z</time>
      </trkpt>
      <trkpt lat="44.80072" lon="1.2146">
        <ele>189.3</ele>
        <time>2022-08-15T15:18:35Z</time>
      </trkpt>
      <trkpt lat="44.80075" lon="1.2146">
        <ele>189.9</ele>
        <time>2022-08-15T15:18:37Z</time>
      </trkpt>
      <trkpt lat="44.8008" lon="1.21459">
        <ele>190.9</ele>
        <time>2022-08-15T15:18:39Z</time>
      </trkpt>
      <trkpt lat="44.80085" lon="1.21458">
        <ele>191.7</ele>
        <time>2022-08-15T15:18:41Z</time>
      </trkpt>
      <trkpt lat="44.80089" lon="1.21458">
        <ele>192.1</ele>
        <time>2022-08-15T15:18:43Z</time>
      </trkpt>
      <trkpt lat="44.80093" lon="1.21459">
        <ele>192.6</ele>
        <time>2022-08-15T15:18:45Z</time>
      </trkpt>
      <trkpt lat="44.80097" lon="1.21459">
        <ele>193.2</ele>
        <time>2022-08-15T15:18:47Z</time>
      </trkpt>
      <trkpt lat="44.80101" lon="1.2146">
        <ele>193.6</ele>
        <time>2022-08-15T15:18:49Z</time>
      </trkpt>
      <trkpt lat="44.80103" lon="1.2146">
        <ele>193.9</ele>
        <time>2022-08-15T15:18:51Z</time>
      </trkpt>
      <trkpt lat="44.80107" lon="1.21461">
        <ele>194.4</ele>
        <time>2022-08-15T15:18:53Z</time>
      </trkpt>
      <trkpt lat="44.80111" lon="1.21462">
        <ele>194.8</ele>
        <time>2022-08-15T15:18:55Z</time>
      </trkpt>
      <trkpt lat="44.80114" lon="1.21462">
        <ele>195.2</ele>
        <time>2022-08-15T15:18:57Z</time>
      </trkpt>
      <trkpt lat="44.80119" lon="1.21462">
        <ele>195.7</ele>
        <time>2022-08-15T15:18:59Z</time>
      </trkpt>
      <trkpt lat="44.80123" lon="1.21462">
        <ele>196.2</ele>
        <time>2022-08-15T15:19:01Z</time>
      </trkpt>
      <trkpt lat="44.80126" lon="1.21461">
        <ele>196.7</ele>
        <time>2022-08-15T15:19:03Z</time>
      </trkpt>
      <trkpt lat="44.8013" lon="1.21464">
        <ele>197.1</ele>
        <time>2022-08-15T15:19:05Z</time>
      </trkpt>
      <trkpt lat="44.80134" lon="1.21464">
        <ele>197.6</ele>
        <time>2022-08-15T15:19:07Z</time>
      </trkpt>
      <trkpt lat="44.80138" lon="1.21464">
        <ele>198.1</ele>
        <time>2022-08-15T15:19:09Z</time>
      </trkpt>
      <trkpt lat="44.80142" lon="1.21468">
        <ele>198.6</ele>
        <time>2022-08-15T15:19:11Z</time>
      </trkpt>
      <trkpt lat="44.80146" lon="1.21471">
        <ele>199.1</ele>
        <time>2022-08-15T15:19:13Z</time>
      </trkpt>
      <trkpt lat="44.80149" lon="1.21474">
        <ele>199.5</ele>
        <time>2022-08-15T15:19:15Z</time>
      </trkpt>
      <trkpt lat="44.80152" lon="1.21476">
        <ele>199.8</ele>
        <time>2022-08-15T15:19:17Z</time>
      </trkpt>
      <trkpt lat="44.80154" lon="1.21479">
        <ele>200.2</ele>
        <time>2022-08-15T15:19:19Z</time>
      </trkpt>
      <trkpt lat="44.80156" lon="1.21482">
        <ele>200.5</ele>
        <time>2022-08-15T15:19:21Z</time>
      </trkpt>
      <trkpt lat="44.80159" lon="1.21486">
        <ele>200.9</ele>
        <time>2022-08-15T15:19:23Z</time>
      </trkpt>
      <trkpt lat="44.80162" lon="1.21488">
        <ele>201.2</ele>
        <time>2022-08-15T15:19:25Z</time>
      </trkpt>
      <trkpt lat="44.80163" lon="1.2149">
        <ele>201.5</ele>
        <time>2022-08-15T15:19:27Z</time>
      </trkpt>
      <trkpt lat="44.80164" lon="1.2149">
        <ele>201.5</ele>
        <time>2022-08-15T15:19:29Z</time>
      </trkpt>
      <trkpt lat="44.80164" lon="1.2149">
        <ele>201.5</ele>
        <time>2022-08-15T15:19:31Z</time>
      </trkpt>
      <trkpt lat="44.80164" lon="1.2149">
        <ele>201.6</ele>
        <time>2022-08-15T15:19:33Z</time>
      </trkpt>
      <trkpt lat="44.80164" lon="1.2149">
        <ele>201.6</ele>
        <time>2022-08-15T15:19:35Z</time>
      </trkpt>
      <trkpt lat="44.80144" lon="1.21478">
        <ele>198.9</ele>
        <time>2022-08-15T16:46:33Z</time>
      </trkpt>
      <trkpt lat="44.80145" lon="1.21478">
        <ele>199</ele>
        <time>2022-08-15T16:46:34Z</time>
      </trkpt>
      <trkpt lat="44.80131" lon="1.2146">
        <ele>197.3</ele>
        <time>2022-08-15T16:46:57Z</time>
      </trkpt>
      <trkpt lat="44.8013" lon="1.21454">
        <ele>197.1</ele>
        <time>2022-08-15T16:46:59Z</time>
      </trkpt>
      <trkpt lat="44.80132" lon="1.21448">
        <ele>197.3</ele>
        <time>2022-08-15T16:47:01Z</time>
      </trkpt>
      <trkpt lat="44.80135" lon="1.21441">
        <ele>197.7</ele>
        <time>2022-08-15T16:47:03Z</time>
      </trkpt>
      <trkpt lat="44.8014" lon="1.21433">
        <ele>198.2</ele>
        <time>2022-08-15T16:47:05Z</time>
      </trkpt>
      <trkpt lat="44.80143" lon="1.21422">
        <ele>198.5</ele>
        <time>2022-08-15T16:47:07Z</time>
      </trkpt>
      <trkpt lat="44.80149" lon="1.21412">
        <ele>198.8</ele>
        <time>2022-08-15T16:47:09Z</time>
      </trkpt>
      <trkpt lat="44.80154" lon="1.21402">
        <ele>198.9</ele>
        <time>2022-08-15T16:47:11Z</time>
      </trkpt>
      <trkpt lat="44.80156" lon="1.21396">
        <ele>198.8</ele>
        <time>2022-08-15T16:47:13Z</time>
      </trkpt>
      <trkpt lat="44.80157" lon="1.21394">
        <ele>198.8</ele>
        <time>2022-08-15T16:47:15Z</time>
      </trkpt>
      <trkpt lat="44.80157" lon="1.21391">
        <ele>198.7</ele>
        <time>2022-08-15T16:47:17Z</time>
      </trkpt>
      <trkpt lat="44.80154" lon="1.21389">
        <ele>198.3</ele>
        <time>2022-08-15T16:47:19Z</time>
      </trkpt>
      <trkpt lat="44.80147" lon="1.21386">
        <ele>197</ele>
        <time>2022-08-15T16:47:21Z</time>
      </trkpt>
      <trkpt lat="44.80139" lon="1.21383">
        <ele>195.5</ele>
        <time>2022-08-15T16:47:23Z</time>
      </trkpt>
      <trkpt lat="44.80132" lon="1.21378">
        <ele>194.1</ele>
        <time>2022-08-15T16:47:25Z</time>
      </trkpt>
      <trkpt lat="44.80126" lon="1.21375">
        <ele>193</ele>
        <time>2022-08-15T16:47:27Z</time>
      </trkpt>
      <trkpt lat="44.8012" lon="1.21371">
        <ele>191.4</ele>
        <time>2022-08-15T16:47:29Z</time>
      </trkpt>
      <trkpt lat="44.80113" lon="1.21365">
        <ele>189.8</ele>
        <time>2022-08-15T16:47:31Z</time>
      </trkpt>
      <trkpt lat="44.80107" lon="1.2136">
        <ele>188</ele>
        <time>2022-08-15T16:47:33Z</time>
      </trkpt>
      <trkpt lat="44.80102" lon="1.21355">
        <ele>186.6</ele>
        <time>2022-08-15T16:47:35Z</time>
      </trkpt>
      <trkpt lat="44.801" lon="1.21347">
        <ele>185.2</ele>
        <time>2022-08-15T16:47:37Z</time>
      </trkpt>
      <trkpt lat="44.80105" lon="1.21337">
        <ele>185.1</ele>
        <time>2022-08-15T16:47:39Z</time>
      </trkpt>
      <trkpt lat="44.80109" lon="1.21327">
        <ele>184.5</ele>
        <time>2022-08-15T16:47:41Z</time>
      </trkpt>
      <trkpt lat="44.80112" lon="1.21315">
        <ele>183.5</ele>
        <time>2022-08-15T16:47:43Z</time>
      </trkpt>
      <trkpt lat="44.80116" lon="1.21306">
        <ele>183</ele>
        <time>2022-08-15T16:47:45Z</time>
      </trkpt>
      <trkpt lat="44.8012" lon="1.21294">
        <ele>182.2</ele>
        <time>2022-08-15T16:47:47Z</time>
      </trkpt>
      <trkpt lat="44.80122" lon="1.2128">
        <ele>180.8</ele>
        <time>2022-08-15T16:47:49Z</time>
      </trkpt>
      <trkpt lat="44.80126" lon="1.21266">
        <ele>179.9</ele>
        <time>2022-08-15T16:47:51Z</time>
      </trkpt>
      <trkpt lat="44.8013" lon="1.21251">
        <ele>179.3</ele>
        <time>2022-08-15T16:47:53Z</time>
      </trkpt>
      <trkpt lat="44.80135" lon="1.21235">
        <ele>178.4</ele>
        <time>2022-08-15T16:47:55Z</time>
      </trkpt>
      <trkpt lat="44.8014" lon="1.21218">
        <ele>177.6</ele>
        <time>2022-08-15T16:47:57Z</time>
      </trkpt>
      <trkpt lat="44.80147" lon="1.21203">
        <ele>177.6</ele>
        <time>2022-08-15T16:47:59Z</time>
      </trkpt>
      <trkpt lat="44.80155" lon="1.21189">
        <ele>178.6</ele>
        <time>2022-08-15T16:48:01Z</time>
      </trkpt>
      <trkpt lat="44.80164" lon="1.21174">
        <ele>179.9</ele>
        <time>2022-08-15T16:48:03Z</time>
      </trkpt>
      <trkpt lat="44.80173" lon="1.2116">
        <ele>180.7</ele>
        <time>2022-08-15T16:48:05Z</time>
      </trkpt>
      <trkpt lat="44.80179" lon="1.21142">
        <ele>180.3</ele>
        <time>2022-08-15T16:48:07Z</time>
      </trkpt>
      <trkpt lat="44.8018" lon="1.21121">
        <ele>178.1</ele>
        <time>2022-08-15T16:48:09Z</time>
      </trkpt>
      <trkpt lat="44.80182" lon="1.211">
        <ele>176.3</ele>
        <time>2022-08-15T16:48:11Z</time>
      </trkpt>
      <trkpt lat="44.80184" lon="1.21079">
        <ele>174.7</ele>
        <time>2022-08-15T16:48:13Z</time>
      </trkpt>
      <trkpt lat="44.80186" lon="1.21057">
        <ele>173.5</ele>
        <time>2022-08-15T16:48:15Z</time>
      </trkpt>
      <trkpt lat="44.80186" lon="1.21033">
        <ele>171.9</ele>
        <time>2022-08-15T16:48:17Z</time>
      </trkpt>
      <trkpt lat="44.80188" lon="1.2101">
        <ele>170.7</ele>
        <time>2022-08-15T16:48:19Z</time>
      </trkpt>
      <trkpt lat="44.80192" lon="1.20986">
        <ele>170.9</ele>
        <time>2022-08-15T16:48:21Z</time>
      </trkpt>
      <trkpt lat="44.80198" lon="1.20963">
        <ele>172.3</ele>
        <time>2022-08-15T16:48:23Z</time>
      </trkpt>
      <trkpt lat="44.80201" lon="1.20942">
        <ele>172.6</ele>
        <time>2022-08-15T16:48:25Z</time>
      </trkpt>
      <trkpt lat="44.80199" lon="1.20918">
        <ele>171.4</ele>
        <time>2022-08-15T16:48:27Z</time>
      </trkpt>
      <trkpt lat="44.80192" lon="1.20894">
        <ele>171.1</ele>
        <time>2022-08-15T16:48:29Z</time>
      </trkpt>
      <trkpt lat="44.80183" lon="1.20874">
        <ele>171.1</ele>
        <time>2022-08-15T16:48:31Z</time>
      </trkpt>
      <trkpt lat="44.8017" lon="1.20857">
        <ele>171.5</ele>
        <time>2022-08-15T16:48:33Z</time>
      </trkpt>
      <trkpt lat="44.80156" lon="1.20841">
        <ele>169.3</ele>
        <time>2022-08-15T16:48:35Z</time>
      </trkpt>
      <trkpt lat="44.8014" lon="1.20826">
        <ele>165.5</ele>
        <time>2022-08-15T16:48:37Z</time>
      </trkpt>
      <trkpt lat="44.80127" lon="1.20808">
        <ele>162.8</ele>
        <time>2022-08-15T16:48:39Z</time>
      </trkpt>
      <trkpt lat="44.80117" lon="1.20783">
        <ele>162.4</ele>
        <time>2022-08-15T16:48:41Z</time>
      </trkpt>
      <trkpt lat="44.80109" lon="1.20759">
        <ele>162.7</ele>
        <time>2022-08-15T16:48:43Z</time>
      </trkpt>
      <trkpt lat="44.80101" lon="1.20734">
        <ele>161.2</ele>
        <time>2022-08-15T16:48:45Z</time>
      </trkpt>
      <trkpt lat="44.80094" lon="1.20709">
        <ele>159.3</ele>
        <time>2022-08-15T16:48:47Z</time>
      </trkpt>
      <trkpt lat="44.80086" lon="1.20685">
        <ele>157.8</ele>
        <time>2022-08-15T16:48:49Z</time>
      </trkpt>
      <trkpt lat="44.80079" lon="1.20665">
        <ele>155.7</ele>
        <time>2022-08-15T16:48:51Z</time>
      </trkpt>
      <trkpt lat="44.80078" lon="1.20642">
        <ele>151.1</ele>
        <time>2022-08-15T16:48:53Z</time>
      </trkpt>
      <trkpt lat="44.80083" lon="1.20621">
        <ele>149.6</ele>
        <time>2022-08-15T16:48:55Z</time>
      </trkpt>
      <trkpt lat="44.80092" lon="1.20601">
        <ele>147.9</ele>
        <time>2022-08-15T16:48:57Z</time>
      </trkpt>
      <trkpt lat="44.80104" lon="1.20584">
        <ele>146.8</ele>
        <time>2022-08-15T16:48:59Z</time>
      </trkpt>
      <trkpt lat="44.80117" lon="1.2057">
        <ele>144.5</ele>
        <time>2022-08-15T16:49:01Z</time>
      </trkpt>
      <trkpt lat="44.80131" lon="1.2056">
        <ele>143.8</ele>
        <time>2022-08-15T16:49:03Z</time>
      </trkpt>
      <trkpt lat="44.80147" lon="1.20558">
        <ele>146.4</ele>
        <time>2022-08-15T16:49:05Z</time>
      </trkpt>
      <trkpt lat="44.80163" lon="1.20568">
        <ele>152.6</ele>
        <time>2022-08-15T16:49:07Z</time>
      </trkpt>
      <trkpt lat="44.80174" lon="1.20586">
        <ele>155.6</ele>
        <time>2022-08-15T16:49:09Z</time>
      </trkpt>
      <trkpt lat="44.80183" lon="1.20605">
        <ele>156.3</ele>
        <time>2022-08-15T16:49:11Z</time>
      </trkpt>
      <trkpt lat="44.80196" lon="1.20623">
        <ele>155.1</ele>
        <time>2022-08-15T16:49:13Z</time>
      </trkpt>
      <trkpt lat="44.80208" lon="1.2064">
        <ele>153.7</ele>
        <time>2022-08-15T16:49:15Z</time>
      </trkpt>
      <trkpt lat="44.80222" lon="1.20657">
        <ele>152</ele>
        <time>2022-08-15T16:49:17Z</time>
      </trkpt>
      <trkpt lat="44.80237" lon="1.20673">
        <ele>148.9</ele>
        <time>2022-08-15T16:49:19Z</time>
      </trkpt>
      <trkpt lat="44.80252" lon="1.20689">
        <ele>146.2</ele>
        <time>2022-08-15T16:49:21Z</time>
      </trkpt>
      <trkpt lat="44.80263" lon="1.20711">
        <ele>145.1</ele>
        <time>2022-08-15T16:49:23Z</time>
      </trkpt>
      <trkpt lat="44.80273" lon="1.20736">
        <ele>145.5</ele>
        <time>2022-08-15T16:49:25Z</time>
      </trkpt>
      <trkpt lat="44.80282" lon="1.2076">
        <ele>145.7</ele>
        <time>2022-08-15T16:49:27Z</time>
      </trkpt>
      <trkpt lat="44.80291" lon="1.20786">
        <ele>146.9</ele>
        <time>2022-08-15T16:49:29Z</time>
      </trkpt>
      <trkpt lat="44.803" lon="1.2081">
        <ele>147.7</ele>
        <time>2022-08-15T16:49:31Z</time>
      </trkpt>
      <trkpt lat="44.8031" lon="1.20834">
        <ele>149.1</ele>
        <time>2022-08-15T16:49:33Z</time>
      </trkpt>
      <trkpt lat="44.80319" lon="1.20859">
        <ele>149.3</ele>
        <time>2022-08-15T16:49:35Z</time>
      </trkpt>
      <trkpt lat="44.80329" lon="1.20883">
        <ele>149.7</ele>
        <time>2022-08-15T16:49:37Z</time>
      </trkpt>
      <trkpt lat="44.80339" lon="1.20906">
        <ele>149.5</ele>
        <time>2022-08-15T16:49:39Z</time>
      </trkpt>
      <trkpt lat="44.80352" lon="1.20926">
        <ele>146.3</ele>
        <time>2022-08-15T16:49:41Z</time>
      </trkpt>
      <trkpt lat="44.80366" lon="1.20943">
        <ele>142.3</ele>
        <time>2022-08-15T16:49:43Z</time>
      </trkpt>
      <trkpt lat="44.80378" lon="1.20966">
        <ele>141.2</ele>
        <time>2022-08-15T16:49:45Z</time>
      </trkpt>
      <trkpt lat="44.80388" lon="1.2099">
        <ele>141.3</ele>
        <time>2022-08-15T16:49:47Z</time>
      </trkpt>
      <trkpt lat="44.80396" lon="1.21016">
        <ele>142</ele>
        <time>2022-08-15T16:49:49Z</time>
      </trkpt>
      <trkpt lat="44.80403" lon="1.21042">
        <ele>142.2</ele>
        <time>2022-08-15T16:49:51Z</time>
      </trkpt>
      <trkpt lat="44.8041" lon="1.21068">
        <ele>142.4</ele>
        <time>2022-08-15T16:49:53Z</time>
      </trkpt>
      <trkpt lat="44.80416" lon="1.21089">
        <ele>142.1</ele>
        <time>2022-08-15T16:49:55Z</time>
      </trkpt>
      <trkpt lat="44.8042" lon="1.21104">
        <ele>141.7</ele>
        <time>2022-08-15T16:49:57Z</time>
      </trkpt>
      <trkpt lat="44.80429" lon="1.21113">
        <ele>137.4</ele>
        <time>2022-08-15T16:49:59Z</time>
      </trkpt>
      <trkpt lat="44.80438" lon="1.21108">
        <ele>131.4</ele>
        <time>2022-08-15T16:50:01Z</time>
      </trkpt>
      <trkpt lat="44.80441" lon="1.21094">
        <ele>127.8</ele>
        <time>2022-08-15T16:50:03Z</time>
      </trkpt>
      <trkpt lat="44.80438" lon="1.21077">
        <ele>127.4</ele>
        <time>2022-08-15T16:50:05Z</time>
      </trkpt>
      <trkpt lat="44.80433" lon="1.21058">
        <ele>127.6</ele>
        <time>2022-08-15T16:50:07Z</time>
      </trkpt>
      <trkpt lat="44.80428" lon="1.21038">
        <ele>128</ele>
        <time>2022-08-15T16:50:09Z</time>
      </trkpt>
      <trkpt lat="44.80422" lon="1.21015">
        <ele>128.2</ele>
        <time>2022-08-15T16:50:11Z</time>
      </trkpt>
      <trkpt lat="44.80417" lon="1.20991">
        <ele>126.5</ele>
        <time>2022-08-15T16:50:13Z</time>
      </trkpt>
      <trkpt lat="44.80411" lon="1.20966">
        <ele>123.5</ele>
        <time>2022-08-15T16:50:15Z</time>
      </trkpt>
      <trkpt lat="44.80406" lon="1.20939">
        <ele>120.1</ele>
        <time>2022-08-15T16:50:17Z</time>
      </trkpt>
      <trkpt lat="44.804" lon="1.20913">
        <ele>117.3</ele>
        <time>2022-08-15T16:50:19Z</time>
      </trkpt>
      <trkpt lat="44.80394" lon="1.20888">
        <ele>115.9</ele>
        <time>2022-08-15T16:50:21Z</time>
      </trkpt>
      <trkpt lat="44.80388" lon="1.20864">
        <ele>114.2</ele>
        <time>2022-08-15T16:50:23Z</time>
      </trkpt>
      <trkpt lat="44.80384" lon="1.20843">
        <ele>112.1</ele>
        <time>2022-08-15T16:50:25Z</time>
      </trkpt>
      <trkpt lat="44.80377" lon="1.20822">
        <ele>111.2</ele>
        <time>2022-08-15T16:50:27Z</time>
      </trkpt>
      <trkpt lat="44.80367" lon="1.20799">
        <ele>110.7</ele>
        <time>2022-08-15T16:50:29Z</time>
      </trkpt>
      <trkpt lat="44.80356" lon="1.20775">
        <ele>109.3</ele>
        <time>2022-08-15T16:50:31Z</time>
      </trkpt>
      <trkpt lat="44.80346" lon="1.20748">
        <ele>106.4</ele>
        <time>2022-08-15T16:50:33Z</time>
      </trkpt>
      <trkpt lat="44.80336" lon="1.2072">
        <ele>103.6</ele>
        <time>2022-08-15T16:50:35Z</time>
      </trkpt>
      <trkpt lat="44.80324" lon="1.2069">
        <ele>102.9</ele>
        <time>2022-08-15T16:50:37Z</time>
      </trkpt>
      <trkpt lat="44.80313" lon="1.20657">
        <ele>101.7</ele>
        <time>2022-08-15T16:50:39Z</time>
      </trkpt>
      <trkpt lat="44.80305" lon="1.20622">
        <ele>100.6</ele>
        <time>2022-08-15T16:50:41Z</time>
      </trkpt>
      <trkpt lat="44.80298" lon="1.2059">
        <ele>99.5</ele>
        <time>2022-08-15T16:50:43Z</time>
      </trkpt>
      <trkpt lat="44.80289" lon="1.20563">
        <ele>99.8</ele>
        <time>2022-08-15T16:50:45Z</time>
      </trkpt>
      <trkpt lat="44.80278" lon="1.20535">
        <ele>100.2</ele>
        <time>2022-08-15T16:50:47Z</time>
      </trkpt>
      <trkpt lat="44.80267" lon="1.20506">
        <ele>99.2</ele>
        <time>2022-08-15T16:50:49Z</time>
      </trkpt>
      <trkpt lat="44.80255" lon="1.20476">
        <ele>96.8</ele>
        <time>2022-08-15T16:50:51Z</time>
      </trkpt>
      <trkpt lat="44.80244" lon="1.20448">
        <ele>93</ele>
        <time>2022-08-15T16:50:53Z</time>
      </trkpt>
      <trkpt lat="44.80236" lon="1.20428">
        <ele>89.7</ele>
        <time>2022-08-15T16:50:55Z</time>
      </trkpt>
      <trkpt lat="44.80227" lon="1.20409">
        <ele>87.3</ele>
        <time>2022-08-15T16:50:57Z</time>
      </trkpt>
      <trkpt lat="44.80221" lon="1.20391">
        <ele>86.1</ele>
        <time>2022-08-15T16:50:59Z</time>
      </trkpt>
      <trkpt lat="44.80217" lon="1.20375">
        <ele>84.5</ele>
        <time>2022-08-15T16:51:01Z</time>
      </trkpt>
      <trkpt lat="44.80216" lon="1.20366">
        <ele>83.3</ele>
        <time>2022-08-15T16:51:03Z</time>
      </trkpt>
      <trkpt lat="44.80215" lon="1.20357">
        <ele>82.2</ele>
        <time>2022-08-15T16:51:05Z</time>
      </trkpt>
      <trkpt lat="44.80213" lon="1.20351">
        <ele>81.5</ele>
        <time>2022-08-15T16:51:07Z</time>
      </trkpt>
      <trkpt lat="44.80213" lon="1.20347">
        <ele>80.9</ele>
        <time>2022-08-15T16:51:09Z</time>
      </trkpt>
      <trkpt lat="44.80216" lon="1.20341">
        <ele>80.1</ele>
        <time>2022-08-15T16:51:11Z</time>
      </trkpt>
      <trkpt lat="44.80224" lon="1.20341">
        <ele>79.9</ele>
        <time>2022-08-15T16:51:13Z</time>
      </trkpt>
      <trkpt lat="44.8023" lon="1.20344">
        <ele>80.1</ele>
        <time>2022-08-15T16:51:15Z</time>
      </trkpt>
      <trkpt lat="44.80238" lon="1.20346">
        <ele>80.1</ele>
        <time>2022-08-15T16:51:17Z</time>
      </trkpt>
      <trkpt lat="44.80247" lon="1.20349">
        <ele>80.1</ele>
        <time>2022-08-15T16:51:19Z</time>
      </trkpt>
      <trkpt lat="44.80255" lon="1.20351">
        <ele>79.7</ele>
        <time>2022-08-15T16:51:21Z</time>
      </trkpt>
      <trkpt lat="44.80263" lon="1.20354">
        <ele>79.2</ele>
        <time>2022-08-15T16:51:23Z</time>
      </trkpt>
      <trkpt lat="44.80271" lon="1.20356">
        <ele>78.7</ele>
        <time>2022-08-15T16:51:25Z</time>
      </trkpt>
      <trkpt lat="44.80279" lon="1.20358">
        <ele>78.2</ele>
        <time>2022-08-15T16:51:27Z</time>
      </trkpt>
      <trkpt lat="44.80287" lon="1.2036">
        <ele>77.7</ele>
        <time>2022-08-15T16:51:29Z</time>
      </trkpt>
      <trkpt lat="44.80296" lon="1.20365">
        <ele>77.1</ele>
        <time>2022-08-15T16:51:31Z</time>
      </trkpt>
      <trkpt lat="44.80304" lon="1.20369">
        <ele>76.5</ele>
        <time>2022-08-15T16:51:33Z</time>
      </trkpt>
      <trkpt lat="44.80312" lon="1.20372">
        <ele>75.9</ele>
        <time>2022-08-15T16:51:35Z</time>
      </trkpt>
      <trkpt lat="44.8032" lon="1.20375">
        <ele>75.2</ele>
        <time>2022-08-15T16:51:37Z</time>
      </trkpt>
      <trkpt lat="44.80328" lon="1.20378">
        <ele>74.5</ele>
        <time>2022-08-15T16:51:39Z</time>
      </trkpt>
      <trkpt lat="44.80336" lon="1.20381">
        <ele>73.9</ele>
        <time>2022-08-15T16:51:41Z</time>
      </trkpt>
      <trkpt lat="44.80344" lon="1.20384">
        <ele>73.7</ele>
        <time>2022-08-15T16:51:43Z</time>
      </trkpt>
      <trkpt lat="44.80353" lon="1.20386">
        <ele>73.4</ele>
        <time>2022-08-15T16:51:45Z</time>
      </trkpt>
      <trkpt lat="44.80361" lon="1.20389">
        <ele>73.2</ele>
        <time>2022-08-15T16:51:47Z</time>
      </trkpt>
      <trkpt lat="44.80369" lon="1.20393">
        <ele>73</ele>
        <time>2022-08-15T16:51:49Z</time>
      </trkpt>
      <trkpt lat="44.80377" lon="1.20395">
        <ele>72.8</ele>
        <time>2022-08-15T16:51:51Z</time>
      </trkpt>
      <trkpt lat="44.80385" lon="1.20398">
        <ele>72.6</ele>
        <time>2022-08-15T16:51:53Z</time>
      </trkpt>
      <trkpt lat="44.80394" lon="1.20401">
        <ele>72.4</ele>
        <time>2022-08-15T16:51:55Z</time>
      </trkpt>
      <trkpt lat="44.80402" lon="1.20405">
        <ele>72.2</ele>
        <time>2022-08-15T16:51:57Z</time>
      </trkpt>
      <trkpt lat="44.80409" lon="1.20408">
        <ele>72.1</ele>
        <time>2022-08-15T16:51:59Z</time>
      </trkpt>
      <trkpt lat="44.80417" lon="1.2041">
        <ele>71.9</ele>
        <time>2022-08-15T16:52:01Z</time>
      </trkpt>
      <trkpt lat="44.80424" lon="1.20412">
        <ele>72.1</ele>
        <time>2022-08-15T16:52:03Z</time>
      </trkpt>
      <trkpt lat="44.80431" lon="1.20413">
        <ele>72.3</ele>
        <time>2022-08-15T16:52:05Z</time>
      </trkpt>
      <trkpt lat="44.80433" lon="1.20423">
        <ele>72.3</ele>
        <time>2022-08-15T16:52:07Z</time>
      </trkpt>
      <trkpt lat="44.80435" lon="1.20435">
        <ele>72.2</ele>
        <time>2022-08-15T16:52:09Z</time>
      </trkpt>
      <trkpt lat="44.80436" lon="1.20446">
        <ele>72</ele>
        <time>2022-08-15T16:52:11Z</time>
      </trkpt>
      <trkpt lat="44.80436" lon="1.20458">
        <ele>71.9</ele>
        <time>2022-08-15T16:52:13Z</time>
      </trkpt>
      <trkpt lat="44.80436" lon="1.20468">
        <ele>71.7</ele>
        <time>2022-08-15T16:52:15Z</time>
      </trkpt>
      <trkpt lat="44.80437" lon="1.20479">
        <ele>71.6</ele>
        <time>2022-08-15T16:52:17Z</time>
      </trkpt>
      <trkpt lat="44.80439" lon="1.20492">
        <ele>71.4</ele>
        <time>2022-08-15T16:52:19Z</time>
      </trkpt>
      <trkpt lat="44.80439" lon="1.20504">
        <ele>71.3</ele>
        <time>2022-08-15T16:52:21Z</time>
      </trkpt>
      <trkpt lat="44.8044" lon="1.20515">
        <ele>71.4</ele>
        <time>2022-08-15T16:52:23Z</time>
      </trkpt>
      <trkpt lat="44.80442" lon="1.20524">
        <ele>71.4</ele>
        <time>2022-08-15T16:52:25Z</time>
      </trkpt>
      <trkpt lat="44.80443" lon="1.20535">
        <ele>71.5</ele>
        <time>2022-08-15T16:52:27Z</time>
      </trkpt>
      <trkpt lat="44.80442" lon="1.20546">
        <ele>71.5</ele>
        <time>2022-08-15T16:52:29Z</time>
      </trkpt>
      <trkpt lat="44.80442" lon="1.20557">
        <ele>71.6</ele>
        <time>2022-08-15T16:52:31Z</time>
      </trkpt>
      <trkpt lat="44.80442" lon="1.20567">
        <ele>71.6</ele>
        <time>2022-08-15T16:52:33Z</time>
      </trkpt>
      <trkpt lat="44.80442" lon="1.20577">
        <ele>71.7</ele>
        <time>2022-08-15T16:52:35Z</time>
      </trkpt>
      <trkpt lat="44.80442" lon="1.20586">
        <ele>71.8</ele>
        <time>2022-08-15T16:52:37Z</time>
      </trkpt>
      <trkpt lat="44.8044" lon="1.20596">
        <ele>72.1</ele>
        <time>2022-08-15T16:52:39Z</time>
      </trkpt>
      <trkpt lat="44.80442" lon="1.20604">
        <ele>72.3</ele>
        <time>2022-08-15T16:52:41Z</time>
      </trkpt>
      <trkpt lat="44.80445" lon="1.20613">
        <ele>72.5</ele>
        <time>2022-08-15T16:52:43Z</time>
      </trkpt>
      <trkpt lat="44.80451" lon="1.20612">
        <ele>72.3</ele>
        <time>2022-08-15T16:52:45Z</time>
      </trkpt>
      <trkpt lat="44.80457" lon="1.2061">
        <ele>72.2</ele>
        <time>2022-08-15T16:52:47Z</time>
      </trkpt>
      <trkpt lat="44.80462" lon="1.20606">
        <ele>72</ele>
        <time>2022-08-15T16:52:49Z</time>
      </trkpt>
      <trkpt lat="44.80467" lon="1.20602">
        <ele>71.8</ele>
        <time>2022-08-15T16:52:51Z</time>
      </trkpt>
      <trkpt lat="44.80472" lon="1.20597">
        <ele>71.6</ele>
        <time>2022-08-15T16:52:53Z</time>
      </trkpt>
      <trkpt lat="44.80478" lon="1.20598">
        <ele>71.5</ele>
        <time>2022-08-15T16:52:55Z</time>
      </trkpt>
      <trkpt lat="44.80481" lon="1.20606">
        <ele>71.6</ele>
        <time>2022-08-15T16:52:57Z</time>
      </trkpt>
      <trkpt lat="44.80482" lon="1.20615">
        <ele>71.8</ele>
        <time>2022-08-15T16:52:59Z</time>
      </trkpt>
      <trkpt lat="44.80482" lon="1.20625">
        <ele>71.9</ele>
        <time>2022-08-15T16:53:01Z</time>
      </trkpt>
      <trkpt lat="44.80482" lon="1.20633">
        <ele>72.1</ele>
        <time>2022-08-15T16:53:03Z</time>
      </trkpt>
      <trkpt lat="44.80482" lon="1.20642">
        <ele>72.2</ele>
        <time>2022-08-15T16:53:05Z</time>
      </trkpt>
      <trkpt lat="44.80482" lon="1.20651">
        <ele>72.4</ele>
        <time>2022-08-15T16:53:07Z</time>
      </trkpt>
      <trkpt lat="44.80482" lon="1.20659">
        <ele>72.5</ele>
        <time>2022-08-15T16:53:09Z</time>
      </trkpt>
      <trkpt lat="44.80482" lon="1.20667">
        <ele>72.7</ele>
        <time>2022-08-15T16:53:11Z</time>
      </trkpt>
      <trkpt lat="44.80483" lon="1.20673">
        <ele>72.7</ele>
        <time>2022-08-15T16:53:13Z</time>
      </trkpt>
      <trkpt lat="44.80483" lon="1.2068">
        <ele>72.8</ele>
        <time>2022-08-15T16:53:15Z</time>
      </trkpt>
      <trkpt lat="44.80484" lon="1.20684">
        <ele>72.9</ele>
        <time>2022-08-15T16:53:17Z</time>
      </trkpt>
      <trkpt lat="44.80486" lon="1.20687">
        <ele>72.9</ele>
        <time>2022-08-15T16:53:19Z</time>
      </trkpt>
      <trkpt lat="44.80489" lon="1.20688">
        <ele>72.8</ele>
        <time>2022-08-15T16:53:21Z</time>
      </trkpt>
      <trkpt lat="44.80492" lon="1.20691">
        <ele>72.7</ele>
        <time>2022-08-15T16:53:23Z</time>
      </trkpt>
      <trkpt lat="44.80492" lon="1.20693">
        <ele>72.7</ele>
        <time>2022-08-15T16:53:25Z</time>
      </trkpt>
      <trkpt lat="44.80492" lon="1.20694">
        <ele>72.7</ele>
        <time>2022-08-15T16:53:27Z</time>
      </trkpt>
      <trkpt lat="44.80492" lon="1.20695">
        <ele>72.7</ele>
        <time>2022-08-15T16:53:29Z</time>
      </trkpt>
      <trkpt lat="44.8049" lon="1.20697">
        <ele>72.8</ele>
        <time>2022-08-15T16:53:31Z</time>
      </trkpt>
    </trkseg>
      <trkpt lat="44.80457" lon="1.20533">
        <ele>70.1884765</ele>
        <time>2022-08-16T10:58:35Z</time>
      </trkpt>
      <trkpt lat="44.80467" lon="1.20501">
        <ele>75.7036132</ele>
        <time>2022-08-16T10:58:36Z</time>
      </trkpt>
      <trkpt lat="44.80455" lon="1.20486">
        <ele>65.3469124</ele>
        <time>2022-08-16T10:58:40Z</time>
      </trkpt>
      <trkpt lat="44.80454" lon="1.20483">
        <ele>63.271347</ele>
        <time>2022-08-16T10:58:42Z</time>
      </trkpt>
      <trkpt lat="44.80455" lon="1.20484">
        <ele>65.6878586</ele>
        <time>2022-08-16T10:58:44Z</time>
      </trkpt>
      <trkpt lat="44.80455" lon="1.20483">
        <ele>64.6293793</ele>
        <time>2022-08-16T10:58:46Z</time>
      </trkpt>
      <trkpt lat="44.80454" lon="1.20482">
        <ele>64.1117325</ele>
        <time>2022-08-16T10:58:48Z</time>
      </trkpt>
      <trkpt lat="44.80454" lon="1.20482">
        <ele>63.9475441</ele>
        <time>2022-08-16T10:58:50Z</time>
      </trkpt>
      <trkpt lat="44.80453" lon="1.20482">
        <ele>67.2284279</ele>
        <time>2022-08-16T10:58:52Z</time>
      </trkpt>
      <trkpt lat="44.80454" lon="1.20484">
        <ele>69.5538177</ele>
        <time>2022-08-16T10:58:54Z</time>
      </trkpt>
      <trkpt lat="44.80455" lon="1.20485">
        <ele>71.3997078</ele>
        <time>2022-08-16T10:58:56Z</time>
      </trkpt>
      <trkpt lat="44.80455" lon="1.20487">
        <ele>72.616085</ele>
        <time>2022-08-16T10:58:58Z</time>
      </trkpt>
      <trkpt lat="44.80459" lon="1.205">
        <ele>62.8248996</ele>
        <time>2022-08-16T10:59:00Z</time>
      </trkpt>
      <trkpt lat="44.80459" lon="1.20498">
        <ele>62.6594914</ele>
        <time>2022-08-16T10:59:02Z</time>
      </trkpt>
      <trkpt lat="44.80458" lon="1.20497">
        <ele>63.1995277</ele>
        <time>2022-08-16T10:59:04Z</time>
      </trkpt>
      <trkpt lat="44.80457" lon="1.20497">
        <ele>63.6187563</ele>
        <time>2022-08-16T10:59:06Z</time>
      </trkpt>
      <trkpt lat="44.80455" lon="1.20497">
        <ele>63.6314317</ele>
        <time>2022-08-16T10:59:08Z</time>
      </trkpt>
      <trkpt lat="44.8045" lon="1.20496">
        <ele>63.9583269</ele>
        <time>2022-08-16T10:59:10Z</time>
      </trkpt>
      <trkpt lat="44.80448" lon="1.2049">
        <ele>63.446692</ele>
        <time>2022-08-16T10:59:12Z</time>
      </trkpt>
      <trkpt lat="44.80444" lon="1.20485">
        <ele>63.1618601</ele>
        <time>2022-08-16T10:59:14Z</time>
      </trkpt>
      <trkpt lat="44.80441" lon="1.20486">
        <ele>63.4998647</ele>
        <time>2022-08-16T10:59:16Z</time>
      </trkpt>
      <trkpt lat="44.80438" lon="1.2049">
        <ele>63.7156205</ele>
        <time>2022-08-16T10:59:18Z</time>
      </trkpt>
      <trkpt lat="44.80438" lon="1.20497">
        <ele>64.8033105</ele>
        <time>2022-08-16T10:59:20Z</time>
      </trkpt>
      <trkpt lat="44.8044" lon="1.20506">
        <ele>64.8337481</ele>
        <time>2022-08-16T10:59:22Z</time>
      </trkpt>
      <trkpt lat="44.80441" lon="1.20514">
        <ele>64.5393925</ele>
        <time>2022-08-16T10:59:24Z</time>
      </trkpt>
      <trkpt lat="44.80442" lon="1.20522">
        <ele>64.0511151</ele>
        <time>2022-08-16T10:59:26Z</time>
      </trkpt>
      <trkpt lat="44.80442" lon="1.20529">
        <ele>63.1691284</ele>
        <time>2022-08-16T10:59:28Z</time>
      </trkpt>
      <trkpt lat="44.80442" lon="1.20536">
        <ele>63.2599912</ele>
        <time>2022-08-16T10:59:30Z</time>
      </trkpt>
      <trkpt lat="44.80442" lon="1.20543">
        <ele>63.5954275</ele>
        <time>2022-08-16T10:59:32Z</time>
      </trkpt>
      <trkpt lat="44.80442" lon="1.20548">
        <ele>63.5352766</ele>
        <time>2022-08-16T10:59:34Z</time>
      </trkpt>
      <trkpt lat="44.80442" lon="1.20554">
        <ele>64.586221</ele>
        <time>2022-08-16T10:59:36Z</time>
      </trkpt>
      <trkpt lat="44.80442" lon="1.2056">
        <ele>64.3685022</ele>
        <time>2022-08-16T10:59:38Z</time>
      </trkpt>
      <trkpt lat="44.80442" lon="1.20568">
        <ele>63.8491984</ele>
        <time>2022-08-16T10:59:40Z</time>
      </trkpt>
      <trkpt lat="44.80441" lon="1.20577">
        <ele>64.4219106</ele>
        <time>2022-08-16T10:59:42Z</time>
      </trkpt>
      <trkpt lat="44.8044" lon="1.20587">
        <ele>64.1101451</ele>
        <time>2022-08-16T10:59:44Z</time>
      </trkpt>
      <trkpt lat="44.80439" lon="1.20597">
        <ele>65.4608949</ele>
        <time>2022-08-16T10:59:46Z</time>
      </trkpt>
      <trkpt lat="44.80439" lon="1.20607">
        <ele>63.8396072</ele>
        <time>2022-08-16T10:59:48Z</time>
      </trkpt>
      <trkpt lat="44.80439" lon="1.20618">
        <ele>63.9489317</ele>
        <time>2022-08-16T10:59:50Z</time>
      </trkpt>
      <trkpt lat="44.8044" lon="1.20629">
        <ele>64.502696</ele>
        <time>2022-08-16T10:59:52Z</time>
      </trkpt>
      <trkpt lat="44.80441" lon="1.2064">
        <ele>65.4342299</ele>
        <time>2022-08-16T10:59:54Z</time>
      </trkpt>
      <trkpt lat="44.80441" lon="1.20651">
        <ele>65.1349943</ele>
        <time>2022-08-16T10:59:56Z</time>
      </trkpt>
      <trkpt lat="44.80442" lon="1.20662">
        <ele>65.0453302</ele>
        <time>2022-08-16T10:59:58Z</time>
      </trkpt>
      <trkpt lat="44.80444" lon="1.20672">
        <ele>65.007973</ele>
        <time>2022-08-16T11:00:00Z</time>
      </trkpt>
      <trkpt lat="44.80445" lon="1.20683">
        <ele>65.2406896</ele>
        <time>2022-08-16T11:00:02Z</time>
      </trkpt>
      <trkpt lat="44.80446" lon="1.20693">
        <ele>65.2811872</ele>
        <time>2022-08-16T11:00:04Z</time>
      </trkpt>
      <trkpt lat="44.80447" lon="1.20704">
        <ele>65.952318</ele>
        <time>2022-08-16T11:00:06Z</time>
      </trkpt>
      <trkpt lat="44.8045" lon="1.20713">
        <ele>65.8236647</ele>
        <time>2022-08-16T11:00:08Z</time>
      </trkpt>
      <trkpt lat="44.80451" lon="1.20724">
        <ele>65.5347641</ele>
        <time>2022-08-16T11:00:10Z</time>
      </trkpt>
      <trkpt lat="44.80453" lon="1.20735">
        <ele>65.4513859</ele>
        <time>2022-08-16T11:00:12Z</time>
      </trkpt>
      <trkpt lat="44.80455" lon="1.20745">
        <ele>65.2754849</ele>
        <time>2022-08-16T11:00:14Z</time>
      </trkpt>
      <trkpt lat="44.80456" lon="1.20754">
        <ele>65.5986308</ele>
        <time>2022-08-16T11:00:16Z</time>
      </trkpt>
      <trkpt lat="44.80458" lon="1.20763">
        <ele>66.0280968</ele>
        <time>2022-08-16T11:00:18Z</time>
      </trkpt>
      <trkpt lat="44.80458" lon="1.20771">
        <ele>66.8494203</ele>
        <time>2022-08-16T11:00:20Z</time>
      </trkpt>
      <trkpt lat="44.80458" lon="1.20779">
        <ele>66.1572657</ele>
        <time>2022-08-16T11:00:22Z</time>
      </trkpt>
      <trkpt lat="44.80459" lon="1.20789">
        <ele>66.3753895</ele>
        <time>2022-08-16T11:00:24Z</time>
      </trkpt>
      <trkpt lat="44.80461" lon="1.20798">
        <ele>66.45566</ele>
        <time>2022-08-16T11:00:26Z</time>
      </trkpt>
      <trkpt lat="44.8046" lon="1.20806">
        <ele>67.0068569</ele>
        <time>2022-08-16T11:00:28Z</time>
      </trkpt>
      <trkpt lat="44.80461" lon="1.20814">
        <ele>67.0207707</ele>
        <time>2022-08-16T11:00:30Z</time>
      </trkpt>
      <trkpt lat="44.80462" lon="1.20823">
        <ele>67.2196527</ele>
        <time>2022-08-16T11:00:32Z</time>
      </trkpt>
      <trkpt lat="44.80464" lon="1.20831">
        <ele>66.6560417</ele>
        <time>2022-08-16T11:00:34Z</time>
      </trkpt>
      <trkpt lat="44.80468" lon="1.2084">
        <ele>66.508295</ele>
        <time>2022-08-16T11:00:36Z</time>
      </trkpt>
      <trkpt lat="44.8047" lon="1.20848">
        <ele>67.4396981</ele>
        <time>2022-08-16T11:00:38Z</time>
      </trkpt>
      <trkpt lat="44.80471" lon="1.20856">
        <ele>67.3682955</ele>
        <time>2022-08-16T11:00:40Z</time>
      </trkpt>
      <trkpt lat="44.80473" lon="1.20865">
        <ele>68.1841319</ele>
        <time>2022-08-16T11:00:42Z</time>
      </trkpt>
      <trkpt lat="44.80473" lon="1.20873">
        <ele>68.1116275</ele>
        <time>2022-08-16T11:00:44Z</time>
      </trkpt>
      <trkpt lat="44.80475" lon="1.20882">
        <ele>68.8007105</ele>
        <time>2022-08-16T11:00:46Z</time>
      </trkpt>
      <trkpt lat="44.80475" lon="1.2089">
        <ele>68.975138</ele>
        <time>2022-08-16T11:00:48Z</time>
      </trkpt>
      <trkpt lat="44.80477" lon="1.209">
        <ele>68.8179789</ele>
        <time>2022-08-16T11:00:50Z</time>
      </trkpt>
      <trkpt lat="44.80477" lon="1.20908">
        <ele>69.3136592</ele>
        <time>2022-08-16T11:00:52Z</time>
      </trkpt>
      <trkpt lat="44.80476" lon="1.20915">
        <ele>69.1592783</ele>
        <time>2022-08-16T11:00:54Z</time>
      </trkpt>
      <trkpt lat="44.80475" lon="1.20917">
        <ele>69.282153</ele>
        <time>2022-08-16T11:00:56Z</time>
      </trkpt>
      <trkpt lat="44.80475" lon="1.20921">
        <ele>69.0693705</ele>
        <time>2022-08-16T11:00:58Z</time>
      </trkpt>
      <trkpt lat="44.80475" lon="1.20925">
        <ele>68.1595774</ele>
        <time>2022-08-16T11:01:00Z</time>
      </trkpt>
      <trkpt lat="44.80477" lon="1.20932">
        <ele>68.3152262</ele>
        <time>2022-08-16T11:01:02Z</time>
      </trkpt>
      <trkpt lat="44.80478" lon="1.20938">
        <ele>68.5469151</ele>
        <time>2022-08-16T11:01:04Z</time>
      </trkpt>
      <trkpt lat="44.80478" lon="1.20945">
        <ele>67.9905307</ele>
        <time>2022-08-16T11:01:06Z</time>
      </trkpt>
      <trkpt lat="44.80478" lon="1.20953">
        <ele>68.5831742</ele>
        <time>2022-08-16T11:01:08Z</time>
      </trkpt>
      <trkpt lat="44.80479" lon="1.20961">
        <ele>69.1141169</ele>
        <time>2022-08-16T11:01:10Z</time>
      </trkpt>
      <trkpt lat="44.80478" lon="1.20969">
        <ele>68.4322149</ele>
        <time>2022-08-16T11:01:12Z</time>
      </trkpt>
      <trkpt lat="44.80479" lon="1.20977">
        <ele>68.3537874</ele>
        <time>2022-08-16T11:01:14Z</time>
      </trkpt>
      <trkpt lat="44.80481" lon="1.20985">
        <ele>68.2109334</ele>
        <time>2022-08-16T11:01:16Z</time>
      </trkpt>
      <trkpt lat="44.80482" lon="1.20994">
        <ele>68.126324</ele>
        <time>2022-08-16T11:01:18Z</time>
      </trkpt>
      <trkpt lat="44.80482" lon="1.21002">
        <ele>67.576379</ele>
        <time>2022-08-16T11:01:20Z</time>
      </trkpt>
      <trkpt lat="44.80485" lon="1.21011">
        <ele>67.5114191</ele>
        <time>2022-08-16T11:01:22Z</time>
      </trkpt>
      <trkpt lat="44.80487" lon="1.2102">
        <ele>67.6288078</ele>
        <time>2022-08-16T11:01:24Z</time>
      </trkpt>
      <trkpt lat="44.8049" lon="1.21028">
        <ele>68.0794232</ele>
        <time>2022-08-16T11:01:26Z</time>
      </trkpt>
      <trkpt lat="44.80492" lon="1.21038">
        <ele>68.5978627</ele>
        <time>2022-08-16T11:01:28Z</time>
      </trkpt>
      <trkpt lat="44.80494" lon="1.21047">
        <ele>69.0785881</ele>
        <time>2022-08-16T11:01:30Z</time>
      </trkpt>
      <trkpt lat="44.80495" lon="1.21056">
        <ele>68.8633658</ele>
        <time>2022-08-16T11:01:32Z</time>
      </trkpt>
      <trkpt lat="44.80496" lon="1.21065">
        <ele>68.7558573</ele>
        <time>2022-08-16T11:01:34Z</time>
      </trkpt>
      <trkpt lat="44.80497" lon="1.21074">
        <ele>68.7605577</ele>
        <time>2022-08-16T11:01:36Z</time>
      </trkpt>
      <trkpt lat="44.80499" lon="1.21083">
        <ele>68.9901155</ele>
        <time>2022-08-16T11:01:38Z</time>
      </trkpt>
      <trkpt lat="44.805" lon="1.2109">
        <ele>68.8035754</ele>
        <time>2022-08-16T11:01:40Z</time>
      </trkpt>
      <trkpt lat="44.805" lon="1.21096">
        <ele>69.4759507</ele>
        <time>2022-08-16T11:01:42Z</time>
      </trkpt>
      <trkpt lat="44.805" lon="1.21099">
        <ele>69.4696211</ele>
        <time>2022-08-16T11:01:44Z</time>
      </trkpt>
      <trkpt lat="44.80503" lon="1.21106">
        <ele>70.0527966</ele>
        <time>2022-08-16T11:01:46Z</time>
      </trkpt>
      <trkpt lat="44.80505" lon="1.21116">
        <ele>69.7921294</ele>
        <time>2022-08-16T11:01:48Z</time>
      </trkpt>
      <trkpt lat="44.80505" lon="1.21124">
        <ele>69.2462694</ele>
        <time>2022-08-16T11:01:50Z</time>
      </trkpt>
      <trkpt lat="44.80506" lon="1.21134">
        <ele>68.9864475</ele>
        <time>2022-08-16T11:01:52Z</time>
      </trkpt>
      <trkpt lat="44.80506" lon="1.21143">
        <ele>68.8064081</ele>
        <time>2022-08-16T11:01:54Z</time>
      </trkpt>
      <trkpt lat="44.80508" lon="1.21153">
        <ele>68.98977</ele>
        <time>2022-08-16T11:01:56Z</time>
      </trkpt>
      <trkpt lat="44.80508" lon="1.21164">
        <ele>69.1152234</ele>
        <time>2022-08-16T11:01:58Z</time>
      </trkpt>
      <trkpt lat="44.80508" lon="1.21174">
        <ele>68.7853953</ele>
        <time>2022-08-16T11:02:00Z</time>
      </trkpt>
      <trkpt lat="44.80509" lon="1.21183">
        <ele>68.8894662</ele>
        <time>2022-08-16T11:02:02Z</time>
      </trkpt>
      <trkpt lat="44.80511" lon="1.21194">
        <ele>69.3925058</ele>
        <time>2022-08-16T11:02:04Z</time>
      </trkpt>
      <trkpt lat="44.80511" lon="1.21203">
        <ele>69.5286109</ele>
        <time>2022-08-16T11:02:06Z</time>
      </trkpt>
      <trkpt lat="44.80513" lon="1.21211">
        <ele>69.4679454</ele>
        <time>2022-08-16T11:02:08Z</time>
      </trkpt>
      <trkpt lat="44.80514" lon="1.21219">
        <ele>68.8336347</ele>
        <time>2022-08-16T11:02:10Z</time>
      </trkpt>
      <trkpt lat="44.80513" lon="1.2123">
        <ele>68.913297</ele>
        <time>2022-08-16T11:02:12Z</time>
      </trkpt>
      <trkpt lat="44.80514" lon="1.21239">
        <ele>68.853271</ele>
        <time>2022-08-16T11:02:14Z</time>
      </trkpt>
      <trkpt lat="44.80516" lon="1.21248">
        <ele>68.9042351</ele>
        <time>2022-08-16T11:02:16Z</time>
      </trkpt>
      <trkpt lat="44.80517" lon="1.21258">
        <ele>68.9823282</ele>
        <time>2022-08-16T11:02:18Z</time>
      </trkpt>
      <trkpt lat="44.80516" lon="1.21268">
        <ele>68.4993011</ele>
        <time>2022-08-16T11:02:20Z</time>
      </trkpt>
      <trkpt lat="44.80518" lon="1.21278">
        <ele>68.5605456</ele>
        <time>2022-08-16T11:02:22Z</time>
      </trkpt>
      <trkpt lat="44.80518" lon="1.21289">
        <ele>68.1508313</ele>
        <time>2022-08-16T11:02:24Z</time>
      </trkpt>
      <trkpt lat="44.80519" lon="1.21301">
        <ele>68.7706794</ele>
        <time>2022-08-16T11:02:26Z</time>
      </trkpt>
      <trkpt lat="44.8052" lon="1.21312">
        <ele>68.2971692</ele>
        <time>2022-08-16T11:02:28Z</time>
      </trkpt>
      <trkpt lat="44.80521" lon="1.21322">
        <ele>68.1001013</ele>
        <time>2022-08-16T11:02:30Z</time>
      </trkpt>
      <trkpt lat="44.80522" lon="1.21333">
        <ele>68.3774623</ele>
        <time>2022-08-16T11:02:32Z</time>
      </trkpt>
      <trkpt lat="44.80522" lon="1.21344">
        <ele>68.2533218</ele>
        <time>2022-08-16T11:02:34Z</time>
      </trkpt>
      <trkpt lat="44.80523" lon="1.21356">
        <ele>68.3363621</ele>
        <time>2022-08-16T11:02:36Z</time>
      </trkpt>
      <trkpt lat="44.80522" lon="1.21366">
        <ele>68.638096</ele>
        <time>2022-08-16T11:02:38Z</time>
      </trkpt>
      <trkpt lat="44.80522" lon="1.21376">
        <ele>68.513566</ele>
        <time>2022-08-16T11:02:40Z</time>
      </trkpt>
      <trkpt lat="44.80522" lon="1.21387">
        <ele>68.8901678</ele>
        <time>2022-08-16T11:02:42Z</time>
      </trkpt>
      <trkpt lat="44.80521" lon="1.21399">
        <ele>69.4819468</ele>
        <time>2022-08-16T11:02:44Z</time>
      </trkpt>
      <trkpt lat="44.8052" lon="1.21409">
        <ele>69.2039574</ele>
        <time>2022-08-16T11:02:46Z</time>
      </trkpt>
      <trkpt lat="44.8052" lon="1.2142">
        <ele>69.7452294</ele>
        <time>2022-08-16T11:02:48Z</time>
      </trkpt>
      <trkpt lat="44.8052" lon="1.21431">
        <ele>69.6649363</ele>
        <time>2022-08-16T11:02:50Z</time>
      </trkpt>
      <trkpt lat="44.80519" lon="1.21442">
        <ele>69.0679141</ele>
        <time>2022-08-16T11:02:52Z</time>
      </trkpt>
      <trkpt lat="44.80518" lon="1.21452">
        <ele>69.1846516</ele>
        <time>2022-08-16T11:02:54Z</time>
      </trkpt>
      <trkpt lat="44.80518" lon="1.21463">
        <ele>69.6947285</ele>
        <time>2022-08-16T11:02:56Z</time>
      </trkpt>
      <trkpt lat="44.80517" lon="1.21473">
        <ele>69.7364953</ele>
        <time>2022-08-16T11:02:58Z</time>
      </trkpt>
      <trkpt lat="44.80517" lon="1.21483">
        <ele>69.5967968</ele>
        <time>2022-08-16T11:03:00Z</time>
      </trkpt>
      <trkpt lat="44.80517" lon="1.21493">
        <ele>69.7092784</ele>
        <time>2022-08-16T11:03:02Z</time>
      </trkpt>
      <trkpt lat="44.80516" lon="1.21503">
        <ele>69.645397</ele>
        <time>2022-08-16T11:03:04Z</time>
      </trkpt>
      <trkpt lat="44.80516" lon="1.21514">
        <ele>69.6251478</ele>
        <time>2022-08-16T11:03:06Z</time>
      </trkpt>
      <trkpt lat="44.80515" lon="1.21525">
        <ele>70.0303351</ele>
        <time>2022-08-16T11:03:08Z</time>
      </trkpt>
      <trkpt lat="44.80515" lon="1.21536">
        <ele>69.5154296</ele>
        <time>2022-08-16T11:03:10Z</time>
      </trkpt>
      <trkpt lat="44.80515" lon="1.21546">
        <ele>69.8336138</ele>
        <time>2022-08-16T11:03:12Z</time>
      </trkpt>
      <trkpt lat="44.80515" lon="1.21556">
        <ele>70.3592753</ele>
        <time>2022-08-16T11:03:14Z</time>
      </trkpt>
      <trkpt lat="44.80515" lon="1.21565">
        <ele>70.5018658</ele>
        <time>2022-08-16T11:03:16Z</time>
      </trkpt>
      <trkpt lat="44.80514" lon="1.21574">
        <ele>70.8683917</ele>
        <time>2022-08-16T11:03:18Z</time>
      </trkpt>
      <trkpt lat="44.80514" lon="1.21582">
        <ele>71.0413332</ele>
        <time>2022-08-16T11:03:20Z</time>
      </trkpt>
      <trkpt lat="44.80512" lon="1.21588">
        <ele>70.7971394</ele>
        <time>2022-08-16T11:03:22Z</time>
      </trkpt>
      <trkpt lat="44.80511" lon="1.21592">
        <ele>70.1828703</ele>
        <time>2022-08-16T11:03:24Z</time>
      </trkpt>
      <trkpt lat="44.80511" lon="1.21593">
        <ele>69.0105542</ele>
        <time>2022-08-16T11:03:26Z</time>
      </trkpt>
      <trkpt lat="44.80512" lon="1.21595">
        <ele>69.1585358</ele>
        <time>2022-08-16T11:03:28Z</time>
      </trkpt>
      <trkpt lat="44.80512" lon="1.21599">
        <ele>68.6750964</ele>
        <time>2022-08-16T11:03:30Z</time>
      </trkpt>
      <trkpt lat="44.80514" lon="1.21606">
        <ele>68.8415859</ele>
        <time>2022-08-16T11:03:32Z</time>
      </trkpt>
      <trkpt lat="44.80515" lon="1.21615">
        <ele>68.6100572</ele>
        <time>2022-08-16T11:03:34Z</time>
      </trkpt>
      <trkpt lat="44.80514" lon="1.21623">
        <ele>68.8856342</ele>
        <time>2022-08-16T11:03:36Z</time>
      </trkpt>
      <trkpt lat="44.80514" lon="1.21631">
        <ele>69.1812596</ele>
        <time>2022-08-16T11:03:38Z</time>
      </trkpt>
      <trkpt lat="44.80514" lon="1.21638">
        <ele>69.9998491</ele>
        <time>2022-08-16T11:03:40Z</time>
      </trkpt>
      <trkpt lat="44.80513" lon="1.21646">
        <ele>70.1829957</ele>
        <time>2022-08-16T11:03:42Z</time>
      </trkpt>
      <trkpt lat="44.80513" lon="1.21654">
        <ele>69.9738291</ele>
        <time>2022-08-16T11:03:44Z</time>
      </trkpt>
      <trkpt lat="44.80513" lon="1.21662">
        <ele>70.4043014</ele>
        <time>2022-08-16T11:03:46Z</time>
      </trkpt>
      <trkpt lat="44.80512" lon="1.2167">
        <ele>70.2650547</ele>
        <time>2022-08-16T11:03:48Z</time>
      </trkpt>
      <trkpt lat="44.80512" lon="1.21678">
        <ele>70.7648644</ele>
        <time>2022-08-16T11:03:50Z</time>
      </trkpt>
      <trkpt lat="44.80511" lon="1.21685">
        <ele>71.0228509</ele>
        <time>2022-08-16T11:03:52Z</time>
      </trkpt>
      <trkpt lat="44.8051" lon="1.21692">
        <ele>71.3424557</ele>
        <time>2022-08-16T11:03:54Z</time>
      </trkpt>
      <trkpt lat="44.8051" lon="1.21699">
        <ele>70.5907973</ele>
        <time>2022-08-16T11:03:56Z</time>
      </trkpt>
      <trkpt lat="44.80509" lon="1.21707">
        <ele>70.7805258</ele>
        <time>2022-08-16T11:03:58Z</time>
      </trkpt>
      <trkpt lat="44.80508" lon="1.21716">
        <ele>70.6528147</ele>
        <time>2022-08-16T11:04:00Z</time>
      </trkpt>
      <trkpt lat="44.80507" lon="1.21725">
        <ele>70.5404293</ele>
        <time>2022-08-16T11:04:02Z</time>
      </trkpt>
      <trkpt lat="44.80507" lon="1.21734">
        <ele>70.2638347</ele>
        <time>2022-08-16T11:04:04Z</time>
      </trkpt>
      <trkpt lat="44.80507" lon="1.21745">
        <ele>70.04757</ele>
        <time>2022-08-16T11:04:06Z</time>
      </trkpt>
      <trkpt lat="44.80506" lon="1.21755">
        <ele>69.4318546</ele>
        <time>2022-08-16T11:04:08Z</time>
      </trkpt>
      <trkpt lat="44.80506" lon="1.21766">
        <ele>69.5461296</ele>
        <time>2022-08-16T11:04:10Z</time>
      </trkpt>
      <trkpt lat="44.80505" lon="1.21776">
        <ele>69.8405151</ele>
        <time>2022-08-16T11:04:12Z</time>
      </trkpt>
      <trkpt lat="44.80505" lon="1.21787">
        <ele>69.626462</ele>
        <time>2022-08-16T11:04:14Z</time>
      </trkpt>
      <trkpt lat="44.80506" lon="1.21797">
        <ele>69.4561165</ele>
        <time>2022-08-16T11:04:16Z</time>
      </trkpt>
      <trkpt lat="44.80507" lon="1.21807">
        <ele>69.5956693</ele>
        <time>2022-08-16T11:04:18Z</time>
      </trkpt>
      <trkpt lat="44.80508" lon="1.21817">
        <ele>69.5958016</ele>
        <time>2022-08-16T11:04:20Z</time>
      </trkpt>
      <trkpt lat="44.80508" lon="1.21827">
        <ele>69.7383484</ele>
        <time>2022-08-16T11:04:22Z</time>
      </trkpt>
      <trkpt lat="44.80509" lon="1.21837">
        <ele>69.6637492</ele>
        <time>2022-08-16T11:04:24Z</time>
      </trkpt>
      <trkpt lat="44.8051" lon="1.21847">
        <ele>69.5021072</ele>
        <time>2022-08-16T11:04:26Z</time>
      </trkpt>
      <trkpt lat="44.80511" lon="1.21857">
        <ele>70.239938</ele>
        <time>2022-08-16T11:04:28Z</time>
      </trkpt>
      <trkpt lat="44.80513" lon="1.21868">
        <ele>70.4005137</ele>
        <time>2022-08-16T11:04:30Z</time>
      </trkpt>
      <trkpt lat="44.80515" lon="1.21879">
        <ele>70.9195635</ele>
        <time>2022-08-16T11:04:32Z</time>
      </trkpt>
      <trkpt lat="44.80519" lon="1.21889">
        <ele>71.8446263</ele>
        <time>2022-08-16T11:04:34Z</time>
      </trkpt>
      <trkpt lat="44.80521" lon="1.21899">
        <ele>71.8006579</ele>
        <time>2022-08-16T11:04:36Z</time>
      </trkpt>
      <trkpt lat="44.80524" lon="1.21909">
        <ele>71.8876231</ele>
        <time>2022-08-16T11:04:38Z</time>
      </trkpt>
      <trkpt lat="44.80527" lon="1.21919">
        <ele>71.8634667</ele>
        <time>2022-08-16T11:04:40Z</time>
      </trkpt>
      <trkpt lat="44.80531" lon="1.21929">
        <ele>72.1964202</ele>
        <time>2022-08-16T11:04:42Z</time>
      </trkpt>
      <trkpt lat="44.80534" lon="1.21939">
        <ele>72.4718</ele>
        <time>2022-08-16T11:04:44Z</time>
      </trkpt>
      <trkpt lat="44.80537" lon="1.21944">
        <ele>71.4710166</ele>
        <time>2022-08-16T11:04:46Z</time>
      </trkpt>
      <trkpt lat="44.80544" lon="1.21946">
        <ele>70.0903061</ele>
        <time>2022-08-16T11:04:48Z</time>
      </trkpt>
      <trkpt lat="44.8055" lon="1.21954">
        <ele>71.8385565</ele>
        <time>2022-08-16T11:04:50Z</time>
      </trkpt>
      <trkpt lat="44.80551" lon="1.21959">
        <ele>71.9502252</ele>
        <time>2022-08-16T11:04:52Z</time>
      </trkpt>
      <trkpt lat="44.80551" lon="1.21967">
        <ele>71.819018</ele>
        <time>2022-08-16T11:04:54Z</time>
      </trkpt>
      <trkpt lat="44.80556" lon="1.21971">
        <ele>72.0391395</ele>
        <time>2022-08-16T11:04:56Z</time>
      </trkpt>
      <trkpt lat="44.80558" lon="1.21973">
        <ele>71.1753843</ele>
        <time>2022-08-16T11:04:58Z</time>
      </trkpt>
      <trkpt lat="44.80558" lon="1.21974">
        <ele>71.6521222</ele>
        <time>2022-08-16T11:05:00Z</time>
      </trkpt>
      <trkpt lat="44.80559" lon="1.21977">
        <ele>71.7267953</ele>
        <time>2022-08-16T11:05:02Z</time>
      </trkpt>
      <trkpt lat="44.80559" lon="1.2198">
        <ele>71.9376996</ele>
        <time>2022-08-16T11:05:04Z</time>
      </trkpt>
      <trkpt lat="44.80559" lon="1.21985">
        <ele>72.0080724</ele>
        <time>2022-08-16T11:05:06Z</time>
      </trkpt>
      <trkpt lat="44.80562" lon="1.21992">
        <ele>71.7497288</ele>
        <time>2022-08-16T11:05:08Z</time>
      </trkpt>
      <trkpt lat="44.80567" lon="1.21998">
        <ele>71.8972551</ele>
        <time>2022-08-16T11:05:10Z</time>
      </trkpt>
      <trkpt lat="44.80571" lon="1.22005">
        <ele>71.9085471</ele>
        <time>2022-08-16T11:05:12Z</time>
      </trkpt>
      <trkpt lat="44.80573" lon="1.22012">
        <ele>70.892608</ele>
        <time>2022-08-16T11:05:14Z</time>
      </trkpt>
      <trkpt lat="44.80576" lon="1.22021">
        <ele>71.4767065</ele>
        <time>2022-08-16T11:05:16Z</time>
      </trkpt>
      <trkpt lat="44.80578" lon="1.22028">
        <ele>71.7160343</ele>
        <time>2022-08-16T11:05:18Z</time>
      </trkpt>
      <trkpt lat="44.8058" lon="1.22036">
        <ele>71.4508804</ele>
        <time>2022-08-16T11:05:20Z</time>
      </trkpt>
      <trkpt lat="44.80583" lon="1.22045">
        <ele>71.9544567</ele>
        <time>2022-08-16T11:05:22Z</time>
      </trkpt>
      <trkpt lat="44.80585" lon="1.22053">
        <ele>71.8418576</ele>
        <time>2022-08-16T11:05:24Z</time>
      </trkpt>
      <trkpt lat="44.80589" lon="1.22062">
        <ele>71.9059164</ele>
        <time>2022-08-16T11:05:26Z</time>
      </trkpt>
      <trkpt lat="44.80592" lon="1.22068">
        <ele>71.6658654</ele>
        <time>2022-08-16T11:05:28Z</time>
      </trkpt>
      <trkpt lat="44.80597" lon="1.22074">
        <ele>71.9387621</ele>
        <time>2022-08-16T11:05:30Z</time>
      </trkpt>
      <trkpt lat="44.80601" lon="1.22077">
        <ele>72.8733897</ele>
        <time>2022-08-16T11:05:32Z</time>
      </trkpt>
      <trkpt lat="44.80604" lon="1.2208">
        <ele>72.429781</ele>
        <time>2022-08-16T11:05:34Z</time>
      </trkpt>
      <trkpt lat="44.80603" lon="1.22087">
        <ele>72.8609116</ele>
        <time>2022-08-16T11:05:36Z</time>
      </trkpt>
      <trkpt lat="44.80602" lon="1.22094">
        <ele>71.5813784</ele>
        <time>2022-08-16T11:05:38Z</time>
      </trkpt>
      <trkpt lat="44.80602" lon="1.22103">
        <ele>71.5808443</ele>
        <time>2022-08-16T11:05:40Z</time>
      </trkpt>
      <trkpt lat="44.80602" lon="1.2211">
        <ele>72.6907618</ele>
        <time>2022-08-16T11:05:42Z</time>
      </trkpt>
      <trkpt lat="44.80602" lon="1.22117">
        <ele>72.6846687</ele>
        <time>2022-08-16T11:05:44Z</time>
      </trkpt>
      <trkpt lat="44.80604" lon="1.22125">
        <ele>72.3697061</ele>
        <time>2022-08-16T11:05:46Z</time>
      </trkpt>
      <trkpt lat="44.80607" lon="1.22133">
        <ele>71.9398899</ele>
        <time>2022-08-16T11:05:48Z</time>
      </trkpt>
      <trkpt lat="44.80608" lon="1.22141">
        <ele>70.6517712</ele>
        <time>2022-08-16T11:05:50Z</time>
      </trkpt>
      <trkpt lat="44.80611" lon="1.22149">
        <ele>70.4922914</ele>
        <time>2022-08-16T11:05:52Z</time>
      </trkpt>
      <trkpt lat="44.80613" lon="1.22157">
        <ele>70.3476513</ele>
        <time>2022-08-16T11:05:54Z</time>
      </trkpt>
      <trkpt lat="44.80616" lon="1.22166">
        <ele>70.0579164</ele>
        <time>2022-08-16T11:05:56Z</time>
      </trkpt>
      <trkpt lat="44.80617" lon="1.22175">
        <ele>69.7044416</ele>
        <time>2022-08-16T11:05:58Z</time>
      </trkpt>
      <trkpt lat="44.80619" lon="1.22183">
        <ele>69.1996846</ele>
        <time>2022-08-16T11:06:00Z</time>
      </trkpt>
      <trkpt lat="44.8062" lon="1.2219">
        <ele>68.3898776</ele>
        <time>2022-08-16T11:06:02Z</time>
      </trkpt>
      <trkpt lat="44.80623" lon="1.22199">
        <ele>67.8653103</ele>
        <time>2022-08-16T11:06:04Z</time>
      </trkpt>
      <trkpt lat="44.80627" lon="1.22209">
        <ele>68.6507879</ele>
        <time>2022-08-16T11:06:06Z</time>
      </trkpt>
      <trkpt lat="44.8063" lon="1.22219">
        <ele>69.5865853</ele>
        <time>2022-08-16T11:06:08Z</time>
      </trkpt>
      <trkpt lat="44.80632" lon="1.22227">
        <ele>70.373955</ele>
        <time>2022-08-16T11:06:10Z</time>
      </trkpt>
      <trkpt lat="44.80636" lon="1.22237">
        <ele>70.2111773</ele>
        <time>2022-08-16T11:06:12Z</time>
      </trkpt>
      <trkpt lat="44.80639" lon="1.22246">
        <ele>70.6531534</ele>
        <time>2022-08-16T11:06:14Z</time>
      </trkpt>
      <trkpt lat="44.80642" lon="1.22255">
        <ele>71.0542414</ele>
        <time>2022-08-16T11:06:16Z</time>
      </trkpt>
      <trkpt lat="44.80646" lon="1.22264">
        <ele>70.6884619</ele>
        <time>2022-08-16T11:06:18Z</time>
      </trkpt>
      <trkpt lat="44.80649" lon="1.22273">
        <ele>70.5601695</ele>
        <time>2022-08-16T11:06:20Z</time>
      </trkpt>
      <trkpt lat="44.80653" lon="1.22282">
        <ele>70.8733442</ele>
        <time>2022-08-16T11:06:22Z</time>
      </trkpt>
      <trkpt lat="44.80657" lon="1.22291">
        <ele>70.8210245</ele>
        <time>2022-08-16T11:06:24Z</time>
      </trkpt>
      <trkpt lat="44.80661" lon="1.223">
        <ele>70.6188558</ele>
        <time>2022-08-16T11:06:26Z</time>
      </trkpt>
      <trkpt lat="44.80665" lon="1.22308">
        <ele>71.1725521</ele>
        <time>2022-08-16T11:06:28Z</time>
      </trkpt>
      <trkpt lat="44.80669" lon="1.22316">
        <ele>70.9042683</ele>
        <time>2022-08-16T11:06:30Z</time>
      </trkpt>
      <trkpt lat="44.80674" lon="1.22324">
        <ele>71.0803588</ele>
        <time>2022-08-16T11:06:32Z</time>
      </trkpt>
      <trkpt lat="44.80678" lon="1.22332">
        <ele>71.6304908</ele>
        <time>2022-08-16T11:06:34Z</time>
      </trkpt>
      <trkpt lat="44.80682" lon="1.2234">
        <ele>72.0319376</ele>
        <time>2022-08-16T11:06:36Z</time>
      </trkpt>
      <trkpt lat="44.80685" lon="1.22347">
        <ele>71.4180325</ele>
        <time>2022-08-16T11:06:38Z</time>
      </trkpt>
      <trkpt lat="44.80689" lon="1.22355">
        <ele>71.5552269</ele>
        <time>2022-08-16T11:06:40Z</time>
      </trkpt>
      <trkpt lat="44.80694" lon="1.22362">
        <ele>71.479968</ele>
        <time>2022-08-16T11:06:42Z</time>
      </trkpt>
      <trkpt lat="44.80698" lon="1.2237">
        <ele>71.6569733</ele>
        <time>2022-08-16T11:06:44Z</time>
      </trkpt>
      <trkpt lat="44.80703" lon="1.22378">
        <ele>71.612903</ele>
        <time>2022-08-16T11:06:46Z</time>
      </trkpt>
      <trkpt lat="44.80707" lon="1.22386">
        <ele>70.9488613</ele>
        <time>2022-08-16T11:06:48Z</time>
      </trkpt>
      <trkpt lat="44.80712" lon="1.22394">
        <ele>71.3630633</ele>
        <time>2022-08-16T11:06:50Z</time>
      </trkpt>
      <trkpt lat="44.80717" lon="1.22402">
        <ele>71.6699397</ele>
        <time>2022-08-16T11:06:52Z</time>
      </trkpt>
      <trkpt lat="44.80723" lon="1.22409">
        <ele>72.1978464</ele>
        <time>2022-08-16T11:06:54Z</time>
      </trkpt>
      <trkpt lat="44.80729" lon="1.22416">
        <ele>72.6575371</ele>
        <time>2022-08-16T11:06:56Z</time>
      </trkpt>
      <trkpt lat="44.80735" lon="1.22423">
        <ele>72.608898</ele>
        <time>2022-08-16T11:06:58Z</time>
      </trkpt>
      <trkpt lat="44.80741" lon="1.2243">
        <ele>72.6391438</ele>
        <time>2022-08-16T11:07:00Z</time>
      </trkpt>
      <trkpt lat="44.80748" lon="1.22436">
        <ele>71.7621805</ele>
        <time>2022-08-16T11:07:02Z</time>
      </trkpt>
      <trkpt lat="44.80754" lon="1.22442">
        <ele>71.7543547</ele>
        <time>2022-08-16T11:07:04Z</time>
      </trkpt>
      <trkpt lat="44.80761" lon="1.22449">
        <ele>70.9815605</ele>
        <time>2022-08-16T11:07:06Z</time>
      </trkpt>
      <trkpt lat="44.80767" lon="1.22455">
        <ele>71.0215722</ele>
        <time>2022-08-16T11:07:08Z</time>
      </trkpt>
      <trkpt lat="44.80775" lon="1.2246">
        <ele>70.6765168</ele>
        <time>2022-08-16T11:07:10Z</time>
      </trkpt>
      <trkpt lat="44.80782" lon="1.22466">
        <ele>70.6914835</ele>
        <time>2022-08-16T11:07:12Z</time>
      </trkpt>
      <trkpt lat="44.8079" lon="1.22472">
        <ele>70.8499331</ele>
        <time>2022-08-16T11:07:14Z</time>
      </trkpt>
      <trkpt lat="44.80798" lon="1.22477">
        <ele>70.6100851</ele>
        <time>2022-08-16T11:07:16Z</time>
      </trkpt>
      <trkpt lat="44.80806" lon="1.22482">
        <ele>70.6548894</ele>
        <time>2022-08-16T11:07:18Z</time>
      </trkpt>
      <trkpt lat="44.80814" lon="1.22486">
        <ele>70.6423237</ele>
        <time>2022-08-16T11:07:20Z</time>
      </trkpt>
      <trkpt lat="44.80823" lon="1.2249">
        <ele>70.3006527</ele>
        <time>2022-08-16T11:07:22Z</time>
      </trkpt>
      <trkpt lat="44.80831" lon="1.22493">
        <ele>70.5878439</ele>
        <time>2022-08-16T11:07:24Z</time>
      </trkpt>
      <trkpt lat="44.8084" lon="1.22495">
        <ele>70.0926641</ele>
        <time>2022-08-16T11:07:26Z</time>
      </trkpt>
      <trkpt lat="44.80849" lon="1.22497">
        <ele>70.0320103</ele>
        <time>2022-08-16T11:07:28Z</time>
      </trkpt>
      <trkpt lat="44.80857" lon="1.22499">
        <ele>70.7140761</ele>
        <time>2022-08-16T11:07:30Z</time>
      </trkpt>
      <trkpt lat="44.80866" lon="1.225">
        <ele>70.673112</ele>
        <time>2022-08-16T11:07:32Z</time>
      </trkpt>
      <trkpt lat="44.80874" lon="1.22502">
        <ele>70.8075469</ele>
        <time>2022-08-16T11:07:34Z</time>
      </trkpt>
      <trkpt lat="44.80883" lon="1.22503">
        <ele>70.1773517</ele>
        <time>2022-08-16T11:07:36Z</time>
      </trkpt>
      <trkpt lat="44.80892" lon="1.22504">
        <ele>69.9888547</ele>
        <time>2022-08-16T11:07:38Z</time>
      </trkpt>
      <trkpt lat="44.80901" lon="1.22504">
        <ele>70.1563488</ele>
        <time>2022-08-16T11:07:40Z</time>
      </trkpt>
      <trkpt lat="44.80911" lon="1.22504">
        <ele>70.3688913</ele>
        <time>2022-08-16T11:07:42Z</time>
      </trkpt>
      <trkpt lat="44.8092" lon="1.22503">
        <ele>70.4848655</ele>
        <time>2022-08-16T11:07:44Z</time>
      </trkpt>
      <trkpt lat="44.8093" lon="1.22501">
        <ele>71.0055266</ele>
        <time>2022-08-16T11:07:46Z</time>
      </trkpt>
      <trkpt lat="44.80939" lon="1.22499">
        <ele>71.5712507</ele>
        <time>2022-08-16T11:07:48Z</time>
      </trkpt>
      <trkpt lat="44.80949" lon="1.22496">
        <ele>71.6367178</ele>
        <time>2022-08-16T11:07:50Z</time>
      </trkpt>
      <trkpt lat="44.80958" lon="1.22491">
        <ele>71.6878334</ele>
        <time>2022-08-16T11:07:52Z</time>
      </trkpt>
      <trkpt lat="44.80967" lon="1.22487">
        <ele>71.3731915</ele>
        <time>2022-08-16T11:07:54Z</time>
      </trkpt>
      <trkpt lat="44.80976" lon="1.22482">
        <ele>71.475898</ele>
        <time>2022-08-16T11:07:56Z</time>
      </trkpt>
      <trkpt lat="44.80985" lon="1.22476">
        <ele>71.5354617</ele>
        <time>2022-08-16T11:07:58Z</time>
      </trkpt>
      <trkpt lat="44.80993" lon="1.2247">
        <ele>71.3772578</ele>
        <time>2022-08-16T11:08:00Z</time>
      </trkpt>
      <trkpt lat="44.81002" lon="1.22463">
        <ele>71.3523552</ele>
        <time>2022-08-16T11:08:02Z</time>
      </trkpt>
      <trkpt lat="44.81011" lon="1.22457">
        <ele>71.4723381</ele>
        <time>2022-08-16T11:08:04Z</time>
      </trkpt>
      <trkpt lat="44.81021" lon="1.2245">
        <ele>71.5403495</ele>
        <time>2022-08-16T11:08:06Z</time>
      </trkpt>
      <trkpt lat="44.8103" lon="1.22443">
        <ele>71.7059445</ele>
        <time>2022-08-16T11:08:08Z</time>
      </trkpt>
      <trkpt lat="44.81038" lon="1.22435">
        <ele>71.8078632</ele>
        <time>2022-08-16T11:08:10Z</time>
      </trkpt>
      <trkpt lat="44.81047" lon="1.2243">
        <ele>71.8617213</ele>
        <time>2022-08-16T11:08:12Z</time>
      </trkpt>
      <trkpt lat="44.81055" lon="1.22424">
        <ele>72.3353736</ele>
        <time>2022-08-16T11:08:14Z</time>
      </trkpt>
      <trkpt lat="44.81063" lon="1.22418">
        <ele>72.3949137</ele>
        <time>2022-08-16T11:08:16Z</time>
      </trkpt>
      <trkpt lat="44.81071" lon="1.22412">
        <ele>72.139675</ele>
        <time>2022-08-16T11:08:18Z</time>
      </trkpt>
      <trkpt lat="44.81079" lon="1.22407">
        <ele>72.1756776</ele>
        <time>2022-08-16T11:08:20Z</time>
      </trkpt>
      <trkpt lat="44.81087" lon="1.22404">
        <ele>72.4921885</ele>
        <time>2022-08-16T11:08:22Z</time>
      </trkpt>
      <trkpt lat="44.81095" lon="1.22401">
        <ele>72.7055134</ele>
        <time>2022-08-16T11:08:24Z</time>
      </trkpt>
      <trkpt lat="44.81102" lon="1.22396">
        <ele>73.2978935</ele>
        <time>2022-08-16T11:08:26Z</time>
      </trkpt>
      <trkpt lat="44.8111" lon="1.22393">
        <ele>73.745689</ele>
        <time>2022-08-16T11:08:28Z</time>
      </trkpt>
      <trkpt lat="44.81117" lon="1.2239">
        <ele>73.9964087</ele>
        <time>2022-08-16T11:08:30Z</time>
      </trkpt>
      <trkpt lat="44.81125" lon="1.22387">
        <ele>74.2875951</ele>
        <time>2022-08-16T11:08:32Z</time>
      </trkpt>
      <trkpt lat="44.81132" lon="1.22384">
        <ele>74.5027364</ele>
        <time>2022-08-16T11:08:34Z</time>
      </trkpt>
      <trkpt lat="44.81139" lon="1.22382">
        <ele>74.6892645</ele>
        <time>2022-08-16T11:08:36Z</time>
      </trkpt>
      <trkpt lat="44.81146" lon="1.2238">
        <ele>74.6692823</ele>
        <time>2022-08-16T11:08:38Z</time>
      </trkpt>
      <trkpt lat="44.81153" lon="1.22379">
        <ele>74.959512</ele>
        <time>2022-08-16T11:08:40Z</time>
      </trkpt>
      <trkpt lat="44.8116" lon="1.22377">
        <ele>75.222838</ele>
        <time>2022-08-16T11:08:42Z</time>
      </trkpt>
      <trkpt lat="44.81166" lon="1.22375">
        <ele>75.2514492</ele>
        <time>2022-08-16T11:08:44Z</time>
      </trkpt>
      <trkpt lat="44.81173" lon="1.22375">
        <ele>75.052839</ele>
        <time>2022-08-16T11:08:46Z</time>
      </trkpt>
      <trkpt lat="44.81178" lon="1.22374">
        <ele>75.214511</ele>
        <time>2022-08-16T11:08:48Z</time>
      </trkpt>
      <trkpt lat="44.81184" lon="1.22373">
        <ele>75.0793895</ele>
        <time>2022-08-16T11:08:50Z</time>
      </trkpt>
      <trkpt lat="44.81189" lon="1.22373">
        <ele>74.9789874</ele>
        <time>2022-08-16T11:08:52Z</time>
      </trkpt>
      <trkpt lat="44.81195" lon="1.22373">
        <ele>75.0031615</ele>
        <time>2022-08-16T11:08:54Z</time>
      </trkpt>
      <trkpt lat="44.812" lon="1.22374">
        <ele>75.1305831</ele>
        <time>2022-08-16T11:08:56Z</time>
      </trkpt>
      <trkpt lat="44.81206" lon="1.22374">
        <ele>75.0379893</ele>
        <time>2022-08-16T11:08:58Z</time>
      </trkpt>
      <trkpt lat="44.81211" lon="1.22375">
        <ele>74.9370746</ele>
        <time>2022-08-16T11:09:00Z</time>
      </trkpt>
      <trkpt lat="44.81217" lon="1.22376">
        <ele>75.2440721</ele>
        <time>2022-08-16T11:09:02Z</time>
      </trkpt>
      <trkpt lat="44.81222" lon="1.22379">
        <ele>75.414939</ele>
        <time>2022-08-16T11:09:04Z</time>
      </trkpt>
      <trkpt lat="44.81228" lon="1.2238">
        <ele>75.6775107</ele>
        <time>2022-08-16T11:09:06Z</time>
      </trkpt>
      <trkpt lat="44.81233" lon="1.22382">
        <ele>75.90344</ele>
        <time>2022-08-16T11:09:08Z</time>
      </trkpt>
      <trkpt lat="44.81239" lon="1.22383">
        <ele>76.2748989</ele>
        <time>2022-08-16T11:09:10Z</time>
      </trkpt>
      <trkpt lat="44.81245" lon="1.22384">
        <ele>76.2449076</ele>
        <time>2022-08-16T11:09:12Z</time>
      </trkpt>
      <trkpt lat="44.81251" lon="1.22386">
        <ele>76.4740141</ele>
        <time>2022-08-16T11:09:14Z</time>
      </trkpt>
      <trkpt lat="44.81256" lon="1.22387">
        <ele>76.592817</ele>
        <time>2022-08-16T11:09:16Z</time>
      </trkpt>
      <trkpt lat="44.81262" lon="1.22388">
        <ele>76.7035826</ele>
        <time>2022-08-16T11:09:18Z</time>
      </trkpt>
      <trkpt lat="44.81267" lon="1.2239">
        <ele>77.056291</ele>
        <time>2022-08-16T11:09:20Z</time>
      </trkpt>
      <trkpt lat="44.81273" lon="1.22391">
        <ele>77.1952337</ele>
        <time>2022-08-16T11:09:22Z</time>
      </trkpt>
      <trkpt lat="44.81278" lon="1.22393">
        <ele>77.5241386</ele>
        <time>2022-08-16T11:09:24Z</time>
      </trkpt>
      <trkpt lat="44.81284" lon="1.22394">
        <ele>77.5649392</ele>
        <time>2022-08-16T11:09:26Z</time>
      </trkpt>
      <trkpt lat="44.8129" lon="1.22394">
        <ele>77.6513657</ele>
        <time>2022-08-16T11:09:28Z</time>
      </trkpt>
      <trkpt lat="44.81295" lon="1.22395">
        <ele>78.1446733</ele>
        <time>2022-08-16T11:09:30Z</time>
      </trkpt>
      <trkpt lat="44.813" lon="1.22396">
        <ele>78.3261146</ele>
        <time>2022-08-16T11:09:32Z</time>
      </trkpt>
      <trkpt lat="44.81306" lon="1.22398">
        <ele>78.3898561</ele>
        <time>2022-08-16T11:09:34Z</time>
      </trkpt>
      <trkpt lat="44.81311" lon="1.22399">
        <ele>78.3606775</ele>
        <time>2022-08-16T11:09:36Z</time>
      </trkpt>
      <trkpt lat="44.81316" lon="1.22401">
        <ele>78.379338</ele>
        <time>2022-08-16T11:09:38Z</time>
      </trkpt>
      <trkpt lat="44.81322" lon="1.22402">
        <ele>78.1387935</ele>
        <time>2022-08-16T11:09:40Z</time>
      </trkpt>
      <trkpt lat="44.81328" lon="1.22403">
        <ele>78.1423256</ele>
        <time>2022-08-16T11:09:42Z</time>
      </trkpt>
      <trkpt lat="44.81333" lon="1.22404">
        <ele>78.072269</ele>
        <time>2022-08-16T11:09:44Z</time>
      </trkpt>
      <trkpt lat="44.81339" lon="1.22404">
        <ele>78.1802784</ele>
        <time>2022-08-16T11:09:46Z</time>
      </trkpt>
      <trkpt lat="44.81346" lon="1.22405">
        <ele>78.1233828</ele>
        <time>2022-08-16T11:09:48Z</time>
      </trkpt>
      <trkpt lat="44.81352" lon="1.22406">
        <ele>77.7348119</ele>
        <time>2022-08-16T11:09:50Z</time>
      </trkpt>
      <trkpt lat="44.81359" lon="1.22407">
        <ele>77.4065084</ele>
        <time>2022-08-16T11:09:52Z</time>
      </trkpt>
      <trkpt lat="44.81366" lon="1.22407">
        <ele>77.6682429</ele>
        <time>2022-08-16T11:09:54Z</time>
      </trkpt>
      <trkpt lat="44.81373" lon="1.22409">
        <ele>77.5614593</ele>
        <time>2022-08-16T11:09:56Z</time>
      </trkpt>
      <trkpt lat="44.8138" lon="1.2241">
        <ele>77.2892159</ele>
        <time>2022-08-16T11:09:58Z</time>
      </trkpt>
      <trkpt lat="44.81388" lon="1.22411">
        <ele>77.7631646</ele>
        <time>2022-08-16T11:10:00Z</time>
      </trkpt>
      <trkpt lat="44.81395" lon="1.22412">
        <ele>77.9338215</ele>
        <time>2022-08-16T11:10:02Z</time>
      </trkpt>
      <trkpt lat="44.81403" lon="1.22413">
        <ele>77.9394107</ele>
        <time>2022-08-16T11:10:04Z</time>
      </trkpt>
      <trkpt lat="44.8141" lon="1.22413">
        <ele>78.3000404</ele>
        <time>2022-08-16T11:10:06Z</time>
      </trkpt>
      <trkpt lat="44.81417" lon="1.22415">
        <ele>78.6050752</ele>
        <time>2022-08-16T11:10:08Z</time>
      </trkpt>
      <trkpt lat="44.81425" lon="1.22416">
        <ele>78.7271858</ele>
        <time>2022-08-16T11:10:10Z</time>
      </trkpt>
      <trkpt lat="44.81433" lon="1.22417">
        <ele>78.8948259</ele>
        <time>2022-08-16T11:10:12Z</time>
      </trkpt>
      <trkpt lat="44.81441" lon="1.22417">
        <ele>79.4968014</ele>
        <time>2022-08-16T11:10:14Z</time>
      </trkpt>
      <trkpt lat="44.8145" lon="1.22417">
        <ele>79.8509971</ele>
        <time>2022-08-16T11:10:16Z</time>
      </trkpt>
      <trkpt lat="44.81458" lon="1.22418">
        <ele>80.0381405</ele>
        <time>2022-08-16T11:10:18Z</time>
      </trkpt>
      <trkpt lat="44.81465" lon="1.2242">
        <ele>80.4888318</ele>
        <time>2022-08-16T11:10:20Z</time>
      </trkpt>
      <trkpt lat="44.81473" lon="1.22422">
        <ele>80.7903515</ele>
        <time>2022-08-16T11:10:22Z</time>
      </trkpt>
      <trkpt lat="44.81482" lon="1.22423">
        <ele>80.4170534</ele>
        <time>2022-08-16T11:10:24Z</time>
      </trkpt>
      <trkpt lat="44.8149" lon="1.22424">
        <ele>80.0819558</ele>
        <time>2022-08-16T11:10:26Z</time>
      </trkpt>
      <trkpt lat="44.81498" lon="1.22426">
        <ele>79.4444836</ele>
        <time>2022-08-16T11:10:28Z</time>
      </trkpt>
      <trkpt lat="44.81507" lon="1.22428">
        <ele>78.844155</ele>
        <time>2022-08-16T11:10:30Z</time>
      </trkpt>
      <trkpt lat="44.81516" lon="1.2243">
        <ele>78.8814029</ele>
        <time>2022-08-16T11:10:32Z</time>
      </trkpt>
      <trkpt lat="44.81524" lon="1.22432">
        <ele>78.944301</ele>
        <time>2022-08-16T11:10:34Z</time>
      </trkpt>
      <trkpt lat="44.81533" lon="1.22433">
        <ele>78.5746116</ele>
        <time>2022-08-16T11:10:36Z</time>
      </trkpt>
      <trkpt lat="44.81542" lon="1.22434">
        <ele>78.5175602</ele>
        <time>2022-08-16T11:10:38Z</time>
      </trkpt>
      <trkpt lat="44.81551" lon="1.22435">
        <ele>78.4434985</ele>
        <time>2022-08-16T11:10:40Z</time>
      </trkpt>
      <trkpt lat="44.81559" lon="1.22437">
        <ele>78.5249628</ele>
        <time>2022-08-16T11:10:42Z</time>
      </trkpt>
      <trkpt lat="44.81567" lon="1.22438">
        <ele>78.7086741</ele>
        <time>2022-08-16T11:10:44Z</time>
      </trkpt>
      <trkpt lat="44.81576" lon="1.22439">
        <ele>78.9879287</ele>
        <time>2022-08-16T11:10:46Z</time>
      </trkpt>
      <trkpt lat="44.81585" lon="1.22442">
        <ele>79.4695939</ele>
        <time>2022-08-16T11:10:48Z</time>
      </trkpt>
      <trkpt lat="44.81594" lon="1.22442">
        <ele>79.3826442</ele>
        <time>2022-08-16T11:10:50Z</time>
      </trkpt>
      <trkpt lat="44.81603" lon="1.22444">
        <ele>79.4306128</ele>
        <time>2022-08-16T11:10:52Z</time>
      </trkpt>
      <trkpt lat="44.81612" lon="1.22445">
        <ele>79.1580119</ele>
        <time>2022-08-16T11:10:54Z</time>
      </trkpt>
      <trkpt lat="44.81621" lon="1.22447">
        <ele>78.9099894</ele>
        <time>2022-08-16T11:10:56Z</time>
      </trkpt>
      <trkpt lat="44.81629" lon="1.22448">
        <ele>78.6997628</ele>
        <time>2022-08-16T11:10:58Z</time>
      </trkpt>
      <trkpt lat="44.81638" lon="1.2245">
        <ele>78.5717134</ele>
        <time>2022-08-16T11:11:00Z</time>
      </trkpt>
      <trkpt lat="44.81647" lon="1.22452">
        <ele>78.3602299</ele>
        <time>2022-08-16T11:11:02Z</time>
      </trkpt>
      <trkpt lat="44.81656" lon="1.22454">
        <ele>78.211817</ele>
        <time>2022-08-16T11:11:04Z</time>
      </trkpt>
      <trkpt lat="44.81664" lon="1.22457">
        <ele>78.2584713</ele>
        <time>2022-08-16T11:11:06Z</time>
      </trkpt>
      <trkpt lat="44.81673" lon="1.22458">
        <ele>78.4968796</ele>
        <time>2022-08-16T11:11:08Z</time>
      </trkpt>
      <trkpt lat="44.81681" lon="1.22461">
        <ele>78.4864334</ele>
        <time>2022-08-16T11:11:10Z</time>
      </trkpt>
      <trkpt lat="44.8169" lon="1.22466">
        <ele>78.5707182</ele>
        <time>2022-08-16T11:11:12Z</time>
      </trkpt>
      <trkpt lat="44.81697" lon="1.22471">
        <ele>78.7600212</ele>
        <time>2022-08-16T11:11:14Z</time>
      </trkpt>
      <trkpt lat="44.81704" lon="1.22478">
        <ele>78.8961074</ele>
        <time>2022-08-16T11:11:16Z</time>
      </trkpt>
      <trkpt lat="44.8171" lon="1.22486">
        <ele>79.147496</ele>
        <time>2022-08-16T11:11:18Z</time>
      </trkpt>
      <trkpt lat="44.81716" lon="1.22494">
        <ele>79.5058529</ele>
        <time>2022-08-16T11:11:20Z</time>
      </trkpt>
      <trkpt lat="44.81721" lon="1.22501">
        <ele>79.7905836</ele>
        <time>2022-08-16T11:11:22Z</time>
      </trkpt>
      <trkpt lat="44.81726" lon="1.2251">
        <ele>79.9551514</ele>
        <time>2022-08-16T11:11:24Z</time>
      </trkpt>
      <trkpt lat="44.81731" lon="1.22518">
        <ele>80.1211332</ele>
        <time>2022-08-16T11:11:26Z</time>
      </trkpt>
      <trkpt lat="44.81735" lon="1.22527">
        <ele>80.4488516</ele>
        <time>2022-08-16T11:11:28Z</time>
      </trkpt>
      <trkpt lat="44.81739" lon="1.22535">
        <ele>80.4224725</ele>
        <time>2022-08-16T11:11:30Z</time>
      </trkpt>
      <trkpt lat="44.81743" lon="1.22543">
        <ele>80.5307126</ele>
        <time>2022-08-16T11:11:32Z</time>
      </trkpt>
      <trkpt lat="44.81747" lon="1.22551">
        <ele>80.6645203</ele>
        <time>2022-08-16T11:11:34Z</time>
      </trkpt>
      <trkpt lat="44.81751" lon="1.22559">
        <ele>81.0850543</ele>
        <time>2022-08-16T11:11:36Z</time>
      </trkpt>
      <trkpt lat="44.81755" lon="1.22567">
        <ele>81.0513805</ele>
        <time>2022-08-16T11:11:38Z</time>
      </trkpt>
      <trkpt lat="44.81759" lon="1.22574">
        <ele>81.6149023</ele>
        <time>2022-08-16T11:11:40Z</time>
      </trkpt>
      <trkpt lat="44.81763" lon="1.22582">
        <ele>81.4835714</ele>
        <time>2022-08-16T11:11:42Z</time>
      </trkpt>
      <trkpt lat="44.81766" lon="1.2259">
        <ele>81.4261581</ele>
        <time>2022-08-16T11:11:44Z</time>
      </trkpt>
      <trkpt lat="44.8177" lon="1.22597">
        <ele>81.6028469</ele>
        <time>2022-08-16T11:11:46Z</time>
      </trkpt>
      <trkpt lat="44.81773" lon="1.22605">
        <ele>81.9808773</ele>
        <time>2022-08-16T11:11:48Z</time>
      </trkpt>
      <trkpt lat="44.81777" lon="1.22613">
        <ele>82.2585505</ele>
        <time>2022-08-16T11:11:50Z</time>
      </trkpt>
      <trkpt lat="44.81781" lon="1.2262">
        <ele>82.1667021</ele>
        <time>2022-08-16T11:11:52Z</time>
      </trkpt>
      <trkpt lat="44.81784" lon="1.22628">
        <ele>82.3772276</ele>
        <time>2022-08-16T11:11:54Z</time>
      </trkpt>
      <trkpt lat="44.81788" lon="1.22635">
        <ele>82.179971</ele>
        <time>2022-08-16T11:11:56Z</time>
      </trkpt>
      <trkpt lat="44.81792" lon="1.22643">
        <ele>82.5043092</ele>
        <time>2022-08-16T11:11:58Z</time>
      </trkpt>
      <trkpt lat="44.81796" lon="1.22651">
        <ele>82.9081938</ele>
        <time>2022-08-16T11:12:00Z</time>
      </trkpt>
      <trkpt lat="44.81799" lon="1.22658">
        <ele>82.9444852</ele>
        <time>2022-08-16T11:12:02Z</time>
      </trkpt>
      <trkpt lat="44.81803" lon="1.22666">
        <ele>82.9160278</ele>
        <time>2022-08-16T11:12:04Z</time>
      </trkpt>
      <trkpt lat="44.81807" lon="1.22673">
        <ele>83.2219179</ele>
        <time>2022-08-16T11:12:06Z</time>
      </trkpt>
      <trkpt lat="44.81811" lon="1.2268">
        <ele>83.531921</ele>
        <time>2022-08-16T11:12:08Z</time>
      </trkpt>
      <trkpt lat="44.81815" lon="1.22686">
        <ele>83.7256504</ele>
        <time>2022-08-16T11:12:10Z</time>
      </trkpt>
      <trkpt lat="44.8182" lon="1.22693">
        <ele>83.8786998</ele>
        <time>2022-08-16T11:12:12Z</time>
      </trkpt>
      <trkpt lat="44.81824" lon="1.227">
        <ele>84.1228756</ele>
        <time>2022-08-16T11:12:14Z</time>
      </trkpt>
      <trkpt lat="44.81828" lon="1.22706">
        <ele>84.1039094</ele>
        <time>2022-08-16T11:12:16Z</time>
      </trkpt>
      <trkpt lat="44.81834" lon="1.22712">
        <ele>84.3208141</ele>
        <time>2022-08-16T11:12:18Z</time>
      </trkpt>
      <trkpt lat="44.8184" lon="1.22719">
        <ele>84.3925001</ele>
        <time>2022-08-16T11:12:20Z</time>
      </trkpt>
      <trkpt lat="44.81846" lon="1.22726">
        <ele>84.1782371</ele>
        <time>2022-08-16T11:12:22Z</time>
      </trkpt>
      <trkpt lat="44.81851" lon="1.22732">
        <ele>83.9376224</ele>
        <time>2022-08-16T11:12:24Z</time>
      </trkpt>
      <trkpt lat="44.81858" lon="1.2274">
        <ele>84.1036138</ele>
        <time>2022-08-16T11:12:26Z</time>
      </trkpt>
      <trkpt lat="44.81865" lon="1.22747">
        <ele>84.084231</ele>
        <time>2022-08-16T11:12:28Z</time>
      </trkpt>
      <trkpt lat="44.81871" lon="1.22754">
        <ele>83.8407318</ele>
        <time>2022-08-16T11:12:30Z</time>
      </trkpt>
      <trkpt lat="44.81878" lon="1.2276">
        <ele>83.5492578</ele>
        <time>2022-08-16T11:12:32Z</time>
      </trkpt>
      <trkpt lat="44.81885" lon="1.22766">
        <ele>83.3967743</ele>
        <time>2022-08-16T11:12:34Z</time>
      </trkpt>
      <trkpt lat="44.81892" lon="1.22773">
        <ele>83.358848</ele>
        <time>2022-08-16T11:12:36Z</time>
      </trkpt>
      <trkpt lat="44.81899" lon="1.22779">
        <ele>83.3382232</ele>
        <time>2022-08-16T11:12:38Z</time>
      </trkpt>
      <trkpt lat="44.81906" lon="1.22785">
        <ele>83.2118055</ele>
        <time>2022-08-16T11:12:40Z</time>
      </trkpt>
      <trkpt lat="44.81912" lon="1.22792">
        <ele>83.4418196</ele>
        <time>2022-08-16T11:12:42Z</time>
      </trkpt>
      <trkpt lat="44.81919" lon="1.22799">
        <ele>83.4843536</ele>
        <time>2022-08-16T11:12:44Z</time>
      </trkpt>
      <trkpt lat="44.81926" lon="1.22806">
        <ele>83.474767</ele>
        <time>2022-08-16T11:12:46Z</time>
      </trkpt>
      <trkpt lat="44.81933" lon="1.22811">
        <ele>83.7798585</ele>
        <time>2022-08-16T11:12:48Z</time>
      </trkpt>
      <trkpt lat="44.81939" lon="1.22818">
        <ele>84.025932</ele>
        <time>2022-08-16T11:12:50Z</time>
      </trkpt>
      <trkpt lat="44.81946" lon="1.22825">
        <ele>84.1452737</ele>
        <time>2022-08-16T11:12:52Z</time>
      </trkpt>
      <trkpt lat="44.81952" lon="1.22831">
        <ele>84.313474</ele>
        <time>2022-08-16T11:12:54Z</time>
      </trkpt>
      <trkpt lat="44.81959" lon="1.22838">
        <ele>84.3684639</ele>
        <time>2022-08-16T11:12:56Z</time>
      </trkpt>
      <trkpt lat="44.81967" lon="1.22844">
        <ele>84.3698367</ele>
        <time>2022-08-16T11:12:58Z</time>
      </trkpt>
      <trkpt lat="44.81974" lon="1.22851">
        <ele>84.2864594</ele>
        <time>2022-08-16T11:13:00Z</time>
      </trkpt>
      <trkpt lat="44.81981" lon="1.22858">
        <ele>84.3199185</ele>
        <time>2022-08-16T11:13:02Z</time>
      </trkpt>
      <trkpt lat="44.81987" lon="1.22864">
        <ele>84.3333082</ele>
        <time>2022-08-16T11:13:04Z</time>
      </trkpt>
      <trkpt lat="44.81995" lon="1.2287">
        <ele>84.3294836</ele>
        <time>2022-08-16T11:13:06Z</time>
      </trkpt>
      <trkpt lat="44.82002" lon="1.22876">
        <ele>84.4629104</ele>
        <time>2022-08-16T11:13:08Z</time>
      </trkpt>
      <trkpt lat="44.82008" lon="1.22883">
        <ele>84.4190253</ele>
        <time>2022-08-16T11:13:10Z</time>
      </trkpt>
      <trkpt lat="44.82015" lon="1.22889">
        <ele>84.377533</ele>
        <time>2022-08-16T11:13:12Z</time>
      </trkpt>
      <trkpt lat="44.82022" lon="1.22896">
        <ele>84.2057756</ele>
        <time>2022-08-16T11:13:14Z</time>
      </trkpt>
      <trkpt lat="44.82028" lon="1.22903">
        <ele>84.2790561</ele>
        <time>2022-08-16T11:13:16Z</time>
      </trkpt>
      <trkpt lat="44.82036" lon="1.22909">
        <ele>84.2479996</ele>
        <time>2022-08-16T11:13:18Z</time>
      </trkpt>
      <trkpt lat="44.82042" lon="1.22915">
        <ele>84.1892136</ele>
        <time>2022-08-16T11:13:20Z</time>
      </trkpt>
      <trkpt lat="44.82049" lon="1.22923">
        <ele>84.2690956</ele>
        <time>2022-08-16T11:13:22Z</time>
      </trkpt>
      <trkpt lat="44.82056" lon="1.22929">
        <ele>84.3035511</ele>
        <time>2022-08-16T11:13:24Z</time>
      </trkpt>
      <trkpt lat="44.82064" lon="1.22936">
        <ele>84.5747147</ele>
        <time>2022-08-16T11:13:26Z</time>
      </trkpt>
      <trkpt lat="44.82071" lon="1.22943">
        <ele>84.6613287</ele>
        <time>2022-08-16T11:13:28Z</time>
      </trkpt>
      <trkpt lat="44.82078" lon="1.22949">
        <ele>84.4204692</ele>
        <time>2022-08-16T11:13:30Z</time>
      </trkpt>
      <trkpt lat="44.82085" lon="1.22957">
        <ele>84.5601686</ele>
        <time>2022-08-16T11:13:32Z</time>
      </trkpt>
      <trkpt lat="44.82092" lon="1.22964">
        <ele>84.9384729</ele>
        <time>2022-08-16T11:13:34Z</time>
      </trkpt>
      <trkpt lat="44.821" lon="1.22971">
        <ele>84.8364311</ele>
        <time>2022-08-16T11:13:36Z</time>
      </trkpt>
      <trkpt lat="44.82107" lon="1.22978">
        <ele>84.8573402</ele>
        <time>2022-08-16T11:13:38Z</time>
      </trkpt>
      <trkpt lat="44.82114" lon="1.22985">
        <ele>85.1133909</ele>
        <time>2022-08-16T11:13:40Z</time>
      </trkpt>
      <trkpt lat="44.82121" lon="1.22993">
        <ele>85.0799957</ele>
        <time>2022-08-16T11:13:42Z</time>
      </trkpt>
      <trkpt lat="44.82127" lon="1.23002">
        <ele>85.3283759</ele>
        <time>2022-08-16T11:13:44Z</time>
      </trkpt>
      <trkpt lat="44.82133" lon="1.23011">
        <ele>85.3427343</ele>
        <time>2022-08-16T11:13:46Z</time>
      </trkpt>
      <trkpt lat="44.82138" lon="1.23021">
        <ele>85.5168752</ele>
        <time>2022-08-16T11:13:48Z</time>
      </trkpt>
      <trkpt lat="44.82143" lon="1.2303">
        <ele>85.8213967</ele>
        <time>2022-08-16T11:13:50Z</time>
      </trkpt>
      <trkpt lat="44.82147" lon="1.2304">
        <ele>86.0063865</ele>
        <time>2022-08-16T11:13:52Z</time>
      </trkpt>
      <trkpt lat="44.82152" lon="1.23049">
        <ele>86.3682968</ele>
        <time>2022-08-16T11:13:54Z</time>
      </trkpt>
      <trkpt lat="44.82157" lon="1.23058">
        <ele>86.4017794</ele>
        <time>2022-08-16T11:13:56Z</time>
      </trkpt>
      <trkpt lat="44.82161" lon="1.23068">
        <ele>86.4748693</ele>
        <time>2022-08-16T11:13:58Z</time>
      </trkpt>
      <trkpt lat="44.82166" lon="1.23077">
        <ele>86.3949695</ele>
        <time>2022-08-16T11:14:00Z</time>
      </trkpt>
      <trkpt lat="44.8217" lon="1.23086">
        <ele>86.3201541</ele>
        <time>2022-08-16T11:14:02Z</time>
      </trkpt>
      <trkpt lat="44.82175" lon="1.23095">
        <ele>86.6773646</ele>
        <time>2022-08-16T11:14:04Z</time>
      </trkpt>
      <trkpt lat="44.8218" lon="1.23105">
        <ele>86.8625666</ele>
        <time>2022-08-16T11:14:06Z</time>
      </trkpt>
      <trkpt lat="44.82184" lon="1.23114">
        <ele>86.9794946</ele>
        <time>2022-08-16T11:14:08Z</time>
      </trkpt>
      <trkpt lat="44.82189" lon="1.23123">
        <ele>86.9885343</ele>
        <time>2022-08-16T11:14:10Z</time>
      </trkpt>
      <trkpt lat="44.82193" lon="1.23132">
        <ele>87.0131613</ele>
        <time>2022-08-16T11:14:12Z</time>
      </trkpt>
      <trkpt lat="44.82197" lon="1.23141">
        <ele>87.0134048</ele>
        <time>2022-08-16T11:14:14Z</time>
      </trkpt>
      <trkpt lat="44.82202" lon="1.23151">
        <ele>87.1692518</ele>
        <time>2022-08-16T11:14:16Z</time>
      </trkpt>
      <trkpt lat="44.82206" lon="1.2316">
        <ele>87.5072485</ele>
        <time>2022-08-16T11:14:18Z</time>
      </trkpt>
      <trkpt lat="44.82211" lon="1.23169">
        <ele>87.7011433</ele>
        <time>2022-08-16T11:14:20Z</time>
      </trkpt>
      <trkpt lat="44.82215" lon="1.23178">
        <ele>87.8601268</ele>
        <time>2022-08-16T11:14:22Z</time>
      </trkpt>
      <trkpt lat="44.8222" lon="1.23186">
        <ele>87.8438543</ele>
        <time>2022-08-16T11:14:24Z</time>
      </trkpt>
      <trkpt lat="44.82224" lon="1.23195">
        <ele>87.9995629</ele>
        <time>2022-08-16T11:14:26Z</time>
      </trkpt>
      <trkpt lat="44.82229" lon="1.23203">
        <ele>88.3873019</ele>
        <time>2022-08-16T11:14:28Z</time>
      </trkpt>
      <trkpt lat="44.82233" lon="1.23212">
        <ele>88.7150109</ele>
        <time>2022-08-16T11:14:30Z</time>
      </trkpt>
      <trkpt lat="44.82237" lon="1.23221">
        <ele>88.941739</ele>
        <time>2022-08-16T11:14:32Z</time>
      </trkpt>
      <trkpt lat="44.82242" lon="1.2323">
        <ele>89.1556285</ele>
        <time>2022-08-16T11:14:34Z</time>
      </trkpt>
      <trkpt lat="44.82247" lon="1.2324">
        <ele>88.8637416</ele>
        <time>2022-08-16T11:14:36Z</time>
      </trkpt>
      <trkpt lat="44.82252" lon="1.2325">
        <ele>88.6509931</ele>
        <time>2022-08-16T11:14:38Z</time>
      </trkpt>
      <trkpt lat="44.82257" lon="1.2326">
        <ele>88.583347</ele>
        <time>2022-08-16T11:14:40Z</time>
      </trkpt>
      <trkpt lat="44.82263" lon="1.23271">
        <ele>88.2389874</ele>
        <time>2022-08-16T11:14:42Z</time>
      </trkpt>
      <trkpt lat="44.82268" lon="1.23284">
        <ele>87.5751126</ele>
        <time>2022-08-16T11:14:44Z</time>
      </trkpt>
      <trkpt lat="44.82274" lon="1.23297">
        <ele>87.0838793</ele>
        <time>2022-08-16T11:14:46Z</time>
      </trkpt>
      <trkpt lat="44.82281" lon="1.2331">
        <ele>86.6088291</ele>
        <time>2022-08-16T11:14:48Z</time>
      </trkpt>
      <trkpt lat="44.82288" lon="1.23325">
        <ele>86.082798</ele>
        <time>2022-08-16T11:14:50Z</time>
      </trkpt>
      <trkpt lat="44.82296" lon="1.23341">
        <ele>85.0534532</ele>
        <time>2022-08-16T11:14:52Z</time>
      </trkpt>
      <trkpt lat="44.82305" lon="1.23359">
        <ele>83.9067524</ele>
        <time>2022-08-16T11:14:54Z</time>
      </trkpt>
      <trkpt lat="44.82314" lon="1.23378">
        <ele>82.9194816</ele>
        <time>2022-08-16T11:14:56Z</time>
      </trkpt>
      <trkpt lat="44.82323" lon="1.23398">
        <ele>80.8610109</ele>
        <time>2022-08-16T11:14:58Z</time>
      </trkpt>
      <trkpt lat="44.82334" lon="1.23419">
        <ele>79.7243534</ele>
        <time>2022-08-16T11:15:00Z</time>
      </trkpt>
      <trkpt lat="44.82344" lon="1.23441">
        <ele>78.2791853</ele>
        <time>2022-08-16T11:15:02Z</time>
      </trkpt>
      <trkpt lat="44.82354" lon="1.23463">
        <ele>76.9839477</ele>
        <time>2022-08-16T11:15:04Z</time>
      </trkpt>
      <trkpt lat="44.82364" lon="1.23486">
        <ele>75.9507322</ele>
        <time>2022-08-16T11:15:06Z</time>
      </trkpt>
      <trkpt lat="44.8237" lon="1.23513">
        <ele>74.5520958</ele>
        <time>2022-08-16T11:15:08Z</time>
      </trkpt>
      <trkpt lat="44.82374" lon="1.23541">
        <ele>73.8362329</ele>
        <time>2022-08-16T11:15:10Z</time>
      </trkpt>
      <trkpt lat="44.82377" lon="1.2357">
        <ele>72.1592615</ele>
        <time>2022-08-16T11:15:12Z</time>
      </trkpt>
      <trkpt lat="44.82378" lon="1.23599">
        <ele>71.7808652</ele>
        <time>2022-08-16T11:15:14Z</time>
      </trkpt>
      <trkpt lat="44.82375" lon="1.23629">
        <ele>71.0877365</ele>
        <time>2022-08-16T11:15:16Z</time>
      </trkpt>
      <trkpt lat="44.8237" lon="1.23658">
        <ele>70.5397701</ele>
        <time>2022-08-16T11:15:18Z</time>
      </trkpt>
      <trkpt lat="44.82365" lon="1.23683">
        <ele>69.7623728</ele>
        <time>2022-08-16T11:15:20Z</time>
      </trkpt>
      <trkpt lat="44.8236" lon="1.23708">
        <ele>69.8427482</ele>
        <time>2022-08-16T11:15:22Z</time>
      </trkpt>
      <trkpt lat="44.82352" lon="1.2373">
        <ele>69.9908807</ele>
        <time>2022-08-16T11:15:24Z</time>
      </trkpt>
      <trkpt lat="44.82344" lon="1.2375">
        <ele>70.3634695</ele>
        <time>2022-08-16T11:15:26Z</time>
      </trkpt>
      <trkpt lat="44.82335" lon="1.23766">
        <ele>70.8984321</ele>
        <time>2022-08-16T11:15:28Z</time>
      </trkpt>
      <trkpt lat="44.82329" lon="1.23781">
        <ele>71.2487203</ele>
        <time>2022-08-16T11:15:30Z</time>
      </trkpt>
      <trkpt lat="44.82322" lon="1.23795">
        <ele>71.4432584</ele>
        <time>2022-08-16T11:15:32Z</time>
      </trkpt>
      <trkpt lat="44.82316" lon="1.23808">
        <ele>72.2054277</ele>
        <time>2022-08-16T11:15:34Z</time>
      </trkpt>
      <trkpt lat="44.82311" lon="1.2382">
        <ele>72.7076571</ele>
        <time>2022-08-16T11:15:36Z</time>
      </trkpt>
      <trkpt lat="44.82306" lon="1.23832">
        <ele>73.3590791</ele>
        <time>2022-08-16T11:15:38Z</time>
      </trkpt>
      <trkpt lat="44.82301" lon="1.23843">
        <ele>72.7288068</ele>
        <time>2022-08-16T11:15:40Z</time>
      </trkpt>
      <trkpt lat="44.82297" lon="1.23855">
        <ele>73.428876</ele>
        <time>2022-08-16T11:15:42Z</time>
      </trkpt>
      <trkpt lat="44.82293" lon="1.23866">
        <ele>73.3622148</ele>
        <time>2022-08-16T11:15:44Z</time>
      </trkpt>
      <trkpt lat="44.82289" lon="1.23877">
        <ele>73.4097707</ele>
        <time>2022-08-16T11:15:46Z</time>
      </trkpt>
      <trkpt lat="44.82286" lon="1.23887">
        <ele>73.4777876</ele>
        <time>2022-08-16T11:15:48Z</time>
      </trkpt>
      <trkpt lat="44.82283" lon="1.23898">
        <ele>74.3894529</ele>
        <time>2022-08-16T11:15:50Z</time>
      </trkpt>
      <trkpt lat="44.82281" lon="1.23908">
        <ele>74.6302656</ele>
        <time>2022-08-16T11:15:52Z</time>
      </trkpt>
      <trkpt lat="44.82278" lon="1.23919">
        <ele>74.4960748</ele>
        <time>2022-08-16T11:15:54Z</time>
      </trkpt>
      <trkpt lat="44.82275" lon="1.23929">
        <ele>74.8981772</ele>
        <time>2022-08-16T11:15:56Z</time>
      </trkpt>
      <trkpt lat="44.82273" lon="1.2394">
        <ele>74.9242543</ele>
        <time>2022-08-16T11:15:58Z</time>
      </trkpt>
      <trkpt lat="44.8227" lon="1.2395">
        <ele>75.1767694</ele>
        <time>2022-08-16T11:16:00Z</time>
      </trkpt>
      <trkpt lat="44.82267" lon="1.2396">
        <ele>75.4092461</ele>
        <time>2022-08-16T11:16:02Z</time>
      </trkpt>
      <trkpt lat="44.82264" lon="1.2397">
        <ele>75.2727035</ele>
        <time>2022-08-16T11:16:04Z</time>
      </trkpt>
      <trkpt lat="44.82261" lon="1.2398">
        <ele>75.8961017</ele>
        <time>2022-08-16T11:16:06Z</time>
      </trkpt>
      <trkpt lat="44.82257" lon="1.23991">
        <ele>75.9180275</ele>
        <time>2022-08-16T11:16:08Z</time>
      </trkpt>
      <trkpt lat="44.82254" lon="1.24002">
        <ele>75.811898</ele>
        <time>2022-08-16T11:16:10Z</time>
      </trkpt>
      <trkpt lat="44.82251" lon="1.24013">
        <ele>76.0912995</ele>
        <time>2022-08-16T11:16:12Z</time>
      </trkpt>
      <trkpt lat="44.82247" lon="1.24022">
        <ele>76.8817223</ele>
        <time>2022-08-16T11:16:14Z</time>
      </trkpt>
      <trkpt lat="44.82243" lon="1.24032">
        <ele>75.9935039</ele>
        <time>2022-08-16T11:16:16Z</time>
      </trkpt>
      <trkpt lat="44.8224" lon="1.24043">
        <ele>76.2275708</ele>
        <time>2022-08-16T11:16:18Z</time>
      </trkpt>
      <trkpt lat="44.82237" lon="1.24054">
        <ele>75.7193775</ele>
        <time>2022-08-16T11:16:20Z</time>
      </trkpt>
      <trkpt lat="44.82233" lon="1.24064">
        <ele>75.9451981</ele>
        <time>2022-08-16T11:16:22Z</time>
      </trkpt>
      <trkpt lat="44.82229" lon="1.24074">
        <ele>75.9470703</ele>
        <time>2022-08-16T11:16:24Z</time>
      </trkpt>
      <trkpt lat="44.82224" lon="1.24085">
        <ele>75.5840953</ele>
        <time>2022-08-16T11:16:26Z</time>
      </trkpt>
      <trkpt lat="44.8222" lon="1.24096">
        <ele>76.2696614</ele>
        <time>2022-08-16T11:16:28Z</time>
      </trkpt>
      <trkpt lat="44.82215" lon="1.24108">
        <ele>76.4949436</ele>
        <time>2022-08-16T11:16:30Z</time>
      </trkpt>
      <trkpt lat="44.82209" lon="1.2412">
        <ele>76.7584502</ele>
        <time>2022-08-16T11:16:32Z</time>
      </trkpt>
      <trkpt lat="44.82203" lon="1.24133">
        <ele>77.1514177</ele>
        <time>2022-08-16T11:16:34Z</time>
      </trkpt>
      <trkpt lat="44.82198" lon="1.24143">
        <ele>77.3085695</ele>
        <time>2022-08-16T11:16:36Z</time>
      </trkpt>
      <trkpt lat="44.82191" lon="1.24156">
        <ele>76.0910423</ele>
        <time>2022-08-16T11:16:38Z</time>
      </trkpt>
      <trkpt lat="44.82185" lon="1.24168">
        <ele>75.9463158</ele>
        <time>2022-08-16T11:16:40Z</time>
      </trkpt>
      <trkpt lat="44.82179" lon="1.24179">
        <ele>75.8760771</ele>
        <time>2022-08-16T11:16:42Z</time>
      </trkpt>
      <trkpt lat="44.82172" lon="1.24192">
        <ele>75.2907644</ele>
        <time>2022-08-16T11:16:44Z</time>
      </trkpt>
      <trkpt lat="44.82167" lon="1.24204">
        <ele>75.6600551</ele>
        <time>2022-08-16T11:16:46Z</time>
      </trkpt>
      <trkpt lat="44.8216" lon="1.24216">
        <ele>75.1004873</ele>
        <time>2022-08-16T11:16:48Z</time>
      </trkpt>
      <trkpt lat="44.82154" lon="1.24229">
        <ele>74.6652399</ele>
        <time>2022-08-16T11:16:50Z</time>
      </trkpt>
      <trkpt lat="44.82148" lon="1.24241">
        <ele>74.8854634</ele>
        <time>2022-08-16T11:16:52Z</time>
      </trkpt>
      <trkpt lat="44.82142" lon="1.24253">
        <ele>75.3750859</ele>
        <time>2022-08-16T11:16:54Z</time>
      </trkpt>
      <trkpt lat="44.82136" lon="1.24265">
        <ele>75.2872403</ele>
        <time>2022-08-16T11:16:56Z</time>
      </trkpt>
      <trkpt lat="44.8213" lon="1.24277">
        <ele>75.1374155</ele>
        <time>2022-08-16T11:16:58Z</time>
      </trkpt>
      <trkpt lat="44.82125" lon="1.24288">
        <ele>74.9556613</ele>
        <time>2022-08-16T11:17:00Z</time>
      </trkpt>
      <trkpt lat="44.8212" lon="1.243">
        <ele>75.023515</ele>
        <time>2022-08-16T11:17:02Z</time>
      </trkpt>
      <trkpt lat="44.82115" lon="1.24313">
        <ele>74.6307664</ele>
        <time>2022-08-16T11:17:04Z</time>
      </trkpt>
      <trkpt lat="44.8211" lon="1.24323">
        <ele>75.3134713</ele>
        <time>2022-08-16T11:17:06Z</time>
      </trkpt>
      <trkpt lat="44.82106" lon="1.24335">
        <ele>75.5657341</ele>
        <time>2022-08-16T11:17:08Z</time>
      </trkpt>
      <trkpt lat="44.82102" lon="1.24346">
        <ele>75.3124845</ele>
        <time>2022-08-16T11:17:10Z</time>
      </trkpt>
      <trkpt lat="44.82098" lon="1.24357">
        <ele>75.789356</ele>
        <time>2022-08-16T11:17:12Z</time>
      </trkpt>
      <trkpt lat="44.82094" lon="1.24369">
        <ele>76.3803828</ele>
        <time>2022-08-16T11:17:14Z</time>
      </trkpt>
      <trkpt lat="44.8209" lon="1.24381">
        <ele>76.7325856</ele>
        <time>2022-08-16T11:17:16Z</time>
      </trkpt>
      <trkpt lat="44.82086" lon="1.24391">
        <ele>76.6972504</ele>
        <time>2022-08-16T11:17:18Z</time>
      </trkpt>
      <trkpt lat="44.82082" lon="1.24402">
        <ele>76.5218288</ele>
        <time>2022-08-16T11:17:20Z</time>
      </trkpt>
      <trkpt lat="44.82079" lon="1.24413">
        <ele>76.2862449</ele>
        <time>2022-08-16T11:17:22Z</time>
      </trkpt>
      <trkpt lat="44.82075" lon="1.24425">
        <ele>76.9181612</ele>
        <time>2022-08-16T11:17:24Z</time>
      </trkpt>
      <trkpt lat="44.82071" lon="1.24438">
        <ele>76.2603392</ele>
        <time>2022-08-16T11:17:26Z</time>
      </trkpt>
      <trkpt lat="44.82068" lon="1.2445">
        <ele>75.9945019</ele>
        <time>2022-08-16T11:17:28Z</time>
      </trkpt>
      <trkpt lat="44.82065" lon="1.24462">
        <ele>76.7135488</ele>
        <time>2022-08-16T11:17:30Z</time>
      </trkpt>
      <trkpt lat="44.82063" lon="1.24474">
        <ele>76.3865607</ele>
        <time>2022-08-16T11:17:32Z</time>
      </trkpt>
      <trkpt lat="44.82062" lon="1.24487">
        <ele>77.6216345</ele>
        <time>2022-08-16T11:17:34Z</time>
      </trkpt>
      <trkpt lat="44.82059" lon="1.24498">
        <ele>76.5614368</ele>
        <time>2022-08-16T11:17:36Z</time>
      </trkpt>
      <trkpt lat="44.82058" lon="1.2451">
        <ele>76.612356</ele>
        <time>2022-08-16T11:17:38Z</time>
      </trkpt>
      <trkpt lat="44.82058" lon="1.24524">
        <ele>76.8311324</ele>
        <time>2022-08-16T11:17:40Z</time>
      </trkpt>
      <trkpt lat="44.82056" lon="1.24538">
        <ele>75.9988922</ele>
        <time>2022-08-16T11:17:42Z</time>
      </trkpt>
      <trkpt lat="44.82054" lon="1.2455">
        <ele>76.3090634</ele>
        <time>2022-08-16T11:17:44Z</time>
      </trkpt>
      <trkpt lat="44.82054" lon="1.24563">
        <ele>77.2991808</ele>
        <time>2022-08-16T11:17:46Z</time>
      </trkpt>
      <trkpt lat="44.82053" lon="1.24577">
        <ele>77.6293606</ele>
        <time>2022-08-16T11:17:48Z</time>
      </trkpt>
      <trkpt lat="44.82053" lon="1.2459">
        <ele>78.9415367</ele>
        <time>2022-08-16T11:17:50Z</time>
      </trkpt>
      <trkpt lat="44.82053" lon="1.24604">
        <ele>79.9412092</ele>
        <time>2022-08-16T11:17:52Z</time>
      </trkpt>
      <trkpt lat="44.82052" lon="1.24618">
        <ele>80.040052</ele>
        <time>2022-08-16T11:17:54Z</time>
      </trkpt>
      <trkpt lat="44.82051" lon="1.24631">
        <ele>79.8680197</ele>
        <time>2022-08-16T11:17:56Z</time>
      </trkpt>
      <trkpt lat="44.8205" lon="1.24644">
        <ele>80.447209</ele>
        <time>2022-08-16T11:17:58Z</time>
      </trkpt>
      <trkpt lat="44.82049" lon="1.24658">
        <ele>80.1099738</ele>
        <time>2022-08-16T11:18:00Z</time>
      </trkpt>
      <trkpt lat="44.82049" lon="1.24673">
        <ele>80.4531772</ele>
        <time>2022-08-16T11:18:02Z</time>
      </trkpt>
      <trkpt lat="44.82048" lon="1.24686">
        <ele>80.0031327</ele>
        <time>2022-08-16T11:18:04Z</time>
      </trkpt>
      <trkpt lat="44.82047" lon="1.247">
        <ele>80.0532571</ele>
        <time>2022-08-16T11:18:06Z</time>
      </trkpt>
      <trkpt lat="44.82047" lon="1.24714">
        <ele>80.5291335</ele>
        <time>2022-08-16T11:18:08Z</time>
      </trkpt>
      <trkpt lat="44.82047" lon="1.24728">
        <ele>80.1243771</ele>
        <time>2022-08-16T11:18:10Z</time>
      </trkpt>
      <trkpt lat="44.82047" lon="1.24742">
        <ele>79.7986039</ele>
        <time>2022-08-16T11:18:12Z</time>
      </trkpt>
      <trkpt lat="44.82047" lon="1.24755">
        <ele>79.7662626</ele>
        <time>2022-08-16T11:18:14Z</time>
      </trkpt>
      <trkpt lat="44.82048" lon="1.24768">
        <ele>79.9463057</ele>
        <time>2022-08-16T11:18:16Z</time>
      </trkpt>
      <trkpt lat="44.82047" lon="1.24782">
        <ele>79.187334</ele>
        <time>2022-08-16T11:18:18Z</time>
      </trkpt>
      <trkpt lat="44.82048" lon="1.24796">
        <ele>79.233524</ele>
        <time>2022-08-16T11:18:20Z</time>
      </trkpt>
      <trkpt lat="44.82049" lon="1.2481">
        <ele>79.5616031</ele>
        <time>2022-08-16T11:18:22Z</time>
      </trkpt>
      <trkpt lat="44.8205" lon="1.24823">
        <ele>80.2646236</ele>
        <time>2022-08-16T11:18:24Z</time>
      </trkpt>
      <trkpt lat="44.82049" lon="1.24837">
        <ele>80.1309338</ele>
        <time>2022-08-16T11:18:26Z</time>
      </trkpt>
      <trkpt lat="44.82048" lon="1.24849">
        <ele>79.9562247</ele>
        <time>2022-08-16T11:18:28Z</time>
      </trkpt>
      <trkpt lat="44.82047" lon="1.24862">
        <ele>78.7098812</ele>
        <time>2022-08-16T11:18:30Z</time>
      </trkpt>
      <trkpt lat="44.82047" lon="1.24875">
        <ele>79.0246718</ele>
        <time>2022-08-16T11:18:32Z</time>
      </trkpt>
      <trkpt lat="44.82046" lon="1.24887">
        <ele>78.7384977</ele>
        <time>2022-08-16T11:18:34Z</time>
      </trkpt>
      <trkpt lat="44.82046" lon="1.24901">
        <ele>78.44277</ele>
        <time>2022-08-16T11:18:36Z</time>
      </trkpt>
      <trkpt lat="44.82046" lon="1.24913">
        <ele>79.5282548</ele>
        <time>2022-08-16T11:18:38Z</time>
      </trkpt>
      <trkpt lat="44.82047" lon="1.24926">
        <ele>79.7764843</ele>
        <time>2022-08-16T11:18:40Z</time>
      </trkpt>
      <trkpt lat="44.82049" lon="1.24937">
        <ele>79.6699171</ele>
        <time>2022-08-16T11:18:42Z</time>
      </trkpt>
      <trkpt lat="44.82052" lon="1.24951">
        <ele>80.2303158</ele>
        <time>2022-08-16T11:18:44Z</time>
      </trkpt>
      <trkpt lat="44.82055" lon="1.24962">
        <ele>80.9113305</ele>
        <time>2022-08-16T11:18:46Z</time>
      </trkpt>
      <trkpt lat="44.82057" lon="1.24973">
        <ele>80.8826054</ele>
        <time>2022-08-16T11:18:48Z</time>
      </trkpt>
      <trkpt lat="44.82057" lon="1.24984">
        <ele>79.7204113</ele>
        <time>2022-08-16T11:18:50Z</time>
      </trkpt>
      <trkpt lat="44.82061" lon="1.24995">
        <ele>79.7832707</ele>
        <time>2022-08-16T11:18:52Z</time>
      </trkpt>
      <trkpt lat="44.82065" lon="1.25006">
        <ele>81.0834595</ele>
        <time>2022-08-16T11:18:54Z</time>
      </trkpt>
      <trkpt lat="44.82069" lon="1.25017">
        <ele>80.7931519</ele>
        <time>2022-08-16T11:18:56Z</time>
      </trkpt>
      <trkpt lat="44.82074" lon="1.25028">
        <ele>81.6766057</ele>
        <time>2022-08-16T11:18:58Z</time>
      </trkpt>
      <trkpt lat="44.82078" lon="1.25038">
        <ele>81.3551283</ele>
        <time>2022-08-16T11:19:00Z</time>
      </trkpt>
      <trkpt lat="44.82082" lon="1.25049">
        <ele>81.2153646</ele>
        <time>2022-08-16T11:19:02Z</time>
      </trkpt>
      <trkpt lat="44.82085" lon="1.25058">
        <ele>80.6781748</ele>
        <time>2022-08-16T11:19:04Z</time>
      </trkpt>
      <trkpt lat="44.82088" lon="1.25068">
        <ele>80.4649196</ele>
        <time>2022-08-16T11:19:06Z</time>
      </trkpt>
      <trkpt lat="44.82091" lon="1.25076">
        <ele>80.2404571</ele>
        <time>2022-08-16T11:19:08Z</time>
      </trkpt>
      <trkpt lat="44.82091" lon="1.25083">
        <ele>79.738218</ele>
        <time>2022-08-16T11:19:10Z</time>
      </trkpt>
      <trkpt lat="44.82092" lon="1.2509">
        <ele>80.1911224</ele>
        <time>2022-08-16T11:19:12Z</time>
      </trkpt>
      <trkpt lat="44.82092" lon="1.2509">
        <ele>80.1524734</ele>
        <time>2022-08-16T11:19:14Z</time>
      </trkpt>
      <trkpt lat="44.82093" lon="1.2509">
        <ele>79.7255256</ele>
        <time>2022-08-16T11:19:16Z</time>
      </trkpt>
      <trkpt lat="44.82092" lon="1.25091">
        <ele>79.7777346</ele>
        <time>2022-08-16T11:19:18Z</time>
      </trkpt>
      <trkpt lat="44.82092" lon="1.25092">
        <ele>79.7401996</ele>
        <time>2022-08-16T11:19:20Z</time>
      </trkpt>
      <trkpt lat="44.82092" lon="1.25092">
        <ele>79.3355809</ele>
        <time>2022-08-16T11:19:22Z</time>
      </trkpt>
      <trkpt lat="44.82091" lon="1.25091">
        <ele>79.6458448</ele>
        <time>2022-08-16T11:19:24Z</time>
      </trkpt>
      <trkpt lat="44.8209" lon="1.25091">
        <ele>78.8092937</ele>
        <time>2022-08-16T11:19:26Z</time>
      </trkpt>
      <trkpt lat="44.8209" lon="1.25091">
        <ele>79.8436466</ele>
        <time>2022-08-16T11:19:28Z</time>
      </trkpt>
      <trkpt lat="44.8209" lon="1.25091">
        <ele>78.9471341</ele>
        <time>2022-08-16T11:19:30Z</time>
      </trkpt>
      <trkpt lat="44.82089" lon="1.25091">
        <ele>78.9724751</ele>
        <time>2022-08-16T11:19:32Z</time>
      </trkpt>
      <trkpt lat="44.82089" lon="1.25092">
        <ele>79.2287503</ele>
        <time>2022-08-16T11:19:34Z</time>
      </trkpt>
      <trkpt lat="44.82089" lon="1.25094">
        <ele>79.0963571</ele>
        <time>2022-08-16T11:19:36Z</time>
      </trkpt>
      <trkpt lat="44.82091" lon="1.25093">
        <ele>80.2018843</ele>
        <time>2022-08-16T11:19:38Z</time>
      </trkpt>
      <trkpt lat="44.82092" lon="1.25093">
        <ele>80.1471102</ele>
        <time>2022-08-16T11:19:40Z</time>
      </trkpt>
      <trkpt lat="44.82093" lon="1.25094">
        <ele>80.3902922</ele>
        <time>2022-08-16T11:19:42Z</time>
      </trkpt>
      <trkpt lat="44.82093" lon="1.25095">
        <ele>80.4744137</ele>
        <time>2022-08-16T11:19:44Z</time>
      </trkpt>
      <trkpt lat="44.82093" lon="1.25095">
        <ele>80.3677066</ele>
        <time>2022-08-16T11:19:46Z</time>
      </trkpt>
      <trkpt lat="44.82095" lon="1.25095">
        <ele>81.2839355</ele>
        <time>2022-08-16T11:19:48Z</time>
      </trkpt>
      <trkpt lat="44.82096" lon="1.25095">
        <ele>82.1619171</ele>
        <time>2022-08-16T11:19:50Z</time>
      </trkpt>
      <trkpt lat="44.82096" lon="1.25096">
        <ele>82.1013928</ele>
        <time>2022-08-16T11:19:52Z</time>
      </trkpt>
      <trkpt lat="44.82096" lon="1.25098">
        <ele>82.5892796</ele>
        <time>2022-08-16T11:19:54Z</time>
      </trkpt>
      <trkpt lat="44.82096" lon="1.25099">
        <ele>82.8135051</ele>
        <time>2022-08-16T11:19:56Z</time>
      </trkpt>
      <trkpt lat="44.82096" lon="1.25099">
        <ele>82.5589847</ele>
        <time>2022-08-16T11:19:58Z</time>
      </trkpt>
      <trkpt lat="44.82095" lon="1.25099">
        <ele>82.151184</ele>
        <time>2022-08-16T11:20:00Z</time>
      </trkpt>
      <trkpt lat="44.82095" lon="1.25099">
        <ele>81.2654172</ele>
        <time>2022-08-16T11:20:02Z</time>
      </trkpt>
      <trkpt lat="44.82095" lon="1.25099">
        <ele>80.4622859</ele>
        <time>2022-08-16T11:20:04Z</time>
      </trkpt>
      <trkpt lat="44.82096" lon="1.25099">
        <ele>80.589443</ele>
        <time>2022-08-16T11:20:06Z</time>
      </trkpt>
      <trkpt lat="44.82094" lon="1.25099">
        <ele>80.4215812</ele>
        <time>2022-08-16T11:20:08Z</time>
      </trkpt>
      <trkpt lat="44.82094" lon="1.25099">
        <ele>79.9939039</ele>
        <time>2022-08-16T11:20:10Z</time>
      </trkpt>
      <trkpt lat="44.82095" lon="1.25099">
        <ele>79.7733844</ele>
        <time>2022-08-16T11:20:12Z</time>
      </trkpt>
      <trkpt lat="44.82096" lon="1.25098">
        <ele>79.488202</ele>
        <time>2022-08-16T11:20:14Z</time>
      </trkpt>
      <trkpt lat="44.82095" lon="1.25098">
        <ele>78.6269003</ele>
        <time>2022-08-16T11:20:16Z</time>
      </trkpt>
      <trkpt lat="44.82094" lon="1.25099">
        <ele>77.4451093</ele>
        <time>2022-08-16T11:20:18Z</time>
      </trkpt>
      <trkpt lat="44.82093" lon="1.25099">
        <ele>76.9268204</ele>
        <time>2022-08-16T11:20:20Z</time>
      </trkpt>
      <trkpt lat="44.82094" lon="1.25099">
        <ele>77.1382692</ele>
        <time>2022-08-16T11:20:24Z</time>
      </trkpt>
      <trkpt lat="44.82093" lon="1.251">
        <ele>76.2434941</ele>
        <time>2022-08-16T11:20:26Z</time>
      </trkpt>
      <trkpt lat="44.82093" lon="1.251">
        <ele>76.4169764</ele>
        <time>2022-08-16T11:20:28Z</time>
      </trkpt>
      <trkpt lat="44.82093" lon="1.251">
        <ele>76.4169764</ele>
        <time>2022-08-16T11:20:32Z</time>
      </trkpt>
      <trkpt lat="44.82092" lon="1.25101">
        <ele>75.6187294</ele>
        <time>2022-08-16T11:20:36Z</time>
      </trkpt>
      <trkpt lat="44.82092" lon="1.25101">
        <ele>75.3327589</ele>
        <time>2022-08-16T11:20:38Z</time>
      </trkpt>
      <trkpt lat="44.82092" lon="1.25101">
        <ele>75.3327589</ele>
        <time>2022-08-16T11:20:42Z</time>
      </trkpt>
      <trkpt lat="44.82092" lon="1.25101">
        <ele>75.3327589</ele>
        <time>2022-08-16T11:20:46Z</time>
      </trkpt>
      <trkpt lat="44.82092" lon="1.25101">
        <ele>75.3327589</ele>
        <time>2022-08-16T11:20:50Z</time>
      </trkpt>
      <trkpt lat="44.82092" lon="1.25101">
        <ele>75.3327589</ele>
        <time>2022-08-16T11:20:54Z</time>
      </trkpt>
      <trkpt lat="44.82092" lon="1.25101">
        <ele>75.3327589</ele>
        <time>2022-08-16T11:20:58Z</time>
      </trkpt>
      <trkpt lat="44.82092" lon="1.25101">
        <ele>75.3327589</ele>
        <time>2022-08-16T11:21:02Z</time>
      </trkpt>
      <trkpt lat="44.82092" lon="1.25101">
        <ele>75.3327589</ele>
        <time>2022-08-16T11:21:06Z</time>
      </trkpt>
      <trkpt lat="44.82092" lon="1.25101">
        <ele>75.3327589</ele>
        <time>2022-08-16T11:21:10Z</time>
      </trkpt>
      <trkpt lat="44.82092" lon="1.25101">
        <ele>75.3327589</ele>
        <time>2022-08-16T11:21:14Z</time>
      </trkpt>
      <trkpt lat="44.82092" lon="1.25101">
        <ele>75.3327589</ele>
        <time>2022-08-16T11:21:18Z</time>
      </trkpt>
      <trkpt lat="44.82092" lon="1.25101">
        <ele>75.3327589</ele>
        <time>2022-08-16T11:21:22Z</time>
      </trkpt>
      <trkpt lat="44.82092" lon="1.25101">
        <ele>75.3327589</ele>
        <time>2022-08-16T11:21:26Z</time>
      </trkpt>
      <trkpt lat="44.82092" lon="1.25101">
        <ele>75.3327589</ele>
        <time>2022-08-16T11:21:30Z</time>
      </trkpt>
      <trkpt lat="44.82092" lon="1.25101">
        <ele>75.3327589</ele>
        <time>2022-08-16T11:21:34Z</time>
      </trkpt>
      <trkpt lat="44.82092" lon="1.25101">
        <ele>75.3327589</ele>
        <time>2022-08-16T11:21:38Z</time>
      </trkpt>
      <trkpt lat="44.82092" lon="1.25101">
        <ele>75.3327589</ele>
        <time>2022-08-16T11:21:42Z</time>
      </trkpt>
      <trkpt lat="44.82092" lon="1.25101">
        <ele>75.3327589</ele>
        <time>2022-08-16T11:21:46Z</time>
      </trkpt>
      <trkpt lat="44.82092" lon="1.25101">
        <ele>75.3327589</ele>
        <time>2022-08-16T11:21:50Z</time>
      </trkpt>
      <trkpt lat="44.82092" lon="1.25101">
        <ele>75.3327589</ele>
        <time>2022-08-16T11:21:54Z</time>
      </trkpt>
      <trkpt lat="44.82092" lon="1.25101">
        <ele>75.3327589</ele>
        <time>2022-08-16T11:21:58Z</time>
      </trkpt>
      <trkpt lat="44.82092" lon="1.25101">
        <ele>75.3327589</ele>
        <time>2022-08-16T11:22:02Z</time>
      </trkpt>
      <trkpt lat="44.82092" lon="1.25101">
        <ele>75.3327589</ele>
        <time>2022-08-16T11:22:06Z</time>
      </trkpt>
      <trkpt lat="44.82092" lon="1.25101">
        <ele>75.3327589</ele>
        <time>2022-08-16T11:22:10Z</time>
      </trkpt>
      <trkpt lat="44.82092" lon="1.25101">
        <ele>75.3327589</ele>
        <time>2022-08-16T11:22:14Z</time>
      </trkpt>
      <trkpt lat="44.82092" lon="1.25101">
        <ele>75.3327589</ele>
        <time>2022-08-16T11:22:18Z</time>
      </trkpt>
      <trkpt lat="44.82092" lon="1.25101">
        <ele>75.3327589</ele>
        <time>2022-08-16T11:22:22Z</time>
      </trkpt>
      <trkpt lat="44.82092" lon="1.25101">
        <ele>75.3327589</ele>
        <time>2022-08-16T11:22:26Z</time>
      </trkpt>
      <trkpt lat="44.82092" lon="1.25101">
        <ele>75.3327589</ele>
        <time>2022-08-16T11:22:30Z</time>
      </trkpt>
      <trkpt lat="44.82092" lon="1.25101">
        <ele>75.3327589</ele>
        <time>2022-08-16T11:22:34Z</time>
      </trkpt>
      <trkpt lat="44.82092" lon="1.25101">
        <ele>75.3327589</ele>
        <time>2022-08-16T11:22:38Z</time>
      </trkpt>
      <trkpt lat="44.82092" lon="1.25101">
        <ele>75.3327589</ele>
        <time>2022-08-16T11:22:42Z</time>
      </trkpt>
      <trkpt lat="44.82092" lon="1.25101">
        <ele>75.3327589</ele>
        <time>2022-08-16T11:22:46Z</time>
      </trkpt>
      <trkpt lat="44.82092" lon="1.25101">
        <ele>75.3327589</ele>
        <time>2022-08-16T11:22:50Z</time>
      </trkpt>
      <trkpt lat="44.82092" lon="1.25101">
        <ele>75.3327589</ele>
        <time>2022-08-16T11:22:54Z</time>
      </trkpt>
      <trkpt lat="44.82092" lon="1.25101">
        <ele>75.3327589</ele>
        <time>2022-08-16T11:22:58Z</time>
      </trkpt>
      <trkpt lat="44.82092" lon="1.25101">
        <ele>75.3327589</ele>
        <time>2022-08-16T11:23:02Z</time>
      </trkpt>
      <trkpt lat="44.82092" lon="1.25101">
        <ele>75.3327589</ele>
        <time>2022-08-16T11:23:06Z</time>
      </trkpt>
      <trkpt lat="44.82092" lon="1.25101">
        <ele>75.3327589</ele>
        <time>2022-08-16T11:23:10Z</time>
      </trkpt>
      <trkpt lat="44.82092" lon="1.25101">
        <ele>75.3327589</ele>
        <time>2022-08-16T11:23:14Z</time>
      </trkpt>
      <trkpt lat="44.82092" lon="1.25101">
        <ele>75.3327589</ele>
        <time>2022-08-16T11:23:18Z</time>
      </trkpt>
      <trkpt lat="44.82092" lon="1.25101">
        <ele>75.3327589</ele>
        <time>2022-08-16T11:23:22Z</time>
      </trkpt>
      <trkpt lat="44.82092" lon="1.25101">
        <ele>75.3327589</ele>
        <time>2022-08-16T11:23:26Z</time>
      </trkpt>
      <trkpt lat="44.82092" lon="1.25101">
        <ele>75.3327589</ele>
        <time>2022-08-16T11:23:30Z</time>
      </trkpt>
      <trkpt lat="44.82092" lon="1.25101">
        <ele>75.3327589</ele>
        <time>2022-08-16T11:23:34Z</time>
      </trkpt>
      <trkpt lat="44.82092" lon="1.25101">
        <ele>75.3327589</ele>
        <time>2022-08-16T11:23:38Z</time>
      </trkpt>
      <trkpt lat="44.82092" lon="1.25101">
        <ele>75.3327589</ele>
        <time>2022-08-16T11:23:42Z</time>
      </trkpt>
      <trkpt lat="44.82092" lon="1.25101">
        <ele>75.3327589</ele>
        <time>2022-08-16T11:23:46Z</time>
      </trkpt>
      <trkpt lat="44.82092" lon="1.25101">
        <ele>75.3327589</ele>
        <time>2022-08-16T11:23:50Z</time>
      </trkpt>
      <trkpt lat="44.82092" lon="1.25101">
        <ele>75.3327589</ele>
        <time>2022-08-16T11:23:54Z</time>
      </trkpt>
      <trkpt lat="44.82092" lon="1.25101">
        <ele>75.3327589</ele>
        <time>2022-08-16T11:23:58Z</time>
      </trkpt>
      <trkpt lat="44.82092" lon="1.25101">
        <ele>75.3327589</ele>
        <time>2022-08-16T11:24:02Z</time>
      </trkpt>
      <trkpt lat="44.82092" lon="1.25101">
        <ele>75.3327589</ele>
        <time>2022-08-16T11:24:06Z</time>
      </trkpt>
      <trkpt lat="44.82092" lon="1.25101">
        <ele>75.3327589</ele>
        <time>2022-08-16T11:24:10Z</time>
      </trkpt>
      <trkpt lat="44.82092" lon="1.25101">
        <ele>75.3327589</ele>
        <time>2022-08-16T11:24:14Z</time>
      </trkpt>
      <trkpt lat="44.82092" lon="1.25101">
        <ele>75.3327589</ele>
        <time>2022-08-16T11:24:18Z</time>
      </trkpt>
      <trkpt lat="44.82092" lon="1.25101">
        <ele>75.3327589</ele>
        <time>2022-08-16T11:24:22Z</time>
      </trkpt>
      <trkpt lat="44.82092" lon="1.25101">
        <ele>75.3327589</ele>
        <time>2022-08-16T11:24:26Z</time>
      </trkpt>
      <trkpt lat="44.82092" lon="1.25101">
        <ele>75.3327589</ele>
        <time>2022-08-16T11:24:30Z</time>
      </trkpt>
      <trkpt lat="44.82092" lon="1.25101">
        <ele>75.3327589</ele>
        <time>2022-08-16T11:24:34Z</time>
      </trkpt>
      <trkpt lat="44.82092" lon="1.25101">
        <ele>75.3327589</ele>
        <time>2022-08-16T11:24:38Z</time>
      </trkpt>
      <trkpt lat="44.82092" lon="1.25101">
        <ele>75.3327589</ele>
        <time>2022-08-16T11:24:42Z</time>
      </trkpt>
      <trkpt lat="44.82092" lon="1.25101">
        <ele>75.3327589</ele>
        <time>2022-08-16T11:24:46Z</time>
      </trkpt>
      <trkpt lat="44.82092" lon="1.25101">
        <ele>75.3327589</ele>
        <time>2022-08-16T11:24:50Z</time>
      </trkpt>
      <trkpt lat="44.82092" lon="1.25101">
        <ele>75.3327589</ele>
        <time>2022-08-16T11:24:54Z</time>
      </trkpt>
      <trkpt lat="44.82092" lon="1.25101">
        <ele>75.3327589</ele>
        <time>2022-08-16T11:24:58Z</time>
      </trkpt>
      <trkpt lat="44.82092" lon="1.25101">
        <ele>75.3327589</ele>
        <time>2022-08-16T11:25:02Z</time>
      </trkpt>
      <trkpt lat="44.82092" lon="1.25101">
        <ele>75.3327589</ele>
        <time>2022-08-16T11:25:06Z</time>
      </trkpt>
      <trkpt lat="44.82092" lon="1.25101">
        <ele>75.3327589</ele>
        <time>2022-08-16T11:25:10Z</time>
      </trkpt>
      <trkpt lat="44.82092" lon="1.25101">
        <ele>75.3327589</ele>
        <time>2022-08-16T11:25:14Z</time>
      </trkpt>
      <trkpt lat="44.82092" lon="1.25101">
        <ele>75.3327589</ele>
        <time>2022-08-16T11:25:18Z</time>
      </trkpt>
      <trkpt lat="44.82092" lon="1.25101">
        <ele>75.3327589</ele>
        <time>2022-08-16T11:25:22Z</time>
      </trkpt>
      <trkpt lat="44.82092" lon="1.25101">
        <ele>75.3327589</ele>
        <time>2022-08-16T11:25:26Z</time>
      </trkpt>
      <trkpt lat="44.82092" lon="1.25101">
        <ele>75.3327589</ele>
        <time>2022-08-16T11:25:30Z</time>
      </trkpt>
      <trkpt lat="44.82092" lon="1.25101">
        <ele>75.3327589</ele>
        <time>2022-08-16T11:25:34Z</time>
      </trkpt>
      <trkpt lat="44.82092" lon="1.25101">
        <ele>75.3327589</ele>
        <time>2022-08-16T11:25:38Z</time>
      </trkpt>
      <trkpt lat="44.82092" lon="1.25101">
        <ele>75.3327589</ele>
        <time>2022-08-16T11:25:42Z</time>
      </trkpt>
      <trkpt lat="44.82092" lon="1.25101">
        <ele>75.3327589</ele>
        <time>2022-08-16T11:25:46Z</time>
      </trkpt>
      <trkpt lat="44.82092" lon="1.25101">
        <ele>75.3327589</ele>
        <time>2022-08-16T11:25:50Z</time>
      </trkpt>
      <trkpt lat="44.82092" lon="1.25101">
        <ele>75.3327589</ele>
        <time>2022-08-16T11:25:54Z</time>
      </trkpt>
      <trkpt lat="44.82092" lon="1.25101">
        <ele>75.3327589</ele>
        <time>2022-08-16T11:25:58Z</time>
      </trkpt>
      <trkpt lat="44.82092" lon="1.25101">
        <ele>75.3327589</ele>
        <time>2022-08-16T11:26:02Z</time>
      </trkpt>
      <trkpt lat="44.82092" lon="1.25101">
        <ele>75.3327589</ele>
        <time>2022-08-16T11:26:06Z</time>
      </trkpt>
      <trkpt lat="44.82092" lon="1.25101">
        <ele>75.3327589</ele>
        <time>2022-08-16T11:26:10Z</time>
      </trkpt>
      <trkpt lat="44.82092" lon="1.25101">
        <ele>75.3327589</ele>
        <time>2022-08-16T11:26:14Z</time>
      </trkpt>
      <trkpt lat="44.82092" lon="1.25101">
        <ele>75.3327589</ele>
        <time>2022-08-16T11:26:18Z</time>
      </trkpt>
      <trkpt lat="44.82092" lon="1.25101">
        <ele>75.3327589</ele>
        <time>2022-08-16T11:26:22Z</time>
      </trkpt>
      <trkpt lat="44.82092" lon="1.25101">
        <ele>75.3327589</ele>
        <time>2022-08-16T11:26:26Z</time>
      </trkpt>
      <trkpt lat="44.82092" lon="1.25101">
        <ele>75.3327589</ele>
        <time>2022-08-16T11:26:30Z</time>
      </trkpt>
      <trkpt lat="44.82092" lon="1.25101">
        <ele>75.3327589</ele>
        <time>2022-08-16T11:26:34Z</time>
      </trkpt>
      <trkpt lat="44.82092" lon="1.25101">
        <ele>75.3327589</ele>
        <time>2022-08-16T11:26:38Z</time>
      </trkpt>
      <trkpt lat="44.82092" lon="1.25101">
        <ele>75.3327589</ele>
        <time>2022-08-16T11:26:42Z</time>
      </trkpt>
      <trkpt lat="44.82092" lon="1.25101">
        <ele>75.3327589</ele>
        <time>2022-08-16T11:26:46Z</time>
      </trkpt>
      <trkpt lat="44.82092" lon="1.25101">
        <ele>75.3327589</ele>
        <time>2022-08-16T11:26:50Z</time>
      </trkpt>
      <trkpt lat="44.82092" lon="1.25101">
        <ele>75.3327589</ele>
        <time>2022-08-16T11:26:54Z</time>
      </trkpt>
      <trkpt lat="44.82092" lon="1.25101">
        <ele>75.3327589</ele>
        <time>2022-08-16T11:26:58Z</time>
      </trkpt>
      <trkpt lat="44.82092" lon="1.25101">
        <ele>75.3327589</ele>
        <time>2022-08-16T11:27:02Z</time>
      </trkpt>
      <trkpt lat="44.82092" lon="1.25101">
        <ele>75.3327589</ele>
        <time>2022-08-16T11:27:06Z</time>
      </trkpt>
      <trkpt lat="44.82092" lon="1.25101">
        <ele>75.3327589</ele>
        <time>2022-08-16T11:27:10Z</time>
      </trkpt>
      <trkpt lat="44.82092" lon="1.25101">
        <ele>75.3327589</ele>
        <time>2022-08-16T11:27:14Z</time>
      </trkpt>
      <trkpt lat="44.82093" lon="1.251">
        <ele>73.7278159</ele>
        <time>2022-08-16T11:27:18Z</time>
      </trkpt>
      <trkpt lat="44.82093" lon="1.251">
        <ele>74.261476</ele>
        <time>2022-08-16T11:27:20Z</time>
      </trkpt>
      <trkpt lat="44.8209" lon="1.25101">
        <ele>73.4931863</ele>
        <time>2022-08-16T11:27:22Z</time>
      </trkpt>
      <trkpt lat="44.8209" lon="1.25101">
        <ele>74.0507995</ele>
        <time>2022-08-16T11:27:24Z</time>
      </trkpt>
      <trkpt lat="44.8209" lon="1.25101">
        <ele>74.0507995</ele>
        <time>2022-08-16T11:27:28Z</time>
      </trkpt>
      <trkpt lat="44.8209" lon="1.25101">
        <ele>74.0507995</ele>
        <time>2022-08-16T11:27:32Z</time>
      </trkpt>
      <trkpt lat="44.82089" lon="1.251">
        <ele>76.1178568</ele>
        <time>2022-08-16T11:27:34Z</time>
      </trkpt>
      <trkpt lat="44.82088" lon="1.25101">
        <ele>75.8196729</ele>
        <time>2022-08-16T11:27:36Z</time>
      </trkpt>
      <trkpt lat="44.82088" lon="1.25103">
        <ele>75.7344371</ele>
        <time>2022-08-16T11:27:38Z</time>
      </trkpt>
      <trkpt lat="44.82088" lon="1.25104">
        <ele>75.2997539</ele>
        <time>2022-08-16T11:27:40Z</time>
      </trkpt>
      <trkpt lat="44.82089" lon="1.25105">
        <ele>75.7769173</ele>
        <time>2022-08-16T11:27:42Z</time>
      </trkpt>
      <trkpt lat="44.82089" lon="1.25105">
        <ele>76.2351971</ele>
        <time>2022-08-16T11:27:44Z</time>
      </trkpt>
      <trkpt lat="44.82089" lon="1.25105">
        <ele>75.7098613</ele>
        <time>2022-08-16T11:27:46Z</time>
      </trkpt>
      <trkpt lat="44.82088" lon="1.25105">
        <ele>75.0024095</ele>
        <time>2022-08-16T11:27:48Z</time>
      </trkpt>
      <trkpt lat="44.82088" lon="1.25105">
        <ele>75.3230578</ele>
        <time>2022-08-16T11:27:50Z</time>
      </trkpt>
      <trkpt lat="44.82089" lon="1.25108">
        <ele>75.988149</ele>
        <time>2022-08-16T11:27:52Z</time>
      </trkpt>
      <trkpt lat="44.82089" lon="1.25111">
        <ele>76.0710544</ele>
        <time>2022-08-16T11:27:54Z</time>
      </trkpt>
      <trkpt lat="44.82088" lon="1.25114">
        <ele>76.5990849</ele>
        <time>2022-08-16T11:27:56Z</time>
      </trkpt>
      <trkpt lat="44.82089" lon="1.25117">
        <ele>76.9078269</ele>
        <time>2022-08-16T11:27:58Z</time>
      </trkpt>
      <trkpt lat="44.82089" lon="1.25119">
        <ele>77.7670625</ele>
        <time>2022-08-16T11:28:00Z</time>
      </trkpt>
      <trkpt lat="44.8209" lon="1.25121">
        <ele>78.2429597</ele>
        <time>2022-08-16T11:28:02Z</time>
      </trkpt>
      <trkpt lat="44.82091" lon="1.25122">
        <ele>79.9684198</ele>
        <time>2022-08-16T11:28:04Z</time>
      </trkpt>
      <trkpt lat="44.82092" lon="1.25125">
        <ele>80.4153626</ele>
        <time>2022-08-16T11:28:06Z</time>
      </trkpt>
      <trkpt lat="44.82092" lon="1.25127">
        <ele>81.0637098</ele>
        <time>2022-08-16T11:28:08Z</time>
      </trkpt>
      <trkpt lat="44.82093" lon="1.2513">
        <ele>81.4964532</ele>
        <time>2022-08-16T11:28:10Z</time>
      </trkpt>
      <trkpt lat="44.82093" lon="1.25132">
        <ele>81.6263143</ele>
        <time>2022-08-16T11:28:12Z</time>
      </trkpt>
      <trkpt lat="44.82092" lon="1.25135">
        <ele>81.4309999</ele>
        <time>2022-08-16T11:28:14Z</time>
      </trkpt>
      <trkpt lat="44.82093" lon="1.25139">
        <ele>81.8584742</ele>
        <time>2022-08-16T11:28:16Z</time>
      </trkpt>
      <trkpt lat="44.82093" lon="1.25141">
        <ele>81.9337361</ele>
        <time>2022-08-16T11:28:18Z</time>
      </trkpt>
      <trkpt lat="44.82094" lon="1.25144">
        <ele>82.3991538</ele>
        <time>2022-08-16T11:28:20Z</time>
      </trkpt>
      <trkpt lat="44.82094" lon="1.25147">
        <ele>82.4719009</ele>
        <time>2022-08-16T11:28:22Z</time>
      </trkpt>
      <trkpt lat="44.82093" lon="1.25149">
        <ele>82.5974102</ele>
        <time>2022-08-16T11:28:24Z</time>
      </trkpt>
      <trkpt lat="44.82092" lon="1.25154">
        <ele>81.9623713</ele>
        <time>2022-08-16T11:28:26Z</time>
      </trkpt>
      <trkpt lat="44.82092" lon="1.25156">
        <ele>82.0146903</ele>
        <time>2022-08-16T11:28:28Z</time>
      </trkpt>
      <trkpt lat="44.82092" lon="1.2516">
        <ele>82.7113619</ele>
        <time>2022-08-16T11:28:30Z</time>
      </trkpt>
      <trkpt lat="44.82093" lon="1.25163">
        <ele>81.99189</ele>
        <time>2022-08-16T11:28:32Z</time>
      </trkpt>
      <trkpt lat="44.82092" lon="1.25165">
        <ele>82.0474608</ele>
        <time>2022-08-16T11:28:34Z</time>
      </trkpt>
      <trkpt lat="44.82092" lon="1.25169">
        <ele>82.2894323</ele>
        <time>2022-08-16T11:28:36Z</time>
      </trkpt>
      <trkpt lat="44.82092" lon="1.25171">
        <ele>83.3616154</ele>
        <time>2022-08-16T11:28:38Z</time>
      </trkpt>
      <trkpt lat="44.82093" lon="1.25173">
        <ele>84.2894177</ele>
        <time>2022-08-16T11:28:40Z</time>
      </trkpt>
      <trkpt lat="44.82094" lon="1.25175">
        <ele>84.1513279</ele>
        <time>2022-08-16T11:28:42Z</time>
      </trkpt>
      <trkpt lat="44.82096" lon="1.25178">
        <ele>84.3704309</ele>
        <time>2022-08-16T11:28:44Z</time>
      </trkpt>
      <trkpt lat="44.82097" lon="1.25181">
        <ele>84.9377153</ele>
        <time>2022-08-16T11:28:46Z</time>
      </trkpt>
      <trkpt lat="44.82097" lon="1.25185">
        <ele>85.334326</ele>
        <time>2022-08-16T11:28:48Z</time>
      </trkpt>
      <trkpt lat="44.82098" lon="1.25189">
        <ele>85.5541253</ele>
        <time>2022-08-16T11:28:50Z</time>
      </trkpt>
      <trkpt lat="44.82098" lon="1.25191">
        <ele>86.2866197</ele>
        <time>2022-08-16T11:28:52Z</time>
      </trkpt>
      <trkpt lat="44.82099" lon="1.25193">
        <ele>85.9803339</ele>
        <time>2022-08-16T11:28:54Z</time>
      </trkpt>
      <trkpt lat="44.821" lon="1.25196">
        <ele>86.8020714</ele>
        <time>2022-08-16T11:28:56Z</time>
      </trkpt>
      <trkpt lat="44.821" lon="1.25197">
        <ele>86.5313906</ele>
        <time>2022-08-16T11:28:58Z</time>
      </trkpt>
      <trkpt lat="44.821" lon="1.25196">
        <ele>85.3353536</ele>
        <time>2022-08-16T11:29:00Z</time>
      </trkpt>
      <trkpt lat="44.82101" lon="1.25199">
        <ele>85.6027496</ele>
        <time>2022-08-16T11:29:02Z</time>
      </trkpt>
      <trkpt lat="44.82101" lon="1.252">
        <ele>86.3299269</ele>
        <time>2022-08-16T11:29:04Z</time>
      </trkpt>
      <trkpt lat="44.821" lon="1.25198">
        <ele>88.0217693</ele>
        <time>2022-08-16T11:29:06Z</time>
      </trkpt>
      <trkpt lat="44.82101" lon="1.25197">
        <ele>89.3676031</ele>
        <time>2022-08-16T11:29:08Z</time>
      </trkpt>
      <trkpt lat="44.82101" lon="1.25198">
        <ele>90.6958843</ele>
        <time>2022-08-16T11:29:10Z</time>
      </trkpt>
      <trkpt lat="44.821" lon="1.25197">
        <ele>90.1466627</ele>
        <time>2022-08-16T11:29:12Z</time>
      </trkpt>
      <trkpt lat="44.821" lon="1.25197">
        <ele>90.1466627</ele>
        <time>2022-08-16T11:29:16Z</time>
      </trkpt>
      <trkpt lat="44.82102" lon="1.25192">
        <ele>91.5213282</ele>
        <time>2022-08-16T11:29:18Z</time>
      </trkpt>
      <trkpt lat="44.82101" lon="1.25191">
        <ele>92.3746624</ele>
        <time>2022-08-16T11:29:20Z</time>
      </trkpt>
      <trkpt lat="44.82101" lon="1.25191">
        <ele>92.3746624</ele>
        <time>2022-08-16T11:29:24Z</time>
      </trkpt>
      <trkpt lat="44.82101" lon="1.25191">
        <ele>92.3746624</ele>
        <time>2022-08-16T11:29:28Z</time>
      </trkpt>
      <trkpt lat="44.82101" lon="1.25191">
        <ele>92.3746624</ele>
        <time>2022-08-16T11:29:32Z</time>
      </trkpt>
      <trkpt lat="44.82101" lon="1.25191">
        <ele>92.3746624</ele>
        <time>2022-08-16T11:29:36Z</time>
      </trkpt>
      <trkpt lat="44.82101" lon="1.25191">
        <ele>92.3746624</ele>
        <time>2022-08-16T11:29:40Z</time>
      </trkpt>
      <trkpt lat="44.82101" lon="1.25191">
        <ele>92.3746624</ele>
        <time>2022-08-16T11:29:44Z</time>
      </trkpt>
      <trkpt lat="44.82101" lon="1.25191">
        <ele>92.3746624</ele>
        <time>2022-08-16T11:29:48Z</time>
      </trkpt>
      <trkpt lat="44.82101" lon="1.25191">
        <ele>92.3746624</ele>
        <time>2022-08-16T11:29:52Z</time>
      </trkpt>
      <trkpt lat="44.82101" lon="1.25191">
        <ele>92.3746624</ele>
        <time>2022-08-16T11:29:56Z</time>
      </trkpt>
      <trkpt lat="44.82101" lon="1.25191">
        <ele>92.3746624</ele>
        <time>2022-08-16T11:30:00Z</time>
      </trkpt>
      <trkpt lat="44.82101" lon="1.25191">
        <ele>92.3746624</ele>
        <time>2022-08-16T11:30:04Z</time>
      </trkpt>
      <trkpt lat="44.82099" lon="1.2519">
        <ele>91.3061607</ele>
        <time>2022-08-16T11:30:08Z</time>
      </trkpt>
      <trkpt lat="44.82099" lon="1.2519">
        <ele>91.3061607</ele>
        <time>2022-08-16T11:30:12Z</time>
      </trkpt>
      <trkpt lat="44.82099" lon="1.2519">
        <ele>91.3061607</ele>
        <time>2022-08-16T11:30:16Z</time>
      </trkpt>
      <trkpt lat="44.82099" lon="1.2519">
        <ele>91.3061607</ele>
        <time>2022-08-16T11:30:20Z</time>
      </trkpt>
      <trkpt lat="44.82099" lon="1.2519">
        <ele>91.3061607</ele>
        <time>2022-08-16T11:30:24Z</time>
      </trkpt>
      <trkpt lat="44.82099" lon="1.2519">
        <ele>91.3061607</ele>
        <time>2022-08-16T11:30:28Z</time>
      </trkpt>
      <trkpt lat="44.82099" lon="1.2519">
        <ele>91.3061607</ele>
        <time>2022-08-16T11:30:32Z</time>
      </trkpt>
      <trkpt lat="44.82099" lon="1.2519">
        <ele>91.3061607</ele>
        <time>2022-08-16T11:30:36Z</time>
      </trkpt>
      <trkpt lat="44.82099" lon="1.2519">
        <ele>91.3061607</ele>
        <time>2022-08-16T11:30:40Z</time>
      </trkpt>
      <trkpt lat="44.82099" lon="1.2519">
        <ele>91.3061607</ele>
        <time>2022-08-16T11:30:44Z</time>
      </trkpt>
      <trkpt lat="44.82099" lon="1.2519">
        <ele>91.3061607</ele>
        <time>2022-08-16T11:30:48Z</time>
      </trkpt>
      <trkpt lat="44.82099" lon="1.2519">
        <ele>91.3061607</ele>
        <time>2022-08-16T11:30:52Z</time>
      </trkpt>
      <trkpt lat="44.82099" lon="1.2519">
        <ele>91.3061607</ele>
        <time>2022-08-16T11:30:56Z</time>
      </trkpt>
      <trkpt lat="44.82099" lon="1.2519">
        <ele>91.3061607</ele>
        <time>2022-08-16T11:31:00Z</time>
      </trkpt>
      <trkpt lat="44.82099" lon="1.2519">
        <ele>91.3061607</ele>
        <time>2022-08-16T11:31:04Z</time>
      </trkpt>
      <trkpt lat="44.82099" lon="1.2519">
        <ele>91.3061607</ele>
        <time>2022-08-16T11:31:08Z</time>
      </trkpt>
      <trkpt lat="44.82099" lon="1.2519">
        <ele>91.3061607</ele>
        <time>2022-08-16T11:31:12Z</time>
      </trkpt>
      <trkpt lat="44.82099" lon="1.2519">
        <ele>91.3061607</ele>
        <time>2022-08-16T11:31:16Z</time>
      </trkpt>
      <trkpt lat="44.82099" lon="1.2519">
        <ele>91.3061607</ele>
        <time>2022-08-16T11:31:20Z</time>
      </trkpt>
      <trkpt lat="44.82099" lon="1.2519">
        <ele>91.3061607</ele>
        <time>2022-08-16T11:31:24Z</time>
      </trkpt>
      <trkpt lat="44.82099" lon="1.2519">
        <ele>91.3061607</ele>
        <time>2022-08-16T11:31:28Z</time>
      </trkpt>
      <trkpt lat="44.82099" lon="1.2519">
        <ele>91.3061607</ele>
        <time>2022-08-16T11:31:32Z</time>
      </trkpt>
      <trkpt lat="44.82099" lon="1.2519">
        <ele>91.3061607</ele>
        <time>2022-08-16T11:31:36Z</time>
      </trkpt>
      <trkpt lat="44.82099" lon="1.2519">
        <ele>91.3061607</ele>
        <time>2022-08-16T11:31:40Z</time>
      </trkpt>
      <trkpt lat="44.82099" lon="1.2519">
        <ele>91.3061607</ele>
        <time>2022-08-16T11:31:44Z</time>
      </trkpt>
      <trkpt lat="44.82099" lon="1.2519">
        <ele>91.3061607</ele>
        <time>2022-08-16T11:31:48Z</time>
      </trkpt>
      <trkpt lat="44.82099" lon="1.2519">
        <ele>91.3061607</ele>
        <time>2022-08-16T11:31:52Z</time>
      </trkpt>
      <trkpt lat="44.82099" lon="1.2519">
        <ele>91.3061607</ele>
        <time>2022-08-16T11:31:56Z</time>
      </trkpt>
      <trkpt lat="44.82099" lon="1.2519">
        <ele>91.3061607</ele>
        <time>2022-08-16T11:32:00Z</time>
      </trkpt>
      <trkpt lat="44.82099" lon="1.2519">
        <ele>91.3061607</ele>
        <time>2022-08-16T11:32:04Z</time>
      </trkpt>
      <trkpt lat="44.82099" lon="1.2519">
        <ele>91.3061607</ele>
        <time>2022-08-16T11:32:08Z</time>
      </trkpt>
      <trkpt lat="44.82099" lon="1.2519">
        <ele>91.3061607</ele>
        <time>2022-08-16T11:32:12Z</time>
      </trkpt>
      <trkpt lat="44.82099" lon="1.2519">
        <ele>91.3061607</ele>
        <time>2022-08-16T11:32:16Z</time>
      </trkpt>
      <trkpt lat="44.82094" lon="1.25195">
        <ele>80.4337734</ele>
        <time>2022-08-16T11:32:18Z</time>
      </trkpt>
      <trkpt lat="44.82094" lon="1.25195">
        <ele>80.4337734</ele>
        <time>2022-08-16T11:32:22Z</time>
      </trkpt>
      <trkpt lat="44.82094" lon="1.25195">
        <ele>80.4337734</ele>
        <time>2022-08-16T11:32:26Z</time>
      </trkpt>
      <trkpt lat="44.82094" lon="1.25195">
        <ele>80.4337734</ele>
        <time>2022-08-16T11:32:30Z</time>
      </trkpt>
      <trkpt lat="44.82094" lon="1.25195">
        <ele>80.4337734</ele>
        <time>2022-08-16T11:32:34Z</time>
      </trkpt>
      <trkpt lat="44.82094" lon="1.25195">
        <ele>80.4337734</ele>
        <time>2022-08-16T11:32:38Z</time>
      </trkpt>
      <trkpt lat="44.82094" lon="1.25195">
        <ele>80.4337734</ele>
        <time>2022-08-16T11:32:42Z</time>
      </trkpt>
      <trkpt lat="44.82094" lon="1.25195">
        <ele>80.4337734</ele>
        <time>2022-08-16T11:32:46Z</time>
      </trkpt>
      <trkpt lat="44.82094" lon="1.25195">
        <ele>80.4337734</ele>
        <time>2022-08-16T11:32:50Z</time>
      </trkpt>
      <trkpt lat="44.82094" lon="1.25195">
        <ele>80.4337734</ele>
        <time>2022-08-16T11:32:54Z</time>
      </trkpt>
      <trkpt lat="44.82094" lon="1.25195">
        <ele>80.4337734</ele>
        <time>2022-08-16T11:32:58Z</time>
      </trkpt>
      <trkpt lat="44.82094" lon="1.25195">
        <ele>80.4337734</ele>
        <time>2022-08-16T11:33:02Z</time>
      </trkpt>
      <trkpt lat="44.82094" lon="1.25195">
        <ele>80.4337734</ele>
        <time>2022-08-16T11:33:06Z</time>
      </trkpt>
      <trkpt lat="44.82094" lon="1.25195">
        <ele>80.4337734</ele>
        <time>2022-08-16T11:33:10Z</time>
      </trkpt>
      <trkpt lat="44.82094" lon="1.25195">
        <ele>80.4337734</ele>
        <time>2022-08-16T11:33:14Z</time>
      </trkpt>
      <trkpt lat="44.82094" lon="1.25195">
        <ele>80.4337734</ele>
        <time>2022-08-16T11:33:18Z</time>
      </trkpt>
      <trkpt lat="44.82094" lon="1.25195">
        <ele>80.4337734</ele>
        <time>2022-08-16T11:33:22Z</time>
      </trkpt>
      <trkpt lat="44.82094" lon="1.25195">
        <ele>80.4337734</ele>
        <time>2022-08-16T11:33:26Z</time>
      </trkpt>
      <trkpt lat="44.82094" lon="1.25195">
        <ele>80.4337734</ele>
        <time>2022-08-16T11:33:30Z</time>
      </trkpt>
      <trkpt lat="44.82094" lon="1.25195">
        <ele>80.4337734</ele>
        <time>2022-08-16T11:33:34Z</time>
      </trkpt>
      <trkpt lat="44.82094" lon="1.25195">
        <ele>80.4337734</ele>
        <time>2022-08-16T11:33:38Z</time>
      </trkpt>
      <trkpt lat="44.82094" lon="1.25195">
        <ele>80.4337734</ele>
        <time>2022-08-16T11:33:42Z</time>
      </trkpt>
      <trkpt lat="44.82094" lon="1.25195">
        <ele>80.4337734</ele>
        <time>2022-08-16T11:33:46Z</time>
      </trkpt>
      <trkpt lat="44.82094" lon="1.25195">
        <ele>80.4337734</ele>
        <time>2022-08-16T11:33:50Z</time>
      </trkpt>
      <trkpt lat="44.82094" lon="1.25195">
        <ele>80.4337734</ele>
        <time>2022-08-16T11:33:54Z</time>
      </trkpt>
      <trkpt lat="44.82094" lon="1.25195">
        <ele>80.4337734</ele>
        <time>2022-08-16T11:33:58Z</time>
      </trkpt>
      <trkpt lat="44.82094" lon="1.25195">
        <ele>80.4337734</ele>
        <time>2022-08-16T11:34:02Z</time>
      </trkpt>
      <trkpt lat="44.82094" lon="1.25195">
        <ele>80.4337734</ele>
        <time>2022-08-16T11:34:06Z</time>
      </trkpt>
      <trkpt lat="44.82094" lon="1.25195">
        <ele>80.4337734</ele>
        <time>2022-08-16T11:34:10Z</time>
      </trkpt>
      <trkpt lat="44.82094" lon="1.25195">
        <ele>80.4337734</ele>
        <time>2022-08-16T11:34:14Z</time>
      </trkpt>
      <trkpt lat="44.82094" lon="1.25195">
        <ele>80.4337734</ele>
        <time>2022-08-16T11:34:18Z</time>
      </trkpt>
      <trkpt lat="44.82094" lon="1.25195">
        <ele>80.4337734</ele>
        <time>2022-08-16T11:34:22Z</time>
      </trkpt>
      <trkpt lat="44.82094" lon="1.25195">
        <ele>80.4337734</ele>
        <time>2022-08-16T11:34:26Z</time>
      </trkpt>
      <trkpt lat="44.82094" lon="1.25195">
        <ele>80.4337734</ele>
        <time>2022-08-16T11:34:30Z</time>
      </trkpt>
      <trkpt lat="44.82094" lon="1.25195">
        <ele>80.4337734</ele>
        <time>2022-08-16T11:34:34Z</time>
      </trkpt>
      <trkpt lat="44.82094" lon="1.25195">
        <ele>80.4337734</ele>
        <time>2022-08-16T11:34:38Z</time>
      </trkpt>
      <trkpt lat="44.82094" lon="1.25195">
        <ele>80.4337734</ele>
        <time>2022-08-16T11:34:42Z</time>
      </trkpt>
      <trkpt lat="44.82094" lon="1.25195">
        <ele>80.4337734</ele>
        <time>2022-08-16T11:34:46Z</time>
      </trkpt>
      <trkpt lat="44.82094" lon="1.25195">
        <ele>80.4337734</ele>
        <time>2022-08-16T11:34:50Z</time>
      </trkpt>
      <trkpt lat="44.82094" lon="1.25195">
        <ele>80.4337734</ele>
        <time>2022-08-16T11:34:54Z</time>
      </trkpt>
      <trkpt lat="44.82094" lon="1.25195">
        <ele>80.4337734</ele>
        <time>2022-08-16T11:34:58Z</time>
      </trkpt>
      <trkpt lat="44.82094" lon="1.25195">
        <ele>80.4337734</ele>
        <time>2022-08-16T11:35:02Z</time>
      </trkpt>
      <trkpt lat="44.82094" lon="1.25195">
        <ele>80.4337734</ele>
        <time>2022-08-16T11:35:06Z</time>
      </trkpt>
      <trkpt lat="44.82094" lon="1.25195">
        <ele>80.4337734</ele>
        <time>2022-08-16T11:35:10Z</time>
      </trkpt>
      <trkpt lat="44.82094" lon="1.25195">
        <ele>80.4337734</ele>
        <time>2022-08-16T11:35:14Z</time>
      </trkpt>
      <trkpt lat="44.82094" lon="1.25195">
        <ele>80.4337734</ele>
        <time>2022-08-16T11:35:18Z</time>
      </trkpt>
      <trkpt lat="44.82094" lon="1.25195">
        <ele>80.4337734</ele>
        <time>2022-08-16T11:35:22Z</time>
      </trkpt>
      <trkpt lat="44.82094" lon="1.25195">
        <ele>80.4337734</ele>
        <time>2022-08-16T11:35:26Z</time>
      </trkpt>
      <trkpt lat="44.82094" lon="1.25195">
        <ele>80.4337734</ele>
        <time>2022-08-16T11:35:30Z</time>
      </trkpt>
      <trkpt lat="44.82094" lon="1.25195">
        <ele>80.4337734</ele>
        <time>2022-08-16T11:35:34Z</time>
      </trkpt>
      <trkpt lat="44.82094" lon="1.25195">
        <ele>80.4337734</ele>
        <time>2022-08-16T11:35:38Z</time>
      </trkpt>
      <trkpt lat="44.82094" lon="1.25195">
        <ele>80.4337734</ele>
        <time>2022-08-16T11:35:42Z</time>
      </trkpt>
      <trkpt lat="44.82094" lon="1.25195">
        <ele>80.4337734</ele>
        <time>2022-08-16T11:35:46Z</time>
      </trkpt>
      <trkpt lat="44.82094" lon="1.25195">
        <ele>80.4337734</ele>
        <time>2022-08-16T11:35:50Z</time>
      </trkpt>
      <trkpt lat="44.82094" lon="1.25195">
        <ele>80.4337734</ele>
        <time>2022-08-16T11:35:54Z</time>
      </trkpt>
      <trkpt lat="44.82094" lon="1.25195">
        <ele>80.4337734</ele>
        <time>2022-08-16T11:35:58Z</time>
      </trkpt>
      <trkpt lat="44.82094" lon="1.25195">
        <ele>80.4337734</ele>
        <time>2022-08-16T11:36:02Z</time>
      </trkpt>
      <trkpt lat="44.82094" lon="1.25195">
        <ele>80.4337734</ele>
        <time>2022-08-16T11:36:06Z</time>
      </trkpt>
      <trkpt lat="44.82094" lon="1.25195">
        <ele>80.4337734</ele>
        <time>2022-08-16T11:36:10Z</time>
      </trkpt>
      <trkpt lat="44.82094" lon="1.25195">
        <ele>80.4337734</ele>
        <time>2022-08-16T11:36:14Z</time>
      </trkpt>
      <trkpt lat="44.82094" lon="1.25195">
        <ele>80.4337734</ele>
        <time>2022-08-16T11:36:18Z</time>
      </trkpt>
      <trkpt lat="44.82094" lon="1.25195">
        <ele>80.4337734</ele>
        <time>2022-08-16T11:36:22Z</time>
      </trkpt>
      <trkpt lat="44.82094" lon="1.25195">
        <ele>80.4337734</ele>
        <time>2022-08-16T11:36:26Z</time>
      </trkpt>
      <trkpt lat="44.82094" lon="1.25195">
        <ele>80.4337734</ele>
        <time>2022-08-16T11:36:30Z</time>
      </trkpt>
      <trkpt lat="44.82094" lon="1.25195">
        <ele>80.4337734</ele>
        <time>2022-08-16T11:36:34Z</time>
      </trkpt>
      <trkpt lat="44.82094" lon="1.25195">
        <ele>80.4337734</ele>
        <time>2022-08-16T11:36:38Z</time>
      </trkpt>
      <trkpt lat="44.82094" lon="1.25195">
        <ele>80.4337734</ele>
        <time>2022-08-16T11:36:42Z</time>
      </trkpt>
      <trkpt lat="44.82094" lon="1.25195">
        <ele>80.4337734</ele>
        <time>2022-08-16T11:36:46Z</time>
      </trkpt>
      <trkpt lat="44.82094" lon="1.25195">
        <ele>80.4337734</ele>
        <time>2022-08-16T11:36:50Z</time>
      </trkpt>
      <trkpt lat="44.82094" lon="1.25195">
        <ele>80.4337734</ele>
        <time>2022-08-16T11:36:54Z</time>
      </trkpt>
      <trkpt lat="44.82094" lon="1.25195">
        <ele>80.4337734</ele>
        <time>2022-08-16T11:36:58Z</time>
      </trkpt>
      <trkpt lat="44.82094" lon="1.25195">
        <ele>80.4337734</ele>
        <time>2022-08-16T11:37:02Z</time>
      </trkpt>
      <trkpt lat="44.82094" lon="1.25195">
        <ele>80.4337734</ele>
        <time>2022-08-16T11:37:06Z</time>
      </trkpt>
      <trkpt lat="44.82094" lon="1.25195">
        <ele>80.4337734</ele>
        <time>2022-08-16T11:37:10Z</time>
      </trkpt>
      <trkpt lat="44.82094" lon="1.25195">
        <ele>80.4337734</ele>
        <time>2022-08-16T11:37:14Z</time>
      </trkpt>
      <trkpt lat="44.82094" lon="1.25195">
        <ele>80.4337734</ele>
        <time>2022-08-16T11:37:18Z</time>
      </trkpt>
      <trkpt lat="44.82094" lon="1.25195">
        <ele>80.4337734</ele>
        <time>2022-08-16T11:37:22Z</time>
      </trkpt>
      <trkpt lat="44.82094" lon="1.25195">
        <ele>80.4337734</ele>
        <time>2022-08-16T11:37:26Z</time>
      </trkpt>
      <trkpt lat="44.82094" lon="1.25195">
        <ele>80.4337734</ele>
        <time>2022-08-16T11:37:30Z</time>
      </trkpt>
      <trkpt lat="44.82094" lon="1.25195">
        <ele>80.4337734</ele>
        <time>2022-08-16T11:37:34Z</time>
      </trkpt>
      <trkpt lat="44.82094" lon="1.25195">
        <ele>80.4337734</ele>
        <time>2022-08-16T11:37:38Z</time>
      </trkpt>
      <trkpt lat="44.82094" lon="1.25195">
        <ele>80.4337734</ele>
        <time>2022-08-16T11:37:42Z</time>
      </trkpt>
      <trkpt lat="44.82094" lon="1.25195">
        <ele>80.4337734</ele>
        <time>2022-08-16T11:37:46Z</time>
      </trkpt>
      <trkpt lat="44.82094" lon="1.25195">
        <ele>80.4337734</ele>
        <time>2022-08-16T11:37:50Z</time>
      </trkpt>
      <trkpt lat="44.82094" lon="1.25195">
        <ele>80.4337734</ele>
        <time>2022-08-16T11:37:54Z</time>
      </trkpt>
      <trkpt lat="44.82094" lon="1.25195">
        <ele>80.4337734</ele>
        <time>2022-08-16T11:37:58Z</time>
      </trkpt>
      <trkpt lat="44.82094" lon="1.25195">
        <ele>80.4337734</ele>
        <time>2022-08-16T11:38:02Z</time>
      </trkpt>
      <trkpt lat="44.82094" lon="1.25195">
        <ele>80.4337734</ele>
        <time>2022-08-16T11:38:06Z</time>
      </trkpt>
      <trkpt lat="44.82094" lon="1.25195">
        <ele>80.4337734</ele>
        <time>2022-08-16T11:38:10Z</time>
      </trkpt>
      <trkpt lat="44.82094" lon="1.25195">
        <ele>80.4337734</ele>
        <time>2022-08-16T11:38:14Z</time>
      </trkpt>
      <trkpt lat="44.82094" lon="1.25195">
        <ele>80.4337734</ele>
        <time>2022-08-16T11:38:18Z</time>
      </trkpt>
      <trkpt lat="44.82094" lon="1.25195">
        <ele>80.4337734</ele>
        <time>2022-08-16T11:38:22Z</time>
      </trkpt>
      <trkpt lat="44.82094" lon="1.25195">
        <ele>80.4337734</ele>
        <time>2022-08-16T11:38:26Z</time>
      </trkpt>
      <trkpt lat="44.82094" lon="1.25195">
        <ele>80.4337734</ele>
        <time>2022-08-16T11:38:30Z</time>
      </trkpt>
      <trkpt lat="44.82094" lon="1.25195">
        <ele>80.4337734</ele>
        <time>2022-08-16T11:38:34Z</time>
      </trkpt>
      <trkpt lat="44.82094" lon="1.25195">
        <ele>80.4337734</ele>
        <time>2022-08-16T11:38:38Z</time>
      </trkpt>
      <trkpt lat="44.82094" lon="1.25195">
        <ele>80.4337734</ele>
        <time>2022-08-16T11:38:42Z</time>
      </trkpt>
      <trkpt lat="44.82094" lon="1.25195">
        <ele>80.4337734</ele>
        <time>2022-08-16T11:38:46Z</time>
      </trkpt>
      <trkpt lat="44.82094" lon="1.25195">
        <ele>80.4337734</ele>
        <time>2022-08-16T11:38:50Z</time>
      </trkpt>
      <trkpt lat="44.82094" lon="1.25195">
        <ele>80.4337734</ele>
        <time>2022-08-16T11:38:54Z</time>
      </trkpt>
      <trkpt lat="44.82094" lon="1.25195">
        <ele>80.4337734</ele>
        <time>2022-08-16T11:38:58Z</time>
      </trkpt>
      <trkpt lat="44.82094" lon="1.25195">
        <ele>80.4337734</ele>
        <time>2022-08-16T11:39:02Z</time>
      </trkpt>
      <trkpt lat="44.82094" lon="1.25195">
        <ele>80.4337734</ele>
        <time>2022-08-16T11:39:06Z</time>
      </trkpt>
      <trkpt lat="44.82094" lon="1.25195">
        <ele>80.4337734</ele>
        <time>2022-08-16T11:39:10Z</time>
      </trkpt>
      <trkpt lat="44.82094" lon="1.25195">
        <ele>80.4337734</ele>
        <time>2022-08-16T11:39:14Z</time>
      </trkpt>
      <trkpt lat="44.82094" lon="1.25195">
        <ele>80.4337734</ele>
        <time>2022-08-16T11:39:18Z</time>
      </trkpt>
      <trkpt lat="44.82094" lon="1.25195">
        <ele>80.4337734</ele>
        <time>2022-08-16T11:39:22Z</time>
      </trkpt>
      <trkpt lat="44.82094" lon="1.25195">
        <ele>80.4337734</ele>
        <time>2022-08-16T11:39:26Z</time>
      </trkpt>
      <trkpt lat="44.82094" lon="1.25195">
        <ele>80.4337734</ele>
        <time>2022-08-16T11:39:30Z</time>
      </trkpt>
      <trkpt lat="44.82094" lon="1.25195">
        <ele>80.4337734</ele>
        <time>2022-08-16T11:39:34Z</time>
      </trkpt>
      <trkpt lat="44.82094" lon="1.25195">
        <ele>80.4337734</ele>
        <time>2022-08-16T11:39:38Z</time>
      </trkpt>
      <trkpt lat="44.82094" lon="1.25195">
        <ele>80.4337734</ele>
        <time>2022-08-16T11:39:42Z</time>
      </trkpt>
      <trkpt lat="44.82094" lon="1.25195">
        <ele>80.4337734</ele>
        <time>2022-08-16T11:39:46Z</time>
      </trkpt>
      <trkpt lat="44.82094" lon="1.25195">
        <ele>80.4337734</ele>
        <time>2022-08-16T11:39:50Z</time>
      </trkpt>
      <trkpt lat="44.82094" lon="1.25195">
        <ele>80.4337734</ele>
        <time>2022-08-16T11:39:54Z</time>
      </trkpt>
      <trkpt lat="44.82094" lon="1.25195">
        <ele>80.4337734</ele>
        <time>2022-08-16T11:39:58Z</time>
      </trkpt>
      <trkpt lat="44.82094" lon="1.25195">
        <ele>80.4337734</ele>
        <time>2022-08-16T11:40:02Z</time>
      </trkpt>
      <trkpt lat="44.82094" lon="1.25195">
        <ele>80.4337734</ele>
        <time>2022-08-16T11:40:06Z</time>
      </trkpt>
      <trkpt lat="44.82094" lon="1.25195">
        <ele>80.4337734</ele>
        <time>2022-08-16T11:40:10Z</time>
      </trkpt>
      <trkpt lat="44.82094" lon="1.25195">
        <ele>80.4337734</ele>
        <time>2022-08-16T11:40:14Z</time>
      </trkpt>
      <trkpt lat="44.82094" lon="1.25195">
        <ele>80.4337734</ele>
        <time>2022-08-16T11:40:18Z</time>
      </trkpt>
      <trkpt lat="44.82094" lon="1.25195">
        <ele>80.4337734</ele>
        <time>2022-08-16T11:40:22Z</time>
      </trkpt>
      <trkpt lat="44.82094" lon="1.25195">
        <ele>80.4337734</ele>
        <time>2022-08-16T11:40:26Z</time>
      </trkpt>
      <trkpt lat="44.82094" lon="1.25195">
        <ele>80.4337734</ele>
        <time>2022-08-16T11:40:30Z</time>
      </trkpt>
      <trkpt lat="44.82094" lon="1.25195">
        <ele>80.4337734</ele>
        <time>2022-08-16T11:40:34Z</time>
      </trkpt>
      <trkpt lat="44.82094" lon="1.25195">
        <ele>80.4337734</ele>
        <time>2022-08-16T11:40:38Z</time>
      </trkpt>
      <trkpt lat="44.82094" lon="1.25195">
        <ele>80.4337734</ele>
        <time>2022-08-16T11:40:42Z</time>
      </trkpt>
      <trkpt lat="44.82094" lon="1.25195">
        <ele>80.4337734</ele>
        <time>2022-08-16T11:40:46Z</time>
      </trkpt>
      <trkpt lat="44.82094" lon="1.25195">
        <ele>80.4337734</ele>
        <time>2022-08-16T11:40:50Z</time>
      </trkpt>
      <trkpt lat="44.82094" lon="1.25195">
        <ele>80.4337734</ele>
        <time>2022-08-16T11:40:54Z</time>
      </trkpt>
      <trkpt lat="44.82094" lon="1.25195">
        <ele>80.4337734</ele>
        <time>2022-08-16T11:40:58Z</time>
      </trkpt>
      <trkpt lat="44.82094" lon="1.25195">
        <ele>80.4337734</ele>
        <time>2022-08-16T11:41:02Z</time>
      </trkpt>
      <trkpt lat="44.82094" lon="1.25195">
        <ele>80.4337734</ele>
        <time>2022-08-16T11:41:06Z</time>
      </trkpt>
      <trkpt lat="44.82094" lon="1.25195">
        <ele>80.4337734</ele>
        <time>2022-08-16T11:41:10Z</time>
      </trkpt>
      <trkpt lat="44.82094" lon="1.25195">
        <ele>80.4337734</ele>
        <time>2022-08-16T11:41:14Z</time>
      </trkpt>
      <trkpt lat="44.82094" lon="1.25195">
        <ele>80.4337734</ele>
        <time>2022-08-16T11:41:18Z</time>
      </trkpt>
      <trkpt lat="44.82094" lon="1.25195">
        <ele>80.4337734</ele>
        <time>2022-08-16T11:41:22Z</time>
      </trkpt>
      <trkpt lat="44.82094" lon="1.25195">
        <ele>80.4337734</ele>
        <time>2022-08-16T11:41:26Z</time>
      </trkpt>
      <trkpt lat="44.82094" lon="1.25195">
        <ele>80.4337734</ele>
        <time>2022-08-16T11:41:30Z</time>
      </trkpt>
      <trkpt lat="44.82094" lon="1.25195">
        <ele>80.4337734</ele>
        <time>2022-08-16T11:41:34Z</time>
      </trkpt>
      <trkpt lat="44.82094" lon="1.25195">
        <ele>80.4337734</ele>
        <time>2022-08-16T11:41:38Z</time>
      </trkpt>
      <trkpt lat="44.82094" lon="1.25195">
        <ele>80.4337734</ele>
        <time>2022-08-16T11:41:42Z</time>
      </trkpt>
      <trkpt lat="44.82094" lon="1.25195">
        <ele>80.4337734</ele>
        <time>2022-08-16T11:41:46Z</time>
      </trkpt>
      <trkpt lat="44.82094" lon="1.25195">
        <ele>80.4337734</ele>
        <time>2022-08-16T11:41:50Z</time>
      </trkpt>
      <trkpt lat="44.82094" lon="1.25195">
        <ele>80.4337734</ele>
        <time>2022-08-16T11:41:54Z</time>
      </trkpt>
      <trkpt lat="44.82094" lon="1.25195">
        <ele>80.4337734</ele>
        <time>2022-08-16T11:41:58Z</time>
      </trkpt>
      <trkpt lat="44.82094" lon="1.25195">
        <ele>80.4337734</ele>
        <time>2022-08-16T11:42:02Z</time>
      </trkpt>
      <trkpt lat="44.82094" lon="1.25195">
        <ele>80.4337734</ele>
        <time>2022-08-16T11:42:06Z</time>
      </trkpt>
      <trkpt lat="44.82094" lon="1.25195">
        <ele>80.4337734</ele>
        <time>2022-08-16T11:42:10Z</time>
      </trkpt>
      <trkpt lat="44.82094" lon="1.25195">
        <ele>80.4337734</ele>
        <time>2022-08-16T11:42:14Z</time>
      </trkpt>
      <trkpt lat="44.82094" lon="1.25195">
        <ele>80.4337734</ele>
        <time>2022-08-16T11:42:18Z</time>
      </trkpt>
      <trkpt lat="44.82094" lon="1.25195">
        <ele>80.4337734</ele>
        <time>2022-08-16T11:42:22Z</time>
      </trkpt>
      <trkpt lat="44.82094" lon="1.25195">
        <ele>80.4337734</ele>
        <time>2022-08-16T11:42:26Z</time>
      </trkpt>
      <trkpt lat="44.82094" lon="1.25195">
        <ele>80.4337734</ele>
        <time>2022-08-16T11:42:30Z</time>
      </trkpt>
      <trkpt lat="44.82094" lon="1.25195">
        <ele>80.4337734</ele>
        <time>2022-08-16T11:42:34Z</time>
      </trkpt>
      <trkpt lat="44.82094" lon="1.25195">
        <ele>80.4337734</ele>
        <time>2022-08-16T11:42:38Z</time>
      </trkpt>
      <trkpt lat="44.82094" lon="1.25195">
        <ele>80.4337734</ele>
        <time>2022-08-16T11:42:42Z</time>
      </trkpt>
      <trkpt lat="44.82094" lon="1.25195">
        <ele>80.4337734</ele>
        <time>2022-08-16T11:42:46Z</time>
      </trkpt>
      <trkpt lat="44.82094" lon="1.25195">
        <ele>80.4337734</ele>
        <time>2022-08-16T11:42:50Z</time>
      </trkpt>
      <trkpt lat="44.82094" lon="1.25195">
        <ele>80.4337734</ele>
        <time>2022-08-16T11:42:54Z</time>
      </trkpt>
      <trkpt lat="44.82094" lon="1.25195">
        <ele>80.4337734</ele>
        <time>2022-08-16T11:42:58Z</time>
      </trkpt>
      <trkpt lat="44.82094" lon="1.25195">
        <ele>80.4337734</ele>
        <time>2022-08-16T11:43:02Z</time>
      </trkpt>
      <trkpt lat="44.82094" lon="1.25195">
        <ele>80.4337734</ele>
        <time>2022-08-16T11:43:06Z</time>
      </trkpt>
      <trkpt lat="44.82094" lon="1.25195">
        <ele>80.4337734</ele>
        <time>2022-08-16T11:43:10Z</time>
      </trkpt>
      <trkpt lat="44.82094" lon="1.25195">
        <ele>80.4337734</ele>
        <time>2022-08-16T11:43:14Z</time>
      </trkpt>
      <trkpt lat="44.82094" lon="1.25195">
        <ele>80.4337734</ele>
        <time>2022-08-16T11:43:18Z</time>
      </trkpt>
      <trkpt lat="44.82094" lon="1.25195">
        <ele>80.4337734</ele>
        <time>2022-08-16T11:43:22Z</time>
      </trkpt>
      <trkpt lat="44.82094" lon="1.25195">
        <ele>80.4337734</ele>
        <time>2022-08-16T11:43:26Z</time>
      </trkpt>
      <trkpt lat="44.82094" lon="1.25195">
        <ele>80.4337734</ele>
        <time>2022-08-16T11:43:30Z</time>
      </trkpt>
      <trkpt lat="44.82094" lon="1.25195">
        <ele>80.4337734</ele>
        <time>2022-08-16T11:43:34Z</time>
      </trkpt>
      <trkpt lat="44.82094" lon="1.25195">
        <ele>80.4337734</ele>
        <time>2022-08-16T11:43:38Z</time>
      </trkpt>
      <trkpt lat="44.82094" lon="1.25195">
        <ele>80.4337734</ele>
        <time>2022-08-16T11:43:42Z</time>
      </trkpt>
      <trkpt lat="44.82094" lon="1.25195">
        <ele>80.4337734</ele>
        <time>2022-08-16T11:43:46Z</time>
      </trkpt>
      <trkpt lat="44.82094" lon="1.25195">
        <ele>80.4337734</ele>
        <time>2022-08-16T11:43:50Z</time>
      </trkpt>
      <trkpt lat="44.82094" lon="1.25195">
        <ele>80.4337734</ele>
        <time>2022-08-16T11:43:54Z</time>
      </trkpt>
      <trkpt lat="44.82094" lon="1.25195">
        <ele>80.4337734</ele>
        <time>2022-08-16T11:43:58Z</time>
      </trkpt>
      <trkpt lat="44.82094" lon="1.25195">
        <ele>80.4337734</ele>
        <time>2022-08-16T11:44:02Z</time>
      </trkpt>
      <trkpt lat="44.82094" lon="1.25195">
        <ele>80.4337734</ele>
        <time>2022-08-16T11:44:06Z</time>
      </trkpt>
      <trkpt lat="44.82094" lon="1.25195">
        <ele>80.4337734</ele>
        <time>2022-08-16T11:44:10Z</time>
      </trkpt>
      <trkpt lat="44.82094" lon="1.25195">
        <ele>80.4337734</ele>
        <time>2022-08-16T11:44:14Z</time>
      </trkpt>
      <trkpt lat="44.82094" lon="1.25195">
        <ele>80.4337734</ele>
        <time>2022-08-16T11:44:18Z</time>
      </trkpt>
      <trkpt lat="44.82094" lon="1.25195">
        <ele>80.4337734</ele>
        <time>2022-08-16T11:44:22Z</time>
      </trkpt>
      <trkpt lat="44.82094" lon="1.25195">
        <ele>80.4337734</ele>
        <time>2022-08-16T11:44:26Z</time>
      </trkpt>
      <trkpt lat="44.82094" lon="1.25195">
        <ele>80.4337734</ele>
        <time>2022-08-16T11:44:30Z</time>
      </trkpt>
      <trkpt lat="44.82094" lon="1.25195">
        <ele>80.4337734</ele>
        <time>2022-08-16T11:44:34Z</time>
      </trkpt>
      <trkpt lat="44.82094" lon="1.25195">
        <ele>80.4337734</ele>
        <time>2022-08-16T11:44:38Z</time>
      </trkpt>
      <trkpt lat="44.82094" lon="1.25195">
        <ele>80.4337734</ele>
        <time>2022-08-16T11:44:42Z</time>
      </trkpt>
      <trkpt lat="44.82094" lon="1.25195">
        <ele>80.4337734</ele>
        <time>2022-08-16T11:44:46Z</time>
      </trkpt>
      <trkpt lat="44.82094" lon="1.25195">
        <ele>80.4337734</ele>
        <time>2022-08-16T11:44:50Z</time>
      </trkpt>
      <trkpt lat="44.82094" lon="1.25195">
        <ele>80.4337734</ele>
        <time>2022-08-16T11:44:54Z</time>
      </trkpt>
      <trkpt lat="44.82094" lon="1.25195">
        <ele>80.4337734</ele>
        <time>2022-08-16T11:44:58Z</time>
      </trkpt>
      <trkpt lat="44.82094" lon="1.25195">
        <ele>80.4337734</ele>
        <time>2022-08-16T11:45:02Z</time>
      </trkpt>
      <trkpt lat="44.82094" lon="1.25195">
        <ele>80.4337734</ele>
        <time>2022-08-16T11:45:06Z</time>
      </trkpt>
      <trkpt lat="44.82094" lon="1.25195">
        <ele>80.4337734</ele>
        <time>2022-08-16T11:45:10Z</time>
      </trkpt>
      <trkpt lat="44.82094" lon="1.25195">
        <ele>80.4337734</ele>
        <time>2022-08-16T11:45:14Z</time>
      </trkpt>
      <trkpt lat="44.82094" lon="1.25195">
        <ele>80.4337734</ele>
        <time>2022-08-16T11:45:18Z</time>
      </trkpt>
      <trkpt lat="44.82094" lon="1.25195">
        <ele>80.4337734</ele>
        <time>2022-08-16T11:45:22Z</time>
      </trkpt>
      <trkpt lat="44.82094" lon="1.25195">
        <ele>80.4337734</ele>
        <time>2022-08-16T11:45:26Z</time>
      </trkpt>
      <trkpt lat="44.82094" lon="1.25195">
        <ele>80.4337734</ele>
        <time>2022-08-16T11:45:30Z</time>
      </trkpt>
      <trkpt lat="44.82094" lon="1.25195">
        <ele>80.4337734</ele>
        <time>2022-08-16T11:45:34Z</time>
      </trkpt>
      <trkpt lat="44.82094" lon="1.25195">
        <ele>80.4337734</ele>
        <time>2022-08-16T11:45:38Z</time>
      </trkpt>
      <trkpt lat="44.82094" lon="1.25195">
        <ele>80.4337734</ele>
        <time>2022-08-16T11:45:42Z</time>
      </trkpt>
      <trkpt lat="44.82094" lon="1.25195">
        <ele>80.4337734</ele>
        <time>2022-08-16T11:45:46Z</time>
      </trkpt>
      <trkpt lat="44.82094" lon="1.25195">
        <ele>80.4337734</ele>
        <time>2022-08-16T11:45:50Z</time>
      </trkpt>
      <trkpt lat="44.82094" lon="1.25195">
        <ele>80.4337734</ele>
        <time>2022-08-16T11:45:54Z</time>
      </trkpt>
      <trkpt lat="44.82094" lon="1.25195">
        <ele>80.4337734</ele>
        <time>2022-08-16T11:45:58Z</time>
      </trkpt>
      <trkpt lat="44.82094" lon="1.25195">
        <ele>80.4337734</ele>
        <time>2022-08-16T11:46:02Z</time>
      </trkpt>
      <trkpt lat="44.82094" lon="1.25195">
        <ele>80.4337734</ele>
        <time>2022-08-16T11:46:06Z</time>
      </trkpt>
      <trkpt lat="44.82094" lon="1.25195">
        <ele>80.4337734</ele>
        <time>2022-08-16T11:46:10Z</time>
      </trkpt>
      <trkpt lat="44.82094" lon="1.25195">
        <ele>80.4337734</ele>
        <time>2022-08-16T11:46:14Z</time>
      </trkpt>
      <trkpt lat="44.82094" lon="1.25195">
        <ele>80.4337734</ele>
        <time>2022-08-16T11:46:18Z</time>
      </trkpt>
      <trkpt lat="44.82094" lon="1.25195">
        <ele>80.4337734</ele>
        <time>2022-08-16T11:46:22Z</time>
      </trkpt>
      <trkpt lat="44.82094" lon="1.25195">
        <ele>80.4337734</ele>
        <time>2022-08-16T11:46:26Z</time>
      </trkpt>
      <trkpt lat="44.82094" lon="1.25195">
        <ele>80.4337734</ele>
        <time>2022-08-16T11:46:30Z</time>
      </trkpt>
      <trkpt lat="44.82094" lon="1.25195">
        <ele>80.4337734</ele>
        <time>2022-08-16T11:46:34Z</time>
      </trkpt>
      <trkpt lat="44.82094" lon="1.25195">
        <ele>80.4337734</ele>
        <time>2022-08-16T11:46:38Z</time>
      </trkpt>
      <trkpt lat="44.82094" lon="1.25195">
        <ele>80.4337734</ele>
        <time>2022-08-16T11:46:42Z</time>
      </trkpt>
      <trkpt lat="44.82094" lon="1.25195">
        <ele>80.4337734</ele>
        <time>2022-08-16T11:46:46Z</time>
      </trkpt>
      <trkpt lat="44.82094" lon="1.25195">
        <ele>80.4337734</ele>
        <time>2022-08-16T11:46:50Z</time>
      </trkpt>
      <trkpt lat="44.82094" lon="1.25195">
        <ele>80.4337734</ele>
        <time>2022-08-16T11:46:54Z</time>
      </trkpt>
      <trkpt lat="44.82094" lon="1.25195">
        <ele>80.4337734</ele>
        <time>2022-08-16T11:46:58Z</time>
      </trkpt>
      <trkpt lat="44.82094" lon="1.25195">
        <ele>80.4337734</ele>
        <time>2022-08-16T11:47:02Z</time>
      </trkpt>
      <trkpt lat="44.82094" lon="1.25195">
        <ele>80.4337734</ele>
        <time>2022-08-16T11:47:06Z</time>
      </trkpt>
      <trkpt lat="44.82094" lon="1.25195">
        <ele>80.4337734</ele>
        <time>2022-08-16T11:47:10Z</time>
      </trkpt>
      <trkpt lat="44.82094" lon="1.25195">
        <ele>80.4337734</ele>
        <time>2022-08-16T11:47:14Z</time>
      </trkpt>
      <trkpt lat="44.82094" lon="1.25195">
        <ele>80.4337734</ele>
        <time>2022-08-16T11:47:18Z</time>
      </trkpt>
      <trkpt lat="44.82094" lon="1.25195">
        <ele>80.4337734</ele>
        <time>2022-08-16T11:47:22Z</time>
      </trkpt>
      <trkpt lat="44.82094" lon="1.25195">
        <ele>80.4337734</ele>
        <time>2022-08-16T11:47:26Z</time>
      </trkpt>
      <trkpt lat="44.82094" lon="1.25195">
        <ele>80.4337734</ele>
        <time>2022-08-16T11:47:30Z</time>
      </trkpt>
      <trkpt lat="44.82094" lon="1.25195">
        <ele>80.4337734</ele>
        <time>2022-08-16T11:47:34Z</time>
      </trkpt>
      <trkpt lat="44.82094" lon="1.25195">
        <ele>80.4337734</ele>
        <time>2022-08-16T11:47:38Z</time>
      </trkpt>
      <trkpt lat="44.82094" lon="1.25195">
        <ele>80.4337734</ele>
        <time>2022-08-16T11:47:42Z</time>
      </trkpt>
      <trkpt lat="44.82094" lon="1.25195">
        <ele>80.4337734</ele>
        <time>2022-08-16T11:47:46Z</time>
      </trkpt>
      <trkpt lat="44.82094" lon="1.25195">
        <ele>80.4337734</ele>
        <time>2022-08-16T11:47:50Z</time>
      </trkpt>
      <trkpt lat="44.82094" lon="1.25195">
        <ele>80.4337734</ele>
        <time>2022-08-16T11:47:54Z</time>
      </trkpt>
      <trkpt lat="44.82094" lon="1.25195">
        <ele>80.4337734</ele>
        <time>2022-08-16T11:47:58Z</time>
      </trkpt>
      <trkpt lat="44.82094" lon="1.25195">
        <ele>80.4337734</ele>
        <time>2022-08-16T11:48:02Z</time>
      </trkpt>
      <trkpt lat="44.82094" lon="1.25195">
        <ele>80.4337734</ele>
        <time>2022-08-16T11:48:06Z</time>
      </trkpt>
      <trkpt lat="44.82094" lon="1.25195">
        <ele>80.4337734</ele>
        <time>2022-08-16T11:48:10Z</time>
      </trkpt>
      <trkpt lat="44.82094" lon="1.25195">
        <ele>80.4337734</ele>
        <time>2022-08-16T11:48:14Z</time>
      </trkpt>
      <trkpt lat="44.82094" lon="1.25195">
        <ele>80.4337734</ele>
        <time>2022-08-16T11:48:18Z</time>
      </trkpt>
      <trkpt lat="44.82094" lon="1.25195">
        <ele>80.4337734</ele>
        <time>2022-08-16T11:48:22Z</time>
      </trkpt>
      <trkpt lat="44.82094" lon="1.25195">
        <ele>80.4337734</ele>
        <time>2022-08-16T11:48:26Z</time>
      </trkpt>
      <trkpt lat="44.82094" lon="1.25195">
        <ele>80.4337734</ele>
        <time>2022-08-16T11:48:30Z</time>
      </trkpt>
      <trkpt lat="44.82094" lon="1.25195">
        <ele>80.4337734</ele>
        <time>2022-08-16T11:48:34Z</time>
      </trkpt>
      <trkpt lat="44.82094" lon="1.25195">
        <ele>80.4337734</ele>
        <time>2022-08-16T11:48:38Z</time>
      </trkpt>
      <trkpt lat="44.82094" lon="1.25195">
        <ele>80.4337734</ele>
        <time>2022-08-16T11:48:42Z</time>
      </trkpt>
      <trkpt lat="44.82094" lon="1.25195">
        <ele>80.4337734</ele>
        <time>2022-08-16T11:48:46Z</time>
      </trkpt>
      <trkpt lat="44.82094" lon="1.25195">
        <ele>80.4337734</ele>
        <time>2022-08-16T11:48:50Z</time>
      </trkpt>
      <trkpt lat="44.82094" lon="1.25195">
        <ele>80.4337734</ele>
        <time>2022-08-16T11:48:54Z</time>
      </trkpt>
      <trkpt lat="44.82094" lon="1.25195">
        <ele>80.4337734</ele>
        <time>2022-08-16T11:48:58Z</time>
      </trkpt>
      <trkpt lat="44.82094" lon="1.25195">
        <ele>80.4337734</ele>
        <time>2022-08-16T11:49:02Z</time>
      </trkpt>
      <trkpt lat="44.82094" lon="1.25195">
        <ele>80.4337734</ele>
        <time>2022-08-16T11:49:06Z</time>
      </trkpt>
      <trkpt lat="44.82094" lon="1.25195">
        <ele>80.4337734</ele>
        <time>2022-08-16T11:49:10Z</time>
      </trkpt>
      <trkpt lat="44.82094" lon="1.25195">
        <ele>80.4337734</ele>
        <time>2022-08-16T11:49:14Z</time>
      </trkpt>
      <trkpt lat="44.82094" lon="1.25195">
        <ele>80.4337734</ele>
        <time>2022-08-16T11:49:18Z</time>
      </trkpt>
      <trkpt lat="44.82094" lon="1.25195">
        <ele>80.4337734</ele>
        <time>2022-08-16T11:49:22Z</time>
      </trkpt>
      <trkpt lat="44.82094" lon="1.25195">
        <ele>80.4337734</ele>
        <time>2022-08-16T11:49:26Z</time>
      </trkpt>
      <trkpt lat="44.82094" lon="1.25195">
        <ele>80.4337734</ele>
        <time>2022-08-16T11:49:30Z</time>
      </trkpt>
      <trkpt lat="44.82094" lon="1.25195">
        <ele>80.4337734</ele>
        <time>2022-08-16T11:49:34Z</time>
      </trkpt>
      <trkpt lat="44.82094" lon="1.25195">
        <ele>80.4337734</ele>
        <time>2022-08-16T11:49:38Z</time>
      </trkpt>
      <trkpt lat="44.82094" lon="1.25195">
        <ele>80.4337734</ele>
        <time>2022-08-16T11:49:42Z</time>
      </trkpt>
      <trkpt lat="44.82094" lon="1.25195">
        <ele>80.4337734</ele>
        <time>2022-08-16T11:49:46Z</time>
      </trkpt>
      <trkpt lat="44.82094" lon="1.25195">
        <ele>80.4337734</ele>
        <time>2022-08-16T11:49:50Z</time>
      </trkpt>
      <trkpt lat="44.82094" lon="1.25195">
        <ele>80.4337734</ele>
        <time>2022-08-16T11:49:54Z</time>
      </trkpt>
      <trkpt lat="44.82094" lon="1.25195">
        <ele>80.4337734</ele>
        <time>2022-08-16T11:49:58Z</time>
      </trkpt>
      <trkpt lat="44.82094" lon="1.25195">
        <ele>80.4337734</ele>
        <time>2022-08-16T11:50:02Z</time>
      </trkpt>
      <trkpt lat="44.82094" lon="1.25195">
        <ele>80.4337734</ele>
        <time>2022-08-16T11:50:06Z</time>
      </trkpt>
      <trkpt lat="44.82094" lon="1.25195">
        <ele>80.4337734</ele>
        <time>2022-08-16T11:50:10Z</time>
      </trkpt>
      <trkpt lat="44.82094" lon="1.25195">
        <ele>80.4337734</ele>
        <time>2022-08-16T11:50:14Z</time>
      </trkpt>
      <trkpt lat="44.82094" lon="1.25195">
        <ele>80.4337734</ele>
        <time>2022-08-16T11:50:18Z</time>
      </trkpt>
      <trkpt lat="44.82094" lon="1.25195">
        <ele>80.4337734</ele>
        <time>2022-08-16T11:50:22Z</time>
      </trkpt>
      <trkpt lat="44.82094" lon="1.25195">
        <ele>80.4337734</ele>
        <time>2022-08-16T11:50:26Z</time>
      </trkpt>
      <trkpt lat="44.82094" lon="1.25195">
        <ele>80.4337734</ele>
        <time>2022-08-16T11:50:30Z</time>
      </trkpt>
      <trkpt lat="44.82094" lon="1.25195">
        <ele>80.4337734</ele>
        <time>2022-08-16T11:50:34Z</time>
      </trkpt>
      <trkpt lat="44.82094" lon="1.25195">
        <ele>80.4337734</ele>
        <time>2022-08-16T11:50:38Z</time>
      </trkpt>
      <trkpt lat="44.82094" lon="1.25195">
        <ele>80.4337734</ele>
        <time>2022-08-16T11:50:42Z</time>
      </trkpt>
      <trkpt lat="44.82094" lon="1.25195">
        <ele>80.4337734</ele>
        <time>2022-08-16T11:50:46Z</time>
      </trkpt>
      <trkpt lat="44.82094" lon="1.25195">
        <ele>80.4337734</ele>
        <time>2022-08-16T11:50:50Z</time>
      </trkpt>
      <trkpt lat="44.82094" lon="1.25195">
        <ele>80.4337734</ele>
        <time>2022-08-16T11:50:54Z</time>
      </trkpt>
      <trkpt lat="44.82094" lon="1.25195">
        <ele>80.4337734</ele>
        <time>2022-08-16T11:50:58Z</time>
      </trkpt>
      <trkpt lat="44.82094" lon="1.25195">
        <ele>80.4337734</ele>
        <time>2022-08-16T11:51:02Z</time>
      </trkpt>
      <trkpt lat="44.82094" lon="1.25195">
        <ele>80.4337734</ele>
        <time>2022-08-16T11:51:06Z</time>
      </trkpt>
      <trkpt lat="44.82094" lon="1.25195">
        <ele>80.4337734</ele>
        <time>2022-08-16T11:51:10Z</time>
      </trkpt>
      <trkpt lat="44.82094" lon="1.25195">
        <ele>80.4337734</ele>
        <time>2022-08-16T11:51:14Z</time>
      </trkpt>
      <trkpt lat="44.82094" lon="1.25195">
        <ele>80.4337734</ele>
        <time>2022-08-16T11:51:18Z</time>
      </trkpt>
      <trkpt lat="44.82094" lon="1.25195">
        <ele>80.4337734</ele>
        <time>2022-08-16T11:51:22Z</time>
      </trkpt>
      <trkpt lat="44.82094" lon="1.25195">
        <ele>80.4337734</ele>
        <time>2022-08-16T11:51:26Z</time>
      </trkpt>
      <trkpt lat="44.82094" lon="1.25195">
        <ele>80.4337734</ele>
        <time>2022-08-16T11:51:30Z</time>
      </trkpt>
      <trkpt lat="44.82094" lon="1.25195">
        <ele>80.4337734</ele>
        <time>2022-08-16T11:51:34Z</time>
      </trkpt>
      <trkpt lat="44.82094" lon="1.25195">
        <ele>80.4337734</ele>
        <time>2022-08-16T11:51:38Z</time>
      </trkpt>
      <trkpt lat="44.82094" lon="1.25195">
        <ele>80.4337734</ele>
        <time>2022-08-16T11:51:42Z</time>
      </trkpt>
      <trkpt lat="44.82094" lon="1.25195">
        <ele>80.4337734</ele>
        <time>2022-08-16T11:51:46Z</time>
      </trkpt>
      <trkpt lat="44.82094" lon="1.25195">
        <ele>80.4337734</ele>
        <time>2022-08-16T11:51:50Z</time>
      </trkpt>
      <trkpt lat="44.82094" lon="1.25195">
        <ele>80.4337734</ele>
        <time>2022-08-16T11:51:54Z</time>
      </trkpt>
      <trkpt lat="44.82094" lon="1.25195">
        <ele>80.4337734</ele>
        <time>2022-08-16T11:51:58Z</time>
      </trkpt>
      <trkpt lat="44.82094" lon="1.25195">
        <ele>80.4337734</ele>
        <time>2022-08-16T11:52:02Z</time>
      </trkpt>
      <trkpt lat="44.82094" lon="1.25195">
        <ele>80.4337734</ele>
        <time>2022-08-16T11:52:06Z</time>
      </trkpt>
      <trkpt lat="44.82094" lon="1.25195">
        <ele>80.4337734</ele>
        <time>2022-08-16T11:52:10Z</time>
      </trkpt>
      <trkpt lat="44.82094" lon="1.25195">
        <ele>80.4337734</ele>
        <time>2022-08-16T11:52:14Z</time>
      </trkpt>
      <trkpt lat="44.82094" lon="1.25195">
        <ele>80.4337734</ele>
        <time>2022-08-16T11:52:18Z</time>
      </trkpt>
      <trkpt lat="44.82094" lon="1.25195">
        <ele>80.4337734</ele>
        <time>2022-08-16T11:52:22Z</time>
      </trkpt>
      <trkpt lat="44.82094" lon="1.25195">
        <ele>80.4337734</ele>
        <time>2022-08-16T11:52:26Z</time>
      </trkpt>
      <trkpt lat="44.82094" lon="1.25195">
        <ele>80.4337734</ele>
        <time>2022-08-16T11:52:30Z</time>
      </trkpt>
      <trkpt lat="44.82094" lon="1.25195">
        <ele>80.4337734</ele>
        <time>2022-08-16T11:52:34Z</time>
      </trkpt>
      <trkpt lat="44.82094" lon="1.25195">
        <ele>80.4337734</ele>
        <time>2022-08-16T11:52:38Z</time>
      </trkpt>
      <trkpt lat="44.82094" lon="1.25195">
        <ele>80.4337734</ele>
        <time>2022-08-16T11:52:42Z</time>
      </trkpt>
      <trkpt lat="44.82094" lon="1.25195">
        <ele>80.4337734</ele>
        <time>2022-08-16T11:52:46Z</time>
      </trkpt>
      <trkpt lat="44.82094" lon="1.25195">
        <ele>80.4337734</ele>
        <time>2022-08-16T11:52:50Z</time>
      </trkpt>
      <trkpt lat="44.82094" lon="1.25195">
        <ele>80.4337734</ele>
        <time>2022-08-16T11:52:54Z</time>
      </trkpt>
      <trkpt lat="44.82094" lon="1.25195">
        <ele>80.4337734</ele>
        <time>2022-08-16T11:52:58Z</time>
      </trkpt>
      <trkpt lat="44.82094" lon="1.25195">
        <ele>80.4337734</ele>
        <time>2022-08-16T11:53:02Z</time>
      </trkpt>
      <trkpt lat="44.82094" lon="1.25195">
        <ele>80.4337734</ele>
        <time>2022-08-16T11:53:06Z</time>
      </trkpt>
      <trkpt lat="44.82094" lon="1.25195">
        <ele>80.4337734</ele>
        <time>2022-08-16T11:53:10Z</time>
      </trkpt>
      <trkpt lat="44.82094" lon="1.25195">
        <ele>80.4337734</ele>
        <time>2022-08-16T11:53:14Z</time>
      </trkpt>
      <trkpt lat="44.82094" lon="1.25195">
        <ele>80.4337734</ele>
        <time>2022-08-16T11:53:18Z</time>
      </trkpt>
      <trkpt lat="44.82094" lon="1.25195">
        <ele>80.4337734</ele>
        <time>2022-08-16T11:53:22Z</time>
      </trkpt>
      <trkpt lat="44.82094" lon="1.25195">
        <ele>80.4337734</ele>
        <time>2022-08-16T11:53:26Z</time>
      </trkpt>
      <trkpt lat="44.82094" lon="1.25195">
        <ele>80.4337734</ele>
        <time>2022-08-16T11:53:30Z</time>
      </trkpt>
      <trkpt lat="44.82101" lon="1.25194">
        <ele>82.7117741</ele>
        <time>2022-08-16T11:53:34Z</time>
      </trkpt>
      <trkpt lat="44.82101" lon="1.25195">
        <ele>83.1691067</ele>
        <time>2022-08-16T11:53:36Z</time>
      </trkpt>
      <trkpt lat="44.821" lon="1.25194">
        <ele>84.1938569</ele>
        <time>2022-08-16T11:53:38Z</time>
      </trkpt>
      <trkpt lat="44.821" lon="1.25194">
        <ele>83.8750802</ele>
        <time>2022-08-16T11:53:40Z</time>
      </trkpt>
      <trkpt lat="44.821" lon="1.25194">
        <ele>83.8750802</ele>
        <time>2022-08-16T11:53:44Z</time>
      </trkpt>
      <trkpt lat="44.821" lon="1.25194">
        <ele>83.8750802</ele>
        <time>2022-08-16T11:53:48Z</time>
      </trkpt>
      <trkpt lat="44.821" lon="1.25194">
        <ele>83.8750802</ele>
        <time>2022-08-16T11:53:52Z</time>
      </trkpt>
      <trkpt lat="44.821" lon="1.25194">
        <ele>83.8750802</ele>
        <time>2022-08-16T11:53:56Z</time>
      </trkpt>
      <trkpt lat="44.82102" lon="1.25189">
        <ele>88.4846207</ele>
        <time>2022-08-16T11:54:00Z</time>
      </trkpt>
      <trkpt lat="44.82102" lon="1.25189">
        <ele>88.3240316</ele>
        <time>2022-08-16T11:54:02Z</time>
      </trkpt>
      <trkpt lat="44.82102" lon="1.25189">
        <ele>89.2124414</ele>
        <time>2022-08-16T11:54:04Z</time>
      </trkpt>
      <trkpt lat="44.82101" lon="1.25189">
        <ele>89.3216095</ele>
        <time>2022-08-16T11:54:06Z</time>
      </trkpt>
      <trkpt lat="44.82101" lon="1.25189">
        <ele>89.3216095</ele>
        <time>2022-08-16T11:54:10Z</time>
      </trkpt>
      <trkpt lat="44.82125" lon="1.25184">
        <ele>113.6813354</ele>
        <time>2022-08-16T12:17:59Z</time>
      </trkpt>
      <trkpt lat="44.8212" lon="1.25188">
        <ele>106.2555541</ele>
        <time>2022-08-16T12:18:00Z</time>
      </trkpt>
      <trkpt lat="44.82102" lon="1.25193">
        <ele>103.1757202</ele>
        <time>2022-08-16T12:18:03Z</time>
      </trkpt>
      <trkpt lat="44.82099" lon="1.25194">
        <ele>92.3782958</ele>
        <time>2022-08-16T12:18:05Z</time>
      </trkpt>
      <trkpt lat="44.82096" lon="1.25196">
        <ele>89.4049072</ele>
        <time>2022-08-16T12:18:07Z</time>
      </trkpt>
      <trkpt lat="44.82094" lon="1.25196">
        <ele>85.6178588</ele>
        <time>2022-08-16T12:18:09Z</time>
      </trkpt>
      <trkpt lat="44.82094" lon="1.25197">
        <ele>85.9876098</ele>
        <time>2022-08-16T12:18:11Z</time>
      </trkpt>
      <trkpt lat="44.82094" lon="1.25196">
        <ele>84.7312393</ele>
        <time>2022-08-16T12:18:13Z</time>
      </trkpt>
      <trkpt lat="44.82093" lon="1.25196">
        <ele>84.9366798</ele>
        <time>2022-08-16T12:18:15Z</time>
      </trkpt>
      <trkpt lat="44.82092" lon="1.25196">
        <ele>84.1173401</ele>
        <time>2022-08-16T12:18:17Z</time>
      </trkpt>
      <trkpt lat="44.82092" lon="1.25196">
        <ele>83.7044334</ele>
        <time>2022-08-16T12:18:19Z</time>
      </trkpt>
      <trkpt lat="44.82092" lon="1.25196">
        <ele>84.1090355</ele>
        <time>2022-08-16T12:18:21Z</time>
      </trkpt>
      <trkpt lat="44.82092" lon="1.25196">
        <ele>84.3130798</ele>
        <time>2022-08-16T12:18:25Z</time>
      </trkpt>
      <trkpt lat="44.82092" lon="1.25196">
        <ele>83.9870872</ele>
        <time>2022-08-16T12:18:27Z</time>
      </trkpt>
      <trkpt lat="44.82092" lon="1.25196">
        <ele>84.0546532</ele>
        <time>2022-08-16T12:18:29Z</time>
      </trkpt>
      <trkpt lat="44.82092" lon="1.25196">
        <ele>84.0546532</ele>
        <time>2022-08-16T12:18:33Z</time>
      </trkpt>
      <trkpt lat="44.82096" lon="1.252">
        <ele>85.5994183</ele>
        <time>2022-08-16T12:18:35Z</time>
      </trkpt>
      <trkpt lat="44.82098" lon="1.252">
        <ele>86.9076285</ele>
        <time>2022-08-16T12:18:37Z</time>
      </trkpt>
      <trkpt lat="44.82099" lon="1.25199">
        <ele>88.1141563</ele>
        <time>2022-08-16T12:18:39Z</time>
      </trkpt>
      <trkpt lat="44.82099" lon="1.25199">
        <ele>88.1210766</ele>
        <time>2022-08-16T12:18:41Z</time>
      </trkpt>
      <trkpt lat="44.82101" lon="1.25198">
        <ele>90.4097938</ele>
        <time>2022-08-16T12:18:43Z</time>
      </trkpt>
      <trkpt lat="44.821" lon="1.25198">
        <ele>93.5164702</ele>
        <time>2022-08-16T12:18:45Z</time>
      </trkpt>
      <trkpt lat="44.82101" lon="1.25197">
        <ele>97.3017169</ele>
        <time>2022-08-16T12:18:47Z</time>
      </trkpt>
      <trkpt lat="44.82099" lon="1.25197">
        <ele>99.0029346</ele>
        <time>2022-08-16T12:18:49Z</time>
      </trkpt>
      <trkpt lat="44.82099" lon="1.25195">
        <ele>102.337584</ele>
        <time>2022-08-16T12:18:51Z</time>
      </trkpt>
      <trkpt lat="44.82098" lon="1.25196">
        <ele>102.799274</ele>
        <time>2022-08-16T12:18:53Z</time>
      </trkpt>
      <trkpt lat="44.82098" lon="1.25193">
        <ele>100.6697947</ele>
        <time>2022-08-16T12:18:55Z</time>
      </trkpt>
      <trkpt lat="44.82099" lon="1.25188">
        <ele>99.3677366</ele>
        <time>2022-08-16T12:18:57Z</time>
      </trkpt>
      <trkpt lat="44.821" lon="1.25186">
        <ele>98.9962329</ele>
        <time>2022-08-16T12:18:59Z</time>
      </trkpt>
      <trkpt lat="44.82098" lon="1.25181">
        <ele>97.9379648</ele>
        <time>2022-08-16T12:19:01Z</time>
      </trkpt>
      <trkpt lat="44.82097" lon="1.25173">
        <ele>97.4105478</ele>
        <time>2022-08-16T12:19:03Z</time>
      </trkpt>
      <trkpt lat="44.82097" lon="1.25168">
        <ele>96.4037275</ele>
        <time>2022-08-16T12:19:05Z</time>
      </trkpt>
      <trkpt lat="44.82096" lon="1.25162">
        <ele>93.6570776</ele>
        <time>2022-08-16T12:19:07Z</time>
      </trkpt>
      <trkpt lat="44.82094" lon="1.25153">
        <ele>92.517126</ele>
        <time>2022-08-16T12:19:09Z</time>
      </trkpt>
      <trkpt lat="44.82094" lon="1.25145">
        <ele>92.4954232</ele>
        <time>2022-08-16T12:19:11Z</time>
      </trkpt>
      <trkpt lat="44.82093" lon="1.25136">
        <ele>91.2350216</ele>
        <time>2022-08-16T12:19:13Z</time>
      </trkpt>
      <trkpt lat="44.82092" lon="1.2513">
        <ele>91.8787164</ele>
        <time>2022-08-16T12:19:15Z</time>
      </trkpt>
      <trkpt lat="44.82092" lon="1.25122">
        <ele>90.6441008</ele>
        <time>2022-08-16T12:19:17Z</time>
      </trkpt>
      <trkpt lat="44.82091" lon="1.25115">
        <ele>89.5049499</ele>
        <time>2022-08-16T12:19:19Z</time>
      </trkpt>
      <trkpt lat="44.8209" lon="1.2511">
        <ele>87.7595729</ele>
        <time>2022-08-16T12:19:21Z</time>
      </trkpt>
      <trkpt lat="44.82089" lon="1.25106">
        <ele>86.5393457</ele>
        <time>2022-08-16T12:19:23Z</time>
      </trkpt>
      <trkpt lat="44.8209" lon="1.25102">
        <ele>86.5570074</ele>
        <time>2022-08-16T12:19:25Z</time>
      </trkpt>
      <trkpt lat="44.82091" lon="1.25103">
        <ele>87.060295</ele>
        <time>2022-08-16T12:19:27Z</time>
      </trkpt>
      <trkpt lat="44.82091" lon="1.25104">
        <ele>87.7216253</ele>
        <time>2022-08-16T12:19:29Z</time>
      </trkpt>
      <trkpt lat="44.82091" lon="1.25104">
        <ele>88.0326784</ele>
        <time>2022-08-16T12:19:31Z</time>
      </trkpt>
      <trkpt lat="44.82092" lon="1.25101">
        <ele>87.4974679</ele>
        <time>2022-08-16T12:19:33Z</time>
      </trkpt>
      <trkpt lat="44.82092" lon="1.251">
        <ele>88.1315891</ele>
        <time>2022-08-16T12:19:35Z</time>
      </trkpt>
      <trkpt lat="44.82092" lon="1.251">
        <ele>87.2093478</ele>
        <time>2022-08-16T12:19:37Z</time>
      </trkpt>
      <trkpt lat="44.82092" lon="1.25099">
        <ele>88.077278</ele>
        <time>2022-08-16T12:19:39Z</time>
      </trkpt>
      <trkpt lat="44.82091" lon="1.25101">
        <ele>89.0935685</ele>
        <time>2022-08-16T12:19:41Z</time>
      </trkpt>
      <trkpt lat="44.82089" lon="1.25102">
        <ele>89.9487569</ele>
        <time>2022-08-16T12:19:43Z</time>
      </trkpt>
      <trkpt lat="44.82089" lon="1.25103">
        <ele>90.3214804</ele>
        <time>2022-08-16T12:19:45Z</time>
      </trkpt>
      <trkpt lat="44.8209" lon="1.25103">
        <ele>89.3594464</ele>
        <time>2022-08-16T12:19:47Z</time>
      </trkpt>
      <trkpt lat="44.82092" lon="1.25103">
        <ele>89.4553346</ele>
        <time>2022-08-16T12:19:49Z</time>
      </trkpt>
      <trkpt lat="44.82092" lon="1.25104">
        <ele>88.8556592</ele>
        <time>2022-08-16T12:19:51Z</time>
      </trkpt>
      <trkpt lat="44.82092" lon="1.25105">
        <ele>87.6515569</ele>
        <time>2022-08-16T12:19:53Z</time>
      </trkpt>
      <trkpt lat="44.82092" lon="1.25104">
        <ele>87.5677489</ele>
        <time>2022-08-16T12:19:55Z</time>
      </trkpt>
      <trkpt lat="44.82091" lon="1.25104">
        <ele>86.5238919</ele>
        <time>2022-08-16T12:19:59Z</time>
      </trkpt>
      <trkpt lat="44.82091" lon="1.25102">
        <ele>86.8839113</ele>
        <time>2022-08-16T12:20:01Z</time>
      </trkpt>
      <trkpt lat="44.82091" lon="1.25102">
        <ele>86.7047257</ele>
        <time>2022-08-16T12:20:03Z</time>
      </trkpt>
      <trkpt lat="44.82091" lon="1.25103">
        <ele>86.9895951</ele>
        <time>2022-08-16T12:20:05Z</time>
      </trkpt>
      <trkpt lat="44.82091" lon="1.25102">
        <ele>86.7321232</ele>
        <time>2022-08-16T12:20:07Z</time>
      </trkpt>
      <trkpt lat="44.82091" lon="1.25102">
        <ele>86.7321232</ele>
        <time>2022-08-16T12:20:11Z</time>
      </trkpt>
      <trkpt lat="44.82094" lon="1.25101">
        <ele>92.0655874</ele>
        <time>2022-08-16T12:20:13Z</time>
      </trkpt>
      <trkpt lat="44.82097" lon="1.251">
        <ele>96.1702466</ele>
        <time>2022-08-16T12:20:15Z</time>
      </trkpt>
      <trkpt lat="44.82099" lon="1.251">
        <ele>99.2980383</ele>
        <time>2022-08-16T12:20:17Z</time>
      </trkpt>
      <trkpt lat="44.82101" lon="1.25098">
        <ele>101.8821748</ele>
        <time>2022-08-16T12:20:19Z</time>
      </trkpt>
      <trkpt lat="44.82102" lon="1.25097">
        <ele>103.6376215</ele>
        <time>2022-08-16T12:20:21Z</time>
      </trkpt>
      <trkpt lat="44.82103" lon="1.25097">
        <ele>103.8759424</ele>
        <time>2022-08-16T12:20:23Z</time>
      </trkpt>
      <trkpt lat="44.82104" lon="1.25096">
        <ele>104.3630805</ele>
        <time>2022-08-16T12:20:25Z</time>
      </trkpt>
      <trkpt lat="44.82104" lon="1.25096">
        <ele>104.4223193</ele>
        <time>2022-08-16T12:20:27Z</time>
      </trkpt>
      <trkpt lat="44.82102" lon="1.25094">
        <ele>101.4053412</ele>
        <time>2022-08-16T12:20:31Z</time>
      </trkpt>
      <trkpt lat="44.82101" lon="1.25095">
        <ele>100.421531</ele>
        <time>2022-08-16T12:20:33Z</time>
      </trkpt>
      <trkpt lat="44.82102" lon="1.25094">
        <ele>100.4733319</ele>
        <time>2022-08-16T12:20:35Z</time>
      </trkpt>
      <trkpt lat="44.82102" lon="1.25095">
        <ele>101.0526646</ele>
        <time>2022-08-16T12:20:37Z</time>
      </trkpt>
      <trkpt lat="44.82102" lon="1.25095">
        <ele>101.0526646</ele>
        <time>2022-08-16T12:20:41Z</time>
      </trkpt>
      <trkpt lat="44.82102" lon="1.25095">
        <ele>101.0526646</ele>
        <time>2022-08-16T12:20:45Z</time>
      </trkpt>
      <trkpt lat="44.82099" lon="1.25098">
        <ele>97.5031081</ele>
        <time>2022-08-16T12:20:47Z</time>
      </trkpt>
      <trkpt lat="44.82096" lon="1.251">
        <ele>95.0044067</ele>
        <time>2022-08-16T12:20:49Z</time>
      </trkpt>
      <trkpt lat="44.82094" lon="1.251">
        <ele>93.4267277</ele>
        <time>2022-08-16T12:20:51Z</time>
      </trkpt>
      <trkpt lat="44.82091" lon="1.25101">
        <ele>92.570459</ele>
        <time>2022-08-16T12:20:53Z</time>
      </trkpt>
      <trkpt lat="44.82091" lon="1.251">
        <ele>93.3596444</ele>
        <time>2022-08-16T12:20:55Z</time>
      </trkpt>
      <trkpt lat="44.82091" lon="1.251">
        <ele>93.2542469</ele>
        <time>2022-08-16T12:20:57Z</time>
      </trkpt>
      <trkpt lat="44.82091" lon="1.251">
        <ele>93.1532503</ele>
        <time>2022-08-16T12:20:59Z</time>
      </trkpt>
      <trkpt lat="44.82092" lon="1.25097">
        <ele>93.3457863</ele>
        <time>2022-08-16T12:21:01Z</time>
      </trkpt>
      <trkpt lat="44.82094" lon="1.25096">
        <ele>92.4378305</ele>
        <time>2022-08-16T12:21:03Z</time>
      </trkpt>
      <trkpt lat="44.82095" lon="1.25098">
        <ele>92.7263664</ele>
        <time>2022-08-16T12:21:05Z</time>
      </trkpt>
      <trkpt lat="44.82095" lon="1.25099">
        <ele>93.22912</ele>
        <time>2022-08-16T12:21:07Z</time>
      </trkpt>
      <trkpt lat="44.82093" lon="1.25098">
        <ele>92.7830596</ele>
        <time>2022-08-16T12:21:09Z</time>
      </trkpt>
      <trkpt lat="44.8209" lon="1.25096">
        <ele>91.5745919</ele>
        <time>2022-08-16T12:21:11Z</time>
      </trkpt>
      <trkpt lat="44.8209" lon="1.25094">
        <ele>90.8566061</ele>
        <time>2022-08-16T12:21:13Z</time>
      </trkpt>
      <trkpt lat="44.82088" lon="1.2509">
        <ele>89.3219862</ele>
        <time>2022-08-16T12:21:15Z</time>
      </trkpt>
      <trkpt lat="44.8209" lon="1.2509">
        <ele>85.0496115</ele>
        <time>2022-08-16T12:21:17Z</time>
      </trkpt>
      <trkpt lat="44.82092" lon="1.25087">
        <ele>82.7049069</ele>
        <time>2022-08-16T12:21:19Z</time>
      </trkpt>
      <trkpt lat="44.82095" lon="1.25093">
        <ele>82.87358</ele>
        <time>2022-08-16T12:21:21Z</time>
      </trkpt>
      <trkpt lat="44.82096" lon="1.251">
        <ele>81.5228337</ele>
        <time>2022-08-16T12:21:23Z</time>
      </trkpt>
      <trkpt lat="44.82099" lon="1.25108">
        <ele>82.1354367</ele>
        <time>2022-08-16T12:21:25Z</time>
      </trkpt>
      <trkpt lat="44.82103" lon="1.25118">
        <ele>82.3719434</ele>
        <time>2022-08-16T12:21:27Z</time>
      </trkpt>
      <trkpt lat="44.82106" lon="1.25128">
        <ele>83.9584789</ele>
        <time>2022-08-16T12:21:29Z</time>
      </trkpt>
      <trkpt lat="44.82109" lon="1.25138">
        <ele>84.0724245</ele>
        <time>2022-08-16T12:21:31Z</time>
      </trkpt>
      <trkpt lat="44.82112" lon="1.25146">
        <ele>84.5733712</ele>
        <time>2022-08-16T12:21:33Z</time>
      </trkpt>
      <trkpt lat="44.82115" lon="1.25155">
        <ele>83.7199965</ele>
        <time>2022-08-16T12:21:35Z</time>
      </trkpt>
      <trkpt lat="44.82115" lon="1.25162">
        <ele>85.4084861</ele>
        <time>2022-08-16T12:21:37Z</time>
      </trkpt>
      <trkpt lat="44.82117" lon="1.25171">
        <ele>85.7958837</ele>
        <time>2022-08-16T12:21:39Z</time>
      </trkpt>
      <trkpt lat="44.82118" lon="1.25179">
        <ele>84.2950359</ele>
        <time>2022-08-16T12:21:41Z</time>
      </trkpt>
      <trkpt lat="44.82118" lon="1.25186">
        <ele>84.5682506</ele>
        <time>2022-08-16T12:21:43Z</time>
      </trkpt>
      <trkpt lat="44.8212" lon="1.25196">
        <ele>84.1783803</ele>
        <time>2022-08-16T12:21:45Z</time>
      </trkpt>
      <trkpt lat="44.8212" lon="1.25206">
        <ele>83.311656</ele>
        <time>2022-08-16T12:21:47Z</time>
      </trkpt>
      <trkpt lat="44.8212" lon="1.25215">
        <ele>82.6452603</ele>
        <time>2022-08-16T12:21:49Z</time>
      </trkpt>
      <trkpt lat="44.8212" lon="1.25226">
        <ele>83.0421688</ele>
        <time>2022-08-16T12:21:51Z</time>
      </trkpt>
      <trkpt lat="44.82123" lon="1.25235">
        <ele>83.7362072</ele>
        <time>2022-08-16T12:21:53Z</time>
      </trkpt>
      <trkpt lat="44.82123" lon="1.25247">
        <ele>83.5357618</ele>
        <time>2022-08-16T12:21:55Z</time>
      </trkpt>
      <trkpt lat="44.82122" lon="1.25258">
        <ele>83.7452041</ele>
        <time>2022-08-16T12:21:57Z</time>
      </trkpt>
      <trkpt lat="44.82123" lon="1.25268">
        <ele>84.1151439</ele>
        <time>2022-08-16T12:21:59Z</time>
      </trkpt>
      <trkpt lat="44.82123" lon="1.25279">
        <ele>84.3067284</ele>
        <time>2022-08-16T12:22:01Z</time>
      </trkpt>
      <trkpt lat="44.82123" lon="1.25289">
        <ele>83.9757673</ele>
        <time>2022-08-16T12:22:03Z</time>
      </trkpt>
      <trkpt lat="44.82123" lon="1.25299">
        <ele>85.0411726</ele>
        <time>2022-08-16T12:22:05Z</time>
      </trkpt>
      <trkpt lat="44.82121" lon="1.2531">
        <ele>84.9640468</ele>
        <time>2022-08-16T12:22:07Z</time>
      </trkpt>
      <trkpt lat="44.8212" lon="1.25321">
        <ele>84.2691815</ele>
        <time>2022-08-16T12:22:09Z</time>
      </trkpt>
      <trkpt lat="44.82118" lon="1.2533">
        <ele>84.8491726</ele>
        <time>2022-08-16T12:22:11Z</time>
      </trkpt>
      <trkpt lat="44.82115" lon="1.25338">
        <ele>84.6743036</ele>
        <time>2022-08-16T12:22:13Z</time>
      </trkpt>
      <trkpt lat="44.82112" lon="1.25347">
        <ele>84.4518862</ele>
        <time>2022-08-16T12:22:15Z</time>
      </trkpt>
      <trkpt lat="44.82109" lon="1.25353">
        <ele>83.9808447</ele>
        <time>2022-08-16T12:22:17Z</time>
      </trkpt>
      <trkpt lat="44.82107" lon="1.25359">
        <ele>84.1342822</ele>
        <time>2022-08-16T12:22:19Z</time>
      </trkpt>
      <trkpt lat="44.82104" lon="1.25364">
        <ele>84.3503898</ele>
        <time>2022-08-16T12:22:21Z</time>
      </trkpt>
      <trkpt lat="44.82102" lon="1.25369">
        <ele>84.9084201</ele>
        <time>2022-08-16T12:22:23Z</time>
      </trkpt>
      <trkpt lat="44.821" lon="1.25373">
        <ele>84.064849</ele>
        <time>2022-08-16T12:22:25Z</time>
      </trkpt>
      <trkpt lat="44.82096" lon="1.25376">
        <ele>83.0395151</ele>
        <time>2022-08-16T12:22:27Z</time>
      </trkpt>
      <trkpt lat="44.82093" lon="1.2538">
        <ele>83.2914469</ele>
        <time>2022-08-16T12:22:29Z</time>
      </trkpt>
      <trkpt lat="44.82091" lon="1.25384">
        <ele>82.0412935</ele>
        <time>2022-08-16T12:22:31Z</time>
      </trkpt>
      <trkpt lat="44.82088" lon="1.25387">
        <ele>82.9060512</ele>
        <time>2022-08-16T12:22:33Z</time>
      </trkpt>
      <trkpt lat="44.82085" lon="1.2539">
        <ele>83.3951811</ele>
        <time>2022-08-16T12:22:35Z</time>
      </trkpt>
      <trkpt lat="44.82082" lon="1.25393">
        <ele>83.0453571</ele>
        <time>2022-08-16T12:22:37Z</time>
      </trkpt>
      <trkpt lat="44.82078" lon="1.25397">
        <ele>83.8617752</ele>
        <time>2022-08-16T12:22:39Z</time>
      </trkpt>
      <trkpt lat="44.82075" lon="1.25399">
        <ele>84.0501863</ele>
        <time>2022-08-16T12:22:41Z</time>
      </trkpt>
      <trkpt lat="44.82072" lon="1.25403">
        <ele>84.1018814</ele>
        <time>2022-08-16T12:22:43Z</time>
      </trkpt>
      <trkpt lat="44.82069" lon="1.25406">
        <ele>84.3862584</ele>
        <time>2022-08-16T12:22:45Z</time>
      </trkpt>
      <trkpt lat="44.82066" lon="1.25409">
        <ele>84.7580028</ele>
        <time>2022-08-16T12:22:47Z</time>
      </trkpt>
      <trkpt lat="44.82064" lon="1.25413">
        <ele>85.128413</ele>
        <time>2022-08-16T12:22:49Z</time>
      </trkpt>
      <trkpt lat="44.82061" lon="1.25415">
        <ele>85.1496307</ele>
        <time>2022-08-16T12:22:51Z</time>
      </trkpt>
      <trkpt lat="44.82058" lon="1.25418">
        <ele>86.2262199</ele>
        <time>2022-08-16T12:22:53Z</time>
      </trkpt>
      <trkpt lat="44.82055" lon="1.25421">
        <ele>86.750262</ele>
        <time>2022-08-16T12:22:55Z</time>
      </trkpt>
      <trkpt lat="44.82053" lon="1.25423">
        <ele>87.1566397</ele>
        <time>2022-08-16T12:22:57Z</time>
      </trkpt>
      <trkpt lat="44.8205" lon="1.25426">
        <ele>87.4770878</ele>
        <time>2022-08-16T12:22:59Z</time>
      </trkpt>
      <trkpt lat="44.82048" lon="1.2543">
        <ele>87.4140626</ele>
        <time>2022-08-16T12:23:01Z</time>
      </trkpt>
      <trkpt lat="44.82045" lon="1.25432">
        <ele>87.4085766</ele>
        <time>2022-08-16T12:23:03Z</time>
      </trkpt>
      <trkpt lat="44.82043" lon="1.25435">
        <ele>87.9925738</ele>
        <time>2022-08-16T12:23:05Z</time>
      </trkpt>
      <trkpt lat="44.82041" lon="1.25439">
        <ele>88.3848073</ele>
        <time>2022-08-16T12:23:07Z</time>
      </trkpt>
      <trkpt lat="44.82038" lon="1.25442">
        <ele>88.811283</ele>
        <time>2022-08-16T12:23:09Z</time>
      </trkpt>
      <trkpt lat="44.82035" lon="1.25445">
        <ele>89.3780988</ele>
        <time>2022-08-16T12:23:11Z</time>
      </trkpt>
      <trkpt lat="44.82033" lon="1.25447">
        <ele>89.8367243</ele>
        <time>2022-08-16T12:23:13Z</time>
      </trkpt>
      <trkpt lat="44.8203" lon="1.2545">
        <ele>90.368545</ele>
        <time>2022-08-16T12:23:15Z</time>
      </trkpt>
      <trkpt lat="44.82029" lon="1.25453">
        <ele>90.3713007</ele>
        <time>2022-08-16T12:23:17Z</time>
      </trkpt>
      <trkpt lat="44.82026" lon="1.25455">
        <ele>90.284735</ele>
        <time>2022-08-16T12:23:19Z</time>
      </trkpt>
      <trkpt lat="44.82024" lon="1.25458">
        <ele>90.3602178</ele>
        <time>2022-08-16T12:23:21Z</time>
      </trkpt>
      <trkpt lat="44.82022" lon="1.2546">
        <ele>89.9431169</ele>
        <time>2022-08-16T12:23:23Z</time>
      </trkpt>
      <trkpt lat="44.82019" lon="1.25462">
        <ele>90.3414883</ele>
        <time>2022-08-16T12:23:25Z</time>
      </trkpt>
      <trkpt lat="44.82015" lon="1.25465">
        <ele>91.0538263</ele>
        <time>2022-08-16T12:23:27Z</time>
      </trkpt>
      <trkpt lat="44.82013" lon="1.25467">
        <ele>90.2714949</ele>
        <time>2022-08-16T12:23:29Z</time>
      </trkpt>
      <trkpt lat="44.8201" lon="1.25469">
        <ele>90.4819128</ele>
        <time>2022-08-16T12:23:31Z</time>
      </trkpt>
      <trkpt lat="44.82007" lon="1.25471">
        <ele>91.3123526</ele>
        <time>2022-08-16T12:23:33Z</time>
      </trkpt>
      <trkpt lat="44.82005" lon="1.25473">
        <ele>91.6915524</ele>
        <time>2022-08-16T12:23:35Z</time>
      </trkpt>
      <trkpt lat="44.82003" lon="1.25475">
        <ele>92.1419161</ele>
        <time>2022-08-16T12:23:37Z</time>
      </trkpt>
      <trkpt lat="44.82" lon="1.25478">
        <ele>92.7580626</ele>
        <time>2022-08-16T12:23:39Z</time>
      </trkpt>
      <trkpt lat="44.81998" lon="1.25479">
        <ele>93.120801</ele>
        <time>2022-08-16T12:23:41Z</time>
      </trkpt>
      <trkpt lat="44.81994" lon="1.25482">
        <ele>94.8798853</ele>
        <time>2022-08-16T12:23:43Z</time>
      </trkpt>
      <trkpt lat="44.81991" lon="1.25484">
        <ele>94.9754621</ele>
        <time>2022-08-16T12:23:45Z</time>
      </trkpt>
      <trkpt lat="44.81988" lon="1.25485">
        <ele>95.0841254</ele>
        <time>2022-08-16T12:23:47Z</time>
      </trkpt>
      <trkpt lat="44.81986" lon="1.25487">
        <ele>95.5043713</ele>
        <time>2022-08-16T12:23:49Z</time>
      </trkpt>
      <trkpt lat="44.81983" lon="1.25489">
        <ele>95.8745796</ele>
        <time>2022-08-16T12:23:51Z</time>
      </trkpt>
      <trkpt lat="44.8198" lon="1.25491">
        <ele>96.1329183</ele>
        <time>2022-08-16T12:23:53Z</time>
      </trkpt>
      <trkpt lat="44.81977" lon="1.25493">
        <ele>96.7422849</ele>
        <time>2022-08-16T12:23:55Z</time>
      </trkpt>
      <trkpt lat="44.81975" lon="1.25495">
        <ele>97.0022209</ele>
        <time>2022-08-16T12:23:57Z</time>
      </trkpt>
      <trkpt lat="44.81971" lon="1.25497">
        <ele>97.3004029</ele>
        <time>2022-08-16T12:23:59Z</time>
      </trkpt>
      <trkpt lat="44.81969" lon="1.25499">
        <ele>97.1854682</ele>
        <time>2022-08-16T12:24:01Z</time>
      </trkpt>
      <trkpt lat="44.81966" lon="1.25501">
        <ele>98.105488</ele>
        <time>2022-08-16T12:24:03Z</time>
      </trkpt>
      <trkpt lat="44.81963" lon="1.25502">
        <ele>98.7053507</ele>
        <time>2022-08-16T12:24:05Z</time>
      </trkpt>
      <trkpt lat="44.81961" lon="1.25505">
        <ele>98.3185549</ele>
        <time>2022-08-16T12:24:07Z</time>
      </trkpt>
      <trkpt lat="44.81958" lon="1.25508">
        <ele>98.4599739</ele>
        <time>2022-08-16T12:24:09Z</time>
      </trkpt>
      <trkpt lat="44.81955" lon="1.25511">
        <ele>98.5626565</ele>
        <time>2022-08-16T12:24:11Z</time>
      </trkpt>
      <trkpt lat="44.81953" lon="1.25512">
        <ele>99.1358672</ele>
        <time>2022-08-16T12:24:13Z</time>
      </trkpt>
      <trkpt lat="44.8195" lon="1.25514">
        <ele>98.4167818</ele>
        <time>2022-08-16T12:24:15Z</time>
      </trkpt>
      <trkpt lat="44.81947" lon="1.25517">
        <ele>100.2368374</ele>
        <time>2022-08-16T12:24:17Z</time>
      </trkpt>
      <trkpt lat="44.81946" lon="1.25519">
        <ele>99.2234654</ele>
        <time>2022-08-16T12:24:19Z</time>
      </trkpt>
      <trkpt lat="44.81942" lon="1.25522">
        <ele>99.9434227</ele>
        <time>2022-08-16T12:24:21Z</time>
      </trkpt>
      <trkpt lat="44.8194" lon="1.25525">
        <ele>100.2882381</ele>
        <time>2022-08-16T12:24:23Z</time>
      </trkpt>
      <trkpt lat="44.81938" lon="1.25528">
        <ele>100.4241497</ele>
        <time>2022-08-16T12:24:25Z</time>
      </trkpt>
      <trkpt lat="44.81935" lon="1.25529">
        <ele>100.7736619</ele>
        <time>2022-08-16T12:24:27Z</time>
      </trkpt>
      <trkpt lat="44.81932" lon="1.2553">
        <ele>101.0537136</ele>
        <time>2022-08-16T12:24:29Z</time>
      </trkpt>
      <trkpt lat="44.8193" lon="1.25533">
        <ele>100.772201</ele>
        <time>2022-08-16T12:24:31Z</time>
      </trkpt>
      <trkpt lat="44.81928" lon="1.25535">
        <ele>100.5606419</ele>
        <time>2022-08-16T12:24:33Z</time>
      </trkpt>
      <trkpt lat="44.81926" lon="1.25537">
        <ele>101.3000083</ele>
        <time>2022-08-16T12:24:35Z</time>
      </trkpt>
      <trkpt lat="44.81922" lon="1.25539">
        <ele>102.2239271</ele>
        <time>2022-08-16T12:24:37Z</time>
      </trkpt>
      <trkpt lat="44.81919" lon="1.2554">
        <ele>101.8777303</ele>
        <time>2022-08-16T12:24:39Z</time>
      </trkpt>
      <trkpt lat="44.81916" lon="1.25543">
        <ele>102.4036567</ele>
        <time>2022-08-16T12:24:41Z</time>
      </trkpt>
      <trkpt lat="44.81913" lon="1.25545">
        <ele>103.1421543</ele>
        <time>2022-08-16T12:24:43Z</time>
      </trkpt>
      <trkpt lat="44.8191" lon="1.25547">
        <ele>103.5680948</ele>
        <time>2022-08-16T12:24:45Z</time>
      </trkpt>
      <trkpt lat="44.81906" lon="1.25549">
        <ele>104.2401332</ele>
        <time>2022-08-16T12:24:47Z</time>
      </trkpt>
      <trkpt lat="44.81904" lon="1.25549">
        <ele>103.8793009</ele>
        <time>2022-08-16T12:24:49Z</time>
      </trkpt>
      <trkpt lat="44.81901" lon="1.2555">
        <ele>104.5897298</ele>
        <time>2022-08-16T12:24:51Z</time>
      </trkpt>
      <trkpt lat="44.81898" lon="1.2555">
        <ele>103.6462641</ele>
        <time>2022-08-16T12:24:53Z</time>
      </trkpt>
      <trkpt lat="44.81895" lon="1.2555">
        <ele>104.0301771</ele>
        <time>2022-08-16T12:24:55Z</time>
      </trkpt>
      <trkpt lat="44.81892" lon="1.25551">
        <ele>104.2460347</ele>
        <time>2022-08-16T12:24:57Z</time>
      </trkpt>
      <trkpt lat="44.81889" lon="1.25552">
        <ele>104.3300297</ele>
        <time>2022-08-16T12:24:59Z</time>
      </trkpt>
      <trkpt lat="44.81886" lon="1.25551">
        <ele>104.917606</ele>
        <time>2022-08-16T12:25:01Z</time>
      </trkpt>
      <trkpt lat="44.81883" lon="1.25553">
        <ele>104.5265764</ele>
        <time>2022-08-16T12:25:03Z</time>
      </trkpt>
      <trkpt lat="44.8188" lon="1.25552">
        <ele>105.0039858</ele>
        <time>2022-08-16T12:25:05Z</time>
      </trkpt>
      <trkpt lat="44.81876" lon="1.25553">
        <ele>105.6805568</ele>
        <time>2022-08-16T12:25:07Z</time>
      </trkpt>
      <trkpt lat="44.81872" lon="1.25552">
        <ele>106.3904132</ele>
        <time>2022-08-16T12:25:09Z</time>
      </trkpt>
      <trkpt lat="44.81869" lon="1.25552">
        <ele>107.4692135</ele>
        <time>2022-08-16T12:25:11Z</time>
      </trkpt>
      <trkpt lat="44.81866" lon="1.2555">
        <ele>107.7811522</ele>
        <time>2022-08-16T12:25:13Z</time>
      </trkpt>
      <trkpt lat="44.81862" lon="1.25551">
        <ele>108.3678975</ele>
        <time>2022-08-16T12:25:15Z</time>
      </trkpt>
      <trkpt lat="44.81859" lon="1.25552">
        <ele>109.7204701</ele>
        <time>2022-08-16T12:25:17Z</time>
      </trkpt>
      <trkpt lat="44.81856" lon="1.25553">
        <ele>110.4406022</ele>
        <time>2022-08-16T12:25:19Z</time>
      </trkpt>
      <trkpt lat="44.81853" lon="1.25553">
        <ele>110.5201205</ele>
        <time>2022-08-16T12:25:21Z</time>
      </trkpt>
      <trkpt lat="44.81851" lon="1.25554">
        <ele>110.4536942</ele>
        <time>2022-08-16T12:25:23Z</time>
      </trkpt>
      <trkpt lat="44.81847" lon="1.25554">
        <ele>111.5746601</ele>
        <time>2022-08-16T12:25:25Z</time>
      </trkpt>
      <trkpt lat="44.81843" lon="1.25555">
        <ele>111.6961689</ele>
        <time>2022-08-16T12:25:27Z</time>
      </trkpt>
      <trkpt lat="44.81841" lon="1.25557">
        <ele>110.9348869</ele>
        <time>2022-08-16T12:25:29Z</time>
      </trkpt>
      <trkpt lat="44.81838" lon="1.25559">
        <ele>110.7838631</ele>
        <time>2022-08-16T12:25:31Z</time>
      </trkpt>
      <trkpt lat="44.81835" lon="1.25561">
        <ele>111.5266783</ele>
        <time>2022-08-16T12:25:33Z</time>
      </trkpt>
      <trkpt lat="44.81832" lon="1.25562">
        <ele>111.7686075</ele>
        <time>2022-08-16T12:25:35Z</time>
      </trkpt>
      <trkpt lat="44.8183" lon="1.25565">
        <ele>111.6038741</ele>
        <time>2022-08-16T12:25:37Z</time>
      </trkpt>
      <trkpt lat="44.81826" lon="1.25566">
        <ele>112.9826249</ele>
        <time>2022-08-16T12:25:39Z</time>
      </trkpt>
      <trkpt lat="44.81823" lon="1.25568">
        <ele>112.4094858</ele>
        <time>2022-08-16T12:25:41Z</time>
      </trkpt>
      <trkpt lat="44.8182" lon="1.25572">
        <ele>113.9799868</ele>
        <time>2022-08-16T12:25:43Z</time>
      </trkpt>
      <trkpt lat="44.81818" lon="1.25575">
        <ele>113.6164714</ele>
        <time>2022-08-16T12:25:45Z</time>
      </trkpt>
      <trkpt lat="44.81815" lon="1.25577">
        <ele>113.76784</ele>
        <time>2022-08-16T12:25:47Z</time>
      </trkpt>
      <trkpt lat="44.81812" lon="1.25579">
        <ele>114.459735</ele>
        <time>2022-08-16T12:25:49Z</time>
      </trkpt>
      <trkpt lat="44.81809" lon="1.25582">
        <ele>115.3223279</ele>
        <time>2022-08-16T12:25:51Z</time>
      </trkpt>
      <trkpt lat="44.81806" lon="1.25584">
        <ele>115.2844182</ele>
        <time>2022-08-16T12:25:53Z</time>
      </trkpt>
      <trkpt lat="44.81803" lon="1.25586">
        <ele>117.3762808</ele>
        <time>2022-08-16T12:25:55Z</time>
      </trkpt>
      <trkpt lat="44.81801" lon="1.25588">
        <ele>118.0006898</ele>
        <time>2022-08-16T12:25:57Z</time>
      </trkpt>
      <trkpt lat="44.81798" lon="1.2559">
        <ele>118.0770258</ele>
        <time>2022-08-16T12:25:59Z</time>
      </trkpt>
      <trkpt lat="44.81796" lon="1.25592">
        <ele>117.7296854</ele>
        <time>2022-08-16T12:26:01Z</time>
      </trkpt>
      <trkpt lat="44.81792" lon="1.25594">
        <ele>117.6431596</ele>
        <time>2022-08-16T12:26:03Z</time>
      </trkpt>
      <trkpt lat="44.81789" lon="1.25597">
        <ele>118.7181106</ele>
        <time>2022-08-16T12:26:05Z</time>
      </trkpt>
      <trkpt lat="44.81786" lon="1.25599">
        <ele>118.8517557</ele>
        <time>2022-08-16T12:26:07Z</time>
      </trkpt>
      <trkpt lat="44.81783" lon="1.25602">
        <ele>119.0429771</ele>
        <time>2022-08-16T12:26:09Z</time>
      </trkpt>
      <trkpt lat="44.8178" lon="1.25604">
        <ele>120.2679211</ele>
        <time>2022-08-16T12:26:11Z</time>
      </trkpt>
      <trkpt lat="44.81776" lon="1.25605">
        <ele>120.283954</ele>
        <time>2022-08-16T12:26:13Z</time>
      </trkpt>
      <trkpt lat="44.81772" lon="1.25607">
        <ele>120.1640672</ele>
        <time>2022-08-16T12:26:15Z</time>
      </trkpt>
      <trkpt lat="44.81768" lon="1.25608">
        <ele>119.9540695</ele>
        <time>2022-08-16T12:26:17Z</time>
      </trkpt>
      <trkpt lat="44.81765" lon="1.25608">
        <ele>119.5675275</ele>
        <time>2022-08-16T12:26:19Z</time>
      </trkpt>
      <trkpt lat="44.81761" lon="1.25609">
        <ele>119.6818824</ele>
        <time>2022-08-16T12:26:21Z</time>
      </trkpt>
      <trkpt lat="44.81758" lon="1.25609">
        <ele>120.0327766</ele>
        <time>2022-08-16T12:26:23Z</time>
      </trkpt>
      <trkpt lat="44.81754" lon="1.2561">
        <ele>120.0662196</ele>
        <time>2022-08-16T12:26:25Z</time>
      </trkpt>
      <trkpt lat="44.81751" lon="1.2561">
        <ele>120.3322147</ele>
        <time>2022-08-16T12:26:27Z</time>
      </trkpt>
      <trkpt lat="44.81747" lon="1.25611">
        <ele>121.4489135</ele>
        <time>2022-08-16T12:26:29Z</time>
      </trkpt>
      <trkpt lat="44.81743" lon="1.25611">
        <ele>122.3087257</ele>
        <time>2022-08-16T12:26:31Z</time>
      </trkpt>
      <trkpt lat="44.8174" lon="1.2561">
        <ele>122.889084</ele>
        <time>2022-08-16T12:26:33Z</time>
      </trkpt>
      <trkpt lat="44.81737" lon="1.25609">
        <ele>123.0757362</ele>
        <time>2022-08-16T12:26:35Z</time>
      </trkpt>
      <trkpt lat="44.81734" lon="1.25609">
        <ele>122.2671106</ele>
        <time>2022-08-16T12:26:37Z</time>
      </trkpt>
      <trkpt lat="44.81731" lon="1.25609">
        <ele>121.7470827</ele>
        <time>2022-08-16T12:26:39Z</time>
      </trkpt>
      <trkpt lat="44.81727" lon="1.25607">
        <ele>122.0378496</ele>
        <time>2022-08-16T12:26:41Z</time>
      </trkpt>
      <trkpt lat="44.81725" lon="1.25607">
        <ele>122.3717056</ele>
        <time>2022-08-16T12:26:43Z</time>
      </trkpt>
      <trkpt lat="44.81722" lon="1.25607">
        <ele>123.3015384</ele>
        <time>2022-08-16T12:26:45Z</time>
      </trkpt>
      <trkpt lat="44.81718" lon="1.25606">
        <ele>122.8896544</ele>
        <time>2022-08-16T12:26:47Z</time>
      </trkpt>
      <trkpt lat="44.81716" lon="1.25605">
        <ele>123.3806621</ele>
        <time>2022-08-16T12:26:49Z</time>
      </trkpt>
      <trkpt lat="44.81712" lon="1.25603">
        <ele>123.1404341</ele>
        <time>2022-08-16T12:26:51Z</time>
      </trkpt>
      <trkpt lat="44.81709" lon="1.25603">
        <ele>123.8969549</ele>
        <time>2022-08-16T12:26:53Z</time>
      </trkpt>
      <trkpt lat="44.81706" lon="1.25602">
        <ele>124.1556201</ele>
        <time>2022-08-16T12:26:55Z</time>
      </trkpt>
      <trkpt lat="44.81703" lon="1.25601">
        <ele>124.8554114</ele>
        <time>2022-08-16T12:26:57Z</time>
      </trkpt>
      <trkpt lat="44.81699" lon="1.25601">
        <ele>124.5515242</ele>
        <time>2022-08-16T12:26:59Z</time>
      </trkpt>
      <trkpt lat="44.81696" lon="1.25602">
        <ele>125.2867306</ele>
        <time>2022-08-16T12:27:01Z</time>
      </trkpt>
      <trkpt lat="44.81692" lon="1.25604">
        <ele>123.767818</ele>
        <time>2022-08-16T12:27:03Z</time>
      </trkpt>
      <trkpt lat="44.81689" lon="1.25604">
        <ele>124.4813109</ele>
        <time>2022-08-16T12:27:05Z</time>
      </trkpt>
      <trkpt lat="44.81686" lon="1.25606">
        <ele>124.8964147</ele>
        <time>2022-08-16T12:27:07Z</time>
      </trkpt>
      <trkpt lat="44.81682" lon="1.25609">
        <ele>124.1176823</ele>
        <time>2022-08-16T12:27:09Z</time>
      </trkpt>
      <trkpt lat="44.81679" lon="1.25611">
        <ele>124.7406748</ele>
        <time>2022-08-16T12:27:11Z</time>
      </trkpt>
      <trkpt lat="44.81677" lon="1.25615">
        <ele>125.0080929</ele>
        <time>2022-08-16T12:27:13Z</time>
      </trkpt>
      <trkpt lat="44.81675" lon="1.25618">
        <ele>125.062574</ele>
        <time>2022-08-16T12:27:15Z</time>
      </trkpt>
      <trkpt lat="44.81672" lon="1.25621">
        <ele>126.5539657</ele>
        <time>2022-08-16T12:27:17Z</time>
      </trkpt>
      <trkpt lat="44.8167" lon="1.25624">
        <ele>125.8781882</ele>
        <time>2022-08-16T12:27:19Z</time>
      </trkpt>
      <trkpt lat="44.81667" lon="1.25628">
        <ele>126.8715513</ele>
        <time>2022-08-16T12:27:21Z</time>
      </trkpt>
      <trkpt lat="44.81665" lon="1.2563">
        <ele>126.7831094</ele>
        <time>2022-08-16T12:27:23Z</time>
      </trkpt>
      <trkpt lat="44.81661" lon="1.25632">
        <ele>127.1645425</ele>
        <time>2022-08-16T12:27:25Z</time>
      </trkpt>
      <trkpt lat="44.81659" lon="1.25633">
        <ele>126.6548974</ele>
        <time>2022-08-16T12:27:27Z</time>
      </trkpt>
      <trkpt lat="44.81656" lon="1.25636">
        <ele>127.2556415</ele>
        <time>2022-08-16T12:27:29Z</time>
      </trkpt>
      <trkpt lat="44.81653" lon="1.2564">
        <ele>126.6375399</ele>
        <time>2022-08-16T12:27:31Z</time>
      </trkpt>
      <trkpt lat="44.8165" lon="1.25642">
        <ele>126.9110951</ele>
        <time>2022-08-16T12:27:33Z</time>
      </trkpt>
      <trkpt lat="44.81647" lon="1.25645">
        <ele>127.6882493</ele>
        <time>2022-08-16T12:27:35Z</time>
      </trkpt>
      <trkpt lat="44.81645" lon="1.25649">
        <ele>127.5247419</ele>
        <time>2022-08-16T12:27:37Z</time>
      </trkpt>
      <trkpt lat="44.81642" lon="1.2565">
        <ele>127.1739536</ele>
        <time>2022-08-16T12:27:39Z</time>
      </trkpt>
      <trkpt lat="44.81639" lon="1.25653">
        <ele>127.681134</ele>
        <time>2022-08-16T12:27:41Z</time>
      </trkpt>
      <trkpt lat="44.81637" lon="1.25655">
        <ele>128.0473874</ele>
        <time>2022-08-16T12:27:43Z</time>
      </trkpt>
      <trkpt lat="44.81634" lon="1.25657">
        <ele>128.8054108</ele>
        <time>2022-08-16T12:27:45Z</time>
      </trkpt>
      <trkpt lat="44.81631" lon="1.25659">
        <ele>128.9606818</ele>
        <time>2022-08-16T12:27:47Z</time>
      </trkpt>
      <trkpt lat="44.81628" lon="1.25661">
        <ele>129.6480127</ele>
        <time>2022-08-16T12:27:49Z</time>
      </trkpt>
      <trkpt lat="44.81626" lon="1.25664">
        <ele>129.9433187</ele>
        <time>2022-08-16T12:27:51Z</time>
      </trkpt>
      <trkpt lat="44.81623" lon="1.25667">
        <ele>129.2833719</ele>
        <time>2022-08-16T12:27:53Z</time>
      </trkpt>
      <trkpt lat="44.81621" lon="1.25669">
        <ele>129.9326727</ele>
        <time>2022-08-16T12:27:55Z</time>
      </trkpt>
      <trkpt lat="44.81618" lon="1.25673">
        <ele>131.1355221</ele>
        <time>2022-08-16T12:27:57Z</time>
      </trkpt>
      <trkpt lat="44.81616" lon="1.25675">
        <ele>131.8759005</ele>
        <time>2022-08-16T12:27:59Z</time>
      </trkpt>
      <trkpt lat="44.81613" lon="1.25678">
        <ele>131.7320807</ele>
        <time>2022-08-16T12:28:01Z</time>
      </trkpt>
      <trkpt lat="44.81611" lon="1.25681">
        <ele>132.0602213</ele>
        <time>2022-08-16T12:28:03Z</time>
      </trkpt>
      <trkpt lat="44.81609" lon="1.25683">
        <ele>131.5496418</ele>
        <time>2022-08-16T12:28:05Z</time>
      </trkpt>
      <trkpt lat="44.81606" lon="1.25686">
        <ele>131.7813468</ele>
        <time>2022-08-16T12:28:07Z</time>
      </trkpt>
      <trkpt lat="44.81604" lon="1.25687">
        <ele>131.5324793</ele>
        <time>2022-08-16T12:28:09Z</time>
      </trkpt>
      <trkpt lat="44.81601" lon="1.25689">
        <ele>132.0357828</ele>
        <time>2022-08-16T12:28:11Z</time>
      </trkpt>
      <trkpt lat="44.81598" lon="1.25691">
        <ele>131.9845174</ele>
        <time>2022-08-16T12:28:13Z</time>
      </trkpt>
      <trkpt lat="44.81596" lon="1.25694">
        <ele>132.1288815</ele>
        <time>2022-08-16T12:28:15Z</time>
      </trkpt>
      <trkpt lat="44.81594" lon="1.25697">
        <ele>132.576937</ele>
        <time>2022-08-16T12:28:17Z</time>
      </trkpt>
      <trkpt lat="44.81591" lon="1.25699">
        <ele>132.6790269</ele>
        <time>2022-08-16T12:28:19Z</time>
      </trkpt>
      <trkpt lat="44.81589" lon="1.25702">
        <ele>133.3714908</ele>
        <time>2022-08-16T12:28:21Z</time>
      </trkpt>
      <trkpt lat="44.81588" lon="1.25705">
        <ele>134.1938781</ele>
        <time>2022-08-16T12:28:23Z</time>
      </trkpt>
      <trkpt lat="44.81586" lon="1.25708">
        <ele>134.9660895</ele>
        <time>2022-08-16T12:28:25Z</time>
      </trkpt>
      <trkpt lat="44.81583" lon="1.2571">
        <ele>135.5543741</ele>
        <time>2022-08-16T12:28:27Z</time>
      </trkpt>
      <trkpt lat="44.81581" lon="1.25713">
        <ele>134.660426</ele>
        <time>2022-08-16T12:28:29Z</time>
      </trkpt>
      <trkpt lat="44.81579" lon="1.25717">
        <ele>135.7896529</ele>
        <time>2022-08-16T12:28:31Z</time>
      </trkpt>
      <trkpt lat="44.81577" lon="1.25719">
        <ele>137.5839011</ele>
        <time>2022-08-16T12:28:33Z</time>
      </trkpt>
      <trkpt lat="44.81575" lon="1.25722">
        <ele>137.1840776</ele>
        <time>2022-08-16T12:28:35Z</time>
      </trkpt>
      <trkpt lat="44.81573" lon="1.25724">
        <ele>138.1859087</ele>
        <time>2022-08-16T12:28:37Z</time>
      </trkpt>
      <trkpt lat="44.8157" lon="1.25727">
        <ele>138.5815599</ele>
        <time>2022-08-16T12:28:39Z</time>
      </trkpt>
      <trkpt lat="44.81567" lon="1.25729">
        <ele>139.0551251</ele>
        <time>2022-08-16T12:28:41Z</time>
      </trkpt>
      <trkpt lat="44.81564" lon="1.25728">
        <ele>139.5936523</ele>
        <time>2022-08-16T12:28:43Z</time>
      </trkpt>
      <trkpt lat="44.8156" lon="1.25728">
        <ele>140.3158915</ele>
        <time>2022-08-16T12:28:45Z</time>
      </trkpt>
      <trkpt lat="44.81556" lon="1.25727">
        <ele>140.9306751</ele>
        <time>2022-08-16T12:28:47Z</time>
      </trkpt>
      <trkpt lat="44.81553" lon="1.25725">
        <ele>141.9846969</ele>
        <time>2022-08-16T12:28:49Z</time>
      </trkpt>
      <trkpt lat="44.81549" lon="1.25723">
        <ele>143.0210376</ele>
        <time>2022-08-16T12:28:51Z</time>
      </trkpt>
      <trkpt lat="44.81546" lon="1.25721">
        <ele>143.4586998</ele>
        <time>2022-08-16T12:28:53Z</time>
      </trkpt>
      <trkpt lat="44.81543" lon="1.25718">
        <ele>144.7246473</ele>
        <time>2022-08-16T12:28:55Z</time>
      </trkpt>
      <trkpt lat="44.81539" lon="1.25716">
        <ele>144.174702</ele>
        <time>2022-08-16T12:28:57Z</time>
      </trkpt>
      <trkpt lat="44.81536" lon="1.25715">
        <ele>144.6260973</ele>
        <time>2022-08-16T12:28:59Z</time>
      </trkpt>
      <trkpt lat="44.81533" lon="1.25714">
        <ele>145.1753243</ele>
        <time>2022-08-16T12:29:01Z</time>
      </trkpt>
      <trkpt lat="44.81529" lon="1.25712">
        <ele>145.8294596</ele>
        <time>2022-08-16T12:29:03Z</time>
      </trkpt>
      <trkpt lat="44.81526" lon="1.25711">
        <ele>146.5774614</ele>
        <time>2022-08-16T12:29:05Z</time>
      </trkpt>
      <trkpt lat="44.81522" lon="1.25711">
        <ele>146.6501404</ele>
        <time>2022-08-16T12:29:07Z</time>
      </trkpt>
      <trkpt lat="44.81519" lon="1.25711">
        <ele>146.437517</ele>
        <time>2022-08-16T12:29:09Z</time>
      </trkpt>
      <trkpt lat="44.81515" lon="1.25711">
        <ele>146.3914729</ele>
        <time>2022-08-16T12:29:11Z</time>
      </trkpt>
      <trkpt lat="44.81512" lon="1.25711">
        <ele>147.901229</ele>
        <time>2022-08-16T12:29:13Z</time>
      </trkpt>
      <trkpt lat="44.81509" lon="1.25711">
        <ele>147.0659127</ele>
        <time>2022-08-16T12:29:15Z</time>
      </trkpt>
      <trkpt lat="44.81505" lon="1.25713">
        <ele>147.8717283</ele>
        <time>2022-08-16T12:29:17Z</time>
      </trkpt>
      <trkpt lat="44.81502" lon="1.25713">
        <ele>148.4159781</ele>
        <time>2022-08-16T12:29:19Z</time>
      </trkpt>
      <trkpt lat="44.81499" lon="1.25714">
        <ele>148.9461369</ele>
        <time>2022-08-16T12:29:21Z</time>
      </trkpt>
      <trkpt lat="44.81496" lon="1.25714">
        <ele>149.2589498</ele>
        <time>2022-08-16T12:29:23Z</time>
      </trkpt>
      <trkpt lat="44.81492" lon="1.25716">
        <ele>149.3938676</ele>
        <time>2022-08-16T12:29:25Z</time>
      </trkpt>
      <trkpt lat="44.81489" lon="1.25716">
        <ele>149.5955503</ele>
        <time>2022-08-16T12:29:27Z</time>
      </trkpt>
      <trkpt lat="44.81486" lon="1.25719">
        <ele>149.3705223</ele>
        <time>2022-08-16T12:29:29Z</time>
      </trkpt>
      <trkpt lat="44.81483" lon="1.2572">
        <ele>150.5222425</ele>
        <time>2022-08-16T12:29:31Z</time>
      </trkpt>
      <trkpt lat="44.81479" lon="1.25721">
        <ele>150.0961725</ele>
        <time>2022-08-16T12:29:33Z</time>
      </trkpt>
      <trkpt lat="44.81477" lon="1.25722">
        <ele>149.6143119</ele>
        <time>2022-08-16T12:29:35Z</time>
      </trkpt>
      <trkpt lat="44.81474" lon="1.25724">
        <ele>150.5693032</ele>
        <time>2022-08-16T12:29:37Z</time>
      </trkpt>
      <trkpt lat="44.8147" lon="1.25726">
        <ele>150.8745266</ele>
        <time>2022-08-16T12:29:39Z</time>
      </trkpt>
      <trkpt lat="44.81468" lon="1.25728">
        <ele>150.7588326</ele>
        <time>2022-08-16T12:29:41Z</time>
      </trkpt>
      <trkpt lat="44.81465" lon="1.2573">
        <ele>152.0521924</ele>
        <time>2022-08-16T12:29:43Z</time>
      </trkpt>
      <trkpt lat="44.81462" lon="1.25732">
        <ele>150.8551039</ele>
        <time>2022-08-16T12:29:45Z</time>
      </trkpt>
      <trkpt lat="44.81459" lon="1.25733">
        <ele>151.539217</ele>
        <time>2022-08-16T12:29:47Z</time>
      </trkpt>
      <trkpt lat="44.81456" lon="1.25736">
        <ele>151.6688723</ele>
        <time>2022-08-16T12:29:49Z</time>
      </trkpt>
      <trkpt lat="44.81453" lon="1.25738">
        <ele>151.6904961</ele>
        <time>2022-08-16T12:29:51Z</time>
      </trkpt>
      <trkpt lat="44.8145" lon="1.2574">
        <ele>151.2985543</ele>
        <time>2022-08-16T12:29:53Z</time>
      </trkpt>
      <trkpt lat="44.81447" lon="1.25742">
        <ele>151.9997409</ele>
        <time>2022-08-16T12:29:55Z</time>
      </trkpt>
      <trkpt lat="44.81444" lon="1.25744">
        <ele>151.71465</ele>
        <time>2022-08-16T12:29:57Z</time>
      </trkpt>
      <trkpt lat="44.81441" lon="1.25745">
        <ele>151.8840796</ele>
        <time>2022-08-16T12:29:59Z</time>
      </trkpt>
      <trkpt lat="44.81438" lon="1.25747">
        <ele>151.9903737</ele>
        <time>2022-08-16T12:30:01Z</time>
      </trkpt>
      <trkpt lat="44.81435" lon="1.25748">
        <ele>153.3366319</ele>
        <time>2022-08-16T12:30:03Z</time>
      </trkpt>
      <trkpt lat="44.81433" lon="1.25749">
        <ele>153.4056957</ele>
        <time>2022-08-16T12:30:05Z</time>
      </trkpt>
      <trkpt lat="44.8143" lon="1.25752">
        <ele>153.4715069</ele>
        <time>2022-08-16T12:30:07Z</time>
      </trkpt>
      <trkpt lat="44.81428" lon="1.25754">
        <ele>152.816341</ele>
        <time>2022-08-16T12:30:09Z</time>
      </trkpt>
      <trkpt lat="44.81425" lon="1.25756">
        <ele>154.9591084</ele>
        <time>2022-08-16T12:30:11Z</time>
      </trkpt>
      <trkpt lat="44.81423" lon="1.25758">
        <ele>152.2320304</ele>
        <time>2022-08-16T12:30:13Z</time>
      </trkpt>
      <trkpt lat="44.8142" lon="1.25761">
        <ele>152.9166737</ele>
        <time>2022-08-16T12:30:15Z</time>
      </trkpt>
      <trkpt lat="44.81418" lon="1.25763">
        <ele>153.1601209</ele>
        <time>2022-08-16T12:30:17Z</time>
      </trkpt>
      <trkpt lat="44.81414" lon="1.25766">
        <ele>153.3368463</ele>
        <time>2022-08-16T12:30:19Z</time>
      </trkpt>
      <trkpt lat="44.81411" lon="1.25768">
        <ele>153.7814426</ele>
        <time>2022-08-16T12:30:21Z</time>
      </trkpt>
      <trkpt lat="44.81409" lon="1.2577">
        <ele>154.3381133</ele>
        <time>2022-08-16T12:30:23Z</time>
      </trkpt>
      <trkpt lat="44.81405" lon="1.25773">
        <ele>154.555274</ele>
        <time>2022-08-16T12:30:25Z</time>
      </trkpt>
      <trkpt lat="44.81402" lon="1.25774">
        <ele>155.4710014</ele>
        <time>2022-08-16T12:30:27Z</time>
      </trkpt>
      <trkpt lat="44.814" lon="1.25777">
        <ele>156.0169211</ele>
        <time>2022-08-16T12:30:29Z</time>
      </trkpt>
      <trkpt lat="44.81397" lon="1.2578">
        <ele>156.0223003</ele>
        <time>2022-08-16T12:30:31Z</time>
      </trkpt>
      <trkpt lat="44.81393" lon="1.25782">
        <ele>157.6549447</ele>
        <time>2022-08-16T12:30:33Z</time>
      </trkpt>
      <trkpt lat="44.81391" lon="1.25785">
        <ele>157.1311548</ele>
        <time>2022-08-16T12:30:35Z</time>
      </trkpt>
      <trkpt lat="44.81389" lon="1.25787">
        <ele>157.5206129</ele>
        <time>2022-08-16T12:30:37Z</time>
      </trkpt>
      <trkpt lat="44.81385" lon="1.25791">
        <ele>157.8969814</ele>
        <time>2022-08-16T12:30:39Z</time>
      </trkpt>
      <trkpt lat="44.81382" lon="1.25794">
        <ele>158.546565</ele>
        <time>2022-08-16T12:30:41Z</time>
      </trkpt>
      <trkpt lat="44.8138" lon="1.25797">
        <ele>158.293974</ele>
        <time>2022-08-16T12:30:43Z</time>
      </trkpt>
      <trkpt lat="44.81377" lon="1.25798">
        <ele>158.501434</ele>
        <time>2022-08-16T12:30:45Z</time>
      </trkpt>
      <trkpt lat="44.81374" lon="1.25801">
        <ele>159.0351191</ele>
        <time>2022-08-16T12:30:47Z</time>
      </trkpt>
      <trkpt lat="44.81372" lon="1.25803">
        <ele>158.7465913</ele>
        <time>2022-08-16T12:30:49Z</time>
      </trkpt>
      <trkpt lat="44.8137" lon="1.25805">
        <ele>159.1701742</ele>
        <time>2022-08-16T12:30:51Z</time>
      </trkpt>
      <trkpt lat="44.81367" lon="1.25808">
        <ele>159.1402669</ele>
        <time>2022-08-16T12:30:53Z</time>
      </trkpt>
      <trkpt lat="44.81364" lon="1.25811">
        <ele>158.4881794</ele>
        <time>2022-08-16T12:30:55Z</time>
      </trkpt>
      <trkpt lat="44.81361" lon="1.25813">
        <ele>158.1812906</ele>
        <time>2022-08-16T12:30:57Z</time>
      </trkpt>
      <trkpt lat="44.81359" lon="1.25815">
        <ele>158.2386217</ele>
        <time>2022-08-16T12:30:59Z</time>
      </trkpt>
      <trkpt lat="44.81357" lon="1.25818">
        <ele>158.4373517</ele>
        <time>2022-08-16T12:31:01Z</time>
      </trkpt>
      <trkpt lat="44.81354" lon="1.2582">
        <ele>159.4663519</ele>
        <time>2022-08-16T12:31:03Z</time>
      </trkpt>
      <trkpt lat="44.81352" lon="1.25824">
        <ele>159.7223141</ele>
        <time>2022-08-16T12:31:05Z</time>
      </trkpt>
      <trkpt lat="44.8135" lon="1.25827">
        <ele>159.066156</ele>
        <time>2022-08-16T12:31:07Z</time>
      </trkpt>
      <trkpt lat="44.81347" lon="1.25831">
        <ele>160.438897</ele>
        <time>2022-08-16T12:31:09Z</time>
      </trkpt>
      <trkpt lat="44.81345" lon="1.25834">
        <ele>160.5677884</ele>
        <time>2022-08-16T12:31:11Z</time>
      </trkpt>
      <trkpt lat="44.81343" lon="1.25837">
        <ele>160.4368886</ele>
        <time>2022-08-16T12:31:13Z</time>
      </trkpt>
      <trkpt lat="44.81341" lon="1.25841">
        <ele>161.0138024</ele>
        <time>2022-08-16T12:31:15Z</time>
      </trkpt>
      <trkpt lat="44.81338" lon="1.25843">
        <ele>160.699603</ele>
        <time>2022-08-16T12:31:17Z</time>
      </trkpt>
      <trkpt lat="44.81336" lon="1.25847">
        <ele>160.8520747</ele>
        <time>2022-08-16T12:31:19Z</time>
      </trkpt>
      <trkpt lat="44.81335" lon="1.2585">
        <ele>160.8141008</ele>
        <time>2022-08-16T12:31:21Z</time>
      </trkpt>
      <trkpt lat="44.81332" lon="1.25853">
        <ele>161.2919492</ele>
        <time>2022-08-16T12:31:23Z</time>
      </trkpt>
      <trkpt lat="44.81329" lon="1.25856">
        <ele>161.0003758</ele>
        <time>2022-08-16T12:31:25Z</time>
      </trkpt>
      <trkpt lat="44.81326" lon="1.25859">
        <ele>161.5218336</ele>
        <time>2022-08-16T12:31:27Z</time>
      </trkpt>
      <trkpt lat="44.81324" lon="1.25862">
        <ele>161.5409201</ele>
        <time>2022-08-16T12:31:29Z</time>
      </trkpt>
      <trkpt lat="44.81321" lon="1.25865">
        <ele>163.1627309</ele>
        <time>2022-08-16T12:31:31Z</time>
      </trkpt>
      <trkpt lat="44.81319" lon="1.25867">
        <ele>164.0519094</ele>
        <time>2022-08-16T12:31:33Z</time>
      </trkpt>
      <trkpt lat="44.81316" lon="1.2587">
        <ele>164.0824773</ele>
        <time>2022-08-16T12:31:35Z</time>
      </trkpt>
      <trkpt lat="44.81314" lon="1.25873">
        <ele>164.7108347</ele>
        <time>2022-08-16T12:31:37Z</time>
      </trkpt>
      <trkpt lat="44.81312" lon="1.25876">
        <ele>165.0760231</ele>
        <time>2022-08-16T12:31:39Z</time>
      </trkpt>
      <trkpt lat="44.81309" lon="1.25879">
        <ele>165.1483926</ele>
        <time>2022-08-16T12:31:41Z</time>
      </trkpt>
      <trkpt lat="44.81306" lon="1.25882">
        <ele>165.3142352</ele>
        <time>2022-08-16T12:31:43Z</time>
      </trkpt>
      <trkpt lat="44.81303" lon="1.25885">
        <ele>165.5826845</ele>
        <time>2022-08-16T12:31:45Z</time>
      </trkpt>
      <trkpt lat="44.81299" lon="1.25888">
        <ele>167.3826235</ele>
        <time>2022-08-16T12:31:47Z</time>
      </trkpt>
      <trkpt lat="44.81297" lon="1.25892">
        <ele>168.1576438</ele>
        <time>2022-08-16T12:31:49Z</time>
      </trkpt>
      <trkpt lat="44.81295" lon="1.25894">
        <ele>168.1925528</ele>
        <time>2022-08-16T12:31:51Z</time>
      </trkpt>
      <trkpt lat="44.81291" lon="1.25896">
        <ele>168.1540015</ele>
        <time>2022-08-16T12:31:53Z</time>
      </trkpt>
      <trkpt lat="44.81288" lon="1.25898">
        <ele>168.5044324</ele>
        <time>2022-08-16T12:31:55Z</time>
      </trkpt>
      <trkpt lat="44.81286" lon="1.25901">
        <ele>168.0765249</ele>
        <time>2022-08-16T12:31:57Z</time>
      </trkpt>
      <trkpt lat="44.81283" lon="1.25903">
        <ele>169.0142647</ele>
        <time>2022-08-16T12:31:59Z</time>
      </trkpt>
      <trkpt lat="44.81281" lon="1.25906">
        <ele>168.947472</ele>
        <time>2022-08-16T12:32:01Z</time>
      </trkpt>
      <trkpt lat="44.81278" lon="1.25909">
        <ele>169.6122769</ele>
        <time>2022-08-16T12:32:03Z</time>
      </trkpt>
      <trkpt lat="44.81276" lon="1.25912">
        <ele>169.5135558</ele>
        <time>2022-08-16T12:32:05Z</time>
      </trkpt>
      <trkpt lat="44.81273" lon="1.25915">
        <ele>169.6363198</ele>
        <time>2022-08-16T12:32:07Z</time>
      </trkpt>
      <trkpt lat="44.81272" lon="1.25919">
        <ele>168.3138806</ele>
        <time>2022-08-16T12:32:09Z</time>
      </trkpt>
      <trkpt lat="44.8127" lon="1.25922">
        <ele>168.0341383</ele>
        <time>2022-08-16T12:32:11Z</time>
      </trkpt>
      <trkpt lat="44.81267" lon="1.25925">
        <ele>168.3002337</ele>
        <time>2022-08-16T12:32:13Z</time>
      </trkpt>
      <trkpt lat="44.81265" lon="1.2593">
        <ele>168.1422528</ele>
        <time>2022-08-16T12:32:15Z</time>
      </trkpt>
      <trkpt lat="44.81263" lon="1.25934">
        <ele>169.1364241</ele>
        <time>2022-08-16T12:32:17Z</time>
      </trkpt>
      <trkpt lat="44.81261" lon="1.25938">
        <ele>169.3138654</ele>
        <time>2022-08-16T12:32:19Z</time>
      </trkpt>
      <trkpt lat="44.81259" lon="1.25941">
        <ele>169.219369</ele>
        <time>2022-08-16T12:32:21Z</time>
      </trkpt>
      <trkpt lat="44.81258" lon="1.25944">
        <ele>169.2613526</ele>
        <time>2022-08-16T12:32:23Z</time>
      </trkpt>
      <trkpt lat="44.81256" lon="1.25948">
        <ele>168.9590246</ele>
        <time>2022-08-16T12:32:25Z</time>
      </trkpt>
      <trkpt lat="44.81255" lon="1.25951">
        <ele>170.1468733</ele>
        <time>2022-08-16T12:32:27Z</time>
      </trkpt>
      <trkpt lat="44.81254" lon="1.25955">
        <ele>170.024617</ele>
        <time>2022-08-16T12:32:29Z</time>
      </trkpt>
      <trkpt lat="44.81252" lon="1.25959">
        <ele>169.9447794</ele>
        <time>2022-08-16T12:32:31Z</time>
      </trkpt>
      <trkpt lat="44.8125" lon="1.25963">
        <ele>169.7253295</ele>
        <time>2022-08-16T12:32:33Z</time>
      </trkpt>
      <trkpt lat="44.81249" lon="1.25967">
        <ele>170.1339989</ele>
        <time>2022-08-16T12:32:35Z</time>
      </trkpt>
      <trkpt lat="44.81247" lon="1.25971">
        <ele>170.379869</ele>
        <time>2022-08-16T12:32:37Z</time>
      </trkpt>
      <trkpt lat="44.81246" lon="1.25975">
        <ele>170.3110734</ele>
        <time>2022-08-16T12:32:39Z</time>
      </trkpt>
      <trkpt lat="44.81244" lon="1.25979">
        <ele>171.4819289</ele>
        <time>2022-08-16T12:32:41Z</time>
      </trkpt>
      <trkpt lat="44.81243" lon="1.25983">
        <ele>170.8477445</ele>
        <time>2022-08-16T12:32:43Z</time>
      </trkpt>
      <trkpt lat="44.81241" lon="1.25986">
        <ele>171.5571736</ele>
        <time>2022-08-16T12:32:45Z</time>
      </trkpt>
      <trkpt lat="44.81241" lon="1.25989">
        <ele>171.066563</ele>
        <time>2022-08-16T12:32:47Z</time>
      </trkpt>
      <trkpt lat="44.8124" lon="1.25994">
        <ele>170.9040097</ele>
        <time>2022-08-16T12:32:49Z</time>
      </trkpt>
      <trkpt lat="44.81239" lon="1.25999">
        <ele>171.5615593</ele>
        <time>2022-08-16T12:32:51Z</time>
      </trkpt>
      <trkpt lat="44.81238" lon="1.26003">
        <ele>172.0584265</ele>
        <time>2022-08-16T12:32:53Z</time>
      </trkpt>
      <trkpt lat="44.81238" lon="1.26008">
        <ele>172.4166559</ele>
        <time>2022-08-16T12:32:55Z</time>
      </trkpt>
      <trkpt lat="44.81236" lon="1.26012">
        <ele>172.569785</ele>
        <time>2022-08-16T12:32:57Z</time>
      </trkpt>
      <trkpt lat="44.81235" lon="1.26016">
        <ele>172.2678826</ele>
        <time>2022-08-16T12:32:59Z</time>
      </trkpt>
      <trkpt lat="44.81234" lon="1.26021">
        <ele>172.3347586</ele>
        <time>2022-08-16T12:33:01Z</time>
      </trkpt>
      <trkpt lat="44.81233" lon="1.26026">
        <ele>172.1158693</ele>
        <time>2022-08-16T12:33:03Z</time>
      </trkpt>
      <trkpt lat="44.81232" lon="1.2603">
        <ele>172.4660061</ele>
        <time>2022-08-16T12:33:05Z</time>
      </trkpt>
      <trkpt lat="44.81231" lon="1.26035">
        <ele>174.1272059</ele>
        <time>2022-08-16T12:33:07Z</time>
      </trkpt>
      <trkpt lat="44.81231" lon="1.2604">
        <ele>173.8137375</ele>
        <time>2022-08-16T12:33:09Z</time>
      </trkpt>
      <trkpt lat="44.81229" lon="1.26044">
        <ele>174.8734204</ele>
        <time>2022-08-16T12:33:11Z</time>
      </trkpt>
      <trkpt lat="44.81227" lon="1.26048">
        <ele>175.5267306</ele>
        <time>2022-08-16T12:33:13Z</time>
      </trkpt>
      <trkpt lat="44.81225" lon="1.26052">
        <ele>175.9172569</ele>
        <time>2022-08-16T12:33:15Z</time>
      </trkpt>
      <trkpt lat="44.81222" lon="1.26054">
        <ele>174.996167</ele>
        <time>2022-08-16T12:33:17Z</time>
      </trkpt>
      <trkpt lat="44.81219" lon="1.26058">
        <ele>175.8602325</ele>
        <time>2022-08-16T12:33:19Z</time>
      </trkpt>
      <trkpt lat="44.81216" lon="1.2606">
        <ele>177.6429506</ele>
        <time>2022-08-16T12:33:21Z</time>
      </trkpt>
      <trkpt lat="44.81213" lon="1.26062">
        <ele>177.8919148</ele>
        <time>2022-08-16T12:33:23Z</time>
      </trkpt>
      <trkpt lat="44.8121" lon="1.26065">
        <ele>178.2085211</ele>
        <time>2022-08-16T12:33:25Z</time>
      </trkpt>
      <trkpt lat="44.81207" lon="1.26067">
        <ele>178.1107217</ele>
        <time>2022-08-16T12:33:27Z</time>
      </trkpt>
      <trkpt lat="44.81204" lon="1.26071">
        <ele>178.4737419</ele>
        <time>2022-08-16T12:33:29Z</time>
      </trkpt>
      <trkpt lat="44.81201" lon="1.26072">
        <ele>178.8155495</ele>
        <time>2022-08-16T12:33:31Z</time>
      </trkpt>
      <trkpt lat="44.81198" lon="1.26075">
        <ele>178.7124426</ele>
        <time>2022-08-16T12:33:33Z</time>
      </trkpt>
      <trkpt lat="44.81196" lon="1.26077">
        <ele>179.9624601</ele>
        <time>2022-08-16T12:33:35Z</time>
      </trkpt>
      <trkpt lat="44.81193" lon="1.26082">
        <ele>179.0808805</ele>
        <time>2022-08-16T12:33:37Z</time>
      </trkpt>
      <trkpt lat="44.81191" lon="1.26086">
        <ele>179.9625175</ele>
        <time>2022-08-16T12:33:39Z</time>
      </trkpt>
      <trkpt lat="44.81188" lon="1.26089">
        <ele>180.1126424</ele>
        <time>2022-08-16T12:33:41Z</time>
      </trkpt>
      <trkpt lat="44.81186" lon="1.26092">
        <ele>181.0590144</ele>
        <time>2022-08-16T12:33:43Z</time>
      </trkpt>
      <trkpt lat="44.81184" lon="1.26097">
        <ele>181.1736667</ele>
        <time>2022-08-16T12:33:45Z</time>
      </trkpt>
      <trkpt lat="44.81183" lon="1.26099">
        <ele>182.2860262</ele>
        <time>2022-08-16T12:33:47Z</time>
      </trkpt>
      <trkpt lat="44.8118" lon="1.26104">
        <ele>181.9082023</ele>
        <time>2022-08-16T12:33:49Z</time>
      </trkpt>
      <trkpt lat="44.81177" lon="1.26107">
        <ele>181.6757264</ele>
        <time>2022-08-16T12:33:51Z</time>
      </trkpt>
      <trkpt lat="44.81176" lon="1.26111">
        <ele>181.9106985</ele>
        <time>2022-08-16T12:33:53Z</time>
      </trkpt>
      <trkpt lat="44.81173" lon="1.26115">
        <ele>181.4643375</ele>
        <time>2022-08-16T12:33:55Z</time>
      </trkpt>
      <trkpt lat="44.81171" lon="1.26119">
        <ele>181.8295856</ele>
        <time>2022-08-16T12:33:57Z</time>
      </trkpt>
      <trkpt lat="44.81169" lon="1.26123">
        <ele>183.2612315</ele>
        <time>2022-08-16T12:33:59Z</time>
      </trkpt>
      <trkpt lat="44.81166" lon="1.26126">
        <ele>183.2365142</ele>
        <time>2022-08-16T12:34:01Z</time>
      </trkpt>
      <trkpt lat="44.81165" lon="1.26129">
        <ele>183.6359731</ele>
        <time>2022-08-16T12:34:03Z</time>
      </trkpt>
      <trkpt lat="44.81162" lon="1.26133">
        <ele>184.2584186</ele>
        <time>2022-08-16T12:34:05Z</time>
      </trkpt>
      <trkpt lat="44.81161" lon="1.26138">
        <ele>184.5398556</ele>
        <time>2022-08-16T12:34:07Z</time>
      </trkpt>
      <trkpt lat="44.81159" lon="1.26141">
        <ele>184.026323</ele>
        <time>2022-08-16T12:34:09Z</time>
      </trkpt>
      <trkpt lat="44.81157" lon="1.26145">
        <ele>185.2200587</ele>
        <time>2022-08-16T12:34:11Z</time>
      </trkpt>
      <trkpt lat="44.81155" lon="1.26148">
        <ele>185.0198529</ele>
        <time>2022-08-16T12:34:13Z</time>
      </trkpt>
      <trkpt lat="44.81153" lon="1.2615">
        <ele>185.5162762</ele>
        <time>2022-08-16T12:34:15Z</time>
      </trkpt>
      <trkpt lat="44.81151" lon="1.26154">
        <ele>186.1056429</ele>
        <time>2022-08-16T12:34:17Z</time>
      </trkpt>
      <trkpt lat="44.81149" lon="1.26158">
        <ele>186.4881456</ele>
        <time>2022-08-16T12:34:19Z</time>
      </trkpt>
      <trkpt lat="44.81147" lon="1.26161">
        <ele>187.1810489</ele>
        <time>2022-08-16T12:34:21Z</time>
      </trkpt>
      <trkpt lat="44.81145" lon="1.26165">
        <ele>187.2492194</ele>
        <time>2022-08-16T12:34:23Z</time>
      </trkpt>
      <trkpt lat="44.81143" lon="1.26167">
        <ele>186.8551746</ele>
        <time>2022-08-16T12:34:25Z</time>
      </trkpt>
      <trkpt lat="44.81141" lon="1.26171">
        <ele>187.1070104</ele>
        <time>2022-08-16T12:34:27Z</time>
      </trkpt>
      <trkpt lat="44.81139" lon="1.26175">
        <ele>188.3546862</ele>
        <time>2022-08-16T12:34:29Z</time>
      </trkpt>
      <trkpt lat="44.81137" lon="1.26178">
        <ele>188.9296427</ele>
        <time>2022-08-16T12:34:31Z</time>
      </trkpt>
      <trkpt lat="44.81135" lon="1.26182">
        <ele>189.8745558</ele>
        <time>2022-08-16T12:34:33Z</time>
      </trkpt>
      <trkpt lat="44.81134" lon="1.26186">
        <ele>190.1351345</ele>
        <time>2022-08-16T12:34:35Z</time>
      </trkpt>
      <trkpt lat="44.81131" lon="1.26189">
        <ele>190.6580693</ele>
        <time>2022-08-16T12:34:37Z</time>
      </trkpt>
      <trkpt lat="44.8113" lon="1.26193">
        <ele>190.3040346</ele>
        <time>2022-08-16T12:34:39Z</time>
      </trkpt>
      <trkpt lat="44.81128" lon="1.26197">
        <ele>190.8716622</ele>
        <time>2022-08-16T12:34:41Z</time>
      </trkpt>
      <trkpt lat="44.81127" lon="1.262">
        <ele>191.566148</ele>
        <time>2022-08-16T12:34:43Z</time>
      </trkpt>
      <trkpt lat="44.81126" lon="1.26204">
        <ele>192.0079723</ele>
        <time>2022-08-16T12:34:45Z</time>
      </trkpt>
      <trkpt lat="44.81125" lon="1.26208">
        <ele>193.0958119</ele>
        <time>2022-08-16T12:34:47Z</time>
      </trkpt>
      <trkpt lat="44.81124" lon="1.26211">
        <ele>193.470885</ele>
        <time>2022-08-16T12:34:49Z</time>
      </trkpt>
      <trkpt lat="44.81123" lon="1.26215">
        <ele>192.7919229</ele>
        <time>2022-08-16T12:34:51Z</time>
      </trkpt>
      <trkpt lat="44.81123" lon="1.26219">
        <ele>193.1674978</ele>
        <time>2022-08-16T12:34:53Z</time>
      </trkpt>
      <trkpt lat="44.81121" lon="1.26222">
        <ele>192.9736061</ele>
        <time>2022-08-16T12:34:55Z</time>
      </trkpt>
      <trkpt lat="44.81121" lon="1.26226">
        <ele>193.3046606</ele>
        <time>2022-08-16T12:34:57Z</time>
      </trkpt>
      <trkpt lat="44.81121" lon="1.2623">
        <ele>193.6494316</ele>
        <time>2022-08-16T12:34:59Z</time>
      </trkpt>
      <trkpt lat="44.81121" lon="1.26234">
        <ele>193.5632124</ele>
        <time>2022-08-16T12:35:01Z</time>
      </trkpt>
      <trkpt lat="44.81121" lon="1.26239">
        <ele>193.7988397</ele>
        <time>2022-08-16T12:35:03Z</time>
      </trkpt>
      <trkpt lat="44.81121" lon="1.26242">
        <ele>193.9905092</ele>
        <time>2022-08-16T12:35:05Z</time>
      </trkpt>
      <trkpt lat="44.81121" lon="1.26247">
        <ele>194.1673262</ele>
        <time>2022-08-16T12:35:07Z</time>
      </trkpt>
      <trkpt lat="44.81122" lon="1.26251">
        <ele>194.5196175</ele>
        <time>2022-08-16T12:35:09Z</time>
      </trkpt>
      <trkpt lat="44.81125" lon="1.26253">
        <ele>194.6758818</ele>
        <time>2022-08-16T12:35:11Z</time>
      </trkpt>
      <trkpt lat="44.81127" lon="1.26254">
        <ele>196.0041964</ele>
        <time>2022-08-16T12:35:13Z</time>
      </trkpt>
      <trkpt lat="44.81128" lon="1.26252">
        <ele>196.3483632</ele>
        <time>2022-08-16T12:35:15Z</time>
      </trkpt>
      <trkpt lat="44.81127" lon="1.26248">
        <ele>195.7032325</ele>
        <time>2022-08-16T12:35:17Z</time>
      </trkpt>
      <trkpt lat="44.81123" lon="1.26248">
        <ele>194.4403959</ele>
        <time>2022-08-16T12:35:19Z</time>
      </trkpt>
      <trkpt lat="44.81122" lon="1.26248">
        <ele>193.8901543</ele>
        <time>2022-08-16T12:35:21Z</time>
      </trkpt>
      <trkpt lat="44.81121" lon="1.26247">
        <ele>194.1725365</ele>
        <time>2022-08-16T12:35:23Z</time>
      </trkpt>
      <trkpt lat="44.8112" lon="1.26247">
        <ele>194.4841018</ele>
        <time>2022-08-16T12:35:25Z</time>
      </trkpt>
      <trkpt lat="44.81121" lon="1.26248">
        <ele>194.1068994</ele>
        <time>2022-08-16T12:35:27Z</time>
      </trkpt>
      <trkpt lat="44.81122" lon="1.26248">
        <ele>194.9429146</ele>
        <time>2022-08-16T12:35:29Z</time>
      </trkpt>
      <trkpt lat="44.81122" lon="1.26249">
        <ele>195.1296539</ele>
        <time>2022-08-16T12:35:31Z</time>
      </trkpt>
      <trkpt lat="44.81122" lon="1.26248">
        <ele>195.1247192</ele>
        <time>2022-08-16T12:35:33Z</time>
      </trkpt>
      <trkpt lat="44.81122" lon="1.26248">
        <ele>194.6143944</ele>
        <time>2022-08-16T12:35:35Z</time>
      </trkpt>
      <trkpt lat="44.81122" lon="1.26248">
        <ele>194.6143944</ele>
        <time>2022-08-16T12:35:39Z</time>
      </trkpt>
      <trkpt lat="44.81124" lon="1.26251">
        <ele>193.156289</ele>
        <time>2022-08-16T12:35:43Z</time>
      </trkpt>
      <trkpt lat="44.81124" lon="1.26251">
        <ele>193.156289</ele>
        <time>2022-08-16T12:35:47Z</time>
      </trkpt>
      <trkpt lat="44.81124" lon="1.26251">
        <ele>193.156289</ele>
        <time>2022-08-16T12:35:51Z</time>
      </trkpt>
      <trkpt lat="44.81124" lon="1.26251">
        <ele>193.156289</ele>
        <time>2022-08-16T12:35:55Z</time>
      </trkpt>
      <trkpt lat="44.81124" lon="1.26251">
        <ele>193.156289</ele>
        <time>2022-08-16T12:35:59Z</time>
      </trkpt>
      <trkpt lat="44.81124" lon="1.26251">
        <ele>193.156289</ele>
        <time>2022-08-16T12:36:03Z</time>
      </trkpt>
      <trkpt lat="44.81124" lon="1.26251">
        <ele>193.156289</ele>
        <time>2022-08-16T12:36:07Z</time>
      </trkpt>
      <trkpt lat="44.81124" lon="1.26251">
        <ele>193.156289</ele>
        <time>2022-08-16T12:36:11Z</time>
      </trkpt>
      <trkpt lat="44.81124" lon="1.26251">
        <ele>193.156289</ele>
        <time>2022-08-16T12:36:15Z</time>
      </trkpt>
      <trkpt lat="44.81124" lon="1.26251">
        <ele>193.156289</ele>
        <time>2022-08-16T12:36:19Z</time>
      </trkpt>
      <trkpt lat="44.81124" lon="1.26251">
        <ele>193.156289</ele>
        <time>2022-08-16T12:36:23Z</time>
      </trkpt>
      <trkpt lat="44.81124" lon="1.26251">
        <ele>193.156289</ele>
        <time>2022-08-16T12:36:27Z</time>
      </trkpt>
      <trkpt lat="44.81124" lon="1.26251">
        <ele>193.156289</ele>
        <time>2022-08-16T12:36:31Z</time>
      </trkpt>
      <trkpt lat="44.81124" lon="1.26251">
        <ele>193.156289</ele>
        <time>2022-08-16T12:36:35Z</time>
      </trkpt>
      <trkpt lat="44.81124" lon="1.26251">
        <ele>193.156289</ele>
        <time>2022-08-16T12:36:39Z</time>
      </trkpt>
      <trkpt lat="44.81124" lon="1.26251">
        <ele>193.156289</ele>
        <time>2022-08-16T12:36:43Z</time>
      </trkpt>
      <trkpt lat="44.81124" lon="1.26251">
        <ele>193.156289</ele>
        <time>2022-08-16T12:36:47Z</time>
      </trkpt>
      <trkpt lat="44.81124" lon="1.26251">
        <ele>193.156289</ele>
        <time>2022-08-16T12:36:51Z</time>
      </trkpt>
      <trkpt lat="44.81124" lon="1.26251">
        <ele>193.156289</ele>
        <time>2022-08-16T12:36:55Z</time>
      </trkpt>
      <trkpt lat="44.81124" lon="1.26251">
        <ele>193.156289</ele>
        <time>2022-08-16T12:36:59Z</time>
      </trkpt>
      <trkpt lat="44.81124" lon="1.26251">
        <ele>193.156289</ele>
        <time>2022-08-16T12:37:03Z</time>
      </trkpt>
      <trkpt lat="44.81125" lon="1.26254">
        <ele>184.5940705</ele>
        <time>2022-08-16T12:37:07Z</time>
      </trkpt>
      <trkpt lat="44.81125" lon="1.26254">
        <ele>185.5702602</ele>
        <time>2022-08-16T12:37:09Z</time>
      </trkpt>
      <trkpt lat="44.81124" lon="1.26254">
        <ele>185.4000105</ele>
        <time>2022-08-16T12:37:11Z</time>
      </trkpt>
      <trkpt lat="44.81124" lon="1.26254">
        <ele>185.3292563</ele>
        <time>2022-08-16T12:37:13Z</time>
      </trkpt>
      <trkpt lat="44.81124" lon="1.26254">
        <ele>184.9947575</ele>
        <time>2022-08-16T12:37:15Z</time>
      </trkpt>
      <trkpt lat="44.81124" lon="1.26254">
        <ele>185.2377304</ele>
        <time>2022-08-16T12:37:17Z</time>
      </trkpt>
      <trkpt lat="44.81124" lon="1.26254">
        <ele>185.2020792</ele>
        <time>2022-08-16T12:37:19Z</time>
      </trkpt>
      <trkpt lat="44.81124" lon="1.26254">
        <ele>185.2243217</ele>
        <time>2022-08-16T12:37:21Z</time>
      </trkpt>
      <trkpt lat="44.81124" lon="1.26254">
        <ele>185.1886493</ele>
        <time>2022-08-16T12:37:23Z</time>
      </trkpt>
      <trkpt lat="44.81125" lon="1.26254">
        <ele>186.1412745</ele>
        <time>2022-08-16T12:37:25Z</time>
      </trkpt>
      <trkpt lat="44.81126" lon="1.26255">
        <ele>186.2646233</ele>
        <time>2022-08-16T12:37:27Z</time>
      </trkpt>
      <trkpt lat="44.81126" lon="1.26255">
        <ele>186.8774622</ele>
        <time>2022-08-16T12:37:29Z</time>
      </trkpt>
      <trkpt lat="44.81126" lon="1.26255">
        <ele>186.8691277</ele>
        <time>2022-08-16T12:37:31Z</time>
      </trkpt>
      <trkpt lat="44.81126" lon="1.26255">
        <ele>186.8691277</ele>
        <time>2022-08-16T12:37:35Z</time>
      </trkpt>
      <trkpt lat="44.81126" lon="1.26255">
        <ele>186.8691277</ele>
        <time>2022-08-16T12:37:39Z</time>
      </trkpt>
      <trkpt lat="44.81124" lon="1.26254">
        <ele>186.1309617</ele>
        <time>2022-08-16T12:37:43Z</time>
      </trkpt>
      <trkpt lat="44.81124" lon="1.26254">
        <ele>186.6681114</ele>
        <time>2022-08-16T12:37:45Z</time>
      </trkpt>
      <trkpt lat="44.81124" lon="1.26254">
        <ele>186.6167212</ele>
        <time>2022-08-16T12:37:47Z</time>
      </trkpt>
      <trkpt lat="44.81124" lon="1.26254">
        <ele>186.6140783</ele>
        <time>2022-08-16T12:37:49Z</time>
      </trkpt>
      <trkpt lat="44.81124" lon="1.26253">
        <ele>186.3214966</ele>
        <time>2022-08-16T12:37:53Z</time>
      </trkpt>
      <trkpt lat="44.81125" lon="1.26253">
        <ele>186.8135119</ele>
        <time>2022-08-16T12:37:57Z</time>
      </trkpt>
      <trkpt lat="44.81124" lon="1.26252">
        <ele>186.918779</ele>
        <time>2022-08-16T12:37:59Z</time>
      </trkpt>
      <trkpt lat="44.81124" lon="1.26252">
        <ele>187.1922248</ele>
        <time>2022-08-16T12:38:01Z</time>
      </trkpt>
      <trkpt lat="44.81124" lon="1.26251">
        <ele>187.5275099</ele>
        <time>2022-08-16T12:38:03Z</time>
      </trkpt>
      <trkpt lat="44.81123" lon="1.26251">
        <ele>188.2939916</ele>
        <time>2022-08-16T12:38:05Z</time>
      </trkpt>
      <trkpt lat="44.81122" lon="1.26251">
        <ele>189.745412</ele>
        <time>2022-08-16T12:38:09Z</time>
      </trkpt>
      <trkpt lat="44.8112" lon="1.26251">
        <ele>191.1539046</ele>
        <time>2022-08-16T12:38:11Z</time>
      </trkpt>
      <trkpt lat="44.8112" lon="1.26251">
        <ele>191.4472494</ele>
        <time>2022-08-16T12:38:13Z</time>
      </trkpt>
      <trkpt lat="44.8112" lon="1.26253">
        <ele>192.4015203</ele>
        <time>2022-08-16T12:38:15Z</time>
      </trkpt>
      <trkpt lat="44.81119" lon="1.26254">
        <ele>192.9025035</ele>
        <time>2022-08-16T12:38:17Z</time>
      </trkpt>
      <trkpt lat="44.81119" lon="1.26253">
        <ele>193.3663088</ele>
        <time>2022-08-16T12:38:19Z</time>
      </trkpt>
      <trkpt lat="44.81117" lon="1.26253">
        <ele>194.6072276</ele>
        <time>2022-08-16T12:38:21Z</time>
      </trkpt>
      <trkpt lat="44.81116" lon="1.26253">
        <ele>195.2088175</ele>
        <time>2022-08-16T12:38:23Z</time>
      </trkpt>
      <trkpt lat="44.81115" lon="1.26252">
        <ele>195.713058</ele>
        <time>2022-08-16T12:38:25Z</time>
      </trkpt>
      <trkpt lat="44.81114" lon="1.26251">
        <ele>195.8856702</ele>
        <time>2022-08-16T12:38:27Z</time>
      </trkpt>
      <trkpt lat="44.81113" lon="1.26251">
        <ele>196.5792149</ele>
        <time>2022-08-16T12:38:29Z</time>
      </trkpt>
      <trkpt lat="44.81113" lon="1.26251">
        <ele>196.597419</ele>
        <time>2022-08-16T12:38:31Z</time>
      </trkpt>
      <trkpt lat="44.81112" lon="1.2625">
        <ele>197.6207833</ele>
        <time>2022-08-16T12:38:33Z</time>
      </trkpt>
      <trkpt lat="44.81111" lon="1.26249">
        <ele>198.4043349</ele>
        <time>2022-08-16T12:38:35Z</time>
      </trkpt>
      <trkpt lat="44.81111" lon="1.26249">
        <ele>199.1645944</ele>
        <time>2022-08-16T12:38:37Z</time>
      </trkpt>
      <trkpt lat="44.81111" lon="1.26248">
        <ele>200.3016106</ele>
        <time>2022-08-16T12:38:41Z</time>
      </trkpt>
      <trkpt lat="44.81112" lon="1.26248">
        <ele>200.1417197</ele>
        <time>2022-08-16T12:38:43Z</time>
      </trkpt>
      <trkpt lat="44.81112" lon="1.26249">
        <ele>200.0256914</ele>
        <time>2022-08-16T12:38:45Z</time>
      </trkpt>
      <trkpt lat="44.81112" lon="1.26249">
        <ele>200.7662533</ele>
        <time>2022-08-16T12:38:47Z</time>
      </trkpt>
      <trkpt lat="44.81113" lon="1.26249">
        <ele>202.1088956</ele>
        <time>2022-08-16T12:38:51Z</time>
      </trkpt>
      <trkpt lat="44.81113" lon="1.26249">
        <ele>202.1088956</ele>
        <time>2022-08-16T12:38:55Z</time>
      </trkpt>
      <trkpt lat="44.81114" lon="1.26252">
        <ele>203.4439109</ele>
        <time>2022-08-16T12:38:57Z</time>
      </trkpt>
      <trkpt lat="44.81114" lon="1.26252">
        <ele>203.4426177</ele>
        <time>2022-08-16T12:38:59Z</time>
      </trkpt>
      <trkpt lat="44.81114" lon="1.26253">
        <ele>205.1753097</ele>
        <time>2022-08-16T12:39:01Z</time>
      </trkpt>
      <trkpt lat="44.81114" lon="1.26253">
        <ele>205.1753097</ele>
        <time>2022-08-16T12:39:05Z</time>
      </trkpt>
      <trkpt lat="44.81114" lon="1.26253">
        <ele>205.1753097</ele>
        <time>2022-08-16T12:39:09Z</time>
      </trkpt>
      <trkpt lat="44.81114" lon="1.26253">
        <ele>205.1753097</ele>
        <time>2022-08-16T12:39:13Z</time>
      </trkpt>
      <trkpt lat="44.8111" lon="1.26254">
        <ele>205.4123646</ele>
        <time>2022-08-16T12:39:17Z</time>
      </trkpt>
      <trkpt lat="44.8111" lon="1.26255">
        <ele>205.3508791</ele>
        <time>2022-08-16T12:39:19Z</time>
      </trkpt>
      <trkpt lat="44.8111" lon="1.26255">
        <ele>205.3381103</ele>
        <time>2022-08-16T12:39:21Z</time>
      </trkpt>
      <trkpt lat="44.8111" lon="1.26257">
        <ele>206.936396</ele>
        <time>2022-08-16T12:39:25Z</time>
      </trkpt>
      <trkpt lat="44.8111" lon="1.26257">
        <ele>207.4404608</ele>
        <time>2022-08-16T12:39:27Z</time>
      </trkpt>
      <trkpt lat="44.81111" lon="1.26257">
        <ele>206.5619986</ele>
        <time>2022-08-16T12:39:29Z</time>
      </trkpt>
      <trkpt lat="44.81111" lon="1.26257">
        <ele>206.5619986</ele>
        <time>2022-08-16T12:39:33Z</time>
      </trkpt>
      <trkpt lat="44.81111" lon="1.26257">
        <ele>206.5619986</ele>
        <time>2022-08-16T12:39:37Z</time>
      </trkpt>
      <trkpt lat="44.81109" lon="1.26257">
        <ele>203.6478192</ele>
        <time>2022-08-16T12:39:39Z</time>
      </trkpt>
      <trkpt lat="44.81109" lon="1.26257">
        <ele>203.8720221</ele>
        <time>2022-08-16T12:39:41Z</time>
      </trkpt>
      <trkpt lat="44.81109" lon="1.26257">
        <ele>203.8720221</ele>
        <time>2022-08-16T12:39:45Z</time>
      </trkpt>
      <trkpt lat="44.81109" lon="1.26257">
        <ele>203.8720221</ele>
        <time>2022-08-16T12:39:49Z</time>
      </trkpt>
      <trkpt lat="44.81109" lon="1.26257">
        <ele>203.8720221</ele>
        <time>2022-08-16T12:39:53Z</time>
      </trkpt>
      <trkpt lat="44.81109" lon="1.26257">
        <ele>203.8720221</ele>
        <time>2022-08-16T12:39:57Z</time>
      </trkpt>
      <trkpt lat="44.81113" lon="1.26253">
        <ele>193.0787934</ele>
        <time>2022-08-16T12:40:01Z</time>
      </trkpt>
      <trkpt lat="44.81113" lon="1.26253">
        <ele>192.6795534</ele>
        <time>2022-08-16T12:40:03Z</time>
      </trkpt>
      <trkpt lat="44.81113" lon="1.26253">
        <ele>192.6754815</ele>
        <time>2022-08-16T12:40:05Z</time>
      </trkpt>
      <trkpt lat="44.81113" lon="1.26251">
        <ele>190.5979028</ele>
        <time>2022-08-16T12:40:09Z</time>
      </trkpt>
      <trkpt lat="44.81113" lon="1.2625">
        <ele>188.8480552</ele>
        <time>2022-08-16T12:40:13Z</time>
      </trkpt>
      <trkpt lat="44.81114" lon="1.2625">
        <ele>189.0475863</ele>
        <time>2022-08-16T12:40:15Z</time>
      </trkpt>
      <trkpt lat="44.81115" lon="1.26251">
        <ele>187.7786767</ele>
        <time>2022-08-16T12:40:19Z</time>
      </trkpt>
      <trkpt lat="44.81116" lon="1.26251">
        <ele>188.594896</ele>
        <time>2022-08-16T12:40:21Z</time>
      </trkpt>
      <trkpt lat="44.81116" lon="1.26251">
        <ele>188.594896</ele>
        <time>2022-08-16T12:40:25Z</time>
      </trkpt>
      <trkpt lat="44.81116" lon="1.26251">
        <ele>190.0827573</ele>
        <time>2022-08-16T12:40:29Z</time>
      </trkpt>
      <trkpt lat="44.81116" lon="1.26251">
        <ele>190.0827573</ele>
        <time>2022-08-16T12:40:33Z</time>
      </trkpt>
      <trkpt lat="44.81116" lon="1.26251">
        <ele>190.0827573</ele>
        <time>2022-08-16T12:40:37Z</time>
      </trkpt>
      <trkpt lat="44.81117" lon="1.26252">
        <ele>189.1122175</ele>
        <time>2022-08-16T12:40:39Z</time>
      </trkpt>
      <trkpt lat="44.81116" lon="1.26253">
        <ele>188.1897625</ele>
        <time>2022-08-16T12:40:43Z</time>
      </trkpt>
      <trkpt lat="44.81117" lon="1.26252">
        <ele>187.6654384</ele>
        <time>2022-08-16T12:40:45Z</time>
      </trkpt>
      <trkpt lat="44.81117" lon="1.26252">
        <ele>187.6654384</ele>
        <time>2022-08-16T12:40:49Z</time>
      </trkpt>
      <trkpt lat="44.81118" lon="1.26249">
        <ele>186.9094612</ele>
        <time>2022-08-16T12:40:53Z</time>
      </trkpt>
      <trkpt lat="44.81118" lon="1.26249">
        <ele>186.932163</ele>
        <time>2022-08-16T12:40:55Z</time>
      </trkpt>
      <trkpt lat="44.81118" lon="1.26249">
        <ele>187.0837179</ele>
        <time>2022-08-16T12:40:57Z</time>
      </trkpt>
      <trkpt lat="44.81117" lon="1.26248">
        <ele>184.7855196</ele>
        <time>2022-08-16T12:41:01Z</time>
      </trkpt>
      <trkpt lat="44.81116" lon="1.26247">
        <ele>184.6228625</ele>
        <time>2022-08-16T12:41:03Z</time>
      </trkpt>
      <trkpt lat="44.81117" lon="1.26248">
        <ele>186.4455179</ele>
        <time>2022-08-16T12:41:05Z</time>
      </trkpt>
      <trkpt lat="44.81117" lon="1.26248">
        <ele>186.4455179</ele>
        <time>2022-08-16T12:41:09Z</time>
      </trkpt>
      <trkpt lat="44.81115" lon="1.2625">
        <ele>189.5830147</ele>
        <time>2022-08-16T12:41:11Z</time>
      </trkpt>
      <trkpt lat="44.81113" lon="1.2625">
        <ele>189.7540856</ele>
        <time>2022-08-16T12:41:13Z</time>
      </trkpt>
      <trkpt lat="44.81113" lon="1.26254">
        <ele>189.5740904</ele>
        <time>2022-08-16T12:41:15Z</time>
      </trkpt>
      <trkpt lat="44.81115" lon="1.26259">
        <ele>191.173603</ele>
        <time>2022-08-16T12:41:17Z</time>
      </trkpt>
      <trkpt lat="44.81117" lon="1.26264">
        <ele>192.0375543</ele>
        <time>2022-08-16T12:41:19Z</time>
      </trkpt>
      <trkpt lat="44.81118" lon="1.26267">
        <ele>192.6631983</ele>
        <time>2022-08-16T12:41:21Z</time>
      </trkpt>
      <trkpt lat="44.81119" lon="1.26272">
        <ele>193.2745718</ele>
        <time>2022-08-16T12:41:23Z</time>
      </trkpt>
      <trkpt lat="44.81121" lon="1.26277">
        <ele>193.9943754</ele>
        <time>2022-08-16T12:41:25Z</time>
      </trkpt>
      <trkpt lat="44.81122" lon="1.26283">
        <ele>195.389601</ele>
        <time>2022-08-16T12:41:27Z</time>
      </trkpt>
      <trkpt lat="44.81122" lon="1.26289">
        <ele>195.2090113</ele>
        <time>2022-08-16T12:41:29Z</time>
      </trkpt>
      <trkpt lat="44.81121" lon="1.26294">
        <ele>195.2049369</ele>
        <time>2022-08-16T12:41:31Z</time>
      </trkpt>
      <trkpt lat="44.81119" lon="1.26298">
        <ele>196.281418</ele>
        <time>2022-08-16T12:41:33Z</time>
      </trkpt>
      <trkpt lat="44.81116" lon="1.26302">
        <ele>195.9272396</ele>
        <time>2022-08-16T12:41:35Z</time>
      </trkpt>
      <trkpt lat="44.81113" lon="1.26304">
        <ele>196.5067774</ele>
        <time>2022-08-16T12:41:37Z</time>
      </trkpt>
      <trkpt lat="44.81111" lon="1.26307">
        <ele>197.6142179</ele>
        <time>2022-08-16T12:41:39Z</time>
      </trkpt>
      <trkpt lat="44.81108" lon="1.26308">
        <ele>197.6650686</ele>
        <time>2022-08-16T12:41:41Z</time>
      </trkpt>
      <trkpt lat="44.81106" lon="1.26311">
        <ele>197.9391357</ele>
        <time>2022-08-16T12:41:43Z</time>
      </trkpt>
      <trkpt lat="44.81103" lon="1.26314">
        <ele>199.0375972</ele>
        <time>2022-08-16T12:41:45Z</time>
      </trkpt>
      <trkpt lat="44.81101" lon="1.26316">
        <ele>198.0488759</ele>
        <time>2022-08-16T12:41:47Z</time>
      </trkpt>
      <trkpt lat="44.81098" lon="1.26319">
        <ele>198.9585889</ele>
        <time>2022-08-16T12:41:49Z</time>
      </trkpt>
      <trkpt lat="44.81097" lon="1.26322">
        <ele>198.830038</ele>
        <time>2022-08-16T12:41:51Z</time>
      </trkpt>
      <trkpt lat="44.81095" lon="1.26327">
        <ele>199.1381646</ele>
        <time>2022-08-16T12:41:53Z</time>
      </trkpt>
      <trkpt lat="44.81093" lon="1.2633">
        <ele>200.3193856</ele>
        <time>2022-08-16T12:41:55Z</time>
      </trkpt>
      <trkpt lat="44.81091" lon="1.26334">
        <ele>201.5900461</ele>
        <time>2022-08-16T12:41:57Z</time>
      </trkpt>
      <trkpt lat="44.81089" lon="1.26339">
        <ele>200.4285542</ele>
        <time>2022-08-16T12:41:59Z</time>
      </trkpt>
      <trkpt lat="44.81087" lon="1.26345">
        <ele>202.5338379</ele>
        <time>2022-08-16T12:42:01Z</time>
      </trkpt>
      <trkpt lat="44.81085" lon="1.26352">
        <ele>202.1576885</ele>
        <time>2022-08-16T12:42:03Z</time>
      </trkpt>
      <trkpt lat="44.81082" lon="1.26355">
        <ele>203.0845883</ele>
        <time>2022-08-16T12:42:05Z</time>
      </trkpt>
      <trkpt lat="44.81081" lon="1.2636">
        <ele>203.2243748</ele>
        <time>2022-08-16T12:42:07Z</time>
      </trkpt>
      <trkpt lat="44.81079" lon="1.26365">
        <ele>203.6903869</ele>
        <time>2022-08-16T12:42:09Z</time>
      </trkpt>
      <trkpt lat="44.81077" lon="1.26373">
        <ele>204.2695541</ele>
        <time>2022-08-16T12:42:11Z</time>
      </trkpt>
      <trkpt lat="44.81076" lon="1.26377">
        <ele>205.4244454</ele>
        <time>2022-08-16T12:42:13Z</time>
      </trkpt>
      <trkpt lat="44.81075" lon="1.26383">
        <ele>205.4479672</ele>
        <time>2022-08-16T12:42:15Z</time>
      </trkpt>
      <trkpt lat="44.81074" lon="1.26388">
        <ele>205.1814573</ele>
        <time>2022-08-16T12:42:17Z</time>
      </trkpt>
      <trkpt lat="44.81075" lon="1.26394">
        <ele>205.920518</ele>
        <time>2022-08-16T12:42:19Z</time>
      </trkpt>
      <trkpt lat="44.81074" lon="1.26398">
        <ele>205.8380919</ele>
        <time>2022-08-16T12:42:21Z</time>
      </trkpt>
      <trkpt lat="44.81075" lon="1.26403">
        <ele>205.6559161</ele>
        <time>2022-08-16T12:42:23Z</time>
      </trkpt>
      <trkpt lat="44.81076" lon="1.26408">
        <ele>204.9609799</ele>
        <time>2022-08-16T12:42:25Z</time>
      </trkpt>
      <trkpt lat="44.81075" lon="1.26413">
        <ele>206.8281202</ele>
        <time>2022-08-16T12:42:27Z</time>
      </trkpt>
      <trkpt lat="44.81076" lon="1.26419">
        <ele>206.0506193</ele>
        <time>2022-08-16T12:42:29Z</time>
      </trkpt>
      <trkpt lat="44.81076" lon="1.26424">
        <ele>205.9322229</ele>
        <time>2022-08-16T12:42:31Z</time>
      </trkpt>
      <trkpt lat="44.81077" lon="1.26429">
        <ele>207.3403718</ele>
        <time>2022-08-16T12:42:33Z</time>
      </trkpt>
      <trkpt lat="44.81078" lon="1.26432">
        <ele>208.7208374</ele>
        <time>2022-08-16T12:42:35Z</time>
      </trkpt>
      <trkpt lat="44.81078" lon="1.26438">
        <ele>208.8436651</ele>
        <time>2022-08-16T12:42:37Z</time>
      </trkpt>
      <trkpt lat="44.81079" lon="1.26443">
        <ele>207.953768</ele>
        <time>2022-08-16T12:42:39Z</time>
      </trkpt>
      <trkpt lat="44.81081" lon="1.26448">
        <ele>209.69823</ele>
        <time>2022-08-16T12:42:41Z</time>
      </trkpt>
      <trkpt lat="44.81083" lon="1.26454">
        <ele>210.2548079</ele>
        <time>2022-08-16T12:42:43Z</time>
      </trkpt>
      <trkpt lat="44.81085" lon="1.26459">
        <ele>210.2368215</ele>
        <time>2022-08-16T12:42:45Z</time>
      </trkpt>
      <trkpt lat="44.81086" lon="1.26466">
        <ele>210.8461463</ele>
        <time>2022-08-16T12:42:47Z</time>
      </trkpt>
      <trkpt lat="44.81088" lon="1.26471">
        <ele>211.1457184</ele>
        <time>2022-08-16T12:42:49Z</time>
      </trkpt>
      <trkpt lat="44.8109" lon="1.26477">
        <ele>210.9574659</ele>
        <time>2022-08-16T12:42:51Z</time>
      </trkpt>
      <trkpt lat="44.81091" lon="1.26482">
        <ele>212.7011646</ele>
        <time>2022-08-16T12:42:53Z</time>
      </trkpt>
      <trkpt lat="44.81091" lon="1.26488">
        <ele>212.5303401</ele>
        <time>2022-08-16T12:42:55Z</time>
      </trkpt>
      <trkpt lat="44.81091" lon="1.26496">
        <ele>211.9024393</ele>
        <time>2022-08-16T12:42:57Z</time>
      </trkpt>
      <trkpt lat="44.81091" lon="1.26499">
        <ele>214.2449595</ele>
        <time>2022-08-16T12:42:59Z</time>
      </trkpt>
      <trkpt lat="44.81091" lon="1.26505">
        <ele>212.6091338</ele>
        <time>2022-08-16T12:43:01Z</time>
      </trkpt>
      <trkpt lat="44.81091" lon="1.26511">
        <ele>213.4258295</ele>
        <time>2022-08-16T12:43:03Z</time>
      </trkpt>
      <trkpt lat="44.81092" lon="1.26516">
        <ele>211.5745914</ele>
        <time>2022-08-16T12:43:05Z</time>
      </trkpt>
      <trkpt lat="44.81092" lon="1.2652">
        <ele>213.1039449</ele>
        <time>2022-08-16T12:43:07Z</time>
      </trkpt>
      <trkpt lat="44.81091" lon="1.26524">
        <ele>213.9247206</ele>
        <time>2022-08-16T12:43:09Z</time>
      </trkpt>
      <trkpt lat="44.81091" lon="1.26528">
        <ele>214.83679</ele>
        <time>2022-08-16T12:43:11Z</time>
      </trkpt>
      <trkpt lat="44.81093" lon="1.26534">
        <ele>213.5369997</ele>
        <time>2022-08-16T12:43:13Z</time>
      </trkpt>
      <trkpt lat="44.81093" lon="1.26541">
        <ele>213.8640734</ele>
        <time>2022-08-16T12:43:15Z</time>
      </trkpt>
      <trkpt lat="44.81094" lon="1.26548">
        <ele>212.0653971</ele>
        <time>2022-08-16T12:43:17Z</time>
      </trkpt>
      <trkpt lat="44.81095" lon="1.26554">
        <ele>212.4206989</ele>
        <time>2022-08-16T12:43:19Z</time>
      </trkpt>
      <trkpt lat="44.81096" lon="1.26561">
        <ele>211.6505512</ele>
        <time>2022-08-16T12:43:21Z</time>
      </trkpt>
      <trkpt lat="44.81096" lon="1.26567">
        <ele>212.0446688</ele>
        <time>2022-08-16T12:43:23Z</time>
      </trkpt>
      <trkpt lat="44.81094" lon="1.26572">
        <ele>213.3673332</ele>
        <time>2022-08-16T12:43:25Z</time>
      </trkpt>
      <trkpt lat="44.81093" lon="1.26577">
        <ele>213.1090354</ele>
        <time>2022-08-16T12:43:27Z</time>
      </trkpt>
      <trkpt lat="44.81091" lon="1.26582">
        <ele>214.1776261</ele>
        <time>2022-08-16T12:43:29Z</time>
      </trkpt>
      <trkpt lat="44.81089" lon="1.26585">
        <ele>214.6835032</ele>
        <time>2022-08-16T12:43:31Z</time>
      </trkpt>
      <trkpt lat="44.81087" lon="1.2659">
        <ele>213.1819984</ele>
        <time>2022-08-16T12:43:33Z</time>
      </trkpt>
      <trkpt lat="44.81083" lon="1.26593">
        <ele>213.4062787</ele>
        <time>2022-08-16T12:43:35Z</time>
      </trkpt>
      <trkpt lat="44.81078" lon="1.26596">
        <ele>213.4857684</ele>
        <time>2022-08-16T12:43:37Z</time>
      </trkpt>
      <trkpt lat="44.81075" lon="1.26597">
        <ele>213.5908666</ele>
        <time>2022-08-16T12:43:39Z</time>
      </trkpt>
      <trkpt lat="44.81073" lon="1.266">
        <ele>213.2788125</ele>
        <time>2022-08-16T12:43:41Z</time>
      </trkpt>
      <trkpt lat="44.81069" lon="1.26601">
        <ele>214.2766617</ele>
        <time>2022-08-16T12:43:43Z</time>
      </trkpt>
      <trkpt lat="44.81066" lon="1.26602">
        <ele>214.2514837</ele>
        <time>2022-08-16T12:43:45Z</time>
      </trkpt>
      <trkpt lat="44.81065" lon="1.26603">
        <ele>213.9894683</ele>
        <time>2022-08-16T12:43:47Z</time>
      </trkpt>
      <trkpt lat="44.81065" lon="1.26603">
        <ele>214.8290259</ele>
        <time>2022-08-16T12:43:49Z</time>
      </trkpt>
      <trkpt lat="44.81065" lon="1.26603">
        <ele>214.2591239</ele>
        <time>2022-08-16T12:43:51Z</time>
      </trkpt>
      <trkpt lat="44.81065" lon="1.26603">
        <ele>214.2591239</ele>
        <time>2022-08-16T12:43:55Z</time>
      </trkpt>
      <trkpt lat="44.81065" lon="1.26605">
        <ele>213.215325</ele>
        <time>2022-08-16T12:43:57Z</time>
      </trkpt>
      <trkpt lat="44.81064" lon="1.26606">
        <ele>212.4284003</ele>
        <time>2022-08-16T12:43:59Z</time>
      </trkpt>
      <trkpt lat="44.81063" lon="1.26605">
        <ele>212.8045794</ele>
        <time>2022-08-16T12:44:01Z</time>
      </trkpt>
      <trkpt lat="44.81063" lon="1.26608">
        <ele>212.770628</ele>
        <time>2022-08-16T12:44:03Z</time>
      </trkpt>
      <trkpt lat="44.8106" lon="1.2661">
        <ele>213.0361319</ele>
        <time>2022-08-16T12:44:05Z</time>
      </trkpt>
      <trkpt lat="44.81057" lon="1.26612">
        <ele>213.1209269</ele>
        <time>2022-08-16T12:44:07Z</time>
      </trkpt>
      <trkpt lat="44.81054" lon="1.26614">
        <ele>213.5994653</ele>
        <time>2022-08-16T12:44:09Z</time>
      </trkpt>
      <trkpt lat="44.8105" lon="1.26615">
        <ele>213.3270951</ele>
        <time>2022-08-16T12:44:11Z</time>
      </trkpt>
      <trkpt lat="44.81047" lon="1.26617">
        <ele>213.7653778</ele>
        <time>2022-08-16T12:44:13Z</time>
      </trkpt>
      <trkpt lat="44.81044" lon="1.2662">
        <ele>212.7278656</ele>
        <time>2022-08-16T12:44:15Z</time>
      </trkpt>
      <trkpt lat="44.81041" lon="1.26624">
        <ele>213.032051</ele>
        <time>2022-08-16T12:44:17Z</time>
      </trkpt>
      <trkpt lat="44.81037" lon="1.26627">
        <ele>212.855044</ele>
        <time>2022-08-16T12:44:19Z</time>
      </trkpt>
      <trkpt lat="44.81034" lon="1.2663">
        <ele>211.8194567</ele>
        <time>2022-08-16T12:44:21Z</time>
      </trkpt>
      <trkpt lat="44.81032" lon="1.26635">
        <ele>211.5629522</ele>
        <time>2022-08-16T12:44:23Z</time>
      </trkpt>
      <trkpt lat="44.8103" lon="1.2664">
        <ele>211.158628</ele>
        <time>2022-08-16T12:44:25Z</time>
      </trkpt>
      <trkpt lat="44.81028" lon="1.26644">
        <ele>211.1317561</ele>
        <time>2022-08-16T12:44:27Z</time>
      </trkpt>
      <trkpt lat="44.81026" lon="1.26649">
        <ele>211.2379621</ele>
        <time>2022-08-16T12:44:29Z</time>
      </trkpt>
      <trkpt lat="44.81024" lon="1.26653">
        <ele>211.3406703</ele>
        <time>2022-08-16T12:44:31Z</time>
      </trkpt>
      <trkpt lat="44.81021" lon="1.26658">
        <ele>211.4541702</ele>
        <time>2022-08-16T12:44:33Z</time>
      </trkpt>
      <trkpt lat="44.8102" lon="1.26663">
        <ele>211.9548536</ele>
        <time>2022-08-16T12:44:35Z</time>
      </trkpt>
      <trkpt lat="44.81019" lon="1.26668">
        <ele>212.7464812</ele>
        <time>2022-08-16T12:44:37Z</time>
      </trkpt>
      <trkpt lat="44.81018" lon="1.26673">
        <ele>212.7238023</ele>
        <time>2022-08-16T12:44:39Z</time>
      </trkpt>
      <trkpt lat="44.81017" lon="1.26679">
        <ele>213.4577879</ele>
        <time>2022-08-16T12:44:41Z</time>
      </trkpt>
      <trkpt lat="44.81016" lon="1.26684">
        <ele>213.9369657</ele>
        <time>2022-08-16T12:44:43Z</time>
      </trkpt>
      <trkpt lat="44.81015" lon="1.26689">
        <ele>213.854334</ele>
        <time>2022-08-16T12:44:45Z</time>
      </trkpt>
      <trkpt lat="44.81015" lon="1.26693">
        <ele>214.3108144</ele>
        <time>2022-08-16T12:44:47Z</time>
      </trkpt>
      <trkpt lat="44.81013" lon="1.267">
        <ele>214.6595746</ele>
        <time>2022-08-16T12:44:49Z</time>
      </trkpt>
      <trkpt lat="44.81012" lon="1.26706">
        <ele>214.9636141</ele>
        <time>2022-08-16T12:44:51Z</time>
      </trkpt>
      <trkpt lat="44.81012" lon="1.26711">
        <ele>215.9446934</ele>
        <time>2022-08-16T12:44:53Z</time>
      </trkpt>
      <trkpt lat="44.81011" lon="1.26717">
        <ele>216.0120478</ele>
        <time>2022-08-16T12:44:55Z</time>
      </trkpt>
      <trkpt lat="44.8101" lon="1.26723">
        <ele>215.6640161</ele>
        <time>2022-08-16T12:44:57Z</time>
      </trkpt>
      <trkpt lat="44.81009" lon="1.26729">
        <ele>215.7800609</ele>
        <time>2022-08-16T12:44:59Z</time>
      </trkpt>
      <trkpt lat="44.81009" lon="1.26734">
        <ele>215.5626441</ele>
        <time>2022-08-16T12:45:01Z</time>
      </trkpt>
      <trkpt lat="44.81008" lon="1.26741">
        <ele>216.5564304</ele>
        <time>2022-08-16T12:45:03Z</time>
      </trkpt>
      <trkpt lat="44.81007" lon="1.26746">
        <ele>216.2108814</ele>
        <time>2022-08-16T12:45:05Z</time>
      </trkpt>
      <trkpt lat="44.81007" lon="1.26752">
        <ele>216.703708</ele>
        <time>2022-08-16T12:45:07Z</time>
      </trkpt>
      <trkpt lat="44.81006" lon="1.26758">
        <ele>217.5445272</ele>
        <time>2022-08-16T12:45:09Z</time>
      </trkpt>
      <trkpt lat="44.81004" lon="1.26764">
        <ele>217.7266774</ele>
        <time>2022-08-16T12:45:11Z</time>
      </trkpt>
      <trkpt lat="44.81002" lon="1.26769">
        <ele>217.5769799</ele>
        <time>2022-08-16T12:45:13Z</time>
      </trkpt>
      <trkpt lat="44.81001" lon="1.26775">
        <ele>218.4186819</ele>
        <time>2022-08-16T12:45:15Z</time>
      </trkpt>
      <trkpt lat="44.80999" lon="1.2678">
        <ele>218.9027199</ele>
        <time>2022-08-16T12:45:17Z</time>
      </trkpt>
      <trkpt lat="44.80996" lon="1.26783">
        <ele>219.5781306</ele>
        <time>2022-08-16T12:45:19Z</time>
      </trkpt>
      <trkpt lat="44.80993" lon="1.26788">
        <ele>219.7754746</ele>
        <time>2022-08-16T12:45:21Z</time>
      </trkpt>
      <trkpt lat="44.8099" lon="1.26791">
        <ele>220.0431784</ele>
        <time>2022-08-16T12:45:23Z</time>
      </trkpt>
      <trkpt lat="44.80986" lon="1.26793">
        <ele>219.7173559</ele>
        <time>2022-08-16T12:45:25Z</time>
      </trkpt>
      <trkpt lat="44.80982" lon="1.26795">
        <ele>218.7300225</ele>
        <time>2022-08-16T12:45:27Z</time>
      </trkpt>
      <trkpt lat="44.80977" lon="1.26795">
        <ele>219.1971043</ele>
        <time>2022-08-16T12:45:29Z</time>
      </trkpt>
      <trkpt lat="44.80974" lon="1.26795">
        <ele>218.2436583</ele>
        <time>2022-08-16T12:45:31Z</time>
      </trkpt>
      <trkpt lat="44.8097" lon="1.26793">
        <ele>218.791774</ele>
        <time>2022-08-16T12:45:33Z</time>
      </trkpt>
      <trkpt lat="44.80966" lon="1.26791">
        <ele>218.5924056</ele>
        <time>2022-08-16T12:45:35Z</time>
      </trkpt>
      <trkpt lat="44.80962" lon="1.26789">
        <ele>218.5972284</ele>
        <time>2022-08-16T12:45:37Z</time>
      </trkpt>
      <trkpt lat="44.80959" lon="1.26786">
        <ele>218.6337135</ele>
        <time>2022-08-16T12:45:39Z</time>
      </trkpt>
      <trkpt lat="44.80955" lon="1.26782">
        <ele>219.3974512</ele>
        <time>2022-08-16T12:45:41Z</time>
      </trkpt>
      <trkpt lat="44.80952" lon="1.26779">
        <ele>219.0479477</ele>
        <time>2022-08-16T12:45:43Z</time>
      </trkpt>
      <trkpt lat="44.80949" lon="1.26775">
        <ele>219.2434962</ele>
        <time>2022-08-16T12:45:45Z</time>
      </trkpt>
      <trkpt lat="44.80946" lon="1.26772">
        <ele>219.9390504</ele>
        <time>2022-08-16T12:45:47Z</time>
      </trkpt>
      <trkpt lat="44.80942" lon="1.26767">
        <ele>220.1684367</ele>
        <time>2022-08-16T12:45:49Z</time>
      </trkpt>
      <trkpt lat="44.80939" lon="1.26765">
        <ele>220.0901966</ele>
        <time>2022-08-16T12:45:51Z</time>
      </trkpt>
      <trkpt lat="44.80935" lon="1.26762">
        <ele>219.8955262</ele>
        <time>2022-08-16T12:45:53Z</time>
      </trkpt>
      <trkpt lat="44.80931" lon="1.2676">
        <ele>220.0656451</ele>
        <time>2022-08-16T12:45:55Z</time>
      </trkpt>
      <trkpt lat="44.80927" lon="1.26759">
        <ele>220.0585418</ele>
        <time>2022-08-16T12:45:57Z</time>
      </trkpt>
      <trkpt lat="44.80923" lon="1.26758">
        <ele>220.7451788</ele>
        <time>2022-08-16T12:45:59Z</time>
      </trkpt>
      <trkpt lat="44.80919" lon="1.26759">
        <ele>220.7354091</ele>
        <time>2022-08-16T12:46:01Z</time>
      </trkpt>
      <trkpt lat="44.80915" lon="1.26761">
        <ele>220.8836233</ele>
        <time>2022-08-16T12:46:03Z</time>
      </trkpt>
      <trkpt lat="44.80912" lon="1.26763">
        <ele>220.8084462</ele>
        <time>2022-08-16T12:46:05Z</time>
      </trkpt>
      <trkpt lat="44.80909" lon="1.26767">
        <ele>222.1095536</ele>
        <time>2022-08-16T12:46:07Z</time>
      </trkpt>
      <trkpt lat="44.80906" lon="1.26771">
        <ele>221.8496965</ele>
        <time>2022-08-16T12:46:09Z</time>
      </trkpt>
      <trkpt lat="44.80905" lon="1.26776">
        <ele>222.8456883</ele>
        <time>2022-08-16T12:46:11Z</time>
      </trkpt>
      <trkpt lat="44.80904" lon="1.26782">
        <ele>223.0976257</ele>
        <time>2022-08-16T12:46:13Z</time>
      </trkpt>
      <trkpt lat="44.80905" lon="1.26788">
        <ele>223.5097002</ele>
        <time>2022-08-16T12:46:15Z</time>
      </trkpt>
      <trkpt lat="44.80905" lon="1.26793">
        <ele>224.5611746</ele>
        <time>2022-08-16T12:46:17Z</time>
      </trkpt>
      <trkpt lat="44.80907" lon="1.26798">
        <ele>225.5381111</ele>
        <time>2022-08-16T12:46:19Z</time>
      </trkpt>
      <trkpt lat="44.8091" lon="1.26802">
        <ele>226.3222186</ele>
        <time>2022-08-16T12:46:21Z</time>
      </trkpt>
      <trkpt lat="44.80913" lon="1.26806">
        <ele>226.5196998</ele>
        <time>2022-08-16T12:46:23Z</time>
      </trkpt>
      <trkpt lat="44.80916" lon="1.26809">
        <ele>226.6179739</ele>
        <time>2022-08-16T12:46:25Z</time>
      </trkpt>
      <trkpt lat="44.80919" lon="1.26813">
        <ele>226.983677</ele>
        <time>2022-08-16T12:46:27Z</time>
      </trkpt>
      <trkpt lat="44.80922" lon="1.26817">
        <ele>227.4664088</ele>
        <time>2022-08-16T12:46:29Z</time>
      </trkpt>
      <trkpt lat="44.80925" lon="1.2682">
        <ele>227.6463521</ele>
        <time>2022-08-16T12:46:31Z</time>
      </trkpt>
      <trkpt lat="44.80928" lon="1.26825">
        <ele>227.7797686</ele>
        <time>2022-08-16T12:46:33Z</time>
      </trkpt>
      <trkpt lat="44.8093" lon="1.26829">
        <ele>228.0052959</ele>
        <time>2022-08-16T12:46:35Z</time>
      </trkpt>
      <trkpt lat="44.80931" lon="1.26833">
        <ele>228.5260501</ele>
        <time>2022-08-16T12:46:37Z</time>
      </trkpt>
      <trkpt lat="44.80933" lon="1.26838">
        <ele>227.9891659</ele>
        <time>2022-08-16T12:46:39Z</time>
      </trkpt>
      <trkpt lat="44.80935" lon="1.26843">
        <ele>227.9423112</ele>
        <time>2022-08-16T12:46:41Z</time>
      </trkpt>
      <trkpt lat="44.80936" lon="1.26849">
        <ele>229.3553231</ele>
        <time>2022-08-16T12:46:43Z</time>
      </trkpt>
      <trkpt lat="44.80938" lon="1.26853">
        <ele>228.4091942</ele>
        <time>2022-08-16T12:46:45Z</time>
      </trkpt>
      <trkpt lat="44.80938" lon="1.26859">
        <ele>229.464379</ele>
        <time>2022-08-16T12:46:47Z</time>
      </trkpt>
      <trkpt lat="44.80938" lon="1.26865">
        <ele>229.6593207</ele>
        <time>2022-08-16T12:46:49Z</time>
      </trkpt>
      <trkpt lat="44.80939" lon="1.26871">
        <ele>230.2050829</ele>
        <time>2022-08-16T12:46:51Z</time>
      </trkpt>
      <trkpt lat="44.80939" lon="1.26877">
        <ele>230.2866052</ele>
        <time>2022-08-16T12:46:53Z</time>
      </trkpt>
      <trkpt lat="44.80939" lon="1.26883">
        <ele>230.5500584</ele>
        <time>2022-08-16T12:46:55Z</time>
      </trkpt>
      <trkpt lat="44.80939" lon="1.26888">
        <ele>231.4455944</ele>
        <time>2022-08-16T12:46:57Z</time>
      </trkpt>
      <trkpt lat="44.8094" lon="1.26894">
        <ele>231.1127026</ele>
        <time>2022-08-16T12:46:59Z</time>
      </trkpt>
      <trkpt lat="44.8094" lon="1.269">
        <ele>232.2181165</ele>
        <time>2022-08-16T12:47:01Z</time>
      </trkpt>
      <trkpt lat="44.80941" lon="1.26905">
        <ele>232.4484894</ele>
        <time>2022-08-16T12:47:03Z</time>
      </trkpt>
      <trkpt lat="44.80941" lon="1.26911">
        <ele>233.0800495</ele>
        <time>2022-08-16T12:47:05Z</time>
      </trkpt>
      <trkpt lat="44.8094" lon="1.26916">
        <ele>233.2848199</ele>
        <time>2022-08-16T12:47:07Z</time>
      </trkpt>
      <trkpt lat="44.8094" lon="1.26921">
        <ele>234.1182297</ele>
        <time>2022-08-16T12:47:09Z</time>
      </trkpt>
      <trkpt lat="44.80939" lon="1.26927">
        <ele>234.2668063</ele>
        <time>2022-08-16T12:47:11Z</time>
      </trkpt>
      <trkpt lat="44.80938" lon="1.26932">
        <ele>234.7066153</ele>
        <time>2022-08-16T12:47:13Z</time>
      </trkpt>
      <trkpt lat="44.80937" lon="1.26938">
        <ele>235.4703633</ele>
        <time>2022-08-16T12:47:15Z</time>
      </trkpt>
      <trkpt lat="44.80936" lon="1.26944">
        <ele>235.1630386</ele>
        <time>2022-08-16T12:47:17Z</time>
      </trkpt>
      <trkpt lat="44.80934" lon="1.26949">
        <ele>234.6966266</ele>
        <time>2022-08-16T12:47:19Z</time>
      </trkpt>
      <trkpt lat="44.80931" lon="1.26954">
        <ele>234.4261387</ele>
        <time>2022-08-16T12:47:21Z</time>
      </trkpt>
      <trkpt lat="44.8093" lon="1.2696">
        <ele>234.340285</ele>
        <time>2022-08-16T12:47:23Z</time>
      </trkpt>
      <trkpt lat="44.80927" lon="1.26966">
        <ele>233.7065449</ele>
        <time>2022-08-16T12:47:25Z</time>
      </trkpt>
      <trkpt lat="44.80924" lon="1.26971">
        <ele>232.6984377</ele>
        <time>2022-08-16T12:47:27Z</time>
      </trkpt>
      <trkpt lat="44.8092" lon="1.26976">
        <ele>233.4581973</ele>
        <time>2022-08-16T12:47:29Z</time>
      </trkpt>
      <trkpt lat="44.80918" lon="1.26982">
        <ele>233.9983175</ele>
        <time>2022-08-16T12:47:31Z</time>
      </trkpt>
      <trkpt lat="44.80916" lon="1.26987">
        <ele>234.1281704</ele>
        <time>2022-08-16T12:47:33Z</time>
      </trkpt>
      <trkpt lat="44.80913" lon="1.26992">
        <ele>234.3258242</ele>
        <time>2022-08-16T12:47:35Z</time>
      </trkpt>
      <trkpt lat="44.80912" lon="1.26995">
        <ele>233.9823241</ele>
        <time>2022-08-16T12:47:37Z</time>
      </trkpt>
      <trkpt lat="44.80908" lon="1.27">
        <ele>234.2188684</ele>
        <time>2022-08-16T12:47:39Z</time>
      </trkpt>
      <trkpt lat="44.80905" lon="1.27005">
        <ele>234.4575359</ele>
        <time>2022-08-16T12:47:41Z</time>
      </trkpt>
      <trkpt lat="44.80903" lon="1.2701">
        <ele>233.4289813</ele>
        <time>2022-08-16T12:47:43Z</time>
      </trkpt>
      <trkpt lat="44.80901" lon="1.27018">
        <ele>233.8431833</ele>
        <time>2022-08-16T12:47:45Z</time>
      </trkpt>
      <trkpt lat="44.80899" lon="1.27024">
        <ele>232.9860005</ele>
        <time>2022-08-16T12:47:47Z</time>
      </trkpt>
      <trkpt lat="44.80897" lon="1.27029">
        <ele>233.3797656</ele>
        <time>2022-08-16T12:47:49Z</time>
      </trkpt>
      <trkpt lat="44.80896" lon="1.27036">
        <ele>233.386667</ele>
        <time>2022-08-16T12:47:51Z</time>
      </trkpt>
      <trkpt lat="44.80894" lon="1.27043">
        <ele>232.4016763</ele>
        <time>2022-08-16T12:47:53Z</time>
      </trkpt>
      <trkpt lat="44.80891" lon="1.2705">
        <ele>233.6779096</ele>
        <time>2022-08-16T12:47:55Z</time>
      </trkpt>
      <trkpt lat="44.80891" lon="1.27057">
        <ele>232.7435233</ele>
        <time>2022-08-16T12:47:57Z</time>
      </trkpt>
      <trkpt lat="44.80889" lon="1.27063">
        <ele>233.4478644</ele>
        <time>2022-08-16T12:47:59Z</time>
      </trkpt>
      <trkpt lat="44.80888" lon="1.27069">
        <ele>232.8405076</ele>
        <time>2022-08-16T12:48:01Z</time>
      </trkpt>
      <trkpt lat="44.80886" lon="1.27074">
        <ele>234.9428405</ele>
        <time>2022-08-16T12:48:03Z</time>
      </trkpt>
      <trkpt lat="44.80885" lon="1.2708">
        <ele>234.1304911</ele>
        <time>2022-08-16T12:48:05Z</time>
      </trkpt>
      <trkpt lat="44.80884" lon="1.27086">
        <ele>233.8991656</ele>
        <time>2022-08-16T12:48:07Z</time>
      </trkpt>
      <trkpt lat="44.80883" lon="1.2709">
        <ele>233.4425226</ele>
        <time>2022-08-16T12:48:09Z</time>
      </trkpt>
      <trkpt lat="44.80882" lon="1.27096">
        <ele>233.7135419</ele>
        <time>2022-08-16T12:48:11Z</time>
      </trkpt>
      <trkpt lat="44.80881" lon="1.27104">
        <ele>234.073041</ele>
        <time>2022-08-16T12:48:13Z</time>
      </trkpt>
      <trkpt lat="44.80879" lon="1.27111">
        <ele>233.2003367</ele>
        <time>2022-08-16T12:48:15Z</time>
      </trkpt>
      <trkpt lat="44.80878" lon="1.27119">
        <ele>232.9450267</ele>
        <time>2022-08-16T12:48:17Z</time>
      </trkpt>
      <trkpt lat="44.80876" lon="1.27127">
        <ele>232.514227</ele>
        <time>2022-08-16T12:48:19Z</time>
      </trkpt>
      <trkpt lat="44.80875" lon="1.27135">
        <ele>232.0343366</ele>
        <time>2022-08-16T12:48:21Z</time>
      </trkpt>
      <trkpt lat="44.80874" lon="1.27144">
        <ele>231.2697724</ele>
        <time>2022-08-16T12:48:23Z</time>
      </trkpt>
      <trkpt lat="44.80872" lon="1.27152">
        <ele>231.1078863</ele>
        <time>2022-08-16T12:48:25Z</time>
      </trkpt>
      <trkpt lat="44.80871" lon="1.27161">
        <ele>230.4766028</ele>
        <time>2022-08-16T12:48:27Z</time>
      </trkpt>
      <trkpt lat="44.80869" lon="1.27169">
        <ele>229.9442622</ele>
        <time>2022-08-16T12:48:29Z</time>
      </trkpt>
      <trkpt lat="44.80867" lon="1.27177">
        <ele>229.0106221</ele>
        <time>2022-08-16T12:48:31Z</time>
      </trkpt>
      <trkpt lat="44.80865" lon="1.27185">
        <ele>228.4885386</ele>
        <time>2022-08-16T12:48:33Z</time>
      </trkpt>
      <trkpt lat="44.80864" lon="1.27194">
        <ele>228.3900399</ele>
        <time>2022-08-16T12:48:35Z</time>
      </trkpt>
      <trkpt lat="44.80862" lon="1.27203">
        <ele>227.7197322</ele>
        <time>2022-08-16T12:48:37Z</time>
      </trkpt>
      <trkpt lat="44.8086" lon="1.27212">
        <ele>228.0717852</ele>
        <time>2022-08-16T12:48:39Z</time>
      </trkpt>
      <trkpt lat="44.80858" lon="1.27221">
        <ele>227.8073356</ele>
        <time>2022-08-16T12:48:41Z</time>
      </trkpt>
      <trkpt lat="44.80856" lon="1.2723">
        <ele>227.6465536</ele>
        <time>2022-08-16T12:48:43Z</time>
      </trkpt>
      <trkpt lat="44.80853" lon="1.27239">
        <ele>227.1184646</ele>
        <time>2022-08-16T12:48:45Z</time>
      </trkpt>
      <trkpt lat="44.80851" lon="1.27246">
        <ele>226.6817095</ele>
        <time>2022-08-16T12:48:47Z</time>
      </trkpt>
      <trkpt lat="44.8085" lon="1.27254">
        <ele>227.1177152</ele>
        <time>2022-08-16T12:48:49Z</time>
      </trkpt>
      <trkpt lat="44.8085" lon="1.27263">
        <ele>226.6303402</ele>
        <time>2022-08-16T12:48:51Z</time>
      </trkpt>
      <trkpt lat="44.8085" lon="1.27271">
        <ele>226.1413957</ele>
        <time>2022-08-16T12:48:53Z</time>
      </trkpt>
      <trkpt lat="44.8085" lon="1.27279">
        <ele>225.6818989</ele>
        <time>2022-08-16T12:48:55Z</time>
      </trkpt>
      <trkpt lat="44.80848" lon="1.27285">
        <ele>224.8007593</ele>
        <time>2022-08-16T12:48:57Z</time>
      </trkpt>
      <trkpt lat="44.80846" lon="1.27289">
        <ele>224.4917239</ele>
        <time>2022-08-16T12:48:59Z</time>
      </trkpt>
      <trkpt lat="44.80846" lon="1.2729">
        <ele>223.6348448</ele>
        <time>2022-08-16T12:49:01Z</time>
      </trkpt>
      <trkpt lat="44.80845" lon="1.2729">
        <ele>223.7602505</ele>
        <time>2022-08-16T12:49:03Z</time>
      </trkpt>
      <trkpt lat="44.80845" lon="1.2729">
        <ele>223.7304955</ele>
        <time>2022-08-16T12:49:05Z</time>
      </trkpt>
      <trkpt lat="44.80845" lon="1.2729">
        <ele>223.6611061</ele>
        <time>2022-08-16T12:49:07Z</time>
      </trkpt>
      <trkpt lat="44.80844" lon="1.2729">
        <ele>223.0962991</ele>
        <time>2022-08-16T12:49:09Z</time>
      </trkpt>
      <trkpt lat="44.80844" lon="1.2729">
        <ele>222.6874517</ele>
        <time>2022-08-16T12:49:11Z</time>
      </trkpt>
      <trkpt lat="44.80844" lon="1.2729">
        <ele>223.5588091</ele>
        <time>2022-08-16T12:49:13Z</time>
      </trkpt>
      <trkpt lat="44.80844" lon="1.27291">
        <ele>224.3616759</ele>
        <time>2022-08-16T12:49:15Z</time>
      </trkpt>
      <trkpt lat="44.80845" lon="1.27292">
        <ele>225.2142394</ele>
        <time>2022-08-16T12:49:17Z</time>
      </trkpt>
      <trkpt lat="44.80845" lon="1.27292">
        <ele>226.3001426</ele>
        <time>2022-08-16T12:49:19Z</time>
      </trkpt>
      <trkpt lat="44.80845" lon="1.27292">
        <ele>225.9854248</ele>
        <time>2022-08-16T12:49:21Z</time>
      </trkpt>
      <trkpt lat="44.80845" lon="1.27293">
        <ele>226.2230465</ele>
        <time>2022-08-16T12:49:23Z</time>
      </trkpt>
      <trkpt lat="44.80845" lon="1.27293">
        <ele>226.3485326</ele>
        <time>2022-08-16T12:49:25Z</time>
      </trkpt>
      <trkpt lat="44.80845" lon="1.27294">
        <ele>226.6404737</ele>
        <time>2022-08-16T12:49:27Z</time>
      </trkpt>
      <trkpt lat="44.80845" lon="1.27294">
        <ele>226.1784762</ele>
        <time>2022-08-16T12:49:29Z</time>
      </trkpt>
      <trkpt lat="44.80845" lon="1.27295">
        <ele>226.4489551</ele>
        <time>2022-08-16T12:49:31Z</time>
      </trkpt>
      <trkpt lat="44.80844" lon="1.27296">
        <ele>225.9661028</ele>
        <time>2022-08-16T12:49:33Z</time>
      </trkpt>
      <trkpt lat="44.80844" lon="1.27296">
        <ele>225.6683794</ele>
        <time>2022-08-16T12:49:35Z</time>
      </trkpt>
      <trkpt lat="44.80844" lon="1.27296">
        <ele>225.3530499</ele>
        <time>2022-08-16T12:49:37Z</time>
      </trkpt>
      <trkpt lat="44.80844" lon="1.27296">
        <ele>225.3532549</ele>
        <time>2022-08-16T12:49:39Z</time>
      </trkpt>
      <trkpt lat="44.80844" lon="1.27295">
        <ele>224.7833687</ele>
        <time>2022-08-16T12:49:41Z</time>
      </trkpt>
      <trkpt lat="44.80844" lon="1.27296">
        <ele>224.1259288</ele>
        <time>2022-08-16T12:49:43Z</time>
      </trkpt>
      <trkpt lat="44.80844" lon="1.27296">
        <ele>224.1259288</ele>
        <time>2022-08-16T12:49:47Z</time>
      </trkpt>
      <trkpt lat="44.80844" lon="1.27296">
        <ele>224.1259288</ele>
        <time>2022-08-16T12:49:51Z</time>
      </trkpt>
      <trkpt lat="44.80844" lon="1.27298">
        <ele>223.53993</ele>
        <time>2022-08-16T12:49:53Z</time>
      </trkpt>
      <trkpt lat="44.80843" lon="1.27298">
        <ele>223.0738003</ele>
        <time>2022-08-16T12:49:55Z</time>
      </trkpt>
      <trkpt lat="44.80843" lon="1.27298">
        <ele>222.5476494</ele>
        <time>2022-08-16T12:49:57Z</time>
      </trkpt>
      <trkpt lat="44.80843" lon="1.27298">
        <ele>222.5485997</ele>
        <time>2022-08-16T12:49:59Z</time>
      </trkpt>
      <trkpt lat="44.80843" lon="1.27298">
        <ele>222.5485997</ele>
        <time>2022-08-16T12:50:03Z</time>
      </trkpt>
      <trkpt lat="44.80843" lon="1.27298">
        <ele>222.5485997</ele>
        <time>2022-08-16T12:50:07Z</time>
      </trkpt>
      <trkpt lat="44.80843" lon="1.27298">
        <ele>222.5485997</ele>
        <time>2022-08-16T12:50:11Z</time>
      </trkpt>
      <trkpt lat="44.80843" lon="1.27298">
        <ele>222.5485997</ele>
        <time>2022-08-16T12:50:15Z</time>
      </trkpt>
      <trkpt lat="44.80843" lon="1.27297">
        <ele>220.860645</ele>
        <time>2022-08-16T12:50:17Z</time>
      </trkpt>
      <trkpt lat="44.80843" lon="1.27297">
        <ele>220.6633771</ele>
        <time>2022-08-16T12:50:19Z</time>
      </trkpt>
      <trkpt lat="44.80843" lon="1.27297">
        <ele>220.6256575</ele>
        <time>2022-08-16T12:50:21Z</time>
      </trkpt>
      <trkpt lat="44.80843" lon="1.27297">
        <ele>220.495222</ele>
        <time>2022-08-16T12:50:23Z</time>
      </trkpt>
      <trkpt lat="44.80843" lon="1.27297">
        <ele>220.495222</ele>
        <time>2022-08-16T12:50:27Z</time>
      </trkpt>
      <trkpt lat="44.80843" lon="1.27297">
        <ele>220.495222</ele>
        <time>2022-08-16T12:50:31Z</time>
      </trkpt>
      <trkpt lat="44.80843" lon="1.27297">
        <ele>220.4073398</ele>
        <time>2022-08-16T12:50:33Z</time>
      </trkpt>
      <trkpt lat="44.80843" lon="1.27298">
        <ele>220.4386908</ele>
        <time>2022-08-16T12:50:35Z</time>
      </trkpt>
      <trkpt lat="44.80843" lon="1.27297">
        <ele>220.2941714</ele>
        <time>2022-08-16T12:50:37Z</time>
      </trkpt>
      <trkpt lat="44.80843" lon="1.27297">
        <ele>220.2662348</ele>
        <time>2022-08-16T12:50:39Z</time>
      </trkpt>
      <trkpt lat="44.80844" lon="1.27296">
        <ele>220.0591415</ele>
        <time>2022-08-16T12:50:41Z</time>
      </trkpt>
      <trkpt lat="44.80844" lon="1.27295">
        <ele>219.985273</ele>
        <time>2022-08-16T12:50:43Z</time>
      </trkpt>
      <trkpt lat="44.80844" lon="1.27295">
        <ele>220.2836123</ele>
        <time>2022-08-16T12:50:45Z</time>
      </trkpt>
      <trkpt lat="44.80844" lon="1.27295">
        <ele>220.4264703</ele>
        <time>2022-08-16T12:50:47Z</time>
      </trkpt>
      <trkpt lat="44.80844" lon="1.27295">
        <ele>220.3457982</ele>
        <time>2022-08-16T12:50:49Z</time>
      </trkpt>
      <trkpt lat="44.80844" lon="1.27295">
        <ele>220.2019582</ele>
        <time>2022-08-16T12:50:51Z</time>
      </trkpt>
      <trkpt lat="44.80844" lon="1.27294">
        <ele>220.2485621</ele>
        <time>2022-08-16T12:50:53Z</time>
      </trkpt>
      <trkpt lat="44.80844" lon="1.27294">
        <ele>220.1643266</ele>
        <time>2022-08-16T12:50:55Z</time>
      </trkpt>
      <trkpt lat="44.80844" lon="1.27295">
        <ele>220.7307566</ele>
        <time>2022-08-16T12:50:57Z</time>
      </trkpt>
      <trkpt lat="44.80845" lon="1.27294">
        <ele>220.356983</ele>
        <time>2022-08-16T12:50:59Z</time>
      </trkpt>
      <trkpt lat="44.80845" lon="1.27294">
        <ele>220.484763</ele>
        <time>2022-08-16T12:51:01Z</time>
      </trkpt>
      <trkpt lat="44.80845" lon="1.27295">
        <ele>220.1872625</ele>
        <time>2022-08-16T12:51:03Z</time>
      </trkpt>
      <trkpt lat="44.80845" lon="1.27295">
        <ele>220.1697205</ele>
        <time>2022-08-16T12:51:05Z</time>
      </trkpt>
      <trkpt lat="44.80845" lon="1.27295">
        <ele>220.8810524</ele>
        <time>2022-08-16T12:51:07Z</time>
      </trkpt>
      <trkpt lat="44.80845" lon="1.27296">
        <ele>220.8152139</ele>
        <time>2022-08-16T12:51:09Z</time>
      </trkpt>
      <trkpt lat="44.80845" lon="1.27296">
        <ele>220.2340075</ele>
        <time>2022-08-16T12:51:11Z</time>
      </trkpt>
      <trkpt lat="44.80845" lon="1.27296">
        <ele>219.4465808</ele>
        <time>2022-08-16T12:51:13Z</time>
      </trkpt>
      <trkpt lat="44.80845" lon="1.27296">
        <ele>219.4860438</ele>
        <time>2022-08-16T12:51:15Z</time>
      </trkpt>
      <trkpt lat="44.80844" lon="1.27297">
        <ele>219.8525106</ele>
        <time>2022-08-16T12:51:17Z</time>
      </trkpt>
      <trkpt lat="44.80844" lon="1.27296">
        <ele>219.9275279</ele>
        <time>2022-08-16T12:51:19Z</time>
      </trkpt>
      <trkpt lat="44.80844" lon="1.27296">
        <ele>220.1091644</ele>
        <time>2022-08-16T12:51:21Z</time>
      </trkpt>
      <trkpt lat="44.80844" lon="1.27296">
        <ele>220.8593596</ele>
        <time>2022-08-16T12:51:23Z</time>
      </trkpt>
      <trkpt lat="44.80844" lon="1.27296">
        <ele>221.7180202</ele>
        <time>2022-08-16T12:51:25Z</time>
      </trkpt>
      <trkpt lat="44.80844" lon="1.27296">
        <ele>221.2930126</ele>
        <time>2022-08-16T12:51:27Z</time>
      </trkpt>
      <trkpt lat="44.80844" lon="1.27299">
        <ele>221.4905197</ele>
        <time>2022-08-16T12:51:29Z</time>
      </trkpt>
      <trkpt lat="44.80846" lon="1.27301">
        <ele>221.266934</ele>
        <time>2022-08-16T12:51:31Z</time>
      </trkpt>
      <trkpt lat="44.80848" lon="1.27302">
        <ele>220.5896669</ele>
        <time>2022-08-16T12:51:33Z</time>
      </trkpt>
      <trkpt lat="44.80851" lon="1.273">
        <ele>220.5348012</ele>
        <time>2022-08-16T12:51:35Z</time>
      </trkpt>
      <trkpt lat="44.80854" lon="1.27298">
        <ele>220.8629423</ele>
        <time>2022-08-16T12:51:37Z</time>
      </trkpt>
      <trkpt lat="44.80854" lon="1.27297">
        <ele>220.6351343</ele>
        <time>2022-08-16T12:51:39Z</time>
      </trkpt>
      <trkpt lat="44.80854" lon="1.27297">
        <ele>220.289969</ele>
        <time>2022-08-16T12:51:41Z</time>
      </trkpt>
      <trkpt lat="44.80854" lon="1.27297">
        <ele>220.4411183</ele>
        <time>2022-08-16T12:51:43Z</time>
      </trkpt>
      <trkpt lat="44.80854" lon="1.27297">
        <ele>220.6294569</ele>
        <time>2022-08-16T12:51:45Z</time>
      </trkpt>
      <trkpt lat="44.80854" lon="1.27296">
        <ele>220.9392578</ele>
        <time>2022-08-16T12:51:47Z</time>
      </trkpt>
      <trkpt lat="44.80854" lon="1.27296">
        <ele>221.6865175</ele>
        <time>2022-08-16T12:51:49Z</time>
      </trkpt>
      <trkpt lat="44.80854" lon="1.27296">
        <ele>222.3168724</ele>
        <time>2022-08-16T12:51:51Z</time>
      </trkpt>
      <trkpt lat="44.80856" lon="1.27295">
        <ele>222.041886</ele>
        <time>2022-08-16T12:51:53Z</time>
      </trkpt>
      <trkpt lat="44.80857" lon="1.27296">
        <ele>222.5424697</ele>
        <time>2022-08-16T12:51:55Z</time>
      </trkpt>
      <trkpt lat="44.80861" lon="1.27302">
        <ele>222.3216274</ele>
        <time>2022-08-16T12:51:57Z</time>
      </trkpt>
      <trkpt lat="44.80865" lon="1.27311">
        <ele>221.9722754</ele>
        <time>2022-08-16T12:51:59Z</time>
      </trkpt>
      <trkpt lat="44.80872" lon="1.27318">
        <ele>221.7290106</ele>
        <time>2022-08-16T12:52:01Z</time>
      </trkpt>
      <trkpt lat="44.8088" lon="1.27325">
        <ele>221.3523124</ele>
        <time>2022-08-16T12:52:03Z</time>
      </trkpt>
      <trkpt lat="44.80889" lon="1.27331">
        <ele>221.601683</ele>
        <time>2022-08-16T12:52:05Z</time>
      </trkpt>
      <trkpt lat="44.809" lon="1.27334">
        <ele>221.0985458</ele>
        <time>2022-08-16T12:52:07Z</time>
      </trkpt>
      <trkpt lat="44.80912" lon="1.27333">
        <ele>220.2706115</ele>
        <time>2022-08-16T12:52:09Z</time>
      </trkpt>
      <trkpt lat="44.80926" lon="1.2733">
        <ele>219.2224616</ele>
        <time>2022-08-16T12:52:11Z</time>
      </trkpt>
      <trkpt lat="44.8094" lon="1.27326">
        <ele>218.3251087</ele>
        <time>2022-08-16T12:52:13Z</time>
      </trkpt>
      <trkpt lat="44.80953" lon="1.27321">
        <ele>217.6355459</ele>
        <time>2022-08-16T12:52:15Z</time>
      </trkpt>
      <trkpt lat="44.80967" lon="1.27312">
        <ele>217.0031258</ele>
        <time>2022-08-16T12:52:17Z</time>
      </trkpt>
      <trkpt lat="44.80978" lon="1.27299">
        <ele>217.4638779</ele>
        <time>2022-08-16T12:52:19Z</time>
      </trkpt>
      <trkpt lat="44.80992" lon="1.27291">
        <ele>216.7992128</ele>
        <time>2022-08-16T12:52:21Z</time>
      </trkpt>
      <trkpt lat="44.81006" lon="1.27296">
        <ele>215.7998016</ele>
        <time>2022-08-16T12:52:23Z</time>
      </trkpt>
      <trkpt lat="44.81014" lon="1.27314">
        <ele>215.6256651</ele>
        <time>2022-08-16T12:52:25Z</time>
      </trkpt>
      <trkpt lat="44.81017" lon="1.27335">
        <ele>215.5844141</ele>
        <time>2022-08-16T12:52:27Z</time>
      </trkpt>
      <trkpt lat="44.81017" lon="1.27358">
        <ele>214.2897727</ele>
        <time>2022-08-16T12:52:29Z</time>
      </trkpt>
      <trkpt lat="44.81016" lon="1.2738">
        <ele>212.9403008</ele>
        <time>2022-08-16T12:52:31Z</time>
      </trkpt>
      <trkpt lat="44.81014" lon="1.27405">
        <ele>212.8985037</ele>
        <time>2022-08-16T12:52:33Z</time>
      </trkpt>
      <trkpt lat="44.81009" lon="1.2743">
        <ele>211.6517886</ele>
        <time>2022-08-16T12:52:35Z</time>
      </trkpt>
      <trkpt lat="44.81004" lon="1.27456">
        <ele>211.9240552</ele>
        <time>2022-08-16T12:52:37Z</time>
      </trkpt>
      <trkpt lat="44.81001" lon="1.27483">
        <ele>211.5435227</ele>
        <time>2022-08-16T12:52:39Z</time>
      </trkpt>
      <trkpt lat="44.81001" lon="1.27509">
        <ele>210.4389292</ele>
        <time>2022-08-16T12:52:41Z</time>
      </trkpt>
      <trkpt lat="44.81005" lon="1.27533">
        <ele>209.1690479</ele>
        <time>2022-08-16T12:52:43Z</time>
      </trkpt>
      <trkpt lat="44.81001" lon="1.27555">
        <ele>207.9427539</ele>
        <time>2022-08-16T12:52:45Z</time>
      </trkpt>
      <trkpt lat="44.80988" lon="1.2757">
        <ele>206.1179117</ele>
        <time>2022-08-16T12:52:47Z</time>
      </trkpt>
      <trkpt lat="44.80973" lon="1.27582">
        <ele>204.9674079</ele>
        <time>2022-08-16T12:52:49Z</time>
      </trkpt>
      <trkpt lat="44.80958" lon="1.27594">
        <ele>202.7609294</ele>
        <time>2022-08-16T12:52:51Z</time>
      </trkpt>
      <trkpt lat="44.80942" lon="1.27607">
        <ele>200.5079091</ele>
        <time>2022-08-16T12:52:53Z</time>
      </trkpt>
      <trkpt lat="44.80925" lon="1.27621">
        <ele>198.0435605</ele>
        <time>2022-08-16T12:52:55Z</time>
      </trkpt>
      <trkpt lat="44.80907" lon="1.27635">
        <ele>197.315455</ele>
        <time>2022-08-16T12:52:57Z</time>
      </trkpt>
      <trkpt lat="44.80887" lon="1.27641">
        <ele>195.6560744</ele>
        <time>2022-08-16T12:52:59Z</time>
      </trkpt>
      <trkpt lat="44.80865" lon="1.27643">
        <ele>194.4603401</ele>
        <time>2022-08-16T12:53:01Z</time>
      </trkpt>
      <trkpt lat="44.80843" lon="1.27642">
        <ele>193.4383707</ele>
        <time>2022-08-16T12:53:03Z</time>
      </trkpt>
      <trkpt lat="44.80821" lon="1.27642">
        <ele>192.2891433</ele>
        <time>2022-08-16T12:53:05Z</time>
      </trkpt>
      <trkpt lat="44.80801" lon="1.27646">
        <ele>190.8947061</ele>
        <time>2022-08-16T12:53:07Z</time>
      </trkpt>
      <trkpt lat="44.8078" lon="1.27658">
        <ele>189.4176283</ele>
        <time>2022-08-16T12:53:09Z</time>
      </trkpt>
      <trkpt lat="44.80759" lon="1.27669">
        <ele>187.9376939</ele>
        <time>2022-08-16T12:53:11Z</time>
      </trkpt>
      <trkpt lat="44.80738" lon="1.2768">
        <ele>186.1073583</ele>
        <time>2022-08-16T12:53:13Z</time>
      </trkpt>
      <trkpt lat="44.80718" lon="1.27689">
        <ele>183.9884908</ele>
        <time>2022-08-16T12:53:15Z</time>
      </trkpt>
      <trkpt lat="44.807" lon="1.27701">
        <ele>182.1447362</ele>
        <time>2022-08-16T12:53:17Z</time>
      </trkpt>
      <trkpt lat="44.80685" lon="1.27719">
        <ele>181.0082917</ele>
        <time>2022-08-16T12:53:19Z</time>
      </trkpt>
      <trkpt lat="44.80678" lon="1.27737">
        <ele>180.6307307</ele>
        <time>2022-08-16T12:53:21Z</time>
      </trkpt>
      <trkpt lat="44.8068" lon="1.27757">
        <ele>180.7469173</ele>
        <time>2022-08-16T12:53:23Z</time>
      </trkpt>
      <trkpt lat="44.80692" lon="1.27771">
        <ele>179.6711229</ele>
        <time>2022-08-16T12:53:25Z</time>
      </trkpt>
      <trkpt lat="44.80707" lon="1.27778">
        <ele>178.4106575</ele>
        <time>2022-08-16T12:53:27Z</time>
      </trkpt>
      <trkpt lat="44.80725" lon="1.27789">
        <ele>177.7028226</ele>
        <time>2022-08-16T12:53:29Z</time>
      </trkpt>
      <trkpt lat="44.80743" lon="1.27801">
        <ele>177.592421</ele>
        <time>2022-08-16T12:53:31Z</time>
      </trkpt>
      <trkpt lat="44.80762" lon="1.27815">
        <ele>174.7652274</ele>
        <time>2022-08-16T12:53:33Z</time>
      </trkpt>
      <trkpt lat="44.80777" lon="1.27832">
        <ele>172.9063573</ele>
        <time>2022-08-16T12:53:35Z</time>
      </trkpt>
      <trkpt lat="44.8079" lon="1.27845">
        <ele>171.9005556</ele>
        <time>2022-08-16T12:53:37Z</time>
      </trkpt>
      <trkpt lat="44.80807" lon="1.27848">
        <ele>171.5146603</ele>
        <time>2022-08-16T12:53:39Z</time>
      </trkpt>
      <trkpt lat="44.80824" lon="1.27842">
        <ele>170.6356799</ele>
        <time>2022-08-16T12:53:41Z</time>
      </trkpt>
      <trkpt lat="44.80842" lon="1.27841">
        <ele>169.9091313</ele>
        <time>2022-08-16T12:53:43Z</time>
      </trkpt>
      <trkpt lat="44.80859" lon="1.27845">
        <ele>169.5620357</ele>
        <time>2022-08-16T12:53:45Z</time>
      </trkpt>
      <trkpt lat="44.80875" lon="1.27853">
        <ele>168.7333047</ele>
        <time>2022-08-16T12:53:47Z</time>
      </trkpt>
      <trkpt lat="44.80885" lon="1.27868">
        <ele>168.5820333</ele>
        <time>2022-08-16T12:53:49Z</time>
      </trkpt>
      <trkpt lat="44.80885" lon="1.2789">
        <ele>169.1461416</ele>
        <time>2022-08-16T12:53:51Z</time>
      </trkpt>
      <trkpt lat="44.8088" lon="1.27913">
        <ele>167.9446048</ele>
        <time>2022-08-16T12:53:53Z</time>
      </trkpt>
      <trkpt lat="44.80875" lon="1.27937">
        <ele>167.5330175</ele>
        <time>2022-08-16T12:53:55Z</time>
      </trkpt>
      <trkpt lat="44.8087" lon="1.27962">
        <ele>166.3892926</ele>
        <time>2022-08-16T12:53:57Z</time>
      </trkpt>
      <trkpt lat="44.80869" lon="1.27987">
        <ele>165.4193684</ele>
        <time>2022-08-16T12:53:59Z</time>
      </trkpt>
      <trkpt lat="44.80874" lon="1.28012">
        <ele>164.5041907</ele>
        <time>2022-08-16T12:54:01Z</time>
      </trkpt>
      <trkpt lat="44.80885" lon="1.28036">
        <ele>162.1422348</ele>
        <time>2022-08-16T12:54:03Z</time>
      </trkpt>
      <trkpt lat="44.80898" lon="1.28059">
        <ele>161.6691331</ele>
        <time>2022-08-16T12:54:05Z</time>
      </trkpt>
      <trkpt lat="44.80911" lon="1.28076">
        <ele>160.0517653</ele>
        <time>2022-08-16T12:54:07Z</time>
      </trkpt>
      <trkpt lat="44.80916" lon="1.28099">
        <ele>158.3655368</ele>
        <time>2022-08-16T12:54:09Z</time>
      </trkpt>
      <trkpt lat="44.8091" lon="1.28123">
        <ele>157.9908791</ele>
        <time>2022-08-16T12:54:11Z</time>
      </trkpt>
      <trkpt lat="44.80899" lon="1.28146">
        <ele>156.5789947</ele>
        <time>2022-08-16T12:54:13Z</time>
      </trkpt>
      <trkpt lat="44.80886" lon="1.28167">
        <ele>155.7758181</ele>
        <time>2022-08-16T12:54:15Z</time>
      </trkpt>
      <trkpt lat="44.80871" lon="1.28186">
        <ele>154.4608446</ele>
        <time>2022-08-16T12:54:17Z</time>
      </trkpt>
      <trkpt lat="44.80858" lon="1.28209">
        <ele>153.2220587</ele>
        <time>2022-08-16T12:54:19Z</time>
      </trkpt>
      <trkpt lat="44.80851" lon="1.28235">
        <ele>151.5093584</ele>
        <time>2022-08-16T12:54:21Z</time>
      </trkpt>
      <trkpt lat="44.8084" lon="1.28251">
        <ele>150.3327918</ele>
        <time>2022-08-16T12:54:23Z</time>
      </trkpt>
      <trkpt lat="44.80822" lon="1.28251">
        <ele>149.2120049</ele>
        <time>2022-08-16T12:54:25Z</time>
      </trkpt>
      <trkpt lat="44.80805" lon="1.28242">
        <ele>148.2476059</ele>
        <time>2022-08-16T12:54:27Z</time>
      </trkpt>
      <trkpt lat="44.80787" lon="1.28233">
        <ele>146.2598163</ele>
        <time>2022-08-16T12:54:29Z</time>
      </trkpt>
      <trkpt lat="44.80768" lon="1.28225">
        <ele>143.5443219</ele>
        <time>2022-08-16T12:54:31Z</time>
      </trkpt>
      <trkpt lat="44.80746" lon="1.28218">
        <ele>141.8670174</ele>
        <time>2022-08-16T12:54:33Z</time>
      </trkpt>
      <trkpt lat="44.80724" lon="1.28209">
        <ele>139.9279153</ele>
        <time>2022-08-16T12:54:35Z</time>
      </trkpt>
      <trkpt lat="44.80702" lon="1.28203">
        <ele>137.4600739</ele>
        <time>2022-08-16T12:54:37Z</time>
      </trkpt>
      <trkpt lat="44.80679" lon="1.28198">
        <ele>136.1114407</ele>
        <time>2022-08-16T12:54:39Z</time>
      </trkpt>
      <trkpt lat="44.80655" lon="1.28191">
        <ele>134.6412994</ele>
        <time>2022-08-16T12:54:41Z</time>
      </trkpt>
      <trkpt lat="44.80631" lon="1.2819">
        <ele>133.4168663</ele>
        <time>2022-08-16T12:54:43Z</time>
      </trkpt>
      <trkpt lat="44.80608" lon="1.28194">
        <ele>131.9272824</ele>
        <time>2022-08-16T12:54:45Z</time>
      </trkpt>
      <trkpt lat="44.80586" lon="1.28202">
        <ele>129.7727921</ele>
        <time>2022-08-16T12:54:47Z</time>
      </trkpt>
      <trkpt lat="44.80568" lon="1.28215">
        <ele>128.1684629</ele>
        <time>2022-08-16T12:54:49Z</time>
      </trkpt>
      <trkpt lat="44.80556" lon="1.28235">
        <ele>126.4855612</ele>
        <time>2022-08-16T12:54:51Z</time>
      </trkpt>
      <trkpt lat="44.80548" lon="1.28261">
        <ele>125.6297082</ele>
        <time>2022-08-16T12:54:53Z</time>
      </trkpt>
      <trkpt lat="44.80544" lon="1.2829">
        <ele>124.547553</ele>
        <time>2022-08-16T12:54:55Z</time>
      </trkpt>
      <trkpt lat="44.80535" lon="1.28317">
        <ele>123.2164747</ele>
        <time>2022-08-16T12:54:57Z</time>
      </trkpt>
      <trkpt lat="44.80521" lon="1.28339">
        <ele>122.4164014</ele>
        <time>2022-08-16T12:54:59Z</time>
      </trkpt>
      <trkpt lat="44.80506" lon="1.28361">
        <ele>120.6403651</ele>
        <time>2022-08-16T12:55:01Z</time>
      </trkpt>
      <trkpt lat="44.80493" lon="1.28385">
        <ele>118.6634851</ele>
        <time>2022-08-16T12:55:03Z</time>
      </trkpt>
      <trkpt lat="44.8048" lon="1.28411">
        <ele>118.1347265</ele>
        <time>2022-08-16T12:55:05Z</time>
      </trkpt>
      <trkpt lat="44.80469" lon="1.28439">
        <ele>118.416749</ele>
        <time>2022-08-16T12:55:07Z</time>
      </trkpt>
      <trkpt lat="44.8046" lon="1.2847">
        <ele>118.2295768</ele>
        <time>2022-08-16T12:55:09Z</time>
      </trkpt>
      <trkpt lat="44.80454" lon="1.28502">
        <ele>118.2328891</ele>
        <time>2022-08-16T12:55:11Z</time>
      </trkpt>
      <trkpt lat="44.80454" lon="1.28533">
        <ele>118.3435095</ele>
        <time>2022-08-16T12:55:13Z</time>
      </trkpt>
      <trkpt lat="44.80458" lon="1.28561">
        <ele>118.8726884</ele>
        <time>2022-08-16T12:55:15Z</time>
      </trkpt>
      <trkpt lat="44.80468" lon="1.28588">
        <ele>118.2596738</ele>
        <time>2022-08-16T12:55:17Z</time>
      </trkpt>
      <trkpt lat="44.80482" lon="1.28604">
        <ele>117.1211741</ele>
        <time>2022-08-16T12:55:19Z</time>
      </trkpt>
      <trkpt lat="44.805" lon="1.28613">
        <ele>114.924758</ele>
        <time>2022-08-16T12:55:21Z</time>
      </trkpt>
      <trkpt lat="44.80517" lon="1.2862">
        <ele>112.9525077</ele>
        <time>2022-08-16T12:55:23Z</time>
      </trkpt>
      <trkpt lat="44.80532" lon="1.28641">
        <ele>113.9726627</ele>
        <time>2022-08-16T12:55:25Z</time>
      </trkpt>
      <trkpt lat="44.80547" lon="1.28658">
        <ele>112.9403821</ele>
        <time>2022-08-16T12:55:27Z</time>
      </trkpt>
      <trkpt lat="44.80564" lon="1.28669">
        <ele>112.0552153</ele>
        <time>2022-08-16T12:55:29Z</time>
      </trkpt>
      <trkpt lat="44.80581" lon="1.28682">
        <ele>111.2053381</ele>
        <time>2022-08-16T12:55:31Z</time>
      </trkpt>
      <trkpt lat="44.80595" lon="1.28701">
        <ele>110.079094</ele>
        <time>2022-08-16T12:55:33Z</time>
      </trkpt>
      <trkpt lat="44.80604" lon="1.28726">
        <ele>108.9699213</ele>
        <time>2022-08-16T12:55:35Z</time>
      </trkpt>
      <trkpt lat="44.80607" lon="1.28753">
        <ele>108.21602</ele>
        <time>2022-08-16T12:55:37Z</time>
      </trkpt>
      <trkpt lat="44.80603" lon="1.2878">
        <ele>106.7432195</ele>
        <time>2022-08-16T12:55:39Z</time>
      </trkpt>
      <trkpt lat="44.80595" lon="1.28806">
        <ele>106.6142305</ele>
        <time>2022-08-16T12:55:41Z</time>
      </trkpt>
      <trkpt lat="44.80588" lon="1.28831">
        <ele>106.3464158</ele>
        <time>2022-08-16T12:55:43Z</time>
      </trkpt>
      <trkpt lat="44.80585" lon="1.28859">
        <ele>104.914476</ele>
        <time>2022-08-16T12:55:45Z</time>
      </trkpt>
      <trkpt lat="44.80583" lon="1.28886">
        <ele>105.0987606</ele>
        <time>2022-08-16T12:55:47Z</time>
      </trkpt>
      <trkpt lat="44.80585" lon="1.28909">
        <ele>103.5988277</ele>
        <time>2022-08-16T12:55:49Z</time>
      </trkpt>
      <trkpt lat="44.80585" lon="1.28934">
        <ele>103.9266346</ele>
        <time>2022-08-16T12:55:51Z</time>
      </trkpt>
      <trkpt lat="44.80584" lon="1.28958">
        <ele>103.8813502</ele>
        <time>2022-08-16T12:55:53Z</time>
      </trkpt>
      <trkpt lat="44.8058" lon="1.28981">
        <ele>103.3038727</ele>
        <time>2022-08-16T12:55:55Z</time>
      </trkpt>
      <trkpt lat="44.80573" lon="1.29002">
        <ele>103.6567524</ele>
        <time>2022-08-16T12:55:57Z</time>
      </trkpt>
      <trkpt lat="44.80565" lon="1.29022">
        <ele>101.570961</ele>
        <time>2022-08-16T12:55:59Z</time>
      </trkpt>
      <trkpt lat="44.80557" lon="1.29043">
        <ele>102.1690543</ele>
        <time>2022-08-16T12:56:01Z</time>
      </trkpt>
      <trkpt lat="44.80551" lon="1.29064">
        <ele>102.6025431</ele>
        <time>2022-08-16T12:56:03Z</time>
      </trkpt>
      <trkpt lat="44.80548" lon="1.29085">
        <ele>102.3237864</ele>
        <time>2022-08-16T12:56:05Z</time>
      </trkpt>
      <trkpt lat="44.80548" lon="1.29107">
        <ele>101.5947538</ele>
        <time>2022-08-16T12:56:07Z</time>
      </trkpt>
      <trkpt lat="44.80553" lon="1.29127">
        <ele>102.4832106</ele>
        <time>2022-08-16T12:56:09Z</time>
      </trkpt>
      <trkpt lat="44.80562" lon="1.29147">
        <ele>101.144186</ele>
        <time>2022-08-16T12:56:11Z</time>
      </trkpt>
      <trkpt lat="44.80571" lon="1.29166">
        <ele>100.5181619</ele>
        <time>2022-08-16T12:56:13Z</time>
      </trkpt>
      <trkpt lat="44.80581" lon="1.29185">
        <ele>99.6006411</ele>
        <time>2022-08-16T12:56:15Z</time>
      </trkpt>
      <trkpt lat="44.80589" lon="1.29202">
        <ele>100.2333514</ele>
        <time>2022-08-16T12:56:17Z</time>
      </trkpt>
      <trkpt lat="44.80598" lon="1.29217">
        <ele>100.3344229</ele>
        <time>2022-08-16T12:56:19Z</time>
      </trkpt>
      <trkpt lat="44.80609" lon="1.29228">
        <ele>100.128015</ele>
        <time>2022-08-16T12:56:21Z</time>
      </trkpt>
      <trkpt lat="44.80619" lon="1.29238">
        <ele>99.7418282</ele>
        <time>2022-08-16T12:56:23Z</time>
      </trkpt>
      <trkpt lat="44.8063" lon="1.29249">
        <ele>99.2438295</ele>
        <time>2022-08-16T12:56:25Z</time>
      </trkpt>
      <trkpt lat="44.80642" lon="1.29259">
        <ele>98.9090785</ele>
        <time>2022-08-16T12:56:27Z</time>
      </trkpt>
      <trkpt lat="44.80653" lon="1.2927">
        <ele>98.6504542</ele>
        <time>2022-08-16T12:56:29Z</time>
      </trkpt>
      <trkpt lat="44.80663" lon="1.29279">
        <ele>98.4820876</ele>
        <time>2022-08-16T12:56:31Z</time>
      </trkpt>
      <trkpt lat="44.80674" lon="1.29288">
        <ele>97.7997877</ele>
        <time>2022-08-16T12:56:33Z</time>
      </trkpt>
      <trkpt lat="44.80686" lon="1.29295">
        <ele>96.9169662</ele>
        <time>2022-08-16T12:56:35Z</time>
      </trkpt>
      <trkpt lat="44.80698" lon="1.29301">
        <ele>96.5689894</ele>
        <time>2022-08-16T12:56:37Z</time>
      </trkpt>
      <trkpt lat="44.80711" lon="1.29307">
        <ele>95.6760944</ele>
        <time>2022-08-16T12:56:39Z</time>
      </trkpt>
      <trkpt lat="44.80722" lon="1.29315">
        <ele>95.2224825</ele>
        <time>2022-08-16T12:56:41Z</time>
      </trkpt>
      <trkpt lat="44.80731" lon="1.29326">
        <ele>94.7215191</ele>
        <time>2022-08-16T12:56:43Z</time>
      </trkpt>
      <trkpt lat="44.80737" lon="1.29342">
        <ele>94.2982249</ele>
        <time>2022-08-16T12:56:45Z</time>
      </trkpt>
      <trkpt lat="44.80739" lon="1.29358">
        <ele>93.6278472</ele>
        <time>2022-08-16T12:56:47Z</time>
      </trkpt>
      <trkpt lat="44.80739" lon="1.29374">
        <ele>93.100819</ele>
        <time>2022-08-16T12:56:49Z</time>
      </trkpt>
      <trkpt lat="44.80738" lon="1.2939">
        <ele>92.9913649</ele>
        <time>2022-08-16T12:56:51Z</time>
      </trkpt>
      <trkpt lat="44.80736" lon="1.29406">
        <ele>91.8496676</ele>
        <time>2022-08-16T12:56:53Z</time>
      </trkpt>
      <trkpt lat="44.80734" lon="1.29422">
        <ele>91.4854665</ele>
        <time>2022-08-16T12:56:55Z</time>
      </trkpt>
      <trkpt lat="44.80732" lon="1.29439">
        <ele>90.7079888</ele>
        <time>2022-08-16T12:56:57Z</time>
      </trkpt>
      <trkpt lat="44.8073" lon="1.29456">
        <ele>90.1990554</ele>
        <time>2022-08-16T12:56:59Z</time>
      </trkpt>
      <trkpt lat="44.80727" lon="1.29471">
        <ele>89.635985</ele>
        <time>2022-08-16T12:57:01Z</time>
      </trkpt>
      <trkpt lat="44.80722" lon="1.29486">
        <ele>89.8758404</ele>
        <time>2022-08-16T12:57:03Z</time>
      </trkpt>
      <trkpt lat="44.80717" lon="1.29498">
        <ele>90.9231174</ele>
        <time>2022-08-16T12:57:05Z</time>
      </trkpt>
      <trkpt lat="44.80712" lon="1.29509">
        <ele>91.1774126</ele>
        <time>2022-08-16T12:57:07Z</time>
      </trkpt>
      <trkpt lat="44.80709" lon="1.29517">
        <ele>90.4178228</ele>
        <time>2022-08-16T12:57:09Z</time>
      </trkpt>
      <trkpt lat="44.80707" lon="1.29525">
        <ele>89.7126192</ele>
        <time>2022-08-16T12:57:11Z</time>
      </trkpt>
      <trkpt lat="44.80706" lon="1.29533">
        <ele>88.9819484</ele>
        <time>2022-08-16T12:57:13Z</time>
      </trkpt>
      <trkpt lat="44.80706" lon="1.29542">
        <ele>88.8092005</ele>
        <time>2022-08-16T12:57:15Z</time>
      </trkpt>
      <trkpt lat="44.80706" lon="1.29552">
        <ele>88.0613325</ele>
        <time>2022-08-16T12:57:17Z</time>
      </trkpt>
      <trkpt lat="44.80707" lon="1.29561">
        <ele>87.5013598</ele>
        <time>2022-08-16T12:57:19Z</time>
      </trkpt>
      <trkpt lat="44.80708" lon="1.29572">
        <ele>87.9468034</ele>
        <time>2022-08-16T12:57:21Z</time>
      </trkpt>
      <trkpt lat="44.80709" lon="1.29582">
        <ele>88.0299389</ele>
        <time>2022-08-16T12:57:23Z</time>
      </trkpt>
      <trkpt lat="44.8071" lon="1.29593">
        <ele>88.0928686</ele>
        <time>2022-08-16T12:57:25Z</time>
      </trkpt>
      <trkpt lat="44.80712" lon="1.29604">
        <ele>88.1263122</ele>
        <time>2022-08-16T12:57:27Z</time>
      </trkpt>
      <trkpt lat="44.80714" lon="1.29615">
        <ele>87.8604287</ele>
        <time>2022-08-16T12:57:29Z</time>
      </trkpt>
      <trkpt lat="44.80715" lon="1.29626">
        <ele>87.7679846</ele>
        <time>2022-08-16T12:57:31Z</time>
      </trkpt>
      <trkpt lat="44.80717" lon="1.29635">
        <ele>88.1748445</ele>
        <time>2022-08-16T12:57:33Z</time>
      </trkpt>
      <trkpt lat="44.80719" lon="1.29645">
        <ele>87.9490098</ele>
        <time>2022-08-16T12:57:35Z</time>
      </trkpt>
      <trkpt lat="44.8072" lon="1.29654">
        <ele>88.0103</ele>
        <time>2022-08-16T12:57:37Z</time>
      </trkpt>
      <trkpt lat="44.80721" lon="1.29664">
        <ele>88.1039256</ele>
        <time>2022-08-16T12:57:39Z</time>
      </trkpt>
      <trkpt lat="44.80722" lon="1.29673">
        <ele>88.4439646</ele>
        <time>2022-08-16T12:57:41Z</time>
      </trkpt>
      <trkpt lat="44.80725" lon="1.29681">
        <ele>87.4634299</ele>
        <time>2022-08-16T12:57:43Z</time>
      </trkpt>
      <trkpt lat="44.8073" lon="1.29685">
        <ele>85.961191</ele>
        <time>2022-08-16T12:57:45Z</time>
      </trkpt>
      <trkpt lat="44.80735" lon="1.29688">
        <ele>86.1677741</ele>
        <time>2022-08-16T12:57:47Z</time>
      </trkpt>
      <trkpt lat="44.80737" lon="1.29688">
        <ele>85.958446</ele>
        <time>2022-08-16T12:57:49Z</time>
      </trkpt>
      <trkpt lat="44.80737" lon="1.29688">
        <ele>85.8682783</ele>
        <time>2022-08-16T12:57:51Z</time>
      </trkpt>
      <trkpt lat="44.80737" lon="1.29688">
        <ele>85.1979821</ele>
        <time>2022-08-16T12:57:53Z</time>
      </trkpt>
      <trkpt lat="44.80738" lon="1.29688">
        <ele>85.4445404</ele>
        <time>2022-08-16T12:57:55Z</time>
      </trkpt>
      <trkpt lat="44.80738" lon="1.29688">
        <ele>85.421903</ele>
        <time>2022-08-16T12:57:57Z</time>
      </trkpt>
      <trkpt lat="44.80738" lon="1.29688">
        <ele>85.3802039</ele>
        <time>2022-08-16T12:57:59Z</time>
      </trkpt>
      <trkpt lat="44.80738" lon="1.29688">
        <ele>85.4387784</ele>
        <time>2022-08-16T12:58:01Z</time>
      </trkpt>
      <trkpt lat="44.80738" lon="1.29688">
        <ele>85.4387784</ele>
        <time>2022-08-16T12:58:05Z</time>
      </trkpt>
      <trkpt lat="44.80736" lon="1.29689">
        <ele>84.9948788</ele>
        <time>2022-08-16T12:58:07Z</time>
      </trkpt>
      <trkpt lat="44.80736" lon="1.29689">
        <ele>84.5941888</ele>
        <time>2022-08-16T12:58:09Z</time>
      </trkpt>
      <trkpt lat="44.80737" lon="1.29688">
        <ele>85.0146335</ele>
        <time>2022-08-16T12:58:11Z</time>
      </trkpt>
      <trkpt lat="44.80738" lon="1.29687">
        <ele>85.7969114</ele>
        <time>2022-08-16T12:58:13Z</time>
      </trkpt>
      <trkpt lat="44.80738" lon="1.29687">
        <ele>86.2109787</ele>
        <time>2022-08-16T12:58:15Z</time>
      </trkpt>
      <trkpt lat="44.80738" lon="1.29686">
        <ele>86.9856703</ele>
        <time>2022-08-16T12:58:17Z</time>
      </trkpt>
      <trkpt lat="44.80737" lon="1.29686">
        <ele>86.7996334</ele>
        <time>2022-08-16T12:58:19Z</time>
      </trkpt>
      <trkpt lat="44.80737" lon="1.29686">
        <ele>86.6696895</ele>
        <time>2022-08-16T12:58:21Z</time>
      </trkpt>
      <trkpt lat="44.80737" lon="1.29687">
        <ele>87.1318763</ele>
        <time>2022-08-16T12:58:23Z</time>
      </trkpt>
      <trkpt lat="44.80737" lon="1.29687">
        <ele>85.6476502</ele>
        <time>2022-08-16T12:58:25Z</time>
      </trkpt>
      <trkpt lat="44.80737" lon="1.29687">
        <ele>86.4415667</ele>
        <time>2022-08-16T12:58:27Z</time>
      </trkpt>
      <trkpt lat="44.80738" lon="1.29687">
        <ele>85.8666044</ele>
        <time>2022-08-16T12:58:29Z</time>
      </trkpt>
      <trkpt lat="44.80738" lon="1.29687">
        <ele>85.5949865</ele>
        <time>2022-08-16T12:58:31Z</time>
      </trkpt>
      <trkpt lat="44.80738" lon="1.29687">
        <ele>86.569189</ele>
        <time>2022-08-16T12:58:33Z</time>
      </trkpt>
      <trkpt lat="44.80738" lon="1.29687">
        <ele>86.7447198</ele>
        <time>2022-08-16T12:58:35Z</time>
      </trkpt>
      <trkpt lat="44.80737" lon="1.29686">
        <ele>85.9190048</ele>
        <time>2022-08-16T12:58:37Z</time>
      </trkpt>
      <trkpt lat="44.80736" lon="1.29686">
        <ele>85.4209152</ele>
        <time>2022-08-16T12:58:39Z</time>
      </trkpt>
      <trkpt lat="44.80734" lon="1.29687">
        <ele>84.2876043</ele>
        <time>2022-08-16T12:58:41Z</time>
      </trkpt>
      <trkpt lat="44.80732" lon="1.29688">
        <ele>83.8662621</ele>
        <time>2022-08-16T12:58:43Z</time>
      </trkpt>
      <trkpt lat="44.8073" lon="1.2969">
        <ele>83.3582561</ele>
        <time>2022-08-16T12:58:45Z</time>
      </trkpt>
      <trkpt lat="44.80729" lon="1.29691">
        <ele>83.5215949</ele>
        <time>2022-08-16T12:58:47Z</time>
      </trkpt>
      <trkpt lat="44.80729" lon="1.29692">
        <ele>83.8377764</ele>
        <time>2022-08-16T12:58:49Z</time>
      </trkpt>
      <trkpt lat="44.80728" lon="1.29693">
        <ele>83.7022378</ele>
        <time>2022-08-16T12:58:51Z</time>
      </trkpt>
      <trkpt lat="44.80728" lon="1.29694">
        <ele>84.1686098</ele>
        <time>2022-08-16T12:58:53Z</time>
      </trkpt>
      <trkpt lat="44.80726" lon="1.29696">
        <ele>85.3670853</ele>
        <time>2022-08-16T12:58:55Z</time>
      </trkpt>
      <trkpt lat="44.80724" lon="1.29697">
        <ele>85.7339042</ele>
        <time>2022-08-16T12:58:57Z</time>
      </trkpt>
      <trkpt lat="44.80722" lon="1.29696">
        <ele>83.1449612</ele>
        <time>2022-08-16T12:58:59Z</time>
      </trkpt>
      <trkpt lat="44.8072" lon="1.29695">
        <ele>81.956781</ele>
        <time>2022-08-16T12:59:01Z</time>
      </trkpt>
      <trkpt lat="44.80716" lon="1.29694">
        <ele>80.7335431</ele>
        <time>2022-08-16T12:59:03Z</time>
      </trkpt>
      <trkpt lat="44.80712" lon="1.29691">
        <ele>80.8904191</ele>
        <time>2022-08-16T12:59:05Z</time>
      </trkpt>
      <trkpt lat="44.80708" lon="1.29688">
        <ele>80.7571544</ele>
        <time>2022-08-16T12:59:07Z</time>
      </trkpt>
      <trkpt lat="44.80705" lon="1.29687">
        <ele>80.5581507</ele>
        <time>2022-08-16T12:59:09Z</time>
      </trkpt>
      <trkpt lat="44.80703" lon="1.29688">
        <ele>81.1568301</ele>
        <time>2022-08-16T12:59:11Z</time>
      </trkpt>
      <trkpt lat="44.80703" lon="1.29688">
        <ele>81.3400851</ele>
        <time>2022-08-16T12:59:13Z</time>
      </trkpt>
      <trkpt lat="44.80703" lon="1.29688">
        <ele>81.8424537</ele>
        <time>2022-08-16T12:59:15Z</time>
      </trkpt>
      <trkpt lat="44.80703" lon="1.29688">
        <ele>82.8456703</ele>
        <time>2022-08-16T12:59:17Z</time>
      </trkpt>
      <trkpt lat="44.80703" lon="1.29688">
        <ele>83.1358174</ele>
        <time>2022-08-16T12:59:19Z</time>
      </trkpt>
      <trkpt lat="44.80703" lon="1.29688">
        <ele>83.9781777</ele>
        <time>2022-08-16T12:59:21Z</time>
      </trkpt>
      <trkpt lat="44.80703" lon="1.29687">
        <ele>84.3978253</ele>
        <time>2022-08-16T12:59:23Z</time>
      </trkpt>
      <trkpt lat="44.80703" lon="1.29687">
        <ele>84.3359425</ele>
        <time>2022-08-16T12:59:25Z</time>
      </trkpt>
      <trkpt lat="44.80703" lon="1.29687">
        <ele>84.3359425</ele>
        <time>2022-08-16T12:59:29Z</time>
      </trkpt>
      <trkpt lat="44.80703" lon="1.29687">
        <ele>84.3359425</ele>
        <time>2022-08-16T12:59:33Z</time>
      </trkpt>
      <trkpt lat="44.80703" lon="1.29687">
        <ele>84.3359425</ele>
        <time>2022-08-16T12:59:37Z</time>
      </trkpt>
      <trkpt lat="44.80703" lon="1.29687">
        <ele>84.3359425</ele>
        <time>2022-08-16T12:59:41Z</time>
      </trkpt>
      <trkpt lat="44.80703" lon="1.29687">
        <ele>84.3359425</ele>
        <time>2022-08-16T12:59:45Z</time>
      </trkpt>
      <trkpt lat="44.80703" lon="1.29687">
        <ele>84.3359425</ele>
        <time>2022-08-16T12:59:49Z</time>
      </trkpt>
      <trkpt lat="44.80703" lon="1.29687">
        <ele>84.3359425</ele>
        <time>2022-08-16T12:59:53Z</time>
      </trkpt>
      <trkpt lat="44.80703" lon="1.29687">
        <ele>84.3359425</ele>
        <time>2022-08-16T12:59:57Z</time>
      </trkpt>
      <trkpt lat="44.80703" lon="1.29687">
        <ele>84.3359425</ele>
        <time>2022-08-16T13:00:01Z</time>
      </trkpt>
      <trkpt lat="44.80703" lon="1.29687">
        <ele>84.3359425</ele>
        <time>2022-08-16T13:00:05Z</time>
      </trkpt>
      <trkpt lat="44.80703" lon="1.29687">
        <ele>84.3359425</ele>
        <time>2022-08-16T13:00:09Z</time>
      </trkpt>
      <trkpt lat="44.80703" lon="1.29687">
        <ele>84.3359425</ele>
        <time>2022-08-16T13:00:13Z</time>
      </trkpt>
      <trkpt lat="44.80703" lon="1.29687">
        <ele>84.3359425</ele>
        <time>2022-08-16T13:00:17Z</time>
      </trkpt>
      <trkpt lat="44.80703" lon="1.29687">
        <ele>84.3359425</ele>
        <time>2022-08-16T13:00:21Z</time>
      </trkpt>
      <trkpt lat="44.80703" lon="1.29687">
        <ele>84.3359425</ele>
        <time>2022-08-16T13:00:25Z</time>
      </trkpt>
      <trkpt lat="44.80703" lon="1.29687">
        <ele>84.3359425</ele>
        <time>2022-08-16T13:00:29Z</time>
      </trkpt>
      <trkpt lat="44.80703" lon="1.29687">
        <ele>84.3359425</ele>
        <time>2022-08-16T13:00:33Z</time>
      </trkpt>
      <trkpt lat="44.80703" lon="1.29687">
        <ele>84.3359425</ele>
        <time>2022-08-16T13:00:37Z</time>
      </trkpt>
      <trkpt lat="44.80703" lon="1.29687">
        <ele>84.3359425</ele>
        <time>2022-08-16T13:00:41Z</time>
      </trkpt>
      <trkpt lat="44.80703" lon="1.29687">
        <ele>84.3359425</ele>
        <time>2022-08-16T13:00:45Z</time>
      </trkpt>
      <trkpt lat="44.80703" lon="1.29687">
        <ele>84.3359425</ele>
        <time>2022-08-16T13:00:49Z</time>
      </trkpt>
      <trkpt lat="44.80703" lon="1.29687">
        <ele>84.3359425</ele>
        <time>2022-08-16T13:00:53Z</time>
      </trkpt>
      <trkpt lat="44.80703" lon="1.29687">
        <ele>84.3359425</ele>
        <time>2022-08-16T13:00:57Z</time>
      </trkpt>
      <trkpt lat="44.80703" lon="1.29687">
        <ele>84.3359425</ele>
        <time>2022-08-16T13:01:01Z</time>
      </trkpt>
      <trkpt lat="44.80703" lon="1.29687">
        <ele>84.3359425</ele>
        <time>2022-08-16T13:01:05Z</time>
      </trkpt>
      <trkpt lat="44.80703" lon="1.29687">
        <ele>84.3359425</ele>
        <time>2022-08-16T13:01:09Z</time>
      </trkpt>
      <trkpt lat="44.80703" lon="1.29687">
        <ele>84.3359425</ele>
        <time>2022-08-16T13:01:13Z</time>
      </trkpt>
      <trkpt lat="44.80703" lon="1.29687">
        <ele>84.3359425</ele>
        <time>2022-08-16T13:01:17Z</time>
      </trkpt>
      <trkpt lat="44.80703" lon="1.29687">
        <ele>84.3359425</ele>
        <time>2022-08-16T13:01:21Z</time>
      </trkpt>
      <trkpt lat="44.80703" lon="1.29687">
        <ele>84.3359425</ele>
        <time>2022-08-16T13:01:25Z</time>
      </trkpt>
      <trkpt lat="44.80703" lon="1.29687">
        <ele>84.3359425</ele>
        <time>2022-08-16T13:01:29Z</time>
      </trkpt>
      <trkpt lat="44.80703" lon="1.29687">
        <ele>84.3359425</ele>
        <time>2022-08-16T13:01:33Z</time>
      </trkpt>
      <trkpt lat="44.80703" lon="1.29687">
        <ele>84.3359425</ele>
        <time>2022-08-16T13:01:37Z</time>
      </trkpt>
      <trkpt lat="44.80703" lon="1.29687">
        <ele>84.3359425</ele>
        <time>2022-08-16T13:01:41Z</time>
      </trkpt>
      <trkpt lat="44.80703" lon="1.29687">
        <ele>84.3359425</ele>
        <time>2022-08-16T13:01:45Z</time>
      </trkpt>
      <trkpt lat="44.80702" lon="1.29677">
        <ele>87.9405016</ele>
        <time>2022-08-16T13:01:49Z</time>
      </trkpt>
      <trkpt lat="44.80702" lon="1.29677">
        <ele>87.8745237</ele>
        <time>2022-08-16T13:01:51Z</time>
      </trkpt>
      <trkpt lat="44.80702" lon="1.29677">
        <ele>87.8745237</ele>
        <time>2022-08-16T13:01:55Z</time>
      </trkpt>
      <trkpt lat="44.80702" lon="1.29677">
        <ele>87.8745237</ele>
        <time>2022-08-16T13:01:59Z</time>
      </trkpt>
      <trkpt lat="44.80702" lon="1.29677">
        <ele>87.8745237</ele>
        <time>2022-08-16T13:02:03Z</time>
      </trkpt>
      <trkpt lat="44.80702" lon="1.29677">
        <ele>87.8745237</ele>
        <time>2022-08-16T13:02:07Z</time>
      </trkpt>
      <trkpt lat="44.80702" lon="1.29677">
        <ele>87.8745237</ele>
        <time>2022-08-16T13:02:11Z</time>
      </trkpt>
      <trkpt lat="44.80702" lon="1.29677">
        <ele>87.8745237</ele>
        <time>2022-08-16T13:02:15Z</time>
      </trkpt>
      <trkpt lat="44.80702" lon="1.29677">
        <ele>87.8745237</ele>
        <time>2022-08-16T13:02:19Z</time>
      </trkpt>
      <trkpt lat="44.80702" lon="1.29677">
        <ele>87.8745237</ele>
        <time>2022-08-16T13:02:23Z</time>
      </trkpt>
      <trkpt lat="44.80702" lon="1.29677">
        <ele>87.8745237</ele>
        <time>2022-08-16T13:02:27Z</time>
      </trkpt>
      <trkpt lat="44.80702" lon="1.29677">
        <ele>87.8745237</ele>
        <time>2022-08-16T13:02:31Z</time>
      </trkpt>
      <trkpt lat="44.80702" lon="1.29677">
        <ele>87.8745237</ele>
        <time>2022-08-16T13:02:35Z</time>
      </trkpt>
      <trkpt lat="44.80702" lon="1.29677">
        <ele>87.8745237</ele>
        <time>2022-08-16T13:02:39Z</time>
      </trkpt>
      <trkpt lat="44.80702" lon="1.29677">
        <ele>87.8745237</ele>
        <time>2022-08-16T13:02:43Z</time>
      </trkpt>
      <trkpt lat="44.80702" lon="1.29677">
        <ele>87.8745237</ele>
        <time>2022-08-16T13:02:47Z</time>
      </trkpt>
      <trkpt lat="44.80702" lon="1.29677">
        <ele>87.8745237</ele>
        <time>2022-08-16T13:02:51Z</time>
      </trkpt>
      <trkpt lat="44.80702" lon="1.29677">
        <ele>87.8745237</ele>
        <time>2022-08-16T13:02:55Z</time>
      </trkpt>
      <trkpt lat="44.80702" lon="1.29677">
        <ele>87.8745237</ele>
        <time>2022-08-16T13:02:59Z</time>
      </trkpt>
      <trkpt lat="44.80702" lon="1.29677">
        <ele>87.8745237</ele>
        <time>2022-08-16T13:03:03Z</time>
      </trkpt>
      <trkpt lat="44.80702" lon="1.29677">
        <ele>87.8745237</ele>
        <time>2022-08-16T13:03:07Z</time>
      </trkpt>
      <trkpt lat="44.80702" lon="1.29677">
        <ele>87.8745237</ele>
        <time>2022-08-16T13:03:11Z</time>
      </trkpt>
      <trkpt lat="44.80702" lon="1.29677">
        <ele>87.8745237</ele>
        <time>2022-08-16T13:03:15Z</time>
      </trkpt>
      <trkpt lat="44.80702" lon="1.29677">
        <ele>87.8745237</ele>
        <time>2022-08-16T13:03:19Z</time>
      </trkpt>
      <trkpt lat="44.80702" lon="1.29677">
        <ele>87.8745237</ele>
        <time>2022-08-16T13:03:23Z</time>
      </trkpt>
      <trkpt lat="44.80702" lon="1.29677">
        <ele>87.8745237</ele>
        <time>2022-08-16T13:03:27Z</time>
      </trkpt>
      <trkpt lat="44.80702" lon="1.29677">
        <ele>87.8745237</ele>
        <time>2022-08-16T13:03:31Z</time>
      </trkpt>
      <trkpt lat="44.80702" lon="1.29677">
        <ele>87.8745237</ele>
        <time>2022-08-16T13:03:35Z</time>
      </trkpt>
      <trkpt lat="44.80702" lon="1.29677">
        <ele>87.8745237</ele>
        <time>2022-08-16T13:03:39Z</time>
      </trkpt>
      <trkpt lat="44.80701" lon="1.29679">
        <ele>85.7806898</ele>
        <time>2022-08-16T13:03:41Z</time>
      </trkpt>
      <trkpt lat="44.80701" lon="1.29679">
        <ele>85.8042505</ele>
        <time>2022-08-16T13:03:43Z</time>
      </trkpt>
      <trkpt lat="44.80701" lon="1.29679">
        <ele>85.6304841</ele>
        <time>2022-08-16T13:03:45Z</time>
      </trkpt>
      <trkpt lat="44.80701" lon="1.2968">
        <ele>85.5386271</ele>
        <time>2022-08-16T13:03:47Z</time>
      </trkpt>
      <trkpt lat="44.80701" lon="1.2968">
        <ele>85.4727173</ele>
        <time>2022-08-16T13:03:49Z</time>
      </trkpt>
      <trkpt lat="44.80701" lon="1.29681">
        <ele>85.3081569</ele>
        <time>2022-08-16T13:03:53Z</time>
      </trkpt>
      <trkpt lat="44.80701" lon="1.29681">
        <ele>85.3391344</ele>
        <time>2022-08-16T13:03:55Z</time>
      </trkpt>
      <trkpt lat="44.80701" lon="1.29681">
        <ele>85.4627998</ele>
        <time>2022-08-16T13:03:57Z</time>
      </trkpt>
      <trkpt lat="44.80701" lon="1.29681">
        <ele>85.7729592</ele>
        <time>2022-08-16T13:03:59Z</time>
      </trkpt>
      <trkpt lat="44.80701" lon="1.29681">
        <ele>86.3200142</ele>
        <time>2022-08-16T13:04:01Z</time>
      </trkpt>
      <trkpt lat="44.80701" lon="1.29682">
        <ele>86.7707882</ele>
        <time>2022-08-16T13:04:03Z</time>
      </trkpt>
      <trkpt lat="44.80701" lon="1.29681">
        <ele>86.9354002</ele>
        <time>2022-08-16T13:04:05Z</time>
      </trkpt>
      <trkpt lat="44.80701" lon="1.29681">
        <ele>87.5143632</ele>
        <time>2022-08-16T13:04:07Z</time>
      </trkpt>
      <trkpt lat="44.807" lon="1.2968">
        <ele>87.6798298</ele>
        <time>2022-08-16T13:04:09Z</time>
      </trkpt>
      <trkpt lat="44.80698" lon="1.2968">
        <ele>87.9812497</ele>
        <time>2022-08-16T13:04:11Z</time>
      </trkpt>
      <trkpt lat="44.80698" lon="1.2968">
        <ele>87.9082186</ele>
        <time>2022-08-16T13:04:13Z</time>
      </trkpt>
      <trkpt lat="44.80698" lon="1.2968">
        <ele>86.9971901</ele>
        <time>2022-08-16T13:04:15Z</time>
      </trkpt>
      <trkpt lat="44.80698" lon="1.2968">
        <ele>86.8672927</ele>
        <time>2022-08-16T13:04:17Z</time>
      </trkpt>
      <trkpt lat="44.80698" lon="1.2968">
        <ele>87.6262415</ele>
        <time>2022-08-16T13:04:19Z</time>
      </trkpt>
      <trkpt lat="44.80698" lon="1.2968">
        <ele>87.6354576</ele>
        <time>2022-08-16T13:04:21Z</time>
      </trkpt>
      <trkpt lat="44.80698" lon="1.2968">
        <ele>88.3358435</ele>
        <time>2022-08-16T13:04:25Z</time>
      </trkpt>
      <trkpt lat="44.80697" lon="1.2968">
        <ele>88.9607651</ele>
        <time>2022-08-16T13:04:27Z</time>
      </trkpt>
      <trkpt lat="44.80697" lon="1.2968">
        <ele>88.7790802</ele>
        <time>2022-08-16T13:04:29Z</time>
      </trkpt>
      <trkpt lat="44.80697" lon="1.2968">
        <ele>88.632997</ele>
        <time>2022-08-16T13:04:31Z</time>
      </trkpt>
      <trkpt lat="44.80697" lon="1.2968">
        <ele>88.0998393</ele>
        <time>2022-08-16T13:04:33Z</time>
      </trkpt>
      <trkpt lat="44.80697" lon="1.2968">
        <ele>88.1808128</ele>
        <time>2022-08-16T13:04:35Z</time>
      </trkpt>
      <trkpt lat="44.80697" lon="1.2968">
        <ele>87.7296277</ele>
        <time>2022-08-16T13:04:37Z</time>
      </trkpt>
      <trkpt lat="44.80697" lon="1.2968">
        <ele>87.0936379</ele>
        <time>2022-08-16T13:04:39Z</time>
      </trkpt>
      <trkpt lat="44.80697" lon="1.2968">
        <ele>86.9914821</ele>
        <time>2022-08-16T13:04:41Z</time>
      </trkpt>
      <trkpt lat="44.80697" lon="1.2968">
        <ele>86.7990634</ele>
        <time>2022-08-16T13:04:43Z</time>
      </trkpt>
      <trkpt lat="44.80698" lon="1.29681">
        <ele>86.5459738</ele>
        <time>2022-08-16T13:04:45Z</time>
      </trkpt>
      <trkpt lat="44.80698" lon="1.29681">
        <ele>86.4982363</ele>
        <time>2022-08-16T13:04:47Z</time>
      </trkpt>
      <trkpt lat="44.80697" lon="1.29681">
        <ele>86.7359633</ele>
        <time>2022-08-16T13:04:49Z</time>
      </trkpt>
      <trkpt lat="44.80695" lon="1.29679">
        <ele>87.3048371</ele>
        <time>2022-08-16T13:04:51Z</time>
      </trkpt>
      <trkpt lat="44.80695" lon="1.29675">
        <ele>87.2807778</ele>
        <time>2022-08-16T13:04:53Z</time>
      </trkpt>
      <trkpt lat="44.80697" lon="1.29675">
        <ele>87.069432</ele>
        <time>2022-08-16T13:04:55Z</time>
      </trkpt>
      <trkpt lat="44.80701" lon="1.29675">
        <ele>86.6858223</ele>
        <time>2022-08-16T13:04:57Z</time>
      </trkpt>
      <trkpt lat="44.80705" lon="1.29673">
        <ele>86.7709303</ele>
        <time>2022-08-16T13:04:59Z</time>
      </trkpt>
      <trkpt lat="44.80709" lon="1.29671">
        <ele>87.0921251</ele>
        <time>2022-08-16T13:05:01Z</time>
      </trkpt>
      <trkpt lat="44.80712" lon="1.29668">
        <ele>87.1231616</ele>
        <time>2022-08-16T13:05:03Z</time>
      </trkpt>
      <trkpt lat="44.80715" lon="1.29669">
        <ele>87.5592046</ele>
        <time>2022-08-16T13:05:05Z</time>
      </trkpt>
      <trkpt lat="44.80718" lon="1.29669">
        <ele>86.820661</ele>
        <time>2022-08-16T13:05:07Z</time>
      </trkpt>
      <trkpt lat="44.80717" lon="1.29662">
        <ele>87.0810605</ele>
        <time>2022-08-16T13:05:09Z</time>
      </trkpt>
      <trkpt lat="44.80717" lon="1.29656">
        <ele>87.2613018</ele>
        <time>2022-08-16T13:05:11Z</time>
      </trkpt>
      <trkpt lat="44.80716" lon="1.29649">
        <ele>88.1291722</ele>
        <time>2022-08-16T13:05:13Z</time>
      </trkpt>
      <trkpt lat="44.80714" lon="1.29642">
        <ele>88.2678138</ele>
        <time>2022-08-16T13:05:15Z</time>
      </trkpt>
      <trkpt lat="44.80714" lon="1.29634">
        <ele>88.017331</ele>
        <time>2022-08-16T13:05:17Z</time>
      </trkpt>
      <trkpt lat="44.80713" lon="1.29627">
        <ele>88.3309852</ele>
        <time>2022-08-16T13:05:19Z</time>
      </trkpt>
      <trkpt lat="44.80712" lon="1.2962">
        <ele>89.0406255</ele>
        <time>2022-08-16T13:05:21Z</time>
      </trkpt>
      <trkpt lat="44.80712" lon="1.29613">
        <ele>88.5408256</ele>
        <time>2022-08-16T13:05:23Z</time>
      </trkpt>
      <trkpt lat="44.80711" lon="1.29606">
        <ele>87.7680489</ele>
        <time>2022-08-16T13:05:25Z</time>
      </trkpt>
      <trkpt lat="44.8071" lon="1.296">
        <ele>88.0210597</ele>
        <time>2022-08-16T13:05:27Z</time>
      </trkpt>
      <trkpt lat="44.80709" lon="1.29593">
        <ele>88.0642406</ele>
        <time>2022-08-16T13:05:29Z</time>
      </trkpt>
      <trkpt lat="44.80708" lon="1.29584">
        <ele>88.4043466</ele>
        <time>2022-08-16T13:05:31Z</time>
      </trkpt>
      <trkpt lat="44.80707" lon="1.29577">
        <ele>88.4113495</ele>
        <time>2022-08-16T13:05:33Z</time>
      </trkpt>
      <trkpt lat="44.80705" lon="1.29569">
        <ele>88.5593618</ele>
        <time>2022-08-16T13:05:35Z</time>
      </trkpt>
      <trkpt lat="44.80703" lon="1.29561">
        <ele>88.4086234</ele>
        <time>2022-08-16T13:05:37Z</time>
      </trkpt>
      <trkpt lat="44.80702" lon="1.29553">
        <ele>88.5465306</ele>
        <time>2022-08-16T13:05:39Z</time>
      </trkpt>
      <trkpt lat="44.80703" lon="1.29545">
        <ele>88.2849821</ele>
        <time>2022-08-16T13:05:41Z</time>
      </trkpt>
      <trkpt lat="44.80704" lon="1.29538">
        <ele>87.6451751</ele>
        <time>2022-08-16T13:05:43Z</time>
      </trkpt>
      <trkpt lat="44.80704" lon="1.29531">
        <ele>87.2281772</ele>
        <time>2022-08-16T13:05:45Z</time>
      </trkpt>
      <trkpt lat="44.80706" lon="1.29524">
        <ele>87.2373264</ele>
        <time>2022-08-16T13:05:47Z</time>
      </trkpt>
      <trkpt lat="44.80707" lon="1.29516">
        <ele>86.7218852</ele>
        <time>2022-08-16T13:05:49Z</time>
      </trkpt>
      <trkpt lat="44.8071" lon="1.29508">
        <ele>86.5102524</ele>
        <time>2022-08-16T13:05:51Z</time>
      </trkpt>
      <trkpt lat="44.80714" lon="1.295">
        <ele>86.7832174</ele>
        <time>2022-08-16T13:05:53Z</time>
      </trkpt>
      <trkpt lat="44.80717" lon="1.29494">
        <ele>87.6601234</ele>
        <time>2022-08-16T13:05:55Z</time>
      </trkpt>
      <trkpt lat="44.8072" lon="1.29487">
        <ele>88.0974781</ele>
        <time>2022-08-16T13:05:57Z</time>
      </trkpt>
      <trkpt lat="44.80723" lon="1.29481">
        <ele>88.4596924</ele>
        <time>2022-08-16T13:05:59Z</time>
      </trkpt>
      <trkpt lat="44.80725" lon="1.29475">
        <ele>87.9949679</ele>
        <time>2022-08-16T13:06:01Z</time>
      </trkpt>
      <trkpt lat="44.80727" lon="1.29468">
        <ele>87.7004797</ele>
        <time>2022-08-16T13:06:03Z</time>
      </trkpt>
      <trkpt lat="44.80729" lon="1.2946">
        <ele>87.4045395</ele>
        <time>2022-08-16T13:06:05Z</time>
      </trkpt>
      <trkpt lat="44.80732" lon="1.29453">
        <ele>87.4447281</ele>
        <time>2022-08-16T13:06:07Z</time>
      </trkpt>
      <trkpt lat="44.80737" lon="1.29453">
        <ele>87.9026931</ele>
        <time>2022-08-16T13:06:09Z</time>
      </trkpt>
      <trkpt lat="44.80741" lon="1.29456">
        <ele>88.5907526</ele>
        <time>2022-08-16T13:06:11Z</time>
      </trkpt>
      <trkpt lat="44.80744" lon="1.29458">
        <ele>89.5968416</ele>
        <time>2022-08-16T13:06:13Z</time>
      </trkpt>
      <trkpt lat="44.80746" lon="1.2946">
        <ele>90.5775223</ele>
        <time>2022-08-16T13:06:15Z</time>
      </trkpt>
      <trkpt lat="44.80748" lon="1.29461">
        <ele>90.8640862</ele>
        <time>2022-08-16T13:06:17Z</time>
      </trkpt>
      <trkpt lat="44.8075" lon="1.29461">
        <ele>90.5374926</ele>
        <time>2022-08-16T13:06:19Z</time>
      </trkpt>
      <trkpt lat="44.80753" lon="1.29463">
        <ele>90.7923791</ele>
        <time>2022-08-16T13:06:21Z</time>
      </trkpt>
      <trkpt lat="44.80755" lon="1.29464">
        <ele>91.1173349</ele>
        <time>2022-08-16T13:06:23Z</time>
      </trkpt>
      <trkpt lat="44.80757" lon="1.29466">
        <ele>91.5050157</ele>
        <time>2022-08-16T13:06:25Z</time>
      </trkpt>
      <trkpt lat="44.80761" lon="1.29467">
        <ele>92.0547605</ele>
        <time>2022-08-16T13:06:27Z</time>
      </trkpt>
      <trkpt lat="44.80765" lon="1.29467">
        <ele>92.1686439</ele>
        <time>2022-08-16T13:06:29Z</time>
      </trkpt>
      <trkpt lat="44.80769" lon="1.29465">
        <ele>91.8683057</ele>
        <time>2022-08-16T13:06:31Z</time>
      </trkpt>
      <trkpt lat="44.80772" lon="1.29462">
        <ele>92.0813142</ele>
        <time>2022-08-16T13:06:33Z</time>
      </trkpt>
      <trkpt lat="44.80776" lon="1.29459">
        <ele>92.4895678</ele>
        <time>2022-08-16T13:06:35Z</time>
      </trkpt>
      <trkpt lat="44.80777" lon="1.29454">
        <ele>92.3509169</ele>
        <time>2022-08-16T13:06:37Z</time>
      </trkpt>
      <trkpt lat="44.80779" lon="1.2945">
        <ele>93.6948356</ele>
        <time>2022-08-16T13:06:39Z</time>
      </trkpt>
      <trkpt lat="44.80781" lon="1.29446">
        <ele>93.8386278</ele>
        <time>2022-08-16T13:06:41Z</time>
      </trkpt>
      <trkpt lat="44.80782" lon="1.29441">
        <ele>94.5244151</ele>
        <time>2022-08-16T13:06:43Z</time>
      </trkpt>
      <trkpt lat="44.80783" lon="1.29437">
        <ele>94.8794247</ele>
        <time>2022-08-16T13:06:45Z</time>
      </trkpt>
      <trkpt lat="44.80784" lon="1.29432">
        <ele>95.5683721</ele>
        <time>2022-08-16T13:06:47Z</time>
      </trkpt>
      <trkpt lat="44.80785" lon="1.29428">
        <ele>95.6030714</ele>
        <time>2022-08-16T13:06:49Z</time>
      </trkpt>
      <trkpt lat="44.80785" lon="1.29424">
        <ele>95.8697727</ele>
        <time>2022-08-16T13:06:51Z</time>
      </trkpt>
      <trkpt lat="44.80786" lon="1.29419">
        <ele>95.9256801</ele>
        <time>2022-08-16T13:06:53Z</time>
      </trkpt>
      <trkpt lat="44.80787" lon="1.29415">
        <ele>96.2195771</ele>
        <time>2022-08-16T13:06:55Z</time>
      </trkpt>
      <trkpt lat="44.80788" lon="1.2941">
        <ele>96.3946767</ele>
        <time>2022-08-16T13:06:57Z</time>
      </trkpt>
      <trkpt lat="44.80788" lon="1.29405">
        <ele>95.7195294</ele>
        <time>2022-08-16T13:06:59Z</time>
      </trkpt>
      <trkpt lat="44.80789" lon="1.29402">
        <ele>96.3030875</ele>
        <time>2022-08-16T13:07:01Z</time>
      </trkpt>
      <trkpt lat="44.80789" lon="1.29397">
        <ele>96.1129439</ele>
        <time>2022-08-16T13:07:03Z</time>
      </trkpt>
      <trkpt lat="44.8079" lon="1.29391">
        <ele>96.3620609</ele>
        <time>2022-08-16T13:07:05Z</time>
      </trkpt>
      <trkpt lat="44.80791" lon="1.29387">
        <ele>96.543389</ele>
        <time>2022-08-16T13:07:07Z</time>
      </trkpt>
      <trkpt lat="44.80793" lon="1.29383">
        <ele>96.8862073</ele>
        <time>2022-08-16T13:07:09Z</time>
      </trkpt>
      <trkpt lat="44.80794" lon="1.29378">
        <ele>97.3131589</ele>
        <time>2022-08-16T13:07:11Z</time>
      </trkpt>
      <trkpt lat="44.80795" lon="1.29374">
        <ele>97.6565947</ele>
        <time>2022-08-16T13:07:13Z</time>
      </trkpt>
      <trkpt lat="44.80796" lon="1.29369">
        <ele>98.2862615</ele>
        <time>2022-08-16T13:07:15Z</time>
      </trkpt>
      <trkpt lat="44.80797" lon="1.29364">
        <ele>98.0733143</ele>
        <time>2022-08-16T13:07:17Z</time>
      </trkpt>
      <trkpt lat="44.80799" lon="1.2936">
        <ele>98.5596697</ele>
        <time>2022-08-16T13:07:19Z</time>
      </trkpt>
      <trkpt lat="44.80801" lon="1.29357">
        <ele>99.8688405</ele>
        <time>2022-08-16T13:07:21Z</time>
      </trkpt>
      <trkpt lat="44.80804" lon="1.29356">
        <ele>100.4553087</ele>
        <time>2022-08-16T13:07:23Z</time>
      </trkpt>
      <trkpt lat="44.80808" lon="1.29354">
        <ele>101.5840304</ele>
        <time>2022-08-16T13:07:25Z</time>
      </trkpt>
      <trkpt lat="44.80811" lon="1.29355">
        <ele>101.8773916</ele>
        <time>2022-08-16T13:07:27Z</time>
      </trkpt>
      <trkpt lat="44.80814" lon="1.29356">
        <ele>102.2561476</ele>
        <time>2022-08-16T13:07:29Z</time>
      </trkpt>
      <trkpt lat="44.80816" lon="1.29359">
        <ele>102.7835309</ele>
        <time>2022-08-16T13:07:31Z</time>
      </trkpt>
      <trkpt lat="44.80819" lon="1.29362">
        <ele>102.9217191</ele>
        <time>2022-08-16T13:07:33Z</time>
      </trkpt>
      <trkpt lat="44.80821" lon="1.29367">
        <ele>103.2141849</ele>
        <time>2022-08-16T13:07:35Z</time>
      </trkpt>
      <trkpt lat="44.80822" lon="1.29372">
        <ele>103.7215409</ele>
        <time>2022-08-16T13:07:37Z</time>
      </trkpt>
      <trkpt lat="44.80823" lon="1.29377">
        <ele>103.885901</ele>
        <time>2022-08-16T13:07:39Z</time>
      </trkpt>
      <trkpt lat="44.80824" lon="1.29382">
        <ele>103.5659599</ele>
        <time>2022-08-16T13:07:41Z</time>
      </trkpt>
      <trkpt lat="44.80824" lon="1.29387">
        <ele>103.9902664</ele>
        <time>2022-08-16T13:07:43Z</time>
      </trkpt>
      <trkpt lat="44.80823" lon="1.29392">
        <ele>104.168016</ele>
        <time>2022-08-16T13:07:45Z</time>
      </trkpt>
      <trkpt lat="44.80824" lon="1.29398">
        <ele>103.9262601</ele>
        <time>2022-08-16T13:07:47Z</time>
      </trkpt>
      <trkpt lat="44.80824" lon="1.29403">
        <ele>103.9213024</ele>
        <time>2022-08-16T13:07:49Z</time>
      </trkpt>
      <trkpt lat="44.80825" lon="1.29409">
        <ele>104.2041221</ele>
        <time>2022-08-16T13:07:51Z</time>
      </trkpt>
      <trkpt lat="44.80828" lon="1.29412">
        <ele>104.6036374</ele>
        <time>2022-08-16T13:07:53Z</time>
      </trkpt>
      <trkpt lat="44.80832" lon="1.29411">
        <ele>105.2793139</ele>
        <time>2022-08-16T13:07:55Z</time>
      </trkpt>
      <trkpt lat="44.80834" lon="1.29407">
        <ele>105.2056478</ele>
        <time>2022-08-16T13:07:57Z</time>
      </trkpt>
      <trkpt lat="44.80835" lon="1.29401">
        <ele>105.3897782</ele>
        <time>2022-08-16T13:07:59Z</time>
      </trkpt>
      <trkpt lat="44.80836" lon="1.29397">
        <ele>105.2513479</ele>
        <time>2022-08-16T13:08:01Z</time>
      </trkpt>
      <trkpt lat="44.80837" lon="1.29392">
        <ele>105.5673734</ele>
        <time>2022-08-16T13:08:03Z</time>
      </trkpt>
      <trkpt lat="44.80838" lon="1.29387">
        <ele>105.9322885</ele>
        <time>2022-08-16T13:08:05Z</time>
      </trkpt>
      <trkpt lat="44.80838" lon="1.29382">
        <ele>106.0343621</ele>
        <time>2022-08-16T13:08:07Z</time>
      </trkpt>
      <trkpt lat="44.80838" lon="1.29376">
        <ele>105.9458777</ele>
        <time>2022-08-16T13:08:09Z</time>
      </trkpt>
      <trkpt lat="44.8084" lon="1.29371">
        <ele>106.0956605</ele>
        <time>2022-08-16T13:08:11Z</time>
      </trkpt>
      <trkpt lat="44.8084" lon="1.29366">
        <ele>105.9612677</ele>
        <time>2022-08-16T13:08:13Z</time>
      </trkpt>
      <trkpt lat="44.80841" lon="1.2936">
        <ele>106.2010682</ele>
        <time>2022-08-16T13:08:15Z</time>
      </trkpt>
      <trkpt lat="44.80842" lon="1.29355">
        <ele>106.8662627</ele>
        <time>2022-08-16T13:08:17Z</time>
      </trkpt>
      <trkpt lat="44.80843" lon="1.2935">
        <ele>107.122901</ele>
        <time>2022-08-16T13:08:19Z</time>
      </trkpt>
      <trkpt lat="44.80843" lon="1.29344">
        <ele>107.9862857</ele>
        <time>2022-08-16T13:08:21Z</time>
      </trkpt>
      <trkpt lat="44.80844" lon="1.29339">
        <ele>107.9206546</ele>
        <time>2022-08-16T13:08:23Z</time>
      </trkpt>
      <trkpt lat="44.80845" lon="1.29334">
        <ele>108.0707032</ele>
        <time>2022-08-16T13:08:25Z</time>
      </trkpt>
      <trkpt lat="44.80847" lon="1.29329">
        <ele>108.6225905</ele>
        <time>2022-08-16T13:08:27Z</time>
      </trkpt>
      <trkpt lat="44.80849" lon="1.29325">
        <ele>108.5165427</ele>
        <time>2022-08-16T13:08:29Z</time>
      </trkpt>
      <trkpt lat="44.80852" lon="1.29321">
        <ele>109.1867605</ele>
        <time>2022-08-16T13:08:31Z</time>
      </trkpt>
      <trkpt lat="44.80855" lon="1.29318">
        <ele>109.0297336</ele>
        <time>2022-08-16T13:08:33Z</time>
      </trkpt>
      <trkpt lat="44.80859" lon="1.29315">
        <ele>110.6907994</ele>
        <time>2022-08-16T13:08:35Z</time>
      </trkpt>
      <trkpt lat="44.80862" lon="1.29313">
        <ele>111.6248888</ele>
        <time>2022-08-16T13:08:37Z</time>
      </trkpt>
      <trkpt lat="44.80866" lon="1.2931">
        <ele>112.1939442</ele>
        <time>2022-08-16T13:08:39Z</time>
      </trkpt>
      <trkpt lat="44.8087" lon="1.29308">
        <ele>112.9236158</ele>
        <time>2022-08-16T13:08:41Z</time>
      </trkpt>
      <trkpt lat="44.80875" lon="1.29306">
        <ele>113.9742955</ele>
        <time>2022-08-16T13:08:43Z</time>
      </trkpt>
      <trkpt lat="44.80879" lon="1.29304">
        <ele>114.3851893</ele>
        <time>2022-08-16T13:08:45Z</time>
      </trkpt>
      <trkpt lat="44.80883" lon="1.29302">
        <ele>114.6193299</ele>
        <time>2022-08-16T13:08:47Z</time>
      </trkpt>
      <trkpt lat="44.80887" lon="1.293">
        <ele>114.842037</ele>
        <time>2022-08-16T13:08:49Z</time>
      </trkpt>
      <trkpt lat="44.80892" lon="1.29299">
        <ele>115.2574948</ele>
        <time>2022-08-16T13:08:51Z</time>
      </trkpt>
      <trkpt lat="44.80897" lon="1.29298">
        <ele>115.8844117</ele>
        <time>2022-08-16T13:08:53Z</time>
      </trkpt>
      <trkpt lat="44.80901" lon="1.29296">
        <ele>116.7292881</ele>
        <time>2022-08-16T13:08:55Z</time>
      </trkpt>
      <trkpt lat="44.80905" lon="1.29294">
        <ele>116.8146949</ele>
        <time>2022-08-16T13:08:57Z</time>
      </trkpt>
      <trkpt lat="44.80909" lon="1.29292">
        <ele>117.4886569</ele>
        <time>2022-08-16T13:08:59Z</time>
      </trkpt>
      <trkpt lat="44.80913" lon="1.29291">
        <ele>117.417331</ele>
        <time>2022-08-16T13:09:01Z</time>
      </trkpt>
      <trkpt lat="44.80918" lon="1.29289">
        <ele>117.2738904</ele>
        <time>2022-08-16T13:09:03Z</time>
      </trkpt>
      <trkpt lat="44.80921" lon="1.29286">
        <ele>117.6973909</ele>
        <time>2022-08-16T13:09:05Z</time>
      </trkpt>
      <trkpt lat="44.80925" lon="1.29285">
        <ele>117.051417</ele>
        <time>2022-08-16T13:09:07Z</time>
      </trkpt>
      <trkpt lat="44.80928" lon="1.29284">
        <ele>116.7653459</ele>
        <time>2022-08-16T13:09:09Z</time>
      </trkpt>
      <trkpt lat="44.80931" lon="1.29281">
        <ele>116.118899</ele>
        <time>2022-08-16T13:09:11Z</time>
      </trkpt>
      <trkpt lat="44.80935" lon="1.2928">
        <ele>116.2595653</ele>
        <time>2022-08-16T13:09:13Z</time>
      </trkpt>
      <trkpt lat="44.80939" lon="1.29279">
        <ele>115.3305475</ele>
        <time>2022-08-16T13:09:15Z</time>
      </trkpt>
      <trkpt lat="44.80943" lon="1.29278">
        <ele>115.3277561</ele>
        <time>2022-08-16T13:09:17Z</time>
      </trkpt>
      <trkpt lat="44.80946" lon="1.29276">
        <ele>115.3067033</ele>
        <time>2022-08-16T13:09:19Z</time>
      </trkpt>
      <trkpt lat="44.80948" lon="1.29276">
        <ele>115.1729998</ele>
        <time>2022-08-16T13:09:21Z</time>
      </trkpt>
      <trkpt lat="44.8095" lon="1.29275">
        <ele>114.6035122</ele>
        <time>2022-08-16T13:09:23Z</time>
      </trkpt>
      <trkpt lat="44.80952" lon="1.29274">
        <ele>114.8321278</ele>
        <time>2022-08-16T13:09:25Z</time>
      </trkpt>
      <trkpt lat="44.80952" lon="1.29274">
        <ele>114.7018464</ele>
        <time>2022-08-16T13:09:27Z</time>
      </trkpt>
      <trkpt lat="44.80952" lon="1.29274">
        <ele>114.4894251</ele>
        <time>2022-08-16T13:09:29Z</time>
      </trkpt>
      <trkpt lat="44.80953" lon="1.29273">
        <ele>114.8383165</ele>
        <time>2022-08-16T13:09:31Z</time>
      </trkpt>
      <trkpt lat="44.80953" lon="1.29273">
        <ele>114.83931</ele>
        <time>2022-08-16T13:09:33Z</time>
      </trkpt>
      <trkpt lat="44.80953" lon="1.29273">
        <ele>114.0461821</ele>
        <time>2022-08-16T13:09:35Z</time>
      </trkpt>
      <trkpt lat="44.80953" lon="1.29273">
        <ele>113.879636</ele>
        <time>2022-08-16T13:09:37Z</time>
      </trkpt>
      <trkpt lat="44.80952" lon="1.29273">
        <ele>114.2035958</ele>
        <time>2022-08-16T13:09:39Z</time>
      </trkpt>
      <trkpt lat="44.80953" lon="1.29274">
        <ele>114.4126357</ele>
        <time>2022-08-16T13:09:41Z</time>
      </trkpt>
      <trkpt lat="44.80953" lon="1.29274">
        <ele>114.3972991</ele>
        <time>2022-08-16T13:09:43Z</time>
      </trkpt>
      <trkpt lat="44.80954" lon="1.29272">
        <ele>114.3312676</ele>
        <time>2022-08-16T13:09:45Z</time>
      </trkpt>
      <trkpt lat="44.80957" lon="1.2927">
        <ele>114.3340288</ele>
        <time>2022-08-16T13:09:47Z</time>
      </trkpt>
      <trkpt lat="44.80961" lon="1.29269">
        <ele>113.9850015</ele>
        <time>2022-08-16T13:09:49Z</time>
      </trkpt>
      <trkpt lat="44.80966" lon="1.29267">
        <ele>113.5507627</ele>
        <time>2022-08-16T13:09:51Z</time>
      </trkpt>
      <trkpt lat="44.80972" lon="1.29263">
        <ele>112.8065562</ele>
        <time>2022-08-16T13:09:53Z</time>
      </trkpt>
      <trkpt lat="44.80979" lon="1.29258">
        <ele>112.4405394</ele>
        <time>2022-08-16T13:09:55Z</time>
      </trkpt>
      <trkpt lat="44.80987" lon="1.29252">
        <ele>111.7193112</ele>
        <time>2022-08-16T13:09:57Z</time>
      </trkpt>
      <trkpt lat="44.80995" lon="1.29245">
        <ele>111.7390902</ele>
        <time>2022-08-16T13:09:59Z</time>
      </trkpt>
      <trkpt lat="44.81003" lon="1.29238">
        <ele>111.1735305</ele>
        <time>2022-08-16T13:10:01Z</time>
      </trkpt>
      <trkpt lat="44.81009" lon="1.29229">
        <ele>111.5642617</ele>
        <time>2022-08-16T13:10:03Z</time>
      </trkpt>
      <trkpt lat="44.81015" lon="1.2922">
        <ele>110.7921035</ele>
        <time>2022-08-16T13:10:05Z</time>
      </trkpt>
      <trkpt lat="44.81023" lon="1.29212">
        <ele>110.2701653</ele>
        <time>2022-08-16T13:10:07Z</time>
      </trkpt>
      <trkpt lat="44.8103" lon="1.29204">
        <ele>110.4888035</ele>
        <time>2022-08-16T13:10:09Z</time>
      </trkpt>
      <trkpt lat="44.81038" lon="1.29197">
        <ele>111.1513932</ele>
        <time>2022-08-16T13:10:11Z</time>
      </trkpt>
      <trkpt lat="44.81046" lon="1.2919">
        <ele>110.7794245</ele>
        <time>2022-08-16T13:10:13Z</time>
      </trkpt>
      <trkpt lat="44.81054" lon="1.29184">
        <ele>110.7023066</ele>
        <time>2022-08-16T13:10:15Z</time>
      </trkpt>
      <trkpt lat="44.81062" lon="1.29178">
        <ele>110.7943351</ele>
        <time>2022-08-16T13:10:17Z</time>
      </trkpt>
      <trkpt lat="44.8107" lon="1.29173">
        <ele>111.5842316</ele>
        <time>2022-08-16T13:10:19Z</time>
      </trkpt>
      <trkpt lat="44.81077" lon="1.29169">
        <ele>111.4861036</ele>
        <time>2022-08-16T13:10:21Z</time>
      </trkpt>
      <trkpt lat="44.81084" lon="1.29165">
        <ele>111.8411622</ele>
        <time>2022-08-16T13:10:23Z</time>
      </trkpt>
      <trkpt lat="44.8109" lon="1.29161">
        <ele>111.7362087</ele>
        <time>2022-08-16T13:10:25Z</time>
      </trkpt>
      <trkpt lat="44.81098" lon="1.29156">
        <ele>111.9091545</ele>
        <time>2022-08-16T13:10:27Z</time>
      </trkpt>
      <trkpt lat="44.81105" lon="1.29149">
        <ele>111.5375977</ele>
        <time>2022-08-16T13:10:29Z</time>
      </trkpt>
      <trkpt lat="44.81112" lon="1.29144">
        <ele>111.0301334</ele>
        <time>2022-08-16T13:10:31Z</time>
      </trkpt>
      <trkpt lat="44.8112" lon="1.29139">
        <ele>111.1741202</ele>
        <time>2022-08-16T13:10:33Z</time>
      </trkpt>
      <trkpt lat="44.81128" lon="1.29134">
        <ele>111.4782732</ele>
        <time>2022-08-16T13:10:35Z</time>
      </trkpt>
      <trkpt lat="44.81136" lon="1.29131">
        <ele>111.805163</ele>
        <time>2022-08-16T13:10:37Z</time>
      </trkpt>
      <trkpt lat="44.81145" lon="1.29126">
        <ele>111.0480589</ele>
        <time>2022-08-16T13:10:39Z</time>
      </trkpt>
      <trkpt lat="44.81154" lon="1.29122">
        <ele>111.0397407</ele>
        <time>2022-08-16T13:10:41Z</time>
      </trkpt>
      <trkpt lat="44.81163" lon="1.29118">
        <ele>110.5417138</ele>
        <time>2022-08-16T13:10:43Z</time>
      </trkpt>
      <trkpt lat="44.81172" lon="1.29114">
        <ele>110.2343044</ele>
        <time>2022-08-16T13:10:45Z</time>
      </trkpt>
      <trkpt lat="44.81181" lon="1.29111">
        <ele>109.6563398</ele>
        <time>2022-08-16T13:10:47Z</time>
      </trkpt>
      <trkpt lat="44.81191" lon="1.29108">
        <ele>109.022588</ele>
        <time>2022-08-16T13:10:49Z</time>
      </trkpt>
      <trkpt lat="44.812" lon="1.29105">
        <ele>108.4573409</ele>
        <time>2022-08-16T13:10:51Z</time>
      </trkpt>
      <trkpt lat="44.81209" lon="1.29104">
        <ele>108.3005422</ele>
        <time>2022-08-16T13:10:53Z</time>
      </trkpt>
      <trkpt lat="44.81217" lon="1.29103">
        <ele>109.8093605</ele>
        <time>2022-08-16T13:10:55Z</time>
      </trkpt>
      <trkpt lat="44.81225" lon="1.29101">
        <ele>109.3878978</ele>
        <time>2022-08-16T13:10:57Z</time>
      </trkpt>
      <trkpt lat="44.81232" lon="1.29099">
        <ele>109.6658897</ele>
        <time>2022-08-16T13:10:59Z</time>
      </trkpt>
      <trkpt lat="44.81239" lon="1.29098">
        <ele>110.3860089</ele>
        <time>2022-08-16T13:11:01Z</time>
      </trkpt>
      <trkpt lat="44.81245" lon="1.29097">
        <ele>110.8894557</ele>
        <time>2022-08-16T13:11:03Z</time>
      </trkpt>
      <trkpt lat="44.81251" lon="1.29096">
        <ele>112.6591022</ele>
        <time>2022-08-16T13:11:05Z</time>
      </trkpt>
      <trkpt lat="44.81257" lon="1.29095">
        <ele>113.5630142</ele>
        <time>2022-08-16T13:11:07Z</time>
      </trkpt>
      <trkpt lat="44.81263" lon="1.29095">
        <ele>115.3535231</ele>
        <time>2022-08-16T13:11:09Z</time>
      </trkpt>
      <trkpt lat="44.81269" lon="1.29093">
        <ele>117.0148704</ele>
        <time>2022-08-16T13:11:11Z</time>
      </trkpt>
      <trkpt lat="44.81273" lon="1.29091">
        <ele>116.116412</ele>
        <time>2022-08-16T13:11:13Z</time>
      </trkpt>
      <trkpt lat="44.81278" lon="1.29088">
        <ele>117.4005142</ele>
        <time>2022-08-16T13:11:15Z</time>
      </trkpt>
      <trkpt lat="44.81282" lon="1.29089">
        <ele>117.8786603</ele>
        <time>2022-08-16T13:11:17Z</time>
      </trkpt>
      <trkpt lat="44.81287" lon="1.29086">
        <ele>118.3681615</ele>
        <time>2022-08-16T13:11:19Z</time>
      </trkpt>
      <trkpt lat="44.81292" lon="1.29083">
        <ele>118.52373</ele>
        <time>2022-08-16T13:11:21Z</time>
      </trkpt>
      <trkpt lat="44.81297" lon="1.29079">
        <ele>117.9627627</ele>
        <time>2022-08-16T13:11:23Z</time>
      </trkpt>
      <trkpt lat="44.81304" lon="1.29073">
        <ele>116.0538398</ele>
        <time>2022-08-16T13:11:25Z</time>
      </trkpt>
      <trkpt lat="44.81314" lon="1.29064">
        <ele>114.5966529</ele>
        <time>2022-08-16T13:11:27Z</time>
      </trkpt>
      <trkpt lat="44.81325" lon="1.29054">
        <ele>112.2856456</ele>
        <time>2022-08-16T13:11:29Z</time>
      </trkpt>
      <trkpt lat="44.8134" lon="1.29052">
        <ele>110.5475934</ele>
        <time>2022-08-16T13:11:31Z</time>
      </trkpt>
      <trkpt lat="44.81357" lon="1.29052">
        <ele>109.7324633</ele>
        <time>2022-08-16T13:11:33Z</time>
      </trkpt>
      <trkpt lat="44.81373" lon="1.29052">
        <ele>108.7163199</ele>
        <time>2022-08-16T13:11:35Z</time>
      </trkpt>
      <trkpt lat="44.81388" lon="1.29051">
        <ele>107.3585143</ele>
        <time>2022-08-16T13:11:37Z</time>
      </trkpt>
      <trkpt lat="44.81403" lon="1.29049">
        <ele>105.5531384</ele>
        <time>2022-08-16T13:11:39Z</time>
      </trkpt>
      <trkpt lat="44.81418" lon="1.29049">
        <ele>104.846194</ele>
        <time>2022-08-16T13:11:41Z</time>
      </trkpt>
      <trkpt lat="44.81432" lon="1.29048">
        <ele>104.2081129</ele>
        <time>2022-08-16T13:11:43Z</time>
      </trkpt>
      <trkpt lat="44.81446" lon="1.29048">
        <ele>103.3096973</ele>
        <time>2022-08-16T13:11:45Z</time>
      </trkpt>
      <trkpt lat="44.81458" lon="1.29047">
        <ele>102.4034536</ele>
        <time>2022-08-16T13:11:47Z</time>
      </trkpt>
      <trkpt lat="44.81471" lon="1.29051">
        <ele>101.5885122</ele>
        <time>2022-08-16T13:11:49Z</time>
      </trkpt>
      <trkpt lat="44.81483" lon="1.29055">
        <ele>101.1309685</ele>
        <time>2022-08-16T13:11:51Z</time>
      </trkpt>
      <trkpt lat="44.81495" lon="1.29061">
        <ele>101.2659227</ele>
        <time>2022-08-16T13:11:53Z</time>
      </trkpt>
      <trkpt lat="44.81508" lon="1.29067">
        <ele>101.1283385</ele>
        <time>2022-08-16T13:11:55Z</time>
      </trkpt>
      <trkpt lat="44.81521" lon="1.29073">
        <ele>100.8968927</ele>
        <time>2022-08-16T13:11:57Z</time>
      </trkpt>
      <trkpt lat="44.81534" lon="1.29078">
        <ele>100.3735546</ele>
        <time>2022-08-16T13:11:59Z</time>
      </trkpt>
      <trkpt lat="44.81548" lon="1.29082">
        <ele>100.1284237</ele>
        <time>2022-08-16T13:12:01Z</time>
      </trkpt>
      <trkpt lat="44.81561" lon="1.29086">
        <ele>99.2430261</ele>
        <time>2022-08-16T13:12:03Z</time>
      </trkpt>
      <trkpt lat="44.81575" lon="1.29091">
        <ele>99.6796118</ele>
        <time>2022-08-16T13:12:05Z</time>
      </trkpt>
      <trkpt lat="44.81587" lon="1.29095">
        <ele>99.9191158</ele>
        <time>2022-08-16T13:12:07Z</time>
      </trkpt>
      <trkpt lat="44.81598" lon="1.29101">
        <ele>98.7917537</ele>
        <time>2022-08-16T13:12:09Z</time>
      </trkpt>
      <trkpt lat="44.81609" lon="1.29106">
        <ele>98.5275455</ele>
        <time>2022-08-16T13:12:11Z</time>
      </trkpt>
      <trkpt lat="44.81622" lon="1.29109">
        <ele>98.2348823</ele>
        <time>2022-08-16T13:12:13Z</time>
      </trkpt>
      <trkpt lat="44.81635" lon="1.29113">
        <ele>97.6615901</ele>
        <time>2022-08-16T13:12:15Z</time>
      </trkpt>
      <trkpt lat="44.81649" lon="1.29115">
        <ele>97.1329594</ele>
        <time>2022-08-16T13:12:17Z</time>
      </trkpt>
      <trkpt lat="44.81662" lon="1.2911">
        <ele>96.81577</ele>
        <time>2022-08-16T13:12:19Z</time>
      </trkpt>
      <trkpt lat="44.81673" lon="1.291">
        <ele>95.5454128</ele>
        <time>2022-08-16T13:12:21Z</time>
      </trkpt>
      <trkpt lat="44.81685" lon="1.29088">
        <ele>91.7158458</ele>
        <time>2022-08-16T13:12:23Z</time>
      </trkpt>
      <trkpt lat="44.81696" lon="1.29079">
        <ele>89.5134887</ele>
        <time>2022-08-16T13:12:25Z</time>
      </trkpt>
      <trkpt lat="44.81706" lon="1.29067">
        <ele>86.9091755</ele>
        <time>2022-08-16T13:12:27Z</time>
      </trkpt>
      <trkpt lat="44.81714" lon="1.29057">
        <ele>86.6514921</ele>
        <time>2022-08-16T13:12:29Z</time>
      </trkpt>
      <trkpt lat="44.8172" lon="1.29049">
        <ele>85.9758692</ele>
        <time>2022-08-16T13:12:31Z</time>
      </trkpt>
      <trkpt lat="44.81725" lon="1.29042">
        <ele>85.8919051</ele>
        <time>2022-08-16T13:12:33Z</time>
      </trkpt>
      <trkpt lat="44.8173" lon="1.29037">
        <ele>84.933102</ele>
        <time>2022-08-16T13:12:35Z</time>
      </trkpt>
      <trkpt lat="44.8173" lon="1.29036">
        <ele>85.1664699</ele>
        <time>2022-08-16T13:12:37Z</time>
      </trkpt>
      <trkpt lat="44.81731" lon="1.29035">
        <ele>85.2841909</ele>
        <time>2022-08-16T13:12:39Z</time>
      </trkpt>
      <trkpt lat="44.81732" lon="1.29032">
        <ele>84.893358</ele>
        <time>2022-08-16T13:12:41Z</time>
      </trkpt>
      <trkpt lat="44.81735" lon="1.29031">
        <ele>85.0268593</ele>
        <time>2022-08-16T13:12:43Z</time>
      </trkpt>
      <trkpt lat="44.8174" lon="1.2904">
        <ele>85.1338387</ele>
        <time>2022-08-16T13:12:45Z</time>
      </trkpt>
      <trkpt lat="44.81746" lon="1.29051">
        <ele>82.6019474</ele>
        <time>2022-08-16T13:12:47Z</time>
      </trkpt>
      <trkpt lat="44.81752" lon="1.29063">
        <ele>83.3796405</ele>
        <time>2022-08-16T13:12:49Z</time>
      </trkpt>
      <trkpt lat="44.81759" lon="1.29071">
        <ele>82.2595973</ele>
        <time>2022-08-16T13:12:51Z</time>
      </trkpt>
      <trkpt lat="44.81771" lon="1.29068">
        <ele>82.1382345</ele>
        <time>2022-08-16T13:12:53Z</time>
      </trkpt>
      <trkpt lat="44.8178" lon="1.29062">
        <ele>82.5075729</ele>
        <time>2022-08-16T13:12:55Z</time>
      </trkpt>
      <trkpt lat="44.81788" lon="1.29061">
        <ele>82.7401943</ele>
        <time>2022-08-16T13:12:57Z</time>
      </trkpt>
      <trkpt lat="44.81797" lon="1.29059">
        <ele>82.6524236</ele>
        <time>2022-08-16T13:12:59Z</time>
      </trkpt>
      <trkpt lat="44.81806" lon="1.29056">
        <ele>81.3987501</ele>
        <time>2022-08-16T13:13:01Z</time>
      </trkpt>
      <trkpt lat="44.81815" lon="1.29051">
        <ele>81.3420244</ele>
        <time>2022-08-16T13:13:03Z</time>
      </trkpt>
      <trkpt lat="44.81823" lon="1.29044">
        <ele>80.7166997</ele>
        <time>2022-08-16T13:13:05Z</time>
      </trkpt>
      <trkpt lat="44.81831" lon="1.29033">
        <ele>80.7508545</ele>
        <time>2022-08-16T13:13:07Z</time>
      </trkpt>
      <trkpt lat="44.81839" lon="1.2902">
        <ele>80.6545671</ele>
        <time>2022-08-16T13:13:09Z</time>
      </trkpt>
      <trkpt lat="44.81846" lon="1.29007">
        <ele>82.7887119</ele>
        <time>2022-08-16T13:13:11Z</time>
      </trkpt>
      <trkpt lat="44.8185" lon="1.28998">
        <ele>83.4736943</ele>
        <time>2022-08-16T13:13:13Z</time>
      </trkpt>
      <trkpt lat="44.81856" lon="1.28988">
        <ele>84.176662</ele>
        <time>2022-08-16T13:13:15Z</time>
      </trkpt>
      <trkpt lat="44.8186" lon="1.28979">
        <ele>85.7877375</ele>
        <time>2022-08-16T13:13:17Z</time>
      </trkpt>
      <trkpt lat="44.81863" lon="1.28971">
        <ele>86.3666481</ele>
        <time>2022-08-16T13:13:19Z</time>
      </trkpt>
      <trkpt lat="44.81868" lon="1.28964">
        <ele>85.9850949</ele>
        <time>2022-08-16T13:13:21Z</time>
      </trkpt>
      <trkpt lat="44.81872" lon="1.28957">
        <ele>86.3619114</ele>
        <time>2022-08-16T13:13:23Z</time>
      </trkpt>
      <trkpt lat="44.81877" lon="1.2895">
        <ele>86.4606055</ele>
        <time>2022-08-16T13:13:25Z</time>
      </trkpt>
      <trkpt lat="44.81882" lon="1.28944">
        <ele>86.1962298</ele>
        <time>2022-08-16T13:13:27Z</time>
      </trkpt>
      <trkpt lat="44.81887" lon="1.28939">
        <ele>86.646765</ele>
        <time>2022-08-16T13:13:29Z</time>
      </trkpt>
      <trkpt lat="44.81892" lon="1.28934">
        <ele>87.699864</ele>
        <time>2022-08-16T13:13:31Z</time>
      </trkpt>
      <trkpt lat="44.81896" lon="1.2893">
        <ele>88.1126403</ele>
        <time>2022-08-16T13:13:33Z</time>
      </trkpt>
      <trkpt lat="44.81901" lon="1.28925">
        <ele>87.7830011</ele>
        <time>2022-08-16T13:13:35Z</time>
      </trkpt>
      <trkpt lat="44.81905" lon="1.2892">
        <ele>87.613562</ele>
        <time>2022-08-16T13:13:37Z</time>
      </trkpt>
      <trkpt lat="44.81909" lon="1.28917">
        <ele>88.1564797</ele>
        <time>2022-08-16T13:13:39Z</time>
      </trkpt>
      <trkpt lat="44.81913" lon="1.28913">
        <ele>87.4116353</ele>
        <time>2022-08-16T13:13:41Z</time>
      </trkpt>
      <trkpt lat="44.81919" lon="1.28908">
        <ele>87.8627868</ele>
        <time>2022-08-16T13:13:43Z</time>
      </trkpt>
      <trkpt lat="44.81926" lon="1.28901">
        <ele>86.7490311</ele>
        <time>2022-08-16T13:13:45Z</time>
      </trkpt>
      <trkpt lat="44.81935" lon="1.28894">
        <ele>85.8936831</ele>
        <time>2022-08-16T13:13:47Z</time>
      </trkpt>
      <trkpt lat="44.81944" lon="1.28886">
        <ele>85.2445421</ele>
        <time>2022-08-16T13:13:49Z</time>
      </trkpt>
      <trkpt lat="44.81954" lon="1.28875">
        <ele>85.0578438</ele>
        <time>2022-08-16T13:13:51Z</time>
      </trkpt>
      <trkpt lat="44.81964" lon="1.28864">
        <ele>84.5640418</ele>
        <time>2022-08-16T13:13:53Z</time>
      </trkpt>
      <trkpt lat="44.81973" lon="1.2885">
        <ele>83.6424462</ele>
        <time>2022-08-16T13:13:55Z</time>
      </trkpt>
      <trkpt lat="44.81981" lon="1.28835">
        <ele>83.3251915</ele>
        <time>2022-08-16T13:13:57Z</time>
      </trkpt>
      <trkpt lat="44.81988" lon="1.28823">
        <ele>84.935953</ele>
        <time>2022-08-16T13:13:59Z</time>
      </trkpt>
      <trkpt lat="44.81994" lon="1.28812">
        <ele>85.9760935</ele>
        <time>2022-08-16T13:14:01Z</time>
      </trkpt>
      <trkpt lat="44.81999" lon="1.28803">
        <ele>86.1926783</ele>
        <time>2022-08-16T13:14:03Z</time>
      </trkpt>
      <trkpt lat="44.82005" lon="1.28796">
        <ele>88.5185366</ele>
        <time>2022-08-16T13:14:05Z</time>
      </trkpt>
      <trkpt lat="44.82009" lon="1.28789">
        <ele>90.1127349</ele>
        <time>2022-08-16T13:14:07Z</time>
      </trkpt>
      <trkpt lat="44.82011" lon="1.28786">
        <ele>90.8188569</ele>
        <time>2022-08-16T13:14:09Z</time>
      </trkpt>
      <trkpt lat="44.82014" lon="1.28782">
        <ele>91.8291393</ele>
        <time>2022-08-16T13:14:11Z</time>
      </trkpt>
      <trkpt lat="44.82017" lon="1.28777">
        <ele>91.9988243</ele>
        <time>2022-08-16T13:14:13Z</time>
      </trkpt>
      <trkpt lat="44.8202" lon="1.28772">
        <ele>92.420094</ele>
        <time>2022-08-16T13:14:15Z</time>
      </trkpt>
      <trkpt lat="44.82023" lon="1.28767">
        <ele>92.5810836</ele>
        <time>2022-08-16T13:14:17Z</time>
      </trkpt>
      <trkpt lat="44.82025" lon="1.28762">
        <ele>94.1628543</ele>
        <time>2022-08-16T13:14:19Z</time>
      </trkpt>
      <trkpt lat="44.82027" lon="1.28758">
        <ele>94.3004011</ele>
        <time>2022-08-16T13:14:21Z</time>
      </trkpt>
      <trkpt lat="44.8203" lon="1.28751">
        <ele>93.8232711</ele>
        <time>2022-08-16T13:14:23Z</time>
      </trkpt>
      <trkpt lat="44.82032" lon="1.28745">
        <ele>94.0569371</ele>
        <time>2022-08-16T13:14:25Z</time>
      </trkpt>
      <trkpt lat="44.82033" lon="1.28739">
        <ele>93.5984269</ele>
        <time>2022-08-16T13:14:27Z</time>
      </trkpt>
      <trkpt lat="44.82035" lon="1.28735">
        <ele>93.6614732</ele>
        <time>2022-08-16T13:14:29Z</time>
      </trkpt>
      <trkpt lat="44.82037" lon="1.28729">
        <ele>93.4422631</ele>
        <time>2022-08-16T13:14:31Z</time>
      </trkpt>
      <trkpt lat="44.82039" lon="1.28725">
        <ele>93.6159997</ele>
        <time>2022-08-16T13:14:33Z</time>
      </trkpt>
      <trkpt lat="44.8204" lon="1.28719">
        <ele>93.0453715</ele>
        <time>2022-08-16T13:14:35Z</time>
      </trkpt>
      <trkpt lat="44.82041" lon="1.28713">
        <ele>91.9850944</ele>
        <time>2022-08-16T13:14:37Z</time>
      </trkpt>
      <trkpt lat="44.82042" lon="1.28707">
        <ele>91.9476622</ele>
        <time>2022-08-16T13:14:39Z</time>
      </trkpt>
      <trkpt lat="44.82044" lon="1.287">
        <ele>91.0941613</ele>
        <time>2022-08-16T13:14:41Z</time>
      </trkpt>
      <trkpt lat="44.82045" lon="1.28694">
        <ele>91.468789</ele>
        <time>2022-08-16T13:14:43Z</time>
      </trkpt>
      <trkpt lat="44.82045" lon="1.28688">
        <ele>90.996251</ele>
        <time>2022-08-16T13:14:45Z</time>
      </trkpt>
      <trkpt lat="44.82047" lon="1.28682">
        <ele>91.3332439</ele>
        <time>2022-08-16T13:14:47Z</time>
      </trkpt>
      <trkpt lat="44.82048" lon="1.28676">
        <ele>91.035821</ele>
        <time>2022-08-16T13:14:49Z</time>
      </trkpt>
      <trkpt lat="44.8205" lon="1.28669">
        <ele>90.7719329</ele>
        <time>2022-08-16T13:14:51Z</time>
      </trkpt>
      <trkpt lat="44.8205" lon="1.28663">
        <ele>91.1650593</ele>
        <time>2022-08-16T13:14:53Z</time>
      </trkpt>
      <trkpt lat="44.82052" lon="1.28657">
        <ele>90.9744056</ele>
        <time>2022-08-16T13:14:55Z</time>
      </trkpt>
      <trkpt lat="44.82053" lon="1.28651">
        <ele>92.4963083</ele>
        <time>2022-08-16T13:14:57Z</time>
      </trkpt>
      <trkpt lat="44.82055" lon="1.28645">
        <ele>91.8417408</ele>
        <time>2022-08-16T13:14:59Z</time>
      </trkpt>
      <trkpt lat="44.82056" lon="1.28642">
        <ele>91.9504895</ele>
        <time>2022-08-16T13:15:01Z</time>
      </trkpt>
      <trkpt lat="44.82056" lon="1.28642">
        <ele>92.9694117</ele>
        <time>2022-08-16T13:15:03Z</time>
      </trkpt>
      <trkpt lat="44.82056" lon="1.28642">
        <ele>92.5308096</ele>
        <time>2022-08-16T13:15:05Z</time>
      </trkpt>
      <trkpt lat="44.82057" lon="1.28642">
        <ele>91.4861562</ele>
        <time>2022-08-16T13:15:07Z</time>
      </trkpt>
      <trkpt lat="44.82056" lon="1.28641">
        <ele>91.2680768</ele>
        <time>2022-08-16T13:15:09Z</time>
      </trkpt>
      <trkpt lat="44.82056" lon="1.28641">
        <ele>90.8668349</ele>
        <time>2022-08-16T13:15:11Z</time>
      </trkpt>
      <trkpt lat="44.82056" lon="1.28639">
        <ele>91.6573226</ele>
        <time>2022-08-16T13:15:13Z</time>
      </trkpt>
      <trkpt lat="44.82056" lon="1.28636">
        <ele>92.0616982</ele>
        <time>2022-08-16T13:15:15Z</time>
      </trkpt>
      <trkpt lat="44.82058" lon="1.28632">
        <ele>91.9579104</ele>
        <time>2022-08-16T13:15:17Z</time>
      </trkpt>
      <trkpt lat="44.82059" lon="1.28629">
        <ele>92.0335833</ele>
        <time>2022-08-16T13:15:19Z</time>
      </trkpt>
      <trkpt lat="44.82059" lon="1.28629">
        <ele>92.3855638</ele>
        <time>2022-08-16T13:15:21Z</time>
      </trkpt>
      <trkpt lat="44.82059" lon="1.28628">
        <ele>92.5799818</ele>
        <time>2022-08-16T13:15:23Z</time>
      </trkpt>
      <trkpt lat="44.82059" lon="1.28628">
        <ele>92.6236182</ele>
        <time>2022-08-16T13:15:25Z</time>
      </trkpt>
      <trkpt lat="44.8206" lon="1.28628">
        <ele>93.7721616</ele>
        <time>2022-08-16T13:15:27Z</time>
      </trkpt>
      <trkpt lat="44.8206" lon="1.28628">
        <ele>94.5464847</ele>
        <time>2022-08-16T13:15:29Z</time>
      </trkpt>
      <trkpt lat="44.8206" lon="1.28628">
        <ele>94.9232354</ele>
        <time>2022-08-16T13:15:31Z</time>
      </trkpt>
      <trkpt lat="44.8206" lon="1.28627">
        <ele>94.6581085</ele>
        <time>2022-08-16T13:15:33Z</time>
      </trkpt>
      <trkpt lat="44.8206" lon="1.28627">
        <ele>94.5074276</ele>
        <time>2022-08-16T13:15:35Z</time>
      </trkpt>
      <trkpt lat="44.82061" lon="1.28627">
        <ele>94.7251467</ele>
        <time>2022-08-16T13:15:37Z</time>
      </trkpt>
      <trkpt lat="44.82062" lon="1.28628">
        <ele>95.0831354</ele>
        <time>2022-08-16T13:15:39Z</time>
      </trkpt>
      <trkpt lat="44.82062" lon="1.28627">
        <ele>95.4553843</ele>
        <time>2022-08-16T13:15:41Z</time>
      </trkpt>
      <trkpt lat="44.82062" lon="1.28627">
        <ele>95.9627703</ele>
        <time>2022-08-16T13:15:43Z</time>
      </trkpt>
      <trkpt lat="44.82062" lon="1.28627">
        <ele>94.6202678</ele>
        <time>2022-08-16T13:15:45Z</time>
      </trkpt>
      <trkpt lat="44.82062" lon="1.28626">
        <ele>94.3524515</ele>
        <time>2022-08-16T13:15:47Z</time>
      </trkpt>
      <trkpt lat="44.82062" lon="1.28623">
        <ele>93.9415724</ele>
        <time>2022-08-16T13:15:49Z</time>
      </trkpt>
      <trkpt lat="44.82061" lon="1.28619">
        <ele>93.2992424</ele>
        <time>2022-08-16T13:15:51Z</time>
      </trkpt>
      <trkpt lat="44.82059" lon="1.28614">
        <ele>91.8465492</ele>
        <time>2022-08-16T13:15:53Z</time>
      </trkpt>
      <trkpt lat="44.82058" lon="1.28605">
        <ele>90.6955824</ele>
        <time>2022-08-16T13:15:55Z</time>
      </trkpt>
      <trkpt lat="44.82061" lon="1.28591">
        <ele>88.7458852</ele>
        <time>2022-08-16T13:15:57Z</time>
      </trkpt>
      <trkpt lat="44.82064" lon="1.28575">
        <ele>86.7440742</ele>
        <time>2022-08-16T13:15:59Z</time>
      </trkpt>
      <trkpt lat="44.82069" lon="1.28564">
        <ele>86.8452782</ele>
        <time>2022-08-16T13:16:01Z</time>
      </trkpt>
      <trkpt lat="44.82076" lon="1.28552">
        <ele>84.6777143</ele>
        <time>2022-08-16T13:16:03Z</time>
      </trkpt>
      <trkpt lat="44.82085" lon="1.2854">
        <ele>83.0733624</ele>
        <time>2022-08-16T13:16:05Z</time>
      </trkpt>
      <trkpt lat="44.82092" lon="1.28529">
        <ele>84.7715445</ele>
        <time>2022-08-16T13:16:07Z</time>
      </trkpt>
      <trkpt lat="44.82097" lon="1.28517">
        <ele>85.3474393</ele>
        <time>2022-08-16T13:16:09Z</time>
      </trkpt>
      <trkpt lat="44.82104" lon="1.28506">
        <ele>84.9910875</ele>
        <time>2022-08-16T13:16:11Z</time>
      </trkpt>
      <trkpt lat="44.82112" lon="1.28498">
        <ele>84.7844258</ele>
        <time>2022-08-16T13:16:13Z</time>
      </trkpt>
      <trkpt lat="44.8212" lon="1.28485">
        <ele>84.4389807</ele>
        <time>2022-08-16T13:16:15Z</time>
      </trkpt>
      <trkpt lat="44.82127" lon="1.28475">
        <ele>84.3509869</ele>
        <time>2022-08-16T13:16:17Z</time>
      </trkpt>
      <trkpt lat="44.82136" lon="1.28467">
        <ele>84.027842</ele>
        <time>2022-08-16T13:16:19Z</time>
      </trkpt>
      <trkpt lat="44.82145" lon="1.28457">
        <ele>84.1934288</ele>
        <time>2022-08-16T13:16:21Z</time>
      </trkpt>
      <trkpt lat="44.82153" lon="1.28448">
        <ele>84.1279243</ele>
        <time>2022-08-16T13:16:23Z</time>
      </trkpt>
      <trkpt lat="44.82161" lon="1.2844">
        <ele>83.6236996</ele>
        <time>2022-08-16T13:16:25Z</time>
      </trkpt>
      <trkpt lat="44.82169" lon="1.28432">
        <ele>83.2850483</ele>
        <time>2022-08-16T13:16:27Z</time>
      </trkpt>
      <trkpt lat="44.82178" lon="1.28425">
        <ele>83.1155946</ele>
        <time>2022-08-16T13:16:29Z</time>
      </trkpt>
      <trkpt lat="44.82187" lon="1.28418">
        <ele>83.4932775</ele>
        <time>2022-08-16T13:16:31Z</time>
      </trkpt>
      <trkpt lat="44.82196" lon="1.28411">
        <ele>84.3348105</ele>
        <time>2022-08-16T13:16:33Z</time>
      </trkpt>
      <trkpt lat="44.82206" lon="1.28404">
        <ele>84.2525887</ele>
        <time>2022-08-16T13:16:35Z</time>
      </trkpt>
      <trkpt lat="44.82215" lon="1.28399">
        <ele>83.4152159</ele>
        <time>2022-08-16T13:16:37Z</time>
      </trkpt>
      <trkpt lat="44.82225" lon="1.28393">
        <ele>83.6761294</ele>
        <time>2022-08-16T13:16:39Z</time>
      </trkpt>
      <trkpt lat="44.82235" lon="1.28387">
        <ele>83.3569407</ele>
        <time>2022-08-16T13:16:41Z</time>
      </trkpt>
      <trkpt lat="44.82246" lon="1.28382">
        <ele>83.5172165</ele>
        <time>2022-08-16T13:16:43Z</time>
      </trkpt>
      <trkpt lat="44.82256" lon="1.28377">
        <ele>82.9079656</ele>
        <time>2022-08-16T13:16:45Z</time>
      </trkpt>
      <trkpt lat="44.82266" lon="1.28373">
        <ele>82.7760164</ele>
        <time>2022-08-16T13:16:47Z</time>
      </trkpt>
      <trkpt lat="44.82277" lon="1.2837">
        <ele>82.7373331</ele>
        <time>2022-08-16T13:16:49Z</time>
      </trkpt>
      <trkpt lat="44.82287" lon="1.28369">
        <ele>83.5212094</ele>
        <time>2022-08-16T13:16:51Z</time>
      </trkpt>
      <trkpt lat="44.82294" lon="1.28367">
        <ele>83.7026925</ele>
        <time>2022-08-16T13:16:53Z</time>
      </trkpt>
      <trkpt lat="44.82295" lon="1.28365">
        <ele>83.8840302</ele>
        <time>2022-08-16T13:16:55Z</time>
      </trkpt>
      <trkpt lat="44.82295" lon="1.28364">
        <ele>84.2998412</ele>
        <time>2022-08-16T13:16:57Z</time>
      </trkpt>
      <trkpt lat="44.82295" lon="1.28363">
        <ele>84.5870537</ele>
        <time>2022-08-16T13:16:59Z</time>
      </trkpt>
      <trkpt lat="44.82295" lon="1.28362">
        <ele>84.4383626</ele>
        <time>2022-08-16T13:17:01Z</time>
      </trkpt>
      <trkpt lat="44.82296" lon="1.28363">
        <ele>84.0046308</ele>
        <time>2022-08-16T13:17:03Z</time>
      </trkpt>
      <trkpt lat="44.82295" lon="1.28362">
        <ele>84.2145271</ele>
        <time>2022-08-16T13:17:05Z</time>
      </trkpt>
      <trkpt lat="44.82295" lon="1.2836">
        <ele>84.3437854</ele>
        <time>2022-08-16T13:17:07Z</time>
      </trkpt>
      <trkpt lat="44.82296" lon="1.28359">
        <ele>84.499045</ele>
        <time>2022-08-16T13:17:09Z</time>
      </trkpt>
      <trkpt lat="44.82296" lon="1.2836">
        <ele>84.4650485</ele>
        <time>2022-08-16T13:17:11Z</time>
      </trkpt>
      <trkpt lat="44.82296" lon="1.28359">
        <ele>83.7889022</ele>
        <time>2022-08-16T13:17:13Z</time>
      </trkpt>
      <trkpt lat="44.82296" lon="1.28359">
        <ele>83.0906027</ele>
        <time>2022-08-16T13:17:15Z</time>
      </trkpt>
      <trkpt lat="44.82297" lon="1.28358">
        <ele>83.4286776</ele>
        <time>2022-08-16T13:17:17Z</time>
      </trkpt>
      <trkpt lat="44.82297" lon="1.28358">
        <ele>83.5476009</ele>
        <time>2022-08-16T13:17:19Z</time>
      </trkpt>
      <trkpt lat="44.82297" lon="1.28358">
        <ele>84.0785375</ele>
        <time>2022-08-16T13:17:21Z</time>
      </trkpt>
      <trkpt lat="44.82297" lon="1.28358">
        <ele>83.213756</ele>
        <time>2022-08-16T13:17:23Z</time>
      </trkpt>
      <trkpt lat="44.82297" lon="1.28358">
        <ele>83.6100199</ele>
        <time>2022-08-16T13:17:25Z</time>
      </trkpt>
      <trkpt lat="44.82297" lon="1.28358">
        <ele>83.7966145</ele>
        <time>2022-08-16T13:17:27Z</time>
      </trkpt>
      <trkpt lat="44.82297" lon="1.28359">
        <ele>84.2220075</ele>
        <time>2022-08-16T13:17:29Z</time>
      </trkpt>
      <trkpt lat="44.82298" lon="1.28359">
        <ele>83.8356347</ele>
        <time>2022-08-16T13:17:31Z</time>
      </trkpt>
      <trkpt lat="44.82298" lon="1.28359">
        <ele>84.6714267</ele>
        <time>2022-08-16T13:17:33Z</time>
      </trkpt>
      <trkpt lat="44.82298" lon="1.2836">
        <ele>85.233808</ele>
        <time>2022-08-16T13:17:35Z</time>
      </trkpt>
      <trkpt lat="44.82298" lon="1.2836">
        <ele>85.6506294</ele>
        <time>2022-08-16T13:17:37Z</time>
      </trkpt>
      <trkpt lat="44.82299" lon="1.28359">
        <ele>86.0034177</ele>
        <time>2022-08-16T13:17:39Z</time>
      </trkpt>
      <trkpt lat="44.82302" lon="1.28358">
        <ele>86.4113939</ele>
        <time>2022-08-16T13:17:41Z</time>
      </trkpt>
      <trkpt lat="44.82308" lon="1.28356">
        <ele>86.8805522</ele>
        <time>2022-08-16T13:17:43Z</time>
      </trkpt>
      <trkpt lat="44.82314" lon="1.28355">
        <ele>87.2803351</ele>
        <time>2022-08-16T13:17:45Z</time>
      </trkpt>
      <trkpt lat="44.82319" lon="1.28354">
        <ele>87.1754492</ele>
        <time>2022-08-16T13:17:47Z</time>
      </trkpt>
      <trkpt lat="44.82325" lon="1.28353">
        <ele>87.214848</ele>
        <time>2022-08-16T13:17:49Z</time>
      </trkpt>
      <trkpt lat="44.82331" lon="1.28351">
        <ele>87.0566018</ele>
        <time>2022-08-16T13:17:51Z</time>
      </trkpt>
      <trkpt lat="44.82338" lon="1.28349">
        <ele>87.5001536</ele>
        <time>2022-08-16T13:17:53Z</time>
      </trkpt>
      <trkpt lat="44.82344" lon="1.28348">
        <ele>87.7238452</ele>
        <time>2022-08-16T13:17:55Z</time>
      </trkpt>
      <trkpt lat="44.8235" lon="1.28347">
        <ele>88.2812734</ele>
        <time>2022-08-16T13:17:57Z</time>
      </trkpt>
      <trkpt lat="44.82356" lon="1.28345">
        <ele>88.8403772</ele>
        <time>2022-08-16T13:17:59Z</time>
      </trkpt>
      <trkpt lat="44.82361" lon="1.28344">
        <ele>88.839013</ele>
        <time>2022-08-16T13:18:01Z</time>
      </trkpt>
      <trkpt lat="44.82366" lon="1.28342">
        <ele>88.400123</ele>
        <time>2022-08-16T13:18:03Z</time>
      </trkpt>
      <trkpt lat="44.82371" lon="1.2834">
        <ele>88.4600306</ele>
        <time>2022-08-16T13:18:05Z</time>
      </trkpt>
      <trkpt lat="44.82377" lon="1.2834">
        <ele>88.6617239</ele>
        <time>2022-08-16T13:18:07Z</time>
      </trkpt>
      <trkpt lat="44.82382" lon="1.28338">
        <ele>88.9422516</ele>
        <time>2022-08-16T13:18:09Z</time>
      </trkpt>
      <trkpt lat="44.82387" lon="1.28335">
        <ele>89.1725801</ele>
        <time>2022-08-16T13:18:11Z</time>
      </trkpt>
      <trkpt lat="44.82392" lon="1.28334">
        <ele>89.249365</ele>
        <time>2022-08-16T13:18:13Z</time>
      </trkpt>
      <trkpt lat="44.82397" lon="1.28333">
        <ele>89.0802474</ele>
        <time>2022-08-16T13:18:15Z</time>
      </trkpt>
      <trkpt lat="44.82403" lon="1.28332">
        <ele>88.9375857</ele>
        <time>2022-08-16T13:18:17Z</time>
      </trkpt>
      <trkpt lat="44.82408" lon="1.2833">
        <ele>89.2860679</ele>
        <time>2022-08-16T13:18:19Z</time>
      </trkpt>
      <trkpt lat="44.82413" lon="1.28329">
        <ele>89.4998099</ele>
        <time>2022-08-16T13:18:21Z</time>
      </trkpt>
      <trkpt lat="44.82418" lon="1.28327">
        <ele>89.4853452</ele>
        <time>2022-08-16T13:18:23Z</time>
      </trkpt>
      <trkpt lat="44.82422" lon="1.28326">
        <ele>89.7614554</ele>
        <time>2022-08-16T13:18:25Z</time>
      </trkpt>
      <trkpt lat="44.82425" lon="1.28326">
        <ele>89.6997061</ele>
        <time>2022-08-16T13:18:27Z</time>
      </trkpt>
      <trkpt lat="44.82429" lon="1.28325">
        <ele>89.6006589</ele>
        <time>2022-08-16T13:18:29Z</time>
      </trkpt>
      <trkpt lat="44.82434" lon="1.28323">
        <ele>89.4017824</ele>
        <time>2022-08-16T13:18:31Z</time>
      </trkpt>
      <trkpt lat="44.8244" lon="1.28321">
        <ele>89.4703462</ele>
        <time>2022-08-16T13:18:33Z</time>
      </trkpt>
      <trkpt lat="44.82447" lon="1.28319">
        <ele>89.4927225</ele>
        <time>2022-08-16T13:18:35Z</time>
      </trkpt>
      <trkpt lat="44.82453" lon="1.28317">
        <ele>89.5832222</ele>
        <time>2022-08-16T13:18:37Z</time>
      </trkpt>
      <trkpt lat="44.8246" lon="1.28314">
        <ele>89.6359742</ele>
        <time>2022-08-16T13:18:39Z</time>
      </trkpt>
      <trkpt lat="44.82466" lon="1.28313">
        <ele>89.7640571</ele>
        <time>2022-08-16T13:18:41Z</time>
      </trkpt>
      <trkpt lat="44.82473" lon="1.28311">
        <ele>89.6652204</ele>
        <time>2022-08-16T13:18:43Z</time>
      </trkpt>
      <trkpt lat="44.8248" lon="1.28308">
        <ele>89.8625536</ele>
        <time>2022-08-16T13:18:45Z</time>
      </trkpt>
      <trkpt lat="44.82487" lon="1.28306">
        <ele>89.9668313</ele>
        <time>2022-08-16T13:18:47Z</time>
      </trkpt>
      <trkpt lat="44.82494" lon="1.28304">
        <ele>89.3724412</ele>
        <time>2022-08-16T13:18:49Z</time>
      </trkpt>
      <trkpt lat="44.82503" lon="1.28301">
        <ele>89.3616882</ele>
        <time>2022-08-16T13:18:51Z</time>
      </trkpt>
      <trkpt lat="44.82511" lon="1.28298">
        <ele>89.3505746</ele>
        <time>2022-08-16T13:18:53Z</time>
      </trkpt>
      <trkpt lat="44.8252" lon="1.28295">
        <ele>89.0757699</ele>
        <time>2022-08-16T13:18:55Z</time>
      </trkpt>
      <trkpt lat="44.82528" lon="1.28293">
        <ele>88.8308812</ele>
        <time>2022-08-16T13:18:57Z</time>
      </trkpt>
      <trkpt lat="44.82536" lon="1.2829">
        <ele>89.0767736</ele>
        <time>2022-08-16T13:18:59Z</time>
      </trkpt>
      <trkpt lat="44.82544" lon="1.28287">
        <ele>89.1977569</ele>
        <time>2022-08-16T13:19:01Z</time>
      </trkpt>
      <trkpt lat="44.82553" lon="1.28283">
        <ele>89.6622535</ele>
        <time>2022-08-16T13:19:03Z</time>
      </trkpt>
      <trkpt lat="44.8256" lon="1.28279">
        <ele>89.3549276</ele>
        <time>2022-08-16T13:19:05Z</time>
      </trkpt>
      <trkpt lat="44.82568" lon="1.28274">
        <ele>89.0173401</ele>
        <time>2022-08-16T13:19:07Z</time>
      </trkpt>
      <trkpt lat="44.82578" lon="1.28269">
        <ele>88.2490573</ele>
        <time>2022-08-16T13:19:09Z</time>
      </trkpt>
      <trkpt lat="44.82587" lon="1.28264">
        <ele>88.4168196</ele>
        <time>2022-08-16T13:19:11Z</time>
      </trkpt>
      <trkpt lat="44.82595" lon="1.28259">
        <ele>88.8380385</ele>
        <time>2022-08-16T13:19:13Z</time>
      </trkpt>
      <trkpt lat="44.82602" lon="1.28255">
        <ele>88.8281028</ele>
        <time>2022-08-16T13:19:15Z</time>
      </trkpt>
      <trkpt lat="44.82609" lon="1.2825">
        <ele>89.1478412</ele>
        <time>2022-08-16T13:19:17Z</time>
      </trkpt>
      <trkpt lat="44.82616" lon="1.28245">
        <ele>89.2577588</ele>
        <time>2022-08-16T13:19:19Z</time>
      </trkpt>
      <trkpt lat="44.82623" lon="1.2824">
        <ele>89.2869255</ele>
        <time>2022-08-16T13:19:21Z</time>
      </trkpt>
      <trkpt lat="44.8263" lon="1.28234">
        <ele>89.3114992</ele>
        <time>2022-08-16T13:19:23Z</time>
      </trkpt>
      <trkpt lat="44.82636" lon="1.28228">
        <ele>89.1939482</ele>
        <time>2022-08-16T13:19:25Z</time>
      </trkpt>
      <trkpt lat="44.82644" lon="1.28222">
        <ele>89.2588286</ele>
        <time>2022-08-16T13:19:27Z</time>
      </trkpt>
      <trkpt lat="44.82652" lon="1.28217">
        <ele>89.5126479</ele>
        <time>2022-08-16T13:19:29Z</time>
      </trkpt>
      <trkpt lat="44.82659" lon="1.2821">
        <ele>89.3749965</ele>
        <time>2022-08-16T13:19:31Z</time>
      </trkpt>
      <trkpt lat="44.82666" lon="1.28202">
        <ele>89.8754555</ele>
        <time>2022-08-16T13:19:33Z</time>
      </trkpt>
      <trkpt lat="44.82672" lon="1.28195">
        <ele>89.7075491</ele>
        <time>2022-08-16T13:19:35Z</time>
      </trkpt>
      <trkpt lat="44.82679" lon="1.28187">
        <ele>89.7642727</ele>
        <time>2022-08-16T13:19:37Z</time>
      </trkpt>
      <trkpt lat="44.82685" lon="1.2818">
        <ele>90.0660658</ele>
        <time>2022-08-16T13:19:39Z</time>
      </trkpt>
      <trkpt lat="44.82691" lon="1.28172">
        <ele>90.100496</ele>
        <time>2022-08-16T13:19:41Z</time>
      </trkpt>
      <trkpt lat="44.82697" lon="1.28165">
        <ele>90.1878153</ele>
        <time>2022-08-16T13:19:43Z</time>
      </trkpt>
      <trkpt lat="44.82703" lon="1.28157">
        <ele>89.9023561</ele>
        <time>2022-08-16T13:19:45Z</time>
      </trkpt>
      <trkpt lat="44.82709" lon="1.28149">
        <ele>90.5418657</ele>
        <time>2022-08-16T13:19:47Z</time>
      </trkpt>
      <trkpt lat="44.82715" lon="1.28141">
        <ele>90.5694597</ele>
        <time>2022-08-16T13:19:49Z</time>
      </trkpt>
      <trkpt lat="44.82721" lon="1.28133">
        <ele>90.6890832</ele>
        <time>2022-08-16T13:19:51Z</time>
      </trkpt>
      <trkpt lat="44.82727" lon="1.28124">
        <ele>90.6182708</ele>
        <time>2022-08-16T13:19:53Z</time>
      </trkpt>
      <trkpt lat="44.82732" lon="1.28116">
        <ele>91.0143094</ele>
        <time>2022-08-16T13:19:55Z</time>
      </trkpt>
      <trkpt lat="44.82737" lon="1.28108">
        <ele>91.6222365</ele>
        <time>2022-08-16T13:19:57Z</time>
      </trkpt>
      <trkpt lat="44.82742" lon="1.28099">
        <ele>91.7580354</ele>
        <time>2022-08-16T13:19:59Z</time>
      </trkpt>
      <trkpt lat="44.82746" lon="1.28091">
        <ele>91.981262</ele>
        <time>2022-08-16T13:20:01Z</time>
      </trkpt>
      <trkpt lat="44.8275" lon="1.28082">
        <ele>91.9576077</ele>
        <time>2022-08-16T13:20:03Z</time>
      </trkpt>
      <trkpt lat="44.82755" lon="1.28074">
        <ele>92.1125368</ele>
        <time>2022-08-16T13:20:05Z</time>
      </trkpt>
      <trkpt lat="44.82759" lon="1.28067">
        <ele>92.718009</ele>
        <time>2022-08-16T13:20:07Z</time>
      </trkpt>
      <trkpt lat="44.82763" lon="1.28058">
        <ele>93.2919086</ele>
        <time>2022-08-16T13:20:09Z</time>
      </trkpt>
      <trkpt lat="44.82767" lon="1.2805">
        <ele>93.9721654</ele>
        <time>2022-08-16T13:20:11Z</time>
      </trkpt>
      <trkpt lat="44.82771" lon="1.28042">
        <ele>93.9704891</ele>
        <time>2022-08-16T13:20:13Z</time>
      </trkpt>
      <trkpt lat="44.82774" lon="1.28034">
        <ele>93.8734473</ele>
        <time>2022-08-16T13:20:15Z</time>
      </trkpt>
      <trkpt lat="44.82777" lon="1.28025">
        <ele>93.8081721</ele>
        <time>2022-08-16T13:20:17Z</time>
      </trkpt>
      <trkpt lat="44.82781" lon="1.28017">
        <ele>93.6575126</ele>
        <time>2022-08-16T13:20:19Z</time>
      </trkpt>
      <trkpt lat="44.82785" lon="1.28008">
        <ele>93.5602352</ele>
        <time>2022-08-16T13:20:21Z</time>
      </trkpt>
      <trkpt lat="44.82789" lon="1.28">
        <ele>93.1905631</ele>
        <time>2022-08-16T13:20:23Z</time>
      </trkpt>
      <trkpt lat="44.82793" lon="1.27992">
        <ele>92.8917882</ele>
        <time>2022-08-16T13:20:25Z</time>
      </trkpt>
      <trkpt lat="44.82797" lon="1.27986">
        <ele>92.8618081</ele>
        <time>2022-08-16T13:20:27Z</time>
      </trkpt>
      <trkpt lat="44.828" lon="1.27979">
        <ele>92.7545456</ele>
        <time>2022-08-16T13:20:29Z</time>
      </trkpt>
      <trkpt lat="44.82803" lon="1.2797">
        <ele>92.7172523</ele>
        <time>2022-08-16T13:20:31Z</time>
      </trkpt>
      <trkpt lat="44.82808" lon="1.27963">
        <ele>92.8408606</ele>
        <time>2022-08-16T13:20:33Z</time>
      </trkpt>
      <trkpt lat="44.82812" lon="1.27955">
        <ele>92.5826432</ele>
        <time>2022-08-16T13:20:35Z</time>
      </trkpt>
      <trkpt lat="44.82816" lon="1.27946">
        <ele>93.7857709</ele>
        <time>2022-08-16T13:20:37Z</time>
      </trkpt>
      <trkpt lat="44.8282" lon="1.27936">
        <ele>93.5979272</ele>
        <time>2022-08-16T13:20:39Z</time>
      </trkpt>
      <trkpt lat="44.82824" lon="1.27928">
        <ele>93.755619</ele>
        <time>2022-08-16T13:20:41Z</time>
      </trkpt>
      <trkpt lat="44.82828" lon="1.27919">
        <ele>93.7731603</ele>
        <time>2022-08-16T13:20:43Z</time>
      </trkpt>
      <trkpt lat="44.82831" lon="1.27912">
        <ele>93.9474633</ele>
        <time>2022-08-16T13:20:45Z</time>
      </trkpt>
      <trkpt lat="44.82835" lon="1.27903">
        <ele>93.1530224</ele>
        <time>2022-08-16T13:20:47Z</time>
      </trkpt>
      <trkpt lat="44.82839" lon="1.27895">
        <ele>92.8191815</ele>
        <time>2022-08-16T13:20:49Z</time>
      </trkpt>
      <trkpt lat="44.82843" lon="1.27886">
        <ele>93.7025804</ele>
        <time>2022-08-16T13:20:51Z</time>
      </trkpt>
      <trkpt lat="44.82848" lon="1.27877">
        <ele>94.2028485</ele>
        <time>2022-08-16T13:20:53Z</time>
      </trkpt>
      <trkpt lat="44.82852" lon="1.27868">
        <ele>94.5452532</ele>
        <time>2022-08-16T13:20:55Z</time>
      </trkpt>
      <trkpt lat="44.82857" lon="1.27859">
        <ele>93.7936447</ele>
        <time>2022-08-16T13:20:57Z</time>
      </trkpt>
      <trkpt lat="44.82861" lon="1.2785">
        <ele>93.9233421</ele>
        <time>2022-08-16T13:20:59Z</time>
      </trkpt>
      <trkpt lat="44.82865" lon="1.2784">
        <ele>93.7232355</ele>
        <time>2022-08-16T13:21:01Z</time>
      </trkpt>
      <trkpt lat="44.82869" lon="1.27831">
        <ele>93.3539422</ele>
        <time>2022-08-16T13:21:03Z</time>
      </trkpt>
      <trkpt lat="44.82873" lon="1.27822">
        <ele>93.4550648</ele>
        <time>2022-08-16T13:21:05Z</time>
      </trkpt>
      <trkpt lat="44.82877" lon="1.27813">
        <ele>93.6715454</ele>
        <time>2022-08-16T13:21:07Z</time>
      </trkpt>
      <trkpt lat="44.8288" lon="1.27806">
        <ele>93.5753035</ele>
        <time>2022-08-16T13:21:09Z</time>
      </trkpt>
      <trkpt lat="44.82884" lon="1.27797">
        <ele>93.7709836</ele>
        <time>2022-08-16T13:21:11Z</time>
      </trkpt>
      <trkpt lat="44.82889" lon="1.27788">
        <ele>93.8646748</ele>
        <time>2022-08-16T13:21:13Z</time>
      </trkpt>
      <trkpt lat="44.82893" lon="1.27779">
        <ele>94.0423096</ele>
        <time>2022-08-16T13:21:15Z</time>
      </trkpt>
      <trkpt lat="44.82898" lon="1.27769">
        <ele>94.8829366</ele>
        <time>2022-08-16T13:21:17Z</time>
      </trkpt>
      <trkpt lat="44.82902" lon="1.2776">
        <ele>94.5101302</ele>
        <time>2022-08-16T13:21:19Z</time>
      </trkpt>
      <trkpt lat="44.82906" lon="1.2775">
        <ele>95.5164787</ele>
        <time>2022-08-16T13:21:21Z</time>
      </trkpt>
      <trkpt lat="44.82909" lon="1.27742">
        <ele>95.4051715</ele>
        <time>2022-08-16T13:21:23Z</time>
      </trkpt>
      <trkpt lat="44.82912" lon="1.27734">
        <ele>95.7318963</ele>
        <time>2022-08-16T13:21:25Z</time>
      </trkpt>
      <trkpt lat="44.82917" lon="1.27724">
        <ele>96.3562247</ele>
        <time>2022-08-16T13:21:27Z</time>
      </trkpt>
      <trkpt lat="44.8292" lon="1.27714">
        <ele>96.7750713</ele>
        <time>2022-08-16T13:21:29Z</time>
      </trkpt>
      <trkpt lat="44.82926" lon="1.27705">
        <ele>96.5734772</ele>
        <time>2022-08-16T13:21:31Z</time>
      </trkpt>
      <trkpt lat="44.82932" lon="1.27695">
        <ele>95.801005</ele>
        <time>2022-08-16T13:21:33Z</time>
      </trkpt>
      <trkpt lat="44.82935" lon="1.27685">
        <ele>94.9462942</ele>
        <time>2022-08-16T13:21:35Z</time>
      </trkpt>
      <trkpt lat="44.8294" lon="1.27674">
        <ele>94.5475982</ele>
        <time>2022-08-16T13:21:37Z</time>
      </trkpt>
      <trkpt lat="44.82945" lon="1.27663">
        <ele>95.2968861</ele>
        <time>2022-08-16T13:21:39Z</time>
      </trkpt>
      <trkpt lat="44.82949" lon="1.27653">
        <ele>95.1468118</ele>
        <time>2022-08-16T13:21:41Z</time>
      </trkpt>
      <trkpt lat="44.82954" lon="1.27642">
        <ele>95.734919</ele>
        <time>2022-08-16T13:21:43Z</time>
      </trkpt>
      <trkpt lat="44.82958" lon="1.27632">
        <ele>95.840241</ele>
        <time>2022-08-16T13:21:45Z</time>
      </trkpt>
      <trkpt lat="44.82963" lon="1.27622">
        <ele>97.6842402</ele>
        <time>2022-08-16T13:21:47Z</time>
      </trkpt>
      <trkpt lat="44.82967" lon="1.27612">
        <ele>97.5906474</ele>
        <time>2022-08-16T13:21:49Z</time>
      </trkpt>
      <trkpt lat="44.82972" lon="1.27601">
        <ele>97.9129975</ele>
        <time>2022-08-16T13:21:51Z</time>
      </trkpt>
      <trkpt lat="44.82977" lon="1.27592">
        <ele>97.9980153</ele>
        <time>2022-08-16T13:21:53Z</time>
      </trkpt>
      <trkpt lat="44.82983" lon="1.27582">
        <ele>98.0094415</ele>
        <time>2022-08-16T13:21:55Z</time>
      </trkpt>
      <trkpt lat="44.82988" lon="1.27571">
        <ele>97.7874578</ele>
        <time>2022-08-16T13:21:57Z</time>
      </trkpt>
      <trkpt lat="44.82992" lon="1.27559">
        <ele>97.8459241</ele>
        <time>2022-08-16T13:21:59Z</time>
      </trkpt>
      <trkpt lat="44.82998" lon="1.27548">
        <ele>99.4496061</ele>
        <time>2022-08-16T13:22:01Z</time>
      </trkpt>
      <trkpt lat="44.83002" lon="1.27537">
        <ele>100.482778</ele>
        <time>2022-08-16T13:22:03Z</time>
      </trkpt>
      <trkpt lat="44.83007" lon="1.27527">
        <ele>100.4791387</ele>
        <time>2022-08-16T13:22:05Z</time>
      </trkpt>
      <trkpt lat="44.83012" lon="1.27517">
        <ele>100.735931</ele>
        <time>2022-08-16T13:22:07Z</time>
      </trkpt>
      <trkpt lat="44.83016" lon="1.27506">
        <ele>100.7897233</ele>
        <time>2022-08-16T13:22:09Z</time>
      </trkpt>
      <trkpt lat="44.83021" lon="1.27497">
        <ele>101.1354819</ele>
        <time>2022-08-16T13:22:11Z</time>
      </trkpt>
      <trkpt lat="44.83026" lon="1.27488">
        <ele>100.5054457</ele>
        <time>2022-08-16T13:22:13Z</time>
      </trkpt>
      <trkpt lat="44.8303" lon="1.27479">
        <ele>99.9513214</ele>
        <time>2022-08-16T13:22:15Z</time>
      </trkpt>
      <trkpt lat="44.83035" lon="1.27469">
        <ele>100.4867858</ele>
        <time>2022-08-16T13:22:17Z</time>
      </trkpt>
      <trkpt lat="44.8304" lon="1.27461">
        <ele>101.1058883</ele>
        <time>2022-08-16T13:22:19Z</time>
      </trkpt>
      <trkpt lat="44.83045" lon="1.27452">
        <ele>101.4719223</ele>
        <time>2022-08-16T13:22:21Z</time>
      </trkpt>
      <trkpt lat="44.8305" lon="1.27444">
        <ele>101.0069499</ele>
        <time>2022-08-16T13:22:23Z</time>
      </trkpt>
      <trkpt lat="44.83056" lon="1.27435">
        <ele>100.8125844</ele>
        <time>2022-08-16T13:22:25Z</time>
      </trkpt>
      <trkpt lat="44.83061" lon="1.27427">
        <ele>101.1188237</ele>
        <time>2022-08-16T13:22:27Z</time>
      </trkpt>
      <trkpt lat="44.83068" lon="1.2742">
        <ele>100.8811719</ele>
        <time>2022-08-16T13:22:29Z</time>
      </trkpt>
      <trkpt lat="44.83074" lon="1.27412">
        <ele>100.7849655</ele>
        <time>2022-08-16T13:22:31Z</time>
      </trkpt>
      <trkpt lat="44.8308" lon="1.27405">
        <ele>100.0444812</ele>
        <time>2022-08-16T13:22:33Z</time>
      </trkpt>
      <trkpt lat="44.83087" lon="1.27399">
        <ele>99.5092289</ele>
        <time>2022-08-16T13:22:35Z</time>
      </trkpt>
      <trkpt lat="44.83094" lon="1.27393">
        <ele>98.9823559</ele>
        <time>2022-08-16T13:22:37Z</time>
      </trkpt>
      <trkpt lat="44.83101" lon="1.27386">
        <ele>98.5468454</ele>
        <time>2022-08-16T13:22:39Z</time>
      </trkpt>
      <trkpt lat="44.83108" lon="1.27379">
        <ele>98.1040617</ele>
        <time>2022-08-16T13:22:41Z</time>
      </trkpt>
      <trkpt lat="44.83115" lon="1.27374">
        <ele>97.7928019</ele>
        <time>2022-08-16T13:22:43Z</time>
      </trkpt>
      <trkpt lat="44.83122" lon="1.27368">
        <ele>97.7471235</ele>
        <time>2022-08-16T13:22:45Z</time>
      </trkpt>
      <trkpt lat="44.83129" lon="1.27363">
        <ele>98.0579699</ele>
        <time>2022-08-16T13:22:47Z</time>
      </trkpt>
      <trkpt lat="44.83136" lon="1.27358">
        <ele>98.1266647</ele>
        <time>2022-08-16T13:22:49Z</time>
      </trkpt>
      <trkpt lat="44.83143" lon="1.27352">
        <ele>98.5915937</ele>
        <time>2022-08-16T13:22:51Z</time>
      </trkpt>
      <trkpt lat="44.8315" lon="1.27348">
        <ele>98.7443737</ele>
        <time>2022-08-16T13:22:53Z</time>
      </trkpt>
      <trkpt lat="44.83157" lon="1.27344">
        <ele>98.9380109</ele>
        <time>2022-08-16T13:22:55Z</time>
      </trkpt>
      <trkpt lat="44.83165" lon="1.2734">
        <ele>99.2903547</ele>
        <time>2022-08-16T13:22:57Z</time>
      </trkpt>
      <trkpt lat="44.83172" lon="1.27337">
        <ele>99.705715</ele>
        <time>2022-08-16T13:22:59Z</time>
      </trkpt>
      <trkpt lat="44.8318" lon="1.27334">
        <ele>100.2844585</ele>
        <time>2022-08-16T13:23:01Z</time>
      </trkpt>
      <trkpt lat="44.83189" lon="1.27331">
        <ele>100.5397745</ele>
        <time>2022-08-16T13:23:03Z</time>
      </trkpt>
      <trkpt lat="44.83197" lon="1.27329">
        <ele>100.850525</ele>
        <time>2022-08-16T13:23:05Z</time>
      </trkpt>
      <trkpt lat="44.83205" lon="1.27328">
        <ele>101.1342269</ele>
        <time>2022-08-16T13:23:07Z</time>
      </trkpt>
      <trkpt lat="44.83214" lon="1.27327">
        <ele>101.3523957</ele>
        <time>2022-08-16T13:23:09Z</time>
      </trkpt>
      <trkpt lat="44.83222" lon="1.27324">
        <ele>101.4191763</ele>
        <time>2022-08-16T13:23:11Z</time>
      </trkpt>
      <trkpt lat="44.8323" lon="1.27323">
        <ele>101.4749551</ele>
        <time>2022-08-16T13:23:13Z</time>
      </trkpt>
      <trkpt lat="44.83238" lon="1.27323">
        <ele>101.6696185</ele>
        <time>2022-08-16T13:23:15Z</time>
      </trkpt>
      <trkpt lat="44.83246" lon="1.27323">
        <ele>101.6937649</ele>
        <time>2022-08-16T13:23:17Z</time>
      </trkpt>
      <trkpt lat="44.83254" lon="1.27322">
        <ele>101.7480292</ele>
        <time>2022-08-16T13:23:19Z</time>
      </trkpt>
      <trkpt lat="44.83262" lon="1.27322">
        <ele>101.8046225</ele>
        <time>2022-08-16T13:23:21Z</time>
      </trkpt>
      <trkpt lat="44.83269" lon="1.27324">
        <ele>101.9482292</ele>
        <time>2022-08-16T13:23:23Z</time>
      </trkpt>
      <trkpt lat="44.83275" lon="1.27324">
        <ele>102.1963739</ele>
        <time>2022-08-16T13:23:25Z</time>
      </trkpt>
      <trkpt lat="44.83277" lon="1.27325">
        <ele>102.4029551</ele>
        <time>2022-08-16T13:23:27Z</time>
      </trkpt>
      <trkpt lat="44.83281" lon="1.27326">
        <ele>102.6212546</ele>
        <time>2022-08-16T13:23:29Z</time>
      </trkpt>
      <trkpt lat="44.83288" lon="1.27326">
        <ele>102.5126804</ele>
        <time>2022-08-16T13:23:31Z</time>
      </trkpt>
      <trkpt lat="44.83295" lon="1.27325">
        <ele>102.4289047</ele>
        <time>2022-08-16T13:23:33Z</time>
      </trkpt>
      <trkpt lat="44.83303" lon="1.27326">
        <ele>102.445549</ele>
        <time>2022-08-16T13:23:35Z</time>
      </trkpt>
      <trkpt lat="44.8331" lon="1.27331">
        <ele>102.143783</ele>
        <time>2022-08-16T13:23:37Z</time>
      </trkpt>
      <trkpt lat="44.83318" lon="1.27335">
        <ele>102.0331009</ele>
        <time>2022-08-16T13:23:39Z</time>
      </trkpt>
      <trkpt lat="44.83326" lon="1.27338">
        <ele>101.7392696</ele>
        <time>2022-08-16T13:23:41Z</time>
      </trkpt>
      <trkpt lat="44.83334" lon="1.27341">
        <ele>101.5684362</ele>
        <time>2022-08-16T13:23:43Z</time>
      </trkpt>
      <trkpt lat="44.83343" lon="1.27344">
        <ele>101.554555</ele>
        <time>2022-08-16T13:23:45Z</time>
      </trkpt>
      <trkpt lat="44.83351" lon="1.27348">
        <ele>101.5428158</ele>
        <time>2022-08-16T13:23:47Z</time>
      </trkpt>
      <trkpt lat="44.83359" lon="1.27351">
        <ele>101.807778</ele>
        <time>2022-08-16T13:23:49Z</time>
      </trkpt>
      <trkpt lat="44.83368" lon="1.27354">
        <ele>101.9155788</ele>
        <time>2022-08-16T13:23:51Z</time>
      </trkpt>
      <trkpt lat="44.83376" lon="1.27357">
        <ele>101.9412579</ele>
        <time>2022-08-16T13:23:53Z</time>
      </trkpt>
      <trkpt lat="44.83384" lon="1.27361">
        <ele>101.9730063</ele>
        <time>2022-08-16T13:23:55Z</time>
      </trkpt>
      <trkpt lat="44.83393" lon="1.27364">
        <ele>102.2478462</ele>
        <time>2022-08-16T13:23:57Z</time>
      </trkpt>
      <trkpt lat="44.83401" lon="1.27368">
        <ele>101.9400916</ele>
        <time>2022-08-16T13:23:59Z</time>
      </trkpt>
      <trkpt lat="44.83409" lon="1.27371">
        <ele>101.6588945</ele>
        <time>2022-08-16T13:24:01Z</time>
      </trkpt>
      <trkpt lat="44.83418" lon="1.27375">
        <ele>101.682734</ele>
        <time>2022-08-16T13:24:03Z</time>
      </trkpt>
      <trkpt lat="44.83426" lon="1.27379">
        <ele>101.6289746</ele>
        <time>2022-08-16T13:24:05Z</time>
      </trkpt>
      <trkpt lat="44.83435" lon="1.27381">
        <ele>101.8364493</ele>
        <time>2022-08-16T13:24:07Z</time>
      </trkpt>
      <trkpt lat="44.83444" lon="1.27386">
        <ele>101.7779145</ele>
        <time>2022-08-16T13:24:09Z</time>
      </trkpt>
      <trkpt lat="44.83452" lon="1.2739">
        <ele>101.6055786</ele>
        <time>2022-08-16T13:24:11Z</time>
      </trkpt>
      <trkpt lat="44.83461" lon="1.27393">
        <ele>101.5374933</ele>
        <time>2022-08-16T13:24:13Z</time>
      </trkpt>
      <trkpt lat="44.8347" lon="1.27396">
        <ele>101.5978355</ele>
        <time>2022-08-16T13:24:15Z</time>
      </trkpt>
      <trkpt lat="44.83479" lon="1.274">
        <ele>101.6073915</ele>
        <time>2022-08-16T13:24:17Z</time>
      </trkpt>
      <trkpt lat="44.83487" lon="1.27403">
        <ele>101.6307672</ele>
        <time>2022-08-16T13:24:19Z</time>
      </trkpt>
      <trkpt lat="44.83496" lon="1.27407">
        <ele>101.5709558</ele>
        <time>2022-08-16T13:24:21Z</time>
      </trkpt>
      <trkpt lat="44.83504" lon="1.2741">
        <ele>101.9301679</ele>
        <time>2022-08-16T13:24:23Z</time>
      </trkpt>
      <trkpt lat="44.83513" lon="1.27413">
        <ele>101.8271631</ele>
        <time>2022-08-16T13:24:25Z</time>
      </trkpt>
      <trkpt lat="44.83522" lon="1.27418">
        <ele>101.8565502</ele>
        <time>2022-08-16T13:24:27Z</time>
      </trkpt>
      <trkpt lat="44.8353" lon="1.27421">
        <ele>101.6217575</ele>
        <time>2022-08-16T13:24:29Z</time>
      </trkpt>
      <trkpt lat="44.83539" lon="1.27424">
        <ele>101.5307102</ele>
        <time>2022-08-16T13:24:31Z</time>
      </trkpt>
      <trkpt lat="44.83547" lon="1.27427">
        <ele>101.393717</ele>
        <time>2022-08-16T13:24:33Z</time>
      </trkpt>
      <trkpt lat="44.83556" lon="1.27431">
        <ele>101.2928454</ele>
        <time>2022-08-16T13:24:35Z</time>
      </trkpt>
      <trkpt lat="44.83565" lon="1.27435">
        <ele>101.3244844</ele>
        <time>2022-08-16T13:24:37Z</time>
      </trkpt>
      <trkpt lat="44.83573" lon="1.27438">
        <ele>101.2478018</ele>
        <time>2022-08-16T13:24:39Z</time>
      </trkpt>
      <trkpt lat="44.83581" lon="1.27442">
        <ele>100.9159385</ele>
        <time>2022-08-16T13:24:41Z</time>
      </trkpt>
      <trkpt lat="44.8359" lon="1.27446">
        <ele>100.8897729</ele>
        <time>2022-08-16T13:24:43Z</time>
      </trkpt>
      <trkpt lat="44.83598" lon="1.27449">
        <ele>100.7296796</ele>
        <time>2022-08-16T13:24:45Z</time>
      </trkpt>
      <trkpt lat="44.83607" lon="1.27453">
        <ele>100.4432232</ele>
        <time>2022-08-16T13:24:47Z</time>
      </trkpt>
      <trkpt lat="44.83615" lon="1.27456">
        <ele>100.5802767</ele>
        <time>2022-08-16T13:24:49Z</time>
      </trkpt>
      <trkpt lat="44.83623" lon="1.2746">
        <ele>100.3420911</ele>
        <time>2022-08-16T13:24:51Z</time>
      </trkpt>
      <trkpt lat="44.8363" lon="1.27462">
        <ele>100.3659572</ele>
        <time>2022-08-16T13:24:53Z</time>
      </trkpt>
      <trkpt lat="44.83637" lon="1.27465">
        <ele>100.0096325</ele>
        <time>2022-08-16T13:24:55Z</time>
      </trkpt>
      <trkpt lat="44.83643" lon="1.27468">
        <ele>100.0942175</ele>
        <time>2022-08-16T13:24:57Z</time>
      </trkpt>
      <trkpt lat="44.83649" lon="1.27471">
        <ele>99.7349458</ele>
        <time>2022-08-16T13:24:59Z</time>
      </trkpt>
      <trkpt lat="44.83654" lon="1.27473">
        <ele>99.716698</ele>
        <time>2022-08-16T13:25:01Z</time>
      </trkpt>
      <trkpt lat="44.8366" lon="1.27476">
        <ele>99.4109562</ele>
        <time>2022-08-16T13:25:03Z</time>
      </trkpt>
      <trkpt lat="44.83666" lon="1.27478">
        <ele>99.042928</ele>
        <time>2022-08-16T13:25:05Z</time>
      </trkpt>
      <trkpt lat="44.83674" lon="1.27482">
        <ele>98.8873275</ele>
        <time>2022-08-16T13:25:07Z</time>
      </trkpt>
      <trkpt lat="44.83682" lon="1.27485">
        <ele>98.6774215</ele>
        <time>2022-08-16T13:25:09Z</time>
      </trkpt>
      <trkpt lat="44.83691" lon="1.27488">
        <ele>98.2189413</ele>
        <time>2022-08-16T13:25:11Z</time>
      </trkpt>
      <trkpt lat="44.83699" lon="1.27492">
        <ele>98.0956029</ele>
        <time>2022-08-16T13:25:13Z</time>
      </trkpt>
      <trkpt lat="44.83708" lon="1.27496">
        <ele>97.8204913</ele>
        <time>2022-08-16T13:25:15Z</time>
      </trkpt>
      <trkpt lat="44.83717" lon="1.27499">
        <ele>97.7853027</ele>
        <time>2022-08-16T13:25:17Z</time>
      </trkpt>
      <trkpt lat="44.83726" lon="1.27503">
        <ele>97.8107556</ele>
        <time>2022-08-16T13:25:19Z</time>
      </trkpt>
      <trkpt lat="44.83735" lon="1.27507">
        <ele>97.1192748</ele>
        <time>2022-08-16T13:25:21Z</time>
      </trkpt>
      <trkpt lat="44.83744" lon="1.27511">
        <ele>97.4421943</ele>
        <time>2022-08-16T13:25:23Z</time>
      </trkpt>
      <trkpt lat="44.83752" lon="1.27515">
        <ele>98.075279</ele>
        <time>2022-08-16T13:25:25Z</time>
      </trkpt>
      <trkpt lat="44.83762" lon="1.27518">
        <ele>98.182206</ele>
        <time>2022-08-16T13:25:27Z</time>
      </trkpt>
      <trkpt lat="44.83771" lon="1.27522">
        <ele>98.0110412</ele>
        <time>2022-08-16T13:25:29Z</time>
      </trkpt>
      <trkpt lat="44.83779" lon="1.27526">
        <ele>97.794825</ele>
        <time>2022-08-16T13:25:31Z</time>
      </trkpt>
      <trkpt lat="44.83788" lon="1.2753">
        <ele>97.6029467</ele>
        <time>2022-08-16T13:25:33Z</time>
      </trkpt>
      <trkpt lat="44.83797" lon="1.27533">
        <ele>97.3880138</ele>
        <time>2022-08-16T13:25:35Z</time>
      </trkpt>
      <trkpt lat="44.83807" lon="1.27538">
        <ele>97.2112809</ele>
        <time>2022-08-16T13:25:37Z</time>
      </trkpt>
      <trkpt lat="44.83816" lon="1.27541">
        <ele>97.2584004</ele>
        <time>2022-08-16T13:25:39Z</time>
      </trkpt>
      <trkpt lat="44.83825" lon="1.27546">
        <ele>97.1740596</ele>
        <time>2022-08-16T13:25:41Z</time>
      </trkpt>
      <trkpt lat="44.83834" lon="1.27549">
        <ele>96.9075327</ele>
        <time>2022-08-16T13:25:43Z</time>
      </trkpt>
      <trkpt lat="44.83843" lon="1.27553">
        <ele>96.6590068</ele>
        <time>2022-08-16T13:25:45Z</time>
      </trkpt>
      <trkpt lat="44.83853" lon="1.27557">
        <ele>96.8995201</ele>
        <time>2022-08-16T13:25:47Z</time>
      </trkpt>
      <trkpt lat="44.83863" lon="1.2756">
        <ele>96.797143</ele>
        <time>2022-08-16T13:25:49Z</time>
      </trkpt>
      <trkpt lat="44.83873" lon="1.27564">
        <ele>96.7345248</ele>
        <time>2022-08-16T13:25:51Z</time>
      </trkpt>
      <trkpt lat="44.83883" lon="1.27568">
        <ele>96.3027887</ele>
        <time>2022-08-16T13:25:53Z</time>
      </trkpt>
      <trkpt lat="44.83892" lon="1.27572">
        <ele>96.4645347</ele>
        <time>2022-08-16T13:25:55Z</time>
      </trkpt>
      <trkpt lat="44.83902" lon="1.27577">
        <ele>96.3688875</ele>
        <time>2022-08-16T13:25:57Z</time>
      </trkpt>
      <trkpt lat="44.83911" lon="1.2758">
        <ele>95.7145922</ele>
        <time>2022-08-16T13:25:59Z</time>
      </trkpt>
      <trkpt lat="44.8392" lon="1.27584">
        <ele>96.0303969</ele>
        <time>2022-08-16T13:26:01Z</time>
      </trkpt>
      <trkpt lat="44.83928" lon="1.27587">
        <ele>95.9989469</ele>
        <time>2022-08-16T13:26:03Z</time>
      </trkpt>
      <trkpt lat="44.83937" lon="1.2759">
        <ele>96.1748727</ele>
        <time>2022-08-16T13:26:05Z</time>
      </trkpt>
      <trkpt lat="44.83946" lon="1.27593">
        <ele>96.4291182</ele>
        <time>2022-08-16T13:26:07Z</time>
      </trkpt>
      <trkpt lat="44.83955" lon="1.27596">
        <ele>96.2269202</ele>
        <time>2022-08-16T13:26:09Z</time>
      </trkpt>
      <trkpt lat="44.83963" lon="1.27597">
        <ele>96.1110002</ele>
        <time>2022-08-16T13:26:11Z</time>
      </trkpt>
      <trkpt lat="44.83972" lon="1.27599">
        <ele>96.0378492</ele>
        <time>2022-08-16T13:26:13Z</time>
      </trkpt>
      <trkpt lat="44.83981" lon="1.27599">
        <ele>96.1437212</ele>
        <time>2022-08-16T13:26:15Z</time>
      </trkpt>
      <trkpt lat="44.8399" lon="1.27599">
        <ele>96.2227962</ele>
        <time>2022-08-16T13:26:17Z</time>
      </trkpt>
      <trkpt lat="44.83998" lon="1.276">
        <ele>96.0629534</ele>
        <time>2022-08-16T13:26:19Z</time>
      </trkpt>
      <trkpt lat="44.84006" lon="1.27601">
        <ele>95.9863319</ele>
        <time>2022-08-16T13:26:21Z</time>
      </trkpt>
      <trkpt lat="44.84014" lon="1.27602">
        <ele>95.8280975</ele>
        <time>2022-08-16T13:26:23Z</time>
      </trkpt>
      <trkpt lat="44.84021" lon="1.27602">
        <ele>95.9678302</ele>
        <time>2022-08-16T13:26:25Z</time>
      </trkpt>
      <trkpt lat="44.84029" lon="1.27602">
        <ele>95.9701119</ele>
        <time>2022-08-16T13:26:27Z</time>
      </trkpt>
      <trkpt lat="44.84037" lon="1.27603">
        <ele>95.89724</ele>
        <time>2022-08-16T13:26:29Z</time>
      </trkpt>
      <trkpt lat="44.84045" lon="1.27602">
        <ele>95.8563128</ele>
        <time>2022-08-16T13:26:31Z</time>
      </trkpt>
      <trkpt lat="44.84053" lon="1.276">
        <ele>95.6404891</ele>
        <time>2022-08-16T13:26:33Z</time>
      </trkpt>
      <trkpt lat="44.84062" lon="1.27598">
        <ele>95.9773444</ele>
        <time>2022-08-16T13:26:35Z</time>
      </trkpt>
      <trkpt lat="44.84071" lon="1.27597">
        <ele>95.898935</ele>
        <time>2022-08-16T13:26:37Z</time>
      </trkpt>
      <trkpt lat="44.84079" lon="1.27596">
        <ele>95.6627779</ele>
        <time>2022-08-16T13:26:39Z</time>
      </trkpt>
      <trkpt lat="44.84088" lon="1.27595">
        <ele>95.6390702</ele>
        <time>2022-08-16T13:26:41Z</time>
      </trkpt>
      <trkpt lat="44.84097" lon="1.27592">
        <ele>95.5792364</ele>
        <time>2022-08-16T13:26:43Z</time>
      </trkpt>
      <trkpt lat="44.84106" lon="1.2759">
        <ele>95.4065464</ele>
        <time>2022-08-16T13:26:45Z</time>
      </trkpt>
      <trkpt lat="44.84115" lon="1.27587">
        <ele>95.040613</ele>
        <time>2022-08-16T13:26:47Z</time>
      </trkpt>
      <trkpt lat="44.84124" lon="1.27583">
        <ele>95.0957311</ele>
        <time>2022-08-16T13:26:49Z</time>
      </trkpt>
      <trkpt lat="44.84133" lon="1.2758">
        <ele>94.9949401</ele>
        <time>2022-08-16T13:26:51Z</time>
      </trkpt>
      <trkpt lat="44.84142" lon="1.27578">
        <ele>95.0691313</ele>
        <time>2022-08-16T13:26:53Z</time>
      </trkpt>
      <trkpt lat="44.84151" lon="1.27574">
        <ele>94.8172032</ele>
        <time>2022-08-16T13:26:55Z</time>
      </trkpt>
      <trkpt lat="44.84161" lon="1.2757">
        <ele>94.9053161</ele>
        <time>2022-08-16T13:26:57Z</time>
      </trkpt>
      <trkpt lat="44.84171" lon="1.27566">
        <ele>94.9710677</ele>
        <time>2022-08-16T13:26:59Z</time>
      </trkpt>
      <trkpt lat="44.8418" lon="1.27562">
        <ele>95.0212555</ele>
        <time>2022-08-16T13:27:01Z</time>
      </trkpt>
      <trkpt lat="44.84188" lon="1.27559">
        <ele>94.6696326</ele>
        <time>2022-08-16T13:27:03Z</time>
      </trkpt>
      <trkpt lat="44.84195" lon="1.27556">
        <ele>94.3227327</ele>
        <time>2022-08-16T13:27:05Z</time>
      </trkpt>
      <trkpt lat="44.84202" lon="1.27554">
        <ele>93.9930511</ele>
        <time>2022-08-16T13:27:07Z</time>
      </trkpt>
      <trkpt lat="44.84209" lon="1.27551">
        <ele>93.7987429</ele>
        <time>2022-08-16T13:27:09Z</time>
      </trkpt>
      <trkpt lat="44.84217" lon="1.27548">
        <ele>93.4835562</ele>
        <time>2022-08-16T13:27:11Z</time>
      </trkpt>
      <trkpt lat="44.84226" lon="1.27545">
        <ele>93.0975974</ele>
        <time>2022-08-16T13:27:13Z</time>
      </trkpt>
      <trkpt lat="44.84235" lon="1.27541">
        <ele>93.1705409</ele>
        <time>2022-08-16T13:27:15Z</time>
      </trkpt>
      <trkpt lat="44.84245" lon="1.27539">
        <ele>93.0700875</ele>
        <time>2022-08-16T13:27:17Z</time>
      </trkpt>
      <trkpt lat="44.84255" lon="1.27536">
        <ele>93.4379019</ele>
        <time>2022-08-16T13:27:19Z</time>
      </trkpt>
      <trkpt lat="44.84266" lon="1.27535">
        <ele>93.2764302</ele>
        <time>2022-08-16T13:27:21Z</time>
      </trkpt>
      <trkpt lat="44.84276" lon="1.27534">
        <ele>93.0796144</ele>
        <time>2022-08-16T13:27:23Z</time>
      </trkpt>
      <trkpt lat="44.84286" lon="1.27533">
        <ele>92.8397514</ele>
        <time>2022-08-16T13:27:25Z</time>
      </trkpt>
      <trkpt lat="44.84297" lon="1.27533">
        <ele>92.5264124</ele>
        <time>2022-08-16T13:27:27Z</time>
      </trkpt>
      <trkpt lat="44.84308" lon="1.27533">
        <ele>92.9204286</ele>
        <time>2022-08-16T13:27:29Z</time>
      </trkpt>
      <trkpt lat="44.84318" lon="1.27532">
        <ele>93.1174769</ele>
        <time>2022-08-16T13:27:31Z</time>
      </trkpt>
      <trkpt lat="44.84328" lon="1.27533">
        <ele>92.7450811</ele>
        <time>2022-08-16T13:27:33Z</time>
      </trkpt>
      <trkpt lat="44.84338" lon="1.27534">
        <ele>92.2839924</ele>
        <time>2022-08-16T13:27:35Z</time>
      </trkpt>
      <trkpt lat="44.84349" lon="1.27535">
        <ele>92.6080155</ele>
        <time>2022-08-16T13:27:37Z</time>
      </trkpt>
      <trkpt lat="44.84359" lon="1.27536">
        <ele>92.5080986</ele>
        <time>2022-08-16T13:27:39Z</time>
      </trkpt>
      <trkpt lat="44.8437" lon="1.27536">
        <ele>92.7925248</ele>
        <time>2022-08-16T13:27:41Z</time>
      </trkpt>
      <trkpt lat="44.84381" lon="1.27537">
        <ele>92.6997392</ele>
        <time>2022-08-16T13:27:43Z</time>
      </trkpt>
      <trkpt lat="44.84392" lon="1.27537">
        <ele>92.6447778</ele>
        <time>2022-08-16T13:27:45Z</time>
      </trkpt>
      <trkpt lat="44.84403" lon="1.27537">
        <ele>92.559704</ele>
        <time>2022-08-16T13:27:47Z</time>
      </trkpt>
      <trkpt lat="44.84415" lon="1.27538">
        <ele>92.6224298</ele>
        <time>2022-08-16T13:27:49Z</time>
      </trkpt>
      <trkpt lat="44.84426" lon="1.27539">
        <ele>92.6418845</ele>
        <time>2022-08-16T13:27:51Z</time>
      </trkpt>
      <trkpt lat="44.84437" lon="1.27539">
        <ele>92.956539</ele>
        <time>2022-08-16T13:27:53Z</time>
      </trkpt>
      <trkpt lat="44.84449" lon="1.27538">
        <ele>93.2538749</ele>
        <time>2022-08-16T13:27:55Z</time>
      </trkpt>
      <trkpt lat="44.84461" lon="1.27537">
        <ele>93.1796709</ele>
        <time>2022-08-16T13:27:57Z</time>
      </trkpt>
      <trkpt lat="44.84473" lon="1.27536">
        <ele>93.3546179</ele>
        <time>2022-08-16T13:27:59Z</time>
      </trkpt>
      <trkpt lat="44.84484" lon="1.27534">
        <ele>93.1887445</ele>
        <time>2022-08-16T13:28:01Z</time>
      </trkpt>
      <trkpt lat="44.84496" lon="1.27531">
        <ele>92.9236448</ele>
        <time>2022-08-16T13:28:03Z</time>
      </trkpt>
      <trkpt lat="44.84508" lon="1.27529">
        <ele>92.892649</ele>
        <time>2022-08-16T13:28:05Z</time>
      </trkpt>
      <trkpt lat="44.84519" lon="1.27526">
        <ele>92.3263944</ele>
        <time>2022-08-16T13:28:07Z</time>
      </trkpt>
      <trkpt lat="44.84531" lon="1.27522">
        <ele>91.7351222</ele>
        <time>2022-08-16T13:28:09Z</time>
      </trkpt>
      <trkpt lat="44.84542" lon="1.27518">
        <ele>91.3994875</ele>
        <time>2022-08-16T13:28:11Z</time>
      </trkpt>
      <trkpt lat="44.84553" lon="1.27514">
        <ele>91.0451276</ele>
        <time>2022-08-16T13:28:13Z</time>
      </trkpt>
      <trkpt lat="44.84564" lon="1.2751">
        <ele>90.8780441</ele>
        <time>2022-08-16T13:28:15Z</time>
      </trkpt>
      <trkpt lat="44.84575" lon="1.27504">
        <ele>90.940948</ele>
        <time>2022-08-16T13:28:17Z</time>
      </trkpt>
      <trkpt lat="44.84586" lon="1.27499">
        <ele>90.628996</ele>
        <time>2022-08-16T13:28:19Z</time>
      </trkpt>
      <trkpt lat="44.84596" lon="1.27493">
        <ele>90.7417814</ele>
        <time>2022-08-16T13:28:21Z</time>
      </trkpt>
      <trkpt lat="44.84607" lon="1.27488">
        <ele>90.448551</ele>
        <time>2022-08-16T13:28:23Z</time>
      </trkpt>
      <trkpt lat="44.84618" lon="1.27482">
        <ele>90.0761283</ele>
        <time>2022-08-16T13:28:25Z</time>
      </trkpt>
      <trkpt lat="44.84628" lon="1.27474">
        <ele>89.4711162</ele>
        <time>2022-08-16T13:28:27Z</time>
      </trkpt>
      <trkpt lat="44.84639" lon="1.27467">
        <ele>89.3980385</ele>
        <time>2022-08-16T13:28:29Z</time>
      </trkpt>
      <trkpt lat="44.84649" lon="1.27458">
        <ele>89.4195417</ele>
        <time>2022-08-16T13:28:31Z</time>
      </trkpt>
      <trkpt lat="44.84659" lon="1.2745">
        <ele>89.5861745</ele>
        <time>2022-08-16T13:28:33Z</time>
      </trkpt>
      <trkpt lat="44.8467" lon="1.27441">
        <ele>89.0433564</ele>
        <time>2022-08-16T13:28:35Z</time>
      </trkpt>
      <trkpt lat="44.8468" lon="1.27432">
        <ele>88.6635196</ele>
        <time>2022-08-16T13:28:37Z</time>
      </trkpt>
      <trkpt lat="44.8469" lon="1.27423">
        <ele>88.9217178</ele>
        <time>2022-08-16T13:28:39Z</time>
      </trkpt>
      <trkpt lat="44.84701" lon="1.27415">
        <ele>88.2996231</ele>
        <time>2022-08-16T13:28:41Z</time>
      </trkpt>
      <trkpt lat="44.84711" lon="1.27406">
        <ele>88.4718458</ele>
        <time>2022-08-16T13:28:43Z</time>
      </trkpt>
      <trkpt lat="44.8472" lon="1.27399">
        <ele>87.9399924</ele>
        <time>2022-08-16T13:28:45Z</time>
      </trkpt>
      <trkpt lat="44.8473" lon="1.27391">
        <ele>87.687387</ele>
        <time>2022-08-16T13:28:47Z</time>
      </trkpt>
      <trkpt lat="44.8474" lon="1.27384">
        <ele>87.3308512</ele>
        <time>2022-08-16T13:28:49Z</time>
      </trkpt>
      <trkpt lat="44.8475" lon="1.27377">
        <ele>87.3094722</ele>
        <time>2022-08-16T13:28:51Z</time>
      </trkpt>
      <trkpt lat="44.8476" lon="1.2737">
        <ele>87.739762</ele>
        <time>2022-08-16T13:28:53Z</time>
      </trkpt>
      <trkpt lat="44.84769" lon="1.27363">
        <ele>87.0417177</ele>
        <time>2022-08-16T13:28:55Z</time>
      </trkpt>
      <trkpt lat="44.84779" lon="1.27357">
        <ele>86.9659373</ele>
        <time>2022-08-16T13:28:57Z</time>
      </trkpt>
      <trkpt lat="44.8479" lon="1.27351">
        <ele>87.4182904</ele>
        <time>2022-08-16T13:28:59Z</time>
      </trkpt>
      <trkpt lat="44.84801" lon="1.27346">
        <ele>86.8230203</ele>
        <time>2022-08-16T13:29:01Z</time>
      </trkpt>
      <trkpt lat="44.84812" lon="1.2734">
        <ele>87.2411913</ele>
        <time>2022-08-16T13:29:03Z</time>
      </trkpt>
      <trkpt lat="44.84821" lon="1.27335">
        <ele>86.5646821</ele>
        <time>2022-08-16T13:29:05Z</time>
      </trkpt>
      <trkpt lat="44.84832" lon="1.27331">
        <ele>86.0369097</ele>
        <time>2022-08-16T13:29:07Z</time>
      </trkpt>
      <trkpt lat="44.84843" lon="1.27327">
        <ele>85.2312817</ele>
        <time>2022-08-16T13:29:09Z</time>
      </trkpt>
      <trkpt lat="44.84853" lon="1.27323">
        <ele>85.2392689</ele>
        <time>2022-08-16T13:29:11Z</time>
      </trkpt>
      <trkpt lat="44.84864" lon="1.27319">
        <ele>85.9089623</ele>
        <time>2022-08-16T13:29:13Z</time>
      </trkpt>
      <trkpt lat="44.84874" lon="1.27314">
        <ele>85.5777095</ele>
        <time>2022-08-16T13:29:15Z</time>
      </trkpt>
      <trkpt lat="44.84885" lon="1.27309">
        <ele>85.6023161</ele>
        <time>2022-08-16T13:29:17Z</time>
      </trkpt>
      <trkpt lat="44.84895" lon="1.27305">
        <ele>85.6357062</ele>
        <time>2022-08-16T13:29:19Z</time>
      </trkpt>
      <trkpt lat="44.84906" lon="1.27301">
        <ele>85.4281404</ele>
        <time>2022-08-16T13:29:21Z</time>
      </trkpt>
      <trkpt lat="44.84916" lon="1.27297">
        <ele>86.073245</ele>
        <time>2022-08-16T13:29:23Z</time>
      </trkpt>
      <trkpt lat="44.84925" lon="1.27293">
        <ele>85.8365805</ele>
        <time>2022-08-16T13:29:25Z</time>
      </trkpt>
      <trkpt lat="44.84935" lon="1.27289">
        <ele>86.1928904</ele>
        <time>2022-08-16T13:29:27Z</time>
      </trkpt>
      <trkpt lat="44.84944" lon="1.27285">
        <ele>86.6171574</ele>
        <time>2022-08-16T13:29:29Z</time>
      </trkpt>
      <trkpt lat="44.84954" lon="1.27282">
        <ele>87.1335512</ele>
        <time>2022-08-16T13:29:31Z</time>
      </trkpt>
      <trkpt lat="44.84963" lon="1.27279">
        <ele>87.5843524</ele>
        <time>2022-08-16T13:29:33Z</time>
      </trkpt>
      <trkpt lat="44.84971" lon="1.27276">
        <ele>87.6376439</ele>
        <time>2022-08-16T13:29:35Z</time>
      </trkpt>
      <trkpt lat="44.84979" lon="1.27272">
        <ele>87.9859048</ele>
        <time>2022-08-16T13:29:37Z</time>
      </trkpt>
      <trkpt lat="44.84986" lon="1.27269">
        <ele>87.8428545</ele>
        <time>2022-08-16T13:29:39Z</time>
      </trkpt>
      <trkpt lat="44.84995" lon="1.27266">
        <ele>87.8110242</ele>
        <time>2022-08-16T13:29:41Z</time>
      </trkpt>
      <trkpt lat="44.85004" lon="1.27262">
        <ele>88.5008427</ele>
        <time>2022-08-16T13:29:43Z</time>
      </trkpt>
      <trkpt lat="44.85012" lon="1.27259">
        <ele>88.3852772</ele>
        <time>2022-08-16T13:29:45Z</time>
      </trkpt>
      <trkpt lat="44.85019" lon="1.27255">
        <ele>88.1976489</ele>
        <time>2022-08-16T13:29:47Z</time>
      </trkpt>
      <trkpt lat="44.85027" lon="1.27252">
        <ele>89.3136591</ele>
        <time>2022-08-16T13:29:49Z</time>
      </trkpt>
      <trkpt lat="44.85035" lon="1.27249">
        <ele>89.9202137</ele>
        <time>2022-08-16T13:29:51Z</time>
      </trkpt>
      <trkpt lat="44.85042" lon="1.27246">
        <ele>90.449173</ele>
        <time>2022-08-16T13:29:53Z</time>
      </trkpt>
      <trkpt lat="44.8505" lon="1.27243">
        <ele>91.3759606</ele>
        <time>2022-08-16T13:29:55Z</time>
      </trkpt>
      <trkpt lat="44.85058" lon="1.2724">
        <ele>91.946561</ele>
        <time>2022-08-16T13:29:57Z</time>
      </trkpt>
      <trkpt lat="44.85066" lon="1.27237">
        <ele>92.2051263</ele>
        <time>2022-08-16T13:29:59Z</time>
      </trkpt>
      <trkpt lat="44.85072" lon="1.27233">
        <ele>92.7193379</ele>
        <time>2022-08-16T13:30:01Z</time>
      </trkpt>
      <trkpt lat="44.85079" lon="1.27229">
        <ele>93.0436354</ele>
        <time>2022-08-16T13:30:03Z</time>
      </trkpt>
      <trkpt lat="44.85086" lon="1.27226">
        <ele>93.4322087</ele>
        <time>2022-08-16T13:30:05Z</time>
      </trkpt>
      <trkpt lat="44.85093" lon="1.27221">
        <ele>94.2427378</ele>
        <time>2022-08-16T13:30:07Z</time>
      </trkpt>
      <trkpt lat="44.851" lon="1.27217">
        <ele>94.7786468</ele>
        <time>2022-08-16T13:30:09Z</time>
      </trkpt>
      <trkpt lat="44.85107" lon="1.27213">
        <ele>95.8907343</ele>
        <time>2022-08-16T13:30:11Z</time>
      </trkpt>
      <trkpt lat="44.85114" lon="1.27208">
        <ele>96.6846023</ele>
        <time>2022-08-16T13:30:13Z</time>
      </trkpt>
      <trkpt lat="44.8512" lon="1.27203">
        <ele>96.7793433</ele>
        <time>2022-08-16T13:30:15Z</time>
      </trkpt>
      <trkpt lat="44.85127" lon="1.27199">
        <ele>97.141407</ele>
        <time>2022-08-16T13:30:17Z</time>
      </trkpt>
      <trkpt lat="44.85134" lon="1.27194">
        <ele>96.5008528</ele>
        <time>2022-08-16T13:30:19Z</time>
      </trkpt>
      <trkpt lat="44.85139" lon="1.27188">
        <ele>96.5305593</ele>
        <time>2022-08-16T13:30:21Z</time>
      </trkpt>
      <trkpt lat="44.85146" lon="1.27184">
        <ele>97.1623846</ele>
        <time>2022-08-16T13:30:23Z</time>
      </trkpt>
      <trkpt lat="44.85151" lon="1.27179">
        <ele>97.0774764</ele>
        <time>2022-08-16T13:30:25Z</time>
      </trkpt>
      <trkpt lat="44.85157" lon="1.27173">
        <ele>96.8909825</ele>
        <time>2022-08-16T13:30:27Z</time>
      </trkpt>
      <trkpt lat="44.85162" lon="1.27167">
        <ele>97.2486806</ele>
        <time>2022-08-16T13:30:29Z</time>
      </trkpt>
      <trkpt lat="44.85168" lon="1.27162">
        <ele>97.3741046</ele>
        <time>2022-08-16T13:30:31Z</time>
      </trkpt>
      <trkpt lat="44.85174" lon="1.27157">
        <ele>98.5963811</ele>
        <time>2022-08-16T13:30:33Z</time>
      </trkpt>
      <trkpt lat="44.85178" lon="1.27151">
        <ele>98.2867492</ele>
        <time>2022-08-16T13:30:35Z</time>
      </trkpt>
      <trkpt lat="44.85183" lon="1.27146">
        <ele>98.5068041</ele>
        <time>2022-08-16T13:30:37Z</time>
      </trkpt>
      <trkpt lat="44.85188" lon="1.2714">
        <ele>98.617304</ele>
        <time>2022-08-16T13:30:39Z</time>
      </trkpt>
      <trkpt lat="44.85194" lon="1.27134">
        <ele>98.5778763</ele>
        <time>2022-08-16T13:30:41Z</time>
      </trkpt>
      <trkpt lat="44.85199" lon="1.27128">
        <ele>98.7065169</ele>
        <time>2022-08-16T13:30:43Z</time>
      </trkpt>
      <trkpt lat="44.85203" lon="1.27123">
        <ele>98.4067043</ele>
        <time>2022-08-16T13:30:45Z</time>
      </trkpt>
      <trkpt lat="44.85207" lon="1.27116">
        <ele>97.6164706</ele>
        <time>2022-08-16T13:30:47Z</time>
      </trkpt>
      <trkpt lat="44.85211" lon="1.2711">
        <ele>97.1949626</ele>
        <time>2022-08-16T13:30:49Z</time>
      </trkpt>
      <trkpt lat="44.85216" lon="1.27104">
        <ele>97.0279953</ele>
        <time>2022-08-16T13:30:51Z</time>
      </trkpt>
      <trkpt lat="44.85222" lon="1.27097">
        <ele>96.0444353</ele>
        <time>2022-08-16T13:30:53Z</time>
      </trkpt>
      <trkpt lat="44.85226" lon="1.27092">
        <ele>95.827895</ele>
        <time>2022-08-16T13:30:55Z</time>
      </trkpt>
      <trkpt lat="44.8523" lon="1.27087">
        <ele>96.2709487</ele>
        <time>2022-08-16T13:30:57Z</time>
      </trkpt>
      <trkpt lat="44.85233" lon="1.27081">
        <ele>95.6314343</ele>
        <time>2022-08-16T13:30:59Z</time>
      </trkpt>
      <trkpt lat="44.85238" lon="1.27076">
        <ele>95.8147891</ele>
        <time>2022-08-16T13:31:01Z</time>
      </trkpt>
      <trkpt lat="44.85242" lon="1.27068">
        <ele>96.2689478</ele>
        <time>2022-08-16T13:31:03Z</time>
      </trkpt>
      <trkpt lat="44.85246" lon="1.2706">
        <ele>96.0003213</ele>
        <time>2022-08-16T13:31:05Z</time>
      </trkpt>
      <trkpt lat="44.85249" lon="1.27052">
        <ele>96.4008949</ele>
        <time>2022-08-16T13:31:07Z</time>
      </trkpt>
      <trkpt lat="44.85255" lon="1.27043">
        <ele>96.5934215</ele>
        <time>2022-08-16T13:31:09Z</time>
      </trkpt>
      <trkpt lat="44.85259" lon="1.27037">
        <ele>97.5848959</ele>
        <time>2022-08-16T13:31:11Z</time>
      </trkpt>
      <trkpt lat="44.85263" lon="1.27027">
        <ele>98.7267396</ele>
        <time>2022-08-16T13:31:13Z</time>
      </trkpt>
      <trkpt lat="44.85266" lon="1.27018">
        <ele>98.9939541</ele>
        <time>2022-08-16T13:31:15Z</time>
      </trkpt>
      <trkpt lat="44.85269" lon="1.27009">
        <ele>99.3963205</ele>
        <time>2022-08-16T13:31:17Z</time>
      </trkpt>
      <trkpt lat="44.85272" lon="1.27002">
        <ele>99.9837852</ele>
        <time>2022-08-16T13:31:19Z</time>
      </trkpt>
      <trkpt lat="44.85276" lon="1.26995">
        <ele>99.8577169</ele>
        <time>2022-08-16T13:31:21Z</time>
      </trkpt>
      <trkpt lat="44.85279" lon="1.26985">
        <ele>100.4973957</ele>
        <time>2022-08-16T13:31:23Z</time>
      </trkpt>
      <trkpt lat="44.85283" lon="1.26976">
        <ele>101.0858416</ele>
        <time>2022-08-16T13:31:25Z</time>
      </trkpt>
      <trkpt lat="44.85287" lon="1.26969">
        <ele>100.7304289</ele>
        <time>2022-08-16T13:31:27Z</time>
      </trkpt>
      <trkpt lat="44.85289" lon="1.26959">
        <ele>101.7614977</ele>
        <time>2022-08-16T13:31:29Z</time>
      </trkpt>
      <trkpt lat="44.85292" lon="1.2695">
        <ele>101.6380362</ele>
        <time>2022-08-16T13:31:31Z</time>
      </trkpt>
      <trkpt lat="44.85295" lon="1.26941">
        <ele>101.5532566</ele>
        <time>2022-08-16T13:31:33Z</time>
      </trkpt>
      <trkpt lat="44.85297" lon="1.26934">
        <ele>102.104401</ele>
        <time>2022-08-16T13:31:35Z</time>
      </trkpt>
      <trkpt lat="44.85299" lon="1.26924">
        <ele>100.9352844</ele>
        <time>2022-08-16T13:31:37Z</time>
      </trkpt>
      <trkpt lat="44.853" lon="1.26915">
        <ele>99.7273855</ele>
        <time>2022-08-16T13:31:39Z</time>
      </trkpt>
      <trkpt lat="44.85303" lon="1.26906">
        <ele>99.502765</ele>
        <time>2022-08-16T13:31:41Z</time>
      </trkpt>
      <trkpt lat="44.85305" lon="1.26896">
        <ele>100.8603681</ele>
        <time>2022-08-16T13:31:43Z</time>
      </trkpt>
      <trkpt lat="44.85307" lon="1.26886">
        <ele>101.7792784</ele>
        <time>2022-08-16T13:31:45Z</time>
      </trkpt>
      <trkpt lat="44.85308" lon="1.26876">
        <ele>101.6700042</ele>
        <time>2022-08-16T13:31:47Z</time>
      </trkpt>
      <trkpt lat="44.85309" lon="1.26866">
        <ele>101.8557032</ele>
        <time>2022-08-16T13:31:49Z</time>
      </trkpt>
      <trkpt lat="44.85309" lon="1.26857">
        <ele>101.0294082</ele>
        <time>2022-08-16T13:31:51Z</time>
      </trkpt>
      <trkpt lat="44.8531" lon="1.26848">
        <ele>100.753712</ele>
        <time>2022-08-16T13:31:53Z</time>
      </trkpt>
      <trkpt lat="44.8531" lon="1.26837">
        <ele>100.031775</ele>
        <time>2022-08-16T13:31:55Z</time>
      </trkpt>
      <trkpt lat="44.85311" lon="1.26827">
        <ele>100.6987191</ele>
        <time>2022-08-16T13:31:57Z</time>
      </trkpt>
      <trkpt lat="44.85313" lon="1.26816">
        <ele>100.8597643</ele>
        <time>2022-08-16T13:31:59Z</time>
      </trkpt>
      <trkpt lat="44.85313" lon="1.26806">
        <ele>101.0992661</ele>
        <time>2022-08-16T13:32:01Z</time>
      </trkpt>
      <trkpt lat="44.85314" lon="1.26796">
        <ele>100.8641938</ele>
        <time>2022-08-16T13:32:03Z</time>
      </trkpt>
      <trkpt lat="44.85314" lon="1.26786">
        <ele>100.9273447</ele>
        <time>2022-08-16T13:32:05Z</time>
      </trkpt>
      <trkpt lat="44.85314" lon="1.26776">
        <ele>101.004618</ele>
        <time>2022-08-16T13:32:07Z</time>
      </trkpt>
      <trkpt lat="44.85315" lon="1.26767">
        <ele>101.2563991</ele>
        <time>2022-08-16T13:32:09Z</time>
      </trkpt>
      <trkpt lat="44.85315" lon="1.26758">
        <ele>101.6741393</ele>
        <time>2022-08-16T13:32:11Z</time>
      </trkpt>
      <trkpt lat="44.85315" lon="1.2675">
        <ele>101.761359</ele>
        <time>2022-08-16T13:32:13Z</time>
      </trkpt>
      <trkpt lat="44.85314" lon="1.26742">
        <ele>101.7658916</ele>
        <time>2022-08-16T13:32:15Z</time>
      </trkpt>
      <trkpt lat="44.85314" lon="1.26732">
        <ele>101.0088549</ele>
        <time>2022-08-16T13:32:17Z</time>
      </trkpt>
      <trkpt lat="44.85314" lon="1.26722">
        <ele>100.2689589</ele>
        <time>2022-08-16T13:32:19Z</time>
      </trkpt>
      <trkpt lat="44.85313" lon="1.26714">
        <ele>99.4239887</ele>
        <time>2022-08-16T13:32:21Z</time>
      </trkpt>
      <trkpt lat="44.85312" lon="1.26705">
        <ele>98.6491098</ele>
        <time>2022-08-16T13:32:23Z</time>
      </trkpt>
      <trkpt lat="44.85311" lon="1.26696">
        <ele>97.8815189</ele>
        <time>2022-08-16T13:32:25Z</time>
      </trkpt>
      <trkpt lat="44.85309" lon="1.26686">
        <ele>98.0196861</ele>
        <time>2022-08-16T13:32:27Z</time>
      </trkpt>
      <trkpt lat="44.85308" lon="1.26676">
        <ele>97.7271518</ele>
        <time>2022-08-16T13:32:29Z</time>
      </trkpt>
      <trkpt lat="44.85307" lon="1.26666">
        <ele>97.5809013</ele>
        <time>2022-08-16T13:32:31Z</time>
      </trkpt>
      <trkpt lat="44.85305" lon="1.26655">
        <ele>97.4862687</ele>
        <time>2022-08-16T13:32:33Z</time>
      </trkpt>
      <trkpt lat="44.85304" lon="1.26645">
        <ele>97.3019447</ele>
        <time>2022-08-16T13:32:35Z</time>
      </trkpt>
      <trkpt lat="44.85303" lon="1.26635">
        <ele>97.1107824</ele>
        <time>2022-08-16T13:32:37Z</time>
      </trkpt>
      <trkpt lat="44.85302" lon="1.26626">
        <ele>97.3066089</ele>
        <time>2022-08-16T13:32:39Z</time>
      </trkpt>
      <trkpt lat="44.85301" lon="1.26617">
        <ele>96.7877264</ele>
        <time>2022-08-16T13:32:41Z</time>
      </trkpt>
      <trkpt lat="44.853" lon="1.26607">
        <ele>97.0142622</ele>
        <time>2022-08-16T13:32:43Z</time>
      </trkpt>
      <trkpt lat="44.85298" lon="1.26597">
        <ele>97.2852215</ele>
        <time>2022-08-16T13:32:45Z</time>
      </trkpt>
      <trkpt lat="44.85298" lon="1.26588">
        <ele>98.2305026</ele>
        <time>2022-08-16T13:32:47Z</time>
      </trkpt>
      <trkpt lat="44.85297" lon="1.26578">
        <ele>98.0182716</ele>
        <time>2022-08-16T13:32:49Z</time>
      </trkpt>
      <trkpt lat="44.85297" lon="1.26569">
        <ele>98.1816373</ele>
        <time>2022-08-16T13:32:51Z</time>
      </trkpt>
      <trkpt lat="44.85295" lon="1.26561">
        <ele>98.461902</ele>
        <time>2022-08-16T13:32:53Z</time>
      </trkpt>
      <trkpt lat="44.85294" lon="1.26549">
        <ele>97.6025852</ele>
        <time>2022-08-16T13:32:55Z</time>
      </trkpt>
      <trkpt lat="44.85293" lon="1.2654">
        <ele>97.1421289</ele>
        <time>2022-08-16T13:32:57Z</time>
      </trkpt>
      <trkpt lat="44.85293" lon="1.26531">
        <ele>96.1804286</ele>
        <time>2022-08-16T13:32:59Z</time>
      </trkpt>
      <trkpt lat="44.85291" lon="1.26521">
        <ele>96.2512219</ele>
        <time>2022-08-16T13:33:01Z</time>
      </trkpt>
      <trkpt lat="44.8529" lon="1.2651">
        <ele>96.8885111</ele>
        <time>2022-08-16T13:33:03Z</time>
      </trkpt>
      <trkpt lat="44.85289" lon="1.26502">
        <ele>97.5779938</ele>
        <time>2022-08-16T13:33:05Z</time>
      </trkpt>
      <trkpt lat="44.85288" lon="1.26492">
        <ele>97.2692963</ele>
        <time>2022-08-16T13:33:07Z</time>
      </trkpt>
      <trkpt lat="44.85288" lon="1.26482">
        <ele>97.1842336</ele>
        <time>2022-08-16T13:33:09Z</time>
      </trkpt>
      <trkpt lat="44.85286" lon="1.26475">
        <ele>98.5188311</ele>
        <time>2022-08-16T13:33:11Z</time>
      </trkpt>
      <trkpt lat="44.85285" lon="1.26466">
        <ele>97.3512526</ele>
        <time>2022-08-16T13:33:13Z</time>
      </trkpt>
      <trkpt lat="44.85284" lon="1.26458">
        <ele>97.7694348</ele>
        <time>2022-08-16T13:33:15Z</time>
      </trkpt>
      <trkpt lat="44.85283" lon="1.26449">
        <ele>97.3324771</ele>
        <time>2022-08-16T13:33:17Z</time>
      </trkpt>
      <trkpt lat="44.85283" lon="1.2644">
        <ele>97.2586068</ele>
        <time>2022-08-16T13:33:19Z</time>
      </trkpt>
      <trkpt lat="44.85282" lon="1.26431">
        <ele>97.5598538</ele>
        <time>2022-08-16T13:33:21Z</time>
      </trkpt>
      <trkpt lat="44.85282" lon="1.26423">
        <ele>98.1934585</ele>
        <time>2022-08-16T13:33:23Z</time>
      </trkpt>
      <trkpt lat="44.85283" lon="1.26412">
        <ele>98.2919224</ele>
        <time>2022-08-16T13:33:25Z</time>
      </trkpt>
      <trkpt lat="44.85283" lon="1.26402">
        <ele>98.2311874</ele>
        <time>2022-08-16T13:33:27Z</time>
      </trkpt>
      <trkpt lat="44.85283" lon="1.26394">
        <ele>98.8352555</ele>
        <time>2022-08-16T13:33:29Z</time>
      </trkpt>
      <trkpt lat="44.85283" lon="1.26386">
        <ele>99.1730515</ele>
        <time>2022-08-16T13:33:31Z</time>
      </trkpt>
      <trkpt lat="44.85283" lon="1.26377">
        <ele>99.2686552</ele>
        <time>2022-08-16T13:33:33Z</time>
      </trkpt>
      <trkpt lat="44.85282" lon="1.26369">
        <ele>99.2901342</ele>
        <time>2022-08-16T13:33:35Z</time>
      </trkpt>
      <trkpt lat="44.85282" lon="1.26358">
        <ele>99.5485872</ele>
        <time>2022-08-16T13:33:37Z</time>
      </trkpt>
      <trkpt lat="44.85283" lon="1.26348">
        <ele>101.0192983</ele>
        <time>2022-08-16T13:33:39Z</time>
      </trkpt>
      <trkpt lat="44.85285" lon="1.26336">
        <ele>103.2686142</ele>
        <time>2022-08-16T13:33:41Z</time>
      </trkpt>
      <trkpt lat="44.85287" lon="1.26325">
        <ele>103.4153363</ele>
        <time>2022-08-16T13:33:43Z</time>
      </trkpt>
      <trkpt lat="44.85289" lon="1.26315">
        <ele>104.8861517</ele>
        <time>2022-08-16T13:33:45Z</time>
      </trkpt>
      <trkpt lat="44.85291" lon="1.26305">
        <ele>106.189527</ele>
        <time>2022-08-16T13:33:47Z</time>
      </trkpt>
      <trkpt lat="44.85293" lon="1.26296">
        <ele>106.312024</ele>
        <time>2022-08-16T13:33:49Z</time>
      </trkpt>
      <trkpt lat="44.85294" lon="1.26287">
        <ele>106.5788122</ele>
        <time>2022-08-16T13:33:51Z</time>
      </trkpt>
      <trkpt lat="44.85296" lon="1.26278">
        <ele>106.8889718</ele>
        <time>2022-08-16T13:33:53Z</time>
      </trkpt>
      <trkpt lat="44.85298" lon="1.2627">
        <ele>106.8669219</ele>
        <time>2022-08-16T13:33:55Z</time>
      </trkpt>
      <trkpt lat="44.853" lon="1.26261">
        <ele>108.0206554</ele>
        <time>2022-08-16T13:33:57Z</time>
      </trkpt>
      <trkpt lat="44.85303" lon="1.26252">
        <ele>107.8445282</ele>
        <time>2022-08-16T13:33:59Z</time>
      </trkpt>
      <trkpt lat="44.85306" lon="1.26243">
        <ele>108.0254516</ele>
        <time>2022-08-16T13:34:01Z</time>
      </trkpt>
      <trkpt lat="44.85308" lon="1.26234">
        <ele>108.2732253</ele>
        <time>2022-08-16T13:34:03Z</time>
      </trkpt>
      <trkpt lat="44.8531" lon="1.26225">
        <ele>108.4797814</ele>
        <time>2022-08-16T13:34:05Z</time>
      </trkpt>
      <trkpt lat="44.85311" lon="1.26217">
        <ele>108.2917843</ele>
        <time>2022-08-16T13:34:07Z</time>
      </trkpt>
      <trkpt lat="44.85313" lon="1.26208">
        <ele>109.1707098</ele>
        <time>2022-08-16T13:34:09Z</time>
      </trkpt>
      <trkpt lat="44.85315" lon="1.26199">
        <ele>108.9060112</ele>
        <time>2022-08-16T13:34:11Z</time>
      </trkpt>
      <trkpt lat="44.85317" lon="1.2619">
        <ele>108.84643</ele>
        <time>2022-08-16T13:34:13Z</time>
      </trkpt>
      <trkpt lat="44.8532" lon="1.26179">
        <ele>109.1657087</ele>
        <time>2022-08-16T13:34:15Z</time>
      </trkpt>
      <trkpt lat="44.85322" lon="1.26169">
        <ele>108.7339439</ele>
        <time>2022-08-16T13:34:17Z</time>
      </trkpt>
      <trkpt lat="44.85324" lon="1.2616">
        <ele>108.7361258</ele>
        <time>2022-08-16T13:34:19Z</time>
      </trkpt>
      <trkpt lat="44.85325" lon="1.26152">
        <ele>107.9821482</ele>
        <time>2022-08-16T13:34:21Z</time>
      </trkpt>
      <trkpt lat="44.85328" lon="1.26143">
        <ele>108.0433189</ele>
        <time>2022-08-16T13:34:23Z</time>
      </trkpt>
      <trkpt lat="44.8533" lon="1.26136">
        <ele>107.977973</ele>
        <time>2022-08-16T13:34:25Z</time>
      </trkpt>
      <trkpt lat="44.85334" lon="1.26126">
        <ele>108.3014035</ele>
        <time>2022-08-16T13:34:27Z</time>
      </trkpt>
      <trkpt lat="44.85337" lon="1.26116">
        <ele>108.9053939</ele>
        <time>2022-08-16T13:34:29Z</time>
      </trkpt>
      <trkpt lat="44.85341" lon="1.26106">
        <ele>109.6258184</ele>
        <time>2022-08-16T13:34:31Z</time>
      </trkpt>
      <trkpt lat="44.85344" lon="1.26097">
        <ele>110.5338318</ele>
        <time>2022-08-16T13:34:33Z</time>
      </trkpt>
      <trkpt lat="44.85348" lon="1.26088">
        <ele>111.3745344</ele>
        <time>2022-08-16T13:34:35Z</time>
      </trkpt>
      <trkpt lat="44.85352" lon="1.26078">
        <ele>112.7785854</ele>
        <time>2022-08-16T13:34:37Z</time>
      </trkpt>
      <trkpt lat="44.85357" lon="1.26069">
        <ele>113.5120698</ele>
        <time>2022-08-16T13:34:39Z</time>
      </trkpt>
      <trkpt lat="44.85361" lon="1.26059">
        <ele>114.2344753</ele>
        <time>2022-08-16T13:34:41Z</time>
      </trkpt>
      <trkpt lat="44.85364" lon="1.26052">
        <ele>114.4837819</ele>
        <time>2022-08-16T13:34:43Z</time>
      </trkpt>
      <trkpt lat="44.85369" lon="1.26044">
        <ele>114.8019582</ele>
        <time>2022-08-16T13:34:45Z</time>
      </trkpt>
      <trkpt lat="44.85373" lon="1.26036">
        <ele>114.1616221</ele>
        <time>2022-08-16T13:34:47Z</time>
      </trkpt>
      <trkpt lat="44.85377" lon="1.26029">
        <ele>113.9388376</ele>
        <time>2022-08-16T13:34:49Z</time>
      </trkpt>
      <trkpt lat="44.85381" lon="1.26022">
        <ele>112.8973146</ele>
        <time>2022-08-16T13:34:51Z</time>
      </trkpt>
      <trkpt lat="44.85385" lon="1.26016">
        <ele>112.3948127</ele>
        <time>2022-08-16T13:34:53Z</time>
      </trkpt>
      <trkpt lat="44.85389" lon="1.26009">
        <ele>111.6293693</ele>
        <time>2022-08-16T13:34:55Z</time>
      </trkpt>
      <trkpt lat="44.85394" lon="1.26001">
        <ele>110.4361238</ele>
        <time>2022-08-16T13:34:57Z</time>
      </trkpt>
      <trkpt lat="44.854" lon="1.25994">
        <ele>110.4672727</ele>
        <time>2022-08-16T13:34:59Z</time>
      </trkpt>
      <trkpt lat="44.85405" lon="1.25987">
        <ele>110.5975747</ele>
        <time>2022-08-16T13:35:01Z</time>
      </trkpt>
      <trkpt lat="44.8541" lon="1.25979">
        <ele>110.966126</ele>
        <time>2022-08-16T13:35:03Z</time>
      </trkpt>
      <trkpt lat="44.85414" lon="1.25971">
        <ele>111.4926351</ele>
        <time>2022-08-16T13:35:05Z</time>
      </trkpt>
      <trkpt lat="44.85419" lon="1.25963">
        <ele>112.0604021</ele>
        <time>2022-08-16T13:35:07Z</time>
      </trkpt>
      <trkpt lat="44.85424" lon="1.25956">
        <ele>111.9864467</ele>
        <time>2022-08-16T13:35:09Z</time>
      </trkpt>
      <trkpt lat="44.85428" lon="1.25948">
        <ele>112.2239311</ele>
        <time>2022-08-16T13:35:11Z</time>
      </trkpt>
      <trkpt lat="44.85431" lon="1.25941">
        <ele>112.2716707</ele>
        <time>2022-08-16T13:35:13Z</time>
      </trkpt>
      <trkpt lat="44.85435" lon="1.25934">
        <ele>111.9623255</ele>
        <time>2022-08-16T13:35:15Z</time>
      </trkpt>
      <trkpt lat="44.8544" lon="1.25928">
        <ele>111.8810436</ele>
        <time>2022-08-16T13:35:17Z</time>
      </trkpt>
      <trkpt lat="44.85445" lon="1.2592">
        <ele>111.4824845</ele>
        <time>2022-08-16T13:35:19Z</time>
      </trkpt>
      <trkpt lat="44.8545" lon="1.25913">
        <ele>111.0965927</ele>
        <time>2022-08-16T13:35:21Z</time>
      </trkpt>
      <trkpt lat="44.85454" lon="1.25907">
        <ele>110.3731976</ele>
        <time>2022-08-16T13:35:23Z</time>
      </trkpt>
      <trkpt lat="44.85458" lon="1.259">
        <ele>110.3851436</ele>
        <time>2022-08-16T13:35:25Z</time>
      </trkpt>
      <trkpt lat="44.85462" lon="1.25893">
        <ele>110.2709414</ele>
        <time>2022-08-16T13:35:27Z</time>
      </trkpt>
      <trkpt lat="44.85467" lon="1.25886">
        <ele>110.396161</ele>
        <time>2022-08-16T13:35:29Z</time>
      </trkpt>
      <trkpt lat="44.85472" lon="1.25879">
        <ele>110.259861</ele>
        <time>2022-08-16T13:35:31Z</time>
      </trkpt>
      <trkpt lat="44.85476" lon="1.25872">
        <ele>110.3860101</ele>
        <time>2022-08-16T13:35:33Z</time>
      </trkpt>
      <trkpt lat="44.8548" lon="1.25865">
        <ele>110.3966505</ele>
        <time>2022-08-16T13:35:35Z</time>
      </trkpt>
      <trkpt lat="44.85485" lon="1.25859">
        <ele>110.3948078</ele>
        <time>2022-08-16T13:35:37Z</time>
      </trkpt>
      <trkpt lat="44.85489" lon="1.25852">
        <ele>110.0850101</ele>
        <time>2022-08-16T13:35:39Z</time>
      </trkpt>
      <trkpt lat="44.85494" lon="1.25846">
        <ele>109.8592277</ele>
        <time>2022-08-16T13:35:41Z</time>
      </trkpt>
      <trkpt lat="44.85498" lon="1.25839">
        <ele>109.7955061</ele>
        <time>2022-08-16T13:35:43Z</time>
      </trkpt>
      <trkpt lat="44.85503" lon="1.25832">
        <ele>109.5111379</ele>
        <time>2022-08-16T13:35:45Z</time>
      </trkpt>
      <trkpt lat="44.85507" lon="1.25825">
        <ele>109.77739</ele>
        <time>2022-08-16T13:35:47Z</time>
      </trkpt>
      <trkpt lat="44.85512" lon="1.25818">
        <ele>110.5174279</ele>
        <time>2022-08-16T13:35:49Z</time>
      </trkpt>
      <trkpt lat="44.85516" lon="1.25811">
        <ele>111.3796285</ele>
        <time>2022-08-16T13:35:51Z</time>
      </trkpt>
      <trkpt lat="44.85521" lon="1.25804">
        <ele>111.4868937</ele>
        <time>2022-08-16T13:35:53Z</time>
      </trkpt>
      <trkpt lat="44.85526" lon="1.25797">
        <ele>111.7840498</ele>
        <time>2022-08-16T13:35:55Z</time>
      </trkpt>
      <trkpt lat="44.8553" lon="1.2579">
        <ele>111.8508395</ele>
        <time>2022-08-16T13:35:57Z</time>
      </trkpt>
      <trkpt lat="44.85534" lon="1.25783">
        <ele>112.3526536</ele>
        <time>2022-08-16T13:35:59Z</time>
      </trkpt>
      <trkpt lat="44.85538" lon="1.25777">
        <ele>112.3944084</ele>
        <time>2022-08-16T13:36:01Z</time>
      </trkpt>
      <trkpt lat="44.85543" lon="1.25771">
        <ele>113.3408121</ele>
        <time>2022-08-16T13:36:03Z</time>
      </trkpt>
      <trkpt lat="44.85547" lon="1.25765">
        <ele>113.1059421</ele>
        <time>2022-08-16T13:36:05Z</time>
      </trkpt>
      <trkpt lat="44.85551" lon="1.25758">
        <ele>113.1479358</ele>
        <time>2022-08-16T13:36:07Z</time>
      </trkpt>
      <trkpt lat="44.85556" lon="1.25751">
        <ele>112.8507295</ele>
        <time>2022-08-16T13:36:09Z</time>
      </trkpt>
      <trkpt lat="44.8556" lon="1.25744">
        <ele>113.109954</ele>
        <time>2022-08-16T13:36:11Z</time>
      </trkpt>
      <trkpt lat="44.85566" lon="1.25737">
        <ele>113.1171451</ele>
        <time>2022-08-16T13:36:13Z</time>
      </trkpt>
      <trkpt lat="44.8557" lon="1.2573">
        <ele>112.5654286</ele>
        <time>2022-08-16T13:36:15Z</time>
      </trkpt>
      <trkpt lat="44.85576" lon="1.25723">
        <ele>113.060973</ele>
        <time>2022-08-16T13:36:17Z</time>
      </trkpt>
      <trkpt lat="44.85581" lon="1.25717">
        <ele>113.0534648</ele>
        <time>2022-08-16T13:36:19Z</time>
      </trkpt>
      <trkpt lat="44.85586" lon="1.2571">
        <ele>112.3119557</ele>
        <time>2022-08-16T13:36:21Z</time>
      </trkpt>
      <trkpt lat="44.85591" lon="1.25702">
        <ele>112.4784288</ele>
        <time>2022-08-16T13:36:23Z</time>
      </trkpt>
      <trkpt lat="44.85596" lon="1.25695">
        <ele>111.8990753</ele>
        <time>2022-08-16T13:36:25Z</time>
      </trkpt>
      <trkpt lat="44.85601" lon="1.25687">
        <ele>111.3614255</ele>
        <time>2022-08-16T13:36:27Z</time>
      </trkpt>
      <trkpt lat="44.85605" lon="1.2568">
        <ele>111.5476904</ele>
        <time>2022-08-16T13:36:29Z</time>
      </trkpt>
      <trkpt lat="44.85609" lon="1.25674">
        <ele>111.9906164</ele>
        <time>2022-08-16T13:36:31Z</time>
      </trkpt>
      <trkpt lat="44.85614" lon="1.25666">
        <ele>112.0836996</ele>
        <time>2022-08-16T13:36:33Z</time>
      </trkpt>
      <trkpt lat="44.85617" lon="1.25659">
        <ele>112.2513177</ele>
        <time>2022-08-16T13:36:35Z</time>
      </trkpt>
      <trkpt lat="44.85623" lon="1.25652">
        <ele>111.6952154</ele>
        <time>2022-08-16T13:36:37Z</time>
      </trkpt>
      <trkpt lat="44.85628" lon="1.25644">
        <ele>112.4705141</ele>
        <time>2022-08-16T13:36:39Z</time>
      </trkpt>
      <trkpt lat="44.85634" lon="1.25636">
        <ele>111.4819207</ele>
        <time>2022-08-16T13:36:41Z</time>
      </trkpt>
      <trkpt lat="44.8564" lon="1.25627">
        <ele>111.9374855</ele>
        <time>2022-08-16T13:36:43Z</time>
      </trkpt>
      <trkpt lat="44.85646" lon="1.25617">
        <ele>112.729815</ele>
        <time>2022-08-16T13:36:45Z</time>
      </trkpt>
      <trkpt lat="44.85652" lon="1.25608">
        <ele>113.7706906</ele>
        <time>2022-08-16T13:36:47Z</time>
      </trkpt>
      <trkpt lat="44.85658" lon="1.25599">
        <ele>113.6423163</ele>
        <time>2022-08-16T13:36:49Z</time>
      </trkpt>
      <trkpt lat="44.85664" lon="1.2559">
        <ele>113.280519</ele>
        <time>2022-08-16T13:36:51Z</time>
      </trkpt>
      <trkpt lat="44.8567" lon="1.25581">
        <ele>113.6831661</ele>
        <time>2022-08-16T13:36:53Z</time>
      </trkpt>
      <trkpt lat="44.85675" lon="1.25572">
        <ele>113.4641282</ele>
        <time>2022-08-16T13:36:55Z</time>
      </trkpt>
      <trkpt lat="44.85681" lon="1.25563">
        <ele>113.0588328</ele>
        <time>2022-08-16T13:36:57Z</time>
      </trkpt>
      <trkpt lat="44.85686" lon="1.25555">
        <ele>113.2823697</ele>
        <time>2022-08-16T13:36:59Z</time>
      </trkpt>
      <trkpt lat="44.85692" lon="1.25546">
        <ele>113.4161391</ele>
        <time>2022-08-16T13:37:01Z</time>
      </trkpt>
      <trkpt lat="44.85697" lon="1.25538">
        <ele>112.8808482</ele>
        <time>2022-08-16T13:37:03Z</time>
      </trkpt>
      <trkpt lat="44.85703" lon="1.2553">
        <ele>113.4935178</ele>
        <time>2022-08-16T13:37:05Z</time>
      </trkpt>
      <trkpt lat="44.85709" lon="1.25523">
        <ele>113.5418877</ele>
        <time>2022-08-16T13:37:07Z</time>
      </trkpt>
      <trkpt lat="44.85714" lon="1.25516">
        <ele>113.3055647</ele>
        <time>2022-08-16T13:37:09Z</time>
      </trkpt>
      <trkpt lat="44.85717" lon="1.25507">
        <ele>113.609873</ele>
        <time>2022-08-16T13:37:11Z</time>
      </trkpt>
      <trkpt lat="44.85723" lon="1.255">
        <ele>113.4534278</ele>
        <time>2022-08-16T13:37:13Z</time>
      </trkpt>
      <trkpt lat="44.85729" lon="1.25492">
        <ele>113.7648788</ele>
        <time>2022-08-16T13:37:15Z</time>
      </trkpt>
      <trkpt lat="44.85734" lon="1.25484">
        <ele>114.5290475</ele>
        <time>2022-08-16T13:37:17Z</time>
      </trkpt>
      <trkpt lat="44.85739" lon="1.25476">
        <ele>115.8081664</ele>
        <time>2022-08-16T13:37:19Z</time>
      </trkpt>
      <trkpt lat="44.85743" lon="1.25469">
        <ele>116.5452793</ele>
        <time>2022-08-16T13:37:21Z</time>
      </trkpt>
      <trkpt lat="44.85748" lon="1.25462">
        <ele>117.1282938</ele>
        <time>2022-08-16T13:37:23Z</time>
      </trkpt>
      <trkpt lat="44.85753" lon="1.25454">
        <ele>117.7164327</ele>
        <time>2022-08-16T13:37:25Z</time>
      </trkpt>
      <trkpt lat="44.85758" lon="1.25446">
        <ele>118.375515</ele>
        <time>2022-08-16T13:37:27Z</time>
      </trkpt>
      <trkpt lat="44.85762" lon="1.25437">
        <ele>117.0708695</ele>
        <time>2022-08-16T13:37:29Z</time>
      </trkpt>
      <trkpt lat="44.85767" lon="1.25429">
        <ele>117.1852593</ele>
        <time>2022-08-16T13:37:31Z</time>
      </trkpt>
      <trkpt lat="44.85772" lon="1.25422">
        <ele>117.1678159</ele>
        <time>2022-08-16T13:37:33Z</time>
      </trkpt>
      <trkpt lat="44.85778" lon="1.25413">
        <ele>115.8676451</ele>
        <time>2022-08-16T13:37:35Z</time>
      </trkpt>
      <trkpt lat="44.85783" lon="1.25406">
        <ele>116.3254507</ele>
        <time>2022-08-16T13:37:37Z</time>
      </trkpt>
      <trkpt lat="44.85788" lon="1.25397">
        <ele>115.9048982</ele>
        <time>2022-08-16T13:37:39Z</time>
      </trkpt>
      <trkpt lat="44.85795" lon="1.25389">
        <ele>116.0847589</ele>
        <time>2022-08-16T13:37:41Z</time>
      </trkpt>
      <trkpt lat="44.858" lon="1.2538">
        <ele>116.1501625</ele>
        <time>2022-08-16T13:37:43Z</time>
      </trkpt>
      <trkpt lat="44.85806" lon="1.25373">
        <ele>116.2831939</ele>
        <time>2022-08-16T13:37:45Z</time>
      </trkpt>
      <trkpt lat="44.85812" lon="1.25365">
        <ele>115.7212287</ele>
        <time>2022-08-16T13:37:47Z</time>
      </trkpt>
      <trkpt lat="44.85816" lon="1.25358">
        <ele>115.8317571</ele>
        <time>2022-08-16T13:37:49Z</time>
      </trkpt>
      <trkpt lat="44.85821" lon="1.25351">
        <ele>115.2588189</ele>
        <time>2022-08-16T13:37:51Z</time>
      </trkpt>
      <trkpt lat="44.85825" lon="1.25344">
        <ele>115.2230374</ele>
        <time>2022-08-16T13:37:53Z</time>
      </trkpt>
      <trkpt lat="44.85831" lon="1.25337">
        <ele>114.8733245</ele>
        <time>2022-08-16T13:37:55Z</time>
      </trkpt>
      <trkpt lat="44.85836" lon="1.2533">
        <ele>114.3743045</ele>
        <time>2022-08-16T13:37:57Z</time>
      </trkpt>
      <trkpt lat="44.85841" lon="1.25322">
        <ele>114.8715428</ele>
        <time>2022-08-16T13:37:59Z</time>
      </trkpt>
      <trkpt lat="44.85846" lon="1.25316">
        <ele>114.8918862</ele>
        <time>2022-08-16T13:38:01Z</time>
      </trkpt>
      <trkpt lat="44.8585" lon="1.25308">
        <ele>114.4422328</ele>
        <time>2022-08-16T13:38:03Z</time>
      </trkpt>
      <trkpt lat="44.85856" lon="1.253">
        <ele>115.3040586</ele>
        <time>2022-08-16T13:38:05Z</time>
      </trkpt>
      <trkpt lat="44.85861" lon="1.25293">
        <ele>115.6994654</ele>
        <time>2022-08-16T13:38:07Z</time>
      </trkpt>
      <trkpt lat="44.85865" lon="1.25286">
        <ele>116.0200396</ele>
        <time>2022-08-16T13:38:09Z</time>
      </trkpt>
      <trkpt lat="44.8587" lon="1.25279">
        <ele>115.9655984</ele>
        <time>2022-08-16T13:38:11Z</time>
      </trkpt>
      <trkpt lat="44.85876" lon="1.25274">
        <ele>115.4347841</ele>
        <time>2022-08-16T13:38:13Z</time>
      </trkpt>
      <trkpt lat="44.85881" lon="1.25269">
        <ele>115.1318378</ele>
        <time>2022-08-16T13:38:15Z</time>
      </trkpt>
      <trkpt lat="44.85885" lon="1.25266">
        <ele>115.3270757</ele>
        <time>2022-08-16T13:38:17Z</time>
      </trkpt>
      <trkpt lat="44.85893" lon="1.25259">
        <ele>116.6133434</ele>
        <time>2022-08-16T13:38:19Z</time>
      </trkpt>
      <trkpt lat="44.85898" lon="1.25251">
        <ele>116.6175294</ele>
        <time>2022-08-16T13:38:21Z</time>
      </trkpt>
      <trkpt lat="44.85903" lon="1.25244">
        <ele>116.6138227</ele>
        <time>2022-08-16T13:38:23Z</time>
      </trkpt>
      <trkpt lat="44.85909" lon="1.25237">
        <ele>117.0123627</ele>
        <time>2022-08-16T13:38:25Z</time>
      </trkpt>
      <trkpt lat="44.85914" lon="1.25231">
        <ele>117.2053865</ele>
        <time>2022-08-16T13:38:27Z</time>
      </trkpt>
      <trkpt lat="44.8592" lon="1.25226">
        <ele>117.3859391</ele>
        <time>2022-08-16T13:38:29Z</time>
      </trkpt>
      <trkpt lat="44.85927" lon="1.2522">
        <ele>117.3124248</ele>
        <time>2022-08-16T13:38:31Z</time>
      </trkpt>
      <trkpt lat="44.85934" lon="1.25213">
        <ele>117.4089888</ele>
        <time>2022-08-16T13:38:33Z</time>
      </trkpt>
      <trkpt lat="44.8594" lon="1.25206">
        <ele>117.129979</ele>
        <time>2022-08-16T13:38:35Z</time>
      </trkpt>
      <trkpt lat="44.85947" lon="1.25197">
        <ele>118.206145</ele>
        <time>2022-08-16T13:38:37Z</time>
      </trkpt>
      <trkpt lat="44.85953" lon="1.25194">
        <ele>118.1857036</ele>
        <time>2022-08-16T13:38:39Z</time>
      </trkpt>
      <trkpt lat="44.85959" lon="1.25189">
        <ele>118.10141</ele>
        <time>2022-08-16T13:38:41Z</time>
      </trkpt>
      <trkpt lat="44.85964" lon="1.2518">
        <ele>118.1435045</ele>
        <time>2022-08-16T13:38:43Z</time>
      </trkpt>
      <trkpt lat="44.85971" lon="1.25177">
        <ele>117.8894844</ele>
        <time>2022-08-16T13:38:45Z</time>
      </trkpt>
      <trkpt lat="44.85977" lon="1.2517">
        <ele>118.1748328</ele>
        <time>2022-08-16T13:38:47Z</time>
      </trkpt>
      <trkpt lat="44.85983" lon="1.25165">
        <ele>118.2362216</ele>
        <time>2022-08-16T13:38:49Z</time>
      </trkpt>
      <trkpt lat="44.85989" lon="1.25162">
        <ele>118.0101571</ele>
        <time>2022-08-16T13:38:51Z</time>
      </trkpt>
      <trkpt lat="44.85996" lon="1.25158">
        <ele>117.7902971</ele>
        <time>2022-08-16T13:38:53Z</time>
      </trkpt>
      <trkpt lat="44.86003" lon="1.25153">
        <ele>118.096656</ele>
        <time>2022-08-16T13:38:55Z</time>
      </trkpt>
      <trkpt lat="44.8601" lon="1.25149">
        <ele>117.764744</ele>
        <time>2022-08-16T13:38:57Z</time>
      </trkpt>
      <trkpt lat="44.86017" lon="1.25146">
        <ele>117.2571424</ele>
        <time>2022-08-16T13:38:59Z</time>
      </trkpt>
      <trkpt lat="44.86025" lon="1.25141">
        <ele>117.8589115</ele>
        <time>2022-08-16T13:39:01Z</time>
      </trkpt>
      <trkpt lat="44.86033" lon="1.25137">
        <ele>118.1176872</ele>
        <time>2022-08-16T13:39:03Z</time>
      </trkpt>
      <trkpt lat="44.8604" lon="1.25132">
        <ele>118.2827257</ele>
        <time>2022-08-16T13:39:05Z</time>
      </trkpt>
      <trkpt lat="44.86049" lon="1.25128">
        <ele>118.7011922</ele>
        <time>2022-08-16T13:39:07Z</time>
      </trkpt>
      <trkpt lat="44.86056" lon="1.25123">
        <ele>119.1838348</ele>
        <time>2022-08-16T13:39:09Z</time>
      </trkpt>
      <trkpt lat="44.86064" lon="1.25118">
        <ele>119.1522539</ele>
        <time>2022-08-16T13:39:11Z</time>
      </trkpt>
      <trkpt lat="44.86071" lon="1.25114">
        <ele>119.8546508</ele>
        <time>2022-08-16T13:39:13Z</time>
      </trkpt>
      <trkpt lat="44.86078" lon="1.2511">
        <ele>120.3813979</ele>
        <time>2022-08-16T13:39:15Z</time>
      </trkpt>
      <trkpt lat="44.86084" lon="1.25107">
        <ele>120.8220302</ele>
        <time>2022-08-16T13:39:17Z</time>
      </trkpt>
      <trkpt lat="44.8609" lon="1.25105">
        <ele>120.2150123</ele>
        <time>2022-08-16T13:39:19Z</time>
      </trkpt>
      <trkpt lat="44.86096" lon="1.25102">
        <ele>119.8027289</ele>
        <time>2022-08-16T13:39:21Z</time>
      </trkpt>
      <trkpt lat="44.86103" lon="1.251">
        <ele>120.4327591</ele>
        <time>2022-08-16T13:39:23Z</time>
      </trkpt>
      <trkpt lat="44.86109" lon="1.25098">
        <ele>120.5057786</ele>
        <time>2022-08-16T13:39:25Z</time>
      </trkpt>
      <trkpt lat="44.86114" lon="1.25095">
        <ele>120.7240678</ele>
        <time>2022-08-16T13:39:27Z</time>
      </trkpt>
      <trkpt lat="44.86121" lon="1.25093">
        <ele>121.1463674</ele>
        <time>2022-08-16T13:39:29Z</time>
      </trkpt>
      <trkpt lat="44.86126" lon="1.2509">
        <ele>121.4218045</ele>
        <time>2022-08-16T13:39:31Z</time>
      </trkpt>
      <trkpt lat="44.86132" lon="1.25087">
        <ele>121.8311861</ele>
        <time>2022-08-16T13:39:33Z</time>
      </trkpt>
      <trkpt lat="44.86137" lon="1.25085">
        <ele>122.599653</ele>
        <time>2022-08-16T13:39:35Z</time>
      </trkpt>
      <trkpt lat="44.86142" lon="1.25081">
        <ele>122.6389286</ele>
        <time>2022-08-16T13:39:37Z</time>
      </trkpt>
      <trkpt lat="44.86148" lon="1.25078">
        <ele>123.3365465</ele>
        <time>2022-08-16T13:39:39Z</time>
      </trkpt>
      <trkpt lat="44.86152" lon="1.25074">
        <ele>123.3831357</ele>
        <time>2022-08-16T13:39:41Z</time>
      </trkpt>
      <trkpt lat="44.86158" lon="1.2507">
        <ele>123.1429213</ele>
        <time>2022-08-16T13:39:43Z</time>
      </trkpt>
      <trkpt lat="44.86165" lon="1.25067">
        <ele>123.4379028</ele>
        <time>2022-08-16T13:39:45Z</time>
      </trkpt>
      <trkpt lat="44.86171" lon="1.25065">
        <ele>123.2936564</ele>
        <time>2022-08-16T13:39:47Z</time>
      </trkpt>
      <trkpt lat="44.86178" lon="1.25061">
        <ele>123.3497341</ele>
        <time>2022-08-16T13:39:49Z</time>
      </trkpt>
      <trkpt lat="44.86184" lon="1.25058">
        <ele>123.3933043</ele>
        <time>2022-08-16T13:39:51Z</time>
      </trkpt>
      <trkpt lat="44.8619" lon="1.25056">
        <ele>123.4001476</ele>
        <time>2022-08-16T13:39:53Z</time>
      </trkpt>
      <trkpt lat="44.86197" lon="1.25052">
        <ele>123.720029</ele>
        <time>2022-08-16T13:39:55Z</time>
      </trkpt>
      <trkpt lat="44.86204" lon="1.25048">
        <ele>122.1894754</ele>
        <time>2022-08-16T13:39:57Z</time>
      </trkpt>
      <trkpt lat="44.8621" lon="1.25044">
        <ele>122.0915056</ele>
        <time>2022-08-16T13:39:59Z</time>
      </trkpt>
      <trkpt lat="44.86216" lon="1.25041">
        <ele>122.1173951</ele>
        <time>2022-08-16T13:40:01Z</time>
      </trkpt>
      <trkpt lat="44.86224" lon="1.25036">
        <ele>120.93241</ele>
        <time>2022-08-16T13:40:03Z</time>
      </trkpt>
      <trkpt lat="44.86233" lon="1.25032">
        <ele>121.0187637</ele>
        <time>2022-08-16T13:40:05Z</time>
      </trkpt>
      <trkpt lat="44.86239" lon="1.25029">
        <ele>121.375259</ele>
        <time>2022-08-16T13:40:07Z</time>
      </trkpt>
      <trkpt lat="44.86245" lon="1.25027">
        <ele>121.3866845</ele>
        <time>2022-08-16T13:40:09Z</time>
      </trkpt>
      <trkpt lat="44.86251" lon="1.25024">
        <ele>121.7944312</ele>
        <time>2022-08-16T13:40:11Z</time>
      </trkpt>
      <trkpt lat="44.86258" lon="1.25021">
        <ele>121.7879953</ele>
        <time>2022-08-16T13:40:13Z</time>
      </trkpt>
      <trkpt lat="44.86264" lon="1.25017">
        <ele>121.8443331</ele>
        <time>2022-08-16T13:40:15Z</time>
      </trkpt>
      <trkpt lat="44.8627" lon="1.25015">
        <ele>121.9545372</ele>
        <time>2022-08-16T13:40:17Z</time>
      </trkpt>
      <trkpt lat="44.86276" lon="1.25011">
        <ele>122.1073425</ele>
        <time>2022-08-16T13:40:19Z</time>
      </trkpt>
      <trkpt lat="44.86282" lon="1.25008">
        <ele>122.5599634</ele>
        <time>2022-08-16T13:40:21Z</time>
      </trkpt>
      <trkpt lat="44.86289" lon="1.25006">
        <ele>122.4759058</ele>
        <time>2022-08-16T13:40:23Z</time>
      </trkpt>
      <trkpt lat="44.86296" lon="1.25002">
        <ele>122.769832</ele>
        <time>2022-08-16T13:40:25Z</time>
      </trkpt>
      <trkpt lat="44.86303" lon="1.24999">
        <ele>123.4360377</ele>
        <time>2022-08-16T13:40:27Z</time>
      </trkpt>
      <trkpt lat="44.8631" lon="1.24996">
        <ele>123.8965937</ele>
        <time>2022-08-16T13:40:29Z</time>
      </trkpt>
      <trkpt lat="44.86316" lon="1.24993">
        <ele>122.8522337</ele>
        <time>2022-08-16T13:40:31Z</time>
      </trkpt>
      <trkpt lat="44.86322" lon="1.2499">
        <ele>123.7616332</ele>
        <time>2022-08-16T13:40:33Z</time>
      </trkpt>
      <trkpt lat="44.86328" lon="1.24987">
        <ele>123.6662487</ele>
        <time>2022-08-16T13:40:35Z</time>
      </trkpt>
      <trkpt lat="44.86335" lon="1.24984">
        <ele>124.3801225</ele>
        <time>2022-08-16T13:40:37Z</time>
      </trkpt>
      <trkpt lat="44.86341" lon="1.24981">
        <ele>124.7561015</ele>
        <time>2022-08-16T13:40:39Z</time>
      </trkpt>
      <trkpt lat="44.86347" lon="1.24978">
        <ele>125.3295238</ele>
        <time>2022-08-16T13:40:41Z</time>
      </trkpt>
      <trkpt lat="44.86354" lon="1.24974">
        <ele>124.9438128</ele>
        <time>2022-08-16T13:40:43Z</time>
      </trkpt>
      <trkpt lat="44.86359" lon="1.24972">
        <ele>124.792426</ele>
        <time>2022-08-16T13:40:45Z</time>
      </trkpt>
      <trkpt lat="44.86365" lon="1.24969">
        <ele>124.8902863</ele>
        <time>2022-08-16T13:40:47Z</time>
      </trkpt>
      <trkpt lat="44.86371" lon="1.24966">
        <ele>125.0267834</ele>
        <time>2022-08-16T13:40:49Z</time>
      </trkpt>
      <trkpt lat="44.86378" lon="1.24962">
        <ele>126.0437762</ele>
        <time>2022-08-16T13:40:51Z</time>
      </trkpt>
      <trkpt lat="44.86384" lon="1.24959">
        <ele>125.7969051</ele>
        <time>2022-08-16T13:40:53Z</time>
      </trkpt>
      <trkpt lat="44.86391" lon="1.24955">
        <ele>125.1651896</ele>
        <time>2022-08-16T13:40:55Z</time>
      </trkpt>
      <trkpt lat="44.86397" lon="1.24952">
        <ele>124.7536965</ele>
        <time>2022-08-16T13:40:57Z</time>
      </trkpt>
      <trkpt lat="44.86404" lon="1.24947">
        <ele>125.0497423</ele>
        <time>2022-08-16T13:40:59Z</time>
      </trkpt>
      <trkpt lat="44.86411" lon="1.24943">
        <ele>125.5453745</ele>
        <time>2022-08-16T13:41:01Z</time>
      </trkpt>
      <trkpt lat="44.86418" lon="1.24938">
        <ele>126.3975831</ele>
        <time>2022-08-16T13:41:03Z</time>
      </trkpt>
      <trkpt lat="44.86425" lon="1.24935">
        <ele>126.9589144</ele>
        <time>2022-08-16T13:41:05Z</time>
      </trkpt>
      <trkpt lat="44.86431" lon="1.24931">
        <ele>127.6498177</ele>
        <time>2022-08-16T13:41:07Z</time>
      </trkpt>
      <trkpt lat="44.86437" lon="1.24928">
        <ele>127.5389877</ele>
        <time>2022-08-16T13:41:09Z</time>
      </trkpt>
      <trkpt lat="44.86442" lon="1.24925">
        <ele>127.4605668</ele>
        <time>2022-08-16T13:41:11Z</time>
      </trkpt>
      <trkpt lat="44.86447" lon="1.24922">
        <ele>127.7203462</ele>
        <time>2022-08-16T13:41:13Z</time>
      </trkpt>
      <trkpt lat="44.8645" lon="1.24918">
        <ele>127.2855369</ele>
        <time>2022-08-16T13:41:15Z</time>
      </trkpt>
      <trkpt lat="44.86454" lon="1.24915">
        <ele>127.1929315</ele>
        <time>2022-08-16T13:41:17Z</time>
      </trkpt>
      <trkpt lat="44.86459" lon="1.24913">
        <ele>127.3273857</ele>
        <time>2022-08-16T13:41:19Z</time>
      </trkpt>
      <trkpt lat="44.86463" lon="1.24911">
        <ele>127.1223032</ele>
        <time>2022-08-16T13:41:21Z</time>
      </trkpt>
      <trkpt lat="44.86468" lon="1.24907">
        <ele>126.4768083</ele>
        <time>2022-08-16T13:41:23Z</time>
      </trkpt>
      <trkpt lat="44.86474" lon="1.24904">
        <ele>125.6825063</ele>
        <time>2022-08-16T13:41:25Z</time>
      </trkpt>
      <trkpt lat="44.86479" lon="1.24899">
        <ele>126.0842225</ele>
        <time>2022-08-16T13:41:27Z</time>
      </trkpt>
      <trkpt lat="44.86484" lon="1.24897">
        <ele>125.7595822</ele>
        <time>2022-08-16T13:41:29Z</time>
      </trkpt>
      <trkpt lat="44.8649" lon="1.24892">
        <ele>125.9045542</ele>
        <time>2022-08-16T13:41:31Z</time>
      </trkpt>
      <trkpt lat="44.86495" lon="1.24887">
        <ele>125.7300967</ele>
        <time>2022-08-16T13:41:33Z</time>
      </trkpt>
      <trkpt lat="44.86501" lon="1.24881">
        <ele>126.4832148</ele>
        <time>2022-08-16T13:41:35Z</time>
      </trkpt>
      <trkpt lat="44.86507" lon="1.24875">
        <ele>127.5319725</ele>
        <time>2022-08-16T13:41:37Z</time>
      </trkpt>
      <trkpt lat="44.86513" lon="1.2487">
        <ele>127.6286422</ele>
        <time>2022-08-16T13:41:39Z</time>
      </trkpt>
      <trkpt lat="44.8652" lon="1.24865">
        <ele>128.016425</ele>
        <time>2022-08-16T13:41:41Z</time>
      </trkpt>
      <trkpt lat="44.86526" lon="1.2486">
        <ele>128.1882823</ele>
        <time>2022-08-16T13:41:43Z</time>
      </trkpt>
      <trkpt lat="44.86532" lon="1.24854">
        <ele>128.380365</ele>
        <time>2022-08-16T13:41:45Z</time>
      </trkpt>
      <trkpt lat="44.86537" lon="1.24849">
        <ele>128.7369178</ele>
        <time>2022-08-16T13:41:47Z</time>
      </trkpt>
      <trkpt lat="44.86543" lon="1.24844">
        <ele>128.9691789</ele>
        <time>2022-08-16T13:41:49Z</time>
      </trkpt>
      <trkpt lat="44.86549" lon="1.24836">
        <ele>129.1563533</ele>
        <time>2022-08-16T13:41:51Z</time>
      </trkpt>
      <trkpt lat="44.86555" lon="1.2483">
        <ele>129.2850898</ele>
        <time>2022-08-16T13:41:53Z</time>
      </trkpt>
      <trkpt lat="44.8656" lon="1.24823">
        <ele>129.6784814</ele>
        <time>2022-08-16T13:41:55Z</time>
      </trkpt>
      <trkpt lat="44.86565" lon="1.24818">
        <ele>129.8568481</ele>
        <time>2022-08-16T13:41:57Z</time>
      </trkpt>
      <trkpt lat="44.8657" lon="1.24812">
        <ele>129.4345724</ele>
        <time>2022-08-16T13:41:59Z</time>
      </trkpt>
      <trkpt lat="44.86576" lon="1.24806">
        <ele>129.7111828</ele>
        <time>2022-08-16T13:42:01Z</time>
      </trkpt>
      <trkpt lat="44.86581" lon="1.24802">
        <ele>129.0927599</ele>
        <time>2022-08-16T13:42:03Z</time>
      </trkpt>
      <trkpt lat="44.86586" lon="1.24797">
        <ele>128.6534974</ele>
        <time>2022-08-16T13:42:05Z</time>
      </trkpt>
      <trkpt lat="44.86591" lon="1.2479">
        <ele>128.1198402</ele>
        <time>2022-08-16T13:42:07Z</time>
      </trkpt>
      <trkpt lat="44.86596" lon="1.24785">
        <ele>127.9851588</ele>
        <time>2022-08-16T13:42:09Z</time>
      </trkpt>
      <trkpt lat="44.866" lon="1.24779">
        <ele>127.5994516</ele>
        <time>2022-08-16T13:42:11Z</time>
      </trkpt>
      <trkpt lat="44.86605" lon="1.24772">
        <ele>127.4575999</ele>
        <time>2022-08-16T13:42:13Z</time>
      </trkpt>
      <trkpt lat="44.86609" lon="1.24766">
        <ele>126.8693011</ele>
        <time>2022-08-16T13:42:15Z</time>
      </trkpt>
      <trkpt lat="44.86614" lon="1.2476">
        <ele>127.2670265</ele>
        <time>2022-08-16T13:42:17Z</time>
      </trkpt>
      <trkpt lat="44.86618" lon="1.24753">
        <ele>127.1381021</ele>
        <time>2022-08-16T13:42:19Z</time>
      </trkpt>
      <trkpt lat="44.86623" lon="1.24746">
        <ele>127.3972364</ele>
        <time>2022-08-16T13:42:21Z</time>
      </trkpt>
      <trkpt lat="44.86628" lon="1.2474">
        <ele>127.4281185</ele>
        <time>2022-08-16T13:42:23Z</time>
      </trkpt>
      <trkpt lat="44.86633" lon="1.24734">
        <ele>127.3945703</ele>
        <time>2022-08-16T13:42:25Z</time>
      </trkpt>
      <trkpt lat="44.86639" lon="1.24728">
        <ele>126.9102265</ele>
        <time>2022-08-16T13:42:27Z</time>
      </trkpt>
      <trkpt lat="44.86643" lon="1.24722">
        <ele>126.913566</ele>
        <time>2022-08-16T13:42:29Z</time>
      </trkpt>
      <trkpt lat="44.86647" lon="1.24716">
        <ele>126.9262806</ele>
        <time>2022-08-16T13:42:31Z</time>
      </trkpt>
      <trkpt lat="44.8665" lon="1.2471">
        <ele>127.0428029</ele>
        <time>2022-08-16T13:42:33Z</time>
      </trkpt>
      <trkpt lat="44.86654" lon="1.24704">
        <ele>127.3272436</ele>
        <time>2022-08-16T13:42:35Z</time>
      </trkpt>
      <trkpt lat="44.86658" lon="1.24698">
        <ele>127.8094165</ele>
        <time>2022-08-16T13:42:37Z</time>
      </trkpt>
      <trkpt lat="44.86662" lon="1.24693">
        <ele>128.6199586</ele>
        <time>2022-08-16T13:42:39Z</time>
      </trkpt>
      <trkpt lat="44.86665" lon="1.24688">
        <ele>129.2234848</ele>
        <time>2022-08-16T13:42:41Z</time>
      </trkpt>
      <trkpt lat="44.86668" lon="1.24684">
        <ele>129.2570101</ele>
        <time>2022-08-16T13:42:43Z</time>
      </trkpt>
      <trkpt lat="44.8667" lon="1.24683">
        <ele>129.1391814</ele>
        <time>2022-08-16T13:42:45Z</time>
      </trkpt>
      <trkpt lat="44.86671" lon="1.24677">
        <ele>129.4227047</ele>
        <time>2022-08-16T13:42:47Z</time>
      </trkpt>
      <trkpt lat="44.86672" lon="1.24676">
        <ele>129.4853425</ele>
        <time>2022-08-16T13:42:49Z</time>
      </trkpt>
      <trkpt lat="44.86671" lon="1.24678">
        <ele>129.7954164</ele>
        <time>2022-08-16T13:42:51Z</time>
      </trkpt>
      <trkpt lat="44.86671" lon="1.24677">
        <ele>129.1429592</ele>
        <time>2022-08-16T13:42:53Z</time>
      </trkpt>
      <trkpt lat="44.86671" lon="1.24676">
        <ele>129.5246853</ele>
        <time>2022-08-16T13:42:55Z</time>
      </trkpt>
      <trkpt lat="44.86671" lon="1.24675">
        <ele>130.4867576</ele>
        <time>2022-08-16T13:42:57Z</time>
      </trkpt>
      <trkpt lat="44.8667" lon="1.24674">
        <ele>130.6252907</ele>
        <time>2022-08-16T13:42:59Z</time>
      </trkpt>
      <trkpt lat="44.86671" lon="1.24673">
        <ele>129.5996779</ele>
        <time>2022-08-16T13:43:01Z</time>
      </trkpt>
      <trkpt lat="44.86672" lon="1.24672">
        <ele>129.0646331</ele>
        <time>2022-08-16T13:43:03Z</time>
      </trkpt>
      <trkpt lat="44.86672" lon="1.24673">
        <ele>128.267589</ele>
        <time>2022-08-16T13:43:05Z</time>
      </trkpt>
      <trkpt lat="44.86672" lon="1.24674">
        <ele>127.6485125</ele>
        <time>2022-08-16T13:43:07Z</time>
      </trkpt>
      <trkpt lat="44.86672" lon="1.24675">
        <ele>127.0633665</ele>
        <time>2022-08-16T13:43:09Z</time>
      </trkpt>
      <trkpt lat="44.86672" lon="1.24675">
        <ele>127.1906988</ele>
        <time>2022-08-16T13:43:11Z</time>
      </trkpt>
      <trkpt lat="44.86672" lon="1.24675">
        <ele>127.4187585</ele>
        <time>2022-08-16T13:43:13Z</time>
      </trkpt>
      <trkpt lat="44.86673" lon="1.24675">
        <ele>127.5284674</ele>
        <time>2022-08-16T13:43:15Z</time>
      </trkpt>
      <trkpt lat="44.86674" lon="1.24674">
        <ele>128.3232819</ele>
        <time>2022-08-16T13:43:17Z</time>
      </trkpt>
      <trkpt lat="44.86674" lon="1.24674">
        <ele>128.0585235</ele>
        <time>2022-08-16T13:43:19Z</time>
      </trkpt>
      <trkpt lat="44.86674" lon="1.24674">
        <ele>127.507823</ele>
        <time>2022-08-16T13:43:21Z</time>
      </trkpt>
      <trkpt lat="44.86673" lon="1.24674">
        <ele>126.5151554</ele>
        <time>2022-08-16T13:43:23Z</time>
      </trkpt>
      <trkpt lat="44.86673" lon="1.24674">
        <ele>125.2467323</ele>
        <time>2022-08-16T13:43:25Z</time>
      </trkpt>
      <trkpt lat="44.86673" lon="1.24674">
        <ele>125.1772768</ele>
        <time>2022-08-16T13:43:27Z</time>
      </trkpt>
      <trkpt lat="44.86674" lon="1.24675">
        <ele>124.6431307</ele>
        <time>2022-08-16T13:43:29Z</time>
      </trkpt>
      <trkpt lat="44.86674" lon="1.24675">
        <ele>124.1150886</ele>
        <time>2022-08-16T13:43:31Z</time>
      </trkpt>
      <trkpt lat="44.86673" lon="1.24674">
        <ele>123.3292402</ele>
        <time>2022-08-16T13:43:33Z</time>
      </trkpt>
      <trkpt lat="44.86673" lon="1.24675">
        <ele>123.299437</ele>
        <time>2022-08-16T13:43:35Z</time>
      </trkpt>
      <trkpt lat="44.86673" lon="1.24675">
        <ele>123.503803</ele>
        <time>2022-08-16T13:43:37Z</time>
      </trkpt>
      <trkpt lat="44.86674" lon="1.24676">
        <ele>123.6506933</ele>
        <time>2022-08-16T13:43:39Z</time>
      </trkpt>
      <trkpt lat="44.86674" lon="1.24677">
        <ele>125.0482546</ele>
        <time>2022-08-16T13:43:41Z</time>
      </trkpt>
      <trkpt lat="44.86675" lon="1.24677">
        <ele>126.3116255</ele>
        <time>2022-08-16T13:43:45Z</time>
      </trkpt>
      <trkpt lat="44.86675" lon="1.24677">
        <ele>126.3158564</ele>
        <time>2022-08-16T13:43:47Z</time>
      </trkpt>
      <trkpt lat="44.86675" lon="1.24677">
        <ele>125.9032235</ele>
        <time>2022-08-16T13:43:49Z</time>
      </trkpt>
      <trkpt lat="44.86675" lon="1.24677">
        <ele>124.7906417</ele>
        <time>2022-08-16T13:43:51Z</time>
      </trkpt>
      <trkpt lat="44.86675" lon="1.24677">
        <ele>124.104554</ele>
        <time>2022-08-16T13:43:53Z</time>
      </trkpt>
      <trkpt lat="44.86675" lon="1.24677">
        <ele>123.8674513</ele>
        <time>2022-08-16T13:43:55Z</time>
      </trkpt>
      <trkpt lat="44.86675" lon="1.24677">
        <ele>123.8674513</ele>
        <time>2022-08-16T13:43:59Z</time>
      </trkpt>
      <trkpt lat="44.86675" lon="1.24678">
        <ele>122.780616</ele>
        <time>2022-08-16T13:44:03Z</time>
      </trkpt>
      <trkpt lat="44.86675" lon="1.24678">
        <ele>122.3693183</ele>
        <time>2022-08-16T13:44:05Z</time>
      </trkpt>
      <trkpt lat="44.86675" lon="1.24678">
        <ele>122.3693183</ele>
        <time>2022-08-16T13:44:09Z</time>
      </trkpt>
      <trkpt lat="44.86675" lon="1.24678">
        <ele>122.3693183</ele>
        <time>2022-08-16T13:44:13Z</time>
      </trkpt>
      <trkpt lat="44.86675" lon="1.24678">
        <ele>122.3693183</ele>
        <time>2022-08-16T13:44:17Z</time>
      </trkpt>
      <trkpt lat="44.86675" lon="1.24678">
        <ele>122.3693183</ele>
        <time>2022-08-16T13:44:21Z</time>
      </trkpt>
      <trkpt lat="44.86675" lon="1.24678">
        <ele>122.3693183</ele>
        <time>2022-08-16T13:44:25Z</time>
      </trkpt>
      <trkpt lat="44.86675" lon="1.24678">
        <ele>122.3693183</ele>
        <time>2022-08-16T13:44:29Z</time>
      </trkpt>
      <trkpt lat="44.86675" lon="1.24678">
        <ele>122.3693183</ele>
        <time>2022-08-16T13:44:33Z</time>
      </trkpt>
      <trkpt lat="44.86675" lon="1.24678">
        <ele>122.3693183</ele>
        <time>2022-08-16T13:44:37Z</time>
      </trkpt>
      <trkpt lat="44.86675" lon="1.24678">
        <ele>122.3693183</ele>
        <time>2022-08-16T13:44:41Z</time>
      </trkpt>
      <trkpt lat="44.86675" lon="1.24678">
        <ele>122.3693183</ele>
        <time>2022-08-16T13:44:45Z</time>
      </trkpt>
      <trkpt lat="44.86675" lon="1.24678">
        <ele>122.3693183</ele>
        <time>2022-08-16T13:44:49Z</time>
      </trkpt>
      <trkpt lat="44.86675" lon="1.24678">
        <ele>122.3693183</ele>
        <time>2022-08-16T13:44:53Z</time>
      </trkpt>
      <trkpt lat="44.86675" lon="1.24678">
        <ele>122.3693183</ele>
        <time>2022-08-16T13:44:57Z</time>
      </trkpt>
      <trkpt lat="44.86675" lon="1.24678">
        <ele>122.3693183</ele>
        <time>2022-08-16T13:45:01Z</time>
      </trkpt>
      <trkpt lat="44.86675" lon="1.24678">
        <ele>122.3693183</ele>
        <time>2022-08-16T13:45:05Z</time>
      </trkpt>
      <trkpt lat="44.86675" lon="1.24678">
        <ele>122.3693183</ele>
        <time>2022-08-16T13:45:09Z</time>
      </trkpt>
      <trkpt lat="44.86675" lon="1.24678">
        <ele>122.3693183</ele>
        <time>2022-08-16T13:45:13Z</time>
      </trkpt>
      <trkpt lat="44.86675" lon="1.24678">
        <ele>122.3693183</ele>
        <time>2022-08-16T13:45:17Z</time>
      </trkpt>
      <trkpt lat="44.86675" lon="1.24678">
        <ele>122.3693183</ele>
        <time>2022-08-16T13:45:21Z</time>
      </trkpt>
      <trkpt lat="44.86675" lon="1.24678">
        <ele>122.3693183</ele>
        <time>2022-08-16T13:45:25Z</time>
      </trkpt>
      <trkpt lat="44.86675" lon="1.24678">
        <ele>122.3693183</ele>
        <time>2022-08-16T13:45:29Z</time>
      </trkpt>
      <trkpt lat="44.86675" lon="1.24678">
        <ele>122.3693183</ele>
        <time>2022-08-16T13:45:33Z</time>
      </trkpt>
      <trkpt lat="44.86675" lon="1.24678">
        <ele>122.3693183</ele>
        <time>2022-08-16T13:45:37Z</time>
      </trkpt>
      <trkpt lat="44.86675" lon="1.24678">
        <ele>122.3693183</ele>
        <time>2022-08-16T13:45:41Z</time>
      </trkpt>
      <trkpt lat="44.86675" lon="1.24678">
        <ele>122.3693183</ele>
        <time>2022-08-16T13:45:45Z</time>
      </trkpt>
      <trkpt lat="44.86675" lon="1.24678">
        <ele>122.3693183</ele>
        <time>2022-08-16T13:45:49Z</time>
      </trkpt>
      <trkpt lat="44.86675" lon="1.24678">
        <ele>122.3693183</ele>
        <time>2022-08-16T13:45:53Z</time>
      </trkpt>
      <trkpt lat="44.86675" lon="1.24678">
        <ele>122.3693183</ele>
        <time>2022-08-16T13:45:57Z</time>
      </trkpt>
      <trkpt lat="44.86675" lon="1.24678">
        <ele>122.3693183</ele>
        <time>2022-08-16T13:46:01Z</time>
      </trkpt>
      <trkpt lat="44.86675" lon="1.24678">
        <ele>122.3693183</ele>
        <time>2022-08-16T13:46:05Z</time>
      </trkpt>
      <trkpt lat="44.86675" lon="1.24678">
        <ele>122.3693183</ele>
        <time>2022-08-16T13:46:09Z</time>
      </trkpt>
      <trkpt lat="44.86675" lon="1.24678">
        <ele>122.3693183</ele>
        <time>2022-08-16T13:46:13Z</time>
      </trkpt>
      <trkpt lat="44.86675" lon="1.24678">
        <ele>122.3693183</ele>
        <time>2022-08-16T13:46:17Z</time>
      </trkpt>
      <trkpt lat="44.86675" lon="1.24678">
        <ele>122.3693183</ele>
        <time>2022-08-16T13:46:21Z</time>
      </trkpt>
      <trkpt lat="44.86675" lon="1.24678">
        <ele>122.3693183</ele>
        <time>2022-08-16T13:46:25Z</time>
      </trkpt>
      <trkpt lat="44.86675" lon="1.24678">
        <ele>122.3693183</ele>
        <time>2022-08-16T13:46:29Z</time>
      </trkpt>
      <trkpt lat="44.86675" lon="1.24678">
        <ele>122.3693183</ele>
        <time>2022-08-16T13:46:33Z</time>
      </trkpt>
      <trkpt lat="44.86675" lon="1.24678">
        <ele>122.3693183</ele>
        <time>2022-08-16T13:46:37Z</time>
      </trkpt>
      <trkpt lat="44.86675" lon="1.24678">
        <ele>122.3693183</ele>
        <time>2022-08-16T13:46:41Z</time>
      </trkpt>
      <trkpt lat="44.86675" lon="1.24678">
        <ele>122.3693183</ele>
        <time>2022-08-16T13:46:45Z</time>
      </trkpt>
      <trkpt lat="44.86675" lon="1.24678">
        <ele>122.3693183</ele>
        <time>2022-08-16T13:46:49Z</time>
      </trkpt>
      <trkpt lat="44.86675" lon="1.24678">
        <ele>122.3693183</ele>
        <time>2022-08-16T13:46:53Z</time>
      </trkpt>
      <trkpt lat="44.86675" lon="1.24678">
        <ele>122.3693183</ele>
        <time>2022-08-16T13:46:57Z</time>
      </trkpt>
      <trkpt lat="44.86675" lon="1.24678">
        <ele>122.3693183</ele>
        <time>2022-08-16T13:47:01Z</time>
      </trkpt>
      <trkpt lat="44.86675" lon="1.24678">
        <ele>122.3693183</ele>
        <time>2022-08-16T13:47:05Z</time>
      </trkpt>
      <trkpt lat="44.86675" lon="1.24678">
        <ele>122.3693183</ele>
        <time>2022-08-16T13:47:09Z</time>
      </trkpt>
      <trkpt lat="44.86675" lon="1.24678">
        <ele>122.3693183</ele>
        <time>2022-08-16T13:47:13Z</time>
      </trkpt>
      <trkpt lat="44.86675" lon="1.24678">
        <ele>122.3693183</ele>
        <time>2022-08-16T13:47:17Z</time>
      </trkpt>
      <trkpt lat="44.86675" lon="1.24678">
        <ele>122.3693183</ele>
        <time>2022-08-16T13:47:21Z</time>
      </trkpt>
      <trkpt lat="44.86675" lon="1.24678">
        <ele>122.3693183</ele>
        <time>2022-08-16T13:47:25Z</time>
      </trkpt>
      <trkpt lat="44.86675" lon="1.24678">
        <ele>122.3693183</ele>
        <time>2022-08-16T13:47:29Z</time>
      </trkpt>
      <trkpt lat="44.86675" lon="1.24678">
        <ele>122.3693183</ele>
        <time>2022-08-16T13:47:33Z</time>
      </trkpt>
      <trkpt lat="44.86675" lon="1.24678">
        <ele>122.3693183</ele>
        <time>2022-08-16T13:47:37Z</time>
      </trkpt>
      <trkpt lat="44.86675" lon="1.24678">
        <ele>122.3693183</ele>
        <time>2022-08-16T13:47:41Z</time>
      </trkpt>
      <trkpt lat="44.86675" lon="1.24678">
        <ele>122.3693183</ele>
        <time>2022-08-16T13:47:45Z</time>
      </trkpt>
      <trkpt lat="44.86675" lon="1.24678">
        <ele>122.3693183</ele>
        <time>2022-08-16T13:47:49Z</time>
      </trkpt>
      <trkpt lat="44.86675" lon="1.24678">
        <ele>122.3693183</ele>
        <time>2022-08-16T13:47:53Z</time>
      </trkpt>
      <trkpt lat="44.86675" lon="1.24678">
        <ele>122.3693183</ele>
        <time>2022-08-16T13:47:57Z</time>
      </trkpt>
      <trkpt lat="44.86675" lon="1.24678">
        <ele>122.3693183</ele>
        <time>2022-08-16T13:48:01Z</time>
      </trkpt>
      <trkpt lat="44.86675" lon="1.24678">
        <ele>122.3693183</ele>
        <time>2022-08-16T13:48:05Z</time>
      </trkpt>
      <trkpt lat="44.86675" lon="1.24678">
        <ele>122.3693183</ele>
        <time>2022-08-16T13:48:09Z</time>
      </trkpt>
      <trkpt lat="44.86675" lon="1.24678">
        <ele>122.3693183</ele>
        <time>2022-08-16T13:48:13Z</time>
      </trkpt>
      <trkpt lat="44.86675" lon="1.24678">
        <ele>122.3693183</ele>
        <time>2022-08-16T13:48:17Z</time>
      </trkpt>
      <trkpt lat="44.86675" lon="1.24678">
        <ele>122.3693183</ele>
        <time>2022-08-16T13:48:21Z</time>
      </trkpt>
      <trkpt lat="44.86675" lon="1.24678">
        <ele>122.3693183</ele>
        <time>2022-08-16T13:48:25Z</time>
      </trkpt>
      <trkpt lat="44.86675" lon="1.24678">
        <ele>122.3693183</ele>
        <time>2022-08-16T13:48:29Z</time>
      </trkpt>
      <trkpt lat="44.86675" lon="1.24678">
        <ele>122.3693183</ele>
        <time>2022-08-16T13:48:33Z</time>
      </trkpt>
      <trkpt lat="44.86675" lon="1.24678">
        <ele>122.3693183</ele>
        <time>2022-08-16T13:48:37Z</time>
      </trkpt>
      <trkpt lat="44.86675" lon="1.24678">
        <ele>122.3693183</ele>
        <time>2022-08-16T13:48:41Z</time>
      </trkpt>
      <trkpt lat="44.86675" lon="1.24678">
        <ele>122.3693183</ele>
        <time>2022-08-16T13:48:45Z</time>
      </trkpt>
      <trkpt lat="44.86675" lon="1.24678">
        <ele>122.3693183</ele>
        <time>2022-08-16T13:48:49Z</time>
      </trkpt>
      <trkpt lat="44.86675" lon="1.24678">
        <ele>122.3693183</ele>
        <time>2022-08-16T13:48:53Z</time>
      </trkpt>
      <trkpt lat="44.86675" lon="1.24678">
        <ele>122.3693183</ele>
        <time>2022-08-16T13:48:57Z</time>
      </trkpt>
      <trkpt lat="44.86675" lon="1.24678">
        <ele>122.3693183</ele>
        <time>2022-08-16T13:49:01Z</time>
      </trkpt>
      <trkpt lat="44.86675" lon="1.24678">
        <ele>122.3693183</ele>
        <time>2022-08-16T13:49:05Z</time>
      </trkpt>
      <trkpt lat="44.86675" lon="1.24678">
        <ele>122.3693183</ele>
        <time>2022-08-16T13:49:09Z</time>
      </trkpt>
      <trkpt lat="44.86675" lon="1.24678">
        <ele>122.3693183</ele>
        <time>2022-08-16T13:49:13Z</time>
      </trkpt>
      <trkpt lat="44.86675" lon="1.24678">
        <ele>122.3693183</ele>
        <time>2022-08-16T13:49:17Z</time>
      </trkpt>
      <trkpt lat="44.86675" lon="1.24678">
        <ele>122.3693183</ele>
        <time>2022-08-16T13:49:21Z</time>
      </trkpt>
      <trkpt lat="44.86675" lon="1.24678">
        <ele>122.3693183</ele>
        <time>2022-08-16T13:49:25Z</time>
      </trkpt>
      <trkpt lat="44.86675" lon="1.24678">
        <ele>122.3693183</ele>
        <time>2022-08-16T13:49:29Z</time>
      </trkpt>
      <trkpt lat="44.86675" lon="1.24678">
        <ele>122.3693183</ele>
        <time>2022-08-16T13:49:33Z</time>
      </trkpt>
      <trkpt lat="44.86675" lon="1.24678">
        <ele>122.3693183</ele>
        <time>2022-08-16T13:49:37Z</time>
      </trkpt>
      <trkpt lat="44.86675" lon="1.24678">
        <ele>122.3693183</ele>
        <time>2022-08-16T13:49:41Z</time>
      </trkpt>
      <trkpt lat="44.86675" lon="1.24678">
        <ele>122.3693183</ele>
        <time>2022-08-16T13:49:45Z</time>
      </trkpt>
      <trkpt lat="44.86675" lon="1.24678">
        <ele>122.3693183</ele>
        <time>2022-08-16T13:49:49Z</time>
      </trkpt>
      <trkpt lat="44.86675" lon="1.24678">
        <ele>122.3693183</ele>
        <time>2022-08-16T13:49:53Z</time>
      </trkpt>
      <trkpt lat="44.86675" lon="1.24678">
        <ele>122.3693183</ele>
        <time>2022-08-16T13:49:57Z</time>
      </trkpt>
      <trkpt lat="44.86675" lon="1.24678">
        <ele>122.3693183</ele>
        <time>2022-08-16T13:50:01Z</time>
      </trkpt>
      <trkpt lat="44.86675" lon="1.24678">
        <ele>122.3693183</ele>
        <time>2022-08-16T13:50:05Z</time>
      </trkpt>
      <trkpt lat="44.86675" lon="1.24678">
        <ele>122.3693183</ele>
        <time>2022-08-16T13:50:09Z</time>
      </trkpt>
      <trkpt lat="44.86675" lon="1.24678">
        <ele>122.3693183</ele>
        <time>2022-08-16T13:50:13Z</time>
      </trkpt>
      <trkpt lat="44.86671" lon="1.24683">
        <ele>131.0787159</ele>
        <time>2022-08-16T13:50:17Z</time>
      </trkpt>
      <trkpt lat="44.86671" lon="1.24684">
        <ele>130.4461428</ele>
        <time>2022-08-16T13:50:19Z</time>
      </trkpt>
      <trkpt lat="44.86671" lon="1.24686">
        <ele>130.4281859</ele>
        <time>2022-08-16T13:50:21Z</time>
      </trkpt>
      <trkpt lat="44.8667" lon="1.24686">
        <ele>130.711838</ele>
        <time>2022-08-16T13:50:23Z</time>
      </trkpt>
      <trkpt lat="44.86669" lon="1.24686">
        <ele>129.9013214</ele>
        <time>2022-08-16T13:50:25Z</time>
      </trkpt>
      <trkpt lat="44.86671" lon="1.24685">
        <ele>128.7248243</ele>
        <time>2022-08-16T13:50:27Z</time>
      </trkpt>
      <trkpt lat="44.86671" lon="1.24685">
        <ele>128.5819072</ele>
        <time>2022-08-16T13:50:29Z</time>
      </trkpt>
      <trkpt lat="44.86673" lon="1.24685">
        <ele>128.1314172</ele>
        <time>2022-08-16T13:50:31Z</time>
      </trkpt>
      <trkpt lat="44.86673" lon="1.24685">
        <ele>127.0271452</ele>
        <time>2022-08-16T13:50:33Z</time>
      </trkpt>
      <trkpt lat="44.86673" lon="1.24685">
        <ele>127.0271452</ele>
        <time>2022-08-16T13:50:37Z</time>
      </trkpt>
      <trkpt lat="44.86673" lon="1.24685">
        <ele>127.0271452</ele>
        <time>2022-08-16T13:50:41Z</time>
      </trkpt>
      <trkpt lat="44.86673" lon="1.24685">
        <ele>127.0271452</ele>
        <time>2022-08-16T13:50:45Z</time>
      </trkpt>
      <trkpt lat="44.86676" lon="1.24684">
        <ele>126.2392323</ele>
        <time>2022-08-16T13:50:47Z</time>
      </trkpt>
      <trkpt lat="44.86677" lon="1.24684">
        <ele>126.4628161</ele>
        <time>2022-08-16T13:50:49Z</time>
      </trkpt>
      <trkpt lat="44.86677" lon="1.24684">
        <ele>127.9415969</ele>
        <time>2022-08-16T13:50:51Z</time>
      </trkpt>
      <trkpt lat="44.86677" lon="1.24684">
        <ele>127.9430898</ele>
        <time>2022-08-16T13:50:53Z</time>
      </trkpt>
      <trkpt lat="44.86678" lon="1.24682">
        <ele>131.2320504</ele>
        <time>2022-08-16T13:50:57Z</time>
      </trkpt>
      <trkpt lat="44.86679" lon="1.24682">
        <ele>131.2901367</ele>
        <time>2022-08-16T13:50:59Z</time>
      </trkpt>
      <trkpt lat="44.86679" lon="1.24682">
        <ele>131.2901367</ele>
        <time>2022-08-16T13:51:03Z</time>
      </trkpt>
      <trkpt lat="44.86679" lon="1.24681">
        <ele>134.6855661</ele>
        <time>2022-08-16T13:51:07Z</time>
      </trkpt>
      <trkpt lat="44.86679" lon="1.24681">
        <ele>134.6855661</ele>
        <time>2022-08-16T13:51:11Z</time>
      </trkpt>
      <trkpt lat="44.86678" lon="1.2468">
        <ele>138.7959705</ele>
        <time>2022-08-16T13:51:13Z</time>
      </trkpt>
      <trkpt lat="44.86678" lon="1.2468">
        <ele>138.7959705</ele>
        <time>2022-08-16T13:51:17Z</time>
      </trkpt>
      <trkpt lat="44.86678" lon="1.2468">
        <ele>138.7959705</ele>
        <time>2022-08-16T13:51:21Z</time>
      </trkpt>
      <trkpt lat="44.86678" lon="1.2468">
        <ele>138.7959705</ele>
        <time>2022-08-16T13:51:25Z</time>
      </trkpt>
      <trkpt lat="44.86676" lon="1.24681">
        <ele>138.4614365</ele>
        <time>2022-08-16T13:51:29Z</time>
      </trkpt>
      <trkpt lat="44.86676" lon="1.24681">
        <ele>137.6232802</ele>
        <time>2022-08-16T13:51:31Z</time>
      </trkpt>
      <trkpt lat="44.86675" lon="1.24681">
        <ele>137.4370674</ele>
        <time>2022-08-16T13:51:33Z</time>
      </trkpt>
      <trkpt lat="44.86675" lon="1.24681">
        <ele>137.4370674</ele>
        <time>2022-08-16T13:51:37Z</time>
      </trkpt>
      <trkpt lat="44.86675" lon="1.2468">
        <ele>135.7319447</ele>
        <time>2022-08-16T13:51:41Z</time>
      </trkpt>
      <trkpt lat="44.86675" lon="1.2468">
        <ele>135.2760029</ele>
        <time>2022-08-16T13:51:43Z</time>
      </trkpt>
      <trkpt lat="44.86675" lon="1.2468">
        <ele>135.2787133</ele>
        <time>2022-08-16T13:51:45Z</time>
      </trkpt>
      <trkpt lat="44.86676" lon="1.24681">
        <ele>134.6312954</ele>
        <time>2022-08-16T13:51:47Z</time>
      </trkpt>
      <trkpt lat="44.86676" lon="1.24681">
        <ele>134.6312954</ele>
        <time>2022-08-16T13:51:51Z</time>
      </trkpt>
      <trkpt lat="44.86676" lon="1.24683">
        <ele>135.5626012</ele>
        <time>2022-08-16T13:51:53Z</time>
      </trkpt>
      <trkpt lat="44.86678" lon="1.24681">
        <ele>135.9177975</ele>
        <time>2022-08-16T13:51:55Z</time>
      </trkpt>
      <trkpt lat="44.86679" lon="1.24681">
        <ele>136.2312865</ele>
        <time>2022-08-16T13:51:57Z</time>
      </trkpt>
      <trkpt lat="44.86679" lon="1.24681">
        <ele>136.2312865</ele>
        <time>2022-08-16T13:52:01Z</time>
      </trkpt>
      <trkpt lat="44.86677" lon="1.24679">
        <ele>134.6263218</ele>
        <time>2022-08-16T13:52:03Z</time>
      </trkpt>
      <trkpt lat="44.86677" lon="1.24679">
        <ele>134.2682658</ele>
        <time>2022-08-16T13:52:05Z</time>
      </trkpt>
      <trkpt lat="44.86677" lon="1.24679">
        <ele>134.2682658</ele>
        <time>2022-08-16T13:52:09Z</time>
      </trkpt>
      <trkpt lat="44.86675" lon="1.24676">
        <ele>134.8556529</ele>
        <time>2022-08-16T13:52:13Z</time>
      </trkpt>
      <trkpt lat="44.86675" lon="1.24675">
        <ele>135.1477364</ele>
        <time>2022-08-16T13:52:15Z</time>
      </trkpt>
      <trkpt lat="44.86675" lon="1.24675">
        <ele>135.1477364</ele>
        <time>2022-08-16T13:52:19Z</time>
      </trkpt>
      <trkpt lat="44.86675" lon="1.24675">
        <ele>134.426208</ele>
        <time>2022-08-16T13:52:21Z</time>
      </trkpt>
      <trkpt lat="44.86675" lon="1.24676">
        <ele>133.1476119</ele>
        <time>2022-08-16T13:52:23Z</time>
      </trkpt>
      <trkpt lat="44.86675" lon="1.24676">
        <ele>133.1048413</ele>
        <time>2022-08-16T13:52:25Z</time>
      </trkpt>
      <trkpt lat="44.86675" lon="1.24676">
        <ele>131.4188152</ele>
        <time>2022-08-16T13:52:27Z</time>
      </trkpt>
      <trkpt lat="44.86674" lon="1.24676">
        <ele>130.5966661</ele>
        <time>2022-08-16T13:52:29Z</time>
      </trkpt>
      <trkpt lat="44.86674" lon="1.24676">
        <ele>130.6776874</ele>
        <time>2022-08-16T13:52:31Z</time>
      </trkpt>
      <trkpt lat="44.86674" lon="1.24676">
        <ele>130.6776874</ele>
        <time>2022-08-16T13:52:35Z</time>
      </trkpt>
      <trkpt lat="44.86674" lon="1.24678">
        <ele>130.5314705</ele>
        <time>2022-08-16T13:52:39Z</time>
      </trkpt>
      <trkpt lat="44.86675" lon="1.24678">
        <ele>130.5369787</ele>
        <time>2022-08-16T13:52:41Z</time>
      </trkpt>
      <trkpt lat="44.86675" lon="1.24678">
        <ele>131.0918342</ele>
        <time>2022-08-16T13:52:45Z</time>
      </trkpt>
      <trkpt lat="44.86675" lon="1.24678">
        <ele>131.0918342</ele>
        <time>2022-08-16T13:52:49Z</time>
      </trkpt>
      <trkpt lat="44.86675" lon="1.24679">
        <ele>133.0206006</ele>
        <time>2022-08-16T13:52:53Z</time>
      </trkpt>
      <trkpt lat="44.86675" lon="1.24679">
        <ele>133.0206006</ele>
        <time>2022-08-16T13:52:57Z</time>
      </trkpt>
      <trkpt lat="44.86675" lon="1.24679">
        <ele>133.0206006</ele>
        <time>2022-08-16T13:53:01Z</time>
      </trkpt>
      <trkpt lat="44.86675" lon="1.24679">
        <ele>134.2551211</ele>
        <time>2022-08-16T13:53:03Z</time>
      </trkpt>
      <trkpt lat="44.86675" lon="1.24679">
        <ele>134.2551211</ele>
        <time>2022-08-16T13:53:07Z</time>
      </trkpt>
      <trkpt lat="44.86675" lon="1.24678">
        <ele>135.3403882</ele>
        <time>2022-08-16T13:53:09Z</time>
      </trkpt>
      <trkpt lat="44.86676" lon="1.24679">
        <ele>135.4174099</ele>
        <time>2022-08-16T13:53:11Z</time>
      </trkpt>
      <trkpt lat="44.86675" lon="1.24679">
        <ele>134.7458169</ele>
        <time>2022-08-16T13:53:13Z</time>
      </trkpt>
      <trkpt lat="44.86676" lon="1.24679">
        <ele>134.812781</ele>
        <time>2022-08-16T13:53:15Z</time>
      </trkpt>
      <trkpt lat="44.86676" lon="1.24679">
        <ele>134.8087101</ele>
        <time>2022-08-16T13:53:17Z</time>
      </trkpt>
      <trkpt lat="44.86676" lon="1.24679">
        <ele>134.2466332</ele>
        <time>2022-08-16T13:53:19Z</time>
      </trkpt>
      <trkpt lat="44.86676" lon="1.2468">
        <ele>133.7196945</ele>
        <time>2022-08-16T13:53:21Z</time>
      </trkpt>
      <trkpt lat="44.86676" lon="1.24679">
        <ele>133.5705304</ele>
        <time>2022-08-16T13:53:23Z</time>
      </trkpt>
      <trkpt lat="44.86676" lon="1.24679">
        <ele>133.7486508</ele>
        <time>2022-08-16T13:53:25Z</time>
      </trkpt>
      <trkpt lat="44.86676" lon="1.24679">
        <ele>133.5368673</ele>
        <time>2022-08-16T13:53:27Z</time>
      </trkpt>
      <trkpt lat="44.86676" lon="1.24679">
        <ele>133.6451981</ele>
        <time>2022-08-16T13:53:29Z</time>
      </trkpt>
      <trkpt lat="44.86676" lon="1.24678">
        <ele>133.7164364</ele>
        <time>2022-08-16T13:53:31Z</time>
      </trkpt>
      <trkpt lat="44.86677" lon="1.24678">
        <ele>132.4687829</ele>
        <time>2022-08-16T13:53:35Z</time>
      </trkpt>
      <trkpt lat="44.86677" lon="1.24679">
        <ele>132.3165774</ele>
        <time>2022-08-16T13:53:37Z</time>
      </trkpt>
      <trkpt lat="44.86678" lon="1.24678">
        <ele>132.3729346</ele>
        <time>2022-08-16T13:53:39Z</time>
      </trkpt>
      <trkpt lat="44.86678" lon="1.24679">
        <ele>132.5847173</ele>
        <time>2022-08-16T13:53:41Z</time>
      </trkpt>
      <trkpt lat="44.86679" lon="1.24679">
        <ele>133.3174651</ele>
        <time>2022-08-16T13:53:45Z</time>
      </trkpt>
      <trkpt lat="44.86679" lon="1.2468">
        <ele>134.0935569</ele>
        <time>2022-08-16T13:53:47Z</time>
      </trkpt>
      <trkpt lat="44.86678" lon="1.24681">
        <ele>133.8301268</ele>
        <time>2022-08-16T13:53:49Z</time>
      </trkpt>
      <trkpt lat="44.86678" lon="1.24681">
        <ele>133.5653478</ele>
        <time>2022-08-16T13:53:51Z</time>
      </trkpt>
      <trkpt lat="44.86679" lon="1.24682">
        <ele>133.7038971</ele>
        <time>2022-08-16T13:53:53Z</time>
      </trkpt>
      <trkpt lat="44.86679" lon="1.24682">
        <ele>133.6154975</ele>
        <time>2022-08-16T13:53:55Z</time>
      </trkpt>
      <trkpt lat="44.86678" lon="1.24683">
        <ele>133.045283</ele>
        <time>2022-08-16T13:53:57Z</time>
      </trkpt>
      <trkpt lat="44.86678" lon="1.24683">
        <ele>132.4339262</ele>
        <time>2022-08-16T13:53:59Z</time>
      </trkpt>
      <trkpt lat="44.86679" lon="1.24683">
        <ele>132.7888145</ele>
        <time>2022-08-16T13:54:01Z</time>
      </trkpt>
      <trkpt lat="44.86679" lon="1.24683">
        <ele>132.8599212</ele>
        <time>2022-08-16T13:54:03Z</time>
      </trkpt>
      <trkpt lat="44.86679" lon="1.24683">
        <ele>132.2623918</ele>
        <time>2022-08-16T13:54:05Z</time>
      </trkpt>
      <trkpt lat="44.86679" lon="1.24683">
        <ele>131.8905224</ele>
        <time>2022-08-16T13:54:07Z</time>
      </trkpt>
      <trkpt lat="44.86679" lon="1.24684">
        <ele>132.4910741</ele>
        <time>2022-08-16T13:54:09Z</time>
      </trkpt>
      <trkpt lat="44.86679" lon="1.24684">
        <ele>132.4282289</ele>
        <time>2022-08-16T13:54:11Z</time>
      </trkpt>
      <trkpt lat="44.86679" lon="1.24684">
        <ele>132.8753029</ele>
        <time>2022-08-16T13:54:13Z</time>
      </trkpt>
      <trkpt lat="44.86679" lon="1.24684">
        <ele>132.9362426</ele>
        <time>2022-08-16T13:54:15Z</time>
      </trkpt>
      <trkpt lat="44.86679" lon="1.24684">
        <ele>132.7954932</ele>
        <time>2022-08-16T13:54:17Z</time>
      </trkpt>
      <trkpt lat="44.86679" lon="1.24684">
        <ele>132.7954932</ele>
        <time>2022-08-16T13:54:21Z</time>
      </trkpt>
      <trkpt lat="44.8668" lon="1.24682">
        <ele>131.2435687</ele>
        <time>2022-08-16T13:54:23Z</time>
      </trkpt>
      <trkpt lat="44.8668" lon="1.24681">
        <ele>131.0767768</ele>
        <time>2022-08-16T13:54:25Z</time>
      </trkpt>
      <trkpt lat="44.8668" lon="1.24681">
        <ele>131.6009414</ele>
        <time>2022-08-16T13:54:29Z</time>
      </trkpt>
      <trkpt lat="44.8668" lon="1.24682">
        <ele>132.6030403</ele>
        <time>2022-08-16T13:54:31Z</time>
      </trkpt>
      <trkpt lat="44.8668" lon="1.24683">
        <ele>131.506884</ele>
        <time>2022-08-16T13:54:33Z</time>
      </trkpt>
      <trkpt lat="44.8668" lon="1.24682">
        <ele>131.4716505</ele>
        <time>2022-08-16T13:54:35Z</time>
      </trkpt>
      <trkpt lat="44.8668" lon="1.24682">
        <ele>131.4716505</ele>
        <time>2022-08-16T13:54:39Z</time>
      </trkpt>
      <trkpt lat="44.8668" lon="1.24682">
        <ele>131.4716505</ele>
        <time>2022-08-16T13:54:43Z</time>
      </trkpt>
      <trkpt lat="44.8668" lon="1.24682">
        <ele>131.4716505</ele>
        <time>2022-08-16T13:54:47Z</time>
      </trkpt>
      <trkpt lat="44.86679" lon="1.24685">
        <ele>129.1120913</ele>
        <time>2022-08-16T13:54:49Z</time>
      </trkpt>
      <trkpt lat="44.86679" lon="1.24686">
        <ele>129.6547907</ele>
        <time>2022-08-16T13:54:53Z</time>
      </trkpt>
      <trkpt lat="44.8668" lon="1.24686">
        <ele>130.2535287</ele>
        <time>2022-08-16T13:54:57Z</time>
      </trkpt>
      <trkpt lat="44.8668" lon="1.24686">
        <ele>130.7408714</ele>
        <time>2022-08-16T13:54:59Z</time>
      </trkpt>
      <trkpt lat="44.8668" lon="1.24686">
        <ele>130.3488706</ele>
        <time>2022-08-16T13:55:01Z</time>
      </trkpt>
      <trkpt lat="44.8668" lon="1.24685">
        <ele>130.4347512</ele>
        <time>2022-08-16T13:55:03Z</time>
      </trkpt>
      <trkpt lat="44.8668" lon="1.24685">
        <ele>130.4347512</ele>
        <time>2022-08-16T13:55:07Z</time>
      </trkpt>
      <trkpt lat="44.86683" lon="1.24685">
        <ele>131.7424122</ele>
        <time>2022-08-16T13:55:11Z</time>
      </trkpt>
      <trkpt lat="44.86683" lon="1.24685">
        <ele>132.3578567</ele>
        <time>2022-08-16T13:55:13Z</time>
      </trkpt>
      <trkpt lat="44.86683" lon="1.24684">
        <ele>133.0794118</ele>
        <time>2022-08-16T13:55:15Z</time>
      </trkpt>
      <trkpt lat="44.86682" lon="1.24683">
        <ele>133.6641065</ele>
        <time>2022-08-16T13:55:19Z</time>
      </trkpt>
      <trkpt lat="44.86682" lon="1.24682">
        <ele>133.7830803</ele>
        <time>2022-08-16T13:55:21Z</time>
      </trkpt>
      <trkpt lat="44.86682" lon="1.24682">
        <ele>133.7830803</ele>
        <time>2022-08-16T13:55:25Z</time>
      </trkpt>
      <trkpt lat="44.86678" lon="1.24684">
        <ele>132.710148</ele>
        <time>2022-08-16T13:55:27Z</time>
      </trkpt>
      <trkpt lat="44.86678" lon="1.24683">
        <ele>132.5357228</ele>
        <time>2022-08-16T13:55:29Z</time>
      </trkpt>
      <trkpt lat="44.86674" lon="1.24682">
        <ele>133.5464443</ele>
        <time>2022-08-16T13:55:33Z</time>
      </trkpt>
      <trkpt lat="44.86675" lon="1.24683">
        <ele>133.8059494</ele>
        <time>2022-08-16T13:55:35Z</time>
      </trkpt>
      <trkpt lat="44.86675" lon="1.24683">
        <ele>133.0325201</ele>
        <time>2022-08-16T13:55:37Z</time>
      </trkpt>
      <trkpt lat="44.86675" lon="1.24683">
        <ele>133.0167339</ele>
        <time>2022-08-16T13:55:39Z</time>
      </trkpt>
      <trkpt lat="44.86676" lon="1.24684">
        <ele>132.0477786</ele>
        <time>2022-08-16T13:55:41Z</time>
      </trkpt>
      <trkpt lat="44.86676" lon="1.24685">
        <ele>131.6315189</ele>
        <time>2022-08-16T13:55:43Z</time>
      </trkpt>
      <trkpt lat="44.86676" lon="1.24684">
        <ele>132.2154459</ele>
        <time>2022-08-16T13:55:45Z</time>
      </trkpt>
      <trkpt lat="44.86677" lon="1.24685">
        <ele>134.0764362</ele>
        <time>2022-08-16T13:55:47Z</time>
      </trkpt>
      <trkpt lat="44.86677" lon="1.24684">
        <ele>134.6450435</ele>
        <time>2022-08-16T13:55:49Z</time>
      </trkpt>
      <trkpt lat="44.86678" lon="1.24683">
        <ele>136.1168329</ele>
        <time>2022-08-16T13:55:51Z</time>
      </trkpt>
      <trkpt lat="44.86679" lon="1.24684">
        <ele>136.204874</ele>
        <time>2022-08-16T13:55:53Z</time>
      </trkpt>
      <trkpt lat="44.86679" lon="1.24684">
        <ele>135.8260707</ele>
        <time>2022-08-16T13:55:55Z</time>
      </trkpt>
      <trkpt lat="44.8668" lon="1.24684">
        <ele>136.5857514</ele>
        <time>2022-08-16T13:55:57Z</time>
      </trkpt>
      <trkpt lat="44.8668" lon="1.24683">
        <ele>136.7111056</ele>
        <time>2022-08-16T13:55:59Z</time>
      </trkpt>
      <trkpt lat="44.86682" lon="1.24684">
        <ele>138.4577393</ele>
        <time>2022-08-16T13:56:03Z</time>
      </trkpt>
      <trkpt lat="44.86683" lon="1.24683">
        <ele>139.5392799</ele>
        <time>2022-08-16T13:56:05Z</time>
      </trkpt>
      <trkpt lat="44.86682" lon="1.24683">
        <ele>140.2177326</ele>
        <time>2022-08-16T13:56:07Z</time>
      </trkpt>
      <trkpt lat="44.86682" lon="1.24683">
        <ele>140.2177326</ele>
        <time>2022-08-16T13:56:11Z</time>
      </trkpt>
      <trkpt lat="44.86682" lon="1.24683">
        <ele>140.2177326</ele>
        <time>2022-08-16T13:56:15Z</time>
      </trkpt>
      <trkpt lat="44.86681" lon="1.24683">
        <ele>137.8249545</ele>
        <time>2022-08-16T13:56:17Z</time>
      </trkpt>
      <trkpt lat="44.86681" lon="1.24683">
        <ele>137.9952647</ele>
        <time>2022-08-16T13:56:19Z</time>
      </trkpt>
      <trkpt lat="44.86682" lon="1.24683">
        <ele>138.3051124</ele>
        <time>2022-08-16T13:56:21Z</time>
      </trkpt>
      <trkpt lat="44.86681" lon="1.24683">
        <ele>138.1439369</ele>
        <time>2022-08-16T13:56:23Z</time>
      </trkpt>
      <trkpt lat="44.86681" lon="1.24684">
        <ele>137.4499524</ele>
        <time>2022-08-16T13:56:25Z</time>
      </trkpt>
      <trkpt lat="44.86681" lon="1.24683">
        <ele>138.0320716</ele>
        <time>2022-08-16T13:56:27Z</time>
      </trkpt>
      <trkpt lat="44.86681" lon="1.24683">
        <ele>137.9210493</ele>
        <time>2022-08-16T13:56:29Z</time>
      </trkpt>
      <trkpt lat="44.86681" lon="1.24683">
        <ele>138.3511027</ele>
        <time>2022-08-16T13:56:31Z</time>
      </trkpt>
      <trkpt lat="44.8668" lon="1.24683">
        <ele>138.5220048</ele>
        <time>2022-08-16T13:56:33Z</time>
      </trkpt>
      <trkpt lat="44.8668" lon="1.24682">
        <ele>139.1541905</ele>
        <time>2022-08-16T13:56:35Z</time>
      </trkpt>
      <trkpt lat="44.8668" lon="1.2468">
        <ele>138.5133084</ele>
        <time>2022-08-16T13:56:37Z</time>
      </trkpt>
      <trkpt lat="44.8668" lon="1.24679">
        <ele>137.9437853</ele>
        <time>2022-08-16T13:56:39Z</time>
      </trkpt>
      <trkpt lat="44.86679" lon="1.2468">
        <ele>137.3138806</ele>
        <time>2022-08-16T13:56:41Z</time>
      </trkpt>
      <trkpt lat="44.86679" lon="1.2468">
        <ele>137.3138806</ele>
        <time>2022-08-16T13:56:45Z</time>
      </trkpt>
      <trkpt lat="44.86678" lon="1.24685">
        <ele>135.5602451</ele>
        <time>2022-08-16T13:56:49Z</time>
      </trkpt>
      <trkpt lat="44.86678" lon="1.24686">
        <ele>135.0755155</ele>
        <time>2022-08-16T13:56:51Z</time>
      </trkpt>
      <trkpt lat="44.86679" lon="1.24685">
        <ele>134.5823947</ele>
        <time>2022-08-16T13:56:53Z</time>
      </trkpt>
      <trkpt lat="44.86679" lon="1.24685">
        <ele>133.9670948</ele>
        <time>2022-08-16T13:56:55Z</time>
      </trkpt>
      <trkpt lat="44.86678" lon="1.24685">
        <ele>134.04212</ele>
        <time>2022-08-16T13:56:57Z</time>
      </trkpt>
      <trkpt lat="44.86678" lon="1.24685">
        <ele>133.6584238</ele>
        <time>2022-08-16T13:56:59Z</time>
      </trkpt>
      <trkpt lat="44.86677" lon="1.24684">
        <ele>133.344459</ele>
        <time>2022-08-16T13:57:01Z</time>
      </trkpt>
      <trkpt lat="44.86677" lon="1.24683">
        <ele>134.207565</ele>
        <time>2022-08-16T13:57:03Z</time>
      </trkpt>
      <trkpt lat="44.86677" lon="1.24683">
        <ele>134.4401279</ele>
        <time>2022-08-16T13:57:05Z</time>
      </trkpt>
      <trkpt lat="44.86677" lon="1.24682">
        <ele>134.8739231</ele>
        <time>2022-08-16T13:57:07Z</time>
      </trkpt>
      <trkpt lat="44.86677" lon="1.24683">
        <ele>134.9622633</ele>
        <time>2022-08-16T13:57:09Z</time>
      </trkpt>
      <trkpt lat="44.86677" lon="1.24682">
        <ele>134.7458236</ele>
        <time>2022-08-16T13:57:13Z</time>
      </trkpt>
      <trkpt lat="44.86677" lon="1.2468">
        <ele>133.9506903</ele>
        <time>2022-08-16T13:57:15Z</time>
      </trkpt>
      <trkpt lat="44.86677" lon="1.2468">
        <ele>133.9506903</ele>
        <time>2022-08-16T13:57:19Z</time>
      </trkpt>
      <trkpt lat="44.86677" lon="1.24679">
        <ele>134.9597157</ele>
        <time>2022-08-16T13:57:21Z</time>
      </trkpt>
      <trkpt lat="44.86677" lon="1.24679">
        <ele>135.0510868</ele>
        <time>2022-08-16T13:57:23Z</time>
      </trkpt>
      <trkpt lat="44.86677" lon="1.24679">
        <ele>134.5959724</ele>
        <time>2022-08-16T13:57:27Z</time>
      </trkpt>
      <trkpt lat="44.86678" lon="1.2468">
        <ele>135.3216262</ele>
        <time>2022-08-16T13:57:29Z</time>
      </trkpt>
      <trkpt lat="44.86679" lon="1.24681">
        <ele>137.14934</ele>
        <time>2022-08-16T13:57:31Z</time>
      </trkpt>
      <trkpt lat="44.86679" lon="1.24681">
        <ele>137.675685</ele>
        <time>2022-08-16T13:57:33Z</time>
      </trkpt>
      <trkpt lat="44.86681" lon="1.24681">
        <ele>139.955431</ele>
        <time>2022-08-16T13:57:37Z</time>
      </trkpt>
      <trkpt lat="44.86682" lon="1.24682">
        <ele>141.3309948</ele>
        <time>2022-08-16T13:57:41Z</time>
      </trkpt>
      <trkpt lat="44.86682" lon="1.24682">
        <ele>141.9450783</ele>
        <time>2022-08-16T13:57:43Z</time>
      </trkpt>
      <trkpt lat="44.86683" lon="1.24682">
        <ele>142.8155665</ele>
        <time>2022-08-16T13:57:45Z</time>
      </trkpt>
      <trkpt lat="44.86683" lon="1.24681">
        <ele>142.9607815</ele>
        <time>2022-08-16T13:57:47Z</time>
      </trkpt>
      <trkpt lat="44.86683" lon="1.24681">
        <ele>143.9508142</ele>
        <time>2022-08-16T13:57:49Z</time>
      </trkpt>
      <trkpt lat="44.86683" lon="1.24681">
        <ele>143.8113493</ele>
        <time>2022-08-16T13:57:51Z</time>
      </trkpt>
      <trkpt lat="44.86682" lon="1.2468">
        <ele>142.9652117</ele>
        <time>2022-08-16T13:57:53Z</time>
      </trkpt>
      <trkpt lat="44.86681" lon="1.2468">
        <ele>140.4939569</ele>
        <time>2022-08-16T13:57:57Z</time>
      </trkpt>
      <trkpt lat="44.86681" lon="1.2468">
        <ele>140.4350375</ele>
        <time>2022-08-16T13:57:59Z</time>
      </trkpt>
      <trkpt lat="44.8668" lon="1.24681">
        <ele>140.2702821</ele>
        <time>2022-08-16T13:58:03Z</time>
      </trkpt>
      <trkpt lat="44.8668" lon="1.24681">
        <ele>140.2526202</ele>
        <time>2022-08-16T13:58:05Z</time>
      </trkpt>
      <trkpt lat="44.8668" lon="1.24681">
        <ele>140.2129736</ele>
        <time>2022-08-16T13:58:09Z</time>
      </trkpt>
      <trkpt lat="44.8668" lon="1.24681">
        <ele>140.2129736</ele>
        <time>2022-08-16T13:58:13Z</time>
      </trkpt>
      <trkpt lat="44.86679" lon="1.2468">
        <ele>142.578741</ele>
        <time>2022-08-16T13:58:17Z</time>
      </trkpt>
      <trkpt lat="44.86679" lon="1.2468">
        <ele>143.0161608</ele>
        <time>2022-08-16T13:58:19Z</time>
      </trkpt>
      <trkpt lat="44.86679" lon="1.2468">
        <ele>142.1969656</ele>
        <time>2022-08-16T13:58:21Z</time>
      </trkpt>
      <trkpt lat="44.86679" lon="1.2468">
        <ele>141.5293788</ele>
        <time>2022-08-16T13:58:23Z</time>
      </trkpt>
      <trkpt lat="44.86679" lon="1.2468">
        <ele>141.6864774</ele>
        <time>2022-08-16T13:58:25Z</time>
      </trkpt>
      <trkpt lat="44.86679" lon="1.2468">
        <ele>141.6864774</ele>
        <time>2022-08-16T13:58:29Z</time>
      </trkpt>
      <trkpt lat="44.86682" lon="1.2468">
        <ele>144.0701133</ele>
        <time>2022-08-16T13:58:31Z</time>
      </trkpt>
      <trkpt lat="44.86682" lon="1.24679">
        <ele>144.1346176</ele>
        <time>2022-08-16T13:58:33Z</time>
      </trkpt>
      <trkpt lat="44.86682" lon="1.24679">
        <ele>143.8922577</ele>
        <time>2022-08-16T13:58:35Z</time>
      </trkpt>
      <trkpt lat="44.86683" lon="1.24679">
        <ele>144.083351</ele>
        <time>2022-08-16T13:58:37Z</time>
      </trkpt>
      <trkpt lat="44.86683" lon="1.24678">
        <ele>143.9158575</ele>
        <time>2022-08-16T13:58:39Z</time>
      </trkpt>
      <trkpt lat="44.86683" lon="1.24678">
        <ele>143.9158575</ele>
        <time>2022-08-16T13:58:43Z</time>
      </trkpt>
      <trkpt lat="44.86683" lon="1.24678">
        <ele>143.9158575</ele>
        <time>2022-08-16T13:58:47Z</time>
      </trkpt>
      <trkpt lat="44.86683" lon="1.24678">
        <ele>143.9158575</ele>
        <time>2022-08-16T13:58:51Z</time>
      </trkpt>
      <trkpt lat="44.86684" lon="1.24679">
        <ele>142.2826143</ele>
        <time>2022-08-16T13:58:55Z</time>
      </trkpt>
      <trkpt lat="44.86683" lon="1.24679">
        <ele>142.2825108</ele>
        <time>2022-08-16T13:58:57Z</time>
      </trkpt>
      <trkpt lat="44.86683" lon="1.2468">
        <ele>143.1911763</ele>
        <time>2022-08-16T13:58:59Z</time>
      </trkpt>
      <trkpt lat="44.86684" lon="1.2468">
        <ele>143.2775111</ele>
        <time>2022-08-16T13:59:01Z</time>
      </trkpt>
      <trkpt lat="44.86684" lon="1.24681">
        <ele>144.2056034</ele>
        <time>2022-08-16T13:59:05Z</time>
      </trkpt>
      <trkpt lat="44.86684" lon="1.24681">
        <ele>144.1243747</ele>
        <time>2022-08-16T13:59:07Z</time>
      </trkpt>
      <trkpt lat="44.86684" lon="1.24681">
        <ele>144.1243747</ele>
        <time>2022-08-16T13:59:11Z</time>
      </trkpt>
      <trkpt lat="44.86683" lon="1.24679">
        <ele>142.5431953</ele>
        <time>2022-08-16T13:59:15Z</time>
      </trkpt>
      <trkpt lat="44.86683" lon="1.24679">
        <ele>142.141583</ele>
        <time>2022-08-16T13:59:17Z</time>
      </trkpt>
      <trkpt lat="44.86682" lon="1.24679">
        <ele>140.8753066</ele>
        <time>2022-08-16T13:59:19Z</time>
      </trkpt>
      <trkpt lat="44.86682" lon="1.24679">
        <ele>140.8753066</ele>
        <time>2022-08-16T13:59:23Z</time>
      </trkpt>
      <trkpt lat="44.86682" lon="1.24679">
        <ele>140.8753066</ele>
        <time>2022-08-16T13:59:27Z</time>
      </trkpt>
      <trkpt lat="44.86681" lon="1.2468">
        <ele>141.0039778</ele>
        <time>2022-08-16T13:59:29Z</time>
      </trkpt>
      <trkpt lat="44.86681" lon="1.2468">
        <ele>141.0039778</ele>
        <time>2022-08-16T13:59:33Z</time>
      </trkpt>
      <trkpt lat="44.86681" lon="1.2468">
        <ele>141.0039778</ele>
        <time>2022-08-16T13:59:37Z</time>
      </trkpt>
      <trkpt lat="44.86681" lon="1.2468">
        <ele>141.0039778</ele>
        <time>2022-08-16T13:59:41Z</time>
      </trkpt>
      <trkpt lat="44.86674" lon="1.24679">
        <ele>134.3694648</ele>
        <time>2022-08-16T13:59:45Z</time>
      </trkpt>
      <trkpt lat="44.86674" lon="1.24679">
        <ele>133.2912121</ele>
        <time>2022-08-16T13:59:47Z</time>
      </trkpt>
      <trkpt lat="44.86674" lon="1.24679">
        <ele>133.0040567</ele>
        <time>2022-08-16T13:59:49Z</time>
      </trkpt>
      <trkpt lat="44.86673" lon="1.24679">
        <ele>133.4581613</ele>
        <time>2022-08-16T13:59:53Z</time>
      </trkpt>
      <trkpt lat="44.86673" lon="1.24679">
        <ele>133.7563665</ele>
        <time>2022-08-16T13:59:55Z</time>
      </trkpt>
      <trkpt lat="44.86673" lon="1.2468">
        <ele>133.3118903</ele>
        <time>2022-08-16T13:59:57Z</time>
      </trkpt>
      <trkpt lat="44.86673" lon="1.2468">
        <ele>133.3118903</ele>
        <time>2022-08-16T14:00:01Z</time>
      </trkpt>
      <trkpt lat="44.86675" lon="1.24682">
        <ele>130.8006946</ele>
        <time>2022-08-16T14:00:05Z</time>
      </trkpt>
      <trkpt lat="44.86676" lon="1.24682">
        <ele>130.9877164</ele>
        <time>2022-08-16T14:00:07Z</time>
      </trkpt>
      <trkpt lat="44.86678" lon="1.24681">
        <ele>132.3700045</ele>
        <time>2022-08-16T14:00:09Z</time>
      </trkpt>
      <trkpt lat="44.86679" lon="1.24682">
        <ele>132.9001887</ele>
        <time>2022-08-16T14:00:11Z</time>
      </trkpt>
      <trkpt lat="44.86678" lon="1.24683">
        <ele>132.2902311</ele>
        <time>2022-08-16T14:00:13Z</time>
      </trkpt>
      <trkpt lat="44.86678" lon="1.24683">
        <ele>132.1546651</ele>
        <time>2022-08-16T14:00:15Z</time>
      </trkpt>
      <trkpt lat="44.86677" lon="1.24683">
        <ele>132.2433841</ele>
        <time>2022-08-16T14:00:17Z</time>
      </trkpt>
      <trkpt lat="44.86677" lon="1.24684">
        <ele>131.6051517</ele>
        <time>2022-08-16T14:00:19Z</time>
      </trkpt>
      <trkpt lat="44.86677" lon="1.24683">
        <ele>131.5091728</ele>
        <time>2022-08-16T14:00:21Z</time>
      </trkpt>
      <trkpt lat="44.86676" lon="1.24683">
        <ele>131.6951403</ele>
        <time>2022-08-16T14:00:23Z</time>
      </trkpt>
      <trkpt lat="44.86676" lon="1.24683">
        <ele>131.8671449</ele>
        <time>2022-08-16T14:00:25Z</time>
      </trkpt>
      <trkpt lat="44.86676" lon="1.24683">
        <ele>131.5708274</ele>
        <time>2022-08-16T14:00:27Z</time>
      </trkpt>
      <trkpt lat="44.86676" lon="1.24684">
        <ele>131.5070998</ele>
        <time>2022-08-16T14:00:29Z</time>
      </trkpt>
      <trkpt lat="44.86677" lon="1.24684">
        <ele>130.9144439</ele>
        <time>2022-08-16T14:00:31Z</time>
      </trkpt>
      <trkpt lat="44.86676" lon="1.24682">
        <ele>130.9907042</ele>
        <time>2022-08-16T14:00:33Z</time>
      </trkpt>
      <trkpt lat="44.86674" lon="1.2468">
        <ele>130.9975135</ele>
        <time>2022-08-16T14:00:35Z</time>
      </trkpt>
      <trkpt lat="44.86676" lon="1.24678">
        <ele>130.6782394</ele>
        <time>2022-08-16T14:00:37Z</time>
      </trkpt>
      <trkpt lat="44.86676" lon="1.24677">
        <ele>131.2688143</ele>
        <time>2022-08-16T14:00:39Z</time>
      </trkpt>
      <trkpt lat="44.86676" lon="1.24678">
        <ele>131.9377791</ele>
        <time>2022-08-16T14:00:41Z</time>
      </trkpt>
      <trkpt lat="44.86676" lon="1.24678">
        <ele>131.9294909</ele>
        <time>2022-08-16T14:00:43Z</time>
      </trkpt>
      <trkpt lat="44.86674" lon="1.24679">
        <ele>130.1415438</ele>
        <time>2022-08-16T14:00:45Z</time>
      </trkpt>
      <trkpt lat="44.86674" lon="1.24679">
        <ele>129.4002674</ele>
        <time>2022-08-16T14:00:47Z</time>
      </trkpt>
      <trkpt lat="44.86673" lon="1.2468">
        <ele>128.4733974</ele>
        <time>2022-08-16T14:00:49Z</time>
      </trkpt>
      <trkpt lat="44.86673" lon="1.2468">
        <ele>128.4733974</ele>
        <time>2022-08-16T14:00:53Z</time>
      </trkpt>
      <trkpt lat="44.86673" lon="1.2468">
        <ele>128.4733974</ele>
        <time>2022-08-16T14:00:57Z</time>
      </trkpt>
      <trkpt lat="44.86673" lon="1.2468">
        <ele>128.4733974</ele>
        <time>2022-08-16T14:01:01Z</time>
      </trkpt>
      <trkpt lat="44.86673" lon="1.2468">
        <ele>128.4733974</ele>
        <time>2022-08-16T14:01:05Z</time>
      </trkpt>
      <trkpt lat="44.86673" lon="1.2468">
        <ele>128.4733974</ele>
        <time>2022-08-16T14:01:09Z</time>
      </trkpt>
      <trkpt lat="44.86673" lon="1.2468">
        <ele>128.4733974</ele>
        <time>2022-08-16T14:01:13Z</time>
      </trkpt>
      <trkpt lat="44.86673" lon="1.2468">
        <ele>128.4733974</ele>
        <time>2022-08-16T14:01:17Z</time>
      </trkpt>
      <trkpt lat="44.86673" lon="1.2468">
        <ele>128.4733974</ele>
        <time>2022-08-16T14:01:21Z</time>
      </trkpt>
      <trkpt lat="44.86671" lon="1.24681">
        <ele>128.8596728</ele>
        <time>2022-08-16T14:01:23Z</time>
      </trkpt>
      <trkpt lat="44.86671" lon="1.24681">
        <ele>128.4034445</ele>
        <time>2022-08-16T14:01:25Z</time>
      </trkpt>
      <trkpt lat="44.86671" lon="1.24681">
        <ele>128.3825855</ele>
        <time>2022-08-16T14:01:27Z</time>
      </trkpt>
      <trkpt lat="44.8667" lon="1.24681">
        <ele>128.5078244</ele>
        <time>2022-08-16T14:01:29Z</time>
      </trkpt>
      <trkpt lat="44.86671" lon="1.2468">
        <ele>129.1099297</ele>
        <time>2022-08-16T14:01:31Z</time>
      </trkpt>
      <trkpt lat="44.86671" lon="1.2468">
        <ele>129.3370732</ele>
        <time>2022-08-16T14:01:33Z</time>
      </trkpt>
      <trkpt lat="44.86672" lon="1.2468">
        <ele>129.0890685</ele>
        <time>2022-08-16T14:01:35Z</time>
      </trkpt>
      <trkpt lat="44.86672" lon="1.2468">
        <ele>129.4746564</ele>
        <time>2022-08-16T14:01:37Z</time>
      </trkpt>
      <trkpt lat="44.86674" lon="1.24679">
        <ele>130.8211075</ele>
        <time>2022-08-16T14:01:39Z</time>
      </trkpt>
      <trkpt lat="44.86674" lon="1.24679">
        <ele>131.4584543</ele>
        <time>2022-08-16T14:01:41Z</time>
      </trkpt>
      <trkpt lat="44.86674" lon="1.24678">
        <ele>131.5091752</ele>
        <time>2022-08-16T14:01:43Z</time>
      </trkpt>
      <trkpt lat="44.86675" lon="1.24677">
        <ele>131.4829129</ele>
        <time>2022-08-16T14:01:45Z</time>
      </trkpt>
      <trkpt lat="44.86674" lon="1.24677">
        <ele>131.6217677</ele>
        <time>2022-08-16T14:01:47Z</time>
      </trkpt>
      <trkpt lat="44.86675" lon="1.24674">
        <ele>131.7479395</ele>
        <time>2022-08-16T14:01:49Z</time>
      </trkpt>
      <trkpt lat="44.86677" lon="1.24672">
        <ele>131.742641</ele>
        <time>2022-08-16T14:01:51Z</time>
      </trkpt>
      <trkpt lat="44.86682" lon="1.24669">
        <ele>132.167961</ele>
        <time>2022-08-16T14:01:53Z</time>
      </trkpt>
      <trkpt lat="44.86686" lon="1.24663">
        <ele>132.9388765</ele>
        <time>2022-08-16T14:01:55Z</time>
      </trkpt>
      <trkpt lat="44.86691" lon="1.24657">
        <ele>132.5894908</ele>
        <time>2022-08-16T14:01:57Z</time>
      </trkpt>
      <trkpt lat="44.86696" lon="1.24652">
        <ele>133.0187038</ele>
        <time>2022-08-16T14:01:59Z</time>
      </trkpt>
      <trkpt lat="44.86699" lon="1.24647">
        <ele>132.6783547</ele>
        <time>2022-08-16T14:02:01Z</time>
      </trkpt>
      <trkpt lat="44.86704" lon="1.24639">
        <ele>132.769965</ele>
        <time>2022-08-16T14:02:03Z</time>
      </trkpt>
      <trkpt lat="44.86708" lon="1.24634">
        <ele>133.4736584</ele>
        <time>2022-08-16T14:02:05Z</time>
      </trkpt>
      <trkpt lat="44.86713" lon="1.24626">
        <ele>132.9067254</ele>
        <time>2022-08-16T14:02:07Z</time>
      </trkpt>
      <trkpt lat="44.86718" lon="1.2462">
        <ele>133.2085898</ele>
        <time>2022-08-16T14:02:09Z</time>
      </trkpt>
      <trkpt lat="44.86722" lon="1.24614">
        <ele>132.6217936</ele>
        <time>2022-08-16T14:02:11Z</time>
      </trkpt>
      <trkpt lat="44.86726" lon="1.24607">
        <ele>132.2891518</ele>
        <time>2022-08-16T14:02:13Z</time>
      </trkpt>
      <trkpt lat="44.86731" lon="1.24601">
        <ele>133.0313648</ele>
        <time>2022-08-16T14:02:15Z</time>
      </trkpt>
      <trkpt lat="44.86736" lon="1.24594">
        <ele>133.1458099</ele>
        <time>2022-08-16T14:02:17Z</time>
      </trkpt>
      <trkpt lat="44.86739" lon="1.24588">
        <ele>133.6045573</ele>
        <time>2022-08-16T14:02:19Z</time>
      </trkpt>
      <trkpt lat="44.86744" lon="1.24581">
        <ele>133.6626419</ele>
        <time>2022-08-16T14:02:21Z</time>
      </trkpt>
      <trkpt lat="44.86749" lon="1.24575">
        <ele>133.5588042</ele>
        <time>2022-08-16T14:02:23Z</time>
      </trkpt>
      <trkpt lat="44.86755" lon="1.24566">
        <ele>134.1417538</ele>
        <time>2022-08-16T14:02:25Z</time>
      </trkpt>
      <trkpt lat="44.86759" lon="1.24561">
        <ele>134.2299871</ele>
        <time>2022-08-16T14:02:27Z</time>
      </trkpt>
      <trkpt lat="44.86764" lon="1.24553">
        <ele>134.7331097</ele>
        <time>2022-08-16T14:02:29Z</time>
      </trkpt>
      <trkpt lat="44.86768" lon="1.24544">
        <ele>134.9557598</ele>
        <time>2022-08-16T14:02:31Z</time>
      </trkpt>
      <trkpt lat="44.86773" lon="1.24538">
        <ele>134.356925</ele>
        <time>2022-08-16T14:02:33Z</time>
      </trkpt>
      <trkpt lat="44.86778" lon="1.24531">
        <ele>134.5873616</ele>
        <time>2022-08-16T14:02:35Z</time>
      </trkpt>
      <trkpt lat="44.86782" lon="1.24525">
        <ele>134.8554377</ele>
        <time>2022-08-16T14:02:37Z</time>
      </trkpt>
      <trkpt lat="44.86787" lon="1.24517">
        <ele>135.3885643</ele>
        <time>2022-08-16T14:02:39Z</time>
      </trkpt>
      <trkpt lat="44.86791" lon="1.24511">
        <ele>133.4657442</ele>
        <time>2022-08-16T14:02:41Z</time>
      </trkpt>
      <trkpt lat="44.86797" lon="1.24503">
        <ele>134.4695646</ele>
        <time>2022-08-16T14:02:43Z</time>
      </trkpt>
      <trkpt lat="44.86803" lon="1.24494">
        <ele>135.2252247</ele>
        <time>2022-08-16T14:02:45Z</time>
      </trkpt>
      <trkpt lat="44.86809" lon="1.24488">
        <ele>135.67254</ele>
        <time>2022-08-16T14:02:47Z</time>
      </trkpt>
      <trkpt lat="44.86814" lon="1.24481">
        <ele>135.7060527</ele>
        <time>2022-08-16T14:02:49Z</time>
      </trkpt>
      <trkpt lat="44.8682" lon="1.24475">
        <ele>134.8937505</ele>
        <time>2022-08-16T14:02:51Z</time>
      </trkpt>
      <trkpt lat="44.86826" lon="1.24466">
        <ele>135.6110279</ele>
        <time>2022-08-16T14:02:53Z</time>
      </trkpt>
      <trkpt lat="44.86831" lon="1.24459">
        <ele>135.8926722</ele>
        <time>2022-08-16T14:02:55Z</time>
      </trkpt>
      <trkpt lat="44.86835" lon="1.24451">
        <ele>135.4714084</ele>
        <time>2022-08-16T14:02:57Z</time>
      </trkpt>
      <trkpt lat="44.8684" lon="1.24444">
        <ele>135.5467739</ele>
        <time>2022-08-16T14:02:59Z</time>
      </trkpt>
      <trkpt lat="44.86846" lon="1.24438">
        <ele>135.1949344</ele>
        <time>2022-08-16T14:03:01Z</time>
      </trkpt>
      <trkpt lat="44.86851" lon="1.24431">
        <ele>135.0728474</ele>
        <time>2022-08-16T14:03:03Z</time>
      </trkpt>
      <trkpt lat="44.86856" lon="1.24423">
        <ele>134.409778</ele>
        <time>2022-08-16T14:03:05Z</time>
      </trkpt>
      <trkpt lat="44.8686" lon="1.24417">
        <ele>133.6779508</ele>
        <time>2022-08-16T14:03:07Z</time>
      </trkpt>
      <trkpt lat="44.86866" lon="1.2441">
        <ele>133.9919168</ele>
        <time>2022-08-16T14:03:09Z</time>
      </trkpt>
      <trkpt lat="44.8687" lon="1.24405">
        <ele>133.9147192</ele>
        <time>2022-08-16T14:03:11Z</time>
      </trkpt>
      <trkpt lat="44.86874" lon="1.24397">
        <ele>134.2417243</ele>
        <time>2022-08-16T14:03:13Z</time>
      </trkpt>
      <trkpt lat="44.86878" lon="1.24391">
        <ele>133.4630544</ele>
        <time>2022-08-16T14:03:15Z</time>
      </trkpt>
      <trkpt lat="44.86883" lon="1.24384">
        <ele>133.3128622</ele>
        <time>2022-08-16T14:03:17Z</time>
      </trkpt>
      <trkpt lat="44.86888" lon="1.24379">
        <ele>133.5010005</ele>
        <time>2022-08-16T14:03:19Z</time>
      </trkpt>
      <trkpt lat="44.86893" lon="1.24372">
        <ele>133.9622879</ele>
        <time>2022-08-16T14:03:21Z</time>
      </trkpt>
      <trkpt lat="44.86898" lon="1.24365">
        <ele>133.6060828</ele>
        <time>2022-08-16T14:03:23Z</time>
      </trkpt>
      <trkpt lat="44.86903" lon="1.24358">
        <ele>133.7132907</ele>
        <time>2022-08-16T14:03:25Z</time>
      </trkpt>
      <trkpt lat="44.86908" lon="1.24351">
        <ele>134.0141086</ele>
        <time>2022-08-16T14:03:27Z</time>
      </trkpt>
      <trkpt lat="44.86912" lon="1.24344">
        <ele>134.0292111</ele>
        <time>2022-08-16T14:03:29Z</time>
      </trkpt>
      <trkpt lat="44.86917" lon="1.24338">
        <ele>134.4788968</ele>
        <time>2022-08-16T14:03:31Z</time>
      </trkpt>
      <trkpt lat="44.86922" lon="1.24331">
        <ele>134.1826689</ele>
        <time>2022-08-16T14:03:33Z</time>
      </trkpt>
      <trkpt lat="44.86926" lon="1.24324">
        <ele>134.5939203</ele>
        <time>2022-08-16T14:03:35Z</time>
      </trkpt>
      <trkpt lat="44.86931" lon="1.24317">
        <ele>135.0518501</ele>
        <time>2022-08-16T14:03:37Z</time>
      </trkpt>
      <trkpt lat="44.86936" lon="1.2431">
        <ele>134.9933283</ele>
        <time>2022-08-16T14:03:39Z</time>
      </trkpt>
      <trkpt lat="44.8694" lon="1.24304">
        <ele>135.2800907</ele>
        <time>2022-08-16T14:03:41Z</time>
      </trkpt>
      <trkpt lat="44.86945" lon="1.24298">
        <ele>135.5840891</ele>
        <time>2022-08-16T14:03:43Z</time>
      </trkpt>
      <trkpt lat="44.86949" lon="1.24292">
        <ele>135.3427772</ele>
        <time>2022-08-16T14:03:45Z</time>
      </trkpt>
      <trkpt lat="44.86953" lon="1.24285">
        <ele>135.5925392</ele>
        <time>2022-08-16T14:03:47Z</time>
      </trkpt>
      <trkpt lat="44.86959" lon="1.24277">
        <ele>136.2109966</ele>
        <time>2022-08-16T14:03:49Z</time>
      </trkpt>
      <trkpt lat="44.86963" lon="1.2427">
        <ele>136.3750253</ele>
        <time>2022-08-16T14:03:51Z</time>
      </trkpt>
      <trkpt lat="44.86969" lon="1.24263">
        <ele>136.8456114</ele>
        <time>2022-08-16T14:03:53Z</time>
      </trkpt>
      <trkpt lat="44.86973" lon="1.24255">
        <ele>136.9169933</ele>
        <time>2022-08-16T14:03:55Z</time>
      </trkpt>
      <trkpt lat="44.86977" lon="1.24248">
        <ele>136.8472846</ele>
        <time>2022-08-16T14:03:57Z</time>
      </trkpt>
      <trkpt lat="44.86982" lon="1.24241">
        <ele>136.7940463</ele>
        <time>2022-08-16T14:03:59Z</time>
      </trkpt>
      <trkpt lat="44.86988" lon="1.24234">
        <ele>137.451723</ele>
        <time>2022-08-16T14:04:01Z</time>
      </trkpt>
      <trkpt lat="44.86994" lon="1.24228">
        <ele>136.3330545</ele>
        <time>2022-08-16T14:04:03Z</time>
      </trkpt>
      <trkpt lat="44.86998" lon="1.24221">
        <ele>137.2236014</ele>
        <time>2022-08-16T14:04:05Z</time>
      </trkpt>
      <trkpt lat="44.87004" lon="1.24213">
        <ele>137.094033</ele>
        <time>2022-08-16T14:04:07Z</time>
      </trkpt>
      <trkpt lat="44.87009" lon="1.24208">
        <ele>137.5392846</ele>
        <time>2022-08-16T14:04:09Z</time>
      </trkpt>
      <trkpt lat="44.87014" lon="1.24201">
        <ele>137.9181866</ele>
        <time>2022-08-16T14:04:11Z</time>
      </trkpt>
      <trkpt lat="44.87018" lon="1.24193">
        <ele>137.4118934</ele>
        <time>2022-08-16T14:04:13Z</time>
      </trkpt>
      <trkpt lat="44.87023" lon="1.24186">
        <ele>138.1933582</ele>
        <time>2022-08-16T14:04:15Z</time>
      </trkpt>
      <trkpt lat="44.87028" lon="1.24179">
        <ele>138.123713</ele>
        <time>2022-08-16T14:04:17Z</time>
      </trkpt>
      <trkpt lat="44.87033" lon="1.24172">
        <ele>137.4296892</ele>
        <time>2022-08-16T14:04:19Z</time>
      </trkpt>
      <trkpt lat="44.87037" lon="1.24162">
        <ele>137.6572424</ele>
        <time>2022-08-16T14:04:21Z</time>
      </trkpt>
      <trkpt lat="44.87041" lon="1.24154">
        <ele>137.8281539</ele>
        <time>2022-08-16T14:04:23Z</time>
      </trkpt>
      <trkpt lat="44.87046" lon="1.24146">
        <ele>138.3662155</ele>
        <time>2022-08-16T14:04:25Z</time>
      </trkpt>
      <trkpt lat="44.87051" lon="1.24139">
        <ele>138.9193521</ele>
        <time>2022-08-16T14:04:27Z</time>
      </trkpt>
      <trkpt lat="44.87056" lon="1.24129">
        <ele>139.1324355</ele>
        <time>2022-08-16T14:04:29Z</time>
      </trkpt>
      <trkpt lat="44.87061" lon="1.2412">
        <ele>139.5653776</ele>
        <time>2022-08-16T14:04:31Z</time>
      </trkpt>
      <trkpt lat="44.87065" lon="1.2411">
        <ele>139.6411608</ele>
        <time>2022-08-16T14:04:33Z</time>
      </trkpt>
      <trkpt lat="44.87069" lon="1.24102">
        <ele>139.8079171</ele>
        <time>2022-08-16T14:04:35Z</time>
      </trkpt>
      <trkpt lat="44.87074" lon="1.24092">
        <ele>139.6379286</ele>
        <time>2022-08-16T14:04:37Z</time>
      </trkpt>
      <trkpt lat="44.87078" lon="1.24082">
        <ele>139.8433591</ele>
        <time>2022-08-16T14:04:39Z</time>
      </trkpt>
      <trkpt lat="44.87082" lon="1.24072">
        <ele>139.8326793</ele>
        <time>2022-08-16T14:04:41Z</time>
      </trkpt>
      <trkpt lat="44.87086" lon="1.24062">
        <ele>139.108627</ele>
        <time>2022-08-16T14:04:43Z</time>
      </trkpt>
      <trkpt lat="44.87091" lon="1.24051">
        <ele>139.0265183</ele>
        <time>2022-08-16T14:04:45Z</time>
      </trkpt>
      <trkpt lat="44.87096" lon="1.24041">
        <ele>139.6744383</ele>
        <time>2022-08-16T14:04:47Z</time>
      </trkpt>
      <trkpt lat="44.871" lon="1.24031">
        <ele>139.0185531</ele>
        <time>2022-08-16T14:04:49Z</time>
      </trkpt>
      <trkpt lat="44.87104" lon="1.24021">
        <ele>139.4136275</ele>
        <time>2022-08-16T14:04:51Z</time>
      </trkpt>
      <trkpt lat="44.87108" lon="1.24012">
        <ele>139.1193428</ele>
        <time>2022-08-16T14:04:53Z</time>
      </trkpt>
      <trkpt lat="44.87113" lon="1.24003">
        <ele>139.3355864</ele>
        <time>2022-08-16T14:04:55Z</time>
      </trkpt>
      <trkpt lat="44.87118" lon="1.23994">
        <ele>139.5318786</ele>
        <time>2022-08-16T14:04:57Z</time>
      </trkpt>
      <trkpt lat="44.87121" lon="1.23984">
        <ele>139.430538</ele>
        <time>2022-08-16T14:04:59Z</time>
      </trkpt>
      <trkpt lat="44.87125" lon="1.23975">
        <ele>139.6415834</ele>
        <time>2022-08-16T14:05:01Z</time>
      </trkpt>
      <trkpt lat="44.87129" lon="1.23966">
        <ele>140.0960917</ele>
        <time>2022-08-16T14:05:03Z</time>
      </trkpt>
      <trkpt lat="44.87133" lon="1.23958">
        <ele>140.0676782</ele>
        <time>2022-08-16T14:05:05Z</time>
      </trkpt>
      <trkpt lat="44.87136" lon="1.23949">
        <ele>139.8588479</ele>
        <time>2022-08-16T14:05:07Z</time>
      </trkpt>
      <trkpt lat="44.87139" lon="1.2394">
        <ele>139.9815535</ele>
        <time>2022-08-16T14:05:09Z</time>
      </trkpt>
      <trkpt lat="44.87143" lon="1.23932">
        <ele>140.4598281</ele>
        <time>2022-08-16T14:05:11Z</time>
      </trkpt>
      <trkpt lat="44.87147" lon="1.23924">
        <ele>141.0812075</ele>
        <time>2022-08-16T14:05:13Z</time>
      </trkpt>
      <trkpt lat="44.87151" lon="1.23914">
        <ele>141.1310292</ele>
        <time>2022-08-16T14:05:15Z</time>
      </trkpt>
      <trkpt lat="44.87153" lon="1.23906">
        <ele>140.5765219</ele>
        <time>2022-08-16T14:05:17Z</time>
      </trkpt>
      <trkpt lat="44.87157" lon="1.23897">
        <ele>141.353851</ele>
        <time>2022-08-16T14:05:19Z</time>
      </trkpt>
      <trkpt lat="44.87161" lon="1.23888">
        <ele>141.0921355</ele>
        <time>2022-08-16T14:05:21Z</time>
      </trkpt>
      <trkpt lat="44.87165" lon="1.2388">
        <ele>141.7501338</ele>
        <time>2022-08-16T14:05:23Z</time>
      </trkpt>
      <trkpt lat="44.87168" lon="1.23869">
        <ele>142.4328668</ele>
        <time>2022-08-16T14:05:25Z</time>
      </trkpt>
      <trkpt lat="44.87172" lon="1.2386">
        <ele>142.3685728</ele>
        <time>2022-08-16T14:05:27Z</time>
      </trkpt>
      <trkpt lat="44.87176" lon="1.23851">
        <ele>142.5728977</ele>
        <time>2022-08-16T14:05:29Z</time>
      </trkpt>
      <trkpt lat="44.8718" lon="1.23842">
        <ele>143.233366</ele>
        <time>2022-08-16T14:05:31Z</time>
      </trkpt>
      <trkpt lat="44.87184" lon="1.23834">
        <ele>143.9272259</ele>
        <time>2022-08-16T14:05:33Z</time>
      </trkpt>
      <trkpt lat="44.87188" lon="1.23824">
        <ele>143.9774126</ele>
        <time>2022-08-16T14:05:35Z</time>
      </trkpt>
      <trkpt lat="44.87191" lon="1.23815">
        <ele>144.855584</ele>
        <time>2022-08-16T14:05:37Z</time>
      </trkpt>
      <trkpt lat="44.87194" lon="1.23808">
        <ele>145.1640372</ele>
        <time>2022-08-16T14:05:39Z</time>
      </trkpt>
      <trkpt lat="44.87198" lon="1.23799">
        <ele>144.4530072</ele>
        <time>2022-08-16T14:05:41Z</time>
      </trkpt>
      <trkpt lat="44.87201" lon="1.23791">
        <ele>145.1424489</ele>
        <time>2022-08-16T14:05:43Z</time>
      </trkpt>
      <trkpt lat="44.87205" lon="1.23782">
        <ele>144.7060405</ele>
        <time>2022-08-16T14:05:45Z</time>
      </trkpt>
      <trkpt lat="44.87208" lon="1.23773">
        <ele>145.1711131</ele>
        <time>2022-08-16T14:05:47Z</time>
      </trkpt>
      <trkpt lat="44.87211" lon="1.23764">
        <ele>145.2851976</ele>
        <time>2022-08-16T14:05:49Z</time>
      </trkpt>
      <trkpt lat="44.87215" lon="1.23757">
        <ele>145.676611</ele>
        <time>2022-08-16T14:05:51Z</time>
      </trkpt>
      <trkpt lat="44.87219" lon="1.23748">
        <ele>145.3943779</ele>
        <time>2022-08-16T14:05:53Z</time>
      </trkpt>
      <trkpt lat="44.87222" lon="1.23739">
        <ele>145.4129913</ele>
        <time>2022-08-16T14:05:55Z</time>
      </trkpt>
      <trkpt lat="44.87225" lon="1.23731">
        <ele>146.0679777</ele>
        <time>2022-08-16T14:05:57Z</time>
      </trkpt>
      <trkpt lat="44.87229" lon="1.23722">
        <ele>147.0209369</ele>
        <time>2022-08-16T14:05:59Z</time>
      </trkpt>
      <trkpt lat="44.87232" lon="1.23714">
        <ele>147.7540051</ele>
        <time>2022-08-16T14:06:01Z</time>
      </trkpt>
      <trkpt lat="44.87235" lon="1.23707">
        <ele>147.3620294</ele>
        <time>2022-08-16T14:06:03Z</time>
      </trkpt>
      <trkpt lat="44.87238" lon="1.23698">
        <ele>147.6838046</ele>
        <time>2022-08-16T14:06:05Z</time>
      </trkpt>
      <trkpt lat="44.87242" lon="1.2369">
        <ele>147.3752963</ele>
        <time>2022-08-16T14:06:07Z</time>
      </trkpt>
      <trkpt lat="44.87246" lon="1.23682">
        <ele>147.3382778</ele>
        <time>2022-08-16T14:06:09Z</time>
      </trkpt>
      <trkpt lat="44.8725" lon="1.23674">
        <ele>147.9787391</ele>
        <time>2022-08-16T14:06:11Z</time>
      </trkpt>
      <trkpt lat="44.87254" lon="1.23666">
        <ele>147.4479187</ele>
        <time>2022-08-16T14:06:13Z</time>
      </trkpt>
      <trkpt lat="44.87257" lon="1.23658">
        <ele>147.7591235</ele>
        <time>2022-08-16T14:06:15Z</time>
      </trkpt>
      <trkpt lat="44.87261" lon="1.23649">
        <ele>148.5502286</ele>
        <time>2022-08-16T14:06:17Z</time>
      </trkpt>
      <trkpt lat="44.87265" lon="1.2364">
        <ele>147.7399891</ele>
        <time>2022-08-16T14:06:19Z</time>
      </trkpt>
      <trkpt lat="44.87269" lon="1.23631">
        <ele>147.9897907</ele>
        <time>2022-08-16T14:06:21Z</time>
      </trkpt>
      <trkpt lat="44.87273" lon="1.23623">
        <ele>147.8330202</ele>
        <time>2022-08-16T14:06:23Z</time>
      </trkpt>
      <trkpt lat="44.87277" lon="1.23614">
        <ele>147.9156877</ele>
        <time>2022-08-16T14:06:25Z</time>
      </trkpt>
      <trkpt lat="44.87281" lon="1.23605">
        <ele>147.6513701</ele>
        <time>2022-08-16T14:06:27Z</time>
      </trkpt>
      <trkpt lat="44.87284" lon="1.23595">
        <ele>148.5874996</ele>
        <time>2022-08-16T14:06:29Z</time>
      </trkpt>
      <trkpt lat="44.87288" lon="1.23587">
        <ele>148.6594231</ele>
        <time>2022-08-16T14:06:31Z</time>
      </trkpt>
      <trkpt lat="44.87292" lon="1.23578">
        <ele>149.3359399</ele>
        <time>2022-08-16T14:06:33Z</time>
      </trkpt>
      <trkpt lat="44.87295" lon="1.23569">
        <ele>149.2332765</ele>
        <time>2022-08-16T14:06:35Z</time>
      </trkpt>
      <trkpt lat="44.873" lon="1.23561">
        <ele>148.9760506</ele>
        <time>2022-08-16T14:06:37Z</time>
      </trkpt>
      <trkpt lat="44.87304" lon="1.23553">
        <ele>148.3895696</ele>
        <time>2022-08-16T14:06:39Z</time>
      </trkpt>
      <trkpt lat="44.87308" lon="1.23544">
        <ele>149.2623749</ele>
        <time>2022-08-16T14:06:41Z</time>
      </trkpt>
      <trkpt lat="44.87312" lon="1.23536">
        <ele>149.300046</ele>
        <time>2022-08-16T14:06:43Z</time>
      </trkpt>
      <trkpt lat="44.87315" lon="1.23528">
        <ele>149.332405</ele>
        <time>2022-08-16T14:06:45Z</time>
      </trkpt>
      <trkpt lat="44.87319" lon="1.23518">
        <ele>149.1237584</ele>
        <time>2022-08-16T14:06:47Z</time>
      </trkpt>
      <trkpt lat="44.87323" lon="1.23509">
        <ele>150.0162723</ele>
        <time>2022-08-16T14:06:49Z</time>
      </trkpt>
      <trkpt lat="44.87326" lon="1.235">
        <ele>150.1369837</ele>
        <time>2022-08-16T14:06:51Z</time>
      </trkpt>
      <trkpt lat="44.8733" lon="1.23491">
        <ele>150.2338877</ele>
        <time>2022-08-16T14:06:53Z</time>
      </trkpt>
      <trkpt lat="44.87334" lon="1.23481">
        <ele>150.485393</ele>
        <time>2022-08-16T14:06:55Z</time>
      </trkpt>
      <trkpt lat="44.87339" lon="1.23472">
        <ele>150.3482408</ele>
        <time>2022-08-16T14:06:57Z</time>
      </trkpt>
      <trkpt lat="44.87343" lon="1.23462">
        <ele>150.6705547</ele>
        <time>2022-08-16T14:06:59Z</time>
      </trkpt>
      <trkpt lat="44.87347" lon="1.23452">
        <ele>150.6151331</ele>
        <time>2022-08-16T14:07:01Z</time>
      </trkpt>
      <trkpt lat="44.87351" lon="1.23442">
        <ele>150.4476879</ele>
        <time>2022-08-16T14:07:03Z</time>
      </trkpt>
      <trkpt lat="44.87355" lon="1.23431">
        <ele>150.4853843</ele>
        <time>2022-08-16T14:07:05Z</time>
      </trkpt>
      <trkpt lat="44.8736" lon="1.23422">
        <ele>150.7587199</ele>
        <time>2022-08-16T14:07:07Z</time>
      </trkpt>
      <trkpt lat="44.87364" lon="1.23412">
        <ele>150.9504605</ele>
        <time>2022-08-16T14:07:09Z</time>
      </trkpt>
      <trkpt lat="44.87368" lon="1.23402">
        <ele>150.3421006</ele>
        <time>2022-08-16T14:07:11Z</time>
      </trkpt>
      <trkpt lat="44.87372" lon="1.23393">
        <ele>150.6443065</ele>
        <time>2022-08-16T14:07:13Z</time>
      </trkpt>
      <trkpt lat="44.87375" lon="1.23383">
        <ele>150.6330757</ele>
        <time>2022-08-16T14:07:15Z</time>
      </trkpt>
      <trkpt lat="44.8738" lon="1.23374">
        <ele>150.6231092</ele>
        <time>2022-08-16T14:07:17Z</time>
      </trkpt>
      <trkpt lat="44.87384" lon="1.23364">
        <ele>150.986296</ele>
        <time>2022-08-16T14:07:19Z</time>
      </trkpt>
      <trkpt lat="44.87388" lon="1.23353">
        <ele>151.2189938</ele>
        <time>2022-08-16T14:07:21Z</time>
      </trkpt>
      <trkpt lat="44.87392" lon="1.23345">
        <ele>150.3780846</ele>
        <time>2022-08-16T14:07:23Z</time>
      </trkpt>
      <trkpt lat="44.87396" lon="1.23336">
        <ele>150.3910391</ele>
        <time>2022-08-16T14:07:25Z</time>
      </trkpt>
      <trkpt lat="44.87399" lon="1.23327">
        <ele>149.8579978</ele>
        <time>2022-08-16T14:07:27Z</time>
      </trkpt>
      <trkpt lat="44.87403" lon="1.23318">
        <ele>149.6531042</ele>
        <time>2022-08-16T14:07:29Z</time>
      </trkpt>
      <trkpt lat="44.87406" lon="1.23309">
        <ele>150.6214518</ele>
        <time>2022-08-16T14:07:31Z</time>
      </trkpt>
      <trkpt lat="44.8741" lon="1.233">
        <ele>150.0109583</ele>
        <time>2022-08-16T14:07:33Z</time>
      </trkpt>
      <trkpt lat="44.87414" lon="1.2329">
        <ele>149.5058188</ele>
        <time>2022-08-16T14:07:35Z</time>
      </trkpt>
      <trkpt lat="44.87418" lon="1.23281">
        <ele>149.4793459</ele>
        <time>2022-08-16T14:07:37Z</time>
      </trkpt>
      <trkpt lat="44.87421" lon="1.2327">
        <ele>149.7825604</ele>
        <time>2022-08-16T14:07:39Z</time>
      </trkpt>
      <trkpt lat="44.87425" lon="1.23259">
        <ele>149.8702289</ele>
        <time>2022-08-16T14:07:41Z</time>
      </trkpt>
      <trkpt lat="44.87429" lon="1.23248">
        <ele>149.4920899</ele>
        <time>2022-08-16T14:07:43Z</time>
      </trkpt>
      <trkpt lat="44.87433" lon="1.23235">
        <ele>149.7416789</ele>
        <time>2022-08-16T14:07:45Z</time>
      </trkpt>
      <trkpt lat="44.87438" lon="1.23223">
        <ele>149.4939949</ele>
        <time>2022-08-16T14:07:47Z</time>
      </trkpt>
      <trkpt lat="44.87442" lon="1.2321">
        <ele>149.7938377</ele>
        <time>2022-08-16T14:07:49Z</time>
      </trkpt>
      <trkpt lat="44.87445" lon="1.23198">
        <ele>150.9517269</ele>
        <time>2022-08-16T14:07:51Z</time>
      </trkpt>
      <trkpt lat="44.87447" lon="1.23187">
        <ele>151.9949248</ele>
        <time>2022-08-16T14:07:53Z</time>
      </trkpt>
      <trkpt lat="44.8745" lon="1.2318">
        <ele>153.2890255</ele>
        <time>2022-08-16T14:07:55Z</time>
      </trkpt>
      <trkpt lat="44.87452" lon="1.23177">
        <ele>154.0255683</ele>
        <time>2022-08-16T14:07:57Z</time>
      </trkpt>
      <trkpt lat="44.87455" lon="1.23174">
        <ele>153.4853348</ele>
        <time>2022-08-16T14:07:59Z</time>
      </trkpt>
      <trkpt lat="44.87459" lon="1.23172">
        <ele>154.2223503</ele>
        <time>2022-08-16T14:08:01Z</time>
      </trkpt>
      <trkpt lat="44.87459" lon="1.23172">
        <ele>154.1346675</ele>
        <time>2022-08-16T14:08:03Z</time>
      </trkpt>
      <trkpt lat="44.87459" lon="1.23172">
        <ele>153.9737461</ele>
        <time>2022-08-16T14:08:05Z</time>
      </trkpt>
      <trkpt lat="44.87459" lon="1.23171">
        <ele>153.5412974</ele>
        <time>2022-08-16T14:08:07Z</time>
      </trkpt>
      <trkpt lat="44.87459" lon="1.2317">
        <ele>152.8704572</ele>
        <time>2022-08-16T14:08:09Z</time>
      </trkpt>
      <trkpt lat="44.87459" lon="1.2317">
        <ele>153.1768449</ele>
        <time>2022-08-16T14:08:11Z</time>
      </trkpt>
      <trkpt lat="44.8746" lon="1.23169">
        <ele>152.720453</ele>
        <time>2022-08-16T14:08:13Z</time>
      </trkpt>
      <trkpt lat="44.8746" lon="1.23168">
        <ele>152.8448128</ele>
        <time>2022-08-16T14:08:15Z</time>
      </trkpt>
      <trkpt lat="44.8746" lon="1.23168">
        <ele>152.7860248</ele>
        <time>2022-08-16T14:08:17Z</time>
      </trkpt>
      <trkpt lat="44.87459" lon="1.23168">
        <ele>152.4235016</ele>
        <time>2022-08-16T14:08:19Z</time>
      </trkpt>
      <trkpt lat="44.87459" lon="1.23167">
        <ele>152.2501736</ele>
        <time>2022-08-16T14:08:21Z</time>
      </trkpt>
      <trkpt lat="44.87458" lon="1.23167">
        <ele>152.2140271</ele>
        <time>2022-08-16T14:08:23Z</time>
      </trkpt>
      <trkpt lat="44.87458" lon="1.23166">
        <ele>151.7464121</ele>
        <time>2022-08-16T14:08:25Z</time>
      </trkpt>
      <trkpt lat="44.87458" lon="1.23166">
        <ele>151.5641372</ele>
        <time>2022-08-16T14:08:29Z</time>
      </trkpt>
      <trkpt lat="44.87458" lon="1.23165">
        <ele>151.5443814</ele>
        <time>2022-08-16T14:08:31Z</time>
      </trkpt>
      <trkpt lat="44.87459" lon="1.23164">
        <ele>151.7827141</ele>
        <time>2022-08-16T14:08:33Z</time>
      </trkpt>
      <trkpt lat="44.87461" lon="1.23164">
        <ele>151.724566</ele>
        <time>2022-08-16T14:08:35Z</time>
      </trkpt>
      <trkpt lat="44.87464" lon="1.23165">
        <ele>151.7863717</ele>
        <time>2022-08-16T14:08:37Z</time>
      </trkpt>
      <trkpt lat="44.87466" lon="1.23166">
        <ele>151.6739513</ele>
        <time>2022-08-16T14:08:39Z</time>
      </trkpt>
      <trkpt lat="44.87468" lon="1.23167">
        <ele>151.7648156</ele>
        <time>2022-08-16T14:08:41Z</time>
      </trkpt>
      <trkpt lat="44.87469" lon="1.23167">
        <ele>151.8026764</ele>
        <time>2022-08-16T14:08:43Z</time>
      </trkpt>
      <trkpt lat="44.8747" lon="1.23167">
        <ele>152.0129741</ele>
        <time>2022-08-16T14:08:45Z</time>
      </trkpt>
      <trkpt lat="44.8747" lon="1.23167">
        <ele>152.0129741</ele>
        <time>2022-08-16T14:08:49Z</time>
      </trkpt>
      <trkpt lat="44.8747" lon="1.23167">
        <ele>152.0129741</ele>
        <time>2022-08-16T14:08:53Z</time>
      </trkpt>
      <trkpt lat="44.87472" lon="1.23165">
        <ele>153.4957979</ele>
        <time>2022-08-16T14:08:55Z</time>
      </trkpt>
      <trkpt lat="44.87473" lon="1.23165">
        <ele>153.7074458</ele>
        <time>2022-08-16T14:08:57Z</time>
      </trkpt>
      <trkpt lat="44.87473" lon="1.23166">
        <ele>153.2386119</ele>
        <time>2022-08-16T14:08:59Z</time>
      </trkpt>
      <trkpt lat="44.87474" lon="1.23165">
        <ele>153.4736779</ele>
        <time>2022-08-16T14:09:01Z</time>
      </trkpt>
      <trkpt lat="44.87478" lon="1.23164">
        <ele>153.3820978</ele>
        <time>2022-08-16T14:09:03Z</time>
      </trkpt>
      <trkpt lat="44.87479" lon="1.23154">
        <ele>154.4339465</ele>
        <time>2022-08-16T14:09:05Z</time>
      </trkpt>
      <trkpt lat="44.8748" lon="1.23144">
        <ele>153.8776538</ele>
        <time>2022-08-16T14:09:07Z</time>
      </trkpt>
      <trkpt lat="44.8748" lon="1.23137">
        <ele>154.0941422</ele>
        <time>2022-08-16T14:09:09Z</time>
      </trkpt>
      <trkpt lat="44.8748" lon="1.23132">
        <ele>153.9917288</ele>
        <time>2022-08-16T14:09:11Z</time>
      </trkpt>
      <trkpt lat="44.8748" lon="1.2313">
        <ele>153.7590525</ele>
        <time>2022-08-16T14:09:13Z</time>
      </trkpt>
      <trkpt lat="44.8748" lon="1.23127">
        <ele>154.084824</ele>
        <time>2022-08-16T14:09:15Z</time>
      </trkpt>
      <trkpt lat="44.87481" lon="1.23121">
        <ele>154.0404647</ele>
        <time>2022-08-16T14:09:17Z</time>
      </trkpt>
      <trkpt lat="44.87481" lon="1.23113">
        <ele>154.3005832</ele>
        <time>2022-08-16T14:09:19Z</time>
      </trkpt>
      <trkpt lat="44.87482" lon="1.23105">
        <ele>154.4605283</ele>
        <time>2022-08-16T14:09:21Z</time>
      </trkpt>
      <trkpt lat="44.87482" lon="1.23096">
        <ele>154.4002717</ele>
        <time>2022-08-16T14:09:23Z</time>
      </trkpt>
      <trkpt lat="44.87483" lon="1.23087">
        <ele>154.7915246</ele>
        <time>2022-08-16T14:09:25Z</time>
      </trkpt>
      <trkpt lat="44.87484" lon="1.2308">
        <ele>155.0652398</ele>
        <time>2022-08-16T14:09:27Z</time>
      </trkpt>
      <trkpt lat="44.87486" lon="1.23076">
        <ele>155.2561831</ele>
        <time>2022-08-16T14:09:29Z</time>
      </trkpt>
      <trkpt lat="44.87488" lon="1.2307">
        <ele>155.7648371</ele>
        <time>2022-08-16T14:09:31Z</time>
      </trkpt>
      <trkpt lat="44.87494" lon="1.23064">
        <ele>155.5757661</ele>
        <time>2022-08-16T14:09:33Z</time>
      </trkpt>
      <trkpt lat="44.87498" lon="1.23055">
        <ele>155.8947126</ele>
        <time>2022-08-16T14:09:35Z</time>
      </trkpt>
      <trkpt lat="44.87501" lon="1.23045">
        <ele>156.126806</ele>
        <time>2022-08-16T14:09:37Z</time>
      </trkpt>
      <trkpt lat="44.87502" lon="1.23034">
        <ele>155.6937923</ele>
        <time>2022-08-16T14:09:39Z</time>
      </trkpt>
      <trkpt lat="44.87502" lon="1.23023">
        <ele>155.7226147</ele>
        <time>2022-08-16T14:09:41Z</time>
      </trkpt>
      <trkpt lat="44.87505" lon="1.23011">
        <ele>155.7126282</ele>
        <time>2022-08-16T14:09:43Z</time>
      </trkpt>
      <trkpt lat="44.87507" lon="1.23">
        <ele>156.0987575</ele>
        <time>2022-08-16T14:09:45Z</time>
      </trkpt>
      <trkpt lat="44.8751" lon="1.22989">
        <ele>156.117648</ele>
        <time>2022-08-16T14:09:47Z</time>
      </trkpt>
      <trkpt lat="44.87513" lon="1.22978">
        <ele>156.0014814</ele>
        <time>2022-08-16T14:09:49Z</time>
      </trkpt>
      <trkpt lat="44.87515" lon="1.22966">
        <ele>156.0487324</ele>
        <time>2022-08-16T14:09:51Z</time>
      </trkpt>
      <trkpt lat="44.87518" lon="1.22953">
        <ele>156.2528049</ele>
        <time>2022-08-16T14:09:53Z</time>
      </trkpt>
      <trkpt lat="44.87521" lon="1.22939">
        <ele>155.9786453</ele>
        <time>2022-08-16T14:09:55Z</time>
      </trkpt>
      <trkpt lat="44.87524" lon="1.22924">
        <ele>156.031866</ele>
        <time>2022-08-16T14:09:57Z</time>
      </trkpt>
      <trkpt lat="44.87526" lon="1.22908">
        <ele>155.2430552</ele>
        <time>2022-08-16T14:09:59Z</time>
      </trkpt>
      <trkpt lat="44.87527" lon="1.22892">
        <ele>154.9794748</ele>
        <time>2022-08-16T14:10:01Z</time>
      </trkpt>
      <trkpt lat="44.87528" lon="1.22875">
        <ele>154.3533495</ele>
        <time>2022-08-16T14:10:03Z</time>
      </trkpt>
      <trkpt lat="44.87528" lon="1.22858">
        <ele>154.4316553</ele>
        <time>2022-08-16T14:10:05Z</time>
      </trkpt>
      <trkpt lat="44.87529" lon="1.22842">
        <ele>154.0735652</ele>
        <time>2022-08-16T14:10:07Z</time>
      </trkpt>
      <trkpt lat="44.8753" lon="1.22824">
        <ele>153.8382101</ele>
        <time>2022-08-16T14:10:09Z</time>
      </trkpt>
      <trkpt lat="44.87531" lon="1.22807">
        <ele>153.1922955</ele>
        <time>2022-08-16T14:10:11Z</time>
      </trkpt>
      <trkpt lat="44.87532" lon="1.2279">
        <ele>153.2751148</ele>
        <time>2022-08-16T14:10:13Z</time>
      </trkpt>
      <trkpt lat="44.87533" lon="1.22773">
        <ele>152.6624882</ele>
        <time>2022-08-16T14:10:15Z</time>
      </trkpt>
      <trkpt lat="44.87535" lon="1.22756">
        <ele>153.0033481</ele>
        <time>2022-08-16T14:10:17Z</time>
      </trkpt>
      <trkpt lat="44.87539" lon="1.22742">
        <ele>152.5820338</ele>
        <time>2022-08-16T14:10:19Z</time>
      </trkpt>
      <trkpt lat="44.87542" lon="1.22727">
        <ele>152.49963</ele>
        <time>2022-08-16T14:10:21Z</time>
      </trkpt>
      <trkpt lat="44.87546" lon="1.22714">
        <ele>152.1888756</ele>
        <time>2022-08-16T14:10:23Z</time>
      </trkpt>
      <trkpt lat="44.87552" lon="1.227">
        <ele>151.4791863</ele>
        <time>2022-08-16T14:10:25Z</time>
      </trkpt>
      <trkpt lat="44.87557" lon="1.22687">
        <ele>151.4897399</ele>
        <time>2022-08-16T14:10:27Z</time>
      </trkpt>
      <trkpt lat="44.87561" lon="1.22674">
        <ele>150.9995057</ele>
        <time>2022-08-16T14:10:29Z</time>
      </trkpt>
      <trkpt lat="44.87566" lon="1.22663">
        <ele>151.8056995</ele>
        <time>2022-08-16T14:10:31Z</time>
      </trkpt>
      <trkpt lat="44.87569" lon="1.22651">
        <ele>152.0211415</ele>
        <time>2022-08-16T14:10:33Z</time>
      </trkpt>
      <trkpt lat="44.87573" lon="1.22643">
        <ele>152.5786573</ele>
        <time>2022-08-16T14:10:35Z</time>
      </trkpt>
      <trkpt lat="44.87577" lon="1.22634">
        <ele>153.0470796</ele>
        <time>2022-08-16T14:10:37Z</time>
      </trkpt>
      <trkpt lat="44.87581" lon="1.22625">
        <ele>153.6512008</ele>
        <time>2022-08-16T14:10:39Z</time>
      </trkpt>
      <trkpt lat="44.87586" lon="1.22617">
        <ele>153.8793574</ele>
        <time>2022-08-16T14:10:41Z</time>
      </trkpt>
      <trkpt lat="44.87591" lon="1.2261">
        <ele>154.5112451</ele>
        <time>2022-08-16T14:10:43Z</time>
      </trkpt>
      <trkpt lat="44.87597" lon="1.22602">
        <ele>154.7242651</ele>
        <time>2022-08-16T14:10:45Z</time>
      </trkpt>
      <trkpt lat="44.87603" lon="1.22597">
        <ele>155.4660591</ele>
        <time>2022-08-16T14:10:47Z</time>
      </trkpt>
      <trkpt lat="44.87609" lon="1.22591">
        <ele>155.8763769</ele>
        <time>2022-08-16T14:10:49Z</time>
      </trkpt>
      <trkpt lat="44.87615" lon="1.22586">
        <ele>156.2522405</ele>
        <time>2022-08-16T14:10:51Z</time>
      </trkpt>
      <trkpt lat="44.8762" lon="1.22581">
        <ele>156.5296089</ele>
        <time>2022-08-16T14:10:53Z</time>
      </trkpt>
      <trkpt lat="44.87627" lon="1.22575">
        <ele>156.6594813</ele>
        <time>2022-08-16T14:10:55Z</time>
      </trkpt>
      <trkpt lat="44.87632" lon="1.22569">
        <ele>156.7757399</ele>
        <time>2022-08-16T14:10:57Z</time>
      </trkpt>
      <trkpt lat="44.87637" lon="1.22563">
        <ele>156.9632556</ele>
        <time>2022-08-16T14:10:59Z</time>
      </trkpt>
      <trkpt lat="44.87641" lon="1.22558">
        <ele>157.4084631</ele>
        <time>2022-08-16T14:11:01Z</time>
      </trkpt>
      <trkpt lat="44.87644" lon="1.22552">
        <ele>157.3733116</ele>
        <time>2022-08-16T14:11:03Z</time>
      </trkpt>
      <trkpt lat="44.87647" lon="1.22545">
        <ele>157.783274</ele>
        <time>2022-08-16T14:11:05Z</time>
      </trkpt>
      <trkpt lat="44.87649" lon="1.22538">
        <ele>158.3126285</ele>
        <time>2022-08-16T14:11:07Z</time>
      </trkpt>
      <trkpt lat="44.8765" lon="1.2253">
        <ele>158.7617373</ele>
        <time>2022-08-16T14:11:09Z</time>
      </trkpt>
      <trkpt lat="44.8765" lon="1.22523">
        <ele>159.07543</ele>
        <time>2022-08-16T14:11:11Z</time>
      </trkpt>
      <trkpt lat="44.8765" lon="1.22516">
        <ele>158.7317581</ele>
        <time>2022-08-16T14:11:13Z</time>
      </trkpt>
      <trkpt lat="44.8765" lon="1.2251">
        <ele>159.0302213</ele>
        <time>2022-08-16T14:11:15Z</time>
      </trkpt>
      <trkpt lat="44.87649" lon="1.22504">
        <ele>159.5951836</ele>
        <time>2022-08-16T14:11:17Z</time>
      </trkpt>
      <trkpt lat="44.87649" lon="1.22498">
        <ele>159.9089334</ele>
        <time>2022-08-16T14:11:19Z</time>
      </trkpt>
      <trkpt lat="44.87648" lon="1.22492">
        <ele>160.169489</ele>
        <time>2022-08-16T14:11:21Z</time>
      </trkpt>
      <trkpt lat="44.87648" lon="1.22486">
        <ele>160.5330683</ele>
        <time>2022-08-16T14:11:23Z</time>
      </trkpt>
      <trkpt lat="44.87648" lon="1.2248">
        <ele>160.3455344</ele>
        <time>2022-08-16T14:11:25Z</time>
      </trkpt>
      <trkpt lat="44.87648" lon="1.22473">
        <ele>160.1388295</ele>
        <time>2022-08-16T14:11:27Z</time>
      </trkpt>
      <trkpt lat="44.87647" lon="1.22466">
        <ele>159.9467168</ele>
        <time>2022-08-16T14:11:29Z</time>
      </trkpt>
      <trkpt lat="44.87646" lon="1.22459">
        <ele>159.9218064</ele>
        <time>2022-08-16T14:11:31Z</time>
      </trkpt>
      <trkpt lat="44.87646" lon="1.22453">
        <ele>159.6473256</ele>
        <time>2022-08-16T14:11:33Z</time>
      </trkpt>
      <trkpt lat="44.87646" lon="1.22446">
        <ele>160.0973231</ele>
        <time>2022-08-16T14:11:35Z</time>
      </trkpt>
      <trkpt lat="44.87645" lon="1.22439">
        <ele>160.7544952</ele>
        <time>2022-08-16T14:11:37Z</time>
      </trkpt>
      <trkpt lat="44.87645" lon="1.22432">
        <ele>161.7983599</ele>
        <time>2022-08-16T14:11:39Z</time>
      </trkpt>
      <trkpt lat="44.87644" lon="1.22426">
        <ele>162.0772651</ele>
        <time>2022-08-16T14:11:41Z</time>
      </trkpt>
      <trkpt lat="44.87644" lon="1.22419">
        <ele>162.679828</ele>
        <time>2022-08-16T14:11:43Z</time>
      </trkpt>
      <trkpt lat="44.87644" lon="1.22412">
        <ele>163.4620934</ele>
        <time>2022-08-16T14:11:45Z</time>
      </trkpt>
      <trkpt lat="44.87644" lon="1.22405">
        <ele>163.7578225</ele>
        <time>2022-08-16T14:11:47Z</time>
      </trkpt>
      <trkpt lat="44.87645" lon="1.22397">
        <ele>163.5215301</ele>
        <time>2022-08-16T14:11:49Z</time>
      </trkpt>
      <trkpt lat="44.87646" lon="1.22388">
        <ele>162.9464063</ele>
        <time>2022-08-16T14:11:51Z</time>
      </trkpt>
      <trkpt lat="44.87648" lon="1.2238">
        <ele>163.1033671</ele>
        <time>2022-08-16T14:11:53Z</time>
      </trkpt>
      <trkpt lat="44.87651" lon="1.22371">
        <ele>162.3813408</ele>
        <time>2022-08-16T14:11:55Z</time>
      </trkpt>
      <trkpt lat="44.87655" lon="1.22361">
        <ele>161.1573823</ele>
        <time>2022-08-16T14:11:57Z</time>
      </trkpt>
      <trkpt lat="44.8766" lon="1.2235">
        <ele>160.4123587</ele>
        <time>2022-08-16T14:11:59Z</time>
      </trkpt>
      <trkpt lat="44.87665" lon="1.22336">
        <ele>160.569976</ele>
        <time>2022-08-16T14:12:01Z</time>
      </trkpt>
      <trkpt lat="44.87671" lon="1.22323">
        <ele>158.8020391</ele>
        <time>2022-08-16T14:12:03Z</time>
      </trkpt>
      <trkpt lat="44.87677" lon="1.22308">
        <ele>158.2104195</ele>
        <time>2022-08-16T14:12:05Z</time>
      </trkpt>
      <trkpt lat="44.87682" lon="1.22291">
        <ele>158.155139</ele>
        <time>2022-08-16T14:12:07Z</time>
      </trkpt>
      <trkpt lat="44.87688" lon="1.22277">
        <ele>155.9158875</ele>
        <time>2022-08-16T14:12:09Z</time>
      </trkpt>
      <trkpt lat="44.87693" lon="1.2226">
        <ele>155.3974503</ele>
        <time>2022-08-16T14:12:11Z</time>
      </trkpt>
      <trkpt lat="44.87699" lon="1.22244">
        <ele>155.2715461</ele>
        <time>2022-08-16T14:12:13Z</time>
      </trkpt>
      <trkpt lat="44.87705" lon="1.22227">
        <ele>155.0267966</ele>
        <time>2022-08-16T14:12:15Z</time>
      </trkpt>
      <trkpt lat="44.87712" lon="1.2221">
        <ele>153.037626</ele>
        <time>2022-08-16T14:12:17Z</time>
      </trkpt>
      <trkpt lat="44.87718" lon="1.22192">
        <ele>152.0743058</ele>
        <time>2022-08-16T14:12:19Z</time>
      </trkpt>
      <trkpt lat="44.87724" lon="1.22173">
        <ele>150.4463355</ele>
        <time>2022-08-16T14:12:21Z</time>
      </trkpt>
      <trkpt lat="44.87731" lon="1.22153">
        <ele>149.3048748</ele>
        <time>2022-08-16T14:12:23Z</time>
      </trkpt>
      <trkpt lat="44.87735" lon="1.22135">
        <ele>148.9109799</ele>
        <time>2022-08-16T14:12:25Z</time>
      </trkpt>
      <trkpt lat="44.87739" lon="1.22115">
        <ele>147.8589511</ele>
        <time>2022-08-16T14:12:27Z</time>
      </trkpt>
      <trkpt lat="44.87743" lon="1.22094">
        <ele>147.6013145</ele>
        <time>2022-08-16T14:12:29Z</time>
      </trkpt>
      <trkpt lat="44.87748" lon="1.22073">
        <ele>146.6931119</ele>
        <time>2022-08-16T14:12:31Z</time>
      </trkpt>
      <trkpt lat="44.87751" lon="1.22053">
        <ele>147.1399134</ele>
        <time>2022-08-16T14:12:33Z</time>
      </trkpt>
      <trkpt lat="44.87753" lon="1.22036">
        <ele>146.3970437</ele>
        <time>2022-08-16T14:12:35Z</time>
      </trkpt>
      <trkpt lat="44.87753" lon="1.22019">
        <ele>145.9381324</ele>
        <time>2022-08-16T14:12:37Z</time>
      </trkpt>
      <trkpt lat="44.87749" lon="1.22006">
        <ele>146.2679853</ele>
        <time>2022-08-16T14:12:39Z</time>
      </trkpt>
      <trkpt lat="44.8775" lon="1.21994">
        <ele>145.8716928</ele>
        <time>2022-08-16T14:12:41Z</time>
      </trkpt>
      <trkpt lat="44.87753" lon="1.21985">
        <ele>145.7594509</ele>
        <time>2022-08-16T14:12:43Z</time>
      </trkpt>
      <trkpt lat="44.87756" lon="1.21975">
        <ele>145.1298748</ele>
        <time>2022-08-16T14:12:45Z</time>
      </trkpt>
      <trkpt lat="44.87758" lon="1.21965">
        <ele>145.1485196</ele>
        <time>2022-08-16T14:12:47Z</time>
      </trkpt>
      <trkpt lat="44.8776" lon="1.21961">
        <ele>145.0534531</ele>
        <time>2022-08-16T14:12:49Z</time>
      </trkpt>
      <trkpt lat="44.87761" lon="1.21959">
        <ele>145.1269177</ele>
        <time>2022-08-16T14:12:51Z</time>
      </trkpt>
      <trkpt lat="44.87761" lon="1.2196">
        <ele>144.6276919</ele>
        <time>2022-08-16T14:12:53Z</time>
      </trkpt>
      <trkpt lat="44.87761" lon="1.2196">
        <ele>143.7635208</ele>
        <time>2022-08-16T14:12:55Z</time>
      </trkpt>
      <trkpt lat="44.87761" lon="1.2196">
        <ele>143.3939603</ele>
        <time>2022-08-16T14:12:57Z</time>
      </trkpt>
      <trkpt lat="44.87761" lon="1.2196">
        <ele>143.3939603</ele>
        <time>2022-08-16T14:13:01Z</time>
      </trkpt>
      <trkpt lat="44.87761" lon="1.2196">
        <ele>140.5164973</ele>
        <time>2022-08-16T14:13:03Z</time>
      </trkpt>
      <trkpt lat="44.87763" lon="1.21954">
        <ele>141.2335191</ele>
        <time>2022-08-16T14:13:05Z</time>
      </trkpt>
      <trkpt lat="44.87765" lon="1.21946">
        <ele>141.9454845</ele>
        <time>2022-08-16T14:13:07Z</time>
      </trkpt>
      <trkpt lat="44.87768" lon="1.21936">
        <ele>141.263345</ele>
        <time>2022-08-16T14:13:09Z</time>
      </trkpt>
      <trkpt lat="44.87772" lon="1.21926">
        <ele>141.1084389</ele>
        <time>2022-08-16T14:13:11Z</time>
      </trkpt>
      <trkpt lat="44.87777" lon="1.21917">
        <ele>140.6334468</ele>
        <time>2022-08-16T14:13:13Z</time>
      </trkpt>
      <trkpt lat="44.87782" lon="1.21906">
        <ele>140.0902562</ele>
        <time>2022-08-16T14:13:15Z</time>
      </trkpt>
      <trkpt lat="44.87787" lon="1.21895">
        <ele>139.9557305</ele>
        <time>2022-08-16T14:13:17Z</time>
      </trkpt>
      <trkpt lat="44.87793" lon="1.21883">
        <ele>139.2009196</ele>
        <time>2022-08-16T14:13:19Z</time>
      </trkpt>
      <trkpt lat="44.87801" lon="1.21873">
        <ele>139.530413</ele>
        <time>2022-08-16T14:13:21Z</time>
      </trkpt>
      <trkpt lat="44.8781" lon="1.21864">
        <ele>138.6896828</ele>
        <time>2022-08-16T14:13:23Z</time>
      </trkpt>
      <trkpt lat="44.8782" lon="1.21854">
        <ele>138.8687467</ele>
        <time>2022-08-16T14:13:25Z</time>
      </trkpt>
      <trkpt lat="44.8783" lon="1.21847">
        <ele>138.4120709</ele>
        <time>2022-08-16T14:13:27Z</time>
      </trkpt>
      <trkpt lat="44.87843" lon="1.21841">
        <ele>138.0879503</ele>
        <time>2022-08-16T14:13:29Z</time>
      </trkpt>
      <trkpt lat="44.87855" lon="1.2184">
        <ele>137.0982347</ele>
        <time>2022-08-16T14:13:31Z</time>
      </trkpt>
      <trkpt lat="44.87868" lon="1.2184">
        <ele>138.1069783</ele>
        <time>2022-08-16T14:13:33Z</time>
      </trkpt>
      <trkpt lat="44.87881" lon="1.21842">
        <ele>137.4982699</ele>
        <time>2022-08-16T14:13:35Z</time>
      </trkpt>
      <trkpt lat="44.87893" lon="1.21847">
        <ele>137.2633901</ele>
        <time>2022-08-16T14:13:37Z</time>
      </trkpt>
      <trkpt lat="44.87905" lon="1.21854">
        <ele>136.636989</ele>
        <time>2022-08-16T14:13:39Z</time>
      </trkpt>
      <trkpt lat="44.87917" lon="1.21861">
        <ele>136.975804</ele>
        <time>2022-08-16T14:13:41Z</time>
      </trkpt>
      <trkpt lat="44.87929" lon="1.21867">
        <ele>136.0691056</ele>
        <time>2022-08-16T14:13:43Z</time>
      </trkpt>
      <trkpt lat="44.87942" lon="1.21873">
        <ele>136.4742152</ele>
        <time>2022-08-16T14:13:45Z</time>
      </trkpt>
      <trkpt lat="44.87954" lon="1.21879">
        <ele>135.4493124</ele>
        <time>2022-08-16T14:13:47Z</time>
      </trkpt>
      <trkpt lat="44.87968" lon="1.2188">
        <ele>136.0424336</ele>
        <time>2022-08-16T14:13:49Z</time>
      </trkpt>
      <trkpt lat="44.87981" lon="1.21876">
        <ele>135.4600965</ele>
        <time>2022-08-16T14:13:51Z</time>
      </trkpt>
      <trkpt lat="44.87994" lon="1.21871">
        <ele>135.2805963</ele>
        <time>2022-08-16T14:13:53Z</time>
      </trkpt>
      <trkpt lat="44.88007" lon="1.21863">
        <ele>134.7793123</ele>
        <time>2022-08-16T14:13:55Z</time>
      </trkpt>
      <trkpt lat="44.88021" lon="1.21856">
        <ele>135.0144565</ele>
        <time>2022-08-16T14:13:57Z</time>
      </trkpt>
      <trkpt lat="44.88034" lon="1.21852">
        <ele>133.7417663</ele>
        <time>2022-08-16T14:13:59Z</time>
      </trkpt>
      <trkpt lat="44.88048" lon="1.21844">
        <ele>134.5015723</ele>
        <time>2022-08-16T14:14:01Z</time>
      </trkpt>
      <trkpt lat="44.88061" lon="1.21837">
        <ele>133.3422083</ele>
        <time>2022-08-16T14:14:03Z</time>
      </trkpt>
      <trkpt lat="44.88075" lon="1.21832">
        <ele>132.4100214</ele>
        <time>2022-08-16T14:14:05Z</time>
      </trkpt>
      <trkpt lat="44.88089" lon="1.21825">
        <ele>132.0938759</ele>
        <time>2022-08-16T14:14:07Z</time>
      </trkpt>
      <trkpt lat="44.88103" lon="1.21819">
        <ele>132.2266424</ele>
        <time>2022-08-16T14:14:09Z</time>
      </trkpt>
      <trkpt lat="44.88115" lon="1.21809">
        <ele>131.7169402</ele>
        <time>2022-08-16T14:14:11Z</time>
      </trkpt>
      <trkpt lat="44.88128" lon="1.218">
        <ele>131.8765633</ele>
        <time>2022-08-16T14:14:13Z</time>
      </trkpt>
      <trkpt lat="44.88139" lon="1.21787">
        <ele>129.9185139</ele>
        <time>2022-08-16T14:14:15Z</time>
      </trkpt>
      <trkpt lat="44.8815" lon="1.21777">
        <ele>129.431677</ele>
        <time>2022-08-16T14:14:17Z</time>
      </trkpt>
      <trkpt lat="44.8816" lon="1.21766">
        <ele>128.080672</ele>
        <time>2022-08-16T14:14:19Z</time>
      </trkpt>
      <trkpt lat="44.8817" lon="1.21757">
        <ele>128.0783538</ele>
        <time>2022-08-16T14:14:21Z</time>
      </trkpt>
      <trkpt lat="44.88177" lon="1.21752">
        <ele>127.9232683</ele>
        <time>2022-08-16T14:14:23Z</time>
      </trkpt>
      <trkpt lat="44.8818" lon="1.21749">
        <ele>127.9944846</ele>
        <time>2022-08-16T14:14:25Z</time>
      </trkpt>
      <trkpt lat="44.88181" lon="1.21747">
        <ele>128.0445723</ele>
        <time>2022-08-16T14:14:27Z</time>
      </trkpt>
      <trkpt lat="44.88183" lon="1.21744">
        <ele>128.3190233</ele>
        <time>2022-08-16T14:14:29Z</time>
      </trkpt>
      <trkpt lat="44.88185" lon="1.21741">
        <ele>127.9635193</ele>
        <time>2022-08-16T14:14:31Z</time>
      </trkpt>
      <trkpt lat="44.88187" lon="1.21738">
        <ele>128.082318</ele>
        <time>2022-08-16T14:14:33Z</time>
      </trkpt>
      <trkpt lat="44.88191" lon="1.21736">
        <ele>128.1109991</ele>
        <time>2022-08-16T14:14:35Z</time>
      </trkpt>
      <trkpt lat="44.88196" lon="1.21737">
        <ele>127.7800576</ele>
        <time>2022-08-16T14:14:37Z</time>
      </trkpt>
      <trkpt lat="44.882" lon="1.21739">
        <ele>128.2653416</ele>
        <time>2022-08-16T14:14:39Z</time>
      </trkpt>
      <trkpt lat="44.88204" lon="1.2174">
        <ele>128.7683338</ele>
        <time>2022-08-16T14:14:41Z</time>
      </trkpt>
      <trkpt lat="44.88208" lon="1.21741">
        <ele>128.7199762</ele>
        <time>2022-08-16T14:14:43Z</time>
      </trkpt>
      <trkpt lat="44.88212" lon="1.21743">
        <ele>129.2456992</ele>
        <time>2022-08-16T14:14:45Z</time>
      </trkpt>
      <trkpt lat="44.88217" lon="1.21744">
        <ele>129.4925664</ele>
        <time>2022-08-16T14:14:47Z</time>
      </trkpt>
      <trkpt lat="44.88221" lon="1.21745">
        <ele>130.2885396</ele>
        <time>2022-08-16T14:14:49Z</time>
      </trkpt>
      <trkpt lat="44.88225" lon="1.21746">
        <ele>131.1093855</ele>
        <time>2022-08-16T14:14:51Z</time>
      </trkpt>
      <trkpt lat="44.8823" lon="1.21748">
        <ele>131.2429996</ele>
        <time>2022-08-16T14:14:53Z</time>
      </trkpt>
      <trkpt lat="44.88235" lon="1.2175">
        <ele>132.0793029</ele>
        <time>2022-08-16T14:14:55Z</time>
      </trkpt>
      <trkpt lat="44.8824" lon="1.21752">
        <ele>133.538982</ele>
        <time>2022-08-16T14:14:57Z</time>
      </trkpt>
      <trkpt lat="44.88247" lon="1.21754">
        <ele>133.2277053</ele>
        <time>2022-08-16T14:14:59Z</time>
      </trkpt>
      <trkpt lat="44.88255" lon="1.21755">
        <ele>133.8486855</ele>
        <time>2022-08-16T14:15:01Z</time>
      </trkpt>
      <trkpt lat="44.88262" lon="1.21757">
        <ele>134.0483041</ele>
        <time>2022-08-16T14:15:03Z</time>
      </trkpt>
      <trkpt lat="44.88268" lon="1.21759">
        <ele>133.8747025</ele>
        <time>2022-08-16T14:15:05Z</time>
      </trkpt>
      <trkpt lat="44.88274" lon="1.2176">
        <ele>133.8572074</ele>
        <time>2022-08-16T14:15:07Z</time>
      </trkpt>
      <trkpt lat="44.8828" lon="1.21763">
        <ele>133.6838612</ele>
        <time>2022-08-16T14:15:09Z</time>
      </trkpt>
      <trkpt lat="44.88287" lon="1.21765">
        <ele>134.1213248</ele>
        <time>2022-08-16T14:15:11Z</time>
      </trkpt>
      <trkpt lat="44.88292" lon="1.21767">
        <ele>133.2122761</ele>
        <time>2022-08-16T14:15:13Z</time>
      </trkpt>
      <trkpt lat="44.88297" lon="1.21769">
        <ele>134.0205648</ele>
        <time>2022-08-16T14:15:15Z</time>
      </trkpt>
      <trkpt lat="44.88302" lon="1.2177">
        <ele>133.7013183</ele>
        <time>2022-08-16T14:15:17Z</time>
      </trkpt>
      <trkpt lat="44.88306" lon="1.2177">
        <ele>133.185863</ele>
        <time>2022-08-16T14:15:19Z</time>
      </trkpt>
      <trkpt lat="44.88313" lon="1.2177">
        <ele>133.2361976</ele>
        <time>2022-08-16T14:15:21Z</time>
      </trkpt>
      <trkpt lat="44.8832" lon="1.21772">
        <ele>132.7802777</ele>
        <time>2022-08-16T14:15:23Z</time>
      </trkpt>
      <trkpt lat="44.88329" lon="1.21772">
        <ele>133.5287522</ele>
        <time>2022-08-16T14:15:25Z</time>
      </trkpt>
      <trkpt lat="44.88337" lon="1.21771">
        <ele>132.4048956</ele>
        <time>2022-08-16T14:15:27Z</time>
      </trkpt>
      <trkpt lat="44.88343" lon="1.2177">
        <ele>132.286392</ele>
        <time>2022-08-16T14:15:29Z</time>
      </trkpt>
      <trkpt lat="44.8835" lon="1.21769">
        <ele>132.0876357</ele>
        <time>2022-08-16T14:15:31Z</time>
      </trkpt>
      <trkpt lat="44.88357" lon="1.21767">
        <ele>133.1824398</ele>
        <time>2022-08-16T14:15:33Z</time>
      </trkpt>
      <trkpt lat="44.88365" lon="1.21764">
        <ele>133.8630474</ele>
        <time>2022-08-16T14:15:35Z</time>
      </trkpt>
      <trkpt lat="44.88373" lon="1.21762">
        <ele>133.8009432</ele>
        <time>2022-08-16T14:15:37Z</time>
      </trkpt>
      <trkpt lat="44.88381" lon="1.21759">
        <ele>136.4022057</ele>
        <time>2022-08-16T14:15:39Z</time>
      </trkpt>
      <trkpt lat="44.88388" lon="1.21758">
        <ele>137.3496713</ele>
        <time>2022-08-16T14:15:41Z</time>
      </trkpt>
      <trkpt lat="44.88393" lon="1.21757">
        <ele>138.1549032</ele>
        <time>2022-08-16T14:15:43Z</time>
      </trkpt>
      <trkpt lat="44.884" lon="1.21755">
        <ele>137.7581801</ele>
        <time>2022-08-16T14:15:45Z</time>
      </trkpt>
      <trkpt lat="44.88408" lon="1.21751">
        <ele>137.2197914</ele>
        <time>2022-08-16T14:15:47Z</time>
      </trkpt>
      <trkpt lat="44.88415" lon="1.21749">
        <ele>136.7011038</ele>
        <time>2022-08-16T14:15:49Z</time>
      </trkpt>
      <trkpt lat="44.88422" lon="1.21747">
        <ele>136.6903485</ele>
        <time>2022-08-16T14:15:51Z</time>
      </trkpt>
      <trkpt lat="44.88429" lon="1.21745">
        <ele>135.8661671</ele>
        <time>2022-08-16T14:15:53Z</time>
      </trkpt>
      <trkpt lat="44.88435" lon="1.21742">
        <ele>135.7357688</ele>
        <time>2022-08-16T14:15:55Z</time>
      </trkpt>
      <trkpt lat="44.88442" lon="1.2174">
        <ele>135.4275656</ele>
        <time>2022-08-16T14:15:57Z</time>
      </trkpt>
      <trkpt lat="44.88449" lon="1.21738">
        <ele>135.508125</ele>
        <time>2022-08-16T14:15:59Z</time>
      </trkpt>
      <trkpt lat="44.88456" lon="1.21737">
        <ele>135.045777</ele>
        <time>2022-08-16T14:16:01Z</time>
      </trkpt>
      <trkpt lat="44.88463" lon="1.21735">
        <ele>134.1304556</ele>
        <time>2022-08-16T14:16:03Z</time>
      </trkpt>
      <trkpt lat="44.8847" lon="1.21732">
        <ele>134.5002633</ele>
        <time>2022-08-16T14:16:05Z</time>
      </trkpt>
      <trkpt lat="44.88475" lon="1.2173">
        <ele>134.255864</ele>
        <time>2022-08-16T14:16:07Z</time>
      </trkpt>
      <trkpt lat="44.88479" lon="1.21729">
        <ele>133.5083442</ele>
        <time>2022-08-16T14:16:09Z</time>
      </trkpt>
      <trkpt lat="44.88487" lon="1.21727">
        <ele>134.2512536</ele>
        <time>2022-08-16T14:16:11Z</time>
      </trkpt>
      <trkpt lat="44.88494" lon="1.21725">
        <ele>135.0667082</ele>
        <time>2022-08-16T14:16:13Z</time>
      </trkpt>
      <trkpt lat="44.88497" lon="1.21723">
        <ele>135.8404382</ele>
        <time>2022-08-16T14:16:15Z</time>
      </trkpt>
      <trkpt lat="44.88506" lon="1.21723">
        <ele>135.8654537</ele>
        <time>2022-08-16T14:16:17Z</time>
      </trkpt>
      <trkpt lat="44.88513" lon="1.2172">
        <ele>134.9575409</ele>
        <time>2022-08-16T14:16:19Z</time>
      </trkpt>
      <trkpt lat="44.88518" lon="1.21719">
        <ele>135.8229692</ele>
        <time>2022-08-16T14:16:21Z</time>
      </trkpt>
      <trkpt lat="44.88527" lon="1.21717">
        <ele>136.2211823</ele>
        <time>2022-08-16T14:16:23Z</time>
      </trkpt>
      <trkpt lat="44.88533" lon="1.21715">
        <ele>136.6977449</ele>
        <time>2022-08-16T14:16:25Z</time>
      </trkpt>
      <trkpt lat="44.8854" lon="1.21713">
        <ele>136.9053251</ele>
        <time>2022-08-16T14:16:27Z</time>
      </trkpt>
      <trkpt lat="44.88546" lon="1.21711">
        <ele>136.7859386</ele>
        <time>2022-08-16T14:16:29Z</time>
      </trkpt>
      <trkpt lat="44.88553" lon="1.2171">
        <ele>137.6462133</ele>
        <time>2022-08-16T14:16:31Z</time>
      </trkpt>
      <trkpt lat="44.88559" lon="1.21708">
        <ele>137.9470447</ele>
        <time>2022-08-16T14:16:33Z</time>
      </trkpt>
      <trkpt lat="44.88563" lon="1.21705">
        <ele>137.4742212</ele>
        <time>2022-08-16T14:16:35Z</time>
      </trkpt>
      <trkpt lat="44.8857" lon="1.21704">
        <ele>138.0134921</ele>
        <time>2022-08-16T14:16:37Z</time>
      </trkpt>
      <trkpt lat="44.88577" lon="1.21701">
        <ele>137.3198819</ele>
        <time>2022-08-16T14:16:39Z</time>
      </trkpt>
      <trkpt lat="44.88582" lon="1.21698">
        <ele>138.3376929</ele>
        <time>2022-08-16T14:16:41Z</time>
      </trkpt>
      <trkpt lat="44.88587" lon="1.21697">
        <ele>138.8106236</ele>
        <time>2022-08-16T14:16:43Z</time>
      </trkpt>
      <trkpt lat="44.88594" lon="1.21695">
        <ele>138.3926911</ele>
        <time>2022-08-16T14:16:45Z</time>
      </trkpt>
      <trkpt lat="44.88601" lon="1.21693">
        <ele>138.8443764</ele>
        <time>2022-08-16T14:16:47Z</time>
      </trkpt>
      <trkpt lat="44.88607" lon="1.21691">
        <ele>137.4880513</ele>
        <time>2022-08-16T14:16:49Z</time>
      </trkpt>
      <trkpt lat="44.88611" lon="1.21691">
        <ele>137.3061704</ele>
        <time>2022-08-16T14:16:51Z</time>
      </trkpt>
      <trkpt lat="44.88616" lon="1.2169">
        <ele>137.4563657</ele>
        <time>2022-08-16T14:16:53Z</time>
      </trkpt>
      <trkpt lat="44.88623" lon="1.21687">
        <ele>137.8836731</ele>
        <time>2022-08-16T14:16:55Z</time>
      </trkpt>
      <trkpt lat="44.88628" lon="1.21687">
        <ele>139.2419651</ele>
        <time>2022-08-16T14:16:57Z</time>
      </trkpt>
      <trkpt lat="44.88635" lon="1.21684">
        <ele>139.7032467</ele>
        <time>2022-08-16T14:16:59Z</time>
      </trkpt>
      <trkpt lat="44.88641" lon="1.21684">
        <ele>140.1713665</ele>
        <time>2022-08-16T14:17:01Z</time>
      </trkpt>
      <trkpt lat="44.88647" lon="1.21681">
        <ele>139.8880653</ele>
        <time>2022-08-16T14:17:03Z</time>
      </trkpt>
      <trkpt lat="44.88653" lon="1.2168">
        <ele>140.1402399</ele>
        <time>2022-08-16T14:17:05Z</time>
      </trkpt>
      <trkpt lat="44.88659" lon="1.21679">
        <ele>140.699841</ele>
        <time>2022-08-16T14:17:07Z</time>
      </trkpt>
      <trkpt lat="44.88663" lon="1.21677">
        <ele>141.9388169</ele>
        <time>2022-08-16T14:17:09Z</time>
      </trkpt>
      <trkpt lat="44.88668" lon="1.21676">
        <ele>141.4851528</ele>
        <time>2022-08-16T14:17:11Z</time>
      </trkpt>
      <trkpt lat="44.88673" lon="1.21675">
        <ele>143.2411661</ele>
        <time>2022-08-16T14:17:13Z</time>
      </trkpt>
      <trkpt lat="44.88678" lon="1.21672">
        <ele>141.5237555</ele>
        <time>2022-08-16T14:17:15Z</time>
      </trkpt>
      <trkpt lat="44.88685" lon="1.2167">
        <ele>141.2514894</ele>
        <time>2022-08-16T14:17:17Z</time>
      </trkpt>
      <trkpt lat="44.88691" lon="1.21669">
        <ele>141.2861307</ele>
        <time>2022-08-16T14:17:19Z</time>
      </trkpt>
      <trkpt lat="44.88697" lon="1.21667">
        <ele>141.5324117</ele>
        <time>2022-08-16T14:17:21Z</time>
      </trkpt>
      <trkpt lat="44.88702" lon="1.21664">
        <ele>142.2876164</ele>
        <time>2022-08-16T14:17:23Z</time>
      </trkpt>
      <trkpt lat="44.88707" lon="1.21663">
        <ele>141.9708287</ele>
        <time>2022-08-16T14:17:25Z</time>
      </trkpt>
      <trkpt lat="44.88713" lon="1.21661">
        <ele>142.1211867</ele>
        <time>2022-08-16T14:17:27Z</time>
      </trkpt>
      <trkpt lat="44.88719" lon="1.21661">
        <ele>141.6962265</ele>
        <time>2022-08-16T14:17:29Z</time>
      </trkpt>
      <trkpt lat="44.88723" lon="1.21657">
        <ele>140.8794523</ele>
        <time>2022-08-16T14:17:31Z</time>
      </trkpt>
      <trkpt lat="44.88726" lon="1.21653">
        <ele>140.5993821</ele>
        <time>2022-08-16T14:17:33Z</time>
      </trkpt>
      <trkpt lat="44.88728" lon="1.2165">
        <ele>140.5261466</ele>
        <time>2022-08-16T14:17:35Z</time>
      </trkpt>
      <trkpt lat="44.88728" lon="1.21649">
        <ele>140.5481352</ele>
        <time>2022-08-16T14:17:37Z</time>
      </trkpt>
      <trkpt lat="44.88727" lon="1.2165">
        <ele>140.3273123</ele>
        <time>2022-08-16T14:17:39Z</time>
      </trkpt>
      <trkpt lat="44.88728" lon="1.21648">
        <ele>140.1138203</ele>
        <time>2022-08-16T14:17:41Z</time>
      </trkpt>
      <trkpt lat="44.88728" lon="1.21647">
        <ele>139.7473945</ele>
        <time>2022-08-16T14:17:43Z</time>
      </trkpt>
      <trkpt lat="44.8873" lon="1.21644">
        <ele>139.4492809</ele>
        <time>2022-08-16T14:17:45Z</time>
      </trkpt>
      <trkpt lat="44.88735" lon="1.21642">
        <ele>139.0252789</ele>
        <time>2022-08-16T14:17:47Z</time>
      </trkpt>
      <trkpt lat="44.88737" lon="1.2164">
        <ele>138.1920666</ele>
        <time>2022-08-16T14:17:49Z</time>
      </trkpt>
      <trkpt lat="44.88739" lon="1.21638">
        <ele>138.6966977</ele>
        <time>2022-08-16T14:17:51Z</time>
      </trkpt>
      <trkpt lat="44.8874" lon="1.21638">
        <ele>137.9356516</ele>
        <time>2022-08-16T14:17:53Z</time>
      </trkpt>
      <trkpt lat="44.88741" lon="1.21638">
        <ele>137.424189</ele>
        <time>2022-08-16T14:17:55Z</time>
      </trkpt>
      <trkpt lat="44.88742" lon="1.21638">
        <ele>137.0446129</ele>
        <time>2022-08-16T14:17:57Z</time>
      </trkpt>
      <trkpt lat="44.88742" lon="1.21637">
        <ele>137.0845059</ele>
        <time>2022-08-16T14:17:59Z</time>
      </trkpt>
      <trkpt lat="44.88742" lon="1.21638">
        <ele>137.1445998</ele>
        <time>2022-08-16T14:18:01Z</time>
      </trkpt>
      <trkpt lat="44.88743" lon="1.21637">
        <ele>135.5367615</ele>
        <time>2022-08-16T14:18:03Z</time>
      </trkpt>
      <trkpt lat="44.88743" lon="1.21638">
        <ele>135.6079341</ele>
        <time>2022-08-16T14:18:05Z</time>
      </trkpt>
      <trkpt lat="44.88743" lon="1.21638">
        <ele>135.7949896</ele>
        <time>2022-08-16T14:18:07Z</time>
      </trkpt>
      <trkpt lat="44.88743" lon="1.21638">
        <ele>135.7949896</ele>
        <time>2022-08-16T14:18:11Z</time>
      </trkpt>
      <trkpt lat="44.88742" lon="1.21638">
        <ele>138.0099375</ele>
        <time>2022-08-16T14:18:13Z</time>
      </trkpt>
      <trkpt lat="44.88742" lon="1.21639">
        <ele>138.75094</ele>
        <time>2022-08-16T14:18:17Z</time>
      </trkpt>
      <trkpt lat="44.88743" lon="1.21638">
        <ele>138.4908934</ele>
        <time>2022-08-16T14:18:19Z</time>
      </trkpt>
      <trkpt lat="44.88753" lon="1.21613">
        <ele>142.387268</ele>
        <time>2022-08-16T15:36:03Z</time>
      </trkpt>
      <trkpt lat="44.88743" lon="1.21608">
        <ele>161.1993408</ele>
        <time>2022-08-16T15:36:04Z</time>
      </trkpt>
      <trkpt lat="44.88753" lon="1.21624">
        <ele>137.0463715</ele>
        <time>2022-08-16T15:36:07Z</time>
      </trkpt>
      <trkpt lat="44.88753" lon="1.21624">
        <ele>137.0463715</ele>
        <time>2022-08-16T15:36:11Z</time>
      </trkpt>
      <trkpt lat="44.88748" lon="1.21627">
        <ele>132.9881859</ele>
        <time>2022-08-16T15:36:13Z</time>
      </trkpt>
      <trkpt lat="44.88748" lon="1.21631">
        <ele>131.141819</ele>
        <time>2022-08-16T15:36:15Z</time>
      </trkpt>
      <trkpt lat="44.88748" lon="1.21633">
        <ele>130.2177467</ele>
        <time>2022-08-16T15:36:17Z</time>
      </trkpt>
      <trkpt lat="44.88748" lon="1.21633">
        <ele>130.0889626</ele>
        <time>2022-08-16T15:36:19Z</time>
      </trkpt>
      <trkpt lat="44.88747" lon="1.21633">
        <ele>130.403904</ele>
        <time>2022-08-16T15:36:21Z</time>
      </trkpt>
      <trkpt lat="44.88747" lon="1.21633">
        <ele>130.6474953</ele>
        <time>2022-08-16T15:36:23Z</time>
      </trkpt>
      <trkpt lat="44.88742" lon="1.21626">
        <ele>136.1770647</ele>
        <time>2022-08-16T15:36:25Z</time>
      </trkpt>
      <trkpt lat="44.88742" lon="1.21627">
        <ele>135.7070658</ele>
        <time>2022-08-16T15:36:27Z</time>
      </trkpt>
      <trkpt lat="44.88742" lon="1.21628">
        <ele>136.4395756</ele>
        <time>2022-08-16T15:36:29Z</time>
      </trkpt>
      <trkpt lat="44.88742" lon="1.21627">
        <ele>137.3939722</ele>
        <time>2022-08-16T15:36:31Z</time>
      </trkpt>
      <trkpt lat="44.88741" lon="1.21627">
        <ele>138.2232249</ele>
        <time>2022-08-16T15:36:33Z</time>
      </trkpt>
      <trkpt lat="44.88741" lon="1.21628">
        <ele>137.6026598</ele>
        <time>2022-08-16T15:36:35Z</time>
      </trkpt>
      <trkpt lat="44.8874" lon="1.21631">
        <ele>137.6901472</ele>
        <time>2022-08-16T15:36:37Z</time>
      </trkpt>
      <trkpt lat="44.88739" lon="1.21632">
        <ele>137.6229937</ele>
        <time>2022-08-16T15:36:39Z</time>
      </trkpt>
      <trkpt lat="44.8874" lon="1.21632">
        <ele>138.4356297</ele>
        <time>2022-08-16T15:36:41Z</time>
      </trkpt>
      <trkpt lat="44.8874" lon="1.21631">
        <ele>139.1371625</ele>
        <time>2022-08-16T15:36:43Z</time>
      </trkpt>
      <trkpt lat="44.88741" lon="1.2163">
        <ele>139.1322956</ele>
        <time>2022-08-16T15:36:45Z</time>
      </trkpt>
      <trkpt lat="44.88741" lon="1.2163">
        <ele>139.4012107</ele>
        <time>2022-08-16T15:36:47Z</time>
      </trkpt>
      <trkpt lat="44.88741" lon="1.2163">
        <ele>140.1148873</ele>
        <time>2022-08-16T15:36:49Z</time>
      </trkpt>
      <trkpt lat="44.8874" lon="1.2163">
        <ele>140.8674959</ele>
        <time>2022-08-16T15:36:51Z</time>
      </trkpt>
      <trkpt lat="44.8874" lon="1.2163">
        <ele>141.672113</ele>
        <time>2022-08-16T15:36:53Z</time>
      </trkpt>
      <trkpt lat="44.88741" lon="1.21628">
        <ele>140.7009508</ele>
        <time>2022-08-16T15:36:55Z</time>
      </trkpt>
      <trkpt lat="44.88741" lon="1.21628">
        <ele>141.1245974</ele>
        <time>2022-08-16T15:36:57Z</time>
      </trkpt>
      <trkpt lat="44.8874" lon="1.21627">
        <ele>141.3725971</ele>
        <time>2022-08-16T15:36:59Z</time>
      </trkpt>
      <trkpt lat="44.88739" lon="1.21625">
        <ele>141.1278213</ele>
        <time>2022-08-16T15:37:01Z</time>
      </trkpt>
      <trkpt lat="44.88739" lon="1.21623">
        <ele>140.3541677</ele>
        <time>2022-08-16T15:37:03Z</time>
      </trkpt>
      <trkpt lat="44.8874" lon="1.2162">
        <ele>140.9252961</ele>
        <time>2022-08-16T15:37:05Z</time>
      </trkpt>
      <trkpt lat="44.8874" lon="1.21616">
        <ele>140.5174734</ele>
        <time>2022-08-16T15:37:07Z</time>
      </trkpt>
      <trkpt lat="44.88741" lon="1.21612">
        <ele>139.9677099</ele>
        <time>2022-08-16T15:37:09Z</time>
      </trkpt>
      <trkpt lat="44.88743" lon="1.21608">
        <ele>138.9263893</ele>
        <time>2022-08-16T15:37:11Z</time>
      </trkpt>
      <trkpt lat="44.88743" lon="1.21604">
        <ele>139.2899527</ele>
        <time>2022-08-16T15:37:13Z</time>
      </trkpt>
      <trkpt lat="44.88743" lon="1.21602">
        <ele>139.1966928</ele>
        <time>2022-08-16T15:37:15Z</time>
      </trkpt>
      <trkpt lat="44.88741" lon="1.21598">
        <ele>140.038903</ele>
        <time>2022-08-16T15:37:17Z</time>
      </trkpt>
      <trkpt lat="44.88738" lon="1.21597">
        <ele>141.1021525</ele>
        <time>2022-08-16T15:37:19Z</time>
      </trkpt>
      <trkpt lat="44.88738" lon="1.21592">
        <ele>141.1911204</ele>
        <time>2022-08-16T15:37:21Z</time>
      </trkpt>
      <trkpt lat="44.88741" lon="1.21589">
        <ele>140.8269929</ele>
        <time>2022-08-16T15:37:23Z</time>
      </trkpt>
      <trkpt lat="44.88745" lon="1.21586">
        <ele>141.495939</ele>
        <time>2022-08-16T15:37:25Z</time>
      </trkpt>
      <trkpt lat="44.88748" lon="1.21583">
        <ele>141.808269</ele>
        <time>2022-08-16T15:37:27Z</time>
      </trkpt>
      <trkpt lat="44.8875" lon="1.21583">
        <ele>141.8943848</ele>
        <time>2022-08-16T15:37:29Z</time>
      </trkpt>
      <trkpt lat="44.88752" lon="1.2158">
        <ele>142.2812564</ele>
        <time>2022-08-16T15:37:31Z</time>
      </trkpt>
      <trkpt lat="44.88755" lon="1.21578">
        <ele>142.3053398</ele>
        <time>2022-08-16T15:37:33Z</time>
      </trkpt>
      <trkpt lat="44.88758" lon="1.21575">
        <ele>142.4742836</ele>
        <time>2022-08-16T15:37:35Z</time>
      </trkpt>
      <trkpt lat="44.8876" lon="1.21571">
        <ele>142.8589808</ele>
        <time>2022-08-16T15:37:37Z</time>
      </trkpt>
      <trkpt lat="44.88762" lon="1.21569">
        <ele>143.2238365</ele>
        <time>2022-08-16T15:37:39Z</time>
      </trkpt>
      <trkpt lat="44.88764" lon="1.21564">
        <ele>143.1223443</ele>
        <time>2022-08-16T15:37:41Z</time>
      </trkpt>
      <trkpt lat="44.88766" lon="1.21561">
        <ele>143.7053576</ele>
        <time>2022-08-16T15:37:43Z</time>
      </trkpt>
      <trkpt lat="44.88769" lon="1.21558">
        <ele>144.1148248</ele>
        <time>2022-08-16T15:37:45Z</time>
      </trkpt>
      <trkpt lat="44.88772" lon="1.21556">
        <ele>143.4974001</ele>
        <time>2022-08-16T15:37:47Z</time>
      </trkpt>
      <trkpt lat="44.88775" lon="1.21553">
        <ele>144.051581</ele>
        <time>2022-08-16T15:37:49Z</time>
      </trkpt>
      <trkpt lat="44.88777" lon="1.21549">
        <ele>144.7393672</ele>
        <time>2022-08-16T15:37:51Z</time>
      </trkpt>
      <trkpt lat="44.88779" lon="1.21545">
        <ele>145.5738449</ele>
        <time>2022-08-16T15:37:53Z</time>
      </trkpt>
      <trkpt lat="44.88782" lon="1.21541">
        <ele>145.8057477</ele>
        <time>2022-08-16T15:37:55Z</time>
      </trkpt>
      <trkpt lat="44.88784" lon="1.21538">
        <ele>146.9122204</ele>
        <time>2022-08-16T15:37:57Z</time>
      </trkpt>
      <trkpt lat="44.88786" lon="1.21533">
        <ele>147.5325393</ele>
        <time>2022-08-16T15:37:59Z</time>
      </trkpt>
      <trkpt lat="44.88789" lon="1.21529">
        <ele>147.7374975</ele>
        <time>2022-08-16T15:38:01Z</time>
      </trkpt>
      <trkpt lat="44.88791" lon="1.21527">
        <ele>148.5329995</ele>
        <time>2022-08-16T15:38:03Z</time>
      </trkpt>
      <trkpt lat="44.88793" lon="1.21523">
        <ele>148.5452275</ele>
        <time>2022-08-16T15:38:05Z</time>
      </trkpt>
      <trkpt lat="44.88795" lon="1.21519">
        <ele>148.9536369</ele>
        <time>2022-08-16T15:38:07Z</time>
      </trkpt>
      <trkpt lat="44.88798" lon="1.21517">
        <ele>149.2818006</ele>
        <time>2022-08-16T15:38:09Z</time>
      </trkpt>
      <trkpt lat="44.888" lon="1.21513">
        <ele>149.8582266</ele>
        <time>2022-08-16T15:38:11Z</time>
      </trkpt>
      <trkpt lat="44.88802" lon="1.21508">
        <ele>149.8248936</ele>
        <time>2022-08-16T15:38:13Z</time>
      </trkpt>
      <trkpt lat="44.88803" lon="1.21503">
        <ele>150.8373902</ele>
        <time>2022-08-16T15:38:15Z</time>
      </trkpt>
      <trkpt lat="44.88805" lon="1.21497">
        <ele>152.0181149</ele>
        <time>2022-08-16T15:38:17Z</time>
      </trkpt>
      <trkpt lat="44.88806" lon="1.21492">
        <ele>152.2477862</ele>
        <time>2022-08-16T15:38:19Z</time>
      </trkpt>
      <trkpt lat="44.88808" lon="1.21489">
        <ele>152.7381931</ele>
        <time>2022-08-16T15:38:21Z</time>
      </trkpt>
      <trkpt lat="44.8881" lon="1.21484">
        <ele>152.2119615</ele>
        <time>2022-08-16T15:38:23Z</time>
      </trkpt>
      <trkpt lat="44.88811" lon="1.21479">
        <ele>152.7910443</ele>
        <time>2022-08-16T15:38:25Z</time>
      </trkpt>
      <trkpt lat="44.88813" lon="1.2148">
        <ele>153.0418024</ele>
        <time>2022-08-16T15:38:27Z</time>
      </trkpt>
      <trkpt lat="44.88814" lon="1.21478">
        <ele>153.2834998</ele>
        <time>2022-08-16T15:38:29Z</time>
      </trkpt>
      <trkpt lat="44.88814" lon="1.21477">
        <ele>153.2072844</ele>
        <time>2022-08-16T15:38:31Z</time>
      </trkpt>
      <trkpt lat="44.88814" lon="1.21476">
        <ele>153.2254631</ele>
        <time>2022-08-16T15:38:33Z</time>
      </trkpt>
      <trkpt lat="44.88814" lon="1.21477">
        <ele>153.2886476</ele>
        <time>2022-08-16T15:38:35Z</time>
      </trkpt>
      <trkpt lat="44.88814" lon="1.21476">
        <ele>153.6442781</ele>
        <time>2022-08-16T15:38:37Z</time>
      </trkpt>
      <trkpt lat="44.88813" lon="1.21476">
        <ele>154.1240136</ele>
        <time>2022-08-16T15:38:41Z</time>
      </trkpt>
      <trkpt lat="44.88812" lon="1.21475">
        <ele>152.879416</ele>
        <time>2022-08-16T15:38:43Z</time>
      </trkpt>
      <trkpt lat="44.88812" lon="1.21475">
        <ele>152.6773232</ele>
        <time>2022-08-16T15:38:45Z</time>
      </trkpt>
      <trkpt lat="44.88812" lon="1.21474">
        <ele>152.6221271</ele>
        <time>2022-08-16T15:38:47Z</time>
      </trkpt>
      <trkpt lat="44.88812" lon="1.21474">
        <ele>152.6221271</ele>
        <time>2022-08-16T15:38:51Z</time>
      </trkpt>
      <trkpt lat="44.88811" lon="1.21473">
        <ele>153.9733554</ele>
        <time>2022-08-16T15:38:53Z</time>
      </trkpt>
      <trkpt lat="44.88811" lon="1.21473">
        <ele>153.9733554</ele>
        <time>2022-08-16T15:38:57Z</time>
      </trkpt>
      <trkpt lat="44.88809" lon="1.21471">
        <ele>153.1269704</ele>
        <time>2022-08-16T15:38:59Z</time>
      </trkpt>
      <trkpt lat="44.88809" lon="1.21471">
        <ele>153.0751277</ele>
        <time>2022-08-16T15:39:01Z</time>
      </trkpt>
      <trkpt lat="44.88809" lon="1.2147">
        <ele>152.590122</ele>
        <time>2022-08-16T15:39:03Z</time>
      </trkpt>
      <trkpt lat="44.88809" lon="1.2147">
        <ele>152.590122</ele>
        <time>2022-08-16T15:39:07Z</time>
      </trkpt>
      <trkpt lat="44.88809" lon="1.2147">
        <ele>152.590122</ele>
        <time>2022-08-16T15:39:11Z</time>
      </trkpt>
      <trkpt lat="44.88809" lon="1.21471">
        <ele>152.8732268</ele>
        <time>2022-08-16T15:39:15Z</time>
      </trkpt>
      <trkpt lat="44.88809" lon="1.21471">
        <ele>152.8732268</ele>
        <time>2022-08-16T15:39:19Z</time>
      </trkpt>
      <trkpt lat="44.88809" lon="1.21471">
        <ele>152.8732268</ele>
        <time>2022-08-16T15:39:23Z</time>
      </trkpt>
      <trkpt lat="44.88809" lon="1.21471">
        <ele>152.8732268</ele>
        <time>2022-08-16T15:39:27Z</time>
      </trkpt>
      <trkpt lat="44.88809" lon="1.21471">
        <ele>152.8732268</ele>
        <time>2022-08-16T15:39:31Z</time>
      </trkpt>
      <trkpt lat="44.88809" lon="1.21471">
        <ele>152.8732268</ele>
        <time>2022-08-16T15:39:35Z</time>
      </trkpt>
      <trkpt lat="44.88809" lon="1.21471">
        <ele>152.8732268</ele>
        <time>2022-08-16T15:39:39Z</time>
      </trkpt>
      <trkpt lat="44.88809" lon="1.21469">
        <ele>150.2164283</ele>
        <time>2022-08-16T15:39:41Z</time>
      </trkpt>
      <trkpt lat="44.88809" lon="1.21469">
        <ele>150.105243</ele>
        <time>2022-08-16T15:39:43Z</time>
      </trkpt>
      <trkpt lat="44.8881" lon="1.21469">
        <ele>149.7277467</ele>
        <time>2022-08-16T15:39:45Z</time>
      </trkpt>
      <trkpt lat="44.8881" lon="1.21469">
        <ele>149.3126401</ele>
        <time>2022-08-16T15:39:47Z</time>
      </trkpt>
      <trkpt lat="44.88811" lon="1.21469">
        <ele>149.5199628</ele>
        <time>2022-08-16T15:39:49Z</time>
      </trkpt>
      <trkpt lat="44.88811" lon="1.21469">
        <ele>149.9292578</ele>
        <time>2022-08-16T15:39:51Z</time>
      </trkpt>
      <trkpt lat="44.88811" lon="1.2147">
        <ele>149.4468141</ele>
        <time>2022-08-16T15:39:53Z</time>
      </trkpt>
      <trkpt lat="44.88811" lon="1.2147">
        <ele>150.1655214</ele>
        <time>2022-08-16T15:39:55Z</time>
      </trkpt>
      <trkpt lat="44.88812" lon="1.21471">
        <ele>150.2998976</ele>
        <time>2022-08-16T15:39:57Z</time>
      </trkpt>
      <trkpt lat="44.88812" lon="1.21472">
        <ele>149.7182158</ele>
        <time>2022-08-16T15:39:59Z</time>
      </trkpt>
      <trkpt lat="44.88813" lon="1.21473">
        <ele>149.5028198</ele>
        <time>2022-08-16T15:40:01Z</time>
      </trkpt>
      <trkpt lat="44.88813" lon="1.2147">
        <ele>149.6975719</ele>
        <time>2022-08-16T15:40:03Z</time>
      </trkpt>
      <trkpt lat="44.88815" lon="1.21467">
        <ele>148.4088089</ele>
        <time>2022-08-16T15:40:05Z</time>
      </trkpt>
      <trkpt lat="44.88818" lon="1.21466">
        <ele>149.0636995</ele>
        <time>2022-08-16T15:40:07Z</time>
      </trkpt>
      <trkpt lat="44.8882" lon="1.21462">
        <ele>148.5871456</ele>
        <time>2022-08-16T15:40:09Z</time>
      </trkpt>
      <trkpt lat="44.88823" lon="1.2146">
        <ele>148.1964144</ele>
        <time>2022-08-16T15:40:11Z</time>
      </trkpt>
      <trkpt lat="44.88825" lon="1.21457">
        <ele>148.5410898</ele>
        <time>2022-08-16T15:40:13Z</time>
      </trkpt>
      <trkpt lat="44.88828" lon="1.21451">
        <ele>148.9386967</ele>
        <time>2022-08-16T15:40:15Z</time>
      </trkpt>
      <trkpt lat="44.88831" lon="1.21446">
        <ele>149.7161437</ele>
        <time>2022-08-16T15:40:17Z</time>
      </trkpt>
      <trkpt lat="44.88834" lon="1.21442">
        <ele>151.2397056</ele>
        <time>2022-08-16T15:40:19Z</time>
      </trkpt>
      <trkpt lat="44.88837" lon="1.21439">
        <ele>151.2322377</ele>
        <time>2022-08-16T15:40:21Z</time>
      </trkpt>
      <trkpt lat="44.8884" lon="1.21435">
        <ele>151.9087927</ele>
        <time>2022-08-16T15:40:23Z</time>
      </trkpt>
      <trkpt lat="44.88843" lon="1.21433">
        <ele>152.5007981</ele>
        <time>2022-08-16T15:40:25Z</time>
      </trkpt>
      <trkpt lat="44.88846" lon="1.21433">
        <ele>152.2198348</ele>
        <time>2022-08-16T15:40:27Z</time>
      </trkpt>
      <trkpt lat="44.88849" lon="1.2143">
        <ele>152.8694758</ele>
        <time>2022-08-16T15:40:29Z</time>
      </trkpt>
      <trkpt lat="44.88852" lon="1.21429">
        <ele>153.3759805</ele>
        <time>2022-08-16T15:40:31Z</time>
      </trkpt>
      <trkpt lat="44.88856" lon="1.21428">
        <ele>154.7399602</ele>
        <time>2022-08-16T15:40:33Z</time>
      </trkpt>
      <trkpt lat="44.88859" lon="1.21429">
        <ele>154.2122884</ele>
        <time>2022-08-16T15:40:35Z</time>
      </trkpt>
      <trkpt lat="44.88862" lon="1.2143">
        <ele>154.0127691</ele>
        <time>2022-08-16T15:40:37Z</time>
      </trkpt>
      <trkpt lat="44.88864" lon="1.21434">
        <ele>153.8607168</ele>
        <time>2022-08-16T15:40:39Z</time>
      </trkpt>
      <trkpt lat="44.88867" lon="1.21436">
        <ele>153.2935672</ele>
        <time>2022-08-16T15:40:41Z</time>
      </trkpt>
      <trkpt lat="44.8887" lon="1.21436">
        <ele>153.3463188</ele>
        <time>2022-08-16T15:40:43Z</time>
      </trkpt>
      <trkpt lat="44.88874" lon="1.21433">
        <ele>153.0190422</ele>
        <time>2022-08-16T15:40:45Z</time>
      </trkpt>
      <trkpt lat="44.88875" lon="1.21429">
        <ele>151.6105928</ele>
        <time>2022-08-16T15:40:47Z</time>
      </trkpt>
      <trkpt lat="44.88877" lon="1.21427">
        <ele>151.029388</ele>
        <time>2022-08-16T15:40:49Z</time>
      </trkpt>
      <trkpt lat="44.88879" lon="1.21425">
        <ele>151.785077</ele>
        <time>2022-08-16T15:40:51Z</time>
      </trkpt>
      <trkpt lat="44.8888" lon="1.21424">
        <ele>153.2121606</ele>
        <time>2022-08-16T15:40:53Z</time>
      </trkpt>
      <trkpt lat="44.8888" lon="1.21424">
        <ele>152.6091906</ele>
        <time>2022-08-16T15:40:55Z</time>
      </trkpt>
      <trkpt lat="44.88881" lon="1.21422">
        <ele>152.8909668</ele>
        <time>2022-08-16T15:40:57Z</time>
      </trkpt>
      <trkpt lat="44.88883" lon="1.21421">
        <ele>152.8510885</ele>
        <time>2022-08-16T15:40:59Z</time>
      </trkpt>
      <trkpt lat="44.88882" lon="1.21421">
        <ele>153.1658254</ele>
        <time>2022-08-16T15:41:01Z</time>
      </trkpt>
      <trkpt lat="44.88882" lon="1.21421">
        <ele>153.9837527</ele>
        <time>2022-08-16T15:41:03Z</time>
      </trkpt>
      <trkpt lat="44.88882" lon="1.21421">
        <ele>153.9837527</ele>
        <time>2022-08-16T15:41:07Z</time>
      </trkpt>
      <trkpt lat="44.8888" lon="1.21421">
        <ele>154.5757935</ele>
        <time>2022-08-16T15:41:09Z</time>
      </trkpt>
      <trkpt lat="44.88882" lon="1.2142">
        <ele>154.9004506</ele>
        <time>2022-08-16T15:41:11Z</time>
      </trkpt>
      <trkpt lat="44.88883" lon="1.2142">
        <ele>155.5103602</ele>
        <time>2022-08-16T15:41:13Z</time>
      </trkpt>
      <trkpt lat="44.88883" lon="1.2142">
        <ele>155.0071127</ele>
        <time>2022-08-16T15:41:15Z</time>
      </trkpt>
      <trkpt lat="44.88882" lon="1.21421">
        <ele>154.5240543</ele>
        <time>2022-08-16T15:41:17Z</time>
      </trkpt>
      <trkpt lat="44.88882" lon="1.21421">
        <ele>154.6023819</ele>
        <time>2022-08-16T15:41:19Z</time>
      </trkpt>
      <trkpt lat="44.88881" lon="1.2142">
        <ele>154.0339517</ele>
        <time>2022-08-16T15:41:21Z</time>
      </trkpt>
      <trkpt lat="44.88881" lon="1.21417">
        <ele>154.1704026</ele>
        <time>2022-08-16T15:41:23Z</time>
      </trkpt>
      <trkpt lat="44.88881" lon="1.21411">
        <ele>152.7654027</ele>
        <time>2022-08-16T15:41:25Z</time>
      </trkpt>
      <trkpt lat="44.88883" lon="1.21406">
        <ele>153.4669255</ele>
        <time>2022-08-16T15:41:27Z</time>
      </trkpt>
      <trkpt lat="44.88885" lon="1.21401">
        <ele>153.8020675</ele>
        <time>2022-08-16T15:41:29Z</time>
      </trkpt>
      <trkpt lat="44.88885" lon="1.21396">
        <ele>153.3448074</ele>
        <time>2022-08-16T15:41:31Z</time>
      </trkpt>
      <trkpt lat="44.88886" lon="1.21394">
        <ele>153.4885795</ele>
        <time>2022-08-16T15:41:33Z</time>
      </trkpt>
      <trkpt lat="44.88887" lon="1.21386">
        <ele>154.0715358</ele>
        <time>2022-08-16T15:41:35Z</time>
      </trkpt>
      <trkpt lat="44.88888" lon="1.2138">
        <ele>153.1808825</ele>
        <time>2022-08-16T15:41:37Z</time>
      </trkpt>
      <trkpt lat="44.88887" lon="1.21371">
        <ele>153.896371</ele>
        <time>2022-08-16T15:41:39Z</time>
      </trkpt>
      <trkpt lat="44.88886" lon="1.21364">
        <ele>154.2701216</ele>
        <time>2022-08-16T15:41:41Z</time>
      </trkpt>
      <trkpt lat="44.88886" lon="1.21359">
        <ele>153.2955634</ele>
        <time>2022-08-16T15:41:43Z</time>
      </trkpt>
      <trkpt lat="44.88887" lon="1.21355">
        <ele>154.1264568</ele>
        <time>2022-08-16T15:41:45Z</time>
      </trkpt>
      <trkpt lat="44.88888" lon="1.21349">
        <ele>154.3898436</ele>
        <time>2022-08-16T15:41:47Z</time>
      </trkpt>
      <trkpt lat="44.88888" lon="1.21345">
        <ele>153.7052294</ele>
        <time>2022-08-16T15:41:49Z</time>
      </trkpt>
      <trkpt lat="44.88889" lon="1.21337">
        <ele>154.332064</ele>
        <time>2022-08-16T15:41:51Z</time>
      </trkpt>
      <trkpt lat="44.88889" lon="1.21332">
        <ele>153.9230134</ele>
        <time>2022-08-16T15:41:53Z</time>
      </trkpt>
      <trkpt lat="44.8889" lon="1.21327">
        <ele>154.3200202</ele>
        <time>2022-08-16T15:41:55Z</time>
      </trkpt>
      <trkpt lat="44.8889" lon="1.21321">
        <ele>154.4057075</ele>
        <time>2022-08-16T15:41:57Z</time>
      </trkpt>
      <trkpt lat="44.88893" lon="1.21317">
        <ele>154.662397</ele>
        <time>2022-08-16T15:41:59Z</time>
      </trkpt>
      <trkpt lat="44.88895" lon="1.21313">
        <ele>155.5445589</ele>
        <time>2022-08-16T15:42:01Z</time>
      </trkpt>
      <trkpt lat="44.88896" lon="1.21307">
        <ele>155.1121831</ele>
        <time>2022-08-16T15:42:03Z</time>
      </trkpt>
      <trkpt lat="44.88897" lon="1.21302">
        <ele>155.8033903</ele>
        <time>2022-08-16T15:42:05Z</time>
      </trkpt>
      <trkpt lat="44.88895" lon="1.21297">
        <ele>156.442932</ele>
        <time>2022-08-16T15:42:07Z</time>
      </trkpt>
      <trkpt lat="44.88895" lon="1.21293">
        <ele>156.0352527</ele>
        <time>2022-08-16T15:42:09Z</time>
      </trkpt>
      <trkpt lat="44.88894" lon="1.21288">
        <ele>156.4620528</ele>
        <time>2022-08-16T15:42:11Z</time>
      </trkpt>
      <trkpt lat="44.88894" lon="1.21285">
        <ele>157.3775561</ele>
        <time>2022-08-16T15:42:13Z</time>
      </trkpt>
      <trkpt lat="44.88896" lon="1.21281">
        <ele>156.5176068</ele>
        <time>2022-08-16T15:42:15Z</time>
      </trkpt>
      <trkpt lat="44.88899" lon="1.21277">
        <ele>157.6421202</ele>
        <time>2022-08-16T15:42:17Z</time>
      </trkpt>
      <trkpt lat="44.88899" lon="1.21273">
        <ele>157.9417485</ele>
        <time>2022-08-16T15:42:19Z</time>
      </trkpt>
      <trkpt lat="44.88903" lon="1.21278">
        <ele>157.6356178</ele>
        <time>2022-08-16T15:42:21Z</time>
      </trkpt>
      <trkpt lat="44.88909" lon="1.21282">
        <ele>158.0027815</ele>
        <time>2022-08-16T15:42:23Z</time>
      </trkpt>
      <trkpt lat="44.88912" lon="1.21281">
        <ele>158.2683616</ele>
        <time>2022-08-16T15:42:25Z</time>
      </trkpt>
      <trkpt lat="44.88916" lon="1.21282">
        <ele>158.0855517</ele>
        <time>2022-08-16T15:42:27Z</time>
      </trkpt>
      <trkpt lat="44.88918" lon="1.21277">
        <ele>159.0733948</ele>
        <time>2022-08-16T15:42:29Z</time>
      </trkpt>
      <trkpt lat="44.88921" lon="1.21274">
        <ele>159.2518891</ele>
        <time>2022-08-16T15:42:31Z</time>
      </trkpt>
      <trkpt lat="44.88923" lon="1.21273">
        <ele>159.5213765</ele>
        <time>2022-08-16T15:42:33Z</time>
      </trkpt>
      <trkpt lat="44.88924" lon="1.21273">
        <ele>160.1464092</ele>
        <time>2022-08-16T15:42:35Z</time>
      </trkpt>
      <trkpt lat="44.88928" lon="1.2127">
        <ele>160.6072827</ele>
        <time>2022-08-16T15:42:37Z</time>
      </trkpt>
      <trkpt lat="44.88922" lon="1.21266">
        <ele>160.289758</ele>
        <time>2022-08-16T15:42:39Z</time>
      </trkpt>
      <trkpt lat="44.88924" lon="1.21264">
        <ele>160.4426011</ele>
        <time>2022-08-16T15:42:41Z</time>
      </trkpt>
      <trkpt lat="44.88923" lon="1.21262">
        <ele>162.0284215</ele>
        <time>2022-08-16T15:42:43Z</time>
      </trkpt>
      <trkpt lat="44.88927" lon="1.21258">
        <ele>162.5550003</ele>
        <time>2022-08-16T15:42:45Z</time>
      </trkpt>
      <trkpt lat="44.88929" lon="1.21256">
        <ele>162.9642644</ele>
        <time>2022-08-16T15:42:47Z</time>
      </trkpt>
      <trkpt lat="44.8893" lon="1.21254">
        <ele>163.4300801</ele>
        <time>2022-08-16T15:42:49Z</time>
      </trkpt>
      <trkpt lat="44.88933" lon="1.21251">
        <ele>163.6592069</ele>
        <time>2022-08-16T15:42:51Z</time>
      </trkpt>
      <trkpt lat="44.88936" lon="1.2125">
        <ele>164.0204582</ele>
        <time>2022-08-16T15:42:53Z</time>
      </trkpt>
      <trkpt lat="44.88938" lon="1.21249">
        <ele>164.7721126</ele>
        <time>2022-08-16T15:42:55Z</time>
      </trkpt>
      <trkpt lat="44.88941" lon="1.21246">
        <ele>164.5634745</ele>
        <time>2022-08-16T15:42:57Z</time>
      </trkpt>
      <trkpt lat="44.88944" lon="1.21243">
        <ele>164.6152805</ele>
        <time>2022-08-16T15:42:59Z</time>
      </trkpt>
      <trkpt lat="44.88951" lon="1.21236">
        <ele>165.2661959</ele>
        <time>2022-08-16T15:43:01Z</time>
      </trkpt>
      <trkpt lat="44.88952" lon="1.21233">
        <ele>165.4658495</ele>
        <time>2022-08-16T15:43:03Z</time>
      </trkpt>
      <trkpt lat="44.88954" lon="1.21229">
        <ele>165.6833352</ele>
        <time>2022-08-16T15:43:05Z</time>
      </trkpt>
      <trkpt lat="44.88956" lon="1.21227">
        <ele>166.1843312</ele>
        <time>2022-08-16T15:43:07Z</time>
      </trkpt>
      <trkpt lat="44.88956" lon="1.21228">
        <ele>166.5128724</ele>
        <time>2022-08-16T15:43:09Z</time>
      </trkpt>
      <trkpt lat="44.8896" lon="1.21227">
        <ele>166.8095825</ele>
        <time>2022-08-16T15:43:11Z</time>
      </trkpt>
      <trkpt lat="44.88961" lon="1.21231">
        <ele>167.1331889</ele>
        <time>2022-08-16T15:43:13Z</time>
      </trkpt>
      <trkpt lat="44.88961" lon="1.2123">
        <ele>167.0328823</ele>
        <time>2022-08-16T15:43:15Z</time>
      </trkpt>
      <trkpt lat="44.88962" lon="1.2123">
        <ele>167.7145654</ele>
        <time>2022-08-16T15:43:17Z</time>
      </trkpt>
      <trkpt lat="44.88965" lon="1.21228">
        <ele>167.8340941</ele>
        <time>2022-08-16T15:43:19Z</time>
      </trkpt>
      <trkpt lat="44.88966" lon="1.21224">
        <ele>168.2623329</ele>
        <time>2022-08-16T15:43:21Z</time>
      </trkpt>
      <trkpt lat="44.88966" lon="1.21223">
        <ele>168.8362428</ele>
        <time>2022-08-16T15:43:23Z</time>
      </trkpt>
      <trkpt lat="44.88969" lon="1.21225">
        <ele>169.098673</ele>
        <time>2022-08-16T15:43:25Z</time>
      </trkpt>
      <trkpt lat="44.88975" lon="1.21226">
        <ele>169.7222356</ele>
        <time>2022-08-16T15:43:27Z</time>
      </trkpt>
      <trkpt lat="44.88976" lon="1.21215">
        <ele>169.9144413</ele>
        <time>2022-08-16T15:43:29Z</time>
      </trkpt>
      <trkpt lat="44.88977" lon="1.21215">
        <ele>170.6732666</ele>
        <time>2022-08-16T15:43:31Z</time>
      </trkpt>
      <trkpt lat="44.88983" lon="1.21209">
        <ele>170.328795</ele>
        <time>2022-08-16T15:43:33Z</time>
      </trkpt>
      <trkpt lat="44.88984" lon="1.21209">
        <ele>171.048056</ele>
        <time>2022-08-16T15:43:35Z</time>
      </trkpt>
      <trkpt lat="44.88988" lon="1.21216">
        <ele>171.1589376</ele>
        <time>2022-08-16T15:43:37Z</time>
      </trkpt>
      <trkpt lat="44.8899" lon="1.21206">
        <ele>171.6630056</ele>
        <time>2022-08-16T15:43:39Z</time>
      </trkpt>
      <trkpt lat="44.88991" lon="1.21204">
        <ele>172.1046607</ele>
        <time>2022-08-16T15:43:41Z</time>
      </trkpt>
      <trkpt lat="44.88996" lon="1.21195">
        <ele>172.2770872</ele>
        <time>2022-08-16T15:43:43Z</time>
      </trkpt>
      <trkpt lat="44.88998" lon="1.21189">
        <ele>172.8140976</ele>
        <time>2022-08-16T15:43:45Z</time>
      </trkpt>
      <trkpt lat="44.89001" lon="1.21189">
        <ele>173.2868037</ele>
        <time>2022-08-16T15:43:47Z</time>
      </trkpt>
      <trkpt lat="44.89" lon="1.21191">
        <ele>173.0711232</ele>
        <time>2022-08-16T15:43:49Z</time>
      </trkpt>
      <trkpt lat="44.89003" lon="1.21193">
        <ele>174.1219022</ele>
        <time>2022-08-16T15:43:51Z</time>
      </trkpt>
      <trkpt lat="44.89004" lon="1.21185">
        <ele>174.5369479</ele>
        <time>2022-08-16T15:43:53Z</time>
      </trkpt>
      <trkpt lat="44.89004" lon="1.21184">
        <ele>174.6092411</ele>
        <time>2022-08-16T15:43:55Z</time>
      </trkpt>
      <trkpt lat="44.89011" lon="1.21192">
        <ele>175.0866344</ele>
        <time>2022-08-16T15:43:57Z</time>
      </trkpt>
      <trkpt lat="44.8901" lon="1.21187">
        <ele>174.9265246</ele>
        <time>2022-08-16T15:43:59Z</time>
      </trkpt>
      <trkpt lat="44.89014" lon="1.21183">
        <ele>175.8316929</ele>
        <time>2022-08-16T15:44:01Z</time>
      </trkpt>
      <trkpt lat="44.89015" lon="1.21181">
        <ele>175.5973384</ele>
        <time>2022-08-16T15:44:03Z</time>
      </trkpt>
      <trkpt lat="44.89016" lon="1.21178">
        <ele>175.9219707</ele>
        <time>2022-08-16T15:44:05Z</time>
      </trkpt>
      <trkpt lat="44.89016" lon="1.21175">
        <ele>176.6436694</ele>
        <time>2022-08-16T15:44:07Z</time>
      </trkpt>
      <trkpt lat="44.89017" lon="1.21171">
        <ele>176.6142323</ele>
        <time>2022-08-16T15:44:09Z</time>
      </trkpt>
      <trkpt lat="44.89016" lon="1.21167">
        <ele>176.4827079</ele>
        <time>2022-08-16T15:44:11Z</time>
      </trkpt>
      <trkpt lat="44.89016" lon="1.21163">
        <ele>176.7942652</ele>
        <time>2022-08-16T15:44:13Z</time>
      </trkpt>
      <trkpt lat="44.89018" lon="1.21154">
        <ele>176.1763598</ele>
        <time>2022-08-16T15:44:15Z</time>
      </trkpt>
      <trkpt lat="44.89019" lon="1.2115">
        <ele>176.9208494</ele>
        <time>2022-08-16T15:44:17Z</time>
      </trkpt>
      <trkpt lat="44.89015" lon="1.2115">
        <ele>176.3783057</ele>
        <time>2022-08-16T15:44:19Z</time>
      </trkpt>
      <trkpt lat="44.89017" lon="1.21145">
        <ele>177.4617518</ele>
        <time>2022-08-16T15:44:21Z</time>
      </trkpt>
      <trkpt lat="44.89019" lon="1.21142">
        <ele>177.1103947</ele>
        <time>2022-08-16T15:44:23Z</time>
      </trkpt>
      <trkpt lat="44.8902" lon="1.2114">
        <ele>177.2925647</ele>
        <time>2022-08-16T15:44:25Z</time>
      </trkpt>
      <trkpt lat="44.89019" lon="1.21138">
        <ele>178.2904489</ele>
        <time>2022-08-16T15:44:27Z</time>
      </trkpt>
      <trkpt lat="44.89023" lon="1.21135">
        <ele>178.3389366</ele>
        <time>2022-08-16T15:44:29Z</time>
      </trkpt>
      <trkpt lat="44.89024" lon="1.21132">
        <ele>178.2992595</ele>
        <time>2022-08-16T15:44:31Z</time>
      </trkpt>
      <trkpt lat="44.89026" lon="1.2113">
        <ele>178.6831738</ele>
        <time>2022-08-16T15:44:33Z</time>
      </trkpt>
      <trkpt lat="44.89028" lon="1.21128">
        <ele>178.3415138</ele>
        <time>2022-08-16T15:44:35Z</time>
      </trkpt>
      <trkpt lat="44.89028" lon="1.21123">
        <ele>178.3875886</ele>
        <time>2022-08-16T15:44:37Z</time>
      </trkpt>
      <trkpt lat="44.8903" lon="1.21123">
        <ele>178.8392542</ele>
        <time>2022-08-16T15:44:39Z</time>
      </trkpt>
      <trkpt lat="44.89032" lon="1.21119">
        <ele>178.6555686</ele>
        <time>2022-08-16T15:44:41Z</time>
      </trkpt>
      <trkpt lat="44.89033" lon="1.21114">
        <ele>179.2071169</ele>
        <time>2022-08-16T15:44:43Z</time>
      </trkpt>
      <trkpt lat="44.89037" lon="1.21109">
        <ele>179.4860954</ele>
        <time>2022-08-16T15:44:45Z</time>
      </trkpt>
      <trkpt lat="44.89036" lon="1.21106">
        <ele>179.6600251</ele>
        <time>2022-08-16T15:44:47Z</time>
      </trkpt>
      <trkpt lat="44.89039" lon="1.21104">
        <ele>180.0853286</ele>
        <time>2022-08-16T15:44:49Z</time>
      </trkpt>
      <trkpt lat="44.89037" lon="1.21101">
        <ele>179.8612757</ele>
        <time>2022-08-16T15:44:51Z</time>
      </trkpt>
      <trkpt lat="44.89035" lon="1.21096">
        <ele>181.291177</ele>
        <time>2022-08-16T15:44:53Z</time>
      </trkpt>
      <trkpt lat="44.89039" lon="1.21091">
        <ele>183.9496359</ele>
        <time>2022-08-16T15:44:55Z</time>
      </trkpt>
      <trkpt lat="44.89039" lon="1.21085">
        <ele>186.0128785</ele>
        <time>2022-08-16T15:44:57Z</time>
      </trkpt>
      <trkpt lat="44.89039" lon="1.21083">
        <ele>188.0477154</ele>
        <time>2022-08-16T15:44:59Z</time>
      </trkpt>
      <trkpt lat="44.8904" lon="1.21081">
        <ele>187.2217655</ele>
        <time>2022-08-16T15:45:01Z</time>
      </trkpt>
      <trkpt lat="44.89041" lon="1.21079">
        <ele>187.7435979</ele>
        <time>2022-08-16T15:45:03Z</time>
      </trkpt>
      <trkpt lat="44.89043" lon="1.21078">
        <ele>189.0334106</ele>
        <time>2022-08-16T15:45:05Z</time>
      </trkpt>
      <trkpt lat="44.89044" lon="1.21074">
        <ele>188.2104822</ele>
        <time>2022-08-16T15:45:07Z</time>
      </trkpt>
      <trkpt lat="44.89045" lon="1.21071">
        <ele>188.6830363</ele>
        <time>2022-08-16T15:45:09Z</time>
      </trkpt>
      <trkpt lat="44.89045" lon="1.21067">
        <ele>189.3080486</ele>
        <time>2022-08-16T15:45:11Z</time>
      </trkpt>
      <trkpt lat="44.89046" lon="1.21064">
        <ele>189.5490242</ele>
        <time>2022-08-16T15:45:13Z</time>
      </trkpt>
      <trkpt lat="44.89047" lon="1.21062">
        <ele>189.0297316</ele>
        <time>2022-08-16T15:45:15Z</time>
      </trkpt>
      <trkpt lat="44.89049" lon="1.2106">
        <ele>188.853136</ele>
        <time>2022-08-16T15:45:17Z</time>
      </trkpt>
      <trkpt lat="44.8905" lon="1.21057">
        <ele>189.4002316</ele>
        <time>2022-08-16T15:45:19Z</time>
      </trkpt>
      <trkpt lat="44.89052" lon="1.21052">
        <ele>189.2271849</ele>
        <time>2022-08-16T15:45:21Z</time>
      </trkpt>
      <trkpt lat="44.89052" lon="1.21052">
        <ele>189.3826017</ele>
        <time>2022-08-16T15:45:23Z</time>
      </trkpt>
      <trkpt lat="44.89056" lon="1.2105">
        <ele>190.2715905</ele>
        <time>2022-08-16T15:45:25Z</time>
      </trkpt>
      <trkpt lat="44.89058" lon="1.21047">
        <ele>191.1643694</ele>
        <time>2022-08-16T15:45:27Z</time>
      </trkpt>
      <trkpt lat="44.8906" lon="1.21045">
        <ele>190.9664903</ele>
        <time>2022-08-16T15:45:29Z</time>
      </trkpt>
      <trkpt lat="44.89061" lon="1.21043">
        <ele>191.4571185</ele>
        <time>2022-08-16T15:45:31Z</time>
      </trkpt>
      <trkpt lat="44.89064" lon="1.21041">
        <ele>190.5652508</ele>
        <time>2022-08-16T15:45:33Z</time>
      </trkpt>
      <trkpt lat="44.89065" lon="1.21041">
        <ele>190.1687036</ele>
        <time>2022-08-16T15:45:35Z</time>
      </trkpt>
      <trkpt lat="44.89065" lon="1.21042">
        <ele>190.8934973</ele>
        <time>2022-08-16T15:45:37Z</time>
      </trkpt>
      <trkpt lat="44.89065" lon="1.21043">
        <ele>191.3037019</ele>
        <time>2022-08-16T15:45:39Z</time>
      </trkpt>
      <trkpt lat="44.89067" lon="1.21043">
        <ele>190.641297</ele>
        <time>2022-08-16T15:45:41Z</time>
      </trkpt>
      <trkpt lat="44.89067" lon="1.21042">
        <ele>191.6317202</ele>
        <time>2022-08-16T15:45:43Z</time>
      </trkpt>
      <trkpt lat="44.89066" lon="1.21041">
        <ele>192.1176953</ele>
        <time>2022-08-16T15:45:45Z</time>
      </trkpt>
      <trkpt lat="44.89066" lon="1.2104">
        <ele>192.5920529</ele>
        <time>2022-08-16T15:45:47Z</time>
      </trkpt>
      <trkpt lat="44.89066" lon="1.2104">
        <ele>192.5328135</ele>
        <time>2022-08-16T15:45:49Z</time>
      </trkpt>
      <trkpt lat="44.89066" lon="1.2104">
        <ele>192.6289601</ele>
        <time>2022-08-16T15:45:51Z</time>
      </trkpt>
      <trkpt lat="44.89067" lon="1.2104">
        <ele>192.5914709</ele>
        <time>2022-08-16T15:45:53Z</time>
      </trkpt>
      <trkpt lat="44.89067" lon="1.2104">
        <ele>192.590891</ele>
        <time>2022-08-16T15:45:55Z</time>
      </trkpt>
      <trkpt lat="44.89067" lon="1.21041">
        <ele>191.8693599</ele>
        <time>2022-08-16T15:45:57Z</time>
      </trkpt>
      <trkpt lat="44.89066" lon="1.21041">
        <ele>191.1108101</ele>
        <time>2022-08-16T15:45:59Z</time>
      </trkpt>
      <trkpt lat="44.89066" lon="1.21041">
        <ele>191.1108101</ele>
        <time>2022-08-16T15:46:03Z</time>
      </trkpt>
      <trkpt lat="44.89066" lon="1.21041">
        <ele>191.1108101</ele>
        <time>2022-08-16T15:46:07Z</time>
      </trkpt>
      <trkpt lat="44.89067" lon="1.21039">
        <ele>189.770024</ele>
        <time>2022-08-16T15:46:11Z</time>
      </trkpt>
      <trkpt lat="44.89067" lon="1.2104">
        <ele>189.6896759</ele>
        <time>2022-08-16T15:46:13Z</time>
      </trkpt>
      <trkpt lat="44.89067" lon="1.2104">
        <ele>189.6497552</ele>
        <time>2022-08-16T15:46:15Z</time>
      </trkpt>
      <trkpt lat="44.89067" lon="1.2104">
        <ele>189.6497552</ele>
        <time>2022-08-16T15:46:19Z</time>
      </trkpt>
      <trkpt lat="44.89067" lon="1.21041">
        <ele>191.1950673</ele>
        <time>2022-08-16T15:46:21Z</time>
      </trkpt>
      <trkpt lat="44.89067" lon="1.21041">
        <ele>191.1950673</ele>
        <time>2022-08-16T15:46:25Z</time>
      </trkpt>
      <trkpt lat="44.89067" lon="1.21041">
        <ele>188.4951537</ele>
        <time>2022-08-16T15:46:27Z</time>
      </trkpt>
      <trkpt lat="44.89067" lon="1.21041">
        <ele>188.4959183</ele>
        <time>2022-08-16T15:46:29Z</time>
      </trkpt>
      <trkpt lat="44.89067" lon="1.21041">
        <ele>188.4959183</ele>
        <time>2022-08-16T15:46:33Z</time>
      </trkpt>
      <trkpt lat="44.89066" lon="1.2104">
        <ele>187.1015993</ele>
        <time>2022-08-16T15:46:37Z</time>
      </trkpt>
      <trkpt lat="44.89066" lon="1.2104">
        <ele>187.7218893</ele>
        <time>2022-08-16T15:46:39Z</time>
      </trkpt>
      <trkpt lat="44.89066" lon="1.2104">
        <ele>189.0984185</ele>
        <time>2022-08-16T15:46:43Z</time>
      </trkpt>
      <trkpt lat="44.89066" lon="1.2104">
        <ele>189.0984185</ele>
        <time>2022-08-16T15:46:47Z</time>
      </trkpt>
      <trkpt lat="44.89066" lon="1.2104">
        <ele>189.0984185</ele>
        <time>2022-08-16T15:46:51Z</time>
      </trkpt>
      <trkpt lat="44.89066" lon="1.2104">
        <ele>189.0984185</ele>
        <time>2022-08-16T15:46:55Z</time>
      </trkpt>
      <trkpt lat="44.89065" lon="1.21042">
        <ele>190.2621531</ele>
        <time>2022-08-16T15:46:57Z</time>
      </trkpt>
      <trkpt lat="44.89065" lon="1.21042">
        <ele>190.2621531</ele>
        <time>2022-08-16T15:47:01Z</time>
      </trkpt>
      <trkpt lat="44.89065" lon="1.21042">
        <ele>190.2621531</ele>
        <time>2022-08-16T15:47:05Z</time>
      </trkpt>
      <trkpt lat="44.89065" lon="1.21042">
        <ele>190.2621531</ele>
        <time>2022-08-16T15:47:09Z</time>
      </trkpt>
      <trkpt lat="44.89065" lon="1.21042">
        <ele>190.2621531</ele>
        <time>2022-08-16T15:47:13Z</time>
      </trkpt>
      <trkpt lat="44.89065" lon="1.21042">
        <ele>190.2621531</ele>
        <time>2022-08-16T15:47:17Z</time>
      </trkpt>
      <trkpt lat="44.89065" lon="1.21042">
        <ele>190.2621531</ele>
        <time>2022-08-16T15:47:21Z</time>
      </trkpt>
      <trkpt lat="44.89065" lon="1.21042">
        <ele>190.2621531</ele>
        <time>2022-08-16T15:47:25Z</time>
      </trkpt>
      <trkpt lat="44.89065" lon="1.21042">
        <ele>190.2621531</ele>
        <time>2022-08-16T15:47:29Z</time>
      </trkpt>
      <trkpt lat="44.89065" lon="1.21042">
        <ele>190.2621531</ele>
        <time>2022-08-16T15:47:33Z</time>
      </trkpt>
      <trkpt lat="44.89068" lon="1.21041">
        <ele>191.9910414</ele>
        <time>2022-08-16T15:47:37Z</time>
      </trkpt>
      <trkpt lat="44.89068" lon="1.21041">
        <ele>191.9910414</ele>
        <time>2022-08-16T15:47:41Z</time>
      </trkpt>
      <trkpt lat="44.89068" lon="1.21041">
        <ele>191.9910414</ele>
        <time>2022-08-16T15:47:45Z</time>
      </trkpt>
      <trkpt lat="44.89068" lon="1.21041">
        <ele>191.9910414</ele>
        <time>2022-08-16T15:47:49Z</time>
      </trkpt>
      <trkpt lat="44.89069" lon="1.21042">
        <ele>193.64875</ele>
        <time>2022-08-16T15:47:51Z</time>
      </trkpt>
      <trkpt lat="44.89068" lon="1.21042">
        <ele>193.7376492</ele>
        <time>2022-08-16T15:47:53Z</time>
      </trkpt>
      <trkpt lat="44.89068" lon="1.21042">
        <ele>193.7662516</ele>
        <time>2022-08-16T15:47:55Z</time>
      </trkpt>
      <trkpt lat="44.8907" lon="1.21042">
        <ele>193.4421263</ele>
        <time>2022-08-16T15:47:57Z</time>
      </trkpt>
      <trkpt lat="44.89073" lon="1.2104">
        <ele>193.6306449</ele>
        <time>2022-08-16T15:47:59Z</time>
      </trkpt>
      <trkpt lat="44.89074" lon="1.21036">
        <ele>193.5023081</ele>
        <time>2022-08-16T15:48:01Z</time>
      </trkpt>
      <trkpt lat="44.89074" lon="1.21031">
        <ele>193.3185515</ele>
        <time>2022-08-16T15:48:03Z</time>
      </trkpt>
      <trkpt lat="44.89073" lon="1.21026">
        <ele>193.5365384</ele>
        <time>2022-08-16T15:48:05Z</time>
      </trkpt>
      <trkpt lat="44.89073" lon="1.21021">
        <ele>193.6513032</ele>
        <time>2022-08-16T15:48:07Z</time>
      </trkpt>
      <trkpt lat="44.89074" lon="1.21015">
        <ele>194.0092282</ele>
        <time>2022-08-16T15:48:09Z</time>
      </trkpt>
      <trkpt lat="44.89074" lon="1.2101">
        <ele>194.424007</ele>
        <time>2022-08-16T15:48:11Z</time>
      </trkpt>
      <trkpt lat="44.89074" lon="1.21005">
        <ele>194.2980748</ele>
        <time>2022-08-16T15:48:13Z</time>
      </trkpt>
      <trkpt lat="44.89075" lon="1.20999">
        <ele>194.7661508</ele>
        <time>2022-08-16T15:48:15Z</time>
      </trkpt>
      <trkpt lat="44.89076" lon="1.20994">
        <ele>194.9515011</ele>
        <time>2022-08-16T15:48:17Z</time>
      </trkpt>
      <trkpt lat="44.89076" lon="1.20989">
        <ele>194.7472221</ele>
        <time>2022-08-16T15:48:19Z</time>
      </trkpt>
      <trkpt lat="44.89077" lon="1.20984">
        <ele>194.8015634</ele>
        <time>2022-08-16T15:48:21Z</time>
      </trkpt>
      <trkpt lat="44.89077" lon="1.20978">
        <ele>194.9134568</ele>
        <time>2022-08-16T15:48:23Z</time>
      </trkpt>
      <trkpt lat="44.89078" lon="1.20973">
        <ele>195.1042343</ele>
        <time>2022-08-16T15:48:25Z</time>
      </trkpt>
      <trkpt lat="44.89078" lon="1.20968">
        <ele>195.4372077</ele>
        <time>2022-08-16T15:48:27Z</time>
      </trkpt>
      <trkpt lat="44.89079" lon="1.20963">
        <ele>195.7066846</ele>
        <time>2022-08-16T15:48:29Z</time>
      </trkpt>
      <trkpt lat="44.89078" lon="1.20958">
        <ele>195.8524623</ele>
        <time>2022-08-16T15:48:31Z</time>
      </trkpt>
      <trkpt lat="44.89079" lon="1.20953">
        <ele>195.9173637</ele>
        <time>2022-08-16T15:48:33Z</time>
      </trkpt>
      <trkpt lat="44.89079" lon="1.20947">
        <ele>194.9709683</ele>
        <time>2022-08-16T15:48:35Z</time>
      </trkpt>
      <trkpt lat="44.8908" lon="1.20943">
        <ele>195.8757368</ele>
        <time>2022-08-16T15:48:37Z</time>
      </trkpt>
      <trkpt lat="44.8908" lon="1.20938">
        <ele>195.8140598</ele>
        <time>2022-08-16T15:48:39Z</time>
      </trkpt>
      <trkpt lat="44.8908" lon="1.20934">
        <ele>196.2173624</ele>
        <time>2022-08-16T15:48:41Z</time>
      </trkpt>
      <trkpt lat="44.8908" lon="1.2093">
        <ele>195.8731482</ele>
        <time>2022-08-16T15:48:43Z</time>
      </trkpt>
      <trkpt lat="44.89081" lon="1.20925">
        <ele>196.1304444</ele>
        <time>2022-08-16T15:48:45Z</time>
      </trkpt>
      <trkpt lat="44.89081" lon="1.2092">
        <ele>196.0358986</ele>
        <time>2022-08-16T15:48:47Z</time>
      </trkpt>
      <trkpt lat="44.89081" lon="1.20916">
        <ele>195.7937765</ele>
        <time>2022-08-16T15:48:49Z</time>
      </trkpt>
      <trkpt lat="44.89082" lon="1.20911">
        <ele>195.3863356</ele>
        <time>2022-08-16T15:48:51Z</time>
      </trkpt>
      <trkpt lat="44.89083" lon="1.20905">
        <ele>196.1451452</ele>
        <time>2022-08-16T15:48:53Z</time>
      </trkpt>
      <trkpt lat="44.89083" lon="1.209">
        <ele>196.5720997</ele>
        <time>2022-08-16T15:48:55Z</time>
      </trkpt>
      <trkpt lat="44.89084" lon="1.20895">
        <ele>195.9865074</ele>
        <time>2022-08-16T15:48:57Z</time>
      </trkpt>
      <trkpt lat="44.89086" lon="1.2089">
        <ele>196.4284364</ele>
        <time>2022-08-16T15:48:59Z</time>
      </trkpt>
      <trkpt lat="44.89087" lon="1.20886">
        <ele>197.2036551</ele>
        <time>2022-08-16T15:49:01Z</time>
      </trkpt>
      <trkpt lat="44.89088" lon="1.20882">
        <ele>196.920717</ele>
        <time>2022-08-16T15:49:03Z</time>
      </trkpt>
      <trkpt lat="44.89089" lon="1.20878">
        <ele>197.8079896</ele>
        <time>2022-08-16T15:49:05Z</time>
      </trkpt>
      <trkpt lat="44.8909" lon="1.20875">
        <ele>198.1866093</ele>
        <time>2022-08-16T15:49:07Z</time>
      </trkpt>
      <trkpt lat="44.89092" lon="1.20871">
        <ele>199.1998372</ele>
        <time>2022-08-16T15:49:09Z</time>
      </trkpt>
      <trkpt lat="44.89093" lon="1.20867">
        <ele>199.6009774</ele>
        <time>2022-08-16T15:49:11Z</time>
      </trkpt>
      <trkpt lat="44.89094" lon="1.20862">
        <ele>200.0906902</ele>
        <time>2022-08-16T15:49:13Z</time>
      </trkpt>
      <trkpt lat="44.89095" lon="1.20859">
        <ele>200.6509545</ele>
        <time>2022-08-16T15:49:15Z</time>
      </trkpt>
      <trkpt lat="44.89096" lon="1.20855">
        <ele>201.3546369</ele>
        <time>2022-08-16T15:49:17Z</time>
      </trkpt>
      <trkpt lat="44.89096" lon="1.20851">
        <ele>202.2562058</ele>
        <time>2022-08-16T15:49:19Z</time>
      </trkpt>
      <trkpt lat="44.89098" lon="1.20847">
        <ele>203.4226428</ele>
        <time>2022-08-16T15:49:21Z</time>
      </trkpt>
      <trkpt lat="44.89099" lon="1.20844">
        <ele>203.8416044</ele>
        <time>2022-08-16T15:49:23Z</time>
      </trkpt>
      <trkpt lat="44.891" lon="1.20841">
        <ele>203.95566</ele>
        <time>2022-08-16T15:49:25Z</time>
      </trkpt>
      <trkpt lat="44.89101" lon="1.20837">
        <ele>204.0958972</ele>
        <time>2022-08-16T15:49:27Z</time>
      </trkpt>
      <trkpt lat="44.89101" lon="1.20833">
        <ele>203.8829522</ele>
        <time>2022-08-16T15:49:29Z</time>
      </trkpt>
      <trkpt lat="44.89103" lon="1.20829">
        <ele>204.2857044</ele>
        <time>2022-08-16T15:49:31Z</time>
      </trkpt>
      <trkpt lat="44.89104" lon="1.20826">
        <ele>204.7527494</ele>
        <time>2022-08-16T15:49:33Z</time>
      </trkpt>
      <trkpt lat="44.89105" lon="1.20822">
        <ele>204.1131629</ele>
        <time>2022-08-16T15:49:35Z</time>
      </trkpt>
      <trkpt lat="44.89106" lon="1.20819">
        <ele>204.6893735</ele>
        <time>2022-08-16T15:49:37Z</time>
      </trkpt>
      <trkpt lat="44.89107" lon="1.20815">
        <ele>205.1789256</ele>
        <time>2022-08-16T15:49:39Z</time>
      </trkpt>
      <trkpt lat="44.89108" lon="1.20812">
        <ele>205.8978274</ele>
        <time>2022-08-16T15:49:41Z</time>
      </trkpt>
      <trkpt lat="44.8911" lon="1.20809">
        <ele>206.6305317</ele>
        <time>2022-08-16T15:49:43Z</time>
      </trkpt>
      <trkpt lat="44.89111" lon="1.20805">
        <ele>206.9036224</ele>
        <time>2022-08-16T15:49:45Z</time>
      </trkpt>
      <trkpt lat="44.89111" lon="1.20801">
        <ele>207.1086333</ele>
        <time>2022-08-16T15:49:47Z</time>
      </trkpt>
      <trkpt lat="44.89112" lon="1.20798">
        <ele>207.5446041</ele>
        <time>2022-08-16T15:49:49Z</time>
      </trkpt>
      <trkpt lat="44.89113" lon="1.20794">
        <ele>207.8355481</ele>
        <time>2022-08-16T15:49:51Z</time>
      </trkpt>
      <trkpt lat="44.89115" lon="1.2079">
        <ele>207.7300914</ele>
        <time>2022-08-16T15:49:53Z</time>
      </trkpt>
      <trkpt lat="44.89116" lon="1.20787">
        <ele>207.484599</ele>
        <time>2022-08-16T15:49:55Z</time>
      </trkpt>
      <trkpt lat="44.89116" lon="1.20783">
        <ele>208.0998708</ele>
        <time>2022-08-16T15:49:57Z</time>
      </trkpt>
      <trkpt lat="44.89118" lon="1.20778">
        <ele>208.1994233</ele>
        <time>2022-08-16T15:49:59Z</time>
      </trkpt>
      <trkpt lat="44.89119" lon="1.20775">
        <ele>208.5099643</ele>
        <time>2022-08-16T15:50:01Z</time>
      </trkpt>
      <trkpt lat="44.89119" lon="1.20771">
        <ele>208.7962543</ele>
        <time>2022-08-16T15:50:03Z</time>
      </trkpt>
      <trkpt lat="44.89121" lon="1.20767">
        <ele>208.9609093</ele>
        <time>2022-08-16T15:50:05Z</time>
      </trkpt>
      <trkpt lat="44.89121" lon="1.20764">
        <ele>209.2448105</ele>
        <time>2022-08-16T15:50:07Z</time>
      </trkpt>
      <trkpt lat="44.89122" lon="1.2076">
        <ele>209.2772136</ele>
        <time>2022-08-16T15:50:09Z</time>
      </trkpt>
      <trkpt lat="44.89122" lon="1.20756">
        <ele>209.9270776</ele>
        <time>2022-08-16T15:50:11Z</time>
      </trkpt>
      <trkpt lat="44.89122" lon="1.20752">
        <ele>210.5867487</ele>
        <time>2022-08-16T15:50:13Z</time>
      </trkpt>
      <trkpt lat="44.89122" lon="1.20748">
        <ele>210.9819512</ele>
        <time>2022-08-16T15:50:15Z</time>
      </trkpt>
      <trkpt lat="44.89122" lon="1.20744">
        <ele>211.4003727</ele>
        <time>2022-08-16T15:50:17Z</time>
      </trkpt>
      <trkpt lat="44.89122" lon="1.2074">
        <ele>211.8848878</ele>
        <time>2022-08-16T15:50:19Z</time>
      </trkpt>
      <trkpt lat="44.89122" lon="1.20737">
        <ele>212.2969146</ele>
        <time>2022-08-16T15:50:21Z</time>
      </trkpt>
      <trkpt lat="44.89124" lon="1.20733">
        <ele>213.3835887</ele>
        <time>2022-08-16T15:50:23Z</time>
      </trkpt>
      <trkpt lat="44.89124" lon="1.20729">
        <ele>213.6030292</ele>
        <time>2022-08-16T15:50:25Z</time>
      </trkpt>
      <trkpt lat="44.89124" lon="1.20725">
        <ele>214.4120821</ele>
        <time>2022-08-16T15:50:27Z</time>
      </trkpt>
      <trkpt lat="44.89124" lon="1.20722">
        <ele>214.530941</ele>
        <time>2022-08-16T15:50:29Z</time>
      </trkpt>
      <trkpt lat="44.89124" lon="1.20718">
        <ele>214.5742952</ele>
        <time>2022-08-16T15:50:31Z</time>
      </trkpt>
      <trkpt lat="44.89124" lon="1.20714">
        <ele>214.9951513</ele>
        <time>2022-08-16T15:50:33Z</time>
      </trkpt>
      <trkpt lat="44.89123" lon="1.20711">
        <ele>215.3512502</ele>
        <time>2022-08-16T15:50:35Z</time>
      </trkpt>
      <trkpt lat="44.89123" lon="1.20707">
        <ele>215.6580125</ele>
        <time>2022-08-16T15:50:37Z</time>
      </trkpt>
      <trkpt lat="44.89123" lon="1.20702">
        <ele>215.1629241</ele>
        <time>2022-08-16T15:50:39Z</time>
      </trkpt>
      <trkpt lat="44.89122" lon="1.20699">
        <ele>215.2334656</ele>
        <time>2022-08-16T15:50:41Z</time>
      </trkpt>
      <trkpt lat="44.89121" lon="1.20694">
        <ele>216.2480772</ele>
        <time>2022-08-16T15:50:43Z</time>
      </trkpt>
      <trkpt lat="44.89122" lon="1.2069">
        <ele>217.0070887</ele>
        <time>2022-08-16T15:50:45Z</time>
      </trkpt>
      <trkpt lat="44.89121" lon="1.20686">
        <ele>217.6125455</ele>
        <time>2022-08-16T15:50:47Z</time>
      </trkpt>
      <trkpt lat="44.89121" lon="1.20682">
        <ele>218.1615832</ele>
        <time>2022-08-16T15:50:49Z</time>
      </trkpt>
      <trkpt lat="44.89122" lon="1.20678">
        <ele>218.7813215</ele>
        <time>2022-08-16T15:50:51Z</time>
      </trkpt>
      <trkpt lat="44.89124" lon="1.20674">
        <ele>219.1886497</ele>
        <time>2022-08-16T15:50:53Z</time>
      </trkpt>
      <trkpt lat="44.89125" lon="1.20671">
        <ele>220.344659</ele>
        <time>2022-08-16T15:50:55Z</time>
      </trkpt>
      <trkpt lat="44.89126" lon="1.20667">
        <ele>220.3890339</ele>
        <time>2022-08-16T15:50:57Z</time>
      </trkpt>
      <trkpt lat="44.89128" lon="1.20663">
        <ele>221.0611022</ele>
        <time>2022-08-16T15:50:59Z</time>
      </trkpt>
      <trkpt lat="44.89129" lon="1.20659">
        <ele>221.7446686</ele>
        <time>2022-08-16T15:51:01Z</time>
      </trkpt>
      <trkpt lat="44.89129" lon="1.20657">
        <ele>221.8070869</ele>
        <time>2022-08-16T15:51:03Z</time>
      </trkpt>
      <trkpt lat="44.8913" lon="1.20653">
        <ele>222.2772512</ele>
        <time>2022-08-16T15:51:05Z</time>
      </trkpt>
      <trkpt lat="44.89132" lon="1.20649">
        <ele>221.8181021</ele>
        <time>2022-08-16T15:51:07Z</time>
      </trkpt>
      <trkpt lat="44.89133" lon="1.20646">
        <ele>222.3857847</ele>
        <time>2022-08-16T15:51:09Z</time>
      </trkpt>
      <trkpt lat="44.89135" lon="1.20642">
        <ele>223.3823395</ele>
        <time>2022-08-16T15:51:11Z</time>
      </trkpt>
      <trkpt lat="44.89137" lon="1.20638">
        <ele>222.9091737</ele>
        <time>2022-08-16T15:51:13Z</time>
      </trkpt>
      <trkpt lat="44.89139" lon="1.20635">
        <ele>222.4660684</ele>
        <time>2022-08-16T15:51:15Z</time>
      </trkpt>
      <trkpt lat="44.8914" lon="1.20631">
        <ele>222.5065985</ele>
        <time>2022-08-16T15:51:17Z</time>
      </trkpt>
      <trkpt lat="44.89142" lon="1.20627">
        <ele>222.8110514</ele>
        <time>2022-08-16T15:51:19Z</time>
      </trkpt>
      <trkpt lat="44.89143" lon="1.20624">
        <ele>222.2336182</ele>
        <time>2022-08-16T15:51:21Z</time>
      </trkpt>
      <trkpt lat="44.89145" lon="1.2062">
        <ele>221.9915554</ele>
        <time>2022-08-16T15:51:23Z</time>
      </trkpt>
      <trkpt lat="44.89146" lon="1.20617">
        <ele>222.3301186</ele>
        <time>2022-08-16T15:51:25Z</time>
      </trkpt>
      <trkpt lat="44.89147" lon="1.20613">
        <ele>222.4237442</ele>
        <time>2022-08-16T15:51:27Z</time>
      </trkpt>
      <trkpt lat="44.89148" lon="1.2061">
        <ele>222.4647828</ele>
        <time>2022-08-16T15:51:29Z</time>
      </trkpt>
      <trkpt lat="44.89149" lon="1.20606">
        <ele>221.8988257</ele>
        <time>2022-08-16T15:51:31Z</time>
      </trkpt>
      <trkpt lat="44.89151" lon="1.20603">
        <ele>222.4129527</ele>
        <time>2022-08-16T15:51:33Z</time>
      </trkpt>
      <trkpt lat="44.89152" lon="1.206">
        <ele>222.983269</ele>
        <time>2022-08-16T15:51:35Z</time>
      </trkpt>
      <trkpt lat="44.89153" lon="1.20599">
        <ele>223.3250999</ele>
        <time>2022-08-16T15:51:37Z</time>
      </trkpt>
      <trkpt lat="44.89153" lon="1.20599">
        <ele>223.5612841</ele>
        <time>2022-08-16T15:51:39Z</time>
      </trkpt>
      <trkpt lat="44.89153" lon="1.20598">
        <ele>223.4999792</ele>
        <time>2022-08-16T15:51:41Z</time>
      </trkpt>
      <trkpt lat="44.89153" lon="1.20598">
        <ele>223.900971</ele>
        <time>2022-08-16T15:51:43Z</time>
      </trkpt>
      <trkpt lat="44.89153" lon="1.20598">
        <ele>223.072723</ele>
        <time>2022-08-16T15:51:45Z</time>
      </trkpt>
      <trkpt lat="44.89153" lon="1.20595">
        <ele>222.3376158</ele>
        <time>2022-08-16T15:51:47Z</time>
      </trkpt>
      <trkpt lat="44.89155" lon="1.20591">
        <ele>222.6666446</ele>
        <time>2022-08-16T15:51:49Z</time>
      </trkpt>
      <trkpt lat="44.89159" lon="1.2059">
        <ele>223.2718476</ele>
        <time>2022-08-16T15:51:51Z</time>
      </trkpt>
      <trkpt lat="44.89162" lon="1.20589">
        <ele>223.0240914</ele>
        <time>2022-08-16T15:51:53Z</time>
      </trkpt>
      <trkpt lat="44.89164" lon="1.20589">
        <ele>223.3397931</ele>
        <time>2022-08-16T15:51:55Z</time>
      </trkpt>
      <trkpt lat="44.89168" lon="1.20589">
        <ele>223.259628</ele>
        <time>2022-08-16T15:51:57Z</time>
      </trkpt>
      <trkpt lat="44.89171" lon="1.20589">
        <ele>223.3300822</ele>
        <time>2022-08-16T15:51:59Z</time>
      </trkpt>
      <trkpt lat="44.89174" lon="1.20588">
        <ele>224.2811675</ele>
        <time>2022-08-16T15:52:01Z</time>
      </trkpt>
      <trkpt lat="44.89177" lon="1.20588">
        <ele>224.2720195</ele>
        <time>2022-08-16T15:52:03Z</time>
      </trkpt>
      <trkpt lat="44.89179" lon="1.20588">
        <ele>224.641263</ele>
        <time>2022-08-16T15:52:05Z</time>
      </trkpt>
      <trkpt lat="44.89182" lon="1.20589">
        <ele>225.1781875</ele>
        <time>2022-08-16T15:52:07Z</time>
      </trkpt>
      <trkpt lat="44.89185" lon="1.20589">
        <ele>225.1666173</ele>
        <time>2022-08-16T15:52:09Z</time>
      </trkpt>
      <trkpt lat="44.89188" lon="1.2059">
        <ele>225.1882418</ele>
        <time>2022-08-16T15:52:11Z</time>
      </trkpt>
      <trkpt lat="44.89191" lon="1.20589">
        <ele>224.8813092</ele>
        <time>2022-08-16T15:52:13Z</time>
      </trkpt>
      <trkpt lat="44.89194" lon="1.2059">
        <ele>224.9794018</ele>
        <time>2022-08-16T15:52:15Z</time>
      </trkpt>
      <trkpt lat="44.89198" lon="1.2059">
        <ele>225.4216299</ele>
        <time>2022-08-16T15:52:17Z</time>
      </trkpt>
      <trkpt lat="44.892" lon="1.2059">
        <ele>225.888786</ele>
        <time>2022-08-16T15:52:19Z</time>
      </trkpt>
      <trkpt lat="44.89203" lon="1.20591">
        <ele>226.5257241</ele>
        <time>2022-08-16T15:52:21Z</time>
      </trkpt>
      <trkpt lat="44.89206" lon="1.20591">
        <ele>226.6350366</ele>
        <time>2022-08-16T15:52:23Z</time>
      </trkpt>
      <trkpt lat="44.89209" lon="1.20591">
        <ele>227.2395419</ele>
        <time>2022-08-16T15:52:25Z</time>
      </trkpt>
      <trkpt lat="44.89212" lon="1.20591">
        <ele>228.1048685</ele>
        <time>2022-08-16T15:52:27Z</time>
      </trkpt>
      <trkpt lat="44.89215" lon="1.20591">
        <ele>228.491744</ele>
        <time>2022-08-16T15:52:29Z</time>
      </trkpt>
      <trkpt lat="44.89218" lon="1.20591">
        <ele>229.1928898</ele>
        <time>2022-08-16T15:52:31Z</time>
      </trkpt>
      <trkpt lat="44.8922" lon="1.20591">
        <ele>229.9013778</ele>
        <time>2022-08-16T15:52:33Z</time>
      </trkpt>
      <trkpt lat="44.89223" lon="1.2059">
        <ele>230.3219979</ele>
        <time>2022-08-16T15:52:35Z</time>
      </trkpt>
      <trkpt lat="44.89225" lon="1.20588">
        <ele>231.038529</ele>
        <time>2022-08-16T15:52:37Z</time>
      </trkpt>
      <trkpt lat="44.89227" lon="1.20584">
        <ele>231.573896</ele>
        <time>2022-08-16T15:52:39Z</time>
      </trkpt>
      <trkpt lat="44.8923" lon="1.20583">
        <ele>232.1050227</ele>
        <time>2022-08-16T15:52:41Z</time>
      </trkpt>
      <trkpt lat="44.89232" lon="1.2058">
        <ele>232.6463341</ele>
        <time>2022-08-16T15:52:43Z</time>
      </trkpt>
      <trkpt lat="44.89233" lon="1.20577">
        <ele>233.0277905</ele>
        <time>2022-08-16T15:52:45Z</time>
      </trkpt>
      <trkpt lat="44.89235" lon="1.20574">
        <ele>233.5756581</ele>
        <time>2022-08-16T15:52:47Z</time>
      </trkpt>
      <trkpt lat="44.89236" lon="1.20572">
        <ele>234.0545599</ele>
        <time>2022-08-16T15:52:49Z</time>
      </trkpt>
      <trkpt lat="44.89237" lon="1.20569">
        <ele>234.6694111</ele>
        <time>2022-08-16T15:52:51Z</time>
      </trkpt>
      <trkpt lat="44.89238" lon="1.20566">
        <ele>235.5020655</ele>
        <time>2022-08-16T15:52:53Z</time>
      </trkpt>
      <trkpt lat="44.89241" lon="1.20564">
        <ele>236.2767106</ele>
        <time>2022-08-16T15:52:55Z</time>
      </trkpt>
      <trkpt lat="44.89242" lon="1.20561">
        <ele>237.3383847</ele>
        <time>2022-08-16T15:52:57Z</time>
      </trkpt>
      <trkpt lat="44.89243" lon="1.20558">
        <ele>237.6937777</ele>
        <time>2022-08-16T15:52:59Z</time>
      </trkpt>
      <trkpt lat="44.89244" lon="1.20555">
        <ele>237.4847882</ele>
        <time>2022-08-16T15:53:01Z</time>
      </trkpt>
      <trkpt lat="44.89246" lon="1.20552">
        <ele>238.4901799</ele>
        <time>2022-08-16T15:53:03Z</time>
      </trkpt>
      <trkpt lat="44.89247" lon="1.20549">
        <ele>239.1121693</ele>
        <time>2022-08-16T15:53:05Z</time>
      </trkpt>
      <trkpt lat="44.89248" lon="1.20546">
        <ele>239.714125</ele>
        <time>2022-08-16T15:53:07Z</time>
      </trkpt>
      <trkpt lat="44.8925" lon="1.20543">
        <ele>240.3418607</ele>
        <time>2022-08-16T15:53:09Z</time>
      </trkpt>
      <trkpt lat="44.89251" lon="1.2054">
        <ele>240.9826258</ele>
        <time>2022-08-16T15:53:11Z</time>
      </trkpt>
      <trkpt lat="44.89252" lon="1.20537">
        <ele>241.7291343</ele>
        <time>2022-08-16T15:53:13Z</time>
      </trkpt>
      <trkpt lat="44.89253" lon="1.20534">
        <ele>242.6440646</ele>
        <time>2022-08-16T15:53:15Z</time>
      </trkpt>
      <trkpt lat="44.89255" lon="1.20531">
        <ele>242.5412612</ele>
        <time>2022-08-16T15:53:17Z</time>
      </trkpt>
      <trkpt lat="44.89257" lon="1.20528">
        <ele>243.0247486</ele>
        <time>2022-08-16T15:53:19Z</time>
      </trkpt>
      <trkpt lat="44.89258" lon="1.20525">
        <ele>243.0354262</ele>
        <time>2022-08-16T15:53:21Z</time>
      </trkpt>
      <trkpt lat="44.8926" lon="1.20522">
        <ele>243.5304556</ele>
        <time>2022-08-16T15:53:23Z</time>
      </trkpt>
      <trkpt lat="44.89261" lon="1.20519">
        <ele>244.0929829</ele>
        <time>2022-08-16T15:53:25Z</time>
      </trkpt>
      <trkpt lat="44.89263" lon="1.20517">
        <ele>245.0875798</ele>
        <time>2022-08-16T15:53:27Z</time>
      </trkpt>
      <trkpt lat="44.89265" lon="1.20514">
        <ele>245.3551548</ele>
        <time>2022-08-16T15:53:29Z</time>
      </trkpt>
      <trkpt lat="44.89266" lon="1.20511">
        <ele>245.4072952</ele>
        <time>2022-08-16T15:53:31Z</time>
      </trkpt>
      <trkpt lat="44.89268" lon="1.20508">
        <ele>246.0214597</ele>
        <time>2022-08-16T15:53:33Z</time>
      </trkpt>
      <trkpt lat="44.8927" lon="1.20506">
        <ele>245.9440098</ele>
        <time>2022-08-16T15:53:35Z</time>
      </trkpt>
      <trkpt lat="44.89273" lon="1.20503">
        <ele>246.5856679</ele>
        <time>2022-08-16T15:53:37Z</time>
      </trkpt>
      <trkpt lat="44.89274" lon="1.205">
        <ele>246.6051328</ele>
        <time>2022-08-16T15:53:39Z</time>
      </trkpt>
      <trkpt lat="44.89277" lon="1.20498">
        <ele>246.7024869</ele>
        <time>2022-08-16T15:53:41Z</time>
      </trkpt>
      <trkpt lat="44.89279" lon="1.20497">
        <ele>246.9254745</ele>
        <time>2022-08-16T15:53:43Z</time>
      </trkpt>
      <trkpt lat="44.89281" lon="1.20495">
        <ele>247.6668333</ele>
        <time>2022-08-16T15:53:45Z</time>
      </trkpt>
      <trkpt lat="44.89283" lon="1.20493">
        <ele>248.2899186</ele>
        <time>2022-08-16T15:53:47Z</time>
      </trkpt>
      <trkpt lat="44.89286" lon="1.20491">
        <ele>248.4206268</ele>
        <time>2022-08-16T15:53:49Z</time>
      </trkpt>
      <trkpt lat="44.89288" lon="1.2049">
        <ele>247.6848056</ele>
        <time>2022-08-16T15:53:51Z</time>
      </trkpt>
      <trkpt lat="44.89291" lon="1.20489">
        <ele>247.7738392</ele>
        <time>2022-08-16T15:53:53Z</time>
      </trkpt>
      <trkpt lat="44.89293" lon="1.20491">
        <ele>247.9080045</ele>
        <time>2022-08-16T15:53:55Z</time>
      </trkpt>
      <trkpt lat="44.89295" lon="1.20493">
        <ele>248.5476202</ele>
        <time>2022-08-16T15:53:57Z</time>
      </trkpt>
      <trkpt lat="44.89298" lon="1.20495">
        <ele>248.1868491</ele>
        <time>2022-08-16T15:53:59Z</time>
      </trkpt>
      <trkpt lat="44.893" lon="1.20496">
        <ele>248.2366303</ele>
        <time>2022-08-16T15:54:01Z</time>
      </trkpt>
      <trkpt lat="44.89303" lon="1.20499">
        <ele>248.5290311</ele>
        <time>2022-08-16T15:54:03Z</time>
      </trkpt>
      <trkpt lat="44.89305" lon="1.20501">
        <ele>249.3149965</ele>
        <time>2022-08-16T15:54:05Z</time>
      </trkpt>
      <trkpt lat="44.89306" lon="1.20504">
        <ele>249.4793414</ele>
        <time>2022-08-16T15:54:07Z</time>
      </trkpt>
      <trkpt lat="44.89308" lon="1.20507">
        <ele>249.7727162</ele>
        <time>2022-08-16T15:54:09Z</time>
      </trkpt>
      <trkpt lat="44.8931" lon="1.20511">
        <ele>249.9524609</ele>
        <time>2022-08-16T15:54:11Z</time>
      </trkpt>
      <trkpt lat="44.89311" lon="1.20513">
        <ele>250.2544251</ele>
        <time>2022-08-16T15:54:13Z</time>
      </trkpt>
      <trkpt lat="44.89313" lon="1.20517">
        <ele>250.7327396</ele>
        <time>2022-08-16T15:54:15Z</time>
      </trkpt>
      <trkpt lat="44.89314" lon="1.20519">
        <ele>251.3282385</ele>
        <time>2022-08-16T15:54:17Z</time>
      </trkpt>
      <trkpt lat="44.89316" lon="1.20522">
        <ele>250.9969495</ele>
        <time>2022-08-16T15:54:19Z</time>
      </trkpt>
      <trkpt lat="44.89318" lon="1.20525">
        <ele>251.5906198</ele>
        <time>2022-08-16T15:54:21Z</time>
      </trkpt>
      <trkpt lat="44.8932" lon="1.20529">
        <ele>251.4264325</ele>
        <time>2022-08-16T15:54:23Z</time>
      </trkpt>
      <trkpt lat="44.89321" lon="1.20533">
        <ele>251.6238595</ele>
        <time>2022-08-16T15:54:25Z</time>
      </trkpt>
      <trkpt lat="44.89323" lon="1.20535">
        <ele>251.0851038</ele>
        <time>2022-08-16T15:54:27Z</time>
      </trkpt>
      <trkpt lat="44.89325" lon="1.20537">
        <ele>250.7224962</ele>
        <time>2022-08-16T15:54:29Z</time>
      </trkpt>
      <trkpt lat="44.89328" lon="1.2054">
        <ele>250.8511179</ele>
        <time>2022-08-16T15:54:31Z</time>
      </trkpt>
      <trkpt lat="44.8933" lon="1.20542">
        <ele>250.4507736</ele>
        <time>2022-08-16T15:54:33Z</time>
      </trkpt>
      <trkpt lat="44.89333" lon="1.20544">
        <ele>250.7790096</ele>
        <time>2022-08-16T15:54:35Z</time>
      </trkpt>
      <trkpt lat="44.89335" lon="1.20545">
        <ele>250.8479318</ele>
        <time>2022-08-16T15:54:37Z</time>
      </trkpt>
      <trkpt lat="44.89337" lon="1.20546">
        <ele>251.9132529</ele>
        <time>2022-08-16T15:54:39Z</time>
      </trkpt>
      <trkpt lat="44.8934" lon="1.20547">
        <ele>252.0883568</ele>
        <time>2022-08-16T15:54:41Z</time>
      </trkpt>
      <trkpt lat="44.89343" lon="1.20546">
        <ele>252.343339</ele>
        <time>2022-08-16T15:54:43Z</time>
      </trkpt>
      <trkpt lat="44.89346" lon="1.20544">
        <ele>252.130377</ele>
        <time>2022-08-16T15:54:45Z</time>
      </trkpt>
      <trkpt lat="44.89348" lon="1.20542">
        <ele>252.634907</ele>
        <time>2022-08-16T15:54:47Z</time>
      </trkpt>
      <trkpt lat="44.8935" lon="1.20539">
        <ele>252.893157</ele>
        <time>2022-08-16T15:54:49Z</time>
      </trkpt>
      <trkpt lat="44.89352" lon="1.20538">
        <ele>253.0194283</ele>
        <time>2022-08-16T15:54:51Z</time>
      </trkpt>
      <trkpt lat="44.89354" lon="1.20536">
        <ele>253.2135535</ele>
        <time>2022-08-16T15:54:53Z</time>
      </trkpt>
      <trkpt lat="44.89356" lon="1.20534">
        <ele>253.3550527</ele>
        <time>2022-08-16T15:54:55Z</time>
      </trkpt>
      <trkpt lat="44.89359" lon="1.20532">
        <ele>253.5619111</ele>
        <time>2022-08-16T15:54:57Z</time>
      </trkpt>
      <trkpt lat="44.89362" lon="1.20531">
        <ele>253.726943</ele>
        <time>2022-08-16T15:54:59Z</time>
      </trkpt>
      <trkpt lat="44.89364" lon="1.2053">
        <ele>254.7088101</ele>
        <time>2022-08-16T15:55:01Z</time>
      </trkpt>
      <trkpt lat="44.89366" lon="1.2053">
        <ele>254.7679014</ele>
        <time>2022-08-16T15:55:03Z</time>
      </trkpt>
      <trkpt lat="44.8937" lon="1.20527">
        <ele>254.9863687</ele>
        <time>2022-08-16T15:55:05Z</time>
      </trkpt>
      <trkpt lat="44.89372" lon="1.20527">
        <ele>255.6453213</ele>
        <time>2022-08-16T15:55:07Z</time>
      </trkpt>
      <trkpt lat="44.89374" lon="1.20527">
        <ele>256.4135973</ele>
        <time>2022-08-16T15:55:09Z</time>
      </trkpt>
      <trkpt lat="44.89375" lon="1.20526">
        <ele>255.8764772</ele>
        <time>2022-08-16T15:55:11Z</time>
      </trkpt>
      <trkpt lat="44.89381" lon="1.20525">
        <ele>256.7486029</ele>
        <time>2022-08-16T15:55:13Z</time>
      </trkpt>
      <trkpt lat="44.89384" lon="1.20524">
        <ele>256.4883945</ele>
        <time>2022-08-16T15:55:15Z</time>
      </trkpt>
      <trkpt lat="44.89386" lon="1.20522">
        <ele>257.2057716</ele>
        <time>2022-08-16T15:55:17Z</time>
      </trkpt>
      <trkpt lat="44.8939" lon="1.20521">
        <ele>258.0688188</ele>
        <time>2022-08-16T15:55:19Z</time>
      </trkpt>
      <trkpt lat="44.89391" lon="1.20523">
        <ele>256.5600597</ele>
        <time>2022-08-16T15:55:21Z</time>
      </trkpt>
      <trkpt lat="44.89393" lon="1.20523">
        <ele>257.0109211</ele>
        <time>2022-08-16T15:55:23Z</time>
      </trkpt>
      <trkpt lat="44.89398" lon="1.20522">
        <ele>256.6515451</ele>
        <time>2022-08-16T15:55:25Z</time>
      </trkpt>
      <trkpt lat="44.89401" lon="1.20522">
        <ele>256.5414665</ele>
        <time>2022-08-16T15:55:27Z</time>
      </trkpt>
      <trkpt lat="44.89405" lon="1.20522">
        <ele>256.7574404</ele>
        <time>2022-08-16T15:55:29Z</time>
      </trkpt>
      <trkpt lat="44.89408" lon="1.2052">
        <ele>257.8901523</ele>
        <time>2022-08-16T15:55:31Z</time>
      </trkpt>
      <trkpt lat="44.89411" lon="1.2052">
        <ele>256.5669301</ele>
        <time>2022-08-16T15:55:33Z</time>
      </trkpt>
      <trkpt lat="44.89414" lon="1.20518">
        <ele>256.7695977</ele>
        <time>2022-08-16T15:55:35Z</time>
      </trkpt>
      <trkpt lat="44.89415" lon="1.20517">
        <ele>256.7189258</ele>
        <time>2022-08-16T15:55:37Z</time>
      </trkpt>
      <trkpt lat="44.89418" lon="1.20513">
        <ele>258.2250735</ele>
        <time>2022-08-16T15:55:39Z</time>
      </trkpt>
      <trkpt lat="44.89421" lon="1.2051">
        <ele>258.5320665</ele>
        <time>2022-08-16T15:55:41Z</time>
      </trkpt>
      <trkpt lat="44.89423" lon="1.20509">
        <ele>259.7788976</ele>
        <time>2022-08-16T15:55:43Z</time>
      </trkpt>
      <trkpt lat="44.89427" lon="1.20506">
        <ele>260.0888829</ele>
        <time>2022-08-16T15:55:45Z</time>
      </trkpt>
      <trkpt lat="44.89428" lon="1.20503">
        <ele>259.6217791</ele>
        <time>2022-08-16T15:55:47Z</time>
      </trkpt>
      <trkpt lat="44.89427" lon="1.20504">
        <ele>259.5096113</ele>
        <time>2022-08-16T15:55:49Z</time>
      </trkpt>
      <trkpt lat="44.89427" lon="1.20503">
        <ele>259.5223884</ele>
        <time>2022-08-16T15:55:51Z</time>
      </trkpt>
      <trkpt lat="44.89427" lon="1.20503">
        <ele>260.0694645</ele>
        <time>2022-08-16T15:55:53Z</time>
      </trkpt>
      <trkpt lat="44.89427" lon="1.20503">
        <ele>260.5100077</ele>
        <time>2022-08-16T15:55:55Z</time>
      </trkpt>
      <trkpt lat="44.89427" lon="1.20503">
        <ele>260.923946</ele>
        <time>2022-08-16T15:55:57Z</time>
      </trkpt>
      <trkpt lat="44.89428" lon="1.20504">
        <ele>261.1095026</ele>
        <time>2022-08-16T15:55:59Z</time>
      </trkpt>
      <trkpt lat="44.89427" lon="1.20504">
        <ele>261.2663045</ele>
        <time>2022-08-16T15:56:01Z</time>
      </trkpt>
      <trkpt lat="44.89427" lon="1.20505">
        <ele>260.6807937</ele>
        <time>2022-08-16T15:56:03Z</time>
      </trkpt>
      <trkpt lat="44.89427" lon="1.20506">
        <ele>261.1512584</ele>
        <time>2022-08-16T15:56:05Z</time>
      </trkpt>
      <trkpt lat="44.89428" lon="1.20504">
        <ele>260.8615625</ele>
        <time>2022-08-16T15:56:07Z</time>
      </trkpt>
      <trkpt lat="44.89427" lon="1.20503">
        <ele>261.3531345</ele>
        <time>2022-08-16T15:56:09Z</time>
      </trkpt>
      <trkpt lat="44.89427" lon="1.20502">
        <ele>261.5512398</ele>
        <time>2022-08-16T15:56:11Z</time>
      </trkpt>
      <trkpt lat="44.89427" lon="1.20502">
        <ele>261.6339588</ele>
        <time>2022-08-16T15:56:13Z</time>
      </trkpt>
      <trkpt lat="44.89426" lon="1.20502">
        <ele>261.3098743</ele>
        <time>2022-08-16T15:56:15Z</time>
      </trkpt>
      <trkpt lat="44.89426" lon="1.20503">
        <ele>260.698433</ele>
        <time>2022-08-16T15:56:17Z</time>
      </trkpt>
      <trkpt lat="44.89428" lon="1.20503">
        <ele>260.916037</ele>
        <time>2022-08-16T15:56:19Z</time>
      </trkpt>
      <trkpt lat="44.89428" lon="1.20506">
        <ele>261.1029084</ele>
        <time>2022-08-16T15:56:21Z</time>
      </trkpt>
      <trkpt lat="44.89431" lon="1.20506">
        <ele>260.2301121</ele>
        <time>2022-08-16T15:56:23Z</time>
      </trkpt>
      <trkpt lat="44.89434" lon="1.20506">
        <ele>260.8334824</ele>
        <time>2022-08-16T15:56:25Z</time>
      </trkpt>
      <trkpt lat="44.89436" lon="1.20504">
        <ele>261.0553177</ele>
        <time>2022-08-16T15:56:27Z</time>
      </trkpt>
      <trkpt lat="44.89439" lon="1.20502">
        <ele>260.9138595</ele>
        <time>2022-08-16T15:56:29Z</time>
      </trkpt>
      <trkpt lat="44.89443" lon="1.20501">
        <ele>261.4903415</ele>
        <time>2022-08-16T15:56:31Z</time>
      </trkpt>
      <trkpt lat="44.89444" lon="1.205">
        <ele>261.1688597</ele>
        <time>2022-08-16T15:56:33Z</time>
      </trkpt>
      <trkpt lat="44.89447" lon="1.205">
        <ele>262.0364488</ele>
        <time>2022-08-16T15:56:35Z</time>
      </trkpt>
      <trkpt lat="44.89449" lon="1.205">
        <ele>262.2405422</ele>
        <time>2022-08-16T15:56:37Z</time>
      </trkpt>
      <trkpt lat="44.89452" lon="1.20499">
        <ele>262.2154539</ele>
        <time>2022-08-16T15:56:39Z</time>
      </trkpt>
      <trkpt lat="44.89455" lon="1.20499">
        <ele>262.6343074</ele>
        <time>2022-08-16T15:56:41Z</time>
      </trkpt>
      <trkpt lat="44.89459" lon="1.20497">
        <ele>262.3643171</ele>
        <time>2022-08-16T15:56:43Z</time>
      </trkpt>
      <trkpt lat="44.89462" lon="1.20495">
        <ele>261.2352527</ele>
        <time>2022-08-16T15:56:45Z</time>
      </trkpt>
      <trkpt lat="44.89465" lon="1.20495">
        <ele>262.490018</ele>
        <time>2022-08-16T15:56:47Z</time>
      </trkpt>
      <trkpt lat="44.89467" lon="1.20495">
        <ele>262.2960079</ele>
        <time>2022-08-16T15:56:49Z</time>
      </trkpt>
      <trkpt lat="44.8947" lon="1.20495">
        <ele>262.0588254</ele>
        <time>2022-08-16T15:56:51Z</time>
      </trkpt>
      <trkpt lat="44.89473" lon="1.20494">
        <ele>262.1810853</ele>
        <time>2022-08-16T15:56:53Z</time>
      </trkpt>
      <trkpt lat="44.89473" lon="1.20493">
        <ele>262.7692573</ele>
        <time>2022-08-16T15:56:55Z</time>
      </trkpt>
      <trkpt lat="44.89473" lon="1.20493">
        <ele>262.9401881</ele>
        <time>2022-08-16T15:56:57Z</time>
      </trkpt>
      <trkpt lat="44.89473" lon="1.20494">
        <ele>263.470201</ele>
        <time>2022-08-16T15:56:59Z</time>
      </trkpt>
      <trkpt lat="44.89474" lon="1.20493">
        <ele>263.9715907</ele>
        <time>2022-08-16T15:57:01Z</time>
      </trkpt>
      <trkpt lat="44.89474" lon="1.20492">
        <ele>264.1536227</ele>
        <time>2022-08-16T15:57:03Z</time>
      </trkpt>
      <trkpt lat="44.89474" lon="1.20492">
        <ele>264.1218065</ele>
        <time>2022-08-16T15:57:05Z</time>
      </trkpt>
      <trkpt lat="44.89474" lon="1.20491">
        <ele>263.7957153</ele>
        <time>2022-08-16T15:57:07Z</time>
      </trkpt>
      <trkpt lat="44.89475" lon="1.2049">
        <ele>263.7467372</ele>
        <time>2022-08-16T15:57:09Z</time>
      </trkpt>
      <trkpt lat="44.89476" lon="1.2049">
        <ele>264.0258572</ele>
        <time>2022-08-16T15:57:11Z</time>
      </trkpt>
      <trkpt lat="44.89477" lon="1.20489">
        <ele>264.4887973</ele>
        <time>2022-08-16T15:57:13Z</time>
      </trkpt>
      <trkpt lat="44.89477" lon="1.2049">
        <ele>264.6838342</ele>
        <time>2022-08-16T15:57:15Z</time>
      </trkpt>
      <trkpt lat="44.89477" lon="1.2049">
        <ele>263.806405</ele>
        <time>2022-08-16T15:57:17Z</time>
      </trkpt>
      <trkpt lat="44.89477" lon="1.2049">
        <ele>264.1232833</ele>
        <time>2022-08-16T15:57:19Z</time>
      </trkpt>
      <trkpt lat="44.89476" lon="1.2049">
        <ele>263.8431901</ele>
        <time>2022-08-16T15:57:21Z</time>
      </trkpt>
      <trkpt lat="44.89478" lon="1.20488">
        <ele>263.5969025</ele>
        <time>2022-08-16T15:57:23Z</time>
      </trkpt>
      <trkpt lat="44.89481" lon="1.20487">
        <ele>264.4829123</ele>
        <time>2022-08-16T15:57:25Z</time>
      </trkpt>
      <trkpt lat="44.89483" lon="1.20486">
        <ele>263.982871</ele>
        <time>2022-08-16T15:57:27Z</time>
      </trkpt>
      <trkpt lat="44.89487" lon="1.20486">
        <ele>263.8181136</ele>
        <time>2022-08-16T15:57:29Z</time>
      </trkpt>
      <trkpt lat="44.8949" lon="1.20485">
        <ele>263.7893804</ele>
        <time>2022-08-16T15:57:31Z</time>
      </trkpt>
      <trkpt lat="44.89494" lon="1.20483">
        <ele>263.6899885</ele>
        <time>2022-08-16T15:57:33Z</time>
      </trkpt>
      <trkpt lat="44.89498" lon="1.20482">
        <ele>263.8227561</ele>
        <time>2022-08-16T15:57:35Z</time>
      </trkpt>
      <trkpt lat="44.89503" lon="1.20482">
        <ele>263.3262891</ele>
        <time>2022-08-16T15:57:37Z</time>
      </trkpt>
      <trkpt lat="44.89506" lon="1.2048">
        <ele>263.2619914</ele>
        <time>2022-08-16T15:57:39Z</time>
      </trkpt>
      <trkpt lat="44.89509" lon="1.2048">
        <ele>262.8819495</ele>
        <time>2022-08-16T15:57:41Z</time>
      </trkpt>
      <trkpt lat="44.89513" lon="1.20478">
        <ele>263.4283837</ele>
        <time>2022-08-16T15:57:43Z</time>
      </trkpt>
      <trkpt lat="44.89517" lon="1.20476">
        <ele>262.6705204</ele>
        <time>2022-08-16T15:57:45Z</time>
      </trkpt>
      <trkpt lat="44.89521" lon="1.20475">
        <ele>263.0639785</ele>
        <time>2022-08-16T15:57:47Z</time>
      </trkpt>
      <trkpt lat="44.89525" lon="1.20474">
        <ele>262.4664287</ele>
        <time>2022-08-16T15:57:49Z</time>
      </trkpt>
      <trkpt lat="44.89527" lon="1.20474">
        <ele>262.6851555</ele>
        <time>2022-08-16T15:57:51Z</time>
      </trkpt>
      <trkpt lat="44.89527" lon="1.20474">
        <ele>263.2594011</ele>
        <time>2022-08-16T15:57:53Z</time>
      </trkpt>
      <trkpt lat="44.89527" lon="1.20475">
        <ele>263.0447821</ele>
        <time>2022-08-16T15:57:55Z</time>
      </trkpt>
      <trkpt lat="44.89526" lon="1.20475">
        <ele>263.4965494</ele>
        <time>2022-08-16T15:57:57Z</time>
      </trkpt>
      <trkpt lat="44.89525" lon="1.20475">
        <ele>264.4365756</ele>
        <time>2022-08-16T15:57:59Z</time>
      </trkpt>
      <trkpt lat="44.89528" lon="1.20473">
        <ele>263.761952</ele>
        <time>2022-08-16T15:58:01Z</time>
      </trkpt>
      <trkpt lat="44.8953" lon="1.20471">
        <ele>264.3758581</ele>
        <time>2022-08-16T15:58:03Z</time>
      </trkpt>
      <trkpt lat="44.89533" lon="1.20469">
        <ele>264.5325699</ele>
        <time>2022-08-16T15:58:05Z</time>
      </trkpt>
      <trkpt lat="44.89538" lon="1.20467">
        <ele>264.3470626</ele>
        <time>2022-08-16T15:58:07Z</time>
      </trkpt>
      <trkpt lat="44.89541" lon="1.20465">
        <ele>264.254682</ele>
        <time>2022-08-16T15:58:09Z</time>
      </trkpt>
      <trkpt lat="44.89545" lon="1.20463">
        <ele>263.9577142</ele>
        <time>2022-08-16T15:58:11Z</time>
      </trkpt>
      <trkpt lat="44.8955" lon="1.20463">
        <ele>265.0071232</ele>
        <time>2022-08-16T15:58:13Z</time>
      </trkpt>
      <trkpt lat="44.89554" lon="1.20461">
        <ele>264.2374206</ele>
        <time>2022-08-16T15:58:15Z</time>
      </trkpt>
      <trkpt lat="44.89558" lon="1.2046">
        <ele>264.2805221</ele>
        <time>2022-08-16T15:58:17Z</time>
      </trkpt>
      <trkpt lat="44.89562" lon="1.20458">
        <ele>263.984495</ele>
        <time>2022-08-16T15:58:19Z</time>
      </trkpt>
      <trkpt lat="44.89566" lon="1.20456">
        <ele>263.8842582</ele>
        <time>2022-08-16T15:58:21Z</time>
      </trkpt>
      <trkpt lat="44.89571" lon="1.20454">
        <ele>264.2175549</ele>
        <time>2022-08-16T15:58:23Z</time>
      </trkpt>
      <trkpt lat="44.89576" lon="1.20453">
        <ele>264.8450781</ele>
        <time>2022-08-16T15:58:25Z</time>
      </trkpt>
      <trkpt lat="44.89581" lon="1.20451">
        <ele>264.9731107</ele>
        <time>2022-08-16T15:58:27Z</time>
      </trkpt>
      <trkpt lat="44.89585" lon="1.20448">
        <ele>265.1118584</ele>
        <time>2022-08-16T15:58:29Z</time>
      </trkpt>
      <trkpt lat="44.89591" lon="1.20445">
        <ele>265.2869697</ele>
        <time>2022-08-16T15:58:31Z</time>
      </trkpt>
      <trkpt lat="44.89598" lon="1.20444">
        <ele>264.5460575</ele>
        <time>2022-08-16T15:58:33Z</time>
      </trkpt>
      <trkpt lat="44.89605" lon="1.20441">
        <ele>264.3610411</ele>
        <time>2022-08-16T15:58:35Z</time>
      </trkpt>
      <trkpt lat="44.89614" lon="1.20437">
        <ele>263.7394634</ele>
        <time>2022-08-16T15:58:37Z</time>
      </trkpt>
      <trkpt lat="44.89623" lon="1.20435">
        <ele>264.101893</ele>
        <time>2022-08-16T15:58:39Z</time>
      </trkpt>
      <trkpt lat="44.8963" lon="1.20433">
        <ele>264.5345278</ele>
        <time>2022-08-16T15:58:41Z</time>
      </trkpt>
      <trkpt lat="44.89635" lon="1.20432">
        <ele>264.2352918</ele>
        <time>2022-08-16T15:58:43Z</time>
      </trkpt>
      <trkpt lat="44.89642" lon="1.20431">
        <ele>264.7780137</ele>
        <time>2022-08-16T15:58:45Z</time>
      </trkpt>
      <trkpt lat="44.89647" lon="1.20429">
        <ele>264.8081686</ele>
        <time>2022-08-16T15:58:47Z</time>
      </trkpt>
      <trkpt lat="44.89654" lon="1.20426">
        <ele>264.9515487</ele>
        <time>2022-08-16T15:58:49Z</time>
      </trkpt>
      <trkpt lat="44.89658" lon="1.20425">
        <ele>264.8882409</ele>
        <time>2022-08-16T15:58:51Z</time>
      </trkpt>
      <trkpt lat="44.89663" lon="1.20423">
        <ele>264.5353615</ele>
        <time>2022-08-16T15:58:53Z</time>
      </trkpt>
      <trkpt lat="44.89669" lon="1.20424">
        <ele>263.3732661</ele>
        <time>2022-08-16T15:58:55Z</time>
      </trkpt>
      <trkpt lat="44.89676" lon="1.20424">
        <ele>261.9417663</ele>
        <time>2022-08-16T15:58:57Z</time>
      </trkpt>
      <trkpt lat="44.89683" lon="1.20421">
        <ele>262.4717033</ele>
        <time>2022-08-16T15:58:59Z</time>
      </trkpt>
      <trkpt lat="44.89689" lon="1.2042">
        <ele>263.2060053</ele>
        <time>2022-08-16T15:59:01Z</time>
      </trkpt>
      <trkpt lat="44.89695" lon="1.2042">
        <ele>263.4840449</ele>
        <time>2022-08-16T15:59:03Z</time>
      </trkpt>
      <trkpt lat="44.89702" lon="1.20418">
        <ele>263.959812</ele>
        <time>2022-08-16T15:59:05Z</time>
      </trkpt>
      <trkpt lat="44.89708" lon="1.20417">
        <ele>264.129684</ele>
        <time>2022-08-16T15:59:07Z</time>
      </trkpt>
      <trkpt lat="44.89714" lon="1.20417">
        <ele>264.4026073</ele>
        <time>2022-08-16T15:59:09Z</time>
      </trkpt>
      <trkpt lat="44.89721" lon="1.20416">
        <ele>265.4935053</ele>
        <time>2022-08-16T15:59:11Z</time>
      </trkpt>
      <trkpt lat="44.89727" lon="1.20416">
        <ele>266.0480599</ele>
        <time>2022-08-16T15:59:13Z</time>
      </trkpt>
      <trkpt lat="44.89735" lon="1.20415">
        <ele>266.5407724</ele>
        <time>2022-08-16T15:59:15Z</time>
      </trkpt>
      <trkpt lat="44.89741" lon="1.20414">
        <ele>265.8206947</ele>
        <time>2022-08-16T15:59:17Z</time>
      </trkpt>
      <trkpt lat="44.89751" lon="1.2041">
        <ele>265.2015026</ele>
        <time>2022-08-16T15:59:19Z</time>
      </trkpt>
      <trkpt lat="44.8976" lon="1.20407">
        <ele>264.273936</ele>
        <time>2022-08-16T15:59:21Z</time>
      </trkpt>
      <trkpt lat="44.89768" lon="1.20405">
        <ele>264.7602114</ele>
        <time>2022-08-16T15:59:23Z</time>
      </trkpt>
      <trkpt lat="44.89776" lon="1.20402">
        <ele>265.5180425</ele>
        <time>2022-08-16T15:59:25Z</time>
      </trkpt>
      <trkpt lat="44.89783" lon="1.204">
        <ele>264.8844495</ele>
        <time>2022-08-16T15:59:27Z</time>
      </trkpt>
      <trkpt lat="44.8979" lon="1.20398">
        <ele>264.686057</ele>
        <time>2022-08-16T15:59:29Z</time>
      </trkpt>
      <trkpt lat="44.89797" lon="1.20395">
        <ele>265.3207834</ele>
        <time>2022-08-16T15:59:31Z</time>
      </trkpt>
      <trkpt lat="44.89802" lon="1.20391">
        <ele>265.7805591</ele>
        <time>2022-08-16T15:59:33Z</time>
      </trkpt>
      <trkpt lat="44.89807" lon="1.20386">
        <ele>266.5403972</ele>
        <time>2022-08-16T15:59:35Z</time>
      </trkpt>
      <trkpt lat="44.89811" lon="1.20382">
        <ele>266.8576679</ele>
        <time>2022-08-16T15:59:37Z</time>
      </trkpt>
      <trkpt lat="44.89815" lon="1.20378">
        <ele>266.6388091</ele>
        <time>2022-08-16T15:59:39Z</time>
      </trkpt>
      <trkpt lat="44.89819" lon="1.20373">
        <ele>267.1570813</ele>
        <time>2022-08-16T15:59:41Z</time>
      </trkpt>
      <trkpt lat="44.89823" lon="1.20369">
        <ele>267.14619</ele>
        <time>2022-08-16T15:59:43Z</time>
      </trkpt>
      <trkpt lat="44.89827" lon="1.20365">
        <ele>267.4734402</ele>
        <time>2022-08-16T15:59:45Z</time>
      </trkpt>
      <trkpt lat="44.89832" lon="1.20362">
        <ele>266.986015</ele>
        <time>2022-08-16T15:59:47Z</time>
      </trkpt>
      <trkpt lat="44.89837" lon="1.20359">
        <ele>267.23701</ele>
        <time>2022-08-16T15:59:49Z</time>
      </trkpt>
      <trkpt lat="44.89841" lon="1.20356">
        <ele>267.0840529</ele>
        <time>2022-08-16T15:59:51Z</time>
      </trkpt>
      <trkpt lat="44.89847" lon="1.20353">
        <ele>266.6636597</ele>
        <time>2022-08-16T15:59:53Z</time>
      </trkpt>
      <trkpt lat="44.89852" lon="1.2035">
        <ele>266.4334201</ele>
        <time>2022-08-16T15:59:55Z</time>
      </trkpt>
      <trkpt lat="44.89857" lon="1.20349">
        <ele>267.3290589</ele>
        <time>2022-08-16T15:59:57Z</time>
      </trkpt>
      <trkpt lat="44.89862" lon="1.20348">
        <ele>267.4628258</ele>
        <time>2022-08-16T15:59:59Z</time>
      </trkpt>
      <trkpt lat="44.89866" lon="1.20347">
        <ele>267.9227029</ele>
        <time>2022-08-16T16:00:01Z</time>
      </trkpt>
      <trkpt lat="44.89871" lon="1.20346">
        <ele>267.2935106</ele>
        <time>2022-08-16T16:00:03Z</time>
      </trkpt>
      <trkpt lat="44.89875" lon="1.20344">
        <ele>267.4752385</ele>
        <time>2022-08-16T16:00:05Z</time>
      </trkpt>
      <trkpt lat="44.89881" lon="1.20343">
        <ele>266.9675469</ele>
        <time>2022-08-16T16:00:07Z</time>
      </trkpt>
      <trkpt lat="44.89887" lon="1.20341">
        <ele>266.943875</ele>
        <time>2022-08-16T16:00:09Z</time>
      </trkpt>
      <trkpt lat="44.89893" lon="1.20339">
        <ele>266.6122339</ele>
        <time>2022-08-16T16:00:11Z</time>
      </trkpt>
      <trkpt lat="44.89899" lon="1.20337">
        <ele>265.9414237</ele>
        <time>2022-08-16T16:00:13Z</time>
      </trkpt>
      <trkpt lat="44.89906" lon="1.20335">
        <ele>266.0967902</ele>
        <time>2022-08-16T16:00:15Z</time>
      </trkpt>
      <trkpt lat="44.89913" lon="1.20334">
        <ele>265.7745884</ele>
        <time>2022-08-16T16:00:17Z</time>
      </trkpt>
      <trkpt lat="44.8992" lon="1.20332">
        <ele>265.6876487</ele>
        <time>2022-08-16T16:00:19Z</time>
      </trkpt>
      <trkpt lat="44.89927" lon="1.2033">
        <ele>265.8411968</ele>
        <time>2022-08-16T16:00:21Z</time>
      </trkpt>
      <trkpt lat="44.89933" lon="1.20329">
        <ele>265.4648059</ele>
        <time>2022-08-16T16:00:23Z</time>
      </trkpt>
      <trkpt lat="44.89941" lon="1.20328">
        <ele>264.9963254</ele>
        <time>2022-08-16T16:00:25Z</time>
      </trkpt>
      <trkpt lat="44.89947" lon="1.20327">
        <ele>265.9573442</ele>
        <time>2022-08-16T16:00:27Z</time>
      </trkpt>
      <trkpt lat="44.89954" lon="1.20325">
        <ele>265.9757745</ele>
        <time>2022-08-16T16:00:29Z</time>
      </trkpt>
      <trkpt lat="44.89962" lon="1.20323">
        <ele>265.0317058</ele>
        <time>2022-08-16T16:00:31Z</time>
      </trkpt>
      <trkpt lat="44.8997" lon="1.20321">
        <ele>264.658352</ele>
        <time>2022-08-16T16:00:33Z</time>
      </trkpt>
      <trkpt lat="44.89979" lon="1.20319">
        <ele>264.1122063</ele>
        <time>2022-08-16T16:00:35Z</time>
      </trkpt>
      <trkpt lat="44.89988" lon="1.20317">
        <ele>263.8383852</ele>
        <time>2022-08-16T16:00:37Z</time>
      </trkpt>
      <trkpt lat="44.89997" lon="1.20314">
        <ele>263.7126206</ele>
        <time>2022-08-16T16:00:39Z</time>
      </trkpt>
      <trkpt lat="44.90007" lon="1.2031">
        <ele>261.4830016</ele>
        <time>2022-08-16T16:00:41Z</time>
      </trkpt>
      <trkpt lat="44.9002" lon="1.20309">
        <ele>261.95533</ele>
        <time>2022-08-16T16:00:43Z</time>
      </trkpt>
      <trkpt lat="44.90032" lon="1.20307">
        <ele>261.6159638</ele>
        <time>2022-08-16T16:00:45Z</time>
      </trkpt>
      <trkpt lat="44.90045" lon="1.20303">
        <ele>261.0105384</ele>
        <time>2022-08-16T16:00:47Z</time>
      </trkpt>
      <trkpt lat="44.90056" lon="1.20299">
        <ele>260.7097515</ele>
        <time>2022-08-16T16:00:49Z</time>
      </trkpt>
      <trkpt lat="44.90066" lon="1.20293">
        <ele>261.1715923</ele>
        <time>2022-08-16T16:00:51Z</time>
      </trkpt>
      <trkpt lat="44.90075" lon="1.20286">
        <ele>261.4180723</ele>
        <time>2022-08-16T16:00:53Z</time>
      </trkpt>
      <trkpt lat="44.90082" lon="1.20279">
        <ele>262.0713737</ele>
        <time>2022-08-16T16:00:55Z</time>
      </trkpt>
      <trkpt lat="44.90087" lon="1.20272">
        <ele>264.7330633</ele>
        <time>2022-08-16T16:00:57Z</time>
      </trkpt>
      <trkpt lat="44.90092" lon="1.20264">
        <ele>263.8703996</ele>
        <time>2022-08-16T16:00:59Z</time>
      </trkpt>
      <trkpt lat="44.90096" lon="1.20256">
        <ele>264.2132912</ele>
        <time>2022-08-16T16:01:01Z</time>
      </trkpt>
      <trkpt lat="44.90101" lon="1.20248">
        <ele>264.2311645</ele>
        <time>2022-08-16T16:01:03Z</time>
      </trkpt>
      <trkpt lat="44.90105" lon="1.20239">
        <ele>264.4890306</ele>
        <time>2022-08-16T16:01:05Z</time>
      </trkpt>
      <trkpt lat="44.90108" lon="1.20229">
        <ele>262.8496366</ele>
        <time>2022-08-16T16:01:07Z</time>
      </trkpt>
      <trkpt lat="44.90113" lon="1.20221">
        <ele>263.9615747</ele>
        <time>2022-08-16T16:01:09Z</time>
      </trkpt>
      <trkpt lat="44.90118" lon="1.20214">
        <ele>264.2941891</ele>
        <time>2022-08-16T16:01:11Z</time>
      </trkpt>
      <trkpt lat="44.90122" lon="1.20207">
        <ele>264.4380607</ele>
        <time>2022-08-16T16:01:13Z</time>
      </trkpt>
      <trkpt lat="44.90125" lon="1.202">
        <ele>264.7048498</ele>
        <time>2022-08-16T16:01:15Z</time>
      </trkpt>
      <trkpt lat="44.90127" lon="1.20194">
        <ele>264.7033137</ele>
        <time>2022-08-16T16:01:17Z</time>
      </trkpt>
      <trkpt lat="44.9013" lon="1.20187">
        <ele>265.196076</ele>
        <time>2022-08-16T16:01:19Z</time>
      </trkpt>
      <trkpt lat="44.90132" lon="1.20179">
        <ele>265.4572759</ele>
        <time>2022-08-16T16:01:21Z</time>
      </trkpt>
      <trkpt lat="44.90136" lon="1.20172">
        <ele>265.5436727</ele>
        <time>2022-08-16T16:01:23Z</time>
      </trkpt>
      <trkpt lat="44.90139" lon="1.20164">
        <ele>266.0583774</ele>
        <time>2022-08-16T16:01:25Z</time>
      </trkpt>
      <trkpt lat="44.90141" lon="1.20158">
        <ele>266.2673798</ele>
        <time>2022-08-16T16:01:27Z</time>
      </trkpt>
      <trkpt lat="44.90143" lon="1.20154">
        <ele>266.6929456</ele>
        <time>2022-08-16T16:01:29Z</time>
      </trkpt>
      <trkpt lat="44.90147" lon="1.20148">
        <ele>266.8788923</ele>
        <time>2022-08-16T16:01:31Z</time>
      </trkpt>
      <trkpt lat="44.90151" lon="1.20142">
        <ele>267.2628013</ele>
        <time>2022-08-16T16:01:33Z</time>
      </trkpt>
      <trkpt lat="44.90156" lon="1.20138">
        <ele>266.2171397</ele>
        <time>2022-08-16T16:01:35Z</time>
      </trkpt>
      <trkpt lat="44.90162" lon="1.20129">
        <ele>266.933632</ele>
        <time>2022-08-16T16:01:37Z</time>
      </trkpt>
      <trkpt lat="44.90166" lon="1.20124">
        <ele>266.8969051</ele>
        <time>2022-08-16T16:01:39Z</time>
      </trkpt>
      <trkpt lat="44.90169" lon="1.20117">
        <ele>266.8348991</ele>
        <time>2022-08-16T16:01:41Z</time>
      </trkpt>
      <trkpt lat="44.90175" lon="1.20109">
        <ele>268.0068971</ele>
        <time>2022-08-16T16:01:43Z</time>
      </trkpt>
      <trkpt lat="44.90177" lon="1.20104">
        <ele>267.7102438</ele>
        <time>2022-08-16T16:01:45Z</time>
      </trkpt>
      <trkpt lat="44.90178" lon="1.20097">
        <ele>267.9462918</ele>
        <time>2022-08-16T16:01:47Z</time>
      </trkpt>
      <trkpt lat="44.9018" lon="1.2009">
        <ele>268.0657714</ele>
        <time>2022-08-16T16:01:49Z</time>
      </trkpt>
      <trkpt lat="44.90183" lon="1.20081">
        <ele>266.8489839</ele>
        <time>2022-08-16T16:01:51Z</time>
      </trkpt>
      <trkpt lat="44.90189" lon="1.20073">
        <ele>266.5139363</ele>
        <time>2022-08-16T16:01:53Z</time>
      </trkpt>
      <trkpt lat="44.90191" lon="1.2006">
        <ele>265.964262</ele>
        <time>2022-08-16T16:01:55Z</time>
      </trkpt>
      <trkpt lat="44.90193" lon="1.20038">
        <ele>261.9580179</ele>
        <time>2022-08-16T16:01:57Z</time>
      </trkpt>
      <trkpt lat="44.90194" lon="1.20019">
        <ele>260.6611821</ele>
        <time>2022-08-16T16:01:59Z</time>
      </trkpt>
      <trkpt lat="44.90195" lon="1.2">
        <ele>259.505085</ele>
        <time>2022-08-16T16:02:01Z</time>
      </trkpt>
      <trkpt lat="44.90196" lon="1.19979">
        <ele>257.9813772</ele>
        <time>2022-08-16T16:02:03Z</time>
      </trkpt>
      <trkpt lat="44.902" lon="1.19955">
        <ele>256.8143053</ele>
        <time>2022-08-16T16:02:05Z</time>
      </trkpt>
      <trkpt lat="44.90201" lon="1.19937">
        <ele>256.2295653</ele>
        <time>2022-08-16T16:02:07Z</time>
      </trkpt>
      <trkpt lat="44.90202" lon="1.19919">
        <ele>255.4464002</ele>
        <time>2022-08-16T16:02:09Z</time>
      </trkpt>
      <trkpt lat="44.90206" lon="1.199">
        <ele>254.2544297</ele>
        <time>2022-08-16T16:02:11Z</time>
      </trkpt>
      <trkpt lat="44.9021" lon="1.19883">
        <ele>253.234463</ele>
        <time>2022-08-16T16:02:13Z</time>
      </trkpt>
      <trkpt lat="44.90216" lon="1.19867">
        <ele>251.7823794</ele>
        <time>2022-08-16T16:02:15Z</time>
      </trkpt>
      <trkpt lat="44.90225" lon="1.19857">
        <ele>249.2442551</ele>
        <time>2022-08-16T16:02:17Z</time>
      </trkpt>
      <trkpt lat="44.90233" lon="1.19842">
        <ele>247.2996603</ele>
        <time>2022-08-16T16:02:19Z</time>
      </trkpt>
      <trkpt lat="44.9024" lon="1.19827">
        <ele>246.1041706</ele>
        <time>2022-08-16T16:02:21Z</time>
      </trkpt>
      <trkpt lat="44.9025" lon="1.19816">
        <ele>245.0208764</ele>
        <time>2022-08-16T16:02:23Z</time>
      </trkpt>
      <trkpt lat="44.90261" lon="1.19807">
        <ele>243.4248798</ele>
        <time>2022-08-16T16:02:25Z</time>
      </trkpt>
      <trkpt lat="44.90272" lon="1.19799">
        <ele>242.0659617</ele>
        <time>2022-08-16T16:02:27Z</time>
      </trkpt>
      <trkpt lat="44.90279" lon="1.1979">
        <ele>240.6756989</ele>
        <time>2022-08-16T16:02:29Z</time>
      </trkpt>
      <trkpt lat="44.90286" lon="1.1978">
        <ele>238.9505328</ele>
        <time>2022-08-16T16:02:31Z</time>
      </trkpt>
      <trkpt lat="44.9029" lon="1.1977">
        <ele>238.3363284</ele>
        <time>2022-08-16T16:02:33Z</time>
      </trkpt>
      <trkpt lat="44.90292" lon="1.19762">
        <ele>238.0194658</ele>
        <time>2022-08-16T16:02:35Z</time>
      </trkpt>
      <trkpt lat="44.90293" lon="1.19755">
        <ele>237.4868101</ele>
        <time>2022-08-16T16:02:37Z</time>
      </trkpt>
      <trkpt lat="44.90296" lon="1.1975">
        <ele>237.8955706</ele>
        <time>2022-08-16T16:02:39Z</time>
      </trkpt>
      <trkpt lat="44.90296" lon="1.1975">
        <ele>237.4024048</ele>
        <time>2022-08-16T16:02:41Z</time>
      </trkpt>
      <trkpt lat="44.90296" lon="1.19748">
        <ele>237.906514</ele>
        <time>2022-08-16T16:02:43Z</time>
      </trkpt>
      <trkpt lat="44.90296" lon="1.19749">
        <ele>237.914103</ele>
        <time>2022-08-16T16:02:45Z</time>
      </trkpt>
      <trkpt lat="44.90297" lon="1.19748">
        <ele>237.9994528</ele>
        <time>2022-08-16T16:02:47Z</time>
      </trkpt>
      <trkpt lat="44.90296" lon="1.19748">
        <ele>237.2347054</ele>
        <time>2022-08-16T16:02:49Z</time>
      </trkpt>
      <trkpt lat="44.90296" lon="1.19747">
        <ele>237.4073897</ele>
        <time>2022-08-16T16:02:51Z</time>
      </trkpt>
      <trkpt lat="44.90295" lon="1.19747">
        <ele>237.8683036</ele>
        <time>2022-08-16T16:02:53Z</time>
      </trkpt>
      <trkpt lat="44.90295" lon="1.19747">
        <ele>237.8683036</ele>
        <time>2022-08-16T16:02:57Z</time>
      </trkpt>
      <trkpt lat="44.90295" lon="1.19747">
        <ele>237.8683036</ele>
        <time>2022-08-16T16:03:01Z</time>
      </trkpt>
      <trkpt lat="44.90295" lon="1.19747">
        <ele>237.8683036</ele>
        <time>2022-08-16T16:03:05Z</time>
      </trkpt>
      <trkpt lat="44.90295" lon="1.19747">
        <ele>237.8683036</ele>
        <time>2022-08-16T16:03:09Z</time>
      </trkpt>
      <trkpt lat="44.90295" lon="1.19747">
        <ele>237.8683036</ele>
        <time>2022-08-16T16:03:13Z</time>
      </trkpt>
      <trkpt lat="44.90296" lon="1.19743">
        <ele>237.624913</ele>
        <time>2022-08-16T16:03:17Z</time>
      </trkpt>
      <trkpt lat="44.90296" lon="1.19743">
        <ele>237.8175924</ele>
        <time>2022-08-16T16:03:19Z</time>
      </trkpt>
      <trkpt lat="44.90296" lon="1.19743">
        <ele>238.1174124</ele>
        <time>2022-08-16T16:03:21Z</time>
      </trkpt>
      <trkpt lat="44.90296" lon="1.19743">
        <ele>237.8368872</ele>
        <time>2022-08-16T16:03:23Z</time>
      </trkpt>
      <trkpt lat="44.90296" lon="1.19743">
        <ele>237.5773912</ele>
        <time>2022-08-16T16:03:27Z</time>
      </trkpt>
      <trkpt lat="44.90296" lon="1.19743">
        <ele>237.7333767</ele>
        <time>2022-08-16T16:03:29Z</time>
      </trkpt>
      <trkpt lat="44.90296" lon="1.19742">
        <ele>237.9187602</ele>
        <time>2022-08-16T16:03:31Z</time>
      </trkpt>
      <trkpt lat="44.90296" lon="1.19741">
        <ele>238.0386321</ele>
        <time>2022-08-16T16:03:33Z</time>
      </trkpt>
      <trkpt lat="44.90296" lon="1.19741">
        <ele>237.977899</ele>
        <time>2022-08-16T16:03:35Z</time>
      </trkpt>
      <trkpt lat="44.90296" lon="1.1974">
        <ele>237.5080247</ele>
        <time>2022-08-16T16:03:37Z</time>
      </trkpt>
      <trkpt lat="44.90296" lon="1.19739">
        <ele>237.6771167</ele>
        <time>2022-08-16T16:03:39Z</time>
      </trkpt>
      <trkpt lat="44.90296" lon="1.19738">
        <ele>237.7819571</ele>
        <time>2022-08-16T16:03:41Z</time>
      </trkpt>
      <trkpt lat="44.90297" lon="1.19737">
        <ele>238.3436807</ele>
        <time>2022-08-16T16:03:43Z</time>
      </trkpt>
      <trkpt lat="44.90297" lon="1.19737">
        <ele>238.3406443</ele>
        <time>2022-08-16T16:03:45Z</time>
      </trkpt>
      <trkpt lat="44.90297" lon="1.19738">
        <ele>238.6002329</ele>
        <time>2022-08-16T16:03:47Z</time>
      </trkpt>
      <trkpt lat="44.90297" lon="1.19738">
        <ele>238.6002329</ele>
        <time>2022-08-16T16:03:51Z</time>
      </trkpt>
      <trkpt lat="44.90297" lon="1.19738">
        <ele>238.6002329</ele>
        <time>2022-08-16T16:03:55Z</time>
      </trkpt>
      <trkpt lat="44.90297" lon="1.19737">
        <ele>242.546071</ele>
        <time>2022-08-16T16:03:57Z</time>
      </trkpt>
      <trkpt lat="44.90297" lon="1.19737">
        <ele>241.9550837</ele>
        <time>2022-08-16T16:03:59Z</time>
      </trkpt>
      <trkpt lat="44.90297" lon="1.19737">
        <ele>241.4136688</ele>
        <time>2022-08-16T16:04:01Z</time>
      </trkpt>
      <trkpt lat="44.90297" lon="1.19737">
        <ele>240.8182907</ele>
        <time>2022-08-16T16:04:03Z</time>
      </trkpt>
      <trkpt lat="44.90297" lon="1.19738">
        <ele>240.2159504</ele>
        <time>2022-08-16T16:04:05Z</time>
      </trkpt>
      <trkpt lat="44.90297" lon="1.19738">
        <ele>240.2159504</ele>
        <time>2022-08-16T16:04:09Z</time>
      </trkpt>
      <trkpt lat="44.90297" lon="1.19738">
        <ele>240.2159504</ele>
        <time>2022-08-16T16:04:13Z</time>
      </trkpt>
      <trkpt lat="44.90297" lon="1.19739">
        <ele>239.2902315</ele>
        <time>2022-08-16T16:04:17Z</time>
      </trkpt>
      <trkpt lat="44.90297" lon="1.19739">
        <ele>239.2582804</ele>
        <time>2022-08-16T16:04:19Z</time>
      </trkpt>
      <trkpt lat="44.90297" lon="1.1974">
        <ele>237.9399361</ele>
        <time>2022-08-16T16:04:21Z</time>
      </trkpt>
      <trkpt lat="44.90297" lon="1.1974">
        <ele>237.9251146</ele>
        <time>2022-08-16T16:04:23Z</time>
      </trkpt>
      <trkpt lat="44.90297" lon="1.19739">
        <ele>237.3359295</ele>
        <time>2022-08-16T16:04:27Z</time>
      </trkpt>
      <trkpt lat="44.90297" lon="1.19739">
        <ele>236.801288</ele>
        <time>2022-08-16T16:04:29Z</time>
      </trkpt>
      <trkpt lat="44.90297" lon="1.1974">
        <ele>236.9236206</ele>
        <time>2022-08-16T16:04:31Z</time>
      </trkpt>
      <trkpt lat="44.90297" lon="1.1974">
        <ele>236.9236206</ele>
        <time>2022-08-16T16:04:35Z</time>
      </trkpt>
      <trkpt lat="44.90297" lon="1.19739">
        <ele>236.2189784</ele>
        <time>2022-08-16T16:04:37Z</time>
      </trkpt>
      <trkpt lat="44.90297" lon="1.19739">
        <ele>236.2189784</ele>
        <time>2022-08-16T16:04:41Z</time>
      </trkpt>
      <trkpt lat="44.90296" lon="1.19738">
        <ele>237.247165</ele>
        <time>2022-08-16T16:04:43Z</time>
      </trkpt>
      <trkpt lat="44.90296" lon="1.19739">
        <ele>237.672347</ele>
        <time>2022-08-16T16:04:45Z</time>
      </trkpt>
      <trkpt lat="44.90296" lon="1.19738">
        <ele>237.6702818</ele>
        <time>2022-08-16T16:04:47Z</time>
      </trkpt>
      <trkpt lat="44.90296" lon="1.19738">
        <ele>237.6702818</ele>
        <time>2022-08-16T16:04:51Z</time>
      </trkpt>
      <trkpt lat="44.90296" lon="1.19738">
        <ele>237.6702818</ele>
        <time>2022-08-16T16:04:55Z</time>
      </trkpt>
      <trkpt lat="44.90296" lon="1.19738">
        <ele>237.6702818</ele>
        <time>2022-08-16T16:04:59Z</time>
      </trkpt>
      <trkpt lat="44.90296" lon="1.19738">
        <ele>237.6702818</ele>
        <time>2022-08-16T16:05:03Z</time>
      </trkpt>
      <trkpt lat="44.90295" lon="1.1974">
        <ele>236.7959563</ele>
        <time>2022-08-16T16:05:07Z</time>
      </trkpt>
      <trkpt lat="44.90295" lon="1.1974">
        <ele>236.7959563</ele>
        <time>2022-08-16T16:05:11Z</time>
      </trkpt>
      <trkpt lat="44.90294" lon="1.19741">
        <ele>237.369703</ele>
        <time>2022-08-16T16:05:13Z</time>
      </trkpt>
      <trkpt lat="44.90294" lon="1.19741">
        <ele>237.369703</ele>
        <time>2022-08-16T16:05:17Z</time>
      </trkpt>
      <trkpt lat="44.90294" lon="1.1974">
        <ele>238.4418157</ele>
        <time>2022-08-16T16:05:19Z</time>
      </trkpt>
      <trkpt lat="44.90294" lon="1.1974">
        <ele>238.1081253</ele>
        <time>2022-08-16T16:05:23Z</time>
      </trkpt>
      <trkpt lat="44.90294" lon="1.1974">
        <ele>238.1081253</ele>
        <time>2022-08-16T16:05:27Z</time>
      </trkpt>
      <trkpt lat="44.90294" lon="1.19739">
        <ele>237.6675011</ele>
        <time>2022-08-16T16:05:29Z</time>
      </trkpt>
      <trkpt lat="44.90294" lon="1.19739">
        <ele>237.649298</ele>
        <time>2022-08-16T16:05:31Z</time>
      </trkpt>
      <trkpt lat="44.90294" lon="1.19739">
        <ele>237.649298</ele>
        <time>2022-08-16T16:05:35Z</time>
      </trkpt>
      <trkpt lat="44.90294" lon="1.19739">
        <ele>237.649298</ele>
        <time>2022-08-16T16:05:39Z</time>
      </trkpt>
      <trkpt lat="44.90294" lon="1.19739">
        <ele>237.649298</ele>
        <time>2022-08-16T16:05:43Z</time>
      </trkpt>
      <trkpt lat="44.90295" lon="1.19738">
        <ele>239.077169</ele>
        <time>2022-08-16T16:05:45Z</time>
      </trkpt>
      <trkpt lat="44.90294" lon="1.19738">
        <ele>238.9383676</ele>
        <time>2022-08-16T16:05:47Z</time>
      </trkpt>
      <trkpt lat="44.90295" lon="1.19737">
        <ele>238.9759606</ele>
        <time>2022-08-16T16:05:49Z</time>
      </trkpt>
      <trkpt lat="44.90295" lon="1.19738">
        <ele>238.404117</ele>
        <time>2022-08-16T16:05:51Z</time>
      </trkpt>
      <trkpt lat="44.90295" lon="1.19738">
        <ele>238.3542227</ele>
        <time>2022-08-16T16:05:53Z</time>
      </trkpt>
      <trkpt lat="44.90295" lon="1.19737">
        <ele>238.8093595</ele>
        <time>2022-08-16T16:05:55Z</time>
      </trkpt>
      <trkpt lat="44.90295" lon="1.19738">
        <ele>238.5763849</ele>
        <time>2022-08-16T16:05:59Z</time>
      </trkpt>
      <trkpt lat="44.90296" lon="1.19735">
        <ele>238.410636</ele>
        <time>2022-08-16T16:06:01Z</time>
      </trkpt>
      <trkpt lat="44.90296" lon="1.1973">
        <ele>238.2544441</ele>
        <time>2022-08-16T16:06:03Z</time>
      </trkpt>
      <trkpt lat="44.90298" lon="1.19727">
        <ele>238.4971739</ele>
        <time>2022-08-16T16:06:05Z</time>
      </trkpt>
      <trkpt lat="44.903" lon="1.19728">
        <ele>238.5151332</ele>
        <time>2022-08-16T16:06:07Z</time>
      </trkpt>
      <trkpt lat="44.903" lon="1.19729">
        <ele>238.4697085</ele>
        <time>2022-08-16T16:06:09Z</time>
      </trkpt>
      <trkpt lat="44.90299" lon="1.19728">
        <ele>238.6232135</ele>
        <time>2022-08-16T16:06:11Z</time>
      </trkpt>
      <trkpt lat="44.90299" lon="1.1973">
        <ele>237.2248052</ele>
        <time>2022-08-16T16:06:15Z</time>
      </trkpt>
      <trkpt lat="44.90302" lon="1.19727">
        <ele>237.0853953</ele>
        <time>2022-08-16T16:06:17Z</time>
      </trkpt>
      <trkpt lat="44.90307" lon="1.19727">
        <ele>236.9125057</ele>
        <time>2022-08-16T16:06:19Z</time>
      </trkpt>
      <trkpt lat="44.90313" lon="1.19726">
        <ele>236.1317924</ele>
        <time>2022-08-16T16:06:21Z</time>
      </trkpt>
      <trkpt lat="44.90319" lon="1.19722">
        <ele>236.3086282</ele>
        <time>2022-08-16T16:06:23Z</time>
      </trkpt>
      <trkpt lat="44.90324" lon="1.19715">
        <ele>236.5569988</ele>
        <time>2022-08-16T16:06:25Z</time>
      </trkpt>
      <trkpt lat="44.90328" lon="1.19706">
        <ele>236.2589512</ele>
        <time>2022-08-16T16:06:27Z</time>
      </trkpt>
      <trkpt lat="44.90328" lon="1.19697">
        <ele>236.3475162</ele>
        <time>2022-08-16T16:06:29Z</time>
      </trkpt>
      <trkpt lat="44.90328" lon="1.19687">
        <ele>236.4011375</ele>
        <time>2022-08-16T16:06:31Z</time>
      </trkpt>
      <trkpt lat="44.90325" lon="1.19678">
        <ele>236.3102952</ele>
        <time>2022-08-16T16:06:33Z</time>
      </trkpt>
      <trkpt lat="44.90321" lon="1.19669">
        <ele>235.6842067</ele>
        <time>2022-08-16T16:06:35Z</time>
      </trkpt>
      <trkpt lat="44.90319" lon="1.19659">
        <ele>235.8885423</ele>
        <time>2022-08-16T16:06:37Z</time>
      </trkpt>
      <trkpt lat="44.9032" lon="1.19646">
        <ele>235.7982145</ele>
        <time>2022-08-16T16:06:39Z</time>
      </trkpt>
      <trkpt lat="44.90322" lon="1.19634">
        <ele>235.7825469</ele>
        <time>2022-08-16T16:06:41Z</time>
      </trkpt>
      <trkpt lat="44.90324" lon="1.19621">
        <ele>236.2687876</ele>
        <time>2022-08-16T16:06:43Z</time>
      </trkpt>
      <trkpt lat="44.90326" lon="1.1961">
        <ele>236.6884269</ele>
        <time>2022-08-16T16:06:45Z</time>
      </trkpt>
      <trkpt lat="44.90327" lon="1.196">
        <ele>237.4553366</ele>
        <time>2022-08-16T16:06:47Z</time>
      </trkpt>
      <trkpt lat="44.90329" lon="1.19592">
        <ele>238.2558017</ele>
        <time>2022-08-16T16:06:49Z</time>
      </trkpt>
      <trkpt lat="44.9033" lon="1.19585">
        <ele>239.8332717</ele>
        <time>2022-08-16T16:06:51Z</time>
      </trkpt>
      <trkpt lat="44.90331" lon="1.19579">
        <ele>242.0289681</ele>
        <time>2022-08-16T16:06:53Z</time>
      </trkpt>
      <trkpt lat="44.90331" lon="1.19571">
        <ele>241.4927528</ele>
        <time>2022-08-16T16:06:55Z</time>
      </trkpt>
      <trkpt lat="44.90332" lon="1.19565">
        <ele>242.1863881</ele>
        <time>2022-08-16T16:06:57Z</time>
      </trkpt>
      <trkpt lat="44.90332" lon="1.19558">
        <ele>242.5668839</ele>
        <time>2022-08-16T16:06:59Z</time>
      </trkpt>
      <trkpt lat="44.90333" lon="1.19551">
        <ele>242.3823249</ele>
        <time>2022-08-16T16:07:01Z</time>
      </trkpt>
      <trkpt lat="44.90333" lon="1.19544">
        <ele>242.6551494</ele>
        <time>2022-08-16T16:07:03Z</time>
      </trkpt>
      <trkpt lat="44.90333" lon="1.1954">
        <ele>242.0798804</ele>
        <time>2022-08-16T16:07:05Z</time>
      </trkpt>
      <trkpt lat="44.90333" lon="1.19533">
        <ele>242.6117058</ele>
        <time>2022-08-16T16:07:07Z</time>
      </trkpt>
      <trkpt lat="44.90333" lon="1.19526">
        <ele>243.6404695</ele>
        <time>2022-08-16T16:07:09Z</time>
      </trkpt>
      <trkpt lat="44.90332" lon="1.19519">
        <ele>243.3276434</ele>
        <time>2022-08-16T16:07:11Z</time>
      </trkpt>
      <trkpt lat="44.90332" lon="1.19512">
        <ele>243.7396689</ele>
        <time>2022-08-16T16:07:13Z</time>
      </trkpt>
      <trkpt lat="44.90332" lon="1.19506">
        <ele>243.964876</ele>
        <time>2022-08-16T16:07:15Z</time>
      </trkpt>
      <trkpt lat="44.90331" lon="1.195">
        <ele>244.8408422</ele>
        <time>2022-08-16T16:07:17Z</time>
      </trkpt>
      <trkpt lat="44.90331" lon="1.19495">
        <ele>245.5035027</ele>
        <time>2022-08-16T16:07:19Z</time>
      </trkpt>
      <trkpt lat="44.9033" lon="1.19489">
        <ele>245.4392956</ele>
        <time>2022-08-16T16:07:21Z</time>
      </trkpt>
      <trkpt lat="44.9033" lon="1.19484">
        <ele>245.7391331</ele>
        <time>2022-08-16T16:07:23Z</time>
      </trkpt>
      <trkpt lat="44.9033" lon="1.19478">
        <ele>245.4974608</ele>
        <time>2022-08-16T16:07:25Z</time>
      </trkpt>
      <trkpt lat="44.90329" lon="1.19473">
        <ele>246.006247</ele>
        <time>2022-08-16T16:07:27Z</time>
      </trkpt>
      <trkpt lat="44.90328" lon="1.19468">
        <ele>245.6794169</ele>
        <time>2022-08-16T16:07:29Z</time>
      </trkpt>
      <trkpt lat="44.90328" lon="1.19462">
        <ele>246.2599604</ele>
        <time>2022-08-16T16:07:31Z</time>
      </trkpt>
      <trkpt lat="44.90328" lon="1.19457">
        <ele>246.4726964</ele>
        <time>2022-08-16T16:07:33Z</time>
      </trkpt>
      <trkpt lat="44.90328" lon="1.19451">
        <ele>246.6983268</ele>
        <time>2022-08-16T16:07:35Z</time>
      </trkpt>
      <trkpt lat="44.90328" lon="1.19445">
        <ele>247.6001049</ele>
        <time>2022-08-16T16:07:37Z</time>
      </trkpt>
      <trkpt lat="44.90328" lon="1.19439">
        <ele>247.927972</ele>
        <time>2022-08-16T16:07:39Z</time>
      </trkpt>
      <trkpt lat="44.90329" lon="1.19433">
        <ele>248.5573979</ele>
        <time>2022-08-16T16:07:41Z</time>
      </trkpt>
      <trkpt lat="44.90329" lon="1.19427">
        <ele>248.7542987</ele>
        <time>2022-08-16T16:07:43Z</time>
      </trkpt>
      <trkpt lat="44.9033" lon="1.19421">
        <ele>249.4013551</ele>
        <time>2022-08-16T16:07:45Z</time>
      </trkpt>
      <trkpt lat="44.9033" lon="1.19415">
        <ele>249.9804108</ele>
        <time>2022-08-16T16:07:47Z</time>
      </trkpt>
      <trkpt lat="44.9033" lon="1.19409">
        <ele>250.4950968</ele>
        <time>2022-08-16T16:07:49Z</time>
      </trkpt>
      <trkpt lat="44.90331" lon="1.19404">
        <ele>250.4521695</ele>
        <time>2022-08-16T16:07:51Z</time>
      </trkpt>
      <trkpt lat="44.90331" lon="1.19398">
        <ele>250.8048405</ele>
        <time>2022-08-16T16:07:53Z</time>
      </trkpt>
      <trkpt lat="44.90332" lon="1.19391">
        <ele>251.1954504</ele>
        <time>2022-08-16T16:07:55Z</time>
      </trkpt>
      <trkpt lat="44.90333" lon="1.19385">
        <ele>251.0946262</ele>
        <time>2022-08-16T16:07:57Z</time>
      </trkpt>
      <trkpt lat="44.90334" lon="1.19379">
        <ele>251.4153998</ele>
        <time>2022-08-16T16:07:59Z</time>
      </trkpt>
      <trkpt lat="44.90335" lon="1.19373">
        <ele>251.8709419</ele>
        <time>2022-08-16T16:08:01Z</time>
      </trkpt>
      <trkpt lat="44.90337" lon="1.19368">
        <ele>252.6377221</ele>
        <time>2022-08-16T16:08:03Z</time>
      </trkpt>
      <trkpt lat="44.90338" lon="1.19362">
        <ele>253.106852</ele>
        <time>2022-08-16T16:08:05Z</time>
      </trkpt>
      <trkpt lat="44.90339" lon="1.19356">
        <ele>252.5279309</ele>
        <time>2022-08-16T16:08:07Z</time>
      </trkpt>
      <trkpt lat="44.9034" lon="1.1935">
        <ele>252.4498389</ele>
        <time>2022-08-16T16:08:09Z</time>
      </trkpt>
      <trkpt lat="44.90343" lon="1.19345">
        <ele>253.3893159</ele>
        <time>2022-08-16T16:08:11Z</time>
      </trkpt>
      <trkpt lat="44.90343" lon="1.19339">
        <ele>253.4865163</ele>
        <time>2022-08-16T16:08:13Z</time>
      </trkpt>
      <trkpt lat="44.90344" lon="1.19333">
        <ele>253.9919028</ele>
        <time>2022-08-16T16:08:15Z</time>
      </trkpt>
      <trkpt lat="44.90346" lon="1.19327">
        <ele>255.1101842</ele>
        <time>2022-08-16T16:08:17Z</time>
      </trkpt>
      <trkpt lat="44.90347" lon="1.19322">
        <ele>255.7087616</ele>
        <time>2022-08-16T16:08:19Z</time>
      </trkpt>
      <trkpt lat="44.90349" lon="1.19316">
        <ele>255.0370507</ele>
        <time>2022-08-16T16:08:21Z</time>
      </trkpt>
      <trkpt lat="44.90349" lon="1.1931">
        <ele>255.5850764</ele>
        <time>2022-08-16T16:08:23Z</time>
      </trkpt>
      <trkpt lat="44.9035" lon="1.19303">
        <ele>255.1696281</ele>
        <time>2022-08-16T16:08:25Z</time>
      </trkpt>
      <trkpt lat="44.9035" lon="1.19297">
        <ele>257.6691401</ele>
        <time>2022-08-16T16:08:27Z</time>
      </trkpt>
      <trkpt lat="44.9035" lon="1.19289">
        <ele>255.9779341</ele>
        <time>2022-08-16T16:08:29Z</time>
      </trkpt>
      <trkpt lat="44.90351" lon="1.19282">
        <ele>256.2555718</ele>
        <time>2022-08-16T16:08:31Z</time>
      </trkpt>
      <trkpt lat="44.90351" lon="1.19275">
        <ele>255.3872907</ele>
        <time>2022-08-16T16:08:33Z</time>
      </trkpt>
      <trkpt lat="44.9035" lon="1.19267">
        <ele>254.9648054</ele>
        <time>2022-08-16T16:08:35Z</time>
      </trkpt>
      <trkpt lat="44.9035" lon="1.1926">
        <ele>254.7750638</ele>
        <time>2022-08-16T16:08:37Z</time>
      </trkpt>
      <trkpt lat="44.9035" lon="1.19251">
        <ele>255.3258029</ele>
        <time>2022-08-16T16:08:39Z</time>
      </trkpt>
      <trkpt lat="44.90349" lon="1.19242">
        <ele>255.6170339</ele>
        <time>2022-08-16T16:08:41Z</time>
      </trkpt>
      <trkpt lat="44.90349" lon="1.19234">
        <ele>254.8682743</ele>
        <time>2022-08-16T16:08:43Z</time>
      </trkpt>
      <trkpt lat="44.90348" lon="1.19225">
        <ele>254.8411311</ele>
        <time>2022-08-16T16:08:45Z</time>
      </trkpt>
      <trkpt lat="44.90348" lon="1.19215">
        <ele>254.9436146</ele>
        <time>2022-08-16T16:08:47Z</time>
      </trkpt>
      <trkpt lat="44.90348" lon="1.19206">
        <ele>255.2818303</ele>
        <time>2022-08-16T16:08:49Z</time>
      </trkpt>
      <trkpt lat="44.90349" lon="1.192">
        <ele>255.1353931</ele>
        <time>2022-08-16T16:08:51Z</time>
      </trkpt>
      <trkpt lat="44.9035" lon="1.1919">
        <ele>255.4046215</ele>
        <time>2022-08-16T16:08:53Z</time>
      </trkpt>
      <trkpt lat="44.90349" lon="1.19182">
        <ele>256.8291126</ele>
        <time>2022-08-16T16:08:55Z</time>
      </trkpt>
      <trkpt lat="44.90352" lon="1.19176">
        <ele>257.3998033</ele>
        <time>2022-08-16T16:08:57Z</time>
      </trkpt>
      <trkpt lat="44.90354" lon="1.19167">
        <ele>257.7575894</ele>
        <time>2022-08-16T16:08:59Z</time>
      </trkpt>
      <trkpt lat="44.90356" lon="1.1916">
        <ele>258.4943844</ele>
        <time>2022-08-16T16:09:01Z</time>
      </trkpt>
      <trkpt lat="44.90359" lon="1.19154">
        <ele>258.7295613</ele>
        <time>2022-08-16T16:09:03Z</time>
      </trkpt>
      <trkpt lat="44.90362" lon="1.19147">
        <ele>259.7017794</ele>
        <time>2022-08-16T16:09:05Z</time>
      </trkpt>
      <trkpt lat="44.90366" lon="1.19144">
        <ele>260.0547039</ele>
        <time>2022-08-16T16:09:07Z</time>
      </trkpt>
      <trkpt lat="44.90367" lon="1.19135">
        <ele>261.3033042</ele>
        <time>2022-08-16T16:09:09Z</time>
      </trkpt>
      <trkpt lat="44.90369" lon="1.19128">
        <ele>261.5633106</ele>
        <time>2022-08-16T16:09:11Z</time>
      </trkpt>
      <trkpt lat="44.90374" lon="1.19124">
        <ele>262.9348804</ele>
        <time>2022-08-16T16:09:13Z</time>
      </trkpt>
      <trkpt lat="44.90375" lon="1.19116">
        <ele>263.6178655</ele>
        <time>2022-08-16T16:09:15Z</time>
      </trkpt>
      <trkpt lat="44.90377" lon="1.19107">
        <ele>264.795594</ele>
        <time>2022-08-16T16:09:17Z</time>
      </trkpt>
      <trkpt lat="44.90381" lon="1.19101">
        <ele>264.7739964</ele>
        <time>2022-08-16T16:09:19Z</time>
      </trkpt>
      <trkpt lat="44.90384" lon="1.19094">
        <ele>264.747457</ele>
        <time>2022-08-16T16:09:21Z</time>
      </trkpt>
      <trkpt lat="44.90387" lon="1.19087">
        <ele>264.026518</ele>
        <time>2022-08-16T16:09:23Z</time>
      </trkpt>
      <trkpt lat="44.90389" lon="1.1908">
        <ele>263.4416179</ele>
        <time>2022-08-16T16:09:25Z</time>
      </trkpt>
      <trkpt lat="44.90391" lon="1.19073">
        <ele>263.6893174</ele>
        <time>2022-08-16T16:09:27Z</time>
      </trkpt>
      <trkpt lat="44.90394" lon="1.19068">
        <ele>263.7313222</ele>
        <time>2022-08-16T16:09:29Z</time>
      </trkpt>
      <trkpt lat="44.90398" lon="1.19062">
        <ele>264.194408</ele>
        <time>2022-08-16T16:09:31Z</time>
      </trkpt>
      <trkpt lat="44.904" lon="1.19054">
        <ele>264.0900374</ele>
        <time>2022-08-16T16:09:33Z</time>
      </trkpt>
      <trkpt lat="44.90404" lon="1.19047">
        <ele>264.1855656</ele>
        <time>2022-08-16T16:09:35Z</time>
      </trkpt>
      <trkpt lat="44.90407" lon="1.19041">
        <ele>264.8149674</ele>
        <time>2022-08-16T16:09:37Z</time>
      </trkpt>
      <trkpt lat="44.90409" lon="1.19033">
        <ele>264.4544601</ele>
        <time>2022-08-16T16:09:39Z</time>
      </trkpt>
      <trkpt lat="44.90413" lon="1.19027">
        <ele>263.8373551</ele>
        <time>2022-08-16T16:09:41Z</time>
      </trkpt>
      <trkpt lat="44.90416" lon="1.1902">
        <ele>263.6628029</ele>
        <time>2022-08-16T16:09:43Z</time>
      </trkpt>
      <trkpt lat="44.90419" lon="1.19013">
        <ele>263.6778976</ele>
        <time>2022-08-16T16:09:45Z</time>
      </trkpt>
      <trkpt lat="44.90422" lon="1.19007">
        <ele>263.6841444</ele>
        <time>2022-08-16T16:09:47Z</time>
      </trkpt>
      <trkpt lat="44.90426" lon="1.18999">
        <ele>263.6939563</ele>
        <time>2022-08-16T16:09:49Z</time>
      </trkpt>
      <trkpt lat="44.90432" lon="1.18994">
        <ele>263.5269708</ele>
        <time>2022-08-16T16:09:51Z</time>
      </trkpt>
      <trkpt lat="44.90436" lon="1.18988">
        <ele>263.79523</ele>
        <time>2022-08-16T16:09:53Z</time>
      </trkpt>
      <trkpt lat="44.90441" lon="1.18983">
        <ele>263.9875962</ele>
        <time>2022-08-16T16:09:55Z</time>
      </trkpt>
      <trkpt lat="44.90447" lon="1.1898">
        <ele>264.0930509</ele>
        <time>2022-08-16T16:09:57Z</time>
      </trkpt>
      <trkpt lat="44.90452" lon="1.18975">
        <ele>264.6958709</ele>
        <time>2022-08-16T16:09:59Z</time>
      </trkpt>
      <trkpt lat="44.90458" lon="1.18971">
        <ele>265.0717099</ele>
        <time>2022-08-16T16:10:01Z</time>
      </trkpt>
      <trkpt lat="44.90463" lon="1.1897">
        <ele>264.7895408</ele>
        <time>2022-08-16T16:10:03Z</time>
      </trkpt>
      <trkpt lat="44.90469" lon="1.18965">
        <ele>265.7717016</ele>
        <time>2022-08-16T16:10:05Z</time>
      </trkpt>
      <trkpt lat="44.90474" lon="1.18964">
        <ele>265.8908315</ele>
        <time>2022-08-16T16:10:07Z</time>
      </trkpt>
      <trkpt lat="44.9048" lon="1.18963">
        <ele>266.0326498</ele>
        <time>2022-08-16T16:10:09Z</time>
      </trkpt>
      <trkpt lat="44.90486" lon="1.18961">
        <ele>266.3278905</ele>
        <time>2022-08-16T16:10:11Z</time>
      </trkpt>
      <trkpt lat="44.90492" lon="1.1896">
        <ele>266.7494088</ele>
        <time>2022-08-16T16:10:13Z</time>
      </trkpt>
      <trkpt lat="44.90498" lon="1.18959">
        <ele>266.9233398</ele>
        <time>2022-08-16T16:10:15Z</time>
      </trkpt>
      <trkpt lat="44.90504" lon="1.1896">
        <ele>266.222203</ele>
        <time>2022-08-16T16:10:17Z</time>
      </trkpt>
      <trkpt lat="44.90512" lon="1.1896">
        <ele>266.2595612</ele>
        <time>2022-08-16T16:10:19Z</time>
      </trkpt>
      <trkpt lat="44.90518" lon="1.18961">
        <ele>265.4290484</ele>
        <time>2022-08-16T16:10:21Z</time>
      </trkpt>
      <trkpt lat="44.90525" lon="1.18963">
        <ele>265.0595131</ele>
        <time>2022-08-16T16:10:23Z</time>
      </trkpt>
      <trkpt lat="44.90531" lon="1.18966">
        <ele>265.2848071</ele>
        <time>2022-08-16T16:10:25Z</time>
      </trkpt>
      <trkpt lat="44.90537" lon="1.1897">
        <ele>265.8749631</ele>
        <time>2022-08-16T16:10:27Z</time>
      </trkpt>
      <trkpt lat="44.90542" lon="1.18971">
        <ele>266.2960036</ele>
        <time>2022-08-16T16:10:29Z</time>
      </trkpt>
      <trkpt lat="44.90546" lon="1.18975">
        <ele>266.5004916</ele>
        <time>2022-08-16T16:10:31Z</time>
      </trkpt>
      <trkpt lat="44.9055" lon="1.1898">
        <ele>265.0527566</ele>
        <time>2022-08-16T16:10:33Z</time>
      </trkpt>
      <trkpt lat="44.90553" lon="1.18981">
        <ele>264.9404352</ele>
        <time>2022-08-16T16:10:35Z</time>
      </trkpt>
      <trkpt lat="44.90552" lon="1.18981">
        <ele>263.9388649</ele>
        <time>2022-08-16T16:10:37Z</time>
      </trkpt>
      <trkpt lat="44.90552" lon="1.18981">
        <ele>263.9310829</ele>
        <time>2022-08-16T16:10:39Z</time>
      </trkpt>
      <trkpt lat="44.90553" lon="1.18982">
        <ele>262.3239306</ele>
        <time>2022-08-16T16:10:43Z</time>
      </trkpt>
      <trkpt lat="44.90554" lon="1.18981">
        <ele>262.9185912</ele>
        <time>2022-08-16T16:10:45Z</time>
      </trkpt>
      <trkpt lat="44.90554" lon="1.18981">
        <ele>262.9185912</ele>
        <time>2022-08-16T16:10:49Z</time>
      </trkpt>
      <trkpt lat="44.90555" lon="1.18984">
        <ele>262.5931154</ele>
        <time>2022-08-16T16:10:53Z</time>
      </trkpt>
      <trkpt lat="44.90555" lon="1.18983">
        <ele>262.8646924</ele>
        <time>2022-08-16T16:10:55Z</time>
      </trkpt>
      <trkpt lat="44.90555" lon="1.18983">
        <ele>262.8646924</ele>
        <time>2022-08-16T16:10:59Z</time>
      </trkpt>
      <trkpt lat="44.90556" lon="1.18982">
        <ele>263.5547343</ele>
        <time>2022-08-16T16:11:01Z</time>
      </trkpt>
      <trkpt lat="44.90558" lon="1.18982">
        <ele>263.255163</ele>
        <time>2022-08-16T16:11:03Z</time>
      </trkpt>
      <trkpt lat="44.90561" lon="1.18983">
        <ele>263.340425</ele>
        <time>2022-08-16T16:11:05Z</time>
      </trkpt>
      <trkpt lat="44.90565" lon="1.18987">
        <ele>262.6353989</ele>
        <time>2022-08-16T16:11:07Z</time>
      </trkpt>
      <trkpt lat="44.9057" lon="1.18993">
        <ele>262.3334964</ele>
        <time>2022-08-16T16:11:09Z</time>
      </trkpt>
      <trkpt lat="44.90575" lon="1.18997">
        <ele>262.4180276</ele>
        <time>2022-08-16T16:11:11Z</time>
      </trkpt>
      <trkpt lat="44.90579" lon="1.19003">
        <ele>262.4287839</ele>
        <time>2022-08-16T16:11:13Z</time>
      </trkpt>
      <trkpt lat="44.90583" lon="1.19009">
        <ele>261.967004</ele>
        <time>2022-08-16T16:11:15Z</time>
      </trkpt>
      <trkpt lat="44.90587" lon="1.19015">
        <ele>261.5985304</ele>
        <time>2022-08-16T16:11:17Z</time>
      </trkpt>
      <trkpt lat="44.90592" lon="1.19021">
        <ele>262.042412</ele>
        <time>2022-08-16T16:11:19Z</time>
      </trkpt>
      <trkpt lat="44.90595" lon="1.19029">
        <ele>262.2372848</ele>
        <time>2022-08-16T16:11:21Z</time>
      </trkpt>
      <trkpt lat="44.90598" lon="1.19038">
        <ele>263.0182153</ele>
        <time>2022-08-16T16:11:23Z</time>
      </trkpt>
      <trkpt lat="44.906" lon="1.19046">
        <ele>262.6742413</ele>
        <time>2022-08-16T16:11:25Z</time>
      </trkpt>
      <trkpt lat="44.90603" lon="1.19054">
        <ele>263.046566</ele>
        <time>2022-08-16T16:11:27Z</time>
      </trkpt>
      <trkpt lat="44.90606" lon="1.19061">
        <ele>263.1164411</ele>
        <time>2022-08-16T16:11:29Z</time>
      </trkpt>
      <trkpt lat="44.90608" lon="1.19069">
        <ele>263.0605403</ele>
        <time>2022-08-16T16:11:31Z</time>
      </trkpt>
      <trkpt lat="44.90611" lon="1.19076">
        <ele>263.256761</ele>
        <time>2022-08-16T16:11:33Z</time>
      </trkpt>
      <trkpt lat="44.90613" lon="1.19084">
        <ele>263.6727308</ele>
        <time>2022-08-16T16:11:35Z</time>
      </trkpt>
      <trkpt lat="44.90618" lon="1.19092">
        <ele>263.711826</ele>
        <time>2022-08-16T16:11:37Z</time>
      </trkpt>
      <trkpt lat="44.90621" lon="1.191">
        <ele>264.4244683</ele>
        <time>2022-08-16T16:11:39Z</time>
      </trkpt>
      <trkpt lat="44.90625" lon="1.19108">
        <ele>264.4607913</ele>
        <time>2022-08-16T16:11:41Z</time>
      </trkpt>
      <trkpt lat="44.90629" lon="1.19117">
        <ele>264.773696</ele>
        <time>2022-08-16T16:11:43Z</time>
      </trkpt>
      <trkpt lat="44.90633" lon="1.19126">
        <ele>264.9214768</ele>
        <time>2022-08-16T16:11:45Z</time>
      </trkpt>
      <trkpt lat="44.90637" lon="1.19135">
        <ele>265.6011859</ele>
        <time>2022-08-16T16:11:47Z</time>
      </trkpt>
      <trkpt lat="44.90642" lon="1.19144">
        <ele>265.2554264</ele>
        <time>2022-08-16T16:11:49Z</time>
      </trkpt>
      <trkpt lat="44.90645" lon="1.19152">
        <ele>265.4629036</ele>
        <time>2022-08-16T16:11:51Z</time>
      </trkpt>
      <trkpt lat="44.90651" lon="1.19161">
        <ele>265.4922435</ele>
        <time>2022-08-16T16:11:53Z</time>
      </trkpt>
      <trkpt lat="44.90656" lon="1.19168">
        <ele>265.2850641</ele>
        <time>2022-08-16T16:11:55Z</time>
      </trkpt>
      <trkpt lat="44.90661" lon="1.19176">
        <ele>265.6596425</ele>
        <time>2022-08-16T16:11:57Z</time>
      </trkpt>
      <trkpt lat="44.90668" lon="1.19181">
        <ele>266.7593103</ele>
        <time>2022-08-16T16:11:59Z</time>
      </trkpt>
      <trkpt lat="44.90675" lon="1.19185">
        <ele>266.8245881</ele>
        <time>2022-08-16T16:12:01Z</time>
      </trkpt>
      <trkpt lat="44.90681" lon="1.19188">
        <ele>267.0756525</ele>
        <time>2022-08-16T16:12:03Z</time>
      </trkpt>
      <trkpt lat="44.90688" lon="1.19188">
        <ele>267.0472662</ele>
        <time>2022-08-16T16:12:05Z</time>
      </trkpt>
      <trkpt lat="44.90695" lon="1.19188">
        <ele>267.8393911</ele>
        <time>2022-08-16T16:12:07Z</time>
      </trkpt>
      <trkpt lat="44.907" lon="1.19186">
        <ele>268.0831542</ele>
        <time>2022-08-16T16:12:09Z</time>
      </trkpt>
      <trkpt lat="44.90707" lon="1.19181">
        <ele>268.9767068</ele>
        <time>2022-08-16T16:12:11Z</time>
      </trkpt>
      <trkpt lat="44.90713" lon="1.19175">
        <ele>268.522861</ele>
        <time>2022-08-16T16:12:13Z</time>
      </trkpt>
      <trkpt lat="44.90719" lon="1.19169">
        <ele>268.0804122</ele>
        <time>2022-08-16T16:12:15Z</time>
      </trkpt>
      <trkpt lat="44.90724" lon="1.19163">
        <ele>267.4899893</ele>
        <time>2022-08-16T16:12:17Z</time>
      </trkpt>
      <trkpt lat="44.90731" lon="1.19154">
        <ele>269.0585706</ele>
        <time>2022-08-16T16:12:19Z</time>
      </trkpt>
      <trkpt lat="44.90737" lon="1.19149">
        <ele>269.1655226</ele>
        <time>2022-08-16T16:12:21Z</time>
      </trkpt>
      <trkpt lat="44.90742" lon="1.19142">
        <ele>268.7457221</ele>
        <time>2022-08-16T16:12:23Z</time>
      </trkpt>
      <trkpt lat="44.90748" lon="1.19137">
        <ele>269.621187</ele>
        <time>2022-08-16T16:12:25Z</time>
      </trkpt>
      <trkpt lat="44.90755" lon="1.19132">
        <ele>270.2855169</ele>
        <time>2022-08-16T16:12:27Z</time>
      </trkpt>
      <trkpt lat="44.90761" lon="1.19127">
        <ele>270.6711281</ele>
        <time>2022-08-16T16:12:29Z</time>
      </trkpt>
      <trkpt lat="44.90767" lon="1.19126">
        <ele>270.9928637</ele>
        <time>2022-08-16T16:12:31Z</time>
      </trkpt>
      <trkpt lat="44.90774" lon="1.19124">
        <ele>271.0728772</ele>
        <time>2022-08-16T16:12:33Z</time>
      </trkpt>
      <trkpt lat="44.90779" lon="1.19123">
        <ele>271.910105</ele>
        <time>2022-08-16T16:12:35Z</time>
      </trkpt>
      <trkpt lat="44.90786" lon="1.19123">
        <ele>271.5757637</ele>
        <time>2022-08-16T16:12:37Z</time>
      </trkpt>
      <trkpt lat="44.90793" lon="1.19121">
        <ele>271.5694138</ele>
        <time>2022-08-16T16:12:39Z</time>
      </trkpt>
      <trkpt lat="44.90797" lon="1.19121">
        <ele>271.7791683</ele>
        <time>2022-08-16T16:12:41Z</time>
      </trkpt>
      <trkpt lat="44.90806" lon="1.19121">
        <ele>269.9465972</ele>
        <time>2022-08-16T16:12:43Z</time>
      </trkpt>
      <trkpt lat="44.90814" lon="1.19121">
        <ele>269.0665809</ele>
        <time>2022-08-16T16:12:45Z</time>
      </trkpt>
      <trkpt lat="44.90821" lon="1.19121">
        <ele>268.4095849</ele>
        <time>2022-08-16T16:12:47Z</time>
      </trkpt>
      <trkpt lat="44.90831" lon="1.1912">
        <ele>267.8079418</ele>
        <time>2022-08-16T16:12:49Z</time>
      </trkpt>
      <trkpt lat="44.90839" lon="1.19119">
        <ele>267.7876187</ele>
        <time>2022-08-16T16:12:51Z</time>
      </trkpt>
      <trkpt lat="44.90847" lon="1.19117">
        <ele>267.5645463</ele>
        <time>2022-08-16T16:12:53Z</time>
      </trkpt>
      <trkpt lat="44.90854" lon="1.19117">
        <ele>267.2525146</ele>
        <time>2022-08-16T16:12:55Z</time>
      </trkpt>
      <trkpt lat="44.90863" lon="1.19116">
        <ele>266.9036467</ele>
        <time>2022-08-16T16:12:57Z</time>
      </trkpt>
      <trkpt lat="44.90871" lon="1.19118">
        <ele>266.963221</ele>
        <time>2022-08-16T16:12:59Z</time>
      </trkpt>
      <trkpt lat="44.90879" lon="1.19121">
        <ele>266.4022307</ele>
        <time>2022-08-16T16:13:01Z</time>
      </trkpt>
      <trkpt lat="44.90887" lon="1.19123">
        <ele>266.0450791</ele>
        <time>2022-08-16T16:13:03Z</time>
      </trkpt>
      <trkpt lat="44.90895" lon="1.19126">
        <ele>265.5719277</ele>
        <time>2022-08-16T16:13:05Z</time>
      </trkpt>
      <trkpt lat="44.90904" lon="1.19129">
        <ele>265.5147264</ele>
        <time>2022-08-16T16:13:07Z</time>
      </trkpt>
      <trkpt lat="44.90914" lon="1.19131">
        <ele>265.281601</ele>
        <time>2022-08-16T16:13:09Z</time>
      </trkpt>
      <trkpt lat="44.90924" lon="1.19133">
        <ele>265.4110016</ele>
        <time>2022-08-16T16:13:11Z</time>
      </trkpt>
      <trkpt lat="44.90934" lon="1.19135">
        <ele>265.2221295</ele>
        <time>2022-08-16T16:13:13Z</time>
      </trkpt>
      <trkpt lat="44.90945" lon="1.19136">
        <ele>264.8756664</ele>
        <time>2022-08-16T16:13:15Z</time>
      </trkpt>
      <trkpt lat="44.90957" lon="1.19139">
        <ele>264.3772265</ele>
        <time>2022-08-16T16:13:17Z</time>
      </trkpt>
      <trkpt lat="44.90968" lon="1.1914">
        <ele>264.0822751</ele>
        <time>2022-08-16T16:13:19Z</time>
      </trkpt>
      <trkpt lat="44.90979" lon="1.19142">
        <ele>264.2324942</ele>
        <time>2022-08-16T16:13:21Z</time>
      </trkpt>
      <trkpt lat="44.90989" lon="1.19144">
        <ele>264.5017094</ele>
        <time>2022-08-16T16:13:23Z</time>
      </trkpt>
      <trkpt lat="44.90999" lon="1.19147">
        <ele>264.814992</ele>
        <time>2022-08-16T16:13:25Z</time>
      </trkpt>
      <trkpt lat="44.91009" lon="1.19149">
        <ele>264.926869</ele>
        <time>2022-08-16T16:13:27Z</time>
      </trkpt>
      <trkpt lat="44.9102" lon="1.19153">
        <ele>265.2660731</ele>
        <time>2022-08-16T16:13:29Z</time>
      </trkpt>
      <trkpt lat="44.91029" lon="1.19151">
        <ele>265.6089524</ele>
        <time>2022-08-16T16:13:31Z</time>
      </trkpt>
      <trkpt lat="44.91038" lon="1.19145">
        <ele>265.8748591</ele>
        <time>2022-08-16T16:13:33Z</time>
      </trkpt>
      <trkpt lat="44.91046" lon="1.1914">
        <ele>266.3671888</ele>
        <time>2022-08-16T16:13:35Z</time>
      </trkpt>
      <trkpt lat="44.91053" lon="1.19137">
        <ele>266.7415244</ele>
        <time>2022-08-16T16:13:37Z</time>
      </trkpt>
      <trkpt lat="44.91059" lon="1.19133">
        <ele>266.9870218</ele>
        <time>2022-08-16T16:13:39Z</time>
      </trkpt>
      <trkpt lat="44.91066" lon="1.19131">
        <ele>267.2425341</ele>
        <time>2022-08-16T16:13:41Z</time>
      </trkpt>
      <trkpt lat="44.91072" lon="1.19126">
        <ele>267.2611102</ele>
        <time>2022-08-16T16:13:43Z</time>
      </trkpt>
      <trkpt lat="44.91078" lon="1.19123">
        <ele>267.1337967</ele>
        <time>2022-08-16T16:13:45Z</time>
      </trkpt>
      <trkpt lat="44.91084" lon="1.1912">
        <ele>267.3034394</ele>
        <time>2022-08-16T16:13:47Z</time>
      </trkpt>
      <trkpt lat="44.9109" lon="1.19117">
        <ele>266.8142299</ele>
        <time>2022-08-16T16:13:49Z</time>
      </trkpt>
      <trkpt lat="44.91098" lon="1.19114">
        <ele>266.7722654</ele>
        <time>2022-08-16T16:13:51Z</time>
      </trkpt>
      <trkpt lat="44.91107" lon="1.19111">
        <ele>266.2181928</ele>
        <time>2022-08-16T16:13:53Z</time>
      </trkpt>
      <trkpt lat="44.91117" lon="1.1911">
        <ele>265.1908702</ele>
        <time>2022-08-16T16:13:55Z</time>
      </trkpt>
      <trkpt lat="44.91126" lon="1.19108">
        <ele>263.954325</ele>
        <time>2022-08-16T16:13:57Z</time>
      </trkpt>
      <trkpt lat="44.91135" lon="1.19104">
        <ele>262.7344191</ele>
        <time>2022-08-16T16:13:59Z</time>
      </trkpt>
      <trkpt lat="44.91143" lon="1.19094">
        <ele>261.3057623</ele>
        <time>2022-08-16T16:14:01Z</time>
      </trkpt>
      <trkpt lat="44.91151" lon="1.19082">
        <ele>259.4970471</ele>
        <time>2022-08-16T16:14:03Z</time>
      </trkpt>
      <trkpt lat="44.91158" lon="1.19069">
        <ele>257.9405695</ele>
        <time>2022-08-16T16:14:05Z</time>
      </trkpt>
      <trkpt lat="44.91165" lon="1.19057">
        <ele>256.0059342</ele>
        <time>2022-08-16T16:14:07Z</time>
      </trkpt>
      <trkpt lat="44.91172" lon="1.19047">
        <ele>254.5239031</ele>
        <time>2022-08-16T16:14:09Z</time>
      </trkpt>
      <trkpt lat="44.9118" lon="1.19038">
        <ele>253.444772</ele>
        <time>2022-08-16T16:14:11Z</time>
      </trkpt>
      <trkpt lat="44.91188" lon="1.19029">
        <ele>252.5729744</ele>
        <time>2022-08-16T16:14:13Z</time>
      </trkpt>
      <trkpt lat="44.91194" lon="1.19016">
        <ele>250.780253</ele>
        <time>2022-08-16T16:14:15Z</time>
      </trkpt>
      <trkpt lat="44.912" lon="1.19">
        <ele>248.1513154</ele>
        <time>2022-08-16T16:14:17Z</time>
      </trkpt>
      <trkpt lat="44.91206" lon="1.18984">
        <ele>246.5549191</ele>
        <time>2022-08-16T16:14:19Z</time>
      </trkpt>
      <trkpt lat="44.91217" lon="1.18974">
        <ele>245.6619445</ele>
        <time>2022-08-16T16:14:21Z</time>
      </trkpt>
      <trkpt lat="44.91229" lon="1.18965">
        <ele>244.0835397</ele>
        <time>2022-08-16T16:14:23Z</time>
      </trkpt>
      <trkpt lat="44.9124" lon="1.18957">
        <ele>242.0660598</ele>
        <time>2022-08-16T16:14:25Z</time>
      </trkpt>
      <trkpt lat="44.91253" lon="1.18948">
        <ele>239.6180353</ele>
        <time>2022-08-16T16:14:27Z</time>
      </trkpt>
      <trkpt lat="44.91267" lon="1.1894">
        <ele>236.7877246</ele>
        <time>2022-08-16T16:14:29Z</time>
      </trkpt>
      <trkpt lat="44.91282" lon="1.18933">
        <ele>235.65244</ele>
        <time>2022-08-16T16:14:31Z</time>
      </trkpt>
      <trkpt lat="44.91297" lon="1.18925">
        <ele>233.8986614</ele>
        <time>2022-08-16T16:14:33Z</time>
      </trkpt>
      <trkpt lat="44.91311" lon="1.18917">
        <ele>232.7606985</ele>
        <time>2022-08-16T16:14:35Z</time>
      </trkpt>
      <trkpt lat="44.91323" lon="1.18903">
        <ele>232.17556</ele>
        <time>2022-08-16T16:14:37Z</time>
      </trkpt>
      <trkpt lat="44.91333" lon="1.18886">
        <ele>232.1311768</ele>
        <time>2022-08-16T16:14:39Z</time>
      </trkpt>
      <trkpt lat="44.91347" lon="1.18876">
        <ele>233.1853344</ele>
        <time>2022-08-16T16:14:41Z</time>
      </trkpt>
      <trkpt lat="44.91359" lon="1.18871">
        <ele>230.8328103</ele>
        <time>2022-08-16T16:14:43Z</time>
      </trkpt>
      <trkpt lat="44.91372" lon="1.18866">
        <ele>230.4531861</ele>
        <time>2022-08-16T16:14:45Z</time>
      </trkpt>
      <trkpt lat="44.91384" lon="1.18859">
        <ele>231.5567296</ele>
        <time>2022-08-16T16:14:47Z</time>
      </trkpt>
      <trkpt lat="44.91393" lon="1.18852">
        <ele>232.5651267</ele>
        <time>2022-08-16T16:14:49Z</time>
      </trkpt>
      <trkpt lat="44.91401" lon="1.18847">
        <ele>232.576809</ele>
        <time>2022-08-16T16:14:51Z</time>
      </trkpt>
      <trkpt lat="44.91409" lon="1.18845">
        <ele>232.1515896</ele>
        <time>2022-08-16T16:14:53Z</time>
      </trkpt>
      <trkpt lat="44.91415" lon="1.18843">
        <ele>230.9254821</ele>
        <time>2022-08-16T16:14:55Z</time>
      </trkpt>
      <trkpt lat="44.9142" lon="1.1884">
        <ele>231.5477675</ele>
        <time>2022-08-16T16:14:57Z</time>
      </trkpt>
      <trkpt lat="44.91426" lon="1.18836">
        <ele>231.8800653</ele>
        <time>2022-08-16T16:14:59Z</time>
      </trkpt>
      <trkpt lat="44.9143" lon="1.18834">
        <ele>230.6618445</ele>
        <time>2022-08-16T16:15:01Z</time>
      </trkpt>
      <trkpt lat="44.91437" lon="1.18828">
        <ele>231.8951313</ele>
        <time>2022-08-16T16:15:03Z</time>
      </trkpt>
      <trkpt lat="44.91444" lon="1.18824">
        <ele>231.8116782</ele>
        <time>2022-08-16T16:15:05Z</time>
      </trkpt>
      <trkpt lat="44.91453" lon="1.18822">
        <ele>231.3849103</ele>
        <time>2022-08-16T16:15:07Z</time>
      </trkpt>
      <trkpt lat="44.91463" lon="1.18819">
        <ele>230.9258596</ele>
        <time>2022-08-16T16:15:09Z</time>
      </trkpt>
      <trkpt lat="44.91473" lon="1.18811">
        <ele>230.8488812</ele>
        <time>2022-08-16T16:15:11Z</time>
      </trkpt>
      <trkpt lat="44.91484" lon="1.18802">
        <ele>229.9919181</ele>
        <time>2022-08-16T16:15:13Z</time>
      </trkpt>
      <trkpt lat="44.91496" lon="1.18794">
        <ele>229.2508188</ele>
        <time>2022-08-16T16:15:15Z</time>
      </trkpt>
      <trkpt lat="44.9151" lon="1.18788">
        <ele>228.4180161</ele>
        <time>2022-08-16T16:15:17Z</time>
      </trkpt>
      <trkpt lat="44.91525" lon="1.18787">
        <ele>228.0252935</ele>
        <time>2022-08-16T16:15:19Z</time>
      </trkpt>
      <trkpt lat="44.9154" lon="1.18789">
        <ele>227.5112075</ele>
        <time>2022-08-16T16:15:21Z</time>
      </trkpt>
      <trkpt lat="44.91555" lon="1.18792">
        <ele>226.8771595</ele>
        <time>2022-08-16T16:15:23Z</time>
      </trkpt>
      <trkpt lat="44.9157" lon="1.18792">
        <ele>225.8875573</ele>
        <time>2022-08-16T16:15:25Z</time>
      </trkpt>
      <trkpt lat="44.91586" lon="1.18789">
        <ele>225.140534</ele>
        <time>2022-08-16T16:15:27Z</time>
      </trkpt>
      <trkpt lat="44.91601" lon="1.18778">
        <ele>224.3471933</ele>
        <time>2022-08-16T16:15:29Z</time>
      </trkpt>
      <trkpt lat="44.91615" lon="1.18766">
        <ele>223.20082</ele>
        <time>2022-08-16T16:15:31Z</time>
      </trkpt>
      <trkpt lat="44.91629" lon="1.18752">
        <ele>222.1043176</ele>
        <time>2022-08-16T16:15:33Z</time>
      </trkpt>
      <trkpt lat="44.91641" lon="1.18735">
        <ele>221.4841387</ele>
        <time>2022-08-16T16:15:35Z</time>
      </trkpt>
      <trkpt lat="44.91652" lon="1.18717">
        <ele>221.0904094</ele>
        <time>2022-08-16T16:15:37Z</time>
      </trkpt>
      <trkpt lat="44.91662" lon="1.18697">
        <ele>220.0297164</ele>
        <time>2022-08-16T16:15:39Z</time>
      </trkpt>
      <trkpt lat="44.91671" lon="1.18676">
        <ele>219.2082126</ele>
        <time>2022-08-16T16:15:41Z</time>
      </trkpt>
      <trkpt lat="44.91679" lon="1.18654">
        <ele>218.5054695</ele>
        <time>2022-08-16T16:15:43Z</time>
      </trkpt>
      <trkpt lat="44.91686" lon="1.18632">
        <ele>217.3624323</ele>
        <time>2022-08-16T16:15:45Z</time>
      </trkpt>
      <trkpt lat="44.91693" lon="1.18608">
        <ele>216.4364832</ele>
        <time>2022-08-16T16:15:47Z</time>
      </trkpt>
      <trkpt lat="44.91699" lon="1.18583">
        <ele>215.2383305</ele>
        <time>2022-08-16T16:15:49Z</time>
      </trkpt>
      <trkpt lat="44.91705" lon="1.18557">
        <ele>214.2218947</ele>
        <time>2022-08-16T16:15:51Z</time>
      </trkpt>
      <trkpt lat="44.9171" lon="1.18531">
        <ele>213.1407014</ele>
        <time>2022-08-16T16:15:53Z</time>
      </trkpt>
      <trkpt lat="44.91714" lon="1.18503">
        <ele>211.6217936</ele>
        <time>2022-08-16T16:15:55Z</time>
      </trkpt>
      <trkpt lat="44.91718" lon="1.18475">
        <ele>210.2521396</ele>
        <time>2022-08-16T16:15:57Z</time>
      </trkpt>
      <trkpt lat="44.91721" lon="1.18446">
        <ele>209.172537</ele>
        <time>2022-08-16T16:15:59Z</time>
      </trkpt>
      <trkpt lat="44.91724" lon="1.18416">
        <ele>207.2166215</ele>
        <time>2022-08-16T16:16:01Z</time>
      </trkpt>
      <trkpt lat="44.91727" lon="1.18386">
        <ele>206.0142113</ele>
        <time>2022-08-16T16:16:03Z</time>
      </trkpt>
      <trkpt lat="44.9173" lon="1.18357">
        <ele>205.5490183</ele>
        <time>2022-08-16T16:16:05Z</time>
      </trkpt>
      <trkpt lat="44.91734" lon="1.18329">
        <ele>204.8668607</ele>
        <time>2022-08-16T16:16:07Z</time>
      </trkpt>
      <trkpt lat="44.91737" lon="1.18302">
        <ele>204.0443035</ele>
        <time>2022-08-16T16:16:09Z</time>
      </trkpt>
      <trkpt lat="44.9174" lon="1.18275">
        <ele>204.1178765</ele>
        <time>2022-08-16T16:16:11Z</time>
      </trkpt>
      <trkpt lat="44.91743" lon="1.1825">
        <ele>203.5812938</ele>
        <time>2022-08-16T16:16:13Z</time>
      </trkpt>
      <trkpt lat="44.91746" lon="1.18225">
        <ele>203.1254711</ele>
        <time>2022-08-16T16:16:15Z</time>
      </trkpt>
      <trkpt lat="44.91748" lon="1.18202">
        <ele>203.2197827</ele>
        <time>2022-08-16T16:16:17Z</time>
      </trkpt>
      <trkpt lat="44.91751" lon="1.18179">
        <ele>202.3855066</ele>
        <time>2022-08-16T16:16:19Z</time>
      </trkpt>
      <trkpt lat="44.91753" lon="1.18157">
        <ele>201.8982721</ele>
        <time>2022-08-16T16:16:21Z</time>
      </trkpt>
      <trkpt lat="44.91755" lon="1.18136">
        <ele>201.558712</ele>
        <time>2022-08-16T16:16:23Z</time>
      </trkpt>
      <trkpt lat="44.91757" lon="1.18115">
        <ele>201.1030506</ele>
        <time>2022-08-16T16:16:25Z</time>
      </trkpt>
      <trkpt lat="44.9176" lon="1.18095">
        <ele>200.868007</ele>
        <time>2022-08-16T16:16:27Z</time>
      </trkpt>
      <trkpt lat="44.91762" lon="1.18075">
        <ele>200.2458746</ele>
        <time>2022-08-16T16:16:29Z</time>
      </trkpt>
      <trkpt lat="44.91766" lon="1.18055">
        <ele>199.6563794</ele>
        <time>2022-08-16T16:16:31Z</time>
      </trkpt>
      <trkpt lat="44.9177" lon="1.18036">
        <ele>199.028367</ele>
        <time>2022-08-16T16:16:33Z</time>
      </trkpt>
      <trkpt lat="44.91777" lon="1.18018">
        <ele>198.5562025</ele>
        <time>2022-08-16T16:16:35Z</time>
      </trkpt>
      <trkpt lat="44.91783" lon="1.18">
        <ele>197.9037722</ele>
        <time>2022-08-16T16:16:37Z</time>
      </trkpt>
      <trkpt lat="44.9179" lon="1.17982">
        <ele>198.23455</ele>
        <time>2022-08-16T16:16:39Z</time>
      </trkpt>
      <trkpt lat="44.91797" lon="1.17964">
        <ele>197.625873</ele>
        <time>2022-08-16T16:16:41Z</time>
      </trkpt>
      <trkpt lat="44.91805" lon="1.17947">
        <ele>197.4031322</ele>
        <time>2022-08-16T16:16:43Z</time>
      </trkpt>
      <trkpt lat="44.91812" lon="1.1793">
        <ele>196.8461384</ele>
        <time>2022-08-16T16:16:45Z</time>
      </trkpt>
      <trkpt lat="44.91819" lon="1.17912">
        <ele>196.675734</ele>
        <time>2022-08-16T16:16:47Z</time>
      </trkpt>
      <trkpt lat="44.91826" lon="1.17895">
        <ele>196.4296613</ele>
        <time>2022-08-16T16:16:49Z</time>
      </trkpt>
      <trkpt lat="44.91833" lon="1.17877">
        <ele>195.5724604</ele>
        <time>2022-08-16T16:16:51Z</time>
      </trkpt>
      <trkpt lat="44.9184" lon="1.1786">
        <ele>195.8018516</ele>
        <time>2022-08-16T16:16:53Z</time>
      </trkpt>
      <trkpt lat="44.91848" lon="1.17842">
        <ele>196.2967104</ele>
        <time>2022-08-16T16:16:55Z</time>
      </trkpt>
      <trkpt lat="44.91855" lon="1.17824">
        <ele>195.3456743</ele>
        <time>2022-08-16T16:16:57Z</time>
      </trkpt>
      <trkpt lat="44.91862" lon="1.17807">
        <ele>195.3252665</ele>
        <time>2022-08-16T16:16:59Z</time>
      </trkpt>
      <trkpt lat="44.9187" lon="1.1779">
        <ele>194.9363509</ele>
        <time>2022-08-16T16:17:01Z</time>
      </trkpt>
      <trkpt lat="44.91877" lon="1.17772">
        <ele>194.570723</ele>
        <time>2022-08-16T16:17:03Z</time>
      </trkpt>
      <trkpt lat="44.91884" lon="1.17756">
        <ele>194.1823875</ele>
        <time>2022-08-16T16:17:05Z</time>
      </trkpt>
      <trkpt lat="44.91891" lon="1.17739">
        <ele>194.2335635</ele>
        <time>2022-08-16T16:17:07Z</time>
      </trkpt>
      <trkpt lat="44.91897" lon="1.17722">
        <ele>194.2940405</ele>
        <time>2022-08-16T16:17:09Z</time>
      </trkpt>
      <trkpt lat="44.91904" lon="1.17706">
        <ele>194.0254357</ele>
        <time>2022-08-16T16:17:11Z</time>
      </trkpt>
      <trkpt lat="44.91911" lon="1.1769">
        <ele>194.0054371</ele>
        <time>2022-08-16T16:17:13Z</time>
      </trkpt>
      <trkpt lat="44.91918" lon="1.17673">
        <ele>193.6796757</ele>
        <time>2022-08-16T16:17:15Z</time>
      </trkpt>
      <trkpt lat="44.91925" lon="1.17656">
        <ele>193.4995194</ele>
        <time>2022-08-16T16:17:17Z</time>
      </trkpt>
      <trkpt lat="44.91931" lon="1.1764">
        <ele>193.4607776</ele>
        <time>2022-08-16T16:17:19Z</time>
      </trkpt>
      <trkpt lat="44.91938" lon="1.17625">
        <ele>192.9760839</ele>
        <time>2022-08-16T16:17:21Z</time>
      </trkpt>
      <trkpt lat="44.91945" lon="1.17609">
        <ele>192.7362404</ele>
        <time>2022-08-16T16:17:23Z</time>
      </trkpt>
      <trkpt lat="44.91951" lon="1.17593">
        <ele>192.5818184</ele>
        <time>2022-08-16T16:17:25Z</time>
      </trkpt>
      <trkpt lat="44.91957" lon="1.17577">
        <ele>192.4473351</ele>
        <time>2022-08-16T16:17:27Z</time>
      </trkpt>
      <trkpt lat="44.91964" lon="1.17562">
        <ele>191.7613358</ele>
        <time>2022-08-16T16:17:29Z</time>
      </trkpt>
      <trkpt lat="44.9197" lon="1.17545">
        <ele>191.9669372</ele>
        <time>2022-08-16T16:17:31Z</time>
      </trkpt>
      <trkpt lat="44.91977" lon="1.17529">
        <ele>191.242281</ele>
        <time>2022-08-16T16:17:33Z</time>
      </trkpt>
      <trkpt lat="44.91983" lon="1.17514">
        <ele>190.8036474</ele>
        <time>2022-08-16T16:17:35Z</time>
      </trkpt>
      <trkpt lat="44.9199" lon="1.17499">
        <ele>190.7019802</ele>
        <time>2022-08-16T16:17:37Z</time>
      </trkpt>
      <trkpt lat="44.91996" lon="1.17482">
        <ele>190.3619005</ele>
        <time>2022-08-16T16:17:39Z</time>
      </trkpt>
      <trkpt lat="44.92001" lon="1.17466">
        <ele>191.008668</ele>
        <time>2022-08-16T16:17:41Z</time>
      </trkpt>
      <trkpt lat="44.92008" lon="1.17452">
        <ele>190.4036223</ele>
        <time>2022-08-16T16:17:43Z</time>
      </trkpt>
      <trkpt lat="44.92013" lon="1.17435">
        <ele>190.7494974</ele>
        <time>2022-08-16T16:17:45Z</time>
      </trkpt>
      <trkpt lat="44.9202" lon="1.1742">
        <ele>190.6365362</ele>
        <time>2022-08-16T16:17:47Z</time>
      </trkpt>
      <trkpt lat="44.92026" lon="1.17406">
        <ele>190.1248904</ele>
        <time>2022-08-16T16:17:49Z</time>
      </trkpt>
      <trkpt lat="44.92033" lon="1.17391">
        <ele>189.1291651</ele>
        <time>2022-08-16T16:17:51Z</time>
      </trkpt>
      <trkpt lat="44.92039" lon="1.17376">
        <ele>189.0763485</ele>
        <time>2022-08-16T16:17:53Z</time>
      </trkpt>
      <trkpt lat="44.92044" lon="1.1736">
        <ele>189.5355774</ele>
        <time>2022-08-16T16:17:55Z</time>
      </trkpt>
      <trkpt lat="44.92049" lon="1.17343">
        <ele>188.5950397</ele>
        <time>2022-08-16T16:17:57Z</time>
      </trkpt>
      <trkpt lat="44.92055" lon="1.17329">
        <ele>189.2153473</ele>
        <time>2022-08-16T16:17:59Z</time>
      </trkpt>
      <trkpt lat="44.92062" lon="1.17315">
        <ele>188.916934</ele>
        <time>2022-08-16T16:18:01Z</time>
      </trkpt>
      <trkpt lat="44.92068" lon="1.173">
        <ele>188.962488</ele>
        <time>2022-08-16T16:18:03Z</time>
      </trkpt>
      <trkpt lat="44.92074" lon="1.17285">
        <ele>187.8671324</ele>
        <time>2022-08-16T16:18:05Z</time>
      </trkpt>
      <trkpt lat="44.92082" lon="1.1727">
        <ele>187.1460506</ele>
        <time>2022-08-16T16:18:07Z</time>
      </trkpt>
      <trkpt lat="44.92088" lon="1.17255">
        <ele>186.9123541</ele>
        <time>2022-08-16T16:18:09Z</time>
      </trkpt>
      <trkpt lat="44.92096" lon="1.17243">
        <ele>185.6149675</ele>
        <time>2022-08-16T16:18:11Z</time>
      </trkpt>
      <trkpt lat="44.92106" lon="1.17231">
        <ele>184.691063</ele>
        <time>2022-08-16T16:18:13Z</time>
      </trkpt>
      <trkpt lat="44.92117" lon="1.17221">
        <ele>183.6914004</ele>
        <time>2022-08-16T16:18:15Z</time>
      </trkpt>
      <trkpt lat="44.92125" lon="1.17209">
        <ele>183.0490178</ele>
        <time>2022-08-16T16:18:17Z</time>
      </trkpt>
      <trkpt lat="44.92126" lon="1.17185">
        <ele>185.0787039</ele>
        <time>2022-08-16T16:18:19Z</time>
      </trkpt>
      <trkpt lat="44.92133" lon="1.17173">
        <ele>185.201108</ele>
        <time>2022-08-16T16:18:21Z</time>
      </trkpt>
      <trkpt lat="44.9214" lon="1.17161">
        <ele>186.2412767</ele>
        <time>2022-08-16T16:18:23Z</time>
      </trkpt>
      <trkpt lat="44.92146" lon="1.1715">
        <ele>186.9812043</ele>
        <time>2022-08-16T16:18:25Z</time>
      </trkpt>
      <trkpt lat="44.92151" lon="1.1714">
        <ele>187.7817049</ele>
        <time>2022-08-16T16:18:27Z</time>
      </trkpt>
      <trkpt lat="44.92156" lon="1.17131">
        <ele>188.0983419</ele>
        <time>2022-08-16T16:18:29Z</time>
      </trkpt>
      <trkpt lat="44.92161" lon="1.17123">
        <ele>188.8086387</ele>
        <time>2022-08-16T16:18:31Z</time>
      </trkpt>
      <trkpt lat="44.92166" lon="1.17116">
        <ele>189.7186941</ele>
        <time>2022-08-16T16:18:33Z</time>
      </trkpt>
      <trkpt lat="44.92172" lon="1.17109">
        <ele>190.2661662</ele>
        <time>2022-08-16T16:18:35Z</time>
      </trkpt>
      <trkpt lat="44.92177" lon="1.17103">
        <ele>190.7742034</ele>
        <time>2022-08-16T16:18:37Z</time>
      </trkpt>
      <trkpt lat="44.92182" lon="1.17096">
        <ele>191.3891597</ele>
        <time>2022-08-16T16:18:39Z</time>
      </trkpt>
      <trkpt lat="44.92187" lon="1.1709">
        <ele>191.918332</ele>
        <time>2022-08-16T16:18:41Z</time>
      </trkpt>
      <trkpt lat="44.92192" lon="1.17084">
        <ele>193.2471503</ele>
        <time>2022-08-16T16:18:43Z</time>
      </trkpt>
      <trkpt lat="44.92196" lon="1.17078">
        <ele>193.923796</ele>
        <time>2022-08-16T16:18:45Z</time>
      </trkpt>
      <trkpt lat="44.92201" lon="1.17073">
        <ele>194.3278476</ele>
        <time>2022-08-16T16:18:47Z</time>
      </trkpt>
      <trkpt lat="44.92205" lon="1.17068">
        <ele>194.604563</ele>
        <time>2022-08-16T16:18:49Z</time>
      </trkpt>
      <trkpt lat="44.9221" lon="1.17063">
        <ele>194.9777353</ele>
        <time>2022-08-16T16:18:51Z</time>
      </trkpt>
      <trkpt lat="44.92214" lon="1.17058">
        <ele>195.2011427</ele>
        <time>2022-08-16T16:18:53Z</time>
      </trkpt>
      <trkpt lat="44.92219" lon="1.17053">
        <ele>195.3276194</ele>
        <time>2022-08-16T16:18:55Z</time>
      </trkpt>
      <trkpt lat="44.92224" lon="1.17048">
        <ele>195.7057838</ele>
        <time>2022-08-16T16:18:57Z</time>
      </trkpt>
      <trkpt lat="44.92229" lon="1.17044">
        <ele>196.338296</ele>
        <time>2022-08-16T16:18:59Z</time>
      </trkpt>
      <trkpt lat="44.92233" lon="1.17039">
        <ele>196.8797288</ele>
        <time>2022-08-16T16:19:01Z</time>
      </trkpt>
      <trkpt lat="44.92238" lon="1.17034">
        <ele>197.2254412</ele>
        <time>2022-08-16T16:19:03Z</time>
      </trkpt>
      <trkpt lat="44.92243" lon="1.1703">
        <ele>197.5917634</ele>
        <time>2022-08-16T16:19:05Z</time>
      </trkpt>
      <trkpt lat="44.92248" lon="1.17025">
        <ele>198.1423874</ele>
        <time>2022-08-16T16:19:07Z</time>
      </trkpt>
      <trkpt lat="44.92253" lon="1.17021">
        <ele>198.2753121</ele>
        <time>2022-08-16T16:19:09Z</time>
      </trkpt>
      <trkpt lat="44.92258" lon="1.17017">
        <ele>199.010985</ele>
        <time>2022-08-16T16:19:11Z</time>
      </trkpt>
      <trkpt lat="44.92263" lon="1.17013">
        <ele>199.2017844</ele>
        <time>2022-08-16T16:19:13Z</time>
      </trkpt>
      <trkpt lat="44.92267" lon="1.17009">
        <ele>199.8769482</ele>
        <time>2022-08-16T16:19:15Z</time>
      </trkpt>
      <trkpt lat="44.92272" lon="1.17006">
        <ele>200.2941909</ele>
        <time>2022-08-16T16:19:17Z</time>
      </trkpt>
      <trkpt lat="44.92276" lon="1.17001">
        <ele>200.8046003</ele>
        <time>2022-08-16T16:19:19Z</time>
      </trkpt>
      <trkpt lat="44.9228" lon="1.16997">
        <ele>201.1789888</ele>
        <time>2022-08-16T16:19:21Z</time>
      </trkpt>
      <trkpt lat="44.92284" lon="1.16992">
        <ele>201.2779479</ele>
        <time>2022-08-16T16:19:23Z</time>
      </trkpt>
      <trkpt lat="44.92289" lon="1.16988">
        <ele>201.598464</ele>
        <time>2022-08-16T16:19:25Z</time>
      </trkpt>
      <trkpt lat="44.92293" lon="1.16983">
        <ele>201.4001719</ele>
        <time>2022-08-16T16:19:27Z</time>
      </trkpt>
      <trkpt lat="44.92296" lon="1.16977">
        <ele>201.921931</ele>
        <time>2022-08-16T16:19:29Z</time>
      </trkpt>
      <trkpt lat="44.92299" lon="1.16972">
        <ele>202.721627</ele>
        <time>2022-08-16T16:19:31Z</time>
      </trkpt>
      <trkpt lat="44.92302" lon="1.16966">
        <ele>202.7419143</ele>
        <time>2022-08-16T16:19:33Z</time>
      </trkpt>
      <trkpt lat="44.92305" lon="1.1696">
        <ele>203.0842683</ele>
        <time>2022-08-16T16:19:35Z</time>
      </trkpt>
      <trkpt lat="44.92307" lon="1.16954">
        <ele>202.8979995</ele>
        <time>2022-08-16T16:19:37Z</time>
      </trkpt>
      <trkpt lat="44.92308" lon="1.16947">
        <ele>203.049437</ele>
        <time>2022-08-16T16:19:39Z</time>
      </trkpt>
      <trkpt lat="44.92309" lon="1.16939">
        <ele>203.7852394</ele>
        <time>2022-08-16T16:19:41Z</time>
      </trkpt>
      <trkpt lat="44.92309" lon="1.16932">
        <ele>203.5699067</ele>
        <time>2022-08-16T16:19:43Z</time>
      </trkpt>
      <trkpt lat="44.92308" lon="1.16926">
        <ele>203.8146836</ele>
        <time>2022-08-16T16:19:45Z</time>
      </trkpt>
      <trkpt lat="44.92308" lon="1.16919">
        <ele>204.0725057</ele>
        <time>2022-08-16T16:19:47Z</time>
      </trkpt>
      <trkpt lat="44.92307" lon="1.16911">
        <ele>204.3191345</ele>
        <time>2022-08-16T16:19:49Z</time>
      </trkpt>
      <trkpt lat="44.92307" lon="1.16904">
        <ele>204.6085496</ele>
        <time>2022-08-16T16:19:51Z</time>
      </trkpt>
      <trkpt lat="44.92306" lon="1.16897">
        <ele>204.8171668</ele>
        <time>2022-08-16T16:19:53Z</time>
      </trkpt>
      <trkpt lat="44.92304" lon="1.1689">
        <ele>205.1365918</ele>
        <time>2022-08-16T16:19:55Z</time>
      </trkpt>
      <trkpt lat="44.92303" lon="1.16883">
        <ele>204.9583534</ele>
        <time>2022-08-16T16:19:57Z</time>
      </trkpt>
      <trkpt lat="44.92302" lon="1.16876">
        <ele>205.3103643</ele>
        <time>2022-08-16T16:19:59Z</time>
      </trkpt>
      <trkpt lat="44.92299" lon="1.1687">
        <ele>204.3025282</ele>
        <time>2022-08-16T16:20:01Z</time>
      </trkpt>
      <trkpt lat="44.92296" lon="1.16863">
        <ele>204.1628694</ele>
        <time>2022-08-16T16:20:03Z</time>
      </trkpt>
      <trkpt lat="44.92292" lon="1.16857">
        <ele>204.0829934</ele>
        <time>2022-08-16T16:20:05Z</time>
      </trkpt>
      <trkpt lat="44.92287" lon="1.16852">
        <ele>203.4200575</ele>
        <time>2022-08-16T16:20:07Z</time>
      </trkpt>
      <trkpt lat="44.92282" lon="1.16847">
        <ele>202.8166511</ele>
        <time>2022-08-16T16:20:09Z</time>
      </trkpt>
      <trkpt lat="44.92278" lon="1.16841">
        <ele>202.7506185</ele>
        <time>2022-08-16T16:20:11Z</time>
      </trkpt>
      <trkpt lat="44.92273" lon="1.16836">
        <ele>203.0624402</ele>
        <time>2022-08-16T16:20:13Z</time>
      </trkpt>
      <trkpt lat="44.9227" lon="1.16829">
        <ele>203.2256926</ele>
        <time>2022-08-16T16:20:15Z</time>
      </trkpt>
      <trkpt lat="44.92266" lon="1.16822">
        <ele>203.7829235</ele>
        <time>2022-08-16T16:20:17Z</time>
      </trkpt>
      <trkpt lat="44.92265" lon="1.16814">
        <ele>203.7879674</ele>
        <time>2022-08-16T16:20:19Z</time>
      </trkpt>
      <trkpt lat="44.92264" lon="1.16806">
        <ele>202.8591529</ele>
        <time>2022-08-16T16:20:21Z</time>
      </trkpt>
      <trkpt lat="44.92265" lon="1.16798">
        <ele>203.3700882</ele>
        <time>2022-08-16T16:20:23Z</time>
      </trkpt>
      <trkpt lat="44.92265" lon="1.16791">
        <ele>203.5572311</ele>
        <time>2022-08-16T16:20:25Z</time>
      </trkpt>
      <trkpt lat="44.92267" lon="1.16782">
        <ele>204.2475504</ele>
        <time>2022-08-16T16:20:27Z</time>
      </trkpt>
      <trkpt lat="44.92269" lon="1.16774">
        <ele>204.2653391</ele>
        <time>2022-08-16T16:20:29Z</time>
      </trkpt>
      <trkpt lat="44.9227" lon="1.16765">
        <ele>205.2672217</ele>
        <time>2022-08-16T16:20:31Z</time>
      </trkpt>
      <trkpt lat="44.92271" lon="1.16757">
        <ele>206.1898667</ele>
        <time>2022-08-16T16:20:33Z</time>
      </trkpt>
      <trkpt lat="44.92272" lon="1.16749">
        <ele>207.0720047</ele>
        <time>2022-08-16T16:20:35Z</time>
      </trkpt>
      <trkpt lat="44.92274" lon="1.16742">
        <ele>207.8807144</ele>
        <time>2022-08-16T16:20:37Z</time>
      </trkpt>
      <trkpt lat="44.92275" lon="1.16735">
        <ele>208.4404061</ele>
        <time>2022-08-16T16:20:39Z</time>
      </trkpt>
      <trkpt lat="44.92276" lon="1.16728">
        <ele>208.23976</ele>
        <time>2022-08-16T16:20:41Z</time>
      </trkpt>
      <trkpt lat="44.92277" lon="1.16721">
        <ele>208.0007837</ele>
        <time>2022-08-16T16:20:43Z</time>
      </trkpt>
      <trkpt lat="44.92278" lon="1.16712">
        <ele>208.4268885</ele>
        <time>2022-08-16T16:20:45Z</time>
      </trkpt>
      <trkpt lat="44.92277" lon="1.16706">
        <ele>209.2614818</ele>
        <time>2022-08-16T16:20:47Z</time>
      </trkpt>
      <trkpt lat="44.92278" lon="1.16697">
        <ele>210.4120171</ele>
        <time>2022-08-16T16:20:49Z</time>
      </trkpt>
      <trkpt lat="44.92278" lon="1.16689">
        <ele>210.4094346</ele>
        <time>2022-08-16T16:20:51Z</time>
      </trkpt>
      <trkpt lat="44.92278" lon="1.16681">
        <ele>211.3976506</ele>
        <time>2022-08-16T16:20:53Z</time>
      </trkpt>
      <trkpt lat="44.92279" lon="1.16672">
        <ele>211.6205862</ele>
        <time>2022-08-16T16:20:55Z</time>
      </trkpt>
      <trkpt lat="44.9228" lon="1.16664">
        <ele>211.0208621</ele>
        <time>2022-08-16T16:20:57Z</time>
      </trkpt>
      <trkpt lat="44.9228" lon="1.16656">
        <ele>211.0208349</ele>
        <time>2022-08-16T16:20:59Z</time>
      </trkpt>
      <trkpt lat="44.9228" lon="1.16648">
        <ele>210.8733356</ele>
        <time>2022-08-16T16:21:01Z</time>
      </trkpt>
      <trkpt lat="44.9228" lon="1.1664">
        <ele>211.1689257</ele>
        <time>2022-08-16T16:21:03Z</time>
      </trkpt>
      <trkpt lat="44.9228" lon="1.16632">
        <ele>210.4461673</ele>
        <time>2022-08-16T16:21:05Z</time>
      </trkpt>
      <trkpt lat="44.9228" lon="1.16624">
        <ele>211.2912217</ele>
        <time>2022-08-16T16:21:07Z</time>
      </trkpt>
      <trkpt lat="44.92279" lon="1.16617">
        <ele>211.042587</ele>
        <time>2022-08-16T16:21:09Z</time>
      </trkpt>
      <trkpt lat="44.92278" lon="1.16608">
        <ele>211.6693463</ele>
        <time>2022-08-16T16:21:11Z</time>
      </trkpt>
      <trkpt lat="44.92278" lon="1.16601">
        <ele>211.1107711</ele>
        <time>2022-08-16T16:21:13Z</time>
      </trkpt>
      <trkpt lat="44.92278" lon="1.16593">
        <ele>210.5789776</ele>
        <time>2022-08-16T16:21:15Z</time>
      </trkpt>
      <trkpt lat="44.92278" lon="1.16586">
        <ele>209.6008761</ele>
        <time>2022-08-16T16:21:17Z</time>
      </trkpt>
      <trkpt lat="44.92277" lon="1.16579">
        <ele>209.6127177</ele>
        <time>2022-08-16T16:21:19Z</time>
      </trkpt>
      <trkpt lat="44.92275" lon="1.16571">
        <ele>209.8717885</ele>
        <time>2022-08-16T16:21:21Z</time>
      </trkpt>
      <trkpt lat="44.92272" lon="1.16562">
        <ele>210.2494879</ele>
        <time>2022-08-16T16:21:23Z</time>
      </trkpt>
      <trkpt lat="44.92269" lon="1.16555">
        <ele>210.4262593</ele>
        <time>2022-08-16T16:21:25Z</time>
      </trkpt>
      <trkpt lat="44.92267" lon="1.16547">
        <ele>210.8367134</ele>
        <time>2022-08-16T16:21:27Z</time>
      </trkpt>
      <trkpt lat="44.92264" lon="1.16539">
        <ele>211.0940365</ele>
        <time>2022-08-16T16:21:29Z</time>
      </trkpt>
      <trkpt lat="44.92261" lon="1.16532">
        <ele>211.4259943</ele>
        <time>2022-08-16T16:21:31Z</time>
      </trkpt>
      <trkpt lat="44.92258" lon="1.16526">
        <ele>211.4468075</ele>
        <time>2022-08-16T16:21:33Z</time>
      </trkpt>
      <trkpt lat="44.92255" lon="1.16519">
        <ele>211.3367791</ele>
        <time>2022-08-16T16:21:35Z</time>
      </trkpt>
      <trkpt lat="44.92251" lon="1.16509">
        <ele>211.33087</ele>
        <time>2022-08-16T16:21:37Z</time>
      </trkpt>
      <trkpt lat="44.92249" lon="1.16501">
        <ele>210.828185</ele>
        <time>2022-08-16T16:21:39Z</time>
      </trkpt>
      <trkpt lat="44.92247" lon="1.16493">
        <ele>210.461885</ele>
        <time>2022-08-16T16:21:41Z</time>
      </trkpt>
      <trkpt lat="44.92246" lon="1.16484">
        <ele>210.0548493</ele>
        <time>2022-08-16T16:21:43Z</time>
      </trkpt>
      <trkpt lat="44.92245" lon="1.16476">
        <ele>209.7848813</ele>
        <time>2022-08-16T16:21:45Z</time>
      </trkpt>
      <trkpt lat="44.92244" lon="1.16466">
        <ele>210.043179</ele>
        <time>2022-08-16T16:21:47Z</time>
      </trkpt>
      <trkpt lat="44.92245" lon="1.16458">
        <ele>209.9354784</ele>
        <time>2022-08-16T16:21:49Z</time>
      </trkpt>
      <trkpt lat="44.92244" lon="1.16448">
        <ele>210.513193</ele>
        <time>2022-08-16T16:21:51Z</time>
      </trkpt>
      <trkpt lat="44.92243" lon="1.16439">
        <ele>210.7517805</ele>
        <time>2022-08-16T16:21:53Z</time>
      </trkpt>
      <trkpt lat="44.92243" lon="1.16429">
        <ele>210.2656631</ele>
        <time>2022-08-16T16:21:55Z</time>
      </trkpt>
      <trkpt lat="44.92243" lon="1.16421">
        <ele>211.3511924</ele>
        <time>2022-08-16T16:21:57Z</time>
      </trkpt>
      <trkpt lat="44.92244" lon="1.16411">
        <ele>211.9461478</ele>
        <time>2022-08-16T16:21:59Z</time>
      </trkpt>
      <trkpt lat="44.92245" lon="1.16402">
        <ele>213.0213249</ele>
        <time>2022-08-16T16:22:01Z</time>
      </trkpt>
      <trkpt lat="44.92245" lon="1.16393">
        <ele>213.7568705</ele>
        <time>2022-08-16T16:22:03Z</time>
      </trkpt>
      <trkpt lat="44.92245" lon="1.16383">
        <ele>214.7265082</ele>
        <time>2022-08-16T16:22:05Z</time>
      </trkpt>
      <trkpt lat="44.92246" lon="1.16375">
        <ele>215.0986355</ele>
        <time>2022-08-16T16:22:07Z</time>
      </trkpt>
      <trkpt lat="44.92245" lon="1.16366">
        <ele>215.502401</ele>
        <time>2022-08-16T16:22:09Z</time>
      </trkpt>
      <trkpt lat="44.92245" lon="1.16357">
        <ele>215.7494194</ele>
        <time>2022-08-16T16:22:11Z</time>
      </trkpt>
      <trkpt lat="44.92244" lon="1.16348">
        <ele>216.2201054</ele>
        <time>2022-08-16T16:22:13Z</time>
      </trkpt>
      <trkpt lat="44.92244" lon="1.1634">
        <ele>216.430384</ele>
        <time>2022-08-16T16:22:15Z</time>
      </trkpt>
      <trkpt lat="44.92242" lon="1.16331">
        <ele>217.8036489</ele>
        <time>2022-08-16T16:22:17Z</time>
      </trkpt>
      <trkpt lat="44.92241" lon="1.16322">
        <ele>218.3856136</ele>
        <time>2022-08-16T16:22:19Z</time>
      </trkpt>
      <trkpt lat="44.92239" lon="1.16314">
        <ele>218.4352954</ele>
        <time>2022-08-16T16:22:21Z</time>
      </trkpt>
      <trkpt lat="44.92238" lon="1.16307">
        <ele>218.5575003</ele>
        <time>2022-08-16T16:22:23Z</time>
      </trkpt>
      <trkpt lat="44.92236" lon="1.163">
        <ele>218.7134939</ele>
        <time>2022-08-16T16:22:25Z</time>
      </trkpt>
      <trkpt lat="44.92234" lon="1.16292">
        <ele>219.4636196</ele>
        <time>2022-08-16T16:22:27Z</time>
      </trkpt>
      <trkpt lat="44.92233" lon="1.16285">
        <ele>219.4576708</ele>
        <time>2022-08-16T16:22:29Z</time>
      </trkpt>
      <trkpt lat="44.92231" lon="1.16276">
        <ele>219.422386</ele>
        <time>2022-08-16T16:22:31Z</time>
      </trkpt>
      <trkpt lat="44.92229" lon="1.16269">
        <ele>218.3830559</ele>
        <time>2022-08-16T16:22:33Z</time>
      </trkpt>
      <trkpt lat="44.92227" lon="1.16262">
        <ele>217.9853529</ele>
        <time>2022-08-16T16:22:35Z</time>
      </trkpt>
      <trkpt lat="44.92224" lon="1.16254">
        <ele>218.0752594</ele>
        <time>2022-08-16T16:22:37Z</time>
      </trkpt>
      <trkpt lat="44.92222" lon="1.16246">
        <ele>217.7693235</ele>
        <time>2022-08-16T16:22:39Z</time>
      </trkpt>
      <trkpt lat="44.9222" lon="1.16238">
        <ele>217.2360164</ele>
        <time>2022-08-16T16:22:41Z</time>
      </trkpt>
      <trkpt lat="44.92219" lon="1.16229">
        <ele>217.5293269</ele>
        <time>2022-08-16T16:22:43Z</time>
      </trkpt>
      <trkpt lat="44.92217" lon="1.16221">
        <ele>217.2578269</ele>
        <time>2022-08-16T16:22:45Z</time>
      </trkpt>
      <trkpt lat="44.92215" lon="1.16213">
        <ele>218.0242774</ele>
        <time>2022-08-16T16:22:47Z</time>
      </trkpt>
      <trkpt lat="44.92214" lon="1.16206">
        <ele>217.8396386</ele>
        <time>2022-08-16T16:22:49Z</time>
      </trkpt>
      <trkpt lat="44.92213" lon="1.16197">
        <ele>218.3929759</ele>
        <time>2022-08-16T16:22:51Z</time>
      </trkpt>
      <trkpt lat="44.92212" lon="1.16189">
        <ele>219.5488305</ele>
        <time>2022-08-16T16:22:53Z</time>
      </trkpt>
      <trkpt lat="44.92213" lon="1.1618">
        <ele>219.2934519</ele>
        <time>2022-08-16T16:22:55Z</time>
      </trkpt>
      <trkpt lat="44.92213" lon="1.16172">
        <ele>219.921867</ele>
        <time>2022-08-16T16:22:57Z</time>
      </trkpt>
      <trkpt lat="44.92212" lon="1.16163">
        <ele>220.4309547</ele>
        <time>2022-08-16T16:22:59Z</time>
      </trkpt>
      <trkpt lat="44.92211" lon="1.16155">
        <ele>221.0259837</ele>
        <time>2022-08-16T16:23:01Z</time>
      </trkpt>
      <trkpt lat="44.9221" lon="1.16146">
        <ele>221.222807</ele>
        <time>2022-08-16T16:23:03Z</time>
      </trkpt>
      <trkpt lat="44.9221" lon="1.16138">
        <ele>221.5131892</ele>
        <time>2022-08-16T16:23:05Z</time>
      </trkpt>
      <trkpt lat="44.9221" lon="1.16129">
        <ele>222.0970052</ele>
        <time>2022-08-16T16:23:07Z</time>
      </trkpt>
      <trkpt lat="44.92209" lon="1.16121">
        <ele>222.9818101</ele>
        <time>2022-08-16T16:23:09Z</time>
      </trkpt>
      <trkpt lat="44.92209" lon="1.16113">
        <ele>222.6994466</ele>
        <time>2022-08-16T16:23:11Z</time>
      </trkpt>
      <trkpt lat="44.92209" lon="1.16104">
        <ele>223.1450959</ele>
        <time>2022-08-16T16:23:13Z</time>
      </trkpt>
      <trkpt lat="44.92209" lon="1.16096">
        <ele>223.5755213</ele>
        <time>2022-08-16T16:23:15Z</time>
      </trkpt>
      <trkpt lat="44.9221" lon="1.16088">
        <ele>223.4597878</ele>
        <time>2022-08-16T16:23:17Z</time>
      </trkpt>
      <trkpt lat="44.92209" lon="1.1608">
        <ele>223.8129949</ele>
        <time>2022-08-16T16:23:19Z</time>
      </trkpt>
      <trkpt lat="44.9221" lon="1.16072">
        <ele>224.436705</ele>
        <time>2022-08-16T16:23:21Z</time>
      </trkpt>
      <trkpt lat="44.9221" lon="1.16063">
        <ele>224.7317694</ele>
        <time>2022-08-16T16:23:23Z</time>
      </trkpt>
      <trkpt lat="44.9221" lon="1.16055">
        <ele>225.002315</ele>
        <time>2022-08-16T16:23:25Z</time>
      </trkpt>
      <trkpt lat="44.9221" lon="1.16049">
        <ele>224.4609654</ele>
        <time>2022-08-16T16:23:27Z</time>
      </trkpt>
      <trkpt lat="44.92211" lon="1.16041">
        <ele>222.8818018</ele>
        <time>2022-08-16T16:23:29Z</time>
      </trkpt>
      <trkpt lat="44.92211" lon="1.16031">
        <ele>221.7543735</ele>
        <time>2022-08-16T16:23:31Z</time>
      </trkpt>
      <trkpt lat="44.92212" lon="1.16023">
        <ele>220.4831808</ele>
        <time>2022-08-16T16:23:33Z</time>
      </trkpt>
      <trkpt lat="44.92213" lon="1.16013">
        <ele>218.824016</ele>
        <time>2022-08-16T16:23:35Z</time>
      </trkpt>
      <trkpt lat="44.92214" lon="1.16002">
        <ele>217.9120971</ele>
        <time>2022-08-16T16:23:37Z</time>
      </trkpt>
      <trkpt lat="44.92214" lon="1.1599">
        <ele>217.2372029</ele>
        <time>2022-08-16T16:23:39Z</time>
      </trkpt>
      <trkpt lat="44.92215" lon="1.15978">
        <ele>216.6809826</ele>
        <time>2022-08-16T16:23:41Z</time>
      </trkpt>
      <trkpt lat="44.92216" lon="1.15965">
        <ele>216.1991651</ele>
        <time>2022-08-16T16:23:43Z</time>
      </trkpt>
      <trkpt lat="44.92217" lon="1.15951">
        <ele>215.7777117</ele>
        <time>2022-08-16T16:23:45Z</time>
      </trkpt>
      <trkpt lat="44.92218" lon="1.15938">
        <ele>215.2517225</ele>
        <time>2022-08-16T16:23:47Z</time>
      </trkpt>
      <trkpt lat="44.92219" lon="1.15923">
        <ele>215.1210614</ele>
        <time>2022-08-16T16:23:49Z</time>
      </trkpt>
      <trkpt lat="44.9222" lon="1.15909">
        <ele>214.5049004</ele>
        <time>2022-08-16T16:23:51Z</time>
      </trkpt>
      <trkpt lat="44.92222" lon="1.15894">
        <ele>213.6314397</ele>
        <time>2022-08-16T16:23:53Z</time>
      </trkpt>
      <trkpt lat="44.92225" lon="1.15879">
        <ele>213.3681133</ele>
        <time>2022-08-16T16:23:55Z</time>
      </trkpt>
      <trkpt lat="44.92229" lon="1.15868">
        <ele>212.6708415</ele>
        <time>2022-08-16T16:23:57Z</time>
      </trkpt>
      <trkpt lat="44.92241" lon="1.15845">
        <ele>212.216479</ele>
        <time>2022-08-16T16:23:59Z</time>
      </trkpt>
      <trkpt lat="44.92254" lon="1.15834">
        <ele>211.221797</ele>
        <time>2022-08-16T16:24:01Z</time>
      </trkpt>
      <trkpt lat="44.92269" lon="1.15827">
        <ele>210.1542783</ele>
        <time>2022-08-16T16:24:03Z</time>
      </trkpt>
      <trkpt lat="44.92286" lon="1.15822">
        <ele>208.9783869</ele>
        <time>2022-08-16T16:24:05Z</time>
      </trkpt>
      <trkpt lat="44.92301" lon="1.15818">
        <ele>207.9224369</ele>
        <time>2022-08-16T16:24:07Z</time>
      </trkpt>
      <trkpt lat="44.92318" lon="1.15809">
        <ele>205.9305816</ele>
        <time>2022-08-16T16:24:09Z</time>
      </trkpt>
      <trkpt lat="44.92333" lon="1.15795">
        <ele>205.1068159</ele>
        <time>2022-08-16T16:24:11Z</time>
      </trkpt>
      <trkpt lat="44.92346" lon="1.15777">
        <ele>203.4302414</ele>
        <time>2022-08-16T16:24:13Z</time>
      </trkpt>
      <trkpt lat="44.9236" lon="1.15757">
        <ele>202.07592</ele>
        <time>2022-08-16T16:24:15Z</time>
      </trkpt>
      <trkpt lat="44.92373" lon="1.15736">
        <ele>200.6188077</ele>
        <time>2022-08-16T16:24:17Z</time>
      </trkpt>
      <trkpt lat="44.92379" lon="1.15715">
        <ele>200.0007071</ele>
        <time>2022-08-16T16:24:19Z</time>
      </trkpt>
      <trkpt lat="44.92379" lon="1.15691">
        <ele>198.7373698</ele>
        <time>2022-08-16T16:24:21Z</time>
      </trkpt>
      <trkpt lat="44.92375" lon="1.15669">
        <ele>197.1961436</ele>
        <time>2022-08-16T16:24:23Z</time>
      </trkpt>
      <trkpt lat="44.92366" lon="1.1565">
        <ele>196.0961958</ele>
        <time>2022-08-16T16:24:25Z</time>
      </trkpt>
      <trkpt lat="44.92358" lon="1.1563">
        <ele>196.5476181</ele>
        <time>2022-08-16T16:24:27Z</time>
      </trkpt>
      <trkpt lat="44.92349" lon="1.15612">
        <ele>195.4836251</ele>
        <time>2022-08-16T16:24:29Z</time>
      </trkpt>
      <trkpt lat="44.92337" lon="1.15598">
        <ele>194.0872866</ele>
        <time>2022-08-16T16:24:31Z</time>
      </trkpt>
      <trkpt lat="44.9232" lon="1.15591">
        <ele>193.8114795</ele>
        <time>2022-08-16T16:24:33Z</time>
      </trkpt>
      <trkpt lat="44.92304" lon="1.1559">
        <ele>193.0727865</ele>
        <time>2022-08-16T16:24:35Z</time>
      </trkpt>
      <trkpt lat="44.92289" lon="1.1559">
        <ele>192.3745858</ele>
        <time>2022-08-16T16:24:37Z</time>
      </trkpt>
      <trkpt lat="44.92277" lon="1.15579">
        <ele>190.465199</ele>
        <time>2022-08-16T16:24:39Z</time>
      </trkpt>
      <trkpt lat="44.92272" lon="1.1556">
        <ele>189.5940621</ele>
        <time>2022-08-16T16:24:41Z</time>
      </trkpt>
      <trkpt lat="44.92278" lon="1.15541">
        <ele>186.8644699</ele>
        <time>2022-08-16T16:24:43Z</time>
      </trkpt>
      <trkpt lat="44.92288" lon="1.15525">
        <ele>187.9853944</ele>
        <time>2022-08-16T16:24:45Z</time>
      </trkpt>
      <trkpt lat="44.92296" lon="1.15508">
        <ele>186.1175343</ele>
        <time>2022-08-16T16:24:47Z</time>
      </trkpt>
      <trkpt lat="44.92304" lon="1.15491">
        <ele>186.2760355</ele>
        <time>2022-08-16T16:24:49Z</time>
      </trkpt>
      <trkpt lat="44.9231" lon="1.15472">
        <ele>184.3949082</ele>
        <time>2022-08-16T16:24:51Z</time>
      </trkpt>
      <trkpt lat="44.92315" lon="1.15455">
        <ele>183.7443613</ele>
        <time>2022-08-16T16:24:53Z</time>
      </trkpt>
      <trkpt lat="44.92321" lon="1.15433">
        <ele>181.8391573</ele>
        <time>2022-08-16T16:24:55Z</time>
      </trkpt>
      <trkpt lat="44.92323" lon="1.15409">
        <ele>181.2570854</ele>
        <time>2022-08-16T16:24:57Z</time>
      </trkpt>
      <trkpt lat="44.9232" lon="1.15385">
        <ele>180.144598</ele>
        <time>2022-08-16T16:24:59Z</time>
      </trkpt>
      <trkpt lat="44.92313" lon="1.15362">
        <ele>179.9304798</ele>
        <time>2022-08-16T16:25:01Z</time>
      </trkpt>
      <trkpt lat="44.92305" lon="1.1534">
        <ele>177.6445388</ele>
        <time>2022-08-16T16:25:03Z</time>
      </trkpt>
      <trkpt lat="44.92295" lon="1.1532">
        <ele>177.4790356</ele>
        <time>2022-08-16T16:25:05Z</time>
      </trkpt>
      <trkpt lat="44.92286" lon="1.153">
        <ele>178.5474041</ele>
        <time>2022-08-16T16:25:07Z</time>
      </trkpt>
      <trkpt lat="44.92274" lon="1.15282">
        <ele>175.4894823</ele>
        <time>2022-08-16T16:25:09Z</time>
      </trkpt>
      <trkpt lat="44.92262" lon="1.15265">
        <ele>174.7941174</ele>
        <time>2022-08-16T16:25:11Z</time>
      </trkpt>
      <trkpt lat="44.92246" lon="1.1525">
        <ele>174.3367452</ele>
        <time>2022-08-16T16:25:13Z</time>
      </trkpt>
      <trkpt lat="44.92231" lon="1.15238">
        <ele>172.9513464</ele>
        <time>2022-08-16T16:25:15Z</time>
      </trkpt>
      <trkpt lat="44.92216" lon="1.15223">
        <ele>171.9958818</ele>
        <time>2022-08-16T16:25:17Z</time>
      </trkpt>
      <trkpt lat="44.92202" lon="1.15207">
        <ele>172.7519888</ele>
        <time>2022-08-16T16:25:19Z</time>
      </trkpt>
      <trkpt lat="44.92193" lon="1.15185">
        <ele>170.4931425</ele>
        <time>2022-08-16T16:25:21Z</time>
      </trkpt>
      <trkpt lat="44.9219" lon="1.1516">
        <ele>169.7949127</ele>
        <time>2022-08-16T16:25:23Z</time>
      </trkpt>
      <trkpt lat="44.92188" lon="1.15134">
        <ele>169.6143122</ele>
        <time>2022-08-16T16:25:25Z</time>
      </trkpt>
      <trkpt lat="44.92191" lon="1.15109">
        <ele>169.4127342</ele>
        <time>2022-08-16T16:25:27Z</time>
      </trkpt>
      <trkpt lat="44.92196" lon="1.15086">
        <ele>168.3485658</ele>
        <time>2022-08-16T16:25:29Z</time>
      </trkpt>
      <trkpt lat="44.922" lon="1.15062">
        <ele>166.5355969</ele>
        <time>2022-08-16T16:25:31Z</time>
      </trkpt>
      <trkpt lat="44.92205" lon="1.15037">
        <ele>165.679848</ele>
        <time>2022-08-16T16:25:33Z</time>
      </trkpt>
      <trkpt lat="44.92211" lon="1.15012">
        <ele>164.525666</ele>
        <time>2022-08-16T16:25:35Z</time>
      </trkpt>
      <trkpt lat="44.92219" lon="1.14989">
        <ele>162.5028355</ele>
        <time>2022-08-16T16:25:37Z</time>
      </trkpt>
      <trkpt lat="44.92229" lon="1.14968">
        <ele>159.7817687</ele>
        <time>2022-08-16T16:25:39Z</time>
      </trkpt>
      <trkpt lat="44.92239" lon="1.14946">
        <ele>158.1543087</ele>
        <time>2022-08-16T16:25:41Z</time>
      </trkpt>
      <trkpt lat="44.92249" lon="1.14924">
        <ele>155.8997133</ele>
        <time>2022-08-16T16:25:43Z</time>
      </trkpt>
      <trkpt lat="44.92258" lon="1.14901">
        <ele>154.9758219</ele>
        <time>2022-08-16T16:25:45Z</time>
      </trkpt>
      <trkpt lat="44.92268" lon="1.14879">
        <ele>153.4286565</ele>
        <time>2022-08-16T16:25:47Z</time>
      </trkpt>
      <trkpt lat="44.92277" lon="1.14856">
        <ele>152.4179834</ele>
        <time>2022-08-16T16:25:49Z</time>
      </trkpt>
      <trkpt lat="44.92287" lon="1.14834">
        <ele>151.2898178</ele>
        <time>2022-08-16T16:25:51Z</time>
      </trkpt>
      <trkpt lat="44.92297" lon="1.14813">
        <ele>150.4762683</ele>
        <time>2022-08-16T16:25:53Z</time>
      </trkpt>
      <trkpt lat="44.92309" lon="1.14792">
        <ele>150.096965</ele>
        <time>2022-08-16T16:25:55Z</time>
      </trkpt>
      <trkpt lat="44.92322" lon="1.14774">
        <ele>149.8657658</ele>
        <time>2022-08-16T16:25:57Z</time>
      </trkpt>
      <trkpt lat="44.92335" lon="1.14756">
        <ele>148.9492629</ele>
        <time>2022-08-16T16:25:59Z</time>
      </trkpt>
      <trkpt lat="44.92348" lon="1.14741">
        <ele>148.4582263</ele>
        <time>2022-08-16T16:26:01Z</time>
      </trkpt>
      <trkpt lat="44.92364" lon="1.14729">
        <ele>149.2724128</ele>
        <time>2022-08-16T16:26:03Z</time>
      </trkpt>
      <trkpt lat="44.92378" lon="1.14718">
        <ele>149.4182073</ele>
        <time>2022-08-16T16:26:05Z</time>
      </trkpt>
      <trkpt lat="44.9239" lon="1.14705">
        <ele>149.5658764</ele>
        <time>2022-08-16T16:26:07Z</time>
      </trkpt>
      <trkpt lat="44.92404" lon="1.14694">
        <ele>149.8271235</ele>
        <time>2022-08-16T16:26:09Z</time>
      </trkpt>
      <trkpt lat="44.92417" lon="1.14684">
        <ele>149.0801739</ele>
        <time>2022-08-16T16:26:11Z</time>
      </trkpt>
      <trkpt lat="44.92428" lon="1.14675">
        <ele>150.3660126</ele>
        <time>2022-08-16T16:26:13Z</time>
      </trkpt>
      <trkpt lat="44.92439" lon="1.14664">
        <ele>149.768908</ele>
        <time>2022-08-16T16:26:15Z</time>
      </trkpt>
      <trkpt lat="44.92449" lon="1.14653">
        <ele>149.8553403</ele>
        <time>2022-08-16T16:26:17Z</time>
      </trkpt>
      <trkpt lat="44.92457" lon="1.14641">
        <ele>150.230041</ele>
        <time>2022-08-16T16:26:19Z</time>
      </trkpt>
      <trkpt lat="44.92464" lon="1.14629">
        <ele>150.7975294</ele>
        <time>2022-08-16T16:26:21Z</time>
      </trkpt>
      <trkpt lat="44.92471" lon="1.14615">
        <ele>150.8254617</ele>
        <time>2022-08-16T16:26:23Z</time>
      </trkpt>
      <trkpt lat="44.92478" lon="1.14605">
        <ele>150.4817789</ele>
        <time>2022-08-16T16:26:25Z</time>
      </trkpt>
      <trkpt lat="44.92486" lon="1.14591">
        <ele>150.8917327</ele>
        <time>2022-08-16T16:26:27Z</time>
      </trkpt>
      <trkpt lat="44.92494" lon="1.14579">
        <ele>151.0893068</ele>
        <time>2022-08-16T16:26:29Z</time>
      </trkpt>
      <trkpt lat="44.925" lon="1.14567">
        <ele>151.2048887</ele>
        <time>2022-08-16T16:26:31Z</time>
      </trkpt>
      <trkpt lat="44.92508" lon="1.14559">
        <ele>150.5974015</ele>
        <time>2022-08-16T16:26:33Z</time>
      </trkpt>
      <trkpt lat="44.92515" lon="1.14546">
        <ele>151.2372167</ele>
        <time>2022-08-16T16:26:35Z</time>
      </trkpt>
      <trkpt lat="44.92524" lon="1.14537">
        <ele>151.6465379</ele>
        <time>2022-08-16T16:26:37Z</time>
      </trkpt>
      <trkpt lat="44.9253" lon="1.14527">
        <ele>151.1662259</ele>
        <time>2022-08-16T16:26:39Z</time>
      </trkpt>
      <trkpt lat="44.92537" lon="1.14517">
        <ele>151.0786118</ele>
        <time>2022-08-16T16:26:41Z</time>
      </trkpt>
      <trkpt lat="44.92544" lon="1.14506">
        <ele>150.7880715</ele>
        <time>2022-08-16T16:26:43Z</time>
      </trkpt>
      <trkpt lat="44.92551" lon="1.14496">
        <ele>149.7230202</ele>
        <time>2022-08-16T16:26:45Z</time>
      </trkpt>
      <trkpt lat="44.92557" lon="1.14485">
        <ele>149.8937645</ele>
        <time>2022-08-16T16:26:47Z</time>
      </trkpt>
      <trkpt lat="44.92565" lon="1.14473">
        <ele>150.2538619</ele>
        <time>2022-08-16T16:26:49Z</time>
      </trkpt>
      <trkpt lat="44.92573" lon="1.14463">
        <ele>150.461128</ele>
        <time>2022-08-16T16:26:51Z</time>
      </trkpt>
      <trkpt lat="44.9258" lon="1.14454">
        <ele>150.4511088</ele>
        <time>2022-08-16T16:26:53Z</time>
      </trkpt>
      <trkpt lat="44.92588" lon="1.14445">
        <ele>150.5320237</ele>
        <time>2022-08-16T16:26:55Z</time>
      </trkpt>
      <trkpt lat="44.92596" lon="1.14436">
        <ele>150.5127809</ele>
        <time>2022-08-16T16:26:57Z</time>
      </trkpt>
      <trkpt lat="44.92605" lon="1.14431">
        <ele>151.3193516</ele>
        <time>2022-08-16T16:26:59Z</time>
      </trkpt>
      <trkpt lat="44.92614" lon="1.14427">
        <ele>151.7257588</ele>
        <time>2022-08-16T16:27:01Z</time>
      </trkpt>
      <trkpt lat="44.92623" lon="1.14423">
        <ele>150.9461522</ele>
        <time>2022-08-16T16:27:03Z</time>
      </trkpt>
      <trkpt lat="44.92633" lon="1.14422">
        <ele>150.9887455</ele>
        <time>2022-08-16T16:27:05Z</time>
      </trkpt>
      <trkpt lat="44.92641" lon="1.14421">
        <ele>150.8352832</ele>
        <time>2022-08-16T16:27:07Z</time>
      </trkpt>
      <trkpt lat="44.92645" lon="1.14423">
        <ele>151.2094865</ele>
        <time>2022-08-16T16:27:09Z</time>
      </trkpt>
      <trkpt lat="44.92646" lon="1.14424">
        <ele>151.2688451</ele>
        <time>2022-08-16T16:27:11Z</time>
      </trkpt>
      <trkpt lat="44.92648" lon="1.14427">
        <ele>150.985948</ele>
        <time>2022-08-16T16:27:13Z</time>
      </trkpt>
      <trkpt lat="44.9265" lon="1.14428">
        <ele>151.4445446</ele>
        <time>2022-08-16T16:27:15Z</time>
      </trkpt>
      <trkpt lat="44.9265" lon="1.14428">
        <ele>150.9695633</ele>
        <time>2022-08-16T16:27:17Z</time>
      </trkpt>
      <trkpt lat="44.9265" lon="1.14428">
        <ele>151.1155453</ele>
        <time>2022-08-16T16:27:19Z</time>
      </trkpt>
      <trkpt lat="44.9265" lon="1.14427">
        <ele>151.3063611</ele>
        <time>2022-08-16T16:27:21Z</time>
      </trkpt>
      <trkpt lat="44.92651" lon="1.14428">
        <ele>150.9930742</ele>
        <time>2022-08-16T16:27:23Z</time>
      </trkpt>
      <trkpt lat="44.92652" lon="1.14429">
        <ele>150.0334608</ele>
        <time>2022-08-16T16:27:25Z</time>
      </trkpt>
      <trkpt lat="44.92652" lon="1.14429">
        <ele>150.7868482</ele>
        <time>2022-08-16T16:27:27Z</time>
      </trkpt>
      <trkpt lat="44.92652" lon="1.14429">
        <ele>150.7538279</ele>
        <time>2022-08-16T16:27:29Z</time>
      </trkpt>
      <trkpt lat="44.92653" lon="1.14429">
        <ele>150.9967254</ele>
        <time>2022-08-16T16:27:31Z</time>
      </trkpt>
      <trkpt lat="44.92653" lon="1.14428">
        <ele>151.8488096</ele>
        <time>2022-08-16T16:27:33Z</time>
      </trkpt>
      <trkpt lat="44.92653" lon="1.14428">
        <ele>151.950723</ele>
        <time>2022-08-16T16:27:35Z</time>
      </trkpt>
      <trkpt lat="44.92653" lon="1.14428">
        <ele>151.950723</ele>
        <time>2022-08-16T16:27:39Z</time>
      </trkpt>
      <trkpt lat="44.92653" lon="1.14428">
        <ele>151.950723</ele>
        <time>2022-08-16T16:27:43Z</time>
      </trkpt>
      <trkpt lat="44.92653" lon="1.14428">
        <ele>151.950723</ele>
        <time>2022-08-16T16:27:47Z</time>
      </trkpt>
      <trkpt lat="44.92653" lon="1.14428">
        <ele>151.950723</ele>
        <time>2022-08-16T16:27:51Z</time>
      </trkpt>
      <trkpt lat="44.92653" lon="1.14428">
        <ele>151.950723</ele>
        <time>2022-08-16T16:27:55Z</time>
      </trkpt>
      <trkpt lat="44.92653" lon="1.14428">
        <ele>151.950723</ele>
        <time>2022-08-16T16:27:59Z</time>
      </trkpt>
      <trkpt lat="44.92653" lon="1.14428">
        <ele>151.950723</ele>
        <time>2022-08-16T16:28:03Z</time>
      </trkpt>
      <trkpt lat="44.92653" lon="1.14428">
        <ele>151.950723</ele>
        <time>2022-08-16T16:28:07Z</time>
      </trkpt>
      <trkpt lat="44.92653" lon="1.14428">
        <ele>151.950723</ele>
        <time>2022-08-16T16:28:11Z</time>
      </trkpt>
      <trkpt lat="44.92653" lon="1.14428">
        <ele>151.950723</ele>
        <time>2022-08-16T16:28:15Z</time>
      </trkpt>
      <trkpt lat="44.92653" lon="1.14428">
        <ele>151.950723</ele>
        <time>2022-08-16T16:28:19Z</time>
      </trkpt>
      <trkpt lat="44.92653" lon="1.14428">
        <ele>151.950723</ele>
        <time>2022-08-16T16:28:23Z</time>
      </trkpt>
      <trkpt lat="44.92653" lon="1.14428">
        <ele>151.950723</ele>
        <time>2022-08-16T16:28:27Z</time>
      </trkpt>
      <trkpt lat="44.92653" lon="1.14428">
        <ele>151.950723</ele>
        <time>2022-08-16T16:28:31Z</time>
      </trkpt>
      <trkpt lat="44.92653" lon="1.14428">
        <ele>151.950723</ele>
        <time>2022-08-16T16:28:35Z</time>
      </trkpt>
      <trkpt lat="44.92653" lon="1.14428">
        <ele>151.950723</ele>
        <time>2022-08-16T16:28:39Z</time>
      </trkpt>
      <trkpt lat="44.92653" lon="1.14428">
        <ele>151.950723</ele>
        <time>2022-08-16T16:28:43Z</time>
      </trkpt>
      <trkpt lat="44.92653" lon="1.14428">
        <ele>151.950723</ele>
        <time>2022-08-16T16:28:47Z</time>
      </trkpt>
      <trkpt lat="44.92654" lon="1.14429">
        <ele>151.7477349</ele>
        <time>2022-08-16T16:28:49Z</time>
      </trkpt>
      <trkpt lat="44.92654" lon="1.14429">
        <ele>152.0611021</ele>
        <time>2022-08-16T16:28:51Z</time>
      </trkpt>
      <trkpt lat="44.92654" lon="1.14429">
        <ele>152.0611021</ele>
        <time>2022-08-16T16:28:55Z</time>
      </trkpt>
      <trkpt lat="44.92654" lon="1.14429">
        <ele>152.8316177</ele>
        <time>2022-08-16T16:28:59Z</time>
      </trkpt>
      <trkpt lat="44.92654" lon="1.14429">
        <ele>152.8331673</ele>
        <time>2022-08-16T16:29:01Z</time>
      </trkpt>
      <trkpt lat="44.92654" lon="1.14429">
        <ele>152.8331673</ele>
        <time>2022-08-16T16:29:05Z</time>
      </trkpt>
      <trkpt lat="44.92654" lon="1.14429">
        <ele>152.8331673</ele>
        <time>2022-08-16T16:29:09Z</time>
      </trkpt>
      <trkpt lat="44.92654" lon="1.14429">
        <ele>152.8331673</ele>
        <time>2022-08-16T16:29:13Z</time>
      </trkpt>
      <trkpt lat="44.92654" lon="1.14429">
        <ele>152.8331673</ele>
        <time>2022-08-16T16:29:17Z</time>
      </trkpt>
      <trkpt lat="44.92654" lon="1.14429">
        <ele>152.8331673</ele>
        <time>2022-08-16T16:29:21Z</time>
      </trkpt>
      <trkpt lat="44.92654" lon="1.14429">
        <ele>152.8331673</ele>
        <time>2022-08-16T16:29:25Z</time>
      </trkpt>
      <trkpt lat="44.92654" lon="1.14429">
        <ele>152.8331673</ele>
        <time>2022-08-16T16:29:29Z</time>
      </trkpt>
      <trkpt lat="44.92654" lon="1.1443">
        <ele>151.2618926</ele>
        <time>2022-08-16T16:29:31Z</time>
      </trkpt>
      <trkpt lat="44.92654" lon="1.1443">
        <ele>151.3058404</ele>
        <time>2022-08-16T16:29:33Z</time>
      </trkpt>
      <trkpt lat="44.92654" lon="1.1443">
        <ele>151.3058404</ele>
        <time>2022-08-16T16:29:37Z</time>
      </trkpt>
      <trkpt lat="44.92654" lon="1.1443">
        <ele>151.3058404</ele>
        <time>2022-08-16T16:29:41Z</time>
      </trkpt>
      <trkpt lat="44.92654" lon="1.1443">
        <ele>151.3058404</ele>
        <time>2022-08-16T16:29:45Z</time>
      </trkpt>
      <trkpt lat="44.92654" lon="1.1443">
        <ele>151.3058404</ele>
        <time>2022-08-16T16:29:49Z</time>
      </trkpt>
      <trkpt lat="44.92654" lon="1.14428">
        <ele>153.1997233</ele>
        <time>2022-08-16T16:29:53Z</time>
      </trkpt>
      <trkpt lat="44.92654" lon="1.14428">
        <ele>153.2576444</ele>
        <time>2022-08-16T16:29:55Z</time>
      </trkpt>
      <trkpt lat="44.92654" lon="1.14428">
        <ele>153.2576444</ele>
        <time>2022-08-16T16:29:59Z</time>
      </trkpt>
      <trkpt lat="44.92654" lon="1.14428">
        <ele>153.2576444</ele>
        <time>2022-08-16T16:30:03Z</time>
      </trkpt>
      <trkpt lat="44.92654" lon="1.14428">
        <ele>153.2576444</ele>
        <time>2022-08-16T16:30:07Z</time>
      </trkpt>
      <trkpt lat="44.92654" lon="1.14428">
        <ele>153.2576444</ele>
        <time>2022-08-16T16:30:11Z</time>
      </trkpt>
      <trkpt lat="44.92654" lon="1.14428">
        <ele>153.2576444</ele>
        <time>2022-08-16T16:30:15Z</time>
      </trkpt>
      <trkpt lat="44.92654" lon="1.14428">
        <ele>151.1600233</ele>
        <time>2022-08-16T16:30:17Z</time>
      </trkpt>
      <trkpt lat="44.92654" lon="1.14428">
        <ele>151.1360516</ele>
        <time>2022-08-16T16:30:19Z</time>
      </trkpt>
      <trkpt lat="44.92654" lon="1.14428">
        <ele>151.1360516</ele>
        <time>2022-08-16T16:30:23Z</time>
      </trkpt>
      <trkpt lat="44.92654" lon="1.14428">
        <ele>151.1132429</ele>
        <time>2022-08-16T16:30:25Z</time>
      </trkpt>
      <trkpt lat="44.92654" lon="1.14428">
        <ele>151.0886267</ele>
        <time>2022-08-16T16:30:27Z</time>
      </trkpt>
      <trkpt lat="44.92654" lon="1.14428">
        <ele>151.0965522</ele>
        <time>2022-08-16T16:30:29Z</time>
      </trkpt>
      <trkpt lat="44.92654" lon="1.14429">
        <ele>151.0161545</ele>
        <time>2022-08-16T16:30:31Z</time>
      </trkpt>
      <trkpt lat="44.92654" lon="1.14429">
        <ele>150.8607367</ele>
        <time>2022-08-16T16:30:33Z</time>
      </trkpt>
      <trkpt lat="44.92654" lon="1.14429">
        <ele>150.2778103</ele>
        <time>2022-08-16T16:30:35Z</time>
      </trkpt>
      <trkpt lat="44.92654" lon="1.14429">
        <ele>150.1809589</ele>
        <time>2022-08-16T16:30:37Z</time>
      </trkpt>
      <trkpt lat="44.92654" lon="1.14429">
        <ele>150.1809589</ele>
        <time>2022-08-16T16:30:41Z</time>
      </trkpt>
      <trkpt lat="44.92654" lon="1.14429">
        <ele>150.1809589</ele>
        <time>2022-08-16T16:30:45Z</time>
      </trkpt>
      <trkpt lat="44.92654" lon="1.14429">
        <ele>150.1809589</ele>
        <time>2022-08-16T16:30:49Z</time>
      </trkpt>
      <trkpt lat="44.92654" lon="1.14429">
        <ele>150.1809589</ele>
        <time>2022-08-16T16:30:53Z</time>
      </trkpt>
      <trkpt lat="44.92654" lon="1.14429">
        <ele>150.1809589</ele>
        <time>2022-08-16T16:30:57Z</time>
      </trkpt>
      <trkpt lat="44.92654" lon="1.14429">
        <ele>150.1809589</ele>
        <time>2022-08-16T16:31:01Z</time>
      </trkpt>
      <trkpt lat="44.92654" lon="1.14429">
        <ele>150.1809589</ele>
        <time>2022-08-16T16:31:05Z</time>
      </trkpt>
      <trkpt lat="44.92654" lon="1.14429">
        <ele>150.1809589</ele>
        <time>2022-08-16T16:31:09Z</time>
      </trkpt>
      <trkpt lat="44.92654" lon="1.14432">
        <ele>149.3509376</ele>
        <time>2022-08-16T16:31:11Z</time>
      </trkpt>
      <trkpt lat="44.92654" lon="1.14432">
        <ele>149.7882877</ele>
        <time>2022-08-16T16:31:13Z</time>
      </trkpt>
      <trkpt lat="44.92654" lon="1.14432">
        <ele>149.8586574</ele>
        <time>2022-08-16T16:31:15Z</time>
      </trkpt>
      <trkpt lat="44.92654" lon="1.14432">
        <ele>149.9338902</ele>
        <time>2022-08-16T16:31:17Z</time>
      </trkpt>
      <trkpt lat="44.92654" lon="1.14432">
        <ele>149.9800056</ele>
        <time>2022-08-16T16:31:19Z</time>
      </trkpt>
      <trkpt lat="44.92654" lon="1.14431">
        <ele>150.0337535</ele>
        <time>2022-08-16T16:31:21Z</time>
      </trkpt>
      <trkpt lat="44.92654" lon="1.14431">
        <ele>150.155163</ele>
        <time>2022-08-16T16:31:23Z</time>
      </trkpt>
      <trkpt lat="44.92654" lon="1.14431">
        <ele>150.2963426</ele>
        <time>2022-08-16T16:31:25Z</time>
      </trkpt>
      <trkpt lat="44.92654" lon="1.14431">
        <ele>150.2846479</ele>
        <time>2022-08-16T16:31:27Z</time>
      </trkpt>
      <trkpt lat="44.92655" lon="1.1443">
        <ele>150.4315979</ele>
        <time>2022-08-16T16:31:29Z</time>
      </trkpt>
      <trkpt lat="44.92655" lon="1.1443">
        <ele>150.5115263</ele>
        <time>2022-08-16T16:31:31Z</time>
      </trkpt>
      <trkpt lat="44.92655" lon="1.1443">
        <ele>150.1590966</ele>
        <time>2022-08-16T16:31:33Z</time>
      </trkpt>
      <trkpt lat="44.92656" lon="1.14429">
        <ele>150.1415418</ele>
        <time>2022-08-16T16:31:35Z</time>
      </trkpt>
      <trkpt lat="44.92658" lon="1.14428">
        <ele>150.137982</ele>
        <time>2022-08-16T16:31:37Z</time>
      </trkpt>
      <trkpt lat="44.9266" lon="1.14427">
        <ele>150.4685373</ele>
        <time>2022-08-16T16:31:39Z</time>
      </trkpt>
      <trkpt lat="44.92666" lon="1.14424">
        <ele>149.7407273</ele>
        <time>2022-08-16T16:31:41Z</time>
      </trkpt>
      <trkpt lat="44.92671" lon="1.14422">
        <ele>149.9643701</ele>
        <time>2022-08-16T16:31:43Z</time>
      </trkpt>
      <trkpt lat="44.92677" lon="1.14423">
        <ele>150.2898933</ele>
        <time>2022-08-16T16:31:45Z</time>
      </trkpt>
      <trkpt lat="44.92682" lon="1.1442">
        <ele>150.1199248</ele>
        <time>2022-08-16T16:31:47Z</time>
      </trkpt>
      <trkpt lat="44.92688" lon="1.14418">
        <ele>150.0681461</ele>
        <time>2022-08-16T16:31:49Z</time>
      </trkpt>
      <trkpt lat="44.92694" lon="1.14415">
        <ele>150.2371265</ele>
        <time>2022-08-16T16:31:51Z</time>
      </trkpt>
      <trkpt lat="44.92701" lon="1.14412">
        <ele>150.1610515</ele>
        <time>2022-08-16T16:31:53Z</time>
      </trkpt>
      <trkpt lat="44.92708" lon="1.14408">
        <ele>150.5176386</ele>
        <time>2022-08-16T16:31:55Z</time>
      </trkpt>
      <trkpt lat="44.92714" lon="1.14401">
        <ele>150.4381171</ele>
        <time>2022-08-16T16:31:57Z</time>
      </trkpt>
      <trkpt lat="44.92721" lon="1.14396">
        <ele>150.7289253</ele>
        <time>2022-08-16T16:31:59Z</time>
      </trkpt>
      <trkpt lat="44.92727" lon="1.14388">
        <ele>150.863547</ele>
        <time>2022-08-16T16:32:01Z</time>
      </trkpt>
      <trkpt lat="44.92733" lon="1.14379">
        <ele>150.7722731</ele>
        <time>2022-08-16T16:32:03Z</time>
      </trkpt>
      <trkpt lat="44.92739" lon="1.14369">
        <ele>150.3889293</ele>
        <time>2022-08-16T16:32:05Z</time>
      </trkpt>
      <trkpt lat="44.92745" lon="1.14359">
        <ele>149.8476446</ele>
        <time>2022-08-16T16:32:07Z</time>
      </trkpt>
      <trkpt lat="44.92752" lon="1.14347">
        <ele>149.6455731</ele>
        <time>2022-08-16T16:32:09Z</time>
      </trkpt>
      <trkpt lat="44.92759" lon="1.14335">
        <ele>149.6183184</ele>
        <time>2022-08-16T16:32:11Z</time>
      </trkpt>
      <trkpt lat="44.92765" lon="1.14322">
        <ele>149.1508204</ele>
        <time>2022-08-16T16:32:13Z</time>
      </trkpt>
      <trkpt lat="44.92772" lon="1.14309">
        <ele>148.9444038</ele>
        <time>2022-08-16T16:32:15Z</time>
      </trkpt>
      <trkpt lat="44.92779" lon="1.14297">
        <ele>148.2072794</ele>
        <time>2022-08-16T16:32:17Z</time>
      </trkpt>
      <trkpt lat="44.92786" lon="1.14284">
        <ele>147.9029562</ele>
        <time>2022-08-16T16:32:19Z</time>
      </trkpt>
      <trkpt lat="44.92795" lon="1.14274">
        <ele>147.5282491</ele>
        <time>2022-08-16T16:32:21Z</time>
      </trkpt>
      <trkpt lat="44.92805" lon="1.14265">
        <ele>147.1573906</ele>
        <time>2022-08-16T16:32:23Z</time>
      </trkpt>
      <trkpt lat="44.92815" lon="1.14256">
        <ele>147.0994776</ele>
        <time>2022-08-16T16:32:25Z</time>
      </trkpt>
      <trkpt lat="44.92824" lon="1.14248">
        <ele>147.0797407</ele>
        <time>2022-08-16T16:32:27Z</time>
      </trkpt>
      <trkpt lat="44.92834" lon="1.1424">
        <ele>147.5268255</ele>
        <time>2022-08-16T16:32:29Z</time>
      </trkpt>
      <trkpt lat="44.92843" lon="1.14233">
        <ele>147.5208507</ele>
        <time>2022-08-16T16:32:31Z</time>
      </trkpt>
      <trkpt lat="44.92852" lon="1.14225">
        <ele>147.8626464</ele>
        <time>2022-08-16T16:32:33Z</time>
      </trkpt>
      <trkpt lat="44.92861" lon="1.14217">
        <ele>148.0827257</ele>
        <time>2022-08-16T16:32:35Z</time>
      </trkpt>
      <trkpt lat="44.9287" lon="1.14207">
        <ele>148.8398947</ele>
        <time>2022-08-16T16:32:37Z</time>
      </trkpt>
      <trkpt lat="44.92878" lon="1.14199">
        <ele>148.8238756</ele>
        <time>2022-08-16T16:32:39Z</time>
      </trkpt>
      <trkpt lat="44.92885" lon="1.14189">
        <ele>149.0862999</ele>
        <time>2022-08-16T16:32:41Z</time>
      </trkpt>
      <trkpt lat="44.92892" lon="1.14179">
        <ele>148.8330746</ele>
        <time>2022-08-16T16:32:43Z</time>
      </trkpt>
      <trkpt lat="44.92898" lon="1.14168">
        <ele>148.7664919</ele>
        <time>2022-08-16T16:32:45Z</time>
      </trkpt>
      <trkpt lat="44.92904" lon="1.14156">
        <ele>149.0567349</ele>
        <time>2022-08-16T16:32:47Z</time>
      </trkpt>
      <trkpt lat="44.9291" lon="1.14144">
        <ele>149.1783968</ele>
        <time>2022-08-16T16:32:49Z</time>
      </trkpt>
      <trkpt lat="44.92917" lon="1.14133">
        <ele>148.8330812</ele>
        <time>2022-08-16T16:32:51Z</time>
      </trkpt>
      <trkpt lat="44.92923" lon="1.1412">
        <ele>148.4607905</ele>
        <time>2022-08-16T16:32:53Z</time>
      </trkpt>
      <trkpt lat="44.92931" lon="1.1411">
        <ele>148.7166744</ele>
        <time>2022-08-16T16:32:55Z</time>
      </trkpt>
      <trkpt lat="44.92939" lon="1.141">
        <ele>148.6325024</ele>
        <time>2022-08-16T16:32:57Z</time>
      </trkpt>
      <trkpt lat="44.92949" lon="1.14091">
        <ele>148.8223284</ele>
        <time>2022-08-16T16:32:59Z</time>
      </trkpt>
      <trkpt lat="44.92959" lon="1.14085">
        <ele>148.9715225</ele>
        <time>2022-08-16T16:33:01Z</time>
      </trkpt>
      <trkpt lat="44.9297" lon="1.1408">
        <ele>148.6080089</ele>
        <time>2022-08-16T16:33:03Z</time>
      </trkpt>
      <trkpt lat="44.92981" lon="1.14077">
        <ele>148.9765792</ele>
        <time>2022-08-16T16:33:05Z</time>
      </trkpt>
      <trkpt lat="44.92992" lon="1.14076">
        <ele>149.5390676</ele>
        <time>2022-08-16T16:33:07Z</time>
      </trkpt>
      <trkpt lat="44.93004" lon="1.14075">
        <ele>149.688098</ele>
        <time>2022-08-16T16:33:09Z</time>
      </trkpt>
      <trkpt lat="44.93016" lon="1.14075">
        <ele>149.342737</ele>
        <time>2022-08-16T16:33:11Z</time>
      </trkpt>
      <trkpt lat="44.93028" lon="1.14074">
        <ele>149.1201025</ele>
        <time>2022-08-16T16:33:13Z</time>
      </trkpt>
      <trkpt lat="44.93039" lon="1.14074">
        <ele>148.7720021</ele>
        <time>2022-08-16T16:33:15Z</time>
      </trkpt>
      <trkpt lat="44.93051" lon="1.14072">
        <ele>148.5713447</ele>
        <time>2022-08-16T16:33:17Z</time>
      </trkpt>
      <trkpt lat="44.93062" lon="1.14071">
        <ele>148.5161647</ele>
        <time>2022-08-16T16:33:19Z</time>
      </trkpt>
      <trkpt lat="44.93074" lon="1.14068">
        <ele>148.2494821</ele>
        <time>2022-08-16T16:33:21Z</time>
      </trkpt>
      <trkpt lat="44.93085" lon="1.14067">
        <ele>147.7159451</ele>
        <time>2022-08-16T16:33:23Z</time>
      </trkpt>
      <trkpt lat="44.93097" lon="1.14066">
        <ele>147.431268</ele>
        <time>2022-08-16T16:33:25Z</time>
      </trkpt>
      <trkpt lat="44.93108" lon="1.14063">
        <ele>147.8548981</ele>
        <time>2022-08-16T16:33:27Z</time>
      </trkpt>
      <trkpt lat="44.9312" lon="1.14061">
        <ele>147.9200722</ele>
        <time>2022-08-16T16:33:29Z</time>
      </trkpt>
      <trkpt lat="44.93131" lon="1.14058">
        <ele>148.0345206</ele>
        <time>2022-08-16T16:33:31Z</time>
      </trkpt>
      <trkpt lat="44.93141" lon="1.14054">
        <ele>148.378382</ele>
        <time>2022-08-16T16:33:33Z</time>
      </trkpt>
      <trkpt lat="44.9315" lon="1.14046">
        <ele>148.2286985</ele>
        <time>2022-08-16T16:33:35Z</time>
      </trkpt>
      <trkpt lat="44.93158" lon="1.14036">
        <ele>148.2073239</ele>
        <time>2022-08-16T16:33:37Z</time>
      </trkpt>
      <trkpt lat="44.93164" lon="1.14026">
        <ele>149.0634324</ele>
        <time>2022-08-16T16:33:39Z</time>
      </trkpt>
      <trkpt lat="44.93168" lon="1.14015">
        <ele>149.1290305</ele>
        <time>2022-08-16T16:33:41Z</time>
      </trkpt>
      <trkpt lat="44.93169" lon="1.14005">
        <ele>149.4300613</ele>
        <time>2022-08-16T16:33:43Z</time>
      </trkpt>
      <trkpt lat="44.9317" lon="1.13993">
        <ele>149.1117155</ele>
        <time>2022-08-16T16:33:45Z</time>
      </trkpt>
      <trkpt lat="44.93169" lon="1.13983">
        <ele>149.4050354</ele>
        <time>2022-08-16T16:33:47Z</time>
      </trkpt>
      <trkpt lat="44.93169" lon="1.13974">
        <ele>149.4422192</ele>
        <time>2022-08-16T16:33:49Z</time>
      </trkpt>
      <trkpt lat="44.93167" lon="1.13965">
        <ele>149.7563503</ele>
        <time>2022-08-16T16:33:51Z</time>
      </trkpt>
      <trkpt lat="44.93165" lon="1.13957">
        <ele>150.1816622</ele>
        <time>2022-08-16T16:33:53Z</time>
      </trkpt>
      <trkpt lat="44.93164" lon="1.13949">
        <ele>150.6639087</ele>
        <time>2022-08-16T16:33:55Z</time>
      </trkpt>
      <trkpt lat="44.93162" lon="1.13941">
        <ele>151.1463462</ele>
        <time>2022-08-16T16:33:57Z</time>
      </trkpt>
      <trkpt lat="44.93161" lon="1.13933">
        <ele>151.5975823</ele>
        <time>2022-08-16T16:33:59Z</time>
      </trkpt>
      <trkpt lat="44.9316" lon="1.13925">
        <ele>152.2949246</ele>
        <time>2022-08-16T16:34:01Z</time>
      </trkpt>
      <trkpt lat="44.9316" lon="1.13918">
        <ele>152.4792831</ele>
        <time>2022-08-16T16:34:03Z</time>
      </trkpt>
      <trkpt lat="44.93159" lon="1.13911">
        <ele>153.3061573</ele>
        <time>2022-08-16T16:34:05Z</time>
      </trkpt>
      <trkpt lat="44.93157" lon="1.13904">
        <ele>153.812465</ele>
        <time>2022-08-16T16:34:07Z</time>
      </trkpt>
      <trkpt lat="44.93155" lon="1.13897">
        <ele>154.5634489</ele>
        <time>2022-08-16T16:34:09Z</time>
      </trkpt>
      <trkpt lat="44.93154" lon="1.1389">
        <ele>155.0368711</ele>
        <time>2022-08-16T16:34:11Z</time>
      </trkpt>
      <trkpt lat="44.93153" lon="1.13884">
        <ele>156.0778872</ele>
        <time>2022-08-16T16:34:13Z</time>
      </trkpt>
      <trkpt lat="44.93152" lon="1.13877">
        <ele>156.5171763</ele>
        <time>2022-08-16T16:34:15Z</time>
      </trkpt>
      <trkpt lat="44.93152" lon="1.13871">
        <ele>157.2450692</ele>
        <time>2022-08-16T16:34:17Z</time>
      </trkpt>
      <trkpt lat="44.93151" lon="1.13864">
        <ele>157.8412116</ele>
        <time>2022-08-16T16:34:19Z</time>
      </trkpt>
      <trkpt lat="44.93149" lon="1.13858">
        <ele>159.3358044</ele>
        <time>2022-08-16T16:34:21Z</time>
      </trkpt>
      <trkpt lat="44.93149" lon="1.13852">
        <ele>160.0816943</ele>
        <time>2022-08-16T16:34:23Z</time>
      </trkpt>
      <trkpt lat="44.93149" lon="1.13845">
        <ele>160.0937266</ele>
        <time>2022-08-16T16:34:25Z</time>
      </trkpt>
      <trkpt lat="44.93149" lon="1.1384">
        <ele>160.0519881</ele>
        <time>2022-08-16T16:34:27Z</time>
      </trkpt>
      <trkpt lat="44.9315" lon="1.13833">
        <ele>159.5869455</ele>
        <time>2022-08-16T16:34:29Z</time>
      </trkpt>
      <trkpt lat="44.93151" lon="1.13827">
        <ele>159.2282289</ele>
        <time>2022-08-16T16:34:31Z</time>
      </trkpt>
      <trkpt lat="44.93151" lon="1.13822">
        <ele>159.5354876</ele>
        <time>2022-08-16T16:34:33Z</time>
      </trkpt>
      <trkpt lat="44.93151" lon="1.13816">
        <ele>159.9097833</ele>
        <time>2022-08-16T16:34:35Z</time>
      </trkpt>
      <trkpt lat="44.93152" lon="1.13811">
        <ele>159.8483819</ele>
        <time>2022-08-16T16:34:37Z</time>
      </trkpt>
      <trkpt lat="44.93154" lon="1.13806">
        <ele>159.6165997</ele>
        <time>2022-08-16T16:34:39Z</time>
      </trkpt>
      <trkpt lat="44.93154" lon="1.138">
        <ele>159.6783322</ele>
        <time>2022-08-16T16:34:41Z</time>
      </trkpt>
      <trkpt lat="44.93155" lon="1.13795">
        <ele>159.9519611</ele>
        <time>2022-08-16T16:34:43Z</time>
      </trkpt>
      <trkpt lat="44.93157" lon="1.1379">
        <ele>160.1774681</ele>
        <time>2022-08-16T16:34:45Z</time>
      </trkpt>
      <trkpt lat="44.93158" lon="1.13785">
        <ele>159.9630234</ele>
        <time>2022-08-16T16:34:47Z</time>
      </trkpt>
      <trkpt lat="44.93159" lon="1.1378">
        <ele>159.8057977</ele>
        <time>2022-08-16T16:34:49Z</time>
      </trkpt>
      <trkpt lat="44.93161" lon="1.13775">
        <ele>159.5536924</ele>
        <time>2022-08-16T16:34:51Z</time>
      </trkpt>
      <trkpt lat="44.93163" lon="1.1377">
        <ele>160.1599707</ele>
        <time>2022-08-16T16:34:53Z</time>
      </trkpt>
      <trkpt lat="44.93165" lon="1.13766">
        <ele>160.4039224</ele>
        <time>2022-08-16T16:34:55Z</time>
      </trkpt>
      <trkpt lat="44.93168" lon="1.13762">
        <ele>160.3419303</ele>
        <time>2022-08-16T16:34:57Z</time>
      </trkpt>
      <trkpt lat="44.9317" lon="1.13758">
        <ele>160.048203</ele>
        <time>2022-08-16T16:34:59Z</time>
      </trkpt>
      <trkpt lat="44.93172" lon="1.13752">
        <ele>161.1211781</ele>
        <time>2022-08-16T16:35:01Z</time>
      </trkpt>
      <trkpt lat="44.93175" lon="1.13749">
        <ele>161.9247342</ele>
        <time>2022-08-16T16:35:03Z</time>
      </trkpt>
      <trkpt lat="44.93178" lon="1.13745">
        <ele>162.4075912</ele>
        <time>2022-08-16T16:35:05Z</time>
      </trkpt>
      <trkpt lat="44.93181" lon="1.13742">
        <ele>163.1804624</ele>
        <time>2022-08-16T16:35:07Z</time>
      </trkpt>
      <trkpt lat="44.93184" lon="1.1374">
        <ele>163.4279639</ele>
        <time>2022-08-16T16:35:09Z</time>
      </trkpt>
      <trkpt lat="44.93188" lon="1.13739">
        <ele>163.8117649</ele>
        <time>2022-08-16T16:35:11Z</time>
      </trkpt>
      <trkpt lat="44.93192" lon="1.13737">
        <ele>164.4612972</ele>
        <time>2022-08-16T16:35:13Z</time>
      </trkpt>
      <trkpt lat="44.93196" lon="1.13736">
        <ele>164.869452</ele>
        <time>2022-08-16T16:35:15Z</time>
      </trkpt>
      <trkpt lat="44.93199" lon="1.13735">
        <ele>165.3787257</ele>
        <time>2022-08-16T16:35:17Z</time>
      </trkpt>
      <trkpt lat="44.93203" lon="1.13736">
        <ele>165.7398672</ele>
        <time>2022-08-16T16:35:19Z</time>
      </trkpt>
      <trkpt lat="44.93208" lon="1.13736">
        <ele>165.4681887</ele>
        <time>2022-08-16T16:35:21Z</time>
      </trkpt>
      <trkpt lat="44.93211" lon="1.13735">
        <ele>165.8946605</ele>
        <time>2022-08-16T16:35:23Z</time>
      </trkpt>
      <trkpt lat="44.93215" lon="1.13735">
        <ele>165.9451733</ele>
        <time>2022-08-16T16:35:25Z</time>
      </trkpt>
      <trkpt lat="44.93219" lon="1.13736">
        <ele>166.0165908</ele>
        <time>2022-08-16T16:35:27Z</time>
      </trkpt>
      <trkpt lat="44.93223" lon="1.13736">
        <ele>166.6520897</ele>
        <time>2022-08-16T16:35:29Z</time>
      </trkpt>
      <trkpt lat="44.93226" lon="1.13736">
        <ele>167.0287983</ele>
        <time>2022-08-16T16:35:31Z</time>
      </trkpt>
      <trkpt lat="44.9323" lon="1.13736">
        <ele>167.1717386</ele>
        <time>2022-08-16T16:35:33Z</time>
      </trkpt>
      <trkpt lat="44.93234" lon="1.13736">
        <ele>167.9466114</ele>
        <time>2022-08-16T16:35:35Z</time>
      </trkpt>
      <trkpt lat="44.93238" lon="1.13737">
        <ele>168.3030893</ele>
        <time>2022-08-16T16:35:37Z</time>
      </trkpt>
      <trkpt lat="44.93241" lon="1.13737">
        <ele>168.5609623</ele>
        <time>2022-08-16T16:35:39Z</time>
      </trkpt>
      <trkpt lat="44.93245" lon="1.13737">
        <ele>169.0721361</ele>
        <time>2022-08-16T16:35:41Z</time>
      </trkpt>
      <trkpt lat="44.93249" lon="1.13737">
        <ele>169.3383146</ele>
        <time>2022-08-16T16:35:43Z</time>
      </trkpt>
      <trkpt lat="44.93253" lon="1.13738">
        <ele>169.7071972</ele>
        <time>2022-08-16T16:35:45Z</time>
      </trkpt>
      <trkpt lat="44.93257" lon="1.13738">
        <ele>169.8638773</ele>
        <time>2022-08-16T16:35:47Z</time>
      </trkpt>
      <trkpt lat="44.93261" lon="1.13738">
        <ele>169.5926119</ele>
        <time>2022-08-16T16:35:49Z</time>
      </trkpt>
      <trkpt lat="44.93265" lon="1.13739">
        <ele>169.8477719</ele>
        <time>2022-08-16T16:35:51Z</time>
      </trkpt>
      <trkpt lat="44.93269" lon="1.13739">
        <ele>170.5969758</ele>
        <time>2022-08-16T16:35:53Z</time>
      </trkpt>
      <trkpt lat="44.93273" lon="1.13739">
        <ele>170.6619472</ele>
        <time>2022-08-16T16:35:55Z</time>
      </trkpt>
      <trkpt lat="44.93277" lon="1.13741">
        <ele>170.6065299</ele>
        <time>2022-08-16T16:35:57Z</time>
      </trkpt>
      <trkpt lat="44.93281" lon="1.13741">
        <ele>171.6531768</ele>
        <time>2022-08-16T16:35:59Z</time>
      </trkpt>
      <trkpt lat="44.93285" lon="1.13742">
        <ele>171.6617696</ele>
        <time>2022-08-16T16:36:01Z</time>
      </trkpt>
      <trkpt lat="44.9329" lon="1.13744">
        <ele>171.4101559</ele>
        <time>2022-08-16T16:36:03Z</time>
      </trkpt>
      <trkpt lat="44.93293" lon="1.13746">
        <ele>171.6098978</ele>
        <time>2022-08-16T16:36:05Z</time>
      </trkpt>
      <trkpt lat="44.93298" lon="1.13748">
        <ele>171.2202419</ele>
        <time>2022-08-16T16:36:07Z</time>
      </trkpt>
      <trkpt lat="44.93302" lon="1.1375">
        <ele>170.6103252</ele>
        <time>2022-08-16T16:36:09Z</time>
      </trkpt>
      <trkpt lat="44.93306" lon="1.13751">
        <ele>171.7280604</ele>
        <time>2022-08-16T16:36:11Z</time>
      </trkpt>
      <trkpt lat="44.93309" lon="1.13753">
        <ele>172.1682344</ele>
        <time>2022-08-16T16:36:13Z</time>
      </trkpt>
      <trkpt lat="44.93313" lon="1.13754">
        <ele>172.9286634</ele>
        <time>2022-08-16T16:36:15Z</time>
      </trkpt>
      <trkpt lat="44.93316" lon="1.13756">
        <ele>173.7365901</ele>
        <time>2022-08-16T16:36:17Z</time>
      </trkpt>
      <trkpt lat="44.9332" lon="1.13759">
        <ele>174.0229077</ele>
        <time>2022-08-16T16:36:19Z</time>
      </trkpt>
      <trkpt lat="44.93323" lon="1.1376">
        <ele>174.4088848</ele>
        <time>2022-08-16T16:36:21Z</time>
      </trkpt>
      <trkpt lat="44.93326" lon="1.13761">
        <ele>174.8794332</ele>
        <time>2022-08-16T16:36:23Z</time>
      </trkpt>
      <trkpt lat="44.9333" lon="1.13762">
        <ele>175.5293267</ele>
        <time>2022-08-16T16:36:25Z</time>
      </trkpt>
      <trkpt lat="44.93334" lon="1.13763">
        <ele>175.8609594</ele>
        <time>2022-08-16T16:36:27Z</time>
      </trkpt>
      <trkpt lat="44.93338" lon="1.13764">
        <ele>175.9937123</ele>
        <time>2022-08-16T16:36:29Z</time>
      </trkpt>
      <trkpt lat="44.93342" lon="1.13764">
        <ele>176.5026652</ele>
        <time>2022-08-16T16:36:31Z</time>
      </trkpt>
      <trkpt lat="44.93346" lon="1.13765">
        <ele>177.2929143</ele>
        <time>2022-08-16T16:36:33Z</time>
      </trkpt>
      <trkpt lat="44.93349" lon="1.13766">
        <ele>177.4929561</ele>
        <time>2022-08-16T16:36:35Z</time>
      </trkpt>
      <trkpt lat="44.93353" lon="1.13765">
        <ele>178.7728796</ele>
        <time>2022-08-16T16:36:37Z</time>
      </trkpt>
      <trkpt lat="44.93357" lon="1.13766">
        <ele>178.8536221</ele>
        <time>2022-08-16T16:36:39Z</time>
      </trkpt>
      <trkpt lat="44.93361" lon="1.13767">
        <ele>179.3497837</ele>
        <time>2022-08-16T16:36:41Z</time>
      </trkpt>
      <trkpt lat="44.93365" lon="1.13768">
        <ele>179.4400865</ele>
        <time>2022-08-16T16:36:43Z</time>
      </trkpt>
      <trkpt lat="44.93369" lon="1.13768">
        <ele>180.2484213</ele>
        <time>2022-08-16T16:36:45Z</time>
      </trkpt>
      <trkpt lat="44.93373" lon="1.13768">
        <ele>180.7580921</ele>
        <time>2022-08-16T16:36:47Z</time>
      </trkpt>
      <trkpt lat="44.93377" lon="1.13768">
        <ele>180.8089111</ele>
        <time>2022-08-16T16:36:49Z</time>
      </trkpt>
      <trkpt lat="44.93381" lon="1.13769">
        <ele>180.4609883</ele>
        <time>2022-08-16T16:36:51Z</time>
      </trkpt>
      <trkpt lat="44.93385" lon="1.1377">
        <ele>180.3521684</ele>
        <time>2022-08-16T16:36:53Z</time>
      </trkpt>
      <trkpt lat="44.93389" lon="1.13771">
        <ele>180.5766788</ele>
        <time>2022-08-16T16:36:55Z</time>
      </trkpt>
      <trkpt lat="44.93393" lon="1.13771">
        <ele>180.5099319</ele>
        <time>2022-08-16T16:36:57Z</time>
      </trkpt>
      <trkpt lat="44.93397" lon="1.13772">
        <ele>179.6692715</ele>
        <time>2022-08-16T16:36:59Z</time>
      </trkpt>
      <trkpt lat="44.93401" lon="1.13773">
        <ele>179.3884997</ele>
        <time>2022-08-16T16:37:01Z</time>
      </trkpt>
      <trkpt lat="44.93405" lon="1.13774">
        <ele>179.393302</ele>
        <time>2022-08-16T16:37:03Z</time>
      </trkpt>
      <trkpt lat="44.93409" lon="1.13775">
        <ele>179.5897127</ele>
        <time>2022-08-16T16:37:05Z</time>
      </trkpt>
      <trkpt lat="44.93412" lon="1.13776">
        <ele>179.2146199</ele>
        <time>2022-08-16T16:37:07Z</time>
      </trkpt>
      <trkpt lat="44.93416" lon="1.13777">
        <ele>179.5442094</ele>
        <time>2022-08-16T16:37:09Z</time>
      </trkpt>
      <trkpt lat="44.9342" lon="1.13778">
        <ele>180.0551447</ele>
        <time>2022-08-16T16:37:11Z</time>
      </trkpt>
      <trkpt lat="44.93424" lon="1.13779">
        <ele>180.6855441</ele>
        <time>2022-08-16T16:37:13Z</time>
      </trkpt>
      <trkpt lat="44.93427" lon="1.1378">
        <ele>181.1077985</ele>
        <time>2022-08-16T16:37:15Z</time>
      </trkpt>
      <trkpt lat="44.93431" lon="1.13782">
        <ele>181.327554</ele>
        <time>2022-08-16T16:37:17Z</time>
      </trkpt>
      <trkpt lat="44.93434" lon="1.13784">
        <ele>181.7525638</ele>
        <time>2022-08-16T16:37:19Z</time>
      </trkpt>
      <trkpt lat="44.93439" lon="1.13787">
        <ele>182.3089493</ele>
        <time>2022-08-16T16:37:21Z</time>
      </trkpt>
      <trkpt lat="44.93442" lon="1.13789">
        <ele>182.7892825</ele>
        <time>2022-08-16T16:37:23Z</time>
      </trkpt>
      <trkpt lat="44.93446" lon="1.13791">
        <ele>183.038246</ele>
        <time>2022-08-16T16:37:25Z</time>
      </trkpt>
      <trkpt lat="44.93449" lon="1.13793">
        <ele>183.6182935</ele>
        <time>2022-08-16T16:37:27Z</time>
      </trkpt>
      <trkpt lat="44.93453" lon="1.13795">
        <ele>183.916816</ele>
        <time>2022-08-16T16:37:29Z</time>
      </trkpt>
      <trkpt lat="44.93456" lon="1.13797">
        <ele>183.5448494</ele>
        <time>2022-08-16T16:37:31Z</time>
      </trkpt>
      <trkpt lat="44.9346" lon="1.13799">
        <ele>183.9215347</ele>
        <time>2022-08-16T16:37:33Z</time>
      </trkpt>
      <trkpt lat="44.93464" lon="1.138">
        <ele>184.5514666</ele>
        <time>2022-08-16T16:37:35Z</time>
      </trkpt>
      <trkpt lat="44.93467" lon="1.13802">
        <ele>185.1246565</ele>
        <time>2022-08-16T16:37:37Z</time>
      </trkpt>
      <trkpt lat="44.93471" lon="1.13804">
        <ele>185.5362714</ele>
        <time>2022-08-16T16:37:39Z</time>
      </trkpt>
      <trkpt lat="44.93474" lon="1.13806">
        <ele>186.2487159</ele>
        <time>2022-08-16T16:37:41Z</time>
      </trkpt>
      <trkpt lat="44.93477" lon="1.13808">
        <ele>186.6509563</ele>
        <time>2022-08-16T16:37:43Z</time>
      </trkpt>
      <trkpt lat="44.93481" lon="1.13811">
        <ele>186.9780546</ele>
        <time>2022-08-16T16:37:45Z</time>
      </trkpt>
      <trkpt lat="44.93484" lon="1.13813">
        <ele>186.9139793</ele>
        <time>2022-08-16T16:37:47Z</time>
      </trkpt>
      <trkpt lat="44.93487" lon="1.13814">
        <ele>188.5118057</ele>
        <time>2022-08-16T16:37:49Z</time>
      </trkpt>
      <trkpt lat="44.93491" lon="1.13815">
        <ele>188.7048348</ele>
        <time>2022-08-16T16:37:51Z</time>
      </trkpt>
      <trkpt lat="44.93494" lon="1.13817">
        <ele>189.8499948</ele>
        <time>2022-08-16T16:37:53Z</time>
      </trkpt>
      <trkpt lat="44.93498" lon="1.13819">
        <ele>189.957259</ele>
        <time>2022-08-16T16:37:55Z</time>
      </trkpt>
      <trkpt lat="44.93502" lon="1.13822">
        <ele>189.2411981</ele>
        <time>2022-08-16T16:37:57Z</time>
      </trkpt>
      <trkpt lat="44.93506" lon="1.13825">
        <ele>190.230454</ele>
        <time>2022-08-16T16:37:59Z</time>
      </trkpt>
      <trkpt lat="44.93509" lon="1.13828">
        <ele>190.4457401</ele>
        <time>2022-08-16T16:38:01Z</time>
      </trkpt>
      <trkpt lat="44.93512" lon="1.13831">
        <ele>191.7577201</ele>
        <time>2022-08-16T16:38:03Z</time>
      </trkpt>
      <trkpt lat="44.93515" lon="1.13834">
        <ele>192.277729</ele>
        <time>2022-08-16T16:38:05Z</time>
      </trkpt>
      <trkpt lat="44.93518" lon="1.13838">
        <ele>192.0741117</ele>
        <time>2022-08-16T16:38:07Z</time>
      </trkpt>
      <trkpt lat="44.93522" lon="1.13841">
        <ele>192.9273451</ele>
        <time>2022-08-16T16:38:09Z</time>
      </trkpt>
      <trkpt lat="44.93524" lon="1.13843">
        <ele>193.4959228</ele>
        <time>2022-08-16T16:38:11Z</time>
      </trkpt>
      <trkpt lat="44.93527" lon="1.13848">
        <ele>192.796407</ele>
        <time>2022-08-16T16:38:13Z</time>
      </trkpt>
      <trkpt lat="44.9353" lon="1.13852">
        <ele>193.3033861</ele>
        <time>2022-08-16T16:38:15Z</time>
      </trkpt>
      <trkpt lat="44.93533" lon="1.13856">
        <ele>193.1429863</ele>
        <time>2022-08-16T16:38:17Z</time>
      </trkpt>
      <trkpt lat="44.93536" lon="1.13858">
        <ele>193.4859052</ele>
        <time>2022-08-16T16:38:19Z</time>
      </trkpt>
      <trkpt lat="44.9354" lon="1.13861">
        <ele>192.7772534</ele>
        <time>2022-08-16T16:38:21Z</time>
      </trkpt>
      <trkpt lat="44.93544" lon="1.13865">
        <ele>192.5008077</ele>
        <time>2022-08-16T16:38:23Z</time>
      </trkpt>
      <trkpt lat="44.93548" lon="1.13867">
        <ele>191.701355</ele>
        <time>2022-08-16T16:38:25Z</time>
      </trkpt>
      <trkpt lat="44.93552" lon="1.1387">
        <ele>191.1283974</ele>
        <time>2022-08-16T16:38:27Z</time>
      </trkpt>
      <trkpt lat="44.93556" lon="1.13871">
        <ele>191.8073139</ele>
        <time>2022-08-16T16:38:29Z</time>
      </trkpt>
      <trkpt lat="44.9356" lon="1.13872">
        <ele>192.1745407</ele>
        <time>2022-08-16T16:38:31Z</time>
      </trkpt>
      <trkpt lat="44.93563" lon="1.13872">
        <ele>192.4701919</ele>
        <time>2022-08-16T16:38:33Z</time>
      </trkpt>
      <trkpt lat="44.93567" lon="1.13873">
        <ele>193.0124514</ele>
        <time>2022-08-16T16:38:35Z</time>
      </trkpt>
      <trkpt lat="44.93571" lon="1.13873">
        <ele>192.9606719</ele>
        <time>2022-08-16T16:38:37Z</time>
      </trkpt>
      <trkpt lat="44.93574" lon="1.13875">
        <ele>192.8085649</ele>
        <time>2022-08-16T16:38:39Z</time>
      </trkpt>
      <trkpt lat="44.93577" lon="1.13875">
        <ele>192.8148029</ele>
        <time>2022-08-16T16:38:41Z</time>
      </trkpt>
      <trkpt lat="44.93581" lon="1.13876">
        <ele>192.4123803</ele>
        <time>2022-08-16T16:38:43Z</time>
      </trkpt>
      <trkpt lat="44.93585" lon="1.13876">
        <ele>192.0614646</ele>
        <time>2022-08-16T16:38:45Z</time>
      </trkpt>
      <trkpt lat="44.93589" lon="1.13879">
        <ele>192.0141284</ele>
        <time>2022-08-16T16:38:47Z</time>
      </trkpt>
      <trkpt lat="44.93592" lon="1.13879">
        <ele>191.7261259</ele>
        <time>2022-08-16T16:38:49Z</time>
      </trkpt>
      <trkpt lat="44.93596" lon="1.13881">
        <ele>191.7131854</ele>
        <time>2022-08-16T16:38:51Z</time>
      </trkpt>
      <trkpt lat="44.936" lon="1.13881">
        <ele>191.7905432</ele>
        <time>2022-08-16T16:38:53Z</time>
      </trkpt>
      <trkpt lat="44.93604" lon="1.13883">
        <ele>192.2401538</ele>
        <time>2022-08-16T16:38:55Z</time>
      </trkpt>
      <trkpt lat="44.93607" lon="1.13885">
        <ele>192.0138427</ele>
        <time>2022-08-16T16:38:57Z</time>
      </trkpt>
      <trkpt lat="44.93611" lon="1.13888">
        <ele>192.4262519</ele>
        <time>2022-08-16T16:38:59Z</time>
      </trkpt>
      <trkpt lat="44.93614" lon="1.13889">
        <ele>192.9084288</ele>
        <time>2022-08-16T16:39:01Z</time>
      </trkpt>
      <trkpt lat="44.93617" lon="1.13892">
        <ele>192.4534008</ele>
        <time>2022-08-16T16:39:03Z</time>
      </trkpt>
      <trkpt lat="44.9362" lon="1.13895">
        <ele>191.7416456</ele>
        <time>2022-08-16T16:39:05Z</time>
      </trkpt>
      <trkpt lat="44.93624" lon="1.13899">
        <ele>192.2232657</ele>
        <time>2022-08-16T16:39:07Z</time>
      </trkpt>
      <trkpt lat="44.93627" lon="1.13902">
        <ele>191.852262</ele>
        <time>2022-08-16T16:39:09Z</time>
      </trkpt>
      <trkpt lat="44.9363" lon="1.13906">
        <ele>192.2765179</ele>
        <time>2022-08-16T16:39:11Z</time>
      </trkpt>
      <trkpt lat="44.93632" lon="1.13911">
        <ele>192.2977019</ele>
        <time>2022-08-16T16:39:13Z</time>
      </trkpt>
      <trkpt lat="44.93635" lon="1.13915">
        <ele>192.2687396</ele>
        <time>2022-08-16T16:39:15Z</time>
      </trkpt>
      <trkpt lat="44.93636" lon="1.13921">
        <ele>192.0422499</ele>
        <time>2022-08-16T16:39:17Z</time>
      </trkpt>
      <trkpt lat="44.93638" lon="1.13925">
        <ele>191.5517554</ele>
        <time>2022-08-16T16:39:19Z</time>
      </trkpt>
      <trkpt lat="44.9364" lon="1.13931">
        <ele>191.5972517</ele>
        <time>2022-08-16T16:39:21Z</time>
      </trkpt>
      <trkpt lat="44.93643" lon="1.13935">
        <ele>192.4081488</ele>
        <time>2022-08-16T16:39:23Z</time>
      </trkpt>
      <trkpt lat="44.93645" lon="1.1394">
        <ele>192.3551556</ele>
        <time>2022-08-16T16:39:25Z</time>
      </trkpt>
      <trkpt lat="44.93646" lon="1.13944">
        <ele>192.2537263</ele>
        <time>2022-08-16T16:39:27Z</time>
      </trkpt>
      <trkpt lat="44.93649" lon="1.13948">
        <ele>193.2319165</ele>
        <time>2022-08-16T16:39:29Z</time>
      </trkpt>
      <trkpt lat="44.93651" lon="1.13951">
        <ele>193.1820993</ele>
        <time>2022-08-16T16:39:31Z</time>
      </trkpt>
      <trkpt lat="44.93653" lon="1.13955">
        <ele>193.8657329</ele>
        <time>2022-08-16T16:39:33Z</time>
      </trkpt>
      <trkpt lat="44.93656" lon="1.13957">
        <ele>193.6753436</ele>
        <time>2022-08-16T16:39:35Z</time>
      </trkpt>
      <trkpt lat="44.93659" lon="1.13958">
        <ele>193.708462</ele>
        <time>2022-08-16T16:39:37Z</time>
      </trkpt>
      <trkpt lat="44.93664" lon="1.13959">
        <ele>194.3693926</ele>
        <time>2022-08-16T16:39:39Z</time>
      </trkpt>
      <trkpt lat="44.93668" lon="1.13959">
        <ele>195.6206486</ele>
        <time>2022-08-16T16:39:41Z</time>
      </trkpt>
      <trkpt lat="44.93671" lon="1.1396">
        <ele>195.979707</ele>
        <time>2022-08-16T16:39:43Z</time>
      </trkpt>
      <trkpt lat="44.93674" lon="1.13958">
        <ele>196.1670119</ele>
        <time>2022-08-16T16:39:45Z</time>
      </trkpt>
      <trkpt lat="44.93678" lon="1.13956">
        <ele>197.02798</ele>
        <time>2022-08-16T16:39:47Z</time>
      </trkpt>
      <trkpt lat="44.9368" lon="1.13954">
        <ele>197.189552</ele>
        <time>2022-08-16T16:39:49Z</time>
      </trkpt>
      <trkpt lat="44.93683" lon="1.13951">
        <ele>197.5732418</ele>
        <time>2022-08-16T16:39:51Z</time>
      </trkpt>
      <trkpt lat="44.93685" lon="1.13947">
        <ele>198.23925</ele>
        <time>2022-08-16T16:39:53Z</time>
      </trkpt>
      <trkpt lat="44.93688" lon="1.13945">
        <ele>199.4237155</ele>
        <time>2022-08-16T16:39:55Z</time>
      </trkpt>
      <trkpt lat="44.93691" lon="1.13942">
        <ele>199.7565204</ele>
        <time>2022-08-16T16:39:57Z</time>
      </trkpt>
      <trkpt lat="44.93693" lon="1.13939">
        <ele>200.1008857</ele>
        <time>2022-08-16T16:39:59Z</time>
      </trkpt>
      <trkpt lat="44.93696" lon="1.13935">
        <ele>200.8515596</ele>
        <time>2022-08-16T16:40:01Z</time>
      </trkpt>
      <trkpt lat="44.93698" lon="1.13931">
        <ele>201.1451507</ele>
        <time>2022-08-16T16:40:03Z</time>
      </trkpt>
      <trkpt lat="44.93701" lon="1.13928">
        <ele>201.4957066</ele>
        <time>2022-08-16T16:40:05Z</time>
      </trkpt>
      <trkpt lat="44.93704" lon="1.13927">
        <ele>201.0912251</ele>
        <time>2022-08-16T16:40:07Z</time>
      </trkpt>
      <trkpt lat="44.93707" lon="1.13924">
        <ele>201.2465853</ele>
        <time>2022-08-16T16:40:09Z</time>
      </trkpt>
      <trkpt lat="44.93711" lon="1.13922">
        <ele>201.2974581</ele>
        <time>2022-08-16T16:40:11Z</time>
      </trkpt>
      <trkpt lat="44.93713" lon="1.1392">
        <ele>201.4344647</ele>
        <time>2022-08-16T16:40:13Z</time>
      </trkpt>
      <trkpt lat="44.93717" lon="1.13919">
        <ele>201.1033075</ele>
        <time>2022-08-16T16:40:15Z</time>
      </trkpt>
      <trkpt lat="44.9372" lon="1.13918">
        <ele>202.1112646</ele>
        <time>2022-08-16T16:40:17Z</time>
      </trkpt>
      <trkpt lat="44.93724" lon="1.13916">
        <ele>202.9826661</ele>
        <time>2022-08-16T16:40:19Z</time>
      </trkpt>
      <trkpt lat="44.93727" lon="1.13916">
        <ele>203.1838001</ele>
        <time>2022-08-16T16:40:21Z</time>
      </trkpt>
      <trkpt lat="44.93731" lon="1.13916">
        <ele>203.6953755</ele>
        <time>2022-08-16T16:40:23Z</time>
      </trkpt>
      <trkpt lat="44.93734" lon="1.13915">
        <ele>204.4478638</ele>
        <time>2022-08-16T16:40:25Z</time>
      </trkpt>
      <trkpt lat="44.93738" lon="1.13915">
        <ele>204.5270616</ele>
        <time>2022-08-16T16:40:27Z</time>
      </trkpt>
      <trkpt lat="44.93741" lon="1.13915">
        <ele>205.0125833</ele>
        <time>2022-08-16T16:40:29Z</time>
      </trkpt>
      <trkpt lat="44.93745" lon="1.13915">
        <ele>204.5109469</ele>
        <time>2022-08-16T16:40:31Z</time>
      </trkpt>
      <trkpt lat="44.93749" lon="1.13915">
        <ele>204.4694004</ele>
        <time>2022-08-16T16:40:33Z</time>
      </trkpt>
      <trkpt lat="44.93753" lon="1.13915">
        <ele>204.3896975</ele>
        <time>2022-08-16T16:40:35Z</time>
      </trkpt>
      <trkpt lat="44.93756" lon="1.13915">
        <ele>204.6826248</ele>
        <time>2022-08-16T16:40:37Z</time>
      </trkpt>
      <trkpt lat="44.9376" lon="1.13915">
        <ele>205.0905697</ele>
        <time>2022-08-16T16:40:39Z</time>
      </trkpt>
      <trkpt lat="44.93763" lon="1.13915">
        <ele>204.9058955</ele>
        <time>2022-08-16T16:40:41Z</time>
      </trkpt>
      <trkpt lat="44.93767" lon="1.13916">
        <ele>204.455054</ele>
        <time>2022-08-16T16:40:43Z</time>
      </trkpt>
      <trkpt lat="44.93771" lon="1.13917">
        <ele>205.0649125</ele>
        <time>2022-08-16T16:40:45Z</time>
      </trkpt>
      <trkpt lat="44.93774" lon="1.13917">
        <ele>204.5516228</ele>
        <time>2022-08-16T16:40:47Z</time>
      </trkpt>
      <trkpt lat="44.93778" lon="1.13917">
        <ele>204.633593</ele>
        <time>2022-08-16T16:40:49Z</time>
      </trkpt>
      <trkpt lat="44.93781" lon="1.13917">
        <ele>205.7959902</ele>
        <time>2022-08-16T16:40:51Z</time>
      </trkpt>
      <trkpt lat="44.93785" lon="1.13917">
        <ele>205.3875633</ele>
        <time>2022-08-16T16:40:53Z</time>
      </trkpt>
      <trkpt lat="44.93789" lon="1.13918">
        <ele>205.4432349</ele>
        <time>2022-08-16T16:40:55Z</time>
      </trkpt>
      <trkpt lat="44.93793" lon="1.13919">
        <ele>205.8650426</ele>
        <time>2022-08-16T16:40:57Z</time>
      </trkpt>
      <trkpt lat="44.93797" lon="1.1392">
        <ele>206.1868027</ele>
        <time>2022-08-16T16:40:59Z</time>
      </trkpt>
      <trkpt lat="44.938" lon="1.13921">
        <ele>206.7616911</ele>
        <time>2022-08-16T16:41:01Z</time>
      </trkpt>
      <trkpt lat="44.93803" lon="1.13922">
        <ele>206.8079772</ele>
        <time>2022-08-16T16:41:03Z</time>
      </trkpt>
      <trkpt lat="44.93807" lon="1.13924">
        <ele>206.1074717</ele>
        <time>2022-08-16T16:41:05Z</time>
      </trkpt>
      <trkpt lat="44.9381" lon="1.13925">
        <ele>205.5594609</ele>
        <time>2022-08-16T16:41:07Z</time>
      </trkpt>
      <trkpt lat="44.93814" lon="1.13928">
        <ele>205.7170456</ele>
        <time>2022-08-16T16:41:09Z</time>
      </trkpt>
      <trkpt lat="44.93817" lon="1.13931">
        <ele>205.9993663</ele>
        <time>2022-08-16T16:41:11Z</time>
      </trkpt>
      <trkpt lat="44.93821" lon="1.13934">
        <ele>206.2106252</ele>
        <time>2022-08-16T16:41:13Z</time>
      </trkpt>
      <trkpt lat="44.93824" lon="1.13937">
        <ele>206.2199276</ele>
        <time>2022-08-16T16:41:15Z</time>
      </trkpt>
      <trkpt lat="44.93827" lon="1.13939">
        <ele>205.9475834</ele>
        <time>2022-08-16T16:41:17Z</time>
      </trkpt>
      <trkpt lat="44.9383" lon="1.13941">
        <ele>206.1233476</ele>
        <time>2022-08-16T16:41:19Z</time>
      </trkpt>
      <trkpt lat="44.93833" lon="1.13944">
        <ele>206.2725053</ele>
        <time>2022-08-16T16:41:21Z</time>
      </trkpt>
      <trkpt lat="44.93835" lon="1.13947">
        <ele>206.3612714</ele>
        <time>2022-08-16T16:41:23Z</time>
      </trkpt>
      <trkpt lat="44.93838" lon="1.1395">
        <ele>206.1359502</ele>
        <time>2022-08-16T16:41:25Z</time>
      </trkpt>
      <trkpt lat="44.9384" lon="1.13953">
        <ele>205.2028033</ele>
        <time>2022-08-16T16:41:27Z</time>
      </trkpt>
      <trkpt lat="44.93843" lon="1.13955">
        <ele>205.2360773</ele>
        <time>2022-08-16T16:41:29Z</time>
      </trkpt>
      <trkpt lat="44.93845" lon="1.13959">
        <ele>205.0227149</ele>
        <time>2022-08-16T16:41:31Z</time>
      </trkpt>
      <trkpt lat="44.93847" lon="1.13963">
        <ele>204.9480726</ele>
        <time>2022-08-16T16:41:33Z</time>
      </trkpt>
      <trkpt lat="44.9385" lon="1.13966">
        <ele>204.544936</ele>
        <time>2022-08-16T16:41:35Z</time>
      </trkpt>
      <trkpt lat="44.93853" lon="1.13969">
        <ele>204.0101941</ele>
        <time>2022-08-16T16:41:37Z</time>
      </trkpt>
      <trkpt lat="44.93855" lon="1.13974">
        <ele>203.4325192</ele>
        <time>2022-08-16T16:41:39Z</time>
      </trkpt>
      <trkpt lat="44.93857" lon="1.13976">
        <ele>204.0236772</ele>
        <time>2022-08-16T16:41:41Z</time>
      </trkpt>
      <trkpt lat="44.93859" lon="1.1398">
        <ele>204.2654979</ele>
        <time>2022-08-16T16:41:43Z</time>
      </trkpt>
      <trkpt lat="44.93861" lon="1.13984">
        <ele>204.8682065</ele>
        <time>2022-08-16T16:41:45Z</time>
      </trkpt>
      <trkpt lat="44.93864" lon="1.13987">
        <ele>204.3690331</ele>
        <time>2022-08-16T16:41:47Z</time>
      </trkpt>
      <trkpt lat="44.93866" lon="1.1399">
        <ele>204.4025716</ele>
        <time>2022-08-16T16:41:49Z</time>
      </trkpt>
      <trkpt lat="44.93869" lon="1.13994">
        <ele>204.410594</ele>
        <time>2022-08-16T16:41:51Z</time>
      </trkpt>
      <trkpt lat="44.93871" lon="1.13997">
        <ele>204.6672458</ele>
        <time>2022-08-16T16:41:53Z</time>
      </trkpt>
      <trkpt lat="44.93873" lon="1.14">
        <ele>204.3428394</ele>
        <time>2022-08-16T16:41:55Z</time>
      </trkpt>
      <trkpt lat="44.93876" lon="1.14004">
        <ele>204.5342285</ele>
        <time>2022-08-16T16:41:57Z</time>
      </trkpt>
      <trkpt lat="44.93878" lon="1.14007">
        <ele>204.5621507</ele>
        <time>2022-08-16T16:41:59Z</time>
      </trkpt>
      <trkpt lat="44.9388" lon="1.1401">
        <ele>205.3641069</ele>
        <time>2022-08-16T16:42:01Z</time>
      </trkpt>
      <trkpt lat="44.93882" lon="1.14014">
        <ele>205.5596944</ele>
        <time>2022-08-16T16:42:03Z</time>
      </trkpt>
      <trkpt lat="44.93885" lon="1.14017">
        <ele>205.8457157</ele>
        <time>2022-08-16T16:42:05Z</time>
      </trkpt>
      <trkpt lat="44.93887" lon="1.14021">
        <ele>206.0796315</ele>
        <time>2022-08-16T16:42:07Z</time>
      </trkpt>
      <trkpt lat="44.9389" lon="1.14025">
        <ele>206.7454249</ele>
        <time>2022-08-16T16:42:09Z</time>
      </trkpt>
      <trkpt lat="44.93893" lon="1.14028">
        <ele>206.3122127</ele>
        <time>2022-08-16T16:42:11Z</time>
      </trkpt>
      <trkpt lat="44.93896" lon="1.14031">
        <ele>207.2972428</ele>
        <time>2022-08-16T16:42:13Z</time>
      </trkpt>
      <trkpt lat="44.939" lon="1.14034">
        <ele>207.0675776</ele>
        <time>2022-08-16T16:42:15Z</time>
      </trkpt>
      <trkpt lat="44.93903" lon="1.14038">
        <ele>207.4564065</ele>
        <time>2022-08-16T16:42:17Z</time>
      </trkpt>
      <trkpt lat="44.93907" lon="1.1404">
        <ele>207.4316028</ele>
        <time>2022-08-16T16:42:19Z</time>
      </trkpt>
      <trkpt lat="44.93911" lon="1.14042">
        <ele>207.6968668</ele>
        <time>2022-08-16T16:42:21Z</time>
      </trkpt>
      <trkpt lat="44.93915" lon="1.14044">
        <ele>207.4819626</ele>
        <time>2022-08-16T16:42:23Z</time>
      </trkpt>
      <trkpt lat="44.93919" lon="1.14044">
        <ele>207.4677746</ele>
        <time>2022-08-16T16:42:25Z</time>
      </trkpt>
      <trkpt lat="44.93923" lon="1.14044">
        <ele>208.2530412</ele>
        <time>2022-08-16T16:42:27Z</time>
      </trkpt>
      <trkpt lat="44.93927" lon="1.14043">
        <ele>208.7408356</ele>
        <time>2022-08-16T16:42:29Z</time>
      </trkpt>
      <trkpt lat="44.9393" lon="1.14041">
        <ele>208.6199081</ele>
        <time>2022-08-16T16:42:31Z</time>
      </trkpt>
      <trkpt lat="44.93933" lon="1.14039">
        <ele>209.2569974</ele>
        <time>2022-08-16T16:42:33Z</time>
      </trkpt>
      <trkpt lat="44.93937" lon="1.14036">
        <ele>209.3703988</ele>
        <time>2022-08-16T16:42:35Z</time>
      </trkpt>
      <trkpt lat="44.9394" lon="1.14034">
        <ele>209.1651392</ele>
        <time>2022-08-16T16:42:37Z</time>
      </trkpt>
      <trkpt lat="44.93943" lon="1.14031">
        <ele>210.0221103</ele>
        <time>2022-08-16T16:42:39Z</time>
      </trkpt>
      <trkpt lat="44.93945" lon="1.14027">
        <ele>210.5233702</ele>
        <time>2022-08-16T16:42:41Z</time>
      </trkpt>
      <trkpt lat="44.93947" lon="1.14023">
        <ele>210.6387936</ele>
        <time>2022-08-16T16:42:43Z</time>
      </trkpt>
      <trkpt lat="44.93949" lon="1.14019">
        <ele>210.436418</ele>
        <time>2022-08-16T16:42:45Z</time>
      </trkpt>
      <trkpt lat="44.93951" lon="1.14014">
        <ele>211.5373382</ele>
        <time>2022-08-16T16:42:47Z</time>
      </trkpt>
      <trkpt lat="44.93953" lon="1.14009">
        <ele>211.8607274</ele>
        <time>2022-08-16T16:42:49Z</time>
      </trkpt>
      <trkpt lat="44.93954" lon="1.14005">
        <ele>212.1001043</ele>
        <time>2022-08-16T16:42:51Z</time>
      </trkpt>
      <trkpt lat="44.93956" lon="1.14">
        <ele>212.7125372</ele>
        <time>2022-08-16T16:42:53Z</time>
      </trkpt>
      <trkpt lat="44.93958" lon="1.13994">
        <ele>213.3418637</ele>
        <time>2022-08-16T16:42:55Z</time>
      </trkpt>
      <trkpt lat="44.9396" lon="1.1399">
        <ele>213.135139</ele>
        <time>2022-08-16T16:42:57Z</time>
      </trkpt>
      <trkpt lat="44.9396" lon="1.13984">
        <ele>213.8910934</ele>
        <time>2022-08-16T16:42:59Z</time>
      </trkpt>
      <trkpt lat="44.93962" lon="1.13979">
        <ele>213.7687308</ele>
        <time>2022-08-16T16:43:01Z</time>
      </trkpt>
      <trkpt lat="44.93964" lon="1.13974">
        <ele>214.1931004</ele>
        <time>2022-08-16T16:43:03Z</time>
      </trkpt>
      <trkpt lat="44.93965" lon="1.1397">
        <ele>214.8345139</ele>
        <time>2022-08-16T16:43:05Z</time>
      </trkpt>
      <trkpt lat="44.93967" lon="1.13966">
        <ele>214.3427963</ele>
        <time>2022-08-16T16:43:07Z</time>
      </trkpt>
      <trkpt lat="44.93969" lon="1.13961">
        <ele>215.053335</ele>
        <time>2022-08-16T16:43:09Z</time>
      </trkpt>
      <trkpt lat="44.9397" lon="1.13956">
        <ele>215.3824844</ele>
        <time>2022-08-16T16:43:11Z</time>
      </trkpt>
      <trkpt lat="44.93972" lon="1.13952">
        <ele>215.2884652</ele>
        <time>2022-08-16T16:43:13Z</time>
      </trkpt>
      <trkpt lat="44.93973" lon="1.13947">
        <ele>215.5961325</ele>
        <time>2022-08-16T16:43:15Z</time>
      </trkpt>
      <trkpt lat="44.93975" lon="1.13942">
        <ele>215.7238522</ele>
        <time>2022-08-16T16:43:17Z</time>
      </trkpt>
      <trkpt lat="44.93977" lon="1.13937">
        <ele>215.8773868</ele>
        <time>2022-08-16T16:43:19Z</time>
      </trkpt>
      <trkpt lat="44.93978" lon="1.13932">
        <ele>216.2031873</ele>
        <time>2022-08-16T16:43:21Z</time>
      </trkpt>
      <trkpt lat="44.93979" lon="1.13926">
        <ele>216.2922718</ele>
        <time>2022-08-16T16:43:23Z</time>
      </trkpt>
      <trkpt lat="44.93981" lon="1.13921">
        <ele>216.4341369</ele>
        <time>2022-08-16T16:43:25Z</time>
      </trkpt>
      <trkpt lat="44.93982" lon="1.13915">
        <ele>216.8649011</ele>
        <time>2022-08-16T16:43:27Z</time>
      </trkpt>
      <trkpt lat="44.93983" lon="1.1391">
        <ele>217.0625124</ele>
        <time>2022-08-16T16:43:29Z</time>
      </trkpt>
      <trkpt lat="44.93985" lon="1.13904">
        <ele>217.5680346</ele>
        <time>2022-08-16T16:43:31Z</time>
      </trkpt>
      <trkpt lat="44.93985" lon="1.13899">
        <ele>217.5878922</ele>
        <time>2022-08-16T16:43:33Z</time>
      </trkpt>
      <trkpt lat="44.93986" lon="1.13894">
        <ele>218.0975198</ele>
        <time>2022-08-16T16:43:35Z</time>
      </trkpt>
      <trkpt lat="44.93988" lon="1.13888">
        <ele>218.5866388</ele>
        <time>2022-08-16T16:43:37Z</time>
      </trkpt>
      <trkpt lat="44.93989" lon="1.13882">
        <ele>218.7966164</ele>
        <time>2022-08-16T16:43:39Z</time>
      </trkpt>
      <trkpt lat="44.9399" lon="1.13877">
        <ele>219.1329377</ele>
        <time>2022-08-16T16:43:41Z</time>
      </trkpt>
      <trkpt lat="44.93991" lon="1.13871">
        <ele>219.783621</ele>
        <time>2022-08-16T16:43:43Z</time>
      </trkpt>
      <trkpt lat="44.93992" lon="1.13865">
        <ele>219.0544749</ele>
        <time>2022-08-16T16:43:45Z</time>
      </trkpt>
      <trkpt lat="44.93993" lon="1.1386">
        <ele>219.9167281</ele>
        <time>2022-08-16T16:43:47Z</time>
      </trkpt>
      <trkpt lat="44.93995" lon="1.13856">
        <ele>220.83381</ele>
        <time>2022-08-16T16:43:49Z</time>
      </trkpt>
      <trkpt lat="44.93997" lon="1.13851">
        <ele>221.250005</ele>
        <time>2022-08-16T16:43:51Z</time>
      </trkpt>
      <trkpt lat="44.94" lon="1.13847">
        <ele>221.6204397</ele>
        <time>2022-08-16T16:43:53Z</time>
      </trkpt>
      <trkpt lat="44.94002" lon="1.13842">
        <ele>221.6190801</ele>
        <time>2022-08-16T16:43:55Z</time>
      </trkpt>
      <trkpt lat="44.94005" lon="1.13839">
        <ele>222.0799554</ele>
        <time>2022-08-16T16:43:57Z</time>
      </trkpt>
      <trkpt lat="44.94008" lon="1.13834">
        <ele>222.074634</ele>
        <time>2022-08-16T16:43:59Z</time>
      </trkpt>
      <trkpt lat="44.9401" lon="1.13831">
        <ele>222.5547272</ele>
        <time>2022-08-16T16:44:01Z</time>
      </trkpt>
      <trkpt lat="44.94014" lon="1.13827">
        <ele>222.4282183</ele>
        <time>2022-08-16T16:44:03Z</time>
      </trkpt>
      <trkpt lat="44.94017" lon="1.13824">
        <ele>222.4000415</ele>
        <time>2022-08-16T16:44:05Z</time>
      </trkpt>
      <trkpt lat="44.9402" lon="1.1382">
        <ele>222.5372296</ele>
        <time>2022-08-16T16:44:07Z</time>
      </trkpt>
      <trkpt lat="44.94023" lon="1.13817">
        <ele>222.2287264</ele>
        <time>2022-08-16T16:44:09Z</time>
      </trkpt>
      <trkpt lat="44.94027" lon="1.13812">
        <ele>222.0760206</ele>
        <time>2022-08-16T16:44:11Z</time>
      </trkpt>
      <trkpt lat="44.9403" lon="1.13809">
        <ele>221.4548984</ele>
        <time>2022-08-16T16:44:13Z</time>
      </trkpt>
      <trkpt lat="44.94033" lon="1.13804">
        <ele>221.1269342</ele>
        <time>2022-08-16T16:44:15Z</time>
      </trkpt>
      <trkpt lat="44.94036" lon="1.138">
        <ele>221.4895639</ele>
        <time>2022-08-16T16:44:17Z</time>
      </trkpt>
      <trkpt lat="44.94038" lon="1.13796">
        <ele>221.0759826</ele>
        <time>2022-08-16T16:44:19Z</time>
      </trkpt>
      <trkpt lat="44.94041" lon="1.13793">
        <ele>221.2452769</ele>
        <time>2022-08-16T16:44:21Z</time>
      </trkpt>
      <trkpt lat="44.94042" lon="1.13791">
        <ele>221.5164018</ele>
        <time>2022-08-16T16:44:23Z</time>
      </trkpt>
      <trkpt lat="44.94042" lon="1.13791">
        <ele>221.4277523</ele>
        <time>2022-08-16T16:44:25Z</time>
      </trkpt>
      <trkpt lat="44.94043" lon="1.13791">
        <ele>221.2389821</ele>
        <time>2022-08-16T16:44:27Z</time>
      </trkpt>
      <trkpt lat="44.94043" lon="1.13791">
        <ele>222.1463243</ele>
        <time>2022-08-16T16:44:29Z</time>
      </trkpt>
      <trkpt lat="44.94043" lon="1.1379">
        <ele>222.6190429</ele>
        <time>2022-08-16T16:44:31Z</time>
      </trkpt>
      <trkpt lat="44.94042" lon="1.1379">
        <ele>222.3149197</ele>
        <time>2022-08-16T16:44:33Z</time>
      </trkpt>
      <trkpt lat="44.94042" lon="1.1379">
        <ele>222.329006</ele>
        <time>2022-08-16T16:44:35Z</time>
      </trkpt>
      <trkpt lat="44.94042" lon="1.13791">
        <ele>222.2606525</ele>
        <time>2022-08-16T16:44:37Z</time>
      </trkpt>
      <trkpt lat="44.94043" lon="1.1379">
        <ele>222.9115189</ele>
        <time>2022-08-16T16:44:39Z</time>
      </trkpt>
      <trkpt lat="44.94043" lon="1.1379">
        <ele>223.0763768</ele>
        <time>2022-08-16T16:44:41Z</time>
      </trkpt>
      <trkpt lat="44.94044" lon="1.1379">
        <ele>223.8008597</ele>
        <time>2022-08-16T16:44:43Z</time>
      </trkpt>
      <trkpt lat="44.94046" lon="1.1379">
        <ele>223.6107947</ele>
        <time>2022-08-16T16:44:45Z</time>
      </trkpt>
      <trkpt lat="44.94047" lon="1.13791">
        <ele>223.9397485</ele>
        <time>2022-08-16T16:44:47Z</time>
      </trkpt>
      <trkpt lat="44.94047" lon="1.13791">
        <ele>224.3503111</ele>
        <time>2022-08-16T16:44:49Z</time>
      </trkpt>
      <trkpt lat="44.94046" lon="1.1379">
        <ele>224.0962519</ele>
        <time>2022-08-16T16:44:51Z</time>
      </trkpt>
      <trkpt lat="44.94046" lon="1.1379">
        <ele>223.7599341</ele>
        <time>2022-08-16T16:44:53Z</time>
      </trkpt>
      <trkpt lat="44.94045" lon="1.1379">
        <ele>223.4011581</ele>
        <time>2022-08-16T16:44:55Z</time>
      </trkpt>
      <trkpt lat="44.94045" lon="1.1379">
        <ele>222.828702</ele>
        <time>2022-08-16T16:44:57Z</time>
      </trkpt>
      <trkpt lat="44.94045" lon="1.1379">
        <ele>222.7419866</ele>
        <time>2022-08-16T16:44:59Z</time>
      </trkpt>
      <trkpt lat="44.94045" lon="1.1379">
        <ele>222.3466122</ele>
        <time>2022-08-16T16:45:01Z</time>
      </trkpt>
      <trkpt lat="44.94046" lon="1.13792">
        <ele>220.1666694</ele>
        <time>2022-08-16T16:45:05Z</time>
      </trkpt>
      <trkpt lat="44.94046" lon="1.13793">
        <ele>219.7350907</ele>
        <time>2022-08-16T16:45:07Z</time>
      </trkpt>
      <trkpt lat="44.94047" lon="1.13794">
        <ele>219.5650603</ele>
        <time>2022-08-16T16:45:09Z</time>
      </trkpt>
      <trkpt lat="44.94047" lon="1.13794">
        <ele>219.5211985</ele>
        <time>2022-08-16T16:45:11Z</time>
      </trkpt>
      <trkpt lat="44.94047" lon="1.13795">
        <ele>219.3379626</ele>
        <time>2022-08-16T16:45:13Z</time>
      </trkpt>
      <trkpt lat="44.94047" lon="1.13795">
        <ele>218.9325365</ele>
        <time>2022-08-16T16:45:15Z</time>
      </trkpt>
      <trkpt lat="44.94047" lon="1.13795">
        <ele>219.340161</ele>
        <time>2022-08-16T16:45:17Z</time>
      </trkpt>
      <trkpt lat="44.94047" lon="1.13794">
        <ele>219.0581392</ele>
        <time>2022-08-16T16:45:19Z</time>
      </trkpt>
      <trkpt lat="44.94048" lon="1.13795">
        <ele>219.2952223</ele>
        <time>2022-08-16T16:45:21Z</time>
      </trkpt>
      <trkpt lat="44.94046" lon="1.13795">
        <ele>218.8356292</ele>
        <time>2022-08-16T16:45:23Z</time>
      </trkpt>
      <trkpt lat="44.94046" lon="1.13795">
        <ele>218.7623095</ele>
        <time>2022-08-16T16:45:25Z</time>
      </trkpt>
      <trkpt lat="44.94046" lon="1.13795">
        <ele>218.7623095</ele>
        <time>2022-08-16T16:45:29Z</time>
      </trkpt>
      <trkpt lat="44.94042" lon="1.13795">
        <ele>219.6616524</ele>
        <time>2022-08-16T16:45:33Z</time>
      </trkpt>
      <trkpt lat="44.94042" lon="1.13795">
        <ele>219.6769879</ele>
        <time>2022-08-16T16:45:35Z</time>
      </trkpt>
      <trkpt lat="44.94042" lon="1.13794">
        <ele>218.8365931</ele>
        <time>2022-08-16T16:45:37Z</time>
      </trkpt>
      <trkpt lat="44.94043" lon="1.13794">
        <ele>216.6220164</ele>
        <time>2022-08-16T16:45:41Z</time>
      </trkpt>
      <trkpt lat="44.94044" lon="1.13794">
        <ele>216.9425645</ele>
        <time>2022-08-16T16:45:43Z</time>
      </trkpt>
      <trkpt lat="44.94043" lon="1.13794">
        <ele>216.683522</ele>
        <time>2022-08-16T16:45:45Z</time>
      </trkpt>
      <trkpt lat="44.94044" lon="1.13794">
        <ele>216.9360829</ele>
        <time>2022-08-16T16:45:47Z</time>
      </trkpt>
      <trkpt lat="44.94043" lon="1.13794">
        <ele>216.2514625</ele>
        <time>2022-08-16T16:45:51Z</time>
      </trkpt>
      <trkpt lat="44.94044" lon="1.13792">
        <ele>216.1577106</ele>
        <time>2022-08-16T16:45:53Z</time>
      </trkpt>
      <trkpt lat="44.94045" lon="1.13785">
        <ele>216.6922671</ele>
        <time>2022-08-16T16:45:55Z</time>
      </trkpt>
      <trkpt lat="44.9405" lon="1.1378">
        <ele>216.2415591</ele>
        <time>2022-08-16T16:45:57Z</time>
      </trkpt>
      <trkpt lat="44.94053" lon="1.13773">
        <ele>216.5036071</ele>
        <time>2022-08-16T16:45:59Z</time>
      </trkpt>
      <trkpt lat="44.94055" lon="1.13766">
        <ele>215.9869333</ele>
        <time>2022-08-16T16:46:01Z</time>
      </trkpt>
      <trkpt lat="44.94058" lon="1.13758">
        <ele>216.6285758</ele>
        <time>2022-08-16T16:46:03Z</time>
      </trkpt>
      <trkpt lat="44.94064" lon="1.13751">
        <ele>216.2322646</ele>
        <time>2022-08-16T16:46:05Z</time>
      </trkpt>
      <trkpt lat="44.94067" lon="1.13747">
        <ele>215.2906488</ele>
        <time>2022-08-16T16:46:07Z</time>
      </trkpt>
      <trkpt lat="44.94072" lon="1.13738">
        <ele>215.6297462</ele>
        <time>2022-08-16T16:46:09Z</time>
      </trkpt>
      <trkpt lat="44.94077" lon="1.1373">
        <ele>215.1304746</ele>
        <time>2022-08-16T16:46:11Z</time>
      </trkpt>
      <trkpt lat="44.94079" lon="1.13726">
        <ele>215.3067461</ele>
        <time>2022-08-16T16:46:13Z</time>
      </trkpt>
      <trkpt lat="44.94082" lon="1.13719">
        <ele>215.0548351</ele>
        <time>2022-08-16T16:46:15Z</time>
      </trkpt>
      <trkpt lat="44.94084" lon="1.13709">
        <ele>215.6861227</ele>
        <time>2022-08-16T16:46:17Z</time>
      </trkpt>
      <trkpt lat="44.9409" lon="1.13709">
        <ele>214.4418715</ele>
        <time>2022-08-16T16:46:19Z</time>
      </trkpt>
      <trkpt lat="44.94094" lon="1.13706">
        <ele>214.4550858</ele>
        <time>2022-08-16T16:46:21Z</time>
      </trkpt>
      <trkpt lat="44.94097" lon="1.13701">
        <ele>214.340304</ele>
        <time>2022-08-16T16:46:23Z</time>
      </trkpt>
      <trkpt lat="44.941" lon="1.13695">
        <ele>214.9526311</ele>
        <time>2022-08-16T16:46:25Z</time>
      </trkpt>
      <trkpt lat="44.94102" lon="1.13687">
        <ele>214.36464</ele>
        <time>2022-08-16T16:46:27Z</time>
      </trkpt>
      <trkpt lat="44.94107" lon="1.13682">
        <ele>213.9036405</ele>
        <time>2022-08-16T16:46:29Z</time>
      </trkpt>
      <trkpt lat="44.94109" lon="1.13675">
        <ele>214.7472043</ele>
        <time>2022-08-16T16:46:31Z</time>
      </trkpt>
      <trkpt lat="44.94111" lon="1.1366">
        <ele>215.0590791</ele>
        <time>2022-08-16T16:46:33Z</time>
      </trkpt>
      <trkpt lat="44.94114" lon="1.13647">
        <ele>216.1088407</ele>
        <time>2022-08-16T16:46:35Z</time>
      </trkpt>
      <trkpt lat="44.94117" lon="1.13637">
        <ele>215.8547749</ele>
        <time>2022-08-16T16:46:37Z</time>
      </trkpt>
      <trkpt lat="44.94121" lon="1.13628">
        <ele>216.7064893</ele>
        <time>2022-08-16T16:46:39Z</time>
      </trkpt>
      <trkpt lat="44.94126" lon="1.13622">
        <ele>217.4974196</ele>
        <time>2022-08-16T16:46:41Z</time>
      </trkpt>
      <trkpt lat="44.9413" lon="1.13613">
        <ele>216.5488459</ele>
        <time>2022-08-16T16:46:43Z</time>
      </trkpt>
      <trkpt lat="44.94135" lon="1.13607">
        <ele>217.2481353</ele>
        <time>2022-08-16T16:46:45Z</time>
      </trkpt>
      <trkpt lat="44.9414" lon="1.13604">
        <ele>217.083483</ele>
        <time>2022-08-16T16:46:47Z</time>
      </trkpt>
      <trkpt lat="44.94143" lon="1.13599">
        <ele>216.1168771</ele>
        <time>2022-08-16T16:46:49Z</time>
      </trkpt>
      <trkpt lat="44.94144" lon="1.13593">
        <ele>217.3103485</ele>
        <time>2022-08-16T16:46:51Z</time>
      </trkpt>
      <trkpt lat="44.94147" lon="1.13588">
        <ele>216.4827757</ele>
        <time>2022-08-16T16:46:53Z</time>
      </trkpt>
      <trkpt lat="44.94153" lon="1.13583">
        <ele>216.7938311</ele>
        <time>2022-08-16T16:46:55Z</time>
      </trkpt>
      <trkpt lat="44.94157" lon="1.13578">
        <ele>219.1760592</ele>
        <time>2022-08-16T16:46:57Z</time>
      </trkpt>
      <trkpt lat="44.94162" lon="1.13574">
        <ele>219.0408549</ele>
        <time>2022-08-16T16:46:59Z</time>
      </trkpt>
      <trkpt lat="44.94169" lon="1.13573">
        <ele>219.1246926</ele>
        <time>2022-08-16T16:47:01Z</time>
      </trkpt>
      <trkpt lat="44.94173" lon="1.13569">
        <ele>220.2572211</ele>
        <time>2022-08-16T16:47:03Z</time>
      </trkpt>
      <trkpt lat="44.9418" lon="1.13568">
        <ele>220.8435588</ele>
        <time>2022-08-16T16:47:05Z</time>
      </trkpt>
      <trkpt lat="44.94184" lon="1.13566">
        <ele>221.7776231</ele>
        <time>2022-08-16T16:47:07Z</time>
      </trkpt>
      <trkpt lat="44.94189" lon="1.13563">
        <ele>221.7637168</ele>
        <time>2022-08-16T16:47:09Z</time>
      </trkpt>
      <trkpt lat="44.94192" lon="1.13558">
        <ele>222.5760187</ele>
        <time>2022-08-16T16:47:11Z</time>
      </trkpt>
      <trkpt lat="44.94196" lon="1.13555">
        <ele>223.6809464</ele>
        <time>2022-08-16T16:47:13Z</time>
      </trkpt>
      <trkpt lat="44.942" lon="1.13553">
        <ele>224.1934845</ele>
        <time>2022-08-16T16:47:15Z</time>
      </trkpt>
      <trkpt lat="44.94205" lon="1.13551">
        <ele>223.9215087</ele>
        <time>2022-08-16T16:47:17Z</time>
      </trkpt>
      <trkpt lat="44.9421" lon="1.1355">
        <ele>224.0918452</ele>
        <time>2022-08-16T16:47:19Z</time>
      </trkpt>
      <trkpt lat="44.94216" lon="1.13548">
        <ele>223.1159067</ele>
        <time>2022-08-16T16:47:21Z</time>
      </trkpt>
      <trkpt lat="44.94222" lon="1.13549">
        <ele>222.0722847</ele>
        <time>2022-08-16T16:47:23Z</time>
      </trkpt>
      <trkpt lat="44.94228" lon="1.13549">
        <ele>221.6144547</ele>
        <time>2022-08-16T16:47:25Z</time>
      </trkpt>
      <trkpt lat="44.94234" lon="1.13548">
        <ele>222.2528539</ele>
        <time>2022-08-16T16:47:27Z</time>
      </trkpt>
      <trkpt lat="44.94239" lon="1.13545">
        <ele>221.2215979</ele>
        <time>2022-08-16T16:47:29Z</time>
      </trkpt>
      <trkpt lat="44.94246" lon="1.13545">
        <ele>220.1942271</ele>
        <time>2022-08-16T16:47:31Z</time>
      </trkpt>
      <trkpt lat="44.94251" lon="1.13543">
        <ele>221.4878294</ele>
        <time>2022-08-16T16:47:33Z</time>
      </trkpt>
      <trkpt lat="44.94257" lon="1.13542">
        <ele>221.6348239</ele>
        <time>2022-08-16T16:47:35Z</time>
      </trkpt>
      <trkpt lat="44.94263" lon="1.13542">
        <ele>221.2716483</ele>
        <time>2022-08-16T16:47:37Z</time>
      </trkpt>
      <trkpt lat="44.94267" lon="1.13542">
        <ele>221.508518</ele>
        <time>2022-08-16T16:47:39Z</time>
      </trkpt>
      <trkpt lat="44.94272" lon="1.13541">
        <ele>220.1607921</ele>
        <time>2022-08-16T16:47:41Z</time>
      </trkpt>
      <trkpt lat="44.94277" lon="1.1354">
        <ele>220.9590202</ele>
        <time>2022-08-16T16:47:43Z</time>
      </trkpt>
      <trkpt lat="44.94282" lon="1.13541">
        <ele>220.897346</ele>
        <time>2022-08-16T16:47:45Z</time>
      </trkpt>
      <trkpt lat="44.94288" lon="1.13539">
        <ele>221.2185026</ele>
        <time>2022-08-16T16:47:47Z</time>
      </trkpt>
      <trkpt lat="44.94292" lon="1.13538">
        <ele>220.147271</ele>
        <time>2022-08-16T16:47:49Z</time>
      </trkpt>
      <trkpt lat="44.94297" lon="1.13538">
        <ele>220.8024325</ele>
        <time>2022-08-16T16:47:51Z</time>
      </trkpt>
      <trkpt lat="44.94301" lon="1.13536">
        <ele>221.5160986</ele>
        <time>2022-08-16T16:47:53Z</time>
      </trkpt>
      <trkpt lat="44.94308" lon="1.13535">
        <ele>220.8354194</ele>
        <time>2022-08-16T16:47:55Z</time>
      </trkpt>
      <trkpt lat="44.94316" lon="1.13539">
        <ele>220.2725426</ele>
        <time>2022-08-16T16:47:57Z</time>
      </trkpt>
      <trkpt lat="44.94323" lon="1.13542">
        <ele>219.5442603</ele>
        <time>2022-08-16T16:47:59Z</time>
      </trkpt>
      <trkpt lat="44.94331" lon="1.13548">
        <ele>220.1125306</ele>
        <time>2022-08-16T16:48:01Z</time>
      </trkpt>
      <trkpt lat="44.94338" lon="1.13552">
        <ele>220.0617868</ele>
        <time>2022-08-16T16:48:03Z</time>
      </trkpt>
      <trkpt lat="44.94345" lon="1.13555">
        <ele>220.7172225</ele>
        <time>2022-08-16T16:48:05Z</time>
      </trkpt>
      <trkpt lat="44.94353" lon="1.13554">
        <ele>220.8559822</ele>
        <time>2022-08-16T16:48:07Z</time>
      </trkpt>
      <trkpt lat="44.9436" lon="1.13553">
        <ele>221.4221215</ele>
        <time>2022-08-16T16:48:09Z</time>
      </trkpt>
      <trkpt lat="44.94366" lon="1.13552">
        <ele>221.3970656</ele>
        <time>2022-08-16T16:48:11Z</time>
      </trkpt>
      <trkpt lat="44.94372" lon="1.1355">
        <ele>222.0045191</ele>
        <time>2022-08-16T16:48:13Z</time>
      </trkpt>
      <trkpt lat="44.94378" lon="1.13548">
        <ele>222.4362712</ele>
        <time>2022-08-16T16:48:15Z</time>
      </trkpt>
      <trkpt lat="44.94384" lon="1.13547">
        <ele>222.6484915</ele>
        <time>2022-08-16T16:48:17Z</time>
      </trkpt>
      <trkpt lat="44.94389" lon="1.13544">
        <ele>222.5449079</ele>
        <time>2022-08-16T16:48:19Z</time>
      </trkpt>
      <trkpt lat="44.94393" lon="1.1354">
        <ele>223.1833049</ele>
        <time>2022-08-16T16:48:21Z</time>
      </trkpt>
      <trkpt lat="44.94395" lon="1.13536">
        <ele>223.3809881</ele>
        <time>2022-08-16T16:48:23Z</time>
      </trkpt>
      <trkpt lat="44.94397" lon="1.13533">
        <ele>223.3268633</ele>
        <time>2022-08-16T16:48:25Z</time>
      </trkpt>
      <trkpt lat="44.94398" lon="1.13529">
        <ele>222.4185467</ele>
        <time>2022-08-16T16:48:27Z</time>
      </trkpt>
      <trkpt lat="44.94396" lon="1.13527">
        <ele>222.1336171</ele>
        <time>2022-08-16T16:48:29Z</time>
      </trkpt>
      <trkpt lat="44.94397" lon="1.13528">
        <ele>221.1794434</ele>
        <time>2022-08-16T16:48:31Z</time>
      </trkpt>
      <trkpt lat="44.94397" lon="1.13528">
        <ele>220.6400033</ele>
        <time>2022-08-16T16:48:33Z</time>
      </trkpt>
      <trkpt lat="44.94397" lon="1.13528">
        <ele>220.622546</ele>
        <time>2022-08-16T16:48:35Z</time>
      </trkpt>
      <trkpt lat="44.94397" lon="1.13528">
        <ele>220.6369165</ele>
        <time>2022-08-16T16:48:37Z</time>
      </trkpt>
      <trkpt lat="44.94397" lon="1.13527">
        <ele>221.3886967</ele>
        <time>2022-08-16T16:48:39Z</time>
      </trkpt>
      <trkpt lat="44.94397" lon="1.13526">
        <ele>221.2576865</ele>
        <time>2022-08-16T16:48:41Z</time>
      </trkpt>
      <trkpt lat="44.94396" lon="1.13527">
        <ele>221.6131274</ele>
        <time>2022-08-16T16:48:43Z</time>
      </trkpt>
      <trkpt lat="44.94397" lon="1.13527">
        <ele>222.0512462</ele>
        <time>2022-08-16T16:48:47Z</time>
      </trkpt>
      <trkpt lat="44.94397" lon="1.13526">
        <ele>222.1623152</ele>
        <time>2022-08-16T16:48:49Z</time>
      </trkpt>
      <trkpt lat="44.94398" lon="1.13526">
        <ele>221.5644329</ele>
        <time>2022-08-16T16:48:51Z</time>
      </trkpt>
      <trkpt lat="44.94399" lon="1.13526">
        <ele>221.0313824</ele>
        <time>2022-08-16T16:48:53Z</time>
      </trkpt>
      <trkpt lat="44.94398" lon="1.13527">
        <ele>220.3678423</ele>
        <time>2022-08-16T16:48:57Z</time>
      </trkpt>
      <trkpt lat="44.944" lon="1.13529">
        <ele>220.4475643</ele>
        <time>2022-08-16T16:48:59Z</time>
      </trkpt>
      <trkpt lat="44.944" lon="1.13531">
        <ele>220.0192769</ele>
        <time>2022-08-16T16:49:01Z</time>
      </trkpt>
      <trkpt lat="44.94398" lon="1.13538">
        <ele>219.9462341</ele>
        <time>2022-08-16T16:49:03Z</time>
      </trkpt>
      <trkpt lat="44.94395" lon="1.13541">
        <ele>219.8352559</ele>
        <time>2022-08-16T16:49:05Z</time>
      </trkpt>
      <trkpt lat="44.94392" lon="1.13545">
        <ele>219.9373498</ele>
        <time>2022-08-16T16:49:07Z</time>
      </trkpt>
      <trkpt lat="44.94392" lon="1.13549">
        <ele>219.4616964</ele>
        <time>2022-08-16T16:49:09Z</time>
      </trkpt>
      <trkpt lat="44.94393" lon="1.13547">
        <ele>220.6538237</ele>
        <time>2022-08-16T16:49:11Z</time>
      </trkpt>
      <trkpt lat="44.94393" lon="1.13549">
        <ele>221.2415597</ele>
        <time>2022-08-16T16:49:13Z</time>
      </trkpt>
      <trkpt lat="44.9439" lon="1.13554">
        <ele>220.8628778</ele>
        <time>2022-08-16T16:49:15Z</time>
      </trkpt>
      <trkpt lat="44.94386" lon="1.13558">
        <ele>220.9965247</ele>
        <time>2022-08-16T16:49:17Z</time>
      </trkpt>
      <trkpt lat="44.94383" lon="1.13562">
        <ele>220.7132069</ele>
        <time>2022-08-16T16:49:19Z</time>
      </trkpt>
      <trkpt lat="44.94379" lon="1.13567">
        <ele>220.3310271</ele>
        <time>2022-08-16T16:49:21Z</time>
      </trkpt>
      <trkpt lat="44.94379" lon="1.13573">
        <ele>221.1496102</ele>
        <time>2022-08-16T16:49:23Z</time>
      </trkpt>
      <trkpt lat="44.94379" lon="1.13573">
        <ele>220.3265153</ele>
        <time>2022-08-16T16:49:25Z</time>
      </trkpt>
      <trkpt lat="44.94379" lon="1.13572">
        <ele>220.5694721</ele>
        <time>2022-08-16T16:49:27Z</time>
      </trkpt>
      <trkpt lat="44.94379" lon="1.13574">
        <ele>221.3087309</ele>
        <time>2022-08-16T16:49:29Z</time>
      </trkpt>
      <trkpt lat="44.94378" lon="1.13578">
        <ele>222.0191296</ele>
        <time>2022-08-16T16:49:31Z</time>
      </trkpt>
      <trkpt lat="44.94377" lon="1.1358">
        <ele>222.4444193</ele>
        <time>2022-08-16T16:49:33Z</time>
      </trkpt>
      <trkpt lat="44.94374" lon="1.13583">
        <ele>221.7783688</ele>
        <time>2022-08-16T16:49:35Z</time>
      </trkpt>
      <trkpt lat="44.94373" lon="1.13589">
        <ele>221.2919503</ele>
        <time>2022-08-16T16:49:37Z</time>
      </trkpt>
      <trkpt lat="44.94374" lon="1.13594">
        <ele>221.2496894</ele>
        <time>2022-08-16T16:49:39Z</time>
      </trkpt>
      <trkpt lat="44.94373" lon="1.13598">
        <ele>220.7083712</ele>
        <time>2022-08-16T16:49:41Z</time>
      </trkpt>
      <trkpt lat="44.94373" lon="1.136">
        <ele>220.3303941</ele>
        <time>2022-08-16T16:49:43Z</time>
      </trkpt>
      <trkpt lat="44.94373" lon="1.136">
        <ele>220.3978803</ele>
        <time>2022-08-16T16:49:45Z</time>
      </trkpt>
      <trkpt lat="44.94373" lon="1.136">
        <ele>220.3226936</ele>
        <time>2022-08-16T16:49:47Z</time>
      </trkpt>
      <trkpt lat="44.94373" lon="1.136">
        <ele>220.3116776</ele>
        <time>2022-08-16T16:49:49Z</time>
      </trkpt>
      <trkpt lat="44.94373" lon="1.13599">
        <ele>219.8953502</ele>
        <time>2022-08-16T16:49:51Z</time>
      </trkpt>
      <trkpt lat="44.94372" lon="1.136">
        <ele>219.7503621</ele>
        <time>2022-08-16T16:49:55Z</time>
      </trkpt>
      <trkpt lat="44.94372" lon="1.136">
        <ele>219.8324554</ele>
        <time>2022-08-16T16:49:57Z</time>
      </trkpt>
      <trkpt lat="44.94372" lon="1.13599">
        <ele>219.9641232</ele>
        <time>2022-08-16T16:49:59Z</time>
      </trkpt>
      <trkpt lat="44.94373" lon="1.13599">
        <ele>219.7638951</ele>
        <time>2022-08-16T16:50:01Z</time>
      </trkpt>
      <trkpt lat="44.94373" lon="1.13599">
        <ele>219.9669149</ele>
        <time>2022-08-16T16:50:03Z</time>
      </trkpt>
      <trkpt lat="44.94373" lon="1.13599">
        <ele>220.2843287</ele>
        <time>2022-08-16T16:50:05Z</time>
      </trkpt>
      <trkpt lat="44.94372" lon="1.136">
        <ele>220.6824168</ele>
        <time>2022-08-16T16:50:07Z</time>
      </trkpt>
      <trkpt lat="44.94372" lon="1.136">
        <ele>220.1668765</ele>
        <time>2022-08-16T16:50:09Z</time>
      </trkpt>
      <trkpt lat="44.94374" lon="1.136">
        <ele>219.88742</ele>
        <time>2022-08-16T16:50:11Z</time>
      </trkpt>
      <trkpt lat="44.94376" lon="1.13599">
        <ele>219.8407645</ele>
        <time>2022-08-16T16:50:13Z</time>
      </trkpt>
      <trkpt lat="44.94377" lon="1.13597">
        <ele>220.1567928</ele>
        <time>2022-08-16T16:50:15Z</time>
      </trkpt>
      <trkpt lat="44.9438" lon="1.13596">
        <ele>220.283533</ele>
        <time>2022-08-16T16:50:17Z</time>
      </trkpt>
      <trkpt lat="44.94382" lon="1.13593">
        <ele>220.0158234</ele>
        <time>2022-08-16T16:50:19Z</time>
      </trkpt>
      <trkpt lat="44.94382" lon="1.13589">
        <ele>220.2340521</ele>
        <time>2022-08-16T16:50:21Z</time>
      </trkpt>
      <trkpt lat="44.94385" lon="1.13583">
        <ele>220.5137038</ele>
        <time>2022-08-16T16:50:23Z</time>
      </trkpt>
      <trkpt lat="44.94388" lon="1.13577">
        <ele>219.8914818</ele>
        <time>2022-08-16T16:50:25Z</time>
      </trkpt>
      <trkpt lat="44.9439" lon="1.13572">
        <ele>220.5724781</ele>
        <time>2022-08-16T16:50:27Z</time>
      </trkpt>
      <trkpt lat="44.94393" lon="1.13567">
        <ele>220.0711943</ele>
        <time>2022-08-16T16:50:29Z</time>
      </trkpt>
      <trkpt lat="44.94395" lon="1.13564">
        <ele>219.9352133</ele>
        <time>2022-08-16T16:50:31Z</time>
      </trkpt>
      <trkpt lat="44.94399" lon="1.1356">
        <ele>220.5603753</ele>
        <time>2022-08-16T16:50:33Z</time>
      </trkpt>
      <trkpt lat="44.94403" lon="1.13557">
        <ele>219.7588398</ele>
        <time>2022-08-16T16:50:35Z</time>
      </trkpt>
      <trkpt lat="44.94408" lon="1.13553">
        <ele>219.2937781</ele>
        <time>2022-08-16T16:50:37Z</time>
      </trkpt>
      <trkpt lat="44.94413" lon="1.13552">
        <ele>219.7522818</ele>
        <time>2022-08-16T16:50:39Z</time>
      </trkpt>
      <trkpt lat="44.94415" lon="1.13552">
        <ele>220.9638577</ele>
        <time>2022-08-16T16:50:41Z</time>
      </trkpt>
      <trkpt lat="44.94419" lon="1.13553">
        <ele>221.2314705</ele>
        <time>2022-08-16T16:50:43Z</time>
      </trkpt>
      <trkpt lat="44.94422" lon="1.13557">
        <ele>221.5597798</ele>
        <time>2022-08-16T16:50:45Z</time>
      </trkpt>
      <trkpt lat="44.94423" lon="1.13562">
        <ele>222.2356229</ele>
        <time>2022-08-16T16:50:47Z</time>
      </trkpt>
      <trkpt lat="44.94421" lon="1.13566">
        <ele>222.2986515</ele>
        <time>2022-08-16T16:50:49Z</time>
      </trkpt>
      <trkpt lat="44.94419" lon="1.13569">
        <ele>221.896374</ele>
        <time>2022-08-16T16:50:51Z</time>
      </trkpt>
      <trkpt lat="44.94415" lon="1.13571">
        <ele>222.394436</ele>
        <time>2022-08-16T16:50:53Z</time>
      </trkpt>
      <trkpt lat="44.94411" lon="1.13575">
        <ele>222.1885922</ele>
        <time>2022-08-16T16:50:55Z</time>
      </trkpt>
      <trkpt lat="44.94409" lon="1.13578">
        <ele>222.0682865</ele>
        <time>2022-08-16T16:50:57Z</time>
      </trkpt>
      <trkpt lat="44.94406" lon="1.1358">
        <ele>222.1901143</ele>
        <time>2022-08-16T16:50:59Z</time>
      </trkpt>
      <trkpt lat="44.94404" lon="1.13579">
        <ele>221.9215091</ele>
        <time>2022-08-16T16:51:01Z</time>
      </trkpt>
      <trkpt lat="44.944" lon="1.13579">
        <ele>221.6009063</ele>
        <time>2022-08-16T16:51:03Z</time>
      </trkpt>
      <trkpt lat="44.94397" lon="1.13579">
        <ele>221.6520207</ele>
        <time>2022-08-16T16:51:05Z</time>
      </trkpt>
      <trkpt lat="44.94396" lon="1.13579">
        <ele>221.9098689</ele>
        <time>2022-08-16T16:51:07Z</time>
      </trkpt>
      <trkpt lat="44.94392" lon="1.13578">
        <ele>221.304758</ele>
        <time>2022-08-16T16:51:09Z</time>
      </trkpt>
      <trkpt lat="44.94391" lon="1.13575">
        <ele>220.7905184</ele>
        <time>2022-08-16T16:51:11Z</time>
      </trkpt>
      <trkpt lat="44.9439" lon="1.1357">
        <ele>219.9590375</ele>
        <time>2022-08-16T16:51:13Z</time>
      </trkpt>
      <trkpt lat="44.9439" lon="1.13568">
        <ele>219.3328043</ele>
        <time>2022-08-16T16:51:15Z</time>
      </trkpt>
      <trkpt lat="44.94388" lon="1.1357">
        <ele>218.5757026</ele>
        <time>2022-08-16T16:51:17Z</time>
      </trkpt>
      <trkpt lat="44.94388" lon="1.13567">
        <ele>219.3540292</ele>
        <time>2022-08-16T16:51:19Z</time>
      </trkpt>
      <trkpt lat="44.94389" lon="1.13568">
        <ele>219.6402868</ele>
        <time>2022-08-16T16:51:21Z</time>
      </trkpt>
      <trkpt lat="44.9439" lon="1.13568">
        <ele>219.7486543</ele>
        <time>2022-08-16T16:51:23Z</time>
      </trkpt>
      <trkpt lat="44.94391" lon="1.13567">
        <ele>219.7468797</ele>
        <time>2022-08-16T16:51:25Z</time>
      </trkpt>
      <trkpt lat="44.94392" lon="1.13567">
        <ele>220.6837888</ele>
        <time>2022-08-16T16:51:27Z</time>
      </trkpt>
      <trkpt lat="44.94393" lon="1.13567">
        <ele>221.1055939</ele>
        <time>2022-08-16T16:51:29Z</time>
      </trkpt>
      <trkpt lat="44.94393" lon="1.13568">
        <ele>222.0583739</ele>
        <time>2022-08-16T16:51:31Z</time>
      </trkpt>
      <trkpt lat="44.94392" lon="1.13567">
        <ele>221.3987148</ele>
        <time>2022-08-16T16:51:33Z</time>
      </trkpt>
      <trkpt lat="44.94392" lon="1.13567">
        <ele>221.7188797</ele>
        <time>2022-08-16T16:51:35Z</time>
      </trkpt>
      <trkpt lat="44.94392" lon="1.13568">
        <ele>221.5621504</ele>
        <time>2022-08-16T16:51:37Z</time>
      </trkpt>
      <trkpt lat="44.94393" lon="1.13567">
        <ele>222.4654728</ele>
        <time>2022-08-16T16:51:39Z</time>
      </trkpt>
      <trkpt lat="44.94392" lon="1.13567">
        <ele>221.9432623</ele>
        <time>2022-08-16T16:51:41Z</time>
      </trkpt>
      <trkpt lat="44.94392" lon="1.13567">
        <ele>221.6737192</ele>
        <time>2022-08-16T16:51:43Z</time>
      </trkpt>
      <trkpt lat="44.94392" lon="1.13567">
        <ele>221.7991621</ele>
        <time>2022-08-16T16:51:45Z</time>
      </trkpt>
      <trkpt lat="44.94392" lon="1.13567">
        <ele>221.522053</ele>
        <time>2022-08-16T16:51:47Z</time>
      </trkpt>
      <trkpt lat="44.94392" lon="1.13566">
        <ele>221.7756692</ele>
        <time>2022-08-16T16:51:49Z</time>
      </trkpt>
      <trkpt lat="44.94392" lon="1.13567">
        <ele>221.5120819</ele>
        <time>2022-08-16T16:51:51Z</time>
      </trkpt>
      <trkpt lat="44.94392" lon="1.13567">
        <ele>221.7077733</ele>
        <time>2022-08-16T16:51:53Z</time>
      </trkpt>
      <trkpt lat="44.94392" lon="1.13567">
        <ele>221.7217058</ele>
        <time>2022-08-16T16:51:55Z</time>
      </trkpt>
      <trkpt lat="44.94393" lon="1.13567">
        <ele>222.6444445</ele>
        <time>2022-08-16T16:51:57Z</time>
      </trkpt>
      <trkpt lat="44.94393" lon="1.13567">
        <ele>222.9417729</ele>
        <time>2022-08-16T16:52:01Z</time>
      </trkpt>
      <trkpt lat="44.94392" lon="1.13567">
        <ele>223.0863568</ele>
        <time>2022-08-16T16:52:03Z</time>
      </trkpt>
      <trkpt lat="44.94393" lon="1.13567">
        <ele>222.908657</ele>
        <time>2022-08-16T16:52:05Z</time>
      </trkpt>
      <trkpt lat="44.94392" lon="1.13567">
        <ele>223.0485417</ele>
        <time>2022-08-16T16:52:07Z</time>
      </trkpt>
      <trkpt lat="44.94391" lon="1.13567">
        <ele>222.3664137</ele>
        <time>2022-08-16T16:52:09Z</time>
      </trkpt>
      <trkpt lat="44.94391" lon="1.13565">
        <ele>221.0195397</ele>
        <time>2022-08-16T16:52:11Z</time>
      </trkpt>
      <trkpt lat="44.94391" lon="1.13566">
        <ele>221.9023253</ele>
        <time>2022-08-16T16:52:13Z</time>
      </trkpt>
      <trkpt lat="44.94391" lon="1.13567">
        <ele>221.919873</ele>
        <time>2022-08-16T16:52:15Z</time>
      </trkpt>
      <trkpt lat="44.94391" lon="1.13566">
        <ele>221.4122686</ele>
        <time>2022-08-16T16:52:17Z</time>
      </trkpt>
      <trkpt lat="44.94391" lon="1.13566">
        <ele>221.4121228</ele>
        <time>2022-08-16T16:52:19Z</time>
      </trkpt>
      <trkpt lat="44.94391" lon="1.13566">
        <ele>221.4121228</ele>
        <time>2022-08-16T16:52:23Z</time>
      </trkpt>
      <trkpt lat="44.94391" lon="1.13566">
        <ele>221.4121228</ele>
        <time>2022-08-16T16:52:27Z</time>
      </trkpt>
      <trkpt lat="44.94391" lon="1.13566">
        <ele>218.967947</ele>
        <time>2022-08-16T16:52:31Z</time>
      </trkpt>
      <trkpt lat="44.94391" lon="1.13566">
        <ele>218.967947</ele>
        <time>2022-08-16T16:52:35Z</time>
      </trkpt>
      <trkpt lat="44.94391" lon="1.13566">
        <ele>218.967947</ele>
        <time>2022-08-16T16:52:39Z</time>
      </trkpt>
      <trkpt lat="44.94391" lon="1.13566">
        <ele>218.967947</ele>
        <time>2022-08-16T16:52:43Z</time>
      </trkpt>
      <trkpt lat="44.94391" lon="1.13566">
        <ele>218.967947</ele>
        <time>2022-08-16T16:52:47Z</time>
      </trkpt>
      <trkpt lat="44.94391" lon="1.13566">
        <ele>218.967947</ele>
        <time>2022-08-16T16:52:51Z</time>
      </trkpt>
      <trkpt lat="44.94391" lon="1.13566">
        <ele>218.967947</ele>
        <time>2022-08-16T16:52:55Z</time>
      </trkpt>
      <trkpt lat="44.94391" lon="1.13566">
        <ele>218.967947</ele>
        <time>2022-08-16T16:52:59Z</time>
      </trkpt>
      <trkpt lat="44.94391" lon="1.13566">
        <ele>218.967947</ele>
        <time>2022-08-16T16:53:03Z</time>
      </trkpt>
      <trkpt lat="44.94391" lon="1.13566">
        <ele>218.967947</ele>
        <time>2022-08-16T16:53:07Z</time>
      </trkpt>
      <trkpt lat="44.94391" lon="1.13566">
        <ele>218.967947</ele>
        <time>2022-08-16T16:53:11Z</time>
      </trkpt>
      <trkpt lat="44.94391" lon="1.13566">
        <ele>218.967947</ele>
        <time>2022-08-16T16:53:15Z</time>
      </trkpt>
      <trkpt lat="44.94391" lon="1.13566">
        <ele>218.967947</ele>
        <time>2022-08-16T16:53:19Z</time>
      </trkpt>
      <trkpt lat="44.94391" lon="1.13566">
        <ele>218.967947</ele>
        <time>2022-08-16T16:53:23Z</time>
      </trkpt>
      <trkpt lat="44.94391" lon="1.13566">
        <ele>218.967947</ele>
        <time>2022-08-16T16:53:27Z</time>
      </trkpt>
      <trkpt lat="44.94391" lon="1.13566">
        <ele>218.967947</ele>
        <time>2022-08-16T16:53:31Z</time>
      </trkpt>
      <trkpt lat="44.94391" lon="1.13566">
        <ele>218.967947</ele>
        <time>2022-08-16T16:53:35Z</time>
      </trkpt>
      <trkpt lat="44.94391" lon="1.13566">
        <ele>218.967947</ele>
        <time>2022-08-16T16:53:39Z</time>
      </trkpt>
      <trkpt lat="44.94391" lon="1.13566">
        <ele>218.967947</ele>
        <time>2022-08-16T16:53:43Z</time>
      </trkpt>
      <trkpt lat="44.94391" lon="1.13566">
        <ele>218.967947</ele>
        <time>2022-08-16T16:53:47Z</time>
      </trkpt>
      <trkpt lat="44.94391" lon="1.13566">
        <ele>218.967947</ele>
        <time>2022-08-16T16:53:51Z</time>
      </trkpt>
      <trkpt lat="44.94391" lon="1.13566">
        <ele>218.967947</ele>
        <time>2022-08-16T16:53:55Z</time>
      </trkpt>
      <trkpt lat="44.94391" lon="1.13566">
        <ele>218.967947</ele>
        <time>2022-08-16T16:53:59Z</time>
      </trkpt>
      <trkpt lat="44.94391" lon="1.13566">
        <ele>218.967947</ele>
        <time>2022-08-16T16:54:03Z</time>
      </trkpt>
      <trkpt lat="44.94391" lon="1.13566">
        <ele>218.967947</ele>
        <time>2022-08-16T16:54:07Z</time>
      </trkpt>
      <trkpt lat="44.94391" lon="1.13566">
        <ele>218.967947</ele>
        <time>2022-08-16T16:54:11Z</time>
      </trkpt>
      <trkpt lat="44.94391" lon="1.13566">
        <ele>218.967947</ele>
        <time>2022-08-16T16:54:15Z</time>
      </trkpt>
      <trkpt lat="44.94391" lon="1.13566">
        <ele>218.967947</ele>
        <time>2022-08-16T16:54:19Z</time>
      </trkpt>
      <trkpt lat="44.94391" lon="1.13566">
        <ele>218.967947</ele>
        <time>2022-08-16T16:54:23Z</time>
      </trkpt>
      <trkpt lat="44.94391" lon="1.13566">
        <ele>218.967947</ele>
        <time>2022-08-16T16:54:27Z</time>
      </trkpt>
      <trkpt lat="44.94391" lon="1.13566">
        <ele>218.967947</ele>
        <time>2022-08-16T16:54:31Z</time>
      </trkpt>
      <trkpt lat="44.94391" lon="1.13566">
        <ele>218.967947</ele>
        <time>2022-08-16T16:54:35Z</time>
      </trkpt>
      <trkpt lat="44.94391" lon="1.13566">
        <ele>218.967947</ele>
        <time>2022-08-16T16:54:39Z</time>
      </trkpt>
      <trkpt lat="44.94391" lon="1.13566">
        <ele>218.967947</ele>
        <time>2022-08-16T16:54:43Z</time>
      </trkpt>
      <trkpt lat="44.94391" lon="1.13566">
        <ele>218.967947</ele>
        <time>2022-08-16T16:54:47Z</time>
      </trkpt>
      <trkpt lat="44.94391" lon="1.13566">
        <ele>218.967947</ele>
        <time>2022-08-16T16:54:51Z</time>
      </trkpt>
      <trkpt lat="44.94391" lon="1.13566">
        <ele>218.967947</ele>
        <time>2022-08-16T16:54:55Z</time>
      </trkpt>
      <trkpt lat="44.94391" lon="1.13566">
        <ele>218.967947</ele>
        <time>2022-08-16T16:54:59Z</time>
      </trkpt>
      <trkpt lat="44.94391" lon="1.13566">
        <ele>218.967947</ele>
        <time>2022-08-16T16:55:03Z</time>
      </trkpt>
      <trkpt lat="44.94391" lon="1.13566">
        <ele>218.967947</ele>
        <time>2022-08-16T16:55:07Z</time>
      </trkpt>
      <trkpt lat="44.94391" lon="1.13566">
        <ele>218.967947</ele>
        <time>2022-08-16T16:55:11Z</time>
      </trkpt>
      <trkpt lat="44.94391" lon="1.13566">
        <ele>218.967947</ele>
        <time>2022-08-16T16:55:15Z</time>
      </trkpt>
      <trkpt lat="44.94391" lon="1.13566">
        <ele>218.967947</ele>
        <time>2022-08-16T16:55:19Z</time>
      </trkpt>
      <trkpt lat="44.94391" lon="1.13566">
        <ele>218.967947</ele>
        <time>2022-08-16T16:55:23Z</time>
      </trkpt>
      <trkpt lat="44.94391" lon="1.13566">
        <ele>218.967947</ele>
        <time>2022-08-16T16:55:27Z</time>
      </trkpt>
      <trkpt lat="44.94391" lon="1.13566">
        <ele>218.967947</ele>
        <time>2022-08-16T16:55:31Z</time>
      </trkpt>
      <trkpt lat="44.94391" lon="1.13566">
        <ele>218.967947</ele>
        <time>2022-08-16T16:55:35Z</time>
      </trkpt>
      <trkpt lat="44.94391" lon="1.13566">
        <ele>218.967947</ele>
        <time>2022-08-16T16:55:39Z</time>
      </trkpt>
      <trkpt lat="44.94391" lon="1.13566">
        <ele>218.967947</ele>
        <time>2022-08-16T16:55:43Z</time>
      </trkpt>
      <trkpt lat="44.94391" lon="1.13566">
        <ele>218.967947</ele>
        <time>2022-08-16T16:55:47Z</time>
      </trkpt>
      <trkpt lat="44.94391" lon="1.13566">
        <ele>218.967947</ele>
        <time>2022-08-16T16:55:51Z</time>
      </trkpt>
      <trkpt lat="44.94391" lon="1.13566">
        <ele>218.967947</ele>
        <time>2022-08-16T16:55:55Z</time>
      </trkpt>
      <trkpt lat="44.94391" lon="1.13566">
        <ele>218.967947</ele>
        <time>2022-08-16T16:55:59Z</time>
      </trkpt>
      <trkpt lat="44.94391" lon="1.13566">
        <ele>218.967947</ele>
        <time>2022-08-16T16:56:03Z</time>
      </trkpt>
      <trkpt lat="44.94391" lon="1.13566">
        <ele>218.967947</ele>
        <time>2022-08-16T16:56:07Z</time>
      </trkpt>
      <trkpt lat="44.94391" lon="1.13566">
        <ele>218.967947</ele>
        <time>2022-08-16T16:56:11Z</time>
      </trkpt>
      <trkpt lat="44.94391" lon="1.13566">
        <ele>218.967947</ele>
        <time>2022-08-16T16:56:15Z</time>
      </trkpt>
      <trkpt lat="44.94391" lon="1.13566">
        <ele>218.967947</ele>
        <time>2022-08-16T16:56:19Z</time>
      </trkpt>
      <trkpt lat="44.94391" lon="1.13566">
        <ele>218.967947</ele>
        <time>2022-08-16T16:56:23Z</time>
      </trkpt>
      <trkpt lat="44.94391" lon="1.13566">
        <ele>218.967947</ele>
        <time>2022-08-16T16:56:27Z</time>
      </trkpt>
      <trkpt lat="44.94391" lon="1.13566">
        <ele>218.967947</ele>
        <time>2022-08-16T16:56:31Z</time>
      </trkpt>
      <trkpt lat="44.94391" lon="1.13566">
        <ele>218.967947</ele>
        <time>2022-08-16T16:56:35Z</time>
      </trkpt>
      <trkpt lat="44.94391" lon="1.13566">
        <ele>218.967947</ele>
        <time>2022-08-16T16:56:39Z</time>
      </trkpt>
      <trkpt lat="44.94391" lon="1.13566">
        <ele>218.967947</ele>
        <time>2022-08-16T16:56:43Z</time>
      </trkpt>
      <trkpt lat="44.94391" lon="1.13566">
        <ele>218.967947</ele>
        <time>2022-08-16T16:56:47Z</time>
      </trkpt>
      <trkpt lat="44.94391" lon="1.13566">
        <ele>218.967947</ele>
        <time>2022-08-16T16:56:51Z</time>
      </trkpt>
      <trkpt lat="44.94391" lon="1.13566">
        <ele>218.967947</ele>
        <time>2022-08-16T16:56:55Z</time>
      </trkpt>
      <trkpt lat="44.94391" lon="1.13566">
        <ele>218.967947</ele>
        <time>2022-08-16T16:56:59Z</time>
      </trkpt>
      <trkpt lat="44.94391" lon="1.13566">
        <ele>218.967947</ele>
        <time>2022-08-16T16:57:03Z</time>
      </trkpt>
      <trkpt lat="44.94391" lon="1.13566">
        <ele>218.967947</ele>
        <time>2022-08-16T16:57:07Z</time>
      </trkpt>
      <trkpt lat="44.94391" lon="1.13566">
        <ele>218.967947</ele>
        <time>2022-08-16T16:57:11Z</time>
      </trkpt>
      <trkpt lat="44.94391" lon="1.13566">
        <ele>218.967947</ele>
        <time>2022-08-16T16:57:15Z</time>
      </trkpt>
      <trkpt lat="44.94391" lon="1.13566">
        <ele>218.967947</ele>
        <time>2022-08-16T16:57:19Z</time>
      </trkpt>
      <trkpt lat="44.94391" lon="1.13566">
        <ele>218.967947</ele>
        <time>2022-08-16T16:57:23Z</time>
      </trkpt>
      <trkpt lat="44.94391" lon="1.13566">
        <ele>218.967947</ele>
        <time>2022-08-16T16:57:27Z</time>
      </trkpt>
      <trkpt lat="44.94391" lon="1.13566">
        <ele>218.967947</ele>
        <time>2022-08-16T16:57:31Z</time>
      </trkpt>
      <trkpt lat="44.94391" lon="1.13566">
        <ele>218.967947</ele>
        <time>2022-08-16T16:57:35Z</time>
      </trkpt>
      <trkpt lat="44.94391" lon="1.13566">
        <ele>218.967947</ele>
        <time>2022-08-16T16:57:39Z</time>
      </trkpt>
      <trkpt lat="44.94391" lon="1.13566">
        <ele>218.967947</ele>
        <time>2022-08-16T16:57:43Z</time>
      </trkpt>
      <trkpt lat="44.94391" lon="1.13566">
        <ele>218.967947</ele>
        <time>2022-08-16T16:57:47Z</time>
      </trkpt>
      <trkpt lat="44.94391" lon="1.13566">
        <ele>218.967947</ele>
        <time>2022-08-16T16:57:51Z</time>
      </trkpt>
      <trkpt lat="44.94391" lon="1.13566">
        <ele>218.967947</ele>
        <time>2022-08-16T16:57:55Z</time>
      </trkpt>
      <trkpt lat="44.94391" lon="1.13566">
        <ele>218.967947</ele>
        <time>2022-08-16T16:57:59Z</time>
      </trkpt>
      <trkpt lat="44.94391" lon="1.13566">
        <ele>218.967947</ele>
        <time>2022-08-16T16:58:03Z</time>
      </trkpt>
      <trkpt lat="44.94391" lon="1.13566">
        <ele>218.967947</ele>
        <time>2022-08-16T16:58:07Z</time>
      </trkpt>
      <trkpt lat="44.94391" lon="1.13566">
        <ele>218.967947</ele>
        <time>2022-08-16T16:58:11Z</time>
      </trkpt>
      <trkpt lat="44.94391" lon="1.13566">
        <ele>218.967947</ele>
        <time>2022-08-16T16:58:15Z</time>
      </trkpt>
      <trkpt lat="44.94391" lon="1.13566">
        <ele>218.967947</ele>
        <time>2022-08-16T16:58:19Z</time>
      </trkpt>
      <trkpt lat="44.94391" lon="1.13566">
        <ele>218.967947</ele>
        <time>2022-08-16T16:58:23Z</time>
      </trkpt>
      <trkpt lat="44.94391" lon="1.13566">
        <ele>218.967947</ele>
        <time>2022-08-16T16:58:27Z</time>
      </trkpt>
      <trkpt lat="44.94391" lon="1.13566">
        <ele>218.967947</ele>
        <time>2022-08-16T16:58:31Z</time>
      </trkpt>
      <trkpt lat="44.94391" lon="1.13566">
        <ele>218.967947</ele>
        <time>2022-08-16T16:58:35Z</time>
      </trkpt>
      <trkpt lat="44.94391" lon="1.13566">
        <ele>218.967947</ele>
        <time>2022-08-16T16:58:39Z</time>
      </trkpt>
      <trkpt lat="44.94391" lon="1.13566">
        <ele>218.967947</ele>
        <time>2022-08-16T16:58:43Z</time>
      </trkpt>
      <trkpt lat="44.94391" lon="1.13566">
        <ele>218.967947</ele>
        <time>2022-08-16T16:58:47Z</time>
      </trkpt>
      <trkpt lat="44.94391" lon="1.13566">
        <ele>218.967947</ele>
        <time>2022-08-16T16:58:51Z</time>
      </trkpt>
      <trkpt lat="44.94391" lon="1.13566">
        <ele>218.967947</ele>
        <time>2022-08-16T16:58:55Z</time>
      </trkpt>
      <trkpt lat="44.94391" lon="1.13566">
        <ele>218.967947</ele>
        <time>2022-08-16T16:58:59Z</time>
      </trkpt>
      <trkpt lat="44.94391" lon="1.13566">
        <ele>218.967947</ele>
        <time>2022-08-16T16:59:03Z</time>
      </trkpt>
      <trkpt lat="44.94391" lon="1.13566">
        <ele>218.967947</ele>
        <time>2022-08-16T16:59:07Z</time>
      </trkpt>
      <trkpt lat="44.94391" lon="1.13566">
        <ele>218.967947</ele>
        <time>2022-08-16T16:59:11Z</time>
      </trkpt>
      <trkpt lat="44.94391" lon="1.13566">
        <ele>218.967947</ele>
        <time>2022-08-16T16:59:15Z</time>
      </trkpt>
      <trkpt lat="44.94391" lon="1.13566">
        <ele>218.967947</ele>
        <time>2022-08-16T16:59:19Z</time>
      </trkpt>
      <trkpt lat="44.94391" lon="1.13566">
        <ele>218.967947</ele>
        <time>2022-08-16T16:59:23Z</time>
      </trkpt>
      <trkpt lat="44.94391" lon="1.13566">
        <ele>218.967947</ele>
        <time>2022-08-16T16:59:27Z</time>
      </trkpt>
      <trkpt lat="44.94391" lon="1.13566">
        <ele>218.967947</ele>
        <time>2022-08-16T16:59:31Z</time>
      </trkpt>
      <trkpt lat="44.94391" lon="1.13566">
        <ele>218.967947</ele>
        <time>2022-08-16T16:59:35Z</time>
      </trkpt>
      <trkpt lat="44.94391" lon="1.13566">
        <ele>218.967947</ele>
        <time>2022-08-16T16:59:39Z</time>
      </trkpt>
      <trkpt lat="44.94391" lon="1.13566">
        <ele>218.967947</ele>
        <time>2022-08-16T16:59:43Z</time>
      </trkpt>
      <trkpt lat="44.94391" lon="1.13566">
        <ele>218.967947</ele>
        <time>2022-08-16T16:59:47Z</time>
      </trkpt>
      <trkpt lat="44.94391" lon="1.13566">
        <ele>218.967947</ele>
        <time>2022-08-16T16:59:51Z</time>
      </trkpt>
      <trkpt lat="44.94391" lon="1.13566">
        <ele>218.967947</ele>
        <time>2022-08-16T16:59:55Z</time>
      </trkpt>
      <trkpt lat="44.94391" lon="1.13566">
        <ele>218.967947</ele>
        <time>2022-08-16T16:59:59Z</time>
      </trkpt>
      <trkpt lat="44.94391" lon="1.13566">
        <ele>218.967947</ele>
        <time>2022-08-16T17:00:03Z</time>
      </trkpt>
      <trkpt lat="44.94391" lon="1.13566">
        <ele>218.967947</ele>
        <time>2022-08-16T17:00:07Z</time>
      </trkpt>
      <trkpt lat="44.94391" lon="1.13566">
        <ele>218.967947</ele>
        <time>2022-08-16T17:00:11Z</time>
      </trkpt>
      <trkpt lat="44.94391" lon="1.13566">
        <ele>218.967947</ele>
        <time>2022-08-16T17:00:15Z</time>
      </trkpt>
      <trkpt lat="44.94391" lon="1.13566">
        <ele>218.967947</ele>
        <time>2022-08-16T17:00:19Z</time>
      </trkpt>
      <trkpt lat="44.94391" lon="1.13566">
        <ele>218.967947</ele>
        <time>2022-08-16T17:00:23Z</time>
      </trkpt>
      <trkpt lat="44.94391" lon="1.13566">
        <ele>218.967947</ele>
        <time>2022-08-16T17:00:27Z</time>
      </trkpt>
      <trkpt lat="44.94391" lon="1.13566">
        <ele>218.967947</ele>
        <time>2022-08-16T17:00:31Z</time>
      </trkpt>
      <trkpt lat="44.94391" lon="1.13566">
        <ele>218.967947</ele>
        <time>2022-08-16T17:00:35Z</time>
      </trkpt>
      <trkpt lat="44.94391" lon="1.13566">
        <ele>218.967947</ele>
        <time>2022-08-16T17:00:39Z</time>
      </trkpt>
      <trkpt lat="44.94391" lon="1.13566">
        <ele>218.967947</ele>
        <time>2022-08-16T17:00:43Z</time>
      </trkpt>
      <trkpt lat="44.94391" lon="1.13566">
        <ele>218.967947</ele>
        <time>2022-08-16T17:00:47Z</time>
      </trkpt>
      <trkpt lat="44.94391" lon="1.13566">
        <ele>218.967947</ele>
        <time>2022-08-16T17:00:51Z</time>
      </trkpt>
      <trkpt lat="44.94391" lon="1.13566">
        <ele>218.967947</ele>
        <time>2022-08-16T17:00:55Z</time>
      </trkpt>
      <trkpt lat="44.94391" lon="1.13566">
        <ele>218.967947</ele>
        <time>2022-08-16T17:00:59Z</time>
      </trkpt>
      <trkpt lat="44.94391" lon="1.13566">
        <ele>218.967947</ele>
        <time>2022-08-16T17:01:03Z</time>
      </trkpt>
      <trkpt lat="44.94391" lon="1.13566">
        <ele>218.967947</ele>
        <time>2022-08-16T17:01:07Z</time>
      </trkpt>
      <trkpt lat="44.94391" lon="1.13566">
        <ele>218.967947</ele>
        <time>2022-08-16T17:01:11Z</time>
      </trkpt>
      <trkpt lat="44.94391" lon="1.13566">
        <ele>218.967947</ele>
        <time>2022-08-16T17:01:15Z</time>
      </trkpt>
      <trkpt lat="44.94391" lon="1.13566">
        <ele>218.967947</ele>
        <time>2022-08-16T17:01:19Z</time>
      </trkpt>
      <trkpt lat="44.94391" lon="1.13566">
        <ele>218.967947</ele>
        <time>2022-08-16T17:01:23Z</time>
      </trkpt>
      <trkpt lat="44.94391" lon="1.13566">
        <ele>218.967947</ele>
        <time>2022-08-16T17:01:27Z</time>
      </trkpt>
      <trkpt lat="44.94391" lon="1.13566">
        <ele>218.967947</ele>
        <time>2022-08-16T17:01:31Z</time>
      </trkpt>
      <trkpt lat="44.94391" lon="1.13566">
        <ele>218.967947</ele>
        <time>2022-08-16T17:01:35Z</time>
      </trkpt>
      <trkpt lat="44.94391" lon="1.13566">
        <ele>218.967947</ele>
        <time>2022-08-16T17:01:39Z</time>
      </trkpt>
      <trkpt lat="44.94391" lon="1.13566">
        <ele>218.967947</ele>
        <time>2022-08-16T17:01:43Z</time>
      </trkpt>
      <trkpt lat="44.94391" lon="1.13566">
        <ele>218.967947</ele>
        <time>2022-08-16T17:01:47Z</time>
      </trkpt>
      <trkpt lat="44.94391" lon="1.13566">
        <ele>218.967947</ele>
        <time>2022-08-16T17:01:51Z</time>
      </trkpt>
      <trkpt lat="44.94391" lon="1.13566">
        <ele>218.967947</ele>
        <time>2022-08-16T17:01:55Z</time>
      </trkpt>
      <trkpt lat="44.94391" lon="1.13566">
        <ele>218.967947</ele>
        <time>2022-08-16T17:01:59Z</time>
      </trkpt>
      <trkpt lat="44.94391" lon="1.13566">
        <ele>218.967947</ele>
        <time>2022-08-16T17:02:03Z</time>
      </trkpt>
      <trkpt lat="44.94391" lon="1.13566">
        <ele>218.967947</ele>
        <time>2022-08-16T17:02:07Z</time>
      </trkpt>
      <trkpt lat="44.94391" lon="1.13566">
        <ele>218.967947</ele>
        <time>2022-08-16T17:02:11Z</time>
      </trkpt>
      <trkpt lat="44.94391" lon="1.13566">
        <ele>218.967947</ele>
        <time>2022-08-16T17:02:15Z</time>
      </trkpt>
      <trkpt lat="44.94391" lon="1.13566">
        <ele>218.967947</ele>
        <time>2022-08-16T17:02:19Z</time>
      </trkpt>
      <trkpt lat="44.94391" lon="1.13566">
        <ele>218.967947</ele>
        <time>2022-08-16T17:02:23Z</time>
      </trkpt>
      <trkpt lat="44.94391" lon="1.13566">
        <ele>218.967947</ele>
        <time>2022-08-16T17:02:27Z</time>
      </trkpt>
      <trkpt lat="44.94391" lon="1.13566">
        <ele>218.967947</ele>
        <time>2022-08-16T17:02:31Z</time>
      </trkpt>
      <trkpt lat="44.94391" lon="1.13566">
        <ele>218.967947</ele>
        <time>2022-08-16T17:02:35Z</time>
      </trkpt>
      <trkpt lat="44.94391" lon="1.13566">
        <ele>218.967947</ele>
        <time>2022-08-16T17:02:39Z</time>
      </trkpt>
      <trkpt lat="44.94391" lon="1.13566">
        <ele>218.967947</ele>
        <time>2022-08-16T17:02:43Z</time>
      </trkpt>
      <trkpt lat="44.94391" lon="1.13566">
        <ele>218.967947</ele>
        <time>2022-08-16T17:02:47Z</time>
      </trkpt>
      <trkpt lat="44.94391" lon="1.13566">
        <ele>218.967947</ele>
        <time>2022-08-16T17:02:51Z</time>
      </trkpt>
      <trkpt lat="44.94391" lon="1.13566">
        <ele>218.967947</ele>
        <time>2022-08-16T17:02:55Z</time>
      </trkpt>
      <trkpt lat="44.94391" lon="1.13566">
        <ele>218.967947</ele>
        <time>2022-08-16T17:02:59Z</time>
      </trkpt>
      <trkpt lat="44.94391" lon="1.13566">
        <ele>218.967947</ele>
        <time>2022-08-16T17:03:03Z</time>
      </trkpt>
      <trkpt lat="44.94391" lon="1.13566">
        <ele>218.967947</ele>
        <time>2022-08-16T17:03:07Z</time>
      </trkpt>
      <trkpt lat="44.94391" lon="1.13566">
        <ele>218.967947</ele>
        <time>2022-08-16T17:03:11Z</time>
      </trkpt>
      <trkpt lat="44.94391" lon="1.13566">
        <ele>218.967947</ele>
        <time>2022-08-16T17:03:15Z</time>
      </trkpt>
      <trkpt lat="44.94391" lon="1.13566">
        <ele>218.967947</ele>
        <time>2022-08-16T17:03:19Z</time>
      </trkpt>
      <trkpt lat="44.94391" lon="1.13566">
        <ele>218.967947</ele>
        <time>2022-08-16T17:03:23Z</time>
      </trkpt>
      <trkpt lat="44.94391" lon="1.13566">
        <ele>218.967947</ele>
        <time>2022-08-16T17:03:27Z</time>
      </trkpt>
      <trkpt lat="44.94391" lon="1.13566">
        <ele>218.967947</ele>
        <time>2022-08-16T17:03:31Z</time>
      </trkpt>
      <trkpt lat="44.94391" lon="1.13566">
        <ele>218.967947</ele>
        <time>2022-08-16T17:03:35Z</time>
      </trkpt>
      <trkpt lat="44.94391" lon="1.13567">
        <ele>223.0135984</ele>
        <time>2022-08-16T17:03:37Z</time>
      </trkpt>
      <trkpt lat="44.94391" lon="1.13567">
        <ele>223.16339</ele>
        <time>2022-08-16T17:03:39Z</time>
      </trkpt>
      <trkpt lat="44.94391" lon="1.13567">
        <ele>223.721458</ele>
        <time>2022-08-16T17:03:41Z</time>
      </trkpt>
      <trkpt lat="44.94391" lon="1.13567">
        <ele>223.7226087</ele>
        <time>2022-08-16T17:03:43Z</time>
      </trkpt>
      <trkpt lat="44.94391" lon="1.13567">
        <ele>223.7226087</ele>
        <time>2022-08-16T17:03:47Z</time>
      </trkpt>
      <trkpt lat="44.94391" lon="1.13567">
        <ele>223.7226087</ele>
        <time>2022-08-16T17:03:51Z</time>
      </trkpt>
      <trkpt lat="44.94391" lon="1.13567">
        <ele>223.7226087</ele>
        <time>2022-08-16T17:03:55Z</time>
      </trkpt>
      <trkpt lat="44.94391" lon="1.13567">
        <ele>223.7226087</ele>
        <time>2022-08-16T17:03:59Z</time>
      </trkpt>
      <trkpt lat="44.94391" lon="1.13567">
        <ele>223.7226087</ele>
        <time>2022-08-16T17:04:03Z</time>
      </trkpt>
      <trkpt lat="44.94391" lon="1.13567">
        <ele>223.7226087</ele>
        <time>2022-08-16T17:04:07Z</time>
      </trkpt>
      <trkpt lat="44.94391" lon="1.13567">
        <ele>223.7226087</ele>
        <time>2022-08-16T17:04:11Z</time>
      </trkpt>
      <trkpt lat="44.94391" lon="1.13567">
        <ele>223.7226087</ele>
        <time>2022-08-16T17:04:15Z</time>
      </trkpt>
      <trkpt lat="44.94391" lon="1.13567">
        <ele>223.7226087</ele>
        <time>2022-08-16T17:04:19Z</time>
      </trkpt>
      <trkpt lat="44.94391" lon="1.13567">
        <ele>223.7226087</ele>
        <time>2022-08-16T17:04:23Z</time>
      </trkpt>
      <trkpt lat="44.94391" lon="1.13567">
        <ele>223.7226087</ele>
        <time>2022-08-16T17:04:27Z</time>
      </trkpt>
      <trkpt lat="44.94391" lon="1.13567">
        <ele>223.7226087</ele>
        <time>2022-08-16T17:04:31Z</time>
      </trkpt>
      <trkpt lat="44.94391" lon="1.13567">
        <ele>223.7226087</ele>
        <time>2022-08-16T17:04:35Z</time>
      </trkpt>
      <trkpt lat="44.94391" lon="1.13567">
        <ele>223.7226087</ele>
        <time>2022-08-16T17:04:39Z</time>
      </trkpt>
      <trkpt lat="44.94391" lon="1.13567">
        <ele>223.7226087</ele>
        <time>2022-08-16T17:04:43Z</time>
      </trkpt>
      <trkpt lat="44.94391" lon="1.13567">
        <ele>223.7226087</ele>
        <time>2022-08-16T17:04:47Z</time>
      </trkpt>
      <trkpt lat="44.94391" lon="1.13567">
        <ele>223.7226087</ele>
        <time>2022-08-16T17:04:51Z</time>
      </trkpt>
      <trkpt lat="44.94391" lon="1.13567">
        <ele>223.7226087</ele>
        <time>2022-08-16T17:04:55Z</time>
      </trkpt>
      <trkpt lat="44.94391" lon="1.13567">
        <ele>223.7226087</ele>
        <time>2022-08-16T17:04:59Z</time>
      </trkpt>
      <trkpt lat="44.94391" lon="1.13567">
        <ele>223.7226087</ele>
        <time>2022-08-16T17:05:03Z</time>
      </trkpt>
      <trkpt lat="44.94391" lon="1.13567">
        <ele>223.7226087</ele>
        <time>2022-08-16T17:05:07Z</time>
      </trkpt>
      <trkpt lat="44.94391" lon="1.13564">
        <ele>220.505535</ele>
        <time>2022-08-16T17:05:11Z</time>
      </trkpt>
      <trkpt lat="44.94391" lon="1.13565">
        <ele>220.2301745</ele>
        <time>2022-08-16T17:05:13Z</time>
      </trkpt>
      <trkpt lat="44.94391" lon="1.13565">
        <ele>220.2301745</ele>
        <time>2022-08-16T17:05:17Z</time>
      </trkpt>
      <trkpt lat="44.94391" lon="1.13565">
        <ele>220.2301745</ele>
        <time>2022-08-16T17:05:21Z</time>
      </trkpt>
      <trkpt lat="44.94391" lon="1.13565">
        <ele>220.2301745</ele>
        <time>2022-08-16T17:05:25Z</time>
      </trkpt>
      <trkpt lat="44.94391" lon="1.13565">
        <ele>220.2301745</ele>
        <time>2022-08-16T17:05:29Z</time>
      </trkpt>
      <trkpt lat="44.94391" lon="1.13565">
        <ele>220.2301745</ele>
        <time>2022-08-16T17:05:33Z</time>
      </trkpt>
      <trkpt lat="44.94391" lon="1.13565">
        <ele>220.2301745</ele>
        <time>2022-08-16T17:05:37Z</time>
      </trkpt>
      <trkpt lat="44.94391" lon="1.13565">
        <ele>220.2301745</ele>
        <time>2022-08-16T17:05:41Z</time>
      </trkpt>
      <trkpt lat="44.94391" lon="1.13565">
        <ele>220.2301745</ele>
        <time>2022-08-16T17:05:45Z</time>
      </trkpt>
      <trkpt lat="44.94391" lon="1.13565">
        <ele>220.2301745</ele>
        <time>2022-08-16T17:05:49Z</time>
      </trkpt>
      <trkpt lat="44.94391" lon="1.13565">
        <ele>220.2301745</ele>
        <time>2022-08-16T17:05:53Z</time>
      </trkpt>
      <trkpt lat="44.94391" lon="1.13565">
        <ele>220.2301745</ele>
        <time>2022-08-16T17:05:57Z</time>
      </trkpt>
      <trkpt lat="44.94391" lon="1.13565">
        <ele>220.2301745</ele>
        <time>2022-08-16T17:06:01Z</time>
      </trkpt>
      <trkpt lat="44.94391" lon="1.13565">
        <ele>220.2301745</ele>
        <time>2022-08-16T17:06:05Z</time>
      </trkpt>
      <trkpt lat="44.94391" lon="1.13565">
        <ele>220.2301745</ele>
        <time>2022-08-16T17:06:09Z</time>
      </trkpt>
      <trkpt lat="44.94391" lon="1.13565">
        <ele>220.2301745</ele>
        <time>2022-08-16T17:06:13Z</time>
      </trkpt>
      <trkpt lat="44.94391" lon="1.13565">
        <ele>220.2301745</ele>
        <time>2022-08-16T17:06:17Z</time>
      </trkpt>
      <trkpt lat="44.94391" lon="1.13565">
        <ele>220.2301745</ele>
        <time>2022-08-16T17:06:21Z</time>
      </trkpt>
      <trkpt lat="44.94391" lon="1.13565">
        <ele>220.2301745</ele>
        <time>2022-08-16T17:06:25Z</time>
      </trkpt>
      <trkpt lat="44.94391" lon="1.13565">
        <ele>220.2301745</ele>
        <time>2022-08-16T17:06:29Z</time>
      </trkpt>
      <trkpt lat="44.94392" lon="1.13566">
        <ele>220.2431352</ele>
        <time>2022-08-16T17:06:31Z</time>
      </trkpt>
      <trkpt lat="44.94393" lon="1.13566">
        <ele>220.8160676</ele>
        <time>2022-08-16T17:06:33Z</time>
      </trkpt>
      <trkpt lat="44.94394" lon="1.13567">
        <ele>220.4409441</ele>
        <time>2022-08-16T17:06:35Z</time>
      </trkpt>
      <trkpt lat="44.94394" lon="1.13569">
        <ele>220.8718411</ele>
        <time>2022-08-16T17:06:37Z</time>
      </trkpt>
      <trkpt lat="44.94393" lon="1.13571">
        <ele>220.8946086</ele>
        <time>2022-08-16T17:06:39Z</time>
      </trkpt>
      <trkpt lat="44.94391" lon="1.13572">
        <ele>221.6718872</ele>
        <time>2022-08-16T17:06:41Z</time>
      </trkpt>
      <trkpt lat="44.9439" lon="1.13573">
        <ele>222.0121089</ele>
        <time>2022-08-16T17:06:43Z</time>
      </trkpt>
      <trkpt lat="44.94388" lon="1.13572">
        <ele>222.4542942</ele>
        <time>2022-08-16T17:06:45Z</time>
      </trkpt>
      <trkpt lat="44.94386" lon="1.13572">
        <ele>222.8032073</ele>
        <time>2022-08-16T17:06:47Z</time>
      </trkpt>
      <trkpt lat="44.94384" lon="1.1357">
        <ele>222.4564431</ele>
        <time>2022-08-16T17:06:49Z</time>
      </trkpt>
      <trkpt lat="44.94384" lon="1.1357">
        <ele>221.9971561</ele>
        <time>2022-08-16T17:06:51Z</time>
      </trkpt>
      <trkpt lat="44.94385" lon="1.13569">
        <ele>222.049074</ele>
        <time>2022-08-16T17:06:53Z</time>
      </trkpt>
      <trkpt lat="44.94385" lon="1.13569">
        <ele>222.049074</ele>
        <time>2022-08-16T17:06:57Z</time>
      </trkpt>
      <trkpt lat="44.94384" lon="1.13568">
        <ele>222.4250306</ele>
        <time>2022-08-16T17:06:59Z</time>
      </trkpt>
      <trkpt lat="44.94384" lon="1.13568">
        <ele>221.7408207</ele>
        <time>2022-08-16T17:07:01Z</time>
      </trkpt>
      <trkpt lat="44.94384" lon="1.13568">
        <ele>221.7229432</ele>
        <time>2022-08-16T17:07:03Z</time>
      </trkpt>
      <trkpt lat="44.94384" lon="1.13568">
        <ele>221.7978025</ele>
        <time>2022-08-16T17:07:05Z</time>
      </trkpt>
      <trkpt lat="44.94384" lon="1.13567">
        <ele>221.5654344</ele>
        <time>2022-08-16T17:07:07Z</time>
      </trkpt>
      <trkpt lat="44.94386" lon="1.13567">
        <ele>221.1145528</ele>
        <time>2022-08-16T17:07:09Z</time>
      </trkpt>
      <trkpt lat="44.94387" lon="1.13567">
        <ele>221.1971119</ele>
        <time>2022-08-16T17:07:11Z</time>
      </trkpt>
      <trkpt lat="44.94389" lon="1.13566">
        <ele>221.1882048</ele>
        <time>2022-08-16T17:07:13Z</time>
      </trkpt>
    </trkseg>
      <trkpt lat="44.94386" lon="1.13503">
        <ele>227.4</ele>
        <time>2022-08-17T06:49:20Z</time>
      </trkpt>
      <trkpt lat="44.94391" lon="1.13512">
        <ele>225.9</ele>
        <time>2022-08-17T06:49:22Z</time>
      </trkpt>
      <trkpt lat="44.94403" lon="1.13512">
        <ele>225.3</ele>
        <time>2022-08-17T06:51:42Z</time>
      </trkpt>
      <trkpt lat="44.94406" lon="1.13508">
        <ele>225.7</ele>
        <time>2022-08-17T06:51:44Z</time>
      </trkpt>
      <trkpt lat="44.94407" lon="1.13504">
        <ele>226.1</ele>
        <time>2022-08-17T06:51:46Z</time>
      </trkpt>
      <trkpt lat="44.94406" lon="1.135">
        <ele>226.7</ele>
        <time>2022-08-17T06:51:48Z</time>
      </trkpt>
      <trkpt lat="44.94406" lon="1.13498">
        <ele>226.7</ele>
        <time>2022-08-17T06:51:50Z</time>
      </trkpt>
      <trkpt lat="44.94406" lon="1.13495">
        <ele>226.8</ele>
        <time>2022-08-17T06:51:52Z</time>
      </trkpt>
      <trkpt lat="44.94407" lon="1.13491">
        <ele>226.9</ele>
        <time>2022-08-17T06:51:54Z</time>
      </trkpt>
      <trkpt lat="44.94409" lon="1.13487">
        <ele>227</ele>
        <time>2022-08-17T06:51:56Z</time>
      </trkpt>
      <trkpt lat="44.94411" lon="1.13484">
        <ele>226.9</ele>
        <time>2022-08-17T06:51:58Z</time>
      </trkpt>
      <trkpt lat="44.94412" lon="1.13479">
        <ele>227</ele>
        <time>2022-08-17T06:52:00Z</time>
      </trkpt>
      <trkpt lat="44.94414" lon="1.13474">
        <ele>227.1</ele>
        <time>2022-08-17T06:52:02Z</time>
      </trkpt>
      <trkpt lat="44.94413" lon="1.13469">
        <ele>227.3</ele>
        <time>2022-08-17T06:52:04Z</time>
      </trkpt>
      <trkpt lat="44.94411" lon="1.13464">
        <ele>227.6</ele>
        <time>2022-08-17T06:52:06Z</time>
      </trkpt>
      <trkpt lat="44.94409" lon="1.13463">
        <ele>227.9</ele>
        <time>2022-08-17T06:52:08Z</time>
      </trkpt>
      <trkpt lat="44.94406" lon="1.13462">
        <ele>228.1</ele>
        <time>2022-08-17T06:52:10Z</time>
      </trkpt>
      <trkpt lat="44.94403" lon="1.13461">
        <ele>228.3</ele>
        <time>2022-08-17T06:52:12Z</time>
      </trkpt>
      <trkpt lat="44.944" lon="1.13463">
        <ele>228.4</ele>
        <time>2022-08-17T06:52:14Z</time>
      </trkpt>
      <trkpt lat="44.94397" lon="1.13463">
        <ele>228.6</ele>
        <time>2022-08-17T06:52:16Z</time>
      </trkpt>
      <trkpt lat="44.94395" lon="1.13463">
        <ele>228.7</ele>
        <time>2022-08-17T06:52:18Z</time>
      </trkpt>
      <trkpt lat="44.94393" lon="1.13464">
        <ele>228.9</ele>
        <time>2022-08-17T06:52:20Z</time>
      </trkpt>
      <trkpt lat="44.9439" lon="1.13464">
        <ele>229</ele>
        <time>2022-08-17T06:52:22Z</time>
      </trkpt>
      <trkpt lat="44.94388" lon="1.13462">
        <ele>229.2</ele>
        <time>2022-08-17T06:52:24Z</time>
      </trkpt>
      <trkpt lat="44.94388" lon="1.13459">
        <ele>229.4</ele>
        <time>2022-08-17T06:52:26Z</time>
      </trkpt>
      <trkpt lat="44.94387" lon="1.13456">
        <ele>229.6</ele>
        <time>2022-08-17T06:52:28Z</time>
      </trkpt>
      <trkpt lat="44.94386" lon="1.13452">
        <ele>229.7</ele>
        <time>2022-08-17T06:52:30Z</time>
      </trkpt>
      <trkpt lat="44.94385" lon="1.1345">
        <ele>229.9</ele>
        <time>2022-08-17T06:52:32Z</time>
      </trkpt>
      <trkpt lat="44.94384" lon="1.13447">
        <ele>230.1</ele>
        <time>2022-08-17T06:52:34Z</time>
      </trkpt>
      <trkpt lat="44.94383" lon="1.13444">
        <ele>230.3</ele>
        <time>2022-08-17T06:52:36Z</time>
      </trkpt>
      <trkpt lat="44.94384" lon="1.13441">
        <ele>230.4</ele>
        <time>2022-08-17T06:52:38Z</time>
      </trkpt>
      <trkpt lat="44.94385" lon="1.13439">
        <ele>230.4</ele>
        <time>2022-08-17T06:52:40Z</time>
      </trkpt>
      <trkpt lat="44.94385" lon="1.13436">
        <ele>230.5</ele>
        <time>2022-08-17T06:52:42Z</time>
      </trkpt>
      <trkpt lat="44.94386" lon="1.13433">
        <ele>230.5</ele>
        <time>2022-08-17T06:52:44Z</time>
      </trkpt>
      <trkpt lat="44.94387" lon="1.13429">
        <ele>230.7</ele>
        <time>2022-08-17T06:52:46Z</time>
      </trkpt>
      <trkpt lat="44.94387" lon="1.13426">
        <ele>230.8</ele>
        <time>2022-08-17T06:52:48Z</time>
      </trkpt>
      <trkpt lat="44.94387" lon="1.13422">
        <ele>230.9</ele>
        <time>2022-08-17T06:52:50Z</time>
      </trkpt>
      <trkpt lat="44.94387" lon="1.13417">
        <ele>231.1</ele>
        <time>2022-08-17T06:52:52Z</time>
      </trkpt>
      <trkpt lat="44.94387" lon="1.13415">
        <ele>231.1</ele>
        <time>2022-08-17T06:52:54Z</time>
      </trkpt>
      <trkpt lat="44.94386" lon="1.13415">
        <ele>231.1</ele>
        <time>2022-08-17T06:52:56Z</time>
      </trkpt>
      <trkpt lat="44.94386" lon="1.13415">
        <ele>231.1</ele>
        <time>2022-08-17T06:52:58Z</time>
      </trkpt>
      <trkpt lat="44.94388" lon="1.13415">
        <ele>231</ele>
        <time>2022-08-17T06:53:02Z</time>
      </trkpt>
      <trkpt lat="44.94386" lon="1.13413">
        <ele>231</ele>
        <time>2022-08-17T06:53:34Z</time>
      </trkpt>
      <trkpt lat="44.94386" lon="1.13413">
        <ele>231</ele>
        <time>2022-08-17T06:53:36Z</time>
      </trkpt>
      <trkpt lat="44.94386" lon="1.13414">
        <ele>231.1</ele>
        <time>2022-08-17T06:53:38Z</time>
      </trkpt>
      <trkpt lat="44.94385" lon="1.13411">
        <ele>231</ele>
        <time>2022-08-17T06:53:40Z</time>
      </trkpt>
      <trkpt lat="44.94385" lon="1.13409">
        <ele>230.9</ele>
        <time>2022-08-17T06:53:42Z</time>
      </trkpt>
      <trkpt lat="44.94384" lon="1.13406">
        <ele>230.9</ele>
        <time>2022-08-17T06:53:44Z</time>
      </trkpt>
      <trkpt lat="44.94383" lon="1.13402">
        <ele>230.7</ele>
        <time>2022-08-17T06:53:46Z</time>
      </trkpt>
      <trkpt lat="44.94382" lon="1.13398">
        <ele>230.6</ele>
        <time>2022-08-17T06:53:48Z</time>
      </trkpt>
      <trkpt lat="44.94381" lon="1.13396">
        <ele>230.6</ele>
        <time>2022-08-17T06:53:50Z</time>
      </trkpt>
      <trkpt lat="44.94381" lon="1.13395">
        <ele>230.5</ele>
        <time>2022-08-17T06:53:52Z</time>
      </trkpt>
      <trkpt lat="44.94381" lon="1.13395">
        <ele>230.5</ele>
        <time>2022-08-17T06:53:54Z</time>
      </trkpt>
      <trkpt lat="44.94381" lon="1.13396">
        <ele>230.6</ele>
        <time>2022-08-17T06:53:56Z</time>
      </trkpt>
      <trkpt lat="44.94381" lon="1.13396">
        <ele>230.6</ele>
        <time>2022-08-17T06:53:58Z</time>
      </trkpt>
      <trkpt lat="44.94375" lon="1.13374">
        <ele>229.9</ele>
        <time>2022-08-17T06:54:34Z</time>
      </trkpt>
      <trkpt lat="44.94374" lon="1.13363">
        <ele>229.5</ele>
        <time>2022-08-17T06:54:36Z</time>
      </trkpt>
      <trkpt lat="44.94374" lon="1.13353">
        <ele>229</ele>
        <time>2022-08-17T06:54:38Z</time>
      </trkpt>
      <trkpt lat="44.94372" lon="1.13344">
        <ele>228.7</ele>
        <time>2022-08-17T06:54:40Z</time>
      </trkpt>
      <trkpt lat="44.94369" lon="1.13338">
        <ele>228.6</ele>
        <time>2022-08-17T06:54:42Z</time>
      </trkpt>
      <trkpt lat="44.94365" lon="1.13334">
        <ele>228.8</ele>
        <time>2022-08-17T06:54:44Z</time>
      </trkpt>
      <trkpt lat="44.94362" lon="1.13331">
        <ele>228.8</ele>
        <time>2022-08-17T06:54:46Z</time>
      </trkpt>
      <trkpt lat="44.94358" lon="1.13328">
        <ele>228.8</ele>
        <time>2022-08-17T06:54:48Z</time>
      </trkpt>
      <trkpt lat="44.94354" lon="1.13325">
        <ele>229</ele>
        <time>2022-08-17T06:54:50Z</time>
      </trkpt>
      <trkpt lat="44.9435" lon="1.13322">
        <ele>229</ele>
        <time>2022-08-17T06:54:52Z</time>
      </trkpt>
      <trkpt lat="44.94346" lon="1.13319">
        <ele>229.2</ele>
        <time>2022-08-17T06:54:54Z</time>
      </trkpt>
      <trkpt lat="44.94342" lon="1.13316">
        <ele>229.3</ele>
        <time>2022-08-17T06:54:56Z</time>
      </trkpt>
      <trkpt lat="44.94337" lon="1.13313">
        <ele>229.5</ele>
        <time>2022-08-17T06:54:58Z</time>
      </trkpt>
      <trkpt lat="44.94333" lon="1.13312">
        <ele>229.7</ele>
        <time>2022-08-17T06:55:00Z</time>
      </trkpt>
      <trkpt lat="44.94328" lon="1.13313">
        <ele>229.9</ele>
        <time>2022-08-17T06:55:02Z</time>
      </trkpt>
      <trkpt lat="44.94324" lon="1.13315">
        <ele>230.2</ele>
        <time>2022-08-17T06:55:04Z</time>
      </trkpt>
      <trkpt lat="44.94321" lon="1.13318">
        <ele>230.4</ele>
        <time>2022-08-17T06:55:06Z</time>
      </trkpt>
      <trkpt lat="44.94317" lon="1.13322">
        <ele>230.8</ele>
        <time>2022-08-17T06:55:08Z</time>
      </trkpt>
      <trkpt lat="44.94315" lon="1.13326">
        <ele>231.1</ele>
        <time>2022-08-17T06:55:10Z</time>
      </trkpt>
      <trkpt lat="44.94312" lon="1.13329">
        <ele>231.5</ele>
        <time>2022-08-17T06:55:12Z</time>
      </trkpt>
      <trkpt lat="44.94308" lon="1.13332">
        <ele>231.8</ele>
        <time>2022-08-17T06:55:14Z</time>
      </trkpt>
      <trkpt lat="44.94305" lon="1.13336">
        <ele>232.1</ele>
        <time>2022-08-17T06:55:16Z</time>
      </trkpt>
      <trkpt lat="44.94302" lon="1.1334">
        <ele>232.4</ele>
        <time>2022-08-17T06:55:18Z</time>
      </trkpt>
      <trkpt lat="44.94299" lon="1.13344">
        <ele>232.7</ele>
        <time>2022-08-17T06:55:20Z</time>
      </trkpt>
      <trkpt lat="44.94295" lon="1.13348">
        <ele>232.9</ele>
        <time>2022-08-17T06:55:22Z</time>
      </trkpt>
      <trkpt lat="44.94292" lon="1.13352">
        <ele>233.2</ele>
        <time>2022-08-17T06:55:24Z</time>
      </trkpt>
      <trkpt lat="44.94288" lon="1.13355">
        <ele>233.4</ele>
        <time>2022-08-17T06:55:26Z</time>
      </trkpt>
      <trkpt lat="44.94284" lon="1.13359">
        <ele>233.6</ele>
        <time>2022-08-17T06:55:28Z</time>
      </trkpt>
      <trkpt lat="44.9428" lon="1.13361">
        <ele>233.8</ele>
        <time>2022-08-17T06:55:30Z</time>
      </trkpt>
      <trkpt lat="44.94276" lon="1.13364">
        <ele>234</ele>
        <time>2022-08-17T06:55:32Z</time>
      </trkpt>
      <trkpt lat="44.94272" lon="1.13368">
        <ele>234.3</ele>
        <time>2022-08-17T06:55:34Z</time>
      </trkpt>
      <trkpt lat="44.94267" lon="1.1337">
        <ele>234.4</ele>
        <time>2022-08-17T06:55:36Z</time>
      </trkpt>
      <trkpt lat="44.94263" lon="1.13372">
        <ele>234.6</ele>
        <time>2022-08-17T06:55:38Z</time>
      </trkpt>
      <trkpt lat="44.94259" lon="1.13375">
        <ele>234.8</ele>
        <time>2022-08-17T06:55:40Z</time>
      </trkpt>
      <trkpt lat="44.94254" lon="1.13379">
        <ele>235</ele>
        <time>2022-08-17T06:55:42Z</time>
      </trkpt>
      <trkpt lat="44.9425" lon="1.13382">
        <ele>235.2</ele>
        <time>2022-08-17T06:55:44Z</time>
      </trkpt>
      <trkpt lat="44.94246" lon="1.13385">
        <ele>235.1</ele>
        <time>2022-08-17T06:55:46Z</time>
      </trkpt>
      <trkpt lat="44.94242" lon="1.13387">
        <ele>235.1</ele>
        <time>2022-08-17T06:55:48Z</time>
      </trkpt>
      <trkpt lat="44.94238" lon="1.1339">
        <ele>235.1</ele>
        <time>2022-08-17T06:55:50Z</time>
      </trkpt>
      <trkpt lat="44.94234" lon="1.13393">
        <ele>235.1</ele>
        <time>2022-08-17T06:55:52Z</time>
      </trkpt>
      <trkpt lat="44.94231" lon="1.13395">
        <ele>235.1</ele>
        <time>2022-08-17T06:55:54Z</time>
      </trkpt>
      <trkpt lat="44.94227" lon="1.13397">
        <ele>235.1</ele>
        <time>2022-08-17T06:55:56Z</time>
      </trkpt>
      <trkpt lat="44.94224" lon="1.134">
        <ele>235.2</ele>
        <time>2022-08-17T06:55:58Z</time>
      </trkpt>
      <trkpt lat="44.9422" lon="1.13402">
        <ele>235.3</ele>
        <time>2022-08-17T06:56:00Z</time>
      </trkpt>
      <trkpt lat="44.94216" lon="1.13404">
        <ele>235.3</ele>
        <time>2022-08-17T06:56:02Z</time>
      </trkpt>
      <trkpt lat="44.94213" lon="1.13406">
        <ele>235.4</ele>
        <time>2022-08-17T06:56:04Z</time>
      </trkpt>
      <trkpt lat="44.94209" lon="1.13408">
        <ele>235.5</ele>
        <time>2022-08-17T06:56:06Z</time>
      </trkpt>
      <trkpt lat="44.94207" lon="1.13409">
        <ele>235.5</ele>
        <time>2022-08-17T06:56:08Z</time>
      </trkpt>
      <trkpt lat="44.94208" lon="1.13408">
        <ele>235.5</ele>
        <time>2022-08-17T06:56:10Z</time>
      </trkpt>
      <trkpt lat="44.94208" lon="1.13408">
        <ele>235.5</ele>
        <time>2022-08-17T06:56:12Z</time>
      </trkpt>
      <trkpt lat="44.94207" lon="1.13409">
        <ele>235.6</ele>
        <time>2022-08-17T06:56:16Z</time>
      </trkpt>
      <trkpt lat="44.94186" lon="1.13418">
        <ele>235.9</ele>
        <time>2022-08-17T06:57:00Z</time>
      </trkpt>
      <trkpt lat="44.94182" lon="1.1342">
        <ele>235.9</ele>
        <time>2022-08-17T06:57:02Z</time>
      </trkpt>
      <trkpt lat="44.94178" lon="1.13423">
        <ele>235.8</ele>
        <time>2022-08-17T06:57:04Z</time>
      </trkpt>
      <trkpt lat="44.94173" lon="1.13425">
        <ele>235.8</ele>
        <time>2022-08-17T06:57:06Z</time>
      </trkpt>
      <trkpt lat="44.94169" lon="1.13427">
        <ele>235.7</ele>
        <time>2022-08-17T06:57:08Z</time>
      </trkpt>
      <trkpt lat="44.94165" lon="1.13429">
        <ele>235.7</ele>
        <time>2022-08-17T06:57:10Z</time>
      </trkpt>
      <trkpt lat="44.9416" lon="1.1343">
        <ele>235.8</ele>
        <time>2022-08-17T06:57:12Z</time>
      </trkpt>
      <trkpt lat="44.94156" lon="1.13432">
        <ele>235.8</ele>
        <time>2022-08-17T06:57:14Z</time>
      </trkpt>
      <trkpt lat="44.94151" lon="1.13434">
        <ele>235.9</ele>
        <time>2022-08-17T06:57:16Z</time>
      </trkpt>
      <trkpt lat="44.94147" lon="1.13435">
        <ele>236</ele>
        <time>2022-08-17T06:57:18Z</time>
      </trkpt>
      <trkpt lat="44.94142" lon="1.13436">
        <ele>236</ele>
        <time>2022-08-17T06:57:20Z</time>
      </trkpt>
      <trkpt lat="44.94138" lon="1.13437">
        <ele>236.1</ele>
        <time>2022-08-17T06:57:22Z</time>
      </trkpt>
      <trkpt lat="44.94134" lon="1.13437">
        <ele>236.2</ele>
        <time>2022-08-17T06:57:24Z</time>
      </trkpt>
      <trkpt lat="44.9413" lon="1.13436">
        <ele>236.3</ele>
        <time>2022-08-17T06:57:26Z</time>
      </trkpt>
      <trkpt lat="44.94127" lon="1.13435">
        <ele>236.3</ele>
        <time>2022-08-17T06:57:28Z</time>
      </trkpt>
      <trkpt lat="44.94122" lon="1.13433">
        <ele>236.5</ele>
        <time>2022-08-17T06:57:30Z</time>
      </trkpt>
      <trkpt lat="44.94116" lon="1.13429">
        <ele>236.6</ele>
        <time>2022-08-17T06:57:32Z</time>
      </trkpt>
      <trkpt lat="44.9411" lon="1.13425">
        <ele>236.7</ele>
        <time>2022-08-17T06:57:34Z</time>
      </trkpt>
      <trkpt lat="44.94103" lon="1.1342">
        <ele>236.8</ele>
        <time>2022-08-17T06:57:36Z</time>
      </trkpt>
      <trkpt lat="44.94096" lon="1.13414">
        <ele>236.6</ele>
        <time>2022-08-17T06:57:38Z</time>
      </trkpt>
      <trkpt lat="44.94087" lon="1.13408">
        <ele>235.9</ele>
        <time>2022-08-17T06:57:40Z</time>
      </trkpt>
      <trkpt lat="44.94078" lon="1.13401">
        <ele>235.2</ele>
        <time>2022-08-17T06:57:42Z</time>
      </trkpt>
      <trkpt lat="44.94068" lon="1.13393">
        <ele>234.6</ele>
        <time>2022-08-17T06:57:44Z</time>
      </trkpt>
      <trkpt lat="44.94057" lon="1.13383">
        <ele>234</ele>
        <time>2022-08-17T06:57:46Z</time>
      </trkpt>
      <trkpt lat="44.94047" lon="1.1337">
        <ele>233.3</ele>
        <time>2022-08-17T06:57:48Z</time>
      </trkpt>
      <trkpt lat="44.94035" lon="1.13357">
        <ele>232.9</ele>
        <time>2022-08-17T06:57:50Z</time>
      </trkpt>
      <trkpt lat="44.94025" lon="1.13343">
        <ele>232.6</ele>
        <time>2022-08-17T06:57:52Z</time>
      </trkpt>
      <trkpt lat="44.94014" lon="1.13331">
        <ele>232.6</ele>
        <time>2022-08-17T06:57:54Z</time>
      </trkpt>
      <trkpt lat="44.94004" lon="1.1332">
        <ele>232.8</ele>
        <time>2022-08-17T06:57:56Z</time>
      </trkpt>
      <trkpt lat="44.93994" lon="1.13311">
        <ele>233.3</ele>
        <time>2022-08-17T06:57:58Z</time>
      </trkpt>
      <trkpt lat="44.93985" lon="1.13304">
        <ele>233.9</ele>
        <time>2022-08-17T06:58:00Z</time>
      </trkpt>
      <trkpt lat="44.93977" lon="1.13293">
        <ele>234.2</ele>
        <time>2022-08-17T06:58:02Z</time>
      </trkpt>
      <trkpt lat="44.93971" lon="1.13283">
        <ele>234.2</ele>
        <time>2022-08-17T06:58:04Z</time>
      </trkpt>
      <trkpt lat="44.93966" lon="1.13274">
        <ele>234.2</ele>
        <time>2022-08-17T06:58:06Z</time>
      </trkpt>
      <trkpt lat="44.93961" lon="1.13265">
        <ele>234.2</ele>
        <time>2022-08-17T06:58:08Z</time>
      </trkpt>
      <trkpt lat="44.93956" lon="1.13256">
        <ele>234.2</ele>
        <time>2022-08-17T06:58:10Z</time>
      </trkpt>
      <trkpt lat="44.93951" lon="1.13247">
        <ele>234.1</ele>
        <time>2022-08-17T06:58:12Z</time>
      </trkpt>
      <trkpt lat="44.93946" lon="1.13239">
        <ele>233.7</ele>
        <time>2022-08-17T06:58:14Z</time>
      </trkpt>
      <trkpt lat="44.93941" lon="1.13231">
        <ele>233.3</ele>
        <time>2022-08-17T06:58:16Z</time>
      </trkpt>
      <trkpt lat="44.93936" lon="1.13225">
        <ele>233.1</ele>
        <time>2022-08-17T06:58:18Z</time>
      </trkpt>
      <trkpt lat="44.9393" lon="1.13219">
        <ele>232.9</ele>
        <time>2022-08-17T06:58:20Z</time>
      </trkpt>
      <trkpt lat="44.93922" lon="1.13214">
        <ele>232.8</ele>
        <time>2022-08-17T06:58:22Z</time>
      </trkpt>
      <trkpt lat="44.93915" lon="1.13208">
        <ele>232.5</ele>
        <time>2022-08-17T06:58:24Z</time>
      </trkpt>
      <trkpt lat="44.93906" lon="1.13203">
        <ele>232.4</ele>
        <time>2022-08-17T06:58:26Z</time>
      </trkpt>
      <trkpt lat="44.93897" lon="1.13198">
        <ele>232.1</ele>
        <time>2022-08-17T06:58:28Z</time>
      </trkpt>
      <trkpt lat="44.93888" lon="1.13193">
        <ele>232</ele>
        <time>2022-08-17T06:58:30Z</time>
      </trkpt>
      <trkpt lat="44.93879" lon="1.13189">
        <ele>231.9</ele>
        <time>2022-08-17T06:58:32Z</time>
      </trkpt>
      <trkpt lat="44.93869" lon="1.13184">
        <ele>232</ele>
        <time>2022-08-17T06:58:34Z</time>
      </trkpt>
      <trkpt lat="44.93859" lon="1.13179">
        <ele>231.9</ele>
        <time>2022-08-17T06:58:36Z</time>
      </trkpt>
      <trkpt lat="44.93847" lon="1.13173">
        <ele>231.9</ele>
        <time>2022-08-17T06:58:38Z</time>
      </trkpt>
      <trkpt lat="44.93837" lon="1.13166">
        <ele>231.7</ele>
        <time>2022-08-17T06:58:40Z</time>
      </trkpt>
      <trkpt lat="44.93826" lon="1.13159">
        <ele>231.4</ele>
        <time>2022-08-17T06:58:42Z</time>
      </trkpt>
      <trkpt lat="44.93816" lon="1.13151">
        <ele>231.1</ele>
        <time>2022-08-17T06:58:44Z</time>
      </trkpt>
      <trkpt lat="44.93806" lon="1.13142">
        <ele>231</ele>
        <time>2022-08-17T06:58:46Z</time>
      </trkpt>
      <trkpt lat="44.93795" lon="1.13135">
        <ele>231</ele>
        <time>2022-08-17T06:58:48Z</time>
      </trkpt>
      <trkpt lat="44.93785" lon="1.13126">
        <ele>231.1</ele>
        <time>2022-08-17T06:58:50Z</time>
      </trkpt>
      <trkpt lat="44.93776" lon="1.13118">
        <ele>231.3</ele>
        <time>2022-08-17T06:58:52Z</time>
      </trkpt>
      <trkpt lat="44.93766" lon="1.13109">
        <ele>231.7</ele>
        <time>2022-08-17T06:58:54Z</time>
      </trkpt>
      <trkpt lat="44.93757" lon="1.13101">
        <ele>232.1</ele>
        <time>2022-08-17T06:58:56Z</time>
      </trkpt>
      <trkpt lat="44.93749" lon="1.13092">
        <ele>232.5</ele>
        <time>2022-08-17T06:58:58Z</time>
      </trkpt>
      <trkpt lat="44.93741" lon="1.13082">
        <ele>232.8</ele>
        <time>2022-08-17T06:59:00Z</time>
      </trkpt>
      <trkpt lat="44.93735" lon="1.13073">
        <ele>232.8</ele>
        <time>2022-08-17T06:59:02Z</time>
      </trkpt>
      <trkpt lat="44.93729" lon="1.13064">
        <ele>233</ele>
        <time>2022-08-17T06:59:04Z</time>
      </trkpt>
      <trkpt lat="44.93723" lon="1.13055">
        <ele>233.2</ele>
        <time>2022-08-17T06:59:06Z</time>
      </trkpt>
      <trkpt lat="44.93718" lon="1.13047">
        <ele>233.2</ele>
        <time>2022-08-17T06:59:08Z</time>
      </trkpt>
      <trkpt lat="44.93713" lon="1.1304">
        <ele>233.4</ele>
        <time>2022-08-17T06:59:10Z</time>
      </trkpt>
      <trkpt lat="44.93709" lon="1.13033">
        <ele>233.5</ele>
        <time>2022-08-17T06:59:12Z</time>
      </trkpt>
      <trkpt lat="44.93706" lon="1.13026">
        <ele>233.5</ele>
        <time>2022-08-17T06:59:14Z</time>
      </trkpt>
      <trkpt lat="44.93702" lon="1.13019">
        <ele>233.6</ele>
        <time>2022-08-17T06:59:16Z</time>
      </trkpt>
      <trkpt lat="44.93698" lon="1.13013">
        <ele>233.8</ele>
        <time>2022-08-17T06:59:18Z</time>
      </trkpt>
      <trkpt lat="44.93694" lon="1.13006">
        <ele>234</ele>
        <time>2022-08-17T06:59:20Z</time>
      </trkpt>
      <trkpt lat="44.93691" lon="1.13">
        <ele>234.1</ele>
        <time>2022-08-17T06:59:22Z</time>
      </trkpt>
      <trkpt lat="44.93687" lon="1.12994">
        <ele>234.4</ele>
        <time>2022-08-17T06:59:24Z</time>
      </trkpt>
      <trkpt lat="44.93683" lon="1.12988">
        <ele>234.8</ele>
        <time>2022-08-17T06:59:26Z</time>
      </trkpt>
      <trkpt lat="44.9368" lon="1.12984">
        <ele>235.2</ele>
        <time>2022-08-17T06:59:28Z</time>
      </trkpt>
      <trkpt lat="44.93677" lon="1.1298">
        <ele>235.5</ele>
        <time>2022-08-17T06:59:30Z</time>
      </trkpt>
      <trkpt lat="44.93673" lon="1.12975">
        <ele>235.8</ele>
        <time>2022-08-17T06:59:32Z</time>
      </trkpt>
      <trkpt lat="44.9367" lon="1.12971">
        <ele>236.3</ele>
        <time>2022-08-17T06:59:34Z</time>
      </trkpt>
      <trkpt lat="44.93666" lon="1.12966">
        <ele>236.6</ele>
        <time>2022-08-17T06:59:36Z</time>
      </trkpt>
      <trkpt lat="44.93662" lon="1.12962">
        <ele>236.5</ele>
        <time>2022-08-17T06:59:38Z</time>
      </trkpt>
      <trkpt lat="44.93657" lon="1.12958">
        <ele>236.4</ele>
        <time>2022-08-17T06:59:40Z</time>
      </trkpt>
      <trkpt lat="44.93653" lon="1.12954">
        <ele>236.3</ele>
        <time>2022-08-17T06:59:42Z</time>
      </trkpt>
      <trkpt lat="44.93648" lon="1.12951">
        <ele>236.2</ele>
        <time>2022-08-17T06:59:44Z</time>
      </trkpt>
      <trkpt lat="44.93643" lon="1.12947">
        <ele>236.1</ele>
        <time>2022-08-17T06:59:46Z</time>
      </trkpt>
      <trkpt lat="44.93638" lon="1.12943">
        <ele>236</ele>
        <time>2022-08-17T06:59:48Z</time>
      </trkpt>
      <trkpt lat="44.93632" lon="1.12939">
        <ele>235.9</ele>
        <time>2022-08-17T06:59:50Z</time>
      </trkpt>
      <trkpt lat="44.93626" lon="1.12936">
        <ele>235.7</ele>
        <time>2022-08-17T06:59:52Z</time>
      </trkpt>
      <trkpt lat="44.93619" lon="1.12933">
        <ele>235.6</ele>
        <time>2022-08-17T06:59:54Z</time>
      </trkpt>
      <trkpt lat="44.93612" lon="1.1293">
        <ele>235.5</ele>
        <time>2022-08-17T06:59:56Z</time>
      </trkpt>
      <trkpt lat="44.93604" lon="1.12929">
        <ele>235.4</ele>
        <time>2022-08-17T06:59:58Z</time>
      </trkpt>
      <trkpt lat="44.93598" lon="1.12927">
        <ele>235.3</ele>
        <time>2022-08-17T07:00:00Z</time>
      </trkpt>
      <trkpt lat="44.9359" lon="1.12927">
        <ele>235.2</ele>
        <time>2022-08-17T07:00:02Z</time>
      </trkpt>
      <trkpt lat="44.93582" lon="1.12927">
        <ele>235.1</ele>
        <time>2022-08-17T07:00:04Z</time>
      </trkpt>
      <trkpt lat="44.93575" lon="1.12927">
        <ele>234.6</ele>
        <time>2022-08-17T07:00:06Z</time>
      </trkpt>
      <trkpt lat="44.93567" lon="1.12927">
        <ele>234</ele>
        <time>2022-08-17T07:00:08Z</time>
      </trkpt>
      <trkpt lat="44.93558" lon="1.12928">
        <ele>233.5</ele>
        <time>2022-08-17T07:00:10Z</time>
      </trkpt>
      <trkpt lat="44.9355" lon="1.12928">
        <ele>232.9</ele>
        <time>2022-08-17T07:00:12Z</time>
      </trkpt>
      <trkpt lat="44.9354" lon="1.12928">
        <ele>232.3</ele>
        <time>2022-08-17T07:00:14Z</time>
      </trkpt>
      <trkpt lat="44.9353" lon="1.12927">
        <ele>231.7</ele>
        <time>2022-08-17T07:00:16Z</time>
      </trkpt>
      <trkpt lat="44.9352" lon="1.12927">
        <ele>231</ele>
        <time>2022-08-17T07:00:18Z</time>
      </trkpt>
      <trkpt lat="44.93508" lon="1.12924">
        <ele>230.3</ele>
        <time>2022-08-17T07:00:20Z</time>
      </trkpt>
      <trkpt lat="44.93494" lon="1.12917">
        <ele>229.5</ele>
        <time>2022-08-17T07:00:22Z</time>
      </trkpt>
      <trkpt lat="44.93482" lon="1.12904">
        <ele>228.1</ele>
        <time>2022-08-17T07:00:24Z</time>
      </trkpt>
      <trkpt lat="44.93473" lon="1.12884">
        <ele>226.8</ele>
        <time>2022-08-17T07:00:26Z</time>
      </trkpt>
      <trkpt lat="44.93465" lon="1.12862">
        <ele>225.8</ele>
        <time>2022-08-17T07:00:28Z</time>
      </trkpt>
      <trkpt lat="44.93457" lon="1.1284">
        <ele>225.1</ele>
        <time>2022-08-17T07:00:30Z</time>
      </trkpt>
      <trkpt lat="44.93448" lon="1.12816">
        <ele>223.6</ele>
        <time>2022-08-17T07:00:32Z</time>
      </trkpt>
      <trkpt lat="44.93439" lon="1.12792">
        <ele>222</ele>
        <time>2022-08-17T07:00:34Z</time>
      </trkpt>
      <trkpt lat="44.93429" lon="1.12767">
        <ele>220.6</ele>
        <time>2022-08-17T07:00:36Z</time>
      </trkpt>
      <trkpt lat="44.9342" lon="1.12742">
        <ele>219.7</ele>
        <time>2022-08-17T07:00:38Z</time>
      </trkpt>
      <trkpt lat="44.93411" lon="1.12717">
        <ele>219.4</ele>
        <time>2022-08-17T07:00:40Z</time>
      </trkpt>
      <trkpt lat="44.93404" lon="1.12693">
        <ele>219</ele>
        <time>2022-08-17T07:00:42Z</time>
      </trkpt>
      <trkpt lat="44.93399" lon="1.12668">
        <ele>218.5</ele>
        <time>2022-08-17T07:00:44Z</time>
      </trkpt>
      <trkpt lat="44.93394" lon="1.12645">
        <ele>217.6</ele>
        <time>2022-08-17T07:00:46Z</time>
      </trkpt>
      <trkpt lat="44.93391" lon="1.12623">
        <ele>216.7</ele>
        <time>2022-08-17T07:00:48Z</time>
      </trkpt>
      <trkpt lat="44.93389" lon="1.12607">
        <ele>216.1</ele>
        <time>2022-08-17T07:00:50Z</time>
      </trkpt>
      <trkpt lat="44.93387" lon="1.12596">
        <ele>215.5</ele>
        <time>2022-08-17T07:00:52Z</time>
      </trkpt>
      <trkpt lat="44.93386" lon="1.12589">
        <ele>215.3</ele>
        <time>2022-08-17T07:00:54Z</time>
      </trkpt>
      <trkpt lat="44.93387" lon="1.1259">
        <ele>215.3</ele>
        <time>2022-08-17T07:00:56Z</time>
      </trkpt>
      <trkpt lat="44.93385" lon="1.12582">
        <ele>215</ele>
        <time>2022-08-17T07:00:58Z</time>
      </trkpt>
      <trkpt lat="44.93385" lon="1.12582">
        <ele>215</ele>
        <time>2022-08-17T07:01:00Z</time>
      </trkpt>
      <trkpt lat="44.93385" lon="1.12581">
        <ele>215</ele>
        <time>2022-08-17T07:01:02Z</time>
      </trkpt>
      <trkpt lat="44.93383" lon="1.1256">
        <ele>214.7</ele>
        <time>2022-08-17T07:03:08Z</time>
      </trkpt>
      <trkpt lat="44.93382" lon="1.12551">
        <ele>214.6</ele>
        <time>2022-08-17T07:03:10Z</time>
      </trkpt>
      <trkpt lat="44.9338" lon="1.12541">
        <ele>214.5</ele>
        <time>2022-08-17T07:03:12Z</time>
      </trkpt>
      <trkpt lat="44.93379" lon="1.12531">
        <ele>214.4</ele>
        <time>2022-08-17T07:03:14Z</time>
      </trkpt>
      <trkpt lat="44.93377" lon="1.1252">
        <ele>214.2</ele>
        <time>2022-08-17T07:03:16Z</time>
      </trkpt>
      <trkpt lat="44.93376" lon="1.12511">
        <ele>214.1</ele>
        <time>2022-08-17T07:03:18Z</time>
      </trkpt>
      <trkpt lat="44.93376" lon="1.12501">
        <ele>214</ele>
        <time>2022-08-17T07:03:20Z</time>
      </trkpt>
      <trkpt lat="44.93375" lon="1.1249">
        <ele>213.9</ele>
        <time>2022-08-17T07:03:22Z</time>
      </trkpt>
      <trkpt lat="44.93373" lon="1.12479">
        <ele>213.8</ele>
        <time>2022-08-17T07:03:24Z</time>
      </trkpt>
      <trkpt lat="44.93372" lon="1.12467">
        <ele>213.6</ele>
        <time>2022-08-17T07:03:26Z</time>
      </trkpt>
      <trkpt lat="44.93371" lon="1.12456">
        <ele>213.5</ele>
        <time>2022-08-17T07:03:28Z</time>
      </trkpt>
      <trkpt lat="44.93369" lon="1.12445">
        <ele>213.4</ele>
        <time>2022-08-17T07:03:30Z</time>
      </trkpt>
      <trkpt lat="44.93367" lon="1.12434">
        <ele>213.3</ele>
        <time>2022-08-17T07:03:32Z</time>
      </trkpt>
      <trkpt lat="44.93365" lon="1.12423">
        <ele>213.3</ele>
        <time>2022-08-17T07:03:34Z</time>
      </trkpt>
      <trkpt lat="44.93363" lon="1.12412">
        <ele>213.4</ele>
        <time>2022-08-17T07:03:36Z</time>
      </trkpt>
      <trkpt lat="44.93361" lon="1.12401">
        <ele>213.6</ele>
        <time>2022-08-17T07:03:38Z</time>
      </trkpt>
      <trkpt lat="44.93359" lon="1.1239">
        <ele>213.8</ele>
        <time>2022-08-17T07:03:40Z</time>
      </trkpt>
      <trkpt lat="44.93358" lon="1.12379">
        <ele>214</ele>
        <time>2022-08-17T07:03:42Z</time>
      </trkpt>
      <trkpt lat="44.93355" lon="1.12369">
        <ele>214.2</ele>
        <time>2022-08-17T07:03:44Z</time>
      </trkpt>
      <trkpt lat="44.93354" lon="1.12359">
        <ele>214.4</ele>
        <time>2022-08-17T07:03:46Z</time>
      </trkpt>
      <trkpt lat="44.93352" lon="1.12348">
        <ele>214.6</ele>
        <time>2022-08-17T07:03:48Z</time>
      </trkpt>
      <trkpt lat="44.9335" lon="1.12339">
        <ele>214.7</ele>
        <time>2022-08-17T07:03:50Z</time>
      </trkpt>
      <trkpt lat="44.93348" lon="1.12328">
        <ele>215</ele>
        <time>2022-08-17T07:03:52Z</time>
      </trkpt>
      <trkpt lat="44.93346" lon="1.12317">
        <ele>215.3</ele>
        <time>2022-08-17T07:03:54Z</time>
      </trkpt>
      <trkpt lat="44.93344" lon="1.12307">
        <ele>215.6</ele>
        <time>2022-08-17T07:03:56Z</time>
      </trkpt>
      <trkpt lat="44.93342" lon="1.12296">
        <ele>215.8</ele>
        <time>2022-08-17T07:03:58Z</time>
      </trkpt>
      <trkpt lat="44.9334" lon="1.12285">
        <ele>216.1</ele>
        <time>2022-08-17T07:04:00Z</time>
      </trkpt>
      <trkpt lat="44.93338" lon="1.12273">
        <ele>216.4</ele>
        <time>2022-08-17T07:04:02Z</time>
      </trkpt>
      <trkpt lat="44.93336" lon="1.12261">
        <ele>216.7</ele>
        <time>2022-08-17T07:04:04Z</time>
      </trkpt>
      <trkpt lat="44.93333" lon="1.12249">
        <ele>217.1</ele>
        <time>2022-08-17T07:04:06Z</time>
      </trkpt>
      <trkpt lat="44.93332" lon="1.12236">
        <ele>217.8</ele>
        <time>2022-08-17T07:04:08Z</time>
      </trkpt>
      <trkpt lat="44.93329" lon="1.12223">
        <ele>218.4</ele>
        <time>2022-08-17T07:04:10Z</time>
      </trkpt>
      <trkpt lat="44.93326" lon="1.12209">
        <ele>219.1</ele>
        <time>2022-08-17T07:04:12Z</time>
      </trkpt>
      <trkpt lat="44.93324" lon="1.12195">
        <ele>219.8</ele>
        <time>2022-08-17T07:04:14Z</time>
      </trkpt>
      <trkpt lat="44.93321" lon="1.12181">
        <ele>220.3</ele>
        <time>2022-08-17T07:04:16Z</time>
      </trkpt>
      <trkpt lat="44.93319" lon="1.12165">
        <ele>220.7</ele>
        <time>2022-08-17T07:04:18Z</time>
      </trkpt>
      <trkpt lat="44.93316" lon="1.1215">
        <ele>220.3</ele>
        <time>2022-08-17T07:04:20Z</time>
      </trkpt>
      <trkpt lat="44.93313" lon="1.12135">
        <ele>219.7</ele>
        <time>2022-08-17T07:04:22Z</time>
      </trkpt>
      <trkpt lat="44.93311" lon="1.1212">
        <ele>219.2</ele>
        <time>2022-08-17T07:04:24Z</time>
      </trkpt>
      <trkpt lat="44.93308" lon="1.12105">
        <ele>218.5</ele>
        <time>2022-08-17T07:04:26Z</time>
      </trkpt>
      <trkpt lat="44.93304" lon="1.12091">
        <ele>217.9</ele>
        <time>2022-08-17T07:04:28Z</time>
      </trkpt>
      <trkpt lat="44.93301" lon="1.12078">
        <ele>217.7</ele>
        <time>2022-08-17T07:04:30Z</time>
      </trkpt>
      <trkpt lat="44.93297" lon="1.12068">
        <ele>217.8</ele>
        <time>2022-08-17T07:04:32Z</time>
      </trkpt>
      <trkpt lat="44.93296" lon="1.12056">
        <ele>218.6</ele>
        <time>2022-08-17T07:04:34Z</time>
      </trkpt>
      <trkpt lat="44.93293" lon="1.12047">
        <ele>219.1</ele>
        <time>2022-08-17T07:04:36Z</time>
      </trkpt>
      <trkpt lat="44.93291" lon="1.12037">
        <ele>219.5</ele>
        <time>2022-08-17T07:04:38Z</time>
      </trkpt>
      <trkpt lat="44.93289" lon="1.12028">
        <ele>220</ele>
        <time>2022-08-17T07:04:40Z</time>
      </trkpt>
      <trkpt lat="44.93287" lon="1.12019">
        <ele>220.6</ele>
        <time>2022-08-17T07:04:42Z</time>
      </trkpt>
      <trkpt lat="44.93286" lon="1.1201">
        <ele>221.2</ele>
        <time>2022-08-17T07:04:44Z</time>
      </trkpt>
      <trkpt lat="44.93284" lon="1.12001">
        <ele>221.8</ele>
        <time>2022-08-17T07:04:46Z</time>
      </trkpt>
      <trkpt lat="44.93284" lon="1.11991">
        <ele>222.3</ele>
        <time>2022-08-17T07:04:48Z</time>
      </trkpt>
      <trkpt lat="44.93284" lon="1.11982">
        <ele>222.8</ele>
        <time>2022-08-17T07:04:50Z</time>
      </trkpt>
      <trkpt lat="44.93283" lon="1.11973">
        <ele>223.1</ele>
        <time>2022-08-17T07:04:52Z</time>
      </trkpt>
      <trkpt lat="44.93282" lon="1.11968">
        <ele>223.3</ele>
        <time>2022-08-17T07:04:54Z</time>
      </trkpt>
      <trkpt lat="44.93281" lon="1.11962">
        <ele>223.4</ele>
        <time>2022-08-17T07:04:56Z</time>
      </trkpt>
      <trkpt lat="44.93281" lon="1.11956">
        <ele>223.7</ele>
        <time>2022-08-17T07:04:58Z</time>
      </trkpt>
      <trkpt lat="44.93279" lon="1.11945">
        <ele>224.1</ele>
        <time>2022-08-17T07:05:00Z</time>
      </trkpt>
      <trkpt lat="44.93278" lon="1.1194">
        <ele>224.1</ele>
        <time>2022-08-17T07:05:02Z</time>
      </trkpt>
      <trkpt lat="44.93277" lon="1.11934">
        <ele>224.3</ele>
        <time>2022-08-17T07:05:04Z</time>
      </trkpt>
      <trkpt lat="44.93276" lon="1.11926">
        <ele>224.7</ele>
        <time>2022-08-17T07:05:06Z</time>
      </trkpt>
      <trkpt lat="44.93275" lon="1.11918">
        <ele>224.9</ele>
        <time>2022-08-17T07:05:08Z</time>
      </trkpt>
      <trkpt lat="44.93274" lon="1.1191">
        <ele>225.2</ele>
        <time>2022-08-17T07:05:10Z</time>
      </trkpt>
      <trkpt lat="44.93273" lon="1.11901">
        <ele>225.5</ele>
        <time>2022-08-17T07:05:12Z</time>
      </trkpt>
      <trkpt lat="44.93271" lon="1.11892">
        <ele>225.7</ele>
        <time>2022-08-17T07:05:14Z</time>
      </trkpt>
      <trkpt lat="44.93269" lon="1.11884">
        <ele>226</ele>
        <time>2022-08-17T07:05:16Z</time>
      </trkpt>
      <trkpt lat="44.93266" lon="1.11875">
        <ele>226.2</ele>
        <time>2022-08-17T07:05:18Z</time>
      </trkpt>
      <trkpt lat="44.93264" lon="1.11867">
        <ele>226.4</ele>
        <time>2022-08-17T07:05:20Z</time>
      </trkpt>
      <trkpt lat="44.93262" lon="1.1186">
        <ele>226.6</ele>
        <time>2022-08-17T07:05:22Z</time>
      </trkpt>
      <trkpt lat="44.93261" lon="1.11851">
        <ele>227</ele>
        <time>2022-08-17T07:05:24Z</time>
      </trkpt>
      <trkpt lat="44.93263" lon="1.11841">
        <ele>227.6</ele>
        <time>2022-08-17T07:05:26Z</time>
      </trkpt>
      <trkpt lat="44.93266" lon="1.11833">
        <ele>228.4</ele>
        <time>2022-08-17T07:05:28Z</time>
      </trkpt>
      <trkpt lat="44.9327" lon="1.11825">
        <ele>229.2</ele>
        <time>2022-08-17T07:05:30Z</time>
      </trkpt>
      <trkpt lat="44.93272" lon="1.11818">
        <ele>229.7</ele>
        <time>2022-08-17T07:05:32Z</time>
      </trkpt>
      <trkpt lat="44.93275" lon="1.11812">
        <ele>230.2</ele>
        <time>2022-08-17T07:05:34Z</time>
      </trkpt>
      <trkpt lat="44.93277" lon="1.11806">
        <ele>230.5</ele>
        <time>2022-08-17T07:05:36Z</time>
      </trkpt>
      <trkpt lat="44.93279" lon="1.118">
        <ele>230.8</ele>
        <time>2022-08-17T07:05:38Z</time>
      </trkpt>
      <trkpt lat="44.93281" lon="1.11794">
        <ele>231.1</ele>
        <time>2022-08-17T07:05:40Z</time>
      </trkpt>
      <trkpt lat="44.93284" lon="1.11788">
        <ele>231.3</ele>
        <time>2022-08-17T07:05:42Z</time>
      </trkpt>
      <trkpt lat="44.93286" lon="1.11782">
        <ele>231.5</ele>
        <time>2022-08-17T07:05:44Z</time>
      </trkpt>
      <trkpt lat="44.93287" lon="1.11776">
        <ele>231.6</ele>
        <time>2022-08-17T07:05:46Z</time>
      </trkpt>
      <trkpt lat="44.93289" lon="1.11769">
        <ele>231.7</ele>
        <time>2022-08-17T07:05:48Z</time>
      </trkpt>
      <trkpt lat="44.9329" lon="1.11762">
        <ele>231.9</ele>
        <time>2022-08-17T07:05:50Z</time>
      </trkpt>
      <trkpt lat="44.9329" lon="1.11754">
        <ele>232</ele>
        <time>2022-08-17T07:05:52Z</time>
      </trkpt>
      <trkpt lat="44.93289" lon="1.11746">
        <ele>232</ele>
        <time>2022-08-17T07:05:54Z</time>
      </trkpt>
      <trkpt lat="44.93285" lon="1.11736">
        <ele>231.8</ele>
        <time>2022-08-17T07:05:56Z</time>
      </trkpt>
      <trkpt lat="44.93283" lon="1.11728">
        <ele>231.5</ele>
        <time>2022-08-17T07:05:58Z</time>
      </trkpt>
      <trkpt lat="44.9328" lon="1.11717">
        <ele>231.2</ele>
        <time>2022-08-17T07:06:00Z</time>
      </trkpt>
      <trkpt lat="44.93277" lon="1.11708">
        <ele>231</ele>
        <time>2022-08-17T07:06:02Z</time>
      </trkpt>
      <trkpt lat="44.93274" lon="1.11697">
        <ele>230.8</ele>
        <time>2022-08-17T07:06:04Z</time>
      </trkpt>
      <trkpt lat="44.93271" lon="1.11687">
        <ele>230.7</ele>
        <time>2022-08-17T07:06:06Z</time>
      </trkpt>
      <trkpt lat="44.93268" lon="1.11675">
        <ele>230.5</ele>
        <time>2022-08-17T07:06:08Z</time>
      </trkpt>
      <trkpt lat="44.93265" lon="1.11664">
        <ele>230.1</ele>
        <time>2022-08-17T07:06:10Z</time>
      </trkpt>
      <trkpt lat="44.93262" lon="1.11652">
        <ele>229.4</ele>
        <time>2022-08-17T07:06:12Z</time>
      </trkpt>
      <trkpt lat="44.9326" lon="1.11639">
        <ele>228.5</ele>
        <time>2022-08-17T07:06:14Z</time>
      </trkpt>
      <trkpt lat="44.93259" lon="1.11627">
        <ele>227.6</ele>
        <time>2022-08-17T07:06:16Z</time>
      </trkpt>
      <trkpt lat="44.93257" lon="1.11615">
        <ele>226.8</ele>
        <time>2022-08-17T07:06:18Z</time>
      </trkpt>
      <trkpt lat="44.93255" lon="1.11603">
        <ele>226</ele>
        <time>2022-08-17T07:06:20Z</time>
      </trkpt>
      <trkpt lat="44.93253" lon="1.11593">
        <ele>225.4</ele>
        <time>2022-08-17T07:06:22Z</time>
      </trkpt>
      <trkpt lat="44.93252" lon="1.11582">
        <ele>224.7</ele>
        <time>2022-08-17T07:06:24Z</time>
      </trkpt>
      <trkpt lat="44.93249" lon="1.11573">
        <ele>225.1</ele>
        <time>2022-08-17T07:06:26Z</time>
      </trkpt>
      <trkpt lat="44.93249" lon="1.11562">
        <ele>225</ele>
        <time>2022-08-17T07:06:28Z</time>
      </trkpt>
      <trkpt lat="44.93247" lon="1.11552">
        <ele>225.1</ele>
        <time>2022-08-17T07:06:30Z</time>
      </trkpt>
      <trkpt lat="44.93246" lon="1.11541">
        <ele>225.1</ele>
        <time>2022-08-17T07:06:32Z</time>
      </trkpt>
      <trkpt lat="44.93245" lon="1.1153">
        <ele>225.1</ele>
        <time>2022-08-17T07:06:34Z</time>
      </trkpt>
      <trkpt lat="44.93244" lon="1.11518">
        <ele>225</ele>
        <time>2022-08-17T07:06:36Z</time>
      </trkpt>
      <trkpt lat="44.93242" lon="1.11506">
        <ele>225</ele>
        <time>2022-08-17T07:06:38Z</time>
      </trkpt>
      <trkpt lat="44.93238" lon="1.11494">
        <ele>225.3</ele>
        <time>2022-08-17T07:06:40Z</time>
      </trkpt>
      <trkpt lat="44.93232" lon="1.11483">
        <ele>225.8</ele>
        <time>2022-08-17T07:06:42Z</time>
      </trkpt>
      <trkpt lat="44.93224" lon="1.11471">
        <ele>226.4</ele>
        <time>2022-08-17T07:06:44Z</time>
      </trkpt>
      <trkpt lat="44.93214" lon="1.11459">
        <ele>226.9</ele>
        <time>2022-08-17T07:06:46Z</time>
      </trkpt>
      <trkpt lat="44.93204" lon="1.11447">
        <ele>227.1</ele>
        <time>2022-08-17T07:06:48Z</time>
      </trkpt>
      <trkpt lat="44.93195" lon="1.11432">
        <ele>227</ele>
        <time>2022-08-17T07:06:50Z</time>
      </trkpt>
      <trkpt lat="44.93187" lon="1.11413">
        <ele>226.2</ele>
        <time>2022-08-17T07:06:52Z</time>
      </trkpt>
      <trkpt lat="44.9318" lon="1.11395">
        <ele>224.8</ele>
        <time>2022-08-17T07:06:54Z</time>
      </trkpt>
      <trkpt lat="44.93173" lon="1.11378">
        <ele>223.5</ele>
        <time>2022-08-17T07:06:56Z</time>
      </trkpt>
      <trkpt lat="44.93163" lon="1.11362">
        <ele>222.9</ele>
        <time>2022-08-17T07:06:58Z</time>
      </trkpt>
      <trkpt lat="44.93152" lon="1.11348">
        <ele>223.3</ele>
        <time>2022-08-17T07:07:00Z</time>
      </trkpt>
      <trkpt lat="44.9314" lon="1.11333">
        <ele>223.5</ele>
        <time>2022-08-17T07:07:02Z</time>
      </trkpt>
      <trkpt lat="44.93127" lon="1.11321">
        <ele>224.3</ele>
        <time>2022-08-17T07:07:04Z</time>
      </trkpt>
      <trkpt lat="44.93113" lon="1.11312">
        <ele>225.5</ele>
        <time>2022-08-17T07:07:06Z</time>
      </trkpt>
      <trkpt lat="44.93101" lon="1.11301">
        <ele>226.5</ele>
        <time>2022-08-17T07:07:08Z</time>
      </trkpt>
      <trkpt lat="44.93093" lon="1.11285">
        <ele>226.6</ele>
        <time>2022-08-17T07:07:10Z</time>
      </trkpt>
      <trkpt lat="44.93089" lon="1.11267">
        <ele>226.1</ele>
        <time>2022-08-17T07:07:12Z</time>
      </trkpt>
      <trkpt lat="44.93087" lon="1.11252">
        <ele>225.5</ele>
        <time>2022-08-17T07:07:14Z</time>
      </trkpt>
      <trkpt lat="44.93086" lon="1.11238">
        <ele>225.4</ele>
        <time>2022-08-17T07:07:16Z</time>
      </trkpt>
      <trkpt lat="44.93086" lon="1.11225">
        <ele>225.3</ele>
        <time>2022-08-17T07:07:18Z</time>
      </trkpt>
      <trkpt lat="44.93084" lon="1.11212">
        <ele>225.4</ele>
        <time>2022-08-17T07:07:20Z</time>
      </trkpt>
      <trkpt lat="44.93083" lon="1.11197">
        <ele>225.4</ele>
        <time>2022-08-17T07:07:22Z</time>
      </trkpt>
      <trkpt lat="44.93084" lon="1.11183">
        <ele>225.1</ele>
        <time>2022-08-17T07:07:24Z</time>
      </trkpt>
      <trkpt lat="44.93086" lon="1.11168">
        <ele>224.5</ele>
        <time>2022-08-17T07:07:26Z</time>
      </trkpt>
      <trkpt lat="44.93089" lon="1.11156">
        <ele>223.6</ele>
        <time>2022-08-17T07:07:28Z</time>
      </trkpt>
      <trkpt lat="44.93092" lon="1.11143">
        <ele>222.7</ele>
        <time>2022-08-17T07:07:30Z</time>
      </trkpt>
      <trkpt lat="44.93095" lon="1.1113">
        <ele>221.8</ele>
        <time>2022-08-17T07:07:32Z</time>
      </trkpt>
      <trkpt lat="44.93098" lon="1.11118">
        <ele>221</ele>
        <time>2022-08-17T07:07:34Z</time>
      </trkpt>
      <trkpt lat="44.93099" lon="1.11108">
        <ele>220.4</ele>
        <time>2022-08-17T07:07:36Z</time>
      </trkpt>
      <trkpt lat="44.931" lon="1.11097">
        <ele>220</ele>
        <time>2022-08-17T07:07:38Z</time>
      </trkpt>
      <trkpt lat="44.93099" lon="1.11086">
        <ele>219.8</ele>
        <time>2022-08-17T07:07:40Z</time>
      </trkpt>
      <trkpt lat="44.93094" lon="1.11076">
        <ele>219.7</ele>
        <time>2022-08-17T07:07:42Z</time>
      </trkpt>
      <trkpt lat="44.93088" lon="1.11068">
        <ele>219.8</ele>
        <time>2022-08-17T07:07:44Z</time>
      </trkpt>
      <trkpt lat="44.93081" lon="1.1106">
        <ele>220</ele>
        <time>2022-08-17T07:07:46Z</time>
      </trkpt>
      <trkpt lat="44.9307" lon="1.11059">
        <ele>221.8</ele>
        <time>2022-08-17T07:07:48Z</time>
      </trkpt>
      <trkpt lat="44.93062" lon="1.11053">
        <ele>222.6</ele>
        <time>2022-08-17T07:07:50Z</time>
      </trkpt>
      <trkpt lat="44.93055" lon="1.11047">
        <ele>223.4</ele>
        <time>2022-08-17T07:07:52Z</time>
      </trkpt>
      <trkpt lat="44.93048" lon="1.11038">
        <ele>224.1</ele>
        <time>2022-08-17T07:07:54Z</time>
      </trkpt>
      <trkpt lat="44.93039" lon="1.11028">
        <ele>225.1</ele>
        <time>2022-08-17T07:07:56Z</time>
      </trkpt>
      <trkpt lat="44.93033" lon="1.11017">
        <ele>225.6</ele>
        <time>2022-08-17T07:07:58Z</time>
      </trkpt>
      <trkpt lat="44.93027" lon="1.11005">
        <ele>226.1</ele>
        <time>2022-08-17T07:08:00Z</time>
      </trkpt>
      <trkpt lat="44.93023" lon="1.10992">
        <ele>226.2</ele>
        <time>2022-08-17T07:08:02Z</time>
      </trkpt>
      <trkpt lat="44.93018" lon="1.10978">
        <ele>225.9</ele>
        <time>2022-08-17T07:08:04Z</time>
      </trkpt>
      <trkpt lat="44.93013" lon="1.10964">
        <ele>226</ele>
        <time>2022-08-17T07:08:06Z</time>
      </trkpt>
      <trkpt lat="44.93008" lon="1.10949">
        <ele>225.5</ele>
        <time>2022-08-17T07:08:08Z</time>
      </trkpt>
      <trkpt lat="44.93003" lon="1.10932">
        <ele>224.8</ele>
        <time>2022-08-17T07:08:10Z</time>
      </trkpt>
      <trkpt lat="44.93" lon="1.10914">
        <ele>223.7</ele>
        <time>2022-08-17T07:08:12Z</time>
      </trkpt>
      <trkpt lat="44.92996" lon="1.10895">
        <ele>221.8</ele>
        <time>2022-08-17T07:08:14Z</time>
      </trkpt>
      <trkpt lat="44.92992" lon="1.10875">
        <ele>219.5</ele>
        <time>2022-08-17T07:08:16Z</time>
      </trkpt>
      <trkpt lat="44.92987" lon="1.10855">
        <ele>217.2</ele>
        <time>2022-08-17T07:08:18Z</time>
      </trkpt>
      <trkpt lat="44.92981" lon="1.10836">
        <ele>214.9</ele>
        <time>2022-08-17T07:08:20Z</time>
      </trkpt>
      <trkpt lat="44.92974" lon="1.10815">
        <ele>213.3</ele>
        <time>2022-08-17T07:08:22Z</time>
      </trkpt>
      <trkpt lat="44.9297" lon="1.10789">
        <ele>211.6</ele>
        <time>2022-08-17T07:08:24Z</time>
      </trkpt>
      <trkpt lat="44.92973" lon="1.10791">
        <ele>211.8</ele>
        <time>2022-08-17T07:08:26Z</time>
      </trkpt>
      <trkpt lat="44.92969" lon="1.10772">
        <ele>210.5</ele>
        <time>2022-08-17T07:08:28Z</time>
      </trkpt>
      <trkpt lat="44.92967" lon="1.10751">
        <ele>209.1</ele>
        <time>2022-08-17T07:08:30Z</time>
      </trkpt>
      <trkpt lat="44.92966" lon="1.10731">
        <ele>209.2</ele>
        <time>2022-08-17T07:08:32Z</time>
      </trkpt>
      <trkpt lat="44.92964" lon="1.10712">
        <ele>209.3</ele>
        <time>2022-08-17T07:08:34Z</time>
      </trkpt>
      <trkpt lat="44.92962" lon="1.10691">
        <ele>209.4</ele>
        <time>2022-08-17T07:08:36Z</time>
      </trkpt>
      <trkpt lat="44.92961" lon="1.10671">
        <ele>209.6</ele>
        <time>2022-08-17T07:08:38Z</time>
      </trkpt>
      <trkpt lat="44.9296" lon="1.10652">
        <ele>209.7</ele>
        <time>2022-08-17T07:08:40Z</time>
      </trkpt>
      <trkpt lat="44.9296" lon="1.10634">
        <ele>209.8</ele>
        <time>2022-08-17T07:08:42Z</time>
      </trkpt>
      <trkpt lat="44.92962" lon="1.10617">
        <ele>210</ele>
        <time>2022-08-17T07:08:44Z</time>
      </trkpt>
      <trkpt lat="44.92962" lon="1.106">
        <ele>210.1</ele>
        <time>2022-08-17T07:08:46Z</time>
      </trkpt>
      <trkpt lat="44.92963" lon="1.10585">
        <ele>210.2</ele>
        <time>2022-08-17T07:08:48Z</time>
      </trkpt>
      <trkpt lat="44.92964" lon="1.1057">
        <ele>210.3</ele>
        <time>2022-08-17T07:08:50Z</time>
      </trkpt>
      <trkpt lat="44.92966" lon="1.10556">
        <ele>210.5</ele>
        <time>2022-08-17T07:08:52Z</time>
      </trkpt>
      <trkpt lat="44.92969" lon="1.10544">
        <ele>210.7</ele>
        <time>2022-08-17T07:08:54Z</time>
      </trkpt>
      <trkpt lat="44.92972" lon="1.10534">
        <ele>210.9</ele>
        <time>2022-08-17T07:08:56Z</time>
      </trkpt>
      <trkpt lat="44.92975" lon="1.10524">
        <ele>211.1</ele>
        <time>2022-08-17T07:08:58Z</time>
      </trkpt>
      <trkpt lat="44.92977" lon="1.10515">
        <ele>211.3</ele>
        <time>2022-08-17T07:09:00Z</time>
      </trkpt>
      <trkpt lat="44.92982" lon="1.10508">
        <ele>211.7</ele>
        <time>2022-08-17T07:09:02Z</time>
      </trkpt>
      <trkpt lat="44.92988" lon="1.10503">
        <ele>212.1</ele>
        <time>2022-08-17T07:09:04Z</time>
      </trkpt>
      <trkpt lat="44.92996" lon="1.10498">
        <ele>212.7</ele>
        <time>2022-08-17T07:09:06Z</time>
      </trkpt>
      <trkpt lat="44.93003" lon="1.10494">
        <ele>213</ele>
        <time>2022-08-17T07:09:08Z</time>
      </trkpt>
      <trkpt lat="44.93007" lon="1.10489">
        <ele>212.8</ele>
        <time>2022-08-17T07:09:10Z</time>
      </trkpt>
      <trkpt lat="44.93013" lon="1.10483">
        <ele>212.5</ele>
        <time>2022-08-17T07:09:12Z</time>
      </trkpt>
      <trkpt lat="44.93017" lon="1.10477">
        <ele>212.4</ele>
        <time>2022-08-17T07:09:14Z</time>
      </trkpt>
      <trkpt lat="44.93021" lon="1.10471">
        <ele>212.2</ele>
        <time>2022-08-17T07:09:16Z</time>
      </trkpt>
      <trkpt lat="44.93027" lon="1.10465">
        <ele>211.9</ele>
        <time>2022-08-17T07:09:18Z</time>
      </trkpt>
      <trkpt lat="44.93031" lon="1.10459">
        <ele>211.7</ele>
        <time>2022-08-17T07:09:20Z</time>
      </trkpt>
      <trkpt lat="44.93036" lon="1.10453">
        <ele>211.5</ele>
        <time>2022-08-17T07:09:22Z</time>
      </trkpt>
      <trkpt lat="44.93039" lon="1.10447">
        <ele>211.4</ele>
        <time>2022-08-17T07:09:24Z</time>
      </trkpt>
      <trkpt lat="44.93046" lon="1.10439">
        <ele>211</ele>
        <time>2022-08-17T07:09:26Z</time>
      </trkpt>
      <trkpt lat="44.93051" lon="1.10432">
        <ele>210.6</ele>
        <time>2022-08-17T07:09:28Z</time>
      </trkpt>
      <trkpt lat="44.93058" lon="1.10422">
        <ele>210.3</ele>
        <time>2022-08-17T07:09:30Z</time>
      </trkpt>
      <trkpt lat="44.93067" lon="1.10409">
        <ele>210.2</ele>
        <time>2022-08-17T07:09:32Z</time>
      </trkpt>
      <trkpt lat="44.93075" lon="1.10398">
        <ele>210.6</ele>
        <time>2022-08-17T07:09:34Z</time>
      </trkpt>
      <trkpt lat="44.93085" lon="1.10384">
        <ele>211.2</ele>
        <time>2022-08-17T07:09:36Z</time>
      </trkpt>
      <trkpt lat="44.93095" lon="1.1037">
        <ele>211.2</ele>
        <time>2022-08-17T07:09:38Z</time>
      </trkpt>
      <trkpt lat="44.93106" lon="1.10358">
        <ele>210.9</ele>
        <time>2022-08-17T07:09:40Z</time>
      </trkpt>
      <trkpt lat="44.93117" lon="1.10349">
        <ele>210.3</ele>
        <time>2022-08-17T07:09:42Z</time>
      </trkpt>
      <trkpt lat="44.93132" lon="1.10344">
        <ele>208.6</ele>
        <time>2022-08-17T07:09:44Z</time>
      </trkpt>
      <trkpt lat="44.93147" lon="1.1034">
        <ele>206.9</ele>
        <time>2022-08-17T07:09:46Z</time>
      </trkpt>
      <trkpt lat="44.93161" lon="1.10335">
        <ele>205.5</ele>
        <time>2022-08-17T07:09:48Z</time>
      </trkpt>
      <trkpt lat="44.93179" lon="1.1033">
        <ele>204.8</ele>
        <time>2022-08-17T07:09:50Z</time>
      </trkpt>
      <trkpt lat="44.93194" lon="1.10324">
        <ele>204.5</ele>
        <time>2022-08-17T07:09:52Z</time>
      </trkpt>
      <trkpt lat="44.93211" lon="1.10321">
        <ele>203.8</ele>
        <time>2022-08-17T07:09:54Z</time>
      </trkpt>
      <trkpt lat="44.93224" lon="1.10319">
        <ele>203.1</ele>
        <time>2022-08-17T07:09:56Z</time>
      </trkpt>
      <trkpt lat="44.93238" lon="1.10316">
        <ele>202.3</ele>
        <time>2022-08-17T07:09:58Z</time>
      </trkpt>
      <trkpt lat="44.93249" lon="1.10305">
        <ele>201.8</ele>
        <time>2022-08-17T07:10:00Z</time>
      </trkpt>
      <trkpt lat="44.9326" lon="1.10295">
        <ele>200.6</ele>
        <time>2022-08-17T07:10:02Z</time>
      </trkpt>
      <trkpt lat="44.93273" lon="1.10291">
        <ele>198.8</ele>
        <time>2022-08-17T07:10:04Z</time>
      </trkpt>
      <trkpt lat="44.93288" lon="1.10289">
        <ele>196.7</ele>
        <time>2022-08-17T07:10:06Z</time>
      </trkpt>
      <trkpt lat="44.93303" lon="1.10289">
        <ele>194.6</ele>
        <time>2022-08-17T07:10:08Z</time>
      </trkpt>
      <trkpt lat="44.9332" lon="1.10293">
        <ele>192.4</ele>
        <time>2022-08-17T07:10:10Z</time>
      </trkpt>
      <trkpt lat="44.93335" lon="1.10298">
        <ele>190.5</ele>
        <time>2022-08-17T07:10:12Z</time>
      </trkpt>
      <trkpt lat="44.93349" lon="1.10305">
        <ele>189.6</ele>
        <time>2022-08-17T07:10:14Z</time>
      </trkpt>
      <trkpt lat="44.93361" lon="1.10314">
        <ele>189</ele>
        <time>2022-08-17T07:10:16Z</time>
      </trkpt>
      <trkpt lat="44.93368" lon="1.10324">
        <ele>188.8</ele>
        <time>2022-08-17T07:10:18Z</time>
      </trkpt>
      <trkpt lat="44.93375" lon="1.10335">
        <ele>188.5</ele>
        <time>2022-08-17T07:10:20Z</time>
      </trkpt>
      <trkpt lat="44.93384" lon="1.10339">
        <ele>187.5</ele>
        <time>2022-08-17T07:10:22Z</time>
      </trkpt>
      <trkpt lat="44.93395" lon="1.10338">
        <ele>186.6</ele>
        <time>2022-08-17T07:10:24Z</time>
      </trkpt>
      <trkpt lat="44.93405" lon="1.10335">
        <ele>185.9</ele>
        <time>2022-08-17T07:10:26Z</time>
      </trkpt>
      <trkpt lat="44.93414" lon="1.10333">
        <ele>185.2</ele>
        <time>2022-08-17T07:10:28Z</time>
      </trkpt>
      <trkpt lat="44.93424" lon="1.10336">
        <ele>184.2</ele>
        <time>2022-08-17T07:10:30Z</time>
      </trkpt>
      <trkpt lat="44.93435" lon="1.10336">
        <ele>183.4</ele>
        <time>2022-08-17T07:10:32Z</time>
      </trkpt>
      <trkpt lat="44.93446" lon="1.10331">
        <ele>182.4</ele>
        <time>2022-08-17T07:10:34Z</time>
      </trkpt>
      <trkpt lat="44.93458" lon="1.10324">
        <ele>181.2</ele>
        <time>2022-08-17T07:10:36Z</time>
      </trkpt>
      <trkpt lat="44.93469" lon="1.10317">
        <ele>180</ele>
        <time>2022-08-17T07:10:38Z</time>
      </trkpt>
      <trkpt lat="44.93481" lon="1.10312">
        <ele>178.8</ele>
        <time>2022-08-17T07:10:40Z</time>
      </trkpt>
      <trkpt lat="44.93493" lon="1.10308">
        <ele>177.7</ele>
        <time>2022-08-17T07:10:42Z</time>
      </trkpt>
      <trkpt lat="44.93507" lon="1.10307">
        <ele>176.4</ele>
        <time>2022-08-17T07:10:44Z</time>
      </trkpt>
      <trkpt lat="44.93522" lon="1.10308">
        <ele>175.1</ele>
        <time>2022-08-17T07:10:46Z</time>
      </trkpt>
      <trkpt lat="44.93535" lon="1.10309">
        <ele>174.1</ele>
        <time>2022-08-17T07:10:48Z</time>
      </trkpt>
      <trkpt lat="44.93552" lon="1.1031">
        <ele>172.5</ele>
        <time>2022-08-17T07:10:50Z</time>
      </trkpt>
      <trkpt lat="44.93567" lon="1.10313">
        <ele>171.3</ele>
        <time>2022-08-17T07:10:52Z</time>
      </trkpt>
      <trkpt lat="44.93583" lon="1.10316">
        <ele>169.8</ele>
        <time>2022-08-17T07:10:54Z</time>
      </trkpt>
      <trkpt lat="44.93594" lon="1.10321">
        <ele>168.6</ele>
        <time>2022-08-17T07:10:56Z</time>
      </trkpt>
      <trkpt lat="44.936" lon="1.10329">
        <ele>167.8</ele>
        <time>2022-08-17T07:10:58Z</time>
      </trkpt>
      <trkpt lat="44.93609" lon="1.10333">
        <ele>166.6</ele>
        <time>2022-08-17T07:11:00Z</time>
      </trkpt>
      <trkpt lat="44.93618" lon="1.10337">
        <ele>165.3</ele>
        <time>2022-08-17T07:11:02Z</time>
      </trkpt>
      <trkpt lat="44.93628" lon="1.10338">
        <ele>164</ele>
        <time>2022-08-17T07:11:04Z</time>
      </trkpt>
      <trkpt lat="44.93637" lon="1.1034">
        <ele>162.8</ele>
        <time>2022-08-17T07:11:06Z</time>
      </trkpt>
      <trkpt lat="44.93643" lon="1.10342">
        <ele>161.8</ele>
        <time>2022-08-17T07:11:08Z</time>
      </trkpt>
      <trkpt lat="44.93647" lon="1.10343">
        <ele>161.4</ele>
        <time>2022-08-17T07:11:10Z</time>
      </trkpt>
      <trkpt lat="44.9365" lon="1.10343">
        <ele>160.9</ele>
        <time>2022-08-17T07:11:12Z</time>
      </trkpt>
      <trkpt lat="44.93658" lon="1.10344">
        <ele>159.8</ele>
        <time>2022-08-17T07:11:14Z</time>
      </trkpt>
      <trkpt lat="44.93663" lon="1.10345">
        <ele>159.3</ele>
        <time>2022-08-17T07:11:16Z</time>
      </trkpt>
      <trkpt lat="44.93669" lon="1.10345">
        <ele>158.5</ele>
        <time>2022-08-17T07:11:18Z</time>
      </trkpt>
      <trkpt lat="44.93676" lon="1.10344">
        <ele>158</ele>
        <time>2022-08-17T07:11:20Z</time>
      </trkpt>
      <trkpt lat="44.93684" lon="1.10347">
        <ele>157.2</ele>
        <time>2022-08-17T07:11:22Z</time>
      </trkpt>
      <trkpt lat="44.93689" lon="1.10347">
        <ele>156.9</ele>
        <time>2022-08-17T07:11:24Z</time>
      </trkpt>
      <trkpt lat="44.93693" lon="1.10348">
        <ele>156.5</ele>
        <time>2022-08-17T07:11:26Z</time>
      </trkpt>
      <trkpt lat="44.93698" lon="1.10347">
        <ele>156.1</ele>
        <time>2022-08-17T07:11:28Z</time>
      </trkpt>
      <trkpt lat="44.93705" lon="1.10348">
        <ele>155.5</ele>
        <time>2022-08-17T07:11:30Z</time>
      </trkpt>
      <trkpt lat="44.93712" lon="1.10351">
        <ele>154.8</ele>
        <time>2022-08-17T07:11:32Z</time>
      </trkpt>
      <trkpt lat="44.93719" lon="1.10352">
        <ele>154.1</ele>
        <time>2022-08-17T07:11:34Z</time>
      </trkpt>
      <trkpt lat="44.93728" lon="1.10354">
        <ele>153.2</ele>
        <time>2022-08-17T07:11:36Z</time>
      </trkpt>
      <trkpt lat="44.93737" lon="1.10352">
        <ele>152.5</ele>
        <time>2022-08-17T07:11:38Z</time>
      </trkpt>
      <trkpt lat="44.93745" lon="1.10353">
        <ele>151.8</ele>
        <time>2022-08-17T07:11:40Z</time>
      </trkpt>
      <trkpt lat="44.93752" lon="1.10353">
        <ele>151.4</ele>
        <time>2022-08-17T07:11:42Z</time>
      </trkpt>
      <trkpt lat="44.93758" lon="1.10354">
        <ele>151.5</ele>
        <time>2022-08-17T07:11:44Z</time>
      </trkpt>
      <trkpt lat="44.93759" lon="1.10355">
        <ele>151.4</ele>
        <time>2022-08-17T07:11:46Z</time>
      </trkpt>
      <trkpt lat="44.93771" lon="1.10363">
        <ele>150.9</ele>
        <time>2022-08-17T07:11:48Z</time>
      </trkpt>
      <trkpt lat="44.93779" lon="1.10375">
        <ele>149.6</ele>
        <time>2022-08-17T07:11:50Z</time>
      </trkpt>
      <trkpt lat="44.93786" lon="1.10386">
        <ele>148.4</ele>
        <time>2022-08-17T07:11:52Z</time>
      </trkpt>
      <trkpt lat="44.93794" lon="1.10398">
        <ele>146.8</ele>
        <time>2022-08-17T07:11:54Z</time>
      </trkpt>
      <trkpt lat="44.93804" lon="1.10408">
        <ele>145.3</ele>
        <time>2022-08-17T07:11:56Z</time>
      </trkpt>
      <trkpt lat="44.93811" lon="1.10417">
        <ele>143.8</ele>
        <time>2022-08-17T07:11:58Z</time>
      </trkpt>
      <trkpt lat="44.9382" lon="1.10425">
        <ele>143.7</ele>
        <time>2022-08-17T07:12:00Z</time>
      </trkpt>
      <trkpt lat="44.93827" lon="1.10426">
        <ele>143.5</ele>
        <time>2022-08-17T07:12:02Z</time>
      </trkpt>
      <trkpt lat="44.93835" lon="1.10427">
        <ele>143.3</ele>
        <time>2022-08-17T07:12:04Z</time>
      </trkpt>
      <trkpt lat="44.93841" lon="1.10426">
        <ele>143.1</ele>
        <time>2022-08-17T07:12:06Z</time>
      </trkpt>
      <trkpt lat="44.93843" lon="1.10423">
        <ele>142.8</ele>
        <time>2022-08-17T07:12:08Z</time>
      </trkpt>
      <trkpt lat="44.93847" lon="1.1042">
        <ele>142.6</ele>
        <time>2022-08-17T07:12:10Z</time>
      </trkpt>
      <trkpt lat="44.93852" lon="1.10417">
        <ele>142.3</ele>
        <time>2022-08-17T07:12:12Z</time>
      </trkpt>
      <trkpt lat="44.93854" lon="1.10417">
        <ele>142.3</ele>
        <time>2022-08-17T07:12:14Z</time>
      </trkpt>
      <trkpt lat="44.93856" lon="1.10417">
        <ele>142.2</ele>
        <time>2022-08-17T07:12:16Z</time>
      </trkpt>
      <trkpt lat="44.93859" lon="1.10416">
        <ele>142.2</ele>
        <time>2022-08-17T07:12:18Z</time>
      </trkpt>
      <trkpt lat="44.93863" lon="1.10414">
        <ele>142.3</ele>
        <time>2022-08-17T07:12:20Z</time>
      </trkpt>
      <trkpt lat="44.93864" lon="1.10415">
        <ele>142.2</ele>
        <time>2022-08-17T07:12:22Z</time>
      </trkpt>
      <trkpt lat="44.93866" lon="1.10416">
        <ele>142</ele>
        <time>2022-08-17T07:12:24Z</time>
      </trkpt>
      <trkpt lat="44.93868" lon="1.10417">
        <ele>141.7</ele>
        <time>2022-08-17T07:12:26Z</time>
      </trkpt>
      <trkpt lat="44.93872" lon="1.10417">
        <ele>141.6</ele>
        <time>2022-08-17T07:12:28Z</time>
      </trkpt>
      <trkpt lat="44.93873" lon="1.10415">
        <ele>141.8</ele>
        <time>2022-08-17T07:12:30Z</time>
      </trkpt>
      <trkpt lat="44.93877" lon="1.10415">
        <ele>141.7</ele>
        <time>2022-08-17T07:12:32Z</time>
      </trkpt>
      <trkpt lat="44.93879" lon="1.10416">
        <ele>141.5</ele>
        <time>2022-08-17T07:12:34Z</time>
      </trkpt>
      <trkpt lat="44.93881" lon="1.10415">
        <ele>141.6</ele>
        <time>2022-08-17T07:12:36Z</time>
      </trkpt>
      <trkpt lat="44.93882" lon="1.10413">
        <ele>141.8</ele>
        <time>2022-08-17T07:12:38Z</time>
      </trkpt>
      <trkpt lat="44.93882" lon="1.10411">
        <ele>142.2</ele>
        <time>2022-08-17T07:12:40Z</time>
      </trkpt>
      <trkpt lat="44.93881" lon="1.1041">
        <ele>142.3</ele>
        <time>2022-08-17T07:12:42Z</time>
      </trkpt>
      <trkpt lat="44.93879" lon="1.10412">
        <ele>142.2</ele>
        <time>2022-08-17T07:12:44Z</time>
      </trkpt>
      <trkpt lat="44.93877" lon="1.10412">
        <ele>142.1</ele>
        <time>2022-08-17T07:12:46Z</time>
      </trkpt>
      <trkpt lat="44.93874" lon="1.10413">
        <ele>142.1</ele>
        <time>2022-08-17T07:12:48Z</time>
      </trkpt>
      <trkpt lat="44.93872" lon="1.10413">
        <ele>142.2</ele>
        <time>2022-08-17T07:12:50Z</time>
      </trkpt>
      <trkpt lat="44.93868" lon="1.10414">
        <ele>142.2</ele>
        <time>2022-08-17T07:12:52Z</time>
      </trkpt>
      <trkpt lat="44.93865" lon="1.10414">
        <ele>142.3</ele>
        <time>2022-08-17T07:12:54Z</time>
      </trkpt>
      <trkpt lat="44.93863" lon="1.10414">
        <ele>142.4</ele>
        <time>2022-08-17T07:12:56Z</time>
      </trkpt>
      <trkpt lat="44.9386" lon="1.10415">
        <ele>142.2</ele>
        <time>2022-08-17T07:12:58Z</time>
      </trkpt>
      <trkpt lat="44.93861" lon="1.10419">
        <ele>142.1</ele>
        <time>2022-08-17T07:13:00Z</time>
      </trkpt>
      <trkpt lat="44.93863" lon="1.10423">
        <ele>142.1</ele>
        <time>2022-08-17T07:13:02Z</time>
      </trkpt>
      <trkpt lat="44.93864" lon="1.10423">
        <ele>142</ele>
        <time>2022-08-17T07:13:04Z</time>
      </trkpt>
      <trkpt lat="44.93864" lon="1.10423">
        <ele>142</ele>
        <time>2022-08-17T07:13:06Z</time>
      </trkpt>
      <trkpt lat="44.93864" lon="1.10426">
        <ele>142.1</ele>
        <time>2022-08-17T07:13:08Z</time>
      </trkpt>
      <trkpt lat="44.93867" lon="1.10426">
        <ele>142</ele>
        <time>2022-08-17T07:13:10Z</time>
      </trkpt>
      <trkpt lat="44.93873" lon="1.10426">
        <ele>141.7</ele>
        <time>2022-08-17T07:13:12Z</time>
      </trkpt>
      <trkpt lat="44.93879" lon="1.1043">
        <ele>141.6</ele>
        <time>2022-08-17T07:13:14Z</time>
      </trkpt>
      <trkpt lat="44.93885" lon="1.10431">
        <ele>141.3</ele>
        <time>2022-08-17T07:13:16Z</time>
      </trkpt>
      <trkpt lat="44.93893" lon="1.10432">
        <ele>141</ele>
        <time>2022-08-17T07:13:18Z</time>
      </trkpt>
      <trkpt lat="44.93898" lon="1.10437">
        <ele>140.8</ele>
        <time>2022-08-17T07:13:20Z</time>
      </trkpt>
      <trkpt lat="44.93908" lon="1.10439">
        <ele>140.4</ele>
        <time>2022-08-17T07:13:22Z</time>
      </trkpt>
      <trkpt lat="44.93916" lon="1.10444">
        <ele>140</ele>
        <time>2022-08-17T07:13:24Z</time>
      </trkpt>
      <trkpt lat="44.93918" lon="1.10447">
        <ele>139.9</ele>
        <time>2022-08-17T07:13:26Z</time>
      </trkpt>
      <trkpt lat="44.93931" lon="1.1045">
        <ele>139.1</ele>
        <time>2022-08-17T07:13:28Z</time>
      </trkpt>
      <trkpt lat="44.93937" lon="1.10452">
        <ele>138.7</ele>
        <time>2022-08-17T07:13:30Z</time>
      </trkpt>
      <trkpt lat="44.93942" lon="1.10453">
        <ele>138.4</ele>
        <time>2022-08-17T07:13:32Z</time>
      </trkpt>
      <trkpt lat="44.93945" lon="1.10453">
        <ele>138.2</ele>
        <time>2022-08-17T07:13:34Z</time>
      </trkpt>
      <trkpt lat="44.93954" lon="1.10453">
        <ele>137.6</ele>
        <time>2022-08-17T07:13:36Z</time>
      </trkpt>
      <trkpt lat="44.93959" lon="1.10454">
        <ele>137.3</ele>
        <time>2022-08-17T07:13:38Z</time>
      </trkpt>
      <trkpt lat="44.93965" lon="1.10455">
        <ele>137</ele>
        <time>2022-08-17T07:13:40Z</time>
      </trkpt>
      <trkpt lat="44.93968" lon="1.10454">
        <ele>136.8</ele>
        <time>2022-08-17T07:13:42Z</time>
      </trkpt>
      <trkpt lat="44.93971" lon="1.10453">
        <ele>136.6</ele>
        <time>2022-08-17T07:13:44Z</time>
      </trkpt>
      <trkpt lat="44.93977" lon="1.10451">
        <ele>136.1</ele>
        <time>2022-08-17T07:13:46Z</time>
      </trkpt>
      <trkpt lat="44.93985" lon="1.10447">
        <ele>135.4</ele>
        <time>2022-08-17T07:13:48Z</time>
      </trkpt>
      <trkpt lat="44.93989" lon="1.10443">
        <ele>135</ele>
        <time>2022-08-17T07:13:50Z</time>
      </trkpt>
      <trkpt lat="44.9399" lon="1.10439">
        <ele>134.8</ele>
        <time>2022-08-17T07:13:52Z</time>
      </trkpt>
      <trkpt lat="44.93998" lon="1.10431">
        <ele>133.8</ele>
        <time>2022-08-17T07:13:54Z</time>
      </trkpt>
      <trkpt lat="44.94005" lon="1.10425">
        <ele>133.5</ele>
        <time>2022-08-17T07:13:56Z</time>
      </trkpt>
      <trkpt lat="44.94006" lon="1.10421">
        <ele>133.3</ele>
        <time>2022-08-17T07:13:58Z</time>
      </trkpt>
      <trkpt lat="44.94015" lon="1.10414">
        <ele>133.3</ele>
        <time>2022-08-17T07:14:00Z</time>
      </trkpt>
      <trkpt lat="44.94019" lon="1.10408">
        <ele>133.6</ele>
        <time>2022-08-17T07:14:02Z</time>
      </trkpt>
      <trkpt lat="44.94021" lon="1.104">
        <ele>133.9</ele>
        <time>2022-08-17T07:14:04Z</time>
      </trkpt>
      <trkpt lat="44.94029" lon="1.10393">
        <ele>133.7</ele>
        <time>2022-08-17T07:14:06Z</time>
      </trkpt>
      <trkpt lat="44.94028" lon="1.10383">
        <ele>134</ele>
        <time>2022-08-17T07:14:08Z</time>
      </trkpt>
      <trkpt lat="44.94039" lon="1.10379">
        <ele>133.1</ele>
        <time>2022-08-17T07:14:10Z</time>
      </trkpt>
      <trkpt lat="44.94046" lon="1.1037">
        <ele>132.1</ele>
        <time>2022-08-17T07:14:12Z</time>
      </trkpt>
      <trkpt lat="44.94052" lon="1.10366">
        <ele>131.3</ele>
        <time>2022-08-17T07:14:14Z</time>
      </trkpt>
      <trkpt lat="44.94059" lon="1.10358">
        <ele>129.9</ele>
        <time>2022-08-17T07:14:16Z</time>
      </trkpt>
      <trkpt lat="44.94066" lon="1.10353">
        <ele>128.3</ele>
        <time>2022-08-17T07:14:18Z</time>
      </trkpt>
      <trkpt lat="44.94069" lon="1.10347">
        <ele>127.4</ele>
        <time>2022-08-17T07:14:20Z</time>
      </trkpt>
      <trkpt lat="44.94074" lon="1.10341">
        <ele>125.8</ele>
        <time>2022-08-17T07:14:22Z</time>
      </trkpt>
      <trkpt lat="44.9408" lon="1.10336">
        <ele>124.1</ele>
        <time>2022-08-17T07:14:24Z</time>
      </trkpt>
      <trkpt lat="44.94083" lon="1.10332">
        <ele>123.4</ele>
        <time>2022-08-17T07:14:26Z</time>
      </trkpt>
      <trkpt lat="44.94084" lon="1.10329">
        <ele>123.7</ele>
        <time>2022-08-17T07:14:28Z</time>
      </trkpt>
      <trkpt lat="44.94088" lon="1.10328">
        <ele>123.7</ele>
        <time>2022-08-17T07:14:30Z</time>
      </trkpt>
      <trkpt lat="44.94092" lon="1.10327">
        <ele>123.5</ele>
        <time>2022-08-17T07:14:32Z</time>
      </trkpt>
      <trkpt lat="44.94096" lon="1.10325">
        <ele>123.5</ele>
        <time>2022-08-17T07:14:34Z</time>
      </trkpt>
      <trkpt lat="44.94101" lon="1.10322">
        <ele>123.5</ele>
        <time>2022-08-17T07:14:36Z</time>
      </trkpt>
      <trkpt lat="44.94111" lon="1.10321">
        <ele>122.6</ele>
        <time>2022-08-17T07:14:38Z</time>
      </trkpt>
      <trkpt lat="44.94119" lon="1.10319">
        <ele>122.1</ele>
        <time>2022-08-17T07:14:40Z</time>
      </trkpt>
      <trkpt lat="44.94127" lon="1.10319">
        <ele>121.4</ele>
        <time>2022-08-17T07:14:42Z</time>
      </trkpt>
      <trkpt lat="44.94131" lon="1.1032">
        <ele>120.9</ele>
        <time>2022-08-17T07:14:44Z</time>
      </trkpt>
      <trkpt lat="44.94133" lon="1.10324">
        <ele>120.5</ele>
        <time>2022-08-17T07:14:46Z</time>
      </trkpt>
      <trkpt lat="44.94136" lon="1.10324">
        <ele>120.3</ele>
        <time>2022-08-17T07:14:48Z</time>
      </trkpt>
      <trkpt lat="44.94141" lon="1.10322">
        <ele>119.9</ele>
        <time>2022-08-17T07:14:50Z</time>
      </trkpt>
      <trkpt lat="44.94143" lon="1.10319">
        <ele>119.7</ele>
        <time>2022-08-17T07:14:52Z</time>
      </trkpt>
      <trkpt lat="44.94148" lon="1.10317">
        <ele>119.4</ele>
        <time>2022-08-17T07:14:54Z</time>
      </trkpt>
      <trkpt lat="44.94152" lon="1.10316">
        <ele>118.9</ele>
        <time>2022-08-17T07:14:56Z</time>
      </trkpt>
      <trkpt lat="44.94157" lon="1.10315">
        <ele>118.4</ele>
        <time>2022-08-17T07:14:58Z</time>
      </trkpt>
      <trkpt lat="44.9416" lon="1.10315">
        <ele>118</ele>
        <time>2022-08-17T07:15:00Z</time>
      </trkpt>
      <trkpt lat="44.94164" lon="1.10313">
        <ele>117.6</ele>
        <time>2022-08-17T07:15:02Z</time>
      </trkpt>
      <trkpt lat="44.94166" lon="1.10312">
        <ele>117.3</ele>
        <time>2022-08-17T07:15:04Z</time>
      </trkpt>
      <trkpt lat="44.94168" lon="1.10311">
        <ele>117.2</ele>
        <time>2022-08-17T07:15:06Z</time>
      </trkpt>
      <trkpt lat="44.94171" lon="1.1031">
        <ele>117.2</ele>
        <time>2022-08-17T07:15:08Z</time>
      </trkpt>
      <trkpt lat="44.94173" lon="1.10309">
        <ele>117.2</ele>
        <time>2022-08-17T07:15:10Z</time>
      </trkpt>
      <trkpt lat="44.94174" lon="1.10307">
        <ele>117</ele>
        <time>2022-08-17T07:15:12Z</time>
      </trkpt>
      <trkpt lat="44.94173" lon="1.10305">
        <ele>116.9</ele>
        <time>2022-08-17T07:15:14Z</time>
      </trkpt>
      <trkpt lat="44.94173" lon="1.10305">
        <ele>116.9</ele>
        <time>2022-08-17T07:15:16Z</time>
      </trkpt>
      <trkpt lat="44.94173" lon="1.10305">
        <ele>117</ele>
        <time>2022-08-17T07:15:18Z</time>
      </trkpt>
      <trkpt lat="44.94173" lon="1.10285">
        <ele>115.9</ele>
        <time>2022-08-17T07:15:36Z</time>
      </trkpt>
      <trkpt lat="44.94173" lon="1.1028">
        <ele>115.7</ele>
        <time>2022-08-17T07:15:38Z</time>
      </trkpt>
      <trkpt lat="44.94173" lon="1.10276">
        <ele>115.5</ele>
        <time>2022-08-17T07:15:40Z</time>
      </trkpt>
      <trkpt lat="44.94174" lon="1.10271">
        <ele>115.2</ele>
        <time>2022-08-17T07:15:42Z</time>
      </trkpt>
      <trkpt lat="44.94175" lon="1.10267">
        <ele>114.8</ele>
        <time>2022-08-17T07:15:44Z</time>
      </trkpt>
      <trkpt lat="44.94177" lon="1.10262">
        <ele>114.3</ele>
        <time>2022-08-17T07:15:46Z</time>
      </trkpt>
      <trkpt lat="44.9418" lon="1.10258">
        <ele>113.8</ele>
        <time>2022-08-17T07:15:48Z</time>
      </trkpt>
      <trkpt lat="44.94182" lon="1.10255">
        <ele>113.3</ele>
        <time>2022-08-17T07:15:50Z</time>
      </trkpt>
      <trkpt lat="44.94183" lon="1.1025">
        <ele>112.8</ele>
        <time>2022-08-17T07:15:52Z</time>
      </trkpt>
      <trkpt lat="44.94184" lon="1.10246">
        <ele>113.3</ele>
        <time>2022-08-17T07:15:54Z</time>
      </trkpt>
      <trkpt lat="44.94183" lon="1.10243">
        <ele>113.8</ele>
        <time>2022-08-17T07:15:56Z</time>
      </trkpt>
      <trkpt lat="44.94183" lon="1.10243">
        <ele>113.9</ele>
        <time>2022-08-17T07:15:58Z</time>
      </trkpt>
      <trkpt lat="44.94183" lon="1.10244">
        <ele>113.8</ele>
        <time>2022-08-17T07:16:00Z</time>
      </trkpt>
      <trkpt lat="44.94183" lon="1.10243">
        <ele>113.8</ele>
        <time>2022-08-17T07:16:02Z</time>
      </trkpt>
      <trkpt lat="44.94183" lon="1.10243">
        <ele>113.8</ele>
        <time>2022-08-17T07:16:04Z</time>
      </trkpt>
      <trkpt lat="44.94179" lon="1.10283">
        <ele>115.5</ele>
        <time>2022-08-17T10:09:34Z</time>
      </trkpt>
      <trkpt lat="44.94179" lon="1.10282">
        <ele>115.4</ele>
        <time>2022-08-17T10:09:36Z</time>
      </trkpt>
      <trkpt lat="44.94184" lon="1.10305">
        <ele>116.9</ele>
        <time>2022-08-17T10:09:54Z</time>
      </trkpt>
      <trkpt lat="44.94184" lon="1.10312">
        <ele>117.4</ele>
        <time>2022-08-17T10:09:56Z</time>
      </trkpt>
      <trkpt lat="44.94182" lon="1.10316">
        <ele>117.7</ele>
        <time>2022-08-17T10:09:58Z</time>
      </trkpt>
      <trkpt lat="44.94176" lon="1.10317">
        <ele>117.6</ele>
        <time>2022-08-17T10:10:00Z</time>
      </trkpt>
      <trkpt lat="44.94171" lon="1.10319">
        <ele>117.6</ele>
        <time>2022-08-17T10:10:02Z</time>
      </trkpt>
      <trkpt lat="44.94166" lon="1.10323">
        <ele>117.7</ele>
        <time>2022-08-17T10:10:04Z</time>
      </trkpt>
      <trkpt lat="44.94158" lon="1.10324">
        <ele>118.4</ele>
        <time>2022-08-17T10:10:06Z</time>
      </trkpt>
      <trkpt lat="44.94149" lon="1.10322">
        <ele>119.2</ele>
        <time>2022-08-17T10:10:08Z</time>
      </trkpt>
      <trkpt lat="44.94142" lon="1.1032">
        <ele>119.8</ele>
        <time>2022-08-17T10:10:10Z</time>
      </trkpt>
      <trkpt lat="44.94139" lon="1.10317">
        <ele>120.2</ele>
        <time>2022-08-17T10:10:12Z</time>
      </trkpt>
      <trkpt lat="44.94134" lon="1.10318">
        <ele>120.7</ele>
        <time>2022-08-17T10:10:14Z</time>
      </trkpt>
      <trkpt lat="44.94129" lon="1.10317">
        <ele>121.2</ele>
        <time>2022-08-17T10:10:16Z</time>
      </trkpt>
      <trkpt lat="44.94125" lon="1.10317">
        <ele>121.7</ele>
        <time>2022-08-17T10:10:18Z</time>
      </trkpt>
      <trkpt lat="44.94121" lon="1.10318">
        <ele>122</ele>
        <time>2022-08-17T10:10:20Z</time>
      </trkpt>
      <trkpt lat="44.94117" lon="1.1032">
        <ele>122.2</ele>
        <time>2022-08-17T10:10:22Z</time>
      </trkpt>
      <trkpt lat="44.94114" lon="1.10322">
        <ele>122.3</ele>
        <time>2022-08-17T10:10:24Z</time>
      </trkpt>
      <trkpt lat="44.94111" lon="1.10322">
        <ele>122.6</ele>
        <time>2022-08-17T10:10:26Z</time>
      </trkpt>
      <trkpt lat="44.94108" lon="1.10324">
        <ele>122.7</ele>
        <time>2022-08-17T10:10:28Z</time>
      </trkpt>
      <trkpt lat="44.94102" lon="1.10323">
        <ele>123.2</ele>
        <time>2022-08-17T10:10:30Z</time>
      </trkpt>
      <trkpt lat="44.94099" lon="1.10325">
        <ele>123.2</ele>
        <time>2022-08-17T10:10:32Z</time>
      </trkpt>
      <trkpt lat="44.94097" lon="1.10324">
        <ele>123.5</ele>
        <time>2022-08-17T10:10:34Z</time>
      </trkpt>
      <trkpt lat="44.94093" lon="1.10324">
        <ele>123.9</ele>
        <time>2022-08-17T10:10:36Z</time>
      </trkpt>
      <trkpt lat="44.94091" lon="1.10329">
        <ele>123.3</ele>
        <time>2022-08-17T10:10:38Z</time>
      </trkpt>
      <trkpt lat="44.94087" lon="1.10332">
        <ele>123</ele>
        <time>2022-08-17T10:10:40Z</time>
      </trkpt>
      <trkpt lat="44.94083" lon="1.10335">
        <ele>123.2</ele>
        <time>2022-08-17T10:10:42Z</time>
      </trkpt>
      <trkpt lat="44.94078" lon="1.10338">
        <ele>124.7</ele>
        <time>2022-08-17T10:10:44Z</time>
      </trkpt>
      <trkpt lat="44.94076" lon="1.10338">
        <ele>125.2</ele>
        <time>2022-08-17T10:10:46Z</time>
      </trkpt>
      <trkpt lat="44.94072" lon="1.10343">
        <ele>126.4</ele>
        <time>2022-08-17T10:10:48Z</time>
      </trkpt>
      <trkpt lat="44.94069" lon="1.10347">
        <ele>127.3</ele>
        <time>2022-08-17T10:10:50Z</time>
      </trkpt>
      <trkpt lat="44.94068" lon="1.10349">
        <ele>127.7</ele>
        <time>2022-08-17T10:10:52Z</time>
      </trkpt>
      <trkpt lat="44.94064" lon="1.10353">
        <ele>128.8</ele>
        <time>2022-08-17T10:10:54Z</time>
      </trkpt>
      <trkpt lat="44.94061" lon="1.10358">
        <ele>129.6</ele>
        <time>2022-08-17T10:10:56Z</time>
      </trkpt>
      <trkpt lat="44.94058" lon="1.10363">
        <ele>130.3</ele>
        <time>2022-08-17T10:10:58Z</time>
      </trkpt>
      <trkpt lat="44.94055" lon="1.10367">
        <ele>131</ele>
        <time>2022-08-17T10:11:00Z</time>
      </trkpt>
      <trkpt lat="44.94051" lon="1.1037">
        <ele>131.5</ele>
        <time>2022-08-17T10:11:02Z</time>
      </trkpt>
      <trkpt lat="44.94048" lon="1.10375">
        <ele>132.1</ele>
        <time>2022-08-17T10:11:04Z</time>
      </trkpt>
      <trkpt lat="44.94045" lon="1.10377">
        <ele>132.4</ele>
        <time>2022-08-17T10:11:06Z</time>
      </trkpt>
      <trkpt lat="44.94043" lon="1.1038">
        <ele>132.7</ele>
        <time>2022-08-17T10:11:08Z</time>
      </trkpt>
      <trkpt lat="44.9404" lon="1.10383">
        <ele>133</ele>
        <time>2022-08-17T10:11:10Z</time>
      </trkpt>
      <trkpt lat="44.94039" lon="1.10387">
        <ele>133.1</ele>
        <time>2022-08-17T10:11:12Z</time>
      </trkpt>
      <trkpt lat="44.94037" lon="1.10391">
        <ele>133.3</ele>
        <time>2022-08-17T10:11:14Z</time>
      </trkpt>
      <trkpt lat="44.94034" lon="1.10394">
        <ele>133.5</ele>
        <time>2022-08-17T10:11:16Z</time>
      </trkpt>
      <trkpt lat="44.94032" lon="1.10398">
        <ele>133.5</ele>
        <time>2022-08-17T10:11:18Z</time>
      </trkpt>
      <trkpt lat="44.9403" lon="1.10401">
        <ele>133.6</ele>
        <time>2022-08-17T10:11:20Z</time>
      </trkpt>
      <trkpt lat="44.9403" lon="1.10406">
        <ele>133.5</ele>
        <time>2022-08-17T10:11:22Z</time>
      </trkpt>
      <trkpt lat="44.94027" lon="1.10409">
        <ele>133.5</ele>
        <time>2022-08-17T10:11:24Z</time>
      </trkpt>
      <trkpt lat="44.94025" lon="1.10413">
        <ele>133.4</ele>
        <time>2022-08-17T10:11:26Z</time>
      </trkpt>
      <trkpt lat="44.94023" lon="1.10417">
        <ele>133.3</ele>
        <time>2022-08-17T10:11:28Z</time>
      </trkpt>
      <trkpt lat="44.94019" lon="1.10421">
        <ele>133.6</ele>
        <time>2022-08-17T10:11:30Z</time>
      </trkpt>
      <trkpt lat="44.94016" lon="1.10426">
        <ele>133.9</ele>
        <time>2022-08-17T10:11:32Z</time>
      </trkpt>
      <trkpt lat="44.94013" lon="1.10428">
        <ele>133.9</ele>
        <time>2022-08-17T10:11:34Z</time>
      </trkpt>
      <trkpt lat="44.94011" lon="1.10431">
        <ele>134.1</ele>
        <time>2022-08-17T10:11:36Z</time>
      </trkpt>
      <trkpt lat="44.94009" lon="1.10434">
        <ele>134.2</ele>
        <time>2022-08-17T10:11:38Z</time>
      </trkpt>
      <trkpt lat="44.94006" lon="1.10436">
        <ele>134.2</ele>
        <time>2022-08-17T10:11:40Z</time>
      </trkpt>
      <trkpt lat="44.94006" lon="1.1044">
        <ele>134.4</ele>
        <time>2022-08-17T10:11:42Z</time>
      </trkpt>
      <trkpt lat="44.94004" lon="1.10444">
        <ele>134.6</ele>
        <time>2022-08-17T10:11:44Z</time>
      </trkpt>
      <trkpt lat="44.94001" lon="1.10446">
        <ele>134.5</ele>
        <time>2022-08-17T10:11:46Z</time>
      </trkpt>
      <trkpt lat="44.93999" lon="1.10448">
        <ele>134.6</ele>
        <time>2022-08-17T10:11:48Z</time>
      </trkpt>
      <trkpt lat="44.93996" lon="1.10451">
        <ele>134.9</ele>
        <time>2022-08-17T10:11:50Z</time>
      </trkpt>
      <trkpt lat="44.93993" lon="1.10455">
        <ele>135.3</ele>
        <time>2022-08-17T10:11:52Z</time>
      </trkpt>
      <trkpt lat="44.9399" lon="1.10457">
        <ele>135.6</ele>
        <time>2022-08-17T10:11:54Z</time>
      </trkpt>
      <trkpt lat="44.93986" lon="1.10459">
        <ele>135.9</ele>
        <time>2022-08-17T10:11:56Z</time>
      </trkpt>
      <trkpt lat="44.93982" lon="1.10459">
        <ele>136.1</ele>
        <time>2022-08-17T10:11:58Z</time>
      </trkpt>
      <trkpt lat="44.93981" lon="1.10459">
        <ele>136.2</ele>
        <time>2022-08-17T10:12:00Z</time>
      </trkpt>
      <trkpt lat="44.93977" lon="1.10462">
        <ele>136.5</ele>
        <time>2022-08-17T10:12:02Z</time>
      </trkpt>
      <trkpt lat="44.93974" lon="1.10464">
        <ele>136.7</ele>
        <time>2022-08-17T10:12:04Z</time>
      </trkpt>
      <trkpt lat="44.93972" lon="1.10463">
        <ele>136.8</ele>
        <time>2022-08-17T10:12:06Z</time>
      </trkpt>
      <trkpt lat="44.93969" lon="1.10464">
        <ele>137</ele>
        <time>2022-08-17T10:12:08Z</time>
      </trkpt>
      <trkpt lat="44.93965" lon="1.10464">
        <ele>137.3</ele>
        <time>2022-08-17T10:12:10Z</time>
      </trkpt>
      <trkpt lat="44.93962" lon="1.10463">
        <ele>137.4</ele>
        <time>2022-08-17T10:12:12Z</time>
      </trkpt>
      <trkpt lat="44.93959" lon="1.10461">
        <ele>137.5</ele>
        <time>2022-08-17T10:12:14Z</time>
      </trkpt>
      <trkpt lat="44.93957" lon="1.1046">
        <ele>137.6</ele>
        <time>2022-08-17T10:12:16Z</time>
      </trkpt>
      <trkpt lat="44.93954" lon="1.10459">
        <ele>137.8</ele>
        <time>2022-08-17T10:12:18Z</time>
      </trkpt>
      <trkpt lat="44.93951" lon="1.10458">
        <ele>138</ele>
        <time>2022-08-17T10:12:20Z</time>
      </trkpt>
      <trkpt lat="44.93947" lon="1.10458">
        <ele>138.2</ele>
        <time>2022-08-17T10:12:22Z</time>
      </trkpt>
      <trkpt lat="44.93944" lon="1.10456">
        <ele>138.3</ele>
        <time>2022-08-17T10:12:24Z</time>
      </trkpt>
      <trkpt lat="44.93941" lon="1.10457">
        <ele>138.5</ele>
        <time>2022-08-17T10:12:26Z</time>
      </trkpt>
      <trkpt lat="44.93939" lon="1.10457">
        <ele>138.7</ele>
        <time>2022-08-17T10:12:28Z</time>
      </trkpt>
      <trkpt lat="44.93936" lon="1.10456">
        <ele>138.8</ele>
        <time>2022-08-17T10:12:30Z</time>
      </trkpt>
      <trkpt lat="44.93934" lon="1.10456">
        <ele>138.9</ele>
        <time>2022-08-17T10:12:32Z</time>
      </trkpt>
      <trkpt lat="44.93929" lon="1.10455">
        <ele>139.2</ele>
        <time>2022-08-17T10:12:34Z</time>
      </trkpt>
      <trkpt lat="44.93926" lon="1.10452">
        <ele>139.4</ele>
        <time>2022-08-17T10:12:36Z</time>
      </trkpt>
      <trkpt lat="44.93923" lon="1.1045">
        <ele>139.6</ele>
        <time>2022-08-17T10:12:38Z</time>
      </trkpt>
      <trkpt lat="44.9392" lon="1.10448">
        <ele>139.8</ele>
        <time>2022-08-17T10:12:40Z</time>
      </trkpt>
      <trkpt lat="44.93918" lon="1.10446">
        <ele>139.9</ele>
        <time>2022-08-17T10:12:42Z</time>
      </trkpt>
      <trkpt lat="44.93915" lon="1.10445">
        <ele>140.1</ele>
        <time>2022-08-17T10:12:44Z</time>
      </trkpt>
      <trkpt lat="44.93912" lon="1.10444">
        <ele>140.2</ele>
        <time>2022-08-17T10:12:46Z</time>
      </trkpt>
      <trkpt lat="44.9391" lon="1.10441">
        <ele>140.3</ele>
        <time>2022-08-17T10:12:48Z</time>
      </trkpt>
      <trkpt lat="44.93908" lon="1.1044">
        <ele>140.4</ele>
        <time>2022-08-17T10:12:50Z</time>
      </trkpt>
      <trkpt lat="44.93905" lon="1.1044">
        <ele>140.5</ele>
        <time>2022-08-17T10:12:52Z</time>
      </trkpt>
      <trkpt lat="44.93901" lon="1.10439">
        <ele>140.7</ele>
        <time>2022-08-17T10:12:54Z</time>
      </trkpt>
      <trkpt lat="44.93899" lon="1.10438">
        <ele>140.8</ele>
        <time>2022-08-17T10:12:56Z</time>
      </trkpt>
      <trkpt lat="44.93896" lon="1.10436">
        <ele>140.9</ele>
        <time>2022-08-17T10:12:58Z</time>
      </trkpt>
      <trkpt lat="44.93894" lon="1.10438">
        <ele>141</ele>
        <time>2022-08-17T10:13:00Z</time>
      </trkpt>
      <trkpt lat="44.93889" lon="1.10435">
        <ele>141.2</ele>
        <time>2022-08-17T10:13:02Z</time>
      </trkpt>
      <trkpt lat="44.93886" lon="1.10435">
        <ele>141.3</ele>
        <time>2022-08-17T10:13:04Z</time>
      </trkpt>
      <trkpt lat="44.93883" lon="1.10434">
        <ele>141.5</ele>
        <time>2022-08-17T10:13:06Z</time>
      </trkpt>
      <trkpt lat="44.9388" lon="1.10432">
        <ele>141.6</ele>
        <time>2022-08-17T10:13:08Z</time>
      </trkpt>
      <trkpt lat="44.93877" lon="1.10431">
        <ele>141.7</ele>
        <time>2022-08-17T10:13:10Z</time>
      </trkpt>
      <trkpt lat="44.93874" lon="1.10432">
        <ele>141.8</ele>
        <time>2022-08-17T10:13:12Z</time>
      </trkpt>
      <trkpt lat="44.93872" lon="1.1043">
        <ele>141.9</ele>
        <time>2022-08-17T10:13:14Z</time>
      </trkpt>
      <trkpt lat="44.93869" lon="1.10429">
        <ele>142</ele>
        <time>2022-08-17T10:13:16Z</time>
      </trkpt>
      <trkpt lat="44.93866" lon="1.10429">
        <ele>142.1</ele>
        <time>2022-08-17T10:13:18Z</time>
      </trkpt>
      <trkpt lat="44.93862" lon="1.10428">
        <ele>142.2</ele>
        <time>2022-08-17T10:13:20Z</time>
      </trkpt>
      <trkpt lat="44.9386" lon="1.10428">
        <ele>142.3</ele>
        <time>2022-08-17T10:13:22Z</time>
      </trkpt>
      <trkpt lat="44.93856" lon="1.10428">
        <ele>142.5</ele>
        <time>2022-08-17T10:13:24Z</time>
      </trkpt>
      <trkpt lat="44.93853" lon="1.10427">
        <ele>142.6</ele>
        <time>2022-08-17T10:13:26Z</time>
      </trkpt>
      <trkpt lat="44.93851" lon="1.10427">
        <ele>142.6</ele>
        <time>2022-08-17T10:13:28Z</time>
      </trkpt>
      <trkpt lat="44.93848" lon="1.10429">
        <ele>142.8</ele>
        <time>2022-08-17T10:13:30Z</time>
      </trkpt>
      <trkpt lat="44.93844" lon="1.1043">
        <ele>143</ele>
        <time>2022-08-17T10:13:32Z</time>
      </trkpt>
      <trkpt lat="44.93841" lon="1.10431">
        <ele>143.2</ele>
        <time>2022-08-17T10:13:34Z</time>
      </trkpt>
      <trkpt lat="44.93838" lon="1.10432">
        <ele>143.3</ele>
        <time>2022-08-17T10:13:36Z</time>
      </trkpt>
      <trkpt lat="44.93835" lon="1.10433">
        <ele>143.5</ele>
        <time>2022-08-17T10:13:38Z</time>
      </trkpt>
      <trkpt lat="44.93832" lon="1.10433">
        <ele>143.6</ele>
        <time>2022-08-17T10:13:40Z</time>
      </trkpt>
      <trkpt lat="44.93828" lon="1.10433">
        <ele>143.8</ele>
        <time>2022-08-17T10:13:42Z</time>
      </trkpt>
      <trkpt lat="44.93824" lon="1.10433">
        <ele>143.9</ele>
        <time>2022-08-17T10:13:44Z</time>
      </trkpt>
      <trkpt lat="44.93821" lon="1.10432">
        <ele>144</ele>
        <time>2022-08-17T10:13:46Z</time>
      </trkpt>
      <trkpt lat="44.93817" lon="1.1043">
        <ele>144</ele>
        <time>2022-08-17T10:13:48Z</time>
      </trkpt>
      <trkpt lat="44.93815" lon="1.10428">
        <ele>144</ele>
        <time>2022-08-17T10:13:50Z</time>
      </trkpt>
      <trkpt lat="44.93812" lon="1.10426">
        <ele>144</ele>
        <time>2022-08-17T10:13:52Z</time>
      </trkpt>
      <trkpt lat="44.93809" lon="1.10425">
        <ele>144.1</ele>
        <time>2022-08-17T10:13:54Z</time>
      </trkpt>
      <trkpt lat="44.93807" lon="1.10426">
        <ele>144.2</ele>
        <time>2022-08-17T10:13:56Z</time>
      </trkpt>
      <trkpt lat="44.93804" lon="1.10423">
        <ele>144.2</ele>
        <time>2022-08-17T10:13:58Z</time>
      </trkpt>
      <trkpt lat="44.93803" lon="1.10418">
        <ele>144.1</ele>
        <time>2022-08-17T10:14:00Z</time>
      </trkpt>
      <trkpt lat="44.93802" lon="1.10414">
        <ele>144.6</ele>
        <time>2022-08-17T10:14:02Z</time>
      </trkpt>
      <trkpt lat="44.93799" lon="1.10411">
        <ele>145</ele>
        <time>2022-08-17T10:14:04Z</time>
      </trkpt>
      <trkpt lat="44.93797" lon="1.10408">
        <ele>145.5</ele>
        <time>2022-08-17T10:14:06Z</time>
      </trkpt>
      <trkpt lat="44.93795" lon="1.10405">
        <ele>145.9</ele>
        <time>2022-08-17T10:14:08Z</time>
      </trkpt>
      <trkpt lat="44.93793" lon="1.10402">
        <ele>146.3</ele>
        <time>2022-08-17T10:14:10Z</time>
      </trkpt>
      <trkpt lat="44.93792" lon="1.10398">
        <ele>146.9</ele>
        <time>2022-08-17T10:14:12Z</time>
      </trkpt>
      <trkpt lat="44.93789" lon="1.10395">
        <ele>147.3</ele>
        <time>2022-08-17T10:14:14Z</time>
      </trkpt>
      <trkpt lat="44.93788" lon="1.10391">
        <ele>147.7</ele>
        <time>2022-08-17T10:14:16Z</time>
      </trkpt>
      <trkpt lat="44.93786" lon="1.10389">
        <ele>148.1</ele>
        <time>2022-08-17T10:14:18Z</time>
      </trkpt>
      <trkpt lat="44.93784" lon="1.10386">
        <ele>148.4</ele>
        <time>2022-08-17T10:14:20Z</time>
      </trkpt>
      <trkpt lat="44.93782" lon="1.10383">
        <ele>148.8</ele>
        <time>2022-08-17T10:14:22Z</time>
      </trkpt>
      <trkpt lat="44.93781" lon="1.10379">
        <ele>149.2</ele>
        <time>2022-08-17T10:14:24Z</time>
      </trkpt>
      <trkpt lat="44.93779" lon="1.10376">
        <ele>149.5</ele>
        <time>2022-08-17T10:14:26Z</time>
      </trkpt>
      <trkpt lat="44.93778" lon="1.10373">
        <ele>149.9</ele>
        <time>2022-08-17T10:14:28Z</time>
      </trkpt>
      <trkpt lat="44.93776" lon="1.1037">
        <ele>150.2</ele>
        <time>2022-08-17T10:14:30Z</time>
      </trkpt>
      <trkpt lat="44.93774" lon="1.10368">
        <ele>150.4</ele>
        <time>2022-08-17T10:14:32Z</time>
      </trkpt>
      <trkpt lat="44.93773" lon="1.10364">
        <ele>150.8</ele>
        <time>2022-08-17T10:14:34Z</time>
      </trkpt>
      <trkpt lat="44.93771" lon="1.10362">
        <ele>151</ele>
        <time>2022-08-17T10:14:36Z</time>
      </trkpt>
      <trkpt lat="44.9377" lon="1.10359">
        <ele>151.3</ele>
        <time>2022-08-17T10:14:38Z</time>
      </trkpt>
      <trkpt lat="44.93769" lon="1.10357">
        <ele>151.5</ele>
        <time>2022-08-17T10:14:40Z</time>
      </trkpt>
      <trkpt lat="44.93766" lon="1.10356">
        <ele>151.5</ele>
        <time>2022-08-17T10:14:42Z</time>
      </trkpt>
      <trkpt lat="44.93765" lon="1.10357">
        <ele>151.4</ele>
        <time>2022-08-17T10:14:44Z</time>
      </trkpt>
      <trkpt lat="44.93765" lon="1.10356">
        <ele>151.5</ele>
        <time>2022-08-17T10:14:46Z</time>
      </trkpt>
      <trkpt lat="44.93766" lon="1.10356">
        <ele>151.5</ele>
        <time>2022-08-17T10:14:48Z</time>
      </trkpt>
      <trkpt lat="44.93766" lon="1.10356">
        <ele>151.5</ele>
        <time>2022-08-17T10:14:50Z</time>
      </trkpt>
      <trkpt lat="44.93767" lon="1.10357">
        <ele>151.4</ele>
        <time>2022-08-17T10:14:52Z</time>
      </trkpt>
      <trkpt lat="44.93744" lon="1.10355">
        <ele>151.7</ele>
        <time>2022-08-17T10:15:48Z</time>
      </trkpt>
      <trkpt lat="44.93742" lon="1.10353">
        <ele>152.1</ele>
        <time>2022-08-17T10:15:50Z</time>
      </trkpt>
      <trkpt lat="44.93739" lon="1.10351">
        <ele>152.4</ele>
        <time>2022-08-17T10:15:52Z</time>
      </trkpt>
      <trkpt lat="44.93736" lon="1.10351">
        <ele>152.7</ele>
        <time>2022-08-17T10:15:54Z</time>
      </trkpt>
      <trkpt lat="44.93734" lon="1.10351">
        <ele>152.9</ele>
        <time>2022-08-17T10:15:56Z</time>
      </trkpt>
      <trkpt lat="44.93731" lon="1.10352">
        <ele>153.1</ele>
        <time>2022-08-17T10:15:58Z</time>
      </trkpt>
      <trkpt lat="44.93728" lon="1.10352">
        <ele>153.3</ele>
        <time>2022-08-17T10:16:00Z</time>
      </trkpt>
      <trkpt lat="44.93726" lon="1.10351">
        <ele>153.6</ele>
        <time>2022-08-17T10:16:02Z</time>
      </trkpt>
      <trkpt lat="44.93724" lon="1.1035">
        <ele>153.8</ele>
        <time>2022-08-17T10:16:04Z</time>
      </trkpt>
      <trkpt lat="44.93722" lon="1.1035">
        <ele>154</ele>
        <time>2022-08-17T10:16:06Z</time>
      </trkpt>
      <trkpt lat="44.93719" lon="1.1035">
        <ele>154.2</ele>
        <time>2022-08-17T10:16:08Z</time>
      </trkpt>
      <trkpt lat="44.93716" lon="1.10351">
        <ele>154.4</ele>
        <time>2022-08-17T10:16:10Z</time>
      </trkpt>
      <trkpt lat="44.93714" lon="1.10351">
        <ele>154.6</ele>
        <time>2022-08-17T10:16:12Z</time>
      </trkpt>
      <trkpt lat="44.93711" lon="1.1035">
        <ele>154.9</ele>
        <time>2022-08-17T10:16:14Z</time>
      </trkpt>
      <trkpt lat="44.93709" lon="1.10349">
        <ele>155.1</ele>
        <time>2022-08-17T10:16:16Z</time>
      </trkpt>
      <trkpt lat="44.93706" lon="1.10349">
        <ele>155.3</ele>
        <time>2022-08-17T10:16:18Z</time>
      </trkpt>
      <trkpt lat="44.93704" lon="1.10349">
        <ele>155.6</ele>
        <time>2022-08-17T10:16:20Z</time>
      </trkpt>
      <trkpt lat="44.93701" lon="1.10349">
        <ele>155.8</ele>
        <time>2022-08-17T10:16:22Z</time>
      </trkpt>
      <trkpt lat="44.93699" lon="1.10349">
        <ele>155.9</ele>
        <time>2022-08-17T10:16:24Z</time>
      </trkpt>
      <trkpt lat="44.93696" lon="1.10348">
        <ele>156.2</ele>
        <time>2022-08-17T10:16:26Z</time>
      </trkpt>
      <trkpt lat="44.93694" lon="1.10348">
        <ele>156.4</ele>
        <time>2022-08-17T10:16:28Z</time>
      </trkpt>
      <trkpt lat="44.93692" lon="1.10347">
        <ele>156.6</ele>
        <time>2022-08-17T10:16:30Z</time>
      </trkpt>
      <trkpt lat="44.9369" lon="1.10347">
        <ele>156.7</ele>
        <time>2022-08-17T10:16:32Z</time>
      </trkpt>
      <trkpt lat="44.93688" lon="1.10349">
        <ele>156.9</ele>
        <time>2022-08-17T10:16:34Z</time>
      </trkpt>
      <trkpt lat="44.93687" lon="1.10348">
        <ele>157</ele>
        <time>2022-08-17T10:16:36Z</time>
      </trkpt>
      <trkpt lat="44.93684" lon="1.10348">
        <ele>157.2</ele>
        <time>2022-08-17T10:16:38Z</time>
      </trkpt>
      <trkpt lat="44.93681" lon="1.10347">
        <ele>157.5</ele>
        <time>2022-08-17T10:16:40Z</time>
      </trkpt>
      <trkpt lat="44.93679" lon="1.10346">
        <ele>157.7</ele>
        <time>2022-08-17T10:16:42Z</time>
      </trkpt>
      <trkpt lat="44.93676" lon="1.10347">
        <ele>157.9</ele>
        <time>2022-08-17T10:16:44Z</time>
      </trkpt>
      <trkpt lat="44.93674" lon="1.10348">
        <ele>158</ele>
        <time>2022-08-17T10:16:46Z</time>
      </trkpt>
      <trkpt lat="44.93672" lon="1.10348">
        <ele>158.2</ele>
        <time>2022-08-17T10:16:48Z</time>
      </trkpt>
      <trkpt lat="44.9367" lon="1.10348">
        <ele>158.4</ele>
        <time>2022-08-17T10:16:50Z</time>
      </trkpt>
      <trkpt lat="44.93667" lon="1.10347">
        <ele>158.6</ele>
        <time>2022-08-17T10:16:52Z</time>
      </trkpt>
      <trkpt lat="44.93665" lon="1.10347">
        <ele>158.9</ele>
        <time>2022-08-17T10:16:54Z</time>
      </trkpt>
      <trkpt lat="44.93663" lon="1.10346">
        <ele>159.2</ele>
        <time>2022-08-17T10:16:56Z</time>
      </trkpt>
      <trkpt lat="44.9366" lon="1.10345">
        <ele>159.6</ele>
        <time>2022-08-17T10:16:58Z</time>
      </trkpt>
      <trkpt lat="44.93658" lon="1.10343">
        <ele>159.9</ele>
        <time>2022-08-17T10:17:00Z</time>
      </trkpt>
      <trkpt lat="44.93656" lon="1.10343">
        <ele>160.2</ele>
        <time>2022-08-17T10:17:02Z</time>
      </trkpt>
      <trkpt lat="44.93654" lon="1.10344">
        <ele>160.4</ele>
        <time>2022-08-17T10:17:04Z</time>
      </trkpt>
      <trkpt lat="44.93652" lon="1.10344">
        <ele>160.6</ele>
        <time>2022-08-17T10:17:06Z</time>
      </trkpt>
      <trkpt lat="44.9365" lon="1.10345">
        <ele>160.9</ele>
        <time>2022-08-17T10:17:08Z</time>
      </trkpt>
      <trkpt lat="44.93648" lon="1.10345">
        <ele>161.2</ele>
        <time>2022-08-17T10:17:10Z</time>
      </trkpt>
      <trkpt lat="44.93646" lon="1.10344">
        <ele>161.5</ele>
        <time>2022-08-17T10:17:12Z</time>
      </trkpt>
      <trkpt lat="44.93644" lon="1.10343">
        <ele>161.8</ele>
        <time>2022-08-17T10:17:14Z</time>
      </trkpt>
      <trkpt lat="44.9364" lon="1.10341">
        <ele>162.3</ele>
        <time>2022-08-17T10:17:16Z</time>
      </trkpt>
      <trkpt lat="44.93638" lon="1.1034">
        <ele>162.6</ele>
        <time>2022-08-17T10:17:18Z</time>
      </trkpt>
      <trkpt lat="44.93635" lon="1.1034">
        <ele>163</ele>
        <time>2022-08-17T10:17:20Z</time>
      </trkpt>
      <trkpt lat="44.93633" lon="1.10338">
        <ele>163.3</ele>
        <time>2022-08-17T10:17:22Z</time>
      </trkpt>
      <trkpt lat="44.93631" lon="1.10337">
        <ele>163.7</ele>
        <time>2022-08-17T10:17:24Z</time>
      </trkpt>
      <trkpt lat="44.93628" lon="1.10337">
        <ele>164.1</ele>
        <time>2022-08-17T10:17:26Z</time>
      </trkpt>
      <trkpt lat="44.93625" lon="1.10337">
        <ele>164.4</ele>
        <time>2022-08-17T10:17:28Z</time>
      </trkpt>
      <trkpt lat="44.93622" lon="1.10337">
        <ele>164.8</ele>
        <time>2022-08-17T10:17:30Z</time>
      </trkpt>
      <trkpt lat="44.93619" lon="1.10336">
        <ele>165.2</ele>
        <time>2022-08-17T10:17:32Z</time>
      </trkpt>
      <trkpt lat="44.93616" lon="1.10336">
        <ele>165.6</ele>
        <time>2022-08-17T10:17:34Z</time>
      </trkpt>
      <trkpt lat="44.93614" lon="1.10333">
        <ele>166</ele>
        <time>2022-08-17T10:17:36Z</time>
      </trkpt>
      <trkpt lat="44.93612" lon="1.10333">
        <ele>166.3</ele>
        <time>2022-08-17T10:17:38Z</time>
      </trkpt>
      <trkpt lat="44.93611" lon="1.10333">
        <ele>166.3</ele>
        <time>2022-08-17T10:17:40Z</time>
      </trkpt>
      <trkpt lat="44.93612" lon="1.10333">
        <ele>166.3</ele>
        <time>2022-08-17T10:17:42Z</time>
      </trkpt>
      <trkpt lat="44.93611" lon="1.10333">
        <ele>166.3</ele>
        <time>2022-08-17T10:17:44Z</time>
      </trkpt>
      <trkpt lat="44.93595" lon="1.10324">
        <ele>168.4</ele>
        <time>2022-08-17T10:22:00Z</time>
      </trkpt>
      <trkpt lat="44.93593" lon="1.10322">
        <ele>168.7</ele>
        <time>2022-08-17T10:22:02Z</time>
      </trkpt>
      <trkpt lat="44.93591" lon="1.10319">
        <ele>168.9</ele>
        <time>2022-08-17T10:22:04Z</time>
      </trkpt>
      <trkpt lat="44.93587" lon="1.10317">
        <ele>169.3</ele>
        <time>2022-08-17T10:22:06Z</time>
      </trkpt>
      <trkpt lat="44.93584" lon="1.10316">
        <ele>169.8</ele>
        <time>2022-08-17T10:22:08Z</time>
      </trkpt>
      <trkpt lat="44.9358" lon="1.10315">
        <ele>170.1</ele>
        <time>2022-08-17T10:22:10Z</time>
      </trkpt>
      <trkpt lat="44.93576" lon="1.10314">
        <ele>170.4</ele>
        <time>2022-08-17T10:22:12Z</time>
      </trkpt>
      <trkpt lat="44.93572" lon="1.10313">
        <ele>170.8</ele>
        <time>2022-08-17T10:22:14Z</time>
      </trkpt>
      <trkpt lat="44.93568" lon="1.10311">
        <ele>171.1</ele>
        <time>2022-08-17T10:22:16Z</time>
      </trkpt>
      <trkpt lat="44.93564" lon="1.10311">
        <ele>171.4</ele>
        <time>2022-08-17T10:22:18Z</time>
      </trkpt>
      <trkpt lat="44.93561" lon="1.10311">
        <ele>171.8</ele>
        <time>2022-08-17T10:22:20Z</time>
      </trkpt>
      <trkpt lat="44.93558" lon="1.1031">
        <ele>172</ele>
        <time>2022-08-17T10:22:22Z</time>
      </trkpt>
      <trkpt lat="44.93554" lon="1.1031">
        <ele>172.4</ele>
        <time>2022-08-17T10:22:24Z</time>
      </trkpt>
      <trkpt lat="44.93551" lon="1.1031">
        <ele>172.6</ele>
        <time>2022-08-17T10:22:26Z</time>
      </trkpt>
      <trkpt lat="44.93547" lon="1.10309">
        <ele>172.9</ele>
        <time>2022-08-17T10:22:28Z</time>
      </trkpt>
      <trkpt lat="44.93544" lon="1.1031">
        <ele>173.2</ele>
        <time>2022-08-17T10:22:30Z</time>
      </trkpt>
      <trkpt lat="44.93541" lon="1.1031">
        <ele>173.5</ele>
        <time>2022-08-17T10:22:32Z</time>
      </trkpt>
      <trkpt lat="44.93537" lon="1.10309">
        <ele>173.8</ele>
        <time>2022-08-17T10:22:34Z</time>
      </trkpt>
      <trkpt lat="44.93535" lon="1.10309">
        <ele>174</ele>
        <time>2022-08-17T10:22:36Z</time>
      </trkpt>
      <trkpt lat="44.93532" lon="1.10309">
        <ele>174.3</ele>
        <time>2022-08-17T10:22:38Z</time>
      </trkpt>
      <trkpt lat="44.93529" lon="1.10309">
        <ele>174.5</ele>
        <time>2022-08-17T10:22:40Z</time>
      </trkpt>
      <trkpt lat="44.93526" lon="1.10309">
        <ele>174.8</ele>
        <time>2022-08-17T10:22:42Z</time>
      </trkpt>
      <trkpt lat="44.93524" lon="1.10309">
        <ele>175</ele>
        <time>2022-08-17T10:22:44Z</time>
      </trkpt>
      <trkpt lat="44.93522" lon="1.10308">
        <ele>175.2</ele>
        <time>2022-08-17T10:22:46Z</time>
      </trkpt>
      <trkpt lat="44.93519" lon="1.10307">
        <ele>175.4</ele>
        <time>2022-08-17T10:22:48Z</time>
      </trkpt>
      <trkpt lat="44.93516" lon="1.10307">
        <ele>175.6</ele>
        <time>2022-08-17T10:22:50Z</time>
      </trkpt>
      <trkpt lat="44.93513" lon="1.10307">
        <ele>175.9</ele>
        <time>2022-08-17T10:22:52Z</time>
      </trkpt>
      <trkpt lat="44.93511" lon="1.10306">
        <ele>176.1</ele>
        <time>2022-08-17T10:22:54Z</time>
      </trkpt>
      <trkpt lat="44.93508" lon="1.10306">
        <ele>176.3</ele>
        <time>2022-08-17T10:22:56Z</time>
      </trkpt>
      <trkpt lat="44.93505" lon="1.10306">
        <ele>176.5</ele>
        <time>2022-08-17T10:22:58Z</time>
      </trkpt>
      <trkpt lat="44.93503" lon="1.10306">
        <ele>176.8</ele>
        <time>2022-08-17T10:23:00Z</time>
      </trkpt>
      <trkpt lat="44.935" lon="1.10305">
        <ele>177</ele>
        <time>2022-08-17T10:23:02Z</time>
      </trkpt>
      <trkpt lat="44.93498" lon="1.10307">
        <ele>177.2</ele>
        <time>2022-08-17T10:23:04Z</time>
      </trkpt>
      <trkpt lat="44.93494" lon="1.10306">
        <ele>177.5</ele>
        <time>2022-08-17T10:23:06Z</time>
      </trkpt>
      <trkpt lat="44.93492" lon="1.10307">
        <ele>177.7</ele>
        <time>2022-08-17T10:23:08Z</time>
      </trkpt>
      <trkpt lat="44.9349" lon="1.10307">
        <ele>177.9</ele>
        <time>2022-08-17T10:23:10Z</time>
      </trkpt>
      <trkpt lat="44.93488" lon="1.10308">
        <ele>178.1</ele>
        <time>2022-08-17T10:23:12Z</time>
      </trkpt>
      <trkpt lat="44.93485" lon="1.10308">
        <ele>178.3</ele>
        <time>2022-08-17T10:23:14Z</time>
      </trkpt>
      <trkpt lat="44.93483" lon="1.10309">
        <ele>178.5</ele>
        <time>2022-08-17T10:23:16Z</time>
      </trkpt>
      <trkpt lat="44.93482" lon="1.10311">
        <ele>178.7</ele>
        <time>2022-08-17T10:23:18Z</time>
      </trkpt>
      <trkpt lat="44.93479" lon="1.10312">
        <ele>179</ele>
        <time>2022-08-17T10:23:20Z</time>
      </trkpt>
      <trkpt lat="44.93477" lon="1.10313">
        <ele>179.2</ele>
        <time>2022-08-17T10:23:22Z</time>
      </trkpt>
      <trkpt lat="44.93475" lon="1.10315">
        <ele>179.5</ele>
        <time>2022-08-17T10:23:24Z</time>
      </trkpt>
      <trkpt lat="44.93472" lon="1.10315">
        <ele>179.7</ele>
        <time>2022-08-17T10:23:26Z</time>
      </trkpt>
      <trkpt lat="44.93469" lon="1.10316">
        <ele>180</ele>
        <time>2022-08-17T10:23:28Z</time>
      </trkpt>
      <trkpt lat="44.93467" lon="1.10317">
        <ele>180.2</ele>
        <time>2022-08-17T10:23:30Z</time>
      </trkpt>
      <trkpt lat="44.93465" lon="1.10319">
        <ele>180.4</ele>
        <time>2022-08-17T10:23:32Z</time>
      </trkpt>
      <trkpt lat="44.93463" lon="1.1032">
        <ele>180.6</ele>
        <time>2022-08-17T10:23:34Z</time>
      </trkpt>
      <trkpt lat="44.9346" lon="1.10321">
        <ele>180.9</ele>
        <time>2022-08-17T10:23:36Z</time>
      </trkpt>
      <trkpt lat="44.93459" lon="1.10322">
        <ele>181.1</ele>
        <time>2022-08-17T10:23:38Z</time>
      </trkpt>
      <trkpt lat="44.93456" lon="1.10324">
        <ele>181.3</ele>
        <time>2022-08-17T10:23:40Z</time>
      </trkpt>
      <trkpt lat="44.93454" lon="1.10325">
        <ele>181.5</ele>
        <time>2022-08-17T10:23:42Z</time>
      </trkpt>
      <trkpt lat="44.93452" lon="1.10326">
        <ele>181.8</ele>
        <time>2022-08-17T10:23:44Z</time>
      </trkpt>
      <trkpt lat="44.93449" lon="1.10328">
        <ele>182.1</ele>
        <time>2022-08-17T10:23:46Z</time>
      </trkpt>
      <trkpt lat="44.93447" lon="1.10329">
        <ele>182.3</ele>
        <time>2022-08-17T10:23:48Z</time>
      </trkpt>
      <trkpt lat="44.93445" lon="1.10332">
        <ele>182.6</ele>
        <time>2022-08-17T10:23:50Z</time>
      </trkpt>
      <trkpt lat="44.93443" lon="1.10334">
        <ele>182.8</ele>
        <time>2022-08-17T10:23:52Z</time>
      </trkpt>
      <trkpt lat="44.9344" lon="1.10335">
        <ele>183</ele>
        <time>2022-08-17T10:23:54Z</time>
      </trkpt>
      <trkpt lat="44.93437" lon="1.10334">
        <ele>183.3</ele>
        <time>2022-08-17T10:23:56Z</time>
      </trkpt>
      <trkpt lat="44.93434" lon="1.10334">
        <ele>183.5</ele>
        <time>2022-08-17T10:23:58Z</time>
      </trkpt>
      <trkpt lat="44.93431" lon="1.10335">
        <ele>183.7</ele>
        <time>2022-08-17T10:24:00Z</time>
      </trkpt>
      <trkpt lat="44.93429" lon="1.10335">
        <ele>183.9</ele>
        <time>2022-08-17T10:24:02Z</time>
      </trkpt>
      <trkpt lat="44.93425" lon="1.10335">
        <ele>184.2</ele>
        <time>2022-08-17T10:24:04Z</time>
      </trkpt>
      <trkpt lat="44.93423" lon="1.10336">
        <ele>184.4</ele>
        <time>2022-08-17T10:24:06Z</time>
      </trkpt>
      <trkpt lat="44.93419" lon="1.10335">
        <ele>184.7</ele>
        <time>2022-08-17T10:24:08Z</time>
      </trkpt>
      <trkpt lat="44.93416" lon="1.10334">
        <ele>185</ele>
        <time>2022-08-17T10:24:10Z</time>
      </trkpt>
      <trkpt lat="44.93413" lon="1.10335">
        <ele>185.2</ele>
        <time>2022-08-17T10:24:12Z</time>
      </trkpt>
      <trkpt lat="44.9341" lon="1.10336">
        <ele>185.4</ele>
        <time>2022-08-17T10:24:14Z</time>
      </trkpt>
      <trkpt lat="44.93408" lon="1.10337">
        <ele>185.6</ele>
        <time>2022-08-17T10:24:16Z</time>
      </trkpt>
      <trkpt lat="44.93404" lon="1.10336">
        <ele>185.9</ele>
        <time>2022-08-17T10:24:18Z</time>
      </trkpt>
      <trkpt lat="44.93401" lon="1.10335">
        <ele>186.2</ele>
        <time>2022-08-17T10:24:20Z</time>
      </trkpt>
      <trkpt lat="44.93398" lon="1.10336">
        <ele>186.5</ele>
        <time>2022-08-17T10:24:22Z</time>
      </trkpt>
      <trkpt lat="44.93395" lon="1.10336">
        <ele>186.7</ele>
        <time>2022-08-17T10:24:24Z</time>
      </trkpt>
      <trkpt lat="44.93391" lon="1.10336">
        <ele>187</ele>
        <time>2022-08-17T10:24:26Z</time>
      </trkpt>
      <trkpt lat="44.93388" lon="1.10337">
        <ele>187.3</ele>
        <time>2022-08-17T10:24:28Z</time>
      </trkpt>
      <trkpt lat="44.93384" lon="1.10337">
        <ele>187.6</ele>
        <time>2022-08-17T10:24:30Z</time>
      </trkpt>
      <trkpt lat="44.9338" lon="1.10337">
        <ele>187.9</ele>
        <time>2022-08-17T10:24:32Z</time>
      </trkpt>
      <trkpt lat="44.93377" lon="1.10334">
        <ele>188.3</ele>
        <time>2022-08-17T10:24:34Z</time>
      </trkpt>
      <trkpt lat="44.93374" lon="1.10331">
        <ele>188.5</ele>
        <time>2022-08-17T10:24:36Z</time>
      </trkpt>
      <trkpt lat="44.93371" lon="1.10327">
        <ele>188.6</ele>
        <time>2022-08-17T10:24:38Z</time>
      </trkpt>
      <trkpt lat="44.93368" lon="1.10322">
        <ele>188.7</ele>
        <time>2022-08-17T10:24:40Z</time>
      </trkpt>
      <trkpt lat="44.93366" lon="1.10318">
        <ele>188.7</ele>
        <time>2022-08-17T10:24:42Z</time>
      </trkpt>
      <trkpt lat="44.93363" lon="1.10314">
        <ele>188.8</ele>
        <time>2022-08-17T10:24:44Z</time>
      </trkpt>
      <trkpt lat="44.93359" lon="1.10311">
        <ele>189</ele>
        <time>2022-08-17T10:24:46Z</time>
      </trkpt>
      <trkpt lat="44.93356" lon="1.10308">
        <ele>189.2</ele>
        <time>2022-08-17T10:24:48Z</time>
      </trkpt>
      <trkpt lat="44.93353" lon="1.10306">
        <ele>189.4</ele>
        <time>2022-08-17T10:24:50Z</time>
      </trkpt>
      <trkpt lat="44.93349" lon="1.10305">
        <ele>189.6</ele>
        <time>2022-08-17T10:24:52Z</time>
      </trkpt>
      <trkpt lat="44.93346" lon="1.10303">
        <ele>189.8</ele>
        <time>2022-08-17T10:24:54Z</time>
      </trkpt>
      <trkpt lat="44.93342" lon="1.10301">
        <ele>190.1</ele>
        <time>2022-08-17T10:24:56Z</time>
      </trkpt>
      <trkpt lat="44.93339" lon="1.10299">
        <ele>190.3</ele>
        <time>2022-08-17T10:24:58Z</time>
      </trkpt>
      <trkpt lat="44.93336" lon="1.10296">
        <ele>190.4</ele>
        <time>2022-08-17T10:25:00Z</time>
      </trkpt>
      <trkpt lat="44.93332" lon="1.10295">
        <ele>190.8</ele>
        <time>2022-08-17T10:25:02Z</time>
      </trkpt>
      <trkpt lat="44.93329" lon="1.10294">
        <ele>191.2</ele>
        <time>2022-08-17T10:25:04Z</time>
      </trkpt>
      <trkpt lat="44.93325" lon="1.10294">
        <ele>191.7</ele>
        <time>2022-08-17T10:25:06Z</time>
      </trkpt>
      <trkpt lat="44.93322" lon="1.10293">
        <ele>192.1</ele>
        <time>2022-08-17T10:25:08Z</time>
      </trkpt>
      <trkpt lat="44.93318" lon="1.10291">
        <ele>192.6</ele>
        <time>2022-08-17T10:25:10Z</time>
      </trkpt>
      <trkpt lat="44.93315" lon="1.10291">
        <ele>193.1</ele>
        <time>2022-08-17T10:25:12Z</time>
      </trkpt>
      <trkpt lat="44.93311" lon="1.1029">
        <ele>193.6</ele>
        <time>2022-08-17T10:25:14Z</time>
      </trkpt>
      <trkpt lat="44.93307" lon="1.10289">
        <ele>194</ele>
        <time>2022-08-17T10:25:16Z</time>
      </trkpt>
      <trkpt lat="44.93304" lon="1.1029">
        <ele>194.6</ele>
        <time>2022-08-17T10:25:18Z</time>
      </trkpt>
      <trkpt lat="44.933" lon="1.1029">
        <ele>195.1</ele>
        <time>2022-08-17T10:25:20Z</time>
      </trkpt>
      <trkpt lat="44.93296" lon="1.1029">
        <ele>195.6</ele>
        <time>2022-08-17T10:25:22Z</time>
      </trkpt>
      <trkpt lat="44.93293" lon="1.1029">
        <ele>196.1</ele>
        <time>2022-08-17T10:25:24Z</time>
      </trkpt>
      <trkpt lat="44.93289" lon="1.1029">
        <ele>196.6</ele>
        <time>2022-08-17T10:25:26Z</time>
      </trkpt>
      <trkpt lat="44.93286" lon="1.1029">
        <ele>197</ele>
        <time>2022-08-17T10:25:28Z</time>
      </trkpt>
      <trkpt lat="44.93282" lon="1.10291">
        <ele>197.5</ele>
        <time>2022-08-17T10:25:30Z</time>
      </trkpt>
      <trkpt lat="44.93278" lon="1.10292">
        <ele>198.1</ele>
        <time>2022-08-17T10:25:32Z</time>
      </trkpt>
      <trkpt lat="44.93276" lon="1.10293">
        <ele>198.5</ele>
        <time>2022-08-17T10:25:34Z</time>
      </trkpt>
      <trkpt lat="44.93273" lon="1.10293">
        <ele>198.8</ele>
        <time>2022-08-17T10:25:36Z</time>
      </trkpt>
      <trkpt lat="44.93269" lon="1.10295">
        <ele>199.4</ele>
        <time>2022-08-17T10:25:38Z</time>
      </trkpt>
      <trkpt lat="44.93266" lon="1.10298">
        <ele>199.7</ele>
        <time>2022-08-17T10:25:40Z</time>
      </trkpt>
      <trkpt lat="44.93261" lon="1.103">
        <ele>200.3</ele>
        <time>2022-08-17T10:25:42Z</time>
      </trkpt>
      <trkpt lat="44.93258" lon="1.10303">
        <ele>200.7</ele>
        <time>2022-08-17T10:25:44Z</time>
      </trkpt>
      <trkpt lat="44.93255" lon="1.10306">
        <ele>201.1</ele>
        <time>2022-08-17T10:25:46Z</time>
      </trkpt>
      <trkpt lat="44.93252" lon="1.10308">
        <ele>201.4</ele>
        <time>2022-08-17T10:25:48Z</time>
      </trkpt>
      <trkpt lat="44.93247" lon="1.1031">
        <ele>201.8</ele>
        <time>2022-08-17T10:25:50Z</time>
      </trkpt>
      <trkpt lat="44.93244" lon="1.10313">
        <ele>202</ele>
        <time>2022-08-17T10:25:52Z</time>
      </trkpt>
      <trkpt lat="44.93238" lon="1.10315">
        <ele>202.3</ele>
        <time>2022-08-17T10:25:54Z</time>
      </trkpt>
      <trkpt lat="44.93234" lon="1.10315">
        <ele>202.6</ele>
        <time>2022-08-17T10:25:56Z</time>
      </trkpt>
      <trkpt lat="44.9323" lon="1.10316">
        <ele>202.8</ele>
        <time>2022-08-17T10:25:58Z</time>
      </trkpt>
      <trkpt lat="44.93226" lon="1.10315">
        <ele>203.2</ele>
        <time>2022-08-17T10:26:00Z</time>
      </trkpt>
      <trkpt lat="44.93222" lon="1.10316">
        <ele>203.4</ele>
        <time>2022-08-17T10:26:02Z</time>
      </trkpt>
      <trkpt lat="44.93218" lon="1.10316">
        <ele>203.7</ele>
        <time>2022-08-17T10:26:04Z</time>
      </trkpt>
      <trkpt lat="44.93214" lon="1.10318">
        <ele>203.9</ele>
        <time>2022-08-17T10:26:06Z</time>
      </trkpt>
      <trkpt lat="44.9321" lon="1.10319">
        <ele>204.1</ele>
        <time>2022-08-17T10:26:08Z</time>
      </trkpt>
      <trkpt lat="44.93206" lon="1.10319">
        <ele>204.3</ele>
        <time>2022-08-17T10:26:10Z</time>
      </trkpt>
      <trkpt lat="44.93201" lon="1.1032">
        <ele>204.5</ele>
        <time>2022-08-17T10:26:12Z</time>
      </trkpt>
      <trkpt lat="44.93197" lon="1.10321">
        <ele>204.7</ele>
        <time>2022-08-17T10:26:14Z</time>
      </trkpt>
      <trkpt lat="44.93193" lon="1.10322">
        <ele>204.8</ele>
        <time>2022-08-17T10:26:16Z</time>
      </trkpt>
      <trkpt lat="44.93188" lon="1.10324">
        <ele>204.9</ele>
        <time>2022-08-17T10:26:18Z</time>
      </trkpt>
      <trkpt lat="44.93184" lon="1.10326">
        <ele>205</ele>
        <time>2022-08-17T10:26:20Z</time>
      </trkpt>
      <trkpt lat="44.93179" lon="1.10329">
        <ele>204.9</ele>
        <time>2022-08-17T10:26:22Z</time>
      </trkpt>
      <trkpt lat="44.93174" lon="1.10331">
        <ele>204.9</ele>
        <time>2022-08-17T10:26:24Z</time>
      </trkpt>
      <trkpt lat="44.9317" lon="1.10333">
        <ele>205</ele>
        <time>2022-08-17T10:26:26Z</time>
      </trkpt>
      <trkpt lat="44.93166" lon="1.10335">
        <ele>204.9</ele>
        <time>2022-08-17T10:26:28Z</time>
      </trkpt>
      <trkpt lat="44.93161" lon="1.10338">
        <ele>205.2</ele>
        <time>2022-08-17T10:26:30Z</time>
      </trkpt>
      <trkpt lat="44.93158" lon="1.10338">
        <ele>205.6</ele>
        <time>2022-08-17T10:26:32Z</time>
      </trkpt>
      <trkpt lat="44.93153" lon="1.1034">
        <ele>206.1</ele>
        <time>2022-08-17T10:26:34Z</time>
      </trkpt>
      <trkpt lat="44.9315" lon="1.10341">
        <ele>206.5</ele>
        <time>2022-08-17T10:26:36Z</time>
      </trkpt>
      <trkpt lat="44.93145" lon="1.10343">
        <ele>206.9</ele>
        <time>2022-08-17T10:26:38Z</time>
      </trkpt>
      <trkpt lat="44.93141" lon="1.10343">
        <ele>207.4</ele>
        <time>2022-08-17T10:26:40Z</time>
      </trkpt>
      <trkpt lat="44.93137" lon="1.10345">
        <ele>207.9</ele>
        <time>2022-08-17T10:26:42Z</time>
      </trkpt>
      <trkpt lat="44.93133" lon="1.10347">
        <ele>208.2</ele>
        <time>2022-08-17T10:26:44Z</time>
      </trkpt>
      <trkpt lat="44.93129" lon="1.10348">
        <ele>208.7</ele>
        <time>2022-08-17T10:26:46Z</time>
      </trkpt>
      <trkpt lat="44.93125" lon="1.10349">
        <ele>209.1</ele>
        <time>2022-08-17T10:26:48Z</time>
      </trkpt>
      <trkpt lat="44.93121" lon="1.1035">
        <ele>209.5</ele>
        <time>2022-08-17T10:26:50Z</time>
      </trkpt>
      <trkpt lat="44.93118" lon="1.10351">
        <ele>209.9</ele>
        <time>2022-08-17T10:26:52Z</time>
      </trkpt>
      <trkpt lat="44.93115" lon="1.10355">
        <ele>209.9</ele>
        <time>2022-08-17T10:26:54Z</time>
      </trkpt>
      <trkpt lat="44.93112" lon="1.10357">
        <ele>210.1</ele>
        <time>2022-08-17T10:26:56Z</time>
      </trkpt>
      <trkpt lat="44.93109" lon="1.1036">
        <ele>210.3</ele>
        <time>2022-08-17T10:26:58Z</time>
      </trkpt>
      <trkpt lat="44.93106" lon="1.10363">
        <ele>210.4</ele>
        <time>2022-08-17T10:27:00Z</time>
      </trkpt>
      <trkpt lat="44.93103" lon="1.10367">
        <ele>210.4</ele>
        <time>2022-08-17T10:27:02Z</time>
      </trkpt>
      <trkpt lat="44.93099" lon="1.10372">
        <ele>210.4</ele>
        <time>2022-08-17T10:27:04Z</time>
      </trkpt>
      <trkpt lat="44.93096" lon="1.10375">
        <ele>210.4</ele>
        <time>2022-08-17T10:27:06Z</time>
      </trkpt>
      <trkpt lat="44.93093" lon="1.10379">
        <ele>210.5</ele>
        <time>2022-08-17T10:27:08Z</time>
      </trkpt>
      <trkpt lat="44.9309" lon="1.10383">
        <ele>210.5</ele>
        <time>2022-08-17T10:27:10Z</time>
      </trkpt>
      <trkpt lat="44.93087" lon="1.10387">
        <ele>210.5</ele>
        <time>2022-08-17T10:27:12Z</time>
      </trkpt>
      <trkpt lat="44.93084" lon="1.10391">
        <ele>210.6</ele>
        <time>2022-08-17T10:27:14Z</time>
      </trkpt>
      <trkpt lat="44.93082" lon="1.10395">
        <ele>210.5</ele>
        <time>2022-08-17T10:27:16Z</time>
      </trkpt>
      <trkpt lat="44.93079" lon="1.10398">
        <ele>210.3</ele>
        <time>2022-08-17T10:27:18Z</time>
      </trkpt>
      <trkpt lat="44.93076" lon="1.10402">
        <ele>210.2</ele>
        <time>2022-08-17T10:27:20Z</time>
      </trkpt>
      <trkpt lat="44.93074" lon="1.10406">
        <ele>210</ele>
        <time>2022-08-17T10:27:22Z</time>
      </trkpt>
      <trkpt lat="44.93071" lon="1.10409">
        <ele>209.9</ele>
        <time>2022-08-17T10:27:24Z</time>
      </trkpt>
      <trkpt lat="44.93068" lon="1.10413">
        <ele>209.7</ele>
        <time>2022-08-17T10:27:26Z</time>
      </trkpt>
      <trkpt lat="44.93066" lon="1.10417">
        <ele>209.7</ele>
        <time>2022-08-17T10:27:28Z</time>
      </trkpt>
      <trkpt lat="44.93063" lon="1.10421">
        <ele>209.8</ele>
        <time>2022-08-17T10:27:30Z</time>
      </trkpt>
      <trkpt lat="44.9306" lon="1.10426">
        <ele>209.9</ele>
        <time>2022-08-17T10:27:32Z</time>
      </trkpt>
      <trkpt lat="44.93058" lon="1.10429">
        <ele>210.1</ele>
        <time>2022-08-17T10:27:34Z</time>
      </trkpt>
      <trkpt lat="44.93055" lon="1.10432">
        <ele>210.3</ele>
        <time>2022-08-17T10:27:36Z</time>
      </trkpt>
      <trkpt lat="44.93053" lon="1.10436">
        <ele>210.3</ele>
        <time>2022-08-17T10:27:38Z</time>
      </trkpt>
      <trkpt lat="44.93051" lon="1.1044">
        <ele>210.4</ele>
        <time>2022-08-17T10:27:40Z</time>
      </trkpt>
      <trkpt lat="44.93049" lon="1.10444">
        <ele>210.5</ele>
        <time>2022-08-17T10:27:42Z</time>
      </trkpt>
      <trkpt lat="44.93046" lon="1.10447">
        <ele>210.7</ele>
        <time>2022-08-17T10:27:44Z</time>
      </trkpt>
      <trkpt lat="44.93043" lon="1.1045">
        <ele>210.9</ele>
        <time>2022-08-17T10:27:46Z</time>
      </trkpt>
      <trkpt lat="44.93041" lon="1.10453">
        <ele>211</ele>
        <time>2022-08-17T10:27:48Z</time>
      </trkpt>
      <trkpt lat="44.93037" lon="1.10457">
        <ele>211.2</ele>
        <time>2022-08-17T10:27:50Z</time>
      </trkpt>
      <trkpt lat="44.93034" lon="1.10462">
        <ele>211.3</ele>
        <time>2022-08-17T10:27:52Z</time>
      </trkpt>
      <trkpt lat="44.93031" lon="1.10465">
        <ele>211.4</ele>
        <time>2022-08-17T10:27:54Z</time>
      </trkpt>
      <trkpt lat="44.93028" lon="1.10468">
        <ele>211.6</ele>
        <time>2022-08-17T10:27:56Z</time>
      </trkpt>
      <trkpt lat="44.93026" lon="1.1047">
        <ele>211.8</ele>
        <time>2022-08-17T10:27:58Z</time>
      </trkpt>
      <trkpt lat="44.93022" lon="1.10473">
        <ele>212</ele>
        <time>2022-08-17T10:28:00Z</time>
      </trkpt>
      <trkpt lat="44.9302" lon="1.10476">
        <ele>212.1</ele>
        <time>2022-08-17T10:28:02Z</time>
      </trkpt>
      <trkpt lat="44.93018" lon="1.10476">
        <ele>212.3</ele>
        <time>2022-08-17T10:28:04Z</time>
      </trkpt>
      <trkpt lat="44.93017" lon="1.10478">
        <ele>212.3</ele>
        <time>2022-08-17T10:28:06Z</time>
      </trkpt>
      <trkpt lat="44.93017" lon="1.10478">
        <ele>212.3</ele>
        <time>2022-08-17T10:28:08Z</time>
      </trkpt>
      <trkpt lat="44.93017" lon="1.10478">
        <ele>212.3</ele>
        <time>2022-08-17T10:28:10Z</time>
      </trkpt>
      <trkpt lat="44.93005" lon="1.10499">
        <ele>212.6</ele>
        <time>2022-08-17T10:30:16Z</time>
      </trkpt>
      <trkpt lat="44.93" lon="1.10501">
        <ele>213</ele>
        <time>2022-08-17T10:30:18Z</time>
      </trkpt>
      <trkpt lat="44.92995" lon="1.10505">
        <ele>212.6</ele>
        <time>2022-08-17T10:30:20Z</time>
      </trkpt>
      <trkpt lat="44.9299" lon="1.10508">
        <ele>212.2</ele>
        <time>2022-08-17T10:30:22Z</time>
      </trkpt>
      <trkpt lat="44.92986" lon="1.10509">
        <ele>212</ele>
        <time>2022-08-17T10:30:24Z</time>
      </trkpt>
      <trkpt lat="44.92983" lon="1.10507">
        <ele>211.8</ele>
        <time>2022-08-17T10:30:26Z</time>
      </trkpt>
      <trkpt lat="44.92981" lon="1.10502">
        <ele>211.6</ele>
        <time>2022-08-17T10:30:28Z</time>
      </trkpt>
      <trkpt lat="44.92981" lon="1.10493">
        <ele>211.9</ele>
        <time>2022-08-17T10:30:30Z</time>
      </trkpt>
      <trkpt lat="44.92983" lon="1.10484">
        <ele>212.3</ele>
        <time>2022-08-17T10:30:32Z</time>
      </trkpt>
      <trkpt lat="44.92983" lon="1.10475">
        <ele>212.6</ele>
        <time>2022-08-17T10:30:34Z</time>
      </trkpt>
      <trkpt lat="44.92984" lon="1.10466">
        <ele>213</ele>
        <time>2022-08-17T10:30:36Z</time>
      </trkpt>
      <trkpt lat="44.92986" lon="1.10456">
        <ele>213.5</ele>
        <time>2022-08-17T10:30:38Z</time>
      </trkpt>
      <trkpt lat="44.92986" lon="1.10446">
        <ele>213.9</ele>
        <time>2022-08-17T10:30:40Z</time>
      </trkpt>
      <trkpt lat="44.92987" lon="1.10436">
        <ele>214.3</ele>
        <time>2022-08-17T10:30:42Z</time>
      </trkpt>
      <trkpt lat="44.92989" lon="1.10426">
        <ele>214.7</ele>
        <time>2022-08-17T10:30:44Z</time>
      </trkpt>
      <trkpt lat="44.9299" lon="1.10417">
        <ele>215.1</ele>
        <time>2022-08-17T10:30:46Z</time>
      </trkpt>
      <trkpt lat="44.92992" lon="1.10408">
        <ele>215.2</ele>
        <time>2022-08-17T10:30:48Z</time>
      </trkpt>
      <trkpt lat="44.92996" lon="1.10402">
        <ele>215.4</ele>
        <time>2022-08-17T10:30:50Z</time>
      </trkpt>
      <trkpt lat="44.92998" lon="1.10392">
        <ele>215.5</ele>
        <time>2022-08-17T10:30:52Z</time>
      </trkpt>
      <trkpt lat="44.92998" lon="1.10385">
        <ele>215.4</ele>
        <time>2022-08-17T10:30:54Z</time>
      </trkpt>
      <trkpt lat="44.93" lon="1.10379">
        <ele>215.5</ele>
        <time>2022-08-17T10:30:56Z</time>
      </trkpt>
      <trkpt lat="44.93" lon="1.10373">
        <ele>215.4</ele>
        <time>2022-08-17T10:30:58Z</time>
      </trkpt>
      <trkpt lat="44.93002" lon="1.10365">
        <ele>215.3</ele>
        <time>2022-08-17T10:31:00Z</time>
      </trkpt>
      <trkpt lat="44.93004" lon="1.1036">
        <ele>215.3</ele>
        <time>2022-08-17T10:31:02Z</time>
      </trkpt>
      <trkpt lat="44.93006" lon="1.10351">
        <ele>215.2</ele>
        <time>2022-08-17T10:31:04Z</time>
      </trkpt>
      <trkpt lat="44.93005" lon="1.10343">
        <ele>215.2</ele>
        <time>2022-08-17T10:31:06Z</time>
      </trkpt>
      <trkpt lat="44.93005" lon="1.10334">
        <ele>215.1</ele>
        <time>2022-08-17T10:31:08Z</time>
      </trkpt>
      <trkpt lat="44.93005" lon="1.10326">
        <ele>215.5</ele>
        <time>2022-08-17T10:31:10Z</time>
      </trkpt>
      <trkpt lat="44.93004" lon="1.10321">
        <ele>215.7</ele>
        <time>2022-08-17T10:31:12Z</time>
      </trkpt>
      <trkpt lat="44.93004" lon="1.10313">
        <ele>216.1</ele>
        <time>2022-08-17T10:31:14Z</time>
      </trkpt>
      <trkpt lat="44.93001" lon="1.10305">
        <ele>216.4</ele>
        <time>2022-08-17T10:31:16Z</time>
      </trkpt>
      <trkpt lat="44.93" lon="1.10299">
        <ele>216.7</ele>
        <time>2022-08-17T10:31:18Z</time>
      </trkpt>
      <trkpt lat="44.92999" lon="1.10292">
        <ele>216.9</ele>
        <time>2022-08-17T10:31:20Z</time>
      </trkpt>
      <trkpt lat="44.92998" lon="1.10285">
        <ele>217</ele>
        <time>2022-08-17T10:31:22Z</time>
      </trkpt>
      <trkpt lat="44.92997" lon="1.10277">
        <ele>217.3</ele>
        <time>2022-08-17T10:31:24Z</time>
      </trkpt>
      <trkpt lat="44.92996" lon="1.1027">
        <ele>217.5</ele>
        <time>2022-08-17T10:31:26Z</time>
      </trkpt>
      <trkpt lat="44.92995" lon="1.10263">
        <ele>217.8</ele>
        <time>2022-08-17T10:31:28Z</time>
      </trkpt>
      <trkpt lat="44.92994" lon="1.10253">
        <ele>218.1</ele>
        <time>2022-08-17T10:31:30Z</time>
      </trkpt>
      <trkpt lat="44.92994" lon="1.10245">
        <ele>218.5</ele>
        <time>2022-08-17T10:31:32Z</time>
      </trkpt>
      <trkpt lat="44.92993" lon="1.10236">
        <ele>218.7</ele>
        <time>2022-08-17T10:31:34Z</time>
      </trkpt>
      <trkpt lat="44.92992" lon="1.10228">
        <ele>218.9</ele>
        <time>2022-08-17T10:31:36Z</time>
      </trkpt>
      <trkpt lat="44.92992" lon="1.1022">
        <ele>219.2</ele>
        <time>2022-08-17T10:31:38Z</time>
      </trkpt>
      <trkpt lat="44.92992" lon="1.10212">
        <ele>219.5</ele>
        <time>2022-08-17T10:31:40Z</time>
      </trkpt>
      <trkpt lat="44.92991" lon="1.10204">
        <ele>219.7</ele>
        <time>2022-08-17T10:31:42Z</time>
      </trkpt>
      <trkpt lat="44.92991" lon="1.10196">
        <ele>220</ele>
        <time>2022-08-17T10:31:44Z</time>
      </trkpt>
      <trkpt lat="44.9299" lon="1.10187">
        <ele>220.2</ele>
        <time>2022-08-17T10:31:46Z</time>
      </trkpt>
      <trkpt lat="44.9299" lon="1.10179">
        <ele>220.5</ele>
        <time>2022-08-17T10:31:48Z</time>
      </trkpt>
      <trkpt lat="44.9299" lon="1.10171">
        <ele>220.8</ele>
        <time>2022-08-17T10:31:50Z</time>
      </trkpt>
      <trkpt lat="44.92989" lon="1.10165">
        <ele>220.9</ele>
        <time>2022-08-17T10:31:52Z</time>
      </trkpt>
      <trkpt lat="44.92986" lon="1.10158">
        <ele>220.6</ele>
        <time>2022-08-17T10:31:54Z</time>
      </trkpt>
      <trkpt lat="44.92985" lon="1.10151">
        <ele>220.4</ele>
        <time>2022-08-17T10:31:56Z</time>
      </trkpt>
      <trkpt lat="44.92984" lon="1.10143">
        <ele>220.2</ele>
        <time>2022-08-17T10:31:58Z</time>
      </trkpt>
      <trkpt lat="44.92983" lon="1.10135">
        <ele>220.1</ele>
        <time>2022-08-17T10:32:00Z</time>
      </trkpt>
      <trkpt lat="44.92981" lon="1.10123">
        <ele>219.8</ele>
        <time>2022-08-17T10:32:02Z</time>
      </trkpt>
      <trkpt lat="44.92982" lon="1.10113">
        <ele>219.7</ele>
        <time>2022-08-17T10:32:04Z</time>
      </trkpt>
      <trkpt lat="44.92983" lon="1.101">
        <ele>219.7</ele>
        <time>2022-08-17T10:32:06Z</time>
      </trkpt>
      <trkpt lat="44.92987" lon="1.10086">
        <ele>220</ele>
        <time>2022-08-17T10:32:08Z</time>
      </trkpt>
      <trkpt lat="44.92995" lon="1.10074">
        <ele>219.7</ele>
        <time>2022-08-17T10:32:10Z</time>
      </trkpt>
      <trkpt lat="44.93003" lon="1.10063">
        <ele>219.2</ele>
        <time>2022-08-17T10:32:12Z</time>
      </trkpt>
      <trkpt lat="44.93013" lon="1.10053">
        <ele>218.7</ele>
        <time>2022-08-17T10:32:14Z</time>
      </trkpt>
      <trkpt lat="44.93024" lon="1.10043">
        <ele>218.5</ele>
        <time>2022-08-17T10:32:16Z</time>
      </trkpt>
      <trkpt lat="44.93035" lon="1.10033">
        <ele>218.5</ele>
        <time>2022-08-17T10:32:18Z</time>
      </trkpt>
      <trkpt lat="44.93047" lon="1.10025">
        <ele>218.7</ele>
        <time>2022-08-17T10:32:20Z</time>
      </trkpt>
      <trkpt lat="44.93057" lon="1.10012">
        <ele>218.5</ele>
        <time>2022-08-17T10:32:22Z</time>
      </trkpt>
      <trkpt lat="44.93064" lon="1.09996">
        <ele>218.2</ele>
        <time>2022-08-17T10:32:24Z</time>
      </trkpt>
      <trkpt lat="44.93069" lon="1.09979">
        <ele>217.8</ele>
        <time>2022-08-17T10:32:26Z</time>
      </trkpt>
      <trkpt lat="44.93072" lon="1.09961">
        <ele>217.4</ele>
        <time>2022-08-17T10:32:28Z</time>
      </trkpt>
      <trkpt lat="44.93075" lon="1.09944">
        <ele>216.9</ele>
        <time>2022-08-17T10:32:30Z</time>
      </trkpt>
      <trkpt lat="44.93077" lon="1.09927">
        <ele>216.4</ele>
        <time>2022-08-17T10:32:32Z</time>
      </trkpt>
      <trkpt lat="44.93077" lon="1.09911">
        <ele>216</ele>
        <time>2022-08-17T10:32:34Z</time>
      </trkpt>
      <trkpt lat="44.9308" lon="1.09897">
        <ele>216.1</ele>
        <time>2022-08-17T10:32:36Z</time>
      </trkpt>
      <trkpt lat="44.93082" lon="1.09886">
        <ele>216.1</ele>
        <time>2022-08-17T10:32:38Z</time>
      </trkpt>
      <trkpt lat="44.93086" lon="1.09873">
        <ele>216</ele>
        <time>2022-08-17T10:32:40Z</time>
      </trkpt>
      <trkpt lat="44.93086" lon="1.09861">
        <ele>215.8</ele>
        <time>2022-08-17T10:32:42Z</time>
      </trkpt>
      <trkpt lat="44.93087" lon="1.09851">
        <ele>215.5</ele>
        <time>2022-08-17T10:32:44Z</time>
      </trkpt>
      <trkpt lat="44.93087" lon="1.09842">
        <ele>215.3</ele>
        <time>2022-08-17T10:32:46Z</time>
      </trkpt>
      <trkpt lat="44.93087" lon="1.09831">
        <ele>215.1</ele>
        <time>2022-08-17T10:32:48Z</time>
      </trkpt>
      <trkpt lat="44.93087" lon="1.09821">
        <ele>215</ele>
        <time>2022-08-17T10:32:50Z</time>
      </trkpt>
      <trkpt lat="44.93086" lon="1.09812">
        <ele>215</ele>
        <time>2022-08-17T10:32:52Z</time>
      </trkpt>
      <trkpt lat="44.93087" lon="1.09802">
        <ele>215</ele>
        <time>2022-08-17T10:32:54Z</time>
      </trkpt>
      <trkpt lat="44.93086" lon="1.09793">
        <ele>215</ele>
        <time>2022-08-17T10:32:56Z</time>
      </trkpt>
      <trkpt lat="44.93087" lon="1.09783">
        <ele>214.9</ele>
        <time>2022-08-17T10:32:58Z</time>
      </trkpt>
      <trkpt lat="44.93087" lon="1.09775">
        <ele>214.9</ele>
        <time>2022-08-17T10:33:00Z</time>
      </trkpt>
      <trkpt lat="44.93086" lon="1.09765">
        <ele>214.9</ele>
        <time>2022-08-17T10:33:02Z</time>
      </trkpt>
      <trkpt lat="44.93086" lon="1.09755">
        <ele>214.9</ele>
        <time>2022-08-17T10:33:04Z</time>
      </trkpt>
      <trkpt lat="44.93087" lon="1.09746">
        <ele>214.8</ele>
        <time>2022-08-17T10:33:06Z</time>
      </trkpt>
      <trkpt lat="44.93086" lon="1.09736">
        <ele>214.7</ele>
        <time>2022-08-17T10:33:08Z</time>
      </trkpt>
      <trkpt lat="44.93086" lon="1.09727">
        <ele>214.6</ele>
        <time>2022-08-17T10:33:10Z</time>
      </trkpt>
      <trkpt lat="44.93086" lon="1.09718">
        <ele>214.5</ele>
        <time>2022-08-17T10:33:12Z</time>
      </trkpt>
      <trkpt lat="44.93086" lon="1.09708">
        <ele>214.4</ele>
        <time>2022-08-17T10:33:14Z</time>
      </trkpt>
      <trkpt lat="44.93086" lon="1.09699">
        <ele>214.3</ele>
        <time>2022-08-17T10:33:16Z</time>
      </trkpt>
      <trkpt lat="44.93087" lon="1.09688">
        <ele>214.1</ele>
        <time>2022-08-17T10:33:18Z</time>
      </trkpt>
      <trkpt lat="44.93087" lon="1.09678">
        <ele>213.9</ele>
        <time>2022-08-17T10:33:20Z</time>
      </trkpt>
      <trkpt lat="44.93088" lon="1.09667">
        <ele>213.7</ele>
        <time>2022-08-17T10:33:22Z</time>
      </trkpt>
      <trkpt lat="44.9309" lon="1.09655">
        <ele>213.5</ele>
        <time>2022-08-17T10:33:24Z</time>
      </trkpt>
      <trkpt lat="44.93092" lon="1.09643">
        <ele>213.3</ele>
        <time>2022-08-17T10:33:26Z</time>
      </trkpt>
      <trkpt lat="44.93095" lon="1.09633">
        <ele>213.1</ele>
        <time>2022-08-17T10:33:28Z</time>
      </trkpt>
      <trkpt lat="44.93099" lon="1.09621">
        <ele>212.8</ele>
        <time>2022-08-17T10:33:30Z</time>
      </trkpt>
      <trkpt lat="44.93103" lon="1.09611">
        <ele>212.6</ele>
        <time>2022-08-17T10:33:32Z</time>
      </trkpt>
      <trkpt lat="44.93108" lon="1.09602">
        <ele>212.4</ele>
        <time>2022-08-17T10:33:34Z</time>
      </trkpt>
      <trkpt lat="44.93112" lon="1.09593">
        <ele>212.3</ele>
        <time>2022-08-17T10:33:36Z</time>
      </trkpt>
      <trkpt lat="44.93117" lon="1.09585">
        <ele>212.2</ele>
        <time>2022-08-17T10:33:38Z</time>
      </trkpt>
      <trkpt lat="44.93123" lon="1.09577">
        <ele>212</ele>
        <time>2022-08-17T10:33:40Z</time>
      </trkpt>
      <trkpt lat="44.93128" lon="1.09568">
        <ele>211.8</ele>
        <time>2022-08-17T10:33:42Z</time>
      </trkpt>
      <trkpt lat="44.93134" lon="1.0956">
        <ele>211.6</ele>
        <time>2022-08-17T10:33:44Z</time>
      </trkpt>
      <trkpt lat="44.93139" lon="1.09551">
        <ele>211.4</ele>
        <time>2022-08-17T10:33:46Z</time>
      </trkpt>
      <trkpt lat="44.93143" lon="1.09542">
        <ele>211.3</ele>
        <time>2022-08-17T10:33:48Z</time>
      </trkpt>
      <trkpt lat="44.93144" lon="1.09531">
        <ele>211.2</ele>
        <time>2022-08-17T10:33:50Z</time>
      </trkpt>
      <trkpt lat="44.93143" lon="1.0952">
        <ele>211.1</ele>
        <time>2022-08-17T10:33:52Z</time>
      </trkpt>
      <trkpt lat="44.93141" lon="1.0951">
        <ele>211.1</ele>
        <time>2022-08-17T10:33:54Z</time>
      </trkpt>
      <trkpt lat="44.93141" lon="1.09497">
        <ele>210.8</ele>
        <time>2022-08-17T10:33:56Z</time>
      </trkpt>
      <trkpt lat="44.93139" lon="1.09485">
        <ele>209.9</ele>
        <time>2022-08-17T10:33:58Z</time>
      </trkpt>
      <trkpt lat="44.93135" lon="1.09473">
        <ele>209</ele>
        <time>2022-08-17T10:34:00Z</time>
      </trkpt>
      <trkpt lat="44.93129" lon="1.09463">
        <ele>208.3</ele>
        <time>2022-08-17T10:34:02Z</time>
      </trkpt>
      <trkpt lat="44.93123" lon="1.09454">
        <ele>207.7</ele>
        <time>2022-08-17T10:34:04Z</time>
      </trkpt>
      <trkpt lat="44.93117" lon="1.09445">
        <ele>207.2</ele>
        <time>2022-08-17T10:34:06Z</time>
      </trkpt>
      <trkpt lat="44.9311" lon="1.09436">
        <ele>206.7</ele>
        <time>2022-08-17T10:34:08Z</time>
      </trkpt>
      <trkpt lat="44.93103" lon="1.09425">
        <ele>206.1</ele>
        <time>2022-08-17T10:34:10Z</time>
      </trkpt>
      <trkpt lat="44.93097" lon="1.09414">
        <ele>205.6</ele>
        <time>2022-08-17T10:34:12Z</time>
      </trkpt>
      <trkpt lat="44.9309" lon="1.09401">
        <ele>205.4</ele>
        <time>2022-08-17T10:34:14Z</time>
      </trkpt>
      <trkpt lat="44.93084" lon="1.09386">
        <ele>205.2</ele>
        <time>2022-08-17T10:34:16Z</time>
      </trkpt>
      <trkpt lat="44.93079" lon="1.09372">
        <ele>204.8</ele>
        <time>2022-08-17T10:34:18Z</time>
      </trkpt>
      <trkpt lat="44.93071" lon="1.09357">
        <ele>204.3</ele>
        <time>2022-08-17T10:34:20Z</time>
      </trkpt>
      <trkpt lat="44.93066" lon="1.09343">
        <ele>204</ele>
        <time>2022-08-17T10:34:22Z</time>
      </trkpt>
      <trkpt lat="44.93058" lon="1.09334">
        <ele>203.7</ele>
        <time>2022-08-17T10:34:24Z</time>
      </trkpt>
      <trkpt lat="44.9305" lon="1.09325">
        <ele>203.4</ele>
        <time>2022-08-17T10:34:26Z</time>
      </trkpt>
      <trkpt lat="44.93042" lon="1.09317">
        <ele>203.2</ele>
        <time>2022-08-17T10:34:28Z</time>
      </trkpt>
      <trkpt lat="44.93042" lon="1.09303">
        <ele>203</ele>
        <time>2022-08-17T10:34:30Z</time>
      </trkpt>
      <trkpt lat="44.93048" lon="1.09291">
        <ele>202.8</ele>
        <time>2022-08-17T10:34:32Z</time>
      </trkpt>
      <trkpt lat="44.93056" lon="1.09282">
        <ele>202.7</ele>
        <time>2022-08-17T10:34:34Z</time>
      </trkpt>
      <trkpt lat="44.93063" lon="1.09274">
        <ele>202.5</ele>
        <time>2022-08-17T10:34:36Z</time>
      </trkpt>
      <trkpt lat="44.9307" lon="1.09264">
        <ele>202.3</ele>
        <time>2022-08-17T10:34:38Z</time>
      </trkpt>
      <trkpt lat="44.93075" lon="1.09253">
        <ele>202.1</ele>
        <time>2022-08-17T10:34:40Z</time>
      </trkpt>
      <trkpt lat="44.93079" lon="1.09237">
        <ele>201.6</ele>
        <time>2022-08-17T10:34:42Z</time>
      </trkpt>
      <trkpt lat="44.93081" lon="1.09222">
        <ele>201.1</ele>
        <time>2022-08-17T10:34:44Z</time>
      </trkpt>
      <trkpt lat="44.93083" lon="1.0921">
        <ele>200.5</ele>
        <time>2022-08-17T10:34:46Z</time>
      </trkpt>
      <trkpt lat="44.93084" lon="1.09195">
        <ele>200</ele>
        <time>2022-08-17T10:34:48Z</time>
      </trkpt>
      <trkpt lat="44.93083" lon="1.09179">
        <ele>199.5</ele>
        <time>2022-08-17T10:34:50Z</time>
      </trkpt>
      <trkpt lat="44.93083" lon="1.09168">
        <ele>199</ele>
        <time>2022-08-17T10:34:52Z</time>
      </trkpt>
      <trkpt lat="44.93078" lon="1.09154">
        <ele>198.4</ele>
        <time>2022-08-17T10:34:54Z</time>
      </trkpt>
      <trkpt lat="44.93072" lon="1.09135">
        <ele>197.5</ele>
        <time>2022-08-17T10:34:56Z</time>
      </trkpt>
      <trkpt lat="44.93066" lon="1.0912">
        <ele>196.9</ele>
        <time>2022-08-17T10:34:58Z</time>
      </trkpt>
      <trkpt lat="44.93062" lon="1.09105">
        <ele>196.1</ele>
        <time>2022-08-17T10:35:00Z</time>
      </trkpt>
      <trkpt lat="44.93051" lon="1.09086">
        <ele>195.5</ele>
        <time>2022-08-17T10:35:02Z</time>
      </trkpt>
      <trkpt lat="44.93044" lon="1.09072">
        <ele>194.4</ele>
        <time>2022-08-17T10:35:04Z</time>
      </trkpt>
      <trkpt lat="44.93041" lon="1.09051">
        <ele>192.2</ele>
        <time>2022-08-17T10:35:06Z</time>
      </trkpt>
      <trkpt lat="44.93035" lon="1.09034">
        <ele>190.7</ele>
        <time>2022-08-17T10:35:08Z</time>
      </trkpt>
      <trkpt lat="44.93031" lon="1.0902">
        <ele>189.5</ele>
        <time>2022-08-17T10:35:10Z</time>
      </trkpt>
      <trkpt lat="44.93024" lon="1.09002">
        <ele>188.4</ele>
        <time>2022-08-17T10:35:12Z</time>
      </trkpt>
      <trkpt lat="44.93018" lon="1.08983">
        <ele>186.8</ele>
        <time>2022-08-17T10:35:14Z</time>
      </trkpt>
      <trkpt lat="44.93012" lon="1.08966">
        <ele>185.7</ele>
        <time>2022-08-17T10:35:16Z</time>
      </trkpt>
      <trkpt lat="44.93009" lon="1.08947">
        <ele>183.9</ele>
        <time>2022-08-17T10:35:18Z</time>
      </trkpt>
      <trkpt lat="44.93008" lon="1.0892">
        <ele>180.9</ele>
        <time>2022-08-17T10:35:20Z</time>
      </trkpt>
      <trkpt lat="44.9301" lon="1.08894">
        <ele>179.2</ele>
        <time>2022-08-17T10:35:22Z</time>
      </trkpt>
      <trkpt lat="44.93015" lon="1.0887">
        <ele>177</ele>
        <time>2022-08-17T10:35:24Z</time>
      </trkpt>
      <trkpt lat="44.93017" lon="1.08852">
        <ele>175.6</ele>
        <time>2022-08-17T10:35:26Z</time>
      </trkpt>
      <trkpt lat="44.93022" lon="1.0884">
        <ele>173.7</ele>
        <time>2022-08-17T10:35:28Z</time>
      </trkpt>
      <trkpt lat="44.93022" lon="1.08825">
        <ele>173</ele>
        <time>2022-08-17T10:35:30Z</time>
      </trkpt>
      <trkpt lat="44.9302" lon="1.08812">
        <ele>172.9</ele>
        <time>2022-08-17T10:35:32Z</time>
      </trkpt>
      <trkpt lat="44.93016" lon="1.088">
        <ele>173.2</ele>
        <time>2022-08-17T10:35:34Z</time>
      </trkpt>
      <trkpt lat="44.93011" lon="1.0879">
        <ele>173.7</ele>
        <time>2022-08-17T10:35:36Z</time>
      </trkpt>
      <trkpt lat="44.93009" lon="1.08784">
        <ele>173.9</ele>
        <time>2022-08-17T10:35:38Z</time>
      </trkpt>
      <trkpt lat="44.93008" lon="1.08778">
        <ele>174</ele>
        <time>2022-08-17T10:35:40Z</time>
      </trkpt>
      <trkpt lat="44.93006" lon="1.08772">
        <ele>173.9</ele>
        <time>2022-08-17T10:35:42Z</time>
      </trkpt>
      <trkpt lat="44.93006" lon="1.08765">
        <ele>173.5</ele>
        <time>2022-08-17T10:35:44Z</time>
      </trkpt>
      <trkpt lat="44.93006" lon="1.08758">
        <ele>173.2</ele>
        <time>2022-08-17T10:35:46Z</time>
      </trkpt>
      <trkpt lat="44.93006" lon="1.08751">
        <ele>172.7</ele>
        <time>2022-08-17T10:35:48Z</time>
      </trkpt>
      <trkpt lat="44.93008" lon="1.08742">
        <ele>171.5</ele>
        <time>2022-08-17T10:35:50Z</time>
      </trkpt>
      <trkpt lat="44.93007" lon="1.0873">
        <ele>170.4</ele>
        <time>2022-08-17T10:35:52Z</time>
      </trkpt>
      <trkpt lat="44.93007" lon="1.08716">
        <ele>169.1</ele>
        <time>2022-08-17T10:35:54Z</time>
      </trkpt>
      <trkpt lat="44.93006" lon="1.08702">
        <ele>167.7</ele>
        <time>2022-08-17T10:35:56Z</time>
      </trkpt>
      <trkpt lat="44.93006" lon="1.08685">
        <ele>166</ele>
        <time>2022-08-17T10:35:58Z</time>
      </trkpt>
      <trkpt lat="44.93006" lon="1.0867">
        <ele>164.4</ele>
        <time>2022-08-17T10:36:00Z</time>
      </trkpt>
      <trkpt lat="44.93006" lon="1.08653">
        <ele>162.8</ele>
        <time>2022-08-17T10:36:02Z</time>
      </trkpt>
      <trkpt lat="44.93006" lon="1.08637">
        <ele>161.3</ele>
        <time>2022-08-17T10:36:04Z</time>
      </trkpt>
      <trkpt lat="44.93007" lon="1.0862">
        <ele>159.6</ele>
        <time>2022-08-17T10:36:06Z</time>
      </trkpt>
      <trkpt lat="44.9301" lon="1.08604">
        <ele>157.7</ele>
        <time>2022-08-17T10:36:08Z</time>
      </trkpt>
      <trkpt lat="44.93013" lon="1.08587">
        <ele>155.9</ele>
        <time>2022-08-17T10:36:10Z</time>
      </trkpt>
      <trkpt lat="44.93017" lon="1.0857">
        <ele>154</ele>
        <time>2022-08-17T10:36:12Z</time>
      </trkpt>
      <trkpt lat="44.93021" lon="1.08555">
        <ele>152.2</ele>
        <time>2022-08-17T10:36:14Z</time>
      </trkpt>
      <trkpt lat="44.93023" lon="1.08539">
        <ele>150.6</ele>
        <time>2022-08-17T10:36:16Z</time>
      </trkpt>
      <trkpt lat="44.93022" lon="1.08524">
        <ele>149.3</ele>
        <time>2022-08-17T10:36:18Z</time>
      </trkpt>
      <trkpt lat="44.93021" lon="1.08511">
        <ele>148.2</ele>
        <time>2022-08-17T10:36:20Z</time>
      </trkpt>
      <trkpt lat="44.93019" lon="1.085">
        <ele>147.3</ele>
        <time>2022-08-17T10:36:22Z</time>
      </trkpt>
      <trkpt lat="44.93019" lon="1.08488">
        <ele>146.1</ele>
        <time>2022-08-17T10:36:24Z</time>
      </trkpt>
      <trkpt lat="44.93017" lon="1.0847">
        <ele>144.4</ele>
        <time>2022-08-17T10:36:26Z</time>
      </trkpt>
      <trkpt lat="44.93016" lon="1.08458">
        <ele>143.1</ele>
        <time>2022-08-17T10:36:28Z</time>
      </trkpt>
      <trkpt lat="44.9301" lon="1.08443">
        <ele>141.5</ele>
        <time>2022-08-17T10:36:30Z</time>
      </trkpt>
      <trkpt lat="44.93002" lon="1.08433">
        <ele>140.1</ele>
        <time>2022-08-17T10:36:32Z</time>
      </trkpt>
      <trkpt lat="44.92994" lon="1.08424">
        <ele>139.6</ele>
        <time>2022-08-17T10:36:34Z</time>
      </trkpt>
      <trkpt lat="44.92989" lon="1.08413">
        <ele>139.3</ele>
        <time>2022-08-17T10:36:36Z</time>
      </trkpt>
      <trkpt lat="44.92989" lon="1.08404">
        <ele>139.6</ele>
        <time>2022-08-17T10:36:38Z</time>
      </trkpt>
      <trkpt lat="44.92986" lon="1.08398">
        <ele>140</ele>
        <time>2022-08-17T10:36:40Z</time>
      </trkpt>
      <trkpt lat="44.92987" lon="1.08395">
        <ele>140</ele>
        <time>2022-08-17T10:36:42Z</time>
      </trkpt>
      <trkpt lat="44.92987" lon="1.08396">
        <ele>140</ele>
        <time>2022-08-17T10:36:44Z</time>
      </trkpt>
      <trkpt lat="44.92987" lon="1.08396">
        <ele>140</ele>
        <time>2022-08-17T10:36:46Z</time>
      </trkpt>
      <trkpt lat="44.92987" lon="1.08394">
        <ele>140</ele>
        <time>2022-08-17T10:36:48Z</time>
      </trkpt>
      <trkpt lat="44.92987" lon="1.08395">
        <ele>140</ele>
        <time>2022-08-17T10:36:50Z</time>
      </trkpt>
      <trkpt lat="44.92984" lon="1.08388">
        <ele>140.4</ele>
        <time>2022-08-17T10:37:14Z</time>
      </trkpt>
      <trkpt lat="44.92984" lon="1.08389">
        <ele>140.3</ele>
        <time>2022-08-17T10:37:16Z</time>
      </trkpt>
      <trkpt lat="44.92985" lon="1.08393">
        <ele>140.2</ele>
        <time>2022-08-17T10:37:18Z</time>
      </trkpt>
      <trkpt lat="44.92986" lon="1.08395">
        <ele>140</ele>
        <time>2022-08-17T10:37:20Z</time>
      </trkpt>
      <trkpt lat="44.92986" lon="1.08398">
        <ele>140</ele>
        <time>2022-08-17T10:37:22Z</time>
      </trkpt>
      <trkpt lat="44.92986" lon="1.08401">
        <ele>139.9</ele>
        <time>2022-08-17T10:37:24Z</time>
      </trkpt>
      <trkpt lat="44.92988" lon="1.08407">
        <ele>139.6</ele>
        <time>2022-08-17T10:37:26Z</time>
      </trkpt>
      <trkpt lat="44.9299" lon="1.08412">
        <ele>139.2</ele>
        <time>2022-08-17T10:37:28Z</time>
      </trkpt>
      <trkpt lat="44.92992" lon="1.08417">
        <ele>138.8</ele>
        <time>2022-08-17T10:37:30Z</time>
      </trkpt>
      <trkpt lat="44.92995" lon="1.08421">
        <ele>139.1</ele>
        <time>2022-08-17T10:37:32Z</time>
      </trkpt>
      <trkpt lat="44.92995" lon="1.08422">
        <ele>139.1</ele>
        <time>2022-08-17T10:37:34Z</time>
      </trkpt>
      <trkpt lat="44.92996" lon="1.08423">
        <ele>139.2</ele>
        <time>2022-08-17T10:37:36Z</time>
      </trkpt>
      <trkpt lat="44.92997" lon="1.08423">
        <ele>139.2</ele>
        <time>2022-08-17T10:37:40Z</time>
      </trkpt>
      <trkpt lat="44.92988" lon="1.0841">
        <ele>139.5</ele>
        <time>2022-08-17T10:38:20Z</time>
      </trkpt>
      <trkpt lat="44.92986" lon="1.08402">
        <ele>139.9</ele>
        <time>2022-08-17T10:38:22Z</time>
      </trkpt>
      <trkpt lat="44.92985" lon="1.08394">
        <ele>140.2</ele>
        <time>2022-08-17T10:38:24Z</time>
      </trkpt>
      <trkpt lat="44.92978" lon="1.08385">
        <ele>140.8</ele>
        <time>2022-08-17T10:38:26Z</time>
      </trkpt>
      <trkpt lat="44.92972" lon="1.08377">
        <ele>141.2</ele>
        <time>2022-08-17T10:38:28Z</time>
      </trkpt>
      <trkpt lat="44.92965" lon="1.08366">
        <ele>141.4</ele>
        <time>2022-08-17T10:38:30Z</time>
      </trkpt>
      <trkpt lat="44.92959" lon="1.08355">
        <ele>141.4</ele>
        <time>2022-08-17T10:38:32Z</time>
      </trkpt>
      <trkpt lat="44.92953" lon="1.08342">
        <ele>141.1</ele>
        <time>2022-08-17T10:38:34Z</time>
      </trkpt>
      <trkpt lat="44.92947" lon="1.08328">
        <ele>140.7</ele>
        <time>2022-08-17T10:38:36Z</time>
      </trkpt>
      <trkpt lat="44.92941" lon="1.08314">
        <ele>140.3</ele>
        <time>2022-08-17T10:38:38Z</time>
      </trkpt>
      <trkpt lat="44.92934" lon="1.08299">
        <ele>139.5</ele>
        <time>2022-08-17T10:38:40Z</time>
      </trkpt>
      <trkpt lat="44.92927" lon="1.08284">
        <ele>138.4</ele>
        <time>2022-08-17T10:38:42Z</time>
      </trkpt>
      <trkpt lat="44.92919" lon="1.08271">
        <ele>136.6</ele>
        <time>2022-08-17T10:38:44Z</time>
      </trkpt>
      <trkpt lat="44.92909" lon="1.08259">
        <ele>135.1</ele>
        <time>2022-08-17T10:38:46Z</time>
      </trkpt>
      <trkpt lat="44.92897" lon="1.0825">
        <ele>133.6</ele>
        <time>2022-08-17T10:38:48Z</time>
      </trkpt>
      <trkpt lat="44.92885" lon="1.08244">
        <ele>133.3</ele>
        <time>2022-08-17T10:38:50Z</time>
      </trkpt>
      <trkpt lat="44.92872" lon="1.08239">
        <ele>132.6</ele>
        <time>2022-08-17T10:38:52Z</time>
      </trkpt>
      <trkpt lat="44.92858" lon="1.08233">
        <ele>131.8</ele>
        <time>2022-08-17T10:38:54Z</time>
      </trkpt>
      <trkpt lat="44.92842" lon="1.08228">
        <ele>130.7</ele>
        <time>2022-08-17T10:38:56Z</time>
      </trkpt>
      <trkpt lat="44.92826" lon="1.08222">
        <ele>130</ele>
        <time>2022-08-17T10:38:58Z</time>
      </trkpt>
      <trkpt lat="44.9281" lon="1.08215">
        <ele>130.2</ele>
        <time>2022-08-17T10:39:00Z</time>
      </trkpt>
      <trkpt lat="44.92793" lon="1.08209">
        <ele>130</ele>
        <time>2022-08-17T10:39:02Z</time>
      </trkpt>
      <trkpt lat="44.92775" lon="1.08201">
        <ele>129.6</ele>
        <time>2022-08-17T10:39:04Z</time>
      </trkpt>
      <trkpt lat="44.92758" lon="1.08191">
        <ele>128.7</ele>
        <time>2022-08-17T10:39:06Z</time>
      </trkpt>
      <trkpt lat="44.92741" lon="1.08181">
        <ele>127.6</ele>
        <time>2022-08-17T10:39:08Z</time>
      </trkpt>
      <trkpt lat="44.92722" lon="1.08171">
        <ele>125.8</ele>
        <time>2022-08-17T10:39:10Z</time>
      </trkpt>
      <trkpt lat="44.92705" lon="1.08158">
        <ele>124</ele>
        <time>2022-08-17T10:39:12Z</time>
      </trkpt>
      <trkpt lat="44.92691" lon="1.08144">
        <ele>121.9</ele>
        <time>2022-08-17T10:39:14Z</time>
      </trkpt>
      <trkpt lat="44.92679" lon="1.08131">
        <ele>119.1</ele>
        <time>2022-08-17T10:39:16Z</time>
      </trkpt>
      <trkpt lat="44.92668" lon="1.08118">
        <ele>115.7</ele>
        <time>2022-08-17T10:39:18Z</time>
      </trkpt>
      <trkpt lat="44.92659" lon="1.08107">
        <ele>113.5</ele>
        <time>2022-08-17T10:39:20Z</time>
      </trkpt>
      <trkpt lat="44.9265" lon="1.08097">
        <ele>111.5</ele>
        <time>2022-08-17T10:39:22Z</time>
      </trkpt>
      <trkpt lat="44.92643" lon="1.08088">
        <ele>109.9</ele>
        <time>2022-08-17T10:39:24Z</time>
      </trkpt>
      <trkpt lat="44.9264" lon="1.08082">
        <ele>109</ele>
        <time>2022-08-17T10:39:26Z</time>
      </trkpt>
      <trkpt lat="44.92641" lon="1.08076">
        <ele>108.7</ele>
        <time>2022-08-17T10:39:28Z</time>
      </trkpt>
      <trkpt lat="44.92645" lon="1.08069">
        <ele>108.6</ele>
        <time>2022-08-17T10:39:30Z</time>
      </trkpt>
      <trkpt lat="44.92651" lon="1.08062">
        <ele>108.8</ele>
        <time>2022-08-17T10:39:32Z</time>
      </trkpt>
      <trkpt lat="44.92657" lon="1.08055">
        <ele>108.8</ele>
        <time>2022-08-17T10:39:34Z</time>
      </trkpt>
      <trkpt lat="44.92663" lon="1.08047">
        <ele>108.9</ele>
        <time>2022-08-17T10:39:36Z</time>
      </trkpt>
      <trkpt lat="44.92668" lon="1.08038">
        <ele>109.2</ele>
        <time>2022-08-17T10:39:38Z</time>
      </trkpt>
      <trkpt lat="44.92673" lon="1.08029">
        <ele>110.3</ele>
        <time>2022-08-17T10:39:40Z</time>
      </trkpt>
      <trkpt lat="44.92678" lon="1.08019">
        <ele>111.3</ele>
        <time>2022-08-17T10:39:42Z</time>
      </trkpt>
      <trkpt lat="44.92683" lon="1.08009">
        <ele>112.5</ele>
        <time>2022-08-17T10:39:44Z</time>
      </trkpt>
      <trkpt lat="44.92687" lon="1.07998">
        <ele>113.4</ele>
        <time>2022-08-17T10:39:46Z</time>
      </trkpt>
      <trkpt lat="44.92691" lon="1.07988">
        <ele>114</ele>
        <time>2022-08-17T10:39:48Z</time>
      </trkpt>
      <trkpt lat="44.92695" lon="1.07976">
        <ele>114.4</ele>
        <time>2022-08-17T10:39:50Z</time>
      </trkpt>
      <trkpt lat="44.92699" lon="1.07965">
        <ele>114.8</ele>
        <time>2022-08-17T10:39:52Z</time>
      </trkpt>
      <trkpt lat="44.92703" lon="1.07953">
        <ele>115.1</ele>
        <time>2022-08-17T10:39:54Z</time>
      </trkpt>
      <trkpt lat="44.92706" lon="1.07941">
        <ele>115.3</ele>
        <time>2022-08-17T10:39:56Z</time>
      </trkpt>
      <trkpt lat="44.9271" lon="1.0793">
        <ele>115.6</ele>
        <time>2022-08-17T10:39:58Z</time>
      </trkpt>
      <trkpt lat="44.92714" lon="1.07918">
        <ele>115.7</ele>
        <time>2022-08-17T10:40:00Z</time>
      </trkpt>
      <trkpt lat="44.92718" lon="1.07907">
        <ele>115.7</ele>
        <time>2022-08-17T10:40:02Z</time>
      </trkpt>
      <trkpt lat="44.92722" lon="1.07894">
        <ele>115.4</ele>
        <time>2022-08-17T10:40:04Z</time>
      </trkpt>
      <trkpt lat="44.92726" lon="1.07883">
        <ele>115.2</ele>
        <time>2022-08-17T10:40:06Z</time>
      </trkpt>
      <trkpt lat="44.92729" lon="1.07871">
        <ele>114.7</ele>
        <time>2022-08-17T10:40:08Z</time>
      </trkpt>
      <trkpt lat="44.92733" lon="1.0786">
        <ele>114.2</ele>
        <time>2022-08-17T10:40:10Z</time>
      </trkpt>
      <trkpt lat="44.92737" lon="1.07848">
        <ele>113.5</ele>
        <time>2022-08-17T10:40:12Z</time>
      </trkpt>
      <trkpt lat="44.9274" lon="1.07836">
        <ele>112.6</ele>
        <time>2022-08-17T10:40:14Z</time>
      </trkpt>
      <trkpt lat="44.92744" lon="1.07824">
        <ele>112.1</ele>
        <time>2022-08-17T10:40:16Z</time>
      </trkpt>
      <trkpt lat="44.92748" lon="1.07812">
        <ele>111.7</ele>
        <time>2022-08-17T10:40:18Z</time>
      </trkpt>
      <trkpt lat="44.92752" lon="1.07801">
        <ele>111.5</ele>
        <time>2022-08-17T10:40:20Z</time>
      </trkpt>
      <trkpt lat="44.92756" lon="1.07789">
        <ele>111.6</ele>
        <time>2022-08-17T10:40:22Z</time>
      </trkpt>
      <trkpt lat="44.92759" lon="1.07778">
        <ele>111.6</ele>
        <time>2022-08-17T10:40:24Z</time>
      </trkpt>
      <trkpt lat="44.92763" lon="1.07766">
        <ele>111.8</ele>
        <time>2022-08-17T10:40:26Z</time>
      </trkpt>
      <trkpt lat="44.92767" lon="1.07755">
        <ele>111.9</ele>
        <time>2022-08-17T10:40:28Z</time>
      </trkpt>
      <trkpt lat="44.9277" lon="1.07744">
        <ele>112.1</ele>
        <time>2022-08-17T10:40:30Z</time>
      </trkpt>
      <trkpt lat="44.92774" lon="1.07733">
        <ele>112.6</ele>
        <time>2022-08-17T10:40:32Z</time>
      </trkpt>
      <trkpt lat="44.92777" lon="1.07723">
        <ele>112.9</ele>
        <time>2022-08-17T10:40:34Z</time>
      </trkpt>
      <trkpt lat="44.92781" lon="1.07712">
        <ele>113.1</ele>
        <time>2022-08-17T10:40:36Z</time>
      </trkpt>
      <trkpt lat="44.92784" lon="1.07702">
        <ele>113.2</ele>
        <time>2022-08-17T10:40:38Z</time>
      </trkpt>
      <trkpt lat="44.92788" lon="1.07691">
        <ele>113.2</ele>
        <time>2022-08-17T10:40:40Z</time>
      </trkpt>
      <trkpt lat="44.92791" lon="1.0768">
        <ele>113.1</ele>
        <time>2022-08-17T10:40:42Z</time>
      </trkpt>
      <trkpt lat="44.92795" lon="1.0767">
        <ele>113</ele>
        <time>2022-08-17T10:40:44Z</time>
      </trkpt>
      <trkpt lat="44.92798" lon="1.07659">
        <ele>113</ele>
        <time>2022-08-17T10:40:46Z</time>
      </trkpt>
      <trkpt lat="44.92801" lon="1.07649">
        <ele>112.9</ele>
        <time>2022-08-17T10:40:48Z</time>
      </trkpt>
      <trkpt lat="44.92805" lon="1.07638">
        <ele>112.9</ele>
        <time>2022-08-17T10:40:50Z</time>
      </trkpt>
      <trkpt lat="44.92808" lon="1.07628">
        <ele>112.7</ele>
        <time>2022-08-17T10:40:52Z</time>
      </trkpt>
      <trkpt lat="44.92812" lon="1.07617">
        <ele>112.4</ele>
        <time>2022-08-17T10:40:54Z</time>
      </trkpt>
      <trkpt lat="44.92815" lon="1.07606">
        <ele>112</ele>
        <time>2022-08-17T10:40:56Z</time>
      </trkpt>
      <trkpt lat="44.92819" lon="1.07595">
        <ele>111.5</ele>
        <time>2022-08-17T10:40:58Z</time>
      </trkpt>
      <trkpt lat="44.92822" lon="1.07585">
        <ele>110.9</ele>
        <time>2022-08-17T10:41:00Z</time>
      </trkpt>
      <trkpt lat="44.92826" lon="1.07573">
        <ele>110.3</ele>
        <time>2022-08-17T10:41:02Z</time>
      </trkpt>
      <trkpt lat="44.92829" lon="1.07562">
        <ele>109.6</ele>
        <time>2022-08-17T10:41:04Z</time>
      </trkpt>
      <trkpt lat="44.92833" lon="1.07551">
        <ele>108.9</ele>
        <time>2022-08-17T10:41:06Z</time>
      </trkpt>
      <trkpt lat="44.92837" lon="1.0754">
        <ele>108.4</ele>
        <time>2022-08-17T10:41:08Z</time>
      </trkpt>
      <trkpt lat="44.92841" lon="1.07528">
        <ele>107.7</ele>
        <time>2022-08-17T10:41:10Z</time>
      </trkpt>
      <trkpt lat="44.92846" lon="1.07516">
        <ele>107.1</ele>
        <time>2022-08-17T10:41:12Z</time>
      </trkpt>
      <trkpt lat="44.9285" lon="1.07504">
        <ele>106.3</ele>
        <time>2022-08-17T10:41:14Z</time>
      </trkpt>
      <trkpt lat="44.92855" lon="1.07492">
        <ele>106</ele>
        <time>2022-08-17T10:41:16Z</time>
      </trkpt>
      <trkpt lat="44.92861" lon="1.0748">
        <ele>105.8</ele>
        <time>2022-08-17T10:41:18Z</time>
      </trkpt>
      <trkpt lat="44.92867" lon="1.07468">
        <ele>105.5</ele>
        <time>2022-08-17T10:41:20Z</time>
      </trkpt>
      <trkpt lat="44.92874" lon="1.07457">
        <ele>105</ele>
        <time>2022-08-17T10:41:22Z</time>
      </trkpt>
      <trkpt lat="44.92882" lon="1.07446">
        <ele>104.6</ele>
        <time>2022-08-17T10:41:24Z</time>
      </trkpt>
      <trkpt lat="44.9289" lon="1.07435">
        <ele>104</ele>
        <time>2022-08-17T10:41:26Z</time>
      </trkpt>
      <trkpt lat="44.92899" lon="1.07425">
        <ele>103.3</ele>
        <time>2022-08-17T10:41:28Z</time>
      </trkpt>
      <trkpt lat="44.92909" lon="1.07416">
        <ele>102.7</ele>
        <time>2022-08-17T10:41:30Z</time>
      </trkpt>
      <trkpt lat="44.92919" lon="1.07407">
        <ele>102.6</ele>
        <time>2022-08-17T10:41:32Z</time>
      </trkpt>
      <trkpt lat="44.9293" lon="1.07399">
        <ele>102.5</ele>
        <time>2022-08-17T10:41:34Z</time>
      </trkpt>
      <trkpt lat="44.92942" lon="1.07393">
        <ele>102.4</ele>
        <time>2022-08-17T10:41:36Z</time>
      </trkpt>
      <trkpt lat="44.92954" lon="1.07387">
        <ele>102.3</ele>
        <time>2022-08-17T10:41:38Z</time>
      </trkpt>
      <trkpt lat="44.92967" lon="1.07383">
        <ele>102.2</ele>
        <time>2022-08-17T10:41:40Z</time>
      </trkpt>
      <trkpt lat="44.9298" lon="1.0738">
        <ele>102.2</ele>
        <time>2022-08-17T10:41:42Z</time>
      </trkpt>
      <trkpt lat="44.92993" lon="1.07378">
        <ele>102.2</ele>
        <time>2022-08-17T10:41:44Z</time>
      </trkpt>
      <trkpt lat="44.93006" lon="1.07377">
        <ele>102.5</ele>
        <time>2022-08-17T10:41:46Z</time>
      </trkpt>
      <trkpt lat="44.9302" lon="1.07378">
        <ele>103.1</ele>
        <time>2022-08-17T10:41:48Z</time>
      </trkpt>
      <trkpt lat="44.93033" lon="1.07378">
        <ele>103.8</ele>
        <time>2022-08-17T10:41:50Z</time>
      </trkpt>
      <trkpt lat="44.93046" lon="1.07378">
        <ele>104.3</ele>
        <time>2022-08-17T10:41:52Z</time>
      </trkpt>
      <trkpt lat="44.93057" lon="1.07377">
        <ele>104.7</ele>
        <time>2022-08-17T10:41:54Z</time>
      </trkpt>
      <trkpt lat="44.93069" lon="1.07377">
        <ele>105.2</ele>
        <time>2022-08-17T10:41:56Z</time>
      </trkpt>
      <trkpt lat="44.93081" lon="1.07378">
        <ele>105.9</ele>
        <time>2022-08-17T10:41:58Z</time>
      </trkpt>
      <trkpt lat="44.93094" lon="1.07379">
        <ele>107.6</ele>
        <time>2022-08-17T10:42:00Z</time>
      </trkpt>
      <trkpt lat="44.93107" lon="1.07379">
        <ele>109.2</ele>
        <time>2022-08-17T10:42:02Z</time>
      </trkpt>
      <trkpt lat="44.93118" lon="1.07377">
        <ele>110.2</ele>
        <time>2022-08-17T10:42:04Z</time>
      </trkpt>
      <trkpt lat="44.93131" lon="1.07374">
        <ele>111.3</ele>
        <time>2022-08-17T10:42:06Z</time>
      </trkpt>
      <trkpt lat="44.93143" lon="1.0737">
        <ele>111.9</ele>
        <time>2022-08-17T10:42:08Z</time>
      </trkpt>
      <trkpt lat="44.93154" lon="1.07365">
        <ele>112.1</ele>
        <time>2022-08-17T10:42:10Z</time>
      </trkpt>
      <trkpt lat="44.93165" lon="1.07359">
        <ele>112</ele>
        <time>2022-08-17T10:42:12Z</time>
      </trkpt>
      <trkpt lat="44.93176" lon="1.07353">
        <ele>112.7</ele>
        <time>2022-08-17T10:42:14Z</time>
      </trkpt>
      <trkpt lat="44.93187" lon="1.07346">
        <ele>113.2</ele>
        <time>2022-08-17T10:42:16Z</time>
      </trkpt>
      <trkpt lat="44.93198" lon="1.07339">
        <ele>113.4</ele>
        <time>2022-08-17T10:42:18Z</time>
      </trkpt>
      <trkpt lat="44.93208" lon="1.0733">
        <ele>113.4</ele>
        <time>2022-08-17T10:42:20Z</time>
      </trkpt>
      <trkpt lat="44.93217" lon="1.07321">
        <ele>113.7</ele>
        <time>2022-08-17T10:42:22Z</time>
      </trkpt>
      <trkpt lat="44.93225" lon="1.07313">
        <ele>113.6</ele>
        <time>2022-08-17T10:42:24Z</time>
      </trkpt>
      <trkpt lat="44.93234" lon="1.07304">
        <ele>113</ele>
        <time>2022-08-17T10:42:26Z</time>
      </trkpt>
      <trkpt lat="44.93242" lon="1.07294">
        <ele>112.1</ele>
        <time>2022-08-17T10:42:28Z</time>
      </trkpt>
      <trkpt lat="44.9325" lon="1.07284">
        <ele>110.8</ele>
        <time>2022-08-17T10:42:30Z</time>
      </trkpt>
      <trkpt lat="44.93258" lon="1.07273">
        <ele>109.1</ele>
        <time>2022-08-17T10:42:32Z</time>
      </trkpt>
      <trkpt lat="44.93265" lon="1.07262">
        <ele>107.5</ele>
        <time>2022-08-17T10:42:34Z</time>
      </trkpt>
      <trkpt lat="44.93272" lon="1.0725">
        <ele>106.1</ele>
        <time>2022-08-17T10:42:36Z</time>
      </trkpt>
      <trkpt lat="44.93279" lon="1.07236">
        <ele>107.1</ele>
        <time>2022-08-17T10:42:38Z</time>
      </trkpt>
      <trkpt lat="44.93285" lon="1.07222">
        <ele>108.3</ele>
        <time>2022-08-17T10:42:40Z</time>
      </trkpt>
      <trkpt lat="44.9329" lon="1.07207">
        <ele>109.5</ele>
        <time>2022-08-17T10:42:42Z</time>
      </trkpt>
      <trkpt lat="44.93295" lon="1.07193">
        <ele>110.8</ele>
        <time>2022-08-17T10:42:44Z</time>
      </trkpt>
      <trkpt lat="44.93301" lon="1.07179">
        <ele>112.4</ele>
        <time>2022-08-17T10:42:46Z</time>
      </trkpt>
      <trkpt lat="44.93305" lon="1.07166">
        <ele>113.8</ele>
        <time>2022-08-17T10:42:48Z</time>
      </trkpt>
      <trkpt lat="44.93308" lon="1.07152">
        <ele>114</ele>
        <time>2022-08-17T10:42:50Z</time>
      </trkpt>
      <trkpt lat="44.93311" lon="1.07139">
        <ele>114</ele>
        <time>2022-08-17T10:42:52Z</time>
      </trkpt>
      <trkpt lat="44.93314" lon="1.07126">
        <ele>114.1</ele>
        <time>2022-08-17T10:42:54Z</time>
      </trkpt>
      <trkpt lat="44.93317" lon="1.07113">
        <ele>114.1</ele>
        <time>2022-08-17T10:42:56Z</time>
      </trkpt>
      <trkpt lat="44.93319" lon="1.07102">
        <ele>114.1</ele>
        <time>2022-08-17T10:42:58Z</time>
      </trkpt>
      <trkpt lat="44.93322" lon="1.0709">
        <ele>114.1</ele>
        <time>2022-08-17T10:43:00Z</time>
      </trkpt>
      <trkpt lat="44.93324" lon="1.0708">
        <ele>113.8</ele>
        <time>2022-08-17T10:43:02Z</time>
      </trkpt>
      <trkpt lat="44.93327" lon="1.0707">
        <ele>113.1</ele>
        <time>2022-08-17T10:43:04Z</time>
      </trkpt>
      <trkpt lat="44.93328" lon="1.07061">
        <ele>112.4</ele>
        <time>2022-08-17T10:43:06Z</time>
      </trkpt>
      <trkpt lat="44.9333" lon="1.07052">
        <ele>111.6</ele>
        <time>2022-08-17T10:43:08Z</time>
      </trkpt>
      <trkpt lat="44.93332" lon="1.07043">
        <ele>111</ele>
        <time>2022-08-17T10:43:10Z</time>
      </trkpt>
      <trkpt lat="44.93334" lon="1.07035">
        <ele>110.5</ele>
        <time>2022-08-17T10:43:12Z</time>
      </trkpt>
      <trkpt lat="44.93336" lon="1.07025">
        <ele>109.8</ele>
        <time>2022-08-17T10:43:14Z</time>
      </trkpt>
      <trkpt lat="44.93338" lon="1.07015">
        <ele>109</ele>
        <time>2022-08-17T10:43:16Z</time>
      </trkpt>
      <trkpt lat="44.9334" lon="1.07007">
        <ele>108.5</ele>
        <time>2022-08-17T10:43:18Z</time>
      </trkpt>
      <trkpt lat="44.93342" lon="1.07">
        <ele>108.1</ele>
        <time>2022-08-17T10:43:20Z</time>
      </trkpt>
      <trkpt lat="44.93344" lon="1.06993">
        <ele>107.9</ele>
        <time>2022-08-17T10:43:22Z</time>
      </trkpt>
      <trkpt lat="44.93346" lon="1.06983">
        <ele>107.4</ele>
        <time>2022-08-17T10:43:24Z</time>
      </trkpt>
      <trkpt lat="44.93348" lon="1.06974">
        <ele>107</ele>
        <time>2022-08-17T10:43:26Z</time>
      </trkpt>
      <trkpt lat="44.93351" lon="1.06965">
        <ele>106.8</ele>
        <time>2022-08-17T10:43:28Z</time>
      </trkpt>
      <trkpt lat="44.93354" lon="1.06956">
        <ele>106.4</ele>
        <time>2022-08-17T10:43:30Z</time>
      </trkpt>
      <trkpt lat="44.93357" lon="1.06947">
        <ele>106.1</ele>
        <time>2022-08-17T10:43:32Z</time>
      </trkpt>
      <trkpt lat="44.9336" lon="1.06937">
        <ele>105.7</ele>
        <time>2022-08-17T10:43:34Z</time>
      </trkpt>
      <trkpt lat="44.93364" lon="1.06926">
        <ele>105.2</ele>
        <time>2022-08-17T10:43:36Z</time>
      </trkpt>
      <trkpt lat="44.93367" lon="1.06917">
        <ele>104.8</ele>
        <time>2022-08-17T10:43:38Z</time>
      </trkpt>
      <trkpt lat="44.93372" lon="1.06909">
        <ele>105.1</ele>
        <time>2022-08-17T10:43:40Z</time>
      </trkpt>
      <trkpt lat="44.93377" lon="1.06901">
        <ele>105.3</ele>
        <time>2022-08-17T10:43:42Z</time>
      </trkpt>
      <trkpt lat="44.93382" lon="1.06893">
        <ele>105.4</ele>
        <time>2022-08-17T10:43:44Z</time>
      </trkpt>
      <trkpt lat="44.93387" lon="1.06884">
        <ele>105.4</ele>
        <time>2022-08-17T10:43:46Z</time>
      </trkpt>
      <trkpt lat="44.93394" lon="1.06876">
        <ele>105.5</ele>
        <time>2022-08-17T10:43:48Z</time>
      </trkpt>
      <trkpt lat="44.93399" lon="1.06868">
        <ele>105.3</ele>
        <time>2022-08-17T10:43:50Z</time>
      </trkpt>
      <trkpt lat="44.93405" lon="1.06861">
        <ele>105.2</ele>
        <time>2022-08-17T10:43:52Z</time>
      </trkpt>
      <trkpt lat="44.93411" lon="1.06854">
        <ele>105</ele>
        <time>2022-08-17T10:43:54Z</time>
      </trkpt>
      <trkpt lat="44.93418" lon="1.06847">
        <ele>104.7</ele>
        <time>2022-08-17T10:43:56Z</time>
      </trkpt>
      <trkpt lat="44.93425" lon="1.06839">
        <ele>104.2</ele>
        <time>2022-08-17T10:43:58Z</time>
      </trkpt>
      <trkpt lat="44.93432" lon="1.06832">
        <ele>103.8</ele>
        <time>2022-08-17T10:44:00Z</time>
      </trkpt>
      <trkpt lat="44.93438" lon="1.06824">
        <ele>103.8</ele>
        <time>2022-08-17T10:44:02Z</time>
      </trkpt>
      <trkpt lat="44.93445" lon="1.06816">
        <ele>103.7</ele>
        <time>2022-08-17T10:44:04Z</time>
      </trkpt>
      <trkpt lat="44.93452" lon="1.06808">
        <ele>103.7</ele>
        <time>2022-08-17T10:44:06Z</time>
      </trkpt>
      <trkpt lat="44.93459" lon="1.068">
        <ele>103.6</ele>
        <time>2022-08-17T10:44:08Z</time>
      </trkpt>
      <trkpt lat="44.93467" lon="1.06792">
        <ele>103.4</ele>
        <time>2022-08-17T10:44:10Z</time>
      </trkpt>
      <trkpt lat="44.93474" lon="1.06783">
        <ele>103.2</ele>
        <time>2022-08-17T10:44:12Z</time>
      </trkpt>
      <trkpt lat="44.93481" lon="1.06774">
        <ele>102.9</ele>
        <time>2022-08-17T10:44:14Z</time>
      </trkpt>
      <trkpt lat="44.93488" lon="1.06765">
        <ele>102.6</ele>
        <time>2022-08-17T10:44:16Z</time>
      </trkpt>
      <trkpt lat="44.93496" lon="1.06756">
        <ele>102.3</ele>
        <time>2022-08-17T10:44:18Z</time>
      </trkpt>
      <trkpt lat="44.93504" lon="1.06747">
        <ele>102.3</ele>
        <time>2022-08-17T10:44:20Z</time>
      </trkpt>
      <trkpt lat="44.93511" lon="1.06737">
        <ele>102.5</ele>
        <time>2022-08-17T10:44:22Z</time>
      </trkpt>
      <trkpt lat="44.9352" lon="1.06729">
        <ele>102.8</ele>
        <time>2022-08-17T10:44:24Z</time>
      </trkpt>
      <trkpt lat="44.93528" lon="1.0672">
        <ele>103</ele>
        <time>2022-08-17T10:44:26Z</time>
      </trkpt>
      <trkpt lat="44.93536" lon="1.0671">
        <ele>102.9</ele>
        <time>2022-08-17T10:44:28Z</time>
      </trkpt>
      <trkpt lat="44.93544" lon="1.06702">
        <ele>102.9</ele>
        <time>2022-08-17T10:44:30Z</time>
      </trkpt>
      <trkpt lat="44.93553" lon="1.06692">
        <ele>102.7</ele>
        <time>2022-08-17T10:44:32Z</time>
      </trkpt>
      <trkpt lat="44.93562" lon="1.06683">
        <ele>102.4</ele>
        <time>2022-08-17T10:44:34Z</time>
      </trkpt>
      <trkpt lat="44.93571" lon="1.06673">
        <ele>102</ele>
        <time>2022-08-17T10:44:36Z</time>
      </trkpt>
      <trkpt lat="44.9358" lon="1.06663">
        <ele>101.6</ele>
        <time>2022-08-17T10:44:38Z</time>
      </trkpt>
      <trkpt lat="44.9359" lon="1.06654">
        <ele>101.8</ele>
        <time>2022-08-17T10:44:40Z</time>
      </trkpt>
      <trkpt lat="44.936" lon="1.06646">
        <ele>102.1</ele>
        <time>2022-08-17T10:44:42Z</time>
      </trkpt>
      <trkpt lat="44.93609" lon="1.06638">
        <ele>102.1</ele>
        <time>2022-08-17T10:44:44Z</time>
      </trkpt>
      <trkpt lat="44.93619" lon="1.06631">
        <ele>102.1</ele>
        <time>2022-08-17T10:44:46Z</time>
      </trkpt>
      <trkpt lat="44.9363" lon="1.06625">
        <ele>102</ele>
        <time>2022-08-17T10:44:48Z</time>
      </trkpt>
      <trkpt lat="44.93641" lon="1.0662">
        <ele>101.9</ele>
        <time>2022-08-17T10:44:50Z</time>
      </trkpt>
      <trkpt lat="44.93652" lon="1.06614">
        <ele>101.5</ele>
        <time>2022-08-17T10:44:52Z</time>
      </trkpt>
      <trkpt lat="44.93664" lon="1.0661">
        <ele>101.4</ele>
        <time>2022-08-17T10:44:54Z</time>
      </trkpt>
      <trkpt lat="44.93675" lon="1.06606">
        <ele>102</ele>
        <time>2022-08-17T10:44:56Z</time>
      </trkpt>
      <trkpt lat="44.93686" lon="1.06605">
        <ele>103.3</ele>
        <time>2022-08-17T10:44:58Z</time>
      </trkpt>
      <trkpt lat="44.93697" lon="1.06602">
        <ele>104.2</ele>
        <time>2022-08-17T10:45:00Z</time>
      </trkpt>
      <trkpt lat="44.93709" lon="1.06598">
        <ele>104.9</ele>
        <time>2022-08-17T10:45:02Z</time>
      </trkpt>
      <trkpt lat="44.93719" lon="1.06595">
        <ele>105.5</ele>
        <time>2022-08-17T10:45:04Z</time>
      </trkpt>
      <trkpt lat="44.9373" lon="1.06591">
        <ele>105.9</ele>
        <time>2022-08-17T10:45:06Z</time>
      </trkpt>
      <trkpt lat="44.93742" lon="1.06588">
        <ele>106.3</ele>
        <time>2022-08-17T10:45:08Z</time>
      </trkpt>
      <trkpt lat="44.93752" lon="1.06585">
        <ele>106.7</ele>
        <time>2022-08-17T10:45:10Z</time>
      </trkpt>
      <trkpt lat="44.93763" lon="1.06581">
        <ele>107.3</ele>
        <time>2022-08-17T10:45:12Z</time>
      </trkpt>
      <trkpt lat="44.93774" lon="1.06578">
        <ele>108</ele>
        <time>2022-08-17T10:45:14Z</time>
      </trkpt>
      <trkpt lat="44.93785" lon="1.06574">
        <ele>108.6</ele>
        <time>2022-08-17T10:45:16Z</time>
      </trkpt>
      <trkpt lat="44.93797" lon="1.0657">
        <ele>109.1</ele>
        <time>2022-08-17T10:45:18Z</time>
      </trkpt>
      <trkpt lat="44.93808" lon="1.06567">
        <ele>109.6</ele>
        <time>2022-08-17T10:45:20Z</time>
      </trkpt>
      <trkpt lat="44.93819" lon="1.06563">
        <ele>109.8</ele>
        <time>2022-08-17T10:45:22Z</time>
      </trkpt>
      <trkpt lat="44.9383" lon="1.0656">
        <ele>110.3</ele>
        <time>2022-08-17T10:45:24Z</time>
      </trkpt>
      <trkpt lat="44.93841" lon="1.06556">
        <ele>110.4</ele>
        <time>2022-08-17T10:45:26Z</time>
      </trkpt>
      <trkpt lat="44.93852" lon="1.06551">
        <ele>110</ele>
        <time>2022-08-17T10:45:28Z</time>
      </trkpt>
      <trkpt lat="44.93863" lon="1.06549">
        <ele>110.4</ele>
        <time>2022-08-17T10:45:30Z</time>
      </trkpt>
      <trkpt lat="44.93874" lon="1.06546">
        <ele>110.6</ele>
        <time>2022-08-17T10:45:32Z</time>
      </trkpt>
      <trkpt lat="44.93885" lon="1.06542">
        <ele>110.2</ele>
        <time>2022-08-17T10:45:34Z</time>
      </trkpt>
      <trkpt lat="44.93896" lon="1.06537">
        <ele>109.8</ele>
        <time>2022-08-17T10:45:36Z</time>
      </trkpt>
      <trkpt lat="44.93907" lon="1.06532">
        <ele>109.1</ele>
        <time>2022-08-17T10:45:38Z</time>
      </trkpt>
      <trkpt lat="44.93917" lon="1.06523">
        <ele>107.5</ele>
        <time>2022-08-17T10:45:40Z</time>
      </trkpt>
      <trkpt lat="44.93927" lon="1.06515">
        <ele>107</ele>
        <time>2022-08-17T10:45:42Z</time>
      </trkpt>
      <trkpt lat="44.93937" lon="1.06506">
        <ele>106.4</ele>
        <time>2022-08-17T10:45:44Z</time>
      </trkpt>
      <trkpt lat="44.93947" lon="1.06497">
        <ele>106</ele>
        <time>2022-08-17T10:45:46Z</time>
      </trkpt>
      <trkpt lat="44.93956" lon="1.06487">
        <ele>105.9</ele>
        <time>2022-08-17T10:45:48Z</time>
      </trkpt>
      <trkpt lat="44.93966" lon="1.06476">
        <ele>105.6</ele>
        <time>2022-08-17T10:45:50Z</time>
      </trkpt>
      <trkpt lat="44.93974" lon="1.06464">
        <ele>104.8</ele>
        <time>2022-08-17T10:45:52Z</time>
      </trkpt>
      <trkpt lat="44.93982" lon="1.06453">
        <ele>103.9</ele>
        <time>2022-08-17T10:45:54Z</time>
      </trkpt>
      <trkpt lat="44.9399" lon="1.06441">
        <ele>102.7</ele>
        <time>2022-08-17T10:45:56Z</time>
      </trkpt>
      <trkpt lat="44.93998" lon="1.06431">
        <ele>101.6</ele>
        <time>2022-08-17T10:45:58Z</time>
      </trkpt>
      <trkpt lat="44.94006" lon="1.0642">
        <ele>101.2</ele>
        <time>2022-08-17T10:46:00Z</time>
      </trkpt>
      <trkpt lat="44.94013" lon="1.06409">
        <ele>102</ele>
        <time>2022-08-17T10:46:02Z</time>
      </trkpt>
      <trkpt lat="44.9402" lon="1.06398">
        <ele>103.2</ele>
        <time>2022-08-17T10:46:04Z</time>
      </trkpt>
      <trkpt lat="44.94026" lon="1.06388">
        <ele>104.3</ele>
        <time>2022-08-17T10:46:06Z</time>
      </trkpt>
      <trkpt lat="44.94032" lon="1.06377">
        <ele>105.3</ele>
        <time>2022-08-17T10:46:08Z</time>
      </trkpt>
      <trkpt lat="44.94038" lon="1.06366">
        <ele>106.1</ele>
        <time>2022-08-17T10:46:10Z</time>
      </trkpt>
      <trkpt lat="44.94043" lon="1.06354">
        <ele>106.9</ele>
        <time>2022-08-17T10:46:12Z</time>
      </trkpt>
      <trkpt lat="44.94049" lon="1.06343">
        <ele>107.7</ele>
        <time>2022-08-17T10:46:14Z</time>
      </trkpt>
      <trkpt lat="44.94053" lon="1.06332">
        <ele>108.4</ele>
        <time>2022-08-17T10:46:16Z</time>
      </trkpt>
      <trkpt lat="44.94058" lon="1.06321">
        <ele>108.1</ele>
        <time>2022-08-17T10:46:18Z</time>
      </trkpt>
      <trkpt lat="44.94061" lon="1.0631">
        <ele>107.5</ele>
        <time>2022-08-17T10:46:20Z</time>
      </trkpt>
      <trkpt lat="44.94064" lon="1.06299">
        <ele>106.8</ele>
        <time>2022-08-17T10:46:22Z</time>
      </trkpt>
      <trkpt lat="44.94067" lon="1.06289">
        <ele>105.9</ele>
        <time>2022-08-17T10:46:24Z</time>
      </trkpt>
      <trkpt lat="44.94069" lon="1.06277">
        <ele>104.8</ele>
        <time>2022-08-17T10:46:26Z</time>
      </trkpt>
      <trkpt lat="44.94072" lon="1.06264">
        <ele>103.5</ele>
        <time>2022-08-17T10:46:28Z</time>
      </trkpt>
      <trkpt lat="44.94075" lon="1.06252">
        <ele>102.2</ele>
        <time>2022-08-17T10:46:30Z</time>
      </trkpt>
      <trkpt lat="44.94077" lon="1.0624">
        <ele>101.1</ele>
        <time>2022-08-17T10:46:32Z</time>
      </trkpt>
      <trkpt lat="44.9408" lon="1.06228">
        <ele>99.9</ele>
        <time>2022-08-17T10:46:34Z</time>
      </trkpt>
      <trkpt lat="44.94082" lon="1.06215">
        <ele>98.6</ele>
        <time>2022-08-17T10:46:36Z</time>
      </trkpt>
      <trkpt lat="44.94084" lon="1.06202">
        <ele>97.4</ele>
        <time>2022-08-17T10:46:38Z</time>
      </trkpt>
      <trkpt lat="44.94087" lon="1.0619">
        <ele>96.3</ele>
        <time>2022-08-17T10:46:40Z</time>
      </trkpt>
      <trkpt lat="44.9409" lon="1.06177">
        <ele>95</ele>
        <time>2022-08-17T10:46:42Z</time>
      </trkpt>
      <trkpt lat="44.94092" lon="1.06164">
        <ele>93.8</ele>
        <time>2022-08-17T10:46:44Z</time>
      </trkpt>
      <trkpt lat="44.94094" lon="1.0615">
        <ele>93.2</ele>
        <time>2022-08-17T10:46:46Z</time>
      </trkpt>
      <trkpt lat="44.94096" lon="1.06137">
        <ele>92.6</ele>
        <time>2022-08-17T10:46:48Z</time>
      </trkpt>
      <trkpt lat="44.94099" lon="1.06124">
        <ele>92.1</ele>
        <time>2022-08-17T10:46:50Z</time>
      </trkpt>
      <trkpt lat="44.94102" lon="1.0611">
        <ele>91.4</ele>
        <time>2022-08-17T10:46:52Z</time>
      </trkpt>
      <trkpt lat="44.94105" lon="1.06096">
        <ele>90.7</ele>
        <time>2022-08-17T10:46:54Z</time>
      </trkpt>
      <trkpt lat="44.94108" lon="1.06082">
        <ele>89.9</ele>
        <time>2022-08-17T10:46:56Z</time>
      </trkpt>
      <trkpt lat="44.94112" lon="1.06069">
        <ele>90.4</ele>
        <time>2022-08-17T10:46:58Z</time>
      </trkpt>
      <trkpt lat="44.94116" lon="1.06057">
        <ele>90.8</ele>
        <time>2022-08-17T10:47:00Z</time>
      </trkpt>
      <trkpt lat="44.94119" lon="1.06043">
        <ele>91.2</ele>
        <time>2022-08-17T10:47:02Z</time>
      </trkpt>
      <trkpt lat="44.94124" lon="1.06032">
        <ele>91.4</ele>
        <time>2022-08-17T10:47:04Z</time>
      </trkpt>
      <trkpt lat="44.94128" lon="1.06021">
        <ele>91.6</ele>
        <time>2022-08-17T10:47:06Z</time>
      </trkpt>
      <trkpt lat="44.94132" lon="1.06012">
        <ele>91.7</ele>
        <time>2022-08-17T10:47:08Z</time>
      </trkpt>
      <trkpt lat="44.94135" lon="1.06004">
        <ele>91.7</ele>
        <time>2022-08-17T10:47:10Z</time>
      </trkpt>
      <trkpt lat="44.94139" lon="1.05996">
        <ele>92</ele>
        <time>2022-08-17T10:47:12Z</time>
      </trkpt>
      <trkpt lat="44.94142" lon="1.05991">
        <ele>92.4</ele>
        <time>2022-08-17T10:47:14Z</time>
      </trkpt>
      <trkpt lat="44.94145" lon="1.05985">
        <ele>92.7</ele>
        <time>2022-08-17T10:47:16Z</time>
      </trkpt>
      <trkpt lat="44.94147" lon="1.05979">
        <ele>93.2</ele>
        <time>2022-08-17T10:47:18Z</time>
      </trkpt>
      <trkpt lat="44.94149" lon="1.0597">
        <ele>93.8</ele>
        <time>2022-08-17T10:47:20Z</time>
      </trkpt>
      <trkpt lat="44.94148" lon="1.05961">
        <ele>94.6</ele>
        <time>2022-08-17T10:47:22Z</time>
      </trkpt>
      <trkpt lat="44.94143" lon="1.05954">
        <ele>95.3</ele>
        <time>2022-08-17T10:47:24Z</time>
      </trkpt>
      <trkpt lat="44.94137" lon="1.05948">
        <ele>95.8</ele>
        <time>2022-08-17T10:47:26Z</time>
      </trkpt>
      <trkpt lat="44.94132" lon="1.05943">
        <ele>96.3</ele>
        <time>2022-08-17T10:47:28Z</time>
      </trkpt>
      <trkpt lat="44.94128" lon="1.05939">
        <ele>96.7</ele>
        <time>2022-08-17T10:47:30Z</time>
      </trkpt>
      <trkpt lat="44.94123" lon="1.05933">
        <ele>97.2</ele>
        <time>2022-08-17T10:47:32Z</time>
      </trkpt>
      <trkpt lat="44.94119" lon="1.05928">
        <ele>97.7</ele>
        <time>2022-08-17T10:47:34Z</time>
      </trkpt>
      <trkpt lat="44.94115" lon="1.05923">
        <ele>98.1</ele>
        <time>2022-08-17T10:47:36Z</time>
      </trkpt>
      <trkpt lat="44.94111" lon="1.05919">
        <ele>98.5</ele>
        <time>2022-08-17T10:47:38Z</time>
      </trkpt>
      <trkpt lat="44.94107" lon="1.05916">
        <ele>98.9</ele>
        <time>2022-08-17T10:47:40Z</time>
      </trkpt>
      <trkpt lat="44.94102" lon="1.05912">
        <ele>99.6</ele>
        <time>2022-08-17T10:47:42Z</time>
      </trkpt>
      <trkpt lat="44.94097" lon="1.0591">
        <ele>100.1</ele>
        <time>2022-08-17T10:47:44Z</time>
      </trkpt>
      <trkpt lat="44.94093" lon="1.05906">
        <ele>100.6</ele>
        <time>2022-08-17T10:47:46Z</time>
      </trkpt>
      <trkpt lat="44.94088" lon="1.05903">
        <ele>101.1</ele>
        <time>2022-08-17T10:47:48Z</time>
      </trkpt>
      <trkpt lat="44.94084" lon="1.05901">
        <ele>101.4</ele>
        <time>2022-08-17T10:47:50Z</time>
      </trkpt>
      <trkpt lat="44.9408" lon="1.05899">
        <ele>102.5</ele>
        <time>2022-08-17T10:47:52Z</time>
      </trkpt>
      <trkpt lat="44.94076" lon="1.05899">
        <ele>103.5</ele>
        <time>2022-08-17T10:47:54Z</time>
      </trkpt>
      <trkpt lat="44.94072" lon="1.059">
        <ele>104.2</ele>
        <time>2022-08-17T10:47:56Z</time>
      </trkpt>
      <trkpt lat="44.94072" lon="1.05899">
        <ele>104.4</ele>
        <time>2022-08-17T10:47:58Z</time>
      </trkpt>
      <trkpt lat="44.94072" lon="1.05899">
        <ele>104.2</ele>
        <time>2022-08-17T10:48:00Z</time>
      </trkpt>
      <trkpt lat="44.94072" lon="1.05899">
        <ele>104.4</ele>
        <time>2022-08-17T10:48:02Z</time>
      </trkpt>
      <trkpt lat="44.94072" lon="1.05898">
        <ele>104.6</ele>
        <time>2022-08-17T10:48:04Z</time>
      </trkpt>
      <trkpt lat="44.94071" lon="1.05898">
        <ele>104.7</ele>
        <time>2022-08-17T10:48:06Z</time>
      </trkpt>
      <trkpt lat="44.94067" lon="1.05891">
        <ele>106.5</ele>
        <time>2022-08-17T10:49:14Z</time>
      </trkpt>
      <trkpt lat="44.94066" lon="1.05886">
        <ele>107.4</ele>
        <time>2022-08-17T10:49:16Z</time>
      </trkpt>
      <trkpt lat="44.94064" lon="1.05881">
        <ele>108.4</ele>
        <time>2022-08-17T10:49:18Z</time>
      </trkpt>
      <trkpt lat="44.94061" lon="1.05873">
        <ele>109.8</ele>
        <time>2022-08-17T10:49:20Z</time>
      </trkpt>
      <trkpt lat="44.94059" lon="1.05868">
        <ele>110.8</ele>
        <time>2022-08-17T10:49:22Z</time>
      </trkpt>
      <trkpt lat="44.94059" lon="1.05861">
        <ele>111.6</ele>
        <time>2022-08-17T10:49:24Z</time>
      </trkpt>
      <trkpt lat="44.94058" lon="1.05856">
        <ele>112.2</ele>
        <time>2022-08-17T10:49:26Z</time>
      </trkpt>
      <trkpt lat="44.94057" lon="1.0585">
        <ele>113</ele>
        <time>2022-08-17T10:49:28Z</time>
      </trkpt>
      <trkpt lat="44.94055" lon="1.05845">
        <ele>113.8</ele>
        <time>2022-08-17T10:49:30Z</time>
      </trkpt>
      <trkpt lat="44.94054" lon="1.0584">
        <ele>114.5</ele>
        <time>2022-08-17T10:49:32Z</time>
      </trkpt>
      <trkpt lat="44.94053" lon="1.05837">
        <ele>114.9</ele>
        <time>2022-08-17T10:49:34Z</time>
      </trkpt>
      <trkpt lat="44.94052" lon="1.05833">
        <ele>115.4</ele>
        <time>2022-08-17T10:49:36Z</time>
      </trkpt>
      <trkpt lat="44.9405" lon="1.05827">
        <ele>116.1</ele>
        <time>2022-08-17T10:49:38Z</time>
      </trkpt>
      <trkpt lat="44.94048" lon="1.05822">
        <ele>116.6</ele>
        <time>2022-08-17T10:49:40Z</time>
      </trkpt>
      <trkpt lat="44.94047" lon="1.05818">
        <ele>117</ele>
        <time>2022-08-17T10:49:42Z</time>
      </trkpt>
      <trkpt lat="44.94032" lon="1.05774">
        <ele>120.1</ele>
        <time>2022-08-17T10:50:00Z</time>
      </trkpt>
      <trkpt lat="44.94031" lon="1.0577">
        <ele>120.3</ele>
        <time>2022-08-17T10:50:02Z</time>
      </trkpt>
      <trkpt lat="44.9403" lon="1.05766">
        <ele>120.4</ele>
        <time>2022-08-17T10:50:04Z</time>
      </trkpt>
      <trkpt lat="44.94029" lon="1.0576">
        <ele>120.6</ele>
        <time>2022-08-17T10:50:06Z</time>
      </trkpt>
      <trkpt lat="44.94026" lon="1.05754">
        <ele>120.8</ele>
        <time>2022-08-17T10:50:08Z</time>
      </trkpt>
      <trkpt lat="44.94023" lon="1.0575">
        <ele>120.8</ele>
        <time>2022-08-17T10:50:10Z</time>
      </trkpt>
      <trkpt lat="44.94023" lon="1.05745">
        <ele>120.9</ele>
        <time>2022-08-17T10:50:12Z</time>
      </trkpt>
      <trkpt lat="44.94022" lon="1.05741">
        <ele>121</ele>
        <time>2022-08-17T10:50:14Z</time>
      </trkpt>
      <trkpt lat="44.94022" lon="1.05737">
        <ele>121.1</ele>
        <time>2022-08-17T10:50:16Z</time>
      </trkpt>
      <trkpt lat="44.94021" lon="1.05732">
        <ele>121.1</ele>
        <time>2022-08-17T10:50:18Z</time>
      </trkpt>
      <trkpt lat="44.9402" lon="1.05728">
        <ele>121.1</ele>
        <time>2022-08-17T10:50:20Z</time>
      </trkpt>
      <trkpt lat="44.94019" lon="1.05724">
        <ele>121.2</ele>
        <time>2022-08-17T10:50:22Z</time>
      </trkpt>
      <trkpt lat="44.94019" lon="1.05719">
        <ele>121.2</ele>
        <time>2022-08-17T10:50:24Z</time>
      </trkpt>
      <trkpt lat="44.94018" lon="1.05715">
        <ele>121.2</ele>
        <time>2022-08-17T10:50:26Z</time>
      </trkpt>
      <trkpt lat="44.94015" lon="1.0571">
        <ele>121</ele>
        <time>2022-08-17T10:50:28Z</time>
      </trkpt>
      <trkpt lat="44.94001" lon="1.05639">
        <ele>119.9</ele>
        <time>2022-08-17T10:51:00Z</time>
      </trkpt>
      <trkpt lat="44.94001" lon="1.05634">
        <ele>119.9</ele>
        <time>2022-08-17T10:51:02Z</time>
      </trkpt>
      <trkpt lat="44.94" lon="1.05627">
        <ele>120</ele>
        <time>2022-08-17T10:51:04Z</time>
      </trkpt>
      <trkpt lat="44.93999" lon="1.05622">
        <ele>120.4</ele>
        <time>2022-08-17T10:51:06Z</time>
      </trkpt>
      <trkpt lat="44.93998" lon="1.05617">
        <ele>120.7</ele>
        <time>2022-08-17T10:51:08Z</time>
      </trkpt>
      <trkpt lat="44.93997" lon="1.05612">
        <ele>121</ele>
        <time>2022-08-17T10:51:10Z</time>
      </trkpt>
      <trkpt lat="44.93996" lon="1.05607">
        <ele>121.3</ele>
        <time>2022-08-17T10:51:12Z</time>
      </trkpt>
      <trkpt lat="44.93995" lon="1.05604">
        <ele>121.5</ele>
        <time>2022-08-17T10:51:14Z</time>
      </trkpt>
      <trkpt lat="44.93995" lon="1.05599">
        <ele>121.6</ele>
        <time>2022-08-17T10:51:16Z</time>
      </trkpt>
      <trkpt lat="44.93994" lon="1.05595">
        <ele>121.9</ele>
        <time>2022-08-17T10:51:18Z</time>
      </trkpt>
      <trkpt lat="44.93994" lon="1.05591">
        <ele>122.1</ele>
        <time>2022-08-17T10:51:20Z</time>
      </trkpt>
      <trkpt lat="44.93994" lon="1.05586">
        <ele>122.2</ele>
        <time>2022-08-17T10:51:22Z</time>
      </trkpt>
      <trkpt lat="44.93993" lon="1.05584">
        <ele>122.4</ele>
        <time>2022-08-17T10:51:24Z</time>
      </trkpt>
      <trkpt lat="44.93993" lon="1.05579">
        <ele>122.5</ele>
        <time>2022-08-17T10:51:26Z</time>
      </trkpt>
      <trkpt lat="44.93993" lon="1.05575">
        <ele>122.6</ele>
        <time>2022-08-17T10:51:28Z</time>
      </trkpt>
      <trkpt lat="44.9399" lon="1.05541">
        <ele>124.1</ele>
        <time>2022-08-17T10:51:42Z</time>
      </trkpt>
      <trkpt lat="44.93991" lon="1.05536">
        <ele>124.2</ele>
        <time>2022-08-17T10:51:44Z</time>
      </trkpt>
      <trkpt lat="44.93991" lon="1.0553">
        <ele>124.4</ele>
        <time>2022-08-17T10:51:46Z</time>
      </trkpt>
      <trkpt lat="44.9399" lon="1.05525">
        <ele>124.6</ele>
        <time>2022-08-17T10:51:48Z</time>
      </trkpt>
      <trkpt lat="44.9399" lon="1.05521">
        <ele>124.7</ele>
        <time>2022-08-17T10:51:50Z</time>
      </trkpt>
      <trkpt lat="44.9399" lon="1.05515">
        <ele>125</ele>
        <time>2022-08-17T10:51:52Z</time>
      </trkpt>
      <trkpt lat="44.9399" lon="1.05508">
        <ele>125.2</ele>
        <time>2022-08-17T10:51:54Z</time>
      </trkpt>
      <trkpt lat="44.9399" lon="1.05504">
        <ele>125.3</ele>
        <time>2022-08-17T10:51:56Z</time>
      </trkpt>
      <trkpt lat="44.9399" lon="1.05499">
        <ele>125.4</ele>
        <time>2022-08-17T10:51:58Z</time>
      </trkpt>
      <trkpt lat="44.93989" lon="1.05495">
        <ele>125.8</ele>
        <time>2022-08-17T10:52:00Z</time>
      </trkpt>
      <trkpt lat="44.93989" lon="1.05491">
        <ele>125.9</ele>
        <time>2022-08-17T10:52:02Z</time>
      </trkpt>
      <trkpt lat="44.93989" lon="1.05487">
        <ele>126</ele>
        <time>2022-08-17T10:52:04Z</time>
      </trkpt>
      <trkpt lat="44.93989" lon="1.05482">
        <ele>126.2</ele>
        <time>2022-08-17T10:52:06Z</time>
      </trkpt>
      <trkpt lat="44.93989" lon="1.05478">
        <ele>126.4</ele>
        <time>2022-08-17T10:52:08Z</time>
      </trkpt>
      <trkpt lat="44.93986" lon="1.0545">
        <ele>128</ele>
        <time>2022-08-17T10:52:18Z</time>
      </trkpt>
      <trkpt lat="44.93985" lon="1.05445">
        <ele>128.2</ele>
        <time>2022-08-17T10:52:20Z</time>
      </trkpt>
      <trkpt lat="44.93984" lon="1.05439">
        <ele>128.6</ele>
        <time>2022-08-17T10:52:22Z</time>
      </trkpt>
      <trkpt lat="44.93983" lon="1.05434">
        <ele>128.8</ele>
        <time>2022-08-17T10:52:24Z</time>
      </trkpt>
      <trkpt lat="44.93981" lon="1.05429">
        <ele>129.1</ele>
        <time>2022-08-17T10:52:26Z</time>
      </trkpt>
      <trkpt lat="44.9398" lon="1.05425">
        <ele>129.4</ele>
        <time>2022-08-17T10:52:28Z</time>
      </trkpt>
      <trkpt lat="44.93979" lon="1.0542">
        <ele>129.6</ele>
        <time>2022-08-17T10:52:30Z</time>
      </trkpt>
      <trkpt lat="44.93979" lon="1.05415">
        <ele>130</ele>
        <time>2022-08-17T10:52:32Z</time>
      </trkpt>
      <trkpt lat="44.93977" lon="1.05409">
        <ele>130.7</ele>
        <time>2022-08-17T10:52:34Z</time>
      </trkpt>
      <trkpt lat="44.93975" lon="1.05405">
        <ele>131.3</ele>
        <time>2022-08-17T10:52:36Z</time>
      </trkpt>
      <trkpt lat="44.93974" lon="1.05403">
        <ele>131.7</ele>
        <time>2022-08-17T10:52:38Z</time>
      </trkpt>
      <trkpt lat="44.93973" lon="1.054">
        <ele>132</ele>
        <time>2022-08-17T10:52:40Z</time>
      </trkpt>
      <trkpt lat="44.93971" lon="1.05395">
        <ele>132.6</ele>
        <time>2022-08-17T10:52:42Z</time>
      </trkpt>
      <trkpt lat="44.93968" lon="1.05392">
        <ele>133.1</ele>
        <time>2022-08-17T10:52:44Z</time>
      </trkpt>
      <trkpt lat="44.93965" lon="1.05388">
        <ele>133.6</ele>
        <time>2022-08-17T10:52:46Z</time>
      </trkpt>
      <trkpt lat="44.93961" lon="1.05385">
        <ele>134</ele>
        <time>2022-08-17T10:52:48Z</time>
      </trkpt>
      <trkpt lat="44.93957" lon="1.05381">
        <ele>134.6</ele>
        <time>2022-08-17T10:52:50Z</time>
      </trkpt>
      <trkpt lat="44.93953" lon="1.05378">
        <ele>134.9</ele>
        <time>2022-08-17T10:52:52Z</time>
      </trkpt>
      <trkpt lat="44.9395" lon="1.05377">
        <ele>135</ele>
        <time>2022-08-17T10:52:54Z</time>
      </trkpt>
      <trkpt lat="44.93947" lon="1.05375">
        <ele>135.3</ele>
        <time>2022-08-17T10:52:56Z</time>
      </trkpt>
      <trkpt lat="44.93942" lon="1.05372">
        <ele>135.6</ele>
        <time>2022-08-17T10:52:58Z</time>
      </trkpt>
      <trkpt lat="44.93939" lon="1.05369">
        <ele>135.8</ele>
        <time>2022-08-17T10:53:00Z</time>
      </trkpt>
      <trkpt lat="44.93936" lon="1.05366">
        <ele>136</ele>
        <time>2022-08-17T10:53:02Z</time>
      </trkpt>
      <trkpt lat="44.93933" lon="1.05363">
        <ele>136.2</ele>
        <time>2022-08-17T10:53:04Z</time>
      </trkpt>
      <trkpt lat="44.9393" lon="1.05362">
        <ele>136.2</ele>
        <time>2022-08-17T10:53:06Z</time>
      </trkpt>
      <trkpt lat="44.93927" lon="1.0536">
        <ele>136.3</ele>
        <time>2022-08-17T10:53:08Z</time>
      </trkpt>
      <trkpt lat="44.93924" lon="1.05358">
        <ele>136.4</ele>
        <time>2022-08-17T10:53:10Z</time>
      </trkpt>
      <trkpt lat="44.93921" lon="1.05355">
        <ele>136.5</ele>
        <time>2022-08-17T10:53:12Z</time>
      </trkpt>
      <trkpt lat="44.93918" lon="1.05353">
        <ele>136.5</ele>
        <time>2022-08-17T10:53:14Z</time>
      </trkpt>
      <trkpt lat="44.93915" lon="1.0535">
        <ele>136.7</ele>
        <time>2022-08-17T10:53:16Z</time>
      </trkpt>
      <trkpt lat="44.93913" lon="1.05348">
        <ele>136.9</ele>
        <time>2022-08-17T10:53:18Z</time>
      </trkpt>
      <trkpt lat="44.93911" lon="1.05346">
        <ele>137</ele>
        <time>2022-08-17T10:53:20Z</time>
      </trkpt>
      <trkpt lat="44.93909" lon="1.05344">
        <ele>137.3</ele>
        <time>2022-08-17T10:53:22Z</time>
      </trkpt>
      <trkpt lat="44.93905" lon="1.05341">
        <ele>137.5</ele>
        <time>2022-08-17T10:53:24Z</time>
      </trkpt>
      <trkpt lat="44.93903" lon="1.05339">
        <ele>137.7</ele>
        <time>2022-08-17T10:53:26Z</time>
      </trkpt>
      <trkpt lat="44.939" lon="1.05336">
        <ele>137.8</ele>
        <time>2022-08-17T10:53:28Z</time>
      </trkpt>
      <trkpt lat="44.93897" lon="1.05334">
        <ele>137.9</ele>
        <time>2022-08-17T10:53:30Z</time>
      </trkpt>
      <trkpt lat="44.93895" lon="1.05332">
        <ele>138.3</ele>
        <time>2022-08-17T10:53:32Z</time>
      </trkpt>
      <trkpt lat="44.93892" lon="1.0533">
        <ele>138.7</ele>
        <time>2022-08-17T10:53:34Z</time>
      </trkpt>
      <trkpt lat="44.93889" lon="1.05327">
        <ele>139.2</ele>
        <time>2022-08-17T10:53:36Z</time>
      </trkpt>
      <trkpt lat="44.93886" lon="1.05325">
        <ele>139.6</ele>
        <time>2022-08-17T10:53:38Z</time>
      </trkpt>
      <trkpt lat="44.93883" lon="1.05322">
        <ele>140.1</ele>
        <time>2022-08-17T10:53:40Z</time>
      </trkpt>
      <trkpt lat="44.93881" lon="1.05319">
        <ele>140.6</ele>
        <time>2022-08-17T10:53:42Z</time>
      </trkpt>
      <trkpt lat="44.93878" lon="1.05317">
        <ele>140.9</ele>
        <time>2022-08-17T10:53:44Z</time>
      </trkpt>
      <trkpt lat="44.93875" lon="1.05315">
        <ele>141.2</ele>
        <time>2022-08-17T10:53:46Z</time>
      </trkpt>
      <trkpt lat="44.93873" lon="1.05312">
        <ele>141.5</ele>
        <time>2022-08-17T10:53:48Z</time>
      </trkpt>
      <trkpt lat="44.9387" lon="1.0531">
        <ele>141.8</ele>
        <time>2022-08-17T10:53:50Z</time>
      </trkpt>
      <trkpt lat="44.93868" lon="1.05308">
        <ele>142.1</ele>
        <time>2022-08-17T10:53:52Z</time>
      </trkpt>
      <trkpt lat="44.93867" lon="1.05305">
        <ele>142.4</ele>
        <time>2022-08-17T10:53:54Z</time>
      </trkpt>
      <trkpt lat="44.93864" lon="1.05302">
        <ele>142.7</ele>
        <time>2022-08-17T10:53:56Z</time>
      </trkpt>
      <trkpt lat="44.93861" lon="1.053">
        <ele>142.9</ele>
        <time>2022-08-17T10:53:58Z</time>
      </trkpt>
      <trkpt lat="44.93858" lon="1.05298">
        <ele>143</ele>
        <time>2022-08-17T10:54:00Z</time>
      </trkpt>
      <trkpt lat="44.93857" lon="1.05297">
        <ele>143.1</ele>
        <time>2022-08-17T10:54:02Z</time>
      </trkpt>
      <trkpt lat="44.93854" lon="1.05294">
        <ele>143.3</ele>
        <time>2022-08-17T10:54:04Z</time>
      </trkpt>
      <trkpt lat="44.93852" lon="1.05292">
        <ele>143.4</ele>
        <time>2022-08-17T10:54:06Z</time>
      </trkpt>
      <trkpt lat="44.9385" lon="1.0529">
        <ele>143.5</ele>
        <time>2022-08-17T10:54:08Z</time>
      </trkpt>
      <trkpt lat="44.93848" lon="1.05287">
        <ele>143.7</ele>
        <time>2022-08-17T10:54:10Z</time>
      </trkpt>
      <trkpt lat="44.93846" lon="1.05284">
        <ele>143.9</ele>
        <time>2022-08-17T10:54:12Z</time>
      </trkpt>
      <trkpt lat="44.93843" lon="1.05281">
        <ele>144</ele>
        <time>2022-08-17T10:54:14Z</time>
      </trkpt>
      <trkpt lat="44.9384" lon="1.05278">
        <ele>144</ele>
        <time>2022-08-17T10:54:16Z</time>
      </trkpt>
      <trkpt lat="44.93837" lon="1.05275">
        <ele>144</ele>
        <time>2022-08-17T10:54:18Z</time>
      </trkpt>
      <trkpt lat="44.93835" lon="1.05272">
        <ele>144</ele>
        <time>2022-08-17T10:54:20Z</time>
      </trkpt>
      <trkpt lat="44.93832" lon="1.05269">
        <ele>144.2</ele>
        <time>2022-08-17T10:54:22Z</time>
      </trkpt>
      <trkpt lat="44.93829" lon="1.05267">
        <ele>144.5</ele>
        <time>2022-08-17T10:54:24Z</time>
      </trkpt>
      <trkpt lat="44.93795" lon="1.05222">
        <ele>150.7</ele>
        <time>2022-08-17T10:54:56Z</time>
      </trkpt>
      <trkpt lat="44.93792" lon="1.05219">
        <ele>151</ele>
        <time>2022-08-17T10:54:58Z</time>
      </trkpt>
      <trkpt lat="44.9379" lon="1.05217">
        <ele>151.3</ele>
        <time>2022-08-17T10:55:00Z</time>
      </trkpt>
      <trkpt lat="44.93788" lon="1.05213">
        <ele>151.6</ele>
        <time>2022-08-17T10:55:02Z</time>
      </trkpt>
      <trkpt lat="44.93786" lon="1.0521">
        <ele>151.9</ele>
        <time>2022-08-17T10:55:04Z</time>
      </trkpt>
      <trkpt lat="44.93784" lon="1.05208">
        <ele>152</ele>
        <time>2022-08-17T10:55:06Z</time>
      </trkpt>
      <trkpt lat="44.93782" lon="1.05202">
        <ele>152.4</ele>
        <time>2022-08-17T10:55:08Z</time>
      </trkpt>
      <trkpt lat="44.9378" lon="1.05198">
        <ele>152.6</ele>
        <time>2022-08-17T10:55:10Z</time>
      </trkpt>
      <trkpt lat="44.93778" lon="1.05195">
        <ele>152.8</ele>
        <time>2022-08-17T10:55:12Z</time>
      </trkpt>
      <trkpt lat="44.93775" lon="1.05192">
        <ele>152.8</ele>
        <time>2022-08-17T10:55:14Z</time>
      </trkpt>
      <trkpt lat="44.93773" lon="1.05191">
        <ele>152.7</ele>
        <time>2022-08-17T10:55:16Z</time>
      </trkpt>
      <trkpt lat="44.9377" lon="1.05188">
        <ele>152.6</ele>
        <time>2022-08-17T10:55:18Z</time>
      </trkpt>
      <trkpt lat="44.93768" lon="1.05184">
        <ele>152.6</ele>
        <time>2022-08-17T10:55:20Z</time>
      </trkpt>
      <trkpt lat="44.93766" lon="1.05182">
        <ele>152.6</ele>
        <time>2022-08-17T10:55:22Z</time>
      </trkpt>
      <trkpt lat="44.93765" lon="1.05177">
        <ele>152.7</ele>
        <time>2022-08-17T10:55:24Z</time>
      </trkpt>
      <trkpt lat="44.93763" lon="1.05173">
        <ele>152.6</ele>
        <time>2022-08-17T10:55:26Z</time>
      </trkpt>
      <trkpt lat="44.9376" lon="1.0517">
        <ele>152.3</ele>
        <time>2022-08-17T10:55:28Z</time>
      </trkpt>
      <trkpt lat="44.93757" lon="1.05167">
        <ele>152.1</ele>
        <time>2022-08-17T10:55:30Z</time>
      </trkpt>
      <trkpt lat="44.93755" lon="1.05164">
        <ele>152.4</ele>
        <time>2022-08-17T10:55:32Z</time>
      </trkpt>
      <trkpt lat="44.93753" lon="1.0516">
        <ele>152.9</ele>
        <time>2022-08-17T10:55:34Z</time>
      </trkpt>
      <trkpt lat="44.93751" lon="1.05159">
        <ele>153</ele>
        <time>2022-08-17T10:55:36Z</time>
      </trkpt>
      <trkpt lat="44.9375" lon="1.05156">
        <ele>153.3</ele>
        <time>2022-08-17T10:55:38Z</time>
      </trkpt>
      <trkpt lat="44.93747" lon="1.05154">
        <ele>153.8</ele>
        <time>2022-08-17T10:55:40Z</time>
      </trkpt>
      <trkpt lat="44.93745" lon="1.05152">
        <ele>154.3</ele>
        <time>2022-08-17T10:55:42Z</time>
      </trkpt>
      <trkpt lat="44.93743" lon="1.05149">
        <ele>154.8</ele>
        <time>2022-08-17T10:55:44Z</time>
      </trkpt>
      <trkpt lat="44.93741" lon="1.05147">
        <ele>155.1</ele>
        <time>2022-08-17T10:55:46Z</time>
      </trkpt>
      <trkpt lat="44.9374" lon="1.05144">
        <ele>155.6</ele>
        <time>2022-08-17T10:55:48Z</time>
      </trkpt>
      <trkpt lat="44.93739" lon="1.05141">
        <ele>156.2</ele>
        <time>2022-08-17T10:55:50Z</time>
      </trkpt>
      <trkpt lat="44.93738" lon="1.05138">
        <ele>156.6</ele>
        <time>2022-08-17T10:55:52Z</time>
      </trkpt>
      <trkpt lat="44.93735" lon="1.05137">
        <ele>156.8</ele>
        <time>2022-08-17T10:55:54Z</time>
      </trkpt>
      <trkpt lat="44.93732" lon="1.05135">
        <ele>156.9</ele>
        <time>2022-08-17T10:55:56Z</time>
      </trkpt>
      <trkpt lat="44.9373" lon="1.05132">
        <ele>157.2</ele>
        <time>2022-08-17T10:55:58Z</time>
      </trkpt>
      <trkpt lat="44.93728" lon="1.0513">
        <ele>157.3</ele>
        <time>2022-08-17T10:56:00Z</time>
      </trkpt>
      <trkpt lat="44.93725" lon="1.05128">
        <ele>157.5</ele>
        <time>2022-08-17T10:56:02Z</time>
      </trkpt>
      <trkpt lat="44.93722" lon="1.05126">
        <ele>157.5</ele>
        <time>2022-08-17T10:56:04Z</time>
      </trkpt>
      <trkpt lat="44.93719" lon="1.05123">
        <ele>157.7</ele>
        <time>2022-08-17T10:56:06Z</time>
      </trkpt>
      <trkpt lat="44.93716" lon="1.0512">
        <ele>157.8</ele>
        <time>2022-08-17T10:56:08Z</time>
      </trkpt>
      <trkpt lat="44.93714" lon="1.05116">
        <ele>158</ele>
        <time>2022-08-17T10:56:10Z</time>
      </trkpt>
      <trkpt lat="44.93711" lon="1.05114">
        <ele>158</ele>
        <time>2022-08-17T10:56:12Z</time>
      </trkpt>
      <trkpt lat="44.93709" lon="1.05112">
        <ele>157.9</ele>
        <time>2022-08-17T10:56:14Z</time>
      </trkpt>
      <trkpt lat="44.93707" lon="1.05109">
        <ele>158</ele>
        <time>2022-08-17T10:56:16Z</time>
      </trkpt>
      <trkpt lat="44.93704" lon="1.05107">
        <ele>158</ele>
        <time>2022-08-17T10:56:18Z</time>
      </trkpt>
      <trkpt lat="44.93702" lon="1.05103">
        <ele>158</ele>
        <time>2022-08-17T10:56:20Z</time>
      </trkpt>
      <trkpt lat="44.937" lon="1.05101">
        <ele>157.9</ele>
        <time>2022-08-17T10:56:22Z</time>
      </trkpt>
      <trkpt lat="44.93697" lon="1.05098">
        <ele>157.8</ele>
        <time>2022-08-17T10:56:24Z</time>
      </trkpt>
      <trkpt lat="44.93695" lon="1.05096">
        <ele>157.7</ele>
        <time>2022-08-17T10:56:26Z</time>
      </trkpt>
      <trkpt lat="44.93693" lon="1.05093">
        <ele>157.5</ele>
        <time>2022-08-17T10:56:28Z</time>
      </trkpt>
      <trkpt lat="44.93691" lon="1.05089">
        <ele>157.5</ele>
        <time>2022-08-17T10:56:30Z</time>
      </trkpt>
      <trkpt lat="44.93689" lon="1.05085">
        <ele>157.4</ele>
        <time>2022-08-17T10:56:32Z</time>
      </trkpt>
      <trkpt lat="44.93687" lon="1.05081">
        <ele>157.5</ele>
        <time>2022-08-17T10:56:34Z</time>
      </trkpt>
      <trkpt lat="44.93685" lon="1.05077">
        <ele>158</ele>
        <time>2022-08-17T10:56:36Z</time>
      </trkpt>
      <trkpt lat="44.93683" lon="1.05073">
        <ele>158.5</ele>
        <time>2022-08-17T10:56:38Z</time>
      </trkpt>
      <trkpt lat="44.93681" lon="1.05069">
        <ele>158.8</ele>
        <time>2022-08-17T10:56:40Z</time>
      </trkpt>
      <trkpt lat="44.93679" lon="1.05065">
        <ele>159.2</ele>
        <time>2022-08-17T10:56:42Z</time>
      </trkpt>
      <trkpt lat="44.93677" lon="1.05061">
        <ele>159.7</ele>
        <time>2022-08-17T10:56:44Z</time>
      </trkpt>
      <trkpt lat="44.93675" lon="1.05057">
        <ele>160.1</ele>
        <time>2022-08-17T10:56:46Z</time>
      </trkpt>
      <trkpt lat="44.93673" lon="1.05052">
        <ele>160.6</ele>
        <time>2022-08-17T10:56:48Z</time>
      </trkpt>
      <trkpt lat="44.93671" lon="1.05048">
        <ele>161</ele>
        <time>2022-08-17T10:56:50Z</time>
      </trkpt>
      <trkpt lat="44.93669" lon="1.05045">
        <ele>161.2</ele>
        <time>2022-08-17T10:56:52Z</time>
      </trkpt>
      <trkpt lat="44.93667" lon="1.05042">
        <ele>161.5</ele>
        <time>2022-08-17T10:56:54Z</time>
      </trkpt>
      <trkpt lat="44.93664" lon="1.05039">
        <ele>162.1</ele>
        <time>2022-08-17T10:56:56Z</time>
      </trkpt>
      <trkpt lat="44.93662" lon="1.05035">
        <ele>162.8</ele>
        <time>2022-08-17T10:56:58Z</time>
      </trkpt>
      <trkpt lat="44.9366" lon="1.05033">
        <ele>163.2</ele>
        <time>2022-08-17T10:57:00Z</time>
      </trkpt>
      <trkpt lat="44.93657" lon="1.0503">
        <ele>163.7</ele>
        <time>2022-08-17T10:57:02Z</time>
      </trkpt>
      <trkpt lat="44.93654" lon="1.05028">
        <ele>164</ele>
        <time>2022-08-17T10:57:04Z</time>
      </trkpt>
      <trkpt lat="44.93652" lon="1.05025">
        <ele>164.4</ele>
        <time>2022-08-17T10:57:06Z</time>
      </trkpt>
      <trkpt lat="44.93649" lon="1.05023">
        <ele>164.7</ele>
        <time>2022-08-17T10:57:08Z</time>
      </trkpt>
      <trkpt lat="44.93646" lon="1.05021">
        <ele>164.8</ele>
        <time>2022-08-17T10:57:10Z</time>
      </trkpt>
      <trkpt lat="44.93644" lon="1.05018">
        <ele>165.2</ele>
        <time>2022-08-17T10:57:12Z</time>
      </trkpt>
      <trkpt lat="44.9364" lon="1.05017">
        <ele>165.3</ele>
        <time>2022-08-17T10:57:14Z</time>
      </trkpt>
      <trkpt lat="44.93637" lon="1.05014">
        <ele>165.4</ele>
        <time>2022-08-17T10:57:16Z</time>
      </trkpt>
      <trkpt lat="44.93634" lon="1.05013">
        <ele>165.5</ele>
        <time>2022-08-17T10:57:18Z</time>
      </trkpt>
      <trkpt lat="44.93631" lon="1.05011">
        <ele>165.6</ele>
        <time>2022-08-17T10:57:20Z</time>
      </trkpt>
      <trkpt lat="44.93628" lon="1.05009">
        <ele>165.6</ele>
        <time>2022-08-17T10:57:22Z</time>
      </trkpt>
      <trkpt lat="44.93625" lon="1.05007">
        <ele>165.6</ele>
        <time>2022-08-17T10:57:24Z</time>
      </trkpt>
      <trkpt lat="44.93621" lon="1.05006">
        <ele>165.5</ele>
        <time>2022-08-17T10:57:26Z</time>
      </trkpt>
      <trkpt lat="44.93618" lon="1.05005">
        <ele>165.4</ele>
        <time>2022-08-17T10:57:28Z</time>
      </trkpt>
      <trkpt lat="44.93616" lon="1.05004">
        <ele>165.3</ele>
        <time>2022-08-17T10:57:30Z</time>
      </trkpt>
      <trkpt lat="44.93613" lon="1.05003">
        <ele>165.2</ele>
        <time>2022-08-17T10:57:32Z</time>
      </trkpt>
      <trkpt lat="44.93611" lon="1.05002">
        <ele>165.1</ele>
        <time>2022-08-17T10:57:34Z</time>
      </trkpt>
      <trkpt lat="44.93608" lon="1.05001">
        <ele>165</ele>
        <time>2022-08-17T10:57:36Z</time>
      </trkpt>
      <trkpt lat="44.93606" lon="1.04999">
        <ele>165</ele>
        <time>2022-08-17T10:57:38Z</time>
      </trkpt>
      <trkpt lat="44.93603" lon="1.04999">
        <ele>164.8</ele>
        <time>2022-08-17T10:57:40Z</time>
      </trkpt>
      <trkpt lat="44.936" lon="1.05001">
        <ele>164.3</ele>
        <time>2022-08-17T10:57:42Z</time>
      </trkpt>
      <trkpt lat="44.93597" lon="1.05">
        <ele>164.3</ele>
        <time>2022-08-17T10:57:44Z</time>
      </trkpt>
      <trkpt lat="44.93593" lon="1.04999">
        <ele>164.1</ele>
        <time>2022-08-17T10:57:46Z</time>
      </trkpt>
      <trkpt lat="44.93589" lon="1.04998">
        <ele>163.9</ele>
        <time>2022-08-17T10:57:48Z</time>
      </trkpt>
      <trkpt lat="44.93586" lon="1.04998">
        <ele>163.7</ele>
        <time>2022-08-17T10:57:50Z</time>
      </trkpt>
      <trkpt lat="44.93583" lon="1.04998">
        <ele>163.6</ele>
        <time>2022-08-17T10:57:52Z</time>
      </trkpt>
      <trkpt lat="44.9358" lon="1.04996">
        <ele>164.2</ele>
        <time>2022-08-17T10:57:54Z</time>
      </trkpt>
      <trkpt lat="44.93577" lon="1.04996">
        <ele>164.4</ele>
        <time>2022-08-17T10:57:56Z</time>
      </trkpt>
      <trkpt lat="44.93574" lon="1.04997">
        <ele>164.6</ele>
        <time>2022-08-17T10:57:58Z</time>
      </trkpt>
      <trkpt lat="44.93571" lon="1.04996">
        <ele>165</ele>
        <time>2022-08-17T10:58:00Z</time>
      </trkpt>
      <trkpt lat="44.93568" lon="1.04994">
        <ele>165.7</ele>
        <time>2022-08-17T10:58:02Z</time>
      </trkpt>
      <trkpt lat="44.93565" lon="1.04993">
        <ele>166.1</ele>
        <time>2022-08-17T10:58:04Z</time>
      </trkpt>
      <trkpt lat="44.93562" lon="1.04991">
        <ele>166.7</ele>
        <time>2022-08-17T10:58:06Z</time>
      </trkpt>
      <trkpt lat="44.93559" lon="1.04991">
        <ele>167</ele>
        <time>2022-08-17T10:58:08Z</time>
      </trkpt>
      <trkpt lat="44.93557" lon="1.0499">
        <ele>167.3</ele>
        <time>2022-08-17T10:58:10Z</time>
      </trkpt>
      <trkpt lat="44.93554" lon="1.04989">
        <ele>167.7</ele>
        <time>2022-08-17T10:58:12Z</time>
      </trkpt>
      <trkpt lat="44.9355" lon="1.04987">
        <ele>168.5</ele>
        <time>2022-08-17T10:58:14Z</time>
      </trkpt>
      <trkpt lat="44.93548" lon="1.04984">
        <ele>169.3</ele>
        <time>2022-08-17T10:58:16Z</time>
      </trkpt>
      <trkpt lat="44.93545" lon="1.04983">
        <ele>169.6</ele>
        <time>2022-08-17T10:58:18Z</time>
      </trkpt>
      <trkpt lat="44.93543" lon="1.04982">
        <ele>170</ele>
        <time>2022-08-17T10:58:20Z</time>
      </trkpt>
      <trkpt lat="44.93539" lon="1.0498">
        <ele>170.8</ele>
        <time>2022-08-17T10:58:22Z</time>
      </trkpt>
      <trkpt lat="44.93537" lon="1.04979">
        <ele>171</ele>
        <time>2022-08-17T10:58:24Z</time>
      </trkpt>
      <trkpt lat="44.93534" lon="1.0498">
        <ele>171</ele>
        <time>2022-08-17T10:58:26Z</time>
      </trkpt>
      <trkpt lat="44.93531" lon="1.04978">
        <ele>171.7</ele>
        <time>2022-08-17T10:58:28Z</time>
      </trkpt>
      <trkpt lat="44.9353" lon="1.04976">
        <ele>172</ele>
        <time>2022-08-17T10:58:30Z</time>
      </trkpt>
      <trkpt lat="44.93529" lon="1.04977">
        <ele>171.9</ele>
        <time>2022-08-17T10:58:32Z</time>
      </trkpt>
      <trkpt lat="44.93529" lon="1.04977">
        <ele>171.9</ele>
        <time>2022-08-17T10:58:36Z</time>
      </trkpt>
      <trkpt lat="44.9351" lon="1.04971">
        <ele>174.1</ele>
        <time>2022-08-17T10:59:04Z</time>
      </trkpt>
      <trkpt lat="44.93507" lon="1.04971">
        <ele>174.2</ele>
        <time>2022-08-17T10:59:06Z</time>
      </trkpt>
      <trkpt lat="44.93504" lon="1.04971">
        <ele>174.5</ele>
        <time>2022-08-17T10:59:08Z</time>
      </trkpt>
      <trkpt lat="44.93501" lon="1.04972">
        <ele>174.4</ele>
        <time>2022-08-17T10:59:10Z</time>
      </trkpt>
      <trkpt lat="44.93497" lon="1.04972">
        <ele>174.7</ele>
        <time>2022-08-17T10:59:12Z</time>
      </trkpt>
      <trkpt lat="44.93495" lon="1.0497">
        <ele>175.2</ele>
        <time>2022-08-17T10:59:14Z</time>
      </trkpt>
      <trkpt lat="44.93492" lon="1.0497">
        <ele>175.6</ele>
        <time>2022-08-17T10:59:16Z</time>
      </trkpt>
      <trkpt lat="44.93489" lon="1.04971">
        <ele>175.7</ele>
        <time>2022-08-17T10:59:18Z</time>
      </trkpt>
      <trkpt lat="44.93487" lon="1.04972">
        <ele>175.8</ele>
        <time>2022-08-17T10:59:20Z</time>
      </trkpt>
      <trkpt lat="44.93484" lon="1.04973">
        <ele>175.8</ele>
        <time>2022-08-17T10:59:22Z</time>
      </trkpt>
      <trkpt lat="44.93481" lon="1.04974">
        <ele>176.1</ele>
        <time>2022-08-17T10:59:24Z</time>
      </trkpt>
      <trkpt lat="44.93478" lon="1.04975">
        <ele>176.2</ele>
        <time>2022-08-17T10:59:26Z</time>
      </trkpt>
      <trkpt lat="44.93475" lon="1.04977">
        <ele>176.1</ele>
        <time>2022-08-17T10:59:28Z</time>
      </trkpt>
      <trkpt lat="44.93473" lon="1.04979">
        <ele>176</ele>
        <time>2022-08-17T10:59:30Z</time>
      </trkpt>
      <trkpt lat="44.93471" lon="1.04981">
        <ele>175.9</ele>
        <time>2022-08-17T10:59:32Z</time>
      </trkpt>
      <trkpt lat="44.93468" lon="1.04984">
        <ele>175.8</ele>
        <time>2022-08-17T10:59:34Z</time>
      </trkpt>
      <trkpt lat="44.93466" lon="1.04985">
        <ele>175.9</ele>
        <time>2022-08-17T10:59:36Z</time>
      </trkpt>
      <trkpt lat="44.93463" lon="1.04988">
        <ele>175.6</ele>
        <time>2022-08-17T10:59:38Z</time>
      </trkpt>
      <trkpt lat="44.93461" lon="1.04991">
        <ele>175.5</ele>
        <time>2022-08-17T10:59:40Z</time>
      </trkpt>
      <trkpt lat="44.93458" lon="1.04993">
        <ele>175.5</ele>
        <time>2022-08-17T10:59:42Z</time>
      </trkpt>
      <trkpt lat="44.93456" lon="1.04995">
        <ele>175.6</ele>
        <time>2022-08-17T10:59:44Z</time>
      </trkpt>
      <trkpt lat="44.93453" lon="1.04997">
        <ele>175.6</ele>
        <time>2022-08-17T10:59:46Z</time>
      </trkpt>
      <trkpt lat="44.9345" lon="1.05">
        <ele>175.6</ele>
        <time>2022-08-17T10:59:48Z</time>
      </trkpt>
      <trkpt lat="44.93447" lon="1.05003">
        <ele>176.2</ele>
        <time>2022-08-17T10:59:50Z</time>
      </trkpt>
      <trkpt lat="44.93445" lon="1.05005">
        <ele>176.7</ele>
        <time>2022-08-17T10:59:52Z</time>
      </trkpt>
      <trkpt lat="44.93443" lon="1.05007">
        <ele>177.2</ele>
        <time>2022-08-17T10:59:54Z</time>
      </trkpt>
      <trkpt lat="44.9344" lon="1.05009">
        <ele>177.7</ele>
        <time>2022-08-17T10:59:56Z</time>
      </trkpt>
      <trkpt lat="44.93436" lon="1.05009">
        <ele>178.2</ele>
        <time>2022-08-17T10:59:58Z</time>
      </trkpt>
      <trkpt lat="44.93433" lon="1.0501">
        <ele>178.6</ele>
        <time>2022-08-17T11:00:00Z</time>
      </trkpt>
      <trkpt lat="44.93431" lon="1.0501">
        <ele>179</ele>
        <time>2022-08-17T11:00:02Z</time>
      </trkpt>
      <trkpt lat="44.93428" lon="1.05008">
        <ele>179.2</ele>
        <time>2022-08-17T11:00:04Z</time>
      </trkpt>
      <trkpt lat="44.93426" lon="1.05005">
        <ele>179.2</ele>
        <time>2022-08-17T11:00:06Z</time>
      </trkpt>
      <trkpt lat="44.93423" lon="1.05002">
        <ele>179.2</ele>
        <time>2022-08-17T11:00:08Z</time>
      </trkpt>
      <trkpt lat="44.93422" lon="1.04999">
        <ele>179.4</ele>
        <time>2022-08-17T11:00:10Z</time>
      </trkpt>
      <trkpt lat="44.93419" lon="1.04996">
        <ele>180.1</ele>
        <time>2022-08-17T11:00:12Z</time>
      </trkpt>
      <trkpt lat="44.93417" lon="1.04995">
        <ele>180.6</ele>
        <time>2022-08-17T11:00:14Z</time>
      </trkpt>
      <trkpt lat="44.93413" lon="1.04993">
        <ele>181.2</ele>
        <time>2022-08-17T11:00:16Z</time>
      </trkpt>
      <trkpt lat="44.9341" lon="1.04993">
        <ele>181.5</ele>
        <time>2022-08-17T11:00:18Z</time>
      </trkpt>
      <trkpt lat="44.93408" lon="1.04994">
        <ele>181.8</ele>
        <time>2022-08-17T11:00:20Z</time>
      </trkpt>
      <trkpt lat="44.93405" lon="1.04996">
        <ele>182</ele>
        <time>2022-08-17T11:00:22Z</time>
      </trkpt>
      <trkpt lat="44.93403" lon="1.04996">
        <ele>182.2</ele>
        <time>2022-08-17T11:00:24Z</time>
      </trkpt>
      <trkpt lat="44.93401" lon="1.04997">
        <ele>182.4</ele>
        <time>2022-08-17T11:00:26Z</time>
      </trkpt>
      <trkpt lat="44.93399" lon="1.05">
        <ele>182.4</ele>
        <time>2022-08-17T11:00:28Z</time>
      </trkpt>
      <trkpt lat="44.93397" lon="1.05002">
        <ele>182.8</ele>
        <time>2022-08-17T11:00:30Z</time>
      </trkpt>
      <trkpt lat="44.93394" lon="1.05002">
        <ele>183.2</ele>
        <time>2022-08-17T11:00:32Z</time>
      </trkpt>
      <trkpt lat="44.93392" lon="1.05005">
        <ele>183.6</ele>
        <time>2022-08-17T11:00:34Z</time>
      </trkpt>
      <trkpt lat="44.9339" lon="1.05008">
        <ele>184</ele>
        <time>2022-08-17T11:00:36Z</time>
      </trkpt>
      <trkpt lat="44.93387" lon="1.0501">
        <ele>184.5</ele>
        <time>2022-08-17T11:00:38Z</time>
      </trkpt>
      <trkpt lat="44.93385" lon="1.05011">
        <ele>184.8</ele>
        <time>2022-08-17T11:00:40Z</time>
      </trkpt>
      <trkpt lat="44.93383" lon="1.05011">
        <ele>185.1</ele>
        <time>2022-08-17T11:00:42Z</time>
      </trkpt>
      <trkpt lat="44.93382" lon="1.05011">
        <ele>185.1</ele>
        <time>2022-08-17T11:00:44Z</time>
      </trkpt>
      <trkpt lat="44.93382" lon="1.05011">
        <ele>185.1</ele>
        <time>2022-08-17T11:00:46Z</time>
      </trkpt>
      <trkpt lat="44.93382" lon="1.05012">
        <ele>185.2</ele>
        <time>2022-08-17T11:00:48Z</time>
      </trkpt>
      <trkpt lat="44.93382" lon="1.05012">
        <ele>185.2</ele>
        <time>2022-08-17T11:00:50Z</time>
      </trkpt>
      <trkpt lat="44.93372" lon="1.04999">
        <ele>186.1</ele>
        <time>2022-08-17T11:03:00Z</time>
      </trkpt>
      <trkpt lat="44.93371" lon="1.04996">
        <ele>186.5</ele>
        <time>2022-08-17T11:03:02Z</time>
      </trkpt>
      <trkpt lat="44.9337" lon="1.04993">
        <ele>186.9</ele>
        <time>2022-08-17T11:03:04Z</time>
      </trkpt>
      <trkpt lat="44.93369" lon="1.04989">
        <ele>187.5</ele>
        <time>2022-08-17T11:03:06Z</time>
      </trkpt>
      <trkpt lat="44.93368" lon="1.04985">
        <ele>188</ele>
        <time>2022-08-17T11:03:08Z</time>
      </trkpt>
      <trkpt lat="44.93367" lon="1.04983">
        <ele>188.5</ele>
        <time>2022-08-17T11:03:10Z</time>
      </trkpt>
      <trkpt lat="44.93366" lon="1.04979">
        <ele>188.9</ele>
        <time>2022-08-17T11:03:12Z</time>
      </trkpt>
      <trkpt lat="44.93365" lon="1.04976">
        <ele>189.4</ele>
        <time>2022-08-17T11:03:14Z</time>
      </trkpt>
      <trkpt lat="44.93365" lon="1.04974">
        <ele>189.6</ele>
        <time>2022-08-17T11:03:16Z</time>
      </trkpt>
      <trkpt lat="44.93363" lon="1.04971">
        <ele>190.2</ele>
        <time>2022-08-17T11:03:18Z</time>
      </trkpt>
      <trkpt lat="44.93362" lon="1.04968">
        <ele>190.7</ele>
        <time>2022-08-17T11:03:20Z</time>
      </trkpt>
      <trkpt lat="44.93361" lon="1.04965">
        <ele>191.2</ele>
        <time>2022-08-17T11:03:22Z</time>
      </trkpt>
      <trkpt lat="44.93359" lon="1.04961">
        <ele>191.7</ele>
        <time>2022-08-17T11:03:24Z</time>
      </trkpt>
      <trkpt lat="44.93358" lon="1.04959">
        <ele>192.2</ele>
        <time>2022-08-17T11:03:26Z</time>
      </trkpt>
      <trkpt lat="44.93356" lon="1.04955">
        <ele>192.8</ele>
        <time>2022-08-17T11:03:28Z</time>
      </trkpt>
      <trkpt lat="44.93356" lon="1.04952">
        <ele>193.2</ele>
        <time>2022-08-17T11:03:30Z</time>
      </trkpt>
      <trkpt lat="44.93355" lon="1.04949">
        <ele>193.7</ele>
        <time>2022-08-17T11:03:32Z</time>
      </trkpt>
      <trkpt lat="44.93354" lon="1.04947">
        <ele>194.1</ele>
        <time>2022-08-17T11:03:34Z</time>
      </trkpt>
      <trkpt lat="44.93353" lon="1.04943">
        <ele>194.6</ele>
        <time>2022-08-17T11:03:36Z</time>
      </trkpt>
      <trkpt lat="44.93353" lon="1.0494">
        <ele>194.9</ele>
        <time>2022-08-17T11:03:38Z</time>
      </trkpt>
      <trkpt lat="44.93352" lon="1.04938">
        <ele>195.2</ele>
        <time>2022-08-17T11:03:40Z</time>
      </trkpt>
      <trkpt lat="44.93352" lon="1.04934">
        <ele>195.7</ele>
        <time>2022-08-17T11:03:42Z</time>
      </trkpt>
      <trkpt lat="44.93351" lon="1.04931">
        <ele>196.1</ele>
        <time>2022-08-17T11:03:44Z</time>
      </trkpt>
      <trkpt lat="44.9335" lon="1.04928">
        <ele>196.5</ele>
        <time>2022-08-17T11:03:46Z</time>
      </trkpt>
      <trkpt lat="44.93351" lon="1.04925">
        <ele>196.7</ele>
        <time>2022-08-17T11:03:48Z</time>
      </trkpt>
      <trkpt lat="44.93352" lon="1.04922">
        <ele>197</ele>
        <time>2022-08-17T11:03:50Z</time>
      </trkpt>
      <trkpt lat="44.93352" lon="1.04919">
        <ele>197.3</ele>
        <time>2022-08-17T11:03:52Z</time>
      </trkpt>
      <trkpt lat="44.93354" lon="1.04915">
        <ele>197.3</ele>
        <time>2022-08-17T11:03:54Z</time>
      </trkpt>
      <trkpt lat="44.93356" lon="1.04913">
        <ele>197.3</ele>
        <time>2022-08-17T11:03:56Z</time>
      </trkpt>
      <trkpt lat="44.93358" lon="1.04909">
        <ele>197.3</ele>
        <time>2022-08-17T11:03:58Z</time>
      </trkpt>
      <trkpt lat="44.9336" lon="1.04907">
        <ele>197.2</ele>
        <time>2022-08-17T11:04:00Z</time>
      </trkpt>
      <trkpt lat="44.93363" lon="1.04905">
        <ele>197</ele>
        <time>2022-08-17T11:04:02Z</time>
      </trkpt>
      <trkpt lat="44.93365" lon="1.04903">
        <ele>197</ele>
        <time>2022-08-17T11:04:04Z</time>
      </trkpt>
      <trkpt lat="44.93367" lon="1.049">
        <ele>196.9</ele>
        <time>2022-08-17T11:04:06Z</time>
      </trkpt>
      <trkpt lat="44.93369" lon="1.04899">
        <ele>196.8</ele>
        <time>2022-08-17T11:04:08Z</time>
      </trkpt>
      <trkpt lat="44.93372" lon="1.04896">
        <ele>196.8</ele>
        <time>2022-08-17T11:04:10Z</time>
      </trkpt>
      <trkpt lat="44.93374" lon="1.04893">
        <ele>196.9</ele>
        <time>2022-08-17T11:04:12Z</time>
      </trkpt>
      <trkpt lat="44.93376" lon="1.04891">
        <ele>196.9</ele>
        <time>2022-08-17T11:04:14Z</time>
      </trkpt>
      <trkpt lat="44.93378" lon="1.04888">
        <ele>197</ele>
        <time>2022-08-17T11:04:16Z</time>
      </trkpt>
      <trkpt lat="44.9338" lon="1.04885">
        <ele>197</ele>
        <time>2022-08-17T11:04:18Z</time>
      </trkpt>
      <trkpt lat="44.93383" lon="1.04883">
        <ele>197.1</ele>
        <time>2022-08-17T11:04:20Z</time>
      </trkpt>
      <trkpt lat="44.93386" lon="1.0488">
        <ele>197.1</ele>
        <time>2022-08-17T11:04:22Z</time>
      </trkpt>
      <trkpt lat="44.93389" lon="1.04878">
        <ele>197.2</ele>
        <time>2022-08-17T11:04:24Z</time>
      </trkpt>
      <trkpt lat="44.93392" lon="1.04875">
        <ele>197.3</ele>
        <time>2022-08-17T11:04:26Z</time>
      </trkpt>
      <trkpt lat="44.93395" lon="1.04871">
        <ele>197.6</ele>
        <time>2022-08-17T11:04:28Z</time>
      </trkpt>
      <trkpt lat="44.93398" lon="1.04868">
        <ele>197.8</ele>
        <time>2022-08-17T11:04:30Z</time>
      </trkpt>
      <trkpt lat="44.93401" lon="1.04864">
        <ele>198.1</ele>
        <time>2022-08-17T11:04:32Z</time>
      </trkpt>
      <trkpt lat="44.93404" lon="1.04861">
        <ele>198.4</ele>
        <time>2022-08-17T11:04:34Z</time>
      </trkpt>
      <trkpt lat="44.93407" lon="1.04858">
        <ele>198.6</ele>
        <time>2022-08-17T11:04:36Z</time>
      </trkpt>
      <trkpt lat="44.9341" lon="1.04855">
        <ele>199</ele>
        <time>2022-08-17T11:04:38Z</time>
      </trkpt>
      <trkpt lat="44.93414" lon="1.04851">
        <ele>199.4</ele>
        <time>2022-08-17T11:04:40Z</time>
      </trkpt>
      <trkpt lat="44.93418" lon="1.04847">
        <ele>199.8</ele>
        <time>2022-08-17T11:04:42Z</time>
      </trkpt>
      <trkpt lat="44.93421" lon="1.04843">
        <ele>200.3</ele>
        <time>2022-08-17T11:04:44Z</time>
      </trkpt>
      <trkpt lat="44.93425" lon="1.0484">
        <ele>200.6</ele>
        <time>2022-08-17T11:04:46Z</time>
      </trkpt>
      <trkpt lat="44.93429" lon="1.04837">
        <ele>200.8</ele>
        <time>2022-08-17T11:04:48Z</time>
      </trkpt>
      <trkpt lat="44.93432" lon="1.04834">
        <ele>201.2</ele>
        <time>2022-08-17T11:04:50Z</time>
      </trkpt>
      <trkpt lat="44.93435" lon="1.04831">
        <ele>201.3</ele>
        <time>2022-08-17T11:04:52Z</time>
      </trkpt>
      <trkpt lat="44.93438" lon="1.04828">
        <ele>201.5</ele>
        <time>2022-08-17T11:04:54Z</time>
      </trkpt>
      <trkpt lat="44.9344" lon="1.04824">
        <ele>201.7</ele>
        <time>2022-08-17T11:04:56Z</time>
      </trkpt>
      <trkpt lat="44.93441" lon="1.0482">
        <ele>202</ele>
        <time>2022-08-17T11:04:58Z</time>
      </trkpt>
      <trkpt lat="44.93442" lon="1.04818">
        <ele>202.1</ele>
        <time>2022-08-17T11:05:00Z</time>
      </trkpt>
      <trkpt lat="44.93444" lon="1.04815">
        <ele>202.4</ele>
        <time>2022-08-17T11:05:02Z</time>
      </trkpt>
      <trkpt lat="44.93444" lon="1.04812">
        <ele>202.7</ele>
        <time>2022-08-17T11:05:04Z</time>
      </trkpt>
      <trkpt lat="44.93443" lon="1.04807">
        <ele>203.1</ele>
        <time>2022-08-17T11:05:06Z</time>
      </trkpt>
      <trkpt lat="44.93441" lon="1.04805">
        <ele>203.4</ele>
        <time>2022-08-17T11:05:08Z</time>
      </trkpt>
      <trkpt lat="44.93439" lon="1.04803">
        <ele>203.6</ele>
        <time>2022-08-17T11:05:10Z</time>
      </trkpt>
      <trkpt lat="44.93436" lon="1.04802">
        <ele>203.8</ele>
        <time>2022-08-17T11:05:12Z</time>
      </trkpt>
      <trkpt lat="44.93434" lon="1.04803">
        <ele>203.8</ele>
        <time>2022-08-17T11:05:14Z</time>
      </trkpt>
      <trkpt lat="44.9343" lon="1.04802">
        <ele>203.9</ele>
        <time>2022-08-17T11:05:16Z</time>
      </trkpt>
      <trkpt lat="44.93427" lon="1.04801">
        <ele>204.1</ele>
        <time>2022-08-17T11:05:18Z</time>
      </trkpt>
      <trkpt lat="44.93425" lon="1.04799">
        <ele>204.3</ele>
        <time>2022-08-17T11:05:20Z</time>
      </trkpt>
      <trkpt lat="44.93421" lon="1.048">
        <ele>204.3</ele>
        <time>2022-08-17T11:05:22Z</time>
      </trkpt>
      <trkpt lat="44.93418" lon="1.04803">
        <ele>204.2</ele>
        <time>2022-08-17T11:05:24Z</time>
      </trkpt>
      <trkpt lat="44.93417" lon="1.04802">
        <ele>204.3</ele>
        <time>2022-08-17T11:05:26Z</time>
      </trkpt>
      <trkpt lat="44.93413" lon="1.04801">
        <ele>204.2</ele>
        <time>2022-08-17T11:05:28Z</time>
      </trkpt>
      <trkpt lat="44.93411" lon="1.048">
        <ele>204.2</ele>
        <time>2022-08-17T11:05:30Z</time>
      </trkpt>
      <trkpt lat="44.93408" lon="1.04799">
        <ele>204.1</ele>
        <time>2022-08-17T11:05:32Z</time>
      </trkpt>
      <trkpt lat="44.93405" lon="1.04799">
        <ele>204</ele>
        <time>2022-08-17T11:05:34Z</time>
      </trkpt>
      <trkpt lat="44.93401" lon="1.04799">
        <ele>203.9</ele>
        <time>2022-08-17T11:05:36Z</time>
      </trkpt>
      <trkpt lat="44.93399" lon="1.048">
        <ele>203.8</ele>
        <time>2022-08-17T11:05:38Z</time>
      </trkpt>
      <trkpt lat="44.93395" lon="1.048">
        <ele>203.6</ele>
        <time>2022-08-17T11:05:40Z</time>
      </trkpt>
      <trkpt lat="44.93392" lon="1.04803">
        <ele>203.4</ele>
        <time>2022-08-17T11:05:42Z</time>
      </trkpt>
      <trkpt lat="44.93389" lon="1.04806">
        <ele>203.2</ele>
        <time>2022-08-17T11:05:44Z</time>
      </trkpt>
      <trkpt lat="44.93387" lon="1.04808">
        <ele>203.1</ele>
        <time>2022-08-17T11:05:46Z</time>
      </trkpt>
      <trkpt lat="44.93384" lon="1.04813">
        <ele>202.9</ele>
        <time>2022-08-17T11:05:48Z</time>
      </trkpt>
      <trkpt lat="44.93381" lon="1.04816">
        <ele>202.8</ele>
        <time>2022-08-17T11:05:50Z</time>
      </trkpt>
      <trkpt lat="44.93377" lon="1.04821">
        <ele>202.7</ele>
        <time>2022-08-17T11:05:52Z</time>
      </trkpt>
      <trkpt lat="44.93373" lon="1.04824">
        <ele>202.6</ele>
        <time>2022-08-17T11:05:54Z</time>
      </trkpt>
      <trkpt lat="44.93369" lon="1.04826">
        <ele>202.6</ele>
        <time>2022-08-17T11:05:56Z</time>
      </trkpt>
      <trkpt lat="44.93364" lon="1.04826">
        <ele>202.6</ele>
        <time>2022-08-17T11:05:58Z</time>
      </trkpt>
      <trkpt lat="44.9336" lon="1.04825">
        <ele>202.6</ele>
        <time>2022-08-17T11:06:00Z</time>
      </trkpt>
      <trkpt lat="44.93357" lon="1.04827">
        <ele>202.6</ele>
        <time>2022-08-17T11:06:02Z</time>
      </trkpt>
      <trkpt lat="44.93354" lon="1.0483">
        <ele>202.7</ele>
        <time>2022-08-17T11:06:04Z</time>
      </trkpt>
      <trkpt lat="44.93352" lon="1.04832">
        <ele>202.7</ele>
        <time>2022-08-17T11:06:06Z</time>
      </trkpt>
      <trkpt lat="44.93351" lon="1.04833">
        <ele>202.8</ele>
        <time>2022-08-17T11:06:08Z</time>
      </trkpt>
      <trkpt lat="44.93351" lon="1.04834">
        <ele>202.8</ele>
        <time>2022-08-17T11:06:10Z</time>
      </trkpt>
      <trkpt lat="44.9335" lon="1.04834">
        <ele>202.8</ele>
        <time>2022-08-17T11:06:12Z</time>
      </trkpt>
      <trkpt lat="44.9335" lon="1.04834">
        <ele>202.7</ele>
        <time>2022-08-17T11:06:14Z</time>
      </trkpt>
      <trkpt lat="44.93356" lon="1.04798">
        <ele>202.2</ele>
        <time>2022-08-17T11:06:42Z</time>
      </trkpt>
      <trkpt lat="44.93356" lon="1.04791">
        <ele>202.1</ele>
        <time>2022-08-17T11:06:44Z</time>
      </trkpt>
      <trkpt lat="44.93357" lon="1.04784">
        <ele>202</ele>
        <time>2022-08-17T11:06:46Z</time>
      </trkpt>
      <trkpt lat="44.93357" lon="1.04777">
        <ele>201.9</ele>
        <time>2022-08-17T11:06:48Z</time>
      </trkpt>
      <trkpt lat="44.93357" lon="1.04768">
        <ele>201.8</ele>
        <time>2022-08-17T11:06:50Z</time>
      </trkpt>
      <trkpt lat="44.93356" lon="1.04761">
        <ele>201.6</ele>
        <time>2022-08-17T11:06:52Z</time>
      </trkpt>
      <trkpt lat="44.93356" lon="1.04753">
        <ele>201.5</ele>
        <time>2022-08-17T11:06:54Z</time>
      </trkpt>
      <trkpt lat="44.93355" lon="1.04745">
        <ele>201.4</ele>
        <time>2022-08-17T11:06:56Z</time>
      </trkpt>
      <trkpt lat="44.93355" lon="1.04737">
        <ele>201.6</ele>
        <time>2022-08-17T11:06:58Z</time>
      </trkpt>
      <trkpt lat="44.93355" lon="1.04729">
        <ele>201.8</ele>
        <time>2022-08-17T11:07:00Z</time>
      </trkpt>
      <trkpt lat="44.93356" lon="1.04723">
        <ele>202</ele>
        <time>2022-08-17T11:07:02Z</time>
      </trkpt>
      <trkpt lat="44.93357" lon="1.04717">
        <ele>202.2</ele>
        <time>2022-08-17T11:07:04Z</time>
      </trkpt>
      <trkpt lat="44.93358" lon="1.04711">
        <ele>202.3</ele>
        <time>2022-08-17T11:07:06Z</time>
      </trkpt>
      <trkpt lat="44.93359" lon="1.04706">
        <ele>202.5</ele>
        <time>2022-08-17T11:07:08Z</time>
      </trkpt>
      <trkpt lat="44.9336" lon="1.047">
        <ele>202.7</ele>
        <time>2022-08-17T11:07:10Z</time>
      </trkpt>
      <trkpt lat="44.93361" lon="1.04695">
        <ele>202.8</ele>
        <time>2022-08-17T11:07:12Z</time>
      </trkpt>
      <trkpt lat="44.93361" lon="1.04688">
        <ele>203</ele>
        <time>2022-08-17T11:07:14Z</time>
      </trkpt>
      <trkpt lat="44.93362" lon="1.04681">
        <ele>203.2</ele>
        <time>2022-08-17T11:07:16Z</time>
      </trkpt>
      <trkpt lat="44.93362" lon="1.04675">
        <ele>203.3</ele>
        <time>2022-08-17T11:07:18Z</time>
      </trkpt>
      <trkpt lat="44.93363" lon="1.04669">
        <ele>203.5</ele>
        <time>2022-08-17T11:07:20Z</time>
      </trkpt>
      <trkpt lat="44.93364" lon="1.04663">
        <ele>203.6</ele>
        <time>2022-08-17T11:07:22Z</time>
      </trkpt>
      <trkpt lat="44.93364" lon="1.04656">
        <ele>203.6</ele>
        <time>2022-08-17T11:07:24Z</time>
      </trkpt>
      <trkpt lat="44.93365" lon="1.0465">
        <ele>203.6</ele>
        <time>2022-08-17T11:07:26Z</time>
      </trkpt>
      <trkpt lat="44.93366" lon="1.04644">
        <ele>203.7</ele>
        <time>2022-08-17T11:07:28Z</time>
      </trkpt>
      <trkpt lat="44.93366" lon="1.04638">
        <ele>203.7</ele>
        <time>2022-08-17T11:07:30Z</time>
      </trkpt>
      <trkpt lat="44.93367" lon="1.04631">
        <ele>203.7</ele>
        <time>2022-08-17T11:07:32Z</time>
      </trkpt>
      <trkpt lat="44.93368" lon="1.04626">
        <ele>203.7</ele>
        <time>2022-08-17T11:07:34Z</time>
      </trkpt>
      <trkpt lat="44.93369" lon="1.04621">
        <ele>203.8</ele>
        <time>2022-08-17T11:07:36Z</time>
      </trkpt>
      <trkpt lat="44.9337" lon="1.04615">
        <ele>203.8</ele>
        <time>2022-08-17T11:07:38Z</time>
      </trkpt>
      <trkpt lat="44.93372" lon="1.04609">
        <ele>203.7</ele>
        <time>2022-08-17T11:07:40Z</time>
      </trkpt>
      <trkpt lat="44.93373" lon="1.04604">
        <ele>203.7</ele>
        <time>2022-08-17T11:07:42Z</time>
      </trkpt>
      <trkpt lat="44.93374" lon="1.04599">
        <ele>203.7</ele>
        <time>2022-08-17T11:07:44Z</time>
      </trkpt>
      <trkpt lat="44.93374" lon="1.046">
        <ele>203.7</ele>
        <time>2022-08-17T11:07:46Z</time>
      </trkpt>
      <trkpt lat="44.93374" lon="1.046">
        <ele>203.7</ele>
        <time>2022-08-17T11:07:48Z</time>
      </trkpt>
      <trkpt lat="44.93374" lon="1.046">
        <ele>203.7</ele>
        <time>2022-08-17T11:07:50Z</time>
      </trkpt>
      <trkpt lat="44.93379" lon="1.0458">
        <ele>203.1</ele>
        <time>2022-08-17T11:13:00Z</time>
      </trkpt>
      <trkpt lat="44.93381" lon="1.04569">
        <ele>202</ele>
        <time>2022-08-17T11:13:02Z</time>
      </trkpt>
      <trkpt lat="44.93385" lon="1.04556">
        <ele>200.6</ele>
        <time>2022-08-17T11:13:04Z</time>
      </trkpt>
      <trkpt lat="44.93386" lon="1.04543">
        <ele>199.3</ele>
        <time>2022-08-17T11:13:06Z</time>
      </trkpt>
      <trkpt lat="44.93386" lon="1.04526">
        <ele>197.5</ele>
        <time>2022-08-17T11:13:08Z</time>
      </trkpt>
      <trkpt lat="44.93383" lon="1.04506">
        <ele>195.6</ele>
        <time>2022-08-17T11:13:10Z</time>
      </trkpt>
      <trkpt lat="44.9338" lon="1.04488">
        <ele>194.5</ele>
        <time>2022-08-17T11:13:12Z</time>
      </trkpt>
      <trkpt lat="44.93373" lon="1.04472">
        <ele>193.9</ele>
        <time>2022-08-17T11:13:14Z</time>
      </trkpt>
      <trkpt lat="44.93364" lon="1.04457">
        <ele>193.6</ele>
        <time>2022-08-17T11:13:16Z</time>
      </trkpt>
      <trkpt lat="44.93356" lon="1.04444">
        <ele>193.3</ele>
        <time>2022-08-17T11:13:18Z</time>
      </trkpt>
      <trkpt lat="44.93347" lon="1.0443">
        <ele>193</ele>
        <time>2022-08-17T11:13:20Z</time>
      </trkpt>
      <trkpt lat="44.93341" lon="1.04418">
        <ele>192.7</ele>
        <time>2022-08-17T11:13:22Z</time>
      </trkpt>
      <trkpt lat="44.93333" lon="1.0441">
        <ele>192.8</ele>
        <time>2022-08-17T11:13:24Z</time>
      </trkpt>
      <trkpt lat="44.93325" lon="1.04409">
        <ele>192.2</ele>
        <time>2022-08-17T11:13:26Z</time>
      </trkpt>
      <trkpt lat="44.93314" lon="1.04414">
        <ele>191.7</ele>
        <time>2022-08-17T11:13:28Z</time>
      </trkpt>
      <trkpt lat="44.93301" lon="1.04422">
        <ele>191.4</ele>
        <time>2022-08-17T11:13:30Z</time>
      </trkpt>
      <trkpt lat="44.93287" lon="1.0443">
        <ele>191.1</ele>
        <time>2022-08-17T11:13:32Z</time>
      </trkpt>
      <trkpt lat="44.93271" lon="1.0444">
        <ele>190.8</ele>
        <time>2022-08-17T11:13:34Z</time>
      </trkpt>
      <trkpt lat="44.93254" lon="1.04449">
        <ele>190.6</ele>
        <time>2022-08-17T11:13:36Z</time>
      </trkpt>
      <trkpt lat="44.9324" lon="1.04457">
        <ele>189.8</ele>
        <time>2022-08-17T11:13:38Z</time>
      </trkpt>
      <trkpt lat="44.93225" lon="1.04467">
        <ele>188.7</ele>
        <time>2022-08-17T11:13:40Z</time>
      </trkpt>
      <trkpt lat="44.93208" lon="1.04476">
        <ele>187.4</ele>
        <time>2022-08-17T11:13:42Z</time>
      </trkpt>
      <trkpt lat="44.93195" lon="1.04487">
        <ele>186.5</ele>
        <time>2022-08-17T11:13:44Z</time>
      </trkpt>
      <trkpt lat="44.93181" lon="1.04502">
        <ele>185.8</ele>
        <time>2022-08-17T11:13:46Z</time>
      </trkpt>
      <trkpt lat="44.93168" lon="1.04519">
        <ele>184.8</ele>
        <time>2022-08-17T11:13:48Z</time>
      </trkpt>
      <trkpt lat="44.93154" lon="1.04526">
        <ele>182.3</ele>
        <time>2022-08-17T11:13:50Z</time>
      </trkpt>
      <trkpt lat="44.93141" lon="1.04531">
        <ele>179.8</ele>
        <time>2022-08-17T11:13:52Z</time>
      </trkpt>
      <trkpt lat="44.93131" lon="1.04529">
        <ele>177.5</ele>
        <time>2022-08-17T11:13:54Z</time>
      </trkpt>
      <trkpt lat="44.93124" lon="1.04515">
        <ele>175.7</ele>
        <time>2022-08-17T11:13:56Z</time>
      </trkpt>
      <trkpt lat="44.93125" lon="1.04497">
        <ele>175.3</ele>
        <time>2022-08-17T11:13:58Z</time>
      </trkpt>
      <trkpt lat="44.9313" lon="1.04478">
        <ele>175.3</ele>
        <time>2022-08-17T11:14:00Z</time>
      </trkpt>
      <trkpt lat="44.93137" lon="1.04459">
        <ele>175.7</ele>
        <time>2022-08-17T11:14:02Z</time>
      </trkpt>
      <trkpt lat="44.93145" lon="1.04437">
        <ele>175.9</ele>
        <time>2022-08-17T11:14:04Z</time>
      </trkpt>
      <trkpt lat="44.93152" lon="1.04415">
        <ele>176.2</ele>
        <time>2022-08-17T11:14:06Z</time>
      </trkpt>
      <trkpt lat="44.93155" lon="1.04395">
        <ele>176.8</ele>
        <time>2022-08-17T11:14:08Z</time>
      </trkpt>
      <trkpt lat="44.93152" lon="1.04373">
        <ele>176.3</ele>
        <time>2022-08-17T11:14:10Z</time>
      </trkpt>
      <trkpt lat="44.93143" lon="1.0436">
        <ele>175.1</ele>
        <time>2022-08-17T11:14:12Z</time>
      </trkpt>
      <trkpt lat="44.93129" lon="1.04363">
        <ele>173.2</ele>
        <time>2022-08-17T11:14:14Z</time>
      </trkpt>
      <trkpt lat="44.93116" lon="1.0437">
        <ele>171.1</ele>
        <time>2022-08-17T11:14:16Z</time>
      </trkpt>
      <trkpt lat="44.93101" lon="1.04372">
        <ele>168.8</ele>
        <time>2022-08-17T11:14:18Z</time>
      </trkpt>
      <trkpt lat="44.93085" lon="1.04351">
        <ele>168</ele>
        <time>2022-08-17T11:14:20Z</time>
      </trkpt>
      <trkpt lat="44.9307" lon="1.04343">
        <ele>166.5</ele>
        <time>2022-08-17T11:14:22Z</time>
      </trkpt>
      <trkpt lat="44.93054" lon="1.04343">
        <ele>164.3</ele>
        <time>2022-08-17T11:14:24Z</time>
      </trkpt>
      <trkpt lat="44.93037" lon="1.04356">
        <ele>160.6</ele>
        <time>2022-08-17T11:14:26Z</time>
      </trkpt>
      <trkpt lat="44.93021" lon="1.04361">
        <ele>157.5</ele>
        <time>2022-08-17T11:14:28Z</time>
      </trkpt>
      <trkpt lat="44.93" lon="1.04369">
        <ele>153.3</ele>
        <time>2022-08-17T11:14:30Z</time>
      </trkpt>
      <trkpt lat="44.92993" lon="1.04363">
        <ele>153.3</ele>
        <time>2022-08-17T11:14:32Z</time>
      </trkpt>
      <trkpt lat="44.92974" lon="1.04362">
        <ele>151.3</ele>
        <time>2022-08-17T11:14:34Z</time>
      </trkpt>
      <trkpt lat="44.92957" lon="1.04351">
        <ele>150.1</ele>
        <time>2022-08-17T11:14:36Z</time>
      </trkpt>
      <trkpt lat="44.92944" lon="1.0434">
        <ele>148.9</ele>
        <time>2022-08-17T11:14:38Z</time>
      </trkpt>
      <trkpt lat="44.92933" lon="1.04329">
        <ele>148.2</ele>
        <time>2022-08-17T11:14:40Z</time>
      </trkpt>
      <trkpt lat="44.92924" lon="1.04323">
        <ele>147.6</ele>
        <time>2022-08-17T11:14:42Z</time>
      </trkpt>
      <trkpt lat="44.92913" lon="1.04322">
        <ele>146.4</ele>
        <time>2022-08-17T11:14:44Z</time>
      </trkpt>
      <trkpt lat="44.92902" lon="1.04314">
        <ele>146.8</ele>
        <time>2022-08-17T11:14:46Z</time>
      </trkpt>
      <trkpt lat="44.92892" lon="1.04305">
        <ele>147</ele>
        <time>2022-08-17T11:14:48Z</time>
      </trkpt>
      <trkpt lat="44.92883" lon="1.04293">
        <ele>146.9</ele>
        <time>2022-08-17T11:14:50Z</time>
      </trkpt>
      <trkpt lat="44.92876" lon="1.04279">
        <ele>146.6</ele>
        <time>2022-08-17T11:14:52Z</time>
      </trkpt>
      <trkpt lat="44.9287" lon="1.04267">
        <ele>146</ele>
        <time>2022-08-17T11:14:54Z</time>
      </trkpt>
      <trkpt lat="44.92864" lon="1.04253">
        <ele>144.9</ele>
        <time>2022-08-17T11:14:56Z</time>
      </trkpt>
      <trkpt lat="44.92859" lon="1.04238">
        <ele>144.1</ele>
        <time>2022-08-17T11:14:58Z</time>
      </trkpt>
      <trkpt lat="44.92856" lon="1.0422">
        <ele>143.5</ele>
        <time>2022-08-17T11:15:00Z</time>
      </trkpt>
      <trkpt lat="44.92852" lon="1.04205">
        <ele>142.9</ele>
        <time>2022-08-17T11:15:02Z</time>
      </trkpt>
      <trkpt lat="44.9285" lon="1.04192">
        <ele>142.5</ele>
        <time>2022-08-17T11:15:04Z</time>
      </trkpt>
      <trkpt lat="44.92845" lon="1.04178">
        <ele>141.3</ele>
        <time>2022-08-17T11:15:06Z</time>
      </trkpt>
      <trkpt lat="44.92844" lon="1.04162">
        <ele>141</ele>
        <time>2022-08-17T11:15:08Z</time>
      </trkpt>
      <trkpt lat="44.92845" lon="1.04144">
        <ele>141</ele>
        <time>2022-08-17T11:15:10Z</time>
      </trkpt>
      <trkpt lat="44.92845" lon="1.04126">
        <ele>140.8</ele>
        <time>2022-08-17T11:15:12Z</time>
      </trkpt>
      <trkpt lat="44.92845" lon="1.04105">
        <ele>140.4</ele>
        <time>2022-08-17T11:15:14Z</time>
      </trkpt>
      <trkpt lat="44.92845" lon="1.04089">
        <ele>140.2</ele>
        <time>2022-08-17T11:15:16Z</time>
      </trkpt>
      <trkpt lat="44.92845" lon="1.04075">
        <ele>139.7</ele>
        <time>2022-08-17T11:15:18Z</time>
      </trkpt>
      <trkpt lat="44.92845" lon="1.0406">
        <ele>139.3</ele>
        <time>2022-08-17T11:15:20Z</time>
      </trkpt>
      <trkpt lat="44.92847" lon="1.04044">
        <ele>139</ele>
        <time>2022-08-17T11:15:22Z</time>
      </trkpt>
      <trkpt lat="44.92847" lon="1.04028">
        <ele>138.3</ele>
        <time>2022-08-17T11:15:24Z</time>
      </trkpt>
      <trkpt lat="44.92849" lon="1.04009">
        <ele>138.1</ele>
        <time>2022-08-17T11:15:26Z</time>
      </trkpt>
      <trkpt lat="44.92853" lon="1.03992">
        <ele>138.7</ele>
        <time>2022-08-17T11:15:28Z</time>
      </trkpt>
      <trkpt lat="44.92857" lon="1.03972">
        <ele>139</ele>
        <time>2022-08-17T11:15:30Z</time>
      </trkpt>
      <trkpt lat="44.92859" lon="1.03951">
        <ele>139</ele>
        <time>2022-08-17T11:15:32Z</time>
      </trkpt>
      <trkpt lat="44.92861" lon="1.03928">
        <ele>138.6</ele>
        <time>2022-08-17T11:15:34Z</time>
      </trkpt>
      <trkpt lat="44.9286" lon="1.03905">
        <ele>138.1</ele>
        <time>2022-08-17T11:15:36Z</time>
      </trkpt>
      <trkpt lat="44.9286" lon="1.03882">
        <ele>137.8</ele>
        <time>2022-08-17T11:15:38Z</time>
      </trkpt>
      <trkpt lat="44.92859" lon="1.03857">
        <ele>137.4</ele>
        <time>2022-08-17T11:15:40Z</time>
      </trkpt>
      <trkpt lat="44.9286" lon="1.03833">
        <ele>137.2</ele>
        <time>2022-08-17T11:15:42Z</time>
      </trkpt>
      <trkpt lat="44.9286" lon="1.03809">
        <ele>136.6</ele>
        <time>2022-08-17T11:15:44Z</time>
      </trkpt>
      <trkpt lat="44.9286" lon="1.03786">
        <ele>136</ele>
        <time>2022-08-17T11:15:46Z</time>
      </trkpt>
      <trkpt lat="44.9286" lon="1.03763">
        <ele>135.4</ele>
        <time>2022-08-17T11:15:48Z</time>
      </trkpt>
      <trkpt lat="44.92858" lon="1.0374">
        <ele>135.5</ele>
        <time>2022-08-17T11:15:50Z</time>
      </trkpt>
      <trkpt lat="44.92862" lon="1.03718">
        <ele>135.4</ele>
        <time>2022-08-17T11:15:52Z</time>
      </trkpt>
      <trkpt lat="44.92864" lon="1.03699">
        <ele>135.2</ele>
        <time>2022-08-17T11:15:54Z</time>
      </trkpt>
      <trkpt lat="44.92865" lon="1.03683">
        <ele>135.2</ele>
        <time>2022-08-17T11:15:56Z</time>
      </trkpt>
      <trkpt lat="44.92868" lon="1.03668">
        <ele>134.3</ele>
        <time>2022-08-17T11:15:58Z</time>
      </trkpt>
      <trkpt lat="44.9287" lon="1.03652">
        <ele>133.5</ele>
        <time>2022-08-17T11:16:00Z</time>
      </trkpt>
      <trkpt lat="44.92874" lon="1.0364">
        <ele>132.1</ele>
        <time>2022-08-17T11:16:02Z</time>
      </trkpt>
      <trkpt lat="44.92875" lon="1.03628">
        <ele>131.4</ele>
        <time>2022-08-17T11:16:04Z</time>
      </trkpt>
      <trkpt lat="44.92876" lon="1.03618">
        <ele>130.7</ele>
        <time>2022-08-17T11:16:06Z</time>
      </trkpt>
      <trkpt lat="44.92877" lon="1.03609">
        <ele>130</ele>
        <time>2022-08-17T11:16:08Z</time>
      </trkpt>
      <trkpt lat="44.92879" lon="1.03603">
        <ele>129.4</ele>
        <time>2022-08-17T11:16:10Z</time>
      </trkpt>
      <trkpt lat="44.92879" lon="1.03598">
        <ele>129.2</ele>
        <time>2022-08-17T11:16:12Z</time>
      </trkpt>
      <trkpt lat="44.9288" lon="1.03593">
        <ele>128.7</ele>
        <time>2022-08-17T11:16:14Z</time>
      </trkpt>
      <trkpt lat="44.92881" lon="1.03585">
        <ele>127.9</ele>
        <time>2022-08-17T11:16:16Z</time>
      </trkpt>
      <trkpt lat="44.92883" lon="1.03573">
        <ele>126.5</ele>
        <time>2022-08-17T11:16:18Z</time>
      </trkpt>
      <trkpt lat="44.92885" lon="1.03559">
        <ele>125.3</ele>
        <time>2022-08-17T11:16:20Z</time>
      </trkpt>
      <trkpt lat="44.92886" lon="1.03544">
        <ele>123.9</ele>
        <time>2022-08-17T11:16:22Z</time>
      </trkpt>
      <trkpt lat="44.92889" lon="1.03527">
        <ele>122</ele>
        <time>2022-08-17T11:16:24Z</time>
      </trkpt>
      <trkpt lat="44.92895" lon="1.0351">
        <ele>119.6</ele>
        <time>2022-08-17T11:16:26Z</time>
      </trkpt>
      <trkpt lat="44.92901" lon="1.03491">
        <ele>118</ele>
        <time>2022-08-17T11:16:28Z</time>
      </trkpt>
      <trkpt lat="44.92907" lon="1.03472">
        <ele>117.2</ele>
        <time>2022-08-17T11:16:30Z</time>
      </trkpt>
      <trkpt lat="44.92917" lon="1.03451">
        <ele>115.8</ele>
        <time>2022-08-17T11:16:32Z</time>
      </trkpt>
      <trkpt lat="44.92928" lon="1.0343">
        <ele>116.1</ele>
        <time>2022-08-17T11:16:34Z</time>
      </trkpt>
      <trkpt lat="44.9294" lon="1.0341">
        <ele>116.4</ele>
        <time>2022-08-17T11:16:36Z</time>
      </trkpt>
      <trkpt lat="44.92949" lon="1.03388">
        <ele>118</ele>
        <time>2022-08-17T11:16:38Z</time>
      </trkpt>
      <trkpt lat="44.92959" lon="1.03368">
        <ele>118.1</ele>
        <time>2022-08-17T11:16:40Z</time>
      </trkpt>
      <trkpt lat="44.92967" lon="1.03346">
        <ele>117.7</ele>
        <time>2022-08-17T11:16:42Z</time>
      </trkpt>
      <trkpt lat="44.92974" lon="1.03325">
        <ele>117.6</ele>
        <time>2022-08-17T11:16:44Z</time>
      </trkpt>
      <trkpt lat="44.92982" lon="1.03304">
        <ele>118.5</ele>
        <time>2022-08-17T11:16:46Z</time>
      </trkpt>
      <trkpt lat="44.9299" lon="1.03284">
        <ele>118.9</ele>
        <time>2022-08-17T11:16:48Z</time>
      </trkpt>
      <trkpt lat="44.93001" lon="1.03265">
        <ele>118.7</ele>
        <time>2022-08-17T11:16:50Z</time>
      </trkpt>
      <trkpt lat="44.93011" lon="1.03248">
        <ele>119.7</ele>
        <time>2022-08-17T11:16:52Z</time>
      </trkpt>
      <trkpt lat="44.93022" lon="1.03231">
        <ele>119.4</ele>
        <time>2022-08-17T11:16:54Z</time>
      </trkpt>
      <trkpt lat="44.93031" lon="1.03214">
        <ele>118.5</ele>
        <time>2022-08-17T11:16:56Z</time>
      </trkpt>
      <trkpt lat="44.93042" lon="1.03198">
        <ele>116.5</ele>
        <time>2022-08-17T11:16:58Z</time>
      </trkpt>
      <trkpt lat="44.93052" lon="1.03183">
        <ele>113.8</ele>
        <time>2022-08-17T11:17:00Z</time>
      </trkpt>
      <trkpt lat="44.93061" lon="1.03167">
        <ele>110.6</ele>
        <time>2022-08-17T11:17:02Z</time>
      </trkpt>
      <trkpt lat="44.93072" lon="1.03153">
        <ele>109.2</ele>
        <time>2022-08-17T11:17:04Z</time>
      </trkpt>
      <trkpt lat="44.93082" lon="1.03138">
        <ele>108.3</ele>
        <time>2022-08-17T11:17:06Z</time>
      </trkpt>
      <trkpt lat="44.93091" lon="1.03124">
        <ele>109.4</ele>
        <time>2022-08-17T11:17:08Z</time>
      </trkpt>
      <trkpt lat="44.93103" lon="1.03111">
        <ele>109.7</ele>
        <time>2022-08-17T11:17:10Z</time>
      </trkpt>
      <trkpt lat="44.93114" lon="1.03098">
        <ele>109.1</ele>
        <time>2022-08-17T11:17:12Z</time>
      </trkpt>
      <trkpt lat="44.93127" lon="1.03087">
        <ele>107.4</ele>
        <time>2022-08-17T11:17:14Z</time>
      </trkpt>
      <trkpt lat="44.9314" lon="1.03076">
        <ele>106.4</ele>
        <time>2022-08-17T11:17:16Z</time>
      </trkpt>
      <trkpt lat="44.93154" lon="1.03066">
        <ele>105.9</ele>
        <time>2022-08-17T11:17:18Z</time>
      </trkpt>
      <trkpt lat="44.93168" lon="1.03056">
        <ele>105.2</ele>
        <time>2022-08-17T11:17:20Z</time>
      </trkpt>
      <trkpt lat="44.93183" lon="1.03048">
        <ele>106.1</ele>
        <time>2022-08-17T11:17:22Z</time>
      </trkpt>
      <trkpt lat="44.93198" lon="1.03039">
        <ele>106.6</ele>
        <time>2022-08-17T11:17:24Z</time>
      </trkpt>
      <trkpt lat="44.93213" lon="1.03031">
        <ele>106.3</ele>
        <time>2022-08-17T11:17:26Z</time>
      </trkpt>
      <trkpt lat="44.93229" lon="1.03023">
        <ele>105.3</ele>
        <time>2022-08-17T11:17:28Z</time>
      </trkpt>
      <trkpt lat="44.93243" lon="1.03016">
        <ele>104.1</ele>
        <time>2022-08-17T11:17:30Z</time>
      </trkpt>
      <trkpt lat="44.93258" lon="1.03008">
        <ele>102.8</ele>
        <time>2022-08-17T11:17:32Z</time>
      </trkpt>
      <trkpt lat="44.93272" lon="1.03">
        <ele>101.1</ele>
        <time>2022-08-17T11:17:34Z</time>
      </trkpt>
      <trkpt lat="44.93286" lon="1.02994">
        <ele>100.7</ele>
        <time>2022-08-17T11:17:36Z</time>
      </trkpt>
      <trkpt lat="44.93299" lon="1.02982">
        <ele>101.1</ele>
        <time>2022-08-17T11:17:38Z</time>
      </trkpt>
      <trkpt lat="44.93311" lon="1.02972">
        <ele>101.1</ele>
        <time>2022-08-17T11:17:40Z</time>
      </trkpt>
      <trkpt lat="44.93321" lon="1.02957">
        <ele>101.4</ele>
        <time>2022-08-17T11:17:42Z</time>
      </trkpt>
      <trkpt lat="44.93332" lon="1.02945">
        <ele>100.7</ele>
        <time>2022-08-17T11:17:44Z</time>
      </trkpt>
      <trkpt lat="44.93342" lon="1.0293">
        <ele>101.6</ele>
        <time>2022-08-17T11:17:46Z</time>
      </trkpt>
      <trkpt lat="44.93351" lon="1.02916">
        <ele>101.9</ele>
        <time>2022-08-17T11:17:48Z</time>
      </trkpt>
      <trkpt lat="44.93361" lon="1.02903">
        <ele>103.7</ele>
        <time>2022-08-17T11:17:50Z</time>
      </trkpt>
      <trkpt lat="44.93371" lon="1.02891">
        <ele>104.3</ele>
        <time>2022-08-17T11:17:52Z</time>
      </trkpt>
      <trkpt lat="44.9338" lon="1.02877">
        <ele>104.9</ele>
        <time>2022-08-17T11:17:54Z</time>
      </trkpt>
      <trkpt lat="44.93392" lon="1.02864">
        <ele>103.8</ele>
        <time>2022-08-17T11:17:56Z</time>
      </trkpt>
      <trkpt lat="44.93403" lon="1.0285">
        <ele>102</ele>
        <time>2022-08-17T11:17:58Z</time>
      </trkpt>
      <trkpt lat="44.93414" lon="1.02836">
        <ele>98.8</ele>
        <time>2022-08-17T11:18:00Z</time>
      </trkpt>
      <trkpt lat="44.93424" lon="1.02821">
        <ele>101.2</ele>
        <time>2022-08-17T11:18:02Z</time>
      </trkpt>
      <trkpt lat="44.93436" lon="1.02808">
        <ele>102.7</ele>
        <time>2022-08-17T11:18:04Z</time>
      </trkpt>
      <trkpt lat="44.93448" lon="1.02796">
        <ele>103</ele>
        <time>2022-08-17T11:18:06Z</time>
      </trkpt>
      <trkpt lat="44.93459" lon="1.02782">
        <ele>102.2</ele>
        <time>2022-08-17T11:18:08Z</time>
      </trkpt>
      <trkpt lat="44.93468" lon="1.02764">
        <ele>100.8</ele>
        <time>2022-08-17T11:18:10Z</time>
      </trkpt>
      <trkpt lat="44.93477" lon="1.02751">
        <ele>98.1</ele>
        <time>2022-08-17T11:18:12Z</time>
      </trkpt>
      <trkpt lat="44.93488" lon="1.02739">
        <ele>96</ele>
        <time>2022-08-17T11:18:14Z</time>
      </trkpt>
      <trkpt lat="44.93497" lon="1.02725">
        <ele>94.5</ele>
        <time>2022-08-17T11:18:16Z</time>
      </trkpt>
      <trkpt lat="44.93507" lon="1.02711">
        <ele>96.2</ele>
        <time>2022-08-17T11:18:18Z</time>
      </trkpt>
      <trkpt lat="44.93517" lon="1.02697">
        <ele>97.7</ele>
        <time>2022-08-17T11:18:20Z</time>
      </trkpt>
      <trkpt lat="44.93526" lon="1.02683">
        <ele>97.7</ele>
        <time>2022-08-17T11:18:22Z</time>
      </trkpt>
      <trkpt lat="44.93535" lon="1.0267">
        <ele>96.5</ele>
        <time>2022-08-17T11:18:24Z</time>
      </trkpt>
      <trkpt lat="44.93544" lon="1.02656">
        <ele>96.3</ele>
        <time>2022-08-17T11:18:26Z</time>
      </trkpt>
      <trkpt lat="44.93553" lon="1.02642">
        <ele>95.8</ele>
        <time>2022-08-17T11:18:28Z</time>
      </trkpt>
      <trkpt lat="44.93562" lon="1.02629">
        <ele>94.9</ele>
        <time>2022-08-17T11:18:30Z</time>
      </trkpt>
      <trkpt lat="44.9357" lon="1.02617">
        <ele>93.2</ele>
        <time>2022-08-17T11:18:32Z</time>
      </trkpt>
      <trkpt lat="44.93578" lon="1.02604">
        <ele>91.1</ele>
        <time>2022-08-17T11:18:34Z</time>
      </trkpt>
      <trkpt lat="44.93586" lon="1.02592">
        <ele>89.3</ele>
        <time>2022-08-17T11:18:36Z</time>
      </trkpt>
      <trkpt lat="44.93594" lon="1.02581">
        <ele>88.9</ele>
        <time>2022-08-17T11:18:38Z</time>
      </trkpt>
      <trkpt lat="44.93603" lon="1.0257">
        <ele>89.3</ele>
        <time>2022-08-17T11:18:40Z</time>
      </trkpt>
      <trkpt lat="44.93613" lon="1.02563">
        <ele>88.6</ele>
        <time>2022-08-17T11:18:42Z</time>
      </trkpt>
      <trkpt lat="44.93624" lon="1.02558">
        <ele>87.3</ele>
        <time>2022-08-17T11:18:44Z</time>
      </trkpt>
      <trkpt lat="44.93633" lon="1.02554">
        <ele>86</ele>
        <time>2022-08-17T11:18:46Z</time>
      </trkpt>
      <trkpt lat="44.93643" lon="1.02551">
        <ele>84.4</ele>
        <time>2022-08-17T11:18:48Z</time>
      </trkpt>
      <trkpt lat="44.93653" lon="1.02548">
        <ele>82.9</ele>
        <time>2022-08-17T11:18:50Z</time>
      </trkpt>
      <trkpt lat="44.93662" lon="1.02545">
        <ele>81.3</ele>
        <time>2022-08-17T11:18:52Z</time>
      </trkpt>
      <trkpt lat="44.9367" lon="1.02543">
        <ele>80.5</ele>
        <time>2022-08-17T11:18:54Z</time>
      </trkpt>
      <trkpt lat="44.93676" lon="1.02539">
        <ele>80.6</ele>
        <time>2022-08-17T11:18:56Z</time>
      </trkpt>
      <trkpt lat="44.9368" lon="1.02537">
        <ele>80.8</ele>
        <time>2022-08-17T11:18:58Z</time>
      </trkpt>
      <trkpt lat="44.93682" lon="1.02537">
        <ele>80.8</ele>
        <time>2022-08-17T11:19:00Z</time>
      </trkpt>
      <trkpt lat="44.93683" lon="1.02537">
        <ele>80.8</ele>
        <time>2022-08-17T11:19:02Z</time>
      </trkpt>
      <trkpt lat="44.93683" lon="1.02538">
        <ele>80.8</ele>
        <time>2022-08-17T11:19:04Z</time>
      </trkpt>
      <trkpt lat="44.93684" lon="1.02538">
        <ele>80.8</ele>
        <time>2022-08-17T11:19:06Z</time>
      </trkpt>
      <trkpt lat="44.93684" lon="1.02538">
        <ele>80.8</ele>
        <time>2022-08-17T11:19:08Z</time>
      </trkpt>
      <trkpt lat="44.93686" lon="1.02538">
        <ele>80.8</ele>
        <time>2022-08-17T11:19:10Z</time>
      </trkpt>
      <trkpt lat="44.93688" lon="1.02536">
        <ele>80.9</ele>
        <time>2022-08-17T11:19:12Z</time>
      </trkpt>
      <trkpt lat="44.9369" lon="1.02532">
        <ele>81.1</ele>
        <time>2022-08-17T11:19:14Z</time>
      </trkpt>
      <trkpt lat="44.93689" lon="1.02526">
        <ele>81.4</ele>
        <time>2022-08-17T11:19:16Z</time>
      </trkpt>
      <trkpt lat="44.93686" lon="1.02518">
        <ele>81.7</ele>
        <time>2022-08-17T11:19:18Z</time>
      </trkpt>
      <trkpt lat="44.93685" lon="1.0251">
        <ele>82</ele>
        <time>2022-08-17T11:19:20Z</time>
      </trkpt>
      <trkpt lat="44.93684" lon="1.02503">
        <ele>82.3</ele>
        <time>2022-08-17T11:19:22Z</time>
      </trkpt>
      <trkpt lat="44.93682" lon="1.02495">
        <ele>82.3</ele>
        <time>2022-08-17T11:19:24Z</time>
      </trkpt>
      <trkpt lat="44.9368" lon="1.02487">
        <ele>82.2</ele>
        <time>2022-08-17T11:19:26Z</time>
      </trkpt>
      <trkpt lat="44.93678" lon="1.0248">
        <ele>82</ele>
        <time>2022-08-17T11:19:28Z</time>
      </trkpt>
      <trkpt lat="44.93676" lon="1.0247">
        <ele>81.9</ele>
        <time>2022-08-17T11:19:30Z</time>
      </trkpt>
      <trkpt lat="44.93675" lon="1.02461">
        <ele>81.8</ele>
        <time>2022-08-17T11:19:32Z</time>
      </trkpt>
      <trkpt lat="44.93671" lon="1.02451">
        <ele>81.6</ele>
        <time>2022-08-17T11:19:34Z</time>
      </trkpt>
      <trkpt lat="44.9367" lon="1.02441">
        <ele>81.4</ele>
        <time>2022-08-17T11:19:36Z</time>
      </trkpt>
      <trkpt lat="44.93668" lon="1.0243">
        <ele>81.2</ele>
        <time>2022-08-17T11:19:38Z</time>
      </trkpt>
      <trkpt lat="44.93666" lon="1.0242">
        <ele>81.1</ele>
        <time>2022-08-17T11:19:40Z</time>
      </trkpt>
      <trkpt lat="44.93663" lon="1.02408">
        <ele>80.8</ele>
        <time>2022-08-17T11:19:42Z</time>
      </trkpt>
      <trkpt lat="44.93661" lon="1.02396">
        <ele>80.3</ele>
        <time>2022-08-17T11:19:44Z</time>
      </trkpt>
      <trkpt lat="44.93658" lon="1.02384">
        <ele>79.8</ele>
        <time>2022-08-17T11:19:46Z</time>
      </trkpt>
      <trkpt lat="44.93656" lon="1.02372">
        <ele>79.2</ele>
        <time>2022-08-17T11:19:48Z</time>
      </trkpt>
      <trkpt lat="44.93653" lon="1.02359">
        <ele>78.6</ele>
        <time>2022-08-17T11:19:50Z</time>
      </trkpt>
      <trkpt lat="44.93649" lon="1.02345">
        <ele>78</ele>
        <time>2022-08-17T11:19:52Z</time>
      </trkpt>
      <trkpt lat="44.93647" lon="1.02333">
        <ele>77.4</ele>
        <time>2022-08-17T11:19:54Z</time>
      </trkpt>
      <trkpt lat="44.93645" lon="1.02321">
        <ele>77</ele>
        <time>2022-08-17T11:19:56Z</time>
      </trkpt>
      <trkpt lat="44.93642" lon="1.02307">
        <ele>76.5</ele>
        <time>2022-08-17T11:19:58Z</time>
      </trkpt>
      <trkpt lat="44.93639" lon="1.02295">
        <ele>76</ele>
        <time>2022-08-17T11:20:00Z</time>
      </trkpt>
      <trkpt lat="44.93636" lon="1.02282">
        <ele>75.4</ele>
        <time>2022-08-17T11:20:02Z</time>
      </trkpt>
      <trkpt lat="44.93634" lon="1.02268">
        <ele>74.8</ele>
        <time>2022-08-17T11:20:04Z</time>
      </trkpt>
      <trkpt lat="44.93632" lon="1.02256">
        <ele>74.2</ele>
        <time>2022-08-17T11:20:06Z</time>
      </trkpt>
      <trkpt lat="44.93629" lon="1.02243">
        <ele>73.8</ele>
        <time>2022-08-17T11:20:08Z</time>
      </trkpt>
      <trkpt lat="44.93627" lon="1.0223">
        <ele>73.7</ele>
        <time>2022-08-17T11:20:10Z</time>
      </trkpt>
      <trkpt lat="44.93625" lon="1.02217">
        <ele>73.6</ele>
        <time>2022-08-17T11:20:12Z</time>
      </trkpt>
      <trkpt lat="44.93623" lon="1.02204">
        <ele>73.5</ele>
        <time>2022-08-17T11:20:14Z</time>
      </trkpt>
      <trkpt lat="44.9362" lon="1.0219">
        <ele>73.3</ele>
        <time>2022-08-17T11:20:16Z</time>
      </trkpt>
      <trkpt lat="44.93617" lon="1.02176">
        <ele>73.1</ele>
        <time>2022-08-17T11:20:18Z</time>
      </trkpt>
      <trkpt lat="44.93614" lon="1.02162">
        <ele>73</ele>
        <time>2022-08-17T11:20:20Z</time>
      </trkpt>
      <trkpt lat="44.93612" lon="1.02148">
        <ele>72.9</ele>
        <time>2022-08-17T11:20:22Z</time>
      </trkpt>
      <trkpt lat="44.9361" lon="1.02135">
        <ele>72.9</ele>
        <time>2022-08-17T11:20:24Z</time>
      </trkpt>
      <trkpt lat="44.93611" lon="1.02123">
        <ele>72.8</ele>
        <time>2022-08-17T11:20:26Z</time>
      </trkpt>
      <trkpt lat="44.93616" lon="1.02112">
        <ele>72.9</ele>
        <time>2022-08-17T11:20:28Z</time>
      </trkpt>
      <trkpt lat="44.93622" lon="1.02102">
        <ele>72.9</ele>
        <time>2022-08-17T11:20:30Z</time>
      </trkpt>
      <trkpt lat="44.93622" lon="1.02089">
        <ele>72.9</ele>
        <time>2022-08-17T11:20:32Z</time>
      </trkpt>
      <trkpt lat="44.93615" lon="1.0208">
        <ele>72.8</ele>
        <time>2022-08-17T11:20:34Z</time>
      </trkpt>
      <trkpt lat="44.93609" lon="1.02073">
        <ele>72.7</ele>
        <time>2022-08-17T11:20:36Z</time>
      </trkpt>
      <trkpt lat="44.93604" lon="1.02064">
        <ele>72.6</ele>
        <time>2022-08-17T11:20:38Z</time>
      </trkpt>
      <trkpt lat="44.93601" lon="1.02053">
        <ele>72.5</ele>
        <time>2022-08-17T11:20:40Z</time>
      </trkpt>
      <trkpt lat="44.93597" lon="1.02042">
        <ele>72.3</ele>
        <time>2022-08-17T11:20:42Z</time>
      </trkpt>
      <trkpt lat="44.93593" lon="1.02031">
        <ele>72.1</ele>
        <time>2022-08-17T11:20:44Z</time>
      </trkpt>
      <trkpt lat="44.9359" lon="1.02021">
        <ele>71.8</ele>
        <time>2022-08-17T11:20:46Z</time>
      </trkpt>
      <trkpt lat="44.93586" lon="1.0201">
        <ele>71.4</ele>
        <time>2022-08-17T11:20:48Z</time>
      </trkpt>
      <trkpt lat="44.93582" lon="1.02">
        <ele>71.2</ele>
        <time>2022-08-17T11:20:50Z</time>
      </trkpt>
      <trkpt lat="44.93578" lon="1.0199">
        <ele>71.4</ele>
        <time>2022-08-17T11:20:52Z</time>
      </trkpt>
      <trkpt lat="44.93574" lon="1.0198">
        <ele>71.6</ele>
        <time>2022-08-17T11:20:54Z</time>
      </trkpt>
      <trkpt lat="44.93569" lon="1.01969">
        <ele>71.7</ele>
        <time>2022-08-17T11:20:56Z</time>
      </trkpt>
      <trkpt lat="44.93565" lon="1.01961">
        <ele>71.9</ele>
        <time>2022-08-17T11:20:58Z</time>
      </trkpt>
      <trkpt lat="44.93558" lon="1.01957">
        <ele>72.4</ele>
        <time>2022-08-17T11:21:00Z</time>
      </trkpt>
      <trkpt lat="44.93553" lon="1.01958">
        <ele>72.8</ele>
        <time>2022-08-17T11:21:02Z</time>
      </trkpt>
      <trkpt lat="44.93548" lon="1.01961">
        <ele>73.5</ele>
        <time>2022-08-17T11:21:04Z</time>
      </trkpt>
      <trkpt lat="44.93544" lon="1.01966">
        <ele>74.2</ele>
        <time>2022-08-17T11:21:06Z</time>
      </trkpt>
      <trkpt lat="44.93539" lon="1.01972">
        <ele>75.1</ele>
        <time>2022-08-17T11:21:08Z</time>
      </trkpt>
      <trkpt lat="44.93535" lon="1.01976">
        <ele>75.7</ele>
        <time>2022-08-17T11:21:10Z</time>
      </trkpt>
      <trkpt lat="44.93533" lon="1.0198">
        <ele>76.3</ele>
        <time>2022-08-17T11:21:12Z</time>
      </trkpt>
      <trkpt lat="44.93535" lon="1.01982">
        <ele>76.2</ele>
        <time>2022-08-17T11:21:14Z</time>
      </trkpt>
      <trkpt lat="44.93535" lon="1.01982">
        <ele>76.1</ele>
        <time>2022-08-17T11:21:16Z</time>
      </trkpt>
      <trkpt lat="44.93536" lon="1.01982">
        <ele>76.1</ele>
        <time>2022-08-17T11:21:18Z</time>
      </trkpt>
      <trkpt lat="44.93536" lon="1.01983">
        <ele>76.1</ele>
        <time>2022-08-17T11:21:20Z</time>
      </trkpt>
      <trkpt lat="44.93536" lon="1.01982">
        <ele>76.1</ele>
        <time>2022-08-17T11:21:22Z</time>
      </trkpt>
      <trkpt lat="44.93558" lon="1.01931">
        <ele>71.2</ele>
        <time>2022-08-17T11:28:22Z</time>
      </trkpt>
      <trkpt lat="44.93554" lon="1.0192">
        <ele>70.9</ele>
        <time>2022-08-17T11:28:24Z</time>
      </trkpt>
      <trkpt lat="44.9355" lon="1.01909">
        <ele>71</ele>
        <time>2022-08-17T11:28:26Z</time>
      </trkpt>
      <trkpt lat="44.93545" lon="1.01897">
        <ele>71.2</ele>
        <time>2022-08-17T11:28:28Z</time>
      </trkpt>
      <trkpt lat="44.9354" lon="1.01884">
        <ele>71.4</ele>
        <time>2022-08-17T11:28:30Z</time>
      </trkpt>
      <trkpt lat="44.93536" lon="1.01872">
        <ele>71.4</ele>
        <time>2022-08-17T11:28:32Z</time>
      </trkpt>
      <trkpt lat="44.93531" lon="1.01861">
        <ele>71.4</ele>
        <time>2022-08-17T11:28:34Z</time>
      </trkpt>
      <trkpt lat="44.93527" lon="1.0185">
        <ele>71.3</ele>
        <time>2022-08-17T11:28:36Z</time>
      </trkpt>
      <trkpt lat="44.93523" lon="1.0184">
        <ele>71.1</ele>
        <time>2022-08-17T11:28:38Z</time>
      </trkpt>
      <trkpt lat="44.93519" lon="1.01829">
        <ele>71</ele>
        <time>2022-08-17T11:28:40Z</time>
      </trkpt>
      <trkpt lat="44.93515" lon="1.01818">
        <ele>70.8</ele>
        <time>2022-08-17T11:28:42Z</time>
      </trkpt>
      <trkpt lat="44.9351" lon="1.01807">
        <ele>70.7</ele>
        <time>2022-08-17T11:28:44Z</time>
      </trkpt>
      <trkpt lat="44.93507" lon="1.01798">
        <ele>70.6</ele>
        <time>2022-08-17T11:28:46Z</time>
      </trkpt>
      <trkpt lat="44.93503" lon="1.01787">
        <ele>70.5</ele>
        <time>2022-08-17T11:28:48Z</time>
      </trkpt>
      <trkpt lat="44.93498" lon="1.01776">
        <ele>70.7</ele>
        <time>2022-08-17T11:28:50Z</time>
      </trkpt>
      <trkpt lat="44.93494" lon="1.01765">
        <ele>71.5</ele>
        <time>2022-08-17T11:28:52Z</time>
      </trkpt>
      <trkpt lat="44.9349" lon="1.01754">
        <ele>72.1</ele>
        <time>2022-08-17T11:28:54Z</time>
      </trkpt>
      <trkpt lat="44.93486" lon="1.01743">
        <ele>72.5</ele>
        <time>2022-08-17T11:28:56Z</time>
      </trkpt>
      <trkpt lat="44.93482" lon="1.01731">
        <ele>72.9</ele>
        <time>2022-08-17T11:28:58Z</time>
      </trkpt>
      <trkpt lat="44.93478" lon="1.01719">
        <ele>73.2</ele>
        <time>2022-08-17T11:29:00Z</time>
      </trkpt>
      <trkpt lat="44.93475" lon="1.01708">
        <ele>73.4</ele>
        <time>2022-08-17T11:29:02Z</time>
      </trkpt>
      <trkpt lat="44.93472" lon="1.01696">
        <ele>73.6</ele>
        <time>2022-08-17T11:29:04Z</time>
      </trkpt>
      <trkpt lat="44.9347" lon="1.01685">
        <ele>73.6</ele>
        <time>2022-08-17T11:29:06Z</time>
      </trkpt>
      <trkpt lat="44.93468" lon="1.01673">
        <ele>73.6</ele>
        <time>2022-08-17T11:29:08Z</time>
      </trkpt>
      <trkpt lat="44.93466" lon="1.01661">
        <ele>73.5</ele>
        <time>2022-08-17T11:29:10Z</time>
      </trkpt>
      <trkpt lat="44.93464" lon="1.01651">
        <ele>73.5</ele>
        <time>2022-08-17T11:29:12Z</time>
      </trkpt>
      <trkpt lat="44.93463" lon="1.0164">
        <ele>73.3</ele>
        <time>2022-08-17T11:29:14Z</time>
      </trkpt>
      <trkpt lat="44.93462" lon="1.01628">
        <ele>73.2</ele>
        <time>2022-08-17T11:29:16Z</time>
      </trkpt>
      <trkpt lat="44.93461" lon="1.01617">
        <ele>72.9</ele>
        <time>2022-08-17T11:29:18Z</time>
      </trkpt>
      <trkpt lat="44.9346" lon="1.01609">
        <ele>72.7</ele>
        <time>2022-08-17T11:29:20Z</time>
      </trkpt>
      <trkpt lat="44.9346" lon="1.01601">
        <ele>72.4</ele>
        <time>2022-08-17T11:29:22Z</time>
      </trkpt>
      <trkpt lat="44.93461" lon="1.01592">
        <ele>72</ele>
        <time>2022-08-17T11:29:24Z</time>
      </trkpt>
      <trkpt lat="44.93462" lon="1.01582">
        <ele>71.6</ele>
        <time>2022-08-17T11:29:26Z</time>
      </trkpt>
      <trkpt lat="44.93462" lon="1.01572">
        <ele>71.1</ele>
        <time>2022-08-17T11:29:28Z</time>
      </trkpt>
      <trkpt lat="44.93463" lon="1.01562">
        <ele>70.6</ele>
        <time>2022-08-17T11:29:30Z</time>
      </trkpt>
      <trkpt lat="44.93466" lon="1.01553">
        <ele>70</ele>
        <time>2022-08-17T11:29:32Z</time>
      </trkpt>
      <trkpt lat="44.93467" lon="1.01543">
        <ele>69.5</ele>
        <time>2022-08-17T11:29:34Z</time>
      </trkpt>
      <trkpt lat="44.93468" lon="1.01535">
        <ele>69.2</ele>
        <time>2022-08-17T11:29:36Z</time>
      </trkpt>
      <trkpt lat="44.9347" lon="1.01527">
        <ele>68.7</ele>
        <time>2022-08-17T11:29:38Z</time>
      </trkpt>
      <trkpt lat="44.93472" lon="1.01518">
        <ele>68.3</ele>
        <time>2022-08-17T11:29:40Z</time>
      </trkpt>
      <trkpt lat="44.93474" lon="1.01508">
        <ele>67.9</ele>
        <time>2022-08-17T11:29:42Z</time>
      </trkpt>
      <trkpt lat="44.93476" lon="1.01498">
        <ele>67.5</ele>
        <time>2022-08-17T11:29:44Z</time>
      </trkpt>
      <trkpt lat="44.93479" lon="1.01489">
        <ele>67.3</ele>
        <time>2022-08-17T11:29:46Z</time>
      </trkpt>
      <trkpt lat="44.93481" lon="1.01478">
        <ele>67</ele>
        <time>2022-08-17T11:29:48Z</time>
      </trkpt>
      <trkpt lat="44.93484" lon="1.01468">
        <ele>66.9</ele>
        <time>2022-08-17T11:29:50Z</time>
      </trkpt>
      <trkpt lat="44.93487" lon="1.01458">
        <ele>66.8</ele>
        <time>2022-08-17T11:29:52Z</time>
      </trkpt>
      <trkpt lat="44.93491" lon="1.01447">
        <ele>66.7</ele>
        <time>2022-08-17T11:29:54Z</time>
      </trkpt>
      <trkpt lat="44.93495" lon="1.01437">
        <ele>66.8</ele>
        <time>2022-08-17T11:29:56Z</time>
      </trkpt>
      <trkpt lat="44.935" lon="1.01427">
        <ele>67</ele>
        <time>2022-08-17T11:29:58Z</time>
      </trkpt>
      <trkpt lat="44.93505" lon="1.01418">
        <ele>67.4</ele>
        <time>2022-08-17T11:30:00Z</time>
      </trkpt>
      <trkpt lat="44.9351" lon="1.0141">
        <ele>67.6</ele>
        <time>2022-08-17T11:30:02Z</time>
      </trkpt>
      <trkpt lat="44.93516" lon="1.01401">
        <ele>67.7</ele>
        <time>2022-08-17T11:30:04Z</time>
      </trkpt>
      <trkpt lat="44.93522" lon="1.01392">
        <ele>67.9</ele>
        <time>2022-08-17T11:30:06Z</time>
      </trkpt>
      <trkpt lat="44.93528" lon="1.01385">
        <ele>68.1</ele>
        <time>2022-08-17T11:30:08Z</time>
      </trkpt>
      <trkpt lat="44.93535" lon="1.01379">
        <ele>68.4</ele>
        <time>2022-08-17T11:30:10Z</time>
      </trkpt>
      <trkpt lat="44.93542" lon="1.01372">
        <ele>68.7</ele>
        <time>2022-08-17T11:30:12Z</time>
      </trkpt>
      <trkpt lat="44.93549" lon="1.01366">
        <ele>68.9</ele>
        <time>2022-08-17T11:30:14Z</time>
      </trkpt>
      <trkpt lat="44.93556" lon="1.0136">
        <ele>69.2</ele>
        <time>2022-08-17T11:30:16Z</time>
      </trkpt>
      <trkpt lat="44.93562" lon="1.01354">
        <ele>69.4</ele>
        <time>2022-08-17T11:30:18Z</time>
      </trkpt>
      <trkpt lat="44.93569" lon="1.01349">
        <ele>69.7</ele>
        <time>2022-08-17T11:30:20Z</time>
      </trkpt>
      <trkpt lat="44.93576" lon="1.01343">
        <ele>69.9</ele>
        <time>2022-08-17T11:30:22Z</time>
      </trkpt>
      <trkpt lat="44.93582" lon="1.01337">
        <ele>70.1</ele>
        <time>2022-08-17T11:30:24Z</time>
      </trkpt>
      <trkpt lat="44.93589" lon="1.01332">
        <ele>71.4</ele>
        <time>2022-08-17T11:30:26Z</time>
      </trkpt>
      <trkpt lat="44.93594" lon="1.01327">
        <ele>72.4</ele>
        <time>2022-08-17T11:30:28Z</time>
      </trkpt>
      <trkpt lat="44.93599" lon="1.01323">
        <ele>73.1</ele>
        <time>2022-08-17T11:30:30Z</time>
      </trkpt>
      <trkpt lat="44.93603" lon="1.01318">
        <ele>73.7</ele>
        <time>2022-08-17T11:30:32Z</time>
      </trkpt>
      <trkpt lat="44.93607" lon="1.01315">
        <ele>74.3</ele>
        <time>2022-08-17T11:30:34Z</time>
      </trkpt>
      <trkpt lat="44.93612" lon="1.01311">
        <ele>74.9</ele>
        <time>2022-08-17T11:30:36Z</time>
      </trkpt>
      <trkpt lat="44.93616" lon="1.01308">
        <ele>75.6</ele>
        <time>2022-08-17T11:30:38Z</time>
      </trkpt>
      <trkpt lat="44.93621" lon="1.01306">
        <ele>76.3</ele>
        <time>2022-08-17T11:30:40Z</time>
      </trkpt>
      <trkpt lat="44.93624" lon="1.01304">
        <ele>76.8</ele>
        <time>2022-08-17T11:30:42Z</time>
      </trkpt>
      <trkpt lat="44.93625" lon="1.01304">
        <ele>76.9</ele>
        <time>2022-08-17T11:30:44Z</time>
      </trkpt>
      <trkpt lat="44.93625" lon="1.01304">
        <ele>76.9</ele>
        <time>2022-08-17T11:30:46Z</time>
      </trkpt>
      <trkpt lat="44.93625" lon="1.01304">
        <ele>76.9</ele>
        <time>2022-08-17T11:30:48Z</time>
      </trkpt>
      <trkpt lat="44.93625" lon="1.01304">
        <ele>76.9</ele>
        <time>2022-08-17T11:30:50Z</time>
      </trkpt>
      <trkpt lat="44.93616" lon="1.01288">
        <ele>72.4</ele>
        <time>2022-08-17T11:31:22Z</time>
      </trkpt>
      <trkpt lat="44.93615" lon="1.01285">
        <ele>71.6</ele>
        <time>2022-08-17T11:31:24Z</time>
      </trkpt>
      <trkpt lat="44.93613" lon="1.0128">
        <ele>70.6</ele>
        <time>2022-08-17T11:31:26Z</time>
      </trkpt>
      <trkpt lat="44.93614" lon="1.01271">
        <ele>69.3</ele>
        <time>2022-08-17T11:31:28Z</time>
      </trkpt>
      <trkpt lat="44.93615" lon="1.01265">
        <ele>68.4</ele>
        <time>2022-08-17T11:31:30Z</time>
      </trkpt>
      <trkpt lat="44.93612" lon="1.01264">
        <ele>67.8</ele>
        <time>2022-08-17T11:31:32Z</time>
      </trkpt>
      <trkpt lat="44.93608" lon="1.01255">
        <ele>66</ele>
        <time>2022-08-17T11:31:34Z</time>
      </trkpt>
      <trkpt lat="44.93606" lon="1.01251">
        <ele>65.1</ele>
        <time>2022-08-17T11:31:36Z</time>
      </trkpt>
      <trkpt lat="44.93601" lon="1.01253">
        <ele>64.7</ele>
        <time>2022-08-17T11:31:38Z</time>
      </trkpt>
      <trkpt lat="44.936" lon="1.0126">
        <ele>65.5</ele>
        <time>2022-08-17T11:31:40Z</time>
      </trkpt>
      <trkpt lat="44.93601" lon="1.01261">
        <ele>65.6</ele>
        <time>2022-08-17T11:31:42Z</time>
      </trkpt>
      <trkpt lat="44.936" lon="1.01262">
        <ele>65.8</ele>
        <time>2022-08-17T11:31:44Z</time>
      </trkpt>
      <trkpt lat="44.93601" lon="1.01263">
        <ele>65.9</ele>
        <time>2022-08-17T11:31:46Z</time>
      </trkpt>
      <trkpt lat="44.93601" lon="1.01263">
        <ele>66</ele>
        <time>2022-08-17T11:31:48Z</time>
      </trkpt>
      <trkpt lat="44.93597" lon="1.0125">
        <ele>63.7</ele>
        <time>2022-08-17T13:02:02Z</time>
      </trkpt>
      <trkpt lat="44.93596" lon="1.01251">
        <ele>63.8</ele>
        <time>2022-08-17T13:02:04Z</time>
      </trkpt>
      <trkpt lat="44.93589" lon="1.01219">
        <ele>62.5</ele>
        <time>2022-08-17T13:03:38Z</time>
      </trkpt>
      <trkpt lat="44.93591" lon="1.01215">
        <ele>62.6</ele>
        <time>2022-08-17T13:03:40Z</time>
      </trkpt>
      <trkpt lat="44.93594" lon="1.01212">
        <ele>62.8</ele>
        <time>2022-08-17T13:03:42Z</time>
      </trkpt>
      <trkpt lat="44.93596" lon="1.01208">
        <ele>62.9</ele>
        <time>2022-08-17T13:03:44Z</time>
      </trkpt>
      <trkpt lat="44.93598" lon="1.01203">
        <ele>63</ele>
        <time>2022-08-17T13:03:46Z</time>
      </trkpt>
      <trkpt lat="44.93602" lon="1.01198">
        <ele>63.1</ele>
        <time>2022-08-17T13:03:48Z</time>
      </trkpt>
      <trkpt lat="44.93604" lon="1.01194">
        <ele>63.1</ele>
        <time>2022-08-17T13:03:50Z</time>
      </trkpt>
      <trkpt lat="44.93607" lon="1.01191">
        <ele>63.1</ele>
        <time>2022-08-17T13:03:52Z</time>
      </trkpt>
      <trkpt lat="44.93609" lon="1.01185">
        <ele>63</ele>
        <time>2022-08-17T13:03:54Z</time>
      </trkpt>
      <trkpt lat="44.93611" lon="1.01179">
        <ele>62.8</ele>
        <time>2022-08-17T13:03:56Z</time>
      </trkpt>
      <trkpt lat="44.93615" lon="1.01174">
        <ele>62.7</ele>
        <time>2022-08-17T13:03:58Z</time>
      </trkpt>
      <trkpt lat="44.93618" lon="1.01168">
        <ele>62.5</ele>
        <time>2022-08-17T13:04:00Z</time>
      </trkpt>
      <trkpt lat="44.93621" lon="1.01162">
        <ele>62.4</ele>
        <time>2022-08-17T13:04:02Z</time>
      </trkpt>
      <trkpt lat="44.93625" lon="1.01157">
        <ele>62.4</ele>
        <time>2022-08-17T13:04:04Z</time>
      </trkpt>
      <trkpt lat="44.93628" lon="1.01152">
        <ele>62.3</ele>
        <time>2022-08-17T13:04:06Z</time>
      </trkpt>
      <trkpt lat="44.93632" lon="1.01147">
        <ele>62.3</ele>
        <time>2022-08-17T13:04:08Z</time>
      </trkpt>
      <trkpt lat="44.93636" lon="1.01144">
        <ele>62.3</ele>
        <time>2022-08-17T13:04:10Z</time>
      </trkpt>
      <trkpt lat="44.9364" lon="1.01141">
        <ele>62.3</ele>
        <time>2022-08-17T13:04:12Z</time>
      </trkpt>
      <trkpt lat="44.93645" lon="1.01138">
        <ele>62.2</ele>
        <time>2022-08-17T13:04:14Z</time>
      </trkpt>
      <trkpt lat="44.93649" lon="1.01134">
        <ele>62.2</ele>
        <time>2022-08-17T13:04:16Z</time>
      </trkpt>
      <trkpt lat="44.93653" lon="1.01132">
        <ele>62.1</ele>
        <time>2022-08-17T13:04:18Z</time>
      </trkpt>
      <trkpt lat="44.93655" lon="1.01128">
        <ele>62.1</ele>
        <time>2022-08-17T13:04:20Z</time>
      </trkpt>
      <trkpt lat="44.93658" lon="1.01125">
        <ele>62</ele>
        <time>2022-08-17T13:04:22Z</time>
      </trkpt>
      <trkpt lat="44.9366" lon="1.01123">
        <ele>62</ele>
        <time>2022-08-17T13:04:24Z</time>
      </trkpt>
      <trkpt lat="44.93662" lon="1.01121">
        <ele>61.9</ele>
        <time>2022-08-17T13:04:26Z</time>
      </trkpt>
      <trkpt lat="44.93663" lon="1.01121">
        <ele>61.9</ele>
        <time>2022-08-17T13:04:28Z</time>
      </trkpt>
      <trkpt lat="44.93665" lon="1.01119">
        <ele>61.9</ele>
        <time>2022-08-17T13:04:30Z</time>
      </trkpt>
      <trkpt lat="44.93667" lon="1.01116">
        <ele>61.8</ele>
        <time>2022-08-17T13:04:32Z</time>
      </trkpt>
      <trkpt lat="44.9367" lon="1.01113">
        <ele>61.8</ele>
        <time>2022-08-17T13:04:34Z</time>
      </trkpt>
      <trkpt lat="44.93675" lon="1.01108">
        <ele>61.8</ele>
        <time>2022-08-17T13:04:36Z</time>
      </trkpt>
      <trkpt lat="44.93681" lon="1.01104">
        <ele>61.7</ele>
        <time>2022-08-17T13:04:38Z</time>
      </trkpt>
      <trkpt lat="44.93686" lon="1.01101">
        <ele>61.7</ele>
        <time>2022-08-17T13:04:40Z</time>
      </trkpt>
      <trkpt lat="44.93691" lon="1.01098">
        <ele>61.6</ele>
        <time>2022-08-17T13:04:42Z</time>
      </trkpt>
      <trkpt lat="44.93696" lon="1.01096">
        <ele>61.6</ele>
        <time>2022-08-17T13:04:44Z</time>
      </trkpt>
      <trkpt lat="44.93701" lon="1.01095">
        <ele>61.6</ele>
        <time>2022-08-17T13:04:46Z</time>
      </trkpt>
      <trkpt lat="44.93705" lon="1.01092">
        <ele>61.5</ele>
        <time>2022-08-17T13:04:48Z</time>
      </trkpt>
      <trkpt lat="44.9371" lon="1.01092">
        <ele>61.5</ele>
        <time>2022-08-17T13:04:50Z</time>
      </trkpt>
      <trkpt lat="44.93714" lon="1.01091">
        <ele>61.4</ele>
        <time>2022-08-17T13:04:52Z</time>
      </trkpt>
      <trkpt lat="44.93717" lon="1.01089">
        <ele>61.3</ele>
        <time>2022-08-17T13:04:54Z</time>
      </trkpt>
      <trkpt lat="44.93721" lon="1.01087">
        <ele>61.2</ele>
        <time>2022-08-17T13:04:56Z</time>
      </trkpt>
      <trkpt lat="44.93726" lon="1.01083">
        <ele>61</ele>
        <time>2022-08-17T13:04:58Z</time>
      </trkpt>
      <trkpt lat="44.93729" lon="1.01076">
        <ele>61</ele>
        <time>2022-08-17T13:05:00Z</time>
      </trkpt>
      <trkpt lat="44.93734" lon="1.01071">
        <ele>61</ele>
        <time>2022-08-17T13:05:02Z</time>
      </trkpt>
      <trkpt lat="44.93738" lon="1.01065">
        <ele>61</ele>
        <time>2022-08-17T13:05:04Z</time>
      </trkpt>
      <trkpt lat="44.93741" lon="1.01062">
        <ele>61</ele>
        <time>2022-08-17T13:05:06Z</time>
      </trkpt>
      <trkpt lat="44.93745" lon="1.01061">
        <ele>61</ele>
        <time>2022-08-17T13:05:08Z</time>
      </trkpt>
      <trkpt lat="44.93748" lon="1.01057">
        <ele>61</ele>
        <time>2022-08-17T13:05:10Z</time>
      </trkpt>
      <trkpt lat="44.93753" lon="1.0105">
        <ele>61.1</ele>
        <time>2022-08-17T13:05:12Z</time>
      </trkpt>
      <trkpt lat="44.93758" lon="1.01045">
        <ele>61.4</ele>
        <time>2022-08-17T13:05:14Z</time>
      </trkpt>
      <trkpt lat="44.93763" lon="1.01043">
        <ele>61.6</ele>
        <time>2022-08-17T13:05:16Z</time>
      </trkpt>
      <trkpt lat="44.93767" lon="1.01037">
        <ele>61.7</ele>
        <time>2022-08-17T13:05:18Z</time>
      </trkpt>
      <trkpt lat="44.93771" lon="1.01031">
        <ele>61.8</ele>
        <time>2022-08-17T13:05:20Z</time>
      </trkpt>
      <trkpt lat="44.93774" lon="1.01027">
        <ele>61.9</ele>
        <time>2022-08-17T13:05:22Z</time>
      </trkpt>
      <trkpt lat="44.93778" lon="1.01022">
        <ele>61.9</ele>
        <time>2022-08-17T13:05:24Z</time>
      </trkpt>
      <trkpt lat="44.93781" lon="1.01018">
        <ele>61.9</ele>
        <time>2022-08-17T13:05:26Z</time>
      </trkpt>
      <trkpt lat="44.93785" lon="1.01012">
        <ele>61.8</ele>
        <time>2022-08-17T13:05:28Z</time>
      </trkpt>
      <trkpt lat="44.93789" lon="1.01008">
        <ele>61.7</ele>
        <time>2022-08-17T13:05:30Z</time>
      </trkpt>
      <trkpt lat="44.93793" lon="1.01005">
        <ele>61.7</ele>
        <time>2022-08-17T13:05:32Z</time>
      </trkpt>
      <trkpt lat="44.93797" lon="1.01006">
        <ele>61.8</ele>
        <time>2022-08-17T13:05:34Z</time>
      </trkpt>
      <trkpt lat="44.938" lon="1.01009">
        <ele>62</ele>
        <time>2022-08-17T13:05:36Z</time>
      </trkpt>
      <trkpt lat="44.938" lon="1.01011">
        <ele>62.1</ele>
        <time>2022-08-17T13:05:38Z</time>
      </trkpt>
      <trkpt lat="44.938" lon="1.01011">
        <ele>62.1</ele>
        <time>2022-08-17T13:05:40Z</time>
      </trkpt>
      <trkpt lat="44.938" lon="1.01011">
        <ele>62.1</ele>
        <time>2022-08-17T13:05:42Z</time>
      </trkpt>
      <trkpt lat="44.938" lon="1.01011">
        <ele>62.1</ele>
        <time>2022-08-17T13:05:44Z</time>
      </trkpt>
      <trkpt lat="44.93786" lon="1.01004">
        <ele>61.5</ele>
        <time>2022-08-17T13:11:32Z</time>
      </trkpt>
      <trkpt lat="44.93781" lon="1.0101">
        <ele>61.7</ele>
        <time>2022-08-17T13:11:34Z</time>
      </trkpt>
      <trkpt lat="44.93778" lon="1.01015">
        <ele>61.7</ele>
        <time>2022-08-17T13:11:36Z</time>
      </trkpt>
      <trkpt lat="44.93774" lon="1.0102">
        <ele>61.7</ele>
        <time>2022-08-17T13:11:38Z</time>
      </trkpt>
      <trkpt lat="44.9377" lon="1.01026">
        <ele>61.7</ele>
        <time>2022-08-17T13:11:40Z</time>
      </trkpt>
      <trkpt lat="44.93767" lon="1.0103">
        <ele>61.6</ele>
        <time>2022-08-17T13:11:42Z</time>
      </trkpt>
      <trkpt lat="44.93764" lon="1.01035">
        <ele>61.6</ele>
        <time>2022-08-17T13:11:44Z</time>
      </trkpt>
      <trkpt lat="44.93759" lon="1.01042">
        <ele>61.4</ele>
        <time>2022-08-17T13:11:46Z</time>
      </trkpt>
      <trkpt lat="44.93755" lon="1.01045">
        <ele>61.2</ele>
        <time>2022-08-17T13:11:48Z</time>
      </trkpt>
      <trkpt lat="44.9375" lon="1.01052">
        <ele>61</ele>
        <time>2022-08-17T13:11:50Z</time>
      </trkpt>
      <trkpt lat="44.93746" lon="1.0106">
        <ele>61</ele>
        <time>2022-08-17T13:11:52Z</time>
      </trkpt>
      <trkpt lat="44.9374" lon="1.01065">
        <ele>61</ele>
        <time>2022-08-17T13:11:54Z</time>
      </trkpt>
      <trkpt lat="44.93734" lon="1.01071">
        <ele>61</ele>
        <time>2022-08-17T13:11:56Z</time>
      </trkpt>
      <trkpt lat="44.93729" lon="1.01077">
        <ele>61</ele>
        <time>2022-08-17T13:11:58Z</time>
      </trkpt>
      <trkpt lat="44.93723" lon="1.01084">
        <ele>61</ele>
        <time>2022-08-17T13:12:00Z</time>
      </trkpt>
      <trkpt lat="44.93722" lon="1.01093">
        <ele>61.6</ele>
        <time>2022-08-17T13:12:02Z</time>
      </trkpt>
      <trkpt lat="44.93722" lon="1.01104">
        <ele>62.3</ele>
        <time>2022-08-17T13:12:04Z</time>
      </trkpt>
      <trkpt lat="44.93724" lon="1.01113">
        <ele>62.9</ele>
        <time>2022-08-17T13:12:06Z</time>
      </trkpt>
      <trkpt lat="44.93726" lon="1.01118">
        <ele>63.3</ele>
        <time>2022-08-17T13:12:08Z</time>
      </trkpt>
      <trkpt lat="44.93728" lon="1.01123">
        <ele>63.7</ele>
        <time>2022-08-17T13:12:10Z</time>
      </trkpt>
      <trkpt lat="44.9373" lon="1.0113">
        <ele>64.2</ele>
        <time>2022-08-17T13:12:12Z</time>
      </trkpt>
      <trkpt lat="44.93732" lon="1.01135">
        <ele>64.7</ele>
        <time>2022-08-17T13:12:14Z</time>
      </trkpt>
      <trkpt lat="44.93734" lon="1.01141">
        <ele>65.2</ele>
        <time>2022-08-17T13:12:16Z</time>
      </trkpt>
      <trkpt lat="44.93737" lon="1.01147">
        <ele>65.7</ele>
        <time>2022-08-17T13:12:18Z</time>
      </trkpt>
      <trkpt lat="44.93739" lon="1.01151">
        <ele>66.2</ele>
        <time>2022-08-17T13:12:20Z</time>
      </trkpt>
      <trkpt lat="44.93741" lon="1.01156">
        <ele>66.7</ele>
        <time>2022-08-17T13:12:22Z</time>
      </trkpt>
      <trkpt lat="44.93742" lon="1.01162">
        <ele>67.2</ele>
        <time>2022-08-17T13:12:24Z</time>
      </trkpt>
      <trkpt lat="44.93744" lon="1.01166">
        <ele>67.6</ele>
        <time>2022-08-17T13:12:26Z</time>
      </trkpt>
      <trkpt lat="44.93746" lon="1.01171">
        <ele>69.3</ele>
        <time>2022-08-17T13:12:28Z</time>
      </trkpt>
      <trkpt lat="44.93747" lon="1.01174">
        <ele>70.6</ele>
        <time>2022-08-17T13:12:30Z</time>
      </trkpt>
      <trkpt lat="44.93748" lon="1.01176">
        <ele>71.5</ele>
        <time>2022-08-17T13:12:32Z</time>
      </trkpt>
      <trkpt lat="44.93748" lon="1.01178">
        <ele>72</ele>
        <time>2022-08-17T13:12:34Z</time>
      </trkpt>
      <trkpt lat="44.93749" lon="1.0118">
        <ele>72.9</ele>
        <time>2022-08-17T13:12:36Z</time>
      </trkpt>
      <trkpt lat="44.93749" lon="1.0118">
        <ele>72.8</ele>
        <time>2022-08-17T13:12:38Z</time>
      </trkpt>
      <trkpt lat="44.93749" lon="1.0118">
        <ele>72.9</ele>
        <time>2022-08-17T13:12:40Z</time>
      </trkpt>
      <trkpt lat="44.93755" lon="1.01199">
        <ele>81.2</ele>
        <time>2022-08-17T13:13:16Z</time>
      </trkpt>
      <trkpt lat="44.93754" lon="1.01205">
        <ele>83.3</ele>
        <time>2022-08-17T13:13:18Z</time>
      </trkpt>
      <trkpt lat="44.93748" lon="1.01208">
        <ele>83.1</ele>
        <time>2022-08-17T13:13:20Z</time>
      </trkpt>
      <trkpt lat="44.93742" lon="1.01213">
        <ele>83.7</ele>
        <time>2022-08-17T13:13:22Z</time>
      </trkpt>
      <trkpt lat="44.93736" lon="1.01216">
        <ele>83.5</ele>
        <time>2022-08-17T13:13:24Z</time>
      </trkpt>
      <trkpt lat="44.93729" lon="1.0122">
        <ele>83.2</ele>
        <time>2022-08-17T13:13:26Z</time>
      </trkpt>
      <trkpt lat="44.93723" lon="1.01224">
        <ele>83.1</ele>
        <time>2022-08-17T13:13:28Z</time>
      </trkpt>
      <trkpt lat="44.93718" lon="1.01231">
        <ele>83.7</ele>
        <time>2022-08-17T13:13:30Z</time>
      </trkpt>
      <trkpt lat="44.93712" lon="1.01235">
        <ele>83.3</ele>
        <time>2022-08-17T13:13:32Z</time>
      </trkpt>
      <trkpt lat="44.93704" lon="1.01239">
        <ele>82.2</ele>
        <time>2022-08-17T13:13:34Z</time>
      </trkpt>
      <trkpt lat="44.93698" lon="1.01244">
        <ele>81.6</ele>
        <time>2022-08-17T13:13:36Z</time>
      </trkpt>
      <trkpt lat="44.93692" lon="1.01249">
        <ele>80.9</ele>
        <time>2022-08-17T13:13:38Z</time>
      </trkpt>
      <trkpt lat="44.93686" lon="1.01255">
        <ele>80.6</ele>
        <time>2022-08-17T13:13:40Z</time>
      </trkpt>
      <trkpt lat="44.9368" lon="1.0126">
        <ele>80</ele>
        <time>2022-08-17T13:13:42Z</time>
      </trkpt>
      <trkpt lat="44.93674" lon="1.01265">
        <ele>79.3</ele>
        <time>2022-08-17T13:13:44Z</time>
      </trkpt>
      <trkpt lat="44.93667" lon="1.0127">
        <ele>78.4</ele>
        <time>2022-08-17T13:13:46Z</time>
      </trkpt>
      <trkpt lat="44.93661" lon="1.01276">
        <ele>78.6</ele>
        <time>2022-08-17T13:13:48Z</time>
      </trkpt>
      <trkpt lat="44.93656" lon="1.01283">
        <ele>79.4</ele>
        <time>2022-08-17T13:13:50Z</time>
      </trkpt>
      <trkpt lat="44.93649" lon="1.01288">
        <ele>79</ele>
        <time>2022-08-17T13:13:52Z</time>
      </trkpt>
      <trkpt lat="44.93643" lon="1.01292">
        <ele>78.8</ele>
        <time>2022-08-17T13:13:54Z</time>
      </trkpt>
      <trkpt lat="44.93638" lon="1.01297">
        <ele>78.5</ele>
        <time>2022-08-17T13:13:56Z</time>
      </trkpt>
      <trkpt lat="44.93632" lon="1.01301">
        <ele>78</ele>
        <time>2022-08-17T13:13:58Z</time>
      </trkpt>
      <trkpt lat="44.93627" lon="1.01305">
        <ele>77.4</ele>
        <time>2022-08-17T13:14:00Z</time>
      </trkpt>
      <trkpt lat="44.93621" lon="1.01309">
        <ele>76.9</ele>
        <time>2022-08-17T13:14:02Z</time>
      </trkpt>
      <trkpt lat="44.93616" lon="1.01315">
        <ele>76.3</ele>
        <time>2022-08-17T13:14:04Z</time>
      </trkpt>
      <trkpt lat="44.9361" lon="1.0132">
        <ele>75.7</ele>
        <time>2022-08-17T13:14:06Z</time>
      </trkpt>
      <trkpt lat="44.93605" lon="1.01326">
        <ele>75</ele>
        <time>2022-08-17T13:14:08Z</time>
      </trkpt>
      <trkpt lat="44.93598" lon="1.01331">
        <ele>74.1</ele>
        <time>2022-08-17T13:14:10Z</time>
      </trkpt>
      <trkpt lat="44.93592" lon="1.01336">
        <ele>72.8</ele>
        <time>2022-08-17T13:14:12Z</time>
      </trkpt>
      <trkpt lat="44.93585" lon="1.01342">
        <ele>70.8</ele>
        <time>2022-08-17T13:14:14Z</time>
      </trkpt>
      <trkpt lat="44.93578" lon="1.01347">
        <ele>70.2</ele>
        <time>2022-08-17T13:14:16Z</time>
      </trkpt>
      <trkpt lat="44.93572" lon="1.0135">
        <ele>69.9</ele>
        <time>2022-08-17T13:14:18Z</time>
      </trkpt>
      <trkpt lat="44.9357" lon="1.01348">
        <ele>69.7</ele>
        <time>2022-08-17T13:14:20Z</time>
      </trkpt>
      <trkpt lat="44.93571" lon="1.01346">
        <ele>69.7</ele>
        <time>2022-08-17T13:14:22Z</time>
      </trkpt>
      <trkpt lat="44.93571" lon="1.01346">
        <ele>69.7</ele>
        <time>2022-08-17T13:14:24Z</time>
      </trkpt>
      <trkpt lat="44.9357" lon="1.01346">
        <ele>69.6</ele>
        <time>2022-08-17T13:14:26Z</time>
      </trkpt>
      <trkpt lat="44.9357" lon="1.01345">
        <ele>69.6</ele>
        <time>2022-08-17T13:14:28Z</time>
      </trkpt>
      <trkpt lat="44.93548" lon="1.01364">
        <ele>68.8</ele>
        <time>2022-08-17T13:14:46Z</time>
      </trkpt>
      <trkpt lat="44.93541" lon="1.0137">
        <ele>68.6</ele>
        <time>2022-08-17T13:14:48Z</time>
      </trkpt>
      <trkpt lat="44.93535" lon="1.01376">
        <ele>68.4</ele>
        <time>2022-08-17T13:14:50Z</time>
      </trkpt>
      <trkpt lat="44.93529" lon="1.01381">
        <ele>68.1</ele>
        <time>2022-08-17T13:14:52Z</time>
      </trkpt>
      <trkpt lat="44.93524" lon="1.01387">
        <ele>67.9</ele>
        <time>2022-08-17T13:14:54Z</time>
      </trkpt>
      <trkpt lat="44.93519" lon="1.01394">
        <ele>67.7</ele>
        <time>2022-08-17T13:14:56Z</time>
      </trkpt>
      <trkpt lat="44.93514" lon="1.014">
        <ele>67.6</ele>
        <time>2022-08-17T13:14:58Z</time>
      </trkpt>
      <trkpt lat="44.93509" lon="1.01409">
        <ele>67.4</ele>
        <time>2022-08-17T13:15:00Z</time>
      </trkpt>
      <trkpt lat="44.93505" lon="1.01416">
        <ele>67.4</ele>
        <time>2022-08-17T13:15:02Z</time>
      </trkpt>
      <trkpt lat="44.935" lon="1.01424">
        <ele>67</ele>
        <time>2022-08-17T13:15:04Z</time>
      </trkpt>
      <trkpt lat="44.93496" lon="1.01432">
        <ele>66.8</ele>
        <time>2022-08-17T13:15:06Z</time>
      </trkpt>
      <trkpt lat="44.93492" lon="1.01441">
        <ele>66.7</ele>
        <time>2022-08-17T13:15:08Z</time>
      </trkpt>
      <trkpt lat="44.93488" lon="1.01451">
        <ele>66.7</ele>
        <time>2022-08-17T13:15:10Z</time>
      </trkpt>
      <trkpt lat="44.93485" lon="1.01461">
        <ele>66.8</ele>
        <time>2022-08-17T13:15:12Z</time>
      </trkpt>
      <trkpt lat="44.93482" lon="1.01471">
        <ele>66.9</ele>
        <time>2022-08-17T13:15:14Z</time>
      </trkpt>
      <trkpt lat="44.9348" lon="1.0148">
        <ele>67.1</ele>
        <time>2022-08-17T13:15:16Z</time>
      </trkpt>
      <trkpt lat="44.93477" lon="1.01491">
        <ele>67.3</ele>
        <time>2022-08-17T13:15:18Z</time>
      </trkpt>
      <trkpt lat="44.93474" lon="1.015">
        <ele>67.6</ele>
        <time>2022-08-17T13:15:20Z</time>
      </trkpt>
      <trkpt lat="44.93472" lon="1.01511">
        <ele>68.1</ele>
        <time>2022-08-17T13:15:22Z</time>
      </trkpt>
      <trkpt lat="44.9347" lon="1.01521">
        <ele>68.5</ele>
        <time>2022-08-17T13:15:24Z</time>
      </trkpt>
      <trkpt lat="44.93468" lon="1.0153">
        <ele>69</ele>
        <time>2022-08-17T13:15:26Z</time>
      </trkpt>
      <trkpt lat="44.93467" lon="1.01538">
        <ele>69.3</ele>
        <time>2022-08-17T13:15:28Z</time>
      </trkpt>
      <trkpt lat="44.93467" lon="1.01545">
        <ele>69.6</ele>
        <time>2022-08-17T13:15:30Z</time>
      </trkpt>
      <trkpt lat="44.93468" lon="1.0155">
        <ele>69.8</ele>
        <time>2022-08-17T13:15:32Z</time>
      </trkpt>
      <trkpt lat="44.9347" lon="1.01556">
        <ele>69.9</ele>
        <time>2022-08-17T13:15:34Z</time>
      </trkpt>
      <trkpt lat="44.93469" lon="1.01556">
        <ele>69.9</ele>
        <time>2022-08-17T13:15:36Z</time>
      </trkpt>
      <trkpt lat="44.93469" lon="1.01557">
        <ele>70</ele>
        <time>2022-08-17T13:15:38Z</time>
      </trkpt>
      <trkpt lat="44.93469" lon="1.01558">
        <ele>70</ele>
        <time>2022-08-17T13:15:40Z</time>
      </trkpt>
      <trkpt lat="44.93469" lon="1.01558">
        <ele>70</ele>
        <time>2022-08-17T13:15:42Z</time>
      </trkpt>
      <trkpt lat="44.93465" lon="1.01557">
        <ele>70.2</ele>
        <time>2022-08-17T13:27:58Z</time>
      </trkpt>
      <trkpt lat="44.93466" lon="1.01558">
        <ele>70.2</ele>
        <time>2022-08-17T13:28:00Z</time>
      </trkpt>
      <trkpt lat="44.93456" lon="1.01576">
        <ele>71.9</ele>
        <time>2022-08-17T13:28:54Z</time>
      </trkpt>
      <trkpt lat="44.93451" lon="1.01584">
        <ele>72.7</ele>
        <time>2022-08-17T13:28:56Z</time>
      </trkpt>
      <trkpt lat="44.93448" lon="1.01594">
        <ele>73.5</ele>
        <time>2022-08-17T13:28:58Z</time>
      </trkpt>
      <trkpt lat="44.93451" lon="1.01604">
        <ele>73.6</ele>
        <time>2022-08-17T13:29:00Z</time>
      </trkpt>
      <trkpt lat="44.93454" lon="1.01615">
        <ele>73.7</ele>
        <time>2022-08-17T13:29:02Z</time>
      </trkpt>
      <trkpt lat="44.93457" lon="1.01624">
        <ele>73.7</ele>
        <time>2022-08-17T13:29:04Z</time>
      </trkpt>
      <trkpt lat="44.93458" lon="1.01635">
        <ele>73.8</ele>
        <time>2022-08-17T13:29:06Z</time>
      </trkpt>
      <trkpt lat="44.9346" lon="1.01645">
        <ele>73.9</ele>
        <time>2022-08-17T13:29:08Z</time>
      </trkpt>
      <trkpt lat="44.93463" lon="1.01656">
        <ele>73.9</ele>
        <time>2022-08-17T13:29:10Z</time>
      </trkpt>
      <trkpt lat="44.93465" lon="1.01666">
        <ele>73.9</ele>
        <time>2022-08-17T13:29:12Z</time>
      </trkpt>
      <trkpt lat="44.93466" lon="1.01676">
        <ele>74</ele>
        <time>2022-08-17T13:29:14Z</time>
      </trkpt>
      <trkpt lat="44.93468" lon="1.01687">
        <ele>74</ele>
        <time>2022-08-17T13:29:16Z</time>
      </trkpt>
      <trkpt lat="44.9347" lon="1.01697">
        <ele>74</ele>
        <time>2022-08-17T13:29:18Z</time>
      </trkpt>
      <trkpt lat="44.93471" lon="1.01707">
        <ele>74.1</ele>
        <time>2022-08-17T13:29:20Z</time>
      </trkpt>
      <trkpt lat="44.93474" lon="1.01717">
        <ele>73.9</ele>
        <time>2022-08-17T13:29:22Z</time>
      </trkpt>
      <trkpt lat="44.93476" lon="1.01727">
        <ele>73.8</ele>
        <time>2022-08-17T13:29:24Z</time>
      </trkpt>
      <trkpt lat="44.9348" lon="1.01736">
        <ele>73.5</ele>
        <time>2022-08-17T13:29:26Z</time>
      </trkpt>
      <trkpt lat="44.93482" lon="1.01746">
        <ele>73.3</ele>
        <time>2022-08-17T13:29:28Z</time>
      </trkpt>
      <trkpt lat="44.93486" lon="1.01755">
        <ele>72.8</ele>
        <time>2022-08-17T13:29:30Z</time>
      </trkpt>
      <trkpt lat="44.9349" lon="1.01765">
        <ele>72.4</ele>
        <time>2022-08-17T13:29:32Z</time>
      </trkpt>
      <trkpt lat="44.93494" lon="1.01774">
        <ele>71.7</ele>
        <time>2022-08-17T13:29:34Z</time>
      </trkpt>
      <trkpt lat="44.93498" lon="1.01783">
        <ele>70.9</ele>
        <time>2022-08-17T13:29:36Z</time>
      </trkpt>
      <trkpt lat="44.93501" lon="1.01792">
        <ele>70.5</ele>
        <time>2022-08-17T13:29:38Z</time>
      </trkpt>
      <trkpt lat="44.93504" lon="1.018">
        <ele>70.6</ele>
        <time>2022-08-17T13:29:40Z</time>
      </trkpt>
      <trkpt lat="44.93507" lon="1.01811">
        <ele>70.8</ele>
        <time>2022-08-17T13:29:42Z</time>
      </trkpt>
      <trkpt lat="44.93511" lon="1.01818">
        <ele>70.8</ele>
        <time>2022-08-17T13:29:44Z</time>
      </trkpt>
      <trkpt lat="44.93515" lon="1.01827">
        <ele>70.9</ele>
        <time>2022-08-17T13:29:46Z</time>
      </trkpt>
      <trkpt lat="44.93517" lon="1.01837">
        <ele>71.1</ele>
        <time>2022-08-17T13:29:48Z</time>
      </trkpt>
      <trkpt lat="44.93522" lon="1.01845">
        <ele>71.2</ele>
        <time>2022-08-17T13:29:50Z</time>
      </trkpt>
      <trkpt lat="44.93525" lon="1.01856">
        <ele>71.4</ele>
        <time>2022-08-17T13:29:52Z</time>
      </trkpt>
      <trkpt lat="44.93529" lon="1.01865">
        <ele>71.5</ele>
        <time>2022-08-17T13:29:54Z</time>
      </trkpt>
      <trkpt lat="44.93532" lon="1.01876">
        <ele>71.5</ele>
        <time>2022-08-17T13:29:56Z</time>
      </trkpt>
      <trkpt lat="44.93536" lon="1.01886">
        <ele>71.5</ele>
        <time>2022-08-17T13:29:58Z</time>
      </trkpt>
      <trkpt lat="44.9354" lon="1.01897">
        <ele>71.5</ele>
        <time>2022-08-17T13:30:00Z</time>
      </trkpt>
      <trkpt lat="44.93544" lon="1.01907">
        <ele>71.3</ele>
        <time>2022-08-17T13:30:02Z</time>
      </trkpt>
      <trkpt lat="44.93548" lon="1.01917">
        <ele>71.2</ele>
        <time>2022-08-17T13:30:04Z</time>
      </trkpt>
      <trkpt lat="44.93551" lon="1.01926">
        <ele>71.4</ele>
        <time>2022-08-17T13:30:06Z</time>
      </trkpt>
      <trkpt lat="44.93555" lon="1.01936">
        <ele>71.7</ele>
        <time>2022-08-17T13:30:08Z</time>
      </trkpt>
      <trkpt lat="44.93558" lon="1.01944">
        <ele>71.7</ele>
        <time>2022-08-17T13:30:10Z</time>
      </trkpt>
      <trkpt lat="44.93559" lon="1.01951">
        <ele>72</ele>
        <time>2022-08-17T13:30:12Z</time>
      </trkpt>
      <trkpt lat="44.93555" lon="1.01959">
        <ele>72.8</ele>
        <time>2022-08-17T13:30:14Z</time>
      </trkpt>
      <trkpt lat="44.93551" lon="1.01964">
        <ele>73.4</ele>
        <time>2022-08-17T13:30:16Z</time>
      </trkpt>
      <trkpt lat="44.93547" lon="1.01968">
        <ele>74</ele>
        <time>2022-08-17T13:30:18Z</time>
      </trkpt>
      <trkpt lat="44.93542" lon="1.01971">
        <ele>74.7</ele>
        <time>2022-08-17T13:30:20Z</time>
      </trkpt>
      <trkpt lat="44.93539" lon="1.01974">
        <ele>75.2</ele>
        <time>2022-08-17T13:30:22Z</time>
      </trkpt>
      <trkpt lat="44.93537" lon="1.01977">
        <ele>75.7</ele>
        <time>2022-08-17T13:30:24Z</time>
      </trkpt>
      <trkpt lat="44.93534" lon="1.01975">
        <ele>75.9</ele>
        <time>2022-08-17T13:30:26Z</time>
      </trkpt>
      <trkpt lat="44.93533" lon="1.01974">
        <ele>75.9</ele>
        <time>2022-08-17T13:30:28Z</time>
      </trkpt>
      <trkpt lat="44.93533" lon="1.01973">
        <ele>75.8</ele>
        <time>2022-08-17T13:30:30Z</time>
      </trkpt>
      <trkpt lat="44.93533" lon="1.01973">
        <ele>75.8</ele>
        <time>2022-08-17T13:30:32Z</time>
      </trkpt>
      <trkpt lat="44.93533" lon="1.01973">
        <ele>75.8</ele>
        <time>2022-08-17T13:30:34Z</time>
      </trkpt>
      <trkpt lat="44.93533" lon="1.01973">
        <ele>75.8</ele>
        <time>2022-08-17T13:30:36Z</time>
      </trkpt>
      <trkpt lat="44.93533" lon="1.0198">
        <ele>76.3</ele>
        <time>2022-08-17T13:43:34Z</time>
      </trkpt>
      <trkpt lat="44.93535" lon="1.01983">
        <ele>76.3</ele>
        <time>2022-08-17T13:43:36Z</time>
      </trkpt>
      <trkpt lat="44.93537" lon="1.01988">
        <ele>76.4</ele>
        <time>2022-08-17T13:43:38Z</time>
      </trkpt>
      <trkpt lat="44.93539" lon="1.01992">
        <ele>76.4</ele>
        <time>2022-08-17T13:43:40Z</time>
      </trkpt>
      <trkpt lat="44.93543" lon="1.01992">
        <ele>75.9</ele>
        <time>2022-08-17T13:43:42Z</time>
      </trkpt>
      <trkpt lat="44.93546" lon="1.0199">
        <ele>75.4</ele>
        <time>2022-08-17T13:43:44Z</time>
      </trkpt>
      <trkpt lat="44.93549" lon="1.01987">
        <ele>74.9</ele>
        <time>2022-08-17T13:43:46Z</time>
      </trkpt>
      <trkpt lat="44.93551" lon="1.01985">
        <ele>74.5</ele>
        <time>2022-08-17T13:43:48Z</time>
      </trkpt>
      <trkpt lat="44.93554" lon="1.01984">
        <ele>74</ele>
        <time>2022-08-17T13:43:50Z</time>
      </trkpt>
      <trkpt lat="44.93557" lon="1.01983">
        <ele>73.7</ele>
        <time>2022-08-17T13:43:52Z</time>
      </trkpt>
      <trkpt lat="44.93558" lon="1.01981">
        <ele>73.5</ele>
        <time>2022-08-17T13:43:54Z</time>
      </trkpt>
      <trkpt lat="44.93558" lon="1.0198">
        <ele>73.4</ele>
        <time>2022-08-17T13:43:56Z</time>
      </trkpt>
      <trkpt lat="44.93558" lon="1.0198">
        <ele>73.4</ele>
        <time>2022-08-17T13:43:58Z</time>
      </trkpt>
      <trkpt lat="44.93559" lon="1.0198">
        <ele>73.4</ele>
        <time>2022-08-17T13:44:00Z</time>
      </trkpt>
      <trkpt lat="44.93574" lon="1.01991">
        <ele>71.9</ele>
        <time>2022-08-17T13:44:16Z</time>
      </trkpt>
      <trkpt lat="44.93578" lon="1.02">
        <ele>71.8</ele>
        <time>2022-08-17T13:44:18Z</time>
      </trkpt>
      <trkpt lat="44.93581" lon="1.02009">
        <ele>71.4</ele>
        <time>2022-08-17T13:44:20Z</time>
      </trkpt>
      <trkpt lat="44.93584" lon="1.02019">
        <ele>71.3</ele>
        <time>2022-08-17T13:44:22Z</time>
      </trkpt>
      <trkpt lat="44.93588" lon="1.02028">
        <ele>71.7</ele>
        <time>2022-08-17T13:44:24Z</time>
      </trkpt>
      <trkpt lat="44.93591" lon="1.02039">
        <ele>72</ele>
        <time>2022-08-17T13:44:26Z</time>
      </trkpt>
      <trkpt lat="44.93595" lon="1.02048">
        <ele>72.2</ele>
        <time>2022-08-17T13:44:28Z</time>
      </trkpt>
      <trkpt lat="44.93598" lon="1.02058">
        <ele>72.3</ele>
        <time>2022-08-17T13:44:30Z</time>
      </trkpt>
      <trkpt lat="44.93601" lon="1.02068">
        <ele>72.5</ele>
        <time>2022-08-17T13:44:32Z</time>
      </trkpt>
      <trkpt lat="44.93602" lon="1.02079">
        <ele>72.5</ele>
        <time>2022-08-17T13:44:34Z</time>
      </trkpt>
      <trkpt lat="44.93603" lon="1.02089">
        <ele>72.5</ele>
        <time>2022-08-17T13:44:36Z</time>
      </trkpt>
      <trkpt lat="44.93604" lon="1.021">
        <ele>72.6</ele>
        <time>2022-08-17T13:44:38Z</time>
      </trkpt>
      <trkpt lat="44.93607" lon="1.02109">
        <ele>72.7</ele>
        <time>2022-08-17T13:44:40Z</time>
      </trkpt>
      <trkpt lat="44.93612" lon="1.02115">
        <ele>72.8</ele>
        <time>2022-08-17T13:44:42Z</time>
      </trkpt>
      <trkpt lat="44.9362" lon="1.02114">
        <ele>72.9</ele>
        <time>2022-08-17T13:44:44Z</time>
      </trkpt>
      <trkpt lat="44.93626" lon="1.0211">
        <ele>73</ele>
        <time>2022-08-17T13:44:46Z</time>
      </trkpt>
      <trkpt lat="44.93634" lon="1.02108">
        <ele>73.2</ele>
        <time>2022-08-17T13:44:48Z</time>
      </trkpt>
      <trkpt lat="44.93643" lon="1.02105">
        <ele>73.3</ele>
        <time>2022-08-17T13:44:50Z</time>
      </trkpt>
      <trkpt lat="44.93651" lon="1.02102">
        <ele>73.5</ele>
        <time>2022-08-17T13:44:52Z</time>
      </trkpt>
      <trkpt lat="44.93659" lon="1.02099">
        <ele>73.7</ele>
        <time>2022-08-17T13:44:54Z</time>
      </trkpt>
      <trkpt lat="44.93668" lon="1.02096">
        <ele>74.1</ele>
        <time>2022-08-17T13:44:56Z</time>
      </trkpt>
      <trkpt lat="44.93676" lon="1.02094">
        <ele>76.1</ele>
        <time>2022-08-17T13:44:58Z</time>
      </trkpt>
      <trkpt lat="44.93684" lon="1.02094">
        <ele>78.1</ele>
        <time>2022-08-17T13:45:00Z</time>
      </trkpt>
      <trkpt lat="44.93692" lon="1.02095">
        <ele>80</ele>
        <time>2022-08-17T13:45:02Z</time>
      </trkpt>
      <trkpt lat="44.93699" lon="1.02097">
        <ele>81.5</ele>
        <time>2022-08-17T13:45:04Z</time>
      </trkpt>
      <trkpt lat="44.93706" lon="1.021">
        <ele>82.9</ele>
        <time>2022-08-17T13:45:06Z</time>
      </trkpt>
      <trkpt lat="44.93711" lon="1.02103">
        <ele>84</ele>
        <time>2022-08-17T13:45:08Z</time>
      </trkpt>
      <trkpt lat="44.93717" lon="1.02108">
        <ele>84.9</ele>
        <time>2022-08-17T13:45:10Z</time>
      </trkpt>
      <trkpt lat="44.93722" lon="1.02114">
        <ele>85.6</ele>
        <time>2022-08-17T13:45:12Z</time>
      </trkpt>
      <trkpt lat="44.93725" lon="1.0212">
        <ele>85.9</ele>
        <time>2022-08-17T13:45:14Z</time>
      </trkpt>
      <trkpt lat="44.93729" lon="1.02126">
        <ele>86.1</ele>
        <time>2022-08-17T13:45:16Z</time>
      </trkpt>
      <trkpt lat="44.93732" lon="1.02133">
        <ele>86.1</ele>
        <time>2022-08-17T13:45:18Z</time>
      </trkpt>
      <trkpt lat="44.93734" lon="1.0214">
        <ele>85.9</ele>
        <time>2022-08-17T13:45:20Z</time>
      </trkpt>
      <trkpt lat="44.93736" lon="1.02148">
        <ele>85.5</ele>
        <time>2022-08-17T13:45:22Z</time>
      </trkpt>
      <trkpt lat="44.93738" lon="1.02155">
        <ele>85.1</ele>
        <time>2022-08-17T13:45:24Z</time>
      </trkpt>
      <trkpt lat="44.93739" lon="1.02161">
        <ele>84.8</ele>
        <time>2022-08-17T13:45:26Z</time>
      </trkpt>
      <trkpt lat="44.93741" lon="1.02167">
        <ele>84.5</ele>
        <time>2022-08-17T13:45:28Z</time>
      </trkpt>
      <trkpt lat="44.93742" lon="1.02175">
        <ele>84.2</ele>
        <time>2022-08-17T13:45:30Z</time>
      </trkpt>
      <trkpt lat="44.93744" lon="1.02182">
        <ele>83.9</ele>
        <time>2022-08-17T13:45:32Z</time>
      </trkpt>
      <trkpt lat="44.93745" lon="1.02188">
        <ele>83.6</ele>
        <time>2022-08-17T13:45:34Z</time>
      </trkpt>
      <trkpt lat="44.93747" lon="1.02194">
        <ele>83.3</ele>
        <time>2022-08-17T13:45:36Z</time>
      </trkpt>
      <trkpt lat="44.93748" lon="1.022">
        <ele>83</ele>
        <time>2022-08-17T13:45:38Z</time>
      </trkpt>
      <trkpt lat="44.93751" lon="1.02207">
        <ele>83</ele>
        <time>2022-08-17T13:45:40Z</time>
      </trkpt>
      <trkpt lat="44.93753" lon="1.02214">
        <ele>83.1</ele>
        <time>2022-08-17T13:45:42Z</time>
      </trkpt>
      <trkpt lat="44.93755" lon="1.0222">
        <ele>83.5</ele>
        <time>2022-08-17T13:45:44Z</time>
      </trkpt>
      <trkpt lat="44.93758" lon="1.02226">
        <ele>84.2</ele>
        <time>2022-08-17T13:45:46Z</time>
      </trkpt>
      <trkpt lat="44.93761" lon="1.02231">
        <ele>85.1</ele>
        <time>2022-08-17T13:45:48Z</time>
      </trkpt>
      <trkpt lat="44.93765" lon="1.02236">
        <ele>86.1</ele>
        <time>2022-08-17T13:45:50Z</time>
      </trkpt>
      <trkpt lat="44.93768" lon="1.02242">
        <ele>86.9</ele>
        <time>2022-08-17T13:45:52Z</time>
      </trkpt>
      <trkpt lat="44.93771" lon="1.02248">
        <ele>87.6</ele>
        <time>2022-08-17T13:45:54Z</time>
      </trkpt>
      <trkpt lat="44.93774" lon="1.02254">
        <ele>88.3</ele>
        <time>2022-08-17T13:45:56Z</time>
      </trkpt>
      <trkpt lat="44.93776" lon="1.02261">
        <ele>88.9</ele>
        <time>2022-08-17T13:45:58Z</time>
      </trkpt>
      <trkpt lat="44.93778" lon="1.02269">
        <ele>89.3</ele>
        <time>2022-08-17T13:46:00Z</time>
      </trkpt>
      <trkpt lat="44.93781" lon="1.02277">
        <ele>89.8</ele>
        <time>2022-08-17T13:46:02Z</time>
      </trkpt>
      <trkpt lat="44.93784" lon="1.02284">
        <ele>90.4</ele>
        <time>2022-08-17T13:46:04Z</time>
      </trkpt>
      <trkpt lat="44.93787" lon="1.02292">
        <ele>90.8</ele>
        <time>2022-08-17T13:46:06Z</time>
      </trkpt>
      <trkpt lat="44.93789" lon="1.02299">
        <ele>91.2</ele>
        <time>2022-08-17T13:46:08Z</time>
      </trkpt>
      <trkpt lat="44.93791" lon="1.02305">
        <ele>91.4</ele>
        <time>2022-08-17T13:46:10Z</time>
      </trkpt>
      <trkpt lat="44.93795" lon="1.02313">
        <ele>91.9</ele>
        <time>2022-08-17T13:46:12Z</time>
      </trkpt>
      <trkpt lat="44.93797" lon="1.0232">
        <ele>91.8</ele>
        <time>2022-08-17T13:46:14Z</time>
      </trkpt>
      <trkpt lat="44.938" lon="1.02328">
        <ele>92</ele>
        <time>2022-08-17T13:46:16Z</time>
      </trkpt>
      <trkpt lat="44.93802" lon="1.02336">
        <ele>92</ele>
        <time>2022-08-17T13:46:18Z</time>
      </trkpt>
      <trkpt lat="44.93804" lon="1.02343">
        <ele>92.1</ele>
        <time>2022-08-17T13:46:20Z</time>
      </trkpt>
      <trkpt lat="44.93807" lon="1.02351">
        <ele>92.2</ele>
        <time>2022-08-17T13:46:22Z</time>
      </trkpt>
      <trkpt lat="44.93809" lon="1.02359">
        <ele>92.1</ele>
        <time>2022-08-17T13:46:24Z</time>
      </trkpt>
      <trkpt lat="44.93812" lon="1.02368">
        <ele>92</ele>
        <time>2022-08-17T13:46:26Z</time>
      </trkpt>
      <trkpt lat="44.93815" lon="1.02376">
        <ele>91.9</ele>
        <time>2022-08-17T13:46:28Z</time>
      </trkpt>
      <trkpt lat="44.93818" lon="1.02384">
        <ele>91.7</ele>
        <time>2022-08-17T13:46:30Z</time>
      </trkpt>
      <trkpt lat="44.9382" lon="1.02392">
        <ele>91.3</ele>
        <time>2022-08-17T13:46:32Z</time>
      </trkpt>
      <trkpt lat="44.93822" lon="1.024">
        <ele>90.8</ele>
        <time>2022-08-17T13:46:34Z</time>
      </trkpt>
      <trkpt lat="44.93824" lon="1.02408">
        <ele>90.2</ele>
        <time>2022-08-17T13:46:36Z</time>
      </trkpt>
      <trkpt lat="44.93826" lon="1.02416">
        <ele>89.6</ele>
        <time>2022-08-17T13:46:38Z</time>
      </trkpt>
      <trkpt lat="44.93828" lon="1.02422">
        <ele>89.2</ele>
        <time>2022-08-17T13:46:40Z</time>
      </trkpt>
      <trkpt lat="44.93831" lon="1.0243">
        <ele>88.7</ele>
        <time>2022-08-17T13:46:42Z</time>
      </trkpt>
      <trkpt lat="44.93835" lon="1.02436">
        <ele>88.8</ele>
        <time>2022-08-17T13:46:44Z</time>
      </trkpt>
      <trkpt lat="44.93837" lon="1.02442">
        <ele>88.8</ele>
        <time>2022-08-17T13:46:46Z</time>
      </trkpt>
      <trkpt lat="44.9384" lon="1.02448">
        <ele>89.2</ele>
        <time>2022-08-17T13:46:48Z</time>
      </trkpt>
      <trkpt lat="44.93843" lon="1.02456">
        <ele>89.2</ele>
        <time>2022-08-17T13:46:50Z</time>
      </trkpt>
      <trkpt lat="44.93846" lon="1.02461">
        <ele>89.5</ele>
        <time>2022-08-17T13:46:52Z</time>
      </trkpt>
      <trkpt lat="44.9385" lon="1.02468">
        <ele>89.7</ele>
        <time>2022-08-17T13:46:54Z</time>
      </trkpt>
      <trkpt lat="44.93853" lon="1.02474">
        <ele>89.9</ele>
        <time>2022-08-17T13:46:56Z</time>
      </trkpt>
      <trkpt lat="44.93857" lon="1.02479">
        <ele>90.4</ele>
        <time>2022-08-17T13:46:58Z</time>
      </trkpt>
      <trkpt lat="44.93861" lon="1.02485">
        <ele>90.5</ele>
        <time>2022-08-17T13:47:00Z</time>
      </trkpt>
      <trkpt lat="44.93865" lon="1.02491">
        <ele>90.8</ele>
        <time>2022-08-17T13:47:02Z</time>
      </trkpt>
      <trkpt lat="44.9387" lon="1.02496">
        <ele>91.3</ele>
        <time>2022-08-17T13:47:04Z</time>
      </trkpt>
      <trkpt lat="44.93873" lon="1.02502">
        <ele>91.3</ele>
        <time>2022-08-17T13:47:06Z</time>
      </trkpt>
      <trkpt lat="44.93878" lon="1.02508">
        <ele>91.5</ele>
        <time>2022-08-17T13:47:08Z</time>
      </trkpt>
      <trkpt lat="44.93882" lon="1.02514">
        <ele>91.6</ele>
        <time>2022-08-17T13:47:10Z</time>
      </trkpt>
      <trkpt lat="44.93886" lon="1.0252">
        <ele>91.5</ele>
        <time>2022-08-17T13:47:12Z</time>
      </trkpt>
      <trkpt lat="44.93889" lon="1.02526">
        <ele>91.2</ele>
        <time>2022-08-17T13:47:14Z</time>
      </trkpt>
      <trkpt lat="44.93893" lon="1.02532">
        <ele>91</ele>
        <time>2022-08-17T13:47:16Z</time>
      </trkpt>
      <trkpt lat="44.93896" lon="1.02537">
        <ele>90.8</ele>
        <time>2022-08-17T13:47:18Z</time>
      </trkpt>
      <trkpt lat="44.939" lon="1.02542">
        <ele>90.7</ele>
        <time>2022-08-17T13:47:20Z</time>
      </trkpt>
      <trkpt lat="44.93904" lon="1.02546">
        <ele>90.5</ele>
        <time>2022-08-17T13:47:22Z</time>
      </trkpt>
      <trkpt lat="44.93908" lon="1.02551">
        <ele>90.4</ele>
        <time>2022-08-17T13:47:24Z</time>
      </trkpt>
      <trkpt lat="44.93912" lon="1.02556">
        <ele>90.2</ele>
        <time>2022-08-17T13:47:26Z</time>
      </trkpt>
      <trkpt lat="44.93916" lon="1.0256">
        <ele>90.1</ele>
        <time>2022-08-17T13:47:28Z</time>
      </trkpt>
      <trkpt lat="44.93921" lon="1.02564">
        <ele>90.3</ele>
        <time>2022-08-17T13:47:30Z</time>
      </trkpt>
      <trkpt lat="44.93925" lon="1.02567">
        <ele>90.5</ele>
        <time>2022-08-17T13:47:32Z</time>
      </trkpt>
      <trkpt lat="44.93929" lon="1.02571">
        <ele>90.7</ele>
        <time>2022-08-17T13:47:34Z</time>
      </trkpt>
      <trkpt lat="44.93934" lon="1.02574">
        <ele>91</ele>
        <time>2022-08-17T13:47:36Z</time>
      </trkpt>
      <trkpt lat="44.93937" lon="1.02576">
        <ele>91.3</ele>
        <time>2022-08-17T13:47:38Z</time>
      </trkpt>
      <trkpt lat="44.93941" lon="1.02578">
        <ele>91.7</ele>
        <time>2022-08-17T13:47:40Z</time>
      </trkpt>
      <trkpt lat="44.93945" lon="1.0258">
        <ele>92.1</ele>
        <time>2022-08-17T13:47:42Z</time>
      </trkpt>
      <trkpt lat="44.9395" lon="1.02582">
        <ele>92.5</ele>
        <time>2022-08-17T13:47:44Z</time>
      </trkpt>
      <trkpt lat="44.93954" lon="1.02585">
        <ele>93</ele>
        <time>2022-08-17T13:47:46Z</time>
      </trkpt>
      <trkpt lat="44.93959" lon="1.02587">
        <ele>93.4</ele>
        <time>2022-08-17T13:47:48Z</time>
      </trkpt>
      <trkpt lat="44.93963" lon="1.02589">
        <ele>94</ele>
        <time>2022-08-17T13:47:50Z</time>
      </trkpt>
      <trkpt lat="44.93968" lon="1.02591">
        <ele>94.5</ele>
        <time>2022-08-17T13:47:52Z</time>
      </trkpt>
      <trkpt lat="44.93972" lon="1.02593">
        <ele>94.9</ele>
        <time>2022-08-17T13:47:54Z</time>
      </trkpt>
      <trkpt lat="44.93977" lon="1.02595">
        <ele>95.4</ele>
        <time>2022-08-17T13:47:56Z</time>
      </trkpt>
      <trkpt lat="44.93981" lon="1.02597">
        <ele>95.8</ele>
        <time>2022-08-17T13:47:58Z</time>
      </trkpt>
      <trkpt lat="44.93986" lon="1.02599">
        <ele>96.1</ele>
        <time>2022-08-17T13:48:00Z</time>
      </trkpt>
      <trkpt lat="44.9399" lon="1.026">
        <ele>96.6</ele>
        <time>2022-08-17T13:48:02Z</time>
      </trkpt>
      <trkpt lat="44.93995" lon="1.02603">
        <ele>96.9</ele>
        <time>2022-08-17T13:48:04Z</time>
      </trkpt>
      <trkpt lat="44.93999" lon="1.02605">
        <ele>97.3</ele>
        <time>2022-08-17T13:48:06Z</time>
      </trkpt>
      <trkpt lat="44.94004" lon="1.02606">
        <ele>97.5</ele>
        <time>2022-08-17T13:48:08Z</time>
      </trkpt>
      <trkpt lat="44.94009" lon="1.02609">
        <ele>97.6</ele>
        <time>2022-08-17T13:48:10Z</time>
      </trkpt>
      <trkpt lat="44.94013" lon="1.02611">
        <ele>97.7</ele>
        <time>2022-08-17T13:48:12Z</time>
      </trkpt>
      <trkpt lat="44.94017" lon="1.02613">
        <ele>97.8</ele>
        <time>2022-08-17T13:48:14Z</time>
      </trkpt>
      <trkpt lat="44.94022" lon="1.02615">
        <ele>97.9</ele>
        <time>2022-08-17T13:48:16Z</time>
      </trkpt>
      <trkpt lat="44.94026" lon="1.02617">
        <ele>98.2</ele>
        <time>2022-08-17T13:48:18Z</time>
      </trkpt>
      <trkpt lat="44.94031" lon="1.02619">
        <ele>98.3</ele>
        <time>2022-08-17T13:48:20Z</time>
      </trkpt>
      <trkpt lat="44.94036" lon="1.02621">
        <ele>98.6</ele>
        <time>2022-08-17T13:48:22Z</time>
      </trkpt>
      <trkpt lat="44.9404" lon="1.02623">
        <ele>98.8</ele>
        <time>2022-08-17T13:48:24Z</time>
      </trkpt>
      <trkpt lat="44.94045" lon="1.02623">
        <ele>99.3</ele>
        <time>2022-08-17T13:48:26Z</time>
      </trkpt>
      <trkpt lat="44.94049" lon="1.02625">
        <ele>99.4</ele>
        <time>2022-08-17T13:48:28Z</time>
      </trkpt>
      <trkpt lat="44.94053" lon="1.02628">
        <ele>99.4</ele>
        <time>2022-08-17T13:48:30Z</time>
      </trkpt>
      <trkpt lat="44.94058" lon="1.02628">
        <ele>100</ele>
        <time>2022-08-17T13:48:32Z</time>
      </trkpt>
      <trkpt lat="44.94062" lon="1.02629">
        <ele>100.2</ele>
        <time>2022-08-17T13:48:34Z</time>
      </trkpt>
      <trkpt lat="44.94066" lon="1.0263">
        <ele>100.7</ele>
        <time>2022-08-17T13:48:36Z</time>
      </trkpt>
      <trkpt lat="44.9407" lon="1.0263">
        <ele>101.1</ele>
        <time>2022-08-17T13:48:38Z</time>
      </trkpt>
      <trkpt lat="44.94074" lon="1.0263">
        <ele>101.6</ele>
        <time>2022-08-17T13:48:40Z</time>
      </trkpt>
      <trkpt lat="44.94078" lon="1.02631">
        <ele>101.9</ele>
        <time>2022-08-17T13:48:42Z</time>
      </trkpt>
      <trkpt lat="44.94082" lon="1.02631">
        <ele>102.6</ele>
        <time>2022-08-17T13:48:44Z</time>
      </trkpt>
      <trkpt lat="44.94086" lon="1.0263">
        <ele>103.1</ele>
        <time>2022-08-17T13:48:46Z</time>
      </trkpt>
      <trkpt lat="44.9409" lon="1.02629">
        <ele>103.7</ele>
        <time>2022-08-17T13:48:48Z</time>
      </trkpt>
      <trkpt lat="44.94095" lon="1.02626">
        <ele>104.5</ele>
        <time>2022-08-17T13:48:50Z</time>
      </trkpt>
      <trkpt lat="44.94098" lon="1.02624">
        <ele>105.3</ele>
        <time>2022-08-17T13:48:52Z</time>
      </trkpt>
      <trkpt lat="44.94102" lon="1.0262">
        <ele>106.1</ele>
        <time>2022-08-17T13:48:54Z</time>
      </trkpt>
      <trkpt lat="44.94106" lon="1.02617">
        <ele>107</ele>
        <time>2022-08-17T13:48:56Z</time>
      </trkpt>
      <trkpt lat="44.94109" lon="1.02613">
        <ele>107.8</ele>
        <time>2022-08-17T13:48:58Z</time>
      </trkpt>
      <trkpt lat="44.94113" lon="1.02609">
        <ele>108.7</ele>
        <time>2022-08-17T13:49:00Z</time>
      </trkpt>
      <trkpt lat="44.94116" lon="1.02605">
        <ele>109.4</ele>
        <time>2022-08-17T13:49:02Z</time>
      </trkpt>
      <trkpt lat="44.9412" lon="1.02602">
        <ele>110.1</ele>
        <time>2022-08-17T13:49:04Z</time>
      </trkpt>
      <trkpt lat="44.94123" lon="1.02599">
        <ele>110.6</ele>
        <time>2022-08-17T13:49:06Z</time>
      </trkpt>
      <trkpt lat="44.94126" lon="1.02597">
        <ele>110.9</ele>
        <time>2022-08-17T13:49:08Z</time>
      </trkpt>
      <trkpt lat="44.9413" lon="1.02595">
        <ele>111.4</ele>
        <time>2022-08-17T13:49:10Z</time>
      </trkpt>
      <trkpt lat="44.94133" lon="1.02592">
        <ele>111.8</ele>
        <time>2022-08-17T13:49:12Z</time>
      </trkpt>
      <trkpt lat="44.94137" lon="1.02589">
        <ele>112.2</ele>
        <time>2022-08-17T13:49:14Z</time>
      </trkpt>
      <trkpt lat="44.9414" lon="1.02587">
        <ele>112.5</ele>
        <time>2022-08-17T13:49:16Z</time>
      </trkpt>
      <trkpt lat="44.94144" lon="1.02585">
        <ele>112.8</ele>
        <time>2022-08-17T13:49:18Z</time>
      </trkpt>
      <trkpt lat="44.94149" lon="1.02585">
        <ele>112.8</ele>
        <time>2022-08-17T13:49:20Z</time>
      </trkpt>
      <trkpt lat="44.94154" lon="1.02586">
        <ele>112.7</ele>
        <time>2022-08-17T13:49:22Z</time>
      </trkpt>
      <trkpt lat="44.94159" lon="1.02589">
        <ele>112.5</ele>
        <time>2022-08-17T13:49:24Z</time>
      </trkpt>
      <trkpt lat="44.94162" lon="1.02592">
        <ele>112.2</ele>
        <time>2022-08-17T13:49:26Z</time>
      </trkpt>
      <trkpt lat="44.94166" lon="1.02597">
        <ele>111.9</ele>
        <time>2022-08-17T13:49:28Z</time>
      </trkpt>
      <trkpt lat="44.94169" lon="1.02603">
        <ele>112</ele>
        <time>2022-08-17T13:49:30Z</time>
      </trkpt>
      <trkpt lat="44.94171" lon="1.02608">
        <ele>112.2</ele>
        <time>2022-08-17T13:49:32Z</time>
      </trkpt>
      <trkpt lat="44.94172" lon="1.02614">
        <ele>112.2</ele>
        <time>2022-08-17T13:49:34Z</time>
      </trkpt>
      <trkpt lat="44.94172" lon="1.02621">
        <ele>111.6</ele>
        <time>2022-08-17T13:49:36Z</time>
      </trkpt>
      <trkpt lat="44.94173" lon="1.02626">
        <ele>111.4</ele>
        <time>2022-08-17T13:49:38Z</time>
      </trkpt>
      <trkpt lat="44.94172" lon="1.02632">
        <ele>110.6</ele>
        <time>2022-08-17T13:49:40Z</time>
      </trkpt>
      <trkpt lat="44.94172" lon="1.02638">
        <ele>110</ele>
        <time>2022-08-17T13:49:42Z</time>
      </trkpt>
      <trkpt lat="44.9417" lon="1.02644">
        <ele>109.1</ele>
        <time>2022-08-17T13:49:44Z</time>
      </trkpt>
      <trkpt lat="44.94169" lon="1.02648">
        <ele>108.3</ele>
        <time>2022-08-17T13:49:46Z</time>
      </trkpt>
      <trkpt lat="44.94167" lon="1.02654">
        <ele>107.3</ele>
        <time>2022-08-17T13:49:48Z</time>
      </trkpt>
      <trkpt lat="44.94166" lon="1.02661">
        <ele>106.4</ele>
        <time>2022-08-17T13:49:50Z</time>
      </trkpt>
      <trkpt lat="44.94166" lon="1.02667">
        <ele>105.8</ele>
        <time>2022-08-17T13:49:52Z</time>
      </trkpt>
      <trkpt lat="44.94166" lon="1.02674">
        <ele>105</ele>
        <time>2022-08-17T13:49:54Z</time>
      </trkpt>
      <trkpt lat="44.94166" lon="1.0268">
        <ele>104.2</ele>
        <time>2022-08-17T13:49:56Z</time>
      </trkpt>
      <trkpt lat="44.94167" lon="1.02686">
        <ele>103.4</ele>
        <time>2022-08-17T13:49:58Z</time>
      </trkpt>
      <trkpt lat="44.94169" lon="1.02691">
        <ele>103.4</ele>
        <time>2022-08-17T13:50:00Z</time>
      </trkpt>
      <trkpt lat="44.94171" lon="1.02697">
        <ele>103.3</ele>
        <time>2022-08-17T13:50:02Z</time>
      </trkpt>
      <trkpt lat="44.94174" lon="1.02702">
        <ele>103.8</ele>
        <time>2022-08-17T13:50:04Z</time>
      </trkpt>
      <trkpt lat="44.94176" lon="1.02706">
        <ele>104</ele>
        <time>2022-08-17T13:50:06Z</time>
      </trkpt>
      <trkpt lat="44.94179" lon="1.0271">
        <ele>104.4</ele>
        <time>2022-08-17T13:50:08Z</time>
      </trkpt>
      <trkpt lat="44.94181" lon="1.02715">
        <ele>104.5</ele>
        <time>2022-08-17T13:50:10Z</time>
      </trkpt>
      <trkpt lat="44.94185" lon="1.02718">
        <ele>105.2</ele>
        <time>2022-08-17T13:50:12Z</time>
      </trkpt>
      <trkpt lat="44.94188" lon="1.02722">
        <ele>105.7</ele>
        <time>2022-08-17T13:50:14Z</time>
      </trkpt>
      <trkpt lat="44.94191" lon="1.02726">
        <ele>106.3</ele>
        <time>2022-08-17T13:50:16Z</time>
      </trkpt>
      <trkpt lat="44.94195" lon="1.02729">
        <ele>107</ele>
        <time>2022-08-17T13:50:18Z</time>
      </trkpt>
      <trkpt lat="44.94198" lon="1.02733">
        <ele>107.5</ele>
        <time>2022-08-17T13:50:20Z</time>
      </trkpt>
      <trkpt lat="44.94202" lon="1.02737">
        <ele>108.1</ele>
        <time>2022-08-17T13:50:22Z</time>
      </trkpt>
      <trkpt lat="44.94205" lon="1.02742">
        <ele>108.6</ele>
        <time>2022-08-17T13:50:24Z</time>
      </trkpt>
      <trkpt lat="44.94208" lon="1.02745">
        <ele>109.2</ele>
        <time>2022-08-17T13:50:26Z</time>
      </trkpt>
      <trkpt lat="44.94211" lon="1.02749">
        <ele>109.4</ele>
        <time>2022-08-17T13:50:28Z</time>
      </trkpt>
      <trkpt lat="44.94213" lon="1.02754">
        <ele>109.4</ele>
        <time>2022-08-17T13:50:30Z</time>
      </trkpt>
      <trkpt lat="44.94217" lon="1.02757">
        <ele>110</ele>
        <time>2022-08-17T13:50:32Z</time>
      </trkpt>
      <trkpt lat="44.94221" lon="1.0276">
        <ele>110.5</ele>
        <time>2022-08-17T13:50:34Z</time>
      </trkpt>
      <trkpt lat="44.94224" lon="1.02764">
        <ele>110.9</ele>
        <time>2022-08-17T13:50:36Z</time>
      </trkpt>
      <trkpt lat="44.94228" lon="1.02767">
        <ele>111.3</ele>
        <time>2022-08-17T13:50:38Z</time>
      </trkpt>
      <trkpt lat="44.94231" lon="1.0277">
        <ele>111.8</ele>
        <time>2022-08-17T13:50:40Z</time>
      </trkpt>
      <trkpt lat="44.94234" lon="1.02773">
        <ele>112</ele>
        <time>2022-08-17T13:50:42Z</time>
      </trkpt>
      <trkpt lat="44.94238" lon="1.02776">
        <ele>112.6</ele>
        <time>2022-08-17T13:50:44Z</time>
      </trkpt>
      <trkpt lat="44.94242" lon="1.02779">
        <ele>113.2</ele>
        <time>2022-08-17T13:50:46Z</time>
      </trkpt>
      <trkpt lat="44.94246" lon="1.02781">
        <ele>113.7</ele>
        <time>2022-08-17T13:50:48Z</time>
      </trkpt>
      <trkpt lat="44.9425" lon="1.02784">
        <ele>114.3</ele>
        <time>2022-08-17T13:50:50Z</time>
      </trkpt>
      <trkpt lat="44.94253" lon="1.02786">
        <ele>114.4</ele>
        <time>2022-08-17T13:50:52Z</time>
      </trkpt>
      <trkpt lat="44.94257" lon="1.02788">
        <ele>114.5</ele>
        <time>2022-08-17T13:50:54Z</time>
      </trkpt>
      <trkpt lat="44.94261" lon="1.02791">
        <ele>114.7</ele>
        <time>2022-08-17T13:50:56Z</time>
      </trkpt>
      <trkpt lat="44.94265" lon="1.02793">
        <ele>114.8</ele>
        <time>2022-08-17T13:50:58Z</time>
      </trkpt>
      <trkpt lat="44.94268" lon="1.02795">
        <ele>114.9</ele>
        <time>2022-08-17T13:51:00Z</time>
      </trkpt>
      <trkpt lat="44.94273" lon="1.02797">
        <ele>115.2</ele>
        <time>2022-08-17T13:51:02Z</time>
      </trkpt>
      <trkpt lat="44.94276" lon="1.028">
        <ele>115.1</ele>
        <time>2022-08-17T13:51:04Z</time>
      </trkpt>
      <trkpt lat="44.9428" lon="1.02803">
        <ele>115.3</ele>
        <time>2022-08-17T13:51:06Z</time>
      </trkpt>
      <trkpt lat="44.94284" lon="1.02805">
        <ele>115.3</ele>
        <time>2022-08-17T13:51:08Z</time>
      </trkpt>
      <trkpt lat="44.94288" lon="1.02808">
        <ele>115.3</ele>
        <time>2022-08-17T13:51:10Z</time>
      </trkpt>
      <trkpt lat="44.94292" lon="1.02811">
        <ele>115.5</ele>
        <time>2022-08-17T13:51:12Z</time>
      </trkpt>
      <trkpt lat="44.94296" lon="1.02813">
        <ele>115.9</ele>
        <time>2022-08-17T13:51:14Z</time>
      </trkpt>
      <trkpt lat="44.94301" lon="1.02815">
        <ele>116.1</ele>
        <time>2022-08-17T13:51:16Z</time>
      </trkpt>
      <trkpt lat="44.94304" lon="1.02817">
        <ele>116.2</ele>
        <time>2022-08-17T13:51:18Z</time>
      </trkpt>
      <trkpt lat="44.94309" lon="1.02819">
        <ele>116.7</ele>
        <time>2022-08-17T13:51:20Z</time>
      </trkpt>
      <trkpt lat="44.94313" lon="1.0282">
        <ele>117.1</ele>
        <time>2022-08-17T13:51:22Z</time>
      </trkpt>
      <trkpt lat="44.94317" lon="1.02822">
        <ele>117.5</ele>
        <time>2022-08-17T13:51:24Z</time>
      </trkpt>
      <trkpt lat="44.94321" lon="1.02823">
        <ele>118.2</ele>
        <time>2022-08-17T13:51:26Z</time>
      </trkpt>
      <trkpt lat="44.94326" lon="1.02823">
        <ele>118.8</ele>
        <time>2022-08-17T13:51:28Z</time>
      </trkpt>
      <trkpt lat="44.94331" lon="1.02824">
        <ele>119.6</ele>
        <time>2022-08-17T13:51:30Z</time>
      </trkpt>
      <trkpt lat="44.94335" lon="1.02824">
        <ele>120.2</ele>
        <time>2022-08-17T13:51:32Z</time>
      </trkpt>
      <trkpt lat="44.94339" lon="1.02822">
        <ele>120.5</ele>
        <time>2022-08-17T13:51:34Z</time>
      </trkpt>
      <trkpt lat="44.94343" lon="1.02821">
        <ele>120.9</ele>
        <time>2022-08-17T13:51:36Z</time>
      </trkpt>
      <trkpt lat="44.94347" lon="1.0282">
        <ele>121.3</ele>
        <time>2022-08-17T13:51:38Z</time>
      </trkpt>
      <trkpt lat="44.94351" lon="1.02818">
        <ele>121.9</ele>
        <time>2022-08-17T13:51:40Z</time>
      </trkpt>
      <trkpt lat="44.94355" lon="1.02816">
        <ele>122.4</ele>
        <time>2022-08-17T13:51:42Z</time>
      </trkpt>
      <trkpt lat="44.94359" lon="1.02814">
        <ele>122.9</ele>
        <time>2022-08-17T13:51:44Z</time>
      </trkpt>
      <trkpt lat="44.94363" lon="1.02812">
        <ele>123.6</ele>
        <time>2022-08-17T13:51:46Z</time>
      </trkpt>
      <trkpt lat="44.94367" lon="1.0281">
        <ele>124.1</ele>
        <time>2022-08-17T13:51:48Z</time>
      </trkpt>
      <trkpt lat="44.94371" lon="1.02809">
        <ele>124.6</ele>
        <time>2022-08-17T13:51:50Z</time>
      </trkpt>
      <trkpt lat="44.94375" lon="1.02806">
        <ele>125.3</ele>
        <time>2022-08-17T13:51:52Z</time>
      </trkpt>
      <trkpt lat="44.94379" lon="1.02802">
        <ele>126.2</ele>
        <time>2022-08-17T13:51:54Z</time>
      </trkpt>
      <trkpt lat="44.94384" lon="1.02799">
        <ele>127</ele>
        <time>2022-08-17T13:51:56Z</time>
      </trkpt>
      <trkpt lat="44.94388" lon="1.02795">
        <ele>128</ele>
        <time>2022-08-17T13:51:58Z</time>
      </trkpt>
      <trkpt lat="44.94393" lon="1.02792">
        <ele>128.8</ele>
        <time>2022-08-17T13:52:00Z</time>
      </trkpt>
      <trkpt lat="44.94397" lon="1.02788">
        <ele>129.6</ele>
        <time>2022-08-17T13:52:02Z</time>
      </trkpt>
      <trkpt lat="44.94401" lon="1.02784">
        <ele>130.5</ele>
        <time>2022-08-17T13:52:04Z</time>
      </trkpt>
      <trkpt lat="44.94405" lon="1.02779">
        <ele>131.7</ele>
        <time>2022-08-17T13:52:06Z</time>
      </trkpt>
      <trkpt lat="44.94409" lon="1.02775">
        <ele>132.7</ele>
        <time>2022-08-17T13:52:08Z</time>
      </trkpt>
      <trkpt lat="44.94413" lon="1.02769">
        <ele>134</ele>
        <time>2022-08-17T13:52:10Z</time>
      </trkpt>
      <trkpt lat="44.94416" lon="1.02764">
        <ele>135.2</ele>
        <time>2022-08-17T13:52:12Z</time>
      </trkpt>
      <trkpt lat="44.9442" lon="1.02759">
        <ele>136.4</ele>
        <time>2022-08-17T13:52:14Z</time>
      </trkpt>
      <trkpt lat="44.94423" lon="1.02753">
        <ele>137.8</ele>
        <time>2022-08-17T13:52:16Z</time>
      </trkpt>
      <trkpt lat="44.94426" lon="1.02749">
        <ele>138.7</ele>
        <time>2022-08-17T13:52:18Z</time>
      </trkpt>
      <trkpt lat="44.94429" lon="1.02745">
        <ele>139.4</ele>
        <time>2022-08-17T13:52:20Z</time>
      </trkpt>
      <trkpt lat="44.94431" lon="1.02743">
        <ele>140</ele>
        <time>2022-08-17T13:52:22Z</time>
      </trkpt>
      <trkpt lat="44.94433" lon="1.02738">
        <ele>140.9</ele>
        <time>2022-08-17T13:52:24Z</time>
      </trkpt>
      <trkpt lat="44.94435" lon="1.02733">
        <ele>141.9</ele>
        <time>2022-08-17T13:52:26Z</time>
      </trkpt>
      <trkpt lat="44.94439" lon="1.02729">
        <ele>142.7</ele>
        <time>2022-08-17T13:52:28Z</time>
      </trkpt>
      <trkpt lat="44.94442" lon="1.02726">
        <ele>143.2</ele>
        <time>2022-08-17T13:52:30Z</time>
      </trkpt>
      <trkpt lat="44.94447" lon="1.02725">
        <ele>143.6</ele>
        <time>2022-08-17T13:52:32Z</time>
      </trkpt>
      <trkpt lat="44.94452" lon="1.02725">
        <ele>143.7</ele>
        <time>2022-08-17T13:52:34Z</time>
      </trkpt>
      <trkpt lat="44.94457" lon="1.02727">
        <ele>143.6</ele>
        <time>2022-08-17T13:52:36Z</time>
      </trkpt>
      <trkpt lat="44.94462" lon="1.02729">
        <ele>143.5</ele>
        <time>2022-08-17T13:52:38Z</time>
      </trkpt>
      <trkpt lat="44.94467" lon="1.02733">
        <ele>143</ele>
        <time>2022-08-17T13:52:40Z</time>
      </trkpt>
      <trkpt lat="44.94471" lon="1.02737">
        <ele>142.5</ele>
        <time>2022-08-17T13:52:42Z</time>
      </trkpt>
      <trkpt lat="44.94474" lon="1.02743">
        <ele>141.8</ele>
        <time>2022-08-17T13:52:44Z</time>
      </trkpt>
      <trkpt lat="44.94478" lon="1.02749">
        <ele>141.1</ele>
        <time>2022-08-17T13:52:46Z</time>
      </trkpt>
      <trkpt lat="44.94481" lon="1.02756">
        <ele>140.5</ele>
        <time>2022-08-17T13:52:48Z</time>
      </trkpt>
      <trkpt lat="44.94483" lon="1.02763">
        <ele>140.2</ele>
        <time>2022-08-17T13:52:50Z</time>
      </trkpt>
      <trkpt lat="44.94486" lon="1.02769">
        <ele>139.9</ele>
        <time>2022-08-17T13:52:52Z</time>
      </trkpt>
      <trkpt lat="44.94488" lon="1.02775">
        <ele>139.6</ele>
        <time>2022-08-17T13:52:54Z</time>
      </trkpt>
      <trkpt lat="44.94489" lon="1.02782">
        <ele>139.3</ele>
        <time>2022-08-17T13:52:56Z</time>
      </trkpt>
      <trkpt lat="44.94491" lon="1.02789">
        <ele>139</ele>
        <time>2022-08-17T13:52:58Z</time>
      </trkpt>
      <trkpt lat="44.94493" lon="1.02796">
        <ele>138.9</ele>
        <time>2022-08-17T13:53:00Z</time>
      </trkpt>
      <trkpt lat="44.94495" lon="1.02803">
        <ele>138.7</ele>
        <time>2022-08-17T13:53:02Z</time>
      </trkpt>
      <trkpt lat="44.94495" lon="1.0281">
        <ele>138.2</ele>
        <time>2022-08-17T13:53:04Z</time>
      </trkpt>
      <trkpt lat="44.94495" lon="1.02817">
        <ele>137.9</ele>
        <time>2022-08-17T13:53:06Z</time>
      </trkpt>
      <trkpt lat="44.94497" lon="1.02823">
        <ele>138</ele>
        <time>2022-08-17T13:53:08Z</time>
      </trkpt>
      <trkpt lat="44.94499" lon="1.0283">
        <ele>138.1</ele>
        <time>2022-08-17T13:53:10Z</time>
      </trkpt>
      <trkpt lat="44.945" lon="1.02836">
        <ele>138</ele>
        <time>2022-08-17T13:53:12Z</time>
      </trkpt>
      <trkpt lat="44.94502" lon="1.02842">
        <ele>138.4</ele>
        <time>2022-08-17T13:53:14Z</time>
      </trkpt>
      <trkpt lat="44.94504" lon="1.02849">
        <ele>138.9</ele>
        <time>2022-08-17T13:53:16Z</time>
      </trkpt>
      <trkpt lat="44.94505" lon="1.02855">
        <ele>138.9</ele>
        <time>2022-08-17T13:53:18Z</time>
      </trkpt>
      <trkpt lat="44.94506" lon="1.02861">
        <ele>139.2</ele>
        <time>2022-08-17T13:53:20Z</time>
      </trkpt>
      <trkpt lat="44.94507" lon="1.02868">
        <ele>139.3</ele>
        <time>2022-08-17T13:53:22Z</time>
      </trkpt>
      <trkpt lat="44.94507" lon="1.02874">
        <ele>139.1</ele>
        <time>2022-08-17T13:53:24Z</time>
      </trkpt>
      <trkpt lat="44.94509" lon="1.0288">
        <ele>139.8</ele>
        <time>2022-08-17T13:53:26Z</time>
      </trkpt>
      <trkpt lat="44.94511" lon="1.02887">
        <ele>140.2</ele>
        <time>2022-08-17T13:53:28Z</time>
      </trkpt>
      <trkpt lat="44.94513" lon="1.02893">
        <ele>140.5</ele>
        <time>2022-08-17T13:53:30Z</time>
      </trkpt>
      <trkpt lat="44.94513" lon="1.02899">
        <ele>140.5</ele>
        <time>2022-08-17T13:53:32Z</time>
      </trkpt>
      <trkpt lat="44.94515" lon="1.02906">
        <ele>140.8</ele>
        <time>2022-08-17T13:53:34Z</time>
      </trkpt>
      <trkpt lat="44.94515" lon="1.02912">
        <ele>140.7</ele>
        <time>2022-08-17T13:53:36Z</time>
      </trkpt>
      <trkpt lat="44.94515" lon="1.02918">
        <ele>140.8</ele>
        <time>2022-08-17T13:53:38Z</time>
      </trkpt>
      <trkpt lat="44.94515" lon="1.02924">
        <ele>140.8</ele>
        <time>2022-08-17T13:53:40Z</time>
      </trkpt>
      <trkpt lat="44.94513" lon="1.02932">
        <ele>140.6</ele>
        <time>2022-08-17T13:53:42Z</time>
      </trkpt>
      <trkpt lat="44.94512" lon="1.02938">
        <ele>140.4</ele>
        <time>2022-08-17T13:53:44Z</time>
      </trkpt>
      <trkpt lat="44.94511" lon="1.02944">
        <ele>140.4</ele>
        <time>2022-08-17T13:53:46Z</time>
      </trkpt>
      <trkpt lat="44.94508" lon="1.0295">
        <ele>139.7</ele>
        <time>2022-08-17T13:53:48Z</time>
      </trkpt>
      <trkpt lat="44.94508" lon="1.02957">
        <ele>139.7</ele>
        <time>2022-08-17T13:53:50Z</time>
      </trkpt>
      <trkpt lat="44.94506" lon="1.02963">
        <ele>139.5</ele>
        <time>2022-08-17T13:53:52Z</time>
      </trkpt>
      <trkpt lat="44.94505" lon="1.02969">
        <ele>139.3</ele>
        <time>2022-08-17T13:53:54Z</time>
      </trkpt>
      <trkpt lat="44.94505" lon="1.02974">
        <ele>139.5</ele>
        <time>2022-08-17T13:53:56Z</time>
      </trkpt>
      <trkpt lat="44.94504" lon="1.0298">
        <ele>139.5</ele>
        <time>2022-08-17T13:53:58Z</time>
      </trkpt>
      <trkpt lat="44.94506" lon="1.02987">
        <ele>140.1</ele>
        <time>2022-08-17T13:54:00Z</time>
      </trkpt>
      <trkpt lat="44.94506" lon="1.02993">
        <ele>140.5</ele>
        <time>2022-08-17T13:54:02Z</time>
      </trkpt>
      <trkpt lat="44.94507" lon="1.03">
        <ele>141.1</ele>
        <time>2022-08-17T13:54:04Z</time>
      </trkpt>
      <trkpt lat="44.94507" lon="1.03006">
        <ele>140.8</ele>
        <time>2022-08-17T13:54:06Z</time>
      </trkpt>
      <trkpt lat="44.94509" lon="1.0301">
        <ele>141.2</ele>
        <time>2022-08-17T13:54:08Z</time>
      </trkpt>
      <trkpt lat="44.94511" lon="1.03017">
        <ele>141.5</ele>
        <time>2022-08-17T13:54:10Z</time>
      </trkpt>
      <trkpt lat="44.94513" lon="1.03023">
        <ele>141.8</ele>
        <time>2022-08-17T13:54:12Z</time>
      </trkpt>
      <trkpt lat="44.94515" lon="1.03029">
        <ele>142.2</ele>
        <time>2022-08-17T13:54:14Z</time>
      </trkpt>
      <trkpt lat="44.94517" lon="1.03034">
        <ele>142.3</ele>
        <time>2022-08-17T13:54:16Z</time>
      </trkpt>
      <trkpt lat="44.94518" lon="1.0304">
        <ele>142.4</ele>
        <time>2022-08-17T13:54:18Z</time>
      </trkpt>
      <trkpt lat="44.94521" lon="1.03047">
        <ele>142.8</ele>
        <time>2022-08-17T13:54:20Z</time>
      </trkpt>
      <trkpt lat="44.94523" lon="1.03053">
        <ele>143.1</ele>
        <time>2022-08-17T13:54:22Z</time>
      </trkpt>
      <trkpt lat="44.94525" lon="1.03058">
        <ele>143.4</ele>
        <time>2022-08-17T13:54:24Z</time>
      </trkpt>
      <trkpt lat="44.94529" lon="1.03063">
        <ele>143.9</ele>
        <time>2022-08-17T13:54:26Z</time>
      </trkpt>
      <trkpt lat="44.94532" lon="1.03067">
        <ele>144.4</ele>
        <time>2022-08-17T13:54:28Z</time>
      </trkpt>
      <trkpt lat="44.94535" lon="1.03072">
        <ele>144.8</ele>
        <time>2022-08-17T13:54:30Z</time>
      </trkpt>
      <trkpt lat="44.94539" lon="1.03077">
        <ele>145.4</ele>
        <time>2022-08-17T13:54:32Z</time>
      </trkpt>
      <trkpt lat="44.94543" lon="1.03081">
        <ele>146</ele>
        <time>2022-08-17T13:54:34Z</time>
      </trkpt>
      <trkpt lat="44.94547" lon="1.03087">
        <ele>146.2</ele>
        <time>2022-08-17T13:54:36Z</time>
      </trkpt>
      <trkpt lat="44.94552" lon="1.0309">
        <ele>146.7</ele>
        <time>2022-08-17T13:54:38Z</time>
      </trkpt>
      <trkpt lat="44.94555" lon="1.03095">
        <ele>146.9</ele>
        <time>2022-08-17T13:54:40Z</time>
      </trkpt>
      <trkpt lat="44.94559" lon="1.03099">
        <ele>147.1</ele>
        <time>2022-08-17T13:54:42Z</time>
      </trkpt>
      <trkpt lat="44.94562" lon="1.03104">
        <ele>147.2</ele>
        <time>2022-08-17T13:54:44Z</time>
      </trkpt>
      <trkpt lat="44.94567" lon="1.03109">
        <ele>147.5</ele>
        <time>2022-08-17T13:54:46Z</time>
      </trkpt>
      <trkpt lat="44.94572" lon="1.03114">
        <ele>148</ele>
        <time>2022-08-17T13:54:48Z</time>
      </trkpt>
      <trkpt lat="44.94577" lon="1.03118">
        <ele>148.6</ele>
        <time>2022-08-17T13:54:50Z</time>
      </trkpt>
      <trkpt lat="44.94582" lon="1.03123">
        <ele>148.9</ele>
        <time>2022-08-17T13:54:52Z</time>
      </trkpt>
      <trkpt lat="44.94587" lon="1.03127">
        <ele>149.4</ele>
        <time>2022-08-17T13:54:54Z</time>
      </trkpt>
      <trkpt lat="44.94592" lon="1.03132">
        <ele>149.7</ele>
        <time>2022-08-17T13:54:56Z</time>
      </trkpt>
      <trkpt lat="44.94595" lon="1.03138">
        <ele>149.7</ele>
        <time>2022-08-17T13:54:58Z</time>
      </trkpt>
      <trkpt lat="44.946" lon="1.03143">
        <ele>149.9</ele>
        <time>2022-08-17T13:55:00Z</time>
      </trkpt>
      <trkpt lat="44.94604" lon="1.03148">
        <ele>150.2</ele>
        <time>2022-08-17T13:55:02Z</time>
      </trkpt>
      <trkpt lat="44.94608" lon="1.03154">
        <ele>150.2</ele>
        <time>2022-08-17T13:55:04Z</time>
      </trkpt>
      <trkpt lat="44.94611" lon="1.03161">
        <ele>149.9</ele>
        <time>2022-08-17T13:55:06Z</time>
      </trkpt>
      <trkpt lat="44.94614" lon="1.03167">
        <ele>149.9</ele>
        <time>2022-08-17T13:55:08Z</time>
      </trkpt>
      <trkpt lat="44.94617" lon="1.03174">
        <ele>149.8</ele>
        <time>2022-08-17T13:55:10Z</time>
      </trkpt>
      <trkpt lat="44.94621" lon="1.0318">
        <ele>150</ele>
        <time>2022-08-17T13:55:12Z</time>
      </trkpt>
      <trkpt lat="44.94624" lon="1.03187">
        <ele>150</ele>
        <time>2022-08-17T13:55:14Z</time>
      </trkpt>
      <trkpt lat="44.94628" lon="1.03191">
        <ele>150.5</ele>
        <time>2022-08-17T13:55:16Z</time>
      </trkpt>
      <trkpt lat="44.94631" lon="1.03198">
        <ele>150.6</ele>
        <time>2022-08-17T13:55:18Z</time>
      </trkpt>
      <trkpt lat="44.94635" lon="1.03204">
        <ele>150.9</ele>
        <time>2022-08-17T13:55:20Z</time>
      </trkpt>
      <trkpt lat="44.94639" lon="1.03208">
        <ele>151.6</ele>
        <time>2022-08-17T13:55:22Z</time>
      </trkpt>
      <trkpt lat="44.94643" lon="1.03214">
        <ele>151.9</ele>
        <time>2022-08-17T13:55:24Z</time>
      </trkpt>
      <trkpt lat="44.94646" lon="1.0322">
        <ele>152.2</ele>
        <time>2022-08-17T13:55:26Z</time>
      </trkpt>
      <trkpt lat="44.94649" lon="1.03226">
        <ele>152.5</ele>
        <time>2022-08-17T13:55:28Z</time>
      </trkpt>
      <trkpt lat="44.94652" lon="1.03233">
        <ele>152.6</ele>
        <time>2022-08-17T13:55:30Z</time>
      </trkpt>
      <trkpt lat="44.94655" lon="1.03239">
        <ele>153</ele>
        <time>2022-08-17T13:55:32Z</time>
      </trkpt>
      <trkpt lat="44.94658" lon="1.03247">
        <ele>153.1</ele>
        <time>2022-08-17T13:55:34Z</time>
      </trkpt>
      <trkpt lat="44.94659" lon="1.03254">
        <ele>153.1</ele>
        <time>2022-08-17T13:55:36Z</time>
      </trkpt>
      <trkpt lat="44.94662" lon="1.0326">
        <ele>153.4</ele>
        <time>2022-08-17T13:55:38Z</time>
      </trkpt>
      <trkpt lat="44.94663" lon="1.03268">
        <ele>153.5</ele>
        <time>2022-08-17T13:55:40Z</time>
      </trkpt>
      <trkpt lat="44.94666" lon="1.03276">
        <ele>153.8</ele>
        <time>2022-08-17T13:55:42Z</time>
      </trkpt>
      <trkpt lat="44.94666" lon="1.03283">
        <ele>153.7</ele>
        <time>2022-08-17T13:55:44Z</time>
      </trkpt>
      <trkpt lat="44.94669" lon="1.03291">
        <ele>153.8</ele>
        <time>2022-08-17T13:55:46Z</time>
      </trkpt>
      <trkpt lat="44.94671" lon="1.03298">
        <ele>153.9</ele>
        <time>2022-08-17T13:55:48Z</time>
      </trkpt>
      <trkpt lat="44.94673" lon="1.03307">
        <ele>153.9</ele>
        <time>2022-08-17T13:55:50Z</time>
      </trkpt>
      <trkpt lat="44.94674" lon="1.03314">
        <ele>153.9</ele>
        <time>2022-08-17T13:55:52Z</time>
      </trkpt>
      <trkpt lat="44.94676" lon="1.03323">
        <ele>154</ele>
        <time>2022-08-17T13:55:54Z</time>
      </trkpt>
      <trkpt lat="44.94678" lon="1.0333">
        <ele>154</ele>
        <time>2022-08-17T13:55:56Z</time>
      </trkpt>
      <trkpt lat="44.9468" lon="1.03338">
        <ele>153.9</ele>
        <time>2022-08-17T13:55:58Z</time>
      </trkpt>
      <trkpt lat="44.94682" lon="1.03346">
        <ele>153.5</ele>
        <time>2022-08-17T13:56:00Z</time>
      </trkpt>
      <trkpt lat="44.94684" lon="1.03353">
        <ele>153.4</ele>
        <time>2022-08-17T13:56:02Z</time>
      </trkpt>
      <trkpt lat="44.94686" lon="1.03361">
        <ele>153</ele>
        <time>2022-08-17T13:56:04Z</time>
      </trkpt>
      <trkpt lat="44.94689" lon="1.03369">
        <ele>152.9</ele>
        <time>2022-08-17T13:56:06Z</time>
      </trkpt>
      <trkpt lat="44.94692" lon="1.03377">
        <ele>152.8</ele>
        <time>2022-08-17T13:56:08Z</time>
      </trkpt>
      <trkpt lat="44.94695" lon="1.03384">
        <ele>152.7</ele>
        <time>2022-08-17T13:56:10Z</time>
      </trkpt>
      <trkpt lat="44.94698" lon="1.03391">
        <ele>152.7</ele>
        <time>2022-08-17T13:56:12Z</time>
      </trkpt>
      <trkpt lat="44.94702" lon="1.03399">
        <ele>152.8</ele>
        <time>2022-08-17T13:56:14Z</time>
      </trkpt>
      <trkpt lat="44.94705" lon="1.03406">
        <ele>152.8</ele>
        <time>2022-08-17T13:56:16Z</time>
      </trkpt>
      <trkpt lat="44.94709" lon="1.03412">
        <ele>153</ele>
        <time>2022-08-17T13:56:18Z</time>
      </trkpt>
      <trkpt lat="44.94713" lon="1.03419">
        <ele>153.1</ele>
        <time>2022-08-17T13:56:20Z</time>
      </trkpt>
      <trkpt lat="44.94717" lon="1.03425">
        <ele>153.1</ele>
        <time>2022-08-17T13:56:22Z</time>
      </trkpt>
      <trkpt lat="44.9472" lon="1.03431">
        <ele>152.9</ele>
        <time>2022-08-17T13:56:24Z</time>
      </trkpt>
      <trkpt lat="44.94725" lon="1.03438">
        <ele>152.9</ele>
        <time>2022-08-17T13:56:26Z</time>
      </trkpt>
      <trkpt lat="44.94729" lon="1.03444">
        <ele>152.9</ele>
        <time>2022-08-17T13:56:28Z</time>
      </trkpt>
      <trkpt lat="44.94733" lon="1.0345">
        <ele>152.9</ele>
        <time>2022-08-17T13:56:30Z</time>
      </trkpt>
      <trkpt lat="44.94738" lon="1.03455">
        <ele>153</ele>
        <time>2022-08-17T13:56:32Z</time>
      </trkpt>
      <trkpt lat="44.94744" lon="1.03461">
        <ele>153.1</ele>
        <time>2022-08-17T13:56:34Z</time>
      </trkpt>
      <trkpt lat="44.94749" lon="1.03466">
        <ele>153.4</ele>
        <time>2022-08-17T13:56:36Z</time>
      </trkpt>
      <trkpt lat="44.94755" lon="1.03471">
        <ele>152.9</ele>
        <time>2022-08-17T13:56:38Z</time>
      </trkpt>
      <trkpt lat="44.94762" lon="1.03476">
        <ele>152.5</ele>
        <time>2022-08-17T13:56:40Z</time>
      </trkpt>
      <trkpt lat="44.94768" lon="1.0348">
        <ele>152.2</ele>
        <time>2022-08-17T13:56:42Z</time>
      </trkpt>
      <trkpt lat="44.94775" lon="1.03484">
        <ele>151.9</ele>
        <time>2022-08-17T13:56:44Z</time>
      </trkpt>
      <trkpt lat="44.94782" lon="1.03489">
        <ele>151.7</ele>
        <time>2022-08-17T13:56:46Z</time>
      </trkpt>
      <trkpt lat="44.9479" lon="1.03493">
        <ele>151.5</ele>
        <time>2022-08-17T13:56:48Z</time>
      </trkpt>
      <trkpt lat="44.94797" lon="1.03498">
        <ele>151.4</ele>
        <time>2022-08-17T13:56:50Z</time>
      </trkpt>
      <trkpt lat="44.94804" lon="1.03503">
        <ele>151.5</ele>
        <time>2022-08-17T13:56:52Z</time>
      </trkpt>
      <trkpt lat="44.94812" lon="1.03507">
        <ele>151.6</ele>
        <time>2022-08-17T13:56:54Z</time>
      </trkpt>
      <trkpt lat="44.9482" lon="1.03512">
        <ele>151.8</ele>
        <time>2022-08-17T13:56:56Z</time>
      </trkpt>
      <trkpt lat="44.94827" lon="1.03516">
        <ele>152.1</ele>
        <time>2022-08-17T13:56:58Z</time>
      </trkpt>
      <trkpt lat="44.94835" lon="1.03521">
        <ele>152.2</ele>
        <time>2022-08-17T13:57:00Z</time>
      </trkpt>
      <trkpt lat="44.94843" lon="1.03526">
        <ele>151.9</ele>
        <time>2022-08-17T13:57:02Z</time>
      </trkpt>
      <trkpt lat="44.9485" lon="1.03531">
        <ele>151.6</ele>
        <time>2022-08-17T13:57:04Z</time>
      </trkpt>
      <trkpt lat="44.94858" lon="1.03536">
        <ele>151.4</ele>
        <time>2022-08-17T13:57:06Z</time>
      </trkpt>
      <trkpt lat="44.94866" lon="1.03541">
        <ele>151.3</ele>
        <time>2022-08-17T13:57:08Z</time>
      </trkpt>
      <trkpt lat="44.94873" lon="1.03546">
        <ele>151.3</ele>
        <time>2022-08-17T13:57:10Z</time>
      </trkpt>
      <trkpt lat="44.9488" lon="1.03551">
        <ele>151.3</ele>
        <time>2022-08-17T13:57:12Z</time>
      </trkpt>
      <trkpt lat="44.94888" lon="1.03556">
        <ele>151.4</ele>
        <time>2022-08-17T13:57:14Z</time>
      </trkpt>
      <trkpt lat="44.94895" lon="1.03562">
        <ele>151.7</ele>
        <time>2022-08-17T13:57:16Z</time>
      </trkpt>
      <trkpt lat="44.94902" lon="1.03567">
        <ele>151.9</ele>
        <time>2022-08-17T13:57:18Z</time>
      </trkpt>
      <trkpt lat="44.94908" lon="1.03573">
        <ele>152.3</ele>
        <time>2022-08-17T13:57:20Z</time>
      </trkpt>
      <trkpt lat="44.94914" lon="1.03579">
        <ele>152.7</ele>
        <time>2022-08-17T13:57:22Z</time>
      </trkpt>
      <trkpt lat="44.94921" lon="1.03585">
        <ele>152.7</ele>
        <time>2022-08-17T13:57:24Z</time>
      </trkpt>
      <trkpt lat="44.94927" lon="1.03592">
        <ele>152.8</ele>
        <time>2022-08-17T13:57:26Z</time>
      </trkpt>
      <trkpt lat="44.94934" lon="1.03599">
        <ele>152.8</ele>
        <time>2022-08-17T13:57:28Z</time>
      </trkpt>
      <trkpt lat="44.9494" lon="1.03606">
        <ele>152.9</ele>
        <time>2022-08-17T13:57:30Z</time>
      </trkpt>
      <trkpt lat="44.94947" lon="1.03613">
        <ele>152.9</ele>
        <time>2022-08-17T13:57:32Z</time>
      </trkpt>
      <trkpt lat="44.94955" lon="1.0362">
        <ele>153</ele>
        <time>2022-08-17T13:57:34Z</time>
      </trkpt>
      <trkpt lat="44.94962" lon="1.03628">
        <ele>153.3</ele>
        <time>2022-08-17T13:57:36Z</time>
      </trkpt>
      <trkpt lat="44.94969" lon="1.03636">
        <ele>153.6</ele>
        <time>2022-08-17T13:57:38Z</time>
      </trkpt>
      <trkpt lat="44.94976" lon="1.03644">
        <ele>153.9</ele>
        <time>2022-08-17T13:57:40Z</time>
      </trkpt>
      <trkpt lat="44.94984" lon="1.03651">
        <ele>154.3</ele>
        <time>2022-08-17T13:57:42Z</time>
      </trkpt>
      <trkpt lat="44.94992" lon="1.0366">
        <ele>154.7</ele>
        <time>2022-08-17T13:57:44Z</time>
      </trkpt>
      <trkpt lat="44.95" lon="1.03669">
        <ele>155.3</ele>
        <time>2022-08-17T13:57:46Z</time>
      </trkpt>
      <trkpt lat="44.95008" lon="1.03678">
        <ele>155.2</ele>
        <time>2022-08-17T13:57:48Z</time>
      </trkpt>
      <trkpt lat="44.95017" lon="1.03687">
        <ele>155.2</ele>
        <time>2022-08-17T13:57:50Z</time>
      </trkpt>
      <trkpt lat="44.95024" lon="1.03697">
        <ele>155.4</ele>
        <time>2022-08-17T13:57:52Z</time>
      </trkpt>
      <trkpt lat="44.95033" lon="1.03705">
        <ele>155.4</ele>
        <time>2022-08-17T13:57:54Z</time>
      </trkpt>
      <trkpt lat="44.95042" lon="1.03714">
        <ele>155.7</ele>
        <time>2022-08-17T13:57:56Z</time>
      </trkpt>
      <trkpt lat="44.95051" lon="1.03723">
        <ele>155.9</ele>
        <time>2022-08-17T13:57:58Z</time>
      </trkpt>
      <trkpt lat="44.9506" lon="1.03733">
        <ele>156.5</ele>
        <time>2022-08-17T13:58:00Z</time>
      </trkpt>
      <trkpt lat="44.95069" lon="1.0374">
        <ele>156.6</ele>
        <time>2022-08-17T13:58:02Z</time>
      </trkpt>
      <trkpt lat="44.95079" lon="1.03748">
        <ele>157.1</ele>
        <time>2022-08-17T13:58:04Z</time>
      </trkpt>
      <trkpt lat="44.9509" lon="1.03755">
        <ele>157.2</ele>
        <time>2022-08-17T13:58:06Z</time>
      </trkpt>
      <trkpt lat="44.951" lon="1.03761">
        <ele>157.4</ele>
        <time>2022-08-17T13:58:08Z</time>
      </trkpt>
      <trkpt lat="44.95111" lon="1.03765">
        <ele>157.5</ele>
        <time>2022-08-17T13:58:10Z</time>
      </trkpt>
      <trkpt lat="44.95121" lon="1.03771">
        <ele>157.7</ele>
        <time>2022-08-17T13:58:12Z</time>
      </trkpt>
      <trkpt lat="44.95133" lon="1.03773">
        <ele>157.5</ele>
        <time>2022-08-17T13:58:14Z</time>
      </trkpt>
      <trkpt lat="44.95144" lon="1.03775">
        <ele>157.1</ele>
        <time>2022-08-17T13:58:16Z</time>
      </trkpt>
      <trkpt lat="44.95156" lon="1.03775">
        <ele>156.4</ele>
        <time>2022-08-17T13:58:18Z</time>
      </trkpt>
      <trkpt lat="44.95167" lon="1.03774">
        <ele>155.8</ele>
        <time>2022-08-17T13:58:20Z</time>
      </trkpt>
      <trkpt lat="44.95179" lon="1.03773">
        <ele>156</ele>
        <time>2022-08-17T13:58:22Z</time>
      </trkpt>
      <trkpt lat="44.95191" lon="1.03771">
        <ele>156.1</ele>
        <time>2022-08-17T13:58:24Z</time>
      </trkpt>
      <trkpt lat="44.95204" lon="1.03769">
        <ele>156.2</ele>
        <time>2022-08-17T13:58:26Z</time>
      </trkpt>
      <trkpt lat="44.95216" lon="1.03766">
        <ele>156.2</ele>
        <time>2022-08-17T13:58:28Z</time>
      </trkpt>
      <trkpt lat="44.95229" lon="1.03763">
        <ele>156.4</ele>
        <time>2022-08-17T13:58:30Z</time>
      </trkpt>
      <trkpt lat="44.95241" lon="1.03757">
        <ele>156.3</ele>
        <time>2022-08-17T13:58:32Z</time>
      </trkpt>
      <trkpt lat="44.95253" lon="1.03752">
        <ele>156.4</ele>
        <time>2022-08-17T13:58:34Z</time>
      </trkpt>
      <trkpt lat="44.95266" lon="1.03748">
        <ele>156.5</ele>
        <time>2022-08-17T13:58:36Z</time>
      </trkpt>
      <trkpt lat="44.95279" lon="1.03742">
        <ele>156</ele>
        <time>2022-08-17T13:58:38Z</time>
      </trkpt>
      <trkpt lat="44.95292" lon="1.03737">
        <ele>155.6</ele>
        <time>2022-08-17T13:58:40Z</time>
      </trkpt>
      <trkpt lat="44.95304" lon="1.03732">
        <ele>155</ele>
        <time>2022-08-17T13:58:42Z</time>
      </trkpt>
      <trkpt lat="44.95318" lon="1.03727">
        <ele>154.7</ele>
        <time>2022-08-17T13:58:44Z</time>
      </trkpt>
      <trkpt lat="44.95331" lon="1.03722">
        <ele>154.2</ele>
        <time>2022-08-17T13:58:46Z</time>
      </trkpt>
      <trkpt lat="44.95345" lon="1.03717">
        <ele>152.8</ele>
        <time>2022-08-17T13:58:48Z</time>
      </trkpt>
      <trkpt lat="44.9536" lon="1.03715">
        <ele>152</ele>
        <time>2022-08-17T13:58:50Z</time>
      </trkpt>
      <trkpt lat="44.95374" lon="1.03714">
        <ele>151.4</ele>
        <time>2022-08-17T13:58:52Z</time>
      </trkpt>
      <trkpt lat="44.95387" lon="1.03711">
        <ele>150.4</ele>
        <time>2022-08-17T13:58:54Z</time>
      </trkpt>
      <trkpt lat="44.95401" lon="1.03709">
        <ele>149.6</ele>
        <time>2022-08-17T13:58:56Z</time>
      </trkpt>
      <trkpt lat="44.95416" lon="1.03712">
        <ele>149.7</ele>
        <time>2022-08-17T13:58:58Z</time>
      </trkpt>
      <trkpt lat="44.95429" lon="1.03718">
        <ele>149.1</ele>
        <time>2022-08-17T13:59:00Z</time>
      </trkpt>
      <trkpt lat="44.95441" lon="1.03727">
        <ele>148.9</ele>
        <time>2022-08-17T13:59:02Z</time>
      </trkpt>
      <trkpt lat="44.9545" lon="1.03741">
        <ele>150</ele>
        <time>2022-08-17T13:59:04Z</time>
      </trkpt>
      <trkpt lat="44.95461" lon="1.03753">
        <ele>150.5</ele>
        <time>2022-08-17T13:59:06Z</time>
      </trkpt>
      <trkpt lat="44.95472" lon="1.03765">
        <ele>150.4</ele>
        <time>2022-08-17T13:59:08Z</time>
      </trkpt>
      <trkpt lat="44.95483" lon="1.03777">
        <ele>150.4</ele>
        <time>2022-08-17T13:59:10Z</time>
      </trkpt>
      <trkpt lat="44.95493" lon="1.03788">
        <ele>150.5</ele>
        <time>2022-08-17T13:59:12Z</time>
      </trkpt>
      <trkpt lat="44.95504" lon="1.03798">
        <ele>150.5</ele>
        <time>2022-08-17T13:59:14Z</time>
      </trkpt>
      <trkpt lat="44.95516" lon="1.03808">
        <ele>150.8</ele>
        <time>2022-08-17T13:59:16Z</time>
      </trkpt>
      <trkpt lat="44.95529" lon="1.03815">
        <ele>150.9</ele>
        <time>2022-08-17T13:59:18Z</time>
      </trkpt>
      <trkpt lat="44.95541" lon="1.03819">
        <ele>150.8</ele>
        <time>2022-08-17T13:59:20Z</time>
      </trkpt>
      <trkpt lat="44.95554" lon="1.03819">
        <ele>150</ele>
        <time>2022-08-17T13:59:22Z</time>
      </trkpt>
      <trkpt lat="44.95566" lon="1.03819">
        <ele>149.2</ele>
        <time>2022-08-17T13:59:24Z</time>
      </trkpt>
      <trkpt lat="44.95579" lon="1.03816">
        <ele>148</ele>
        <time>2022-08-17T13:59:26Z</time>
      </trkpt>
      <trkpt lat="44.95592" lon="1.03818">
        <ele>147.7</ele>
        <time>2022-08-17T13:59:28Z</time>
      </trkpt>
      <trkpt lat="44.95605" lon="1.03821">
        <ele>147.8</ele>
        <time>2022-08-17T13:59:30Z</time>
      </trkpt>
      <trkpt lat="44.95618" lon="1.03826">
        <ele>148.3</ele>
        <time>2022-08-17T13:59:32Z</time>
      </trkpt>
      <trkpt lat="44.9563" lon="1.03831">
        <ele>148.9</ele>
        <time>2022-08-17T13:59:34Z</time>
      </trkpt>
      <trkpt lat="44.95643" lon="1.03837">
        <ele>149.5</ele>
        <time>2022-08-17T13:59:36Z</time>
      </trkpt>
      <trkpt lat="44.95655" lon="1.03843">
        <ele>150.1</ele>
        <time>2022-08-17T13:59:38Z</time>
      </trkpt>
      <trkpt lat="44.95668" lon="1.03848">
        <ele>150.6</ele>
        <time>2022-08-17T13:59:40Z</time>
      </trkpt>
      <trkpt lat="44.95679" lon="1.03852">
        <ele>151.8</ele>
        <time>2022-08-17T13:59:42Z</time>
      </trkpt>
      <trkpt lat="44.95692" lon="1.0385">
        <ele>152.3</ele>
        <time>2022-08-17T13:59:44Z</time>
      </trkpt>
      <trkpt lat="44.95704" lon="1.03841">
        <ele>151.5</ele>
        <time>2022-08-17T13:59:46Z</time>
      </trkpt>
      <trkpt lat="44.95714" lon="1.03833">
        <ele>150.7</ele>
        <time>2022-08-17T13:59:48Z</time>
      </trkpt>
      <trkpt lat="44.9572" lon="1.03816">
        <ele>148.4</ele>
        <time>2022-08-17T13:59:50Z</time>
      </trkpt>
      <trkpt lat="44.95731" lon="1.03805">
        <ele>147.2</ele>
        <time>2022-08-17T13:59:52Z</time>
      </trkpt>
      <trkpt lat="44.95739" lon="1.03798">
        <ele>146.6</ele>
        <time>2022-08-17T13:59:54Z</time>
      </trkpt>
      <trkpt lat="44.95746" lon="1.03788">
        <ele>145.7</ele>
        <time>2022-08-17T13:59:56Z</time>
      </trkpt>
      <trkpt lat="44.95757" lon="1.03779">
        <ele>145.3</ele>
        <time>2022-08-17T13:59:58Z</time>
      </trkpt>
      <trkpt lat="44.95768" lon="1.03771">
        <ele>145.2</ele>
        <time>2022-08-17T14:00:00Z</time>
      </trkpt>
      <trkpt lat="44.95778" lon="1.03767">
        <ele>145.7</ele>
        <time>2022-08-17T14:00:02Z</time>
      </trkpt>
      <trkpt lat="44.95788" lon="1.03764">
        <ele>146.4</ele>
        <time>2022-08-17T14:00:04Z</time>
      </trkpt>
      <trkpt lat="44.95799" lon="1.0376">
        <ele>147.1</ele>
        <time>2022-08-17T14:00:06Z</time>
      </trkpt>
      <trkpt lat="44.95809" lon="1.03759">
        <ele>148.2</ele>
        <time>2022-08-17T14:00:08Z</time>
      </trkpt>
      <trkpt lat="44.9582" lon="1.03756">
        <ele>149.1</ele>
        <time>2022-08-17T14:00:10Z</time>
      </trkpt>
      <trkpt lat="44.9583" lon="1.03755">
        <ele>150.1</ele>
        <time>2022-08-17T14:00:12Z</time>
      </trkpt>
      <trkpt lat="44.9584" lon="1.03756">
        <ele>150.5</ele>
        <time>2022-08-17T14:00:14Z</time>
      </trkpt>
      <trkpt lat="44.9585" lon="1.03756">
        <ele>150.2</ele>
        <time>2022-08-17T14:00:16Z</time>
      </trkpt>
      <trkpt lat="44.95859" lon="1.03757">
        <ele>150.1</ele>
        <time>2022-08-17T14:00:18Z</time>
      </trkpt>
      <trkpt lat="44.9587" lon="1.03757">
        <ele>150</ele>
        <time>2022-08-17T14:00:20Z</time>
      </trkpt>
      <trkpt lat="44.95879" lon="1.0376">
        <ele>150.1</ele>
        <time>2022-08-17T14:00:22Z</time>
      </trkpt>
      <trkpt lat="44.95889" lon="1.03761">
        <ele>150.1</ele>
        <time>2022-08-17T14:00:24Z</time>
      </trkpt>
      <trkpt lat="44.959" lon="1.03762">
        <ele>149.9</ele>
        <time>2022-08-17T14:00:26Z</time>
      </trkpt>
      <trkpt lat="44.9591" lon="1.03763">
        <ele>149.9</ele>
        <time>2022-08-17T14:00:28Z</time>
      </trkpt>
      <trkpt lat="44.95921" lon="1.03763">
        <ele>149.6</ele>
        <time>2022-08-17T14:00:30Z</time>
      </trkpt>
      <trkpt lat="44.95931" lon="1.03764">
        <ele>149.4</ele>
        <time>2022-08-17T14:00:32Z</time>
      </trkpt>
      <trkpt lat="44.95942" lon="1.03763">
        <ele>149.1</ele>
        <time>2022-08-17T14:00:34Z</time>
      </trkpt>
      <trkpt lat="44.95953" lon="1.03762">
        <ele>148.8</ele>
        <time>2022-08-17T14:00:36Z</time>
      </trkpt>
      <trkpt lat="44.95964" lon="1.0376">
        <ele>148.4</ele>
        <time>2022-08-17T14:00:38Z</time>
      </trkpt>
      <trkpt lat="44.95975" lon="1.03759">
        <ele>148</ele>
        <time>2022-08-17T14:00:40Z</time>
      </trkpt>
      <trkpt lat="44.95986" lon="1.03758">
        <ele>147.7</ele>
        <time>2022-08-17T14:00:42Z</time>
      </trkpt>
      <trkpt lat="44.95997" lon="1.03758">
        <ele>147.5</ele>
        <time>2022-08-17T14:00:44Z</time>
      </trkpt>
      <trkpt lat="44.96009" lon="1.03761">
        <ele>145.8</ele>
        <time>2022-08-17T14:00:46Z</time>
      </trkpt>
      <trkpt lat="44.96019" lon="1.03773">
        <ele>143.6</ele>
        <time>2022-08-17T14:00:48Z</time>
      </trkpt>
      <trkpt lat="44.96024" lon="1.0379">
        <ele>142.3</ele>
        <time>2022-08-17T14:00:50Z</time>
      </trkpt>
      <trkpt lat="44.96025" lon="1.03809">
        <ele>141.9</ele>
        <time>2022-08-17T14:00:52Z</time>
      </trkpt>
      <trkpt lat="44.96023" lon="1.03826">
        <ele>142.5</ele>
        <time>2022-08-17T14:00:54Z</time>
      </trkpt>
      <trkpt lat="44.96022" lon="1.03844">
        <ele>142.9</ele>
        <time>2022-08-17T14:00:56Z</time>
      </trkpt>
      <trkpt lat="44.9602" lon="1.03862">
        <ele>144.2</ele>
        <time>2022-08-17T14:00:58Z</time>
      </trkpt>
      <trkpt lat="44.9602" lon="1.0388">
        <ele>144.2</ele>
        <time>2022-08-17T14:01:00Z</time>
      </trkpt>
      <trkpt lat="44.96018" lon="1.03897">
        <ele>145.6</ele>
        <time>2022-08-17T14:01:02Z</time>
      </trkpt>
      <trkpt lat="44.96018" lon="1.03916">
        <ele>145.8</ele>
        <time>2022-08-17T14:01:04Z</time>
      </trkpt>
      <trkpt lat="44.96016" lon="1.03934">
        <ele>146.9</ele>
        <time>2022-08-17T14:01:06Z</time>
      </trkpt>
      <trkpt lat="44.96015" lon="1.03952">
        <ele>147.7</ele>
        <time>2022-08-17T14:01:08Z</time>
      </trkpt>
      <trkpt lat="44.96013" lon="1.0397">
        <ele>148.8</ele>
        <time>2022-08-17T14:01:10Z</time>
      </trkpt>
      <trkpt lat="44.96014" lon="1.03988">
        <ele>148.4</ele>
        <time>2022-08-17T14:01:12Z</time>
      </trkpt>
      <trkpt lat="44.96017" lon="1.04006">
        <ele>146.3</ele>
        <time>2022-08-17T14:01:14Z</time>
      </trkpt>
      <trkpt lat="44.96022" lon="1.04024">
        <ele>143.7</ele>
        <time>2022-08-17T14:01:16Z</time>
      </trkpt>
      <trkpt lat="44.96029" lon="1.04042">
        <ele>140.4</ele>
        <time>2022-08-17T14:01:18Z</time>
      </trkpt>
      <trkpt lat="44.96035" lon="1.0406">
        <ele>137.8</ele>
        <time>2022-08-17T14:01:20Z</time>
      </trkpt>
      <trkpt lat="44.96042" lon="1.04079">
        <ele>135.3</ele>
        <time>2022-08-17T14:01:22Z</time>
      </trkpt>
      <trkpt lat="44.96044" lon="1.04101">
        <ele>134.1</ele>
        <time>2022-08-17T14:01:24Z</time>
      </trkpt>
      <trkpt lat="44.96039" lon="1.04122">
        <ele>135.6</ele>
        <time>2022-08-17T14:01:26Z</time>
      </trkpt>
      <trkpt lat="44.9603" lon="1.0414">
        <ele>138.6</ele>
        <time>2022-08-17T14:01:28Z</time>
      </trkpt>
      <trkpt lat="44.96025" lon="1.04161">
        <ele>140.4</ele>
        <time>2022-08-17T14:01:30Z</time>
      </trkpt>
      <trkpt lat="44.96016" lon="1.04181">
        <ele>142.2</ele>
        <time>2022-08-17T14:01:32Z</time>
      </trkpt>
      <trkpt lat="44.96008" lon="1.04199">
        <ele>143</ele>
        <time>2022-08-17T14:01:34Z</time>
      </trkpt>
      <trkpt lat="44.96001" lon="1.04221">
        <ele>142.7</ele>
        <time>2022-08-17T14:01:36Z</time>
      </trkpt>
      <trkpt lat="44.95998" lon="1.04243">
        <ele>140.5</ele>
        <time>2022-08-17T14:01:38Z</time>
      </trkpt>
      <trkpt lat="44.95993" lon="1.04267">
        <ele>140.1</ele>
        <time>2022-08-17T14:01:40Z</time>
      </trkpt>
      <trkpt lat="44.95984" lon="1.04286">
        <ele>141.9</ele>
        <time>2022-08-17T14:01:42Z</time>
      </trkpt>
      <trkpt lat="44.95973" lon="1.04305">
        <ele>144.1</ele>
        <time>2022-08-17T14:01:44Z</time>
      </trkpt>
      <trkpt lat="44.95966" lon="1.04322">
        <ele>145.7</ele>
        <time>2022-08-17T14:01:46Z</time>
      </trkpt>
      <trkpt lat="44.95964" lon="1.0434">
        <ele>146.7</ele>
        <time>2022-08-17T14:01:48Z</time>
      </trkpt>
      <trkpt lat="44.9597" lon="1.04356">
        <ele>146.8</ele>
        <time>2022-08-17T14:01:50Z</time>
      </trkpt>
      <trkpt lat="44.95981" lon="1.04366">
        <ele>145.4</ele>
        <time>2022-08-17T14:01:52Z</time>
      </trkpt>
      <trkpt lat="44.95996" lon="1.0437">
        <ele>142.6</ele>
        <time>2022-08-17T14:01:54Z</time>
      </trkpt>
      <trkpt lat="44.96011" lon="1.0437">
        <ele>140.8</ele>
        <time>2022-08-17T14:01:56Z</time>
      </trkpt>
      <trkpt lat="44.96028" lon="1.04367">
        <ele>139</ele>
        <time>2022-08-17T14:01:58Z</time>
      </trkpt>
      <trkpt lat="44.96044" lon="1.04359">
        <ele>136.4</ele>
        <time>2022-08-17T14:02:00Z</time>
      </trkpt>
      <trkpt lat="44.9606" lon="1.0435">
        <ele>133.2</ele>
        <time>2022-08-17T14:02:02Z</time>
      </trkpt>
      <trkpt lat="44.96078" lon="1.04341">
        <ele>130.1</ele>
        <time>2022-08-17T14:02:04Z</time>
      </trkpt>
      <trkpt lat="44.96094" lon="1.0433">
        <ele>126.5</ele>
        <time>2022-08-17T14:02:06Z</time>
      </trkpt>
      <trkpt lat="44.9611" lon="1.0432">
        <ele>123</ele>
        <time>2022-08-17T14:02:08Z</time>
      </trkpt>
      <trkpt lat="44.96127" lon="1.04311">
        <ele>119.6</ele>
        <time>2022-08-17T14:02:10Z</time>
      </trkpt>
      <trkpt lat="44.96141" lon="1.04307">
        <ele>117</ele>
        <time>2022-08-17T14:02:12Z</time>
      </trkpt>
      <trkpt lat="44.96157" lon="1.04314">
        <ele>116.3</ele>
        <time>2022-08-17T14:02:14Z</time>
      </trkpt>
      <trkpt lat="44.96166" lon="1.04333">
        <ele>119</ele>
        <time>2022-08-17T14:02:16Z</time>
      </trkpt>
      <trkpt lat="44.96172" lon="1.04353">
        <ele>121.4</ele>
        <time>2022-08-17T14:02:18Z</time>
      </trkpt>
      <trkpt lat="44.9618" lon="1.04372">
        <ele>122.9</ele>
        <time>2022-08-17T14:02:20Z</time>
      </trkpt>
      <trkpt lat="44.96193" lon="1.04386">
        <ele>122.1</ele>
        <time>2022-08-17T14:02:22Z</time>
      </trkpt>
      <trkpt lat="44.96208" lon="1.04396">
        <ele>119.7</ele>
        <time>2022-08-17T14:02:24Z</time>
      </trkpt>
      <trkpt lat="44.96225" lon="1.04406">
        <ele>117.1</ele>
        <time>2022-08-17T14:02:26Z</time>
      </trkpt>
      <trkpt lat="44.9624" lon="1.04422">
        <ele>115.7</ele>
        <time>2022-08-17T14:02:28Z</time>
      </trkpt>
      <trkpt lat="44.96255" lon="1.0444">
        <ele>113.7</ele>
        <time>2022-08-17T14:02:30Z</time>
      </trkpt>
      <trkpt lat="44.96269" lon="1.04457">
        <ele>111.4</ele>
        <time>2022-08-17T14:02:32Z</time>
      </trkpt>
      <trkpt lat="44.96281" lon="1.04474">
        <ele>109.7</ele>
        <time>2022-08-17T14:02:34Z</time>
      </trkpt>
      <trkpt lat="44.96289" lon="1.04494">
        <ele>110.2</ele>
        <time>2022-08-17T14:02:36Z</time>
      </trkpt>
      <trkpt lat="44.96286" lon="1.04515">
        <ele>112.2</ele>
        <time>2022-08-17T14:02:38Z</time>
      </trkpt>
      <trkpt lat="44.96278" lon="1.04532">
        <ele>114.8</ele>
        <time>2022-08-17T14:02:40Z</time>
      </trkpt>
      <trkpt lat="44.9627" lon="1.0455">
        <ele>117.1</ele>
        <time>2022-08-17T14:02:42Z</time>
      </trkpt>
      <trkpt lat="44.96262" lon="1.04569">
        <ele>119.3</ele>
        <time>2022-08-17T14:02:44Z</time>
      </trkpt>
      <trkpt lat="44.96254" lon="1.04587">
        <ele>121.1</ele>
        <time>2022-08-17T14:02:46Z</time>
      </trkpt>
      <trkpt lat="44.96252" lon="1.04606">
        <ele>123.2</ele>
        <time>2022-08-17T14:02:48Z</time>
      </trkpt>
      <trkpt lat="44.96258" lon="1.04625">
        <ele>123.4</ele>
        <time>2022-08-17T14:02:50Z</time>
      </trkpt>
      <trkpt lat="44.9627" lon="1.04634">
        <ele>122.1</ele>
        <time>2022-08-17T14:02:52Z</time>
      </trkpt>
      <trkpt lat="44.96287" lon="1.04634">
        <ele>119</ele>
        <time>2022-08-17T14:02:54Z</time>
      </trkpt>
      <trkpt lat="44.96303" lon="1.04626">
        <ele>115</ele>
        <time>2022-08-17T14:02:56Z</time>
      </trkpt>
      <trkpt lat="44.96318" lon="1.04617">
        <ele>110.7</ele>
        <time>2022-08-17T14:02:58Z</time>
      </trkpt>
      <trkpt lat="44.96332" lon="1.04604">
        <ele>105.3</ele>
        <time>2022-08-17T14:03:00Z</time>
      </trkpt>
      <trkpt lat="44.96346" lon="1.04592">
        <ele>103.1</ele>
        <time>2022-08-17T14:03:02Z</time>
      </trkpt>
      <trkpt lat="44.96363" lon="1.04585">
        <ele>102</ele>
        <time>2022-08-17T14:03:04Z</time>
      </trkpt>
      <trkpt lat="44.9638" lon="1.04582">
        <ele>101.8</ele>
        <time>2022-08-17T14:03:06Z</time>
      </trkpt>
      <trkpt lat="44.96396" lon="1.04573">
        <ele>100.5</ele>
        <time>2022-08-17T14:03:08Z</time>
      </trkpt>
      <trkpt lat="44.96411" lon="1.04561">
        <ele>98</ele>
        <time>2022-08-17T14:03:10Z</time>
      </trkpt>
      <trkpt lat="44.96428" lon="1.04551">
        <ele>95.9</ele>
        <time>2022-08-17T14:03:12Z</time>
      </trkpt>
      <trkpt lat="44.96446" lon="1.04547">
        <ele>95.4</ele>
        <time>2022-08-17T14:03:14Z</time>
      </trkpt>
      <trkpt lat="44.96463" lon="1.04545">
        <ele>95.3</ele>
        <time>2022-08-17T14:03:16Z</time>
      </trkpt>
      <trkpt lat="44.96481" lon="1.04542">
        <ele>95.2</ele>
        <time>2022-08-17T14:03:18Z</time>
      </trkpt>
      <trkpt lat="44.96498" lon="1.04542">
        <ele>95.4</ele>
        <time>2022-08-17T14:03:20Z</time>
      </trkpt>
      <trkpt lat="44.96514" lon="1.0454">
        <ele>94.2</ele>
        <time>2022-08-17T14:03:22Z</time>
      </trkpt>
      <trkpt lat="44.96531" lon="1.04539">
        <ele>92.9</ele>
        <time>2022-08-17T14:03:24Z</time>
      </trkpt>
      <trkpt lat="44.96547" lon="1.04537">
        <ele>91.5</ele>
        <time>2022-08-17T14:03:26Z</time>
      </trkpt>
      <trkpt lat="44.96563" lon="1.04536">
        <ele>90.2</ele>
        <time>2022-08-17T14:03:28Z</time>
      </trkpt>
      <trkpt lat="44.9658" lon="1.04536">
        <ele>89.2</ele>
        <time>2022-08-17T14:03:30Z</time>
      </trkpt>
      <trkpt lat="44.96596" lon="1.04537">
        <ele>88.8</ele>
        <time>2022-08-17T14:03:32Z</time>
      </trkpt>
      <trkpt lat="44.96613" lon="1.04538">
        <ele>88.5</ele>
        <time>2022-08-17T14:03:34Z</time>
      </trkpt>
      <trkpt lat="44.96629" lon="1.0454">
        <ele>88.3</ele>
        <time>2022-08-17T14:03:36Z</time>
      </trkpt>
      <trkpt lat="44.96647" lon="1.04542">
        <ele>88.2</ele>
        <time>2022-08-17T14:03:38Z</time>
      </trkpt>
      <trkpt lat="44.96664" lon="1.04545">
        <ele>88.1</ele>
        <time>2022-08-17T14:03:40Z</time>
      </trkpt>
      <trkpt lat="44.96682" lon="1.04548">
        <ele>87.8</ele>
        <time>2022-08-17T14:03:42Z</time>
      </trkpt>
      <trkpt lat="44.967" lon="1.04551">
        <ele>87.4</ele>
        <time>2022-08-17T14:03:44Z</time>
      </trkpt>
      <trkpt lat="44.96717" lon="1.04555">
        <ele>86.9</ele>
        <time>2022-08-17T14:03:46Z</time>
      </trkpt>
      <trkpt lat="44.96733" lon="1.04554">
        <ele>86.1</ele>
        <time>2022-08-17T14:03:48Z</time>
      </trkpt>
      <trkpt lat="44.96749" lon="1.04547">
        <ele>84.6</ele>
        <time>2022-08-17T14:03:50Z</time>
      </trkpt>
      <trkpt lat="44.96764" lon="1.04536">
        <ele>83.4</ele>
        <time>2022-08-17T14:03:52Z</time>
      </trkpt>
      <trkpt lat="44.96778" lon="1.04525">
        <ele>82.5</ele>
        <time>2022-08-17T14:03:54Z</time>
      </trkpt>
      <trkpt lat="44.96792" lon="1.04513">
        <ele>81.9</ele>
        <time>2022-08-17T14:03:56Z</time>
      </trkpt>
      <trkpt lat="44.96805" lon="1.04503">
        <ele>81.5</ele>
        <time>2022-08-17T14:03:58Z</time>
      </trkpt>
      <trkpt lat="44.96817" lon="1.04493">
        <ele>81.4</ele>
        <time>2022-08-17T14:04:00Z</time>
      </trkpt>
      <trkpt lat="44.96828" lon="1.04485">
        <ele>81.5</ele>
        <time>2022-08-17T14:04:02Z</time>
      </trkpt>
      <trkpt lat="44.9684" lon="1.04476">
        <ele>81.7</ele>
        <time>2022-08-17T14:04:04Z</time>
      </trkpt>
      <trkpt lat="44.9685" lon="1.04469">
        <ele>81.8</ele>
        <time>2022-08-17T14:04:06Z</time>
      </trkpt>
      <trkpt lat="44.9686" lon="1.04462">
        <ele>81.9</ele>
        <time>2022-08-17T14:04:08Z</time>
      </trkpt>
      <trkpt lat="44.96868" lon="1.04455">
        <ele>82</ele>
        <time>2022-08-17T14:04:10Z</time>
      </trkpt>
      <trkpt lat="44.96876" lon="1.04447">
        <ele>82</ele>
        <time>2022-08-17T14:04:12Z</time>
      </trkpt>
      <trkpt lat="44.96885" lon="1.04441">
        <ele>82</ele>
        <time>2022-08-17T14:04:14Z</time>
      </trkpt>
      <trkpt lat="44.96894" lon="1.04435">
        <ele>82</ele>
        <time>2022-08-17T14:04:16Z</time>
      </trkpt>
      <trkpt lat="44.96903" lon="1.04426">
        <ele>82</ele>
        <time>2022-08-17T14:04:18Z</time>
      </trkpt>
      <trkpt lat="44.96912" lon="1.0442">
        <ele>82</ele>
        <time>2022-08-17T14:04:20Z</time>
      </trkpt>
      <trkpt lat="44.9692" lon="1.04414">
        <ele>81.9</ele>
        <time>2022-08-17T14:04:22Z</time>
      </trkpt>
      <trkpt lat="44.96929" lon="1.04408">
        <ele>81.6</ele>
        <time>2022-08-17T14:04:24Z</time>
      </trkpt>
      <trkpt lat="44.96938" lon="1.04403">
        <ele>81.4</ele>
        <time>2022-08-17T14:04:26Z</time>
      </trkpt>
      <trkpt lat="44.96947" lon="1.04398">
        <ele>81.3</ele>
        <time>2022-08-17T14:04:28Z</time>
      </trkpt>
      <trkpt lat="44.96956" lon="1.04395">
        <ele>81.2</ele>
        <time>2022-08-17T14:04:30Z</time>
      </trkpt>
      <trkpt lat="44.96964" lon="1.04392">
        <ele>81.1</ele>
        <time>2022-08-17T14:04:32Z</time>
      </trkpt>
      <trkpt lat="44.96968" lon="1.04394">
        <ele>81.2</ele>
        <time>2022-08-17T14:04:34Z</time>
      </trkpt>
      <trkpt lat="44.96975" lon="1.04394">
        <ele>81.3</ele>
        <time>2022-08-17T14:04:36Z</time>
      </trkpt>
      <trkpt lat="44.96979" lon="1.04392">
        <ele>81.3</ele>
        <time>2022-08-17T14:04:38Z</time>
      </trkpt>
      <trkpt lat="44.96982" lon="1.0439">
        <ele>81.2</ele>
        <time>2022-08-17T14:04:40Z</time>
      </trkpt>
      <trkpt lat="44.96984" lon="1.0439">
        <ele>81.2</ele>
        <time>2022-08-17T14:04:42Z</time>
      </trkpt>
      <trkpt lat="44.96988" lon="1.0439">
        <ele>81.3</ele>
        <time>2022-08-17T14:04:44Z</time>
      </trkpt>
      <trkpt lat="44.96991" lon="1.04389">
        <ele>81.3</ele>
        <time>2022-08-17T14:04:46Z</time>
      </trkpt>
      <trkpt lat="44.96995" lon="1.04388">
        <ele>81.3</ele>
        <time>2022-08-17T14:04:48Z</time>
      </trkpt>
      <trkpt lat="44.96996" lon="1.04386">
        <ele>81.2</ele>
        <time>2022-08-17T14:04:50Z</time>
      </trkpt>
      <trkpt lat="44.97018" lon="1.04366">
        <ele>81.5</ele>
        <time>2022-08-17T14:06:30Z</time>
      </trkpt>
      <trkpt lat="44.97023" lon="1.04363">
        <ele>81.6</ele>
        <time>2022-08-17T14:06:32Z</time>
      </trkpt>
      <trkpt lat="44.9703" lon="1.0436">
        <ele>81.8</ele>
        <time>2022-08-17T14:06:34Z</time>
      </trkpt>
      <trkpt lat="44.97036" lon="1.04358">
        <ele>82.1</ele>
        <time>2022-08-17T14:06:36Z</time>
      </trkpt>
      <trkpt lat="44.97043" lon="1.04354">
        <ele>82.3</ele>
        <time>2022-08-17T14:06:38Z</time>
      </trkpt>
      <trkpt lat="44.97049" lon="1.04352">
        <ele>82.6</ele>
        <time>2022-08-17T14:06:40Z</time>
      </trkpt>
      <trkpt lat="44.97055" lon="1.0435">
        <ele>82.8</ele>
        <time>2022-08-17T14:06:42Z</time>
      </trkpt>
      <trkpt lat="44.97061" lon="1.04348">
        <ele>83</ele>
        <time>2022-08-17T14:06:44Z</time>
      </trkpt>
      <trkpt lat="44.97067" lon="1.04346">
        <ele>83.3</ele>
        <time>2022-08-17T14:06:46Z</time>
      </trkpt>
      <trkpt lat="44.97072" lon="1.04344">
        <ele>83.5</ele>
        <time>2022-08-17T14:06:48Z</time>
      </trkpt>
      <trkpt lat="44.97078" lon="1.04342">
        <ele>83.7</ele>
        <time>2022-08-17T14:06:50Z</time>
      </trkpt>
      <trkpt lat="44.97083" lon="1.04341">
        <ele>84</ele>
        <time>2022-08-17T14:06:52Z</time>
      </trkpt>
      <trkpt lat="44.97089" lon="1.04339">
        <ele>84.2</ele>
        <time>2022-08-17T14:06:54Z</time>
      </trkpt>
      <trkpt lat="44.97094" lon="1.04337">
        <ele>84.4</ele>
        <time>2022-08-17T14:06:56Z</time>
      </trkpt>
      <trkpt lat="44.971" lon="1.04335">
        <ele>84.6</ele>
        <time>2022-08-17T14:06:58Z</time>
      </trkpt>
      <trkpt lat="44.97105" lon="1.04334">
        <ele>84.8</ele>
        <time>2022-08-17T14:07:00Z</time>
      </trkpt>
      <trkpt lat="44.97111" lon="1.04332">
        <ele>85</ele>
        <time>2022-08-17T14:07:02Z</time>
      </trkpt>
      <trkpt lat="44.97116" lon="1.04331">
        <ele>85.2</ele>
        <time>2022-08-17T14:07:04Z</time>
      </trkpt>
      <trkpt lat="44.97121" lon="1.04331">
        <ele>85.3</ele>
        <time>2022-08-17T14:07:06Z</time>
      </trkpt>
      <trkpt lat="44.97127" lon="1.04329">
        <ele>85.5</ele>
        <time>2022-08-17T14:07:08Z</time>
      </trkpt>
      <trkpt lat="44.97133" lon="1.04328">
        <ele>85.7</ele>
        <time>2022-08-17T14:07:10Z</time>
      </trkpt>
      <trkpt lat="44.97138" lon="1.04327">
        <ele>85.9</ele>
        <time>2022-08-17T14:07:12Z</time>
      </trkpt>
      <trkpt lat="44.97143" lon="1.04325">
        <ele>86.1</ele>
        <time>2022-08-17T14:07:14Z</time>
      </trkpt>
      <trkpt lat="44.97149" lon="1.04325">
        <ele>86.2</ele>
        <time>2022-08-17T14:07:16Z</time>
      </trkpt>
      <trkpt lat="44.97154" lon="1.04324">
        <ele>86.4</ele>
        <time>2022-08-17T14:07:18Z</time>
      </trkpt>
      <trkpt lat="44.97159" lon="1.04322">
        <ele>86.6</ele>
        <time>2022-08-17T14:07:20Z</time>
      </trkpt>
      <trkpt lat="44.97164" lon="1.04321">
        <ele>86.8</ele>
        <time>2022-08-17T14:07:22Z</time>
      </trkpt>
      <trkpt lat="44.97169" lon="1.0432">
        <ele>86.9</ele>
        <time>2022-08-17T14:07:24Z</time>
      </trkpt>
      <trkpt lat="44.97174" lon="1.04319">
        <ele>87.1</ele>
        <time>2022-08-17T14:07:26Z</time>
      </trkpt>
      <trkpt lat="44.97179" lon="1.04318">
        <ele>87.3</ele>
        <time>2022-08-17T14:07:28Z</time>
      </trkpt>
      <trkpt lat="44.97184" lon="1.04317">
        <ele>87.4</ele>
        <time>2022-08-17T14:07:30Z</time>
      </trkpt>
      <trkpt lat="44.97189" lon="1.04316">
        <ele>87.6</ele>
        <time>2022-08-17T14:07:32Z</time>
      </trkpt>
      <trkpt lat="44.97194" lon="1.04314">
        <ele>87.7</ele>
        <time>2022-08-17T14:07:34Z</time>
      </trkpt>
      <trkpt lat="44.97198" lon="1.04313">
        <ele>87.9</ele>
        <time>2022-08-17T14:07:36Z</time>
      </trkpt>
      <trkpt lat="44.97203" lon="1.04312">
        <ele>88.1</ele>
        <time>2022-08-17T14:07:38Z</time>
      </trkpt>
      <trkpt lat="44.97208" lon="1.0431">
        <ele>88.2</ele>
        <time>2022-08-17T14:07:40Z</time>
      </trkpt>
      <trkpt lat="44.97213" lon="1.04309">
        <ele>88.4</ele>
        <time>2022-08-17T14:07:42Z</time>
      </trkpt>
      <trkpt lat="44.97219" lon="1.04307">
        <ele>88.6</ele>
        <time>2022-08-17T14:07:44Z</time>
      </trkpt>
      <trkpt lat="44.97223" lon="1.04306">
        <ele>88.7</ele>
        <time>2022-08-17T14:07:46Z</time>
      </trkpt>
      <trkpt lat="44.97228" lon="1.04305">
        <ele>88.9</ele>
        <time>2022-08-17T14:07:48Z</time>
      </trkpt>
      <trkpt lat="44.97233" lon="1.04304">
        <ele>89</ele>
        <time>2022-08-17T14:07:50Z</time>
      </trkpt>
      <trkpt lat="44.97238" lon="1.04302">
        <ele>89.2</ele>
        <time>2022-08-17T14:07:52Z</time>
      </trkpt>
      <trkpt lat="44.97243" lon="1.043">
        <ele>89.3</ele>
        <time>2022-08-17T14:07:54Z</time>
      </trkpt>
      <trkpt lat="44.97248" lon="1.04298">
        <ele>89.5</ele>
        <time>2022-08-17T14:07:56Z</time>
      </trkpt>
      <trkpt lat="44.97253" lon="1.04296">
        <ele>89.7</ele>
        <time>2022-08-17T14:07:58Z</time>
      </trkpt>
      <trkpt lat="44.97258" lon="1.04294">
        <ele>89.9</ele>
        <time>2022-08-17T14:08:00Z</time>
      </trkpt>
      <trkpt lat="44.97263" lon="1.04292">
        <ele>90.2</ele>
        <time>2022-08-17T14:08:02Z</time>
      </trkpt>
      <trkpt lat="44.97268" lon="1.0429">
        <ele>90.5</ele>
        <time>2022-08-17T14:08:04Z</time>
      </trkpt>
      <trkpt lat="44.97273" lon="1.04288">
        <ele>90.7</ele>
        <time>2022-08-17T14:08:06Z</time>
      </trkpt>
      <trkpt lat="44.97279" lon="1.04285">
        <ele>90.9</ele>
        <time>2022-08-17T14:08:08Z</time>
      </trkpt>
      <trkpt lat="44.97284" lon="1.04283">
        <ele>91.2</ele>
        <time>2022-08-17T14:08:10Z</time>
      </trkpt>
      <trkpt lat="44.97289" lon="1.0428">
        <ele>91.4</ele>
        <time>2022-08-17T14:08:12Z</time>
      </trkpt>
      <trkpt lat="44.97294" lon="1.04278">
        <ele>91.7</ele>
        <time>2022-08-17T14:08:14Z</time>
      </trkpt>
      <trkpt lat="44.973" lon="1.04276">
        <ele>91.9</ele>
        <time>2022-08-17T14:08:16Z</time>
      </trkpt>
      <trkpt lat="44.97305" lon="1.04273">
        <ele>92.1</ele>
        <time>2022-08-17T14:08:18Z</time>
      </trkpt>
      <trkpt lat="44.97311" lon="1.04271">
        <ele>92.4</ele>
        <time>2022-08-17T14:08:20Z</time>
      </trkpt>
      <trkpt lat="44.97316" lon="1.04269">
        <ele>92.6</ele>
        <time>2022-08-17T14:08:22Z</time>
      </trkpt>
      <trkpt lat="44.97322" lon="1.04266">
        <ele>92.8</ele>
        <time>2022-08-17T14:08:24Z</time>
      </trkpt>
      <trkpt lat="44.97327" lon="1.04264">
        <ele>93</ele>
        <time>2022-08-17T14:08:26Z</time>
      </trkpt>
      <trkpt lat="44.97333" lon="1.04262">
        <ele>93.3</ele>
        <time>2022-08-17T14:08:28Z</time>
      </trkpt>
      <trkpt lat="44.97338" lon="1.0426">
        <ele>93.3</ele>
        <time>2022-08-17T14:08:30Z</time>
      </trkpt>
      <trkpt lat="44.97343" lon="1.04258">
        <ele>93.3</ele>
        <time>2022-08-17T14:08:32Z</time>
      </trkpt>
      <trkpt lat="44.97349" lon="1.04256">
        <ele>93.2</ele>
        <time>2022-08-17T14:08:34Z</time>
      </trkpt>
      <trkpt lat="44.97354" lon="1.04254">
        <ele>93.2</ele>
        <time>2022-08-17T14:08:36Z</time>
      </trkpt>
      <trkpt lat="44.9736" lon="1.04251">
        <ele>93.1</ele>
        <time>2022-08-17T14:08:38Z</time>
      </trkpt>
      <trkpt lat="44.97365" lon="1.04249">
        <ele>93</ele>
        <time>2022-08-17T14:08:40Z</time>
      </trkpt>
      <trkpt lat="44.97371" lon="1.04246">
        <ele>92.9</ele>
        <time>2022-08-17T14:08:42Z</time>
      </trkpt>
      <trkpt lat="44.97377" lon="1.04243">
        <ele>92.8</ele>
        <time>2022-08-17T14:08:44Z</time>
      </trkpt>
      <trkpt lat="44.97382" lon="1.04241">
        <ele>92.7</ele>
        <time>2022-08-17T14:08:46Z</time>
      </trkpt>
      <trkpt lat="44.97388" lon="1.04238">
        <ele>92.6</ele>
        <time>2022-08-17T14:08:48Z</time>
      </trkpt>
      <trkpt lat="44.97393" lon="1.04235">
        <ele>92.4</ele>
        <time>2022-08-17T14:08:50Z</time>
      </trkpt>
      <trkpt lat="44.97399" lon="1.04233">
        <ele>92.3</ele>
        <time>2022-08-17T14:08:52Z</time>
      </trkpt>
      <trkpt lat="44.97405" lon="1.0423">
        <ele>92.1</ele>
        <time>2022-08-17T14:08:54Z</time>
      </trkpt>
      <trkpt lat="44.97411" lon="1.04228">
        <ele>92</ele>
        <time>2022-08-17T14:08:56Z</time>
      </trkpt>
      <trkpt lat="44.97418" lon="1.04227">
        <ele>91.7</ele>
        <time>2022-08-17T14:08:58Z</time>
      </trkpt>
      <trkpt lat="44.97426" lon="1.04226">
        <ele>90.9</ele>
        <time>2022-08-17T14:09:00Z</time>
      </trkpt>
      <trkpt lat="44.97435" lon="1.04228">
        <ele>90.2</ele>
        <time>2022-08-17T14:09:02Z</time>
      </trkpt>
      <trkpt lat="44.97444" lon="1.04233">
        <ele>89.7</ele>
        <time>2022-08-17T14:09:04Z</time>
      </trkpt>
      <trkpt lat="44.97454" lon="1.04241">
        <ele>89.3</ele>
        <time>2022-08-17T14:09:06Z</time>
      </trkpt>
      <trkpt lat="44.97465" lon="1.04249">
        <ele>88.9</ele>
        <time>2022-08-17T14:09:08Z</time>
      </trkpt>
      <trkpt lat="44.97475" lon="1.04262">
        <ele>89.7</ele>
        <time>2022-08-17T14:09:10Z</time>
      </trkpt>
      <trkpt lat="44.97485" lon="1.04274">
        <ele>90.5</ele>
        <time>2022-08-17T14:09:12Z</time>
      </trkpt>
      <trkpt lat="44.97496" lon="1.04287">
        <ele>91.7</ele>
        <time>2022-08-17T14:09:14Z</time>
      </trkpt>
      <trkpt lat="44.97508" lon="1.043">
        <ele>91.4</ele>
        <time>2022-08-17T14:09:16Z</time>
      </trkpt>
      <trkpt lat="44.97519" lon="1.04314">
        <ele>90.4</ele>
        <time>2022-08-17T14:09:18Z</time>
      </trkpt>
      <trkpt lat="44.97531" lon="1.04326">
        <ele>88.9</ele>
        <time>2022-08-17T14:09:20Z</time>
      </trkpt>
      <trkpt lat="44.9754" lon="1.04346">
        <ele>88.3</ele>
        <time>2022-08-17T14:09:22Z</time>
      </trkpt>
      <trkpt lat="44.97547" lon="1.04369">
        <ele>88.2</ele>
        <time>2022-08-17T14:09:24Z</time>
      </trkpt>
      <trkpt lat="44.97552" lon="1.04394">
        <ele>88.8</ele>
        <time>2022-08-17T14:09:26Z</time>
      </trkpt>
      <trkpt lat="44.97559" lon="1.04414">
        <ele>88.6</ele>
        <time>2022-08-17T14:09:28Z</time>
      </trkpt>
      <trkpt lat="44.9757" lon="1.04435">
        <ele>87.7</ele>
        <time>2022-08-17T14:09:30Z</time>
      </trkpt>
      <trkpt lat="44.9758" lon="1.04455">
        <ele>87.3</ele>
        <time>2022-08-17T14:09:32Z</time>
      </trkpt>
      <trkpt lat="44.9759" lon="1.04476">
        <ele>86.9</ele>
        <time>2022-08-17T14:09:34Z</time>
      </trkpt>
      <trkpt lat="44.976" lon="1.04498">
        <ele>85.9</ele>
        <time>2022-08-17T14:09:36Z</time>
      </trkpt>
      <trkpt lat="44.97606" lon="1.0452">
        <ele>86.2</ele>
        <time>2022-08-17T14:09:38Z</time>
      </trkpt>
      <trkpt lat="44.97611" lon="1.0454">
        <ele>86.4</ele>
        <time>2022-08-17T14:09:40Z</time>
      </trkpt>
      <trkpt lat="44.97617" lon="1.04559">
        <ele>86.1</ele>
        <time>2022-08-17T14:09:42Z</time>
      </trkpt>
      <trkpt lat="44.97622" lon="1.04576">
        <ele>85.5</ele>
        <time>2022-08-17T14:09:44Z</time>
      </trkpt>
      <trkpt lat="44.97626" lon="1.04593">
        <ele>85.6</ele>
        <time>2022-08-17T14:09:46Z</time>
      </trkpt>
      <trkpt lat="44.97628" lon="1.04607">
        <ele>85.7</ele>
        <time>2022-08-17T14:09:48Z</time>
      </trkpt>
      <trkpt lat="44.97632" lon="1.04615">
        <ele>84.9</ele>
        <time>2022-08-17T14:09:50Z</time>
      </trkpt>
      <trkpt lat="44.9764" lon="1.04616">
        <ele>82.2</ele>
        <time>2022-08-17T14:09:52Z</time>
      </trkpt>
      <trkpt lat="44.97651" lon="1.04611">
        <ele>77.8</ele>
        <time>2022-08-17T14:09:54Z</time>
      </trkpt>
      <trkpt lat="44.97661" lon="1.04612">
        <ele>74.5</ele>
        <time>2022-08-17T14:09:56Z</time>
      </trkpt>
      <trkpt lat="44.97671" lon="1.04612">
        <ele>72.1</ele>
        <time>2022-08-17T14:09:58Z</time>
      </trkpt>
      <trkpt lat="44.9768" lon="1.04613">
        <ele>71.2</ele>
        <time>2022-08-17T14:10:00Z</time>
      </trkpt>
      <trkpt lat="44.97689" lon="1.04613">
        <ele>70.4</ele>
        <time>2022-08-17T14:10:02Z</time>
      </trkpt>
      <trkpt lat="44.97698" lon="1.04613">
        <ele>69.5</ele>
        <time>2022-08-17T14:10:04Z</time>
      </trkpt>
      <trkpt lat="44.97706" lon="1.04614">
        <ele>68.8</ele>
        <time>2022-08-17T14:10:06Z</time>
      </trkpt>
      <trkpt lat="44.97715" lon="1.04615">
        <ele>68</ele>
        <time>2022-08-17T14:10:08Z</time>
      </trkpt>
      <trkpt lat="44.97723" lon="1.04615">
        <ele>67.2</ele>
        <time>2022-08-17T14:10:10Z</time>
      </trkpt>
      <trkpt lat="44.97732" lon="1.04616">
        <ele>66.4</ele>
        <time>2022-08-17T14:10:12Z</time>
      </trkpt>
      <trkpt lat="44.97742" lon="1.04616">
        <ele>65.4</ele>
        <time>2022-08-17T14:10:14Z</time>
      </trkpt>
      <trkpt lat="44.97753" lon="1.04617">
        <ele>64.8</ele>
        <time>2022-08-17T14:10:16Z</time>
      </trkpt>
      <trkpt lat="44.97764" lon="1.04618">
        <ele>65.5</ele>
        <time>2022-08-17T14:10:18Z</time>
      </trkpt>
      <trkpt lat="44.97776" lon="1.04619">
        <ele>66.2</ele>
        <time>2022-08-17T14:10:20Z</time>
      </trkpt>
      <trkpt lat="44.97788" lon="1.04619">
        <ele>67</ele>
        <time>2022-08-17T14:10:22Z</time>
      </trkpt>
      <trkpt lat="44.978" lon="1.04619">
        <ele>67.8</ele>
        <time>2022-08-17T14:10:24Z</time>
      </trkpt>
      <trkpt lat="44.97813" lon="1.04621">
        <ele>68.7</ele>
        <time>2022-08-17T14:10:26Z</time>
      </trkpt>
      <trkpt lat="44.97826" lon="1.04623">
        <ele>69.5</ele>
        <time>2022-08-17T14:10:28Z</time>
      </trkpt>
      <trkpt lat="44.97838" lon="1.04624">
        <ele>70.7</ele>
        <time>2022-08-17T14:10:30Z</time>
      </trkpt>
      <trkpt lat="44.97849" lon="1.04621">
        <ele>72.2</ele>
        <time>2022-08-17T14:10:32Z</time>
      </trkpt>
      <trkpt lat="44.97858" lon="1.04615">
        <ele>73.5</ele>
        <time>2022-08-17T14:10:34Z</time>
      </trkpt>
      <trkpt lat="44.97866" lon="1.04609">
        <ele>74.6</ele>
        <time>2022-08-17T14:10:36Z</time>
      </trkpt>
      <trkpt lat="44.97872" lon="1.04602">
        <ele>75.5</ele>
        <time>2022-08-17T14:10:38Z</time>
      </trkpt>
      <trkpt lat="44.97878" lon="1.04595">
        <ele>76.3</ele>
        <time>2022-08-17T14:10:40Z</time>
      </trkpt>
      <trkpt lat="44.97882" lon="1.04587">
        <ele>76.9</ele>
        <time>2022-08-17T14:10:42Z</time>
      </trkpt>
      <trkpt lat="44.97885" lon="1.04579">
        <ele>77.3</ele>
        <time>2022-08-17T14:10:44Z</time>
      </trkpt>
      <trkpt lat="44.97887" lon="1.0457">
        <ele>77.4</ele>
        <time>2022-08-17T14:10:46Z</time>
      </trkpt>
      <trkpt lat="44.97887" lon="1.0456">
        <ele>77.2</ele>
        <time>2022-08-17T14:10:48Z</time>
      </trkpt>
      <trkpt lat="44.97887" lon="1.04551">
        <ele>77</ele>
        <time>2022-08-17T14:10:50Z</time>
      </trkpt>
      <trkpt lat="44.97887" lon="1.04542">
        <ele>76.8</ele>
        <time>2022-08-17T14:10:52Z</time>
      </trkpt>
      <trkpt lat="44.97888" lon="1.04531">
        <ele>76.6</ele>
        <time>2022-08-17T14:10:54Z</time>
      </trkpt>
      <trkpt lat="44.97887" lon="1.04521">
        <ele>76.3</ele>
        <time>2022-08-17T14:10:56Z</time>
      </trkpt>
      <trkpt lat="44.97888" lon="1.04513">
        <ele>76.1</ele>
        <time>2022-08-17T14:10:58Z</time>
      </trkpt>
      <trkpt lat="44.97889" lon="1.04503">
        <ele>76</ele>
        <time>2022-08-17T14:11:00Z</time>
      </trkpt>
      <trkpt lat="44.97889" lon="1.04492">
        <ele>76</ele>
        <time>2022-08-17T14:11:02Z</time>
      </trkpt>
      <trkpt lat="44.97889" lon="1.0448">
        <ele>76.1</ele>
        <time>2022-08-17T14:11:04Z</time>
      </trkpt>
      <trkpt lat="44.9789" lon="1.04467">
        <ele>76.2</ele>
        <time>2022-08-17T14:11:06Z</time>
      </trkpt>
      <trkpt lat="44.9789" lon="1.04455">
        <ele>76.3</ele>
        <time>2022-08-17T14:11:08Z</time>
      </trkpt>
      <trkpt lat="44.97891" lon="1.04442">
        <ele>76.5</ele>
        <time>2022-08-17T14:11:10Z</time>
      </trkpt>
      <trkpt lat="44.97891" lon="1.04428">
        <ele>76.6</ele>
        <time>2022-08-17T14:11:12Z</time>
      </trkpt>
      <trkpt lat="44.97892" lon="1.04414">
        <ele>76.8</ele>
        <time>2022-08-17T14:11:14Z</time>
      </trkpt>
      <trkpt lat="44.97892" lon="1.044">
        <ele>77.2</ele>
        <time>2022-08-17T14:11:16Z</time>
      </trkpt>
      <trkpt lat="44.97892" lon="1.04387">
        <ele>77.6</ele>
        <time>2022-08-17T14:11:18Z</time>
      </trkpt>
      <trkpt lat="44.97894" lon="1.04374">
        <ele>78.1</ele>
        <time>2022-08-17T14:11:20Z</time>
      </trkpt>
      <trkpt lat="44.97893" lon="1.04358">
        <ele>78.4</ele>
        <time>2022-08-17T14:11:22Z</time>
      </trkpt>
      <trkpt lat="44.97894" lon="1.04343">
        <ele>78.9</ele>
        <time>2022-08-17T14:11:24Z</time>
      </trkpt>
      <trkpt lat="44.97894" lon="1.04328">
        <ele>79.2</ele>
        <time>2022-08-17T14:11:26Z</time>
      </trkpt>
      <trkpt lat="44.97894" lon="1.04313">
        <ele>78.9</ele>
        <time>2022-08-17T14:11:28Z</time>
      </trkpt>
      <trkpt lat="44.97894" lon="1.04297">
        <ele>78.7</ele>
        <time>2022-08-17T14:11:30Z</time>
      </trkpt>
      <trkpt lat="44.97894" lon="1.04281">
        <ele>78.4</ele>
        <time>2022-08-17T14:11:32Z</time>
      </trkpt>
      <trkpt lat="44.97894" lon="1.04263">
        <ele>78.2</ele>
        <time>2022-08-17T14:11:34Z</time>
      </trkpt>
      <trkpt lat="44.97894" lon="1.04247">
        <ele>78</ele>
        <time>2022-08-17T14:11:36Z</time>
      </trkpt>
      <trkpt lat="44.97894" lon="1.0423">
        <ele>78.1</ele>
        <time>2022-08-17T14:11:38Z</time>
      </trkpt>
      <trkpt lat="44.97893" lon="1.04212">
        <ele>78.1</ele>
        <time>2022-08-17T14:11:40Z</time>
      </trkpt>
      <trkpt lat="44.97893" lon="1.04195">
        <ele>78.1</ele>
        <time>2022-08-17T14:11:42Z</time>
      </trkpt>
      <trkpt lat="44.97893" lon="1.04177">
        <ele>78.2</ele>
        <time>2022-08-17T14:11:44Z</time>
      </trkpt>
      <trkpt lat="44.9789" lon="1.0416">
        <ele>78.4</ele>
        <time>2022-08-17T14:11:46Z</time>
      </trkpt>
      <trkpt lat="44.9789" lon="1.04144">
        <ele>79.5</ele>
        <time>2022-08-17T14:11:48Z</time>
      </trkpt>
      <trkpt lat="44.97889" lon="1.04128">
        <ele>80.6</ele>
        <time>2022-08-17T14:11:50Z</time>
      </trkpt>
      <trkpt lat="44.97889" lon="1.04113">
        <ele>81.7</ele>
        <time>2022-08-17T14:11:52Z</time>
      </trkpt>
      <trkpt lat="44.97887" lon="1.04101">
        <ele>82.3</ele>
        <time>2022-08-17T14:11:54Z</time>
      </trkpt>
      <trkpt lat="44.97884" lon="1.04087">
        <ele>82.7</ele>
        <time>2022-08-17T14:11:56Z</time>
      </trkpt>
      <trkpt lat="44.97881" lon="1.04072">
        <ele>82.4</ele>
        <time>2022-08-17T14:11:58Z</time>
      </trkpt>
      <trkpt lat="44.97878" lon="1.04058">
        <ele>81.7</ele>
        <time>2022-08-17T14:12:00Z</time>
      </trkpt>
      <trkpt lat="44.97873" lon="1.04044">
        <ele>80.8</ele>
        <time>2022-08-17T14:12:02Z</time>
      </trkpt>
      <trkpt lat="44.97869" lon="1.04029">
        <ele>79.8</ele>
        <time>2022-08-17T14:12:04Z</time>
      </trkpt>
      <trkpt lat="44.97865" lon="1.04015">
        <ele>78.7</ele>
        <time>2022-08-17T14:12:06Z</time>
      </trkpt>
      <trkpt lat="44.97862" lon="1.04002">
        <ele>77.8</ele>
        <time>2022-08-17T14:12:08Z</time>
      </trkpt>
      <trkpt lat="44.97858" lon="1.03988">
        <ele>77.4</ele>
        <time>2022-08-17T14:12:10Z</time>
      </trkpt>
      <trkpt lat="44.97857" lon="1.03973">
        <ele>77.6</ele>
        <time>2022-08-17T14:12:12Z</time>
      </trkpt>
      <trkpt lat="44.97858" lon="1.03957">
        <ele>78.3</ele>
        <time>2022-08-17T14:12:14Z</time>
      </trkpt>
      <trkpt lat="44.97859" lon="1.0394">
        <ele>79.1</ele>
        <time>2022-08-17T14:12:16Z</time>
      </trkpt>
      <trkpt lat="44.9786" lon="1.03923">
        <ele>80</ele>
        <time>2022-08-17T14:12:18Z</time>
      </trkpt>
      <trkpt lat="44.97861" lon="1.03906">
        <ele>81.2</ele>
        <time>2022-08-17T14:12:20Z</time>
      </trkpt>
      <trkpt lat="44.97859" lon="1.03889">
        <ele>81.9</ele>
        <time>2022-08-17T14:12:22Z</time>
      </trkpt>
      <trkpt lat="44.97858" lon="1.03872">
        <ele>82.4</ele>
        <time>2022-08-17T14:12:24Z</time>
      </trkpt>
      <trkpt lat="44.97857" lon="1.03856">
        <ele>83.2</ele>
        <time>2022-08-17T14:12:26Z</time>
      </trkpt>
      <trkpt lat="44.97854" lon="1.03839">
        <ele>83.4</ele>
        <time>2022-08-17T14:12:28Z</time>
      </trkpt>
      <trkpt lat="44.9785" lon="1.03823">
        <ele>83</ele>
        <time>2022-08-17T14:12:30Z</time>
      </trkpt>
      <trkpt lat="44.97847" lon="1.03808">
        <ele>82.8</ele>
        <time>2022-08-17T14:12:32Z</time>
      </trkpt>
      <trkpt lat="44.97843" lon="1.03793">
        <ele>82.6</ele>
        <time>2022-08-17T14:12:34Z</time>
      </trkpt>
      <trkpt lat="44.97839" lon="1.03777">
        <ele>82.1</ele>
        <time>2022-08-17T14:12:36Z</time>
      </trkpt>
      <trkpt lat="44.97836" lon="1.03763">
        <ele>82.1</ele>
        <time>2022-08-17T14:12:38Z</time>
      </trkpt>
      <trkpt lat="44.9783" lon="1.03751">
        <ele>81.5</ele>
        <time>2022-08-17T14:12:40Z</time>
      </trkpt>
      <trkpt lat="44.97825" lon="1.03739">
        <ele>80.6</ele>
        <time>2022-08-17T14:12:42Z</time>
      </trkpt>
      <trkpt lat="44.97819" lon="1.03728">
        <ele>79.8</ele>
        <time>2022-08-17T14:12:44Z</time>
      </trkpt>
      <trkpt lat="44.97814" lon="1.03717">
        <ele>79</ele>
        <time>2022-08-17T14:12:46Z</time>
      </trkpt>
      <trkpt lat="44.97808" lon="1.03707">
        <ele>78.1</ele>
        <time>2022-08-17T14:12:48Z</time>
      </trkpt>
      <trkpt lat="44.97803" lon="1.03696">
        <ele>77.6</ele>
        <time>2022-08-17T14:12:50Z</time>
      </trkpt>
      <trkpt lat="44.97798" lon="1.03686">
        <ele>77</ele>
        <time>2022-08-17T14:12:52Z</time>
      </trkpt>
      <trkpt lat="44.97793" lon="1.03677">
        <ele>76.5</ele>
        <time>2022-08-17T14:12:54Z</time>
      </trkpt>
      <trkpt lat="44.97788" lon="1.03669">
        <ele>76.1</ele>
        <time>2022-08-17T14:12:56Z</time>
      </trkpt>
      <trkpt lat="44.97785" lon="1.0366">
        <ele>76.7</ele>
        <time>2022-08-17T14:12:58Z</time>
      </trkpt>
      <trkpt lat="44.97781" lon="1.03651">
        <ele>77.3</ele>
        <time>2022-08-17T14:13:00Z</time>
      </trkpt>
      <trkpt lat="44.97776" lon="1.03644">
        <ele>77.7</ele>
        <time>2022-08-17T14:13:02Z</time>
      </trkpt>
      <trkpt lat="44.97772" lon="1.03636">
        <ele>78.2</ele>
        <time>2022-08-17T14:13:04Z</time>
      </trkpt>
      <trkpt lat="44.97769" lon="1.03628">
        <ele>78.9</ele>
        <time>2022-08-17T14:13:06Z</time>
      </trkpt>
      <trkpt lat="44.97764" lon="1.0362">
        <ele>79.3</ele>
        <time>2022-08-17T14:13:08Z</time>
      </trkpt>
      <trkpt lat="44.97759" lon="1.03613">
        <ele>79.6</ele>
        <time>2022-08-17T14:13:10Z</time>
      </trkpt>
      <trkpt lat="44.97754" lon="1.03604">
        <ele>80.1</ele>
        <time>2022-08-17T14:13:12Z</time>
      </trkpt>
      <trkpt lat="44.97749" lon="1.03596">
        <ele>80.4</ele>
        <time>2022-08-17T14:13:14Z</time>
      </trkpt>
      <trkpt lat="44.97744" lon="1.03588">
        <ele>80.6</ele>
        <time>2022-08-17T14:13:16Z</time>
      </trkpt>
      <trkpt lat="44.97737" lon="1.03581">
        <ele>81.1</ele>
        <time>2022-08-17T14:13:18Z</time>
      </trkpt>
      <trkpt lat="44.97731" lon="1.03574">
        <ele>82.3</ele>
        <time>2022-08-17T14:13:20Z</time>
      </trkpt>
      <trkpt lat="44.97724" lon="1.03568">
        <ele>83</ele>
        <time>2022-08-17T14:13:22Z</time>
      </trkpt>
      <trkpt lat="44.97717" lon="1.03561">
        <ele>83.7</ele>
        <time>2022-08-17T14:13:24Z</time>
      </trkpt>
      <trkpt lat="44.97709" lon="1.03555">
        <ele>84.3</ele>
        <time>2022-08-17T14:13:26Z</time>
      </trkpt>
      <trkpt lat="44.97701" lon="1.03547">
        <ele>84.9</ele>
        <time>2022-08-17T14:13:28Z</time>
      </trkpt>
      <trkpt lat="44.97692" lon="1.03541">
        <ele>85.1</ele>
        <time>2022-08-17T14:13:30Z</time>
      </trkpt>
      <trkpt lat="44.97682" lon="1.03534">
        <ele>85.2</ele>
        <time>2022-08-17T14:13:32Z</time>
      </trkpt>
      <trkpt lat="44.97674" lon="1.03525">
        <ele>85.6</ele>
        <time>2022-08-17T14:13:34Z</time>
      </trkpt>
      <trkpt lat="44.97664" lon="1.03518">
        <ele>85.6</ele>
        <time>2022-08-17T14:13:36Z</time>
      </trkpt>
      <trkpt lat="44.97656" lon="1.03509">
        <ele>86</ele>
        <time>2022-08-17T14:13:38Z</time>
      </trkpt>
      <trkpt lat="44.97647" lon="1.03502">
        <ele>85.8</ele>
        <time>2022-08-17T14:13:40Z</time>
      </trkpt>
      <trkpt lat="44.97639" lon="1.03494">
        <ele>86.5</ele>
        <time>2022-08-17T14:13:42Z</time>
      </trkpt>
      <trkpt lat="44.97631" lon="1.03487">
        <ele>87.5</ele>
        <time>2022-08-17T14:13:44Z</time>
      </trkpt>
      <trkpt lat="44.97623" lon="1.0348">
        <ele>88.2</ele>
        <time>2022-08-17T14:13:46Z</time>
      </trkpt>
      <trkpt lat="44.97615" lon="1.03473">
        <ele>88.8</ele>
        <time>2022-08-17T14:13:48Z</time>
      </trkpt>
      <trkpt lat="44.97607" lon="1.03466">
        <ele>89.3</ele>
        <time>2022-08-17T14:13:50Z</time>
      </trkpt>
      <trkpt lat="44.97599" lon="1.03459">
        <ele>89.9</ele>
        <time>2022-08-17T14:13:52Z</time>
      </trkpt>
      <trkpt lat="44.97591" lon="1.03452">
        <ele>90.2</ele>
        <time>2022-08-17T14:13:54Z</time>
      </trkpt>
      <trkpt lat="44.97583" lon="1.03447">
        <ele>89.9</ele>
        <time>2022-08-17T14:13:56Z</time>
      </trkpt>
      <trkpt lat="44.97575" lon="1.0344">
        <ele>90.6</ele>
        <time>2022-08-17T14:13:58Z</time>
      </trkpt>
      <trkpt lat="44.97568" lon="1.03434">
        <ele>90.9</ele>
        <time>2022-08-17T14:14:00Z</time>
      </trkpt>
      <trkpt lat="44.97561" lon="1.03429">
        <ele>91.2</ele>
        <time>2022-08-17T14:14:02Z</time>
      </trkpt>
      <trkpt lat="44.97554" lon="1.03424">
        <ele>91.1</ele>
        <time>2022-08-17T14:14:04Z</time>
      </trkpt>
      <trkpt lat="44.97548" lon="1.03421">
        <ele>90.6</ele>
        <time>2022-08-17T14:14:06Z</time>
      </trkpt>
      <trkpt lat="44.97543" lon="1.03417">
        <ele>90.8</ele>
        <time>2022-08-17T14:14:08Z</time>
      </trkpt>
      <trkpt lat="44.97538" lon="1.03415">
        <ele>90.6</ele>
        <time>2022-08-17T14:14:10Z</time>
      </trkpt>
      <trkpt lat="44.97534" lon="1.03411">
        <ele>91.1</ele>
        <time>2022-08-17T14:14:12Z</time>
      </trkpt>
      <trkpt lat="44.97529" lon="1.03407">
        <ele>91.8</ele>
        <time>2022-08-17T14:14:14Z</time>
      </trkpt>
      <trkpt lat="44.97525" lon="1.03405">
        <ele>91.8</ele>
        <time>2022-08-17T14:14:16Z</time>
      </trkpt>
      <trkpt lat="44.97522" lon="1.03403">
        <ele>92.2</ele>
        <time>2022-08-17T14:14:18Z</time>
      </trkpt>
      <trkpt lat="44.97517" lon="1.03399">
        <ele>92.7</ele>
        <time>2022-08-17T14:14:20Z</time>
      </trkpt>
      <trkpt lat="44.97513" lon="1.03397">
        <ele>92.6</ele>
        <time>2022-08-17T14:14:22Z</time>
      </trkpt>
      <trkpt lat="44.97509" lon="1.03393">
        <ele>93.6</ele>
        <time>2022-08-17T14:14:24Z</time>
      </trkpt>
      <trkpt lat="44.97506" lon="1.03391">
        <ele>94</ele>
        <time>2022-08-17T14:14:26Z</time>
      </trkpt>
      <trkpt lat="44.97504" lon="1.0339">
        <ele>94.1</ele>
        <time>2022-08-17T14:14:28Z</time>
      </trkpt>
      <trkpt lat="44.97501" lon="1.03387">
        <ele>94.8</ele>
        <time>2022-08-17T14:14:30Z</time>
      </trkpt>
      <trkpt lat="44.97497" lon="1.03384">
        <ele>95.3</ele>
        <time>2022-08-17T14:14:32Z</time>
      </trkpt>
      <trkpt lat="44.97494" lon="1.03381">
        <ele>96</ele>
        <time>2022-08-17T14:14:34Z</time>
      </trkpt>
      <trkpt lat="44.97491" lon="1.03378">
        <ele>96.8</ele>
        <time>2022-08-17T14:14:36Z</time>
      </trkpt>
      <trkpt lat="44.97488" lon="1.03375">
        <ele>97.6</ele>
        <time>2022-08-17T14:14:38Z</time>
      </trkpt>
      <trkpt lat="44.97485" lon="1.03372">
        <ele>98</ele>
        <time>2022-08-17T14:14:40Z</time>
      </trkpt>
      <trkpt lat="44.97482" lon="1.0337">
        <ele>98.4</ele>
        <time>2022-08-17T14:14:42Z</time>
      </trkpt>
      <trkpt lat="44.97478" lon="1.03367">
        <ele>99</ele>
        <time>2022-08-17T14:14:44Z</time>
      </trkpt>
      <trkpt lat="44.97474" lon="1.03365">
        <ele>99</ele>
        <time>2022-08-17T14:14:46Z</time>
      </trkpt>
      <trkpt lat="44.9747" lon="1.03363">
        <ele>98.9</ele>
        <time>2022-08-17T14:14:48Z</time>
      </trkpt>
      <trkpt lat="44.97467" lon="1.0336">
        <ele>99.6</ele>
        <time>2022-08-17T14:14:50Z</time>
      </trkpt>
      <trkpt lat="44.97464" lon="1.03357">
        <ele>100.3</ele>
        <time>2022-08-17T14:14:52Z</time>
      </trkpt>
      <trkpt lat="44.9746" lon="1.03354">
        <ele>100.6</ele>
        <time>2022-08-17T14:14:54Z</time>
      </trkpt>
      <trkpt lat="44.97457" lon="1.03351">
        <ele>101</ele>
        <time>2022-08-17T14:14:56Z</time>
      </trkpt>
      <trkpt lat="44.97454" lon="1.03348">
        <ele>101.6</ele>
        <time>2022-08-17T14:14:58Z</time>
      </trkpt>
      <trkpt lat="44.97451" lon="1.03346">
        <ele>102.2</ele>
        <time>2022-08-17T14:15:00Z</time>
      </trkpt>
      <trkpt lat="44.97447" lon="1.03344">
        <ele>102.1</ele>
        <time>2022-08-17T14:15:02Z</time>
      </trkpt>
      <trkpt lat="44.97445" lon="1.03342">
        <ele>102.5</ele>
        <time>2022-08-17T14:15:04Z</time>
      </trkpt>
      <trkpt lat="44.97442" lon="1.0334">
        <ele>102.4</ele>
        <time>2022-08-17T14:15:06Z</time>
      </trkpt>
      <trkpt lat="44.97439" lon="1.03338">
        <ele>102.9</ele>
        <time>2022-08-17T14:15:08Z</time>
      </trkpt>
      <trkpt lat="44.97436" lon="1.03335">
        <ele>103.3</ele>
        <time>2022-08-17T14:15:10Z</time>
      </trkpt>
      <trkpt lat="44.97434" lon="1.03333">
        <ele>103.6</ele>
        <time>2022-08-17T14:15:12Z</time>
      </trkpt>
      <trkpt lat="44.9743" lon="1.03331">
        <ele>103.5</ele>
        <time>2022-08-17T14:15:14Z</time>
      </trkpt>
      <trkpt lat="44.97428" lon="1.03328">
        <ele>104.2</ele>
        <time>2022-08-17T14:15:16Z</time>
      </trkpt>
      <trkpt lat="44.97425" lon="1.03324">
        <ele>104.8</ele>
        <time>2022-08-17T14:15:18Z</time>
      </trkpt>
      <trkpt lat="44.97422" lon="1.03323">
        <ele>104.6</ele>
        <time>2022-08-17T14:15:20Z</time>
      </trkpt>
      <trkpt lat="44.97419" lon="1.03322">
        <ele>104.4</ele>
        <time>2022-08-17T14:15:22Z</time>
      </trkpt>
      <trkpt lat="44.97416" lon="1.0332">
        <ele>104.3</ele>
        <time>2022-08-17T14:15:24Z</time>
      </trkpt>
      <trkpt lat="44.97414" lon="1.0332">
        <ele>104.2</ele>
        <time>2022-08-17T14:15:26Z</time>
      </trkpt>
      <trkpt lat="44.97411" lon="1.03318">
        <ele>104.4</ele>
        <time>2022-08-17T14:15:28Z</time>
      </trkpt>
      <trkpt lat="44.97409" lon="1.03316">
        <ele>104.5</ele>
        <time>2022-08-17T14:15:30Z</time>
      </trkpt>
      <trkpt lat="44.97406" lon="1.03314">
        <ele>104.6</ele>
        <time>2022-08-17T14:15:32Z</time>
      </trkpt>
      <trkpt lat="44.97403" lon="1.03312">
        <ele>105</ele>
        <time>2022-08-17T14:15:34Z</time>
      </trkpt>
      <trkpt lat="44.974" lon="1.03311">
        <ele>104.7</ele>
        <time>2022-08-17T14:15:36Z</time>
      </trkpt>
      <trkpt lat="44.97397" lon="1.0331">
        <ele>104.8</ele>
        <time>2022-08-17T14:15:38Z</time>
      </trkpt>
      <trkpt lat="44.97394" lon="1.03308">
        <ele>104.9</ele>
        <time>2022-08-17T14:15:40Z</time>
      </trkpt>
      <trkpt lat="44.97391" lon="1.03307">
        <ele>104.6</ele>
        <time>2022-08-17T14:15:42Z</time>
      </trkpt>
      <trkpt lat="44.97387" lon="1.03306">
        <ele>104.3</ele>
        <time>2022-08-17T14:15:44Z</time>
      </trkpt>
      <trkpt lat="44.97386" lon="1.03305">
        <ele>104.5</ele>
        <time>2022-08-17T14:15:46Z</time>
      </trkpt>
      <trkpt lat="44.97382" lon="1.03302">
        <ele>104.8</ele>
        <time>2022-08-17T14:15:48Z</time>
      </trkpt>
      <trkpt lat="44.97379" lon="1.033">
        <ele>104.9</ele>
        <time>2022-08-17T14:15:50Z</time>
      </trkpt>
      <trkpt lat="44.97376" lon="1.03299">
        <ele>104.9</ele>
        <time>2022-08-17T14:15:52Z</time>
      </trkpt>
      <trkpt lat="44.97372" lon="1.03297">
        <ele>104.8</ele>
        <time>2022-08-17T14:15:54Z</time>
      </trkpt>
      <trkpt lat="44.97369" lon="1.03296">
        <ele>104.9</ele>
        <time>2022-08-17T14:15:56Z</time>
      </trkpt>
      <trkpt lat="44.97366" lon="1.03294">
        <ele>104.9</ele>
        <time>2022-08-17T14:15:58Z</time>
      </trkpt>
      <trkpt lat="44.97362" lon="1.03294">
        <ele>104.4</ele>
        <time>2022-08-17T14:16:00Z</time>
      </trkpt>
      <trkpt lat="44.97359" lon="1.03292">
        <ele>104.4</ele>
        <time>2022-08-17T14:16:02Z</time>
      </trkpt>
      <trkpt lat="44.97357" lon="1.0329">
        <ele>105</ele>
        <time>2022-08-17T14:16:04Z</time>
      </trkpt>
      <trkpt lat="44.97354" lon="1.03287">
        <ele>105.5</ele>
        <time>2022-08-17T14:16:06Z</time>
      </trkpt>
      <trkpt lat="44.97351" lon="1.03285">
        <ele>105.5</ele>
        <time>2022-08-17T14:16:08Z</time>
      </trkpt>
      <trkpt lat="44.97348" lon="1.03284">
        <ele>105.7</ele>
        <time>2022-08-17T14:16:10Z</time>
      </trkpt>
      <trkpt lat="44.97347" lon="1.03283">
        <ele>105.6</ele>
        <time>2022-08-17T14:16:12Z</time>
      </trkpt>
      <trkpt lat="44.97343" lon="1.03282">
        <ele>105.3</ele>
        <time>2022-08-17T14:16:14Z</time>
      </trkpt>
      <trkpt lat="44.97339" lon="1.03283">
        <ele>104.6</ele>
        <time>2022-08-17T14:16:16Z</time>
      </trkpt>
      <trkpt lat="44.97336" lon="1.03281">
        <ele>104.6</ele>
        <time>2022-08-17T14:16:18Z</time>
      </trkpt>
      <trkpt lat="44.97332" lon="1.03279">
        <ele>104.8</ele>
        <time>2022-08-17T14:16:20Z</time>
      </trkpt>
      <trkpt lat="44.97329" lon="1.03277">
        <ele>105.3</ele>
        <time>2022-08-17T14:16:22Z</time>
      </trkpt>
      <trkpt lat="44.97325" lon="1.03275">
        <ele>105.6</ele>
        <time>2022-08-17T14:16:24Z</time>
      </trkpt>
      <trkpt lat="44.97322" lon="1.03274">
        <ele>106</ele>
        <time>2022-08-17T14:16:26Z</time>
      </trkpt>
      <trkpt lat="44.97319" lon="1.03272">
        <ele>106.3</ele>
        <time>2022-08-17T14:16:28Z</time>
      </trkpt>
      <trkpt lat="44.97316" lon="1.03271">
        <ele>106.6</ele>
        <time>2022-08-17T14:16:30Z</time>
      </trkpt>
      <trkpt lat="44.97312" lon="1.03269">
        <ele>106.8</ele>
        <time>2022-08-17T14:16:32Z</time>
      </trkpt>
      <trkpt lat="44.97309" lon="1.03267">
        <ele>107.5</ele>
        <time>2022-08-17T14:16:34Z</time>
      </trkpt>
      <trkpt lat="44.97306" lon="1.03265">
        <ele>107.7</ele>
        <time>2022-08-17T14:16:36Z</time>
      </trkpt>
      <trkpt lat="44.97302" lon="1.03264">
        <ele>107.9</ele>
        <time>2022-08-17T14:16:38Z</time>
      </trkpt>
      <trkpt lat="44.97299" lon="1.03262">
        <ele>108.3</ele>
        <time>2022-08-17T14:16:40Z</time>
      </trkpt>
      <trkpt lat="44.97295" lon="1.03261">
        <ele>108.6</ele>
        <time>2022-08-17T14:16:42Z</time>
      </trkpt>
      <trkpt lat="44.97292" lon="1.03259">
        <ele>109.1</ele>
        <time>2022-08-17T14:16:44Z</time>
      </trkpt>
      <trkpt lat="44.97289" lon="1.03257">
        <ele>109.4</ele>
        <time>2022-08-17T14:16:46Z</time>
      </trkpt>
      <trkpt lat="44.97285" lon="1.03255">
        <ele>109.8</ele>
        <time>2022-08-17T14:16:48Z</time>
      </trkpt>
      <trkpt lat="44.97281" lon="1.03253">
        <ele>110.2</ele>
        <time>2022-08-17T14:16:50Z</time>
      </trkpt>
      <trkpt lat="44.97277" lon="1.03252">
        <ele>110.3</ele>
        <time>2022-08-17T14:16:52Z</time>
      </trkpt>
      <trkpt lat="44.97274" lon="1.03251">
        <ele>110.5</ele>
        <time>2022-08-17T14:16:54Z</time>
      </trkpt>
      <trkpt lat="44.97271" lon="1.03249">
        <ele>110.8</ele>
        <time>2022-08-17T14:16:56Z</time>
      </trkpt>
      <trkpt lat="44.97268" lon="1.03248">
        <ele>110.8</ele>
        <time>2022-08-17T14:16:58Z</time>
      </trkpt>
      <trkpt lat="44.97264" lon="1.03246">
        <ele>110.9</ele>
        <time>2022-08-17T14:17:00Z</time>
      </trkpt>
      <trkpt lat="44.97261" lon="1.03245">
        <ele>110.9</ele>
        <time>2022-08-17T14:17:02Z</time>
      </trkpt>
      <trkpt lat="44.97257" lon="1.03243">
        <ele>111</ele>
        <time>2022-08-17T14:17:04Z</time>
      </trkpt>
      <trkpt lat="44.97255" lon="1.03243">
        <ele>111</ele>
        <time>2022-08-17T14:17:06Z</time>
      </trkpt>
      <trkpt lat="44.97251" lon="1.03241">
        <ele>111.2</ele>
        <time>2022-08-17T14:17:08Z</time>
      </trkpt>
      <trkpt lat="44.97247" lon="1.03239">
        <ele>111.5</ele>
        <time>2022-08-17T14:17:10Z</time>
      </trkpt>
      <trkpt lat="44.97243" lon="1.03238">
        <ele>111.6</ele>
        <time>2022-08-17T14:17:12Z</time>
      </trkpt>
      <trkpt lat="44.9724" lon="1.03237">
        <ele>111.7</ele>
        <time>2022-08-17T14:17:14Z</time>
      </trkpt>
      <trkpt lat="44.97237" lon="1.03235">
        <ele>111.9</ele>
        <time>2022-08-17T14:17:16Z</time>
      </trkpt>
      <trkpt lat="44.97233" lon="1.03235">
        <ele>111.8</ele>
        <time>2022-08-17T14:17:18Z</time>
      </trkpt>
      <trkpt lat="44.9723" lon="1.03234">
        <ele>111.9</ele>
        <time>2022-08-17T14:17:20Z</time>
      </trkpt>
      <trkpt lat="44.97227" lon="1.03235">
        <ele>111.7</ele>
        <time>2022-08-17T14:17:22Z</time>
      </trkpt>
      <trkpt lat="44.97224" lon="1.03234">
        <ele>111.7</ele>
        <time>2022-08-17T14:17:24Z</time>
      </trkpt>
      <trkpt lat="44.97221" lon="1.03233">
        <ele>111.8</ele>
        <time>2022-08-17T14:17:26Z</time>
      </trkpt>
      <trkpt lat="44.97218" lon="1.03232">
        <ele>111.9</ele>
        <time>2022-08-17T14:17:28Z</time>
      </trkpt>
      <trkpt lat="44.97214" lon="1.03231">
        <ele>112</ele>
        <time>2022-08-17T14:17:30Z</time>
      </trkpt>
      <trkpt lat="44.97211" lon="1.0323">
        <ele>111.9</ele>
        <time>2022-08-17T14:17:32Z</time>
      </trkpt>
      <trkpt lat="44.97209" lon="1.0323">
        <ele>111.9</ele>
        <time>2022-08-17T14:17:34Z</time>
      </trkpt>
      <trkpt lat="44.97206" lon="1.03229">
        <ele>111.9</ele>
        <time>2022-08-17T14:17:36Z</time>
      </trkpt>
      <trkpt lat="44.97203" lon="1.0323">
        <ele>111.7</ele>
        <time>2022-08-17T14:17:38Z</time>
      </trkpt>
      <trkpt lat="44.97202" lon="1.03229">
        <ele>111.7</ele>
        <time>2022-08-17T14:17:40Z</time>
      </trkpt>
      <trkpt lat="44.97202" lon="1.03229">
        <ele>111.7</ele>
        <time>2022-08-17T14:17:42Z</time>
      </trkpt>
      <trkpt lat="44.97201" lon="1.0323">
        <ele>111.6</ele>
        <time>2022-08-17T14:17:44Z</time>
      </trkpt>
      <trkpt lat="44.97201" lon="1.0323">
        <ele>111.6</ele>
        <time>2022-08-17T14:17:46Z</time>
      </trkpt>
      <trkpt lat="44.97187" lon="1.0324">
        <ele>109.7</ele>
        <time>2022-08-17T14:18:46Z</time>
      </trkpt>
      <trkpt lat="44.97183" lon="1.03238">
        <ele>109.7</ele>
        <time>2022-08-17T14:18:48Z</time>
      </trkpt>
      <trkpt lat="44.97179" lon="1.03237">
        <ele>109.8</ele>
        <time>2022-08-17T14:18:50Z</time>
      </trkpt>
      <trkpt lat="44.97174" lon="1.03238">
        <ele>109.5</ele>
        <time>2022-08-17T14:18:52Z</time>
      </trkpt>
      <trkpt lat="44.97168" lon="1.03238">
        <ele>109.3</ele>
        <time>2022-08-17T14:18:54Z</time>
      </trkpt>
      <trkpt lat="44.97163" lon="1.03238">
        <ele>109.3</ele>
        <time>2022-08-17T14:18:56Z</time>
      </trkpt>
      <trkpt lat="44.97158" lon="1.03237">
        <ele>109.3</ele>
        <time>2022-08-17T14:18:58Z</time>
      </trkpt>
      <trkpt lat="44.97152" lon="1.03237">
        <ele>109.2</ele>
        <time>2022-08-17T14:19:00Z</time>
      </trkpt>
      <trkpt lat="44.97145" lon="1.03236">
        <ele>109.2</ele>
        <time>2022-08-17T14:19:02Z</time>
      </trkpt>
      <trkpt lat="44.97137" lon="1.03236">
        <ele>109.1</ele>
        <time>2022-08-17T14:19:04Z</time>
      </trkpt>
      <trkpt lat="44.97131" lon="1.03235">
        <ele>109.1</ele>
        <time>2022-08-17T14:19:06Z</time>
      </trkpt>
      <trkpt lat="44.97124" lon="1.03234">
        <ele>109.2</ele>
        <time>2022-08-17T14:19:08Z</time>
      </trkpt>
      <trkpt lat="44.97118" lon="1.03235">
        <ele>108.9</ele>
        <time>2022-08-17T14:19:10Z</time>
      </trkpt>
      <trkpt lat="44.9711" lon="1.03238">
        <ele>108.5</ele>
        <time>2022-08-17T14:19:12Z</time>
      </trkpt>
      <trkpt lat="44.97104" lon="1.03239">
        <ele>108.3</ele>
        <time>2022-08-17T14:19:14Z</time>
      </trkpt>
      <trkpt lat="44.97098" lon="1.0324">
        <ele>108.2</ele>
        <time>2022-08-17T14:19:16Z</time>
      </trkpt>
      <trkpt lat="44.97092" lon="1.03241">
        <ele>108</ele>
        <time>2022-08-17T14:19:18Z</time>
      </trkpt>
      <trkpt lat="44.97088" lon="1.03241">
        <ele>107.9</ele>
        <time>2022-08-17T14:19:20Z</time>
      </trkpt>
      <trkpt lat="44.97084" lon="1.03241">
        <ele>107.9</ele>
        <time>2022-08-17T14:19:22Z</time>
      </trkpt>
      <trkpt lat="44.97078" lon="1.03242">
        <ele>107.9</ele>
        <time>2022-08-17T14:19:24Z</time>
      </trkpt>
      <trkpt lat="44.97071" lon="1.03241">
        <ele>108.2</ele>
        <time>2022-08-17T14:19:26Z</time>
      </trkpt>
      <trkpt lat="44.97064" lon="1.03238">
        <ele>108.6</ele>
        <time>2022-08-17T14:19:28Z</time>
      </trkpt>
      <trkpt lat="44.97057" lon="1.03238">
        <ele>108.8</ele>
        <time>2022-08-17T14:19:30Z</time>
      </trkpt>
      <trkpt lat="44.97047" lon="1.0324">
        <ele>108.8</ele>
        <time>2022-08-17T14:19:32Z</time>
      </trkpt>
      <trkpt lat="44.97039" lon="1.03241">
        <ele>108.9</ele>
        <time>2022-08-17T14:19:34Z</time>
      </trkpt>
      <trkpt lat="44.97032" lon="1.03245">
        <ele>108.7</ele>
        <time>2022-08-17T14:19:36Z</time>
      </trkpt>
      <trkpt lat="44.97024" lon="1.0325">
        <ele>108.4</ele>
        <time>2022-08-17T14:19:38Z</time>
      </trkpt>
      <trkpt lat="44.97016" lon="1.03254">
        <ele>107.9</ele>
        <time>2022-08-17T14:19:40Z</time>
      </trkpt>
      <trkpt lat="44.97009" lon="1.03259">
        <ele>107.1</ele>
        <time>2022-08-17T14:19:42Z</time>
      </trkpt>
      <trkpt lat="44.97003" lon="1.03265">
        <ele>106.2</ele>
        <time>2022-08-17T14:19:44Z</time>
      </trkpt>
      <trkpt lat="44.96997" lon="1.0327">
        <ele>105.5</ele>
        <time>2022-08-17T14:19:46Z</time>
      </trkpt>
      <trkpt lat="44.96992" lon="1.03278">
        <ele>104.1</ele>
        <time>2022-08-17T14:19:48Z</time>
      </trkpt>
      <trkpt lat="44.96985" lon="1.03286">
        <ele>102.7</ele>
        <time>2022-08-17T14:19:50Z</time>
      </trkpt>
      <trkpt lat="44.96977" lon="1.03296">
        <ele>101.1</ele>
        <time>2022-08-17T14:19:52Z</time>
      </trkpt>
      <trkpt lat="44.96968" lon="1.03303">
        <ele>100</ele>
        <time>2022-08-17T14:19:54Z</time>
      </trkpt>
      <trkpt lat="44.96959" lon="1.03312">
        <ele>98.9</ele>
        <time>2022-08-17T14:19:56Z</time>
      </trkpt>
      <trkpt lat="44.96951" lon="1.03318">
        <ele>98.1</ele>
        <time>2022-08-17T14:19:58Z</time>
      </trkpt>
      <trkpt lat="44.96946" lon="1.03325">
        <ele>97.3</ele>
        <time>2022-08-17T14:20:00Z</time>
      </trkpt>
      <trkpt lat="44.96941" lon="1.03329">
        <ele>97</ele>
        <time>2022-08-17T14:20:02Z</time>
      </trkpt>
      <trkpt lat="44.96939" lon="1.03337">
        <ele>95.9</ele>
        <time>2022-08-17T14:20:04Z</time>
      </trkpt>
      <trkpt lat="44.96933" lon="1.03341">
        <ele>95.4</ele>
        <time>2022-08-17T14:20:06Z</time>
      </trkpt>
      <trkpt lat="44.96929" lon="1.03346">
        <ele>95</ele>
        <time>2022-08-17T14:20:08Z</time>
      </trkpt>
      <trkpt lat="44.96926" lon="1.0335">
        <ele>94.5</ele>
        <time>2022-08-17T14:20:10Z</time>
      </trkpt>
      <trkpt lat="44.96922" lon="1.03354">
        <ele>94.2</ele>
        <time>2022-08-17T14:20:12Z</time>
      </trkpt>
      <trkpt lat="44.96917" lon="1.03359">
        <ele>93.9</ele>
        <time>2022-08-17T14:20:14Z</time>
      </trkpt>
      <trkpt lat="44.96914" lon="1.03361">
        <ele>93.3</ele>
        <time>2022-08-17T14:20:16Z</time>
      </trkpt>
      <trkpt lat="44.96908" lon="1.03367">
        <ele>91.7</ele>
        <time>2022-08-17T14:20:18Z</time>
      </trkpt>
      <trkpt lat="44.96902" lon="1.03369">
        <ele>90.7</ele>
        <time>2022-08-17T14:20:20Z</time>
      </trkpt>
      <trkpt lat="44.96894" lon="1.03376">
        <ele>89.1</ele>
        <time>2022-08-17T14:20:22Z</time>
      </trkpt>
      <trkpt lat="44.96887" lon="1.03379">
        <ele>88</ele>
        <time>2022-08-17T14:20:24Z</time>
      </trkpt>
      <trkpt lat="44.96881" lon="1.03382">
        <ele>87.2</ele>
        <time>2022-08-17T14:20:26Z</time>
      </trkpt>
      <trkpt lat="44.96874" lon="1.03385">
        <ele>86.4</ele>
        <time>2022-08-17T14:20:28Z</time>
      </trkpt>
      <trkpt lat="44.9687" lon="1.03387">
        <ele>85.9</ele>
        <time>2022-08-17T14:20:30Z</time>
      </trkpt>
      <trkpt lat="44.96865" lon="1.0339">
        <ele>85.4</ele>
        <time>2022-08-17T14:20:32Z</time>
      </trkpt>
      <trkpt lat="44.96859" lon="1.03395">
        <ele>84.9</ele>
        <time>2022-08-17T14:20:34Z</time>
      </trkpt>
      <trkpt lat="44.96856" lon="1.034">
        <ele>84.7</ele>
        <time>2022-08-17T14:20:36Z</time>
      </trkpt>
      <trkpt lat="44.96853" lon="1.03404">
        <ele>84.5</ele>
        <time>2022-08-17T14:20:38Z</time>
      </trkpt>
      <trkpt lat="44.96853" lon="1.03408">
        <ele>84.6</ele>
        <time>2022-08-17T14:20:40Z</time>
      </trkpt>
      <trkpt lat="44.96854" lon="1.03411">
        <ele>84.7</ele>
        <time>2022-08-17T14:20:42Z</time>
      </trkpt>
      <trkpt lat="44.96855" lon="1.03411">
        <ele>84.7</ele>
        <time>2022-08-17T14:20:44Z</time>
      </trkpt>
      <trkpt lat="44.96854" lon="1.03411">
        <ele>84.7</ele>
        <time>2022-08-17T14:20:46Z</time>
      </trkpt>
      <trkpt lat="44.96855" lon="1.03413">
        <ele>84.7</ele>
        <time>2022-08-17T14:20:48Z</time>
      </trkpt>
      <trkpt lat="44.96855" lon="1.03414">
        <ele>84.8</ele>
        <time>2022-08-17T14:20:50Z</time>
      </trkpt>
      <trkpt lat="44.96871" lon="1.03411">
        <ele>85.5</ele>
        <time>2022-08-17T15:30:22Z</time>
      </trkpt>
      <trkpt lat="44.96865" lon="1.03417">
        <ele>85.1</ele>
        <time>2022-08-17T15:30:23Z</time>
      </trkpt>
      <trkpt lat="44.96854" lon="1.03396">
        <ele>84.4</ele>
        <time>2022-08-17T15:31:52Z</time>
      </trkpt>
      <trkpt lat="44.96859" lon="1.03395">
        <ele>84.8</ele>
        <time>2022-08-17T15:31:54Z</time>
      </trkpt>
      <trkpt lat="44.9686" lon="1.03394">
        <ele>84.9</ele>
        <time>2022-08-17T15:31:56Z</time>
      </trkpt>
      <trkpt lat="44.96864" lon="1.03393">
        <ele>85.2</ele>
        <time>2022-08-17T15:31:58Z</time>
      </trkpt>
      <trkpt lat="44.96866" lon="1.03391">
        <ele>85.5</ele>
        <time>2022-08-17T15:32:00Z</time>
      </trkpt>
      <trkpt lat="44.96869" lon="1.03389">
        <ele>85.8</ele>
        <time>2022-08-17T15:32:02Z</time>
      </trkpt>
      <trkpt lat="44.96871" lon="1.03388">
        <ele>86</ele>
        <time>2022-08-17T15:32:04Z</time>
      </trkpt>
      <trkpt lat="44.96873" lon="1.03388">
        <ele>86.2</ele>
        <time>2022-08-17T15:32:06Z</time>
      </trkpt>
      <trkpt lat="44.96876" lon="1.03385">
        <ele>86.6</ele>
        <time>2022-08-17T15:32:08Z</time>
      </trkpt>
      <trkpt lat="44.96881" lon="1.03383">
        <ele>87.1</ele>
        <time>2022-08-17T15:32:10Z</time>
      </trkpt>
      <trkpt lat="44.96885" lon="1.03381">
        <ele>87.7</ele>
        <time>2022-08-17T15:32:12Z</time>
      </trkpt>
      <trkpt lat="44.96887" lon="1.03379">
        <ele>88.1</ele>
        <time>2022-08-17T15:32:14Z</time>
      </trkpt>
      <trkpt lat="44.96892" lon="1.03377">
        <ele>88.8</ele>
        <time>2022-08-17T15:32:16Z</time>
      </trkpt>
      <trkpt lat="44.96895" lon="1.03374">
        <ele>89.3</ele>
        <time>2022-08-17T15:32:18Z</time>
      </trkpt>
      <trkpt lat="44.96898" lon="1.03371">
        <ele>89.9</ele>
        <time>2022-08-17T15:32:20Z</time>
      </trkpt>
      <trkpt lat="44.96902" lon="1.03368">
        <ele>90.7</ele>
        <time>2022-08-17T15:32:22Z</time>
      </trkpt>
      <trkpt lat="44.96906" lon="1.03366">
        <ele>91.5</ele>
        <time>2022-08-17T15:32:24Z</time>
      </trkpt>
      <trkpt lat="44.96908" lon="1.03361">
        <ele>92.4</ele>
        <time>2022-08-17T15:32:26Z</time>
      </trkpt>
      <trkpt lat="44.96912" lon="1.03358">
        <ele>93.2</ele>
        <time>2022-08-17T15:32:28Z</time>
      </trkpt>
      <trkpt lat="44.96915" lon="1.03354">
        <ele>94.2</ele>
        <time>2022-08-17T15:32:30Z</time>
      </trkpt>
      <trkpt lat="44.96918" lon="1.03352">
        <ele>94.7</ele>
        <time>2022-08-17T15:32:32Z</time>
      </trkpt>
      <trkpt lat="44.96921" lon="1.03348">
        <ele>95.1</ele>
        <time>2022-08-17T15:32:34Z</time>
      </trkpt>
      <trkpt lat="44.96924" lon="1.03343">
        <ele>95.5</ele>
        <time>2022-08-17T15:32:36Z</time>
      </trkpt>
      <trkpt lat="44.96927" lon="1.03339">
        <ele>96</ele>
        <time>2022-08-17T15:32:38Z</time>
      </trkpt>
      <trkpt lat="44.96931" lon="1.03337">
        <ele>96.1</ele>
        <time>2022-08-17T15:32:40Z</time>
      </trkpt>
      <trkpt lat="44.96934" lon="1.03334">
        <ele>96.5</ele>
        <time>2022-08-17T15:32:42Z</time>
      </trkpt>
      <trkpt lat="44.96938" lon="1.0333">
        <ele>96.9</ele>
        <time>2022-08-17T15:32:44Z</time>
      </trkpt>
      <trkpt lat="44.96942" lon="1.03326">
        <ele>97.3</ele>
        <time>2022-08-17T15:32:46Z</time>
      </trkpt>
      <trkpt lat="44.96946" lon="1.0332">
        <ele>98</ele>
        <time>2022-08-17T15:32:48Z</time>
      </trkpt>
      <trkpt lat="44.96951" lon="1.03315">
        <ele>98.4</ele>
        <time>2022-08-17T15:32:50Z</time>
      </trkpt>
      <trkpt lat="44.96957" lon="1.03311">
        <ele>98.9</ele>
        <time>2022-08-17T15:32:52Z</time>
      </trkpt>
      <trkpt lat="44.96961" lon="1.03307">
        <ele>99.4</ele>
        <time>2022-08-17T15:32:54Z</time>
      </trkpt>
      <trkpt lat="44.96966" lon="1.03302">
        <ele>100.1</ele>
        <time>2022-08-17T15:32:56Z</time>
      </trkpt>
      <trkpt lat="44.96971" lon="1.03298">
        <ele>100.7</ele>
        <time>2022-08-17T15:32:58Z</time>
      </trkpt>
      <trkpt lat="44.96976" lon="1.03297">
        <ele>101</ele>
        <time>2022-08-17T15:33:00Z</time>
      </trkpt>
      <trkpt lat="44.9698" lon="1.03296">
        <ele>101.1</ele>
        <time>2022-08-17T15:33:02Z</time>
      </trkpt>
      <trkpt lat="44.96983" lon="1.03288">
        <ele>102.3</ele>
        <time>2022-08-17T15:33:04Z</time>
      </trkpt>
      <trkpt lat="44.96988" lon="1.03284">
        <ele>103.1</ele>
        <time>2022-08-17T15:33:06Z</time>
      </trkpt>
      <trkpt lat="44.96991" lon="1.03281">
        <ele>103.7</ele>
        <time>2022-08-17T15:33:08Z</time>
      </trkpt>
      <trkpt lat="44.96993" lon="1.03277">
        <ele>104.3</ele>
        <time>2022-08-17T15:33:10Z</time>
      </trkpt>
      <trkpt lat="44.96997" lon="1.03275">
        <ele>104.7</ele>
        <time>2022-08-17T15:33:12Z</time>
      </trkpt>
      <trkpt lat="44.97" lon="1.03269">
        <ele>105.8</ele>
        <time>2022-08-17T15:33:14Z</time>
      </trkpt>
      <trkpt lat="44.97004" lon="1.03263">
        <ele>106.6</ele>
        <time>2022-08-17T15:33:16Z</time>
      </trkpt>
      <trkpt lat="44.97008" lon="1.03261">
        <ele>106.9</ele>
        <time>2022-08-17T15:33:18Z</time>
      </trkpt>
      <trkpt lat="44.9701" lon="1.03257">
        <ele>107.4</ele>
        <time>2022-08-17T15:33:20Z</time>
      </trkpt>
      <trkpt lat="44.97014" lon="1.03253">
        <ele>108.1</ele>
        <time>2022-08-17T15:33:22Z</time>
      </trkpt>
      <trkpt lat="44.97017" lon="1.03249">
        <ele>108.6</ele>
        <time>2022-08-17T15:33:24Z</time>
      </trkpt>
      <trkpt lat="44.97022" lon="1.03247">
        <ele>108.8</ele>
        <time>2022-08-17T15:33:26Z</time>
      </trkpt>
      <trkpt lat="44.97026" lon="1.03242">
        <ele>109</ele>
        <time>2022-08-17T15:33:28Z</time>
      </trkpt>
      <trkpt lat="44.9703" lon="1.0324">
        <ele>109.2</ele>
        <time>2022-08-17T15:33:30Z</time>
      </trkpt>
      <trkpt lat="44.97033" lon="1.03238">
        <ele>109.3</ele>
        <time>2022-08-17T15:33:32Z</time>
      </trkpt>
      <trkpt lat="44.97038" lon="1.03237">
        <ele>109.3</ele>
        <time>2022-08-17T15:33:34Z</time>
      </trkpt>
      <trkpt lat="44.97042" lon="1.03236">
        <ele>109.2</ele>
        <time>2022-08-17T15:33:36Z</time>
      </trkpt>
      <trkpt lat="44.97046" lon="1.03236">
        <ele>109.2</ele>
        <time>2022-08-17T15:33:38Z</time>
      </trkpt>
      <trkpt lat="44.97048" lon="1.03234">
        <ele>109.3</ele>
        <time>2022-08-17T15:33:40Z</time>
      </trkpt>
      <trkpt lat="44.97051" lon="1.03232">
        <ele>109.4</ele>
        <time>2022-08-17T15:33:42Z</time>
      </trkpt>
      <trkpt lat="44.97056" lon="1.03234">
        <ele>109.2</ele>
        <time>2022-08-17T15:33:44Z</time>
      </trkpt>
      <trkpt lat="44.9706" lon="1.03235">
        <ele>109</ele>
        <time>2022-08-17T15:33:46Z</time>
      </trkpt>
      <trkpt lat="44.97064" lon="1.03235">
        <ele>108.8</ele>
        <time>2022-08-17T15:33:48Z</time>
      </trkpt>
      <trkpt lat="44.97068" lon="1.03236">
        <ele>108.7</ele>
        <time>2022-08-17T15:33:50Z</time>
      </trkpt>
      <trkpt lat="44.97071" lon="1.03236">
        <ele>108.6</ele>
        <time>2022-08-17T15:33:52Z</time>
      </trkpt>
      <trkpt lat="44.97075" lon="1.03236">
        <ele>108.6</ele>
        <time>2022-08-17T15:33:54Z</time>
      </trkpt>
      <trkpt lat="44.97079" lon="1.03235">
        <ele>108.5</ele>
        <time>2022-08-17T15:33:56Z</time>
      </trkpt>
      <trkpt lat="44.97084" lon="1.03235">
        <ele>108.5</ele>
        <time>2022-08-17T15:33:58Z</time>
      </trkpt>
      <trkpt lat="44.97088" lon="1.03233">
        <ele>108.7</ele>
        <time>2022-08-17T15:34:00Z</time>
      </trkpt>
      <trkpt lat="44.97093" lon="1.03234">
        <ele>108.6</ele>
        <time>2022-08-17T15:34:02Z</time>
      </trkpt>
      <trkpt lat="44.97096" lon="1.03234">
        <ele>108.7</ele>
        <time>2022-08-17T15:34:04Z</time>
      </trkpt>
      <trkpt lat="44.971" lon="1.03234">
        <ele>108.8</ele>
        <time>2022-08-17T15:34:06Z</time>
      </trkpt>
      <trkpt lat="44.97103" lon="1.03232">
        <ele>109</ele>
        <time>2022-08-17T15:34:08Z</time>
      </trkpt>
      <trkpt lat="44.97107" lon="1.03232">
        <ele>109.1</ele>
        <time>2022-08-17T15:34:10Z</time>
      </trkpt>
      <trkpt lat="44.9711" lon="1.03229">
        <ele>109.4</ele>
        <time>2022-08-17T15:34:12Z</time>
      </trkpt>
      <trkpt lat="44.97113" lon="1.03227">
        <ele>109.6</ele>
        <time>2022-08-17T15:34:14Z</time>
      </trkpt>
      <trkpt lat="44.97116" lon="1.03226">
        <ele>109.8</ele>
        <time>2022-08-17T15:34:16Z</time>
      </trkpt>
      <trkpt lat="44.9712" lon="1.03225">
        <ele>109.9</ele>
        <time>2022-08-17T15:34:18Z</time>
      </trkpt>
      <trkpt lat="44.97123" lon="1.03225">
        <ele>110</ele>
        <time>2022-08-17T15:34:20Z</time>
      </trkpt>
      <trkpt lat="44.97127" lon="1.03226">
        <ele>110</ele>
        <time>2022-08-17T15:34:22Z</time>
      </trkpt>
      <trkpt lat="44.97131" lon="1.03226">
        <ele>110</ele>
        <time>2022-08-17T15:34:24Z</time>
      </trkpt>
      <trkpt lat="44.97135" lon="1.03226">
        <ele>110.1</ele>
        <time>2022-08-17T15:34:26Z</time>
      </trkpt>
      <trkpt lat="44.97139" lon="1.03227">
        <ele>110</ele>
        <time>2022-08-17T15:34:28Z</time>
      </trkpt>
      <trkpt lat="44.97142" lon="1.03228">
        <ele>110</ele>
        <time>2022-08-17T15:34:30Z</time>
      </trkpt>
      <trkpt lat="44.97142" lon="1.03228">
        <ele>110</ele>
        <time>2022-08-17T15:34:32Z</time>
      </trkpt>
      <trkpt lat="44.97144" lon="1.03227">
        <ele>110.1</ele>
        <time>2022-08-17T15:34:34Z</time>
      </trkpt>
      <trkpt lat="44.97149" lon="1.03228">
        <ele>110.1</ele>
        <time>2022-08-17T15:34:36Z</time>
      </trkpt>
      <trkpt lat="44.97153" lon="1.03227">
        <ele>110.2</ele>
        <time>2022-08-17T15:34:38Z</time>
      </trkpt>
      <trkpt lat="44.97157" lon="1.03227">
        <ele>110.3</ele>
        <time>2022-08-17T15:34:40Z</time>
      </trkpt>
      <trkpt lat="44.97161" lon="1.03228">
        <ele>110.3</ele>
        <time>2022-08-17T15:34:42Z</time>
      </trkpt>
      <trkpt lat="44.97165" lon="1.03227">
        <ele>110.5</ele>
        <time>2022-08-17T15:34:44Z</time>
      </trkpt>
      <trkpt lat="44.97169" lon="1.03227">
        <ele>110.5</ele>
        <time>2022-08-17T15:34:46Z</time>
      </trkpt>
      <trkpt lat="44.97173" lon="1.03227">
        <ele>110.8</ele>
        <time>2022-08-17T15:34:48Z</time>
      </trkpt>
      <trkpt lat="44.97177" lon="1.03226">
        <ele>111.1</ele>
        <time>2022-08-17T15:34:50Z</time>
      </trkpt>
      <trkpt lat="44.97181" lon="1.03226">
        <ele>111.3</ele>
        <time>2022-08-17T15:34:52Z</time>
      </trkpt>
      <trkpt lat="44.97185" lon="1.03225">
        <ele>111.5</ele>
        <time>2022-08-17T15:34:54Z</time>
      </trkpt>
      <trkpt lat="44.97189" lon="1.03226">
        <ele>111.6</ele>
        <time>2022-08-17T15:34:56Z</time>
      </trkpt>
      <trkpt lat="44.97194" lon="1.03227">
        <ele>111.7</ele>
        <time>2022-08-17T15:34:58Z</time>
      </trkpt>
      <trkpt lat="44.97198" lon="1.03226">
        <ele>112.1</ele>
        <time>2022-08-17T15:35:00Z</time>
      </trkpt>
      <trkpt lat="44.97202" lon="1.03226">
        <ele>112.3</ele>
        <time>2022-08-17T15:35:02Z</time>
      </trkpt>
      <trkpt lat="44.97206" lon="1.03226">
        <ele>112.5</ele>
        <time>2022-08-17T15:35:04Z</time>
      </trkpt>
      <trkpt lat="44.97212" lon="1.03226">
        <ele>112.6</ele>
        <time>2022-08-17T15:35:06Z</time>
      </trkpt>
      <trkpt lat="44.97218" lon="1.03227">
        <ele>112.8</ele>
        <time>2022-08-17T15:35:08Z</time>
      </trkpt>
      <trkpt lat="44.97224" lon="1.03228">
        <ele>112.9</ele>
        <time>2022-08-17T15:35:10Z</time>
      </trkpt>
      <trkpt lat="44.97233" lon="1.03232">
        <ele>112.5</ele>
        <time>2022-08-17T15:35:12Z</time>
      </trkpt>
      <trkpt lat="44.97245" lon="1.03233">
        <ele>112.6</ele>
        <time>2022-08-17T15:35:14Z</time>
      </trkpt>
      <trkpt lat="44.97258" lon="1.03239">
        <ele>112.1</ele>
        <time>2022-08-17T15:35:16Z</time>
      </trkpt>
      <trkpt lat="44.97271" lon="1.03248">
        <ele>111</ele>
        <time>2022-08-17T15:35:18Z</time>
      </trkpt>
      <trkpt lat="44.97285" lon="1.03251">
        <ele>111.2</ele>
        <time>2022-08-17T15:35:20Z</time>
      </trkpt>
      <trkpt lat="44.97297" lon="1.03256">
        <ele>110.3</ele>
        <time>2022-08-17T15:35:22Z</time>
      </trkpt>
      <trkpt lat="44.97307" lon="1.03263">
        <ele>108.7</ele>
        <time>2022-08-17T15:35:24Z</time>
      </trkpt>
      <trkpt lat="44.97316" lon="1.03267">
        <ele>107.8</ele>
        <time>2022-08-17T15:35:26Z</time>
      </trkpt>
      <trkpt lat="44.97323" lon="1.03271">
        <ele>106.9</ele>
        <time>2022-08-17T15:35:28Z</time>
      </trkpt>
      <trkpt lat="44.97328" lon="1.03272">
        <ele>106.9</ele>
        <time>2022-08-17T15:35:30Z</time>
      </trkpt>
      <trkpt lat="44.9733" lon="1.03273">
        <ele>106.8</ele>
        <time>2022-08-17T15:35:32Z</time>
      </trkpt>
      <trkpt lat="44.97332" lon="1.03274">
        <ele>106.6</ele>
        <time>2022-08-17T15:35:34Z</time>
      </trkpt>
      <trkpt lat="44.97336" lon="1.03276">
        <ele>106.4</ele>
        <time>2022-08-17T15:35:36Z</time>
      </trkpt>
      <trkpt lat="44.97339" lon="1.03276">
        <ele>106.7</ele>
        <time>2022-08-17T15:35:38Z</time>
      </trkpt>
      <trkpt lat="44.97341" lon="1.03278">
        <ele>106.6</ele>
        <time>2022-08-17T15:35:40Z</time>
      </trkpt>
      <trkpt lat="44.97345" lon="1.03279">
        <ele>106.8</ele>
        <time>2022-08-17T15:35:42Z</time>
      </trkpt>
      <trkpt lat="44.97352" lon="1.03279">
        <ele>107.8</ele>
        <time>2022-08-17T15:35:44Z</time>
      </trkpt>
      <trkpt lat="44.97353" lon="1.03282">
        <ele>106.8</ele>
        <time>2022-08-17T15:35:46Z</time>
      </trkpt>
      <trkpt lat="44.97353" lon="1.03282">
        <ele>107.1</ele>
        <time>2022-08-17T15:35:48Z</time>
      </trkpt>
      <trkpt lat="44.97353" lon="1.03282">
        <ele>107.1</ele>
        <time>2022-08-17T15:35:50Z</time>
      </trkpt>
      <trkpt lat="44.97354" lon="1.03282">
        <ele>107.2</ele>
        <time>2022-08-17T15:35:52Z</time>
      </trkpt>
      <trkpt lat="44.97354" lon="1.03282">
        <ele>107.4</ele>
        <time>2022-08-17T15:35:54Z</time>
      </trkpt>
      <trkpt lat="44.97369" lon="1.03291">
        <ele>106.6</ele>
        <time>2022-08-17T15:36:06Z</time>
      </trkpt>
      <trkpt lat="44.97377" lon="1.03297">
        <ele>105.8</ele>
        <time>2022-08-17T15:36:08Z</time>
      </trkpt>
      <trkpt lat="44.97387" lon="1.03301">
        <ele>105.8</ele>
        <time>2022-08-17T15:36:10Z</time>
      </trkpt>
      <trkpt lat="44.97396" lon="1.03306">
        <ele>105.7</ele>
        <time>2022-08-17T15:36:12Z</time>
      </trkpt>
      <trkpt lat="44.97405" lon="1.0331">
        <ele>105.9</ele>
        <time>2022-08-17T15:36:14Z</time>
      </trkpt>
      <trkpt lat="44.97418" lon="1.03315">
        <ele>106.3</ele>
        <time>2022-08-17T15:36:16Z</time>
      </trkpt>
      <trkpt lat="44.97429" lon="1.03324">
        <ele>105.8</ele>
        <time>2022-08-17T15:36:18Z</time>
      </trkpt>
      <trkpt lat="44.9744" lon="1.03334">
        <ele>104.4</ele>
        <time>2022-08-17T15:36:20Z</time>
      </trkpt>
      <trkpt lat="44.97456" lon="1.03345">
        <ele>103.2</ele>
        <time>2022-08-17T15:36:22Z</time>
      </trkpt>
      <trkpt lat="44.97472" lon="1.03355">
        <ele>102.5</ele>
        <time>2022-08-17T15:36:24Z</time>
      </trkpt>
      <trkpt lat="44.97487" lon="1.03368">
        <ele>100.1</ele>
        <time>2022-08-17T15:36:26Z</time>
      </trkpt>
      <trkpt lat="44.97501" lon="1.03384">
        <ele>95.8</ele>
        <time>2022-08-17T15:36:28Z</time>
      </trkpt>
      <trkpt lat="44.97518" lon="1.03396">
        <ele>94.3</ele>
        <time>2022-08-17T15:36:30Z</time>
      </trkpt>
      <trkpt lat="44.97536" lon="1.03406">
        <ele>93.8</ele>
        <time>2022-08-17T15:36:32Z</time>
      </trkpt>
      <trkpt lat="44.97553" lon="1.03419">
        <ele>92.3</ele>
        <time>2022-08-17T15:36:34Z</time>
      </trkpt>
      <trkpt lat="44.97571" lon="1.03433">
        <ele>91.9</ele>
        <time>2022-08-17T15:36:36Z</time>
      </trkpt>
      <trkpt lat="44.97589" lon="1.03446">
        <ele>91.5</ele>
        <time>2022-08-17T15:36:38Z</time>
      </trkpt>
      <trkpt lat="44.97607" lon="1.0346">
        <ele>91.2</ele>
        <time>2022-08-17T15:36:40Z</time>
      </trkpt>
      <trkpt lat="44.97623" lon="1.03477">
        <ele>89.4</ele>
        <time>2022-08-17T15:36:42Z</time>
      </trkpt>
      <trkpt lat="44.97639" lon="1.0349">
        <ele>87.9</ele>
        <time>2022-08-17T15:36:44Z</time>
      </trkpt>
      <trkpt lat="44.97654" lon="1.03503">
        <ele>87.1</ele>
        <time>2022-08-17T15:36:46Z</time>
      </trkpt>
      <trkpt lat="44.97668" lon="1.03515">
        <ele>86.8</ele>
        <time>2022-08-17T15:36:48Z</time>
      </trkpt>
      <trkpt lat="44.97682" lon="1.03527">
        <ele>86.8</ele>
        <time>2022-08-17T15:36:50Z</time>
      </trkpt>
      <trkpt lat="44.97694" lon="1.03537">
        <ele>86.3</ele>
        <time>2022-08-17T15:36:52Z</time>
      </trkpt>
      <trkpt lat="44.97704" lon="1.03549">
        <ele>85.1</ele>
        <time>2022-08-17T15:36:54Z</time>
      </trkpt>
      <trkpt lat="44.97714" lon="1.03558">
        <ele>84.2</ele>
        <time>2022-08-17T15:36:56Z</time>
      </trkpt>
      <trkpt lat="44.97723" lon="1.03566">
        <ele>83.5</ele>
        <time>2022-08-17T15:36:58Z</time>
      </trkpt>
      <trkpt lat="44.97732" lon="1.03572">
        <ele>82.9</ele>
        <time>2022-08-17T15:37:00Z</time>
      </trkpt>
      <trkpt lat="44.97739" lon="1.0358">
        <ele>81.4</ele>
        <time>2022-08-17T15:37:02Z</time>
      </trkpt>
      <trkpt lat="44.97745" lon="1.0359">
        <ele>80.6</ele>
        <time>2022-08-17T15:37:04Z</time>
      </trkpt>
      <trkpt lat="44.97752" lon="1.03599">
        <ele>80.4</ele>
        <time>2022-08-17T15:37:06Z</time>
      </trkpt>
      <trkpt lat="44.97758" lon="1.03609">
        <ele>79.9</ele>
        <time>2022-08-17T15:37:08Z</time>
      </trkpt>
      <trkpt lat="44.97764" lon="1.03621">
        <ele>79.2</ele>
        <time>2022-08-17T15:37:10Z</time>
      </trkpt>
      <trkpt lat="44.97771" lon="1.03631">
        <ele>78.8</ele>
        <time>2022-08-17T15:37:12Z</time>
      </trkpt>
      <trkpt lat="44.97777" lon="1.03641">
        <ele>78.1</ele>
        <time>2022-08-17T15:37:14Z</time>
      </trkpt>
      <trkpt lat="44.97782" lon="1.03653">
        <ele>77.2</ele>
        <time>2022-08-17T15:37:16Z</time>
      </trkpt>
      <trkpt lat="44.97789" lon="1.03662">
        <ele>76.7</ele>
        <time>2022-08-17T15:37:18Z</time>
      </trkpt>
      <trkpt lat="44.97793" lon="1.0367">
        <ele>76.6</ele>
        <time>2022-08-17T15:37:20Z</time>
      </trkpt>
      <trkpt lat="44.97797" lon="1.03681">
        <ele>76.9</ele>
        <time>2022-08-17T15:37:22Z</time>
      </trkpt>
      <trkpt lat="44.97802" lon="1.03691">
        <ele>77.4</ele>
        <time>2022-08-17T15:37:24Z</time>
      </trkpt>
      <trkpt lat="44.97807" lon="1.03701">
        <ele>78</ele>
        <time>2022-08-17T15:37:26Z</time>
      </trkpt>
      <trkpt lat="44.97812" lon="1.0371">
        <ele>78.6</ele>
        <time>2022-08-17T15:37:28Z</time>
      </trkpt>
      <trkpt lat="44.97817" lon="1.03719">
        <ele>79.4</ele>
        <time>2022-08-17T15:37:30Z</time>
      </trkpt>
      <trkpt lat="44.97822" lon="1.03729">
        <ele>80.1</ele>
        <time>2022-08-17T15:37:32Z</time>
      </trkpt>
      <trkpt lat="44.97825" lon="1.0374">
        <ele>80.7</ele>
        <time>2022-08-17T15:37:34Z</time>
      </trkpt>
      <trkpt lat="44.9783" lon="1.0375">
        <ele>81.5</ele>
        <time>2022-08-17T15:37:36Z</time>
      </trkpt>
      <trkpt lat="44.97835" lon="1.03761">
        <ele>82</ele>
        <time>2022-08-17T15:37:38Z</time>
      </trkpt>
      <trkpt lat="44.97839" lon="1.03773">
        <ele>82.5</ele>
        <time>2022-08-17T15:37:40Z</time>
      </trkpt>
      <trkpt lat="44.97842" lon="1.03785">
        <ele>82.7</ele>
        <time>2022-08-17T15:37:42Z</time>
      </trkpt>
      <trkpt lat="44.97845" lon="1.03798">
        <ele>82.7</ele>
        <time>2022-08-17T15:37:44Z</time>
      </trkpt>
      <trkpt lat="44.97847" lon="1.0381">
        <ele>82.8</ele>
        <time>2022-08-17T15:37:46Z</time>
      </trkpt>
      <trkpt lat="44.97851" lon="1.03821">
        <ele>83.3</ele>
        <time>2022-08-17T15:37:48Z</time>
      </trkpt>
      <trkpt lat="44.97852" lon="1.03832">
        <ele>83.2</ele>
        <time>2022-08-17T15:37:50Z</time>
      </trkpt>
      <trkpt lat="44.97853" lon="1.03841">
        <ele>83</ele>
        <time>2022-08-17T15:37:52Z</time>
      </trkpt>
      <trkpt lat="44.97855" lon="1.03851">
        <ele>83.1</ele>
        <time>2022-08-17T15:37:54Z</time>
      </trkpt>
      <trkpt lat="44.97857" lon="1.03862">
        <ele>82.8</ele>
        <time>2022-08-17T15:37:56Z</time>
      </trkpt>
      <trkpt lat="44.97858" lon="1.03875">
        <ele>82.4</ele>
        <time>2022-08-17T15:37:58Z</time>
      </trkpt>
      <trkpt lat="44.9786" lon="1.03888">
        <ele>82.1</ele>
        <time>2022-08-17T15:38:00Z</time>
      </trkpt>
      <trkpt lat="44.97861" lon="1.039">
        <ele>81.8</ele>
        <time>2022-08-17T15:38:02Z</time>
      </trkpt>
      <trkpt lat="44.97861" lon="1.03912">
        <ele>81</ele>
        <time>2022-08-17T15:38:04Z</time>
      </trkpt>
      <trkpt lat="44.97861" lon="1.03924">
        <ele>80.3</ele>
        <time>2022-08-17T15:38:06Z</time>
      </trkpt>
      <trkpt lat="44.9786" lon="1.03936">
        <ele>79.7</ele>
        <time>2022-08-17T15:38:08Z</time>
      </trkpt>
      <trkpt lat="44.9786" lon="1.03946">
        <ele>79.3</ele>
        <time>2022-08-17T15:38:10Z</time>
      </trkpt>
      <trkpt lat="44.9786" lon="1.03957">
        <ele>78.8</ele>
        <time>2022-08-17T15:38:12Z</time>
      </trkpt>
      <trkpt lat="44.97859" lon="1.03967">
        <ele>78.3</ele>
        <time>2022-08-17T15:38:14Z</time>
      </trkpt>
      <trkpt lat="44.97859" lon="1.03976">
        <ele>78.1</ele>
        <time>2022-08-17T15:38:16Z</time>
      </trkpt>
      <trkpt lat="44.9786" lon="1.03985">
        <ele>78</ele>
        <time>2022-08-17T15:38:18Z</time>
      </trkpt>
      <trkpt lat="44.97862" lon="1.03993">
        <ele>78</ele>
        <time>2022-08-17T15:38:20Z</time>
      </trkpt>
      <trkpt lat="44.97863" lon="1.04001">
        <ele>78.2</ele>
        <time>2022-08-17T15:38:22Z</time>
      </trkpt>
      <trkpt lat="44.97865" lon="1.04009">
        <ele>78.7</ele>
        <time>2022-08-17T15:38:24Z</time>
      </trkpt>
      <trkpt lat="44.97867" lon="1.04018">
        <ele>79.4</ele>
        <time>2022-08-17T15:38:26Z</time>
      </trkpt>
      <trkpt lat="44.9787" lon="1.04027">
        <ele>80.1</ele>
        <time>2022-08-17T15:38:28Z</time>
      </trkpt>
      <trkpt lat="44.97873" lon="1.04038">
        <ele>80.9</ele>
        <time>2022-08-17T15:38:30Z</time>
      </trkpt>
      <trkpt lat="44.97877" lon="1.04049">
        <ele>81.6</ele>
        <time>2022-08-17T15:38:32Z</time>
      </trkpt>
      <trkpt lat="44.97879" lon="1.04059">
        <ele>82.1</ele>
        <time>2022-08-17T15:38:34Z</time>
      </trkpt>
      <trkpt lat="44.97883" lon="1.0407">
        <ele>82.8</ele>
        <time>2022-08-17T15:38:36Z</time>
      </trkpt>
      <trkpt lat="44.97885" lon="1.0408">
        <ele>83.3</ele>
        <time>2022-08-17T15:38:38Z</time>
      </trkpt>
      <trkpt lat="44.97886" lon="1.04091">
        <ele>82.9</ele>
        <time>2022-08-17T15:38:40Z</time>
      </trkpt>
      <trkpt lat="44.97889" lon="1.04101">
        <ele>82.6</ele>
        <time>2022-08-17T15:38:42Z</time>
      </trkpt>
      <trkpt lat="44.9789" lon="1.04112">
        <ele>82</ele>
        <time>2022-08-17T15:38:44Z</time>
      </trkpt>
      <trkpt lat="44.9789" lon="1.04122">
        <ele>81.2</ele>
        <time>2022-08-17T15:38:46Z</time>
      </trkpt>
      <trkpt lat="44.97891" lon="1.04132">
        <ele>80.6</ele>
        <time>2022-08-17T15:38:48Z</time>
      </trkpt>
      <trkpt lat="44.97891" lon="1.04143">
        <ele>79.8</ele>
        <time>2022-08-17T15:38:50Z</time>
      </trkpt>
      <trkpt lat="44.97892" lon="1.04155">
        <ele>79</ele>
        <time>2022-08-17T15:38:52Z</time>
      </trkpt>
      <trkpt lat="44.97892" lon="1.04168">
        <ele>78.2</ele>
        <time>2022-08-17T15:38:54Z</time>
      </trkpt>
      <trkpt lat="44.97893" lon="1.04183">
        <ele>78.3</ele>
        <time>2022-08-17T15:38:56Z</time>
      </trkpt>
      <trkpt lat="44.97894" lon="1.04198">
        <ele>78.3</ele>
        <time>2022-08-17T15:38:58Z</time>
      </trkpt>
      <trkpt lat="44.97894" lon="1.04213">
        <ele>78.2</ele>
        <time>2022-08-17T15:39:00Z</time>
      </trkpt>
      <trkpt lat="44.97894" lon="1.04228">
        <ele>78.2</ele>
        <time>2022-08-17T15:39:02Z</time>
      </trkpt>
      <trkpt lat="44.97895" lon="1.04243">
        <ele>78.2</ele>
        <time>2022-08-17T15:39:04Z</time>
      </trkpt>
      <trkpt lat="44.97895" lon="1.04257">
        <ele>78.3</ele>
        <time>2022-08-17T15:39:06Z</time>
      </trkpt>
      <trkpt lat="44.97895" lon="1.0427">
        <ele>78.5</ele>
        <time>2022-08-17T15:39:08Z</time>
      </trkpt>
      <trkpt lat="44.97895" lon="1.04282">
        <ele>78.7</ele>
        <time>2022-08-17T15:39:10Z</time>
      </trkpt>
      <trkpt lat="44.97895" lon="1.04294">
        <ele>78.8</ele>
        <time>2022-08-17T15:39:12Z</time>
      </trkpt>
      <trkpt lat="44.97895" lon="1.04305">
        <ele>79</ele>
        <time>2022-08-17T15:39:14Z</time>
      </trkpt>
      <trkpt lat="44.97896" lon="1.04316">
        <ele>79.2</ele>
        <time>2022-08-17T15:39:16Z</time>
      </trkpt>
      <trkpt lat="44.97895" lon="1.04327">
        <ele>79.3</ele>
        <time>2022-08-17T15:39:18Z</time>
      </trkpt>
      <trkpt lat="44.97895" lon="1.04337">
        <ele>79.3</ele>
        <time>2022-08-17T15:39:20Z</time>
      </trkpt>
      <trkpt lat="44.97896" lon="1.04347">
        <ele>79.1</ele>
        <time>2022-08-17T15:39:22Z</time>
      </trkpt>
      <trkpt lat="44.97895" lon="1.04357">
        <ele>78.7</ele>
        <time>2022-08-17T15:39:24Z</time>
      </trkpt>
      <trkpt lat="44.97894" lon="1.04367">
        <ele>78.4</ele>
        <time>2022-08-17T15:39:26Z</time>
      </trkpt>
      <trkpt lat="44.97893" lon="1.04377">
        <ele>78</ele>
        <time>2022-08-17T15:39:28Z</time>
      </trkpt>
      <trkpt lat="44.97893" lon="1.04386">
        <ele>77.7</ele>
        <time>2022-08-17T15:39:30Z</time>
      </trkpt>
      <trkpt lat="44.97892" lon="1.04396">
        <ele>77.3</ele>
        <time>2022-08-17T15:39:32Z</time>
      </trkpt>
      <trkpt lat="44.97893" lon="1.04406">
        <ele>77.2</ele>
        <time>2022-08-17T15:39:34Z</time>
      </trkpt>
      <trkpt lat="44.97892" lon="1.04416">
        <ele>76.8</ele>
        <time>2022-08-17T15:39:36Z</time>
      </trkpt>
      <trkpt lat="44.97892" lon="1.04426">
        <ele>76.7</ele>
        <time>2022-08-17T15:39:38Z</time>
      </trkpt>
      <trkpt lat="44.97892" lon="1.04436">
        <ele>76.6</ele>
        <time>2022-08-17T15:39:40Z</time>
      </trkpt>
      <trkpt lat="44.97892" lon="1.04447">
        <ele>76.6</ele>
        <time>2022-08-17T15:39:42Z</time>
      </trkpt>
      <trkpt lat="44.97891" lon="1.04457">
        <ele>76.5</ele>
        <time>2022-08-17T15:39:44Z</time>
      </trkpt>
      <trkpt lat="44.97891" lon="1.04467">
        <ele>76.4</ele>
        <time>2022-08-17T15:39:46Z</time>
      </trkpt>
      <trkpt lat="44.97891" lon="1.04476">
        <ele>76.4</ele>
        <time>2022-08-17T15:39:48Z</time>
      </trkpt>
      <trkpt lat="44.97891" lon="1.04486">
        <ele>76.3</ele>
        <time>2022-08-17T15:39:50Z</time>
      </trkpt>
      <trkpt lat="44.9789" lon="1.04496">
        <ele>76.2</ele>
        <time>2022-08-17T15:39:52Z</time>
      </trkpt>
      <trkpt lat="44.9789" lon="1.04506">
        <ele>76.2</ele>
        <time>2022-08-17T15:39:54Z</time>
      </trkpt>
      <trkpt lat="44.97889" lon="1.04515">
        <ele>76.4</ele>
        <time>2022-08-17T15:39:56Z</time>
      </trkpt>
      <trkpt lat="44.97889" lon="1.04524">
        <ele>76.6</ele>
        <time>2022-08-17T15:39:58Z</time>
      </trkpt>
      <trkpt lat="44.97889" lon="1.04534">
        <ele>76.8</ele>
        <time>2022-08-17T15:40:00Z</time>
      </trkpt>
      <trkpt lat="44.97888" lon="1.04544">
        <ele>77</ele>
        <time>2022-08-17T15:40:02Z</time>
      </trkpt>
      <trkpt lat="44.97887" lon="1.04554">
        <ele>77.1</ele>
        <time>2022-08-17T15:40:04Z</time>
      </trkpt>
      <trkpt lat="44.97887" lon="1.04564">
        <ele>77.2</ele>
        <time>2022-08-17T15:40:06Z</time>
      </trkpt>
      <trkpt lat="44.97886" lon="1.04576">
        <ele>77.4</ele>
        <time>2022-08-17T15:40:08Z</time>
      </trkpt>
      <trkpt lat="44.97882" lon="1.04588">
        <ele>77</ele>
        <time>2022-08-17T15:40:10Z</time>
      </trkpt>
      <trkpt lat="44.97878" lon="1.04597">
        <ele>76.4</ele>
        <time>2022-08-17T15:40:12Z</time>
      </trkpt>
      <trkpt lat="44.97872" lon="1.04604">
        <ele>75.5</ele>
        <time>2022-08-17T15:40:14Z</time>
      </trkpt>
      <trkpt lat="44.97867" lon="1.04608">
        <ele>74.8</ele>
        <time>2022-08-17T15:40:16Z</time>
      </trkpt>
      <trkpt lat="44.97864" lon="1.04609">
        <ele>74.3</ele>
        <time>2022-08-17T15:40:18Z</time>
      </trkpt>
      <trkpt lat="44.97864" lon="1.0461">
        <ele>74.3</ele>
        <time>2022-08-17T15:40:20Z</time>
      </trkpt>
      <trkpt lat="44.97863" lon="1.0461">
        <ele>74.2</ele>
        <time>2022-08-17T15:40:22Z</time>
      </trkpt>
      <trkpt lat="44.97863" lon="1.0461">
        <ele>74.2</ele>
        <time>2022-08-17T15:40:24Z</time>
      </trkpt>
      <trkpt lat="44.97842" lon="1.04623">
        <ele>71.2</ele>
        <time>2022-08-17T15:41:18Z</time>
      </trkpt>
      <trkpt lat="44.97834" lon="1.04623">
        <ele>70.1</ele>
        <time>2022-08-17T15:41:20Z</time>
      </trkpt>
      <trkpt lat="44.97826" lon="1.04622">
        <ele>69.5</ele>
        <time>2022-08-17T15:41:22Z</time>
      </trkpt>
      <trkpt lat="44.97818" lon="1.04621">
        <ele>69</ele>
        <time>2022-08-17T15:41:24Z</time>
      </trkpt>
      <trkpt lat="44.97809" lon="1.0462">
        <ele>68.4</ele>
        <time>2022-08-17T15:41:26Z</time>
      </trkpt>
      <trkpt lat="44.97801" lon="1.04619">
        <ele>67.9</ele>
        <time>2022-08-17T15:41:28Z</time>
      </trkpt>
      <trkpt lat="44.97794" lon="1.04618">
        <ele>67.4</ele>
        <time>2022-08-17T15:41:30Z</time>
      </trkpt>
      <trkpt lat="44.97787" lon="1.04618">
        <ele>67</ele>
        <time>2022-08-17T15:41:32Z</time>
      </trkpt>
      <trkpt lat="44.9778" lon="1.04617">
        <ele>66.5</ele>
        <time>2022-08-17T15:41:34Z</time>
      </trkpt>
      <trkpt lat="44.97773" lon="1.04617">
        <ele>66.1</ele>
        <time>2022-08-17T15:41:36Z</time>
      </trkpt>
      <trkpt lat="44.97765" lon="1.04617">
        <ele>65.6</ele>
        <time>2022-08-17T15:41:38Z</time>
      </trkpt>
      <trkpt lat="44.97758" lon="1.04615">
        <ele>65.2</ele>
        <time>2022-08-17T15:41:40Z</time>
      </trkpt>
      <trkpt lat="44.97752" lon="1.04615">
        <ele>64.7</ele>
        <time>2022-08-17T15:41:42Z</time>
      </trkpt>
      <trkpt lat="44.97746" lon="1.04615">
        <ele>65</ele>
        <time>2022-08-17T15:41:44Z</time>
      </trkpt>
      <trkpt lat="44.9774" lon="1.04615">
        <ele>65.6</ele>
        <time>2022-08-17T15:41:46Z</time>
      </trkpt>
      <trkpt lat="44.97734" lon="1.04615">
        <ele>66.2</ele>
        <time>2022-08-17T15:41:48Z</time>
      </trkpt>
      <trkpt lat="44.97729" lon="1.04615">
        <ele>66.7</ele>
        <time>2022-08-17T15:41:50Z</time>
      </trkpt>
      <trkpt lat="44.97722" lon="1.04614">
        <ele>67.3</ele>
        <time>2022-08-17T15:41:52Z</time>
      </trkpt>
      <trkpt lat="44.97716" lon="1.04614">
        <ele>67.9</ele>
        <time>2022-08-17T15:41:54Z</time>
      </trkpt>
      <trkpt lat="44.9771" lon="1.04613">
        <ele>68.4</ele>
        <time>2022-08-17T15:41:56Z</time>
      </trkpt>
      <trkpt lat="44.97703" lon="1.04613">
        <ele>69.1</ele>
        <time>2022-08-17T15:41:58Z</time>
      </trkpt>
      <trkpt lat="44.97696" lon="1.04612">
        <ele>69.7</ele>
        <time>2022-08-17T15:42:00Z</time>
      </trkpt>
      <trkpt lat="44.97689" lon="1.04612">
        <ele>70.3</ele>
        <time>2022-08-17T15:42:02Z</time>
      </trkpt>
      <trkpt lat="44.97682" lon="1.04611">
        <ele>70.9</ele>
        <time>2022-08-17T15:42:04Z</time>
      </trkpt>
      <trkpt lat="44.97675" lon="1.04611">
        <ele>71.6</ele>
        <time>2022-08-17T15:42:06Z</time>
      </trkpt>
      <trkpt lat="44.97668" lon="1.04611">
        <ele>72.2</ele>
        <time>2022-08-17T15:42:08Z</time>
      </trkpt>
      <trkpt lat="44.97661" lon="1.0461">
        <ele>74.3</ele>
        <time>2022-08-17T15:42:10Z</time>
      </trkpt>
      <trkpt lat="44.97654" lon="1.0461">
        <ele>76.8</ele>
        <time>2022-08-17T15:42:12Z</time>
      </trkpt>
      <trkpt lat="44.97647" lon="1.04609">
        <ele>79.1</ele>
        <time>2022-08-17T15:42:14Z</time>
      </trkpt>
      <trkpt lat="44.97642" lon="1.04608">
        <ele>80.9</ele>
        <time>2022-08-17T15:42:16Z</time>
      </trkpt>
      <trkpt lat="44.97637" lon="1.04606">
        <ele>82.4</ele>
        <time>2022-08-17T15:42:18Z</time>
      </trkpt>
      <trkpt lat="44.97634" lon="1.04606">
        <ele>83.5</ele>
        <time>2022-08-17T15:42:20Z</time>
      </trkpt>
      <trkpt lat="44.97633" lon="1.04607">
        <ele>84</ele>
        <time>2022-08-17T15:42:22Z</time>
      </trkpt>
      <trkpt lat="44.97633" lon="1.04606">
        <ele>83.9</ele>
        <time>2022-08-17T15:42:24Z</time>
      </trkpt>
      <trkpt lat="44.97633" lon="1.04607">
        <ele>84</ele>
        <time>2022-08-17T15:42:26Z</time>
      </trkpt>
      <trkpt lat="44.97633" lon="1.04607">
        <ele>84</ele>
        <time>2022-08-17T15:42:28Z</time>
      </trkpt>
      <trkpt lat="44.97631" lon="1.04628">
        <ele>86.2</ele>
        <time>2022-08-17T15:42:38Z</time>
      </trkpt>
      <trkpt lat="44.97633" lon="1.04636">
        <ele>86.1</ele>
        <time>2022-08-17T15:42:40Z</time>
      </trkpt>
      <trkpt lat="44.97634" lon="1.04645">
        <ele>86.7</ele>
        <time>2022-08-17T15:42:42Z</time>
      </trkpt>
      <trkpt lat="44.97635" lon="1.04654">
        <ele>87.2</ele>
        <time>2022-08-17T15:42:44Z</time>
      </trkpt>
      <trkpt lat="44.97635" lon="1.04661">
        <ele>87.7</ele>
        <time>2022-08-17T15:42:46Z</time>
      </trkpt>
      <trkpt lat="44.97637" lon="1.04668">
        <ele>87.4</ele>
        <time>2022-08-17T15:42:48Z</time>
      </trkpt>
      <trkpt lat="44.97638" lon="1.04675">
        <ele>87.4</ele>
        <time>2022-08-17T15:42:50Z</time>
      </trkpt>
      <trkpt lat="44.97638" lon="1.04683">
        <ele>87.5</ele>
        <time>2022-08-17T15:42:52Z</time>
      </trkpt>
      <trkpt lat="44.97639" lon="1.0469">
        <ele>87.6</ele>
        <time>2022-08-17T15:42:54Z</time>
      </trkpt>
      <trkpt lat="44.97639" lon="1.04696">
        <ele>87.9</ele>
        <time>2022-08-17T15:42:56Z</time>
      </trkpt>
      <trkpt lat="44.9764" lon="1.04703">
        <ele>87.8</ele>
        <time>2022-08-17T15:42:58Z</time>
      </trkpt>
      <trkpt lat="44.9764" lon="1.0471">
        <ele>88.1</ele>
        <time>2022-08-17T15:43:00Z</time>
      </trkpt>
      <trkpt lat="44.9764" lon="1.04717">
        <ele>88.4</ele>
        <time>2022-08-17T15:43:02Z</time>
      </trkpt>
      <trkpt lat="44.9764" lon="1.04723">
        <ele>88.6</ele>
        <time>2022-08-17T15:43:04Z</time>
      </trkpt>
      <trkpt lat="44.9764" lon="1.0473">
        <ele>88.9</ele>
        <time>2022-08-17T15:43:06Z</time>
      </trkpt>
      <trkpt lat="44.9764" lon="1.04738">
        <ele>89.1</ele>
        <time>2022-08-17T15:43:08Z</time>
      </trkpt>
      <trkpt lat="44.9764" lon="1.04744">
        <ele>89.3</ele>
        <time>2022-08-17T15:43:10Z</time>
      </trkpt>
      <trkpt lat="44.9764" lon="1.04751">
        <ele>89.7</ele>
        <time>2022-08-17T15:43:12Z</time>
      </trkpt>
      <trkpt lat="44.9764" lon="1.04758">
        <ele>90.3</ele>
        <time>2022-08-17T15:43:14Z</time>
      </trkpt>
      <trkpt lat="44.9764" lon="1.04766">
        <ele>90.9</ele>
        <time>2022-08-17T15:43:16Z</time>
      </trkpt>
      <trkpt lat="44.9764" lon="1.04773">
        <ele>91.5</ele>
        <time>2022-08-17T15:43:18Z</time>
      </trkpt>
      <trkpt lat="44.9764" lon="1.0478">
        <ele>92</ele>
        <time>2022-08-17T15:43:20Z</time>
      </trkpt>
      <trkpt lat="44.97641" lon="1.04788">
        <ele>92.5</ele>
        <time>2022-08-17T15:43:22Z</time>
      </trkpt>
      <trkpt lat="44.97641" lon="1.04796">
        <ele>93</ele>
        <time>2022-08-17T15:43:24Z</time>
      </trkpt>
      <trkpt lat="44.97642" lon="1.04804">
        <ele>93.3</ele>
        <time>2022-08-17T15:43:26Z</time>
      </trkpt>
      <trkpt lat="44.97643" lon="1.04813">
        <ele>93.8</ele>
        <time>2022-08-17T15:43:28Z</time>
      </trkpt>
      <trkpt lat="44.97643" lon="1.04822">
        <ele>94.4</ele>
        <time>2022-08-17T15:43:30Z</time>
      </trkpt>
      <trkpt lat="44.97643" lon="1.04832">
        <ele>95.1</ele>
        <time>2022-08-17T15:43:32Z</time>
      </trkpt>
      <trkpt lat="44.97645" lon="1.04841">
        <ele>95.2</ele>
        <time>2022-08-17T15:43:34Z</time>
      </trkpt>
      <trkpt lat="44.97645" lon="1.0485">
        <ele>95.8</ele>
        <time>2022-08-17T15:43:36Z</time>
      </trkpt>
      <trkpt lat="44.97646" lon="1.0486">
        <ele>95.9</ele>
        <time>2022-08-17T15:43:38Z</time>
      </trkpt>
      <trkpt lat="44.97646" lon="1.04869">
        <ele>96.7</ele>
        <time>2022-08-17T15:43:40Z</time>
      </trkpt>
      <trkpt lat="44.97649" lon="1.04878">
        <ele>96.2</ele>
        <time>2022-08-17T15:43:42Z</time>
      </trkpt>
      <trkpt lat="44.9765" lon="1.04887">
        <ele>96.3</ele>
        <time>2022-08-17T15:43:44Z</time>
      </trkpt>
      <trkpt lat="44.97652" lon="1.04896">
        <ele>95.9</ele>
        <time>2022-08-17T15:43:46Z</time>
      </trkpt>
      <trkpt lat="44.97654" lon="1.04906">
        <ele>96.1</ele>
        <time>2022-08-17T15:43:48Z</time>
      </trkpt>
      <trkpt lat="44.97654" lon="1.04915">
        <ele>96.5</ele>
        <time>2022-08-17T15:43:50Z</time>
      </trkpt>
      <trkpt lat="44.97657" lon="1.04925">
        <ele>95.8</ele>
        <time>2022-08-17T15:43:52Z</time>
      </trkpt>
      <trkpt lat="44.97659" lon="1.04934">
        <ele>95.2</ele>
        <time>2022-08-17T15:43:54Z</time>
      </trkpt>
      <trkpt lat="44.97661" lon="1.04944">
        <ele>95</ele>
        <time>2022-08-17T15:43:56Z</time>
      </trkpt>
      <trkpt lat="44.97661" lon="1.04953">
        <ele>95.2</ele>
        <time>2022-08-17T15:43:58Z</time>
      </trkpt>
      <trkpt lat="44.97663" lon="1.04963">
        <ele>95</ele>
        <time>2022-08-17T15:44:00Z</time>
      </trkpt>
      <trkpt lat="44.97663" lon="1.04972">
        <ele>95.5</ele>
        <time>2022-08-17T15:44:02Z</time>
      </trkpt>
      <trkpt lat="44.97661" lon="1.04982">
        <ele>96.6</ele>
        <time>2022-08-17T15:44:04Z</time>
      </trkpt>
      <trkpt lat="44.97663" lon="1.04991">
        <ele>96.3</ele>
        <time>2022-08-17T15:44:06Z</time>
      </trkpt>
      <trkpt lat="44.97664" lon="1.05">
        <ele>96.4</ele>
        <time>2022-08-17T15:44:08Z</time>
      </trkpt>
      <trkpt lat="44.97666" lon="1.05008">
        <ele>96.4</ele>
        <time>2022-08-17T15:44:10Z</time>
      </trkpt>
      <trkpt lat="44.97666" lon="1.05018">
        <ele>97.2</ele>
        <time>2022-08-17T15:44:12Z</time>
      </trkpt>
      <trkpt lat="44.97666" lon="1.05027">
        <ele>98.2</ele>
        <time>2022-08-17T15:44:14Z</time>
      </trkpt>
      <trkpt lat="44.97666" lon="1.05037">
        <ele>99.4</ele>
        <time>2022-08-17T15:44:16Z</time>
      </trkpt>
      <trkpt lat="44.97668" lon="1.05047">
        <ele>99.7</ele>
        <time>2022-08-17T15:44:18Z</time>
      </trkpt>
      <trkpt lat="44.97668" lon="1.05058">
        <ele>100.8</ele>
        <time>2022-08-17T15:44:20Z</time>
      </trkpt>
      <trkpt lat="44.97668" lon="1.05069">
        <ele>101.9</ele>
        <time>2022-08-17T15:44:22Z</time>
      </trkpt>
      <trkpt lat="44.9767" lon="1.05081">
        <ele>102.2</ele>
        <time>2022-08-17T15:44:24Z</time>
      </trkpt>
      <trkpt lat="44.97672" lon="1.05094">
        <ele>102.9</ele>
        <time>2022-08-17T15:44:26Z</time>
      </trkpt>
      <trkpt lat="44.97674" lon="1.05107">
        <ele>104.2</ele>
        <time>2022-08-17T15:44:28Z</time>
      </trkpt>
      <trkpt lat="44.97676" lon="1.05121">
        <ele>105.4</ele>
        <time>2022-08-17T15:44:30Z</time>
      </trkpt>
      <trkpt lat="44.97678" lon="1.05135">
        <ele>106.6</ele>
        <time>2022-08-17T15:44:32Z</time>
      </trkpt>
      <trkpt lat="44.9768" lon="1.05148">
        <ele>107.2</ele>
        <time>2022-08-17T15:44:34Z</time>
      </trkpt>
      <trkpt lat="44.97682" lon="1.05162">
        <ele>107.9</ele>
        <time>2022-08-17T15:44:36Z</time>
      </trkpt>
      <trkpt lat="44.97685" lon="1.05176">
        <ele>108.5</ele>
        <time>2022-08-17T15:44:38Z</time>
      </trkpt>
      <trkpt lat="44.97689" lon="1.0519">
        <ele>108.3</ele>
        <time>2022-08-17T15:44:40Z</time>
      </trkpt>
      <trkpt lat="44.97693" lon="1.05205">
        <ele>108.2</ele>
        <time>2022-08-17T15:44:42Z</time>
      </trkpt>
      <trkpt lat="44.97699" lon="1.0522">
        <ele>106.9</ele>
        <time>2022-08-17T15:44:44Z</time>
      </trkpt>
      <trkpt lat="44.97706" lon="1.05235">
        <ele>105</ele>
        <time>2022-08-17T15:44:46Z</time>
      </trkpt>
      <trkpt lat="44.97715" lon="1.0525">
        <ele>102.2</ele>
        <time>2022-08-17T15:44:48Z</time>
      </trkpt>
      <trkpt lat="44.97726" lon="1.05267">
        <ele>98.5</ele>
        <time>2022-08-17T15:44:50Z</time>
      </trkpt>
      <trkpt lat="44.97737" lon="1.05283">
        <ele>95</ele>
        <time>2022-08-17T15:44:52Z</time>
      </trkpt>
      <trkpt lat="44.97747" lon="1.053">
        <ele>92.7</ele>
        <time>2022-08-17T15:44:54Z</time>
      </trkpt>
      <trkpt lat="44.9776" lon="1.05317">
        <ele>91.2</ele>
        <time>2022-08-17T15:44:56Z</time>
      </trkpt>
      <trkpt lat="44.97774" lon="1.05332">
        <ele>88.6</ele>
        <time>2022-08-17T15:44:58Z</time>
      </trkpt>
      <trkpt lat="44.97791" lon="1.05343">
        <ele>84.5</ele>
        <time>2022-08-17T15:45:00Z</time>
      </trkpt>
      <trkpt lat="44.97806" lon="1.05353">
        <ele>80.6</ele>
        <time>2022-08-17T15:45:02Z</time>
      </trkpt>
      <trkpt lat="44.97824" lon="1.05366">
        <ele>76.3</ele>
        <time>2022-08-17T15:45:04Z</time>
      </trkpt>
      <trkpt lat="44.97844" lon="1.05377">
        <ele>74.3</ele>
        <time>2022-08-17T15:45:06Z</time>
      </trkpt>
      <trkpt lat="44.97863" lon="1.05389">
        <ele>74.6</ele>
        <time>2022-08-17T15:45:08Z</time>
      </trkpt>
      <trkpt lat="44.9788" lon="1.05399">
        <ele>74.5</ele>
        <time>2022-08-17T15:45:10Z</time>
      </trkpt>
      <trkpt lat="44.97896" lon="1.05409">
        <ele>74.1</ele>
        <time>2022-08-17T15:45:12Z</time>
      </trkpt>
      <trkpt lat="44.97913" lon="1.05417">
        <ele>73.5</ele>
        <time>2022-08-17T15:45:14Z</time>
      </trkpt>
      <trkpt lat="44.97929" lon="1.05427">
        <ele>75</ele>
        <time>2022-08-17T15:45:16Z</time>
      </trkpt>
      <trkpt lat="44.97941" lon="1.05439">
        <ele>76.8</ele>
        <time>2022-08-17T15:45:18Z</time>
      </trkpt>
      <trkpt lat="44.97953" lon="1.0545">
        <ele>77.5</ele>
        <time>2022-08-17T15:45:20Z</time>
      </trkpt>
      <trkpt lat="44.97965" lon="1.05461">
        <ele>77.8</ele>
        <time>2022-08-17T15:45:22Z</time>
      </trkpt>
      <trkpt lat="44.97975" lon="1.05471">
        <ele>77.7</ele>
        <time>2022-08-17T15:45:24Z</time>
      </trkpt>
      <trkpt lat="44.97983" lon="1.05479">
        <ele>77.3</ele>
        <time>2022-08-17T15:45:26Z</time>
      </trkpt>
      <trkpt lat="44.97991" lon="1.05484">
        <ele>76.4</ele>
        <time>2022-08-17T15:45:28Z</time>
      </trkpt>
      <trkpt lat="44.97998" lon="1.05486">
        <ele>75</ele>
        <time>2022-08-17T15:45:30Z</time>
      </trkpt>
      <trkpt lat="44.98003" lon="1.05485">
        <ele>74.1</ele>
        <time>2022-08-17T15:45:32Z</time>
      </trkpt>
      <trkpt lat="44.98007" lon="1.0548">
        <ele>73.2</ele>
        <time>2022-08-17T15:45:34Z</time>
      </trkpt>
      <trkpt lat="44.9801" lon="1.05472">
        <ele>72.3</ele>
        <time>2022-08-17T15:45:36Z</time>
      </trkpt>
      <trkpt lat="44.9801" lon="1.05464">
        <ele>71.5</ele>
        <time>2022-08-17T15:45:38Z</time>
      </trkpt>
      <trkpt lat="44.9801" lon="1.05458">
        <ele>71</ele>
        <time>2022-08-17T15:45:40Z</time>
      </trkpt>
      <trkpt lat="44.98008" lon="1.05452">
        <ele>70.5</ele>
        <time>2022-08-17T15:45:42Z</time>
      </trkpt>
      <trkpt lat="44.98007" lon="1.05447">
        <ele>70</ele>
        <time>2022-08-17T15:45:44Z</time>
      </trkpt>
      <trkpt lat="44.98003" lon="1.05445">
        <ele>70</ele>
        <time>2022-08-17T15:45:46Z</time>
      </trkpt>
      <trkpt lat="44.97999" lon="1.05449">
        <ele>70.6</ele>
        <time>2022-08-17T15:45:48Z</time>
      </trkpt>
      <trkpt lat="44.97999" lon="1.05453">
        <ele>71</ele>
        <time>2022-08-17T15:45:50Z</time>
      </trkpt>
      <trkpt lat="44.97998" lon="1.05455">
        <ele>71.4</ele>
        <time>2022-08-17T15:45:52Z</time>
      </trkpt>
      <trkpt lat="44.97998" lon="1.05455">
        <ele>71.4</ele>
        <time>2022-08-17T15:45:54Z</time>
      </trkpt>
      <trkpt lat="44.97998" lon="1.05455">
        <ele>71.4</ele>
        <time>2022-08-17T15:45:56Z</time>
      </trkpt>
      <trkpt lat="44.97998" lon="1.05455">
        <ele>71.4</ele>
        <time>2022-08-17T15:45:58Z</time>
      </trkpt>
      <trkpt lat="44.98009" lon="1.05511">
        <ele>78.7</ele>
        <time>2022-08-17T15:47:24Z</time>
      </trkpt>
      <trkpt lat="44.98016" lon="1.05518">
        <ele>79.9</ele>
        <time>2022-08-17T15:47:26Z</time>
      </trkpt>
      <trkpt lat="44.98023" lon="1.05525">
        <ele>80.6</ele>
        <time>2022-08-17T15:47:28Z</time>
      </trkpt>
      <trkpt lat="44.9803" lon="1.05532">
        <ele>81.1</ele>
        <time>2022-08-17T15:47:30Z</time>
      </trkpt>
      <trkpt lat="44.98037" lon="1.05539">
        <ele>81.4</ele>
        <time>2022-08-17T15:47:32Z</time>
      </trkpt>
      <trkpt lat="44.98045" lon="1.05545">
        <ele>81.4</ele>
        <time>2022-08-17T15:47:34Z</time>
      </trkpt>
      <trkpt lat="44.98052" lon="1.05553">
        <ele>81.2</ele>
        <time>2022-08-17T15:47:36Z</time>
      </trkpt>
      <trkpt lat="44.9806" lon="1.05559">
        <ele>80.5</ele>
        <time>2022-08-17T15:47:38Z</time>
      </trkpt>
      <trkpt lat="44.98067" lon="1.05567">
        <ele>79.8</ele>
        <time>2022-08-17T15:47:40Z</time>
      </trkpt>
      <trkpt lat="44.98075" lon="1.05574">
        <ele>78.5</ele>
        <time>2022-08-17T15:47:42Z</time>
      </trkpt>
      <trkpt lat="44.98082" lon="1.0558">
        <ele>77</ele>
        <time>2022-08-17T15:47:44Z</time>
      </trkpt>
      <trkpt lat="44.98089" lon="1.05587">
        <ele>77.3</ele>
        <time>2022-08-17T15:47:46Z</time>
      </trkpt>
      <trkpt lat="44.98096" lon="1.05593">
        <ele>78.1</ele>
        <time>2022-08-17T15:47:48Z</time>
      </trkpt>
      <trkpt lat="44.98103" lon="1.05599">
        <ele>78.7</ele>
        <time>2022-08-17T15:47:50Z</time>
      </trkpt>
      <trkpt lat="44.98109" lon="1.05604">
        <ele>79</ele>
        <time>2022-08-17T15:47:52Z</time>
      </trkpt>
      <trkpt lat="44.98116" lon="1.05611">
        <ele>79.6</ele>
        <time>2022-08-17T15:47:54Z</time>
      </trkpt>
      <trkpt lat="44.98122" lon="1.05617">
        <ele>79.7</ele>
        <time>2022-08-17T15:47:56Z</time>
      </trkpt>
      <trkpt lat="44.98128" lon="1.05623">
        <ele>79.5</ele>
        <time>2022-08-17T15:47:58Z</time>
      </trkpt>
      <trkpt lat="44.98134" lon="1.05629">
        <ele>79.6</ele>
        <time>2022-08-17T15:48:00Z</time>
      </trkpt>
      <trkpt lat="44.98141" lon="1.05635">
        <ele>79.3</ele>
        <time>2022-08-17T15:48:02Z</time>
      </trkpt>
      <trkpt lat="44.98146" lon="1.05642">
        <ele>78.9</ele>
        <time>2022-08-17T15:48:04Z</time>
      </trkpt>
      <trkpt lat="44.98151" lon="1.05647">
        <ele>78.7</ele>
        <time>2022-08-17T15:48:06Z</time>
      </trkpt>
      <trkpt lat="44.98157" lon="1.05653">
        <ele>78.1</ele>
        <time>2022-08-17T15:48:08Z</time>
      </trkpt>
      <trkpt lat="44.98162" lon="1.05659">
        <ele>77.3</ele>
        <time>2022-08-17T15:48:10Z</time>
      </trkpt>
      <trkpt lat="44.98168" lon="1.05665">
        <ele>76.7</ele>
        <time>2022-08-17T15:48:12Z</time>
      </trkpt>
      <trkpt lat="44.98174" lon="1.0567">
        <ele>77.5</ele>
        <time>2022-08-17T15:48:14Z</time>
      </trkpt>
      <trkpt lat="44.9818" lon="1.05676">
        <ele>78.4</ele>
        <time>2022-08-17T15:48:16Z</time>
      </trkpt>
      <trkpt lat="44.98185" lon="1.05681">
        <ele>79.1</ele>
        <time>2022-08-17T15:48:18Z</time>
      </trkpt>
      <trkpt lat="44.9819" lon="1.05686">
        <ele>79.7</ele>
        <time>2022-08-17T15:48:20Z</time>
      </trkpt>
      <trkpt lat="44.98196" lon="1.05691">
        <ele>80.1</ele>
        <time>2022-08-17T15:48:22Z</time>
      </trkpt>
      <trkpt lat="44.98201" lon="1.05697">
        <ele>80.5</ele>
        <time>2022-08-17T15:48:24Z</time>
      </trkpt>
      <trkpt lat="44.98208" lon="1.05701">
        <ele>80.5</ele>
        <time>2022-08-17T15:48:26Z</time>
      </trkpt>
      <trkpt lat="44.98213" lon="1.05707">
        <ele>80.8</ele>
        <time>2022-08-17T15:48:28Z</time>
      </trkpt>
      <trkpt lat="44.98218" lon="1.05712">
        <ele>80.8</ele>
        <time>2022-08-17T15:48:30Z</time>
      </trkpt>
      <trkpt lat="44.98223" lon="1.05717">
        <ele>80.7</ele>
        <time>2022-08-17T15:48:32Z</time>
      </trkpt>
      <trkpt lat="44.98228" lon="1.05722">
        <ele>80.4</ele>
        <time>2022-08-17T15:48:34Z</time>
      </trkpt>
      <trkpt lat="44.98233" lon="1.05727">
        <ele>80.3</ele>
        <time>2022-08-17T15:48:36Z</time>
      </trkpt>
      <trkpt lat="44.98238" lon="1.05732">
        <ele>79.8</ele>
        <time>2022-08-17T15:48:38Z</time>
      </trkpt>
      <trkpt lat="44.98244" lon="1.05737">
        <ele>79.2</ele>
        <time>2022-08-17T15:48:40Z</time>
      </trkpt>
      <trkpt lat="44.98249" lon="1.05742">
        <ele>78.5</ele>
        <time>2022-08-17T15:48:42Z</time>
      </trkpt>
      <trkpt lat="44.98255" lon="1.05746">
        <ele>78.4</ele>
        <time>2022-08-17T15:48:44Z</time>
      </trkpt>
      <trkpt lat="44.9826" lon="1.05751">
        <ele>78.7</ele>
        <time>2022-08-17T15:48:46Z</time>
      </trkpt>
      <trkpt lat="44.98266" lon="1.05755">
        <ele>79.5</ele>
        <time>2022-08-17T15:48:48Z</time>
      </trkpt>
      <trkpt lat="44.98273" lon="1.05759">
        <ele>80.3</ele>
        <time>2022-08-17T15:48:50Z</time>
      </trkpt>
      <trkpt lat="44.98279" lon="1.05763">
        <ele>80.8</ele>
        <time>2022-08-17T15:48:52Z</time>
      </trkpt>
      <trkpt lat="44.98286" lon="1.05765">
        <ele>81.1</ele>
        <time>2022-08-17T15:48:54Z</time>
      </trkpt>
      <trkpt lat="44.98293" lon="1.05769">
        <ele>81.6</ele>
        <time>2022-08-17T15:48:56Z</time>
      </trkpt>
      <trkpt lat="44.98299" lon="1.05772">
        <ele>82.2</ele>
        <time>2022-08-17T15:48:58Z</time>
      </trkpt>
      <trkpt lat="44.98307" lon="1.05775">
        <ele>82.4</ele>
        <time>2022-08-17T15:49:00Z</time>
      </trkpt>
      <trkpt lat="44.98314" lon="1.05779">
        <ele>82.8</ele>
        <time>2022-08-17T15:49:02Z</time>
      </trkpt>
      <trkpt lat="44.98321" lon="1.05782">
        <ele>83</ele>
        <time>2022-08-17T15:49:04Z</time>
      </trkpt>
      <trkpt lat="44.98328" lon="1.05785">
        <ele>83.3</ele>
        <time>2022-08-17T15:49:06Z</time>
      </trkpt>
      <trkpt lat="44.98335" lon="1.05789">
        <ele>83.5</ele>
        <time>2022-08-17T15:49:08Z</time>
      </trkpt>
      <trkpt lat="44.98342" lon="1.05792">
        <ele>83.8</ele>
        <time>2022-08-17T15:49:10Z</time>
      </trkpt>
      <trkpt lat="44.9835" lon="1.05795">
        <ele>83.8</ele>
        <time>2022-08-17T15:49:12Z</time>
      </trkpt>
      <trkpt lat="44.98357" lon="1.05798">
        <ele>83.9</ele>
        <time>2022-08-17T15:49:14Z</time>
      </trkpt>
      <trkpt lat="44.98364" lon="1.05802">
        <ele>83.9</ele>
        <time>2022-08-17T15:49:16Z</time>
      </trkpt>
      <trkpt lat="44.98371" lon="1.05805">
        <ele>83.9</ele>
        <time>2022-08-17T15:49:18Z</time>
      </trkpt>
      <trkpt lat="44.98377" lon="1.05807">
        <ele>83.5</ele>
        <time>2022-08-17T15:49:20Z</time>
      </trkpt>
      <trkpt lat="44.98384" lon="1.05809">
        <ele>83.3</ele>
        <time>2022-08-17T15:49:22Z</time>
      </trkpt>
      <trkpt lat="44.9839" lon="1.05813">
        <ele>83.3</ele>
        <time>2022-08-17T15:49:24Z</time>
      </trkpt>
      <trkpt lat="44.98397" lon="1.05817">
        <ele>83</ele>
        <time>2022-08-17T15:49:26Z</time>
      </trkpt>
      <trkpt lat="44.98403" lon="1.0582">
        <ele>82.8</ele>
        <time>2022-08-17T15:49:28Z</time>
      </trkpt>
      <trkpt lat="44.98409" lon="1.05824">
        <ele>82.7</ele>
        <time>2022-08-17T15:49:30Z</time>
      </trkpt>
      <trkpt lat="44.98414" lon="1.05827">
        <ele>82.5</ele>
        <time>2022-08-17T15:49:32Z</time>
      </trkpt>
      <trkpt lat="44.9842" lon="1.05831">
        <ele>82.5</ele>
        <time>2022-08-17T15:49:34Z</time>
      </trkpt>
      <trkpt lat="44.98426" lon="1.05835">
        <ele>83</ele>
        <time>2022-08-17T15:49:36Z</time>
      </trkpt>
      <trkpt lat="44.98432" lon="1.05838">
        <ele>83.2</ele>
        <time>2022-08-17T15:49:38Z</time>
      </trkpt>
      <trkpt lat="44.98437" lon="1.05842">
        <ele>83.9</ele>
        <time>2022-08-17T15:49:40Z</time>
      </trkpt>
      <trkpt lat="44.98443" lon="1.05844">
        <ele>84.2</ele>
        <time>2022-08-17T15:49:42Z</time>
      </trkpt>
      <trkpt lat="44.98449" lon="1.05847">
        <ele>84.6</ele>
        <time>2022-08-17T15:49:44Z</time>
      </trkpt>
      <trkpt lat="44.98454" lon="1.0585">
        <ele>85</ele>
        <time>2022-08-17T15:49:46Z</time>
      </trkpt>
      <trkpt lat="44.9846" lon="1.05852">
        <ele>85.1</ele>
        <time>2022-08-17T15:49:48Z</time>
      </trkpt>
      <trkpt lat="44.98466" lon="1.05854">
        <ele>85.2</ele>
        <time>2022-08-17T15:49:50Z</time>
      </trkpt>
      <trkpt lat="44.98471" lon="1.05855">
        <ele>85.2</ele>
        <time>2022-08-17T15:49:52Z</time>
      </trkpt>
      <trkpt lat="44.98477" lon="1.05857">
        <ele>85.2</ele>
        <time>2022-08-17T15:49:54Z</time>
      </trkpt>
      <trkpt lat="44.98482" lon="1.05857">
        <ele>85.1</ele>
        <time>2022-08-17T15:49:56Z</time>
      </trkpt>
      <trkpt lat="44.98487" lon="1.05857">
        <ele>84.9</ele>
        <time>2022-08-17T15:49:58Z</time>
      </trkpt>
      <trkpt lat="44.98492" lon="1.05858">
        <ele>84.8</ele>
        <time>2022-08-17T15:50:00Z</time>
      </trkpt>
      <trkpt lat="44.98497" lon="1.05859">
        <ele>84.6</ele>
        <time>2022-08-17T15:50:02Z</time>
      </trkpt>
      <trkpt lat="44.98502" lon="1.05859">
        <ele>84.6</ele>
        <time>2022-08-17T15:50:04Z</time>
      </trkpt>
      <trkpt lat="44.98506" lon="1.05859">
        <ele>84.9</ele>
        <time>2022-08-17T15:50:06Z</time>
      </trkpt>
      <trkpt lat="44.98511" lon="1.05859">
        <ele>85.1</ele>
        <time>2022-08-17T15:50:08Z</time>
      </trkpt>
      <trkpt lat="44.98516" lon="1.05859">
        <ele>85.3</ele>
        <time>2022-08-17T15:50:10Z</time>
      </trkpt>
      <trkpt lat="44.98521" lon="1.05859">
        <ele>85.7</ele>
        <time>2022-08-17T15:50:12Z</time>
      </trkpt>
      <trkpt lat="44.98526" lon="1.05859">
        <ele>85.9</ele>
        <time>2022-08-17T15:50:14Z</time>
      </trkpt>
      <trkpt lat="44.98531" lon="1.0586">
        <ele>86.2</ele>
        <time>2022-08-17T15:50:16Z</time>
      </trkpt>
      <trkpt lat="44.98536" lon="1.0586">
        <ele>86.6</ele>
        <time>2022-08-17T15:50:18Z</time>
      </trkpt>
      <trkpt lat="44.9854" lon="1.05861">
        <ele>86.9</ele>
        <time>2022-08-17T15:50:20Z</time>
      </trkpt>
      <trkpt lat="44.98545" lon="1.05861">
        <ele>87.2</ele>
        <time>2022-08-17T15:50:22Z</time>
      </trkpt>
      <trkpt lat="44.9855" lon="1.05862">
        <ele>87.6</ele>
        <time>2022-08-17T15:50:24Z</time>
      </trkpt>
      <trkpt lat="44.98555" lon="1.05862">
        <ele>87.9</ele>
        <time>2022-08-17T15:50:26Z</time>
      </trkpt>
      <trkpt lat="44.9856" lon="1.05863">
        <ele>88.3</ele>
        <time>2022-08-17T15:50:28Z</time>
      </trkpt>
      <trkpt lat="44.98565" lon="1.05864">
        <ele>88.6</ele>
        <time>2022-08-17T15:50:30Z</time>
      </trkpt>
      <trkpt lat="44.9857" lon="1.05864">
        <ele>88.9</ele>
        <time>2022-08-17T15:50:32Z</time>
      </trkpt>
      <trkpt lat="44.98575" lon="1.05865">
        <ele>89.3</ele>
        <time>2022-08-17T15:50:34Z</time>
      </trkpt>
      <trkpt lat="44.9858" lon="1.05866">
        <ele>89.6</ele>
        <time>2022-08-17T15:50:36Z</time>
      </trkpt>
      <trkpt lat="44.98584" lon="1.05866">
        <ele>89.8</ele>
        <time>2022-08-17T15:50:38Z</time>
      </trkpt>
      <trkpt lat="44.98589" lon="1.05866">
        <ele>89.9</ele>
        <time>2022-08-17T15:50:40Z</time>
      </trkpt>
      <trkpt lat="44.98595" lon="1.05867">
        <ele>90.1</ele>
        <time>2022-08-17T15:50:42Z</time>
      </trkpt>
      <trkpt lat="44.986" lon="1.05868">
        <ele>90.2</ele>
        <time>2022-08-17T15:50:44Z</time>
      </trkpt>
      <trkpt lat="44.98605" lon="1.05869">
        <ele>90.2</ele>
        <time>2022-08-17T15:50:46Z</time>
      </trkpt>
      <trkpt lat="44.98609" lon="1.05869">
        <ele>90.2</ele>
        <time>2022-08-17T15:50:48Z</time>
      </trkpt>
      <trkpt lat="44.98615" lon="1.0587">
        <ele>90.3</ele>
        <time>2022-08-17T15:50:50Z</time>
      </trkpt>
      <trkpt lat="44.9862" lon="1.0587">
        <ele>90.4</ele>
        <time>2022-08-17T15:50:52Z</time>
      </trkpt>
      <trkpt lat="44.98625" lon="1.05872">
        <ele>90.6</ele>
        <time>2022-08-17T15:50:54Z</time>
      </trkpt>
      <trkpt lat="44.98629" lon="1.05873">
        <ele>90.6</ele>
        <time>2022-08-17T15:50:56Z</time>
      </trkpt>
      <trkpt lat="44.98634" lon="1.05874">
        <ele>90.8</ele>
        <time>2022-08-17T15:50:58Z</time>
      </trkpt>
      <trkpt lat="44.98639" lon="1.05876">
        <ele>91</ele>
        <time>2022-08-17T15:51:00Z</time>
      </trkpt>
      <trkpt lat="44.98643" lon="1.05878">
        <ele>91.2</ele>
        <time>2022-08-17T15:51:02Z</time>
      </trkpt>
      <trkpt lat="44.98648" lon="1.05881">
        <ele>91.5</ele>
        <time>2022-08-17T15:51:04Z</time>
      </trkpt>
      <trkpt lat="44.98652" lon="1.05884">
        <ele>91.8</ele>
        <time>2022-08-17T15:51:06Z</time>
      </trkpt>
      <trkpt lat="44.98656" lon="1.05888">
        <ele>92.2</ele>
        <time>2022-08-17T15:51:08Z</time>
      </trkpt>
      <trkpt lat="44.98659" lon="1.05892">
        <ele>92.5</ele>
        <time>2022-08-17T15:51:10Z</time>
      </trkpt>
      <trkpt lat="44.98664" lon="1.05896">
        <ele>92.8</ele>
        <time>2022-08-17T15:51:12Z</time>
      </trkpt>
      <trkpt lat="44.98668" lon="1.05901">
        <ele>93.2</ele>
        <time>2022-08-17T15:51:14Z</time>
      </trkpt>
      <trkpt lat="44.98672" lon="1.05905">
        <ele>93.4</ele>
        <time>2022-08-17T15:51:16Z</time>
      </trkpt>
      <trkpt lat="44.98675" lon="1.05911">
        <ele>93.7</ele>
        <time>2022-08-17T15:51:18Z</time>
      </trkpt>
      <trkpt lat="44.98679" lon="1.05915">
        <ele>94</ele>
        <time>2022-08-17T15:51:20Z</time>
      </trkpt>
      <trkpt lat="44.98682" lon="1.05921">
        <ele>94.4</ele>
        <time>2022-08-17T15:51:22Z</time>
      </trkpt>
      <trkpt lat="44.98686" lon="1.05925">
        <ele>94.6</ele>
        <time>2022-08-17T15:51:24Z</time>
      </trkpt>
      <trkpt lat="44.98689" lon="1.05931">
        <ele>95</ele>
        <time>2022-08-17T15:51:26Z</time>
      </trkpt>
      <trkpt lat="44.98693" lon="1.05936">
        <ele>95.3</ele>
        <time>2022-08-17T15:51:28Z</time>
      </trkpt>
      <trkpt lat="44.98696" lon="1.05941">
        <ele>95.6</ele>
        <time>2022-08-17T15:51:30Z</time>
      </trkpt>
      <trkpt lat="44.987" lon="1.05948">
        <ele>96</ele>
        <time>2022-08-17T15:51:32Z</time>
      </trkpt>
      <trkpt lat="44.98704" lon="1.05952">
        <ele>96.1</ele>
        <time>2022-08-17T15:51:34Z</time>
      </trkpt>
      <trkpt lat="44.98707" lon="1.05958">
        <ele>96.4</ele>
        <time>2022-08-17T15:51:36Z</time>
      </trkpt>
      <trkpt lat="44.9871" lon="1.05964">
        <ele>96.7</ele>
        <time>2022-08-17T15:51:38Z</time>
      </trkpt>
      <trkpt lat="44.98713" lon="1.05969">
        <ele>96.8</ele>
        <time>2022-08-17T15:51:40Z</time>
      </trkpt>
      <trkpt lat="44.98717" lon="1.05975">
        <ele>97</ele>
        <time>2022-08-17T15:51:42Z</time>
      </trkpt>
      <trkpt lat="44.9872" lon="1.05981">
        <ele>97.2</ele>
        <time>2022-08-17T15:51:44Z</time>
      </trkpt>
      <trkpt lat="44.98723" lon="1.05987">
        <ele>97.4</ele>
        <time>2022-08-17T15:51:46Z</time>
      </trkpt>
      <trkpt lat="44.98726" lon="1.05992">
        <ele>97.4</ele>
        <time>2022-08-17T15:51:48Z</time>
      </trkpt>
      <trkpt lat="44.98729" lon="1.05997">
        <ele>97.6</ele>
        <time>2022-08-17T15:51:50Z</time>
      </trkpt>
      <trkpt lat="44.98732" lon="1.06003">
        <ele>97.8</ele>
        <time>2022-08-17T15:51:52Z</time>
      </trkpt>
      <trkpt lat="44.98735" lon="1.06008">
        <ele>98.1</ele>
        <time>2022-08-17T15:51:54Z</time>
      </trkpt>
      <trkpt lat="44.98738" lon="1.06014">
        <ele>98.5</ele>
        <time>2022-08-17T15:51:56Z</time>
      </trkpt>
      <trkpt lat="44.9874" lon="1.0602">
        <ele>98.8</ele>
        <time>2022-08-17T15:51:58Z</time>
      </trkpt>
      <trkpt lat="44.98743" lon="1.06026">
        <ele>99.1</ele>
        <time>2022-08-17T15:52:00Z</time>
      </trkpt>
      <trkpt lat="44.98746" lon="1.06031">
        <ele>99.4</ele>
        <time>2022-08-17T15:52:02Z</time>
      </trkpt>
      <trkpt lat="44.98749" lon="1.06038">
        <ele>99.7</ele>
        <time>2022-08-17T15:52:04Z</time>
      </trkpt>
      <trkpt lat="44.98751" lon="1.06044">
        <ele>100.2</ele>
        <time>2022-08-17T15:52:06Z</time>
      </trkpt>
      <trkpt lat="44.98754" lon="1.06051">
        <ele>100.8</ele>
        <time>2022-08-17T15:52:08Z</time>
      </trkpt>
      <trkpt lat="44.98757" lon="1.06057">
        <ele>101.2</ele>
        <time>2022-08-17T15:52:10Z</time>
      </trkpt>
      <trkpt lat="44.98759" lon="1.06063">
        <ele>101.8</ele>
        <time>2022-08-17T15:52:12Z</time>
      </trkpt>
      <trkpt lat="44.98762" lon="1.06069">
        <ele>102.2</ele>
        <time>2022-08-17T15:52:14Z</time>
      </trkpt>
      <trkpt lat="44.98765" lon="1.06075">
        <ele>102.5</ele>
        <time>2022-08-17T15:52:16Z</time>
      </trkpt>
      <trkpt lat="44.98767" lon="1.06081">
        <ele>102.9</ele>
        <time>2022-08-17T15:52:18Z</time>
      </trkpt>
      <trkpt lat="44.98769" lon="1.06087">
        <ele>103</ele>
        <time>2022-08-17T15:52:20Z</time>
      </trkpt>
      <trkpt lat="44.98772" lon="1.06094">
        <ele>103</ele>
        <time>2022-08-17T15:52:22Z</time>
      </trkpt>
      <trkpt lat="44.98774" lon="1.06101">
        <ele>102.9</ele>
        <time>2022-08-17T15:52:24Z</time>
      </trkpt>
      <trkpt lat="44.98775" lon="1.06107">
        <ele>102.9</ele>
        <time>2022-08-17T15:52:26Z</time>
      </trkpt>
      <trkpt lat="44.98777" lon="1.06114">
        <ele>102.8</ele>
        <time>2022-08-17T15:52:28Z</time>
      </trkpt>
      <trkpt lat="44.98779" lon="1.06121">
        <ele>102.7</ele>
        <time>2022-08-17T15:52:30Z</time>
      </trkpt>
      <trkpt lat="44.9878" lon="1.06128">
        <ele>102.8</ele>
        <time>2022-08-17T15:52:32Z</time>
      </trkpt>
      <trkpt lat="44.98782" lon="1.06135">
        <ele>102.8</ele>
        <time>2022-08-17T15:52:34Z</time>
      </trkpt>
      <trkpt lat="44.98783" lon="1.06143">
        <ele>102.8</ele>
        <time>2022-08-17T15:52:36Z</time>
      </trkpt>
      <trkpt lat="44.98784" lon="1.06151">
        <ele>102.8</ele>
        <time>2022-08-17T15:52:38Z</time>
      </trkpt>
      <trkpt lat="44.98784" lon="1.06158">
        <ele>102.9</ele>
        <time>2022-08-17T15:52:40Z</time>
      </trkpt>
      <trkpt lat="44.98785" lon="1.06166">
        <ele>103</ele>
        <time>2022-08-17T15:52:42Z</time>
      </trkpt>
      <trkpt lat="44.98785" lon="1.06174">
        <ele>102.8</ele>
        <time>2022-08-17T15:52:44Z</time>
      </trkpt>
      <trkpt lat="44.98784" lon="1.06182">
        <ele>102.7</ele>
        <time>2022-08-17T15:52:46Z</time>
      </trkpt>
      <trkpt lat="44.98784" lon="1.0619">
        <ele>102.5</ele>
        <time>2022-08-17T15:52:48Z</time>
      </trkpt>
      <trkpt lat="44.98783" lon="1.06198">
        <ele>102.5</ele>
        <time>2022-08-17T15:52:50Z</time>
      </trkpt>
      <trkpt lat="44.98782" lon="1.06206">
        <ele>102.5</ele>
        <time>2022-08-17T15:52:52Z</time>
      </trkpt>
      <trkpt lat="44.98782" lon="1.06214">
        <ele>102.2</ele>
        <time>2022-08-17T15:52:54Z</time>
      </trkpt>
      <trkpt lat="44.9878" lon="1.06223">
        <ele>102.3</ele>
        <time>2022-08-17T15:52:56Z</time>
      </trkpt>
      <trkpt lat="44.98778" lon="1.06234">
        <ele>102.4</ele>
        <time>2022-08-17T15:52:58Z</time>
      </trkpt>
      <trkpt lat="44.98775" lon="1.06245">
        <ele>102.6</ele>
        <time>2022-08-17T15:53:00Z</time>
      </trkpt>
      <trkpt lat="44.9877" lon="1.06257">
        <ele>102.5</ele>
        <time>2022-08-17T15:53:02Z</time>
      </trkpt>
      <trkpt lat="44.98766" lon="1.06267">
        <ele>102.3</ele>
        <time>2022-08-17T15:53:04Z</time>
      </trkpt>
      <trkpt lat="44.98762" lon="1.06277">
        <ele>102</ele>
        <time>2022-08-17T15:53:06Z</time>
      </trkpt>
      <trkpt lat="44.98757" lon="1.06287">
        <ele>101.6</ele>
        <time>2022-08-17T15:53:08Z</time>
      </trkpt>
      <trkpt lat="44.98753" lon="1.06299">
        <ele>101</ele>
        <time>2022-08-17T15:53:10Z</time>
      </trkpt>
      <trkpt lat="44.98748" lon="1.06309">
        <ele>100.8</ele>
        <time>2022-08-17T15:53:12Z</time>
      </trkpt>
      <trkpt lat="44.98743" lon="1.0632">
        <ele>100.8</ele>
        <time>2022-08-17T15:53:14Z</time>
      </trkpt>
      <trkpt lat="44.98739" lon="1.0633">
        <ele>100.9</ele>
        <time>2022-08-17T15:53:16Z</time>
      </trkpt>
      <trkpt lat="44.98732" lon="1.06341">
        <ele>102</ele>
        <time>2022-08-17T15:53:18Z</time>
      </trkpt>
      <trkpt lat="44.98726" lon="1.06352">
        <ele>103.2</ele>
        <time>2022-08-17T15:53:20Z</time>
      </trkpt>
      <trkpt lat="44.98721" lon="1.06363">
        <ele>104.1</ele>
        <time>2022-08-17T15:53:22Z</time>
      </trkpt>
      <trkpt lat="44.98717" lon="1.06376">
        <ele>104.5</ele>
        <time>2022-08-17T15:53:24Z</time>
      </trkpt>
      <trkpt lat="44.98717" lon="1.06391">
        <ele>104.2</ele>
        <time>2022-08-17T15:53:26Z</time>
      </trkpt>
      <trkpt lat="44.9872" lon="1.06404">
        <ele>103.3</ele>
        <time>2022-08-17T15:53:28Z</time>
      </trkpt>
      <trkpt lat="44.98728" lon="1.06414">
        <ele>101.8</ele>
        <time>2022-08-17T15:53:30Z</time>
      </trkpt>
      <trkpt lat="44.98738" lon="1.06418">
        <ele>100.2</ele>
        <time>2022-08-17T15:53:32Z</time>
      </trkpt>
      <trkpt lat="44.98748" lon="1.06416">
        <ele>98.3</ele>
        <time>2022-08-17T15:53:34Z</time>
      </trkpt>
      <trkpt lat="44.98756" lon="1.06411">
        <ele>98.3</ele>
        <time>2022-08-17T15:53:36Z</time>
      </trkpt>
      <trkpt lat="44.98763" lon="1.06403">
        <ele>98.5</ele>
        <time>2022-08-17T15:53:38Z</time>
      </trkpt>
      <trkpt lat="44.9877" lon="1.06395">
        <ele>98.6</ele>
        <time>2022-08-17T15:53:40Z</time>
      </trkpt>
      <trkpt lat="44.98778" lon="1.06386">
        <ele>98.5</ele>
        <time>2022-08-17T15:53:42Z</time>
      </trkpt>
      <trkpt lat="44.98787" lon="1.06377">
        <ele>98.1</ele>
        <time>2022-08-17T15:53:44Z</time>
      </trkpt>
      <trkpt lat="44.98797" lon="1.06368">
        <ele>97.5</ele>
        <time>2022-08-17T15:53:46Z</time>
      </trkpt>
      <trkpt lat="44.98808" lon="1.06361">
        <ele>96.8</ele>
        <time>2022-08-17T15:53:48Z</time>
      </trkpt>
      <trkpt lat="44.9882" lon="1.06355">
        <ele>95.9</ele>
        <time>2022-08-17T15:53:50Z</time>
      </trkpt>
      <trkpt lat="44.98831" lon="1.06349">
        <ele>94.9</ele>
        <time>2022-08-17T15:53:52Z</time>
      </trkpt>
      <trkpt lat="44.98842" lon="1.06343">
        <ele>95.3</ele>
        <time>2022-08-17T15:53:54Z</time>
      </trkpt>
      <trkpt lat="44.98851" lon="1.06334">
        <ele>95.3</ele>
        <time>2022-08-17T15:53:56Z</time>
      </trkpt>
      <trkpt lat="44.9886" lon="1.06324">
        <ele>95.8</ele>
        <time>2022-08-17T15:53:58Z</time>
      </trkpt>
      <trkpt lat="44.98866" lon="1.06311">
        <ele>95.8</ele>
        <time>2022-08-17T15:54:00Z</time>
      </trkpt>
      <trkpt lat="44.98872" lon="1.06296">
        <ele>95.4</ele>
        <time>2022-08-17T15:54:02Z</time>
      </trkpt>
      <trkpt lat="44.9888" lon="1.06282">
        <ele>94.7</ele>
        <time>2022-08-17T15:54:04Z</time>
      </trkpt>
      <trkpt lat="44.98886" lon="1.06267">
        <ele>93.6</ele>
        <time>2022-08-17T15:54:06Z</time>
      </trkpt>
      <trkpt lat="44.98893" lon="1.06252">
        <ele>92</ele>
        <time>2022-08-17T15:54:08Z</time>
      </trkpt>
      <trkpt lat="44.98902" lon="1.06235">
        <ele>91.2</ele>
        <time>2022-08-17T15:54:10Z</time>
      </trkpt>
      <trkpt lat="44.98911" lon="1.06219">
        <ele>90.2</ele>
        <time>2022-08-17T15:54:12Z</time>
      </trkpt>
      <trkpt lat="44.98921" lon="1.06203">
        <ele>89.2</ele>
        <time>2022-08-17T15:54:14Z</time>
      </trkpt>
      <trkpt lat="44.98934" lon="1.06189">
        <ele>88.3</ele>
        <time>2022-08-17T15:54:16Z</time>
      </trkpt>
      <trkpt lat="44.98948" lon="1.06177">
        <ele>87.1</ele>
        <time>2022-08-17T15:54:18Z</time>
      </trkpt>
      <trkpt lat="44.98963" lon="1.0617">
        <ele>86</ele>
        <time>2022-08-17T15:54:20Z</time>
      </trkpt>
      <trkpt lat="44.98979" lon="1.0617">
        <ele>85.3</ele>
        <time>2022-08-17T15:54:22Z</time>
      </trkpt>
      <trkpt lat="44.98994" lon="1.0617">
        <ele>84.7</ele>
        <time>2022-08-17T15:54:24Z</time>
      </trkpt>
      <trkpt lat="44.9901" lon="1.06171">
        <ele>83.1</ele>
        <time>2022-08-17T15:54:26Z</time>
      </trkpt>
      <trkpt lat="44.99025" lon="1.0617">
        <ele>81</ele>
        <time>2022-08-17T15:54:28Z</time>
      </trkpt>
      <trkpt lat="44.99038" lon="1.0617">
        <ele>79.2</ele>
        <time>2022-08-17T15:54:30Z</time>
      </trkpt>
      <trkpt lat="44.9905" lon="1.0617">
        <ele>77.6</ele>
        <time>2022-08-17T15:54:32Z</time>
      </trkpt>
      <trkpt lat="44.99058" lon="1.06175">
        <ele>76.8</ele>
        <time>2022-08-17T15:54:34Z</time>
      </trkpt>
      <trkpt lat="44.99062" lon="1.06187">
        <ele>76.8</ele>
        <time>2022-08-17T15:54:36Z</time>
      </trkpt>
      <trkpt lat="44.99062" lon="1.06202">
        <ele>77.4</ele>
        <time>2022-08-17T15:54:38Z</time>
      </trkpt>
      <trkpt lat="44.99063" lon="1.06217">
        <ele>77.9</ele>
        <time>2022-08-17T15:54:40Z</time>
      </trkpt>
      <trkpt lat="44.99063" lon="1.06233">
        <ele>78.6</ele>
        <time>2022-08-17T15:54:42Z</time>
      </trkpt>
      <trkpt lat="44.99064" lon="1.06249">
        <ele>79.2</ele>
        <time>2022-08-17T15:54:44Z</time>
      </trkpt>
      <trkpt lat="44.99064" lon="1.06265">
        <ele>79</ele>
        <time>2022-08-17T15:54:46Z</time>
      </trkpt>
      <trkpt lat="44.99064" lon="1.0628">
        <ele>78.8</ele>
        <time>2022-08-17T15:54:48Z</time>
      </trkpt>
      <trkpt lat="44.99064" lon="1.06296">
        <ele>78.8</ele>
        <time>2022-08-17T15:54:50Z</time>
      </trkpt>
      <trkpt lat="44.99063" lon="1.0631">
        <ele>79.1</ele>
        <time>2022-08-17T15:54:52Z</time>
      </trkpt>
      <trkpt lat="44.9906" lon="1.06322">
        <ele>79.9</ele>
        <time>2022-08-17T15:54:54Z</time>
      </trkpt>
      <trkpt lat="44.99058" lon="1.06334">
        <ele>81.1</ele>
        <time>2022-08-17T15:54:56Z</time>
      </trkpt>
      <trkpt lat="44.99055" lon="1.06345">
        <ele>82.5</ele>
        <time>2022-08-17T15:54:58Z</time>
      </trkpt>
      <trkpt lat="44.99053" lon="1.06356">
        <ele>83.8</ele>
        <time>2022-08-17T15:55:00Z</time>
      </trkpt>
      <trkpt lat="44.9905" lon="1.06366">
        <ele>85.6</ele>
        <time>2022-08-17T15:55:02Z</time>
      </trkpt>
      <trkpt lat="44.99048" lon="1.06377">
        <ele>87.2</ele>
        <time>2022-08-17T15:55:04Z</time>
      </trkpt>
      <trkpt lat="44.99045" lon="1.06387">
        <ele>89.2</ele>
        <time>2022-08-17T15:55:06Z</time>
      </trkpt>
      <trkpt lat="44.99043" lon="1.06397">
        <ele>90.9</ele>
        <time>2022-08-17T15:55:08Z</time>
      </trkpt>
      <trkpt lat="44.99041" lon="1.06408">
        <ele>92.6</ele>
        <time>2022-08-17T15:55:10Z</time>
      </trkpt>
      <trkpt lat="44.99038" lon="1.06419">
        <ele>94.7</ele>
        <time>2022-08-17T15:55:12Z</time>
      </trkpt>
      <trkpt lat="44.99036" lon="1.06429">
        <ele>96.3</ele>
        <time>2022-08-17T15:55:14Z</time>
      </trkpt>
      <trkpt lat="44.99033" lon="1.06439">
        <ele>98</ele>
        <time>2022-08-17T15:55:16Z</time>
      </trkpt>
      <trkpt lat="44.99031" lon="1.0645">
        <ele>99.8</ele>
        <time>2022-08-17T15:55:18Z</time>
      </trkpt>
      <trkpt lat="44.99029" lon="1.0646">
        <ele>101.2</ele>
        <time>2022-08-17T15:55:20Z</time>
      </trkpt>
      <trkpt lat="44.99026" lon="1.0647">
        <ele>103.1</ele>
        <time>2022-08-17T15:55:22Z</time>
      </trkpt>
      <trkpt lat="44.99023" lon="1.0648">
        <ele>104.9</ele>
        <time>2022-08-17T15:55:24Z</time>
      </trkpt>
      <trkpt lat="44.99021" lon="1.0649">
        <ele>106.6</ele>
        <time>2022-08-17T15:55:26Z</time>
      </trkpt>
      <trkpt lat="44.99019" lon="1.065">
        <ele>108</ele>
        <time>2022-08-17T15:55:28Z</time>
      </trkpt>
      <trkpt lat="44.99016" lon="1.0651">
        <ele>108.3</ele>
        <time>2022-08-17T15:55:30Z</time>
      </trkpt>
      <trkpt lat="44.99014" lon="1.06519">
        <ele>108.7</ele>
        <time>2022-08-17T15:55:32Z</time>
      </trkpt>
      <trkpt lat="44.99012" lon="1.06528">
        <ele>108.7</ele>
        <time>2022-08-17T15:55:34Z</time>
      </trkpt>
      <trkpt lat="44.9901" lon="1.06537">
        <ele>108.4</ele>
        <time>2022-08-17T15:55:36Z</time>
      </trkpt>
      <trkpt lat="44.99008" lon="1.06546">
        <ele>108.1</ele>
        <time>2022-08-17T15:55:38Z</time>
      </trkpt>
      <trkpt lat="44.99006" lon="1.06555">
        <ele>107.7</ele>
        <time>2022-08-17T15:55:40Z</time>
      </trkpt>
      <trkpt lat="44.99003" lon="1.06563">
        <ele>107.8</ele>
        <time>2022-08-17T15:55:42Z</time>
      </trkpt>
      <trkpt lat="44.99001" lon="1.06572">
        <ele>107.3</ele>
        <time>2022-08-17T15:55:44Z</time>
      </trkpt>
      <trkpt lat="44.98999" lon="1.0658">
        <ele>106.7</ele>
        <time>2022-08-17T15:55:46Z</time>
      </trkpt>
      <trkpt lat="44.98997" lon="1.06589">
        <ele>105.4</ele>
        <time>2022-08-17T15:55:48Z</time>
      </trkpt>
      <trkpt lat="44.98995" lon="1.06597">
        <ele>104.3</ele>
        <time>2022-08-17T15:55:50Z</time>
      </trkpt>
      <trkpt lat="44.98993" lon="1.06605">
        <ele>103.4</ele>
        <time>2022-08-17T15:55:52Z</time>
      </trkpt>
      <trkpt lat="44.98992" lon="1.06612">
        <ele>102.2</ele>
        <time>2022-08-17T15:55:54Z</time>
      </trkpt>
      <trkpt lat="44.9899" lon="1.0662">
        <ele>101.1</ele>
        <time>2022-08-17T15:55:56Z</time>
      </trkpt>
      <trkpt lat="44.98989" lon="1.06627">
        <ele>100.3</ele>
        <time>2022-08-17T15:55:58Z</time>
      </trkpt>
      <trkpt lat="44.98987" lon="1.06634">
        <ele>99.4</ele>
        <time>2022-08-17T15:56:00Z</time>
      </trkpt>
      <trkpt lat="44.98985" lon="1.06641">
        <ele>98.9</ele>
        <time>2022-08-17T15:56:02Z</time>
      </trkpt>
      <trkpt lat="44.98984" lon="1.06649">
        <ele>98.1</ele>
        <time>2022-08-17T15:56:04Z</time>
      </trkpt>
      <trkpt lat="44.98982" lon="1.06657">
        <ele>97.5</ele>
        <time>2022-08-17T15:56:06Z</time>
      </trkpt>
      <trkpt lat="44.9898" lon="1.06664">
        <ele>97.2</ele>
        <time>2022-08-17T15:56:08Z</time>
      </trkpt>
      <trkpt lat="44.98979" lon="1.06671">
        <ele>97.2</ele>
        <time>2022-08-17T15:56:10Z</time>
      </trkpt>
      <trkpt lat="44.98977" lon="1.06679">
        <ele>97.4</ele>
        <time>2022-08-17T15:56:12Z</time>
      </trkpt>
      <trkpt lat="44.98976" lon="1.06686">
        <ele>97.6</ele>
        <time>2022-08-17T15:56:14Z</time>
      </trkpt>
      <trkpt lat="44.98974" lon="1.06694">
        <ele>97.9</ele>
        <time>2022-08-17T15:56:16Z</time>
      </trkpt>
      <trkpt lat="44.98973" lon="1.06702">
        <ele>98.3</ele>
        <time>2022-08-17T15:56:18Z</time>
      </trkpt>
      <trkpt lat="44.98971" lon="1.06709">
        <ele>98.9</ele>
        <time>2022-08-17T15:56:20Z</time>
      </trkpt>
      <trkpt lat="44.98969" lon="1.06716">
        <ele>99.6</ele>
        <time>2022-08-17T15:56:22Z</time>
      </trkpt>
      <trkpt lat="44.98967" lon="1.06723">
        <ele>100.4</ele>
        <time>2022-08-17T15:56:24Z</time>
      </trkpt>
      <trkpt lat="44.98964" lon="1.06731">
        <ele>101.6</ele>
        <time>2022-08-17T15:56:26Z</time>
      </trkpt>
      <trkpt lat="44.98961" lon="1.06738">
        <ele>102.9</ele>
        <time>2022-08-17T15:56:28Z</time>
      </trkpt>
      <trkpt lat="44.98958" lon="1.06748">
        <ele>104.4</ele>
        <time>2022-08-17T15:56:30Z</time>
      </trkpt>
      <trkpt lat="44.98954" lon="1.06758">
        <ele>106.5</ele>
        <time>2022-08-17T15:56:32Z</time>
      </trkpt>
      <trkpt lat="44.98949" lon="1.06771">
        <ele>108.5</ele>
        <time>2022-08-17T15:56:34Z</time>
      </trkpt>
      <trkpt lat="44.98947" lon="1.06786">
        <ele>108.6</ele>
        <time>2022-08-17T15:56:36Z</time>
      </trkpt>
      <trkpt lat="44.98946" lon="1.068">
        <ele>108.4</ele>
        <time>2022-08-17T15:56:38Z</time>
      </trkpt>
      <trkpt lat="44.98944" lon="1.06813">
        <ele>108.8</ele>
        <time>2022-08-17T15:56:40Z</time>
      </trkpt>
      <trkpt lat="44.98943" lon="1.06825">
        <ele>108.6</ele>
        <time>2022-08-17T15:56:42Z</time>
      </trkpt>
      <trkpt lat="44.98943" lon="1.06839">
        <ele>107</ele>
        <time>2022-08-17T15:56:44Z</time>
      </trkpt>
      <trkpt lat="44.98942" lon="1.06852">
        <ele>105</ele>
        <time>2022-08-17T15:56:46Z</time>
      </trkpt>
      <trkpt lat="44.98941" lon="1.06865">
        <ele>103.4</ele>
        <time>2022-08-17T15:56:48Z</time>
      </trkpt>
      <trkpt lat="44.98939" lon="1.06879">
        <ele>101.8</ele>
        <time>2022-08-17T15:56:50Z</time>
      </trkpt>
      <trkpt lat="44.98938" lon="1.06889">
        <ele>100.3</ele>
        <time>2022-08-17T15:56:52Z</time>
      </trkpt>
      <trkpt lat="44.98937" lon="1.069">
        <ele>98.9</ele>
        <time>2022-08-17T15:56:54Z</time>
      </trkpt>
      <trkpt lat="44.98935" lon="1.06911">
        <ele>97.5</ele>
        <time>2022-08-17T15:56:56Z</time>
      </trkpt>
      <trkpt lat="44.98934" lon="1.0692">
        <ele>96.3</ele>
        <time>2022-08-17T15:56:58Z</time>
      </trkpt>
      <trkpt lat="44.98932" lon="1.06928">
        <ele>95.5</ele>
        <time>2022-08-17T15:57:00Z</time>
      </trkpt>
      <trkpt lat="44.98931" lon="1.06935">
        <ele>94.6</ele>
        <time>2022-08-17T15:57:02Z</time>
      </trkpt>
      <trkpt lat="44.98931" lon="1.06941">
        <ele>93.2</ele>
        <time>2022-08-17T15:57:04Z</time>
      </trkpt>
      <trkpt lat="44.98931" lon="1.06946">
        <ele>92.6</ele>
        <time>2022-08-17T15:57:06Z</time>
      </trkpt>
      <trkpt lat="44.98928" lon="1.06952">
        <ele>92.1</ele>
        <time>2022-08-17T15:57:08Z</time>
      </trkpt>
      <trkpt lat="44.98927" lon="1.06957">
        <ele>91.5</ele>
        <time>2022-08-17T15:57:10Z</time>
      </trkpt>
      <trkpt lat="44.98925" lon="1.06963">
        <ele>90.9</ele>
        <time>2022-08-17T15:57:12Z</time>
      </trkpt>
      <trkpt lat="44.98924" lon="1.06968">
        <ele>90.2</ele>
        <time>2022-08-17T15:57:14Z</time>
      </trkpt>
      <trkpt lat="44.98921" lon="1.06972">
        <ele>90</ele>
        <time>2022-08-17T15:57:16Z</time>
      </trkpt>
      <trkpt lat="44.98918" lon="1.06975">
        <ele>90.1</ele>
        <time>2022-08-17T15:57:18Z</time>
      </trkpt>
      <trkpt lat="44.98915" lon="1.06976">
        <ele>90.7</ele>
        <time>2022-08-17T15:57:20Z</time>
      </trkpt>
      <trkpt lat="44.98911" lon="1.06978">
        <ele>91.2</ele>
        <time>2022-08-17T15:57:22Z</time>
      </trkpt>
      <trkpt lat="44.98908" lon="1.06979">
        <ele>91.6</ele>
        <time>2022-08-17T15:57:24Z</time>
      </trkpt>
      <trkpt lat="44.98905" lon="1.06983">
        <ele>91.6</ele>
        <time>2022-08-17T15:57:26Z</time>
      </trkpt>
      <trkpt lat="44.98904" lon="1.06987">
        <ele>91</ele>
        <time>2022-08-17T15:57:28Z</time>
      </trkpt>
      <trkpt lat="44.98903" lon="1.06992">
        <ele>90.1</ele>
        <time>2022-08-17T15:57:30Z</time>
      </trkpt>
      <trkpt lat="44.98902" lon="1.06997">
        <ele>89.1</ele>
        <time>2022-08-17T15:57:32Z</time>
      </trkpt>
      <trkpt lat="44.989" lon="1.07002">
        <ele>89.2</ele>
        <time>2022-08-17T15:57:34Z</time>
      </trkpt>
      <trkpt lat="44.98898" lon="1.07005">
        <ele>89.8</ele>
        <time>2022-08-17T15:57:36Z</time>
      </trkpt>
      <trkpt lat="44.98895" lon="1.07008">
        <ele>90.5</ele>
        <time>2022-08-17T15:57:38Z</time>
      </trkpt>
      <trkpt lat="44.98893" lon="1.07013">
        <ele>91.3</ele>
        <time>2022-08-17T15:57:40Z</time>
      </trkpt>
      <trkpt lat="44.98893" lon="1.07014">
        <ele>91.2</ele>
        <time>2022-08-17T15:57:42Z</time>
      </trkpt>
      <trkpt lat="44.98894" lon="1.07014">
        <ele>91</ele>
        <time>2022-08-17T15:57:44Z</time>
      </trkpt>
      <trkpt lat="44.98895" lon="1.07013">
        <ele>90.9</ele>
        <time>2022-08-17T15:57:46Z</time>
      </trkpt>
      <trkpt lat="44.98894" lon="1.07013">
        <ele>91</ele>
        <time>2022-08-17T15:57:48Z</time>
      </trkpt>
      <trkpt lat="44.98894" lon="1.07013">
        <ele>91.1</ele>
        <time>2022-08-17T15:57:50Z</time>
      </trkpt>
      <trkpt lat="44.98925" lon="1.0695">
        <ele>93.4</ele>
        <time>2022-08-17T16:08:38Z</time>
      </trkpt>
      <trkpt lat="44.98928" lon="1.06938">
        <ele>94.8</ele>
        <time>2022-08-17T16:08:40Z</time>
      </trkpt>
      <trkpt lat="44.98932" lon="1.06927">
        <ele>95.7</ele>
        <time>2022-08-17T16:08:42Z</time>
      </trkpt>
      <trkpt lat="44.98933" lon="1.06913">
        <ele>97.8</ele>
        <time>2022-08-17T16:08:44Z</time>
      </trkpt>
      <trkpt lat="44.98935" lon="1.06901">
        <ele>99.5</ele>
        <time>2022-08-17T16:08:46Z</time>
      </trkpt>
      <trkpt lat="44.98937" lon="1.06889">
        <ele>100.8</ele>
        <time>2022-08-17T16:08:48Z</time>
      </trkpt>
      <trkpt lat="44.9894" lon="1.06877">
        <ele>101.7</ele>
        <time>2022-08-17T16:08:50Z</time>
      </trkpt>
      <trkpt lat="44.9894" lon="1.06866">
        <ele>103.7</ele>
        <time>2022-08-17T16:08:52Z</time>
      </trkpt>
      <trkpt lat="44.98941" lon="1.06855">
        <ele>105.2</ele>
        <time>2022-08-17T16:08:54Z</time>
      </trkpt>
      <trkpt lat="44.98941" lon="1.06845">
        <ele>106.8</ele>
        <time>2022-08-17T16:08:56Z</time>
      </trkpt>
      <trkpt lat="44.98941" lon="1.06835">
        <ele>108.5</ele>
        <time>2022-08-17T16:08:58Z</time>
      </trkpt>
      <trkpt lat="44.98943" lon="1.06826">
        <ele>108.2</ele>
        <time>2022-08-17T16:09:00Z</time>
      </trkpt>
      <trkpt lat="44.98944" lon="1.06823">
        <ele>107.9</ele>
        <time>2022-08-17T16:09:02Z</time>
      </trkpt>
      <trkpt lat="44.98946" lon="1.0682">
        <ele>107.2</ele>
        <time>2022-08-17T16:09:04Z</time>
      </trkpt>
      <trkpt lat="44.98945" lon="1.06817">
        <ele>108</ele>
        <time>2022-08-17T16:09:06Z</time>
      </trkpt>
      <trkpt lat="44.98945" lon="1.06814">
        <ele>107.9</ele>
        <time>2022-08-17T16:09:08Z</time>
      </trkpt>
      <trkpt lat="44.98946" lon="1.06811">
        <ele>107.8</ele>
        <time>2022-08-17T16:09:10Z</time>
      </trkpt>
      <trkpt lat="44.98952" lon="1.06783">
        <ele>105.9</ele>
        <time>2022-08-17T16:09:22Z</time>
      </trkpt>
      <trkpt lat="44.98954" lon="1.06776">
        <ele>105.3</ele>
        <time>2022-08-17T16:09:24Z</time>
      </trkpt>
      <trkpt lat="44.98956" lon="1.0677">
        <ele>104.4</ele>
        <time>2022-08-17T16:09:26Z</time>
      </trkpt>
      <trkpt lat="44.98955" lon="1.06764">
        <ele>105.1</ele>
        <time>2022-08-17T16:09:28Z</time>
      </trkpt>
      <trkpt lat="44.98957" lon="1.06758">
        <ele>104.3</ele>
        <time>2022-08-17T16:09:30Z</time>
      </trkpt>
      <trkpt lat="44.9896" lon="1.06753">
        <ele>102.7</ele>
        <time>2022-08-17T16:09:32Z</time>
      </trkpt>
      <trkpt lat="44.98962" lon="1.06748">
        <ele>101.7</ele>
        <time>2022-08-17T16:09:34Z</time>
      </trkpt>
      <trkpt lat="44.98963" lon="1.06743">
        <ele>101.5</ele>
        <time>2022-08-17T16:09:36Z</time>
      </trkpt>
      <trkpt lat="44.98963" lon="1.06737">
        <ele>101.4</ele>
        <time>2022-08-17T16:09:38Z</time>
      </trkpt>
      <trkpt lat="44.98965" lon="1.06732">
        <ele>100.9</ele>
        <time>2022-08-17T16:09:40Z</time>
      </trkpt>
      <trkpt lat="44.98966" lon="1.06725">
        <ele>100.9</ele>
        <time>2022-08-17T16:09:42Z</time>
      </trkpt>
      <trkpt lat="44.98967" lon="1.06719">
        <ele>100.2</ele>
        <time>2022-08-17T16:09:44Z</time>
      </trkpt>
      <trkpt lat="44.98969" lon="1.06712">
        <ele>99.6</ele>
        <time>2022-08-17T16:09:46Z</time>
      </trkpt>
      <trkpt lat="44.98971" lon="1.06705">
        <ele>99.1</ele>
        <time>2022-08-17T16:09:48Z</time>
      </trkpt>
      <trkpt lat="44.98973" lon="1.06696">
        <ele>98.6</ele>
        <time>2022-08-17T16:09:50Z</time>
      </trkpt>
      <trkpt lat="44.98975" lon="1.06688">
        <ele>97.6</ele>
        <time>2022-08-17T16:09:52Z</time>
      </trkpt>
      <trkpt lat="44.98977" lon="1.06681">
        <ele>97.2</ele>
        <time>2022-08-17T16:09:54Z</time>
      </trkpt>
      <trkpt lat="44.9898" lon="1.06673">
        <ele>96.5</ele>
        <time>2022-08-17T16:09:56Z</time>
      </trkpt>
      <trkpt lat="44.98982" lon="1.06664">
        <ele>96.3</ele>
        <time>2022-08-17T16:09:58Z</time>
      </trkpt>
      <trkpt lat="44.98984" lon="1.06655">
        <ele>96.6</ele>
        <time>2022-08-17T16:10:00Z</time>
      </trkpt>
      <trkpt lat="44.98987" lon="1.06647">
        <ele>97.3</ele>
        <time>2022-08-17T16:10:02Z</time>
      </trkpt>
      <trkpt lat="44.98989" lon="1.06638">
        <ele>98</ele>
        <time>2022-08-17T16:10:04Z</time>
      </trkpt>
      <trkpt lat="44.9899" lon="1.06629">
        <ele>99.1</ele>
        <time>2022-08-17T16:10:06Z</time>
      </trkpt>
      <trkpt lat="44.98992" lon="1.06619">
        <ele>100.5</ele>
        <time>2022-08-17T16:10:08Z</time>
      </trkpt>
      <trkpt lat="44.98994" lon="1.0661">
        <ele>102</ele>
        <time>2022-08-17T16:10:10Z</time>
      </trkpt>
      <trkpt lat="44.98996" lon="1.066">
        <ele>103.3</ele>
        <time>2022-08-17T16:10:12Z</time>
      </trkpt>
      <trkpt lat="44.98999" lon="1.06591">
        <ele>104.6</ele>
        <time>2022-08-17T16:10:14Z</time>
      </trkpt>
      <trkpt lat="44.99" lon="1.06581">
        <ele>106.2</ele>
        <time>2022-08-17T16:10:16Z</time>
      </trkpt>
      <trkpt lat="44.99003" lon="1.06571">
        <ele>106.6</ele>
        <time>2022-08-17T16:10:18Z</time>
      </trkpt>
      <trkpt lat="44.99005" lon="1.06561">
        <ele>107.1</ele>
        <time>2022-08-17T16:10:20Z</time>
      </trkpt>
      <trkpt lat="44.99007" lon="1.0655">
        <ele>107.5</ele>
        <time>2022-08-17T16:10:22Z</time>
      </trkpt>
      <trkpt lat="44.99009" lon="1.0654">
        <ele>108.1</ele>
        <time>2022-08-17T16:10:24Z</time>
      </trkpt>
      <trkpt lat="44.99012" lon="1.06529">
        <ele>108.3</ele>
        <time>2022-08-17T16:10:26Z</time>
      </trkpt>
      <trkpt lat="44.99014" lon="1.06518">
        <ele>108.4</ele>
        <time>2022-08-17T16:10:28Z</time>
      </trkpt>
      <trkpt lat="44.99017" lon="1.06507">
        <ele>108.3</ele>
        <time>2022-08-17T16:10:30Z</time>
      </trkpt>
      <trkpt lat="44.99019" lon="1.06496">
        <ele>107.7</ele>
        <time>2022-08-17T16:10:32Z</time>
      </trkpt>
      <trkpt lat="44.99023" lon="1.06484">
        <ele>105.5</ele>
        <time>2022-08-17T16:10:34Z</time>
      </trkpt>
      <trkpt lat="44.99026" lon="1.06474">
        <ele>103.4</ele>
        <time>2022-08-17T16:10:36Z</time>
      </trkpt>
      <trkpt lat="44.99028" lon="1.06463">
        <ele>101.4</ele>
        <time>2022-08-17T16:10:38Z</time>
      </trkpt>
      <trkpt lat="44.99031" lon="1.06452">
        <ele>99.6</ele>
        <time>2022-08-17T16:10:40Z</time>
      </trkpt>
      <trkpt lat="44.99034" lon="1.06441">
        <ele>97.7</ele>
        <time>2022-08-17T16:10:42Z</time>
      </trkpt>
      <trkpt lat="44.99036" lon="1.0643">
        <ele>95.8</ele>
        <time>2022-08-17T16:10:44Z</time>
      </trkpt>
      <trkpt lat="44.9904" lon="1.06419">
        <ele>93.8</ele>
        <time>2022-08-17T16:10:46Z</time>
      </trkpt>
      <trkpt lat="44.99042" lon="1.06408">
        <ele>91.6</ele>
        <time>2022-08-17T16:10:48Z</time>
      </trkpt>
      <trkpt lat="44.99045" lon="1.06397">
        <ele>89.6</ele>
        <time>2022-08-17T16:10:50Z</time>
      </trkpt>
      <trkpt lat="44.99047" lon="1.06386">
        <ele>87.8</ele>
        <time>2022-08-17T16:10:52Z</time>
      </trkpt>
      <trkpt lat="44.9905" lon="1.06376">
        <ele>86</ele>
        <time>2022-08-17T16:10:54Z</time>
      </trkpt>
      <trkpt lat="44.99053" lon="1.06365">
        <ele>84.3</ele>
        <time>2022-08-17T16:10:56Z</time>
      </trkpt>
      <trkpt lat="44.99055" lon="1.06355">
        <ele>82.6</ele>
        <time>2022-08-17T16:10:58Z</time>
      </trkpt>
      <trkpt lat="44.99058" lon="1.06344">
        <ele>81.2</ele>
        <time>2022-08-17T16:11:00Z</time>
      </trkpt>
      <trkpt lat="44.9906" lon="1.06334">
        <ele>80.1</ele>
        <time>2022-08-17T16:11:02Z</time>
      </trkpt>
      <trkpt lat="44.99062" lon="1.06324">
        <ele>79.2</ele>
        <time>2022-08-17T16:11:04Z</time>
      </trkpt>
      <trkpt lat="44.99064" lon="1.06314">
        <ele>78.4</ele>
        <time>2022-08-17T16:11:06Z</time>
      </trkpt>
      <trkpt lat="44.99066" lon="1.06304">
        <ele>77.9</ele>
        <time>2022-08-17T16:11:08Z</time>
      </trkpt>
      <trkpt lat="44.99067" lon="1.06295">
        <ele>77.7</ele>
        <time>2022-08-17T16:11:10Z</time>
      </trkpt>
      <trkpt lat="44.99067" lon="1.06286">
        <ele>77.8</ele>
        <time>2022-08-17T16:11:12Z</time>
      </trkpt>
      <trkpt lat="44.99068" lon="1.06277">
        <ele>77.8</ele>
        <time>2022-08-17T16:11:14Z</time>
      </trkpt>
      <trkpt lat="44.99068" lon="1.06267">
        <ele>78</ele>
        <time>2022-08-17T16:11:16Z</time>
      </trkpt>
      <trkpt lat="44.99067" lon="1.06258">
        <ele>78.3</ele>
        <time>2022-08-17T16:11:18Z</time>
      </trkpt>
      <trkpt lat="44.99067" lon="1.0625">
        <ele>78.5</ele>
        <time>2022-08-17T16:11:20Z</time>
      </trkpt>
      <trkpt lat="44.99067" lon="1.06242">
        <ele>78.2</ele>
        <time>2022-08-17T16:11:22Z</time>
      </trkpt>
      <trkpt lat="44.99067" lon="1.06233">
        <ele>77.9</ele>
        <time>2022-08-17T16:11:24Z</time>
      </trkpt>
      <trkpt lat="44.99067" lon="1.06224">
        <ele>77.6</ele>
        <time>2022-08-17T16:11:26Z</time>
      </trkpt>
      <trkpt lat="44.99066" lon="1.06216">
        <ele>77.3</ele>
        <time>2022-08-17T16:11:28Z</time>
      </trkpt>
      <trkpt lat="44.99066" lon="1.0621">
        <ele>77.1</ele>
        <time>2022-08-17T16:11:30Z</time>
      </trkpt>
      <trkpt lat="44.99065" lon="1.06203">
        <ele>77</ele>
        <time>2022-08-17T16:11:32Z</time>
      </trkpt>
      <trkpt lat="44.99065" lon="1.06196">
        <ele>76.7</ele>
        <time>2022-08-17T16:11:34Z</time>
      </trkpt>
      <trkpt lat="44.99065" lon="1.06189">
        <ele>76.4</ele>
        <time>2022-08-17T16:11:36Z</time>
      </trkpt>
      <trkpt lat="44.99065" lon="1.06183">
        <ele>76.2</ele>
        <time>2022-08-17T16:11:38Z</time>
      </trkpt>
      <trkpt lat="44.99065" lon="1.06178">
        <ele>75.9</ele>
        <time>2022-08-17T16:11:40Z</time>
      </trkpt>
      <trkpt lat="44.99067" lon="1.06173">
        <ele>75.4</ele>
        <time>2022-08-17T16:11:42Z</time>
      </trkpt>
      <trkpt lat="44.99071" lon="1.0617">
        <ele>74.8</ele>
        <time>2022-08-17T16:11:44Z</time>
      </trkpt>
      <trkpt lat="44.99076" lon="1.0617">
        <ele>74.1</ele>
        <time>2022-08-17T16:11:46Z</time>
      </trkpt>
      <trkpt lat="44.99081" lon="1.06171">
        <ele>73.4</ele>
        <time>2022-08-17T16:11:48Z</time>
      </trkpt>
      <trkpt lat="44.99087" lon="1.06171">
        <ele>72.8</ele>
        <time>2022-08-17T16:11:50Z</time>
      </trkpt>
      <trkpt lat="44.99092" lon="1.0617">
        <ele>72.4</ele>
        <time>2022-08-17T16:11:52Z</time>
      </trkpt>
      <trkpt lat="44.99097" lon="1.06171">
        <ele>71.9</ele>
        <time>2022-08-17T16:11:54Z</time>
      </trkpt>
      <trkpt lat="44.99103" lon="1.06172">
        <ele>71.4</ele>
        <time>2022-08-17T16:11:56Z</time>
      </trkpt>
      <trkpt lat="44.9911" lon="1.06171">
        <ele>70.9</ele>
        <time>2022-08-17T16:11:58Z</time>
      </trkpt>
      <trkpt lat="44.99116" lon="1.06172">
        <ele>70.4</ele>
        <time>2022-08-17T16:12:00Z</time>
      </trkpt>
      <trkpt lat="44.99122" lon="1.06172">
        <ele>69.9</ele>
        <time>2022-08-17T16:12:02Z</time>
      </trkpt>
      <trkpt lat="44.99128" lon="1.06172">
        <ele>69.4</ele>
        <time>2022-08-17T16:12:04Z</time>
      </trkpt>
      <trkpt lat="44.99134" lon="1.06172">
        <ele>68.9</ele>
        <time>2022-08-17T16:12:06Z</time>
      </trkpt>
      <trkpt lat="44.9914" lon="1.06172">
        <ele>68.3</ele>
        <time>2022-08-17T16:12:08Z</time>
      </trkpt>
      <trkpt lat="44.99147" lon="1.06172">
        <ele>67.8</ele>
        <time>2022-08-17T16:12:10Z</time>
      </trkpt>
      <trkpt lat="44.99153" lon="1.06172">
        <ele>67.2</ele>
        <time>2022-08-17T16:12:12Z</time>
      </trkpt>
      <trkpt lat="44.9916" lon="1.06172">
        <ele>66.7</ele>
        <time>2022-08-17T16:12:14Z</time>
      </trkpt>
      <trkpt lat="44.99167" lon="1.06173">
        <ele>66.2</ele>
        <time>2022-08-17T16:12:16Z</time>
      </trkpt>
      <trkpt lat="44.99174" lon="1.06173">
        <ele>66.3</ele>
        <time>2022-08-17T16:12:18Z</time>
      </trkpt>
      <trkpt lat="44.99182" lon="1.06173">
        <ele>66.5</ele>
        <time>2022-08-17T16:12:20Z</time>
      </trkpt>
      <trkpt lat="44.99189" lon="1.06173">
        <ele>66.7</ele>
        <time>2022-08-17T16:12:22Z</time>
      </trkpt>
      <trkpt lat="44.99197" lon="1.06173">
        <ele>66.8</ele>
        <time>2022-08-17T16:12:24Z</time>
      </trkpt>
      <trkpt lat="44.99205" lon="1.06172">
        <ele>67</ele>
        <time>2022-08-17T16:12:26Z</time>
      </trkpt>
      <trkpt lat="44.99213" lon="1.06172">
        <ele>67.2</ele>
        <time>2022-08-17T16:12:28Z</time>
      </trkpt>
      <trkpt lat="44.99222" lon="1.06173">
        <ele>67.4</ele>
        <time>2022-08-17T16:12:30Z</time>
      </trkpt>
      <trkpt lat="44.99231" lon="1.06173">
        <ele>67.6</ele>
        <time>2022-08-17T16:12:32Z</time>
      </trkpt>
      <trkpt lat="44.9924" lon="1.06173">
        <ele>67.8</ele>
        <time>2022-08-17T16:12:34Z</time>
      </trkpt>
      <trkpt lat="44.9925" lon="1.06173">
        <ele>68</ele>
        <time>2022-08-17T16:12:36Z</time>
      </trkpt>
      <trkpt lat="44.9926" lon="1.06173">
        <ele>68.2</ele>
        <time>2022-08-17T16:12:38Z</time>
      </trkpt>
      <trkpt lat="44.99271" lon="1.06172">
        <ele>68.5</ele>
        <time>2022-08-17T16:12:40Z</time>
      </trkpt>
      <trkpt lat="44.99281" lon="1.06172">
        <ele>68.7</ele>
        <time>2022-08-17T16:12:42Z</time>
      </trkpt>
      <trkpt lat="44.99292" lon="1.06173">
        <ele>69</ele>
        <time>2022-08-17T16:12:44Z</time>
      </trkpt>
      <trkpt lat="44.99302" lon="1.06173">
        <ele>69.2</ele>
        <time>2022-08-17T16:12:46Z</time>
      </trkpt>
      <trkpt lat="44.99311" lon="1.06173">
        <ele>69.4</ele>
        <time>2022-08-17T16:12:48Z</time>
      </trkpt>
      <trkpt lat="44.99319" lon="1.06174">
        <ele>69.6</ele>
        <time>2022-08-17T16:12:50Z</time>
      </trkpt>
      <trkpt lat="44.99326" lon="1.06175">
        <ele>69.7</ele>
        <time>2022-08-17T16:12:52Z</time>
      </trkpt>
      <trkpt lat="44.9933" lon="1.06178">
        <ele>69.8</ele>
        <time>2022-08-17T16:12:54Z</time>
      </trkpt>
      <trkpt lat="44.9933" lon="1.06179">
        <ele>69.8</ele>
        <time>2022-08-17T16:12:56Z</time>
      </trkpt>
      <trkpt lat="44.9933" lon="1.06179">
        <ele>69.8</ele>
        <time>2022-08-17T16:12:58Z</time>
      </trkpt>
      <trkpt lat="44.9933" lon="1.06179">
        <ele>69.8</ele>
        <time>2022-08-17T16:13:00Z</time>
      </trkpt>
      <trkpt lat="44.9933" lon="1.06179">
        <ele>69.8</ele>
        <time>2022-08-17T16:13:02Z</time>
      </trkpt>
      <trkpt lat="44.9933" lon="1.06179">
        <ele>69.8</ele>
        <time>2022-08-17T16:13:04Z</time>
      </trkpt>
      <trkpt lat="44.99356" lon="1.06157">
        <ele>71.3</ele>
        <time>2022-08-17T16:15:32Z</time>
      </trkpt>
      <trkpt lat="44.9936" lon="1.06149">
        <ele>71.7</ele>
        <time>2022-08-17T16:15:34Z</time>
      </trkpt>
      <trkpt lat="44.99366" lon="1.06141">
        <ele>72.1</ele>
        <time>2022-08-17T16:15:36Z</time>
      </trkpt>
      <trkpt lat="44.9937" lon="1.06131">
        <ele>72.6</ele>
        <time>2022-08-17T16:15:38Z</time>
      </trkpt>
      <trkpt lat="44.99374" lon="1.0612">
        <ele>73.1</ele>
        <time>2022-08-17T16:15:40Z</time>
      </trkpt>
      <trkpt lat="44.99378" lon="1.06109">
        <ele>73.6</ele>
        <time>2022-08-17T16:15:42Z</time>
      </trkpt>
      <trkpt lat="44.9938" lon="1.06097">
        <ele>74</ele>
        <time>2022-08-17T16:15:44Z</time>
      </trkpt>
      <trkpt lat="44.99382" lon="1.06086">
        <ele>74.5</ele>
        <time>2022-08-17T16:15:46Z</time>
      </trkpt>
      <trkpt lat="44.99384" lon="1.06075">
        <ele>75.1</ele>
        <time>2022-08-17T16:15:48Z</time>
      </trkpt>
      <trkpt lat="44.99385" lon="1.06063">
        <ele>75.6</ele>
        <time>2022-08-17T16:15:50Z</time>
      </trkpt>
      <trkpt lat="44.99386" lon="1.06053">
        <ele>76.2</ele>
        <time>2022-08-17T16:15:52Z</time>
      </trkpt>
      <trkpt lat="44.99388" lon="1.06042">
        <ele>76.9</ele>
        <time>2022-08-17T16:15:54Z</time>
      </trkpt>
      <trkpt lat="44.9939" lon="1.06033">
        <ele>77.5</ele>
        <time>2022-08-17T16:15:56Z</time>
      </trkpt>
      <trkpt lat="44.99392" lon="1.06023">
        <ele>78.1</ele>
        <time>2022-08-17T16:15:58Z</time>
      </trkpt>
      <trkpt lat="44.99394" lon="1.06012">
        <ele>78.8</ele>
        <time>2022-08-17T16:16:00Z</time>
      </trkpt>
      <trkpt lat="44.99396" lon="1.06001">
        <ele>79.5</ele>
        <time>2022-08-17T16:16:02Z</time>
      </trkpt>
      <trkpt lat="44.99398" lon="1.0599">
        <ele>78.9</ele>
        <time>2022-08-17T16:16:04Z</time>
      </trkpt>
      <trkpt lat="44.994" lon="1.05981">
        <ele>78.5</ele>
        <time>2022-08-17T16:16:06Z</time>
      </trkpt>
      <trkpt lat="44.99403" lon="1.05973">
        <ele>78</ele>
        <time>2022-08-17T16:16:08Z</time>
      </trkpt>
      <trkpt lat="44.99406" lon="1.05963">
        <ele>77.4</ele>
        <time>2022-08-17T16:16:10Z</time>
      </trkpt>
      <trkpt lat="44.99409" lon="1.05953">
        <ele>76.8</ele>
        <time>2022-08-17T16:16:12Z</time>
      </trkpt>
      <trkpt lat="44.99413" lon="1.05944">
        <ele>76.2</ele>
        <time>2022-08-17T16:16:14Z</time>
      </trkpt>
      <trkpt lat="44.99417" lon="1.05934">
        <ele>75.6</ele>
        <time>2022-08-17T16:16:16Z</time>
      </trkpt>
      <trkpt lat="44.99423" lon="1.05926">
        <ele>75.5</ele>
        <time>2022-08-17T16:16:18Z</time>
      </trkpt>
      <trkpt lat="44.99427" lon="1.05918">
        <ele>75.3</ele>
        <time>2022-08-17T16:16:20Z</time>
      </trkpt>
      <trkpt lat="44.99432" lon="1.0591">
        <ele>75.2</ele>
        <time>2022-08-17T16:16:22Z</time>
      </trkpt>
      <trkpt lat="44.99438" lon="1.05905">
        <ele>75.3</ele>
        <time>2022-08-17T16:16:24Z</time>
      </trkpt>
      <trkpt lat="44.99443" lon="1.05898">
        <ele>75.3</ele>
        <time>2022-08-17T16:16:26Z</time>
      </trkpt>
      <trkpt lat="44.99451" lon="1.05894">
        <ele>75.5</ele>
        <time>2022-08-17T16:16:28Z</time>
      </trkpt>
      <trkpt lat="44.99458" lon="1.05891">
        <ele>75.9</ele>
        <time>2022-08-17T16:16:30Z</time>
      </trkpt>
      <trkpt lat="44.99466" lon="1.05888">
        <ele>76.2</ele>
        <time>2022-08-17T16:16:32Z</time>
      </trkpt>
      <trkpt lat="44.99473" lon="1.05884">
        <ele>76.3</ele>
        <time>2022-08-17T16:16:34Z</time>
      </trkpt>
      <trkpt lat="44.99481" lon="1.05881">
        <ele>76.5</ele>
        <time>2022-08-17T16:16:36Z</time>
      </trkpt>
      <trkpt lat="44.99488" lon="1.05879">
        <ele>76.7</ele>
        <time>2022-08-17T16:16:38Z</time>
      </trkpt>
      <trkpt lat="44.99495" lon="1.05876">
        <ele>76.9</ele>
        <time>2022-08-17T16:16:40Z</time>
      </trkpt>
      <trkpt lat="44.99502" lon="1.05873">
        <ele>76.7</ele>
        <time>2022-08-17T16:16:42Z</time>
      </trkpt>
      <trkpt lat="44.9951" lon="1.0587">
        <ele>76.4</ele>
        <time>2022-08-17T16:16:44Z</time>
      </trkpt>
      <trkpt lat="44.99518" lon="1.05867">
        <ele>76.1</ele>
        <time>2022-08-17T16:16:46Z</time>
      </trkpt>
      <trkpt lat="44.99525" lon="1.05866">
        <ele>76</ele>
        <time>2022-08-17T16:16:48Z</time>
      </trkpt>
      <trkpt lat="44.99533" lon="1.05863">
        <ele>75.6</ele>
        <time>2022-08-17T16:16:50Z</time>
      </trkpt>
      <trkpt lat="44.9954" lon="1.0586">
        <ele>75.1</ele>
        <time>2022-08-17T16:16:52Z</time>
      </trkpt>
      <trkpt lat="44.99548" lon="1.05857">
        <ele>74.6</ele>
        <time>2022-08-17T16:16:54Z</time>
      </trkpt>
      <trkpt lat="44.99556" lon="1.05853">
        <ele>74</ele>
        <time>2022-08-17T16:16:56Z</time>
      </trkpt>
      <trkpt lat="44.99563" lon="1.0585">
        <ele>73.5</ele>
        <time>2022-08-17T16:16:58Z</time>
      </trkpt>
      <trkpt lat="44.99571" lon="1.05848">
        <ele>73</ele>
        <time>2022-08-17T16:17:00Z</time>
      </trkpt>
      <trkpt lat="44.99577" lon="1.05844">
        <ele>72.2</ele>
        <time>2022-08-17T16:17:02Z</time>
      </trkpt>
      <trkpt lat="44.99585" lon="1.05842">
        <ele>71.9</ele>
        <time>2022-08-17T16:17:04Z</time>
      </trkpt>
      <trkpt lat="44.99592" lon="1.05839">
        <ele>71.9</ele>
        <time>2022-08-17T16:17:06Z</time>
      </trkpt>
      <trkpt lat="44.99599" lon="1.05837">
        <ele>71.9</ele>
        <time>2022-08-17T16:17:08Z</time>
      </trkpt>
      <trkpt lat="44.99606" lon="1.05835">
        <ele>72</ele>
        <time>2022-08-17T16:17:10Z</time>
      </trkpt>
      <trkpt lat="44.99614" lon="1.05831">
        <ele>72.1</ele>
        <time>2022-08-17T16:17:12Z</time>
      </trkpt>
      <trkpt lat="44.99621" lon="1.05829">
        <ele>72.6</ele>
        <time>2022-08-17T16:17:14Z</time>
      </trkpt>
      <trkpt lat="44.99629" lon="1.05826">
        <ele>73</ele>
        <time>2022-08-17T16:17:16Z</time>
      </trkpt>
      <trkpt lat="44.99637" lon="1.05823">
        <ele>73.4</ele>
        <time>2022-08-17T16:17:18Z</time>
      </trkpt>
      <trkpt lat="44.99645" lon="1.0582">
        <ele>73.7</ele>
        <time>2022-08-17T16:17:20Z</time>
      </trkpt>
      <trkpt lat="44.99653" lon="1.05817">
        <ele>74</ele>
        <time>2022-08-17T16:17:22Z</time>
      </trkpt>
      <trkpt lat="44.99661" lon="1.05814">
        <ele>74.3</ele>
        <time>2022-08-17T16:17:24Z</time>
      </trkpt>
      <trkpt lat="44.99669" lon="1.05811">
        <ele>74.6</ele>
        <time>2022-08-17T16:17:26Z</time>
      </trkpt>
      <trkpt lat="44.99677" lon="1.05809">
        <ele>74.9</ele>
        <time>2022-08-17T16:17:28Z</time>
      </trkpt>
      <trkpt lat="44.99685" lon="1.05806">
        <ele>75.3</ele>
        <time>2022-08-17T16:17:30Z</time>
      </trkpt>
      <trkpt lat="44.99694" lon="1.05803">
        <ele>75.6</ele>
        <time>2022-08-17T16:17:32Z</time>
      </trkpt>
      <trkpt lat="44.99702" lon="1.05799">
        <ele>75.8</ele>
        <time>2022-08-17T16:17:34Z</time>
      </trkpt>
      <trkpt lat="44.99711" lon="1.05796">
        <ele>76</ele>
        <time>2022-08-17T16:17:36Z</time>
      </trkpt>
      <trkpt lat="44.99719" lon="1.05793">
        <ele>76.2</ele>
        <time>2022-08-17T16:17:38Z</time>
      </trkpt>
      <trkpt lat="44.99727" lon="1.05789">
        <ele>76.4</ele>
        <time>2022-08-17T16:17:40Z</time>
      </trkpt>
      <trkpt lat="44.99736" lon="1.05786">
        <ele>76.5</ele>
        <time>2022-08-17T16:17:42Z</time>
      </trkpt>
      <trkpt lat="44.99744" lon="1.05782">
        <ele>76.6</ele>
        <time>2022-08-17T16:17:44Z</time>
      </trkpt>
      <trkpt lat="44.99753" lon="1.05779">
        <ele>76.5</ele>
        <time>2022-08-17T16:17:46Z</time>
      </trkpt>
      <trkpt lat="44.99761" lon="1.05776">
        <ele>76.4</ele>
        <time>2022-08-17T16:17:48Z</time>
      </trkpt>
      <trkpt lat="44.99769" lon="1.05772">
        <ele>76.2</ele>
        <time>2022-08-17T16:17:50Z</time>
      </trkpt>
      <trkpt lat="44.99778" lon="1.0577">
        <ele>76.2</ele>
        <time>2022-08-17T16:17:52Z</time>
      </trkpt>
      <trkpt lat="44.99787" lon="1.05767">
        <ele>76</ele>
        <time>2022-08-17T16:17:54Z</time>
      </trkpt>
      <trkpt lat="44.99795" lon="1.05763">
        <ele>75.8</ele>
        <time>2022-08-17T16:17:56Z</time>
      </trkpt>
      <trkpt lat="44.99804" lon="1.05761">
        <ele>75.7</ele>
        <time>2022-08-17T16:17:58Z</time>
      </trkpt>
      <trkpt lat="44.99813" lon="1.05758">
        <ele>75.5</ele>
        <time>2022-08-17T16:18:00Z</time>
      </trkpt>
      <trkpt lat="44.99821" lon="1.05754">
        <ele>75.3</ele>
        <time>2022-08-17T16:18:02Z</time>
      </trkpt>
      <trkpt lat="44.99829" lon="1.0575">
        <ele>74.9</ele>
        <time>2022-08-17T16:18:04Z</time>
      </trkpt>
      <trkpt lat="44.99838" lon="1.05747">
        <ele>75.4</ele>
        <time>2022-08-17T16:18:06Z</time>
      </trkpt>
      <trkpt lat="44.99847" lon="1.05744">
        <ele>76</ele>
        <time>2022-08-17T16:18:08Z</time>
      </trkpt>
      <trkpt lat="44.99856" lon="1.05741">
        <ele>76.6</ele>
        <time>2022-08-17T16:18:10Z</time>
      </trkpt>
      <trkpt lat="44.99864" lon="1.05738">
        <ele>77.2</ele>
        <time>2022-08-17T16:18:12Z</time>
      </trkpt>
      <trkpt lat="44.99873" lon="1.05735">
        <ele>77.7</ele>
        <time>2022-08-17T16:18:14Z</time>
      </trkpt>
      <trkpt lat="44.99881" lon="1.05731">
        <ele>78</ele>
        <time>2022-08-17T16:18:16Z</time>
      </trkpt>
      <trkpt lat="44.99889" lon="1.05727">
        <ele>78.2</ele>
        <time>2022-08-17T16:18:18Z</time>
      </trkpt>
      <trkpt lat="44.99898" lon="1.05725">
        <ele>78.6</ele>
        <time>2022-08-17T16:18:20Z</time>
      </trkpt>
      <trkpt lat="44.99907" lon="1.05721">
        <ele>78.8</ele>
        <time>2022-08-17T16:18:22Z</time>
      </trkpt>
      <trkpt lat="44.99915" lon="1.05718">
        <ele>78.9</ele>
        <time>2022-08-17T16:18:24Z</time>
      </trkpt>
      <trkpt lat="44.99924" lon="1.05714">
        <ele>82</ele>
        <time>2022-08-17T16:18:26Z</time>
      </trkpt>
      <trkpt lat="44.99934" lon="1.05711">
        <ele>82</ele>
        <time>2022-08-17T16:18:28Z</time>
      </trkpt>
      <trkpt lat="44.99942" lon="1.05708">
        <ele>74</ele>
        <time>2022-08-17T16:18:30Z</time>
      </trkpt>
      <trkpt lat="44.99952" lon="1.05704">
        <ele>74</ele>
        <time>2022-08-17T16:18:32Z</time>
      </trkpt>
      <trkpt lat="44.9996" lon="1.057">
        <ele>78</ele>
        <time>2022-08-17T16:18:34Z</time>
      </trkpt>
      <trkpt lat="44.99967" lon="1.05698">
        <ele>78</ele>
        <time>2022-08-17T16:18:36Z</time>
      </trkpt>
      <trkpt lat="44.99975" lon="1.05694">
        <ele>78</ele>
        <time>2022-08-17T16:18:38Z</time>
      </trkpt>
      <trkpt lat="44.99983" lon="1.0569">
        <ele>78</ele>
        <time>2022-08-17T16:18:40Z</time>
      </trkpt>
      <trkpt lat="44.99992" lon="1.05686">
        <ele>78</ele>
        <time>2022-08-17T16:18:42Z</time>
      </trkpt>
      <trkpt lat="45" lon="1.05684">
        <ele>81.1</ele>
        <time>2022-08-17T16:18:44Z</time>
      </trkpt>
      <trkpt lat="45.00008" lon="1.05682">
        <ele>81.3</ele>
        <time>2022-08-17T16:18:46Z</time>
      </trkpt>
      <trkpt lat="45.00016" lon="1.05679">
        <ele>81.3</ele>
        <time>2022-08-17T16:18:48Z</time>
      </trkpt>
      <trkpt lat="45.00024" lon="1.05677">
        <ele>81.4</ele>
        <time>2022-08-17T16:18:50Z</time>
      </trkpt>
      <trkpt lat="45.00033" lon="1.05675">
        <ele>81.6</ele>
        <time>2022-08-17T16:18:52Z</time>
      </trkpt>
      <trkpt lat="45.0004" lon="1.05674">
        <ele>81.8</ele>
        <time>2022-08-17T16:18:54Z</time>
      </trkpt>
      <trkpt lat="45.00048" lon="1.05672">
        <ele>82</ele>
        <time>2022-08-17T16:18:56Z</time>
      </trkpt>
      <trkpt lat="45.00056" lon="1.05672">
        <ele>82.3</ele>
        <time>2022-08-17T16:18:58Z</time>
      </trkpt>
      <trkpt lat="45.00064" lon="1.05671">
        <ele>82.7</ele>
        <time>2022-08-17T16:19:00Z</time>
      </trkpt>
      <trkpt lat="45.00072" lon="1.05669">
        <ele>82.7</ele>
        <time>2022-08-17T16:19:02Z</time>
      </trkpt>
      <trkpt lat="45.0008" lon="1.05668">
        <ele>83</ele>
        <time>2022-08-17T16:19:04Z</time>
      </trkpt>
      <trkpt lat="45.00088" lon="1.05668">
        <ele>83.4</ele>
        <time>2022-08-17T16:19:06Z</time>
      </trkpt>
      <trkpt lat="45.00096" lon="1.05666">
        <ele>83.3</ele>
        <time>2022-08-17T16:19:08Z</time>
      </trkpt>
      <trkpt lat="45.00104" lon="1.05666">
        <ele>83.4</ele>
        <time>2022-08-17T16:19:10Z</time>
      </trkpt>
      <trkpt lat="45.00111" lon="1.05668">
        <ele>84</ele>
        <time>2022-08-17T16:19:12Z</time>
      </trkpt>
      <trkpt lat="45.00117" lon="1.05666">
        <ele>83.7</ele>
        <time>2022-08-17T16:19:14Z</time>
      </trkpt>
      <trkpt lat="45.00124" lon="1.05665">
        <ele>83.8</ele>
        <time>2022-08-17T16:19:16Z</time>
      </trkpt>
      <trkpt lat="45.0013" lon="1.05666">
        <ele>84</ele>
        <time>2022-08-17T16:19:18Z</time>
      </trkpt>
      <trkpt lat="45.00135" lon="1.05667">
        <ele>84.3</ele>
        <time>2022-08-17T16:19:20Z</time>
      </trkpt>
      <trkpt lat="45.00141" lon="1.05668">
        <ele>84.7</ele>
        <time>2022-08-17T16:19:22Z</time>
      </trkpt>
      <trkpt lat="45.00147" lon="1.05668">
        <ele>84.8</ele>
        <time>2022-08-17T16:19:24Z</time>
      </trkpt>
      <trkpt lat="45.00152" lon="1.05667">
        <ele>84.7</ele>
        <time>2022-08-17T16:19:26Z</time>
      </trkpt>
      <trkpt lat="45.00158" lon="1.05667">
        <ele>84.8</ele>
        <time>2022-08-17T16:19:28Z</time>
      </trkpt>
      <trkpt lat="45.00163" lon="1.05665">
        <ele>84.7</ele>
        <time>2022-08-17T16:19:30Z</time>
      </trkpt>
      <trkpt lat="45.00168" lon="1.05662">
        <ele>84.6</ele>
        <time>2022-08-17T16:19:32Z</time>
      </trkpt>
      <trkpt lat="45.00175" lon="1.05661">
        <ele>84.8</ele>
        <time>2022-08-17T16:19:34Z</time>
      </trkpt>
      <trkpt lat="45.00181" lon="1.05657">
        <ele>84.9</ele>
        <time>2022-08-17T16:19:36Z</time>
      </trkpt>
      <trkpt lat="45.00188" lon="1.05655">
        <ele>85.1</ele>
        <time>2022-08-17T16:19:38Z</time>
      </trkpt>
      <trkpt lat="45.00195" lon="1.05651">
        <ele>85.1</ele>
        <time>2022-08-17T16:19:40Z</time>
      </trkpt>
      <trkpt lat="45.00204" lon="1.0565">
        <ele>85.4</ele>
        <time>2022-08-17T16:19:42Z</time>
      </trkpt>
      <trkpt lat="45.00212" lon="1.05647">
        <ele>85.6</ele>
        <time>2022-08-17T16:19:44Z</time>
      </trkpt>
      <trkpt lat="45.00219" lon="1.05644">
        <ele>85.8</ele>
        <time>2022-08-17T16:19:46Z</time>
      </trkpt>
      <trkpt lat="45.00228" lon="1.05642">
        <ele>86</ele>
        <time>2022-08-17T16:19:48Z</time>
      </trkpt>
      <trkpt lat="45.00236" lon="1.05639">
        <ele>86.1</ele>
        <time>2022-08-17T16:19:50Z</time>
      </trkpt>
      <trkpt lat="45.00244" lon="1.05637">
        <ele>86.4</ele>
        <time>2022-08-17T16:19:52Z</time>
      </trkpt>
      <trkpt lat="45.00252" lon="1.05634">
        <ele>86.4</ele>
        <time>2022-08-17T16:19:54Z</time>
      </trkpt>
      <trkpt lat="45.0026" lon="1.05635">
        <ele>86.7</ele>
        <time>2022-08-17T16:19:56Z</time>
      </trkpt>
      <trkpt lat="45.00269" lon="1.05633">
        <ele>86.7</ele>
        <time>2022-08-17T16:19:58Z</time>
      </trkpt>
      <trkpt lat="45.00277" lon="1.05632">
        <ele>86.7</ele>
        <time>2022-08-17T16:20:00Z</time>
      </trkpt>
      <trkpt lat="45.00286" lon="1.0563">
        <ele>86.8</ele>
        <time>2022-08-17T16:20:02Z</time>
      </trkpt>
      <trkpt lat="45.00294" lon="1.05628">
        <ele>86.7</ele>
        <time>2022-08-17T16:20:04Z</time>
      </trkpt>
      <trkpt lat="45.00302" lon="1.05627">
        <ele>86.8</ele>
        <time>2022-08-17T16:20:06Z</time>
      </trkpt>
      <trkpt lat="45.0031" lon="1.05626">
        <ele>86.9</ele>
        <time>2022-08-17T16:20:08Z</time>
      </trkpt>
      <trkpt lat="45.00319" lon="1.05625">
        <ele>87</ele>
        <time>2022-08-17T16:20:10Z</time>
      </trkpt>
      <trkpt lat="45.00327" lon="1.05624">
        <ele>87.1</ele>
        <time>2022-08-17T16:20:12Z</time>
      </trkpt>
      <trkpt lat="45.00334" lon="1.05624">
        <ele>87.4</ele>
        <time>2022-08-17T16:20:14Z</time>
      </trkpt>
      <trkpt lat="45.00343" lon="1.05622">
        <ele>86.9</ele>
        <time>2022-08-17T16:20:16Z</time>
      </trkpt>
      <trkpt lat="45.00351" lon="1.05621">
        <ele>86.4</ele>
        <time>2022-08-17T16:20:18Z</time>
      </trkpt>
      <trkpt lat="45.00359" lon="1.05619">
        <ele>85.9</ele>
        <time>2022-08-17T16:20:20Z</time>
      </trkpt>
      <trkpt lat="45.00368" lon="1.05617">
        <ele>85.4</ele>
        <time>2022-08-17T16:20:22Z</time>
      </trkpt>
      <trkpt lat="45.00377" lon="1.05618">
        <ele>85.2</ele>
        <time>2022-08-17T16:20:24Z</time>
      </trkpt>
      <trkpt lat="45.00384" lon="1.05616">
        <ele>84.8</ele>
        <time>2022-08-17T16:20:26Z</time>
      </trkpt>
      <trkpt lat="45.00392" lon="1.05614">
        <ele>84.2</ele>
        <time>2022-08-17T16:20:28Z</time>
      </trkpt>
      <trkpt lat="45.004" lon="1.05613">
        <ele>83.8</ele>
        <time>2022-08-17T16:20:30Z</time>
      </trkpt>
      <trkpt lat="45.00409" lon="1.05611">
        <ele>83.2</ele>
        <time>2022-08-17T16:20:32Z</time>
      </trkpt>
      <trkpt lat="45.00416" lon="1.05609">
        <ele>82.7</ele>
        <time>2022-08-17T16:20:34Z</time>
      </trkpt>
      <trkpt lat="45.00424" lon="1.05607">
        <ele>82.8</ele>
        <time>2022-08-17T16:20:36Z</time>
      </trkpt>
      <trkpt lat="45.00432" lon="1.05605">
        <ele>82.9</ele>
        <time>2022-08-17T16:20:38Z</time>
      </trkpt>
      <trkpt lat="45.0044" lon="1.05602">
        <ele>82.9</ele>
        <time>2022-08-17T16:20:40Z</time>
      </trkpt>
      <trkpt lat="45.00448" lon="1.05599">
        <ele>82.9</ele>
        <time>2022-08-17T16:20:42Z</time>
      </trkpt>
      <trkpt lat="45.00455" lon="1.05595">
        <ele>82.6</ele>
        <time>2022-08-17T16:20:44Z</time>
      </trkpt>
      <trkpt lat="45.00463" lon="1.05594">
        <ele>82.7</ele>
        <time>2022-08-17T16:20:46Z</time>
      </trkpt>
      <trkpt lat="45.0047" lon="1.05589">
        <ele>82.5</ele>
        <time>2022-08-17T16:20:48Z</time>
      </trkpt>
      <trkpt lat="45.00478" lon="1.05586">
        <ele>82.4</ele>
        <time>2022-08-17T16:20:50Z</time>
      </trkpt>
      <trkpt lat="45.00485" lon="1.05582">
        <ele>82.2</ele>
        <time>2022-08-17T16:20:52Z</time>
      </trkpt>
      <trkpt lat="45.00493" lon="1.05579">
        <ele>82.4</ele>
        <time>2022-08-17T16:20:54Z</time>
      </trkpt>
      <trkpt lat="45.005" lon="1.05575">
        <ele>82.5</ele>
        <time>2022-08-17T16:20:56Z</time>
      </trkpt>
      <trkpt lat="45.00507" lon="1.05571">
        <ele>82.5</ele>
        <time>2022-08-17T16:20:58Z</time>
      </trkpt>
      <trkpt lat="45.00514" lon="1.05568">
        <ele>82.6</ele>
        <time>2022-08-17T16:21:00Z</time>
      </trkpt>
      <trkpt lat="45.00522" lon="1.05565">
        <ele>82.7</ele>
        <time>2022-08-17T16:21:02Z</time>
      </trkpt>
      <trkpt lat="45.00529" lon="1.05561">
        <ele>82.7</ele>
        <time>2022-08-17T16:21:04Z</time>
      </trkpt>
      <trkpt lat="45.00537" lon="1.05558">
        <ele>82.8</ele>
        <time>2022-08-17T16:21:06Z</time>
      </trkpt>
      <trkpt lat="45.00546" lon="1.05556">
        <ele>83</ele>
        <time>2022-08-17T16:21:08Z</time>
      </trkpt>
      <trkpt lat="45.00553" lon="1.05552">
        <ele>83</ele>
        <time>2022-08-17T16:21:10Z</time>
      </trkpt>
      <trkpt lat="45.00561" lon="1.0555">
        <ele>83.2</ele>
        <time>2022-08-17T16:21:12Z</time>
      </trkpt>
      <trkpt lat="45.00569" lon="1.05548">
        <ele>83.4</ele>
        <time>2022-08-17T16:21:14Z</time>
      </trkpt>
      <trkpt lat="45.00577" lon="1.05545">
        <ele>83.5</ele>
        <time>2022-08-17T16:21:16Z</time>
      </trkpt>
      <trkpt lat="45.00585" lon="1.05544">
        <ele>83.7</ele>
        <time>2022-08-17T16:21:18Z</time>
      </trkpt>
      <trkpt lat="45.00593" lon="1.05542">
        <ele>83.7</ele>
        <time>2022-08-17T16:21:20Z</time>
      </trkpt>
      <trkpt lat="45.006" lon="1.0554">
        <ele>83.8</ele>
        <time>2022-08-17T16:21:22Z</time>
      </trkpt>
      <trkpt lat="45.00608" lon="1.0554">
        <ele>84</ele>
        <time>2022-08-17T16:21:24Z</time>
      </trkpt>
      <trkpt lat="45.00615" lon="1.05539">
        <ele>84.1</ele>
        <time>2022-08-17T16:21:26Z</time>
      </trkpt>
      <trkpt lat="45.00623" lon="1.05536">
        <ele>84.1</ele>
        <time>2022-08-17T16:21:28Z</time>
      </trkpt>
      <trkpt lat="45.00631" lon="1.05537">
        <ele>84.3</ele>
        <time>2022-08-17T16:21:30Z</time>
      </trkpt>
      <trkpt lat="45.00638" lon="1.05535">
        <ele>84.4</ele>
        <time>2022-08-17T16:21:32Z</time>
      </trkpt>
      <trkpt lat="45.00646" lon="1.05534">
        <ele>84.6</ele>
        <time>2022-08-17T16:21:34Z</time>
      </trkpt>
      <trkpt lat="45.00655" lon="1.05533">
        <ele>84.7</ele>
        <time>2022-08-17T16:21:36Z</time>
      </trkpt>
      <trkpt lat="45.00662" lon="1.05532">
        <ele>84.8</ele>
        <time>2022-08-17T16:21:38Z</time>
      </trkpt>
      <trkpt lat="45.0067" lon="1.05531">
        <ele>84.9</ele>
        <time>2022-08-17T16:21:40Z</time>
      </trkpt>
      <trkpt lat="45.00677" lon="1.05529">
        <ele>84.9</ele>
        <time>2022-08-17T16:21:42Z</time>
      </trkpt>
      <trkpt lat="45.00685" lon="1.05528">
        <ele>85.1</ele>
        <time>2022-08-17T16:21:44Z</time>
      </trkpt>
      <trkpt lat="45.00692" lon="1.05528">
        <ele>85.2</ele>
        <time>2022-08-17T16:21:46Z</time>
      </trkpt>
      <trkpt lat="45.00699" lon="1.05526">
        <ele>85.2</ele>
        <time>2022-08-17T16:21:48Z</time>
      </trkpt>
      <trkpt lat="45.00707" lon="1.05525">
        <ele>85.2</ele>
        <time>2022-08-17T16:21:50Z</time>
      </trkpt>
      <trkpt lat="45.00714" lon="1.05524">
        <ele>85.2</ele>
        <time>2022-08-17T16:21:52Z</time>
      </trkpt>
      <trkpt lat="45.00721" lon="1.05523">
        <ele>85.3</ele>
        <time>2022-08-17T16:21:54Z</time>
      </trkpt>
      <trkpt lat="45.00728" lon="1.05522">
        <ele>85.3</ele>
        <time>2022-08-17T16:21:56Z</time>
      </trkpt>
      <trkpt lat="45.00736" lon="1.05521">
        <ele>85.4</ele>
        <time>2022-08-17T16:21:58Z</time>
      </trkpt>
      <trkpt lat="45.00743" lon="1.05521">
        <ele>85.4</ele>
        <time>2022-08-17T16:22:00Z</time>
      </trkpt>
      <trkpt lat="45.0075" lon="1.05518">
        <ele>85.2</ele>
        <time>2022-08-17T16:22:02Z</time>
      </trkpt>
      <trkpt lat="45.00757" lon="1.05517">
        <ele>85.4</ele>
        <time>2022-08-17T16:22:04Z</time>
      </trkpt>
      <trkpt lat="45.00764" lon="1.05517">
        <ele>85.6</ele>
        <time>2022-08-17T16:22:06Z</time>
      </trkpt>
      <trkpt lat="45.00771" lon="1.05516">
        <ele>85.8</ele>
        <time>2022-08-17T16:22:08Z</time>
      </trkpt>
      <trkpt lat="45.00778" lon="1.05515">
        <ele>86</ele>
        <time>2022-08-17T16:22:10Z</time>
      </trkpt>
      <trkpt lat="45.00786" lon="1.05514">
        <ele>86.1</ele>
        <time>2022-08-17T16:22:12Z</time>
      </trkpt>
      <trkpt lat="45.00793" lon="1.05513">
        <ele>86.4</ele>
        <time>2022-08-17T16:22:14Z</time>
      </trkpt>
      <trkpt lat="45.008" lon="1.05512">
        <ele>86.6</ele>
        <time>2022-08-17T16:22:16Z</time>
      </trkpt>
      <trkpt lat="45.00807" lon="1.0551">
        <ele>86.7</ele>
        <time>2022-08-17T16:22:18Z</time>
      </trkpt>
      <trkpt lat="45.00814" lon="1.05509">
        <ele>86.9</ele>
        <time>2022-08-17T16:22:20Z</time>
      </trkpt>
      <trkpt lat="45.00821" lon="1.05508">
        <ele>87.2</ele>
        <time>2022-08-17T16:22:22Z</time>
      </trkpt>
      <trkpt lat="45.00829" lon="1.05507">
        <ele>87.3</ele>
        <time>2022-08-17T16:22:24Z</time>
      </trkpt>
      <trkpt lat="45.00836" lon="1.05506">
        <ele>87.5</ele>
        <time>2022-08-17T16:22:26Z</time>
      </trkpt>
      <trkpt lat="45.00844" lon="1.05505">
        <ele>87.6</ele>
        <time>2022-08-17T16:22:28Z</time>
      </trkpt>
      <trkpt lat="45.00852" lon="1.05503">
        <ele>87.7</ele>
        <time>2022-08-17T16:22:30Z</time>
      </trkpt>
      <trkpt lat="45.00859" lon="1.05502">
        <ele>87.8</ele>
        <time>2022-08-17T16:22:32Z</time>
      </trkpt>
      <trkpt lat="45.00867" lon="1.055">
        <ele>87.8</ele>
        <time>2022-08-17T16:22:34Z</time>
      </trkpt>
      <trkpt lat="45.00875" lon="1.055">
        <ele>88</ele>
        <time>2022-08-17T16:22:36Z</time>
      </trkpt>
      <trkpt lat="45.00882" lon="1.05498">
        <ele>88</ele>
        <time>2022-08-17T16:22:38Z</time>
      </trkpt>
      <trkpt lat="45.0089" lon="1.05497">
        <ele>88.1</ele>
        <time>2022-08-17T16:22:40Z</time>
      </trkpt>
      <trkpt lat="45.00898" lon="1.05496">
        <ele>88.3</ele>
        <time>2022-08-17T16:22:42Z</time>
      </trkpt>
      <trkpt lat="45.00906" lon="1.05495">
        <ele>88.4</ele>
        <time>2022-08-17T16:22:44Z</time>
      </trkpt>
      <trkpt lat="45.00914" lon="1.05493">
        <ele>88.5</ele>
        <time>2022-08-17T16:22:46Z</time>
      </trkpt>
      <trkpt lat="45.00921" lon="1.05491">
        <ele>88.3</ele>
        <time>2022-08-17T16:22:48Z</time>
      </trkpt>
      <trkpt lat="45.00929" lon="1.05489">
        <ele>88.1</ele>
        <time>2022-08-17T16:22:50Z</time>
      </trkpt>
      <trkpt lat="45.00937" lon="1.05489">
        <ele>87.9</ele>
        <time>2022-08-17T16:22:52Z</time>
      </trkpt>
      <trkpt lat="45.00945" lon="1.05488">
        <ele>87.6</ele>
        <time>2022-08-17T16:22:54Z</time>
      </trkpt>
      <trkpt lat="45.00954" lon="1.05486">
        <ele>87.3</ele>
        <time>2022-08-17T16:22:56Z</time>
      </trkpt>
      <trkpt lat="45.00962" lon="1.05485">
        <ele>87.1</ele>
        <time>2022-08-17T16:22:58Z</time>
      </trkpt>
      <trkpt lat="45.00971" lon="1.05484">
        <ele>86.9</ele>
        <time>2022-08-17T16:23:00Z</time>
      </trkpt>
      <trkpt lat="45.00981" lon="1.05484">
        <ele>86.6</ele>
        <time>2022-08-17T16:23:02Z</time>
      </trkpt>
      <trkpt lat="45.0099" lon="1.05484">
        <ele>86.5</ele>
        <time>2022-08-17T16:23:04Z</time>
      </trkpt>
      <trkpt lat="45.00999" lon="1.05485">
        <ele>86.3</ele>
        <time>2022-08-17T16:23:06Z</time>
      </trkpt>
      <trkpt lat="45.01008" lon="1.05487">
        <ele>86.4</ele>
        <time>2022-08-17T16:23:08Z</time>
      </trkpt>
      <trkpt lat="45.01018" lon="1.05489">
        <ele>86.6</ele>
        <time>2022-08-17T16:23:10Z</time>
      </trkpt>
      <trkpt lat="45.01028" lon="1.0549">
        <ele>86.8</ele>
        <time>2022-08-17T16:23:12Z</time>
      </trkpt>
      <trkpt lat="45.01038" lon="1.05492">
        <ele>87</ele>
        <time>2022-08-17T16:23:14Z</time>
      </trkpt>
      <trkpt lat="45.01047" lon="1.05494">
        <ele>87.2</ele>
        <time>2022-08-17T16:23:16Z</time>
      </trkpt>
      <trkpt lat="45.01053" lon="1.05491">
        <ele>87.1</ele>
        <time>2022-08-17T16:23:18Z</time>
      </trkpt>
      <trkpt lat="45.01058" lon="1.05487">
        <ele>86.9</ele>
        <time>2022-08-17T16:23:20Z</time>
      </trkpt>
      <trkpt lat="45.01062" lon="1.05484">
        <ele>86.8</ele>
        <time>2022-08-17T16:23:22Z</time>
      </trkpt>
      <trkpt lat="45.01062" lon="1.05485">
        <ele>86.9</ele>
        <time>2022-08-17T16:23:24Z</time>
      </trkpt>
      <trkpt lat="45.01062" lon="1.05485">
        <ele>86.9</ele>
        <time>2022-08-17T16:23:26Z</time>
      </trkpt>
      <trkpt lat="45.01062" lon="1.05485">
        <ele>86.9</ele>
        <time>2022-08-17T16:23:28Z</time>
      </trkpt>
      <trkpt lat="45.01062" lon="1.05485">
        <ele>86.9</ele>
        <time>2022-08-17T16:23:30Z</time>
      </trkpt>
      <trkpt lat="45.0109" lon="1.05508">
        <ele>88.8</ele>
        <time>2022-08-17T16:28:48Z</time>
      </trkpt>
      <trkpt lat="45.01097" lon="1.05511">
        <ele>89</ele>
        <time>2022-08-17T16:28:50Z</time>
      </trkpt>
      <trkpt lat="45.01104" lon="1.05514">
        <ele>89.2</ele>
        <time>2022-08-17T16:28:52Z</time>
      </trkpt>
      <trkpt lat="45.0111" lon="1.05518">
        <ele>89.5</ele>
        <time>2022-08-17T16:28:54Z</time>
      </trkpt>
      <trkpt lat="45.01118" lon="1.0552">
        <ele>89.6</ele>
        <time>2022-08-17T16:28:56Z</time>
      </trkpt>
      <trkpt lat="45.01126" lon="1.05523">
        <ele>89.7</ele>
        <time>2022-08-17T16:28:58Z</time>
      </trkpt>
      <trkpt lat="45.01134" lon="1.05525">
        <ele>89.8</ele>
        <time>2022-08-17T16:29:00Z</time>
      </trkpt>
      <trkpt lat="45.01142" lon="1.05527">
        <ele>89.7</ele>
        <time>2022-08-17T16:29:02Z</time>
      </trkpt>
      <trkpt lat="45.0115" lon="1.05528">
        <ele>89.7</ele>
        <time>2022-08-17T16:29:04Z</time>
      </trkpt>
      <trkpt lat="45.01159" lon="1.0553">
        <ele>89.7</ele>
        <time>2022-08-17T16:29:06Z</time>
      </trkpt>
      <trkpt lat="45.01167" lon="1.05531">
        <ele>89.6</ele>
        <time>2022-08-17T16:29:08Z</time>
      </trkpt>
      <trkpt lat="45.01176" lon="1.05531">
        <ele>90</ele>
        <time>2022-08-17T16:29:10Z</time>
      </trkpt>
      <trkpt lat="45.01186" lon="1.05531">
        <ele>90.3</ele>
        <time>2022-08-17T16:29:12Z</time>
      </trkpt>
      <trkpt lat="45.01195" lon="1.05531">
        <ele>90.6</ele>
        <time>2022-08-17T16:29:14Z</time>
      </trkpt>
      <trkpt lat="45.01206" lon="1.05529">
        <ele>90.8</ele>
        <time>2022-08-17T16:29:16Z</time>
      </trkpt>
      <trkpt lat="45.01216" lon="1.05529">
        <ele>91</ele>
        <time>2022-08-17T16:29:18Z</time>
      </trkpt>
      <trkpt lat="45.01226" lon="1.05528">
        <ele>91.2</ele>
        <time>2022-08-17T16:29:20Z</time>
      </trkpt>
      <trkpt lat="45.01236" lon="1.05526">
        <ele>91.4</ele>
        <time>2022-08-17T16:29:22Z</time>
      </trkpt>
      <trkpt lat="45.01246" lon="1.05527">
        <ele>91.7</ele>
        <time>2022-08-17T16:29:24Z</time>
      </trkpt>
      <trkpt lat="45.01256" lon="1.05525">
        <ele>91.7</ele>
        <time>2022-08-17T16:29:26Z</time>
      </trkpt>
      <trkpt lat="45.01265" lon="1.05525">
        <ele>91.7</ele>
        <time>2022-08-17T16:29:28Z</time>
      </trkpt>
      <trkpt lat="45.01275" lon="1.05524">
        <ele>91.6</ele>
        <time>2022-08-17T16:29:30Z</time>
      </trkpt>
      <trkpt lat="45.01284" lon="1.05524">
        <ele>91.6</ele>
        <time>2022-08-17T16:29:32Z</time>
      </trkpt>
      <trkpt lat="45.01294" lon="1.05523">
        <ele>91.6</ele>
        <time>2022-08-17T16:29:34Z</time>
      </trkpt>
      <trkpt lat="45.01303" lon="1.05522">
        <ele>91.4</ele>
        <time>2022-08-17T16:29:36Z</time>
      </trkpt>
      <trkpt lat="45.01312" lon="1.05521">
        <ele>91.4</ele>
        <time>2022-08-17T16:29:38Z</time>
      </trkpt>
      <trkpt lat="45.01322" lon="1.0552">
        <ele>91.3</ele>
        <time>2022-08-17T16:29:40Z</time>
      </trkpt>
      <trkpt lat="45.01332" lon="1.05519">
        <ele>91.3</ele>
        <time>2022-08-17T16:29:42Z</time>
      </trkpt>
      <trkpt lat="45.01341" lon="1.05518">
        <ele>91.6</ele>
        <time>2022-08-17T16:29:44Z</time>
      </trkpt>
      <trkpt lat="45.01351" lon="1.05518">
        <ele>92</ele>
        <time>2022-08-17T16:29:46Z</time>
      </trkpt>
      <trkpt lat="45.0136" lon="1.05517">
        <ele>92.4</ele>
        <time>2022-08-17T16:29:48Z</time>
      </trkpt>
      <trkpt lat="45.01368" lon="1.05516">
        <ele>92.8</ele>
        <time>2022-08-17T16:29:50Z</time>
      </trkpt>
      <trkpt lat="45.01377" lon="1.05516">
        <ele>93.3</ele>
        <time>2022-08-17T16:29:52Z</time>
      </trkpt>
      <trkpt lat="45.01386" lon="1.05515">
        <ele>93.7</ele>
        <time>2022-08-17T16:29:54Z</time>
      </trkpt>
      <trkpt lat="45.01395" lon="1.05514">
        <ele>94</ele>
        <time>2022-08-17T16:29:56Z</time>
      </trkpt>
      <trkpt lat="45.01405" lon="1.05513">
        <ele>94.4</ele>
        <time>2022-08-17T16:29:58Z</time>
      </trkpt>
      <trkpt lat="45.01413" lon="1.05511">
        <ele>94.4</ele>
        <time>2022-08-17T16:30:00Z</time>
      </trkpt>
      <trkpt lat="45.01422" lon="1.0551">
        <ele>95</ele>
        <time>2022-08-17T16:30:02Z</time>
      </trkpt>
      <trkpt lat="45.01431" lon="1.05506">
        <ele>95.2</ele>
        <time>2022-08-17T16:30:04Z</time>
      </trkpt>
      <trkpt lat="45.0144" lon="1.05502">
        <ele>95.2</ele>
        <time>2022-08-17T16:30:06Z</time>
      </trkpt>
      <trkpt lat="45.0145" lon="1.05499">
        <ele>95.5</ele>
        <time>2022-08-17T16:30:08Z</time>
      </trkpt>
      <trkpt lat="45.01459" lon="1.05493">
        <ele>95.8</ele>
        <time>2022-08-17T16:30:10Z</time>
      </trkpt>
      <trkpt lat="45.01469" lon="1.05488">
        <ele>96</ele>
        <time>2022-08-17T16:30:12Z</time>
      </trkpt>
      <trkpt lat="45.01478" lon="1.05481">
        <ele>96.1</ele>
        <time>2022-08-17T16:30:14Z</time>
      </trkpt>
      <trkpt lat="45.01488" lon="1.05475">
        <ele>96.3</ele>
        <time>2022-08-17T16:30:16Z</time>
      </trkpt>
      <trkpt lat="45.01498" lon="1.05469">
        <ele>96.3</ele>
        <time>2022-08-17T16:30:18Z</time>
      </trkpt>
      <trkpt lat="45.01507" lon="1.05462">
        <ele>96.1</ele>
        <time>2022-08-17T16:30:20Z</time>
      </trkpt>
      <trkpt lat="45.01516" lon="1.05455">
        <ele>95.9</ele>
        <time>2022-08-17T16:30:22Z</time>
      </trkpt>
      <trkpt lat="45.01526" lon="1.05448">
        <ele>95.5</ele>
        <time>2022-08-17T16:30:24Z</time>
      </trkpt>
      <trkpt lat="45.01535" lon="1.05441">
        <ele>95.1</ele>
        <time>2022-08-17T16:30:26Z</time>
      </trkpt>
      <trkpt lat="45.01545" lon="1.05434">
        <ele>94.4</ele>
        <time>2022-08-17T16:30:28Z</time>
      </trkpt>
      <trkpt lat="45.01554" lon="1.05428">
        <ele>93.8</ele>
        <time>2022-08-17T16:30:30Z</time>
      </trkpt>
      <trkpt lat="45.01563" lon="1.05422">
        <ele>93.1</ele>
        <time>2022-08-17T16:30:32Z</time>
      </trkpt>
      <trkpt lat="45.01573" lon="1.05415">
        <ele>92.3</ele>
        <time>2022-08-17T16:30:34Z</time>
      </trkpt>
      <trkpt lat="45.01582" lon="1.05409">
        <ele>92</ele>
        <time>2022-08-17T16:30:36Z</time>
      </trkpt>
      <trkpt lat="45.01591" lon="1.05404">
        <ele>91.5</ele>
        <time>2022-08-17T16:30:38Z</time>
      </trkpt>
      <trkpt lat="45.016" lon="1.05398">
        <ele>91</ele>
        <time>2022-08-17T16:30:40Z</time>
      </trkpt>
      <trkpt lat="45.01609" lon="1.05393">
        <ele>90.7</ele>
        <time>2022-08-17T16:30:42Z</time>
      </trkpt>
      <trkpt lat="45.01619" lon="1.05388">
        <ele>90.2</ele>
        <time>2022-08-17T16:30:44Z</time>
      </trkpt>
      <trkpt lat="45.01629" lon="1.05384">
        <ele>90</ele>
        <time>2022-08-17T16:30:46Z</time>
      </trkpt>
      <trkpt lat="45.0164" lon="1.0538">
        <ele>89.8</ele>
        <time>2022-08-17T16:30:48Z</time>
      </trkpt>
      <trkpt lat="45.01649" lon="1.05377">
        <ele>89.8</ele>
        <time>2022-08-17T16:30:50Z</time>
      </trkpt>
      <trkpt lat="45.01659" lon="1.05374">
        <ele>89.8</ele>
        <time>2022-08-17T16:30:52Z</time>
      </trkpt>
      <trkpt lat="45.0167" lon="1.05372">
        <ele>89.7</ele>
        <time>2022-08-17T16:30:54Z</time>
      </trkpt>
      <trkpt lat="45.01679" lon="1.05371">
        <ele>89.5</ele>
        <time>2022-08-17T16:30:56Z</time>
      </trkpt>
      <trkpt lat="45.01688" lon="1.05369">
        <ele>89.3</ele>
        <time>2022-08-17T16:30:58Z</time>
      </trkpt>
      <trkpt lat="45.01698" lon="1.05368">
        <ele>89.2</ele>
        <time>2022-08-17T16:31:00Z</time>
      </trkpt>
      <trkpt lat="45.01707" lon="1.05366">
        <ele>89</ele>
        <time>2022-08-17T16:31:02Z</time>
      </trkpt>
      <trkpt lat="45.01716" lon="1.05365">
        <ele>88.9</ele>
        <time>2022-08-17T16:31:04Z</time>
      </trkpt>
      <trkpt lat="45.01725" lon="1.05363">
        <ele>88.8</ele>
        <time>2022-08-17T16:31:06Z</time>
      </trkpt>
      <trkpt lat="45.01734" lon="1.05361">
        <ele>88.7</ele>
        <time>2022-08-17T16:31:08Z</time>
      </trkpt>
      <trkpt lat="45.01743" lon="1.0536">
        <ele>88.6</ele>
        <time>2022-08-17T16:31:10Z</time>
      </trkpt>
      <trkpt lat="45.01752" lon="1.05357">
        <ele>88.7</ele>
        <time>2022-08-17T16:31:12Z</time>
      </trkpt>
      <trkpt lat="45.0176" lon="1.05354">
        <ele>89.3</ele>
        <time>2022-08-17T16:31:14Z</time>
      </trkpt>
      <trkpt lat="45.01769" lon="1.05352">
        <ele>90</ele>
        <time>2022-08-17T16:31:16Z</time>
      </trkpt>
      <trkpt lat="45.01777" lon="1.05349">
        <ele>90.6</ele>
        <time>2022-08-17T16:31:18Z</time>
      </trkpt>
      <trkpt lat="45.01784" lon="1.05346">
        <ele>91.1</ele>
        <time>2022-08-17T16:31:20Z</time>
      </trkpt>
      <trkpt lat="45.01791" lon="1.05344">
        <ele>91.6</ele>
        <time>2022-08-17T16:31:22Z</time>
      </trkpt>
      <trkpt lat="45.01797" lon="1.05341">
        <ele>92.1</ele>
        <time>2022-08-17T16:31:24Z</time>
      </trkpt>
      <trkpt lat="45.01801" lon="1.0534">
        <ele>92.4</ele>
        <time>2022-08-17T16:31:26Z</time>
      </trkpt>
      <trkpt lat="45.01802" lon="1.0534">
        <ele>92.4</ele>
        <time>2022-08-17T16:31:28Z</time>
      </trkpt>
      <trkpt lat="45.01802" lon="1.0534">
        <ele>92.4</ele>
        <time>2022-08-17T16:31:30Z</time>
      </trkpt>
      <trkpt lat="45.01802" lon="1.05339">
        <ele>92.4</ele>
        <time>2022-08-17T16:31:32Z</time>
      </trkpt>
      <trkpt lat="45.01802" lon="1.05339">
        <ele>92.4</ele>
        <time>2022-08-17T16:31:34Z</time>
      </trkpt>
      <trkpt lat="45.01812" lon="1.05323">
        <ele>92.7</ele>
        <time>2022-08-17T16:32:52Z</time>
      </trkpt>
      <trkpt lat="45.01819" lon="1.05319">
        <ele>92.9</ele>
        <time>2022-08-17T16:32:54Z</time>
      </trkpt>
      <trkpt lat="45.01825" lon="1.05314">
        <ele>93.1</ele>
        <time>2022-08-17T16:32:56Z</time>
      </trkpt>
      <trkpt lat="45.01831" lon="1.05307">
        <ele>93</ele>
        <time>2022-08-17T16:32:58Z</time>
      </trkpt>
      <trkpt lat="45.01837" lon="1.053">
        <ele>93.3</ele>
        <time>2022-08-17T16:33:00Z</time>
      </trkpt>
      <trkpt lat="45.01843" lon="1.05294">
        <ele>93.9</ele>
        <time>2022-08-17T16:33:02Z</time>
      </trkpt>
      <trkpt lat="45.01849" lon="1.05288">
        <ele>94.5</ele>
        <time>2022-08-17T16:33:04Z</time>
      </trkpt>
      <trkpt lat="45.01855" lon="1.05282">
        <ele>94.8</ele>
        <time>2022-08-17T16:33:06Z</time>
      </trkpt>
      <trkpt lat="45.01862" lon="1.05275">
        <ele>95.2</ele>
        <time>2022-08-17T16:33:08Z</time>
      </trkpt>
      <trkpt lat="45.01869" lon="1.05269">
        <ele>95.5</ele>
        <time>2022-08-17T16:33:10Z</time>
      </trkpt>
      <trkpt lat="45.01875" lon="1.05262">
        <ele>95.6</ele>
        <time>2022-08-17T16:33:12Z</time>
      </trkpt>
      <trkpt lat="45.01882" lon="1.05257">
        <ele>95.8</ele>
        <time>2022-08-17T16:33:14Z</time>
      </trkpt>
      <trkpt lat="45.01889" lon="1.05251">
        <ele>95.9</ele>
        <time>2022-08-17T16:33:16Z</time>
      </trkpt>
      <trkpt lat="45.01896" lon="1.05245">
        <ele>96</ele>
        <time>2022-08-17T16:33:18Z</time>
      </trkpt>
      <trkpt lat="45.01903" lon="1.0524">
        <ele>96</ele>
        <time>2022-08-17T16:33:20Z</time>
      </trkpt>
      <trkpt lat="45.01911" lon="1.05234">
        <ele>96.1</ele>
        <time>2022-08-17T16:33:22Z</time>
      </trkpt>
      <trkpt lat="45.01918" lon="1.05228">
        <ele>96</ele>
        <time>2022-08-17T16:33:24Z</time>
      </trkpt>
      <trkpt lat="45.01926" lon="1.05222">
        <ele>96.2</ele>
        <time>2022-08-17T16:33:26Z</time>
      </trkpt>
      <trkpt lat="45.01934" lon="1.05217">
        <ele>96.4</ele>
        <time>2022-08-17T16:33:28Z</time>
      </trkpt>
      <trkpt lat="45.01942" lon="1.05212">
        <ele>96.7</ele>
        <time>2022-08-17T16:33:30Z</time>
      </trkpt>
      <trkpt lat="45.0195" lon="1.05208">
        <ele>96.9</ele>
        <time>2022-08-17T16:33:32Z</time>
      </trkpt>
      <trkpt lat="45.01959" lon="1.05203">
        <ele>97</ele>
        <time>2022-08-17T16:33:34Z</time>
      </trkpt>
      <trkpt lat="45.01967" lon="1.05198">
        <ele>97</ele>
        <time>2022-08-17T16:33:36Z</time>
      </trkpt>
      <trkpt lat="45.01975" lon="1.05194">
        <ele>97</ele>
        <time>2022-08-17T16:33:38Z</time>
      </trkpt>
      <trkpt lat="45.01983" lon="1.05191">
        <ele>97.1</ele>
        <time>2022-08-17T16:33:40Z</time>
      </trkpt>
      <trkpt lat="45.01991" lon="1.05186">
        <ele>96.9</ele>
        <time>2022-08-17T16:33:42Z</time>
      </trkpt>
      <trkpt lat="45.01999" lon="1.05182">
        <ele>96.7</ele>
        <time>2022-08-17T16:33:44Z</time>
      </trkpt>
      <trkpt lat="45.02007" lon="1.05179">
        <ele>97</ele>
        <time>2022-08-17T16:33:46Z</time>
      </trkpt>
      <trkpt lat="45.02015" lon="1.05175">
        <ele>97.3</ele>
        <time>2022-08-17T16:33:48Z</time>
      </trkpt>
      <trkpt lat="45.02023" lon="1.0517">
        <ele>97.5</ele>
        <time>2022-08-17T16:33:50Z</time>
      </trkpt>
      <trkpt lat="45.02031" lon="1.05167">
        <ele>97.9</ele>
        <time>2022-08-17T16:33:52Z</time>
      </trkpt>
      <trkpt lat="45.0204" lon="1.05163">
        <ele>98.7</ele>
        <time>2022-08-17T16:33:54Z</time>
      </trkpt>
      <trkpt lat="45.02048" lon="1.05159">
        <ele>99.2</ele>
        <time>2022-08-17T16:33:56Z</time>
      </trkpt>
      <trkpt lat="45.02056" lon="1.05155">
        <ele>99.7</ele>
        <time>2022-08-17T16:33:58Z</time>
      </trkpt>
      <trkpt lat="45.02063" lon="1.05151">
        <ele>100.1</ele>
        <time>2022-08-17T16:34:00Z</time>
      </trkpt>
      <trkpt lat="45.02072" lon="1.05147">
        <ele>100.3</ele>
        <time>2022-08-17T16:34:02Z</time>
      </trkpt>
      <trkpt lat="45.02081" lon="1.0514">
        <ele>100</ele>
        <time>2022-08-17T16:34:04Z</time>
      </trkpt>
      <trkpt lat="45.02091" lon="1.05136">
        <ele>100.4</ele>
        <time>2022-08-17T16:34:06Z</time>
      </trkpt>
      <trkpt lat="45.021" lon="1.05133">
        <ele>101.1</ele>
        <time>2022-08-17T16:34:08Z</time>
      </trkpt>
      <trkpt lat="45.0211" lon="1.05129">
        <ele>101.4</ele>
        <time>2022-08-17T16:34:10Z</time>
      </trkpt>
      <trkpt lat="45.02119" lon="1.05124">
        <ele>101.5</ele>
        <time>2022-08-17T16:34:12Z</time>
      </trkpt>
      <trkpt lat="45.02128" lon="1.0512">
        <ele>101.6</ele>
        <time>2022-08-17T16:34:14Z</time>
      </trkpt>
      <trkpt lat="45.02137" lon="1.05116">
        <ele>101.6</ele>
        <time>2022-08-17T16:34:16Z</time>
      </trkpt>
      <trkpt lat="45.02145" lon="1.05111">
        <ele>101.4</ele>
        <time>2022-08-17T16:34:18Z</time>
      </trkpt>
      <trkpt lat="45.02154" lon="1.05107">
        <ele>101.2</ele>
        <time>2022-08-17T16:34:20Z</time>
      </trkpt>
      <trkpt lat="45.02162" lon="1.05102">
        <ele>100.9</ele>
        <time>2022-08-17T16:34:22Z</time>
      </trkpt>
      <trkpt lat="45.02171" lon="1.05099">
        <ele>100.8</ele>
        <time>2022-08-17T16:34:24Z</time>
      </trkpt>
      <trkpt lat="45.02179" lon="1.05095">
        <ele>100.5</ele>
        <time>2022-08-17T16:34:26Z</time>
      </trkpt>
      <trkpt lat="45.02188" lon="1.05091">
        <ele>100.2</ele>
        <time>2022-08-17T16:34:28Z</time>
      </trkpt>
      <trkpt lat="45.02196" lon="1.05087">
        <ele>99.9</ele>
        <time>2022-08-17T16:34:30Z</time>
      </trkpt>
      <trkpt lat="45.02205" lon="1.05083">
        <ele>99.6</ele>
        <time>2022-08-17T16:34:32Z</time>
      </trkpt>
      <trkpt lat="45.02213" lon="1.0508">
        <ele>99.9</ele>
        <time>2022-08-17T16:34:34Z</time>
      </trkpt>
      <trkpt lat="45.02221" lon="1.05076">
        <ele>100.2</ele>
        <time>2022-08-17T16:34:36Z</time>
      </trkpt>
      <trkpt lat="45.02229" lon="1.05073">
        <ele>100.4</ele>
        <time>2022-08-17T16:34:38Z</time>
      </trkpt>
      <trkpt lat="45.02238" lon="1.05069">
        <ele>100.5</ele>
        <time>2022-08-17T16:34:40Z</time>
      </trkpt>
      <trkpt lat="45.02246" lon="1.05066">
        <ele>100.8</ele>
        <time>2022-08-17T16:34:42Z</time>
      </trkpt>
      <trkpt lat="45.02254" lon="1.05062">
        <ele>100.8</ele>
        <time>2022-08-17T16:34:44Z</time>
      </trkpt>
      <trkpt lat="45.02262" lon="1.0506">
        <ele>101.3</ele>
        <time>2022-08-17T16:34:46Z</time>
      </trkpt>
      <trkpt lat="45.02271" lon="1.05057">
        <ele>101.6</ele>
        <time>2022-08-17T16:34:48Z</time>
      </trkpt>
      <trkpt lat="45.02279" lon="1.05055">
        <ele>101.8</ele>
        <time>2022-08-17T16:34:50Z</time>
      </trkpt>
      <trkpt lat="45.02288" lon="1.05053">
        <ele>102.2</ele>
        <time>2022-08-17T16:34:52Z</time>
      </trkpt>
      <trkpt lat="45.02296" lon="1.05051">
        <ele>102.6</ele>
        <time>2022-08-17T16:34:54Z</time>
      </trkpt>
      <trkpt lat="45.02305" lon="1.05048">
        <ele>102.7</ele>
        <time>2022-08-17T16:34:56Z</time>
      </trkpt>
      <trkpt lat="45.02313" lon="1.05046">
        <ele>102.9</ele>
        <time>2022-08-17T16:34:58Z</time>
      </trkpt>
      <trkpt lat="45.02322" lon="1.05044">
        <ele>103</ele>
        <time>2022-08-17T16:35:00Z</time>
      </trkpt>
      <trkpt lat="45.0233" lon="1.05041">
        <ele>103.2</ele>
        <time>2022-08-17T16:35:02Z</time>
      </trkpt>
      <trkpt lat="45.02339" lon="1.05039">
        <ele>103.5</ele>
        <time>2022-08-17T16:35:04Z</time>
      </trkpt>
      <trkpt lat="45.02347" lon="1.05036">
        <ele>103.7</ele>
        <time>2022-08-17T16:35:06Z</time>
      </trkpt>
      <trkpt lat="45.02356" lon="1.05034">
        <ele>104</ele>
        <time>2022-08-17T16:35:08Z</time>
      </trkpt>
      <trkpt lat="45.02364" lon="1.05031">
        <ele>104.1</ele>
        <time>2022-08-17T16:35:10Z</time>
      </trkpt>
      <trkpt lat="45.02373" lon="1.05027">
        <ele>104.2</ele>
        <time>2022-08-17T16:35:12Z</time>
      </trkpt>
      <trkpt lat="45.02381" lon="1.05023">
        <ele>104</ele>
        <time>2022-08-17T16:35:14Z</time>
      </trkpt>
      <trkpt lat="45.02389" lon="1.0502">
        <ele>103.8</ele>
        <time>2022-08-17T16:35:16Z</time>
      </trkpt>
      <trkpt lat="45.02396" lon="1.05016">
        <ele>103.4</ele>
        <time>2022-08-17T16:35:18Z</time>
      </trkpt>
      <trkpt lat="45.02404" lon="1.05011">
        <ele>103</ele>
        <time>2022-08-17T16:35:20Z</time>
      </trkpt>
      <trkpt lat="45.02411" lon="1.05007">
        <ele>102.5</ele>
        <time>2022-08-17T16:35:22Z</time>
      </trkpt>
      <trkpt lat="45.02418" lon="1.05002">
        <ele>102.2</ele>
        <time>2022-08-17T16:35:24Z</time>
      </trkpt>
      <trkpt lat="45.02426" lon="1.04997">
        <ele>102.8</ele>
        <time>2022-08-17T16:35:26Z</time>
      </trkpt>
      <trkpt lat="45.02433" lon="1.04992">
        <ele>103.6</ele>
        <time>2022-08-17T16:35:28Z</time>
      </trkpt>
      <trkpt lat="45.0244" lon="1.04987">
        <ele>104.4</ele>
        <time>2022-08-17T16:35:30Z</time>
      </trkpt>
      <trkpt lat="45.02447" lon="1.04982">
        <ele>105</ele>
        <time>2022-08-17T16:35:32Z</time>
      </trkpt>
      <trkpt lat="45.02454" lon="1.04976">
        <ele>105.4</ele>
        <time>2022-08-17T16:35:34Z</time>
      </trkpt>
      <trkpt lat="45.02461" lon="1.04971">
        <ele>105.7</ele>
        <time>2022-08-17T16:35:36Z</time>
      </trkpt>
      <trkpt lat="45.02468" lon="1.04966">
        <ele>105.9</ele>
        <time>2022-08-17T16:35:38Z</time>
      </trkpt>
      <trkpt lat="45.02474" lon="1.04961">
        <ele>106</ele>
        <time>2022-08-17T16:35:40Z</time>
      </trkpt>
      <trkpt lat="45.02481" lon="1.04955">
        <ele>105.7</ele>
        <time>2022-08-17T16:35:42Z</time>
      </trkpt>
      <trkpt lat="45.02488" lon="1.0495">
        <ele>105.5</ele>
        <time>2022-08-17T16:35:44Z</time>
      </trkpt>
      <trkpt lat="45.02495" lon="1.04945">
        <ele>105.3</ele>
        <time>2022-08-17T16:35:46Z</time>
      </trkpt>
      <trkpt lat="45.02501" lon="1.0494">
        <ele>105</ele>
        <time>2022-08-17T16:35:48Z</time>
      </trkpt>
      <trkpt lat="45.02509" lon="1.04935">
        <ele>105.2</ele>
        <time>2022-08-17T16:35:50Z</time>
      </trkpt>
      <trkpt lat="45.02516" lon="1.0493">
        <ele>105.1</ele>
        <time>2022-08-17T16:35:52Z</time>
      </trkpt>
      <trkpt lat="45.02523" lon="1.04925">
        <ele>105.4</ele>
        <time>2022-08-17T16:35:54Z</time>
      </trkpt>
      <trkpt lat="45.02531" lon="1.0492">
        <ele>105.5</ele>
        <time>2022-08-17T16:35:56Z</time>
      </trkpt>
      <trkpt lat="45.02538" lon="1.04917">
        <ele>105.8</ele>
        <time>2022-08-17T16:35:58Z</time>
      </trkpt>
      <trkpt lat="45.02545" lon="1.04912">
        <ele>106.5</ele>
        <time>2022-08-17T16:36:00Z</time>
      </trkpt>
      <trkpt lat="45.02552" lon="1.04908">
        <ele>107.4</ele>
        <time>2022-08-17T16:36:02Z</time>
      </trkpt>
      <trkpt lat="45.0256" lon="1.04904">
        <ele>108.1</ele>
        <time>2022-08-17T16:36:04Z</time>
      </trkpt>
      <trkpt lat="45.02566" lon="1.04899">
        <ele>108.6</ele>
        <time>2022-08-17T16:36:06Z</time>
      </trkpt>
      <trkpt lat="45.02574" lon="1.04896">
        <ele>109.2</ele>
        <time>2022-08-17T16:36:08Z</time>
      </trkpt>
      <trkpt lat="45.0258" lon="1.04891">
        <ele>109.4</ele>
        <time>2022-08-17T16:36:10Z</time>
      </trkpt>
      <trkpt lat="45.02588" lon="1.04887">
        <ele>109.5</ele>
        <time>2022-08-17T16:36:12Z</time>
      </trkpt>
      <trkpt lat="45.02595" lon="1.04883">
        <ele>109.6</ele>
        <time>2022-08-17T16:36:14Z</time>
      </trkpt>
      <trkpt lat="45.02602" lon="1.04879">
        <ele>109.5</ele>
        <time>2022-08-17T16:36:16Z</time>
      </trkpt>
      <trkpt lat="45.02609" lon="1.04875">
        <ele>109.4</ele>
        <time>2022-08-17T16:36:18Z</time>
      </trkpt>
      <trkpt lat="45.02615" lon="1.0487">
        <ele>109.1</ele>
        <time>2022-08-17T16:36:20Z</time>
      </trkpt>
      <trkpt lat="45.02622" lon="1.04866">
        <ele>108.7</ele>
        <time>2022-08-17T16:36:22Z</time>
      </trkpt>
      <trkpt lat="45.02629" lon="1.04862">
        <ele>108.5</ele>
        <time>2022-08-17T16:36:24Z</time>
      </trkpt>
      <trkpt lat="45.02636" lon="1.04858">
        <ele>108</ele>
        <time>2022-08-17T16:36:26Z</time>
      </trkpt>
      <trkpt lat="45.02642" lon="1.04853">
        <ele>107.4</ele>
        <time>2022-08-17T16:36:28Z</time>
      </trkpt>
      <trkpt lat="45.02649" lon="1.04849">
        <ele>107</ele>
        <time>2022-08-17T16:36:30Z</time>
      </trkpt>
      <trkpt lat="45.02655" lon="1.04844">
        <ele>106.2</ele>
        <time>2022-08-17T16:36:32Z</time>
      </trkpt>
      <trkpt lat="45.02662" lon="1.0484">
        <ele>105.5</ele>
        <time>2022-08-17T16:36:34Z</time>
      </trkpt>
      <trkpt lat="45.02669" lon="1.04836">
        <ele>104.9</ele>
        <time>2022-08-17T16:36:36Z</time>
      </trkpt>
      <trkpt lat="45.02676" lon="1.0483">
        <ele>104.9</ele>
        <time>2022-08-17T16:36:38Z</time>
      </trkpt>
      <trkpt lat="45.02683" lon="1.04826">
        <ele>105.4</ele>
        <time>2022-08-17T16:36:40Z</time>
      </trkpt>
      <trkpt lat="45.0269" lon="1.04822">
        <ele>105.7</ele>
        <time>2022-08-17T16:36:42Z</time>
      </trkpt>
      <trkpt lat="45.02697" lon="1.04817">
        <ele>106</ele>
        <time>2022-08-17T16:36:44Z</time>
      </trkpt>
      <trkpt lat="45.02704" lon="1.04812">
        <ele>106.1</ele>
        <time>2022-08-17T16:36:46Z</time>
      </trkpt>
      <trkpt lat="45.02711" lon="1.04807">
        <ele>106.1</ele>
        <time>2022-08-17T16:36:48Z</time>
      </trkpt>
      <trkpt lat="45.02719" lon="1.04802">
        <ele>106.1</ele>
        <time>2022-08-17T16:36:50Z</time>
      </trkpt>
      <trkpt lat="45.02726" lon="1.04795">
        <ele>105.7</ele>
        <time>2022-08-17T16:36:52Z</time>
      </trkpt>
      <trkpt lat="45.02734" lon="1.04789">
        <ele>105.3</ele>
        <time>2022-08-17T16:36:54Z</time>
      </trkpt>
      <trkpt lat="45.02742" lon="1.04782">
        <ele>104.7</ele>
        <time>2022-08-17T16:36:56Z</time>
      </trkpt>
      <trkpt lat="45.02749" lon="1.04776">
        <ele>103.9</ele>
        <time>2022-08-17T16:36:58Z</time>
      </trkpt>
      <trkpt lat="45.02757" lon="1.04769">
        <ele>103.2</ele>
        <time>2022-08-17T16:37:00Z</time>
      </trkpt>
      <trkpt lat="45.02764" lon="1.04761">
        <ele>102.5</ele>
        <time>2022-08-17T16:37:02Z</time>
      </trkpt>
      <trkpt lat="45.02771" lon="1.04753">
        <ele>101.6</ele>
        <time>2022-08-17T16:37:04Z</time>
      </trkpt>
      <trkpt lat="45.02778" lon="1.04745">
        <ele>101.6</ele>
        <time>2022-08-17T16:37:06Z</time>
      </trkpt>
      <trkpt lat="45.02785" lon="1.04735">
        <ele>102</ele>
        <time>2022-08-17T16:37:08Z</time>
      </trkpt>
      <trkpt lat="45.02792" lon="1.04724">
        <ele>102.3</ele>
        <time>2022-08-17T16:37:10Z</time>
      </trkpt>
      <trkpt lat="45.02799" lon="1.04713">
        <ele>102.4</ele>
        <time>2022-08-17T16:37:12Z</time>
      </trkpt>
      <trkpt lat="45.02806" lon="1.04702">
        <ele>102.4</ele>
        <time>2022-08-17T16:37:14Z</time>
      </trkpt>
      <trkpt lat="45.02812" lon="1.04692">
        <ele>102.4</ele>
        <time>2022-08-17T16:37:16Z</time>
      </trkpt>
      <trkpt lat="45.02819" lon="1.04682">
        <ele>102.3</ele>
        <time>2022-08-17T16:37:18Z</time>
      </trkpt>
      <trkpt lat="45.02826" lon="1.04673">
        <ele>102.1</ele>
        <time>2022-08-17T16:37:20Z</time>
      </trkpt>
      <trkpt lat="45.02834" lon="1.04664">
        <ele>101.8</ele>
        <time>2022-08-17T16:37:22Z</time>
      </trkpt>
      <trkpt lat="45.02842" lon="1.04655">
        <ele>101.2</ele>
        <time>2022-08-17T16:37:24Z</time>
      </trkpt>
      <trkpt lat="45.0285" lon="1.04647">
        <ele>100.7</ele>
        <time>2022-08-17T16:37:26Z</time>
      </trkpt>
      <trkpt lat="45.02858" lon="1.04638">
        <ele>100.1</ele>
        <time>2022-08-17T16:37:28Z</time>
      </trkpt>
      <trkpt lat="45.02866" lon="1.0463">
        <ele>99.6</ele>
        <time>2022-08-17T16:37:30Z</time>
      </trkpt>
      <trkpt lat="45.02874" lon="1.04621">
        <ele>99</ele>
        <time>2022-08-17T16:37:32Z</time>
      </trkpt>
      <trkpt lat="45.02882" lon="1.04612">
        <ele>98.5</ele>
        <time>2022-08-17T16:37:34Z</time>
      </trkpt>
      <trkpt lat="45.0289" lon="1.04603">
        <ele>98</ele>
        <time>2022-08-17T16:37:36Z</time>
      </trkpt>
      <trkpt lat="45.02897" lon="1.04596">
        <ele>97.6</ele>
        <time>2022-08-17T16:37:38Z</time>
      </trkpt>
      <trkpt lat="45.02905" lon="1.04587">
        <ele>97.2</ele>
        <time>2022-08-17T16:37:40Z</time>
      </trkpt>
      <trkpt lat="45.02912" lon="1.04579">
        <ele>97.1</ele>
        <time>2022-08-17T16:37:42Z</time>
      </trkpt>
      <trkpt lat="45.0292" lon="1.04571">
        <ele>97.5</ele>
        <time>2022-08-17T16:37:44Z</time>
      </trkpt>
      <trkpt lat="45.02928" lon="1.04563">
        <ele>97.8</ele>
        <time>2022-08-17T16:37:46Z</time>
      </trkpt>
      <trkpt lat="45.02936" lon="1.04555">
        <ele>98.1</ele>
        <time>2022-08-17T16:37:48Z</time>
      </trkpt>
      <trkpt lat="45.02943" lon="1.04546">
        <ele>98.4</ele>
        <time>2022-08-17T16:37:50Z</time>
      </trkpt>
      <trkpt lat="45.02951" lon="1.04538">
        <ele>98.6</ele>
        <time>2022-08-17T16:37:52Z</time>
      </trkpt>
      <trkpt lat="45.02958" lon="1.04529">
        <ele>98.8</ele>
        <time>2022-08-17T16:37:54Z</time>
      </trkpt>
      <trkpt lat="45.02965" lon="1.04521">
        <ele>99</ele>
        <time>2022-08-17T16:37:56Z</time>
      </trkpt>
      <trkpt lat="45.02971" lon="1.04513">
        <ele>99.1</ele>
        <time>2022-08-17T16:37:58Z</time>
      </trkpt>
      <trkpt lat="45.02978" lon="1.04504">
        <ele>99.2</ele>
        <time>2022-08-17T16:38:00Z</time>
      </trkpt>
      <trkpt lat="45.02984" lon="1.04496">
        <ele>99.1</ele>
        <time>2022-08-17T16:38:02Z</time>
      </trkpt>
      <trkpt lat="45.0299" lon="1.04487">
        <ele>98.8</ele>
        <time>2022-08-17T16:38:04Z</time>
      </trkpt>
      <trkpt lat="45.02996" lon="1.04478">
        <ele>98.5</ele>
        <time>2022-08-17T16:38:06Z</time>
      </trkpt>
      <trkpt lat="45.03001" lon="1.04469">
        <ele>98.3</ele>
        <time>2022-08-17T16:38:08Z</time>
      </trkpt>
      <trkpt lat="45.03005" lon="1.04461">
        <ele>99</ele>
        <time>2022-08-17T16:38:10Z</time>
      </trkpt>
      <trkpt lat="45.03009" lon="1.04454">
        <ele>99.5</ele>
        <time>2022-08-17T16:38:12Z</time>
      </trkpt>
      <trkpt lat="45.03014" lon="1.04446">
        <ele>100.1</ele>
        <time>2022-08-17T16:38:14Z</time>
      </trkpt>
      <trkpt lat="45.03018" lon="1.0444">
        <ele>100.7</ele>
        <time>2022-08-17T16:38:16Z</time>
      </trkpt>
      <trkpt lat="45.03022" lon="1.04434">
        <ele>101.4</ele>
        <time>2022-08-17T16:38:18Z</time>
      </trkpt>
      <trkpt lat="45.03026" lon="1.04429">
        <ele>102</ele>
        <time>2022-08-17T16:38:20Z</time>
      </trkpt>
      <trkpt lat="45.03031" lon="1.04424">
        <ele>102.7</ele>
        <time>2022-08-17T16:38:22Z</time>
      </trkpt>
      <trkpt lat="45.03036" lon="1.04418">
        <ele>103.5</ele>
        <time>2022-08-17T16:38:24Z</time>
      </trkpt>
      <trkpt lat="45.0304" lon="1.04412">
        <ele>104</ele>
        <time>2022-08-17T16:38:26Z</time>
      </trkpt>
      <trkpt lat="45.03045" lon="1.04408">
        <ele>104.6</ele>
        <time>2022-08-17T16:38:28Z</time>
      </trkpt>
      <trkpt lat="45.03051" lon="1.04404">
        <ele>105.2</ele>
        <time>2022-08-17T16:38:30Z</time>
      </trkpt>
      <trkpt lat="45.03055" lon="1.04399">
        <ele>105.6</ele>
        <time>2022-08-17T16:38:32Z</time>
      </trkpt>
      <trkpt lat="45.03059" lon="1.04395">
        <ele>105.9</ele>
        <time>2022-08-17T16:38:34Z</time>
      </trkpt>
      <trkpt lat="45.03064" lon="1.0439">
        <ele>106.2</ele>
        <time>2022-08-17T16:38:36Z</time>
      </trkpt>
      <trkpt lat="45.03068" lon="1.04387">
        <ele>106.5</ele>
        <time>2022-08-17T16:38:38Z</time>
      </trkpt>
      <trkpt lat="45.03072" lon="1.04383">
        <ele>106.8</ele>
        <time>2022-08-17T16:38:40Z</time>
      </trkpt>
      <trkpt lat="45.03076" lon="1.04379">
        <ele>106.9</ele>
        <time>2022-08-17T16:38:42Z</time>
      </trkpt>
      <trkpt lat="45.03081" lon="1.04374">
        <ele>107</ele>
        <time>2022-08-17T16:38:44Z</time>
      </trkpt>
      <trkpt lat="45.03085" lon="1.0437">
        <ele>107.2</ele>
        <time>2022-08-17T16:38:46Z</time>
      </trkpt>
      <trkpt lat="45.03089" lon="1.04366">
        <ele>107.2</ele>
        <time>2022-08-17T16:38:48Z</time>
      </trkpt>
      <trkpt lat="45.03094" lon="1.04361">
        <ele>107.2</ele>
        <time>2022-08-17T16:38:50Z</time>
      </trkpt>
      <trkpt lat="45.03098" lon="1.04356">
        <ele>107.1</ele>
        <time>2022-08-17T16:38:52Z</time>
      </trkpt>
      <trkpt lat="45.03102" lon="1.04352">
        <ele>107.2</ele>
        <time>2022-08-17T16:38:54Z</time>
      </trkpt>
      <trkpt lat="45.03108" lon="1.0435">
        <ele>107.5</ele>
        <time>2022-08-17T16:38:56Z</time>
      </trkpt>
      <trkpt lat="45.03113" lon="1.04346">
        <ele>107.7</ele>
        <time>2022-08-17T16:38:58Z</time>
      </trkpt>
      <trkpt lat="45.03118" lon="1.04343">
        <ele>107.9</ele>
        <time>2022-08-17T16:39:00Z</time>
      </trkpt>
      <trkpt lat="45.03122" lon="1.04341">
        <ele>108.1</ele>
        <time>2022-08-17T16:39:02Z</time>
      </trkpt>
      <trkpt lat="45.03126" lon="1.04338">
        <ele>108.2</ele>
        <time>2022-08-17T16:39:04Z</time>
      </trkpt>
      <trkpt lat="45.0313" lon="1.04335">
        <ele>108.2</ele>
        <time>2022-08-17T16:39:06Z</time>
      </trkpt>
      <trkpt lat="45.03134" lon="1.04333">
        <ele>108.4</ele>
        <time>2022-08-17T16:39:08Z</time>
      </trkpt>
      <trkpt lat="45.03138" lon="1.0433">
        <ele>108.6</ele>
        <time>2022-08-17T16:39:10Z</time>
      </trkpt>
      <trkpt lat="45.03141" lon="1.04327">
        <ele>108.7</ele>
        <time>2022-08-17T16:39:12Z</time>
      </trkpt>
      <trkpt lat="45.03145" lon="1.04324">
        <ele>108.9</ele>
        <time>2022-08-17T16:39:14Z</time>
      </trkpt>
      <trkpt lat="45.03149" lon="1.04322">
        <ele>109.1</ele>
        <time>2022-08-17T16:39:16Z</time>
      </trkpt>
      <trkpt lat="45.03152" lon="1.04319">
        <ele>109.1</ele>
        <time>2022-08-17T16:39:18Z</time>
      </trkpt>
      <trkpt lat="45.03156" lon="1.04317">
        <ele>109.3</ele>
        <time>2022-08-17T16:39:20Z</time>
      </trkpt>
      <trkpt lat="45.0316" lon="1.04314">
        <ele>109.4</ele>
        <time>2022-08-17T16:39:22Z</time>
      </trkpt>
      <trkpt lat="45.03163" lon="1.04311">
        <ele>109.5</ele>
        <time>2022-08-17T16:39:24Z</time>
      </trkpt>
      <trkpt lat="45.03166" lon="1.04309">
        <ele>109.6</ele>
        <time>2022-08-17T16:39:26Z</time>
      </trkpt>
      <trkpt lat="45.0317" lon="1.04307">
        <ele>109.9</ele>
        <time>2022-08-17T16:39:28Z</time>
      </trkpt>
      <trkpt lat="45.03174" lon="1.04304">
        <ele>110.1</ele>
        <time>2022-08-17T16:39:30Z</time>
      </trkpt>
      <trkpt lat="45.03177" lon="1.04302">
        <ele>110.4</ele>
        <time>2022-08-17T16:39:32Z</time>
      </trkpt>
      <trkpt lat="45.03181" lon="1.043">
        <ele>110.6</ele>
        <time>2022-08-17T16:39:34Z</time>
      </trkpt>
      <trkpt lat="45.03184" lon="1.04297">
        <ele>110.8</ele>
        <time>2022-08-17T16:39:36Z</time>
      </trkpt>
      <trkpt lat="45.03188" lon="1.04295">
        <ele>111</ele>
        <time>2022-08-17T16:39:38Z</time>
      </trkpt>
      <trkpt lat="45.03192" lon="1.04292">
        <ele>111.2</ele>
        <time>2022-08-17T16:39:40Z</time>
      </trkpt>
      <trkpt lat="45.03195" lon="1.0429">
        <ele>111.5</ele>
        <time>2022-08-17T16:39:42Z</time>
      </trkpt>
      <trkpt lat="45.032" lon="1.04289">
        <ele>111.8</ele>
        <time>2022-08-17T16:39:44Z</time>
      </trkpt>
      <trkpt lat="45.03203" lon="1.04285">
        <ele>111.9</ele>
        <time>2022-08-17T16:39:46Z</time>
      </trkpt>
      <trkpt lat="45.03207" lon="1.04283">
        <ele>112</ele>
        <time>2022-08-17T16:39:48Z</time>
      </trkpt>
      <trkpt lat="45.03211" lon="1.0428">
        <ele>112.2</ele>
        <time>2022-08-17T16:39:50Z</time>
      </trkpt>
      <trkpt lat="45.03214" lon="1.04277">
        <ele>112.3</ele>
        <time>2022-08-17T16:39:52Z</time>
      </trkpt>
      <trkpt lat="45.03218" lon="1.04275">
        <ele>112.5</ele>
        <time>2022-08-17T16:39:54Z</time>
      </trkpt>
      <trkpt lat="45.03221" lon="1.04274">
        <ele>112.7</ele>
        <time>2022-08-17T16:39:56Z</time>
      </trkpt>
      <trkpt lat="45.03225" lon="1.04271">
        <ele>112.9</ele>
        <time>2022-08-17T16:39:58Z</time>
      </trkpt>
      <trkpt lat="45.03229" lon="1.04268">
        <ele>113</ele>
        <time>2022-08-17T16:40:00Z</time>
      </trkpt>
      <trkpt lat="45.03233" lon="1.04266">
        <ele>113.1</ele>
        <time>2022-08-17T16:40:02Z</time>
      </trkpt>
      <trkpt lat="45.03236" lon="1.04262">
        <ele>113.1</ele>
        <time>2022-08-17T16:40:04Z</time>
      </trkpt>
      <trkpt lat="45.0324" lon="1.0426">
        <ele>113.2</ele>
        <time>2022-08-17T16:40:06Z</time>
      </trkpt>
      <trkpt lat="45.03244" lon="1.04258">
        <ele>113.4</ele>
        <time>2022-08-17T16:40:08Z</time>
      </trkpt>
      <trkpt lat="45.03247" lon="1.04256">
        <ele>113.5</ele>
        <time>2022-08-17T16:40:10Z</time>
      </trkpt>
      <trkpt lat="45.03251" lon="1.04252">
        <ele>113.4</ele>
        <time>2022-08-17T16:40:12Z</time>
      </trkpt>
      <trkpt lat="45.03254" lon="1.0425">
        <ele>113.6</ele>
        <time>2022-08-17T16:40:14Z</time>
      </trkpt>
      <trkpt lat="45.03258" lon="1.04247">
        <ele>113.8</ele>
        <time>2022-08-17T16:40:16Z</time>
      </trkpt>
      <trkpt lat="45.03261" lon="1.04245">
        <ele>114.2</ele>
        <time>2022-08-17T16:40:18Z</time>
      </trkpt>
      <trkpt lat="45.03265" lon="1.04242">
        <ele>114.5</ele>
        <time>2022-08-17T16:40:20Z</time>
      </trkpt>
      <trkpt lat="45.03269" lon="1.04241">
        <ele>115</ele>
        <time>2022-08-17T16:40:22Z</time>
      </trkpt>
      <trkpt lat="45.03274" lon="1.04238">
        <ele>115.4</ele>
        <time>2022-08-17T16:40:24Z</time>
      </trkpt>
      <trkpt lat="45.03278" lon="1.04237">
        <ele>115.8</ele>
        <time>2022-08-17T16:40:26Z</time>
      </trkpt>
      <trkpt lat="45.03282" lon="1.04234">
        <ele>116.2</ele>
        <time>2022-08-17T16:40:28Z</time>
      </trkpt>
      <trkpt lat="45.03287" lon="1.04232">
        <ele>116.6</ele>
        <time>2022-08-17T16:40:30Z</time>
      </trkpt>
      <trkpt lat="45.03291" lon="1.0423">
        <ele>116.9</ele>
        <time>2022-08-17T16:40:32Z</time>
      </trkpt>
      <trkpt lat="45.03295" lon="1.04228">
        <ele>117.3</ele>
        <time>2022-08-17T16:40:34Z</time>
      </trkpt>
      <trkpt lat="45.03298" lon="1.04225">
        <ele>117.5</ele>
        <time>2022-08-17T16:40:36Z</time>
      </trkpt>
      <trkpt lat="45.03302" lon="1.04222">
        <ele>117.8</ele>
        <time>2022-08-17T16:40:38Z</time>
      </trkpt>
      <trkpt lat="45.03307" lon="1.04221">
        <ele>118.2</ele>
        <time>2022-08-17T16:40:40Z</time>
      </trkpt>
      <trkpt lat="45.03311" lon="1.04218">
        <ele>118.5</ele>
        <time>2022-08-17T16:40:42Z</time>
      </trkpt>
      <trkpt lat="45.03315" lon="1.04215">
        <ele>118.7</ele>
        <time>2022-08-17T16:40:44Z</time>
      </trkpt>
      <trkpt lat="45.03319" lon="1.04212">
        <ele>118.9</ele>
        <time>2022-08-17T16:40:46Z</time>
      </trkpt>
      <trkpt lat="45.03323" lon="1.04209">
        <ele>119.2</ele>
        <time>2022-08-17T16:40:48Z</time>
      </trkpt>
      <trkpt lat="45.03327" lon="1.04207">
        <ele>119.5</ele>
        <time>2022-08-17T16:40:50Z</time>
      </trkpt>
      <trkpt lat="45.03332" lon="1.04205">
        <ele>119.9</ele>
        <time>2022-08-17T16:40:52Z</time>
      </trkpt>
      <trkpt lat="45.03336" lon="1.04201">
        <ele>120</ele>
        <time>2022-08-17T16:40:54Z</time>
      </trkpt>
      <trkpt lat="45.0334" lon="1.04199">
        <ele>120.2</ele>
        <time>2022-08-17T16:40:56Z</time>
      </trkpt>
      <trkpt lat="45.03344" lon="1.04197">
        <ele>120.5</ele>
        <time>2022-08-17T16:40:58Z</time>
      </trkpt>
      <trkpt lat="45.03348" lon="1.04195">
        <ele>120.9</ele>
        <time>2022-08-17T16:41:00Z</time>
      </trkpt>
      <trkpt lat="45.03351" lon="1.04193">
        <ele>121</ele>
        <time>2022-08-17T16:41:02Z</time>
      </trkpt>
      <trkpt lat="45.03355" lon="1.04192">
        <ele>121.3</ele>
        <time>2022-08-17T16:41:04Z</time>
      </trkpt>
      <trkpt lat="45.03359" lon="1.04191">
        <ele>121.7</ele>
        <time>2022-08-17T16:41:06Z</time>
      </trkpt>
      <trkpt lat="45.03362" lon="1.04189">
        <ele>121.9</ele>
        <time>2022-08-17T16:41:08Z</time>
      </trkpt>
      <trkpt lat="45.03367" lon="1.04188">
        <ele>122.3</ele>
        <time>2022-08-17T16:41:10Z</time>
      </trkpt>
      <trkpt lat="45.0337" lon="1.04187">
        <ele>122.6</ele>
        <time>2022-08-17T16:41:12Z</time>
      </trkpt>
      <trkpt lat="45.03374" lon="1.04184">
        <ele>122.8</ele>
        <time>2022-08-17T16:41:14Z</time>
      </trkpt>
      <trkpt lat="45.03378" lon="1.04183">
        <ele>123.2</ele>
        <time>2022-08-17T16:41:16Z</time>
      </trkpt>
      <trkpt lat="45.03382" lon="1.04182">
        <ele>123.4</ele>
        <time>2022-08-17T16:41:18Z</time>
      </trkpt>
      <trkpt lat="45.03386" lon="1.0418">
        <ele>123.7</ele>
        <time>2022-08-17T16:41:20Z</time>
      </trkpt>
      <trkpt lat="45.03389" lon="1.04177">
        <ele>123.8</ele>
        <time>2022-08-17T16:41:22Z</time>
      </trkpt>
      <trkpt lat="45.03393" lon="1.04175">
        <ele>124</ele>
        <time>2022-08-17T16:41:24Z</time>
      </trkpt>
      <trkpt lat="45.03396" lon="1.04172">
        <ele>124.1</ele>
        <time>2022-08-17T16:41:26Z</time>
      </trkpt>
      <trkpt lat="45.034" lon="1.04168">
        <ele>124.1</ele>
        <time>2022-08-17T16:41:28Z</time>
      </trkpt>
      <trkpt lat="45.03403" lon="1.04165">
        <ele>124.3</ele>
        <time>2022-08-17T16:41:30Z</time>
      </trkpt>
      <trkpt lat="45.03407" lon="1.04162">
        <ele>124.4</ele>
        <time>2022-08-17T16:41:32Z</time>
      </trkpt>
      <trkpt lat="45.03411" lon="1.04158">
        <ele>124.6</ele>
        <time>2022-08-17T16:41:34Z</time>
      </trkpt>
      <trkpt lat="45.03414" lon="1.04154">
        <ele>124.8</ele>
        <time>2022-08-17T16:41:36Z</time>
      </trkpt>
      <trkpt lat="45.03418" lon="1.04152">
        <ele>125.1</ele>
        <time>2022-08-17T16:41:38Z</time>
      </trkpt>
      <trkpt lat="45.03421" lon="1.04149">
        <ele>125.2</ele>
        <time>2022-08-17T16:41:40Z</time>
      </trkpt>
      <trkpt lat="45.03423" lon="1.04146">
        <ele>125.2</ele>
        <time>2022-08-17T16:41:42Z</time>
      </trkpt>
      <trkpt lat="45.03426" lon="1.04142">
        <ele>125.2</ele>
        <time>2022-08-17T16:41:44Z</time>
      </trkpt>
      <trkpt lat="45.03428" lon="1.04138">
        <ele>125.2</ele>
        <time>2022-08-17T16:41:46Z</time>
      </trkpt>
      <trkpt lat="45.0343" lon="1.04133">
        <ele>125</ele>
        <time>2022-08-17T16:41:48Z</time>
      </trkpt>
      <trkpt lat="45.03433" lon="1.04129">
        <ele>125</ele>
        <time>2022-08-17T16:41:50Z</time>
      </trkpt>
      <trkpt lat="45.03437" lon="1.04125">
        <ele>125.1</ele>
        <time>2022-08-17T16:41:52Z</time>
      </trkpt>
      <trkpt lat="45.03439" lon="1.04123">
        <ele>125.1</ele>
        <time>2022-08-17T16:41:54Z</time>
      </trkpt>
      <trkpt lat="45.03441" lon="1.0412">
        <ele>125.1</ele>
        <time>2022-08-17T16:41:56Z</time>
      </trkpt>
      <trkpt lat="45.03444" lon="1.04115">
        <ele>125</ele>
        <time>2022-08-17T16:41:58Z</time>
      </trkpt>
      <trkpt lat="45.03447" lon="1.04112">
        <ele>125</ele>
        <time>2022-08-17T16:42:00Z</time>
      </trkpt>
      <trkpt lat="45.0345" lon="1.04108">
        <ele>124.9</ele>
        <time>2022-08-17T16:42:02Z</time>
      </trkpt>
      <trkpt lat="45.03453" lon="1.04105">
        <ele>124.9</ele>
        <time>2022-08-17T16:42:04Z</time>
      </trkpt>
      <trkpt lat="45.03455" lon="1.041">
        <ele>124.7</ele>
        <time>2022-08-17T16:42:06Z</time>
      </trkpt>
      <trkpt lat="45.03458" lon="1.04093">
        <ele>124.4</ele>
        <time>2022-08-17T16:42:08Z</time>
      </trkpt>
      <trkpt lat="45.03462" lon="1.04088">
        <ele>124.2</ele>
        <time>2022-08-17T16:42:10Z</time>
      </trkpt>
      <trkpt lat="45.03465" lon="1.04082">
        <ele>123.9</ele>
        <time>2022-08-17T16:42:12Z</time>
      </trkpt>
      <trkpt lat="45.03468" lon="1.04076">
        <ele>123.9</ele>
        <time>2022-08-17T16:42:14Z</time>
      </trkpt>
      <trkpt lat="45.03471" lon="1.0407">
        <ele>123.9</ele>
        <time>2022-08-17T16:42:16Z</time>
      </trkpt>
      <trkpt lat="45.03475" lon="1.04064">
        <ele>123.8</ele>
        <time>2022-08-17T16:42:18Z</time>
      </trkpt>
      <trkpt lat="45.03479" lon="1.04059">
        <ele>123.9</ele>
        <time>2022-08-17T16:42:20Z</time>
      </trkpt>
      <trkpt lat="45.03482" lon="1.04053">
        <ele>123.9</ele>
        <time>2022-08-17T16:42:22Z</time>
      </trkpt>
      <trkpt lat="45.03486" lon="1.04048">
        <ele>124</ele>
        <time>2022-08-17T16:42:24Z</time>
      </trkpt>
      <trkpt lat="45.0349" lon="1.04044">
        <ele>124.1</ele>
        <time>2022-08-17T16:42:26Z</time>
      </trkpt>
      <trkpt lat="45.03493" lon="1.04041">
        <ele>124.3</ele>
        <time>2022-08-17T16:42:28Z</time>
      </trkpt>
      <trkpt lat="45.03495" lon="1.04036">
        <ele>124.2</ele>
        <time>2022-08-17T16:42:30Z</time>
      </trkpt>
      <trkpt lat="45.03498" lon="1.04034">
        <ele>124.4</ele>
        <time>2022-08-17T16:42:32Z</time>
      </trkpt>
      <trkpt lat="45.035" lon="1.0403">
        <ele>124.4</ele>
        <time>2022-08-17T16:42:34Z</time>
      </trkpt>
      <trkpt lat="45.03504" lon="1.04031">
        <ele>124.9</ele>
        <time>2022-08-17T16:42:36Z</time>
      </trkpt>
      <trkpt lat="45.03505" lon="1.04034">
        <ele>125.2</ele>
        <time>2022-08-17T16:42:38Z</time>
      </trkpt>
      <trkpt lat="45.03504" lon="1.04033">
        <ele>125.1</ele>
        <time>2022-08-17T16:42:40Z</time>
      </trkpt>
      <trkpt lat="45.03503" lon="1.04032">
        <ele>124.8</ele>
        <time>2022-08-17T16:42:42Z</time>
      </trkpt>
      <trkpt lat="45.03502" lon="1.0403">
        <ele>124.7</ele>
        <time>2022-08-17T16:42:44Z</time>
      </trkpt>
      <trkpt lat="45.03502" lon="1.0403">
        <ele>124.7</ele>
        <time>2022-08-17T16:42:46Z</time>
      </trkpt>
      <trkpt lat="45.0351" lon="1.04019">
        <ele>124.9</ele>
        <time>2022-08-17T16:43:30Z</time>
      </trkpt>
      <trkpt lat="45.03513" lon="1.04013">
        <ele>124.9</ele>
        <time>2022-08-17T16:43:32Z</time>
      </trkpt>
      <trkpt lat="45.03515" lon="1.04008">
        <ele>124.8</ele>
        <time>2022-08-17T16:43:34Z</time>
      </trkpt>
      <trkpt lat="45.03517" lon="1.04002">
        <ele>124.6</ele>
        <time>2022-08-17T16:43:36Z</time>
      </trkpt>
      <trkpt lat="45.03522" lon="1.03998">
        <ele>124.6</ele>
        <time>2022-08-17T16:43:38Z</time>
      </trkpt>
      <trkpt lat="45.03527" lon="1.03993">
        <ele>124.5</ele>
        <time>2022-08-17T16:43:40Z</time>
      </trkpt>
      <trkpt lat="45.0353" lon="1.0399">
        <ele>124.4</ele>
        <time>2022-08-17T16:43:42Z</time>
      </trkpt>
      <trkpt lat="45.03534" lon="1.03986">
        <ele>124.3</ele>
        <time>2022-08-17T16:43:44Z</time>
      </trkpt>
      <trkpt lat="45.03537" lon="1.03982">
        <ele>124.1</ele>
        <time>2022-08-17T16:43:46Z</time>
      </trkpt>
      <trkpt lat="45.0354" lon="1.0398">
        <ele>124.2</ele>
        <time>2022-08-17T16:43:48Z</time>
      </trkpt>
      <trkpt lat="45.03542" lon="1.0398">
        <ele>124.3</ele>
        <time>2022-08-17T16:43:50Z</time>
      </trkpt>
      <trkpt lat="45.03543" lon="1.03979">
        <ele>124.4</ele>
        <time>2022-08-17T16:43:52Z</time>
      </trkpt>
      <trkpt lat="45.03544" lon="1.03979">
        <ele>124.5</ele>
        <time>2022-08-17T16:43:54Z</time>
      </trkpt>
      <trkpt lat="45.03544" lon="1.03979">
        <ele>124.4</ele>
        <time>2022-08-17T16:43:56Z</time>
      </trkpt>
      <trkpt lat="45.03544" lon="1.03978">
        <ele>124.3</ele>
        <time>2022-08-17T16:43:58Z</time>
      </trkpt>
      <trkpt lat="45.03545" lon="1.03961">
        <ele>122.6</ele>
        <time>2022-08-17T17:04:10Z</time>
      </trkpt>
      <trkpt lat="45.03549" lon="1.03955">
        <ele>122.3</ele>
        <time>2022-08-17T17:04:12Z</time>
      </trkpt>
      <trkpt lat="45.03554" lon="1.03953">
        <ele>122.4</ele>
        <time>2022-08-17T17:04:14Z</time>
      </trkpt>
      <trkpt lat="45.03558" lon="1.0395">
        <ele>122.5</ele>
        <time>2022-08-17T17:04:16Z</time>
      </trkpt>
      <trkpt lat="45.03563" lon="1.03946">
        <ele>122.5</ele>
        <time>2022-08-17T17:04:18Z</time>
      </trkpt>
      <trkpt lat="45.0357" lon="1.03945">
        <ele>123</ele>
        <time>2022-08-17T17:04:20Z</time>
      </trkpt>
      <trkpt lat="45.03576" lon="1.03942">
        <ele>123.1</ele>
        <time>2022-08-17T17:04:22Z</time>
      </trkpt>
      <trkpt lat="45.03578" lon="1.03939">
        <ele>123</ele>
        <time>2022-08-17T17:04:24Z</time>
      </trkpt>
      <trkpt lat="45.03583" lon="1.03936">
        <ele>123.1</ele>
        <time>2022-08-17T17:04:26Z</time>
      </trkpt>
      <trkpt lat="45.03586" lon="1.03936">
        <ele>123.4</ele>
        <time>2022-08-17T17:04:28Z</time>
      </trkpt>
      <trkpt lat="45.03586" lon="1.03936">
        <ele>123.5</ele>
        <time>2022-08-17T17:04:30Z</time>
      </trkpt>
      <trkpt lat="45.03586" lon="1.03935">
        <ele>123.3</ele>
        <time>2022-08-17T17:04:32Z</time>
      </trkpt>
      <trkpt lat="45.03584" lon="1.03935">
        <ele>123.1</ele>
        <time>2022-08-17T17:04:34Z</time>
      </trkpt>
      <trkpt lat="45.03583" lon="1.03936">
        <ele>123.1</ele>
        <time>2022-08-17T17:04:36Z</time>
      </trkpt>
      <trkpt lat="45.03583" lon="1.03936">
        <ele>123.1</ele>
        <time>2022-08-17T17:04:38Z</time>
      </trkpt>
      <trkpt lat="45.03602" lon="1.03928">
        <ele>124.4</ele>
        <time>2022-08-17T17:04:54Z</time>
      </trkpt>
      <trkpt lat="45.03605" lon="1.03927">
        <ele>124.7</ele>
        <time>2022-08-17T17:04:56Z</time>
      </trkpt>
      <trkpt lat="45.03609" lon="1.03925">
        <ele>125</ele>
        <time>2022-08-17T17:04:58Z</time>
      </trkpt>
      <trkpt lat="45.03613" lon="1.03924">
        <ele>125.3</ele>
        <time>2022-08-17T17:05:00Z</time>
      </trkpt>
      <trkpt lat="45.03616" lon="1.03923">
        <ele>125.6</ele>
        <time>2022-08-17T17:05:02Z</time>
      </trkpt>
      <trkpt lat="45.03619" lon="1.03921">
        <ele>125.8</ele>
        <time>2022-08-17T17:05:04Z</time>
      </trkpt>
      <trkpt lat="45.03623" lon="1.0392">
        <ele>126.1</ele>
        <time>2022-08-17T17:05:06Z</time>
      </trkpt>
      <trkpt lat="45.03627" lon="1.03918">
        <ele>126.3</ele>
        <time>2022-08-17T17:05:08Z</time>
      </trkpt>
      <trkpt lat="45.03631" lon="1.03916">
        <ele>126.7</ele>
        <time>2022-08-17T17:05:10Z</time>
      </trkpt>
      <trkpt lat="45.03634" lon="1.03913">
        <ele>126.7</ele>
        <time>2022-08-17T17:05:12Z</time>
      </trkpt>
      <trkpt lat="45.03637" lon="1.03911">
        <ele>126.8</ele>
        <time>2022-08-17T17:05:14Z</time>
      </trkpt>
      <trkpt lat="45.0364" lon="1.03908">
        <ele>126.9</ele>
        <time>2022-08-17T17:05:16Z</time>
      </trkpt>
      <trkpt lat="45.03644" lon="1.03905">
        <ele>127.1</ele>
        <time>2022-08-17T17:05:18Z</time>
      </trkpt>
      <trkpt lat="45.03648" lon="1.03904">
        <ele>127.4</ele>
        <time>2022-08-17T17:05:20Z</time>
      </trkpt>
      <trkpt lat="45.03651" lon="1.03903">
        <ele>127.6</ele>
        <time>2022-08-17T17:05:22Z</time>
      </trkpt>
      <trkpt lat="45.03654" lon="1.03901">
        <ele>127.9</ele>
        <time>2022-08-17T17:05:24Z</time>
      </trkpt>
      <trkpt lat="45.03658" lon="1.03899">
        <ele>128</ele>
        <time>2022-08-17T17:05:26Z</time>
      </trkpt>
      <trkpt lat="45.03661" lon="1.03896">
        <ele>128.1</ele>
        <time>2022-08-17T17:05:28Z</time>
      </trkpt>
      <trkpt lat="45.03664" lon="1.03893">
        <ele>128.1</ele>
        <time>2022-08-17T17:05:30Z</time>
      </trkpt>
      <trkpt lat="45.03667" lon="1.0389">
        <ele>128.1</ele>
        <time>2022-08-17T17:05:32Z</time>
      </trkpt>
      <trkpt lat="45.0367" lon="1.03887">
        <ele>128</ele>
        <time>2022-08-17T17:05:34Z</time>
      </trkpt>
      <trkpt lat="45.03673" lon="1.03884">
        <ele>127.9</ele>
        <time>2022-08-17T17:05:36Z</time>
      </trkpt>
      <trkpt lat="45.03676" lon="1.03883">
        <ele>127.9</ele>
        <time>2022-08-17T17:05:38Z</time>
      </trkpt>
      <trkpt lat="45.03678" lon="1.0388">
        <ele>127.7</ele>
        <time>2022-08-17T17:05:40Z</time>
      </trkpt>
      <trkpt lat="45.03682" lon="1.03877">
        <ele>127.6</ele>
        <time>2022-08-17T17:05:42Z</time>
      </trkpt>
      <trkpt lat="45.03684" lon="1.03876">
        <ele>127.5</ele>
        <time>2022-08-17T17:05:44Z</time>
      </trkpt>
      <trkpt lat="45.03685" lon="1.03876">
        <ele>127.6</ele>
        <time>2022-08-17T17:05:46Z</time>
      </trkpt>
      <trkpt lat="45.03685" lon="1.03875">
        <ele>127.5</ele>
        <time>2022-08-17T17:05:48Z</time>
      </trkpt>
      <trkpt lat="45.03686" lon="1.03875">
        <ele>127.5</ele>
        <time>2022-08-17T17:05:50Z</time>
      </trkpt>
      <trkpt lat="45.03686" lon="1.03874">
        <ele>127.4</ele>
        <time>2022-08-17T17:05:52Z</time>
      </trkpt>
      <trkpt lat="45.03696" lon="1.03874">
        <ele>128</ele>
        <time>2022-08-17T17:06:12Z</time>
      </trkpt>
      <trkpt lat="45.03699" lon="1.03876">
        <ele>128.4</ele>
        <time>2022-08-17T17:06:14Z</time>
      </trkpt>
      <trkpt lat="45.03703" lon="1.03877">
        <ele>128.7</ele>
        <time>2022-08-17T17:06:16Z</time>
      </trkpt>
      <trkpt lat="45.03705" lon="1.03878">
        <ele>128.9</ele>
        <time>2022-08-17T17:06:18Z</time>
      </trkpt>
      <trkpt lat="45.03708" lon="1.03878">
        <ele>129.2</ele>
        <time>2022-08-17T17:06:20Z</time>
      </trkpt>
      <trkpt lat="45.03712" lon="1.0388">
        <ele>129.5</ele>
        <time>2022-08-17T17:06:22Z</time>
      </trkpt>
      <trkpt lat="45.03716" lon="1.03882">
        <ele>130</ele>
        <time>2022-08-17T17:06:24Z</time>
      </trkpt>
      <trkpt lat="45.03719" lon="1.03882">
        <ele>130.2</ele>
        <time>2022-08-17T17:06:26Z</time>
      </trkpt>
      <trkpt lat="45.03723" lon="1.03881">
        <ele>130.4</ele>
        <time>2022-08-17T17:06:28Z</time>
      </trkpt>
      <trkpt lat="45.03727" lon="1.03882">
        <ele>130.6</ele>
        <time>2022-08-17T17:06:30Z</time>
      </trkpt>
      <trkpt lat="45.03731" lon="1.03882">
        <ele>130.9</ele>
        <time>2022-08-17T17:06:32Z</time>
      </trkpt>
      <trkpt lat="45.03734" lon="1.03881">
        <ele>130.9</ele>
        <time>2022-08-17T17:06:34Z</time>
      </trkpt>
      <trkpt lat="45.03739" lon="1.0388">
        <ele>131</ele>
        <time>2022-08-17T17:06:36Z</time>
      </trkpt>
      <trkpt lat="45.03743" lon="1.03878">
        <ele>131</ele>
        <time>2022-08-17T17:06:38Z</time>
      </trkpt>
      <trkpt lat="45.03747" lon="1.03877">
        <ele>131.2</ele>
        <time>2022-08-17T17:06:40Z</time>
      </trkpt>
      <trkpt lat="45.03751" lon="1.03877">
        <ele>131.4</ele>
        <time>2022-08-17T17:06:42Z</time>
      </trkpt>
      <trkpt lat="45.03755" lon="1.03878">
        <ele>131.6</ele>
        <time>2022-08-17T17:06:44Z</time>
      </trkpt>
      <trkpt lat="45.03759" lon="1.03879">
        <ele>132</ele>
        <time>2022-08-17T17:06:46Z</time>
      </trkpt>
      <trkpt lat="45.03763" lon="1.03881">
        <ele>132.4</ele>
        <time>2022-08-17T17:06:48Z</time>
      </trkpt>
      <trkpt lat="45.03767" lon="1.03884">
        <ele>132.9</ele>
        <time>2022-08-17T17:06:50Z</time>
      </trkpt>
      <trkpt lat="45.03771" lon="1.03888">
        <ele>133.4</ele>
        <time>2022-08-17T17:06:52Z</time>
      </trkpt>
      <trkpt lat="45.03774" lon="1.03891">
        <ele>133.9</ele>
        <time>2022-08-17T17:06:54Z</time>
      </trkpt>
      <trkpt lat="45.03778" lon="1.03894">
        <ele>134.3</ele>
        <time>2022-08-17T17:06:56Z</time>
      </trkpt>
      <trkpt lat="45.03781" lon="1.03896">
        <ele>134.6</ele>
        <time>2022-08-17T17:06:58Z</time>
      </trkpt>
      <trkpt lat="45.03784" lon="1.03898">
        <ele>135</ele>
        <time>2022-08-17T17:07:00Z</time>
      </trkpt>
      <trkpt lat="45.03788" lon="1.03901">
        <ele>135.4</ele>
        <time>2022-08-17T17:07:02Z</time>
      </trkpt>
      <trkpt lat="45.03791" lon="1.03903">
        <ele>135.6</ele>
        <time>2022-08-17T17:07:04Z</time>
      </trkpt>
      <trkpt lat="45.03794" lon="1.03906">
        <ele>135.9</ele>
        <time>2022-08-17T17:07:06Z</time>
      </trkpt>
      <trkpt lat="45.03795" lon="1.03911">
        <ele>136.5</ele>
        <time>2022-08-17T17:07:08Z</time>
      </trkpt>
      <trkpt lat="45.03793" lon="1.03916">
        <ele>137</ele>
        <time>2022-08-17T17:07:10Z</time>
      </trkpt>
      <trkpt lat="45.03789" lon="1.03919">
        <ele>137.3</ele>
        <time>2022-08-17T17:07:12Z</time>
      </trkpt>
      <trkpt lat="45.03785" lon="1.0392">
        <ele>137.5</ele>
        <time>2022-08-17T17:07:14Z</time>
      </trkpt>
      <trkpt lat="45.03782" lon="1.03921">
        <ele>137.6</ele>
        <time>2022-08-17T17:07:16Z</time>
      </trkpt>
      <trkpt lat="45.03779" lon="1.03921">
        <ele>137.6</ele>
        <time>2022-08-17T17:07:18Z</time>
      </trkpt>
      <trkpt lat="45.03776" lon="1.03921">
        <ele>137.6</ele>
        <time>2022-08-17T17:07:20Z</time>
      </trkpt>
      <trkpt lat="45.03772" lon="1.0392">
        <ele>137.6</ele>
        <time>2022-08-17T17:07:22Z</time>
      </trkpt>
      <trkpt lat="45.03769" lon="1.03922">
        <ele>137.8</ele>
        <time>2022-08-17T17:07:24Z</time>
      </trkpt>
      <trkpt lat="45.03766" lon="1.03922">
        <ele>137.8</ele>
        <time>2022-08-17T17:07:26Z</time>
      </trkpt>
      <trkpt lat="45.03763" lon="1.03921">
        <ele>137.6</ele>
        <time>2022-08-17T17:07:28Z</time>
      </trkpt>
      <trkpt lat="45.0376" lon="1.03919">
        <ele>137.4</ele>
        <time>2022-08-17T17:07:30Z</time>
      </trkpt>
      <trkpt lat="45.03757" lon="1.0392">
        <ele>137.5</ele>
        <time>2022-08-17T17:07:32Z</time>
      </trkpt>
      <trkpt lat="45.03753" lon="1.0392">
        <ele>137.5</ele>
        <time>2022-08-17T17:07:34Z</time>
      </trkpt>
      <trkpt lat="45.0375" lon="1.03922">
        <ele>137.9</ele>
        <time>2022-08-17T17:07:36Z</time>
      </trkpt>
      <trkpt lat="45.03748" lon="1.03924">
        <ele>138.1</ele>
        <time>2022-08-17T17:07:38Z</time>
      </trkpt>
      <trkpt lat="45.03745" lon="1.03927">
        <ele>138.3</ele>
        <time>2022-08-17T17:07:40Z</time>
      </trkpt>
      <trkpt lat="45.03742" lon="1.0393">
        <ele>138.5</ele>
        <time>2022-08-17T17:07:42Z</time>
      </trkpt>
      <trkpt lat="45.0374" lon="1.03933">
        <ele>138.9</ele>
        <time>2022-08-17T17:07:44Z</time>
      </trkpt>
      <trkpt lat="45.03737" lon="1.03936">
        <ele>139.2</ele>
        <time>2022-08-17T17:07:46Z</time>
      </trkpt>
      <trkpt lat="45.03734" lon="1.03939">
        <ele>139.5</ele>
        <time>2022-08-17T17:07:48Z</time>
      </trkpt>
      <trkpt lat="45.03732" lon="1.03942">
        <ele>139.7</ele>
        <time>2022-08-17T17:07:50Z</time>
      </trkpt>
      <trkpt lat="45.0373" lon="1.03945">
        <ele>139.9</ele>
        <time>2022-08-17T17:07:52Z</time>
      </trkpt>
      <trkpt lat="45.03728" lon="1.03947">
        <ele>140.2</ele>
        <time>2022-08-17T17:07:54Z</time>
      </trkpt>
      <trkpt lat="45.03726" lon="1.0395">
        <ele>140.4</ele>
        <time>2022-08-17T17:07:56Z</time>
      </trkpt>
      <trkpt lat="45.03724" lon="1.03953">
        <ele>140.6</ele>
        <time>2022-08-17T17:07:58Z</time>
      </trkpt>
      <trkpt lat="45.03721" lon="1.03955">
        <ele>140.8</ele>
        <time>2022-08-17T17:08:00Z</time>
      </trkpt>
      <trkpt lat="45.03719" lon="1.03959">
        <ele>141.2</ele>
        <time>2022-08-17T17:08:02Z</time>
      </trkpt>
      <trkpt lat="45.03717" lon="1.03963">
        <ele>141.5</ele>
        <time>2022-08-17T17:08:04Z</time>
      </trkpt>
      <trkpt lat="45.03715" lon="1.03966">
        <ele>141.7</ele>
        <time>2022-08-17T17:08:06Z</time>
      </trkpt>
      <trkpt lat="45.03712" lon="1.03969">
        <ele>141.9</ele>
        <time>2022-08-17T17:08:08Z</time>
      </trkpt>
      <trkpt lat="45.03709" lon="1.03973">
        <ele>142.2</ele>
        <time>2022-08-17T17:08:10Z</time>
      </trkpt>
      <trkpt lat="45.03707" lon="1.03977">
        <ele>142.6</ele>
        <time>2022-08-17T17:08:12Z</time>
      </trkpt>
      <trkpt lat="45.03704" lon="1.03981">
        <ele>142.7</ele>
        <time>2022-08-17T17:08:14Z</time>
      </trkpt>
      <trkpt lat="45.03701" lon="1.03985">
        <ele>142.9</ele>
        <time>2022-08-17T17:08:16Z</time>
      </trkpt>
      <trkpt lat="45.03697" lon="1.03989">
        <ele>143.2</ele>
        <time>2022-08-17T17:08:18Z</time>
      </trkpt>
      <trkpt lat="45.03694" lon="1.03994">
        <ele>143.4</ele>
        <time>2022-08-17T17:08:20Z</time>
      </trkpt>
      <trkpt lat="45.0369" lon="1.03999">
        <ele>143.7</ele>
        <time>2022-08-17T17:08:22Z</time>
      </trkpt>
      <trkpt lat="45.03686" lon="1.04005">
        <ele>144.2</ele>
        <time>2022-08-17T17:08:24Z</time>
      </trkpt>
      <trkpt lat="45.03682" lon="1.04012">
        <ele>144.6</ele>
        <time>2022-08-17T17:08:26Z</time>
      </trkpt>
      <trkpt lat="45.03677" lon="1.04019">
        <ele>145.2</ele>
        <time>2022-08-17T17:08:28Z</time>
      </trkpt>
      <trkpt lat="45.03673" lon="1.04025">
        <ele>145.7</ele>
        <time>2022-08-17T17:08:30Z</time>
      </trkpt>
      <trkpt lat="45.03668" lon="1.04033">
        <ele>146.2</ele>
        <time>2022-08-17T17:08:32Z</time>
      </trkpt>
      <trkpt lat="45.03663" lon="1.04039">
        <ele>146.5</ele>
        <time>2022-08-17T17:08:34Z</time>
      </trkpt>
      <trkpt lat="45.03658" lon="1.04046">
        <ele>146.9</ele>
        <time>2022-08-17T17:08:36Z</time>
      </trkpt>
      <trkpt lat="45.03654" lon="1.04052">
        <ele>147.2</ele>
        <time>2022-08-17T17:08:38Z</time>
      </trkpt>
      <trkpt lat="45.0365" lon="1.04057">
        <ele>147.3</ele>
        <time>2022-08-17T17:08:40Z</time>
      </trkpt>
      <trkpt lat="45.03647" lon="1.04062">
        <ele>147.5</ele>
        <time>2022-08-17T17:08:42Z</time>
      </trkpt>
      <trkpt lat="45.03643" lon="1.04067">
        <ele>147.7</ele>
        <time>2022-08-17T17:08:44Z</time>
      </trkpt>
      <trkpt lat="45.03639" lon="1.0407">
        <ele>147.4</ele>
        <time>2022-08-17T17:08:46Z</time>
      </trkpt>
      <trkpt lat="45.03635" lon="1.04075">
        <ele>147.5</ele>
        <time>2022-08-17T17:08:48Z</time>
      </trkpt>
      <trkpt lat="45.03632" lon="1.0408">
        <ele>147.7</ele>
        <time>2022-08-17T17:08:50Z</time>
      </trkpt>
      <trkpt lat="45.03629" lon="1.04085">
        <ele>147.8</ele>
        <time>2022-08-17T17:08:52Z</time>
      </trkpt>
      <trkpt lat="45.03625" lon="1.0409">
        <ele>148</ele>
        <time>2022-08-17T17:08:54Z</time>
      </trkpt>
      <trkpt lat="45.03622" lon="1.04094">
        <ele>148.3</ele>
        <time>2022-08-17T17:08:56Z</time>
      </trkpt>
      <trkpt lat="45.03621" lon="1.04099">
        <ele>148.7</ele>
        <time>2022-08-17T17:08:58Z</time>
      </trkpt>
      <trkpt lat="45.03618" lon="1.04102">
        <ele>148.9</ele>
        <time>2022-08-17T17:09:00Z</time>
      </trkpt>
      <trkpt lat="45.03617" lon="1.04105">
        <ele>149</ele>
        <time>2022-08-17T17:09:02Z</time>
      </trkpt>
      <trkpt lat="45.03618" lon="1.04105">
        <ele>149.1</ele>
        <time>2022-08-17T17:09:04Z</time>
      </trkpt>
      <trkpt lat="45.03617" lon="1.04105">
        <ele>149.1</ele>
        <time>2022-08-17T17:09:06Z</time>
      </trkpt>
      <trkpt lat="45.03617" lon="1.04105">
        <ele>149.1</ele>
        <time>2022-08-17T17:09:08Z</time>
      </trkpt>
      <trkpt lat="45.03617" lon="1.04105">
        <ele>149.1</ele>
        <time>2022-08-17T17:09:10Z</time>
      </trkpt>
      <trkpt lat="45.03646" lon="1.04065">
        <ele>147.9</ele>
        <time>2022-08-17T17:15:52Z</time>
      </trkpt>
      <trkpt lat="45.03652" lon="1.04059">
        <ele>147.9</ele>
        <time>2022-08-17T17:15:54Z</time>
      </trkpt>
      <trkpt lat="45.03657" lon="1.04049">
        <ele>147.1</ele>
        <time>2022-08-17T17:15:56Z</time>
      </trkpt>
      <trkpt lat="45.03665" lon="1.04038">
        <ele>146.6</ele>
        <time>2022-08-17T17:15:58Z</time>
      </trkpt>
      <trkpt lat="45.03671" lon="1.04028">
        <ele>146</ele>
        <time>2022-08-17T17:16:00Z</time>
      </trkpt>
      <trkpt lat="45.03678" lon="1.04019">
        <ele>145.3</ele>
        <time>2022-08-17T17:16:02Z</time>
      </trkpt>
      <trkpt lat="45.03683" lon="1.04011">
        <ele>144.6</ele>
        <time>2022-08-17T17:16:04Z</time>
      </trkpt>
      <trkpt lat="45.03687" lon="1.04003">
        <ele>143.9</ele>
        <time>2022-08-17T17:16:06Z</time>
      </trkpt>
      <trkpt lat="45.03691" lon="1.03998">
        <ele>143.7</ele>
        <time>2022-08-17T17:16:08Z</time>
      </trkpt>
      <trkpt lat="45.03694" lon="1.03993">
        <ele>143.3</ele>
        <time>2022-08-17T17:16:10Z</time>
      </trkpt>
      <trkpt lat="45.03697" lon="1.03989">
        <ele>143.1</ele>
        <time>2022-08-17T17:16:12Z</time>
      </trkpt>
      <trkpt lat="45.037" lon="1.03983">
        <ele>142.7</ele>
        <time>2022-08-17T17:16:14Z</time>
      </trkpt>
      <trkpt lat="45.03705" lon="1.03978">
        <ele>142.4</ele>
        <time>2022-08-17T17:16:16Z</time>
      </trkpt>
      <trkpt lat="45.03708" lon="1.03972">
        <ele>142</ele>
        <time>2022-08-17T17:16:18Z</time>
      </trkpt>
      <trkpt lat="45.03712" lon="1.03967">
        <ele>141.7</ele>
        <time>2022-08-17T17:16:20Z</time>
      </trkpt>
      <trkpt lat="45.03717" lon="1.03962">
        <ele>141.3</ele>
        <time>2022-08-17T17:16:22Z</time>
      </trkpt>
      <trkpt lat="45.03721" lon="1.03954">
        <ele>140.6</ele>
        <time>2022-08-17T17:16:24Z</time>
      </trkpt>
      <trkpt lat="45.03727" lon="1.03949">
        <ele>140.3</ele>
        <time>2022-08-17T17:16:26Z</time>
      </trkpt>
      <trkpt lat="45.03733" lon="1.03942">
        <ele>139.8</ele>
        <time>2022-08-17T17:16:28Z</time>
      </trkpt>
      <trkpt lat="45.03737" lon="1.03935">
        <ele>139.1</ele>
        <time>2022-08-17T17:16:30Z</time>
      </trkpt>
      <trkpt lat="45.03743" lon="1.03928">
        <ele>138.4</ele>
        <time>2022-08-17T17:16:32Z</time>
      </trkpt>
      <trkpt lat="45.0375" lon="1.03922">
        <ele>137.9</ele>
        <time>2022-08-17T17:16:34Z</time>
      </trkpt>
      <trkpt lat="45.03759" lon="1.0392">
        <ele>137.5</ele>
        <time>2022-08-17T17:16:36Z</time>
      </trkpt>
      <trkpt lat="45.03768" lon="1.03921">
        <ele>137.7</ele>
        <time>2022-08-17T17:16:38Z</time>
      </trkpt>
      <trkpt lat="45.03777" lon="1.03924">
        <ele>138.1</ele>
        <time>2022-08-17T17:16:40Z</time>
      </trkpt>
      <trkpt lat="45.03784" lon="1.03924">
        <ele>138</ele>
        <time>2022-08-17T17:16:42Z</time>
      </trkpt>
      <trkpt lat="45.0379" lon="1.03922">
        <ele>137.8</ele>
        <time>2022-08-17T17:16:44Z</time>
      </trkpt>
      <trkpt lat="45.03793" lon="1.03918">
        <ele>137.2</ele>
        <time>2022-08-17T17:16:46Z</time>
      </trkpt>
      <trkpt lat="45.03794" lon="1.03917">
        <ele>137</ele>
        <time>2022-08-17T17:16:48Z</time>
      </trkpt>
      <trkpt lat="45.03796" lon="1.03916">
        <ele>137</ele>
        <time>2022-08-17T17:16:50Z</time>
      </trkpt>
      <trkpt lat="45.03796" lon="1.03916">
        <ele>137</ele>
        <time>2022-08-17T17:16:52Z</time>
      </trkpt>
      <trkpt lat="45.03796" lon="1.03916">
        <ele>136.9</ele>
        <time>2022-08-17T17:16:54Z</time>
      </trkpt>
      <trkpt lat="45.03796" lon="1.03916">
        <ele>137</ele>
        <time>2022-08-17T17:16:56Z</time>
      </trkpt>
      <trkpt lat="45.03789" lon="1.039">
        <ele>135.3</ele>
        <time>2022-08-17T17:17:32Z</time>
      </trkpt>
      <trkpt lat="45.03782" lon="1.03896">
        <ele>134.7</ele>
        <time>2022-08-17T17:17:34Z</time>
      </trkpt>
      <trkpt lat="45.03775" lon="1.0389">
        <ele>133.9</ele>
        <time>2022-08-17T17:17:36Z</time>
      </trkpt>
      <trkpt lat="45.03768" lon="1.03886">
        <ele>133.1</ele>
        <time>2022-08-17T17:17:38Z</time>
      </trkpt>
      <trkpt lat="45.03763" lon="1.03882">
        <ele>132.5</ele>
        <time>2022-08-17T17:17:40Z</time>
      </trkpt>
      <trkpt lat="45.03757" lon="1.0388">
        <ele>132</ele>
        <time>2022-08-17T17:17:42Z</time>
      </trkpt>
      <trkpt lat="45.0375" lon="1.0388">
        <ele>131.8</ele>
        <time>2022-08-17T17:17:44Z</time>
      </trkpt>
      <trkpt lat="45.03745" lon="1.03881">
        <ele>131.5</ele>
        <time>2022-08-17T17:17:46Z</time>
      </trkpt>
      <trkpt lat="45.03738" lon="1.03881">
        <ele>131.2</ele>
        <time>2022-08-17T17:17:48Z</time>
      </trkpt>
      <trkpt lat="45.03734" lon="1.03882">
        <ele>131.1</ele>
        <time>2022-08-17T17:17:50Z</time>
      </trkpt>
      <trkpt lat="45.03732" lon="1.03882">
        <ele>131</ele>
        <time>2022-08-17T17:17:52Z</time>
      </trkpt>
      <trkpt lat="45.03732" lon="1.03881">
        <ele>130.9</ele>
        <time>2022-08-17T17:17:54Z</time>
      </trkpt>
      <trkpt lat="45.03733" lon="1.03881">
        <ele>130.9</ele>
        <time>2022-08-17T17:17:56Z</time>
      </trkpt>
      <trkpt lat="45.03733" lon="1.03881">
        <ele>130.9</ele>
        <time>2022-08-17T17:18:00Z</time>
      </trkpt>
      <trkpt lat="45.03707" lon="1.03884">
        <ele>129.8</ele>
        <time>2022-08-17T17:26:00Z</time>
      </trkpt>
      <trkpt lat="45.03699" lon="1.03881">
        <ele>128.9</ele>
        <time>2022-08-17T17:26:02Z</time>
      </trkpt>
      <trkpt lat="45.03691" lon="1.03876">
        <ele>127.9</ele>
        <time>2022-08-17T17:26:04Z</time>
      </trkpt>
      <trkpt lat="45.03691" lon="1.03863">
        <ele>126.4</ele>
        <time>2022-08-17T17:26:06Z</time>
      </trkpt>
      <trkpt lat="45.03699" lon="1.03853">
        <ele>125.6</ele>
        <time>2022-08-17T17:26:08Z</time>
      </trkpt>
      <trkpt lat="45.03708" lon="1.03844">
        <ele>124.8</ele>
        <time>2022-08-17T17:26:10Z</time>
      </trkpt>
      <trkpt lat="45.03717" lon="1.03833">
        <ele>123.7</ele>
        <time>2022-08-17T17:26:12Z</time>
      </trkpt>
      <trkpt lat="45.03727" lon="1.03819">
        <ele>122.3</ele>
        <time>2022-08-17T17:26:14Z</time>
      </trkpt>
      <trkpt lat="45.03738" lon="1.03807">
        <ele>121.2</ele>
        <time>2022-08-17T17:26:16Z</time>
      </trkpt>
      <trkpt lat="45.03748" lon="1.03794">
        <ele>120.2</ele>
        <time>2022-08-17T17:26:18Z</time>
      </trkpt>
      <trkpt lat="45.0376" lon="1.03783">
        <ele>119.7</ele>
        <time>2022-08-17T17:26:20Z</time>
      </trkpt>
      <trkpt lat="45.03772" lon="1.03771">
        <ele>119.3</ele>
        <time>2022-08-17T17:26:22Z</time>
      </trkpt>
      <trkpt lat="45.03784" lon="1.0376">
        <ele>118.6</ele>
        <time>2022-08-17T17:26:24Z</time>
      </trkpt>
      <trkpt lat="45.03794" lon="1.0375">
        <ele>118.1</ele>
        <time>2022-08-17T17:26:26Z</time>
      </trkpt>
      <trkpt lat="45.03802" lon="1.03738">
        <ele>117.4</ele>
        <time>2022-08-17T17:26:28Z</time>
      </trkpt>
      <trkpt lat="45.03808" lon="1.03726">
        <ele>116.5</ele>
        <time>2022-08-17T17:26:30Z</time>
      </trkpt>
      <trkpt lat="45.03812" lon="1.03717">
        <ele>115.7</ele>
        <time>2022-08-17T17:26:32Z</time>
      </trkpt>
      <trkpt lat="45.03816" lon="1.03711">
        <ele>115.2</ele>
        <time>2022-08-17T17:26:34Z</time>
      </trkpt>
      <trkpt lat="45.03821" lon="1.03705">
        <ele>114.9</ele>
        <time>2022-08-17T17:26:36Z</time>
      </trkpt>
      <trkpt lat="45.03829" lon="1.037">
        <ele>114.8</ele>
        <time>2022-08-17T17:26:38Z</time>
      </trkpt>
      <trkpt lat="45.03836" lon="1.03694">
        <ele>114.5</ele>
        <time>2022-08-17T17:26:40Z</time>
      </trkpt>
      <trkpt lat="45.03843" lon="1.0369">
        <ele>114.7</ele>
        <time>2022-08-17T17:26:42Z</time>
      </trkpt>
      <trkpt lat="45.03848" lon="1.03684">
        <ele>114.7</ele>
        <time>2022-08-17T17:26:44Z</time>
      </trkpt>
      <trkpt lat="45.03854" lon="1.03678">
        <ele>114.7</ele>
        <time>2022-08-17T17:26:46Z</time>
      </trkpt>
      <trkpt lat="45.03858" lon="1.03672">
        <ele>114.7</ele>
        <time>2022-08-17T17:26:48Z</time>
      </trkpt>
      <trkpt lat="45.03862" lon="1.03667">
        <ele>114.8</ele>
        <time>2022-08-17T17:26:50Z</time>
      </trkpt>
      <trkpt lat="45.03864" lon="1.03665">
        <ele>114.9</ele>
        <time>2022-08-17T17:26:52Z</time>
      </trkpt>
      <trkpt lat="45.03864" lon="1.03664">
        <ele>114.8</ele>
        <time>2022-08-17T17:26:54Z</time>
      </trkpt>
      <trkpt lat="45.03863" lon="1.03664">
        <ele>114.8</ele>
        <time>2022-08-17T17:26:56Z</time>
      </trkpt>
      <trkpt lat="45.03863" lon="1.03664">
        <ele>114.7</ele>
        <time>2022-08-17T17:26:58Z</time>
      </trkpt>
      <trkpt lat="45.03863" lon="1.03663">
        <ele>114.7</ele>
        <time>2022-08-17T17:27:00Z</time>
      </trkpt>
      <trkpt lat="45.03876" lon="1.03642">
        <ele>115</ele>
        <time>2022-08-17T17:27:08Z</time>
      </trkpt>
      <trkpt lat="45.03878" lon="1.03633">
        <ele>114.7</ele>
        <time>2022-08-17T17:27:10Z</time>
      </trkpt>
      <trkpt lat="45.03881" lon="1.03623">
        <ele>114.4</ele>
        <time>2022-08-17T17:27:12Z</time>
      </trkpt>
      <trkpt lat="45.03886" lon="1.03615">
        <ele>114.4</ele>
        <time>2022-08-17T17:27:14Z</time>
      </trkpt>
      <trkpt lat="45.03891" lon="1.03606">
        <ele>114.5</ele>
        <time>2022-08-17T17:27:16Z</time>
      </trkpt>
      <trkpt lat="45.03896" lon="1.03599">
        <ele>114.6</ele>
        <time>2022-08-17T17:27:18Z</time>
      </trkpt>
      <trkpt lat="45.03902" lon="1.03591">
        <ele>114.8</ele>
        <time>2022-08-17T17:27:20Z</time>
      </trkpt>
      <trkpt lat="45.03908" lon="1.03584">
        <ele>115.1</ele>
        <time>2022-08-17T17:27:22Z</time>
      </trkpt>
      <trkpt lat="45.03915" lon="1.03578">
        <ele>115</ele>
        <time>2022-08-17T17:27:24Z</time>
      </trkpt>
      <trkpt lat="45.03921" lon="1.03572">
        <ele>115.3</ele>
        <time>2022-08-17T17:27:26Z</time>
      </trkpt>
      <trkpt lat="45.03928" lon="1.03567">
        <ele>115.6</ele>
        <time>2022-08-17T17:27:28Z</time>
      </trkpt>
      <trkpt lat="45.03934" lon="1.03561">
        <ele>115.7</ele>
        <time>2022-08-17T17:27:30Z</time>
      </trkpt>
      <trkpt lat="45.03941" lon="1.03557">
        <ele>116</ele>
        <time>2022-08-17T17:27:32Z</time>
      </trkpt>
      <trkpt lat="45.03947" lon="1.03552">
        <ele>116.3</ele>
        <time>2022-08-17T17:27:34Z</time>
      </trkpt>
      <trkpt lat="45.03954" lon="1.03546">
        <ele>116.4</ele>
        <time>2022-08-17T17:27:36Z</time>
      </trkpt>
      <trkpt lat="45.03961" lon="1.03541">
        <ele>116.5</ele>
        <time>2022-08-17T17:27:38Z</time>
      </trkpt>
      <trkpt lat="45.03968" lon="1.03536">
        <ele>116.6</ele>
        <time>2022-08-17T17:27:40Z</time>
      </trkpt>
      <trkpt lat="45.03975" lon="1.0353">
        <ele>116.5</ele>
        <time>2022-08-17T17:27:42Z</time>
      </trkpt>
      <trkpt lat="45.03982" lon="1.03525">
        <ele>116.5</ele>
        <time>2022-08-17T17:27:44Z</time>
      </trkpt>
      <trkpt lat="45.03989" lon="1.0352">
        <ele>116.4</ele>
        <time>2022-08-17T17:27:46Z</time>
      </trkpt>
      <trkpt lat="45.03996" lon="1.03515">
        <ele>116.4</ele>
        <time>2022-08-17T17:27:48Z</time>
      </trkpt>
      <trkpt lat="45.04003" lon="1.0351">
        <ele>116.5</ele>
        <time>2022-08-17T17:27:50Z</time>
      </trkpt>
      <trkpt lat="45.0401" lon="1.03505">
        <ele>116.9</ele>
        <time>2022-08-17T17:27:52Z</time>
      </trkpt>
      <trkpt lat="45.04017" lon="1.035">
        <ele>117.4</ele>
        <time>2022-08-17T17:27:54Z</time>
      </trkpt>
      <trkpt lat="45.04024" lon="1.03493">
        <ele>117.9</ele>
        <time>2022-08-17T17:27:56Z</time>
      </trkpt>
      <trkpt lat="45.04031" lon="1.03488">
        <ele>118.5</ele>
        <time>2022-08-17T17:27:58Z</time>
      </trkpt>
      <trkpt lat="45.04038" lon="1.03483">
        <ele>119.1</ele>
        <time>2022-08-17T17:28:00Z</time>
      </trkpt>
      <trkpt lat="45.04045" lon="1.03477">
        <ele>119.5</ele>
        <time>2022-08-17T17:28:02Z</time>
      </trkpt>
      <trkpt lat="45.04052" lon="1.03472">
        <ele>119.8</ele>
        <time>2022-08-17T17:28:04Z</time>
      </trkpt>
      <trkpt lat="45.04059" lon="1.03466">
        <ele>119.8</ele>
        <time>2022-08-17T17:28:06Z</time>
      </trkpt>
      <trkpt lat="45.04065" lon="1.03461">
        <ele>119.9</ele>
        <time>2022-08-17T17:28:08Z</time>
      </trkpt>
      <trkpt lat="45.04072" lon="1.03456">
        <ele>120</ele>
        <time>2022-08-17T17:28:10Z</time>
      </trkpt>
      <trkpt lat="45.04079" lon="1.03452">
        <ele>119.9</ele>
        <time>2022-08-17T17:28:12Z</time>
      </trkpt>
      <trkpt lat="45.04085" lon="1.03447">
        <ele>119.9</ele>
        <time>2022-08-17T17:28:14Z</time>
      </trkpt>
      <trkpt lat="45.04092" lon="1.03442">
        <ele>119.9</ele>
        <time>2022-08-17T17:28:16Z</time>
      </trkpt>
      <trkpt lat="45.04098" lon="1.03438">
        <ele>119.9</ele>
        <time>2022-08-17T17:28:18Z</time>
      </trkpt>
      <trkpt lat="45.04105" lon="1.03433">
        <ele>120</ele>
        <time>2022-08-17T17:28:20Z</time>
      </trkpt>
      <trkpt lat="45.04111" lon="1.03429">
        <ele>120</ele>
        <time>2022-08-17T17:28:22Z</time>
      </trkpt>
      <trkpt lat="45.04118" lon="1.03424">
        <ele>120</ele>
        <time>2022-08-17T17:28:24Z</time>
      </trkpt>
      <trkpt lat="45.04124" lon="1.03419">
        <ele>119.8</ele>
        <time>2022-08-17T17:28:26Z</time>
      </trkpt>
      <trkpt lat="45.04131" lon="1.03414">
        <ele>120</ele>
        <time>2022-08-17T17:28:28Z</time>
      </trkpt>
      <trkpt lat="45.04138" lon="1.0341">
        <ele>120.4</ele>
        <time>2022-08-17T17:28:30Z</time>
      </trkpt>
      <trkpt lat="45.04145" lon="1.03405">
        <ele>120.5</ele>
        <time>2022-08-17T17:28:32Z</time>
      </trkpt>
      <trkpt lat="45.04151" lon="1.03399">
        <ele>120.4</ele>
        <time>2022-08-17T17:28:34Z</time>
      </trkpt>
      <trkpt lat="45.04158" lon="1.03395">
        <ele>120.5</ele>
        <time>2022-08-17T17:28:36Z</time>
      </trkpt>
      <trkpt lat="45.04165" lon="1.03389">
        <ele>120.3</ele>
        <time>2022-08-17T17:28:38Z</time>
      </trkpt>
      <trkpt lat="45.04172" lon="1.03385">
        <ele>120.6</ele>
        <time>2022-08-17T17:28:40Z</time>
      </trkpt>
      <trkpt lat="45.0418" lon="1.0338">
        <ele>121.1</ele>
        <time>2022-08-17T17:28:42Z</time>
      </trkpt>
      <trkpt lat="45.04187" lon="1.03376">
        <ele>121.6</ele>
        <time>2022-08-17T17:28:44Z</time>
      </trkpt>
      <trkpt lat="45.04195" lon="1.0337">
        <ele>121.9</ele>
        <time>2022-08-17T17:28:46Z</time>
      </trkpt>
      <trkpt lat="45.04202" lon="1.03365">
        <ele>122.1</ele>
        <time>2022-08-17T17:28:48Z</time>
      </trkpt>
      <trkpt lat="45.04209" lon="1.0336">
        <ele>122.5</ele>
        <time>2022-08-17T17:28:50Z</time>
      </trkpt>
      <trkpt lat="45.04216" lon="1.03354">
        <ele>122.6</ele>
        <time>2022-08-17T17:28:52Z</time>
      </trkpt>
      <trkpt lat="45.04223" lon="1.03349">
        <ele>122.6</ele>
        <time>2022-08-17T17:28:54Z</time>
      </trkpt>
      <trkpt lat="45.0423" lon="1.03343">
        <ele>122.6</ele>
        <time>2022-08-17T17:28:56Z</time>
      </trkpt>
      <trkpt lat="45.04238" lon="1.03337">
        <ele>122.7</ele>
        <time>2022-08-17T17:28:58Z</time>
      </trkpt>
      <trkpt lat="45.04245" lon="1.03331">
        <ele>122.7</ele>
        <time>2022-08-17T17:29:00Z</time>
      </trkpt>
      <trkpt lat="45.04253" lon="1.03326">
        <ele>123</ele>
        <time>2022-08-17T17:29:02Z</time>
      </trkpt>
      <trkpt lat="45.0426" lon="1.0332">
        <ele>122.9</ele>
        <time>2022-08-17T17:29:04Z</time>
      </trkpt>
      <trkpt lat="45.04268" lon="1.03315">
        <ele>123</ele>
        <time>2022-08-17T17:29:06Z</time>
      </trkpt>
      <trkpt lat="45.04275" lon="1.03309">
        <ele>123</ele>
        <time>2022-08-17T17:29:08Z</time>
      </trkpt>
      <trkpt lat="45.04282" lon="1.03304">
        <ele>122.9</ele>
        <time>2022-08-17T17:29:10Z</time>
      </trkpt>
      <trkpt lat="45.0429" lon="1.03299">
        <ele>123</ele>
        <time>2022-08-17T17:29:12Z</time>
      </trkpt>
      <trkpt lat="45.04298" lon="1.03294">
        <ele>123.2</ele>
        <time>2022-08-17T17:29:14Z</time>
      </trkpt>
      <trkpt lat="45.04305" lon="1.03289">
        <ele>123.3</ele>
        <time>2022-08-17T17:29:16Z</time>
      </trkpt>
      <trkpt lat="45.04313" lon="1.03284">
        <ele>123.5</ele>
        <time>2022-08-17T17:29:18Z</time>
      </trkpt>
      <trkpt lat="45.0432" lon="1.03279">
        <ele>123.5</ele>
        <time>2022-08-17T17:29:20Z</time>
      </trkpt>
      <trkpt lat="45.04329" lon="1.03275">
        <ele>123.9</ele>
        <time>2022-08-17T17:29:22Z</time>
      </trkpt>
      <trkpt lat="45.04336" lon="1.0327">
        <ele>123.9</ele>
        <time>2022-08-17T17:29:24Z</time>
      </trkpt>
      <trkpt lat="45.04345" lon="1.03266">
        <ele>123.9</ele>
        <time>2022-08-17T17:29:26Z</time>
      </trkpt>
      <trkpt lat="45.04352" lon="1.03261">
        <ele>123.8</ele>
        <time>2022-08-17T17:29:28Z</time>
      </trkpt>
      <trkpt lat="45.0436" lon="1.03256">
        <ele>123.6</ele>
        <time>2022-08-17T17:29:30Z</time>
      </trkpt>
      <trkpt lat="45.04367" lon="1.03251">
        <ele>123.5</ele>
        <time>2022-08-17T17:29:32Z</time>
      </trkpt>
      <trkpt lat="45.04375" lon="1.03248">
        <ele>123.6</ele>
        <time>2022-08-17T17:29:34Z</time>
      </trkpt>
      <trkpt lat="45.04383" lon="1.03244">
        <ele>123.8</ele>
        <time>2022-08-17T17:29:36Z</time>
      </trkpt>
      <trkpt lat="45.04391" lon="1.0324">
        <ele>123.8</ele>
        <time>2022-08-17T17:29:38Z</time>
      </trkpt>
      <trkpt lat="45.04399" lon="1.03237">
        <ele>123.8</ele>
        <time>2022-08-17T17:29:40Z</time>
      </trkpt>
      <trkpt lat="45.04407" lon="1.03233">
        <ele>123.6</ele>
        <time>2022-08-17T17:29:42Z</time>
      </trkpt>
      <trkpt lat="45.04415" lon="1.03229">
        <ele>123.6</ele>
        <time>2022-08-17T17:29:44Z</time>
      </trkpt>
      <trkpt lat="45.04422" lon="1.03225">
        <ele>123.4</ele>
        <time>2022-08-17T17:29:46Z</time>
      </trkpt>
      <trkpt lat="45.0443" lon="1.03222">
        <ele>123.4</ele>
        <time>2022-08-17T17:29:48Z</time>
      </trkpt>
      <trkpt lat="45.04438" lon="1.03218">
        <ele>123.1</ele>
        <time>2022-08-17T17:29:50Z</time>
      </trkpt>
      <trkpt lat="45.04446" lon="1.03214">
        <ele>123</ele>
        <time>2022-08-17T17:29:52Z</time>
      </trkpt>
      <trkpt lat="45.04454" lon="1.0321">
        <ele>122.8</ele>
        <time>2022-08-17T17:29:54Z</time>
      </trkpt>
      <trkpt lat="45.04463" lon="1.03206">
        <ele>122.7</ele>
        <time>2022-08-17T17:29:56Z</time>
      </trkpt>
      <trkpt lat="45.04472" lon="1.03203">
        <ele>122.7</ele>
        <time>2022-08-17T17:29:58Z</time>
      </trkpt>
      <trkpt lat="45.04481" lon="1.03198">
        <ele>122.4</ele>
        <time>2022-08-17T17:30:00Z</time>
      </trkpt>
      <trkpt lat="45.04491" lon="1.03194">
        <ele>122.3</ele>
        <time>2022-08-17T17:30:02Z</time>
      </trkpt>
      <trkpt lat="45.04501" lon="1.0319">
        <ele>122.1</ele>
        <time>2022-08-17T17:30:04Z</time>
      </trkpt>
      <trkpt lat="45.0451" lon="1.03186">
        <ele>121.7</ele>
        <time>2022-08-17T17:30:06Z</time>
      </trkpt>
      <trkpt lat="45.0452" lon="1.03183">
        <ele>121.3</ele>
        <time>2022-08-17T17:30:08Z</time>
      </trkpt>
      <trkpt lat="45.0453" lon="1.03179">
        <ele>121</ele>
        <time>2022-08-17T17:30:10Z</time>
      </trkpt>
      <trkpt lat="45.04541" lon="1.03175">
        <ele>120.7</ele>
        <time>2022-08-17T17:30:12Z</time>
      </trkpt>
      <trkpt lat="45.04551" lon="1.03172">
        <ele>120.5</ele>
        <time>2022-08-17T17:30:14Z</time>
      </trkpt>
      <trkpt lat="45.04561" lon="1.03168">
        <ele>120.2</ele>
        <time>2022-08-17T17:30:16Z</time>
      </trkpt>
      <trkpt lat="45.04572" lon="1.03164">
        <ele>120</ele>
        <time>2022-08-17T17:30:18Z</time>
      </trkpt>
      <trkpt lat="45.04582" lon="1.0316">
        <ele>120</ele>
        <time>2022-08-17T17:30:20Z</time>
      </trkpt>
      <trkpt lat="45.04593" lon="1.03157">
        <ele>119.3</ele>
        <time>2022-08-17T17:30:22Z</time>
      </trkpt>
      <trkpt lat="45.04604" lon="1.03152">
        <ele>118.3</ele>
        <time>2022-08-17T17:30:24Z</time>
      </trkpt>
      <trkpt lat="45.04616" lon="1.03146">
        <ele>117.3</ele>
        <time>2022-08-17T17:30:26Z</time>
      </trkpt>
      <trkpt lat="45.04626" lon="1.03138">
        <ele>116.2</ele>
        <time>2022-08-17T17:30:28Z</time>
      </trkpt>
      <trkpt lat="45.04637" lon="1.03129">
        <ele>115.1</ele>
        <time>2022-08-17T17:30:30Z</time>
      </trkpt>
      <trkpt lat="45.04648" lon="1.03117">
        <ele>113.9</ele>
        <time>2022-08-17T17:30:32Z</time>
      </trkpt>
      <trkpt lat="45.04656" lon="1.03104">
        <ele>112.6</ele>
        <time>2022-08-17T17:30:34Z</time>
      </trkpt>
      <trkpt lat="45.04664" lon="1.03088">
        <ele>111.3</ele>
        <time>2022-08-17T17:30:36Z</time>
      </trkpt>
      <trkpt lat="45.0467" lon="1.03071">
        <ele>111.6</ele>
        <time>2022-08-17T17:30:38Z</time>
      </trkpt>
      <trkpt lat="45.04673" lon="1.03053">
        <ele>112.5</ele>
        <time>2022-08-17T17:30:40Z</time>
      </trkpt>
      <trkpt lat="45.04675" lon="1.03035">
        <ele>113.4</ele>
        <time>2022-08-17T17:30:42Z</time>
      </trkpt>
      <trkpt lat="45.04677" lon="1.03016">
        <ele>114.4</ele>
        <time>2022-08-17T17:30:44Z</time>
      </trkpt>
      <trkpt lat="45.04678" lon="1.02998">
        <ele>115.3</ele>
        <time>2022-08-17T17:30:46Z</time>
      </trkpt>
      <trkpt lat="45.0468" lon="1.02981">
        <ele>115.1</ele>
        <time>2022-08-17T17:30:48Z</time>
      </trkpt>
      <trkpt lat="45.04682" lon="1.02965">
        <ele>115.1</ele>
        <time>2022-08-17T17:30:50Z</time>
      </trkpt>
      <trkpt lat="45.04686" lon="1.0295">
        <ele>115.4</ele>
        <time>2022-08-17T17:30:52Z</time>
      </trkpt>
      <trkpt lat="45.04691" lon="1.02936">
        <ele>115.7</ele>
        <time>2022-08-17T17:30:54Z</time>
      </trkpt>
      <trkpt lat="45.04697" lon="1.02923">
        <ele>116.3</ele>
        <time>2022-08-17T17:30:56Z</time>
      </trkpt>
      <trkpt lat="45.04703" lon="1.02912">
        <ele>116.8</ele>
        <time>2022-08-17T17:30:58Z</time>
      </trkpt>
      <trkpt lat="45.0471" lon="1.02902">
        <ele>117.2</ele>
        <time>2022-08-17T17:31:00Z</time>
      </trkpt>
      <trkpt lat="45.04717" lon="1.02892">
        <ele>117.5</ele>
        <time>2022-08-17T17:31:02Z</time>
      </trkpt>
      <trkpt lat="45.04725" lon="1.02885">
        <ele>117.8</ele>
        <time>2022-08-17T17:31:04Z</time>
      </trkpt>
      <trkpt lat="45.04732" lon="1.02878">
        <ele>118</ele>
        <time>2022-08-17T17:31:06Z</time>
      </trkpt>
      <trkpt lat="45.0474" lon="1.02871">
        <ele>118</ele>
        <time>2022-08-17T17:31:08Z</time>
      </trkpt>
      <trkpt lat="45.04748" lon="1.02864">
        <ele>117.9</ele>
        <time>2022-08-17T17:31:10Z</time>
      </trkpt>
      <trkpt lat="45.04755" lon="1.02857">
        <ele>118</ele>
        <time>2022-08-17T17:31:12Z</time>
      </trkpt>
      <trkpt lat="45.04763" lon="1.02851">
        <ele>118.3</ele>
        <time>2022-08-17T17:31:14Z</time>
      </trkpt>
      <trkpt lat="45.04771" lon="1.02844">
        <ele>118.6</ele>
        <time>2022-08-17T17:31:16Z</time>
      </trkpt>
      <trkpt lat="45.04779" lon="1.02837">
        <ele>118.9</ele>
        <time>2022-08-17T17:31:18Z</time>
      </trkpt>
      <trkpt lat="45.04786" lon="1.0283">
        <ele>119.3</ele>
        <time>2022-08-17T17:31:20Z</time>
      </trkpt>
      <trkpt lat="45.04793" lon="1.02823">
        <ele>119.8</ele>
        <time>2022-08-17T17:31:22Z</time>
      </trkpt>
      <trkpt lat="45.048" lon="1.02816">
        <ele>120</ele>
        <time>2022-08-17T17:31:24Z</time>
      </trkpt>
      <trkpt lat="45.04808" lon="1.0281">
        <ele>120.4</ele>
        <time>2022-08-17T17:31:26Z</time>
      </trkpt>
      <trkpt lat="45.04815" lon="1.02804">
        <ele>120.5</ele>
        <time>2022-08-17T17:31:28Z</time>
      </trkpt>
      <trkpt lat="45.04823" lon="1.02797">
        <ele>120.6</ele>
        <time>2022-08-17T17:31:30Z</time>
      </trkpt>
      <trkpt lat="45.0483" lon="1.02791">
        <ele>120.5</ele>
        <time>2022-08-17T17:31:32Z</time>
      </trkpt>
      <trkpt lat="45.04837" lon="1.02785">
        <ele>120.4</ele>
        <time>2022-08-17T17:31:34Z</time>
      </trkpt>
      <trkpt lat="45.04844" lon="1.02778">
        <ele>119.9</ele>
        <time>2022-08-17T17:31:36Z</time>
      </trkpt>
      <trkpt lat="45.04851" lon="1.02772">
        <ele>119.7</ele>
        <time>2022-08-17T17:31:38Z</time>
      </trkpt>
      <trkpt lat="45.04858" lon="1.02766">
        <ele>119.4</ele>
        <time>2022-08-17T17:31:40Z</time>
      </trkpt>
      <trkpt lat="45.04865" lon="1.02759">
        <ele>118.8</ele>
        <time>2022-08-17T17:31:42Z</time>
      </trkpt>
      <trkpt lat="45.04872" lon="1.02753">
        <ele>118.3</ele>
        <time>2022-08-17T17:31:44Z</time>
      </trkpt>
      <trkpt lat="45.04879" lon="1.02748">
        <ele>118.1</ele>
        <time>2022-08-17T17:31:46Z</time>
      </trkpt>
      <trkpt lat="45.04885" lon="1.02741">
        <ele>118.1</ele>
        <time>2022-08-17T17:31:48Z</time>
      </trkpt>
      <trkpt lat="45.04892" lon="1.02735">
        <ele>118.1</ele>
        <time>2022-08-17T17:31:50Z</time>
      </trkpt>
      <trkpt lat="45.04899" lon="1.0273">
        <ele>118</ele>
        <time>2022-08-17T17:31:52Z</time>
      </trkpt>
      <trkpt lat="45.04906" lon="1.02724">
        <ele>117.7</ele>
        <time>2022-08-17T17:31:54Z</time>
      </trkpt>
      <trkpt lat="45.04913" lon="1.02718">
        <ele>117.4</ele>
        <time>2022-08-17T17:31:56Z</time>
      </trkpt>
      <trkpt lat="45.0492" lon="1.02712">
        <ele>117.2</ele>
        <time>2022-08-17T17:31:58Z</time>
      </trkpt>
      <trkpt lat="45.04927" lon="1.02705">
        <ele>117</ele>
        <time>2022-08-17T17:32:00Z</time>
      </trkpt>
      <trkpt lat="45.04934" lon="1.02699">
        <ele>116.9</ele>
        <time>2022-08-17T17:32:02Z</time>
      </trkpt>
      <trkpt lat="45.04941" lon="1.02692">
        <ele>116.6</ele>
        <time>2022-08-17T17:32:04Z</time>
      </trkpt>
      <trkpt lat="45.04948" lon="1.02686">
        <ele>116.2</ele>
        <time>2022-08-17T17:32:06Z</time>
      </trkpt>
      <trkpt lat="45.04955" lon="1.02679">
        <ele>115.7</ele>
        <time>2022-08-17T17:32:08Z</time>
      </trkpt>
      <trkpt lat="45.04962" lon="1.02673">
        <ele>115.2</ele>
        <time>2022-08-17T17:32:10Z</time>
      </trkpt>
      <trkpt lat="45.04969" lon="1.02668">
        <ele>114.7</ele>
        <time>2022-08-17T17:32:12Z</time>
      </trkpt>
      <trkpt lat="45.04975" lon="1.02661">
        <ele>114.8</ele>
        <time>2022-08-17T17:32:14Z</time>
      </trkpt>
      <trkpt lat="45.04982" lon="1.02656">
        <ele>115</ele>
        <time>2022-08-17T17:32:16Z</time>
      </trkpt>
      <trkpt lat="45.04989" lon="1.0265">
        <ele>115.2</ele>
        <time>2022-08-17T17:32:18Z</time>
      </trkpt>
      <trkpt lat="45.04996" lon="1.02644">
        <ele>115.3</ele>
        <time>2022-08-17T17:32:20Z</time>
      </trkpt>
      <trkpt lat="45.05003" lon="1.02637">
        <ele>115.4</ele>
        <time>2022-08-17T17:32:22Z</time>
      </trkpt>
      <trkpt lat="45.0501" lon="1.02632">
        <ele>115.4</ele>
        <time>2022-08-17T17:32:24Z</time>
      </trkpt>
      <trkpt lat="45.05017" lon="1.02626">
        <ele>115.3</ele>
        <time>2022-08-17T17:32:26Z</time>
      </trkpt>
      <trkpt lat="45.05023" lon="1.0262">
        <ele>115.2</ele>
        <time>2022-08-17T17:32:28Z</time>
      </trkpt>
      <trkpt lat="45.0503" lon="1.02614">
        <ele>115</ele>
        <time>2022-08-17T17:32:30Z</time>
      </trkpt>
      <trkpt lat="45.05036" lon="1.02608">
        <ele>114.8</ele>
        <time>2022-08-17T17:32:32Z</time>
      </trkpt>
      <trkpt lat="45.05043" lon="1.02602">
        <ele>114.5</ele>
        <time>2022-08-17T17:32:34Z</time>
      </trkpt>
      <trkpt lat="45.05049" lon="1.02597">
        <ele>114.2</ele>
        <time>2022-08-17T17:32:36Z</time>
      </trkpt>
      <trkpt lat="45.05055" lon="1.02591">
        <ele>113.8</ele>
        <time>2022-08-17T17:32:38Z</time>
      </trkpt>
      <trkpt lat="45.05061" lon="1.02586">
        <ele>113.4</ele>
        <time>2022-08-17T17:32:40Z</time>
      </trkpt>
      <trkpt lat="45.05067" lon="1.0258">
        <ele>113.3</ele>
        <time>2022-08-17T17:32:42Z</time>
      </trkpt>
      <trkpt lat="45.05074" lon="1.02575">
        <ele>113.4</ele>
        <time>2022-08-17T17:32:44Z</time>
      </trkpt>
      <trkpt lat="45.0508" lon="1.02569">
        <ele>113.5</ele>
        <time>2022-08-17T17:32:46Z</time>
      </trkpt>
      <trkpt lat="45.05086" lon="1.02564">
        <ele>113.8</ele>
        <time>2022-08-17T17:32:48Z</time>
      </trkpt>
      <trkpt lat="45.05092" lon="1.02559">
        <ele>114.2</ele>
        <time>2022-08-17T17:32:50Z</time>
      </trkpt>
      <trkpt lat="45.05098" lon="1.02554">
        <ele>114.7</ele>
        <time>2022-08-17T17:32:52Z</time>
      </trkpt>
      <trkpt lat="45.05104" lon="1.02548">
        <ele>115</ele>
        <time>2022-08-17T17:32:54Z</time>
      </trkpt>
      <trkpt lat="45.0511" lon="1.02543">
        <ele>115.4</ele>
        <time>2022-08-17T17:32:56Z</time>
      </trkpt>
      <trkpt lat="45.05116" lon="1.02537">
        <ele>115.8</ele>
        <time>2022-08-17T17:32:58Z</time>
      </trkpt>
      <trkpt lat="45.05123" lon="1.02532">
        <ele>116.2</ele>
        <time>2022-08-17T17:33:00Z</time>
      </trkpt>
      <trkpt lat="45.05129" lon="1.02526">
        <ele>116.5</ele>
        <time>2022-08-17T17:33:02Z</time>
      </trkpt>
      <trkpt lat="45.05136" lon="1.02521">
        <ele>116.8</ele>
        <time>2022-08-17T17:33:04Z</time>
      </trkpt>
      <trkpt lat="45.05142" lon="1.02515">
        <ele>117.1</ele>
        <time>2022-08-17T17:33:06Z</time>
      </trkpt>
      <trkpt lat="45.05148" lon="1.0251">
        <ele>117.4</ele>
        <time>2022-08-17T17:33:08Z</time>
      </trkpt>
      <trkpt lat="45.05154" lon="1.02504">
        <ele>117.6</ele>
        <time>2022-08-17T17:33:10Z</time>
      </trkpt>
      <trkpt lat="45.0516" lon="1.02499">
        <ele>117.8</ele>
        <time>2022-08-17T17:33:12Z</time>
      </trkpt>
      <trkpt lat="45.05166" lon="1.02493">
        <ele>118</ele>
        <time>2022-08-17T17:33:14Z</time>
      </trkpt>
      <trkpt lat="45.05172" lon="1.02488">
        <ele>118.2</ele>
        <time>2022-08-17T17:33:16Z</time>
      </trkpt>
      <trkpt lat="45.05178" lon="1.02482">
        <ele>118.4</ele>
        <time>2022-08-17T17:33:18Z</time>
      </trkpt>
      <trkpt lat="45.05184" lon="1.02478">
        <ele>118.7</ele>
        <time>2022-08-17T17:33:20Z</time>
      </trkpt>
      <trkpt lat="45.0519" lon="1.02472">
        <ele>118.9</ele>
        <time>2022-08-17T17:33:22Z</time>
      </trkpt>
      <trkpt lat="45.05196" lon="1.02467">
        <ele>119.2</ele>
        <time>2022-08-17T17:33:24Z</time>
      </trkpt>
      <trkpt lat="45.05202" lon="1.02462">
        <ele>119.5</ele>
        <time>2022-08-17T17:33:26Z</time>
      </trkpt>
      <trkpt lat="45.05208" lon="1.02457">
        <ele>119.7</ele>
        <time>2022-08-17T17:33:28Z</time>
      </trkpt>
      <trkpt lat="45.05214" lon="1.02451">
        <ele>120</ele>
        <time>2022-08-17T17:33:30Z</time>
      </trkpt>
      <trkpt lat="45.0522" lon="1.02446">
        <ele>120.3</ele>
        <time>2022-08-17T17:33:32Z</time>
      </trkpt>
      <trkpt lat="45.05226" lon="1.02441">
        <ele>120.6</ele>
        <time>2022-08-17T17:33:34Z</time>
      </trkpt>
      <trkpt lat="45.05233" lon="1.02437">
        <ele>121</ele>
        <time>2022-08-17T17:33:36Z</time>
      </trkpt>
      <trkpt lat="45.05239" lon="1.02433">
        <ele>121.3</ele>
        <time>2022-08-17T17:33:38Z</time>
      </trkpt>
      <trkpt lat="45.05246" lon="1.02428">
        <ele>121.7</ele>
        <time>2022-08-17T17:33:40Z</time>
      </trkpt>
      <trkpt lat="45.05252" lon="1.02424">
        <ele>121.9</ele>
        <time>2022-08-17T17:33:42Z</time>
      </trkpt>
      <trkpt lat="45.05258" lon="1.02419">
        <ele>121.9</ele>
        <time>2022-08-17T17:33:44Z</time>
      </trkpt>
      <trkpt lat="45.05264" lon="1.02414">
        <ele>121.8</ele>
        <time>2022-08-17T17:33:46Z</time>
      </trkpt>
      <trkpt lat="45.05271" lon="1.02409">
        <ele>121.7</ele>
        <time>2022-08-17T17:33:48Z</time>
      </trkpt>
      <trkpt lat="45.05277" lon="1.02404">
        <ele>121.6</ele>
        <time>2022-08-17T17:33:50Z</time>
      </trkpt>
      <trkpt lat="45.05283" lon="1.02399">
        <ele>121.5</ele>
        <time>2022-08-17T17:33:52Z</time>
      </trkpt>
      <trkpt lat="45.05289" lon="1.02393">
        <ele>121.4</ele>
        <time>2022-08-17T17:33:54Z</time>
      </trkpt>
      <trkpt lat="45.05295" lon="1.02387">
        <ele>121.3</ele>
        <time>2022-08-17T17:33:56Z</time>
      </trkpt>
      <trkpt lat="45.05301" lon="1.02383">
        <ele>121.2</ele>
        <time>2022-08-17T17:33:58Z</time>
      </trkpt>
      <trkpt lat="45.05308" lon="1.02378">
        <ele>121.2</ele>
        <time>2022-08-17T17:34:00Z</time>
      </trkpt>
      <trkpt lat="45.05314" lon="1.02374">
        <ele>121.1</ele>
        <time>2022-08-17T17:34:02Z</time>
      </trkpt>
      <trkpt lat="45.0532" lon="1.02369">
        <ele>121.1</ele>
        <time>2022-08-17T17:34:04Z</time>
      </trkpt>
      <trkpt lat="45.05327" lon="1.02365">
        <ele>121</ele>
        <time>2022-08-17T17:34:06Z</time>
      </trkpt>
      <trkpt lat="45.05333" lon="1.0236">
        <ele>121</ele>
        <time>2022-08-17T17:34:08Z</time>
      </trkpt>
      <trkpt lat="45.0534" lon="1.02356">
        <ele>121</ele>
        <time>2022-08-17T17:34:10Z</time>
      </trkpt>
      <trkpt lat="45.05346" lon="1.02351">
        <ele>121</ele>
        <time>2022-08-17T17:34:12Z</time>
      </trkpt>
      <trkpt lat="45.05352" lon="1.02346">
        <ele>121</ele>
        <time>2022-08-17T17:34:14Z</time>
      </trkpt>
      <trkpt lat="45.05359" lon="1.02341">
        <ele>121</ele>
        <time>2022-08-17T17:34:16Z</time>
      </trkpt>
      <trkpt lat="45.05365" lon="1.02336">
        <ele>121</ele>
        <time>2022-08-17T17:34:18Z</time>
      </trkpt>
      <trkpt lat="45.05371" lon="1.02331">
        <ele>121.1</ele>
        <time>2022-08-17T17:34:20Z</time>
      </trkpt>
      <trkpt lat="45.05377" lon="1.02327">
        <ele>121.3</ele>
        <time>2022-08-17T17:34:22Z</time>
      </trkpt>
      <trkpt lat="45.05383" lon="1.02322">
        <ele>121.5</ele>
        <time>2022-08-17T17:34:24Z</time>
      </trkpt>
      <trkpt lat="45.05389" lon="1.02317">
        <ele>121.7</ele>
        <time>2022-08-17T17:34:26Z</time>
      </trkpt>
      <trkpt lat="45.05395" lon="1.02312">
        <ele>121.9</ele>
        <time>2022-08-17T17:34:28Z</time>
      </trkpt>
      <trkpt lat="45.05401" lon="1.02306">
        <ele>122.1</ele>
        <time>2022-08-17T17:34:30Z</time>
      </trkpt>
      <trkpt lat="45.05406" lon="1.02301">
        <ele>122.2</ele>
        <time>2022-08-17T17:34:32Z</time>
      </trkpt>
      <trkpt lat="45.05411" lon="1.02296">
        <ele>122.4</ele>
        <time>2022-08-17T17:34:34Z</time>
      </trkpt>
      <trkpt lat="45.05417" lon="1.02291">
        <ele>122.5</ele>
        <time>2022-08-17T17:34:36Z</time>
      </trkpt>
      <trkpt lat="45.05421" lon="1.02287">
        <ele>123</ele>
        <time>2022-08-17T17:34:38Z</time>
      </trkpt>
      <trkpt lat="45.05427" lon="1.02283">
        <ele>123.5</ele>
        <time>2022-08-17T17:34:40Z</time>
      </trkpt>
      <trkpt lat="45.05431" lon="1.02282">
        <ele>124</ele>
        <time>2022-08-17T17:34:42Z</time>
      </trkpt>
      <trkpt lat="45.05437" lon="1.02281">
        <ele>124.5</ele>
        <time>2022-08-17T17:34:44Z</time>
      </trkpt>
      <trkpt lat="45.05443" lon="1.02282">
        <ele>124.9</ele>
        <time>2022-08-17T17:34:46Z</time>
      </trkpt>
      <trkpt lat="45.05449" lon="1.02283">
        <ele>125.2</ele>
        <time>2022-08-17T17:34:48Z</time>
      </trkpt>
      <trkpt lat="45.05454" lon="1.02283">
        <ele>125.6</ele>
        <time>2022-08-17T17:34:50Z</time>
      </trkpt>
      <trkpt lat="45.05459" lon="1.02283">
        <ele>126</ele>
        <time>2022-08-17T17:34:52Z</time>
      </trkpt>
      <trkpt lat="45.05462" lon="1.02282">
        <ele>126.3</ele>
        <time>2022-08-17T17:34:54Z</time>
      </trkpt>
      <trkpt lat="45.05465" lon="1.02282">
        <ele>126.5</ele>
        <time>2022-08-17T17:34:56Z</time>
      </trkpt>
      <trkpt lat="45.05468" lon="1.02283">
        <ele>126.7</ele>
        <time>2022-08-17T17:34:58Z</time>
      </trkpt>
      <trkpt lat="45.0547" lon="1.02282">
        <ele>126.9</ele>
        <time>2022-08-17T17:35:00Z</time>
      </trkpt>
      <trkpt lat="45.05473" lon="1.02281">
        <ele>127.2</ele>
        <time>2022-08-17T17:35:02Z</time>
      </trkpt>
      <trkpt lat="45.05476" lon="1.0228">
        <ele>127.6</ele>
        <time>2022-08-17T17:35:04Z</time>
      </trkpt>
      <trkpt lat="45.05479" lon="1.02278">
        <ele>127.9</ele>
        <time>2022-08-17T17:35:06Z</time>
      </trkpt>
      <trkpt lat="45.05487" lon="1.02276">
        <ele>128.8</ele>
        <time>2022-08-17T17:35:08Z</time>
      </trkpt>
      <trkpt lat="45.05492" lon="1.02273">
        <ele>129.5</ele>
        <time>2022-08-17T17:35:10Z</time>
      </trkpt>
      <trkpt lat="45.05499" lon="1.02271">
        <ele>130.4</ele>
        <time>2022-08-17T17:35:12Z</time>
      </trkpt>
      <trkpt lat="45.05505" lon="1.02267">
        <ele>130.5</ele>
        <time>2022-08-17T17:35:14Z</time>
      </trkpt>
      <trkpt lat="45.05512" lon="1.02264">
        <ele>130.3</ele>
        <time>2022-08-17T17:35:16Z</time>
      </trkpt>
      <trkpt lat="45.05519" lon="1.0226">
        <ele>130</ele>
        <time>2022-08-17T17:35:18Z</time>
      </trkpt>
      <trkpt lat="45.05525" lon="1.02255">
        <ele>130.1</ele>
        <time>2022-08-17T17:35:20Z</time>
      </trkpt>
      <trkpt lat="45.05532" lon="1.02251">
        <ele>129.8</ele>
        <time>2022-08-17T17:35:22Z</time>
      </trkpt>
      <trkpt lat="45.0554" lon="1.02246">
        <ele>129.7</ele>
        <time>2022-08-17T17:35:24Z</time>
      </trkpt>
      <trkpt lat="45.05547" lon="1.02241">
        <ele>129.7</ele>
        <time>2022-08-17T17:35:26Z</time>
      </trkpt>
      <trkpt lat="45.05555" lon="1.02237">
        <ele>129.5</ele>
        <time>2022-08-17T17:35:28Z</time>
      </trkpt>
      <trkpt lat="45.05564" lon="1.02234">
        <ele>129</ele>
        <time>2022-08-17T17:35:30Z</time>
      </trkpt>
      <trkpt lat="45.05574" lon="1.02234">
        <ele>127.9</ele>
        <time>2022-08-17T17:35:32Z</time>
      </trkpt>
      <trkpt lat="45.05583" lon="1.02237">
        <ele>126.5</ele>
        <time>2022-08-17T17:35:34Z</time>
      </trkpt>
      <trkpt lat="45.05592" lon="1.02244">
        <ele>125.6</ele>
        <time>2022-08-17T17:35:36Z</time>
      </trkpt>
      <trkpt lat="45.056" lon="1.02253">
        <ele>124.9</ele>
        <time>2022-08-17T17:35:38Z</time>
      </trkpt>
      <trkpt lat="45.05608" lon="1.0226">
        <ele>124.5</ele>
        <time>2022-08-17T17:35:40Z</time>
      </trkpt>
      <trkpt lat="45.05616" lon="1.02268">
        <ele>124.2</ele>
        <time>2022-08-17T17:35:42Z</time>
      </trkpt>
      <trkpt lat="45.05624" lon="1.02276">
        <ele>124</ele>
        <time>2022-08-17T17:35:44Z</time>
      </trkpt>
      <trkpt lat="45.05632" lon="1.02284">
        <ele>123.9</ele>
        <time>2022-08-17T17:35:46Z</time>
      </trkpt>
      <trkpt lat="45.05639" lon="1.02291">
        <ele>123.8</ele>
        <time>2022-08-17T17:35:48Z</time>
      </trkpt>
      <trkpt lat="45.05646" lon="1.02299">
        <ele>123.8</ele>
        <time>2022-08-17T17:35:50Z</time>
      </trkpt>
      <trkpt lat="45.05653" lon="1.02304">
        <ele>123.9</ele>
        <time>2022-08-17T17:35:52Z</time>
      </trkpt>
      <trkpt lat="45.05657" lon="1.02309">
        <ele>124</ele>
        <time>2022-08-17T17:35:54Z</time>
      </trkpt>
      <trkpt lat="45.0566" lon="1.02313">
        <ele>124</ele>
        <time>2022-08-17T17:35:56Z</time>
      </trkpt>
      <trkpt lat="45.05661" lon="1.02316">
        <ele>124</ele>
        <time>2022-08-17T17:35:58Z</time>
      </trkpt>
      <trkpt lat="45.05661" lon="1.02321">
        <ele>123.9</ele>
        <time>2022-08-17T17:36:00Z</time>
      </trkpt>
      <trkpt lat="45.05658" lon="1.02329">
        <ele>123.6</ele>
        <time>2022-08-17T17:36:02Z</time>
      </trkpt>
      <trkpt lat="45.05656" lon="1.02336">
        <ele>123.7</ele>
        <time>2022-08-17T17:36:04Z</time>
      </trkpt>
      <trkpt lat="45.05652" lon="1.02336">
        <ele>123.5</ele>
        <time>2022-08-17T17:36:06Z</time>
      </trkpt>
      <trkpt lat="45.05648" lon="1.02338">
        <ele>123.3</ele>
        <time>2022-08-17T17:36:08Z</time>
      </trkpt>
      <trkpt lat="45.05643" lon="1.02338">
        <ele>123.1</ele>
        <time>2022-08-17T17:36:10Z</time>
      </trkpt>
      <trkpt lat="45.05639" lon="1.02338">
        <ele>122.9</ele>
        <time>2022-08-17T17:36:12Z</time>
      </trkpt>
      <trkpt lat="45.05634" lon="1.02339">
        <ele>122.7</ele>
        <time>2022-08-17T17:36:14Z</time>
      </trkpt>
      <trkpt lat="45.0563" lon="1.02341">
        <ele>122.6</ele>
        <time>2022-08-17T17:36:16Z</time>
      </trkpt>
      <trkpt lat="45.05625" lon="1.02342">
        <ele>122.4</ele>
        <time>2022-08-17T17:36:18Z</time>
      </trkpt>
      <trkpt lat="45.0562" lon="1.02343">
        <ele>122.2</ele>
        <time>2022-08-17T17:36:20Z</time>
      </trkpt>
      <trkpt lat="45.05616" lon="1.02344">
        <ele>122</ele>
        <time>2022-08-17T17:36:22Z</time>
      </trkpt>
      <trkpt lat="45.05611" lon="1.02345">
        <ele>121.9</ele>
        <time>2022-08-17T17:36:24Z</time>
      </trkpt>
      <trkpt lat="45.05607" lon="1.02347">
        <ele>121.7</ele>
        <time>2022-08-17T17:36:26Z</time>
      </trkpt>
      <trkpt lat="45.05602" lon="1.02347">
        <ele>121.5</ele>
        <time>2022-08-17T17:36:28Z</time>
      </trkpt>
      <trkpt lat="45.05598" lon="1.02348">
        <ele>121.3</ele>
        <time>2022-08-17T17:36:30Z</time>
      </trkpt>
      <trkpt lat="45.05593" lon="1.02349">
        <ele>121.1</ele>
        <time>2022-08-17T17:36:32Z</time>
      </trkpt>
      <trkpt lat="45.05589" lon="1.0235">
        <ele>120.9</ele>
        <time>2022-08-17T17:36:34Z</time>
      </trkpt>
      <trkpt lat="45.05584" lon="1.02351">
        <ele>120.7</ele>
        <time>2022-08-17T17:36:36Z</time>
      </trkpt>
      <trkpt lat="45.05578" lon="1.02352">
        <ele>120.8</ele>
        <time>2022-08-17T17:36:38Z</time>
      </trkpt>
      <trkpt lat="45.05573" lon="1.02355">
        <ele>121</ele>
        <time>2022-08-17T17:36:40Z</time>
      </trkpt>
      <trkpt lat="45.05567" lon="1.02357">
        <ele>121.2</ele>
        <time>2022-08-17T17:36:42Z</time>
      </trkpt>
      <trkpt lat="45.05562" lon="1.0236">
        <ele>121.3</ele>
        <time>2022-08-17T17:36:44Z</time>
      </trkpt>
      <trkpt lat="45.05557" lon="1.02364">
        <ele>121.5</ele>
        <time>2022-08-17T17:36:46Z</time>
      </trkpt>
      <trkpt lat="45.05553" lon="1.02367">
        <ele>121.6</ele>
        <time>2022-08-17T17:36:48Z</time>
      </trkpt>
      <trkpt lat="45.05549" lon="1.02371">
        <ele>121.7</ele>
        <time>2022-08-17T17:36:50Z</time>
      </trkpt>
      <trkpt lat="45.05546" lon="1.02374">
        <ele>121.7</ele>
        <time>2022-08-17T17:36:52Z</time>
      </trkpt>
      <trkpt lat="45.05542" lon="1.02376">
        <ele>121.8</ele>
        <time>2022-08-17T17:36:54Z</time>
      </trkpt>
      <trkpt lat="45.05542" lon="1.02376">
        <ele>121.8</ele>
        <time>2022-08-17T17:36:56Z</time>
      </trkpt>
      <trkpt lat="45.05543" lon="1.02376">
        <ele>121.8</ele>
        <time>2022-08-17T17:36:58Z</time>
      </trkpt>
      <trkpt lat="45.05543" lon="1.02376">
        <ele>121.8</ele>
        <time>2022-08-17T17:37:02Z</time>
      </trkpt>
      <trkpt lat="45.05543" lon="1.02376">
        <ele>121.8</ele>
        <time>2022-08-17T17:37:04Z</time>
      </trkpt>
      <trkpt lat="45.05571" lon="1.02359">
        <ele>121.1</ele>
        <time>2022-08-17T17:40:20Z</time>
      </trkpt>
      <trkpt lat="45.05574" lon="1.02356">
        <ele>121</ele>
        <time>2022-08-17T17:40:22Z</time>
      </trkpt>
      <trkpt lat="45.05577" lon="1.02351">
        <ele>120.8</ele>
        <time>2022-08-17T17:40:24Z</time>
      </trkpt>
      <trkpt lat="45.05581" lon="1.02349">
        <ele>120.6</ele>
        <time>2022-08-17T17:40:26Z</time>
      </trkpt>
      <trkpt lat="45.05586" lon="1.02347">
        <ele>120.6</ele>
        <time>2022-08-17T17:40:28Z</time>
      </trkpt>
      <trkpt lat="45.0559" lon="1.02345">
        <ele>120.7</ele>
        <time>2022-08-17T17:40:30Z</time>
      </trkpt>
      <trkpt lat="45.05594" lon="1.02344">
        <ele>120.9</ele>
        <time>2022-08-17T17:40:32Z</time>
      </trkpt>
      <trkpt lat="45.05598" lon="1.02344">
        <ele>121.1</ele>
        <time>2022-08-17T17:40:34Z</time>
      </trkpt>
      <trkpt lat="45.05602" lon="1.02343">
        <ele>121.3</ele>
        <time>2022-08-17T17:40:36Z</time>
      </trkpt>
      <trkpt lat="45.05606" lon="1.02342">
        <ele>121.5</ele>
        <time>2022-08-17T17:40:38Z</time>
      </trkpt>
      <trkpt lat="45.05611" lon="1.02341">
        <ele>121.7</ele>
        <time>2022-08-17T17:40:40Z</time>
      </trkpt>
      <trkpt lat="45.05614" lon="1.0234">
        <ele>121.8</ele>
        <time>2022-08-17T17:40:42Z</time>
      </trkpt>
      <trkpt lat="45.05618" lon="1.02339">
        <ele>121.9</ele>
        <time>2022-08-17T17:40:44Z</time>
      </trkpt>
      <trkpt lat="45.05622" lon="1.02335">
        <ele>122</ele>
        <time>2022-08-17T17:40:46Z</time>
      </trkpt>
      <trkpt lat="45.05626" lon="1.02334">
        <ele>122.1</ele>
        <time>2022-08-17T17:40:48Z</time>
      </trkpt>
      <trkpt lat="45.0563" lon="1.02332">
        <ele>122.3</ele>
        <time>2022-08-17T17:40:50Z</time>
      </trkpt>
      <trkpt lat="45.05634" lon="1.02332">
        <ele>122.5</ele>
        <time>2022-08-17T17:40:52Z</time>
      </trkpt>
      <trkpt lat="45.05638" lon="1.02331">
        <ele>122.7</ele>
        <time>2022-08-17T17:40:54Z</time>
      </trkpt>
      <trkpt lat="45.05642" lon="1.0233">
        <ele>122.9</ele>
        <time>2022-08-17T17:40:56Z</time>
      </trkpt>
      <trkpt lat="45.05646" lon="1.02329">
        <ele>123.1</ele>
        <time>2022-08-17T17:40:58Z</time>
      </trkpt>
      <trkpt lat="45.0565" lon="1.02326">
        <ele>123.3</ele>
        <time>2022-08-17T17:41:00Z</time>
      </trkpt>
      <trkpt lat="45.05653" lon="1.02323">
        <ele>123.5</ele>
        <time>2022-08-17T17:41:02Z</time>
      </trkpt>
      <trkpt lat="45.05655" lon="1.02321">
        <ele>123.7</ele>
        <time>2022-08-17T17:41:04Z</time>
      </trkpt>
      <trkpt lat="45.05658" lon="1.02318">
        <ele>123.8</ele>
        <time>2022-08-17T17:41:06Z</time>
      </trkpt>
      <trkpt lat="45.05661" lon="1.02316">
        <ele>124</ele>
        <time>2022-08-17T17:41:08Z</time>
      </trkpt>
      <trkpt lat="45.05661" lon="1.02315">
        <ele>124</ele>
        <time>2022-08-17T17:41:10Z</time>
      </trkpt>
      <trkpt lat="45.05661" lon="1.02315">
        <ele>124</ele>
        <time>2022-08-17T17:41:12Z</time>
      </trkpt>
      <trkpt lat="45.05661" lon="1.02315">
        <ele>124</ele>
        <time>2022-08-17T17:41:14Z</time>
      </trkpt>
      <trkpt lat="45.05661" lon="1.02314">
        <ele>124</ele>
        <time>2022-08-17T17:41:16Z</time>
      </trkpt>
      <trkpt lat="45.05672" lon="1.02323">
        <ele>124.3</ele>
        <time>2022-08-17T17:41:40Z</time>
      </trkpt>
      <trkpt lat="45.05675" lon="1.02327">
        <ele>124.4</ele>
        <time>2022-08-17T17:41:42Z</time>
      </trkpt>
      <trkpt lat="45.05679" lon="1.02331">
        <ele>124.5</ele>
        <time>2022-08-17T17:41:44Z</time>
      </trkpt>
      <trkpt lat="45.05683" lon="1.02334">
        <ele>124.6</ele>
        <time>2022-08-17T17:41:46Z</time>
      </trkpt>
      <trkpt lat="45.05687" lon="1.02338">
        <ele>125.1</ele>
        <time>2022-08-17T17:41:48Z</time>
      </trkpt>
      <trkpt lat="45.05691" lon="1.02342">
        <ele>125.6</ele>
        <time>2022-08-17T17:41:50Z</time>
      </trkpt>
      <trkpt lat="45.05695" lon="1.02347">
        <ele>126.2</ele>
        <time>2022-08-17T17:41:52Z</time>
      </trkpt>
      <trkpt lat="45.05699" lon="1.02351">
        <ele>126.8</ele>
        <time>2022-08-17T17:41:54Z</time>
      </trkpt>
      <trkpt lat="45.05704" lon="1.02354">
        <ele>127.3</ele>
        <time>2022-08-17T17:41:56Z</time>
      </trkpt>
      <trkpt lat="45.05708" lon="1.02357">
        <ele>127.8</ele>
        <time>2022-08-17T17:41:58Z</time>
      </trkpt>
      <trkpt lat="45.05711" lon="1.02359">
        <ele>128.2</ele>
        <time>2022-08-17T17:42:00Z</time>
      </trkpt>
      <trkpt lat="45.05714" lon="1.0236">
        <ele>128.4</ele>
        <time>2022-08-17T17:42:02Z</time>
      </trkpt>
      <trkpt lat="45.05717" lon="1.0236">
        <ele>128.6</ele>
        <time>2022-08-17T17:42:04Z</time>
      </trkpt>
      <trkpt lat="45.05721" lon="1.02363">
        <ele>129.1</ele>
        <time>2022-08-17T17:42:06Z</time>
      </trkpt>
      <trkpt lat="45.05725" lon="1.02363">
        <ele>129.4</ele>
        <time>2022-08-17T17:42:08Z</time>
      </trkpt>
      <trkpt lat="45.05729" lon="1.02364">
        <ele>129.8</ele>
        <time>2022-08-17T17:42:10Z</time>
      </trkpt>
      <trkpt lat="45.05733" lon="1.02364">
        <ele>130</ele>
        <time>2022-08-17T17:42:12Z</time>
      </trkpt>
      <trkpt lat="45.05738" lon="1.02364">
        <ele>130.3</ele>
        <time>2022-08-17T17:42:14Z</time>
      </trkpt>
      <trkpt lat="45.05741" lon="1.02364">
        <ele>130.6</ele>
        <time>2022-08-17T17:42:16Z</time>
      </trkpt>
      <trkpt lat="45.05746" lon="1.02363">
        <ele>130.7</ele>
        <time>2022-08-17T17:42:18Z</time>
      </trkpt>
      <trkpt lat="45.0575" lon="1.02364">
        <ele>131.1</ele>
        <time>2022-08-17T17:42:20Z</time>
      </trkpt>
      <trkpt lat="45.05754" lon="1.02363">
        <ele>131.3</ele>
        <time>2022-08-17T17:42:22Z</time>
      </trkpt>
      <trkpt lat="45.05759" lon="1.02363">
        <ele>131.7</ele>
        <time>2022-08-17T17:42:24Z</time>
      </trkpt>
      <trkpt lat="45.05763" lon="1.02363">
        <ele>131.8</ele>
        <time>2022-08-17T17:42:26Z</time>
      </trkpt>
      <trkpt lat="45.05768" lon="1.02362">
        <ele>132.1</ele>
        <time>2022-08-17T17:42:28Z</time>
      </trkpt>
      <trkpt lat="45.05772" lon="1.02361">
        <ele>132.2</ele>
        <time>2022-08-17T17:42:30Z</time>
      </trkpt>
      <trkpt lat="45.05778" lon="1.02361">
        <ele>132.6</ele>
        <time>2022-08-17T17:42:32Z</time>
      </trkpt>
      <trkpt lat="45.05781" lon="1.02359">
        <ele>132.5</ele>
        <time>2022-08-17T17:42:34Z</time>
      </trkpt>
      <trkpt lat="45.05786" lon="1.02359">
        <ele>132.8</ele>
        <time>2022-08-17T17:42:36Z</time>
      </trkpt>
      <trkpt lat="45.0579" lon="1.02358">
        <ele>133</ele>
        <time>2022-08-17T17:42:38Z</time>
      </trkpt>
      <trkpt lat="45.05795" lon="1.02356">
        <ele>133</ele>
        <time>2022-08-17T17:42:40Z</time>
      </trkpt>
      <trkpt lat="45.058" lon="1.02354">
        <ele>133</ele>
        <time>2022-08-17T17:42:42Z</time>
      </trkpt>
      <trkpt lat="45.05805" lon="1.02353">
        <ele>133.2</ele>
        <time>2022-08-17T17:42:44Z</time>
      </trkpt>
      <trkpt lat="45.0581" lon="1.02353">
        <ele>133.4</ele>
        <time>2022-08-17T17:42:46Z</time>
      </trkpt>
      <trkpt lat="45.05814" lon="1.02351">
        <ele>133.3</ele>
        <time>2022-08-17T17:42:48Z</time>
      </trkpt>
      <trkpt lat="45.05819" lon="1.0235">
        <ele>133.4</ele>
        <time>2022-08-17T17:42:50Z</time>
      </trkpt>
      <trkpt lat="45.05824" lon="1.02349">
        <ele>133.5</ele>
        <time>2022-08-17T17:42:52Z</time>
      </trkpt>
      <trkpt lat="45.05829" lon="1.02347">
        <ele>133.6</ele>
        <time>2022-08-17T17:42:54Z</time>
      </trkpt>
      <trkpt lat="45.05833" lon="1.02346">
        <ele>133.5</ele>
        <time>2022-08-17T17:42:56Z</time>
      </trkpt>
      <trkpt lat="45.05838" lon="1.02344">
        <ele>133.6</ele>
        <time>2022-08-17T17:42:58Z</time>
      </trkpt>
      <trkpt lat="45.05842" lon="1.02342">
        <ele>133.5</ele>
        <time>2022-08-17T17:43:00Z</time>
      </trkpt>
      <trkpt lat="45.05848" lon="1.02341">
        <ele>133.7</ele>
        <time>2022-08-17T17:43:02Z</time>
      </trkpt>
      <trkpt lat="45.05853" lon="1.02341">
        <ele>134</ele>
        <time>2022-08-17T17:43:04Z</time>
      </trkpt>
      <trkpt lat="45.05858" lon="1.0234">
        <ele>134.1</ele>
        <time>2022-08-17T17:43:06Z</time>
      </trkpt>
      <trkpt lat="45.05863" lon="1.02338">
        <ele>134.1</ele>
        <time>2022-08-17T17:43:08Z</time>
      </trkpt>
      <trkpt lat="45.05868" lon="1.02338">
        <ele>134.4</ele>
        <time>2022-08-17T17:43:10Z</time>
      </trkpt>
      <trkpt lat="45.05874" lon="1.02337">
        <ele>134.7</ele>
        <time>2022-08-17T17:43:12Z</time>
      </trkpt>
      <trkpt lat="45.0588" lon="1.02336">
        <ele>134.9</ele>
        <time>2022-08-17T17:43:14Z</time>
      </trkpt>
      <trkpt lat="45.05885" lon="1.02335">
        <ele>135.1</ele>
        <time>2022-08-17T17:43:16Z</time>
      </trkpt>
      <trkpt lat="45.05891" lon="1.02334">
        <ele>135.3</ele>
        <time>2022-08-17T17:43:18Z</time>
      </trkpt>
      <trkpt lat="45.05896" lon="1.02333">
        <ele>135.5</ele>
        <time>2022-08-17T17:43:20Z</time>
      </trkpt>
      <trkpt lat="45.05902" lon="1.02331">
        <ele>135.8</ele>
        <time>2022-08-17T17:43:22Z</time>
      </trkpt>
      <trkpt lat="45.05908" lon="1.02331">
        <ele>136.1</ele>
        <time>2022-08-17T17:43:24Z</time>
      </trkpt>
      <trkpt lat="45.05914" lon="1.02329">
        <ele>136.3</ele>
        <time>2022-08-17T17:43:26Z</time>
      </trkpt>
      <trkpt lat="45.05922" lon="1.02329">
        <ele>136.4</ele>
        <time>2022-08-17T17:43:28Z</time>
      </trkpt>
      <trkpt lat="45.05928" lon="1.02327">
        <ele>136.2</ele>
        <time>2022-08-17T17:43:30Z</time>
      </trkpt>
      <trkpt lat="45.05935" lon="1.02326">
        <ele>136.2</ele>
        <time>2022-08-17T17:43:32Z</time>
      </trkpt>
      <trkpt lat="45.05943" lon="1.02325">
        <ele>136.2</ele>
        <time>2022-08-17T17:43:34Z</time>
      </trkpt>
      <trkpt lat="45.0595" lon="1.02323">
        <ele>135.9</ele>
        <time>2022-08-17T17:43:36Z</time>
      </trkpt>
      <trkpt lat="45.05957" lon="1.02321">
        <ele>135.8</ele>
        <time>2022-08-17T17:43:38Z</time>
      </trkpt>
      <trkpt lat="45.05966" lon="1.0232">
        <ele>135.8</ele>
        <time>2022-08-17T17:43:40Z</time>
      </trkpt>
      <trkpt lat="45.05976" lon="1.02319">
        <ele>135.7</ele>
        <time>2022-08-17T17:43:42Z</time>
      </trkpt>
      <trkpt lat="45.05985" lon="1.02318">
        <ele>135.6</ele>
        <time>2022-08-17T17:43:44Z</time>
      </trkpt>
      <trkpt lat="45.05994" lon="1.02316">
        <ele>135.4</ele>
        <time>2022-08-17T17:43:46Z</time>
      </trkpt>
      <trkpt lat="45.06" lon="1.02315">
        <ele>135.4</ele>
        <time>2022-08-17T17:43:48Z</time>
      </trkpt>
      <trkpt lat="45.06009" lon="1.02317">
        <ele>135.9</ele>
        <time>2022-08-17T17:43:50Z</time>
      </trkpt>
      <trkpt lat="45.06016" lon="1.02316">
        <ele>135.9</ele>
        <time>2022-08-17T17:43:52Z</time>
      </trkpt>
      <trkpt lat="45.06024" lon="1.02317">
        <ele>136.3</ele>
        <time>2022-08-17T17:43:54Z</time>
      </trkpt>
      <trkpt lat="45.06032" lon="1.02316">
        <ele>136.5</ele>
        <time>2022-08-17T17:43:56Z</time>
      </trkpt>
      <trkpt lat="45.0604" lon="1.02314">
        <ele>136.4</ele>
        <time>2022-08-17T17:43:58Z</time>
      </trkpt>
      <trkpt lat="45.06048" lon="1.02313">
        <ele>136.5</ele>
        <time>2022-08-17T17:44:00Z</time>
      </trkpt>
      <trkpt lat="45.06056" lon="1.02313">
        <ele>136.7</ele>
        <time>2022-08-17T17:44:02Z</time>
      </trkpt>
      <trkpt lat="45.06064" lon="1.0231">
        <ele>136.5</ele>
        <time>2022-08-17T17:44:04Z</time>
      </trkpt>
      <trkpt lat="45.06072" lon="1.02309">
        <ele>136.5</ele>
        <time>2022-08-17T17:44:06Z</time>
      </trkpt>
      <trkpt lat="45.0608" lon="1.02308">
        <ele>136.6</ele>
        <time>2022-08-17T17:44:08Z</time>
      </trkpt>
      <trkpt lat="45.06089" lon="1.02306">
        <ele>136.7</ele>
        <time>2022-08-17T17:44:10Z</time>
      </trkpt>
      <trkpt lat="45.06096" lon="1.02303">
        <ele>136.6</ele>
        <time>2022-08-17T17:44:12Z</time>
      </trkpt>
      <trkpt lat="45.06104" lon="1.023">
        <ele>136.5</ele>
        <time>2022-08-17T17:44:14Z</time>
      </trkpt>
      <trkpt lat="45.06112" lon="1.02299">
        <ele>136.6</ele>
        <time>2022-08-17T17:44:16Z</time>
      </trkpt>
      <trkpt lat="45.0612" lon="1.02297">
        <ele>136.6</ele>
        <time>2022-08-17T17:44:18Z</time>
      </trkpt>
      <trkpt lat="45.06127" lon="1.02295">
        <ele>136.7</ele>
        <time>2022-08-17T17:44:20Z</time>
      </trkpt>
      <trkpt lat="45.06135" lon="1.02294">
        <ele>136.9</ele>
        <time>2022-08-17T17:44:22Z</time>
      </trkpt>
      <trkpt lat="45.06144" lon="1.02293">
        <ele>137.1</ele>
        <time>2022-08-17T17:44:24Z</time>
      </trkpt>
      <trkpt lat="45.06151" lon="1.02292">
        <ele>137.3</ele>
        <time>2022-08-17T17:44:26Z</time>
      </trkpt>
      <trkpt lat="45.0616" lon="1.0229">
        <ele>137.4</ele>
        <time>2022-08-17T17:44:28Z</time>
      </trkpt>
      <trkpt lat="45.06169" lon="1.02289">
        <ele>137.7</ele>
        <time>2022-08-17T17:44:30Z</time>
      </trkpt>
      <trkpt lat="45.06178" lon="1.02288">
        <ele>138.2</ele>
        <time>2022-08-17T17:44:32Z</time>
      </trkpt>
      <trkpt lat="45.06187" lon="1.02287">
        <ele>138.8</ele>
        <time>2022-08-17T17:44:34Z</time>
      </trkpt>
      <trkpt lat="45.06196" lon="1.02284">
        <ele>138.9</ele>
        <time>2022-08-17T17:44:36Z</time>
      </trkpt>
      <trkpt lat="45.06204" lon="1.02282">
        <ele>139.2</ele>
        <time>2022-08-17T17:44:38Z</time>
      </trkpt>
      <trkpt lat="45.06213" lon="1.02279">
        <ele>139.2</ele>
        <time>2022-08-17T17:44:40Z</time>
      </trkpt>
      <trkpt lat="45.0622" lon="1.02277">
        <ele>139.4</ele>
        <time>2022-08-17T17:44:42Z</time>
      </trkpt>
      <trkpt lat="45.06224" lon="1.02276">
        <ele>139.6</ele>
        <time>2022-08-17T17:44:44Z</time>
      </trkpt>
      <trkpt lat="45.06226" lon="1.02273">
        <ele>138.8</ele>
        <time>2022-08-17T17:44:46Z</time>
      </trkpt>
      <trkpt lat="45.06226" lon="1.02269">
        <ele>137.9</ele>
        <time>2022-08-17T17:44:48Z</time>
      </trkpt>
      <trkpt lat="45.06228" lon="1.02261">
        <ele>136.1</ele>
        <time>2022-08-17T17:44:50Z</time>
      </trkpt>
      <trkpt lat="45.06229" lon="1.02255">
        <ele>135</ele>
        <time>2022-08-17T17:44:52Z</time>
      </trkpt>
      <trkpt lat="45.0623" lon="1.0225">
        <ele>133.9</ele>
        <time>2022-08-17T17:44:54Z</time>
      </trkpt>
      <trkpt lat="45.06231" lon="1.02246">
        <ele>133.5</ele>
        <time>2022-08-17T17:44:56Z</time>
      </trkpt>
      <trkpt lat="45.06232" lon="1.02238">
        <ele>132.8</ele>
        <time>2022-08-17T17:44:58Z</time>
      </trkpt>
      <trkpt lat="45.06232" lon="1.02227">
        <ele>131.9</ele>
        <time>2022-08-17T17:45:00Z</time>
      </trkpt>
      <trkpt lat="45.06233" lon="1.02215">
        <ele>130.8</ele>
        <time>2022-08-17T17:45:02Z</time>
      </trkpt>
      <trkpt lat="45.06235" lon="1.02203">
        <ele>129.8</ele>
        <time>2022-08-17T17:45:04Z</time>
      </trkpt>
      <trkpt lat="45.06238" lon="1.02196">
        <ele>129.3</ele>
        <time>2022-08-17T17:45:06Z</time>
      </trkpt>
      <trkpt lat="45.06243" lon="1.0219">
        <ele>128.9</ele>
        <time>2022-08-17T17:45:08Z</time>
      </trkpt>
      <trkpt lat="45.06248" lon="1.02186">
        <ele>128.8</ele>
        <time>2022-08-17T17:45:10Z</time>
      </trkpt>
      <trkpt lat="45.06253" lon="1.02181">
        <ele>128.5</ele>
        <time>2022-08-17T17:45:12Z</time>
      </trkpt>
      <trkpt lat="45.06257" lon="1.02176">
        <ele>128.1</ele>
        <time>2022-08-17T17:45:14Z</time>
      </trkpt>
      <trkpt lat="45.0626" lon="1.02171">
        <ele>127.7</ele>
        <time>2022-08-17T17:45:16Z</time>
      </trkpt>
      <trkpt lat="45.06263" lon="1.02166">
        <ele>127.3</ele>
        <time>2022-08-17T17:45:18Z</time>
      </trkpt>
      <trkpt lat="45.06264" lon="1.02162">
        <ele>127.3</ele>
        <time>2022-08-17T17:45:20Z</time>
      </trkpt>
      <trkpt lat="45.06265" lon="1.02159">
        <ele>127.3</ele>
        <time>2022-08-17T17:45:22Z</time>
      </trkpt>
      <trkpt lat="45.06265" lon="1.02159">
        <ele>127.3</ele>
        <time>2022-08-17T17:45:24Z</time>
      </trkpt>
      <trkpt lat="45.06265" lon="1.02159">
        <ele>127.3</ele>
        <time>2022-08-17T17:45:26Z</time>
      </trkpt>
      <trkpt lat="45.06265" lon="1.02159">
        <ele>127.3</ele>
        <time>2022-08-17T17:45:28Z</time>
      </trkpt>
      <trkpt lat="45.06264" lon="1.02158">
        <ele>127.3</ele>
        <time>2022-08-17T17:45:30Z</time>
      </trkpt>
      <trkpt lat="45.06249" lon="1.02183">
        <ele>128.6</ele>
        <time>2022-08-17T17:45:44Z</time>
      </trkpt>
      <trkpt lat="45.06243" lon="1.02189">
        <ele>128.9</ele>
        <time>2022-08-17T17:45:46Z</time>
      </trkpt>
      <trkpt lat="45.06237" lon="1.02196">
        <ele>129.3</ele>
        <time>2022-08-17T17:45:48Z</time>
      </trkpt>
      <trkpt lat="45.06235" lon="1.02205">
        <ele>130</ele>
        <time>2022-08-17T17:45:50Z</time>
      </trkpt>
      <trkpt lat="45.06234" lon="1.02215">
        <ele>130.8</ele>
        <time>2022-08-17T17:45:52Z</time>
      </trkpt>
      <trkpt lat="45.06234" lon="1.02224">
        <ele>131.6</ele>
        <time>2022-08-17T17:45:54Z</time>
      </trkpt>
      <trkpt lat="45.06233" lon="1.02232">
        <ele>132.3</ele>
        <time>2022-08-17T17:45:56Z</time>
      </trkpt>
      <trkpt lat="45.06231" lon="1.02237">
        <ele>132.6</ele>
        <time>2022-08-17T17:45:58Z</time>
      </trkpt>
      <trkpt lat="45.06227" lon="1.02238">
        <ele>132.5</ele>
        <time>2022-08-17T17:46:00Z</time>
      </trkpt>
      <trkpt lat="45.06225" lon="1.02239">
        <ele>132.5</ele>
        <time>2022-08-17T17:46:02Z</time>
      </trkpt>
      <trkpt lat="45.0622" lon="1.02241">
        <ele>132.4</ele>
        <time>2022-08-17T17:46:04Z</time>
      </trkpt>
      <trkpt lat="45.06216" lon="1.02242">
        <ele>132.3</ele>
        <time>2022-08-17T17:46:06Z</time>
      </trkpt>
      <trkpt lat="45.06212" lon="1.02243">
        <ele>132.1</ele>
        <time>2022-08-17T17:46:08Z</time>
      </trkpt>
      <trkpt lat="45.06207" lon="1.02243">
        <ele>131.8</ele>
        <time>2022-08-17T17:46:10Z</time>
      </trkpt>
      <trkpt lat="45.06204" lon="1.02244">
        <ele>131.7</ele>
        <time>2022-08-17T17:46:12Z</time>
      </trkpt>
      <trkpt lat="45.06201" lon="1.02244">
        <ele>131.6</ele>
        <time>2022-08-17T17:46:14Z</time>
      </trkpt>
      <trkpt lat="45.06199" lon="1.02245">
        <ele>131.5</ele>
        <time>2022-08-17T17:46:16Z</time>
      </trkpt>
      <trkpt lat="45.06196" lon="1.02246">
        <ele>131.4</ele>
        <time>2022-08-17T17:46:18Z</time>
      </trkpt>
      <trkpt lat="45.06192" lon="1.02245">
        <ele>131.1</ele>
        <time>2022-08-17T17:46:20Z</time>
      </trkpt>
      <trkpt lat="45.06188" lon="1.02246">
        <ele>131</ele>
        <time>2022-08-17T17:46:22Z</time>
      </trkpt>
      <trkpt lat="45.06185" lon="1.02246">
        <ele>130.8</ele>
        <time>2022-08-17T17:46:24Z</time>
      </trkpt>
      <trkpt lat="45.06182" lon="1.02247">
        <ele>130.7</ele>
        <time>2022-08-17T17:46:26Z</time>
      </trkpt>
      <trkpt lat="45.06179" lon="1.02247">
        <ele>130.5</ele>
        <time>2022-08-17T17:46:28Z</time>
      </trkpt>
      <trkpt lat="45.06177" lon="1.02247">
        <ele>130.4</ele>
        <time>2022-08-17T17:46:30Z</time>
      </trkpt>
      <trkpt lat="45.06173" lon="1.02245">
        <ele>130.1</ele>
        <time>2022-08-17T17:46:32Z</time>
      </trkpt>
      <trkpt lat="45.06171" lon="1.02242">
        <ele>129.7</ele>
        <time>2022-08-17T17:46:34Z</time>
      </trkpt>
      <trkpt lat="45.06167" lon="1.02239">
        <ele>129.2</ele>
        <time>2022-08-17T17:46:36Z</time>
      </trkpt>
      <trkpt lat="45.06162" lon="1.02235">
        <ele>128.8</ele>
        <time>2022-08-17T17:46:38Z</time>
      </trkpt>
      <trkpt lat="45.06159" lon="1.02233">
        <ele>128.6</ele>
        <time>2022-08-17T17:46:40Z</time>
      </trkpt>
      <trkpt lat="45.06154" lon="1.02232">
        <ele>128.4</ele>
        <time>2022-08-17T17:46:42Z</time>
      </trkpt>
      <trkpt lat="45.0615" lon="1.02231">
        <ele>128.3</ele>
        <time>2022-08-17T17:46:44Z</time>
      </trkpt>
      <trkpt lat="45.06146" lon="1.02229">
        <ele>128</ele>
        <time>2022-08-17T17:46:46Z</time>
      </trkpt>
      <trkpt lat="45.06142" lon="1.02225">
        <ele>127.8</ele>
        <time>2022-08-17T17:46:48Z</time>
      </trkpt>
      <trkpt lat="45.06138" lon="1.02223">
        <ele>127.6</ele>
        <time>2022-08-17T17:46:50Z</time>
      </trkpt>
      <trkpt lat="45.06134" lon="1.02221">
        <ele>127.4</ele>
        <time>2022-08-17T17:46:52Z</time>
      </trkpt>
      <trkpt lat="45.06131" lon="1.02218">
        <ele>127.2</ele>
        <time>2022-08-17T17:46:54Z</time>
      </trkpt>
      <trkpt lat="45.06128" lon="1.02214">
        <ele>127</ele>
        <time>2022-08-17T17:46:56Z</time>
      </trkpt>
      <trkpt lat="45.06124" lon="1.02211">
        <ele>126.9</ele>
        <time>2022-08-17T17:46:58Z</time>
      </trkpt>
      <trkpt lat="45.06121" lon="1.02209">
        <ele>126.7</ele>
        <time>2022-08-17T17:47:00Z</time>
      </trkpt>
      <trkpt lat="45.06117" lon="1.02207">
        <ele>126.7</ele>
        <time>2022-08-17T17:47:02Z</time>
      </trkpt>
      <trkpt lat="45.06114" lon="1.02206">
        <ele>126.6</ele>
        <time>2022-08-17T17:47:04Z</time>
      </trkpt>
      <trkpt lat="45.06111" lon="1.02205">
        <ele>126.6</ele>
        <time>2022-08-17T17:47:06Z</time>
      </trkpt>
      <trkpt lat="45.06108" lon="1.02203">
        <ele>126.5</ele>
        <time>2022-08-17T17:47:08Z</time>
      </trkpt>
      <trkpt lat="45.06105" lon="1.02204">
        <ele>126.5</ele>
        <time>2022-08-17T17:47:10Z</time>
      </trkpt>
      <trkpt lat="45.06102" lon="1.02204">
        <ele>126.5</ele>
        <time>2022-08-17T17:47:12Z</time>
      </trkpt>
      <trkpt lat="45.06099" lon="1.02203">
        <ele>126.5</ele>
        <time>2022-08-17T17:47:14Z</time>
      </trkpt>
      <trkpt lat="45.06096" lon="1.02203">
        <ele>126.5</ele>
        <time>2022-08-17T17:47:16Z</time>
      </trkpt>
      <trkpt lat="45.06095" lon="1.02202">
        <ele>126.4</ele>
        <time>2022-08-17T17:47:18Z</time>
      </trkpt>
      <trkpt lat="45.06096" lon="1.02202">
        <ele>126.4</ele>
        <time>2022-08-17T17:47:20Z</time>
      </trkpt>
      <trkpt lat="45.06096" lon="1.02202">
        <ele>126.4</ele>
        <time>2022-08-17T17:47:22Z</time>
      </trkpt>
      <trkpt lat="45.06095" lon="1.02202">
        <ele>126.4</ele>
        <time>2022-08-17T17:47:24Z</time>
      </trkpt>
      <trkpt lat="45.06095" lon="1.02203">
        <ele>126.5</ele>
        <time>2022-08-17T17:47:26Z</time>
      </trkpt>
    </trkseg>
      <trkpt lat="45.06104" lon="1.0212">
        <ele>117.258789</ele>
        <time>2022-08-18T05:40:42Z</time>
      </trkpt>
      <trkpt lat="45.06091" lon="1.02188">
        <ele>163.5775146</ele>
        <time>2022-08-18T05:40:43Z</time>
      </trkpt>
      <trkpt lat="45.06093" lon="1.02202">
        <ele>157.3621712</ele>
        <time>2022-08-18T05:40:46Z</time>
      </trkpt>
      <trkpt lat="45.06094" lon="1.02197">
        <ele>151.2977142</ele>
        <time>2022-08-18T05:40:48Z</time>
      </trkpt>
      <trkpt lat="45.06094" lon="1.02197">
        <ele>151.2977142</ele>
        <time>2022-08-18T05:40:52Z</time>
      </trkpt>
      <trkpt lat="45.06094" lon="1.02197">
        <ele>151.2977142</ele>
        <time>2022-08-18T05:40:56Z</time>
      </trkpt>
      <trkpt lat="45.06094" lon="1.02197">
        <ele>151.2977142</ele>
        <time>2022-08-18T05:41:00Z</time>
      </trkpt>
      <trkpt lat="45.06094" lon="1.02197">
        <ele>151.2977142</ele>
        <time>2022-08-18T05:41:04Z</time>
      </trkpt>
      <trkpt lat="45.06094" lon="1.02197">
        <ele>151.2977142</ele>
        <time>2022-08-18T05:41:08Z</time>
      </trkpt>
      <trkpt lat="45.06094" lon="1.02197">
        <ele>151.2977142</ele>
        <time>2022-08-18T05:41:12Z</time>
      </trkpt>
      <trkpt lat="45.0609" lon="1.02189">
        <ele>137.3122212</ele>
        <time>2022-08-18T05:41:14Z</time>
      </trkpt>
      <trkpt lat="45.0609" lon="1.02189">
        <ele>136.2272682</ele>
        <time>2022-08-18T05:41:16Z</time>
      </trkpt>
      <trkpt lat="45.0609" lon="1.02191">
        <ele>136.3599279</ele>
        <time>2022-08-18T05:41:18Z</time>
      </trkpt>
      <trkpt lat="45.06091" lon="1.02193">
        <ele>135.3185696</ele>
        <time>2022-08-18T05:41:20Z</time>
      </trkpt>
      <trkpt lat="45.06091" lon="1.02194">
        <ele>134.8262382</ele>
        <time>2022-08-18T05:41:22Z</time>
      </trkpt>
      <trkpt lat="45.06091" lon="1.02194">
        <ele>134.2656462</ele>
        <time>2022-08-18T05:41:24Z</time>
      </trkpt>
      <trkpt lat="45.06091" lon="1.02194">
        <ele>134.2702952</ele>
        <time>2022-08-18T05:41:26Z</time>
      </trkpt>
      <trkpt lat="45.06091" lon="1.02194">
        <ele>134.2702952</ele>
        <time>2022-08-18T05:41:30Z</time>
      </trkpt>
      <trkpt lat="45.06091" lon="1.02194">
        <ele>134.2702952</ele>
        <time>2022-08-18T05:41:34Z</time>
      </trkpt>
      <trkpt lat="45.06091" lon="1.02194">
        <ele>134.2702952</ele>
        <time>2022-08-18T05:41:38Z</time>
      </trkpt>
      <trkpt lat="45.06091" lon="1.02194">
        <ele>134.2702952</ele>
        <time>2022-08-18T05:41:42Z</time>
      </trkpt>
      <trkpt lat="45.06091" lon="1.02194">
        <ele>134.2702952</ele>
        <time>2022-08-18T05:41:46Z</time>
      </trkpt>
      <trkpt lat="45.06091" lon="1.02194">
        <ele>134.2702952</ele>
        <time>2022-08-18T05:41:50Z</time>
      </trkpt>
      <trkpt lat="45.06091" lon="1.02194">
        <ele>134.2702952</ele>
        <time>2022-08-18T05:41:54Z</time>
      </trkpt>
      <trkpt lat="45.06091" lon="1.02194">
        <ele>134.2702952</ele>
        <time>2022-08-18T05:41:58Z</time>
      </trkpt>
      <trkpt lat="45.06091" lon="1.02194">
        <ele>134.2702952</ele>
        <time>2022-08-18T05:42:02Z</time>
      </trkpt>
      <trkpt lat="45.06091" lon="1.02194">
        <ele>134.2702952</ele>
        <time>2022-08-18T05:42:06Z</time>
      </trkpt>
      <trkpt lat="45.06091" lon="1.02194">
        <ele>134.2702952</ele>
        <time>2022-08-18T05:42:10Z</time>
      </trkpt>
      <trkpt lat="45.06091" lon="1.02194">
        <ele>134.2702952</ele>
        <time>2022-08-18T05:42:14Z</time>
      </trkpt>
      <trkpt lat="45.06091" lon="1.02194">
        <ele>134.2702952</ele>
        <time>2022-08-18T05:42:18Z</time>
      </trkpt>
      <trkpt lat="45.06091" lon="1.02194">
        <ele>134.2702952</ele>
        <time>2022-08-18T05:42:22Z</time>
      </trkpt>
      <trkpt lat="45.06091" lon="1.02194">
        <ele>134.2702952</ele>
        <time>2022-08-18T05:42:26Z</time>
      </trkpt>
      <trkpt lat="45.06091" lon="1.02194">
        <ele>134.2702952</ele>
        <time>2022-08-18T05:42:30Z</time>
      </trkpt>
      <trkpt lat="45.06091" lon="1.02194">
        <ele>134.2702952</ele>
        <time>2022-08-18T05:42:34Z</time>
      </trkpt>
      <trkpt lat="45.06091" lon="1.02194">
        <ele>134.2702952</ele>
        <time>2022-08-18T05:42:38Z</time>
      </trkpt>
      <trkpt lat="45.06091" lon="1.02194">
        <ele>134.2702952</ele>
        <time>2022-08-18T05:42:42Z</time>
      </trkpt>
      <trkpt lat="45.06091" lon="1.02194">
        <ele>134.2702952</ele>
        <time>2022-08-18T05:42:46Z</time>
      </trkpt>
      <trkpt lat="45.06091" lon="1.02194">
        <ele>134.2702952</ele>
        <time>2022-08-18T05:42:50Z</time>
      </trkpt>
      <trkpt lat="45.06091" lon="1.02194">
        <ele>134.2702952</ele>
        <time>2022-08-18T05:42:54Z</time>
      </trkpt>
      <trkpt lat="45.06088" lon="1.02197">
        <ele>129.6420542</ele>
        <time>2022-08-18T05:42:56Z</time>
      </trkpt>
      <trkpt lat="45.06089" lon="1.02198">
        <ele>129.404403</ele>
        <time>2022-08-18T05:43:00Z</time>
      </trkpt>
      <trkpt lat="45.06088" lon="1.02198">
        <ele>129.6513653</ele>
        <time>2022-08-18T05:43:02Z</time>
      </trkpt>
      <trkpt lat="45.06088" lon="1.02198">
        <ele>129.8558426</ele>
        <time>2022-08-18T05:43:06Z</time>
      </trkpt>
      <trkpt lat="45.06088" lon="1.02197">
        <ele>130.8610156</ele>
        <time>2022-08-18T05:43:08Z</time>
      </trkpt>
      <trkpt lat="45.06088" lon="1.02197">
        <ele>130.8684744</ele>
        <time>2022-08-18T05:43:10Z</time>
      </trkpt>
      <trkpt lat="45.06087" lon="1.02196">
        <ele>132.3543454</ele>
        <time>2022-08-18T05:43:14Z</time>
      </trkpt>
      <trkpt lat="45.06087" lon="1.02196">
        <ele>132.3543454</ele>
        <time>2022-08-18T05:43:18Z</time>
      </trkpt>
      <trkpt lat="45.06087" lon="1.02196">
        <ele>132.3543454</ele>
        <time>2022-08-18T05:43:22Z</time>
      </trkpt>
      <trkpt lat="45.06087" lon="1.02196">
        <ele>132.3543454</ele>
        <time>2022-08-18T05:43:26Z</time>
      </trkpt>
      <trkpt lat="45.0609" lon="1.02195">
        <ele>128.8047261</ele>
        <time>2022-08-18T05:43:28Z</time>
      </trkpt>
      <trkpt lat="45.0609" lon="1.02195">
        <ele>128.8047261</ele>
        <time>2022-08-18T05:43:32Z</time>
      </trkpt>
      <trkpt lat="45.0609" lon="1.02195">
        <ele>128.8047261</ele>
        <time>2022-08-18T05:43:36Z</time>
      </trkpt>
      <trkpt lat="45.0609" lon="1.02195">
        <ele>128.8047261</ele>
        <time>2022-08-18T05:43:40Z</time>
      </trkpt>
      <trkpt lat="45.0609" lon="1.02195">
        <ele>128.8047261</ele>
        <time>2022-08-18T05:43:44Z</time>
      </trkpt>
      <trkpt lat="45.0609" lon="1.02195">
        <ele>128.8047261</ele>
        <time>2022-08-18T05:43:48Z</time>
      </trkpt>
      <trkpt lat="45.0609" lon="1.02195">
        <ele>128.8047261</ele>
        <time>2022-08-18T05:43:52Z</time>
      </trkpt>
      <trkpt lat="45.0609" lon="1.02195">
        <ele>128.8047261</ele>
        <time>2022-08-18T05:43:56Z</time>
      </trkpt>
      <trkpt lat="45.0609" lon="1.02195">
        <ele>128.8047261</ele>
        <time>2022-08-18T05:44:00Z</time>
      </trkpt>
      <trkpt lat="45.0609" lon="1.02195">
        <ele>128.8047261</ele>
        <time>2022-08-18T05:44:04Z</time>
      </trkpt>
      <trkpt lat="45.0609" lon="1.02195">
        <ele>128.8047261</ele>
        <time>2022-08-18T05:44:08Z</time>
      </trkpt>
      <trkpt lat="45.0609" lon="1.02195">
        <ele>128.8047261</ele>
        <time>2022-08-18T05:44:12Z</time>
      </trkpt>
      <trkpt lat="45.0609" lon="1.02195">
        <ele>128.8047261</ele>
        <time>2022-08-18T05:44:16Z</time>
      </trkpt>
      <trkpt lat="45.06088" lon="1.02195">
        <ele>129.7082724</ele>
        <time>2022-08-18T05:44:18Z</time>
      </trkpt>
      <trkpt lat="45.06088" lon="1.02195">
        <ele>129.4745079</ele>
        <time>2022-08-18T05:44:22Z</time>
      </trkpt>
      <trkpt lat="45.06088" lon="1.02195">
        <ele>129.473106</ele>
        <time>2022-08-18T05:44:24Z</time>
      </trkpt>
      <trkpt lat="45.06088" lon="1.02195">
        <ele>129.473106</ele>
        <time>2022-08-18T05:44:28Z</time>
      </trkpt>
      <trkpt lat="45.06088" lon="1.02195">
        <ele>129.473106</ele>
        <time>2022-08-18T05:44:32Z</time>
      </trkpt>
      <trkpt lat="45.06088" lon="1.02194">
        <ele>134.6475955</ele>
        <time>2022-08-18T05:44:36Z</time>
      </trkpt>
      <trkpt lat="45.06088" lon="1.02194">
        <ele>134.6299303</ele>
        <time>2022-08-18T05:44:38Z</time>
      </trkpt>
      <trkpt lat="45.06088" lon="1.02194">
        <ele>134.6299303</ele>
        <time>2022-08-18T05:44:42Z</time>
      </trkpt>
      <trkpt lat="45.06088" lon="1.02194">
        <ele>134.6299303</ele>
        <time>2022-08-18T05:44:46Z</time>
      </trkpt>
      <trkpt lat="45.06088" lon="1.02194">
        <ele>134.6299303</ele>
        <time>2022-08-18T05:44:50Z</time>
      </trkpt>
      <trkpt lat="45.06088" lon="1.02194">
        <ele>134.6299303</ele>
        <time>2022-08-18T05:44:54Z</time>
      </trkpt>
      <trkpt lat="45.06088" lon="1.02194">
        <ele>134.6299303</ele>
        <time>2022-08-18T05:44:58Z</time>
      </trkpt>
      <trkpt lat="45.06088" lon="1.02194">
        <ele>134.6299303</ele>
        <time>2022-08-18T05:45:02Z</time>
      </trkpt>
      <trkpt lat="45.06088" lon="1.02194">
        <ele>134.6299303</ele>
        <time>2022-08-18T05:45:06Z</time>
      </trkpt>
      <trkpt lat="45.06088" lon="1.02194">
        <ele>134.6299303</ele>
        <time>2022-08-18T05:45:10Z</time>
      </trkpt>
      <trkpt lat="45.0609" lon="1.02199">
        <ele>130.5877309</ele>
        <time>2022-08-18T05:45:12Z</time>
      </trkpt>
      <trkpt lat="45.0609" lon="1.02198">
        <ele>130.0349455</ele>
        <time>2022-08-18T05:45:14Z</time>
      </trkpt>
      <trkpt lat="45.0609" lon="1.02198">
        <ele>130.0355519</ele>
        <time>2022-08-18T05:45:16Z</time>
      </trkpt>
      <trkpt lat="45.0609" lon="1.02198">
        <ele>130.0355519</ele>
        <time>2022-08-18T05:45:20Z</time>
      </trkpt>
      <trkpt lat="45.0609" lon="1.02198">
        <ele>130.0355519</ele>
        <time>2022-08-18T05:45:24Z</time>
      </trkpt>
      <trkpt lat="45.06092" lon="1.02197">
        <ele>129.1091596</ele>
        <time>2022-08-18T05:45:26Z</time>
      </trkpt>
      <trkpt lat="45.06091" lon="1.02197">
        <ele>129.3283592</ele>
        <time>2022-08-18T05:45:28Z</time>
      </trkpt>
      <trkpt lat="45.06091" lon="1.02197">
        <ele>129.2615871</ele>
        <time>2022-08-18T05:45:30Z</time>
      </trkpt>
      <trkpt lat="45.06091" lon="1.02197">
        <ele>129.3461271</ele>
        <time>2022-08-18T05:45:32Z</time>
      </trkpt>
      <trkpt lat="45.06091" lon="1.02196">
        <ele>129.1804744</ele>
        <time>2022-08-18T05:45:34Z</time>
      </trkpt>
      <trkpt lat="45.06091" lon="1.02196">
        <ele>128.8233825</ele>
        <time>2022-08-18T05:45:36Z</time>
      </trkpt>
      <trkpt lat="45.06091" lon="1.02196">
        <ele>129.0754399</ele>
        <time>2022-08-18T05:45:40Z</time>
      </trkpt>
      <trkpt lat="45.06091" lon="1.02194">
        <ele>128.8309427</ele>
        <time>2022-08-18T05:45:42Z</time>
      </trkpt>
      <trkpt lat="45.06092" lon="1.02194">
        <ele>128.7898961</ele>
        <time>2022-08-18T05:45:44Z</time>
      </trkpt>
      <trkpt lat="45.06092" lon="1.02194">
        <ele>128.9818845</ele>
        <time>2022-08-18T05:45:46Z</time>
      </trkpt>
      <trkpt lat="45.06092" lon="1.02194">
        <ele>128.980446</ele>
        <time>2022-08-18T05:45:48Z</time>
      </trkpt>
      <trkpt lat="45.06093" lon="1.02197">
        <ele>130.3244101</ele>
        <time>2022-08-18T05:45:52Z</time>
      </trkpt>
      <trkpt lat="45.06093" lon="1.02196">
        <ele>130.2848414</ele>
        <time>2022-08-18T05:45:54Z</time>
      </trkpt>
      <trkpt lat="45.06093" lon="1.02196">
        <ele>130.5698357</ele>
        <time>2022-08-18T05:45:56Z</time>
      </trkpt>
      <trkpt lat="45.06094" lon="1.02196">
        <ele>128.8131739</ele>
        <time>2022-08-18T05:46:00Z</time>
      </trkpt>
      <trkpt lat="45.06096" lon="1.02195">
        <ele>128.6237067</ele>
        <time>2022-08-18T05:46:02Z</time>
      </trkpt>
      <trkpt lat="45.06099" lon="1.02194">
        <ele>128.5904825</ele>
        <time>2022-08-18T05:46:04Z</time>
      </trkpt>
      <trkpt lat="45.06102" lon="1.02195">
        <ele>128.2713915</ele>
        <time>2022-08-18T05:46:06Z</time>
      </trkpt>
      <trkpt lat="45.06105" lon="1.02196">
        <ele>127.809766</ele>
        <time>2022-08-18T05:46:08Z</time>
      </trkpt>
      <trkpt lat="45.06108" lon="1.02196">
        <ele>127.4992773</ele>
        <time>2022-08-18T05:46:10Z</time>
      </trkpt>
      <trkpt lat="45.06111" lon="1.02197">
        <ele>127.6254045</ele>
        <time>2022-08-18T05:46:12Z</time>
      </trkpt>
      <trkpt lat="45.06113" lon="1.02197">
        <ele>127.6544662</ele>
        <time>2022-08-18T05:46:14Z</time>
      </trkpt>
      <trkpt lat="45.06116" lon="1.02197">
        <ele>127.5929694</ele>
        <time>2022-08-18T05:46:16Z</time>
      </trkpt>
      <trkpt lat="45.06119" lon="1.02199">
        <ele>126.7118143</ele>
        <time>2022-08-18T05:46:18Z</time>
      </trkpt>
      <trkpt lat="45.06121" lon="1.02201">
        <ele>126.5957191</ele>
        <time>2022-08-18T05:46:20Z</time>
      </trkpt>
      <trkpt lat="45.06123" lon="1.02202">
        <ele>125.2430192</ele>
        <time>2022-08-18T05:46:22Z</time>
      </trkpt>
      <trkpt lat="45.06126" lon="1.02206">
        <ele>124.8279047</ele>
        <time>2022-08-18T05:46:24Z</time>
      </trkpt>
      <trkpt lat="45.06129" lon="1.02209">
        <ele>124.0945218</ele>
        <time>2022-08-18T05:46:26Z</time>
      </trkpt>
      <trkpt lat="45.06131" lon="1.02212">
        <ele>123.5368228</ele>
        <time>2022-08-18T05:46:28Z</time>
      </trkpt>
      <trkpt lat="45.06134" lon="1.02216">
        <ele>123.6107166</ele>
        <time>2022-08-18T05:46:30Z</time>
      </trkpt>
      <trkpt lat="45.06136" lon="1.02219">
        <ele>123.7027572</ele>
        <time>2022-08-18T05:46:32Z</time>
      </trkpt>
      <trkpt lat="45.06138" lon="1.02221">
        <ele>123.8407116</ele>
        <time>2022-08-18T05:46:34Z</time>
      </trkpt>
      <trkpt lat="45.06141" lon="1.02223">
        <ele>123.3658452</ele>
        <time>2022-08-18T05:46:36Z</time>
      </trkpt>
      <trkpt lat="45.06144" lon="1.02226">
        <ele>123.0792869</ele>
        <time>2022-08-18T05:46:38Z</time>
      </trkpt>
      <trkpt lat="45.06146" lon="1.02228">
        <ele>123.16089</ele>
        <time>2022-08-18T05:46:40Z</time>
      </trkpt>
      <trkpt lat="45.06149" lon="1.02229">
        <ele>123.0330894</ele>
        <time>2022-08-18T05:46:42Z</time>
      </trkpt>
      <trkpt lat="45.06152" lon="1.0223">
        <ele>122.6126701</ele>
        <time>2022-08-18T05:46:44Z</time>
      </trkpt>
      <trkpt lat="45.06154" lon="1.02231">
        <ele>122.6152654</ele>
        <time>2022-08-18T05:46:46Z</time>
      </trkpt>
      <trkpt lat="45.06157" lon="1.02232">
        <ele>122.6672488</ele>
        <time>2022-08-18T05:46:48Z</time>
      </trkpt>
      <trkpt lat="45.0616" lon="1.02234">
        <ele>122.8692804</ele>
        <time>2022-08-18T05:46:50Z</time>
      </trkpt>
      <trkpt lat="45.06162" lon="1.02236">
        <ele>124.1625945</ele>
        <time>2022-08-18T05:46:52Z</time>
      </trkpt>
      <trkpt lat="45.06164" lon="1.02238">
        <ele>124.5094189</ele>
        <time>2022-08-18T05:46:54Z</time>
      </trkpt>
      <trkpt lat="45.06167" lon="1.02239">
        <ele>124.3974089</ele>
        <time>2022-08-18T05:46:56Z</time>
      </trkpt>
      <trkpt lat="45.06169" lon="1.02239">
        <ele>124.5277383</ele>
        <time>2022-08-18T05:46:58Z</time>
      </trkpt>
      <trkpt lat="45.06172" lon="1.02238">
        <ele>124.4919643</ele>
        <time>2022-08-18T05:47:00Z</time>
      </trkpt>
      <trkpt lat="45.06174" lon="1.02237">
        <ele>124.8698301</ele>
        <time>2022-08-18T05:47:02Z</time>
      </trkpt>
      <trkpt lat="45.06177" lon="1.02238">
        <ele>124.6955306</ele>
        <time>2022-08-18T05:47:04Z</time>
      </trkpt>
      <trkpt lat="45.06179" lon="1.02241">
        <ele>124.8241905</ele>
        <time>2022-08-18T05:47:06Z</time>
      </trkpt>
      <trkpt lat="45.06179" lon="1.02243">
        <ele>124.3316646</ele>
        <time>2022-08-18T05:47:08Z</time>
      </trkpt>
      <trkpt lat="45.06178" lon="1.02246">
        <ele>124.4285071</ele>
        <time>2022-08-18T05:47:10Z</time>
      </trkpt>
      <trkpt lat="45.06178" lon="1.0225">
        <ele>123.828788</ele>
        <time>2022-08-18T05:47:12Z</time>
      </trkpt>
      <trkpt lat="45.06179" lon="1.02252">
        <ele>123.6562572</ele>
        <time>2022-08-18T05:47:14Z</time>
      </trkpt>
      <trkpt lat="45.06181" lon="1.02253">
        <ele>123.870291</ele>
        <time>2022-08-18T05:47:16Z</time>
      </trkpt>
      <trkpt lat="45.06183" lon="1.02253">
        <ele>124.7119562</ele>
        <time>2022-08-18T05:47:18Z</time>
      </trkpt>
      <trkpt lat="45.06185" lon="1.02251">
        <ele>124.991278</ele>
        <time>2022-08-18T05:47:20Z</time>
      </trkpt>
      <trkpt lat="45.06188" lon="1.02249">
        <ele>125.5337005</ele>
        <time>2022-08-18T05:47:22Z</time>
      </trkpt>
      <trkpt lat="45.0619" lon="1.02248">
        <ele>125.7789485</ele>
        <time>2022-08-18T05:47:24Z</time>
      </trkpt>
      <trkpt lat="45.06192" lon="1.02247">
        <ele>125.8645608</ele>
        <time>2022-08-18T05:47:26Z</time>
      </trkpt>
      <trkpt lat="45.06195" lon="1.02246">
        <ele>126.2649833</ele>
        <time>2022-08-18T05:47:28Z</time>
      </trkpt>
      <trkpt lat="45.06197" lon="1.02247">
        <ele>126.4511338</ele>
        <time>2022-08-18T05:47:30Z</time>
      </trkpt>
      <trkpt lat="45.06199" lon="1.02247">
        <ele>127.1634565</ele>
        <time>2022-08-18T05:47:32Z</time>
      </trkpt>
      <trkpt lat="45.06202" lon="1.02247">
        <ele>127.8973836</ele>
        <time>2022-08-18T05:47:34Z</time>
      </trkpt>
      <trkpt lat="45.06204" lon="1.02247">
        <ele>128.3255621</ele>
        <time>2022-08-18T05:47:36Z</time>
      </trkpt>
      <trkpt lat="45.06207" lon="1.02246">
        <ele>127.9480859</ele>
        <time>2022-08-18T05:47:38Z</time>
      </trkpt>
      <trkpt lat="45.0621" lon="1.02245">
        <ele>127.6912247</ele>
        <time>2022-08-18T05:47:40Z</time>
      </trkpt>
      <trkpt lat="45.06212" lon="1.02244">
        <ele>127.9721064</ele>
        <time>2022-08-18T05:47:42Z</time>
      </trkpt>
      <trkpt lat="45.06215" lon="1.02243">
        <ele>128.1278332</ele>
        <time>2022-08-18T05:47:44Z</time>
      </trkpt>
      <trkpt lat="45.06217" lon="1.02242">
        <ele>128.6661015</ele>
        <time>2022-08-18T05:47:46Z</time>
      </trkpt>
      <trkpt lat="45.0622" lon="1.02241">
        <ele>128.8909312</ele>
        <time>2022-08-18T05:47:48Z</time>
      </trkpt>
      <trkpt lat="45.06222" lon="1.0224">
        <ele>129.1500992</ele>
        <time>2022-08-18T05:47:50Z</time>
      </trkpt>
      <trkpt lat="45.06225" lon="1.02239">
        <ele>129.1168864</ele>
        <time>2022-08-18T05:47:52Z</time>
      </trkpt>
      <trkpt lat="45.06227" lon="1.02239">
        <ele>130.2746682</ele>
        <time>2022-08-18T05:47:54Z</time>
      </trkpt>
      <trkpt lat="45.0623" lon="1.02237">
        <ele>129.6187009</ele>
        <time>2022-08-18T05:47:56Z</time>
      </trkpt>
      <trkpt lat="45.06232" lon="1.02236">
        <ele>128.8457299</ele>
        <time>2022-08-18T05:47:58Z</time>
      </trkpt>
      <trkpt lat="45.06233" lon="1.02235">
        <ele>128.7727693</ele>
        <time>2022-08-18T05:48:00Z</time>
      </trkpt>
      <trkpt lat="45.06233" lon="1.02238">
        <ele>129.2363485</ele>
        <time>2022-08-18T05:48:02Z</time>
      </trkpt>
      <trkpt lat="45.06232" lon="1.02243">
        <ele>128.1238485</ele>
        <time>2022-08-18T05:48:04Z</time>
      </trkpt>
      <trkpt lat="45.06231" lon="1.02246">
        <ele>128.4367524</ele>
        <time>2022-08-18T05:48:06Z</time>
      </trkpt>
      <trkpt lat="45.06231" lon="1.02251">
        <ele>128.6230196</ele>
        <time>2022-08-18T05:48:08Z</time>
      </trkpt>
      <trkpt lat="45.0623" lon="1.02255">
        <ele>128.8648613</ele>
        <time>2022-08-18T05:48:10Z</time>
      </trkpt>
      <trkpt lat="45.06229" lon="1.02259">
        <ele>128.878847</ele>
        <time>2022-08-18T05:48:12Z</time>
      </trkpt>
      <trkpt lat="45.06228" lon="1.02262">
        <ele>128.9788935</ele>
        <time>2022-08-18T05:48:14Z</time>
      </trkpt>
      <trkpt lat="45.06226" lon="1.02265">
        <ele>130.0110216</ele>
        <time>2022-08-18T05:48:16Z</time>
      </trkpt>
      <trkpt lat="45.06226" lon="1.02269">
        <ele>130.6726659</ele>
        <time>2022-08-18T05:48:18Z</time>
      </trkpt>
      <trkpt lat="45.06224" lon="1.02272">
        <ele>131.4740641</ele>
        <time>2022-08-18T05:48:20Z</time>
      </trkpt>
      <trkpt lat="45.06225" lon="1.02276">
        <ele>131.4889357</ele>
        <time>2022-08-18T05:48:22Z</time>
      </trkpt>
      <trkpt lat="45.06227" lon="1.02278">
        <ele>132.6112378</ele>
        <time>2022-08-18T05:48:24Z</time>
      </trkpt>
      <trkpt lat="45.06229" lon="1.02277">
        <ele>132.1646184</ele>
        <time>2022-08-18T05:48:26Z</time>
      </trkpt>
      <trkpt lat="45.06232" lon="1.02274">
        <ele>131.7066098</ele>
        <time>2022-08-18T05:48:28Z</time>
      </trkpt>
      <trkpt lat="45.06235" lon="1.02274">
        <ele>131.6124651</ele>
        <time>2022-08-18T05:48:30Z</time>
      </trkpt>
      <trkpt lat="45.06237" lon="1.02273">
        <ele>131.8744646</ele>
        <time>2022-08-18T05:48:32Z</time>
      </trkpt>
      <trkpt lat="45.06241" lon="1.02273">
        <ele>131.6134637</ele>
        <time>2022-08-18T05:48:34Z</time>
      </trkpt>
      <trkpt lat="45.06244" lon="1.0227">
        <ele>131.6022806</ele>
        <time>2022-08-18T05:48:36Z</time>
      </trkpt>
      <trkpt lat="45.06247" lon="1.0227">
        <ele>132.8583</ele>
        <time>2022-08-18T05:48:38Z</time>
      </trkpt>
      <trkpt lat="45.06252" lon="1.02267">
        <ele>132.3033632</ele>
        <time>2022-08-18T05:48:40Z</time>
      </trkpt>
      <trkpt lat="45.06256" lon="1.02264">
        <ele>132.2702837</ele>
        <time>2022-08-18T05:48:42Z</time>
      </trkpt>
      <trkpt lat="45.06261" lon="1.02262">
        <ele>132.2169957</ele>
        <time>2022-08-18T05:48:44Z</time>
      </trkpt>
      <trkpt lat="45.06266" lon="1.02261">
        <ele>133.5924039</ele>
        <time>2022-08-18T05:48:46Z</time>
      </trkpt>
      <trkpt lat="45.06271" lon="1.02258">
        <ele>131.7405504</ele>
        <time>2022-08-18T05:48:48Z</time>
      </trkpt>
      <trkpt lat="45.06276" lon="1.02256">
        <ele>130.7161782</ele>
        <time>2022-08-18T05:48:50Z</time>
      </trkpt>
      <trkpt lat="45.06282" lon="1.02255">
        <ele>130.6403355</ele>
        <time>2022-08-18T05:48:52Z</time>
      </trkpt>
      <trkpt lat="45.06288" lon="1.02253">
        <ele>130.5079946</ele>
        <time>2022-08-18T05:48:54Z</time>
      </trkpt>
      <trkpt lat="45.06294" lon="1.02252">
        <ele>129.8611637</ele>
        <time>2022-08-18T05:48:56Z</time>
      </trkpt>
      <trkpt lat="45.06301" lon="1.0225">
        <ele>129.2218001</ele>
        <time>2022-08-18T05:48:58Z</time>
      </trkpt>
      <trkpt lat="45.06306" lon="1.02249">
        <ele>128.5548319</ele>
        <time>2022-08-18T05:49:00Z</time>
      </trkpt>
      <trkpt lat="45.06312" lon="1.02248">
        <ele>128.4129501</ele>
        <time>2022-08-18T05:49:02Z</time>
      </trkpt>
      <trkpt lat="45.06318" lon="1.02246">
        <ele>127.9385183</ele>
        <time>2022-08-18T05:49:04Z</time>
      </trkpt>
      <trkpt lat="45.06323" lon="1.02244">
        <ele>128.0872436</ele>
        <time>2022-08-18T05:49:06Z</time>
      </trkpt>
      <trkpt lat="45.06329" lon="1.02243">
        <ele>128.1232149</ele>
        <time>2022-08-18T05:49:08Z</time>
      </trkpt>
      <trkpt lat="45.06335" lon="1.0224">
        <ele>128.4750014</ele>
        <time>2022-08-18T05:49:10Z</time>
      </trkpt>
      <trkpt lat="45.0634" lon="1.02238">
        <ele>129.1638363</ele>
        <time>2022-08-18T05:49:12Z</time>
      </trkpt>
      <trkpt lat="45.06345" lon="1.02235">
        <ele>129.1195284</ele>
        <time>2022-08-18T05:49:14Z</time>
      </trkpt>
      <trkpt lat="45.06351" lon="1.02233">
        <ele>128.7704953</ele>
        <time>2022-08-18T05:49:16Z</time>
      </trkpt>
      <trkpt lat="45.06357" lon="1.02231">
        <ele>128.8263068</ele>
        <time>2022-08-18T05:49:18Z</time>
      </trkpt>
      <trkpt lat="45.06363" lon="1.02229">
        <ele>128.9074488</ele>
        <time>2022-08-18T05:49:20Z</time>
      </trkpt>
      <trkpt lat="45.0637" lon="1.02226">
        <ele>129.2143063</ele>
        <time>2022-08-18T05:49:22Z</time>
      </trkpt>
      <trkpt lat="45.06377" lon="1.02223">
        <ele>129.4587728</ele>
        <time>2022-08-18T05:49:24Z</time>
      </trkpt>
      <trkpt lat="45.06384" lon="1.02219">
        <ele>129.1168836</ele>
        <time>2022-08-18T05:49:26Z</time>
      </trkpt>
      <trkpt lat="45.06391" lon="1.02216">
        <ele>129.3377753</ele>
        <time>2022-08-18T05:49:28Z</time>
      </trkpt>
      <trkpt lat="45.06398" lon="1.02212">
        <ele>129.7267732</ele>
        <time>2022-08-18T05:49:30Z</time>
      </trkpt>
      <trkpt lat="45.06405" lon="1.02209">
        <ele>129.56483</ele>
        <time>2022-08-18T05:49:32Z</time>
      </trkpt>
      <trkpt lat="45.06412" lon="1.02206">
        <ele>129.4917984</ele>
        <time>2022-08-18T05:49:34Z</time>
      </trkpt>
      <trkpt lat="45.06418" lon="1.02202">
        <ele>129.2936018</ele>
        <time>2022-08-18T05:49:36Z</time>
      </trkpt>
      <trkpt lat="45.06425" lon="1.022">
        <ele>129.312119</ele>
        <time>2022-08-18T05:49:38Z</time>
      </trkpt>
      <trkpt lat="45.0643" lon="1.02198">
        <ele>129.257485</ele>
        <time>2022-08-18T05:49:40Z</time>
      </trkpt>
      <trkpt lat="45.06433" lon="1.02197">
        <ele>128.3341216</ele>
        <time>2022-08-18T05:49:42Z</time>
      </trkpt>
      <trkpt lat="45.06432" lon="1.02197">
        <ele>128.8394303</ele>
        <time>2022-08-18T05:49:44Z</time>
      </trkpt>
      <trkpt lat="45.06432" lon="1.02197">
        <ele>128.4354734</ele>
        <time>2022-08-18T05:49:46Z</time>
      </trkpt>
      <trkpt lat="45.06432" lon="1.02198">
        <ele>128.3226747</ele>
        <time>2022-08-18T05:49:48Z</time>
      </trkpt>
      <trkpt lat="45.06433" lon="1.02197">
        <ele>127.677485</ele>
        <time>2022-08-18T05:49:52Z</time>
      </trkpt>
      <trkpt lat="45.06433" lon="1.02197">
        <ele>127.5009628</ele>
        <time>2022-08-18T05:49:54Z</time>
      </trkpt>
      <trkpt lat="45.06434" lon="1.02195">
        <ele>127.9723419</ele>
        <time>2022-08-18T05:49:56Z</time>
      </trkpt>
      <trkpt lat="45.06437" lon="1.02193">
        <ele>127.4661377</ele>
        <time>2022-08-18T05:49:58Z</time>
      </trkpt>
      <trkpt lat="45.06442" lon="1.0219">
        <ele>127.683891</ele>
        <time>2022-08-18T05:50:00Z</time>
      </trkpt>
      <trkpt lat="45.06448" lon="1.02188">
        <ele>127.1751978</ele>
        <time>2022-08-18T05:50:02Z</time>
      </trkpt>
      <trkpt lat="45.06454" lon="1.02185">
        <ele>127.1691256</ele>
        <time>2022-08-18T05:50:04Z</time>
      </trkpt>
      <trkpt lat="45.0646" lon="1.02182">
        <ele>127.4877686</ele>
        <time>2022-08-18T05:50:06Z</time>
      </trkpt>
      <trkpt lat="45.06467" lon="1.02178">
        <ele>127.7880499</ele>
        <time>2022-08-18T05:50:08Z</time>
      </trkpt>
      <trkpt lat="45.06474" lon="1.02176">
        <ele>127.6811989</ele>
        <time>2022-08-18T05:50:10Z</time>
      </trkpt>
      <trkpt lat="45.06481" lon="1.02173">
        <ele>127.5248514</ele>
        <time>2022-08-18T05:50:12Z</time>
      </trkpt>
      <trkpt lat="45.06488" lon="1.02171">
        <ele>127.7131573</ele>
        <time>2022-08-18T05:50:14Z</time>
      </trkpt>
      <trkpt lat="45.06494" lon="1.02167">
        <ele>128.3065587</ele>
        <time>2022-08-18T05:50:16Z</time>
      </trkpt>
      <trkpt lat="45.06501" lon="1.02164">
        <ele>128.8606863</ele>
        <time>2022-08-18T05:50:18Z</time>
      </trkpt>
      <trkpt lat="45.06508" lon="1.02161">
        <ele>129.2259832</ele>
        <time>2022-08-18T05:50:20Z</time>
      </trkpt>
      <trkpt lat="45.06513" lon="1.0216">
        <ele>130.5691504</ele>
        <time>2022-08-18T05:50:22Z</time>
      </trkpt>
      <trkpt lat="45.0652" lon="1.02156">
        <ele>130.366968</ele>
        <time>2022-08-18T05:50:24Z</time>
      </trkpt>
      <trkpt lat="45.06525" lon="1.02155">
        <ele>130.9881862</ele>
        <time>2022-08-18T05:50:26Z</time>
      </trkpt>
      <trkpt lat="45.06531" lon="1.02153">
        <ele>131.0334028</ele>
        <time>2022-08-18T05:50:28Z</time>
      </trkpt>
      <trkpt lat="45.06537" lon="1.02153">
        <ele>130.4235615</ele>
        <time>2022-08-18T05:50:30Z</time>
      </trkpt>
      <trkpt lat="45.06542" lon="1.02153">
        <ele>130.613297</ele>
        <time>2022-08-18T05:50:32Z</time>
      </trkpt>
      <trkpt lat="45.06547" lon="1.02152">
        <ele>131.6940087</ele>
        <time>2022-08-18T05:50:34Z</time>
      </trkpt>
      <trkpt lat="45.06552" lon="1.02153">
        <ele>131.8050544</ele>
        <time>2022-08-18T05:50:36Z</time>
      </trkpt>
      <trkpt lat="45.06559" lon="1.02154">
        <ele>131.8555128</ele>
        <time>2022-08-18T05:50:38Z</time>
      </trkpt>
      <trkpt lat="45.06565" lon="1.02154">
        <ele>131.9153718</ele>
        <time>2022-08-18T05:50:40Z</time>
      </trkpt>
      <trkpt lat="45.06573" lon="1.02155">
        <ele>132.0474523</ele>
        <time>2022-08-18T05:50:42Z</time>
      </trkpt>
      <trkpt lat="45.06581" lon="1.02156">
        <ele>131.8034611</ele>
        <time>2022-08-18T05:50:44Z</time>
      </trkpt>
      <trkpt lat="45.06588" lon="1.02156">
        <ele>131.4398344</ele>
        <time>2022-08-18T05:50:46Z</time>
      </trkpt>
      <trkpt lat="45.06595" lon="1.02155">
        <ele>131.2286516</ele>
        <time>2022-08-18T05:50:48Z</time>
      </trkpt>
      <trkpt lat="45.06604" lon="1.02154">
        <ele>129.9436852</ele>
        <time>2022-08-18T05:50:50Z</time>
      </trkpt>
      <trkpt lat="45.06611" lon="1.02152">
        <ele>130.4607547</ele>
        <time>2022-08-18T05:50:52Z</time>
      </trkpt>
      <trkpt lat="45.06619" lon="1.0215">
        <ele>129.8182935</ele>
        <time>2022-08-18T05:50:54Z</time>
      </trkpt>
      <trkpt lat="45.06627" lon="1.02147">
        <ele>130.3636908</ele>
        <time>2022-08-18T05:50:56Z</time>
      </trkpt>
      <trkpt lat="45.06635" lon="1.02145">
        <ele>130.2980571</ele>
        <time>2022-08-18T05:50:58Z</time>
      </trkpt>
      <trkpt lat="45.06643" lon="1.02145">
        <ele>130.5216186</ele>
        <time>2022-08-18T05:51:00Z</time>
      </trkpt>
      <trkpt lat="45.06649" lon="1.02145">
        <ele>130.9266939</ele>
        <time>2022-08-18T05:51:02Z</time>
      </trkpt>
      <trkpt lat="45.06656" lon="1.02144">
        <ele>130.6493082</ele>
        <time>2022-08-18T05:51:04Z</time>
      </trkpt>
      <trkpt lat="45.06662" lon="1.02144">
        <ele>130.6222672</ele>
        <time>2022-08-18T05:51:06Z</time>
      </trkpt>
      <trkpt lat="45.06668" lon="1.02143">
        <ele>130.5543508</ele>
        <time>2022-08-18T05:51:08Z</time>
      </trkpt>
      <trkpt lat="45.06674" lon="1.02143">
        <ele>131.0798923</ele>
        <time>2022-08-18T05:51:10Z</time>
      </trkpt>
      <trkpt lat="45.06679" lon="1.02143">
        <ele>131.2519398</ele>
        <time>2022-08-18T05:51:12Z</time>
      </trkpt>
      <trkpt lat="45.06685" lon="1.02144">
        <ele>131.3127351</ele>
        <time>2022-08-18T05:51:14Z</time>
      </trkpt>
      <trkpt lat="45.06692" lon="1.02144">
        <ele>132.0006673</ele>
        <time>2022-08-18T05:51:16Z</time>
      </trkpt>
      <trkpt lat="45.06697" lon="1.02147">
        <ele>132.4192332</ele>
        <time>2022-08-18T05:51:18Z</time>
      </trkpt>
      <trkpt lat="45.06704" lon="1.02149">
        <ele>132.7712552</ele>
        <time>2022-08-18T05:51:20Z</time>
      </trkpt>
      <trkpt lat="45.06712" lon="1.02149">
        <ele>132.2968625</ele>
        <time>2022-08-18T05:51:22Z</time>
      </trkpt>
      <trkpt lat="45.06721" lon="1.02149">
        <ele>131.8265735</ele>
        <time>2022-08-18T05:51:24Z</time>
      </trkpt>
      <trkpt lat="45.06728" lon="1.02153">
        <ele>132.5113663</ele>
        <time>2022-08-18T05:51:26Z</time>
      </trkpt>
      <trkpt lat="45.06737" lon="1.0215">
        <ele>132.2634522</ele>
        <time>2022-08-18T05:51:28Z</time>
      </trkpt>
      <trkpt lat="45.06746" lon="1.02154">
        <ele>131.226775</ele>
        <time>2022-08-18T05:51:30Z</time>
      </trkpt>
      <trkpt lat="45.06753" lon="1.02154">
        <ele>132.03527</ele>
        <time>2022-08-18T05:51:32Z</time>
      </trkpt>
      <trkpt lat="45.0676" lon="1.02154">
        <ele>132.3775046</ele>
        <time>2022-08-18T05:51:34Z</time>
      </trkpt>
      <trkpt lat="45.06767" lon="1.02154">
        <ele>133.321846</ele>
        <time>2022-08-18T05:51:36Z</time>
      </trkpt>
      <trkpt lat="45.06774" lon="1.02154">
        <ele>133.7122087</ele>
        <time>2022-08-18T05:51:38Z</time>
      </trkpt>
      <trkpt lat="45.06782" lon="1.02152">
        <ele>134.4097869</ele>
        <time>2022-08-18T05:51:40Z</time>
      </trkpt>
      <trkpt lat="45.06789" lon="1.0215">
        <ele>134.4116258</ele>
        <time>2022-08-18T05:51:42Z</time>
      </trkpt>
      <trkpt lat="45.06794" lon="1.02151">
        <ele>134.927798</ele>
        <time>2022-08-18T05:51:44Z</time>
      </trkpt>
      <trkpt lat="45.06799" lon="1.02148">
        <ele>135.1027048</ele>
        <time>2022-08-18T05:51:46Z</time>
      </trkpt>
      <trkpt lat="45.06807" lon="1.02149">
        <ele>135.0973358</ele>
        <time>2022-08-18T05:51:48Z</time>
      </trkpt>
      <trkpt lat="45.06814" lon="1.02151">
        <ele>135.4267194</ele>
        <time>2022-08-18T05:51:50Z</time>
      </trkpt>
      <trkpt lat="45.06821" lon="1.02152">
        <ele>135.408198</ele>
        <time>2022-08-18T05:51:52Z</time>
      </trkpt>
      <trkpt lat="45.0683" lon="1.02152">
        <ele>134.7394212</ele>
        <time>2022-08-18T05:51:54Z</time>
      </trkpt>
      <trkpt lat="45.06837" lon="1.02153">
        <ele>135.4361855</ele>
        <time>2022-08-18T05:51:56Z</time>
      </trkpt>
      <trkpt lat="45.06843" lon="1.02154">
        <ele>135.999887</ele>
        <time>2022-08-18T05:51:58Z</time>
      </trkpt>
      <trkpt lat="45.0685" lon="1.02156">
        <ele>136.0136314</ele>
        <time>2022-08-18T05:52:00Z</time>
      </trkpt>
      <trkpt lat="45.06857" lon="1.02157">
        <ele>136.522937</ele>
        <time>2022-08-18T05:52:02Z</time>
      </trkpt>
      <trkpt lat="45.06863" lon="1.02158">
        <ele>136.3050359</ele>
        <time>2022-08-18T05:52:04Z</time>
      </trkpt>
      <trkpt lat="45.0687" lon="1.0216">
        <ele>136.6066087</ele>
        <time>2022-08-18T05:52:06Z</time>
      </trkpt>
      <trkpt lat="45.06876" lon="1.02161">
        <ele>136.9152392</ele>
        <time>2022-08-18T05:52:08Z</time>
      </trkpt>
      <trkpt lat="45.06882" lon="1.02163">
        <ele>137.2426252</ele>
        <time>2022-08-18T05:52:10Z</time>
      </trkpt>
      <trkpt lat="45.06889" lon="1.02163">
        <ele>136.3148016</ele>
        <time>2022-08-18T05:52:12Z</time>
      </trkpt>
      <trkpt lat="45.06895" lon="1.02165">
        <ele>135.9613821</ele>
        <time>2022-08-18T05:52:14Z</time>
      </trkpt>
      <trkpt lat="45.06902" lon="1.02167">
        <ele>136.3150394</ele>
        <time>2022-08-18T05:52:16Z</time>
      </trkpt>
      <trkpt lat="45.06909" lon="1.0217">
        <ele>136.2039474</ele>
        <time>2022-08-18T05:52:18Z</time>
      </trkpt>
      <trkpt lat="45.06916" lon="1.02172">
        <ele>136.4125884</ele>
        <time>2022-08-18T05:52:20Z</time>
      </trkpt>
      <trkpt lat="45.06922" lon="1.02176">
        <ele>136.9898535</ele>
        <time>2022-08-18T05:52:22Z</time>
      </trkpt>
      <trkpt lat="45.06929" lon="1.02179">
        <ele>136.8173789</ele>
        <time>2022-08-18T05:52:24Z</time>
      </trkpt>
      <trkpt lat="45.06935" lon="1.02182">
        <ele>137.3318538</ele>
        <time>2022-08-18T05:52:26Z</time>
      </trkpt>
      <trkpt lat="45.06942" lon="1.02185">
        <ele>137.2530154</ele>
        <time>2022-08-18T05:52:28Z</time>
      </trkpt>
      <trkpt lat="45.06949" lon="1.02188">
        <ele>137.39441</ele>
        <time>2022-08-18T05:52:30Z</time>
      </trkpt>
      <trkpt lat="45.06955" lon="1.02192">
        <ele>137.6191304</ele>
        <time>2022-08-18T05:52:32Z</time>
      </trkpt>
      <trkpt lat="45.06961" lon="1.02195">
        <ele>138.0519545</ele>
        <time>2022-08-18T05:52:34Z</time>
      </trkpt>
      <trkpt lat="45.06968" lon="1.02198">
        <ele>137.7060676</ele>
        <time>2022-08-18T05:52:36Z</time>
      </trkpt>
      <trkpt lat="45.06974" lon="1.02202">
        <ele>138.1506602</ele>
        <time>2022-08-18T05:52:38Z</time>
      </trkpt>
      <trkpt lat="45.0698" lon="1.02205">
        <ele>138.6683228</ele>
        <time>2022-08-18T05:52:40Z</time>
      </trkpt>
      <trkpt lat="45.06986" lon="1.02207">
        <ele>138.4223401</ele>
        <time>2022-08-18T05:52:42Z</time>
      </trkpt>
      <trkpt lat="45.06992" lon="1.02211">
        <ele>138.6472205</ele>
        <time>2022-08-18T05:52:44Z</time>
      </trkpt>
      <trkpt lat="45.06998" lon="1.02213">
        <ele>138.4076438</ele>
        <time>2022-08-18T05:52:46Z</time>
      </trkpt>
      <trkpt lat="45.07004" lon="1.02216">
        <ele>138.5137908</ele>
        <time>2022-08-18T05:52:48Z</time>
      </trkpt>
      <trkpt lat="45.07009" lon="1.02219">
        <ele>139.1089457</ele>
        <time>2022-08-18T05:52:50Z</time>
      </trkpt>
      <trkpt lat="45.07014" lon="1.02222">
        <ele>139.3233166</ele>
        <time>2022-08-18T05:52:52Z</time>
      </trkpt>
      <trkpt lat="45.07018" lon="1.02223">
        <ele>139.8730906</ele>
        <time>2022-08-18T05:52:54Z</time>
      </trkpt>
      <trkpt lat="45.07022" lon="1.02225">
        <ele>139.7322916</ele>
        <time>2022-08-18T05:52:56Z</time>
      </trkpt>
      <trkpt lat="45.07023" lon="1.02227">
        <ele>140.1806425</ele>
        <time>2022-08-18T05:52:58Z</time>
      </trkpt>
      <trkpt lat="45.07024" lon="1.02229">
        <ele>139.5166399</ele>
        <time>2022-08-18T05:53:00Z</time>
      </trkpt>
      <trkpt lat="45.07024" lon="1.02228">
        <ele>139.4640092</ele>
        <time>2022-08-18T05:53:02Z</time>
      </trkpt>
      <trkpt lat="45.07025" lon="1.02228">
        <ele>138.6683294</ele>
        <time>2022-08-18T05:53:04Z</time>
      </trkpt>
      <trkpt lat="45.07026" lon="1.02228">
        <ele>137.8689753</ele>
        <time>2022-08-18T05:53:06Z</time>
      </trkpt>
      <trkpt lat="45.07026" lon="1.02228">
        <ele>137.8689753</ele>
        <time>2022-08-18T05:53:10Z</time>
      </trkpt>
      <trkpt lat="45.07027" lon="1.02225">
        <ele>138.0567691</ele>
        <time>2022-08-18T05:53:14Z</time>
      </trkpt>
      <trkpt lat="45.07027" lon="1.02225">
        <ele>138.6677372</ele>
        <time>2022-08-18T05:53:18Z</time>
      </trkpt>
      <trkpt lat="45.07027" lon="1.02226">
        <ele>139.0296604</ele>
        <time>2022-08-18T05:53:20Z</time>
      </trkpt>
      <trkpt lat="45.07026" lon="1.02227">
        <ele>138.465325</ele>
        <time>2022-08-18T05:53:24Z</time>
      </trkpt>
      <trkpt lat="45.07026" lon="1.02227">
        <ele>138.0803026</ele>
        <time>2022-08-18T05:53:26Z</time>
      </trkpt>
      <trkpt lat="45.07027" lon="1.02227">
        <ele>137.7745076</ele>
        <time>2022-08-18T05:53:28Z</time>
      </trkpt>
      <trkpt lat="45.07027" lon="1.02227">
        <ele>137.7058999</ele>
        <time>2022-08-18T05:53:30Z</time>
      </trkpt>
      <trkpt lat="45.07027" lon="1.02227">
        <ele>136.9448759</ele>
        <time>2022-08-18T05:53:32Z</time>
      </trkpt>
      <trkpt lat="45.07027" lon="1.02227">
        <ele>136.9071303</ele>
        <time>2022-08-18T05:53:34Z</time>
      </trkpt>
      <trkpt lat="45.07027" lon="1.02227">
        <ele>136.9071303</ele>
        <time>2022-08-18T05:53:38Z</time>
      </trkpt>
      <trkpt lat="45.07027" lon="1.02227">
        <ele>136.9071303</ele>
        <time>2022-08-18T05:53:42Z</time>
      </trkpt>
      <trkpt lat="45.07027" lon="1.02227">
        <ele>136.9071303</ele>
        <time>2022-08-18T05:53:46Z</time>
      </trkpt>
      <trkpt lat="45.07028" lon="1.02224">
        <ele>138.3614532</ele>
        <time>2022-08-18T05:53:48Z</time>
      </trkpt>
      <trkpt lat="45.07029" lon="1.02225">
        <ele>137.4573594</ele>
        <time>2022-08-18T05:53:50Z</time>
      </trkpt>
      <trkpt lat="45.07031" lon="1.02225">
        <ele>137.9960107</ele>
        <time>2022-08-18T05:53:52Z</time>
      </trkpt>
      <trkpt lat="45.07034" lon="1.02225">
        <ele>138.1148207</ele>
        <time>2022-08-18T05:53:54Z</time>
      </trkpt>
      <trkpt lat="45.07038" lon="1.02227">
        <ele>137.3923371</ele>
        <time>2022-08-18T05:53:56Z</time>
      </trkpt>
      <trkpt lat="45.07042" lon="1.02228">
        <ele>137.783285</ele>
        <time>2022-08-18T05:53:58Z</time>
      </trkpt>
      <trkpt lat="45.07046" lon="1.02229">
        <ele>138.8023567</ele>
        <time>2022-08-18T05:54:00Z</time>
      </trkpt>
      <trkpt lat="45.07051" lon="1.02233">
        <ele>138.0954372</ele>
        <time>2022-08-18T05:54:02Z</time>
      </trkpt>
      <trkpt lat="45.07056" lon="1.02234">
        <ele>138.4452981</ele>
        <time>2022-08-18T05:54:04Z</time>
      </trkpt>
      <trkpt lat="45.07062" lon="1.02236">
        <ele>138.4031765</ele>
        <time>2022-08-18T05:54:06Z</time>
      </trkpt>
      <trkpt lat="45.07067" lon="1.02239">
        <ele>137.9681813</ele>
        <time>2022-08-18T05:54:08Z</time>
      </trkpt>
      <trkpt lat="45.07074" lon="1.02242">
        <ele>137.9761878</ele>
        <time>2022-08-18T05:54:10Z</time>
      </trkpt>
      <trkpt lat="45.07082" lon="1.02245">
        <ele>137.9294317</ele>
        <time>2022-08-18T05:54:12Z</time>
      </trkpt>
      <trkpt lat="45.0709" lon="1.02248">
        <ele>137.8103316</ele>
        <time>2022-08-18T05:54:14Z</time>
      </trkpt>
      <trkpt lat="45.07097" lon="1.02252">
        <ele>137.4969629</ele>
        <time>2022-08-18T05:54:16Z</time>
      </trkpt>
      <trkpt lat="45.07106" lon="1.02255">
        <ele>137.4998524</ele>
        <time>2022-08-18T05:54:18Z</time>
      </trkpt>
      <trkpt lat="45.07114" lon="1.02262">
        <ele>136.9122664</ele>
        <time>2022-08-18T05:54:20Z</time>
      </trkpt>
      <trkpt lat="45.07122" lon="1.02269">
        <ele>137.049073</ele>
        <time>2022-08-18T05:54:22Z</time>
      </trkpt>
      <trkpt lat="45.07127" lon="1.02277">
        <ele>137.417651</ele>
        <time>2022-08-18T05:54:24Z</time>
      </trkpt>
      <trkpt lat="45.07132" lon="1.02286">
        <ele>136.1352584</ele>
        <time>2022-08-18T05:54:26Z</time>
      </trkpt>
      <trkpt lat="45.07139" lon="1.02296">
        <ele>137.4222865</ele>
        <time>2022-08-18T05:54:28Z</time>
      </trkpt>
      <trkpt lat="45.07145" lon="1.02305">
        <ele>137.4098175</ele>
        <time>2022-08-18T05:54:30Z</time>
      </trkpt>
      <trkpt lat="45.0715" lon="1.02315">
        <ele>136.7459463</ele>
        <time>2022-08-18T05:54:32Z</time>
      </trkpt>
      <trkpt lat="45.07155" lon="1.02322">
        <ele>137.7069453</ele>
        <time>2022-08-18T05:54:34Z</time>
      </trkpt>
      <trkpt lat="45.07162" lon="1.02329">
        <ele>137.3170127</ele>
        <time>2022-08-18T05:54:36Z</time>
      </trkpt>
      <trkpt lat="45.07168" lon="1.02335">
        <ele>137.9509376</ele>
        <time>2022-08-18T05:54:38Z</time>
      </trkpt>
      <trkpt lat="45.07175" lon="1.02342">
        <ele>139.5564082</ele>
        <time>2022-08-18T05:54:40Z</time>
      </trkpt>
      <trkpt lat="45.07181" lon="1.02347">
        <ele>139.8960301</ele>
        <time>2022-08-18T05:54:42Z</time>
      </trkpt>
      <trkpt lat="45.07189" lon="1.02353">
        <ele>139.3864296</ele>
        <time>2022-08-18T05:54:44Z</time>
      </trkpt>
      <trkpt lat="45.07196" lon="1.02361">
        <ele>138.6756341</ele>
        <time>2022-08-18T05:54:46Z</time>
      </trkpt>
      <trkpt lat="45.07204" lon="1.02367">
        <ele>138.510155</ele>
        <time>2022-08-18T05:54:48Z</time>
      </trkpt>
      <trkpt lat="45.0721" lon="1.02373">
        <ele>138.1360226</ele>
        <time>2022-08-18T05:54:50Z</time>
      </trkpt>
      <trkpt lat="45.07217" lon="1.02378">
        <ele>139.036306</ele>
        <time>2022-08-18T05:54:52Z</time>
      </trkpt>
      <trkpt lat="45.07223" lon="1.02384">
        <ele>139.0324133</ele>
        <time>2022-08-18T05:54:54Z</time>
      </trkpt>
      <trkpt lat="45.0723" lon="1.02389">
        <ele>138.2409799</ele>
        <time>2022-08-18T05:54:56Z</time>
      </trkpt>
      <trkpt lat="45.07236" lon="1.02393">
        <ele>139.5446605</ele>
        <time>2022-08-18T05:54:58Z</time>
      </trkpt>
      <trkpt lat="45.07242" lon="1.02397">
        <ele>138.6161375</ele>
        <time>2022-08-18T05:55:00Z</time>
      </trkpt>
      <trkpt lat="45.07248" lon="1.024">
        <ele>138.7162504</ele>
        <time>2022-08-18T05:55:02Z</time>
      </trkpt>
      <trkpt lat="45.07254" lon="1.02401">
        <ele>138.2501827</ele>
        <time>2022-08-18T05:55:04Z</time>
      </trkpt>
      <trkpt lat="45.0726" lon="1.02404">
        <ele>137.6988198</ele>
        <time>2022-08-18T05:55:06Z</time>
      </trkpt>
      <trkpt lat="45.07266" lon="1.02407">
        <ele>137.3785015</ele>
        <time>2022-08-18T05:55:08Z</time>
      </trkpt>
      <trkpt lat="45.07273" lon="1.02407">
        <ele>137.3938142</ele>
        <time>2022-08-18T05:55:10Z</time>
      </trkpt>
      <trkpt lat="45.07279" lon="1.02408">
        <ele>137.3436471</ele>
        <time>2022-08-18T05:55:12Z</time>
      </trkpt>
      <trkpt lat="45.07287" lon="1.02405">
        <ele>137.0499108</ele>
        <time>2022-08-18T05:55:14Z</time>
      </trkpt>
      <trkpt lat="45.07294" lon="1.02398">
        <ele>134.4696767</ele>
        <time>2022-08-18T05:55:16Z</time>
      </trkpt>
      <trkpt lat="45.073" lon="1.02383">
        <ele>134.5722876</ele>
        <time>2022-08-18T05:55:18Z</time>
      </trkpt>
      <trkpt lat="45.07302" lon="1.02367">
        <ele>132.8935662</ele>
        <time>2022-08-18T05:55:20Z</time>
      </trkpt>
      <trkpt lat="45.07306" lon="1.02353">
        <ele>133.9335266</ele>
        <time>2022-08-18T05:55:22Z</time>
      </trkpt>
      <trkpt lat="45.07309" lon="1.02338">
        <ele>133.4814895</ele>
        <time>2022-08-18T05:55:24Z</time>
      </trkpt>
      <trkpt lat="45.07314" lon="1.02322">
        <ele>133.2874741</ele>
        <time>2022-08-18T05:55:26Z</time>
      </trkpt>
      <trkpt lat="45.07318" lon="1.02308">
        <ele>133.8860865</ele>
        <time>2022-08-18T05:55:28Z</time>
      </trkpt>
      <trkpt lat="45.07322" lon="1.02296">
        <ele>134.6155779</ele>
        <time>2022-08-18T05:55:30Z</time>
      </trkpt>
      <trkpt lat="45.07326" lon="1.02285">
        <ele>135.4298153</ele>
        <time>2022-08-18T05:55:32Z</time>
      </trkpt>
      <trkpt lat="45.07329" lon="1.02276">
        <ele>135.7078876</ele>
        <time>2022-08-18T05:55:34Z</time>
      </trkpt>
      <trkpt lat="45.07331" lon="1.02269">
        <ele>136.2013384</ele>
        <time>2022-08-18T05:55:36Z</time>
      </trkpt>
      <trkpt lat="45.07334" lon="1.02261">
        <ele>136.4756037</ele>
        <time>2022-08-18T05:55:38Z</time>
      </trkpt>
      <trkpt lat="45.07336" lon="1.02254">
        <ele>136.6273785</ele>
        <time>2022-08-18T05:55:40Z</time>
      </trkpt>
      <trkpt lat="45.07339" lon="1.02247">
        <ele>137.115349</ele>
        <time>2022-08-18T05:55:42Z</time>
      </trkpt>
      <trkpt lat="45.07341" lon="1.02241">
        <ele>137.597039</ele>
        <time>2022-08-18T05:55:44Z</time>
      </trkpt>
      <trkpt lat="45.07344" lon="1.02235">
        <ele>138.1891814</ele>
        <time>2022-08-18T05:55:46Z</time>
      </trkpt>
      <trkpt lat="45.07347" lon="1.02229">
        <ele>138.050858</ele>
        <time>2022-08-18T05:55:48Z</time>
      </trkpt>
      <trkpt lat="45.0735" lon="1.02223">
        <ele>138.6764006</ele>
        <time>2022-08-18T05:55:50Z</time>
      </trkpt>
      <trkpt lat="45.07353" lon="1.02218">
        <ele>138.8780453</ele>
        <time>2022-08-18T05:55:52Z</time>
      </trkpt>
      <trkpt lat="45.07357" lon="1.02213">
        <ele>138.9422736</ele>
        <time>2022-08-18T05:55:54Z</time>
      </trkpt>
      <trkpt lat="45.0736" lon="1.02207">
        <ele>139.4141839</ele>
        <time>2022-08-18T05:55:56Z</time>
      </trkpt>
      <trkpt lat="45.07364" lon="1.02202">
        <ele>139.7012461</ele>
        <time>2022-08-18T05:55:58Z</time>
      </trkpt>
      <trkpt lat="45.07368" lon="1.02198">
        <ele>140.7047468</ele>
        <time>2022-08-18T05:56:00Z</time>
      </trkpt>
      <trkpt lat="45.07372" lon="1.02194">
        <ele>141.4473812</ele>
        <time>2022-08-18T05:56:02Z</time>
      </trkpt>
      <trkpt lat="45.07376" lon="1.0219">
        <ele>142.1238897</ele>
        <time>2022-08-18T05:56:04Z</time>
      </trkpt>
      <trkpt lat="45.07381" lon="1.02187">
        <ele>142.7815503</ele>
        <time>2022-08-18T05:56:06Z</time>
      </trkpt>
      <trkpt lat="45.07386" lon="1.02183">
        <ele>142.6319466</ele>
        <time>2022-08-18T05:56:08Z</time>
      </trkpt>
      <trkpt lat="45.07391" lon="1.02179">
        <ele>143.2295927</ele>
        <time>2022-08-18T05:56:10Z</time>
      </trkpt>
      <trkpt lat="45.07398" lon="1.02178">
        <ele>143.9281006</ele>
        <time>2022-08-18T05:56:12Z</time>
      </trkpt>
      <trkpt lat="45.07405" lon="1.02175">
        <ele>143.2954294</ele>
        <time>2022-08-18T05:56:14Z</time>
      </trkpt>
      <trkpt lat="45.07412" lon="1.02175">
        <ele>143.6073811</ele>
        <time>2022-08-18T05:56:16Z</time>
      </trkpt>
      <trkpt lat="45.0742" lon="1.02176">
        <ele>143.6787768</ele>
        <time>2022-08-18T05:56:18Z</time>
      </trkpt>
      <trkpt lat="45.07428" lon="1.02178">
        <ele>143.4310223</ele>
        <time>2022-08-18T05:56:20Z</time>
      </trkpt>
      <trkpt lat="45.07436" lon="1.02182">
        <ele>143.3747037</ele>
        <time>2022-08-18T05:56:22Z</time>
      </trkpt>
      <trkpt lat="45.07444" lon="1.02186">
        <ele>143.6498472</ele>
        <time>2022-08-18T05:56:24Z</time>
      </trkpt>
      <trkpt lat="45.07452" lon="1.0219">
        <ele>143.6303698</ele>
        <time>2022-08-18T05:56:26Z</time>
      </trkpt>
      <trkpt lat="45.0746" lon="1.02194">
        <ele>143.7138984</ele>
        <time>2022-08-18T05:56:28Z</time>
      </trkpt>
      <trkpt lat="45.07467" lon="1.02198">
        <ele>143.663883</ele>
        <time>2022-08-18T05:56:30Z</time>
      </trkpt>
      <trkpt lat="45.07474" lon="1.02202">
        <ele>143.5420666</ele>
        <time>2022-08-18T05:56:32Z</time>
      </trkpt>
      <trkpt lat="45.07481" lon="1.02207">
        <ele>144.1626846</ele>
        <time>2022-08-18T05:56:34Z</time>
      </trkpt>
      <trkpt lat="45.07488" lon="1.0221">
        <ele>144.5179874</ele>
        <time>2022-08-18T05:56:36Z</time>
      </trkpt>
      <trkpt lat="45.07495" lon="1.02213">
        <ele>143.6051146</ele>
        <time>2022-08-18T05:56:38Z</time>
      </trkpt>
      <trkpt lat="45.07501" lon="1.02215">
        <ele>143.7822379</ele>
        <time>2022-08-18T05:56:40Z</time>
      </trkpt>
      <trkpt lat="45.07506" lon="1.02218">
        <ele>144.1101435</ele>
        <time>2022-08-18T05:56:42Z</time>
      </trkpt>
      <trkpt lat="45.07511" lon="1.02221">
        <ele>144.0189908</ele>
        <time>2022-08-18T05:56:44Z</time>
      </trkpt>
      <trkpt lat="45.07516" lon="1.02223">
        <ele>144.5258809</ele>
        <time>2022-08-18T05:56:46Z</time>
      </trkpt>
      <trkpt lat="45.07522" lon="1.02226">
        <ele>143.9877102</ele>
        <time>2022-08-18T05:56:48Z</time>
      </trkpt>
      <trkpt lat="45.07527" lon="1.02229">
        <ele>144.4013186</ele>
        <time>2022-08-18T05:56:50Z</time>
      </trkpt>
      <trkpt lat="45.07532" lon="1.02231">
        <ele>144.7620288</ele>
        <time>2022-08-18T05:56:52Z</time>
      </trkpt>
      <trkpt lat="45.07537" lon="1.02233">
        <ele>145.5302039</ele>
        <time>2022-08-18T05:56:54Z</time>
      </trkpt>
      <trkpt lat="45.07541" lon="1.02237">
        <ele>145.7066515</ele>
        <time>2022-08-18T05:56:56Z</time>
      </trkpt>
      <trkpt lat="45.07546" lon="1.02239">
        <ele>145.6930495</ele>
        <time>2022-08-18T05:56:58Z</time>
      </trkpt>
      <trkpt lat="45.07551" lon="1.02242">
        <ele>145.458372</ele>
        <time>2022-08-18T05:57:00Z</time>
      </trkpt>
      <trkpt lat="45.07555" lon="1.02245">
        <ele>146.0746686</ele>
        <time>2022-08-18T05:57:02Z</time>
      </trkpt>
      <trkpt lat="45.07561" lon="1.02247">
        <ele>146.384573</ele>
        <time>2022-08-18T05:57:04Z</time>
      </trkpt>
      <trkpt lat="45.07566" lon="1.0225">
        <ele>146.7473522</ele>
        <time>2022-08-18T05:57:06Z</time>
      </trkpt>
      <trkpt lat="45.07571" lon="1.02253">
        <ele>147.1200877</ele>
        <time>2022-08-18T05:57:08Z</time>
      </trkpt>
      <trkpt lat="45.07576" lon="1.02257">
        <ele>147.5125452</ele>
        <time>2022-08-18T05:57:10Z</time>
      </trkpt>
      <trkpt lat="45.07581" lon="1.0226">
        <ele>147.6023832</ele>
        <time>2022-08-18T05:57:12Z</time>
      </trkpt>
      <trkpt lat="45.07587" lon="1.02264">
        <ele>147.9478808</ele>
        <time>2022-08-18T05:57:14Z</time>
      </trkpt>
      <trkpt lat="45.07592" lon="1.02266">
        <ele>148.687047</ele>
        <time>2022-08-18T05:57:16Z</time>
      </trkpt>
      <trkpt lat="45.07598" lon="1.02269">
        <ele>148.7832583</ele>
        <time>2022-08-18T05:57:18Z</time>
      </trkpt>
      <trkpt lat="45.07603" lon="1.02271">
        <ele>148.7968042</ele>
        <time>2022-08-18T05:57:20Z</time>
      </trkpt>
      <trkpt lat="45.07608" lon="1.02275">
        <ele>148.8450013</ele>
        <time>2022-08-18T05:57:22Z</time>
      </trkpt>
      <trkpt lat="45.07614" lon="1.02278">
        <ele>148.9950847</ele>
        <time>2022-08-18T05:57:24Z</time>
      </trkpt>
      <trkpt lat="45.07619" lon="1.02281">
        <ele>149.7113713</ele>
        <time>2022-08-18T05:57:26Z</time>
      </trkpt>
      <trkpt lat="45.07625" lon="1.02284">
        <ele>149.2269273</ele>
        <time>2022-08-18T05:57:28Z</time>
      </trkpt>
      <trkpt lat="45.0763" lon="1.02287">
        <ele>149.917277</ele>
        <time>2022-08-18T05:57:30Z</time>
      </trkpt>
      <trkpt lat="45.07635" lon="1.02289">
        <ele>150.3403597</ele>
        <time>2022-08-18T05:57:32Z</time>
      </trkpt>
      <trkpt lat="45.07641" lon="1.02292">
        <ele>149.997008</ele>
        <time>2022-08-18T05:57:34Z</time>
      </trkpt>
      <trkpt lat="45.07646" lon="1.02294">
        <ele>150.251024</ele>
        <time>2022-08-18T05:57:36Z</time>
      </trkpt>
      <trkpt lat="45.07651" lon="1.02298">
        <ele>150.2701623</ele>
        <time>2022-08-18T05:57:38Z</time>
      </trkpt>
      <trkpt lat="45.07656" lon="1.02301">
        <ele>149.9841263</ele>
        <time>2022-08-18T05:57:40Z</time>
      </trkpt>
      <trkpt lat="45.07661" lon="1.02303">
        <ele>150.1922377</ele>
        <time>2022-08-18T05:57:42Z</time>
      </trkpt>
      <trkpt lat="45.07667" lon="1.02306">
        <ele>150.513767</ele>
        <time>2022-08-18T05:57:44Z</time>
      </trkpt>
      <trkpt lat="45.07672" lon="1.0231">
        <ele>150.7949671</ele>
        <time>2022-08-18T05:57:46Z</time>
      </trkpt>
      <trkpt lat="45.07678" lon="1.02313">
        <ele>151.0722517</ele>
        <time>2022-08-18T05:57:48Z</time>
      </trkpt>
      <trkpt lat="45.07684" lon="1.02316">
        <ele>151.3233718</ele>
        <time>2022-08-18T05:57:50Z</time>
      </trkpt>
      <trkpt lat="45.07689" lon="1.02321">
        <ele>151.7165657</ele>
        <time>2022-08-18T05:57:52Z</time>
      </trkpt>
      <trkpt lat="45.07695" lon="1.02326">
        <ele>152.006995</ele>
        <time>2022-08-18T05:57:54Z</time>
      </trkpt>
      <trkpt lat="45.07701" lon="1.0233">
        <ele>152.305372</ele>
        <time>2022-08-18T05:57:56Z</time>
      </trkpt>
      <trkpt lat="45.07707" lon="1.02335">
        <ele>152.0322199</ele>
        <time>2022-08-18T05:57:58Z</time>
      </trkpt>
      <trkpt lat="45.07712" lon="1.02339">
        <ele>151.9350694</ele>
        <time>2022-08-18T05:58:00Z</time>
      </trkpt>
      <trkpt lat="45.07719" lon="1.02344">
        <ele>151.1041261</ele>
        <time>2022-08-18T05:58:02Z</time>
      </trkpt>
      <trkpt lat="45.07726" lon="1.02349">
        <ele>150.8595105</ele>
        <time>2022-08-18T05:58:04Z</time>
      </trkpt>
      <trkpt lat="45.07733" lon="1.02356">
        <ele>150.7987834</ele>
        <time>2022-08-18T05:58:06Z</time>
      </trkpt>
      <trkpt lat="45.07742" lon="1.02362">
        <ele>150.2146178</ele>
        <time>2022-08-18T05:58:08Z</time>
      </trkpt>
      <trkpt lat="45.07752" lon="1.02367">
        <ele>149.8858738</ele>
        <time>2022-08-18T05:58:10Z</time>
      </trkpt>
      <trkpt lat="45.07761" lon="1.02371">
        <ele>148.6763277</ele>
        <time>2022-08-18T05:58:12Z</time>
      </trkpt>
      <trkpt lat="45.07773" lon="1.02374">
        <ele>149.7283464</ele>
        <time>2022-08-18T05:58:14Z</time>
      </trkpt>
      <trkpt lat="45.07783" lon="1.02377">
        <ele>149.9440566</ele>
        <time>2022-08-18T05:58:16Z</time>
      </trkpt>
      <trkpt lat="45.07794" lon="1.02381">
        <ele>149.702126</ele>
        <time>2022-08-18T05:58:18Z</time>
      </trkpt>
      <trkpt lat="45.07804" lon="1.02386">
        <ele>149.1131284</ele>
        <time>2022-08-18T05:58:20Z</time>
      </trkpt>
      <trkpt lat="45.07814" lon="1.0239">
        <ele>148.4212666</ele>
        <time>2022-08-18T05:58:22Z</time>
      </trkpt>
      <trkpt lat="45.07824" lon="1.02395">
        <ele>148.6801299</ele>
        <time>2022-08-18T05:58:24Z</time>
      </trkpt>
      <trkpt lat="45.07832" lon="1.024">
        <ele>148.7633966</ele>
        <time>2022-08-18T05:58:26Z</time>
      </trkpt>
      <trkpt lat="45.07841" lon="1.02405">
        <ele>149.1149589</ele>
        <time>2022-08-18T05:58:28Z</time>
      </trkpt>
      <trkpt lat="45.07848" lon="1.0241">
        <ele>149.8130186</ele>
        <time>2022-08-18T05:58:30Z</time>
      </trkpt>
      <trkpt lat="45.07857" lon="1.02415">
        <ele>148.8902377</ele>
        <time>2022-08-18T05:58:32Z</time>
      </trkpt>
      <trkpt lat="45.07866" lon="1.0242">
        <ele>149.0274454</ele>
        <time>2022-08-18T05:58:34Z</time>
      </trkpt>
      <trkpt lat="45.07874" lon="1.02425">
        <ele>148.7157849</ele>
        <time>2022-08-18T05:58:36Z</time>
      </trkpt>
      <trkpt lat="45.07883" lon="1.02427">
        <ele>149.4156826</ele>
        <time>2022-08-18T05:58:38Z</time>
      </trkpt>
      <trkpt lat="45.07893" lon="1.02429">
        <ele>148.3636882</ele>
        <time>2022-08-18T05:58:40Z</time>
      </trkpt>
      <trkpt lat="45.07902" lon="1.02429">
        <ele>149.4993716</ele>
        <time>2022-08-18T05:58:42Z</time>
      </trkpt>
      <trkpt lat="45.07911" lon="1.02427">
        <ele>149.5005789</ele>
        <time>2022-08-18T05:58:44Z</time>
      </trkpt>
      <trkpt lat="45.07919" lon="1.02424">
        <ele>149.7575861</ele>
        <time>2022-08-18T05:58:46Z</time>
      </trkpt>
      <trkpt lat="45.07928" lon="1.02421">
        <ele>148.736488</ele>
        <time>2022-08-18T05:58:48Z</time>
      </trkpt>
      <trkpt lat="45.07935" lon="1.0242">
        <ele>148.9220881</ele>
        <time>2022-08-18T05:58:50Z</time>
      </trkpt>
      <trkpt lat="45.07942" lon="1.02418">
        <ele>148.9841597</ele>
        <time>2022-08-18T05:58:52Z</time>
      </trkpt>
      <trkpt lat="45.07949" lon="1.02417">
        <ele>149.2329561</ele>
        <time>2022-08-18T05:58:54Z</time>
      </trkpt>
      <trkpt lat="45.07954" lon="1.02415">
        <ele>148.5308797</ele>
        <time>2022-08-18T05:58:56Z</time>
      </trkpt>
      <trkpt lat="45.07961" lon="1.02414">
        <ele>149.3899923</ele>
        <time>2022-08-18T05:58:58Z</time>
      </trkpt>
      <trkpt lat="45.07967" lon="1.02411">
        <ele>149.2486873</ele>
        <time>2022-08-18T05:59:00Z</time>
      </trkpt>
      <trkpt lat="45.07972" lon="1.02412">
        <ele>150.2328974</ele>
        <time>2022-08-18T05:59:02Z</time>
      </trkpt>
      <trkpt lat="45.07977" lon="1.0241">
        <ele>150.4359825</ele>
        <time>2022-08-18T05:59:04Z</time>
      </trkpt>
      <trkpt lat="45.07983" lon="1.02409">
        <ele>150.3188513</ele>
        <time>2022-08-18T05:59:06Z</time>
      </trkpt>
      <trkpt lat="45.07989" lon="1.02409">
        <ele>150.5767703</ele>
        <time>2022-08-18T05:59:08Z</time>
      </trkpt>
      <trkpt lat="45.07994" lon="1.02408">
        <ele>151.3174903</ele>
        <time>2022-08-18T05:59:10Z</time>
      </trkpt>
      <trkpt lat="45.08" lon="1.0241">
        <ele>151.6936258</ele>
        <time>2022-08-18T05:59:12Z</time>
      </trkpt>
      <trkpt lat="45.08004" lon="1.02411">
        <ele>152.7854275</ele>
        <time>2022-08-18T05:59:14Z</time>
      </trkpt>
      <trkpt lat="45.0801" lon="1.02411">
        <ele>153.1241432</ele>
        <time>2022-08-18T05:59:16Z</time>
      </trkpt>
      <trkpt lat="45.08015" lon="1.02412">
        <ele>153.4517473</ele>
        <time>2022-08-18T05:59:18Z</time>
      </trkpt>
      <trkpt lat="45.08019" lon="1.02415">
        <ele>153.8826894</ele>
        <time>2022-08-18T05:59:20Z</time>
      </trkpt>
      <trkpt lat="45.08023" lon="1.02416">
        <ele>154.8867069</ele>
        <time>2022-08-18T05:59:22Z</time>
      </trkpt>
      <trkpt lat="45.08028" lon="1.02417">
        <ele>155.048628</ele>
        <time>2022-08-18T05:59:24Z</time>
      </trkpt>
      <trkpt lat="45.08032" lon="1.02418">
        <ele>155.8949735</ele>
        <time>2022-08-18T05:59:26Z</time>
      </trkpt>
      <trkpt lat="45.08035" lon="1.02422">
        <ele>154.8834046</ele>
        <time>2022-08-18T05:59:28Z</time>
      </trkpt>
      <trkpt lat="45.08037" lon="1.02423">
        <ele>154.4070327</ele>
        <time>2022-08-18T05:59:30Z</time>
      </trkpt>
      <trkpt lat="45.08037" lon="1.02422">
        <ele>154.3445577</ele>
        <time>2022-08-18T05:59:32Z</time>
      </trkpt>
      <trkpt lat="45.08036" lon="1.02422">
        <ele>154.4438283</ele>
        <time>2022-08-18T05:59:34Z</time>
      </trkpt>
      <trkpt lat="45.08036" lon="1.02422">
        <ele>154.4438283</ele>
        <time>2022-08-18T05:59:38Z</time>
      </trkpt>
      <trkpt lat="45.08038" lon="1.0242">
        <ele>153.0092424</ele>
        <time>2022-08-18T05:59:42Z</time>
      </trkpt>
      <trkpt lat="45.08038" lon="1.0242">
        <ele>153.0107778</ele>
        <time>2022-08-18T05:59:44Z</time>
      </trkpt>
      <trkpt lat="45.08038" lon="1.02421">
        <ele>152.7342202</ele>
        <time>2022-08-18T05:59:46Z</time>
      </trkpt>
      <trkpt lat="45.08038" lon="1.02422">
        <ele>153.4065788</ele>
        <time>2022-08-18T05:59:48Z</time>
      </trkpt>
      <trkpt lat="45.08037" lon="1.02423">
        <ele>154.0323491</ele>
        <time>2022-08-18T05:59:52Z</time>
      </trkpt>
      <trkpt lat="45.08037" lon="1.02423">
        <ele>154.0323491</ele>
        <time>2022-08-18T05:59:56Z</time>
      </trkpt>
      <trkpt lat="45.08038" lon="1.02424">
        <ele>156.4973012</ele>
        <time>2022-08-18T05:59:58Z</time>
      </trkpt>
      <trkpt lat="45.08038" lon="1.02424">
        <ele>156.87719</ele>
        <time>2022-08-18T06:00:00Z</time>
      </trkpt>
      <trkpt lat="45.08038" lon="1.02423">
        <ele>156.8223134</ele>
        <time>2022-08-18T06:00:02Z</time>
      </trkpt>
      <trkpt lat="45.08038" lon="1.02423">
        <ele>157.5940358</ele>
        <time>2022-08-18T06:00:04Z</time>
      </trkpt>
      <trkpt lat="45.08039" lon="1.02424">
        <ele>157.7467168</ele>
        <time>2022-08-18T06:00:06Z</time>
      </trkpt>
      <trkpt lat="45.08038" lon="1.02423">
        <ele>157.5852169</ele>
        <time>2022-08-18T06:00:08Z</time>
      </trkpt>
      <trkpt lat="45.08038" lon="1.02423">
        <ele>157.5843198</ele>
        <time>2022-08-18T06:00:10Z</time>
      </trkpt>
      <trkpt lat="45.08039" lon="1.02423">
        <ele>157.5555644</ele>
        <time>2022-08-18T06:00:12Z</time>
      </trkpt>
      <trkpt lat="45.08039" lon="1.02423">
        <ele>157.4890846</ele>
        <time>2022-08-18T06:00:14Z</time>
      </trkpt>
      <trkpt lat="45.08038" lon="1.02423">
        <ele>157.5106654</ele>
        <time>2022-08-18T06:00:16Z</time>
      </trkpt>
      <trkpt lat="45.08038" lon="1.02423">
        <ele>157.512303</ele>
        <time>2022-08-18T06:00:18Z</time>
      </trkpt>
      <trkpt lat="45.08038" lon="1.02423">
        <ele>157.512303</ele>
        <time>2022-08-18T06:00:22Z</time>
      </trkpt>
      <trkpt lat="45.08038" lon="1.02425">
        <ele>157.9042373</ele>
        <time>2022-08-18T06:00:26Z</time>
      </trkpt>
      <trkpt lat="45.08037" lon="1.02424">
        <ele>157.853986</ele>
        <time>2022-08-18T06:00:28Z</time>
      </trkpt>
      <trkpt lat="45.08037" lon="1.02424">
        <ele>157.6815315</ele>
        <time>2022-08-18T06:00:30Z</time>
      </trkpt>
      <trkpt lat="45.08037" lon="1.02424">
        <ele>156.6379025</ele>
        <time>2022-08-18T06:00:32Z</time>
      </trkpt>
      <trkpt lat="45.08037" lon="1.02423">
        <ele>156.1232378</ele>
        <time>2022-08-18T06:00:34Z</time>
      </trkpt>
      <trkpt lat="45.08037" lon="1.02423">
        <ele>156.1089442</ele>
        <time>2022-08-18T06:00:36Z</time>
      </trkpt>
      <trkpt lat="45.08037" lon="1.02424">
        <ele>156.2999936</ele>
        <time>2022-08-18T06:00:38Z</time>
      </trkpt>
      <trkpt lat="45.08037" lon="1.02423">
        <ele>156.5319591</ele>
        <time>2022-08-18T06:00:40Z</time>
      </trkpt>
      <trkpt lat="45.08037" lon="1.02423">
        <ele>156.5372159</ele>
        <time>2022-08-18T06:00:42Z</time>
      </trkpt>
      <trkpt lat="45.08037" lon="1.02423">
        <ele>156.9648673</ele>
        <time>2022-08-18T06:00:44Z</time>
      </trkpt>
      <trkpt lat="45.08037" lon="1.02423">
        <ele>157.1692182</ele>
        <time>2022-08-18T06:00:46Z</time>
      </trkpt>
      <trkpt lat="45.08037" lon="1.02423">
        <ele>156.9783202</ele>
        <time>2022-08-18T06:00:48Z</time>
      </trkpt>
      <trkpt lat="45.08037" lon="1.02423">
        <ele>156.9675126</ele>
        <time>2022-08-18T06:00:50Z</time>
      </trkpt>
      <trkpt lat="45.08038" lon="1.02423">
        <ele>156.6787661</ele>
        <time>2022-08-18T06:00:52Z</time>
      </trkpt>
      <trkpt lat="45.08038" lon="1.02423">
        <ele>156.5114251</ele>
        <time>2022-08-18T06:00:54Z</time>
      </trkpt>
      <trkpt lat="45.08038" lon="1.02424">
        <ele>157.6132874</ele>
        <time>2022-08-18T06:00:56Z</time>
      </trkpt>
      <trkpt lat="45.08038" lon="1.02424">
        <ele>157.9147386</ele>
        <time>2022-08-18T06:00:58Z</time>
      </trkpt>
      <trkpt lat="45.08038" lon="1.02425">
        <ele>159.0856447</ele>
        <time>2022-08-18T06:01:00Z</time>
      </trkpt>
      <trkpt lat="45.08038" lon="1.02426">
        <ele>159.368016</ele>
        <time>2022-08-18T06:01:02Z</time>
      </trkpt>
      <trkpt lat="45.08039" lon="1.02426">
        <ele>159.2715181</ele>
        <time>2022-08-18T06:01:04Z</time>
      </trkpt>
      <trkpt lat="45.0804" lon="1.02425">
        <ele>159.2541602</ele>
        <time>2022-08-18T06:01:06Z</time>
      </trkpt>
      <trkpt lat="45.08039" lon="1.02426">
        <ele>159.5748075</ele>
        <time>2022-08-18T06:01:08Z</time>
      </trkpt>
      <trkpt lat="45.08039" lon="1.02426">
        <ele>159.953249</ele>
        <time>2022-08-18T06:01:10Z</time>
      </trkpt>
      <trkpt lat="45.08039" lon="1.02426">
        <ele>159.3944032</ele>
        <time>2022-08-18T06:01:12Z</time>
      </trkpt>
      <trkpt lat="45.08038" lon="1.02427">
        <ele>159.9835953</ele>
        <time>2022-08-18T06:01:14Z</time>
      </trkpt>
      <trkpt lat="45.08038" lon="1.02427">
        <ele>160.1657126</ele>
        <time>2022-08-18T06:01:16Z</time>
      </trkpt>
      <trkpt lat="45.08039" lon="1.02426">
        <ele>159.6670426</ele>
        <time>2022-08-18T06:01:18Z</time>
      </trkpt>
      <trkpt lat="45.08041" lon="1.02426">
        <ele>159.6250652</ele>
        <time>2022-08-18T06:01:20Z</time>
      </trkpt>
      <trkpt lat="45.08044" lon="1.02426">
        <ele>159.4608211</ele>
        <time>2022-08-18T06:01:22Z</time>
      </trkpt>
      <trkpt lat="45.08049" lon="1.02428">
        <ele>159.1216878</ele>
        <time>2022-08-18T06:01:24Z</time>
      </trkpt>
      <trkpt lat="45.08053" lon="1.0243">
        <ele>158.7503863</ele>
        <time>2022-08-18T06:01:26Z</time>
      </trkpt>
      <trkpt lat="45.08058" lon="1.02432">
        <ele>159.1132308</ele>
        <time>2022-08-18T06:01:28Z</time>
      </trkpt>
      <trkpt lat="45.08063" lon="1.02434">
        <ele>158.2889803</ele>
        <time>2022-08-18T06:01:30Z</time>
      </trkpt>
      <trkpt lat="45.08069" lon="1.02435">
        <ele>157.8559919</ele>
        <time>2022-08-18T06:01:32Z</time>
      </trkpt>
      <trkpt lat="45.08074" lon="1.02439">
        <ele>157.7959988</ele>
        <time>2022-08-18T06:01:34Z</time>
      </trkpt>
      <trkpt lat="45.08079" lon="1.0244">
        <ele>158.0782379</ele>
        <time>2022-08-18T06:01:36Z</time>
      </trkpt>
      <trkpt lat="45.08087" lon="1.02442">
        <ele>158.2176744</ele>
        <time>2022-08-18T06:01:38Z</time>
      </trkpt>
      <trkpt lat="45.08094" lon="1.02444">
        <ele>158.0916776</ele>
        <time>2022-08-18T06:01:40Z</time>
      </trkpt>
      <trkpt lat="45.08102" lon="1.02446">
        <ele>157.4766868</ele>
        <time>2022-08-18T06:01:42Z</time>
      </trkpt>
      <trkpt lat="45.0811" lon="1.02447">
        <ele>157.6705318</ele>
        <time>2022-08-18T06:01:44Z</time>
      </trkpt>
      <trkpt lat="45.08119" lon="1.02448">
        <ele>156.9512871</ele>
        <time>2022-08-18T06:01:46Z</time>
      </trkpt>
      <trkpt lat="45.08126" lon="1.02448">
        <ele>156.826642</ele>
        <time>2022-08-18T06:01:48Z</time>
      </trkpt>
      <trkpt lat="45.08134" lon="1.02449">
        <ele>155.7560701</ele>
        <time>2022-08-18T06:01:50Z</time>
      </trkpt>
      <trkpt lat="45.08141" lon="1.0245">
        <ele>156.0331298</ele>
        <time>2022-08-18T06:01:52Z</time>
      </trkpt>
      <trkpt lat="45.08147" lon="1.02452">
        <ele>155.138781</ele>
        <time>2022-08-18T06:01:54Z</time>
      </trkpt>
      <trkpt lat="45.08153" lon="1.02454">
        <ele>154.7972332</ele>
        <time>2022-08-18T06:01:56Z</time>
      </trkpt>
      <trkpt lat="45.08157" lon="1.02456">
        <ele>155.1231424</ele>
        <time>2022-08-18T06:01:58Z</time>
      </trkpt>
      <trkpt lat="45.0816" lon="1.02458">
        <ele>155.0453805</ele>
        <time>2022-08-18T06:02:00Z</time>
      </trkpt>
      <trkpt lat="45.08163" lon="1.0246">
        <ele>154.5392495</ele>
        <time>2022-08-18T06:02:02Z</time>
      </trkpt>
      <trkpt lat="45.08164" lon="1.0246">
        <ele>154.6171872</ele>
        <time>2022-08-18T06:02:04Z</time>
      </trkpt>
      <trkpt lat="45.08165" lon="1.0246">
        <ele>153.8445093</ele>
        <time>2022-08-18T06:02:06Z</time>
      </trkpt>
      <trkpt lat="45.08165" lon="1.02461">
        <ele>153.6103782</ele>
        <time>2022-08-18T06:02:08Z</time>
      </trkpt>
      <trkpt lat="45.08166" lon="1.02461">
        <ele>153.3592473</ele>
        <time>2022-08-18T06:02:10Z</time>
      </trkpt>
      <trkpt lat="45.08166" lon="1.02461">
        <ele>153.1270505</ele>
        <time>2022-08-18T06:02:12Z</time>
      </trkpt>
      <trkpt lat="45.08166" lon="1.02461">
        <ele>153.1305226</ele>
        <time>2022-08-18T06:02:14Z</time>
      </trkpt>
      <trkpt lat="45.08166" lon="1.02462">
        <ele>153.0959553</ele>
        <time>2022-08-18T06:02:16Z</time>
      </trkpt>
      <trkpt lat="45.08167" lon="1.02462">
        <ele>152.8409811</ele>
        <time>2022-08-18T06:02:18Z</time>
      </trkpt>
      <trkpt lat="45.08167" lon="1.02462">
        <ele>152.5939271</ele>
        <time>2022-08-18T06:02:20Z</time>
      </trkpt>
      <trkpt lat="45.08167" lon="1.02463">
        <ele>153.1303572</ele>
        <time>2022-08-18T06:02:22Z</time>
      </trkpt>
      <trkpt lat="45.08167" lon="1.02463">
        <ele>153.5461486</ele>
        <time>2022-08-18T06:02:24Z</time>
      </trkpt>
      <trkpt lat="45.08167" lon="1.02463">
        <ele>153.5401791</ele>
        <time>2022-08-18T06:02:26Z</time>
      </trkpt>
      <trkpt lat="45.08167" lon="1.02463">
        <ele>153.1656321</ele>
        <time>2022-08-18T06:02:28Z</time>
      </trkpt>
      <trkpt lat="45.08167" lon="1.02463">
        <ele>153.8941096</ele>
        <time>2022-08-18T06:02:30Z</time>
      </trkpt>
      <trkpt lat="45.08167" lon="1.02463">
        <ele>153.7580124</ele>
        <time>2022-08-18T06:02:32Z</time>
      </trkpt>
      <trkpt lat="45.08167" lon="1.02463">
        <ele>153.332715</ele>
        <time>2022-08-18T06:02:34Z</time>
      </trkpt>
      <trkpt lat="45.08166" lon="1.02463">
        <ele>153.0802401</ele>
        <time>2022-08-18T06:02:36Z</time>
      </trkpt>
      <trkpt lat="45.08168" lon="1.02463">
        <ele>153.7625018</ele>
        <time>2022-08-18T06:02:38Z</time>
      </trkpt>
      <trkpt lat="45.08169" lon="1.02464">
        <ele>153.709519</ele>
        <time>2022-08-18T06:02:40Z</time>
      </trkpt>
      <trkpt lat="45.08171" lon="1.02464">
        <ele>153.9094173</ele>
        <time>2022-08-18T06:02:42Z</time>
      </trkpt>
      <trkpt lat="45.08172" lon="1.02464">
        <ele>154.0673786</ele>
        <time>2022-08-18T06:02:44Z</time>
      </trkpt>
      <trkpt lat="45.08173" lon="1.02464">
        <ele>154.0811598</ele>
        <time>2022-08-18T06:02:46Z</time>
      </trkpt>
      <trkpt lat="45.08174" lon="1.02464">
        <ele>154.1509075</ele>
        <time>2022-08-18T06:02:48Z</time>
      </trkpt>
      <trkpt lat="45.08174" lon="1.02464">
        <ele>154.364709</ele>
        <time>2022-08-18T06:02:50Z</time>
      </trkpt>
      <trkpt lat="45.08174" lon="1.02464">
        <ele>155.1367143</ele>
        <time>2022-08-18T06:02:52Z</time>
      </trkpt>
      <trkpt lat="45.08174" lon="1.02464">
        <ele>155.8750681</ele>
        <time>2022-08-18T06:02:54Z</time>
      </trkpt>
      <trkpt lat="45.08174" lon="1.02463">
        <ele>156.1780656</ele>
        <time>2022-08-18T06:02:56Z</time>
      </trkpt>
      <trkpt lat="45.08174" lon="1.02463">
        <ele>156.2273972</ele>
        <time>2022-08-18T06:02:58Z</time>
      </trkpt>
      <trkpt lat="45.08174" lon="1.02463">
        <ele>156.536271</ele>
        <time>2022-08-18T06:03:00Z</time>
      </trkpt>
      <trkpt lat="45.08173" lon="1.02464">
        <ele>156.6477126</ele>
        <time>2022-08-18T06:03:02Z</time>
      </trkpt>
      <trkpt lat="45.08174" lon="1.02464">
        <ele>156.5027532</ele>
        <time>2022-08-18T06:03:04Z</time>
      </trkpt>
      <trkpt lat="45.08174" lon="1.02464">
        <ele>156.2240251</ele>
        <time>2022-08-18T06:03:06Z</time>
      </trkpt>
      <trkpt lat="45.08174" lon="1.02464">
        <ele>156.5383975</ele>
        <time>2022-08-18T06:03:08Z</time>
      </trkpt>
      <trkpt lat="45.08175" lon="1.02464">
        <ele>156.0829719</ele>
        <time>2022-08-18T06:03:10Z</time>
      </trkpt>
      <trkpt lat="45.08175" lon="1.02464">
        <ele>156.2215365</ele>
        <time>2022-08-18T06:03:12Z</time>
      </trkpt>
      <trkpt lat="45.08175" lon="1.02464">
        <ele>155.9637114</ele>
        <time>2022-08-18T06:03:14Z</time>
      </trkpt>
      <trkpt lat="45.08175" lon="1.02464">
        <ele>155.4336887</ele>
        <time>2022-08-18T06:03:16Z</time>
      </trkpt>
      <trkpt lat="45.08175" lon="1.02464">
        <ele>155.6023091</ele>
        <time>2022-08-18T06:03:18Z</time>
      </trkpt>
      <trkpt lat="45.08175" lon="1.02465">
        <ele>155.8420985</ele>
        <time>2022-08-18T06:03:20Z</time>
      </trkpt>
      <trkpt lat="45.08174" lon="1.02465">
        <ele>155.49627</ele>
        <time>2022-08-18T06:03:24Z</time>
      </trkpt>
      <trkpt lat="45.08174" lon="1.02465">
        <ele>155.1729233</ele>
        <time>2022-08-18T06:03:26Z</time>
      </trkpt>
      <trkpt lat="45.08174" lon="1.02465">
        <ele>155.1504662</ele>
        <time>2022-08-18T06:03:28Z</time>
      </trkpt>
      <trkpt lat="45.08175" lon="1.02464">
        <ele>154.94436</ele>
        <time>2022-08-18T06:03:32Z</time>
      </trkpt>
      <trkpt lat="45.08175" lon="1.02465">
        <ele>155.8810454</ele>
        <time>2022-08-18T06:03:34Z</time>
      </trkpt>
      <trkpt lat="45.08175" lon="1.02465">
        <ele>155.8850894</ele>
        <time>2022-08-18T06:03:36Z</time>
      </trkpt>
      <trkpt lat="45.08175" lon="1.02466">
        <ele>157.4371831</ele>
        <time>2022-08-18T06:03:38Z</time>
      </trkpt>
      <trkpt lat="45.08175" lon="1.02465">
        <ele>157.6045356</ele>
        <time>2022-08-18T06:03:40Z</time>
      </trkpt>
      <trkpt lat="45.08175" lon="1.02465">
        <ele>157.6251095</ele>
        <time>2022-08-18T06:03:42Z</time>
      </trkpt>
      <trkpt lat="45.08175" lon="1.02465">
        <ele>157.4726785</ele>
        <time>2022-08-18T06:03:44Z</time>
      </trkpt>
      <trkpt lat="45.08175" lon="1.02464">
        <ele>156.6064265</ele>
        <time>2022-08-18T06:03:46Z</time>
      </trkpt>
      <trkpt lat="45.08175" lon="1.02464">
        <ele>156.2818573</ele>
        <time>2022-08-18T06:03:48Z</time>
      </trkpt>
      <trkpt lat="45.08175" lon="1.02465">
        <ele>156.4061307</ele>
        <time>2022-08-18T06:03:50Z</time>
      </trkpt>
      <trkpt lat="45.08175" lon="1.02465">
        <ele>156.7172034</ele>
        <time>2022-08-18T06:03:52Z</time>
      </trkpt>
      <trkpt lat="45.08175" lon="1.02465">
        <ele>156.8708232</ele>
        <time>2022-08-18T06:03:54Z</time>
      </trkpt>
      <trkpt lat="45.08175" lon="1.02465">
        <ele>156.6294669</ele>
        <time>2022-08-18T06:03:56Z</time>
      </trkpt>
      <trkpt lat="45.08176" lon="1.02464">
        <ele>156.1431125</ele>
        <time>2022-08-18T06:03:58Z</time>
      </trkpt>
      <trkpt lat="45.08176" lon="1.02464">
        <ele>156.0803704</ele>
        <time>2022-08-18T06:04:00Z</time>
      </trkpt>
      <trkpt lat="45.08176" lon="1.02464">
        <ele>156.2046059</ele>
        <time>2022-08-18T06:04:02Z</time>
      </trkpt>
      <trkpt lat="45.08176" lon="1.02464">
        <ele>156.2046059</ele>
        <time>2022-08-18T06:04:06Z</time>
      </trkpt>
      <trkpt lat="45.08176" lon="1.02464">
        <ele>156.2046059</ele>
        <time>2022-08-18T06:04:10Z</time>
      </trkpt>
      <trkpt lat="45.08176" lon="1.02464">
        <ele>156.2046059</ele>
        <time>2022-08-18T06:04:14Z</time>
      </trkpt>
      <trkpt lat="45.08177" lon="1.02464">
        <ele>155.6640745</ele>
        <time>2022-08-18T06:04:18Z</time>
      </trkpt>
      <trkpt lat="45.08177" lon="1.02463">
        <ele>155.5607868</ele>
        <time>2022-08-18T06:04:20Z</time>
      </trkpt>
      <trkpt lat="45.08177" lon="1.02464">
        <ele>155.5310467</ele>
        <time>2022-08-18T06:04:22Z</time>
      </trkpt>
      <trkpt lat="45.08178" lon="1.02463">
        <ele>155.4679949</ele>
        <time>2022-08-18T06:04:24Z</time>
      </trkpt>
      <trkpt lat="45.08177" lon="1.02464">
        <ele>155.918401</ele>
        <time>2022-08-18T06:04:26Z</time>
      </trkpt>
      <trkpt lat="45.08177" lon="1.02465">
        <ele>156.6235221</ele>
        <time>2022-08-18T06:04:30Z</time>
      </trkpt>
      <trkpt lat="45.08177" lon="1.02465">
        <ele>157.2139553</ele>
        <time>2022-08-18T06:04:32Z</time>
      </trkpt>
      <trkpt lat="45.08177" lon="1.02465">
        <ele>157.6077426</ele>
        <time>2022-08-18T06:04:34Z</time>
      </trkpt>
      <trkpt lat="45.08177" lon="1.02465">
        <ele>157.5846197</ele>
        <time>2022-08-18T06:04:36Z</time>
      </trkpt>
      <trkpt lat="45.08177" lon="1.02465">
        <ele>157.3506458</ele>
        <time>2022-08-18T06:04:38Z</time>
      </trkpt>
      <trkpt lat="45.08177" lon="1.02465">
        <ele>157.698303</ele>
        <time>2022-08-18T06:04:40Z</time>
      </trkpt>
      <trkpt lat="45.08176" lon="1.02465">
        <ele>157.6309429</ele>
        <time>2022-08-18T06:04:42Z</time>
      </trkpt>
      <trkpt lat="45.08176" lon="1.02465">
        <ele>157.5615182</ele>
        <time>2022-08-18T06:04:44Z</time>
      </trkpt>
      <trkpt lat="45.08176" lon="1.02465">
        <ele>157.6149859</ele>
        <time>2022-08-18T06:04:46Z</time>
      </trkpt>
      <trkpt lat="45.08176" lon="1.02465">
        <ele>157.6051013</ele>
        <time>2022-08-18T06:04:48Z</time>
      </trkpt>
      <trkpt lat="45.08176" lon="1.02465">
        <ele>157.6003438</ele>
        <time>2022-08-18T06:04:50Z</time>
      </trkpt>
      <trkpt lat="45.08176" lon="1.02465">
        <ele>156.9917392</ele>
        <time>2022-08-18T06:04:52Z</time>
      </trkpt>
      <trkpt lat="45.08176" lon="1.02465">
        <ele>156.9917392</ele>
        <time>2022-08-18T06:04:56Z</time>
      </trkpt>
      <trkpt lat="45.08176" lon="1.02465">
        <ele>156.9917392</ele>
        <time>2022-08-18T06:05:00Z</time>
      </trkpt>
      <trkpt lat="45.08176" lon="1.02465">
        <ele>156.9917392</ele>
        <time>2022-08-18T06:05:04Z</time>
      </trkpt>
      <trkpt lat="45.08176" lon="1.02465">
        <ele>156.9917392</ele>
        <time>2022-08-18T06:05:08Z</time>
      </trkpt>
      <trkpt lat="45.08176" lon="1.02465">
        <ele>155.4837278</ele>
        <time>2022-08-18T06:05:10Z</time>
      </trkpt>
      <trkpt lat="45.08176" lon="1.02464">
        <ele>154.8500292</ele>
        <time>2022-08-18T06:05:14Z</time>
      </trkpt>
      <trkpt lat="45.08176" lon="1.02464">
        <ele>154.8500292</ele>
        <time>2022-08-18T06:05:18Z</time>
      </trkpt>
      <trkpt lat="45.08176" lon="1.02464">
        <ele>155.0658833</ele>
        <time>2022-08-18T06:05:20Z</time>
      </trkpt>
      <trkpt lat="45.08175" lon="1.02463">
        <ele>155.1104903</ele>
        <time>2022-08-18T06:05:22Z</time>
      </trkpt>
      <trkpt lat="45.08175" lon="1.02463">
        <ele>154.8884477</ele>
        <time>2022-08-18T06:05:24Z</time>
      </trkpt>
      <trkpt lat="45.08174" lon="1.02463">
        <ele>154.7590059</ele>
        <time>2022-08-18T06:05:26Z</time>
      </trkpt>
      <trkpt lat="45.08174" lon="1.02463">
        <ele>154.2950973</ele>
        <time>2022-08-18T06:05:28Z</time>
      </trkpt>
      <trkpt lat="45.08174" lon="1.02463">
        <ele>154.2694081</ele>
        <time>2022-08-18T06:05:30Z</time>
      </trkpt>
      <trkpt lat="45.08174" lon="1.02462">
        <ele>154.8343113</ele>
        <time>2022-08-18T06:05:32Z</time>
      </trkpt>
      <trkpt lat="45.08174" lon="1.02462">
        <ele>154.5049766</ele>
        <time>2022-08-18T06:05:34Z</time>
      </trkpt>
      <trkpt lat="45.08173" lon="1.02462">
        <ele>155.0661381</ele>
        <time>2022-08-18T06:05:36Z</time>
      </trkpt>
      <trkpt lat="45.08173" lon="1.02462">
        <ele>154.622032</ele>
        <time>2022-08-18T06:05:38Z</time>
      </trkpt>
      <trkpt lat="45.08173" lon="1.02462">
        <ele>154.7363271</ele>
        <time>2022-08-18T06:05:40Z</time>
      </trkpt>
      <trkpt lat="45.08173" lon="1.02462">
        <ele>154.7133316</ele>
        <time>2022-08-18T06:05:42Z</time>
      </trkpt>
      <trkpt lat="45.08172" lon="1.02462">
        <ele>154.8458044</ele>
        <time>2022-08-18T06:05:44Z</time>
      </trkpt>
      <trkpt lat="45.08172" lon="1.02463">
        <ele>154.7366386</ele>
        <time>2022-08-18T06:05:46Z</time>
      </trkpt>
      <trkpt lat="45.08173" lon="1.02463">
        <ele>154.6484735</ele>
        <time>2022-08-18T06:05:48Z</time>
      </trkpt>
      <trkpt lat="45.08173" lon="1.02463">
        <ele>154.5009398</ele>
        <time>2022-08-18T06:05:50Z</time>
      </trkpt>
      <trkpt lat="45.08172" lon="1.02462">
        <ele>154.2597447</ele>
        <time>2022-08-18T06:05:52Z</time>
      </trkpt>
      <trkpt lat="45.08172" lon="1.02463">
        <ele>154.2868542</ele>
        <time>2022-08-18T06:05:54Z</time>
      </trkpt>
      <trkpt lat="45.08172" lon="1.02462">
        <ele>153.4865648</ele>
        <time>2022-08-18T06:05:56Z</time>
      </trkpt>
      <trkpt lat="45.08173" lon="1.02461">
        <ele>152.7330602</ele>
        <time>2022-08-18T06:06:00Z</time>
      </trkpt>
      <trkpt lat="45.08172" lon="1.02461">
        <ele>152.2233758</ele>
        <time>2022-08-18T06:06:02Z</time>
      </trkpt>
      <trkpt lat="45.08173" lon="1.02461">
        <ele>151.7750874</ele>
        <time>2022-08-18T06:06:04Z</time>
      </trkpt>
      <trkpt lat="45.08173" lon="1.02461">
        <ele>151.770536</ele>
        <time>2022-08-18T06:06:06Z</time>
      </trkpt>
      <trkpt lat="45.08172" lon="1.02462">
        <ele>152.048139</ele>
        <time>2022-08-18T06:06:08Z</time>
      </trkpt>
      <trkpt lat="45.08172" lon="1.02461">
        <ele>151.8985788</ele>
        <time>2022-08-18T06:06:10Z</time>
      </trkpt>
      <trkpt lat="45.08173" lon="1.02462">
        <ele>152.2511259</ele>
        <time>2022-08-18T06:06:12Z</time>
      </trkpt>
      <trkpt lat="45.08173" lon="1.02462">
        <ele>152.3168278</ele>
        <time>2022-08-18T06:06:14Z</time>
      </trkpt>
      <trkpt lat="45.08173" lon="1.02463">
        <ele>153.3662875</ele>
        <time>2022-08-18T06:06:16Z</time>
      </trkpt>
      <trkpt lat="45.08173" lon="1.02464">
        <ele>153.6056161</ele>
        <time>2022-08-18T06:06:18Z</time>
      </trkpt>
      <trkpt lat="45.08173" lon="1.02464">
        <ele>153.3360774</ele>
        <time>2022-08-18T06:06:20Z</time>
      </trkpt>
      <trkpt lat="45.08173" lon="1.02464">
        <ele>153.4583855</ele>
        <time>2022-08-18T06:06:22Z</time>
      </trkpt>
      <trkpt lat="45.08173" lon="1.02463">
        <ele>152.8791223</ele>
        <time>2022-08-18T06:06:24Z</time>
      </trkpt>
      <trkpt lat="45.08172" lon="1.02463">
        <ele>152.9657831</ele>
        <time>2022-08-18T06:06:26Z</time>
      </trkpt>
      <trkpt lat="45.08172" lon="1.02463">
        <ele>153.5796261</ele>
        <time>2022-08-18T06:06:28Z</time>
      </trkpt>
      <trkpt lat="45.08172" lon="1.02463">
        <ele>153.6117234</ele>
        <time>2022-08-18T06:06:30Z</time>
      </trkpt>
      <trkpt lat="45.08172" lon="1.02464">
        <ele>154.3503291</ele>
        <time>2022-08-18T06:06:32Z</time>
      </trkpt>
      <trkpt lat="45.08172" lon="1.02464">
        <ele>154.4824546</ele>
        <time>2022-08-18T06:06:34Z</time>
      </trkpt>
      <trkpt lat="45.08172" lon="1.02464">
        <ele>154.5056296</ele>
        <time>2022-08-18T06:06:36Z</time>
      </trkpt>
      <trkpt lat="45.08172" lon="1.02465">
        <ele>154.7706203</ele>
        <time>2022-08-18T06:06:38Z</time>
      </trkpt>
      <trkpt lat="45.08172" lon="1.02466">
        <ele>155.1543982</ele>
        <time>2022-08-18T06:06:42Z</time>
      </trkpt>
      <trkpt lat="45.08172" lon="1.02466">
        <ele>155.1570764</ele>
        <time>2022-08-18T06:06:44Z</time>
      </trkpt>
      <trkpt lat="45.08171" lon="1.02465">
        <ele>154.3480516</ele>
        <time>2022-08-18T06:06:46Z</time>
      </trkpt>
      <trkpt lat="45.08171" lon="1.02465">
        <ele>154.3234015</ele>
        <time>2022-08-18T06:06:48Z</time>
      </trkpt>
      <trkpt lat="45.08171" lon="1.02465">
        <ele>154.5107993</ele>
        <time>2022-08-18T06:06:50Z</time>
      </trkpt>
      <trkpt lat="45.08171" lon="1.02465">
        <ele>154.4222447</ele>
        <time>2022-08-18T06:06:52Z</time>
      </trkpt>
      <trkpt lat="45.08171" lon="1.02465">
        <ele>154.7170303</ele>
        <time>2022-08-18T06:06:54Z</time>
      </trkpt>
      <trkpt lat="45.08171" lon="1.02465">
        <ele>154.6137654</ele>
        <time>2022-08-18T06:06:56Z</time>
      </trkpt>
      <trkpt lat="45.08171" lon="1.02465">
        <ele>155.4251021</ele>
        <time>2022-08-18T06:06:58Z</time>
      </trkpt>
      <trkpt lat="45.08171" lon="1.02465">
        <ele>155.3187834</ele>
        <time>2022-08-18T06:07:00Z</time>
      </trkpt>
      <trkpt lat="45.08171" lon="1.02465">
        <ele>155.2288354</ele>
        <time>2022-08-18T06:07:02Z</time>
      </trkpt>
      <trkpt lat="45.08171" lon="1.02465">
        <ele>154.9263996</ele>
        <time>2022-08-18T06:07:04Z</time>
      </trkpt>
      <trkpt lat="45.08171" lon="1.02465">
        <ele>154.6044164</ele>
        <time>2022-08-18T06:07:06Z</time>
      </trkpt>
      <trkpt lat="45.08171" lon="1.02465">
        <ele>154.6044164</ele>
        <time>2022-08-18T06:07:10Z</time>
      </trkpt>
      <trkpt lat="45.0817" lon="1.02468">
        <ele>156.0155374</ele>
        <time>2022-08-18T06:07:12Z</time>
      </trkpt>
      <trkpt lat="45.0817" lon="1.02468">
        <ele>156.242212</ele>
        <time>2022-08-18T06:07:14Z</time>
      </trkpt>
      <trkpt lat="45.0817" lon="1.02468">
        <ele>156.242212</ele>
        <time>2022-08-18T06:07:18Z</time>
      </trkpt>
      <trkpt lat="45.08171" lon="1.02467">
        <ele>156.3759266</ele>
        <time>2022-08-18T06:07:20Z</time>
      </trkpt>
      <trkpt lat="45.08171" lon="1.02467">
        <ele>156.3769092</ele>
        <time>2022-08-18T06:07:22Z</time>
      </trkpt>
      <trkpt lat="45.08171" lon="1.02467">
        <ele>155.9129412</ele>
        <time>2022-08-18T06:07:26Z</time>
      </trkpt>
      <trkpt lat="45.08171" lon="1.02467">
        <ele>155.9129412</ele>
        <time>2022-08-18T06:07:30Z</time>
      </trkpt>
      <trkpt lat="45.08171" lon="1.02467">
        <ele>155.9129412</ele>
        <time>2022-08-18T06:07:34Z</time>
      </trkpt>
      <trkpt lat="45.08171" lon="1.02466">
        <ele>153.9557586</ele>
        <time>2022-08-18T06:07:38Z</time>
      </trkpt>
      <trkpt lat="45.08171" lon="1.02466">
        <ele>154.1239076</ele>
        <time>2022-08-18T06:07:40Z</time>
      </trkpt>
      <trkpt lat="45.08171" lon="1.02466">
        <ele>154.4481714</ele>
        <time>2022-08-18T06:07:42Z</time>
      </trkpt>
      <trkpt lat="45.08171" lon="1.02466">
        <ele>154.4481714</ele>
        <time>2022-08-18T06:07:46Z</time>
      </trkpt>
      <trkpt lat="45.08171" lon="1.02466">
        <ele>154.4481714</ele>
        <time>2022-08-18T06:07:50Z</time>
      </trkpt>
      <trkpt lat="45.08171" lon="1.02468">
        <ele>155.2694754</ele>
        <time>2022-08-18T06:07:52Z</time>
      </trkpt>
      <trkpt lat="45.08171" lon="1.02468">
        <ele>155.1133292</ele>
        <time>2022-08-18T06:07:54Z</time>
      </trkpt>
      <trkpt lat="45.08171" lon="1.02468">
        <ele>154.8730046</ele>
        <time>2022-08-18T06:07:56Z</time>
      </trkpt>
      <trkpt lat="45.08171" lon="1.02468">
        <ele>154.3863218</ele>
        <time>2022-08-18T06:07:58Z</time>
      </trkpt>
      <trkpt lat="45.08171" lon="1.02468">
        <ele>154.2143442</ele>
        <time>2022-08-18T06:08:00Z</time>
      </trkpt>
      <trkpt lat="45.08171" lon="1.02468">
        <ele>154.9246829</ele>
        <time>2022-08-18T06:08:02Z</time>
      </trkpt>
      <trkpt lat="45.08171" lon="1.02469">
        <ele>155.1039375</ele>
        <time>2022-08-18T06:08:04Z</time>
      </trkpt>
      <trkpt lat="45.08171" lon="1.02468">
        <ele>155.0328982</ele>
        <time>2022-08-18T06:08:06Z</time>
      </trkpt>
      <trkpt lat="45.08172" lon="1.02468">
        <ele>154.9033326</ele>
        <time>2022-08-18T06:08:08Z</time>
      </trkpt>
      <trkpt lat="45.08172" lon="1.02468">
        <ele>154.9605824</ele>
        <time>2022-08-18T06:08:10Z</time>
      </trkpt>
      <trkpt lat="45.08172" lon="1.02468">
        <ele>154.9605824</ele>
        <time>2022-08-18T06:08:14Z</time>
      </trkpt>
      <trkpt lat="45.08171" lon="1.02472">
        <ele>157.2227507</ele>
        <time>2022-08-18T06:08:18Z</time>
      </trkpt>
      <trkpt lat="45.08171" lon="1.02472">
        <ele>157.277441</ele>
        <time>2022-08-18T06:08:20Z</time>
      </trkpt>
      <trkpt lat="45.0817" lon="1.02473">
        <ele>157.8115336</ele>
        <time>2022-08-18T06:08:22Z</time>
      </trkpt>
      <trkpt lat="45.0817" lon="1.02471">
        <ele>157.0614005</ele>
        <time>2022-08-18T06:08:24Z</time>
      </trkpt>
      <trkpt lat="45.0817" lon="1.02469">
        <ele>156.3093825</ele>
        <time>2022-08-18T06:08:26Z</time>
      </trkpt>
      <trkpt lat="45.08171" lon="1.02469">
        <ele>156.0725201</ele>
        <time>2022-08-18T06:08:28Z</time>
      </trkpt>
      <trkpt lat="45.08171" lon="1.02468">
        <ele>155.8581887</ele>
        <time>2022-08-18T06:08:30Z</time>
      </trkpt>
      <trkpt lat="45.08171" lon="1.02466">
        <ele>154.6922203</ele>
        <time>2022-08-18T06:08:32Z</time>
      </trkpt>
      <trkpt lat="45.08171" lon="1.02463">
        <ele>152.9675472</ele>
        <time>2022-08-18T06:08:34Z</time>
      </trkpt>
      <trkpt lat="45.08172" lon="1.02463">
        <ele>152.8548587</ele>
        <time>2022-08-18T06:08:36Z</time>
      </trkpt>
      <trkpt lat="45.08172" lon="1.02463">
        <ele>153.0988638</ele>
        <time>2022-08-18T06:08:38Z</time>
      </trkpt>
      <trkpt lat="45.08173" lon="1.02464">
        <ele>153.4426884</ele>
        <time>2022-08-18T06:08:40Z</time>
      </trkpt>
      <trkpt lat="45.08173" lon="1.02463">
        <ele>153.8153019</ele>
        <time>2022-08-18T06:08:42Z</time>
      </trkpt>
      <trkpt lat="45.08172" lon="1.02463">
        <ele>153.9565155</ele>
        <time>2022-08-18T06:08:44Z</time>
      </trkpt>
      <trkpt lat="45.08173" lon="1.02463">
        <ele>154.2238829</ele>
        <time>2022-08-18T06:08:46Z</time>
      </trkpt>
      <trkpt lat="45.08172" lon="1.02463">
        <ele>154.3883154</ele>
        <time>2022-08-18T06:08:48Z</time>
      </trkpt>
      <trkpt lat="45.08172" lon="1.02463">
        <ele>154.0685571</ele>
        <time>2022-08-18T06:08:50Z</time>
      </trkpt>
      <trkpt lat="45.08173" lon="1.02463">
        <ele>153.9464358</ele>
        <time>2022-08-18T06:08:52Z</time>
      </trkpt>
      <trkpt lat="45.08172" lon="1.02463">
        <ele>154.1801959</ele>
        <time>2022-08-18T06:08:54Z</time>
      </trkpt>
      <trkpt lat="45.08172" lon="1.02463">
        <ele>153.9219658</ele>
        <time>2022-08-18T06:08:56Z</time>
      </trkpt>
      <trkpt lat="45.08173" lon="1.02462">
        <ele>153.1929424</ele>
        <time>2022-08-18T06:08:58Z</time>
      </trkpt>
      <trkpt lat="45.08173" lon="1.02462">
        <ele>152.8248192</ele>
        <time>2022-08-18T06:09:00Z</time>
      </trkpt>
      <trkpt lat="45.08173" lon="1.02462">
        <ele>152.734089</ele>
        <time>2022-08-18T06:09:02Z</time>
      </trkpt>
      <trkpt lat="45.08173" lon="1.02462">
        <ele>152.2087807</ele>
        <time>2022-08-18T06:09:04Z</time>
      </trkpt>
      <trkpt lat="45.08173" lon="1.02462">
        <ele>151.9426814</ele>
        <time>2022-08-18T06:09:06Z</time>
      </trkpt>
      <trkpt lat="45.08173" lon="1.02462">
        <ele>151.8820871</ele>
        <time>2022-08-18T06:09:08Z</time>
      </trkpt>
      <trkpt lat="45.08173" lon="1.02461">
        <ele>151.504862</ele>
        <time>2022-08-18T06:09:10Z</time>
      </trkpt>
      <trkpt lat="45.08173" lon="1.02462">
        <ele>151.6747941</ele>
        <time>2022-08-18T06:09:12Z</time>
      </trkpt>
      <trkpt lat="45.08173" lon="1.02462">
        <ele>152.041809</ele>
        <time>2022-08-18T06:09:14Z</time>
      </trkpt>
      <trkpt lat="45.08173" lon="1.02461">
        <ele>152.0073516</ele>
        <time>2022-08-18T06:09:16Z</time>
      </trkpt>
      <trkpt lat="45.08173" lon="1.02461">
        <ele>152.6845366</ele>
        <time>2022-08-18T06:09:18Z</time>
      </trkpt>
      <trkpt lat="45.08173" lon="1.02462">
        <ele>153.3245365</ele>
        <time>2022-08-18T06:09:20Z</time>
      </trkpt>
      <trkpt lat="45.08173" lon="1.02463">
        <ele>153.6793798</ele>
        <time>2022-08-18T06:09:22Z</time>
      </trkpt>
      <trkpt lat="45.08173" lon="1.02463">
        <ele>153.9671213</ele>
        <time>2022-08-18T06:09:24Z</time>
      </trkpt>
      <trkpt lat="45.08173" lon="1.02464">
        <ele>154.2550282</ele>
        <time>2022-08-18T06:09:26Z</time>
      </trkpt>
      <trkpt lat="45.08174" lon="1.02464">
        <ele>153.8468492</ele>
        <time>2022-08-18T06:09:28Z</time>
      </trkpt>
      <trkpt lat="45.08174" lon="1.02463">
        <ele>152.8364292</ele>
        <time>2022-08-18T06:09:30Z</time>
      </trkpt>
      <trkpt lat="45.08174" lon="1.02463">
        <ele>152.4961061</ele>
        <time>2022-08-18T06:09:32Z</time>
      </trkpt>
      <trkpt lat="45.08174" lon="1.02463">
        <ele>152.4961061</ele>
        <time>2022-08-18T06:09:36Z</time>
      </trkpt>
      <trkpt lat="45.08175" lon="1.02464">
        <ele>151.642426</ele>
        <time>2022-08-18T06:09:38Z</time>
      </trkpt>
      <trkpt lat="45.08175" lon="1.02464">
        <ele>151.0022394</ele>
        <time>2022-08-18T06:09:40Z</time>
      </trkpt>
      <trkpt lat="45.08175" lon="1.02464">
        <ele>151.0799354</ele>
        <time>2022-08-18T06:09:42Z</time>
      </trkpt>
      <trkpt lat="45.08175" lon="1.02464">
        <ele>151.3790415</ele>
        <time>2022-08-18T06:09:44Z</time>
      </trkpt>
      <trkpt lat="45.08175" lon="1.02463">
        <ele>151.2404191</ele>
        <time>2022-08-18T06:09:46Z</time>
      </trkpt>
      <trkpt lat="45.08175" lon="1.02463">
        <ele>151.1587547</ele>
        <time>2022-08-18T06:09:48Z</time>
      </trkpt>
      <trkpt lat="45.08174" lon="1.02462">
        <ele>150.5725543</ele>
        <time>2022-08-18T06:09:50Z</time>
      </trkpt>
      <trkpt lat="45.08174" lon="1.02462">
        <ele>150.6103685</ele>
        <time>2022-08-18T06:09:52Z</time>
      </trkpt>
      <trkpt lat="45.08173" lon="1.02462">
        <ele>150.8820335</ele>
        <time>2022-08-18T06:09:54Z</time>
      </trkpt>
      <trkpt lat="45.08173" lon="1.02462">
        <ele>150.969338</ele>
        <time>2022-08-18T06:09:56Z</time>
      </trkpt>
      <trkpt lat="45.08173" lon="1.02462">
        <ele>150.8906365</ele>
        <time>2022-08-18T06:09:58Z</time>
      </trkpt>
      <trkpt lat="45.08173" lon="1.02462">
        <ele>150.8368951</ele>
        <time>2022-08-18T06:10:00Z</time>
      </trkpt>
      <trkpt lat="45.08173" lon="1.02462">
        <ele>150.8368951</ele>
        <time>2022-08-18T06:10:04Z</time>
      </trkpt>
      <trkpt lat="45.08173" lon="1.02462">
        <ele>150.8368951</ele>
        <time>2022-08-18T06:10:08Z</time>
      </trkpt>
      <trkpt lat="45.08173" lon="1.02462">
        <ele>150.1728632</ele>
        <time>2022-08-18T06:10:10Z</time>
      </trkpt>
      <trkpt lat="45.08172" lon="1.02462">
        <ele>150.4222442</ele>
        <time>2022-08-18T06:10:12Z</time>
      </trkpt>
      <trkpt lat="45.08172" lon="1.02462">
        <ele>150.7311508</ele>
        <time>2022-08-18T06:10:14Z</time>
      </trkpt>
      <trkpt lat="45.08172" lon="1.02462">
        <ele>150.8473842</ele>
        <time>2022-08-18T06:10:16Z</time>
      </trkpt>
      <trkpt lat="45.08172" lon="1.02462">
        <ele>150.9994562</ele>
        <time>2022-08-18T06:10:18Z</time>
      </trkpt>
      <trkpt lat="45.08172" lon="1.02462">
        <ele>150.95372</ele>
        <time>2022-08-18T06:10:20Z</time>
      </trkpt>
      <trkpt lat="45.08172" lon="1.02462">
        <ele>150.8274442</ele>
        <time>2022-08-18T06:10:22Z</time>
      </trkpt>
      <trkpt lat="45.08172" lon="1.02462">
        <ele>150.7583697</ele>
        <time>2022-08-18T06:10:24Z</time>
      </trkpt>
      <trkpt lat="45.08173" lon="1.02463">
        <ele>150.7078122</ele>
        <time>2022-08-18T06:10:26Z</time>
      </trkpt>
      <trkpt lat="45.08173" lon="1.02465">
        <ele>150.6525594</ele>
        <time>2022-08-18T06:10:28Z</time>
      </trkpt>
      <trkpt lat="45.08174" lon="1.02469">
        <ele>150.7261502</ele>
        <time>2022-08-18T06:10:30Z</time>
      </trkpt>
      <trkpt lat="45.08177" lon="1.02472">
        <ele>151.1591197</ele>
        <time>2022-08-18T06:10:32Z</time>
      </trkpt>
      <trkpt lat="45.0818" lon="1.02473">
        <ele>151.6496359</ele>
        <time>2022-08-18T06:10:34Z</time>
      </trkpt>
      <trkpt lat="45.08182" lon="1.02475">
        <ele>151.6668613</ele>
        <time>2022-08-18T06:10:36Z</time>
      </trkpt>
      <trkpt lat="45.08183" lon="1.02474">
        <ele>151.6254451</ele>
        <time>2022-08-18T06:10:38Z</time>
      </trkpt>
      <trkpt lat="45.08184" lon="1.02473">
        <ele>151.0233333</ele>
        <time>2022-08-18T06:10:40Z</time>
      </trkpt>
      <trkpt lat="45.08184" lon="1.02473">
        <ele>150.7054298</ele>
        <time>2022-08-18T06:10:42Z</time>
      </trkpt>
      <trkpt lat="45.08184" lon="1.02473">
        <ele>150.2725451</ele>
        <time>2022-08-18T06:10:44Z</time>
      </trkpt>
      <trkpt lat="45.08184" lon="1.02472">
        <ele>150.4106545</ele>
        <time>2022-08-18T06:10:46Z</time>
      </trkpt>
      <trkpt lat="45.08183" lon="1.02469">
        <ele>150.9041226</ele>
        <time>2022-08-18T06:10:48Z</time>
      </trkpt>
      <trkpt lat="45.08181" lon="1.02467">
        <ele>150.8119148</ele>
        <time>2022-08-18T06:10:50Z</time>
      </trkpt>
      <trkpt lat="45.08179" lon="1.02466">
        <ele>151.08988</ele>
        <time>2022-08-18T06:10:52Z</time>
      </trkpt>
      <trkpt lat="45.08176" lon="1.02465">
        <ele>151.258205</ele>
        <time>2022-08-18T06:10:54Z</time>
      </trkpt>
      <trkpt lat="45.08174" lon="1.02465">
        <ele>151.0169241</ele>
        <time>2022-08-18T06:10:56Z</time>
      </trkpt>
      <trkpt lat="45.08172" lon="1.02464">
        <ele>150.7498185</ele>
        <time>2022-08-18T06:10:58Z</time>
      </trkpt>
      <trkpt lat="45.08169" lon="1.02461">
        <ele>150.5813284</ele>
        <time>2022-08-18T06:11:00Z</time>
      </trkpt>
      <trkpt lat="45.08165" lon="1.02458">
        <ele>150.4515403</ele>
        <time>2022-08-18T06:11:02Z</time>
      </trkpt>
      <trkpt lat="45.08161" lon="1.02456">
        <ele>150.367548</ele>
        <time>2022-08-18T06:11:04Z</time>
      </trkpt>
      <trkpt lat="45.08157" lon="1.02453">
        <ele>150.6447781</ele>
        <time>2022-08-18T06:11:06Z</time>
      </trkpt>
      <trkpt lat="45.08154" lon="1.0245">
        <ele>150.6371998</ele>
        <time>2022-08-18T06:11:08Z</time>
      </trkpt>
      <trkpt lat="45.08152" lon="1.02449">
        <ele>150.4666918</ele>
        <time>2022-08-18T06:11:10Z</time>
      </trkpt>
      <trkpt lat="45.08151" lon="1.02451">
        <ele>150.6255446</ele>
        <time>2022-08-18T06:11:12Z</time>
      </trkpt>
      <trkpt lat="45.08151" lon="1.02452">
        <ele>150.9315426</ele>
        <time>2022-08-18T06:11:14Z</time>
      </trkpt>
      <trkpt lat="45.08152" lon="1.02454">
        <ele>150.8128251</ele>
        <time>2022-08-18T06:11:16Z</time>
      </trkpt>
      <trkpt lat="45.08153" lon="1.02455">
        <ele>150.8050399</ele>
        <time>2022-08-18T06:11:18Z</time>
      </trkpt>
      <trkpt lat="45.08156" lon="1.02455">
        <ele>150.9390426</ele>
        <time>2022-08-18T06:11:20Z</time>
      </trkpt>
      <trkpt lat="45.08159" lon="1.02457">
        <ele>150.8115192</ele>
        <time>2022-08-18T06:11:22Z</time>
      </trkpt>
      <trkpt lat="45.08163" lon="1.02458">
        <ele>150.9868548</ele>
        <time>2022-08-18T06:11:24Z</time>
      </trkpt>
      <trkpt lat="45.08166" lon="1.0246">
        <ele>151.25807</ele>
        <time>2022-08-18T06:11:26Z</time>
      </trkpt>
      <trkpt lat="45.08169" lon="1.02463">
        <ele>151.4240438</ele>
        <time>2022-08-18T06:11:28Z</time>
      </trkpt>
      <trkpt lat="45.08174" lon="1.02467">
        <ele>152.0198639</ele>
        <time>2022-08-18T06:11:30Z</time>
      </trkpt>
      <trkpt lat="45.08178" lon="1.02471">
        <ele>152.621395</ele>
        <time>2022-08-18T06:11:32Z</time>
      </trkpt>
      <trkpt lat="45.08182" lon="1.02477">
        <ele>152.6848153</ele>
        <time>2022-08-18T06:11:34Z</time>
      </trkpt>
      <trkpt lat="45.08186" lon="1.02482">
        <ele>152.7411037</ele>
        <time>2022-08-18T06:11:36Z</time>
      </trkpt>
      <trkpt lat="45.08191" lon="1.02487">
        <ele>153.0650583</ele>
        <time>2022-08-18T06:11:38Z</time>
      </trkpt>
      <trkpt lat="45.08196" lon="1.02492">
        <ele>153.3304537</ele>
        <time>2022-08-18T06:11:40Z</time>
      </trkpt>
      <trkpt lat="45.08201" lon="1.02497">
        <ele>153.5138419</ele>
        <time>2022-08-18T06:11:42Z</time>
      </trkpt>
      <trkpt lat="45.08206" lon="1.02502">
        <ele>153.4705945</ele>
        <time>2022-08-18T06:11:44Z</time>
      </trkpt>
      <trkpt lat="45.08211" lon="1.02508">
        <ele>154.2312447</ele>
        <time>2022-08-18T06:11:46Z</time>
      </trkpt>
      <trkpt lat="45.08216" lon="1.02513">
        <ele>154.2802837</ele>
        <time>2022-08-18T06:11:48Z</time>
      </trkpt>
      <trkpt lat="45.08221" lon="1.02518">
        <ele>154.7862579</ele>
        <time>2022-08-18T06:11:50Z</time>
      </trkpt>
      <trkpt lat="45.08226" lon="1.02524">
        <ele>155.7524987</ele>
        <time>2022-08-18T06:11:52Z</time>
      </trkpt>
      <trkpt lat="45.08231" lon="1.0253">
        <ele>156.6090859</ele>
        <time>2022-08-18T06:11:54Z</time>
      </trkpt>
      <trkpt lat="45.08236" lon="1.02536">
        <ele>157.3057768</ele>
        <time>2022-08-18T06:11:56Z</time>
      </trkpt>
      <trkpt lat="45.08242" lon="1.02541">
        <ele>157.8617623</ele>
        <time>2022-08-18T06:11:58Z</time>
      </trkpt>
      <trkpt lat="45.08247" lon="1.02546">
        <ele>157.6424094</ele>
        <time>2022-08-18T06:12:00Z</time>
      </trkpt>
      <trkpt lat="45.08252" lon="1.02551">
        <ele>157.9271861</ele>
        <time>2022-08-18T06:12:02Z</time>
      </trkpt>
      <trkpt lat="45.08258" lon="1.02555">
        <ele>157.8167535</ele>
        <time>2022-08-18T06:12:04Z</time>
      </trkpt>
      <trkpt lat="45.08263" lon="1.0256">
        <ele>157.542374</ele>
        <time>2022-08-18T06:12:06Z</time>
      </trkpt>
      <trkpt lat="45.08268" lon="1.02564">
        <ele>157.6857765</ele>
        <time>2022-08-18T06:12:08Z</time>
      </trkpt>
      <trkpt lat="45.08274" lon="1.02567">
        <ele>158.2305852</ele>
        <time>2022-08-18T06:12:10Z</time>
      </trkpt>
      <trkpt lat="45.08279" lon="1.02569">
        <ele>158.157601</ele>
        <time>2022-08-18T06:12:12Z</time>
      </trkpt>
      <trkpt lat="45.08285" lon="1.02568">
        <ele>158.4629759</ele>
        <time>2022-08-18T06:12:14Z</time>
      </trkpt>
      <trkpt lat="45.0829" lon="1.02571">
        <ele>158.9058424</ele>
        <time>2022-08-18T06:12:16Z</time>
      </trkpt>
      <trkpt lat="45.08296" lon="1.02575">
        <ele>159.2858925</ele>
        <time>2022-08-18T06:12:18Z</time>
      </trkpt>
      <trkpt lat="45.08301" lon="1.02576">
        <ele>159.7629855</ele>
        <time>2022-08-18T06:12:20Z</time>
      </trkpt>
      <trkpt lat="45.08306" lon="1.02576">
        <ele>159.8586819</ele>
        <time>2022-08-18T06:12:22Z</time>
      </trkpt>
      <trkpt lat="45.08311" lon="1.02576">
        <ele>159.9235655</ele>
        <time>2022-08-18T06:12:24Z</time>
      </trkpt>
      <trkpt lat="45.08315" lon="1.02577">
        <ele>159.864072</ele>
        <time>2022-08-18T06:12:26Z</time>
      </trkpt>
      <trkpt lat="45.08319" lon="1.02578">
        <ele>159.3830145</ele>
        <time>2022-08-18T06:12:28Z</time>
      </trkpt>
      <trkpt lat="45.08324" lon="1.02578">
        <ele>159.1268446</ele>
        <time>2022-08-18T06:12:30Z</time>
      </trkpt>
      <trkpt lat="45.08327" lon="1.0258">
        <ele>159.0759411</ele>
        <time>2022-08-18T06:12:32Z</time>
      </trkpt>
      <trkpt lat="45.08329" lon="1.02579">
        <ele>159.1184485</ele>
        <time>2022-08-18T06:12:34Z</time>
      </trkpt>
      <trkpt lat="45.08328" lon="1.02576">
        <ele>158.9445302</ele>
        <time>2022-08-18T06:12:36Z</time>
      </trkpt>
      <trkpt lat="45.08327" lon="1.02576">
        <ele>158.6994216</ele>
        <time>2022-08-18T06:12:38Z</time>
      </trkpt>
      <trkpt lat="45.08325" lon="1.02575">
        <ele>158.6819795</ele>
        <time>2022-08-18T06:12:40Z</time>
      </trkpt>
      <trkpt lat="45.08322" lon="1.02574">
        <ele>158.6395369</ele>
        <time>2022-08-18T06:12:42Z</time>
      </trkpt>
      <trkpt lat="45.08316" lon="1.02573">
        <ele>158.1812239</ele>
        <time>2022-08-18T06:12:44Z</time>
      </trkpt>
      <trkpt lat="45.08306" lon="1.0257">
        <ele>157.3627231</ele>
        <time>2022-08-18T06:12:46Z</time>
      </trkpt>
      <trkpt lat="45.08296" lon="1.02569">
        <ele>157.2868413</ele>
        <time>2022-08-18T06:12:48Z</time>
      </trkpt>
      <trkpt lat="45.08285" lon="1.02567">
        <ele>157.3339922</ele>
        <time>2022-08-18T06:12:50Z</time>
      </trkpt>
      <trkpt lat="45.08274" lon="1.02563">
        <ele>157.1334691</ele>
        <time>2022-08-18T06:12:52Z</time>
      </trkpt>
      <trkpt lat="45.08263" lon="1.02554">
        <ele>157.5739321</ele>
        <time>2022-08-18T06:12:54Z</time>
      </trkpt>
      <trkpt lat="45.08252" lon="1.02545">
        <ele>158.0732547</ele>
        <time>2022-08-18T06:12:56Z</time>
      </trkpt>
      <trkpt lat="45.08242" lon="1.02536">
        <ele>158.8304111</ele>
        <time>2022-08-18T06:12:58Z</time>
      </trkpt>
      <trkpt lat="45.08231" lon="1.02527">
        <ele>158.9296331</ele>
        <time>2022-08-18T06:13:00Z</time>
      </trkpt>
      <trkpt lat="45.08222" lon="1.02518">
        <ele>159.6859425</ele>
        <time>2022-08-18T06:13:02Z</time>
      </trkpt>
      <trkpt lat="45.08213" lon="1.02508">
        <ele>160.4778138</ele>
        <time>2022-08-18T06:13:04Z</time>
      </trkpt>
      <trkpt lat="45.08202" lon="1.02499">
        <ele>160.8649588</ele>
        <time>2022-08-18T06:13:06Z</time>
      </trkpt>
      <trkpt lat="45.08192" lon="1.02489">
        <ele>161.0547297</ele>
        <time>2022-08-18T06:13:08Z</time>
      </trkpt>
      <trkpt lat="45.08183" lon="1.02478">
        <ele>160.7760836</ele>
        <time>2022-08-18T06:13:10Z</time>
      </trkpt>
      <trkpt lat="45.08173" lon="1.02469">
        <ele>160.5071598</ele>
        <time>2022-08-18T06:13:12Z</time>
      </trkpt>
      <trkpt lat="45.08164" lon="1.02461">
        <ele>159.9966231</ele>
        <time>2022-08-18T06:13:14Z</time>
      </trkpt>
      <trkpt lat="45.0816" lon="1.02457">
        <ele>158.6038314</ele>
        <time>2022-08-18T06:13:16Z</time>
      </trkpt>
      <trkpt lat="45.08158" lon="1.02457">
        <ele>159.2690861</ele>
        <time>2022-08-18T06:13:18Z</time>
      </trkpt>
      <trkpt lat="45.08158" lon="1.02457">
        <ele>158.8967898</ele>
        <time>2022-08-18T06:13:20Z</time>
      </trkpt>
      <trkpt lat="45.08158" lon="1.02457">
        <ele>158.8515059</ele>
        <time>2022-08-18T06:13:22Z</time>
      </trkpt>
      <trkpt lat="45.08158" lon="1.02456">
        <ele>158.5198908</ele>
        <time>2022-08-18T06:13:24Z</time>
      </trkpt>
      <trkpt lat="45.08158" lon="1.02456">
        <ele>158.5198908</ele>
        <time>2022-08-18T06:13:28Z</time>
      </trkpt>
      <trkpt lat="45.08158" lon="1.02455">
        <ele>157.7910952</ele>
        <time>2022-08-18T06:13:30Z</time>
      </trkpt>
      <trkpt lat="45.08158" lon="1.02454">
        <ele>156.7956089</ele>
        <time>2022-08-18T06:13:32Z</time>
      </trkpt>
      <trkpt lat="45.08157" lon="1.02455">
        <ele>157.0835823</ele>
        <time>2022-08-18T06:13:34Z</time>
      </trkpt>
      <trkpt lat="45.08157" lon="1.02454">
        <ele>156.7367291</ele>
        <time>2022-08-18T06:13:36Z</time>
      </trkpt>
      <trkpt lat="45.08157" lon="1.02454">
        <ele>156.7896723</ele>
        <time>2022-08-18T06:13:38Z</time>
      </trkpt>
      <trkpt lat="45.08157" lon="1.02455">
        <ele>156.5891043</ele>
        <time>2022-08-18T06:13:40Z</time>
      </trkpt>
      <trkpt lat="45.08157" lon="1.02455">
        <ele>156.3413407</ele>
        <time>2022-08-18T06:13:42Z</time>
      </trkpt>
      <trkpt lat="45.08157" lon="1.02455">
        <ele>156.109579</ele>
        <time>2022-08-18T06:13:44Z</time>
      </trkpt>
      <trkpt lat="45.08157" lon="1.02454">
        <ele>155.7585711</ele>
        <time>2022-08-18T06:13:46Z</time>
      </trkpt>
      <trkpt lat="45.08157" lon="1.02454">
        <ele>155.2188127</ele>
        <time>2022-08-18T06:13:48Z</time>
      </trkpt>
      <trkpt lat="45.08157" lon="1.02454">
        <ele>154.7512549</ele>
        <time>2022-08-18T06:13:50Z</time>
      </trkpt>
      <trkpt lat="45.08157" lon="1.02454">
        <ele>154.7557879</ele>
        <time>2022-08-18T06:13:52Z</time>
      </trkpt>
      <trkpt lat="45.08157" lon="1.02453">
        <ele>153.6237107</ele>
        <time>2022-08-18T06:13:54Z</time>
      </trkpt>
      <trkpt lat="45.08157" lon="1.02453">
        <ele>152.9281726</ele>
        <time>2022-08-18T06:13:56Z</time>
      </trkpt>
      <trkpt lat="45.08157" lon="1.02453">
        <ele>152.4364878</ele>
        <time>2022-08-18T06:13:58Z</time>
      </trkpt>
      <trkpt lat="45.08156" lon="1.02454">
        <ele>152.1910029</ele>
        <time>2022-08-18T06:14:00Z</time>
      </trkpt>
      <trkpt lat="45.08156" lon="1.02457">
        <ele>152.7492726</ele>
        <time>2022-08-18T06:14:02Z</time>
      </trkpt>
      <trkpt lat="45.08158" lon="1.02458">
        <ele>152.4158258</ele>
        <time>2022-08-18T06:14:04Z</time>
      </trkpt>
      <trkpt lat="45.08161" lon="1.02459">
        <ele>152.323017</ele>
        <time>2022-08-18T06:14:06Z</time>
      </trkpt>
      <trkpt lat="45.08163" lon="1.02461">
        <ele>152.3713285</ele>
        <time>2022-08-18T06:14:08Z</time>
      </trkpt>
      <trkpt lat="45.08166" lon="1.02463">
        <ele>152.4346094</ele>
        <time>2022-08-18T06:14:10Z</time>
      </trkpt>
      <trkpt lat="45.08168" lon="1.02464">
        <ele>152.3833382</ele>
        <time>2022-08-18T06:14:12Z</time>
      </trkpt>
      <trkpt lat="45.08171" lon="1.02466">
        <ele>152.7454231</ele>
        <time>2022-08-18T06:14:14Z</time>
      </trkpt>
      <trkpt lat="45.08173" lon="1.0247">
        <ele>152.8523543</ele>
        <time>2022-08-18T06:14:16Z</time>
      </trkpt>
      <trkpt lat="45.08176" lon="1.02472">
        <ele>153.2213099</ele>
        <time>2022-08-18T06:14:18Z</time>
      </trkpt>
      <trkpt lat="45.08179" lon="1.02475">
        <ele>153.4262936</ele>
        <time>2022-08-18T06:14:20Z</time>
      </trkpt>
      <trkpt lat="45.08182" lon="1.02478">
        <ele>153.9241877</ele>
        <time>2022-08-18T06:14:22Z</time>
      </trkpt>
      <trkpt lat="45.08185" lon="1.02481">
        <ele>153.9404425</ele>
        <time>2022-08-18T06:14:24Z</time>
      </trkpt>
      <trkpt lat="45.08188" lon="1.02485">
        <ele>154.2803967</ele>
        <time>2022-08-18T06:14:26Z</time>
      </trkpt>
      <trkpt lat="45.08191" lon="1.02488">
        <ele>154.3636908</ele>
        <time>2022-08-18T06:14:28Z</time>
      </trkpt>
      <trkpt lat="45.08195" lon="1.02493">
        <ele>154.9080719</ele>
        <time>2022-08-18T06:14:30Z</time>
      </trkpt>
      <trkpt lat="45.082" lon="1.02498">
        <ele>154.7157944</ele>
        <time>2022-08-18T06:14:32Z</time>
      </trkpt>
      <trkpt lat="45.08205" lon="1.02503">
        <ele>154.9911084</ele>
        <time>2022-08-18T06:14:34Z</time>
      </trkpt>
      <trkpt lat="45.0821" lon="1.02508">
        <ele>155.3176434</ele>
        <time>2022-08-18T06:14:36Z</time>
      </trkpt>
      <trkpt lat="45.08215" lon="1.02514">
        <ele>155.4019716</ele>
        <time>2022-08-18T06:14:38Z</time>
      </trkpt>
      <trkpt lat="45.0822" lon="1.02519">
        <ele>156.1045584</ele>
        <time>2022-08-18T06:14:40Z</time>
      </trkpt>
      <trkpt lat="45.08225" lon="1.02525">
        <ele>156.7618857</ele>
        <time>2022-08-18T06:14:42Z</time>
      </trkpt>
      <trkpt lat="45.08233" lon="1.02533">
        <ele>157.2328091</ele>
        <time>2022-08-18T06:14:44Z</time>
      </trkpt>
      <trkpt lat="45.08238" lon="1.02538">
        <ele>157.5346813</ele>
        <time>2022-08-18T06:14:46Z</time>
      </trkpt>
      <trkpt lat="45.08244" lon="1.02544">
        <ele>158.0402107</ele>
        <time>2022-08-18T06:14:48Z</time>
      </trkpt>
      <trkpt lat="45.0825" lon="1.02549">
        <ele>157.9990475</ele>
        <time>2022-08-18T06:14:50Z</time>
      </trkpt>
      <trkpt lat="45.08257" lon="1.02555">
        <ele>158.1601105</ele>
        <time>2022-08-18T06:14:52Z</time>
      </trkpt>
      <trkpt lat="45.08263" lon="1.02561">
        <ele>158.5686668</ele>
        <time>2022-08-18T06:14:54Z</time>
      </trkpt>
      <trkpt lat="45.0827" lon="1.02567">
        <ele>159.0722914</ele>
        <time>2022-08-18T06:14:56Z</time>
      </trkpt>
      <trkpt lat="45.08276" lon="1.02571">
        <ele>159.4025308</ele>
        <time>2022-08-18T06:14:58Z</time>
      </trkpt>
      <trkpt lat="45.08283" lon="1.02573">
        <ele>159.3733784</ele>
        <time>2022-08-18T06:15:00Z</time>
      </trkpt>
      <trkpt lat="45.08289" lon="1.02576">
        <ele>159.6251233</ele>
        <time>2022-08-18T06:15:02Z</time>
      </trkpt>
      <trkpt lat="45.08294" lon="1.02576">
        <ele>160.1971322</ele>
        <time>2022-08-18T06:15:04Z</time>
      </trkpt>
      <trkpt lat="45.083" lon="1.02577">
        <ele>160.3150139</ele>
        <time>2022-08-18T06:15:06Z</time>
      </trkpt>
      <trkpt lat="45.08305" lon="1.02578">
        <ele>160.2634914</ele>
        <time>2022-08-18T06:15:08Z</time>
      </trkpt>
      <trkpt lat="45.0831" lon="1.02578">
        <ele>160.1622822</ele>
        <time>2022-08-18T06:15:10Z</time>
      </trkpt>
      <trkpt lat="45.08315" lon="1.0258">
        <ele>160.0556858</ele>
        <time>2022-08-18T06:15:12Z</time>
      </trkpt>
      <trkpt lat="45.0832" lon="1.0258">
        <ele>160.1155872</ele>
        <time>2022-08-18T06:15:14Z</time>
      </trkpt>
      <trkpt lat="45.08324" lon="1.02581">
        <ele>159.7890052</ele>
        <time>2022-08-18T06:15:16Z</time>
      </trkpt>
      <trkpt lat="45.08329" lon="1.02583">
        <ele>159.8765953</ele>
        <time>2022-08-18T06:15:18Z</time>
      </trkpt>
      <trkpt lat="45.08334" lon="1.02584">
        <ele>159.4848615</ele>
        <time>2022-08-18T06:15:20Z</time>
      </trkpt>
      <trkpt lat="45.08338" lon="1.02585">
        <ele>159.6888532</ele>
        <time>2022-08-18T06:15:22Z</time>
      </trkpt>
      <trkpt lat="45.08343" lon="1.02588">
        <ele>159.8171362</ele>
        <time>2022-08-18T06:15:24Z</time>
      </trkpt>
      <trkpt lat="45.08348" lon="1.0259">
        <ele>160.075806</ele>
        <time>2022-08-18T06:15:26Z</time>
      </trkpt>
      <trkpt lat="45.08353" lon="1.02592">
        <ele>159.8316913</ele>
        <time>2022-08-18T06:15:28Z</time>
      </trkpt>
      <trkpt lat="45.08358" lon="1.02594">
        <ele>159.9966696</ele>
        <time>2022-08-18T06:15:30Z</time>
      </trkpt>
      <trkpt lat="45.08363" lon="1.02596">
        <ele>159.8555404</ele>
        <time>2022-08-18T06:15:32Z</time>
      </trkpt>
      <trkpt lat="45.08368" lon="1.02598">
        <ele>159.8602236</ele>
        <time>2022-08-18T06:15:34Z</time>
      </trkpt>
      <trkpt lat="45.08372" lon="1.02601">
        <ele>159.9554521</ele>
        <time>2022-08-18T06:15:36Z</time>
      </trkpt>
      <trkpt lat="45.08376" lon="1.02603">
        <ele>160.2346544</ele>
        <time>2022-08-18T06:15:38Z</time>
      </trkpt>
      <trkpt lat="45.0838" lon="1.02605">
        <ele>160.1945982</ele>
        <time>2022-08-18T06:15:40Z</time>
      </trkpt>
      <trkpt lat="45.08385" lon="1.02607">
        <ele>160.2795733</ele>
        <time>2022-08-18T06:15:42Z</time>
      </trkpt>
      <trkpt lat="45.08389" lon="1.02609">
        <ele>160.0905327</ele>
        <time>2022-08-18T06:15:44Z</time>
      </trkpt>
      <trkpt lat="45.08394" lon="1.02612">
        <ele>160.1525059</ele>
        <time>2022-08-18T06:15:46Z</time>
      </trkpt>
      <trkpt lat="45.08399" lon="1.02614">
        <ele>160.208398</ele>
        <time>2022-08-18T06:15:48Z</time>
      </trkpt>
      <trkpt lat="45.08404" lon="1.02617">
        <ele>160.2982778</ele>
        <time>2022-08-18T06:15:50Z</time>
      </trkpt>
      <trkpt lat="45.08409" lon="1.02619">
        <ele>160.5885178</ele>
        <time>2022-08-18T06:15:52Z</time>
      </trkpt>
      <trkpt lat="45.08415" lon="1.02622">
        <ele>160.5944782</ele>
        <time>2022-08-18T06:15:54Z</time>
      </trkpt>
      <trkpt lat="45.0842" lon="1.02625">
        <ele>160.6732481</ele>
        <time>2022-08-18T06:15:56Z</time>
      </trkpt>
      <trkpt lat="45.08425" lon="1.02627">
        <ele>160.6091676</ele>
        <time>2022-08-18T06:15:58Z</time>
      </trkpt>
      <trkpt lat="45.0843" lon="1.0263">
        <ele>160.211268</ele>
        <time>2022-08-18T06:16:00Z</time>
      </trkpt>
      <trkpt lat="45.08436" lon="1.02633">
        <ele>160.3265774</ele>
        <time>2022-08-18T06:16:02Z</time>
      </trkpt>
      <trkpt lat="45.08442" lon="1.02636">
        <ele>160.4085061</ele>
        <time>2022-08-18T06:16:04Z</time>
      </trkpt>
      <trkpt lat="45.08448" lon="1.02638">
        <ele>160.2503397</ele>
        <time>2022-08-18T06:16:06Z</time>
      </trkpt>
      <trkpt lat="45.08454" lon="1.0264">
        <ele>160.3780083</ele>
        <time>2022-08-18T06:16:08Z</time>
      </trkpt>
      <trkpt lat="45.0846" lon="1.02643">
        <ele>160.0774646</ele>
        <time>2022-08-18T06:16:10Z</time>
      </trkpt>
      <trkpt lat="45.08465" lon="1.02645">
        <ele>160.1500935</ele>
        <time>2022-08-18T06:16:12Z</time>
      </trkpt>
      <trkpt lat="45.08471" lon="1.02647">
        <ele>160.2589552</ele>
        <time>2022-08-18T06:16:14Z</time>
      </trkpt>
      <trkpt lat="45.08478" lon="1.02649">
        <ele>160.367376</ele>
        <time>2022-08-18T06:16:16Z</time>
      </trkpt>
      <trkpt lat="45.08484" lon="1.02651">
        <ele>160.3287635</ele>
        <time>2022-08-18T06:16:18Z</time>
      </trkpt>
      <trkpt lat="45.08491" lon="1.02653">
        <ele>160.4786472</ele>
        <time>2022-08-18T06:16:20Z</time>
      </trkpt>
      <trkpt lat="45.08498" lon="1.02656">
        <ele>160.2518779</ele>
        <time>2022-08-18T06:16:22Z</time>
      </trkpt>
      <trkpt lat="45.08504" lon="1.02658">
        <ele>160.1142515</ele>
        <time>2022-08-18T06:16:24Z</time>
      </trkpt>
      <trkpt lat="45.0851" lon="1.02662">
        <ele>160.322516</ele>
        <time>2022-08-18T06:16:26Z</time>
      </trkpt>
      <trkpt lat="45.08516" lon="1.02664">
        <ele>160.2392044</ele>
        <time>2022-08-18T06:16:28Z</time>
      </trkpt>
      <trkpt lat="45.08523" lon="1.02668">
        <ele>160.1651319</ele>
        <time>2022-08-18T06:16:30Z</time>
      </trkpt>
      <trkpt lat="45.08529" lon="1.0267">
        <ele>160.3028808</ele>
        <time>2022-08-18T06:16:32Z</time>
      </trkpt>
      <trkpt lat="45.08535" lon="1.02673">
        <ele>160.5675335</ele>
        <time>2022-08-18T06:16:34Z</time>
      </trkpt>
      <trkpt lat="45.08542" lon="1.02676">
        <ele>160.7670757</ele>
        <time>2022-08-18T06:16:36Z</time>
      </trkpt>
      <trkpt lat="45.08548" lon="1.02679">
        <ele>160.6918253</ele>
        <time>2022-08-18T06:16:38Z</time>
      </trkpt>
      <trkpt lat="45.08554" lon="1.02681">
        <ele>160.580305</ele>
        <time>2022-08-18T06:16:40Z</time>
      </trkpt>
      <trkpt lat="45.0856" lon="1.02682">
        <ele>160.691043</ele>
        <time>2022-08-18T06:16:42Z</time>
      </trkpt>
      <trkpt lat="45.08566" lon="1.02684">
        <ele>160.8617177</ele>
        <time>2022-08-18T06:16:44Z</time>
      </trkpt>
      <trkpt lat="45.08571" lon="1.02686">
        <ele>161.226002</ele>
        <time>2022-08-18T06:16:46Z</time>
      </trkpt>
      <trkpt lat="45.08575" lon="1.02687">
        <ele>161.875434</ele>
        <time>2022-08-18T06:16:48Z</time>
      </trkpt>
      <trkpt lat="45.0858" lon="1.02688">
        <ele>162.4329109</ele>
        <time>2022-08-18T06:16:50Z</time>
      </trkpt>
      <trkpt lat="45.08585" lon="1.0269">
        <ele>162.8467397</ele>
        <time>2022-08-18T06:16:52Z</time>
      </trkpt>
      <trkpt lat="45.0859" lon="1.02691">
        <ele>163.1454955</ele>
        <time>2022-08-18T06:16:54Z</time>
      </trkpt>
      <trkpt lat="45.08595" lon="1.02693">
        <ele>164.0760362</ele>
        <time>2022-08-18T06:16:56Z</time>
      </trkpt>
      <trkpt lat="45.08599" lon="1.02695">
        <ele>164.6052132</ele>
        <time>2022-08-18T06:16:58Z</time>
      </trkpt>
      <trkpt lat="45.08603" lon="1.02697">
        <ele>165.5355213</ele>
        <time>2022-08-18T06:17:00Z</time>
      </trkpt>
      <trkpt lat="45.08606" lon="1.02699">
        <ele>165.9316082</ele>
        <time>2022-08-18T06:17:02Z</time>
      </trkpt>
      <trkpt lat="45.08609" lon="1.02701">
        <ele>166.75434</ele>
        <time>2022-08-18T06:17:04Z</time>
      </trkpt>
      <trkpt lat="45.08612" lon="1.02703">
        <ele>167.0699063</ele>
        <time>2022-08-18T06:17:06Z</time>
      </trkpt>
      <trkpt lat="45.08616" lon="1.02706">
        <ele>167.9239004</ele>
        <time>2022-08-18T06:17:08Z</time>
      </trkpt>
      <trkpt lat="45.08619" lon="1.02707">
        <ele>168.3411079</ele>
        <time>2022-08-18T06:17:10Z</time>
      </trkpt>
      <trkpt lat="45.08621" lon="1.0271">
        <ele>168.5667618</ele>
        <time>2022-08-18T06:17:12Z</time>
      </trkpt>
      <trkpt lat="45.08624" lon="1.02712">
        <ele>168.6850604</ele>
        <time>2022-08-18T06:17:14Z</time>
      </trkpt>
      <trkpt lat="45.08627" lon="1.02715">
        <ele>168.9914607</ele>
        <time>2022-08-18T06:17:16Z</time>
      </trkpt>
      <trkpt lat="45.08629" lon="1.02718">
        <ele>168.953676</ele>
        <time>2022-08-18T06:17:18Z</time>
      </trkpt>
      <trkpt lat="45.08629" lon="1.02718">
        <ele>169.1468222</ele>
        <time>2022-08-18T06:17:20Z</time>
      </trkpt>
      <trkpt lat="45.08629" lon="1.02718">
        <ele>169.2448963</ele>
        <time>2022-08-18T06:17:22Z</time>
      </trkpt>
      <trkpt lat="45.08629" lon="1.02718">
        <ele>168.9952156</ele>
        <time>2022-08-18T06:17:24Z</time>
      </trkpt>
      <trkpt lat="45.08628" lon="1.02717">
        <ele>169.2143076</ele>
        <time>2022-08-18T06:17:26Z</time>
      </trkpt>
      <trkpt lat="45.08628" lon="1.02717">
        <ele>169.3912609</ele>
        <time>2022-08-18T06:17:28Z</time>
      </trkpt>
      <trkpt lat="45.08629" lon="1.02718">
        <ele>169.2416356</ele>
        <time>2022-08-18T06:17:30Z</time>
      </trkpt>
      <trkpt lat="45.08629" lon="1.02718">
        <ele>169.2122148</ele>
        <time>2022-08-18T06:17:32Z</time>
      </trkpt>
      <trkpt lat="45.08629" lon="1.02718">
        <ele>168.9794735</ele>
        <time>2022-08-18T06:17:34Z</time>
      </trkpt>
      <trkpt lat="45.08632" lon="1.02719">
        <ele>168.9161069</ele>
        <time>2022-08-18T06:17:36Z</time>
      </trkpt>
      <trkpt lat="45.08635" lon="1.02722">
        <ele>169.0316871</ele>
        <time>2022-08-18T06:17:38Z</time>
      </trkpt>
      <trkpt lat="45.08639" lon="1.02725">
        <ele>169.1455547</ele>
        <time>2022-08-18T06:17:40Z</time>
      </trkpt>
      <trkpt lat="45.08642" lon="1.02728">
        <ele>170.129895</ele>
        <time>2022-08-18T06:17:42Z</time>
      </trkpt>
      <trkpt lat="45.08646" lon="1.0273">
        <ele>170.8134786</ele>
        <time>2022-08-18T06:17:44Z</time>
      </trkpt>
      <trkpt lat="45.08649" lon="1.02733">
        <ele>171.4631922</ele>
        <time>2022-08-18T06:17:46Z</time>
      </trkpt>
      <trkpt lat="45.08653" lon="1.02737">
        <ele>172.4882138</ele>
        <time>2022-08-18T06:17:48Z</time>
      </trkpt>
      <trkpt lat="45.08657" lon="1.0274">
        <ele>173.37712</ele>
        <time>2022-08-18T06:17:50Z</time>
      </trkpt>
      <trkpt lat="45.08661" lon="1.02743">
        <ele>173.5961502</ele>
        <time>2022-08-18T06:17:52Z</time>
      </trkpt>
      <trkpt lat="45.08665" lon="1.02746">
        <ele>173.5385885</ele>
        <time>2022-08-18T06:17:54Z</time>
      </trkpt>
      <trkpt lat="45.08668" lon="1.02748">
        <ele>173.967177</ele>
        <time>2022-08-18T06:17:56Z</time>
      </trkpt>
      <trkpt lat="45.08672" lon="1.0275">
        <ele>174.6151522</ele>
        <time>2022-08-18T06:17:58Z</time>
      </trkpt>
      <trkpt lat="45.08676" lon="1.02753">
        <ele>174.7745257</ele>
        <time>2022-08-18T06:18:00Z</time>
      </trkpt>
      <trkpt lat="45.0868" lon="1.02755">
        <ele>175.3108293</ele>
        <time>2022-08-18T06:18:02Z</time>
      </trkpt>
      <trkpt lat="45.08684" lon="1.02757">
        <ele>175.6128405</ele>
        <time>2022-08-18T06:18:04Z</time>
      </trkpt>
      <trkpt lat="45.08688" lon="1.02759">
        <ele>175.5585797</ele>
        <time>2022-08-18T06:18:06Z</time>
      </trkpt>
      <trkpt lat="45.08692" lon="1.02761">
        <ele>175.6643924</ele>
        <time>2022-08-18T06:18:08Z</time>
      </trkpt>
      <trkpt lat="45.08697" lon="1.02764">
        <ele>175.5979132</ele>
        <time>2022-08-18T06:18:10Z</time>
      </trkpt>
      <trkpt lat="45.08702" lon="1.02766">
        <ele>175.7331737</ele>
        <time>2022-08-18T06:18:12Z</time>
      </trkpt>
      <trkpt lat="45.08707" lon="1.02768">
        <ele>175.9124648</ele>
        <time>2022-08-18T06:18:14Z</time>
      </trkpt>
      <trkpt lat="45.08713" lon="1.0277">
        <ele>175.800006</ele>
        <time>2022-08-18T06:18:16Z</time>
      </trkpt>
      <trkpt lat="45.08718" lon="1.02773">
        <ele>175.814001</ele>
        <time>2022-08-18T06:18:18Z</time>
      </trkpt>
      <trkpt lat="45.08724" lon="1.02776">
        <ele>175.9383449</ele>
        <time>2022-08-18T06:18:20Z</time>
      </trkpt>
      <trkpt lat="45.08731" lon="1.02778">
        <ele>176.2094117</ele>
        <time>2022-08-18T06:18:22Z</time>
      </trkpt>
      <trkpt lat="45.08737" lon="1.02781">
        <ele>176.4532951</ele>
        <time>2022-08-18T06:18:24Z</time>
      </trkpt>
      <trkpt lat="45.08745" lon="1.02784">
        <ele>176.6637097</ele>
        <time>2022-08-18T06:18:26Z</time>
      </trkpt>
      <trkpt lat="45.08752" lon="1.02788">
        <ele>176.5761607</ele>
        <time>2022-08-18T06:18:28Z</time>
      </trkpt>
      <trkpt lat="45.08759" lon="1.02791">
        <ele>176.9096098</ele>
        <time>2022-08-18T06:18:30Z</time>
      </trkpt>
      <trkpt lat="45.08767" lon="1.02794">
        <ele>176.8767171</ele>
        <time>2022-08-18T06:18:32Z</time>
      </trkpt>
      <trkpt lat="45.08774" lon="1.02797">
        <ele>176.4842392</ele>
        <time>2022-08-18T06:18:34Z</time>
      </trkpt>
      <trkpt lat="45.08781" lon="1.028">
        <ele>176.5837496</ele>
        <time>2022-08-18T06:18:36Z</time>
      </trkpt>
      <trkpt lat="45.08788" lon="1.02803">
        <ele>176.5332498</ele>
        <time>2022-08-18T06:18:38Z</time>
      </trkpt>
      <trkpt lat="45.08795" lon="1.02806">
        <ele>176.623247</ele>
        <time>2022-08-18T06:18:40Z</time>
      </trkpt>
      <trkpt lat="45.08801" lon="1.02809">
        <ele>176.4261408</ele>
        <time>2022-08-18T06:18:42Z</time>
      </trkpt>
      <trkpt lat="45.08807" lon="1.02811">
        <ele>176.2825133</ele>
        <time>2022-08-18T06:18:44Z</time>
      </trkpt>
      <trkpt lat="45.08813" lon="1.02813">
        <ele>176.308571</ele>
        <time>2022-08-18T06:18:46Z</time>
      </trkpt>
      <trkpt lat="45.08819" lon="1.02815">
        <ele>176.1244144</ele>
        <time>2022-08-18T06:18:48Z</time>
      </trkpt>
      <trkpt lat="45.08823" lon="1.02817">
        <ele>176.1373925</ele>
        <time>2022-08-18T06:18:50Z</time>
      </trkpt>
      <trkpt lat="45.08829" lon="1.0282">
        <ele>175.9886699</ele>
        <time>2022-08-18T06:18:52Z</time>
      </trkpt>
      <trkpt lat="45.08835" lon="1.02823">
        <ele>175.8131683</ele>
        <time>2022-08-18T06:18:54Z</time>
      </trkpt>
      <trkpt lat="45.08841" lon="1.02826">
        <ele>175.8371359</ele>
        <time>2022-08-18T06:18:56Z</time>
      </trkpt>
      <trkpt lat="45.08847" lon="1.02829">
        <ele>175.753582</ele>
        <time>2022-08-18T06:18:58Z</time>
      </trkpt>
      <trkpt lat="45.08852" lon="1.02832">
        <ele>176.013271</ele>
        <time>2022-08-18T06:19:00Z</time>
      </trkpt>
      <trkpt lat="45.08858" lon="1.02835">
        <ele>175.9165873</ele>
        <time>2022-08-18T06:19:02Z</time>
      </trkpt>
      <trkpt lat="45.08864" lon="1.02839">
        <ele>175.7820258</ele>
        <time>2022-08-18T06:19:04Z</time>
      </trkpt>
      <trkpt lat="45.0887" lon="1.02843">
        <ele>175.8657581</ele>
        <time>2022-08-18T06:19:06Z</time>
      </trkpt>
      <trkpt lat="45.08877" lon="1.02847">
        <ele>175.3877987</ele>
        <time>2022-08-18T06:19:08Z</time>
      </trkpt>
      <trkpt lat="45.08884" lon="1.02851">
        <ele>175.4436412</ele>
        <time>2022-08-18T06:19:10Z</time>
      </trkpt>
      <trkpt lat="45.08892" lon="1.02855">
        <ele>175.0559938</ele>
        <time>2022-08-18T06:19:12Z</time>
      </trkpt>
      <trkpt lat="45.08901" lon="1.0286">
        <ele>174.7585114</ele>
        <time>2022-08-18T06:19:14Z</time>
      </trkpt>
      <trkpt lat="45.0891" lon="1.02865">
        <ele>174.374693</ele>
        <time>2022-08-18T06:19:16Z</time>
      </trkpt>
      <trkpt lat="45.0892" lon="1.0287">
        <ele>173.9690196</ele>
        <time>2022-08-18T06:19:18Z</time>
      </trkpt>
      <trkpt lat="45.0893" lon="1.02876">
        <ele>173.7939868</ele>
        <time>2022-08-18T06:19:20Z</time>
      </trkpt>
      <trkpt lat="45.0894" lon="1.02882">
        <ele>173.1492008</ele>
        <time>2022-08-18T06:19:22Z</time>
      </trkpt>
      <trkpt lat="45.08951" lon="1.02888">
        <ele>172.3008749</ele>
        <time>2022-08-18T06:19:24Z</time>
      </trkpt>
      <trkpt lat="45.08962" lon="1.02894">
        <ele>172.0662072</ele>
        <time>2022-08-18T06:19:26Z</time>
      </trkpt>
      <trkpt lat="45.08974" lon="1.02901">
        <ele>171.7705675</ele>
        <time>2022-08-18T06:19:28Z</time>
      </trkpt>
      <trkpt lat="45.08985" lon="1.02911">
        <ele>171.8666404</ele>
        <time>2022-08-18T06:19:30Z</time>
      </trkpt>
      <trkpt lat="45.08997" lon="1.02922">
        <ele>171.0342839</ele>
        <time>2022-08-18T06:19:32Z</time>
      </trkpt>
      <trkpt lat="45.09008" lon="1.02932">
        <ele>170.6387748</ele>
        <time>2022-08-18T06:19:34Z</time>
      </trkpt>
      <trkpt lat="45.09018" lon="1.02944">
        <ele>170.9292065</ele>
        <time>2022-08-18T06:19:36Z</time>
      </trkpt>
      <trkpt lat="45.09029" lon="1.02955">
        <ele>171.1674995</ele>
        <time>2022-08-18T06:19:38Z</time>
      </trkpt>
      <trkpt lat="45.09039" lon="1.02966">
        <ele>171.1836661</ele>
        <time>2022-08-18T06:19:40Z</time>
      </trkpt>
      <trkpt lat="45.09049" lon="1.02978">
        <ele>171.7114894</ele>
        <time>2022-08-18T06:19:42Z</time>
      </trkpt>
      <trkpt lat="45.09059" lon="1.02989">
        <ele>172.0014876</ele>
        <time>2022-08-18T06:19:44Z</time>
      </trkpt>
      <trkpt lat="45.09068" lon="1.02998">
        <ele>172.0984834</ele>
        <time>2022-08-18T06:19:46Z</time>
      </trkpt>
      <trkpt lat="45.09077" lon="1.03006">
        <ele>171.8015227</ele>
        <time>2022-08-18T06:19:48Z</time>
      </trkpt>
      <trkpt lat="45.09084" lon="1.03012">
        <ele>172.0869039</ele>
        <time>2022-08-18T06:19:50Z</time>
      </trkpt>
      <trkpt lat="45.09092" lon="1.0302">
        <ele>171.1695051</ele>
        <time>2022-08-18T06:19:52Z</time>
      </trkpt>
      <trkpt lat="45.091" lon="1.03028">
        <ele>170.8416192</ele>
        <time>2022-08-18T06:19:54Z</time>
      </trkpt>
      <trkpt lat="45.09108" lon="1.03038">
        <ele>171.0102205</ele>
        <time>2022-08-18T06:19:56Z</time>
      </trkpt>
      <trkpt lat="45.09116" lon="1.03045">
        <ele>170.6308158</ele>
        <time>2022-08-18T06:19:58Z</time>
      </trkpt>
      <trkpt lat="45.09124" lon="1.03053">
        <ele>170.3668688</ele>
        <time>2022-08-18T06:20:00Z</time>
      </trkpt>
      <trkpt lat="45.09131" lon="1.03059">
        <ele>169.8678784</ele>
        <time>2022-08-18T06:20:02Z</time>
      </trkpt>
      <trkpt lat="45.09138" lon="1.03065">
        <ele>169.4510723</ele>
        <time>2022-08-18T06:20:04Z</time>
      </trkpt>
      <trkpt lat="45.09144" lon="1.03071">
        <ele>169.5256796</ele>
        <time>2022-08-18T06:20:06Z</time>
      </trkpt>
      <trkpt lat="45.09149" lon="1.03078">
        <ele>169.2674894</ele>
        <time>2022-08-18T06:20:08Z</time>
      </trkpt>
      <trkpt lat="45.09155" lon="1.03085">
        <ele>169.3086273</ele>
        <time>2022-08-18T06:20:10Z</time>
      </trkpt>
      <trkpt lat="45.09161" lon="1.03093">
        <ele>169.4729626</ele>
        <time>2022-08-18T06:20:12Z</time>
      </trkpt>
      <trkpt lat="45.09166" lon="1.03101">
        <ele>169.3726129</ele>
        <time>2022-08-18T06:20:14Z</time>
      </trkpt>
      <trkpt lat="45.09173" lon="1.03109">
        <ele>169.4526329</ele>
        <time>2022-08-18T06:20:16Z</time>
      </trkpt>
      <trkpt lat="45.09178" lon="1.03118">
        <ele>169.3304871</ele>
        <time>2022-08-18T06:20:18Z</time>
      </trkpt>
      <trkpt lat="45.09182" lon="1.03127">
        <ele>170.0171812</ele>
        <time>2022-08-18T06:20:20Z</time>
      </trkpt>
      <trkpt lat="45.09186" lon="1.03135">
        <ele>170.5220053</ele>
        <time>2022-08-18T06:20:22Z</time>
      </trkpt>
      <trkpt lat="45.09189" lon="1.03141">
        <ele>171.002458</ele>
        <time>2022-08-18T06:20:24Z</time>
      </trkpt>
      <trkpt lat="45.09192" lon="1.03146">
        <ele>171.4443163</ele>
        <time>2022-08-18T06:20:26Z</time>
      </trkpt>
      <trkpt lat="45.09194" lon="1.03151">
        <ele>171.3486816</ele>
        <time>2022-08-18T06:20:28Z</time>
      </trkpt>
      <trkpt lat="45.09196" lon="1.03156">
        <ele>171.3442095</ele>
        <time>2022-08-18T06:20:30Z</time>
      </trkpt>
      <trkpt lat="45.09198" lon="1.03161">
        <ele>171.101111</ele>
        <time>2022-08-18T06:20:32Z</time>
      </trkpt>
      <trkpt lat="45.09201" lon="1.03167">
        <ele>171.411358</ele>
        <time>2022-08-18T06:20:34Z</time>
      </trkpt>
      <trkpt lat="45.09203" lon="1.03173">
        <ele>171.2820112</ele>
        <time>2022-08-18T06:20:36Z</time>
      </trkpt>
      <trkpt lat="45.09206" lon="1.03178">
        <ele>171.9947998</ele>
        <time>2022-08-18T06:20:38Z</time>
      </trkpt>
      <trkpt lat="45.09209" lon="1.03182">
        <ele>172.1340592</ele>
        <time>2022-08-18T06:20:40Z</time>
      </trkpt>
      <trkpt lat="45.09211" lon="1.03188">
        <ele>172.1926044</ele>
        <time>2022-08-18T06:20:42Z</time>
      </trkpt>
      <trkpt lat="45.09213" lon="1.03193">
        <ele>172.4513511</ele>
        <time>2022-08-18T06:20:44Z</time>
      </trkpt>
      <trkpt lat="45.09216" lon="1.03197">
        <ele>172.6142726</ele>
        <time>2022-08-18T06:20:46Z</time>
      </trkpt>
      <trkpt lat="45.09218" lon="1.03202">
        <ele>172.8446456</ele>
        <time>2022-08-18T06:20:48Z</time>
      </trkpt>
      <trkpt lat="45.09219" lon="1.03206">
        <ele>173.1363266</ele>
        <time>2022-08-18T06:20:50Z</time>
      </trkpt>
      <trkpt lat="45.09221" lon="1.0321">
        <ele>173.2528012</ele>
        <time>2022-08-18T06:20:52Z</time>
      </trkpt>
      <trkpt lat="45.09224" lon="1.03213">
        <ele>173.5717046</ele>
        <time>2022-08-18T06:20:54Z</time>
      </trkpt>
      <trkpt lat="45.09226" lon="1.03217">
        <ele>173.585086</ele>
        <time>2022-08-18T06:20:56Z</time>
      </trkpt>
      <trkpt lat="45.09228" lon="1.03222">
        <ele>173.6222864</ele>
        <time>2022-08-18T06:20:58Z</time>
      </trkpt>
      <trkpt lat="45.0923" lon="1.03225">
        <ele>173.9397874</ele>
        <time>2022-08-18T06:21:00Z</time>
      </trkpt>
      <trkpt lat="45.09231" lon="1.03229">
        <ele>174.0035115</ele>
        <time>2022-08-18T06:21:02Z</time>
      </trkpt>
      <trkpt lat="45.09233" lon="1.03233">
        <ele>174.5263072</ele>
        <time>2022-08-18T06:21:04Z</time>
      </trkpt>
      <trkpt lat="45.09235" lon="1.03237">
        <ele>174.5009394</ele>
        <time>2022-08-18T06:21:06Z</time>
      </trkpt>
      <trkpt lat="45.09238" lon="1.0324">
        <ele>174.8214638</ele>
        <time>2022-08-18T06:21:08Z</time>
      </trkpt>
      <trkpt lat="45.09239" lon="1.03244">
        <ele>175.0772919</ele>
        <time>2022-08-18T06:21:10Z</time>
      </trkpt>
      <trkpt lat="45.09241" lon="1.03248">
        <ele>175.3755081</ele>
        <time>2022-08-18T06:21:12Z</time>
      </trkpt>
      <trkpt lat="45.09243" lon="1.03251">
        <ele>175.4906957</ele>
        <time>2022-08-18T06:21:14Z</time>
      </trkpt>
      <trkpt lat="45.09245" lon="1.03255">
        <ele>175.9983307</ele>
        <time>2022-08-18T06:21:16Z</time>
      </trkpt>
      <trkpt lat="45.09248" lon="1.03258">
        <ele>176.1550628</ele>
        <time>2022-08-18T06:21:18Z</time>
      </trkpt>
      <trkpt lat="45.0925" lon="1.03263">
        <ele>176.0042832</ele>
        <time>2022-08-18T06:21:20Z</time>
      </trkpt>
      <trkpt lat="45.09253" lon="1.03267">
        <ele>176.0321301</ele>
        <time>2022-08-18T06:21:22Z</time>
      </trkpt>
      <trkpt lat="45.09255" lon="1.03271">
        <ele>176.3817748</ele>
        <time>2022-08-18T06:21:24Z</time>
      </trkpt>
      <trkpt lat="45.09258" lon="1.03276">
        <ele>176.4232478</ele>
        <time>2022-08-18T06:21:26Z</time>
      </trkpt>
      <trkpt lat="45.09261" lon="1.03281">
        <ele>176.4477331</ele>
        <time>2022-08-18T06:21:28Z</time>
      </trkpt>
      <trkpt lat="45.09263" lon="1.03286">
        <ele>176.2942242</ele>
        <time>2022-08-18T06:21:30Z</time>
      </trkpt>
      <trkpt lat="45.09266" lon="1.03292">
        <ele>176.0235227</ele>
        <time>2022-08-18T06:21:32Z</time>
      </trkpt>
      <trkpt lat="45.09269" lon="1.03297">
        <ele>175.9442002</ele>
        <time>2022-08-18T06:21:34Z</time>
      </trkpt>
      <trkpt lat="45.09272" lon="1.03303">
        <ele>176.38685</ele>
        <time>2022-08-18T06:21:36Z</time>
      </trkpt>
      <trkpt lat="45.09275" lon="1.03308">
        <ele>176.4627101</ele>
        <time>2022-08-18T06:21:38Z</time>
      </trkpt>
      <trkpt lat="45.09279" lon="1.03313">
        <ele>176.5879751</ele>
        <time>2022-08-18T06:21:40Z</time>
      </trkpt>
      <trkpt lat="45.09282" lon="1.03318">
        <ele>176.7468942</ele>
        <time>2022-08-18T06:21:42Z</time>
      </trkpt>
      <trkpt lat="45.09284" lon="1.03321">
        <ele>176.5434976</ele>
        <time>2022-08-18T06:21:44Z</time>
      </trkpt>
      <trkpt lat="45.09287" lon="1.03326">
        <ele>176.360012</ele>
        <time>2022-08-18T06:21:46Z</time>
      </trkpt>
      <trkpt lat="45.0929" lon="1.03332">
        <ele>176.0204739</ele>
        <time>2022-08-18T06:21:48Z</time>
      </trkpt>
      <trkpt lat="45.09293" lon="1.03339">
        <ele>175.2936702</ele>
        <time>2022-08-18T06:21:50Z</time>
      </trkpt>
      <trkpt lat="45.09297" lon="1.03347">
        <ele>174.9862502</ele>
        <time>2022-08-18T06:21:52Z</time>
      </trkpt>
      <trkpt lat="45.09302" lon="1.03356">
        <ele>173.9252906</ele>
        <time>2022-08-18T06:21:54Z</time>
      </trkpt>
      <trkpt lat="45.09308" lon="1.03367">
        <ele>173.6559885</ele>
        <time>2022-08-18T06:21:56Z</time>
      </trkpt>
      <trkpt lat="45.09315" lon="1.03379">
        <ele>173.2290192</ele>
        <time>2022-08-18T06:21:58Z</time>
      </trkpt>
      <trkpt lat="45.09322" lon="1.03389">
        <ele>172.835039</ele>
        <time>2022-08-18T06:22:00Z</time>
      </trkpt>
      <trkpt lat="45.09328" lon="1.03398">
        <ele>173.0315804</ele>
        <time>2022-08-18T06:22:02Z</time>
      </trkpt>
      <trkpt lat="45.09334" lon="1.03407">
        <ele>173.4380052</ele>
        <time>2022-08-18T06:22:04Z</time>
      </trkpt>
      <trkpt lat="45.09339" lon="1.03414">
        <ele>173.4690109</ele>
        <time>2022-08-18T06:22:06Z</time>
      </trkpt>
      <trkpt lat="45.09344" lon="1.0342">
        <ele>173.8919563</ele>
        <time>2022-08-18T06:22:08Z</time>
      </trkpt>
      <trkpt lat="45.09349" lon="1.03426">
        <ele>174.2125971</ele>
        <time>2022-08-18T06:22:10Z</time>
      </trkpt>
      <trkpt lat="45.09353" lon="1.03432">
        <ele>174.4391946</ele>
        <time>2022-08-18T06:22:12Z</time>
      </trkpt>
      <trkpt lat="45.09357" lon="1.03439">
        <ele>174.7378607</ele>
        <time>2022-08-18T06:22:14Z</time>
      </trkpt>
      <trkpt lat="45.09362" lon="1.03445">
        <ele>174.9621259</ele>
        <time>2022-08-18T06:22:16Z</time>
      </trkpt>
      <trkpt lat="45.09366" lon="1.0345">
        <ele>174.9863597</ele>
        <time>2022-08-18T06:22:18Z</time>
      </trkpt>
      <trkpt lat="45.0937" lon="1.03456">
        <ele>174.9940828</ele>
        <time>2022-08-18T06:22:20Z</time>
      </trkpt>
      <trkpt lat="45.09374" lon="1.03462">
        <ele>175.5078492</ele>
        <time>2022-08-18T06:22:22Z</time>
      </trkpt>
      <trkpt lat="45.09377" lon="1.03467">
        <ele>175.7664129</ele>
        <time>2022-08-18T06:22:24Z</time>
      </trkpt>
      <trkpt lat="45.09381" lon="1.0347">
        <ele>175.6431309</ele>
        <time>2022-08-18T06:22:26Z</time>
      </trkpt>
      <trkpt lat="45.09384" lon="1.03473">
        <ele>175.6815924</ele>
        <time>2022-08-18T06:22:28Z</time>
      </trkpt>
      <trkpt lat="45.09386" lon="1.03477">
        <ele>175.6297833</ele>
        <time>2022-08-18T06:22:30Z</time>
      </trkpt>
      <trkpt lat="45.09388" lon="1.0348">
        <ele>175.5170237</ele>
        <time>2022-08-18T06:22:32Z</time>
      </trkpt>
      <trkpt lat="45.09391" lon="1.03484">
        <ele>175.5719973</ele>
        <time>2022-08-18T06:22:34Z</time>
      </trkpt>
      <trkpt lat="45.09393" lon="1.03488">
        <ele>175.8861473</ele>
        <time>2022-08-18T06:22:36Z</time>
      </trkpt>
      <trkpt lat="45.09395" lon="1.03491">
        <ele>175.9306086</ele>
        <time>2022-08-18T06:22:38Z</time>
      </trkpt>
      <trkpt lat="45.09397" lon="1.03494">
        <ele>175.8520514</ele>
        <time>2022-08-18T06:22:40Z</time>
      </trkpt>
      <trkpt lat="45.09399" lon="1.03497">
        <ele>176.0894523</ele>
        <time>2022-08-18T06:22:42Z</time>
      </trkpt>
      <trkpt lat="45.09401" lon="1.03501">
        <ele>175.8640023</ele>
        <time>2022-08-18T06:22:44Z</time>
      </trkpt>
      <trkpt lat="45.09403" lon="1.03505">
        <ele>175.714129</ele>
        <time>2022-08-18T06:22:46Z</time>
      </trkpt>
      <trkpt lat="45.09404" lon="1.0351">
        <ele>175.7899949</ele>
        <time>2022-08-18T06:22:48Z</time>
      </trkpt>
      <trkpt lat="45.09407" lon="1.03515">
        <ele>176.2404084</ele>
        <time>2022-08-18T06:22:50Z</time>
      </trkpt>
      <trkpt lat="45.09409" lon="1.03519">
        <ele>176.2330817</ele>
        <time>2022-08-18T06:22:52Z</time>
      </trkpt>
      <trkpt lat="45.09412" lon="1.03525">
        <ele>176.0026234</ele>
        <time>2022-08-18T06:22:54Z</time>
      </trkpt>
      <trkpt lat="45.09415" lon="1.03531">
        <ele>175.9937191</ele>
        <time>2022-08-18T06:22:56Z</time>
      </trkpt>
      <trkpt lat="45.09418" lon="1.03537">
        <ele>175.8360956</ele>
        <time>2022-08-18T06:22:58Z</time>
      </trkpt>
      <trkpt lat="45.09421" lon="1.03542">
        <ele>175.760398</ele>
        <time>2022-08-18T06:23:00Z</time>
      </trkpt>
      <trkpt lat="45.09423" lon="1.03549">
        <ele>175.5768022</ele>
        <time>2022-08-18T06:23:02Z</time>
      </trkpt>
      <trkpt lat="45.09425" lon="1.03554">
        <ele>175.2922936</ele>
        <time>2022-08-18T06:23:04Z</time>
      </trkpt>
      <trkpt lat="45.09426" lon="1.03556">
        <ele>175.3231141</ele>
        <time>2022-08-18T06:23:06Z</time>
      </trkpt>
      <trkpt lat="45.09426" lon="1.03556">
        <ele>175.4585704</ele>
        <time>2022-08-18T06:23:08Z</time>
      </trkpt>
      <trkpt lat="45.09426" lon="1.03557">
        <ele>175.6732424</ele>
        <time>2022-08-18T06:23:10Z</time>
      </trkpt>
      <trkpt lat="45.09425" lon="1.03557">
        <ele>175.4535175</ele>
        <time>2022-08-18T06:23:12Z</time>
      </trkpt>
      <trkpt lat="45.09426" lon="1.03556">
        <ele>175.1864496</ele>
        <time>2022-08-18T06:23:14Z</time>
      </trkpt>
      <trkpt lat="45.09426" lon="1.03556">
        <ele>174.6033462</ele>
        <time>2022-08-18T06:23:16Z</time>
      </trkpt>
      <trkpt lat="45.09426" lon="1.03556">
        <ele>174.5539253</ele>
        <time>2022-08-18T06:23:18Z</time>
      </trkpt>
      <trkpt lat="45.09426" lon="1.03556">
        <ele>173.9872935</ele>
        <time>2022-08-18T06:23:20Z</time>
      </trkpt>
      <trkpt lat="45.09426" lon="1.03556">
        <ele>173.4313176</ele>
        <time>2022-08-18T06:23:22Z</time>
      </trkpt>
      <trkpt lat="45.09425" lon="1.03556">
        <ele>173.0793228</ele>
        <time>2022-08-18T06:23:24Z</time>
      </trkpt>
      <trkpt lat="45.09425" lon="1.03556">
        <ele>173.2058335</ele>
        <time>2022-08-18T06:23:26Z</time>
      </trkpt>
      <trkpt lat="45.09425" lon="1.03556">
        <ele>174.0833686</ele>
        <time>2022-08-18T06:23:28Z</time>
      </trkpt>
      <trkpt lat="45.09426" lon="1.03556">
        <ele>174.5858929</ele>
        <time>2022-08-18T06:23:30Z</time>
      </trkpt>
      <trkpt lat="45.09426" lon="1.03557">
        <ele>175.1304273</ele>
        <time>2022-08-18T06:23:32Z</time>
      </trkpt>
      <trkpt lat="45.09426" lon="1.03557">
        <ele>174.9372385</ele>
        <time>2022-08-18T06:23:34Z</time>
      </trkpt>
      <trkpt lat="45.09426" lon="1.03557">
        <ele>174.6182148</ele>
        <time>2022-08-18T06:23:36Z</time>
      </trkpt>
      <trkpt lat="45.09426" lon="1.03557">
        <ele>174.3129071</ele>
        <time>2022-08-18T06:23:38Z</time>
      </trkpt>
      <trkpt lat="45.09426" lon="1.03557">
        <ele>173.876451</ele>
        <time>2022-08-18T06:23:40Z</time>
      </trkpt>
      <trkpt lat="45.09426" lon="1.03557">
        <ele>174.0155731</ele>
        <time>2022-08-18T06:23:42Z</time>
      </trkpt>
      <trkpt lat="45.09426" lon="1.03556">
        <ele>173.9048539</ele>
        <time>2022-08-18T06:23:44Z</time>
      </trkpt>
      <trkpt lat="45.09427" lon="1.03556">
        <ele>174.0643658</ele>
        <time>2022-08-18T06:23:46Z</time>
      </trkpt>
      <trkpt lat="45.09427" lon="1.03556">
        <ele>173.8161334</ele>
        <time>2022-08-18T06:23:48Z</time>
      </trkpt>
      <trkpt lat="45.09426" lon="1.03556">
        <ele>173.5922251</ele>
        <time>2022-08-18T06:23:50Z</time>
      </trkpt>
      <trkpt lat="45.09426" lon="1.03556">
        <ele>173.9391592</ele>
        <time>2022-08-18T06:23:52Z</time>
      </trkpt>
      <trkpt lat="45.09426" lon="1.03556">
        <ele>174.0097403</ele>
        <time>2022-08-18T06:23:54Z</time>
      </trkpt>
      <trkpt lat="45.09426" lon="1.03556">
        <ele>173.9788765</ele>
        <time>2022-08-18T06:23:56Z</time>
      </trkpt>
      <trkpt lat="45.09426" lon="1.03557">
        <ele>173.9211855</ele>
        <time>2022-08-18T06:23:58Z</time>
      </trkpt>
      <trkpt lat="45.09425" lon="1.03556">
        <ele>172.9195453</ele>
        <time>2022-08-18T06:24:00Z</time>
      </trkpt>
      <trkpt lat="45.09425" lon="1.03557">
        <ele>173.1754204</ele>
        <time>2022-08-18T06:24:02Z</time>
      </trkpt>
      <trkpt lat="45.09425" lon="1.03557">
        <ele>172.8814296</ele>
        <time>2022-08-18T06:24:04Z</time>
      </trkpt>
      <trkpt lat="45.09425" lon="1.03557">
        <ele>172.3586356</ele>
        <time>2022-08-18T06:24:06Z</time>
      </trkpt>
      <trkpt lat="45.09426" lon="1.03559">
        <ele>172.2107015</ele>
        <time>2022-08-18T06:24:08Z</time>
      </trkpt>
      <trkpt lat="45.09429" lon="1.03563">
        <ele>172.993732</ele>
        <time>2022-08-18T06:24:10Z</time>
      </trkpt>
      <trkpt lat="45.09432" lon="1.03566">
        <ele>172.9712039</ele>
        <time>2022-08-18T06:24:12Z</time>
      </trkpt>
      <trkpt lat="45.09435" lon="1.03573">
        <ele>173.0810856</ele>
        <time>2022-08-18T06:24:14Z</time>
      </trkpt>
      <trkpt lat="45.09439" lon="1.03579">
        <ele>172.9462607</ele>
        <time>2022-08-18T06:24:16Z</time>
      </trkpt>
      <trkpt lat="45.09443" lon="1.03586">
        <ele>172.8795634</ele>
        <time>2022-08-18T06:24:18Z</time>
      </trkpt>
      <trkpt lat="45.09447" lon="1.03593">
        <ele>172.8399644</ele>
        <time>2022-08-18T06:24:20Z</time>
      </trkpt>
      <trkpt lat="45.09452" lon="1.03601">
        <ele>172.8749075</ele>
        <time>2022-08-18T06:24:22Z</time>
      </trkpt>
      <trkpt lat="45.09455" lon="1.03609">
        <ele>172.8507301</ele>
        <time>2022-08-18T06:24:24Z</time>
      </trkpt>
      <trkpt lat="45.09459" lon="1.03617">
        <ele>173.1751765</ele>
        <time>2022-08-18T06:24:26Z</time>
      </trkpt>
      <trkpt lat="45.09463" lon="1.03624">
        <ele>172.9906503</ele>
        <time>2022-08-18T06:24:28Z</time>
      </trkpt>
      <trkpt lat="45.09467" lon="1.03632">
        <ele>173.1164226</ele>
        <time>2022-08-18T06:24:30Z</time>
      </trkpt>
      <trkpt lat="45.0947" lon="1.0364">
        <ele>173.8710522</ele>
        <time>2022-08-18T06:24:32Z</time>
      </trkpt>
      <trkpt lat="45.09474" lon="1.0365">
        <ele>174.6292053</ele>
        <time>2022-08-18T06:24:34Z</time>
      </trkpt>
      <trkpt lat="45.09478" lon="1.03659">
        <ele>174.6987457</ele>
        <time>2022-08-18T06:24:36Z</time>
      </trkpt>
      <trkpt lat="45.09482" lon="1.03669">
        <ele>174.7680071</ele>
        <time>2022-08-18T06:24:38Z</time>
      </trkpt>
      <trkpt lat="45.09487" lon="1.03678">
        <ele>174.89086</ele>
        <time>2022-08-18T06:24:40Z</time>
      </trkpt>
      <trkpt lat="45.09492" lon="1.03687">
        <ele>174.6594354</ele>
        <time>2022-08-18T06:24:42Z</time>
      </trkpt>
      <trkpt lat="45.09497" lon="1.03695">
        <ele>174.7775163</ele>
        <time>2022-08-18T06:24:44Z</time>
      </trkpt>
      <trkpt lat="45.09502" lon="1.03703">
        <ele>174.7929866</ele>
        <time>2022-08-18T06:24:46Z</time>
      </trkpt>
      <trkpt lat="45.09507" lon="1.0371">
        <ele>174.5705362</ele>
        <time>2022-08-18T06:24:48Z</time>
      </trkpt>
      <trkpt lat="45.09513" lon="1.03718">
        <ele>174.8706588</ele>
        <time>2022-08-18T06:24:50Z</time>
      </trkpt>
      <trkpt lat="45.09519" lon="1.03727">
        <ele>174.5897935</ele>
        <time>2022-08-18T06:24:52Z</time>
      </trkpt>
      <trkpt lat="45.09525" lon="1.03734">
        <ele>174.9541747</ele>
        <time>2022-08-18T06:24:54Z</time>
      </trkpt>
      <trkpt lat="45.09531" lon="1.03741">
        <ele>174.4769984</ele>
        <time>2022-08-18T06:24:56Z</time>
      </trkpt>
      <trkpt lat="45.09538" lon="1.03749">
        <ele>174.4349962</ele>
        <time>2022-08-18T06:24:58Z</time>
      </trkpt>
      <trkpt lat="45.09544" lon="1.03756">
        <ele>174.5945338</ele>
        <time>2022-08-18T06:25:00Z</time>
      </trkpt>
      <trkpt lat="45.09551" lon="1.03764">
        <ele>174.9943007</ele>
        <time>2022-08-18T06:25:02Z</time>
      </trkpt>
      <trkpt lat="45.09557" lon="1.03771">
        <ele>175.0449952</ele>
        <time>2022-08-18T06:25:04Z</time>
      </trkpt>
      <trkpt lat="45.09564" lon="1.03778">
        <ele>175.1616889</ele>
        <time>2022-08-18T06:25:06Z</time>
      </trkpt>
      <trkpt lat="45.09571" lon="1.03783">
        <ele>175.433646</ele>
        <time>2022-08-18T06:25:08Z</time>
      </trkpt>
      <trkpt lat="45.09578" lon="1.03788">
        <ele>175.4862501</ele>
        <time>2022-08-18T06:25:10Z</time>
      </trkpt>
      <trkpt lat="45.09586" lon="1.03792">
        <ele>175.7790915</ele>
        <time>2022-08-18T06:25:12Z</time>
      </trkpt>
      <trkpt lat="45.09593" lon="1.03795">
        <ele>176.1467528</ele>
        <time>2022-08-18T06:25:14Z</time>
      </trkpt>
      <trkpt lat="45.096" lon="1.03797">
        <ele>176.4817013</ele>
        <time>2022-08-18T06:25:16Z</time>
      </trkpt>
      <trkpt lat="45.09606" lon="1.03799">
        <ele>176.3556636</ele>
        <time>2022-08-18T06:25:18Z</time>
      </trkpt>
      <trkpt lat="45.09612" lon="1.038">
        <ele>177.0013038</ele>
        <time>2022-08-18T06:25:20Z</time>
      </trkpt>
      <trkpt lat="45.09618" lon="1.03802">
        <ele>177.3913767</ele>
        <time>2022-08-18T06:25:22Z</time>
      </trkpt>
      <trkpt lat="45.09623" lon="1.03803">
        <ele>178.0408158</ele>
        <time>2022-08-18T06:25:24Z</time>
      </trkpt>
      <trkpt lat="45.09629" lon="1.03805">
        <ele>178.4721476</ele>
        <time>2022-08-18T06:25:26Z</time>
      </trkpt>
      <trkpt lat="45.09635" lon="1.03807">
        <ele>178.7822903</ele>
        <time>2022-08-18T06:25:28Z</time>
      </trkpt>
      <trkpt lat="45.09641" lon="1.03809">
        <ele>178.7628877</ele>
        <time>2022-08-18T06:25:30Z</time>
      </trkpt>
      <trkpt lat="45.09647" lon="1.03811">
        <ele>178.8663096</ele>
        <time>2022-08-18T06:25:32Z</time>
      </trkpt>
      <trkpt lat="45.09653" lon="1.03814">
        <ele>178.9799676</ele>
        <time>2022-08-18T06:25:34Z</time>
      </trkpt>
      <trkpt lat="45.09659" lon="1.03815">
        <ele>178.6641146</ele>
        <time>2022-08-18T06:25:36Z</time>
      </trkpt>
      <trkpt lat="45.09666" lon="1.03816">
        <ele>178.3438714</ele>
        <time>2022-08-18T06:25:38Z</time>
      </trkpt>
      <trkpt lat="45.09672" lon="1.03819">
        <ele>178.1940346</ele>
        <time>2022-08-18T06:25:40Z</time>
      </trkpt>
      <trkpt lat="45.09679" lon="1.03821">
        <ele>178.4177518</ele>
        <time>2022-08-18T06:25:42Z</time>
      </trkpt>
      <trkpt lat="45.09686" lon="1.03823">
        <ele>178.0698843</ele>
        <time>2022-08-18T06:25:44Z</time>
      </trkpt>
      <trkpt lat="45.09693" lon="1.03825">
        <ele>177.9503574</ele>
        <time>2022-08-18T06:25:46Z</time>
      </trkpt>
      <trkpt lat="45.09699" lon="1.03827">
        <ele>178.2977062</ele>
        <time>2022-08-18T06:25:48Z</time>
      </trkpt>
      <trkpt lat="45.09705" lon="1.03829">
        <ele>178.0745312</ele>
        <time>2022-08-18T06:25:50Z</time>
      </trkpt>
      <trkpt lat="45.09712" lon="1.03831">
        <ele>177.8900393</ele>
        <time>2022-08-18T06:25:52Z</time>
      </trkpt>
      <trkpt lat="45.09719" lon="1.03832">
        <ele>177.8383327</ele>
        <time>2022-08-18T06:25:54Z</time>
      </trkpt>
      <trkpt lat="45.09726" lon="1.03835">
        <ele>177.5251666</ele>
        <time>2022-08-18T06:25:56Z</time>
      </trkpt>
      <trkpt lat="45.09733" lon="1.03837">
        <ele>177.0300959</ele>
        <time>2022-08-18T06:25:58Z</time>
      </trkpt>
      <trkpt lat="45.0974" lon="1.0384">
        <ele>177.2470669</ele>
        <time>2022-08-18T06:26:00Z</time>
      </trkpt>
      <trkpt lat="45.09746" lon="1.03844">
        <ele>177.4025683</ele>
        <time>2022-08-18T06:26:02Z</time>
      </trkpt>
      <trkpt lat="45.09752" lon="1.03848">
        <ele>177.2613201</ele>
        <time>2022-08-18T06:26:04Z</time>
      </trkpt>
      <trkpt lat="45.09758" lon="1.03852">
        <ele>177.2440166</ele>
        <time>2022-08-18T06:26:06Z</time>
      </trkpt>
      <trkpt lat="45.09763" lon="1.03856">
        <ele>177.8372944</ele>
        <time>2022-08-18T06:26:08Z</time>
      </trkpt>
      <trkpt lat="45.09769" lon="1.03861">
        <ele>177.8167664</ele>
        <time>2022-08-18T06:26:10Z</time>
      </trkpt>
      <trkpt lat="45.09775" lon="1.03866">
        <ele>178.1437315</ele>
        <time>2022-08-18T06:26:12Z</time>
      </trkpt>
      <trkpt lat="45.0978" lon="1.03871">
        <ele>178.4292678</ele>
        <time>2022-08-18T06:26:14Z</time>
      </trkpt>
      <trkpt lat="45.09786" lon="1.03875">
        <ele>178.8016314</ele>
        <time>2022-08-18T06:26:16Z</time>
      </trkpt>
      <trkpt lat="45.09791" lon="1.03879">
        <ele>179.51773</ele>
        <time>2022-08-18T06:26:18Z</time>
      </trkpt>
      <trkpt lat="45.09796" lon="1.03883">
        <ele>179.7182575</ele>
        <time>2022-08-18T06:26:20Z</time>
      </trkpt>
      <trkpt lat="45.09802" lon="1.03887">
        <ele>179.7268585</ele>
        <time>2022-08-18T06:26:22Z</time>
      </trkpt>
      <trkpt lat="45.09807" lon="1.03892">
        <ele>180.0123325</ele>
        <time>2022-08-18T06:26:24Z</time>
      </trkpt>
      <trkpt lat="45.09812" lon="1.03896">
        <ele>180.2822665</ele>
        <time>2022-08-18T06:26:26Z</time>
      </trkpt>
      <trkpt lat="45.09817" lon="1.039">
        <ele>180.906859</ele>
        <time>2022-08-18T06:26:28Z</time>
      </trkpt>
      <trkpt lat="45.09822" lon="1.03904">
        <ele>181.2503228</ele>
        <time>2022-08-18T06:26:30Z</time>
      </trkpt>
      <trkpt lat="45.09827" lon="1.03908">
        <ele>181.5263675</ele>
        <time>2022-08-18T06:26:32Z</time>
      </trkpt>
      <trkpt lat="45.09832" lon="1.03912">
        <ele>181.5896552</ele>
        <time>2022-08-18T06:26:34Z</time>
      </trkpt>
      <trkpt lat="45.09838" lon="1.03915">
        <ele>181.4265742</ele>
        <time>2022-08-18T06:26:36Z</time>
      </trkpt>
      <trkpt lat="45.09843" lon="1.03918">
        <ele>181.9258265</ele>
        <time>2022-08-18T06:26:38Z</time>
      </trkpt>
      <trkpt lat="45.09848" lon="1.03921">
        <ele>181.7133667</ele>
        <time>2022-08-18T06:26:40Z</time>
      </trkpt>
      <trkpt lat="45.09853" lon="1.03923">
        <ele>181.5679673</ele>
        <time>2022-08-18T06:26:42Z</time>
      </trkpt>
      <trkpt lat="45.09859" lon="1.03926">
        <ele>181.7338439</ele>
        <time>2022-08-18T06:26:44Z</time>
      </trkpt>
      <trkpt lat="45.09864" lon="1.03927">
        <ele>181.8593774</ele>
        <time>2022-08-18T06:26:46Z</time>
      </trkpt>
      <trkpt lat="45.0987" lon="1.03929">
        <ele>181.9369527</ele>
        <time>2022-08-18T06:26:48Z</time>
      </trkpt>
      <trkpt lat="45.09875" lon="1.0393">
        <ele>182.2064921</ele>
        <time>2022-08-18T06:26:50Z</time>
      </trkpt>
      <trkpt lat="45.09882" lon="1.03931">
        <ele>182.6336961</ele>
        <time>2022-08-18T06:26:52Z</time>
      </trkpt>
      <trkpt lat="45.09889" lon="1.03932">
        <ele>182.7117901</ele>
        <time>2022-08-18T06:26:54Z</time>
      </trkpt>
      <trkpt lat="45.09896" lon="1.03934">
        <ele>183.2416535</ele>
        <time>2022-08-18T06:26:56Z</time>
      </trkpt>
      <trkpt lat="45.09902" lon="1.03936">
        <ele>183.0007976</ele>
        <time>2022-08-18T06:26:58Z</time>
      </trkpt>
      <trkpt lat="45.09908" lon="1.03937">
        <ele>183.1088574</ele>
        <time>2022-08-18T06:27:00Z</time>
      </trkpt>
      <trkpt lat="45.09914" lon="1.03939">
        <ele>183.5726669</ele>
        <time>2022-08-18T06:27:02Z</time>
      </trkpt>
      <trkpt lat="45.0992" lon="1.03941">
        <ele>183.9236552</ele>
        <time>2022-08-18T06:27:04Z</time>
      </trkpt>
      <trkpt lat="45.09926" lon="1.03943">
        <ele>183.8557097</ele>
        <time>2022-08-18T06:27:06Z</time>
      </trkpt>
      <trkpt lat="45.09932" lon="1.03945">
        <ele>183.6856835</ele>
        <time>2022-08-18T06:27:08Z</time>
      </trkpt>
      <trkpt lat="45.09938" lon="1.03946">
        <ele>184.2364192</ele>
        <time>2022-08-18T06:27:10Z</time>
      </trkpt>
      <trkpt lat="45.09944" lon="1.03947">
        <ele>184.248988</ele>
        <time>2022-08-18T06:27:12Z</time>
      </trkpt>
      <trkpt lat="45.0995" lon="1.03949">
        <ele>184.615209</ele>
        <time>2022-08-18T06:27:14Z</time>
      </trkpt>
      <trkpt lat="45.09957" lon="1.0395">
        <ele>184.8949301</ele>
        <time>2022-08-18T06:27:16Z</time>
      </trkpt>
      <trkpt lat="45.09963" lon="1.03952">
        <ele>185.0868273</ele>
        <time>2022-08-18T06:27:18Z</time>
      </trkpt>
      <trkpt lat="45.09969" lon="1.03954">
        <ele>185.1247868</ele>
        <time>2022-08-18T06:27:20Z</time>
      </trkpt>
      <trkpt lat="45.09976" lon="1.03955">
        <ele>185.2800239</ele>
        <time>2022-08-18T06:27:22Z</time>
      </trkpt>
      <trkpt lat="45.09982" lon="1.03957">
        <ele>185.1648734</ele>
        <time>2022-08-18T06:27:24Z</time>
      </trkpt>
      <trkpt lat="45.09988" lon="1.03958">
        <ele>185.185101</ele>
        <time>2022-08-18T06:27:26Z</time>
      </trkpt>
      <trkpt lat="45.09994" lon="1.0396">
        <ele>185.1162167</ele>
        <time>2022-08-18T06:27:28Z</time>
      </trkpt>
      <trkpt lat="45.1" lon="1.03962">
        <ele>185.272094</ele>
        <time>2022-08-18T06:27:30Z</time>
      </trkpt>
      <trkpt lat="45.10007" lon="1.03964">
        <ele>185.3745382</ele>
        <time>2022-08-18T06:27:32Z</time>
      </trkpt>
      <trkpt lat="45.10014" lon="1.03967">
        <ele>185.1416944</ele>
        <time>2022-08-18T06:27:34Z</time>
      </trkpt>
      <trkpt lat="45.1002" lon="1.03969">
        <ele>185.3293047</ele>
        <time>2022-08-18T06:27:36Z</time>
      </trkpt>
      <trkpt lat="45.10027" lon="1.03971">
        <ele>185.432506</ele>
        <time>2022-08-18T06:27:38Z</time>
      </trkpt>
      <trkpt lat="45.10033" lon="1.03973">
        <ele>185.6366513</ele>
        <time>2022-08-18T06:27:40Z</time>
      </trkpt>
      <trkpt lat="45.1004" lon="1.03974">
        <ele>185.7949438</ele>
        <time>2022-08-18T06:27:42Z</time>
      </trkpt>
      <trkpt lat="45.10046" lon="1.03976">
        <ele>185.9259343</ele>
        <time>2022-08-18T06:27:44Z</time>
      </trkpt>
      <trkpt lat="45.10052" lon="1.03978">
        <ele>186.1113595</ele>
        <time>2022-08-18T06:27:46Z</time>
      </trkpt>
      <trkpt lat="45.10059" lon="1.0398">
        <ele>185.6665415</ele>
        <time>2022-08-18T06:27:48Z</time>
      </trkpt>
      <trkpt lat="45.10065" lon="1.03981">
        <ele>185.633771</ele>
        <time>2022-08-18T06:27:50Z</time>
      </trkpt>
      <trkpt lat="45.10071" lon="1.03983">
        <ele>185.7694655</ele>
        <time>2022-08-18T06:27:52Z</time>
      </trkpt>
      <trkpt lat="45.10077" lon="1.03986">
        <ele>185.9953918</ele>
        <time>2022-08-18T06:27:54Z</time>
      </trkpt>
      <trkpt lat="45.10082" lon="1.03988">
        <ele>186.5214273</ele>
        <time>2022-08-18T06:27:56Z</time>
      </trkpt>
      <trkpt lat="45.10086" lon="1.0399">
        <ele>187.0265693</ele>
        <time>2022-08-18T06:27:58Z</time>
      </trkpt>
      <trkpt lat="45.1009" lon="1.03992">
        <ele>187.5377589</ele>
        <time>2022-08-18T06:28:00Z</time>
      </trkpt>
      <trkpt lat="45.10094" lon="1.03993">
        <ele>187.6629861</ele>
        <time>2022-08-18T06:28:02Z</time>
      </trkpt>
      <trkpt lat="45.10097" lon="1.03994">
        <ele>187.8454679</ele>
        <time>2022-08-18T06:28:04Z</time>
      </trkpt>
      <trkpt lat="45.10101" lon="1.03996">
        <ele>188.0175807</ele>
        <time>2022-08-18T06:28:06Z</time>
      </trkpt>
      <trkpt lat="45.10104" lon="1.03998">
        <ele>188.5399569</ele>
        <time>2022-08-18T06:28:08Z</time>
      </trkpt>
      <trkpt lat="45.10108" lon="1.04">
        <ele>188.9136374</ele>
        <time>2022-08-18T06:28:10Z</time>
      </trkpt>
      <trkpt lat="45.10112" lon="1.04002">
        <ele>189.5445272</ele>
        <time>2022-08-18T06:28:12Z</time>
      </trkpt>
      <trkpt lat="45.10115" lon="1.04004">
        <ele>189.6823947</ele>
        <time>2022-08-18T06:28:14Z</time>
      </trkpt>
      <trkpt lat="45.10119" lon="1.04006">
        <ele>190.1430934</ele>
        <time>2022-08-18T06:28:16Z</time>
      </trkpt>
      <trkpt lat="45.10122" lon="1.04008">
        <ele>190.2187785</ele>
        <time>2022-08-18T06:28:18Z</time>
      </trkpt>
      <trkpt lat="45.10126" lon="1.0401">
        <ele>190.4995238</ele>
        <time>2022-08-18T06:28:20Z</time>
      </trkpt>
      <trkpt lat="45.10129" lon="1.04012">
        <ele>190.4069445</ele>
        <time>2022-08-18T06:28:22Z</time>
      </trkpt>
      <trkpt lat="45.10133" lon="1.04014">
        <ele>190.7815251</ele>
        <time>2022-08-18T06:28:24Z</time>
      </trkpt>
      <trkpt lat="45.10135" lon="1.04016">
        <ele>191.0324987</ele>
        <time>2022-08-18T06:28:26Z</time>
      </trkpt>
      <trkpt lat="45.10139" lon="1.04018">
        <ele>191.2768882</ele>
        <time>2022-08-18T06:28:28Z</time>
      </trkpt>
      <trkpt lat="45.10142" lon="1.0402">
        <ele>191.4768282</ele>
        <time>2022-08-18T06:28:30Z</time>
      </trkpt>
      <trkpt lat="45.10145" lon="1.04021">
        <ele>191.3795304</ele>
        <time>2022-08-18T06:28:32Z</time>
      </trkpt>
      <trkpt lat="45.10148" lon="1.04023">
        <ele>191.4795624</ele>
        <time>2022-08-18T06:28:34Z</time>
      </trkpt>
      <trkpt lat="45.10152" lon="1.04025">
        <ele>191.4133962</ele>
        <time>2022-08-18T06:28:36Z</time>
      </trkpt>
      <trkpt lat="45.10155" lon="1.04026">
        <ele>191.293596</ele>
        <time>2022-08-18T06:28:38Z</time>
      </trkpt>
      <trkpt lat="45.10158" lon="1.04027">
        <ele>191.3518378</ele>
        <time>2022-08-18T06:28:40Z</time>
      </trkpt>
      <trkpt lat="45.10161" lon="1.04028">
        <ele>191.5866282</ele>
        <time>2022-08-18T06:28:42Z</time>
      </trkpt>
      <trkpt lat="45.10165" lon="1.0403">
        <ele>191.7826404</ele>
        <time>2022-08-18T06:28:44Z</time>
      </trkpt>
      <trkpt lat="45.10168" lon="1.04031">
        <ele>191.8456831</ele>
        <time>2022-08-18T06:28:46Z</time>
      </trkpt>
      <trkpt lat="45.10171" lon="1.04032">
        <ele>191.6788053</ele>
        <time>2022-08-18T06:28:48Z</time>
      </trkpt>
      <trkpt lat="45.10175" lon="1.04034">
        <ele>191.7252009</ele>
        <time>2022-08-18T06:28:50Z</time>
      </trkpt>
      <trkpt lat="45.10178" lon="1.04036">
        <ele>191.947919</ele>
        <time>2022-08-18T06:28:52Z</time>
      </trkpt>
      <trkpt lat="45.10181" lon="1.04038">
        <ele>192.0583664</ele>
        <time>2022-08-18T06:28:54Z</time>
      </trkpt>
      <trkpt lat="45.10185" lon="1.0404">
        <ele>192.2693181</ele>
        <time>2022-08-18T06:28:56Z</time>
      </trkpt>
      <trkpt lat="45.10188" lon="1.04042">
        <ele>192.2720806</ele>
        <time>2022-08-18T06:28:58Z</time>
      </trkpt>
      <trkpt lat="45.10192" lon="1.04043">
        <ele>192.662252</ele>
        <time>2022-08-18T06:29:00Z</time>
      </trkpt>
      <trkpt lat="45.10195" lon="1.04044">
        <ele>192.8577254</ele>
        <time>2022-08-18T06:29:02Z</time>
      </trkpt>
      <trkpt lat="45.10198" lon="1.04046">
        <ele>193.2850029</ele>
        <time>2022-08-18T06:29:04Z</time>
      </trkpt>
      <trkpt lat="45.10201" lon="1.04048">
        <ele>193.6798239</ele>
        <time>2022-08-18T06:29:06Z</time>
      </trkpt>
      <trkpt lat="45.10205" lon="1.0405">
        <ele>193.3223428</ele>
        <time>2022-08-18T06:29:08Z</time>
      </trkpt>
      <trkpt lat="45.10208" lon="1.04051">
        <ele>193.3659118</ele>
        <time>2022-08-18T06:29:10Z</time>
      </trkpt>
      <trkpt lat="45.10212" lon="1.04053">
        <ele>193.3925315</ele>
        <time>2022-08-18T06:29:12Z</time>
      </trkpt>
      <trkpt lat="45.10217" lon="1.04056">
        <ele>193.250213</ele>
        <time>2022-08-18T06:29:14Z</time>
      </trkpt>
      <trkpt lat="45.10217" lon="1.04056">
        <ele>193.2086549</ele>
        <time>2022-08-18T06:29:16Z</time>
      </trkpt>
      <trkpt lat="45.10217" lon="1.04056">
        <ele>193.0934905</ele>
        <time>2022-08-18T06:29:18Z</time>
      </trkpt>
      <trkpt lat="45.10217" lon="1.04056">
        <ele>192.9099928</ele>
        <time>2022-08-18T06:29:20Z</time>
      </trkpt>
      <trkpt lat="45.10217" lon="1.04056">
        <ele>192.9624983</ele>
        <time>2022-08-18T06:29:22Z</time>
      </trkpt>
      <trkpt lat="45.10216" lon="1.04056">
        <ele>193.1371861</ele>
        <time>2022-08-18T06:29:24Z</time>
      </trkpt>
      <trkpt lat="45.10216" lon="1.04057">
        <ele>193.5611094</ele>
        <time>2022-08-18T06:29:26Z</time>
      </trkpt>
      <trkpt lat="45.10216" lon="1.04057">
        <ele>193.3646345</ele>
        <time>2022-08-18T06:29:28Z</time>
      </trkpt>
      <trkpt lat="45.10216" lon="1.04057">
        <ele>193.4566564</ele>
        <time>2022-08-18T06:29:30Z</time>
      </trkpt>
      <trkpt lat="45.10217" lon="1.04057">
        <ele>193.5757932</ele>
        <time>2022-08-18T06:29:32Z</time>
      </trkpt>
      <trkpt lat="45.10217" lon="1.04057">
        <ele>193.5155708</ele>
        <time>2022-08-18T06:29:34Z</time>
      </trkpt>
      <trkpt lat="45.10221" lon="1.04059">
        <ele>193.8761637</ele>
        <time>2022-08-18T06:29:36Z</time>
      </trkpt>
      <trkpt lat="45.10226" lon="1.04062">
        <ele>193.9355471</ele>
        <time>2022-08-18T06:29:38Z</time>
      </trkpt>
      <trkpt lat="45.10232" lon="1.04064">
        <ele>193.8718984</ele>
        <time>2022-08-18T06:29:40Z</time>
      </trkpt>
      <trkpt lat="45.10239" lon="1.04065">
        <ele>193.4627101</ele>
        <time>2022-08-18T06:29:42Z</time>
      </trkpt>
      <trkpt lat="45.10247" lon="1.04067">
        <ele>193.5532066</ele>
        <time>2022-08-18T06:29:44Z</time>
      </trkpt>
      <trkpt lat="45.10255" lon="1.0407">
        <ele>193.5535221</ele>
        <time>2022-08-18T06:29:46Z</time>
      </trkpt>
      <trkpt lat="45.10263" lon="1.04071">
        <ele>193.2745942</ele>
        <time>2022-08-18T06:29:48Z</time>
      </trkpt>
      <trkpt lat="45.10271" lon="1.04072">
        <ele>193.7301117</ele>
        <time>2022-08-18T06:29:50Z</time>
      </trkpt>
      <trkpt lat="45.1028" lon="1.04072">
        <ele>193.4105212</ele>
        <time>2022-08-18T06:29:52Z</time>
      </trkpt>
      <trkpt lat="45.10289" lon="1.04073">
        <ele>193.7751653</ele>
        <time>2022-08-18T06:29:54Z</time>
      </trkpt>
      <trkpt lat="45.10298" lon="1.04072">
        <ele>193.6822968</ele>
        <time>2022-08-18T06:29:56Z</time>
      </trkpt>
      <trkpt lat="45.10307" lon="1.04072">
        <ele>193.3153696</ele>
        <time>2022-08-18T06:29:58Z</time>
      </trkpt>
      <trkpt lat="45.10316" lon="1.04072">
        <ele>193.2978803</ele>
        <time>2022-08-18T06:30:00Z</time>
      </trkpt>
      <trkpt lat="45.10324" lon="1.04072">
        <ele>193.2292267</ele>
        <time>2022-08-18T06:30:02Z</time>
      </trkpt>
      <trkpt lat="45.10332" lon="1.04073">
        <ele>193.525719</ele>
        <time>2022-08-18T06:30:04Z</time>
      </trkpt>
      <trkpt lat="45.1034" lon="1.04074">
        <ele>193.2286938</ele>
        <time>2022-08-18T06:30:06Z</time>
      </trkpt>
      <trkpt lat="45.10347" lon="1.04075">
        <ele>192.7590179</ele>
        <time>2022-08-18T06:30:08Z</time>
      </trkpt>
      <trkpt lat="45.10353" lon="1.04075">
        <ele>192.750967</ele>
        <time>2022-08-18T06:30:10Z</time>
      </trkpt>
      <trkpt lat="45.1036" lon="1.04076">
        <ele>192.4858516</ele>
        <time>2022-08-18T06:30:12Z</time>
      </trkpt>
      <trkpt lat="45.10367" lon="1.04076">
        <ele>192.7710144</ele>
        <time>2022-08-18T06:30:14Z</time>
      </trkpt>
      <trkpt lat="45.10373" lon="1.04077">
        <ele>192.4921723</ele>
        <time>2022-08-18T06:30:16Z</time>
      </trkpt>
      <trkpt lat="45.10378" lon="1.04077">
        <ele>193.2651363</ele>
        <time>2022-08-18T06:30:18Z</time>
      </trkpt>
      <trkpt lat="45.10383" lon="1.04077">
        <ele>193.4681076</ele>
        <time>2022-08-18T06:30:20Z</time>
      </trkpt>
      <trkpt lat="45.10388" lon="1.04078">
        <ele>193.9100369</ele>
        <time>2022-08-18T06:30:22Z</time>
      </trkpt>
      <trkpt lat="45.10391" lon="1.04078">
        <ele>194.3096628</ele>
        <time>2022-08-18T06:30:24Z</time>
      </trkpt>
      <trkpt lat="45.10394" lon="1.04079">
        <ele>194.7071322</ele>
        <time>2022-08-18T06:30:26Z</time>
      </trkpt>
      <trkpt lat="45.10397" lon="1.04079">
        <ele>194.6357036</ele>
        <time>2022-08-18T06:30:28Z</time>
      </trkpt>
      <trkpt lat="45.10401" lon="1.04079">
        <ele>194.9243592</ele>
        <time>2022-08-18T06:30:30Z</time>
      </trkpt>
      <trkpt lat="45.10406" lon="1.04079">
        <ele>195.6522541</ele>
        <time>2022-08-18T06:30:32Z</time>
      </trkpt>
      <trkpt lat="45.10411" lon="1.04079">
        <ele>195.8663651</ele>
        <time>2022-08-18T06:30:34Z</time>
      </trkpt>
      <trkpt lat="45.10415" lon="1.04078">
        <ele>196.4612402</ele>
        <time>2022-08-18T06:30:36Z</time>
      </trkpt>
      <trkpt lat="45.1042" lon="1.04078">
        <ele>196.2882038</ele>
        <time>2022-08-18T06:30:38Z</time>
      </trkpt>
      <trkpt lat="45.10424" lon="1.04078">
        <ele>196.3145885</ele>
        <time>2022-08-18T06:30:40Z</time>
      </trkpt>
      <trkpt lat="45.10428" lon="1.04078">
        <ele>196.5493844</ele>
        <time>2022-08-18T06:30:42Z</time>
      </trkpt>
      <trkpt lat="45.10432" lon="1.04077">
        <ele>196.9278859</ele>
        <time>2022-08-18T06:30:44Z</time>
      </trkpt>
      <trkpt lat="45.10436" lon="1.04077">
        <ele>196.958013</ele>
        <time>2022-08-18T06:30:46Z</time>
      </trkpt>
      <trkpt lat="45.1044" lon="1.04076">
        <ele>196.7496191</ele>
        <time>2022-08-18T06:30:48Z</time>
      </trkpt>
      <trkpt lat="45.10443" lon="1.04075">
        <ele>196.4405917</ele>
        <time>2022-08-18T06:30:50Z</time>
      </trkpt>
      <trkpt lat="45.10448" lon="1.04074">
        <ele>196.5988002</ele>
        <time>2022-08-18T06:30:52Z</time>
      </trkpt>
      <trkpt lat="45.10451" lon="1.04074">
        <ele>196.8435063</ele>
        <time>2022-08-18T06:30:54Z</time>
      </trkpt>
      <trkpt lat="45.10454" lon="1.04073">
        <ele>197.1600062</ele>
        <time>2022-08-18T06:30:56Z</time>
      </trkpt>
      <trkpt lat="45.10458" lon="1.04073">
        <ele>197.4463868</ele>
        <time>2022-08-18T06:30:58Z</time>
      </trkpt>
      <trkpt lat="45.10462" lon="1.04072">
        <ele>197.7870399</ele>
        <time>2022-08-18T06:31:00Z</time>
      </trkpt>
      <trkpt lat="45.10466" lon="1.04072">
        <ele>198.1466686</ele>
        <time>2022-08-18T06:31:02Z</time>
      </trkpt>
      <trkpt lat="45.1047" lon="1.04072">
        <ele>198.4030795</ele>
        <time>2022-08-18T06:31:04Z</time>
      </trkpt>
      <trkpt lat="45.10475" lon="1.04072">
        <ele>199.0356368</ele>
        <time>2022-08-18T06:31:06Z</time>
      </trkpt>
      <trkpt lat="45.10479" lon="1.04071">
        <ele>199.6703483</ele>
        <time>2022-08-18T06:31:08Z</time>
      </trkpt>
      <trkpt lat="45.10483" lon="1.04071">
        <ele>199.5901698</ele>
        <time>2022-08-18T06:31:10Z</time>
      </trkpt>
      <trkpt lat="45.10488" lon="1.04072">
        <ele>199.6204737</ele>
        <time>2022-08-18T06:31:12Z</time>
      </trkpt>
      <trkpt lat="45.10493" lon="1.04074">
        <ele>199.8086774</ele>
        <time>2022-08-18T06:31:14Z</time>
      </trkpt>
      <trkpt lat="45.10497" lon="1.04075">
        <ele>199.9536564</ele>
        <time>2022-08-18T06:31:16Z</time>
      </trkpt>
      <trkpt lat="45.10502" lon="1.04076">
        <ele>200.0538245</ele>
        <time>2022-08-18T06:31:18Z</time>
      </trkpt>
      <trkpt lat="45.10506" lon="1.04078">
        <ele>200.5108107</ele>
        <time>2022-08-18T06:31:20Z</time>
      </trkpt>
      <trkpt lat="45.10511" lon="1.04083">
        <ele>200.2263734</ele>
        <time>2022-08-18T06:31:22Z</time>
      </trkpt>
      <trkpt lat="45.10516" lon="1.04087">
        <ele>200.4219184</ele>
        <time>2022-08-18T06:31:24Z</time>
      </trkpt>
      <trkpt lat="45.10521" lon="1.04091">
        <ele>200.3605291</ele>
        <time>2022-08-18T06:31:26Z</time>
      </trkpt>
      <trkpt lat="45.10526" lon="1.04094">
        <ele>200.6029061</ele>
        <time>2022-08-18T06:31:28Z</time>
      </trkpt>
      <trkpt lat="45.10532" lon="1.04098">
        <ele>200.7814579</ele>
        <time>2022-08-18T06:31:30Z</time>
      </trkpt>
      <trkpt lat="45.10537" lon="1.04101">
        <ele>200.9306702</ele>
        <time>2022-08-18T06:31:32Z</time>
      </trkpt>
      <trkpt lat="45.10543" lon="1.04106">
        <ele>201.1797154</ele>
        <time>2022-08-18T06:31:34Z</time>
      </trkpt>
      <trkpt lat="45.1055" lon="1.0411">
        <ele>201.3601842</ele>
        <time>2022-08-18T06:31:36Z</time>
      </trkpt>
      <trkpt lat="45.10558" lon="1.04113">
        <ele>201.2011382</ele>
        <time>2022-08-18T06:31:38Z</time>
      </trkpt>
      <trkpt lat="45.10565" lon="1.04114">
        <ele>201.4444444</ele>
        <time>2022-08-18T06:31:40Z</time>
      </trkpt>
      <trkpt lat="45.10572" lon="1.04114">
        <ele>201.8537891</ele>
        <time>2022-08-18T06:31:42Z</time>
      </trkpt>
      <trkpt lat="45.10578" lon="1.04112">
        <ele>202.0856438</ele>
        <time>2022-08-18T06:31:44Z</time>
      </trkpt>
      <trkpt lat="45.10585" lon="1.0411">
        <ele>201.8367762</ele>
        <time>2022-08-18T06:31:46Z</time>
      </trkpt>
      <trkpt lat="45.10591" lon="1.04108">
        <ele>201.9446685</ele>
        <time>2022-08-18T06:31:48Z</time>
      </trkpt>
      <trkpt lat="45.10597" lon="1.04106">
        <ele>201.8934535</ele>
        <time>2022-08-18T06:31:50Z</time>
      </trkpt>
      <trkpt lat="45.10603" lon="1.04103">
        <ele>201.3390881</ele>
        <time>2022-08-18T06:31:52Z</time>
      </trkpt>
      <trkpt lat="45.10609" lon="1.041">
        <ele>201.4844307</ele>
        <time>2022-08-18T06:31:54Z</time>
      </trkpt>
      <trkpt lat="45.10614" lon="1.04097">
        <ele>201.477898</ele>
        <time>2022-08-18T06:31:56Z</time>
      </trkpt>
      <trkpt lat="45.10619" lon="1.04094">
        <ele>201.6223816</ele>
        <time>2022-08-18T06:31:58Z</time>
      </trkpt>
      <trkpt lat="45.10624" lon="1.04091">
        <ele>201.8124129</ele>
        <time>2022-08-18T06:32:00Z</time>
      </trkpt>
      <trkpt lat="45.1063" lon="1.04088">
        <ele>201.5239109</ele>
        <time>2022-08-18T06:32:02Z</time>
      </trkpt>
      <trkpt lat="45.10635" lon="1.04085">
        <ele>201.3478742</ele>
        <time>2022-08-18T06:32:04Z</time>
      </trkpt>
      <trkpt lat="45.10641" lon="1.04082">
        <ele>201.5069029</ele>
        <time>2022-08-18T06:32:06Z</time>
      </trkpt>
      <trkpt lat="45.10645" lon="1.04079">
        <ele>201.4564838</ele>
        <time>2022-08-18T06:32:08Z</time>
      </trkpt>
      <trkpt lat="45.10649" lon="1.04076">
        <ele>201.4355392</ele>
        <time>2022-08-18T06:32:10Z</time>
      </trkpt>
      <trkpt lat="45.10653" lon="1.04072">
        <ele>201.2369598</ele>
        <time>2022-08-18T06:32:12Z</time>
      </trkpt>
      <trkpt lat="45.10657" lon="1.04069">
        <ele>201.1535209</ele>
        <time>2022-08-18T06:32:14Z</time>
      </trkpt>
      <trkpt lat="45.1066" lon="1.04068">
        <ele>201.0575835</ele>
        <time>2022-08-18T06:32:16Z</time>
      </trkpt>
      <trkpt lat="45.10662" lon="1.04067">
        <ele>200.8289411</ele>
        <time>2022-08-18T06:32:18Z</time>
      </trkpt>
      <trkpt lat="45.10663" lon="1.04067">
        <ele>200.6377831</ele>
        <time>2022-08-18T06:32:20Z</time>
      </trkpt>
      <trkpt lat="45.10662" lon="1.04067">
        <ele>200.5380797</ele>
        <time>2022-08-18T06:32:22Z</time>
      </trkpt>
      <trkpt lat="45.10662" lon="1.04067">
        <ele>200.3480889</ele>
        <time>2022-08-18T06:32:24Z</time>
      </trkpt>
      <trkpt lat="45.10662" lon="1.04067">
        <ele>200.6900429</ele>
        <time>2022-08-18T06:32:26Z</time>
      </trkpt>
      <trkpt lat="45.10662" lon="1.04067">
        <ele>200.2308202</ele>
        <time>2022-08-18T06:32:28Z</time>
      </trkpt>
      <trkpt lat="45.10662" lon="1.04067">
        <ele>199.6914408</ele>
        <time>2022-08-18T06:32:30Z</time>
      </trkpt>
      <trkpt lat="45.10663" lon="1.04068">
        <ele>199.8781933</ele>
        <time>2022-08-18T06:32:32Z</time>
      </trkpt>
      <trkpt lat="45.10663" lon="1.04068">
        <ele>200.2236787</ele>
        <time>2022-08-18T06:32:34Z</time>
      </trkpt>
      <trkpt lat="45.10663" lon="1.04068">
        <ele>200.0846511</ele>
        <time>2022-08-18T06:32:36Z</time>
      </trkpt>
      <trkpt lat="45.10663" lon="1.04068">
        <ele>200.3293512</ele>
        <time>2022-08-18T06:32:38Z</time>
      </trkpt>
      <trkpt lat="45.10663" lon="1.04068">
        <ele>200.8865959</ele>
        <time>2022-08-18T06:32:40Z</time>
      </trkpt>
      <trkpt lat="45.10662" lon="1.04068">
        <ele>201.0999938</ele>
        <time>2022-08-18T06:32:42Z</time>
      </trkpt>
      <trkpt lat="45.10662" lon="1.04067">
        <ele>201.6250879</ele>
        <time>2022-08-18T06:32:44Z</time>
      </trkpt>
      <trkpt lat="45.10662" lon="1.04066">
        <ele>202.3209766</ele>
        <time>2022-08-18T06:32:46Z</time>
      </trkpt>
      <trkpt lat="45.10662" lon="1.04066">
        <ele>203.285678</ele>
        <time>2022-08-18T06:32:48Z</time>
      </trkpt>
      <trkpt lat="45.10661" lon="1.04065">
        <ele>203.4978748</ele>
        <time>2022-08-18T06:32:50Z</time>
      </trkpt>
      <trkpt lat="45.10662" lon="1.04065">
        <ele>203.6452246</ele>
        <time>2022-08-18T06:32:54Z</time>
      </trkpt>
      <trkpt lat="45.10662" lon="1.04065">
        <ele>203.4987609</ele>
        <time>2022-08-18T06:32:56Z</time>
      </trkpt>
      <trkpt lat="45.10662" lon="1.04065">
        <ele>204.0013117</ele>
        <time>2022-08-18T06:32:58Z</time>
      </trkpt>
      <trkpt lat="45.10662" lon="1.04064">
        <ele>203.3132687</ele>
        <time>2022-08-18T06:33:00Z</time>
      </trkpt>
      <trkpt lat="45.10662" lon="1.04064">
        <ele>203.4710961</ele>
        <time>2022-08-18T06:33:02Z</time>
      </trkpt>
      <trkpt lat="45.10662" lon="1.04064">
        <ele>202.8382124</ele>
        <time>2022-08-18T06:33:04Z</time>
      </trkpt>
      <trkpt lat="45.10662" lon="1.04064">
        <ele>202.3936603</ele>
        <time>2022-08-18T06:33:06Z</time>
      </trkpt>
      <trkpt lat="45.10662" lon="1.04064">
        <ele>202.04335</ele>
        <time>2022-08-18T06:33:08Z</time>
      </trkpt>
      <trkpt lat="45.10662" lon="1.04064">
        <ele>201.9841434</ele>
        <time>2022-08-18T06:33:10Z</time>
      </trkpt>
      <trkpt lat="45.10662" lon="1.04064">
        <ele>203.0043119</ele>
        <time>2022-08-18T06:33:12Z</time>
      </trkpt>
      <trkpt lat="45.10662" lon="1.04063">
        <ele>204.3366133</ele>
        <time>2022-08-18T06:33:14Z</time>
      </trkpt>
      <trkpt lat="45.10661" lon="1.04063">
        <ele>205.1869585</ele>
        <time>2022-08-18T06:33:16Z</time>
      </trkpt>
      <trkpt lat="45.10661" lon="1.04062">
        <ele>205.8376366</ele>
        <time>2022-08-18T06:33:18Z</time>
      </trkpt>
      <trkpt lat="45.10661" lon="1.04062">
        <ele>206.0800032</ele>
        <time>2022-08-18T06:33:20Z</time>
      </trkpt>
      <trkpt lat="45.1066" lon="1.04061">
        <ele>205.7912617</ele>
        <time>2022-08-18T06:33:22Z</time>
      </trkpt>
      <trkpt lat="45.1066" lon="1.04062">
        <ele>206.2260142</ele>
        <time>2022-08-18T06:33:24Z</time>
      </trkpt>
      <trkpt lat="45.1066" lon="1.04061">
        <ele>206.1477128</ele>
        <time>2022-08-18T06:33:26Z</time>
      </trkpt>
      <trkpt lat="45.1066" lon="1.04062">
        <ele>207.039596</ele>
        <time>2022-08-18T06:33:28Z</time>
      </trkpt>
      <trkpt lat="45.1066" lon="1.04062">
        <ele>207.994418</ele>
        <time>2022-08-18T06:33:30Z</time>
      </trkpt>
      <trkpt lat="45.1066" lon="1.04063">
        <ele>208.8005599</ele>
        <time>2022-08-18T06:33:32Z</time>
      </trkpt>
      <trkpt lat="45.1066" lon="1.04063">
        <ele>208.8358811</ele>
        <time>2022-08-18T06:33:34Z</time>
      </trkpt>
      <trkpt lat="45.1066" lon="1.04063">
        <ele>208.8951644</ele>
        <time>2022-08-18T06:33:36Z</time>
      </trkpt>
      <trkpt lat="45.1066" lon="1.04063">
        <ele>208.253309</ele>
        <time>2022-08-18T06:33:40Z</time>
      </trkpt>
      <trkpt lat="45.1066" lon="1.04062">
        <ele>208.4800378</ele>
        <time>2022-08-18T06:33:42Z</time>
      </trkpt>
      <trkpt lat="45.1066" lon="1.04062">
        <ele>208.59668</ele>
        <time>2022-08-18T06:33:44Z</time>
      </trkpt>
      <trkpt lat="45.1066" lon="1.04063">
        <ele>207.9080021</ele>
        <time>2022-08-18T06:33:46Z</time>
      </trkpt>
      <trkpt lat="45.1066" lon="1.04064">
        <ele>207.4883978</ele>
        <time>2022-08-18T06:33:48Z</time>
      </trkpt>
      <trkpt lat="45.10659" lon="1.04064">
        <ele>207.5831484</ele>
        <time>2022-08-18T06:33:50Z</time>
      </trkpt>
      <trkpt lat="45.10659" lon="1.04064">
        <ele>207.5831484</ele>
        <time>2022-08-18T06:33:54Z</time>
      </trkpt>
      <trkpt lat="45.1066" lon="1.04066">
        <ele>207.332076</ele>
        <time>2022-08-18T06:33:58Z</time>
      </trkpt>
      <trkpt lat="45.1066" lon="1.04065">
        <ele>207.2423737</ele>
        <time>2022-08-18T06:34:02Z</time>
      </trkpt>
      <trkpt lat="45.1066" lon="1.04066">
        <ele>207.4181251</ele>
        <time>2022-08-18T06:34:04Z</time>
      </trkpt>
      <trkpt lat="45.1066" lon="1.04066">
        <ele>206.9335013</ele>
        <time>2022-08-18T06:34:06Z</time>
      </trkpt>
      <trkpt lat="45.1066" lon="1.04067">
        <ele>206.4139721</ele>
        <time>2022-08-18T06:34:08Z</time>
      </trkpt>
      <trkpt lat="45.1066" lon="1.04067">
        <ele>206.2452149</ele>
        <time>2022-08-18T06:34:10Z</time>
      </trkpt>
      <trkpt lat="45.1066" lon="1.04068">
        <ele>205.9037903</ele>
        <time>2022-08-18T06:34:12Z</time>
      </trkpt>
      <trkpt lat="45.10661" lon="1.04068">
        <ele>205.9060494</ele>
        <time>2022-08-18T06:34:14Z</time>
      </trkpt>
      <trkpt lat="45.10661" lon="1.04068">
        <ele>205.6868383</ele>
        <time>2022-08-18T06:34:16Z</time>
      </trkpt>
      <trkpt lat="45.10661" lon="1.04068">
        <ele>205.5782113</ele>
        <time>2022-08-18T06:34:18Z</time>
      </trkpt>
      <trkpt lat="45.10661" lon="1.04068">
        <ele>205.4583936</ele>
        <time>2022-08-18T06:34:20Z</time>
      </trkpt>
      <trkpt lat="45.10662" lon="1.04069">
        <ele>205.8640822</ele>
        <time>2022-08-18T06:34:22Z</time>
      </trkpt>
      <trkpt lat="45.10662" lon="1.04069">
        <ele>205.6657563</ele>
        <time>2022-08-18T06:34:24Z</time>
      </trkpt>
      <trkpt lat="45.10662" lon="1.04069">
        <ele>205.8029438</ele>
        <time>2022-08-18T06:34:26Z</time>
      </trkpt>
      <trkpt lat="45.10662" lon="1.04069">
        <ele>205.6434419</ele>
        <time>2022-08-18T06:34:28Z</time>
      </trkpt>
      <trkpt lat="45.10662" lon="1.04069">
        <ele>205.7956812</ele>
        <time>2022-08-18T06:34:30Z</time>
      </trkpt>
      <trkpt lat="45.10662" lon="1.04069">
        <ele>205.8520109</ele>
        <time>2022-08-18T06:34:32Z</time>
      </trkpt>
      <trkpt lat="45.10662" lon="1.04069">
        <ele>206.0739824</ele>
        <time>2022-08-18T06:34:34Z</time>
      </trkpt>
      <trkpt lat="45.10662" lon="1.04069">
        <ele>205.8190697</ele>
        <time>2022-08-18T06:34:36Z</time>
      </trkpt>
      <trkpt lat="45.10661" lon="1.04069">
        <ele>205.7409879</ele>
        <time>2022-08-18T06:34:38Z</time>
      </trkpt>
      <trkpt lat="45.10661" lon="1.0407">
        <ele>206.0686766</ele>
        <time>2022-08-18T06:34:40Z</time>
      </trkpt>
      <trkpt lat="45.10661" lon="1.0407">
        <ele>206.0341849</ele>
        <time>2022-08-18T06:34:42Z</time>
      </trkpt>
      <trkpt lat="45.10661" lon="1.04069">
        <ele>206.1334554</ele>
        <time>2022-08-18T06:34:44Z</time>
      </trkpt>
      <trkpt lat="45.10661" lon="1.04069">
        <ele>206.0245127</ele>
        <time>2022-08-18T06:34:46Z</time>
      </trkpt>
      <trkpt lat="45.10661" lon="1.04069">
        <ele>206.0966004</ele>
        <time>2022-08-18T06:34:48Z</time>
      </trkpt>
      <trkpt lat="45.10661" lon="1.04069">
        <ele>205.8276902</ele>
        <time>2022-08-18T06:34:50Z</time>
      </trkpt>
      <trkpt lat="45.10661" lon="1.04069">
        <ele>205.7048879</ele>
        <time>2022-08-18T06:34:52Z</time>
      </trkpt>
      <trkpt lat="45.10661" lon="1.04069">
        <ele>205.1821277</ele>
        <time>2022-08-18T06:34:54Z</time>
      </trkpt>
      <trkpt lat="45.10662" lon="1.04069">
        <ele>205.3907512</ele>
        <time>2022-08-18T06:34:56Z</time>
      </trkpt>
      <trkpt lat="45.10662" lon="1.04069">
        <ele>205.8142013</ele>
        <time>2022-08-18T06:34:58Z</time>
      </trkpt>
      <trkpt lat="45.10662" lon="1.04069">
        <ele>206.8704868</ele>
        <time>2022-08-18T06:35:00Z</time>
      </trkpt>
      <trkpt lat="45.10662" lon="1.04069">
        <ele>207.3088515</ele>
        <time>2022-08-18T06:35:02Z</time>
      </trkpt>
      <trkpt lat="45.10662" lon="1.0407">
        <ele>206.9781448</ele>
        <time>2022-08-18T06:35:04Z</time>
      </trkpt>
      <trkpt lat="45.10662" lon="1.0407">
        <ele>206.8988224</ele>
        <time>2022-08-18T06:35:06Z</time>
      </trkpt>
      <trkpt lat="45.10662" lon="1.0407">
        <ele>206.6051508</ele>
        <time>2022-08-18T06:35:08Z</time>
      </trkpt>
      <trkpt lat="45.10662" lon="1.0407">
        <ele>206.3049306</ele>
        <time>2022-08-18T06:35:10Z</time>
      </trkpt>
      <trkpt lat="45.10662" lon="1.04069">
        <ele>206.4475641</ele>
        <time>2022-08-18T06:35:12Z</time>
      </trkpt>
      <trkpt lat="45.10665" lon="1.04066">
        <ele>206.2249677</ele>
        <time>2022-08-18T06:35:14Z</time>
      </trkpt>
      <trkpt lat="45.10668" lon="1.04064">
        <ele>205.7374417</ele>
        <time>2022-08-18T06:35:16Z</time>
      </trkpt>
      <trkpt lat="45.10672" lon="1.04061">
        <ele>206.1246245</ele>
        <time>2022-08-18T06:35:18Z</time>
      </trkpt>
      <trkpt lat="45.10676" lon="1.04058">
        <ele>206.1274383</ele>
        <time>2022-08-18T06:35:20Z</time>
      </trkpt>
      <trkpt lat="45.10681" lon="1.04055">
        <ele>206.121511</ele>
        <time>2022-08-18T06:35:22Z</time>
      </trkpt>
      <trkpt lat="45.10686" lon="1.04051">
        <ele>206.1873804</ele>
        <time>2022-08-18T06:35:24Z</time>
      </trkpt>
      <trkpt lat="45.10691" lon="1.04047">
        <ele>206.268527</ele>
        <time>2022-08-18T06:35:26Z</time>
      </trkpt>
      <trkpt lat="45.10696" lon="1.04044">
        <ele>206.6922138</ele>
        <time>2022-08-18T06:35:28Z</time>
      </trkpt>
      <trkpt lat="45.10701" lon="1.04041">
        <ele>207.220739</ele>
        <time>2022-08-18T06:35:30Z</time>
      </trkpt>
      <trkpt lat="45.10706" lon="1.04039">
        <ele>208.0854284</ele>
        <time>2022-08-18T06:35:32Z</time>
      </trkpt>
      <trkpt lat="45.10711" lon="1.04037">
        <ele>208.1952172</ele>
        <time>2022-08-18T06:35:34Z</time>
      </trkpt>
      <trkpt lat="45.10717" lon="1.04037">
        <ele>208.8311144</ele>
        <time>2022-08-18T06:35:36Z</time>
      </trkpt>
      <trkpt lat="45.10722" lon="1.04035">
        <ele>209.5768434</ele>
        <time>2022-08-18T06:35:38Z</time>
      </trkpt>
      <trkpt lat="45.10726" lon="1.04035">
        <ele>210.1789405</ele>
        <time>2022-08-18T06:35:40Z</time>
      </trkpt>
      <trkpt lat="45.10732" lon="1.04036">
        <ele>210.1625169</ele>
        <time>2022-08-18T06:35:42Z</time>
      </trkpt>
      <trkpt lat="45.10737" lon="1.04037">
        <ele>210.1558965</ele>
        <time>2022-08-18T06:35:44Z</time>
      </trkpt>
      <trkpt lat="45.10743" lon="1.04039">
        <ele>210.2154745</ele>
        <time>2022-08-18T06:35:46Z</time>
      </trkpt>
      <trkpt lat="45.10748" lon="1.04042">
        <ele>210.6100176</ele>
        <time>2022-08-18T06:35:48Z</time>
      </trkpt>
      <trkpt lat="45.10753" lon="1.04044">
        <ele>210.690626</ele>
        <time>2022-08-18T06:35:50Z</time>
      </trkpt>
      <trkpt lat="45.10759" lon="1.04046">
        <ele>211.1439117</ele>
        <time>2022-08-18T06:35:52Z</time>
      </trkpt>
      <trkpt lat="45.10765" lon="1.04048">
        <ele>211.3364508</ele>
        <time>2022-08-18T06:35:54Z</time>
      </trkpt>
      <trkpt lat="45.1077" lon="1.0405">
        <ele>211.2984142</ele>
        <time>2022-08-18T06:35:56Z</time>
      </trkpt>
      <trkpt lat="45.10773" lon="1.04052">
        <ele>212.0080533</ele>
        <time>2022-08-18T06:35:58Z</time>
      </trkpt>
      <trkpt lat="45.10774" lon="1.04054">
        <ele>212.0906219</ele>
        <time>2022-08-18T06:36:00Z</time>
      </trkpt>
      <trkpt lat="45.10776" lon="1.04054">
        <ele>212.1872287</ele>
        <time>2022-08-18T06:36:02Z</time>
      </trkpt>
      <trkpt lat="45.10779" lon="1.04055">
        <ele>212.0972762</ele>
        <time>2022-08-18T06:36:04Z</time>
      </trkpt>
      <trkpt lat="45.10782" lon="1.04056">
        <ele>211.9462882</ele>
        <time>2022-08-18T06:36:06Z</time>
      </trkpt>
      <trkpt lat="45.10786" lon="1.04057">
        <ele>212.0225191</ele>
        <time>2022-08-18T06:36:08Z</time>
      </trkpt>
      <trkpt lat="45.1079" lon="1.04058">
        <ele>211.6272055</ele>
        <time>2022-08-18T06:36:10Z</time>
      </trkpt>
      <trkpt lat="45.10793" lon="1.04059">
        <ele>211.4777962</ele>
        <time>2022-08-18T06:36:12Z</time>
      </trkpt>
      <trkpt lat="45.10797" lon="1.04061">
        <ele>211.8622654</ele>
        <time>2022-08-18T06:36:14Z</time>
      </trkpt>
      <trkpt lat="45.108" lon="1.04062">
        <ele>212.4144769</ele>
        <time>2022-08-18T06:36:16Z</time>
      </trkpt>
      <trkpt lat="45.10804" lon="1.04064">
        <ele>212.6457944</ele>
        <time>2022-08-18T06:36:18Z</time>
      </trkpt>
      <trkpt lat="45.10808" lon="1.04065">
        <ele>212.4020891</ele>
        <time>2022-08-18T06:36:20Z</time>
      </trkpt>
      <trkpt lat="45.10811" lon="1.04067">
        <ele>212.7419558</ele>
        <time>2022-08-18T06:36:22Z</time>
      </trkpt>
      <trkpt lat="45.10815" lon="1.04069">
        <ele>212.8910515</ele>
        <time>2022-08-18T06:36:24Z</time>
      </trkpt>
      <trkpt lat="45.10819" lon="1.0407">
        <ele>212.5436395</ele>
        <time>2022-08-18T06:36:26Z</time>
      </trkpt>
      <trkpt lat="45.10824" lon="1.04072">
        <ele>212.5738231</ele>
        <time>2022-08-18T06:36:28Z</time>
      </trkpt>
      <trkpt lat="45.10828" lon="1.04073">
        <ele>212.894024</ele>
        <time>2022-08-18T06:36:30Z</time>
      </trkpt>
      <trkpt lat="45.10832" lon="1.04073">
        <ele>213.0010383</ele>
        <time>2022-08-18T06:36:32Z</time>
      </trkpt>
      <trkpt lat="45.10836" lon="1.04074">
        <ele>213.4668722</ele>
        <time>2022-08-18T06:36:34Z</time>
      </trkpt>
      <trkpt lat="45.1084" lon="1.04075">
        <ele>213.3050984</ele>
        <time>2022-08-18T06:36:36Z</time>
      </trkpt>
      <trkpt lat="45.10843" lon="1.04076">
        <ele>213.7544462</ele>
        <time>2022-08-18T06:36:38Z</time>
      </trkpt>
      <trkpt lat="45.10846" lon="1.04076">
        <ele>213.4929774</ele>
        <time>2022-08-18T06:36:40Z</time>
      </trkpt>
      <trkpt lat="45.1085" lon="1.04077">
        <ele>213.8590911</ele>
        <time>2022-08-18T06:36:42Z</time>
      </trkpt>
      <trkpt lat="45.10855" lon="1.04078">
        <ele>214.5848981</ele>
        <time>2022-08-18T06:36:44Z</time>
      </trkpt>
      <trkpt lat="45.10858" lon="1.0408">
        <ele>215.419581</ele>
        <time>2022-08-18T06:36:46Z</time>
      </trkpt>
      <trkpt lat="45.10861" lon="1.04081">
        <ele>215.979547</ele>
        <time>2022-08-18T06:36:48Z</time>
      </trkpt>
      <trkpt lat="45.10863" lon="1.04081">
        <ele>216.2879376</ele>
        <time>2022-08-18T06:36:50Z</time>
      </trkpt>
      <trkpt lat="45.10866" lon="1.04082">
        <ele>216.815172</ele>
        <time>2022-08-18T06:36:52Z</time>
      </trkpt>
      <trkpt lat="45.1087" lon="1.04082">
        <ele>216.4138074</ele>
        <time>2022-08-18T06:36:54Z</time>
      </trkpt>
      <trkpt lat="45.10873" lon="1.04084">
        <ele>216.4991498</ele>
        <time>2022-08-18T06:36:56Z</time>
      </trkpt>
      <trkpt lat="45.10877" lon="1.04085">
        <ele>216.3729739</ele>
        <time>2022-08-18T06:36:58Z</time>
      </trkpt>
      <trkpt lat="45.10881" lon="1.04087">
        <ele>216.6777156</ele>
        <time>2022-08-18T06:37:00Z</time>
      </trkpt>
      <trkpt lat="45.10885" lon="1.04088">
        <ele>216.0122629</ele>
        <time>2022-08-18T06:37:02Z</time>
      </trkpt>
      <trkpt lat="45.10888" lon="1.04089">
        <ele>217.749502</ele>
        <time>2022-08-18T06:37:04Z</time>
      </trkpt>
      <trkpt lat="45.10891" lon="1.0409">
        <ele>217.8268133</ele>
        <time>2022-08-18T06:37:06Z</time>
      </trkpt>
      <trkpt lat="45.10895" lon="1.0409">
        <ele>218.2299825</ele>
        <time>2022-08-18T06:37:08Z</time>
      </trkpt>
      <trkpt lat="45.10899" lon="1.04091">
        <ele>217.9845452</ele>
        <time>2022-08-18T06:37:10Z</time>
      </trkpt>
      <trkpt lat="45.10902" lon="1.04092">
        <ele>219.0322623</ele>
        <time>2022-08-18T06:37:12Z</time>
      </trkpt>
      <trkpt lat="45.10906" lon="1.04093">
        <ele>219.2883211</ele>
        <time>2022-08-18T06:37:14Z</time>
      </trkpt>
      <trkpt lat="45.10909" lon="1.04095">
        <ele>219.8758363</ele>
        <time>2022-08-18T06:37:16Z</time>
      </trkpt>
      <trkpt lat="45.10912" lon="1.04096">
        <ele>219.6895811</ele>
        <time>2022-08-18T06:37:18Z</time>
      </trkpt>
      <trkpt lat="45.10916" lon="1.04098">
        <ele>220.4478604</ele>
        <time>2022-08-18T06:37:20Z</time>
      </trkpt>
      <trkpt lat="45.1092" lon="1.04099">
        <ele>220.2629698</ele>
        <time>2022-08-18T06:37:22Z</time>
      </trkpt>
      <trkpt lat="45.10923" lon="1.041">
        <ele>219.4631427</ele>
        <time>2022-08-18T06:37:24Z</time>
      </trkpt>
      <trkpt lat="45.10927" lon="1.04101">
        <ele>219.021869</ele>
        <time>2022-08-18T06:37:26Z</time>
      </trkpt>
      <trkpt lat="45.1093" lon="1.04103">
        <ele>219.2889418</ele>
        <time>2022-08-18T06:37:28Z</time>
      </trkpt>
      <trkpt lat="45.10934" lon="1.04104">
        <ele>219.5010976</ele>
        <time>2022-08-18T06:37:30Z</time>
      </trkpt>
      <trkpt lat="45.10938" lon="1.04104">
        <ele>219.4917313</ele>
        <time>2022-08-18T06:37:32Z</time>
      </trkpt>
      <trkpt lat="45.10942" lon="1.04106">
        <ele>219.1142465</ele>
        <time>2022-08-18T06:37:34Z</time>
      </trkpt>
      <trkpt lat="45.10944" lon="1.04107">
        <ele>218.7085974</ele>
        <time>2022-08-18T06:37:36Z</time>
      </trkpt>
      <trkpt lat="45.10947" lon="1.04109">
        <ele>218.4222386</ele>
        <time>2022-08-18T06:37:38Z</time>
      </trkpt>
      <trkpt lat="45.1095" lon="1.0411">
        <ele>218.4518145</ele>
        <time>2022-08-18T06:37:40Z</time>
      </trkpt>
      <trkpt lat="45.10954" lon="1.04112">
        <ele>218.2488983</ele>
        <time>2022-08-18T06:37:42Z</time>
      </trkpt>
      <trkpt lat="45.10957" lon="1.04114">
        <ele>217.7108195</ele>
        <time>2022-08-18T06:37:44Z</time>
      </trkpt>
      <trkpt lat="45.1096" lon="1.04116">
        <ele>217.8403982</ele>
        <time>2022-08-18T06:37:46Z</time>
      </trkpt>
      <trkpt lat="45.10963" lon="1.04117">
        <ele>217.8950143</ele>
        <time>2022-08-18T06:37:48Z</time>
      </trkpt>
      <trkpt lat="45.10966" lon="1.04119">
        <ele>217.688775</ele>
        <time>2022-08-18T06:37:50Z</time>
      </trkpt>
      <trkpt lat="45.10969" lon="1.04122">
        <ele>217.8844892</ele>
        <time>2022-08-18T06:37:52Z</time>
      </trkpt>
      <trkpt lat="45.10972" lon="1.04124">
        <ele>217.9336224</ele>
        <time>2022-08-18T06:37:54Z</time>
      </trkpt>
      <trkpt lat="45.10975" lon="1.04126">
        <ele>217.5731195</ele>
        <time>2022-08-18T06:37:56Z</time>
      </trkpt>
      <trkpt lat="45.10978" lon="1.04128">
        <ele>217.6236467</ele>
        <time>2022-08-18T06:37:58Z</time>
      </trkpt>
      <trkpt lat="45.10981" lon="1.04129">
        <ele>217.5015436</ele>
        <time>2022-08-18T06:38:00Z</time>
      </trkpt>
      <trkpt lat="45.10984" lon="1.0413">
        <ele>217.3936936</ele>
        <time>2022-08-18T06:38:02Z</time>
      </trkpt>
      <trkpt lat="45.10987" lon="1.04132">
        <ele>217.4615195</ele>
        <time>2022-08-18T06:38:04Z</time>
      </trkpt>
      <trkpt lat="45.1099" lon="1.04135">
        <ele>217.6507434</ele>
        <time>2022-08-18T06:38:06Z</time>
      </trkpt>
      <trkpt lat="45.10994" lon="1.04136">
        <ele>217.9871006</ele>
        <time>2022-08-18T06:38:08Z</time>
      </trkpt>
      <trkpt lat="45.10996" lon="1.04138">
        <ele>218.3026162</ele>
        <time>2022-08-18T06:38:10Z</time>
      </trkpt>
      <trkpt lat="45.11" lon="1.0414">
        <ele>218.1214072</ele>
        <time>2022-08-18T06:38:12Z</time>
      </trkpt>
      <trkpt lat="45.11003" lon="1.04142">
        <ele>219.0785364</ele>
        <time>2022-08-18T06:38:14Z</time>
      </trkpt>
      <trkpt lat="45.11005" lon="1.04144">
        <ele>219.4798818</ele>
        <time>2022-08-18T06:38:16Z</time>
      </trkpt>
      <trkpt lat="45.11008" lon="1.04145">
        <ele>220.046098</ele>
        <time>2022-08-18T06:38:18Z</time>
      </trkpt>
      <trkpt lat="45.11011" lon="1.04148">
        <ele>220.6667918</ele>
        <time>2022-08-18T06:38:20Z</time>
      </trkpt>
      <trkpt lat="45.11013" lon="1.0415">
        <ele>220.6053957</ele>
        <time>2022-08-18T06:38:22Z</time>
      </trkpt>
      <trkpt lat="45.11017" lon="1.04153">
        <ele>220.9299297</ele>
        <time>2022-08-18T06:38:24Z</time>
      </trkpt>
      <trkpt lat="45.1102" lon="1.04156">
        <ele>221.5181319</ele>
        <time>2022-08-18T06:38:26Z</time>
      </trkpt>
      <trkpt lat="45.11023" lon="1.04158">
        <ele>221.8524218</ele>
        <time>2022-08-18T06:38:28Z</time>
      </trkpt>
      <trkpt lat="45.11026" lon="1.04161">
        <ele>222.4653743</ele>
        <time>2022-08-18T06:38:30Z</time>
      </trkpt>
      <trkpt lat="45.11029" lon="1.04165">
        <ele>223.0428275</ele>
        <time>2022-08-18T06:38:32Z</time>
      </trkpt>
      <trkpt lat="45.11031" lon="1.04166">
        <ele>223.0317958</ele>
        <time>2022-08-18T06:38:34Z</time>
      </trkpt>
      <trkpt lat="45.11033" lon="1.04168">
        <ele>223.7827468</ele>
        <time>2022-08-18T06:38:36Z</time>
      </trkpt>
      <trkpt lat="45.11036" lon="1.04172">
        <ele>223.8446982</ele>
        <time>2022-08-18T06:38:38Z</time>
      </trkpt>
      <trkpt lat="45.11039" lon="1.04175">
        <ele>224.0823581</ele>
        <time>2022-08-18T06:38:40Z</time>
      </trkpt>
      <trkpt lat="45.11041" lon="1.04179">
        <ele>224.5703636</ele>
        <time>2022-08-18T06:38:42Z</time>
      </trkpt>
      <trkpt lat="45.11044" lon="1.04182">
        <ele>224.5269064</ele>
        <time>2022-08-18T06:38:44Z</time>
      </trkpt>
      <trkpt lat="45.11046" lon="1.04182">
        <ele>224.4440093</ele>
        <time>2022-08-18T06:38:46Z</time>
      </trkpt>
      <trkpt lat="45.11049" lon="1.04185">
        <ele>224.3721243</ele>
        <time>2022-08-18T06:38:48Z</time>
      </trkpt>
      <trkpt lat="45.11053" lon="1.0419">
        <ele>224.8382301</ele>
        <time>2022-08-18T06:38:50Z</time>
      </trkpt>
      <trkpt lat="45.11055" lon="1.04194">
        <ele>225.2722514</ele>
        <time>2022-08-18T06:38:52Z</time>
      </trkpt>
      <trkpt lat="45.11058" lon="1.04198">
        <ele>224.9687951</ele>
        <time>2022-08-18T06:38:54Z</time>
      </trkpt>
      <trkpt lat="45.11064" lon="1.04202">
        <ele>223.926918</ele>
        <time>2022-08-18T06:38:56Z</time>
      </trkpt>
      <trkpt lat="45.11068" lon="1.04206">
        <ele>223.9492678</ele>
        <time>2022-08-18T06:38:58Z</time>
      </trkpt>
      <trkpt lat="45.11073" lon="1.04213">
        <ele>223.5400845</ele>
        <time>2022-08-18T06:39:00Z</time>
      </trkpt>
      <trkpt lat="45.11077" lon="1.04218">
        <ele>222.6503401</ele>
        <time>2022-08-18T06:39:02Z</time>
      </trkpt>
      <trkpt lat="45.11081" lon="1.04224">
        <ele>222.0959404</ele>
        <time>2022-08-18T06:39:04Z</time>
      </trkpt>
      <trkpt lat="45.11086" lon="1.04229">
        <ele>221.9851503</ele>
        <time>2022-08-18T06:39:06Z</time>
      </trkpt>
      <trkpt lat="45.11092" lon="1.04234">
        <ele>222.6298235</ele>
        <time>2022-08-18T06:39:08Z</time>
      </trkpt>
      <trkpt lat="45.11096" lon="1.0424">
        <ele>223.2550722</ele>
        <time>2022-08-18T06:39:10Z</time>
      </trkpt>
      <trkpt lat="45.11101" lon="1.04246">
        <ele>223.8000007</ele>
        <time>2022-08-18T06:39:12Z</time>
      </trkpt>
      <trkpt lat="45.11105" lon="1.04252">
        <ele>223.5331221</ele>
        <time>2022-08-18T06:39:14Z</time>
      </trkpt>
      <trkpt lat="45.11109" lon="1.04257">
        <ele>224.6376681</ele>
        <time>2022-08-18T06:39:16Z</time>
      </trkpt>
      <trkpt lat="45.11114" lon="1.04261">
        <ele>224.6709069</ele>
        <time>2022-08-18T06:39:18Z</time>
      </trkpt>
      <trkpt lat="45.11118" lon="1.04268">
        <ele>224.3502129</ele>
        <time>2022-08-18T06:39:20Z</time>
      </trkpt>
      <trkpt lat="45.11123" lon="1.04272">
        <ele>225.1294125</ele>
        <time>2022-08-18T06:39:22Z</time>
      </trkpt>
      <trkpt lat="45.11127" lon="1.04275">
        <ele>225.1012643</ele>
        <time>2022-08-18T06:39:24Z</time>
      </trkpt>
      <trkpt lat="45.11129" lon="1.04277">
        <ele>224.7921377</ele>
        <time>2022-08-18T06:39:26Z</time>
      </trkpt>
      <trkpt lat="45.11131" lon="1.04279">
        <ele>225.9357013</ele>
        <time>2022-08-18T06:39:28Z</time>
      </trkpt>
      <trkpt lat="45.11133" lon="1.04282">
        <ele>226.8844245</ele>
        <time>2022-08-18T06:39:30Z</time>
      </trkpt>
      <trkpt lat="45.11135" lon="1.04285">
        <ele>227.4232976</ele>
        <time>2022-08-18T06:39:32Z</time>
      </trkpt>
      <trkpt lat="45.11138" lon="1.04286">
        <ele>227.388263</ele>
        <time>2022-08-18T06:39:34Z</time>
      </trkpt>
      <trkpt lat="45.11142" lon="1.04291">
        <ele>227.3402893</ele>
        <time>2022-08-18T06:39:36Z</time>
      </trkpt>
      <trkpt lat="45.11146" lon="1.04292">
        <ele>228.0076444</ele>
        <time>2022-08-18T06:39:38Z</time>
      </trkpt>
      <trkpt lat="45.11149" lon="1.04296">
        <ele>227.8132008</ele>
        <time>2022-08-18T06:39:40Z</time>
      </trkpt>
      <trkpt lat="45.11151" lon="1.04302">
        <ele>228.6418109</ele>
        <time>2022-08-18T06:39:42Z</time>
      </trkpt>
      <trkpt lat="45.11153" lon="1.04306">
        <ele>228.5304748</ele>
        <time>2022-08-18T06:39:44Z</time>
      </trkpt>
      <trkpt lat="45.11154" lon="1.04311">
        <ele>230.0878774</ele>
        <time>2022-08-18T06:39:46Z</time>
      </trkpt>
      <trkpt lat="45.11157" lon="1.04314">
        <ele>229.8907254</ele>
        <time>2022-08-18T06:39:48Z</time>
      </trkpt>
      <trkpt lat="45.11159" lon="1.04319">
        <ele>230.2908496</ele>
        <time>2022-08-18T06:39:50Z</time>
      </trkpt>
      <trkpt lat="45.11162" lon="1.04323">
        <ele>231.1109415</ele>
        <time>2022-08-18T06:39:52Z</time>
      </trkpt>
      <trkpt lat="45.11164" lon="1.04326">
        <ele>230.6743618</ele>
        <time>2022-08-18T06:39:54Z</time>
      </trkpt>
      <trkpt lat="45.11168" lon="1.04329">
        <ele>231.4149434</ele>
        <time>2022-08-18T06:39:56Z</time>
      </trkpt>
      <trkpt lat="45.11171" lon="1.04332">
        <ele>232.1167285</ele>
        <time>2022-08-18T06:39:58Z</time>
      </trkpt>
      <trkpt lat="45.11174" lon="1.04337">
        <ele>232.4134036</ele>
        <time>2022-08-18T06:40:00Z</time>
      </trkpt>
      <trkpt lat="45.11177" lon="1.04341">
        <ele>232.6499151</ele>
        <time>2022-08-18T06:40:02Z</time>
      </trkpt>
      <trkpt lat="45.11182" lon="1.04347">
        <ele>232.5129188</ele>
        <time>2022-08-18T06:40:04Z</time>
      </trkpt>
      <trkpt lat="45.11185" lon="1.04352">
        <ele>232.6200871</ele>
        <time>2022-08-18T06:40:06Z</time>
      </trkpt>
      <trkpt lat="45.11189" lon="1.04359">
        <ele>232.0471491</ele>
        <time>2022-08-18T06:40:08Z</time>
      </trkpt>
      <trkpt lat="45.11191" lon="1.04365">
        <ele>232.3500125</ele>
        <time>2022-08-18T06:40:10Z</time>
      </trkpt>
      <trkpt lat="45.11196" lon="1.04369">
        <ele>232.6644422</ele>
        <time>2022-08-18T06:40:12Z</time>
      </trkpt>
      <trkpt lat="45.11199" lon="1.04375">
        <ele>232.7658932</ele>
        <time>2022-08-18T06:40:14Z</time>
      </trkpt>
      <trkpt lat="45.11204" lon="1.04383">
        <ele>233.2131224</ele>
        <time>2022-08-18T06:40:16Z</time>
      </trkpt>
      <trkpt lat="45.11207" lon="1.0439">
        <ele>233.3467192</ele>
        <time>2022-08-18T06:40:18Z</time>
      </trkpt>
      <trkpt lat="45.11209" lon="1.04396">
        <ele>233.2300301</ele>
        <time>2022-08-18T06:40:20Z</time>
      </trkpt>
      <trkpt lat="45.11213" lon="1.04402">
        <ele>234.0570235</ele>
        <time>2022-08-18T06:40:22Z</time>
      </trkpt>
      <trkpt lat="45.11216" lon="1.04408">
        <ele>234.3117259</ele>
        <time>2022-08-18T06:40:24Z</time>
      </trkpt>
      <trkpt lat="45.1122" lon="1.04414">
        <ele>234.165046</ele>
        <time>2022-08-18T06:40:26Z</time>
      </trkpt>
      <trkpt lat="45.11223" lon="1.04419">
        <ele>234.7579868</ele>
        <time>2022-08-18T06:40:28Z</time>
      </trkpt>
      <trkpt lat="45.11226" lon="1.04425">
        <ele>234.9156424</ele>
        <time>2022-08-18T06:40:30Z</time>
      </trkpt>
      <trkpt lat="45.11229" lon="1.04431">
        <ele>234.0152894</ele>
        <time>2022-08-18T06:40:32Z</time>
      </trkpt>
      <trkpt lat="45.11232" lon="1.04436">
        <ele>234.1321878</ele>
        <time>2022-08-18T06:40:34Z</time>
      </trkpt>
      <trkpt lat="45.11236" lon="1.0444">
        <ele>233.90808</ele>
        <time>2022-08-18T06:40:36Z</time>
      </trkpt>
      <trkpt lat="45.11239" lon="1.04446">
        <ele>233.8197744</ele>
        <time>2022-08-18T06:40:38Z</time>
      </trkpt>
      <trkpt lat="45.11244" lon="1.0445">
        <ele>234.6624014</ele>
        <time>2022-08-18T06:40:40Z</time>
      </trkpt>
      <trkpt lat="45.11248" lon="1.04454">
        <ele>234.757063</ele>
        <time>2022-08-18T06:40:42Z</time>
      </trkpt>
      <trkpt lat="45.11252" lon="1.04457">
        <ele>235.0021268</ele>
        <time>2022-08-18T06:40:44Z</time>
      </trkpt>
      <trkpt lat="45.11256" lon="1.04461">
        <ele>235.5347058</ele>
        <time>2022-08-18T06:40:46Z</time>
      </trkpt>
      <trkpt lat="45.11261" lon="1.04463">
        <ele>235.6424897</ele>
        <time>2022-08-18T06:40:48Z</time>
      </trkpt>
      <trkpt lat="45.11266" lon="1.04467">
        <ele>235.807538</ele>
        <time>2022-08-18T06:40:50Z</time>
      </trkpt>
      <trkpt lat="45.1127" lon="1.04471">
        <ele>236.435523</ele>
        <time>2022-08-18T06:40:52Z</time>
      </trkpt>
      <trkpt lat="45.11274" lon="1.04473">
        <ele>236.6363791</ele>
        <time>2022-08-18T06:40:54Z</time>
      </trkpt>
      <trkpt lat="45.11279" lon="1.04476">
        <ele>237.5620589</ele>
        <time>2022-08-18T06:40:56Z</time>
      </trkpt>
      <trkpt lat="45.11284" lon="1.04478">
        <ele>238.092622</ele>
        <time>2022-08-18T06:40:58Z</time>
      </trkpt>
      <trkpt lat="45.11288" lon="1.0448">
        <ele>238.5998975</ele>
        <time>2022-08-18T06:41:00Z</time>
      </trkpt>
      <trkpt lat="45.11293" lon="1.04482">
        <ele>239.304484</ele>
        <time>2022-08-18T06:41:02Z</time>
      </trkpt>
      <trkpt lat="45.11298" lon="1.04482">
        <ele>239.8651156</ele>
        <time>2022-08-18T06:41:04Z</time>
      </trkpt>
      <trkpt lat="45.11303" lon="1.04482">
        <ele>240.0674589</ele>
        <time>2022-08-18T06:41:06Z</time>
      </trkpt>
      <trkpt lat="45.11308" lon="1.04483">
        <ele>240.2979526</ele>
        <time>2022-08-18T06:41:08Z</time>
      </trkpt>
      <trkpt lat="45.11313" lon="1.04483">
        <ele>240.081784</ele>
        <time>2022-08-18T06:41:10Z</time>
      </trkpt>
      <trkpt lat="45.11318" lon="1.04482">
        <ele>240.2151207</ele>
        <time>2022-08-18T06:41:12Z</time>
      </trkpt>
      <trkpt lat="45.11322" lon="1.04482">
        <ele>240.5205114</ele>
        <time>2022-08-18T06:41:14Z</time>
      </trkpt>
      <trkpt lat="45.11326" lon="1.04481">
        <ele>240.5988529</ele>
        <time>2022-08-18T06:41:16Z</time>
      </trkpt>
      <trkpt lat="45.11331" lon="1.0448">
        <ele>241.1568407</ele>
        <time>2022-08-18T06:41:18Z</time>
      </trkpt>
      <trkpt lat="45.11336" lon="1.04479">
        <ele>240.7572704</ele>
        <time>2022-08-18T06:41:20Z</time>
      </trkpt>
      <trkpt lat="45.1134" lon="1.04479">
        <ele>239.8247827</ele>
        <time>2022-08-18T06:41:22Z</time>
      </trkpt>
      <trkpt lat="45.11344" lon="1.04479">
        <ele>239.9099575</ele>
        <time>2022-08-18T06:41:24Z</time>
      </trkpt>
      <trkpt lat="45.11348" lon="1.04479">
        <ele>240.2012302</ele>
        <time>2022-08-18T06:41:26Z</time>
      </trkpt>
      <trkpt lat="45.11352" lon="1.04477">
        <ele>240.0028064</ele>
        <time>2022-08-18T06:41:28Z</time>
      </trkpt>
      <trkpt lat="45.11355" lon="1.04475">
        <ele>239.5864407</ele>
        <time>2022-08-18T06:41:30Z</time>
      </trkpt>
      <trkpt lat="45.11358" lon="1.04472">
        <ele>239.8704809</ele>
        <time>2022-08-18T06:41:32Z</time>
      </trkpt>
      <trkpt lat="45.1136" lon="1.04471">
        <ele>239.9615085</ele>
        <time>2022-08-18T06:41:34Z</time>
      </trkpt>
      <trkpt lat="45.11362" lon="1.04469">
        <ele>240.1945425</ele>
        <time>2022-08-18T06:41:36Z</time>
      </trkpt>
      <trkpt lat="45.11364" lon="1.04465">
        <ele>240.0658174</ele>
        <time>2022-08-18T06:41:38Z</time>
      </trkpt>
      <trkpt lat="45.11368" lon="1.04461">
        <ele>240.3631147</ele>
        <time>2022-08-18T06:41:40Z</time>
      </trkpt>
      <trkpt lat="45.11369" lon="1.04458">
        <ele>240.1955113</ele>
        <time>2022-08-18T06:41:42Z</time>
      </trkpt>
      <trkpt lat="45.11371" lon="1.04452">
        <ele>240.57188</ele>
        <time>2022-08-18T06:41:44Z</time>
      </trkpt>
      <trkpt lat="45.11372" lon="1.04447">
        <ele>240.5850435</ele>
        <time>2022-08-18T06:41:46Z</time>
      </trkpt>
      <trkpt lat="45.11374" lon="1.04443">
        <ele>240.784285</ele>
        <time>2022-08-18T06:41:48Z</time>
      </trkpt>
      <trkpt lat="45.11376" lon="1.0444">
        <ele>240.2540931</ele>
        <time>2022-08-18T06:41:50Z</time>
      </trkpt>
      <trkpt lat="45.11377" lon="1.04435">
        <ele>239.912725</ele>
        <time>2022-08-18T06:41:52Z</time>
      </trkpt>
      <trkpt lat="45.11379" lon="1.04431">
        <ele>239.4926503</ele>
        <time>2022-08-18T06:41:54Z</time>
      </trkpt>
      <trkpt lat="45.11379" lon="1.04426">
        <ele>238.7982825</ele>
        <time>2022-08-18T06:41:56Z</time>
      </trkpt>
      <trkpt lat="45.1138" lon="1.04423">
        <ele>238.4169328</ele>
        <time>2022-08-18T06:41:58Z</time>
      </trkpt>
      <trkpt lat="45.11382" lon="1.04418">
        <ele>238.5603375</ele>
        <time>2022-08-18T06:42:00Z</time>
      </trkpt>
      <trkpt lat="45.11382" lon="1.04413">
        <ele>238.394657</ele>
        <time>2022-08-18T06:42:02Z</time>
      </trkpt>
      <trkpt lat="45.11383" lon="1.04408">
        <ele>238.3689153</ele>
        <time>2022-08-18T06:42:04Z</time>
      </trkpt>
      <trkpt lat="45.11385" lon="1.04402">
        <ele>238.9285056</ele>
        <time>2022-08-18T06:42:06Z</time>
      </trkpt>
      <trkpt lat="45.11386" lon="1.04397">
        <ele>239.0242759</ele>
        <time>2022-08-18T06:42:08Z</time>
      </trkpt>
      <trkpt lat="45.11388" lon="1.04392">
        <ele>239.7956443</ele>
        <time>2022-08-18T06:42:10Z</time>
      </trkpt>
      <trkpt lat="45.11388" lon="1.04387">
        <ele>240.2180546</ele>
        <time>2022-08-18T06:42:12Z</time>
      </trkpt>
      <trkpt lat="45.11389" lon="1.04383">
        <ele>240.3397916</ele>
        <time>2022-08-18T06:42:14Z</time>
      </trkpt>
      <trkpt lat="45.1139" lon="1.04379">
        <ele>240.5880703</ele>
        <time>2022-08-18T06:42:16Z</time>
      </trkpt>
      <trkpt lat="45.11392" lon="1.04373">
        <ele>241.2082167</ele>
        <time>2022-08-18T06:42:18Z</time>
      </trkpt>
      <trkpt lat="45.11393" lon="1.0437">
        <ele>240.7116439</ele>
        <time>2022-08-18T06:42:20Z</time>
      </trkpt>
      <trkpt lat="45.11395" lon="1.04365">
        <ele>241.2766246</ele>
        <time>2022-08-18T06:42:22Z</time>
      </trkpt>
      <trkpt lat="45.11395" lon="1.04362">
        <ele>241.6399905</ele>
        <time>2022-08-18T06:42:24Z</time>
      </trkpt>
      <trkpt lat="45.11396" lon="1.04357">
        <ele>241.9227278</ele>
        <time>2022-08-18T06:42:26Z</time>
      </trkpt>
      <trkpt lat="45.11399" lon="1.04351">
        <ele>242.6127425</ele>
        <time>2022-08-18T06:42:28Z</time>
      </trkpt>
      <trkpt lat="45.11401" lon="1.04347">
        <ele>242.5638563</ele>
        <time>2022-08-18T06:42:30Z</time>
      </trkpt>
      <trkpt lat="45.11402" lon="1.04342">
        <ele>243.3466503</ele>
        <time>2022-08-18T06:42:32Z</time>
      </trkpt>
      <trkpt lat="45.11403" lon="1.04339">
        <ele>243.2534074</ele>
        <time>2022-08-18T06:42:34Z</time>
      </trkpt>
      <trkpt lat="45.11405" lon="1.04334">
        <ele>243.5440302</ele>
        <time>2022-08-18T06:42:36Z</time>
      </trkpt>
      <trkpt lat="45.11406" lon="1.04329">
        <ele>244.5121339</ele>
        <time>2022-08-18T06:42:38Z</time>
      </trkpt>
      <trkpt lat="45.11407" lon="1.04323">
        <ele>244.7496765</ele>
        <time>2022-08-18T06:42:40Z</time>
      </trkpt>
      <trkpt lat="45.11409" lon="1.04318">
        <ele>245.0225323</ele>
        <time>2022-08-18T06:42:42Z</time>
      </trkpt>
      <trkpt lat="45.1141" lon="1.04313">
        <ele>245.3406924</ele>
        <time>2022-08-18T06:42:44Z</time>
      </trkpt>
      <trkpt lat="45.11412" lon="1.04309">
        <ele>245.0456655</ele>
        <time>2022-08-18T06:42:46Z</time>
      </trkpt>
      <trkpt lat="45.11413" lon="1.04305">
        <ele>244.9590292</ele>
        <time>2022-08-18T06:42:48Z</time>
      </trkpt>
      <trkpt lat="45.11415" lon="1.04301">
        <ele>244.6226651</ele>
        <time>2022-08-18T06:42:50Z</time>
      </trkpt>
      <trkpt lat="45.11418" lon="1.04297">
        <ele>244.2437364</ele>
        <time>2022-08-18T06:42:52Z</time>
      </trkpt>
      <trkpt lat="45.11419" lon="1.04293">
        <ele>244.3283653</ele>
        <time>2022-08-18T06:42:54Z</time>
      </trkpt>
      <trkpt lat="45.11421" lon="1.04289">
        <ele>244.8436098</ele>
        <time>2022-08-18T06:42:56Z</time>
      </trkpt>
      <trkpt lat="45.11423" lon="1.04285">
        <ele>245.4404082</ele>
        <time>2022-08-18T06:42:58Z</time>
      </trkpt>
      <trkpt lat="45.11426" lon="1.04282">
        <ele>245.6055253</ele>
        <time>2022-08-18T06:43:00Z</time>
      </trkpt>
      <trkpt lat="45.11429" lon="1.04279">
        <ele>245.8060901</ele>
        <time>2022-08-18T06:43:02Z</time>
      </trkpt>
      <trkpt lat="45.11431" lon="1.04276">
        <ele>245.382693</ele>
        <time>2022-08-18T06:43:04Z</time>
      </trkpt>
      <trkpt lat="45.11435" lon="1.04272">
        <ele>245.9678656</ele>
        <time>2022-08-18T06:43:06Z</time>
      </trkpt>
      <trkpt lat="45.11438" lon="1.04267">
        <ele>246.559416</ele>
        <time>2022-08-18T06:43:08Z</time>
      </trkpt>
      <trkpt lat="45.11441" lon="1.04263">
        <ele>246.6473851</ele>
        <time>2022-08-18T06:43:10Z</time>
      </trkpt>
      <trkpt lat="45.11444" lon="1.0426">
        <ele>246.9239419</ele>
        <time>2022-08-18T06:43:12Z</time>
      </trkpt>
      <trkpt lat="45.11448" lon="1.04257">
        <ele>247.3681835</ele>
        <time>2022-08-18T06:43:14Z</time>
      </trkpt>
      <trkpt lat="45.11451" lon="1.04253">
        <ele>247.2508581</ele>
        <time>2022-08-18T06:43:16Z</time>
      </trkpt>
      <trkpt lat="45.11454" lon="1.0425">
        <ele>247.7239009</ele>
        <time>2022-08-18T06:43:18Z</time>
      </trkpt>
      <trkpt lat="45.11459" lon="1.04246">
        <ele>248.0270499</ele>
        <time>2022-08-18T06:43:20Z</time>
      </trkpt>
      <trkpt lat="45.11462" lon="1.04243">
        <ele>248.0032116</ele>
        <time>2022-08-18T06:43:22Z</time>
      </trkpt>
      <trkpt lat="45.11465" lon="1.04239">
        <ele>249.0341175</ele>
        <time>2022-08-18T06:43:24Z</time>
      </trkpt>
      <trkpt lat="45.11469" lon="1.04236">
        <ele>248.8101303</ele>
        <time>2022-08-18T06:43:26Z</time>
      </trkpt>
      <trkpt lat="45.11472" lon="1.04233">
        <ele>248.7893912</ele>
        <time>2022-08-18T06:43:28Z</time>
      </trkpt>
      <trkpt lat="45.11476" lon="1.04229">
        <ele>249.4243705</ele>
        <time>2022-08-18T06:43:30Z</time>
      </trkpt>
      <trkpt lat="45.11479" lon="1.04226">
        <ele>249.4114509</ele>
        <time>2022-08-18T06:43:32Z</time>
      </trkpt>
      <trkpt lat="45.11482" lon="1.04223">
        <ele>249.8406058</ele>
        <time>2022-08-18T06:43:34Z</time>
      </trkpt>
      <trkpt lat="45.11485" lon="1.0422">
        <ele>250.0291468</ele>
        <time>2022-08-18T06:43:36Z</time>
      </trkpt>
      <trkpt lat="45.11489" lon="1.04217">
        <ele>250.9577577</ele>
        <time>2022-08-18T06:43:38Z</time>
      </trkpt>
      <trkpt lat="45.11492" lon="1.04213">
        <ele>251.2744745</ele>
        <time>2022-08-18T06:43:40Z</time>
      </trkpt>
      <trkpt lat="45.11496" lon="1.0421">
        <ele>251.9446067</ele>
        <time>2022-08-18T06:43:42Z</time>
      </trkpt>
      <trkpt lat="45.115" lon="1.04206">
        <ele>252.2218797</ele>
        <time>2022-08-18T06:43:44Z</time>
      </trkpt>
      <trkpt lat="45.11504" lon="1.04203">
        <ele>253.1146108</ele>
        <time>2022-08-18T06:43:46Z</time>
      </trkpt>
      <trkpt lat="45.11508" lon="1.04199">
        <ele>253.8550766</ele>
        <time>2022-08-18T06:43:48Z</time>
      </trkpt>
      <trkpt lat="45.11511" lon="1.04195">
        <ele>254.1170302</ele>
        <time>2022-08-18T06:43:50Z</time>
      </trkpt>
      <trkpt lat="45.11515" lon="1.04192">
        <ele>253.8328573</ele>
        <time>2022-08-18T06:43:52Z</time>
      </trkpt>
      <trkpt lat="45.11519" lon="1.04189">
        <ele>254.3446626</ele>
        <time>2022-08-18T06:43:54Z</time>
      </trkpt>
      <trkpt lat="45.11522" lon="1.04185">
        <ele>254.5994698</ele>
        <time>2022-08-18T06:43:56Z</time>
      </trkpt>
      <trkpt lat="45.11526" lon="1.04182">
        <ele>254.8349601</ele>
        <time>2022-08-18T06:43:58Z</time>
      </trkpt>
      <trkpt lat="45.1153" lon="1.04178">
        <ele>254.9453582</ele>
        <time>2022-08-18T06:44:00Z</time>
      </trkpt>
      <trkpt lat="45.11534" lon="1.04175">
        <ele>255.2110202</ele>
        <time>2022-08-18T06:44:02Z</time>
      </trkpt>
      <trkpt lat="45.11538" lon="1.04172">
        <ele>255.4866375</ele>
        <time>2022-08-18T06:44:04Z</time>
      </trkpt>
      <trkpt lat="45.11542" lon="1.04169">
        <ele>256.2263861</ele>
        <time>2022-08-18T06:44:06Z</time>
      </trkpt>
      <trkpt lat="45.11546" lon="1.04165">
        <ele>256.6734786</ele>
        <time>2022-08-18T06:44:08Z</time>
      </trkpt>
      <trkpt lat="45.1155" lon="1.04161">
        <ele>256.7718403</ele>
        <time>2022-08-18T06:44:10Z</time>
      </trkpt>
      <trkpt lat="45.11553" lon="1.04158">
        <ele>256.8872857</ele>
        <time>2022-08-18T06:44:12Z</time>
      </trkpt>
      <trkpt lat="45.11557" lon="1.04155">
        <ele>256.7141026</ele>
        <time>2022-08-18T06:44:14Z</time>
      </trkpt>
      <trkpt lat="45.11561" lon="1.04151">
        <ele>256.7187305</ele>
        <time>2022-08-18T06:44:16Z</time>
      </trkpt>
      <trkpt lat="45.11564" lon="1.04148">
        <ele>256.7646753</ele>
        <time>2022-08-18T06:44:18Z</time>
      </trkpt>
      <trkpt lat="45.11567" lon="1.04145">
        <ele>257.0443862</ele>
        <time>2022-08-18T06:44:20Z</time>
      </trkpt>
      <trkpt lat="45.11571" lon="1.04142">
        <ele>257.2343488</ele>
        <time>2022-08-18T06:44:22Z</time>
      </trkpt>
      <trkpt lat="45.11574" lon="1.04139">
        <ele>257.0664775</ele>
        <time>2022-08-18T06:44:24Z</time>
      </trkpt>
      <trkpt lat="45.11576" lon="1.04137">
        <ele>256.9210953</ele>
        <time>2022-08-18T06:44:26Z</time>
      </trkpt>
      <trkpt lat="45.11579" lon="1.04134">
        <ele>256.8958821</ele>
        <time>2022-08-18T06:44:28Z</time>
      </trkpt>
      <trkpt lat="45.11582" lon="1.0413">
        <ele>256.8943701</ele>
        <time>2022-08-18T06:44:30Z</time>
      </trkpt>
      <trkpt lat="45.11586" lon="1.04127">
        <ele>257.5790027</ele>
        <time>2022-08-18T06:44:32Z</time>
      </trkpt>
      <trkpt lat="45.11589" lon="1.04125">
        <ele>257.9171501</ele>
        <time>2022-08-18T06:44:34Z</time>
      </trkpt>
      <trkpt lat="45.11592" lon="1.04122">
        <ele>258.1961028</ele>
        <time>2022-08-18T06:44:36Z</time>
      </trkpt>
      <trkpt lat="45.11595" lon="1.0412">
        <ele>258.4228362</ele>
        <time>2022-08-18T06:44:38Z</time>
      </trkpt>
      <trkpt lat="45.11597" lon="1.04117">
        <ele>258.7470915</ele>
        <time>2022-08-18T06:44:40Z</time>
      </trkpt>
      <trkpt lat="45.116" lon="1.04114">
        <ele>259.2430838</ele>
        <time>2022-08-18T06:44:42Z</time>
      </trkpt>
      <trkpt lat="45.11603" lon="1.04111">
        <ele>259.5206835</ele>
        <time>2022-08-18T06:44:44Z</time>
      </trkpt>
      <trkpt lat="45.11606" lon="1.04109">
        <ele>259.8148668</ele>
        <time>2022-08-18T06:44:46Z</time>
      </trkpt>
      <trkpt lat="45.11609" lon="1.04106">
        <ele>259.7886026</ele>
        <time>2022-08-18T06:44:48Z</time>
      </trkpt>
      <trkpt lat="45.11612" lon="1.04103">
        <ele>259.9278764</ele>
        <time>2022-08-18T06:44:50Z</time>
      </trkpt>
      <trkpt lat="45.11614" lon="1.04101">
        <ele>259.933406</ele>
        <time>2022-08-18T06:44:52Z</time>
      </trkpt>
      <trkpt lat="45.11617" lon="1.04099">
        <ele>259.958514</ele>
        <time>2022-08-18T06:44:54Z</time>
      </trkpt>
      <trkpt lat="45.11619" lon="1.04099">
        <ele>260.2818856</ele>
        <time>2022-08-18T06:44:56Z</time>
      </trkpt>
      <trkpt lat="45.11619" lon="1.04099">
        <ele>260.1248457</ele>
        <time>2022-08-18T06:44:58Z</time>
      </trkpt>
      <trkpt lat="45.11619" lon="1.04099">
        <ele>260.093852</ele>
        <time>2022-08-18T06:45:00Z</time>
      </trkpt>
      <trkpt lat="45.11619" lon="1.04099">
        <ele>260.291344</ele>
        <time>2022-08-18T06:45:02Z</time>
      </trkpt>
      <trkpt lat="45.11619" lon="1.04099">
        <ele>260.2949912</ele>
        <time>2022-08-18T06:45:04Z</time>
      </trkpt>
      <trkpt lat="45.11618" lon="1.04098">
        <ele>259.7944005</ele>
        <time>2022-08-18T06:45:06Z</time>
      </trkpt>
      <trkpt lat="45.11618" lon="1.04098">
        <ele>259.450072</ele>
        <time>2022-08-18T06:45:08Z</time>
      </trkpt>
      <trkpt lat="45.11618" lon="1.04097">
        <ele>259.2264184</ele>
        <time>2022-08-18T06:45:10Z</time>
      </trkpt>
      <trkpt lat="45.11618" lon="1.04097">
        <ele>259.0748314</ele>
        <time>2022-08-18T06:45:12Z</time>
      </trkpt>
      <trkpt lat="45.11618" lon="1.04098">
        <ele>259.1749835</ele>
        <time>2022-08-18T06:45:14Z</time>
      </trkpt>
      <trkpt lat="45.11617" lon="1.04097">
        <ele>259.1418248</ele>
        <time>2022-08-18T06:45:16Z</time>
      </trkpt>
      <trkpt lat="45.11617" lon="1.04097">
        <ele>259.3907568</ele>
        <time>2022-08-18T06:45:18Z</time>
      </trkpt>
      <trkpt lat="45.11617" lon="1.04097">
        <ele>259.5705527</ele>
        <time>2022-08-18T06:45:20Z</time>
      </trkpt>
      <trkpt lat="45.11617" lon="1.04096">
        <ele>259.4849246</ele>
        <time>2022-08-18T06:45:22Z</time>
      </trkpt>
      <trkpt lat="45.11617" lon="1.04096">
        <ele>259.4849246</ele>
        <time>2022-08-18T06:45:26Z</time>
      </trkpt>
      <trkpt lat="45.11617" lon="1.04096">
        <ele>259.4849246</ele>
        <time>2022-08-18T06:45:30Z</time>
      </trkpt>
      <trkpt lat="45.11617" lon="1.04095">
        <ele>261.5435357</ele>
        <time>2022-08-18T06:45:32Z</time>
      </trkpt>
      <trkpt lat="45.11617" lon="1.04095">
        <ele>261.5435357</ele>
        <time>2022-08-18T06:45:36Z</time>
      </trkpt>
      <trkpt lat="45.11617" lon="1.04095">
        <ele>261.6551379</ele>
        <time>2022-08-18T06:45:38Z</time>
      </trkpt>
      <trkpt lat="45.11616" lon="1.04096">
        <ele>261.8322237</ele>
        <time>2022-08-18T06:45:40Z</time>
      </trkpt>
      <trkpt lat="45.11617" lon="1.04096">
        <ele>261.5920019</ele>
        <time>2022-08-18T06:45:42Z</time>
      </trkpt>
      <trkpt lat="45.11617" lon="1.04096">
        <ele>261.6504284</ele>
        <time>2022-08-18T06:45:44Z</time>
      </trkpt>
      <trkpt lat="45.11618" lon="1.04094">
        <ele>261.5686018</ele>
        <time>2022-08-18T06:45:46Z</time>
      </trkpt>
      <trkpt lat="45.11619" lon="1.04092">
        <ele>261.6736581</ele>
        <time>2022-08-18T06:45:48Z</time>
      </trkpt>
      <trkpt lat="45.11623" lon="1.0409">
        <ele>261.6164923</ele>
        <time>2022-08-18T06:45:50Z</time>
      </trkpt>
      <trkpt lat="45.11626" lon="1.04089">
        <ele>262.1558336</ele>
        <time>2022-08-18T06:45:52Z</time>
      </trkpt>
      <trkpt lat="45.11627" lon="1.04088">
        <ele>262.3052313</ele>
        <time>2022-08-18T06:45:54Z</time>
      </trkpt>
      <trkpt lat="45.11633" lon="1.04089">
        <ele>262.3365276</ele>
        <time>2022-08-18T06:45:56Z</time>
      </trkpt>
      <trkpt lat="45.11637" lon="1.04094">
        <ele>262.1781223</ele>
        <time>2022-08-18T06:45:58Z</time>
      </trkpt>
      <trkpt lat="45.11641" lon="1.041">
        <ele>261.6524932</ele>
        <time>2022-08-18T06:46:00Z</time>
      </trkpt>
      <trkpt lat="45.11647" lon="1.04107">
        <ele>261.2234191</ele>
        <time>2022-08-18T06:46:02Z</time>
      </trkpt>
      <trkpt lat="45.11652" lon="1.04113">
        <ele>261.1595495</ele>
        <time>2022-08-18T06:46:04Z</time>
      </trkpt>
      <trkpt lat="45.11658" lon="1.04119">
        <ele>260.9611785</ele>
        <time>2022-08-18T06:46:06Z</time>
      </trkpt>
      <trkpt lat="45.11664" lon="1.04126">
        <ele>260.7341693</ele>
        <time>2022-08-18T06:46:08Z</time>
      </trkpt>
      <trkpt lat="45.1167" lon="1.04132">
        <ele>260.5611373</ele>
        <time>2022-08-18T06:46:10Z</time>
      </trkpt>
      <trkpt lat="45.11675" lon="1.04138">
        <ele>260.913351</ele>
        <time>2022-08-18T06:46:12Z</time>
      </trkpt>
      <trkpt lat="45.1168" lon="1.04143">
        <ele>260.9243356</ele>
        <time>2022-08-18T06:46:14Z</time>
      </trkpt>
      <trkpt lat="45.11685" lon="1.04148">
        <ele>261.3727219</ele>
        <time>2022-08-18T06:46:16Z</time>
      </trkpt>
      <trkpt lat="45.1169" lon="1.04152">
        <ele>261.3727846</ele>
        <time>2022-08-18T06:46:18Z</time>
      </trkpt>
      <trkpt lat="45.11694" lon="1.04156">
        <ele>261.8775781</ele>
        <time>2022-08-18T06:46:20Z</time>
      </trkpt>
      <trkpt lat="45.11699" lon="1.04159">
        <ele>262.3743488</ele>
        <time>2022-08-18T06:46:22Z</time>
      </trkpt>
      <trkpt lat="45.11703" lon="1.04161">
        <ele>262.5378607</ele>
        <time>2022-08-18T06:46:24Z</time>
      </trkpt>
      <trkpt lat="45.11708" lon="1.04163">
        <ele>263.0643968</ele>
        <time>2022-08-18T06:46:26Z</time>
      </trkpt>
      <trkpt lat="45.11713" lon="1.04165">
        <ele>263.4562027</ele>
        <time>2022-08-18T06:46:28Z</time>
      </trkpt>
      <trkpt lat="45.11718" lon="1.04165">
        <ele>263.7221985</ele>
        <time>2022-08-18T06:46:30Z</time>
      </trkpt>
      <trkpt lat="45.11722" lon="1.04165">
        <ele>264.0028238</ele>
        <time>2022-08-18T06:46:32Z</time>
      </trkpt>
      <trkpt lat="45.11727" lon="1.04165">
        <ele>264.2849509</ele>
        <time>2022-08-18T06:46:34Z</time>
      </trkpt>
      <trkpt lat="45.11732" lon="1.04164">
        <ele>264.4597967</ele>
        <time>2022-08-18T06:46:36Z</time>
      </trkpt>
      <trkpt lat="45.11737" lon="1.04163">
        <ele>264.2390016</ele>
        <time>2022-08-18T06:46:38Z</time>
      </trkpt>
      <trkpt lat="45.11742" lon="1.04161">
        <ele>264.4837082</ele>
        <time>2022-08-18T06:46:40Z</time>
      </trkpt>
      <trkpt lat="45.11747" lon="1.04158">
        <ele>264.6664463</ele>
        <time>2022-08-18T06:46:42Z</time>
      </trkpt>
      <trkpt lat="45.11751" lon="1.04154">
        <ele>264.5383579</ele>
        <time>2022-08-18T06:46:44Z</time>
      </trkpt>
      <trkpt lat="45.11755" lon="1.0415">
        <ele>264.5197154</ele>
        <time>2022-08-18T06:46:46Z</time>
      </trkpt>
      <trkpt lat="45.11759" lon="1.04145">
        <ele>264.7604717</ele>
        <time>2022-08-18T06:46:48Z</time>
      </trkpt>
      <trkpt lat="45.11763" lon="1.0414">
        <ele>264.8489264</ele>
        <time>2022-08-18T06:46:50Z</time>
      </trkpt>
      <trkpt lat="45.11767" lon="1.04135">
        <ele>264.9796605</ele>
        <time>2022-08-18T06:46:52Z</time>
      </trkpt>
      <trkpt lat="45.11771" lon="1.0413">
        <ele>264.8883858</ele>
        <time>2022-08-18T06:46:54Z</time>
      </trkpt>
      <trkpt lat="45.11775" lon="1.04125">
        <ele>264.9594987</ele>
        <time>2022-08-18T06:46:56Z</time>
      </trkpt>
      <trkpt lat="45.11779" lon="1.04119">
        <ele>265.1883129</ele>
        <time>2022-08-18T06:46:58Z</time>
      </trkpt>
      <trkpt lat="45.11783" lon="1.04112">
        <ele>265.3594896</ele>
        <time>2022-08-18T06:47:00Z</time>
      </trkpt>
      <trkpt lat="45.11788" lon="1.04106">
        <ele>265.1631252</ele>
        <time>2022-08-18T06:47:02Z</time>
      </trkpt>
      <trkpt lat="45.11792" lon="1.041">
        <ele>265.1901473</ele>
        <time>2022-08-18T06:47:04Z</time>
      </trkpt>
      <trkpt lat="45.11796" lon="1.04093">
        <ele>265.2653247</ele>
        <time>2022-08-18T06:47:06Z</time>
      </trkpt>
      <trkpt lat="45.11801" lon="1.04087">
        <ele>265.3245947</ele>
        <time>2022-08-18T06:47:08Z</time>
      </trkpt>
      <trkpt lat="45.11806" lon="1.0408">
        <ele>265.4489456</ele>
        <time>2022-08-18T06:47:10Z</time>
      </trkpt>
      <trkpt lat="45.11811" lon="1.04073">
        <ele>265.767401</ele>
        <time>2022-08-18T06:47:12Z</time>
      </trkpt>
      <trkpt lat="45.11816" lon="1.04066">
        <ele>265.6552876</ele>
        <time>2022-08-18T06:47:14Z</time>
      </trkpt>
      <trkpt lat="45.11821" lon="1.04059">
        <ele>266.0482966</ele>
        <time>2022-08-18T06:47:16Z</time>
      </trkpt>
      <trkpt lat="45.11826" lon="1.04052">
        <ele>266.173369</ele>
        <time>2022-08-18T06:47:18Z</time>
      </trkpt>
      <trkpt lat="45.1183" lon="1.04046">
        <ele>266.5792906</ele>
        <time>2022-08-18T06:47:20Z</time>
      </trkpt>
      <trkpt lat="45.11835" lon="1.04039">
        <ele>267.0354323</ele>
        <time>2022-08-18T06:47:22Z</time>
      </trkpt>
      <trkpt lat="45.1184" lon="1.04031">
        <ele>266.9262211</ele>
        <time>2022-08-18T06:47:24Z</time>
      </trkpt>
      <trkpt lat="45.11845" lon="1.04025">
        <ele>267.139024</ele>
        <time>2022-08-18T06:47:26Z</time>
      </trkpt>
      <trkpt lat="45.11851" lon="1.04016">
        <ele>267.1781561</ele>
        <time>2022-08-18T06:47:28Z</time>
      </trkpt>
      <trkpt lat="45.11856" lon="1.04009">
        <ele>267.4044655</ele>
        <time>2022-08-18T06:47:30Z</time>
      </trkpt>
      <trkpt lat="45.11861" lon="1.04001">
        <ele>267.4302469</ele>
        <time>2022-08-18T06:47:32Z</time>
      </trkpt>
      <trkpt lat="45.11865" lon="1.03994">
        <ele>267.629005</ele>
        <time>2022-08-18T06:47:34Z</time>
      </trkpt>
      <trkpt lat="45.11869" lon="1.03985">
        <ele>267.6800325</ele>
        <time>2022-08-18T06:47:36Z</time>
      </trkpt>
      <trkpt lat="45.11872" lon="1.03977">
        <ele>267.905102</ele>
        <time>2022-08-18T06:47:38Z</time>
      </trkpt>
      <trkpt lat="45.11875" lon="1.03967">
        <ele>267.7453173</ele>
        <time>2022-08-18T06:47:40Z</time>
      </trkpt>
      <trkpt lat="45.11878" lon="1.03957">
        <ele>268.0341733</ele>
        <time>2022-08-18T06:47:42Z</time>
      </trkpt>
      <trkpt lat="45.1188" lon="1.03947">
        <ele>268.3598434</ele>
        <time>2022-08-18T06:47:44Z</time>
      </trkpt>
      <trkpt lat="45.11881" lon="1.03938">
        <ele>268.5765669</ele>
        <time>2022-08-18T06:47:46Z</time>
      </trkpt>
      <trkpt lat="45.11883" lon="1.03928">
        <ele>268.6300759</ele>
        <time>2022-08-18T06:47:48Z</time>
      </trkpt>
      <trkpt lat="45.11884" lon="1.03918">
        <ele>268.5104451</ele>
        <time>2022-08-18T06:47:50Z</time>
      </trkpt>
      <trkpt lat="45.11884" lon="1.03908">
        <ele>268.6868724</ele>
        <time>2022-08-18T06:47:52Z</time>
      </trkpt>
      <trkpt lat="45.11885" lon="1.03899">
        <ele>268.8575259</ele>
        <time>2022-08-18T06:47:54Z</time>
      </trkpt>
      <trkpt lat="45.11885" lon="1.03889">
        <ele>269.056778</ele>
        <time>2022-08-18T06:47:56Z</time>
      </trkpt>
      <trkpt lat="45.11886" lon="1.03878">
        <ele>268.6394323</ele>
        <time>2022-08-18T06:47:58Z</time>
      </trkpt>
      <trkpt lat="45.11887" lon="1.03868">
        <ele>268.7819453</ele>
        <time>2022-08-18T06:48:00Z</time>
      </trkpt>
      <trkpt lat="45.11887" lon="1.03857">
        <ele>268.874028</ele>
        <time>2022-08-18T06:48:02Z</time>
      </trkpt>
      <trkpt lat="45.11888" lon="1.03847">
        <ele>269.2090238</ele>
        <time>2022-08-18T06:48:04Z</time>
      </trkpt>
      <trkpt lat="45.11888" lon="1.03837">
        <ele>269.2586367</ele>
        <time>2022-08-18T06:48:06Z</time>
      </trkpt>
      <trkpt lat="45.11889" lon="1.03826">
        <ele>269.3666979</ele>
        <time>2022-08-18T06:48:08Z</time>
      </trkpt>
      <trkpt lat="45.1189" lon="1.03816">
        <ele>269.6529815</ele>
        <time>2022-08-18T06:48:10Z</time>
      </trkpt>
      <trkpt lat="45.11891" lon="1.03805">
        <ele>270.270801</ele>
        <time>2022-08-18T06:48:12Z</time>
      </trkpt>
      <trkpt lat="45.11892" lon="1.03794">
        <ele>270.5412495</ele>
        <time>2022-08-18T06:48:14Z</time>
      </trkpt>
      <trkpt lat="45.11893" lon="1.03784">
        <ele>270.5266373</ele>
        <time>2022-08-18T06:48:16Z</time>
      </trkpt>
      <trkpt lat="45.11894" lon="1.03773">
        <ele>270.4942261</ele>
        <time>2022-08-18T06:48:18Z</time>
      </trkpt>
      <trkpt lat="45.11896" lon="1.03763">
        <ele>270.1313207</ele>
        <time>2022-08-18T06:48:20Z</time>
      </trkpt>
      <trkpt lat="45.11899" lon="1.03752">
        <ele>269.9862554</ele>
        <time>2022-08-18T06:48:22Z</time>
      </trkpt>
      <trkpt lat="45.11902" lon="1.03742">
        <ele>269.8387185</ele>
        <time>2022-08-18T06:48:24Z</time>
      </trkpt>
      <trkpt lat="45.11905" lon="1.03732">
        <ele>270.0698648</ele>
        <time>2022-08-18T06:48:26Z</time>
      </trkpt>
      <trkpt lat="45.11909" lon="1.03723">
        <ele>270.2072257</ele>
        <time>2022-08-18T06:48:28Z</time>
      </trkpt>
      <trkpt lat="45.11912" lon="1.03714">
        <ele>270.082702</ele>
        <time>2022-08-18T06:48:30Z</time>
      </trkpt>
      <trkpt lat="45.11916" lon="1.03704">
        <ele>270.2024628</ele>
        <time>2022-08-18T06:48:32Z</time>
      </trkpt>
      <trkpt lat="45.11921" lon="1.03694">
        <ele>270.110839</ele>
        <time>2022-08-18T06:48:34Z</time>
      </trkpt>
      <trkpt lat="45.11926" lon="1.03686">
        <ele>270.1164547</ele>
        <time>2022-08-18T06:48:36Z</time>
      </trkpt>
      <trkpt lat="45.11932" lon="1.03677">
        <ele>270.7698763</ele>
        <time>2022-08-18T06:48:38Z</time>
      </trkpt>
      <trkpt lat="45.11938" lon="1.03669">
        <ele>270.7872666</ele>
        <time>2022-08-18T06:48:40Z</time>
      </trkpt>
      <trkpt lat="45.11944" lon="1.03661">
        <ele>270.9756107</ele>
        <time>2022-08-18T06:48:42Z</time>
      </trkpt>
      <trkpt lat="45.11951" lon="1.03653">
        <ele>270.9211328</ele>
        <time>2022-08-18T06:48:44Z</time>
      </trkpt>
      <trkpt lat="45.11957" lon="1.03646">
        <ele>270.832641</ele>
        <time>2022-08-18T06:48:46Z</time>
      </trkpt>
      <trkpt lat="45.11964" lon="1.03639">
        <ele>270.4914692</ele>
        <time>2022-08-18T06:48:48Z</time>
      </trkpt>
      <trkpt lat="45.11971" lon="1.03631">
        <ele>271.2168</ele>
        <time>2022-08-18T06:48:50Z</time>
      </trkpt>
      <trkpt lat="45.11977" lon="1.03623">
        <ele>271.4795451</ele>
        <time>2022-08-18T06:48:52Z</time>
      </trkpt>
      <trkpt lat="45.11983" lon="1.03615">
        <ele>272.102449</ele>
        <time>2022-08-18T06:48:54Z</time>
      </trkpt>
      <trkpt lat="45.11988" lon="1.03606">
        <ele>272.042962</ele>
        <time>2022-08-18T06:48:56Z</time>
      </trkpt>
      <trkpt lat="45.11993" lon="1.03598">
        <ele>272.1805344</ele>
        <time>2022-08-18T06:48:58Z</time>
      </trkpt>
      <trkpt lat="45.11997" lon="1.03589">
        <ele>272.0545743</ele>
        <time>2022-08-18T06:49:00Z</time>
      </trkpt>
      <trkpt lat="45.12002" lon="1.03579">
        <ele>272.2686509</ele>
        <time>2022-08-18T06:49:02Z</time>
      </trkpt>
      <trkpt lat="45.12005" lon="1.0357">
        <ele>272.7051258</ele>
        <time>2022-08-18T06:49:04Z</time>
      </trkpt>
      <trkpt lat="45.12008" lon="1.03559">
        <ele>273.01543</ele>
        <time>2022-08-18T06:49:06Z</time>
      </trkpt>
      <trkpt lat="45.12012" lon="1.03549">
        <ele>272.9096749</ele>
        <time>2022-08-18T06:49:08Z</time>
      </trkpt>
      <trkpt lat="45.12016" lon="1.03539">
        <ele>273.351028</ele>
        <time>2022-08-18T06:49:10Z</time>
      </trkpt>
      <trkpt lat="45.1202" lon="1.03529">
        <ele>273.3578667</ele>
        <time>2022-08-18T06:49:12Z</time>
      </trkpt>
      <trkpt lat="45.12023" lon="1.03518">
        <ele>273.678574</ele>
        <time>2022-08-18T06:49:14Z</time>
      </trkpt>
      <trkpt lat="45.12027" lon="1.03507">
        <ele>273.0428453</ele>
        <time>2022-08-18T06:49:16Z</time>
      </trkpt>
      <trkpt lat="45.12031" lon="1.03496">
        <ele>273.5168109</ele>
        <time>2022-08-18T06:49:18Z</time>
      </trkpt>
      <trkpt lat="45.12035" lon="1.03485">
        <ele>273.305241</ele>
        <time>2022-08-18T06:49:20Z</time>
      </trkpt>
      <trkpt lat="45.12039" lon="1.03474">
        <ele>272.6883567</ele>
        <time>2022-08-18T06:49:22Z</time>
      </trkpt>
      <trkpt lat="45.12044" lon="1.03463">
        <ele>272.6277422</ele>
        <time>2022-08-18T06:49:24Z</time>
      </trkpt>
      <trkpt lat="45.12048" lon="1.03452">
        <ele>272.3163947</ele>
        <time>2022-08-18T06:49:26Z</time>
      </trkpt>
      <trkpt lat="45.12053" lon="1.0344">
        <ele>272.3566586</ele>
        <time>2022-08-18T06:49:28Z</time>
      </trkpt>
      <trkpt lat="45.12058" lon="1.03426">
        <ele>271.4464786</ele>
        <time>2022-08-18T06:49:30Z</time>
      </trkpt>
      <trkpt lat="45.12063" lon="1.03414">
        <ele>271.1059931</ele>
        <time>2022-08-18T06:49:32Z</time>
      </trkpt>
      <trkpt lat="45.12067" lon="1.034">
        <ele>270.4627723</ele>
        <time>2022-08-18T06:49:34Z</time>
      </trkpt>
      <trkpt lat="45.12073" lon="1.03387">
        <ele>269.8762185</ele>
        <time>2022-08-18T06:49:36Z</time>
      </trkpt>
      <trkpt lat="45.12078" lon="1.03373">
        <ele>269.7389425</ele>
        <time>2022-08-18T06:49:38Z</time>
      </trkpt>
      <trkpt lat="45.12084" lon="1.03358">
        <ele>269.3406175</ele>
        <time>2022-08-18T06:49:40Z</time>
      </trkpt>
      <trkpt lat="45.1209" lon="1.03342">
        <ele>268.4136915</ele>
        <time>2022-08-18T06:49:42Z</time>
      </trkpt>
      <trkpt lat="45.12098" lon="1.03327">
        <ele>267.2621525</ele>
        <time>2022-08-18T06:49:44Z</time>
      </trkpt>
      <trkpt lat="45.12106" lon="1.03314">
        <ele>266.2630212</ele>
        <time>2022-08-18T06:49:46Z</time>
      </trkpt>
      <trkpt lat="45.12114" lon="1.03302">
        <ele>266.1762327</ele>
        <time>2022-08-18T06:49:48Z</time>
      </trkpt>
      <trkpt lat="45.12123" lon="1.03289">
        <ele>266.1465046</ele>
        <time>2022-08-18T06:49:50Z</time>
      </trkpt>
      <trkpt lat="45.12132" lon="1.03277">
        <ele>265.8293288</ele>
        <time>2022-08-18T06:49:52Z</time>
      </trkpt>
      <trkpt lat="45.12143" lon="1.03265">
        <ele>267.3769856</ele>
        <time>2022-08-18T06:49:54Z</time>
      </trkpt>
      <trkpt lat="45.12154" lon="1.03256">
        <ele>267.1166854</ele>
        <time>2022-08-18T06:49:56Z</time>
      </trkpt>
      <trkpt lat="45.12167" lon="1.03247">
        <ele>265.7098084</ele>
        <time>2022-08-18T06:49:58Z</time>
      </trkpt>
      <trkpt lat="45.1218" lon="1.03242">
        <ele>265.5308301</ele>
        <time>2022-08-18T06:50:00Z</time>
      </trkpt>
      <trkpt lat="45.12195" lon="1.03239">
        <ele>264.9450686</ele>
        <time>2022-08-18T06:50:02Z</time>
      </trkpt>
      <trkpt lat="45.12208" lon="1.03239">
        <ele>264.906138</ele>
        <time>2022-08-18T06:50:04Z</time>
      </trkpt>
      <trkpt lat="45.12224" lon="1.03244">
        <ele>264.4974477</ele>
        <time>2022-08-18T06:50:06Z</time>
      </trkpt>
      <trkpt lat="45.12239" lon="1.03249">
        <ele>263.805783</ele>
        <time>2022-08-18T06:50:08Z</time>
      </trkpt>
      <trkpt lat="45.12253" lon="1.03253">
        <ele>263.8352976</ele>
        <time>2022-08-18T06:50:10Z</time>
      </trkpt>
      <trkpt lat="45.12268" lon="1.03258">
        <ele>263.8196226</ele>
        <time>2022-08-18T06:50:12Z</time>
      </trkpt>
      <trkpt lat="45.12282" lon="1.03261">
        <ele>263.6550001</ele>
        <time>2022-08-18T06:50:14Z</time>
      </trkpt>
      <trkpt lat="45.12296" lon="1.03265">
        <ele>263.8080304</ele>
        <time>2022-08-18T06:50:16Z</time>
      </trkpt>
      <trkpt lat="45.12309" lon="1.03268">
        <ele>263.556259</ele>
        <time>2022-08-18T06:50:18Z</time>
      </trkpt>
      <trkpt lat="45.12322" lon="1.03271">
        <ele>263.6131746</ele>
        <time>2022-08-18T06:50:20Z</time>
      </trkpt>
      <trkpt lat="45.12333" lon="1.03274">
        <ele>263.7426072</ele>
        <time>2022-08-18T06:50:22Z</time>
      </trkpt>
      <trkpt lat="45.12343" lon="1.03277">
        <ele>263.7188043</ele>
        <time>2022-08-18T06:50:24Z</time>
      </trkpt>
      <trkpt lat="45.12353" lon="1.03279">
        <ele>263.9758969</ele>
        <time>2022-08-18T06:50:26Z</time>
      </trkpt>
      <trkpt lat="45.12361" lon="1.03281">
        <ele>264.2860104</ele>
        <time>2022-08-18T06:50:28Z</time>
      </trkpt>
      <trkpt lat="45.12369" lon="1.03283">
        <ele>264.1118312</ele>
        <time>2022-08-18T06:50:30Z</time>
      </trkpt>
      <trkpt lat="45.12377" lon="1.03285">
        <ele>264.4585285</ele>
        <time>2022-08-18T06:50:32Z</time>
      </trkpt>
      <trkpt lat="45.12384" lon="1.03287">
        <ele>264.8675297</ele>
        <time>2022-08-18T06:50:34Z</time>
      </trkpt>
      <trkpt lat="45.12391" lon="1.03288">
        <ele>265.028251</ele>
        <time>2022-08-18T06:50:36Z</time>
      </trkpt>
      <trkpt lat="45.12397" lon="1.0329">
        <ele>264.8441341</ele>
        <time>2022-08-18T06:50:38Z</time>
      </trkpt>
      <trkpt lat="45.12404" lon="1.03292">
        <ele>265.8665008</ele>
        <time>2022-08-18T06:50:40Z</time>
      </trkpt>
      <trkpt lat="45.12409" lon="1.03293">
        <ele>266.1854799</ele>
        <time>2022-08-18T06:50:42Z</time>
      </trkpt>
      <trkpt lat="45.12415" lon="1.03294">
        <ele>266.1827258</ele>
        <time>2022-08-18T06:50:44Z</time>
      </trkpt>
      <trkpt lat="45.12421" lon="1.03296">
        <ele>266.9782627</ele>
        <time>2022-08-18T06:50:46Z</time>
      </trkpt>
      <trkpt lat="45.12426" lon="1.03299">
        <ele>267.8259447</ele>
        <time>2022-08-18T06:50:48Z</time>
      </trkpt>
      <trkpt lat="45.12433" lon="1.03299">
        <ele>267.4849491</ele>
        <time>2022-08-18T06:50:50Z</time>
      </trkpt>
      <trkpt lat="45.12437" lon="1.03301">
        <ele>268.8635294</ele>
        <time>2022-08-18T06:50:52Z</time>
      </trkpt>
      <trkpt lat="45.12443" lon="1.03302">
        <ele>269.2723843</ele>
        <time>2022-08-18T06:50:54Z</time>
      </trkpt>
      <trkpt lat="45.12447" lon="1.03302">
        <ele>270.1795306</ele>
        <time>2022-08-18T06:50:56Z</time>
      </trkpt>
      <trkpt lat="45.12453" lon="1.03304">
        <ele>270.0905633</ele>
        <time>2022-08-18T06:50:58Z</time>
      </trkpt>
      <trkpt lat="45.12458" lon="1.03305">
        <ele>270.2243283</ele>
        <time>2022-08-18T06:51:00Z</time>
      </trkpt>
      <trkpt lat="45.12464" lon="1.03306">
        <ele>269.2025732</ele>
        <time>2022-08-18T06:51:02Z</time>
      </trkpt>
      <trkpt lat="45.12471" lon="1.03308">
        <ele>270.1930666</ele>
        <time>2022-08-18T06:51:04Z</time>
      </trkpt>
      <trkpt lat="45.12477" lon="1.03309">
        <ele>269.8552095</ele>
        <time>2022-08-18T06:51:06Z</time>
      </trkpt>
      <trkpt lat="45.12484" lon="1.0331">
        <ele>268.8032391</ele>
        <time>2022-08-18T06:51:08Z</time>
      </trkpt>
      <trkpt lat="45.1249" lon="1.0331">
        <ele>268.6679419</ele>
        <time>2022-08-18T06:51:10Z</time>
      </trkpt>
      <trkpt lat="45.12496" lon="1.03311">
        <ele>268.6036753</ele>
        <time>2022-08-18T06:51:12Z</time>
      </trkpt>
      <trkpt lat="45.12501" lon="1.03311">
        <ele>269.224402</ele>
        <time>2022-08-18T06:51:14Z</time>
      </trkpt>
      <trkpt lat="45.12505" lon="1.03313">
        <ele>268.7169412</ele>
        <time>2022-08-18T06:51:16Z</time>
      </trkpt>
      <trkpt lat="45.12506" lon="1.03311">
        <ele>267.6416302</ele>
        <time>2022-08-18T06:51:18Z</time>
      </trkpt>
      <trkpt lat="45.12506" lon="1.03312">
        <ele>268.1449986</ele>
        <time>2022-08-18T06:51:20Z</time>
      </trkpt>
      <trkpt lat="45.12507" lon="1.03311">
        <ele>268.7630122</ele>
        <time>2022-08-18T06:51:22Z</time>
      </trkpt>
      <trkpt lat="45.12507" lon="1.03312">
        <ele>269.4907482</ele>
        <time>2022-08-18T06:51:24Z</time>
      </trkpt>
      <trkpt lat="45.12507" lon="1.03311">
        <ele>270.110248</ele>
        <time>2022-08-18T06:51:26Z</time>
      </trkpt>
      <trkpt lat="45.12507" lon="1.03311">
        <ele>271.13744</ele>
        <time>2022-08-18T06:51:28Z</time>
      </trkpt>
      <trkpt lat="45.12508" lon="1.03312">
        <ele>271.3564035</ele>
        <time>2022-08-18T06:51:30Z</time>
      </trkpt>
      <trkpt lat="45.12509" lon="1.03313">
        <ele>271.6810537</ele>
        <time>2022-08-18T06:51:32Z</time>
      </trkpt>
      <trkpt lat="45.1251" lon="1.03312">
        <ele>271.7978984</ele>
        <time>2022-08-18T06:51:34Z</time>
      </trkpt>
      <trkpt lat="45.12511" lon="1.03311">
        <ele>272.0824493</ele>
        <time>2022-08-18T06:51:36Z</time>
      </trkpt>
      <trkpt lat="45.1251" lon="1.0331">
        <ele>272.6203428</ele>
        <time>2022-08-18T06:51:38Z</time>
      </trkpt>
      <trkpt lat="45.12511" lon="1.03309">
        <ele>273.1081461</ele>
        <time>2022-08-18T06:51:40Z</time>
      </trkpt>
      <trkpt lat="45.12511" lon="1.03309">
        <ele>273.6636219</ele>
        <time>2022-08-18T06:51:42Z</time>
      </trkpt>
      <trkpt lat="45.12512" lon="1.03309">
        <ele>273.8067037</ele>
        <time>2022-08-18T06:51:44Z</time>
      </trkpt>
      <trkpt lat="45.12512" lon="1.03309">
        <ele>273.5247763</ele>
        <time>2022-08-18T06:51:46Z</time>
      </trkpt>
      <trkpt lat="45.12513" lon="1.0331">
        <ele>273.7144474</ele>
        <time>2022-08-18T06:51:48Z</time>
      </trkpt>
      <trkpt lat="45.12512" lon="1.0331">
        <ele>274.1132435</ele>
        <time>2022-08-18T06:51:50Z</time>
      </trkpt>
      <trkpt lat="45.12512" lon="1.0331">
        <ele>273.186523</ele>
        <time>2022-08-18T06:51:52Z</time>
      </trkpt>
      <trkpt lat="45.12513" lon="1.03309">
        <ele>273.6669661</ele>
        <time>2022-08-18T06:51:54Z</time>
      </trkpt>
      <trkpt lat="45.12514" lon="1.0331">
        <ele>274.9715878</ele>
        <time>2022-08-18T06:51:56Z</time>
      </trkpt>
      <trkpt lat="45.12515" lon="1.0331">
        <ele>275.4076455</ele>
        <time>2022-08-18T06:51:58Z</time>
      </trkpt>
      <trkpt lat="45.12516" lon="1.0331">
        <ele>275.6475438</ele>
        <time>2022-08-18T06:52:00Z</time>
      </trkpt>
      <trkpt lat="45.12516" lon="1.03311">
        <ele>275.9532433</ele>
        <time>2022-08-18T06:52:02Z</time>
      </trkpt>
      <trkpt lat="45.12516" lon="1.0331">
        <ele>276.6126697</ele>
        <time>2022-08-18T06:52:04Z</time>
      </trkpt>
      <trkpt lat="45.12516" lon="1.0331">
        <ele>276.5771168</ele>
        <time>2022-08-18T06:52:06Z</time>
      </trkpt>
      <trkpt lat="45.12515" lon="1.03309">
        <ele>276.787369</ele>
        <time>2022-08-18T06:52:08Z</time>
      </trkpt>
      <trkpt lat="45.12516" lon="1.03309">
        <ele>277.011345</ele>
        <time>2022-08-18T06:52:10Z</time>
      </trkpt>
      <trkpt lat="45.12516" lon="1.03309">
        <ele>276.9876362</ele>
        <time>2022-08-18T06:52:12Z</time>
      </trkpt>
      <trkpt lat="45.12516" lon="1.03309">
        <ele>277.1667293</ele>
        <time>2022-08-18T06:52:14Z</time>
      </trkpt>
      <trkpt lat="45.12516" lon="1.03309">
        <ele>277.1774694</ele>
        <time>2022-08-18T06:52:16Z</time>
      </trkpt>
      <trkpt lat="45.12517" lon="1.03309">
        <ele>277.0531689</ele>
        <time>2022-08-18T06:52:18Z</time>
      </trkpt>
      <trkpt lat="45.12517" lon="1.0331">
        <ele>276.9737475</ele>
        <time>2022-08-18T06:52:20Z</time>
      </trkpt>
      <trkpt lat="45.12516" lon="1.03309">
        <ele>276.4776397</ele>
        <time>2022-08-18T06:52:22Z</time>
      </trkpt>
      <trkpt lat="45.12516" lon="1.03309">
        <ele>276.829427</ele>
        <time>2022-08-18T06:52:24Z</time>
      </trkpt>
      <trkpt lat="45.12518" lon="1.03308">
        <ele>276.8715059</ele>
        <time>2022-08-18T06:52:26Z</time>
      </trkpt>
      <trkpt lat="45.1252" lon="1.03307">
        <ele>276.5481593</ele>
        <time>2022-08-18T06:52:28Z</time>
      </trkpt>
      <trkpt lat="45.12526" lon="1.03308">
        <ele>277.0104591</ele>
        <time>2022-08-18T06:52:30Z</time>
      </trkpt>
      <trkpt lat="45.12532" lon="1.03308">
        <ele>277.8408762</ele>
        <time>2022-08-18T06:52:32Z</time>
      </trkpt>
      <trkpt lat="45.12538" lon="1.0331">
        <ele>276.9833477</ele>
        <time>2022-08-18T06:52:34Z</time>
      </trkpt>
      <trkpt lat="45.12546" lon="1.03309">
        <ele>276.8487582</ele>
        <time>2022-08-18T06:52:36Z</time>
      </trkpt>
      <trkpt lat="45.12554" lon="1.03309">
        <ele>277.4308966</ele>
        <time>2022-08-18T06:52:38Z</time>
      </trkpt>
      <trkpt lat="45.1256" lon="1.03308">
        <ele>276.9553505</ele>
        <time>2022-08-18T06:52:40Z</time>
      </trkpt>
      <trkpt lat="45.12568" lon="1.03308">
        <ele>276.7106832</ele>
        <time>2022-08-18T06:52:42Z</time>
      </trkpt>
      <trkpt lat="45.12574" lon="1.03308">
        <ele>276.3484099</ele>
        <time>2022-08-18T06:52:44Z</time>
      </trkpt>
      <trkpt lat="45.12582" lon="1.03308">
        <ele>276.1729409</ele>
        <time>2022-08-18T06:52:46Z</time>
      </trkpt>
      <trkpt lat="45.1259" lon="1.03308">
        <ele>275.0756058</ele>
        <time>2022-08-18T06:52:48Z</time>
      </trkpt>
      <trkpt lat="45.12597" lon="1.03307">
        <ele>274.7439046</ele>
        <time>2022-08-18T06:52:50Z</time>
      </trkpt>
      <trkpt lat="45.12604" lon="1.03307">
        <ele>275.0108688</ele>
        <time>2022-08-18T06:52:52Z</time>
      </trkpt>
      <trkpt lat="45.12612" lon="1.03306">
        <ele>275.7581603</ele>
        <time>2022-08-18T06:52:54Z</time>
      </trkpt>
      <trkpt lat="45.12619" lon="1.03307">
        <ele>275.921932</ele>
        <time>2022-08-18T06:52:56Z</time>
      </trkpt>
      <trkpt lat="45.12626" lon="1.03306">
        <ele>276.2539557</ele>
        <time>2022-08-18T06:52:58Z</time>
      </trkpt>
      <trkpt lat="45.12632" lon="1.03305">
        <ele>276.7940479</ele>
        <time>2022-08-18T06:53:00Z</time>
      </trkpt>
      <trkpt lat="45.12638" lon="1.03304">
        <ele>276.8312101</ele>
        <time>2022-08-18T06:53:02Z</time>
      </trkpt>
      <trkpt lat="45.12644" lon="1.03304">
        <ele>276.9125941</ele>
        <time>2022-08-18T06:53:04Z</time>
      </trkpt>
      <trkpt lat="45.12651" lon="1.03304">
        <ele>276.5749571</ele>
        <time>2022-08-18T06:53:06Z</time>
      </trkpt>
      <trkpt lat="45.12657" lon="1.03303">
        <ele>277.347368</ele>
        <time>2022-08-18T06:53:08Z</time>
      </trkpt>
      <trkpt lat="45.12665" lon="1.03304">
        <ele>275.9837579</ele>
        <time>2022-08-18T06:53:10Z</time>
      </trkpt>
      <trkpt lat="45.12671" lon="1.03305">
        <ele>274.8597072</ele>
        <time>2022-08-18T06:53:12Z</time>
      </trkpt>
      <trkpt lat="45.12679" lon="1.03305">
        <ele>273.1721649</ele>
        <time>2022-08-18T06:53:14Z</time>
      </trkpt>
      <trkpt lat="45.12686" lon="1.03305">
        <ele>272.0744499</ele>
        <time>2022-08-18T06:53:16Z</time>
      </trkpt>
      <trkpt lat="45.12694" lon="1.03305">
        <ele>271.6440597</ele>
        <time>2022-08-18T06:53:18Z</time>
      </trkpt>
      <trkpt lat="45.127" lon="1.03304">
        <ele>270.7638061</ele>
        <time>2022-08-18T06:53:20Z</time>
      </trkpt>
      <trkpt lat="45.12706" lon="1.03304">
        <ele>270.6285475</ele>
        <time>2022-08-18T06:53:22Z</time>
      </trkpt>
      <trkpt lat="45.12713" lon="1.03304">
        <ele>270.9628008</ele>
        <time>2022-08-18T06:53:24Z</time>
      </trkpt>
      <trkpt lat="45.12719" lon="1.03304">
        <ele>270.2437001</ele>
        <time>2022-08-18T06:53:26Z</time>
      </trkpt>
      <trkpt lat="45.12725" lon="1.03303">
        <ele>270.5027384</ele>
        <time>2022-08-18T06:53:28Z</time>
      </trkpt>
      <trkpt lat="45.12732" lon="1.03301">
        <ele>270.2894907</ele>
        <time>2022-08-18T06:53:30Z</time>
      </trkpt>
      <trkpt lat="45.12739" lon="1.033">
        <ele>270.278219</ele>
        <time>2022-08-18T06:53:32Z</time>
      </trkpt>
      <trkpt lat="45.12746" lon="1.03298">
        <ele>270.6409833</ele>
        <time>2022-08-18T06:53:34Z</time>
      </trkpt>
      <trkpt lat="45.12752" lon="1.03295">
        <ele>270.7938671</ele>
        <time>2022-08-18T06:53:36Z</time>
      </trkpt>
      <trkpt lat="45.12758" lon="1.03292">
        <ele>270.9435695</ele>
        <time>2022-08-18T06:53:38Z</time>
      </trkpt>
      <trkpt lat="45.12764" lon="1.0329">
        <ele>271.4343211</ele>
        <time>2022-08-18T06:53:40Z</time>
      </trkpt>
      <trkpt lat="45.1277" lon="1.03287">
        <ele>271.2821973</ele>
        <time>2022-08-18T06:53:42Z</time>
      </trkpt>
      <trkpt lat="45.12777" lon="1.03285">
        <ele>271.3976571</ele>
        <time>2022-08-18T06:53:44Z</time>
      </trkpt>
      <trkpt lat="45.12783" lon="1.03282">
        <ele>271.9524989</ele>
        <time>2022-08-18T06:53:46Z</time>
      </trkpt>
      <trkpt lat="45.1279" lon="1.03279">
        <ele>271.868348</ele>
        <time>2022-08-18T06:53:48Z</time>
      </trkpt>
      <trkpt lat="45.12797" lon="1.03276">
        <ele>271.1470706</ele>
        <time>2022-08-18T06:53:50Z</time>
      </trkpt>
      <trkpt lat="45.12803" lon="1.03272">
        <ele>271.4290972</ele>
        <time>2022-08-18T06:53:52Z</time>
      </trkpt>
      <trkpt lat="45.1281" lon="1.03269">
        <ele>271.3883543</ele>
        <time>2022-08-18T06:53:54Z</time>
      </trkpt>
      <trkpt lat="45.12816" lon="1.03266">
        <ele>270.996645</ele>
        <time>2022-08-18T06:53:56Z</time>
      </trkpt>
      <trkpt lat="45.12824" lon="1.03263">
        <ele>270.9625234</ele>
        <time>2022-08-18T06:53:58Z</time>
      </trkpt>
      <trkpt lat="45.12831" lon="1.0326">
        <ele>271.2942195</ele>
        <time>2022-08-18T06:54:00Z</time>
      </trkpt>
      <trkpt lat="45.12838" lon="1.03257">
        <ele>271.0504045</ele>
        <time>2022-08-18T06:54:02Z</time>
      </trkpt>
      <trkpt lat="45.12846" lon="1.03254">
        <ele>271.0867577</ele>
        <time>2022-08-18T06:54:04Z</time>
      </trkpt>
      <trkpt lat="45.12855" lon="1.0325">
        <ele>271.4361981</ele>
        <time>2022-08-18T06:54:06Z</time>
      </trkpt>
      <trkpt lat="45.12864" lon="1.03246">
        <ele>271.7739075</ele>
        <time>2022-08-18T06:54:08Z</time>
      </trkpt>
      <trkpt lat="45.12873" lon="1.03241">
        <ele>271.511545</ele>
        <time>2022-08-18T06:54:10Z</time>
      </trkpt>
      <trkpt lat="45.12883" lon="1.03236">
        <ele>271.216655</ele>
        <time>2022-08-18T06:54:12Z</time>
      </trkpt>
      <trkpt lat="45.12893" lon="1.03233">
        <ele>271.3896692</ele>
        <time>2022-08-18T06:54:14Z</time>
      </trkpt>
      <trkpt lat="45.12902" lon="1.03229">
        <ele>271.3729245</ele>
        <time>2022-08-18T06:54:16Z</time>
      </trkpt>
      <trkpt lat="45.12912" lon="1.03225">
        <ele>271.4571694</ele>
        <time>2022-08-18T06:54:18Z</time>
      </trkpt>
      <trkpt lat="45.12921" lon="1.0322">
        <ele>271.3506775</ele>
        <time>2022-08-18T06:54:20Z</time>
      </trkpt>
      <trkpt lat="45.12931" lon="1.03216">
        <ele>271.3857208</ele>
        <time>2022-08-18T06:54:22Z</time>
      </trkpt>
      <trkpt lat="45.1294" lon="1.03213">
        <ele>270.6410152</ele>
        <time>2022-08-18T06:54:24Z</time>
      </trkpt>
      <trkpt lat="45.12951" lon="1.03212">
        <ele>270.8554853</ele>
        <time>2022-08-18T06:54:26Z</time>
      </trkpt>
      <trkpt lat="45.12962" lon="1.03213">
        <ele>270.692777</ele>
        <time>2022-08-18T06:54:28Z</time>
      </trkpt>
      <trkpt lat="45.12972" lon="1.03212">
        <ele>269.9912353</ele>
        <time>2022-08-18T06:54:30Z</time>
      </trkpt>
      <trkpt lat="45.12984" lon="1.03212">
        <ele>269.9662727</ele>
        <time>2022-08-18T06:54:32Z</time>
      </trkpt>
      <trkpt lat="45.12996" lon="1.03213">
        <ele>268.9916191</ele>
        <time>2022-08-18T06:54:34Z</time>
      </trkpt>
      <trkpt lat="45.13009" lon="1.03218">
        <ele>267.6022816</ele>
        <time>2022-08-18T06:54:36Z</time>
      </trkpt>
      <trkpt lat="45.1302" lon="1.03224">
        <ele>266.6603215</ele>
        <time>2022-08-18T06:54:38Z</time>
      </trkpt>
      <trkpt lat="45.1303" lon="1.03234">
        <ele>265.5429673</ele>
        <time>2022-08-18T06:54:40Z</time>
      </trkpt>
      <trkpt lat="45.13038" lon="1.03247">
        <ele>265.2391021</ele>
        <time>2022-08-18T06:54:42Z</time>
      </trkpt>
      <trkpt lat="45.13042" lon="1.03261">
        <ele>265.7733365</ele>
        <time>2022-08-18T06:54:44Z</time>
      </trkpt>
      <trkpt lat="45.13044" lon="1.03276">
        <ele>266.2424775</ele>
        <time>2022-08-18T06:54:46Z</time>
      </trkpt>
      <trkpt lat="45.13044" lon="1.03292">
        <ele>266.8375506</ele>
        <time>2022-08-18T06:54:48Z</time>
      </trkpt>
      <trkpt lat="45.13047" lon="1.03306">
        <ele>267.3595422</ele>
        <time>2022-08-18T06:54:50Z</time>
      </trkpt>
      <trkpt lat="45.13052" lon="1.0332">
        <ele>266.9890811</ele>
        <time>2022-08-18T06:54:52Z</time>
      </trkpt>
      <trkpt lat="45.1306" lon="1.03332">
        <ele>265.6437113</ele>
        <time>2022-08-18T06:54:54Z</time>
      </trkpt>
      <trkpt lat="45.13068" lon="1.03344">
        <ele>265.7674513</ele>
        <time>2022-08-18T06:54:56Z</time>
      </trkpt>
      <trkpt lat="45.13077" lon="1.03356">
        <ele>265.5270638</ele>
        <time>2022-08-18T06:54:58Z</time>
      </trkpt>
      <trkpt lat="45.13087" lon="1.03366">
        <ele>265.2065606</ele>
        <time>2022-08-18T06:55:00Z</time>
      </trkpt>
      <trkpt lat="45.13096" lon="1.03378">
        <ele>264.5980111</ele>
        <time>2022-08-18T06:55:02Z</time>
      </trkpt>
      <trkpt lat="45.13103" lon="1.03393">
        <ele>264.1525072</ele>
        <time>2022-08-18T06:55:04Z</time>
      </trkpt>
      <trkpt lat="45.13107" lon="1.0341">
        <ele>264.1775227</ele>
        <time>2022-08-18T06:55:06Z</time>
      </trkpt>
      <trkpt lat="45.13109" lon="1.03427">
        <ele>264.071125</ele>
        <time>2022-08-18T06:55:08Z</time>
      </trkpt>
      <trkpt lat="45.1311" lon="1.03445">
        <ele>262.4810822</ele>
        <time>2022-08-18T06:55:10Z</time>
      </trkpt>
      <trkpt lat="45.13108" lon="1.03463">
        <ele>263.3594207</ele>
        <time>2022-08-18T06:55:12Z</time>
      </trkpt>
      <trkpt lat="45.13103" lon="1.03479">
        <ele>262.7892153</ele>
        <time>2022-08-18T06:55:14Z</time>
      </trkpt>
      <trkpt lat="45.13098" lon="1.03495">
        <ele>262.9478741</ele>
        <time>2022-08-18T06:55:16Z</time>
      </trkpt>
      <trkpt lat="45.13092" lon="1.03511">
        <ele>262.5215853</ele>
        <time>2022-08-18T06:55:18Z</time>
      </trkpt>
      <trkpt lat="45.13085" lon="1.03527">
        <ele>262.9781259</ele>
        <time>2022-08-18T06:55:20Z</time>
      </trkpt>
      <trkpt lat="45.13079" lon="1.03541">
        <ele>262.0143891</ele>
        <time>2022-08-18T06:55:22Z</time>
      </trkpt>
      <trkpt lat="45.13075" lon="1.03557">
        <ele>261.8486039</ele>
        <time>2022-08-18T06:55:24Z</time>
      </trkpt>
      <trkpt lat="45.13072" lon="1.03574">
        <ele>262.2886095</ele>
        <time>2022-08-18T06:55:26Z</time>
      </trkpt>
      <trkpt lat="45.13072" lon="1.03591">
        <ele>262.5648926</ele>
        <time>2022-08-18T06:55:28Z</time>
      </trkpt>
      <trkpt lat="45.13074" lon="1.03608">
        <ele>261.8359148</ele>
        <time>2022-08-18T06:55:30Z</time>
      </trkpt>
      <trkpt lat="45.1308" lon="1.03623">
        <ele>263.9873919</ele>
        <time>2022-08-18T06:55:32Z</time>
      </trkpt>
      <trkpt lat="45.13087" lon="1.03635">
        <ele>263.8388173</ele>
        <time>2022-08-18T06:55:34Z</time>
      </trkpt>
      <trkpt lat="45.13097" lon="1.03647">
        <ele>263.9181578</ele>
        <time>2022-08-18T06:55:36Z</time>
      </trkpt>
      <trkpt lat="45.13107" lon="1.03655">
        <ele>263.1751619</ele>
        <time>2022-08-18T06:55:38Z</time>
      </trkpt>
      <trkpt lat="45.13119" lon="1.03661">
        <ele>262.5735367</ele>
        <time>2022-08-18T06:55:40Z</time>
      </trkpt>
      <trkpt lat="45.1313" lon="1.03668">
        <ele>262.1407582</ele>
        <time>2022-08-18T06:55:42Z</time>
      </trkpt>
      <trkpt lat="45.13141" lon="1.03676">
        <ele>261.9897826</ele>
        <time>2022-08-18T06:55:44Z</time>
      </trkpt>
      <trkpt lat="45.13152" lon="1.03687">
        <ele>261.8357537</ele>
        <time>2022-08-18T06:55:46Z</time>
      </trkpt>
      <trkpt lat="45.13162" lon="1.03697">
        <ele>261.5592163</ele>
        <time>2022-08-18T06:55:48Z</time>
      </trkpt>
      <trkpt lat="45.13172" lon="1.03709">
        <ele>261.2863586</ele>
        <time>2022-08-18T06:55:50Z</time>
      </trkpt>
      <trkpt lat="45.13182" lon="1.03719">
        <ele>261.1418054</ele>
        <time>2022-08-18T06:55:52Z</time>
      </trkpt>
      <trkpt lat="45.13192" lon="1.0373">
        <ele>261.1457849</ele>
        <time>2022-08-18T06:55:54Z</time>
      </trkpt>
      <trkpt lat="45.13202" lon="1.03739">
        <ele>260.966503</ele>
        <time>2022-08-18T06:55:56Z</time>
      </trkpt>
      <trkpt lat="45.13212" lon="1.03747">
        <ele>260.9976807</ele>
        <time>2022-08-18T06:55:58Z</time>
      </trkpt>
      <trkpt lat="45.13223" lon="1.03753">
        <ele>260.9651335</ele>
        <time>2022-08-18T06:56:00Z</time>
      </trkpt>
      <trkpt lat="45.13235" lon="1.03754">
        <ele>260.5536815</ele>
        <time>2022-08-18T06:56:02Z</time>
      </trkpt>
      <trkpt lat="45.13247" lon="1.03753">
        <ele>259.5301863</ele>
        <time>2022-08-18T06:56:04Z</time>
      </trkpt>
      <trkpt lat="45.13257" lon="1.03749">
        <ele>259.7069402</ele>
        <time>2022-08-18T06:56:06Z</time>
      </trkpt>
      <trkpt lat="45.13268" lon="1.03743">
        <ele>259.146482</ele>
        <time>2022-08-18T06:56:08Z</time>
      </trkpt>
      <trkpt lat="45.13279" lon="1.03738">
        <ele>259.3873264</ele>
        <time>2022-08-18T06:56:10Z</time>
      </trkpt>
      <trkpt lat="45.13291" lon="1.03735">
        <ele>259.8541955</ele>
        <time>2022-08-18T06:56:12Z</time>
      </trkpt>
      <trkpt lat="45.13303" lon="1.03736">
        <ele>258.7961478</ele>
        <time>2022-08-18T06:56:14Z</time>
      </trkpt>
      <trkpt lat="45.13315" lon="1.03739">
        <ele>259.1725197</ele>
        <time>2022-08-18T06:56:16Z</time>
      </trkpt>
      <trkpt lat="45.13327" lon="1.03744">
        <ele>258.8033395</ele>
        <time>2022-08-18T06:56:18Z</time>
      </trkpt>
      <trkpt lat="45.13337" lon="1.0375">
        <ele>259.9624652</ele>
        <time>2022-08-18T06:56:20Z</time>
      </trkpt>
      <trkpt lat="45.13348" lon="1.03758">
        <ele>258.7476851</ele>
        <time>2022-08-18T06:56:22Z</time>
      </trkpt>
      <trkpt lat="45.13358" lon="1.03767">
        <ele>257.6206869</ele>
        <time>2022-08-18T06:56:24Z</time>
      </trkpt>
      <trkpt lat="45.13368" lon="1.03777">
        <ele>257.7075635</ele>
        <time>2022-08-18T06:56:26Z</time>
      </trkpt>
      <trkpt lat="45.13377" lon="1.0379">
        <ele>257.6733489</ele>
        <time>2022-08-18T06:56:28Z</time>
      </trkpt>
      <trkpt lat="45.13385" lon="1.03802">
        <ele>256.5393151</ele>
        <time>2022-08-18T06:56:30Z</time>
      </trkpt>
      <trkpt lat="45.13394" lon="1.03813">
        <ele>257.0354621</ele>
        <time>2022-08-18T06:56:32Z</time>
      </trkpt>
      <trkpt lat="45.13403" lon="1.03826">
        <ele>256.0945633</ele>
        <time>2022-08-18T06:56:34Z</time>
      </trkpt>
      <trkpt lat="45.13412" lon="1.03837">
        <ele>256.1113524</ele>
        <time>2022-08-18T06:56:36Z</time>
      </trkpt>
      <trkpt lat="45.13421" lon="1.03844">
        <ele>256.3397845</ele>
        <time>2022-08-18T06:56:38Z</time>
      </trkpt>
      <trkpt lat="45.1343" lon="1.03846">
        <ele>256.3711274</ele>
        <time>2022-08-18T06:56:40Z</time>
      </trkpt>
      <trkpt lat="45.13436" lon="1.03843">
        <ele>257.3608864</ele>
        <time>2022-08-18T06:56:42Z</time>
      </trkpt>
      <trkpt lat="45.13437" lon="1.03839">
        <ele>257.498652</ele>
        <time>2022-08-18T06:56:44Z</time>
      </trkpt>
      <trkpt lat="45.13436" lon="1.03839">
        <ele>257.1491633</ele>
        <time>2022-08-18T06:56:46Z</time>
      </trkpt>
      <trkpt lat="45.13436" lon="1.03839">
        <ele>257.4292927</ele>
        <time>2022-08-18T06:56:48Z</time>
      </trkpt>
      <trkpt lat="45.13436" lon="1.03838">
        <ele>256.7501554</ele>
        <time>2022-08-18T06:56:50Z</time>
      </trkpt>
      <trkpt lat="45.13437" lon="1.03838">
        <ele>257.1698852</ele>
        <time>2022-08-18T06:56:52Z</time>
      </trkpt>
      <trkpt lat="45.13438" lon="1.03839">
        <ele>257.5238991</ele>
        <time>2022-08-18T06:56:54Z</time>
      </trkpt>
      <trkpt lat="45.13438" lon="1.03839">
        <ele>257.7221431</ele>
        <time>2022-08-18T06:56:56Z</time>
      </trkpt>
      <trkpt lat="45.13438" lon="1.03839">
        <ele>257.9149972</ele>
        <time>2022-08-18T06:56:58Z</time>
      </trkpt>
      <trkpt lat="45.13439" lon="1.03838">
        <ele>258.2847458</ele>
        <time>2022-08-18T06:57:00Z</time>
      </trkpt>
      <trkpt lat="45.13439" lon="1.03837">
        <ele>258.5067178</ele>
        <time>2022-08-18T06:57:02Z</time>
      </trkpt>
      <trkpt lat="45.13437" lon="1.03839">
        <ele>258.3007098</ele>
        <time>2022-08-18T06:57:04Z</time>
      </trkpt>
      <trkpt lat="45.13437" lon="1.03838">
        <ele>258.1534547</ele>
        <time>2022-08-18T06:57:06Z</time>
      </trkpt>
      <trkpt lat="45.13437" lon="1.03839">
        <ele>257.9613316</ele>
        <time>2022-08-18T06:57:08Z</time>
      </trkpt>
      <trkpt lat="45.13436" lon="1.03839">
        <ele>257.130441</ele>
        <time>2022-08-18T06:57:10Z</time>
      </trkpt>
      <trkpt lat="45.13436" lon="1.03839">
        <ele>256.7647332</ele>
        <time>2022-08-18T06:57:12Z</time>
      </trkpt>
      <trkpt lat="45.13435" lon="1.0384">
        <ele>256.0705367</ele>
        <time>2022-08-18T06:57:14Z</time>
      </trkpt>
      <trkpt lat="45.13435" lon="1.0384">
        <ele>256.2547527</ele>
        <time>2022-08-18T06:57:16Z</time>
      </trkpt>
      <trkpt lat="45.13435" lon="1.0384">
        <ele>256.360407</ele>
        <time>2022-08-18T06:57:18Z</time>
      </trkpt>
      <trkpt lat="45.13438" lon="1.03836">
        <ele>256.4461561</ele>
        <time>2022-08-18T06:57:20Z</time>
      </trkpt>
      <trkpt lat="45.13441" lon="1.03826">
        <ele>256.1715104</ele>
        <time>2022-08-18T06:57:22Z</time>
      </trkpt>
      <trkpt lat="45.13439" lon="1.03814">
        <ele>255.9895827</ele>
        <time>2022-08-18T06:57:24Z</time>
      </trkpt>
      <trkpt lat="45.13436" lon="1.03803">
        <ele>256.2840206</ele>
        <time>2022-08-18T06:57:26Z</time>
      </trkpt>
      <trkpt lat="45.13434" lon="1.03793">
        <ele>256.1585894</ele>
        <time>2022-08-18T06:57:28Z</time>
      </trkpt>
      <trkpt lat="45.13432" lon="1.03782">
        <ele>256.6974257</ele>
        <time>2022-08-18T06:57:30Z</time>
      </trkpt>
      <trkpt lat="45.13431" lon="1.0377">
        <ele>257.1192092</ele>
        <time>2022-08-18T06:57:32Z</time>
      </trkpt>
      <trkpt lat="45.1343" lon="1.03759">
        <ele>257.7958459</ele>
        <time>2022-08-18T06:57:34Z</time>
      </trkpt>
      <trkpt lat="45.13429" lon="1.03748">
        <ele>258.0509793</ele>
        <time>2022-08-18T06:57:36Z</time>
      </trkpt>
      <trkpt lat="45.13429" lon="1.03737">
        <ele>258.0804723</ele>
        <time>2022-08-18T06:57:38Z</time>
      </trkpt>
      <trkpt lat="45.13429" lon="1.03726">
        <ele>258.2957111</ele>
        <time>2022-08-18T06:57:40Z</time>
      </trkpt>
      <trkpt lat="45.1343" lon="1.03714">
        <ele>258.7322382</ele>
        <time>2022-08-18T06:57:42Z</time>
      </trkpt>
      <trkpt lat="45.1343" lon="1.03704">
        <ele>258.7275593</ele>
        <time>2022-08-18T06:57:44Z</time>
      </trkpt>
      <trkpt lat="45.13432" lon="1.03693">
        <ele>258.6631473</ele>
        <time>2022-08-18T06:57:46Z</time>
      </trkpt>
      <trkpt lat="45.13433" lon="1.03682">
        <ele>258.9879166</ele>
        <time>2022-08-18T06:57:48Z</time>
      </trkpt>
      <trkpt lat="45.13435" lon="1.03671">
        <ele>259.1758221</ele>
        <time>2022-08-18T06:57:50Z</time>
      </trkpt>
      <trkpt lat="45.13438" lon="1.0366">
        <ele>259.3525118</ele>
        <time>2022-08-18T06:57:52Z</time>
      </trkpt>
      <trkpt lat="45.13441" lon="1.0365">
        <ele>259.1197816</ele>
        <time>2022-08-18T06:57:54Z</time>
      </trkpt>
      <trkpt lat="45.13444" lon="1.0364">
        <ele>259.5435661</ele>
        <time>2022-08-18T06:57:56Z</time>
      </trkpt>
      <trkpt lat="45.13448" lon="1.0363">
        <ele>259.751533</ele>
        <time>2022-08-18T06:57:58Z</time>
      </trkpt>
      <trkpt lat="45.13452" lon="1.03621">
        <ele>260.1989711</ele>
        <time>2022-08-18T06:58:00Z</time>
      </trkpt>
      <trkpt lat="45.13456" lon="1.03611">
        <ele>259.8460425</ele>
        <time>2022-08-18T06:58:02Z</time>
      </trkpt>
      <trkpt lat="45.1346" lon="1.03602">
        <ele>260.3071955</ele>
        <time>2022-08-18T06:58:04Z</time>
      </trkpt>
      <trkpt lat="45.13465" lon="1.03593">
        <ele>260.2917719</ele>
        <time>2022-08-18T06:58:06Z</time>
      </trkpt>
      <trkpt lat="45.1347" lon="1.03583">
        <ele>260.7479414</ele>
        <time>2022-08-18T06:58:08Z</time>
      </trkpt>
      <trkpt lat="45.13474" lon="1.03574">
        <ele>261.0413053</ele>
        <time>2022-08-18T06:58:10Z</time>
      </trkpt>
      <trkpt lat="45.1348" lon="1.03564">
        <ele>262.2941127</ele>
        <time>2022-08-18T06:58:12Z</time>
      </trkpt>
      <trkpt lat="45.13484" lon="1.03555">
        <ele>261.2633764</ele>
        <time>2022-08-18T06:58:14Z</time>
      </trkpt>
      <trkpt lat="45.13489" lon="1.03547">
        <ele>261.2033201</ele>
        <time>2022-08-18T06:58:16Z</time>
      </trkpt>
      <trkpt lat="45.13495" lon="1.03541">
        <ele>260.5548448</ele>
        <time>2022-08-18T06:58:18Z</time>
      </trkpt>
      <trkpt lat="45.135" lon="1.03534">
        <ele>260.2546052</ele>
        <time>2022-08-18T06:58:20Z</time>
      </trkpt>
      <trkpt lat="45.13504" lon="1.03524">
        <ele>260.6650665</ele>
        <time>2022-08-18T06:58:22Z</time>
      </trkpt>
      <trkpt lat="45.13508" lon="1.03515">
        <ele>260.7310992</ele>
        <time>2022-08-18T06:58:24Z</time>
      </trkpt>
      <trkpt lat="45.13512" lon="1.03507">
        <ele>261.1399496</ele>
        <time>2022-08-18T06:58:26Z</time>
      </trkpt>
      <trkpt lat="45.13515" lon="1.035">
        <ele>260.5528004</ele>
        <time>2022-08-18T06:58:28Z</time>
      </trkpt>
      <trkpt lat="45.1352" lon="1.0349">
        <ele>261.4310636</ele>
        <time>2022-08-18T06:58:30Z</time>
      </trkpt>
      <trkpt lat="45.13523" lon="1.03483">
        <ele>261.3229761</ele>
        <time>2022-08-18T06:58:32Z</time>
      </trkpt>
      <trkpt lat="45.13528" lon="1.03476">
        <ele>262.5546787</ele>
        <time>2022-08-18T06:58:34Z</time>
      </trkpt>
      <trkpt lat="45.13531" lon="1.03469">
        <ele>263.3081743</ele>
        <time>2022-08-18T06:58:36Z</time>
      </trkpt>
      <trkpt lat="45.13533" lon="1.03464">
        <ele>263.2378796</ele>
        <time>2022-08-18T06:58:38Z</time>
      </trkpt>
      <trkpt lat="45.13537" lon="1.03456">
        <ele>264.7619658</ele>
        <time>2022-08-18T06:58:40Z</time>
      </trkpt>
      <trkpt lat="45.1354" lon="1.03451">
        <ele>264.9505468</ele>
        <time>2022-08-18T06:58:42Z</time>
      </trkpt>
      <trkpt lat="45.13542" lon="1.03446">
        <ele>265.6646258</ele>
        <time>2022-08-18T06:58:44Z</time>
      </trkpt>
      <trkpt lat="45.13545" lon="1.03441">
        <ele>265.5563572</ele>
        <time>2022-08-18T06:58:46Z</time>
      </trkpt>
      <trkpt lat="45.13548" lon="1.03435">
        <ele>266.7384486</ele>
        <time>2022-08-18T06:58:48Z</time>
      </trkpt>
      <trkpt lat="45.1355" lon="1.03431">
        <ele>267.9284106</ele>
        <time>2022-08-18T06:58:50Z</time>
      </trkpt>
      <trkpt lat="45.13552" lon="1.03426">
        <ele>267.6589035</ele>
        <time>2022-08-18T06:58:52Z</time>
      </trkpt>
      <trkpt lat="45.13555" lon="1.0342">
        <ele>268.8293894</ele>
        <time>2022-08-18T06:58:54Z</time>
      </trkpt>
      <trkpt lat="45.13558" lon="1.03414">
        <ele>269.5495503</ele>
        <time>2022-08-18T06:58:56Z</time>
      </trkpt>
      <trkpt lat="45.13561" lon="1.03409">
        <ele>269.8021394</ele>
        <time>2022-08-18T06:58:58Z</time>
      </trkpt>
      <trkpt lat="45.13563" lon="1.03404">
        <ele>270.6851495</ele>
        <time>2022-08-18T06:59:00Z</time>
      </trkpt>
      <trkpt lat="45.13567" lon="1.03399">
        <ele>270.2878844</ele>
        <time>2022-08-18T06:59:02Z</time>
      </trkpt>
      <trkpt lat="45.13571" lon="1.03392">
        <ele>271.9900594</ele>
        <time>2022-08-18T06:59:04Z</time>
      </trkpt>
      <trkpt lat="45.13574" lon="1.03388">
        <ele>271.3572613</ele>
        <time>2022-08-18T06:59:06Z</time>
      </trkpt>
      <trkpt lat="45.13577" lon="1.03382">
        <ele>272.5799928</ele>
        <time>2022-08-18T06:59:08Z</time>
      </trkpt>
      <trkpt lat="45.1358" lon="1.03376">
        <ele>271.6884328</ele>
        <time>2022-08-18T06:59:10Z</time>
      </trkpt>
      <trkpt lat="45.13583" lon="1.03371">
        <ele>271.1122864</ele>
        <time>2022-08-18T06:59:12Z</time>
      </trkpt>
      <trkpt lat="45.13585" lon="1.03366">
        <ele>270.5820625</ele>
        <time>2022-08-18T06:59:14Z</time>
      </trkpt>
      <trkpt lat="45.13588" lon="1.0336">
        <ele>270.7104313</ele>
        <time>2022-08-18T06:59:16Z</time>
      </trkpt>
      <trkpt lat="45.13591" lon="1.03355">
        <ele>270.6119948</ele>
        <time>2022-08-18T06:59:18Z</time>
      </trkpt>
      <trkpt lat="45.13595" lon="1.0335">
        <ele>270.2970811</ele>
        <time>2022-08-18T06:59:20Z</time>
      </trkpt>
      <trkpt lat="45.13598" lon="1.03345">
        <ele>270.1090335</ele>
        <time>2022-08-18T06:59:22Z</time>
      </trkpt>
      <trkpt lat="45.13601" lon="1.0334">
        <ele>270.0941257</ele>
        <time>2022-08-18T06:59:24Z</time>
      </trkpt>
      <trkpt lat="45.13604" lon="1.03335">
        <ele>270.0176202</ele>
        <time>2022-08-18T06:59:26Z</time>
      </trkpt>
      <trkpt lat="45.13608" lon="1.03329">
        <ele>270.3882971</ele>
        <time>2022-08-18T06:59:28Z</time>
      </trkpt>
      <trkpt lat="45.13611" lon="1.03323">
        <ele>271.0185062</ele>
        <time>2022-08-18T06:59:30Z</time>
      </trkpt>
      <trkpt lat="45.13615" lon="1.03316">
        <ele>271.1452054</ele>
        <time>2022-08-18T06:59:32Z</time>
      </trkpt>
      <trkpt lat="45.13619" lon="1.0331">
        <ele>270.8703584</ele>
        <time>2022-08-18T06:59:34Z</time>
      </trkpt>
      <trkpt lat="45.13622" lon="1.03303">
        <ele>270.8220516</ele>
        <time>2022-08-18T06:59:36Z</time>
      </trkpt>
      <trkpt lat="45.13626" lon="1.03296">
        <ele>270.7194729</ele>
        <time>2022-08-18T06:59:38Z</time>
      </trkpt>
      <trkpt lat="45.13629" lon="1.03288">
        <ele>270.8667511</ele>
        <time>2022-08-18T06:59:40Z</time>
      </trkpt>
      <trkpt lat="45.13633" lon="1.03281">
        <ele>270.7580784</ele>
        <time>2022-08-18T06:59:42Z</time>
      </trkpt>
      <trkpt lat="45.13637" lon="1.03273">
        <ele>270.6706671</ele>
        <time>2022-08-18T06:59:44Z</time>
      </trkpt>
      <trkpt lat="45.13641" lon="1.03265">
        <ele>271.0105292</ele>
        <time>2022-08-18T06:59:46Z</time>
      </trkpt>
      <trkpt lat="45.13646" lon="1.03255">
        <ele>270.6456129</ele>
        <time>2022-08-18T06:59:48Z</time>
      </trkpt>
      <trkpt lat="45.1365" lon="1.03246">
        <ele>270.0545012</ele>
        <time>2022-08-18T06:59:50Z</time>
      </trkpt>
      <trkpt lat="45.13654" lon="1.03236">
        <ele>269.6952472</ele>
        <time>2022-08-18T06:59:52Z</time>
      </trkpt>
      <trkpt lat="45.13657" lon="1.03225">
        <ele>269.5454748</ele>
        <time>2022-08-18T06:59:54Z</time>
      </trkpt>
      <trkpt lat="45.13661" lon="1.03214">
        <ele>269.5913128</ele>
        <time>2022-08-18T06:59:56Z</time>
      </trkpt>
      <trkpt lat="45.13665" lon="1.03201">
        <ele>269.5233924</ele>
        <time>2022-08-18T06:59:58Z</time>
      </trkpt>
      <trkpt lat="45.13668" lon="1.03188">
        <ele>269.534054</ele>
        <time>2022-08-18T07:00:00Z</time>
      </trkpt>
      <trkpt lat="45.13671" lon="1.03175">
        <ele>269.1101271</ele>
        <time>2022-08-18T07:00:02Z</time>
      </trkpt>
      <trkpt lat="45.13673" lon="1.03161">
        <ele>268.6528663</ele>
        <time>2022-08-18T07:00:04Z</time>
      </trkpt>
      <trkpt lat="45.13676" lon="1.03148">
        <ele>267.9526745</ele>
        <time>2022-08-18T07:00:06Z</time>
      </trkpt>
      <trkpt lat="45.13677" lon="1.03133">
        <ele>267.6528627</ele>
        <time>2022-08-18T07:00:08Z</time>
      </trkpt>
      <trkpt lat="45.13679" lon="1.03118">
        <ele>267.3789525</ele>
        <time>2022-08-18T07:00:10Z</time>
      </trkpt>
      <trkpt lat="45.1368" lon="1.03103">
        <ele>266.8455563</ele>
        <time>2022-08-18T07:00:12Z</time>
      </trkpt>
      <trkpt lat="45.13681" lon="1.03088">
        <ele>266.8131982</ele>
        <time>2022-08-18T07:00:14Z</time>
      </trkpt>
      <trkpt lat="45.13682" lon="1.03072">
        <ele>267.1454225</ele>
        <time>2022-08-18T07:00:16Z</time>
      </trkpt>
      <trkpt lat="45.13681" lon="1.03056">
        <ele>267.350426</ele>
        <time>2022-08-18T07:00:18Z</time>
      </trkpt>
      <trkpt lat="45.1368" lon="1.0304">
        <ele>267.6868511</ele>
        <time>2022-08-18T07:00:20Z</time>
      </trkpt>
      <trkpt lat="45.13679" lon="1.03024">
        <ele>267.6849967</ele>
        <time>2022-08-18T07:00:22Z</time>
      </trkpt>
      <trkpt lat="45.13677" lon="1.03008">
        <ele>267.560613</ele>
        <time>2022-08-18T07:00:24Z</time>
      </trkpt>
      <trkpt lat="45.13675" lon="1.02992">
        <ele>267.4069224</ele>
        <time>2022-08-18T07:00:26Z</time>
      </trkpt>
      <trkpt lat="45.13673" lon="1.02977">
        <ele>267.2721065</ele>
        <time>2022-08-18T07:00:28Z</time>
      </trkpt>
      <trkpt lat="45.1367" lon="1.0296">
        <ele>267.3431479</ele>
        <time>2022-08-18T07:00:30Z</time>
      </trkpt>
      <trkpt lat="45.13667" lon="1.02943">
        <ele>267.0973902</ele>
        <time>2022-08-18T07:00:32Z</time>
      </trkpt>
      <trkpt lat="45.13664" lon="1.02926">
        <ele>266.5205457</ele>
        <time>2022-08-18T07:00:34Z</time>
      </trkpt>
      <trkpt lat="45.13661" lon="1.02908">
        <ele>266.0614408</ele>
        <time>2022-08-18T07:00:36Z</time>
      </trkpt>
      <trkpt lat="45.13658" lon="1.02889">
        <ele>265.4941654</ele>
        <time>2022-08-18T07:00:38Z</time>
      </trkpt>
      <trkpt lat="45.13655" lon="1.02868">
        <ele>264.4009993</ele>
        <time>2022-08-18T07:00:40Z</time>
      </trkpt>
      <trkpt lat="45.13651" lon="1.02846">
        <ele>263.657727</ele>
        <time>2022-08-18T07:00:42Z</time>
      </trkpt>
      <trkpt lat="45.13647" lon="1.02823">
        <ele>262.3678281</ele>
        <time>2022-08-18T07:00:44Z</time>
      </trkpt>
      <trkpt lat="45.13643" lon="1.028">
        <ele>261.3538528</ele>
        <time>2022-08-18T07:00:46Z</time>
      </trkpt>
      <trkpt lat="45.13639" lon="1.02775">
        <ele>260.6953976</ele>
        <time>2022-08-18T07:00:48Z</time>
      </trkpt>
      <trkpt lat="45.13634" lon="1.02749">
        <ele>259.4922116</ele>
        <time>2022-08-18T07:00:50Z</time>
      </trkpt>
      <trkpt lat="45.13629" lon="1.02722">
        <ele>258.338285</ele>
        <time>2022-08-18T07:00:52Z</time>
      </trkpt>
      <trkpt lat="45.13625" lon="1.02694">
        <ele>256.9809074</ele>
        <time>2022-08-18T07:00:54Z</time>
      </trkpt>
      <trkpt lat="45.1362" lon="1.02667">
        <ele>255.8796886</ele>
        <time>2022-08-18T07:00:56Z</time>
      </trkpt>
      <trkpt lat="45.13615" lon="1.02638">
        <ele>255.193703</ele>
        <time>2022-08-18T07:00:58Z</time>
      </trkpt>
      <trkpt lat="45.1361" lon="1.02608">
        <ele>253.8747709</ele>
        <time>2022-08-18T07:01:00Z</time>
      </trkpt>
      <trkpt lat="45.13605" lon="1.02579">
        <ele>252.7372269</ele>
        <time>2022-08-18T07:01:02Z</time>
      </trkpt>
      <trkpt lat="45.13599" lon="1.02549">
        <ele>251.6223544</ele>
        <time>2022-08-18T07:01:04Z</time>
      </trkpt>
      <trkpt lat="45.13594" lon="1.02519">
        <ele>250.2349598</ele>
        <time>2022-08-18T07:01:06Z</time>
      </trkpt>
      <trkpt lat="45.13589" lon="1.02487">
        <ele>249.1908618</ele>
        <time>2022-08-18T07:01:08Z</time>
      </trkpt>
      <trkpt lat="45.13583" lon="1.02457">
        <ele>248.553968</ele>
        <time>2022-08-18T07:01:10Z</time>
      </trkpt>
      <trkpt lat="45.13578" lon="1.02427">
        <ele>247.7609767</ele>
        <time>2022-08-18T07:01:12Z</time>
      </trkpt>
      <trkpt lat="45.13573" lon="1.02398">
        <ele>247.1535185</ele>
        <time>2022-08-18T07:01:14Z</time>
      </trkpt>
      <trkpt lat="45.13569" lon="1.0237">
        <ele>246.5832188</ele>
        <time>2022-08-18T07:01:16Z</time>
      </trkpt>
      <trkpt lat="45.13565" lon="1.02345">
        <ele>246.0567012</ele>
        <time>2022-08-18T07:01:18Z</time>
      </trkpt>
      <trkpt lat="45.13562" lon="1.02323">
        <ele>245.1737505</ele>
        <time>2022-08-18T07:01:20Z</time>
      </trkpt>
      <trkpt lat="45.13561" lon="1.02303">
        <ele>244.2445765</ele>
        <time>2022-08-18T07:01:22Z</time>
      </trkpt>
      <trkpt lat="45.13561" lon="1.02289">
        <ele>243.996968</ele>
        <time>2022-08-18T07:01:24Z</time>
      </trkpt>
      <trkpt lat="45.13566" lon="1.02282">
        <ele>243.1489922</ele>
        <time>2022-08-18T07:01:26Z</time>
      </trkpt>
      <trkpt lat="45.13571" lon="1.02283">
        <ele>243.7438859</ele>
        <time>2022-08-18T07:01:28Z</time>
      </trkpt>
      <trkpt lat="45.13572" lon="1.02283">
        <ele>244.6368106</ele>
        <time>2022-08-18T07:01:30Z</time>
      </trkpt>
      <trkpt lat="45.13572" lon="1.02283">
        <ele>244.5639802</ele>
        <time>2022-08-18T07:01:32Z</time>
      </trkpt>
      <trkpt lat="45.13572" lon="1.02283">
        <ele>244.8234291</ele>
        <time>2022-08-18T07:01:34Z</time>
      </trkpt>
      <trkpt lat="45.13572" lon="1.02282">
        <ele>245.2048563</ele>
        <time>2022-08-18T07:01:36Z</time>
      </trkpt>
      <trkpt lat="45.13572" lon="1.02282">
        <ele>245.6709022</ele>
        <time>2022-08-18T07:01:38Z</time>
      </trkpt>
      <trkpt lat="45.13572" lon="1.02282">
        <ele>246.3992403</ele>
        <time>2022-08-18T07:01:40Z</time>
      </trkpt>
      <trkpt lat="45.13572" lon="1.02281">
        <ele>246.4041453</ele>
        <time>2022-08-18T07:01:42Z</time>
      </trkpt>
      <trkpt lat="45.13572" lon="1.02281">
        <ele>249.0087623</ele>
        <time>2022-08-18T07:01:44Z</time>
      </trkpt>
      <trkpt lat="45.13572" lon="1.02281">
        <ele>249.4746997</ele>
        <time>2022-08-18T07:01:46Z</time>
      </trkpt>
      <trkpt lat="45.13572" lon="1.0228">
        <ele>250.0539681</ele>
        <time>2022-08-18T07:01:48Z</time>
      </trkpt>
      <trkpt lat="45.13572" lon="1.0228">
        <ele>251.0321378</ele>
        <time>2022-08-18T07:01:50Z</time>
      </trkpt>
      <trkpt lat="45.13574" lon="1.02278">
        <ele>251.0915963</ele>
        <time>2022-08-18T07:01:52Z</time>
      </trkpt>
      <trkpt lat="45.13579" lon="1.02281">
        <ele>250.9161273</ele>
        <time>2022-08-18T07:01:54Z</time>
      </trkpt>
      <trkpt lat="45.13582" lon="1.02282">
        <ele>251.0771292</ele>
        <time>2022-08-18T07:01:56Z</time>
      </trkpt>
      <trkpt lat="45.13586" lon="1.02283">
        <ele>250.5209943</ele>
        <time>2022-08-18T07:01:58Z</time>
      </trkpt>
      <trkpt lat="45.1359" lon="1.02284">
        <ele>250.7439395</ele>
        <time>2022-08-18T07:02:00Z</time>
      </trkpt>
      <trkpt lat="45.13593" lon="1.02286">
        <ele>250.862169</ele>
        <time>2022-08-18T07:02:02Z</time>
      </trkpt>
      <trkpt lat="45.13596" lon="1.02285">
        <ele>251.1242404</ele>
        <time>2022-08-18T07:02:04Z</time>
      </trkpt>
      <trkpt lat="45.13599" lon="1.02287">
        <ele>250.6342498</ele>
        <time>2022-08-18T07:02:06Z</time>
      </trkpt>
      <trkpt lat="45.13604" lon="1.02287">
        <ele>251.0346591</ele>
        <time>2022-08-18T07:02:08Z</time>
      </trkpt>
      <trkpt lat="45.13609" lon="1.02287">
        <ele>250.9918</ele>
        <time>2022-08-18T07:02:10Z</time>
      </trkpt>
      <trkpt lat="45.13615" lon="1.02285">
        <ele>251.2424882</ele>
        <time>2022-08-18T07:02:12Z</time>
      </trkpt>
      <trkpt lat="45.13623" lon="1.02282">
        <ele>251.7160138</ele>
        <time>2022-08-18T07:02:14Z</time>
      </trkpt>
      <trkpt lat="45.13629" lon="1.02279">
        <ele>251.967376</ele>
        <time>2022-08-18T07:02:16Z</time>
      </trkpt>
      <trkpt lat="45.13634" lon="1.02277">
        <ele>251.8422888</ele>
        <time>2022-08-18T07:02:18Z</time>
      </trkpt>
      <trkpt lat="45.1364" lon="1.02275">
        <ele>252.1269747</ele>
        <time>2022-08-18T07:02:20Z</time>
      </trkpt>
      <trkpt lat="45.13645" lon="1.02274">
        <ele>252.627825</ele>
        <time>2022-08-18T07:02:22Z</time>
      </trkpt>
      <trkpt lat="45.1365" lon="1.02275">
        <ele>253.2126283</ele>
        <time>2022-08-18T07:02:24Z</time>
      </trkpt>
      <trkpt lat="45.13653" lon="1.02274">
        <ele>253.7680792</ele>
        <time>2022-08-18T07:02:26Z</time>
      </trkpt>
      <trkpt lat="45.13657" lon="1.02275">
        <ele>253.5437004</ele>
        <time>2022-08-18T07:02:28Z</time>
      </trkpt>
      <trkpt lat="45.13662" lon="1.02275">
        <ele>253.5981474</ele>
        <time>2022-08-18T07:02:30Z</time>
      </trkpt>
      <trkpt lat="45.13668" lon="1.02278">
        <ele>252.9249459</ele>
        <time>2022-08-18T07:02:32Z</time>
      </trkpt>
      <trkpt lat="45.13673" lon="1.02282">
        <ele>251.5517458</ele>
        <time>2022-08-18T07:02:34Z</time>
      </trkpt>
      <trkpt lat="45.13678" lon="1.02286">
        <ele>249.9662108</ele>
        <time>2022-08-18T07:02:36Z</time>
      </trkpt>
      <trkpt lat="45.13682" lon="1.02289">
        <ele>248.8997536</ele>
        <time>2022-08-18T07:02:38Z</time>
      </trkpt>
      <trkpt lat="45.13686" lon="1.02294">
        <ele>248.6632341</ele>
        <time>2022-08-18T07:02:40Z</time>
      </trkpt>
      <trkpt lat="45.1369" lon="1.02299">
        <ele>248.4460261</ele>
        <time>2022-08-18T07:02:42Z</time>
      </trkpt>
      <trkpt lat="45.13694" lon="1.02304">
        <ele>248.4954895</ele>
        <time>2022-08-18T07:02:44Z</time>
      </trkpt>
      <trkpt lat="45.13699" lon="1.02309">
        <ele>248.6497739</ele>
        <time>2022-08-18T07:02:46Z</time>
      </trkpt>
      <trkpt lat="45.13703" lon="1.02313">
        <ele>249.0513557</ele>
        <time>2022-08-18T07:02:48Z</time>
      </trkpt>
      <trkpt lat="45.13706" lon="1.02316">
        <ele>249.0357219</ele>
        <time>2022-08-18T07:02:50Z</time>
      </trkpt>
      <trkpt lat="45.1371" lon="1.02319">
        <ele>249.0924575</ele>
        <time>2022-08-18T07:02:52Z</time>
      </trkpt>
      <trkpt lat="45.13714" lon="1.02322">
        <ele>248.9596234</ele>
        <time>2022-08-18T07:02:54Z</time>
      </trkpt>
      <trkpt lat="45.13717" lon="1.02324">
        <ele>249.6772664</ele>
        <time>2022-08-18T07:02:56Z</time>
      </trkpt>
      <trkpt lat="45.13721" lon="1.02327">
        <ele>249.7554866</ele>
        <time>2022-08-18T07:02:58Z</time>
      </trkpt>
      <trkpt lat="45.13725" lon="1.02328">
        <ele>249.5805636</ele>
        <time>2022-08-18T07:03:00Z</time>
      </trkpt>
      <trkpt lat="45.13729" lon="1.0233">
        <ele>249.9934791</ele>
        <time>2022-08-18T07:03:02Z</time>
      </trkpt>
      <trkpt lat="45.13734" lon="1.02332">
        <ele>250.2349412</ele>
        <time>2022-08-18T07:03:04Z</time>
      </trkpt>
      <trkpt lat="45.13738" lon="1.02334">
        <ele>250.4479128</ele>
        <time>2022-08-18T07:03:06Z</time>
      </trkpt>
      <trkpt lat="45.13742" lon="1.02336">
        <ele>251.0008127</ele>
        <time>2022-08-18T07:03:08Z</time>
      </trkpt>
      <trkpt lat="45.13746" lon="1.02339">
        <ele>250.8742092</ele>
        <time>2022-08-18T07:03:10Z</time>
      </trkpt>
      <trkpt lat="45.13749" lon="1.02341">
        <ele>251.0425469</ele>
        <time>2022-08-18T07:03:12Z</time>
      </trkpt>
      <trkpt lat="45.13752" lon="1.02343">
        <ele>250.6881669</ele>
        <time>2022-08-18T07:03:14Z</time>
      </trkpt>
      <trkpt lat="45.13755" lon="1.02345">
        <ele>250.7595279</ele>
        <time>2022-08-18T07:03:16Z</time>
      </trkpt>
      <trkpt lat="45.13759" lon="1.02346">
        <ele>251.005173</ele>
        <time>2022-08-18T07:03:18Z</time>
      </trkpt>
      <trkpt lat="45.13763" lon="1.02345">
        <ele>250.9080131</ele>
        <time>2022-08-18T07:03:20Z</time>
      </trkpt>
      <trkpt lat="45.13766" lon="1.02343">
        <ele>250.8208116</ele>
        <time>2022-08-18T07:03:22Z</time>
      </trkpt>
      <trkpt lat="45.13769" lon="1.0234">
        <ele>250.6096095</ele>
        <time>2022-08-18T07:03:24Z</time>
      </trkpt>
      <trkpt lat="45.13773" lon="1.02337">
        <ele>250.6000013</ele>
        <time>2022-08-18T07:03:26Z</time>
      </trkpt>
      <trkpt lat="45.13776" lon="1.0233">
        <ele>250.3468011</ele>
        <time>2022-08-18T07:03:28Z</time>
      </trkpt>
      <trkpt lat="45.13778" lon="1.02323">
        <ele>250.6482134</ele>
        <time>2022-08-18T07:03:30Z</time>
      </trkpt>
      <trkpt lat="45.13779" lon="1.02316">
        <ele>250.7849396</ele>
        <time>2022-08-18T07:03:32Z</time>
      </trkpt>
      <trkpt lat="45.13779" lon="1.02308">
        <ele>251.5174926</ele>
        <time>2022-08-18T07:03:34Z</time>
      </trkpt>
      <trkpt lat="45.13779" lon="1.02301">
        <ele>252.0952015</ele>
        <time>2022-08-18T07:03:36Z</time>
      </trkpt>
      <trkpt lat="45.13779" lon="1.02294">
        <ele>252.8550374</ele>
        <time>2022-08-18T07:03:38Z</time>
      </trkpt>
      <trkpt lat="45.13779" lon="1.02286">
        <ele>253.0250173</ele>
        <time>2022-08-18T07:03:40Z</time>
      </trkpt>
      <trkpt lat="45.13779" lon="1.0228">
        <ele>253.7850437</ele>
        <time>2022-08-18T07:03:42Z</time>
      </trkpt>
      <trkpt lat="45.1378" lon="1.02273">
        <ele>254.37077</ele>
        <time>2022-08-18T07:03:44Z</time>
      </trkpt>
      <trkpt lat="45.1378" lon="1.02266">
        <ele>254.9769029</ele>
        <time>2022-08-18T07:03:46Z</time>
      </trkpt>
      <trkpt lat="45.1378" lon="1.0226">
        <ele>255.6889701</ele>
        <time>2022-08-18T07:03:48Z</time>
      </trkpt>
      <trkpt lat="45.1378" lon="1.02254">
        <ele>256.3116551</ele>
        <time>2022-08-18T07:03:50Z</time>
      </trkpt>
      <trkpt lat="45.13782" lon="1.02247">
        <ele>256.4411614</ele>
        <time>2022-08-18T07:03:52Z</time>
      </trkpt>
      <trkpt lat="45.13784" lon="1.02241">
        <ele>256.3780263</ele>
        <time>2022-08-18T07:03:54Z</time>
      </trkpt>
      <trkpt lat="45.13787" lon="1.02234">
        <ele>256.6001817</ele>
        <time>2022-08-18T07:03:56Z</time>
      </trkpt>
      <trkpt lat="45.13793" lon="1.02229">
        <ele>256.3247761</ele>
        <time>2022-08-18T07:03:58Z</time>
      </trkpt>
      <trkpt lat="45.138" lon="1.02222">
        <ele>255.7429031</ele>
        <time>2022-08-18T07:04:00Z</time>
      </trkpt>
      <trkpt lat="45.13807" lon="1.02215">
        <ele>255.0830001</ele>
        <time>2022-08-18T07:04:02Z</time>
      </trkpt>
      <trkpt lat="45.13817" lon="1.02208">
        <ele>254.9322491</ele>
        <time>2022-08-18T07:04:04Z</time>
      </trkpt>
      <trkpt lat="45.13825" lon="1.02199">
        <ele>254.4716244</ele>
        <time>2022-08-18T07:04:06Z</time>
      </trkpt>
      <trkpt lat="45.13834" lon="1.02188">
        <ele>254.3458691</ele>
        <time>2022-08-18T07:04:08Z</time>
      </trkpt>
      <trkpt lat="45.13842" lon="1.02176">
        <ele>253.8686444</ele>
        <time>2022-08-18T07:04:10Z</time>
      </trkpt>
      <trkpt lat="45.13851" lon="1.02163">
        <ele>254.047013</ele>
        <time>2022-08-18T07:04:12Z</time>
      </trkpt>
      <trkpt lat="45.13862" lon="1.02154">
        <ele>253.0307593</ele>
        <time>2022-08-18T07:04:14Z</time>
      </trkpt>
      <trkpt lat="45.13874" lon="1.02146">
        <ele>252.6035719</ele>
        <time>2022-08-18T07:04:16Z</time>
      </trkpt>
      <trkpt lat="45.13886" lon="1.02136">
        <ele>252.9054313</ele>
        <time>2022-08-18T07:04:18Z</time>
      </trkpt>
      <trkpt lat="45.13898" lon="1.02131">
        <ele>251.9807796</ele>
        <time>2022-08-18T07:04:20Z</time>
      </trkpt>
      <trkpt lat="45.13909" lon="1.02128">
        <ele>252.0947284</ele>
        <time>2022-08-18T07:04:22Z</time>
      </trkpt>
      <trkpt lat="45.13921" lon="1.02124">
        <ele>252.5185717</ele>
        <time>2022-08-18T07:04:24Z</time>
      </trkpt>
      <trkpt lat="45.13933" lon="1.02119">
        <ele>250.6449017</ele>
        <time>2022-08-18T07:04:26Z</time>
      </trkpt>
      <trkpt lat="45.13944" lon="1.02111">
        <ele>251.0798511</ele>
        <time>2022-08-18T07:04:28Z</time>
      </trkpt>
      <trkpt lat="45.13955" lon="1.02101">
        <ele>249.981021</ele>
        <time>2022-08-18T07:04:30Z</time>
      </trkpt>
      <trkpt lat="45.13965" lon="1.02089">
        <ele>248.9552977</ele>
        <time>2022-08-18T07:04:32Z</time>
      </trkpt>
      <trkpt lat="45.13974" lon="1.02076">
        <ele>247.5472429</ele>
        <time>2022-08-18T07:04:34Z</time>
      </trkpt>
      <trkpt lat="45.13984" lon="1.02063">
        <ele>247.2662948</ele>
        <time>2022-08-18T07:04:36Z</time>
      </trkpt>
      <trkpt lat="45.13995" lon="1.02047">
        <ele>246.3070423</ele>
        <time>2022-08-18T07:04:38Z</time>
      </trkpt>
      <trkpt lat="45.14006" lon="1.02032">
        <ele>245.7828169</ele>
        <time>2022-08-18T07:04:40Z</time>
      </trkpt>
      <trkpt lat="45.14018" lon="1.0202">
        <ele>243.1141158</ele>
        <time>2022-08-18T07:04:42Z</time>
      </trkpt>
      <trkpt lat="45.14033" lon="1.0201">
        <ele>242.8401256</ele>
        <time>2022-08-18T07:04:44Z</time>
      </trkpt>
      <trkpt lat="45.14048" lon="1.01999">
        <ele>241.1051892</ele>
        <time>2022-08-18T07:04:46Z</time>
      </trkpt>
      <trkpt lat="45.14064" lon="1.01991">
        <ele>241.0168174</ele>
        <time>2022-08-18T07:04:48Z</time>
      </trkpt>
      <trkpt lat="45.14082" lon="1.01988">
        <ele>239.2508975</ele>
        <time>2022-08-18T07:04:50Z</time>
      </trkpt>
      <trkpt lat="45.14099" lon="1.01987">
        <ele>236.7925505</ele>
        <time>2022-08-18T07:04:52Z</time>
      </trkpt>
      <trkpt lat="45.14117" lon="1.01984">
        <ele>235.3016237</ele>
        <time>2022-08-18T07:04:54Z</time>
      </trkpt>
      <trkpt lat="45.14133" lon="1.01983">
        <ele>235.5389603</ele>
        <time>2022-08-18T07:04:56Z</time>
      </trkpt>
      <trkpt lat="45.14147" lon="1.01974">
        <ele>234.9375239</ele>
        <time>2022-08-18T07:04:58Z</time>
      </trkpt>
      <trkpt lat="45.14161" lon="1.01971">
        <ele>235.072606</ele>
        <time>2022-08-18T07:05:00Z</time>
      </trkpt>
      <trkpt lat="45.14174" lon="1.01965">
        <ele>235.0881624</ele>
        <time>2022-08-18T07:05:02Z</time>
      </trkpt>
      <trkpt lat="45.14186" lon="1.01962">
        <ele>234.7493369</ele>
        <time>2022-08-18T07:05:04Z</time>
      </trkpt>
      <trkpt lat="45.14197" lon="1.01956">
        <ele>234.2962058</ele>
        <time>2022-08-18T07:05:06Z</time>
      </trkpt>
      <trkpt lat="45.14209" lon="1.01957">
        <ele>232.4859115</ele>
        <time>2022-08-18T07:05:08Z</time>
      </trkpt>
      <trkpt lat="45.1422" lon="1.01951">
        <ele>232.3580535</ele>
        <time>2022-08-18T07:05:10Z</time>
      </trkpt>
      <trkpt lat="45.14232" lon="1.01946">
        <ele>232.5444606</ele>
        <time>2022-08-18T07:05:12Z</time>
      </trkpt>
      <trkpt lat="45.14242" lon="1.01942">
        <ele>231.9020559</ele>
        <time>2022-08-18T07:05:14Z</time>
      </trkpt>
      <trkpt lat="45.14251" lon="1.01936">
        <ele>231.9548521</ele>
        <time>2022-08-18T07:05:16Z</time>
      </trkpt>
      <trkpt lat="45.14261" lon="1.01932">
        <ele>231.0567397</ele>
        <time>2022-08-18T07:05:18Z</time>
      </trkpt>
      <trkpt lat="45.14272" lon="1.01931">
        <ele>230.8988113</ele>
        <time>2022-08-18T07:05:20Z</time>
      </trkpt>
      <trkpt lat="45.14283" lon="1.01932">
        <ele>230.7219772</ele>
        <time>2022-08-18T07:05:22Z</time>
      </trkpt>
      <trkpt lat="45.14293" lon="1.01933">
        <ele>230.5918875</ele>
        <time>2022-08-18T07:05:24Z</time>
      </trkpt>
      <trkpt lat="45.14305" lon="1.01935">
        <ele>230.8682794</ele>
        <time>2022-08-18T07:05:26Z</time>
      </trkpt>
      <trkpt lat="45.14314" lon="1.0194">
        <ele>231.1671727</ele>
        <time>2022-08-18T07:05:28Z</time>
      </trkpt>
      <trkpt lat="45.14324" lon="1.01948">
        <ele>229.5654596</ele>
        <time>2022-08-18T07:05:30Z</time>
      </trkpt>
      <trkpt lat="45.14333" lon="1.01952">
        <ele>229.2014055</ele>
        <time>2022-08-18T07:05:32Z</time>
      </trkpt>
      <trkpt lat="45.1434" lon="1.01959">
        <ele>229.0956499</ele>
        <time>2022-08-18T07:05:34Z</time>
      </trkpt>
      <trkpt lat="45.14348" lon="1.01964">
        <ele>229.2123786</ele>
        <time>2022-08-18T07:05:36Z</time>
      </trkpt>
      <trkpt lat="45.14355" lon="1.01969">
        <ele>229.3927393</ele>
        <time>2022-08-18T07:05:38Z</time>
      </trkpt>
      <trkpt lat="45.14362" lon="1.01974">
        <ele>228.9037437</ele>
        <time>2022-08-18T07:05:40Z</time>
      </trkpt>
      <trkpt lat="45.14369" lon="1.01978">
        <ele>230.0816805</ele>
        <time>2022-08-18T07:05:42Z</time>
      </trkpt>
      <trkpt lat="45.14375" lon="1.01983">
        <ele>231.303672</ele>
        <time>2022-08-18T07:05:44Z</time>
      </trkpt>
      <trkpt lat="45.14381" lon="1.01989">
        <ele>231.819647</ele>
        <time>2022-08-18T07:05:46Z</time>
      </trkpt>
      <trkpt lat="45.14385" lon="1.01994">
        <ele>233.2885578</ele>
        <time>2022-08-18T07:05:48Z</time>
      </trkpt>
      <trkpt lat="45.14391" lon="1.02">
        <ele>234.0902193</ele>
        <time>2022-08-18T07:05:50Z</time>
      </trkpt>
      <trkpt lat="45.14396" lon="1.02008">
        <ele>233.952552</ele>
        <time>2022-08-18T07:05:52Z</time>
      </trkpt>
      <trkpt lat="45.144" lon="1.02015">
        <ele>234.1360525</ele>
        <time>2022-08-18T07:05:54Z</time>
      </trkpt>
      <trkpt lat="45.14405" lon="1.02024">
        <ele>234.551498</ele>
        <time>2022-08-18T07:05:56Z</time>
      </trkpt>
      <trkpt lat="45.1441" lon="1.02033">
        <ele>234.3439094</ele>
        <time>2022-08-18T07:05:58Z</time>
      </trkpt>
      <trkpt lat="45.14414" lon="1.02042">
        <ele>234.2597876</ele>
        <time>2022-08-18T07:06:00Z</time>
      </trkpt>
      <trkpt lat="45.14418" lon="1.02052">
        <ele>235.0910171</ele>
        <time>2022-08-18T07:06:02Z</time>
      </trkpt>
      <trkpt lat="45.14425" lon="1.02059">
        <ele>235.8102715</ele>
        <time>2022-08-18T07:06:04Z</time>
      </trkpt>
      <trkpt lat="45.1443" lon="1.02068">
        <ele>236.6892809</ele>
        <time>2022-08-18T07:06:06Z</time>
      </trkpt>
      <trkpt lat="45.14436" lon="1.02075">
        <ele>237.144157</ele>
        <time>2022-08-18T07:06:08Z</time>
      </trkpt>
      <trkpt lat="45.14442" lon="1.02083">
        <ele>237.2338426</ele>
        <time>2022-08-18T07:06:10Z</time>
      </trkpt>
      <trkpt lat="45.14449" lon="1.02088">
        <ele>237.0174524</ele>
        <time>2022-08-18T07:06:12Z</time>
      </trkpt>
      <trkpt lat="45.14457" lon="1.0209">
        <ele>236.74224</ele>
        <time>2022-08-18T07:06:14Z</time>
      </trkpt>
      <trkpt lat="45.14467" lon="1.02091">
        <ele>236.57246</ele>
        <time>2022-08-18T07:06:16Z</time>
      </trkpt>
      <trkpt lat="45.14475" lon="1.0209">
        <ele>235.3667457</ele>
        <time>2022-08-18T07:06:18Z</time>
      </trkpt>
      <trkpt lat="45.14485" lon="1.02084">
        <ele>235.7545246</ele>
        <time>2022-08-18T07:06:20Z</time>
      </trkpt>
      <trkpt lat="45.14496" lon="1.02078">
        <ele>235.0197934</ele>
        <time>2022-08-18T07:06:22Z</time>
      </trkpt>
      <trkpt lat="45.14505" lon="1.02072">
        <ele>234.930262</ele>
        <time>2022-08-18T07:06:24Z</time>
      </trkpt>
      <trkpt lat="45.14515" lon="1.02066">
        <ele>234.7036117</ele>
        <time>2022-08-18T07:06:26Z</time>
      </trkpt>
      <trkpt lat="45.14526" lon="1.0206">
        <ele>234.8030214</ele>
        <time>2022-08-18T07:06:28Z</time>
      </trkpt>
      <trkpt lat="45.14535" lon="1.02055">
        <ele>234.3197048</ele>
        <time>2022-08-18T07:06:30Z</time>
      </trkpt>
      <trkpt lat="45.14545" lon="1.0205">
        <ele>234.1439405</ele>
        <time>2022-08-18T07:06:32Z</time>
      </trkpt>
      <trkpt lat="45.14553" lon="1.02045">
        <ele>234.5694605</ele>
        <time>2022-08-18T07:06:34Z</time>
      </trkpt>
      <trkpt lat="45.14562" lon="1.0204">
        <ele>234.3483242</ele>
        <time>2022-08-18T07:06:36Z</time>
      </trkpt>
      <trkpt lat="45.14571" lon="1.02036">
        <ele>234.2271517</ele>
        <time>2022-08-18T07:06:38Z</time>
      </trkpt>
      <trkpt lat="45.14579" lon="1.02031">
        <ele>234.1214543</ele>
        <time>2022-08-18T07:06:40Z</time>
      </trkpt>
      <trkpt lat="45.14588" lon="1.02026">
        <ele>234.061308</ele>
        <time>2022-08-18T07:06:42Z</time>
      </trkpt>
      <trkpt lat="45.14597" lon="1.02022">
        <ele>233.9241825</ele>
        <time>2022-08-18T07:06:44Z</time>
      </trkpt>
      <trkpt lat="45.14605" lon="1.02017">
        <ele>233.7798163</ele>
        <time>2022-08-18T07:06:46Z</time>
      </trkpt>
      <trkpt lat="45.14613" lon="1.02012">
        <ele>233.0983299</ele>
        <time>2022-08-18T07:06:48Z</time>
      </trkpt>
      <trkpt lat="45.14622" lon="1.02009">
        <ele>232.7291591</ele>
        <time>2022-08-18T07:06:50Z</time>
      </trkpt>
      <trkpt lat="45.14632" lon="1.02007">
        <ele>232.1868487</ele>
        <time>2022-08-18T07:06:52Z</time>
      </trkpt>
      <trkpt lat="45.14641" lon="1.0201">
        <ele>232.3294271</ele>
        <time>2022-08-18T07:06:54Z</time>
      </trkpt>
      <trkpt lat="45.1465" lon="1.02015">
        <ele>231.5793604</ele>
        <time>2022-08-18T07:06:56Z</time>
      </trkpt>
      <trkpt lat="45.14659" lon="1.02023">
        <ele>231.1278228</ele>
        <time>2022-08-18T07:06:58Z</time>
      </trkpt>
      <trkpt lat="45.14668" lon="1.02032">
        <ele>230.6304865</ele>
        <time>2022-08-18T07:07:00Z</time>
      </trkpt>
      <trkpt lat="45.14678" lon="1.02039">
        <ele>230.1103082</ele>
        <time>2022-08-18T07:07:02Z</time>
      </trkpt>
      <trkpt lat="45.14687" lon="1.02046">
        <ele>229.6252596</ele>
        <time>2022-08-18T07:07:04Z</time>
      </trkpt>
      <trkpt lat="45.14698" lon="1.02052">
        <ele>229.4394307</ele>
        <time>2022-08-18T07:07:06Z</time>
      </trkpt>
      <trkpt lat="45.1471" lon="1.02058">
        <ele>228.0731727</ele>
        <time>2022-08-18T07:07:08Z</time>
      </trkpt>
      <trkpt lat="45.14722" lon="1.02064">
        <ele>227.5627212</ele>
        <time>2022-08-18T07:07:10Z</time>
      </trkpt>
      <trkpt lat="45.14735" lon="1.0207">
        <ele>226.0432585</ele>
        <time>2022-08-18T07:07:12Z</time>
      </trkpt>
      <trkpt lat="45.14748" lon="1.02073">
        <ele>225.1959591</ele>
        <time>2022-08-18T07:07:14Z</time>
      </trkpt>
      <trkpt lat="45.14762" lon="1.02075">
        <ele>224.3705306</ele>
        <time>2022-08-18T07:07:16Z</time>
      </trkpt>
      <trkpt lat="45.14776" lon="1.02075">
        <ele>223.8918997</ele>
        <time>2022-08-18T07:07:18Z</time>
      </trkpt>
      <trkpt lat="45.14789" lon="1.02074">
        <ele>222.3978982</ele>
        <time>2022-08-18T07:07:20Z</time>
      </trkpt>
      <trkpt lat="45.14803" lon="1.02069">
        <ele>221.5597641</ele>
        <time>2022-08-18T07:07:22Z</time>
      </trkpt>
      <trkpt lat="45.14816" lon="1.02061">
        <ele>219.9270231</ele>
        <time>2022-08-18T07:07:24Z</time>
      </trkpt>
      <trkpt lat="45.14827" lon="1.02049">
        <ele>218.4776469</ele>
        <time>2022-08-18T07:07:26Z</time>
      </trkpt>
      <trkpt lat="45.14838" lon="1.02035">
        <ele>217.3771811</ele>
        <time>2022-08-18T07:07:28Z</time>
      </trkpt>
      <trkpt lat="45.14847" lon="1.02019">
        <ele>215.5585772</ele>
        <time>2022-08-18T07:07:30Z</time>
      </trkpt>
      <trkpt lat="45.14855" lon="1.02003">
        <ele>214.0911315</ele>
        <time>2022-08-18T07:07:32Z</time>
      </trkpt>
      <trkpt lat="45.14861" lon="1.01986">
        <ele>212.9401667</ele>
        <time>2022-08-18T07:07:34Z</time>
      </trkpt>
      <trkpt lat="45.14866" lon="1.01967">
        <ele>212.772658</ele>
        <time>2022-08-18T07:07:36Z</time>
      </trkpt>
      <trkpt lat="45.14868" lon="1.01948">
        <ele>211.3896959</ele>
        <time>2022-08-18T07:07:38Z</time>
      </trkpt>
      <trkpt lat="45.14871" lon="1.01929">
        <ele>209.3987771</ele>
        <time>2022-08-18T07:07:40Z</time>
      </trkpt>
      <trkpt lat="45.14875" lon="1.01906">
        <ele>208.1128418</ele>
        <time>2022-08-18T07:07:42Z</time>
      </trkpt>
      <trkpt lat="45.1488" lon="1.01886">
        <ele>206.4308369</ele>
        <time>2022-08-18T07:07:44Z</time>
      </trkpt>
      <trkpt lat="45.14884" lon="1.01866">
        <ele>204.9400682</ele>
        <time>2022-08-18T07:07:46Z</time>
      </trkpt>
      <trkpt lat="45.14889" lon="1.01842">
        <ele>202.3353416</ele>
        <time>2022-08-18T07:07:48Z</time>
      </trkpt>
      <trkpt lat="45.14899" lon="1.01818">
        <ele>201.0546316</ele>
        <time>2022-08-18T07:07:50Z</time>
      </trkpt>
      <trkpt lat="45.14909" lon="1.01795">
        <ele>200.6937207</ele>
        <time>2022-08-18T07:07:52Z</time>
      </trkpt>
      <trkpt lat="45.14925" lon="1.01775">
        <ele>199.552635</ele>
        <time>2022-08-18T07:07:54Z</time>
      </trkpt>
      <trkpt lat="45.14941" lon="1.0176">
        <ele>199.1580113</ele>
        <time>2022-08-18T07:07:56Z</time>
      </trkpt>
      <trkpt lat="45.14953" lon="1.01751">
        <ele>199.5189248</ele>
        <time>2022-08-18T07:07:58Z</time>
      </trkpt>
      <trkpt lat="45.14963" lon="1.01742">
        <ele>200.3971613</ele>
        <time>2022-08-18T07:08:00Z</time>
      </trkpt>
      <trkpt lat="45.14974" lon="1.01733">
        <ele>200.5686744</ele>
        <time>2022-08-18T07:08:02Z</time>
      </trkpt>
      <trkpt lat="45.14984" lon="1.01723">
        <ele>200.0492731</ele>
        <time>2022-08-18T07:08:04Z</time>
      </trkpt>
      <trkpt lat="45.14994" lon="1.01713">
        <ele>199.7775075</ele>
        <time>2022-08-18T07:08:06Z</time>
      </trkpt>
      <trkpt lat="45.15003" lon="1.01702">
        <ele>199.070491</ele>
        <time>2022-08-18T07:08:08Z</time>
      </trkpt>
      <trkpt lat="45.15012" lon="1.01693">
        <ele>199.499696</ele>
        <time>2022-08-18T07:08:10Z</time>
      </trkpt>
      <trkpt lat="45.15021" lon="1.01681">
        <ele>199.4876568</ele>
        <time>2022-08-18T07:08:12Z</time>
      </trkpt>
      <trkpt lat="45.1503" lon="1.01672">
        <ele>199.6368344</ele>
        <time>2022-08-18T07:08:14Z</time>
      </trkpt>
      <trkpt lat="45.15038" lon="1.01662">
        <ele>199.2392134</ele>
        <time>2022-08-18T07:08:16Z</time>
      </trkpt>
      <trkpt lat="45.15047" lon="1.0165">
        <ele>199.2011668</ele>
        <time>2022-08-18T07:08:18Z</time>
      </trkpt>
      <trkpt lat="45.15056" lon="1.01641">
        <ele>199.8675596</ele>
        <time>2022-08-18T07:08:20Z</time>
      </trkpt>
      <trkpt lat="45.15066" lon="1.01634">
        <ele>199.7949921</ele>
        <time>2022-08-18T07:08:22Z</time>
      </trkpt>
      <trkpt lat="45.15077" lon="1.01628">
        <ele>198.8775908</ele>
        <time>2022-08-18T07:08:24Z</time>
      </trkpt>
      <trkpt lat="45.15089" lon="1.01625">
        <ele>197.5639723</ele>
        <time>2022-08-18T07:08:26Z</time>
      </trkpt>
      <trkpt lat="45.15104" lon="1.01624">
        <ele>197.487717</ele>
        <time>2022-08-18T07:08:28Z</time>
      </trkpt>
      <trkpt lat="45.15118" lon="1.01626">
        <ele>197.0285214</ele>
        <time>2022-08-18T07:08:30Z</time>
      </trkpt>
      <trkpt lat="45.15133" lon="1.01631">
        <ele>196.3170055</ele>
        <time>2022-08-18T07:08:32Z</time>
      </trkpt>
      <trkpt lat="45.15149" lon="1.01637">
        <ele>195.8360721</ele>
        <time>2022-08-18T07:08:34Z</time>
      </trkpt>
      <trkpt lat="45.15162" lon="1.01644">
        <ele>195.6892867</ele>
        <time>2022-08-18T07:08:36Z</time>
      </trkpt>
      <trkpt lat="45.15178" lon="1.01646">
        <ele>194.1873359</ele>
        <time>2022-08-18T07:08:38Z</time>
      </trkpt>
      <trkpt lat="45.15194" lon="1.01642">
        <ele>193.3430483</ele>
        <time>2022-08-18T07:08:40Z</time>
      </trkpt>
      <trkpt lat="45.15209" lon="1.01633">
        <ele>193.0004565</ele>
        <time>2022-08-18T07:08:42Z</time>
      </trkpt>
      <trkpt lat="45.15223" lon="1.01626">
        <ele>192.6635258</ele>
        <time>2022-08-18T07:08:44Z</time>
      </trkpt>
      <trkpt lat="45.15234" lon="1.01618">
        <ele>192.4011837</ele>
        <time>2022-08-18T07:08:46Z</time>
      </trkpt>
      <trkpt lat="45.15242" lon="1.01611">
        <ele>192.5229498</ele>
        <time>2022-08-18T07:08:48Z</time>
      </trkpt>
      <trkpt lat="45.15248" lon="1.01606">
        <ele>192.151342</ele>
        <time>2022-08-18T07:08:50Z</time>
      </trkpt>
      <trkpt lat="45.15253" lon="1.01603">
        <ele>192.416729</ele>
        <time>2022-08-18T07:08:52Z</time>
      </trkpt>
      <trkpt lat="45.15256" lon="1.01601">
        <ele>191.4810795</ele>
        <time>2022-08-18T07:08:54Z</time>
      </trkpt>
      <trkpt lat="45.15259" lon="1.01597">
        <ele>192.4443016</ele>
        <time>2022-08-18T07:08:56Z</time>
      </trkpt>
      <trkpt lat="45.15262" lon="1.01594">
        <ele>192.8224489</ele>
        <time>2022-08-18T07:08:58Z</time>
      </trkpt>
      <trkpt lat="45.15266" lon="1.0159">
        <ele>192.5477107</ele>
        <time>2022-08-18T07:09:00Z</time>
      </trkpt>
      <trkpt lat="45.15271" lon="1.01587">
        <ele>192.6219108</ele>
        <time>2022-08-18T07:09:02Z</time>
      </trkpt>
      <trkpt lat="45.15277" lon="1.01588">
        <ele>192.0142815</ele>
        <time>2022-08-18T07:09:04Z</time>
      </trkpt>
      <trkpt lat="45.15283" lon="1.01589">
        <ele>191.614802</ele>
        <time>2022-08-18T07:09:06Z</time>
      </trkpt>
      <trkpt lat="45.15288" lon="1.01591">
        <ele>192.0772487</ele>
        <time>2022-08-18T07:09:08Z</time>
      </trkpt>
      <trkpt lat="45.15294" lon="1.01594">
        <ele>192.3163833</ele>
        <time>2022-08-18T07:09:10Z</time>
      </trkpt>
      <trkpt lat="45.153" lon="1.01595">
        <ele>192.4382947</ele>
        <time>2022-08-18T07:09:12Z</time>
      </trkpt>
      <trkpt lat="45.15307" lon="1.01596">
        <ele>192.0117753</ele>
        <time>2022-08-18T07:09:14Z</time>
      </trkpt>
      <trkpt lat="45.15313" lon="1.01597">
        <ele>192.1968845</ele>
        <time>2022-08-18T07:09:16Z</time>
      </trkpt>
      <trkpt lat="45.15319" lon="1.016">
        <ele>191.9930412</ele>
        <time>2022-08-18T07:09:18Z</time>
      </trkpt>
      <trkpt lat="45.15326" lon="1.01601">
        <ele>191.7295259</ele>
        <time>2022-08-18T07:09:20Z</time>
      </trkpt>
      <trkpt lat="45.15332" lon="1.01603">
        <ele>191.2881273</ele>
        <time>2022-08-18T07:09:22Z</time>
      </trkpt>
      <trkpt lat="45.15338" lon="1.01604">
        <ele>191.2658931</ele>
        <time>2022-08-18T07:09:24Z</time>
      </trkpt>
      <trkpt lat="45.15344" lon="1.01605">
        <ele>191.0443199</ele>
        <time>2022-08-18T07:09:26Z</time>
      </trkpt>
      <trkpt lat="45.1535" lon="1.01607">
        <ele>191.2739425</ele>
        <time>2022-08-18T07:09:28Z</time>
      </trkpt>
      <trkpt lat="45.15356" lon="1.01609">
        <ele>191.1610208</ele>
        <time>2022-08-18T07:09:30Z</time>
      </trkpt>
      <trkpt lat="45.15362" lon="1.0161">
        <ele>191.2127287</ele>
        <time>2022-08-18T07:09:32Z</time>
      </trkpt>
      <trkpt lat="45.15368" lon="1.01612">
        <ele>191.0621428</ele>
        <time>2022-08-18T07:09:34Z</time>
      </trkpt>
      <trkpt lat="45.15375" lon="1.01613">
        <ele>190.6346102</ele>
        <time>2022-08-18T07:09:36Z</time>
      </trkpt>
      <trkpt lat="45.15383" lon="1.01616">
        <ele>190.6911693</ele>
        <time>2022-08-18T07:09:38Z</time>
      </trkpt>
      <trkpt lat="45.1539" lon="1.01619">
        <ele>190.3467581</ele>
        <time>2022-08-18T07:09:40Z</time>
      </trkpt>
      <trkpt lat="45.15397" lon="1.01623">
        <ele>190.3006557</ele>
        <time>2022-08-18T07:09:42Z</time>
      </trkpt>
      <trkpt lat="45.15405" lon="1.01627">
        <ele>190.5090995</ele>
        <time>2022-08-18T07:09:44Z</time>
      </trkpt>
      <trkpt lat="45.15412" lon="1.01632">
        <ele>190.6880255</ele>
        <time>2022-08-18T07:09:46Z</time>
      </trkpt>
      <trkpt lat="45.1542" lon="1.01636">
        <ele>190.6235151</ele>
        <time>2022-08-18T07:09:48Z</time>
      </trkpt>
      <trkpt lat="45.15426" lon="1.01641">
        <ele>190.8927622</ele>
        <time>2022-08-18T07:09:50Z</time>
      </trkpt>
      <trkpt lat="45.15433" lon="1.01645">
        <ele>190.6234744</ele>
        <time>2022-08-18T07:09:52Z</time>
      </trkpt>
      <trkpt lat="45.1544" lon="1.01649">
        <ele>190.88889</ele>
        <time>2022-08-18T07:09:54Z</time>
      </trkpt>
      <trkpt lat="45.15448" lon="1.01653">
        <ele>191.0592951</ele>
        <time>2022-08-18T07:09:56Z</time>
      </trkpt>
      <trkpt lat="45.15454" lon="1.01656">
        <ele>191.4767059</ele>
        <time>2022-08-18T07:09:58Z</time>
      </trkpt>
      <trkpt lat="45.1546" lon="1.01659">
        <ele>191.695653</ele>
        <time>2022-08-18T07:10:00Z</time>
      </trkpt>
      <trkpt lat="45.15467" lon="1.0166">
        <ele>191.985312</ele>
        <time>2022-08-18T07:10:02Z</time>
      </trkpt>
      <trkpt lat="45.15472" lon="1.01663">
        <ele>191.8622646</ele>
        <time>2022-08-18T07:10:04Z</time>
      </trkpt>
      <trkpt lat="45.15478" lon="1.01663">
        <ele>192.1831847</ele>
        <time>2022-08-18T07:10:06Z</time>
      </trkpt>
      <trkpt lat="45.15483" lon="1.01664">
        <ele>192.3571234</ele>
        <time>2022-08-18T07:10:08Z</time>
      </trkpt>
      <trkpt lat="45.15488" lon="1.01664">
        <ele>192.7092022</ele>
        <time>2022-08-18T07:10:10Z</time>
      </trkpt>
      <trkpt lat="45.15492" lon="1.01664">
        <ele>192.7764581</ele>
        <time>2022-08-18T07:10:12Z</time>
      </trkpt>
      <trkpt lat="45.15497" lon="1.01664">
        <ele>192.8848692</ele>
        <time>2022-08-18T07:10:14Z</time>
      </trkpt>
      <trkpt lat="45.15501" lon="1.01664">
        <ele>192.9705062</ele>
        <time>2022-08-18T07:10:16Z</time>
      </trkpt>
      <trkpt lat="45.15506" lon="1.01663">
        <ele>193.0049215</ele>
        <time>2022-08-18T07:10:18Z</time>
      </trkpt>
      <trkpt lat="45.15511" lon="1.01664">
        <ele>193.2128476</ele>
        <time>2022-08-18T07:10:20Z</time>
      </trkpt>
      <trkpt lat="45.15516" lon="1.01663">
        <ele>193.0745766</ele>
        <time>2022-08-18T07:10:22Z</time>
      </trkpt>
      <trkpt lat="45.1552" lon="1.01664">
        <ele>192.9524286</ele>
        <time>2022-08-18T07:10:24Z</time>
      </trkpt>
      <trkpt lat="45.15525" lon="1.01664">
        <ele>193.3002416</ele>
        <time>2022-08-18T07:10:26Z</time>
      </trkpt>
      <trkpt lat="45.1553" lon="1.01665">
        <ele>193.2204575</ele>
        <time>2022-08-18T07:10:28Z</time>
      </trkpt>
      <trkpt lat="45.15536" lon="1.01665">
        <ele>193.2474646</ele>
        <time>2022-08-18T07:10:30Z</time>
      </trkpt>
      <trkpt lat="45.15541" lon="1.01666">
        <ele>192.9723377</ele>
        <time>2022-08-18T07:10:32Z</time>
      </trkpt>
      <trkpt lat="45.15547" lon="1.01666">
        <ele>193.1347258</ele>
        <time>2022-08-18T07:10:34Z</time>
      </trkpt>
      <trkpt lat="45.15552" lon="1.01667">
        <ele>193.1085461</ele>
        <time>2022-08-18T07:10:36Z</time>
      </trkpt>
      <trkpt lat="45.15556" lon="1.01668">
        <ele>193.2935684</ele>
        <time>2022-08-18T07:10:38Z</time>
      </trkpt>
      <trkpt lat="45.15559" lon="1.01668">
        <ele>193.7172282</ele>
        <time>2022-08-18T07:10:40Z</time>
      </trkpt>
      <trkpt lat="45.15563" lon="1.01667">
        <ele>193.8355926</ele>
        <time>2022-08-18T07:10:42Z</time>
      </trkpt>
      <trkpt lat="45.15565" lon="1.01664">
        <ele>194.6192252</ele>
        <time>2022-08-18T07:10:44Z</time>
      </trkpt>
      <trkpt lat="45.15567" lon="1.01658">
        <ele>195.2824323</ele>
        <time>2022-08-18T07:10:46Z</time>
      </trkpt>
      <trkpt lat="45.15569" lon="1.01655">
        <ele>195.9962591</ele>
        <time>2022-08-18T07:10:48Z</time>
      </trkpt>
      <trkpt lat="45.1557" lon="1.01651">
        <ele>196.4741005</ele>
        <time>2022-08-18T07:10:50Z</time>
      </trkpt>
      <trkpt lat="45.1557" lon="1.01647">
        <ele>196.432807</ele>
        <time>2022-08-18T07:10:52Z</time>
      </trkpt>
      <trkpt lat="45.15572" lon="1.01641">
        <ele>196.8600206</ele>
        <time>2022-08-18T07:10:54Z</time>
      </trkpt>
      <trkpt lat="45.15573" lon="1.01637">
        <ele>197.0241931</ele>
        <time>2022-08-18T07:10:56Z</time>
      </trkpt>
      <trkpt lat="45.15574" lon="1.01632">
        <ele>197.5007975</ele>
        <time>2022-08-18T07:10:58Z</time>
      </trkpt>
      <trkpt lat="45.15576" lon="1.01629">
        <ele>197.8236089</ele>
        <time>2022-08-18T07:11:00Z</time>
      </trkpt>
      <trkpt lat="45.15578" lon="1.01627">
        <ele>197.7219038</ele>
        <time>2022-08-18T07:11:02Z</time>
      </trkpt>
      <trkpt lat="45.1558" lon="1.01624">
        <ele>198.172873</ele>
        <time>2022-08-18T07:11:04Z</time>
      </trkpt>
      <trkpt lat="45.15583" lon="1.01622">
        <ele>198.3627186</ele>
        <time>2022-08-18T07:11:06Z</time>
      </trkpt>
      <trkpt lat="45.15585" lon="1.01619">
        <ele>199.2911798</ele>
        <time>2022-08-18T07:11:08Z</time>
      </trkpt>
      <trkpt lat="45.15587" lon="1.01618">
        <ele>198.8785903</ele>
        <time>2022-08-18T07:11:10Z</time>
      </trkpt>
      <trkpt lat="45.1559" lon="1.01616">
        <ele>198.9837347</ele>
        <time>2022-08-18T07:11:12Z</time>
      </trkpt>
      <trkpt lat="45.1559" lon="1.01614">
        <ele>198.7913016</ele>
        <time>2022-08-18T07:11:14Z</time>
      </trkpt>
      <trkpt lat="45.15592" lon="1.01614">
        <ele>199.5727858</ele>
        <time>2022-08-18T07:11:16Z</time>
      </trkpt>
      <trkpt lat="45.15594" lon="1.01614">
        <ele>200.3514562</ele>
        <time>2022-08-18T07:11:18Z</time>
      </trkpt>
      <trkpt lat="45.15597" lon="1.01614">
        <ele>200.4257236</ele>
        <time>2022-08-18T07:11:20Z</time>
      </trkpt>
      <trkpt lat="45.15601" lon="1.01616">
        <ele>200.0703173</ele>
        <time>2022-08-18T07:11:22Z</time>
      </trkpt>
      <trkpt lat="45.15605" lon="1.01616">
        <ele>200.4202511</ele>
        <time>2022-08-18T07:11:24Z</time>
      </trkpt>
      <trkpt lat="45.15608" lon="1.01617">
        <ele>200.8920419</ele>
        <time>2022-08-18T07:11:26Z</time>
      </trkpt>
      <trkpt lat="45.15611" lon="1.01617">
        <ele>201.4863698</ele>
        <time>2022-08-18T07:11:28Z</time>
      </trkpt>
      <trkpt lat="45.15612" lon="1.01617">
        <ele>200.9499886</ele>
        <time>2022-08-18T07:11:30Z</time>
      </trkpt>
      <trkpt lat="45.15613" lon="1.01615">
        <ele>199.9765065</ele>
        <time>2022-08-18T07:11:32Z</time>
      </trkpt>
      <trkpt lat="45.15614" lon="1.01614">
        <ele>199.7942113</ele>
        <time>2022-08-18T07:11:34Z</time>
      </trkpt>
      <trkpt lat="45.15614" lon="1.01614">
        <ele>200.2701656</ele>
        <time>2022-08-18T07:11:36Z</time>
      </trkpt>
      <trkpt lat="45.15615" lon="1.01613">
        <ele>200.4350767</ele>
        <time>2022-08-18T07:11:38Z</time>
      </trkpt>
      <trkpt lat="45.15615" lon="1.01612">
        <ele>200.5068037</ele>
        <time>2022-08-18T07:11:40Z</time>
      </trkpt>
      <trkpt lat="45.15615" lon="1.01611">
        <ele>200.2981706</ele>
        <time>2022-08-18T07:11:42Z</time>
      </trkpt>
      <trkpt lat="45.15615" lon="1.0161">
        <ele>200.2727118</ele>
        <time>2022-08-18T07:11:44Z</time>
      </trkpt>
      <trkpt lat="45.15616" lon="1.0161">
        <ele>200.7622365</ele>
        <time>2022-08-18T07:11:46Z</time>
      </trkpt>
      <trkpt lat="45.15616" lon="1.0161">
        <ele>200.9017869</ele>
        <time>2022-08-18T07:11:48Z</time>
      </trkpt>
      <trkpt lat="45.15616" lon="1.01609">
        <ele>200.7713651</ele>
        <time>2022-08-18T07:11:50Z</time>
      </trkpt>
      <trkpt lat="45.15616" lon="1.01609">
        <ele>200.2010835</ele>
        <time>2022-08-18T07:11:52Z</time>
      </trkpt>
      <trkpt lat="45.15616" lon="1.01609">
        <ele>200.5917547</ele>
        <time>2022-08-18T07:11:54Z</time>
      </trkpt>
      <trkpt lat="45.15615" lon="1.01608">
        <ele>200.979407</ele>
        <time>2022-08-18T07:11:56Z</time>
      </trkpt>
      <trkpt lat="45.15616" lon="1.0161">
        <ele>200.2565679</ele>
        <time>2022-08-18T07:11:58Z</time>
      </trkpt>
      <trkpt lat="45.15617" lon="1.0161">
        <ele>199.9922676</ele>
        <time>2022-08-18T07:12:00Z</time>
      </trkpt>
      <trkpt lat="45.15617" lon="1.0161">
        <ele>200.1249794</ele>
        <time>2022-08-18T07:12:02Z</time>
      </trkpt>
      <trkpt lat="45.15617" lon="1.0161">
        <ele>200.3746819</ele>
        <time>2022-08-18T07:12:04Z</time>
      </trkpt>
      <trkpt lat="45.15617" lon="1.0161">
        <ele>200.5487545</ele>
        <time>2022-08-18T07:12:06Z</time>
      </trkpt>
      <trkpt lat="45.15617" lon="1.0161">
        <ele>200.8616673</ele>
        <time>2022-08-18T07:12:08Z</time>
      </trkpt>
      <trkpt lat="45.15617" lon="1.0161">
        <ele>200.8616673</ele>
        <time>2022-08-18T07:12:12Z</time>
      </trkpt>
      <trkpt lat="45.15617" lon="1.0161">
        <ele>200.8616673</ele>
        <time>2022-08-18T07:12:16Z</time>
      </trkpt>
      <trkpt lat="45.15617" lon="1.0161">
        <ele>200.8616673</ele>
        <time>2022-08-18T07:12:20Z</time>
      </trkpt>
      <trkpt lat="45.15617" lon="1.0161">
        <ele>200.8616673</ele>
        <time>2022-08-18T07:12:24Z</time>
      </trkpt>
      <trkpt lat="45.15617" lon="1.0161">
        <ele>200.8616673</ele>
        <time>2022-08-18T07:12:28Z</time>
      </trkpt>
      <trkpt lat="45.15617" lon="1.0161">
        <ele>200.8616673</ele>
        <time>2022-08-18T07:12:32Z</time>
      </trkpt>
      <trkpt lat="45.15617" lon="1.0161">
        <ele>200.8616673</ele>
        <time>2022-08-18T07:12:36Z</time>
      </trkpt>
      <trkpt lat="45.15617" lon="1.0161">
        <ele>200.8616673</ele>
        <time>2022-08-18T07:12:40Z</time>
      </trkpt>
      <trkpt lat="45.15617" lon="1.0161">
        <ele>200.8616673</ele>
        <time>2022-08-18T07:12:44Z</time>
      </trkpt>
      <trkpt lat="45.15617" lon="1.0161">
        <ele>200.8616673</ele>
        <time>2022-08-18T07:12:48Z</time>
      </trkpt>
      <trkpt lat="45.15617" lon="1.0161">
        <ele>200.8616673</ele>
        <time>2022-08-18T07:12:52Z</time>
      </trkpt>
      <trkpt lat="45.15617" lon="1.0161">
        <ele>200.8616673</ele>
        <time>2022-08-18T07:12:56Z</time>
      </trkpt>
      <trkpt lat="45.15617" lon="1.0161">
        <ele>200.8616673</ele>
        <time>2022-08-18T07:13:00Z</time>
      </trkpt>
      <trkpt lat="45.15617" lon="1.0161">
        <ele>200.8616673</ele>
        <time>2022-08-18T07:13:04Z</time>
      </trkpt>
      <trkpt lat="45.15617" lon="1.0161">
        <ele>200.8616673</ele>
        <time>2022-08-18T07:13:08Z</time>
      </trkpt>
      <trkpt lat="45.15617" lon="1.0161">
        <ele>200.8616673</ele>
        <time>2022-08-18T07:13:12Z</time>
      </trkpt>
      <trkpt lat="45.15617" lon="1.0161">
        <ele>200.8616673</ele>
        <time>2022-08-18T07:13:16Z</time>
      </trkpt>
      <trkpt lat="45.15617" lon="1.0161">
        <ele>200.8616673</ele>
        <time>2022-08-18T07:13:20Z</time>
      </trkpt>
      <trkpt lat="45.15617" lon="1.0161">
        <ele>200.8616673</ele>
        <time>2022-08-18T07:13:24Z</time>
      </trkpt>
      <trkpt lat="45.15617" lon="1.0161">
        <ele>200.8616673</ele>
        <time>2022-08-18T07:13:28Z</time>
      </trkpt>
      <trkpt lat="45.15617" lon="1.0161">
        <ele>200.8616673</ele>
        <time>2022-08-18T07:13:32Z</time>
      </trkpt>
      <trkpt lat="45.15617" lon="1.0161">
        <ele>200.8616673</ele>
        <time>2022-08-18T07:13:36Z</time>
      </trkpt>
      <trkpt lat="45.15617" lon="1.0161">
        <ele>200.8616673</ele>
        <time>2022-08-18T07:13:40Z</time>
      </trkpt>
      <trkpt lat="45.15617" lon="1.0161">
        <ele>200.8616673</ele>
        <time>2022-08-18T07:13:44Z</time>
      </trkpt>
      <trkpt lat="45.15617" lon="1.0161">
        <ele>200.8616673</ele>
        <time>2022-08-18T07:13:48Z</time>
      </trkpt>
      <trkpt lat="45.15617" lon="1.0161">
        <ele>200.8616673</ele>
        <time>2022-08-18T07:13:52Z</time>
      </trkpt>
      <trkpt lat="45.15617" lon="1.0161">
        <ele>200.8616673</ele>
        <time>2022-08-18T07:13:56Z</time>
      </trkpt>
      <trkpt lat="45.15617" lon="1.0161">
        <ele>200.8616673</ele>
        <time>2022-08-18T07:14:00Z</time>
      </trkpt>
      <trkpt lat="45.15617" lon="1.0161">
        <ele>200.8616673</ele>
        <time>2022-08-18T07:14:04Z</time>
      </trkpt>
      <trkpt lat="45.15617" lon="1.0161">
        <ele>200.8616673</ele>
        <time>2022-08-18T07:14:08Z</time>
      </trkpt>
      <trkpt lat="45.15617" lon="1.0161">
        <ele>200.8616673</ele>
        <time>2022-08-18T07:14:12Z</time>
      </trkpt>
      <trkpt lat="45.15617" lon="1.0161">
        <ele>200.8616673</ele>
        <time>2022-08-18T07:14:16Z</time>
      </trkpt>
      <trkpt lat="45.15617" lon="1.0161">
        <ele>200.8616673</ele>
        <time>2022-08-18T07:14:20Z</time>
      </trkpt>
      <trkpt lat="45.15617" lon="1.0161">
        <ele>200.8616673</ele>
        <time>2022-08-18T07:14:24Z</time>
      </trkpt>
      <trkpt lat="45.15617" lon="1.0161">
        <ele>200.8616673</ele>
        <time>2022-08-18T07:14:28Z</time>
      </trkpt>
      <trkpt lat="45.15617" lon="1.0161">
        <ele>200.8616673</ele>
        <time>2022-08-18T07:14:32Z</time>
      </trkpt>
      <trkpt lat="45.15617" lon="1.0161">
        <ele>200.8616673</ele>
        <time>2022-08-18T07:14:36Z</time>
      </trkpt>
      <trkpt lat="45.15617" lon="1.0161">
        <ele>200.8616673</ele>
        <time>2022-08-18T07:14:40Z</time>
      </trkpt>
      <trkpt lat="45.15617" lon="1.0161">
        <ele>200.8616673</ele>
        <time>2022-08-18T07:14:44Z</time>
      </trkpt>
      <trkpt lat="45.15617" lon="1.0161">
        <ele>200.8616673</ele>
        <time>2022-08-18T07:14:48Z</time>
      </trkpt>
      <trkpt lat="45.15617" lon="1.0161">
        <ele>200.8616673</ele>
        <time>2022-08-18T07:14:52Z</time>
      </trkpt>
      <trkpt lat="45.15617" lon="1.0161">
        <ele>200.8616673</ele>
        <time>2022-08-18T07:14:56Z</time>
      </trkpt>
      <trkpt lat="45.15617" lon="1.0161">
        <ele>200.8616673</ele>
        <time>2022-08-18T07:15:00Z</time>
      </trkpt>
      <trkpt lat="45.15617" lon="1.0161">
        <ele>200.8616673</ele>
        <time>2022-08-18T07:15:04Z</time>
      </trkpt>
      <trkpt lat="45.15617" lon="1.0161">
        <ele>200.8616673</ele>
        <time>2022-08-18T07:15:08Z</time>
      </trkpt>
      <trkpt lat="45.15617" lon="1.0161">
        <ele>200.8616673</ele>
        <time>2022-08-18T07:15:12Z</time>
      </trkpt>
      <trkpt lat="45.15617" lon="1.0161">
        <ele>200.8616673</ele>
        <time>2022-08-18T07:15:16Z</time>
      </trkpt>
      <trkpt lat="45.15617" lon="1.0161">
        <ele>200.8616673</ele>
        <time>2022-08-18T07:15:20Z</time>
      </trkpt>
      <trkpt lat="45.15617" lon="1.0161">
        <ele>200.8616673</ele>
        <time>2022-08-18T07:15:24Z</time>
      </trkpt>
      <trkpt lat="45.15617" lon="1.0161">
        <ele>200.8616673</ele>
        <time>2022-08-18T07:15:28Z</time>
      </trkpt>
      <trkpt lat="45.15617" lon="1.0161">
        <ele>200.8616673</ele>
        <time>2022-08-18T07:15:32Z</time>
      </trkpt>
      <trkpt lat="45.15617" lon="1.0161">
        <ele>200.8616673</ele>
        <time>2022-08-18T07:15:36Z</time>
      </trkpt>
      <trkpt lat="45.15617" lon="1.0161">
        <ele>200.8616673</ele>
        <time>2022-08-18T07:15:40Z</time>
      </trkpt>
      <trkpt lat="45.15617" lon="1.0161">
        <ele>200.8616673</ele>
        <time>2022-08-18T07:15:44Z</time>
      </trkpt>
      <trkpt lat="45.15617" lon="1.0161">
        <ele>200.8616673</ele>
        <time>2022-08-18T07:15:48Z</time>
      </trkpt>
      <trkpt lat="45.15617" lon="1.0161">
        <ele>200.8616673</ele>
        <time>2022-08-18T07:15:52Z</time>
      </trkpt>
      <trkpt lat="45.15617" lon="1.0161">
        <ele>200.8616673</ele>
        <time>2022-08-18T07:15:56Z</time>
      </trkpt>
      <trkpt lat="45.15617" lon="1.0161">
        <ele>200.8616673</ele>
        <time>2022-08-18T07:16:00Z</time>
      </trkpt>
      <trkpt lat="45.15617" lon="1.0161">
        <ele>200.8616673</ele>
        <time>2022-08-18T07:16:04Z</time>
      </trkpt>
      <trkpt lat="45.15617" lon="1.0161">
        <ele>200.8616673</ele>
        <time>2022-08-18T07:16:08Z</time>
      </trkpt>
      <trkpt lat="45.15617" lon="1.0161">
        <ele>200.8616673</ele>
        <time>2022-08-18T07:16:12Z</time>
      </trkpt>
      <trkpt lat="45.15617" lon="1.0161">
        <ele>200.8616673</ele>
        <time>2022-08-18T07:16:16Z</time>
      </trkpt>
      <trkpt lat="45.15617" lon="1.0161">
        <ele>200.8616673</ele>
        <time>2022-08-18T07:16:20Z</time>
      </trkpt>
      <trkpt lat="45.15617" lon="1.0161">
        <ele>200.8616673</ele>
        <time>2022-08-18T07:16:24Z</time>
      </trkpt>
      <trkpt lat="45.15617" lon="1.0161">
        <ele>200.8616673</ele>
        <time>2022-08-18T07:16:28Z</time>
      </trkpt>
      <trkpt lat="45.15617" lon="1.0161">
        <ele>200.8616673</ele>
        <time>2022-08-18T07:16:32Z</time>
      </trkpt>
      <trkpt lat="45.15617" lon="1.0161">
        <ele>200.8616673</ele>
        <time>2022-08-18T07:16:36Z</time>
      </trkpt>
      <trkpt lat="45.15617" lon="1.0161">
        <ele>200.8616673</ele>
        <time>2022-08-18T07:16:40Z</time>
      </trkpt>
      <trkpt lat="45.15617" lon="1.0161">
        <ele>200.8616673</ele>
        <time>2022-08-18T07:16:44Z</time>
      </trkpt>
      <trkpt lat="45.15617" lon="1.0161">
        <ele>200.8616673</ele>
        <time>2022-08-18T07:16:48Z</time>
      </trkpt>
      <trkpt lat="45.15617" lon="1.0161">
        <ele>200.8616673</ele>
        <time>2022-08-18T07:16:52Z</time>
      </trkpt>
      <trkpt lat="45.15617" lon="1.0161">
        <ele>200.8616673</ele>
        <time>2022-08-18T07:16:56Z</time>
      </trkpt>
      <trkpt lat="45.15617" lon="1.0161">
        <ele>200.8616673</ele>
        <time>2022-08-18T07:17:00Z</time>
      </trkpt>
      <trkpt lat="45.15617" lon="1.0161">
        <ele>200.8616673</ele>
        <time>2022-08-18T07:17:04Z</time>
      </trkpt>
      <trkpt lat="45.15617" lon="1.0161">
        <ele>200.8616673</ele>
        <time>2022-08-18T07:17:08Z</time>
      </trkpt>
      <trkpt lat="45.15617" lon="1.0161">
        <ele>200.8616673</ele>
        <time>2022-08-18T07:17:12Z</time>
      </trkpt>
      <trkpt lat="45.15617" lon="1.0161">
        <ele>200.8616673</ele>
        <time>2022-08-18T07:17:16Z</time>
      </trkpt>
      <trkpt lat="45.15617" lon="1.0161">
        <ele>200.8616673</ele>
        <time>2022-08-18T07:17:20Z</time>
      </trkpt>
      <trkpt lat="45.15617" lon="1.0161">
        <ele>200.8616673</ele>
        <time>2022-08-18T07:17:24Z</time>
      </trkpt>
      <trkpt lat="45.15617" lon="1.0161">
        <ele>200.8616673</ele>
        <time>2022-08-18T07:17:28Z</time>
      </trkpt>
      <trkpt lat="45.15617" lon="1.0161">
        <ele>200.8616673</ele>
        <time>2022-08-18T07:17:32Z</time>
      </trkpt>
      <trkpt lat="45.15617" lon="1.0161">
        <ele>200.8616673</ele>
        <time>2022-08-18T07:17:36Z</time>
      </trkpt>
      <trkpt lat="45.15617" lon="1.0161">
        <ele>200.8616673</ele>
        <time>2022-08-18T07:17:40Z</time>
      </trkpt>
      <trkpt lat="45.15617" lon="1.0161">
        <ele>200.8616673</ele>
        <time>2022-08-18T07:17:44Z</time>
      </trkpt>
      <trkpt lat="45.15617" lon="1.0161">
        <ele>200.8616673</ele>
        <time>2022-08-18T07:17:48Z</time>
      </trkpt>
      <trkpt lat="45.15617" lon="1.0161">
        <ele>200.8616673</ele>
        <time>2022-08-18T07:17:52Z</time>
      </trkpt>
      <trkpt lat="45.15617" lon="1.0161">
        <ele>200.8616673</ele>
        <time>2022-08-18T07:17:56Z</time>
      </trkpt>
      <trkpt lat="45.15617" lon="1.0161">
        <ele>200.8616673</ele>
        <time>2022-08-18T07:18:00Z</time>
      </trkpt>
      <trkpt lat="45.15617" lon="1.0161">
        <ele>200.8616673</ele>
        <time>2022-08-18T07:18:04Z</time>
      </trkpt>
      <trkpt lat="45.15617" lon="1.0161">
        <ele>200.8616673</ele>
        <time>2022-08-18T07:18:08Z</time>
      </trkpt>
      <trkpt lat="45.15617" lon="1.0161">
        <ele>200.8616673</ele>
        <time>2022-08-18T07:18:12Z</time>
      </trkpt>
      <trkpt lat="45.15617" lon="1.0161">
        <ele>200.8616673</ele>
        <time>2022-08-18T07:18:16Z</time>
      </trkpt>
      <trkpt lat="45.15617" lon="1.01609">
        <ele>203.2369859</ele>
        <time>2022-08-18T07:18:20Z</time>
      </trkpt>
      <trkpt lat="45.15619" lon="1.01608">
        <ele>203.7370775</ele>
        <time>2022-08-18T07:18:22Z</time>
      </trkpt>
      <trkpt lat="45.1562" lon="1.01606">
        <ele>203.5876209</ele>
        <time>2022-08-18T07:18:24Z</time>
      </trkpt>
      <trkpt lat="45.1562" lon="1.01605">
        <ele>202.8599704</ele>
        <time>2022-08-18T07:18:26Z</time>
      </trkpt>
      <trkpt lat="45.1562" lon="1.01602">
        <ele>202.8302868</ele>
        <time>2022-08-18T07:18:28Z</time>
      </trkpt>
      <trkpt lat="45.1562" lon="1.01601">
        <ele>202.4950975</ele>
        <time>2022-08-18T07:18:30Z</time>
      </trkpt>
      <trkpt lat="45.15621" lon="1.016">
        <ele>202.200385</ele>
        <time>2022-08-18T07:18:32Z</time>
      </trkpt>
      <trkpt lat="45.15621" lon="1.01599">
        <ele>201.8299522</ele>
        <time>2022-08-18T07:18:34Z</time>
      </trkpt>
      <trkpt lat="45.15621" lon="1.01598">
        <ele>202.1823317</ele>
        <time>2022-08-18T07:18:36Z</time>
      </trkpt>
      <trkpt lat="45.15622" lon="1.01597">
        <ele>201.1449883</ele>
        <time>2022-08-18T07:18:38Z</time>
      </trkpt>
      <trkpt lat="45.15624" lon="1.01596">
        <ele>200.545641</ele>
        <time>2022-08-18T07:18:40Z</time>
      </trkpt>
      <trkpt lat="45.15625" lon="1.01595">
        <ele>201.1514523</ele>
        <time>2022-08-18T07:18:42Z</time>
      </trkpt>
      <trkpt lat="45.15626" lon="1.01594">
        <ele>201.2196952</ele>
        <time>2022-08-18T07:18:44Z</time>
      </trkpt>
      <trkpt lat="45.15627" lon="1.01593">
        <ele>201.5033071</ele>
        <time>2022-08-18T07:18:46Z</time>
      </trkpt>
      <trkpt lat="45.15628" lon="1.01592">
        <ele>201.4312745</ele>
        <time>2022-08-18T07:18:48Z</time>
      </trkpt>
      <trkpt lat="45.1563" lon="1.01591">
        <ele>201.1511278</ele>
        <time>2022-08-18T07:18:50Z</time>
      </trkpt>
      <trkpt lat="45.15631" lon="1.01591">
        <ele>200.7098582</ele>
        <time>2022-08-18T07:18:52Z</time>
      </trkpt>
      <trkpt lat="45.15632" lon="1.0159">
        <ele>200.388613</ele>
        <time>2022-08-18T07:18:54Z</time>
      </trkpt>
      <trkpt lat="45.15632" lon="1.01589">
        <ele>200.5082127</ele>
        <time>2022-08-18T07:18:56Z</time>
      </trkpt>
      <trkpt lat="45.15633" lon="1.01586">
        <ele>200.8686866</ele>
        <time>2022-08-18T07:18:58Z</time>
      </trkpt>
      <trkpt lat="45.15634" lon="1.01583">
        <ele>201.3351883</ele>
        <time>2022-08-18T07:19:00Z</time>
      </trkpt>
      <trkpt lat="45.15635" lon="1.01582">
        <ele>201.5391538</ele>
        <time>2022-08-18T07:19:02Z</time>
      </trkpt>
      <trkpt lat="45.15636" lon="1.01581">
        <ele>201.7504143</ele>
        <time>2022-08-18T07:19:04Z</time>
      </trkpt>
      <trkpt lat="45.15637" lon="1.01579">
        <ele>201.8735194</ele>
        <time>2022-08-18T07:19:06Z</time>
      </trkpt>
      <trkpt lat="45.15637" lon="1.01578">
        <ele>202.4480321</ele>
        <time>2022-08-18T07:19:08Z</time>
      </trkpt>
      <trkpt lat="45.15637" lon="1.01578">
        <ele>202.9448657</ele>
        <time>2022-08-18T07:19:10Z</time>
      </trkpt>
      <trkpt lat="45.15637" lon="1.01577">
        <ele>203.1476878</ele>
        <time>2022-08-18T07:19:12Z</time>
      </trkpt>
      <trkpt lat="45.15637" lon="1.01577">
        <ele>203.1458895</ele>
        <time>2022-08-18T07:19:14Z</time>
      </trkpt>
      <trkpt lat="45.15637" lon="1.01577">
        <ele>203.1458895</ele>
        <time>2022-08-18T07:19:18Z</time>
      </trkpt>
      <trkpt lat="45.15636" lon="1.01578">
        <ele>202.3310068</ele>
        <time>2022-08-18T07:19:20Z</time>
      </trkpt>
      <trkpt lat="45.15636" lon="1.01578">
        <ele>202.1450396</ele>
        <time>2022-08-18T07:19:22Z</time>
      </trkpt>
      <trkpt lat="45.15636" lon="1.01579">
        <ele>202.1875471</ele>
        <time>2022-08-18T07:19:24Z</time>
      </trkpt>
      <trkpt lat="45.15635" lon="1.01579">
        <ele>202.4553204</ele>
        <time>2022-08-18T07:19:26Z</time>
      </trkpt>
      <trkpt lat="45.15636" lon="1.0158">
        <ele>202.2282728</ele>
        <time>2022-08-18T07:19:28Z</time>
      </trkpt>
      <trkpt lat="45.15635" lon="1.01582">
        <ele>202.1835065</ele>
        <time>2022-08-18T07:19:30Z</time>
      </trkpt>
      <trkpt lat="45.15635" lon="1.01585">
        <ele>202.0078431</ele>
        <time>2022-08-18T07:19:32Z</time>
      </trkpt>
      <trkpt lat="45.15635" lon="1.01587">
        <ele>201.5562222</ele>
        <time>2022-08-18T07:19:34Z</time>
      </trkpt>
      <trkpt lat="45.15636" lon="1.01587">
        <ele>201.6064081</ele>
        <time>2022-08-18T07:19:36Z</time>
      </trkpt>
      <trkpt lat="45.15636" lon="1.01587">
        <ele>201.4297761</ele>
        <time>2022-08-18T07:19:38Z</time>
      </trkpt>
      <trkpt lat="45.15636" lon="1.01588">
        <ele>201.1220142</ele>
        <time>2022-08-18T07:19:42Z</time>
      </trkpt>
      <trkpt lat="45.15636" lon="1.01588">
        <ele>201.1220142</ele>
        <time>2022-08-18T07:19:46Z</time>
      </trkpt>
      <trkpt lat="45.15636" lon="1.01588">
        <ele>201.1220142</ele>
        <time>2022-08-18T07:19:50Z</time>
      </trkpt>
      <trkpt lat="45.15638" lon="1.01589">
        <ele>200.5549696</ele>
        <time>2022-08-18T07:19:54Z</time>
      </trkpt>
      <trkpt lat="45.15638" lon="1.01589">
        <ele>200.5549696</ele>
        <time>2022-08-18T07:19:58Z</time>
      </trkpt>
      <trkpt lat="45.15638" lon="1.01589">
        <ele>200.5549696</ele>
        <time>2022-08-18T07:20:02Z</time>
      </trkpt>
      <trkpt lat="45.15638" lon="1.01589">
        <ele>200.5549696</ele>
        <time>2022-08-18T07:20:06Z</time>
      </trkpt>
      <trkpt lat="45.15638" lon="1.01589">
        <ele>200.5549696</ele>
        <time>2022-08-18T07:20:10Z</time>
      </trkpt>
      <trkpt lat="45.15638" lon="1.01589">
        <ele>200.5549696</ele>
        <time>2022-08-18T07:20:14Z</time>
      </trkpt>
      <trkpt lat="45.15636" lon="1.01588">
        <ele>201.290044</ele>
        <time>2022-08-18T07:20:18Z</time>
      </trkpt>
      <trkpt lat="45.15636" lon="1.01586">
        <ele>201.0480048</ele>
        <time>2022-08-18T07:20:20Z</time>
      </trkpt>
      <trkpt lat="45.15636" lon="1.01585">
        <ele>200.9706344</ele>
        <time>2022-08-18T07:20:22Z</time>
      </trkpt>
      <trkpt lat="45.15635" lon="1.01582">
        <ele>201.5855048</ele>
        <time>2022-08-18T07:20:24Z</time>
      </trkpt>
      <trkpt lat="45.15634" lon="1.01581">
        <ele>201.9269938</ele>
        <time>2022-08-18T07:20:26Z</time>
      </trkpt>
      <trkpt lat="45.15635" lon="1.01581">
        <ele>201.9048113</ele>
        <time>2022-08-18T07:20:28Z</time>
      </trkpt>
      <trkpt lat="45.15634" lon="1.01581">
        <ele>202.3188963</ele>
        <time>2022-08-18T07:20:30Z</time>
      </trkpt>
      <trkpt lat="45.15634" lon="1.01581">
        <ele>202.3191307</ele>
        <time>2022-08-18T07:20:32Z</time>
      </trkpt>
      <trkpt lat="45.15634" lon="1.01581">
        <ele>202.3201474</ele>
        <time>2022-08-18T07:20:34Z</time>
      </trkpt>
      <trkpt lat="45.15633" lon="1.01579">
        <ele>202.177534</ele>
        <time>2022-08-18T07:20:36Z</time>
      </trkpt>
      <trkpt lat="45.15632" lon="1.01578">
        <ele>202.5393551</ele>
        <time>2022-08-18T07:20:38Z</time>
      </trkpt>
      <trkpt lat="45.15632" lon="1.01576">
        <ele>202.758801</ele>
        <time>2022-08-18T07:20:40Z</time>
      </trkpt>
      <trkpt lat="45.15632" lon="1.01574">
        <ele>202.1352698</ele>
        <time>2022-08-18T07:20:42Z</time>
      </trkpt>
      <trkpt lat="45.15632" lon="1.01573">
        <ele>201.5871313</ele>
        <time>2022-08-18T07:20:44Z</time>
      </trkpt>
      <trkpt lat="45.15633" lon="1.01571">
        <ele>202.3443507</ele>
        <time>2022-08-18T07:20:46Z</time>
      </trkpt>
      <trkpt lat="45.15632" lon="1.01569">
        <ele>203.2392034</ele>
        <time>2022-08-18T07:20:48Z</time>
      </trkpt>
      <trkpt lat="45.15632" lon="1.01568">
        <ele>204.1719187</ele>
        <time>2022-08-18T07:20:50Z</time>
      </trkpt>
      <trkpt lat="45.15631" lon="1.01568">
        <ele>204.7735808</ele>
        <time>2022-08-18T07:20:52Z</time>
      </trkpt>
      <trkpt lat="45.15632" lon="1.01567">
        <ele>204.7525049</ele>
        <time>2022-08-18T07:20:54Z</time>
      </trkpt>
      <trkpt lat="45.15632" lon="1.01567">
        <ele>205.1267791</ele>
        <time>2022-08-18T07:20:56Z</time>
      </trkpt>
      <trkpt lat="45.15631" lon="1.01566">
        <ele>205.3326401</ele>
        <time>2022-08-18T07:20:58Z</time>
      </trkpt>
      <trkpt lat="45.15631" lon="1.01565">
        <ele>205.0865476</ele>
        <time>2022-08-18T07:21:00Z</time>
      </trkpt>
      <trkpt lat="45.1563" lon="1.01563">
        <ele>205.6069425</ele>
        <time>2022-08-18T07:21:02Z</time>
      </trkpt>
      <trkpt lat="45.15629" lon="1.01561">
        <ele>205.8081637</ele>
        <time>2022-08-18T07:21:04Z</time>
      </trkpt>
      <trkpt lat="45.15628" lon="1.0156">
        <ele>205.1033933</ele>
        <time>2022-08-18T07:21:06Z</time>
      </trkpt>
      <trkpt lat="45.15628" lon="1.01559">
        <ele>205.8453785</ele>
        <time>2022-08-18T07:21:08Z</time>
      </trkpt>
      <trkpt lat="45.15628" lon="1.01559">
        <ele>205.7990098</ele>
        <time>2022-08-18T07:21:10Z</time>
      </trkpt>
      <trkpt lat="45.15628" lon="1.01559">
        <ele>205.7508711</ele>
        <time>2022-08-18T07:21:12Z</time>
      </trkpt>
      <trkpt lat="45.15628" lon="1.01557">
        <ele>205.7127956</ele>
        <time>2022-08-18T07:21:14Z</time>
      </trkpt>
      <trkpt lat="45.15628" lon="1.01556">
        <ele>206.1356715</ele>
        <time>2022-08-18T07:21:16Z</time>
      </trkpt>
      <trkpt lat="45.15627" lon="1.01556">
        <ele>206.0318846</ele>
        <time>2022-08-18T07:21:18Z</time>
      </trkpt>
      <trkpt lat="45.15627" lon="1.01556">
        <ele>206.7938616</ele>
        <time>2022-08-18T07:21:20Z</time>
      </trkpt>
      <trkpt lat="45.15627" lon="1.01557">
        <ele>206.7717764</ele>
        <time>2022-08-18T07:21:22Z</time>
      </trkpt>
      <trkpt lat="45.15627" lon="1.01557">
        <ele>206.9008203</ele>
        <time>2022-08-18T07:21:24Z</time>
      </trkpt>
      <trkpt lat="45.15627" lon="1.01557">
        <ele>207.0447365</ele>
        <time>2022-08-18T07:21:26Z</time>
      </trkpt>
      <trkpt lat="45.15627" lon="1.01557">
        <ele>207.2425527</ele>
        <time>2022-08-18T07:21:28Z</time>
      </trkpt>
      <trkpt lat="45.15627" lon="1.01557">
        <ele>207.2416293</ele>
        <time>2022-08-18T07:21:30Z</time>
      </trkpt>
      <trkpt lat="45.15627" lon="1.01557">
        <ele>207.2416293</ele>
        <time>2022-08-18T07:21:34Z</time>
      </trkpt>
      <trkpt lat="45.15626" lon="1.01559">
        <ele>207.5030037</ele>
        <time>2022-08-18T07:21:38Z</time>
      </trkpt>
      <trkpt lat="45.15626" lon="1.01559">
        <ele>207.0288813</ele>
        <time>2022-08-18T07:21:40Z</time>
      </trkpt>
      <trkpt lat="45.15626" lon="1.01559">
        <ele>207.5412771</ele>
        <time>2022-08-18T07:21:42Z</time>
      </trkpt>
      <trkpt lat="45.15626" lon="1.01559">
        <ele>206.7441031</ele>
        <time>2022-08-18T07:21:44Z</time>
      </trkpt>
      <trkpt lat="45.15626" lon="1.01558">
        <ele>206.8984178</ele>
        <time>2022-08-18T07:21:46Z</time>
      </trkpt>
      <trkpt lat="45.15624" lon="1.01557">
        <ele>207.4166052</ele>
        <time>2022-08-18T07:21:48Z</time>
      </trkpt>
      <trkpt lat="45.15623" lon="1.01556">
        <ele>207.0961126</ele>
        <time>2022-08-18T07:21:50Z</time>
      </trkpt>
      <trkpt lat="45.15623" lon="1.01555">
        <ele>207.4395932</ele>
        <time>2022-08-18T07:21:52Z</time>
      </trkpt>
      <trkpt lat="45.15623" lon="1.01554">
        <ele>207.5780693</ele>
        <time>2022-08-18T07:21:54Z</time>
      </trkpt>
      <trkpt lat="45.15622" lon="1.01552">
        <ele>207.583791</ele>
        <time>2022-08-18T07:21:56Z</time>
      </trkpt>
      <trkpt lat="45.15622" lon="1.0155">
        <ele>207.7314475</ele>
        <time>2022-08-18T07:21:58Z</time>
      </trkpt>
      <trkpt lat="45.15621" lon="1.01551">
        <ele>207.3611714</ele>
        <time>2022-08-18T07:22:00Z</time>
      </trkpt>
      <trkpt lat="45.15619" lon="1.01554">
        <ele>207.378912</ele>
        <time>2022-08-18T07:22:02Z</time>
      </trkpt>
      <trkpt lat="45.15617" lon="1.01555">
        <ele>207.6350927</ele>
        <time>2022-08-18T07:22:04Z</time>
      </trkpt>
      <trkpt lat="45.15616" lon="1.01555">
        <ele>208.0544622</ele>
        <time>2022-08-18T07:22:06Z</time>
      </trkpt>
      <trkpt lat="45.15615" lon="1.01555">
        <ele>208.320783</ele>
        <time>2022-08-18T07:22:08Z</time>
      </trkpt>
      <trkpt lat="45.15615" lon="1.01554">
        <ele>208.7253287</ele>
        <time>2022-08-18T07:22:10Z</time>
      </trkpt>
      <trkpt lat="45.15614" lon="1.01555">
        <ele>209.7720603</ele>
        <time>2022-08-18T07:22:12Z</time>
      </trkpt>
      <trkpt lat="45.15614" lon="1.01556">
        <ele>210.5076243</ele>
        <time>2022-08-18T07:22:14Z</time>
      </trkpt>
      <trkpt lat="45.15614" lon="1.01556">
        <ele>210.2013128</ele>
        <time>2022-08-18T07:22:16Z</time>
      </trkpt>
      <trkpt lat="45.15613" lon="1.01557">
        <ele>210.3484336</ele>
        <time>2022-08-18T07:22:18Z</time>
      </trkpt>
      <trkpt lat="45.15612" lon="1.01557">
        <ele>211.19617</ele>
        <time>2022-08-18T07:22:20Z</time>
      </trkpt>
      <trkpt lat="45.15612" lon="1.01557">
        <ele>211.9506793</ele>
        <time>2022-08-18T07:22:22Z</time>
      </trkpt>
      <trkpt lat="45.15612" lon="1.01556">
        <ele>212.1269701</ele>
        <time>2022-08-18T07:22:24Z</time>
      </trkpt>
      <trkpt lat="45.15612" lon="1.01556">
        <ele>212.2747593</ele>
        <time>2022-08-18T07:22:26Z</time>
      </trkpt>
      <trkpt lat="45.15612" lon="1.01556">
        <ele>212.2352256</ele>
        <time>2022-08-18T07:22:28Z</time>
      </trkpt>
      <trkpt lat="45.15612" lon="1.01556">
        <ele>212.2352256</ele>
        <time>2022-08-18T07:22:32Z</time>
      </trkpt>
      <trkpt lat="45.15612" lon="1.01556">
        <ele>212.2352256</ele>
        <time>2022-08-18T07:22:36Z</time>
      </trkpt>
      <trkpt lat="45.15612" lon="1.01558">
        <ele>213.3167513</ele>
        <time>2022-08-18T07:22:38Z</time>
      </trkpt>
      <trkpt lat="45.15612" lon="1.01558">
        <ele>213.3167513</ele>
        <time>2022-08-18T07:22:42Z</time>
      </trkpt>
      <trkpt lat="45.15612" lon="1.01558">
        <ele>213.3167513</ele>
        <time>2022-08-18T07:22:46Z</time>
      </trkpt>
      <trkpt lat="45.15609" lon="1.01557">
        <ele>213.4467671</ele>
        <time>2022-08-18T07:22:48Z</time>
      </trkpt>
      <trkpt lat="45.15609" lon="1.01558">
        <ele>212.966693</ele>
        <time>2022-08-18T07:22:50Z</time>
      </trkpt>
      <trkpt lat="45.15609" lon="1.01557">
        <ele>211.5767355</ele>
        <time>2022-08-18T07:22:52Z</time>
      </trkpt>
      <trkpt lat="45.15609" lon="1.01557">
        <ele>210.7541409</ele>
        <time>2022-08-18T07:22:54Z</time>
      </trkpt>
      <trkpt lat="45.15608" lon="1.01557">
        <ele>210.1022332</ele>
        <time>2022-08-18T07:22:56Z</time>
      </trkpt>
      <trkpt lat="45.15608" lon="1.01557">
        <ele>209.826585</ele>
        <time>2022-08-18T07:22:58Z</time>
      </trkpt>
      <trkpt lat="45.15608" lon="1.01557">
        <ele>209.826585</ele>
        <time>2022-08-18T07:23:02Z</time>
      </trkpt>
      <trkpt lat="45.15608" lon="1.01557">
        <ele>209.826585</ele>
        <time>2022-08-18T07:23:06Z</time>
      </trkpt>
      <trkpt lat="45.15608" lon="1.01557">
        <ele>209.826585</ele>
        <time>2022-08-18T07:23:10Z</time>
      </trkpt>
      <trkpt lat="45.15607" lon="1.01556">
        <ele>208.968167</ele>
        <time>2022-08-18T07:23:14Z</time>
      </trkpt>
      <trkpt lat="45.15607" lon="1.01556">
        <ele>209.0343271</ele>
        <time>2022-08-18T07:23:16Z</time>
      </trkpt>
      <trkpt lat="45.15607" lon="1.01557">
        <ele>209.6312182</ele>
        <time>2022-08-18T07:23:20Z</time>
      </trkpt>
      <trkpt lat="45.15607" lon="1.01557">
        <ele>209.7286456</ele>
        <time>2022-08-18T07:23:22Z</time>
      </trkpt>
      <trkpt lat="45.15607" lon="1.01557">
        <ele>210.2511496</ele>
        <time>2022-08-18T07:23:24Z</time>
      </trkpt>
      <trkpt lat="45.15607" lon="1.01557">
        <ele>210.079279</ele>
        <time>2022-08-18T07:23:26Z</time>
      </trkpt>
      <trkpt lat="45.15607" lon="1.01557">
        <ele>210.0551815</ele>
        <time>2022-08-18T07:23:28Z</time>
      </trkpt>
      <trkpt lat="45.15607" lon="1.01557">
        <ele>210.5971046</ele>
        <time>2022-08-18T07:23:30Z</time>
      </trkpt>
      <trkpt lat="45.15607" lon="1.01558">
        <ele>209.2694151</ele>
        <time>2022-08-18T07:23:32Z</time>
      </trkpt>
      <trkpt lat="45.15607" lon="1.01559">
        <ele>208.1752147</ele>
        <time>2022-08-18T07:23:34Z</time>
      </trkpt>
      <trkpt lat="45.15608" lon="1.0156">
        <ele>207.6990855</ele>
        <time>2022-08-18T07:23:36Z</time>
      </trkpt>
      <trkpt lat="45.15609" lon="1.01561">
        <ele>207.5314598</ele>
        <time>2022-08-18T07:23:38Z</time>
      </trkpt>
      <trkpt lat="45.15609" lon="1.01561">
        <ele>206.8703336</ele>
        <time>2022-08-18T07:23:40Z</time>
      </trkpt>
      <trkpt lat="45.15609" lon="1.0156">
        <ele>207.2949772</ele>
        <time>2022-08-18T07:23:42Z</time>
      </trkpt>
      <trkpt lat="45.15608" lon="1.0156">
        <ele>207.540969</ele>
        <time>2022-08-18T07:23:44Z</time>
      </trkpt>
      <trkpt lat="45.15609" lon="1.0156">
        <ele>207.5256405</ele>
        <time>2022-08-18T07:23:46Z</time>
      </trkpt>
      <trkpt lat="45.1561" lon="1.01561">
        <ele>206.8641858</ele>
        <time>2022-08-18T07:23:48Z</time>
      </trkpt>
      <trkpt lat="45.1561" lon="1.01563">
        <ele>206.8170047</ele>
        <time>2022-08-18T07:23:50Z</time>
      </trkpt>
      <trkpt lat="45.1561" lon="1.01565">
        <ele>206.4077125</ele>
        <time>2022-08-18T07:23:52Z</time>
      </trkpt>
      <trkpt lat="45.1561" lon="1.01568">
        <ele>205.7819529</ele>
        <time>2022-08-18T07:23:54Z</time>
      </trkpt>
      <trkpt lat="45.15609" lon="1.0157">
        <ele>205.6351846</ele>
        <time>2022-08-18T07:23:56Z</time>
      </trkpt>
      <trkpt lat="45.1561" lon="1.01572">
        <ele>204.8967731</ele>
        <time>2022-08-18T07:23:58Z</time>
      </trkpt>
      <trkpt lat="45.15611" lon="1.01574">
        <ele>204.7069009</ele>
        <time>2022-08-18T07:24:00Z</time>
      </trkpt>
      <trkpt lat="45.15612" lon="1.01576">
        <ele>204.4718513</ele>
        <time>2022-08-18T07:24:02Z</time>
      </trkpt>
      <trkpt lat="45.15613" lon="1.01578">
        <ele>204.8889282</ele>
        <time>2022-08-18T07:24:04Z</time>
      </trkpt>
      <trkpt lat="45.15614" lon="1.01579">
        <ele>204.3090512</ele>
        <time>2022-08-18T07:24:06Z</time>
      </trkpt>
      <trkpt lat="45.15616" lon="1.0158">
        <ele>204.3323027</ele>
        <time>2022-08-18T07:24:08Z</time>
      </trkpt>
      <trkpt lat="45.15616" lon="1.01579">
        <ele>204.5225659</ele>
        <time>2022-08-18T07:24:10Z</time>
      </trkpt>
      <trkpt lat="45.15617" lon="1.01579">
        <ele>204.5386055</ele>
        <time>2022-08-18T07:24:12Z</time>
      </trkpt>
      <trkpt lat="45.15617" lon="1.01578">
        <ele>204.7307515</ele>
        <time>2022-08-18T07:24:14Z</time>
      </trkpt>
      <trkpt lat="45.15616" lon="1.0158">
        <ele>204.4041456</ele>
        <time>2022-08-18T07:24:16Z</time>
      </trkpt>
      <trkpt lat="45.15615" lon="1.01583">
        <ele>204.1907796</ele>
        <time>2022-08-18T07:24:18Z</time>
      </trkpt>
      <trkpt lat="45.15614" lon="1.01585">
        <ele>204.5944389</ele>
        <time>2022-08-18T07:24:20Z</time>
      </trkpt>
      <trkpt lat="45.15613" lon="1.01587">
        <ele>204.3506752</ele>
        <time>2022-08-18T07:24:22Z</time>
      </trkpt>
      <trkpt lat="45.15613" lon="1.01587">
        <ele>203.5633492</ele>
        <time>2022-08-18T07:24:24Z</time>
      </trkpt>
      <trkpt lat="45.15612" lon="1.01587">
        <ele>204.1947623</ele>
        <time>2022-08-18T07:24:26Z</time>
      </trkpt>
      <trkpt lat="45.15612" lon="1.01588">
        <ele>204.074361</ele>
        <time>2022-08-18T07:24:28Z</time>
      </trkpt>
      <trkpt lat="45.15612" lon="1.0159">
        <ele>203.3901908</ele>
        <time>2022-08-18T07:24:30Z</time>
      </trkpt>
      <trkpt lat="45.15613" lon="1.01591">
        <ele>203.227714</ele>
        <time>2022-08-18T07:24:32Z</time>
      </trkpt>
      <trkpt lat="45.15614" lon="1.01592">
        <ele>202.5761462</ele>
        <time>2022-08-18T07:24:34Z</time>
      </trkpt>
      <trkpt lat="45.15615" lon="1.01593">
        <ele>202.3851715</ele>
        <time>2022-08-18T07:24:36Z</time>
      </trkpt>
      <trkpt lat="45.15616" lon="1.01594">
        <ele>202.9886553</ele>
        <time>2022-08-18T07:24:38Z</time>
      </trkpt>
      <trkpt lat="45.15618" lon="1.01594">
        <ele>202.6236773</ele>
        <time>2022-08-18T07:24:40Z</time>
      </trkpt>
      <trkpt lat="45.15619" lon="1.01593">
        <ele>201.9597698</ele>
        <time>2022-08-18T07:24:42Z</time>
      </trkpt>
      <trkpt lat="45.1562" lon="1.01594">
        <ele>202.0262558</ele>
        <time>2022-08-18T07:24:44Z</time>
      </trkpt>
      <trkpt lat="45.15621" lon="1.01593">
        <ele>201.9972623</ele>
        <time>2022-08-18T07:24:46Z</time>
      </trkpt>
      <trkpt lat="45.15623" lon="1.01594">
        <ele>202.0271215</ele>
        <time>2022-08-18T07:24:48Z</time>
      </trkpt>
      <trkpt lat="45.15625" lon="1.01593">
        <ele>200.9838141</ele>
        <time>2022-08-18T07:24:50Z</time>
      </trkpt>
      <trkpt lat="45.15626" lon="1.01593">
        <ele>201.4412457</ele>
        <time>2022-08-18T07:24:52Z</time>
      </trkpt>
      <trkpt lat="45.15626" lon="1.01593">
        <ele>201.0528204</ele>
        <time>2022-08-18T07:24:54Z</time>
      </trkpt>
      <trkpt lat="45.15626" lon="1.01593">
        <ele>201.7480707</ele>
        <time>2022-08-18T07:24:56Z</time>
      </trkpt>
      <trkpt lat="45.15626" lon="1.01594">
        <ele>202.4494033</ele>
        <time>2022-08-18T07:24:58Z</time>
      </trkpt>
      <trkpt lat="45.15626" lon="1.01593">
        <ele>201.9259232</ele>
        <time>2022-08-18T07:25:02Z</time>
      </trkpt>
      <trkpt lat="45.15625" lon="1.01593">
        <ele>202.2901316</ele>
        <time>2022-08-18T07:25:04Z</time>
      </trkpt>
      <trkpt lat="45.15625" lon="1.01593">
        <ele>202.2992889</ele>
        <time>2022-08-18T07:25:06Z</time>
      </trkpt>
      <trkpt lat="45.15625" lon="1.01593">
        <ele>202.2992889</ele>
        <time>2022-08-18T07:25:10Z</time>
      </trkpt>
      <trkpt lat="45.15626" lon="1.01597">
        <ele>203.0860232</ele>
        <time>2022-08-18T07:25:14Z</time>
      </trkpt>
      <trkpt lat="45.15626" lon="1.01596">
        <ele>202.5271366</ele>
        <time>2022-08-18T07:25:16Z</time>
      </trkpt>
      <trkpt lat="45.15626" lon="1.01596">
        <ele>202.9925659</ele>
        <time>2022-08-18T07:25:18Z</time>
      </trkpt>
      <trkpt lat="45.15626" lon="1.01596">
        <ele>202.9596647</ele>
        <time>2022-08-18T07:25:20Z</time>
      </trkpt>
      <trkpt lat="45.15627" lon="1.01596">
        <ele>202.695752</ele>
        <time>2022-08-18T07:25:22Z</time>
      </trkpt>
      <trkpt lat="45.15627" lon="1.01596">
        <ele>202.7636298</ele>
        <time>2022-08-18T07:25:24Z</time>
      </trkpt>
      <trkpt lat="45.15627" lon="1.01596">
        <ele>202.7636298</ele>
        <time>2022-08-18T07:25:28Z</time>
      </trkpt>
      <trkpt lat="45.15627" lon="1.01596">
        <ele>202.7636298</ele>
        <time>2022-08-18T07:25:32Z</time>
      </trkpt>
      <trkpt lat="45.15627" lon="1.01594">
        <ele>202.5729645</ele>
        <time>2022-08-18T07:25:36Z</time>
      </trkpt>
      <trkpt lat="45.15627" lon="1.01595">
        <ele>202.6707663</ele>
        <time>2022-08-18T07:25:38Z</time>
      </trkpt>
      <trkpt lat="45.15627" lon="1.01596">
        <ele>202.8222464</ele>
        <time>2022-08-18T07:25:40Z</time>
      </trkpt>
      <trkpt lat="45.15627" lon="1.01596">
        <ele>203.4233086</ele>
        <time>2022-08-18T07:25:42Z</time>
      </trkpt>
      <trkpt lat="45.15627" lon="1.01597">
        <ele>203.2992461</ele>
        <time>2022-08-18T07:25:44Z</time>
      </trkpt>
      <trkpt lat="45.15627" lon="1.01597">
        <ele>203.3800101</ele>
        <time>2022-08-18T07:25:46Z</time>
      </trkpt>
      <trkpt lat="45.15628" lon="1.01598">
        <ele>203.9579186</ele>
        <time>2022-08-18T07:25:48Z</time>
      </trkpt>
      <trkpt lat="45.15627" lon="1.01599">
        <ele>203.9065985</ele>
        <time>2022-08-18T07:25:50Z</time>
      </trkpt>
      <trkpt lat="45.15627" lon="1.01597">
        <ele>203.4252975</ele>
        <time>2022-08-18T07:25:52Z</time>
      </trkpt>
      <trkpt lat="45.15626" lon="1.01597">
        <ele>203.2250736</ele>
        <time>2022-08-18T07:25:54Z</time>
      </trkpt>
      <trkpt lat="45.15626" lon="1.01597">
        <ele>203.2487686</ele>
        <time>2022-08-18T07:25:56Z</time>
      </trkpt>
      <trkpt lat="45.15626" lon="1.01597">
        <ele>202.8582985</ele>
        <time>2022-08-18T07:26:00Z</time>
      </trkpt>
      <trkpt lat="45.15626" lon="1.01599">
        <ele>202.1329704</ele>
        <time>2022-08-18T07:26:02Z</time>
      </trkpt>
      <trkpt lat="45.15626" lon="1.01597">
        <ele>201.8477313</ele>
        <time>2022-08-18T07:26:04Z</time>
      </trkpt>
      <trkpt lat="45.15625" lon="1.01596">
        <ele>203.2142562</ele>
        <time>2022-08-18T07:26:06Z</time>
      </trkpt>
      <trkpt lat="45.15625" lon="1.01596">
        <ele>203.2142562</ele>
        <time>2022-08-18T07:26:10Z</time>
      </trkpt>
      <trkpt lat="45.15625" lon="1.01596">
        <ele>203.2142562</ele>
        <time>2022-08-18T07:26:14Z</time>
      </trkpt>
      <trkpt lat="45.15625" lon="1.01596">
        <ele>203.2142562</ele>
        <time>2022-08-18T07:26:18Z</time>
      </trkpt>
      <trkpt lat="45.15625" lon="1.01595">
        <ele>201.9046209</ele>
        <time>2022-08-18T07:26:20Z</time>
      </trkpt>
      <trkpt lat="45.15625" lon="1.01595">
        <ele>201.9124827</ele>
        <time>2022-08-18T07:26:22Z</time>
      </trkpt>
      <trkpt lat="45.15625" lon="1.01595">
        <ele>202.1292415</ele>
        <time>2022-08-18T07:26:24Z</time>
      </trkpt>
      <trkpt lat="45.15625" lon="1.01595">
        <ele>202.129774</ele>
        <time>2022-08-18T07:26:26Z</time>
      </trkpt>
      <trkpt lat="45.15625" lon="1.01595">
        <ele>201.7248343</ele>
        <time>2022-08-18T07:26:28Z</time>
      </trkpt>
      <trkpt lat="45.15625" lon="1.01595">
        <ele>201.669245</ele>
        <time>2022-08-18T07:26:30Z</time>
      </trkpt>
      <trkpt lat="45.15625" lon="1.01594">
        <ele>201.4670375</ele>
        <time>2022-08-18T07:26:32Z</time>
      </trkpt>
      <trkpt lat="45.15625" lon="1.01594">
        <ele>201.0424256</ele>
        <time>2022-08-18T07:26:34Z</time>
      </trkpt>
      <trkpt lat="45.15625" lon="1.01594">
        <ele>200.8909564</ele>
        <time>2022-08-18T07:26:36Z</time>
      </trkpt>
      <trkpt lat="45.15625" lon="1.01593">
        <ele>201.0432301</ele>
        <time>2022-08-18T07:26:38Z</time>
      </trkpt>
      <trkpt lat="45.15626" lon="1.01593">
        <ele>200.7452755</ele>
        <time>2022-08-18T07:26:40Z</time>
      </trkpt>
      <trkpt lat="45.15626" lon="1.01593">
        <ele>201.2928357</ele>
        <time>2022-08-18T07:26:42Z</time>
      </trkpt>
      <trkpt lat="45.15626" lon="1.01593">
        <ele>201.4046803</ele>
        <time>2022-08-18T07:26:44Z</time>
      </trkpt>
      <trkpt lat="45.15626" lon="1.01593">
        <ele>201.6352651</ele>
        <time>2022-08-18T07:26:46Z</time>
      </trkpt>
      <trkpt lat="45.15626" lon="1.01593">
        <ele>201.5386992</ele>
        <time>2022-08-18T07:26:48Z</time>
      </trkpt>
      <trkpt lat="45.15626" lon="1.01593">
        <ele>201.9100954</ele>
        <time>2022-08-18T07:26:50Z</time>
      </trkpt>
      <trkpt lat="45.15626" lon="1.01594">
        <ele>202.2134414</ele>
        <time>2022-08-18T07:26:52Z</time>
      </trkpt>
      <trkpt lat="45.15626" lon="1.01594">
        <ele>202.5612171</ele>
        <time>2022-08-18T07:26:54Z</time>
      </trkpt>
      <trkpt lat="45.15626" lon="1.01594">
        <ele>202.4301567</ele>
        <time>2022-08-18T07:26:56Z</time>
      </trkpt>
      <trkpt lat="45.15625" lon="1.01594">
        <ele>203.0338286</ele>
        <time>2022-08-18T07:26:58Z</time>
      </trkpt>
      <trkpt lat="45.15625" lon="1.01594">
        <ele>203.1307719</ele>
        <time>2022-08-18T07:27:00Z</time>
      </trkpt>
      <trkpt lat="45.15625" lon="1.01594">
        <ele>203.1654117</ele>
        <time>2022-08-18T07:27:02Z</time>
      </trkpt>
      <trkpt lat="45.15625" lon="1.01594">
        <ele>203.170271</ele>
        <time>2022-08-18T07:27:04Z</time>
      </trkpt>
      <trkpt lat="45.15626" lon="1.01593">
        <ele>202.5158075</ele>
        <time>2022-08-18T07:27:06Z</time>
      </trkpt>
      <trkpt lat="45.15626" lon="1.01593">
        <ele>202.5158075</ele>
        <time>2022-08-18T07:27:10Z</time>
      </trkpt>
      <trkpt lat="45.15626" lon="1.01593">
        <ele>202.5158075</ele>
        <time>2022-08-18T07:27:14Z</time>
      </trkpt>
      <trkpt lat="45.15626" lon="1.01593">
        <ele>202.5158075</ele>
        <time>2022-08-18T07:27:18Z</time>
      </trkpt>
      <trkpt lat="45.15626" lon="1.01593">
        <ele>202.5158075</ele>
        <time>2022-08-18T07:27:22Z</time>
      </trkpt>
      <trkpt lat="45.15626" lon="1.01593">
        <ele>202.5158075</ele>
        <time>2022-08-18T07:27:26Z</time>
      </trkpt>
      <trkpt lat="45.15626" lon="1.01593">
        <ele>202.5158075</ele>
        <time>2022-08-18T07:27:30Z</time>
      </trkpt>
      <trkpt lat="45.15624" lon="1.01591">
        <ele>200.8197953</ele>
        <time>2022-08-18T07:27:32Z</time>
      </trkpt>
      <trkpt lat="45.15624" lon="1.01591">
        <ele>200.7521254</ele>
        <time>2022-08-18T07:27:34Z</time>
      </trkpt>
      <trkpt lat="45.15625" lon="1.0159">
        <ele>200.3985393</ele>
        <time>2022-08-18T07:27:36Z</time>
      </trkpt>
      <trkpt lat="45.15625" lon="1.01591">
        <ele>200.4689346</ele>
        <time>2022-08-18T07:27:38Z</time>
      </trkpt>
      <trkpt lat="45.15625" lon="1.01592">
        <ele>200.9120176</ele>
        <time>2022-08-18T07:27:40Z</time>
      </trkpt>
      <trkpt lat="45.15625" lon="1.01592">
        <ele>200.9394893</ele>
        <time>2022-08-18T07:27:42Z</time>
      </trkpt>
      <trkpt lat="45.15625" lon="1.01592">
        <ele>201.2681507</ele>
        <time>2022-08-18T07:27:44Z</time>
      </trkpt>
      <trkpt lat="45.15625" lon="1.01592">
        <ele>201.2681507</ele>
        <time>2022-08-18T07:27:48Z</time>
      </trkpt>
      <trkpt lat="45.15625" lon="1.01592">
        <ele>201.9561458</ele>
        <time>2022-08-18T07:27:50Z</time>
      </trkpt>
      <trkpt lat="45.15626" lon="1.01592">
        <ele>201.830744</ele>
        <time>2022-08-18T07:27:52Z</time>
      </trkpt>
      <trkpt lat="45.15628" lon="1.01594">
        <ele>203.8600784</ele>
        <time>2022-08-18T07:27:54Z</time>
      </trkpt>
      <trkpt lat="45.15629" lon="1.01595">
        <ele>204.783489</ele>
        <time>2022-08-18T07:27:56Z</time>
      </trkpt>
      <trkpt lat="45.15631" lon="1.01593">
        <ele>203.4629605</ele>
        <time>2022-08-18T07:27:58Z</time>
      </trkpt>
      <trkpt lat="45.15633" lon="1.01591">
        <ele>203.103101</ele>
        <time>2022-08-18T07:28:00Z</time>
      </trkpt>
      <trkpt lat="45.15634" lon="1.01589">
        <ele>203.5382186</ele>
        <time>2022-08-18T07:28:02Z</time>
      </trkpt>
      <trkpt lat="45.15635" lon="1.01588">
        <ele>203.0655399</ele>
        <time>2022-08-18T07:28:04Z</time>
      </trkpt>
      <trkpt lat="45.15636" lon="1.01586">
        <ele>203.2262234</ele>
        <time>2022-08-18T07:28:06Z</time>
      </trkpt>
      <trkpt lat="45.15636" lon="1.01584">
        <ele>203.296203</ele>
        <time>2022-08-18T07:28:08Z</time>
      </trkpt>
      <trkpt lat="45.15635" lon="1.01583">
        <ele>204.0363494</ele>
        <time>2022-08-18T07:28:10Z</time>
      </trkpt>
      <trkpt lat="45.15635" lon="1.01581">
        <ele>205.0379976</ele>
        <time>2022-08-18T07:28:12Z</time>
      </trkpt>
      <trkpt lat="45.15635" lon="1.01579">
        <ele>205.7948007</ele>
        <time>2022-08-18T07:28:14Z</time>
      </trkpt>
      <trkpt lat="45.15635" lon="1.01579">
        <ele>206.1712887</ele>
        <time>2022-08-18T07:28:16Z</time>
      </trkpt>
      <trkpt lat="45.15633" lon="1.01577">
        <ele>206.8676685</ele>
        <time>2022-08-18T07:28:18Z</time>
      </trkpt>
      <trkpt lat="45.15632" lon="1.01576">
        <ele>207.7942799</ele>
        <time>2022-08-18T07:28:20Z</time>
      </trkpt>
      <trkpt lat="45.15633" lon="1.01573">
        <ele>208.0153815</ele>
        <time>2022-08-18T07:28:22Z</time>
      </trkpt>
      <trkpt lat="45.15633" lon="1.01572">
        <ele>208.439034</ele>
        <time>2022-08-18T07:28:24Z</time>
      </trkpt>
      <trkpt lat="45.15631" lon="1.01571">
        <ele>208.3923565</ele>
        <time>2022-08-18T07:28:26Z</time>
      </trkpt>
      <trkpt lat="45.1563" lon="1.01569">
        <ele>208.5109486</ele>
        <time>2022-08-18T07:28:28Z</time>
      </trkpt>
      <trkpt lat="45.15631" lon="1.01568">
        <ele>208.6715199</ele>
        <time>2022-08-18T07:28:30Z</time>
      </trkpt>
      <trkpt lat="45.15631" lon="1.01568">
        <ele>208.9030102</ele>
        <time>2022-08-18T07:28:32Z</time>
      </trkpt>
      <trkpt lat="45.15631" lon="1.01565">
        <ele>208.2212374</ele>
        <time>2022-08-18T07:28:34Z</time>
      </trkpt>
      <trkpt lat="45.15629" lon="1.01563">
        <ele>208.0456652</ele>
        <time>2022-08-18T07:28:36Z</time>
      </trkpt>
      <trkpt lat="45.15629" lon="1.01561">
        <ele>207.7473826</ele>
        <time>2022-08-18T07:28:38Z</time>
      </trkpt>
      <trkpt lat="45.15628" lon="1.01559">
        <ele>206.6086787</ele>
        <time>2022-08-18T07:28:40Z</time>
      </trkpt>
      <trkpt lat="45.15629" lon="1.01559">
        <ele>206.6426394</ele>
        <time>2022-08-18T07:28:42Z</time>
      </trkpt>
      <trkpt lat="45.15629" lon="1.0156">
        <ele>206.3285432</ele>
        <time>2022-08-18T07:28:44Z</time>
      </trkpt>
      <trkpt lat="45.1563" lon="1.01562">
        <ele>206.0316781</ele>
        <time>2022-08-18T07:28:46Z</time>
      </trkpt>
      <trkpt lat="45.1563" lon="1.01563">
        <ele>206.8064913</ele>
        <time>2022-08-18T07:28:48Z</time>
      </trkpt>
      <trkpt lat="45.1563" lon="1.01563">
        <ele>206.8414574</ele>
        <time>2022-08-18T07:28:50Z</time>
      </trkpt>
      <trkpt lat="45.15632" lon="1.01564">
        <ele>207.0643508</ele>
        <time>2022-08-18T07:28:52Z</time>
      </trkpt>
      <trkpt lat="45.15633" lon="1.01565">
        <ele>206.7397937</ele>
        <time>2022-08-18T07:28:54Z</time>
      </trkpt>
      <trkpt lat="45.15634" lon="1.01567">
        <ele>205.6149738</ele>
        <time>2022-08-18T07:28:56Z</time>
      </trkpt>
      <trkpt lat="45.15636" lon="1.01569">
        <ele>205.5139888</ele>
        <time>2022-08-18T07:28:58Z</time>
      </trkpt>
      <trkpt lat="45.15638" lon="1.0157">
        <ele>205.0165776</ele>
        <time>2022-08-18T07:29:00Z</time>
      </trkpt>
      <trkpt lat="45.1564" lon="1.01571">
        <ele>205.0204853</ele>
        <time>2022-08-18T07:29:02Z</time>
      </trkpt>
      <trkpt lat="45.15641" lon="1.01573">
        <ele>204.3800617</ele>
        <time>2022-08-18T07:29:04Z</time>
      </trkpt>
      <trkpt lat="45.15642" lon="1.01572">
        <ele>203.6962733</ele>
        <time>2022-08-18T07:29:06Z</time>
      </trkpt>
      <trkpt lat="45.15644" lon="1.01573">
        <ele>203.4241764</ele>
        <time>2022-08-18T07:29:08Z</time>
      </trkpt>
      <trkpt lat="45.15645" lon="1.01574">
        <ele>201.9894753</ele>
        <time>2022-08-18T07:29:10Z</time>
      </trkpt>
      <trkpt lat="45.15647" lon="1.01575">
        <ele>202.3003201</ele>
        <time>2022-08-18T07:29:12Z</time>
      </trkpt>
      <trkpt lat="45.15647" lon="1.01574">
        <ele>202.8444464</ele>
        <time>2022-08-18T07:29:14Z</time>
      </trkpt>
      <trkpt lat="45.15647" lon="1.01573">
        <ele>203.2127744</ele>
        <time>2022-08-18T07:29:16Z</time>
      </trkpt>
      <trkpt lat="45.15647" lon="1.01573">
        <ele>203.2342647</ele>
        <time>2022-08-18T07:29:18Z</time>
      </trkpt>
      <trkpt lat="45.15648" lon="1.01572">
        <ele>203.195237</ele>
        <time>2022-08-18T07:29:20Z</time>
      </trkpt>
      <trkpt lat="45.15648" lon="1.01571">
        <ele>203.4936162</ele>
        <time>2022-08-18T07:29:22Z</time>
      </trkpt>
      <trkpt lat="45.15648" lon="1.0157">
        <ele>203.9384966</ele>
        <time>2022-08-18T07:29:24Z</time>
      </trkpt>
      <trkpt lat="45.1565" lon="1.01571">
        <ele>204.422323</ele>
        <time>2022-08-18T07:29:26Z</time>
      </trkpt>
      <trkpt lat="45.15651" lon="1.01571">
        <ele>204.5225696</ele>
        <time>2022-08-18T07:29:28Z</time>
      </trkpt>
      <trkpt lat="45.15652" lon="1.01571">
        <ele>203.7038578</ele>
        <time>2022-08-18T07:29:30Z</time>
      </trkpt>
      <trkpt lat="45.15654" lon="1.01569">
        <ele>203.880111</ele>
        <time>2022-08-18T07:29:32Z</time>
      </trkpt>
      <trkpt lat="45.15655" lon="1.01568">
        <ele>203.5427454</ele>
        <time>2022-08-18T07:29:34Z</time>
      </trkpt>
      <trkpt lat="45.15657" lon="1.01567">
        <ele>203.9781584</ele>
        <time>2022-08-18T07:29:36Z</time>
      </trkpt>
      <trkpt lat="45.15658" lon="1.01565">
        <ele>204.0526035</ele>
        <time>2022-08-18T07:29:38Z</time>
      </trkpt>
      <trkpt lat="45.15659" lon="1.01564">
        <ele>204.7611489</ele>
        <time>2022-08-18T07:29:40Z</time>
      </trkpt>
      <trkpt lat="45.1566" lon="1.01563">
        <ele>205.4193439</ele>
        <time>2022-08-18T07:29:42Z</time>
      </trkpt>
      <trkpt lat="45.15661" lon="1.01562">
        <ele>205.5412541</ele>
        <time>2022-08-18T07:29:44Z</time>
      </trkpt>
      <trkpt lat="45.15662" lon="1.0156">
        <ele>205.0352178</ele>
        <time>2022-08-18T07:29:46Z</time>
      </trkpt>
      <trkpt lat="45.15663" lon="1.0156">
        <ele>205.1432237</ele>
        <time>2022-08-18T07:29:48Z</time>
      </trkpt>
      <trkpt lat="45.15664" lon="1.01559">
        <ele>206.0731089</ele>
        <time>2022-08-18T07:29:50Z</time>
      </trkpt>
      <trkpt lat="45.15665" lon="1.01559">
        <ele>206.4396498</ele>
        <time>2022-08-18T07:29:52Z</time>
      </trkpt>
      <trkpt lat="45.15667" lon="1.01558">
        <ele>206.0357977</ele>
        <time>2022-08-18T07:29:54Z</time>
      </trkpt>
      <trkpt lat="45.15668" lon="1.01557">
        <ele>205.6927139</ele>
        <time>2022-08-18T07:29:56Z</time>
      </trkpt>
      <trkpt lat="45.15669" lon="1.01556">
        <ele>205.5187819</ele>
        <time>2022-08-18T07:29:58Z</time>
      </trkpt>
      <trkpt lat="45.1567" lon="1.01555">
        <ele>205.4357971</ele>
        <time>2022-08-18T07:30:00Z</time>
      </trkpt>
      <trkpt lat="45.15671" lon="1.01554">
        <ele>205.541204</ele>
        <time>2022-08-18T07:30:02Z</time>
      </trkpt>
      <trkpt lat="45.15671" lon="1.01553">
        <ele>205.7697723</ele>
        <time>2022-08-18T07:30:04Z</time>
      </trkpt>
      <trkpt lat="45.15672" lon="1.01552">
        <ele>206.1121053</ele>
        <time>2022-08-18T07:30:06Z</time>
      </trkpt>
      <trkpt lat="45.15673" lon="1.01551">
        <ele>205.7789388</ele>
        <time>2022-08-18T07:30:08Z</time>
      </trkpt>
      <trkpt lat="45.15675" lon="1.0155">
        <ele>205.8703437</ele>
        <time>2022-08-18T07:30:10Z</time>
      </trkpt>
      <trkpt lat="45.15677" lon="1.01548">
        <ele>205.7145462</ele>
        <time>2022-08-18T07:30:12Z</time>
      </trkpt>
      <trkpt lat="45.15678" lon="1.01548">
        <ele>205.431149</ele>
        <time>2022-08-18T07:30:14Z</time>
      </trkpt>
      <trkpt lat="45.15679" lon="1.01547">
        <ele>205.732299</ele>
        <time>2022-08-18T07:30:16Z</time>
      </trkpt>
      <trkpt lat="45.15679" lon="1.01546">
        <ele>205.8146675</ele>
        <time>2022-08-18T07:30:18Z</time>
      </trkpt>
      <trkpt lat="45.1568" lon="1.01544">
        <ele>205.394635</ele>
        <time>2022-08-18T07:30:20Z</time>
      </trkpt>
      <trkpt lat="45.15681" lon="1.01544">
        <ele>204.5873879</ele>
        <time>2022-08-18T07:30:24Z</time>
      </trkpt>
      <trkpt lat="45.15682" lon="1.01544">
        <ele>204.2239322</ele>
        <time>2022-08-18T07:30:26Z</time>
      </trkpt>
      <trkpt lat="45.15682" lon="1.01544">
        <ele>203.6912777</ele>
        <time>2022-08-18T07:30:28Z</time>
      </trkpt>
      <trkpt lat="45.15683" lon="1.01544">
        <ele>203.756088</ele>
        <time>2022-08-18T07:30:30Z</time>
      </trkpt>
      <trkpt lat="45.15683" lon="1.01544">
        <ele>204.0845557</ele>
        <time>2022-08-18T07:30:34Z</time>
      </trkpt>
      <trkpt lat="45.15683" lon="1.01544">
        <ele>204.0845557</ele>
        <time>2022-08-18T07:30:38Z</time>
      </trkpt>
      <trkpt lat="45.15683" lon="1.01544">
        <ele>204.0845557</ele>
        <time>2022-08-18T07:30:42Z</time>
      </trkpt>
      <trkpt lat="45.15683" lon="1.01544">
        <ele>204.0845557</ele>
        <time>2022-08-18T07:30:46Z</time>
      </trkpt>
      <trkpt lat="45.15684" lon="1.01546">
        <ele>204.7283387</ele>
        <time>2022-08-18T07:30:48Z</time>
      </trkpt>
      <trkpt lat="45.15684" lon="1.01546">
        <ele>204.7283387</ele>
        <time>2022-08-18T07:30:52Z</time>
      </trkpt>
      <trkpt lat="45.15684" lon="1.01546">
        <ele>204.7283387</ele>
        <time>2022-08-18T07:30:56Z</time>
      </trkpt>
      <trkpt lat="45.15684" lon="1.01546">
        <ele>204.7283387</ele>
        <time>2022-08-18T07:31:00Z</time>
      </trkpt>
      <trkpt lat="45.15683" lon="1.01546">
        <ele>205.2660341</ele>
        <time>2022-08-18T07:31:02Z</time>
      </trkpt>
      <trkpt lat="45.15683" lon="1.01546">
        <ele>203.9260544</ele>
        <time>2022-08-18T07:31:06Z</time>
      </trkpt>
      <trkpt lat="45.15684" lon="1.01545">
        <ele>204.066461</ele>
        <time>2022-08-18T07:31:08Z</time>
      </trkpt>
      <trkpt lat="45.15686" lon="1.01544">
        <ele>203.6028263</ele>
        <time>2022-08-18T07:31:10Z</time>
      </trkpt>
      <trkpt lat="45.15686" lon="1.01543">
        <ele>203.2183201</ele>
        <time>2022-08-18T07:31:12Z</time>
      </trkpt>
      <trkpt lat="45.15686" lon="1.01541">
        <ele>202.7645882</ele>
        <time>2022-08-18T07:31:14Z</time>
      </trkpt>
      <trkpt lat="45.15687" lon="1.0154">
        <ele>202.7298373</ele>
        <time>2022-08-18T07:31:16Z</time>
      </trkpt>
      <trkpt lat="45.15688" lon="1.01539">
        <ele>202.3695283</ele>
        <time>2022-08-18T07:31:18Z</time>
      </trkpt>
      <trkpt lat="45.15688" lon="1.01539">
        <ele>202.6889755</ele>
        <time>2022-08-18T07:31:20Z</time>
      </trkpt>
      <trkpt lat="45.15688" lon="1.01539">
        <ele>203.144163</ele>
        <time>2022-08-18T07:31:22Z</time>
      </trkpt>
      <trkpt lat="45.15688" lon="1.01538">
        <ele>203.1320834</ele>
        <time>2022-08-18T07:31:24Z</time>
      </trkpt>
      <trkpt lat="45.15688" lon="1.01538">
        <ele>203.5505987</ele>
        <time>2022-08-18T07:31:26Z</time>
      </trkpt>
      <trkpt lat="45.15688" lon="1.01538">
        <ele>203.6138855</ele>
        <time>2022-08-18T07:31:28Z</time>
      </trkpt>
      <trkpt lat="45.15688" lon="1.01537">
        <ele>203.5266684</ele>
        <time>2022-08-18T07:31:30Z</time>
      </trkpt>
      <trkpt lat="45.15688" lon="1.01535">
        <ele>203.9279552</ele>
        <time>2022-08-18T07:31:32Z</time>
      </trkpt>
      <trkpt lat="45.15688" lon="1.01533">
        <ele>204.0925811</ele>
        <time>2022-08-18T07:31:34Z</time>
      </trkpt>
      <trkpt lat="45.15687" lon="1.0153">
        <ele>204.5357016</ele>
        <time>2022-08-18T07:31:36Z</time>
      </trkpt>
      <trkpt lat="45.15687" lon="1.01527">
        <ele>204.495127</ele>
        <time>2022-08-18T07:31:38Z</time>
      </trkpt>
      <trkpt lat="45.15687" lon="1.01524">
        <ele>204.5452953</ele>
        <time>2022-08-18T07:31:40Z</time>
      </trkpt>
      <trkpt lat="45.15686" lon="1.01522">
        <ele>204.9032083</ele>
        <time>2022-08-18T07:31:42Z</time>
      </trkpt>
      <trkpt lat="45.15686" lon="1.01519">
        <ele>204.732349</ele>
        <time>2022-08-18T07:31:44Z</time>
      </trkpt>
      <trkpt lat="45.15686" lon="1.01516">
        <ele>204.5569302</ele>
        <time>2022-08-18T07:31:46Z</time>
      </trkpt>
      <trkpt lat="45.15686" lon="1.01515">
        <ele>204.2687021</ele>
        <time>2022-08-18T07:31:48Z</time>
      </trkpt>
      <trkpt lat="45.15687" lon="1.01516">
        <ele>203.6920613</ele>
        <time>2022-08-18T07:31:50Z</time>
      </trkpt>
      <trkpt lat="45.15688" lon="1.01516">
        <ele>203.2410573</ele>
        <time>2022-08-18T07:31:52Z</time>
      </trkpt>
      <trkpt lat="45.15688" lon="1.01515">
        <ele>203.3951478</ele>
        <time>2022-08-18T07:31:54Z</time>
      </trkpt>
      <trkpt lat="45.15687" lon="1.01513">
        <ele>203.7960922</ele>
        <time>2022-08-18T07:31:56Z</time>
      </trkpt>
      <trkpt lat="45.15687" lon="1.0151">
        <ele>203.7193491</ele>
        <time>2022-08-18T07:31:58Z</time>
      </trkpt>
      <trkpt lat="45.15687" lon="1.01508">
        <ele>203.9556509</ele>
        <time>2022-08-18T07:32:00Z</time>
      </trkpt>
      <trkpt lat="45.15687" lon="1.01505">
        <ele>204.9159945</ele>
        <time>2022-08-18T07:32:02Z</time>
      </trkpt>
      <trkpt lat="45.15687" lon="1.01502">
        <ele>205.301299</ele>
        <time>2022-08-18T07:32:04Z</time>
      </trkpt>
      <trkpt lat="45.15687" lon="1.01499">
        <ele>205.6905318</ele>
        <time>2022-08-18T07:32:06Z</time>
      </trkpt>
      <trkpt lat="45.15687" lon="1.01497">
        <ele>205.8312349</ele>
        <time>2022-08-18T07:32:08Z</time>
      </trkpt>
      <trkpt lat="45.15687" lon="1.01495">
        <ele>206.3173046</ele>
        <time>2022-08-18T07:32:10Z</time>
      </trkpt>
      <trkpt lat="45.15686" lon="1.01493">
        <ele>206.353106</ele>
        <time>2022-08-18T07:32:12Z</time>
      </trkpt>
      <trkpt lat="45.15686" lon="1.01491">
        <ele>206.4354898</ele>
        <time>2022-08-18T07:32:14Z</time>
      </trkpt>
      <trkpt lat="45.15686" lon="1.01489">
        <ele>207.7732664</ele>
        <time>2022-08-18T07:32:16Z</time>
      </trkpt>
      <trkpt lat="45.15685" lon="1.01487">
        <ele>207.9797266</ele>
        <time>2022-08-18T07:32:18Z</time>
      </trkpt>
      <trkpt lat="45.15685" lon="1.01487">
        <ele>207.4711197</ele>
        <time>2022-08-18T07:32:20Z</time>
      </trkpt>
      <trkpt lat="45.15684" lon="1.01486">
        <ele>208.2778474</ele>
        <time>2022-08-18T07:32:22Z</time>
      </trkpt>
      <trkpt lat="45.15683" lon="1.01484">
        <ele>208.6794421</ele>
        <time>2022-08-18T07:32:24Z</time>
      </trkpt>
      <trkpt lat="45.15682" lon="1.01487">
        <ele>208.5675539</ele>
        <time>2022-08-18T07:32:26Z</time>
      </trkpt>
      <trkpt lat="45.15683" lon="1.01491">
        <ele>208.4650752</ele>
        <time>2022-08-18T07:32:28Z</time>
      </trkpt>
      <trkpt lat="45.15683" lon="1.01491">
        <ele>207.3722648</ele>
        <time>2022-08-18T07:32:30Z</time>
      </trkpt>
      <trkpt lat="45.15683" lon="1.01494">
        <ele>207.0406623</ele>
        <time>2022-08-18T07:32:32Z</time>
      </trkpt>
      <trkpt lat="45.15683" lon="1.01496">
        <ele>207.4441783</ele>
        <time>2022-08-18T07:32:34Z</time>
      </trkpt>
      <trkpt lat="45.15683" lon="1.01499">
        <ele>207.9130166</ele>
        <time>2022-08-18T07:32:36Z</time>
      </trkpt>
      <trkpt lat="45.15682" lon="1.01501">
        <ele>206.4389351</ele>
        <time>2022-08-18T07:32:38Z</time>
      </trkpt>
      <trkpt lat="45.15683" lon="1.01503">
        <ele>206.1803676</ele>
        <time>2022-08-18T07:32:40Z</time>
      </trkpt>
      <trkpt lat="45.15683" lon="1.01505">
        <ele>206.0453524</ele>
        <time>2022-08-18T07:32:42Z</time>
      </trkpt>
      <trkpt lat="45.15683" lon="1.01508">
        <ele>206.1803647</ele>
        <time>2022-08-18T07:32:44Z</time>
      </trkpt>
      <trkpt lat="45.15683" lon="1.01509">
        <ele>206.0524487</ele>
        <time>2022-08-18T07:32:46Z</time>
      </trkpt>
      <trkpt lat="45.15683" lon="1.01511">
        <ele>205.642444</ele>
        <time>2022-08-18T07:32:48Z</time>
      </trkpt>
      <trkpt lat="45.15684" lon="1.01512">
        <ele>205.7459216</ele>
        <time>2022-08-18T07:32:50Z</time>
      </trkpt>
      <trkpt lat="45.15684" lon="1.01513">
        <ele>205.3207559</ele>
        <time>2022-08-18T07:32:52Z</time>
      </trkpt>
      <trkpt lat="45.15685" lon="1.01515">
        <ele>205.1492317</ele>
        <time>2022-08-18T07:32:54Z</time>
      </trkpt>
      <trkpt lat="45.15684" lon="1.01516">
        <ele>204.4166968</ele>
        <time>2022-08-18T07:32:56Z</time>
      </trkpt>
      <trkpt lat="45.15684" lon="1.01518">
        <ele>203.5659672</ele>
        <time>2022-08-18T07:32:58Z</time>
      </trkpt>
      <trkpt lat="45.15685" lon="1.0152">
        <ele>203.0867428</ele>
        <time>2022-08-18T07:33:00Z</time>
      </trkpt>
      <trkpt lat="45.15686" lon="1.01519">
        <ele>203.1276614</ele>
        <time>2022-08-18T07:33:02Z</time>
      </trkpt>
      <trkpt lat="45.15687" lon="1.01519">
        <ele>203.4528319</ele>
        <time>2022-08-18T07:33:04Z</time>
      </trkpt>
      <trkpt lat="45.15688" lon="1.01519">
        <ele>203.3905012</ele>
        <time>2022-08-18T07:33:06Z</time>
      </trkpt>
      <trkpt lat="45.15689" lon="1.01519">
        <ele>203.6547501</ele>
        <time>2022-08-18T07:33:08Z</time>
      </trkpt>
      <trkpt lat="45.15689" lon="1.01519">
        <ele>203.5818715</ele>
        <time>2022-08-18T07:33:10Z</time>
      </trkpt>
      <trkpt lat="45.15689" lon="1.01519">
        <ele>204.1978287</ele>
        <time>2022-08-18T07:33:12Z</time>
      </trkpt>
      <trkpt lat="45.15689" lon="1.01519">
        <ele>204.1978287</ele>
        <time>2022-08-18T07:33:16Z</time>
      </trkpt>
      <trkpt lat="45.15689" lon="1.01519">
        <ele>203.9281971</ele>
        <time>2022-08-18T07:33:20Z</time>
      </trkpt>
      <trkpt lat="45.15689" lon="1.0152">
        <ele>203.6818925</ele>
        <time>2022-08-18T07:33:22Z</time>
      </trkpt>
      <trkpt lat="45.15689" lon="1.01521">
        <ele>203.1770344</ele>
        <time>2022-08-18T07:33:24Z</time>
      </trkpt>
      <trkpt lat="45.15689" lon="1.01522">
        <ele>203.1947174</ele>
        <time>2022-08-18T07:33:26Z</time>
      </trkpt>
      <trkpt lat="45.15689" lon="1.01525">
        <ele>202.45828</ele>
        <time>2022-08-18T07:33:28Z</time>
      </trkpt>
      <trkpt lat="45.15689" lon="1.01527">
        <ele>200.8275575</ele>
        <time>2022-08-18T07:33:30Z</time>
      </trkpt>
      <trkpt lat="45.1569" lon="1.01528">
        <ele>200.7107726</ele>
        <time>2022-08-18T07:33:32Z</time>
      </trkpt>
      <trkpt lat="45.15691" lon="1.0153">
        <ele>200.3936191</ele>
        <time>2022-08-18T07:33:34Z</time>
      </trkpt>
      <trkpt lat="45.15691" lon="1.01532">
        <ele>200.6571495</ele>
        <time>2022-08-18T07:33:36Z</time>
      </trkpt>
      <trkpt lat="45.1569" lon="1.01534">
        <ele>200.5207165</ele>
        <time>2022-08-18T07:33:38Z</time>
      </trkpt>
      <trkpt lat="45.1569" lon="1.01537">
        <ele>200.9123437</ele>
        <time>2022-08-18T07:33:40Z</time>
      </trkpt>
      <trkpt lat="45.1569" lon="1.01536">
        <ele>201.4128298</ele>
        <time>2022-08-18T07:33:42Z</time>
      </trkpt>
      <trkpt lat="45.1569" lon="1.01537">
        <ele>201.8693527</ele>
        <time>2022-08-18T07:33:44Z</time>
      </trkpt>
      <trkpt lat="45.1569" lon="1.01538">
        <ele>202.3601936</ele>
        <time>2022-08-18T07:33:46Z</time>
      </trkpt>
      <trkpt lat="45.1569" lon="1.01539">
        <ele>202.1977839</ele>
        <time>2022-08-18T07:33:48Z</time>
      </trkpt>
      <trkpt lat="45.1569" lon="1.01539">
        <ele>202.2022026</ele>
        <time>2022-08-18T07:33:50Z</time>
      </trkpt>
      <trkpt lat="45.15688" lon="1.01539">
        <ele>203.7487621</ele>
        <time>2022-08-18T07:33:54Z</time>
      </trkpt>
      <trkpt lat="45.15687" lon="1.01538">
        <ele>204.565048</ele>
        <time>2022-08-18T07:33:56Z</time>
      </trkpt>
      <trkpt lat="45.15686" lon="1.01539">
        <ele>203.042912</ele>
        <time>2022-08-18T07:33:58Z</time>
      </trkpt>
      <trkpt lat="45.15685" lon="1.01539">
        <ele>202.4921018</ele>
        <time>2022-08-18T07:34:00Z</time>
      </trkpt>
      <trkpt lat="45.15684" lon="1.0154">
        <ele>202.1583568</ele>
        <time>2022-08-18T07:34:02Z</time>
      </trkpt>
      <trkpt lat="45.15682" lon="1.01542">
        <ele>202.1613341</ele>
        <time>2022-08-18T07:34:04Z</time>
      </trkpt>
      <trkpt lat="45.15681" lon="1.01543">
        <ele>201.6147216</ele>
        <time>2022-08-18T07:34:06Z</time>
      </trkpt>
      <trkpt lat="45.15679" lon="1.01544">
        <ele>201.415273</ele>
        <time>2022-08-18T07:34:08Z</time>
      </trkpt>
      <trkpt lat="45.15678" lon="1.01545">
        <ele>201.2433036</ele>
        <time>2022-08-18T07:34:10Z</time>
      </trkpt>
      <trkpt lat="45.15675" lon="1.01547">
        <ele>201.5535741</ele>
        <time>2022-08-18T07:34:12Z</time>
      </trkpt>
      <trkpt lat="45.15674" lon="1.01548">
        <ele>201.6742427</ele>
        <time>2022-08-18T07:34:14Z</time>
      </trkpt>
      <trkpt lat="45.15673" lon="1.01549">
        <ele>201.8374112</ele>
        <time>2022-08-18T07:34:16Z</time>
      </trkpt>
      <trkpt lat="45.15671" lon="1.01552">
        <ele>202.3207135</ele>
        <time>2022-08-18T07:34:18Z</time>
      </trkpt>
      <trkpt lat="45.1567" lon="1.01553">
        <ele>202.1690432</ele>
        <time>2022-08-18T07:34:20Z</time>
      </trkpt>
      <trkpt lat="45.15669" lon="1.01555">
        <ele>202.458638</ele>
        <time>2022-08-18T07:34:22Z</time>
      </trkpt>
      <trkpt lat="45.15668" lon="1.01558">
        <ele>202.0950951</ele>
        <time>2022-08-18T07:34:24Z</time>
      </trkpt>
      <trkpt lat="45.15667" lon="1.01561">
        <ele>203.1375875</ele>
        <time>2022-08-18T07:34:26Z</time>
      </trkpt>
      <trkpt lat="45.15665" lon="1.01565">
        <ele>203.3281223</ele>
        <time>2022-08-18T07:34:28Z</time>
      </trkpt>
      <trkpt lat="45.15663" lon="1.01566">
        <ele>203.2128274</ele>
        <time>2022-08-18T07:34:30Z</time>
      </trkpt>
      <trkpt lat="45.15662" lon="1.01567">
        <ele>203.2196388</ele>
        <time>2022-08-18T07:34:32Z</time>
      </trkpt>
      <trkpt lat="45.1566" lon="1.01568">
        <ele>203.0586728</ele>
        <time>2022-08-18T07:34:34Z</time>
      </trkpt>
      <trkpt lat="45.15659" lon="1.01569">
        <ele>202.4972766</ele>
        <time>2022-08-18T07:34:36Z</time>
      </trkpt>
      <trkpt lat="45.15658" lon="1.01569">
        <ele>201.9234706</ele>
        <time>2022-08-18T07:34:38Z</time>
      </trkpt>
      <trkpt lat="45.15656" lon="1.0157">
        <ele>201.6414707</ele>
        <time>2022-08-18T07:34:40Z</time>
      </trkpt>
      <trkpt lat="45.15655" lon="1.01571">
        <ele>201.5652938</ele>
        <time>2022-08-18T07:34:42Z</time>
      </trkpt>
      <trkpt lat="45.15654" lon="1.01573">
        <ele>202.2894265</ele>
        <time>2022-08-18T07:34:44Z</time>
      </trkpt>
      <trkpt lat="45.15653" lon="1.01574">
        <ele>201.9667956</ele>
        <time>2022-08-18T07:34:46Z</time>
      </trkpt>
      <trkpt lat="45.15652" lon="1.01575">
        <ele>201.5669555</ele>
        <time>2022-08-18T07:34:48Z</time>
      </trkpt>
      <trkpt lat="45.1565" lon="1.01576">
        <ele>201.1442962</ele>
        <time>2022-08-18T07:34:50Z</time>
      </trkpt>
      <trkpt lat="45.15648" lon="1.01577">
        <ele>201.4369068</ele>
        <time>2022-08-18T07:34:52Z</time>
      </trkpt>
      <trkpt lat="45.15647" lon="1.01576">
        <ele>202.4963205</ele>
        <time>2022-08-18T07:34:54Z</time>
      </trkpt>
      <trkpt lat="45.15646" lon="1.01576">
        <ele>202.6383823</ele>
        <time>2022-08-18T07:34:56Z</time>
      </trkpt>
      <trkpt lat="45.15647" lon="1.01576">
        <ele>203.2375614</ele>
        <time>2022-08-18T07:34:58Z</time>
      </trkpt>
      <trkpt lat="45.15647" lon="1.01576">
        <ele>203.2854882</ele>
        <time>2022-08-18T07:35:00Z</time>
      </trkpt>
      <trkpt lat="45.15647" lon="1.01576">
        <ele>203.2854882</ele>
        <time>2022-08-18T07:35:04Z</time>
      </trkpt>
      <trkpt lat="45.15647" lon="1.01576">
        <ele>203.2854882</ele>
        <time>2022-08-18T07:35:08Z</time>
      </trkpt>
      <trkpt lat="45.15645" lon="1.01573">
        <ele>204.6788296</ele>
        <time>2022-08-18T07:35:10Z</time>
      </trkpt>
      <trkpt lat="45.15644" lon="1.01575">
        <ele>204.2704965</ele>
        <time>2022-08-18T07:35:12Z</time>
      </trkpt>
      <trkpt lat="45.15643" lon="1.01575">
        <ele>204.3474527</ele>
        <time>2022-08-18T07:35:14Z</time>
      </trkpt>
      <trkpt lat="45.15642" lon="1.01576">
        <ele>204.7837167</ele>
        <time>2022-08-18T07:35:16Z</time>
      </trkpt>
      <trkpt lat="45.15642" lon="1.01577">
        <ele>204.6414859</ele>
        <time>2022-08-18T07:35:18Z</time>
      </trkpt>
      <trkpt lat="45.15641" lon="1.01578">
        <ele>204.9119943</ele>
        <time>2022-08-18T07:35:20Z</time>
      </trkpt>
      <trkpt lat="45.1564" lon="1.01579">
        <ele>205.1488354</ele>
        <time>2022-08-18T07:35:22Z</time>
      </trkpt>
      <trkpt lat="45.15639" lon="1.01581">
        <ele>204.9769971</ele>
        <time>2022-08-18T07:35:24Z</time>
      </trkpt>
      <trkpt lat="45.15637" lon="1.01581">
        <ele>204.7650026</ele>
        <time>2022-08-18T07:35:26Z</time>
      </trkpt>
      <trkpt lat="45.15637" lon="1.0158">
        <ele>204.556233</ele>
        <time>2022-08-18T07:35:28Z</time>
      </trkpt>
      <trkpt lat="45.15637" lon="1.0158">
        <ele>204.556233</ele>
        <time>2022-08-18T07:35:32Z</time>
      </trkpt>
      <trkpt lat="45.15637" lon="1.0158">
        <ele>204.556233</ele>
        <time>2022-08-18T07:35:36Z</time>
      </trkpt>
      <trkpt lat="45.15637" lon="1.0158">
        <ele>204.556233</ele>
        <time>2022-08-18T07:35:40Z</time>
      </trkpt>
      <trkpt lat="45.15637" lon="1.0158">
        <ele>204.556233</ele>
        <time>2022-08-18T07:35:44Z</time>
      </trkpt>
      <trkpt lat="45.15637" lon="1.0158">
        <ele>204.556233</ele>
        <time>2022-08-18T07:35:48Z</time>
      </trkpt>
      <trkpt lat="45.15637" lon="1.0158">
        <ele>204.556233</ele>
        <time>2022-08-18T07:35:52Z</time>
      </trkpt>
      <trkpt lat="45.15636" lon="1.01581">
        <ele>203.0168636</ele>
        <time>2022-08-18T07:35:54Z</time>
      </trkpt>
      <trkpt lat="45.15636" lon="1.01582">
        <ele>202.9827635</ele>
        <time>2022-08-18T07:35:56Z</time>
      </trkpt>
      <trkpt lat="45.15634" lon="1.01581">
        <ele>201.7890571</ele>
        <time>2022-08-18T07:35:58Z</time>
      </trkpt>
      <trkpt lat="45.15634" lon="1.01582">
        <ele>201.8721418</ele>
        <time>2022-08-18T07:36:00Z</time>
      </trkpt>
      <trkpt lat="45.15633" lon="1.01581">
        <ele>202.6869402</ele>
        <time>2022-08-18T07:36:02Z</time>
      </trkpt>
      <trkpt lat="45.15633" lon="1.01581">
        <ele>202.9090655</ele>
        <time>2022-08-18T07:36:04Z</time>
      </trkpt>
      <trkpt lat="45.15633" lon="1.01581">
        <ele>203.232186</ele>
        <time>2022-08-18T07:36:06Z</time>
      </trkpt>
      <trkpt lat="45.15632" lon="1.01581">
        <ele>203.6008409</ele>
        <time>2022-08-18T07:36:08Z</time>
      </trkpt>
      <trkpt lat="45.15631" lon="1.0158">
        <ele>203.6660391</ele>
        <time>2022-08-18T07:36:10Z</time>
      </trkpt>
      <trkpt lat="45.1563" lon="1.01579">
        <ele>204.7174128</ele>
        <time>2022-08-18T07:36:12Z</time>
      </trkpt>
      <trkpt lat="45.15631" lon="1.01575">
        <ele>205.1849439</ele>
        <time>2022-08-18T07:36:14Z</time>
      </trkpt>
      <trkpt lat="45.15629" lon="1.01574">
        <ele>204.0919714</ele>
        <time>2022-08-18T07:36:16Z</time>
      </trkpt>
      <trkpt lat="45.1563" lon="1.01572">
        <ele>204.6283422</ele>
        <time>2022-08-18T07:36:18Z</time>
      </trkpt>
      <trkpt lat="45.15629" lon="1.0157">
        <ele>204.0275241</ele>
        <time>2022-08-18T07:36:20Z</time>
      </trkpt>
      <trkpt lat="45.15628" lon="1.01569">
        <ele>204.6333826</ele>
        <time>2022-08-18T07:36:22Z</time>
      </trkpt>
      <trkpt lat="45.15627" lon="1.01567">
        <ele>204.7676093</ele>
        <time>2022-08-18T07:36:24Z</time>
      </trkpt>
      <trkpt lat="45.15626" lon="1.01566">
        <ele>204.3138957</ele>
        <time>2022-08-18T07:36:26Z</time>
      </trkpt>
      <trkpt lat="45.15625" lon="1.01564">
        <ele>203.7075799</ele>
        <time>2022-08-18T07:36:28Z</time>
      </trkpt>
      <trkpt lat="45.15625" lon="1.01562">
        <ele>203.0194913</ele>
        <time>2022-08-18T07:36:30Z</time>
      </trkpt>
      <trkpt lat="45.15625" lon="1.0156">
        <ele>202.6486395</ele>
        <time>2022-08-18T07:36:32Z</time>
      </trkpt>
      <trkpt lat="45.15625" lon="1.01559">
        <ele>202.8314581</ele>
        <time>2022-08-18T07:36:34Z</time>
      </trkpt>
      <trkpt lat="45.15625" lon="1.01559">
        <ele>202.5786278</ele>
        <time>2022-08-18T07:36:36Z</time>
      </trkpt>
      <trkpt lat="45.15625" lon="1.01558">
        <ele>202.5066073</ele>
        <time>2022-08-18T07:36:38Z</time>
      </trkpt>
      <trkpt lat="45.15625" lon="1.01558">
        <ele>202.640508</ele>
        <time>2022-08-18T07:36:40Z</time>
      </trkpt>
      <trkpt lat="45.15622" lon="1.0156">
        <ele>200.0048828</ele>
        <time>2022-08-18T07:36:46Z</time>
      </trkpt>
      <trkpt lat="45.15628" lon="1.01558">
        <ele>202.2892929</ele>
        <time>2022-08-18T07:36:48Z</time>
      </trkpt>
      <trkpt lat="45.15626" lon="1.0156">
        <ele>202.8709596</ele>
        <time>2022-08-18T07:36:50Z</time>
      </trkpt>
      <trkpt lat="45.15625" lon="1.01561">
        <ele>203.163215</ele>
        <time>2022-08-18T07:36:52Z</time>
      </trkpt>
      <trkpt lat="45.15626" lon="1.01556">
        <ele>203.1355659</ele>
        <time>2022-08-18T07:36:54Z</time>
      </trkpt>
      <trkpt lat="45.15623" lon="1.01567">
        <ele>207.4147949</ele>
        <time>2022-08-18T07:36:56Z</time>
      </trkpt>
      <trkpt lat="45.1563" lon="1.0153">
        <ele>204.8148574</ele>
        <time>2022-08-18T07:36:58Z</time>
      </trkpt>
      <trkpt lat="45.15629" lon="1.01555">
        <ele>203.0571751</ele>
        <time>2022-08-18T07:37:00Z</time>
      </trkpt>
      <trkpt lat="45.15604" lon="1.01537">
        <ele>205.6446498</ele>
        <time>2022-08-18T07:37:02Z</time>
      </trkpt>
      <trkpt lat="45.15627" lon="1.01563">
        <ele>203.451469</ele>
        <time>2022-08-18T07:37:04Z</time>
      </trkpt>
      <trkpt lat="45.15628" lon="1.01555">
        <ele>203.0697339</ele>
        <time>2022-08-18T07:37:08Z</time>
      </trkpt>
      <trkpt lat="45.15627" lon="1.01563">
        <ele>203.3373689</ele>
        <time>2022-08-18T07:37:32Z</time>
      </trkpt>
      <trkpt lat="45.15627" lon="1.01563">
        <ele>203.3373689</ele>
        <time>2022-08-18T07:37:36Z</time>
      </trkpt>
      <trkpt lat="45.15627" lon="1.01563">
        <ele>203.3373689</ele>
        <time>2022-08-18T07:37:40Z</time>
      </trkpt>
      <trkpt lat="45.15624" lon="1.01554">
        <ele>202.8689362</ele>
        <time>2022-08-18T07:37:44Z</time>
      </trkpt>
      <trkpt lat="45.15624" lon="1.01554">
        <ele>202.4474054</ele>
        <time>2022-08-18T07:37:46Z</time>
      </trkpt>
      <trkpt lat="45.15624" lon="1.01554">
        <ele>202.566165</ele>
        <time>2022-08-18T07:37:47Z</time>
      </trkpt>
      <trkpt lat="45.15627" lon="1.01563">
        <ele>202.9828393</ele>
        <time>2022-08-18T07:38:06Z</time>
      </trkpt>
      <trkpt lat="45.15627" lon="1.01563">
        <ele>202.9828393</ele>
        <time>2022-08-18T07:38:10Z</time>
      </trkpt>
      <trkpt lat="45.15623" lon="1.01557">
        <ele>202.2776141</ele>
        <time>2022-08-18T07:38:12Z</time>
      </trkpt>
      <trkpt lat="45.15623" lon="1.01557">
        <ele>202.0547216</ele>
        <time>2022-08-18T07:38:14Z</time>
      </trkpt>
      <trkpt lat="45.15622" lon="1.01558">
        <ele>201.7103289</ele>
        <time>2022-08-18T07:38:16Z</time>
      </trkpt>
      <trkpt lat="45.15622" lon="1.01558">
        <ele>201.8993038</ele>
        <time>2022-08-18T07:38:17Z</time>
      </trkpt>
      <trkpt lat="45.15619" lon="1.01554">
        <ele>201.8708155</ele>
        <time>2022-08-18T07:38:25Z</time>
      </trkpt>
      <trkpt lat="45.15628" lon="1.01563">
        <ele>203.1885201</ele>
        <time>2022-08-18T07:38:30Z</time>
      </trkpt>
      <trkpt lat="45.1563" lon="1.01566">
        <ele>201.7303938</ele>
        <time>2022-08-18T07:38:46Z</time>
      </trkpt>
      <trkpt lat="45.15631" lon="1.01567">
        <ele>201.6807116</ele>
        <time>2022-08-18T07:38:48Z</time>
      </trkpt>
      <trkpt lat="45.15631" lon="1.01563">
        <ele>201.8706393</ele>
        <time>2022-08-18T07:38:50Z</time>
      </trkpt>
      <trkpt lat="45.1563" lon="1.01563">
        <ele>201.858207</ele>
        <time>2022-08-18T07:38:52Z</time>
      </trkpt>
      <trkpt lat="45.15627" lon="1.01563">
        <ele>201.936664</ele>
        <time>2022-08-18T07:38:54Z</time>
      </trkpt>
      <trkpt lat="45.15626" lon="1.01568">
        <ele>202.0586558</ele>
        <time>2022-08-18T07:38:56Z</time>
      </trkpt>
      <trkpt lat="45.15622" lon="1.01565">
        <ele>205.4708191</ele>
        <time>2022-08-18T07:41:00Z</time>
      </trkpt>
      <trkpt lat="45.15628" lon="1.01562">
        <ele>203.4482273</ele>
        <time>2022-08-18T07:41:02Z</time>
      </trkpt>
      <trkpt lat="45.15631" lon="1.01565">
        <ele>204.4603698</ele>
        <time>2022-08-18T07:41:04Z</time>
      </trkpt>
      <trkpt lat="45.15631" lon="1.01568">
        <ele>203.8714934</ele>
        <time>2022-08-18T07:41:06Z</time>
      </trkpt>
      <trkpt lat="45.15631" lon="1.0157">
        <ele>203.5119835</ele>
        <time>2022-08-18T07:41:08Z</time>
      </trkpt>
      <trkpt lat="45.15633" lon="1.01571">
        <ele>204.3093387</ele>
        <time>2022-08-18T07:41:10Z</time>
      </trkpt>
      <trkpt lat="45.15634" lon="1.01573">
        <ele>204.8833584</ele>
        <time>2022-08-18T07:41:12Z</time>
      </trkpt>
      <trkpt lat="45.15636" lon="1.01574">
        <ele>207.1804243</ele>
        <time>2022-08-18T07:41:14Z</time>
      </trkpt>
      <trkpt lat="45.15639" lon="1.01572">
        <ele>206.1014065</ele>
        <time>2022-08-18T07:41:16Z</time>
      </trkpt>
      <trkpt lat="45.15638" lon="1.0157">
        <ele>206.3839358</ele>
        <time>2022-08-18T07:41:18Z</time>
      </trkpt>
      <trkpt lat="45.15639" lon="1.0157">
        <ele>206.4975109</ele>
        <time>2022-08-18T07:41:20Z</time>
      </trkpt>
      <trkpt lat="45.15639" lon="1.0157">
        <ele>207.434239</ele>
        <time>2022-08-18T07:41:22Z</time>
      </trkpt>
      <trkpt lat="45.1564" lon="1.01569">
        <ele>208.3859394</ele>
        <time>2022-08-18T07:41:24Z</time>
      </trkpt>
      <trkpt lat="45.15637" lon="1.0158">
        <ele>205.4519234</ele>
        <time>2022-08-18T07:54:01Z</time>
      </trkpt>
      <trkpt lat="45.15637" lon="1.0158">
        <ele>205.4535713</ele>
        <time>2022-08-18T07:54:03Z</time>
      </trkpt>
      <trkpt lat="45.15637" lon="1.0158">
        <ele>205.5088081</ele>
        <time>2022-08-18T07:54:05Z</time>
      </trkpt>
      <trkpt lat="45.15637" lon="1.0158">
        <ele>205.5154609</ele>
        <time>2022-08-18T07:54:07Z</time>
      </trkpt>
      <trkpt lat="45.15642" lon="1.01575">
        <ele>210.8105097</ele>
        <time>2022-08-18T07:54:09Z</time>
      </trkpt>
      <trkpt lat="45.15642" lon="1.01575">
        <ele>211.4946614</ele>
        <time>2022-08-18T07:54:11Z</time>
      </trkpt>
      <trkpt lat="45.15643" lon="1.01575">
        <ele>212.0235051</ele>
        <time>2022-08-18T07:54:13Z</time>
      </trkpt>
      <trkpt lat="45.15644" lon="1.01575">
        <ele>212.7148816</ele>
        <time>2022-08-18T07:54:15Z</time>
      </trkpt>
      <trkpt lat="45.15644" lon="1.01576">
        <ele>213.2635058</ele>
        <time>2022-08-18T07:54:17Z</time>
      </trkpt>
      <trkpt lat="45.15644" lon="1.01578">
        <ele>213.280235</ele>
        <time>2022-08-18T07:54:19Z</time>
      </trkpt>
      <trkpt lat="45.15643" lon="1.01578">
        <ele>212.8107443</ele>
        <time>2022-08-18T07:54:21Z</time>
      </trkpt>
      <trkpt lat="45.15643" lon="1.01576">
        <ele>212.7151714</ele>
        <time>2022-08-18T07:54:23Z</time>
      </trkpt>
      <trkpt lat="45.15645" lon="1.01575">
        <ele>212.4874735</ele>
        <time>2022-08-18T07:54:25Z</time>
      </trkpt>
      <trkpt lat="45.15648" lon="1.01574">
        <ele>211.9916645</ele>
        <time>2022-08-18T07:54:27Z</time>
      </trkpt>
      <trkpt lat="45.1565" lon="1.01569">
        <ele>211.9280415</ele>
        <time>2022-08-18T07:54:29Z</time>
      </trkpt>
      <trkpt lat="45.15654" lon="1.01564">
        <ele>212.5456251</ele>
        <time>2022-08-18T07:54:31Z</time>
      </trkpt>
      <trkpt lat="45.15658" lon="1.01562">
        <ele>212.7276186</ele>
        <time>2022-08-18T07:54:33Z</time>
      </trkpt>
      <trkpt lat="45.15663" lon="1.01563">
        <ele>211.9041915</ele>
        <time>2022-08-18T07:54:35Z</time>
      </trkpt>
      <trkpt lat="45.15668" lon="1.01563">
        <ele>210.1519701</ele>
        <time>2022-08-18T07:54:37Z</time>
      </trkpt>
      <trkpt lat="45.15675" lon="1.01566">
        <ele>208.5660959</ele>
        <time>2022-08-18T07:54:39Z</time>
      </trkpt>
      <trkpt lat="45.15681" lon="1.01568">
        <ele>206.9960527</ele>
        <time>2022-08-18T07:54:41Z</time>
      </trkpt>
      <trkpt lat="45.15686" lon="1.0157">
        <ele>205.8797026</ele>
        <time>2022-08-18T07:54:43Z</time>
      </trkpt>
      <trkpt lat="45.15689" lon="1.01571">
        <ele>204.4457989</ele>
        <time>2022-08-18T07:54:45Z</time>
      </trkpt>
      <trkpt lat="45.15691" lon="1.01571">
        <ele>203.1423625</ele>
        <time>2022-08-18T07:54:47Z</time>
      </trkpt>
      <trkpt lat="45.15694" lon="1.0157">
        <ele>202.3103394</ele>
        <time>2022-08-18T07:54:49Z</time>
      </trkpt>
      <trkpt lat="45.15695" lon="1.0157">
        <ele>202.0548327</ele>
        <time>2022-08-18T07:54:50Z</time>
      </trkpt>
      <trkpt lat="45.15697" lon="1.01569">
        <ele>201.3651085</ele>
        <time>2022-08-18T07:54:52Z</time>
      </trkpt>
      <trkpt lat="45.15699" lon="1.01568">
        <ele>202.0372079</ele>
        <time>2022-08-18T07:54:54Z</time>
      </trkpt>
      <trkpt lat="45.15703" lon="1.01568">
        <ele>201.4550919</ele>
        <time>2022-08-18T07:54:56Z</time>
      </trkpt>
      <trkpt lat="45.15706" lon="1.01568">
        <ele>202.4980947</ele>
        <time>2022-08-18T07:54:58Z</time>
      </trkpt>
      <trkpt lat="45.1571" lon="1.01567">
        <ele>201.5660499</ele>
        <time>2022-08-18T07:55:00Z</time>
      </trkpt>
      <trkpt lat="45.15716" lon="1.01567">
        <ele>203.0862622</ele>
        <time>2022-08-18T07:55:02Z</time>
      </trkpt>
      <trkpt lat="45.15723" lon="1.01566">
        <ele>202.6192299</ele>
        <time>2022-08-18T07:55:04Z</time>
      </trkpt>
      <trkpt lat="45.15729" lon="1.01565">
        <ele>202.3045568</ele>
        <time>2022-08-18T07:55:06Z</time>
      </trkpt>
      <trkpt lat="45.15736" lon="1.01564">
        <ele>201.6959053</ele>
        <time>2022-08-18T07:55:08Z</time>
      </trkpt>
      <trkpt lat="45.15743" lon="1.01566">
        <ele>201.0670555</ele>
        <time>2022-08-18T07:55:10Z</time>
      </trkpt>
      <trkpt lat="45.1575" lon="1.01567">
        <ele>200.3414921</ele>
        <time>2022-08-18T07:55:12Z</time>
      </trkpt>
      <trkpt lat="45.15756" lon="1.01567">
        <ele>199.9557706</ele>
        <time>2022-08-18T07:55:14Z</time>
      </trkpt>
      <trkpt lat="45.15761" lon="1.01571">
        <ele>200.2374515</ele>
        <time>2022-08-18T07:55:16Z</time>
      </trkpt>
      <trkpt lat="45.15764" lon="1.01571">
        <ele>199.8024351</ele>
        <time>2022-08-18T07:55:18Z</time>
      </trkpt>
      <trkpt lat="45.15767" lon="1.01574">
        <ele>199.352397</ele>
        <time>2022-08-18T07:55:20Z</time>
      </trkpt>
      <trkpt lat="45.15771" lon="1.01581">
        <ele>199.4537793</ele>
        <time>2022-08-18T07:55:22Z</time>
      </trkpt>
      <trkpt lat="45.15776" lon="1.01581">
        <ele>199.1663468</ele>
        <time>2022-08-18T07:55:24Z</time>
      </trkpt>
      <trkpt lat="45.15781" lon="1.01577">
        <ele>199.2864838</ele>
        <time>2022-08-18T07:55:26Z</time>
      </trkpt>
      <trkpt lat="45.15785" lon="1.01573">
        <ele>198.5363362</ele>
        <time>2022-08-18T07:55:28Z</time>
      </trkpt>
      <trkpt lat="45.15791" lon="1.0157">
        <ele>198.6799269</ele>
        <time>2022-08-18T07:55:30Z</time>
      </trkpt>
      <trkpt lat="45.15795" lon="1.01566">
        <ele>199.0069243</ele>
        <time>2022-08-18T07:55:32Z</time>
      </trkpt>
      <trkpt lat="45.15799" lon="1.0156">
        <ele>198.8956132</ele>
        <time>2022-08-18T07:55:34Z</time>
      </trkpt>
      <trkpt lat="45.15803" lon="1.01553">
        <ele>199.0903122</ele>
        <time>2022-08-18T07:55:36Z</time>
      </trkpt>
      <trkpt lat="45.15805" lon="1.01548">
        <ele>199.6355505</ele>
        <time>2022-08-18T07:55:38Z</time>
      </trkpt>
      <trkpt lat="45.15808" lon="1.01543">
        <ele>200.1062293</ele>
        <time>2022-08-18T07:55:40Z</time>
      </trkpt>
      <trkpt lat="45.1581" lon="1.01538">
        <ele>200.1811891</ele>
        <time>2022-08-18T07:55:42Z</time>
      </trkpt>
      <trkpt lat="45.15812" lon="1.01533">
        <ele>200.3524399</ele>
        <time>2022-08-18T07:55:44Z</time>
      </trkpt>
      <trkpt lat="45.15815" lon="1.01529">
        <ele>200.2836194</ele>
        <time>2022-08-18T07:55:46Z</time>
      </trkpt>
      <trkpt lat="45.15817" lon="1.01522">
        <ele>200.4446575</ele>
        <time>2022-08-18T07:55:49Z</time>
      </trkpt>
      <trkpt lat="45.15819" lon="1.01518">
        <ele>200.3158091</ele>
        <time>2022-08-18T07:55:51Z</time>
      </trkpt>
      <trkpt lat="45.15821" lon="1.01513">
        <ele>200.2109484</ele>
        <time>2022-08-18T07:55:53Z</time>
      </trkpt>
      <trkpt lat="45.15823" lon="1.01509">
        <ele>199.955894</ele>
        <time>2022-08-18T07:55:55Z</time>
      </trkpt>
      <trkpt lat="45.15825" lon="1.01505">
        <ele>200.1450378</ele>
        <time>2022-08-18T07:55:57Z</time>
      </trkpt>
      <trkpt lat="45.15827" lon="1.01501">
        <ele>200.1085511</ele>
        <time>2022-08-18T07:55:59Z</time>
      </trkpt>
      <trkpt lat="45.15828" lon="1.01496">
        <ele>199.9947967</ele>
        <time>2022-08-18T07:56:01Z</time>
      </trkpt>
      <trkpt lat="45.1583" lon="1.01492">
        <ele>200.0017298</ele>
        <time>2022-08-18T07:56:03Z</time>
      </trkpt>
      <trkpt lat="45.15831" lon="1.01487">
        <ele>200.0535152</ele>
        <time>2022-08-18T07:56:05Z</time>
      </trkpt>
      <trkpt lat="45.15832" lon="1.01484">
        <ele>199.9705521</ele>
        <time>2022-08-18T07:56:06Z</time>
      </trkpt>
      <trkpt lat="45.15835" lon="1.01479">
        <ele>200.3944298</ele>
        <time>2022-08-18T07:56:08Z</time>
      </trkpt>
      <trkpt lat="45.15837" lon="1.01474">
        <ele>200.636661</ele>
        <time>2022-08-18T07:56:10Z</time>
      </trkpt>
      <trkpt lat="45.1584" lon="1.01469">
        <ele>200.8279648</ele>
        <time>2022-08-18T07:56:12Z</time>
      </trkpt>
      <trkpt lat="45.15842" lon="1.01464">
        <ele>200.9516255</ele>
        <time>2022-08-18T07:56:14Z</time>
      </trkpt>
      <trkpt lat="45.15845" lon="1.01458">
        <ele>201.1543144</ele>
        <time>2022-08-18T07:56:16Z</time>
      </trkpt>
      <trkpt lat="45.15847" lon="1.01453">
        <ele>201.2990977</ele>
        <time>2022-08-18T07:56:18Z</time>
      </trkpt>
      <trkpt lat="45.1585" lon="1.01448">
        <ele>201.4384712</ele>
        <time>2022-08-18T07:56:20Z</time>
      </trkpt>
      <trkpt lat="45.15852" lon="1.01443">
        <ele>201.3897186</ele>
        <time>2022-08-18T07:56:22Z</time>
      </trkpt>
      <trkpt lat="45.15855" lon="1.0144">
        <ele>201.6958632</ele>
        <time>2022-08-18T07:56:24Z</time>
      </trkpt>
      <trkpt lat="45.15858" lon="1.01436">
        <ele>201.4843983</ele>
        <time>2022-08-18T07:56:26Z</time>
      </trkpt>
      <trkpt lat="45.15861" lon="1.01431">
        <ele>201.4405495</ele>
        <time>2022-08-18T07:56:28Z</time>
      </trkpt>
      <trkpt lat="45.15864" lon="1.01426">
        <ele>201.2605077</ele>
        <time>2022-08-18T07:56:30Z</time>
      </trkpt>
      <trkpt lat="45.15867" lon="1.01421">
        <ele>201.573783</ele>
        <time>2022-08-18T07:56:32Z</time>
      </trkpt>
      <trkpt lat="45.1587" lon="1.01418">
        <ele>201.9191248</ele>
        <time>2022-08-18T07:56:34Z</time>
      </trkpt>
      <trkpt lat="45.15873" lon="1.01413">
        <ele>201.996203</ele>
        <time>2022-08-18T07:56:36Z</time>
      </trkpt>
      <trkpt lat="45.15876" lon="1.01408">
        <ele>202.4140974</ele>
        <time>2022-08-18T07:56:38Z</time>
      </trkpt>
      <trkpt lat="45.1588" lon="1.01403">
        <ele>202.4001778</ele>
        <time>2022-08-18T07:56:40Z</time>
      </trkpt>
      <trkpt lat="45.15885" lon="1.01397">
        <ele>202.5378923</ele>
        <time>2022-08-18T07:56:42Z</time>
      </trkpt>
      <trkpt lat="45.15889" lon="1.01391">
        <ele>202.4223711</ele>
        <time>2022-08-18T07:56:44Z</time>
      </trkpt>
      <trkpt lat="45.15894" lon="1.01383">
        <ele>202.3422846</ele>
        <time>2022-08-18T07:56:46Z</time>
      </trkpt>
      <trkpt lat="45.15899" lon="1.01373">
        <ele>202.159738</ele>
        <time>2022-08-18T07:56:48Z</time>
      </trkpt>
      <trkpt lat="45.15904" lon="1.01363">
        <ele>201.9254123</ele>
        <time>2022-08-18T07:56:50Z</time>
      </trkpt>
      <trkpt lat="45.15908" lon="1.01351">
        <ele>201.4550332</ele>
        <time>2022-08-18T07:56:52Z</time>
      </trkpt>
      <trkpt lat="45.1591" lon="1.01339">
        <ele>201.6131476</ele>
        <time>2022-08-18T07:56:54Z</time>
      </trkpt>
      <trkpt lat="45.15911" lon="1.01326">
        <ele>201.3011191</ele>
        <time>2022-08-18T07:56:56Z</time>
      </trkpt>
      <trkpt lat="45.15912" lon="1.01314">
        <ele>201.5527597</ele>
        <time>2022-08-18T07:56:58Z</time>
      </trkpt>
      <trkpt lat="45.15912" lon="1.01303">
        <ele>201.8939719</ele>
        <time>2022-08-18T07:57:00Z</time>
      </trkpt>
      <trkpt lat="45.1591" lon="1.01293">
        <ele>202.3484375</ele>
        <time>2022-08-18T07:57:02Z</time>
      </trkpt>
      <trkpt lat="45.15908" lon="1.01285">
        <ele>202.8284034</ele>
        <time>2022-08-18T07:57:04Z</time>
      </trkpt>
      <trkpt lat="45.15906" lon="1.01279">
        <ele>203.5385645</ele>
        <time>2022-08-18T07:57:06Z</time>
      </trkpt>
      <trkpt lat="45.15904" lon="1.01274">
        <ele>204.1341478</ele>
        <time>2022-08-18T07:57:08Z</time>
      </trkpt>
      <trkpt lat="45.15901" lon="1.0127">
        <ele>204.167585</ele>
        <time>2022-08-18T07:57:10Z</time>
      </trkpt>
      <trkpt lat="45.159" lon="1.01266">
        <ele>204.3271212</ele>
        <time>2022-08-18T07:57:12Z</time>
      </trkpt>
      <trkpt lat="45.15898" lon="1.01262">
        <ele>204.5025033</ele>
        <time>2022-08-18T07:57:14Z</time>
      </trkpt>
      <trkpt lat="45.15895" lon="1.01259">
        <ele>204.622256</ele>
        <time>2022-08-18T07:57:16Z</time>
      </trkpt>
      <trkpt lat="45.15893" lon="1.01256">
        <ele>204.8514454</ele>
        <time>2022-08-18T07:57:18Z</time>
      </trkpt>
      <trkpt lat="45.1589" lon="1.01252">
        <ele>204.9037262</ele>
        <time>2022-08-18T07:57:20Z</time>
      </trkpt>
      <trkpt lat="45.15889" lon="1.01249">
        <ele>205.0323632</ele>
        <time>2022-08-18T07:57:22Z</time>
      </trkpt>
      <trkpt lat="45.15886" lon="1.01246">
        <ele>205.1816058</ele>
        <time>2022-08-18T07:57:24Z</time>
      </trkpt>
      <trkpt lat="45.15884" lon="1.01243">
        <ele>205.2217764</ele>
        <time>2022-08-18T07:57:26Z</time>
      </trkpt>
      <trkpt lat="45.15882" lon="1.01239">
        <ele>205.710529</ele>
        <time>2022-08-18T07:57:28Z</time>
      </trkpt>
      <trkpt lat="45.1588" lon="1.01236">
        <ele>206.3900157</ele>
        <time>2022-08-18T07:57:30Z</time>
      </trkpt>
      <trkpt lat="45.15878" lon="1.01233">
        <ele>206.6264961</ele>
        <time>2022-08-18T07:57:32Z</time>
      </trkpt>
      <trkpt lat="45.15876" lon="1.01229">
        <ele>207.001624</ele>
        <time>2022-08-18T07:57:34Z</time>
      </trkpt>
      <trkpt lat="45.15874" lon="1.01226">
        <ele>207.7097266</ele>
        <time>2022-08-18T07:57:36Z</time>
      </trkpt>
      <trkpt lat="45.15871" lon="1.01224">
        <ele>208.2621876</ele>
        <time>2022-08-18T07:57:38Z</time>
      </trkpt>
      <trkpt lat="45.1587" lon="1.01221">
        <ele>208.3478917</ele>
        <time>2022-08-18T07:57:40Z</time>
      </trkpt>
      <trkpt lat="45.15868" lon="1.01217">
        <ele>208.961642</ele>
        <time>2022-08-18T07:57:42Z</time>
      </trkpt>
      <trkpt lat="45.15866" lon="1.01214">
        <ele>209.7714919</ele>
        <time>2022-08-18T07:57:44Z</time>
      </trkpt>
      <trkpt lat="45.15864" lon="1.01211">
        <ele>210.4354122</ele>
        <time>2022-08-18T07:57:46Z</time>
      </trkpt>
      <trkpt lat="45.15861" lon="1.01208">
        <ele>210.9404288</ele>
        <time>2022-08-18T07:57:48Z</time>
      </trkpt>
      <trkpt lat="45.15859" lon="1.01205">
        <ele>211.4518956</ele>
        <time>2022-08-18T07:57:50Z</time>
      </trkpt>
      <trkpt lat="45.15858" lon="1.01201">
        <ele>211.6939325</ele>
        <time>2022-08-18T07:57:52Z</time>
      </trkpt>
      <trkpt lat="45.15855" lon="1.01198">
        <ele>212.1586344</ele>
        <time>2022-08-18T07:57:54Z</time>
      </trkpt>
      <trkpt lat="45.15852" lon="1.01195">
        <ele>212.2695463</ele>
        <time>2022-08-18T07:57:56Z</time>
      </trkpt>
      <trkpt lat="45.1585" lon="1.01192">
        <ele>212.5406546</ele>
        <time>2022-08-18T07:57:58Z</time>
      </trkpt>
      <trkpt lat="45.15848" lon="1.01188">
        <ele>212.4545674</ele>
        <time>2022-08-18T07:58:00Z</time>
      </trkpt>
      <trkpt lat="45.15846" lon="1.01185">
        <ele>212.414269</ele>
        <time>2022-08-18T07:58:02Z</time>
      </trkpt>
      <trkpt lat="45.15844" lon="1.01182">
        <ele>212.7109654</ele>
        <time>2022-08-18T07:58:04Z</time>
      </trkpt>
      <trkpt lat="45.15842" lon="1.01178">
        <ele>212.6498569</ele>
        <time>2022-08-18T07:58:06Z</time>
      </trkpt>
      <trkpt lat="45.15839" lon="1.01175">
        <ele>213.0467066</ele>
        <time>2022-08-18T07:58:08Z</time>
      </trkpt>
      <trkpt lat="45.15836" lon="1.01172">
        <ele>213.1051484</ele>
        <time>2022-08-18T07:58:10Z</time>
      </trkpt>
      <trkpt lat="45.15833" lon="1.01168">
        <ele>213.2394549</ele>
        <time>2022-08-18T07:58:12Z</time>
      </trkpt>
      <trkpt lat="45.1583" lon="1.01165">
        <ele>213.4417069</ele>
        <time>2022-08-18T07:58:14Z</time>
      </trkpt>
      <trkpt lat="45.15827" lon="1.01162">
        <ele>213.3246157</ele>
        <time>2022-08-18T07:58:16Z</time>
      </trkpt>
      <trkpt lat="45.15824" lon="1.01159">
        <ele>213.6462056</ele>
        <time>2022-08-18T07:58:18Z</time>
      </trkpt>
      <trkpt lat="45.1582" lon="1.01156">
        <ele>214.0868889</ele>
        <time>2022-08-18T07:58:20Z</time>
      </trkpt>
      <trkpt lat="45.15817" lon="1.01153">
        <ele>214.271882</ele>
        <time>2022-08-18T07:58:22Z</time>
      </trkpt>
      <trkpt lat="45.15814" lon="1.01151">
        <ele>214.4646455</ele>
        <time>2022-08-18T07:58:24Z</time>
      </trkpt>
      <trkpt lat="45.1581" lon="1.01147">
        <ele>214.2156432</ele>
        <time>2022-08-18T07:58:26Z</time>
      </trkpt>
      <trkpt lat="45.15806" lon="1.01145">
        <ele>214.3378473</ele>
        <time>2022-08-18T07:58:28Z</time>
      </trkpt>
      <trkpt lat="45.15802" lon="1.01143">
        <ele>214.5886465</ele>
        <time>2022-08-18T07:58:30Z</time>
      </trkpt>
      <trkpt lat="45.15798" lon="1.01141">
        <ele>214.6601863</ele>
        <time>2022-08-18T07:58:32Z</time>
      </trkpt>
      <trkpt lat="45.15794" lon="1.01139">
        <ele>214.4326466</ele>
        <time>2022-08-18T07:58:34Z</time>
      </trkpt>
      <trkpt lat="45.1579" lon="1.01137">
        <ele>214.1823628</ele>
        <time>2022-08-18T07:58:36Z</time>
      </trkpt>
      <trkpt lat="45.15786" lon="1.01134">
        <ele>214.2571173</ele>
        <time>2022-08-18T07:58:38Z</time>
      </trkpt>
      <trkpt lat="45.15782" lon="1.01132">
        <ele>214.3309439</ele>
        <time>2022-08-18T07:58:40Z</time>
      </trkpt>
      <trkpt lat="45.15778" lon="1.01129">
        <ele>214.3137068</ele>
        <time>2022-08-18T07:58:42Z</time>
      </trkpt>
      <trkpt lat="45.15773" lon="1.01127">
        <ele>214.1629127</ele>
        <time>2022-08-18T07:58:44Z</time>
      </trkpt>
      <trkpt lat="45.15769" lon="1.01125">
        <ele>214.2913403</ele>
        <time>2022-08-18T07:58:46Z</time>
      </trkpt>
      <trkpt lat="45.15765" lon="1.01124">
        <ele>214.3046423</ele>
        <time>2022-08-18T07:58:48Z</time>
      </trkpt>
      <trkpt lat="45.15761" lon="1.01122">
        <ele>214.3930798</ele>
        <time>2022-08-18T07:58:50Z</time>
      </trkpt>
      <trkpt lat="45.15756" lon="1.0112">
        <ele>214.5202356</ele>
        <time>2022-08-18T07:58:52Z</time>
      </trkpt>
      <trkpt lat="45.15752" lon="1.01118">
        <ele>214.5498322</ele>
        <time>2022-08-18T07:58:54Z</time>
      </trkpt>
      <trkpt lat="45.15747" lon="1.01115">
        <ele>214.6131437</ele>
        <time>2022-08-18T07:58:56Z</time>
      </trkpt>
      <trkpt lat="45.15743" lon="1.01113">
        <ele>214.7127494</ele>
        <time>2022-08-18T07:58:58Z</time>
      </trkpt>
      <trkpt lat="45.15738" lon="1.0111">
        <ele>215.0231957</ele>
        <time>2022-08-18T07:59:00Z</time>
      </trkpt>
      <trkpt lat="45.15733" lon="1.01108">
        <ele>215.3258854</ele>
        <time>2022-08-18T07:59:02Z</time>
      </trkpt>
      <trkpt lat="45.15728" lon="1.01106">
        <ele>215.2932959</ele>
        <time>2022-08-18T07:59:04Z</time>
      </trkpt>
      <trkpt lat="45.15724" lon="1.01103">
        <ele>215.2607766</ele>
        <time>2022-08-18T07:59:06Z</time>
      </trkpt>
      <trkpt lat="45.15719" lon="1.011">
        <ele>215.3970097</ele>
        <time>2022-08-18T07:59:08Z</time>
      </trkpt>
      <trkpt lat="45.15714" lon="1.01097">
        <ele>215.2773233</ele>
        <time>2022-08-18T07:59:10Z</time>
      </trkpt>
      <trkpt lat="45.15711" lon="1.01092">
        <ele>215.2636257</ele>
        <time>2022-08-18T07:59:12Z</time>
      </trkpt>
      <trkpt lat="45.15707" lon="1.01084">
        <ele>215.0109826</ele>
        <time>2022-08-18T07:59:14Z</time>
      </trkpt>
      <trkpt lat="45.15704" lon="1.01074">
        <ele>214.9345864</ele>
        <time>2022-08-18T07:59:16Z</time>
      </trkpt>
      <trkpt lat="45.15702" lon="1.01064">
        <ele>215.3252561</ele>
        <time>2022-08-18T07:59:18Z</time>
      </trkpt>
      <trkpt lat="45.15702" lon="1.01053">
        <ele>215.4622401</ele>
        <time>2022-08-18T07:59:20Z</time>
      </trkpt>
      <trkpt lat="45.15704" lon="1.01041">
        <ele>215.0015058</ele>
        <time>2022-08-18T07:59:22Z</time>
      </trkpt>
      <trkpt lat="45.15707" lon="1.0103">
        <ele>215.1528853</ele>
        <time>2022-08-18T07:59:24Z</time>
      </trkpt>
      <trkpt lat="45.1571" lon="1.0102">
        <ele>215.4136908</ele>
        <time>2022-08-18T07:59:26Z</time>
      </trkpt>
      <trkpt lat="45.15714" lon="1.0101">
        <ele>216.0378241</ele>
        <time>2022-08-18T07:59:28Z</time>
      </trkpt>
      <trkpt lat="45.15716" lon="1.01002">
        <ele>216.7999421</ele>
        <time>2022-08-18T07:59:30Z</time>
      </trkpt>
      <trkpt lat="45.15718" lon="1.00995">
        <ele>217.4725658</ele>
        <time>2022-08-18T07:59:32Z</time>
      </trkpt>
      <trkpt lat="45.1572" lon="1.00989">
        <ele>217.9819333</ele>
        <time>2022-08-18T07:59:34Z</time>
      </trkpt>
      <trkpt lat="45.15722" lon="1.00983">
        <ele>218.7555911</ele>
        <time>2022-08-18T07:59:36Z</time>
      </trkpt>
      <trkpt lat="45.15724" lon="1.00978">
        <ele>219.0053574</ele>
        <time>2022-08-18T07:59:38Z</time>
      </trkpt>
      <trkpt lat="45.15725" lon="1.00972">
        <ele>219.0264255</ele>
        <time>2022-08-18T07:59:40Z</time>
      </trkpt>
      <trkpt lat="45.15727" lon="1.00967">
        <ele>219.3057435</ele>
        <time>2022-08-18T07:59:42Z</time>
      </trkpt>
      <trkpt lat="45.15727" lon="1.00961">
        <ele>219.5604912</ele>
        <time>2022-08-18T07:59:44Z</time>
      </trkpt>
      <trkpt lat="45.15728" lon="1.00956">
        <ele>219.8803977</ele>
        <time>2022-08-18T07:59:46Z</time>
      </trkpt>
      <trkpt lat="45.15729" lon="1.0095">
        <ele>220.2421763</ele>
        <time>2022-08-18T07:59:48Z</time>
      </trkpt>
      <trkpt lat="45.1573" lon="1.00946">
        <ele>220.2945207</ele>
        <time>2022-08-18T07:59:50Z</time>
      </trkpt>
      <trkpt lat="45.1573" lon="1.0094">
        <ele>220.9739987</ele>
        <time>2022-08-18T07:59:52Z</time>
      </trkpt>
      <trkpt lat="45.15731" lon="1.00935">
        <ele>220.737768</ele>
        <time>2022-08-18T07:59:54Z</time>
      </trkpt>
      <trkpt lat="45.15731" lon="1.0093">
        <ele>221.046384</ele>
        <time>2022-08-18T07:59:56Z</time>
      </trkpt>
      <trkpt lat="45.15731" lon="1.00925">
        <ele>221.3893974</ele>
        <time>2022-08-18T07:59:58Z</time>
      </trkpt>
      <trkpt lat="45.15731" lon="1.00921">
        <ele>221.9212151</ele>
        <time>2022-08-18T08:00:00Z</time>
      </trkpt>
      <trkpt lat="45.15732" lon="1.00917">
        <ele>222.2220473</ele>
        <time>2022-08-18T08:00:02Z</time>
      </trkpt>
      <trkpt lat="45.15732" lon="1.00912">
        <ele>222.3512981</ele>
        <time>2022-08-18T08:00:04Z</time>
      </trkpt>
      <trkpt lat="45.15732" lon="1.00907">
        <ele>222.4923266</ele>
        <time>2022-08-18T08:00:06Z</time>
      </trkpt>
      <trkpt lat="45.15732" lon="1.00902">
        <ele>222.6616039</ele>
        <time>2022-08-18T08:00:08Z</time>
      </trkpt>
      <trkpt lat="45.15732" lon="1.00898">
        <ele>223.0135262</ele>
        <time>2022-08-18T08:00:10Z</time>
      </trkpt>
      <trkpt lat="45.15732" lon="1.00893">
        <ele>224.0265319</ele>
        <time>2022-08-18T08:00:12Z</time>
      </trkpt>
      <trkpt lat="45.15733" lon="1.00889">
        <ele>224.1347493</ele>
        <time>2022-08-18T08:00:14Z</time>
      </trkpt>
      <trkpt lat="45.15732" lon="1.00884">
        <ele>224.518853</ele>
        <time>2022-08-18T08:00:16Z</time>
      </trkpt>
      <trkpt lat="45.15733" lon="1.0088">
        <ele>224.5825577</ele>
        <time>2022-08-18T08:00:18Z</time>
      </trkpt>
      <trkpt lat="45.15733" lon="1.00875">
        <ele>224.959248</ele>
        <time>2022-08-18T08:00:20Z</time>
      </trkpt>
      <trkpt lat="45.15734" lon="1.00869">
        <ele>225.1563167</ele>
        <time>2022-08-18T08:00:22Z</time>
      </trkpt>
      <trkpt lat="45.15735" lon="1.00864">
        <ele>225.4945968</ele>
        <time>2022-08-18T08:00:24Z</time>
      </trkpt>
      <trkpt lat="45.15735" lon="1.00859">
        <ele>225.6660763</ele>
        <time>2022-08-18T08:00:26Z</time>
      </trkpt>
      <trkpt lat="45.15735" lon="1.00854">
        <ele>225.7036232</ele>
        <time>2022-08-18T08:00:28Z</time>
      </trkpt>
      <trkpt lat="45.15736" lon="1.00848">
        <ele>225.8107455</ele>
        <time>2022-08-18T08:00:30Z</time>
      </trkpt>
      <trkpt lat="45.15737" lon="1.00843">
        <ele>226.6658923</ele>
        <time>2022-08-18T08:00:32Z</time>
      </trkpt>
      <trkpt lat="45.15738" lon="1.00839">
        <ele>226.3302891</ele>
        <time>2022-08-18T08:00:34Z</time>
      </trkpt>
      <trkpt lat="45.15739" lon="1.00834">
        <ele>226.7425118</ele>
        <time>2022-08-18T08:00:36Z</time>
      </trkpt>
      <trkpt lat="45.15739" lon="1.0083">
        <ele>226.5561108</ele>
        <time>2022-08-18T08:00:38Z</time>
      </trkpt>
      <trkpt lat="45.15739" lon="1.00824">
        <ele>227.0790434</ele>
        <time>2022-08-18T08:00:40Z</time>
      </trkpt>
      <trkpt lat="45.1574" lon="1.0082">
        <ele>227.0213577</ele>
        <time>2022-08-18T08:00:42Z</time>
      </trkpt>
      <trkpt lat="45.15741" lon="1.00816">
        <ele>227.185372</ele>
        <time>2022-08-18T08:00:44Z</time>
      </trkpt>
      <trkpt lat="45.15742" lon="1.00811">
        <ele>227.2883612</ele>
        <time>2022-08-18T08:00:46Z</time>
      </trkpt>
      <trkpt lat="45.15742" lon="1.00807">
        <ele>227.2228446</ele>
        <time>2022-08-18T08:00:48Z</time>
      </trkpt>
      <trkpt lat="45.15743" lon="1.00803">
        <ele>227.3254915</ele>
        <time>2022-08-18T08:00:50Z</time>
      </trkpt>
      <trkpt lat="45.15744" lon="1.00799">
        <ele>227.1457937</ele>
        <time>2022-08-18T08:00:52Z</time>
      </trkpt>
      <trkpt lat="45.15745" lon="1.00795">
        <ele>227.0190545</ele>
        <time>2022-08-18T08:00:54Z</time>
      </trkpt>
      <trkpt lat="45.15746" lon="1.00791">
        <ele>226.3754288</ele>
        <time>2022-08-18T08:00:56Z</time>
      </trkpt>
      <trkpt lat="45.15745" lon="1.00786">
        <ele>227.088855</ele>
        <time>2022-08-18T08:00:58Z</time>
      </trkpt>
      <trkpt lat="45.15745" lon="1.00782">
        <ele>227.4508911</ele>
        <time>2022-08-18T08:01:00Z</time>
      </trkpt>
      <trkpt lat="45.15747" lon="1.00779">
        <ele>226.9658533</ele>
        <time>2022-08-18T08:01:02Z</time>
      </trkpt>
      <trkpt lat="45.15747" lon="1.00774">
        <ele>227.2093499</ele>
        <time>2022-08-18T08:01:04Z</time>
      </trkpt>
      <trkpt lat="45.15747" lon="1.0077">
        <ele>227.9093049</ele>
        <time>2022-08-18T08:01:06Z</time>
      </trkpt>
      <trkpt lat="45.15748" lon="1.00766">
        <ele>227.6925644</ele>
        <time>2022-08-18T08:01:08Z</time>
      </trkpt>
      <trkpt lat="45.15748" lon="1.00761">
        <ele>228.076921</ele>
        <time>2022-08-18T08:01:10Z</time>
      </trkpt>
      <trkpt lat="45.15749" lon="1.00757">
        <ele>228.6686119</ele>
        <time>2022-08-18T08:01:12Z</time>
      </trkpt>
      <trkpt lat="45.15748" lon="1.00753">
        <ele>229.2206009</ele>
        <time>2022-08-18T08:01:14Z</time>
      </trkpt>
      <trkpt lat="45.15749" lon="1.00749">
        <ele>229.9102477</ele>
        <time>2022-08-18T08:01:16Z</time>
      </trkpt>
      <trkpt lat="45.15749" lon="1.00745">
        <ele>230.2673964</ele>
        <time>2022-08-18T08:01:18Z</time>
      </trkpt>
      <trkpt lat="45.15749" lon="1.0074">
        <ele>231.0980539</ele>
        <time>2022-08-18T08:01:20Z</time>
      </trkpt>
      <trkpt lat="45.15749" lon="1.00736">
        <ele>231.6111334</ele>
        <time>2022-08-18T08:01:22Z</time>
      </trkpt>
      <trkpt lat="45.15748" lon="1.00732">
        <ele>232.3957813</ele>
        <time>2022-08-18T08:01:24Z</time>
      </trkpt>
      <trkpt lat="45.15748" lon="1.00727">
        <ele>232.4249097</ele>
        <time>2022-08-18T08:01:26Z</time>
      </trkpt>
      <trkpt lat="45.15748" lon="1.00723">
        <ele>232.6118711</ele>
        <time>2022-08-18T08:01:28Z</time>
      </trkpt>
      <trkpt lat="45.15748" lon="1.00719">
        <ele>232.8971526</ele>
        <time>2022-08-18T08:01:30Z</time>
      </trkpt>
      <trkpt lat="45.15747" lon="1.00714">
        <ele>233.2671353</ele>
        <time>2022-08-18T08:01:32Z</time>
      </trkpt>
      <trkpt lat="45.15747" lon="1.0071">
        <ele>233.256967</ele>
        <time>2022-08-18T08:01:34Z</time>
      </trkpt>
      <trkpt lat="45.15746" lon="1.00706">
        <ele>233.2434854</ele>
        <time>2022-08-18T08:01:36Z</time>
      </trkpt>
      <trkpt lat="45.15745" lon="1.00702">
        <ele>233.2623469</ele>
        <time>2022-08-18T08:01:38Z</time>
      </trkpt>
      <trkpt lat="45.15745" lon="1.00697">
        <ele>232.9883088</ele>
        <time>2022-08-18T08:01:40Z</time>
      </trkpt>
      <trkpt lat="45.15745" lon="1.00692">
        <ele>233.3134031</ele>
        <time>2022-08-18T08:01:42Z</time>
      </trkpt>
      <trkpt lat="45.15745" lon="1.00688">
        <ele>232.7252741</ele>
        <time>2022-08-18T08:01:44Z</time>
      </trkpt>
      <trkpt lat="45.15744" lon="1.00682">
        <ele>233.6153161</ele>
        <time>2022-08-18T08:01:46Z</time>
      </trkpt>
      <trkpt lat="45.15743" lon="1.00677">
        <ele>233.8728196</ele>
        <time>2022-08-18T08:01:48Z</time>
      </trkpt>
      <trkpt lat="45.15743" lon="1.0067">
        <ele>233.7852979</ele>
        <time>2022-08-18T08:01:50Z</time>
      </trkpt>
      <trkpt lat="45.15743" lon="1.00661">
        <ele>234.7274707</ele>
        <time>2022-08-18T08:01:52Z</time>
      </trkpt>
      <trkpt lat="45.15744" lon="1.00652">
        <ele>234.4986311</ele>
        <time>2022-08-18T08:01:54Z</time>
      </trkpt>
      <trkpt lat="45.15745" lon="1.00642">
        <ele>234.3163489</ele>
        <time>2022-08-18T08:01:56Z</time>
      </trkpt>
      <trkpt lat="45.15747" lon="1.00632">
        <ele>234.4810396</ele>
        <time>2022-08-18T08:01:58Z</time>
      </trkpt>
      <trkpt lat="45.1575" lon="1.00622">
        <ele>234.3771284</ele>
        <time>2022-08-18T08:02:00Z</time>
      </trkpt>
      <trkpt lat="45.15753" lon="1.00613">
        <ele>234.2789325</ele>
        <time>2022-08-18T08:02:02Z</time>
      </trkpt>
      <trkpt lat="45.15756" lon="1.00605">
        <ele>234.9643833</ele>
        <time>2022-08-18T08:02:04Z</time>
      </trkpt>
      <trkpt lat="45.1576" lon="1.00596">
        <ele>235.4439068</ele>
        <time>2022-08-18T08:02:06Z</time>
      </trkpt>
      <trkpt lat="45.15763" lon="1.00588">
        <ele>235.3797586</ele>
        <time>2022-08-18T08:02:08Z</time>
      </trkpt>
      <trkpt lat="45.15767" lon="1.00579">
        <ele>234.9416712</ele>
        <time>2022-08-18T08:02:10Z</time>
      </trkpt>
      <trkpt lat="45.15771" lon="1.0057">
        <ele>235.0700262</ele>
        <time>2022-08-18T08:02:12Z</time>
      </trkpt>
      <trkpt lat="45.15775" lon="1.0056">
        <ele>234.8390079</ele>
        <time>2022-08-18T08:02:14Z</time>
      </trkpt>
      <trkpt lat="45.15779" lon="1.0055">
        <ele>234.2345388</ele>
        <time>2022-08-18T08:02:16Z</time>
      </trkpt>
      <trkpt lat="45.15783" lon="1.00541">
        <ele>234.2770429</ele>
        <time>2022-08-18T08:02:18Z</time>
      </trkpt>
      <trkpt lat="45.15788" lon="1.0053">
        <ele>234.0880367</ele>
        <time>2022-08-18T08:02:20Z</time>
      </trkpt>
      <trkpt lat="45.15792" lon="1.00519">
        <ele>233.8092197</ele>
        <time>2022-08-18T08:02:22Z</time>
      </trkpt>
      <trkpt lat="45.15796" lon="1.00509">
        <ele>233.0992796</ele>
        <time>2022-08-18T08:02:24Z</time>
      </trkpt>
      <trkpt lat="45.158" lon="1.00498">
        <ele>232.8777585</ele>
        <time>2022-08-18T08:02:26Z</time>
      </trkpt>
      <trkpt lat="45.15805" lon="1.00486">
        <ele>232.2674397</ele>
        <time>2022-08-18T08:02:28Z</time>
      </trkpt>
      <trkpt lat="45.15811" lon="1.00473">
        <ele>231.2611448</ele>
        <time>2022-08-18T08:02:30Z</time>
      </trkpt>
      <trkpt lat="45.15817" lon="1.00458">
        <ele>230.0870229</ele>
        <time>2022-08-18T08:02:32Z</time>
      </trkpt>
      <trkpt lat="45.15822" lon="1.00444">
        <ele>228.5794304</ele>
        <time>2022-08-18T08:02:34Z</time>
      </trkpt>
      <trkpt lat="45.15829" lon="1.00428">
        <ele>227.3586694</ele>
        <time>2022-08-18T08:02:36Z</time>
      </trkpt>
      <trkpt lat="45.15834" lon="1.00417">
        <ele>226.8955699</ele>
        <time>2022-08-18T08:02:38Z</time>
      </trkpt>
      <trkpt lat="45.15839" lon="1.00405">
        <ele>226.0549437</ele>
        <time>2022-08-18T08:02:40Z</time>
      </trkpt>
      <trkpt lat="45.15846" lon="1.00391">
        <ele>224.3864384</ele>
        <time>2022-08-18T08:02:42Z</time>
      </trkpt>
      <trkpt lat="45.15854" lon="1.00375">
        <ele>223.6846833</ele>
        <time>2022-08-18T08:02:44Z</time>
      </trkpt>
      <trkpt lat="45.15863" lon="1.00358">
        <ele>222.2408752</ele>
        <time>2022-08-18T08:02:46Z</time>
      </trkpt>
      <trkpt lat="45.15874" lon="1.00341">
        <ele>220.656053</ele>
        <time>2022-08-18T08:02:48Z</time>
      </trkpt>
      <trkpt lat="45.15885" lon="1.00322">
        <ele>219.4697443</ele>
        <time>2022-08-18T08:02:50Z</time>
      </trkpt>
      <trkpt lat="45.15898" lon="1.00303">
        <ele>217.3789501</ele>
        <time>2022-08-18T08:02:52Z</time>
      </trkpt>
      <trkpt lat="45.15911" lon="1.00283">
        <ele>215.9787072</ele>
        <time>2022-08-18T08:02:54Z</time>
      </trkpt>
      <trkpt lat="45.15924" lon="1.00262">
        <ele>213.8558132</ele>
        <time>2022-08-18T08:02:56Z</time>
      </trkpt>
      <trkpt lat="45.15936" lon="1.00241">
        <ele>211.950643</ele>
        <time>2022-08-18T08:02:58Z</time>
      </trkpt>
      <trkpt lat="45.15946" lon="1.00222">
        <ele>209.5619576</ele>
        <time>2022-08-18T08:03:00Z</time>
      </trkpt>
      <trkpt lat="45.15956" lon="1.00201">
        <ele>207.7344519</ele>
        <time>2022-08-18T08:03:02Z</time>
      </trkpt>
      <trkpt lat="45.15961" lon="1.00178">
        <ele>205.8944383</ele>
        <time>2022-08-18T08:03:04Z</time>
      </trkpt>
      <trkpt lat="45.15962" lon="1.00158">
        <ele>204.3459921</ele>
        <time>2022-08-18T08:03:06Z</time>
      </trkpt>
      <trkpt lat="45.15961" lon="1.00139">
        <ele>202.860593</ele>
        <time>2022-08-18T08:03:08Z</time>
      </trkpt>
      <trkpt lat="45.15955" lon="1.00122">
        <ele>201.1017205</ele>
        <time>2022-08-18T08:03:10Z</time>
      </trkpt>
      <trkpt lat="45.15947" lon="1.00105">
        <ele>199.195053</ele>
        <time>2022-08-18T08:03:12Z</time>
      </trkpt>
      <trkpt lat="45.15937" lon="1.00084">
        <ele>196.4768987</ele>
        <time>2022-08-18T08:03:14Z</time>
      </trkpt>
      <trkpt lat="45.1593" lon="1.00059">
        <ele>193.6748431</ele>
        <time>2022-08-18T08:03:16Z</time>
      </trkpt>
      <trkpt lat="45.15927" lon="1.00029">
        <ele>191.3145102</ele>
        <time>2022-08-18T08:03:18Z</time>
      </trkpt>
      <trkpt lat="45.15929" lon="0.99996">
        <ele>188.6560594</ele>
        <time>2022-08-18T08:03:20Z</time>
      </trkpt>
      <trkpt lat="45.1593" lon="0.99961">
        <ele>186.7736256</ele>
        <time>2022-08-18T08:03:22Z</time>
      </trkpt>
      <trkpt lat="45.1593" lon="0.99929">
        <ele>186.9022647</ele>
        <time>2022-08-18T08:03:24Z</time>
      </trkpt>
      <trkpt lat="45.1593" lon="0.99899">
        <ele>186.8932389</ele>
        <time>2022-08-18T08:03:26Z</time>
      </trkpt>
      <trkpt lat="45.15929" lon="0.99873">
        <ele>187.7334976</ele>
        <time>2022-08-18T08:03:28Z</time>
      </trkpt>
      <trkpt lat="45.15928" lon="0.99853">
        <ele>188.8202159</ele>
        <time>2022-08-18T08:03:30Z</time>
      </trkpt>
      <trkpt lat="45.15927" lon="0.99832">
        <ele>188.6440138</ele>
        <time>2022-08-18T08:03:32Z</time>
      </trkpt>
      <trkpt lat="45.15929" lon="0.99811">
        <ele>188.9441602</ele>
        <time>2022-08-18T08:03:34Z</time>
      </trkpt>
      <trkpt lat="45.15932" lon="0.99792">
        <ele>189.3068749</ele>
        <time>2022-08-18T08:03:36Z</time>
      </trkpt>
      <trkpt lat="45.15936" lon="0.99777">
        <ele>189.9551147</ele>
        <time>2022-08-18T08:03:38Z</time>
      </trkpt>
      <trkpt lat="45.15939" lon="0.99764">
        <ele>190.7499765</ele>
        <time>2022-08-18T08:03:40Z</time>
      </trkpt>
      <trkpt lat="45.15941" lon="0.99754">
        <ele>190.6532612</ele>
        <time>2022-08-18T08:03:42Z</time>
      </trkpt>
      <trkpt lat="45.15942" lon="0.99745">
        <ele>191.7745726</ele>
        <time>2022-08-18T08:03:44Z</time>
      </trkpt>
      <trkpt lat="45.15944" lon="0.99737">
        <ele>192.6270463</ele>
        <time>2022-08-18T08:03:46Z</time>
      </trkpt>
      <trkpt lat="45.15944" lon="0.9973">
        <ele>192.5577699</ele>
        <time>2022-08-18T08:03:48Z</time>
      </trkpt>
      <trkpt lat="45.15945" lon="0.99723">
        <ele>192.6216504</ele>
        <time>2022-08-18T08:03:50Z</time>
      </trkpt>
      <trkpt lat="45.15945" lon="0.99714">
        <ele>193.184333</ele>
        <time>2022-08-18T08:03:52Z</time>
      </trkpt>
      <trkpt lat="45.15946" lon="0.99706">
        <ele>193.2789571</ele>
        <time>2022-08-18T08:03:54Z</time>
      </trkpt>
      <trkpt lat="45.15947" lon="0.99697">
        <ele>193.3639674</ele>
        <time>2022-08-18T08:03:56Z</time>
      </trkpt>
      <trkpt lat="45.15947" lon="0.99689">
        <ele>193.3457273</ele>
        <time>2022-08-18T08:03:58Z</time>
      </trkpt>
      <trkpt lat="45.15947" lon="0.99682">
        <ele>193.4844069</ele>
        <time>2022-08-18T08:04:00Z</time>
      </trkpt>
      <trkpt lat="45.15948" lon="0.99674">
        <ele>193.7684024</ele>
        <time>2022-08-18T08:04:02Z</time>
      </trkpt>
      <trkpt lat="45.15949" lon="0.99667">
        <ele>193.8347437</ele>
        <time>2022-08-18T08:04:04Z</time>
      </trkpt>
      <trkpt lat="45.15949" lon="0.9966">
        <ele>194.060615</ele>
        <time>2022-08-18T08:04:06Z</time>
      </trkpt>
      <trkpt lat="45.1595" lon="0.99653">
        <ele>194.2397089</ele>
        <time>2022-08-18T08:04:08Z</time>
      </trkpt>
      <trkpt lat="45.1595" lon="0.99646">
        <ele>194.3494903</ele>
        <time>2022-08-18T08:04:10Z</time>
      </trkpt>
      <trkpt lat="45.15951" lon="0.99635">
        <ele>194.6365632</ele>
        <time>2022-08-18T08:04:13Z</time>
      </trkpt>
      <trkpt lat="45.15952" lon="0.99628">
        <ele>195.1794631</ele>
        <time>2022-08-18T08:04:15Z</time>
      </trkpt>
      <trkpt lat="45.15952" lon="0.99621">
        <ele>195.3801194</ele>
        <time>2022-08-18T08:04:17Z</time>
      </trkpt>
      <trkpt lat="45.15953" lon="0.99613">
        <ele>195.7220491</ele>
        <time>2022-08-18T08:04:19Z</time>
      </trkpt>
      <trkpt lat="45.15954" lon="0.99607">
        <ele>195.5583423</ele>
        <time>2022-08-18T08:04:21Z</time>
      </trkpt>
      <trkpt lat="45.15955" lon="0.99599">
        <ele>196.0039603</ele>
        <time>2022-08-18T08:04:23Z</time>
      </trkpt>
      <trkpt lat="45.15955" lon="0.99592">
        <ele>196.2997807</ele>
        <time>2022-08-18T08:04:25Z</time>
      </trkpt>
      <trkpt lat="45.15955" lon="0.99585">
        <ele>196.4125574</ele>
        <time>2022-08-18T08:04:27Z</time>
      </trkpt>
      <trkpt lat="45.15956" lon="0.99578">
        <ele>196.8382825</ele>
        <time>2022-08-18T08:04:29Z</time>
      </trkpt>
      <trkpt lat="45.15958" lon="0.9957">
        <ele>197.09548</ele>
        <time>2022-08-18T08:04:31Z</time>
      </trkpt>
      <trkpt lat="45.15958" lon="0.99567">
        <ele>197.2757876</ele>
        <time>2022-08-18T08:04:32Z</time>
      </trkpt>
      <trkpt lat="45.1596" lon="0.99559">
        <ele>197.2442563</ele>
        <time>2022-08-18T08:04:34Z</time>
      </trkpt>
      <trkpt lat="45.15961" lon="0.99551">
        <ele>197.4201803</ele>
        <time>2022-08-18T08:04:36Z</time>
      </trkpt>
      <trkpt lat="45.15961" lon="0.99543">
        <ele>197.7058025</ele>
        <time>2022-08-18T08:04:38Z</time>
      </trkpt>
      <trkpt lat="45.15962" lon="0.99536">
        <ele>197.7983089</ele>
        <time>2022-08-18T08:04:40Z</time>
      </trkpt>
      <trkpt lat="45.15963" lon="0.99528">
        <ele>198.0609447</ele>
        <time>2022-08-18T08:04:42Z</time>
      </trkpt>
      <trkpt lat="45.15963" lon="0.99521">
        <ele>198.1871283</ele>
        <time>2022-08-18T08:04:44Z</time>
      </trkpt>
      <trkpt lat="45.15964" lon="0.99515">
        <ele>198.2493889</ele>
        <time>2022-08-18T08:04:46Z</time>
      </trkpt>
      <trkpt lat="45.15964" lon="0.99508">
        <ele>198.7007489</ele>
        <time>2022-08-18T08:04:48Z</time>
      </trkpt>
      <trkpt lat="45.15965" lon="0.99502">
        <ele>198.721894</ele>
        <time>2022-08-18T08:04:50Z</time>
      </trkpt>
      <trkpt lat="45.15965" lon="0.99496">
        <ele>198.6209834</ele>
        <time>2022-08-18T08:04:52Z</time>
      </trkpt>
      <trkpt lat="45.15966" lon="0.9949">
        <ele>198.8735443</ele>
        <time>2022-08-18T08:04:54Z</time>
      </trkpt>
      <trkpt lat="45.15966" lon="0.99484">
        <ele>198.967886</ele>
        <time>2022-08-18T08:04:56Z</time>
      </trkpt>
      <trkpt lat="45.15967" lon="0.99479">
        <ele>199.2684784</ele>
        <time>2022-08-18T08:04:58Z</time>
      </trkpt>
      <trkpt lat="45.15968" lon="0.99474">
        <ele>199.6900604</ele>
        <time>2022-08-18T08:05:00Z</time>
      </trkpt>
      <trkpt lat="45.15968" lon="0.99469">
        <ele>200.17431</ele>
        <time>2022-08-18T08:05:02Z</time>
      </trkpt>
      <trkpt lat="45.15969" lon="0.99465">
        <ele>200.444733</ele>
        <time>2022-08-18T08:05:04Z</time>
      </trkpt>
      <trkpt lat="45.15969" lon="0.9946">
        <ele>200.5236507</ele>
        <time>2022-08-18T08:05:06Z</time>
      </trkpt>
      <trkpt lat="45.1597" lon="0.99455">
        <ele>200.8323919</ele>
        <time>2022-08-18T08:05:08Z</time>
      </trkpt>
      <trkpt lat="45.1597" lon="0.99451">
        <ele>201.0153235</ele>
        <time>2022-08-18T08:05:10Z</time>
      </trkpt>
      <trkpt lat="45.15971" lon="0.99446">
        <ele>201.1286328</ele>
        <time>2022-08-18T08:05:12Z</time>
      </trkpt>
      <trkpt lat="45.15971" lon="0.99442">
        <ele>201.1235847</ele>
        <time>2022-08-18T08:05:14Z</time>
      </trkpt>
      <trkpt lat="45.15972" lon="0.99438">
        <ele>201.455698</ele>
        <time>2022-08-18T08:05:16Z</time>
      </trkpt>
      <trkpt lat="45.15972" lon="0.99433">
        <ele>201.4034152</ele>
        <time>2022-08-18T08:05:18Z</time>
      </trkpt>
      <trkpt lat="45.15972" lon="0.99429">
        <ele>201.8788257</ele>
        <time>2022-08-18T08:05:20Z</time>
      </trkpt>
      <trkpt lat="45.15973" lon="0.99425">
        <ele>202.080738</ele>
        <time>2022-08-18T08:05:22Z</time>
      </trkpt>
      <trkpt lat="45.15974" lon="0.9942">
        <ele>202.257274</ele>
        <time>2022-08-18T08:05:24Z</time>
      </trkpt>
      <trkpt lat="45.15974" lon="0.99416">
        <ele>202.5673469</ele>
        <time>2022-08-18T08:05:26Z</time>
      </trkpt>
      <trkpt lat="45.15975" lon="0.99411">
        <ele>203.0916752</ele>
        <time>2022-08-18T08:05:28Z</time>
      </trkpt>
      <trkpt lat="45.15974" lon="0.99407">
        <ele>203.1471018</ele>
        <time>2022-08-18T08:05:30Z</time>
      </trkpt>
      <trkpt lat="45.15975" lon="0.99402">
        <ele>203.3081952</ele>
        <time>2022-08-18T08:05:32Z</time>
      </trkpt>
      <trkpt lat="45.15976" lon="0.99398">
        <ele>204.016875</ele>
        <time>2022-08-18T08:05:34Z</time>
      </trkpt>
      <trkpt lat="45.15977" lon="0.99394">
        <ele>204.3014611</ele>
        <time>2022-08-18T08:05:36Z</time>
      </trkpt>
      <trkpt lat="45.15978" lon="0.99389">
        <ele>204.232715</ele>
        <time>2022-08-18T08:05:38Z</time>
      </trkpt>
      <trkpt lat="45.15978" lon="0.99385">
        <ele>204.3559324</ele>
        <time>2022-08-18T08:05:40Z</time>
      </trkpt>
      <trkpt lat="45.15978" lon="0.9938">
        <ele>204.6035904</ele>
        <time>2022-08-18T08:05:42Z</time>
      </trkpt>
      <trkpt lat="45.15979" lon="0.99378">
        <ele>204.4583321</ele>
        <time>2022-08-18T08:05:44Z</time>
      </trkpt>
      <trkpt lat="45.15979" lon="0.99373">
        <ele>204.4335605</ele>
        <time>2022-08-18T08:05:46Z</time>
      </trkpt>
      <trkpt lat="45.1598" lon="0.99369">
        <ele>204.6448544</ele>
        <time>2022-08-18T08:05:48Z</time>
      </trkpt>
      <trkpt lat="45.15981" lon="0.99364">
        <ele>204.7159847</ele>
        <time>2022-08-18T08:05:50Z</time>
      </trkpt>
      <trkpt lat="45.15981" lon="0.9936">
        <ele>205.069838</ele>
        <time>2022-08-18T08:05:52Z</time>
      </trkpt>
      <trkpt lat="45.15981" lon="0.99355">
        <ele>204.937968</ele>
        <time>2022-08-18T08:05:54Z</time>
      </trkpt>
      <trkpt lat="45.15982" lon="0.9935">
        <ele>205.9776085</ele>
        <time>2022-08-18T08:05:56Z</time>
      </trkpt>
      <trkpt lat="45.15982" lon="0.99345">
        <ele>207.3566965</ele>
        <time>2022-08-18T08:05:58Z</time>
      </trkpt>
      <trkpt lat="45.15982" lon="0.9934">
        <ele>208.4944493</ele>
        <time>2022-08-18T08:06:00Z</time>
      </trkpt>
      <trkpt lat="45.15982" lon="0.99335">
        <ele>208.8602891</ele>
        <time>2022-08-18T08:06:02Z</time>
      </trkpt>
      <trkpt lat="45.15983" lon="0.9933">
        <ele>209.2912568</ele>
        <time>2022-08-18T08:06:04Z</time>
      </trkpt>
      <trkpt lat="45.15982" lon="0.99324">
        <ele>210.2887804</ele>
        <time>2022-08-18T08:06:06Z</time>
      </trkpt>
      <trkpt lat="45.15983" lon="0.99318">
        <ele>211.1986952</ele>
        <time>2022-08-18T08:06:08Z</time>
      </trkpt>
      <trkpt lat="45.15984" lon="0.99313">
        <ele>211.997169</ele>
        <time>2022-08-18T08:06:10Z</time>
      </trkpt>
      <trkpt lat="45.15985" lon="0.99307">
        <ele>212.3242452</ele>
        <time>2022-08-18T08:06:12Z</time>
      </trkpt>
      <trkpt lat="45.15985" lon="0.99301">
        <ele>213.5665004</ele>
        <time>2022-08-18T08:06:14Z</time>
      </trkpt>
      <trkpt lat="45.15985" lon="0.99295">
        <ele>214.3950797</ele>
        <time>2022-08-18T08:06:16Z</time>
      </trkpt>
      <trkpt lat="45.15985" lon="0.99287">
        <ele>213.9330923</ele>
        <time>2022-08-18T08:06:19Z</time>
      </trkpt>
      <trkpt lat="45.15985" lon="0.99281">
        <ele>214.0399275</ele>
        <time>2022-08-18T08:06:21Z</time>
      </trkpt>
      <trkpt lat="45.15986" lon="0.99275">
        <ele>214.2843773</ele>
        <time>2022-08-18T08:06:23Z</time>
      </trkpt>
      <trkpt lat="45.15985" lon="0.99268">
        <ele>214.9802245</ele>
        <time>2022-08-18T08:06:25Z</time>
      </trkpt>
      <trkpt lat="45.15985" lon="0.99263">
        <ele>215.5127044</ele>
        <time>2022-08-18T08:06:27Z</time>
      </trkpt>
      <trkpt lat="45.15985" lon="0.99257">
        <ele>215.4879281</ele>
        <time>2022-08-18T08:06:29Z</time>
      </trkpt>
      <trkpt lat="45.15985" lon="0.99252">
        <ele>214.6131088</ele>
        <time>2022-08-18T08:06:31Z</time>
      </trkpt>
      <trkpt lat="45.15985" lon="0.99246">
        <ele>214.3936753</ele>
        <time>2022-08-18T08:06:33Z</time>
      </trkpt>
      <trkpt lat="45.15985" lon="0.9924">
        <ele>214.3136382</ele>
        <time>2022-08-18T08:06:35Z</time>
      </trkpt>
      <trkpt lat="45.15985" lon="0.99233">
        <ele>214.4569495</ele>
        <time>2022-08-18T08:06:37Z</time>
      </trkpt>
      <trkpt lat="45.15985" lon="0.99227">
        <ele>213.8659209</ele>
        <time>2022-08-18T08:06:39Z</time>
      </trkpt>
      <trkpt lat="45.15985" lon="0.9922">
        <ele>214.0530441</ele>
        <time>2022-08-18T08:06:41Z</time>
      </trkpt>
      <trkpt lat="45.15985" lon="0.99212">
        <ele>213.7872163</ele>
        <time>2022-08-18T08:06:43Z</time>
      </trkpt>
      <trkpt lat="45.15985" lon="0.99205">
        <ele>213.243305</ele>
        <time>2022-08-18T08:06:45Z</time>
      </trkpt>
      <trkpt lat="45.15986" lon="0.99198">
        <ele>213.0665643</ele>
        <time>2022-08-18T08:06:47Z</time>
      </trkpt>
      <trkpt lat="45.15986" lon="0.99192">
        <ele>212.1769419</ele>
        <time>2022-08-18T08:06:49Z</time>
      </trkpt>
      <trkpt lat="45.15986" lon="0.99187">
        <ele>211.7130958</ele>
        <time>2022-08-18T08:06:51Z</time>
      </trkpt>
      <trkpt lat="45.15986" lon="0.99184">
        <ele>211.725425</ele>
        <time>2022-08-18T08:06:53Z</time>
      </trkpt>
      <trkpt lat="45.15986" lon="0.99182">
        <ele>211.0181</ele>
        <time>2022-08-18T08:06:55Z</time>
      </trkpt>
      <trkpt lat="45.15986" lon="0.99183">
        <ele>210.9441271</ele>
        <time>2022-08-18T08:06:57Z</time>
      </trkpt>
      <trkpt lat="45.15987" lon="0.99184">
        <ele>210.9280472</ele>
        <time>2022-08-18T08:06:59Z</time>
      </trkpt>
      <trkpt lat="45.15987" lon="0.9918">
        <ele>210.9859145</ele>
        <time>2022-08-18T08:07:01Z</time>
      </trkpt>
      <trkpt lat="45.15988" lon="0.99176">
        <ele>210.8179668</ele>
        <time>2022-08-18T08:07:03Z</time>
      </trkpt>
      <trkpt lat="45.15988" lon="0.99169">
        <ele>210.8580766</ele>
        <time>2022-08-18T08:07:05Z</time>
      </trkpt>
      <trkpt lat="45.15988" lon="0.9916">
        <ele>211.3172337</ele>
        <time>2022-08-18T08:07:07Z</time>
      </trkpt>
      <trkpt lat="45.15989" lon="0.99152">
        <ele>211.1458231</ele>
        <time>2022-08-18T08:07:09Z</time>
      </trkpt>
      <trkpt lat="45.1599" lon="0.99144">
        <ele>211.0537951</ele>
        <time>2022-08-18T08:07:11Z</time>
      </trkpt>
      <trkpt lat="45.15991" lon="0.99136">
        <ele>211.3153778</ele>
        <time>2022-08-18T08:07:13Z</time>
      </trkpt>
      <trkpt lat="45.15991" lon="0.99128">
        <ele>211.2904767</ele>
        <time>2022-08-18T08:07:15Z</time>
      </trkpt>
      <trkpt lat="45.15992" lon="0.99124">
        <ele>211.3282154</ele>
        <time>2022-08-18T08:07:16Z</time>
      </trkpt>
      <trkpt lat="45.15993" lon="0.99117">
        <ele>211.6132081</ele>
        <time>2022-08-18T08:07:18Z</time>
      </trkpt>
      <trkpt lat="45.15995" lon="0.99109">
        <ele>211.8353411</ele>
        <time>2022-08-18T08:07:20Z</time>
      </trkpt>
      <trkpt lat="45.15997" lon="0.991">
        <ele>212.0109684</ele>
        <time>2022-08-18T08:07:22Z</time>
      </trkpt>
      <trkpt lat="45.15998" lon="0.99093">
        <ele>211.9725834</ele>
        <time>2022-08-18T08:07:24Z</time>
      </trkpt>
      <trkpt lat="45.15999" lon="0.99085">
        <ele>212.467897</ele>
        <time>2022-08-18T08:07:26Z</time>
      </trkpt>
      <trkpt lat="45.16" lon="0.99076">
        <ele>212.7203762</ele>
        <time>2022-08-18T08:07:28Z</time>
      </trkpt>
      <trkpt lat="45.16002" lon="0.99068">
        <ele>213.0421095</ele>
        <time>2022-08-18T08:07:30Z</time>
      </trkpt>
      <trkpt lat="45.16003" lon="0.9906">
        <ele>213.6087895</ele>
        <time>2022-08-18T08:07:32Z</time>
      </trkpt>
      <trkpt lat="45.16005" lon="0.99052">
        <ele>213.8453288</ele>
        <time>2022-08-18T08:07:34Z</time>
      </trkpt>
      <trkpt lat="45.16006" lon="0.99043">
        <ele>214.0866801</ele>
        <time>2022-08-18T08:07:36Z</time>
      </trkpt>
      <trkpt lat="45.16007" lon="0.99034">
        <ele>214.3394401</ele>
        <time>2022-08-18T08:07:38Z</time>
      </trkpt>
      <trkpt lat="45.16006" lon="0.99025">
        <ele>214.3323918</ele>
        <time>2022-08-18T08:07:40Z</time>
      </trkpt>
      <trkpt lat="45.16007" lon="0.99017">
        <ele>214.4431181</ele>
        <time>2022-08-18T08:07:42Z</time>
      </trkpt>
      <trkpt lat="45.16006" lon="0.99007">
        <ele>214.807319</ele>
        <time>2022-08-18T08:07:44Z</time>
      </trkpt>
      <trkpt lat="45.16007" lon="0.98998">
        <ele>214.9388865</ele>
        <time>2022-08-18T08:07:46Z</time>
      </trkpt>
      <trkpt lat="45.16006" lon="0.98989">
        <ele>214.8912976</ele>
        <time>2022-08-18T08:07:48Z</time>
      </trkpt>
      <trkpt lat="45.16006" lon="0.9898">
        <ele>214.8081238</ele>
        <time>2022-08-18T08:07:50Z</time>
      </trkpt>
      <trkpt lat="45.16005" lon="0.9897">
        <ele>214.9427862</ele>
        <time>2022-08-18T08:07:52Z</time>
      </trkpt>
      <trkpt lat="45.16003" lon="0.98961">
        <ele>215.3051645</ele>
        <time>2022-08-18T08:07:54Z</time>
      </trkpt>
      <trkpt lat="45.16002" lon="0.98952">
        <ele>215.4725139</ele>
        <time>2022-08-18T08:07:56Z</time>
      </trkpt>
      <trkpt lat="45.16002" lon="0.98942">
        <ele>215.6065571</ele>
        <time>2022-08-18T08:07:58Z</time>
      </trkpt>
      <trkpt lat="45.16001" lon="0.98932">
        <ele>215.2988504</ele>
        <time>2022-08-18T08:08:00Z</time>
      </trkpt>
      <trkpt lat="45.15999" lon="0.98919">
        <ele>214.6834333</ele>
        <time>2022-08-18T08:08:02Z</time>
      </trkpt>
      <trkpt lat="45.15998" lon="0.98905">
        <ele>214.0908932</ele>
        <time>2022-08-18T08:08:04Z</time>
      </trkpt>
      <trkpt lat="45.15998" lon="0.98891">
        <ele>212.8183104</ele>
        <time>2022-08-18T08:08:06Z</time>
      </trkpt>
      <trkpt lat="45.15997" lon="0.98874">
        <ele>211.9413779</ele>
        <time>2022-08-18T08:08:08Z</time>
      </trkpt>
      <trkpt lat="45.15995" lon="0.98855">
        <ele>210.7640007</ele>
        <time>2022-08-18T08:08:10Z</time>
      </trkpt>
      <trkpt lat="45.15992" lon="0.98832">
        <ele>209.4024766</ele>
        <time>2022-08-18T08:08:12Z</time>
      </trkpt>
      <trkpt lat="45.15988" lon="0.98809">
        <ele>208.1661708</ele>
        <time>2022-08-18T08:08:14Z</time>
      </trkpt>
      <trkpt lat="45.15983" lon="0.98784">
        <ele>207.275157</ele>
        <time>2022-08-18T08:08:16Z</time>
      </trkpt>
      <trkpt lat="45.15977" lon="0.98761">
        <ele>207.0594927</ele>
        <time>2022-08-18T08:08:18Z</time>
      </trkpt>
      <trkpt lat="45.15973" lon="0.98737">
        <ele>206.3891498</ele>
        <time>2022-08-18T08:08:20Z</time>
      </trkpt>
      <trkpt lat="45.15967" lon="0.98715">
        <ele>206.4257039</ele>
        <time>2022-08-18T08:08:22Z</time>
      </trkpt>
      <trkpt lat="45.1596" lon="0.98684">
        <ele>206.5695488</ele>
        <time>2022-08-18T08:08:25Z</time>
      </trkpt>
      <trkpt lat="45.15956" lon="0.98665">
        <ele>206.8174736</ele>
        <time>2022-08-18T08:08:27Z</time>
      </trkpt>
      <trkpt lat="45.15951" lon="0.9865">
        <ele>207.2511735</ele>
        <time>2022-08-18T08:08:29Z</time>
      </trkpt>
      <trkpt lat="45.15948" lon="0.98635">
        <ele>207.4911555</ele>
        <time>2022-08-18T08:08:31Z</time>
      </trkpt>
      <trkpt lat="45.15944" lon="0.98621">
        <ele>207.6646679</ele>
        <time>2022-08-18T08:08:33Z</time>
      </trkpt>
      <trkpt lat="45.15941" lon="0.98607">
        <ele>208.3077986</ele>
        <time>2022-08-18T08:08:35Z</time>
      </trkpt>
      <trkpt lat="45.15937" lon="0.98595">
        <ele>208.5418168</ele>
        <time>2022-08-18T08:08:37Z</time>
      </trkpt>
      <trkpt lat="45.15934" lon="0.98584">
        <ele>208.7072924</ele>
        <time>2022-08-18T08:08:39Z</time>
      </trkpt>
      <trkpt lat="45.15931" lon="0.98574">
        <ele>208.8693302</ele>
        <time>2022-08-18T08:08:41Z</time>
      </trkpt>
      <trkpt lat="45.15928" lon="0.98565">
        <ele>209.1166982</ele>
        <time>2022-08-18T08:08:43Z</time>
      </trkpt>
      <trkpt lat="45.15925" lon="0.98556">
        <ele>210.0032895</ele>
        <time>2022-08-18T08:08:45Z</time>
      </trkpt>
      <trkpt lat="45.15922" lon="0.98549">
        <ele>209.9127097</ele>
        <time>2022-08-18T08:08:47Z</time>
      </trkpt>
      <trkpt lat="45.15919" lon="0.98542">
        <ele>210.1726454</ele>
        <time>2022-08-18T08:08:49Z</time>
      </trkpt>
      <trkpt lat="45.15916" lon="0.98534">
        <ele>210.4666949</ele>
        <time>2022-08-18T08:08:51Z</time>
      </trkpt>
      <trkpt lat="45.15914" lon="0.98528">
        <ele>211.0570591</ele>
        <time>2022-08-18T08:08:53Z</time>
      </trkpt>
      <trkpt lat="45.15911" lon="0.98521">
        <ele>211.7253171</ele>
        <time>2022-08-18T08:08:55Z</time>
      </trkpt>
      <trkpt lat="45.15908" lon="0.98516">
        <ele>211.7793471</ele>
        <time>2022-08-18T08:08:57Z</time>
      </trkpt>
      <trkpt lat="45.15907" lon="0.98511">
        <ele>211.9458761</ele>
        <time>2022-08-18T08:08:59Z</time>
      </trkpt>
      <trkpt lat="45.15905" lon="0.98505">
        <ele>212.8005547</ele>
        <time>2022-08-18T08:09:01Z</time>
      </trkpt>
      <trkpt lat="45.15902" lon="0.98502">
        <ele>213.2144664</ele>
        <time>2022-08-18T08:09:03Z</time>
      </trkpt>
      <trkpt lat="45.15902" lon="0.98499">
        <ele>213.841622</ele>
        <time>2022-08-18T08:09:05Z</time>
      </trkpt>
      <trkpt lat="45.159" lon="0.98496">
        <ele>214.0537539</ele>
        <time>2022-08-18T08:09:07Z</time>
      </trkpt>
      <trkpt lat="45.15898" lon="0.98492">
        <ele>214.8807572</ele>
        <time>2022-08-18T08:09:09Z</time>
      </trkpt>
      <trkpt lat="45.15896" lon="0.98488">
        <ele>215.0090966</ele>
        <time>2022-08-18T08:09:11Z</time>
      </trkpt>
      <trkpt lat="45.15894" lon="0.98485">
        <ele>214.8351822</ele>
        <time>2022-08-18T08:09:12Z</time>
      </trkpt>
      <trkpt lat="45.15892" lon="0.98481">
        <ele>215.7246541</ele>
        <time>2022-08-18T08:09:14Z</time>
      </trkpt>
      <trkpt lat="45.1589" lon="0.98478">
        <ele>216.2822879</ele>
        <time>2022-08-18T08:09:16Z</time>
      </trkpt>
      <trkpt lat="45.15887" lon="0.98473">
        <ele>216.9232419</ele>
        <time>2022-08-18T08:09:18Z</time>
      </trkpt>
      <trkpt lat="45.15885" lon="0.98469">
        <ele>217.9976372</ele>
        <time>2022-08-18T08:09:20Z</time>
      </trkpt>
      <trkpt lat="45.15883" lon="0.98465">
        <ele>218.3999505</ele>
        <time>2022-08-18T08:09:22Z</time>
      </trkpt>
      <trkpt lat="45.15882" lon="0.98461">
        <ele>219.3395522</ele>
        <time>2022-08-18T08:09:24Z</time>
      </trkpt>
      <trkpt lat="45.1588" lon="0.98457">
        <ele>220.3442132</ele>
        <time>2022-08-18T08:09:26Z</time>
      </trkpt>
      <trkpt lat="45.15878" lon="0.98454">
        <ele>220.9661721</ele>
        <time>2022-08-18T08:09:28Z</time>
      </trkpt>
      <trkpt lat="45.15876" lon="0.9845">
        <ele>221.5858518</ele>
        <time>2022-08-18T08:09:30Z</time>
      </trkpt>
      <trkpt lat="45.15875" lon="0.98447">
        <ele>221.4372076</ele>
        <time>2022-08-18T08:09:32Z</time>
      </trkpt>
      <trkpt lat="45.15873" lon="0.98443">
        <ele>221.8081782</ele>
        <time>2022-08-18T08:09:34Z</time>
      </trkpt>
      <trkpt lat="45.1587" lon="0.9844">
        <ele>222.4595293</ele>
        <time>2022-08-18T08:09:36Z</time>
      </trkpt>
      <trkpt lat="45.15868" lon="0.98436">
        <ele>221.8951402</ele>
        <time>2022-08-18T08:09:38Z</time>
      </trkpt>
      <trkpt lat="45.15866" lon="0.98431">
        <ele>222.3632882</ele>
        <time>2022-08-18T08:09:40Z</time>
      </trkpt>
      <trkpt lat="45.15865" lon="0.98428">
        <ele>221.9794552</ele>
        <time>2022-08-18T08:09:42Z</time>
      </trkpt>
      <trkpt lat="45.15863" lon="0.98424">
        <ele>221.7286083</ele>
        <time>2022-08-18T08:09:44Z</time>
      </trkpt>
      <trkpt lat="45.15861" lon="0.9842">
        <ele>221.711529</ele>
        <time>2022-08-18T08:09:46Z</time>
      </trkpt>
      <trkpt lat="45.15859" lon="0.98416">
        <ele>221.7292972</ele>
        <time>2022-08-18T08:09:48Z</time>
      </trkpt>
      <trkpt lat="45.15857" lon="0.98412">
        <ele>221.7496046</ele>
        <time>2022-08-18T08:09:50Z</time>
      </trkpt>
      <trkpt lat="45.15855" lon="0.98408">
        <ele>222.0839472</ele>
        <time>2022-08-18T08:09:52Z</time>
      </trkpt>
      <trkpt lat="45.15854" lon="0.98403">
        <ele>221.6884101</ele>
        <time>2022-08-18T08:09:54Z</time>
      </trkpt>
      <trkpt lat="45.15853" lon="0.98399">
        <ele>222.3128187</ele>
        <time>2022-08-18T08:09:56Z</time>
      </trkpt>
      <trkpt lat="45.15852" lon="0.98395">
        <ele>221.4738787</ele>
        <time>2022-08-18T08:09:58Z</time>
      </trkpt>
      <trkpt lat="45.15852" lon="0.9839">
        <ele>221.4323805</ele>
        <time>2022-08-18T08:10:00Z</time>
      </trkpt>
      <trkpt lat="45.15852" lon="0.98386">
        <ele>222.1323033</ele>
        <time>2022-08-18T08:10:02Z</time>
      </trkpt>
      <trkpt lat="45.15854" lon="0.98381">
        <ele>221.8760938</ele>
        <time>2022-08-18T08:10:04Z</time>
      </trkpt>
      <trkpt lat="45.15858" lon="0.98377">
        <ele>221.6687662</ele>
        <time>2022-08-18T08:10:06Z</time>
      </trkpt>
      <trkpt lat="45.15861" lon="0.98374">
        <ele>221.6899224</ele>
        <time>2022-08-18T08:10:08Z</time>
      </trkpt>
      <trkpt lat="45.15864" lon="0.98371">
        <ele>222.0111308</ele>
        <time>2022-08-18T08:10:10Z</time>
      </trkpt>
      <trkpt lat="45.15868" lon="0.98368">
        <ele>222.4812286</ele>
        <time>2022-08-18T08:10:12Z</time>
      </trkpt>
      <trkpt lat="45.15872" lon="0.98365">
        <ele>222.3140509</ele>
        <time>2022-08-18T08:10:14Z</time>
      </trkpt>
      <trkpt lat="45.15876" lon="0.98361">
        <ele>222.8552244</ele>
        <time>2022-08-18T08:10:16Z</time>
      </trkpt>
      <trkpt lat="45.15881" lon="0.98358">
        <ele>223.0274513</ele>
        <time>2022-08-18T08:10:18Z</time>
      </trkpt>
      <trkpt lat="45.15886" lon="0.98356">
        <ele>223.387049</ele>
        <time>2022-08-18T08:10:20Z</time>
      </trkpt>
      <trkpt lat="45.1589" lon="0.98352">
        <ele>223.8709964</ele>
        <time>2022-08-18T08:10:22Z</time>
      </trkpt>
      <trkpt lat="45.15895" lon="0.98348">
        <ele>223.8476434</ele>
        <time>2022-08-18T08:10:24Z</time>
      </trkpt>
      <trkpt lat="45.15901" lon="0.98345">
        <ele>224.1660403</ele>
        <time>2022-08-18T08:10:26Z</time>
      </trkpt>
      <trkpt lat="45.15907" lon="0.98341">
        <ele>223.7291311</ele>
        <time>2022-08-18T08:10:28Z</time>
      </trkpt>
      <trkpt lat="45.15915" lon="0.98334">
        <ele>223.681134</ele>
        <time>2022-08-18T08:10:31Z</time>
      </trkpt>
      <trkpt lat="45.1592" lon="0.9833">
        <ele>223.6631518</ele>
        <time>2022-08-18T08:10:33Z</time>
      </trkpt>
      <trkpt lat="45.15926" lon="0.98325">
        <ele>223.4905439</ele>
        <time>2022-08-18T08:10:35Z</time>
      </trkpt>
      <trkpt lat="45.15931" lon="0.98319">
        <ele>223.8571582</ele>
        <time>2022-08-18T08:10:37Z</time>
      </trkpt>
      <trkpt lat="45.15935" lon="0.98314">
        <ele>224.1774308</ele>
        <time>2022-08-18T08:10:39Z</time>
      </trkpt>
      <trkpt lat="45.1594" lon="0.9831">
        <ele>224.2601004</ele>
        <time>2022-08-18T08:10:41Z</time>
      </trkpt>
      <trkpt lat="45.15943" lon="0.98305">
        <ele>224.4361159</ele>
        <time>2022-08-18T08:10:43Z</time>
      </trkpt>
      <trkpt lat="45.15947" lon="0.98301">
        <ele>224.734655</ele>
        <time>2022-08-18T08:10:45Z</time>
      </trkpt>
      <trkpt lat="45.15949" lon="0.98299">
        <ele>224.7977336</ele>
        <time>2022-08-18T08:10:46Z</time>
      </trkpt>
      <trkpt lat="45.15952" lon="0.98294">
        <ele>224.8288781</ele>
        <time>2022-08-18T08:10:48Z</time>
      </trkpt>
      <trkpt lat="45.15954" lon="0.98289">
        <ele>225.3424764</ele>
        <time>2022-08-18T08:10:50Z</time>
      </trkpt>
      <trkpt lat="45.15958" lon="0.98285">
        <ele>225.4036192</ele>
        <time>2022-08-18T08:10:52Z</time>
      </trkpt>
      <trkpt lat="45.1596" lon="0.9828">
        <ele>225.9135306</ele>
        <time>2022-08-18T08:10:54Z</time>
      </trkpt>
      <trkpt lat="45.15964" lon="0.98276">
        <ele>225.9281688</ele>
        <time>2022-08-18T08:10:56Z</time>
      </trkpt>
      <trkpt lat="45.15966" lon="0.98271">
        <ele>226.590922</ele>
        <time>2022-08-18T08:10:58Z</time>
      </trkpt>
      <trkpt lat="45.15969" lon="0.98267">
        <ele>227.0538167</ele>
        <time>2022-08-18T08:11:00Z</time>
      </trkpt>
      <trkpt lat="45.15972" lon="0.98263">
        <ele>227.385733</ele>
        <time>2022-08-18T08:11:02Z</time>
      </trkpt>
      <trkpt lat="45.15975" lon="0.98259">
        <ele>227.4219279</ele>
        <time>2022-08-18T08:11:04Z</time>
      </trkpt>
      <trkpt lat="45.15978" lon="0.98254">
        <ele>227.8213612</ele>
        <time>2022-08-18T08:11:06Z</time>
      </trkpt>
      <trkpt lat="45.1598" lon="0.9825">
        <ele>228.0689584</ele>
        <time>2022-08-18T08:11:08Z</time>
      </trkpt>
      <trkpt lat="45.15983" lon="0.98245">
        <ele>227.9675045</ele>
        <time>2022-08-18T08:11:10Z</time>
      </trkpt>
      <trkpt lat="45.15985" lon="0.98242">
        <ele>228.2105285</ele>
        <time>2022-08-18T08:11:12Z</time>
      </trkpt>
      <trkpt lat="45.15987" lon="0.98237">
        <ele>228.9411295</ele>
        <time>2022-08-18T08:11:14Z</time>
      </trkpt>
      <trkpt lat="45.1599" lon="0.98233">
        <ele>229.3222058</ele>
        <time>2022-08-18T08:11:16Z</time>
      </trkpt>
      <trkpt lat="45.15992" lon="0.98229">
        <ele>229.120456</ele>
        <time>2022-08-18T08:11:18Z</time>
      </trkpt>
      <trkpt lat="45.15994" lon="0.98225">
        <ele>229.6872822</ele>
        <time>2022-08-18T08:11:20Z</time>
      </trkpt>
      <trkpt lat="45.15996" lon="0.98222">
        <ele>230.2026778</ele>
        <time>2022-08-18T08:11:22Z</time>
      </trkpt>
      <trkpt lat="45.15998" lon="0.98219">
        <ele>230.4956226</ele>
        <time>2022-08-18T08:11:24Z</time>
      </trkpt>
      <trkpt lat="45.16" lon="0.98215">
        <ele>230.7371783</ele>
        <time>2022-08-18T08:11:26Z</time>
      </trkpt>
      <trkpt lat="45.16002" lon="0.9821">
        <ele>230.8389266</ele>
        <time>2022-08-18T08:11:28Z</time>
      </trkpt>
      <trkpt lat="45.16004" lon="0.98207">
        <ele>230.7378137</ele>
        <time>2022-08-18T08:11:30Z</time>
      </trkpt>
      <trkpt lat="45.16006" lon="0.98203">
        <ele>231.0284461</ele>
        <time>2022-08-18T08:11:32Z</time>
      </trkpt>
      <trkpt lat="45.16008" lon="0.98199">
        <ele>231.564411</ele>
        <time>2022-08-18T08:11:34Z</time>
      </trkpt>
      <trkpt lat="45.16011" lon="0.98196">
        <ele>231.6847814</ele>
        <time>2022-08-18T08:11:36Z</time>
      </trkpt>
      <trkpt lat="45.16014" lon="0.98192">
        <ele>231.6259228</ele>
        <time>2022-08-18T08:11:38Z</time>
      </trkpt>
      <trkpt lat="45.16016" lon="0.98188">
        <ele>231.5233685</ele>
        <time>2022-08-18T08:11:40Z</time>
      </trkpt>
      <trkpt lat="45.16018" lon="0.98184">
        <ele>232.0873672</ele>
        <time>2022-08-18T08:11:42Z</time>
      </trkpt>
      <trkpt lat="45.1602" lon="0.9818">
        <ele>232.2970455</ele>
        <time>2022-08-18T08:11:44Z</time>
      </trkpt>
      <trkpt lat="45.16023" lon="0.98177">
        <ele>232.3069315</ele>
        <time>2022-08-18T08:11:46Z</time>
      </trkpt>
      <trkpt lat="45.16027" lon="0.98174">
        <ele>231.9061789</ele>
        <time>2022-08-18T08:11:48Z</time>
      </trkpt>
      <trkpt lat="45.16029" lon="0.9817">
        <ele>232.4778038</ele>
        <time>2022-08-18T08:11:50Z</time>
      </trkpt>
      <trkpt lat="45.16032" lon="0.98166">
        <ele>232.8629069</ele>
        <time>2022-08-18T08:11:52Z</time>
      </trkpt>
      <trkpt lat="45.16034" lon="0.98163">
        <ele>232.7127574</ele>
        <time>2022-08-18T08:11:54Z</time>
      </trkpt>
      <trkpt lat="45.16036" lon="0.9816">
        <ele>233.1235809</ele>
        <time>2022-08-18T08:11:56Z</time>
      </trkpt>
      <trkpt lat="45.16038" lon="0.98156">
        <ele>233.6206929</ele>
        <time>2022-08-18T08:11:58Z</time>
      </trkpt>
      <trkpt lat="45.1604" lon="0.98153">
        <ele>234.5636419</ele>
        <time>2022-08-18T08:12:00Z</time>
      </trkpt>
      <trkpt lat="45.16041" lon="0.98154">
        <ele>234.7792927</ele>
        <time>2022-08-18T08:12:02Z</time>
      </trkpt>
      <trkpt lat="45.16041" lon="0.98154">
        <ele>235.2332307</ele>
        <time>2022-08-18T08:12:04Z</time>
      </trkpt>
      <trkpt lat="45.16041" lon="0.98154">
        <ele>235.5008906</ele>
        <time>2022-08-18T08:12:06Z</time>
      </trkpt>
      <trkpt lat="45.16041" lon="0.98154">
        <ele>235.6788614</ele>
        <time>2022-08-18T08:12:08Z</time>
      </trkpt>
      <trkpt lat="45.16041" lon="0.98154">
        <ele>235.6788614</ele>
        <time>2022-08-18T08:12:12Z</time>
      </trkpt>
      <trkpt lat="45.16041" lon="0.98153">
        <ele>236.2370736</ele>
        <time>2022-08-18T08:12:14Z</time>
      </trkpt>
      <trkpt lat="45.16043" lon="0.98147">
        <ele>237.2979122</ele>
        <time>2022-08-18T08:12:16Z</time>
      </trkpt>
      <trkpt lat="45.16044" lon="0.98144">
        <ele>236.2076015</ele>
        <time>2022-08-18T08:12:18Z</time>
      </trkpt>
      <trkpt lat="45.16046" lon="0.98144">
        <ele>236.0657056</ele>
        <time>2022-08-18T08:12:20Z</time>
      </trkpt>
      <trkpt lat="45.1605" lon="0.9815">
        <ele>234.0150265</ele>
        <time>2022-08-18T08:12:22Z</time>
      </trkpt>
      <trkpt lat="45.16052" lon="0.98158">
        <ele>233.4367023</ele>
        <time>2022-08-18T08:12:24Z</time>
      </trkpt>
      <trkpt lat="45.16053" lon="0.98165">
        <ele>233.3618386</ele>
        <time>2022-08-18T08:12:26Z</time>
      </trkpt>
      <trkpt lat="45.16056" lon="0.98167">
        <ele>232.5581622</ele>
        <time>2022-08-18T08:12:28Z</time>
      </trkpt>
      <trkpt lat="45.16059" lon="0.98173">
        <ele>233.4917502</ele>
        <time>2022-08-18T08:12:30Z</time>
      </trkpt>
      <trkpt lat="45.16062" lon="0.98176">
        <ele>233.4766994</ele>
        <time>2022-08-18T08:12:32Z</time>
      </trkpt>
      <trkpt lat="45.16065" lon="0.98181">
        <ele>233.0419281</ele>
        <time>2022-08-18T08:12:34Z</time>
      </trkpt>
      <trkpt lat="45.16068" lon="0.98186">
        <ele>233.7106582</ele>
        <time>2022-08-18T08:12:36Z</time>
      </trkpt>
      <trkpt lat="45.16071" lon="0.9819">
        <ele>234.3737213</ele>
        <time>2022-08-18T08:12:38Z</time>
      </trkpt>
      <trkpt lat="45.16075" lon="0.98195">
        <ele>234.7696467</ele>
        <time>2022-08-18T08:12:40Z</time>
      </trkpt>
      <trkpt lat="45.16075" lon="0.982">
        <ele>234.7955354</ele>
        <time>2022-08-18T08:12:42Z</time>
      </trkpt>
      <trkpt lat="45.16077" lon="0.98204">
        <ele>235.5722923</ele>
        <time>2022-08-18T08:12:44Z</time>
      </trkpt>
      <trkpt lat="45.16079" lon="0.98206">
        <ele>236.0128706</ele>
        <time>2022-08-18T08:12:46Z</time>
      </trkpt>
      <trkpt lat="45.16079" lon="0.98207">
        <ele>235.8730059</ele>
        <time>2022-08-18T08:12:48Z</time>
      </trkpt>
      <trkpt lat="45.16079" lon="0.98207">
        <ele>235.7321003</ele>
        <time>2022-08-18T08:12:50Z</time>
      </trkpt>
      <trkpt lat="45.16079" lon="0.98207">
        <ele>235.7352737</ele>
        <time>2022-08-18T08:12:52Z</time>
      </trkpt>
      <trkpt lat="45.16079" lon="0.98206">
        <ele>236.1736931</ele>
        <time>2022-08-18T08:12:54Z</time>
      </trkpt>
      <trkpt lat="45.16079" lon="0.98206">
        <ele>236.1736931</ele>
        <time>2022-08-18T08:12:58Z</time>
      </trkpt>
      <trkpt lat="45.16079" lon="0.98206">
        <ele>236.0809221</ele>
        <time>2022-08-18T08:13:00Z</time>
      </trkpt>
      <trkpt lat="45.16078" lon="0.98206">
        <ele>237.3949368</ele>
        <time>2022-08-18T08:13:04Z</time>
      </trkpt>
      <trkpt lat="45.16078" lon="0.98205">
        <ele>237.8105802</ele>
        <time>2022-08-18T08:13:06Z</time>
      </trkpt>
      <trkpt lat="45.16078" lon="0.98205">
        <ele>237.8149011</ele>
        <time>2022-08-18T08:13:08Z</time>
      </trkpt>
      <trkpt lat="45.16078" lon="0.98205">
        <ele>237.8149011</ele>
        <time>2022-08-18T08:13:12Z</time>
      </trkpt>
      <trkpt lat="45.16078" lon="0.98205">
        <ele>237.8149011</ele>
        <time>2022-08-18T08:13:16Z</time>
      </trkpt>
      <trkpt lat="45.16078" lon="0.98205">
        <ele>237.8149011</ele>
        <time>2022-08-18T08:13:20Z</time>
      </trkpt>
      <trkpt lat="45.16078" lon="0.98205">
        <ele>237.8149011</ele>
        <time>2022-08-18T08:13:24Z</time>
      </trkpt>
      <trkpt lat="45.16078" lon="0.98205">
        <ele>237.8149011</ele>
        <time>2022-08-18T08:13:28Z</time>
      </trkpt>
      <trkpt lat="45.16078" lon="0.98205">
        <ele>237.8149011</ele>
        <time>2022-08-18T08:13:32Z</time>
      </trkpt>
      <trkpt lat="45.16077" lon="0.98206">
        <ele>237.8018065</ele>
        <time>2022-08-18T08:13:34Z</time>
      </trkpt>
      <trkpt lat="45.16076" lon="0.98206">
        <ele>238.018637</ele>
        <time>2022-08-18T08:13:36Z</time>
      </trkpt>
      <trkpt lat="45.16077" lon="0.98206">
        <ele>237.7046349</ele>
        <time>2022-08-18T08:13:38Z</time>
      </trkpt>
      <trkpt lat="45.16076" lon="0.98208">
        <ele>237.0360486</ele>
        <time>2022-08-18T08:13:40Z</time>
      </trkpt>
      <trkpt lat="45.16079" lon="0.98211">
        <ele>236.2564251</ele>
        <time>2022-08-18T08:13:42Z</time>
      </trkpt>
      <trkpt lat="45.1608" lon="0.98216">
        <ele>235.2466517</ele>
        <time>2022-08-18T08:13:44Z</time>
      </trkpt>
      <trkpt lat="45.16081" lon="0.98217">
        <ele>235.0547201</ele>
        <time>2022-08-18T08:13:46Z</time>
      </trkpt>
      <trkpt lat="45.16082" lon="0.98221">
        <ele>234.0810756</ele>
        <time>2022-08-18T08:13:48Z</time>
      </trkpt>
      <trkpt lat="45.16084" lon="0.98226">
        <ele>233.6895553</ele>
        <time>2022-08-18T08:13:50Z</time>
      </trkpt>
      <trkpt lat="45.16085" lon="0.98231">
        <ele>235.0206356</ele>
        <time>2022-08-18T08:13:52Z</time>
      </trkpt>
      <trkpt lat="45.16084" lon="0.98233">
        <ele>234.7677203</ele>
        <time>2022-08-18T08:13:54Z</time>
      </trkpt>
      <trkpt lat="45.16085" lon="0.98236">
        <ele>234.7669341</ele>
        <time>2022-08-18T08:13:56Z</time>
      </trkpt>
      <trkpt lat="45.16085" lon="0.98235">
        <ele>233.7368318</ele>
        <time>2022-08-18T08:13:58Z</time>
      </trkpt>
      <trkpt lat="45.16085" lon="0.98235">
        <ele>233.4755867</ele>
        <time>2022-08-18T08:14:00Z</time>
      </trkpt>
      <trkpt lat="45.16085" lon="0.98235">
        <ele>233.1599668</ele>
        <time>2022-08-18T08:14:02Z</time>
      </trkpt>
      <trkpt lat="45.16084" lon="0.98235">
        <ele>232.7020173</ele>
        <time>2022-08-18T08:14:04Z</time>
      </trkpt>
      <trkpt lat="45.16086" lon="0.98237">
        <ele>232.5318961</ele>
        <time>2022-08-18T08:14:06Z</time>
      </trkpt>
      <trkpt lat="45.16085" lon="0.98235">
        <ele>232.6459413</ele>
        <time>2022-08-18T08:14:08Z</time>
      </trkpt>
      <trkpt lat="45.16085" lon="0.98233">
        <ele>233.2451413</ele>
        <time>2022-08-18T08:14:10Z</time>
      </trkpt>
      <trkpt lat="45.16085" lon="0.98233">
        <ele>233.6541571</ele>
        <time>2022-08-18T08:14:12Z</time>
      </trkpt>
      <trkpt lat="45.16085" lon="0.98232">
        <ele>234.1005958</ele>
        <time>2022-08-18T08:14:14Z</time>
      </trkpt>
      <trkpt lat="45.16084" lon="0.98233">
        <ele>234.6747042</ele>
        <time>2022-08-18T08:14:16Z</time>
      </trkpt>
      <trkpt lat="45.16083" lon="0.98229">
        <ele>234.5259824</ele>
        <time>2022-08-18T08:14:18Z</time>
      </trkpt>
      <trkpt lat="45.16079" lon="0.98221">
        <ele>234.4084745</ele>
        <time>2022-08-18T08:14:20Z</time>
      </trkpt>
      <trkpt lat="45.16076" lon="0.98215">
        <ele>234.9900527</ele>
        <time>2022-08-18T08:14:22Z</time>
      </trkpt>
      <trkpt lat="45.16074" lon="0.98208">
        <ele>234.4098602</ele>
        <time>2022-08-18T08:14:24Z</time>
      </trkpt>
      <trkpt lat="45.16073" lon="0.98203">
        <ele>234.8982014</ele>
        <time>2022-08-18T08:14:26Z</time>
      </trkpt>
      <trkpt lat="45.16071" lon="0.98196">
        <ele>234.0895773</ele>
        <time>2022-08-18T08:14:28Z</time>
      </trkpt>
      <trkpt lat="45.16066" lon="0.98189">
        <ele>237.8313008</ele>
        <time>2022-08-18T08:14:30Z</time>
      </trkpt>
      <trkpt lat="45.16062" lon="0.98186">
        <ele>238.1327207</ele>
        <time>2022-08-18T08:14:32Z</time>
      </trkpt>
      <trkpt lat="45.16057" lon="0.9818">
        <ele>237.0179484</ele>
        <time>2022-08-18T08:14:34Z</time>
      </trkpt>
      <trkpt lat="45.16052" lon="0.98177">
        <ele>236.6772344</ele>
        <time>2022-08-18T08:14:36Z</time>
      </trkpt>
      <trkpt lat="45.16051" lon="0.98167">
        <ele>233.9679297</ele>
        <time>2022-08-18T08:14:38Z</time>
      </trkpt>
      <trkpt lat="45.16049" lon="0.98158">
        <ele>234.3228628</ele>
        <time>2022-08-18T08:14:40Z</time>
      </trkpt>
      <trkpt lat="45.16047" lon="0.98152">
        <ele>234.8506566</ele>
        <time>2022-08-18T08:14:42Z</time>
      </trkpt>
      <trkpt lat="45.16045" lon="0.98145">
        <ele>235.3629251</ele>
        <time>2022-08-18T08:14:44Z</time>
      </trkpt>
      <trkpt lat="45.16042" lon="0.98137">
        <ele>235.4996997</ele>
        <time>2022-08-18T08:14:46Z</time>
      </trkpt>
      <trkpt lat="45.16041" lon="0.9813">
        <ele>234.8493685</ele>
        <time>2022-08-18T08:14:48Z</time>
      </trkpt>
      <trkpt lat="45.16038" lon="0.98121">
        <ele>234.7881776</ele>
        <time>2022-08-18T08:14:50Z</time>
      </trkpt>
      <trkpt lat="45.16036" lon="0.98113">
        <ele>234.4981163</ele>
        <time>2022-08-18T08:14:52Z</time>
      </trkpt>
      <trkpt lat="45.16033" lon="0.98104">
        <ele>234.5938293</ele>
        <time>2022-08-18T08:14:54Z</time>
      </trkpt>
      <trkpt lat="45.16031" lon="0.98097">
        <ele>234.7280798</ele>
        <time>2022-08-18T08:14:56Z</time>
      </trkpt>
      <trkpt lat="45.1603" lon="0.98088">
        <ele>235.0862109</ele>
        <time>2022-08-18T08:14:58Z</time>
      </trkpt>
      <trkpt lat="45.16027" lon="0.9808">
        <ele>235.682693</ele>
        <time>2022-08-18T08:15:00Z</time>
      </trkpt>
      <trkpt lat="45.16024" lon="0.98072">
        <ele>235.1672503</ele>
        <time>2022-08-18T08:15:02Z</time>
      </trkpt>
      <trkpt lat="45.16022" lon="0.98065">
        <ele>235.3798014</ele>
        <time>2022-08-18T08:15:04Z</time>
      </trkpt>
      <trkpt lat="45.16019" lon="0.98057">
        <ele>235.5500964</ele>
        <time>2022-08-18T08:15:06Z</time>
      </trkpt>
      <trkpt lat="45.16018" lon="0.98049">
        <ele>235.3556745</ele>
        <time>2022-08-18T08:15:08Z</time>
      </trkpt>
      <trkpt lat="45.16016" lon="0.98042">
        <ele>235.078304</ele>
        <time>2022-08-18T08:15:10Z</time>
      </trkpt>
      <trkpt lat="45.16013" lon="0.98035">
        <ele>234.8857144</ele>
        <time>2022-08-18T08:15:12Z</time>
      </trkpt>
      <trkpt lat="45.16011" lon="0.98028">
        <ele>235.0138277</ele>
        <time>2022-08-18T08:15:14Z</time>
      </trkpt>
      <trkpt lat="45.16009" lon="0.98022">
        <ele>235.1003804</ele>
        <time>2022-08-18T08:15:16Z</time>
      </trkpt>
      <trkpt lat="45.16007" lon="0.98015">
        <ele>235.2157111</ele>
        <time>2022-08-18T08:15:18Z</time>
      </trkpt>
      <trkpt lat="45.16005" lon="0.98009">
        <ele>235.7081189</ele>
        <time>2022-08-18T08:15:20Z</time>
      </trkpt>
      <trkpt lat="45.16003" lon="0.98002">
        <ele>236.0074482</ele>
        <time>2022-08-18T08:15:22Z</time>
      </trkpt>
      <trkpt lat="45.16001" lon="0.97996">
        <ele>235.9640562</ele>
        <time>2022-08-18T08:15:24Z</time>
      </trkpt>
      <trkpt lat="45.15999" lon="0.9799">
        <ele>235.5345984</ele>
        <time>2022-08-18T08:15:26Z</time>
      </trkpt>
      <trkpt lat="45.15997" lon="0.97984">
        <ele>235.9089187</ele>
        <time>2022-08-18T08:15:28Z</time>
      </trkpt>
      <trkpt lat="45.15995" lon="0.97978">
        <ele>235.7276025</ele>
        <time>2022-08-18T08:15:30Z</time>
      </trkpt>
      <trkpt lat="45.15994" lon="0.97972">
        <ele>236.2871918</ele>
        <time>2022-08-18T08:15:32Z</time>
      </trkpt>
      <trkpt lat="45.15992" lon="0.97967">
        <ele>236.3982586</ele>
        <time>2022-08-18T08:15:34Z</time>
      </trkpt>
      <trkpt lat="45.15991" lon="0.97962">
        <ele>236.3070504</ele>
        <time>2022-08-18T08:15:36Z</time>
      </trkpt>
      <trkpt lat="45.15989" lon="0.97957">
        <ele>236.9800905</ele>
        <time>2022-08-18T08:15:38Z</time>
      </trkpt>
      <trkpt lat="45.15984" lon="0.97956">
        <ele>237.6777746</ele>
        <time>2022-08-18T08:15:40Z</time>
      </trkpt>
      <trkpt lat="45.1598" lon="0.97955">
        <ele>237.4887108</ele>
        <time>2022-08-18T08:15:42Z</time>
      </trkpt>
      <trkpt lat="45.1598" lon="0.97955">
        <ele>237.2050086</ele>
        <time>2022-08-18T08:15:44Z</time>
      </trkpt>
      <trkpt lat="45.15981" lon="0.97956">
        <ele>237.0064598</ele>
        <time>2022-08-18T08:15:46Z</time>
      </trkpt>
      <trkpt lat="45.15981" lon="0.97956">
        <ele>236.5496636</ele>
        <time>2022-08-18T08:15:48Z</time>
      </trkpt>
      <trkpt lat="45.15981" lon="0.97956">
        <ele>236.1716939</ele>
        <time>2022-08-18T08:15:50Z</time>
      </trkpt>
      <trkpt lat="45.15981" lon="0.97956">
        <ele>236.4823129</ele>
        <time>2022-08-18T08:15:52Z</time>
      </trkpt>
      <trkpt lat="45.15982" lon="0.97956">
        <ele>236.8766348</ele>
        <time>2022-08-18T08:15:54Z</time>
      </trkpt>
      <trkpt lat="45.15982" lon="0.97956">
        <ele>236.932277</ele>
        <time>2022-08-18T08:15:56Z</time>
      </trkpt>
      <trkpt lat="45.15982" lon="0.97955">
        <ele>237.0877076</ele>
        <time>2022-08-18T08:15:58Z</time>
      </trkpt>
      <trkpt lat="45.15982" lon="0.97955">
        <ele>237.0877076</ele>
        <time>2022-08-18T08:16:02Z</time>
      </trkpt>
      <trkpt lat="45.15982" lon="0.97955">
        <ele>237.7637729</ele>
        <time>2022-08-18T08:16:04Z</time>
      </trkpt>
      <trkpt lat="45.15982" lon="0.97955">
        <ele>237.7637729</ele>
        <time>2022-08-18T08:16:08Z</time>
      </trkpt>
      <trkpt lat="45.15982" lon="0.97955">
        <ele>237.1939878</ele>
        <time>2022-08-18T08:16:10Z</time>
      </trkpt>
      <trkpt lat="45.15982" lon="0.97955">
        <ele>237.1423942</ele>
        <time>2022-08-18T08:16:12Z</time>
      </trkpt>
      <trkpt lat="45.15982" lon="0.97955">
        <ele>237.1423942</ele>
        <time>2022-08-18T08:16:16Z</time>
      </trkpt>
      <trkpt lat="45.15982" lon="0.97955">
        <ele>237.1423942</ele>
        <time>2022-08-18T08:16:20Z</time>
      </trkpt>
      <trkpt lat="45.15982" lon="0.97955">
        <ele>237.1423942</ele>
        <time>2022-08-18T08:16:24Z</time>
      </trkpt>
      <trkpt lat="45.15981" lon="0.97955">
        <ele>234.5095934</ele>
        <time>2022-08-18T08:16:26Z</time>
      </trkpt>
      <trkpt lat="45.15981" lon="0.97955">
        <ele>234.5095934</ele>
        <time>2022-08-18T08:16:30Z</time>
      </trkpt>
      <trkpt lat="45.15981" lon="0.97955">
        <ele>234.5095934</ele>
        <time>2022-08-18T08:16:34Z</time>
      </trkpt>
      <trkpt lat="45.15981" lon="0.97955">
        <ele>234.5095934</ele>
        <time>2022-08-18T08:16:38Z</time>
      </trkpt>
      <trkpt lat="45.15981" lon="0.97955">
        <ele>234.5095934</ele>
        <time>2022-08-18T08:16:42Z</time>
      </trkpt>
      <trkpt lat="45.15982" lon="0.97955">
        <ele>232.1405923</ele>
        <time>2022-08-18T08:16:46Z</time>
      </trkpt>
      <trkpt lat="45.15982" lon="0.97954">
        <ele>231.206389</ele>
        <time>2022-08-18T08:16:48Z</time>
      </trkpt>
      <trkpt lat="45.15982" lon="0.97954">
        <ele>231.394656</ele>
        <time>2022-08-18T08:16:50Z</time>
      </trkpt>
      <trkpt lat="45.15982" lon="0.97954">
        <ele>231.394656</ele>
        <time>2022-08-18T08:16:54Z</time>
      </trkpt>
      <trkpt lat="45.15982" lon="0.97954">
        <ele>231.394656</ele>
        <time>2022-08-18T08:16:58Z</time>
      </trkpt>
      <trkpt lat="45.15982" lon="0.97954">
        <ele>231.394656</ele>
        <time>2022-08-18T08:17:02Z</time>
      </trkpt>
      <trkpt lat="45.15982" lon="0.97955">
        <ele>230.0388374</ele>
        <time>2022-08-18T08:17:06Z</time>
      </trkpt>
      <trkpt lat="45.15981" lon="0.97953">
        <ele>230.8659699</ele>
        <time>2022-08-18T08:17:08Z</time>
      </trkpt>
      <trkpt lat="45.15982" lon="0.97951">
        <ele>230.2118063</ele>
        <time>2022-08-18T08:17:10Z</time>
      </trkpt>
      <trkpt lat="45.15984" lon="0.9795">
        <ele>230.7589278</ele>
        <time>2022-08-18T08:17:12Z</time>
      </trkpt>
      <trkpt lat="45.15988" lon="0.97947">
        <ele>231.0505899</ele>
        <time>2022-08-18T08:17:14Z</time>
      </trkpt>
      <trkpt lat="45.15992" lon="0.97943">
        <ele>231.4697063</ele>
        <time>2022-08-18T08:17:16Z</time>
      </trkpt>
      <trkpt lat="45.15996" lon="0.97938">
        <ele>231.3571209</ele>
        <time>2022-08-18T08:17:18Z</time>
      </trkpt>
      <trkpt lat="45.16001" lon="0.97933">
        <ele>231.8126594</ele>
        <time>2022-08-18T08:17:20Z</time>
      </trkpt>
      <trkpt lat="45.16006" lon="0.97928">
        <ele>231.9815799</ele>
        <time>2022-08-18T08:17:22Z</time>
      </trkpt>
      <trkpt lat="45.1601" lon="0.97924">
        <ele>232.0632344</ele>
        <time>2022-08-18T08:17:24Z</time>
      </trkpt>
      <trkpt lat="45.16015" lon="0.97919">
        <ele>232.0706722</ele>
        <time>2022-08-18T08:17:26Z</time>
      </trkpt>
      <trkpt lat="45.16019" lon="0.97913">
        <ele>232.3030143</ele>
        <time>2022-08-18T08:17:28Z</time>
      </trkpt>
      <trkpt lat="45.16023" lon="0.97905">
        <ele>233.0013737</ele>
        <time>2022-08-18T08:17:30Z</time>
      </trkpt>
      <trkpt lat="45.16025" lon="0.97895">
        <ele>232.8906539</ele>
        <time>2022-08-18T08:17:32Z</time>
      </trkpt>
      <trkpt lat="45.16025" lon="0.97887">
        <ele>233.3322073</ele>
        <time>2022-08-18T08:17:34Z</time>
      </trkpt>
      <trkpt lat="45.16027" lon="0.97881">
        <ele>233.4335349</ele>
        <time>2022-08-18T08:17:36Z</time>
      </trkpt>
      <trkpt lat="45.16027" lon="0.97875">
        <ele>234.095872</ele>
        <time>2022-08-18T08:17:38Z</time>
      </trkpt>
      <trkpt lat="45.16028" lon="0.97871">
        <ele>234.4272647</ele>
        <time>2022-08-18T08:17:40Z</time>
      </trkpt>
      <trkpt lat="45.16028" lon="0.97867">
        <ele>234.706243</ele>
        <time>2022-08-18T08:17:42Z</time>
      </trkpt>
      <trkpt lat="45.16028" lon="0.97864">
        <ele>234.7609233</ele>
        <time>2022-08-18T08:17:44Z</time>
      </trkpt>
      <trkpt lat="45.16029" lon="0.97858">
        <ele>235.2173742</ele>
        <time>2022-08-18T08:17:46Z</time>
      </trkpt>
      <trkpt lat="45.1603" lon="0.97851">
        <ele>235.5329144</ele>
        <time>2022-08-18T08:17:48Z</time>
      </trkpt>
      <trkpt lat="45.16031" lon="0.97844">
        <ele>235.6203406</ele>
        <time>2022-08-18T08:17:50Z</time>
      </trkpt>
      <trkpt lat="45.16032" lon="0.97835">
        <ele>235.6771853</ele>
        <time>2022-08-18T08:17:52Z</time>
      </trkpt>
      <trkpt lat="45.16034" lon="0.97826">
        <ele>235.7010643</ele>
        <time>2022-08-18T08:17:54Z</time>
      </trkpt>
      <trkpt lat="45.16036" lon="0.97818">
        <ele>236.3063248</ele>
        <time>2022-08-18T08:17:56Z</time>
      </trkpt>
      <trkpt lat="45.16037" lon="0.97812">
        <ele>236.7781191</ele>
        <time>2022-08-18T08:17:58Z</time>
      </trkpt>
      <trkpt lat="45.1604" lon="0.97806">
        <ele>236.2246689</ele>
        <time>2022-08-18T08:18:00Z</time>
      </trkpt>
      <trkpt lat="45.1604" lon="0.97804">
        <ele>235.92168</ele>
        <time>2022-08-18T08:18:02Z</time>
      </trkpt>
      <trkpt lat="45.16039" lon="0.97804">
        <ele>236.6981132</ele>
        <time>2022-08-18T08:18:04Z</time>
      </trkpt>
      <trkpt lat="45.1604" lon="0.97804">
        <ele>237.3481057</ele>
        <time>2022-08-18T08:18:06Z</time>
      </trkpt>
      <trkpt lat="45.16039" lon="0.97804">
        <ele>237.9093222</ele>
        <time>2022-08-18T08:18:08Z</time>
      </trkpt>
      <trkpt lat="45.16039" lon="0.97803">
        <ele>239.6408195</ele>
        <time>2022-08-18T08:18:10Z</time>
      </trkpt>
      <trkpt lat="45.16039" lon="0.97803">
        <ele>239.9611972</ele>
        <time>2022-08-18T08:18:12Z</time>
      </trkpt>
      <trkpt lat="45.16039" lon="0.97804">
        <ele>239.6793888</ele>
        <time>2022-08-18T08:18:14Z</time>
      </trkpt>
      <trkpt lat="45.16039" lon="0.97804">
        <ele>239.615084</ele>
        <time>2022-08-18T08:18:16Z</time>
      </trkpt>
      <trkpt lat="45.16039" lon="0.97804">
        <ele>239.6086704</ele>
        <time>2022-08-18T08:18:18Z</time>
      </trkpt>
      <trkpt lat="45.16039" lon="0.97804">
        <ele>239.6086704</ele>
        <time>2022-08-18T08:18:22Z</time>
      </trkpt>
      <trkpt lat="45.16039" lon="0.97804">
        <ele>238.606897</ele>
        <time>2022-08-18T08:18:26Z</time>
      </trkpt>
      <trkpt lat="45.16039" lon="0.97804">
        <ele>237.7739901</ele>
        <time>2022-08-18T08:18:28Z</time>
      </trkpt>
      <trkpt lat="45.16039" lon="0.97804">
        <ele>237.7637698</ele>
        <time>2022-08-18T08:18:30Z</time>
      </trkpt>
      <trkpt lat="45.16039" lon="0.97804">
        <ele>238.0050858</ele>
        <time>2022-08-18T08:18:32Z</time>
      </trkpt>
      <trkpt lat="45.16039" lon="0.97804">
        <ele>238.1711815</ele>
        <time>2022-08-18T08:18:34Z</time>
      </trkpt>
      <trkpt lat="45.16039" lon="0.97804">
        <ele>238.180754</ele>
        <time>2022-08-18T08:18:36Z</time>
      </trkpt>
      <trkpt lat="45.16039" lon="0.97804">
        <ele>238.180754</ele>
        <time>2022-08-18T08:18:40Z</time>
      </trkpt>
      <trkpt lat="45.16039" lon="0.97803">
        <ele>238.5358387</ele>
        <time>2022-08-18T08:18:42Z</time>
      </trkpt>
      <trkpt lat="45.16039" lon="0.97803">
        <ele>238.5358387</ele>
        <time>2022-08-18T08:18:46Z</time>
      </trkpt>
      <trkpt lat="45.16038" lon="0.97803">
        <ele>239.0674993</ele>
        <time>2022-08-18T08:18:48Z</time>
      </trkpt>
      <trkpt lat="45.16039" lon="0.97802">
        <ele>238.7927749</ele>
        <time>2022-08-18T08:18:50Z</time>
      </trkpt>
      <trkpt lat="45.1604" lon="0.97799">
        <ele>237.9628833</ele>
        <time>2022-08-18T08:18:52Z</time>
      </trkpt>
      <trkpt lat="45.16041" lon="0.97795">
        <ele>237.615305</ele>
        <time>2022-08-18T08:18:54Z</time>
      </trkpt>
      <trkpt lat="45.16041" lon="0.97796">
        <ele>237.8901403</ele>
        <time>2022-08-18T08:18:56Z</time>
      </trkpt>
      <trkpt lat="45.16042" lon="0.97794">
        <ele>237.6615452</ele>
        <time>2022-08-18T08:18:58Z</time>
      </trkpt>
      <trkpt lat="45.16042" lon="0.97794">
        <ele>237.6397394</ele>
        <time>2022-08-18T08:19:00Z</time>
      </trkpt>
      <trkpt lat="45.16042" lon="0.97793">
        <ele>237.6259677</ele>
        <time>2022-08-18T08:19:02Z</time>
      </trkpt>
      <trkpt lat="45.16042" lon="0.97793">
        <ele>238.0804602</ele>
        <time>2022-08-18T08:19:04Z</time>
      </trkpt>
      <trkpt lat="45.16042" lon="0.97793">
        <ele>238.0804602</ele>
        <time>2022-08-18T08:19:09Z</time>
      </trkpt>
      <trkpt lat="45.16042" lon="0.97793">
        <ele>239.8936403</ele>
        <time>2022-08-18T08:19:12Z</time>
      </trkpt>
      <trkpt lat="45.16043" lon="0.97793">
        <ele>239.453186</ele>
        <time>2022-08-18T08:19:14Z</time>
      </trkpt>
      <trkpt lat="45.16043" lon="0.97792">
        <ele>239.3740541</ele>
        <time>2022-08-18T08:19:16Z</time>
      </trkpt>
      <trkpt lat="45.16043" lon="0.97792">
        <ele>239.3708611</ele>
        <time>2022-08-18T08:19:18Z</time>
      </trkpt>
      <trkpt lat="45.16043" lon="0.97792">
        <ele>239.7986092</ele>
        <time>2022-08-18T08:19:20Z</time>
      </trkpt>
      <trkpt lat="45.16043" lon="0.97788">
        <ele>239.4152348</ele>
        <time>2022-08-18T08:19:22Z</time>
      </trkpt>
      <trkpt lat="45.16045" lon="0.9778">
        <ele>238.7215847</ele>
        <time>2022-08-18T08:19:24Z</time>
      </trkpt>
      <trkpt lat="45.16049" lon="0.9777">
        <ele>237.4458295</ele>
        <time>2022-08-18T08:19:26Z</time>
      </trkpt>
      <trkpt lat="45.16053" lon="0.97756">
        <ele>236.0839531</ele>
        <time>2022-08-18T08:19:28Z</time>
      </trkpt>
      <trkpt lat="45.16058" lon="0.9774">
        <ele>234.7310084</ele>
        <time>2022-08-18T08:19:30Z</time>
      </trkpt>
      <trkpt lat="45.16062" lon="0.97723">
        <ele>233.4694812</ele>
        <time>2022-08-18T08:19:32Z</time>
      </trkpt>
      <trkpt lat="45.16068" lon="0.97706">
        <ele>232.3229458</ele>
        <time>2022-08-18T08:19:34Z</time>
      </trkpt>
      <trkpt lat="45.16074" lon="0.97687">
        <ele>230.1821176</ele>
        <time>2022-08-18T08:19:36Z</time>
      </trkpt>
      <trkpt lat="45.16082" lon="0.97668">
        <ele>228.3452395</ele>
        <time>2022-08-18T08:19:38Z</time>
      </trkpt>
      <trkpt lat="45.1609" lon="0.9765">
        <ele>226.8770719</ele>
        <time>2022-08-18T08:19:40Z</time>
      </trkpt>
      <trkpt lat="45.16101" lon="0.97635">
        <ele>224.7365275</ele>
        <time>2022-08-18T08:19:42Z</time>
      </trkpt>
      <trkpt lat="45.16115" lon="0.97627">
        <ele>224.0058058</ele>
        <time>2022-08-18T08:19:44Z</time>
      </trkpt>
      <trkpt lat="45.16127" lon="0.97623">
        <ele>222.9547206</ele>
        <time>2022-08-18T08:19:46Z</time>
      </trkpt>
      <trkpt lat="45.16139" lon="0.97615">
        <ele>222.0755357</ele>
        <time>2022-08-18T08:19:48Z</time>
      </trkpt>
      <trkpt lat="45.1615" lon="0.97601">
        <ele>221.0782628</ele>
        <time>2022-08-18T08:19:50Z</time>
      </trkpt>
      <trkpt lat="45.16159" lon="0.9758">
        <ele>219.5490316</ele>
        <time>2022-08-18T08:19:52Z</time>
      </trkpt>
      <trkpt lat="45.16166" lon="0.97558">
        <ele>218.1499435</ele>
        <time>2022-08-18T08:19:54Z</time>
      </trkpt>
      <trkpt lat="45.1617" lon="0.97533">
        <ele>216.6613631</ele>
        <time>2022-08-18T08:19:56Z</time>
      </trkpt>
      <trkpt lat="45.16171" lon="0.97506">
        <ele>215.9235562</ele>
        <time>2022-08-18T08:19:58Z</time>
      </trkpt>
      <trkpt lat="45.16171" lon="0.9748">
        <ele>212.9424962</ele>
        <time>2022-08-18T08:20:00Z</time>
      </trkpt>
      <trkpt lat="45.16172" lon="0.97453">
        <ele>211.149272</ele>
        <time>2022-08-18T08:20:02Z</time>
      </trkpt>
      <trkpt lat="45.16173" lon="0.97426">
        <ele>209.9270766</ele>
        <time>2022-08-18T08:20:04Z</time>
      </trkpt>
      <trkpt lat="45.16175" lon="0.974">
        <ele>209.0201337</ele>
        <time>2022-08-18T08:20:06Z</time>
      </trkpt>
      <trkpt lat="45.16178" lon="0.97374">
        <ele>206.9237434</ele>
        <time>2022-08-18T08:20:08Z</time>
      </trkpt>
      <trkpt lat="45.16184" lon="0.97348">
        <ele>205.2943421</ele>
        <time>2022-08-18T08:20:10Z</time>
      </trkpt>
      <trkpt lat="45.16192" lon="0.97324">
        <ele>203.8877993</ele>
        <time>2022-08-18T08:20:12Z</time>
      </trkpt>
      <trkpt lat="45.16201" lon="0.97298">
        <ele>202.2000242</ele>
        <time>2022-08-18T08:20:14Z</time>
      </trkpt>
      <trkpt lat="45.16207" lon="0.97269">
        <ele>200.9259668</ele>
        <time>2022-08-18T08:20:16Z</time>
      </trkpt>
      <trkpt lat="45.1621" lon="0.9724">
        <ele>198.0108132</ele>
        <time>2022-08-18T08:20:18Z</time>
      </trkpt>
      <trkpt lat="45.16213" lon="0.97209">
        <ele>196.3279127</ele>
        <time>2022-08-18T08:20:20Z</time>
      </trkpt>
      <trkpt lat="45.1622" lon="0.97179">
        <ele>195.7443579</ele>
        <time>2022-08-18T08:20:22Z</time>
      </trkpt>
      <trkpt lat="45.1623" lon="0.97152">
        <ele>194.8911814</ele>
        <time>2022-08-18T08:20:24Z</time>
      </trkpt>
      <trkpt lat="45.16242" lon="0.97131">
        <ele>193.7410035</ele>
        <time>2022-08-18T08:20:26Z</time>
      </trkpt>
      <trkpt lat="45.16253" lon="0.97109">
        <ele>193.4376562</ele>
        <time>2022-08-18T08:20:28Z</time>
      </trkpt>
      <trkpt lat="45.16264" lon="0.97089">
        <ele>193.1043175</ele>
        <time>2022-08-18T08:20:30Z</time>
      </trkpt>
      <trkpt lat="45.16274" lon="0.97071">
        <ele>192.7910348</ele>
        <time>2022-08-18T08:20:32Z</time>
      </trkpt>
      <trkpt lat="45.16282" lon="0.97055">
        <ele>192.9674134</ele>
        <time>2022-08-18T08:20:34Z</time>
      </trkpt>
      <trkpt lat="45.16291" lon="0.97041">
        <ele>193.0535759</ele>
        <time>2022-08-18T08:20:36Z</time>
      </trkpt>
      <trkpt lat="45.163" lon="0.97029">
        <ele>193.6307076</ele>
        <time>2022-08-18T08:20:38Z</time>
      </trkpt>
      <trkpt lat="45.16308" lon="0.9702">
        <ele>193.8550335</ele>
        <time>2022-08-18T08:20:40Z</time>
      </trkpt>
      <trkpt lat="45.16312" lon="0.97011">
        <ele>194.7773899</ele>
        <time>2022-08-18T08:20:42Z</time>
      </trkpt>
      <trkpt lat="45.16317" lon="0.97005">
        <ele>195.2320009</ele>
        <time>2022-08-18T08:20:44Z</time>
      </trkpt>
      <trkpt lat="45.16322" lon="0.97">
        <ele>195.1933482</ele>
        <time>2022-08-18T08:20:46Z</time>
      </trkpt>
      <trkpt lat="45.16325" lon="0.96995">
        <ele>195.0303006</ele>
        <time>2022-08-18T08:20:48Z</time>
      </trkpt>
      <trkpt lat="45.16328" lon="0.96991">
        <ele>195.2949753</ele>
        <time>2022-08-18T08:20:50Z</time>
      </trkpt>
      <trkpt lat="45.16332" lon="0.96987">
        <ele>195.1033391</ele>
        <time>2022-08-18T08:20:52Z</time>
      </trkpt>
      <trkpt lat="45.16336" lon="0.96982">
        <ele>195.0778747</ele>
        <time>2022-08-18T08:20:54Z</time>
      </trkpt>
      <trkpt lat="45.16341" lon="0.96978">
        <ele>194.7118957</ele>
        <time>2022-08-18T08:20:56Z</time>
      </trkpt>
      <trkpt lat="45.16344" lon="0.96973">
        <ele>194.2719471</ele>
        <time>2022-08-18T08:20:58Z</time>
      </trkpt>
      <trkpt lat="45.16347" lon="0.96969">
        <ele>194.0777042</ele>
        <time>2022-08-18T08:21:00Z</time>
      </trkpt>
      <trkpt lat="45.16349" lon="0.96966">
        <ele>193.2672769</ele>
        <time>2022-08-18T08:21:02Z</time>
      </trkpt>
      <trkpt lat="45.1635" lon="0.96967">
        <ele>191.9501555</ele>
        <time>2022-08-18T08:21:04Z</time>
      </trkpt>
      <trkpt lat="45.1635" lon="0.96967">
        <ele>192.799844</ele>
        <time>2022-08-18T08:21:06Z</time>
      </trkpt>
      <trkpt lat="45.1635" lon="0.96967">
        <ele>194.0372128</ele>
        <time>2022-08-18T08:21:08Z</time>
      </trkpt>
      <trkpt lat="45.1635" lon="0.96967">
        <ele>194.797235</ele>
        <time>2022-08-18T08:21:10Z</time>
      </trkpt>
      <trkpt lat="45.16353" lon="0.96965">
        <ele>194.6300323</ele>
        <time>2022-08-18T08:21:12Z</time>
      </trkpt>
      <trkpt lat="45.16356" lon="0.96961">
        <ele>194.0126606</ele>
        <time>2022-08-18T08:21:14Z</time>
      </trkpt>
      <trkpt lat="45.1636" lon="0.96956">
        <ele>193.6686621</ele>
        <time>2022-08-18T08:21:16Z</time>
      </trkpt>
      <trkpt lat="45.16366" lon="0.9695">
        <ele>193.0957193</ele>
        <time>2022-08-18T08:21:18Z</time>
      </trkpt>
      <trkpt lat="45.16372" lon="0.96944">
        <ele>192.5707417</ele>
        <time>2022-08-18T08:21:20Z</time>
      </trkpt>
      <trkpt lat="45.16378" lon="0.96937">
        <ele>192.3135746</ele>
        <time>2022-08-18T08:21:22Z</time>
      </trkpt>
      <trkpt lat="45.16384" lon="0.96931">
        <ele>191.4044222</ele>
        <time>2022-08-18T08:21:24Z</time>
      </trkpt>
      <trkpt lat="45.16394" lon="0.96922">
        <ele>191.6838254</ele>
        <time>2022-08-18T08:21:27Z</time>
      </trkpt>
      <trkpt lat="45.164" lon="0.96916">
        <ele>192.2245342</ele>
        <time>2022-08-18T08:21:29Z</time>
      </trkpt>
      <trkpt lat="45.16405" lon="0.96909">
        <ele>191.6320066</ele>
        <time>2022-08-18T08:21:31Z</time>
      </trkpt>
      <trkpt lat="45.16411" lon="0.96904">
        <ele>192.0280684</ele>
        <time>2022-08-18T08:21:33Z</time>
      </trkpt>
      <trkpt lat="45.16416" lon="0.96898">
        <ele>191.9025445</ele>
        <time>2022-08-18T08:21:35Z</time>
      </trkpt>
      <trkpt lat="45.16422" lon="0.96893">
        <ele>192.161534</ele>
        <time>2022-08-18T08:21:37Z</time>
      </trkpt>
      <trkpt lat="45.16426" lon="0.96888">
        <ele>191.6684114</ele>
        <time>2022-08-18T08:21:39Z</time>
      </trkpt>
      <trkpt lat="45.16432" lon="0.96883">
        <ele>192.5031952</ele>
        <time>2022-08-18T08:21:41Z</time>
      </trkpt>
      <trkpt lat="45.16437" lon="0.96878">
        <ele>192.9093499</ele>
        <time>2022-08-18T08:21:43Z</time>
      </trkpt>
      <trkpt lat="45.16441" lon="0.96873">
        <ele>192.5203021</ele>
        <time>2022-08-18T08:21:45Z</time>
      </trkpt>
      <trkpt lat="45.16447" lon="0.96868">
        <ele>192.8637196</ele>
        <time>2022-08-18T08:21:47Z</time>
      </trkpt>
      <trkpt lat="45.16452" lon="0.96863">
        <ele>193.5038221</ele>
        <time>2022-08-18T08:21:49Z</time>
      </trkpt>
      <trkpt lat="45.16458" lon="0.96858">
        <ele>193.8915507</ele>
        <time>2022-08-18T08:21:51Z</time>
      </trkpt>
      <trkpt lat="45.16463" lon="0.96853">
        <ele>194.2586974</ele>
        <time>2022-08-18T08:21:53Z</time>
      </trkpt>
      <trkpt lat="45.16468" lon="0.96848">
        <ele>194.1187764</ele>
        <time>2022-08-18T08:21:55Z</time>
      </trkpt>
      <trkpt lat="45.16472" lon="0.96844">
        <ele>194.2720597</ele>
        <time>2022-08-18T08:21:57Z</time>
      </trkpt>
      <trkpt lat="45.16477" lon="0.96839">
        <ele>194.9542864</ele>
        <time>2022-08-18T08:21:59Z</time>
      </trkpt>
      <trkpt lat="45.16482" lon="0.96836">
        <ele>195.6639118</ele>
        <time>2022-08-18T08:22:01Z</time>
      </trkpt>
      <trkpt lat="45.16486" lon="0.96831">
        <ele>194.9390747</ele>
        <time>2022-08-18T08:22:03Z</time>
      </trkpt>
      <trkpt lat="45.1649" lon="0.96826">
        <ele>195.6006558</ele>
        <time>2022-08-18T08:22:05Z</time>
      </trkpt>
      <trkpt lat="45.16494" lon="0.96821">
        <ele>195.5681181</ele>
        <time>2022-08-18T08:22:07Z</time>
      </trkpt>
      <trkpt lat="45.16498" lon="0.96818">
        <ele>196.0077375</ele>
        <time>2022-08-18T08:22:09Z</time>
      </trkpt>
      <trkpt lat="45.16503" lon="0.96814">
        <ele>196.0543704</ele>
        <time>2022-08-18T08:22:11Z</time>
      </trkpt>
      <trkpt lat="45.16507" lon="0.96809">
        <ele>196.1726009</ele>
        <time>2022-08-18T08:22:13Z</time>
      </trkpt>
      <trkpt lat="45.16512" lon="0.96806">
        <ele>196.2974016</ele>
        <time>2022-08-18T08:22:15Z</time>
      </trkpt>
      <trkpt lat="45.16516" lon="0.96802">
        <ele>196.3895327</ele>
        <time>2022-08-18T08:22:17Z</time>
      </trkpt>
      <trkpt lat="45.16521" lon="0.96797">
        <ele>196.0295743</ele>
        <time>2022-08-18T08:22:19Z</time>
      </trkpt>
      <trkpt lat="45.16525" lon="0.96793">
        <ele>195.6354803</ele>
        <time>2022-08-18T08:22:21Z</time>
      </trkpt>
      <trkpt lat="45.1653" lon="0.96789">
        <ele>195.8015092</ele>
        <time>2022-08-18T08:22:23Z</time>
      </trkpt>
      <trkpt lat="45.16535" lon="0.96784">
        <ele>195.4277691</ele>
        <time>2022-08-18T08:22:25Z</time>
      </trkpt>
      <trkpt lat="45.1654" lon="0.96778">
        <ele>195.229714</ele>
        <time>2022-08-18T08:22:27Z</time>
      </trkpt>
      <trkpt lat="45.16545" lon="0.96773">
        <ele>195.2379522</ele>
        <time>2022-08-18T08:22:29Z</time>
      </trkpt>
      <trkpt lat="45.16551" lon="0.96768">
        <ele>195.1229377</ele>
        <time>2022-08-18T08:22:31Z</time>
      </trkpt>
      <trkpt lat="45.16556" lon="0.96763">
        <ele>195.2120794</ele>
        <time>2022-08-18T08:22:33Z</time>
      </trkpt>
      <trkpt lat="45.16562" lon="0.96757">
        <ele>194.7562943</ele>
        <time>2022-08-18T08:22:35Z</time>
      </trkpt>
      <trkpt lat="45.16569" lon="0.96751">
        <ele>194.0055873</ele>
        <time>2022-08-18T08:22:37Z</time>
      </trkpt>
      <trkpt lat="45.16576" lon="0.96743">
        <ele>193.4215557</ele>
        <time>2022-08-18T08:22:39Z</time>
      </trkpt>
      <trkpt lat="45.16583" lon="0.96737">
        <ele>193.2061106</ele>
        <time>2022-08-18T08:22:41Z</time>
      </trkpt>
      <trkpt lat="45.16591" lon="0.9673">
        <ele>192.3760397</ele>
        <time>2022-08-18T08:22:43Z</time>
      </trkpt>
      <trkpt lat="45.16599" lon="0.96722">
        <ele>191.7273075</ele>
        <time>2022-08-18T08:22:45Z</time>
      </trkpt>
      <trkpt lat="45.16608" lon="0.96712">
        <ele>191.2037465</ele>
        <time>2022-08-18T08:22:47Z</time>
      </trkpt>
      <trkpt lat="45.16616" lon="0.967">
        <ele>190.6474259</ele>
        <time>2022-08-18T08:22:49Z</time>
      </trkpt>
      <trkpt lat="45.16625" lon="0.96686">
        <ele>190.5275739</ele>
        <time>2022-08-18T08:22:51Z</time>
      </trkpt>
      <trkpt lat="45.16632" lon="0.96669">
        <ele>190.7727939</ele>
        <time>2022-08-18T08:22:53Z</time>
      </trkpt>
      <trkpt lat="45.16639" lon="0.96651">
        <ele>190.8498132</ele>
        <time>2022-08-18T08:22:55Z</time>
      </trkpt>
      <trkpt lat="45.16645" lon="0.96633">
        <ele>190.9573662</ele>
        <time>2022-08-18T08:22:57Z</time>
      </trkpt>
      <trkpt lat="45.16652" lon="0.96615">
        <ele>191.4332845</ele>
        <time>2022-08-18T08:22:59Z</time>
      </trkpt>
      <trkpt lat="45.16657" lon="0.96598">
        <ele>191.7235219</ele>
        <time>2022-08-18T08:23:01Z</time>
      </trkpt>
      <trkpt lat="45.16661" lon="0.96587">
        <ele>190.7095109</ele>
        <time>2022-08-18T08:23:03Z</time>
      </trkpt>
      <trkpt lat="45.16663" lon="0.96581">
        <ele>191.3230058</ele>
        <time>2022-08-18T08:23:05Z</time>
      </trkpt>
      <trkpt lat="45.16669" lon="0.96568">
        <ele>191.444941</ele>
        <time>2022-08-18T08:23:07Z</time>
      </trkpt>
      <trkpt lat="45.16672" lon="0.96557">
        <ele>191.4490831</ele>
        <time>2022-08-18T08:23:09Z</time>
      </trkpt>
      <trkpt lat="45.16674" lon="0.96551">
        <ele>191.7647165</ele>
        <time>2022-08-18T08:23:10Z</time>
      </trkpt>
      <trkpt lat="45.16678" lon="0.96539">
        <ele>191.5700885</ele>
        <time>2022-08-18T08:23:12Z</time>
      </trkpt>
      <trkpt lat="45.16682" lon="0.96528">
        <ele>191.2116092</ele>
        <time>2022-08-18T08:23:14Z</time>
      </trkpt>
      <trkpt lat="45.16686" lon="0.96515">
        <ele>190.844235</ele>
        <time>2022-08-18T08:23:16Z</time>
      </trkpt>
      <trkpt lat="45.16689" lon="0.96502">
        <ele>190.573033</ele>
        <time>2022-08-18T08:23:18Z</time>
      </trkpt>
      <trkpt lat="45.16694" lon="0.96488">
        <ele>190.8728582</ele>
        <time>2022-08-18T08:23:20Z</time>
      </trkpt>
      <trkpt lat="45.16698" lon="0.96475">
        <ele>190.6842305</ele>
        <time>2022-08-18T08:23:22Z</time>
      </trkpt>
      <trkpt lat="45.16703" lon="0.96462">
        <ele>190.3920152</ele>
        <time>2022-08-18T08:23:24Z</time>
      </trkpt>
      <trkpt lat="45.16708" lon="0.96448">
        <ele>190.2095942</ele>
        <time>2022-08-18T08:23:26Z</time>
      </trkpt>
      <trkpt lat="45.16714" lon="0.96432">
        <ele>189.6382486</ele>
        <time>2022-08-18T08:23:28Z</time>
      </trkpt>
      <trkpt lat="45.1672" lon="0.96417">
        <ele>189.9617089</ele>
        <time>2022-08-18T08:23:30Z</time>
      </trkpt>
      <trkpt lat="45.16725" lon="0.96401">
        <ele>189.0635466</ele>
        <time>2022-08-18T08:23:32Z</time>
      </trkpt>
      <trkpt lat="45.16731" lon="0.96385">
        <ele>188.8113125</ele>
        <time>2022-08-18T08:23:34Z</time>
      </trkpt>
      <trkpt lat="45.16738" lon="0.96369">
        <ele>188.3013451</ele>
        <time>2022-08-18T08:23:36Z</time>
      </trkpt>
      <trkpt lat="45.16744" lon="0.96353">
        <ele>187.5246728</ele>
        <time>2022-08-18T08:23:38Z</time>
      </trkpt>
      <trkpt lat="45.16751" lon="0.96337">
        <ele>187.3664262</ele>
        <time>2022-08-18T08:23:40Z</time>
      </trkpt>
      <trkpt lat="45.16759" lon="0.96322">
        <ele>187.3269093</ele>
        <time>2022-08-18T08:23:42Z</time>
      </trkpt>
      <trkpt lat="45.16766" lon="0.96307">
        <ele>187.4257519</ele>
        <time>2022-08-18T08:23:44Z</time>
      </trkpt>
      <trkpt lat="45.16773" lon="0.96293">
        <ele>186.5105847</ele>
        <time>2022-08-18T08:23:46Z</time>
      </trkpt>
      <trkpt lat="45.1678" lon="0.96278">
        <ele>186.6741676</ele>
        <time>2022-08-18T08:23:48Z</time>
      </trkpt>
      <trkpt lat="45.16787" lon="0.96263">
        <ele>186.4125621</ele>
        <time>2022-08-18T08:23:50Z</time>
      </trkpt>
      <trkpt lat="45.16794" lon="0.96248">
        <ele>185.6096674</ele>
        <time>2022-08-18T08:23:52Z</time>
      </trkpt>
      <trkpt lat="45.16802" lon="0.96232">
        <ele>185.1317972</ele>
        <time>2022-08-18T08:23:54Z</time>
      </trkpt>
      <trkpt lat="45.16809" lon="0.96216">
        <ele>185.0441189</ele>
        <time>2022-08-18T08:23:56Z</time>
      </trkpt>
      <trkpt lat="45.16817" lon="0.962">
        <ele>184.459129</ele>
        <time>2022-08-18T08:23:58Z</time>
      </trkpt>
      <trkpt lat="45.16825" lon="0.96183">
        <ele>184.2041475</ele>
        <time>2022-08-18T08:24:00Z</time>
      </trkpt>
      <trkpt lat="45.16833" lon="0.96165">
        <ele>183.1938663</ele>
        <time>2022-08-18T08:24:02Z</time>
      </trkpt>
      <trkpt lat="45.16842" lon="0.96147">
        <ele>182.8829618</ele>
        <time>2022-08-18T08:24:04Z</time>
      </trkpt>
      <trkpt lat="45.1685" lon="0.96129">
        <ele>182.1360914</ele>
        <time>2022-08-18T08:24:06Z</time>
      </trkpt>
      <trkpt lat="45.16859" lon="0.96111">
        <ele>182.3152186</ele>
        <time>2022-08-18T08:24:08Z</time>
      </trkpt>
      <trkpt lat="45.16867" lon="0.96093">
        <ele>181.8080221</ele>
        <time>2022-08-18T08:24:10Z</time>
      </trkpt>
      <trkpt lat="45.16874" lon="0.96073">
        <ele>181.1968256</ele>
        <time>2022-08-18T08:24:12Z</time>
      </trkpt>
      <trkpt lat="45.16881" lon="0.96052">
        <ele>180.2932813</ele>
        <time>2022-08-18T08:24:14Z</time>
      </trkpt>
      <trkpt lat="45.16887" lon="0.9603">
        <ele>178.9290027</ele>
        <time>2022-08-18T08:24:16Z</time>
      </trkpt>
      <trkpt lat="45.16898" lon="0.96009">
        <ele>177.4114413</ele>
        <time>2022-08-18T08:24:18Z</time>
      </trkpt>
      <trkpt lat="45.16911" lon="0.95989">
        <ele>176.1095796</ele>
        <time>2022-08-18T08:24:20Z</time>
      </trkpt>
      <trkpt lat="45.16926" lon="0.95972">
        <ele>175.9491232</ele>
        <time>2022-08-18T08:24:22Z</time>
      </trkpt>
      <trkpt lat="45.16934" lon="0.95952">
        <ele>176.5434284</ele>
        <time>2022-08-18T08:24:24Z</time>
      </trkpt>
      <trkpt lat="45.16935" lon="0.95933">
        <ele>178.6686767</ele>
        <time>2022-08-18T08:24:26Z</time>
      </trkpt>
      <trkpt lat="45.16932" lon="0.95919">
        <ele>179.6577449</ele>
        <time>2022-08-18T08:24:28Z</time>
      </trkpt>
      <trkpt lat="45.16931" lon="0.9591">
        <ele>180.6035404</ele>
        <time>2022-08-18T08:24:30Z</time>
      </trkpt>
      <trkpt lat="45.1693" lon="0.95906">
        <ele>180.9861014</ele>
        <time>2022-08-18T08:24:32Z</time>
      </trkpt>
      <trkpt lat="45.1693" lon="0.95903">
        <ele>180.798027</ele>
        <time>2022-08-18T08:24:34Z</time>
      </trkpt>
      <trkpt lat="45.16929" lon="0.95899">
        <ele>181.6246449</ele>
        <time>2022-08-18T08:24:36Z</time>
      </trkpt>
      <trkpt lat="45.16929" lon="0.95895">
        <ele>182.5687722</ele>
        <time>2022-08-18T08:24:38Z</time>
      </trkpt>
      <trkpt lat="45.16928" lon="0.95891">
        <ele>182.9433301</ele>
        <time>2022-08-18T08:24:40Z</time>
      </trkpt>
      <trkpt lat="45.16928" lon="0.95886">
        <ele>183.0739757</ele>
        <time>2022-08-18T08:24:42Z</time>
      </trkpt>
      <trkpt lat="45.16927" lon="0.95882">
        <ele>183.7893121</ele>
        <time>2022-08-18T08:24:44Z</time>
      </trkpt>
      <trkpt lat="45.16927" lon="0.95879">
        <ele>184.1764223</ele>
        <time>2022-08-18T08:24:46Z</time>
      </trkpt>
      <trkpt lat="45.16926" lon="0.95875">
        <ele>184.7307404</ele>
        <time>2022-08-18T08:24:48Z</time>
      </trkpt>
      <trkpt lat="45.16926" lon="0.9587">
        <ele>184.9996267</ele>
        <time>2022-08-18T08:24:50Z</time>
      </trkpt>
      <trkpt lat="45.16926" lon="0.95866">
        <ele>185.1343703</ele>
        <time>2022-08-18T08:24:52Z</time>
      </trkpt>
      <trkpt lat="45.16926" lon="0.95862">
        <ele>185.1509491</ele>
        <time>2022-08-18T08:24:54Z</time>
      </trkpt>
      <trkpt lat="45.16927" lon="0.95858">
        <ele>185.4214256</ele>
        <time>2022-08-18T08:24:56Z</time>
      </trkpt>
      <trkpt lat="45.16927" lon="0.95853">
        <ele>185.5037199</ele>
        <time>2022-08-18T08:24:58Z</time>
      </trkpt>
      <trkpt lat="45.16928" lon="0.95849">
        <ele>186.0891598</ele>
        <time>2022-08-18T08:25:00Z</time>
      </trkpt>
      <trkpt lat="45.1693" lon="0.95844">
        <ele>186.6268178</ele>
        <time>2022-08-18T08:25:02Z</time>
      </trkpt>
      <trkpt lat="45.16931" lon="0.9584">
        <ele>187.2131776</ele>
        <time>2022-08-18T08:25:04Z</time>
      </trkpt>
      <trkpt lat="45.16933" lon="0.95835">
        <ele>187.4214562</ele>
        <time>2022-08-18T08:25:06Z</time>
      </trkpt>
      <trkpt lat="45.16935" lon="0.95831">
        <ele>187.192734</ele>
        <time>2022-08-18T08:25:08Z</time>
      </trkpt>
      <trkpt lat="45.16936" lon="0.95827">
        <ele>187.2568831</ele>
        <time>2022-08-18T08:25:10Z</time>
      </trkpt>
      <trkpt lat="45.16939" lon="0.95823">
        <ele>187.4867275</ele>
        <time>2022-08-18T08:25:12Z</time>
      </trkpt>
      <trkpt lat="45.16942" lon="0.9582">
        <ele>187.5167468</ele>
        <time>2022-08-18T08:25:14Z</time>
      </trkpt>
      <trkpt lat="45.16945" lon="0.95817">
        <ele>187.7792062</ele>
        <time>2022-08-18T08:25:16Z</time>
      </trkpt>
      <trkpt lat="45.16948" lon="0.95813">
        <ele>187.7839849</ele>
        <time>2022-08-18T08:25:18Z</time>
      </trkpt>
      <trkpt lat="45.16951" lon="0.95811">
        <ele>187.5571673</ele>
        <time>2022-08-18T08:25:20Z</time>
      </trkpt>
      <trkpt lat="45.16954" lon="0.95808">
        <ele>188.0907498</ele>
        <time>2022-08-18T08:25:22Z</time>
      </trkpt>
      <trkpt lat="45.16957" lon="0.95805">
        <ele>187.9266869</ele>
        <time>2022-08-18T08:25:24Z</time>
      </trkpt>
      <trkpt lat="45.1696" lon="0.95802">
        <ele>188.3866111</ele>
        <time>2022-08-18T08:25:26Z</time>
      </trkpt>
      <trkpt lat="45.16963" lon="0.95799">
        <ele>188.4026855</ele>
        <time>2022-08-18T08:25:28Z</time>
      </trkpt>
      <trkpt lat="45.16967" lon="0.95796">
        <ele>188.5322493</ele>
        <time>2022-08-18T08:25:30Z</time>
      </trkpt>
      <trkpt lat="45.1697" lon="0.95793">
        <ele>189.0009375</ele>
        <time>2022-08-18T08:25:32Z</time>
      </trkpt>
      <trkpt lat="45.16973" lon="0.95789">
        <ele>188.633366</ele>
        <time>2022-08-18T08:25:34Z</time>
      </trkpt>
      <trkpt lat="45.16977" lon="0.95785">
        <ele>188.745419</ele>
        <time>2022-08-18T08:25:36Z</time>
      </trkpt>
      <trkpt lat="45.1698" lon="0.95783">
        <ele>188.6349011</ele>
        <time>2022-08-18T08:25:38Z</time>
      </trkpt>
      <trkpt lat="45.16983" lon="0.95779">
        <ele>187.8881807</ele>
        <time>2022-08-18T08:25:40Z</time>
      </trkpt>
      <trkpt lat="45.16987" lon="0.95776">
        <ele>187.3120404</ele>
        <time>2022-08-18T08:25:42Z</time>
      </trkpt>
      <trkpt lat="45.1699" lon="0.95773">
        <ele>186.9029526</ele>
        <time>2022-08-18T08:25:44Z</time>
      </trkpt>
      <trkpt lat="45.16993" lon="0.95771">
        <ele>186.7288633</ele>
        <time>2022-08-18T08:25:46Z</time>
      </trkpt>
      <trkpt lat="45.16992" lon="0.95771">
        <ele>186.8043452</ele>
        <time>2022-08-18T08:25:48Z</time>
      </trkpt>
      <trkpt lat="45.16992" lon="0.95771">
        <ele>187.0050273</ele>
        <time>2022-08-18T08:25:50Z</time>
      </trkpt>
      <trkpt lat="45.16992" lon="0.95771">
        <ele>186.9259375</ele>
        <time>2022-08-18T08:25:52Z</time>
      </trkpt>
      <trkpt lat="45.16992" lon="0.95771">
        <ele>186.6113373</ele>
        <time>2022-08-18T08:25:54Z</time>
      </trkpt>
      <trkpt lat="45.16992" lon="0.95771">
        <ele>186.1847301</ele>
        <time>2022-08-18T08:25:56Z</time>
      </trkpt>
      <trkpt lat="45.16993" lon="0.9577">
        <ele>186.2017078</ele>
        <time>2022-08-18T08:25:58Z</time>
      </trkpt>
      <trkpt lat="45.16993" lon="0.9577">
        <ele>186.3532267</ele>
        <time>2022-08-18T08:26:00Z</time>
      </trkpt>
      <trkpt lat="45.16993" lon="0.9577">
        <ele>186.5257003</ele>
        <time>2022-08-18T08:26:02Z</time>
      </trkpt>
      <trkpt lat="45.16993" lon="0.95771">
        <ele>186.4797862</ele>
        <time>2022-08-18T08:26:04Z</time>
      </trkpt>
      <trkpt lat="45.16993" lon="0.95771">
        <ele>185.9523363</ele>
        <time>2022-08-18T08:26:06Z</time>
      </trkpt>
      <trkpt lat="45.16993" lon="0.95771">
        <ele>185.6167453</ele>
        <time>2022-08-18T08:26:08Z</time>
      </trkpt>
      <trkpt lat="45.16993" lon="0.95771">
        <ele>185.4668749</ele>
        <time>2022-08-18T08:26:10Z</time>
      </trkpt>
      <trkpt lat="45.16993" lon="0.95771">
        <ele>185.4668749</ele>
        <time>2022-08-18T08:26:14Z</time>
      </trkpt>
      <trkpt lat="45.16992" lon="0.95771">
        <ele>184.6651052</ele>
        <time>2022-08-18T08:26:16Z</time>
      </trkpt>
      <trkpt lat="45.16992" lon="0.95771">
        <ele>184.6603337</ele>
        <time>2022-08-18T08:26:18Z</time>
      </trkpt>
      <trkpt lat="45.16992" lon="0.95772">
        <ele>185.5341258</ele>
        <time>2022-08-18T08:26:20Z</time>
      </trkpt>
      <trkpt lat="45.16991" lon="0.95772">
        <ele>184.8536947</ele>
        <time>2022-08-18T08:26:22Z</time>
      </trkpt>
      <trkpt lat="45.16991" lon="0.95772">
        <ele>184.7396547</ele>
        <time>2022-08-18T08:26:24Z</time>
      </trkpt>
      <trkpt lat="45.16992" lon="0.95771">
        <ele>184.8322893</ele>
        <time>2022-08-18T08:26:26Z</time>
      </trkpt>
      <trkpt lat="45.16992" lon="0.9577">
        <ele>184.4870503</ele>
        <time>2022-08-18T08:26:28Z</time>
      </trkpt>
      <trkpt lat="45.16992" lon="0.9577">
        <ele>185.9013061</ele>
        <time>2022-08-18T08:26:32Z</time>
      </trkpt>
      <trkpt lat="45.16993" lon="0.95769">
        <ele>186.4681981</ele>
        <time>2022-08-18T08:26:34Z</time>
      </trkpt>
      <trkpt lat="45.16993" lon="0.9577">
        <ele>186.4173626</ele>
        <time>2022-08-18T08:26:36Z</time>
      </trkpt>
      <trkpt lat="45.16993" lon="0.9577">
        <ele>186.5164567</ele>
        <time>2022-08-18T08:26:38Z</time>
      </trkpt>
      <trkpt lat="45.16993" lon="0.9577">
        <ele>186.8877733</ele>
        <time>2022-08-18T08:26:40Z</time>
      </trkpt>
      <trkpt lat="45.16993" lon="0.9577">
        <ele>186.8877733</ele>
        <time>2022-08-18T08:26:44Z</time>
      </trkpt>
      <trkpt lat="45.16992" lon="0.95769">
        <ele>184.8589686</ele>
        <time>2022-08-18T08:26:48Z</time>
      </trkpt>
      <trkpt lat="45.16992" lon="0.95769">
        <ele>184.9797619</ele>
        <time>2022-08-18T08:26:50Z</time>
      </trkpt>
      <trkpt lat="45.16992" lon="0.95769">
        <ele>185.054732</ele>
        <time>2022-08-18T08:26:52Z</time>
      </trkpt>
      <trkpt lat="45.16992" lon="0.95769">
        <ele>184.9380903</ele>
        <time>2022-08-18T08:26:54Z</time>
      </trkpt>
      <trkpt lat="45.16992" lon="0.95769">
        <ele>185.0324036</ele>
        <time>2022-08-18T08:26:56Z</time>
      </trkpt>
      <trkpt lat="45.16992" lon="0.95769">
        <ele>185.0501872</ele>
        <time>2022-08-18T08:26:58Z</time>
      </trkpt>
      <trkpt lat="45.16992" lon="0.95769">
        <ele>184.4637791</ele>
        <time>2022-08-18T08:27:00Z</time>
      </trkpt>
      <trkpt lat="45.16992" lon="0.95769">
        <ele>183.8221854</ele>
        <time>2022-08-18T08:27:02Z</time>
      </trkpt>
      <trkpt lat="45.16992" lon="0.95769">
        <ele>183.5330767</ele>
        <time>2022-08-18T08:27:04Z</time>
      </trkpt>
      <trkpt lat="45.16992" lon="0.95769">
        <ele>183.8335583</ele>
        <time>2022-08-18T08:27:06Z</time>
      </trkpt>
      <trkpt lat="45.16992" lon="0.95769">
        <ele>184.169796</ele>
        <time>2022-08-18T08:27:08Z</time>
      </trkpt>
      <trkpt lat="45.16992" lon="0.95769">
        <ele>183.570186</ele>
        <time>2022-08-18T08:27:10Z</time>
      </trkpt>
      <trkpt lat="45.16992" lon="0.95769">
        <ele>183.5763685</ele>
        <time>2022-08-18T08:27:12Z</time>
      </trkpt>
      <trkpt lat="45.16992" lon="0.95769">
        <ele>183.8868984</ele>
        <time>2022-08-18T08:27:14Z</time>
      </trkpt>
      <trkpt lat="45.16992" lon="0.95769">
        <ele>183.7507074</ele>
        <time>2022-08-18T08:27:16Z</time>
      </trkpt>
      <trkpt lat="45.16992" lon="0.95769">
        <ele>183.5582978</ele>
        <time>2022-08-18T08:27:18Z</time>
      </trkpt>
      <trkpt lat="45.16992" lon="0.95769">
        <ele>183.5128277</ele>
        <time>2022-08-18T08:27:20Z</time>
      </trkpt>
      <trkpt lat="45.16992" lon="0.95768">
        <ele>184.1169105</ele>
        <time>2022-08-18T08:27:22Z</time>
      </trkpt>
      <trkpt lat="45.16992" lon="0.95769">
        <ele>183.5622653</ele>
        <time>2022-08-18T08:27:24Z</time>
      </trkpt>
      <trkpt lat="45.16992" lon="0.95768">
        <ele>182.9607217</ele>
        <time>2022-08-18T08:27:26Z</time>
      </trkpt>
      <trkpt lat="45.16993" lon="0.95769">
        <ele>183.0370751</ele>
        <time>2022-08-18T08:27:28Z</time>
      </trkpt>
      <trkpt lat="45.16993" lon="0.95769">
        <ele>183.3944328</ele>
        <time>2022-08-18T08:27:30Z</time>
      </trkpt>
      <trkpt lat="45.16993" lon="0.95769">
        <ele>183.9492163</ele>
        <time>2022-08-18T08:27:32Z</time>
      </trkpt>
      <trkpt lat="45.16993" lon="0.95769">
        <ele>184.3496116</ele>
        <time>2022-08-18T08:27:34Z</time>
      </trkpt>
      <trkpt lat="45.16993" lon="0.95769">
        <ele>184.9980796</ele>
        <time>2022-08-18T08:27:36Z</time>
      </trkpt>
      <trkpt lat="45.16994" lon="0.95767">
        <ele>185.0372315</ele>
        <time>2022-08-18T08:27:38Z</time>
      </trkpt>
      <trkpt lat="45.16998" lon="0.95763">
        <ele>184.9593974</ele>
        <time>2022-08-18T08:27:40Z</time>
      </trkpt>
      <trkpt lat="45.17004" lon="0.95759">
        <ele>184.3514109</ele>
        <time>2022-08-18T08:27:42Z</time>
      </trkpt>
      <trkpt lat="45.17011" lon="0.95753">
        <ele>183.3138592</ele>
        <time>2022-08-18T08:27:44Z</time>
      </trkpt>
      <trkpt lat="45.1702" lon="0.95746">
        <ele>182.1345846</ele>
        <time>2022-08-18T08:27:46Z</time>
      </trkpt>
      <trkpt lat="45.1703" lon="0.95737">
        <ele>181.0175731</ele>
        <time>2022-08-18T08:27:48Z</time>
      </trkpt>
      <trkpt lat="45.17041" lon="0.95725">
        <ele>180.0821793</ele>
        <time>2022-08-18T08:27:50Z</time>
      </trkpt>
      <trkpt lat="45.17054" lon="0.95712">
        <ele>178.94989</ele>
        <time>2022-08-18T08:27:52Z</time>
      </trkpt>
      <trkpt lat="45.17067" lon="0.95698">
        <ele>177.7938783</ele>
        <time>2022-08-18T08:27:54Z</time>
      </trkpt>
      <trkpt lat="45.17083" lon="0.95686">
        <ele>176.236905</ele>
        <time>2022-08-18T08:27:56Z</time>
      </trkpt>
      <trkpt lat="45.171" lon="0.95678">
        <ele>176.0175131</ele>
        <time>2022-08-18T08:27:58Z</time>
      </trkpt>
      <trkpt lat="45.17115" lon="0.9567">
        <ele>175.4971854</ele>
        <time>2022-08-18T08:28:00Z</time>
      </trkpt>
      <trkpt lat="45.17128" lon="0.95659">
        <ele>176.8481918</ele>
        <time>2022-08-18T08:28:02Z</time>
      </trkpt>
      <trkpt lat="45.17138" lon="0.95647">
        <ele>178.2676095</ele>
        <time>2022-08-18T08:28:04Z</time>
      </trkpt>
      <trkpt lat="45.17145" lon="0.95635">
        <ele>179.7412193</ele>
        <time>2022-08-18T08:28:06Z</time>
      </trkpt>
      <trkpt lat="45.17152" lon="0.95626">
        <ele>181.3745871</ele>
        <time>2022-08-18T08:28:08Z</time>
      </trkpt>
      <trkpt lat="45.1716" lon="0.95617">
        <ele>182.8454458</ele>
        <time>2022-08-18T08:28:10Z</time>
      </trkpt>
      <trkpt lat="45.17171" lon="0.95609">
        <ele>184.8534098</ele>
        <time>2022-08-18T08:28:12Z</time>
      </trkpt>
      <trkpt lat="45.17186" lon="0.956">
        <ele>186.6324288</ele>
        <time>2022-08-18T08:28:14Z</time>
      </trkpt>
      <trkpt lat="45.17207" lon="0.95588">
        <ele>187.6420779</ele>
        <time>2022-08-18T08:28:16Z</time>
      </trkpt>
      <trkpt lat="45.17171" lon="0.95593">
        <ele>181.3483972</ele>
        <time>2022-08-18T08:28:18Z</time>
      </trkpt>
      <trkpt lat="45.17176" lon="0.95589">
        <ele>183.9831384</ele>
        <time>2022-08-18T08:28:20Z</time>
      </trkpt>
      <trkpt lat="45.1718" lon="0.95583">
        <ele>186.2530684</ele>
        <time>2022-08-18T08:28:22Z</time>
      </trkpt>
      <trkpt lat="45.17182" lon="0.95575">
        <ele>186.4077668</ele>
        <time>2022-08-18T08:28:24Z</time>
      </trkpt>
      <trkpt lat="45.17185" lon="0.95571">
        <ele>186.4411291</ele>
        <time>2022-08-18T08:28:26Z</time>
      </trkpt>
      <trkpt lat="45.17188" lon="0.95566">
        <ele>187.0211826</ele>
        <time>2022-08-18T08:28:28Z</time>
      </trkpt>
      <trkpt lat="45.17191" lon="0.95562">
        <ele>187.5565521</ele>
        <time>2022-08-18T08:28:30Z</time>
      </trkpt>
      <trkpt lat="45.17194" lon="0.95558">
        <ele>187.7154971</ele>
        <time>2022-08-18T08:28:32Z</time>
      </trkpt>
      <trkpt lat="45.17197" lon="0.95554">
        <ele>187.9048075</ele>
        <time>2022-08-18T08:28:34Z</time>
      </trkpt>
      <trkpt lat="45.17201" lon="0.95551">
        <ele>188.0162147</ele>
        <time>2022-08-18T08:28:36Z</time>
      </trkpt>
      <trkpt lat="45.17204" lon="0.95547">
        <ele>188.3200941</ele>
        <time>2022-08-18T08:28:38Z</time>
      </trkpt>
      <trkpt lat="45.17208" lon="0.95544">
        <ele>188.4157658</ele>
        <time>2022-08-18T08:28:40Z</time>
      </trkpt>
      <trkpt lat="45.17211" lon="0.95541">
        <ele>187.9855985</ele>
        <time>2022-08-18T08:28:42Z</time>
      </trkpt>
      <trkpt lat="45.17215" lon="0.95539">
        <ele>188.213578</ele>
        <time>2022-08-18T08:28:44Z</time>
      </trkpt>
      <trkpt lat="45.17218" lon="0.95537">
        <ele>188.6008534</ele>
        <time>2022-08-18T08:28:46Z</time>
      </trkpt>
      <trkpt lat="45.17221" lon="0.95534">
        <ele>189.0844348</ele>
        <time>2022-08-18T08:28:48Z</time>
      </trkpt>
      <trkpt lat="45.17224" lon="0.95531">
        <ele>189.7144104</ele>
        <time>2022-08-18T08:28:50Z</time>
      </trkpt>
      <trkpt lat="45.17227" lon="0.9553">
        <ele>190.0098726</ele>
        <time>2022-08-18T08:28:52Z</time>
      </trkpt>
      <trkpt lat="45.1723" lon="0.95527">
        <ele>190.7209809</ele>
        <time>2022-08-18T08:28:54Z</time>
      </trkpt>
      <trkpt lat="45.17234" lon="0.95526">
        <ele>190.5393047</ele>
        <time>2022-08-18T08:28:56Z</time>
      </trkpt>
      <trkpt lat="45.17237" lon="0.95525">
        <ele>190.6190392</ele>
        <time>2022-08-18T08:28:58Z</time>
      </trkpt>
      <trkpt lat="45.1724" lon="0.95523">
        <ele>190.8096861</ele>
        <time>2022-08-18T08:29:00Z</time>
      </trkpt>
      <trkpt lat="45.17244" lon="0.95522">
        <ele>190.2800622</ele>
        <time>2022-08-18T08:29:02Z</time>
      </trkpt>
      <trkpt lat="45.17247" lon="0.9552">
        <ele>190.998972</ele>
        <time>2022-08-18T08:29:04Z</time>
      </trkpt>
      <trkpt lat="45.1725" lon="0.9552">
        <ele>190.6464116</ele>
        <time>2022-08-18T08:29:06Z</time>
      </trkpt>
      <trkpt lat="45.17253" lon="0.95519">
        <ele>190.3439742</ele>
        <time>2022-08-18T08:29:08Z</time>
      </trkpt>
      <trkpt lat="45.17255" lon="0.95518">
        <ele>190.2480177</ele>
        <time>2022-08-18T08:29:10Z</time>
      </trkpt>
      <trkpt lat="45.17259" lon="0.95516">
        <ele>190.0109886</ele>
        <time>2022-08-18T08:29:12Z</time>
      </trkpt>
      <trkpt lat="45.17261" lon="0.95516">
        <ele>189.8028558</ele>
        <time>2022-08-18T08:29:14Z</time>
      </trkpt>
      <trkpt lat="45.17264" lon="0.95515">
        <ele>190.0696603</ele>
        <time>2022-08-18T08:29:16Z</time>
      </trkpt>
      <trkpt lat="45.17266" lon="0.95513">
        <ele>190.3725708</ele>
        <time>2022-08-18T08:29:18Z</time>
      </trkpt>
      <trkpt lat="45.17268" lon="0.95512">
        <ele>190.6574108</ele>
        <time>2022-08-18T08:29:20Z</time>
      </trkpt>
      <trkpt lat="45.17271" lon="0.95511">
        <ele>190.8520915</ele>
        <time>2022-08-18T08:29:22Z</time>
      </trkpt>
      <trkpt lat="45.17274" lon="0.95509">
        <ele>191.8026539</ele>
        <time>2022-08-18T08:29:24Z</time>
      </trkpt>
      <trkpt lat="45.17277" lon="0.95508">
        <ele>192.0915917</ele>
        <time>2022-08-18T08:29:26Z</time>
      </trkpt>
      <trkpt lat="45.1728" lon="0.95506">
        <ele>191.9105678</ele>
        <time>2022-08-18T08:29:28Z</time>
      </trkpt>
      <trkpt lat="45.17282" lon="0.95505">
        <ele>192.1863343</ele>
        <time>2022-08-18T08:29:30Z</time>
      </trkpt>
      <trkpt lat="45.17284" lon="0.95503">
        <ele>192.2287358</ele>
        <time>2022-08-18T08:29:32Z</time>
      </trkpt>
      <trkpt lat="45.17287" lon="0.95501">
        <ele>192.4203955</ele>
        <time>2022-08-18T08:29:34Z</time>
      </trkpt>
      <trkpt lat="45.17289" lon="0.95499">
        <ele>193.1648044</ele>
        <time>2022-08-18T08:29:36Z</time>
      </trkpt>
      <trkpt lat="45.17291" lon="0.95498">
        <ele>193.5602154</ele>
        <time>2022-08-18T08:29:38Z</time>
      </trkpt>
      <trkpt lat="45.17294" lon="0.95496">
        <ele>193.5884441</ele>
        <time>2022-08-18T08:29:40Z</time>
      </trkpt>
      <trkpt lat="45.17296" lon="0.95494">
        <ele>193.9056485</ele>
        <time>2022-08-18T08:29:42Z</time>
      </trkpt>
      <trkpt lat="45.17298" lon="0.95492">
        <ele>194.4188125</ele>
        <time>2022-08-18T08:29:44Z</time>
      </trkpt>
      <trkpt lat="45.17301" lon="0.9549">
        <ele>194.9879785</ele>
        <time>2022-08-18T08:29:46Z</time>
      </trkpt>
      <trkpt lat="45.17302" lon="0.95487">
        <ele>195.5473852</ele>
        <time>2022-08-18T08:29:48Z</time>
      </trkpt>
      <trkpt lat="45.17304" lon="0.95485">
        <ele>195.8276091</ele>
        <time>2022-08-18T08:29:50Z</time>
      </trkpt>
      <trkpt lat="45.17307" lon="0.95482">
        <ele>195.8648509</ele>
        <time>2022-08-18T08:29:52Z</time>
      </trkpt>
      <trkpt lat="45.17309" lon="0.9548">
        <ele>196.5200058</ele>
        <time>2022-08-18T08:29:54Z</time>
      </trkpt>
      <trkpt lat="45.17312" lon="0.95478">
        <ele>196.9911797</ele>
        <time>2022-08-18T08:29:56Z</time>
      </trkpt>
      <trkpt lat="45.17314" lon="0.95477">
        <ele>196.6983913</ele>
        <time>2022-08-18T08:29:58Z</time>
      </trkpt>
      <trkpt lat="45.17316" lon="0.95474">
        <ele>196.8380813</ele>
        <time>2022-08-18T08:30:00Z</time>
      </trkpt>
      <trkpt lat="45.17318" lon="0.95472">
        <ele>197.3221536</ele>
        <time>2022-08-18T08:30:02Z</time>
      </trkpt>
      <trkpt lat="45.1732" lon="0.9547">
        <ele>197.4149608</ele>
        <time>2022-08-18T08:30:04Z</time>
      </trkpt>
      <trkpt lat="45.17322" lon="0.95468">
        <ele>197.5936729</ele>
        <time>2022-08-18T08:30:06Z</time>
      </trkpt>
      <trkpt lat="45.17324" lon="0.95465">
        <ele>197.5058685</ele>
        <time>2022-08-18T08:30:08Z</time>
      </trkpt>
      <trkpt lat="45.17327" lon="0.95463">
        <ele>197.4364349</ele>
        <time>2022-08-18T08:30:10Z</time>
      </trkpt>
      <trkpt lat="45.17329" lon="0.9546">
        <ele>197.1447846</ele>
        <time>2022-08-18T08:30:12Z</time>
      </trkpt>
      <trkpt lat="45.1733" lon="0.95458">
        <ele>197.731811</ele>
        <time>2022-08-18T08:30:14Z</time>
      </trkpt>
      <trkpt lat="45.17333" lon="0.95456">
        <ele>197.8713678</ele>
        <time>2022-08-18T08:30:16Z</time>
      </trkpt>
      <trkpt lat="45.17335" lon="0.95453">
        <ele>197.4753933</ele>
        <time>2022-08-18T08:30:18Z</time>
      </trkpt>
      <trkpt lat="45.17337" lon="0.9545">
        <ele>197.2150955</ele>
        <time>2022-08-18T08:30:20Z</time>
      </trkpt>
      <trkpt lat="45.1734" lon="0.95447">
        <ele>197.975124</ele>
        <time>2022-08-18T08:30:22Z</time>
      </trkpt>
      <trkpt lat="45.17342" lon="0.95444">
        <ele>198.3006169</ele>
        <time>2022-08-18T08:30:24Z</time>
      </trkpt>
      <trkpt lat="45.17345" lon="0.95442">
        <ele>199.1694342</ele>
        <time>2022-08-18T08:30:26Z</time>
      </trkpt>
      <trkpt lat="45.17348" lon="0.9544">
        <ele>199.005846</ele>
        <time>2022-08-18T08:30:28Z</time>
      </trkpt>
      <trkpt lat="45.17351" lon="0.95438">
        <ele>199.3552497</ele>
        <time>2022-08-18T08:30:30Z</time>
      </trkpt>
      <trkpt lat="45.17354" lon="0.95434">
        <ele>200.1654479</ele>
        <time>2022-08-18T08:30:32Z</time>
      </trkpt>
      <trkpt lat="45.17358" lon="0.95429">
        <ele>201.0781508</ele>
        <time>2022-08-18T08:30:34Z</time>
      </trkpt>
      <trkpt lat="45.17362" lon="0.95426">
        <ele>201.3450443</ele>
        <time>2022-08-18T08:30:36Z</time>
      </trkpt>
      <trkpt lat="45.17366" lon="0.95422">
        <ele>201.0371922</ele>
        <time>2022-08-18T08:30:38Z</time>
      </trkpt>
      <trkpt lat="45.1737" lon="0.95416">
        <ele>201.6841073</ele>
        <time>2022-08-18T08:30:40Z</time>
      </trkpt>
      <trkpt lat="45.17374" lon="0.9541">
        <ele>201.7383745</ele>
        <time>2022-08-18T08:30:42Z</time>
      </trkpt>
      <trkpt lat="45.1738" lon="0.95404">
        <ele>202.3105778</ele>
        <time>2022-08-18T08:30:44Z</time>
      </trkpt>
      <trkpt lat="45.17383" lon="0.95397">
        <ele>201.9925316</ele>
        <time>2022-08-18T08:30:46Z</time>
      </trkpt>
      <trkpt lat="45.17387" lon="0.95389">
        <ele>202.3254174</ele>
        <time>2022-08-18T08:30:48Z</time>
      </trkpt>
      <trkpt lat="45.1739" lon="0.95381">
        <ele>202.2266964</ele>
        <time>2022-08-18T08:30:50Z</time>
      </trkpt>
      <trkpt lat="45.17394" lon="0.95375">
        <ele>201.4829551</ele>
        <time>2022-08-18T08:30:52Z</time>
      </trkpt>
      <trkpt lat="45.17397" lon="0.95364">
        <ele>201.809729</ele>
        <time>2022-08-18T08:30:54Z</time>
      </trkpt>
      <trkpt lat="45.17401" lon="0.95354">
        <ele>202.2027629</ele>
        <time>2022-08-18T08:30:56Z</time>
      </trkpt>
      <trkpt lat="45.17405" lon="0.95346">
        <ele>202.2656792</ele>
        <time>2022-08-18T08:30:58Z</time>
      </trkpt>
      <trkpt lat="45.17408" lon="0.95337">
        <ele>201.9329495</ele>
        <time>2022-08-18T08:31:00Z</time>
      </trkpt>
      <trkpt lat="45.17411" lon="0.95329">
        <ele>202.2277287</ele>
        <time>2022-08-18T08:31:02Z</time>
      </trkpt>
      <trkpt lat="45.17414" lon="0.95321">
        <ele>201.8695095</ele>
        <time>2022-08-18T08:31:04Z</time>
      </trkpt>
      <trkpt lat="45.17416" lon="0.95312">
        <ele>202.0315993</ele>
        <time>2022-08-18T08:31:06Z</time>
      </trkpt>
      <trkpt lat="45.1742" lon="0.95303">
        <ele>201.5571547</ele>
        <time>2022-08-18T08:31:08Z</time>
      </trkpt>
      <trkpt lat="45.17424" lon="0.95295">
        <ele>202.0842219</ele>
        <time>2022-08-18T08:31:10Z</time>
      </trkpt>
      <trkpt lat="45.17427" lon="0.95286">
        <ele>201.2872916</ele>
        <time>2022-08-18T08:31:12Z</time>
      </trkpt>
      <trkpt lat="45.17431" lon="0.95278">
        <ele>200.8496213</ele>
        <time>2022-08-18T08:31:14Z</time>
      </trkpt>
      <trkpt lat="45.17434" lon="0.95269">
        <ele>201.0246084</ele>
        <time>2022-08-18T08:31:16Z</time>
      </trkpt>
      <trkpt lat="45.17438" lon="0.9526">
        <ele>201.3726545</ele>
        <time>2022-08-18T08:31:18Z</time>
      </trkpt>
      <trkpt lat="45.17442" lon="0.95252">
        <ele>201.6631288</ele>
        <time>2022-08-18T08:31:20Z</time>
      </trkpt>
      <trkpt lat="45.17445" lon="0.95245">
        <ele>201.512049</ele>
        <time>2022-08-18T08:31:22Z</time>
      </trkpt>
      <trkpt lat="45.17448" lon="0.95237">
        <ele>201.2827308</ele>
        <time>2022-08-18T08:31:24Z</time>
      </trkpt>
      <trkpt lat="45.17451" lon="0.95231">
        <ele>201.8723607</ele>
        <time>2022-08-18T08:31:26Z</time>
      </trkpt>
      <trkpt lat="45.17454" lon="0.95224">
        <ele>202.2918813</ele>
        <time>2022-08-18T08:31:28Z</time>
      </trkpt>
      <trkpt lat="45.17457" lon="0.95216">
        <ele>202.0432396</ele>
        <time>2022-08-18T08:31:31Z</time>
      </trkpt>
      <trkpt lat="45.1746" lon="0.9521">
        <ele>201.9627394</ele>
        <time>2022-08-18T08:31:33Z</time>
      </trkpt>
      <trkpt lat="45.17462" lon="0.95205">
        <ele>202.3101426</ele>
        <time>2022-08-18T08:31:35Z</time>
      </trkpt>
      <trkpt lat="45.17464" lon="0.95199">
        <ele>202.0379306</ele>
        <time>2022-08-18T08:31:37Z</time>
      </trkpt>
      <trkpt lat="45.17466" lon="0.95194">
        <ele>202.3815147</ele>
        <time>2022-08-18T08:31:39Z</time>
      </trkpt>
      <trkpt lat="45.17469" lon="0.95188">
        <ele>202.7046458</ele>
        <time>2022-08-18T08:31:41Z</time>
      </trkpt>
      <trkpt lat="45.17471" lon="0.95182">
        <ele>203.3141634</ele>
        <time>2022-08-18T08:31:43Z</time>
      </trkpt>
      <trkpt lat="45.17473" lon="0.95177">
        <ele>203.5527547</ele>
        <time>2022-08-18T08:31:45Z</time>
      </trkpt>
      <trkpt lat="45.17475" lon="0.95171">
        <ele>203.8478304</ele>
        <time>2022-08-18T08:31:47Z</time>
      </trkpt>
      <trkpt lat="45.17479" lon="0.95166">
        <ele>203.8475467</ele>
        <time>2022-08-18T08:31:49Z</time>
      </trkpt>
      <trkpt lat="45.17481" lon="0.95159">
        <ele>204.295351</ele>
        <time>2022-08-18T08:31:51Z</time>
      </trkpt>
      <trkpt lat="45.17484" lon="0.95155">
        <ele>204.5760894</ele>
        <time>2022-08-18T08:31:53Z</time>
      </trkpt>
      <trkpt lat="45.17486" lon="0.95148">
        <ele>204.6105164</ele>
        <time>2022-08-18T08:31:55Z</time>
      </trkpt>
      <trkpt lat="45.17488" lon="0.95142">
        <ele>203.7825059</ele>
        <time>2022-08-18T08:31:57Z</time>
      </trkpt>
      <trkpt lat="45.1749" lon="0.95138">
        <ele>203.9338415</ele>
        <time>2022-08-18T08:31:59Z</time>
      </trkpt>
      <trkpt lat="45.17493" lon="0.95133">
        <ele>203.9566577</ele>
        <time>2022-08-18T08:32:01Z</time>
      </trkpt>
      <trkpt lat="45.17495" lon="0.9513">
        <ele>203.0297918</ele>
        <time>2022-08-18T08:32:03Z</time>
      </trkpt>
      <trkpt lat="45.17497" lon="0.95127">
        <ele>203.008607</ele>
        <time>2022-08-18T08:32:05Z</time>
      </trkpt>
      <trkpt lat="45.17497" lon="0.95128">
        <ele>203.2939935</ele>
        <time>2022-08-18T08:32:07Z</time>
      </trkpt>
      <trkpt lat="45.17497" lon="0.95128">
        <ele>203.8449353</ele>
        <time>2022-08-18T08:32:09Z</time>
      </trkpt>
      <trkpt lat="45.17497" lon="0.95128">
        <ele>203.7950686</ele>
        <time>2022-08-18T08:32:11Z</time>
      </trkpt>
      <trkpt lat="45.17497" lon="0.95128">
        <ele>203.6348878</ele>
        <time>2022-08-18T08:32:13Z</time>
      </trkpt>
      <trkpt lat="45.17498" lon="0.95128">
        <ele>203.4780011</ele>
        <time>2022-08-18T08:32:15Z</time>
      </trkpt>
      <trkpt lat="45.17498" lon="0.95128">
        <ele>203.4780011</ele>
        <time>2022-08-18T08:32:19Z</time>
      </trkpt>
      <trkpt lat="45.17498" lon="0.95129">
        <ele>204.8675489</ele>
        <time>2022-08-18T08:32:23Z</time>
      </trkpt>
      <trkpt lat="45.17501" lon="0.95124">
        <ele>204.8308429</ele>
        <time>2022-08-18T08:32:25Z</time>
      </trkpt>
      <trkpt lat="45.17504" lon="0.95116">
        <ele>204.8633295</ele>
        <time>2022-08-18T08:32:27Z</time>
      </trkpt>
      <trkpt lat="45.17507" lon="0.95107">
        <ele>204.6268936</ele>
        <time>2022-08-18T08:32:29Z</time>
      </trkpt>
      <trkpt lat="45.17511" lon="0.95097">
        <ele>203.6834311</ele>
        <time>2022-08-18T08:32:31Z</time>
      </trkpt>
      <trkpt lat="45.17517" lon="0.95087">
        <ele>202.7271462</ele>
        <time>2022-08-18T08:32:33Z</time>
      </trkpt>
      <trkpt lat="45.17523" lon="0.95077">
        <ele>202.9026758</ele>
        <time>2022-08-18T08:32:35Z</time>
      </trkpt>
      <trkpt lat="45.1753" lon="0.95066">
        <ele>202.8496156</ele>
        <time>2022-08-18T08:32:37Z</time>
      </trkpt>
      <trkpt lat="45.17537" lon="0.95055">
        <ele>202.8753518</ele>
        <time>2022-08-18T08:32:39Z</time>
      </trkpt>
      <trkpt lat="45.17544" lon="0.95043">
        <ele>201.9246638</ele>
        <time>2022-08-18T08:32:41Z</time>
      </trkpt>
      <trkpt lat="45.17551" lon="0.95031">
        <ele>201.952602</ele>
        <time>2022-08-18T08:32:43Z</time>
      </trkpt>
      <trkpt lat="45.1756" lon="0.95018">
        <ele>201.2117984</ele>
        <time>2022-08-18T08:32:45Z</time>
      </trkpt>
      <trkpt lat="45.17568" lon="0.95003">
        <ele>200.6007632</ele>
        <time>2022-08-18T08:32:47Z</time>
      </trkpt>
      <trkpt lat="45.17577" lon="0.94986">
        <ele>199.456781</ele>
        <time>2022-08-18T08:32:49Z</time>
      </trkpt>
      <trkpt lat="45.17585" lon="0.94967">
        <ele>197.8888057</ele>
        <time>2022-08-18T08:32:51Z</time>
      </trkpt>
      <trkpt lat="45.17593" lon="0.94946">
        <ele>196.2019915</ele>
        <time>2022-08-18T08:32:53Z</time>
      </trkpt>
      <trkpt lat="45.17602" lon="0.94931">
        <ele>195.564732</ele>
        <time>2022-08-18T08:32:55Z</time>
      </trkpt>
      <trkpt lat="45.17612" lon="0.94923">
        <ele>195.5314357</ele>
        <time>2022-08-18T08:32:57Z</time>
      </trkpt>
      <trkpt lat="45.17621" lon="0.94915">
        <ele>194.4823671</ele>
        <time>2022-08-18T08:32:59Z</time>
      </trkpt>
      <trkpt lat="45.17632" lon="0.94909">
        <ele>193.9366289</ele>
        <time>2022-08-18T08:33:01Z</time>
      </trkpt>
      <trkpt lat="45.17641" lon="0.94897">
        <ele>192.9846345</ele>
        <time>2022-08-18T08:33:03Z</time>
      </trkpt>
      <trkpt lat="45.1765" lon="0.94887">
        <ele>191.8189727</ele>
        <time>2022-08-18T08:33:05Z</time>
      </trkpt>
      <trkpt lat="45.17657" lon="0.94879">
        <ele>190.4874491</ele>
        <time>2022-08-18T08:33:07Z</time>
      </trkpt>
      <trkpt lat="45.17665" lon="0.94873">
        <ele>189.6629572</ele>
        <time>2022-08-18T08:33:09Z</time>
      </trkpt>
      <trkpt lat="45.17673" lon="0.94865">
        <ele>187.2559422</ele>
        <time>2022-08-18T08:33:11Z</time>
      </trkpt>
      <trkpt lat="45.17675" lon="0.94847">
        <ele>188.4177246</ele>
        <time>2022-08-18T08:33:13Z</time>
      </trkpt>
      <trkpt lat="45.17685" lon="0.94842">
        <ele>186.8899609</ele>
        <time>2022-08-18T08:33:15Z</time>
      </trkpt>
      <trkpt lat="45.17694" lon="0.94833">
        <ele>187.3845746</ele>
        <time>2022-08-18T08:33:17Z</time>
      </trkpt>
      <trkpt lat="45.17702" lon="0.94819">
        <ele>185.4361659</ele>
        <time>2022-08-18T08:33:19Z</time>
      </trkpt>
      <trkpt lat="45.1771" lon="0.948">
        <ele>183.2570543</ele>
        <time>2022-08-18T08:33:21Z</time>
      </trkpt>
      <trkpt lat="45.17716" lon="0.94783">
        <ele>181.7270846</ele>
        <time>2022-08-18T08:33:23Z</time>
      </trkpt>
      <trkpt lat="45.1772" lon="0.94762">
        <ele>181.4573419</ele>
        <time>2022-08-18T08:33:25Z</time>
      </trkpt>
      <trkpt lat="45.17726" lon="0.94743">
        <ele>181.0813628</ele>
        <time>2022-08-18T08:33:27Z</time>
      </trkpt>
      <trkpt lat="45.1773" lon="0.94724">
        <ele>179.5852271</ele>
        <time>2022-08-18T08:33:29Z</time>
      </trkpt>
      <trkpt lat="45.17733" lon="0.94704">
        <ele>179.6552467</ele>
        <time>2022-08-18T08:33:31Z</time>
      </trkpt>
      <trkpt lat="45.17737" lon="0.94682">
        <ele>179.6897928</ele>
        <time>2022-08-18T08:33:33Z</time>
      </trkpt>
      <trkpt lat="45.17741" lon="0.94662">
        <ele>179.7023646</ele>
        <time>2022-08-18T08:33:35Z</time>
      </trkpt>
      <trkpt lat="45.17743" lon="0.94645">
        <ele>179.2155045</ele>
        <time>2022-08-18T08:33:37Z</time>
      </trkpt>
      <trkpt lat="45.17746" lon="0.94627">
        <ele>180.0009187</ele>
        <time>2022-08-18T08:33:39Z</time>
      </trkpt>
      <trkpt lat="45.17749" lon="0.94611">
        <ele>180.4320071</ele>
        <time>2022-08-18T08:33:41Z</time>
      </trkpt>
      <trkpt lat="45.17751" lon="0.94598">
        <ele>180.8863332</ele>
        <time>2022-08-18T08:33:43Z</time>
      </trkpt>
      <trkpt lat="45.17752" lon="0.9459">
        <ele>181.0616025</ele>
        <time>2022-08-18T08:33:45Z</time>
      </trkpt>
      <trkpt lat="45.17753" lon="0.94583">
        <ele>181.6173041</ele>
        <time>2022-08-18T08:33:47Z</time>
      </trkpt>
      <trkpt lat="45.17754" lon="0.94577">
        <ele>182.0723597</ele>
        <time>2022-08-18T08:33:49Z</time>
      </trkpt>
      <trkpt lat="45.17754" lon="0.94573">
        <ele>181.864913</ele>
        <time>2022-08-18T08:33:51Z</time>
      </trkpt>
      <trkpt lat="45.17756" lon="0.9457">
        <ele>182.4771302</ele>
        <time>2022-08-18T08:33:53Z</time>
      </trkpt>
      <trkpt lat="45.17756" lon="0.94565">
        <ele>182.5090839</ele>
        <time>2022-08-18T08:33:55Z</time>
      </trkpt>
      <trkpt lat="45.17757" lon="0.94561">
        <ele>183.1542627</ele>
        <time>2022-08-18T08:33:57Z</time>
      </trkpt>
      <trkpt lat="45.17757" lon="0.94557">
        <ele>183.5346521</ele>
        <time>2022-08-18T08:33:59Z</time>
      </trkpt>
      <trkpt lat="45.17758" lon="0.94553">
        <ele>184.4309184</ele>
        <time>2022-08-18T08:34:01Z</time>
      </trkpt>
      <trkpt lat="45.17759" lon="0.9455">
        <ele>184.3491017</ele>
        <time>2022-08-18T08:34:03Z</time>
      </trkpt>
      <trkpt lat="45.17759" lon="0.94546">
        <ele>184.4830189</ele>
        <time>2022-08-18T08:34:05Z</time>
      </trkpt>
      <trkpt lat="45.1776" lon="0.94544">
        <ele>184.5877266</ele>
        <time>2022-08-18T08:34:06Z</time>
      </trkpt>
      <trkpt lat="45.1776" lon="0.94539">
        <ele>184.4505285</ele>
        <time>2022-08-18T08:34:08Z</time>
      </trkpt>
      <trkpt lat="45.1776" lon="0.94535">
        <ele>184.9167524</ele>
        <time>2022-08-18T08:34:10Z</time>
      </trkpt>
      <trkpt lat="45.17761" lon="0.94531">
        <ele>184.9210607</ele>
        <time>2022-08-18T08:34:12Z</time>
      </trkpt>
      <trkpt lat="45.17762" lon="0.94527">
        <ele>185.3738859</ele>
        <time>2022-08-18T08:34:14Z</time>
      </trkpt>
      <trkpt lat="45.17762" lon="0.94523">
        <ele>185.8186565</ele>
        <time>2022-08-18T08:34:16Z</time>
      </trkpt>
      <trkpt lat="45.17763" lon="0.94518">
        <ele>186.6011791</ele>
        <time>2022-08-18T08:34:18Z</time>
      </trkpt>
      <trkpt lat="45.17763" lon="0.94514">
        <ele>186.4386412</ele>
        <time>2022-08-18T08:34:20Z</time>
      </trkpt>
      <trkpt lat="45.17764" lon="0.9451">
        <ele>187.1786841</ele>
        <time>2022-08-18T08:34:22Z</time>
      </trkpt>
      <trkpt lat="45.17764" lon="0.94506">
        <ele>187.5118763</ele>
        <time>2022-08-18T08:34:24Z</time>
      </trkpt>
      <trkpt lat="45.17765" lon="0.94502">
        <ele>187.6827317</ele>
        <time>2022-08-18T08:34:26Z</time>
      </trkpt>
      <trkpt lat="45.17765" lon="0.94498">
        <ele>188.0283709</ele>
        <time>2022-08-18T08:34:28Z</time>
      </trkpt>
      <trkpt lat="45.17766" lon="0.94494">
        <ele>188.6876157</ele>
        <time>2022-08-18T08:34:30Z</time>
      </trkpt>
      <trkpt lat="45.17767" lon="0.9449">
        <ele>189.299099</ele>
        <time>2022-08-18T08:34:32Z</time>
      </trkpt>
      <trkpt lat="45.17767" lon="0.94487">
        <ele>189.5311858</ele>
        <time>2022-08-18T08:34:34Z</time>
      </trkpt>
      <trkpt lat="45.17768" lon="0.94483">
        <ele>190.3999187</ele>
        <time>2022-08-18T08:34:36Z</time>
      </trkpt>
      <trkpt lat="45.17768" lon="0.94479">
        <ele>190.7307156</ele>
        <time>2022-08-18T08:34:38Z</time>
      </trkpt>
      <trkpt lat="45.17769" lon="0.94475">
        <ele>190.722429</ele>
        <time>2022-08-18T08:34:40Z</time>
      </trkpt>
      <trkpt lat="45.17769" lon="0.9447">
        <ele>191.8145165</ele>
        <time>2022-08-18T08:34:42Z</time>
      </trkpt>
      <trkpt lat="45.1777" lon="0.94466">
        <ele>191.8438619</ele>
        <time>2022-08-18T08:34:44Z</time>
      </trkpt>
      <trkpt lat="45.17771" lon="0.94462">
        <ele>191.7556714</ele>
        <time>2022-08-18T08:34:46Z</time>
      </trkpt>
      <trkpt lat="45.17771" lon="0.94457">
        <ele>192.0837219</ele>
        <time>2022-08-18T08:34:48Z</time>
      </trkpt>
      <trkpt lat="45.17771" lon="0.94453">
        <ele>192.2921353</ele>
        <time>2022-08-18T08:34:50Z</time>
      </trkpt>
      <trkpt lat="45.17772" lon="0.94449">
        <ele>191.9170495</ele>
        <time>2022-08-18T08:34:52Z</time>
      </trkpt>
      <trkpt lat="45.17773" lon="0.94445">
        <ele>191.7658221</ele>
        <time>2022-08-18T08:34:54Z</time>
      </trkpt>
      <trkpt lat="45.17773" lon="0.94441">
        <ele>192.0295841</ele>
        <time>2022-08-18T08:34:56Z</time>
      </trkpt>
      <trkpt lat="45.17773" lon="0.94437">
        <ele>192.570409</ele>
        <time>2022-08-18T08:34:58Z</time>
      </trkpt>
      <trkpt lat="45.17774" lon="0.94433">
        <ele>192.1930446</ele>
        <time>2022-08-18T08:35:00Z</time>
      </trkpt>
      <trkpt lat="45.17774" lon="0.94429">
        <ele>192.2149515</ele>
        <time>2022-08-18T08:35:02Z</time>
      </trkpt>
      <trkpt lat="45.17776" lon="0.94425">
        <ele>192.0793169</ele>
        <time>2022-08-18T08:35:04Z</time>
      </trkpt>
      <trkpt lat="45.17776" lon="0.94421">
        <ele>191.8113026</ele>
        <time>2022-08-18T08:35:06Z</time>
      </trkpt>
      <trkpt lat="45.17776" lon="0.94417">
        <ele>191.7899178</ele>
        <time>2022-08-18T08:35:08Z</time>
      </trkpt>
      <trkpt lat="45.17777" lon="0.94412">
        <ele>191.3632666</ele>
        <time>2022-08-18T08:35:10Z</time>
      </trkpt>
      <trkpt lat="45.17778" lon="0.94408">
        <ele>191.6062083</ele>
        <time>2022-08-18T08:35:12Z</time>
      </trkpt>
      <trkpt lat="45.17778" lon="0.94404">
        <ele>191.8159135</ele>
        <time>2022-08-18T08:35:14Z</time>
      </trkpt>
      <trkpt lat="45.17778" lon="0.944">
        <ele>192.2174579</ele>
        <time>2022-08-18T08:35:16Z</time>
      </trkpt>
      <trkpt lat="45.17779" lon="0.94395">
        <ele>192.5354767</ele>
        <time>2022-08-18T08:35:18Z</time>
      </trkpt>
      <trkpt lat="45.1778" lon="0.94391">
        <ele>192.5337155</ele>
        <time>2022-08-18T08:35:20Z</time>
      </trkpt>
      <trkpt lat="45.1778" lon="0.94388">
        <ele>193.0555204</ele>
        <time>2022-08-18T08:35:22Z</time>
      </trkpt>
      <trkpt lat="45.17779" lon="0.94384">
        <ele>193.08643</ele>
        <time>2022-08-18T08:35:24Z</time>
      </trkpt>
      <trkpt lat="45.17779" lon="0.94381">
        <ele>194.4939246</ele>
        <time>2022-08-18T08:35:26Z</time>
      </trkpt>
      <trkpt lat="45.17779" lon="0.94377">
        <ele>194.4131894</ele>
        <time>2022-08-18T08:35:28Z</time>
      </trkpt>
      <trkpt lat="45.17779" lon="0.94373">
        <ele>195.4706109</ele>
        <time>2022-08-18T08:35:30Z</time>
      </trkpt>
      <trkpt lat="45.17779" lon="0.94369">
        <ele>195.5317543</ele>
        <time>2022-08-18T08:35:32Z</time>
      </trkpt>
      <trkpt lat="45.17778" lon="0.94365">
        <ele>195.4382205</ele>
        <time>2022-08-18T08:35:34Z</time>
      </trkpt>
      <trkpt lat="45.17777" lon="0.94362">
        <ele>194.2620469</ele>
        <time>2022-08-18T08:35:36Z</time>
      </trkpt>
      <trkpt lat="45.17777" lon="0.94358">
        <ele>194.0339552</ele>
        <time>2022-08-18T08:35:38Z</time>
      </trkpt>
      <trkpt lat="45.17775" lon="0.94355">
        <ele>193.7191587</ele>
        <time>2022-08-18T08:35:40Z</time>
      </trkpt>
      <trkpt lat="45.17774" lon="0.9435">
        <ele>194.0039332</ele>
        <time>2022-08-18T08:35:43Z</time>
      </trkpt>
      <trkpt lat="45.17772" lon="0.94347">
        <ele>194.6130617</ele>
        <time>2022-08-18T08:35:45Z</time>
      </trkpt>
      <trkpt lat="45.17771" lon="0.94344">
        <ele>195.9669456</ele>
        <time>2022-08-18T08:35:47Z</time>
      </trkpt>
      <trkpt lat="45.17769" lon="0.94341">
        <ele>197.2661613</ele>
        <time>2022-08-18T08:35:49Z</time>
      </trkpt>
      <trkpt lat="45.17766" lon="0.9434">
        <ele>197.9908264</ele>
        <time>2022-08-18T08:35:51Z</time>
      </trkpt>
      <trkpt lat="45.17764" lon="0.94337">
        <ele>198.9937866</ele>
        <time>2022-08-18T08:35:53Z</time>
      </trkpt>
      <trkpt lat="45.17762" lon="0.94334">
        <ele>199.7793605</ele>
        <time>2022-08-18T08:35:55Z</time>
      </trkpt>
      <trkpt lat="45.1776" lon="0.94332">
        <ele>200.6076768</ele>
        <time>2022-08-18T08:35:57Z</time>
      </trkpt>
      <trkpt lat="45.17757" lon="0.9433">
        <ele>200.5848768</ele>
        <time>2022-08-18T08:35:59Z</time>
      </trkpt>
      <trkpt lat="45.17755" lon="0.94329">
        <ele>201.6500247</ele>
        <time>2022-08-18T08:36:01Z</time>
      </trkpt>
      <trkpt lat="45.17754" lon="0.94326">
        <ele>201.6358676</ele>
        <time>2022-08-18T08:36:03Z</time>
      </trkpt>
      <trkpt lat="45.17753" lon="0.94323">
        <ele>202.4515266</ele>
        <time>2022-08-18T08:36:05Z</time>
      </trkpt>
      <trkpt lat="45.17751" lon="0.94321">
        <ele>203.1654291</ele>
        <time>2022-08-18T08:36:07Z</time>
      </trkpt>
      <trkpt lat="45.17748" lon="0.94318">
        <ele>203.6891058</ele>
        <time>2022-08-18T08:36:09Z</time>
      </trkpt>
      <trkpt lat="45.17746" lon="0.94316">
        <ele>204.3145274</ele>
        <time>2022-08-18T08:36:11Z</time>
      </trkpt>
      <trkpt lat="45.17744" lon="0.94314">
        <ele>204.567108</ele>
        <time>2022-08-18T08:36:13Z</time>
      </trkpt>
      <trkpt lat="45.17742" lon="0.94311">
        <ele>204.9627942</ele>
        <time>2022-08-18T08:36:15Z</time>
      </trkpt>
      <trkpt lat="45.1774" lon="0.94309">
        <ele>205.002903</ele>
        <time>2022-08-18T08:36:17Z</time>
      </trkpt>
      <trkpt lat="45.17738" lon="0.94306">
        <ele>205.495512</ele>
        <time>2022-08-18T08:36:19Z</time>
      </trkpt>
      <trkpt lat="45.17736" lon="0.94305">
        <ele>205.9695542</ele>
        <time>2022-08-18T08:36:21Z</time>
      </trkpt>
      <trkpt lat="45.17734" lon="0.94302">
        <ele>206.788969</ele>
        <time>2022-08-18T08:36:23Z</time>
      </trkpt>
      <trkpt lat="45.17732" lon="0.943">
        <ele>207.2724727</ele>
        <time>2022-08-18T08:36:25Z</time>
      </trkpt>
      <trkpt lat="45.1773" lon="0.94298">
        <ele>207.1087877</ele>
        <time>2022-08-18T08:36:27Z</time>
      </trkpt>
      <trkpt lat="45.17728" lon="0.94296">
        <ele>207.7455117</ele>
        <time>2022-08-18T08:36:29Z</time>
      </trkpt>
      <trkpt lat="45.17726" lon="0.94293">
        <ele>208.03152</ele>
        <time>2022-08-18T08:36:31Z</time>
      </trkpt>
      <trkpt lat="45.17725" lon="0.94291">
        <ele>208.0420895</ele>
        <time>2022-08-18T08:36:33Z</time>
      </trkpt>
      <trkpt lat="45.17723" lon="0.94288">
        <ele>208.6171175</ele>
        <time>2022-08-18T08:36:35Z</time>
      </trkpt>
      <trkpt lat="45.17722" lon="0.94287">
        <ele>209.2724847</ele>
        <time>2022-08-18T08:36:36Z</time>
      </trkpt>
      <trkpt lat="45.1772" lon="0.94285">
        <ele>209.1725861</ele>
        <time>2022-08-18T08:36:38Z</time>
      </trkpt>
      <trkpt lat="45.17718" lon="0.94283">
        <ele>209.2483609</ele>
        <time>2022-08-18T08:36:40Z</time>
      </trkpt>
      <trkpt lat="45.17716" lon="0.9428">
        <ele>209.3258674</ele>
        <time>2022-08-18T08:36:42Z</time>
      </trkpt>
      <trkpt lat="45.17714" lon="0.94278">
        <ele>210.4252692</ele>
        <time>2022-08-18T08:36:44Z</time>
      </trkpt>
      <trkpt lat="45.17711" lon="0.94275">
        <ele>210.6200347</ele>
        <time>2022-08-18T08:36:46Z</time>
      </trkpt>
      <trkpt lat="45.17709" lon="0.94272">
        <ele>210.9427748</ele>
        <time>2022-08-18T08:36:48Z</time>
      </trkpt>
      <trkpt lat="45.17707" lon="0.94271">
        <ele>210.7572889</ele>
        <time>2022-08-18T08:36:50Z</time>
      </trkpt>
      <trkpt lat="45.17705" lon="0.94268">
        <ele>211.4644238</ele>
        <time>2022-08-18T08:36:52Z</time>
      </trkpt>
      <trkpt lat="45.17703" lon="0.94266">
        <ele>211.5732338</ele>
        <time>2022-08-18T08:36:54Z</time>
      </trkpt>
      <trkpt lat="45.17701" lon="0.94264">
        <ele>211.6335369</ele>
        <time>2022-08-18T08:36:56Z</time>
      </trkpt>
      <trkpt lat="45.177" lon="0.94262">
        <ele>211.3313913</ele>
        <time>2022-08-18T08:36:58Z</time>
      </trkpt>
      <trkpt lat="45.17698" lon="0.9426">
        <ele>212.4649012</ele>
        <time>2022-08-18T08:37:00Z</time>
      </trkpt>
      <trkpt lat="45.17695" lon="0.94257">
        <ele>212.536696</ele>
        <time>2022-08-18T08:37:02Z</time>
      </trkpt>
      <trkpt lat="45.17694" lon="0.94255">
        <ele>212.7232026</ele>
        <time>2022-08-18T08:37:04Z</time>
      </trkpt>
      <trkpt lat="45.17692" lon="0.94253">
        <ele>213.1527653</ele>
        <time>2022-08-18T08:37:06Z</time>
      </trkpt>
      <trkpt lat="45.1769" lon="0.94251">
        <ele>213.5894254</ele>
        <time>2022-08-18T08:37:08Z</time>
      </trkpt>
      <trkpt lat="45.17687" lon="0.94248">
        <ele>214.2101571</ele>
        <time>2022-08-18T08:37:10Z</time>
      </trkpt>
      <trkpt lat="45.17685" lon="0.94246">
        <ele>214.5764307</ele>
        <time>2022-08-18T08:37:12Z</time>
      </trkpt>
      <trkpt lat="45.17683" lon="0.94244">
        <ele>215.1556276</ele>
        <time>2022-08-18T08:37:14Z</time>
      </trkpt>
      <trkpt lat="45.17681" lon="0.94242">
        <ele>214.9410128</ele>
        <time>2022-08-18T08:37:16Z</time>
      </trkpt>
      <trkpt lat="45.17679" lon="0.9424">
        <ele>215.0583698</ele>
        <time>2022-08-18T08:37:18Z</time>
      </trkpt>
      <trkpt lat="45.17677" lon="0.94238">
        <ele>214.9820588</ele>
        <time>2022-08-18T08:37:20Z</time>
      </trkpt>
      <trkpt lat="45.17675" lon="0.94235">
        <ele>214.8926111</ele>
        <time>2022-08-18T08:37:22Z</time>
      </trkpt>
      <trkpt lat="45.17673" lon="0.94232">
        <ele>214.9990145</ele>
        <time>2022-08-18T08:37:24Z</time>
      </trkpt>
      <trkpt lat="45.17671" lon="0.9423">
        <ele>215.5891051</ele>
        <time>2022-08-18T08:37:26Z</time>
      </trkpt>
      <trkpt lat="45.17669" lon="0.94229">
        <ele>215.5706366</ele>
        <time>2022-08-18T08:37:28Z</time>
      </trkpt>
      <trkpt lat="45.17667" lon="0.94227">
        <ele>216.1220148</ele>
        <time>2022-08-18T08:37:30Z</time>
      </trkpt>
      <trkpt lat="45.17665" lon="0.94224">
        <ele>216.417494</ele>
        <time>2022-08-18T08:37:32Z</time>
      </trkpt>
      <trkpt lat="45.17662" lon="0.94222">
        <ele>216.7016336</ele>
        <time>2022-08-18T08:37:34Z</time>
      </trkpt>
      <trkpt lat="45.17659" lon="0.9422">
        <ele>217.2614436</ele>
        <time>2022-08-18T08:37:36Z</time>
      </trkpt>
      <trkpt lat="45.17656" lon="0.94217">
        <ele>217.4490799</ele>
        <time>2022-08-18T08:37:38Z</time>
      </trkpt>
      <trkpt lat="45.17652" lon="0.94215">
        <ele>219.2024107</ele>
        <time>2022-08-18T08:37:40Z</time>
      </trkpt>
      <trkpt lat="45.1765" lon="0.94213">
        <ele>219.7013497</ele>
        <time>2022-08-18T08:37:42Z</time>
      </trkpt>
      <trkpt lat="45.17648" lon="0.94211">
        <ele>219.3546209</ele>
        <time>2022-08-18T08:37:44Z</time>
      </trkpt>
      <trkpt lat="45.17645" lon="0.94208">
        <ele>220.8794772</ele>
        <time>2022-08-18T08:37:46Z</time>
      </trkpt>
      <trkpt lat="45.17644" lon="0.94203">
        <ele>220.2543294</ele>
        <time>2022-08-18T08:37:49Z</time>
      </trkpt>
      <trkpt lat="45.1764" lon="0.94201">
        <ele>220.4954084</ele>
        <time>2022-08-18T08:37:51Z</time>
      </trkpt>
      <trkpt lat="45.17637" lon="0.94198">
        <ele>220.8842266</ele>
        <time>2022-08-18T08:37:53Z</time>
      </trkpt>
      <trkpt lat="45.17637" lon="0.9419">
        <ele>221.3332854</ele>
        <time>2022-08-18T08:37:55Z</time>
      </trkpt>
      <trkpt lat="45.17635" lon="0.94183">
        <ele>221.7987174</ele>
        <time>2022-08-18T08:37:57Z</time>
      </trkpt>
      <trkpt lat="45.17633" lon="0.94177">
        <ele>222.5694103</ele>
        <time>2022-08-18T08:37:59Z</time>
      </trkpt>
      <trkpt lat="45.17629" lon="0.94171">
        <ele>224.2543128</ele>
        <time>2022-08-18T08:38:01Z</time>
      </trkpt>
      <trkpt lat="45.17626" lon="0.94167">
        <ele>224.5281089</ele>
        <time>2022-08-18T08:38:03Z</time>
      </trkpt>
      <trkpt lat="45.17622" lon="0.94166">
        <ele>224.9535612</ele>
        <time>2022-08-18T08:38:05Z</time>
      </trkpt>
      <trkpt lat="45.17618" lon="0.94167">
        <ele>224.2173323</ele>
        <time>2022-08-18T08:38:07Z</time>
      </trkpt>
      <trkpt lat="45.17614" lon="0.94168">
        <ele>223.874013</ele>
        <time>2022-08-18T08:38:09Z</time>
      </trkpt>
      <trkpt lat="45.17611" lon="0.94168">
        <ele>223.1007632</ele>
        <time>2022-08-18T08:38:11Z</time>
      </trkpt>
      <trkpt lat="45.17607" lon="0.94167">
        <ele>222.7658349</ele>
        <time>2022-08-18T08:38:13Z</time>
      </trkpt>
      <trkpt lat="45.17603" lon="0.94168">
        <ele>222.1399135</ele>
        <time>2022-08-18T08:38:15Z</time>
      </trkpt>
      <trkpt lat="45.17598" lon="0.94166">
        <ele>222.3788561</ele>
        <time>2022-08-18T08:38:17Z</time>
      </trkpt>
      <trkpt lat="45.17596" lon="0.94166">
        <ele>222.455254</ele>
        <time>2022-08-18T08:38:18Z</time>
      </trkpt>
      <trkpt lat="45.17591" lon="0.94164">
        <ele>220.9107698</ele>
        <time>2022-08-18T08:38:20Z</time>
      </trkpt>
      <trkpt lat="45.17587" lon="0.94161">
        <ele>220.7036299</ele>
        <time>2022-08-18T08:38:22Z</time>
      </trkpt>
      <trkpt lat="45.17584" lon="0.94158">
        <ele>220.0397691</ele>
        <time>2022-08-18T08:38:24Z</time>
      </trkpt>
      <trkpt lat="45.17581" lon="0.94153">
        <ele>220.2600698</ele>
        <time>2022-08-18T08:38:26Z</time>
      </trkpt>
      <trkpt lat="45.17577" lon="0.9415">
        <ele>219.791382</ele>
        <time>2022-08-18T08:38:28Z</time>
      </trkpt>
      <trkpt lat="45.17573" lon="0.94144">
        <ele>220.0280337</ele>
        <time>2022-08-18T08:38:30Z</time>
      </trkpt>
      <trkpt lat="45.1757" lon="0.94139">
        <ele>220.2480691</ele>
        <time>2022-08-18T08:38:32Z</time>
      </trkpt>
      <trkpt lat="45.17568" lon="0.94132">
        <ele>220.0357089</ele>
        <time>2022-08-18T08:38:34Z</time>
      </trkpt>
      <trkpt lat="45.17565" lon="0.94124">
        <ele>220.3124995</ele>
        <time>2022-08-18T08:38:36Z</time>
      </trkpt>
      <trkpt lat="45.17564" lon="0.94116">
        <ele>220.9281621</ele>
        <time>2022-08-18T08:38:38Z</time>
      </trkpt>
      <trkpt lat="45.17563" lon="0.94108">
        <ele>220.419189</ele>
        <time>2022-08-18T08:38:40Z</time>
      </trkpt>
      <trkpt lat="45.17561" lon="0.94101">
        <ele>220.3964787</ele>
        <time>2022-08-18T08:38:42Z</time>
      </trkpt>
      <trkpt lat="45.17558" lon="0.94093">
        <ele>220.4672208</ele>
        <time>2022-08-18T08:38:44Z</time>
      </trkpt>
      <trkpt lat="45.17555" lon="0.94085">
        <ele>220.2057087</ele>
        <time>2022-08-18T08:38:46Z</time>
      </trkpt>
      <trkpt lat="45.1755" lon="0.94079">
        <ele>219.114085</ele>
        <time>2022-08-18T08:38:48Z</time>
      </trkpt>
      <trkpt lat="45.17544" lon="0.94073">
        <ele>219.075112</ele>
        <time>2022-08-18T08:38:50Z</time>
      </trkpt>
      <trkpt lat="45.17536" lon="0.9407">
        <ele>218.3871408</ele>
        <time>2022-08-18T08:38:52Z</time>
      </trkpt>
      <trkpt lat="45.1753" lon="0.94068">
        <ele>218.3892975</ele>
        <time>2022-08-18T08:38:54Z</time>
      </trkpt>
      <trkpt lat="45.17529" lon="0.94066">
        <ele>218.1943978</ele>
        <time>2022-08-18T08:38:56Z</time>
      </trkpt>
      <trkpt lat="45.17529" lon="0.94066">
        <ele>217.8556287</ele>
        <time>2022-08-18T08:38:58Z</time>
      </trkpt>
      <trkpt lat="45.1753" lon="0.94066">
        <ele>217.9006819</ele>
        <time>2022-08-18T08:39:00Z</time>
      </trkpt>
      <trkpt lat="45.1753" lon="0.94066">
        <ele>217.8854689</ele>
        <time>2022-08-18T08:39:02Z</time>
      </trkpt>
      <trkpt lat="45.1753" lon="0.94066">
        <ele>218.1464387</ele>
        <time>2022-08-18T08:39:04Z</time>
      </trkpt>
      <trkpt lat="45.17529" lon="0.94065">
        <ele>217.7932699</ele>
        <time>2022-08-18T08:39:06Z</time>
      </trkpt>
      <trkpt lat="45.17529" lon="0.94065">
        <ele>217.7466677</ele>
        <time>2022-08-18T08:39:08Z</time>
      </trkpt>
      <trkpt lat="45.17529" lon="0.94065">
        <ele>217.8129616</ele>
        <time>2022-08-18T08:39:10Z</time>
      </trkpt>
      <trkpt lat="45.17529" lon="0.94065">
        <ele>217.8342984</ele>
        <time>2022-08-18T08:39:12Z</time>
      </trkpt>
      <trkpt lat="45.17529" lon="0.94065">
        <ele>218.5614458</ele>
        <time>2022-08-18T08:39:14Z</time>
      </trkpt>
      <trkpt lat="45.17529" lon="0.94065">
        <ele>218.2373306</ele>
        <time>2022-08-18T08:39:16Z</time>
      </trkpt>
      <trkpt lat="45.17529" lon="0.94065">
        <ele>217.9999338</ele>
        <time>2022-08-18T08:39:18Z</time>
      </trkpt>
      <trkpt lat="45.17529" lon="0.94065">
        <ele>217.9853916</ele>
        <time>2022-08-18T08:39:20Z</time>
      </trkpt>
      <trkpt lat="45.17529" lon="0.94065">
        <ele>218.3880016</ele>
        <time>2022-08-18T08:39:22Z</time>
      </trkpt>
      <trkpt lat="45.17529" lon="0.94065">
        <ele>218.3917849</ele>
        <time>2022-08-18T08:39:24Z</time>
      </trkpt>
      <trkpt lat="45.17529" lon="0.94065">
        <ele>218.066789</ele>
        <time>2022-08-18T08:39:26Z</time>
      </trkpt>
      <trkpt lat="45.17529" lon="0.94065">
        <ele>217.8400212</ele>
        <time>2022-08-18T08:39:28Z</time>
      </trkpt>
      <trkpt lat="45.17529" lon="0.94065">
        <ele>218.1424743</ele>
        <time>2022-08-18T08:39:30Z</time>
      </trkpt>
      <trkpt lat="45.17527" lon="0.94065">
        <ele>218.173618</ele>
        <time>2022-08-18T08:39:32Z</time>
      </trkpt>
      <trkpt lat="45.17524" lon="0.94065">
        <ele>217.8929458</ele>
        <time>2022-08-18T08:39:34Z</time>
      </trkpt>
      <trkpt lat="45.17521" lon="0.94065">
        <ele>217.7875038</ele>
        <time>2022-08-18T08:39:36Z</time>
      </trkpt>
      <trkpt lat="45.17517" lon="0.94064">
        <ele>217.8269278</ele>
        <time>2022-08-18T08:39:38Z</time>
      </trkpt>
      <trkpt lat="45.17513" lon="0.94063">
        <ele>217.7959817</ele>
        <time>2022-08-18T08:39:40Z</time>
      </trkpt>
      <trkpt lat="45.17511" lon="0.94061">
        <ele>217.6777236</ele>
        <time>2022-08-18T08:39:42Z</time>
      </trkpt>
      <trkpt lat="45.17512" lon="0.94062">
        <ele>217.8041254</ele>
        <time>2022-08-18T08:39:44Z</time>
      </trkpt>
      <trkpt lat="45.17511" lon="0.94062">
        <ele>218.0555659</ele>
        <time>2022-08-18T08:39:46Z</time>
      </trkpt>
      <trkpt lat="45.17511" lon="0.94062">
        <ele>218.0598485</ele>
        <time>2022-08-18T08:39:48Z</time>
      </trkpt>
      <trkpt lat="45.17511" lon="0.94063">
        <ele>217.5592953</ele>
        <time>2022-08-18T08:39:50Z</time>
      </trkpt>
      <trkpt lat="45.17509" lon="0.94063">
        <ele>217.854769</ele>
        <time>2022-08-18T08:39:52Z</time>
      </trkpt>
      <trkpt lat="45.17506" lon="0.94062">
        <ele>217.9089675</ele>
        <time>2022-08-18T08:39:54Z</time>
      </trkpt>
      <trkpt lat="45.17501" lon="0.94062">
        <ele>218.3049642</ele>
        <time>2022-08-18T08:39:56Z</time>
      </trkpt>
      <trkpt lat="45.17497" lon="0.94062">
        <ele>219.510667</ele>
        <time>2022-08-18T08:39:58Z</time>
      </trkpt>
      <trkpt lat="45.17493" lon="0.94061">
        <ele>219.7033626</ele>
        <time>2022-08-18T08:40:00Z</time>
      </trkpt>
      <trkpt lat="45.17489" lon="0.9406">
        <ele>220.03631</ele>
        <time>2022-08-18T08:40:02Z</time>
      </trkpt>
      <trkpt lat="45.17485" lon="0.94057">
        <ele>220.3990663</ele>
        <time>2022-08-18T08:40:04Z</time>
      </trkpt>
      <trkpt lat="45.17482" lon="0.94053">
        <ele>220.7464622</ele>
        <time>2022-08-18T08:40:06Z</time>
      </trkpt>
      <trkpt lat="45.17479" lon="0.94049">
        <ele>220.3552735</ele>
        <time>2022-08-18T08:40:08Z</time>
      </trkpt>
      <trkpt lat="45.17477" lon="0.94043">
        <ele>220.4282888</ele>
        <time>2022-08-18T08:40:10Z</time>
      </trkpt>
      <trkpt lat="45.17474" lon="0.94037">
        <ele>220.826048</ele>
        <time>2022-08-18T08:40:12Z</time>
      </trkpt>
      <trkpt lat="45.17472" lon="0.94029">
        <ele>220.8080128</ele>
        <time>2022-08-18T08:40:14Z</time>
      </trkpt>
      <trkpt lat="45.17469" lon="0.94022">
        <ele>220.9832469</ele>
        <time>2022-08-18T08:40:16Z</time>
      </trkpt>
      <trkpt lat="45.17466" lon="0.94014">
        <ele>220.4355329</ele>
        <time>2022-08-18T08:40:18Z</time>
      </trkpt>
      <trkpt lat="45.17463" lon="0.94005">
        <ele>220.6682866</ele>
        <time>2022-08-18T08:40:20Z</time>
      </trkpt>
      <trkpt lat="45.17459" lon="0.93998">
        <ele>220.7365303</ele>
        <time>2022-08-18T08:40:22Z</time>
      </trkpt>
      <trkpt lat="45.17456" lon="0.93989">
        <ele>220.8599451</ele>
        <time>2022-08-18T08:40:24Z</time>
      </trkpt>
      <trkpt lat="45.17453" lon="0.9398">
        <ele>221.0568877</ele>
        <time>2022-08-18T08:40:26Z</time>
      </trkpt>
      <trkpt lat="45.1745" lon="0.93973">
        <ele>221.5377923</ele>
        <time>2022-08-18T08:40:28Z</time>
      </trkpt>
      <trkpt lat="45.17447" lon="0.93966">
        <ele>222.7975335</ele>
        <time>2022-08-18T08:40:30Z</time>
      </trkpt>
      <trkpt lat="45.17445" lon="0.93959">
        <ele>222.8619922</ele>
        <time>2022-08-18T08:40:32Z</time>
      </trkpt>
      <trkpt lat="45.17441" lon="0.93952">
        <ele>222.8838572</ele>
        <time>2022-08-18T08:40:34Z</time>
      </trkpt>
      <trkpt lat="45.17438" lon="0.93944">
        <ele>223.6418953</ele>
        <time>2022-08-18T08:40:36Z</time>
      </trkpt>
      <trkpt lat="45.17436" lon="0.93936">
        <ele>223.5739897</ele>
        <time>2022-08-18T08:40:38Z</time>
      </trkpt>
      <trkpt lat="45.17433" lon="0.93928">
        <ele>223.8881756</ele>
        <time>2022-08-18T08:40:40Z</time>
      </trkpt>
      <trkpt lat="45.17431" lon="0.93921">
        <ele>224.2115005</ele>
        <time>2022-08-18T08:40:42Z</time>
      </trkpt>
      <trkpt lat="45.1743" lon="0.93913">
        <ele>224.932056</ele>
        <time>2022-08-18T08:40:44Z</time>
      </trkpt>
      <trkpt lat="45.17429" lon="0.93905">
        <ele>225.3030213</ele>
        <time>2022-08-18T08:40:46Z</time>
      </trkpt>
      <trkpt lat="45.1743" lon="0.93896">
        <ele>224.9129626</ele>
        <time>2022-08-18T08:40:48Z</time>
      </trkpt>
      <trkpt lat="45.1743" lon="0.93889">
        <ele>225.6031081</ele>
        <time>2022-08-18T08:40:50Z</time>
      </trkpt>
      <trkpt lat="45.17431" lon="0.93882">
        <ele>225.6676279</ele>
        <time>2022-08-18T08:40:52Z</time>
      </trkpt>
      <trkpt lat="45.17432" lon="0.93875">
        <ele>226.020792</ele>
        <time>2022-08-18T08:40:54Z</time>
      </trkpt>
      <trkpt lat="45.17434" lon="0.93868">
        <ele>226.7070432</ele>
        <time>2022-08-18T08:40:56Z</time>
      </trkpt>
      <trkpt lat="45.17435" lon="0.93862">
        <ele>226.920351</ele>
        <time>2022-08-18T08:40:58Z</time>
      </trkpt>
      <trkpt lat="45.17437" lon="0.93856">
        <ele>226.9761265</ele>
        <time>2022-08-18T08:41:00Z</time>
      </trkpt>
      <trkpt lat="45.17439" lon="0.9385">
        <ele>227.0125707</ele>
        <time>2022-08-18T08:41:02Z</time>
      </trkpt>
      <trkpt lat="45.17441" lon="0.93843">
        <ele>226.9373907</ele>
        <time>2022-08-18T08:41:04Z</time>
      </trkpt>
      <trkpt lat="45.17442" lon="0.93837">
        <ele>226.8139331</ele>
        <time>2022-08-18T08:41:06Z</time>
      </trkpt>
      <trkpt lat="45.17444" lon="0.9383">
        <ele>226.8845612</ele>
        <time>2022-08-18T08:41:08Z</time>
      </trkpt>
      <trkpt lat="45.17446" lon="0.93826">
        <ele>226.6475985</ele>
        <time>2022-08-18T08:41:10Z</time>
      </trkpt>
      <trkpt lat="45.17446" lon="0.93826">
        <ele>226.1671353</ele>
        <time>2022-08-18T08:41:12Z</time>
      </trkpt>
      <trkpt lat="45.17446" lon="0.93826">
        <ele>226.0318559</ele>
        <time>2022-08-18T08:41:14Z</time>
      </trkpt>
      <trkpt lat="45.17446" lon="0.93827">
        <ele>226.1607314</ele>
        <time>2022-08-18T08:41:16Z</time>
      </trkpt>
      <trkpt lat="45.17446" lon="0.93826">
        <ele>226.0948638</ele>
        <time>2022-08-18T08:41:18Z</time>
      </trkpt>
      <trkpt lat="45.17446" lon="0.93826">
        <ele>226.0529965</ele>
        <time>2022-08-18T08:41:20Z</time>
      </trkpt>
      <trkpt lat="45.17446" lon="0.93826">
        <ele>225.8540942</ele>
        <time>2022-08-18T08:41:22Z</time>
      </trkpt>
      <trkpt lat="45.17446" lon="0.93826">
        <ele>225.8540942</ele>
        <time>2022-08-18T08:41:26Z</time>
      </trkpt>
      <trkpt lat="45.17446" lon="0.93826">
        <ele>225.8540942</ele>
        <time>2022-08-18T08:41:30Z</time>
      </trkpt>
      <trkpt lat="45.17446" lon="0.93826">
        <ele>224.9895518</ele>
        <time>2022-08-18T08:41:32Z</time>
      </trkpt>
      <trkpt lat="45.17446" lon="0.93826">
        <ele>225.4673593</ele>
        <time>2022-08-18T08:41:34Z</time>
      </trkpt>
      <trkpt lat="45.17446" lon="0.93826">
        <ele>225.5549548</ele>
        <time>2022-08-18T08:41:36Z</time>
      </trkpt>
      <trkpt lat="45.17446" lon="0.93826">
        <ele>225.6801428</ele>
        <time>2022-08-18T08:41:38Z</time>
      </trkpt>
      <trkpt lat="45.17446" lon="0.93826">
        <ele>225.2253425</ele>
        <time>2022-08-18T08:41:40Z</time>
      </trkpt>
      <trkpt lat="45.17446" lon="0.93826">
        <ele>224.7334923</ele>
        <time>2022-08-18T08:41:42Z</time>
      </trkpt>
      <trkpt lat="45.17446" lon="0.93826">
        <ele>223.5404279</ele>
        <time>2022-08-18T08:41:46Z</time>
      </trkpt>
      <trkpt lat="45.17446" lon="0.93826">
        <ele>223.4618121</ele>
        <time>2022-08-18T08:41:48Z</time>
      </trkpt>
      <trkpt lat="45.17446" lon="0.93826">
        <ele>222.9016602</ele>
        <time>2022-08-18T08:41:50Z</time>
      </trkpt>
      <trkpt lat="45.17446" lon="0.93826">
        <ele>222.7372424</ele>
        <time>2022-08-18T08:41:52Z</time>
      </trkpt>
      <trkpt lat="45.17446" lon="0.93826">
        <ele>222.7372424</ele>
        <time>2022-08-18T08:41:56Z</time>
      </trkpt>
      <trkpt lat="45.17446" lon="0.93826">
        <ele>222.7372424</ele>
        <time>2022-08-18T08:42:00Z</time>
      </trkpt>
      <trkpt lat="45.17446" lon="0.93826">
        <ele>222.7372424</ele>
        <time>2022-08-18T08:42:04Z</time>
      </trkpt>
      <trkpt lat="45.17445" lon="0.93826">
        <ele>222.1387027</ele>
        <time>2022-08-18T08:42:06Z</time>
      </trkpt>
      <trkpt lat="45.17445" lon="0.93826">
        <ele>222.1282672</ele>
        <time>2022-08-18T08:42:08Z</time>
      </trkpt>
      <trkpt lat="45.17445" lon="0.93826">
        <ele>222.6822032</ele>
        <time>2022-08-18T08:42:12Z</time>
      </trkpt>
      <trkpt lat="45.17445" lon="0.93826">
        <ele>222.9968543</ele>
        <time>2022-08-18T08:42:16Z</time>
      </trkpt>
      <trkpt lat="45.17445" lon="0.93826">
        <ele>223.1004282</ele>
        <time>2022-08-18T08:42:18Z</time>
      </trkpt>
      <trkpt lat="45.17445" lon="0.93826">
        <ele>223.1004282</ele>
        <time>2022-08-18T08:42:22Z</time>
      </trkpt>
      <trkpt lat="45.17445" lon="0.93826">
        <ele>223.1004282</ele>
        <time>2022-08-18T08:42:26Z</time>
      </trkpt>
      <trkpt lat="45.17445" lon="0.93826">
        <ele>223.1004282</ele>
        <time>2022-08-18T08:42:30Z</time>
      </trkpt>
      <trkpt lat="45.17446" lon="0.93826">
        <ele>225.1136795</ele>
        <time>2022-08-18T08:42:34Z</time>
      </trkpt>
      <trkpt lat="45.17446" lon="0.93824">
        <ele>225.0812749</ele>
        <time>2022-08-18T08:42:36Z</time>
      </trkpt>
      <trkpt lat="45.17446" lon="0.93823">
        <ele>225.0432101</ele>
        <time>2022-08-18T08:42:38Z</time>
      </trkpt>
      <trkpt lat="45.17446" lon="0.9382">
        <ele>225.2900756</ele>
        <time>2022-08-18T08:42:40Z</time>
      </trkpt>
      <trkpt lat="45.17447" lon="0.93815">
        <ele>224.7088068</ele>
        <time>2022-08-18T08:42:42Z</time>
      </trkpt>
      <trkpt lat="45.17448" lon="0.9381">
        <ele>224.5297099</ele>
        <time>2022-08-18T08:42:44Z</time>
      </trkpt>
      <trkpt lat="45.17449" lon="0.93803">
        <ele>224.6398712</ele>
        <time>2022-08-18T08:42:46Z</time>
      </trkpt>
      <trkpt lat="45.17451" lon="0.93794">
        <ele>224.7960122</ele>
        <time>2022-08-18T08:42:48Z</time>
      </trkpt>
      <trkpt lat="45.17452" lon="0.93784">
        <ele>224.8579629</ele>
        <time>2022-08-18T08:42:50Z</time>
      </trkpt>
      <trkpt lat="45.17453" lon="0.93774">
        <ele>225.0232919</ele>
        <time>2022-08-18T08:42:52Z</time>
      </trkpt>
      <trkpt lat="45.17454" lon="0.93764">
        <ele>224.9377685</ele>
        <time>2022-08-18T08:42:54Z</time>
      </trkpt>
      <trkpt lat="45.17455" lon="0.93752">
        <ele>224.6910103</ele>
        <time>2022-08-18T08:42:56Z</time>
      </trkpt>
      <trkpt lat="45.17456" lon="0.93741">
        <ele>224.4168387</ele>
        <time>2022-08-18T08:42:58Z</time>
      </trkpt>
      <trkpt lat="45.17457" lon="0.93729">
        <ele>224.6290174</ele>
        <time>2022-08-18T08:43:00Z</time>
      </trkpt>
      <trkpt lat="45.17458" lon="0.93718">
        <ele>224.6881866</ele>
        <time>2022-08-18T08:43:02Z</time>
      </trkpt>
      <trkpt lat="45.17459" lon="0.93708">
        <ele>224.6888623</ele>
        <time>2022-08-18T08:43:04Z</time>
      </trkpt>
      <trkpt lat="45.1746" lon="0.93697">
        <ele>224.8865877</ele>
        <time>2022-08-18T08:43:06Z</time>
      </trkpt>
      <trkpt lat="45.1746" lon="0.93687">
        <ele>225.1802508</ele>
        <time>2022-08-18T08:43:08Z</time>
      </trkpt>
      <trkpt lat="45.17461" lon="0.93677">
        <ele>224.678023</ele>
        <time>2022-08-18T08:43:10Z</time>
      </trkpt>
      <trkpt lat="45.17462" lon="0.93669">
        <ele>224.9373903</ele>
        <time>2022-08-18T08:43:12Z</time>
      </trkpt>
      <trkpt lat="45.17463" lon="0.93662">
        <ele>225.0917149</ele>
        <time>2022-08-18T08:43:14Z</time>
      </trkpt>
      <trkpt lat="45.17464" lon="0.93656">
        <ele>225.4082045</ele>
        <time>2022-08-18T08:43:16Z</time>
      </trkpt>
      <trkpt lat="45.17464" lon="0.9365">
        <ele>225.4283385</ele>
        <time>2022-08-18T08:43:18Z</time>
      </trkpt>
      <trkpt lat="45.17464" lon="0.93645">
        <ele>225.8349545</ele>
        <time>2022-08-18T08:43:20Z</time>
      </trkpt>
      <trkpt lat="45.17465" lon="0.9364">
        <ele>226.1295381</ele>
        <time>2022-08-18T08:43:22Z</time>
      </trkpt>
      <trkpt lat="45.17465" lon="0.93635">
        <ele>226.3846641</ele>
        <time>2022-08-18T08:43:24Z</time>
      </trkpt>
      <trkpt lat="45.17466" lon="0.9363">
        <ele>226.5430731</ele>
        <time>2022-08-18T08:43:26Z</time>
      </trkpt>
      <trkpt lat="45.17466" lon="0.93626">
        <ele>226.7270778</ele>
        <time>2022-08-18T08:43:28Z</time>
      </trkpt>
      <trkpt lat="45.17467" lon="0.93621">
        <ele>227.1853206</ele>
        <time>2022-08-18T08:43:30Z</time>
      </trkpt>
      <trkpt lat="45.17467" lon="0.93617">
        <ele>227.3711035</ele>
        <time>2022-08-18T08:43:32Z</time>
      </trkpt>
      <trkpt lat="45.17467" lon="0.93612">
        <ele>227.3851118</ele>
        <time>2022-08-18T08:43:34Z</time>
      </trkpt>
      <trkpt lat="45.17468" lon="0.93608">
        <ele>227.6395529</ele>
        <time>2022-08-18T08:43:36Z</time>
      </trkpt>
      <trkpt lat="45.17468" lon="0.93604">
        <ele>228.1313092</ele>
        <time>2022-08-18T08:43:38Z</time>
      </trkpt>
      <trkpt lat="45.17469" lon="0.93599">
        <ele>228.4459571</ele>
        <time>2022-08-18T08:43:40Z</time>
      </trkpt>
      <trkpt lat="45.1747" lon="0.93595">
        <ele>228.8520601</ele>
        <time>2022-08-18T08:43:42Z</time>
      </trkpt>
      <trkpt lat="45.17471" lon="0.93591">
        <ele>229.1986424</ele>
        <time>2022-08-18T08:43:44Z</time>
      </trkpt>
      <trkpt lat="45.17471" lon="0.93587">
        <ele>229.792547</ele>
        <time>2022-08-18T08:43:46Z</time>
      </trkpt>
      <trkpt lat="45.17471" lon="0.93582">
        <ele>229.7220637</ele>
        <time>2022-08-18T08:43:48Z</time>
      </trkpt>
      <trkpt lat="45.17472" lon="0.93578">
        <ele>230.0223265</ele>
        <time>2022-08-18T08:43:50Z</time>
      </trkpt>
      <trkpt lat="45.17472" lon="0.93573">
        <ele>230.261343</ele>
        <time>2022-08-18T08:43:52Z</time>
      </trkpt>
      <trkpt lat="45.17472" lon="0.93568">
        <ele>230.5961927</ele>
        <time>2022-08-18T08:43:54Z</time>
      </trkpt>
      <trkpt lat="45.17473" lon="0.93563">
        <ele>230.8017043</ele>
        <time>2022-08-18T08:43:56Z</time>
      </trkpt>
      <trkpt lat="45.17474" lon="0.93559">
        <ele>230.9802891</ele>
        <time>2022-08-18T08:43:58Z</time>
      </trkpt>
      <trkpt lat="45.17474" lon="0.93554">
        <ele>230.8914381</ele>
        <time>2022-08-18T08:44:00Z</time>
      </trkpt>
      <trkpt lat="45.17475" lon="0.93549">
        <ele>230.8945652</ele>
        <time>2022-08-18T08:44:02Z</time>
      </trkpt>
      <trkpt lat="45.17475" lon="0.93544">
        <ele>230.8209759</ele>
        <time>2022-08-18T08:44:04Z</time>
      </trkpt>
      <trkpt lat="45.17476" lon="0.93538">
        <ele>230.8314564</ele>
        <time>2022-08-18T08:44:06Z</time>
      </trkpt>
      <trkpt lat="45.17476" lon="0.93532">
        <ele>230.693969</ele>
        <time>2022-08-18T08:44:08Z</time>
      </trkpt>
      <trkpt lat="45.17477" lon="0.93526">
        <ele>230.7228024</ele>
        <time>2022-08-18T08:44:10Z</time>
      </trkpt>
      <trkpt lat="45.17478" lon="0.93518">
        <ele>230.6527528</ele>
        <time>2022-08-18T08:44:12Z</time>
      </trkpt>
      <trkpt lat="45.17479" lon="0.93511">
        <ele>230.6831474</ele>
        <time>2022-08-18T08:44:14Z</time>
      </trkpt>
      <trkpt lat="45.1748" lon="0.93502">
        <ele>230.8324584</ele>
        <time>2022-08-18T08:44:16Z</time>
      </trkpt>
      <trkpt lat="45.17481" lon="0.93494">
        <ele>230.8426049</ele>
        <time>2022-08-18T08:44:18Z</time>
      </trkpt>
      <trkpt lat="45.17481" lon="0.93488">
        <ele>230.8943758</ele>
        <time>2022-08-18T08:44:20Z</time>
      </trkpt>
      <trkpt lat="45.17482" lon="0.93481">
        <ele>230.3420962</ele>
        <time>2022-08-18T08:44:22Z</time>
      </trkpt>
      <trkpt lat="45.17483" lon="0.93475">
        <ele>230.4751656</ele>
        <time>2022-08-18T08:44:24Z</time>
      </trkpt>
      <trkpt lat="45.17483" lon="0.9347">
        <ele>229.9998457</ele>
        <time>2022-08-18T08:44:26Z</time>
      </trkpt>
      <trkpt lat="45.17485" lon="0.93464">
        <ele>230.0430325</ele>
        <time>2022-08-18T08:44:28Z</time>
      </trkpt>
      <trkpt lat="45.17486" lon="0.93457">
        <ele>229.8156626</ele>
        <time>2022-08-18T08:44:30Z</time>
      </trkpt>
      <trkpt lat="45.17487" lon="0.9345">
        <ele>229.6122953</ele>
        <time>2022-08-18T08:44:32Z</time>
      </trkpt>
      <trkpt lat="45.17487" lon="0.93444">
        <ele>229.2564286</ele>
        <time>2022-08-18T08:44:34Z</time>
      </trkpt>
      <trkpt lat="45.17487" lon="0.93442">
        <ele>229.3328232</ele>
        <time>2022-08-18T08:44:36Z</time>
      </trkpt>
      <trkpt lat="45.17487" lon="0.93443">
        <ele>229.476531</ele>
        <time>2022-08-18T08:44:38Z</time>
      </trkpt>
      <trkpt lat="45.17487" lon="0.93443">
        <ele>229.4055504</ele>
        <time>2022-08-18T08:44:40Z</time>
      </trkpt>
      <trkpt lat="45.17487" lon="0.93443">
        <ele>230.0247901</ele>
        <time>2022-08-18T08:44:42Z</time>
      </trkpt>
      <trkpt lat="45.17487" lon="0.93441">
        <ele>230.4530845</ele>
        <time>2022-08-18T08:44:44Z</time>
      </trkpt>
      <trkpt lat="45.17488" lon="0.93437">
        <ele>230.5913453</ele>
        <time>2022-08-18T08:44:46Z</time>
      </trkpt>
      <trkpt lat="45.17489" lon="0.9343">
        <ele>231.1120471</ele>
        <time>2022-08-18T08:44:48Z</time>
      </trkpt>
      <trkpt lat="45.1749" lon="0.93421">
        <ele>231.3601226</ele>
        <time>2022-08-18T08:44:50Z</time>
      </trkpt>
      <trkpt lat="45.1749" lon="0.93413">
        <ele>232.1504006</ele>
        <time>2022-08-18T08:44:52Z</time>
      </trkpt>
      <trkpt lat="45.17491" lon="0.93405">
        <ele>232.5261008</ele>
        <time>2022-08-18T08:44:54Z</time>
      </trkpt>
      <trkpt lat="45.17492" lon="0.93397">
        <ele>232.3374288</ele>
        <time>2022-08-18T08:44:56Z</time>
      </trkpt>
      <trkpt lat="45.17493" lon="0.93389">
        <ele>232.8621937</ele>
        <time>2022-08-18T08:44:58Z</time>
      </trkpt>
      <trkpt lat="45.17494" lon="0.93381">
        <ele>233.2381323</ele>
        <time>2022-08-18T08:45:00Z</time>
      </trkpt>
      <trkpt lat="45.17495" lon="0.93373">
        <ele>233.5071403</ele>
        <time>2022-08-18T08:45:02Z</time>
      </trkpt>
      <trkpt lat="45.17495" lon="0.93364">
        <ele>233.5603703</ele>
        <time>2022-08-18T08:45:04Z</time>
      </trkpt>
      <trkpt lat="45.17496" lon="0.93356">
        <ele>234.0358055</ele>
        <time>2022-08-18T08:45:06Z</time>
      </trkpt>
      <trkpt lat="45.17497" lon="0.93348">
        <ele>234.5055845</ele>
        <time>2022-08-18T08:45:08Z</time>
      </trkpt>
      <trkpt lat="45.17498" lon="0.93339">
        <ele>234.7139068</ele>
        <time>2022-08-18T08:45:10Z</time>
      </trkpt>
      <trkpt lat="45.17499" lon="0.9333">
        <ele>234.6835651</ele>
        <time>2022-08-18T08:45:12Z</time>
      </trkpt>
      <trkpt lat="45.175" lon="0.93321">
        <ele>234.7457581</ele>
        <time>2022-08-18T08:45:14Z</time>
      </trkpt>
      <trkpt lat="45.17501" lon="0.93313">
        <ele>235.1966155</ele>
        <time>2022-08-18T08:45:16Z</time>
      </trkpt>
      <trkpt lat="45.17502" lon="0.93306">
        <ele>235.3754258</ele>
        <time>2022-08-18T08:45:18Z</time>
      </trkpt>
      <trkpt lat="45.17503" lon="0.93297">
        <ele>235.9438519</ele>
        <time>2022-08-18T08:45:20Z</time>
      </trkpt>
      <trkpt lat="45.17503" lon="0.93289">
        <ele>236.3718127</ele>
        <time>2022-08-18T08:45:22Z</time>
      </trkpt>
      <trkpt lat="45.17504" lon="0.93281">
        <ele>236.5633738</ele>
        <time>2022-08-18T08:45:24Z</time>
      </trkpt>
      <trkpt lat="45.17505" lon="0.93273">
        <ele>236.6057436</ele>
        <time>2022-08-18T08:45:26Z</time>
      </trkpt>
      <trkpt lat="45.17506" lon="0.93265">
        <ele>236.5851418</ele>
        <time>2022-08-18T08:45:28Z</time>
      </trkpt>
      <trkpt lat="45.17506" lon="0.93257">
        <ele>236.9294795</ele>
        <time>2022-08-18T08:45:30Z</time>
      </trkpt>
      <trkpt lat="45.17507" lon="0.93249">
        <ele>237.3599028</ele>
        <time>2022-08-18T08:45:32Z</time>
      </trkpt>
      <trkpt lat="45.17508" lon="0.93241">
        <ele>237.2208854</ele>
        <time>2022-08-18T08:45:34Z</time>
      </trkpt>
      <trkpt lat="45.17508" lon="0.93234">
        <ele>237.1045751</ele>
        <time>2022-08-18T08:45:36Z</time>
      </trkpt>
      <trkpt lat="45.17509" lon="0.93226">
        <ele>237.5941382</ele>
        <time>2022-08-18T08:45:38Z</time>
      </trkpt>
      <trkpt lat="45.1751" lon="0.93218">
        <ele>238.1830696</ele>
        <time>2022-08-18T08:45:40Z</time>
      </trkpt>
      <trkpt lat="45.1751" lon="0.9321">
        <ele>238.1944627</ele>
        <time>2022-08-18T08:45:42Z</time>
      </trkpt>
      <trkpt lat="45.17511" lon="0.93201">
        <ele>238.1131621</ele>
        <time>2022-08-18T08:45:44Z</time>
      </trkpt>
      <trkpt lat="45.17512" lon="0.93192">
        <ele>237.9682065</ele>
        <time>2022-08-18T08:45:46Z</time>
      </trkpt>
      <trkpt lat="45.17513" lon="0.93183">
        <ele>237.5698413</ele>
        <time>2022-08-18T08:45:48Z</time>
      </trkpt>
      <trkpt lat="45.17514" lon="0.93172">
        <ele>237.3269822</ele>
        <time>2022-08-18T08:45:50Z</time>
      </trkpt>
      <trkpt lat="45.17515" lon="0.93161">
        <ele>237.0486215</ele>
        <time>2022-08-18T08:45:52Z</time>
      </trkpt>
      <trkpt lat="45.17517" lon="0.93149">
        <ele>236.6741018</ele>
        <time>2022-08-18T08:45:54Z</time>
      </trkpt>
      <trkpt lat="45.17518" lon="0.93137">
        <ele>236.8969625</ele>
        <time>2022-08-18T08:45:56Z</time>
      </trkpt>
      <trkpt lat="45.1752" lon="0.93124">
        <ele>236.8504965</ele>
        <time>2022-08-18T08:45:58Z</time>
      </trkpt>
      <trkpt lat="45.17523" lon="0.9311">
        <ele>237.1229282</ele>
        <time>2022-08-18T08:46:00Z</time>
      </trkpt>
      <trkpt lat="45.17526" lon="0.93095">
        <ele>237.0912377</ele>
        <time>2022-08-18T08:46:02Z</time>
      </trkpt>
      <trkpt lat="45.1753" lon="0.93084">
        <ele>236.2220256</ele>
        <time>2022-08-18T08:46:04Z</time>
      </trkpt>
      <trkpt lat="45.17535" lon="0.93072">
        <ele>236.2494989</ele>
        <time>2022-08-18T08:46:06Z</time>
      </trkpt>
      <trkpt lat="45.17538" lon="0.93061">
        <ele>237.0916779</ele>
        <time>2022-08-18T08:46:08Z</time>
      </trkpt>
      <trkpt lat="45.17542" lon="0.93051">
        <ele>237.3172864</ele>
        <time>2022-08-18T08:46:10Z</time>
      </trkpt>
      <trkpt lat="45.17546" lon="0.93042">
        <ele>238.287919</ele>
        <time>2022-08-18T08:46:12Z</time>
      </trkpt>
      <trkpt lat="45.1755" lon="0.93033">
        <ele>238.9274228</ele>
        <time>2022-08-18T08:46:14Z</time>
      </trkpt>
      <trkpt lat="45.17554" lon="0.93025">
        <ele>239.4937497</ele>
        <time>2022-08-18T08:46:16Z</time>
      </trkpt>
      <trkpt lat="45.17559" lon="0.93015">
        <ele>240.0023016</ele>
        <time>2022-08-18T08:46:18Z</time>
      </trkpt>
      <trkpt lat="45.17563" lon="0.93007">
        <ele>241.1302631</ele>
        <time>2022-08-18T08:46:20Z</time>
      </trkpt>
      <trkpt lat="45.17568" lon="0.92999">
        <ele>241.6121208</ele>
        <time>2022-08-18T08:46:22Z</time>
      </trkpt>
      <trkpt lat="45.17574" lon="0.92991">
        <ele>241.5447875</ele>
        <time>2022-08-18T08:46:24Z</time>
      </trkpt>
      <trkpt lat="45.17579" lon="0.92983">
        <ele>241.6411611</ele>
        <time>2022-08-18T08:46:26Z</time>
      </trkpt>
      <trkpt lat="45.17584" lon="0.92976">
        <ele>241.3583472</ele>
        <time>2022-08-18T08:46:28Z</time>
      </trkpt>
      <trkpt lat="45.17591" lon="0.9297">
        <ele>241.0013052</ele>
        <time>2022-08-18T08:46:30Z</time>
      </trkpt>
      <trkpt lat="45.17597" lon="0.92964">
        <ele>240.6829546</ele>
        <time>2022-08-18T08:46:32Z</time>
      </trkpt>
      <trkpt lat="45.17604" lon="0.92959">
        <ele>239.6712765</ele>
        <time>2022-08-18T08:46:34Z</time>
      </trkpt>
      <trkpt lat="45.17611" lon="0.92953">
        <ele>239.1596254</ele>
        <time>2022-08-18T08:46:36Z</time>
      </trkpt>
      <trkpt lat="45.17618" lon="0.92948">
        <ele>238.7299222</ele>
        <time>2022-08-18T08:46:38Z</time>
      </trkpt>
      <trkpt lat="45.17625" lon="0.92943">
        <ele>237.9223784</ele>
        <time>2022-08-18T08:46:40Z</time>
      </trkpt>
      <trkpt lat="45.17633" lon="0.92933">
        <ele>237.7648567</ele>
        <time>2022-08-18T08:46:43Z</time>
      </trkpt>
      <trkpt lat="45.1764" lon="0.92931">
        <ele>237.5613232</ele>
        <time>2022-08-18T08:46:45Z</time>
      </trkpt>
      <trkpt lat="45.17645" lon="0.92925">
        <ele>237.7451227</ele>
        <time>2022-08-18T08:46:47Z</time>
      </trkpt>
      <trkpt lat="45.17651" lon="0.92921">
        <ele>237.9054867</ele>
        <time>2022-08-18T08:46:49Z</time>
      </trkpt>
      <trkpt lat="45.17656" lon="0.92917">
        <ele>237.8517231</ele>
        <time>2022-08-18T08:46:51Z</time>
      </trkpt>
      <trkpt lat="45.17662" lon="0.92916">
        <ele>237.9476648</ele>
        <time>2022-08-18T08:46:53Z</time>
      </trkpt>
      <trkpt lat="45.17665" lon="0.92913">
        <ele>238.3500574</ele>
        <time>2022-08-18T08:46:55Z</time>
      </trkpt>
      <trkpt lat="45.17666" lon="0.9291">
        <ele>238.1352564</ele>
        <time>2022-08-18T08:46:57Z</time>
      </trkpt>
      <trkpt lat="45.17669" lon="0.92906">
        <ele>238.4607364</ele>
        <time>2022-08-18T08:46:59Z</time>
      </trkpt>
      <trkpt lat="45.17674" lon="0.92905">
        <ele>238.5143252</ele>
        <time>2022-08-18T08:47:01Z</time>
      </trkpt>
      <trkpt lat="45.17678" lon="0.92903">
        <ele>238.387294</ele>
        <time>2022-08-18T08:47:03Z</time>
      </trkpt>
      <trkpt lat="45.17682" lon="0.929">
        <ele>239.0074501</ele>
        <time>2022-08-18T08:47:05Z</time>
      </trkpt>
      <trkpt lat="45.17687" lon="0.92896">
        <ele>239.0291569</ele>
        <time>2022-08-18T08:47:07Z</time>
      </trkpt>
      <trkpt lat="45.17692" lon="0.92892">
        <ele>239.1920021</ele>
        <time>2022-08-18T08:47:09Z</time>
      </trkpt>
      <trkpt lat="45.17698" lon="0.92889">
        <ele>239.2547026</ele>
        <time>2022-08-18T08:47:11Z</time>
      </trkpt>
      <trkpt lat="45.17704" lon="0.92886">
        <ele>239.0774955</ele>
        <time>2022-08-18T08:47:13Z</time>
      </trkpt>
      <trkpt lat="45.1771" lon="0.92882">
        <ele>239.0125587</ele>
        <time>2022-08-18T08:47:15Z</time>
      </trkpt>
      <trkpt lat="45.17716" lon="0.9288">
        <ele>238.8217961</ele>
        <time>2022-08-18T08:47:17Z</time>
      </trkpt>
      <trkpt lat="45.17722" lon="0.92876">
        <ele>238.8612924</ele>
        <time>2022-08-18T08:47:19Z</time>
      </trkpt>
      <trkpt lat="45.17728" lon="0.92873">
        <ele>238.8591655</ele>
        <time>2022-08-18T08:47:21Z</time>
      </trkpt>
      <trkpt lat="45.17734" lon="0.9287">
        <ele>238.9771207</ele>
        <time>2022-08-18T08:47:23Z</time>
      </trkpt>
      <trkpt lat="45.1774" lon="0.92867">
        <ele>238.7717303</ele>
        <time>2022-08-18T08:47:25Z</time>
      </trkpt>
      <trkpt lat="45.17746" lon="0.92864">
        <ele>238.9075233</ele>
        <time>2022-08-18T08:47:27Z</time>
      </trkpt>
      <trkpt lat="45.17752" lon="0.92861">
        <ele>238.6805878</ele>
        <time>2022-08-18T08:47:29Z</time>
      </trkpt>
      <trkpt lat="45.17759" lon="0.92859">
        <ele>239.023466</ele>
        <time>2022-08-18T08:47:31Z</time>
      </trkpt>
      <trkpt lat="45.17766" lon="0.92857">
        <ele>239.2432311</ele>
        <time>2022-08-18T08:47:33Z</time>
      </trkpt>
      <trkpt lat="45.17772" lon="0.92855">
        <ele>239.6778825</ele>
        <time>2022-08-18T08:47:35Z</time>
      </trkpt>
      <trkpt lat="45.17778" lon="0.92854">
        <ele>239.5182067</ele>
        <time>2022-08-18T08:47:37Z</time>
      </trkpt>
      <trkpt lat="45.17783" lon="0.92851">
        <ele>239.2332381</ele>
        <time>2022-08-18T08:47:39Z</time>
      </trkpt>
      <trkpt lat="45.17788" lon="0.92848">
        <ele>239.2761189</ele>
        <time>2022-08-18T08:47:41Z</time>
      </trkpt>
      <trkpt lat="45.17793" lon="0.92846">
        <ele>239.2583524</ele>
        <time>2022-08-18T08:47:43Z</time>
      </trkpt>
      <trkpt lat="45.17798" lon="0.92843">
        <ele>239.3346467</ele>
        <time>2022-08-18T08:47:45Z</time>
      </trkpt>
      <trkpt lat="45.17803" lon="0.9284">
        <ele>239.2858792</ele>
        <time>2022-08-18T08:47:47Z</time>
      </trkpt>
      <trkpt lat="45.17808" lon="0.92838">
        <ele>239.4416128</ele>
        <time>2022-08-18T08:47:49Z</time>
      </trkpt>
      <trkpt lat="45.17813" lon="0.92834">
        <ele>239.2936328</ele>
        <time>2022-08-18T08:47:51Z</time>
      </trkpt>
      <trkpt lat="45.17818" lon="0.9283">
        <ele>239.3519801</ele>
        <time>2022-08-18T08:47:53Z</time>
      </trkpt>
      <trkpt lat="45.17823" lon="0.92825">
        <ele>239.4986468</ele>
        <time>2022-08-18T08:47:55Z</time>
      </trkpt>
      <trkpt lat="45.17827" lon="0.92823">
        <ele>239.6493162</ele>
        <time>2022-08-18T08:47:57Z</time>
      </trkpt>
      <trkpt lat="45.17831" lon="0.92819">
        <ele>239.6150092</ele>
        <time>2022-08-18T08:47:59Z</time>
      </trkpt>
      <trkpt lat="45.17835" lon="0.92815">
        <ele>239.2634893</ele>
        <time>2022-08-18T08:48:01Z</time>
      </trkpt>
      <trkpt lat="45.1784" lon="0.92811">
        <ele>239.503381</ele>
        <time>2022-08-18T08:48:03Z</time>
      </trkpt>
      <trkpt lat="45.17845" lon="0.92808">
        <ele>239.6997888</ele>
        <time>2022-08-18T08:48:05Z</time>
      </trkpt>
      <trkpt lat="45.1785" lon="0.92804">
        <ele>239.7971368</ele>
        <time>2022-08-18T08:48:07Z</time>
      </trkpt>
      <trkpt lat="45.17854" lon="0.928">
        <ele>240.0629068</ele>
        <time>2022-08-18T08:48:09Z</time>
      </trkpt>
      <trkpt lat="45.17859" lon="0.92796">
        <ele>240.2658729</ele>
        <time>2022-08-18T08:48:11Z</time>
      </trkpt>
      <trkpt lat="45.17861" lon="0.92794">
        <ele>240.3606428</ele>
        <time>2022-08-18T08:48:12Z</time>
      </trkpt>
      <trkpt lat="45.17866" lon="0.9279">
        <ele>240.5870288</ele>
        <time>2022-08-18T08:48:14Z</time>
      </trkpt>
      <trkpt lat="45.1787" lon="0.92786">
        <ele>240.7501609</ele>
        <time>2022-08-18T08:48:16Z</time>
      </trkpt>
      <trkpt lat="45.17875" lon="0.92779">
        <ele>240.8836709</ele>
        <time>2022-08-18T08:48:19Z</time>
      </trkpt>
      <trkpt lat="45.1788" lon="0.92776">
        <ele>241.0916167</ele>
        <time>2022-08-18T08:48:21Z</time>
      </trkpt>
      <trkpt lat="45.17885" lon="0.92773">
        <ele>240.9580771</ele>
        <time>2022-08-18T08:48:23Z</time>
      </trkpt>
      <trkpt lat="45.17889" lon="0.92772">
        <ele>240.9877776</ele>
        <time>2022-08-18T08:48:25Z</time>
      </trkpt>
      <trkpt lat="45.17894" lon="0.92769">
        <ele>241.222122</ele>
        <time>2022-08-18T08:48:27Z</time>
      </trkpt>
      <trkpt lat="45.17898" lon="0.92765">
        <ele>241.3315775</ele>
        <time>2022-08-18T08:48:29Z</time>
      </trkpt>
      <trkpt lat="45.17903" lon="0.92764">
        <ele>241.5586349</ele>
        <time>2022-08-18T08:48:31Z</time>
      </trkpt>
      <trkpt lat="45.17908" lon="0.92762">
        <ele>241.8254866</ele>
        <time>2022-08-18T08:48:33Z</time>
      </trkpt>
      <trkpt lat="45.17913" lon="0.92759">
        <ele>241.986488</ele>
        <time>2022-08-18T08:48:35Z</time>
      </trkpt>
      <trkpt lat="45.17917" lon="0.92756">
        <ele>242.4154901</ele>
        <time>2022-08-18T08:48:37Z</time>
      </trkpt>
      <trkpt lat="45.17922" lon="0.92753">
        <ele>242.6179853</ele>
        <time>2022-08-18T08:48:39Z</time>
      </trkpt>
      <trkpt lat="45.17926" lon="0.92751">
        <ele>242.4566766</ele>
        <time>2022-08-18T08:48:41Z</time>
      </trkpt>
      <trkpt lat="45.17931" lon="0.92749">
        <ele>243.470193</ele>
        <time>2022-08-18T08:48:43Z</time>
      </trkpt>
      <trkpt lat="45.17935" lon="0.92746">
        <ele>243.2142029</ele>
        <time>2022-08-18T08:48:45Z</time>
      </trkpt>
      <trkpt lat="45.1794" lon="0.92742">
        <ele>242.952688</ele>
        <time>2022-08-18T08:48:47Z</time>
      </trkpt>
      <trkpt lat="45.17945" lon="0.9274">
        <ele>242.9068646</ele>
        <time>2022-08-18T08:48:49Z</time>
      </trkpt>
      <trkpt lat="45.1795" lon="0.92738">
        <ele>242.5473461</ele>
        <time>2022-08-18T08:48:51Z</time>
      </trkpt>
      <trkpt lat="45.17955" lon="0.92735">
        <ele>241.7885961</ele>
        <time>2022-08-18T08:48:53Z</time>
      </trkpt>
      <trkpt lat="45.1796" lon="0.92731">
        <ele>242.0064203</ele>
        <time>2022-08-18T08:48:55Z</time>
      </trkpt>
      <trkpt lat="45.17965" lon="0.92727">
        <ele>242.3523272</ele>
        <time>2022-08-18T08:48:57Z</time>
      </trkpt>
      <trkpt lat="45.17971" lon="0.92723">
        <ele>242.4947492</ele>
        <time>2022-08-18T08:48:59Z</time>
      </trkpt>
      <trkpt lat="45.17976" lon="0.92719">
        <ele>241.8720876</ele>
        <time>2022-08-18T08:49:01Z</time>
      </trkpt>
      <trkpt lat="45.1798" lon="0.92713">
        <ele>242.0430842</ele>
        <time>2022-08-18T08:49:03Z</time>
      </trkpt>
      <trkpt lat="45.17986" lon="0.92709">
        <ele>242.25548</ele>
        <time>2022-08-18T08:49:05Z</time>
      </trkpt>
      <trkpt lat="45.17991" lon="0.92703">
        <ele>242.4658985</ele>
        <time>2022-08-18T08:49:07Z</time>
      </trkpt>
      <trkpt lat="45.17996" lon="0.92696">
        <ele>242.1709747</ele>
        <time>2022-08-18T08:49:09Z</time>
      </trkpt>
      <trkpt lat="45.18002" lon="0.92689">
        <ele>242.595605</ele>
        <time>2022-08-18T08:49:11Z</time>
      </trkpt>
      <trkpt lat="45.18007" lon="0.92682">
        <ele>242.7151221</ele>
        <time>2022-08-18T08:49:13Z</time>
      </trkpt>
      <trkpt lat="45.18012" lon="0.92674">
        <ele>242.8398668</ele>
        <time>2022-08-18T08:49:15Z</time>
      </trkpt>
      <trkpt lat="45.18017" lon="0.92667">
        <ele>243.0819161</ele>
        <time>2022-08-18T08:49:17Z</time>
      </trkpt>
      <trkpt lat="45.18022" lon="0.92658">
        <ele>242.6301672</ele>
        <time>2022-08-18T08:49:19Z</time>
      </trkpt>
      <trkpt lat="45.18027" lon="0.92651">
        <ele>242.4693267</ele>
        <time>2022-08-18T08:49:21Z</time>
      </trkpt>
      <trkpt lat="45.18033" lon="0.92646">
        <ele>242.6863193</ele>
        <time>2022-08-18T08:49:23Z</time>
      </trkpt>
      <trkpt lat="45.18038" lon="0.92641">
        <ele>242.9322857</ele>
        <time>2022-08-18T08:49:25Z</time>
      </trkpt>
      <trkpt lat="45.18043" lon="0.92635">
        <ele>242.6202741</ele>
        <time>2022-08-18T08:49:27Z</time>
      </trkpt>
      <trkpt lat="45.18048" lon="0.9263">
        <ele>242.7835788</ele>
        <time>2022-08-18T08:49:29Z</time>
      </trkpt>
      <trkpt lat="45.18053" lon="0.92625">
        <ele>242.8179749</ele>
        <time>2022-08-18T08:49:31Z</time>
      </trkpt>
      <trkpt lat="45.18058" lon="0.92619">
        <ele>243.0980293</ele>
        <time>2022-08-18T08:49:33Z</time>
      </trkpt>
      <trkpt lat="45.1806" lon="0.92613">
        <ele>243.5633201</ele>
        <time>2022-08-18T08:49:35Z</time>
      </trkpt>
      <trkpt lat="45.18062" lon="0.92605">
        <ele>243.6040629</ele>
        <time>2022-08-18T08:49:37Z</time>
      </trkpt>
      <trkpt lat="45.18063" lon="0.92597">
        <ele>243.835739</ele>
        <time>2022-08-18T08:49:39Z</time>
      </trkpt>
      <trkpt lat="45.18062" lon="0.92588">
        <ele>244.0894507</ele>
        <time>2022-08-18T08:49:41Z</time>
      </trkpt>
      <trkpt lat="45.18061" lon="0.9258">
        <ele>244.4924058</ele>
        <time>2022-08-18T08:49:43Z</time>
      </trkpt>
      <trkpt lat="45.18059" lon="0.92572">
        <ele>244.8486031</ele>
        <time>2022-08-18T08:49:45Z</time>
      </trkpt>
      <trkpt lat="45.18057" lon="0.92564">
        <ele>244.3239639</ele>
        <time>2022-08-18T08:49:47Z</time>
      </trkpt>
      <trkpt lat="45.18056" lon="0.92556">
        <ele>244.3044989</ele>
        <time>2022-08-18T08:49:49Z</time>
      </trkpt>
      <trkpt lat="45.18054" lon="0.92548">
        <ele>244.000194</ele>
        <time>2022-08-18T08:49:51Z</time>
      </trkpt>
      <trkpt lat="45.18052" lon="0.92539">
        <ele>243.7296619</ele>
        <time>2022-08-18T08:49:53Z</time>
      </trkpt>
      <trkpt lat="45.18051" lon="0.9253">
        <ele>244.1691978</ele>
        <time>2022-08-18T08:49:55Z</time>
      </trkpt>
      <trkpt lat="45.18049" lon="0.9252">
        <ele>244.2484795</ele>
        <time>2022-08-18T08:49:57Z</time>
      </trkpt>
      <trkpt lat="45.18048" lon="0.92511">
        <ele>244.2689306</ele>
        <time>2022-08-18T08:49:59Z</time>
      </trkpt>
      <trkpt lat="45.18046" lon="0.92502">
        <ele>244.2214799</ele>
        <time>2022-08-18T08:50:01Z</time>
      </trkpt>
      <trkpt lat="45.18044" lon="0.92493">
        <ele>244.4464234</ele>
        <time>2022-08-18T08:50:03Z</time>
      </trkpt>
      <trkpt lat="45.18044" lon="0.92482">
        <ele>244.1710116</ele>
        <time>2022-08-18T08:50:05Z</time>
      </trkpt>
      <trkpt lat="45.18043" lon="0.92471">
        <ele>244.6483362</ele>
        <time>2022-08-18T08:50:07Z</time>
      </trkpt>
      <trkpt lat="45.18043" lon="0.9246">
        <ele>244.8467208</ele>
        <time>2022-08-18T08:50:09Z</time>
      </trkpt>
      <trkpt lat="45.18042" lon="0.92448">
        <ele>244.2011759</ele>
        <time>2022-08-18T08:50:11Z</time>
      </trkpt>
      <trkpt lat="45.18041" lon="0.92437">
        <ele>244.6485854</ele>
        <time>2022-08-18T08:50:13Z</time>
      </trkpt>
      <trkpt lat="45.18041" lon="0.92426">
        <ele>243.888988</ele>
        <time>2022-08-18T08:50:15Z</time>
      </trkpt>
      <trkpt lat="45.18041" lon="0.92413">
        <ele>243.7235844</ele>
        <time>2022-08-18T08:50:17Z</time>
      </trkpt>
      <trkpt lat="45.18042" lon="0.92399">
        <ele>243.0492716</ele>
        <time>2022-08-18T08:50:19Z</time>
      </trkpt>
      <trkpt lat="45.18043" lon="0.92383">
        <ele>242.3146893</ele>
        <time>2022-08-18T08:50:21Z</time>
      </trkpt>
      <trkpt lat="45.18045" lon="0.92366">
        <ele>241.6372149</ele>
        <time>2022-08-18T08:50:23Z</time>
      </trkpt>
      <trkpt lat="45.18047" lon="0.9235">
        <ele>241.223935</ele>
        <time>2022-08-18T08:50:25Z</time>
      </trkpt>
      <trkpt lat="45.18052" lon="0.92335">
        <ele>240.8173859</ele>
        <time>2022-08-18T08:50:27Z</time>
      </trkpt>
      <trkpt lat="45.18058" lon="0.92324">
        <ele>241.7812904</ele>
        <time>2022-08-18T08:50:29Z</time>
      </trkpt>
      <trkpt lat="45.1806" lon="0.92311">
        <ele>241.0010852</ele>
        <time>2022-08-18T08:50:31Z</time>
      </trkpt>
      <trkpt lat="45.1806" lon="0.92299">
        <ele>242.1137593</ele>
        <time>2022-08-18T08:50:33Z</time>
      </trkpt>
      <trkpt lat="45.18064" lon="0.92287">
        <ele>241.735746</ele>
        <time>2022-08-18T08:50:35Z</time>
      </trkpt>
      <trkpt lat="45.18068" lon="0.92275">
        <ele>241.5816364</ele>
        <time>2022-08-18T08:50:37Z</time>
      </trkpt>
      <trkpt lat="45.18071" lon="0.92261">
        <ele>242.4856181</ele>
        <time>2022-08-18T08:50:39Z</time>
      </trkpt>
      <trkpt lat="45.18073" lon="0.92244">
        <ele>242.3640074</ele>
        <time>2022-08-18T08:50:41Z</time>
      </trkpt>
      <trkpt lat="45.18074" lon="0.92227">
        <ele>241.3957769</ele>
        <time>2022-08-18T08:50:43Z</time>
      </trkpt>
      <trkpt lat="45.18076" lon="0.92207">
        <ele>240.674079</ele>
        <time>2022-08-18T08:50:45Z</time>
      </trkpt>
      <trkpt lat="45.18076" lon="0.92188">
        <ele>238.7351852</ele>
        <time>2022-08-18T08:50:47Z</time>
      </trkpt>
      <trkpt lat="45.18073" lon="0.92164">
        <ele>237.4247342</ele>
        <time>2022-08-18T08:50:49Z</time>
      </trkpt>
      <trkpt lat="45.18073" lon="0.92139">
        <ele>235.5458485</ele>
        <time>2022-08-18T08:50:51Z</time>
      </trkpt>
      <trkpt lat="45.18072" lon="0.92114">
        <ele>234.2193155</ele>
        <time>2022-08-18T08:50:53Z</time>
      </trkpt>
      <trkpt lat="45.1807" lon="0.92085">
        <ele>233.0312584</ele>
        <time>2022-08-18T08:50:55Z</time>
      </trkpt>
      <trkpt lat="45.18069" lon="0.92057">
        <ele>228.6938843</ele>
        <time>2022-08-18T08:50:57Z</time>
      </trkpt>
      <trkpt lat="45.18068" lon="0.92027">
        <ele>227.9475347</ele>
        <time>2022-08-18T08:50:59Z</time>
      </trkpt>
      <trkpt lat="45.18065" lon="0.91995">
        <ele>228.2877137</ele>
        <time>2022-08-18T08:51:01Z</time>
      </trkpt>
      <trkpt lat="45.18064" lon="0.91967">
        <ele>226.9890951</ele>
        <time>2022-08-18T08:51:03Z</time>
      </trkpt>
      <trkpt lat="45.18062" lon="0.91938">
        <ele>226.9142651</ele>
        <time>2022-08-18T08:51:05Z</time>
      </trkpt>
      <trkpt lat="45.18063" lon="0.91907">
        <ele>225.1590818</ele>
        <time>2022-08-18T08:51:07Z</time>
      </trkpt>
      <trkpt lat="45.18063" lon="0.91881">
        <ele>224.3688006</ele>
        <time>2022-08-18T08:51:09Z</time>
      </trkpt>
      <trkpt lat="45.18064" lon="0.91853">
        <ele>223.8308446</ele>
        <time>2022-08-18T08:51:11Z</time>
      </trkpt>
      <trkpt lat="45.18065" lon="0.91825">
        <ele>222.2657819</ele>
        <time>2022-08-18T08:51:13Z</time>
      </trkpt>
      <trkpt lat="45.18066" lon="0.91798">
        <ele>221.2904126</ele>
        <time>2022-08-18T08:51:15Z</time>
      </trkpt>
      <trkpt lat="45.18067" lon="0.9177">
        <ele>219.5756059</ele>
        <time>2022-08-18T08:51:17Z</time>
      </trkpt>
      <trkpt lat="45.18069" lon="0.91742">
        <ele>218.4301668</ele>
        <time>2022-08-18T08:51:19Z</time>
      </trkpt>
      <trkpt lat="45.1807" lon="0.91712">
        <ele>217.6865242</ele>
        <time>2022-08-18T08:51:21Z</time>
      </trkpt>
      <trkpt lat="45.18074" lon="0.91682">
        <ele>215.6206617</ele>
        <time>2022-08-18T08:51:23Z</time>
      </trkpt>
      <trkpt lat="45.1808" lon="0.91651">
        <ele>215.173605</ele>
        <time>2022-08-18T08:51:25Z</time>
      </trkpt>
      <trkpt lat="45.18088" lon="0.91622">
        <ele>213.69006</ele>
        <time>2022-08-18T08:51:27Z</time>
      </trkpt>
      <trkpt lat="45.18096" lon="0.91593">
        <ele>212.58187</ele>
        <time>2022-08-18T08:51:29Z</time>
      </trkpt>
      <trkpt lat="45.18103" lon="0.91564">
        <ele>211.2997383</ele>
        <time>2022-08-18T08:51:31Z</time>
      </trkpt>
      <trkpt lat="45.18106" lon="0.91534">
        <ele>210.0325234</ele>
        <time>2022-08-18T08:51:33Z</time>
      </trkpt>
      <trkpt lat="45.18099" lon="0.91508">
        <ele>210.6512006</ele>
        <time>2022-08-18T08:51:35Z</time>
      </trkpt>
      <trkpt lat="45.1809" lon="0.91486">
        <ele>211.317077</ele>
        <time>2022-08-18T08:51:37Z</time>
      </trkpt>
      <trkpt lat="45.18086" lon="0.91466">
        <ele>211.8214243</ele>
        <time>2022-08-18T08:51:39Z</time>
      </trkpt>
      <trkpt lat="45.18082" lon="0.91446">
        <ele>211.1413873</ele>
        <time>2022-08-18T08:51:41Z</time>
      </trkpt>
      <trkpt lat="45.1808" lon="0.91429">
        <ele>209.9944457</ele>
        <time>2022-08-18T08:51:43Z</time>
      </trkpt>
      <trkpt lat="45.18078" lon="0.91411">
        <ele>209.8537155</ele>
        <time>2022-08-18T08:51:45Z</time>
      </trkpt>
      <trkpt lat="45.18077" lon="0.91394">
        <ele>209.7005299</ele>
        <time>2022-08-18T08:51:47Z</time>
      </trkpt>
      <trkpt lat="45.18077" lon="0.91378">
        <ele>208.9605347</ele>
        <time>2022-08-18T08:51:49Z</time>
      </trkpt>
      <trkpt lat="45.18076" lon="0.91369">
        <ele>209.0043849</ele>
        <time>2022-08-18T08:51:50Z</time>
      </trkpt>
      <trkpt lat="45.18076" lon="0.91354">
        <ele>208.9688343</ele>
        <time>2022-08-18T08:51:52Z</time>
      </trkpt>
      <trkpt lat="45.18076" lon="0.91338">
        <ele>209.1930606</ele>
        <time>2022-08-18T08:51:54Z</time>
      </trkpt>
      <trkpt lat="45.18074" lon="0.91322">
        <ele>209.6028732</ele>
        <time>2022-08-18T08:51:56Z</time>
      </trkpt>
      <trkpt lat="45.18072" lon="0.91305">
        <ele>209.0894428</ele>
        <time>2022-08-18T08:51:58Z</time>
      </trkpt>
      <trkpt lat="45.1807" lon="0.91286">
        <ele>209.0079745</ele>
        <time>2022-08-18T08:52:00Z</time>
      </trkpt>
      <trkpt lat="45.18067" lon="0.91268">
        <ele>208.5846141</ele>
        <time>2022-08-18T08:52:02Z</time>
      </trkpt>
      <trkpt lat="45.18065" lon="0.91249">
        <ele>207.3343744</ele>
        <time>2022-08-18T08:52:04Z</time>
      </trkpt>
      <trkpt lat="45.18062" lon="0.91229">
        <ele>207.2641454</ele>
        <time>2022-08-18T08:52:06Z</time>
      </trkpt>
      <trkpt lat="45.18061" lon="0.91207">
        <ele>206.5541089</ele>
        <time>2022-08-18T08:52:08Z</time>
      </trkpt>
      <trkpt lat="45.18058" lon="0.91186">
        <ele>205.8349923</ele>
        <time>2022-08-18T08:52:10Z</time>
      </trkpt>
      <trkpt lat="45.18055" lon="0.91166">
        <ele>205.7902307</ele>
        <time>2022-08-18T08:52:12Z</time>
      </trkpt>
      <trkpt lat="45.18056" lon="0.91143">
        <ele>204.1109639</ele>
        <time>2022-08-18T08:52:14Z</time>
      </trkpt>
      <trkpt lat="45.18065" lon="0.91122">
        <ele>205.131656</ele>
        <time>2022-08-18T08:52:16Z</time>
      </trkpt>
      <trkpt lat="45.18072" lon="0.91105">
        <ele>203.8375695</ele>
        <time>2022-08-18T08:52:18Z</time>
      </trkpt>
      <trkpt lat="45.1808" lon="0.91086">
        <ele>203.7401291</ele>
        <time>2022-08-18T08:52:20Z</time>
      </trkpt>
      <trkpt lat="45.18084" lon="0.91066">
        <ele>202.5277372</ele>
        <time>2022-08-18T08:52:22Z</time>
      </trkpt>
      <trkpt lat="45.18085" lon="0.91043">
        <ele>201.3772629</ele>
        <time>2022-08-18T08:52:24Z</time>
      </trkpt>
      <trkpt lat="45.18084" lon="0.91021">
        <ele>200.5138985</ele>
        <time>2022-08-18T08:52:26Z</time>
      </trkpt>
      <trkpt lat="45.18081" lon="0.91002">
        <ele>199.4966452</ele>
        <time>2022-08-18T08:52:28Z</time>
      </trkpt>
      <trkpt lat="45.18078" lon="0.90977">
        <ele>197.7297936</ele>
        <time>2022-08-18T08:52:31Z</time>
      </trkpt>
      <trkpt lat="45.18078" lon="0.9097">
        <ele>197.5115984</ele>
        <time>2022-08-18T08:52:33Z</time>
      </trkpt>
      <trkpt lat="45.18078" lon="0.90964">
        <ele>197.1848655</ele>
        <time>2022-08-18T08:52:35Z</time>
      </trkpt>
      <trkpt lat="45.18077" lon="0.90959">
        <ele>197.656297</ele>
        <time>2022-08-18T08:52:37Z</time>
      </trkpt>
      <trkpt lat="45.18077" lon="0.90958">
        <ele>197.5978701</ele>
        <time>2022-08-18T08:52:39Z</time>
      </trkpt>
      <trkpt lat="45.18077" lon="0.90959">
        <ele>197.5173202</ele>
        <time>2022-08-18T08:52:41Z</time>
      </trkpt>
      <trkpt lat="45.18077" lon="0.90959">
        <ele>198.1239718</ele>
        <time>2022-08-18T08:52:43Z</time>
      </trkpt>
      <trkpt lat="45.18077" lon="0.90959">
        <ele>198.1124123</ele>
        <time>2022-08-18T08:52:45Z</time>
      </trkpt>
      <trkpt lat="45.18077" lon="0.90959">
        <ele>198.3361043</ele>
        <time>2022-08-18T08:52:47Z</time>
      </trkpt>
      <trkpt lat="45.18077" lon="0.90959">
        <ele>198.2964455</ele>
        <time>2022-08-18T08:52:49Z</time>
      </trkpt>
      <trkpt lat="45.18077" lon="0.90958">
        <ele>198.2209569</ele>
        <time>2022-08-18T08:52:51Z</time>
      </trkpt>
      <trkpt lat="45.18077" lon="0.90959">
        <ele>197.5931869</ele>
        <time>2022-08-18T08:52:53Z</time>
      </trkpt>
      <trkpt lat="45.18077" lon="0.90959">
        <ele>196.8456605</ele>
        <time>2022-08-18T08:52:55Z</time>
      </trkpt>
      <trkpt lat="45.18077" lon="0.90959">
        <ele>196.9944623</ele>
        <time>2022-08-18T08:52:57Z</time>
      </trkpt>
      <trkpt lat="45.18078" lon="0.90958">
        <ele>196.8836485</ele>
        <time>2022-08-18T08:52:59Z</time>
      </trkpt>
      <trkpt lat="45.18078" lon="0.90958">
        <ele>197.420718</ele>
        <time>2022-08-18T08:53:01Z</time>
      </trkpt>
      <trkpt lat="45.18079" lon="0.90958">
        <ele>197.9102985</ele>
        <time>2022-08-18T08:53:03Z</time>
      </trkpt>
      <trkpt lat="45.18079" lon="0.90959">
        <ele>198.9366719</ele>
        <time>2022-08-18T08:53:05Z</time>
      </trkpt>
      <trkpt lat="45.18079" lon="0.90959">
        <ele>199.8268893</ele>
        <time>2022-08-18T08:53:07Z</time>
      </trkpt>
      <trkpt lat="45.18078" lon="0.90958">
        <ele>200.7202833</ele>
        <time>2022-08-18T08:53:09Z</time>
      </trkpt>
      <trkpt lat="45.18077" lon="0.90958">
        <ele>202.0909387</ele>
        <time>2022-08-18T08:53:11Z</time>
      </trkpt>
      <trkpt lat="45.18077" lon="0.90958">
        <ele>202.6152607</ele>
        <time>2022-08-18T08:53:13Z</time>
      </trkpt>
      <trkpt lat="45.18077" lon="0.90958">
        <ele>202.6223023</ele>
        <time>2022-08-18T08:53:15Z</time>
      </trkpt>
      <trkpt lat="45.18077" lon="0.90958">
        <ele>203.2101001</ele>
        <time>2022-08-18T08:53:17Z</time>
      </trkpt>
      <trkpt lat="45.18077" lon="0.90958">
        <ele>202.3834363</ele>
        <time>2022-08-18T08:53:19Z</time>
      </trkpt>
      <trkpt lat="45.18077" lon="0.90958">
        <ele>201.4763551</ele>
        <time>2022-08-18T08:53:21Z</time>
      </trkpt>
      <trkpt lat="45.18077" lon="0.90959">
        <ele>200.5559165</ele>
        <time>2022-08-18T08:53:23Z</time>
      </trkpt>
      <trkpt lat="45.18077" lon="0.90958">
        <ele>200.1198758</ele>
        <time>2022-08-18T08:53:25Z</time>
      </trkpt>
      <trkpt lat="45.18077" lon="0.90958">
        <ele>199.4573556</ele>
        <time>2022-08-18T08:53:27Z</time>
      </trkpt>
      <trkpt lat="45.18077" lon="0.90958">
        <ele>198.6569777</ele>
        <time>2022-08-18T08:53:29Z</time>
      </trkpt>
      <trkpt lat="45.18076" lon="0.90958">
        <ele>198.7818565</ele>
        <time>2022-08-18T08:53:31Z</time>
      </trkpt>
      <trkpt lat="45.18077" lon="0.90958">
        <ele>198.8587603</ele>
        <time>2022-08-18T08:53:33Z</time>
      </trkpt>
      <trkpt lat="45.18077" lon="0.90958">
        <ele>198.16243</ele>
        <time>2022-08-18T08:53:35Z</time>
      </trkpt>
      <trkpt lat="45.18077" lon="0.90958">
        <ele>197.7024656</ele>
        <time>2022-08-18T08:53:37Z</time>
      </trkpt>
      <trkpt lat="45.18077" lon="0.90958">
        <ele>197.174363</ele>
        <time>2022-08-18T08:53:39Z</time>
      </trkpt>
      <trkpt lat="45.18077" lon="0.90958">
        <ele>197.494761</ele>
        <time>2022-08-18T08:53:41Z</time>
      </trkpt>
      <trkpt lat="45.18077" lon="0.90957">
        <ele>197.2778485</ele>
        <time>2022-08-18T08:53:43Z</time>
      </trkpt>
      <trkpt lat="45.18077" lon="0.90957">
        <ele>197.4122158</ele>
        <time>2022-08-18T08:53:45Z</time>
      </trkpt>
      <trkpt lat="45.18076" lon="0.90957">
        <ele>198.0652822</ele>
        <time>2022-08-18T08:53:47Z</time>
      </trkpt>
      <trkpt lat="45.18076" lon="0.90957">
        <ele>198.4854561</ele>
        <time>2022-08-18T08:53:48Z</time>
      </trkpt>
      <trkpt lat="45.18076" lon="0.90956">
        <ele>198.898744</ele>
        <time>2022-08-18T08:53:50Z</time>
      </trkpt>
      <trkpt lat="45.18076" lon="0.90956">
        <ele>199.0545596</ele>
        <time>2022-08-18T08:53:52Z</time>
      </trkpt>
      <trkpt lat="45.18076" lon="0.90957">
        <ele>199.0221243</ele>
        <time>2022-08-18T08:53:54Z</time>
      </trkpt>
      <trkpt lat="45.18075" lon="0.90957">
        <ele>198.6592555</ele>
        <time>2022-08-18T08:53:56Z</time>
      </trkpt>
      <trkpt lat="45.18075" lon="0.90957">
        <ele>198.3664322</ele>
        <time>2022-08-18T08:53:58Z</time>
      </trkpt>
      <trkpt lat="45.18075" lon="0.90957">
        <ele>198.3664322</ele>
        <time>2022-08-18T08:54:02Z</time>
      </trkpt>
      <trkpt lat="45.18075" lon="0.90957">
        <ele>198.3664322</ele>
        <time>2022-08-18T08:54:06Z</time>
      </trkpt>
      <trkpt lat="45.18074" lon="0.90955">
        <ele>198.744757</ele>
        <time>2022-08-18T08:54:08Z</time>
      </trkpt>
      <trkpt lat="45.18074" lon="0.90955">
        <ele>198.7447105</ele>
        <time>2022-08-18T08:54:10Z</time>
      </trkpt>
      <trkpt lat="45.18075" lon="0.90955">
        <ele>198.284219</ele>
        <time>2022-08-18T08:54:12Z</time>
      </trkpt>
      <trkpt lat="45.18075" lon="0.90955">
        <ele>198.280457</ele>
        <time>2022-08-18T08:54:14Z</time>
      </trkpt>
      <trkpt lat="45.18075" lon="0.90955">
        <ele>197.9783803</ele>
        <time>2022-08-18T08:54:16Z</time>
      </trkpt>
      <trkpt lat="45.18075" lon="0.90955">
        <ele>197.9846449</ele>
        <time>2022-08-18T08:54:18Z</time>
      </trkpt>
      <trkpt lat="45.18075" lon="0.90955">
        <ele>197.9846449</ele>
        <time>2022-08-18T08:54:22Z</time>
      </trkpt>
      <trkpt lat="45.18076" lon="0.90956">
        <ele>199.5930791</ele>
        <time>2022-08-18T08:54:26Z</time>
      </trkpt>
      <trkpt lat="45.18076" lon="0.90956">
        <ele>200.1591132</ele>
        <time>2022-08-18T08:54:28Z</time>
      </trkpt>
      <trkpt lat="45.18076" lon="0.90956">
        <ele>200.3544239</ele>
        <time>2022-08-18T08:54:30Z</time>
      </trkpt>
      <trkpt lat="45.18076" lon="0.90956">
        <ele>199.7392769</ele>
        <time>2022-08-18T08:54:32Z</time>
      </trkpt>
      <trkpt lat="45.18077" lon="0.90957">
        <ele>199.5509735</ele>
        <time>2022-08-18T08:54:34Z</time>
      </trkpt>
      <trkpt lat="45.18077" lon="0.90957">
        <ele>199.5978827</ele>
        <time>2022-08-18T08:54:37Z</time>
      </trkpt>
      <trkpt lat="45.18077" lon="0.90958">
        <ele>199.6321164</ele>
        <time>2022-08-18T08:54:39Z</time>
      </trkpt>
      <trkpt lat="45.18077" lon="0.90958">
        <ele>199.7653255</ele>
        <time>2022-08-18T08:54:41Z</time>
      </trkpt>
      <trkpt lat="45.18077" lon="0.90958">
        <ele>199.7174291</ele>
        <time>2022-08-18T08:54:43Z</time>
      </trkpt>
      <trkpt lat="45.18077" lon="0.90958">
        <ele>199.7174291</ele>
        <time>2022-08-18T08:54:47Z</time>
      </trkpt>
      <trkpt lat="45.18078" lon="0.90958">
        <ele>200.1788688</ele>
        <time>2022-08-18T08:54:51Z</time>
      </trkpt>
      <trkpt lat="45.18078" lon="0.90958">
        <ele>200.7685415</ele>
        <time>2022-08-18T08:54:53Z</time>
      </trkpt>
      <trkpt lat="45.18078" lon="0.90958">
        <ele>201.2169362</ele>
        <time>2022-08-18T08:54:55Z</time>
      </trkpt>
      <trkpt lat="45.18078" lon="0.90958">
        <ele>201.5383177</ele>
        <time>2022-08-18T08:54:57Z</time>
      </trkpt>
      <trkpt lat="45.18077" lon="0.90958">
        <ele>202.0186933</ele>
        <time>2022-08-18T08:54:59Z</time>
      </trkpt>
      <trkpt lat="45.18077" lon="0.90958">
        <ele>202.1507466</ele>
        <time>2022-08-18T08:55:00Z</time>
      </trkpt>
      <trkpt lat="45.18077" lon="0.90958">
        <ele>202.2929623</ele>
        <time>2022-08-18T08:55:02Z</time>
      </trkpt>
      <trkpt lat="45.18077" lon="0.90958">
        <ele>202.4138155</ele>
        <time>2022-08-18T08:55:04Z</time>
      </trkpt>
      <trkpt lat="45.18077" lon="0.90958">
        <ele>201.9815654</ele>
        <time>2022-08-18T08:55:06Z</time>
      </trkpt>
      <trkpt lat="45.18077" lon="0.90958">
        <ele>201.908019</ele>
        <time>2022-08-18T08:55:08Z</time>
      </trkpt>
      <trkpt lat="45.18077" lon="0.90958">
        <ele>201.7233241</ele>
        <time>2022-08-18T08:55:10Z</time>
      </trkpt>
      <trkpt lat="45.18077" lon="0.90958">
        <ele>201.4250832</ele>
        <time>2022-08-18T08:55:12Z</time>
      </trkpt>
      <trkpt lat="45.18077" lon="0.90958">
        <ele>201.4079223</ele>
        <time>2022-08-18T08:55:14Z</time>
      </trkpt>
      <trkpt lat="45.18076" lon="0.90958">
        <ele>201.0124077</ele>
        <time>2022-08-18T08:55:16Z</time>
      </trkpt>
      <trkpt lat="45.18076" lon="0.90958">
        <ele>201.0015426</ele>
        <time>2022-08-18T08:55:18Z</time>
      </trkpt>
      <trkpt lat="45.18077" lon="0.90958">
        <ele>200.6465069</ele>
        <time>2022-08-18T08:55:20Z</time>
      </trkpt>
      <trkpt lat="45.18077" lon="0.90958">
        <ele>200.555636</ele>
        <time>2022-08-18T08:55:22Z</time>
      </trkpt>
      <trkpt lat="45.18077" lon="0.90957">
        <ele>199.9628981</ele>
        <time>2022-08-18T08:55:24Z</time>
      </trkpt>
      <trkpt lat="45.18077" lon="0.90957">
        <ele>199.8573463</ele>
        <time>2022-08-18T08:55:26Z</time>
      </trkpt>
      <trkpt lat="45.18078" lon="0.90957">
        <ele>199.7239578</ele>
        <time>2022-08-18T08:55:28Z</time>
      </trkpt>
      <trkpt lat="45.18078" lon="0.90957">
        <ele>199.4821379</ele>
        <time>2022-08-18T08:55:30Z</time>
      </trkpt>
      <trkpt lat="45.18078" lon="0.90957">
        <ele>199.1634713</ele>
        <time>2022-08-18T08:55:32Z</time>
      </trkpt>
      <trkpt lat="45.18078" lon="0.90957">
        <ele>197.9142319</ele>
        <time>2022-08-18T08:55:34Z</time>
      </trkpt>
      <trkpt lat="45.18078" lon="0.90957">
        <ele>196.4071649</ele>
        <time>2022-08-18T08:55:36Z</time>
      </trkpt>
      <trkpt lat="45.18079" lon="0.90957">
        <ele>196.0301993</ele>
        <time>2022-08-18T08:55:38Z</time>
      </trkpt>
      <trkpt lat="45.18078" lon="0.90957">
        <ele>196.7297096</ele>
        <time>2022-08-18T08:55:40Z</time>
      </trkpt>
      <trkpt lat="45.18079" lon="0.90957">
        <ele>196.7363783</ele>
        <time>2022-08-18T08:55:42Z</time>
      </trkpt>
      <trkpt lat="45.18079" lon="0.90957">
        <ele>196.2262717</ele>
        <time>2022-08-18T08:55:44Z</time>
      </trkpt>
      <trkpt lat="45.18079" lon="0.90957">
        <ele>195.3400615</ele>
        <time>2022-08-18T08:55:46Z</time>
      </trkpt>
      <trkpt lat="45.18079" lon="0.90957">
        <ele>194.7287684</ele>
        <time>2022-08-18T08:55:48Z</time>
      </trkpt>
      <trkpt lat="45.18079" lon="0.90957">
        <ele>194.4426748</ele>
        <time>2022-08-18T08:55:50Z</time>
      </trkpt>
      <trkpt lat="45.18079" lon="0.90957">
        <ele>193.8913162</ele>
        <time>2022-08-18T08:55:52Z</time>
      </trkpt>
      <trkpt lat="45.18079" lon="0.90957">
        <ele>193.9517882</ele>
        <time>2022-08-18T08:55:54Z</time>
      </trkpt>
      <trkpt lat="45.18079" lon="0.90957">
        <ele>193.3041727</ele>
        <time>2022-08-18T08:55:56Z</time>
      </trkpt>
      <trkpt lat="45.1808" lon="0.90957">
        <ele>193.3207762</ele>
        <time>2022-08-18T08:55:58Z</time>
      </trkpt>
      <trkpt lat="45.1808" lon="0.90957">
        <ele>193.6343457</ele>
        <time>2022-08-18T08:56:00Z</time>
      </trkpt>
      <trkpt lat="45.1808" lon="0.90957">
        <ele>193.6710496</ele>
        <time>2022-08-18T08:56:02Z</time>
      </trkpt>
      <trkpt lat="45.1808" lon="0.90958">
        <ele>195.1557146</ele>
        <time>2022-08-18T08:56:04Z</time>
      </trkpt>
      <trkpt lat="45.1808" lon="0.90958">
        <ele>195.5968961</ele>
        <time>2022-08-18T08:56:06Z</time>
      </trkpt>
      <trkpt lat="45.18079" lon="0.90958">
        <ele>196.5115629</ele>
        <time>2022-08-18T08:56:08Z</time>
      </trkpt>
      <trkpt lat="45.18079" lon="0.90958">
        <ele>197.1768204</ele>
        <time>2022-08-18T08:56:10Z</time>
      </trkpt>
      <trkpt lat="45.18079" lon="0.90958">
        <ele>197.2139302</ele>
        <time>2022-08-18T08:56:12Z</time>
      </trkpt>
      <trkpt lat="45.18079" lon="0.90958">
        <ele>196.3937671</ele>
        <time>2022-08-18T08:56:14Z</time>
      </trkpt>
      <trkpt lat="45.18079" lon="0.90958">
        <ele>195.9280965</ele>
        <time>2022-08-18T08:56:16Z</time>
      </trkpt>
      <trkpt lat="45.1808" lon="0.90959">
        <ele>196.0188841</ele>
        <time>2022-08-18T08:56:18Z</time>
      </trkpt>
      <trkpt lat="45.1808" lon="0.90959">
        <ele>196.9246743</ele>
        <time>2022-08-18T08:56:20Z</time>
      </trkpt>
      <trkpt lat="45.18079" lon="0.90959">
        <ele>197.106038</ele>
        <time>2022-08-18T08:56:22Z</time>
      </trkpt>
      <trkpt lat="45.18079" lon="0.90959">
        <ele>197.0898215</ele>
        <time>2022-08-18T08:56:24Z</time>
      </trkpt>
      <trkpt lat="45.18079" lon="0.90959">
        <ele>197.3723095</ele>
        <time>2022-08-18T08:56:26Z</time>
      </trkpt>
      <trkpt lat="45.18079" lon="0.90959">
        <ele>197.8489314</ele>
        <time>2022-08-18T08:56:28Z</time>
      </trkpt>
      <trkpt lat="45.18079" lon="0.90959">
        <ele>197.7433794</ele>
        <time>2022-08-18T08:56:30Z</time>
      </trkpt>
      <trkpt lat="45.18079" lon="0.90959">
        <ele>198.167849</ele>
        <time>2022-08-18T08:56:32Z</time>
      </trkpt>
      <trkpt lat="45.18078" lon="0.90959">
        <ele>199.2059567</ele>
        <time>2022-08-18T08:56:34Z</time>
      </trkpt>
      <trkpt lat="45.18078" lon="0.90959">
        <ele>199.2281572</ele>
        <time>2022-08-18T08:56:36Z</time>
      </trkpt>
      <trkpt lat="45.18078" lon="0.90959">
        <ele>199.568079</ele>
        <time>2022-08-18T08:56:38Z</time>
      </trkpt>
      <trkpt lat="45.18078" lon="0.90959">
        <ele>200.7224043</ele>
        <time>2022-08-18T08:56:40Z</time>
      </trkpt>
      <trkpt lat="45.18078" lon="0.90959">
        <ele>199.9611692</ele>
        <time>2022-08-18T08:56:42Z</time>
      </trkpt>
      <trkpt lat="45.18078" lon="0.90959">
        <ele>199.8169324</ele>
        <time>2022-08-18T08:56:44Z</time>
      </trkpt>
      <trkpt lat="45.18078" lon="0.90959">
        <ele>199.8518407</ele>
        <time>2022-08-18T08:56:46Z</time>
      </trkpt>
      <trkpt lat="45.18079" lon="0.90958">
        <ele>199.0333249</ele>
        <time>2022-08-18T08:56:48Z</time>
      </trkpt>
      <trkpt lat="45.18079" lon="0.90957">
        <ele>198.2910152</ele>
        <time>2022-08-18T08:56:50Z</time>
      </trkpt>
      <trkpt lat="45.18079" lon="0.90957">
        <ele>197.126361</ele>
        <time>2022-08-18T08:56:52Z</time>
      </trkpt>
      <trkpt lat="45.18076" lon="0.90954">
        <ele>197.3048403</ele>
        <time>2022-08-18T08:56:54Z</time>
      </trkpt>
      <trkpt lat="45.18074" lon="0.90953">
        <ele>197.380508</ele>
        <time>2022-08-18T08:56:56Z</time>
      </trkpt>
      <trkpt lat="45.1807" lon="0.90954">
        <ele>196.9277792</ele>
        <time>2022-08-18T08:56:58Z</time>
      </trkpt>
      <trkpt lat="45.18066" lon="0.9096">
        <ele>196.5538368</ele>
        <time>2022-08-18T08:57:00Z</time>
      </trkpt>
      <trkpt lat="45.18066" lon="0.90976">
        <ele>195.6923985</ele>
        <time>2022-08-18T08:57:02Z</time>
      </trkpt>
      <trkpt lat="45.18067" lon="0.90989">
        <ele>195.0954133</ele>
        <time>2022-08-18T08:57:04Z</time>
      </trkpt>
      <trkpt lat="45.18062" lon="0.91002">
        <ele>194.1536744</ele>
        <time>2022-08-18T08:57:06Z</time>
      </trkpt>
      <trkpt lat="45.18054" lon="0.91012">
        <ele>193.3125365</ele>
        <time>2022-08-18T08:57:08Z</time>
      </trkpt>
      <trkpt lat="45.18044" lon="0.91021">
        <ele>191.9616684</ele>
        <time>2022-08-18T08:57:10Z</time>
      </trkpt>
      <trkpt lat="45.18034" lon="0.9103">
        <ele>190.3260075</ele>
        <time>2022-08-18T08:57:12Z</time>
      </trkpt>
      <trkpt lat="45.18018" lon="0.91046">
        <ele>188.4213613</ele>
        <time>2022-08-18T08:57:15Z</time>
      </trkpt>
      <trkpt lat="45.18007" lon="0.91057">
        <ele>186.8493894</ele>
        <time>2022-08-18T08:57:17Z</time>
      </trkpt>
      <trkpt lat="45.17998" lon="0.91065">
        <ele>185.1233217</ele>
        <time>2022-08-18T08:57:19Z</time>
      </trkpt>
      <trkpt lat="45.17989" lon="0.91074">
        <ele>183.7687122</ele>
        <time>2022-08-18T08:57:21Z</time>
      </trkpt>
      <trkpt lat="45.17978" lon="0.91083">
        <ele>182.0237544</ele>
        <time>2022-08-18T08:57:23Z</time>
      </trkpt>
      <trkpt lat="45.17966" lon="0.91086">
        <ele>180.2495628</ele>
        <time>2022-08-18T08:57:25Z</time>
      </trkpt>
      <trkpt lat="45.17954" lon="0.9108">
        <ele>178.4207506</ele>
        <time>2022-08-18T08:57:27Z</time>
      </trkpt>
      <trkpt lat="45.17942" lon="0.91067">
        <ele>176.174482</ele>
        <time>2022-08-18T08:57:29Z</time>
      </trkpt>
      <trkpt lat="45.17929" lon="0.91054">
        <ele>173.8518355</ele>
        <time>2022-08-18T08:57:31Z</time>
      </trkpt>
      <trkpt lat="45.17914" lon="0.9104">
        <ele>171.1020154</ele>
        <time>2022-08-18T08:57:33Z</time>
      </trkpt>
      <trkpt lat="45.17899" lon="0.9103">
        <ele>168.3778718</ele>
        <time>2022-08-18T08:57:35Z</time>
      </trkpt>
      <trkpt lat="45.17882" lon="0.91023">
        <ele>165.9198113</ele>
        <time>2022-08-18T08:57:37Z</time>
      </trkpt>
      <trkpt lat="45.17864" lon="0.91019">
        <ele>163.5809998</ele>
        <time>2022-08-18T08:57:39Z</time>
      </trkpt>
      <trkpt lat="45.17844" lon="0.91019">
        <ele>161.6392401</ele>
        <time>2022-08-18T08:57:41Z</time>
      </trkpt>
      <trkpt lat="45.17823" lon="0.91021">
        <ele>159.6802328</ele>
        <time>2022-08-18T08:57:43Z</time>
      </trkpt>
      <trkpt lat="45.17802" lon="0.91022">
        <ele>157.0032804</ele>
        <time>2022-08-18T08:57:45Z</time>
      </trkpt>
      <trkpt lat="45.1778" lon="0.91024">
        <ele>155.0124441</ele>
        <time>2022-08-18T08:57:47Z</time>
      </trkpt>
      <trkpt lat="45.17759" lon="0.91024">
        <ele>152.7172877</ele>
        <time>2022-08-18T08:57:49Z</time>
      </trkpt>
      <trkpt lat="45.17749" lon="0.91023">
        <ele>151.3680108</ele>
        <time>2022-08-18T08:57:50Z</time>
      </trkpt>
      <trkpt lat="45.17729" lon="0.91012">
        <ele>148.9138721</ele>
        <time>2022-08-18T08:57:52Z</time>
      </trkpt>
      <trkpt lat="45.17708" lon="0.90992">
        <ele>147.5287747</ele>
        <time>2022-08-18T08:57:54Z</time>
      </trkpt>
      <trkpt lat="45.17689" lon="0.90974">
        <ele>145.6939559</ele>
        <time>2022-08-18T08:57:56Z</time>
      </trkpt>
      <trkpt lat="45.1767" lon="0.90953">
        <ele>144.7172613</ele>
        <time>2022-08-18T08:57:58Z</time>
      </trkpt>
      <trkpt lat="45.17653" lon="0.90931">
        <ele>142.4534997</ele>
        <time>2022-08-18T08:58:00Z</time>
      </trkpt>
      <trkpt lat="45.17634" lon="0.90908">
        <ele>141.3697063</ele>
        <time>2022-08-18T08:58:02Z</time>
      </trkpt>
      <trkpt lat="45.17615" lon="0.90889">
        <ele>140.8978286</ele>
        <time>2022-08-18T08:58:04Z</time>
      </trkpt>
      <trkpt lat="45.17595" lon="0.90874">
        <ele>140.4479075</ele>
        <time>2022-08-18T08:58:06Z</time>
      </trkpt>
      <trkpt lat="45.17575" lon="0.90859">
        <ele>139.5292724</ele>
        <time>2022-08-18T08:58:08Z</time>
      </trkpt>
      <trkpt lat="45.17556" lon="0.90844">
        <ele>138.3551258</ele>
        <time>2022-08-18T08:58:10Z</time>
      </trkpt>
      <trkpt lat="45.1754" lon="0.90824">
        <ele>137.9032178</ele>
        <time>2022-08-18T08:58:12Z</time>
      </trkpt>
      <trkpt lat="45.17526" lon="0.90801">
        <ele>138.1334202</ele>
        <time>2022-08-18T08:58:14Z</time>
      </trkpt>
      <trkpt lat="45.17512" lon="0.90779">
        <ele>137.8503557</ele>
        <time>2022-08-18T08:58:16Z</time>
      </trkpt>
      <trkpt lat="45.17495" lon="0.90764">
        <ele>137.5695799</ele>
        <time>2022-08-18T08:58:18Z</time>
      </trkpt>
      <trkpt lat="45.17479" lon="0.90752">
        <ele>137.5291353</ele>
        <time>2022-08-18T08:58:20Z</time>
      </trkpt>
      <trkpt lat="45.17464" lon="0.90742">
        <ele>137.9784645</ele>
        <time>2022-08-18T08:58:22Z</time>
      </trkpt>
      <trkpt lat="45.17451" lon="0.90733">
        <ele>137.9115173</ele>
        <time>2022-08-18T08:58:24Z</time>
      </trkpt>
      <trkpt lat="45.17439" lon="0.90726">
        <ele>138.4091383</ele>
        <time>2022-08-18T08:58:26Z</time>
      </trkpt>
      <trkpt lat="45.17431" lon="0.90723">
        <ele>138.7001649</ele>
        <time>2022-08-18T08:58:28Z</time>
      </trkpt>
      <trkpt lat="45.17427" lon="0.90722">
        <ele>139.5857123</ele>
        <time>2022-08-18T08:58:30Z</time>
      </trkpt>
      <trkpt lat="45.17427" lon="0.90726">
        <ele>139.9672673</ele>
        <time>2022-08-18T08:58:32Z</time>
      </trkpt>
      <trkpt lat="45.17429" lon="0.90727">
        <ele>140.6724137</ele>
        <time>2022-08-18T08:58:34Z</time>
      </trkpt>
      <trkpt lat="45.17429" lon="0.90728">
        <ele>140.8443009</ele>
        <time>2022-08-18T08:58:36Z</time>
      </trkpt>
      <trkpt lat="45.17429" lon="0.90728">
        <ele>141.0463766</ele>
        <time>2022-08-18T08:58:38Z</time>
      </trkpt>
      <trkpt lat="45.17429" lon="0.90729">
        <ele>141.5735666</ele>
        <time>2022-08-18T08:58:40Z</time>
      </trkpt>
      <trkpt lat="45.1743" lon="0.90729">
        <ele>141.8176016</ele>
        <time>2022-08-18T08:58:42Z</time>
      </trkpt>
      <trkpt lat="45.1743" lon="0.9073">
        <ele>142.2027014</ele>
        <time>2022-08-18T08:58:44Z</time>
      </trkpt>
      <trkpt lat="45.17431" lon="0.9073">
        <ele>142.4145364</ele>
        <time>2022-08-18T08:58:46Z</time>
      </trkpt>
      <trkpt lat="45.17431" lon="0.9073">
        <ele>142.9003519</ele>
        <time>2022-08-18T08:58:48Z</time>
      </trkpt>
      <trkpt lat="45.17432" lon="0.90731">
        <ele>143.5515975</ele>
        <time>2022-08-18T08:58:50Z</time>
      </trkpt>
      <trkpt lat="45.17432" lon="0.90731">
        <ele>144.011688</ele>
        <time>2022-08-18T08:58:52Z</time>
      </trkpt>
      <trkpt lat="45.17433" lon="0.90732">
        <ele>143.2556559</ele>
        <time>2022-08-18T08:58:54Z</time>
      </trkpt>
      <trkpt lat="45.17434" lon="0.90732">
        <ele>143.3411669</ele>
        <time>2022-08-18T08:58:56Z</time>
      </trkpt>
      <trkpt lat="45.17434" lon="0.90732">
        <ele>143.3411669</ele>
        <time>2022-08-18T08:59:00Z</time>
      </trkpt>
      <trkpt lat="45.17434" lon="0.90733">
        <ele>144.6143848</ele>
        <time>2022-08-18T08:59:02Z</time>
      </trkpt>
      <trkpt lat="45.17435" lon="0.90733">
        <ele>144.5320483</ele>
        <time>2022-08-18T08:59:04Z</time>
      </trkpt>
      <trkpt lat="45.17435" lon="0.90733">
        <ele>144.5108387</ele>
        <time>2022-08-18T08:59:06Z</time>
      </trkpt>
      <trkpt lat="45.17436" lon="0.90732">
        <ele>144.2129802</ele>
        <time>2022-08-18T08:59:08Z</time>
      </trkpt>
      <trkpt lat="45.17436" lon="0.90732">
        <ele>144.0777552</ele>
        <time>2022-08-18T08:59:10Z</time>
      </trkpt>
      <trkpt lat="45.17437" lon="0.90731">
        <ele>145.0947002</ele>
        <time>2022-08-18T08:59:14Z</time>
      </trkpt>
      <trkpt lat="45.17437" lon="0.90731">
        <ele>145.1256867</ele>
        <time>2022-08-18T08:59:16Z</time>
      </trkpt>
      <trkpt lat="45.17439" lon="0.90732">
        <ele>145.2924193</ele>
        <time>2022-08-18T08:59:18Z</time>
      </trkpt>
      <trkpt lat="45.17442" lon="0.90733">
        <ele>144.9914794</ele>
        <time>2022-08-18T08:59:20Z</time>
      </trkpt>
      <trkpt lat="45.17447" lon="0.90735">
        <ele>145.1842549</ele>
        <time>2022-08-18T08:59:22Z</time>
      </trkpt>
      <trkpt lat="45.17452" lon="0.90737">
        <ele>145.5782706</ele>
        <time>2022-08-18T08:59:24Z</time>
      </trkpt>
      <trkpt lat="45.17454" lon="0.90734">
        <ele>145.0222028</ele>
        <time>2022-08-18T08:59:26Z</time>
      </trkpt>
      <trkpt lat="45.17454" lon="0.90722">
        <ele>142.5736411</ele>
        <time>2022-08-18T08:59:28Z</time>
      </trkpt>
      <trkpt lat="45.17451" lon="0.9071">
        <ele>141.6988637</ele>
        <time>2022-08-18T08:59:30Z</time>
      </trkpt>
      <trkpt lat="45.17448" lon="0.90696">
        <ele>139.8430885</ele>
        <time>2022-08-18T08:59:32Z</time>
      </trkpt>
      <trkpt lat="45.17444" lon="0.9068">
        <ele>137.7503381</ele>
        <time>2022-08-18T08:59:34Z</time>
      </trkpt>
      <trkpt lat="45.17437" lon="0.90662">
        <ele>136.5256295</ele>
        <time>2022-08-18T08:59:36Z</time>
      </trkpt>
      <trkpt lat="45.17431" lon="0.90645">
        <ele>136.1603346</ele>
        <time>2022-08-18T08:59:38Z</time>
      </trkpt>
      <trkpt lat="45.17423" lon="0.90629">
        <ele>135.2785952</ele>
        <time>2022-08-18T08:59:40Z</time>
      </trkpt>
      <trkpt lat="45.17414" lon="0.90616">
        <ele>134.8640334</ele>
        <time>2022-08-18T08:59:42Z</time>
      </trkpt>
      <trkpt lat="45.17406" lon="0.90604">
        <ele>134.9974726</ele>
        <time>2022-08-18T08:59:44Z</time>
      </trkpt>
      <trkpt lat="45.17398" lon="0.90593">
        <ele>134.77146</ele>
        <time>2022-08-18T08:59:46Z</time>
      </trkpt>
      <trkpt lat="45.1739" lon="0.90581">
        <ele>134.4638737</ele>
        <time>2022-08-18T08:59:48Z</time>
      </trkpt>
      <trkpt lat="45.17382" lon="0.90571">
        <ele>134.3422575</ele>
        <time>2022-08-18T08:59:50Z</time>
      </trkpt>
      <trkpt lat="45.17374" lon="0.90561">
        <ele>134.3794766</ele>
        <time>2022-08-18T08:59:52Z</time>
      </trkpt>
      <trkpt lat="45.17366" lon="0.9055">
        <ele>134.0350149</ele>
        <time>2022-08-18T08:59:54Z</time>
      </trkpt>
      <trkpt lat="45.17358" lon="0.90538">
        <ele>134.0089339</ele>
        <time>2022-08-18T08:59:56Z</time>
      </trkpt>
      <trkpt lat="45.17351" lon="0.90525">
        <ele>133.6707401</ele>
        <time>2022-08-18T08:59:58Z</time>
      </trkpt>
      <trkpt lat="45.17343" lon="0.90512">
        <ele>133.2796901</ele>
        <time>2022-08-18T09:00:00Z</time>
      </trkpt>
      <trkpt lat="45.17336" lon="0.90498">
        <ele>132.7506321</ele>
        <time>2022-08-18T09:00:02Z</time>
      </trkpt>
      <trkpt lat="45.17329" lon="0.90484">
        <ele>132.1492455</ele>
        <time>2022-08-18T09:00:04Z</time>
      </trkpt>
      <trkpt lat="45.17322" lon="0.9047">
        <ele>131.881224</ele>
        <time>2022-08-18T09:00:06Z</time>
      </trkpt>
      <trkpt lat="45.17316" lon="0.90457">
        <ele>131.186613</ele>
        <time>2022-08-18T09:00:08Z</time>
      </trkpt>
      <trkpt lat="45.1731" lon="0.90443">
        <ele>130.2900473</ele>
        <time>2022-08-18T09:00:10Z</time>
      </trkpt>
      <trkpt lat="45.17303" lon="0.9043">
        <ele>130.3576199</ele>
        <time>2022-08-18T09:00:12Z</time>
      </trkpt>
      <trkpt lat="45.17297" lon="0.90416">
        <ele>130.0392989</ele>
        <time>2022-08-18T09:00:14Z</time>
      </trkpt>
      <trkpt lat="45.17292" lon="0.90404">
        <ele>129.9748807</ele>
        <time>2022-08-18T09:00:16Z</time>
      </trkpt>
      <trkpt lat="45.17285" lon="0.9039">
        <ele>129.7901277</ele>
        <time>2022-08-18T09:00:18Z</time>
      </trkpt>
      <trkpt lat="45.17279" lon="0.90377">
        <ele>129.7509386</ele>
        <time>2022-08-18T09:00:20Z</time>
      </trkpt>
      <trkpt lat="45.17273" lon="0.90363">
        <ele>129.3888127</ele>
        <time>2022-08-18T09:00:22Z</time>
      </trkpt>
      <trkpt lat="45.17268" lon="0.90349">
        <ele>129.1905693</ele>
        <time>2022-08-18T09:00:24Z</time>
      </trkpt>
      <trkpt lat="45.17263" lon="0.90335">
        <ele>129.1976065</ele>
        <time>2022-08-18T09:00:26Z</time>
      </trkpt>
      <trkpt lat="45.1726" lon="0.9032">
        <ele>128.8700316</ele>
        <time>2022-08-18T09:00:28Z</time>
      </trkpt>
      <trkpt lat="45.17258" lon="0.90304">
        <ele>128.7391053</ele>
        <time>2022-08-18T09:00:30Z</time>
      </trkpt>
      <trkpt lat="45.17258" lon="0.90287">
        <ele>128.5315594</ele>
        <time>2022-08-18T09:00:32Z</time>
      </trkpt>
      <trkpt lat="45.17259" lon="0.90269">
        <ele>128.4420652</ele>
        <time>2022-08-18T09:00:34Z</time>
      </trkpt>
      <trkpt lat="45.17261" lon="0.90251">
        <ele>128.0038927</ele>
        <time>2022-08-18T09:00:36Z</time>
      </trkpt>
      <trkpt lat="45.17263" lon="0.90231">
        <ele>127.8217802</ele>
        <time>2022-08-18T09:00:38Z</time>
      </trkpt>
      <trkpt lat="45.17266" lon="0.90213">
        <ele>127.5123162</ele>
        <time>2022-08-18T09:00:40Z</time>
      </trkpt>
      <trkpt lat="45.17269" lon="0.90194">
        <ele>127.1554399</ele>
        <time>2022-08-18T09:00:42Z</time>
      </trkpt>
      <trkpt lat="45.17274" lon="0.90177">
        <ele>126.4418235</ele>
        <time>2022-08-18T09:00:44Z</time>
      </trkpt>
      <trkpt lat="45.17279" lon="0.9016">
        <ele>126.0295297</ele>
        <time>2022-08-18T09:00:46Z</time>
      </trkpt>
      <trkpt lat="45.17285" lon="0.90144">
        <ele>125.821439</ele>
        <time>2022-08-18T09:00:48Z</time>
      </trkpt>
      <trkpt lat="45.17291" lon="0.90128">
        <ele>125.957041</ele>
        <time>2022-08-18T09:00:50Z</time>
      </trkpt>
      <trkpt lat="45.17298" lon="0.90113">
        <ele>125.3442188</ele>
        <time>2022-08-18T09:00:52Z</time>
      </trkpt>
      <trkpt lat="45.17303" lon="0.90096">
        <ele>125.4560201</ele>
        <time>2022-08-18T09:00:54Z</time>
      </trkpt>
      <trkpt lat="45.17308" lon="0.9008">
        <ele>125.31909</ele>
        <time>2022-08-18T09:00:56Z</time>
      </trkpt>
      <trkpt lat="45.17312" lon="0.90063">
        <ele>124.3291601</ele>
        <time>2022-08-18T09:00:58Z</time>
      </trkpt>
      <trkpt lat="45.17314" lon="0.90046">
        <ele>123.397094</ele>
        <time>2022-08-18T09:01:00Z</time>
      </trkpt>
      <trkpt lat="45.17316" lon="0.9003">
        <ele>124.2258498</ele>
        <time>2022-08-18T09:01:02Z</time>
      </trkpt>
      <trkpt lat="45.17317" lon="0.90014">
        <ele>123.6165695</ele>
        <time>2022-08-18T09:01:04Z</time>
      </trkpt>
      <trkpt lat="45.17315" lon="0.89998">
        <ele>123.7842007</ele>
        <time>2022-08-18T09:01:06Z</time>
      </trkpt>
      <trkpt lat="45.17311" lon="0.89983">
        <ele>123.7432974</ele>
        <time>2022-08-18T09:01:08Z</time>
      </trkpt>
      <trkpt lat="45.17308" lon="0.89968">
        <ele>123.6888424</ele>
        <time>2022-08-18T09:01:10Z</time>
      </trkpt>
      <trkpt lat="45.17303" lon="0.89952">
        <ele>123.4747962</ele>
        <time>2022-08-18T09:01:12Z</time>
      </trkpt>
      <trkpt lat="45.17299" lon="0.89936">
        <ele>123.353767</ele>
        <time>2022-08-18T09:01:14Z</time>
      </trkpt>
      <trkpt lat="45.17295" lon="0.89919">
        <ele>123.6552241</ele>
        <time>2022-08-18T09:01:16Z</time>
      </trkpt>
      <trkpt lat="45.1729" lon="0.89902">
        <ele>123.7349281</ele>
        <time>2022-08-18T09:01:18Z</time>
      </trkpt>
      <trkpt lat="45.17287" lon="0.89885">
        <ele>123.5594287</ele>
        <time>2022-08-18T09:01:20Z</time>
      </trkpt>
      <trkpt lat="45.17283" lon="0.8987">
        <ele>123.4634377</ele>
        <time>2022-08-18T09:01:22Z</time>
      </trkpt>
      <trkpt lat="45.1728" lon="0.89853">
        <ele>123.2190768</ele>
        <time>2022-08-18T09:01:24Z</time>
      </trkpt>
      <trkpt lat="45.17276" lon="0.89837">
        <ele>123.4477208</ele>
        <time>2022-08-18T09:01:26Z</time>
      </trkpt>
      <trkpt lat="45.17273" lon="0.8982">
        <ele>123.3936959</ele>
        <time>2022-08-18T09:01:28Z</time>
      </trkpt>
      <trkpt lat="45.17271" lon="0.89803">
        <ele>123.7329701</ele>
        <time>2022-08-18T09:01:30Z</time>
      </trkpt>
      <trkpt lat="45.1727" lon="0.89786">
        <ele>123.3927373</ele>
        <time>2022-08-18T09:01:32Z</time>
      </trkpt>
      <trkpt lat="45.17272" lon="0.89769">
        <ele>123.3117357</ele>
        <time>2022-08-18T09:01:34Z</time>
      </trkpt>
      <trkpt lat="45.17275" lon="0.89753">
        <ele>122.5934655</ele>
        <time>2022-08-18T09:01:36Z</time>
      </trkpt>
      <trkpt lat="45.1728" lon="0.89736">
        <ele>122.7082208</ele>
        <time>2022-08-18T09:01:38Z</time>
      </trkpt>
      <trkpt lat="45.17284" lon="0.8972">
        <ele>122.5742279</ele>
        <time>2022-08-18T09:01:40Z</time>
      </trkpt>
      <trkpt lat="45.17291" lon="0.89705">
        <ele>122.4167369</ele>
        <time>2022-08-18T09:01:42Z</time>
      </trkpt>
      <trkpt lat="45.17296" lon="0.8969">
        <ele>123.2321183</ele>
        <time>2022-08-18T09:01:44Z</time>
      </trkpt>
      <trkpt lat="45.17301" lon="0.89675">
        <ele>123.4225282</ele>
        <time>2022-08-18T09:01:46Z</time>
      </trkpt>
      <trkpt lat="45.17306" lon="0.89659">
        <ele>123.669726</ele>
        <time>2022-08-18T09:01:48Z</time>
      </trkpt>
      <trkpt lat="45.17311" lon="0.89644">
        <ele>124.0486697</ele>
        <time>2022-08-18T09:01:50Z</time>
      </trkpt>
      <trkpt lat="45.17317" lon="0.89628">
        <ele>124.0613768</ele>
        <time>2022-08-18T09:01:52Z</time>
      </trkpt>
      <trkpt lat="45.17323" lon="0.89614">
        <ele>123.9711766</ele>
        <time>2022-08-18T09:01:54Z</time>
      </trkpt>
      <trkpt lat="45.17328" lon="0.896">
        <ele>123.7737753</ele>
        <time>2022-08-18T09:01:56Z</time>
      </trkpt>
      <trkpt lat="45.17333" lon="0.89585">
        <ele>124.0706994</ele>
        <time>2022-08-18T09:01:58Z</time>
      </trkpt>
      <trkpt lat="45.17337" lon="0.89569">
        <ele>123.6671804</ele>
        <time>2022-08-18T09:02:00Z</time>
      </trkpt>
      <trkpt lat="45.17342" lon="0.89554">
        <ele>123.1476196</ele>
        <time>2022-08-18T09:02:02Z</time>
      </trkpt>
      <trkpt lat="45.17346" lon="0.89538">
        <ele>123.4721764</ele>
        <time>2022-08-18T09:02:04Z</time>
      </trkpt>
      <trkpt lat="45.17351" lon="0.89522">
        <ele>123.611245</ele>
        <time>2022-08-18T09:02:06Z</time>
      </trkpt>
      <trkpt lat="45.17356" lon="0.89507">
        <ele>122.6382637</ele>
        <time>2022-08-18T09:02:08Z</time>
      </trkpt>
      <trkpt lat="45.1736" lon="0.8949">
        <ele>122.6962586</ele>
        <time>2022-08-18T09:02:10Z</time>
      </trkpt>
      <trkpt lat="45.17364" lon="0.89474">
        <ele>122.5068247</ele>
        <time>2022-08-18T09:02:12Z</time>
      </trkpt>
      <trkpt lat="45.17368" lon="0.89457">
        <ele>122.7969198</ele>
        <time>2022-08-18T09:02:14Z</time>
      </trkpt>
      <trkpt lat="45.17372" lon="0.89442">
        <ele>122.9454629</ele>
        <time>2022-08-18T09:02:16Z</time>
      </trkpt>
      <trkpt lat="45.17377" lon="0.89426">
        <ele>122.0959862</ele>
        <time>2022-08-18T09:02:18Z</time>
      </trkpt>
      <trkpt lat="45.17381" lon="0.89411">
        <ele>122.4548084</ele>
        <time>2022-08-18T09:02:20Z</time>
      </trkpt>
      <trkpt lat="45.17387" lon="0.89396">
        <ele>122.6398587</ele>
        <time>2022-08-18T09:02:22Z</time>
      </trkpt>
      <trkpt lat="45.17393" lon="0.89381">
        <ele>122.3913609</ele>
        <time>2022-08-18T09:02:24Z</time>
      </trkpt>
      <trkpt lat="45.17398" lon="0.89367">
        <ele>122.6450408</ele>
        <time>2022-08-18T09:02:26Z</time>
      </trkpt>
      <trkpt lat="45.17404" lon="0.89355">
        <ele>122.7110924</ele>
        <time>2022-08-18T09:02:28Z</time>
      </trkpt>
      <trkpt lat="45.1741" lon="0.89345">
        <ele>122.8156928</ele>
        <time>2022-08-18T09:02:30Z</time>
      </trkpt>
      <trkpt lat="45.17414" lon="0.89336">
        <ele>123.4918024</ele>
        <time>2022-08-18T09:02:32Z</time>
      </trkpt>
      <trkpt lat="45.17419" lon="0.89329">
        <ele>124.5782214</ele>
        <time>2022-08-18T09:02:34Z</time>
      </trkpt>
      <trkpt lat="45.17423" lon="0.89323">
        <ele>125.5735153</ele>
        <time>2022-08-18T09:02:36Z</time>
      </trkpt>
      <trkpt lat="45.17426" lon="0.89317">
        <ele>125.5440985</ele>
        <time>2022-08-18T09:02:38Z</time>
      </trkpt>
      <trkpt lat="45.1743" lon="0.89311">
        <ele>125.6672201</ele>
        <time>2022-08-18T09:02:40Z</time>
      </trkpt>
      <trkpt lat="45.17433" lon="0.89306">
        <ele>125.8068236</ele>
        <time>2022-08-18T09:02:42Z</time>
      </trkpt>
      <trkpt lat="45.17437" lon="0.893">
        <ele>126.0071422</ele>
        <time>2022-08-18T09:02:44Z</time>
      </trkpt>
      <trkpt lat="45.1744" lon="0.89296">
        <ele>126.0217842</ele>
        <time>2022-08-18T09:02:46Z</time>
      </trkpt>
      <trkpt lat="45.17443" lon="0.89291">
        <ele>126.5603204</ele>
        <time>2022-08-18T09:02:48Z</time>
      </trkpt>
      <trkpt lat="45.17447" lon="0.89286">
        <ele>126.7581144</ele>
        <time>2022-08-18T09:02:50Z</time>
      </trkpt>
      <trkpt lat="45.1745" lon="0.89281">
        <ele>127.1135651</ele>
        <time>2022-08-18T09:02:52Z</time>
      </trkpt>
      <trkpt lat="45.17454" lon="0.89278">
        <ele>127.4461439</ele>
        <time>2022-08-18T09:02:54Z</time>
      </trkpt>
      <trkpt lat="45.17459" lon="0.89274">
        <ele>127.6285583</ele>
        <time>2022-08-18T09:02:56Z</time>
      </trkpt>
      <trkpt lat="45.17462" lon="0.89272">
        <ele>127.6958081</ele>
        <time>2022-08-18T09:02:58Z</time>
      </trkpt>
      <trkpt lat="45.17467" lon="0.89267">
        <ele>128.8530862</ele>
        <time>2022-08-18T09:03:00Z</time>
      </trkpt>
      <trkpt lat="45.17471" lon="0.89263">
        <ele>129.4324729</ele>
        <time>2022-08-18T09:03:02Z</time>
      </trkpt>
      <trkpt lat="45.17475" lon="0.89258">
        <ele>129.5662115</ele>
        <time>2022-08-18T09:03:04Z</time>
      </trkpt>
      <trkpt lat="45.17479" lon="0.89254">
        <ele>129.9247329</ele>
        <time>2022-08-18T09:03:06Z</time>
      </trkpt>
      <trkpt lat="45.17485" lon="0.89251">
        <ele>130.4493697</ele>
        <time>2022-08-18T09:03:08Z</time>
      </trkpt>
      <trkpt lat="45.1749" lon="0.89249">
        <ele>130.4964778</ele>
        <time>2022-08-18T09:03:10Z</time>
      </trkpt>
      <trkpt lat="45.17495" lon="0.89245">
        <ele>130.7422039</ele>
        <time>2022-08-18T09:03:12Z</time>
      </trkpt>
      <trkpt lat="45.175" lon="0.89241">
        <ele>130.4201782</ele>
        <time>2022-08-18T09:03:14Z</time>
      </trkpt>
      <trkpt lat="45.17506" lon="0.89237">
        <ele>130.6034454</ele>
        <time>2022-08-18T09:03:16Z</time>
      </trkpt>
      <trkpt lat="45.17513" lon="0.89234">
        <ele>130.6879939</ele>
        <time>2022-08-18T09:03:18Z</time>
      </trkpt>
      <trkpt lat="45.17519" lon="0.8923">
        <ele>131.0013243</ele>
        <time>2022-08-18T09:03:20Z</time>
      </trkpt>
      <trkpt lat="45.17525" lon="0.89228">
        <ele>131.0322821</ele>
        <time>2022-08-18T09:03:22Z</time>
      </trkpt>
      <trkpt lat="45.17531" lon="0.89224">
        <ele>131.1012425</ele>
        <time>2022-08-18T09:03:24Z</time>
      </trkpt>
      <trkpt lat="45.17537" lon="0.89221">
        <ele>130.8268627</ele>
        <time>2022-08-18T09:03:26Z</time>
      </trkpt>
      <trkpt lat="45.17542" lon="0.89218">
        <ele>129.8615101</ele>
        <time>2022-08-18T09:03:28Z</time>
      </trkpt>
      <trkpt lat="45.17547" lon="0.89215">
        <ele>130.3836883</ele>
        <time>2022-08-18T09:03:30Z</time>
      </trkpt>
      <trkpt lat="45.17552" lon="0.89212">
        <ele>130.3145958</ele>
        <time>2022-08-18T09:03:32Z</time>
      </trkpt>
      <trkpt lat="45.17556" lon="0.89209">
        <ele>130.7396675</ele>
        <time>2022-08-18T09:03:34Z</time>
      </trkpt>
      <trkpt lat="45.17561" lon="0.89207">
        <ele>130.9111255</ele>
        <time>2022-08-18T09:03:36Z</time>
      </trkpt>
      <trkpt lat="45.17566" lon="0.89204">
        <ele>130.700997</ele>
        <time>2022-08-18T09:03:38Z</time>
      </trkpt>
      <trkpt lat="45.17572" lon="0.89201">
        <ele>130.648564</ele>
        <time>2022-08-18T09:03:40Z</time>
      </trkpt>
      <trkpt lat="45.17577" lon="0.89198">
        <ele>130.6356103</ele>
        <time>2022-08-18T09:03:42Z</time>
      </trkpt>
      <trkpt lat="45.17583" lon="0.89194">
        <ele>131.08464</ele>
        <time>2022-08-18T09:03:44Z</time>
      </trkpt>
      <trkpt lat="45.17588" lon="0.89192">
        <ele>130.9378621</ele>
        <time>2022-08-18T09:03:46Z</time>
      </trkpt>
      <trkpt lat="45.17586" lon="0.89191">
        <ele>130.9340252</ele>
        <time>2022-08-18T09:03:48Z</time>
      </trkpt>
      <trkpt lat="45.17586" lon="0.8919">
        <ele>130.7816751</ele>
        <time>2022-08-18T09:03:50Z</time>
      </trkpt>
      <trkpt lat="45.17586" lon="0.8919">
        <ele>129.8933103</ele>
        <time>2022-08-18T09:03:52Z</time>
      </trkpt>
      <trkpt lat="45.17586" lon="0.89189">
        <ele>129.3395266</ele>
        <time>2022-08-18T09:03:54Z</time>
      </trkpt>
      <trkpt lat="45.17587" lon="0.89188">
        <ele>130.1163241</ele>
        <time>2022-08-18T09:03:56Z</time>
      </trkpt>
      <trkpt lat="45.17591" lon="0.89186">
        <ele>129.9473994</ele>
        <time>2022-08-18T09:03:58Z</time>
      </trkpt>
      <trkpt lat="45.17594" lon="0.89185">
        <ele>130.1178995</ele>
        <time>2022-08-18T09:04:00Z</time>
      </trkpt>
      <trkpt lat="45.17599" lon="0.89183">
        <ele>129.6596556</ele>
        <time>2022-08-18T09:04:02Z</time>
      </trkpt>
      <trkpt lat="45.17605" lon="0.8918">
        <ele>129.2033533</ele>
        <time>2022-08-18T09:04:04Z</time>
      </trkpt>
      <trkpt lat="45.17611" lon="0.89177">
        <ele>129.3621991</ele>
        <time>2022-08-18T09:04:06Z</time>
      </trkpt>
      <trkpt lat="45.17618" lon="0.89173">
        <ele>129.9467895</ele>
        <time>2022-08-18T09:04:08Z</time>
      </trkpt>
      <trkpt lat="45.17625" lon="0.89169">
        <ele>130.4065053</ele>
        <time>2022-08-18T09:04:10Z</time>
      </trkpt>
      <trkpt lat="45.17632" lon="0.89166">
        <ele>129.828058</ele>
        <time>2022-08-18T09:04:12Z</time>
      </trkpt>
      <trkpt lat="45.17639" lon="0.89163">
        <ele>128.969301</ele>
        <time>2022-08-18T09:04:14Z</time>
      </trkpt>
      <trkpt lat="45.17647" lon="0.89158">
        <ele>128.8616688</ele>
        <time>2022-08-18T09:04:16Z</time>
      </trkpt>
      <trkpt lat="45.17656" lon="0.89154">
        <ele>128.3020525</ele>
        <time>2022-08-18T09:04:18Z</time>
      </trkpt>
      <trkpt lat="45.17664" lon="0.8915">
        <ele>128.4555067</ele>
        <time>2022-08-18T09:04:20Z</time>
      </trkpt>
      <trkpt lat="45.17674" lon="0.89146">
        <ele>128.4484045</ele>
        <time>2022-08-18T09:04:22Z</time>
      </trkpt>
      <trkpt lat="45.17684" lon="0.89141">
        <ele>128.7154301</ele>
        <time>2022-08-18T09:04:24Z</time>
      </trkpt>
      <trkpt lat="45.17694" lon="0.89138">
        <ele>128.1474598</ele>
        <time>2022-08-18T09:04:26Z</time>
      </trkpt>
      <trkpt lat="45.17704" lon="0.89134">
        <ele>127.4007336</ele>
        <time>2022-08-18T09:04:28Z</time>
      </trkpt>
      <trkpt lat="45.17714" lon="0.89129">
        <ele>127.5892903</ele>
        <time>2022-08-18T09:04:30Z</time>
      </trkpt>
      <trkpt lat="45.17725" lon="0.89126">
        <ele>126.993653</ele>
        <time>2022-08-18T09:04:32Z</time>
      </trkpt>
      <trkpt lat="45.17735" lon="0.89121">
        <ele>126.7498822</ele>
        <time>2022-08-18T09:04:34Z</time>
      </trkpt>
      <trkpt lat="45.17745" lon="0.89116">
        <ele>126.5072008</ele>
        <time>2022-08-18T09:04:36Z</time>
      </trkpt>
      <trkpt lat="45.17755" lon="0.89113">
        <ele>127.0004947</ele>
        <time>2022-08-18T09:04:38Z</time>
      </trkpt>
      <trkpt lat="45.17764" lon="0.89108">
        <ele>127.0514626</ele>
        <time>2022-08-18T09:04:40Z</time>
      </trkpt>
      <trkpt lat="45.17773" lon="0.89104">
        <ele>126.7028344</ele>
        <time>2022-08-18T09:04:42Z</time>
      </trkpt>
      <trkpt lat="45.17782" lon="0.891">
        <ele>126.7229249</ele>
        <time>2022-08-18T09:04:44Z</time>
      </trkpt>
      <trkpt lat="45.17791" lon="0.89097">
        <ele>126.9355722</ele>
        <time>2022-08-18T09:04:46Z</time>
      </trkpt>
      <trkpt lat="45.17799" lon="0.89093">
        <ele>127.2153026</ele>
        <time>2022-08-18T09:04:48Z</time>
      </trkpt>
      <trkpt lat="45.17807" lon="0.89089">
        <ele>127.200081</ele>
        <time>2022-08-18T09:04:50Z</time>
      </trkpt>
      <trkpt lat="45.17815" lon="0.89085">
        <ele>126.7641079</ele>
        <time>2022-08-18T09:04:52Z</time>
      </trkpt>
      <trkpt lat="45.17823" lon="0.89082">
        <ele>127.4684715</ele>
        <time>2022-08-18T09:04:54Z</time>
      </trkpt>
      <trkpt lat="45.17831" lon="0.89079">
        <ele>127.825266</ele>
        <time>2022-08-18T09:04:56Z</time>
      </trkpt>
      <trkpt lat="45.17838" lon="0.89075">
        <ele>128.0892864</ele>
        <time>2022-08-18T09:04:58Z</time>
      </trkpt>
      <trkpt lat="45.17845" lon="0.89072">
        <ele>127.9390059</ele>
        <time>2022-08-18T09:05:00Z</time>
      </trkpt>
      <trkpt lat="45.17852" lon="0.89069">
        <ele>128.0377255</ele>
        <time>2022-08-18T09:05:02Z</time>
      </trkpt>
      <trkpt lat="45.17858" lon="0.89067">
        <ele>128.217638</ele>
        <time>2022-08-18T09:05:04Z</time>
      </trkpt>
      <trkpt lat="45.17863" lon="0.89064">
        <ele>127.9361594</ele>
        <time>2022-08-18T09:05:06Z</time>
      </trkpt>
      <trkpt lat="45.17869" lon="0.89063">
        <ele>128.211702</ele>
        <time>2022-08-18T09:05:08Z</time>
      </trkpt>
      <trkpt lat="45.17872" lon="0.89062">
        <ele>128.3245519</ele>
        <time>2022-08-18T09:05:10Z</time>
      </trkpt>
      <trkpt lat="45.17874" lon="0.8906">
        <ele>128.1198269</ele>
        <time>2022-08-18T09:05:12Z</time>
      </trkpt>
      <trkpt lat="45.17876" lon="0.8906">
        <ele>128.2427408</ele>
        <time>2022-08-18T09:05:14Z</time>
      </trkpt>
      <trkpt lat="45.1788" lon="0.89058">
        <ele>128.2557691</ele>
        <time>2022-08-18T09:05:16Z</time>
      </trkpt>
      <trkpt lat="45.17883" lon="0.89056">
        <ele>127.8410728</ele>
        <time>2022-08-18T09:05:18Z</time>
      </trkpt>
      <trkpt lat="45.17889" lon="0.89054">
        <ele>128.0077137</ele>
        <time>2022-08-18T09:05:20Z</time>
      </trkpt>
      <trkpt lat="45.17896" lon="0.89051">
        <ele>127.722716</ele>
        <time>2022-08-18T09:05:22Z</time>
      </trkpt>
      <trkpt lat="45.17902" lon="0.89047">
        <ele>127.1876241</ele>
        <time>2022-08-18T09:05:24Z</time>
      </trkpt>
      <trkpt lat="45.1791" lon="0.89042">
        <ele>126.6146472</ele>
        <time>2022-08-18T09:05:26Z</time>
      </trkpt>
      <trkpt lat="45.17919" lon="0.89037">
        <ele>126.4800632</ele>
        <time>2022-08-18T09:05:28Z</time>
      </trkpt>
      <trkpt lat="45.17927" lon="0.8903">
        <ele>126.1017113</ele>
        <time>2022-08-18T09:05:30Z</time>
      </trkpt>
      <trkpt lat="45.17936" lon="0.89022">
        <ele>124.9676514</ele>
        <time>2022-08-18T09:05:32Z</time>
      </trkpt>
      <trkpt lat="45.1795" lon="0.89008">
        <ele>123.7306351</ele>
        <time>2022-08-18T09:05:35Z</time>
      </trkpt>
      <trkpt lat="45.17959" lon="0.88998">
        <ele>123.0935187</ele>
        <time>2022-08-18T09:05:37Z</time>
      </trkpt>
      <trkpt lat="45.17969" lon="0.88986">
        <ele>122.0586158</ele>
        <time>2022-08-18T09:05:39Z</time>
      </trkpt>
      <trkpt lat="45.1798" lon="0.88973">
        <ele>121.0965092</ele>
        <time>2022-08-18T09:05:41Z</time>
      </trkpt>
      <trkpt lat="45.17992" lon="0.8896">
        <ele>120.1798302</ele>
        <time>2022-08-18T09:05:43Z</time>
      </trkpt>
      <trkpt lat="45.18003" lon="0.88944">
        <ele>119.5080477</ele>
        <time>2022-08-18T09:05:45Z</time>
      </trkpt>
      <trkpt lat="45.18012" lon="0.88925">
        <ele>118.7900188</ele>
        <time>2022-08-18T09:05:47Z</time>
      </trkpt>
      <trkpt lat="45.18021" lon="0.88904">
        <ele>118.2454701</ele>
        <time>2022-08-18T09:05:49Z</time>
      </trkpt>
      <trkpt lat="45.18028" lon="0.88883">
        <ele>117.5165921</ele>
        <time>2022-08-18T09:05:51Z</time>
      </trkpt>
      <trkpt lat="45.18037" lon="0.88861">
        <ele>117.4427714</ele>
        <time>2022-08-18T09:05:53Z</time>
      </trkpt>
      <trkpt lat="45.18045" lon="0.88841">
        <ele>116.9128534</ele>
        <time>2022-08-18T09:05:55Z</time>
      </trkpt>
      <trkpt lat="45.18053" lon="0.8882">
        <ele>116.2824213</ele>
        <time>2022-08-18T09:05:57Z</time>
      </trkpt>
      <trkpt lat="45.18059" lon="0.88799">
        <ele>115.2829111</ele>
        <time>2022-08-18T09:05:59Z</time>
      </trkpt>
      <trkpt lat="45.18066" lon="0.88777">
        <ele>113.9523762</ele>
        <time>2022-08-18T09:06:01Z</time>
      </trkpt>
      <trkpt lat="45.18068" lon="0.88752">
        <ele>112.5133172</ele>
        <time>2022-08-18T09:06:03Z</time>
      </trkpt>
      <trkpt lat="45.18065" lon="0.88727">
        <ele>111.898159</ele>
        <time>2022-08-18T09:06:05Z</time>
      </trkpt>
      <trkpt lat="45.18057" lon="0.88706">
        <ele>111.4784368</ele>
        <time>2022-08-18T09:06:07Z</time>
      </trkpt>
      <trkpt lat="45.18049" lon="0.88686">
        <ele>111.3151759</ele>
        <time>2022-08-18T09:06:09Z</time>
      </trkpt>
      <trkpt lat="45.18042" lon="0.88665">
        <ele>111.1957444</ele>
        <time>2022-08-18T09:06:11Z</time>
      </trkpt>
      <trkpt lat="45.18039" lon="0.88645">
        <ele>110.9542666</ele>
        <time>2022-08-18T09:06:13Z</time>
      </trkpt>
      <trkpt lat="45.18038" lon="0.88627">
        <ele>110.926658</ele>
        <time>2022-08-18T09:06:15Z</time>
      </trkpt>
      <trkpt lat="45.18044" lon="0.88612">
        <ele>111.0247758</ele>
        <time>2022-08-18T09:06:17Z</time>
      </trkpt>
      <trkpt lat="45.18052" lon="0.88601">
        <ele>111.1806017</ele>
        <time>2022-08-18T09:06:19Z</time>
      </trkpt>
      <trkpt lat="45.18061" lon="0.88594">
        <ele>111.0511647</ele>
        <time>2022-08-18T09:06:21Z</time>
      </trkpt>
      <trkpt lat="45.18072" lon="0.88591">
        <ele>110.6399321</ele>
        <time>2022-08-18T09:06:23Z</time>
      </trkpt>
      <trkpt lat="45.18083" lon="0.88588">
        <ele>110.140161</ele>
        <time>2022-08-18T09:06:25Z</time>
      </trkpt>
      <trkpt lat="45.18095" lon="0.88584">
        <ele>109.232074</ele>
        <time>2022-08-18T09:06:27Z</time>
      </trkpt>
      <trkpt lat="45.18106" lon="0.8858">
        <ele>109.5880234</ele>
        <time>2022-08-18T09:06:29Z</time>
      </trkpt>
      <trkpt lat="45.18118" lon="0.88577">
        <ele>109.3376095</ele>
        <time>2022-08-18T09:06:31Z</time>
      </trkpt>
      <trkpt lat="45.18128" lon="0.88573">
        <ele>110.1764659</ele>
        <time>2022-08-18T09:06:33Z</time>
      </trkpt>
      <trkpt lat="45.18138" lon="0.88569">
        <ele>110.0070381</ele>
        <time>2022-08-18T09:06:35Z</time>
      </trkpt>
      <trkpt lat="45.18148" lon="0.88565">
        <ele>109.7485358</ele>
        <time>2022-08-18T09:06:37Z</time>
      </trkpt>
      <trkpt lat="45.18158" lon="0.88566">
        <ele>110.5365942</ele>
        <time>2022-08-18T09:06:39Z</time>
      </trkpt>
      <trkpt lat="45.18167" lon="0.88564">
        <ele>111.5229057</ele>
        <time>2022-08-18T09:06:41Z</time>
      </trkpt>
      <trkpt lat="45.18173" lon="0.88562">
        <ele>112.1193727</ele>
        <time>2022-08-18T09:06:43Z</time>
      </trkpt>
      <trkpt lat="45.18179" lon="0.88559">
        <ele>112.1628433</ele>
        <time>2022-08-18T09:06:45Z</time>
      </trkpt>
      <trkpt lat="45.18185" lon="0.88558">
        <ele>112.6026968</ele>
        <time>2022-08-18T09:06:47Z</time>
      </trkpt>
      <trkpt lat="45.18194" lon="0.88555">
        <ele>112.7458816</ele>
        <time>2022-08-18T09:06:49Z</time>
      </trkpt>
      <trkpt lat="45.18199" lon="0.88555">
        <ele>113.1902613</ele>
        <time>2022-08-18T09:06:51Z</time>
      </trkpt>
      <trkpt lat="45.18205" lon="0.88556">
        <ele>113.3845438</ele>
        <time>2022-08-18T09:06:53Z</time>
      </trkpt>
      <trkpt lat="45.18211" lon="0.88557">
        <ele>113.5876493</ele>
        <time>2022-08-18T09:06:55Z</time>
      </trkpt>
      <trkpt lat="45.18217" lon="0.88558">
        <ele>114.5779155</ele>
        <time>2022-08-18T09:06:57Z</time>
      </trkpt>
      <trkpt lat="45.18221" lon="0.88558">
        <ele>115.1471278</ele>
        <time>2022-08-18T09:06:59Z</time>
      </trkpt>
      <trkpt lat="45.1823" lon="0.88561">
        <ele>116.3122763</ele>
        <time>2022-08-18T09:07:01Z</time>
      </trkpt>
      <trkpt lat="45.18238" lon="0.88562">
        <ele>118.0655389</ele>
        <time>2022-08-18T09:07:03Z</time>
      </trkpt>
      <trkpt lat="45.18243" lon="0.88564">
        <ele>119.0003036</ele>
        <time>2022-08-18T09:07:05Z</time>
      </trkpt>
      <trkpt lat="45.1825" lon="0.88563">
        <ele>118.4287196</ele>
        <time>2022-08-18T09:07:07Z</time>
      </trkpt>
      <trkpt lat="45.18257" lon="0.88563">
        <ele>118.6978474</ele>
        <time>2022-08-18T09:07:09Z</time>
      </trkpt>
      <trkpt lat="45.18263" lon="0.88559">
        <ele>118.9153571</ele>
        <time>2022-08-18T09:07:11Z</time>
      </trkpt>
      <trkpt lat="45.18271" lon="0.88556">
        <ele>119.2141565</ele>
        <time>2022-08-18T09:07:13Z</time>
      </trkpt>
      <trkpt lat="45.18277" lon="0.88553">
        <ele>118.2135477</ele>
        <time>2022-08-18T09:07:15Z</time>
      </trkpt>
      <trkpt lat="45.18281" lon="0.88551">
        <ele>117.5191956</ele>
        <time>2022-08-18T09:07:17Z</time>
      </trkpt>
      <trkpt lat="45.18284" lon="0.88549">
        <ele>116.6419974</ele>
        <time>2022-08-18T09:07:19Z</time>
      </trkpt>
      <trkpt lat="45.1829" lon="0.88548">
        <ele>116.5807202</ele>
        <time>2022-08-18T09:07:21Z</time>
      </trkpt>
      <trkpt lat="45.18294" lon="0.88547">
        <ele>116.3723544</ele>
        <time>2022-08-18T09:07:23Z</time>
      </trkpt>
      <trkpt lat="45.183" lon="0.88544">
        <ele>115.9716249</ele>
        <time>2022-08-18T09:07:25Z</time>
      </trkpt>
      <trkpt lat="45.18305" lon="0.88542">
        <ele>117.2273634</ele>
        <time>2022-08-18T09:07:27Z</time>
      </trkpt>
      <trkpt lat="45.18311" lon="0.8854">
        <ele>118.0504381</ele>
        <time>2022-08-18T09:07:29Z</time>
      </trkpt>
      <trkpt lat="45.18316" lon="0.88537">
        <ele>118.1402659</ele>
        <time>2022-08-18T09:07:31Z</time>
      </trkpt>
      <trkpt lat="45.18321" lon="0.88535">
        <ele>118.4289793</ele>
        <time>2022-08-18T09:07:33Z</time>
      </trkpt>
      <trkpt lat="45.18327" lon="0.88532">
        <ele>118.4187419</ele>
        <time>2022-08-18T09:07:35Z</time>
      </trkpt>
      <trkpt lat="45.18333" lon="0.88529">
        <ele>117.6871444</ele>
        <time>2022-08-18T09:07:37Z</time>
      </trkpt>
      <trkpt lat="45.18338" lon="0.88525">
        <ele>117.820642</ele>
        <time>2022-08-18T09:07:39Z</time>
      </trkpt>
      <trkpt lat="45.18344" lon="0.88522">
        <ele>117.8227887</ele>
        <time>2022-08-18T09:07:41Z</time>
      </trkpt>
      <trkpt lat="45.18349" lon="0.88519">
        <ele>118.1976276</ele>
        <time>2022-08-18T09:07:43Z</time>
      </trkpt>
      <trkpt lat="45.18352" lon="0.88518">
        <ele>118.8060915</ele>
        <time>2022-08-18T09:07:44Z</time>
      </trkpt>
      <trkpt lat="45.18357" lon="0.88514">
        <ele>118.3295469</ele>
        <time>2022-08-18T09:07:46Z</time>
      </trkpt>
      <trkpt lat="45.18363" lon="0.88509">
        <ele>118.0000028</ele>
        <time>2022-08-18T09:07:48Z</time>
      </trkpt>
      <trkpt lat="45.1837" lon="0.88505">
        <ele>118.1895137</ele>
        <time>2022-08-18T09:07:50Z</time>
      </trkpt>
      <trkpt lat="45.18374" lon="0.88501">
        <ele>118.1927056</ele>
        <time>2022-08-18T09:07:52Z</time>
      </trkpt>
      <trkpt lat="45.18381" lon="0.88496">
        <ele>117.8842357</ele>
        <time>2022-08-18T09:07:54Z</time>
      </trkpt>
      <trkpt lat="45.18385" lon="0.88491">
        <ele>117.8952953</ele>
        <time>2022-08-18T09:07:56Z</time>
      </trkpt>
      <trkpt lat="45.18391" lon="0.88487">
        <ele>118.8305672</ele>
        <time>2022-08-18T09:07:58Z</time>
      </trkpt>
      <trkpt lat="45.18397" lon="0.88482">
        <ele>119.3843214</ele>
        <time>2022-08-18T09:08:00Z</time>
      </trkpt>
      <trkpt lat="45.18402" lon="0.8848">
        <ele>120.2526482</ele>
        <time>2022-08-18T09:08:02Z</time>
      </trkpt>
      <trkpt lat="45.18408" lon="0.88476">
        <ele>119.6701352</ele>
        <time>2022-08-18T09:08:04Z</time>
      </trkpt>
      <trkpt lat="45.18415" lon="0.88474">
        <ele>119.8126093</ele>
        <time>2022-08-18T09:08:06Z</time>
      </trkpt>
      <trkpt lat="45.18421" lon="0.88473">
        <ele>119.899563</ele>
        <time>2022-08-18T09:08:08Z</time>
      </trkpt>
      <trkpt lat="45.18427" lon="0.88473">
        <ele>120.6795516</ele>
        <time>2022-08-18T09:08:10Z</time>
      </trkpt>
      <trkpt lat="45.18433" lon="0.88471">
        <ele>120.5469557</ele>
        <time>2022-08-18T09:08:12Z</time>
      </trkpt>
      <trkpt lat="45.18441" lon="0.88468">
        <ele>120.1557012</ele>
        <time>2022-08-18T09:08:14Z</time>
      </trkpt>
      <trkpt lat="45.18447" lon="0.88466">
        <ele>120.1202596</ele>
        <time>2022-08-18T09:08:16Z</time>
      </trkpt>
      <trkpt lat="45.18455" lon="0.88464">
        <ele>119.8971133</ele>
        <time>2022-08-18T09:08:18Z</time>
      </trkpt>
      <trkpt lat="45.18462" lon="0.88461">
        <ele>120.0325934</ele>
        <time>2022-08-18T09:08:20Z</time>
      </trkpt>
      <trkpt lat="45.18469" lon="0.88461">
        <ele>120.6776414</ele>
        <time>2022-08-18T09:08:22Z</time>
      </trkpt>
      <trkpt lat="45.18477" lon="0.88459">
        <ele>119.8203492</ele>
        <time>2022-08-18T09:08:24Z</time>
      </trkpt>
      <trkpt lat="45.18485" lon="0.88457">
        <ele>120.1006381</ele>
        <time>2022-08-18T09:08:26Z</time>
      </trkpt>
      <trkpt lat="45.18494" lon="0.88457">
        <ele>120.0715932</ele>
        <time>2022-08-18T09:08:28Z</time>
      </trkpt>
      <trkpt lat="45.18501" lon="0.88457">
        <ele>121.6512382</ele>
        <time>2022-08-18T09:08:30Z</time>
      </trkpt>
      <trkpt lat="45.18507" lon="0.88456">
        <ele>122.0314935</ele>
        <time>2022-08-18T09:08:32Z</time>
      </trkpt>
      <trkpt lat="45.18515" lon="0.88457">
        <ele>122.9358814</ele>
        <time>2022-08-18T09:08:34Z</time>
      </trkpt>
      <trkpt lat="45.18526" lon="0.88459">
        <ele>122.673628</ele>
        <time>2022-08-18T09:08:36Z</time>
      </trkpt>
      <trkpt lat="45.18534" lon="0.88459">
        <ele>123.4396416</ele>
        <time>2022-08-18T09:08:38Z</time>
      </trkpt>
      <trkpt lat="45.18543" lon="0.88459">
        <ele>123.3687931</ele>
        <time>2022-08-18T09:08:40Z</time>
      </trkpt>
      <trkpt lat="45.18552" lon="0.88458">
        <ele>123.9022868</ele>
        <time>2022-08-18T09:08:42Z</time>
      </trkpt>
      <trkpt lat="45.1856" lon="0.88457">
        <ele>123.5449414</ele>
        <time>2022-08-18T09:08:44Z</time>
      </trkpt>
      <trkpt lat="45.1857" lon="0.88455">
        <ele>124.1723311</ele>
        <time>2022-08-18T09:08:46Z</time>
      </trkpt>
      <trkpt lat="45.18579" lon="0.88455">
        <ele>123.7321773</ele>
        <time>2022-08-18T09:08:48Z</time>
      </trkpt>
      <trkpt lat="45.18586" lon="0.88453">
        <ele>123.4584854</ele>
        <time>2022-08-18T09:08:50Z</time>
      </trkpt>
      <trkpt lat="45.18593" lon="0.88452">
        <ele>123.7504675</ele>
        <time>2022-08-18T09:08:52Z</time>
      </trkpt>
      <trkpt lat="45.18601" lon="0.8845">
        <ele>123.4956959</ele>
        <time>2022-08-18T09:08:54Z</time>
      </trkpt>
      <trkpt lat="45.18609" lon="0.88448">
        <ele>123.2096264</ele>
        <time>2022-08-18T09:08:56Z</time>
      </trkpt>
      <trkpt lat="45.18616" lon="0.88442">
        <ele>122.4987146</ele>
        <time>2022-08-18T09:08:58Z</time>
      </trkpt>
      <trkpt lat="45.18622" lon="0.88436">
        <ele>120.9671921</ele>
        <time>2022-08-18T09:09:00Z</time>
      </trkpt>
      <trkpt lat="45.18629" lon="0.88431">
        <ele>120.2371788</ele>
        <time>2022-08-18T09:09:02Z</time>
      </trkpt>
      <trkpt lat="45.18634" lon="0.88427">
        <ele>118.6386662</ele>
        <time>2022-08-18T09:09:04Z</time>
      </trkpt>
      <trkpt lat="45.18638" lon="0.88421">
        <ele>118.061737</ele>
        <time>2022-08-18T09:09:06Z</time>
      </trkpt>
      <trkpt lat="45.18642" lon="0.88416">
        <ele>117.3215926</ele>
        <time>2022-08-18T09:09:08Z</time>
      </trkpt>
      <trkpt lat="45.18645" lon="0.8841">
        <ele>117.3846937</ele>
        <time>2022-08-18T09:09:10Z</time>
      </trkpt>
      <trkpt lat="45.18649" lon="0.88403">
        <ele>117.2168429</ele>
        <time>2022-08-18T09:09:12Z</time>
      </trkpt>
      <trkpt lat="45.18651" lon="0.88397">
        <ele>117.9496036</ele>
        <time>2022-08-18T09:09:14Z</time>
      </trkpt>
      <trkpt lat="45.18653" lon="0.8839">
        <ele>118.4338616</ele>
        <time>2022-08-18T09:09:16Z</time>
      </trkpt>
      <trkpt lat="45.18657" lon="0.88381">
        <ele>117.5716929</ele>
        <time>2022-08-18T09:09:19Z</time>
      </trkpt>
      <trkpt lat="45.18661" lon="0.88373">
        <ele>117.0883325</ele>
        <time>2022-08-18T09:09:21Z</time>
      </trkpt>
      <trkpt lat="45.18664" lon="0.88367">
        <ele>116.9061175</ele>
        <time>2022-08-18T09:09:23Z</time>
      </trkpt>
      <trkpt lat="45.18668" lon="0.88359">
        <ele>117.2136502</ele>
        <time>2022-08-18T09:09:25Z</time>
      </trkpt>
      <trkpt lat="45.18675" lon="0.88357">
        <ele>116.4228707</ele>
        <time>2022-08-18T09:09:27Z</time>
      </trkpt>
      <trkpt lat="45.18681" lon="0.88352">
        <ele>116.8518531</ele>
        <time>2022-08-18T09:09:29Z</time>
      </trkpt>
      <trkpt lat="45.18688" lon="0.88351">
        <ele>116.6479746</ele>
        <time>2022-08-18T09:09:31Z</time>
      </trkpt>
      <trkpt lat="45.18693" lon="0.8835">
        <ele>116.7259429</ele>
        <time>2022-08-18T09:09:33Z</time>
      </trkpt>
      <trkpt lat="45.18697" lon="0.88351">
        <ele>117.9455501</ele>
        <time>2022-08-18T09:09:35Z</time>
      </trkpt>
      <trkpt lat="45.18698" lon="0.88351">
        <ele>118.6378846</ele>
        <time>2022-08-18T09:09:36Z</time>
      </trkpt>
      <trkpt lat="45.18699" lon="0.8835">
        <ele>118.7455944</ele>
        <time>2022-08-18T09:09:38Z</time>
      </trkpt>
      <trkpt lat="45.18701" lon="0.8835">
        <ele>119.1354176</ele>
        <time>2022-08-18T09:09:40Z</time>
      </trkpt>
      <trkpt lat="45.18702" lon="0.8835">
        <ele>119.0793634</ele>
        <time>2022-08-18T09:09:42Z</time>
      </trkpt>
      <trkpt lat="45.18702" lon="0.88349">
        <ele>119.1273368</ele>
        <time>2022-08-18T09:09:44Z</time>
      </trkpt>
      <trkpt lat="45.18703" lon="0.88349">
        <ele>119.0843059</ele>
        <time>2022-08-18T09:09:46Z</time>
      </trkpt>
      <trkpt lat="45.18702" lon="0.8835">
        <ele>119.9118647</ele>
        <time>2022-08-18T09:09:48Z</time>
      </trkpt>
      <trkpt lat="45.18702" lon="0.8835">
        <ele>120.6331116</ele>
        <time>2022-08-18T09:09:50Z</time>
      </trkpt>
      <trkpt lat="45.18701" lon="0.88349">
        <ele>120.504345</ele>
        <time>2022-08-18T09:09:52Z</time>
      </trkpt>
      <trkpt lat="45.18701" lon="0.88351">
        <ele>120.9826486</ele>
        <time>2022-08-18T09:09:54Z</time>
      </trkpt>
      <trkpt lat="45.18702" lon="0.88351">
        <ele>120.7747097</ele>
        <time>2022-08-18T09:09:56Z</time>
      </trkpt>
      <trkpt lat="45.18701" lon="0.88352">
        <ele>120.6594995</ele>
        <time>2022-08-18T09:09:58Z</time>
      </trkpt>
      <trkpt lat="45.187" lon="0.88353">
        <ele>120.764882</ele>
        <time>2022-08-18T09:10:00Z</time>
      </trkpt>
      <trkpt lat="45.18699" lon="0.88355">
        <ele>121.3039603</ele>
        <time>2022-08-18T09:10:02Z</time>
      </trkpt>
      <trkpt lat="45.18698" lon="0.88356">
        <ele>121.1891835</ele>
        <time>2022-08-18T09:10:04Z</time>
      </trkpt>
      <trkpt lat="45.18699" lon="0.88353">
        <ele>121.1178104</ele>
        <time>2022-08-18T09:10:06Z</time>
      </trkpt>
      <trkpt lat="45.18703" lon="0.88352">
        <ele>121.0845128</ele>
        <time>2022-08-18T09:10:08Z</time>
      </trkpt>
      <trkpt lat="45.18707" lon="0.8835">
        <ele>121.1920849</ele>
        <time>2022-08-18T09:10:10Z</time>
      </trkpt>
      <trkpt lat="45.18713" lon="0.88346">
        <ele>120.7118662</ele>
        <time>2022-08-18T09:10:12Z</time>
      </trkpt>
      <trkpt lat="45.18718" lon="0.88347">
        <ele>120.8338685</ele>
        <time>2022-08-18T09:10:14Z</time>
      </trkpt>
      <trkpt lat="45.18724" lon="0.88347">
        <ele>121.7911224</ele>
        <time>2022-08-18T09:10:16Z</time>
      </trkpt>
      <trkpt lat="45.1873" lon="0.88347">
        <ele>121.5802192</ele>
        <time>2022-08-18T09:10:18Z</time>
      </trkpt>
      <trkpt lat="45.18736" lon="0.88347">
        <ele>121.8550476</ele>
        <time>2022-08-18T09:10:20Z</time>
      </trkpt>
      <trkpt lat="45.18742" lon="0.88347">
        <ele>121.768156</ele>
        <time>2022-08-18T09:10:22Z</time>
      </trkpt>
      <trkpt lat="45.18748" lon="0.88346">
        <ele>122.5051296</ele>
        <time>2022-08-18T09:10:24Z</time>
      </trkpt>
      <trkpt lat="45.18752" lon="0.88345">
        <ele>121.8528865</ele>
        <time>2022-08-18T09:10:26Z</time>
      </trkpt>
      <trkpt lat="45.18756" lon="0.88344">
        <ele>121.5976771</ele>
        <time>2022-08-18T09:10:28Z</time>
      </trkpt>
      <trkpt lat="45.1876" lon="0.88339">
        <ele>121.2240742</ele>
        <time>2022-08-18T09:10:30Z</time>
      </trkpt>
      <trkpt lat="45.18764" lon="0.88334">
        <ele>120.3378213</ele>
        <time>2022-08-18T09:10:32Z</time>
      </trkpt>
      <trkpt lat="45.18767" lon="0.88327">
        <ele>120.7316441</ele>
        <time>2022-08-18T09:10:34Z</time>
      </trkpt>
      <trkpt lat="45.18771" lon="0.88323">
        <ele>120.1831733</ele>
        <time>2022-08-18T09:10:36Z</time>
      </trkpt>
      <trkpt lat="45.18773" lon="0.88323">
        <ele>120.1593199</ele>
        <time>2022-08-18T09:10:38Z</time>
      </trkpt>
      <trkpt lat="45.18773" lon="0.88323">
        <ele>120.6694746</ele>
        <time>2022-08-18T09:10:40Z</time>
      </trkpt>
      <trkpt lat="45.18774" lon="0.88322">
        <ele>120.8969648</ele>
        <time>2022-08-18T09:10:42Z</time>
      </trkpt>
      <trkpt lat="45.18775" lon="0.88323">
        <ele>120.7722664</ele>
        <time>2022-08-18T09:10:44Z</time>
      </trkpt>
      <trkpt lat="45.18776" lon="0.88323">
        <ele>121.1669502</ele>
        <time>2022-08-18T09:10:46Z</time>
      </trkpt>
      <trkpt lat="45.18777" lon="0.88323">
        <ele>121.2073034</ele>
        <time>2022-08-18T09:10:48Z</time>
      </trkpt>
      <trkpt lat="45.18777" lon="0.88323">
        <ele>120.7954485</ele>
        <time>2022-08-18T09:10:50Z</time>
      </trkpt>
      <trkpt lat="45.18777" lon="0.88324">
        <ele>120.0221238</ele>
        <time>2022-08-18T09:10:52Z</time>
      </trkpt>
      <trkpt lat="45.18779" lon="0.88325">
        <ele>120.0801333</ele>
        <time>2022-08-18T09:10:54Z</time>
      </trkpt>
      <trkpt lat="45.18779" lon="0.88326">
        <ele>120.0543252</ele>
        <time>2022-08-18T09:10:56Z</time>
      </trkpt>
      <trkpt lat="45.18782" lon="0.88326">
        <ele>122.2678201</ele>
        <time>2022-08-18T09:10:58Z</time>
      </trkpt>
      <trkpt lat="45.18783" lon="0.88326">
        <ele>123.8950978</ele>
        <time>2022-08-18T09:11:00Z</time>
      </trkpt>
      <trkpt lat="45.18784" lon="0.88327">
        <ele>124.6371887</ele>
        <time>2022-08-18T09:11:02Z</time>
      </trkpt>
      <trkpt lat="45.18784" lon="0.88326">
        <ele>126.0336969</ele>
        <time>2022-08-18T09:11:04Z</time>
      </trkpt>
      <trkpt lat="45.18783" lon="0.88324">
        <ele>126.6096845</ele>
        <time>2022-08-18T09:11:06Z</time>
      </trkpt>
      <trkpt lat="45.18782" lon="0.88323">
        <ele>125.814383</ele>
        <time>2022-08-18T09:11:08Z</time>
      </trkpt>
      <trkpt lat="45.18781" lon="0.88323">
        <ele>125.6396674</ele>
        <time>2022-08-18T09:11:10Z</time>
      </trkpt>
      <trkpt lat="45.18781" lon="0.88322">
        <ele>126.3254376</ele>
        <time>2022-08-18T09:11:12Z</time>
      </trkpt>
      <trkpt lat="45.1878" lon="0.88321">
        <ele>126.9760339</ele>
        <time>2022-08-18T09:11:14Z</time>
      </trkpt>
      <trkpt lat="45.18779" lon="0.88321">
        <ele>127.2477494</ele>
        <time>2022-08-18T09:11:16Z</time>
      </trkpt>
      <trkpt lat="45.18779" lon="0.88321">
        <ele>126.9210121</ele>
        <time>2022-08-18T09:11:18Z</time>
      </trkpt>
      <trkpt lat="45.1878" lon="0.88319">
        <ele>126.2907199</ele>
        <time>2022-08-18T09:11:20Z</time>
      </trkpt>
      <trkpt lat="45.18781" lon="0.88315">
        <ele>125.2661131</ele>
        <time>2022-08-18T09:11:22Z</time>
      </trkpt>
      <trkpt lat="45.18784" lon="0.88309">
        <ele>124.7951165</ele>
        <time>2022-08-18T09:11:24Z</time>
      </trkpt>
      <trkpt lat="45.18786" lon="0.88303">
        <ele>122.8196539</ele>
        <time>2022-08-18T09:11:26Z</time>
      </trkpt>
      <trkpt lat="45.18791" lon="0.88298">
        <ele>122.0877632</ele>
        <time>2022-08-18T09:11:28Z</time>
      </trkpt>
      <trkpt lat="45.18796" lon="0.88291">
        <ele>120.3164011</ele>
        <time>2022-08-18T09:11:30Z</time>
      </trkpt>
      <trkpt lat="45.188" lon="0.88284">
        <ele>119.7666065</ele>
        <time>2022-08-18T09:11:32Z</time>
      </trkpt>
      <trkpt lat="45.18804" lon="0.88276">
        <ele>119.4643709</ele>
        <time>2022-08-18T09:11:34Z</time>
      </trkpt>
      <trkpt lat="45.18808" lon="0.8827">
        <ele>120.5338601</ele>
        <time>2022-08-18T09:11:36Z</time>
      </trkpt>
      <trkpt lat="45.18811" lon="0.88262">
        <ele>120.4944422</ele>
        <time>2022-08-18T09:11:38Z</time>
      </trkpt>
      <trkpt lat="45.18815" lon="0.88255">
        <ele>120.9968234</ele>
        <time>2022-08-18T09:11:40Z</time>
      </trkpt>
      <trkpt lat="45.18818" lon="0.88248">
        <ele>121.3265403</ele>
        <time>2022-08-18T09:11:42Z</time>
      </trkpt>
      <trkpt lat="45.1882" lon="0.88239">
        <ele>121.0690652</ele>
        <time>2022-08-18T09:11:44Z</time>
      </trkpt>
      <trkpt lat="45.18824" lon="0.88229">
        <ele>121.3794546</ele>
        <time>2022-08-18T09:11:46Z</time>
      </trkpt>
      <trkpt lat="45.18827" lon="0.88219">
        <ele>121.7559851</ele>
        <time>2022-08-18T09:11:48Z</time>
      </trkpt>
      <trkpt lat="45.18831" lon="0.88208">
        <ele>122.0618144</ele>
        <time>2022-08-18T09:11:50Z</time>
      </trkpt>
      <trkpt lat="45.18835" lon="0.88197">
        <ele>122.5241955</ele>
        <time>2022-08-18T09:11:52Z</time>
      </trkpt>
      <trkpt lat="45.18838" lon="0.88186">
        <ele>122.2885981</ele>
        <time>2022-08-18T09:11:54Z</time>
      </trkpt>
      <trkpt lat="45.18842" lon="0.88177">
        <ele>122.5459846</ele>
        <time>2022-08-18T09:11:56Z</time>
      </trkpt>
      <trkpt lat="45.18846" lon="0.88167">
        <ele>122.7843482</ele>
        <time>2022-08-18T09:11:58Z</time>
      </trkpt>
      <trkpt lat="45.1885" lon="0.88158">
        <ele>123.0682285</ele>
        <time>2022-08-18T09:12:00Z</time>
      </trkpt>
      <trkpt lat="45.18852" lon="0.88149">
        <ele>122.5416038</ele>
        <time>2022-08-18T09:12:02Z</time>
      </trkpt>
      <trkpt lat="45.18856" lon="0.8814">
        <ele>122.5723386</ele>
        <time>2022-08-18T09:12:04Z</time>
      </trkpt>
      <trkpt lat="45.1886" lon="0.8813">
        <ele>122.5137403</ele>
        <time>2022-08-18T09:12:06Z</time>
      </trkpt>
      <trkpt lat="45.18863" lon="0.88121">
        <ele>122.8194144</ele>
        <time>2022-08-18T09:12:08Z</time>
      </trkpt>
      <trkpt lat="45.18866" lon="0.88112">
        <ele>121.9716151</ele>
        <time>2022-08-18T09:12:10Z</time>
      </trkpt>
      <trkpt lat="45.1887" lon="0.88104">
        <ele>122.077864</ele>
        <time>2022-08-18T09:12:12Z</time>
      </trkpt>
      <trkpt lat="45.18873" lon="0.88094">
        <ele>121.7222312</ele>
        <time>2022-08-18T09:12:14Z</time>
      </trkpt>
      <trkpt lat="45.18876" lon="0.88084">
        <ele>121.9509417</ele>
        <time>2022-08-18T09:12:16Z</time>
      </trkpt>
      <trkpt lat="45.1888" lon="0.88074">
        <ele>122.6099522</ele>
        <time>2022-08-18T09:12:18Z</time>
      </trkpt>
      <trkpt lat="45.18884" lon="0.88064">
        <ele>121.5368932</ele>
        <time>2022-08-18T09:12:20Z</time>
      </trkpt>
      <trkpt lat="45.18888" lon="0.88054">
        <ele>122.2619903</ele>
        <time>2022-08-18T09:12:22Z</time>
      </trkpt>
      <trkpt lat="45.1889" lon="0.88043">
        <ele>122.3948059</ele>
        <time>2022-08-18T09:12:24Z</time>
      </trkpt>
      <trkpt lat="45.18893" lon="0.88032">
        <ele>122.514624</ele>
        <time>2022-08-18T09:12:26Z</time>
      </trkpt>
      <trkpt lat="45.18894" lon="0.88022">
        <ele>122.2849626</ele>
        <time>2022-08-18T09:12:28Z</time>
      </trkpt>
      <trkpt lat="45.18894" lon="0.88012">
        <ele>122.7252649</ele>
        <time>2022-08-18T09:12:30Z</time>
      </trkpt>
      <trkpt lat="45.18893" lon="0.88002">
        <ele>123.0294281</ele>
        <time>2022-08-18T09:12:32Z</time>
      </trkpt>
      <trkpt lat="45.1889" lon="0.87992">
        <ele>123.3498359</ele>
        <time>2022-08-18T09:12:34Z</time>
      </trkpt>
      <trkpt lat="45.18886" lon="0.87984">
        <ele>123.6014231</ele>
        <time>2022-08-18T09:12:36Z</time>
      </trkpt>
      <trkpt lat="45.18881" lon="0.87976">
        <ele>124.1467105</ele>
        <time>2022-08-18T09:12:38Z</time>
      </trkpt>
      <trkpt lat="45.18876" lon="0.8797">
        <ele>124.0699376</ele>
        <time>2022-08-18T09:12:40Z</time>
      </trkpt>
      <trkpt lat="45.1887" lon="0.87965">
        <ele>124.4189616</ele>
        <time>2022-08-18T09:12:42Z</time>
      </trkpt>
      <trkpt lat="45.18865" lon="0.8796">
        <ele>124.9628974</ele>
        <time>2022-08-18T09:12:44Z</time>
      </trkpt>
      <trkpt lat="45.18859" lon="0.87956">
        <ele>125.0310152</ele>
        <time>2022-08-18T09:12:46Z</time>
      </trkpt>
      <trkpt lat="45.18854" lon="0.87953">
        <ele>125.124027</ele>
        <time>2022-08-18T09:12:48Z</time>
      </trkpt>
      <trkpt lat="45.18849" lon="0.8795">
        <ele>125.2399193</ele>
        <time>2022-08-18T09:12:50Z</time>
      </trkpt>
      <trkpt lat="45.18845" lon="0.87946">
        <ele>125.125418</ele>
        <time>2022-08-18T09:12:52Z</time>
      </trkpt>
      <trkpt lat="45.1884" lon="0.87941">
        <ele>125.5270161</ele>
        <time>2022-08-18T09:12:54Z</time>
      </trkpt>
      <trkpt lat="45.18834" lon="0.87937">
        <ele>125.3694643</ele>
        <time>2022-08-18T09:12:56Z</time>
      </trkpt>
      <trkpt lat="45.18829" lon="0.87932">
        <ele>125.1444607</ele>
        <time>2022-08-18T09:12:58Z</time>
      </trkpt>
      <trkpt lat="45.18824" lon="0.87928">
        <ele>124.8227022</ele>
        <time>2022-08-18T09:13:00Z</time>
      </trkpt>
      <trkpt lat="45.1882" lon="0.87923">
        <ele>124.9319926</ele>
        <time>2022-08-18T09:13:02Z</time>
      </trkpt>
      <trkpt lat="45.18814" lon="0.87919">
        <ele>125.349655</ele>
        <time>2022-08-18T09:13:04Z</time>
      </trkpt>
      <trkpt lat="45.18809" lon="0.87914">
        <ele>125.3629431</ele>
        <time>2022-08-18T09:13:06Z</time>
      </trkpt>
      <trkpt lat="45.18804" lon="0.8791">
        <ele>126.1193835</ele>
        <time>2022-08-18T09:13:08Z</time>
      </trkpt>
      <trkpt lat="45.188" lon="0.87905">
        <ele>126.371316</ele>
        <time>2022-08-18T09:13:10Z</time>
      </trkpt>
      <trkpt lat="45.18795" lon="0.87901">
        <ele>126.9459458</ele>
        <time>2022-08-18T09:13:12Z</time>
      </trkpt>
      <trkpt lat="45.18789" lon="0.87895">
        <ele>126.8904673</ele>
        <time>2022-08-18T09:13:14Z</time>
      </trkpt>
      <trkpt lat="45.18785" lon="0.8789">
        <ele>127.3438003</ele>
        <time>2022-08-18T09:13:16Z</time>
      </trkpt>
      <trkpt lat="45.18779" lon="0.87886">
        <ele>127.4530237</ele>
        <time>2022-08-18T09:13:18Z</time>
      </trkpt>
      <trkpt lat="45.18774" lon="0.8788">
        <ele>127.442649</ele>
        <time>2022-08-18T09:13:20Z</time>
      </trkpt>
      <trkpt lat="45.18768" lon="0.87876">
        <ele>127.8568048</ele>
        <time>2022-08-18T09:13:22Z</time>
      </trkpt>
      <trkpt lat="45.18763" lon="0.87871">
        <ele>127.8476416</ele>
        <time>2022-08-18T09:13:24Z</time>
      </trkpt>
      <trkpt lat="45.18757" lon="0.87866">
        <ele>129.0478695</ele>
        <time>2022-08-18T09:13:26Z</time>
      </trkpt>
      <trkpt lat="45.18752" lon="0.87859">
        <ele>130.1635776</ele>
        <time>2022-08-18T09:13:28Z</time>
      </trkpt>
      <trkpt lat="45.18747" lon="0.8785">
        <ele>130.1422755</ele>
        <time>2022-08-18T09:13:30Z</time>
      </trkpt>
      <trkpt lat="45.18741" lon="0.87841">
        <ele>130.1804095</ele>
        <time>2022-08-18T09:13:32Z</time>
      </trkpt>
      <trkpt lat="45.18736" lon="0.87832">
        <ele>130.7257499</ele>
        <time>2022-08-18T09:13:34Z</time>
      </trkpt>
      <trkpt lat="45.18733" lon="0.87823">
        <ele>130.7531122</ele>
        <time>2022-08-18T09:13:36Z</time>
      </trkpt>
      <trkpt lat="45.18729" lon="0.87814">
        <ele>129.6680127</ele>
        <time>2022-08-18T09:13:38Z</time>
      </trkpt>
      <trkpt lat="45.18724" lon="0.87803">
        <ele>128.4386984</ele>
        <time>2022-08-18T09:13:40Z</time>
      </trkpt>
      <trkpt lat="45.18718" lon="0.87792">
        <ele>127.53719</ele>
        <time>2022-08-18T09:13:42Z</time>
      </trkpt>
      <trkpt lat="45.18711" lon="0.87782">
        <ele>125.8010296</ele>
        <time>2022-08-18T09:13:44Z</time>
      </trkpt>
      <trkpt lat="45.18703" lon="0.8777">
        <ele>124.6526812</ele>
        <time>2022-08-18T09:13:46Z</time>
      </trkpt>
      <trkpt lat="45.18692" lon="0.87758">
        <ele>123.402037</ele>
        <time>2022-08-18T09:13:48Z</time>
      </trkpt>
      <trkpt lat="45.1868" lon="0.87745">
        <ele>123.31307</ele>
        <time>2022-08-18T09:13:50Z</time>
      </trkpt>
      <trkpt lat="45.1867" lon="0.87728">
        <ele>122.4688511</ele>
        <time>2022-08-18T09:13:52Z</time>
      </trkpt>
      <trkpt lat="45.1866" lon="0.87708">
        <ele>122.5174801</ele>
        <time>2022-08-18T09:13:54Z</time>
      </trkpt>
      <trkpt lat="45.18652" lon="0.87688">
        <ele>122.6306211</ele>
        <time>2022-08-18T09:13:56Z</time>
      </trkpt>
      <trkpt lat="45.18643" lon="0.87669">
        <ele>121.9220799</ele>
        <time>2022-08-18T09:13:58Z</time>
      </trkpt>
      <trkpt lat="45.18631" lon="0.87649">
        <ele>121.0659461</ele>
        <time>2022-08-18T09:14:00Z</time>
      </trkpt>
      <trkpt lat="45.1862" lon="0.87633">
        <ele>119.8676818</ele>
        <time>2022-08-18T09:14:02Z</time>
      </trkpt>
      <trkpt lat="45.18609" lon="0.87619">
        <ele>118.2574569</ele>
        <time>2022-08-18T09:14:04Z</time>
      </trkpt>
      <trkpt lat="45.18598" lon="0.87605">
        <ele>118.0940127</ele>
        <time>2022-08-18T09:14:06Z</time>
      </trkpt>
      <trkpt lat="45.18583" lon="0.87591">
        <ele>116.8183605</ele>
        <time>2022-08-18T09:14:08Z</time>
      </trkpt>
      <trkpt lat="45.1857" lon="0.87583">
        <ele>116.4552731</ele>
        <time>2022-08-18T09:14:10Z</time>
      </trkpt>
      <trkpt lat="45.18557" lon="0.87581">
        <ele>117.2258812</ele>
        <time>2022-08-18T09:14:12Z</time>
      </trkpt>
      <trkpt lat="45.18543" lon="0.8759">
        <ele>117.4344317</ele>
        <time>2022-08-18T09:14:14Z</time>
      </trkpt>
      <trkpt lat="45.18533" lon="0.87599">
        <ele>117.6185385</ele>
        <time>2022-08-18T09:14:16Z</time>
      </trkpt>
      <trkpt lat="45.1852" lon="0.87608">
        <ele>116.3459222</ele>
        <time>2022-08-18T09:14:18Z</time>
      </trkpt>
      <trkpt lat="45.18509" lon="0.876">
        <ele>116.3095643</ele>
        <time>2022-08-18T09:14:20Z</time>
      </trkpt>
      <trkpt lat="45.18504" lon="0.87587">
        <ele>114.2556261</ele>
        <time>2022-08-18T09:14:22Z</time>
      </trkpt>
      <trkpt lat="45.18503" lon="0.87565">
        <ele>114.5935641</ele>
        <time>2022-08-18T09:14:24Z</time>
      </trkpt>
      <trkpt lat="45.18507" lon="0.87544">
        <ele>113.046687</ele>
        <time>2022-08-18T09:14:26Z</time>
      </trkpt>
      <trkpt lat="45.18509" lon="0.87523">
        <ele>112.7520107</ele>
        <time>2022-08-18T09:14:28Z</time>
      </trkpt>
      <trkpt lat="45.18502" lon="0.87503">
        <ele>111.3310796</ele>
        <time>2022-08-18T09:14:30Z</time>
      </trkpt>
      <trkpt lat="45.1849" lon="0.87486">
        <ele>109.8993984</ele>
        <time>2022-08-18T09:14:32Z</time>
      </trkpt>
      <trkpt lat="45.18478" lon="0.8747">
        <ele>109.9888317</ele>
        <time>2022-08-18T09:14:34Z</time>
      </trkpt>
      <trkpt lat="45.18468" lon="0.87454">
        <ele>109.1188484</ele>
        <time>2022-08-18T09:14:36Z</time>
      </trkpt>
      <trkpt lat="45.18458" lon="0.87437">
        <ele>108.9959887</ele>
        <time>2022-08-18T09:14:38Z</time>
      </trkpt>
      <trkpt lat="45.18448" lon="0.8742">
        <ele>110.0701159</ele>
        <time>2022-08-18T09:14:40Z</time>
      </trkpt>
      <trkpt lat="45.18436" lon="0.87408">
        <ele>109.9755203</ele>
        <time>2022-08-18T09:14:42Z</time>
      </trkpt>
      <trkpt lat="45.18424" lon="0.87397">
        <ele>109.1199382</ele>
        <time>2022-08-18T09:14:44Z</time>
      </trkpt>
      <trkpt lat="45.18412" lon="0.8739">
        <ele>109.4281488</ele>
        <time>2022-08-18T09:14:46Z</time>
      </trkpt>
      <trkpt lat="45.18401" lon="0.87385">
        <ele>111.5693704</ele>
        <time>2022-08-18T09:14:48Z</time>
      </trkpt>
      <trkpt lat="45.18391" lon="0.8738">
        <ele>111.6275501</ele>
        <time>2022-08-18T09:14:50Z</time>
      </trkpt>
      <trkpt lat="45.18381" lon="0.87376">
        <ele>111.7128015</ele>
        <time>2022-08-18T09:14:52Z</time>
      </trkpt>
      <trkpt lat="45.18373" lon="0.87371">
        <ele>111.9342905</ele>
        <time>2022-08-18T09:14:54Z</time>
      </trkpt>
      <trkpt lat="45.18368" lon="0.87367">
        <ele>112.1259834</ele>
        <time>2022-08-18T09:14:56Z</time>
      </trkpt>
      <trkpt lat="45.18362" lon="0.87361">
        <ele>112.4042405</ele>
        <time>2022-08-18T09:14:58Z</time>
      </trkpt>
      <trkpt lat="45.18357" lon="0.87356">
        <ele>113.388264</ele>
        <time>2022-08-18T09:15:00Z</time>
      </trkpt>
      <trkpt lat="45.18352" lon="0.87349">
        <ele>114.004822</ele>
        <time>2022-08-18T09:15:02Z</time>
      </trkpt>
      <trkpt lat="45.18347" lon="0.8734">
        <ele>114.8545055</ele>
        <time>2022-08-18T09:15:04Z</time>
      </trkpt>
      <trkpt lat="45.18344" lon="0.87332">
        <ele>115.2326736</ele>
        <time>2022-08-18T09:15:06Z</time>
      </trkpt>
      <trkpt lat="45.18339" lon="0.87323">
        <ele>116.7404482</ele>
        <time>2022-08-18T09:15:08Z</time>
      </trkpt>
      <trkpt lat="45.18336" lon="0.87315">
        <ele>116.7853244</ele>
        <time>2022-08-18T09:15:10Z</time>
      </trkpt>
      <trkpt lat="45.18334" lon="0.87307">
        <ele>116.6631316</ele>
        <time>2022-08-18T09:15:12Z</time>
      </trkpt>
      <trkpt lat="45.18331" lon="0.87301">
        <ele>116.7190736</ele>
        <time>2022-08-18T09:15:14Z</time>
      </trkpt>
      <trkpt lat="45.1833" lon="0.87294">
        <ele>117.4338318</ele>
        <time>2022-08-18T09:15:16Z</time>
      </trkpt>
      <trkpt lat="45.18326" lon="0.87286">
        <ele>117.0606965</ele>
        <time>2022-08-18T09:15:18Z</time>
      </trkpt>
      <trkpt lat="45.18324" lon="0.87279">
        <ele>116.7574507</ele>
        <time>2022-08-18T09:15:20Z</time>
      </trkpt>
      <trkpt lat="45.18322" lon="0.87271">
        <ele>116.21812</ele>
        <time>2022-08-18T09:15:22Z</time>
      </trkpt>
      <trkpt lat="45.18319" lon="0.87262">
        <ele>116.6725845</ele>
        <time>2022-08-18T09:15:24Z</time>
      </trkpt>
      <trkpt lat="45.18316" lon="0.87254">
        <ele>116.0699245</ele>
        <time>2022-08-18T09:15:26Z</time>
      </trkpt>
      <trkpt lat="45.18313" lon="0.87243">
        <ele>116.6449996</ele>
        <time>2022-08-18T09:15:28Z</time>
      </trkpt>
      <trkpt lat="45.18309" lon="0.87234">
        <ele>117.0349726</ele>
        <time>2022-08-18T09:15:30Z</time>
      </trkpt>
      <trkpt lat="45.18307" lon="0.87224">
        <ele>116.509373</ele>
        <time>2022-08-18T09:15:32Z</time>
      </trkpt>
      <trkpt lat="45.18305" lon="0.87214">
        <ele>115.4769871</ele>
        <time>2022-08-18T09:15:34Z</time>
      </trkpt>
      <trkpt lat="45.18304" lon="0.87203">
        <ele>116.1755702</ele>
        <time>2022-08-18T09:15:36Z</time>
      </trkpt>
      <trkpt lat="45.18302" lon="0.87192">
        <ele>116.717432</ele>
        <time>2022-08-18T09:15:38Z</time>
      </trkpt>
      <trkpt lat="45.18299" lon="0.87181">
        <ele>116.4931903</ele>
        <time>2022-08-18T09:15:40Z</time>
      </trkpt>
      <trkpt lat="45.18297" lon="0.87169">
        <ele>115.8726699</ele>
        <time>2022-08-18T09:15:42Z</time>
      </trkpt>
      <trkpt lat="45.18295" lon="0.87158">
        <ele>116.8447552</ele>
        <time>2022-08-18T09:15:44Z</time>
      </trkpt>
      <trkpt lat="45.18293" lon="0.87145">
        <ele>116.5456428</ele>
        <time>2022-08-18T09:15:46Z</time>
      </trkpt>
      <trkpt lat="45.1829" lon="0.87133">
        <ele>116.3524154</ele>
        <time>2022-08-18T09:15:48Z</time>
      </trkpt>
      <trkpt lat="45.18289" lon="0.8712">
        <ele>116.8708737</ele>
        <time>2022-08-18T09:15:50Z</time>
      </trkpt>
      <trkpt lat="45.18287" lon="0.87106">
        <ele>116.9451914</ele>
        <time>2022-08-18T09:15:52Z</time>
      </trkpt>
      <trkpt lat="45.18285" lon="0.87093">
        <ele>117.1712162</ele>
        <time>2022-08-18T09:15:54Z</time>
      </trkpt>
      <trkpt lat="45.18283" lon="0.8708">
        <ele>116.8716941</ele>
        <time>2022-08-18T09:15:56Z</time>
      </trkpt>
      <trkpt lat="45.18283" lon="0.87066">
        <ele>116.3606043</ele>
        <time>2022-08-18T09:15:58Z</time>
      </trkpt>
      <trkpt lat="45.18281" lon="0.87052">
        <ele>116.2047796</ele>
        <time>2022-08-18T09:16:00Z</time>
      </trkpt>
      <trkpt lat="45.1828" lon="0.87039">
        <ele>115.7869154</ele>
        <time>2022-08-18T09:16:02Z</time>
      </trkpt>
      <trkpt lat="45.1828" lon="0.87027">
        <ele>116.4534758</ele>
        <time>2022-08-18T09:16:04Z</time>
      </trkpt>
      <trkpt lat="45.1828" lon="0.87014">
        <ele>115.9545897</ele>
        <time>2022-08-18T09:16:06Z</time>
      </trkpt>
      <trkpt lat="45.18279" lon="0.87001">
        <ele>115.9132305</ele>
        <time>2022-08-18T09:16:08Z</time>
      </trkpt>
      <trkpt lat="45.18279" lon="0.86987">
        <ele>115.1282855</ele>
        <time>2022-08-18T09:16:10Z</time>
      </trkpt>
      <trkpt lat="45.1828" lon="0.86972">
        <ele>114.4150547</ele>
        <time>2022-08-18T09:16:12Z</time>
      </trkpt>
      <trkpt lat="45.18283" lon="0.86957">
        <ele>113.8307489</ele>
        <time>2022-08-18T09:16:14Z</time>
      </trkpt>
      <trkpt lat="45.18287" lon="0.8694">
        <ele>111.9904393</ele>
        <time>2022-08-18T09:16:16Z</time>
      </trkpt>
      <trkpt lat="45.18292" lon="0.86923">
        <ele>111.3082586</ele>
        <time>2022-08-18T09:16:18Z</time>
      </trkpt>
      <trkpt lat="45.18298" lon="0.86907">
        <ele>109.8877</ele>
        <time>2022-08-18T09:16:20Z</time>
      </trkpt>
      <trkpt lat="45.18304" lon="0.86891">
        <ele>107.9277349</ele>
        <time>2022-08-18T09:16:22Z</time>
      </trkpt>
      <trkpt lat="45.18311" lon="0.86873">
        <ele>106.6365153</ele>
        <time>2022-08-18T09:16:24Z</time>
      </trkpt>
      <trkpt lat="45.18319" lon="0.86853">
        <ele>105.8343998</ele>
        <time>2022-08-18T09:16:26Z</time>
      </trkpt>
      <trkpt lat="45.18326" lon="0.86834">
        <ele>104.3317969</ele>
        <time>2022-08-18T09:16:28Z</time>
      </trkpt>
      <trkpt lat="45.1833" lon="0.86808">
        <ele>103.1192359</ele>
        <time>2022-08-18T09:16:30Z</time>
      </trkpt>
      <trkpt lat="45.18336" lon="0.86784">
        <ele>103.0101969</ele>
        <time>2022-08-18T09:16:32Z</time>
      </trkpt>
      <trkpt lat="45.18338" lon="0.86757">
        <ele>101.4017695</ele>
        <time>2022-08-18T09:16:34Z</time>
      </trkpt>
      <trkpt lat="45.1834" lon="0.86731">
        <ele>100.7417089</ele>
        <time>2022-08-18T09:16:36Z</time>
      </trkpt>
      <trkpt lat="45.18341" lon="0.86704">
        <ele>102.0279258</ele>
        <time>2022-08-18T09:16:38Z</time>
      </trkpt>
      <trkpt lat="45.1834" lon="0.86678">
        <ele>98.7862181</ele>
        <time>2022-08-18T09:16:40Z</time>
      </trkpt>
      <trkpt lat="45.18341" lon="0.86654">
        <ele>98.4019813</ele>
        <time>2022-08-18T09:16:42Z</time>
      </trkpt>
      <trkpt lat="45.18342" lon="0.8663">
        <ele>97.8734943</ele>
        <time>2022-08-18T09:16:44Z</time>
      </trkpt>
      <trkpt lat="45.18345" lon="0.86607">
        <ele>99.0192332</ele>
        <time>2022-08-18T09:16:46Z</time>
      </trkpt>
      <trkpt lat="45.18344" lon="0.86586">
        <ele>97.3333141</ele>
        <time>2022-08-18T09:16:48Z</time>
      </trkpt>
      <trkpt lat="45.18345" lon="0.86564">
        <ele>97.1988121</ele>
        <time>2022-08-18T09:16:50Z</time>
      </trkpt>
      <trkpt lat="45.18346" lon="0.86544">
        <ele>97.277507</ele>
        <time>2022-08-18T09:16:52Z</time>
      </trkpt>
      <trkpt lat="45.18346" lon="0.86522">
        <ele>97.4962335</ele>
        <time>2022-08-18T09:16:54Z</time>
      </trkpt>
      <trkpt lat="45.18347" lon="0.86502">
        <ele>98.2543725</ele>
        <time>2022-08-18T09:16:56Z</time>
      </trkpt>
      <trkpt lat="45.18349" lon="0.86482">
        <ele>98.1061853</ele>
        <time>2022-08-18T09:16:58Z</time>
      </trkpt>
      <trkpt lat="45.18349" lon="0.86461">
        <ele>97.5048631</ele>
        <time>2022-08-18T09:17:00Z</time>
      </trkpt>
      <trkpt lat="45.18351" lon="0.86445">
        <ele>98.2089083</ele>
        <time>2022-08-18T09:17:02Z</time>
      </trkpt>
      <trkpt lat="45.18354" lon="0.8643">
        <ele>98.3774924</ele>
        <time>2022-08-18T09:17:04Z</time>
      </trkpt>
      <trkpt lat="45.18357" lon="0.86414">
        <ele>98.1047858</ele>
        <time>2022-08-18T09:17:06Z</time>
      </trkpt>
      <trkpt lat="45.18356" lon="0.86395">
        <ele>96.5299625</ele>
        <time>2022-08-18T09:17:08Z</time>
      </trkpt>
      <trkpt lat="45.18359" lon="0.8638">
        <ele>96.934656</ele>
        <time>2022-08-18T09:17:10Z</time>
      </trkpt>
      <trkpt lat="45.18365" lon="0.86362">
        <ele>98.2081376</ele>
        <time>2022-08-18T09:17:12Z</time>
      </trkpt>
      <trkpt lat="45.1837" lon="0.86344">
        <ele>99.5497036</ele>
        <time>2022-08-18T09:17:14Z</time>
      </trkpt>
      <trkpt lat="45.18372" lon="0.86325">
        <ele>98.1213171</ele>
        <time>2022-08-18T09:17:16Z</time>
      </trkpt>
      <trkpt lat="45.18375" lon="0.86307">
        <ele>98.607062</ele>
        <time>2022-08-18T09:17:18Z</time>
      </trkpt>
      <trkpt lat="45.18378" lon="0.86291">
        <ele>97.0593064</ele>
        <time>2022-08-18T09:17:20Z</time>
      </trkpt>
      <trkpt lat="45.1838" lon="0.86277">
        <ele>97.4073001</ele>
        <time>2022-08-18T09:17:22Z</time>
      </trkpt>
      <trkpt lat="45.18382" lon="0.86262">
        <ele>97.2833459</ele>
        <time>2022-08-18T09:17:24Z</time>
      </trkpt>
      <trkpt lat="45.18384" lon="0.8625">
        <ele>96.8350532</ele>
        <time>2022-08-18T09:17:26Z</time>
      </trkpt>
      <trkpt lat="45.18388" lon="0.86238">
        <ele>96.8914561</ele>
        <time>2022-08-18T09:17:28Z</time>
      </trkpt>
      <trkpt lat="45.18392" lon="0.86224">
        <ele>96.5188303</ele>
        <time>2022-08-18T09:17:30Z</time>
      </trkpt>
      <trkpt lat="45.18393" lon="0.86211">
        <ele>96.6929004</ele>
        <time>2022-08-18T09:17:32Z</time>
      </trkpt>
      <trkpt lat="45.18395" lon="0.86199">
        <ele>96.9917904</ele>
        <time>2022-08-18T09:17:34Z</time>
      </trkpt>
      <trkpt lat="45.18398" lon="0.86187">
        <ele>95.5254886</ele>
        <time>2022-08-18T09:17:36Z</time>
      </trkpt>
      <trkpt lat="45.18402" lon="0.86177">
        <ele>95.119866</ele>
        <time>2022-08-18T09:17:38Z</time>
      </trkpt>
      <trkpt lat="45.18404" lon="0.86167">
        <ele>95.6418671</ele>
        <time>2022-08-18T09:17:40Z</time>
      </trkpt>
      <trkpt lat="45.18407" lon="0.8616">
        <ele>95.5644492</ele>
        <time>2022-08-18T09:17:42Z</time>
      </trkpt>
      <trkpt lat="45.1841" lon="0.86153">
        <ele>96.1357449</ele>
        <time>2022-08-18T09:17:44Z</time>
      </trkpt>
      <trkpt lat="45.18412" lon="0.86146">
        <ele>95.7196836</ele>
        <time>2022-08-18T09:17:46Z</time>
      </trkpt>
      <trkpt lat="45.18413" lon="0.86139">
        <ele>95.9931108</ele>
        <time>2022-08-18T09:17:48Z</time>
      </trkpt>
      <trkpt lat="45.18414" lon="0.86132">
        <ele>97.5395492</ele>
        <time>2022-08-18T09:17:50Z</time>
      </trkpt>
      <trkpt lat="45.18416" lon="0.86124">
        <ele>97.6991184</ele>
        <time>2022-08-18T09:17:52Z</time>
      </trkpt>
      <trkpt lat="45.18419" lon="0.86119">
        <ele>98.4937115</ele>
        <time>2022-08-18T09:17:54Z</time>
      </trkpt>
      <trkpt lat="45.18419" lon="0.86112">
        <ele>99.7321319</ele>
        <time>2022-08-18T09:17:56Z</time>
      </trkpt>
      <trkpt lat="45.18422" lon="0.86105">
        <ele>100.230439</ele>
        <time>2022-08-18T09:17:59Z</time>
      </trkpt>
      <trkpt lat="45.18423" lon="0.86099">
        <ele>100.636669</ele>
        <time>2022-08-18T09:18:01Z</time>
      </trkpt>
      <trkpt lat="45.18425" lon="0.86095">
        <ele>100.6638527</ele>
        <time>2022-08-18T09:18:03Z</time>
      </trkpt>
      <trkpt lat="45.18428" lon="0.86089">
        <ele>100.8889308</ele>
        <time>2022-08-18T09:18:05Z</time>
      </trkpt>
      <trkpt lat="45.1843" lon="0.8608">
        <ele>101.4915885</ele>
        <time>2022-08-18T09:18:07Z</time>
      </trkpt>
      <trkpt lat="45.18432" lon="0.86074">
        <ele>103.8190517</ele>
        <time>2022-08-18T09:18:09Z</time>
      </trkpt>
      <trkpt lat="45.18434" lon="0.86067">
        <ele>104.4815132</ele>
        <time>2022-08-18T09:18:11Z</time>
      </trkpt>
      <trkpt lat="45.18437" lon="0.8606">
        <ele>104.5177727</ele>
        <time>2022-08-18T09:18:13Z</time>
      </trkpt>
      <trkpt lat="45.18438" lon="0.86057">
        <ele>104.5594781</ele>
        <time>2022-08-18T09:18:14Z</time>
      </trkpt>
      <trkpt lat="45.18441" lon="0.8605">
        <ele>105.0526196</ele>
        <time>2022-08-18T09:18:16Z</time>
      </trkpt>
      <trkpt lat="45.18443" lon="0.86044">
        <ele>105.7575141</ele>
        <time>2022-08-18T09:18:18Z</time>
      </trkpt>
      <trkpt lat="45.18444" lon="0.86036">
        <ele>105.6945146</ele>
        <time>2022-08-18T09:18:20Z</time>
      </trkpt>
      <trkpt lat="45.18445" lon="0.86032">
        <ele>105.678168</ele>
        <time>2022-08-18T09:18:22Z</time>
      </trkpt>
      <trkpt lat="45.18448" lon="0.86026">
        <ele>104.7451552</ele>
        <time>2022-08-18T09:18:24Z</time>
      </trkpt>
      <trkpt lat="45.18451" lon="0.8602">
        <ele>104.4062108</ele>
        <time>2022-08-18T09:18:26Z</time>
      </trkpt>
      <trkpt lat="45.18453" lon="0.86014">
        <ele>104.3150843</ele>
        <time>2022-08-18T09:18:28Z</time>
      </trkpt>
      <trkpt lat="45.18455" lon="0.86007">
        <ele>104.0706429</ele>
        <time>2022-08-18T09:18:30Z</time>
      </trkpt>
      <trkpt lat="45.18457" lon="0.86">
        <ele>103.9602188</ele>
        <time>2022-08-18T09:18:32Z</time>
      </trkpt>
      <trkpt lat="45.18459" lon="0.85993">
        <ele>103.8605774</ele>
        <time>2022-08-18T09:18:34Z</time>
      </trkpt>
      <trkpt lat="45.1846" lon="0.85987">
        <ele>104.3133421</ele>
        <time>2022-08-18T09:18:36Z</time>
      </trkpt>
      <trkpt lat="45.18463" lon="0.85979">
        <ele>104.0151823</ele>
        <time>2022-08-18T09:18:38Z</time>
      </trkpt>
      <trkpt lat="45.18467" lon="0.85971">
        <ele>104.3308585</ele>
        <time>2022-08-18T09:18:40Z</time>
      </trkpt>
      <trkpt lat="45.1847" lon="0.85962">
        <ele>104.6018159</ele>
        <time>2022-08-18T09:18:42Z</time>
      </trkpt>
      <trkpt lat="45.18473" lon="0.85954">
        <ele>103.924848</ele>
        <time>2022-08-18T09:18:44Z</time>
      </trkpt>
      <trkpt lat="45.18474" lon="0.85944">
        <ele>103.8871449</ele>
        <time>2022-08-18T09:18:46Z</time>
      </trkpt>
      <trkpt lat="45.18475" lon="0.85934">
        <ele>103.223186</ele>
        <time>2022-08-18T09:18:48Z</time>
      </trkpt>
      <trkpt lat="45.18477" lon="0.85925">
        <ele>103.5017394</ele>
        <time>2022-08-18T09:18:50Z</time>
      </trkpt>
      <trkpt lat="45.18481" lon="0.85916">
        <ele>104.2552295</ele>
        <time>2022-08-18T09:18:52Z</time>
      </trkpt>
      <trkpt lat="45.18483" lon="0.85906">
        <ele>104.553013</ele>
        <time>2022-08-18T09:18:54Z</time>
      </trkpt>
      <trkpt lat="45.18486" lon="0.85896">
        <ele>105.5177753</ele>
        <time>2022-08-18T09:18:56Z</time>
      </trkpt>
      <trkpt lat="45.18487" lon="0.85884">
        <ele>104.9064984</ele>
        <time>2022-08-18T09:18:58Z</time>
      </trkpt>
      <trkpt lat="45.18488" lon="0.85874">
        <ele>105.7978587</ele>
        <time>2022-08-18T09:19:00Z</time>
      </trkpt>
      <trkpt lat="45.1849" lon="0.85864">
        <ele>104.4279873</ele>
        <time>2022-08-18T09:19:02Z</time>
      </trkpt>
      <trkpt lat="45.18493" lon="0.85852">
        <ele>104.630626</ele>
        <time>2022-08-18T09:19:04Z</time>
      </trkpt>
      <trkpt lat="45.18495" lon="0.85839">
        <ele>104.1425471</ele>
        <time>2022-08-18T09:19:06Z</time>
      </trkpt>
      <trkpt lat="45.18497" lon="0.85828">
        <ele>103.5351773</ele>
        <time>2022-08-18T09:19:08Z</time>
      </trkpt>
      <trkpt lat="45.18501" lon="0.85816">
        <ele>103.7334116</ele>
        <time>2022-08-18T09:19:10Z</time>
      </trkpt>
      <trkpt lat="45.18505" lon="0.85803">
        <ele>103.1014088</ele>
        <time>2022-08-18T09:19:12Z</time>
      </trkpt>
      <trkpt lat="45.1851" lon="0.8579">
        <ele>102.9003046</ele>
        <time>2022-08-18T09:19:14Z</time>
      </trkpt>
      <trkpt lat="45.18513" lon="0.85776">
        <ele>101.5808395</ele>
        <time>2022-08-18T09:19:16Z</time>
      </trkpt>
      <trkpt lat="45.18521" lon="0.85761">
        <ele>102.2040637</ele>
        <time>2022-08-18T09:19:18Z</time>
      </trkpt>
      <trkpt lat="45.18525" lon="0.85746">
        <ele>101.3201704</ele>
        <time>2022-08-18T09:19:20Z</time>
      </trkpt>
      <trkpt lat="45.18531" lon="0.8573">
        <ele>100.7493177</ele>
        <time>2022-08-18T09:19:22Z</time>
      </trkpt>
      <trkpt lat="45.18537" lon="0.85714">
        <ele>100.825493</ele>
        <time>2022-08-18T09:19:24Z</time>
      </trkpt>
      <trkpt lat="45.18544" lon="0.85697">
        <ele>99.9466903</ele>
        <time>2022-08-18T09:19:26Z</time>
      </trkpt>
      <trkpt lat="45.1855" lon="0.85681">
        <ele>99.2680412</ele>
        <time>2022-08-18T09:19:28Z</time>
      </trkpt>
      <trkpt lat="45.18556" lon="0.85664">
        <ele>98.4560781</ele>
        <time>2022-08-18T09:19:30Z</time>
      </trkpt>
      <trkpt lat="45.18562" lon="0.85646">
        <ele>97.5186879</ele>
        <time>2022-08-18T09:19:32Z</time>
      </trkpt>
      <trkpt lat="45.1857" lon="0.85629">
        <ele>96.7750923</ele>
        <time>2022-08-18T09:19:34Z</time>
      </trkpt>
      <trkpt lat="45.18578" lon="0.85612">
        <ele>96.8850377</ele>
        <time>2022-08-18T09:19:36Z</time>
      </trkpt>
      <trkpt lat="45.18588" lon="0.85598">
        <ele>96.6978897</ele>
        <time>2022-08-18T09:19:38Z</time>
      </trkpt>
      <trkpt lat="45.18598" lon="0.85585">
        <ele>96.7570515</ele>
        <time>2022-08-18T09:19:40Z</time>
      </trkpt>
      <trkpt lat="45.18605" lon="0.85569">
        <ele>96.1221824</ele>
        <time>2022-08-18T09:19:42Z</time>
      </trkpt>
      <trkpt lat="45.18611" lon="0.85553">
        <ele>95.2601891</ele>
        <time>2022-08-18T09:19:44Z</time>
      </trkpt>
      <trkpt lat="45.18618" lon="0.85539">
        <ele>95.219645</ele>
        <time>2022-08-18T09:19:46Z</time>
      </trkpt>
      <trkpt lat="45.18628" lon="0.8552">
        <ele>94.756081</ele>
        <time>2022-08-18T09:19:49Z</time>
      </trkpt>
      <trkpt lat="45.18635" lon="0.85506">
        <ele>94.6744443</ele>
        <time>2022-08-18T09:19:51Z</time>
      </trkpt>
      <trkpt lat="45.18641" lon="0.85493">
        <ele>94.6670661</ele>
        <time>2022-08-18T09:19:53Z</time>
      </trkpt>
      <trkpt lat="45.18648" lon="0.85481">
        <ele>94.1790156</ele>
        <time>2022-08-18T09:19:55Z</time>
      </trkpt>
      <trkpt lat="45.18658" lon="0.85471">
        <ele>94.2313748</ele>
        <time>2022-08-18T09:19:57Z</time>
      </trkpt>
      <trkpt lat="45.18661" lon="0.85465">
        <ele>94.2105762</ele>
        <time>2022-08-18T09:19:58Z</time>
      </trkpt>
      <trkpt lat="45.18668" lon="0.85452">
        <ele>93.7060301</ele>
        <time>2022-08-18T09:20:00Z</time>
      </trkpt>
      <trkpt lat="45.18675" lon="0.85439">
        <ele>93.3967399</ele>
        <time>2022-08-18T09:20:02Z</time>
      </trkpt>
      <trkpt lat="45.1868" lon="0.85416">
        <ele>92.9723911</ele>
        <time>2022-08-18T09:20:05Z</time>
      </trkpt>
      <trkpt lat="45.18682" lon="0.85402">
        <ele>92.498712</ele>
        <time>2022-08-18T09:20:07Z</time>
      </trkpt>
      <trkpt lat="45.18683" lon="0.85388">
        <ele>94.0116459</ele>
        <time>2022-08-18T09:20:09Z</time>
      </trkpt>
      <trkpt lat="45.18682" lon="0.85373">
        <ele>92.8016065</ele>
        <time>2022-08-18T09:20:11Z</time>
      </trkpt>
      <trkpt lat="45.18682" lon="0.85363">
        <ele>93.7675646</ele>
        <time>2022-08-18T09:20:13Z</time>
      </trkpt>
      <trkpt lat="45.18682" lon="0.85354">
        <ele>93.2081174</ele>
        <time>2022-08-18T09:20:15Z</time>
      </trkpt>
      <trkpt lat="45.18682" lon="0.8534">
        <ele>92.591138</ele>
        <time>2022-08-18T09:20:17Z</time>
      </trkpt>
      <trkpt lat="45.18682" lon="0.85327">
        <ele>92.4879848</ele>
        <time>2022-08-18T09:20:19Z</time>
      </trkpt>
      <trkpt lat="45.18681" lon="0.85314">
        <ele>93.3762908</ele>
        <time>2022-08-18T09:20:21Z</time>
      </trkpt>
      <trkpt lat="45.1868" lon="0.85302">
        <ele>93.5190808</ele>
        <time>2022-08-18T09:20:23Z</time>
      </trkpt>
      <trkpt lat="45.18679" lon="0.8529">
        <ele>93.4372232</ele>
        <time>2022-08-18T09:20:25Z</time>
      </trkpt>
      <trkpt lat="45.18678" lon="0.85277">
        <ele>92.9094097</ele>
        <time>2022-08-18T09:20:27Z</time>
      </trkpt>
      <trkpt lat="45.18681" lon="0.85265">
        <ele>92.8834308</ele>
        <time>2022-08-18T09:20:29Z</time>
      </trkpt>
      <trkpt lat="45.18684" lon="0.85255">
        <ele>93.5907393</ele>
        <time>2022-08-18T09:20:31Z</time>
      </trkpt>
      <trkpt lat="45.18688" lon="0.85247">
        <ele>94.1091189</ele>
        <time>2022-08-18T09:20:33Z</time>
      </trkpt>
      <trkpt lat="45.18691" lon="0.85239">
        <ele>94.7648674</ele>
        <time>2022-08-18T09:20:35Z</time>
      </trkpt>
      <trkpt lat="45.18694" lon="0.85234">
        <ele>95.1238006</ele>
        <time>2022-08-18T09:20:37Z</time>
      </trkpt>
      <trkpt lat="45.18697" lon="0.85231">
        <ele>95.338325</ele>
        <time>2022-08-18T09:20:39Z</time>
      </trkpt>
      <trkpt lat="45.18701" lon="0.85227">
        <ele>95.8797495</ele>
        <time>2022-08-18T09:20:41Z</time>
      </trkpt>
      <trkpt lat="45.18704" lon="0.85223">
        <ele>95.9262002</ele>
        <time>2022-08-18T09:20:43Z</time>
      </trkpt>
      <trkpt lat="45.18707" lon="0.85218">
        <ele>96.2169668</ele>
        <time>2022-08-18T09:20:45Z</time>
      </trkpt>
      <trkpt lat="45.18709" lon="0.85215">
        <ele>96.2949517</ele>
        <time>2022-08-18T09:20:47Z</time>
      </trkpt>
      <trkpt lat="45.18712" lon="0.85211">
        <ele>96.513059</ele>
        <time>2022-08-18T09:20:49Z</time>
      </trkpt>
      <trkpt lat="45.18715" lon="0.85208">
        <ele>96.3488575</ele>
        <time>2022-08-18T09:20:51Z</time>
      </trkpt>
      <trkpt lat="45.18718" lon="0.85204">
        <ele>96.8440982</ele>
        <time>2022-08-18T09:20:53Z</time>
      </trkpt>
      <trkpt lat="45.18721" lon="0.852">
        <ele>97.1453286</ele>
        <time>2022-08-18T09:20:55Z</time>
      </trkpt>
      <trkpt lat="45.18724" lon="0.85196">
        <ele>97.7010129</ele>
        <time>2022-08-18T09:20:57Z</time>
      </trkpt>
      <trkpt lat="45.18727" lon="0.85192">
        <ele>97.8542388</ele>
        <time>2022-08-18T09:20:59Z</time>
      </trkpt>
      <trkpt lat="45.18729" lon="0.85189">
        <ele>98.4369852</ele>
        <time>2022-08-18T09:21:01Z</time>
      </trkpt>
      <trkpt lat="45.18731" lon="0.85187">
        <ele>98.5218724</ele>
        <time>2022-08-18T09:21:03Z</time>
      </trkpt>
      <trkpt lat="45.18733" lon="0.85188">
        <ele>99.0784189</ele>
        <time>2022-08-18T09:21:05Z</time>
      </trkpt>
      <trkpt lat="45.18734" lon="0.8519">
        <ele>99.1747089</ele>
        <time>2022-08-18T09:21:07Z</time>
      </trkpt>
      <trkpt lat="45.18735" lon="0.85191">
        <ele>99.0621781</ele>
        <time>2022-08-18T09:21:09Z</time>
      </trkpt>
      <trkpt lat="45.18735" lon="0.85191">
        <ele>99.2868494</ele>
        <time>2022-08-18T09:21:11Z</time>
      </trkpt>
      <trkpt lat="45.18735" lon="0.85191">
        <ele>99.5165681</ele>
        <time>2022-08-18T09:21:13Z</time>
      </trkpt>
      <trkpt lat="45.18736" lon="0.85191">
        <ele>100.0589594</ele>
        <time>2022-08-18T09:21:15Z</time>
      </trkpt>
      <trkpt lat="45.18736" lon="0.85191">
        <ele>100.9960563</ele>
        <time>2022-08-18T09:21:17Z</time>
      </trkpt>
      <trkpt lat="45.18736" lon="0.85191">
        <ele>100.901385</ele>
        <time>2022-08-18T09:21:19Z</time>
      </trkpt>
      <trkpt lat="45.18737" lon="0.85191">
        <ele>100.860826</ele>
        <time>2022-08-18T09:21:21Z</time>
      </trkpt>
      <trkpt lat="45.18736" lon="0.85191">
        <ele>100.7122312</ele>
        <time>2022-08-18T09:21:23Z</time>
      </trkpt>
      <trkpt lat="45.18737" lon="0.85191">
        <ele>100.4349893</ele>
        <time>2022-08-18T09:21:25Z</time>
      </trkpt>
      <trkpt lat="45.18736" lon="0.85191">
        <ele>99.8441292</ele>
        <time>2022-08-18T09:21:27Z</time>
      </trkpt>
      <trkpt lat="45.18736" lon="0.85192">
        <ele>99.0916498</ele>
        <time>2022-08-18T09:21:29Z</time>
      </trkpt>
      <trkpt lat="45.18736" lon="0.85191">
        <ele>98.5446188</ele>
        <time>2022-08-18T09:21:31Z</time>
      </trkpt>
      <trkpt lat="45.18736" lon="0.85191">
        <ele>98.7379662</ele>
        <time>2022-08-18T09:21:33Z</time>
      </trkpt>
      <trkpt lat="45.18737" lon="0.85192">
        <ele>98.7591945</ele>
        <time>2022-08-18T09:21:35Z</time>
      </trkpt>
      <trkpt lat="45.18737" lon="0.85192">
        <ele>99.1491561</ele>
        <time>2022-08-18T09:21:37Z</time>
      </trkpt>
      <trkpt lat="45.18737" lon="0.85192">
        <ele>99.2037159</ele>
        <time>2022-08-18T09:21:39Z</time>
      </trkpt>
      <trkpt lat="45.18737" lon="0.85192">
        <ele>99.395985</ele>
        <time>2022-08-18T09:21:41Z</time>
      </trkpt>
      <trkpt lat="45.18737" lon="0.85191">
        <ele>99.2851627</ele>
        <time>2022-08-18T09:21:43Z</time>
      </trkpt>
      <trkpt lat="45.18737" lon="0.85192">
        <ele>99.3453794</ele>
        <time>2022-08-18T09:21:45Z</time>
      </trkpt>
      <trkpt lat="45.18736" lon="0.85191">
        <ele>99.2526634</ele>
        <time>2022-08-18T09:21:47Z</time>
      </trkpt>
      <trkpt lat="45.18737" lon="0.85192">
        <ele>98.6497109</ele>
        <time>2022-08-18T09:21:49Z</time>
      </trkpt>
      <trkpt lat="45.18736" lon="0.85192">
        <ele>98.3890463</ele>
        <time>2022-08-18T09:21:51Z</time>
      </trkpt>
      <trkpt lat="45.18737" lon="0.85192">
        <ele>98.5852108</ele>
        <time>2022-08-18T09:21:53Z</time>
      </trkpt>
      <trkpt lat="45.18737" lon="0.85192">
        <ele>98.9431995</ele>
        <time>2022-08-18T09:21:55Z</time>
      </trkpt>
      <trkpt lat="45.18737" lon="0.85193">
        <ele>99.2232608</ele>
        <time>2022-08-18T09:21:57Z</time>
      </trkpt>
      <trkpt lat="45.18737" lon="0.85193">
        <ele>99.2581013</ele>
        <time>2022-08-18T09:21:59Z</time>
      </trkpt>
      <trkpt lat="45.18737" lon="0.85193">
        <ele>99.2667656</ele>
        <time>2022-08-18T09:22:01Z</time>
      </trkpt>
      <trkpt lat="45.18737" lon="0.85192">
        <ele>99.0367769</ele>
        <time>2022-08-18T09:22:03Z</time>
      </trkpt>
      <trkpt lat="45.18737" lon="0.85192">
        <ele>99.1114733</ele>
        <time>2022-08-18T09:22:05Z</time>
      </trkpt>
      <trkpt lat="45.18737" lon="0.85192">
        <ele>99.1742766</ele>
        <time>2022-08-18T09:22:07Z</time>
      </trkpt>
      <trkpt lat="45.18737" lon="0.85192">
        <ele>99.1742766</ele>
        <time>2022-08-18T09:22:11Z</time>
      </trkpt>
      <trkpt lat="45.18737" lon="0.85193">
        <ele>98.3116661</ele>
        <time>2022-08-18T09:22:13Z</time>
      </trkpt>
      <trkpt lat="45.18737" lon="0.85193">
        <ele>98.175865</ele>
        <time>2022-08-18T09:22:15Z</time>
      </trkpt>
      <trkpt lat="45.18737" lon="0.85193">
        <ele>98.127502</ele>
        <time>2022-08-18T09:22:17Z</time>
      </trkpt>
      <trkpt lat="45.18737" lon="0.85193">
        <ele>98.0288383</ele>
        <time>2022-08-18T09:22:19Z</time>
      </trkpt>
      <trkpt lat="45.18738" lon="0.85193">
        <ele>98.1415954</ele>
        <time>2022-08-18T09:22:21Z</time>
      </trkpt>
      <trkpt lat="45.18738" lon="0.85194">
        <ele>97.8665853</ele>
        <time>2022-08-18T09:22:23Z</time>
      </trkpt>
      <trkpt lat="45.18739" lon="0.85195">
        <ele>97.7966981</ele>
        <time>2022-08-18T09:22:25Z</time>
      </trkpt>
      <trkpt lat="45.18738" lon="0.85195">
        <ele>97.4996577</ele>
        <time>2022-08-18T09:22:27Z</time>
      </trkpt>
      <trkpt lat="45.18738" lon="0.85195">
        <ele>97.2508427</ele>
        <time>2022-08-18T09:22:29Z</time>
      </trkpt>
      <trkpt lat="45.18738" lon="0.85196">
        <ele>96.8973527</ele>
        <time>2022-08-18T09:22:31Z</time>
      </trkpt>
      <trkpt lat="45.18738" lon="0.85196">
        <ele>97.0472528</ele>
        <time>2022-08-18T09:22:33Z</time>
      </trkpt>
      <trkpt lat="45.18737" lon="0.85196">
        <ele>97.3674009</ele>
        <time>2022-08-18T09:22:35Z</time>
      </trkpt>
      <trkpt lat="45.18737" lon="0.85196">
        <ele>97.7831078</ele>
        <time>2022-08-18T09:22:37Z</time>
      </trkpt>
      <trkpt lat="45.18737" lon="0.85196">
        <ele>97.9900981</ele>
        <time>2022-08-18T09:22:39Z</time>
      </trkpt>
      <trkpt lat="45.18738" lon="0.85196">
        <ele>98.6688934</ele>
        <time>2022-08-18T09:22:41Z</time>
      </trkpt>
      <trkpt lat="45.18738" lon="0.85196">
        <ele>98.807288</ele>
        <time>2022-08-18T09:22:43Z</time>
      </trkpt>
      <trkpt lat="45.18737" lon="0.85196">
        <ele>99.1138733</ele>
        <time>2022-08-18T09:22:47Z</time>
      </trkpt>
      <trkpt lat="45.18738" lon="0.85196">
        <ele>99.5272443</ele>
        <time>2022-08-18T09:22:49Z</time>
      </trkpt>
      <trkpt lat="45.18738" lon="0.85196">
        <ele>99.0317586</ele>
        <time>2022-08-18T09:22:51Z</time>
      </trkpt>
      <trkpt lat="45.18737" lon="0.85195">
        <ele>98.7820772</ele>
        <time>2022-08-18T09:22:53Z</time>
      </trkpt>
      <trkpt lat="45.18737" lon="0.85195">
        <ele>99.0162562</ele>
        <time>2022-08-18T09:22:55Z</time>
      </trkpt>
      <trkpt lat="45.18737" lon="0.85195">
        <ele>99.294005</ele>
        <time>2022-08-18T09:22:56Z</time>
      </trkpt>
      <trkpt lat="45.18737" lon="0.85195">
        <ele>99.954515</ele>
        <time>2022-08-18T09:22:58Z</time>
      </trkpt>
      <trkpt lat="45.18738" lon="0.85194">
        <ele>99.9600306</ele>
        <time>2022-08-18T09:23:00Z</time>
      </trkpt>
      <trkpt lat="45.18738" lon="0.85193">
        <ele>99.9941701</ele>
        <time>2022-08-18T09:23:02Z</time>
      </trkpt>
      <trkpt lat="45.18738" lon="0.85193">
        <ele>99.6037785</ele>
        <time>2022-08-18T09:23:04Z</time>
      </trkpt>
      <trkpt lat="45.18738" lon="0.85192">
        <ele>99.6511331</ele>
        <time>2022-08-18T09:23:06Z</time>
      </trkpt>
      <trkpt lat="45.18738" lon="0.85191">
        <ele>99.5422531</ele>
        <time>2022-08-18T09:23:08Z</time>
      </trkpt>
      <trkpt lat="45.18739" lon="0.85191">
        <ele>99.5404982</ele>
        <time>2022-08-18T09:23:10Z</time>
      </trkpt>
      <trkpt lat="45.18741" lon="0.85188">
        <ele>99.8117942</ele>
        <time>2022-08-18T09:23:12Z</time>
      </trkpt>
      <trkpt lat="45.18743" lon="0.85182">
        <ele>100.160895</ele>
        <time>2022-08-18T09:23:14Z</time>
      </trkpt>
      <trkpt lat="45.18745" lon="0.85171">
        <ele>99.9278308</ele>
        <time>2022-08-18T09:23:16Z</time>
      </trkpt>
      <trkpt lat="45.18747" lon="0.85161">
        <ele>100.066685</ele>
        <time>2022-08-18T09:23:18Z</time>
      </trkpt>
      <trkpt lat="45.18752" lon="0.85152">
        <ele>99.6580029</ele>
        <time>2022-08-18T09:23:20Z</time>
      </trkpt>
      <trkpt lat="45.18759" lon="0.85145">
        <ele>99.0159175</ele>
        <time>2022-08-18T09:23:22Z</time>
      </trkpt>
      <trkpt lat="45.18766" lon="0.85141">
        <ele>99.05119</ele>
        <time>2022-08-18T09:23:24Z</time>
      </trkpt>
      <trkpt lat="45.18773" lon="0.85135">
        <ele>98.5711778</ele>
        <time>2022-08-18T09:23:26Z</time>
      </trkpt>
      <trkpt lat="45.1878" lon="0.85128">
        <ele>98.7615423</ele>
        <time>2022-08-18T09:23:28Z</time>
      </trkpt>
      <trkpt lat="45.18786" lon="0.85121">
        <ele>98.7756877</ele>
        <time>2022-08-18T09:23:30Z</time>
      </trkpt>
      <trkpt lat="45.18792" lon="0.85113">
        <ele>98.3154602</ele>
        <time>2022-08-18T09:23:32Z</time>
      </trkpt>
      <trkpt lat="45.18798" lon="0.85106">
        <ele>98.5445686</ele>
        <time>2022-08-18T09:23:34Z</time>
      </trkpt>
      <trkpt lat="45.18804" lon="0.85098">
        <ele>98.4682824</ele>
        <time>2022-08-18T09:23:36Z</time>
      </trkpt>
      <trkpt lat="45.18811" lon="0.85089">
        <ele>98.318017</ele>
        <time>2022-08-18T09:23:38Z</time>
      </trkpt>
      <trkpt lat="45.18818" lon="0.8508">
        <ele>98.3498258</ele>
        <time>2022-08-18T09:23:40Z</time>
      </trkpt>
      <trkpt lat="45.18824" lon="0.85071">
        <ele>97.98472</ele>
        <time>2022-08-18T09:23:42Z</time>
      </trkpt>
      <trkpt lat="45.18831" lon="0.85063">
        <ele>98.2558071</ele>
        <time>2022-08-18T09:23:44Z</time>
      </trkpt>
      <trkpt lat="45.18838" lon="0.85054">
        <ele>98.1704686</ele>
        <time>2022-08-18T09:23:46Z</time>
      </trkpt>
      <trkpt lat="45.18846" lon="0.85045">
        <ele>98.1847742</ele>
        <time>2022-08-18T09:23:48Z</time>
      </trkpt>
      <trkpt lat="45.18853" lon="0.85035">
        <ele>97.8549262</ele>
        <time>2022-08-18T09:23:50Z</time>
      </trkpt>
      <trkpt lat="45.1886" lon="0.85027">
        <ele>97.6634407</ele>
        <time>2022-08-18T09:23:52Z</time>
      </trkpt>
      <trkpt lat="45.18868" lon="0.85018">
        <ele>97.5511739</ele>
        <time>2022-08-18T09:23:54Z</time>
      </trkpt>
      <trkpt lat="45.18875" lon="0.85009">
        <ele>97.3408447</ele>
        <time>2022-08-18T09:23:56Z</time>
      </trkpt>
      <trkpt lat="45.18882" lon="0.84999">
        <ele>97.3535727</ele>
        <time>2022-08-18T09:23:58Z</time>
      </trkpt>
      <trkpt lat="45.18893" lon="0.84985">
        <ele>96.8299726</ele>
        <time>2022-08-18T09:24:01Z</time>
      </trkpt>
      <trkpt lat="45.18901" lon="0.84976">
        <ele>96.1870599</ele>
        <time>2022-08-18T09:24:03Z</time>
      </trkpt>
      <trkpt lat="45.18908" lon="0.84966">
        <ele>95.852223</ele>
        <time>2022-08-18T09:24:05Z</time>
      </trkpt>
      <trkpt lat="45.18915" lon="0.84957">
        <ele>95.6242817</ele>
        <time>2022-08-18T09:24:07Z</time>
      </trkpt>
      <trkpt lat="45.18922" lon="0.84947">
        <ele>95.7952432</ele>
        <time>2022-08-18T09:24:09Z</time>
      </trkpt>
      <trkpt lat="45.18929" lon="0.84938">
        <ele>95.6100651</ele>
        <time>2022-08-18T09:24:11Z</time>
      </trkpt>
      <trkpt lat="45.18937" lon="0.84928">
        <ele>95.7397716</ele>
        <time>2022-08-18T09:24:13Z</time>
      </trkpt>
      <trkpt lat="45.18944" lon="0.84918">
        <ele>95.603042</ele>
        <time>2022-08-18T09:24:15Z</time>
      </trkpt>
      <trkpt lat="45.18951" lon="0.84907">
        <ele>95.2146756</ele>
        <time>2022-08-18T09:24:17Z</time>
      </trkpt>
      <trkpt lat="45.18958" lon="0.84896">
        <ele>95.3609433</ele>
        <time>2022-08-18T09:24:19Z</time>
      </trkpt>
      <trkpt lat="45.18965" lon="0.84885">
        <ele>95.3226417</ele>
        <time>2022-08-18T09:24:21Z</time>
      </trkpt>
      <trkpt lat="45.18971" lon="0.84875">
        <ele>94.8991677</ele>
        <time>2022-08-18T09:24:23Z</time>
      </trkpt>
      <trkpt lat="45.18978" lon="0.84863">
        <ele>94.7578361</ele>
        <time>2022-08-18T09:24:25Z</time>
      </trkpt>
      <trkpt lat="45.18981" lon="0.84858">
        <ele>94.7958247</ele>
        <time>2022-08-18T09:24:26Z</time>
      </trkpt>
      <trkpt lat="45.18986" lon="0.84846">
        <ele>94.9673743</ele>
        <time>2022-08-18T09:24:28Z</time>
      </trkpt>
      <trkpt lat="45.18992" lon="0.84835">
        <ele>95.1052663</ele>
        <time>2022-08-18T09:24:30Z</time>
      </trkpt>
      <trkpt lat="45.18997" lon="0.84823">
        <ele>95.055425</ele>
        <time>2022-08-18T09:24:32Z</time>
      </trkpt>
      <trkpt lat="45.19002" lon="0.84811">
        <ele>94.9159887</ele>
        <time>2022-08-18T09:24:34Z</time>
      </trkpt>
      <trkpt lat="45.19007" lon="0.84799">
        <ele>94.906705</ele>
        <time>2022-08-18T09:24:36Z</time>
      </trkpt>
      <trkpt lat="45.19012" lon="0.84786">
        <ele>95.1934539</ele>
        <time>2022-08-18T09:24:38Z</time>
      </trkpt>
      <trkpt lat="45.19016" lon="0.84773">
        <ele>95.0912187</ele>
        <time>2022-08-18T09:24:40Z</time>
      </trkpt>
      <trkpt lat="45.1902" lon="0.84761">
        <ele>95.248842</ele>
        <time>2022-08-18T09:24:42Z</time>
      </trkpt>
      <trkpt lat="45.19024" lon="0.84748">
        <ele>95.2176187</ele>
        <time>2022-08-18T09:24:44Z</time>
      </trkpt>
      <trkpt lat="45.19028" lon="0.84735">
        <ele>95.2868611</ele>
        <time>2022-08-18T09:24:46Z</time>
      </trkpt>
      <trkpt lat="45.19032" lon="0.84722">
        <ele>95.2629718</ele>
        <time>2022-08-18T09:24:48Z</time>
      </trkpt>
      <trkpt lat="45.19036" lon="0.84709">
        <ele>95.3453757</ele>
        <time>2022-08-18T09:24:50Z</time>
      </trkpt>
      <trkpt lat="45.19039" lon="0.84695">
        <ele>95.2650198</ele>
        <time>2022-08-18T09:24:52Z</time>
      </trkpt>
      <trkpt lat="45.19043" lon="0.84682">
        <ele>95.5130064</ele>
        <time>2022-08-18T09:24:54Z</time>
      </trkpt>
      <trkpt lat="45.19046" lon="0.84668">
        <ele>95.4399064</ele>
        <time>2022-08-18T09:24:56Z</time>
      </trkpt>
      <trkpt lat="45.1905" lon="0.84655">
        <ele>95.2997016</ele>
        <time>2022-08-18T09:24:58Z</time>
      </trkpt>
      <trkpt lat="45.19053" lon="0.84643">
        <ele>95.068127</ele>
        <time>2022-08-18T09:25:00Z</time>
      </trkpt>
      <trkpt lat="45.19057" lon="0.84631">
        <ele>95.1129862</ele>
        <time>2022-08-18T09:25:02Z</time>
      </trkpt>
      <trkpt lat="45.1906" lon="0.84618">
        <ele>95.1576243</ele>
        <time>2022-08-18T09:25:04Z</time>
      </trkpt>
      <trkpt lat="45.19063" lon="0.84606">
        <ele>95.1895271</ele>
        <time>2022-08-18T09:25:06Z</time>
      </trkpt>
      <trkpt lat="45.19067" lon="0.84595">
        <ele>95.2793054</ele>
        <time>2022-08-18T09:25:08Z</time>
      </trkpt>
      <trkpt lat="45.1907" lon="0.84583">
        <ele>95.0484239</ele>
        <time>2022-08-18T09:25:10Z</time>
      </trkpt>
      <trkpt lat="45.19074" lon="0.84571">
        <ele>95.2448246</ele>
        <time>2022-08-18T09:25:12Z</time>
      </trkpt>
      <trkpt lat="45.19077" lon="0.8456">
        <ele>95.1139099</ele>
        <time>2022-08-18T09:25:14Z</time>
      </trkpt>
      <trkpt lat="45.19081" lon="0.84549">
        <ele>95.2608114</ele>
        <time>2022-08-18T09:25:16Z</time>
      </trkpt>
      <trkpt lat="45.19084" lon="0.84537">
        <ele>95.7030998</ele>
        <time>2022-08-18T09:25:18Z</time>
      </trkpt>
      <trkpt lat="45.19087" lon="0.84525">
        <ele>95.8986704</ele>
        <time>2022-08-18T09:25:20Z</time>
      </trkpt>
      <trkpt lat="45.19091" lon="0.84513">
        <ele>95.9204665</ele>
        <time>2022-08-18T09:25:22Z</time>
      </trkpt>
      <trkpt lat="45.19094" lon="0.84502">
        <ele>95.8357235</ele>
        <time>2022-08-18T09:25:24Z</time>
      </trkpt>
      <trkpt lat="45.19096" lon="0.84491">
        <ele>95.7567397</ele>
        <time>2022-08-18T09:25:26Z</time>
      </trkpt>
      <trkpt lat="45.19099" lon="0.84481">
        <ele>95.627939</ele>
        <time>2022-08-18T09:25:28Z</time>
      </trkpt>
      <trkpt lat="45.19102" lon="0.84469">
        <ele>95.6345594</ele>
        <time>2022-08-18T09:25:30Z</time>
      </trkpt>
      <trkpt lat="45.19105" lon="0.84458">
        <ele>95.549279</ele>
        <time>2022-08-18T09:25:32Z</time>
      </trkpt>
      <trkpt lat="45.19108" lon="0.84447">
        <ele>95.5791643</ele>
        <time>2022-08-18T09:25:34Z</time>
      </trkpt>
      <trkpt lat="45.19111" lon="0.84436">
        <ele>95.7418125</ele>
        <time>2022-08-18T09:25:36Z</time>
      </trkpt>
      <trkpt lat="45.19113" lon="0.84425">
        <ele>95.6066046</ele>
        <time>2022-08-18T09:25:38Z</time>
      </trkpt>
      <trkpt lat="45.19116" lon="0.84414">
        <ele>95.44052</ele>
        <time>2022-08-18T09:25:40Z</time>
      </trkpt>
      <trkpt lat="45.19119" lon="0.84403">
        <ele>95.6520704</ele>
        <time>2022-08-18T09:25:42Z</time>
      </trkpt>
      <trkpt lat="45.19122" lon="0.84392">
        <ele>95.8771116</ele>
        <time>2022-08-18T09:25:44Z</time>
      </trkpt>
      <trkpt lat="45.19125" lon="0.84381">
        <ele>95.9587457</ele>
        <time>2022-08-18T09:25:46Z</time>
      </trkpt>
      <trkpt lat="45.19128" lon="0.8437">
        <ele>96.1138126</ele>
        <time>2022-08-18T09:25:48Z</time>
      </trkpt>
      <trkpt lat="45.1913" lon="0.84359">
        <ele>96.1807501</ele>
        <time>2022-08-18T09:25:50Z</time>
      </trkpt>
      <trkpt lat="45.19132" lon="0.84349">
        <ele>96.3053364</ele>
        <time>2022-08-18T09:25:52Z</time>
      </trkpt>
      <trkpt lat="45.19134" lon="0.84338">
        <ele>96.4435321</ele>
        <time>2022-08-18T09:25:54Z</time>
      </trkpt>
      <trkpt lat="45.19136" lon="0.84327">
        <ele>96.6090399</ele>
        <time>2022-08-18T09:25:56Z</time>
      </trkpt>
      <trkpt lat="45.19137" lon="0.84316">
        <ele>96.4940963</ele>
        <time>2022-08-18T09:25:58Z</time>
      </trkpt>
      <trkpt lat="45.19138" lon="0.84304">
        <ele>96.4065426</ele>
        <time>2022-08-18T09:26:00Z</time>
      </trkpt>
      <trkpt lat="45.19139" lon="0.84292">
        <ele>96.3998134</ele>
        <time>2022-08-18T09:26:02Z</time>
      </trkpt>
      <trkpt lat="45.19139" lon="0.84281">
        <ele>96.8883065</ele>
        <time>2022-08-18T09:26:04Z</time>
      </trkpt>
      <trkpt lat="45.19138" lon="0.84264">
        <ele>96.6386549</ele>
        <time>2022-08-18T09:26:07Z</time>
      </trkpt>
      <trkpt lat="45.19137" lon="0.84252">
        <ele>96.8864514</ele>
        <time>2022-08-18T09:26:09Z</time>
      </trkpt>
      <trkpt lat="45.19136" lon="0.8424">
        <ele>96.43704</ele>
        <time>2022-08-18T09:26:11Z</time>
      </trkpt>
      <trkpt lat="45.19134" lon="0.84228">
        <ele>96.3557716</ele>
        <time>2022-08-18T09:26:13Z</time>
      </trkpt>
      <trkpt lat="45.19133" lon="0.84216">
        <ele>96.1157944</ele>
        <time>2022-08-18T09:26:15Z</time>
      </trkpt>
      <trkpt lat="45.19131" lon="0.84204">
        <ele>96.3027149</ele>
        <time>2022-08-18T09:26:17Z</time>
      </trkpt>
      <trkpt lat="45.1913" lon="0.84193">
        <ele>96.2168393</ele>
        <time>2022-08-18T09:26:19Z</time>
      </trkpt>
      <trkpt lat="45.19128" lon="0.84181">
        <ele>96.0731279</ele>
        <time>2022-08-18T09:26:21Z</time>
      </trkpt>
      <trkpt lat="45.19126" lon="0.8417">
        <ele>95.6572374</ele>
        <time>2022-08-18T09:26:23Z</time>
      </trkpt>
      <trkpt lat="45.19124" lon="0.84158">
        <ele>95.0996675</ele>
        <time>2022-08-18T09:26:25Z</time>
      </trkpt>
      <trkpt lat="45.19123" lon="0.84153">
        <ele>95.0943532</ele>
        <time>2022-08-18T09:26:26Z</time>
      </trkpt>
      <trkpt lat="45.19121" lon="0.84142">
        <ele>95.5566785</ele>
        <time>2022-08-18T09:26:28Z</time>
      </trkpt>
      <trkpt lat="45.1912" lon="0.84131">
        <ele>95.9024995</ele>
        <time>2022-08-18T09:26:30Z</time>
      </trkpt>
      <trkpt lat="45.19119" lon="0.8412">
        <ele>96.0809273</ele>
        <time>2022-08-18T09:26:32Z</time>
      </trkpt>
      <trkpt lat="45.19117" lon="0.84109">
        <ele>96.0894162</ele>
        <time>2022-08-18T09:26:34Z</time>
      </trkpt>
      <trkpt lat="45.19116" lon="0.84098">
        <ele>96.3636582</ele>
        <time>2022-08-18T09:26:36Z</time>
      </trkpt>
      <trkpt lat="45.19115" lon="0.84087">
        <ele>96.3324851</ele>
        <time>2022-08-18T09:26:38Z</time>
      </trkpt>
      <trkpt lat="45.19113" lon="0.84075">
        <ele>96.7974361</ele>
        <time>2022-08-18T09:26:40Z</time>
      </trkpt>
      <trkpt lat="45.19112" lon="0.84064">
        <ele>96.778085</ele>
        <time>2022-08-18T09:26:42Z</time>
      </trkpt>
      <trkpt lat="45.1911" lon="0.84052">
        <ele>96.6569523</ele>
        <time>2022-08-18T09:26:44Z</time>
      </trkpt>
      <trkpt lat="45.19109" lon="0.8404">
        <ele>96.6123369</ele>
        <time>2022-08-18T09:26:46Z</time>
      </trkpt>
      <trkpt lat="45.19107" lon="0.84028">
        <ele>96.7663798</ele>
        <time>2022-08-18T09:26:48Z</time>
      </trkpt>
      <trkpt lat="45.19105" lon="0.84016">
        <ele>96.5178552</ele>
        <time>2022-08-18T09:26:50Z</time>
      </trkpt>
      <trkpt lat="45.19104" lon="0.84005">
        <ele>96.5703982</ele>
        <time>2022-08-18T09:26:52Z</time>
      </trkpt>
      <trkpt lat="45.19102" lon="0.83993">
        <ele>96.801385</ele>
        <time>2022-08-18T09:26:54Z</time>
      </trkpt>
      <trkpt lat="45.19101" lon="0.83982">
        <ele>96.8471005</ele>
        <time>2022-08-18T09:26:56Z</time>
      </trkpt>
      <trkpt lat="45.191" lon="0.8397">
        <ele>97.240049</ele>
        <time>2022-08-18T09:26:58Z</time>
      </trkpt>
      <trkpt lat="45.19098" lon="0.83958">
        <ele>97.5564005</ele>
        <time>2022-08-18T09:27:00Z</time>
      </trkpt>
      <trkpt lat="45.19097" lon="0.83947">
        <ele>97.5338339</ele>
        <time>2022-08-18T09:27:02Z</time>
      </trkpt>
      <trkpt lat="45.19096" lon="0.83935">
        <ele>97.7334559</ele>
        <time>2022-08-18T09:27:04Z</time>
      </trkpt>
      <trkpt lat="45.19095" lon="0.83924">
        <ele>98.0034172</ele>
        <time>2022-08-18T09:27:06Z</time>
      </trkpt>
      <trkpt lat="45.19094" lon="0.83913">
        <ele>98.1262507</ele>
        <time>2022-08-18T09:27:08Z</time>
      </trkpt>
      <trkpt lat="45.19093" lon="0.83901">
        <ele>98.3375528</ele>
        <time>2022-08-18T09:27:10Z</time>
      </trkpt>
      <trkpt lat="45.19093" lon="0.8389">
        <ele>98.4963092</ele>
        <time>2022-08-18T09:27:12Z</time>
      </trkpt>
      <trkpt lat="45.19093" lon="0.83878">
        <ele>98.316219</ele>
        <time>2022-08-18T09:27:14Z</time>
      </trkpt>
      <trkpt lat="45.19093" lon="0.83867">
        <ele>98.5462574</ele>
        <time>2022-08-18T09:27:16Z</time>
      </trkpt>
      <trkpt lat="45.19093" lon="0.83855">
        <ele>98.6820356</ele>
        <time>2022-08-18T09:27:18Z</time>
      </trkpt>
      <trkpt lat="45.19093" lon="0.83843">
        <ele>99.0969441</ele>
        <time>2022-08-18T09:27:20Z</time>
      </trkpt>
      <trkpt lat="45.19094" lon="0.83831">
        <ele>99.446349</ele>
        <time>2022-08-18T09:27:22Z</time>
      </trkpt>
      <trkpt lat="45.19095" lon="0.8382">
        <ele>99.6952456</ele>
        <time>2022-08-18T09:27:24Z</time>
      </trkpt>
      <trkpt lat="45.19096" lon="0.83808">
        <ele>100.1292409</ele>
        <time>2022-08-18T09:27:26Z</time>
      </trkpt>
      <trkpt lat="45.19097" lon="0.83797">
        <ele>100.4124267</ele>
        <time>2022-08-18T09:27:28Z</time>
      </trkpt>
      <trkpt lat="45.19098" lon="0.83785">
        <ele>100.6919241</ele>
        <time>2022-08-18T09:27:30Z</time>
      </trkpt>
      <trkpt lat="45.191" lon="0.83773">
        <ele>101.1344059</ele>
        <time>2022-08-18T09:27:32Z</time>
      </trkpt>
      <trkpt lat="45.19101" lon="0.83761">
        <ele>101.0368271</ele>
        <time>2022-08-18T09:27:34Z</time>
      </trkpt>
      <trkpt lat="45.19104" lon="0.83749">
        <ele>100.8928132</ele>
        <time>2022-08-18T09:27:36Z</time>
      </trkpt>
      <trkpt lat="45.19106" lon="0.83737">
        <ele>101.6208141</ele>
        <time>2022-08-18T09:27:38Z</time>
      </trkpt>
      <trkpt lat="45.19108" lon="0.83725">
        <ele>101.9267038</ele>
        <time>2022-08-18T09:27:40Z</time>
      </trkpt>
      <trkpt lat="45.1911" lon="0.83713">
        <ele>101.8060315</ele>
        <time>2022-08-18T09:27:42Z</time>
      </trkpt>
      <trkpt lat="45.19112" lon="0.837">
        <ele>101.9353424</ele>
        <time>2022-08-18T09:27:44Z</time>
      </trkpt>
      <trkpt lat="45.19115" lon="0.83688">
        <ele>101.487004</ele>
        <time>2022-08-18T09:27:46Z</time>
      </trkpt>
      <trkpt lat="45.19117" lon="0.83676">
        <ele>100.6802299</ele>
        <time>2022-08-18T09:27:48Z</time>
      </trkpt>
      <trkpt lat="45.1912" lon="0.83663">
        <ele>99.8008557</ele>
        <time>2022-08-18T09:27:50Z</time>
      </trkpt>
      <trkpt lat="45.19122" lon="0.8365">
        <ele>99.704669</ele>
        <time>2022-08-18T09:27:52Z</time>
      </trkpt>
      <trkpt lat="45.19124" lon="0.83637">
        <ele>99.4246921</ele>
        <time>2022-08-18T09:27:54Z</time>
      </trkpt>
      <trkpt lat="45.19127" lon="0.83623">
        <ele>99.0634842</ele>
        <time>2022-08-18T09:27:56Z</time>
      </trkpt>
      <trkpt lat="45.1913" lon="0.83609">
        <ele>99.0597517</ele>
        <time>2022-08-18T09:27:58Z</time>
      </trkpt>
      <trkpt lat="45.19132" lon="0.83594">
        <ele>98.8210613</ele>
        <time>2022-08-18T09:28:00Z</time>
      </trkpt>
      <trkpt lat="45.19135" lon="0.83579">
        <ele>98.5973029</ele>
        <time>2022-08-18T09:28:02Z</time>
      </trkpt>
      <trkpt lat="45.19137" lon="0.83564">
        <ele>98.5503978</ele>
        <time>2022-08-18T09:28:04Z</time>
      </trkpt>
      <trkpt lat="45.1914" lon="0.83548">
        <ele>98.2530768</ele>
        <time>2022-08-18T09:28:06Z</time>
      </trkpt>
      <trkpt lat="45.19143" lon="0.83533">
        <ele>97.9410422</ele>
        <time>2022-08-18T09:28:08Z</time>
      </trkpt>
      <trkpt lat="45.19146" lon="0.83517">
        <ele>97.7414383</ele>
        <time>2022-08-18T09:28:10Z</time>
      </trkpt>
      <trkpt lat="45.19148" lon="0.83501">
        <ele>97.7452126</ele>
        <time>2022-08-18T09:28:12Z</time>
      </trkpt>
      <trkpt lat="45.19152" lon="0.83484">
        <ele>97.7785803</ele>
        <time>2022-08-18T09:28:14Z</time>
      </trkpt>
      <trkpt lat="45.19155" lon="0.83467">
        <ele>97.3659905</ele>
        <time>2022-08-18T09:28:16Z</time>
      </trkpt>
      <trkpt lat="45.1916" lon="0.8344">
        <ele>97.4118156</ele>
        <time>2022-08-18T09:28:19Z</time>
      </trkpt>
      <trkpt lat="45.19162" lon="0.83423">
        <ele>97.3036729</ele>
        <time>2022-08-18T09:28:21Z</time>
      </trkpt>
      <trkpt lat="45.19165" lon="0.83406">
        <ele>96.9425481</ele>
        <time>2022-08-18T09:28:23Z</time>
      </trkpt>
      <trkpt lat="45.19168" lon="0.8339">
        <ele>97.0289601</ele>
        <time>2022-08-18T09:28:25Z</time>
      </trkpt>
      <trkpt lat="45.1917" lon="0.83381">
        <ele>97.045997</ele>
        <time>2022-08-18T09:28:26Z</time>
      </trkpt>
      <trkpt lat="45.19174" lon="0.83358">
        <ele>97.1929158</ele>
        <time>2022-08-18T09:28:29Z</time>
      </trkpt>
      <trkpt lat="45.19177" lon="0.83342">
        <ele>97.1301701</ele>
        <time>2022-08-18T09:28:31Z</time>
      </trkpt>
      <trkpt lat="45.1918" lon="0.83327">
        <ele>97.1666694</ele>
        <time>2022-08-18T09:28:33Z</time>
      </trkpt>
      <trkpt lat="45.19183" lon="0.83312">
        <ele>97.3423884</ele>
        <time>2022-08-18T09:28:35Z</time>
      </trkpt>
      <trkpt lat="45.19187" lon="0.83297">
        <ele>97.3415794</ele>
        <time>2022-08-18T09:28:37Z</time>
      </trkpt>
      <trkpt lat="45.19191" lon="0.83282">
        <ele>97.3934233</ele>
        <time>2022-08-18T09:28:39Z</time>
      </trkpt>
      <trkpt lat="45.19195" lon="0.83268">
        <ele>97.5290933</ele>
        <time>2022-08-18T09:28:41Z</time>
      </trkpt>
      <trkpt lat="45.192" lon="0.83255">
        <ele>97.5022335</ele>
        <time>2022-08-18T09:28:43Z</time>
      </trkpt>
      <trkpt lat="45.19204" lon="0.83243">
        <ele>97.642231</ele>
        <time>2022-08-18T09:28:45Z</time>
      </trkpt>
      <trkpt lat="45.1921" lon="0.83231">
        <ele>97.6425407</ele>
        <time>2022-08-18T09:28:47Z</time>
      </trkpt>
      <trkpt lat="45.19215" lon="0.8322">
        <ele>97.998175</ele>
        <time>2022-08-18T09:28:49Z</time>
      </trkpt>
      <trkpt lat="45.1922" lon="0.83209">
        <ele>98.3024916</ele>
        <time>2022-08-18T09:28:51Z</time>
      </trkpt>
      <trkpt lat="45.19225" lon="0.83198">
        <ele>98.4797941</ele>
        <time>2022-08-18T09:28:53Z</time>
      </trkpt>
      <trkpt lat="45.1923" lon="0.83187">
        <ele>98.5384996</ele>
        <time>2022-08-18T09:28:55Z</time>
      </trkpt>
      <trkpt lat="45.19236" lon="0.83176">
        <ele>98.7004194</ele>
        <time>2022-08-18T09:28:57Z</time>
      </trkpt>
      <trkpt lat="45.19241" lon="0.83165">
        <ele>98.8469656</ele>
        <time>2022-08-18T09:28:59Z</time>
      </trkpt>
      <trkpt lat="45.19245" lon="0.83154">
        <ele>98.9169724</ele>
        <time>2022-08-18T09:29:01Z</time>
      </trkpt>
      <trkpt lat="45.1925" lon="0.83143">
        <ele>98.9666378</ele>
        <time>2022-08-18T09:29:03Z</time>
      </trkpt>
      <trkpt lat="45.19254" lon="0.83132">
        <ele>98.9917313</ele>
        <time>2022-08-18T09:29:05Z</time>
      </trkpt>
      <trkpt lat="45.19258" lon="0.83122">
        <ele>99.1788536</ele>
        <time>2022-08-18T09:29:07Z</time>
      </trkpt>
      <trkpt lat="45.19262" lon="0.8311">
        <ele>99.0207281</ele>
        <time>2022-08-18T09:29:09Z</time>
      </trkpt>
      <trkpt lat="45.19266" lon="0.83099">
        <ele>98.9463865</ele>
        <time>2022-08-18T09:29:11Z</time>
      </trkpt>
      <trkpt lat="45.19268" lon="0.83087">
        <ele>99.0051515</ele>
        <time>2022-08-18T09:29:13Z</time>
      </trkpt>
      <trkpt lat="45.19271" lon="0.83076">
        <ele>98.8696913</ele>
        <time>2022-08-18T09:29:15Z</time>
      </trkpt>
      <trkpt lat="45.19272" lon="0.83065">
        <ele>98.7508702</ele>
        <time>2022-08-18T09:29:17Z</time>
      </trkpt>
      <trkpt lat="45.19274" lon="0.83053">
        <ele>98.5893033</ele>
        <time>2022-08-18T09:29:19Z</time>
      </trkpt>
      <trkpt lat="45.19276" lon="0.83041">
        <ele>98.6796131</ele>
        <time>2022-08-18T09:29:21Z</time>
      </trkpt>
      <trkpt lat="45.19277" lon="0.8303">
        <ele>98.6895916</ele>
        <time>2022-08-18T09:29:23Z</time>
      </trkpt>
      <trkpt lat="45.19278" lon="0.83019">
        <ele>98.7645965</ele>
        <time>2022-08-18T09:29:25Z</time>
      </trkpt>
      <trkpt lat="45.19277" lon="0.83013">
        <ele>98.6843198</ele>
        <time>2022-08-18T09:29:26Z</time>
      </trkpt>
      <trkpt lat="45.19278" lon="0.83003">
        <ele>98.4760453</ele>
        <time>2022-08-18T09:29:28Z</time>
      </trkpt>
      <trkpt lat="45.19284" lon="0.82996">
        <ele>98.1051354</ele>
        <time>2022-08-18T09:29:30Z</time>
      </trkpt>
      <trkpt lat="45.19288" lon="0.82995">
        <ele>97.2899879</ele>
        <time>2022-08-18T09:29:32Z</time>
      </trkpt>
      <trkpt lat="45.1929" lon="0.82993">
        <ele>97.4572414</ele>
        <time>2022-08-18T09:29:34Z</time>
      </trkpt>
      <trkpt lat="45.19291" lon="0.82992">
        <ele>97.3344916</ele>
        <time>2022-08-18T09:29:36Z</time>
      </trkpt>
      <trkpt lat="45.1929" lon="0.82992">
        <ele>97.1683423</ele>
        <time>2022-08-18T09:29:38Z</time>
      </trkpt>
      <trkpt lat="45.1929" lon="0.82992">
        <ele>96.9984039</ele>
        <time>2022-08-18T09:29:40Z</time>
      </trkpt>
      <trkpt lat="45.1929" lon="0.82992">
        <ele>96.9129607</ele>
        <time>2022-08-18T09:29:42Z</time>
      </trkpt>
      <trkpt lat="45.1929" lon="0.82992">
        <ele>97.1106144</ele>
        <time>2022-08-18T09:29:44Z</time>
      </trkpt>
      <trkpt lat="45.1929" lon="0.82992">
        <ele>97.466615</ele>
        <time>2022-08-18T09:29:46Z</time>
      </trkpt>
      <trkpt lat="45.1929" lon="0.82992">
        <ele>97.6215182</ele>
        <time>2022-08-18T09:29:48Z</time>
      </trkpt>
      <trkpt lat="45.1929" lon="0.82992">
        <ele>97.5481734</ele>
        <time>2022-08-18T09:29:50Z</time>
      </trkpt>
      <trkpt lat="45.1929" lon="0.82992">
        <ele>97.5348647</ele>
        <time>2022-08-18T09:29:52Z</time>
      </trkpt>
      <trkpt lat="45.1929" lon="0.82992">
        <ele>97.5599539</ele>
        <time>2022-08-18T09:29:54Z</time>
      </trkpt>
      <trkpt lat="45.1929" lon="0.82992">
        <ele>97.4016892</ele>
        <time>2022-08-18T09:29:56Z</time>
      </trkpt>
      <trkpt lat="45.1929" lon="0.82992">
        <ele>97.2972159</ele>
        <time>2022-08-18T09:29:58Z</time>
      </trkpt>
      <trkpt lat="45.1929" lon="0.82992">
        <ele>97.3540306</ele>
        <time>2022-08-18T09:30:02Z</time>
      </trkpt>
      <trkpt lat="45.1929" lon="0.82992">
        <ele>97.7101566</ele>
        <time>2022-08-18T09:30:04Z</time>
      </trkpt>
      <trkpt lat="45.1929" lon="0.82993">
        <ele>98.0194669</ele>
        <time>2022-08-18T09:30:08Z</time>
      </trkpt>
      <trkpt lat="45.1929" lon="0.82993">
        <ele>98.0595153</ele>
        <time>2022-08-18T09:30:10Z</time>
      </trkpt>
      <trkpt lat="45.1929" lon="0.82993">
        <ele>98.5213621</ele>
        <time>2022-08-18T09:30:14Z</time>
      </trkpt>
      <trkpt lat="45.1929" lon="0.82993">
        <ele>98.326655</ele>
        <time>2022-08-18T09:30:16Z</time>
      </trkpt>
      <trkpt lat="45.1929" lon="0.82992">
        <ele>98.4380082</ele>
        <time>2022-08-18T09:30:19Z</time>
      </trkpt>
      <trkpt lat="45.1929" lon="0.82992">
        <ele>98.6504951</ele>
        <time>2022-08-18T09:30:21Z</time>
      </trkpt>
      <trkpt lat="45.1929" lon="0.82993">
        <ele>98.628349</ele>
        <time>2022-08-18T09:30:23Z</time>
      </trkpt>
      <trkpt lat="45.1929" lon="0.82992">
        <ele>98.5047931</ele>
        <time>2022-08-18T09:30:25Z</time>
      </trkpt>
      <trkpt lat="45.1929" lon="0.82992">
        <ele>98.6264012</ele>
        <time>2022-08-18T09:30:27Z</time>
      </trkpt>
      <trkpt lat="45.1929" lon="0.82992">
        <ele>98.3310843</ele>
        <time>2022-08-18T09:30:29Z</time>
      </trkpt>
      <trkpt lat="45.1929" lon="0.82992">
        <ele>98.3174926</ele>
        <time>2022-08-18T09:30:31Z</time>
      </trkpt>
      <trkpt lat="45.1929" lon="0.82992">
        <ele>98.3174926</ele>
        <time>2022-08-18T09:30:35Z</time>
      </trkpt>
      <trkpt lat="45.1929" lon="0.82992">
        <ele>98.3174926</ele>
        <time>2022-08-18T09:30:39Z</time>
      </trkpt>
      <trkpt lat="45.1929" lon="0.82992">
        <ele>98.3174926</ele>
        <time>2022-08-18T09:30:42Z</time>
      </trkpt>
      <trkpt lat="45.1929" lon="0.82992">
        <ele>98.3174926</ele>
        <time>2022-08-18T09:30:46Z</time>
      </trkpt>
      <trkpt lat="45.1929" lon="0.82992">
        <ele>98.3174926</ele>
        <time>2022-08-18T09:30:50Z</time>
      </trkpt>
      <trkpt lat="45.1929" lon="0.82992">
        <ele>98.3174926</ele>
        <time>2022-08-18T09:30:54Z</time>
      </trkpt>
      <trkpt lat="45.19289" lon="0.82992">
        <ele>98.2591562</ele>
        <time>2022-08-18T09:30:56Z</time>
      </trkpt>
      <trkpt lat="45.19289" lon="0.82992">
        <ele>98.4306277</ele>
        <time>2022-08-18T09:30:58Z</time>
      </trkpt>
      <trkpt lat="45.1929" lon="0.82992">
        <ele>98.4082768</ele>
        <time>2022-08-18T09:31:00Z</time>
      </trkpt>
      <trkpt lat="45.19289" lon="0.82992">
        <ele>98.7069336</ele>
        <time>2022-08-18T09:31:02Z</time>
      </trkpt>
      <trkpt lat="45.1929" lon="0.82992">
        <ele>98.9564711</ele>
        <time>2022-08-18T09:31:04Z</time>
      </trkpt>
      <trkpt lat="45.1929" lon="0.82992">
        <ele>99.0246936</ele>
        <time>2022-08-18T09:31:06Z</time>
      </trkpt>
      <trkpt lat="45.1929" lon="0.82992">
        <ele>98.9809021</ele>
        <time>2022-08-18T09:31:08Z</time>
      </trkpt>
      <trkpt lat="45.19289" lon="0.82992">
        <ele>99.3249864</ele>
        <time>2022-08-18T09:31:10Z</time>
      </trkpt>
      <trkpt lat="45.19289" lon="0.82992">
        <ele>99.5108616</ele>
        <time>2022-08-18T09:31:12Z</time>
      </trkpt>
      <trkpt lat="45.19289" lon="0.82992">
        <ele>99.5134732</ele>
        <time>2022-08-18T09:31:14Z</time>
      </trkpt>
      <trkpt lat="45.19289" lon="0.82992">
        <ele>100.0323426</ele>
        <time>2022-08-18T09:31:18Z</time>
      </trkpt>
      <trkpt lat="45.19289" lon="0.82992">
        <ele>99.7528098</ele>
        <time>2022-08-18T09:31:20Z</time>
      </trkpt>
      <trkpt lat="45.1929" lon="0.82992">
        <ele>99.7800248</ele>
        <time>2022-08-18T09:31:22Z</time>
      </trkpt>
      <trkpt lat="45.19291" lon="0.8299">
        <ele>99.7160398</ele>
        <time>2022-08-18T09:31:24Z</time>
      </trkpt>
      <trkpt lat="45.19293" lon="0.82987">
        <ele>99.0353906</ele>
        <time>2022-08-18T09:31:26Z</time>
      </trkpt>
      <trkpt lat="45.19295" lon="0.82983">
        <ele>98.7709661</ele>
        <time>2022-08-18T09:31:28Z</time>
      </trkpt>
      <trkpt lat="45.19296" lon="0.82983">
        <ele>98.3983334</ele>
        <time>2022-08-18T09:31:30Z</time>
      </trkpt>
      <trkpt lat="45.19296" lon="0.82983">
        <ele>98.1769237</ele>
        <time>2022-08-18T09:31:32Z</time>
      </trkpt>
      <trkpt lat="45.19296" lon="0.82983">
        <ele>97.6999522</ele>
        <time>2022-08-18T09:31:34Z</time>
      </trkpt>
      <trkpt lat="45.19296" lon="0.82983">
        <ele>97.3940142</ele>
        <time>2022-08-18T09:31:36Z</time>
      </trkpt>
      <trkpt lat="45.19296" lon="0.82983">
        <ele>97.3106856</ele>
        <time>2022-08-18T09:31:38Z</time>
      </trkpt>
      <trkpt lat="45.19296" lon="0.82983">
        <ele>96.8914173</ele>
        <time>2022-08-18T09:31:40Z</time>
      </trkpt>
      <trkpt lat="45.19296" lon="0.82983">
        <ele>96.8596653</ele>
        <time>2022-08-18T09:31:42Z</time>
      </trkpt>
      <trkpt lat="45.19299" lon="0.82978">
        <ele>96.2702213</ele>
        <time>2022-08-18T09:31:44Z</time>
      </trkpt>
      <trkpt lat="45.19303" lon="0.82971">
        <ele>96.2473986</ele>
        <time>2022-08-18T09:31:46Z</time>
      </trkpt>
      <trkpt lat="45.19309" lon="0.82963">
        <ele>95.969564</ele>
        <time>2022-08-18T09:31:48Z</time>
      </trkpt>
      <trkpt lat="45.19315" lon="0.82954">
        <ele>95.9100889</ele>
        <time>2022-08-18T09:31:50Z</time>
      </trkpt>
      <trkpt lat="45.19321" lon="0.82944">
        <ele>95.988199</ele>
        <time>2022-08-18T09:31:52Z</time>
      </trkpt>
      <trkpt lat="45.19327" lon="0.82935">
        <ele>96.0373136</ele>
        <time>2022-08-18T09:31:54Z</time>
      </trkpt>
      <trkpt lat="45.19331" lon="0.82928">
        <ele>95.9492888</ele>
        <time>2022-08-18T09:31:56Z</time>
      </trkpt>
      <trkpt lat="45.19332" lon="0.82927">
        <ele>95.9540238</ele>
        <time>2022-08-18T09:31:58Z</time>
      </trkpt>
      <trkpt lat="45.19333" lon="0.82927">
        <ele>96.2788493</ele>
        <time>2022-08-18T09:32:00Z</time>
      </trkpt>
      <trkpt lat="45.19333" lon="0.82927">
        <ele>96.0722347</ele>
        <time>2022-08-18T09:32:02Z</time>
      </trkpt>
      <trkpt lat="45.19333" lon="0.82926">
        <ele>95.8005552</ele>
        <time>2022-08-18T09:32:04Z</time>
      </trkpt>
      <trkpt lat="45.19333" lon="0.82926">
        <ele>95.6231882</ele>
        <time>2022-08-18T09:32:06Z</time>
      </trkpt>
      <trkpt lat="45.19333" lon="0.82927">
        <ele>95.5378717</ele>
        <time>2022-08-18T09:32:08Z</time>
      </trkpt>
      <trkpt lat="45.19333" lon="0.82927">
        <ele>95.9602343</ele>
        <time>2022-08-18T09:32:10Z</time>
      </trkpt>
      <trkpt lat="45.19333" lon="0.82926">
        <ele>96.0483912</ele>
        <time>2022-08-18T09:32:12Z</time>
      </trkpt>
      <trkpt lat="45.19333" lon="0.82927">
        <ele>95.9704256</ele>
        <time>2022-08-18T09:32:14Z</time>
      </trkpt>
      <trkpt lat="45.19333" lon="0.82927">
        <ele>95.9205066</ele>
        <time>2022-08-18T09:32:16Z</time>
      </trkpt>
      <trkpt lat="45.19333" lon="0.82927">
        <ele>95.8236354</ele>
        <time>2022-08-18T09:32:18Z</time>
      </trkpt>
      <trkpt lat="45.19333" lon="0.82927">
        <ele>95.7112758</ele>
        <time>2022-08-18T09:32:20Z</time>
      </trkpt>
      <trkpt lat="45.19333" lon="0.82927">
        <ele>95.8965015</ele>
        <time>2022-08-18T09:32:22Z</time>
      </trkpt>
      <trkpt lat="45.19333" lon="0.82926">
        <ele>95.9222362</ele>
        <time>2022-08-18T09:32:24Z</time>
      </trkpt>
      <trkpt lat="45.19333" lon="0.82926">
        <ele>96.0316975</ele>
        <time>2022-08-18T09:32:26Z</time>
      </trkpt>
      <trkpt lat="45.19333" lon="0.82926">
        <ele>96.2305475</ele>
        <time>2022-08-18T09:32:28Z</time>
      </trkpt>
      <trkpt lat="45.19333" lon="0.82926">
        <ele>96.0860564</ele>
        <time>2022-08-18T09:32:30Z</time>
      </trkpt>
      <trkpt lat="45.19333" lon="0.82926">
        <ele>96.5806767</ele>
        <time>2022-08-18T09:32:32Z</time>
      </trkpt>
      <trkpt lat="45.19333" lon="0.82926">
        <ele>96.5177517</ele>
        <time>2022-08-18T09:32:34Z</time>
      </trkpt>
      <trkpt lat="45.19333" lon="0.82926">
        <ele>96.409503</ele>
        <time>2022-08-18T09:32:36Z</time>
      </trkpt>
      <trkpt lat="45.19334" lon="0.82926">
        <ele>96.4587207</ele>
        <time>2022-08-18T09:32:38Z</time>
      </trkpt>
      <trkpt lat="45.19334" lon="0.82926">
        <ele>96.4407662</ele>
        <time>2022-08-18T09:32:40Z</time>
      </trkpt>
      <trkpt lat="45.19334" lon="0.82926">
        <ele>96.6003699</ele>
        <time>2022-08-18T09:32:42Z</time>
      </trkpt>
      <trkpt lat="45.19334" lon="0.82926">
        <ele>96.9507774</ele>
        <time>2022-08-18T09:32:44Z</time>
      </trkpt>
      <trkpt lat="45.19334" lon="0.82926">
        <ele>97.2571608</ele>
        <time>2022-08-18T09:32:46Z</time>
      </trkpt>
      <trkpt lat="45.19334" lon="0.82925">
        <ele>97.5141788</ele>
        <time>2022-08-18T09:32:48Z</time>
      </trkpt>
      <trkpt lat="45.19334" lon="0.82925">
        <ele>97.298925</ele>
        <time>2022-08-18T09:32:50Z</time>
      </trkpt>
      <trkpt lat="45.19333" lon="0.82925">
        <ele>96.728468</ele>
        <time>2022-08-18T09:32:52Z</time>
      </trkpt>
      <trkpt lat="45.19333" lon="0.82925">
        <ele>96.2082434</ele>
        <time>2022-08-18T09:32:54Z</time>
      </trkpt>
      <trkpt lat="45.19333" lon="0.82925">
        <ele>96.1342179</ele>
        <time>2022-08-18T09:32:56Z</time>
      </trkpt>
      <trkpt lat="45.19333" lon="0.82925">
        <ele>95.8818957</ele>
        <time>2022-08-18T09:32:58Z</time>
      </trkpt>
      <trkpt lat="45.19334" lon="0.82923">
        <ele>95.8073163</ele>
        <time>2022-08-18T09:33:00Z</time>
      </trkpt>
      <trkpt lat="45.19337" lon="0.82918">
        <ele>95.6875332</ele>
        <time>2022-08-18T09:33:02Z</time>
      </trkpt>
      <trkpt lat="45.1934" lon="0.82914">
        <ele>95.7669964</ele>
        <time>2022-08-18T09:33:04Z</time>
      </trkpt>
      <trkpt lat="45.19343" lon="0.82908">
        <ele>95.9357451</ele>
        <time>2022-08-18T09:33:06Z</time>
      </trkpt>
      <trkpt lat="45.19347" lon="0.82902">
        <ele>96.0397924</ele>
        <time>2022-08-18T09:33:08Z</time>
      </trkpt>
      <trkpt lat="45.19351" lon="0.82894">
        <ele>95.9169534</ele>
        <time>2022-08-18T09:33:10Z</time>
      </trkpt>
      <trkpt lat="45.19356" lon="0.82887">
        <ele>96.0588992</ele>
        <time>2022-08-18T09:33:12Z</time>
      </trkpt>
      <trkpt lat="45.1936" lon="0.82879">
        <ele>95.9996289</ele>
        <time>2022-08-18T09:33:14Z</time>
      </trkpt>
      <trkpt lat="45.19364" lon="0.82873">
        <ele>95.9634887</ele>
        <time>2022-08-18T09:33:16Z</time>
      </trkpt>
      <trkpt lat="45.19367" lon="0.82869">
        <ele>96.1133349</ele>
        <time>2022-08-18T09:33:18Z</time>
      </trkpt>
      <trkpt lat="45.19367" lon="0.82869">
        <ele>96.142427</ele>
        <time>2022-08-18T09:33:20Z</time>
      </trkpt>
      <trkpt lat="45.19367" lon="0.82869">
        <ele>96.7006609</ele>
        <time>2022-08-18T09:33:22Z</time>
      </trkpt>
      <trkpt lat="45.19367" lon="0.82869">
        <ele>96.6752431</ele>
        <time>2022-08-18T09:33:24Z</time>
      </trkpt>
      <trkpt lat="45.19367" lon="0.82869">
        <ele>96.375501</ele>
        <time>2022-08-18T09:33:26Z</time>
      </trkpt>
      <trkpt lat="45.19368" lon="0.82867">
        <ele>96.4096105</ele>
        <time>2022-08-18T09:33:28Z</time>
      </trkpt>
      <trkpt lat="45.19371" lon="0.82861">
        <ele>96.6100977</ele>
        <time>2022-08-18T09:33:30Z</time>
      </trkpt>
      <trkpt lat="45.19376" lon="0.82854">
        <ele>96.3901935</ele>
        <time>2022-08-18T09:33:32Z</time>
      </trkpt>
      <trkpt lat="45.19377" lon="0.82851">
        <ele>96.2058515</ele>
        <time>2022-08-18T09:33:34Z</time>
      </trkpt>
      <trkpt lat="45.19377" lon="0.82851">
        <ele>96.3183603</ele>
        <time>2022-08-18T09:33:36Z</time>
      </trkpt>
      <trkpt lat="45.19377" lon="0.82851">
        <ele>96.5754273</ele>
        <time>2022-08-18T09:33:38Z</time>
      </trkpt>
      <trkpt lat="45.19376" lon="0.82851">
        <ele>96.3482534</ele>
        <time>2022-08-18T09:33:40Z</time>
      </trkpt>
      <trkpt lat="45.19377" lon="0.82851">
        <ele>96.1274628</ele>
        <time>2022-08-18T09:33:44Z</time>
      </trkpt>
      <trkpt lat="45.19377" lon="0.82851">
        <ele>96.1316404</ele>
        <time>2022-08-18T09:33:46Z</time>
      </trkpt>
      <trkpt lat="45.19378" lon="0.82849">
        <ele>96.148041</ele>
        <time>2022-08-18T09:33:48Z</time>
      </trkpt>
      <trkpt lat="45.19381" lon="0.82845">
        <ele>96.2183469</ele>
        <time>2022-08-18T09:33:50Z</time>
      </trkpt>
      <trkpt lat="45.19384" lon="0.82838">
        <ele>96.2130779</ele>
        <time>2022-08-18T09:33:52Z</time>
      </trkpt>
      <trkpt lat="45.19388" lon="0.82831">
        <ele>96.458808</ele>
        <time>2022-08-18T09:33:54Z</time>
      </trkpt>
      <trkpt lat="45.19393" lon="0.82823">
        <ele>96.8058346</ele>
        <time>2022-08-18T09:33:56Z</time>
      </trkpt>
      <trkpt lat="45.19397" lon="0.82815">
        <ele>97.0978555</ele>
        <time>2022-08-18T09:33:58Z</time>
      </trkpt>
      <trkpt lat="45.19401" lon="0.82807">
        <ele>97.1291915</ele>
        <time>2022-08-18T09:34:00Z</time>
      </trkpt>
      <trkpt lat="45.19406" lon="0.82799">
        <ele>97.2261289</ele>
        <time>2022-08-18T09:34:02Z</time>
      </trkpt>
      <trkpt lat="45.1941" lon="0.8279">
        <ele>97.1992889</ele>
        <time>2022-08-18T09:34:04Z</time>
      </trkpt>
      <trkpt lat="45.19415" lon="0.82781">
        <ele>97.2332598</ele>
        <time>2022-08-18T09:34:06Z</time>
      </trkpt>
      <trkpt lat="45.1942" lon="0.82772">
        <ele>97.1524971</ele>
        <time>2022-08-18T09:34:08Z</time>
      </trkpt>
      <trkpt lat="45.19425" lon="0.82762">
        <ele>97.3184987</ele>
        <time>2022-08-18T09:34:10Z</time>
      </trkpt>
      <trkpt lat="45.1943" lon="0.82753">
        <ele>97.2923073</ele>
        <time>2022-08-18T09:34:12Z</time>
      </trkpt>
      <trkpt lat="45.19435" lon="0.82742">
        <ele>97.0785786</ele>
        <time>2022-08-18T09:34:14Z</time>
      </trkpt>
      <trkpt lat="45.1944" lon="0.82732">
        <ele>97.040217</ele>
        <time>2022-08-18T09:34:16Z</time>
      </trkpt>
      <trkpt lat="45.19445" lon="0.82722">
        <ele>96.9159589</ele>
        <time>2022-08-18T09:34:18Z</time>
      </trkpt>
      <trkpt lat="45.1945" lon="0.8271">
        <ele>96.4129642</ele>
        <time>2022-08-18T09:34:20Z</time>
      </trkpt>
      <trkpt lat="45.19456" lon="0.82699">
        <ele>96.3154445</ele>
        <time>2022-08-18T09:34:22Z</time>
      </trkpt>
      <trkpt lat="45.19462" lon="0.82688">
        <ele>96.2240875</ele>
        <time>2022-08-18T09:34:24Z</time>
      </trkpt>
      <trkpt lat="45.19467" lon="0.82677">
        <ele>96.1055752</ele>
        <time>2022-08-18T09:34:26Z</time>
      </trkpt>
      <trkpt lat="45.19472" lon="0.82666">
        <ele>96.2838804</ele>
        <time>2022-08-18T09:34:28Z</time>
      </trkpt>
      <trkpt lat="45.19478" lon="0.82655">
        <ele>96.1579859</ele>
        <time>2022-08-18T09:34:30Z</time>
      </trkpt>
      <trkpt lat="45.19482" lon="0.82643">
        <ele>95.9526991</ele>
        <time>2022-08-18T09:34:32Z</time>
      </trkpt>
      <trkpt lat="45.19486" lon="0.82631">
        <ele>95.6395262</ele>
        <time>2022-08-18T09:34:34Z</time>
      </trkpt>
      <trkpt lat="45.1949" lon="0.82619">
        <ele>95.5552155</ele>
        <time>2022-08-18T09:34:36Z</time>
      </trkpt>
      <trkpt lat="45.19493" lon="0.82607">
        <ele>95.8325165</ele>
        <time>2022-08-18T09:34:38Z</time>
      </trkpt>
      <trkpt lat="45.19497" lon="0.82594">
        <ele>95.6934431</ele>
        <time>2022-08-18T09:34:40Z</time>
      </trkpt>
      <trkpt lat="45.195" lon="0.8258">
        <ele>95.688691</ele>
        <time>2022-08-18T09:34:42Z</time>
      </trkpt>
      <trkpt lat="45.19502" lon="0.82567">
        <ele>95.3937848</ele>
        <time>2022-08-18T09:34:44Z</time>
      </trkpt>
      <trkpt lat="45.19506" lon="0.82554">
        <ele>95.3559033</ele>
        <time>2022-08-18T09:34:46Z</time>
      </trkpt>
      <trkpt lat="45.19509" lon="0.82541">
        <ele>95.3618089</ele>
        <time>2022-08-18T09:34:48Z</time>
      </trkpt>
      <trkpt lat="45.19512" lon="0.82527">
        <ele>95.2079161</ele>
        <time>2022-08-18T09:34:50Z</time>
      </trkpt>
      <trkpt lat="45.19515" lon="0.82513">
        <ele>95.3761883</ele>
        <time>2022-08-18T09:34:52Z</time>
      </trkpt>
      <trkpt lat="45.19519" lon="0.825">
        <ele>95.2339096</ele>
        <time>2022-08-18T09:34:54Z</time>
      </trkpt>
      <trkpt lat="45.19522" lon="0.82486">
        <ele>95.337684</ele>
        <time>2022-08-18T09:34:56Z</time>
      </trkpt>
      <trkpt lat="45.19525" lon="0.82474">
        <ele>95.0349042</ele>
        <time>2022-08-18T09:34:58Z</time>
      </trkpt>
      <trkpt lat="45.19528" lon="0.82461">
        <ele>95.1524869</ele>
        <time>2022-08-18T09:35:00Z</time>
      </trkpt>
      <trkpt lat="45.19532" lon="0.82449">
        <ele>95.3016247</ele>
        <time>2022-08-18T09:35:02Z</time>
      </trkpt>
      <trkpt lat="45.19535" lon="0.82437">
        <ele>95.1868047</ele>
        <time>2022-08-18T09:35:04Z</time>
      </trkpt>
      <trkpt lat="45.19539" lon="0.82425">
        <ele>95.3223487</ele>
        <time>2022-08-18T09:35:06Z</time>
      </trkpt>
      <trkpt lat="45.19542" lon="0.82413">
        <ele>95.4113409</ele>
        <time>2022-08-18T09:35:08Z</time>
      </trkpt>
      <trkpt lat="45.19545" lon="0.824">
        <ele>95.6149259</ele>
        <time>2022-08-18T09:35:10Z</time>
      </trkpt>
      <trkpt lat="45.19549" lon="0.82387">
        <ele>96.1622538</ele>
        <time>2022-08-18T09:35:12Z</time>
      </trkpt>
      <trkpt lat="45.19553" lon="0.82375">
        <ele>95.9467455</ele>
        <time>2022-08-18T09:35:14Z</time>
      </trkpt>
      <trkpt lat="45.19556" lon="0.82363">
        <ele>95.7872799</ele>
        <time>2022-08-18T09:35:16Z</time>
      </trkpt>
      <trkpt lat="45.1956" lon="0.82352">
        <ele>95.3463639</ele>
        <time>2022-08-18T09:35:18Z</time>
      </trkpt>
      <trkpt lat="45.19563" lon="0.8234">
        <ele>95.5878325</ele>
        <time>2022-08-18T09:35:20Z</time>
      </trkpt>
      <trkpt lat="45.19567" lon="0.82327">
        <ele>95.4718065</ele>
        <time>2022-08-18T09:35:22Z</time>
      </trkpt>
      <trkpt lat="45.19572" lon="0.82315">
        <ele>94.9990024</ele>
        <time>2022-08-18T09:35:24Z</time>
      </trkpt>
      <trkpt lat="45.19579" lon="0.82305">
        <ele>94.9395447</ele>
        <time>2022-08-18T09:35:26Z</time>
      </trkpt>
      <trkpt lat="45.19589" lon="0.82297">
        <ele>95.0809154</ele>
        <time>2022-08-18T09:35:28Z</time>
      </trkpt>
      <trkpt lat="45.19597" lon="0.8229">
        <ele>94.8624027</ele>
        <time>2022-08-18T09:35:30Z</time>
      </trkpt>
      <trkpt lat="45.19607" lon="0.82283">
        <ele>94.7949325</ele>
        <time>2022-08-18T09:35:32Z</time>
      </trkpt>
      <trkpt lat="45.19615" lon="0.82276">
        <ele>95.4311913</ele>
        <time>2022-08-18T09:35:34Z</time>
      </trkpt>
      <trkpt lat="45.19624" lon="0.82269">
        <ele>95.4322074</ele>
        <time>2022-08-18T09:35:36Z</time>
      </trkpt>
      <trkpt lat="45.1963" lon="0.82262">
        <ele>95.6040274</ele>
        <time>2022-08-18T09:35:38Z</time>
      </trkpt>
      <trkpt lat="45.19637" lon="0.82253">
        <ele>96.1001852</ele>
        <time>2022-08-18T09:35:40Z</time>
      </trkpt>
      <trkpt lat="45.19642" lon="0.82245">
        <ele>96.6227497</ele>
        <time>2022-08-18T09:35:42Z</time>
      </trkpt>
      <trkpt lat="45.19646" lon="0.82236">
        <ele>97.0650216</ele>
        <time>2022-08-18T09:35:44Z</time>
      </trkpt>
      <trkpt lat="45.19649" lon="0.82227">
        <ele>97.7826322</ele>
        <time>2022-08-18T09:35:46Z</time>
      </trkpt>
      <trkpt lat="45.19652" lon="0.82218">
        <ele>98.0627069</ele>
        <time>2022-08-18T09:35:48Z</time>
      </trkpt>
      <trkpt lat="45.19655" lon="0.82209">
        <ele>98.4976787</ele>
        <time>2022-08-18T09:35:50Z</time>
      </trkpt>
      <trkpt lat="45.19657" lon="0.82201">
        <ele>98.6751104</ele>
        <time>2022-08-18T09:35:52Z</time>
      </trkpt>
      <trkpt lat="45.19659" lon="0.82194">
        <ele>99.1364901</ele>
        <time>2022-08-18T09:35:54Z</time>
      </trkpt>
      <trkpt lat="45.19661" lon="0.82187">
        <ele>99.5071418</ele>
        <time>2022-08-18T09:35:56Z</time>
      </trkpt>
      <trkpt lat="45.19663" lon="0.8218">
        <ele>99.6691285</ele>
        <time>2022-08-18T09:35:58Z</time>
      </trkpt>
      <trkpt lat="45.19665" lon="0.82173">
        <ele>100.1649764</ele>
        <time>2022-08-18T09:36:00Z</time>
      </trkpt>
      <trkpt lat="45.19667" lon="0.82166">
        <ele>100.4748979</ele>
        <time>2022-08-18T09:36:02Z</time>
      </trkpt>
      <trkpt lat="45.1967" lon="0.8216">
        <ele>100.7601271</ele>
        <time>2022-08-18T09:36:04Z</time>
      </trkpt>
      <trkpt lat="45.19672" lon="0.82153">
        <ele>100.6367323</ele>
        <time>2022-08-18T09:36:06Z</time>
      </trkpt>
      <trkpt lat="45.19674" lon="0.82146">
        <ele>101.007184</ele>
        <time>2022-08-18T09:36:08Z</time>
      </trkpt>
      <trkpt lat="45.19676" lon="0.82139">
        <ele>101.0056858</ele>
        <time>2022-08-18T09:36:10Z</time>
      </trkpt>
      <trkpt lat="45.19679" lon="0.82133">
        <ele>100.8079686</ele>
        <time>2022-08-18T09:36:12Z</time>
      </trkpt>
      <trkpt lat="45.19681" lon="0.82127">
        <ele>100.800526</ele>
        <time>2022-08-18T09:36:14Z</time>
      </trkpt>
      <trkpt lat="45.19683" lon="0.8212">
        <ele>100.7547281</ele>
        <time>2022-08-18T09:36:16Z</time>
      </trkpt>
      <trkpt lat="45.19686" lon="0.82112">
        <ele>100.6121368</ele>
        <time>2022-08-18T09:36:18Z</time>
      </trkpt>
      <trkpt lat="45.19688" lon="0.82104">
        <ele>100.8204128</ele>
        <time>2022-08-18T09:36:20Z</time>
      </trkpt>
      <trkpt lat="45.19691" lon="0.82096">
        <ele>100.7902699</ele>
        <time>2022-08-18T09:36:22Z</time>
      </trkpt>
      <trkpt lat="45.19694" lon="0.82087">
        <ele>100.6581715</ele>
        <time>2022-08-18T09:36:24Z</time>
      </trkpt>
      <trkpt lat="45.19696" lon="0.82079">
        <ele>100.6357986</ele>
        <time>2022-08-18T09:36:26Z</time>
      </trkpt>
      <trkpt lat="45.19699" lon="0.8207">
        <ele>100.3566963</ele>
        <time>2022-08-18T09:36:28Z</time>
      </trkpt>
      <trkpt lat="45.19701" lon="0.82061">
        <ele>100.6280877</ele>
        <time>2022-08-18T09:36:30Z</time>
      </trkpt>
      <trkpt lat="45.19704" lon="0.82053">
        <ele>100.4799196</ele>
        <time>2022-08-18T09:36:32Z</time>
      </trkpt>
      <trkpt lat="45.19707" lon="0.82044">
        <ele>100.6708504</ele>
        <time>2022-08-18T09:36:34Z</time>
      </trkpt>
      <trkpt lat="45.19709" lon="0.82037">
        <ele>100.5604131</ele>
        <time>2022-08-18T09:36:36Z</time>
      </trkpt>
      <trkpt lat="45.19712" lon="0.8203">
        <ele>100.4514675</ele>
        <time>2022-08-18T09:36:38Z</time>
      </trkpt>
      <trkpt lat="45.19714" lon="0.82023">
        <ele>100.4535329</ele>
        <time>2022-08-18T09:36:40Z</time>
      </trkpt>
      <trkpt lat="45.19717" lon="0.82015">
        <ele>100.4594749</ele>
        <time>2022-08-18T09:36:42Z</time>
      </trkpt>
      <trkpt lat="45.19719" lon="0.82005">
        <ele>100.2848008</ele>
        <time>2022-08-18T09:36:44Z</time>
      </trkpt>
      <trkpt lat="45.19723" lon="0.81996">
        <ele>100.4363022</ele>
        <time>2022-08-18T09:36:46Z</time>
      </trkpt>
      <trkpt lat="45.19725" lon="0.81987">
        <ele>100.1719993</ele>
        <time>2022-08-18T09:36:48Z</time>
      </trkpt>
      <trkpt lat="45.19728" lon="0.81978">
        <ele>100.159363</ele>
        <time>2022-08-18T09:36:50Z</time>
      </trkpt>
      <trkpt lat="45.19731" lon="0.81971">
        <ele>100.1317891</ele>
        <time>2022-08-18T09:36:52Z</time>
      </trkpt>
      <trkpt lat="45.19733" lon="0.81962">
        <ele>99.7425025</ele>
        <time>2022-08-18T09:36:54Z</time>
      </trkpt>
      <trkpt lat="45.19735" lon="0.81953">
        <ele>99.466859</ele>
        <time>2022-08-18T09:36:56Z</time>
      </trkpt>
      <trkpt lat="45.19738" lon="0.81945">
        <ele>99.1436247</ele>
        <time>2022-08-18T09:36:58Z</time>
      </trkpt>
      <trkpt lat="45.19741" lon="0.81936">
        <ele>99.044575</ele>
        <time>2022-08-18T09:37:00Z</time>
      </trkpt>
      <trkpt lat="45.19745" lon="0.81928">
        <ele>99.1496065</ele>
        <time>2022-08-18T09:37:02Z</time>
      </trkpt>
      <trkpt lat="45.19752" lon="0.81925">
        <ele>99.1872424</ele>
        <time>2022-08-18T09:37:04Z</time>
      </trkpt>
      <trkpt lat="45.19758" lon="0.8193">
        <ele>98.9355577</ele>
        <time>2022-08-18T09:37:06Z</time>
      </trkpt>
      <trkpt lat="45.19763" lon="0.81937">
        <ele>98.9453283</ele>
        <time>2022-08-18T09:37:08Z</time>
      </trkpt>
      <trkpt lat="45.19769" lon="0.81941">
        <ele>98.6344588</ele>
        <time>2022-08-18T09:37:10Z</time>
      </trkpt>
      <trkpt lat="45.19774" lon="0.81946">
        <ele>98.6416835</ele>
        <time>2022-08-18T09:37:12Z</time>
      </trkpt>
      <trkpt lat="45.1978" lon="0.8195">
        <ele>98.5349745</ele>
        <time>2022-08-18T09:37:14Z</time>
      </trkpt>
      <trkpt lat="45.19785" lon="0.81955">
        <ele>98.3100196</ele>
        <time>2022-08-18T09:37:16Z</time>
      </trkpt>
      <trkpt lat="45.19791" lon="0.81959">
        <ele>98.052976</ele>
        <time>2022-08-18T09:37:18Z</time>
      </trkpt>
      <trkpt lat="45.19798" lon="0.81955">
        <ele>97.8804143</ele>
        <time>2022-08-18T09:37:20Z</time>
      </trkpt>
      <trkpt lat="45.19803" lon="0.81948">
        <ele>97.4006124</ele>
        <time>2022-08-18T09:37:22Z</time>
      </trkpt>
      <trkpt lat="45.19809" lon="0.8194">
        <ele>97.2060328</ele>
        <time>2022-08-18T09:37:24Z</time>
      </trkpt>
      <trkpt lat="45.19816" lon="0.81934">
        <ele>96.722132</ele>
        <time>2022-08-18T09:37:26Z</time>
      </trkpt>
      <trkpt lat="45.19824" lon="0.81927">
        <ele>96.5781341</ele>
        <time>2022-08-18T09:37:28Z</time>
      </trkpt>
      <trkpt lat="45.19831" lon="0.81919">
        <ele>96.7312587</ele>
        <time>2022-08-18T09:37:30Z</time>
      </trkpt>
      <trkpt lat="45.19839" lon="0.81911">
        <ele>96.5600469</ele>
        <time>2022-08-18T09:37:32Z</time>
      </trkpt>
      <trkpt lat="45.19846" lon="0.81902">
        <ele>96.2759169</ele>
        <time>2022-08-18T09:37:34Z</time>
      </trkpt>
      <trkpt lat="45.19854" lon="0.81895">
        <ele>96.5573139</ele>
        <time>2022-08-18T09:37:36Z</time>
      </trkpt>
      <trkpt lat="45.19862" lon="0.81887">
        <ele>96.4020675</ele>
        <time>2022-08-18T09:37:38Z</time>
      </trkpt>
      <trkpt lat="45.1987" lon="0.81877">
        <ele>96.4071561</ele>
        <time>2022-08-18T09:37:40Z</time>
      </trkpt>
      <trkpt lat="45.19878" lon="0.81869">
        <ele>96.4113861</ele>
        <time>2022-08-18T09:37:42Z</time>
      </trkpt>
      <trkpt lat="45.19885" lon="0.8186">
        <ele>96.2521749</ele>
        <time>2022-08-18T09:37:44Z</time>
      </trkpt>
      <trkpt lat="45.19893" lon="0.81852">
        <ele>96.0826622</ele>
        <time>2022-08-18T09:37:46Z</time>
      </trkpt>
      <trkpt lat="45.199" lon="0.81844">
        <ele>95.8684868</ele>
        <time>2022-08-18T09:37:48Z</time>
      </trkpt>
      <trkpt lat="45.19907" lon="0.81835">
        <ele>95.5407145</ele>
        <time>2022-08-18T09:37:50Z</time>
      </trkpt>
      <trkpt lat="45.19915" lon="0.81827">
        <ele>96.0022941</ele>
        <time>2022-08-18T09:37:52Z</time>
      </trkpt>
      <trkpt lat="45.19923" lon="0.81819">
        <ele>96.035188</ele>
        <time>2022-08-18T09:37:54Z</time>
      </trkpt>
      <trkpt lat="45.1993" lon="0.81811">
        <ele>95.8980637</ele>
        <time>2022-08-18T09:37:56Z</time>
      </trkpt>
      <trkpt lat="45.19938" lon="0.81802">
        <ele>96.1146219</ele>
        <time>2022-08-18T09:37:58Z</time>
      </trkpt>
      <trkpt lat="45.19945" lon="0.81794">
        <ele>95.981469</ele>
        <time>2022-08-18T09:38:00Z</time>
      </trkpt>
      <trkpt lat="45.19952" lon="0.81786">
        <ele>95.8748443</ele>
        <time>2022-08-18T09:38:02Z</time>
      </trkpt>
      <trkpt lat="45.1996" lon="0.81778">
        <ele>95.881471</ele>
        <time>2022-08-18T09:38:04Z</time>
      </trkpt>
      <trkpt lat="45.19967" lon="0.81769">
        <ele>96.0576205</ele>
        <time>2022-08-18T09:38:06Z</time>
      </trkpt>
      <trkpt lat="45.19975" lon="0.81761">
        <ele>96.008405</ele>
        <time>2022-08-18T09:38:08Z</time>
      </trkpt>
      <trkpt lat="45.19982" lon="0.81753">
        <ele>95.9058938</ele>
        <time>2022-08-18T09:38:10Z</time>
      </trkpt>
      <trkpt lat="45.19989" lon="0.81744">
        <ele>95.7285152</ele>
        <time>2022-08-18T09:38:12Z</time>
      </trkpt>
      <trkpt lat="45.19997" lon="0.81736">
        <ele>95.6979832</ele>
        <time>2022-08-18T09:38:14Z</time>
      </trkpt>
      <trkpt lat="45.20004" lon="0.81727">
        <ele>95.659356</ele>
        <time>2022-08-18T09:38:16Z</time>
      </trkpt>
      <trkpt lat="45.20012" lon="0.81719">
        <ele>95.5612589</ele>
        <time>2022-08-18T09:38:18Z</time>
      </trkpt>
      <trkpt lat="45.20019" lon="0.81711">
        <ele>95.628855</ele>
        <time>2022-08-18T09:38:20Z</time>
      </trkpt>
      <trkpt lat="45.20026" lon="0.81703">
        <ele>95.6424931</ele>
        <time>2022-08-18T09:38:22Z</time>
      </trkpt>
      <trkpt lat="45.20032" lon="0.81696">
        <ele>95.5931575</ele>
        <time>2022-08-18T09:38:24Z</time>
      </trkpt>
      <trkpt lat="45.20039" lon="0.81688">
        <ele>95.5632185</ele>
        <time>2022-08-18T09:38:26Z</time>
      </trkpt>
      <trkpt lat="45.20046" lon="0.81681">
        <ele>95.5413097</ele>
        <time>2022-08-18T09:38:28Z</time>
      </trkpt>
      <trkpt lat="45.20053" lon="0.81673">
        <ele>95.4895104</ele>
        <time>2022-08-18T09:38:30Z</time>
      </trkpt>
      <trkpt lat="45.20059" lon="0.81666">
        <ele>95.5264304</ele>
        <time>2022-08-18T09:38:32Z</time>
      </trkpt>
      <trkpt lat="45.20066" lon="0.81658">
        <ele>95.2191452</ele>
        <time>2022-08-18T09:38:34Z</time>
      </trkpt>
      <trkpt lat="45.20073" lon="0.81651">
        <ele>94.9906118</ele>
        <time>2022-08-18T09:38:36Z</time>
      </trkpt>
      <trkpt lat="45.20079" lon="0.81643">
        <ele>94.7271251</ele>
        <time>2022-08-18T09:38:38Z</time>
      </trkpt>
      <trkpt lat="45.20086" lon="0.81636">
        <ele>94.7153972</ele>
        <time>2022-08-18T09:38:40Z</time>
      </trkpt>
      <trkpt lat="45.20097" lon="0.81623">
        <ele>94.5167004</ele>
        <time>2022-08-18T09:38:43Z</time>
      </trkpt>
      <trkpt lat="45.20104" lon="0.81615">
        <ele>94.5311664</ele>
        <time>2022-08-18T09:38:45Z</time>
      </trkpt>
      <trkpt lat="45.20111" lon="0.81607">
        <ele>94.5441963</ele>
        <time>2022-08-18T09:38:47Z</time>
      </trkpt>
      <trkpt lat="45.20117" lon="0.816">
        <ele>95.0783778</ele>
        <time>2022-08-18T09:38:49Z</time>
      </trkpt>
      <trkpt lat="45.20125" lon="0.81592">
        <ele>94.823724</ele>
        <time>2022-08-18T09:38:51Z</time>
      </trkpt>
      <trkpt lat="45.20132" lon="0.81584">
        <ele>94.5524067</ele>
        <time>2022-08-18T09:38:53Z</time>
      </trkpt>
      <trkpt lat="45.20139" lon="0.81575">
        <ele>94.398783</ele>
        <time>2022-08-18T09:38:55Z</time>
      </trkpt>
      <trkpt lat="45.20147" lon="0.81567">
        <ele>94.3565044</ele>
        <time>2022-08-18T09:38:57Z</time>
      </trkpt>
      <trkpt lat="45.20154" lon="0.81559">
        <ele>94.2644659</ele>
        <time>2022-08-18T09:38:59Z</time>
      </trkpt>
      <trkpt lat="45.20161" lon="0.81552">
        <ele>94.5133809</ele>
        <time>2022-08-18T09:39:01Z</time>
      </trkpt>
      <trkpt lat="45.20168" lon="0.81544">
        <ele>94.7225262</ele>
        <time>2022-08-18T09:39:03Z</time>
      </trkpt>
      <trkpt lat="45.20176" lon="0.81536">
        <ele>95.5162454</ele>
        <time>2022-08-18T09:39:05Z</time>
      </trkpt>
      <trkpt lat="45.20182" lon="0.81527">
        <ele>95.8282762</ele>
        <time>2022-08-18T09:39:07Z</time>
      </trkpt>
      <trkpt lat="45.20187" lon="0.81518">
        <ele>95.4790892</ele>
        <time>2022-08-18T09:39:09Z</time>
      </trkpt>
      <trkpt lat="45.20192" lon="0.81508">
        <ele>95.3618499</ele>
        <time>2022-08-18T09:39:11Z</time>
      </trkpt>
      <trkpt lat="45.20196" lon="0.81498">
        <ele>95.1377056</ele>
        <time>2022-08-18T09:39:13Z</time>
      </trkpt>
      <trkpt lat="45.202" lon="0.81488">
        <ele>94.5808088</ele>
        <time>2022-08-18T09:39:15Z</time>
      </trkpt>
      <trkpt lat="45.20204" lon="0.81478">
        <ele>94.4533451</ele>
        <time>2022-08-18T09:39:17Z</time>
      </trkpt>
      <trkpt lat="45.20208" lon="0.81467">
        <ele>94.3188469</ele>
        <time>2022-08-18T09:39:19Z</time>
      </trkpt>
      <trkpt lat="45.2021" lon="0.81457">
        <ele>94.087814</ele>
        <time>2022-08-18T09:39:21Z</time>
      </trkpt>
      <trkpt lat="45.20213" lon="0.81446">
        <ele>94.1078996</ele>
        <time>2022-08-18T09:39:23Z</time>
      </trkpt>
      <trkpt lat="45.20215" lon="0.81435">
        <ele>94.2239449</ele>
        <time>2022-08-18T09:39:25Z</time>
      </trkpt>
      <trkpt lat="45.20216" lon="0.81424">
        <ele>94.2866079</ele>
        <time>2022-08-18T09:39:27Z</time>
      </trkpt>
      <trkpt lat="45.20217" lon="0.81413">
        <ele>94.4497327</ele>
        <time>2022-08-18T09:39:29Z</time>
      </trkpt>
      <trkpt lat="45.20218" lon="0.81402">
        <ele>94.7581742</ele>
        <time>2022-08-18T09:39:31Z</time>
      </trkpt>
      <trkpt lat="45.20218" lon="0.8139">
        <ele>94.8739185</ele>
        <time>2022-08-18T09:39:33Z</time>
      </trkpt>
      <trkpt lat="45.20217" lon="0.81379">
        <ele>95.1413087</ele>
        <time>2022-08-18T09:39:35Z</time>
      </trkpt>
      <trkpt lat="45.20216" lon="0.81367">
        <ele>95.027254</ele>
        <time>2022-08-18T09:39:37Z</time>
      </trkpt>
      <trkpt lat="45.20215" lon="0.81356">
        <ele>95.1096337</ele>
        <time>2022-08-18T09:39:39Z</time>
      </trkpt>
      <trkpt lat="45.20214" lon="0.81344">
        <ele>95.3483507</ele>
        <time>2022-08-18T09:39:41Z</time>
      </trkpt>
      <trkpt lat="45.20214" lon="0.81333">
        <ele>95.5525334</ele>
        <time>2022-08-18T09:39:43Z</time>
      </trkpt>
      <trkpt lat="45.20212" lon="0.81322">
        <ele>95.5279034</ele>
        <time>2022-08-18T09:39:45Z</time>
      </trkpt>
      <trkpt lat="45.20212" lon="0.81312">
        <ele>95.4986538</ele>
        <time>2022-08-18T09:39:47Z</time>
      </trkpt>
      <trkpt lat="45.20211" lon="0.81302">
        <ele>95.5027987</ele>
        <time>2022-08-18T09:39:49Z</time>
      </trkpt>
      <trkpt lat="45.2021" lon="0.81292">
        <ele>95.4989346</ele>
        <time>2022-08-18T09:39:51Z</time>
      </trkpt>
      <trkpt lat="45.2021" lon="0.81287">
        <ele>95.3933623</ele>
        <time>2022-08-18T09:39:52Z</time>
      </trkpt>
      <trkpt lat="45.20208" lon="0.81277">
        <ele>95.7610565</ele>
        <time>2022-08-18T09:39:54Z</time>
      </trkpt>
      <trkpt lat="45.20207" lon="0.81267">
        <ele>95.8885636</ele>
        <time>2022-08-18T09:39:56Z</time>
      </trkpt>
      <trkpt lat="45.20207" lon="0.81257">
        <ele>95.9345656</ele>
        <time>2022-08-18T09:39:58Z</time>
      </trkpt>
      <trkpt lat="45.20206" lon="0.81246">
        <ele>95.7132574</ele>
        <time>2022-08-18T09:40:00Z</time>
      </trkpt>
      <trkpt lat="45.20205" lon="0.81236">
        <ele>95.7488803</ele>
        <time>2022-08-18T09:40:02Z</time>
      </trkpt>
      <trkpt lat="45.20205" lon="0.81226">
        <ele>95.9281247</ele>
        <time>2022-08-18T09:40:04Z</time>
      </trkpt>
      <trkpt lat="45.20204" lon="0.81217">
        <ele>95.8991077</ele>
        <time>2022-08-18T09:40:06Z</time>
      </trkpt>
      <trkpt lat="45.20203" lon="0.81208">
        <ele>95.8080166</ele>
        <time>2022-08-18T09:40:08Z</time>
      </trkpt>
      <trkpt lat="45.20203" lon="0.812">
        <ele>95.8265376</ele>
        <time>2022-08-18T09:40:10Z</time>
      </trkpt>
      <trkpt lat="45.20202" lon="0.81192">
        <ele>95.9529823</ele>
        <time>2022-08-18T09:40:12Z</time>
      </trkpt>
      <trkpt lat="45.202" lon="0.81185">
        <ele>95.8496645</ele>
        <time>2022-08-18T09:40:14Z</time>
      </trkpt>
      <trkpt lat="45.202" lon="0.81178">
        <ele>95.9298883</ele>
        <time>2022-08-18T09:40:16Z</time>
      </trkpt>
      <trkpt lat="45.202" lon="0.81172">
        <ele>96.1173607</ele>
        <time>2022-08-18T09:40:18Z</time>
      </trkpt>
      <trkpt lat="45.20199" lon="0.81167">
        <ele>96.2427251</ele>
        <time>2022-08-18T09:40:20Z</time>
      </trkpt>
      <trkpt lat="45.20199" lon="0.81161">
        <ele>96.4213864</ele>
        <time>2022-08-18T09:40:22Z</time>
      </trkpt>
      <trkpt lat="45.20198" lon="0.81155">
        <ele>96.4962712</ele>
        <time>2022-08-18T09:40:24Z</time>
      </trkpt>
      <trkpt lat="45.20197" lon="0.8115">
        <ele>96.5752964</ele>
        <time>2022-08-18T09:40:26Z</time>
      </trkpt>
      <trkpt lat="45.20196" lon="0.81143">
        <ele>96.5016358</ele>
        <time>2022-08-18T09:40:28Z</time>
      </trkpt>
      <trkpt lat="45.20197" lon="0.81134">
        <ele>96.2589752</ele>
        <time>2022-08-18T09:40:30Z</time>
      </trkpt>
      <trkpt lat="45.20196" lon="0.81125">
        <ele>96.2788199</ele>
        <time>2022-08-18T09:40:32Z</time>
      </trkpt>
      <trkpt lat="45.20195" lon="0.81116">
        <ele>96.3735691</ele>
        <time>2022-08-18T09:40:34Z</time>
      </trkpt>
      <trkpt lat="45.20195" lon="0.81107">
        <ele>96.3166619</ele>
        <time>2022-08-18T09:40:36Z</time>
      </trkpt>
      <trkpt lat="45.20194" lon="0.81097">
        <ele>96.0616838</ele>
        <time>2022-08-18T09:40:38Z</time>
      </trkpt>
      <trkpt lat="45.20193" lon="0.81087">
        <ele>96.0322978</ele>
        <time>2022-08-18T09:40:40Z</time>
      </trkpt>
      <trkpt lat="45.20192" lon="0.81076">
        <ele>96.110431</ele>
        <time>2022-08-18T09:40:42Z</time>
      </trkpt>
      <trkpt lat="45.20191" lon="0.81066">
        <ele>96.0938422</ele>
        <time>2022-08-18T09:40:44Z</time>
      </trkpt>
      <trkpt lat="45.2019" lon="0.81055">
        <ele>95.9724781</ele>
        <time>2022-08-18T09:40:46Z</time>
      </trkpt>
      <trkpt lat="45.20189" lon="0.81039">
        <ele>96.0876796</ele>
        <time>2022-08-18T09:40:49Z</time>
      </trkpt>
      <trkpt lat="45.20188" lon="0.81028">
        <ele>96.0673922</ele>
        <time>2022-08-18T09:40:51Z</time>
      </trkpt>
      <trkpt lat="45.20186" lon="0.81016">
        <ele>95.8938103</ele>
        <time>2022-08-18T09:40:53Z</time>
      </trkpt>
      <trkpt lat="45.20186" lon="0.81004">
        <ele>95.7116466</ele>
        <time>2022-08-18T09:40:55Z</time>
      </trkpt>
      <trkpt lat="45.20184" lon="0.80992">
        <ele>95.5293392</ele>
        <time>2022-08-18T09:40:57Z</time>
      </trkpt>
      <trkpt lat="45.20183" lon="0.8098">
        <ele>95.3771031</ele>
        <time>2022-08-18T09:40:59Z</time>
      </trkpt>
      <trkpt lat="45.20183" lon="0.80968">
        <ele>95.4874609</ele>
        <time>2022-08-18T09:41:01Z</time>
      </trkpt>
      <trkpt lat="45.20182" lon="0.80956">
        <ele>95.3965031</ele>
        <time>2022-08-18T09:41:03Z</time>
      </trkpt>
      <trkpt lat="45.2018" lon="0.80943">
        <ele>95.3842811</ele>
        <time>2022-08-18T09:41:05Z</time>
      </trkpt>
      <trkpt lat="45.20179" lon="0.80931">
        <ele>95.140693</ele>
        <time>2022-08-18T09:41:07Z</time>
      </trkpt>
      <trkpt lat="45.20177" lon="0.80918">
        <ele>95.0755094</ele>
        <time>2022-08-18T09:41:09Z</time>
      </trkpt>
      <trkpt lat="45.20176" lon="0.80905">
        <ele>94.8543256</ele>
        <time>2022-08-18T09:41:11Z</time>
      </trkpt>
      <trkpt lat="45.20176" lon="0.80898">
        <ele>94.8911468</ele>
        <time>2022-08-18T09:41:12Z</time>
      </trkpt>
      <trkpt lat="45.20175" lon="0.80885">
        <ele>94.9099416</ele>
        <time>2022-08-18T09:41:14Z</time>
      </trkpt>
      <trkpt lat="45.20174" lon="0.80872">
        <ele>94.5780611</ele>
        <time>2022-08-18T09:41:16Z</time>
      </trkpt>
      <trkpt lat="45.20174" lon="0.80859">
        <ele>94.5517502</ele>
        <time>2022-08-18T09:41:18Z</time>
      </trkpt>
      <trkpt lat="45.20172" lon="0.80847">
        <ele>94.3235081</ele>
        <time>2022-08-18T09:41:20Z</time>
      </trkpt>
      <trkpt lat="45.20171" lon="0.80835">
        <ele>94.2214565</ele>
        <time>2022-08-18T09:41:22Z</time>
      </trkpt>
      <trkpt lat="45.2017" lon="0.80824">
        <ele>93.8185911</ele>
        <time>2022-08-18T09:41:24Z</time>
      </trkpt>
      <trkpt lat="45.20171" lon="0.80814">
        <ele>93.4954421</ele>
        <time>2022-08-18T09:41:26Z</time>
      </trkpt>
      <trkpt lat="45.20174" lon="0.80806">
        <ele>93.3460912</ele>
        <time>2022-08-18T09:41:28Z</time>
      </trkpt>
      <trkpt lat="45.20179" lon="0.80802">
        <ele>93.0802409</ele>
        <time>2022-08-18T09:41:30Z</time>
      </trkpt>
      <trkpt lat="45.20185" lon="0.808">
        <ele>93.0564094</ele>
        <time>2022-08-18T09:41:32Z</time>
      </trkpt>
      <trkpt lat="45.20191" lon="0.80798">
        <ele>92.9956794</ele>
        <time>2022-08-18T09:41:34Z</time>
      </trkpt>
      <trkpt lat="45.20197" lon="0.80796">
        <ele>92.9545696</ele>
        <time>2022-08-18T09:41:36Z</time>
      </trkpt>
      <trkpt lat="45.20201" lon="0.80795">
        <ele>92.5796876</ele>
        <time>2022-08-18T09:41:38Z</time>
      </trkpt>
      <trkpt lat="45.20206" lon="0.80794">
        <ele>92.5059485</ele>
        <time>2022-08-18T09:41:40Z</time>
      </trkpt>
      <trkpt lat="45.20207" lon="0.80793">
        <ele>92.4712588</ele>
        <time>2022-08-18T09:41:42Z</time>
      </trkpt>
      <trkpt lat="45.20207" lon="0.80793">
        <ele>92.4730077</ele>
        <time>2022-08-18T09:41:44Z</time>
      </trkpt>
      <trkpt lat="45.20207" lon="0.80793">
        <ele>92.6250527</ele>
        <time>2022-08-18T09:41:46Z</time>
      </trkpt>
      <trkpt lat="45.20207" lon="0.80793">
        <ele>92.9670162</ele>
        <time>2022-08-18T09:41:48Z</time>
      </trkpt>
      <trkpt lat="45.20207" lon="0.80793">
        <ele>93.1097845</ele>
        <time>2022-08-18T09:41:50Z</time>
      </trkpt>
      <trkpt lat="45.20207" lon="0.80793">
        <ele>93.1778338</ele>
        <time>2022-08-18T09:41:52Z</time>
      </trkpt>
      <trkpt lat="45.20207" lon="0.80793">
        <ele>93.3767205</ele>
        <time>2022-08-18T09:41:54Z</time>
      </trkpt>
      <trkpt lat="45.20207" lon="0.80793">
        <ele>93.3797328</ele>
        <time>2022-08-18T09:41:56Z</time>
      </trkpt>
      <trkpt lat="45.20207" lon="0.80793">
        <ele>93.2746127</ele>
        <time>2022-08-18T09:41:58Z</time>
      </trkpt>
      <trkpt lat="45.20207" lon="0.80793">
        <ele>93.0015309</ele>
        <time>2022-08-18T09:42:02Z</time>
      </trkpt>
      <trkpt lat="45.20207" lon="0.80793">
        <ele>92.430666</ele>
        <time>2022-08-18T09:42:04Z</time>
      </trkpt>
      <trkpt lat="45.20207" lon="0.80793">
        <ele>92.4365722</ele>
        <time>2022-08-18T09:42:06Z</time>
      </trkpt>
      <trkpt lat="45.20207" lon="0.80793">
        <ele>92.3490287</ele>
        <time>2022-08-18T09:42:08Z</time>
      </trkpt>
      <trkpt lat="45.20207" lon="0.80793">
        <ele>92.3582218</ele>
        <time>2022-08-18T09:42:10Z</time>
      </trkpt>
      <trkpt lat="45.20207" lon="0.80793">
        <ele>92.3990497</ele>
        <time>2022-08-18T09:42:12Z</time>
      </trkpt>
      <trkpt lat="45.20207" lon="0.80793">
        <ele>92.4703484</ele>
        <time>2022-08-18T09:42:14Z</time>
      </trkpt>
      <trkpt lat="45.20208" lon="0.80793">
        <ele>92.6388295</ele>
        <time>2022-08-18T09:42:16Z</time>
      </trkpt>
      <trkpt lat="45.20208" lon="0.80793">
        <ele>92.6491808</ele>
        <time>2022-08-18T09:42:18Z</time>
      </trkpt>
      <trkpt lat="45.20208" lon="0.80793">
        <ele>92.7553341</ele>
        <time>2022-08-18T09:42:20Z</time>
      </trkpt>
      <trkpt lat="45.20208" lon="0.80793">
        <ele>92.6199716</ele>
        <time>2022-08-18T09:42:22Z</time>
      </trkpt>
      <trkpt lat="45.20208" lon="0.80793">
        <ele>92.8062122</ele>
        <time>2022-08-18T09:42:24Z</time>
      </trkpt>
      <trkpt lat="45.20208" lon="0.80793">
        <ele>92.5364786</ele>
        <time>2022-08-18T09:42:26Z</time>
      </trkpt>
      <trkpt lat="45.20208" lon="0.80793">
        <ele>92.3242421</ele>
        <time>2022-08-18T09:42:28Z</time>
      </trkpt>
      <trkpt lat="45.20208" lon="0.80793">
        <ele>92.3406357</ele>
        <time>2022-08-18T09:42:30Z</time>
      </trkpt>
      <trkpt lat="45.20208" lon="0.80793">
        <ele>92.4974539</ele>
        <time>2022-08-18T09:42:32Z</time>
      </trkpt>
      <trkpt lat="45.20208" lon="0.80793">
        <ele>92.6395077</ele>
        <time>2022-08-18T09:42:34Z</time>
      </trkpt>
      <trkpt lat="45.20208" lon="0.80794">
        <ele>92.2981039</ele>
        <time>2022-08-18T09:42:36Z</time>
      </trkpt>
      <trkpt lat="45.20208" lon="0.80794">
        <ele>92.1102217</ele>
        <time>2022-08-18T09:42:38Z</time>
      </trkpt>
      <trkpt lat="45.20208" lon="0.80794">
        <ele>91.9026547</ele>
        <time>2022-08-18T09:42:40Z</time>
      </trkpt>
      <trkpt lat="45.20212" lon="0.80791">
        <ele>91.91724</ele>
        <time>2022-08-18T09:42:42Z</time>
      </trkpt>
      <trkpt lat="45.20216" lon="0.80788">
        <ele>91.8294602</ele>
        <time>2022-08-18T09:42:44Z</time>
      </trkpt>
      <trkpt lat="45.20223" lon="0.80785">
        <ele>91.819062</ele>
        <time>2022-08-18T09:42:46Z</time>
      </trkpt>
      <trkpt lat="45.20229" lon="0.8078">
        <ele>91.6921306</ele>
        <time>2022-08-18T09:42:48Z</time>
      </trkpt>
      <trkpt lat="45.20234" lon="0.80777">
        <ele>91.5418422</ele>
        <time>2022-08-18T09:42:50Z</time>
      </trkpt>
      <trkpt lat="45.20239" lon="0.80773">
        <ele>91.4827543</ele>
        <time>2022-08-18T09:42:52Z</time>
      </trkpt>
      <trkpt lat="45.20244" lon="0.80768">
        <ele>91.1519052</ele>
        <time>2022-08-18T09:42:54Z</time>
      </trkpt>
      <trkpt lat="45.20249" lon="0.80762">
        <ele>91.0821393</ele>
        <time>2022-08-18T09:42:56Z</time>
      </trkpt>
      <trkpt lat="45.20254" lon="0.80756">
        <ele>91.2317152</ele>
        <time>2022-08-18T09:42:58Z</time>
      </trkpt>
      <trkpt lat="45.20259" lon="0.8075">
        <ele>90.8063351</ele>
        <time>2022-08-18T09:43:00Z</time>
      </trkpt>
      <trkpt lat="45.20263" lon="0.80743">
        <ele>90.7568478</ele>
        <time>2022-08-18T09:43:02Z</time>
      </trkpt>
      <trkpt lat="45.20268" lon="0.80736">
        <ele>90.9482374</ele>
        <time>2022-08-18T09:43:04Z</time>
      </trkpt>
      <trkpt lat="45.20271" lon="0.80729">
        <ele>91.1565966</ele>
        <time>2022-08-18T09:43:06Z</time>
      </trkpt>
      <trkpt lat="45.20274" lon="0.80722">
        <ele>90.952192</ele>
        <time>2022-08-18T09:43:08Z</time>
      </trkpt>
      <trkpt lat="45.20278" lon="0.80712">
        <ele>90.5190913</ele>
        <time>2022-08-18T09:43:11Z</time>
      </trkpt>
      <trkpt lat="45.20281" lon="0.80705">
        <ele>90.1852244</ele>
        <time>2022-08-18T09:43:13Z</time>
      </trkpt>
      <trkpt lat="45.20283" lon="0.80699">
        <ele>90.1066019</ele>
        <time>2022-08-18T09:43:15Z</time>
      </trkpt>
      <trkpt lat="45.20285" lon="0.80694">
        <ele>90.0934545</ele>
        <time>2022-08-18T09:43:17Z</time>
      </trkpt>
      <trkpt lat="45.20287" lon="0.80689">
        <ele>89.960175</ele>
        <time>2022-08-18T09:43:19Z</time>
      </trkpt>
      <trkpt lat="45.20288" lon="0.80687">
        <ele>89.910811</ele>
        <time>2022-08-18T09:43:21Z</time>
      </trkpt>
      <trkpt lat="45.20288" lon="0.80686">
        <ele>90.6811888</ele>
        <time>2022-08-18T09:43:23Z</time>
      </trkpt>
      <trkpt lat="45.20288" lon="0.80687">
        <ele>90.6361643</ele>
        <time>2022-08-18T09:43:25Z</time>
      </trkpt>
      <trkpt lat="45.20288" lon="0.80687">
        <ele>90.6072937</ele>
        <time>2022-08-18T09:43:27Z</time>
      </trkpt>
      <trkpt lat="45.20288" lon="0.80687">
        <ele>90.6650501</ele>
        <time>2022-08-18T09:43:29Z</time>
      </trkpt>
      <trkpt lat="45.20288" lon="0.80687">
        <ele>91.0194348</ele>
        <time>2022-08-18T09:43:31Z</time>
      </trkpt>
      <trkpt lat="45.20288" lon="0.80686">
        <ele>91.0567851</ele>
        <time>2022-08-18T09:43:33Z</time>
      </trkpt>
      <trkpt lat="45.20289" lon="0.80686">
        <ele>90.9669259</ele>
        <time>2022-08-18T09:43:35Z</time>
      </trkpt>
      <trkpt lat="45.20288" lon="0.80686">
        <ele>90.4172528</ele>
        <time>2022-08-18T09:43:37Z</time>
      </trkpt>
      <trkpt lat="45.20287" lon="0.80687">
        <ele>89.9181406</ele>
        <time>2022-08-18T09:43:39Z</time>
      </trkpt>
      <trkpt lat="45.20287" lon="0.80686">
        <ele>89.3169978</ele>
        <time>2022-08-18T09:43:41Z</time>
      </trkpt>
      <trkpt lat="45.20287" lon="0.80686">
        <ele>89.295119</ele>
        <time>2022-08-18T09:43:43Z</time>
      </trkpt>
      <trkpt lat="45.20288" lon="0.80686">
        <ele>89.4750925</ele>
        <time>2022-08-18T09:43:45Z</time>
      </trkpt>
      <trkpt lat="45.20287" lon="0.80686">
        <ele>89.7203604</ele>
        <time>2022-08-18T09:43:47Z</time>
      </trkpt>
      <trkpt lat="45.20288" lon="0.80686">
        <ele>90.2303605</ele>
        <time>2022-08-18T09:43:49Z</time>
      </trkpt>
      <trkpt lat="45.20288" lon="0.80685">
        <ele>89.8951753</ele>
        <time>2022-08-18T09:43:51Z</time>
      </trkpt>
      <trkpt lat="45.20288" lon="0.80685">
        <ele>90.0640515</ele>
        <time>2022-08-18T09:43:53Z</time>
      </trkpt>
      <trkpt lat="45.20288" lon="0.80684">
        <ele>90.0623791</ele>
        <time>2022-08-18T09:43:55Z</time>
      </trkpt>
      <trkpt lat="45.20288" lon="0.80684">
        <ele>90.1543744</ele>
        <time>2022-08-18T09:43:57Z</time>
      </trkpt>
      <trkpt lat="45.20288" lon="0.80684">
        <ele>90.1584947</ele>
        <time>2022-08-18T09:43:59Z</time>
      </trkpt>
      <trkpt lat="45.20287" lon="0.80681">
        <ele>88.5307525</ele>
        <time>2022-08-18T09:44:01Z</time>
      </trkpt>
      <trkpt lat="45.20287" lon="0.80681">
        <ele>88.3970971</ele>
        <time>2022-08-18T09:44:03Z</time>
      </trkpt>
      <trkpt lat="45.20287" lon="0.80681">
        <ele>88.5028732</ele>
        <time>2022-08-18T09:44:05Z</time>
      </trkpt>
      <trkpt lat="45.20287" lon="0.8068">
        <ele>88.686943</ele>
        <time>2022-08-18T09:44:06Z</time>
      </trkpt>
      <trkpt lat="45.20287" lon="0.80679">
        <ele>88.6592095</ele>
        <time>2022-08-18T09:44:08Z</time>
      </trkpt>
      <trkpt lat="45.20287" lon="0.80678">
        <ele>88.1700429</ele>
        <time>2022-08-18T09:44:10Z</time>
      </trkpt>
      <trkpt lat="45.20288" lon="0.80673">
        <ele>88.2239979</ele>
        <time>2022-08-18T09:44:12Z</time>
      </trkpt>
      <trkpt lat="45.20289" lon="0.80665">
        <ele>88.1917997</ele>
        <time>2022-08-18T09:44:14Z</time>
      </trkpt>
      <trkpt lat="45.2029" lon="0.80658">
        <ele>88.2678098</ele>
        <time>2022-08-18T09:44:16Z</time>
      </trkpt>
      <trkpt lat="45.20291" lon="0.8065">
        <ele>88.1484143</ele>
        <time>2022-08-18T09:44:18Z</time>
      </trkpt>
      <trkpt lat="45.20291" lon="0.8064">
        <ele>87.9320467</ele>
        <time>2022-08-18T09:44:20Z</time>
      </trkpt>
      <trkpt lat="45.20291" lon="0.80631">
        <ele>87.8985436</ele>
        <time>2022-08-18T09:44:22Z</time>
      </trkpt>
      <trkpt lat="45.20292" lon="0.80623">
        <ele>88.0826347</ele>
        <time>2022-08-18T09:44:24Z</time>
      </trkpt>
      <trkpt lat="45.20291" lon="0.80614">
        <ele>87.999137</ele>
        <time>2022-08-18T09:44:26Z</time>
      </trkpt>
      <trkpt lat="45.2029" lon="0.80604">
        <ele>88.4580157</ele>
        <time>2022-08-18T09:44:28Z</time>
      </trkpt>
      <trkpt lat="45.2029" lon="0.80595">
        <ele>88.8448708</ele>
        <time>2022-08-18T09:44:30Z</time>
      </trkpt>
      <trkpt lat="45.20288" lon="0.80586">
        <ele>88.6301509</ele>
        <time>2022-08-18T09:44:32Z</time>
      </trkpt>
      <trkpt lat="45.20286" lon="0.80578">
        <ele>89.4540899</ele>
        <time>2022-08-18T09:44:34Z</time>
      </trkpt>
      <trkpt lat="45.20284" lon="0.80567">
        <ele>88.5681005</ele>
        <time>2022-08-18T09:44:36Z</time>
      </trkpt>
      <trkpt lat="45.20281" lon="0.80558">
        <ele>87.7983572</ele>
        <time>2022-08-18T09:44:38Z</time>
      </trkpt>
      <trkpt lat="45.20278" lon="0.80548">
        <ele>87.9507586</ele>
        <time>2022-08-18T09:44:40Z</time>
      </trkpt>
      <trkpt lat="45.20274" lon="0.80539">
        <ele>87.5793744</ele>
        <time>2022-08-18T09:44:42Z</time>
      </trkpt>
      <trkpt lat="45.20272" lon="0.80531">
        <ele>87.8557167</ele>
        <time>2022-08-18T09:44:44Z</time>
      </trkpt>
      <trkpt lat="45.20269" lon="0.80522">
        <ele>87.8932896</ele>
        <time>2022-08-18T09:44:46Z</time>
      </trkpt>
      <trkpt lat="45.20265" lon="0.80514">
        <ele>88.190885</ele>
        <time>2022-08-18T09:44:48Z</time>
      </trkpt>
      <trkpt lat="45.20261" lon="0.80505">
        <ele>88.7650912</ele>
        <time>2022-08-18T09:44:50Z</time>
      </trkpt>
      <trkpt lat="45.20259" lon="0.80497">
        <ele>89.0215872</ele>
        <time>2022-08-18T09:44:52Z</time>
      </trkpt>
      <trkpt lat="45.20256" lon="0.80489">
        <ele>89.1697235</ele>
        <time>2022-08-18T09:44:54Z</time>
      </trkpt>
      <trkpt lat="45.20255" lon="0.8048">
        <ele>89.2972154</ele>
        <time>2022-08-18T09:44:56Z</time>
      </trkpt>
      <trkpt lat="45.20256" lon="0.80473">
        <ele>89.3254479</ele>
        <time>2022-08-18T09:44:58Z</time>
      </trkpt>
      <trkpt lat="45.2026" lon="0.80462">
        <ele>89.8029689</ele>
        <time>2022-08-18T09:45:01Z</time>
      </trkpt>
      <trkpt lat="45.20263" lon="0.80457">
        <ele>89.857578</ele>
        <time>2022-08-18T09:45:03Z</time>
      </trkpt>
      <trkpt lat="45.20266" lon="0.80452">
        <ele>90.0884635</ele>
        <time>2022-08-18T09:45:05Z</time>
      </trkpt>
      <trkpt lat="45.20269" lon="0.80448">
        <ele>89.5017717</ele>
        <time>2022-08-18T09:45:07Z</time>
      </trkpt>
      <trkpt lat="45.20272" lon="0.80445">
        <ele>89.2081198</ele>
        <time>2022-08-18T09:45:09Z</time>
      </trkpt>
      <trkpt lat="45.20275" lon="0.80441">
        <ele>89.2884711</ele>
        <time>2022-08-18T09:45:11Z</time>
      </trkpt>
      <trkpt lat="45.2028" lon="0.80435">
        <ele>89.5515735</ele>
        <time>2022-08-18T09:45:13Z</time>
      </trkpt>
      <trkpt lat="45.20284" lon="0.80431">
        <ele>89.1763798</ele>
        <time>2022-08-18T09:45:15Z</time>
      </trkpt>
      <trkpt lat="45.20288" lon="0.80426">
        <ele>89.6829816</ele>
        <time>2022-08-18T09:45:17Z</time>
      </trkpt>
      <trkpt lat="45.20291" lon="0.80421">
        <ele>89.7636593</ele>
        <time>2022-08-18T09:45:19Z</time>
      </trkpt>
      <trkpt lat="45.20295" lon="0.80415">
        <ele>90.1811829</ele>
        <time>2022-08-18T09:45:21Z</time>
      </trkpt>
      <trkpt lat="45.203" lon="0.8041">
        <ele>90.2465509</ele>
        <time>2022-08-18T09:45:23Z</time>
      </trkpt>
      <trkpt lat="45.20305" lon="0.80406">
        <ele>90.2127939</ele>
        <time>2022-08-18T09:45:25Z</time>
      </trkpt>
      <trkpt lat="45.20307" lon="0.80404">
        <ele>90.0959117</ele>
        <time>2022-08-18T09:45:26Z</time>
      </trkpt>
      <trkpt lat="45.20312" lon="0.80397">
        <ele>90.0178952</ele>
        <time>2022-08-18T09:45:28Z</time>
      </trkpt>
      <trkpt lat="45.20318" lon="0.8039">
        <ele>89.9380222</ele>
        <time>2022-08-18T09:45:30Z</time>
      </trkpt>
      <trkpt lat="45.20325" lon="0.80382">
        <ele>89.3865746</ele>
        <time>2022-08-18T09:45:32Z</time>
      </trkpt>
      <trkpt lat="45.20331" lon="0.80378">
        <ele>88.4167434</ele>
        <time>2022-08-18T09:45:34Z</time>
      </trkpt>
      <trkpt lat="45.20335" lon="0.80371">
        <ele>88.8476375</ele>
        <time>2022-08-18T09:45:36Z</time>
      </trkpt>
      <trkpt lat="45.20341" lon="0.80365">
        <ele>90.1354351</ele>
        <time>2022-08-18T09:45:38Z</time>
      </trkpt>
      <trkpt lat="45.20345" lon="0.80359">
        <ele>90.8311015</ele>
        <time>2022-08-18T09:45:40Z</time>
      </trkpt>
      <trkpt lat="45.20349" lon="0.80354">
        <ele>91.7292091</ele>
        <time>2022-08-18T09:45:42Z</time>
      </trkpt>
      <trkpt lat="45.2035" lon="0.80347">
        <ele>92.5035063</ele>
        <time>2022-08-18T09:45:44Z</time>
      </trkpt>
      <trkpt lat="45.20349" lon="0.80344">
        <ele>91.9342281</ele>
        <time>2022-08-18T09:45:46Z</time>
      </trkpt>
      <trkpt lat="45.20347" lon="0.8034">
        <ele>91.5500621</ele>
        <time>2022-08-18T09:45:48Z</time>
      </trkpt>
      <trkpt lat="45.20346" lon="0.80336">
        <ele>91.9052347</ele>
        <time>2022-08-18T09:45:50Z</time>
      </trkpt>
      <trkpt lat="45.20343" lon="0.80329">
        <ele>91.6894021</ele>
        <time>2022-08-18T09:45:52Z</time>
      </trkpt>
      <trkpt lat="45.20341" lon="0.80324">
        <ele>91.7454656</ele>
        <time>2022-08-18T09:45:54Z</time>
      </trkpt>
      <trkpt lat="45.2034" lon="0.8032">
        <ele>91.6567718</ele>
        <time>2022-08-18T09:45:56Z</time>
      </trkpt>
      <trkpt lat="45.20339" lon="0.80319">
        <ele>91.3772495</ele>
        <time>2022-08-18T09:45:58Z</time>
      </trkpt>
      <trkpt lat="45.20337" lon="0.80316">
        <ele>91.7782148</ele>
        <time>2022-08-18T09:46:00Z</time>
      </trkpt>
      <trkpt lat="45.20335" lon="0.80315">
        <ele>91.7353794</ele>
        <time>2022-08-18T09:46:02Z</time>
      </trkpt>
      <trkpt lat="45.20335" lon="0.80315">
        <ele>92.182398</ele>
        <time>2022-08-18T09:46:04Z</time>
      </trkpt>
      <trkpt lat="45.20334" lon="0.80316">
        <ele>92.5026271</ele>
        <time>2022-08-18T09:46:06Z</time>
      </trkpt>
      <trkpt lat="45.20331" lon="0.80319">
        <ele>91.7594988</ele>
        <time>2022-08-18T09:46:08Z</time>
      </trkpt>
      <trkpt lat="45.20324" lon="0.80328">
        <ele>90.7838797</ele>
        <time>2022-08-18T09:46:10Z</time>
      </trkpt>
      <trkpt lat="45.20315" lon="0.80336">
        <ele>89.5529724</ele>
        <time>2022-08-18T09:46:12Z</time>
      </trkpt>
      <trkpt lat="45.20308" lon="0.80347">
        <ele>87.9563101</ele>
        <time>2022-08-18T09:46:14Z</time>
      </trkpt>
      <trkpt lat="45.20299" lon="0.80356">
        <ele>87.1587628</ele>
        <time>2022-08-18T09:46:16Z</time>
      </trkpt>
      <trkpt lat="45.2029" lon="0.80355">
        <ele>86.964649</ele>
        <time>2022-08-18T09:46:18Z</time>
      </trkpt>
      <trkpt lat="45.20283" lon="0.80349">
        <ele>87.9307051</ele>
        <time>2022-08-18T09:46:20Z</time>
      </trkpt>
      <trkpt lat="45.20278" lon="0.80342">
        <ele>88.4407906</ele>
        <time>2022-08-18T09:46:22Z</time>
      </trkpt>
      <trkpt lat="45.20273" lon="0.80336">
        <ele>88.5521269</ele>
        <time>2022-08-18T09:46:24Z</time>
      </trkpt>
      <trkpt lat="45.20268" lon="0.80329">
        <ele>89.1247373</ele>
        <time>2022-08-18T09:46:26Z</time>
      </trkpt>
      <trkpt lat="45.20261" lon="0.80323">
        <ele>89.3408048</ele>
        <time>2022-08-18T09:46:28Z</time>
      </trkpt>
      <trkpt lat="45.20254" lon="0.80318">
        <ele>89.0302481</ele>
        <time>2022-08-18T09:46:30Z</time>
      </trkpt>
      <trkpt lat="45.20247" lon="0.80314">
        <ele>88.3258757</ele>
        <time>2022-08-18T09:46:32Z</time>
      </trkpt>
      <trkpt lat="45.20239" lon="0.80309">
        <ele>88.175123</ele>
        <time>2022-08-18T09:46:34Z</time>
      </trkpt>
      <trkpt lat="45.2023" lon="0.80304">
        <ele>87.7531077</ele>
        <time>2022-08-18T09:46:36Z</time>
      </trkpt>
      <trkpt lat="45.20221" lon="0.80298">
        <ele>88.0296689</ele>
        <time>2022-08-18T09:46:38Z</time>
      </trkpt>
      <trkpt lat="45.20213" lon="0.8029">
        <ele>89.442233</ele>
        <time>2022-08-18T09:46:40Z</time>
      </trkpt>
      <trkpt lat="45.20206" lon="0.80281">
        <ele>89.2351574</ele>
        <time>2022-08-18T09:46:42Z</time>
      </trkpt>
      <trkpt lat="45.202" lon="0.80274">
        <ele>89.0221672</ele>
        <time>2022-08-18T09:46:44Z</time>
      </trkpt>
      <trkpt lat="45.20193" lon="0.80268">
        <ele>89.2906909</ele>
        <time>2022-08-18T09:46:46Z</time>
      </trkpt>
      <trkpt lat="45.20188" lon="0.80263">
        <ele>88.5406573</ele>
        <time>2022-08-18T09:46:48Z</time>
      </trkpt>
      <trkpt lat="45.20182" lon="0.80257">
        <ele>88.4136058</ele>
        <time>2022-08-18T09:46:50Z</time>
      </trkpt>
      <trkpt lat="45.20176" lon="0.80252">
        <ele>88.4933909</ele>
        <time>2022-08-18T09:46:52Z</time>
      </trkpt>
      <trkpt lat="45.2017" lon="0.80246">
        <ele>87.8422609</ele>
        <time>2022-08-18T09:46:54Z</time>
      </trkpt>
      <trkpt lat="45.20163" lon="0.80242">
        <ele>87.823884</ele>
        <time>2022-08-18T09:46:56Z</time>
      </trkpt>
      <trkpt lat="45.20156" lon="0.80236">
        <ele>88.5574246</ele>
        <time>2022-08-18T09:46:58Z</time>
      </trkpt>
      <trkpt lat="45.20149" lon="0.80229">
        <ele>88.6850045</ele>
        <time>2022-08-18T09:47:00Z</time>
      </trkpt>
      <trkpt lat="45.20141" lon="0.80223">
        <ele>88.81117</ele>
        <time>2022-08-18T09:47:02Z</time>
      </trkpt>
      <trkpt lat="45.20133" lon="0.80217">
        <ele>88.8072372</ele>
        <time>2022-08-18T09:47:04Z</time>
      </trkpt>
      <trkpt lat="45.20126" lon="0.80211">
        <ele>88.6729542</ele>
        <time>2022-08-18T09:47:06Z</time>
      </trkpt>
      <trkpt lat="45.20118" lon="0.80205">
        <ele>88.703085</ele>
        <time>2022-08-18T09:47:08Z</time>
      </trkpt>
      <trkpt lat="45.20111" lon="0.80199">
        <ele>88.5869662</ele>
        <time>2022-08-18T09:47:10Z</time>
      </trkpt>
      <trkpt lat="45.20104" lon="0.80193">
        <ele>88.749964</ele>
        <time>2022-08-18T09:47:12Z</time>
      </trkpt>
      <trkpt lat="45.20097" lon="0.80186">
        <ele>88.0866395</ele>
        <time>2022-08-18T09:47:14Z</time>
      </trkpt>
      <trkpt lat="45.20086" lon="0.80178">
        <ele>88.7004486</ele>
        <time>2022-08-18T09:47:17Z</time>
      </trkpt>
      <trkpt lat="45.20078" lon="0.80173">
        <ele>88.7398785</ele>
        <time>2022-08-18T09:47:19Z</time>
      </trkpt>
      <trkpt lat="45.2007" lon="0.80166">
        <ele>88.4199891</ele>
        <time>2022-08-18T09:47:21Z</time>
      </trkpt>
      <trkpt lat="45.20062" lon="0.80161">
        <ele>88.2881095</ele>
        <time>2022-08-18T09:47:23Z</time>
      </trkpt>
      <trkpt lat="45.20053" lon="0.80155">
        <ele>88.0056351</ele>
        <time>2022-08-18T09:47:25Z</time>
      </trkpt>
      <trkpt lat="45.20044" lon="0.8015">
        <ele>87.6403136</ele>
        <time>2022-08-18T09:47:27Z</time>
      </trkpt>
      <trkpt lat="45.20034" lon="0.80146">
        <ele>88.0273437</ele>
        <time>2022-08-18T09:47:29Z</time>
      </trkpt>
      <trkpt lat="45.20025" lon="0.80143">
        <ele>88.7624295</ele>
        <time>2022-08-18T09:47:31Z</time>
      </trkpt>
      <trkpt lat="45.20016" lon="0.80137">
        <ele>88.7655379</ele>
        <time>2022-08-18T09:47:33Z</time>
      </trkpt>
      <trkpt lat="45.20008" lon="0.80133">
        <ele>87.6166174</ele>
        <time>2022-08-18T09:47:35Z</time>
      </trkpt>
      <trkpt lat="45.2" lon="0.80126">
        <ele>87.6226504</ele>
        <time>2022-08-18T09:47:37Z</time>
      </trkpt>
      <trkpt lat="45.19992" lon="0.80122">
        <ele>88.2101988</ele>
        <time>2022-08-18T09:47:39Z</time>
      </trkpt>
      <trkpt lat="45.19983" lon="0.80119">
        <ele>88.3905125</ele>
        <time>2022-08-18T09:47:41Z</time>
      </trkpt>
      <trkpt lat="45.19976" lon="0.80114">
        <ele>88.6249712</ele>
        <time>2022-08-18T09:47:43Z</time>
      </trkpt>
      <trkpt lat="45.19969" lon="0.8011">
        <ele>88.2873642</ele>
        <time>2022-08-18T09:47:45Z</time>
      </trkpt>
      <trkpt lat="45.19963" lon="0.80103">
        <ele>88.5424904</ele>
        <time>2022-08-18T09:47:47Z</time>
      </trkpt>
      <trkpt lat="45.19958" lon="0.80094">
        <ele>89.0610662</ele>
        <time>2022-08-18T09:47:49Z</time>
      </trkpt>
      <trkpt lat="45.19955" lon="0.8009">
        <ele>89.2338228</ele>
        <time>2022-08-18T09:47:50Z</time>
      </trkpt>
      <trkpt lat="45.19952" lon="0.80079">
        <ele>89.8106674</ele>
        <time>2022-08-18T09:47:52Z</time>
      </trkpt>
      <trkpt lat="45.1995" lon="0.80069">
        <ele>89.9754137</ele>
        <time>2022-08-18T09:47:54Z</time>
      </trkpt>
      <trkpt lat="45.19948" lon="0.80058">
        <ele>90.2863237</ele>
        <time>2022-08-18T09:47:56Z</time>
      </trkpt>
      <trkpt lat="45.19946" lon="0.80048">
        <ele>90.863896</ele>
        <time>2022-08-18T09:47:58Z</time>
      </trkpt>
      <trkpt lat="45.19945" lon="0.80038">
        <ele>90.8791034</ele>
        <time>2022-08-18T09:48:00Z</time>
      </trkpt>
      <trkpt lat="45.19943" lon="0.80028">
        <ele>91.2521584</ele>
        <time>2022-08-18T09:48:02Z</time>
      </trkpt>
      <trkpt lat="45.19942" lon="0.80018">
        <ele>91.5616617</ele>
        <time>2022-08-18T09:48:04Z</time>
      </trkpt>
      <trkpt lat="45.19941" lon="0.80008">
        <ele>91.6043316</ele>
        <time>2022-08-18T09:48:06Z</time>
      </trkpt>
      <trkpt lat="45.1994" lon="0.79998">
        <ele>91.9699534</ele>
        <time>2022-08-18T09:48:08Z</time>
      </trkpt>
      <trkpt lat="45.19938" lon="0.79988">
        <ele>92.1427722</ele>
        <time>2022-08-18T09:48:10Z</time>
      </trkpt>
      <trkpt lat="45.19936" lon="0.79979">
        <ele>92.45971</ele>
        <time>2022-08-18T09:48:12Z</time>
      </trkpt>
      <trkpt lat="45.19932" lon="0.7997">
        <ele>92.6495194</ele>
        <time>2022-08-18T09:48:14Z</time>
      </trkpt>
      <trkpt lat="45.19926" lon="0.79964">
        <ele>92.7489766</ele>
        <time>2022-08-18T09:48:16Z</time>
      </trkpt>
      <trkpt lat="45.19919" lon="0.79961">
        <ele>92.4730055</ele>
        <time>2022-08-18T09:48:18Z</time>
      </trkpt>
      <trkpt lat="45.19911" lon="0.79958">
        <ele>92.2757844</ele>
        <time>2022-08-18T09:48:20Z</time>
      </trkpt>
      <trkpt lat="45.19904" lon="0.79956">
        <ele>91.8896314</ele>
        <time>2022-08-18T09:48:22Z</time>
      </trkpt>
      <trkpt lat="45.19896" lon="0.79954">
        <ele>91.9316131</ele>
        <time>2022-08-18T09:48:24Z</time>
      </trkpt>
      <trkpt lat="45.19888" lon="0.79952">
        <ele>92.0170768</ele>
        <time>2022-08-18T09:48:26Z</time>
      </trkpt>
      <trkpt lat="45.19881" lon="0.79952">
        <ele>91.755641</ele>
        <time>2022-08-18T09:48:28Z</time>
      </trkpt>
      <trkpt lat="45.19875" lon="0.7995">
        <ele>92.180205</ele>
        <time>2022-08-18T09:48:30Z</time>
      </trkpt>
      <trkpt lat="45.19869" lon="0.7995">
        <ele>91.2297347</ele>
        <time>2022-08-18T09:48:32Z</time>
      </trkpt>
      <trkpt lat="45.19862" lon="0.79949">
        <ele>90.7141271</ele>
        <time>2022-08-18T09:48:34Z</time>
      </trkpt>
      <trkpt lat="45.19855" lon="0.79948">
        <ele>90.3760364</ele>
        <time>2022-08-18T09:48:36Z</time>
      </trkpt>
      <trkpt lat="45.19848" lon="0.79948">
        <ele>90.1505662</ele>
        <time>2022-08-18T09:48:38Z</time>
      </trkpt>
      <trkpt lat="45.1984" lon="0.79948">
        <ele>89.9079697</ele>
        <time>2022-08-18T09:48:40Z</time>
      </trkpt>
      <trkpt lat="45.19833" lon="0.79948">
        <ele>89.9263655</ele>
        <time>2022-08-18T09:48:42Z</time>
      </trkpt>
      <trkpt lat="45.19827" lon="0.79948">
        <ele>89.5927685</ele>
        <time>2022-08-18T09:48:44Z</time>
      </trkpt>
      <trkpt lat="45.19821" lon="0.79949">
        <ele>89.5595134</ele>
        <time>2022-08-18T09:48:46Z</time>
      </trkpt>
      <trkpt lat="45.19814" lon="0.7995">
        <ele>89.4032307</ele>
        <time>2022-08-18T09:48:48Z</time>
      </trkpt>
      <trkpt lat="45.19807" lon="0.79953">
        <ele>88.9905385</ele>
        <time>2022-08-18T09:48:50Z</time>
      </trkpt>
      <trkpt lat="45.19799" lon="0.79956">
        <ele>88.6746381</ele>
        <time>2022-08-18T09:48:52Z</time>
      </trkpt>
      <trkpt lat="45.19791" lon="0.79959">
        <ele>89.0308952</ele>
        <time>2022-08-18T09:48:54Z</time>
      </trkpt>
      <trkpt lat="45.19782" lon="0.79963">
        <ele>88.7020651</ele>
        <time>2022-08-18T09:48:56Z</time>
      </trkpt>
      <trkpt lat="45.19774" lon="0.7997">
        <ele>88.0023629</ele>
        <time>2022-08-18T09:48:58Z</time>
      </trkpt>
      <trkpt lat="45.19766" lon="0.79977">
        <ele>88.0988653</ele>
        <time>2022-08-18T09:49:00Z</time>
      </trkpt>
      <trkpt lat="45.19758" lon="0.79987">
        <ele>87.9470762</ele>
        <time>2022-08-18T09:49:02Z</time>
      </trkpt>
      <trkpt lat="45.19751" lon="0.79997">
        <ele>87.9070021</ele>
        <time>2022-08-18T09:49:04Z</time>
      </trkpt>
      <trkpt lat="45.19745" lon="0.80008">
        <ele>88.19581</ele>
        <time>2022-08-18T09:49:06Z</time>
      </trkpt>
      <trkpt lat="45.1974" lon="0.8002">
        <ele>88.6796497</ele>
        <time>2022-08-18T09:49:08Z</time>
      </trkpt>
      <trkpt lat="45.19734" lon="0.80032">
        <ele>88.5079095</ele>
        <time>2022-08-18T09:49:10Z</time>
      </trkpt>
      <trkpt lat="45.1972" lon="0.80047">
        <ele>88.1369193</ele>
        <time>2022-08-18T09:49:13Z</time>
      </trkpt>
      <trkpt lat="45.1971" lon="0.80055">
        <ele>87.9718526</ele>
        <time>2022-08-18T09:49:15Z</time>
      </trkpt>
      <trkpt lat="45.197" lon="0.80063">
        <ele>88.1369822</ele>
        <time>2022-08-18T09:49:17Z</time>
      </trkpt>
      <trkpt lat="45.19689" lon="0.80066">
        <ele>87.7671604</ele>
        <time>2022-08-18T09:49:19Z</time>
      </trkpt>
      <trkpt lat="45.19677" lon="0.80066">
        <ele>87.7346674</ele>
        <time>2022-08-18T09:49:21Z</time>
      </trkpt>
      <trkpt lat="45.19671" lon="0.80067">
        <ele>87.7705669</ele>
        <time>2022-08-18T09:49:22Z</time>
      </trkpt>
      <trkpt lat="45.1966" lon="0.80068">
        <ele>87.9040349</ele>
        <time>2022-08-18T09:49:24Z</time>
      </trkpt>
      <trkpt lat="45.19647" lon="0.80067">
        <ele>87.2714429</ele>
        <time>2022-08-18T09:49:26Z</time>
      </trkpt>
      <trkpt lat="45.19635" lon="0.80066">
        <ele>87.6120495</ele>
        <time>2022-08-18T09:49:28Z</time>
      </trkpt>
      <trkpt lat="45.19624" lon="0.80065">
        <ele>87.4802552</ele>
        <time>2022-08-18T09:49:30Z</time>
      </trkpt>
      <trkpt lat="45.19612" lon="0.80065">
        <ele>87.7261516</ele>
        <time>2022-08-18T09:49:32Z</time>
      </trkpt>
      <trkpt lat="45.196" lon="0.80067">
        <ele>88.0523101</ele>
        <time>2022-08-18T09:49:34Z</time>
      </trkpt>
      <trkpt lat="45.19589" lon="0.8007">
        <ele>88.1823945</ele>
        <time>2022-08-18T09:49:36Z</time>
      </trkpt>
      <trkpt lat="45.19578" lon="0.80073">
        <ele>87.9385445</ele>
        <time>2022-08-18T09:49:38Z</time>
      </trkpt>
      <trkpt lat="45.19561" lon="0.80078">
        <ele>88.0675938</ele>
        <time>2022-08-18T09:49:41Z</time>
      </trkpt>
      <trkpt lat="45.1955" lon="0.8008">
        <ele>87.8104908</ele>
        <time>2022-08-18T09:49:43Z</time>
      </trkpt>
      <trkpt lat="45.19538" lon="0.80082">
        <ele>87.4954445</ele>
        <time>2022-08-18T09:49:45Z</time>
      </trkpt>
      <trkpt lat="45.19527" lon="0.80083">
        <ele>87.7781215</ele>
        <time>2022-08-18T09:49:47Z</time>
      </trkpt>
      <trkpt lat="45.19515" lon="0.80081">
        <ele>87.6454429</ele>
        <time>2022-08-18T09:49:49Z</time>
      </trkpt>
      <trkpt lat="45.19503" lon="0.80081">
        <ele>87.5430389</ele>
        <time>2022-08-18T09:49:51Z</time>
      </trkpt>
      <trkpt lat="45.19491" lon="0.8008">
        <ele>87.3516087</ele>
        <time>2022-08-18T09:49:53Z</time>
      </trkpt>
      <trkpt lat="45.19479" lon="0.80079">
        <ele>87.222615</ele>
        <time>2022-08-18T09:49:55Z</time>
      </trkpt>
      <trkpt lat="45.19468" lon="0.80077">
        <ele>87.0930792</ele>
        <time>2022-08-18T09:49:57Z</time>
      </trkpt>
      <trkpt lat="45.19457" lon="0.80076">
        <ele>86.9809135</ele>
        <time>2022-08-18T09:49:59Z</time>
      </trkpt>
      <trkpt lat="45.19446" lon="0.80075">
        <ele>87.0035329</ele>
        <time>2022-08-18T09:50:01Z</time>
      </trkpt>
      <trkpt lat="45.19436" lon="0.80075">
        <ele>87.2350663</ele>
        <time>2022-08-18T09:50:03Z</time>
      </trkpt>
      <trkpt lat="45.19425" lon="0.80075">
        <ele>87.1958441</ele>
        <time>2022-08-18T09:50:05Z</time>
      </trkpt>
      <trkpt lat="45.19414" lon="0.80075">
        <ele>86.7074573</ele>
        <time>2022-08-18T09:50:07Z</time>
      </trkpt>
      <trkpt lat="45.19403" lon="0.80076">
        <ele>86.9586379</ele>
        <time>2022-08-18T09:50:09Z</time>
      </trkpt>
      <trkpt lat="45.19393" lon="0.80076">
        <ele>87.20475</ele>
        <time>2022-08-18T09:50:11Z</time>
      </trkpt>
      <trkpt lat="45.19383" lon="0.80078">
        <ele>87.0047638</ele>
        <time>2022-08-18T09:50:13Z</time>
      </trkpt>
      <trkpt lat="45.19373" lon="0.8008">
        <ele>86.7312332</ele>
        <time>2022-08-18T09:50:15Z</time>
      </trkpt>
      <trkpt lat="45.19364" lon="0.80081">
        <ele>86.9867782</ele>
        <time>2022-08-18T09:50:17Z</time>
      </trkpt>
      <trkpt lat="45.19354" lon="0.80081">
        <ele>86.5756289</ele>
        <time>2022-08-18T09:50:19Z</time>
      </trkpt>
      <trkpt lat="45.19349" lon="0.80081">
        <ele>86.2072889</ele>
        <time>2022-08-18T09:50:20Z</time>
      </trkpt>
      <trkpt lat="45.1934" lon="0.8008">
        <ele>85.9782418</ele>
        <time>2022-08-18T09:50:22Z</time>
      </trkpt>
      <trkpt lat="45.1933" lon="0.80078">
        <ele>85.4329179</ele>
        <time>2022-08-18T09:50:24Z</time>
      </trkpt>
      <trkpt lat="45.19321" lon="0.80075">
        <ele>85.5733518</ele>
        <time>2022-08-18T09:50:26Z</time>
      </trkpt>
      <trkpt lat="45.19311" lon="0.8007">
        <ele>85.3719512</ele>
        <time>2022-08-18T09:50:28Z</time>
      </trkpt>
      <trkpt lat="45.19302" lon="0.80063">
        <ele>85.6336352</ele>
        <time>2022-08-18T09:50:30Z</time>
      </trkpt>
      <trkpt lat="45.19294" lon="0.80057">
        <ele>85.7464529</ele>
        <time>2022-08-18T09:50:32Z</time>
      </trkpt>
      <trkpt lat="45.19286" lon="0.80048">
        <ele>85.4386388</ele>
        <time>2022-08-18T09:50:34Z</time>
      </trkpt>
      <trkpt lat="45.19279" lon="0.8004">
        <ele>85.9361021</ele>
        <time>2022-08-18T09:50:36Z</time>
      </trkpt>
      <trkpt lat="45.19273" lon="0.80031">
        <ele>85.7451928</ele>
        <time>2022-08-18T09:50:38Z</time>
      </trkpt>
      <trkpt lat="45.19269" lon="0.80021">
        <ele>85.7748117</ele>
        <time>2022-08-18T09:50:40Z</time>
      </trkpt>
      <trkpt lat="45.19269" lon="0.80007">
        <ele>85.6723684</ele>
        <time>2022-08-18T09:50:42Z</time>
      </trkpt>
      <trkpt lat="45.19273" lon="0.79994">
        <ele>85.3634794</ele>
        <time>2022-08-18T09:50:44Z</time>
      </trkpt>
      <trkpt lat="45.19282" lon="0.79987">
        <ele>85.139064</ele>
        <time>2022-08-18T09:50:46Z</time>
      </trkpt>
      <trkpt lat="45.19292" lon="0.79981">
        <ele>84.7869024</ele>
        <time>2022-08-18T09:50:48Z</time>
      </trkpt>
      <trkpt lat="45.19297" lon="0.79969">
        <ele>84.9526429</ele>
        <time>2022-08-18T09:50:50Z</time>
      </trkpt>
      <trkpt lat="45.19299" lon="0.79955">
        <ele>85.0481843</ele>
        <time>2022-08-18T09:50:52Z</time>
      </trkpt>
      <trkpt lat="45.19298" lon="0.79942">
        <ele>84.9128226</ele>
        <time>2022-08-18T09:50:54Z</time>
      </trkpt>
      <trkpt lat="45.19295" lon="0.79929">
        <ele>84.389703</ele>
        <time>2022-08-18T09:50:56Z</time>
      </trkpt>
      <trkpt lat="45.19289" lon="0.79917">
        <ele>84.7582749</ele>
        <time>2022-08-18T09:50:58Z</time>
      </trkpt>
      <trkpt lat="45.19283" lon="0.79907">
        <ele>84.8716024</ele>
        <time>2022-08-18T09:51:00Z</time>
      </trkpt>
      <trkpt lat="45.19276" lon="0.79896">
        <ele>85.3483543</ele>
        <time>2022-08-18T09:51:02Z</time>
      </trkpt>
      <trkpt lat="45.1927" lon="0.79885">
        <ele>85.66476</ele>
        <time>2022-08-18T09:51:04Z</time>
      </trkpt>
      <trkpt lat="45.19265" lon="0.79874">
        <ele>86.2173418</ele>
        <time>2022-08-18T09:51:06Z</time>
      </trkpt>
      <trkpt lat="45.1926" lon="0.79864">
        <ele>86.3125582</ele>
        <time>2022-08-18T09:51:08Z</time>
      </trkpt>
      <trkpt lat="45.19252" lon="0.79855">
        <ele>86.4818398</ele>
        <time>2022-08-18T09:51:10Z</time>
      </trkpt>
      <trkpt lat="45.19245" lon="0.79847">
        <ele>87.0290292</ele>
        <time>2022-08-18T09:51:12Z</time>
      </trkpt>
      <trkpt lat="45.19237" lon="0.7984">
        <ele>86.8184895</ele>
        <time>2022-08-18T09:51:14Z</time>
      </trkpt>
      <trkpt lat="45.19229" lon="0.79837">
        <ele>86.7411941</ele>
        <time>2022-08-18T09:51:16Z</time>
      </trkpt>
      <trkpt lat="45.1922" lon="0.79826">
        <ele>86.5804204</ele>
        <time>2022-08-18T09:51:19Z</time>
      </trkpt>
      <trkpt lat="45.19215" lon="0.79819">
        <ele>86.2613673</ele>
        <time>2022-08-18T09:51:21Z</time>
      </trkpt>
      <trkpt lat="45.1921" lon="0.79809">
        <ele>85.6495418</ele>
        <time>2022-08-18T09:51:23Z</time>
      </trkpt>
      <trkpt lat="45.19208" lon="0.79799">
        <ele>85.556943</ele>
        <time>2022-08-18T09:51:25Z</time>
      </trkpt>
      <trkpt lat="45.19206" lon="0.79788">
        <ele>85.933391</ele>
        <time>2022-08-18T09:51:27Z</time>
      </trkpt>
      <trkpt lat="45.19204" lon="0.79777">
        <ele>85.7752105</ele>
        <time>2022-08-18T09:51:29Z</time>
      </trkpt>
      <trkpt lat="45.19202" lon="0.79765">
        <ele>86.1123817</ele>
        <time>2022-08-18T09:51:31Z</time>
      </trkpt>
      <trkpt lat="45.19199" lon="0.79753">
        <ele>86.1193129</ele>
        <time>2022-08-18T09:51:33Z</time>
      </trkpt>
      <trkpt lat="45.19197" lon="0.79742">
        <ele>86.6029915</ele>
        <time>2022-08-18T09:51:35Z</time>
      </trkpt>
      <trkpt lat="45.19196" lon="0.79732">
        <ele>85.5371803</ele>
        <time>2022-08-18T09:51:37Z</time>
      </trkpt>
      <trkpt lat="45.19194" lon="0.79719">
        <ele>85.0896259</ele>
        <time>2022-08-18T09:51:39Z</time>
      </trkpt>
      <trkpt lat="45.19193" lon="0.79713">
        <ele>85.2343591</ele>
        <time>2022-08-18T09:51:40Z</time>
      </trkpt>
      <trkpt lat="45.19191" lon="0.79701">
        <ele>85.0996285</ele>
        <time>2022-08-18T09:51:42Z</time>
      </trkpt>
      <trkpt lat="45.19188" lon="0.79687">
        <ele>85.9594417</ele>
        <time>2022-08-18T09:51:44Z</time>
      </trkpt>
      <trkpt lat="45.19186" lon="0.79675">
        <ele>85.7877442</ele>
        <time>2022-08-18T09:51:46Z</time>
      </trkpt>
      <trkpt lat="45.19182" lon="0.79663">
        <ele>85.4212958</ele>
        <time>2022-08-18T09:51:48Z</time>
      </trkpt>
      <trkpt lat="45.19179" lon="0.79651">
        <ele>85.9030428</ele>
        <time>2022-08-18T09:51:50Z</time>
      </trkpt>
      <trkpt lat="45.19176" lon="0.79639">
        <ele>85.7986068</ele>
        <time>2022-08-18T09:51:52Z</time>
      </trkpt>
      <trkpt lat="45.19174" lon="0.79627">
        <ele>85.8057545</ele>
        <time>2022-08-18T09:51:54Z</time>
      </trkpt>
      <trkpt lat="45.19172" lon="0.79615">
        <ele>85.9904056</ele>
        <time>2022-08-18T09:51:56Z</time>
      </trkpt>
      <trkpt lat="45.19169" lon="0.79603">
        <ele>85.8600276</ele>
        <time>2022-08-18T09:51:58Z</time>
      </trkpt>
      <trkpt lat="45.19166" lon="0.79592">
        <ele>85.5115915</ele>
        <time>2022-08-18T09:52:00Z</time>
      </trkpt>
      <trkpt lat="45.19163" lon="0.79579">
        <ele>85.1632495</ele>
        <time>2022-08-18T09:52:02Z</time>
      </trkpt>
      <trkpt lat="45.1916" lon="0.79566">
        <ele>85.5912174</ele>
        <time>2022-08-18T09:52:04Z</time>
      </trkpt>
      <trkpt lat="45.19157" lon="0.79555">
        <ele>86.2287908</ele>
        <time>2022-08-18T09:52:06Z</time>
      </trkpt>
      <trkpt lat="45.19156" lon="0.79546">
        <ele>86.1934538</ele>
        <time>2022-08-18T09:52:08Z</time>
      </trkpt>
      <trkpt lat="45.19156" lon="0.79539">
        <ele>86.6722161</ele>
        <time>2022-08-18T09:52:10Z</time>
      </trkpt>
      <trkpt lat="45.19156" lon="0.79532">
        <ele>86.7718838</ele>
        <time>2022-08-18T09:52:12Z</time>
      </trkpt>
      <trkpt lat="45.19154" lon="0.79524">
        <ele>86.3877962</ele>
        <time>2022-08-18T09:52:14Z</time>
      </trkpt>
      <trkpt lat="45.19152" lon="0.79514">
        <ele>86.2844207</ele>
        <time>2022-08-18T09:52:16Z</time>
      </trkpt>
      <trkpt lat="45.19148" lon="0.79503">
        <ele>86.7080208</ele>
        <time>2022-08-18T09:52:18Z</time>
      </trkpt>
      <trkpt lat="45.19145" lon="0.79491">
        <ele>86.6090497</ele>
        <time>2022-08-18T09:52:20Z</time>
      </trkpt>
      <trkpt lat="45.19142" lon="0.79479">
        <ele>86.3945607</ele>
        <time>2022-08-18T09:52:22Z</time>
      </trkpt>
      <trkpt lat="45.19139" lon="0.79467">
        <ele>86.4748019</ele>
        <time>2022-08-18T09:52:24Z</time>
      </trkpt>
      <trkpt lat="45.19136" lon="0.79456">
        <ele>86.2778217</ele>
        <time>2022-08-18T09:52:26Z</time>
      </trkpt>
      <trkpt lat="45.19133" lon="0.79444">
        <ele>86.4917143</ele>
        <time>2022-08-18T09:52:28Z</time>
      </trkpt>
      <trkpt lat="45.1913" lon="0.79432">
        <ele>87.1143544</ele>
        <time>2022-08-18T09:52:30Z</time>
      </trkpt>
      <trkpt lat="45.19127" lon="0.7942">
        <ele>87.3422965</ele>
        <time>2022-08-18T09:52:32Z</time>
      </trkpt>
      <trkpt lat="45.19124" lon="0.79408">
        <ele>86.9473757</ele>
        <time>2022-08-18T09:52:34Z</time>
      </trkpt>
      <trkpt lat="45.1912" lon="0.79395">
        <ele>87.0234026</ele>
        <time>2022-08-18T09:52:36Z</time>
      </trkpt>
      <trkpt lat="45.19117" lon="0.79383">
        <ele>86.3530964</ele>
        <time>2022-08-18T09:52:38Z</time>
      </trkpt>
      <trkpt lat="45.19114" lon="0.7937">
        <ele>86.2478874</ele>
        <time>2022-08-18T09:52:40Z</time>
      </trkpt>
      <trkpt lat="45.19111" lon="0.79358">
        <ele>86.4888602</ele>
        <time>2022-08-18T09:52:42Z</time>
      </trkpt>
      <trkpt lat="45.19108" lon="0.79346">
        <ele>86.4522678</ele>
        <time>2022-08-18T09:52:44Z</time>
      </trkpt>
      <trkpt lat="45.19106" lon="0.79334">
        <ele>86.1754578</ele>
        <time>2022-08-18T09:52:46Z</time>
      </trkpt>
      <trkpt lat="45.19104" lon="0.79322">
        <ele>85.4831732</ele>
        <time>2022-08-18T09:52:48Z</time>
      </trkpt>
      <trkpt lat="45.19101" lon="0.79309">
        <ele>84.5704562</ele>
        <time>2022-08-18T09:52:50Z</time>
      </trkpt>
      <trkpt lat="45.19099" lon="0.79296">
        <ele>83.7570701</ele>
        <time>2022-08-18T09:52:52Z</time>
      </trkpt>
      <trkpt lat="45.19096" lon="0.79284">
        <ele>83.3508491</ele>
        <time>2022-08-18T09:52:54Z</time>
      </trkpt>
      <trkpt lat="45.19094" lon="0.79273">
        <ele>83.1788617</ele>
        <time>2022-08-18T09:52:56Z</time>
      </trkpt>
      <trkpt lat="45.19091" lon="0.7926">
        <ele>83.6172931</ele>
        <time>2022-08-18T09:52:58Z</time>
      </trkpt>
      <trkpt lat="45.1909" lon="0.79248">
        <ele>83.7999657</ele>
        <time>2022-08-18T09:53:00Z</time>
      </trkpt>
      <trkpt lat="45.19087" lon="0.79235">
        <ele>84.3158367</ele>
        <time>2022-08-18T09:53:02Z</time>
      </trkpt>
      <trkpt lat="45.19084" lon="0.79223">
        <ele>84.1845469</ele>
        <time>2022-08-18T09:53:04Z</time>
      </trkpt>
      <trkpt lat="45.19083" lon="0.79211">
        <ele>84.6787258</ele>
        <time>2022-08-18T09:53:06Z</time>
      </trkpt>
      <trkpt lat="45.19081" lon="0.79199">
        <ele>85.1788954</ele>
        <time>2022-08-18T09:53:08Z</time>
      </trkpt>
      <trkpt lat="45.19078" lon="0.79186">
        <ele>85.0154134</ele>
        <time>2022-08-18T09:53:10Z</time>
      </trkpt>
      <trkpt lat="45.19075" lon="0.79175">
        <ele>85.8548032</ele>
        <time>2022-08-18T09:53:12Z</time>
      </trkpt>
      <trkpt lat="45.19073" lon="0.79163">
        <ele>86.1514526</ele>
        <time>2022-08-18T09:53:14Z</time>
      </trkpt>
      <trkpt lat="45.19073" lon="0.7915">
        <ele>84.9163696</ele>
        <time>2022-08-18T09:53:16Z</time>
      </trkpt>
      <trkpt lat="45.1907" lon="0.79137">
        <ele>86.1542875</ele>
        <time>2022-08-18T09:53:18Z</time>
      </trkpt>
      <trkpt lat="45.19067" lon="0.79125">
        <ele>86.6921133</ele>
        <time>2022-08-18T09:53:20Z</time>
      </trkpt>
      <trkpt lat="45.19064" lon="0.79112">
        <ele>86.5430234</ele>
        <time>2022-08-18T09:53:22Z</time>
      </trkpt>
      <trkpt lat="45.19061" lon="0.79099">
        <ele>86.4111094</ele>
        <time>2022-08-18T09:53:24Z</time>
      </trkpt>
      <trkpt lat="45.19058" lon="0.79087">
        <ele>86.4505034</ele>
        <time>2022-08-18T09:53:26Z</time>
      </trkpt>
      <trkpt lat="45.19057" lon="0.79074">
        <ele>86.6705391</ele>
        <time>2022-08-18T09:53:28Z</time>
      </trkpt>
      <trkpt lat="45.19056" lon="0.7906">
        <ele>86.6461385</ele>
        <time>2022-08-18T09:53:30Z</time>
      </trkpt>
      <trkpt lat="45.19055" lon="0.79047">
        <ele>86.8507929</ele>
        <time>2022-08-18T09:53:32Z</time>
      </trkpt>
      <trkpt lat="45.19054" lon="0.79034">
        <ele>87.8594426</ele>
        <time>2022-08-18T09:53:34Z</time>
      </trkpt>
      <trkpt lat="45.19052" lon="0.7902">
        <ele>87.9029472</ele>
        <time>2022-08-18T09:53:36Z</time>
      </trkpt>
      <trkpt lat="45.1905" lon="0.79007">
        <ele>87.8661009</ele>
        <time>2022-08-18T09:53:38Z</time>
      </trkpt>
      <trkpt lat="45.19049" lon="0.78995">
        <ele>87.8783433</ele>
        <time>2022-08-18T09:53:40Z</time>
      </trkpt>
      <trkpt lat="45.19048" lon="0.78983">
        <ele>87.9769908</ele>
        <time>2022-08-18T09:53:42Z</time>
      </trkpt>
      <trkpt lat="45.19048" lon="0.78971">
        <ele>87.9648017</ele>
        <time>2022-08-18T09:53:44Z</time>
      </trkpt>
      <trkpt lat="45.19047" lon="0.78959">
        <ele>88.1287608</ele>
        <time>2022-08-18T09:53:46Z</time>
      </trkpt>
      <trkpt lat="45.19048" lon="0.78947">
        <ele>88.400264</ele>
        <time>2022-08-18T09:53:48Z</time>
      </trkpt>
      <trkpt lat="45.19048" lon="0.78937">
        <ele>87.9586451</ele>
        <time>2022-08-18T09:53:50Z</time>
      </trkpt>
      <trkpt lat="45.19044" lon="0.78925">
        <ele>88.0559934</ele>
        <time>2022-08-18T09:53:52Z</time>
      </trkpt>
      <trkpt lat="45.1904" lon="0.78914">
        <ele>87.6405453</ele>
        <time>2022-08-18T09:53:54Z</time>
      </trkpt>
      <trkpt lat="45.19031" lon="0.78906">
        <ele>87.6779821</ele>
        <time>2022-08-18T09:53:56Z</time>
      </trkpt>
      <trkpt lat="45.19024" lon="0.78896">
        <ele>88.6331307</ele>
        <time>2022-08-18T09:53:58Z</time>
      </trkpt>
      <trkpt lat="45.19021" lon="0.78883">
        <ele>88.5571264</ele>
        <time>2022-08-18T09:54:00Z</time>
      </trkpt>
      <trkpt lat="45.19019" lon="0.7887">
        <ele>88.7388152</ele>
        <time>2022-08-18T09:54:02Z</time>
      </trkpt>
      <trkpt lat="45.19016" lon="0.78858">
        <ele>88.6022742</ele>
        <time>2022-08-18T09:54:04Z</time>
      </trkpt>
      <trkpt lat="45.19014" lon="0.78846">
        <ele>88.0481565</ele>
        <time>2022-08-18T09:54:06Z</time>
      </trkpt>
      <trkpt lat="45.19012" lon="0.78833">
        <ele>88.4312607</ele>
        <time>2022-08-18T09:54:08Z</time>
      </trkpt>
      <trkpt lat="45.1901" lon="0.78821">
        <ele>87.9610838</ele>
        <time>2022-08-18T09:54:10Z</time>
      </trkpt>
      <trkpt lat="45.19008" lon="0.78808">
        <ele>87.6906154</ele>
        <time>2022-08-18T09:54:12Z</time>
      </trkpt>
      <trkpt lat="45.19006" lon="0.78795">
        <ele>87.6609575</ele>
        <time>2022-08-18T09:54:14Z</time>
      </trkpt>
      <trkpt lat="45.19004" lon="0.78782">
        <ele>87.767871</ele>
        <time>2022-08-18T09:54:16Z</time>
      </trkpt>
      <trkpt lat="45.19002" lon="0.78768">
        <ele>87.5756025</ele>
        <time>2022-08-18T09:54:18Z</time>
      </trkpt>
      <trkpt lat="45.19" lon="0.78755">
        <ele>87.2435717</ele>
        <time>2022-08-18T09:54:20Z</time>
      </trkpt>
      <trkpt lat="45.18998" lon="0.78742">
        <ele>87.0728621</ele>
        <time>2022-08-18T09:54:22Z</time>
      </trkpt>
      <trkpt lat="45.18996" lon="0.78728">
        <ele>87.3808943</ele>
        <time>2022-08-18T09:54:24Z</time>
      </trkpt>
      <trkpt lat="45.18993" lon="0.78715">
        <ele>87.1661874</ele>
        <time>2022-08-18T09:54:26Z</time>
      </trkpt>
      <trkpt lat="45.18991" lon="0.78701">
        <ele>87.2287551</ele>
        <time>2022-08-18T09:54:28Z</time>
      </trkpt>
      <trkpt lat="45.18989" lon="0.78688">
        <ele>87.4430828</ele>
        <time>2022-08-18T09:54:30Z</time>
      </trkpt>
      <trkpt lat="45.18987" lon="0.78674">
        <ele>87.5612003</ele>
        <time>2022-08-18T09:54:32Z</time>
      </trkpt>
      <trkpt lat="45.18985" lon="0.78662">
        <ele>86.772696</ele>
        <time>2022-08-18T09:54:34Z</time>
      </trkpt>
      <trkpt lat="45.18984" lon="0.78648">
        <ele>86.8593613</ele>
        <time>2022-08-18T09:54:36Z</time>
      </trkpt>
      <trkpt lat="45.18982" lon="0.78635">
        <ele>87.131562</ele>
        <time>2022-08-18T09:54:38Z</time>
      </trkpt>
      <trkpt lat="45.1898" lon="0.78622">
        <ele>87.3429129</ele>
        <time>2022-08-18T09:54:40Z</time>
      </trkpt>
      <trkpt lat="45.18979" lon="0.78611">
        <ele>87.5685877</ele>
        <time>2022-08-18T09:54:42Z</time>
      </trkpt>
      <trkpt lat="45.18978" lon="0.78602">
        <ele>87.9816426</ele>
        <time>2022-08-18T09:54:44Z</time>
      </trkpt>
      <trkpt lat="45.18976" lon="0.78595">
        <ele>88.1147462</ele>
        <time>2022-08-18T09:54:46Z</time>
      </trkpt>
      <trkpt lat="45.18975" lon="0.78588">
        <ele>87.5667967</ele>
        <time>2022-08-18T09:54:48Z</time>
      </trkpt>
      <trkpt lat="45.18974" lon="0.78578">
        <ele>87.372886</ele>
        <time>2022-08-18T09:54:50Z</time>
      </trkpt>
      <trkpt lat="45.18973" lon="0.78566">
        <ele>86.0285733</ele>
        <time>2022-08-18T09:54:52Z</time>
      </trkpt>
      <trkpt lat="45.1897" lon="0.78553">
        <ele>86.228575</ele>
        <time>2022-08-18T09:54:54Z</time>
      </trkpt>
      <trkpt lat="45.18969" lon="0.7854">
        <ele>86.3872743</ele>
        <time>2022-08-18T09:54:56Z</time>
      </trkpt>
      <trkpt lat="45.18967" lon="0.78527">
        <ele>86.5051697</ele>
        <time>2022-08-18T09:54:58Z</time>
      </trkpt>
      <trkpt lat="45.18965" lon="0.78514">
        <ele>86.2353284</ele>
        <time>2022-08-18T09:55:00Z</time>
      </trkpt>
      <trkpt lat="45.18963" lon="0.785">
        <ele>86.0865913</ele>
        <time>2022-08-18T09:55:02Z</time>
      </trkpt>
      <trkpt lat="45.18961" lon="0.78487">
        <ele>85.446721</ele>
        <time>2022-08-18T09:55:04Z</time>
      </trkpt>
      <trkpt lat="45.18959" lon="0.78475">
        <ele>85.5257367</ele>
        <time>2022-08-18T09:55:06Z</time>
      </trkpt>
      <trkpt lat="45.18957" lon="0.78463">
        <ele>85.1224284</ele>
        <time>2022-08-18T09:55:08Z</time>
      </trkpt>
      <trkpt lat="45.18955" lon="0.78451">
        <ele>85.2774154</ele>
        <time>2022-08-18T09:55:10Z</time>
      </trkpt>
      <trkpt lat="45.18954" lon="0.7844">
        <ele>85.245638</ele>
        <time>2022-08-18T09:55:12Z</time>
      </trkpt>
      <trkpt lat="45.18953" lon="0.78426">
        <ele>85.4419033</ele>
        <time>2022-08-18T09:55:14Z</time>
      </trkpt>
      <trkpt lat="45.18952" lon="0.78414">
        <ele>85.5579228</ele>
        <time>2022-08-18T09:55:16Z</time>
      </trkpt>
      <trkpt lat="45.18951" lon="0.78402">
        <ele>85.5035717</ele>
        <time>2022-08-18T09:55:18Z</time>
      </trkpt>
      <trkpt lat="45.18951" lon="0.78389">
        <ele>85.3728474</ele>
        <time>2022-08-18T09:55:20Z</time>
      </trkpt>
      <trkpt lat="45.1895" lon="0.78378">
        <ele>85.4147976</ele>
        <time>2022-08-18T09:55:22Z</time>
      </trkpt>
      <trkpt lat="45.1895" lon="0.78365">
        <ele>85.5625059</ele>
        <time>2022-08-18T09:55:24Z</time>
      </trkpt>
      <trkpt lat="45.1895" lon="0.78351">
        <ele>85.666897</ele>
        <time>2022-08-18T09:55:26Z</time>
      </trkpt>
      <trkpt lat="45.1895" lon="0.78339">
        <ele>85.6621072</ele>
        <time>2022-08-18T09:55:28Z</time>
      </trkpt>
      <trkpt lat="45.1895" lon="0.78327">
        <ele>85.9138868</ele>
        <time>2022-08-18T09:55:30Z</time>
      </trkpt>
      <trkpt lat="45.1895" lon="0.78315">
        <ele>86.1692843</ele>
        <time>2022-08-18T09:55:32Z</time>
      </trkpt>
      <trkpt lat="45.1895" lon="0.78304">
        <ele>85.5835576</ele>
        <time>2022-08-18T09:55:34Z</time>
      </trkpt>
      <trkpt lat="45.1895" lon="0.78293">
        <ele>86.1210756</ele>
        <time>2022-08-18T09:55:36Z</time>
      </trkpt>
      <trkpt lat="45.1895" lon="0.78283">
        <ele>85.5074871</ele>
        <time>2022-08-18T09:55:38Z</time>
      </trkpt>
      <trkpt lat="45.1895" lon="0.78275">
        <ele>85.590413</ele>
        <time>2022-08-18T09:55:40Z</time>
      </trkpt>
      <trkpt lat="45.1895" lon="0.78267">
        <ele>86.0515401</ele>
        <time>2022-08-18T09:55:42Z</time>
      </trkpt>
      <trkpt lat="45.1895" lon="0.78259">
        <ele>86.8362066</ele>
        <time>2022-08-18T09:55:44Z</time>
      </trkpt>
      <trkpt lat="45.18949" lon="0.78249">
        <ele>86.2339388</ele>
        <time>2022-08-18T09:55:46Z</time>
      </trkpt>
      <trkpt lat="45.18948" lon="0.7824">
        <ele>86.4544992</ele>
        <time>2022-08-18T09:55:48Z</time>
      </trkpt>
      <trkpt lat="45.18947" lon="0.78229">
        <ele>86.2988732</ele>
        <time>2022-08-18T09:55:50Z</time>
      </trkpt>
      <trkpt lat="45.18947" lon="0.7822">
        <ele>85.876728</ele>
        <time>2022-08-18T09:55:52Z</time>
      </trkpt>
      <trkpt lat="45.18947" lon="0.78211">
        <ele>85.4200953</ele>
        <time>2022-08-18T09:55:54Z</time>
      </trkpt>
      <trkpt lat="45.18947" lon="0.78202">
        <ele>84.9917114</ele>
        <time>2022-08-18T09:55:56Z</time>
      </trkpt>
      <trkpt lat="45.18948" lon="0.78193">
        <ele>84.9605874</ele>
        <time>2022-08-18T09:55:58Z</time>
      </trkpt>
      <trkpt lat="45.18952" lon="0.78181">
        <ele>85.2809252</ele>
        <time>2022-08-18T09:56:01Z</time>
      </trkpt>
      <trkpt lat="45.18955" lon="0.78171">
        <ele>85.9007835</ele>
        <time>2022-08-18T09:56:03Z</time>
      </trkpt>
      <trkpt lat="45.18958" lon="0.78164">
        <ele>84.6286348</ele>
        <time>2022-08-18T09:56:05Z</time>
      </trkpt>
      <trkpt lat="45.18961" lon="0.78156">
        <ele>83.8641007</ele>
        <time>2022-08-18T09:56:07Z</time>
      </trkpt>
      <trkpt lat="45.18964" lon="0.78148">
        <ele>82.027413</ele>
        <time>2022-08-18T09:56:09Z</time>
      </trkpt>
      <trkpt lat="45.18967" lon="0.78137">
        <ele>83.5719017</ele>
        <time>2022-08-18T09:56:11Z</time>
      </trkpt>
      <trkpt lat="45.18963" lon="0.78125">
        <ele>83.5163589</ele>
        <time>2022-08-18T09:56:13Z</time>
      </trkpt>
      <trkpt lat="45.18956" lon="0.78111">
        <ele>83.0833953</ele>
        <time>2022-08-18T09:56:15Z</time>
      </trkpt>
      <trkpt lat="45.18947" lon="0.78097">
        <ele>82.7568646</ele>
        <time>2022-08-18T09:56:17Z</time>
      </trkpt>
      <trkpt lat="45.18956" lon="0.78091">
        <ele>83.3579126</ele>
        <time>2022-08-18T09:56:19Z</time>
      </trkpt>
      <trkpt lat="45.18956" lon="0.78079">
        <ele>83.8038595</ele>
        <time>2022-08-18T09:56:21Z</time>
      </trkpt>
      <trkpt lat="45.18957" lon="0.78067">
        <ele>84.1205784</ele>
        <time>2022-08-18T09:56:23Z</time>
      </trkpt>
      <trkpt lat="45.18958" lon="0.78055">
        <ele>84.2739098</ele>
        <time>2022-08-18T09:56:25Z</time>
      </trkpt>
      <trkpt lat="45.18958" lon="0.78043">
        <ele>84.4783003</ele>
        <time>2022-08-18T09:56:27Z</time>
      </trkpt>
      <trkpt lat="45.18958" lon="0.78032">
        <ele>84.6345981</ele>
        <time>2022-08-18T09:56:29Z</time>
      </trkpt>
      <trkpt lat="45.1896" lon="0.78019">
        <ele>85.2984714</ele>
        <time>2022-08-18T09:56:31Z</time>
      </trkpt>
      <trkpt lat="45.1896" lon="0.78006">
        <ele>85.3183835</ele>
        <time>2022-08-18T09:56:33Z</time>
      </trkpt>
      <trkpt lat="45.18961" lon="0.77994">
        <ele>85.8083783</ele>
        <time>2022-08-18T09:56:35Z</time>
      </trkpt>
      <trkpt lat="45.18961" lon="0.77988">
        <ele>85.7807611</ele>
        <time>2022-08-18T09:56:36Z</time>
      </trkpt>
      <trkpt lat="45.18961" lon="0.77978">
        <ele>85.3601468</ele>
        <time>2022-08-18T09:56:38Z</time>
      </trkpt>
      <trkpt lat="45.18961" lon="0.77965">
        <ele>85.3437684</ele>
        <time>2022-08-18T09:56:40Z</time>
      </trkpt>
      <trkpt lat="45.18961" lon="0.77953">
        <ele>85.2917327</ele>
        <time>2022-08-18T09:56:42Z</time>
      </trkpt>
      <trkpt lat="45.18962" lon="0.77941">
        <ele>85.5494592</ele>
        <time>2022-08-18T09:56:44Z</time>
      </trkpt>
      <trkpt lat="45.18962" lon="0.77928">
        <ele>84.7369382</ele>
        <time>2022-08-18T09:56:46Z</time>
      </trkpt>
      <trkpt lat="45.18962" lon="0.77916">
        <ele>84.7599903</ele>
        <time>2022-08-18T09:56:48Z</time>
      </trkpt>
      <trkpt lat="45.18963" lon="0.77903">
        <ele>84.7414873</ele>
        <time>2022-08-18T09:56:50Z</time>
      </trkpt>
      <trkpt lat="45.18965" lon="0.7789">
        <ele>84.9891554</ele>
        <time>2022-08-18T09:56:52Z</time>
      </trkpt>
      <trkpt lat="45.18968" lon="0.77876">
        <ele>85.0010764</ele>
        <time>2022-08-18T09:56:54Z</time>
      </trkpt>
      <trkpt lat="45.18973" lon="0.77865">
        <ele>85.0272175</ele>
        <time>2022-08-18T09:56:56Z</time>
      </trkpt>
      <trkpt lat="45.18976" lon="0.77853">
        <ele>84.6135697</ele>
        <time>2022-08-18T09:56:58Z</time>
      </trkpt>
      <trkpt lat="45.18981" lon="0.7784">
        <ele>84.6884326</ele>
        <time>2022-08-18T09:57:00Z</time>
      </trkpt>
      <trkpt lat="45.18984" lon="0.77829">
        <ele>85.0110791</ele>
        <time>2022-08-18T09:57:02Z</time>
      </trkpt>
      <trkpt lat="45.18985" lon="0.77817">
        <ele>84.9338327</ele>
        <time>2022-08-18T09:57:04Z</time>
      </trkpt>
      <trkpt lat="45.18986" lon="0.77806">
        <ele>84.8636368</ele>
        <time>2022-08-18T09:57:06Z</time>
      </trkpt>
      <trkpt lat="45.18987" lon="0.77794">
        <ele>84.7865944</ele>
        <time>2022-08-18T09:57:08Z</time>
      </trkpt>
      <trkpt lat="45.18988" lon="0.77783">
        <ele>85.0311593</ele>
        <time>2022-08-18T09:57:10Z</time>
      </trkpt>
      <trkpt lat="45.18991" lon="0.77771">
        <ele>84.8863554</ele>
        <time>2022-08-18T09:57:12Z</time>
      </trkpt>
      <trkpt lat="45.18994" lon="0.77758">
        <ele>85.0378655</ele>
        <time>2022-08-18T09:57:14Z</time>
      </trkpt>
      <trkpt lat="45.18997" lon="0.77745">
        <ele>85.1721427</ele>
        <time>2022-08-18T09:57:16Z</time>
      </trkpt>
      <trkpt lat="45.19001" lon="0.77733">
        <ele>85.1020343</ele>
        <time>2022-08-18T09:57:18Z</time>
      </trkpt>
      <trkpt lat="45.19007" lon="0.77721">
        <ele>85.2192943</ele>
        <time>2022-08-18T09:57:20Z</time>
      </trkpt>
      <trkpt lat="45.19012" lon="0.77709">
        <ele>85.3630719</ele>
        <time>2022-08-18T09:57:22Z</time>
      </trkpt>
      <trkpt lat="45.19017" lon="0.77697">
        <ele>85.095794</ele>
        <time>2022-08-18T09:57:24Z</time>
      </trkpt>
      <trkpt lat="45.19022" lon="0.77685">
        <ele>85.5451877</ele>
        <time>2022-08-18T09:57:26Z</time>
      </trkpt>
      <trkpt lat="45.19026" lon="0.77672">
        <ele>85.0596065</ele>
        <time>2022-08-18T09:57:28Z</time>
      </trkpt>
      <trkpt lat="45.1903" lon="0.77659">
        <ele>84.8153724</ele>
        <time>2022-08-18T09:57:30Z</time>
      </trkpt>
      <trkpt lat="45.19034" lon="0.77646">
        <ele>84.5741175</ele>
        <time>2022-08-18T09:57:32Z</time>
      </trkpt>
      <trkpt lat="45.19036" lon="0.77632">
        <ele>83.8246612</ele>
        <time>2022-08-18T09:57:34Z</time>
      </trkpt>
      <trkpt lat="45.19039" lon="0.77612">
        <ele>83.8616885</ele>
        <time>2022-08-18T09:57:37Z</time>
      </trkpt>
      <trkpt lat="45.19041" lon="0.77598">
        <ele>84.1018819</ele>
        <time>2022-08-18T09:57:39Z</time>
      </trkpt>
      <trkpt lat="45.19044" lon="0.77585">
        <ele>83.9762734</ele>
        <time>2022-08-18T09:57:41Z</time>
      </trkpt>
      <trkpt lat="45.19045" lon="0.77571">
        <ele>84.2183377</ele>
        <time>2022-08-18T09:57:43Z</time>
      </trkpt>
      <trkpt lat="45.19046" lon="0.77556">
        <ele>84.5845384</ele>
        <time>2022-08-18T09:57:45Z</time>
      </trkpt>
      <trkpt lat="45.19048" lon="0.77543">
        <ele>83.9531562</ele>
        <time>2022-08-18T09:57:47Z</time>
      </trkpt>
      <trkpt lat="45.19048" lon="0.77529">
        <ele>83.7062726</ele>
        <time>2022-08-18T09:57:49Z</time>
      </trkpt>
      <trkpt lat="45.19049" lon="0.77516">
        <ele>84.2928377</ele>
        <time>2022-08-18T09:57:51Z</time>
      </trkpt>
      <trkpt lat="45.19051" lon="0.77509">
        <ele>83.8417653</ele>
        <time>2022-08-18T09:57:53Z</time>
      </trkpt>
      <trkpt lat="45.19051" lon="0.77499">
        <ele>83.3289869</ele>
        <time>2022-08-18T09:57:55Z</time>
      </trkpt>
      <trkpt lat="45.19053" lon="0.77484">
        <ele>83.8962275</ele>
        <time>2022-08-18T09:57:57Z</time>
      </trkpt>
      <trkpt lat="45.19055" lon="0.77471">
        <ele>83.876038</ele>
        <time>2022-08-18T09:57:59Z</time>
      </trkpt>
      <trkpt lat="45.19056" lon="0.77458">
        <ele>84.9975417</ele>
        <time>2022-08-18T09:58:01Z</time>
      </trkpt>
      <trkpt lat="45.19057" lon="0.77447">
        <ele>85.6362349</ele>
        <time>2022-08-18T09:58:03Z</time>
      </trkpt>
      <trkpt lat="45.19059" lon="0.77436">
        <ele>85.7659839</ele>
        <time>2022-08-18T09:58:05Z</time>
      </trkpt>
      <trkpt lat="45.19062" lon="0.77426">
        <ele>86.4253164</ele>
        <time>2022-08-18T09:58:07Z</time>
      </trkpt>
      <trkpt lat="45.19065" lon="0.77414">
        <ele>86.7372132</ele>
        <time>2022-08-18T09:58:09Z</time>
      </trkpt>
      <trkpt lat="45.19067" lon="0.77403">
        <ele>85.9900356</ele>
        <time>2022-08-18T09:58:11Z</time>
      </trkpt>
      <trkpt lat="45.19068" lon="0.77389">
        <ele>85.7567478</ele>
        <time>2022-08-18T09:58:13Z</time>
      </trkpt>
      <trkpt lat="45.19067" lon="0.77372">
        <ele>85.7371371</ele>
        <time>2022-08-18T09:58:15Z</time>
      </trkpt>
      <trkpt lat="45.19065" lon="0.7736">
        <ele>85.0131684</ele>
        <time>2022-08-18T09:58:17Z</time>
      </trkpt>
      <trkpt lat="45.19063" lon="0.77344">
        <ele>85.7561039</ele>
        <time>2022-08-18T09:58:19Z</time>
      </trkpt>
      <trkpt lat="45.19061" lon="0.77332">
        <ele>85.1829163</ele>
        <time>2022-08-18T09:58:21Z</time>
      </trkpt>
      <trkpt lat="45.19059" lon="0.77318">
        <ele>85.9152114</ele>
        <time>2022-08-18T09:58:23Z</time>
      </trkpt>
      <trkpt lat="45.19057" lon="0.77304">
        <ele>85.424522</ele>
        <time>2022-08-18T09:58:25Z</time>
      </trkpt>
      <trkpt lat="45.19056" lon="0.77297">
        <ele>85.0901899</ele>
        <time>2022-08-18T09:58:26Z</time>
      </trkpt>
      <trkpt lat="45.19056" lon="0.77283">
        <ele>85.3154172</ele>
        <time>2022-08-18T09:58:28Z</time>
      </trkpt>
      <trkpt lat="45.19057" lon="0.77271">
        <ele>85.6350328</ele>
        <time>2022-08-18T09:58:30Z</time>
      </trkpt>
      <trkpt lat="45.19056" lon="0.77256">
        <ele>86.0895835</ele>
        <time>2022-08-18T09:58:32Z</time>
      </trkpt>
      <trkpt lat="45.19058" lon="0.77244">
        <ele>87.3529771</ele>
        <time>2022-08-18T09:58:34Z</time>
      </trkpt>
      <trkpt lat="45.19058" lon="0.77233">
        <ele>87.1854406</ele>
        <time>2022-08-18T09:58:36Z</time>
      </trkpt>
      <trkpt lat="45.1906" lon="0.77224">
        <ele>86.041393</ele>
        <time>2022-08-18T09:58:38Z</time>
      </trkpt>
      <trkpt lat="45.1906" lon="0.77213">
        <ele>86.4280455</ele>
        <time>2022-08-18T09:58:40Z</time>
      </trkpt>
      <trkpt lat="45.19061" lon="0.77201">
        <ele>85.6187989</ele>
        <time>2022-08-18T09:58:42Z</time>
      </trkpt>
      <trkpt lat="45.1906" lon="0.77188">
        <ele>86.108148</ele>
        <time>2022-08-18T09:58:44Z</time>
      </trkpt>
      <trkpt lat="45.19061" lon="0.77175">
        <ele>85.0525248</ele>
        <time>2022-08-18T09:58:46Z</time>
      </trkpt>
      <trkpt lat="45.19061" lon="0.77161">
        <ele>84.0117005</ele>
        <time>2022-08-18T09:58:48Z</time>
      </trkpt>
      <trkpt lat="45.19059" lon="0.7715">
        <ele>84.8203124</ele>
        <time>2022-08-18T09:58:50Z</time>
      </trkpt>
      <trkpt lat="45.19057" lon="0.77138">
        <ele>84.8920978</ele>
        <time>2022-08-18T09:58:52Z</time>
      </trkpt>
      <trkpt lat="45.19054" lon="0.77128">
        <ele>86.41158</ele>
        <time>2022-08-18T09:58:54Z</time>
      </trkpt>
      <trkpt lat="45.19052" lon="0.77116">
        <ele>87.1147426</ele>
        <time>2022-08-18T09:58:56Z</time>
      </trkpt>
      <trkpt lat="45.19049" lon="0.77104">
        <ele>88.4169463</ele>
        <time>2022-08-18T09:58:58Z</time>
      </trkpt>
      <trkpt lat="45.19047" lon="0.77093">
        <ele>87.9439043</ele>
        <time>2022-08-18T09:59:00Z</time>
      </trkpt>
      <trkpt lat="45.19043" lon="0.77082">
        <ele>88.1799157</ele>
        <time>2022-08-18T09:59:02Z</time>
      </trkpt>
      <trkpt lat="45.1904" lon="0.77069">
        <ele>89.5611772</ele>
        <time>2022-08-18T09:59:04Z</time>
      </trkpt>
      <trkpt lat="45.19039" lon="0.77056">
        <ele>89.4729458</ele>
        <time>2022-08-18T09:59:06Z</time>
      </trkpt>
      <trkpt lat="45.19038" lon="0.77044">
        <ele>89.3255211</ele>
        <time>2022-08-18T09:59:08Z</time>
      </trkpt>
      <trkpt lat="45.19036" lon="0.77033">
        <ele>88.4389728</ele>
        <time>2022-08-18T09:59:10Z</time>
      </trkpt>
      <trkpt lat="45.19033" lon="0.77024">
        <ele>88.2066128</ele>
        <time>2022-08-18T09:59:12Z</time>
      </trkpt>
      <trkpt lat="45.19027" lon="0.77014">
        <ele>87.9219233</ele>
        <time>2022-08-18T09:59:14Z</time>
      </trkpt>
      <trkpt lat="45.19021" lon="0.77006">
        <ele>86.8173833</ele>
        <time>2022-08-18T09:59:16Z</time>
      </trkpt>
      <trkpt lat="45.19013" lon="0.76999">
        <ele>86.5607238</ele>
        <time>2022-08-18T09:59:18Z</time>
      </trkpt>
      <trkpt lat="45.19006" lon="0.76992">
        <ele>86.5408473</ele>
        <time>2022-08-18T09:59:20Z</time>
      </trkpt>
      <trkpt lat="45.18998" lon="0.76984">
        <ele>85.5837187</ele>
        <time>2022-08-18T09:59:22Z</time>
      </trkpt>
      <trkpt lat="45.18991" lon="0.76975">
        <ele>85.8407983</ele>
        <time>2022-08-18T09:59:24Z</time>
      </trkpt>
      <trkpt lat="45.18985" lon="0.76966">
        <ele>86.5354342</ele>
        <time>2022-08-18T09:59:26Z</time>
      </trkpt>
      <trkpt lat="45.18981" lon="0.76961">
        <ele>86.5783186</ele>
        <time>2022-08-18T09:59:28Z</time>
      </trkpt>
      <trkpt lat="45.18977" lon="0.76945">
        <ele>86.7119887</ele>
        <time>2022-08-18T09:59:30Z</time>
      </trkpt>
      <trkpt lat="45.18975" lon="0.76933">
        <ele>85.596786</ele>
        <time>2022-08-18T09:59:32Z</time>
      </trkpt>
      <trkpt lat="45.18972" lon="0.76921">
        <ele>85.8127072</ele>
        <time>2022-08-18T09:59:34Z</time>
      </trkpt>
      <trkpt lat="45.18968" lon="0.7691">
        <ele>85.5696232</ele>
        <time>2022-08-18T09:59:36Z</time>
      </trkpt>
      <trkpt lat="45.18965" lon="0.76897">
        <ele>85.8838547</ele>
        <time>2022-08-18T09:59:38Z</time>
      </trkpt>
      <trkpt lat="45.18962" lon="0.76884">
        <ele>86.3489506</ele>
        <time>2022-08-18T09:59:40Z</time>
      </trkpt>
      <trkpt lat="45.18957" lon="0.76867">
        <ele>85.918457</ele>
        <time>2022-08-18T09:59:43Z</time>
      </trkpt>
      <trkpt lat="45.18954" lon="0.76854">
        <ele>85.8256657</ele>
        <time>2022-08-18T09:59:45Z</time>
      </trkpt>
      <trkpt lat="45.18952" lon="0.76841">
        <ele>85.2856143</ele>
        <time>2022-08-18T09:59:47Z</time>
      </trkpt>
      <trkpt lat="45.1895" lon="0.76829">
        <ele>85.1491373</ele>
        <time>2022-08-18T09:59:49Z</time>
      </trkpt>
      <trkpt lat="45.18948" lon="0.76819">
        <ele>85.2919242</ele>
        <time>2022-08-18T09:59:51Z</time>
      </trkpt>
      <trkpt lat="45.18946" lon="0.76807">
        <ele>85.5843714</ele>
        <time>2022-08-18T09:59:53Z</time>
      </trkpt>
      <trkpt lat="45.18945" lon="0.76802">
        <ele>86.0813511</ele>
        <time>2022-08-18T09:59:54Z</time>
      </trkpt>
      <trkpt lat="45.18943" lon="0.76792">
        <ele>85.9483142</ele>
        <time>2022-08-18T09:59:56Z</time>
      </trkpt>
      <trkpt lat="45.18937" lon="0.76782">
        <ele>85.8949636</ele>
        <time>2022-08-18T09:59:58Z</time>
      </trkpt>
      <trkpt lat="45.18938" lon="0.7677">
        <ele>86.2390852</ele>
        <time>2022-08-18T10:00:00Z</time>
      </trkpt>
      <trkpt lat="45.18935" lon="0.7676">
        <ele>86.4639762</ele>
        <time>2022-08-18T10:00:02Z</time>
      </trkpt>
      <trkpt lat="45.18932" lon="0.76749">
        <ele>86.5039217</ele>
        <time>2022-08-18T10:00:04Z</time>
      </trkpt>
      <trkpt lat="45.18929" lon="0.76739">
        <ele>86.3582756</ele>
        <time>2022-08-18T10:00:06Z</time>
      </trkpt>
      <trkpt lat="45.18926" lon="0.76728">
        <ele>85.7188132</ele>
        <time>2022-08-18T10:00:08Z</time>
      </trkpt>
      <trkpt lat="45.18923" lon="0.76719">
        <ele>86.2586592</ele>
        <time>2022-08-18T10:00:10Z</time>
      </trkpt>
      <trkpt lat="45.18919" lon="0.76709">
        <ele>85.0924961</ele>
        <time>2022-08-18T10:00:12Z</time>
      </trkpt>
      <trkpt lat="45.18915" lon="0.76701">
        <ele>85.4460476</ele>
        <time>2022-08-18T10:00:14Z</time>
      </trkpt>
      <trkpt lat="45.1891" lon="0.76691">
        <ele>85.1358089</ele>
        <time>2022-08-18T10:00:16Z</time>
      </trkpt>
      <trkpt lat="45.18906" lon="0.7668">
        <ele>84.0486315</ele>
        <time>2022-08-18T10:00:18Z</time>
      </trkpt>
      <trkpt lat="45.18901" lon="0.76669">
        <ele>84.9434667</ele>
        <time>2022-08-18T10:00:20Z</time>
      </trkpt>
      <trkpt lat="45.18897" lon="0.7666">
        <ele>85.5165101</ele>
        <time>2022-08-18T10:00:22Z</time>
      </trkpt>
      <trkpt lat="45.18891" lon="0.7665">
        <ele>85.1028914</ele>
        <time>2022-08-18T10:00:24Z</time>
      </trkpt>
      <trkpt lat="45.18886" lon="0.76639">
        <ele>85.1777928</ele>
        <time>2022-08-18T10:00:26Z</time>
      </trkpt>
      <trkpt lat="45.18881" lon="0.76629">
        <ele>84.866301</ele>
        <time>2022-08-18T10:00:28Z</time>
      </trkpt>
      <trkpt lat="45.18875" lon="0.76618">
        <ele>84.9480264</ele>
        <time>2022-08-18T10:00:30Z</time>
      </trkpt>
      <trkpt lat="45.1887" lon="0.76607">
        <ele>84.7048676</ele>
        <time>2022-08-18T10:00:32Z</time>
      </trkpt>
      <trkpt lat="45.18865" lon="0.76597">
        <ele>83.3259126</ele>
        <time>2022-08-18T10:00:34Z</time>
      </trkpt>
      <trkpt lat="45.18861" lon="0.76586">
        <ele>82.7809056</ele>
        <time>2022-08-18T10:00:36Z</time>
      </trkpt>
      <trkpt lat="45.18855" lon="0.76576">
        <ele>83.3868235</ele>
        <time>2022-08-18T10:00:38Z</time>
      </trkpt>
      <trkpt lat="45.18851" lon="0.76564">
        <ele>82.9122766</ele>
        <time>2022-08-18T10:00:40Z</time>
      </trkpt>
      <trkpt lat="45.18847" lon="0.76554">
        <ele>80.995046</ele>
        <time>2022-08-18T10:00:42Z</time>
      </trkpt>
      <trkpt lat="45.18842" lon="0.76544">
        <ele>81.7871567</ele>
        <time>2022-08-18T10:00:44Z</time>
      </trkpt>
      <trkpt lat="45.18836" lon="0.76532">
        <ele>83.1556167</ele>
        <time>2022-08-18T10:00:46Z</time>
      </trkpt>
      <trkpt lat="45.18832" lon="0.76521">
        <ele>82.9789667</ele>
        <time>2022-08-18T10:00:48Z</time>
      </trkpt>
      <trkpt lat="45.18828" lon="0.7651">
        <ele>82.9515524</ele>
        <time>2022-08-18T10:00:50Z</time>
      </trkpt>
      <trkpt lat="45.18822" lon="0.76501">
        <ele>85.3584881</ele>
        <time>2022-08-18T10:00:52Z</time>
      </trkpt>
      <trkpt lat="45.1882" lon="0.76489">
        <ele>84.14127</ele>
        <time>2022-08-18T10:00:54Z</time>
      </trkpt>
      <trkpt lat="45.18816" lon="0.76477">
        <ele>84.4357124</ele>
        <time>2022-08-18T10:00:56Z</time>
      </trkpt>
      <trkpt lat="45.18812" lon="0.76465">
        <ele>84.601088</ele>
        <time>2022-08-18T10:00:58Z</time>
      </trkpt>
      <trkpt lat="45.1881" lon="0.7645">
        <ele>84.7988653</ele>
        <time>2022-08-18T10:01:00Z</time>
      </trkpt>
      <trkpt lat="45.18809" lon="0.76438">
        <ele>84.7242885</ele>
        <time>2022-08-18T10:01:02Z</time>
      </trkpt>
      <trkpt lat="45.18807" lon="0.76425">
        <ele>84.9690542</ele>
        <time>2022-08-18T10:01:04Z</time>
      </trkpt>
      <trkpt lat="45.18805" lon="0.76413">
        <ele>84.9902848</ele>
        <time>2022-08-18T10:01:06Z</time>
      </trkpt>
      <trkpt lat="45.18804" lon="0.76399">
        <ele>83.2352879</ele>
        <time>2022-08-18T10:01:08Z</time>
      </trkpt>
      <trkpt lat="45.18801" lon="0.76387">
        <ele>84.1113271</ele>
        <time>2022-08-18T10:01:10Z</time>
      </trkpt>
      <trkpt lat="45.18798" lon="0.76374">
        <ele>84.8112528</ele>
        <time>2022-08-18T10:01:12Z</time>
      </trkpt>
      <trkpt lat="45.18795" lon="0.7636">
        <ele>84.5159448</ele>
        <time>2022-08-18T10:01:14Z</time>
      </trkpt>
      <trkpt lat="45.18793" lon="0.76349">
        <ele>84.7389842</ele>
        <time>2022-08-18T10:01:16Z</time>
      </trkpt>
      <trkpt lat="45.1879" lon="0.76338">
        <ele>84.9234309</ele>
        <time>2022-08-18T10:01:18Z</time>
      </trkpt>
      <trkpt lat="45.18788" lon="0.76326">
        <ele>84.6921242</ele>
        <time>2022-08-18T10:01:20Z</time>
      </trkpt>
      <trkpt lat="45.18785" lon="0.76315">
        <ele>84.6085401</ele>
        <time>2022-08-18T10:01:22Z</time>
      </trkpt>
      <trkpt lat="45.18783" lon="0.76305">
        <ele>84.1269675</ele>
        <time>2022-08-18T10:01:24Z</time>
      </trkpt>
      <trkpt lat="45.18779" lon="0.76293">
        <ele>83.8672331</ele>
        <time>2022-08-18T10:01:26Z</time>
      </trkpt>
      <trkpt lat="45.18773" lon="0.76282">
        <ele>84.2790665</ele>
        <time>2022-08-18T10:01:28Z</time>
      </trkpt>
      <trkpt lat="45.18769" lon="0.76271">
        <ele>84.5477436</ele>
        <time>2022-08-18T10:01:30Z</time>
      </trkpt>
      <trkpt lat="45.18762" lon="0.76259">
        <ele>84.8226235</ele>
        <time>2022-08-18T10:01:32Z</time>
      </trkpt>
      <trkpt lat="45.18757" lon="0.76248">
        <ele>84.8523782</ele>
        <time>2022-08-18T10:01:34Z</time>
      </trkpt>
      <trkpt lat="45.18752" lon="0.76237">
        <ele>84.5496486</ele>
        <time>2022-08-18T10:01:36Z</time>
      </trkpt>
      <trkpt lat="45.18746" lon="0.76225">
        <ele>84.3053735</ele>
        <time>2022-08-18T10:01:38Z</time>
      </trkpt>
      <trkpt lat="45.1874" lon="0.76214">
        <ele>84.4161438</ele>
        <time>2022-08-18T10:01:40Z</time>
      </trkpt>
      <trkpt lat="45.18735" lon="0.76203">
        <ele>84.3929685</ele>
        <time>2022-08-18T10:01:42Z</time>
      </trkpt>
      <trkpt lat="45.1873" lon="0.76193">
        <ele>83.7719373</ele>
        <time>2022-08-18T10:01:44Z</time>
      </trkpt>
      <trkpt lat="45.18724" lon="0.76182">
        <ele>84.1799124</ele>
        <time>2022-08-18T10:01:46Z</time>
      </trkpt>
      <trkpt lat="45.18719" lon="0.76172">
        <ele>85.1770802</ele>
        <time>2022-08-18T10:01:48Z</time>
      </trkpt>
      <trkpt lat="45.18714" lon="0.76161">
        <ele>85.6450009</ele>
        <time>2022-08-18T10:01:50Z</time>
      </trkpt>
      <trkpt lat="45.18709" lon="0.76151">
        <ele>85.8053134</ele>
        <time>2022-08-18T10:01:52Z</time>
      </trkpt>
      <trkpt lat="45.18704" lon="0.76141">
        <ele>86.0441044</ele>
        <time>2022-08-18T10:01:54Z</time>
      </trkpt>
      <trkpt lat="45.187" lon="0.76131">
        <ele>86.110121</ele>
        <time>2022-08-18T10:01:56Z</time>
      </trkpt>
      <trkpt lat="45.18696" lon="0.7612">
        <ele>86.0918601</ele>
        <time>2022-08-18T10:01:58Z</time>
      </trkpt>
      <trkpt lat="45.18693" lon="0.76112">
        <ele>87.1126801</ele>
        <time>2022-08-18T10:02:00Z</time>
      </trkpt>
      <trkpt lat="45.18689" lon="0.76102">
        <ele>88.0233455</ele>
        <time>2022-08-18T10:02:02Z</time>
      </trkpt>
      <trkpt lat="45.18686" lon="0.76096">
        <ele>88.7241595</ele>
        <time>2022-08-18T10:02:04Z</time>
      </trkpt>
      <trkpt lat="45.18685" lon="0.76095">
        <ele>88.7097953</ele>
        <time>2022-08-18T10:02:06Z</time>
      </trkpt>
      <trkpt lat="45.18684" lon="0.76094">
        <ele>88.6822839</ele>
        <time>2022-08-18T10:02:08Z</time>
      </trkpt>
      <trkpt lat="45.18683" lon="0.76092">
        <ele>88.3279663</ele>
        <time>2022-08-18T10:02:10Z</time>
      </trkpt>
      <trkpt lat="45.18682" lon="0.7609">
        <ele>88.0767369</ele>
        <time>2022-08-18T10:02:12Z</time>
      </trkpt>
      <trkpt lat="45.1868" lon="0.76083">
        <ele>87.5829631</ele>
        <time>2022-08-18T10:02:14Z</time>
      </trkpt>
      <trkpt lat="45.18677" lon="0.76079">
        <ele>87.0539197</ele>
        <time>2022-08-18T10:02:16Z</time>
      </trkpt>
      <trkpt lat="45.18672" lon="0.76076">
        <ele>86.1912469</ele>
        <time>2022-08-18T10:02:18Z</time>
      </trkpt>
      <trkpt lat="45.18667" lon="0.76079">
        <ele>85.2951613</ele>
        <time>2022-08-18T10:02:20Z</time>
      </trkpt>
      <trkpt lat="45.18664" lon="0.76081">
        <ele>85.3472314</ele>
        <time>2022-08-18T10:02:22Z</time>
      </trkpt>
      <trkpt lat="45.1866" lon="0.76085">
        <ele>85.5896028</ele>
        <time>2022-08-18T10:02:24Z</time>
      </trkpt>
      <trkpt lat="45.18658" lon="0.76088">
        <ele>85.186093</ele>
        <time>2022-08-18T10:02:26Z</time>
      </trkpt>
      <trkpt lat="45.18658" lon="0.76091">
        <ele>84.8058187</ele>
        <time>2022-08-18T10:02:28Z</time>
      </trkpt>
      <trkpt lat="45.18657" lon="0.76092">
        <ele>84.762427</ele>
        <time>2022-08-18T10:02:30Z</time>
      </trkpt>
      <trkpt lat="45.18657" lon="0.76092">
        <ele>85.2283466</ele>
        <time>2022-08-18T10:02:32Z</time>
      </trkpt>
      <trkpt lat="45.18658" lon="0.76092">
        <ele>85.0824684</ele>
        <time>2022-08-18T10:02:34Z</time>
      </trkpt>
      <trkpt lat="45.18658" lon="0.76093">
        <ele>85.3109387</ele>
        <time>2022-08-18T10:02:36Z</time>
      </trkpt>
      <trkpt lat="45.18658" lon="0.76092">
        <ele>85.4939397</ele>
        <time>2022-08-18T10:02:38Z</time>
      </trkpt>
      <trkpt lat="45.18658" lon="0.76092">
        <ele>85.4975409</ele>
        <time>2022-08-18T10:02:40Z</time>
      </trkpt>
      <trkpt lat="45.18657" lon="0.76093">
        <ele>84.8993609</ele>
        <time>2022-08-18T10:02:42Z</time>
      </trkpt>
      <trkpt lat="45.18657" lon="0.76093">
        <ele>84.5046001</ele>
        <time>2022-08-18T10:02:44Z</time>
      </trkpt>
      <trkpt lat="45.18657" lon="0.76093">
        <ele>84.3498864</ele>
        <time>2022-08-18T10:02:46Z</time>
      </trkpt>
      <trkpt lat="45.18657" lon="0.76094">
        <ele>84.7783439</ele>
        <time>2022-08-18T10:02:48Z</time>
      </trkpt>
      <trkpt lat="45.18657" lon="0.76094">
        <ele>85.1275877</ele>
        <time>2022-08-18T10:02:50Z</time>
      </trkpt>
      <trkpt lat="45.18658" lon="0.76094">
        <ele>85.5832827</ele>
        <time>2022-08-18T10:02:52Z</time>
      </trkpt>
      <trkpt lat="45.18658" lon="0.76093">
        <ele>84.9628007</ele>
        <time>2022-08-18T10:02:54Z</time>
      </trkpt>
      <trkpt lat="45.18658" lon="0.76093">
        <ele>84.5320568</ele>
        <time>2022-08-18T10:02:56Z</time>
      </trkpt>
      <trkpt lat="45.18658" lon="0.76093">
        <ele>84.04011</ele>
        <time>2022-08-18T10:02:58Z</time>
      </trkpt>
      <trkpt lat="45.18658" lon="0.76093">
        <ele>83.6724781</ele>
        <time>2022-08-18T10:03:00Z</time>
      </trkpt>
      <trkpt lat="45.18658" lon="0.76093">
        <ele>83.4862531</ele>
        <time>2022-08-18T10:03:02Z</time>
      </trkpt>
      <trkpt lat="45.18658" lon="0.76093">
        <ele>83.3589967</ele>
        <time>2022-08-18T10:03:04Z</time>
      </trkpt>
      <trkpt lat="45.18658" lon="0.76094">
        <ele>83.8578088</ele>
        <time>2022-08-18T10:03:06Z</time>
      </trkpt>
      <trkpt lat="45.18658" lon="0.76094">
        <ele>84.566485</ele>
        <time>2022-08-18T10:03:08Z</time>
      </trkpt>
      <trkpt lat="45.18658" lon="0.76094">
        <ele>85.2016605</ele>
        <time>2022-08-18T10:03:10Z</time>
      </trkpt>
      <trkpt lat="45.18658" lon="0.76094">
        <ele>85.3070915</ele>
        <time>2022-08-18T10:03:12Z</time>
      </trkpt>
      <trkpt lat="45.18658" lon="0.76095">
        <ele>85.8079924</ele>
        <time>2022-08-18T10:03:14Z</time>
      </trkpt>
      <trkpt lat="45.18658" lon="0.76094">
        <ele>85.6862167</ele>
        <time>2022-08-18T10:03:16Z</time>
      </trkpt>
      <trkpt lat="45.18658" lon="0.76094">
        <ele>85.2663093</ele>
        <time>2022-08-18T10:03:18Z</time>
      </trkpt>
      <trkpt lat="45.18658" lon="0.76094">
        <ele>85.3255611</ele>
        <time>2022-08-18T10:03:20Z</time>
      </trkpt>
      <trkpt lat="45.18658" lon="0.76094">
        <ele>85.4006617</ele>
        <time>2022-08-18T10:03:22Z</time>
      </trkpt>
      <trkpt lat="45.18658" lon="0.76094">
        <ele>85.4712167</ele>
        <time>2022-08-18T10:03:24Z</time>
      </trkpt>
      <trkpt lat="45.18658" lon="0.76094">
        <ele>85.7440686</ele>
        <time>2022-08-18T10:03:26Z</time>
      </trkpt>
      <trkpt lat="45.18658" lon="0.76094">
        <ele>85.7389975</ele>
        <time>2022-08-18T10:03:28Z</time>
      </trkpt>
      <trkpt lat="45.18658" lon="0.76094">
        <ele>85.6516553</ele>
        <time>2022-08-18T10:03:30Z</time>
      </trkpt>
      <trkpt lat="45.18658" lon="0.76094">
        <ele>85.6540671</ele>
        <time>2022-08-18T10:03:32Z</time>
      </trkpt>
      <trkpt lat="45.18658" lon="0.76094">
        <ele>85.826856</ele>
        <time>2022-08-18T10:03:34Z</time>
      </trkpt>
      <trkpt lat="45.18658" lon="0.76094">
        <ele>85.9520486</ele>
        <time>2022-08-18T10:03:36Z</time>
      </trkpt>
      <trkpt lat="45.18657" lon="0.76094">
        <ele>86.3828946</ele>
        <time>2022-08-18T10:03:38Z</time>
      </trkpt>
      <trkpt lat="45.18657" lon="0.76094">
        <ele>86.3859094</ele>
        <time>2022-08-18T10:03:40Z</time>
      </trkpt>
      <trkpt lat="45.18657" lon="0.76095">
        <ele>86.574204</ele>
        <time>2022-08-18T10:03:42Z</time>
      </trkpt>
      <trkpt lat="45.18657" lon="0.76096">
        <ele>87.0936682</ele>
        <time>2022-08-18T10:03:44Z</time>
      </trkpt>
      <trkpt lat="45.18657" lon="0.76095">
        <ele>87.0297661</ele>
        <time>2022-08-18T10:03:46Z</time>
      </trkpt>
      <trkpt lat="45.18657" lon="0.76095">
        <ele>86.7103551</ele>
        <time>2022-08-18T10:03:48Z</time>
      </trkpt>
      <trkpt lat="45.18657" lon="0.76095">
        <ele>86.9380356</ele>
        <time>2022-08-18T10:03:50Z</time>
      </trkpt>
      <trkpt lat="45.18656" lon="0.76094">
        <ele>86.9218096</ele>
        <time>2022-08-18T10:03:52Z</time>
      </trkpt>
      <trkpt lat="45.18656" lon="0.76094">
        <ele>87.2805223</ele>
        <time>2022-08-18T10:03:55Z</time>
      </trkpt>
      <trkpt lat="45.18656" lon="0.76095">
        <ele>87.8975445</ele>
        <time>2022-08-18T10:03:57Z</time>
      </trkpt>
      <trkpt lat="45.18656" lon="0.76095">
        <ele>88.3608202</ele>
        <time>2022-08-18T10:03:59Z</time>
      </trkpt>
      <trkpt lat="45.18656" lon="0.76095">
        <ele>89.0025921</ele>
        <time>2022-08-18T10:04:01Z</time>
      </trkpt>
      <trkpt lat="45.18656" lon="0.76095">
        <ele>89.1031205</ele>
        <time>2022-08-18T10:04:03Z</time>
      </trkpt>
      <trkpt lat="45.18656" lon="0.76095">
        <ele>88.4503164</ele>
        <time>2022-08-18T10:04:05Z</time>
      </trkpt>
      <trkpt lat="45.18656" lon="0.76095">
        <ele>88.3689015</ele>
        <time>2022-08-18T10:04:07Z</time>
      </trkpt>
      <trkpt lat="45.18656" lon="0.76095">
        <ele>88.1706819</ele>
        <time>2022-08-18T10:04:09Z</time>
      </trkpt>
      <trkpt lat="45.18656" lon="0.76094">
        <ele>88.1692175</ele>
        <time>2022-08-18T10:04:10Z</time>
      </trkpt>
      <trkpt lat="45.18656" lon="0.76094">
        <ele>88.1529295</ele>
        <time>2022-08-18T10:04:12Z</time>
      </trkpt>
      <trkpt lat="45.18656" lon="0.76094">
        <ele>88.306681</ele>
        <time>2022-08-18T10:04:14Z</time>
      </trkpt>
      <trkpt lat="45.18657" lon="0.76094">
        <ele>87.8035805</ele>
        <time>2022-08-18T10:04:16Z</time>
      </trkpt>
      <trkpt lat="45.18656" lon="0.76094">
        <ele>87.5610107</ele>
        <time>2022-08-18T10:04:18Z</time>
      </trkpt>
      <trkpt lat="45.18656" lon="0.76094">
        <ele>87.5132125</ele>
        <time>2022-08-18T10:04:20Z</time>
      </trkpt>
      <trkpt lat="45.18656" lon="0.76095">
        <ele>88.0049688</ele>
        <time>2022-08-18T10:04:22Z</time>
      </trkpt>
      <trkpt lat="45.18656" lon="0.76095">
        <ele>88.1424233</ele>
        <time>2022-08-18T10:04:24Z</time>
      </trkpt>
      <trkpt lat="45.18656" lon="0.76095">
        <ele>88.4710077</ele>
        <time>2022-08-18T10:04:26Z</time>
      </trkpt>
      <trkpt lat="45.18656" lon="0.76095">
        <ele>88.6203462</ele>
        <time>2022-08-18T10:04:28Z</time>
      </trkpt>
      <trkpt lat="45.18657" lon="0.76095">
        <ele>87.9506561</ele>
        <time>2022-08-18T10:04:30Z</time>
      </trkpt>
      <trkpt lat="45.18657" lon="0.76094">
        <ele>87.3918453</ele>
        <time>2022-08-18T10:04:32Z</time>
      </trkpt>
      <trkpt lat="45.18657" lon="0.76093">
        <ele>86.083153</ele>
        <time>2022-08-18T10:04:34Z</time>
      </trkpt>
      <trkpt lat="45.18658" lon="0.76092">
        <ele>85.2761417</ele>
        <time>2022-08-18T10:04:36Z</time>
      </trkpt>
      <trkpt lat="45.18658" lon="0.76091">
        <ele>85.0247188</ele>
        <time>2022-08-18T10:04:38Z</time>
      </trkpt>
      <trkpt lat="45.18658" lon="0.76089">
        <ele>85.0878328</ele>
        <time>2022-08-18T10:04:40Z</time>
      </trkpt>
      <trkpt lat="45.18659" lon="0.76087">
        <ele>85.0530002</ele>
        <time>2022-08-18T10:04:42Z</time>
      </trkpt>
      <trkpt lat="45.1866" lon="0.76084">
        <ele>84.3458299</ele>
        <time>2022-08-18T10:04:44Z</time>
      </trkpt>
      <trkpt lat="45.18662" lon="0.76081">
        <ele>84.4396239</ele>
        <time>2022-08-18T10:04:46Z</time>
      </trkpt>
      <trkpt lat="45.18664" lon="0.76079">
        <ele>84.2121847</ele>
        <time>2022-08-18T10:04:48Z</time>
      </trkpt>
      <trkpt lat="45.18666" lon="0.76079">
        <ele>84.4074068</ele>
        <time>2022-08-18T10:04:50Z</time>
      </trkpt>
      <trkpt lat="45.18668" lon="0.76078">
        <ele>84.1904305</ele>
        <time>2022-08-18T10:04:52Z</time>
      </trkpt>
      <trkpt lat="45.18672" lon="0.76078">
        <ele>84.2393816</ele>
        <time>2022-08-18T10:04:54Z</time>
      </trkpt>
      <trkpt lat="45.18675" lon="0.7608">
        <ele>83.7778365</ele>
        <time>2022-08-18T10:04:56Z</time>
      </trkpt>
      <trkpt lat="45.18678" lon="0.76084">
        <ele>82.9631306</ele>
        <time>2022-08-18T10:04:58Z</time>
      </trkpt>
      <trkpt lat="45.18681" lon="0.76089">
        <ele>83.1620504</ele>
        <time>2022-08-18T10:05:00Z</time>
      </trkpt>
      <trkpt lat="45.18683" lon="0.76093">
        <ele>83.0122197</ele>
        <time>2022-08-18T10:05:02Z</time>
      </trkpt>
      <trkpt lat="45.18685" lon="0.76097">
        <ele>83.165442</ele>
        <time>2022-08-18T10:05:04Z</time>
      </trkpt>
      <trkpt lat="45.18685" lon="0.76101">
        <ele>83.5815724</ele>
        <time>2022-08-18T10:05:06Z</time>
      </trkpt>
      <trkpt lat="45.18686" lon="0.76103">
        <ele>84.3988935</ele>
        <time>2022-08-18T10:05:08Z</time>
      </trkpt>
      <trkpt lat="45.18685" lon="0.76103">
        <ele>84.3105754</ele>
        <time>2022-08-18T10:05:10Z</time>
      </trkpt>
      <trkpt lat="45.18685" lon="0.76103">
        <ele>84.8173659</ele>
        <time>2022-08-18T10:05:12Z</time>
      </trkpt>
      <trkpt lat="45.18684" lon="0.76104">
        <ele>84.6892492</ele>
        <time>2022-08-18T10:05:14Z</time>
      </trkpt>
      <trkpt lat="45.18684" lon="0.76105">
        <ele>84.9841498</ele>
        <time>2022-08-18T10:05:16Z</time>
      </trkpt>
      <trkpt lat="45.18684" lon="0.76105">
        <ele>85.3793096</ele>
        <time>2022-08-18T10:05:18Z</time>
      </trkpt>
      <trkpt lat="45.18684" lon="0.76105">
        <ele>86.3419968</ele>
        <time>2022-08-18T10:05:20Z</time>
      </trkpt>
      <trkpt lat="45.18685" lon="0.76105">
        <ele>86.822613</ele>
        <time>2022-08-18T10:05:22Z</time>
      </trkpt>
      <trkpt lat="45.18685" lon="0.76104">
        <ele>87.6990373</ele>
        <time>2022-08-18T10:05:24Z</time>
      </trkpt>
      <trkpt lat="45.18685" lon="0.76105">
        <ele>88.2485138</ele>
        <time>2022-08-18T10:05:26Z</time>
      </trkpt>
      <trkpt lat="45.18685" lon="0.76105">
        <ele>88.3154124</ele>
        <time>2022-08-18T10:05:28Z</time>
      </trkpt>
      <trkpt lat="45.18685" lon="0.76105">
        <ele>88.3154124</ele>
        <time>2022-08-18T10:05:32Z</time>
      </trkpt>
      <trkpt lat="45.18685" lon="0.76105">
        <ele>88.3154124</ele>
        <time>2022-08-18T10:05:36Z</time>
      </trkpt>
      <trkpt lat="45.18685" lon="0.76105">
        <ele>88.3154124</ele>
        <time>2022-08-18T10:05:40Z</time>
      </trkpt>
      <trkpt lat="45.18685" lon="0.76105">
        <ele>88.3154124</ele>
        <time>2022-08-18T10:05:44Z</time>
      </trkpt>
      <trkpt lat="45.18685" lon="0.76105">
        <ele>88.3154124</ele>
        <time>2022-08-18T10:05:48Z</time>
      </trkpt>
      <trkpt lat="45.18685" lon="0.76105">
        <ele>88.3154124</ele>
        <time>2022-08-18T10:05:52Z</time>
      </trkpt>
      <trkpt lat="45.18685" lon="0.76105">
        <ele>88.3154124</ele>
        <time>2022-08-18T10:05:56Z</time>
      </trkpt>
      <trkpt lat="45.18685" lon="0.76105">
        <ele>88.3154124</ele>
        <time>2022-08-18T10:06:00Z</time>
      </trkpt>
      <trkpt lat="45.18685" lon="0.76105">
        <ele>88.3154124</ele>
        <time>2022-08-18T10:06:04Z</time>
      </trkpt>
      <trkpt lat="45.18685" lon="0.76105">
        <ele>88.3154124</ele>
        <time>2022-08-18T10:06:08Z</time>
      </trkpt>
      <trkpt lat="45.18691" lon="0.76104">
        <ele>91.2951667</ele>
        <time>2022-08-18T10:06:12Z</time>
      </trkpt>
      <trkpt lat="45.18691" lon="0.76104">
        <ele>91.4274165</ele>
        <time>2022-08-18T10:06:14Z</time>
      </trkpt>
      <trkpt lat="45.18691" lon="0.76104">
        <ele>91.4155358</ele>
        <time>2022-08-18T10:06:16Z</time>
      </trkpt>
      <trkpt lat="45.18691" lon="0.76102">
        <ele>91.3556463</ele>
        <time>2022-08-18T10:06:18Z</time>
      </trkpt>
      <trkpt lat="45.18691" lon="0.76101">
        <ele>91.1535432</ele>
        <time>2022-08-18T10:06:20Z</time>
      </trkpt>
      <trkpt lat="45.18692" lon="0.76101">
        <ele>90.7532134</ele>
        <time>2022-08-18T10:06:22Z</time>
      </trkpt>
      <trkpt lat="45.18691" lon="0.76101">
        <ele>90.7002564</ele>
        <time>2022-08-18T10:06:24Z</time>
      </trkpt>
      <trkpt lat="45.18691" lon="0.761">
        <ele>90.7560285</ele>
        <time>2022-08-18T10:06:26Z</time>
      </trkpt>
      <trkpt lat="45.1869" lon="0.761">
        <ele>90.3840989</ele>
        <time>2022-08-18T10:06:28Z</time>
      </trkpt>
      <trkpt lat="45.1869" lon="0.761">
        <ele>89.792767</ele>
        <time>2022-08-18T10:06:30Z</time>
      </trkpt>
      <trkpt lat="45.18689" lon="0.76099">
        <ele>89.5711056</ele>
        <time>2022-08-18T10:06:32Z</time>
      </trkpt>
      <trkpt lat="45.18689" lon="0.76099">
        <ele>89.7934325</ele>
        <time>2022-08-18T10:06:34Z</time>
      </trkpt>
      <trkpt lat="45.18689" lon="0.76099">
        <ele>89.9019387</ele>
        <time>2022-08-18T10:06:36Z</time>
      </trkpt>
      <trkpt lat="45.18688" lon="0.76098">
        <ele>89.6919446</ele>
        <time>2022-08-18T10:06:38Z</time>
      </trkpt>
      <trkpt lat="45.18687" lon="0.76098">
        <ele>89.1437013</ele>
        <time>2022-08-18T10:06:40Z</time>
      </trkpt>
      <trkpt lat="45.18687" lon="0.76098">
        <ele>89.4505269</ele>
        <time>2022-08-18T10:06:42Z</time>
      </trkpt>
      <trkpt lat="45.18687" lon="0.76098">
        <ele>89.4753492</ele>
        <time>2022-08-18T10:06:44Z</time>
      </trkpt>
      <trkpt lat="45.18686" lon="0.76097">
        <ele>90.0845992</ele>
        <time>2022-08-18T10:06:46Z</time>
      </trkpt>
      <trkpt lat="45.18686" lon="0.76097">
        <ele>90.1235693</ele>
        <time>2022-08-18T10:06:48Z</time>
      </trkpt>
      <trkpt lat="45.18686" lon="0.76097">
        <ele>90.1115392</ele>
        <time>2022-08-18T10:06:50Z</time>
      </trkpt>
      <trkpt lat="45.18686" lon="0.76096">
        <ele>90.5923173</ele>
        <time>2022-08-18T10:06:52Z</time>
      </trkpt>
      <trkpt lat="45.18685" lon="0.76095">
        <ele>91.071323</ele>
        <time>2022-08-18T10:06:54Z</time>
      </trkpt>
      <trkpt lat="45.18686" lon="0.76095">
        <ele>91.4095418</ele>
        <time>2022-08-18T10:06:56Z</time>
      </trkpt>
      <trkpt lat="45.18686" lon="0.76095">
        <ele>91.798314</ele>
        <time>2022-08-18T10:06:58Z</time>
      </trkpt>
      <trkpt lat="45.18686" lon="0.76095">
        <ele>92.5254263</ele>
        <time>2022-08-18T10:07:00Z</time>
      </trkpt>
      <trkpt lat="45.18685" lon="0.76095">
        <ele>93.0510311</ele>
        <time>2022-08-18T10:07:02Z</time>
      </trkpt>
      <trkpt lat="45.18685" lon="0.76095">
        <ele>93.6127134</ele>
        <time>2022-08-18T10:07:04Z</time>
      </trkpt>
      <trkpt lat="45.18685" lon="0.76095">
        <ele>93.4409354</ele>
        <time>2022-08-18T10:07:06Z</time>
      </trkpt>
      <trkpt lat="45.18685" lon="0.76094">
        <ele>93.1222246</ele>
        <time>2022-08-18T10:07:08Z</time>
      </trkpt>
      <trkpt lat="45.18684" lon="0.76094">
        <ele>92.2030026</ele>
        <time>2022-08-18T10:07:10Z</time>
      </trkpt>
      <trkpt lat="45.18684" lon="0.76095">
        <ele>91.9584981</ele>
        <time>2022-08-18T10:07:12Z</time>
      </trkpt>
      <trkpt lat="45.18684" lon="0.76095">
        <ele>91.675771</ele>
        <time>2022-08-18T10:07:14Z</time>
      </trkpt>
      <trkpt lat="45.18684" lon="0.76094">
        <ele>91.4006823</ele>
        <time>2022-08-18T10:07:16Z</time>
      </trkpt>
      <trkpt lat="45.18684" lon="0.76094">
        <ele>91.4259906</ele>
        <time>2022-08-18T10:07:18Z</time>
      </trkpt>
      <trkpt lat="45.18684" lon="0.76094">
        <ele>90.9119298</ele>
        <time>2022-08-18T10:07:20Z</time>
      </trkpt>
      <trkpt lat="45.18684" lon="0.76094">
        <ele>90.830478</ele>
        <time>2022-08-18T10:07:22Z</time>
      </trkpt>
      <trkpt lat="45.18684" lon="0.76094">
        <ele>90.5085662</ele>
        <time>2022-08-18T10:07:24Z</time>
      </trkpt>
      <trkpt lat="45.18684" lon="0.76093">
        <ele>89.9111181</ele>
        <time>2022-08-18T10:07:26Z</time>
      </trkpt>
      <trkpt lat="45.18684" lon="0.76089">
        <ele>89.4421576</ele>
        <time>2022-08-18T10:07:28Z</time>
      </trkpt>
      <trkpt lat="45.18682" lon="0.76084">
        <ele>89.2885787</ele>
        <time>2022-08-18T10:07:30Z</time>
      </trkpt>
      <trkpt lat="45.18679" lon="0.76079">
        <ele>88.0951842</ele>
        <time>2022-08-18T10:07:32Z</time>
      </trkpt>
      <trkpt lat="45.18674" lon="0.76069">
        <ele>87.3277183</ele>
        <time>2022-08-18T10:07:34Z</time>
      </trkpt>
      <trkpt lat="45.1867" lon="0.7606">
        <ele>87.0713713</ele>
        <time>2022-08-18T10:07:36Z</time>
      </trkpt>
      <trkpt lat="45.18665" lon="0.76052">
        <ele>86.8451488</ele>
        <time>2022-08-18T10:07:38Z</time>
      </trkpt>
      <trkpt lat="45.18661" lon="0.76047">
        <ele>86.801487</ele>
        <time>2022-08-18T10:07:40Z</time>
      </trkpt>
      <trkpt lat="45.18655" lon="0.76042">
        <ele>86.6625616</ele>
        <time>2022-08-18T10:07:42Z</time>
      </trkpt>
      <trkpt lat="45.18648" lon="0.76041">
        <ele>86.3415322</ele>
        <time>2022-08-18T10:07:44Z</time>
      </trkpt>
      <trkpt lat="45.18642" lon="0.76042">
        <ele>85.8255518</ele>
        <time>2022-08-18T10:07:46Z</time>
      </trkpt>
      <trkpt lat="45.18635" lon="0.76044">
        <ele>85.8005516</ele>
        <time>2022-08-18T10:07:48Z</time>
      </trkpt>
      <trkpt lat="45.18629" lon="0.76045">
        <ele>85.7353122</ele>
        <time>2022-08-18T10:07:50Z</time>
      </trkpt>
      <trkpt lat="45.18623" lon="0.76043">
        <ele>85.1484221</ele>
        <time>2022-08-18T10:07:52Z</time>
      </trkpt>
      <trkpt lat="45.18617" lon="0.76037">
        <ele>84.9330133</ele>
        <time>2022-08-18T10:07:54Z</time>
      </trkpt>
      <trkpt lat="45.18612" lon="0.7603">
        <ele>85.4242256</ele>
        <time>2022-08-18T10:07:56Z</time>
      </trkpt>
      <trkpt lat="45.18607" lon="0.76022">
        <ele>85.2930343</ele>
        <time>2022-08-18T10:07:58Z</time>
      </trkpt>
      <trkpt lat="45.18603" lon="0.76015">
        <ele>85.4603798</ele>
        <time>2022-08-18T10:08:00Z</time>
      </trkpt>
      <trkpt lat="45.18598" lon="0.76007">
        <ele>86.0938046</ele>
        <time>2022-08-18T10:08:02Z</time>
      </trkpt>
      <trkpt lat="45.18593" lon="0.75999">
        <ele>85.8333722</ele>
        <time>2022-08-18T10:08:04Z</time>
      </trkpt>
      <trkpt lat="45.18588" lon="0.75991">
        <ele>86.0552945</ele>
        <time>2022-08-18T10:08:06Z</time>
      </trkpt>
      <trkpt lat="45.18583" lon="0.75982">
        <ele>86.1940395</ele>
        <time>2022-08-18T10:08:08Z</time>
      </trkpt>
      <trkpt lat="45.18578" lon="0.75972">
        <ele>86.6654719</ele>
        <time>2022-08-18T10:08:10Z</time>
      </trkpt>
      <trkpt lat="45.18574" lon="0.75962">
        <ele>86.7303035</ele>
        <time>2022-08-18T10:08:12Z</time>
      </trkpt>
      <trkpt lat="45.1857" lon="0.7595">
        <ele>86.7148428</ele>
        <time>2022-08-18T10:08:14Z</time>
      </trkpt>
      <trkpt lat="45.18566" lon="0.75939">
        <ele>86.9112568</ele>
        <time>2022-08-18T10:08:16Z</time>
      </trkpt>
      <trkpt lat="45.1856" lon="0.75929">
        <ele>87.0609055</ele>
        <time>2022-08-18T10:08:18Z</time>
      </trkpt>
      <trkpt lat="45.18555" lon="0.75918">
        <ele>87.1566743</ele>
        <time>2022-08-18T10:08:20Z</time>
      </trkpt>
      <trkpt lat="45.18549" lon="0.75909">
        <ele>87.3939851</ele>
        <time>2022-08-18T10:08:22Z</time>
      </trkpt>
      <trkpt lat="45.18543" lon="0.75899">
        <ele>87.0995104</ele>
        <time>2022-08-18T10:08:24Z</time>
      </trkpt>
      <trkpt lat="45.18539" lon="0.75887">
        <ele>86.4508937</ele>
        <time>2022-08-18T10:08:26Z</time>
      </trkpt>
      <trkpt lat="45.18535" lon="0.75876">
        <ele>86.195178</ele>
        <time>2022-08-18T10:08:28Z</time>
      </trkpt>
      <trkpt lat="45.18532" lon="0.75864">
        <ele>86.2189931</ele>
        <time>2022-08-18T10:08:30Z</time>
      </trkpt>
      <trkpt lat="45.18529" lon="0.75852">
        <ele>85.3877196</ele>
        <time>2022-08-18T10:08:32Z</time>
      </trkpt>
      <trkpt lat="45.18527" lon="0.75839">
        <ele>84.905599</ele>
        <time>2022-08-18T10:08:34Z</time>
      </trkpt>
      <trkpt lat="45.18524" lon="0.75825">
        <ele>85.6076204</ele>
        <time>2022-08-18T10:08:36Z</time>
      </trkpt>
      <trkpt lat="45.1852" lon="0.75813">
        <ele>85.6096903</ele>
        <time>2022-08-18T10:08:38Z</time>
      </trkpt>
      <trkpt lat="45.18516" lon="0.75801">
        <ele>85.4768269</ele>
        <time>2022-08-18T10:08:40Z</time>
      </trkpt>
      <trkpt lat="45.1851" lon="0.7579">
        <ele>85.4670091</ele>
        <time>2022-08-18T10:08:42Z</time>
      </trkpt>
      <trkpt lat="45.18505" lon="0.7578">
        <ele>85.3311934</ele>
        <time>2022-08-18T10:08:44Z</time>
      </trkpt>
      <trkpt lat="45.18499" lon="0.75769">
        <ele>85.2644203</ele>
        <time>2022-08-18T10:08:46Z</time>
      </trkpt>
      <trkpt lat="45.18493" lon="0.7576">
        <ele>85.0763917</ele>
        <time>2022-08-18T10:08:48Z</time>
      </trkpt>
      <trkpt lat="45.18487" lon="0.75751">
        <ele>85.6484048</ele>
        <time>2022-08-18T10:08:50Z</time>
      </trkpt>
      <trkpt lat="45.1848" lon="0.75742">
        <ele>85.2056478</ele>
        <time>2022-08-18T10:08:52Z</time>
      </trkpt>
      <trkpt lat="45.18474" lon="0.75732">
        <ele>85.2221804</ele>
        <time>2022-08-18T10:08:54Z</time>
      </trkpt>
      <trkpt lat="45.18467" lon="0.75723">
        <ele>84.7963836</ele>
        <time>2022-08-18T10:08:56Z</time>
      </trkpt>
      <trkpt lat="45.18461" lon="0.75712">
        <ele>84.7773235</ele>
        <time>2022-08-18T10:08:58Z</time>
      </trkpt>
      <trkpt lat="45.18455" lon="0.75703">
        <ele>84.3619536</ele>
        <time>2022-08-18T10:09:00Z</time>
      </trkpt>
      <trkpt lat="45.18448" lon="0.75694">
        <ele>84.1209589</ele>
        <time>2022-08-18T10:09:02Z</time>
      </trkpt>
      <trkpt lat="45.18442" lon="0.75685">
        <ele>84.6066848</ele>
        <time>2022-08-18T10:09:04Z</time>
      </trkpt>
      <trkpt lat="45.18435" lon="0.75676">
        <ele>84.5185074</ele>
        <time>2022-08-18T10:09:06Z</time>
      </trkpt>
      <trkpt lat="45.18428" lon="0.75667">
        <ele>84.7604359</ele>
        <time>2022-08-18T10:09:08Z</time>
      </trkpt>
      <trkpt lat="45.18422" lon="0.75659">
        <ele>84.7199714</ele>
        <time>2022-08-18T10:09:10Z</time>
      </trkpt>
      <trkpt lat="45.18415" lon="0.7565">
        <ele>85.0141718</ele>
        <time>2022-08-18T10:09:12Z</time>
      </trkpt>
      <trkpt lat="45.18409" lon="0.75642">
        <ele>84.2565188</ele>
        <time>2022-08-18T10:09:14Z</time>
      </trkpt>
      <trkpt lat="45.18402" lon="0.75633">
        <ele>84.4605241</ele>
        <time>2022-08-18T10:09:16Z</time>
      </trkpt>
      <trkpt lat="45.18395" lon="0.75624">
        <ele>84.5666736</ele>
        <time>2022-08-18T10:09:18Z</time>
      </trkpt>
      <trkpt lat="45.18389" lon="0.75615">
        <ele>84.561157</ele>
        <time>2022-08-18T10:09:20Z</time>
      </trkpt>
      <trkpt lat="45.18382" lon="0.75606">
        <ele>84.2776924</ele>
        <time>2022-08-18T10:09:22Z</time>
      </trkpt>
      <trkpt lat="45.18376" lon="0.75596">
        <ele>84.5026232</ele>
        <time>2022-08-18T10:09:24Z</time>
      </trkpt>
      <trkpt lat="45.18369" lon="0.75587">
        <ele>84.50481</ele>
        <time>2022-08-18T10:09:26Z</time>
      </trkpt>
      <trkpt lat="45.18361" lon="0.75579">
        <ele>84.3650375</ele>
        <time>2022-08-18T10:09:28Z</time>
      </trkpt>
      <trkpt lat="45.18354" lon="0.7557">
        <ele>84.2824257</ele>
        <time>2022-08-18T10:09:30Z</time>
      </trkpt>
      <trkpt lat="45.18346" lon="0.7556">
        <ele>84.3208722</ele>
        <time>2022-08-18T10:09:32Z</time>
      </trkpt>
      <trkpt lat="45.1834" lon="0.75549">
        <ele>84.8652108</ele>
        <time>2022-08-18T10:09:34Z</time>
      </trkpt>
      <trkpt lat="45.18333" lon="0.7554">
        <ele>84.563055</ele>
        <time>2022-08-18T10:09:36Z</time>
      </trkpt>
      <trkpt lat="45.18327" lon="0.75532">
        <ele>84.7952825</ele>
        <time>2022-08-18T10:09:38Z</time>
      </trkpt>
      <trkpt lat="45.18322" lon="0.75523">
        <ele>84.3771663</ele>
        <time>2022-08-18T10:09:40Z</time>
      </trkpt>
      <trkpt lat="45.18317" lon="0.75515">
        <ele>84.0183877</ele>
        <time>2022-08-18T10:09:42Z</time>
      </trkpt>
      <trkpt lat="45.18312" lon="0.75503">
        <ele>83.9712903</ele>
        <time>2022-08-18T10:09:44Z</time>
      </trkpt>
      <trkpt lat="45.18306" lon="0.75493">
        <ele>84.1721182</ele>
        <time>2022-08-18T10:09:46Z</time>
      </trkpt>
      <trkpt lat="45.18299" lon="0.75483">
        <ele>84.9309272</ele>
        <time>2022-08-18T10:09:48Z</time>
      </trkpt>
      <trkpt lat="45.18295" lon="0.75473">
        <ele>84.2885912</ele>
        <time>2022-08-18T10:09:50Z</time>
      </trkpt>
      <trkpt lat="45.1829" lon="0.75463">
        <ele>84.3866242</ele>
        <time>2022-08-18T10:09:52Z</time>
      </trkpt>
      <trkpt lat="45.18284" lon="0.75452">
        <ele>83.7138152</ele>
        <time>2022-08-18T10:09:54Z</time>
      </trkpt>
      <trkpt lat="45.1828" lon="0.75442">
        <ele>83.8620473</ele>
        <time>2022-08-18T10:09:56Z</time>
      </trkpt>
      <trkpt lat="45.18274" lon="0.75432">
        <ele>83.8566081</ele>
        <time>2022-08-18T10:09:58Z</time>
      </trkpt>
      <trkpt lat="45.18269" lon="0.75422">
        <ele>84.3889154</ele>
        <time>2022-08-18T10:10:00Z</time>
      </trkpt>
      <trkpt lat="45.18265" lon="0.75413">
        <ele>84.4205545</ele>
        <time>2022-08-18T10:10:02Z</time>
      </trkpt>
      <trkpt lat="45.18261" lon="0.75402">
        <ele>84.2608197</ele>
        <time>2022-08-18T10:10:04Z</time>
      </trkpt>
      <trkpt lat="45.18257" lon="0.75392">
        <ele>83.718228</ele>
        <time>2022-08-18T10:10:06Z</time>
      </trkpt>
      <trkpt lat="45.18254" lon="0.75381">
        <ele>83.8874225</ele>
        <time>2022-08-18T10:10:08Z</time>
      </trkpt>
      <trkpt lat="45.18251" lon="0.7537">
        <ele>84.3831732</ele>
        <time>2022-08-18T10:10:10Z</time>
      </trkpt>
      <trkpt lat="45.18249" lon="0.7536">
        <ele>84.3440674</ele>
        <time>2022-08-18T10:10:12Z</time>
      </trkpt>
      <trkpt lat="45.18246" lon="0.75348">
        <ele>83.9929965</ele>
        <time>2022-08-18T10:10:14Z</time>
      </trkpt>
      <trkpt lat="45.18246" lon="0.75336">
        <ele>84.6426515</ele>
        <time>2022-08-18T10:10:16Z</time>
      </trkpt>
      <trkpt lat="45.18246" lon="0.75321">
        <ele>83.9723599</ele>
        <time>2022-08-18T10:10:18Z</time>
      </trkpt>
      <trkpt lat="45.18245" lon="0.75305">
        <ele>83.6892939</ele>
        <time>2022-08-18T10:10:20Z</time>
      </trkpt>
      <trkpt lat="45.18245" lon="0.75289">
        <ele>84.0290994</ele>
        <time>2022-08-18T10:10:22Z</time>
      </trkpt>
      <trkpt lat="45.18244" lon="0.75275">
        <ele>83.9990652</ele>
        <time>2022-08-18T10:10:24Z</time>
      </trkpt>
      <trkpt lat="45.18245" lon="0.75261">
        <ele>83.4995088</ele>
        <time>2022-08-18T10:10:26Z</time>
      </trkpt>
      <trkpt lat="45.18246" lon="0.75247">
        <ele>83.1959724</ele>
        <time>2022-08-18T10:10:28Z</time>
      </trkpt>
      <trkpt lat="45.18249" lon="0.75235">
        <ele>82.8625217</ele>
        <time>2022-08-18T10:10:30Z</time>
      </trkpt>
      <trkpt lat="45.18252" lon="0.75222">
        <ele>82.7576616</ele>
        <time>2022-08-18T10:10:32Z</time>
      </trkpt>
      <trkpt lat="45.18254" lon="0.75209">
        <ele>82.8443432</ele>
        <time>2022-08-18T10:10:34Z</time>
      </trkpt>
      <trkpt lat="45.18255" lon="0.75195">
        <ele>82.8088377</ele>
        <time>2022-08-18T10:10:36Z</time>
      </trkpt>
      <trkpt lat="45.18255" lon="0.75182">
        <ele>82.1285438</ele>
        <time>2022-08-18T10:10:38Z</time>
      </trkpt>
      <trkpt lat="45.18258" lon="0.75169">
        <ele>82.4653239</ele>
        <time>2022-08-18T10:10:40Z</time>
      </trkpt>
      <trkpt lat="45.18261" lon="0.75157">
        <ele>82.0950121</ele>
        <time>2022-08-18T10:10:42Z</time>
      </trkpt>
      <trkpt lat="45.18264" lon="0.75145">
        <ele>82.6687515</ele>
        <time>2022-08-18T10:10:44Z</time>
      </trkpt>
      <trkpt lat="45.18268" lon="0.75132">
        <ele>82.4835572</ele>
        <time>2022-08-18T10:10:46Z</time>
      </trkpt>
      <trkpt lat="45.18273" lon="0.7512">
        <ele>82.3407615</ele>
        <time>2022-08-18T10:10:48Z</time>
      </trkpt>
      <trkpt lat="45.18276" lon="0.75107">
        <ele>82.7204275</ele>
        <time>2022-08-18T10:10:50Z</time>
      </trkpt>
      <trkpt lat="45.1828" lon="0.75095">
        <ele>82.8100606</ele>
        <time>2022-08-18T10:10:52Z</time>
      </trkpt>
      <trkpt lat="45.18286" lon="0.75082">
        <ele>83.4063939</ele>
        <time>2022-08-18T10:10:54Z</time>
      </trkpt>
      <trkpt lat="45.1829" lon="0.75071">
        <ele>82.7222078</ele>
        <time>2022-08-18T10:10:56Z</time>
      </trkpt>
      <trkpt lat="45.18294" lon="0.75058">
        <ele>82.8523973</ele>
        <time>2022-08-18T10:10:58Z</time>
      </trkpt>
      <trkpt lat="45.18298" lon="0.75045">
        <ele>82.4108171</ele>
        <time>2022-08-18T10:11:00Z</time>
      </trkpt>
      <trkpt lat="45.18303" lon="0.75034">
        <ele>82.4508033</ele>
        <time>2022-08-18T10:11:02Z</time>
      </trkpt>
      <trkpt lat="45.18309" lon="0.75023">
        <ele>82.1239385</ele>
        <time>2022-08-18T10:11:04Z</time>
      </trkpt>
      <trkpt lat="45.18314" lon="0.75012">
        <ele>82.0876758</ele>
        <time>2022-08-18T10:11:06Z</time>
      </trkpt>
      <trkpt lat="45.18319" lon="0.75003">
        <ele>82.3503498</ele>
        <time>2022-08-18T10:11:08Z</time>
      </trkpt>
      <trkpt lat="45.18325" lon="0.74991">
        <ele>83.1106929</ele>
        <time>2022-08-18T10:11:10Z</time>
      </trkpt>
      <trkpt lat="45.18332" lon="0.74981">
        <ele>83.9947433</ele>
        <time>2022-08-18T10:11:12Z</time>
      </trkpt>
      <trkpt lat="45.18339" lon="0.74973">
        <ele>83.8044915</ele>
        <time>2022-08-18T10:11:14Z</time>
      </trkpt>
      <trkpt lat="45.18344" lon="0.74965">
        <ele>84.6285186</ele>
        <time>2022-08-18T10:11:16Z</time>
      </trkpt>
      <trkpt lat="45.18351" lon="0.74957">
        <ele>84.5894042</ele>
        <time>2022-08-18T10:11:18Z</time>
      </trkpt>
      <trkpt lat="45.18357" lon="0.74949">
        <ele>84.5477889</ele>
        <time>2022-08-18T10:11:20Z</time>
      </trkpt>
      <trkpt lat="45.18365" lon="0.74941">
        <ele>84.9009148</ele>
        <time>2022-08-18T10:11:22Z</time>
      </trkpt>
      <trkpt lat="45.18372" lon="0.74932">
        <ele>85.3977277</ele>
        <time>2022-08-18T10:11:24Z</time>
      </trkpt>
      <trkpt lat="45.18379" lon="0.74923">
        <ele>85.2207552</ele>
        <time>2022-08-18T10:11:26Z</time>
      </trkpt>
      <trkpt lat="45.18386" lon="0.74914">
        <ele>85.7055971</ele>
        <time>2022-08-18T10:11:28Z</time>
      </trkpt>
      <trkpt lat="45.18392" lon="0.74906">
        <ele>85.9381025</ele>
        <time>2022-08-18T10:11:30Z</time>
      </trkpt>
      <trkpt lat="45.184" lon="0.74897">
        <ele>85.3983645</ele>
        <time>2022-08-18T10:11:32Z</time>
      </trkpt>
      <trkpt lat="45.18407" lon="0.74888">
        <ele>85.1118344</ele>
        <time>2022-08-18T10:11:34Z</time>
      </trkpt>
      <trkpt lat="45.18414" lon="0.74879">
        <ele>85.8071433</ele>
        <time>2022-08-18T10:11:36Z</time>
      </trkpt>
      <trkpt lat="45.18422" lon="0.74872">
        <ele>86.0581957</ele>
        <time>2022-08-18T10:11:38Z</time>
      </trkpt>
      <trkpt lat="45.1843" lon="0.74866">
        <ele>86.2431438</ele>
        <time>2022-08-18T10:11:40Z</time>
      </trkpt>
      <trkpt lat="45.18437" lon="0.74861">
        <ele>85.9978851</ele>
        <time>2022-08-18T10:11:42Z</time>
      </trkpt>
      <trkpt lat="45.18445" lon="0.74855">
        <ele>86.0685747</ele>
        <time>2022-08-18T10:11:44Z</time>
      </trkpt>
      <trkpt lat="45.18453" lon="0.74851">
        <ele>85.930472</ele>
        <time>2022-08-18T10:11:46Z</time>
      </trkpt>
      <trkpt lat="45.18461" lon="0.74846">
        <ele>85.9983184</ele>
        <time>2022-08-18T10:11:48Z</time>
      </trkpt>
      <trkpt lat="45.18469" lon="0.74843">
        <ele>86.3163282</ele>
        <time>2022-08-18T10:11:50Z</time>
      </trkpt>
      <trkpt lat="45.18476" lon="0.74839">
        <ele>85.3353513</ele>
        <time>2022-08-18T10:11:52Z</time>
      </trkpt>
      <trkpt lat="45.18484" lon="0.74833">
        <ele>85.7271005</ele>
        <time>2022-08-18T10:11:54Z</time>
      </trkpt>
      <trkpt lat="45.18493" lon="0.74828">
        <ele>85.5347067</ele>
        <time>2022-08-18T10:11:56Z</time>
      </trkpt>
      <trkpt lat="45.18502" lon="0.74823">
        <ele>85.7169224</ele>
        <time>2022-08-18T10:11:58Z</time>
      </trkpt>
      <trkpt lat="45.1851" lon="0.74819">
        <ele>85.2326996</ele>
        <time>2022-08-18T10:12:00Z</time>
      </trkpt>
      <trkpt lat="45.18518" lon="0.74814">
        <ele>84.6561772</ele>
        <time>2022-08-18T10:12:02Z</time>
      </trkpt>
      <trkpt lat="45.18526" lon="0.74809">
        <ele>84.3854355</ele>
        <time>2022-08-18T10:12:04Z</time>
      </trkpt>
      <trkpt lat="45.18533" lon="0.74805">
        <ele>84.4646729</ele>
        <time>2022-08-18T10:12:06Z</time>
      </trkpt>
      <trkpt lat="45.18539" lon="0.748">
        <ele>84.287967</ele>
        <time>2022-08-18T10:12:08Z</time>
      </trkpt>
      <trkpt lat="45.18546" lon="0.74795">
        <ele>84.4436829</ele>
        <time>2022-08-18T10:12:10Z</time>
      </trkpt>
      <trkpt lat="45.18555" lon="0.74791">
        <ele>84.3852362</ele>
        <time>2022-08-18T10:12:12Z</time>
      </trkpt>
      <trkpt lat="45.18562" lon="0.74784">
        <ele>84.2832317</ele>
        <time>2022-08-18T10:12:14Z</time>
      </trkpt>
      <trkpt lat="45.18567" lon="0.74777">
        <ele>84.9691127</ele>
        <time>2022-08-18T10:12:16Z</time>
      </trkpt>
      <trkpt lat="45.18574" lon="0.74769">
        <ele>84.2397967</ele>
        <time>2022-08-18T10:12:18Z</time>
      </trkpt>
      <trkpt lat="45.18582" lon="0.74763">
        <ele>84.2044545</ele>
        <time>2022-08-18T10:12:20Z</time>
      </trkpt>
      <trkpt lat="45.18591" lon="0.74759">
        <ele>83.9039715</ele>
        <time>2022-08-18T10:12:22Z</time>
      </trkpt>
      <trkpt lat="45.18599" lon="0.74751">
        <ele>84.522645</ele>
        <time>2022-08-18T10:12:24Z</time>
      </trkpt>
      <trkpt lat="45.18606" lon="0.74741">
        <ele>84.5708496</ele>
        <time>2022-08-18T10:12:26Z</time>
      </trkpt>
      <trkpt lat="45.18612" lon="0.74732">
        <ele>85.1887254</ele>
        <time>2022-08-18T10:12:28Z</time>
      </trkpt>
      <trkpt lat="45.18618" lon="0.74724">
        <ele>85.754432</ele>
        <time>2022-08-18T10:12:30Z</time>
      </trkpt>
      <trkpt lat="45.18625" lon="0.74716">
        <ele>85.8054039</ele>
        <time>2022-08-18T10:12:32Z</time>
      </trkpt>
      <trkpt lat="45.18631" lon="0.74707">
        <ele>85.5796175</ele>
        <time>2022-08-18T10:12:34Z</time>
      </trkpt>
      <trkpt lat="45.18638" lon="0.74698">
        <ele>86.0557062</ele>
        <time>2022-08-18T10:12:36Z</time>
      </trkpt>
      <trkpt lat="45.18645" lon="0.74689">
        <ele>86.2130291</ele>
        <time>2022-08-18T10:12:38Z</time>
      </trkpt>
      <trkpt lat="45.18651" lon="0.74679">
        <ele>86.6375496</ele>
        <time>2022-08-18T10:12:40Z</time>
      </trkpt>
      <trkpt lat="45.18657" lon="0.74669">
        <ele>86.2885845</ele>
        <time>2022-08-18T10:12:42Z</time>
      </trkpt>
      <trkpt lat="45.18662" lon="0.74659">
        <ele>86.504656</ele>
        <time>2022-08-18T10:12:44Z</time>
      </trkpt>
      <trkpt lat="45.18668" lon="0.74651">
        <ele>86.6533641</ele>
        <time>2022-08-18T10:12:46Z</time>
      </trkpt>
      <trkpt lat="45.18673" lon="0.74641">
        <ele>86.9101117</ele>
        <time>2022-08-18T10:12:48Z</time>
      </trkpt>
      <trkpt lat="45.1868" lon="0.74633">
        <ele>86.3302864</ele>
        <time>2022-08-18T10:12:50Z</time>
      </trkpt>
      <trkpt lat="45.18686" lon="0.74621">
        <ele>86.6497049</ele>
        <time>2022-08-18T10:12:52Z</time>
      </trkpt>
      <trkpt lat="45.18693" lon="0.74609">
        <ele>86.2503563</ele>
        <time>2022-08-18T10:12:54Z</time>
      </trkpt>
      <trkpt lat="45.187" lon="0.74597">
        <ele>85.517824</ele>
        <time>2022-08-18T10:12:56Z</time>
      </trkpt>
      <trkpt lat="45.18705" lon="0.74585">
        <ele>86.07758</ele>
        <time>2022-08-18T10:12:58Z</time>
      </trkpt>
      <trkpt lat="45.1871" lon="0.74574">
        <ele>86.1328647</ele>
        <time>2022-08-18T10:13:00Z</time>
      </trkpt>
      <trkpt lat="45.18715" lon="0.74561">
        <ele>85.9538951</ele>
        <time>2022-08-18T10:13:02Z</time>
      </trkpt>
      <trkpt lat="45.1872" lon="0.7455">
        <ele>85.3567135</ele>
        <time>2022-08-18T10:13:04Z</time>
      </trkpt>
      <trkpt lat="45.18724" lon="0.74537">
        <ele>85.5324227</ele>
        <time>2022-08-18T10:13:06Z</time>
      </trkpt>
      <trkpt lat="45.18728" lon="0.74525">
        <ele>85.499723</ele>
        <time>2022-08-18T10:13:08Z</time>
      </trkpt>
      <trkpt lat="45.18734" lon="0.74513">
        <ele>83.6290412</ele>
        <time>2022-08-18T10:13:10Z</time>
      </trkpt>
      <trkpt lat="45.18738" lon="0.74501">
        <ele>83.3032478</ele>
        <time>2022-08-18T10:13:12Z</time>
      </trkpt>
      <trkpt lat="45.18743" lon="0.74489">
        <ele>83.8243566</ele>
        <time>2022-08-18T10:13:14Z</time>
      </trkpt>
      <trkpt lat="45.18748" lon="0.74477">
        <ele>84.2896568</ele>
        <time>2022-08-18T10:13:16Z</time>
      </trkpt>
      <trkpt lat="45.18752" lon="0.74466">
        <ele>83.7530081</ele>
        <time>2022-08-18T10:13:18Z</time>
      </trkpt>
      <trkpt lat="45.18757" lon="0.74453">
        <ele>83.5426091</ele>
        <time>2022-08-18T10:13:20Z</time>
      </trkpt>
      <trkpt lat="45.18761" lon="0.74441">
        <ele>83.2689679</ele>
        <time>2022-08-18T10:13:22Z</time>
      </trkpt>
      <trkpt lat="45.18764" lon="0.74429">
        <ele>83.4368005</ele>
        <time>2022-08-18T10:13:24Z</time>
      </trkpt>
      <trkpt lat="45.18768" lon="0.74417">
        <ele>83.6108812</ele>
        <time>2022-08-18T10:13:26Z</time>
      </trkpt>
      <trkpt lat="45.18771" lon="0.74405">
        <ele>82.6270849</ele>
        <time>2022-08-18T10:13:28Z</time>
      </trkpt>
      <trkpt lat="45.18776" lon="0.74394">
        <ele>84.4890032</ele>
        <time>2022-08-18T10:13:30Z</time>
      </trkpt>
      <trkpt lat="45.18778" lon="0.74384">
        <ele>84.8244294</ele>
        <time>2022-08-18T10:13:32Z</time>
      </trkpt>
      <trkpt lat="45.18781" lon="0.74375">
        <ele>85.1304951</ele>
        <time>2022-08-18T10:13:34Z</time>
      </trkpt>
      <trkpt lat="45.18784" lon="0.74365">
        <ele>85.3689498</ele>
        <time>2022-08-18T10:13:36Z</time>
      </trkpt>
      <trkpt lat="45.18786" lon="0.74354">
        <ele>85.6864207</ele>
        <time>2022-08-18T10:13:38Z</time>
      </trkpt>
      <trkpt lat="45.18788" lon="0.74343">
        <ele>85.0071825</ele>
        <time>2022-08-18T10:13:40Z</time>
      </trkpt>
      <trkpt lat="45.18789" lon="0.74332">
        <ele>84.6859371</ele>
        <time>2022-08-18T10:13:42Z</time>
      </trkpt>
      <trkpt lat="45.18792" lon="0.7432">
        <ele>84.6453106</ele>
        <time>2022-08-18T10:13:44Z</time>
      </trkpt>
      <trkpt lat="45.18795" lon="0.74308">
        <ele>85.0445273</ele>
        <time>2022-08-18T10:13:46Z</time>
      </trkpt>
      <trkpt lat="45.188" lon="0.74298">
        <ele>85.0393684</ele>
        <time>2022-08-18T10:13:48Z</time>
      </trkpt>
      <trkpt lat="45.18807" lon="0.74292">
        <ele>85.2206047</ele>
        <time>2022-08-18T10:13:50Z</time>
      </trkpt>
      <trkpt lat="45.18813" lon="0.74289">
        <ele>85.5591649</ele>
        <time>2022-08-18T10:13:52Z</time>
      </trkpt>
      <trkpt lat="45.18818" lon="0.74284">
        <ele>84.8342155</ele>
        <time>2022-08-18T10:13:54Z</time>
      </trkpt>
      <trkpt lat="45.18823" lon="0.74276">
        <ele>84.64883</ele>
        <time>2022-08-18T10:13:56Z</time>
      </trkpt>
      <trkpt lat="45.18828" lon="0.74266">
        <ele>84.4940356</ele>
        <time>2022-08-18T10:13:58Z</time>
      </trkpt>
      <trkpt lat="45.18833" lon="0.74256">
        <ele>84.2682823</ele>
        <time>2022-08-18T10:14:00Z</time>
      </trkpt>
      <trkpt lat="45.18839" lon="0.74247">
        <ele>84.750084</ele>
        <time>2022-08-18T10:14:02Z</time>
      </trkpt>
      <trkpt lat="45.18843" lon="0.74237">
        <ele>84.9674613</ele>
        <time>2022-08-18T10:14:04Z</time>
      </trkpt>
      <trkpt lat="45.18847" lon="0.74226">
        <ele>84.7337667</ele>
        <time>2022-08-18T10:14:06Z</time>
      </trkpt>
      <trkpt lat="45.1885" lon="0.74214">
        <ele>84.3125752</ele>
        <time>2022-08-18T10:14:08Z</time>
      </trkpt>
      <trkpt lat="45.18853" lon="0.74203">
        <ele>84.3981486</ele>
        <time>2022-08-18T10:14:10Z</time>
      </trkpt>
      <trkpt lat="45.18856" lon="0.74192">
        <ele>84.5271327</ele>
        <time>2022-08-18T10:14:12Z</time>
      </trkpt>
      <trkpt lat="45.18857" lon="0.74181">
        <ele>84.8831535</ele>
        <time>2022-08-18T10:14:14Z</time>
      </trkpt>
      <trkpt lat="45.1886" lon="0.74169">
        <ele>84.959815</ele>
        <time>2022-08-18T10:14:16Z</time>
      </trkpt>
      <trkpt lat="45.18861" lon="0.74158">
        <ele>84.8448794</ele>
        <time>2022-08-18T10:14:18Z</time>
      </trkpt>
      <trkpt lat="45.18863" lon="0.74147">
        <ele>85.0857563</ele>
        <time>2022-08-18T10:14:20Z</time>
      </trkpt>
      <trkpt lat="45.18866" lon="0.74137">
        <ele>85.0371643</ele>
        <time>2022-08-18T10:14:22Z</time>
      </trkpt>
      <trkpt lat="45.18867" lon="0.74127">
        <ele>84.9940022</ele>
        <time>2022-08-18T10:14:24Z</time>
      </trkpt>
      <trkpt lat="45.18869" lon="0.74115">
        <ele>84.423879</ele>
        <time>2022-08-18T10:14:26Z</time>
      </trkpt>
      <trkpt lat="45.18871" lon="0.74101">
        <ele>84.6169082</ele>
        <time>2022-08-18T10:14:28Z</time>
      </trkpt>
      <trkpt lat="45.18873" lon="0.74089">
        <ele>84.6961621</ele>
        <time>2022-08-18T10:14:30Z</time>
      </trkpt>
      <trkpt lat="45.18875" lon="0.74078">
        <ele>84.562309</ele>
        <time>2022-08-18T10:14:32Z</time>
      </trkpt>
      <trkpt lat="45.18879" lon="0.74068">
        <ele>84.6330202</ele>
        <time>2022-08-18T10:14:34Z</time>
      </trkpt>
      <trkpt lat="45.18881" lon="0.74058">
        <ele>84.6914302</ele>
        <time>2022-08-18T10:14:36Z</time>
      </trkpt>
      <trkpt lat="45.18882" lon="0.74049">
        <ele>84.6343377</ele>
        <time>2022-08-18T10:14:38Z</time>
      </trkpt>
      <trkpt lat="45.18883" lon="0.74039">
        <ele>84.1541644</ele>
        <time>2022-08-18T10:14:40Z</time>
      </trkpt>
      <trkpt lat="45.18883" lon="0.7403">
        <ele>83.7280767</ele>
        <time>2022-08-18T10:14:42Z</time>
      </trkpt>
      <trkpt lat="45.18878" lon="0.74021">
        <ele>83.9326901</ele>
        <time>2022-08-18T10:14:44Z</time>
      </trkpt>
      <trkpt lat="45.18872" lon="0.74013">
        <ele>84.4044988</ele>
        <time>2022-08-18T10:14:46Z</time>
      </trkpt>
      <trkpt lat="45.18866" lon="0.74004">
        <ele>84.6865256</ele>
        <time>2022-08-18T10:14:48Z</time>
      </trkpt>
      <trkpt lat="45.1886" lon="0.73995">
        <ele>84.5406364</ele>
        <time>2022-08-18T10:14:50Z</time>
      </trkpt>
      <trkpt lat="45.18855" lon="0.73986">
        <ele>84.1366581</ele>
        <time>2022-08-18T10:14:52Z</time>
      </trkpt>
      <trkpt lat="45.18849" lon="0.73978">
        <ele>83.7786706</ele>
        <time>2022-08-18T10:14:54Z</time>
      </trkpt>
      <trkpt lat="45.18844" lon="0.73967">
        <ele>83.3918889</ele>
        <time>2022-08-18T10:14:56Z</time>
      </trkpt>
      <trkpt lat="45.18838" lon="0.73958">
        <ele>82.5377034</ele>
        <time>2022-08-18T10:14:58Z</time>
      </trkpt>
      <trkpt lat="45.18831" lon="0.73952">
        <ele>82.3000467</ele>
        <time>2022-08-18T10:15:00Z</time>
      </trkpt>
      <trkpt lat="45.18822" lon="0.73947">
        <ele>83.7585089</ele>
        <time>2022-08-18T10:15:02Z</time>
      </trkpt>
      <trkpt lat="45.18817" lon="0.73938">
        <ele>84.78932</ele>
        <time>2022-08-18T10:15:04Z</time>
      </trkpt>
      <trkpt lat="45.18814" lon="0.73927">
        <ele>85.1493433</ele>
        <time>2022-08-18T10:15:06Z</time>
      </trkpt>
      <trkpt lat="45.18813" lon="0.73914">
        <ele>85.5480033</ele>
        <time>2022-08-18T10:15:08Z</time>
      </trkpt>
      <trkpt lat="45.18811" lon="0.73903">
        <ele>85.6050637</ele>
        <time>2022-08-18T10:15:10Z</time>
      </trkpt>
      <trkpt lat="45.18809" lon="0.73893">
        <ele>86.0542126</ele>
        <time>2022-08-18T10:15:12Z</time>
      </trkpt>
      <trkpt lat="45.18807" lon="0.73884">
        <ele>85.9297365</ele>
        <time>2022-08-18T10:15:14Z</time>
      </trkpt>
      <trkpt lat="45.18805" lon="0.73872">
        <ele>85.0903567</ele>
        <time>2022-08-18T10:15:16Z</time>
      </trkpt>
      <trkpt lat="45.18804" lon="0.73862">
        <ele>84.8205531</ele>
        <time>2022-08-18T10:15:18Z</time>
      </trkpt>
      <trkpt lat="45.18802" lon="0.73851">
        <ele>84.9507415</ele>
        <time>2022-08-18T10:15:20Z</time>
      </trkpt>
      <trkpt lat="45.188" lon="0.73841">
        <ele>84.7869297</ele>
        <time>2022-08-18T10:15:22Z</time>
      </trkpt>
      <trkpt lat="45.18798" lon="0.73831">
        <ele>84.0276712</ele>
        <time>2022-08-18T10:15:24Z</time>
      </trkpt>
      <trkpt lat="45.188" lon="0.7382">
        <ele>83.9416141</ele>
        <time>2022-08-18T10:15:26Z</time>
      </trkpt>
      <trkpt lat="45.18801" lon="0.73808">
        <ele>84.1848902</ele>
        <time>2022-08-18T10:15:28Z</time>
      </trkpt>
      <trkpt lat="45.18804" lon="0.73795">
        <ele>83.6716385</ele>
        <time>2022-08-18T10:15:30Z</time>
      </trkpt>
      <trkpt lat="45.18807" lon="0.73784">
        <ele>83.625023</ele>
        <time>2022-08-18T10:15:32Z</time>
      </trkpt>
      <trkpt lat="45.1881" lon="0.73773">
        <ele>84.0287936</ele>
        <time>2022-08-18T10:15:34Z</time>
      </trkpt>
      <trkpt lat="45.18813" lon="0.73761">
        <ele>83.7549626</ele>
        <time>2022-08-18T10:15:36Z</time>
      </trkpt>
      <trkpt lat="45.18816" lon="0.73751">
        <ele>83.86793</ele>
        <time>2022-08-18T10:15:38Z</time>
      </trkpt>
      <trkpt lat="45.18819" lon="0.73741">
        <ele>84.0599369</ele>
        <time>2022-08-18T10:15:40Z</time>
      </trkpt>
      <trkpt lat="45.18822" lon="0.73729">
        <ele>83.4608825</ele>
        <time>2022-08-18T10:15:42Z</time>
      </trkpt>
      <trkpt lat="45.18825" lon="0.73718">
        <ele>83.1920638</ele>
        <time>2022-08-18T10:15:44Z</time>
      </trkpt>
      <trkpt lat="45.18828" lon="0.73708">
        <ele>83.0060449</ele>
        <time>2022-08-18T10:15:46Z</time>
      </trkpt>
      <trkpt lat="45.1883" lon="0.737">
        <ele>82.3515649</ele>
        <time>2022-08-18T10:15:48Z</time>
      </trkpt>
      <trkpt lat="45.18832" lon="0.73693">
        <ele>82.1951818</ele>
        <time>2022-08-18T10:15:50Z</time>
      </trkpt>
      <trkpt lat="45.18832" lon="0.73687">
        <ele>82.2272215</ele>
        <time>2022-08-18T10:15:52Z</time>
      </trkpt>
      <trkpt lat="45.18834" lon="0.7368">
        <ele>81.8845936</ele>
        <time>2022-08-18T10:15:54Z</time>
      </trkpt>
      <trkpt lat="45.18836" lon="0.73674">
        <ele>80.7392299</ele>
        <time>2022-08-18T10:15:56Z</time>
      </trkpt>
      <trkpt lat="45.18838" lon="0.73667">
        <ele>81.556921</ele>
        <time>2022-08-18T10:15:58Z</time>
      </trkpt>
      <trkpt lat="45.1884" lon="0.7366">
        <ele>81.7698622</ele>
        <time>2022-08-18T10:16:00Z</time>
      </trkpt>
      <trkpt lat="45.18842" lon="0.73655">
        <ele>82.2975441</ele>
        <time>2022-08-18T10:16:02Z</time>
      </trkpt>
      <trkpt lat="45.18843" lon="0.73652">
        <ele>82.2465044</ele>
        <time>2022-08-18T10:16:04Z</time>
      </trkpt>
      <trkpt lat="45.18844" lon="0.73648">
        <ele>82.7001772</ele>
        <time>2022-08-18T10:16:06Z</time>
      </trkpt>
      <trkpt lat="45.18844" lon="0.73646">
        <ele>83.2563263</ele>
        <time>2022-08-18T10:16:08Z</time>
      </trkpt>
      <trkpt lat="45.18845" lon="0.73643">
        <ele>83.2275638</ele>
        <time>2022-08-18T10:16:10Z</time>
      </trkpt>
      <trkpt lat="45.18845" lon="0.73643">
        <ele>83.385505</ele>
        <time>2022-08-18T10:16:12Z</time>
      </trkpt>
      <trkpt lat="45.18845" lon="0.73643">
        <ele>84.3394711</ele>
        <time>2022-08-18T10:16:14Z</time>
      </trkpt>
      <trkpt lat="45.18844" lon="0.73642">
        <ele>83.4085081</ele>
        <time>2022-08-18T10:16:18Z</time>
      </trkpt>
      <trkpt lat="45.18844" lon="0.73641">
        <ele>83.6196162</ele>
        <time>2022-08-18T10:16:20Z</time>
      </trkpt>
      <trkpt lat="45.18844" lon="0.73641">
        <ele>83.5037682</ele>
        <time>2022-08-18T10:16:22Z</time>
      </trkpt>
      <trkpt lat="45.18841" lon="0.73641">
        <ele>82.84635</ele>
        <time>2022-08-18T10:16:24Z</time>
      </trkpt>
      <trkpt lat="45.18838" lon="0.73641">
        <ele>83.3318599</ele>
        <time>2022-08-18T10:16:26Z</time>
      </trkpt>
      <trkpt lat="45.18835" lon="0.73641">
        <ele>83.4495956</ele>
        <time>2022-08-18T10:16:28Z</time>
      </trkpt>
      <trkpt lat="45.18832" lon="0.73639">
        <ele>83.4731082</ele>
        <time>2022-08-18T10:16:30Z</time>
      </trkpt>
      <trkpt lat="45.1883" lon="0.73639">
        <ele>83.5524791</ele>
        <time>2022-08-18T10:16:32Z</time>
      </trkpt>
      <trkpt lat="45.1883" lon="0.73638">
        <ele>83.1877871</ele>
        <time>2022-08-18T10:16:34Z</time>
      </trkpt>
      <trkpt lat="45.1883" lon="0.73637">
        <ele>82.6847451</ele>
        <time>2022-08-18T10:16:36Z</time>
      </trkpt>
      <trkpt lat="45.1883" lon="0.73637">
        <ele>82.6733778</ele>
        <time>2022-08-18T10:16:38Z</time>
      </trkpt>
      <trkpt lat="45.1883" lon="0.73637">
        <ele>82.6733778</ele>
        <time>2022-08-18T10:16:42Z</time>
      </trkpt>
      <trkpt lat="45.18831" lon="0.73637">
        <ele>82.4994884</ele>
        <time>2022-08-18T10:16:46Z</time>
      </trkpt>
      <trkpt lat="45.18831" lon="0.73637">
        <ele>82.8803623</ele>
        <time>2022-08-18T10:16:48Z</time>
      </trkpt>
      <trkpt lat="45.1883" lon="0.73636">
        <ele>83.416856</ele>
        <time>2022-08-18T10:16:52Z</time>
      </trkpt>
      <trkpt lat="45.1883" lon="0.73636">
        <ele>84.1418442</ele>
        <time>2022-08-18T10:16:54Z</time>
      </trkpt>
      <trkpt lat="45.1883" lon="0.73636">
        <ele>84.1418442</ele>
        <time>2022-08-18T10:16:58Z</time>
      </trkpt>
      <trkpt lat="45.1883" lon="0.73637">
        <ele>84.5425908</ele>
        <time>2022-08-18T10:17:00Z</time>
      </trkpt>
      <trkpt lat="45.1883" lon="0.73637">
        <ele>84.5425908</ele>
        <time>2022-08-18T10:17:04Z</time>
      </trkpt>
      <trkpt lat="45.1883" lon="0.73637">
        <ele>84.5425908</ele>
        <time>2022-08-18T10:17:08Z</time>
      </trkpt>
      <trkpt lat="45.18831" lon="0.73638">
        <ele>81.8935618</ele>
        <time>2022-08-18T10:17:12Z</time>
      </trkpt>
      <trkpt lat="45.18831" lon="0.73638">
        <ele>81.8935618</ele>
        <time>2022-08-18T10:17:16Z</time>
      </trkpt>
      <trkpt lat="45.18831" lon="0.73638">
        <ele>81.8935618</ele>
        <time>2022-08-18T10:17:20Z</time>
      </trkpt>
      <trkpt lat="45.18831" lon="0.73638">
        <ele>81.8935618</ele>
        <time>2022-08-18T10:17:24Z</time>
      </trkpt>
      <trkpt lat="45.18831" lon="0.73638">
        <ele>81.8935618</ele>
        <time>2022-08-18T10:17:28Z</time>
      </trkpt>
      <trkpt lat="45.18831" lon="0.73638">
        <ele>82.1286155</ele>
        <time>2022-08-18T10:17:30Z</time>
      </trkpt>
      <trkpt lat="45.18831" lon="0.73638">
        <ele>82.0458308</ele>
        <time>2022-08-18T10:17:32Z</time>
      </trkpt>
      <trkpt lat="45.18831" lon="0.73638">
        <ele>82.2817986</ele>
        <time>2022-08-18T10:17:34Z</time>
      </trkpt>
      <trkpt lat="45.1883" lon="0.73638">
        <ele>82.490832</ele>
        <time>2022-08-18T10:17:36Z</time>
      </trkpt>
      <trkpt lat="45.1883" lon="0.73637">
        <ele>82.6013956</ele>
        <time>2022-08-18T10:17:38Z</time>
      </trkpt>
      <trkpt lat="45.1883" lon="0.73637">
        <ele>83.3624313</ele>
        <time>2022-08-18T10:17:40Z</time>
      </trkpt>
      <trkpt lat="45.18829" lon="0.73637">
        <ele>83.484004</ele>
        <time>2022-08-18T10:17:42Z</time>
      </trkpt>
      <trkpt lat="45.18829" lon="0.73637">
        <ele>83.3134166</ele>
        <time>2022-08-18T10:17:44Z</time>
      </trkpt>
      <trkpt lat="45.18829" lon="0.73637">
        <ele>82.7101443</ele>
        <time>2022-08-18T10:17:46Z</time>
      </trkpt>
      <trkpt lat="45.18829" lon="0.73636">
        <ele>81.8702682</ele>
        <time>2022-08-18T10:17:48Z</time>
      </trkpt>
      <trkpt lat="45.18829" lon="0.73636">
        <ele>81.8522115</ele>
        <time>2022-08-18T10:17:50Z</time>
      </trkpt>
      <trkpt lat="45.18829" lon="0.73636">
        <ele>81.2135331</ele>
        <time>2022-08-18T10:17:52Z</time>
      </trkpt>
      <trkpt lat="45.18828" lon="0.73636">
        <ele>81.1171613</ele>
        <time>2022-08-18T10:17:56Z</time>
      </trkpt>
      <trkpt lat="45.18828" lon="0.73636">
        <ele>81.3179174</ele>
        <time>2022-08-18T10:17:58Z</time>
      </trkpt>
      <trkpt lat="45.18828" lon="0.73636">
        <ele>81.1048549</ele>
        <time>2022-08-18T10:18:00Z</time>
      </trkpt>
      <trkpt lat="45.18828" lon="0.73636">
        <ele>80.4791742</ele>
        <time>2022-08-18T10:18:02Z</time>
      </trkpt>
      <trkpt lat="45.18828" lon="0.73636">
        <ele>80.8062616</ele>
        <time>2022-08-18T10:18:04Z</time>
      </trkpt>
      <trkpt lat="45.18829" lon="0.73636">
        <ele>79.8670237</ele>
        <time>2022-08-18T10:18:06Z</time>
      </trkpt>
      <trkpt lat="45.18828" lon="0.73636">
        <ele>80.5755925</ele>
        <time>2022-08-18T10:18:08Z</time>
      </trkpt>
      <trkpt lat="45.18828" lon="0.73637">
        <ele>80.8740739</ele>
        <time>2022-08-18T10:18:10Z</time>
      </trkpt>
      <trkpt lat="45.18828" lon="0.73637">
        <ele>79.7836141</ele>
        <time>2022-08-18T10:18:12Z</time>
      </trkpt>
      <trkpt lat="45.18829" lon="0.73637">
        <ele>79.053516</ele>
        <time>2022-08-18T10:18:14Z</time>
      </trkpt>
      <trkpt lat="45.18829" lon="0.73637">
        <ele>78.3501503</ele>
        <time>2022-08-18T10:18:16Z</time>
      </trkpt>
      <trkpt lat="45.18829" lon="0.73637">
        <ele>77.9899272</ele>
        <time>2022-08-18T10:18:18Z</time>
      </trkpt>
      <trkpt lat="45.18829" lon="0.73638">
        <ele>78.081472</ele>
        <time>2022-08-18T10:18:20Z</time>
      </trkpt>
      <trkpt lat="45.18829" lon="0.73638">
        <ele>77.6238594</ele>
        <time>2022-08-18T10:18:22Z</time>
      </trkpt>
      <trkpt lat="45.18829" lon="0.73638">
        <ele>77.7297903</ele>
        <time>2022-08-18T10:18:24Z</time>
      </trkpt>
      <trkpt lat="45.18829" lon="0.73638">
        <ele>77.7297903</ele>
        <time>2022-08-18T10:18:28Z</time>
      </trkpt>
      <trkpt lat="45.18829" lon="0.73639">
        <ele>76.4982341</ele>
        <time>2022-08-18T10:18:30Z</time>
      </trkpt>
      <trkpt lat="45.18829" lon="0.73639">
        <ele>76.3927078</ele>
        <time>2022-08-18T10:18:32Z</time>
      </trkpt>
      <trkpt lat="45.18829" lon="0.73639">
        <ele>76.3679324</ele>
        <time>2022-08-18T10:18:34Z</time>
      </trkpt>
      <trkpt lat="45.18829" lon="0.73639">
        <ele>76.4049275</ele>
        <time>2022-08-18T10:18:36Z</time>
      </trkpt>
      <trkpt lat="45.18829" lon="0.73638">
        <ele>76.5291067</ele>
        <time>2022-08-18T10:18:38Z</time>
      </trkpt>
      <trkpt lat="45.18829" lon="0.73638">
        <ele>77.0130533</ele>
        <time>2022-08-18T10:18:40Z</time>
      </trkpt>
      <trkpt lat="45.18829" lon="0.73638">
        <ele>77.4572414</ele>
        <time>2022-08-18T10:18:42Z</time>
      </trkpt>
      <trkpt lat="45.18829" lon="0.73638">
        <ele>78.1537617</ele>
        <time>2022-08-18T10:18:44Z</time>
      </trkpt>
      <trkpt lat="45.18829" lon="0.73639">
        <ele>78.4565083</ele>
        <time>2022-08-18T10:18:46Z</time>
      </trkpt>
      <trkpt lat="45.18829" lon="0.73639">
        <ele>78.5140956</ele>
        <time>2022-08-18T10:18:48Z</time>
      </trkpt>
      <trkpt lat="45.18829" lon="0.73639">
        <ele>79.076655</ele>
        <time>2022-08-18T10:18:50Z</time>
      </trkpt>
      <trkpt lat="45.18829" lon="0.73639">
        <ele>78.9015586</ele>
        <time>2022-08-18T10:18:52Z</time>
      </trkpt>
      <trkpt lat="45.18829" lon="0.73639">
        <ele>79.4145757</ele>
        <time>2022-08-18T10:18:54Z</time>
      </trkpt>
      <trkpt lat="45.18829" lon="0.73639">
        <ele>79.3201193</ele>
        <time>2022-08-18T10:18:56Z</time>
      </trkpt>
      <trkpt lat="45.18829" lon="0.73639">
        <ele>79.7935491</ele>
        <time>2022-08-18T10:18:58Z</time>
      </trkpt>
      <trkpt lat="45.18829" lon="0.73639">
        <ele>80.2177035</ele>
        <time>2022-08-18T10:19:00Z</time>
      </trkpt>
      <trkpt lat="45.18829" lon="0.73639">
        <ele>80.3143559</ele>
        <time>2022-08-18T10:19:02Z</time>
      </trkpt>
      <trkpt lat="45.18829" lon="0.73639">
        <ele>80.7045099</ele>
        <time>2022-08-18T10:19:04Z</time>
      </trkpt>
      <trkpt lat="45.18829" lon="0.73639">
        <ele>80.0492601</ele>
        <time>2022-08-18T10:19:06Z</time>
      </trkpt>
      <trkpt lat="45.18828" lon="0.73639">
        <ele>79.3893139</ele>
        <time>2022-08-18T10:19:08Z</time>
      </trkpt>
      <trkpt lat="45.18829" lon="0.73639">
        <ele>80.1632948</ele>
        <time>2022-08-18T10:19:10Z</time>
      </trkpt>
      <trkpt lat="45.18829" lon="0.73639">
        <ele>80.1762428</ele>
        <time>2022-08-18T10:19:12Z</time>
      </trkpt>
      <trkpt lat="45.18829" lon="0.73639">
        <ele>80.5809892</ele>
        <time>2022-08-18T10:19:14Z</time>
      </trkpt>
      <trkpt lat="45.18829" lon="0.73638">
        <ele>80.3936425</ele>
        <time>2022-08-18T10:19:16Z</time>
      </trkpt>
      <trkpt lat="45.18829" lon="0.73639">
        <ele>80.7339925</ele>
        <time>2022-08-18T10:19:18Z</time>
      </trkpt>
      <trkpt lat="45.18829" lon="0.73639">
        <ele>80.5448594</ele>
        <time>2022-08-18T10:19:20Z</time>
      </trkpt>
      <trkpt lat="45.18829" lon="0.73638">
        <ele>81.0564687</ele>
        <time>2022-08-18T10:19:22Z</time>
      </trkpt>
      <trkpt lat="45.18829" lon="0.73638">
        <ele>80.7214672</ele>
        <time>2022-08-18T10:19:24Z</time>
      </trkpt>
      <trkpt lat="45.18829" lon="0.73638">
        <ele>80.6266274</ele>
        <time>2022-08-18T10:19:26Z</time>
      </trkpt>
      <trkpt lat="45.18829" lon="0.73638">
        <ele>80.9670903</ele>
        <time>2022-08-18T10:19:28Z</time>
      </trkpt>
      <trkpt lat="45.18829" lon="0.73637">
        <ele>81.3264028</ele>
        <time>2022-08-18T10:19:30Z</time>
      </trkpt>
      <trkpt lat="45.18829" lon="0.73637">
        <ele>81.5257003</ele>
        <time>2022-08-18T10:19:32Z</time>
      </trkpt>
      <trkpt lat="45.1883" lon="0.73638">
        <ele>81.4727881</ele>
        <time>2022-08-18T10:19:34Z</time>
      </trkpt>
      <trkpt lat="45.1883" lon="0.73638">
        <ele>81.7187603</ele>
        <time>2022-08-18T10:19:36Z</time>
      </trkpt>
      <trkpt lat="45.1883" lon="0.73638">
        <ele>81.5733757</ele>
        <time>2022-08-18T10:19:38Z</time>
      </trkpt>
      <trkpt lat="45.1883" lon="0.73638">
        <ele>81.659927</ele>
        <time>2022-08-18T10:19:40Z</time>
      </trkpt>
      <trkpt lat="45.1883" lon="0.73639">
        <ele>82.300579</ele>
        <time>2022-08-18T10:19:42Z</time>
      </trkpt>
      <trkpt lat="45.1883" lon="0.73639">
        <ele>82.6155227</ele>
        <time>2022-08-18T10:19:44Z</time>
      </trkpt>
      <trkpt lat="45.1883" lon="0.73639">
        <ele>82.610408</ele>
        <time>2022-08-18T10:19:46Z</time>
      </trkpt>
      <trkpt lat="45.1883" lon="0.73639">
        <ele>82.6721348</ele>
        <time>2022-08-18T10:19:48Z</time>
      </trkpt>
      <trkpt lat="45.1883" lon="0.73639">
        <ele>83.2837416</ele>
        <time>2022-08-18T10:19:50Z</time>
      </trkpt>
      <trkpt lat="45.1883" lon="0.73639">
        <ele>83.2140199</ele>
        <time>2022-08-18T10:19:52Z</time>
      </trkpt>
      <trkpt lat="45.1883" lon="0.73639">
        <ele>82.6478978</ele>
        <time>2022-08-18T10:19:54Z</time>
      </trkpt>
      <trkpt lat="45.1883" lon="0.73639">
        <ele>82.7087285</ele>
        <time>2022-08-18T10:19:56Z</time>
      </trkpt>
      <trkpt lat="45.1883" lon="0.73639">
        <ele>81.9258481</ele>
        <time>2022-08-18T10:19:58Z</time>
      </trkpt>
      <trkpt lat="45.18831" lon="0.73639">
        <ele>81.621078</ele>
        <time>2022-08-18T10:20:00Z</time>
      </trkpt>
      <trkpt lat="45.1883" lon="0.73639">
        <ele>82.012431</ele>
        <time>2022-08-18T10:20:02Z</time>
      </trkpt>
      <trkpt lat="45.1883" lon="0.73639">
        <ele>82.0852849</ele>
        <time>2022-08-18T10:20:04Z</time>
      </trkpt>
      <trkpt lat="45.1883" lon="0.73639">
        <ele>81.4209322</ele>
        <time>2022-08-18T10:20:06Z</time>
      </trkpt>
      <trkpt lat="45.1883" lon="0.73639">
        <ele>81.4093921</ele>
        <time>2022-08-18T10:20:08Z</time>
      </trkpt>
      <trkpt lat="45.1883" lon="0.73639">
        <ele>81.7635063</ele>
        <time>2022-08-18T10:20:10Z</time>
      </trkpt>
      <trkpt lat="45.1883" lon="0.73639">
        <ele>82.0458648</ele>
        <time>2022-08-18T10:20:12Z</time>
      </trkpt>
      <trkpt lat="45.1883" lon="0.73639">
        <ele>81.7478957</ele>
        <time>2022-08-18T10:20:14Z</time>
      </trkpt>
      <trkpt lat="45.18831" lon="0.73639">
        <ele>81.9485854</ele>
        <time>2022-08-18T10:20:16Z</time>
      </trkpt>
      <trkpt lat="45.18831" lon="0.73639">
        <ele>82.0844314</ele>
        <time>2022-08-18T10:20:18Z</time>
      </trkpt>
      <trkpt lat="45.18831" lon="0.73639">
        <ele>82.3639194</ele>
        <time>2022-08-18T10:20:20Z</time>
      </trkpt>
      <trkpt lat="45.1883" lon="0.73639">
        <ele>81.9099188</ele>
        <time>2022-08-18T10:20:22Z</time>
      </trkpt>
      <trkpt lat="45.1883" lon="0.73639">
        <ele>81.9699707</ele>
        <time>2022-08-18T10:20:24Z</time>
      </trkpt>
      <trkpt lat="45.1883" lon="0.73638">
        <ele>81.5716244</ele>
        <time>2022-08-18T10:20:26Z</time>
      </trkpt>
      <trkpt lat="45.18829" lon="0.73638">
        <ele>81.704256</ele>
        <time>2022-08-18T10:20:28Z</time>
      </trkpt>
      <trkpt lat="45.18829" lon="0.73639">
        <ele>81.9520668</ele>
        <time>2022-08-18T10:20:30Z</time>
      </trkpt>
      <trkpt lat="45.18827" lon="0.73638">
        <ele>81.8954174</ele>
        <time>2022-08-18T10:20:32Z</time>
      </trkpt>
      <trkpt lat="45.18822" lon="0.73635">
        <ele>81.485125</ele>
        <time>2022-08-18T10:20:34Z</time>
      </trkpt>
      <trkpt lat="45.18817" lon="0.73633">
        <ele>81.1351122</ele>
        <time>2022-08-18T10:20:36Z</time>
      </trkpt>
      <trkpt lat="45.18812" lon="0.7363">
        <ele>81.2588446</ele>
        <time>2022-08-18T10:20:38Z</time>
      </trkpt>
      <trkpt lat="45.18807" lon="0.73627">
        <ele>81.2155793</ele>
        <time>2022-08-18T10:20:40Z</time>
      </trkpt>
      <trkpt lat="45.18804" lon="0.73625">
        <ele>80.785065</ele>
        <time>2022-08-18T10:20:42Z</time>
      </trkpt>
      <trkpt lat="45.18804" lon="0.73616">
        <ele>80.8795471</ele>
        <time>2022-08-18T10:20:44Z</time>
      </trkpt>
      <trkpt lat="45.18807" lon="0.73605">
        <ele>81.2000323</ele>
        <time>2022-08-18T10:20:46Z</time>
      </trkpt>
      <trkpt lat="45.18809" lon="0.7359">
        <ele>80.3666264</ele>
        <time>2022-08-18T10:20:48Z</time>
      </trkpt>
      <trkpt lat="45.1881" lon="0.73578">
        <ele>79.7315337</ele>
        <time>2022-08-18T10:20:50Z</time>
      </trkpt>
      <trkpt lat="45.18813" lon="0.73564">
        <ele>80.1801249</ele>
        <time>2022-08-18T10:20:52Z</time>
      </trkpt>
      <trkpt lat="45.18815" lon="0.7355">
        <ele>80.9118945</ele>
        <time>2022-08-18T10:20:54Z</time>
      </trkpt>
      <trkpt lat="45.18817" lon="0.73537">
        <ele>81.2195787</ele>
        <time>2022-08-18T10:20:56Z</time>
      </trkpt>
      <trkpt lat="45.18818" lon="0.73526">
        <ele>82.2467213</ele>
        <time>2022-08-18T10:20:58Z</time>
      </trkpt>
      <trkpt lat="45.1882" lon="0.73514">
        <ele>82.3949149</ele>
        <time>2022-08-18T10:21:00Z</time>
      </trkpt>
      <trkpt lat="45.18821" lon="0.73502">
        <ele>82.7053882</ele>
        <time>2022-08-18T10:21:02Z</time>
      </trkpt>
      <trkpt lat="45.18823" lon="0.7349">
        <ele>82.5009046</ele>
        <time>2022-08-18T10:21:04Z</time>
      </trkpt>
      <trkpt lat="45.18825" lon="0.73478">
        <ele>83.5109755</ele>
        <time>2022-08-18T10:21:06Z</time>
      </trkpt>
      <trkpt lat="45.18826" lon="0.73465">
        <ele>83.5073884</ele>
        <time>2022-08-18T10:21:08Z</time>
      </trkpt>
      <trkpt lat="45.18828" lon="0.73452">
        <ele>83.0571696</ele>
        <time>2022-08-18T10:21:10Z</time>
      </trkpt>
      <trkpt lat="45.18829" lon="0.73439">
        <ele>82.770776</ele>
        <time>2022-08-18T10:21:12Z</time>
      </trkpt>
      <trkpt lat="45.18829" lon="0.73427">
        <ele>82.692842</ele>
        <time>2022-08-18T10:21:14Z</time>
      </trkpt>
      <trkpt lat="45.18829" lon="0.73415">
        <ele>82.4589437</ele>
        <time>2022-08-18T10:21:16Z</time>
      </trkpt>
      <trkpt lat="45.18831" lon="0.73402">
        <ele>83.0616703</ele>
        <time>2022-08-18T10:21:18Z</time>
      </trkpt>
      <trkpt lat="45.18831" lon="0.7339">
        <ele>83.0946636</ele>
        <time>2022-08-18T10:21:20Z</time>
      </trkpt>
      <trkpt lat="45.18831" lon="0.73379">
        <ele>83.3289486</ele>
        <time>2022-08-18T10:21:22Z</time>
      </trkpt>
      <trkpt lat="45.1883" lon="0.73368">
        <ele>82.783427</ele>
        <time>2022-08-18T10:21:24Z</time>
      </trkpt>
      <trkpt lat="45.1883" lon="0.73358">
        <ele>82.8895643</ele>
        <time>2022-08-18T10:21:26Z</time>
      </trkpt>
      <trkpt lat="45.18829" lon="0.73345">
        <ele>82.7864759</ele>
        <time>2022-08-18T10:21:28Z</time>
      </trkpt>
      <trkpt lat="45.18828" lon="0.73332">
        <ele>82.2253262</ele>
        <time>2022-08-18T10:21:30Z</time>
      </trkpt>
      <trkpt lat="45.18827" lon="0.73318">
        <ele>81.8476028</ele>
        <time>2022-08-18T10:21:32Z</time>
      </trkpt>
      <trkpt lat="45.18826" lon="0.73305">
        <ele>81.9244799</ele>
        <time>2022-08-18T10:21:34Z</time>
      </trkpt>
      <trkpt lat="45.18824" lon="0.73293">
        <ele>81.735228</ele>
        <time>2022-08-18T10:21:36Z</time>
      </trkpt>
      <trkpt lat="45.18824" lon="0.73281">
        <ele>81.4806399</ele>
        <time>2022-08-18T10:21:38Z</time>
      </trkpt>
      <trkpt lat="45.18823" lon="0.7327">
        <ele>82.0991997</ele>
        <time>2022-08-18T10:21:40Z</time>
      </trkpt>
      <trkpt lat="45.18823" lon="0.73258">
        <ele>82.5956597</ele>
        <time>2022-08-18T10:21:42Z</time>
      </trkpt>
      <trkpt lat="45.18821" lon="0.73246">
        <ele>82.6873296</ele>
        <time>2022-08-18T10:21:44Z</time>
      </trkpt>
      <trkpt lat="45.1882" lon="0.73234">
        <ele>82.8712025</ele>
        <time>2022-08-18T10:21:46Z</time>
      </trkpt>
      <trkpt lat="45.18819" lon="0.73221">
        <ele>82.8331018</ele>
        <time>2022-08-18T10:21:48Z</time>
      </trkpt>
      <trkpt lat="45.18818" lon="0.73209">
        <ele>82.6583846</ele>
        <time>2022-08-18T10:21:50Z</time>
      </trkpt>
      <trkpt lat="45.18815" lon="0.73197">
        <ele>81.7756699</ele>
        <time>2022-08-18T10:21:52Z</time>
      </trkpt>
      <trkpt lat="45.18813" lon="0.73186">
        <ele>81.5781197</ele>
        <time>2022-08-18T10:21:54Z</time>
      </trkpt>
      <trkpt lat="45.18811" lon="0.73174">
        <ele>82.4514401</ele>
        <time>2022-08-18T10:21:56Z</time>
      </trkpt>
      <trkpt lat="45.18809" lon="0.73163">
        <ele>81.9444927</ele>
        <time>2022-08-18T10:21:58Z</time>
      </trkpt>
      <trkpt lat="45.18807" lon="0.73151">
        <ele>82.3171426</ele>
        <time>2022-08-18T10:22:00Z</time>
      </trkpt>
      <trkpt lat="45.18806" lon="0.73142">
        <ele>81.3585684</ele>
        <time>2022-08-18T10:22:02Z</time>
      </trkpt>
      <trkpt lat="45.18804" lon="0.73132">
        <ele>81.7205885</ele>
        <time>2022-08-18T10:22:04Z</time>
      </trkpt>
      <trkpt lat="45.18802" lon="0.73122">
        <ele>81.4903524</ele>
        <time>2022-08-18T10:22:06Z</time>
      </trkpt>
      <trkpt lat="45.18799" lon="0.73111">
        <ele>82.1790843</ele>
        <time>2022-08-18T10:22:08Z</time>
      </trkpt>
      <trkpt lat="45.18795" lon="0.73101">
        <ele>82.578584</ele>
        <time>2022-08-18T10:22:10Z</time>
      </trkpt>
      <trkpt lat="45.1879" lon="0.73091">
        <ele>81.7314515</ele>
        <time>2022-08-18T10:22:12Z</time>
      </trkpt>
      <trkpt lat="45.18785" lon="0.73081">
        <ele>81.8004457</ele>
        <time>2022-08-18T10:22:14Z</time>
      </trkpt>
      <trkpt lat="45.18779" lon="0.7307">
        <ele>81.4727249</ele>
        <time>2022-08-18T10:22:16Z</time>
      </trkpt>
      <trkpt lat="45.18773" lon="0.73061">
        <ele>82.0979417</ele>
        <time>2022-08-18T10:22:18Z</time>
      </trkpt>
      <trkpt lat="45.18768" lon="0.73051">
        <ele>81.764438</ele>
        <time>2022-08-18T10:22:20Z</time>
      </trkpt>
      <trkpt lat="45.18762" lon="0.73041">
        <ele>81.7546806</ele>
        <time>2022-08-18T10:22:22Z</time>
      </trkpt>
      <trkpt lat="45.18754" lon="0.73031">
        <ele>81.5172967</ele>
        <time>2022-08-18T10:22:24Z</time>
      </trkpt>
      <trkpt lat="45.18749" lon="0.73021">
        <ele>82.4643044</ele>
        <time>2022-08-18T10:22:26Z</time>
      </trkpt>
      <trkpt lat="45.18743" lon="0.73012">
        <ele>82.6122214</ele>
        <time>2022-08-18T10:22:28Z</time>
      </trkpt>
      <trkpt lat="45.18738" lon="0.73003">
        <ele>82.0769019</ele>
        <time>2022-08-18T10:22:30Z</time>
      </trkpt>
      <trkpt lat="45.18731" lon="0.72994">
        <ele>83.5276225</ele>
        <time>2022-08-18T10:22:32Z</time>
      </trkpt>
      <trkpt lat="45.18725" lon="0.72986">
        <ele>84.4229918</ele>
        <time>2022-08-18T10:22:34Z</time>
      </trkpt>
      <trkpt lat="45.18719" lon="0.72976">
        <ele>84.7662386</ele>
        <time>2022-08-18T10:22:36Z</time>
      </trkpt>
      <trkpt lat="45.18714" lon="0.72967">
        <ele>84.4246729</ele>
        <time>2022-08-18T10:22:38Z</time>
      </trkpt>
      <trkpt lat="45.18709" lon="0.72958">
        <ele>83.9678195</ele>
        <time>2022-08-18T10:22:40Z</time>
      </trkpt>
      <trkpt lat="45.18704" lon="0.72948">
        <ele>83.6767523</ele>
        <time>2022-08-18T10:22:42Z</time>
      </trkpt>
      <trkpt lat="45.18699" lon="0.72938">
        <ele>83.928464</ele>
        <time>2022-08-18T10:22:44Z</time>
      </trkpt>
      <trkpt lat="45.18693" lon="0.72928">
        <ele>83.5426267</ele>
        <time>2022-08-18T10:22:46Z</time>
      </trkpt>
      <trkpt lat="45.18688" lon="0.72919">
        <ele>82.3498969</ele>
        <time>2022-08-18T10:22:48Z</time>
      </trkpt>
      <trkpt lat="45.18682" lon="0.72909">
        <ele>82.6619895</ele>
        <time>2022-08-18T10:22:50Z</time>
      </trkpt>
      <trkpt lat="45.18677" lon="0.72899">
        <ele>82.8496563</ele>
        <time>2022-08-18T10:22:52Z</time>
      </trkpt>
      <trkpt lat="45.1867" lon="0.7289">
        <ele>83.9589279</ele>
        <time>2022-08-18T10:22:54Z</time>
      </trkpt>
      <trkpt lat="45.18665" lon="0.7288">
        <ele>83.172526</ele>
        <time>2022-08-18T10:22:56Z</time>
      </trkpt>
      <trkpt lat="45.18659" lon="0.7287">
        <ele>82.6482392</ele>
        <time>2022-08-18T10:22:58Z</time>
      </trkpt>
      <trkpt lat="45.18653" lon="0.7286">
        <ele>82.1681682</ele>
        <time>2022-08-18T10:23:00Z</time>
      </trkpt>
      <trkpt lat="45.18647" lon="0.72851">
        <ele>82.6205154</ele>
        <time>2022-08-18T10:23:02Z</time>
      </trkpt>
      <trkpt lat="45.18641" lon="0.72841">
        <ele>82.5101959</ele>
        <time>2022-08-18T10:23:04Z</time>
      </trkpt>
      <trkpt lat="45.18636" lon="0.72833">
        <ele>83.0266752</ele>
        <time>2022-08-18T10:23:06Z</time>
      </trkpt>
      <trkpt lat="45.18631" lon="0.72825">
        <ele>82.5910004</ele>
        <time>2022-08-18T10:23:08Z</time>
      </trkpt>
      <trkpt lat="45.18625" lon="0.72818">
        <ele>82.5425575</ele>
        <time>2022-08-18T10:23:10Z</time>
      </trkpt>
      <trkpt lat="45.18619" lon="0.72811">
        <ele>82.5524101</ele>
        <time>2022-08-18T10:23:12Z</time>
      </trkpt>
      <trkpt lat="45.18612" lon="0.72803">
        <ele>82.0200432</ele>
        <time>2022-08-18T10:23:14Z</time>
      </trkpt>
      <trkpt lat="45.18605" lon="0.72794">
        <ele>82.3324588</ele>
        <time>2022-08-18T10:23:16Z</time>
      </trkpt>
      <trkpt lat="45.18598" lon="0.72785">
        <ele>82.3139407</ele>
        <time>2022-08-18T10:23:18Z</time>
      </trkpt>
      <trkpt lat="45.18592" lon="0.72776">
        <ele>82.0832111</ele>
        <time>2022-08-18T10:23:20Z</time>
      </trkpt>
      <trkpt lat="45.18584" lon="0.72766">
        <ele>81.7754137</ele>
        <time>2022-08-18T10:23:22Z</time>
      </trkpt>
      <trkpt lat="45.18577" lon="0.72756">
        <ele>82.159284</ele>
        <time>2022-08-18T10:23:24Z</time>
      </trkpt>
      <trkpt lat="45.1857" lon="0.72748">
        <ele>83.1364633</ele>
        <time>2022-08-18T10:23:26Z</time>
      </trkpt>
      <trkpt lat="45.18562" lon="0.7274">
        <ele>83.213095</ele>
        <time>2022-08-18T10:23:28Z</time>
      </trkpt>
      <trkpt lat="45.18554" lon="0.7273">
        <ele>83.3808003</ele>
        <time>2022-08-18T10:23:30Z</time>
      </trkpt>
      <trkpt lat="45.18547" lon="0.72721">
        <ele>83.5342612</ele>
        <time>2022-08-18T10:23:32Z</time>
      </trkpt>
      <trkpt lat="45.18541" lon="0.72713">
        <ele>83.8085155</ele>
        <time>2022-08-18T10:23:34Z</time>
      </trkpt>
      <trkpt lat="45.18535" lon="0.72705">
        <ele>84.0641595</ele>
        <time>2022-08-18T10:23:36Z</time>
      </trkpt>
      <trkpt lat="45.18528" lon="0.72697">
        <ele>84.6666641</ele>
        <time>2022-08-18T10:23:38Z</time>
      </trkpt>
      <trkpt lat="45.18526" lon="0.72693">
        <ele>84.8802305</ele>
        <time>2022-08-18T10:23:40Z</time>
      </trkpt>
      <trkpt lat="45.18525" lon="0.72693">
        <ele>84.6434216</ele>
        <time>2022-08-18T10:23:42Z</time>
      </trkpt>
      <trkpt lat="45.18525" lon="0.72693">
        <ele>84.949107</ele>
        <time>2022-08-18T10:23:44Z</time>
      </trkpt>
      <trkpt lat="45.18525" lon="0.72692">
        <ele>84.5869419</ele>
        <time>2022-08-18T10:23:46Z</time>
      </trkpt>
      <trkpt lat="45.18525" lon="0.72692">
        <ele>84.7777172</ele>
        <time>2022-08-18T10:23:48Z</time>
      </trkpt>
      <trkpt lat="45.18525" lon="0.72691">
        <ele>84.8549465</ele>
        <time>2022-08-18T10:23:50Z</time>
      </trkpt>
      <trkpt lat="45.18525" lon="0.72691">
        <ele>85.9072835</ele>
        <time>2022-08-18T10:23:52Z</time>
      </trkpt>
      <trkpt lat="45.18525" lon="0.7269">
        <ele>85.530348</ele>
        <time>2022-08-18T10:23:54Z</time>
      </trkpt>
      <trkpt lat="45.18525" lon="0.7269">
        <ele>85.712576</ele>
        <time>2022-08-18T10:23:56Z</time>
      </trkpt>
      <trkpt lat="45.18526" lon="0.72689">
        <ele>86.1954696</ele>
        <time>2022-08-18T10:24:00Z</time>
      </trkpt>
      <trkpt lat="45.18525" lon="0.7269">
        <ele>85.9398269</ele>
        <time>2022-08-18T10:24:02Z</time>
      </trkpt>
      <trkpt lat="45.18524" lon="0.7269">
        <ele>84.8986063</ele>
        <time>2022-08-18T10:24:04Z</time>
      </trkpt>
      <trkpt lat="45.18524" lon="0.72691">
        <ele>83.8433373</ele>
        <time>2022-08-18T10:24:06Z</time>
      </trkpt>
      <trkpt lat="45.18524" lon="0.7269">
        <ele>83.6255194</ele>
        <time>2022-08-18T10:24:08Z</time>
      </trkpt>
      <trkpt lat="45.18522" lon="0.72689">
        <ele>83.8458113</ele>
        <time>2022-08-18T10:24:10Z</time>
      </trkpt>
      <trkpt lat="45.18519" lon="0.72685">
        <ele>83.6132902</ele>
        <time>2022-08-18T10:24:12Z</time>
      </trkpt>
      <trkpt lat="45.18515" lon="0.7268">
        <ele>84.461484</ele>
        <time>2022-08-18T10:24:14Z</time>
      </trkpt>
      <trkpt lat="45.18511" lon="0.72676">
        <ele>84.4210306</ele>
        <time>2022-08-18T10:24:16Z</time>
      </trkpt>
      <trkpt lat="45.18507" lon="0.7267">
        <ele>84.901077</ele>
        <time>2022-08-18T10:24:18Z</time>
      </trkpt>
      <trkpt lat="45.18503" lon="0.72664">
        <ele>84.7975043</ele>
        <time>2022-08-18T10:24:20Z</time>
      </trkpt>
      <trkpt lat="45.18498" lon="0.72658">
        <ele>84.4173147</ele>
        <time>2022-08-18T10:24:22Z</time>
      </trkpt>
      <trkpt lat="45.18491" lon="0.72654">
        <ele>84.6138918</ele>
        <time>2022-08-18T10:24:24Z</time>
      </trkpt>
      <trkpt lat="45.18485" lon="0.72649">
        <ele>84.4040515</ele>
        <time>2022-08-18T10:24:26Z</time>
      </trkpt>
      <trkpt lat="45.18479" lon="0.72643">
        <ele>84.2722538</ele>
        <time>2022-08-18T10:24:28Z</time>
      </trkpt>
      <trkpt lat="45.18472" lon="0.72638">
        <ele>83.847481</ele>
        <time>2022-08-18T10:24:30Z</time>
      </trkpt>
      <trkpt lat="45.18467" lon="0.72634">
        <ele>84.510444</ele>
        <time>2022-08-18T10:24:32Z</time>
      </trkpt>
      <trkpt lat="45.18462" lon="0.72629">
        <ele>84.4712781</ele>
        <time>2022-08-18T10:24:34Z</time>
      </trkpt>
      <trkpt lat="45.18456" lon="0.72626">
        <ele>84.4962819</ele>
        <time>2022-08-18T10:24:36Z</time>
      </trkpt>
      <trkpt lat="45.18452" lon="0.72621">
        <ele>84.1607881</ele>
        <time>2022-08-18T10:24:38Z</time>
      </trkpt>
      <trkpt lat="45.18448" lon="0.72617">
        <ele>84.9392873</ele>
        <time>2022-08-18T10:24:40Z</time>
      </trkpt>
      <trkpt lat="45.18443" lon="0.72613">
        <ele>84.9732052</ele>
        <time>2022-08-18T10:24:42Z</time>
      </trkpt>
      <trkpt lat="45.18438" lon="0.72608">
        <ele>84.1436979</ele>
        <time>2022-08-18T10:24:44Z</time>
      </trkpt>
      <trkpt lat="45.18432" lon="0.72603">
        <ele>84.1898785</ele>
        <time>2022-08-18T10:24:46Z</time>
      </trkpt>
      <trkpt lat="45.18425" lon="0.726">
        <ele>85.2049368</ele>
        <time>2022-08-18T10:24:48Z</time>
      </trkpt>
      <trkpt lat="45.18419" lon="0.72594">
        <ele>86.1542977</ele>
        <time>2022-08-18T10:24:50Z</time>
      </trkpt>
      <trkpt lat="45.18414" lon="0.72588">
        <ele>86.1071191</ele>
        <time>2022-08-18T10:24:52Z</time>
      </trkpt>
      <trkpt lat="45.18408" lon="0.72585">
        <ele>85.5339958</ele>
        <time>2022-08-18T10:24:54Z</time>
      </trkpt>
      <trkpt lat="45.18403" lon="0.72579">
        <ele>86.3095194</ele>
        <time>2022-08-18T10:24:56Z</time>
      </trkpt>
      <trkpt lat="45.18397" lon="0.72575">
        <ele>86.2092524</ele>
        <time>2022-08-18T10:24:58Z</time>
      </trkpt>
      <trkpt lat="45.18392" lon="0.72569">
        <ele>87.299829</ele>
        <time>2022-08-18T10:25:00Z</time>
      </trkpt>
      <trkpt lat="45.18387" lon="0.72565">
        <ele>86.9141351</ele>
        <time>2022-08-18T10:25:02Z</time>
      </trkpt>
      <trkpt lat="45.18382" lon="0.7256">
        <ele>86.397587</ele>
        <time>2022-08-18T10:25:04Z</time>
      </trkpt>
      <trkpt lat="45.18377" lon="0.72557">
        <ele>86.4575392</ele>
        <time>2022-08-18T10:25:06Z</time>
      </trkpt>
      <trkpt lat="45.18373" lon="0.72552">
        <ele>84.7894427</ele>
        <time>2022-08-18T10:25:08Z</time>
      </trkpt>
      <trkpt lat="45.18367" lon="0.72553">
        <ele>84.5649264</ele>
        <time>2022-08-18T10:25:10Z</time>
      </trkpt>
      <trkpt lat="45.18361" lon="0.72552">
        <ele>84.6090775</ele>
        <time>2022-08-18T10:25:12Z</time>
      </trkpt>
      <trkpt lat="45.18356" lon="0.72548">
        <ele>85.5532973</ele>
        <time>2022-08-18T10:25:14Z</time>
      </trkpt>
      <trkpt lat="45.18353" lon="0.72546">
        <ele>85.8097731</ele>
        <time>2022-08-18T10:25:16Z</time>
      </trkpt>
      <trkpt lat="45.18351" lon="0.72545">
        <ele>85.9288133</ele>
        <time>2022-08-18T10:25:18Z</time>
      </trkpt>
      <trkpt lat="45.18348" lon="0.72543">
        <ele>86.6102418</ele>
        <time>2022-08-18T10:25:20Z</time>
      </trkpt>
      <trkpt lat="45.18345" lon="0.72541">
        <ele>86.4515158</ele>
        <time>2022-08-18T10:25:22Z</time>
      </trkpt>
      <trkpt lat="45.18343" lon="0.72539">
        <ele>86.3239691</ele>
        <time>2022-08-18T10:25:24Z</time>
      </trkpt>
      <trkpt lat="45.18341" lon="0.72536">
        <ele>86.4193504</ele>
        <time>2022-08-18T10:25:26Z</time>
      </trkpt>
      <trkpt lat="45.18339" lon="0.72534">
        <ele>87.6657263</ele>
        <time>2022-08-18T10:25:28Z</time>
      </trkpt>
      <trkpt lat="45.18338" lon="0.72532">
        <ele>87.9491261</ele>
        <time>2022-08-18T10:25:30Z</time>
      </trkpt>
      <trkpt lat="45.18338" lon="0.72532">
        <ele>88.0099515</ele>
        <time>2022-08-18T10:25:32Z</time>
      </trkpt>
      <trkpt lat="45.18338" lon="0.72532">
        <ele>87.9907363</ele>
        <time>2022-08-18T10:25:34Z</time>
      </trkpt>
      <trkpt lat="45.18338" lon="0.72532">
        <ele>87.9907363</ele>
        <time>2022-08-18T10:25:38Z</time>
      </trkpt>
      <trkpt lat="45.18338" lon="0.72532">
        <ele>87.9907363</ele>
        <time>2022-08-18T10:25:42Z</time>
      </trkpt>
      <trkpt lat="45.18338" lon="0.7253">
        <ele>90.542062</ele>
        <time>2022-08-18T10:25:46Z</time>
      </trkpt>
      <trkpt lat="45.18338" lon="0.7253">
        <ele>90.542062</ele>
        <time>2022-08-18T10:25:50Z</time>
      </trkpt>
      <trkpt lat="45.18338" lon="0.7253">
        <ele>90.542062</ele>
        <time>2022-08-18T10:25:54Z</time>
      </trkpt>
      <trkpt lat="45.18338" lon="0.72529">
        <ele>94.8636485</ele>
        <time>2022-08-18T10:25:56Z</time>
      </trkpt>
      <trkpt lat="45.18337" lon="0.72528">
        <ele>94.5223282</ele>
        <time>2022-08-18T10:25:58Z</time>
      </trkpt>
      <trkpt lat="45.18337" lon="0.72528">
        <ele>94.5223282</ele>
        <time>2022-08-18T10:26:02Z</time>
      </trkpt>
      <trkpt lat="45.18337" lon="0.72527">
        <ele>94.0682865</ele>
        <time>2022-08-18T10:26:04Z</time>
      </trkpt>
      <trkpt lat="45.18337" lon="0.72527">
        <ele>94.8051064</ele>
        <time>2022-08-18T10:26:06Z</time>
      </trkpt>
      <trkpt lat="45.18337" lon="0.72527">
        <ele>94.8051064</ele>
        <time>2022-08-18T10:26:10Z</time>
      </trkpt>
      <trkpt lat="45.18337" lon="0.72527">
        <ele>94.8051064</ele>
        <time>2022-08-18T10:26:14Z</time>
      </trkpt>
      <trkpt lat="45.18337" lon="0.72527">
        <ele>94.8051064</ele>
        <time>2022-08-18T10:26:18Z</time>
      </trkpt>
      <trkpt lat="45.18337" lon="0.72527">
        <ele>94.8051064</ele>
        <time>2022-08-18T10:26:22Z</time>
      </trkpt>
      <trkpt lat="45.18337" lon="0.72527">
        <ele>95.4561963</ele>
        <time>2022-08-18T10:26:24Z</time>
      </trkpt>
      <trkpt lat="45.18337" lon="0.72528">
        <ele>96.5335499</ele>
        <time>2022-08-18T10:26:28Z</time>
      </trkpt>
      <trkpt lat="45.18336" lon="0.72528">
        <ele>96.5234265</ele>
        <time>2022-08-18T10:26:30Z</time>
      </trkpt>
      <trkpt lat="45.18336" lon="0.72528">
        <ele>96.28148</ele>
        <time>2022-08-18T10:26:32Z</time>
      </trkpt>
      <trkpt lat="45.18336" lon="0.72528">
        <ele>96.28148</ele>
        <time>2022-08-18T10:26:36Z</time>
      </trkpt>
      <trkpt lat="45.18336" lon="0.72527">
        <ele>96.4969823</ele>
        <time>2022-08-18T10:26:38Z</time>
      </trkpt>
      <trkpt lat="45.18336" lon="0.72526">
        <ele>94.5099386</ele>
        <time>2022-08-18T10:26:42Z</time>
      </trkpt>
      <trkpt lat="45.18336" lon="0.72526">
        <ele>93.9918734</ele>
        <time>2022-08-18T10:26:44Z</time>
      </trkpt>
      <trkpt lat="45.18337" lon="0.72526">
        <ele>92.8930848</ele>
        <time>2022-08-18T10:26:48Z</time>
      </trkpt>
      <trkpt lat="45.18337" lon="0.72526">
        <ele>92.0586457</ele>
        <time>2022-08-18T10:26:50Z</time>
      </trkpt>
      <trkpt lat="45.18336" lon="0.72526">
        <ele>92.1276697</ele>
        <time>2022-08-18T10:26:52Z</time>
      </trkpt>
      <trkpt lat="45.18337" lon="0.72526">
        <ele>91.5534548</ele>
        <time>2022-08-18T10:26:54Z</time>
      </trkpt>
      <trkpt lat="45.18337" lon="0.72526">
        <ele>91.3906149</ele>
        <time>2022-08-18T10:26:56Z</time>
      </trkpt>
      <trkpt lat="45.18337" lon="0.72526">
        <ele>91.3906149</ele>
        <time>2022-08-18T10:27:00Z</time>
      </trkpt>
      <trkpt lat="45.18337" lon="0.72526">
        <ele>92.4713405</ele>
        <time>2022-08-18T10:27:02Z</time>
      </trkpt>
      <trkpt lat="45.18337" lon="0.72527">
        <ele>92.5515952</ele>
        <time>2022-08-18T10:27:04Z</time>
      </trkpt>
      <trkpt lat="45.18337" lon="0.72526">
        <ele>93.2672949</ele>
        <time>2022-08-18T10:27:06Z</time>
      </trkpt>
      <trkpt lat="45.18337" lon="0.72526">
        <ele>93.4285996</ele>
        <time>2022-08-18T10:27:08Z</time>
      </trkpt>
      <trkpt lat="45.18337" lon="0.72526">
        <ele>93.2388847</ele>
        <time>2022-08-18T10:27:10Z</time>
      </trkpt>
      <trkpt lat="45.18337" lon="0.72526">
        <ele>91.9890487</ele>
        <time>2022-08-18T10:27:12Z</time>
      </trkpt>
      <trkpt lat="45.18337" lon="0.72526">
        <ele>91.1697132</ele>
        <time>2022-08-18T10:27:14Z</time>
      </trkpt>
      <trkpt lat="45.18337" lon="0.72526">
        <ele>90.649981</ele>
        <time>2022-08-18T10:27:16Z</time>
      </trkpt>
      <trkpt lat="45.18337" lon="0.72526">
        <ele>90.1501483</ele>
        <time>2022-08-18T10:27:18Z</time>
      </trkpt>
      <trkpt lat="45.18336" lon="0.72526">
        <ele>89.6873764</ele>
        <time>2022-08-18T10:27:20Z</time>
      </trkpt>
      <trkpt lat="45.18336" lon="0.72526">
        <ele>90.6769781</ele>
        <time>2022-08-18T10:27:22Z</time>
      </trkpt>
      <trkpt lat="45.18336" lon="0.72526">
        <ele>90.3660411</ele>
        <time>2022-08-18T10:27:24Z</time>
      </trkpt>
      <trkpt lat="45.18336" lon="0.72526">
        <ele>89.0522732</ele>
        <time>2022-08-18T10:27:28Z</time>
      </trkpt>
      <trkpt lat="45.18335" lon="0.72526">
        <ele>89.4496331</ele>
        <time>2022-08-18T10:27:30Z</time>
      </trkpt>
      <trkpt lat="45.18335" lon="0.72526">
        <ele>89.4827715</ele>
        <time>2022-08-18T10:27:32Z</time>
      </trkpt>
      <trkpt lat="45.18335" lon="0.72525">
        <ele>90.226011</ele>
        <time>2022-08-18T10:27:34Z</time>
      </trkpt>
      <trkpt lat="45.18335" lon="0.72525">
        <ele>90.3291998</ele>
        <time>2022-08-18T10:27:36Z</time>
      </trkpt>
      <trkpt lat="45.18336" lon="0.72525">
        <ele>90.5797247</ele>
        <time>2022-08-18T10:27:38Z</time>
      </trkpt>
      <trkpt lat="45.18335" lon="0.72525">
        <ele>90.7513113</ele>
        <time>2022-08-18T10:27:40Z</time>
      </trkpt>
      <trkpt lat="45.18335" lon="0.72525">
        <ele>91.0310413</ele>
        <time>2022-08-18T10:27:42Z</time>
      </trkpt>
      <trkpt lat="45.18335" lon="0.72524">
        <ele>92.2534957</ele>
        <time>2022-08-18T10:27:44Z</time>
      </trkpt>
      <trkpt lat="45.18335" lon="0.72524">
        <ele>92.4667248</ele>
        <time>2022-08-18T10:27:46Z</time>
      </trkpt>
      <trkpt lat="45.18335" lon="0.72524">
        <ele>93.1295747</ele>
        <time>2022-08-18T10:27:48Z</time>
      </trkpt>
      <trkpt lat="45.18335" lon="0.72524">
        <ele>93.4501448</ele>
        <time>2022-08-18T10:27:50Z</time>
      </trkpt>
      <trkpt lat="45.18335" lon="0.72524">
        <ele>93.7797658</ele>
        <time>2022-08-18T10:27:52Z</time>
      </trkpt>
      <trkpt lat="45.18335" lon="0.72524">
        <ele>93.5363899</ele>
        <time>2022-08-18T10:27:54Z</time>
      </trkpt>
      <trkpt lat="45.18335" lon="0.72524">
        <ele>93.878771</ele>
        <time>2022-08-18T10:27:56Z</time>
      </trkpt>
      <trkpt lat="45.18335" lon="0.72524">
        <ele>93.6999484</ele>
        <time>2022-08-18T10:27:58Z</time>
      </trkpt>
      <trkpt lat="45.18335" lon="0.72525">
        <ele>94.0561701</ele>
        <time>2022-08-18T10:28:00Z</time>
      </trkpt>
      <trkpt lat="45.18335" lon="0.72525">
        <ele>94.3516035</ele>
        <time>2022-08-18T10:28:04Z</time>
      </trkpt>
      <trkpt lat="45.18335" lon="0.72525">
        <ele>94.5999101</ele>
        <time>2022-08-18T10:28:06Z</time>
      </trkpt>
      <trkpt lat="45.18335" lon="0.72525">
        <ele>94.6745217</ele>
        <time>2022-08-18T10:28:08Z</time>
      </trkpt>
      <trkpt lat="45.18335" lon="0.72525">
        <ele>95.5371626</ele>
        <time>2022-08-18T10:28:10Z</time>
      </trkpt>
      <trkpt lat="45.18335" lon="0.72525">
        <ele>95.337801</ele>
        <time>2022-08-18T10:28:12Z</time>
      </trkpt>
      <trkpt lat="45.18335" lon="0.72525">
        <ele>94.9644448</ele>
        <time>2022-08-18T10:28:14Z</time>
      </trkpt>
      <trkpt lat="45.18335" lon="0.72525">
        <ele>94.6605967</ele>
        <time>2022-08-18T10:28:16Z</time>
      </trkpt>
      <trkpt lat="45.18335" lon="0.72525">
        <ele>93.4151663</ele>
        <time>2022-08-18T10:28:18Z</time>
      </trkpt>
      <trkpt lat="45.18335" lon="0.72526">
        <ele>92.8347576</ele>
        <time>2022-08-18T10:28:20Z</time>
      </trkpt>
      <trkpt lat="45.18336" lon="0.72526">
        <ele>93.0758009</ele>
        <time>2022-08-18T10:28:22Z</time>
      </trkpt>
      <trkpt lat="45.18336" lon="0.72526">
        <ele>92.6731937</ele>
        <time>2022-08-18T10:28:24Z</time>
      </trkpt>
      <trkpt lat="45.18336" lon="0.72527">
        <ele>92.9230404</ele>
        <time>2022-08-18T10:28:26Z</time>
      </trkpt>
      <trkpt lat="45.18336" lon="0.72526">
        <ele>93.7318077</ele>
        <time>2022-08-18T10:28:28Z</time>
      </trkpt>
      <trkpt lat="45.18336" lon="0.72526">
        <ele>94.1925784</ele>
        <time>2022-08-18T10:28:30Z</time>
      </trkpt>
      <trkpt lat="45.18336" lon="0.72527">
        <ele>93.9335952</ele>
        <time>2022-08-18T10:28:32Z</time>
      </trkpt>
      <trkpt lat="45.18336" lon="0.72527">
        <ele>94.4028189</ele>
        <time>2022-08-18T10:28:34Z</time>
      </trkpt>
      <trkpt lat="45.18336" lon="0.72527">
        <ele>94.7736413</ele>
        <time>2022-08-18T10:28:36Z</time>
      </trkpt>
      <trkpt lat="45.18336" lon="0.72527">
        <ele>95.3970581</ele>
        <time>2022-08-18T10:28:38Z</time>
      </trkpt>
      <trkpt lat="45.18336" lon="0.72527">
        <ele>95.9286331</ele>
        <time>2022-08-18T10:28:40Z</time>
      </trkpt>
      <trkpt lat="45.18336" lon="0.72527">
        <ele>95.7660973</ele>
        <time>2022-08-18T10:28:42Z</time>
      </trkpt>
      <trkpt lat="45.18336" lon="0.72527">
        <ele>95.8548455</ele>
        <time>2022-08-18T10:28:44Z</time>
      </trkpt>
      <trkpt lat="45.18336" lon="0.72527">
        <ele>95.2498564</ele>
        <time>2022-08-18T10:28:46Z</time>
      </trkpt>
      <trkpt lat="45.18336" lon="0.72527">
        <ele>95.3223787</ele>
        <time>2022-08-18T10:28:48Z</time>
      </trkpt>
      <trkpt lat="45.18336" lon="0.72527">
        <ele>94.4564089</ele>
        <time>2022-08-18T10:28:50Z</time>
      </trkpt>
      <trkpt lat="45.18336" lon="0.72527">
        <ele>93.8955564</ele>
        <time>2022-08-18T10:28:52Z</time>
      </trkpt>
      <trkpt lat="45.18336" lon="0.72528">
        <ele>94.213347</ele>
        <time>2022-08-18T10:28:54Z</time>
      </trkpt>
      <trkpt lat="45.18336" lon="0.72527">
        <ele>94.3729819</ele>
        <time>2022-08-18T10:28:56Z</time>
      </trkpt>
      <trkpt lat="45.18336" lon="0.72527">
        <ele>93.9516134</ele>
        <time>2022-08-18T10:28:58Z</time>
      </trkpt>
      <trkpt lat="45.18335" lon="0.72527">
        <ele>93.6270952</ele>
        <time>2022-08-18T10:29:00Z</time>
      </trkpt>
      <trkpt lat="45.18336" lon="0.72528">
        <ele>93.7004648</ele>
        <time>2022-08-18T10:29:02Z</time>
      </trkpt>
      <trkpt lat="45.18336" lon="0.72528">
        <ele>93.4550698</ele>
        <time>2022-08-18T10:29:04Z</time>
      </trkpt>
      <trkpt lat="45.18336" lon="0.72527">
        <ele>94.2320154</ele>
        <time>2022-08-18T10:29:06Z</time>
      </trkpt>
      <trkpt lat="45.18336" lon="0.72527">
        <ele>94.1554863</ele>
        <time>2022-08-18T10:29:08Z</time>
      </trkpt>
      <trkpt lat="45.18335" lon="0.72527">
        <ele>93.8167743</ele>
        <time>2022-08-18T10:29:10Z</time>
      </trkpt>
      <trkpt lat="45.18334" lon="0.72526">
        <ele>93.523627</ele>
        <time>2022-08-18T10:29:12Z</time>
      </trkpt>
      <trkpt lat="45.18334" lon="0.72521">
        <ele>93.549278</ele>
        <time>2022-08-18T10:29:14Z</time>
      </trkpt>
      <trkpt lat="45.18337" lon="0.72516">
        <ele>93.2550851</ele>
        <time>2022-08-18T10:29:16Z</time>
      </trkpt>
      <trkpt lat="45.18341" lon="0.72507">
        <ele>93.1984413</ele>
        <time>2022-08-18T10:29:18Z</time>
      </trkpt>
      <trkpt lat="45.18344" lon="0.725">
        <ele>92.6602839</ele>
        <time>2022-08-18T10:29:20Z</time>
      </trkpt>
      <trkpt lat="45.18347" lon="0.72493">
        <ele>92.2292539</ele>
        <time>2022-08-18T10:29:22Z</time>
      </trkpt>
      <trkpt lat="45.1835" lon="0.72486">
        <ele>91.9560773</ele>
        <time>2022-08-18T10:29:24Z</time>
      </trkpt>
      <trkpt lat="45.18353" lon="0.72479">
        <ele>91.4869536</ele>
        <time>2022-08-18T10:29:26Z</time>
      </trkpt>
      <trkpt lat="45.18357" lon="0.72472">
        <ele>91.5057122</ele>
        <time>2022-08-18T10:29:28Z</time>
      </trkpt>
      <trkpt lat="45.1836" lon="0.72463">
        <ele>91.3299241</ele>
        <time>2022-08-18T10:29:30Z</time>
      </trkpt>
      <trkpt lat="45.18364" lon="0.72454">
        <ele>91.2013012</ele>
        <time>2022-08-18T10:29:32Z</time>
      </trkpt>
      <trkpt lat="45.18369" lon="0.72444">
        <ele>91.1441947</ele>
        <time>2022-08-18T10:29:34Z</time>
      </trkpt>
      <trkpt lat="45.18373" lon="0.72434">
        <ele>91.3045352</ele>
        <time>2022-08-18T10:29:36Z</time>
      </trkpt>
      <trkpt lat="45.18377" lon="0.72425">
        <ele>91.7369867</ele>
        <time>2022-08-18T10:29:38Z</time>
      </trkpt>
      <trkpt lat="45.1838" lon="0.72418">
        <ele>91.9271238</ele>
        <time>2022-08-18T10:29:40Z</time>
      </trkpt>
      <trkpt lat="45.18383" lon="0.7241">
        <ele>92.4913107</ele>
        <time>2022-08-18T10:29:42Z</time>
      </trkpt>
      <trkpt lat="45.18385" lon="0.72402">
        <ele>92.8869355</ele>
        <time>2022-08-18T10:29:44Z</time>
      </trkpt>
      <trkpt lat="45.18386" lon="0.72399">
        <ele>93.6827359</ele>
        <time>2022-08-18T10:29:46Z</time>
      </trkpt>
      <trkpt lat="45.18388" lon="0.72395">
        <ele>94.0969698</ele>
        <time>2022-08-18T10:29:48Z</time>
      </trkpt>
      <trkpt lat="45.18391" lon="0.7239">
        <ele>94.394267</ele>
        <time>2022-08-18T10:29:50Z</time>
      </trkpt>
      <trkpt lat="45.18393" lon="0.72385">
        <ele>95.6952783</ele>
        <time>2022-08-18T10:29:52Z</time>
      </trkpt>
      <trkpt lat="45.18395" lon="0.72379">
        <ele>95.872956</ele>
        <time>2022-08-18T10:29:54Z</time>
      </trkpt>
      <trkpt lat="45.18396" lon="0.72375">
        <ele>95.9992008</ele>
        <time>2022-08-18T10:29:56Z</time>
      </trkpt>
      <trkpt lat="45.18397" lon="0.72371">
        <ele>95.1934978</ele>
        <time>2022-08-18T10:29:58Z</time>
      </trkpt>
      <trkpt lat="45.18399" lon="0.72366">
        <ele>95.6754483</ele>
        <time>2022-08-18T10:30:00Z</time>
      </trkpt>
      <trkpt lat="45.184" lon="0.72363">
        <ele>96.6857928</ele>
        <time>2022-08-18T10:30:02Z</time>
      </trkpt>
      <trkpt lat="45.18401" lon="0.72358">
        <ele>97.6980142</ele>
        <time>2022-08-18T10:30:04Z</time>
      </trkpt>
      <trkpt lat="45.18402" lon="0.72354">
        <ele>98.1939076</ele>
        <time>2022-08-18T10:30:06Z</time>
      </trkpt>
      <trkpt lat="45.18403" lon="0.72349">
        <ele>98.6985607</ele>
        <time>2022-08-18T10:30:08Z</time>
      </trkpt>
      <trkpt lat="45.18404" lon="0.72344">
        <ele>98.6045884</ele>
        <time>2022-08-18T10:30:10Z</time>
      </trkpt>
      <trkpt lat="45.18406" lon="0.72341">
        <ele>99.6978336</ele>
        <time>2022-08-18T10:30:12Z</time>
      </trkpt>
      <trkpt lat="45.18407" lon="0.72337">
        <ele>100.2375838</ele>
        <time>2022-08-18T10:30:14Z</time>
      </trkpt>
      <trkpt lat="45.18408" lon="0.72332">
        <ele>101.4298074</ele>
        <time>2022-08-18T10:30:16Z</time>
      </trkpt>
      <trkpt lat="45.18409" lon="0.72327">
        <ele>102.8031881</ele>
        <time>2022-08-18T10:30:18Z</time>
      </trkpt>
      <trkpt lat="45.1841" lon="0.72323">
        <ele>102.975114</ele>
        <time>2022-08-18T10:30:20Z</time>
      </trkpt>
      <trkpt lat="45.1841" lon="0.7232">
        <ele>103.1221833</ele>
        <time>2022-08-18T10:30:22Z</time>
      </trkpt>
      <trkpt lat="45.18411" lon="0.72316">
        <ele>102.872411</ele>
        <time>2022-08-18T10:30:24Z</time>
      </trkpt>
      <trkpt lat="45.18409" lon="0.72311">
        <ele>103.6630647</ele>
        <time>2022-08-18T10:30:26Z</time>
      </trkpt>
      <trkpt lat="45.18409" lon="0.72308">
        <ele>103.2383572</ele>
        <time>2022-08-18T10:30:28Z</time>
      </trkpt>
      <trkpt lat="45.18408" lon="0.72307">
        <ele>103.5145583</ele>
        <time>2022-08-18T10:30:30Z</time>
      </trkpt>
      <trkpt lat="45.18408" lon="0.72307">
        <ele>103.1523902</ele>
        <time>2022-08-18T10:30:32Z</time>
      </trkpt>
      <trkpt lat="45.18407" lon="0.72307">
        <ele>102.7715114</ele>
        <time>2022-08-18T10:30:34Z</time>
      </trkpt>
      <trkpt lat="45.18408" lon="0.72307">
        <ele>101.9870494</ele>
        <time>2022-08-18T10:30:36Z</time>
      </trkpt>
      <trkpt lat="45.18408" lon="0.72308">
        <ele>102.1520004</ele>
        <time>2022-08-18T10:30:38Z</time>
      </trkpt>
      <trkpt lat="45.18407" lon="0.72308">
        <ele>102.2665588</ele>
        <time>2022-08-18T10:30:40Z</time>
      </trkpt>
      <trkpt lat="45.18406" lon="0.72308">
        <ele>102.6215038</ele>
        <time>2022-08-18T10:30:42Z</time>
      </trkpt>
      <trkpt lat="45.18406" lon="0.72308">
        <ele>103.5764454</ele>
        <time>2022-08-18T10:30:44Z</time>
      </trkpt>
      <trkpt lat="45.18407" lon="0.72307">
        <ele>103.9541622</ele>
        <time>2022-08-18T10:30:46Z</time>
      </trkpt>
      <trkpt lat="45.18407" lon="0.72307">
        <ele>103.6101306</ele>
        <time>2022-08-18T10:30:48Z</time>
      </trkpt>
      <trkpt lat="45.18408" lon="0.72307">
        <ele>102.302025</ele>
        <time>2022-08-18T10:30:50Z</time>
      </trkpt>
      <trkpt lat="45.18408" lon="0.72308">
        <ele>102.6789475</ele>
        <time>2022-08-18T10:30:52Z</time>
      </trkpt>
      <trkpt lat="45.18408" lon="0.72309">
        <ele>103.0450529</ele>
        <time>2022-08-18T10:30:54Z</time>
      </trkpt>
      <trkpt lat="45.18407" lon="0.72309">
        <ele>103.0104051</ele>
        <time>2022-08-18T10:30:56Z</time>
      </trkpt>
      <trkpt lat="45.18407" lon="0.72309">
        <ele>103.5003284</ele>
        <time>2022-08-18T10:30:58Z</time>
      </trkpt>
      <trkpt lat="45.18407" lon="0.72309">
        <ele>103.8997074</ele>
        <time>2022-08-18T10:31:00Z</time>
      </trkpt>
      <trkpt lat="45.18407" lon="0.72309">
        <ele>104.4649258</ele>
        <time>2022-08-18T10:31:02Z</time>
      </trkpt>
      <trkpt lat="45.18407" lon="0.7231">
        <ele>104.4235099</ele>
        <time>2022-08-18T10:31:04Z</time>
      </trkpt>
      <trkpt lat="45.18407" lon="0.7231">
        <ele>104.4180619</ele>
        <time>2022-08-18T10:31:06Z</time>
      </trkpt>
      <trkpt lat="45.18407" lon="0.7231">
        <ele>105.1092326</ele>
        <time>2022-08-18T10:31:08Z</time>
      </trkpt>
      <trkpt lat="45.18407" lon="0.7231">
        <ele>105.5957422</ele>
        <time>2022-08-18T10:31:10Z</time>
      </trkpt>
      <trkpt lat="45.18407" lon="0.7231">
        <ele>106.1694878</ele>
        <time>2022-08-18T10:31:12Z</time>
      </trkpt>
      <trkpt lat="45.18407" lon="0.72309">
        <ele>107.2065422</ele>
        <time>2022-08-18T10:31:14Z</time>
      </trkpt>
      <trkpt lat="45.18407" lon="0.72309">
        <ele>107.3712184</ele>
        <time>2022-08-18T10:31:16Z</time>
      </trkpt>
      <trkpt lat="45.18407" lon="0.72309">
        <ele>107.7357397</ele>
        <time>2022-08-18T10:31:18Z</time>
      </trkpt>
      <trkpt lat="45.18406" lon="0.72308">
        <ele>107.5577178</ele>
        <time>2022-08-18T10:31:20Z</time>
      </trkpt>
      <trkpt lat="45.18407" lon="0.72308">
        <ele>107.9232642</ele>
        <time>2022-08-18T10:31:22Z</time>
      </trkpt>
      <trkpt lat="45.18407" lon="0.72309">
        <ele>108.0046651</ele>
        <time>2022-08-18T10:31:24Z</time>
      </trkpt>
      <trkpt lat="45.18408" lon="0.72309">
        <ele>108.1405281</ele>
        <time>2022-08-18T10:31:26Z</time>
      </trkpt>
      <trkpt lat="45.18407" lon="0.72309">
        <ele>108.5114391</ele>
        <time>2022-08-18T10:31:30Z</time>
      </trkpt>
      <trkpt lat="45.18407" lon="0.72309">
        <ele>108.5114391</ele>
        <time>2022-08-18T10:31:34Z</time>
      </trkpt>
      <trkpt lat="45.18407" lon="0.72309">
        <ele>108.5114391</ele>
        <time>2022-08-18T10:31:38Z</time>
      </trkpt>
      <trkpt lat="45.18407" lon="0.72309">
        <ele>108.5114391</ele>
        <time>2022-08-18T10:31:42Z</time>
      </trkpt>
      <trkpt lat="45.18407" lon="0.72309">
        <ele>108.5114391</ele>
        <time>2022-08-18T10:31:46Z</time>
      </trkpt>
      <trkpt lat="45.18407" lon="0.72309">
        <ele>108.5114391</ele>
        <time>2022-08-18T10:31:50Z</time>
      </trkpt>
      <trkpt lat="45.18407" lon="0.72309">
        <ele>108.5114391</ele>
        <time>2022-08-18T10:31:54Z</time>
      </trkpt>
      <trkpt lat="45.18407" lon="0.72309">
        <ele>108.5114391</ele>
        <time>2022-08-18T10:31:58Z</time>
      </trkpt>
      <trkpt lat="45.18407" lon="0.72309">
        <ele>108.5114391</ele>
        <time>2022-08-18T10:32:02Z</time>
      </trkpt>
      <trkpt lat="45.18407" lon="0.72309">
        <ele>108.5114391</ele>
        <time>2022-08-18T10:32:06Z</time>
      </trkpt>
      <trkpt lat="45.18407" lon="0.72309">
        <ele>108.5114391</ele>
        <time>2022-08-18T10:32:10Z</time>
      </trkpt>
      <trkpt lat="45.18407" lon="0.72308">
        <ele>111.8427391</ele>
        <time>2022-08-18T10:32:12Z</time>
      </trkpt>
      <trkpt lat="45.18407" lon="0.72309">
        <ele>111.7483354</ele>
        <time>2022-08-18T10:32:14Z</time>
      </trkpt>
      <trkpt lat="45.18407" lon="0.72308">
        <ele>111.4760971</ele>
        <time>2022-08-18T10:32:16Z</time>
      </trkpt>
      <trkpt lat="45.18407" lon="0.72308">
        <ele>111.4036651</ele>
        <time>2022-08-18T10:32:18Z</time>
      </trkpt>
      <trkpt lat="45.18408" lon="0.72308">
        <ele>110.8245443</ele>
        <time>2022-08-18T10:32:20Z</time>
      </trkpt>
      <trkpt lat="45.18408" lon="0.72309">
        <ele>110.5669789</ele>
        <time>2022-08-18T10:32:22Z</time>
      </trkpt>
      <trkpt lat="45.18409" lon="0.72309">
        <ele>110.3132046</ele>
        <time>2022-08-18T10:32:24Z</time>
      </trkpt>
      <trkpt lat="45.184" lon="0.72259">
        <ele>103.6373444</ele>
        <time>2022-08-18T13:44:27Z</time>
      </trkpt>
      <trkpt lat="45.184" lon="0.72259">
        <ele>103.6486969</ele>
        <time>2022-08-18T13:44:29Z</time>
      </trkpt>
      <trkpt lat="45.18401" lon="0.72259">
        <ele>103.6623688</ele>
        <time>2022-08-18T13:44:31Z</time>
      </trkpt>
      <trkpt lat="45.18407" lon="0.72258">
        <ele>101.851028</ele>
        <time>2022-08-18T13:44:35Z</time>
      </trkpt>
      <trkpt lat="45.18405" lon="0.72259">
        <ele>101.6924532</ele>
        <time>2022-08-18T13:44:37Z</time>
      </trkpt>
      <trkpt lat="45.18405" lon="0.72258">
        <ele>101.0599584</ele>
        <time>2022-08-18T13:44:39Z</time>
      </trkpt>
      <trkpt lat="45.18404" lon="0.72259">
        <ele>100.6741165</ele>
        <time>2022-08-18T13:44:41Z</time>
      </trkpt>
      <trkpt lat="45.18404" lon="0.72259">
        <ele>101.6365388</ele>
        <time>2022-08-18T13:44:43Z</time>
      </trkpt>
      <trkpt lat="45.18403" lon="0.72261">
        <ele>102.0359026</ele>
        <time>2022-08-18T13:44:45Z</time>
      </trkpt>
      <trkpt lat="45.18403" lon="0.72261">
        <ele>103.1389553</ele>
        <time>2022-08-18T13:44:47Z</time>
      </trkpt>
      <trkpt lat="45.18403" lon="0.72259">
        <ele>103.7856079</ele>
        <time>2022-08-18T13:44:49Z</time>
      </trkpt>
      <trkpt lat="45.18402" lon="0.72255">
        <ele>103.2242993</ele>
        <time>2022-08-18T13:44:51Z</time>
      </trkpt>
      <trkpt lat="45.18399" lon="0.72254">
        <ele>102.5966557</ele>
        <time>2022-08-18T13:44:53Z</time>
      </trkpt>
      <trkpt lat="45.18393" lon="0.72253">
        <ele>106.0564242</ele>
        <time>2022-08-18T13:44:55Z</time>
      </trkpt>
      <trkpt lat="45.18388" lon="0.72259">
        <ele>109.0732161</ele>
        <time>2022-08-18T13:44:57Z</time>
      </trkpt>
      <trkpt lat="45.18386" lon="0.72258">
        <ele>110.6120318</ele>
        <time>2022-08-18T13:44:59Z</time>
      </trkpt>
      <trkpt lat="45.18381" lon="0.72257">
        <ele>111.1587966</ele>
        <time>2022-08-18T13:45:01Z</time>
      </trkpt>
      <trkpt lat="45.18378" lon="0.72252">
        <ele>111.2787499</ele>
        <time>2022-08-18T13:45:03Z</time>
      </trkpt>
      <trkpt lat="45.18379" lon="0.72247">
        <ele>112.5173784</ele>
        <time>2022-08-18T13:45:05Z</time>
      </trkpt>
      <trkpt lat="45.18377" lon="0.72242">
        <ele>112.497928</ele>
        <time>2022-08-18T13:45:07Z</time>
      </trkpt>
      <trkpt lat="45.18376" lon="0.72238">
        <ele>111.784389</ele>
        <time>2022-08-18T13:45:09Z</time>
      </trkpt>
      <trkpt lat="45.18376" lon="0.7223">
        <ele>112.0021871</ele>
        <time>2022-08-18T13:45:11Z</time>
      </trkpt>
      <trkpt lat="45.18375" lon="0.72224">
        <ele>112.2930046</ele>
        <time>2022-08-18T13:45:13Z</time>
      </trkpt>
      <trkpt lat="45.18375" lon="0.72218">
        <ele>111.8110349</ele>
        <time>2022-08-18T13:45:15Z</time>
      </trkpt>
      <trkpt lat="45.18374" lon="0.72214">
        <ele>111.5153644</ele>
        <time>2022-08-18T13:45:17Z</time>
      </trkpt>
      <trkpt lat="45.18374" lon="0.7221">
        <ele>112.1609297</ele>
        <time>2022-08-18T13:45:19Z</time>
      </trkpt>
      <trkpt lat="45.18374" lon="0.72204">
        <ele>110.6805114</ele>
        <time>2022-08-18T13:45:21Z</time>
      </trkpt>
      <trkpt lat="45.18373" lon="0.72196">
        <ele>109.7857697</ele>
        <time>2022-08-18T13:45:23Z</time>
      </trkpt>
      <trkpt lat="45.18371" lon="0.72189">
        <ele>109.1274096</ele>
        <time>2022-08-18T13:45:25Z</time>
      </trkpt>
      <trkpt lat="45.18368" lon="0.72182">
        <ele>110.0312253</ele>
        <time>2022-08-18T13:45:27Z</time>
      </trkpt>
      <trkpt lat="45.18365" lon="0.72175">
        <ele>109.2922097</ele>
        <time>2022-08-18T13:45:29Z</time>
      </trkpt>
      <trkpt lat="45.18362" lon="0.72168">
        <ele>109.7046108</ele>
        <time>2022-08-18T13:45:31Z</time>
      </trkpt>
      <trkpt lat="45.18359" lon="0.7216">
        <ele>109.8972918</ele>
        <time>2022-08-18T13:45:33Z</time>
      </trkpt>
      <trkpt lat="45.18356" lon="0.72153">
        <ele>110.2464984</ele>
        <time>2022-08-18T13:45:35Z</time>
      </trkpt>
      <trkpt lat="45.18353" lon="0.72147">
        <ele>109.7424091</ele>
        <time>2022-08-18T13:45:37Z</time>
      </trkpt>
      <trkpt lat="45.1835" lon="0.72139">
        <ele>109.1289239</ele>
        <time>2022-08-18T13:45:39Z</time>
      </trkpt>
      <trkpt lat="45.18349" lon="0.72132">
        <ele>108.559536</ele>
        <time>2022-08-18T13:45:41Z</time>
      </trkpt>
      <trkpt lat="45.1835" lon="0.72123">
        <ele>108.9624963</ele>
        <time>2022-08-18T13:45:43Z</time>
      </trkpt>
      <trkpt lat="45.1835" lon="0.72115">
        <ele>108.3130644</ele>
        <time>2022-08-18T13:45:45Z</time>
      </trkpt>
      <trkpt lat="45.1835" lon="0.72109">
        <ele>109.0836073</ele>
        <time>2022-08-18T13:45:47Z</time>
      </trkpt>
      <trkpt lat="45.18349" lon="0.7211">
        <ele>108.922905</ele>
        <time>2022-08-18T13:45:49Z</time>
      </trkpt>
      <trkpt lat="45.1835" lon="0.7211">
        <ele>108.7772093</ele>
        <time>2022-08-18T13:45:51Z</time>
      </trkpt>
      <trkpt lat="45.1835" lon="0.7211">
        <ele>109.7151302</ele>
        <time>2022-08-18T13:45:55Z</time>
      </trkpt>
      <trkpt lat="45.18351" lon="0.7211">
        <ele>109.9787012</ele>
        <time>2022-08-18T13:45:57Z</time>
      </trkpt>
      <trkpt lat="45.18351" lon="0.7211">
        <ele>110.2069751</ele>
        <time>2022-08-18T13:45:59Z</time>
      </trkpt>
      <trkpt lat="45.1835" lon="0.7211">
        <ele>111.4021017</ele>
        <time>2022-08-18T13:46:03Z</time>
      </trkpt>
      <trkpt lat="45.1835" lon="0.7211">
        <ele>111.4021017</ele>
        <time>2022-08-18T13:46:07Z</time>
      </trkpt>
      <trkpt lat="45.18349" lon="0.72106">
        <ele>111.6966072</ele>
        <time>2022-08-18T13:46:09Z</time>
      </trkpt>
      <trkpt lat="45.18349" lon="0.721">
        <ele>111.0986361</ele>
        <time>2022-08-18T13:46:11Z</time>
      </trkpt>
      <trkpt lat="45.18348" lon="0.72094">
        <ele>110.6978852</ele>
        <time>2022-08-18T13:46:13Z</time>
      </trkpt>
      <trkpt lat="45.1835" lon="0.72087">
        <ele>110.9259992</ele>
        <time>2022-08-18T13:46:15Z</time>
      </trkpt>
      <trkpt lat="45.1835" lon="0.72084">
        <ele>111.3309949</ele>
        <time>2022-08-18T13:46:16Z</time>
      </trkpt>
      <trkpt lat="45.18349" lon="0.72078">
        <ele>112.0090011</ele>
        <time>2022-08-18T13:46:18Z</time>
      </trkpt>
      <trkpt lat="45.18348" lon="0.72072">
        <ele>112.2823156</ele>
        <time>2022-08-18T13:46:20Z</time>
      </trkpt>
      <trkpt lat="45.18348" lon="0.72064">
        <ele>112.4617606</ele>
        <time>2022-08-18T13:46:22Z</time>
      </trkpt>
      <trkpt lat="45.18347" lon="0.72057">
        <ele>111.8504084</ele>
        <time>2022-08-18T13:46:24Z</time>
      </trkpt>
      <trkpt lat="45.18346" lon="0.72049">
        <ele>111.3628195</ele>
        <time>2022-08-18T13:46:26Z</time>
      </trkpt>
      <trkpt lat="45.18347" lon="0.72042">
        <ele>111.5141724</ele>
        <time>2022-08-18T13:46:28Z</time>
      </trkpt>
      <trkpt lat="45.18347" lon="0.72034">
        <ele>109.7496183</ele>
        <time>2022-08-18T13:46:30Z</time>
      </trkpt>
      <trkpt lat="45.18348" lon="0.72019">
        <ele>110.3025477</ele>
        <time>2022-08-18T13:46:33Z</time>
      </trkpt>
      <trkpt lat="45.18349" lon="0.72009">
        <ele>109.7108295</ele>
        <time>2022-08-18T13:46:35Z</time>
      </trkpt>
      <trkpt lat="45.18348" lon="0.71997">
        <ele>109.9047851</ele>
        <time>2022-08-18T13:46:37Z</time>
      </trkpt>
      <trkpt lat="45.18349" lon="0.71989">
        <ele>109.8633981</ele>
        <time>2022-08-18T13:46:39Z</time>
      </trkpt>
      <trkpt lat="45.18349" lon="0.71986">
        <ele>110.6233816</ele>
        <time>2022-08-18T13:46:41Z</time>
      </trkpt>
      <trkpt lat="45.18349" lon="0.7198">
        <ele>110.1968657</ele>
        <time>2022-08-18T13:46:43Z</time>
      </trkpt>
      <trkpt lat="45.18348" lon="0.71973">
        <ele>110.7246536</ele>
        <time>2022-08-18T13:46:45Z</time>
      </trkpt>
      <trkpt lat="45.18348" lon="0.71964">
        <ele>108.658328</ele>
        <time>2022-08-18T13:46:47Z</time>
      </trkpt>
      <trkpt lat="45.1835" lon="0.71961">
        <ele>108.8619671</ele>
        <time>2022-08-18T13:46:49Z</time>
      </trkpt>
      <trkpt lat="45.18351" lon="0.71954">
        <ele>108.3077684</ele>
        <time>2022-08-18T13:46:51Z</time>
      </trkpt>
      <trkpt lat="45.18352" lon="0.71945">
        <ele>108.2458436</ele>
        <time>2022-08-18T13:46:53Z</time>
      </trkpt>
      <trkpt lat="45.18352" lon="0.71937">
        <ele>108.4583499</ele>
        <time>2022-08-18T13:46:55Z</time>
      </trkpt>
      <trkpt lat="45.18354" lon="0.71929">
        <ele>107.1912361</ele>
        <time>2022-08-18T13:46:57Z</time>
      </trkpt>
      <trkpt lat="45.18355" lon="0.7192">
        <ele>106.6205037</ele>
        <time>2022-08-18T13:46:59Z</time>
      </trkpt>
      <trkpt lat="45.18356" lon="0.71911">
        <ele>105.3748037</ele>
        <time>2022-08-18T13:47:01Z</time>
      </trkpt>
      <trkpt lat="45.18356" lon="0.71904">
        <ele>104.9305279</ele>
        <time>2022-08-18T13:47:03Z</time>
      </trkpt>
      <trkpt lat="45.18357" lon="0.71898">
        <ele>106.208005</ele>
        <time>2022-08-18T13:47:05Z</time>
      </trkpt>
      <trkpt lat="45.18357" lon="0.71894">
        <ele>104.5852404</ele>
        <time>2022-08-18T13:47:07Z</time>
      </trkpt>
      <trkpt lat="45.18357" lon="0.71892">
        <ele>104.9081003</ele>
        <time>2022-08-18T13:47:09Z</time>
      </trkpt>
      <trkpt lat="45.18357" lon="0.71892">
        <ele>104.7143633</ele>
        <time>2022-08-18T13:47:11Z</time>
      </trkpt>
      <trkpt lat="45.18357" lon="0.71891">
        <ele>105.1260804</ele>
        <time>2022-08-18T13:47:13Z</time>
      </trkpt>
      <trkpt lat="45.18357" lon="0.71891">
        <ele>105.3529609</ele>
        <time>2022-08-18T13:47:15Z</time>
      </trkpt>
      <trkpt lat="45.18357" lon="0.71892">
        <ele>104.8062541</ele>
        <time>2022-08-18T13:47:19Z</time>
      </trkpt>
      <trkpt lat="45.18357" lon="0.71892">
        <ele>104.8062541</ele>
        <time>2022-08-18T13:47:23Z</time>
      </trkpt>
      <trkpt lat="45.18356" lon="0.7189">
        <ele>105.9972214</ele>
        <time>2022-08-18T13:47:27Z</time>
      </trkpt>
      <trkpt lat="45.18356" lon="0.71889">
        <ele>106.2528335</ele>
        <time>2022-08-18T13:47:29Z</time>
      </trkpt>
      <trkpt lat="45.18357" lon="0.71888">
        <ele>108.3744766</ele>
        <time>2022-08-18T13:47:33Z</time>
      </trkpt>
      <trkpt lat="45.18357" lon="0.71888">
        <ele>109.113016</ele>
        <time>2022-08-18T13:47:35Z</time>
      </trkpt>
      <trkpt lat="45.18353" lon="0.71887">
        <ele>108.6915791</ele>
        <time>2022-08-18T13:47:37Z</time>
      </trkpt>
      <trkpt lat="45.1835" lon="0.71886">
        <ele>107.9144018</ele>
        <time>2022-08-18T13:47:39Z</time>
      </trkpt>
      <trkpt lat="45.1835" lon="0.71885">
        <ele>107.5560132</ele>
        <time>2022-08-18T13:47:41Z</time>
      </trkpt>
      <trkpt lat="45.18351" lon="0.71885">
        <ele>108.1572808</ele>
        <time>2022-08-18T13:47:43Z</time>
      </trkpt>
      <trkpt lat="45.18351" lon="0.7188">
        <ele>108.2511778</ele>
        <time>2022-08-18T13:47:45Z</time>
      </trkpt>
      <trkpt lat="45.18353" lon="0.71875">
        <ele>106.7314014</ele>
        <time>2022-08-18T13:47:47Z</time>
      </trkpt>
      <trkpt lat="45.18353" lon="0.71872">
        <ele>107.9793986</ele>
        <time>2022-08-18T13:47:49Z</time>
      </trkpt>
      <trkpt lat="45.18355" lon="0.71868">
        <ele>108.1873717</ele>
        <time>2022-08-18T13:47:51Z</time>
      </trkpt>
      <trkpt lat="45.18357" lon="0.71865">
        <ele>106.5719445</ele>
        <time>2022-08-18T13:47:53Z</time>
      </trkpt>
      <trkpt lat="45.18355" lon="0.71859">
        <ele>106.8230914</ele>
        <time>2022-08-18T13:47:55Z</time>
      </trkpt>
      <trkpt lat="45.18357" lon="0.71855">
        <ele>107.0336427</ele>
        <time>2022-08-18T13:47:57Z</time>
      </trkpt>
      <trkpt lat="45.18358" lon="0.71852">
        <ele>105.8707443</ele>
        <time>2022-08-18T13:47:59Z</time>
      </trkpt>
      <trkpt lat="45.1836" lon="0.7185">
        <ele>104.4734682</ele>
        <time>2022-08-18T13:48:01Z</time>
      </trkpt>
      <trkpt lat="45.18361" lon="0.71846">
        <ele>104.7236108</ele>
        <time>2022-08-18T13:48:03Z</time>
      </trkpt>
      <trkpt lat="45.18362" lon="0.71842">
        <ele>104.5720824</ele>
        <time>2022-08-18T13:48:05Z</time>
      </trkpt>
      <trkpt lat="45.18363" lon="0.71839">
        <ele>104.4289517</ele>
        <time>2022-08-18T13:48:07Z</time>
      </trkpt>
      <trkpt lat="45.18365" lon="0.71836">
        <ele>104.6444802</ele>
        <time>2022-08-18T13:48:09Z</time>
      </trkpt>
      <trkpt lat="45.18368" lon="0.71833">
        <ele>104.7777451</ele>
        <time>2022-08-18T13:48:11Z</time>
      </trkpt>
      <trkpt lat="45.1837" lon="0.7183">
        <ele>105.3030201</ele>
        <time>2022-08-18T13:48:13Z</time>
      </trkpt>
      <trkpt lat="45.18373" lon="0.71828">
        <ele>105.8836298</ele>
        <time>2022-08-18T13:48:15Z</time>
      </trkpt>
      <trkpt lat="45.18375" lon="0.71825">
        <ele>107.3890336</ele>
        <time>2022-08-18T13:48:17Z</time>
      </trkpt>
      <trkpt lat="45.18376" lon="0.7182">
        <ele>107.9993466</ele>
        <time>2022-08-18T13:48:19Z</time>
      </trkpt>
      <trkpt lat="45.18377" lon="0.71815">
        <ele>108.4103677</ele>
        <time>2022-08-18T13:48:21Z</time>
      </trkpt>
      <trkpt lat="45.18374" lon="0.71809">
        <ele>107.4445542</ele>
        <time>2022-08-18T13:48:23Z</time>
      </trkpt>
      <trkpt lat="45.1837" lon="0.71803">
        <ele>106.4253686</ele>
        <time>2022-08-18T13:48:25Z</time>
      </trkpt>
      <trkpt lat="45.18366" lon="0.71796">
        <ele>105.3274583</ele>
        <time>2022-08-18T13:48:27Z</time>
      </trkpt>
      <trkpt lat="45.18366" lon="0.7179">
        <ele>105.4253637</ele>
        <time>2022-08-18T13:48:29Z</time>
      </trkpt>
      <trkpt lat="45.18368" lon="0.71791">
        <ele>104.6317796</ele>
        <time>2022-08-18T13:48:30Z</time>
      </trkpt>
      <trkpt lat="45.18369" lon="0.71793">
        <ele>104.8125731</ele>
        <time>2022-08-18T13:48:32Z</time>
      </trkpt>
      <trkpt lat="45.18373" lon="0.71793">
        <ele>105.2899575</ele>
        <time>2022-08-18T13:48:34Z</time>
      </trkpt>
      <trkpt lat="45.18376" lon="0.71791">
        <ele>105.356648</ele>
        <time>2022-08-18T13:48:36Z</time>
      </trkpt>
      <trkpt lat="45.18378" lon="0.71786">
        <ele>104.2604508</ele>
        <time>2022-08-18T13:48:38Z</time>
      </trkpt>
      <trkpt lat="45.18379" lon="0.71783">
        <ele>104.750214</ele>
        <time>2022-08-18T13:48:40Z</time>
      </trkpt>
      <trkpt lat="45.18381" lon="0.71779">
        <ele>104.101231</ele>
        <time>2022-08-18T13:48:42Z</time>
      </trkpt>
      <trkpt lat="45.18383" lon="0.71777">
        <ele>104.7043803</ele>
        <time>2022-08-18T13:48:44Z</time>
      </trkpt>
      <trkpt lat="45.18385" lon="0.71774">
        <ele>105.4796785</ele>
        <time>2022-08-18T13:48:46Z</time>
      </trkpt>
      <trkpt lat="45.18388" lon="0.71772">
        <ele>105.3118291</ele>
        <time>2022-08-18T13:48:48Z</time>
      </trkpt>
      <trkpt lat="45.18389" lon="0.7177">
        <ele>105.5209038</ele>
        <time>2022-08-18T13:48:50Z</time>
      </trkpt>
      <trkpt lat="45.1839" lon="0.71768">
        <ele>105.0558893</ele>
        <time>2022-08-18T13:48:52Z</time>
      </trkpt>
      <trkpt lat="45.18392" lon="0.71766">
        <ele>104.9006851</ele>
        <time>2022-08-18T13:48:54Z</time>
      </trkpt>
      <trkpt lat="45.18393" lon="0.71763">
        <ele>104.5208149</ele>
        <time>2022-08-18T13:48:56Z</time>
      </trkpt>
      <trkpt lat="45.18394" lon="0.71761">
        <ele>104.2205562</ele>
        <time>2022-08-18T13:48:58Z</time>
      </trkpt>
      <trkpt lat="45.18395" lon="0.71758">
        <ele>103.7523085</ele>
        <time>2022-08-18T13:49:00Z</time>
      </trkpt>
      <trkpt lat="45.18396" lon="0.71756">
        <ele>104.2838129</ele>
        <time>2022-08-18T13:49:02Z</time>
      </trkpt>
      <trkpt lat="45.18397" lon="0.71755">
        <ele>105.0564529</ele>
        <time>2022-08-18T13:49:04Z</time>
      </trkpt>
      <trkpt lat="45.18398" lon="0.71755">
        <ele>105.2842171</ele>
        <time>2022-08-18T13:49:06Z</time>
      </trkpt>
      <trkpt lat="45.18399" lon="0.71756">
        <ele>105.8129544</ele>
        <time>2022-08-18T13:49:08Z</time>
      </trkpt>
      <trkpt lat="45.18401" lon="0.71754">
        <ele>106.1951214</ele>
        <time>2022-08-18T13:49:10Z</time>
      </trkpt>
      <trkpt lat="45.18401" lon="0.71751">
        <ele>106.5208478</ele>
        <time>2022-08-18T13:49:12Z</time>
      </trkpt>
      <trkpt lat="45.18401" lon="0.71749">
        <ele>106.0547268</ele>
        <time>2022-08-18T13:49:14Z</time>
      </trkpt>
      <trkpt lat="45.18403" lon="0.71747">
        <ele>106.9631843</ele>
        <time>2022-08-18T13:49:16Z</time>
      </trkpt>
      <trkpt lat="45.18403" lon="0.71745">
        <ele>107.3849117</ele>
        <time>2022-08-18T13:49:18Z</time>
      </trkpt>
      <trkpt lat="45.18403" lon="0.71745">
        <ele>107.5772606</ele>
        <time>2022-08-18T13:49:20Z</time>
      </trkpt>
      <trkpt lat="45.18402" lon="0.71745">
        <ele>108.2166745</ele>
        <time>2022-08-18T13:49:22Z</time>
      </trkpt>
      <trkpt lat="45.18402" lon="0.71745">
        <ele>108.6730616</ele>
        <time>2022-08-18T13:49:24Z</time>
      </trkpt>
      <trkpt lat="45.18401" lon="0.71745">
        <ele>108.9817867</ele>
        <time>2022-08-18T13:49:26Z</time>
      </trkpt>
      <trkpt lat="45.18401" lon="0.71745">
        <ele>110.8765689</ele>
        <time>2022-08-18T13:49:30Z</time>
      </trkpt>
      <trkpt lat="45.18401" lon="0.71744">
        <ele>111.0141337</ele>
        <time>2022-08-18T13:49:32Z</time>
      </trkpt>
      <trkpt lat="45.18401" lon="0.7174">
        <ele>111.1722943</ele>
        <time>2022-08-18T13:49:34Z</time>
      </trkpt>
      <trkpt lat="45.18403" lon="0.71736">
        <ele>111.7722505</ele>
        <time>2022-08-18T13:49:36Z</time>
      </trkpt>
      <trkpt lat="45.18405" lon="0.71729">
        <ele>111.8675463</ele>
        <time>2022-08-18T13:49:38Z</time>
      </trkpt>
      <trkpt lat="45.18405" lon="0.71721">
        <ele>110.3475587</ele>
        <time>2022-08-18T13:49:40Z</time>
      </trkpt>
      <trkpt lat="45.18406" lon="0.71712">
        <ele>111.7558693</ele>
        <time>2022-08-18T13:49:42Z</time>
      </trkpt>
      <trkpt lat="45.18406" lon="0.71708">
        <ele>113.9566267</ele>
        <time>2022-08-18T13:49:44Z</time>
      </trkpt>
      <trkpt lat="45.18404" lon="0.71707">
        <ele>112.1451968</ele>
        <time>2022-08-18T13:49:46Z</time>
      </trkpt>
      <trkpt lat="45.18403" lon="0.71707">
        <ele>112.5890594</ele>
        <time>2022-08-18T13:49:48Z</time>
      </trkpt>
      <trkpt lat="45.18402" lon="0.71707">
        <ele>112.7434258</ele>
        <time>2022-08-18T13:49:50Z</time>
      </trkpt>
      <trkpt lat="45.18401" lon="0.71707">
        <ele>113.4661555</ele>
        <time>2022-08-18T13:49:52Z</time>
      </trkpt>
      <trkpt lat="45.18401" lon="0.71706">
        <ele>113.5604208</ele>
        <time>2022-08-18T13:49:54Z</time>
      </trkpt>
      <trkpt lat="45.18401" lon="0.71705">
        <ele>113.5259408</ele>
        <time>2022-08-18T13:49:56Z</time>
      </trkpt>
      <trkpt lat="45.18401" lon="0.71704">
        <ele>113.7884683</ele>
        <time>2022-08-18T13:49:58Z</time>
      </trkpt>
      <trkpt lat="45.18401" lon="0.71701">
        <ele>113.6382347</ele>
        <time>2022-08-18T13:50:00Z</time>
      </trkpt>
      <trkpt lat="45.18402" lon="0.71696">
        <ele>113.8062559</ele>
        <time>2022-08-18T13:50:02Z</time>
      </trkpt>
      <trkpt lat="45.18403" lon="0.7169">
        <ele>114.0305708</ele>
        <time>2022-08-18T13:50:04Z</time>
      </trkpt>
      <trkpt lat="45.18405" lon="0.71685">
        <ele>113.8757324</ele>
        <time>2022-08-18T13:50:06Z</time>
      </trkpt>
      <trkpt lat="45.18407" lon="0.71677">
        <ele>113.4249333</ele>
        <time>2022-08-18T13:50:08Z</time>
      </trkpt>
      <trkpt lat="45.18409" lon="0.71669">
        <ele>113.8765169</ele>
        <time>2022-08-18T13:50:10Z</time>
      </trkpt>
      <trkpt lat="45.18411" lon="0.71661">
        <ele>115.2313841</ele>
        <time>2022-08-18T13:50:12Z</time>
      </trkpt>
      <trkpt lat="45.18414" lon="0.71652">
        <ele>116.6143181</ele>
        <time>2022-08-18T13:50:14Z</time>
      </trkpt>
      <trkpt lat="45.18417" lon="0.71645">
        <ele>115.886696</ele>
        <time>2022-08-18T13:50:16Z</time>
      </trkpt>
      <trkpt lat="45.18419" lon="0.71636">
        <ele>116.3752403</ele>
        <time>2022-08-18T13:50:18Z</time>
      </trkpt>
      <trkpt lat="45.18421" lon="0.71628">
        <ele>115.395642</ele>
        <time>2022-08-18T13:50:20Z</time>
      </trkpt>
      <trkpt lat="45.18423" lon="0.7162">
        <ele>115.130254</ele>
        <time>2022-08-18T13:50:22Z</time>
      </trkpt>
      <trkpt lat="45.18426" lon="0.71611">
        <ele>114.88241</ele>
        <time>2022-08-18T13:50:24Z</time>
      </trkpt>
      <trkpt lat="45.18428" lon="0.71602">
        <ele>114.5222807</ele>
        <time>2022-08-18T13:50:26Z</time>
      </trkpt>
      <trkpt lat="45.18432" lon="0.71594">
        <ele>112.8849791</ele>
        <time>2022-08-18T13:50:28Z</time>
      </trkpt>
      <trkpt lat="45.18434" lon="0.71584">
        <ele>112.738518</ele>
        <time>2022-08-18T13:50:30Z</time>
      </trkpt>
      <trkpt lat="45.18438" lon="0.71575">
        <ele>112.3716302</ele>
        <time>2022-08-18T13:50:32Z</time>
      </trkpt>
      <trkpt lat="45.18441" lon="0.71565">
        <ele>111.4636833</ele>
        <time>2022-08-18T13:50:34Z</time>
      </trkpt>
      <trkpt lat="45.18444" lon="0.71556">
        <ele>110.8478142</ele>
        <time>2022-08-18T13:50:36Z</time>
      </trkpt>
      <trkpt lat="45.18449" lon="0.71548">
        <ele>110.7535375</ele>
        <time>2022-08-18T13:50:38Z</time>
      </trkpt>
      <trkpt lat="45.18452" lon="0.71537">
        <ele>110.2286052</ele>
        <time>2022-08-18T13:50:40Z</time>
      </trkpt>
      <trkpt lat="45.18456" lon="0.71527">
        <ele>110.1658766</ele>
        <time>2022-08-18T13:50:42Z</time>
      </trkpt>
      <trkpt lat="45.18459" lon="0.71515">
        <ele>110.5620486</ele>
        <time>2022-08-18T13:50:44Z</time>
      </trkpt>
      <trkpt lat="45.18462" lon="0.71504">
        <ele>109.966642</ele>
        <time>2022-08-18T13:50:46Z</time>
      </trkpt>
      <trkpt lat="45.18464" lon="0.71492">
        <ele>111.9604162</ele>
        <time>2022-08-18T13:50:48Z</time>
      </trkpt>
      <trkpt lat="45.18468" lon="0.71481">
        <ele>112.6518529</ele>
        <time>2022-08-18T13:50:50Z</time>
      </trkpt>
      <trkpt lat="45.18471" lon="0.7147">
        <ele>112.3765862</ele>
        <time>2022-08-18T13:50:52Z</time>
      </trkpt>
      <trkpt lat="45.18475" lon="0.71458">
        <ele>112.0158656</ele>
        <time>2022-08-18T13:50:54Z</time>
      </trkpt>
      <trkpt lat="45.1848" lon="0.71446">
        <ele>110.7440068</ele>
        <time>2022-08-18T13:50:56Z</time>
      </trkpt>
      <trkpt lat="45.18483" lon="0.71436">
        <ele>110.6445015</ele>
        <time>2022-08-18T13:50:58Z</time>
      </trkpt>
      <trkpt lat="45.18488" lon="0.71425">
        <ele>110.2321382</ele>
        <time>2022-08-18T13:51:00Z</time>
      </trkpt>
      <trkpt lat="45.18493" lon="0.71414">
        <ele>109.5044804</ele>
        <time>2022-08-18T13:51:02Z</time>
      </trkpt>
      <trkpt lat="45.18497" lon="0.71402">
        <ele>109.2242499</ele>
        <time>2022-08-18T13:51:04Z</time>
      </trkpt>
      <trkpt lat="45.18502" lon="0.7139">
        <ele>108.0238015</ele>
        <time>2022-08-18T13:51:06Z</time>
      </trkpt>
      <trkpt lat="45.18507" lon="0.71379">
        <ele>107.4801495</ele>
        <time>2022-08-18T13:51:08Z</time>
      </trkpt>
      <trkpt lat="45.18511" lon="0.71365">
        <ele>107.7418242</ele>
        <time>2022-08-18T13:51:10Z</time>
      </trkpt>
      <trkpt lat="45.18515" lon="0.71352">
        <ele>107.1879642</ele>
        <time>2022-08-18T13:51:12Z</time>
      </trkpt>
      <trkpt lat="45.1852" lon="0.71341">
        <ele>106.7671197</ele>
        <time>2022-08-18T13:51:14Z</time>
      </trkpt>
      <trkpt lat="45.18525" lon="0.71329">
        <ele>106.6974703</ele>
        <time>2022-08-18T13:51:16Z</time>
      </trkpt>
      <trkpt lat="45.1853" lon="0.71318">
        <ele>105.6697233</ele>
        <time>2022-08-18T13:51:18Z</time>
      </trkpt>
      <trkpt lat="45.18534" lon="0.71306">
        <ele>105.8236274</ele>
        <time>2022-08-18T13:51:20Z</time>
      </trkpt>
      <trkpt lat="45.18538" lon="0.71296">
        <ele>105.1162867</ele>
        <time>2022-08-18T13:51:22Z</time>
      </trkpt>
      <trkpt lat="45.18542" lon="0.71287">
        <ele>105.5011963</ele>
        <time>2022-08-18T13:51:24Z</time>
      </trkpt>
      <trkpt lat="45.18549" lon="0.71281">
        <ele>105.3945048</ele>
        <time>2022-08-18T13:51:26Z</time>
      </trkpt>
      <trkpt lat="45.18557" lon="0.71281">
        <ele>105.1110199</ele>
        <time>2022-08-18T13:51:28Z</time>
      </trkpt>
      <trkpt lat="45.18563" lon="0.71271">
        <ele>106.4622011</ele>
        <time>2022-08-18T13:51:30Z</time>
      </trkpt>
      <trkpt lat="45.18562" lon="0.71259">
        <ele>104.9539358</ele>
        <time>2022-08-18T13:51:32Z</time>
      </trkpt>
      <trkpt lat="45.18555" lon="0.71251">
        <ele>102.5040382</ele>
        <time>2022-08-18T13:51:34Z</time>
      </trkpt>
      <trkpt lat="45.18548" lon="0.7125">
        <ele>102.3323899</ele>
        <time>2022-08-18T13:51:36Z</time>
      </trkpt>
      <trkpt lat="45.18544" lon="0.71249">
        <ele>102.3268262</ele>
        <time>2022-08-18T13:51:38Z</time>
      </trkpt>
      <trkpt lat="45.1854" lon="0.71241">
        <ele>102.1600136</ele>
        <time>2022-08-18T13:51:40Z</time>
      </trkpt>
      <trkpt lat="45.18538" lon="0.71231">
        <ele>101.7731391</ele>
        <time>2022-08-18T13:51:42Z</time>
      </trkpt>
      <trkpt lat="45.18535" lon="0.71222">
        <ele>101.2455811</ele>
        <time>2022-08-18T13:51:44Z</time>
      </trkpt>
      <trkpt lat="45.18532" lon="0.71211">
        <ele>100.2017729</ele>
        <time>2022-08-18T13:51:46Z</time>
      </trkpt>
      <trkpt lat="45.1853" lon="0.71199">
        <ele>99.9019747</ele>
        <time>2022-08-18T13:51:48Z</time>
      </trkpt>
      <trkpt lat="45.18527" lon="0.71187">
        <ele>100.1151244</ele>
        <time>2022-08-18T13:51:50Z</time>
      </trkpt>
      <trkpt lat="45.18525" lon="0.71177">
        <ele>99.4042895</ele>
        <time>2022-08-18T13:51:52Z</time>
      </trkpt>
      <trkpt lat="45.18523" lon="0.71167">
        <ele>98.5357784</ele>
        <time>2022-08-18T13:51:54Z</time>
      </trkpt>
      <trkpt lat="45.1852" lon="0.71156">
        <ele>98.615831</ele>
        <time>2022-08-18T13:51:56Z</time>
      </trkpt>
      <trkpt lat="45.18518" lon="0.71146">
        <ele>98.473356</ele>
        <time>2022-08-18T13:51:58Z</time>
      </trkpt>
      <trkpt lat="45.18515" lon="0.71136">
        <ele>98.2507292</ele>
        <time>2022-08-18T13:52:00Z</time>
      </trkpt>
      <trkpt lat="45.18513" lon="0.71126">
        <ele>97.9515716</ele>
        <time>2022-08-18T13:52:02Z</time>
      </trkpt>
      <trkpt lat="45.18511" lon="0.71117">
        <ele>97.3375268</ele>
        <time>2022-08-18T13:52:04Z</time>
      </trkpt>
      <trkpt lat="45.18509" lon="0.71106">
        <ele>97.8100728</ele>
        <time>2022-08-18T13:52:06Z</time>
      </trkpt>
      <trkpt lat="45.18506" lon="0.71097">
        <ele>97.5535508</ele>
        <time>2022-08-18T13:52:08Z</time>
      </trkpt>
      <trkpt lat="45.18503" lon="0.71086">
        <ele>98.0685094</ele>
        <time>2022-08-18T13:52:10Z</time>
      </trkpt>
      <trkpt lat="45.18501" lon="0.71077">
        <ele>98.1905202</ele>
        <time>2022-08-18T13:52:12Z</time>
      </trkpt>
      <trkpt lat="45.18499" lon="0.71067">
        <ele>98.1257513</ele>
        <time>2022-08-18T13:52:14Z</time>
      </trkpt>
      <trkpt lat="45.18497" lon="0.71057">
        <ele>97.8151457</ele>
        <time>2022-08-18T13:52:16Z</time>
      </trkpt>
      <trkpt lat="45.18496" lon="0.71049">
        <ele>97.931355</ele>
        <time>2022-08-18T13:52:18Z</time>
      </trkpt>
      <trkpt lat="45.18492" lon="0.71042">
        <ele>98.467339</ele>
        <time>2022-08-18T13:52:20Z</time>
      </trkpt>
      <trkpt lat="45.18489" lon="0.71036">
        <ele>97.9123185</ele>
        <time>2022-08-18T13:52:22Z</time>
      </trkpt>
      <trkpt lat="45.18484" lon="0.71033">
        <ele>98.1027183</ele>
        <time>2022-08-18T13:52:24Z</time>
      </trkpt>
      <trkpt lat="45.18484" lon="0.7103">
        <ele>98.4695756</ele>
        <time>2022-08-18T13:52:26Z</time>
      </trkpt>
      <trkpt lat="45.18487" lon="0.71023">
        <ele>97.6063247</ele>
        <time>2022-08-18T13:52:28Z</time>
      </trkpt>
      <trkpt lat="45.18489" lon="0.71018">
        <ele>97.7514924</ele>
        <time>2022-08-18T13:52:30Z</time>
      </trkpt>
      <trkpt lat="45.18489" lon="0.71013">
        <ele>97.845308</ele>
        <time>2022-08-18T13:52:32Z</time>
      </trkpt>
      <trkpt lat="45.18487" lon="0.71008">
        <ele>96.9684871</ele>
        <time>2022-08-18T13:52:34Z</time>
      </trkpt>
      <trkpt lat="45.18486" lon="0.71003">
        <ele>98.0363771</ele>
        <time>2022-08-18T13:52:36Z</time>
      </trkpt>
      <trkpt lat="45.18485" lon="0.70998">
        <ele>97.846549</ele>
        <time>2022-08-18T13:52:38Z</time>
      </trkpt>
      <trkpt lat="45.18485" lon="0.70994">
        <ele>97.1872358</ele>
        <time>2022-08-18T13:52:40Z</time>
      </trkpt>
      <trkpt lat="45.18486" lon="0.70995">
        <ele>97.1499331</ele>
        <time>2022-08-18T13:52:42Z</time>
      </trkpt>
      <trkpt lat="45.18486" lon="0.70996">
        <ele>96.8984663</ele>
        <time>2022-08-18T13:52:44Z</time>
      </trkpt>
      <trkpt lat="45.18487" lon="0.70996">
        <ele>96.8652809</ele>
        <time>2022-08-18T13:52:46Z</time>
      </trkpt>
      <trkpt lat="45.18487" lon="0.70996">
        <ele>96.8608535</ele>
        <time>2022-08-18T13:52:48Z</time>
      </trkpt>
      <trkpt lat="45.18486" lon="0.70996">
        <ele>96.8310947</ele>
        <time>2022-08-18T13:52:50Z</time>
      </trkpt>
      <trkpt lat="45.18486" lon="0.70995">
        <ele>96.6244369</ele>
        <time>2022-08-18T13:52:52Z</time>
      </trkpt>
      <trkpt lat="45.18486" lon="0.70995">
        <ele>96.1825211</ele>
        <time>2022-08-18T13:52:54Z</time>
      </trkpt>
      <trkpt lat="45.18487" lon="0.70995">
        <ele>96.0109917</ele>
        <time>2022-08-18T13:52:56Z</time>
      </trkpt>
      <trkpt lat="45.18487" lon="0.70995">
        <ele>96.2059737</ele>
        <time>2022-08-18T13:52:58Z</time>
      </trkpt>
      <trkpt lat="45.18487" lon="0.70995">
        <ele>96.1334137</ele>
        <time>2022-08-18T13:53:00Z</time>
      </trkpt>
      <trkpt lat="45.18485" lon="0.70993">
        <ele>96.1748585</ele>
        <time>2022-08-18T13:53:02Z</time>
      </trkpt>
      <trkpt lat="45.18485" lon="0.7099">
        <ele>95.9544594</ele>
        <time>2022-08-18T13:53:04Z</time>
      </trkpt>
      <trkpt lat="45.18483" lon="0.70985">
        <ele>95.3327783</ele>
        <time>2022-08-18T13:53:06Z</time>
      </trkpt>
      <trkpt lat="45.18483" lon="0.70983">
        <ele>95.5911962</ele>
        <time>2022-08-18T13:53:08Z</time>
      </trkpt>
      <trkpt lat="45.18484" lon="0.70979">
        <ele>95.003537</ele>
        <time>2022-08-18T13:53:10Z</time>
      </trkpt>
      <trkpt lat="45.18483" lon="0.70974">
        <ele>94.7367196</ele>
        <time>2022-08-18T13:53:12Z</time>
      </trkpt>
      <trkpt lat="45.18483" lon="0.70971">
        <ele>93.6673847</ele>
        <time>2022-08-18T13:53:14Z</time>
      </trkpt>
      <trkpt lat="45.18482" lon="0.70966">
        <ele>93.3366274</ele>
        <time>2022-08-18T13:53:16Z</time>
      </trkpt>
      <trkpt lat="45.18481" lon="0.70962">
        <ele>93.1429136</ele>
        <time>2022-08-18T13:53:18Z</time>
      </trkpt>
      <trkpt lat="45.1848" lon="0.70957">
        <ele>92.9189188</ele>
        <time>2022-08-18T13:53:20Z</time>
      </trkpt>
      <trkpt lat="45.18479" lon="0.70954">
        <ele>92.8138117</ele>
        <time>2022-08-18T13:53:22Z</time>
      </trkpt>
      <trkpt lat="45.18478" lon="0.7095">
        <ele>92.7812743</ele>
        <time>2022-08-18T13:53:24Z</time>
      </trkpt>
      <trkpt lat="45.18477" lon="0.70945">
        <ele>93.1941502</ele>
        <time>2022-08-18T13:53:26Z</time>
      </trkpt>
      <trkpt lat="45.18476" lon="0.70941">
        <ele>93.5798892</ele>
        <time>2022-08-18T13:53:28Z</time>
      </trkpt>
      <trkpt lat="45.18476" lon="0.70938">
        <ele>93.4810597</ele>
        <time>2022-08-18T13:53:30Z</time>
      </trkpt>
      <trkpt lat="45.18476" lon="0.70938">
        <ele>93.1476689</ele>
        <time>2022-08-18T13:53:32Z</time>
      </trkpt>
      <trkpt lat="45.18476" lon="0.70937">
        <ele>93.0885361</ele>
        <time>2022-08-18T13:53:34Z</time>
      </trkpt>
      <trkpt lat="45.18475" lon="0.70934">
        <ele>92.6754145</ele>
        <time>2022-08-18T13:53:36Z</time>
      </trkpt>
      <trkpt lat="45.18474" lon="0.70931">
        <ele>92.3143329</ele>
        <time>2022-08-18T13:53:38Z</time>
      </trkpt>
      <trkpt lat="45.18472" lon="0.70925">
        <ele>92.4637673</ele>
        <time>2022-08-18T13:53:40Z</time>
      </trkpt>
      <trkpt lat="45.18471" lon="0.70921">
        <ele>92.5053548</ele>
        <time>2022-08-18T13:53:42Z</time>
      </trkpt>
      <trkpt lat="45.1847" lon="0.70917">
        <ele>92.1723306</ele>
        <time>2022-08-18T13:53:44Z</time>
      </trkpt>
      <trkpt lat="45.1847" lon="0.70912">
        <ele>91.9986562</ele>
        <time>2022-08-18T13:53:46Z</time>
      </trkpt>
      <trkpt lat="45.18471" lon="0.70907">
        <ele>93.4171238</ele>
        <time>2022-08-18T13:53:48Z</time>
      </trkpt>
      <trkpt lat="45.18473" lon="0.70901">
        <ele>94.4751519</ele>
        <time>2022-08-18T13:53:50Z</time>
      </trkpt>
      <trkpt lat="45.18474" lon="0.70898">
        <ele>94.0209778</ele>
        <time>2022-08-18T13:53:52Z</time>
      </trkpt>
      <trkpt lat="45.18475" lon="0.70896">
        <ele>94.3446548</ele>
        <time>2022-08-18T13:53:54Z</time>
      </trkpt>
      <trkpt lat="45.18475" lon="0.70896">
        <ele>95.0653589</ele>
        <time>2022-08-18T13:53:56Z</time>
      </trkpt>
      <trkpt lat="45.18475" lon="0.70895">
        <ele>94.9904215</ele>
        <time>2022-08-18T13:53:58Z</time>
      </trkpt>
      <trkpt lat="45.18475" lon="0.70895">
        <ele>95.6184861</ele>
        <time>2022-08-18T13:54:00Z</time>
      </trkpt>
      <trkpt lat="45.18475" lon="0.70895">
        <ele>96.1815417</ele>
        <time>2022-08-18T13:54:02Z</time>
      </trkpt>
      <trkpt lat="45.18475" lon="0.70894">
        <ele>96.1375779</ele>
        <time>2022-08-18T13:54:04Z</time>
      </trkpt>
      <trkpt lat="45.18475" lon="0.70894">
        <ele>96.0888879</ele>
        <time>2022-08-18T13:54:06Z</time>
      </trkpt>
      <trkpt lat="45.18475" lon="0.70894">
        <ele>96.2081643</ele>
        <time>2022-08-18T13:54:08Z</time>
      </trkpt>
      <trkpt lat="45.18474" lon="0.70894">
        <ele>95.8446604</ele>
        <time>2022-08-18T13:54:10Z</time>
      </trkpt>
      <trkpt lat="45.18474" lon="0.70894">
        <ele>95.9964642</ele>
        <time>2022-08-18T13:54:12Z</time>
      </trkpt>
      <trkpt lat="45.18474" lon="0.70894">
        <ele>96.5936533</ele>
        <time>2022-08-18T13:54:14Z</time>
      </trkpt>
      <trkpt lat="45.18475" lon="0.70894">
        <ele>96.5162916</ele>
        <time>2022-08-18T13:54:16Z</time>
      </trkpt>
      <trkpt lat="45.18475" lon="0.70893">
        <ele>96.48697</ele>
        <time>2022-08-18T13:54:18Z</time>
      </trkpt>
      <trkpt lat="45.18475" lon="0.70893">
        <ele>96.8059421</ele>
        <time>2022-08-18T13:54:20Z</time>
      </trkpt>
      <trkpt lat="45.18474" lon="0.70893">
        <ele>97.2301684</ele>
        <time>2022-08-18T13:54:22Z</time>
      </trkpt>
      <trkpt lat="45.18474" lon="0.70893">
        <ele>97.0443564</ele>
        <time>2022-08-18T13:54:24Z</time>
      </trkpt>
      <trkpt lat="45.18475" lon="0.70893">
        <ele>96.9601878</ele>
        <time>2022-08-18T13:54:26Z</time>
      </trkpt>
      <trkpt lat="45.18475" lon="0.70893">
        <ele>97.3951728</ele>
        <time>2022-08-18T13:54:28Z</time>
      </trkpt>
      <trkpt lat="45.18474" lon="0.70893">
        <ele>96.9350867</ele>
        <time>2022-08-18T13:54:30Z</time>
      </trkpt>
      <trkpt lat="45.18475" lon="0.70892">
        <ele>97.4897146</ele>
        <time>2022-08-18T13:54:32Z</time>
      </trkpt>
      <trkpt lat="45.18474" lon="0.70892">
        <ele>97.3152996</ele>
        <time>2022-08-18T13:54:34Z</time>
      </trkpt>
      <trkpt lat="45.18475" lon="0.70892">
        <ele>97.1111452</ele>
        <time>2022-08-18T13:54:36Z</time>
      </trkpt>
      <trkpt lat="45.18475" lon="0.70891">
        <ele>97.2548453</ele>
        <time>2022-08-18T13:54:38Z</time>
      </trkpt>
      <trkpt lat="45.18475" lon="0.70891">
        <ele>97.5888657</ele>
        <time>2022-08-18T13:54:40Z</time>
      </trkpt>
      <trkpt lat="45.18475" lon="0.70891">
        <ele>97.5319868</ele>
        <time>2022-08-18T13:54:42Z</time>
      </trkpt>
      <trkpt lat="45.18475" lon="0.70892">
        <ele>97.123144</ele>
        <time>2022-08-18T13:54:45Z</time>
      </trkpt>
      <trkpt lat="45.18475" lon="0.70892">
        <ele>97.1582097</ele>
        <time>2022-08-18T13:54:47Z</time>
      </trkpt>
      <trkpt lat="45.18476" lon="0.70892">
        <ele>96.7518829</ele>
        <time>2022-08-18T13:54:49Z</time>
      </trkpt>
      <trkpt lat="45.18476" lon="0.70892">
        <ele>96.7360943</ele>
        <time>2022-08-18T13:54:51Z</time>
      </trkpt>
      <trkpt lat="45.18476" lon="0.70892">
        <ele>96.5465119</ele>
        <time>2022-08-18T13:54:52Z</time>
      </trkpt>
      <trkpt lat="45.18476" lon="0.70892">
        <ele>96.4621067</ele>
        <time>2022-08-18T13:54:54Z</time>
      </trkpt>
      <trkpt lat="45.18476" lon="0.70892">
        <ele>96.6661817</ele>
        <time>2022-08-18T13:54:56Z</time>
      </trkpt>
      <trkpt lat="45.18476" lon="0.70892">
        <ele>97.0529674</ele>
        <time>2022-08-18T13:54:58Z</time>
      </trkpt>
    </trkseg>
  </trk>
</gpx>